﻿<?xml version="1.0" encoding="UTF-8"?>
<gpx version="v1.1.5" creator="iTravel Tech Inc. - http://www.itravel-tech.com" xmlns:xsi="http://www.w3.org/2001/XMLSchema-instance" xmlns="http://www.topografix.com/GPX/1/1" xsi:schemaLocation="http://www.topografix.com/GPX/1/1 http://www.topografix.com/GPX/1/1/gpx.xsd http://www.topografix.com/GPX/gpx_overlay/0/3 http://www.topografix.com/GPX/gpx_overlay/0/3/gpx_overlay.xsd http://www.topografix.com/GPX/gpx_modified/0/1 http://www.topografix.com/GPX/gpx_modified/0/1/gpx_modified.xsd">
<trk>
<name>Holux2010/07/17_10:09</name>
<trkseg>
<trkpt lat="55.895794" lon="26.532070">
<ele>106.711975</ele>
<time>2010-07-17T07:09:42Z</time>
<desc>lat.=55.895794, lon.=26.532070, Alt.=106.711975m. Speed=13.752000m/h.</desc>
<speed>3.820000</speed>
</trkpt>
<trkpt lat="55.895767" lon="26.532038">
<ele>106.557678</ele>
<time>2010-07-17T07:09:43Z</time>
<desc>lat.=55.895767, lon.=26.532038, Alt.=106.557678m. Speed=12.024000m/h.</desc>
<speed>3.340000</speed>
</trkpt>
<trkpt lat="55.895760" lon="26.532045">
<ele>113.315491</ele>
<time>2010-07-17T07:09:44Z</time>
<desc>lat.=55.895760, lon.=26.532045, Alt.=113.315491m. Speed=13.896000m/h.</desc>
<speed>3.860000</speed>
</trkpt>
<trkpt lat="55.895496" lon="26.532036">
<ele>114.153381</ele>
<time>2010-07-17T07:09:45Z</time>
<desc>lat.=55.895496, lon.=26.532036, Alt.=114.153381m. Speed=17.351999m/h.</desc>
<speed>4.820000</speed>
</trkpt>
<trkpt lat="55.895355" lon="26.531992">
<ele>109.520569</ele>
<time>2010-07-17T07:09:46Z</time>
<desc>lat.=55.895355, lon.=26.531992, Alt.=109.520569m. Speed=21.959999m/h.</desc>
<speed>6.100000</speed>
</trkpt>
<trkpt lat="55.895283" lon="26.531952">
<ele>106.749084</ele>
<time>2010-07-17T07:09:47Z</time>
<desc>lat.=55.895283, lon.=26.531952, Alt.=106.749084m. Speed=23.615999m/h.</desc>
<speed>6.560000</speed>
</trkpt>
<trkpt lat="55.895149" lon="26.531904">
<ele>104.233459</ele>
<time>2010-07-17T07:09:48Z</time>
<desc>lat.=55.895149, lon.=26.531904, Alt.=104.233459m. Speed=22.788000m/h.</desc>
<speed>6.330000</speed>
</trkpt>
<trkpt lat="55.895046" lon="26.531878">
<ele>101.659241</ele>
<time>2010-07-17T07:09:49Z</time>
<desc>lat.=55.895046, lon.=26.531878, Alt.=101.659241m. Speed=24.516001m/h.</desc>
<speed>6.810000</speed>
</trkpt>
<trkpt lat="55.895042" lon="26.531853">
<ele>103.338928</ele>
<time>2010-07-17T07:09:50Z</time>
<desc>lat.=55.895042, lon.=26.531853, Alt.=103.338928m. Speed=22.068001m/h.</desc>
<speed>6.130000</speed>
</trkpt>
<trkpt lat="55.894913" lon="26.531818">
<ele>98.114319</ele>
<time>2010-07-17T07:09:51Z</time>
<desc>lat.=55.894913, lon.=26.531818, Alt.=98.114319m. Speed=22.320000m/h.</desc>
<speed>6.200000</speed>
</trkpt>
<trkpt lat="55.894890" lon="26.531811">
<ele>100.774475</ele>
<time>2010-07-17T07:09:52Z</time>
<desc>lat.=55.894890, lon.=26.531811, Alt.=100.774475m. Speed=20.268000m/h.</desc>
<speed>5.630000</speed>
</trkpt>
<trkpt lat="55.894840" lon="26.531799">
<ele>100.790100</ele>
<time>2010-07-17T07:09:53Z</time>
<desc>lat.=55.894840, lon.=26.531799, Alt.=100.790100m. Speed=19.368000m/h.</desc>
<speed>5.380000</speed>
</trkpt>
<trkpt lat="55.894806" lon="26.531816">
<ele>104.325256</ele>
<time>2010-07-17T07:09:54Z</time>
<desc>lat.=55.894806, lon.=26.531816, Alt.=104.325256m. Speed=16.704000m/h.</desc>
<speed>4.640000</speed>
</trkpt>
<trkpt lat="55.894768" lon="26.531824">
<ele>104.284241</ele>
<time>2010-07-17T07:09:55Z</time>
<desc>lat.=55.894768, lon.=26.531824, Alt.=104.284241m. Speed=15.480000m/h.</desc>
<speed>4.300000</speed>
</trkpt>
<trkpt lat="55.894745" lon="26.531855">
<ele>105.961975</ele>
<time>2010-07-17T07:09:56Z</time>
<desc>lat.=55.894745, lon.=26.531855, Alt.=105.961975m. Speed=15.732000m/h.</desc>
<speed>4.370000</speed>
</trkpt>
<trkpt lat="55.894714" lon="26.531897">
<ele>108.208069</ele>
<time>2010-07-17T07:09:57Z</time>
<desc>lat.=55.894714, lon.=26.531897, Alt.=108.208069m. Speed=18.252001m/h.</desc>
<speed>5.070000</speed>
</trkpt>
<trkpt lat="55.894676" lon="26.531937">
<ele>108.002991</ele>
<time>2010-07-17T07:09:58Z</time>
<desc>lat.=55.894676, lon.=26.531937, Alt.=108.002991m. Speed=17.316000m/h.</desc>
<speed>4.810000</speed>
</trkpt>
<trkpt lat="55.894642" lon="26.532001">
<ele>110.346741</ele>
<time>2010-07-17T07:09:59Z</time>
<desc>lat.=55.894642, lon.=26.532001, Alt.=110.346741m. Speed=22.247999m/h.</desc>
<speed>6.180000</speed>
</trkpt>
<trkpt lat="55.894611" lon="26.532076">
<ele>112.442444</ele>
<time>2010-07-17T07:10:00Z</time>
<desc>lat.=55.894611, lon.=26.532076, Alt.=112.442444m. Speed=21.816000m/h.</desc>
<speed>6.060000</speed>
</trkpt>
<trkpt lat="55.894508" lon="26.532177">
<ele>110.096741</ele>
<time>2010-07-17T07:10:01Z</time>
<desc>lat.=55.894508, lon.=26.532177, Alt.=110.096741m. Speed=22.032000m/h.</desc>
<speed>6.120000</speed>
</trkpt>
<trkpt lat="55.894455" lon="26.532265">
<ele>109.840881</ele>
<time>2010-07-17T07:10:02Z</time>
<desc>lat.=55.894455, lon.=26.532265, Alt.=109.840881m. Speed=21.851999m/h.</desc>
<speed>6.070000</speed>
</trkpt>
<trkpt lat="55.894413" lon="26.532345">
<ele>109.868225</ele>
<time>2010-07-17T07:10:03Z</time>
<desc>lat.=55.894413, lon.=26.532345, Alt.=109.868225m. Speed=23.903999m/h.</desc>
<speed>6.640000</speed>
</trkpt>
<trkpt lat="55.894367" lon="26.532431">
<ele>109.911194</ele>
<time>2010-07-17T07:10:04Z</time>
<desc>lat.=55.894367, lon.=26.532431, Alt.=109.911194m. Speed=23.940001m/h.</desc>
<speed>6.650000</speed>
</trkpt>
<trkpt lat="55.894325" lon="26.532516">
<ele>109.803772</ele>
<time>2010-07-17T07:10:05Z</time>
<desc>lat.=55.894325, lon.=26.532516, Alt.=109.803772m. Speed=23.148001m/h.</desc>
<speed>6.430000</speed>
</trkpt>
<trkpt lat="55.894287" lon="26.532610">
<ele>109.823303</ele>
<time>2010-07-17T07:10:06Z</time>
<desc>lat.=55.894287, lon.=26.532610, Alt.=109.823303m. Speed=23.292000m/h.</desc>
<speed>6.470000</speed>
</trkpt>
<trkpt lat="55.894253" lon="26.532692">
<ele>109.889709</ele>
<time>2010-07-17T07:10:07Z</time>
<desc>lat.=55.894253, lon.=26.532692, Alt.=109.889709m. Speed=21.384001m/h.</desc>
<speed>5.940000</speed>
</trkpt>
<trkpt lat="55.894226" lon="26.532770">
<ele>110.116272</ele>
<time>2010-07-17T07:10:08Z</time>
<desc>lat.=55.894226, lon.=26.532770, Alt.=110.116272m. Speed=20.340000m/h.</desc>
<speed>5.650000</speed>
</trkpt>
<trkpt lat="55.894207" lon="26.532846">
<ele>110.485413</ele>
<time>2010-07-17T07:10:09Z</time>
<desc>lat.=55.894207, lon.=26.532846, Alt.=110.485413m. Speed=19.115999m/h.</desc>
<speed>5.310000</speed>
</trkpt>
<trkpt lat="55.894203" lon="26.532915">
<ele>112.768616</ele>
<time>2010-07-17T07:10:10Z</time>
<desc>lat.=55.894203, lon.=26.532915, Alt.=112.768616m. Speed=17.388000m/h.</desc>
<speed>4.830000</speed>
</trkpt>
<trkpt lat="55.894184" lon="26.532986">
<ele>112.907288</ele>
<time>2010-07-17T07:10:11Z</time>
<desc>lat.=55.894184, lon.=26.532986, Alt.=112.907288m. Speed=17.351999m/h.</desc>
<speed>4.820000</speed>
</trkpt>
<trkpt lat="55.894146" lon="26.533072">
<ele>111.512756</ele>
<time>2010-07-17T07:10:12Z</time>
<desc>lat.=55.894146, lon.=26.533072, Alt.=111.512756m. Speed=13.788000m/h.</desc>
<speed>3.830000</speed>
</trkpt>
<trkpt lat="55.894131" lon="26.533119">
<ele>111.676819</ele>
<time>2010-07-17T07:10:13Z</time>
<desc>lat.=55.894131, lon.=26.533119, Alt.=111.676819m. Speed=10.296000m/h.</desc>
<speed>2.860000</speed>
</trkpt>
<trkpt lat="55.894096" lon="26.533163">
<ele>110.770569</ele>
<time>2010-07-17T07:10:14Z</time>
<desc>lat.=55.894096, lon.=26.533163, Alt.=110.770569m. Speed=9.576000m/h.</desc>
<speed>2.660000</speed>
</trkpt>
<trkpt lat="55.894051" lon="26.533150">
<ele>108.881897</ele>
<time>2010-07-17T07:10:15Z</time>
<desc>lat.=55.894051, lon.=26.533150, Alt.=108.881897m. Speed=11.988000m/h.</desc>
<speed>3.330000</speed>
</trkpt>
<trkpt lat="55.894016" lon="26.533098">
<ele>107.641663</ele>
<time>2010-07-17T07:10:16Z</time>
<desc>lat.=55.894016, lon.=26.533098, Alt.=107.641663m. Speed=13.716000m/h.</desc>
<speed>3.810000</speed>
</trkpt>
<trkpt lat="55.894009" lon="26.533054">
<ele>108.223694</ele>
<time>2010-07-17T07:10:17Z</time>
<desc>lat.=55.894009, lon.=26.533054, Alt.=108.223694m. Speed=14.940000m/h.</desc>
<speed>4.150000</speed>
</trkpt>
<trkpt lat="55.893993" lon="26.533010">
<ele>108.870178</ele>
<time>2010-07-17T07:10:18Z</time>
<desc>lat.=55.893993, lon.=26.533010, Alt.=108.870178m. Speed=15.804000m/h.</desc>
<speed>4.390000</speed>
</trkpt>
<trkpt lat="55.893974" lon="26.532970">
<ele>109.510803</ele>
<time>2010-07-17T07:10:19Z</time>
<desc>lat.=55.893974, lon.=26.532970, Alt.=109.510803m. Speed=15.120000m/h.</desc>
<speed>4.200000</speed>
</trkpt>
<trkpt lat="55.893955" lon="26.532946">
<ele>110.282288</ele>
<time>2010-07-17T07:10:20Z</time>
<desc>lat.=55.893955, lon.=26.532946, Alt.=110.282288m. Speed=16.271999m/h.</desc>
<speed>4.520000</speed>
</trkpt>
<trkpt lat="55.893921" lon="26.532919">
<ele>110.335022</ele>
<time>2010-07-17T07:10:21Z</time>
<desc>lat.=55.893921, lon.=26.532919, Alt.=110.335022m. Speed=14.184000m/h.</desc>
<speed>3.940000</speed>
</trkpt>
<trkpt lat="55.893848" lon="26.532864">
<ele>106.606506</ele>
<time>2010-07-17T07:10:22Z</time>
<desc>lat.=55.893848, lon.=26.532864, Alt.=106.606506m. Speed=14.040000m/h.</desc>
<speed>3.900000</speed>
</trkpt>
<trkpt lat="55.893806" lon="26.532864">
<ele>106.756897</ele>
<time>2010-07-17T07:10:23Z</time>
<desc>lat.=55.893806, lon.=26.532864, Alt.=106.756897m. Speed=15.444000m/h.</desc>
<speed>4.290000</speed>
</trkpt>
<trkpt lat="55.893784" lon="26.532879">
<ele>107.167053</ele>
<time>2010-07-17T07:10:24Z</time>
<desc>lat.=55.893784, lon.=26.532879, Alt.=107.167053m. Speed=15.336000m/h.</desc>
<speed>4.260000</speed>
</trkpt>
<trkpt lat="55.893826" lon="26.532932">
<ele>109.778381</ele>
<time>2010-07-17T07:10:25Z</time>
<desc>lat.=55.893826, lon.=26.532932, Alt.=109.778381m. Speed=15.336000m/h.</desc>
<speed>4.260000</speed>
</trkpt>
<trkpt lat="55.893841" lon="26.532961">
<ele>108.579163</ele>
<time>2010-07-17T07:10:26Z</time>
<desc>lat.=55.893841, lon.=26.532961, Alt.=108.579163m. Speed=12.096000m/h.</desc>
<speed>3.360000</speed>
</trkpt>
<trkpt lat="55.893818" lon="26.533007">
<ele>108.381897</ele>
<time>2010-07-17T07:10:27Z</time>
<desc>lat.=55.893818, lon.=26.533007, Alt.=108.381897m. Speed=16.236000m/h.</desc>
<speed>4.510000</speed>
</trkpt>
<trkpt lat="55.893772" lon="26.533062">
<ele>107.930725</ele>
<time>2010-07-17T07:10:28Z</time>
<desc>lat.=55.893772, lon.=26.533062, Alt.=107.930725m. Speed=16.848000m/h.</desc>
<speed>4.680000</speed>
</trkpt>
<trkpt lat="55.893738" lon="26.533115">
<ele>108.208069</ele>
<time>2010-07-17T07:10:29Z</time>
<desc>lat.=55.893738, lon.=26.533115, Alt.=108.208069m. Speed=17.172001m/h.</desc>
<speed>4.770000</speed>
</trkpt>
<trkpt lat="55.893692" lon="26.533148">
<ele>107.954163</ele>
<time>2010-07-17T07:10:30Z</time>
<desc>lat.=55.893692, lon.=26.533148, Alt.=107.954163m. Speed=15.984000m/h.</desc>
<speed>4.440000</speed>
</trkpt>
<trkpt lat="55.893627" lon="26.533169">
<ele>107.383850</ele>
<time>2010-07-17T07:10:31Z</time>
<desc>lat.=55.893627, lon.=26.533169, Alt.=107.383850m. Speed=20.483999m/h.</desc>
<speed>5.690000</speed>
</trkpt>
<trkpt lat="55.893562" lon="26.533178">
<ele>106.586975</ele>
<time>2010-07-17T07:10:32Z</time>
<desc>lat.=55.893562, lon.=26.533178, Alt.=106.586975m. Speed=20.591999m/h.</desc>
<speed>5.720000</speed>
</trkpt>
<trkpt lat="55.893490" lon="26.533190">
<ele>106.280334</ele>
<time>2010-07-17T07:10:33Z</time>
<desc>lat.=55.893490, lon.=26.533190, Alt.=106.280334m. Speed=22.139999m/h.</desc>
<speed>6.150000</speed>
</trkpt>
<trkpt lat="55.893440" lon="26.533199">
<ele>106.645569</ele>
<time>2010-07-17T07:10:34Z</time>
<desc>lat.=55.893440, lon.=26.533199, Alt.=106.645569m. Speed=21.348000m/h.</desc>
<speed>5.930000</speed>
</trkpt>
<trkpt lat="55.893394" lon="26.533216">
<ele>107.413147</ele>
<time>2010-07-17T07:10:35Z</time>
<desc>lat.=55.893394, lon.=26.533216, Alt.=107.413147m. Speed=20.412001m/h.</desc>
<speed>5.670000</speed>
</trkpt>
<trkpt lat="55.893345" lon="26.533230">
<ele>107.788147</ele>
<time>2010-07-17T07:10:36Z</time>
<desc>lat.=55.893345, lon.=26.533230, Alt.=107.788147m. Speed=18.252001m/h.</desc>
<speed>5.070000</speed>
</trkpt>
<trkpt lat="55.893269" lon="26.533234">
<ele>107.711975</ele>
<time>2010-07-17T07:10:37Z</time>
<desc>lat.=55.893269, lon.=26.533234, Alt.=107.711975m. Speed=25.596001m/h.</desc>
<speed>7.110000</speed>
</trkpt>
<trkpt lat="55.893208" lon="26.533230">
<ele>107.379944</ele>
<time>2010-07-17T07:10:38Z</time>
<desc>lat.=55.893208, lon.=26.533230, Alt.=107.379944m. Speed=24.228001m/h.</desc>
<speed>6.730000</speed>
</trkpt>
<trkpt lat="55.893143" lon="26.533234">
<ele>106.174866</ele>
<time>2010-07-17T07:10:39Z</time>
<desc>lat.=55.893143, lon.=26.533234, Alt.=106.174866m. Speed=23.184000m/h.</desc>
<speed>6.440000</speed>
</trkpt>
<trkpt lat="55.893093" lon="26.533245">
<ele>106.290100</ele>
<time>2010-07-17T07:10:40Z</time>
<desc>lat.=55.893093, lon.=26.533245, Alt.=106.290100m. Speed=19.799999m/h.</desc>
<speed>5.500000</speed>
</trkpt>
<trkpt lat="55.893047" lon="26.533262">
<ele>106.336975</ele>
<time>2010-07-17T07:10:41Z</time>
<desc>lat.=55.893047, lon.=26.533262, Alt.=106.336975m. Speed=18.900000m/h.</desc>
<speed>5.250000</speed>
</trkpt>
<trkpt lat="55.892986" lon="26.533249">
<ele>103.946350</ele>
<time>2010-07-17T07:10:42Z</time>
<desc>lat.=55.892986, lon.=26.533249, Alt.=103.946350m. Speed=20.916000m/h.</desc>
<speed>5.810000</speed>
</trkpt>
<trkpt lat="55.892941" lon="26.533251">
<ele>103.354553</ele>
<time>2010-07-17T07:10:43Z</time>
<desc>lat.=55.892941, lon.=26.533251, Alt.=103.354553m. Speed=21.563999m/h.</desc>
<speed>5.990000</speed>
</trkpt>
<trkpt lat="55.892891" lon="26.533258">
<ele>103.409241</ele>
<time>2010-07-17T07:10:44Z</time>
<desc>lat.=55.892891, lon.=26.533258, Alt.=103.409241m. Speed=21.636000m/h.</desc>
<speed>6.010000</speed>
</trkpt>
<trkpt lat="55.892811" lon="26.533278">
<ele>102.881897</ele>
<time>2010-07-17T07:10:45Z</time>
<desc>lat.=55.892811, lon.=26.533278, Alt.=102.881897m. Speed=22.104000m/h.</desc>
<speed>6.140000</speed>
</trkpt>
<trkpt lat="55.892746" lon="26.533298">
<ele>103.704163</ele>
<time>2010-07-17T07:10:46Z</time>
<desc>lat.=55.892746, lon.=26.533298, Alt.=103.704163m. Speed=22.427999m/h.</desc>
<speed>6.230000</speed>
</trkpt>
<trkpt lat="55.892673" lon="26.533293">
<ele>102.313538</ele>
<time>2010-07-17T07:10:47Z</time>
<desc>lat.=55.892673, lon.=26.533293, Alt.=102.313538m. Speed=18.756001m/h.</desc>
<speed>5.210000</speed>
</trkpt>
<trkpt lat="55.892609" lon="26.533310">
<ele>101.528381</ele>
<time>2010-07-17T07:10:48Z</time>
<desc>lat.=55.892609, lon.=26.533310, Alt.=101.528381m. Speed=19.548000m/h.</desc>
<speed>5.430000</speed>
</trkpt>
<trkpt lat="55.892555" lon="26.533321">
<ele>101.325256</ele>
<time>2010-07-17T07:10:49Z</time>
<desc>lat.=55.892555, lon.=26.533321, Alt.=101.325256m. Speed=20.304001m/h.</desc>
<speed>5.640000</speed>
</trkpt>
<trkpt lat="55.892513" lon="26.533325">
<ele>101.631897</ele>
<time>2010-07-17T07:10:50Z</time>
<desc>lat.=55.892513, lon.=26.533325, Alt.=101.631897m. Speed=22.176001m/h.</desc>
<speed>6.160000</speed>
</trkpt>
<trkpt lat="55.892452" lon="26.533333">
<ele>101.352600</ele>
<time>2010-07-17T07:10:51Z</time>
<desc>lat.=55.892452, lon.=26.533333, Alt.=101.352600m. Speed=23.544001m/h.</desc>
<speed>6.540000</speed>
</trkpt>
<trkpt lat="55.892395" lon="26.533348">
<ele>101.399475</ele>
<time>2010-07-17T07:10:52Z</time>
<desc>lat.=55.892395, lon.=26.533348, Alt.=101.399475m. Speed=23.256001m/h.</desc>
<speed>6.460000</speed>
</trkpt>
<trkpt lat="55.892323" lon="26.533363">
<ele>100.331116</ele>
<time>2010-07-17T07:10:53Z</time>
<desc>lat.=55.892323, lon.=26.533363, Alt.=100.331116m. Speed=21.348000m/h.</desc>
<speed>5.930000</speed>
</trkpt>
<trkpt lat="55.892262" lon="26.533379">
<ele>100.038147</ele>
<time>2010-07-17T07:10:54Z</time>
<desc>lat.=55.892262, lon.=26.533379, Alt.=100.038147m. Speed=22.608000m/h.</desc>
<speed>6.280000</speed>
</trkpt>
<trkpt lat="55.892208" lon="26.533396">
<ele>100.116272</ele>
<time>2010-07-17T07:10:55Z</time>
<desc>lat.=55.892208, lon.=26.533396, Alt.=100.116272m. Speed=20.988001m/h.</desc>
<speed>5.830000</speed>
</trkpt>
<trkpt lat="55.892155" lon="26.533407">
<ele>100.241272</ele>
<time>2010-07-17T07:10:56Z</time>
<desc>lat.=55.892155, lon.=26.533407, Alt.=100.241272m. Speed=21.636000m/h.</desc>
<speed>6.010000</speed>
</trkpt>
<trkpt lat="55.892105" lon="26.533415">
<ele>100.288147</ele>
<time>2010-07-17T07:10:57Z</time>
<desc>lat.=55.892105, lon.=26.533415, Alt.=100.288147m. Speed=21.420000m/h.</desc>
<speed>5.950000</speed>
</trkpt>
<trkpt lat="55.892056" lon="26.533426">
<ele>100.557678</ele>
<time>2010-07-17T07:10:58Z</time>
<desc>lat.=55.892056, lon.=26.533426, Alt.=100.557678m. Speed=21.528000m/h.</desc>
<speed>5.980000</speed>
</trkpt>
<trkpt lat="55.892006" lon="26.533426">
<ele>100.932678</ele>
<time>2010-07-17T07:10:59Z</time>
<desc>lat.=55.892006, lon.=26.533426, Alt.=100.932678m. Speed=23.148001m/h.</desc>
<speed>6.430000</speed>
</trkpt>
<trkpt lat="55.891956" lon="26.533430">
<ele>101.194397</ele>
<time>2010-07-17T07:11:00Z</time>
<desc>lat.=55.891956, lon.=26.533430, Alt.=101.194397m. Speed=22.320000m/h.</desc>
<speed>6.200000</speed>
</trkpt>
<trkpt lat="55.891891" lon="26.533434">
<ele>100.797913</ele>
<time>2010-07-17T07:11:01Z</time>
<desc>lat.=55.891891, lon.=26.533434, Alt.=100.797913m. Speed=22.212000m/h.</desc>
<speed>6.170000</speed>
</trkpt>
<trkpt lat="55.891834" lon="26.533455">
<ele>101.844788</ele>
<time>2010-07-17T07:11:02Z</time>
<desc>lat.=55.891834, lon.=26.533455, Alt.=101.844788m. Speed=23.903999m/h.</desc>
<speed>6.640000</speed>
</trkpt>
<trkpt lat="55.891788" lon="26.533474">
<ele>103.434631</ele>
<time>2010-07-17T07:11:03Z</time>
<desc>lat.=55.891788, lon.=26.533474, Alt.=103.434631m. Speed=17.280001m/h.</desc>
<speed>4.800000</speed>
</trkpt>
<trkpt lat="55.891735" lon="26.533484">
<ele>104.016663</ele>
<time>2010-07-17T07:11:04Z</time>
<desc>lat.=55.891735, lon.=26.533484, Alt.=104.016663m. Speed=22.247999m/h.</desc>
<speed>6.180000</speed>
</trkpt>
<trkpt lat="55.891678" lon="26.533493">
<ele>103.963928</ele>
<time>2010-07-17T07:11:05Z</time>
<desc>lat.=55.891678, lon.=26.533493, Alt.=103.963928m. Speed=22.427999m/h.</desc>
<speed>6.230000</speed>
</trkpt>
<trkpt lat="55.891605" lon="26.533497">
<ele>103.928772</ele>
<time>2010-07-17T07:11:06Z</time>
<desc>lat.=55.891605, lon.=26.533497, Alt.=103.928772m. Speed=24.732000m/h.</desc>
<speed>6.870000</speed>
</trkpt>
<trkpt lat="55.891541" lon="26.533504">
<ele>103.952209</ele>
<time>2010-07-17T07:11:07Z</time>
<desc>lat.=55.891541, lon.=26.533504, Alt.=103.952209m. Speed=24.768000m/h.</desc>
<speed>6.880000</speed>
</trkpt>
<trkpt lat="55.891483" lon="26.533514">
<ele>104.278381</ele>
<time>2010-07-17T07:11:08Z</time>
<desc>lat.=55.891483, lon.=26.533514, Alt.=104.278381m. Speed=23.760000m/h.</desc>
<speed>6.600000</speed>
</trkpt>
<trkpt lat="55.891430" lon="26.533510">
<ele>104.391663</ele>
<time>2010-07-17T07:11:09Z</time>
<desc>lat.=55.891430, lon.=26.533510, Alt.=104.391663m. Speed=23.148001m/h.</desc>
<speed>6.430000</speed>
</trkpt>
<trkpt lat="55.891373" lon="26.533506">
<ele>104.301819</ele>
<time>2010-07-17T07:11:10Z</time>
<desc>lat.=55.891373, lon.=26.533506, Alt.=104.301819m. Speed=24.299999m/h.</desc>
<speed>6.750000</speed>
</trkpt>
<trkpt lat="55.891308" lon="26.533520">
<ele>104.335022</ele>
<time>2010-07-17T07:11:11Z</time>
<desc>lat.=55.891308, lon.=26.533520, Alt.=104.335022m. Speed=25.416000m/h.</desc>
<speed>7.060000</speed>
</trkpt>
<trkpt lat="55.891243" lon="26.533533">
<ele>104.602600</ele>
<time>2010-07-17T07:11:12Z</time>
<desc>lat.=55.891243, lon.=26.533533, Alt.=104.602600m. Speed=26.856001m/h.</desc>
<speed>7.460000</speed>
</trkpt>
<trkpt lat="55.891174" lon="26.533545">
<ele>104.567444</ele>
<time>2010-07-17T07:11:13Z</time>
<desc>lat.=55.891174, lon.=26.533545, Alt.=104.567444m. Speed=26.784000m/h.</desc>
<speed>7.440000</speed>
</trkpt>
<trkpt lat="55.891125" lon="26.533571">
<ele>104.624084</ele>
<time>2010-07-17T07:11:14Z</time>
<desc>lat.=55.891125, lon.=26.533571, Alt.=104.624084m. Speed=25.740000m/h.</desc>
<speed>7.150000</speed>
</trkpt>
<trkpt lat="55.891060" lon="26.533585">
<ele>104.315491</ele>
<time>2010-07-17T07:11:15Z</time>
<desc>lat.=55.891060, lon.=26.533585, Alt.=104.315491m. Speed=25.632000m/h.</desc>
<speed>7.120000</speed>
</trkpt>
<trkpt lat="55.890995" lon="26.533602">
<ele>104.698303</ele>
<time>2010-07-17T07:11:16Z</time>
<desc>lat.=55.890995, lon.=26.533602, Alt.=104.698303m. Speed=26.280001m/h.</desc>
<speed>7.300000</speed>
</trkpt>
<trkpt lat="55.890930" lon="26.533604">
<ele>104.024475</ele>
<time>2010-07-17T07:11:17Z</time>
<desc>lat.=55.890930, lon.=26.533604, Alt.=104.024475m. Speed=23.112000m/h.</desc>
<speed>6.420000</speed>
</trkpt>
<trkpt lat="55.890862" lon="26.533619">
<ele>104.020569</ele>
<time>2010-07-17T07:11:18Z</time>
<desc>lat.=55.890862, lon.=26.533619, Alt.=104.020569m. Speed=22.968000m/h.</desc>
<speed>6.380000</speed>
</trkpt>
<trkpt lat="55.890774" lon="26.533619">
<ele>101.481506</ele>
<time>2010-07-17T07:11:19Z</time>
<desc>lat.=55.890774, lon.=26.533619, Alt.=101.481506m. Speed=27.431999m/h.</desc>
<speed>7.620000</speed>
</trkpt>
<trkpt lat="55.890713" lon="26.533636">
<ele>100.616272</ele>
<time>2010-07-17T07:11:20Z</time>
<desc>lat.=55.890713, lon.=26.533636, Alt.=100.616272m. Speed=24.299999m/h.</desc>
<speed>6.750000</speed>
</trkpt>
<trkpt lat="55.890659" lon="26.533653">
<ele>100.592834</ele>
<time>2010-07-17T07:11:21Z</time>
<desc>lat.=55.890659, lon.=26.533653, Alt.=100.592834m. Speed=25.559999m/h.</desc>
<speed>7.100000</speed>
</trkpt>
<trkpt lat="55.890598" lon="26.533667">
<ele>100.243225</ele>
<time>2010-07-17T07:11:22Z</time>
<desc>lat.=55.890598, lon.=26.533667, Alt.=100.243225m. Speed=27.072001m/h.</desc>
<speed>7.520000</speed>
</trkpt>
<trkpt lat="55.890533" lon="26.533680">
<ele>100.018616</ele>
<time>2010-07-17T07:11:23Z</time>
<desc>lat.=55.890533, lon.=26.533680, Alt.=100.018616m. Speed=25.812000m/h.</desc>
<speed>7.170000</speed>
</trkpt>
<trkpt lat="55.890472" lon="26.533691">
<ele>99.877991</ele>
<time>2010-07-17T07:11:24Z</time>
<desc>lat.=55.890472, lon.=26.533691, Alt.=99.877991m. Speed=26.604000m/h.</desc>
<speed>7.390000</speed>
</trkpt>
<trkpt lat="55.890408" lon="26.533699">
<ele>99.747131</ele>
<time>2010-07-17T07:11:25Z</time>
<desc>lat.=55.890408, lon.=26.533699, Alt.=99.747131m. Speed=25.056000m/h.</desc>
<speed>6.960000</speed>
</trkpt>
<trkpt lat="55.890339" lon="26.533710">
<ele>99.387756</ele>
<time>2010-07-17T07:11:26Z</time>
<desc>lat.=55.890339, lon.=26.533710, Alt.=99.387756m. Speed=26.747999m/h.</desc>
<speed>7.430000</speed>
</trkpt>
<trkpt lat="55.890266" lon="26.533733">
<ele>99.057678</ele>
<time>2010-07-17T07:11:27Z</time>
<desc>lat.=55.890266, lon.=26.533733, Alt.=99.057678m. Speed=27.288000m/h.</desc>
<speed>7.580000</speed>
</trkpt>
<trkpt lat="55.890205" lon="26.533754">
<ele>98.924866</ele>
<time>2010-07-17T07:11:28Z</time>
<desc>lat.=55.890205, lon.=26.533754, Alt.=98.924866m. Speed=26.820000m/h.</desc>
<speed>7.450000</speed>
</trkpt>
<trkpt lat="55.890141" lon="26.533772">
<ele>98.585022</ele>
<time>2010-07-17T07:11:29Z</time>
<desc>lat.=55.890141, lon.=26.533772, Alt.=98.585022m. Speed=26.927999m/h.</desc>
<speed>7.480000</speed>
</trkpt>
<trkpt lat="55.890076" lon="26.533789">
<ele>98.335022</ele>
<time>2010-07-17T07:11:30Z</time>
<desc>lat.=55.890076, lon.=26.533789, Alt.=98.335022m. Speed=25.559999m/h.</desc>
<speed>7.100000</speed>
</trkpt>
<trkpt lat="55.890011" lon="26.533802">
<ele>98.147522</ele>
<time>2010-07-17T07:11:31Z</time>
<desc>lat.=55.890011, lon.=26.533802, Alt.=98.147522m. Speed=25.704000m/h.</desc>
<speed>7.140000</speed>
</trkpt>
<trkpt lat="55.889946" lon="26.533813">
<ele>97.922913</ele>
<time>2010-07-17T07:11:32Z</time>
<desc>lat.=55.889946, lon.=26.533813, Alt.=97.922913m. Speed=26.532000m/h.</desc>
<speed>7.370000</speed>
</trkpt>
<trkpt lat="55.889877" lon="26.533819">
<ele>97.376038</ele>
<time>2010-07-17T07:11:33Z</time>
<desc>lat.=55.889877, lon.=26.533819, Alt.=97.376038m. Speed=26.172001m/h.</desc>
<speed>7.270000</speed>
</trkpt>
<trkpt lat="55.889816" lon="26.533836">
<ele>97.167053</ele>
<time>2010-07-17T07:11:34Z</time>
<desc>lat.=55.889816, lon.=26.533836, Alt.=97.167053m. Speed=25.559999m/h.</desc>
<speed>7.100000</speed>
</trkpt>
<trkpt lat="55.889751" lon="26.533846">
<ele>96.874084</ele>
<time>2010-07-17T07:11:35Z</time>
<desc>lat.=55.889751, lon.=26.533846, Alt.=96.874084m. Speed=26.424000m/h.</desc>
<speed>7.340000</speed>
</trkpt>
<trkpt lat="55.889690" lon="26.533836">
<ele>96.928772</ele>
<time>2010-07-17T07:11:36Z</time>
<desc>lat.=55.889690, lon.=26.533836, Alt.=96.928772m. Speed=26.172001m/h.</desc>
<speed>7.270000</speed>
</trkpt>
<trkpt lat="55.889641" lon="26.533813">
<ele>97.178772</ele>
<time>2010-07-17T07:11:37Z</time>
<desc>lat.=55.889641, lon.=26.533813, Alt.=97.178772m. Speed=24.840000m/h.</desc>
<speed>6.900000</speed>
</trkpt>
<trkpt lat="55.889584" lon="26.533819">
<ele>97.053772</ele>
<time>2010-07-17T07:11:38Z</time>
<desc>lat.=55.889584, lon.=26.533819, Alt.=97.053772m. Speed=24.372000m/h.</desc>
<speed>6.770000</speed>
</trkpt>
<trkpt lat="55.889511" lon="26.533833">
<ele>96.876038</ele>
<time>2010-07-17T07:11:39Z</time>
<desc>lat.=55.889511, lon.=26.533833, Alt.=96.876038m. Speed=26.604000m/h.</desc>
<speed>7.390000</speed>
</trkpt>
<trkpt lat="55.889442" lon="26.533846">
<ele>96.631897</ele>
<time>2010-07-17T07:11:40Z</time>
<desc>lat.=55.889442, lon.=26.533846, Alt.=96.631897m. Speed=27.035999m/h.</desc>
<speed>7.510000</speed>
</trkpt>
<trkpt lat="55.889366" lon="26.533859">
<ele>96.424866</ele>
<time>2010-07-17T07:11:41Z</time>
<desc>lat.=55.889366, lon.=26.533859, Alt.=96.424866m. Speed=26.712000m/h.</desc>
<speed>7.420000</speed>
</trkpt>
<trkpt lat="55.889297" lon="26.533867">
<ele>96.204163</ele>
<time>2010-07-17T07:11:42Z</time>
<desc>lat.=55.889297, lon.=26.533867, Alt.=96.204163m. Speed=27.864000m/h.</desc>
<speed>7.740000</speed>
</trkpt>
<trkpt lat="55.889233" lon="26.533863">
<ele>96.002991</ele>
<time>2010-07-17T07:11:43Z</time>
<desc>lat.=55.889233, lon.=26.533863, Alt.=96.002991m. Speed=27.684000m/h.</desc>
<speed>7.690000</speed>
</trkpt>
<trkpt lat="55.889160" lon="26.533878">
<ele>95.710022</ele>
<time>2010-07-17T07:11:44Z</time>
<desc>lat.=55.889160, lon.=26.533878, Alt.=95.710022m. Speed=27.827999m/h.</desc>
<speed>7.730000</speed>
</trkpt>
<trkpt lat="55.889091" lon="26.533888">
<ele>95.473694</ele>
<time>2010-07-17T07:11:45Z</time>
<desc>lat.=55.889091, lon.=26.533888, Alt.=95.473694m. Speed=28.007999m/h.</desc>
<speed>7.780000</speed>
</trkpt>
<trkpt lat="55.888992" lon="26.533894">
<ele>95.329163</ele>
<time>2010-07-17T07:11:46Z</time>
<desc>lat.=55.888992, lon.=26.533894, Alt.=95.329163m. Speed=28.944000m/h.</desc>
<speed>8.040000</speed>
</trkpt>
<trkpt lat="55.888927" lon="26.533882">
<ele>95.243225</ele>
<time>2010-07-17T07:11:47Z</time>
<desc>lat.=55.888927, lon.=26.533882, Alt.=95.243225m. Speed=28.799999m/h.</desc>
<speed>8.000000</speed>
</trkpt>
<trkpt lat="55.888855" lon="26.533897">
<ele>94.956116</ele>
<time>2010-07-17T07:11:48Z</time>
<desc>lat.=55.888855, lon.=26.533897, Alt.=94.956116m. Speed=29.483999m/h.</desc>
<speed>8.190000</speed>
</trkpt>
<trkpt lat="55.888794" lon="26.533911">
<ele>94.633850</ele>
<time>2010-07-17T07:11:49Z</time>
<desc>lat.=55.888794, lon.=26.533911, Alt.=94.633850m. Speed=28.224001m/h.</desc>
<speed>7.840000</speed>
</trkpt>
<trkpt lat="55.888718" lon="26.533926">
<ele>94.350647</ele>
<time>2010-07-17T07:11:50Z</time>
<desc>lat.=55.888718, lon.=26.533926, Alt.=94.350647m. Speed=29.556000m/h.</desc>
<speed>8.210000</speed>
</trkpt>
<trkpt lat="55.888649" lon="26.533941">
<ele>94.127991</ele>
<time>2010-07-17T07:11:51Z</time>
<desc>lat.=55.888649, lon.=26.533941, Alt.=94.127991m. Speed=27.864000m/h.</desc>
<speed>7.740000</speed>
</trkpt>
<trkpt lat="55.888557" lon="26.533953">
<ele>93.895569</ele>
<time>2010-07-17T07:11:52Z</time>
<desc>lat.=55.888557, lon.=26.533953, Alt.=93.895569m. Speed=30.420000m/h.</desc>
<speed>8.450000</speed>
</trkpt>
<trkpt lat="55.888470" lon="26.533960">
<ele>93.758850</ele>
<time>2010-07-17T07:11:53Z</time>
<desc>lat.=55.888470, lon.=26.533960, Alt.=93.758850m. Speed=28.836000m/h.</desc>
<speed>8.010000</speed>
</trkpt>
<trkpt lat="55.888397" lon="26.533978">
<ele>93.469788</ele>
<time>2010-07-17T07:11:54Z</time>
<desc>lat.=55.888397, lon.=26.533978, Alt.=93.469788m. Speed=28.656000m/h.</desc>
<speed>7.960000</speed>
</trkpt>
<trkpt lat="55.888306" lon="26.533981">
<ele>93.274475</ele>
<time>2010-07-17T07:11:55Z</time>
<desc>lat.=55.888306, lon.=26.533981, Alt.=93.274475m. Speed=27.936001m/h.</desc>
<speed>7.760000</speed>
</trkpt>
<trkpt lat="55.888229" lon="26.533991">
<ele>93.042053</ele>
<time>2010-07-17T07:11:56Z</time>
<desc>lat.=55.888229, lon.=26.533991, Alt.=93.042053m. Speed=27.504000m/h.</desc>
<speed>7.640000</speed>
</trkpt>
<trkpt lat="55.888161" lon="26.533998">
<ele>92.852600</ele>
<time>2010-07-17T07:11:57Z</time>
<desc>lat.=55.888161, lon.=26.533998, Alt.=92.852600m. Speed=27.827999m/h.</desc>
<speed>7.730000</speed>
</trkpt>
<trkpt lat="55.888084" lon="26.534006">
<ele>92.655334</ele>
<time>2010-07-17T07:11:58Z</time>
<desc>lat.=55.888084, lon.=26.534006, Alt.=92.655334m. Speed=28.548000m/h.</desc>
<speed>7.930000</speed>
</trkpt>
<trkpt lat="55.888004" lon="26.534031">
<ele>92.477600</ele>
<time>2010-07-17T07:11:59Z</time>
<desc>lat.=55.888004, lon.=26.534031, Alt.=92.477600m. Speed=26.964001m/h.</desc>
<speed>7.490000</speed>
</trkpt>
<trkpt lat="55.887875" lon="26.534031">
<ele>92.495178</ele>
<time>2010-07-17T07:12:00Z</time>
<desc>lat.=55.887875, lon.=26.534031, Alt.=92.495178m. Speed=29.628000m/h.</desc>
<speed>8.230000</speed>
</trkpt>
<trkpt lat="55.887798" lon="26.534044">
<ele>92.377991</ele>
<time>2010-07-17T07:12:01Z</time>
<desc>lat.=55.887798, lon.=26.534044, Alt.=92.377991m. Speed=27.972000m/h.</desc>
<speed>7.770000</speed>
</trkpt>
<trkpt lat="55.887726" lon="26.534058">
<ele>92.126038</ele>
<time>2010-07-17T07:12:02Z</time>
<desc>lat.=55.887726, lon.=26.534058, Alt.=92.126038m. Speed=29.016001m/h.</desc>
<speed>8.060000</speed>
</trkpt>
<trkpt lat="55.887657" lon="26.534071">
<ele>91.919006</ele>
<time>2010-07-17T07:12:03Z</time>
<desc>lat.=55.887657, lon.=26.534071, Alt.=91.919006m. Speed=26.892000m/h.</desc>
<speed>7.470000</speed>
</trkpt>
<trkpt lat="55.887596" lon="26.534082">
<ele>91.727600</ele>
<time>2010-07-17T07:12:04Z</time>
<desc>lat.=55.887596, lon.=26.534082, Alt.=91.727600m. Speed=24.948000m/h.</desc>
<speed>6.930000</speed>
</trkpt>
<trkpt lat="55.887527" lon="26.534092">
<ele>91.565491</ele>
<time>2010-07-17T07:12:05Z</time>
<desc>lat.=55.887527, lon.=26.534092, Alt.=91.565491m. Speed=26.243999m/h.</desc>
<speed>7.290000</speed>
</trkpt>
<trkpt lat="55.887466" lon="26.534100">
<ele>91.352600</ele>
<time>2010-07-17T07:12:06Z</time>
<desc>lat.=55.887466, lon.=26.534100, Alt.=91.352600m. Speed=25.775999m/h.</desc>
<speed>7.160000</speed>
</trkpt>
<trkpt lat="55.887413" lon="26.534103">
<ele>91.116272</ele>
<time>2010-07-17T07:12:07Z</time>
<desc>lat.=55.887413, lon.=26.534103, Alt.=91.116272m. Speed=26.676001m/h.</desc>
<speed>7.410000</speed>
</trkpt>
<trkpt lat="55.887352" lon="26.534115">
<ele>90.899475</ele>
<time>2010-07-17T07:12:08Z</time>
<desc>lat.=55.887352, lon.=26.534115, Alt.=90.899475m. Speed=25.488001m/h.</desc>
<speed>7.080000</speed>
</trkpt>
<trkpt lat="55.887264" lon="26.534122">
<ele>90.917053</ele>
<time>2010-07-17T07:12:09Z</time>
<desc>lat.=55.887264, lon.=26.534122, Alt.=90.917053m. Speed=25.920000m/h.</desc>
<speed>7.200000</speed>
</trkpt>
<trkpt lat="55.887192" lon="26.534132">
<ele>90.821350</ele>
<time>2010-07-17T07:12:10Z</time>
<desc>lat.=55.887192, lon.=26.534132, Alt.=90.821350m. Speed=26.351999m/h.</desc>
<speed>7.320000</speed>
</trkpt>
<trkpt lat="55.887127" lon="26.534147">
<ele>90.743225</ele>
<time>2010-07-17T07:12:11Z</time>
<desc>lat.=55.887127, lon.=26.534147, Alt.=90.743225m. Speed=26.639999m/h.</desc>
<speed>7.400000</speed>
</trkpt>
<trkpt lat="55.887054" lon="26.534155">
<ele>90.706116</ele>
<time>2010-07-17T07:12:12Z</time>
<desc>lat.=55.887054, lon.=26.534155, Alt.=90.706116m. Speed=26.676001m/h.</desc>
<speed>7.410000</speed>
</trkpt>
<trkpt lat="55.886982" lon="26.534159">
<ele>90.692444</ele>
<time>2010-07-17T07:12:13Z</time>
<desc>lat.=55.886982, lon.=26.534159, Alt.=90.692444m. Speed=28.620001m/h.</desc>
<speed>7.950000</speed>
</trkpt>
<trkpt lat="55.886913" lon="26.534172">
<ele>90.633850</ele>
<time>2010-07-17T07:12:14Z</time>
<desc>lat.=55.886913, lon.=26.534172, Alt.=90.633850m. Speed=28.115999m/h.</desc>
<speed>7.810000</speed>
</trkpt>
<trkpt lat="55.886845" lon="26.534189">
<ele>90.545959</ele>
<time>2010-07-17T07:12:15Z</time>
<desc>lat.=55.886845, lon.=26.534189, Alt.=90.545959m. Speed=26.784000m/h.</desc>
<speed>7.440000</speed>
</trkpt>
<trkpt lat="55.886784" lon="26.534204">
<ele>90.483459</ele>
<time>2010-07-17T07:12:16Z</time>
<desc>lat.=55.886784, lon.=26.534204, Alt.=90.483459m. Speed=25.416000m/h.</desc>
<speed>7.060000</speed>
</trkpt>
<trkpt lat="55.886715" lon="26.534214">
<ele>90.415100</ele>
<time>2010-07-17T07:12:17Z</time>
<desc>lat.=55.886715, lon.=26.534214, Alt.=90.415100m. Speed=27.468000m/h.</desc>
<speed>7.630000</speed>
</trkpt>
<trkpt lat="55.886650" lon="26.534224">
<ele>90.428772</ele>
<time>2010-07-17T07:12:18Z</time>
<desc>lat.=55.886650, lon.=26.534224, Alt.=90.428772m. Speed=27.360001m/h.</desc>
<speed>7.600000</speed>
</trkpt>
<trkpt lat="55.886585" lon="26.534231">
<ele>90.401428</ele>
<time>2010-07-17T07:12:19Z</time>
<desc>lat.=55.886585, lon.=26.534231, Alt.=90.401428m. Speed=26.351999m/h.</desc>
<speed>7.320000</speed>
</trkpt>
<trkpt lat="55.886524" lon="26.534246">
<ele>90.288147</ele>
<time>2010-07-17T07:12:20Z</time>
<desc>lat.=55.886524, lon.=26.534246, Alt.=90.288147m. Speed=24.983999m/h.</desc>
<speed>6.940000</speed>
</trkpt>
<trkpt lat="55.886463" lon="26.534264">
<ele>90.229553</ele>
<time>2010-07-17T07:12:21Z</time>
<desc>lat.=55.886463, lon.=26.534264, Alt.=90.229553m. Speed=24.408001m/h.</desc>
<speed>6.780000</speed>
</trkpt>
<trkpt lat="55.886398" lon="26.534271">
<ele>90.116272</ele>
<time>2010-07-17T07:12:22Z</time>
<desc>lat.=55.886398, lon.=26.534271, Alt.=90.116272m. Speed=24.552000m/h.</desc>
<speed>6.820000</speed>
</trkpt>
<trkpt lat="55.886333" lon="26.534283">
<ele>90.118225</ele>
<time>2010-07-17T07:12:23Z</time>
<desc>lat.=55.886333, lon.=26.534283, Alt.=90.118225m. Speed=25.488001m/h.</desc>
<speed>7.080000</speed>
</trkpt>
<trkpt lat="55.886272" lon="26.534298">
<ele>90.124084</ele>
<time>2010-07-17T07:12:24Z</time>
<desc>lat.=55.886272, lon.=26.534298, Alt.=90.124084m. Speed=25.091999m/h.</desc>
<speed>6.970000</speed>
</trkpt>
<trkpt lat="55.886208" lon="26.534311">
<ele>90.049866</ele>
<time>2010-07-17T07:12:25Z</time>
<desc>lat.=55.886208, lon.=26.534311, Alt.=90.049866m. Speed=26.100000m/h.</desc>
<speed>7.250000</speed>
</trkpt>
<trkpt lat="55.886143" lon="26.534323">
<ele>89.997131</ele>
<time>2010-07-17T07:12:26Z</time>
<desc>lat.=55.886143, lon.=26.534323, Alt.=89.997131m. Speed=26.243999m/h.</desc>
<speed>7.290000</speed>
</trkpt>
<trkpt lat="55.886086" lon="26.534328">
<ele>90.014709</ele>
<time>2010-07-17T07:12:27Z</time>
<desc>lat.=55.886086, lon.=26.534328, Alt.=90.014709m. Speed=24.011999m/h.</desc>
<speed>6.670000</speed>
</trkpt>
<trkpt lat="55.886017" lon="26.534334">
<ele>90.085022</ele>
<time>2010-07-17T07:12:28Z</time>
<desc>lat.=55.886017, lon.=26.534334, Alt.=90.085022m. Speed=23.544001m/h.</desc>
<speed>6.540000</speed>
</trkpt>
<trkpt lat="55.885956" lon="26.534344">
<ele>90.149475</ele>
<time>2010-07-17T07:12:29Z</time>
<desc>lat.=55.885956, lon.=26.534344, Alt.=90.149475m. Speed=24.191999m/h.</desc>
<speed>6.720000</speed>
</trkpt>
<trkpt lat="55.885902" lon="26.534357">
<ele>90.020569</ele>
<time>2010-07-17T07:12:30Z</time>
<desc>lat.=55.885902, lon.=26.534357, Alt.=90.020569m. Speed=25.091999m/h.</desc>
<speed>6.970000</speed>
</trkpt>
<trkpt lat="55.885841" lon="26.534367">
<ele>89.979553</ele>
<time>2010-07-17T07:12:31Z</time>
<desc>lat.=55.885841, lon.=26.534367, Alt.=89.979553m. Speed=25.632000m/h.</desc>
<speed>7.120000</speed>
</trkpt>
<trkpt lat="55.885780" lon="26.534382">
<ele>90.141663</ele>
<time>2010-07-17T07:12:32Z</time>
<desc>lat.=55.885780, lon.=26.534382, Alt.=90.141663m. Speed=25.128000m/h.</desc>
<speed>6.980000</speed>
</trkpt>
<trkpt lat="55.885719" lon="26.534389">
<ele>90.069397</ele>
<time>2010-07-17T07:12:33Z</time>
<desc>lat.=55.885719, lon.=26.534389, Alt.=90.069397m. Speed=25.091999m/h.</desc>
<speed>6.970000</speed>
</trkpt>
<trkpt lat="55.885654" lon="26.534403">
<ele>90.022522</ele>
<time>2010-07-17T07:12:34Z</time>
<desc>lat.=55.885654, lon.=26.534403, Alt.=90.022522m. Speed=25.056000m/h.</desc>
<speed>6.960000</speed>
</trkpt>
<trkpt lat="55.885590" lon="26.534412">
<ele>89.887756</ele>
<time>2010-07-17T07:12:35Z</time>
<desc>lat.=55.885590, lon.=26.534412, Alt.=89.887756m. Speed=25.884001m/h.</desc>
<speed>7.190000</speed>
</trkpt>
<trkpt lat="55.885529" lon="26.534428">
<ele>89.829163</ele>
<time>2010-07-17T07:12:36Z</time>
<desc>lat.=55.885529, lon.=26.534428, Alt.=89.829163m. Speed=25.271999m/h.</desc>
<speed>7.020000</speed>
</trkpt>
<trkpt lat="55.885471" lon="26.534439">
<ele>89.741272</ele>
<time>2010-07-17T07:12:37Z</time>
<desc>lat.=55.885471, lon.=26.534439, Alt.=89.741272m. Speed=24.732000m/h.</desc>
<speed>6.870000</speed>
</trkpt>
<trkpt lat="55.885414" lon="26.534447">
<ele>89.627991</ele>
<time>2010-07-17T07:12:38Z</time>
<desc>lat.=55.885414, lon.=26.534447, Alt.=89.627991m. Speed=24.336000m/h.</desc>
<speed>6.760000</speed>
</trkpt>
<trkpt lat="55.885365" lon="26.534460">
<ele>89.477600</ele>
<time>2010-07-17T07:12:39Z</time>
<desc>lat.=55.885365, lon.=26.534460, Alt.=89.477600m. Speed=21.672001m/h.</desc>
<speed>6.020000</speed>
</trkpt>
<trkpt lat="55.885288" lon="26.534475">
<ele>89.551819</ele>
<time>2010-07-17T07:12:40Z</time>
<desc>lat.=55.885288, lon.=26.534475, Alt.=89.551819m. Speed=22.716000m/h.</desc>
<speed>6.310000</speed>
</trkpt>
<trkpt lat="55.885204" lon="26.534491">
<ele>89.540100</ele>
<time>2010-07-17T07:12:41Z</time>
<desc>lat.=55.885204, lon.=26.534491, Alt.=89.540100m. Speed=20.160000m/h.</desc>
<speed>5.600000</speed>
</trkpt>
<trkpt lat="55.885136" lon="26.534508">
<ele>89.711975</ele>
<time>2010-07-17T07:12:42Z</time>
<desc>lat.=55.885136, lon.=26.534508, Alt.=89.711975m. Speed=20.340000m/h.</desc>
<speed>5.650000</speed>
</trkpt>
<trkpt lat="55.885075" lon="26.534519">
<ele>89.708069</ele>
<time>2010-07-17T07:12:43Z</time>
<desc>lat.=55.885075, lon.=26.534519, Alt.=89.708069m. Speed=23.004000m/h.</desc>
<speed>6.390000</speed>
</trkpt>
<trkpt lat="55.885010" lon="26.534527">
<ele>89.655334</ele>
<time>2010-07-17T07:12:44Z</time>
<desc>lat.=55.885010, lon.=26.534527, Alt.=89.655334m. Speed=26.136000m/h.</desc>
<speed>7.260000</speed>
</trkpt>
<trkpt lat="55.884956" lon="26.534527">
<ele>89.663147</ele>
<time>2010-07-17T07:12:45Z</time>
<desc>lat.=55.884956, lon.=26.534527, Alt.=89.663147m. Speed=24.912001m/h.</desc>
<speed>6.920000</speed>
</trkpt>
<trkpt lat="55.884892" lon="26.534531">
<ele>89.651428</ele>
<time>2010-07-17T07:12:46Z</time>
<desc>lat.=55.884892, lon.=26.534531, Alt.=89.651428m. Speed=25.164000m/h.</desc>
<speed>6.990000</speed>
</trkpt>
<trkpt lat="55.884830" lon="26.534533">
<ele>89.629944</ele>
<time>2010-07-17T07:12:47Z</time>
<desc>lat.=55.884830, lon.=26.534533, Alt.=89.629944m. Speed=26.028000m/h.</desc>
<speed>7.230000</speed>
</trkpt>
<trkpt lat="55.884777" lon="26.534533">
<ele>89.727600</ele>
<time>2010-07-17T07:12:48Z</time>
<desc>lat.=55.884777, lon.=26.534533, Alt.=89.727600m. Speed=22.752001m/h.</desc>
<speed>6.320000</speed>
</trkpt>
<trkpt lat="55.884727" lon="26.534538">
<ele>89.741272</ele>
<time>2010-07-17T07:12:49Z</time>
<desc>lat.=55.884727, lon.=26.534538, Alt.=89.741272m. Speed=21.348000m/h.</desc>
<speed>5.930000</speed>
</trkpt>
<trkpt lat="55.884686" lon="26.534548">
<ele>89.733459</ele>
<time>2010-07-17T07:12:50Z</time>
<desc>lat.=55.884686, lon.=26.534548, Alt.=89.733459m. Speed=19.080000m/h.</desc>
<speed>5.300000</speed>
</trkpt>
<trkpt lat="55.884647" lon="26.534552">
<ele>89.762756</ele>
<time>2010-07-17T07:12:51Z</time>
<desc>lat.=55.884647, lon.=26.534552, Alt.=89.762756m. Speed=17.424000m/h.</desc>
<speed>4.840000</speed>
</trkpt>
<trkpt lat="55.884605" lon="26.534561">
<ele>89.790100</ele>
<time>2010-07-17T07:12:52Z</time>
<desc>lat.=55.884605, lon.=26.534561, Alt.=89.790100m. Speed=19.152000m/h.</desc>
<speed>5.320000</speed>
</trkpt>
<trkpt lat="55.884556" lon="26.534576">
<ele>89.897522</ele>
<time>2010-07-17T07:12:53Z</time>
<desc>lat.=55.884556, lon.=26.534576, Alt.=89.897522m. Speed=19.511999m/h.</desc>
<speed>5.420000</speed>
</trkpt>
<trkpt lat="55.884510" lon="26.534590">
<ele>89.989319</ele>
<time>2010-07-17T07:12:54Z</time>
<desc>lat.=55.884510, lon.=26.534590, Alt.=89.989319m. Speed=18.323999m/h.</desc>
<speed>5.090000</speed>
</trkpt>
<trkpt lat="55.884476" lon="26.534603">
<ele>89.981506</ele>
<time>2010-07-17T07:12:55Z</time>
<desc>lat.=55.884476, lon.=26.534603, Alt.=89.981506m. Speed=14.796000m/h.</desc>
<speed>4.110000</speed>
</trkpt>
<trkpt lat="55.884403" lon="26.534611">
<ele>90.139709</ele>
<time>2010-07-17T07:12:56Z</time>
<desc>lat.=55.884403, lon.=26.534611, Alt.=90.139709m. Speed=20.375999m/h.</desc>
<speed>5.660000</speed>
</trkpt>
<trkpt lat="55.884312" lon="26.534615">
<ele>90.469788</ele>
<time>2010-07-17T07:12:57Z</time>
<desc>lat.=55.884312, lon.=26.534615, Alt.=90.469788m. Speed=20.988001m/h.</desc>
<speed>5.830000</speed>
</trkpt>
<trkpt lat="55.884247" lon="26.534622">
<ele>90.631897</ele>
<time>2010-07-17T07:12:58Z</time>
<desc>lat.=55.884247, lon.=26.534622, Alt.=90.631897m. Speed=21.167999m/h.</desc>
<speed>5.880000</speed>
</trkpt>
<trkpt lat="55.884193" lon="26.534630">
<ele>90.766663</ele>
<time>2010-07-17T07:12:59Z</time>
<desc>lat.=55.884193, lon.=26.534630, Alt.=90.766663m. Speed=22.068001m/h.</desc>
<speed>6.130000</speed>
</trkpt>
<trkpt lat="55.884144" lon="26.534630">
<ele>90.774475</ele>
<time>2010-07-17T07:13:00Z</time>
<desc>lat.=55.884144, lon.=26.534630, Alt.=90.774475m. Speed=22.247999m/h.</desc>
<speed>6.180000</speed>
</trkpt>
<trkpt lat="55.884094" lon="26.534632">
<ele>90.868225</ele>
<time>2010-07-17T07:13:01Z</time>
<desc>lat.=55.884094, lon.=26.534632, Alt.=90.868225m. Speed=21.455999m/h.</desc>
<speed>5.960000</speed>
</trkpt>
<trkpt lat="55.884033" lon="26.534636">
<ele>90.895569</ele>
<time>2010-07-17T07:13:02Z</time>
<desc>lat.=55.884033, lon.=26.534636, Alt.=90.895569m. Speed=22.968000m/h.</desc>
<speed>6.380000</speed>
</trkpt>
<trkpt lat="55.883972" lon="26.534645">
<ele>90.942444</ele>
<time>2010-07-17T07:13:03Z</time>
<desc>lat.=55.883972, lon.=26.534645, Alt.=90.942444m. Speed=23.796000m/h.</desc>
<speed>6.610000</speed>
</trkpt>
<trkpt lat="55.883911" lon="26.534653">
<ele>91.004944</ele>
<time>2010-07-17T07:13:04Z</time>
<desc>lat.=55.883911, lon.=26.534653, Alt.=91.004944m. Speed=23.219999m/h.</desc>
<speed>6.450000</speed>
</trkpt>
<trkpt lat="55.883846" lon="26.534660">
<ele>91.120178</ele>
<time>2010-07-17T07:13:05Z</time>
<desc>lat.=55.883846, lon.=26.534660, Alt.=91.120178m. Speed=23.868000m/h.</desc>
<speed>6.630000</speed>
</trkpt>
<trkpt lat="55.883793" lon="26.534672">
<ele>91.159241</ele>
<time>2010-07-17T07:13:06Z</time>
<desc>lat.=55.883793, lon.=26.534672, Alt.=91.159241m. Speed=22.032000m/h.</desc>
<speed>6.120000</speed>
</trkpt>
<trkpt lat="55.883747" lon="26.534681">
<ele>91.299866</ele>
<time>2010-07-17T07:13:07Z</time>
<desc>lat.=55.883747, lon.=26.534681, Alt.=91.299866m. Speed=19.476000m/h.</desc>
<speed>5.410000</speed>
</trkpt>
<trkpt lat="55.883698" lon="26.534702">
<ele>91.411194</ele>
<time>2010-07-17T07:13:08Z</time>
<desc>lat.=55.883698, lon.=26.534702, Alt.=91.411194m. Speed=17.784000m/h.</desc>
<speed>4.940000</speed>
</trkpt>
<trkpt lat="55.883636" lon="26.534718">
<ele>91.559631</ele>
<time>2010-07-17T07:13:09Z</time>
<desc>lat.=55.883636, lon.=26.534718, Alt.=91.559631m. Speed=17.639999m/h.</desc>
<speed>4.900000</speed>
</trkpt>
<trkpt lat="55.883522" lon="26.534712">
<ele>91.870178</ele>
<time>2010-07-17T07:13:10Z</time>
<desc>lat.=55.883522, lon.=26.534712, Alt.=91.870178m. Speed=22.896000m/h.</desc>
<speed>6.360000</speed>
</trkpt>
<trkpt lat="55.883430" lon="26.534716">
<ele>92.038147</ele>
<time>2010-07-17T07:13:11Z</time>
<desc>lat.=55.883430, lon.=26.534716, Alt.=92.038147m. Speed=26.172001m/h.</desc>
<speed>7.270000</speed>
</trkpt>
<trkpt lat="55.883354" lon="26.534731">
<ele>92.200256</ele>
<time>2010-07-17T07:13:12Z</time>
<desc>lat.=55.883354, lon.=26.534731, Alt.=92.200256m. Speed=25.812000m/h.</desc>
<speed>7.170000</speed>
</trkpt>
<trkpt lat="55.883289" lon="26.534740">
<ele>92.288147</ele>
<time>2010-07-17T07:13:13Z</time>
<desc>lat.=55.883289, lon.=26.534740, Alt.=92.288147m. Speed=23.940001m/h.</desc>
<speed>6.650000</speed>
</trkpt>
<trkpt lat="55.883224" lon="26.534752">
<ele>92.348694</ele>
<time>2010-07-17T07:13:14Z</time>
<desc>lat.=55.883224, lon.=26.534752, Alt.=92.348694m. Speed=24.660000m/h.</desc>
<speed>6.850000</speed>
</trkpt>
<trkpt lat="55.883148" lon="26.534773">
<ele>92.420959</ele>
<time>2010-07-17T07:13:15Z</time>
<desc>lat.=55.883148, lon.=26.534773, Alt.=92.420959m. Speed=27.576000m/h.</desc>
<speed>7.660000</speed>
</trkpt>
<trkpt lat="55.883060" lon="26.534792">
<ele>92.438538</ele>
<time>2010-07-17T07:13:16Z</time>
<desc>lat.=55.883060, lon.=26.534792, Alt.=92.438538m. Speed=29.483999m/h.</desc>
<speed>8.190000</speed>
</trkpt>
<trkpt lat="55.882969" lon="26.534809">
<ele>92.569397</ele>
<time>2010-07-17T07:13:17Z</time>
<desc>lat.=55.882969, lon.=26.534809, Alt.=92.569397m. Speed=29.628000m/h.</desc>
<speed>8.230000</speed>
</trkpt>
<trkpt lat="55.882870" lon="26.534826">
<ele>92.817444</ele>
<time>2010-07-17T07:13:18Z</time>
<desc>lat.=55.882870, lon.=26.534826, Alt.=92.817444m. Speed=28.728001m/h.</desc>
<speed>7.980000</speed>
</trkpt>
<trkpt lat="55.882778" lon="26.534834">
<ele>92.979553</ele>
<time>2010-07-17T07:13:19Z</time>
<desc>lat.=55.882778, lon.=26.534834, Alt.=92.979553m. Speed=29.052000m/h.</desc>
<speed>8.070000</speed>
</trkpt>
<trkpt lat="55.882710" lon="26.534845">
<ele>93.075256</ele>
<time>2010-07-17T07:13:20Z</time>
<desc>lat.=55.882710, lon.=26.534845, Alt.=93.075256m. Speed=25.271999m/h.</desc>
<speed>7.020000</speed>
</trkpt>
<trkpt lat="55.882637" lon="26.534855">
<ele>93.159241</ele>
<time>2010-07-17T07:13:21Z</time>
<desc>lat.=55.882637, lon.=26.534855, Alt.=93.159241m. Speed=23.903999m/h.</desc>
<speed>6.640000</speed>
</trkpt>
<trkpt lat="55.882565" lon="26.534861">
<ele>93.258850</ele>
<time>2010-07-17T07:13:22Z</time>
<desc>lat.=55.882565, lon.=26.534861, Alt.=93.258850m. Speed=23.184000m/h.</desc>
<speed>6.440000</speed>
</trkpt>
<trkpt lat="55.882504" lon="26.534864">
<ele>93.356506</ele>
<time>2010-07-17T07:13:23Z</time>
<desc>lat.=55.882504, lon.=26.534864, Alt.=93.356506m. Speed=20.879999m/h.</desc>
<speed>5.800000</speed>
</trkpt>
<trkpt lat="55.882420" lon="26.534868">
<ele>93.502991</ele>
<time>2010-07-17T07:13:24Z</time>
<desc>lat.=55.882420, lon.=26.534868, Alt.=93.502991m. Speed=24.336000m/h.</desc>
<speed>6.760000</speed>
</trkpt>
<trkpt lat="55.882351" lon="26.534880">
<ele>93.577209</ele>
<time>2010-07-17T07:13:25Z</time>
<desc>lat.=55.882351, lon.=26.534880, Alt.=93.577209m. Speed=24.840000m/h.</desc>
<speed>6.900000</speed>
</trkpt>
<trkpt lat="55.882259" lon="26.534897">
<ele>93.696350</ele>
<time>2010-07-17T07:13:26Z</time>
<desc>lat.=55.882259, lon.=26.534897, Alt.=93.696350m. Speed=24.228001m/h.</desc>
<speed>6.730000</speed>
</trkpt>
<trkpt lat="55.882195" lon="26.534910">
<ele>93.710022</ele>
<time>2010-07-17T07:13:27Z</time>
<desc>lat.=55.882195, lon.=26.534910, Alt.=93.710022m. Speed=24.299999m/h.</desc>
<speed>6.750000</speed>
</trkpt>
<trkpt lat="55.882122" lon="26.534925">
<ele>93.811584</ele>
<time>2010-07-17T07:13:28Z</time>
<desc>lat.=55.882122, lon.=26.534925, Alt.=93.811584m. Speed=23.868000m/h.</desc>
<speed>6.630000</speed>
</trkpt>
<trkpt lat="55.882046" lon="26.534933">
<ele>93.901428</ele>
<time>2010-07-17T07:13:29Z</time>
<desc>lat.=55.882046, lon.=26.534933, Alt.=93.901428m. Speed=25.164000m/h.</desc>
<speed>6.990000</speed>
</trkpt>
<trkpt lat="55.881981" lon="26.534946">
<ele>94.059631</ele>
<time>2010-07-17T07:13:30Z</time>
<desc>lat.=55.881981, lon.=26.534946, Alt.=94.059631m. Speed=24.480000m/h.</desc>
<speed>6.800000</speed>
</trkpt>
<trkpt lat="55.881916" lon="26.534966">
<ele>94.147522</ele>
<time>2010-07-17T07:13:31Z</time>
<desc>lat.=55.881916, lon.=26.534966, Alt.=94.147522m. Speed=24.228001m/h.</desc>
<speed>6.730000</speed>
</trkpt>
<trkpt lat="55.881844" lon="26.534983">
<ele>94.520569</ele>
<time>2010-07-17T07:13:32Z</time>
<desc>lat.=55.881844, lon.=26.534983, Alt.=94.520569m. Speed=24.084000m/h.</desc>
<speed>6.690000</speed>
</trkpt>
<trkpt lat="55.881783" lon="26.534998">
<ele>94.647522</ele>
<time>2010-07-17T07:13:33Z</time>
<desc>lat.=55.881783, lon.=26.534998, Alt.=94.647522m. Speed=23.040001m/h.</desc>
<speed>6.400000</speed>
</trkpt>
<trkpt lat="55.881718" lon="26.535011">
<ele>94.794006</ele>
<time>2010-07-17T07:13:34Z</time>
<desc>lat.=55.881718, lon.=26.535011, Alt.=94.794006m. Speed=21.888000m/h.</desc>
<speed>6.080000</speed>
</trkpt>
<trkpt lat="55.881672" lon="26.535025">
<ele>95.073303</ele>
<time>2010-07-17T07:13:35Z</time>
<desc>lat.=55.881672, lon.=26.535025, Alt.=95.073303m. Speed=18.576000m/h.</desc>
<speed>5.160000</speed>
</trkpt>
<trkpt lat="55.881641" lon="26.535027">
<ele>95.323303</ele>
<time>2010-07-17T07:13:36Z</time>
<desc>lat.=55.881641, lon.=26.535027, Alt.=95.323303m. Speed=13.032000m/h.</desc>
<speed>3.620000</speed>
</trkpt>
<trkpt lat="55.881615" lon="26.535023">
<ele>94.848694</ele>
<time>2010-07-17T07:13:37Z</time>
<desc>lat.=55.881615, lon.=26.535023, Alt.=94.848694m. Speed=12.600000m/h.</desc>
<speed>3.500000</speed>
</trkpt>
<trkpt lat="55.881596" lon="26.535109">
<ele>96.961975</ele>
<time>2010-07-17T07:13:38Z</time>
<desc>lat.=55.881596, lon.=26.535109, Alt.=96.961975m. Speed=14.580000m/h.</desc>
<speed>4.050000</speed>
</trkpt>
<trkpt lat="55.881573" lon="26.535145">
<ele>96.795959</ele>
<time>2010-07-17T07:13:39Z</time>
<desc>lat.=55.881573, lon.=26.535145, Alt.=96.795959m. Speed=12.924000m/h.</desc>
<speed>3.590000</speed>
</trkpt>
<trkpt lat="55.881535" lon="26.535198">
<ele>97.170959</ele>
<time>2010-07-17T07:13:40Z</time>
<desc>lat.=55.881535, lon.=26.535198, Alt.=97.170959m. Speed=14.904000m/h.</desc>
<speed>4.140000</speed>
</trkpt>
<trkpt lat="55.881512" lon="26.535254">
<ele>97.198303</ele>
<time>2010-07-17T07:13:41Z</time>
<desc>lat.=55.881512, lon.=26.535254, Alt.=97.198303m. Speed=17.496000m/h.</desc>
<speed>4.860000</speed>
</trkpt>
<trkpt lat="55.881489" lon="26.535318">
<ele>97.825256</ele>
<time>2010-07-17T07:13:42Z</time>
<desc>lat.=55.881489, lon.=26.535318, Alt.=97.825256m. Speed=17.820000m/h.</desc>
<speed>4.950000</speed>
</trkpt>
<trkpt lat="55.881470" lon="26.535366">
<ele>97.856506</ele>
<time>2010-07-17T07:13:43Z</time>
<desc>lat.=55.881470, lon.=26.535366, Alt.=97.856506m. Speed=17.892000m/h.</desc>
<speed>4.970000</speed>
</trkpt>
<trkpt lat="55.881416" lon="26.535404">
<ele>98.710022</ele>
<time>2010-07-17T07:13:44Z</time>
<desc>lat.=55.881416, lon.=26.535404, Alt.=98.710022m. Speed=19.403999m/h.</desc>
<speed>5.390000</speed>
</trkpt>
<trkpt lat="55.881363" lon="26.535423">
<ele>99.432678</ele>
<time>2010-07-17T07:13:45Z</time>
<desc>lat.=55.881363, lon.=26.535423, Alt.=99.432678m. Speed=17.243999m/h.</desc>
<speed>4.790000</speed>
</trkpt>
<trkpt lat="55.881313" lon="26.535431">
<ele>99.444397</ele>
<time>2010-07-17T07:13:46Z</time>
<desc>lat.=55.881313, lon.=26.535431, Alt.=99.444397m. Speed=18.035999m/h.</desc>
<speed>5.010000</speed>
</trkpt>
<trkpt lat="55.881252" lon="26.535444">
<ele>99.665100</ele>
<time>2010-07-17T07:13:47Z</time>
<desc>lat.=55.881252, lon.=26.535444, Alt.=99.665100m. Speed=18.648001m/h.</desc>
<speed>5.180000</speed>
</trkpt>
<trkpt lat="55.881207" lon="26.535461">
<ele>99.840881</ele>
<time>2010-07-17T07:13:48Z</time>
<desc>lat.=55.881207, lon.=26.535461, Alt.=99.840881m. Speed=19.007999m/h.</desc>
<speed>5.280000</speed>
</trkpt>
<trkpt lat="55.881142" lon="26.535469">
<ele>100.118225</ele>
<time>2010-07-17T07:13:49Z</time>
<desc>lat.=55.881142, lon.=26.535469, Alt.=100.118225m. Speed=19.584000m/h.</desc>
<speed>5.440000</speed>
</trkpt>
<trkpt lat="55.881092" lon="26.535479">
<ele>100.481506</ele>
<time>2010-07-17T07:13:50Z</time>
<desc>lat.=55.881092, lon.=26.535479, Alt.=100.481506m. Speed=19.620001m/h.</desc>
<speed>5.450000</speed>
</trkpt>
<trkpt lat="55.881039" lon="26.535484">
<ele>100.669006</ele>
<time>2010-07-17T07:13:51Z</time>
<desc>lat.=55.881039, lon.=26.535484, Alt.=100.669006m. Speed=20.448000m/h.</desc>
<speed>5.680000</speed>
</trkpt>
<trkpt lat="55.880909" lon="26.535509">
<ele>97.170959</ele>
<time>2010-07-17T07:13:52Z</time>
<desc>lat.=55.880909, lon.=26.535509, Alt.=97.170959m. Speed=22.284000m/h.</desc>
<speed>6.190000</speed>
</trkpt>
<trkpt lat="55.880836" lon="26.535519">
<ele>96.430725</ele>
<time>2010-07-17T07:13:53Z</time>
<desc>lat.=55.880836, lon.=26.535519, Alt.=96.430725m. Speed=24.552000m/h.</desc>
<speed>6.820000</speed>
</trkpt>
<trkpt lat="55.880760" lon="26.535534">
<ele>95.549866</ele>
<time>2010-07-17T07:13:54Z</time>
<desc>lat.=55.880760, lon.=26.535534, Alt.=95.549866m. Speed=24.191999m/h.</desc>
<speed>6.720000</speed>
</trkpt>
<trkpt lat="55.880711" lon="26.535543">
<ele>95.954163</ele>
<time>2010-07-17T07:13:55Z</time>
<desc>lat.=55.880711, lon.=26.535543, Alt.=95.954163m. Speed=21.672001m/h.</desc>
<speed>6.020000</speed>
</trkpt>
<trkpt lat="55.880665" lon="26.535551">
<ele>96.477600</ele>
<time>2010-07-17T07:13:56Z</time>
<desc>lat.=55.880665, lon.=26.535551, Alt.=96.477600m. Speed=20.375999m/h.</desc>
<speed>5.660000</speed>
</trkpt>
<trkpt lat="55.880592" lon="26.535563">
<ele>95.669006</ele>
<time>2010-07-17T07:13:57Z</time>
<desc>lat.=55.880592, lon.=26.535563, Alt.=95.669006m. Speed=23.903999m/h.</desc>
<speed>6.640000</speed>
</trkpt>
<trkpt lat="55.880508" lon="26.535574">
<ele>94.893616</ele>
<time>2010-07-17T07:13:58Z</time>
<desc>lat.=55.880508, lon.=26.535574, Alt.=94.893616m. Speed=25.056000m/h.</desc>
<speed>6.960000</speed>
</trkpt>
<trkpt lat="55.880463" lon="26.535599">
<ele>95.086975</ele>
<time>2010-07-17T07:13:59Z</time>
<desc>lat.=55.880463, lon.=26.535599, Alt.=95.086975m. Speed=18.396000m/h.</desc>
<speed>5.110000</speed>
</trkpt>
<trkpt lat="55.880409" lon="26.535618">
<ele>95.600647</ele>
<time>2010-07-17T07:14:00Z</time>
<desc>lat.=55.880409, lon.=26.535618, Alt.=95.600647m. Speed=19.656000m/h.</desc>
<speed>5.460000</speed>
</trkpt>
<trkpt lat="55.880360" lon="26.535639">
<ele>96.022522</ele>
<time>2010-07-17T07:14:01Z</time>
<desc>lat.=55.880360, lon.=26.535639, Alt.=96.022522m. Speed=23.148001m/h.</desc>
<speed>6.430000</speed>
</trkpt>
<trkpt lat="55.880299" lon="26.535650">
<ele>96.120178</ele>
<time>2010-07-17T07:14:02Z</time>
<desc>lat.=55.880299, lon.=26.535650, Alt.=96.120178m. Speed=23.940001m/h.</desc>
<speed>6.650000</speed>
</trkpt>
<trkpt lat="55.880234" lon="26.535667">
<ele>95.885803</ele>
<time>2010-07-17T07:14:03Z</time>
<desc>lat.=55.880234, lon.=26.535667, Alt.=95.885803m. Speed=22.427999m/h.</desc>
<speed>6.230000</speed>
</trkpt>
<trkpt lat="55.880169" lon="26.535681">
<ele>95.620178</ele>
<time>2010-07-17T07:14:04Z</time>
<desc>lat.=55.880169, lon.=26.535681, Alt.=95.620178m. Speed=22.212000m/h.</desc>
<speed>6.170000</speed>
</trkpt>
<trkpt lat="55.880116" lon="26.535707">
<ele>95.161194</ele>
<time>2010-07-17T07:14:05Z</time>
<desc>lat.=55.880116, lon.=26.535707, Alt.=95.161194m. Speed=17.280001m/h.</desc>
<speed>4.800000</speed>
</trkpt>
<trkpt lat="55.880074" lon="26.535732">
<ele>94.967834</ele>
<time>2010-07-17T07:14:06Z</time>
<desc>lat.=55.880074, lon.=26.535732, Alt.=94.967834m. Speed=13.140000m/h.</desc>
<speed>3.650000</speed>
</trkpt>
<trkpt lat="55.880043" lon="26.535748">
<ele>95.067444</ele>
<time>2010-07-17T07:14:07Z</time>
<desc>lat.=55.880043, lon.=26.535748, Alt.=95.067444m. Speed=20.628000m/h.</desc>
<speed>5.730000</speed>
</trkpt>
<trkpt lat="55.879978" lon="26.535757">
<ele>94.766663</ele>
<time>2010-07-17T07:14:08Z</time>
<desc>lat.=55.879978, lon.=26.535757, Alt.=94.766663m. Speed=19.944000m/h.</desc>
<speed>5.540000</speed>
</trkpt>
<trkpt lat="55.879913" lon="26.535769">
<ele>94.610413</ele>
<time>2010-07-17T07:14:09Z</time>
<desc>lat.=55.879913, lon.=26.535769, Alt.=94.610413m. Speed=21.455999m/h.</desc>
<speed>5.960000</speed>
</trkpt>
<trkpt lat="55.879856" lon="26.535782">
<ele>94.510803</ele>
<time>2010-07-17T07:14:10Z</time>
<desc>lat.=55.879856, lon.=26.535782, Alt.=94.510803m. Speed=21.275999m/h.</desc>
<speed>5.910000</speed>
</trkpt>
<trkpt lat="55.879799" lon="26.535797">
<ele>94.342834</ele>
<time>2010-07-17T07:14:11Z</time>
<desc>lat.=55.879799, lon.=26.535797, Alt.=94.342834m. Speed=21.528000m/h.</desc>
<speed>5.980000</speed>
</trkpt>
<trkpt lat="55.879742" lon="26.535807">
<ele>94.471741</ele>
<time>2010-07-17T07:14:12Z</time>
<desc>lat.=55.879742, lon.=26.535807, Alt.=94.471741m. Speed=22.068001m/h.</desc>
<speed>6.130000</speed>
</trkpt>
<trkpt lat="55.879688" lon="26.535818">
<ele>94.202209</ele>
<time>2010-07-17T07:14:13Z</time>
<desc>lat.=55.879688, lon.=26.535818, Alt.=94.202209m. Speed=20.591999m/h.</desc>
<speed>5.720000</speed>
</trkpt>
<trkpt lat="55.879631" lon="26.535831">
<ele>94.294006</ele>
<time>2010-07-17T07:14:14Z</time>
<desc>lat.=55.879631, lon.=26.535831, Alt.=94.294006m. Speed=21.924000m/h.</desc>
<speed>6.090000</speed>
</trkpt>
<trkpt lat="55.879570" lon="26.535843">
<ele>93.674866</ele>
<time>2010-07-17T07:14:15Z</time>
<desc>lat.=55.879570, lon.=26.535843, Alt.=93.674866m. Speed=21.851999m/h.</desc>
<speed>6.070000</speed>
</trkpt>
<trkpt lat="55.879509" lon="26.535854">
<ele>93.411194</ele>
<time>2010-07-17T07:14:16Z</time>
<desc>lat.=55.879509, lon.=26.535854, Alt.=93.411194m. Speed=19.548000m/h.</desc>
<speed>5.430000</speed>
</trkpt>
<trkpt lat="55.879440" lon="26.535868">
<ele>92.960022</ele>
<time>2010-07-17T07:14:17Z</time>
<desc>lat.=55.879440, lon.=26.535868, Alt.=92.960022m. Speed=23.076000m/h.</desc>
<speed>6.410000</speed>
</trkpt>
<trkpt lat="55.879364" lon="26.535883">
<ele>92.600647</ele>
<time>2010-07-17T07:14:18Z</time>
<desc>lat.=55.879364, lon.=26.535883, Alt.=92.600647m. Speed=25.884001m/h.</desc>
<speed>7.190000</speed>
</trkpt>
<trkpt lat="55.879292" lon="26.535896">
<ele>92.413147</ele>
<time>2010-07-17T07:14:19Z</time>
<desc>lat.=55.879292, lon.=26.535896, Alt.=92.413147m. Speed=27.936001m/h.</desc>
<speed>7.760000</speed>
</trkpt>
<trkpt lat="55.879208" lon="26.535908">
<ele>91.702209</ele>
<time>2010-07-17T07:14:20Z</time>
<desc>lat.=55.879208, lon.=26.535908, Alt.=91.702209m. Speed=30.275999m/h.</desc>
<speed>8.410000</speed>
</trkpt>
<trkpt lat="55.879093" lon="26.535910">
<ele>91.905334</ele>
<time>2010-07-17T07:14:21Z</time>
<desc>lat.=55.879093, lon.=26.535910, Alt.=91.905334m. Speed=29.232000m/h.</desc>
<speed>8.120000</speed>
</trkpt>
<trkpt lat="55.879017" lon="26.535915">
<ele>91.096741</ele>
<time>2010-07-17T07:14:22Z</time>
<desc>lat.=55.879017, lon.=26.535915, Alt.=91.096741m. Speed=24.587999m/h.</desc>
<speed>6.830000</speed>
</trkpt>
<trkpt lat="55.878952" lon="26.535929">
<ele>91.387756</ele>
<time>2010-07-17T07:14:23Z</time>
<desc>lat.=55.878952, lon.=26.535929, Alt.=91.387756m. Speed=23.327999m/h.</desc>
<speed>6.480000</speed>
</trkpt>
<trkpt lat="55.878895" lon="26.535942">
<ele>91.225647</ele>
<time>2010-07-17T07:14:24Z</time>
<desc>lat.=55.878895, lon.=26.535942, Alt.=91.225647m. Speed=22.860001m/h.</desc>
<speed>6.350000</speed>
</trkpt>
<trkpt lat="55.878830" lon="26.535904">
<ele>91.692444</ele>
<time>2010-07-17T07:14:25Z</time>
<desc>lat.=55.878830, lon.=26.535904, Alt.=91.692444m. Speed=22.500000m/h.</desc>
<speed>6.250000</speed>
</trkpt>
<trkpt lat="55.878754" lon="26.535887">
<ele>92.286194</ele>
<time>2010-07-17T07:14:26Z</time>
<desc>lat.=55.878754, lon.=26.535887, Alt.=92.286194m. Speed=26.964001m/h.</desc>
<speed>7.490000</speed>
</trkpt>
<trkpt lat="55.878693" lon="26.535881">
<ele>92.448303</ele>
<time>2010-07-17T07:14:27Z</time>
<desc>lat.=55.878693, lon.=26.535881, Alt.=92.448303m. Speed=21.492001m/h.</desc>
<speed>5.970000</speed>
</trkpt>
<trkpt lat="55.878651" lon="26.535881">
<ele>92.924866</ele>
<time>2010-07-17T07:14:28Z</time>
<desc>lat.=55.878651, lon.=26.535881, Alt.=92.924866m. Speed=14.040000m/h.</desc>
<speed>3.900000</speed>
</trkpt>
<trkpt lat="55.878624" lon="26.535883">
<ele>93.247131</ele>
<time>2010-07-17T07:14:29Z</time>
<desc>lat.=55.878624, lon.=26.535883, Alt.=93.247131m. Speed=9.252000m/h.</desc>
<speed>2.570000</speed>
</trkpt>
<trkpt lat="55.878605" lon="26.535904">
<ele>94.047913</ele>
<time>2010-07-17T07:14:30Z</time>
<desc>lat.=55.878605, lon.=26.535904, Alt.=94.047913m. Speed=5.472000m/h.</desc>
<speed>1.520000</speed>
</trkpt>
<trkpt lat="55.878586" lon="26.535915">
<ele>94.042053</ele>
<time>2010-07-17T07:14:31Z</time>
<desc>lat.=55.878586, lon.=26.535915, Alt.=94.042053m. Speed=2.664000m/h.</desc>
<speed>0.740000</speed>
</trkpt>
<trkpt lat="55.878571" lon="26.535919">
<ele>94.717834</ele>
<time>2010-07-17T07:14:32Z</time>
<desc>lat.=55.878571, lon.=26.535919, Alt.=94.717834m. Speed=1.728000m/h.</desc>
<speed>0.480000</speed>
</trkpt>
<trkpt lat="55.878559" lon="26.535912">
<ele>94.993225</ele>
<time>2010-07-17T07:14:33Z</time>
<desc>lat.=55.878559, lon.=26.535912, Alt.=94.993225m. Speed=1.512000m/h.</desc>
<speed>0.420000</speed>
</trkpt>
<trkpt lat="55.878551" lon="26.535910">
<ele>95.170959</ele>
<time>2010-07-17T07:14:34Z</time>
<desc>lat.=55.878551, lon.=26.535910, Alt.=95.170959m. Speed=1.296000m/h.</desc>
<speed>0.360000</speed>
</trkpt>
<trkpt lat="55.878548" lon="26.535910">
<ele>95.210022</ele>
<time>2010-07-17T07:14:35Z</time>
<desc>lat.=55.878548, lon.=26.535910, Alt.=95.210022m. Speed=1.260000m/h.</desc>
<speed>0.350000</speed>
</trkpt>
<trkpt lat="55.878544" lon="26.535908">
<ele>95.251038</ele>
<time>2010-07-17T07:14:36Z</time>
<desc>lat.=55.878544, lon.=26.535908, Alt.=95.251038m. Speed=0.900000m/h.</desc>
<speed>0.250000</speed>
</trkpt>
<trkpt lat="55.878540" lon="26.535910">
<ele>95.288147</ele>
<time>2010-07-17T07:14:37Z</time>
<desc>lat.=55.878540, lon.=26.535910, Alt.=95.288147m. Speed=1.080000m/h.</desc>
<speed>0.300000</speed>
</trkpt>
<trkpt lat="55.878536" lon="26.535910">
<ele>95.321350</ele>
<time>2010-07-17T07:14:38Z</time>
<desc>lat.=55.878536, lon.=26.535910, Alt.=95.321350m. Speed=0.792000m/h.</desc>
<speed>0.220000</speed>
</trkpt>
<trkpt lat="55.878536" lon="26.535910">
<ele>95.348694</ele>
<time>2010-07-17T07:14:39Z</time>
<desc>lat.=55.878536, lon.=26.535910, Alt.=95.348694m. Speed=1.188000m/h.</desc>
<speed>0.330000</speed>
</trkpt>
<trkpt lat="55.878532" lon="26.535912">
<ele>95.374084</ele>
<time>2010-07-17T07:14:40Z</time>
<desc>lat.=55.878532, lon.=26.535912, Alt.=95.374084m. Speed=0.936000m/h.</desc>
<speed>0.260000</speed>
</trkpt>
<trkpt lat="55.878532" lon="26.535913">
<ele>95.413147</ele>
<time>2010-07-17T07:14:41Z</time>
<desc>lat.=55.878532, lon.=26.535913, Alt.=95.413147m. Speed=0.648000m/h.</desc>
<speed>0.180000</speed>
</trkpt>
<trkpt lat="55.878529" lon="26.535915">
<ele>95.460022</ele>
<time>2010-07-17T07:14:42Z</time>
<desc>lat.=55.878529, lon.=26.535915, Alt.=95.460022m. Speed=0.252000m/h.</desc>
<speed>0.070000</speed>
</trkpt>
<trkpt lat="55.878529" lon="26.535917">
<ele>95.491272</ele>
<time>2010-07-17T07:14:43Z</time>
<desc>lat.=55.878529, lon.=26.535917, Alt.=95.491272m. Speed=0.360000m/h.</desc>
<speed>0.100000</speed>
</trkpt>
<trkpt lat="55.878529" lon="26.535919">
<ele>95.510803</ele>
<time>2010-07-17T07:14:44Z</time>
<desc>lat.=55.878529, lon.=26.535919, Alt.=95.510803m. Speed=0.576000m/h.</desc>
<speed>0.160000</speed>
</trkpt>
<trkpt lat="55.878532" lon="26.535921">
<ele>95.540100</ele>
<time>2010-07-17T07:14:45Z</time>
<desc>lat.=55.878532, lon.=26.535921, Alt.=95.540100m. Speed=0.900000m/h.</desc>
<speed>0.250000</speed>
</trkpt>
<trkpt lat="55.878532" lon="26.535921">
<ele>95.563538</ele>
<time>2010-07-17T07:14:46Z</time>
<desc>lat.=55.878532, lon.=26.535921, Alt.=95.563538m. Speed=0.828000m/h.</desc>
<speed>0.230000</speed>
</trkpt>
<trkpt lat="55.878536" lon="26.535923">
<ele>95.606506</ele>
<time>2010-07-17T07:14:47Z</time>
<desc>lat.=55.878536, lon.=26.535923, Alt.=95.606506m. Speed=0.756000m/h.</desc>
<speed>0.210000</speed>
</trkpt>
<trkpt lat="55.878536" lon="26.535923">
<ele>95.637756</ele>
<time>2010-07-17T07:14:48Z</time>
<desc>lat.=55.878536, lon.=26.535923, Alt.=95.637756m. Speed=0.720000m/h.</desc>
<speed>0.200000</speed>
</trkpt>
<trkpt lat="55.878540" lon="26.535921">
<ele>95.661194</ele>
<time>2010-07-17T07:14:49Z</time>
<desc>lat.=55.878540, lon.=26.535921, Alt.=95.661194m. Speed=0.684000m/h.</desc>
<speed>0.190000</speed>
</trkpt>
<trkpt lat="55.878540" lon="26.535921">
<ele>95.688538</ele>
<time>2010-07-17T07:14:50Z</time>
<desc>lat.=55.878540, lon.=26.535921, Alt.=95.688538m. Speed=1.872000m/h.</desc>
<speed>0.520000</speed>
</trkpt>
<trkpt lat="55.878544" lon="26.535917">
<ele>95.715881</ele>
<time>2010-07-17T07:14:51Z</time>
<desc>lat.=55.878544, lon.=26.535917, Alt.=95.715881m. Speed=0.828000m/h.</desc>
<speed>0.230000</speed>
</trkpt>
<trkpt lat="55.878548" lon="26.535917">
<ele>95.743225</ele>
<time>2010-07-17T07:14:52Z</time>
<desc>lat.=55.878548, lon.=26.535917, Alt.=95.743225m. Speed=0.468000m/h.</desc>
<speed>0.130000</speed>
</trkpt>
<trkpt lat="55.878548" lon="26.535917">
<ele>95.772522</ele>
<time>2010-07-17T07:14:53Z</time>
<desc>lat.=55.878548, lon.=26.535917, Alt.=95.772522m. Speed=0.432000m/h.</desc>
<speed>0.120000</speed>
</trkpt>
<trkpt lat="55.878548" lon="26.535917">
<ele>95.799866</ele>
<time>2010-07-17T07:14:54Z</time>
<desc>lat.=55.878548, lon.=26.535917, Alt.=95.799866m. Speed=0.360000m/h.</desc>
<speed>0.100000</speed>
</trkpt>
<trkpt lat="55.878548" lon="26.535919">
<ele>95.819397</ele>
<time>2010-07-17T07:14:55Z</time>
<desc>lat.=55.878548, lon.=26.535919, Alt.=95.819397m. Speed=0.612000m/h.</desc>
<speed>0.170000</speed>
</trkpt>
<trkpt lat="55.878551" lon="26.535921">
<ele>95.835022</ele>
<time>2010-07-17T07:14:56Z</time>
<desc>lat.=55.878551, lon.=26.535921, Alt.=95.835022m. Speed=0.324000m/h.</desc>
<speed>0.090000</speed>
</trkpt>
<trkpt lat="55.878551" lon="26.535923">
<ele>95.842834</ele>
<time>2010-07-17T07:14:57Z</time>
<desc>lat.=55.878551, lon.=26.535923, Alt.=95.842834m. Speed=0.432000m/h.</desc>
<speed>0.120000</speed>
</trkpt>
<trkpt lat="55.878551" lon="26.535925">
<ele>95.848694</ele>
<time>2010-07-17T07:14:58Z</time>
<desc>lat.=55.878551, lon.=26.535925, Alt.=95.848694m. Speed=0.324000m/h.</desc>
<speed>0.090000</speed>
</trkpt>
<trkpt lat="55.878551" lon="26.535925">
<ele>95.852600</ele>
<time>2010-07-17T07:14:59Z</time>
<desc>lat.=55.878551, lon.=26.535925, Alt.=95.852600m. Speed=0.324000m/h.</desc>
<speed>0.090000</speed>
</trkpt>
<trkpt lat="55.878551" lon="26.535927">
<ele>95.848694</ele>
<time>2010-07-17T07:15:00Z</time>
<desc>lat.=55.878551, lon.=26.535927, Alt.=95.848694m. Speed=0.540000m/h.</desc>
<speed>0.150000</speed>
</trkpt>
<trkpt lat="55.878551" lon="26.535931">
<ele>95.846741</ele>
<time>2010-07-17T07:15:01Z</time>
<desc>lat.=55.878551, lon.=26.535931, Alt.=95.846741m. Speed=0.468000m/h.</desc>
<speed>0.130000</speed>
</trkpt>
<trkpt lat="55.878536" lon="26.535940">
<ele>95.754944</ele>
<time>2010-07-17T07:15:02Z</time>
<desc>lat.=55.878536, lon.=26.535940, Alt.=95.754944m. Speed=0.828000m/h.</desc>
<speed>0.230000</speed>
</trkpt>
<trkpt lat="55.878536" lon="26.535944">
<ele>95.774475</ele>
<time>2010-07-17T07:15:03Z</time>
<desc>lat.=55.878536, lon.=26.535944, Alt.=95.774475m. Speed=1.692000m/h.</desc>
<speed>0.470000</speed>
</trkpt>
<trkpt lat="55.878536" lon="26.535952">
<ele>95.799866</ele>
<time>2010-07-17T07:15:04Z</time>
<desc>lat.=55.878536, lon.=26.535952, Alt.=95.799866m. Speed=4.932000m/h.</desc>
<speed>1.370000</speed>
</trkpt>
<trkpt lat="55.878532" lon="26.535976">
<ele>95.842834</ele>
<time>2010-07-17T07:15:05Z</time>
<desc>lat.=55.878532, lon.=26.535976, Alt.=95.842834m. Speed=5.796000m/h.</desc>
<speed>1.610000</speed>
</trkpt>
<trkpt lat="55.878529" lon="26.536007">
<ele>96.006897</ele>
<time>2010-07-17T07:15:06Z</time>
<desc>lat.=55.878529, lon.=26.536007, Alt.=96.006897m. Speed=7.380000m/h.</desc>
<speed>2.050000</speed>
</trkpt>
<trkpt lat="55.878521" lon="26.536034">
<ele>96.231506</ele>
<time>2010-07-17T07:15:07Z</time>
<desc>lat.=55.878521, lon.=26.536034, Alt.=96.231506m. Speed=6.408000m/h.</desc>
<speed>1.780000</speed>
</trkpt>
<trkpt lat="55.878510" lon="26.536062">
<ele>96.588928</ele>
<time>2010-07-17T07:15:08Z</time>
<desc>lat.=55.878510, lon.=26.536062, Alt.=96.588928m. Speed=11.808000m/h.</desc>
<speed>3.280000</speed>
</trkpt>
<trkpt lat="55.878487" lon="26.536112">
<ele>96.944397</ele>
<time>2010-07-17T07:15:09Z</time>
<desc>lat.=55.878487, lon.=26.536112, Alt.=96.944397m. Speed=15.228000m/h.</desc>
<speed>4.230000</speed>
</trkpt>
<trkpt lat="55.878475" lon="26.536173">
<ele>97.352600</ele>
<time>2010-07-17T07:15:10Z</time>
<desc>lat.=55.878475, lon.=26.536173, Alt.=97.352600m. Speed=14.292000m/h.</desc>
<speed>3.970000</speed>
</trkpt>
<trkpt lat="55.878475" lon="26.536232">
<ele>97.536194</ele>
<time>2010-07-17T07:15:11Z</time>
<desc>lat.=55.878475, lon.=26.536232, Alt.=97.536194m. Speed=13.716000m/h.</desc>
<speed>3.810000</speed>
</trkpt>
<trkpt lat="55.878464" lon="26.536303">
<ele>97.653381</ele>
<time>2010-07-17T07:15:12Z</time>
<desc>lat.=55.878464, lon.=26.536303, Alt.=97.653381m. Speed=16.344000m/h.</desc>
<speed>4.540000</speed>
</trkpt>
<trkpt lat="55.878452" lon="26.536375">
<ele>97.907288</ele>
<time>2010-07-17T07:15:13Z</time>
<desc>lat.=55.878452, lon.=26.536375, Alt.=97.907288m. Speed=15.372000m/h.</desc>
<speed>4.270000</speed>
</trkpt>
<trkpt lat="55.878441" lon="26.536457">
<ele>98.034241</ele>
<time>2010-07-17T07:15:14Z</time>
<desc>lat.=55.878441, lon.=26.536457, Alt.=98.034241m. Speed=16.704000m/h.</desc>
<speed>4.640000</speed>
</trkpt>
<trkpt lat="55.878437" lon="26.536541">
<ele>98.180725</ele>
<time>2010-07-17T07:15:15Z</time>
<desc>lat.=55.878437, lon.=26.536541, Alt.=98.180725m. Speed=18.468000m/h.</desc>
<speed>5.130000</speed>
</trkpt>
<trkpt lat="55.878441" lon="26.536627">
<ele>98.241272</ele>
<time>2010-07-17T07:15:16Z</time>
<desc>lat.=55.878441, lon.=26.536627, Alt.=98.241272m. Speed=18.072001m/h.</desc>
<speed>5.020000</speed>
</trkpt>
<trkpt lat="55.878422" lon="26.536718">
<ele>98.458069</ele>
<time>2010-07-17T07:15:17Z</time>
<desc>lat.=55.878422, lon.=26.536718, Alt.=98.458069m. Speed=20.052000m/h.</desc>
<speed>5.570000</speed>
</trkpt>
<trkpt lat="55.878407" lon="26.536806">
<ele>98.627991</ele>
<time>2010-07-17T07:15:18Z</time>
<desc>lat.=55.878407, lon.=26.536806, Alt.=98.627991m. Speed=20.195999m/h.</desc>
<speed>5.610000</speed>
</trkpt>
<trkpt lat="55.878391" lon="26.536900">
<ele>98.850647</ele>
<time>2010-07-17T07:15:19Z</time>
<desc>lat.=55.878391, lon.=26.536900, Alt.=98.850647m. Speed=21.563999m/h.</desc>
<speed>5.990000</speed>
</trkpt>
<trkpt lat="55.878384" lon="26.536985">
<ele>99.219788</ele>
<time>2010-07-17T07:15:20Z</time>
<desc>lat.=55.878384, lon.=26.536985, Alt.=99.219788m. Speed=20.520000m/h.</desc>
<speed>5.700000</speed>
</trkpt>
<trkpt lat="55.878365" lon="26.537077">
<ele>99.165100</ele>
<time>2010-07-17T07:15:21Z</time>
<desc>lat.=55.878365, lon.=26.537077, Alt.=99.165100m. Speed=20.195999m/h.</desc>
<speed>5.610000</speed>
</trkpt>
<trkpt lat="55.878349" lon="26.537155">
<ele>99.028381</ele>
<time>2010-07-17T07:15:22Z</time>
<desc>lat.=55.878349, lon.=26.537155, Alt.=99.028381m. Speed=19.440001m/h.</desc>
<speed>5.400000</speed>
</trkpt>
<trkpt lat="55.878342" lon="26.537241">
<ele>99.186584</ele>
<time>2010-07-17T07:15:23Z</time>
<desc>lat.=55.878342, lon.=26.537241, Alt.=99.186584m. Speed=18.000000m/h.</desc>
<speed>5.000000</speed>
</trkpt>
<trkpt lat="55.878338" lon="26.537323">
<ele>99.424866</ele>
<time>2010-07-17T07:15:24Z</time>
<desc>lat.=55.878338, lon.=26.537323, Alt.=99.424866m. Speed=18.288000m/h.</desc>
<speed>5.080000</speed>
</trkpt>
<trkpt lat="55.878319" lon="26.537416">
<ele>99.368225</ele>
<time>2010-07-17T07:15:25Z</time>
<desc>lat.=55.878319, lon.=26.537416, Alt.=99.368225m. Speed=19.332001m/h.</desc>
<speed>5.370000</speed>
</trkpt>
<trkpt lat="55.878334" lon="26.537516">
<ele>99.026428</ele>
<time>2010-07-17T07:15:26Z</time>
<desc>lat.=55.878334, lon.=26.537516, Alt.=99.026428m. Speed=18.396000m/h.</desc>
<speed>5.110000</speed>
</trkpt>
<trkpt lat="55.878334" lon="26.537598">
<ele>99.108459</ele>
<time>2010-07-17T07:15:27Z</time>
<desc>lat.=55.878334, lon.=26.537598, Alt.=99.108459m. Speed=17.351999m/h.</desc>
<speed>4.820000</speed>
</trkpt>
<trkpt lat="55.878342" lon="26.537664">
<ele>99.081116</ele>
<time>2010-07-17T07:15:28Z</time>
<desc>lat.=55.878342, lon.=26.537664, Alt.=99.081116m. Speed=11.880000m/h.</desc>
<speed>3.300000</speed>
</trkpt>
<trkpt lat="55.878353" lon="26.537716">
<ele>99.184631</ele>
<time>2010-07-17T07:15:29Z</time>
<desc>lat.=55.878353, lon.=26.537716, Alt.=99.184631m. Speed=11.808000m/h.</desc>
<speed>3.280000</speed>
</trkpt>
<trkpt lat="55.878357" lon="26.537771">
<ele>99.229553</ele>
<time>2010-07-17T07:15:30Z</time>
<desc>lat.=55.878357, lon.=26.537771, Alt.=99.229553m. Speed=10.404000m/h.</desc>
<speed>2.890000</speed>
</trkpt>
<trkpt lat="55.878357" lon="26.537827">
<ele>99.307678</ele>
<time>2010-07-17T07:15:31Z</time>
<desc>lat.=55.878357, lon.=26.537827, Alt.=99.307678m. Speed=10.836000m/h.</desc>
<speed>3.010000</speed>
</trkpt>
<trkpt lat="55.878353" lon="26.537888">
<ele>99.403381</ele>
<time>2010-07-17T07:15:32Z</time>
<desc>lat.=55.878353, lon.=26.537888, Alt.=99.403381m. Speed=13.284000m/h.</desc>
<speed>3.690000</speed>
</trkpt>
<trkpt lat="55.878349" lon="26.537958">
<ele>99.817444</ele>
<time>2010-07-17T07:15:33Z</time>
<desc>lat.=55.878349, lon.=26.537958, Alt.=99.817444m. Speed=14.112000m/h.</desc>
<speed>3.920000</speed>
</trkpt>
<trkpt lat="55.878342" lon="26.538065">
<ele>99.919006</ele>
<time>2010-07-17T07:15:34Z</time>
<desc>lat.=55.878342, lon.=26.538065, Alt.=99.919006m. Speed=14.832000m/h.</desc>
<speed>4.120000</speed>
</trkpt>
<trkpt lat="55.878342" lon="26.538126">
<ele>100.469788</ele>
<time>2010-07-17T07:15:35Z</time>
<desc>lat.=55.878342, lon.=26.538126, Alt.=100.469788m. Speed=16.200001m/h.</desc>
<speed>4.500000</speed>
</trkpt>
<trkpt lat="55.878342" lon="26.538197">
<ele>100.854553</ele>
<time>2010-07-17T07:15:36Z</time>
<desc>lat.=55.878342, lon.=26.538197, Alt.=100.854553m. Speed=16.704000m/h.</desc>
<speed>4.640000</speed>
</trkpt>
<trkpt lat="55.878342" lon="26.538260">
<ele>101.184631</ele>
<time>2010-07-17T07:15:37Z</time>
<desc>lat.=55.878342, lon.=26.538260, Alt.=101.184631m. Speed=12.744000m/h.</desc>
<speed>3.540000</speed>
</trkpt>
<trkpt lat="55.878330" lon="26.538319">
<ele>101.403381</ele>
<time>2010-07-17T07:15:38Z</time>
<desc>lat.=55.878330, lon.=26.538319, Alt.=101.403381m. Speed=16.812000m/h.</desc>
<speed>4.670000</speed>
</trkpt>
<trkpt lat="55.878323" lon="26.538403">
<ele>101.401428</ele>
<time>2010-07-17T07:15:39Z</time>
<desc>lat.=55.878323, lon.=26.538403, Alt.=101.401428m. Speed=16.632000m/h.</desc>
<speed>4.620000</speed>
</trkpt>
<trkpt lat="55.878307" lon="26.538496">
<ele>101.465881</ele>
<time>2010-07-17T07:15:40Z</time>
<desc>lat.=55.878307, lon.=26.538496, Alt.=101.465881m. Speed=16.524000m/h.</desc>
<speed>4.590000</speed>
</trkpt>
<trkpt lat="55.878311" lon="26.538578">
<ele>101.776428</ele>
<time>2010-07-17T07:15:41Z</time>
<desc>lat.=55.878311, lon.=26.538578, Alt.=101.776428m. Speed=16.955999m/h.</desc>
<speed>4.710000</speed>
</trkpt>
<trkpt lat="55.878304" lon="26.538656">
<ele>101.876038</ele>
<time>2010-07-17T07:15:42Z</time>
<desc>lat.=55.878304, lon.=26.538656, Alt.=101.876038m. Speed=15.696000m/h.</desc>
<speed>4.360000</speed>
</trkpt>
<trkpt lat="55.878300" lon="26.538733">
<ele>102.536194</ele>
<time>2010-07-17T07:15:43Z</time>
<desc>lat.=55.878300, lon.=26.538733, Alt.=102.536194m. Speed=11.664000m/h.</desc>
<speed>3.240000</speed>
</trkpt>
<trkpt lat="55.878292" lon="26.538780">
<ele>102.678772</ele>
<time>2010-07-17T07:15:44Z</time>
<desc>lat.=55.878292, lon.=26.538780, Alt.=102.678772m. Speed=11.124000m/h.</desc>
<speed>3.090000</speed>
</trkpt>
<trkpt lat="55.878273" lon="26.538816">
<ele>102.786194</ele>
<time>2010-07-17T07:15:45Z</time>
<desc>lat.=55.878273, lon.=26.538816, Alt.=102.786194m. Speed=13.932000m/h.</desc>
<speed>3.870000</speed>
</trkpt>
<trkpt lat="55.878319" lon="26.538872">
<ele>101.876038</ele>
<time>2010-07-17T07:15:46Z</time>
<desc>lat.=55.878319, lon.=26.538872, Alt.=101.876038m. Speed=15.624000m/h.</desc>
<speed>4.340000</speed>
</trkpt>
<trkpt lat="55.878296" lon="26.538927">
<ele>101.971741</ele>
<time>2010-07-17T07:15:47Z</time>
<desc>lat.=55.878296, lon.=26.538927, Alt.=101.971741m. Speed=17.208000m/h.</desc>
<speed>4.780000</speed>
</trkpt>
<trkpt lat="55.878284" lon="26.539001">
<ele>102.067444</ele>
<time>2010-07-17T07:15:48Z</time>
<desc>lat.=55.878284, lon.=26.539001, Alt.=102.067444m. Speed=19.476000m/h.</desc>
<speed>5.410000</speed>
</trkpt>
<trkpt lat="55.878284" lon="26.539087">
<ele>102.184631</ele>
<time>2010-07-17T07:15:49Z</time>
<desc>lat.=55.878284, lon.=26.539087, Alt.=102.184631m. Speed=19.728001m/h.</desc>
<speed>5.480000</speed>
</trkpt>
<trkpt lat="55.878330" lon="26.539192">
<ele>101.909241</ele>
<time>2010-07-17T07:15:50Z</time>
<desc>lat.=55.878330, lon.=26.539192, Alt.=101.909241m. Speed=20.268000m/h.</desc>
<speed>5.630000</speed>
</trkpt>
<trkpt lat="55.878376" lon="26.539295">
<ele>101.670959</ele>
<time>2010-07-17T07:15:51Z</time>
<desc>lat.=55.878376, lon.=26.539295, Alt.=101.670959m. Speed=20.628000m/h.</desc>
<speed>5.730000</speed>
</trkpt>
<trkpt lat="55.878422" lon="26.539387">
<ele>101.497131</ele>
<time>2010-07-17T07:15:52Z</time>
<desc>lat.=55.878422, lon.=26.539387, Alt.=101.497131m. Speed=20.087999m/h.</desc>
<speed>5.580000</speed>
</trkpt>
<trkpt lat="55.878460" lon="26.539503">
<ele>100.674866</ele>
<time>2010-07-17T07:15:53Z</time>
<desc>lat.=55.878460, lon.=26.539503, Alt.=100.674866m. Speed=20.304001m/h.</desc>
<speed>5.640000</speed>
</trkpt>
<trkpt lat="55.878498" lon="26.539600">
<ele>100.424866</ele>
<time>2010-07-17T07:15:54Z</time>
<desc>lat.=55.878498, lon.=26.539600, Alt.=100.424866m. Speed=19.872000m/h.</desc>
<speed>5.520000</speed>
</trkpt>
<trkpt lat="55.878513" lon="26.539688">
<ele>100.094788</ele>
<time>2010-07-17T07:15:55Z</time>
<desc>lat.=55.878513, lon.=26.539688, Alt.=100.094788m. Speed=18.396000m/h.</desc>
<speed>5.110000</speed>
</trkpt>
<trkpt lat="55.878529" lon="26.539751">
<ele>99.786194</ele>
<time>2010-07-17T07:15:56Z</time>
<desc>lat.=55.878529, lon.=26.539751, Alt.=99.786194m. Speed=14.040000m/h.</desc>
<speed>3.900000</speed>
</trkpt>
<trkpt lat="55.878529" lon="26.539808">
<ele>99.653381</ele>
<time>2010-07-17T07:15:57Z</time>
<desc>lat.=55.878529, lon.=26.539808, Alt.=99.653381m. Speed=11.916000m/h.</desc>
<speed>3.310000</speed>
</trkpt>
<trkpt lat="55.878513" lon="26.539852">
<ele>99.711975</ele>
<time>2010-07-17T07:15:58Z</time>
<desc>lat.=55.878513, lon.=26.539852, Alt.=99.711975m. Speed=14.220000m/h.</desc>
<speed>3.950000</speed>
</trkpt>
<trkpt lat="55.878483" lon="26.539886">
<ele>100.502991</ele>
<time>2010-07-17T07:15:59Z</time>
<desc>lat.=55.878483, lon.=26.539886, Alt.=100.502991m. Speed=14.112000m/h.</desc>
<speed>3.920000</speed>
</trkpt>
<trkpt lat="55.878452" lon="26.539904">
<ele>101.131897</ele>
<time>2010-07-17T07:16:00Z</time>
<desc>lat.=55.878452, lon.=26.539904, Alt.=101.131897m. Speed=13.428000m/h.</desc>
<speed>3.730000</speed>
</trkpt>
<trkpt lat="55.878418" lon="26.539923">
<ele>101.420959</ele>
<time>2010-07-17T07:16:01Z</time>
<desc>lat.=55.878418, lon.=26.539923, Alt.=101.420959m. Speed=17.712000m/h.</desc>
<speed>4.920000</speed>
</trkpt>
<trkpt lat="55.878368" lon="26.539936">
<ele>101.544006</ele>
<time>2010-07-17T07:16:02Z</time>
<desc>lat.=55.878368, lon.=26.539936, Alt.=101.544006m. Speed=20.340000m/h.</desc>
<speed>5.650000</speed>
</trkpt>
<trkpt lat="55.878311" lon="26.539953">
<ele>102.077209</ele>
<time>2010-07-17T07:16:03Z</time>
<desc>lat.=55.878311, lon.=26.539953, Alt.=102.077209m. Speed=24.120001m/h.</desc>
<speed>6.700000</speed>
</trkpt>
<trkpt lat="55.878246" lon="26.539980">
<ele>102.600647</ele>
<time>2010-07-17T07:16:04Z</time>
<desc>lat.=55.878246, lon.=26.539980, Alt.=102.600647m. Speed=22.068001m/h.</desc>
<speed>6.130000</speed>
</trkpt>
<trkpt lat="55.878185" lon="26.540003">
<ele>103.069397</ele>
<time>2010-07-17T07:16:05Z</time>
<desc>lat.=55.878185, lon.=26.540003, Alt.=103.069397m. Speed=23.868000m/h.</desc>
<speed>6.630000</speed>
</trkpt>
<trkpt lat="55.878124" lon="26.540018">
<ele>103.176819</ele>
<time>2010-07-17T07:16:06Z</time>
<desc>lat.=55.878124, lon.=26.540018, Alt.=103.176819m. Speed=25.164000m/h.</desc>
<speed>6.990000</speed>
</trkpt>
<trkpt lat="55.878063" lon="26.540041">
<ele>103.438538</ele>
<time>2010-07-17T07:16:07Z</time>
<desc>lat.=55.878063, lon.=26.540041, Alt.=103.438538m. Speed=24.228001m/h.</desc>
<speed>6.730000</speed>
</trkpt>
<trkpt lat="55.877998" lon="26.540071">
<ele>103.079163</ele>
<time>2010-07-17T07:16:08Z</time>
<desc>lat.=55.877998, lon.=26.540071, Alt.=103.079163m. Speed=25.559999m/h.</desc>
<speed>7.100000</speed>
</trkpt>
<trkpt lat="55.877934" lon="26.540100">
<ele>103.018616</ele>
<time>2010-07-17T07:16:09Z</time>
<desc>lat.=55.877934, lon.=26.540100, Alt.=103.018616m. Speed=26.100000m/h.</desc>
<speed>7.250000</speed>
</trkpt>
<trkpt lat="55.877869" lon="26.540125">
<ele>102.985413</ele>
<time>2010-07-17T07:16:10Z</time>
<desc>lat.=55.877869, lon.=26.540125, Alt.=102.985413m. Speed=26.351999m/h.</desc>
<speed>7.320000</speed>
</trkpt>
<trkpt lat="55.877804" lon="26.540150">
<ele>103.059631</ele>
<time>2010-07-17T07:16:11Z</time>
<desc>lat.=55.877804, lon.=26.540150, Alt.=103.059631m. Speed=25.416000m/h.</desc>
<speed>7.060000</speed>
</trkpt>
<trkpt lat="55.877743" lon="26.540165">
<ele>103.170959</ele>
<time>2010-07-17T07:16:12Z</time>
<desc>lat.=55.877743, lon.=26.540165, Alt.=103.170959m. Speed=25.308001m/h.</desc>
<speed>7.030000</speed>
</trkpt>
<trkpt lat="55.877682" lon="26.540174">
<ele>102.928772</ele>
<time>2010-07-17T07:16:13Z</time>
<desc>lat.=55.877682, lon.=26.540174, Alt.=102.928772m. Speed=26.784000m/h.</desc>
<speed>7.440000</speed>
</trkpt>
<trkpt lat="55.877613" lon="26.540173">
<ele>102.657288</ele>
<time>2010-07-17T07:16:14Z</time>
<desc>lat.=55.877613, lon.=26.540173, Alt.=102.657288m. Speed=24.983999m/h.</desc>
<speed>6.940000</speed>
</trkpt>
<trkpt lat="55.877544" lon="26.540165">
<ele>102.282288</ele>
<time>2010-07-17T07:16:15Z</time>
<desc>lat.=55.877544, lon.=26.540165, Alt.=102.282288m. Speed=25.236000m/h.</desc>
<speed>7.010000</speed>
</trkpt>
<trkpt lat="55.877483" lon="26.540167">
<ele>102.176819</ele>
<time>2010-07-17T07:16:16Z</time>
<desc>lat.=55.877483, lon.=26.540167, Alt.=102.176819m. Speed=26.784000m/h.</desc>
<speed>7.440000</speed>
</trkpt>
<trkpt lat="55.877419" lon="26.540171">
<ele>102.206116</ele>
<time>2010-07-17T07:16:17Z</time>
<desc>lat.=55.877419, lon.=26.540171, Alt.=102.206116m. Speed=25.992001m/h.</desc>
<speed>7.220000</speed>
</trkpt>
<trkpt lat="55.877357" lon="26.540174">
<ele>102.243225</ele>
<time>2010-07-17T07:16:18Z</time>
<desc>lat.=55.877357, lon.=26.540174, Alt.=102.243225m. Speed=26.172001m/h.</desc>
<speed>7.270000</speed>
</trkpt>
<trkpt lat="55.877289" lon="26.540180">
<ele>102.036194</ele>
<time>2010-07-17T07:16:19Z</time>
<desc>lat.=55.877289, lon.=26.540180, Alt.=102.036194m. Speed=26.964001m/h.</desc>
<speed>7.490000</speed>
</trkpt>
<trkpt lat="55.877220" lon="26.540186">
<ele>102.057678</ele>
<time>2010-07-17T07:16:20Z</time>
<desc>lat.=55.877220, lon.=26.540186, Alt.=102.057678m. Speed=24.732000m/h.</desc>
<speed>6.870000</speed>
</trkpt>
<trkpt lat="55.877163" lon="26.540199">
<ele>102.045959</ele>
<time>2010-07-17T07:16:21Z</time>
<desc>lat.=55.877163, lon.=26.540199, Alt.=102.045959m. Speed=25.091999m/h.</desc>
<speed>6.970000</speed>
</trkpt>
<trkpt lat="55.877102" lon="26.540211">
<ele>102.044006</ele>
<time>2010-07-17T07:16:22Z</time>
<desc>lat.=55.877102, lon.=26.540211, Alt.=102.044006m. Speed=24.084000m/h.</desc>
<speed>6.690000</speed>
</trkpt>
<trkpt lat="55.877045" lon="26.540222">
<ele>102.456116</ele>
<time>2010-07-17T07:16:23Z</time>
<desc>lat.=55.877045, lon.=26.540222, Alt.=102.456116m. Speed=26.351999m/h.</desc>
<speed>7.320000</speed>
</trkpt>
<trkpt lat="55.876984" lon="26.540230">
<ele>102.176819</ele>
<time>2010-07-17T07:16:24Z</time>
<desc>lat.=55.876984, lon.=26.540230, Alt.=102.176819m. Speed=23.148001m/h.</desc>
<speed>6.430000</speed>
</trkpt>
<trkpt lat="55.876930" lon="26.540245">
<ele>102.237366</ele>
<time>2010-07-17T07:16:25Z</time>
<desc>lat.=55.876930, lon.=26.540245, Alt.=102.237366m. Speed=20.844000m/h.</desc>
<speed>5.790000</speed>
</trkpt>
<trkpt lat="55.876888" lon="26.540260">
<ele>102.159241</ele>
<time>2010-07-17T07:16:26Z</time>
<desc>lat.=55.876888, lon.=26.540260, Alt.=102.159241m. Speed=18.252001m/h.</desc>
<speed>5.070000</speed>
</trkpt>
<trkpt lat="55.876846" lon="26.540270">
<ele>102.188538</ele>
<time>2010-07-17T07:16:27Z</time>
<desc>lat.=55.876846, lon.=26.540270, Alt.=102.188538m. Speed=15.768000m/h.</desc>
<speed>4.380000</speed>
</trkpt>
<trkpt lat="55.876804" lon="26.540281">
<ele>102.280334</ele>
<time>2010-07-17T07:16:28Z</time>
<desc>lat.=55.876804, lon.=26.540281, Alt.=102.280334m. Speed=18.396000m/h.</desc>
<speed>5.110000</speed>
</trkpt>
<trkpt lat="55.876747" lon="26.540312">
<ele>102.311584</ele>
<time>2010-07-17T07:16:29Z</time>
<desc>lat.=55.876747, lon.=26.540312, Alt.=102.311584m. Speed=23.400000m/h.</desc>
<speed>6.500000</speed>
</trkpt>
<trkpt lat="55.876690" lon="26.540354">
<ele>102.266663</ele>
<time>2010-07-17T07:16:30Z</time>
<desc>lat.=55.876690, lon.=26.540354, Alt.=102.266663m. Speed=24.875999m/h.</desc>
<speed>6.910000</speed>
</trkpt>
<trkpt lat="55.876629" lon="26.540401">
<ele>102.172913</ele>
<time>2010-07-17T07:16:31Z</time>
<desc>lat.=55.876629, lon.=26.540401, Alt.=102.172913m. Speed=27.323999m/h.</desc>
<speed>7.590000</speed>
</trkpt>
<trkpt lat="55.876568" lon="26.540459">
<ele>101.999084</ele>
<time>2010-07-17T07:16:32Z</time>
<desc>lat.=55.876568, lon.=26.540459, Alt.=101.999084m. Speed=28.007999m/h.</desc>
<speed>7.780000</speed>
</trkpt>
<trkpt lat="55.876530" lon="26.540535">
<ele>101.430725</ele>
<time>2010-07-17T07:16:33Z</time>
<desc>lat.=55.876530, lon.=26.540535, Alt.=101.430725m. Speed=25.164000m/h.</desc>
<speed>6.990000</speed>
</trkpt>
<trkpt lat="55.876488" lon="26.540607">
<ele>100.768616</ele>
<time>2010-07-17T07:16:34Z</time>
<desc>lat.=55.876488, lon.=26.540607, Alt.=100.768616m. Speed=23.327999m/h.</desc>
<speed>6.480000</speed>
</trkpt>
<trkpt lat="55.876446" lon="26.540684">
<ele>100.387756</ele>
<time>2010-07-17T07:16:35Z</time>
<desc>lat.=55.876446, lon.=26.540684, Alt.=100.387756m. Speed=23.112000m/h.</desc>
<speed>6.420000</speed>
</trkpt>
<trkpt lat="55.876404" lon="26.540770">
<ele>100.030334</ele>
<time>2010-07-17T07:16:36Z</time>
<desc>lat.=55.876404, lon.=26.540770, Alt.=100.030334m. Speed=25.488001m/h.</desc>
<speed>7.080000</speed>
</trkpt>
<trkpt lat="55.876366" lon="26.540850">
<ele>99.553772</ele>
<time>2010-07-17T07:16:37Z</time>
<desc>lat.=55.876366, lon.=26.540850, Alt.=99.553772m. Speed=24.228001m/h.</desc>
<speed>6.730000</speed>
</trkpt>
<trkpt lat="55.876335" lon="26.540936">
<ele>98.960022</ele>
<time>2010-07-17T07:16:38Z</time>
<desc>lat.=55.876335, lon.=26.540936, Alt.=98.960022m. Speed=24.480000m/h.</desc>
<speed>6.800000</speed>
</trkpt>
<trkpt lat="55.876293" lon="26.541019">
<ele>98.942444</ele>
<time>2010-07-17T07:16:39Z</time>
<desc>lat.=55.876293, lon.=26.541019, Alt.=98.942444m. Speed=25.524000m/h.</desc>
<speed>7.090000</speed>
</trkpt>
<trkpt lat="55.876251" lon="26.541101">
<ele>98.731506</ele>
<time>2010-07-17T07:16:40Z</time>
<desc>lat.=55.876251, lon.=26.541101, Alt.=98.731506m. Speed=25.920000m/h.</desc>
<speed>7.200000</speed>
</trkpt>
<trkpt lat="55.876205" lon="26.541183">
<ele>98.583069</ele>
<time>2010-07-17T07:16:41Z</time>
<desc>lat.=55.876205, lon.=26.541183, Alt.=98.583069m. Speed=25.812000m/h.</desc>
<speed>7.170000</speed>
</trkpt>
<trkpt lat="55.876163" lon="26.541267">
<ele>98.434631</ele>
<time>2010-07-17T07:16:42Z</time>
<desc>lat.=55.876163, lon.=26.541267, Alt.=98.434631m. Speed=24.875999m/h.</desc>
<speed>6.910000</speed>
</trkpt>
<trkpt lat="55.876122" lon="26.541346">
<ele>98.170959</ele>
<time>2010-07-17T07:16:43Z</time>
<desc>lat.=55.876122, lon.=26.541346, Alt.=98.170959m. Speed=24.372000m/h.</desc>
<speed>6.770000</speed>
</trkpt>
<trkpt lat="55.876080" lon="26.541424">
<ele>97.780334</ele>
<time>2010-07-17T07:16:44Z</time>
<desc>lat.=55.876080, lon.=26.541424, Alt.=97.780334m. Speed=23.184000m/h.</desc>
<speed>6.440000</speed>
</trkpt>
<trkpt lat="55.876038" lon="26.541506">
<ele>97.897522</ele>
<time>2010-07-17T07:16:45Z</time>
<desc>lat.=55.876038, lon.=26.541506, Alt.=97.897522m. Speed=24.156000m/h.</desc>
<speed>6.710000</speed>
</trkpt>
<trkpt lat="55.875988" lon="26.541592">
<ele>98.059631</ele>
<time>2010-07-17T07:16:46Z</time>
<desc>lat.=55.875988, lon.=26.541592, Alt.=98.059631m. Speed=25.884001m/h.</desc>
<speed>7.190000</speed>
</trkpt>
<trkpt lat="55.875938" lon="26.541672">
<ele>97.655334</ele>
<time>2010-07-17T07:16:47Z</time>
<desc>lat.=55.875938, lon.=26.541672, Alt.=97.655334m. Speed=25.812000m/h.</desc>
<speed>7.170000</speed>
</trkpt>
<trkpt lat="55.875889" lon="26.541748">
<ele>97.313538</ele>
<time>2010-07-17T07:16:48Z</time>
<desc>lat.=55.875889, lon.=26.541748, Alt.=97.313538m. Speed=24.191999m/h.</desc>
<speed>6.720000</speed>
</trkpt>
<trkpt lat="55.875843" lon="26.541828">
<ele>97.465881</ele>
<time>2010-07-17T07:16:49Z</time>
<desc>lat.=55.875843, lon.=26.541828, Alt.=97.465881m. Speed=25.056000m/h.</desc>
<speed>6.960000</speed>
</trkpt>
<trkpt lat="55.875797" lon="26.541906">
<ele>97.167053</ele>
<time>2010-07-17T07:16:50Z</time>
<desc>lat.=55.875797, lon.=26.541906, Alt.=97.167053m. Speed=24.660000m/h.</desc>
<speed>6.850000</speed>
</trkpt>
<trkpt lat="55.875744" lon="26.541981">
<ele>97.176819</ele>
<time>2010-07-17T07:16:51Z</time>
<desc>lat.=55.875744, lon.=26.541981, Alt.=97.176819m. Speed=23.940001m/h.</desc>
<speed>6.650000</speed>
</trkpt>
<trkpt lat="55.875690" lon="26.542053">
<ele>97.370178</ele>
<time>2010-07-17T07:16:52Z</time>
<desc>lat.=55.875690, lon.=26.542053, Alt.=97.370178m. Speed=25.091999m/h.</desc>
<speed>6.970000</speed>
</trkpt>
<trkpt lat="55.875652" lon="26.542135">
<ele>97.399475</ele>
<time>2010-07-17T07:16:53Z</time>
<desc>lat.=55.875652, lon.=26.542135, Alt.=97.399475m. Speed=24.840000m/h.</desc>
<speed>6.900000</speed>
</trkpt>
<trkpt lat="55.875610" lon="26.542217">
<ele>97.262756</ele>
<time>2010-07-17T07:16:54Z</time>
<desc>lat.=55.875610, lon.=26.542217, Alt.=97.262756m. Speed=25.416000m/h.</desc>
<speed>7.060000</speed>
</trkpt>
<trkpt lat="55.875565" lon="26.542299">
<ele>97.143616</ele>
<time>2010-07-17T07:16:55Z</time>
<desc>lat.=55.875565, lon.=26.542299, Alt.=97.143616m. Speed=26.172001m/h.</desc>
<speed>7.270000</speed>
</trkpt>
<trkpt lat="55.875530" lon="26.542389">
<ele>96.975647</ele>
<time>2010-07-17T07:16:56Z</time>
<desc>lat.=55.875530, lon.=26.542389, Alt.=96.975647m. Speed=26.424000m/h.</desc>
<speed>7.340000</speed>
</trkpt>
<trkpt lat="55.875488" lon="26.542479">
<ele>96.893616</ele>
<time>2010-07-17T07:16:57Z</time>
<desc>lat.=55.875488, lon.=26.542479, Alt.=96.893616m. Speed=26.208000m/h.</desc>
<speed>7.280000</speed>
</trkpt>
<trkpt lat="55.875443" lon="26.542570">
<ele>96.940491</ele>
<time>2010-07-17T07:16:58Z</time>
<desc>lat.=55.875443, lon.=26.542570, Alt.=96.940491m. Speed=27.612000m/h.</desc>
<speed>7.670000</speed>
</trkpt>
<trkpt lat="55.875397" lon="26.542652">
<ele>96.930725</ele>
<time>2010-07-17T07:16:59Z</time>
<desc>lat.=55.875397, lon.=26.542652, Alt.=96.930725m. Speed=26.100000m/h.</desc>
<speed>7.250000</speed>
</trkpt>
<trkpt lat="55.875351" lon="26.542738">
<ele>97.190491</ele>
<time>2010-07-17T07:17:00Z</time>
<desc>lat.=55.875351, lon.=26.542738, Alt.=97.190491m. Speed=25.704000m/h.</desc>
<speed>7.140000</speed>
</trkpt>
<trkpt lat="55.875309" lon="26.542818">
<ele>97.186584</ele>
<time>2010-07-17T07:17:01Z</time>
<desc>lat.=55.875309, lon.=26.542818, Alt.=97.186584m. Speed=24.191999m/h.</desc>
<speed>6.720000</speed>
</trkpt>
<trkpt lat="55.875267" lon="26.542894">
<ele>97.288147</ele>
<time>2010-07-17T07:17:02Z</time>
<desc>lat.=55.875267, lon.=26.542894, Alt.=97.288147m. Speed=23.507999m/h.</desc>
<speed>6.530000</speed>
</trkpt>
<trkpt lat="55.875233" lon="26.542971">
<ele>97.278381</ele>
<time>2010-07-17T07:17:03Z</time>
<desc>lat.=55.875233, lon.=26.542971, Alt.=97.278381m. Speed=21.851999m/h.</desc>
<speed>6.070000</speed>
</trkpt>
<trkpt lat="55.875202" lon="26.543049">
<ele>97.374084</ele>
<time>2010-07-17T07:17:04Z</time>
<desc>lat.=55.875202, lon.=26.543049, Alt.=97.374084m. Speed=22.535999m/h.</desc>
<speed>6.260000</speed>
</trkpt>
<trkpt lat="55.875164" lon="26.543125">
<ele>97.641663</ele>
<time>2010-07-17T07:17:05Z</time>
<desc>lat.=55.875164, lon.=26.543125, Alt.=97.641663m. Speed=21.563999m/h.</desc>
<speed>5.990000</speed>
</trkpt>
<trkpt lat="55.875126" lon="26.543203">
<ele>97.741272</ele>
<time>2010-07-17T07:17:06Z</time>
<desc>lat.=55.875126, lon.=26.543203, Alt.=97.741272m. Speed=23.148001m/h.</desc>
<speed>6.430000</speed>
</trkpt>
<trkpt lat="55.875080" lon="26.543287">
<ele>97.608459</ele>
<time>2010-07-17T07:17:07Z</time>
<desc>lat.=55.875080, lon.=26.543287, Alt.=97.608459m. Speed=23.903999m/h.</desc>
<speed>6.640000</speed>
</trkpt>
<trkpt lat="55.875042" lon="26.543365">
<ele>97.669006</ele>
<time>2010-07-17T07:17:08Z</time>
<desc>lat.=55.875042, lon.=26.543365, Alt.=97.669006m. Speed=24.299999m/h.</desc>
<speed>6.750000</speed>
</trkpt>
<trkpt lat="55.875008" lon="26.543453">
<ele>97.641663</ele>
<time>2010-07-17T07:17:09Z</time>
<desc>lat.=55.875008, lon.=26.543453, Alt.=97.641663m. Speed=23.436001m/h.</desc>
<speed>6.510000</speed>
</trkpt>
<trkpt lat="55.874966" lon="26.543533">
<ele>97.342834</ele>
<time>2010-07-17T07:17:10Z</time>
<desc>lat.=55.874966, lon.=26.543533, Alt.=97.342834m. Speed=24.336000m/h.</desc>
<speed>6.760000</speed>
</trkpt>
<trkpt lat="55.874916" lon="26.543610">
<ele>97.381897</ele>
<time>2010-07-17T07:17:11Z</time>
<desc>lat.=55.874916, lon.=26.543610, Alt.=97.381897m. Speed=25.056000m/h.</desc>
<speed>6.960000</speed>
</trkpt>
<trkpt lat="55.874863" lon="26.543682">
<ele>97.307678</ele>
<time>2010-07-17T07:17:12Z</time>
<desc>lat.=55.874863, lon.=26.543682, Alt.=97.307678m. Speed=25.308001m/h.</desc>
<speed>7.030000</speed>
</trkpt>
<trkpt lat="55.874825" lon="26.543758">
<ele>97.247131</ele>
<time>2010-07-17T07:17:13Z</time>
<desc>lat.=55.874825, lon.=26.543758, Alt.=97.247131m. Speed=23.219999m/h.</desc>
<speed>6.450000</speed>
</trkpt>
<trkpt lat="55.874783" lon="26.543839">
<ele>97.198303</ele>
<time>2010-07-17T07:17:14Z</time>
<desc>lat.=55.874783, lon.=26.543839, Alt.=97.198303m. Speed=22.068001m/h.</desc>
<speed>6.130000</speed>
</trkpt>
<trkpt lat="55.874744" lon="26.543919">
<ele>96.917053</ele>
<time>2010-07-17T07:17:15Z</time>
<desc>lat.=55.874744, lon.=26.543919, Alt.=96.917053m. Speed=21.563999m/h.</desc>
<speed>5.990000</speed>
</trkpt>
<trkpt lat="55.874714" lon="26.543995">
<ele>97.077209</ele>
<time>2010-07-17T07:17:16Z</time>
<desc>lat.=55.874714, lon.=26.543995, Alt.=97.077209m. Speed=21.132000m/h.</desc>
<speed>5.870000</speed>
</trkpt>
<trkpt lat="55.874680" lon="26.544067">
<ele>96.969788</ele>
<time>2010-07-17T07:17:17Z</time>
<desc>lat.=55.874680, lon.=26.544067, Alt.=96.969788m. Speed=20.736000m/h.</desc>
<speed>5.760000</speed>
</trkpt>
<trkpt lat="55.874645" lon="26.544147">
<ele>97.016663</ele>
<time>2010-07-17T07:17:18Z</time>
<desc>lat.=55.874645, lon.=26.544147, Alt.=97.016663m. Speed=21.924000m/h.</desc>
<speed>6.090000</speed>
</trkpt>
<trkpt lat="55.874607" lon="26.544224">
<ele>96.952209</ele>
<time>2010-07-17T07:17:19Z</time>
<desc>lat.=55.874607, lon.=26.544224, Alt.=96.952209m. Speed=22.392000m/h.</desc>
<speed>6.220000</speed>
</trkpt>
<trkpt lat="55.874569" lon="26.544292">
<ele>97.032288</ele>
<time>2010-07-17T07:17:20Z</time>
<desc>lat.=55.874569, lon.=26.544292, Alt.=97.032288m. Speed=21.816000m/h.</desc>
<speed>6.060000</speed>
</trkpt>
<trkpt lat="55.874535" lon="26.544386">
<ele>97.553772</ele>
<time>2010-07-17T07:17:21Z</time>
<desc>lat.=55.874535, lon.=26.544386, Alt.=97.553772m. Speed=21.924000m/h.</desc>
<speed>6.090000</speed>
</trkpt>
<trkpt lat="55.874500" lon="26.544456">
<ele>97.868225</ele>
<time>2010-07-17T07:17:22Z</time>
<desc>lat.=55.874500, lon.=26.544456, Alt.=97.868225m. Speed=20.988001m/h.</desc>
<speed>5.830000</speed>
</trkpt>
<trkpt lat="55.874474" lon="26.544535">
<ele>97.977600</ele>
<time>2010-07-17T07:17:23Z</time>
<desc>lat.=55.874474, lon.=26.544535, Alt.=97.977600m. Speed=20.016001m/h.</desc>
<speed>5.560000</speed>
</trkpt>
<trkpt lat="55.874447" lon="26.544613">
<ele>98.098694</ele>
<time>2010-07-17T07:17:24Z</time>
<desc>lat.=55.874447, lon.=26.544613, Alt.=98.098694m. Speed=20.628000m/h.</desc>
<speed>5.730000</speed>
</trkpt>
<trkpt lat="55.874416" lon="26.544682">
<ele>97.983459</ele>
<time>2010-07-17T07:17:25Z</time>
<desc>lat.=55.874416, lon.=26.544682, Alt.=97.983459m. Speed=18.684000m/h.</desc>
<speed>5.190000</speed>
</trkpt>
<trkpt lat="55.874393" lon="26.544720">
<ele>97.669006</ele>
<time>2010-07-17T07:17:26Z</time>
<desc>lat.=55.874393, lon.=26.544720, Alt.=97.669006m. Speed=13.284000m/h.</desc>
<speed>3.690000</speed>
</trkpt>
<trkpt lat="55.874367" lon="26.544744">
<ele>97.723694</ele>
<time>2010-07-17T07:17:27Z</time>
<desc>lat.=55.874367, lon.=26.544744, Alt.=97.723694m. Speed=8.676000m/h.</desc>
<speed>2.410000</speed>
</trkpt>
<trkpt lat="55.874355" lon="26.544760">
<ele>97.842834</ele>
<time>2010-07-17T07:17:28Z</time>
<desc>lat.=55.874355, lon.=26.544760, Alt.=97.842834m. Speed=3.204000m/h.</desc>
<speed>0.890000</speed>
</trkpt>
<trkpt lat="55.874355" lon="26.544765">
<ele>97.815491</ele>
<time>2010-07-17T07:17:29Z</time>
<desc>lat.=55.874355, lon.=26.544765, Alt.=97.815491m. Speed=0.972000m/h.</desc>
<speed>0.270000</speed>
</trkpt>
<trkpt lat="55.874348" lon="26.544764">
<ele>97.842834</ele>
<time>2010-07-17T07:17:30Z</time>
<desc>lat.=55.874348, lon.=26.544764, Alt.=97.842834m. Speed=0.828000m/h.</desc>
<speed>0.230000</speed>
</trkpt>
<trkpt lat="55.874344" lon="26.544762">
<ele>97.907288</ele>
<time>2010-07-17T07:17:31Z</time>
<desc>lat.=55.874344, lon.=26.544762, Alt.=97.907288m. Speed=1.872000m/h.</desc>
<speed>0.520000</speed>
</trkpt>
<trkpt lat="55.874336" lon="26.544762">
<ele>97.831116</ele>
<time>2010-07-17T07:17:32Z</time>
<desc>lat.=55.874336, lon.=26.544762, Alt.=97.831116m. Speed=1.008000m/h.</desc>
<speed>0.280000</speed>
</trkpt>
<trkpt lat="55.874336" lon="26.544764">
<ele>97.745178</ele>
<time>2010-07-17T07:17:33Z</time>
<desc>lat.=55.874336, lon.=26.544764, Alt.=97.745178m. Speed=1.260000m/h.</desc>
<speed>0.350000</speed>
</trkpt>
<trkpt lat="55.874332" lon="26.544765">
<ele>97.688538</ele>
<time>2010-07-17T07:17:34Z</time>
<desc>lat.=55.874332, lon.=26.544765, Alt.=97.688538m. Speed=0.720000m/h.</desc>
<speed>0.200000</speed>
</trkpt>
<trkpt lat="55.874329" lon="26.544767">
<ele>97.633850</ele>
<time>2010-07-17T07:17:35Z</time>
<desc>lat.=55.874329, lon.=26.544767, Alt.=97.633850m. Speed=1.260000m/h.</desc>
<speed>0.350000</speed>
</trkpt>
<trkpt lat="55.874329" lon="26.544765">
<ele>97.592834</ele>
<time>2010-07-17T07:17:36Z</time>
<desc>lat.=55.874329, lon.=26.544765, Alt.=97.592834m. Speed=1.116000m/h.</desc>
<speed>0.310000</speed>
</trkpt>
<trkpt lat="55.874325" lon="26.544764">
<ele>97.549866</ele>
<time>2010-07-17T07:17:37Z</time>
<desc>lat.=55.874325, lon.=26.544764, Alt.=97.549866m. Speed=1.476000m/h.</desc>
<speed>0.410000</speed>
</trkpt>
<trkpt lat="55.874321" lon="26.544764">
<ele>97.504944</ele>
<time>2010-07-17T07:17:38Z</time>
<desc>lat.=55.874321, lon.=26.544764, Alt.=97.504944m. Speed=1.728000m/h.</desc>
<speed>0.480000</speed>
</trkpt>
<trkpt lat="55.874317" lon="26.544762">
<ele>97.460022</ele>
<time>2010-07-17T07:17:39Z</time>
<desc>lat.=55.874317, lon.=26.544762, Alt.=97.460022m. Speed=1.764000m/h.</desc>
<speed>0.490000</speed>
</trkpt>
<trkpt lat="55.874313" lon="26.544762">
<ele>97.415100</ele>
<time>2010-07-17T07:17:40Z</time>
<desc>lat.=55.874313, lon.=26.544762, Alt.=97.415100m. Speed=1.692000m/h.</desc>
<speed>0.470000</speed>
</trkpt>
<trkpt lat="55.874310" lon="26.544760">
<ele>97.370178</ele>
<time>2010-07-17T07:17:41Z</time>
<desc>lat.=55.874310, lon.=26.544760, Alt.=97.370178m. Speed=1.836000m/h.</desc>
<speed>0.510000</speed>
</trkpt>
<trkpt lat="55.874302" lon="26.544760">
<ele>97.325256</ele>
<time>2010-07-17T07:17:42Z</time>
<desc>lat.=55.874302, lon.=26.544760, Alt.=97.325256m. Speed=1.944000m/h.</desc>
<speed>0.540000</speed>
</trkpt>
<trkpt lat="55.874298" lon="26.544758">
<ele>97.280334</ele>
<time>2010-07-17T07:17:43Z</time>
<desc>lat.=55.874298, lon.=26.544758, Alt.=97.280334m. Speed=2.052000m/h.</desc>
<speed>0.570000</speed>
</trkpt>
<trkpt lat="55.874294" lon="26.544758">
<ele>97.233459</ele>
<time>2010-07-17T07:17:44Z</time>
<desc>lat.=55.874294, lon.=26.544758, Alt.=97.233459m. Speed=1.872000m/h.</desc>
<speed>0.520000</speed>
</trkpt>
<trkpt lat="55.874290" lon="26.544758">
<ele>97.190491</ele>
<time>2010-07-17T07:17:45Z</time>
<desc>lat.=55.874290, lon.=26.544758, Alt.=97.190491m. Speed=1.620000m/h.</desc>
<speed>0.450000</speed>
</trkpt>
<trkpt lat="55.874287" lon="26.544762">
<ele>97.147522</ele>
<time>2010-07-17T07:17:46Z</time>
<desc>lat.=55.874287, lon.=26.544762, Alt.=97.147522m. Speed=1.296000m/h.</desc>
<speed>0.360000</speed>
</trkpt>
<trkpt lat="55.874283" lon="26.544764">
<ele>97.106506</ele>
<time>2010-07-17T07:17:47Z</time>
<desc>lat.=55.874283, lon.=26.544764, Alt.=97.106506m. Speed=1.116000m/h.</desc>
<speed>0.310000</speed>
</trkpt>
<trkpt lat="55.874279" lon="26.544767">
<ele>97.071350</ele>
<time>2010-07-17T07:17:48Z</time>
<desc>lat.=55.874279, lon.=26.544767, Alt.=97.071350m. Speed=0.936000m/h.</desc>
<speed>0.260000</speed>
</trkpt>
<trkpt lat="55.874279" lon="26.544769">
<ele>97.047913</ele>
<time>2010-07-17T07:17:49Z</time>
<desc>lat.=55.874279, lon.=26.544769, Alt.=97.047913m. Speed=1.728000m/h.</desc>
<speed>0.480000</speed>
</trkpt>
<trkpt lat="55.874275" lon="26.544773">
<ele>97.038147</ele>
<time>2010-07-17T07:17:50Z</time>
<desc>lat.=55.874275, lon.=26.544773, Alt.=97.038147m. Speed=2.052000m/h.</desc>
<speed>0.570000</speed>
</trkpt>
<trkpt lat="55.874271" lon="26.544779">
<ele>97.047913</ele>
<time>2010-07-17T07:17:51Z</time>
<desc>lat.=55.874271, lon.=26.544779, Alt.=97.047913m. Speed=0.288000m/h.</desc>
<speed>0.080000</speed>
</trkpt>
<trkpt lat="55.874271" lon="26.544779">
<ele>97.038147</ele>
<time>2010-07-17T07:17:52Z</time>
<desc>lat.=55.874271, lon.=26.544779, Alt.=97.038147m. Speed=0.468000m/h.</desc>
<speed>0.130000</speed>
</trkpt>
<trkpt lat="55.874271" lon="26.544777">
<ele>97.030334</ele>
<time>2010-07-17T07:17:53Z</time>
<desc>lat.=55.874271, lon.=26.544777, Alt.=97.030334m. Speed=0.792000m/h.</desc>
<speed>0.220000</speed>
</trkpt>
<trkpt lat="55.874271" lon="26.544773">
<ele>97.038147</ele>
<time>2010-07-17T07:17:54Z</time>
<desc>lat.=55.874271, lon.=26.544773, Alt.=97.038147m. Speed=1.584000m/h.</desc>
<speed>0.440000</speed>
</trkpt>
<trkpt lat="55.874275" lon="26.544769">
<ele>97.040100</ele>
<time>2010-07-17T07:17:55Z</time>
<desc>lat.=55.874275, lon.=26.544769, Alt.=97.040100m. Speed=2.016000m/h.</desc>
<speed>0.560000</speed>
</trkpt>
<trkpt lat="55.874279" lon="26.544762">
<ele>97.038147</ele>
<time>2010-07-17T07:17:56Z</time>
<desc>lat.=55.874279, lon.=26.544762, Alt.=97.038147m. Speed=2.484000m/h.</desc>
<speed>0.690000</speed>
</trkpt>
<trkpt lat="55.874283" lon="26.544756">
<ele>97.032288</ele>
<time>2010-07-17T07:17:57Z</time>
<desc>lat.=55.874283, lon.=26.544756, Alt.=97.032288m. Speed=2.592000m/h.</desc>
<speed>0.720000</speed>
</trkpt>
<trkpt lat="55.874290" lon="26.544748">
<ele>97.020569</ele>
<time>2010-07-17T07:17:58Z</time>
<desc>lat.=55.874290, lon.=26.544748, Alt.=97.020569m. Speed=2.808000m/h.</desc>
<speed>0.780000</speed>
</trkpt>
<trkpt lat="55.874294" lon="26.544741">
<ele>97.002991</ele>
<time>2010-07-17T07:17:59Z</time>
<desc>lat.=55.874294, lon.=26.544741, Alt.=97.002991m. Speed=3.132000m/h.</desc>
<speed>0.870000</speed>
</trkpt>
<trkpt lat="55.874302" lon="26.544733">
<ele>96.993225</ele>
<time>2010-07-17T07:18:00Z</time>
<desc>lat.=55.874302, lon.=26.544733, Alt.=96.993225m. Speed=2.448000m/h.</desc>
<speed>0.680000</speed>
</trkpt>
<trkpt lat="55.874306" lon="26.544727">
<ele>97.014709</ele>
<time>2010-07-17T07:18:01Z</time>
<desc>lat.=55.874306, lon.=26.544727, Alt.=97.014709m. Speed=2.160000m/h.</desc>
<speed>0.600000</speed>
</trkpt>
<trkpt lat="55.874313" lon="26.544727">
<ele>97.047913</ele>
<time>2010-07-17T07:18:02Z</time>
<desc>lat.=55.874313, lon.=26.544727, Alt.=97.047913m. Speed=1.800000m/h.</desc>
<speed>0.500000</speed>
</trkpt>
<trkpt lat="55.874317" lon="26.544733">
<ele>97.112366</ele>
<time>2010-07-17T07:18:03Z</time>
<desc>lat.=55.874317, lon.=26.544733, Alt.=97.112366m. Speed=1.692000m/h.</desc>
<speed>0.470000</speed>
</trkpt>
<trkpt lat="55.874317" lon="26.544743">
<ele>97.200256</ele>
<time>2010-07-17T07:18:04Z</time>
<desc>lat.=55.874317, lon.=26.544743, Alt.=97.200256m. Speed=1.764000m/h.</desc>
<speed>0.490000</speed>
</trkpt>
<trkpt lat="55.874321" lon="26.544748">
<ele>97.280334</ele>
<time>2010-07-17T07:18:05Z</time>
<desc>lat.=55.874321, lon.=26.544748, Alt.=97.280334m. Speed=1.620000m/h.</desc>
<speed>0.450000</speed>
</trkpt>
<trkpt lat="55.874325" lon="26.544756">
<ele>97.356506</ele>
<time>2010-07-17T07:18:06Z</time>
<desc>lat.=55.874325, lon.=26.544756, Alt.=97.356506m. Speed=0.972000m/h.</desc>
<speed>0.270000</speed>
</trkpt>
<trkpt lat="55.874336" lon="26.544767">
<ele>97.751038</ele>
<time>2010-07-17T07:18:07Z</time>
<desc>lat.=55.874336, lon.=26.544767, Alt.=97.751038m. Speed=0.504000m/h.</desc>
<speed>0.140000</speed>
</trkpt>
<trkpt lat="55.874336" lon="26.544769">
<ele>97.815491</ele>
<time>2010-07-17T07:18:08Z</time>
<desc>lat.=55.874336, lon.=26.544769, Alt.=97.815491m. Speed=0.468000m/h.</desc>
<speed>0.130000</speed>
</trkpt>
<trkpt lat="55.874336" lon="26.544771">
<ele>97.879944</ele>
<time>2010-07-17T07:18:09Z</time>
<desc>lat.=55.874336, lon.=26.544771, Alt.=97.879944m. Speed=0.504000m/h.</desc>
<speed>0.140000</speed>
</trkpt>
<trkpt lat="55.874336" lon="26.544771">
<ele>97.905334</ele>
<time>2010-07-17T07:18:10Z</time>
<desc>lat.=55.874336, lon.=26.544771, Alt.=97.905334m. Speed=1.008000m/h.</desc>
<speed>0.280000</speed>
</trkpt>
<trkpt lat="55.874340" lon="26.544769">
<ele>97.936584</ele>
<time>2010-07-17T07:18:11Z</time>
<desc>lat.=55.874340, lon.=26.544769, Alt.=97.936584m. Speed=0.972000m/h.</desc>
<speed>0.270000</speed>
</trkpt>
<trkpt lat="55.874344" lon="26.544767">
<ele>97.958069</ele>
<time>2010-07-17T07:18:12Z</time>
<desc>lat.=55.874344, lon.=26.544767, Alt.=97.958069m. Speed=0.864000m/h.</desc>
<speed>0.240000</speed>
</trkpt>
<trkpt lat="55.874348" lon="26.544765">
<ele>97.977600</ele>
<time>2010-07-17T07:18:13Z</time>
<desc>lat.=55.874348, lon.=26.544765, Alt.=97.977600m. Speed=0.792000m/h.</desc>
<speed>0.220000</speed>
</trkpt>
<trkpt lat="55.874348" lon="26.544762">
<ele>97.997131</ele>
<time>2010-07-17T07:18:14Z</time>
<desc>lat.=55.874348, lon.=26.544762, Alt.=97.997131m. Speed=0.756000m/h.</desc>
<speed>0.210000</speed>
</trkpt>
<trkpt lat="55.874348" lon="26.544760">
<ele>98.012756</ele>
<time>2010-07-17T07:18:15Z</time>
<desc>lat.=55.874348, lon.=26.544760, Alt.=98.012756m. Speed=0.756000m/h.</desc>
<speed>0.210000</speed>
</trkpt>
<trkpt lat="55.874348" lon="26.544758">
<ele>98.022522</ele>
<time>2010-07-17T07:18:16Z</time>
<desc>lat.=55.874348, lon.=26.544758, Alt.=98.022522m. Speed=0.828000m/h.</desc>
<speed>0.230000</speed>
</trkpt>
<trkpt lat="55.874348" lon="26.544754">
<ele>98.034241</ele>
<time>2010-07-17T07:18:17Z</time>
<desc>lat.=55.874348, lon.=26.544754, Alt.=98.034241m. Speed=1.044000m/h.</desc>
<speed>0.290000</speed>
</trkpt>
<trkpt lat="55.874348" lon="26.544748">
<ele>98.044006</ele>
<time>2010-07-17T07:18:18Z</time>
<desc>lat.=55.874348, lon.=26.544748, Alt.=98.044006m. Speed=0.828000m/h.</desc>
<speed>0.230000</speed>
</trkpt>
<trkpt lat="55.874348" lon="26.544746">
<ele>98.049866</ele>
<time>2010-07-17T07:18:19Z</time>
<desc>lat.=55.874348, lon.=26.544746, Alt.=98.049866m. Speed=0.864000m/h.</desc>
<speed>0.240000</speed>
</trkpt>
<trkpt lat="55.874348" lon="26.544743">
<ele>98.057678</ele>
<time>2010-07-17T07:18:20Z</time>
<desc>lat.=55.874348, lon.=26.544743, Alt.=98.057678m. Speed=0.864000m/h.</desc>
<speed>0.240000</speed>
</trkpt>
<trkpt lat="55.874348" lon="26.544739">
<ele>98.065491</ele>
<time>2010-07-17T07:18:21Z</time>
<desc>lat.=55.874348, lon.=26.544739, Alt.=98.065491m. Speed=0.432000m/h.</desc>
<speed>0.120000</speed>
</trkpt>
<trkpt lat="55.874348" lon="26.544737">
<ele>98.069397</ele>
<time>2010-07-17T07:18:22Z</time>
<desc>lat.=55.874348, lon.=26.544737, Alt.=98.069397m. Speed=0.684000m/h.</desc>
<speed>0.190000</speed>
</trkpt>
<trkpt lat="55.874344" lon="26.544733">
<ele>98.071350</ele>
<time>2010-07-17T07:18:23Z</time>
<desc>lat.=55.874344, lon.=26.544733, Alt.=98.071350m. Speed=0.576000m/h.</desc>
<speed>0.160000</speed>
</trkpt>
<trkpt lat="55.874344" lon="26.544731">
<ele>98.086975</ele>
<time>2010-07-17T07:18:24Z</time>
<desc>lat.=55.874344, lon.=26.544731, Alt.=98.086975m. Speed=0.900000m/h.</desc>
<speed>0.250000</speed>
</trkpt>
<trkpt lat="55.874344" lon="26.544727">
<ele>98.100647</ele>
<time>2010-07-17T07:18:25Z</time>
<desc>lat.=55.874344, lon.=26.544727, Alt.=98.100647m. Speed=1.116000m/h.</desc>
<speed>0.310000</speed>
</trkpt>
<trkpt lat="55.874344" lon="26.544724">
<ele>98.116272</ele>
<time>2010-07-17T07:18:26Z</time>
<desc>lat.=55.874344, lon.=26.544724, Alt.=98.116272m. Speed=0.900000m/h.</desc>
<speed>0.250000</speed>
</trkpt>
<trkpt lat="55.874344" lon="26.544720">
<ele>98.147522</ele>
<time>2010-07-17T07:18:27Z</time>
<desc>lat.=55.874344, lon.=26.544720, Alt.=98.147522m. Speed=0.576000m/h.</desc>
<speed>0.160000</speed>
</trkpt>
<trkpt lat="55.874344" lon="26.544720">
<ele>98.217834</ele>
<time>2010-07-17T07:18:28Z</time>
<desc>lat.=55.874344, lon.=26.544720, Alt.=98.217834m. Speed=0.504000m/h.</desc>
<speed>0.140000</speed>
</trkpt>
<trkpt lat="55.874340" lon="26.544718">
<ele>98.260803</ele>
<time>2010-07-17T07:18:29Z</time>
<desc>lat.=55.874340, lon.=26.544718, Alt.=98.260803m. Speed=0.324000m/h.</desc>
<speed>0.090000</speed>
</trkpt>
<trkpt lat="55.874340" lon="26.544718">
<ele>98.292053</ele>
<time>2010-07-17T07:18:30Z</time>
<desc>lat.=55.874340, lon.=26.544718, Alt.=98.292053m. Speed=0.036000m/h.</desc>
<speed>0.010000</speed>
</trkpt>
<trkpt lat="55.874340" lon="26.544716">
<ele>98.323303</ele>
<time>2010-07-17T07:18:31Z</time>
<desc>lat.=55.874340, lon.=26.544716, Alt.=98.323303m. Speed=0.540000m/h.</desc>
<speed>0.150000</speed>
</trkpt>
<trkpt lat="55.874340" lon="26.544720">
<ele>98.383850</ele>
<time>2010-07-17T07:18:32Z</time>
<desc>lat.=55.874340, lon.=26.544720, Alt.=98.383850m. Speed=0.648000m/h.</desc>
<speed>0.180000</speed>
</trkpt>
<trkpt lat="55.874340" lon="26.544724">
<ele>98.454163</ele>
<time>2010-07-17T07:18:33Z</time>
<desc>lat.=55.874340, lon.=26.544724, Alt.=98.454163m. Speed=0.900000m/h.</desc>
<speed>0.250000</speed>
</trkpt>
<trkpt lat="55.874340" lon="26.544729">
<ele>98.497131</ele>
<time>2010-07-17T07:18:34Z</time>
<desc>lat.=55.874340, lon.=26.544729, Alt.=98.497131m. Speed=0.720000m/h.</desc>
<speed>0.200000</speed>
</trkpt>
<trkpt lat="55.874340" lon="26.544733">
<ele>98.518616</ele>
<time>2010-07-17T07:18:35Z</time>
<desc>lat.=55.874340, lon.=26.544733, Alt.=98.518616m. Speed=0.792000m/h.</desc>
<speed>0.220000</speed>
</trkpt>
<trkpt lat="55.874340" lon="26.544737">
<ele>98.534241</ele>
<time>2010-07-17T07:18:36Z</time>
<desc>lat.=55.874340, lon.=26.544737, Alt.=98.534241m. Speed=1.008000m/h.</desc>
<speed>0.280000</speed>
</trkpt>
<trkpt lat="55.874340" lon="26.544741">
<ele>98.542053</ele>
<time>2010-07-17T07:18:37Z</time>
<desc>lat.=55.874340, lon.=26.544741, Alt.=98.542053m. Speed=0.828000m/h.</desc>
<speed>0.230000</speed>
</trkpt>
<trkpt lat="55.874340" lon="26.544744">
<ele>98.575256</ele>
<time>2010-07-17T07:18:38Z</time>
<desc>lat.=55.874340, lon.=26.544744, Alt.=98.575256m. Speed=1.008000m/h.</desc>
<speed>0.280000</speed>
</trkpt>
<trkpt lat="55.874340" lon="26.544750">
<ele>98.612366</ele>
<time>2010-07-17T07:18:39Z</time>
<desc>lat.=55.874340, lon.=26.544750, Alt.=98.612366m. Speed=0.792000m/h.</desc>
<speed>0.220000</speed>
</trkpt>
<trkpt lat="55.874340" lon="26.544754">
<ele>98.631897</ele>
<time>2010-07-17T07:18:40Z</time>
<desc>lat.=55.874340, lon.=26.544754, Alt.=98.631897m. Speed=0.684000m/h.</desc>
<speed>0.190000</speed>
</trkpt>
<trkpt lat="55.874340" lon="26.544758">
<ele>98.665100</ele>
<time>2010-07-17T07:18:41Z</time>
<desc>lat.=55.874340, lon.=26.544758, Alt.=98.665100m. Speed=0.936000m/h.</desc>
<speed>0.260000</speed>
</trkpt>
<trkpt lat="55.874340" lon="26.544764">
<ele>98.680725</ele>
<time>2010-07-17T07:18:42Z</time>
<desc>lat.=55.874340, lon.=26.544764, Alt.=98.680725m. Speed=0.972000m/h.</desc>
<speed>0.270000</speed>
</trkpt>
<trkpt lat="55.874340" lon="26.544767">
<ele>98.686584</ele>
<time>2010-07-17T07:18:43Z</time>
<desc>lat.=55.874340, lon.=26.544767, Alt.=98.686584m. Speed=0.972000m/h.</desc>
<speed>0.270000</speed>
</trkpt>
<trkpt lat="55.874340" lon="26.544771">
<ele>98.694397</ele>
<time>2010-07-17T07:18:44Z</time>
<desc>lat.=55.874340, lon.=26.544771, Alt.=98.694397m. Speed=1.080000m/h.</desc>
<speed>0.300000</speed>
</trkpt>
<trkpt lat="55.874336" lon="26.544777">
<ele>98.696350</ele>
<time>2010-07-17T07:18:45Z</time>
<desc>lat.=55.874336, lon.=26.544777, Alt.=98.696350m. Speed=0.684000m/h.</desc>
<speed>0.190000</speed>
</trkpt>
<trkpt lat="55.874336" lon="26.544781">
<ele>98.694397</ele>
<time>2010-07-17T07:18:46Z</time>
<desc>lat.=55.874336, lon.=26.544781, Alt.=98.694397m. Speed=0.792000m/h.</desc>
<speed>0.220000</speed>
</trkpt>
<trkpt lat="55.874340" lon="26.544785">
<ele>98.688538</ele>
<time>2010-07-17T07:18:47Z</time>
<desc>lat.=55.874340, lon.=26.544785, Alt.=98.688538m. Speed=0.648000m/h.</desc>
<speed>0.180000</speed>
</trkpt>
<trkpt lat="55.874336" lon="26.544788">
<ele>98.692444</ele>
<time>2010-07-17T07:18:48Z</time>
<desc>lat.=55.874336, lon.=26.544788, Alt.=98.692444m. Speed=0.576000m/h.</desc>
<speed>0.160000</speed>
</trkpt>
<trkpt lat="55.874336" lon="26.544790">
<ele>98.710022</ele>
<time>2010-07-17T07:18:49Z</time>
<desc>lat.=55.874336, lon.=26.544790, Alt.=98.710022m. Speed=0.864000m/h.</desc>
<speed>0.240000</speed>
</trkpt>
<trkpt lat="55.874336" lon="26.544794">
<ele>98.725647</ele>
<time>2010-07-17T07:18:50Z</time>
<desc>lat.=55.874336, lon.=26.544794, Alt.=98.725647m. Speed=0.972000m/h.</desc>
<speed>0.270000</speed>
</trkpt>
<trkpt lat="55.874336" lon="26.544800">
<ele>98.739319</ele>
<time>2010-07-17T07:18:51Z</time>
<desc>lat.=55.874336, lon.=26.544800, Alt.=98.739319m. Speed=0.036000m/h.</desc>
<speed>0.010000</speed>
</trkpt>
<trkpt lat="55.874336" lon="26.544800">
<ele>98.727600</ele>
<time>2010-07-17T07:18:52Z</time>
<desc>lat.=55.874336, lon.=26.544800, Alt.=98.727600m. Speed=0.288000m/h.</desc>
<speed>0.080000</speed>
</trkpt>
<trkpt lat="55.874336" lon="26.544802">
<ele>98.721741</ele>
<time>2010-07-17T07:18:53Z</time>
<desc>lat.=55.874336, lon.=26.544802, Alt.=98.721741m. Speed=0.432000m/h.</desc>
<speed>0.120000</speed>
</trkpt>
<trkpt lat="55.874336" lon="26.544804">
<ele>98.702209</ele>
<time>2010-07-17T07:18:54Z</time>
<desc>lat.=55.874336, lon.=26.544804, Alt.=98.702209m. Speed=0.468000m/h.</desc>
<speed>0.130000</speed>
</trkpt>
<trkpt lat="55.874336" lon="26.544806">
<ele>98.686584</ele>
<time>2010-07-17T07:18:55Z</time>
<desc>lat.=55.874336, lon.=26.544806, Alt.=98.686584m. Speed=0.792000m/h.</desc>
<speed>0.220000</speed>
</trkpt>
<trkpt lat="55.874336" lon="26.544809">
<ele>98.663147</ele>
<time>2010-07-17T07:18:56Z</time>
<desc>lat.=55.874336, lon.=26.544809, Alt.=98.663147m. Speed=0.756000m/h.</desc>
<speed>0.210000</speed>
</trkpt>
<trkpt lat="55.874336" lon="26.544813">
<ele>98.633850</ele>
<time>2010-07-17T07:18:57Z</time>
<desc>lat.=55.874336, lon.=26.544813, Alt.=98.633850m. Speed=0.684000m/h.</desc>
<speed>0.190000</speed>
</trkpt>
<trkpt lat="55.874340" lon="26.544817">
<ele>98.598694</ele>
<time>2010-07-17T07:18:58Z</time>
<desc>lat.=55.874340, lon.=26.544817, Alt.=98.598694m. Speed=0.540000m/h.</desc>
<speed>0.150000</speed>
</trkpt>
<trkpt lat="55.874355" lon="26.544811">
<ele>98.651428</ele>
<time>2010-07-17T07:18:59Z</time>
<desc>lat.=55.874355, lon.=26.544811, Alt.=98.651428m. Speed=0.072000m/h.</desc>
<speed>0.020000</speed>
</trkpt>
<trkpt lat="55.874355" lon="26.544811">
<ele>98.600647</ele>
<time>2010-07-17T07:19:00Z</time>
<desc>lat.=55.874355, lon.=26.544811, Alt.=98.600647m. Speed=0.252000m/h.</desc>
<speed>0.070000</speed>
</trkpt>
<trkpt lat="55.874355" lon="26.544811">
<ele>98.534241</ele>
<time>2010-07-17T07:19:01Z</time>
<desc>lat.=55.874355, lon.=26.544811, Alt.=98.534241m. Speed=0.180000m/h.</desc>
<speed>0.050000</speed>
</trkpt>
<trkpt lat="55.874355" lon="26.544811">
<ele>98.483459</ele>
<time>2010-07-17T07:19:02Z</time>
<desc>lat.=55.874355, lon.=26.544811, Alt.=98.483459m. Speed=0.108000m/h.</desc>
<speed>0.030000</speed>
</trkpt>
<trkpt lat="55.874355" lon="26.544813">
<ele>98.444397</ele>
<time>2010-07-17T07:19:03Z</time>
<desc>lat.=55.874355, lon.=26.544813, Alt.=98.444397m. Speed=0.144000m/h.</desc>
<speed>0.040000</speed>
</trkpt>
<trkpt lat="55.874355" lon="26.544811">
<ele>98.403381</ele>
<time>2010-07-17T07:19:04Z</time>
<desc>lat.=55.874355, lon.=26.544811, Alt.=98.403381m. Speed=0.252000m/h.</desc>
<speed>0.070000</speed>
</trkpt>
<trkpt lat="55.874355" lon="26.544811">
<ele>98.356506</ele>
<time>2010-07-17T07:19:05Z</time>
<desc>lat.=55.874355, lon.=26.544811, Alt.=98.356506m. Speed=0.324000m/h.</desc>
<speed>0.090000</speed>
</trkpt>
<trkpt lat="55.874355" lon="26.544809">
<ele>98.321350</ele>
<time>2010-07-17T07:19:06Z</time>
<desc>lat.=55.874355, lon.=26.544809, Alt.=98.321350m. Speed=0.036000m/h.</desc>
<speed>0.010000</speed>
</trkpt>
<trkpt lat="55.874355" lon="26.544809">
<ele>98.292053</ele>
<time>2010-07-17T07:19:07Z</time>
<desc>lat.=55.874355, lon.=26.544809, Alt.=98.292053m. Speed=0.324000m/h.</desc>
<speed>0.090000</speed>
</trkpt>
<trkpt lat="55.874355" lon="26.544807">
<ele>98.247131</ele>
<time>2010-07-17T07:19:08Z</time>
<desc>lat.=55.874355, lon.=26.544807, Alt.=98.247131m. Speed=0.180000m/h.</desc>
<speed>0.050000</speed>
</trkpt>
<trkpt lat="55.874355" lon="26.544807">
<ele>98.217834</ele>
<time>2010-07-17T07:19:09Z</time>
<desc>lat.=55.874355, lon.=26.544807, Alt.=98.217834m. Speed=0.108000m/h.</desc>
<speed>0.030000</speed>
</trkpt>
<trkpt lat="55.874355" lon="26.544807">
<ele>98.180725</ele>
<time>2010-07-17T07:19:10Z</time>
<desc>lat.=55.874355, lon.=26.544807, Alt.=98.180725m. Speed=0.180000m/h.</desc>
<speed>0.050000</speed>
</trkpt>
<trkpt lat="55.874355" lon="26.544807">
<ele>98.172913</ele>
<time>2010-07-17T07:19:11Z</time>
<desc>lat.=55.874355, lon.=26.544807, Alt.=98.172913m. Speed=0.180000m/h.</desc>
<speed>0.050000</speed>
</trkpt>
<trkpt lat="55.874355" lon="26.544806">
<ele>98.167053</ele>
<time>2010-07-17T07:19:12Z</time>
<desc>lat.=55.874355, lon.=26.544806, Alt.=98.167053m. Speed=0.000000m/h.</desc>
<speed>0.000000</speed>
</trkpt>
<trkpt lat="55.874355" lon="26.544806">
<ele>98.163147</ele>
<time>2010-07-17T07:19:13Z</time>
<desc>lat.=55.874355, lon.=26.544806, Alt.=98.163147m. Speed=0.036000m/h.</desc>
<speed>0.010000</speed>
</trkpt>
<trkpt lat="55.874355" lon="26.544806">
<ele>98.159241</ele>
<time>2010-07-17T07:19:14Z</time>
<desc>lat.=55.874355, lon.=26.544806, Alt.=98.159241m. Speed=0.144000m/h.</desc>
<speed>0.040000</speed>
</trkpt>
<trkpt lat="55.874355" lon="26.544806">
<ele>98.151428</ele>
<time>2010-07-17T07:19:15Z</time>
<desc>lat.=55.874355, lon.=26.544806, Alt.=98.151428m. Speed=0.000000m/h.</desc>
<speed>0.000000</speed>
</trkpt>
<trkpt lat="55.874355" lon="26.544806">
<ele>98.149475</ele>
<time>2010-07-17T07:19:16Z</time>
<desc>lat.=55.874355, lon.=26.544806, Alt.=98.149475m. Speed=0.036000m/h.</desc>
<speed>0.010000</speed>
</trkpt>
<trkpt lat="55.874355" lon="26.544806">
<ele>98.143616</ele>
<time>2010-07-17T07:19:17Z</time>
<desc>lat.=55.874355, lon.=26.544806, Alt.=98.143616m. Speed=0.036000m/h.</desc>
<speed>0.010000</speed>
</trkpt>
<trkpt lat="55.874355" lon="26.544806">
<ele>98.141663</ele>
<time>2010-07-17T07:19:18Z</time>
<desc>lat.=55.874355, lon.=26.544806, Alt.=98.141663m. Speed=0.072000m/h.</desc>
<speed>0.020000</speed>
</trkpt>
<trkpt lat="55.874355" lon="26.544806">
<ele>98.137756</ele>
<time>2010-07-17T07:19:19Z</time>
<desc>lat.=55.874355, lon.=26.544806, Alt.=98.137756m. Speed=0.036000m/h.</desc>
<speed>0.010000</speed>
</trkpt>
<trkpt lat="55.874355" lon="26.544806">
<ele>98.133850</ele>
<time>2010-07-17T07:19:20Z</time>
<desc>lat.=55.874355, lon.=26.544806, Alt.=98.133850m. Speed=0.072000m/h.</desc>
<speed>0.020000</speed>
</trkpt>
<trkpt lat="55.874359" lon="26.544806">
<ele>98.126038</ele>
<time>2010-07-17T07:19:21Z</time>
<desc>lat.=55.874359, lon.=26.544806, Alt.=98.126038m. Speed=0.180000m/h.</desc>
<speed>0.050000</speed>
</trkpt>
<trkpt lat="55.874359" lon="26.544806">
<ele>98.127991</ele>
<time>2010-07-17T07:19:22Z</time>
<desc>lat.=55.874359, lon.=26.544806, Alt.=98.127991m. Speed=0.180000m/h.</desc>
<speed>0.050000</speed>
</trkpt>
<trkpt lat="55.874359" lon="26.544806">
<ele>98.122131</ele>
<time>2010-07-17T07:19:23Z</time>
<desc>lat.=55.874359, lon.=26.544806, Alt.=98.122131m. Speed=0.036000m/h.</desc>
<speed>0.010000</speed>
</trkpt>
<trkpt lat="55.874359" lon="26.544806">
<ele>98.116272</ele>
<time>2010-07-17T07:19:24Z</time>
<desc>lat.=55.874359, lon.=26.544806, Alt.=98.116272m. Speed=0.108000m/h.</desc>
<speed>0.030000</speed>
</trkpt>
<trkpt lat="55.874359" lon="26.544807">
<ele>98.110413</ele>
<time>2010-07-17T07:19:25Z</time>
<desc>lat.=55.874359, lon.=26.544807, Alt.=98.110413m. Speed=0.036000m/h.</desc>
<speed>0.010000</speed>
</trkpt>
<trkpt lat="55.874359" lon="26.544806">
<ele>98.112366</ele>
<time>2010-07-17T07:19:26Z</time>
<desc>lat.=55.874359, lon.=26.544806, Alt.=98.112366m. Speed=0.108000m/h.</desc>
<speed>0.030000</speed>
</trkpt>
<trkpt lat="55.874359" lon="26.544806">
<ele>98.108459</ele>
<time>2010-07-17T07:19:27Z</time>
<desc>lat.=55.874359, lon.=26.544806, Alt.=98.108459m. Speed=0.072000m/h.</desc>
<speed>0.020000</speed>
</trkpt>
<trkpt lat="55.874359" lon="26.544806">
<ele>98.106506</ele>
<time>2010-07-17T07:19:28Z</time>
<desc>lat.=55.874359, lon.=26.544806, Alt.=98.106506m. Speed=0.144000m/h.</desc>
<speed>0.040000</speed>
</trkpt>
<trkpt lat="55.874359" lon="26.544806">
<ele>98.104553</ele>
<time>2010-07-17T07:19:29Z</time>
<desc>lat.=55.874359, lon.=26.544806, Alt.=98.104553m. Speed=0.180000m/h.</desc>
<speed>0.050000</speed>
</trkpt>
<trkpt lat="55.874359" lon="26.544804">
<ele>98.108459</ele>
<time>2010-07-17T07:19:30Z</time>
<desc>lat.=55.874359, lon.=26.544804, Alt.=98.108459m. Speed=0.252000m/h.</desc>
<speed>0.070000</speed>
</trkpt>
<trkpt lat="55.874359" lon="26.544804">
<ele>98.106506</ele>
<time>2010-07-17T07:19:31Z</time>
<desc>lat.=55.874359, lon.=26.544804, Alt.=98.106506m. Speed=0.252000m/h.</desc>
<speed>0.070000</speed>
</trkpt>
<trkpt lat="55.874359" lon="26.544802">
<ele>98.110413</ele>
<time>2010-07-17T07:19:32Z</time>
<desc>lat.=55.874359, lon.=26.544802, Alt.=98.110413m. Speed=0.252000m/h.</desc>
<speed>0.070000</speed>
</trkpt>
<trkpt lat="55.874359" lon="26.544802">
<ele>98.108459</ele>
<time>2010-07-17T07:19:33Z</time>
<desc>lat.=55.874359, lon.=26.544802, Alt.=98.108459m. Speed=0.252000m/h.</desc>
<speed>0.070000</speed>
</trkpt>
<trkpt lat="55.874359" lon="26.544800">
<ele>98.114319</ele>
<time>2010-07-17T07:19:34Z</time>
<desc>lat.=55.874359, lon.=26.544800, Alt.=98.114319m. Speed=0.288000m/h.</desc>
<speed>0.080000</speed>
</trkpt>
<trkpt lat="55.874359" lon="26.544798">
<ele>98.116272</ele>
<time>2010-07-17T07:19:35Z</time>
<desc>lat.=55.874359, lon.=26.544798, Alt.=98.116272m. Speed=0.324000m/h.</desc>
<speed>0.090000</speed>
</trkpt>
<trkpt lat="55.874359" lon="26.544798">
<ele>98.124084</ele>
<time>2010-07-17T07:19:36Z</time>
<desc>lat.=55.874359, lon.=26.544798, Alt.=98.124084m. Speed=0.288000m/h.</desc>
<speed>0.080000</speed>
</trkpt>
<trkpt lat="55.874359" lon="26.544796">
<ele>98.129944</ele>
<time>2010-07-17T07:19:37Z</time>
<desc>lat.=55.874359, lon.=26.544796, Alt.=98.129944m. Speed=0.288000m/h.</desc>
<speed>0.080000</speed>
</trkpt>
<trkpt lat="55.874359" lon="26.544794">
<ele>98.141663</ele>
<time>2010-07-17T07:19:38Z</time>
<desc>lat.=55.874359, lon.=26.544794, Alt.=98.141663m. Speed=0.324000m/h.</desc>
<speed>0.090000</speed>
</trkpt>
<trkpt lat="55.874355" lon="26.544794">
<ele>98.149475</ele>
<time>2010-07-17T07:19:39Z</time>
<desc>lat.=55.874355, lon.=26.544794, Alt.=98.149475m. Speed=0.396000m/h.</desc>
<speed>0.110000</speed>
</trkpt>
<trkpt lat="55.874355" lon="26.544792">
<ele>98.163147</ele>
<time>2010-07-17T07:19:40Z</time>
<desc>lat.=55.874355, lon.=26.544792, Alt.=98.163147m. Speed=0.396000m/h.</desc>
<speed>0.110000</speed>
</trkpt>
<trkpt lat="55.874355" lon="26.544790">
<ele>98.172913</ele>
<time>2010-07-17T07:19:41Z</time>
<desc>lat.=55.874355, lon.=26.544790, Alt.=98.172913m. Speed=0.432000m/h.</desc>
<speed>0.120000</speed>
</trkpt>
<trkpt lat="55.874355" lon="26.544788">
<ele>98.190491</ele>
<time>2010-07-17T07:19:42Z</time>
<desc>lat.=55.874355, lon.=26.544788, Alt.=98.190491m. Speed=0.360000m/h.</desc>
<speed>0.100000</speed>
</trkpt>
<trkpt lat="55.874355" lon="26.544786">
<ele>98.202209</ele>
<time>2010-07-17T07:19:43Z</time>
<desc>lat.=55.874355, lon.=26.544786, Alt.=98.202209m. Speed=0.432000m/h.</desc>
<speed>0.120000</speed>
</trkpt>
<trkpt lat="55.874355" lon="26.544785">
<ele>98.217834</ele>
<time>2010-07-17T07:19:44Z</time>
<desc>lat.=55.874355, lon.=26.544785, Alt.=98.217834m. Speed=0.360000m/h.</desc>
<speed>0.100000</speed>
</trkpt>
<trkpt lat="55.874355" lon="26.544783">
<ele>98.231506</ele>
<time>2010-07-17T07:19:45Z</time>
<desc>lat.=55.874355, lon.=26.544783, Alt.=98.231506m. Speed=0.288000m/h.</desc>
<speed>0.080000</speed>
</trkpt>
<trkpt lat="55.874355" lon="26.544783">
<ele>98.251038</ele>
<time>2010-07-17T07:19:46Z</time>
<desc>lat.=55.874355, lon.=26.544783, Alt.=98.251038m. Speed=0.288000m/h.</desc>
<speed>0.080000</speed>
</trkpt>
<trkpt lat="55.874355" lon="26.544781">
<ele>98.266663</ele>
<time>2010-07-17T07:19:47Z</time>
<desc>lat.=55.874355, lon.=26.544781, Alt.=98.266663m. Speed=0.360000m/h.</desc>
<speed>0.100000</speed>
</trkpt>
<trkpt lat="55.874355" lon="26.544779">
<ele>98.288147</ele>
<time>2010-07-17T07:19:48Z</time>
<desc>lat.=55.874355, lon.=26.544779, Alt.=98.288147m. Speed=0.252000m/h.</desc>
<speed>0.070000</speed>
</trkpt>
<trkpt lat="55.874355" lon="26.544779">
<ele>98.303772</ele>
<time>2010-07-17T07:19:49Z</time>
<desc>lat.=55.874355, lon.=26.544779, Alt.=98.303772m. Speed=0.252000m/h.</desc>
<speed>0.070000</speed>
</trkpt>
<trkpt lat="55.874355" lon="26.544779">
<ele>98.315491</ele>
<time>2010-07-17T07:19:50Z</time>
<desc>lat.=55.874355, lon.=26.544779, Alt.=98.315491m. Speed=0.252000m/h.</desc>
<speed>0.070000</speed>
</trkpt>
<trkpt lat="55.874355" lon="26.544777">
<ele>98.323303</ele>
<time>2010-07-17T07:19:51Z</time>
<desc>lat.=55.874355, lon.=26.544777, Alt.=98.323303m. Speed=0.144000m/h.</desc>
<speed>0.040000</speed>
</trkpt>
<trkpt lat="55.874355" lon="26.544777">
<ele>98.327209</ele>
<time>2010-07-17T07:19:52Z</time>
<desc>lat.=55.874355, lon.=26.544777, Alt.=98.327209m. Speed=0.108000m/h.</desc>
<speed>0.030000</speed>
</trkpt>
<trkpt lat="55.874355" lon="26.544777">
<ele>98.329163</ele>
<time>2010-07-17T07:19:53Z</time>
<desc>lat.=55.874355, lon.=26.544777, Alt.=98.329163m. Speed=0.036000m/h.</desc>
<speed>0.010000</speed>
</trkpt>
<trkpt lat="55.874355" lon="26.544777">
<ele>98.325256</ele>
<time>2010-07-17T07:19:54Z</time>
<desc>lat.=55.874355, lon.=26.544777, Alt.=98.325256m. Speed=0.252000m/h.</desc>
<speed>0.070000</speed>
</trkpt>
<trkpt lat="55.874355" lon="26.544777">
<ele>98.321350</ele>
<time>2010-07-17T07:19:55Z</time>
<desc>lat.=55.874355, lon.=26.544777, Alt.=98.321350m. Speed=0.180000m/h.</desc>
<speed>0.050000</speed>
</trkpt>
<trkpt lat="55.874355" lon="26.544777">
<ele>98.315491</ele>
<time>2010-07-17T07:19:56Z</time>
<desc>lat.=55.874355, lon.=26.544777, Alt.=98.315491m. Speed=0.072000m/h.</desc>
<speed>0.020000</speed>
</trkpt>
<trkpt lat="55.874355" lon="26.544777">
<ele>98.307678</ele>
<time>2010-07-17T07:19:57Z</time>
<desc>lat.=55.874355, lon.=26.544777, Alt.=98.307678m. Speed=0.072000m/h.</desc>
<speed>0.020000</speed>
</trkpt>
<trkpt lat="55.874355" lon="26.544777">
<ele>98.297913</ele>
<time>2010-07-17T07:19:58Z</time>
<desc>lat.=55.874355, lon.=26.544777, Alt.=98.297913m. Speed=0.108000m/h.</desc>
<speed>0.030000</speed>
</trkpt>
<trkpt lat="55.874355" lon="26.544777">
<ele>98.288147</ele>
<time>2010-07-17T07:19:59Z</time>
<desc>lat.=55.874355, lon.=26.544777, Alt.=98.288147m. Speed=0.072000m/h.</desc>
<speed>0.020000</speed>
</trkpt>
<trkpt lat="55.874355" lon="26.544777">
<ele>98.278381</ele>
<time>2010-07-17T07:20:00Z</time>
<desc>lat.=55.874355, lon.=26.544777, Alt.=98.278381m. Speed=0.072000m/h.</desc>
<speed>0.020000</speed>
</trkpt>
<trkpt lat="55.874355" lon="26.544775">
<ele>98.266663</ele>
<time>2010-07-17T07:20:01Z</time>
<desc>lat.=55.874355, lon.=26.544775, Alt.=98.266663m. Speed=0.216000m/h.</desc>
<speed>0.060000</speed>
</trkpt>
<trkpt lat="55.874355" lon="26.544775">
<ele>98.254944</ele>
<time>2010-07-17T07:20:02Z</time>
<desc>lat.=55.874355, lon.=26.544775, Alt.=98.254944m. Speed=0.144000m/h.</desc>
<speed>0.040000</speed>
</trkpt>
<trkpt lat="55.874355" lon="26.544775">
<ele>98.239319</ele>
<time>2010-07-17T07:20:03Z</time>
<desc>lat.=55.874355, lon.=26.544775, Alt.=98.239319m. Speed=0.108000m/h.</desc>
<speed>0.030000</speed>
</trkpt>
<trkpt lat="55.874355" lon="26.544775">
<ele>98.229553</ele>
<time>2010-07-17T07:20:04Z</time>
<desc>lat.=55.874355, lon.=26.544775, Alt.=98.229553m. Speed=0.180000m/h.</desc>
<speed>0.050000</speed>
</trkpt>
<trkpt lat="55.874355" lon="26.544773">
<ele>98.219788</ele>
<time>2010-07-17T07:20:05Z</time>
<desc>lat.=55.874355, lon.=26.544773, Alt.=98.219788m. Speed=0.180000m/h.</desc>
<speed>0.050000</speed>
</trkpt>
<trkpt lat="55.874355" lon="26.544773">
<ele>98.215881</ele>
<time>2010-07-17T07:20:06Z</time>
<desc>lat.=55.874355, lon.=26.544773, Alt.=98.215881m. Speed=0.144000m/h.</desc>
<speed>0.040000</speed>
</trkpt>
<trkpt lat="55.874355" lon="26.544771">
<ele>98.206116</ele>
<time>2010-07-17T07:20:07Z</time>
<desc>lat.=55.874355, lon.=26.544771, Alt.=98.206116m. Speed=0.252000m/h.</desc>
<speed>0.070000</speed>
</trkpt>
<trkpt lat="55.874355" lon="26.544771">
<ele>98.196350</ele>
<time>2010-07-17T07:20:08Z</time>
<desc>lat.=55.874355, lon.=26.544771, Alt.=98.196350m. Speed=0.252000m/h.</desc>
<speed>0.070000</speed>
</trkpt>
<trkpt lat="55.874355" lon="26.544769">
<ele>98.184631</ele>
<time>2010-07-17T07:20:09Z</time>
<desc>lat.=55.874355, lon.=26.544769, Alt.=98.184631m. Speed=0.216000m/h.</desc>
<speed>0.060000</speed>
</trkpt>
<trkpt lat="55.874352" lon="26.544769">
<ele>98.172913</ele>
<time>2010-07-17T07:20:10Z</time>
<desc>lat.=55.874352, lon.=26.544769, Alt.=98.172913m. Speed=0.288000m/h.</desc>
<speed>0.080000</speed>
</trkpt>
<trkpt lat="55.874352" lon="26.544767">
<ele>98.163147</ele>
<time>2010-07-17T07:20:11Z</time>
<desc>lat.=55.874352, lon.=26.544767, Alt.=98.163147m. Speed=0.216000m/h.</desc>
<speed>0.060000</speed>
</trkpt>
<trkpt lat="55.874352" lon="26.544765">
<ele>98.151428</ele>
<time>2010-07-17T07:20:12Z</time>
<desc>lat.=55.874352, lon.=26.544765, Alt.=98.151428m. Speed=0.216000m/h.</desc>
<speed>0.060000</speed>
</trkpt>
<trkpt lat="55.874352" lon="26.544765">
<ele>98.139709</ele>
<time>2010-07-17T07:20:13Z</time>
<desc>lat.=55.874352, lon.=26.544765, Alt.=98.139709m. Speed=0.216000m/h.</desc>
<speed>0.060000</speed>
</trkpt>
<trkpt lat="55.874352" lon="26.544764">
<ele>98.129944</ele>
<time>2010-07-17T07:20:14Z</time>
<desc>lat.=55.874352, lon.=26.544764, Alt.=98.129944m. Speed=0.216000m/h.</desc>
<speed>0.060000</speed>
</trkpt>
<trkpt lat="55.874352" lon="26.544764">
<ele>98.116272</ele>
<time>2010-07-17T07:20:15Z</time>
<desc>lat.=55.874352, lon.=26.544764, Alt.=98.116272m. Speed=0.216000m/h.</desc>
<speed>0.060000</speed>
</trkpt>
<trkpt lat="55.874352" lon="26.544762">
<ele>98.108459</ele>
<time>2010-07-17T07:20:16Z</time>
<desc>lat.=55.874352, lon.=26.544762, Alt.=98.108459m. Speed=0.216000m/h.</desc>
<speed>0.060000</speed>
</trkpt>
<trkpt lat="55.874352" lon="26.544762">
<ele>98.098694</ele>
<time>2010-07-17T07:20:17Z</time>
<desc>lat.=55.874352, lon.=26.544762, Alt.=98.098694m. Speed=0.180000m/h.</desc>
<speed>0.050000</speed>
</trkpt>
<trkpt lat="55.874352" lon="26.544760">
<ele>98.094788</ele>
<time>2010-07-17T07:20:18Z</time>
<desc>lat.=55.874352, lon.=26.544760, Alt.=98.094788m. Speed=0.216000m/h.</desc>
<speed>0.060000</speed>
</trkpt>
<trkpt lat="55.874352" lon="26.544760">
<ele>98.086975</ele>
<time>2010-07-17T07:20:19Z</time>
<desc>lat.=55.874352, lon.=26.544760, Alt.=98.086975m. Speed=0.144000m/h.</desc>
<speed>0.040000</speed>
</trkpt>
<trkpt lat="55.874352" lon="26.544758">
<ele>98.079163</ele>
<time>2010-07-17T07:20:20Z</time>
<desc>lat.=55.874352, lon.=26.544758, Alt.=98.079163m. Speed=0.288000m/h.</desc>
<speed>0.080000</speed>
</trkpt>
<trkpt lat="55.874352" lon="26.544758">
<ele>98.067444</ele>
<time>2010-07-17T07:20:21Z</time>
<desc>lat.=55.874352, lon.=26.544758, Alt.=98.067444m. Speed=0.180000m/h.</desc>
<speed>0.050000</speed>
</trkpt>
<trkpt lat="55.874352" lon="26.544758">
<ele>98.051819</ele>
<time>2010-07-17T07:20:22Z</time>
<desc>lat.=55.874352, lon.=26.544758, Alt.=98.051819m. Speed=0.180000m/h.</desc>
<speed>0.050000</speed>
</trkpt>
<trkpt lat="55.874352" lon="26.544758">
<ele>98.036194</ele>
<time>2010-07-17T07:20:23Z</time>
<desc>lat.=55.874352, lon.=26.544758, Alt.=98.036194m. Speed=0.180000m/h.</desc>
<speed>0.050000</speed>
</trkpt>
<trkpt lat="55.874352" lon="26.544758">
<ele>98.014709</ele>
<time>2010-07-17T07:20:24Z</time>
<desc>lat.=55.874352, lon.=26.544758, Alt.=98.014709m. Speed=0.180000m/h.</desc>
<speed>0.050000</speed>
</trkpt>
<trkpt lat="55.874352" lon="26.544756">
<ele>97.991272</ele>
<time>2010-07-17T07:20:25Z</time>
<desc>lat.=55.874352, lon.=26.544756, Alt.=97.991272m. Speed=0.180000m/h.</desc>
<speed>0.050000</speed>
</trkpt>
<trkpt lat="55.874352" lon="26.544758">
<ele>97.981506</ele>
<time>2010-07-17T07:20:26Z</time>
<desc>lat.=55.874352, lon.=26.544758, Alt.=97.981506m. Speed=0.180000m/h.</desc>
<speed>0.050000</speed>
</trkpt>
<trkpt lat="55.874352" lon="26.544758">
<ele>97.965881</ele>
<time>2010-07-17T07:20:27Z</time>
<desc>lat.=55.874352, lon.=26.544758, Alt.=97.965881m. Speed=0.180000m/h.</desc>
<speed>0.050000</speed>
</trkpt>
<trkpt lat="55.874352" lon="26.544760">
<ele>97.954163</ele>
<time>2010-07-17T07:20:28Z</time>
<desc>lat.=55.874352, lon.=26.544760, Alt.=97.954163m. Speed=0.036000m/h.</desc>
<speed>0.010000</speed>
</trkpt>
<trkpt lat="55.874352" lon="26.544760">
<ele>97.952209</ele>
<time>2010-07-17T07:20:29Z</time>
<desc>lat.=55.874352, lon.=26.544760, Alt.=97.952209m. Speed=0.108000m/h.</desc>
<speed>0.030000</speed>
</trkpt>
<trkpt lat="55.874352" lon="26.544760">
<ele>97.942444</ele>
<time>2010-07-17T07:20:30Z</time>
<desc>lat.=55.874352, lon.=26.544760, Alt.=97.942444m. Speed=0.036000m/h.</desc>
<speed>0.010000</speed>
</trkpt>
<trkpt lat="55.874352" lon="26.544762">
<ele>97.932678</ele>
<time>2010-07-17T07:20:31Z</time>
<desc>lat.=55.874352, lon.=26.544762, Alt.=97.932678m. Speed=0.072000m/h.</desc>
<speed>0.020000</speed>
</trkpt>
<trkpt lat="55.874352" lon="26.544762">
<ele>97.920959</ele>
<time>2010-07-17T07:20:32Z</time>
<desc>lat.=55.874352, lon.=26.544762, Alt.=97.920959m. Speed=0.108000m/h.</desc>
<speed>0.030000</speed>
</trkpt>
<trkpt lat="55.874352" lon="26.544762">
<ele>97.920959</ele>
<time>2010-07-17T07:20:33Z</time>
<desc>lat.=55.874352, lon.=26.544762, Alt.=97.920959m. Speed=0.072000m/h.</desc>
<speed>0.020000</speed>
</trkpt>
<trkpt lat="55.874352" lon="26.544762">
<ele>97.919006</ele>
<time>2010-07-17T07:20:34Z</time>
<desc>lat.=55.874352, lon.=26.544762, Alt.=97.919006m. Speed=0.108000m/h.</desc>
<speed>0.030000</speed>
</trkpt>
<trkpt lat="55.874352" lon="26.544764">
<ele>97.915100</ele>
<time>2010-07-17T07:20:35Z</time>
<desc>lat.=55.874352, lon.=26.544764, Alt.=97.915100m. Speed=0.108000m/h.</desc>
<speed>0.030000</speed>
</trkpt>
<trkpt lat="55.874352" lon="26.544764">
<ele>97.911194</ele>
<time>2010-07-17T07:20:36Z</time>
<desc>lat.=55.874352, lon.=26.544764, Alt.=97.911194m. Speed=0.072000m/h.</desc>
<speed>0.020000</speed>
</trkpt>
<trkpt lat="55.874352" lon="26.544764">
<ele>97.909241</ele>
<time>2010-07-17T07:20:37Z</time>
<desc>lat.=55.874352, lon.=26.544764, Alt.=97.909241m. Speed=0.108000m/h.</desc>
<speed>0.030000</speed>
</trkpt>
<trkpt lat="55.874352" lon="26.544765">
<ele>97.905334</ele>
<time>2010-07-17T07:20:38Z</time>
<desc>lat.=55.874352, lon.=26.544765, Alt.=97.905334m. Speed=0.108000m/h.</desc>
<speed>0.030000</speed>
</trkpt>
<trkpt lat="55.874348" lon="26.544765">
<ele>97.905334</ele>
<time>2010-07-17T07:20:39Z</time>
<desc>lat.=55.874348, lon.=26.544765, Alt.=97.905334m. Speed=0.144000m/h.</desc>
<speed>0.040000</speed>
</trkpt>
<trkpt lat="55.874348" lon="26.544765">
<ele>97.903381</ele>
<time>2010-07-17T07:20:40Z</time>
<desc>lat.=55.874348, lon.=26.544765, Alt.=97.903381m. Speed=0.072000m/h.</desc>
<speed>0.020000</speed>
</trkpt>
<trkpt lat="55.874348" lon="26.544767">
<ele>97.907288</ele>
<time>2010-07-17T07:20:41Z</time>
<desc>lat.=55.874348, lon.=26.544767, Alt.=97.907288m. Speed=0.036000m/h.</desc>
<speed>0.010000</speed>
</trkpt>
<trkpt lat="55.874348" lon="26.544767">
<ele>97.913147</ele>
<time>2010-07-17T07:20:42Z</time>
<desc>lat.=55.874348, lon.=26.544767, Alt.=97.913147m. Speed=0.036000m/h.</desc>
<speed>0.010000</speed>
</trkpt>
<trkpt lat="55.874348" lon="26.544767">
<ele>97.917053</ele>
<time>2010-07-17T07:20:43Z</time>
<desc>lat.=55.874348, lon.=26.544767, Alt.=97.917053m. Speed=0.036000m/h.</desc>
<speed>0.010000</speed>
</trkpt>
<trkpt lat="55.874352" lon="26.544767">
<ele>97.920959</ele>
<time>2010-07-17T07:20:44Z</time>
<desc>lat.=55.874352, lon.=26.544767, Alt.=97.920959m. Speed=0.000000m/h.</desc>
<speed>0.000000</speed>
</trkpt>
<trkpt lat="55.874352" lon="26.544767">
<ele>97.926819</ele>
<time>2010-07-17T07:20:45Z</time>
<desc>lat.=55.874352, lon.=26.544767, Alt.=97.926819m. Speed=0.072000m/h.</desc>
<speed>0.020000</speed>
</trkpt>
<trkpt lat="55.874352" lon="26.544769">
<ele>97.928772</ele>
<time>2010-07-17T07:20:46Z</time>
<desc>lat.=55.874352, lon.=26.544769, Alt.=97.928772m. Speed=0.036000m/h.</desc>
<speed>0.010000</speed>
</trkpt>
<trkpt lat="55.874352" lon="26.544769">
<ele>97.930725</ele>
<time>2010-07-17T07:20:47Z</time>
<desc>lat.=55.874352, lon.=26.544769, Alt.=97.930725m. Speed=0.072000m/h.</desc>
<speed>0.020000</speed>
</trkpt>
<trkpt lat="55.874352" lon="26.544769">
<ele>97.936584</ele>
<time>2010-07-17T07:20:48Z</time>
<desc>lat.=55.874352, lon.=26.544769, Alt.=97.936584m. Speed=0.000000m/h.</desc>
<speed>0.000000</speed>
</trkpt>
<trkpt lat="55.874352" lon="26.544769">
<ele>97.942444</ele>
<time>2010-07-17T07:20:49Z</time>
<desc>lat.=55.874352, lon.=26.544769, Alt.=97.942444m. Speed=0.036000m/h.</desc>
<speed>0.010000</speed>
</trkpt>
<trkpt lat="55.874352" lon="26.544769">
<ele>97.950256</ele>
<time>2010-07-17T07:20:50Z</time>
<desc>lat.=55.874352, lon.=26.544769, Alt.=97.950256m. Speed=0.000000m/h.</desc>
<speed>0.000000</speed>
</trkpt>
<trkpt lat="55.874352" lon="26.544771">
<ele>97.956116</ele>
<time>2010-07-17T07:20:51Z</time>
<desc>lat.=55.874352, lon.=26.544771, Alt.=97.956116m. Speed=0.036000m/h.</desc>
<speed>0.010000</speed>
</trkpt>
<trkpt lat="55.874352" lon="26.544771">
<ele>97.952209</ele>
<time>2010-07-17T07:20:52Z</time>
<desc>lat.=55.874352, lon.=26.544771, Alt.=97.952209m. Speed=0.000000m/h.</desc>
<speed>0.000000</speed>
</trkpt>
<trkpt lat="55.874352" lon="26.544771">
<ele>97.944397</ele>
<time>2010-07-17T07:20:53Z</time>
<desc>lat.=55.874352, lon.=26.544771, Alt.=97.944397m. Speed=0.000000m/h.</desc>
<speed>0.000000</speed>
</trkpt>
<trkpt lat="55.874352" lon="26.544771">
<ele>97.940491</ele>
<time>2010-07-17T07:20:54Z</time>
<desc>lat.=55.874352, lon.=26.544771, Alt.=97.940491m. Speed=0.036000m/h.</desc>
<speed>0.010000</speed>
</trkpt>
<trkpt lat="55.874352" lon="26.544771">
<ele>97.934631</ele>
<time>2010-07-17T07:20:55Z</time>
<desc>lat.=55.874352, lon.=26.544771, Alt.=97.934631m. Speed=0.036000m/h.</desc>
<speed>0.010000</speed>
</trkpt>
<trkpt lat="55.874352" lon="26.544771">
<ele>97.928772</ele>
<time>2010-07-17T07:20:56Z</time>
<desc>lat.=55.874352, lon.=26.544771, Alt.=97.928772m. Speed=0.000000m/h.</desc>
<speed>0.000000</speed>
</trkpt>
<trkpt lat="55.874352" lon="26.544771">
<ele>97.922913</ele>
<time>2010-07-17T07:20:57Z</time>
<desc>lat.=55.874352, lon.=26.544771, Alt.=97.922913m. Speed=0.000000m/h.</desc>
<speed>0.000000</speed>
</trkpt>
<trkpt lat="55.874352" lon="26.544771">
<ele>97.917053</ele>
<time>2010-07-17T07:20:58Z</time>
<desc>lat.=55.874352, lon.=26.544771, Alt.=97.917053m. Speed=0.036000m/h.</desc>
<speed>0.010000</speed>
</trkpt>
<trkpt lat="55.874352" lon="26.544771">
<ele>97.911194</ele>
<time>2010-07-17T07:20:59Z</time>
<desc>lat.=55.874352, lon.=26.544771, Alt.=97.911194m. Speed=0.036000m/h.</desc>
<speed>0.010000</speed>
</trkpt>
<trkpt lat="55.874352" lon="26.544771">
<ele>97.913147</ele>
<time>2010-07-17T07:21:00Z</time>
<desc>lat.=55.874352, lon.=26.544771, Alt.=97.913147m. Speed=0.036000m/h.</desc>
<speed>0.010000</speed>
</trkpt>
<trkpt lat="55.874352" lon="26.544771">
<ele>97.907288</ele>
<time>2010-07-17T07:21:01Z</time>
<desc>lat.=55.874352, lon.=26.544771, Alt.=97.907288m. Speed=0.036000m/h.</desc>
<speed>0.010000</speed>
</trkpt>
<trkpt lat="55.874352" lon="26.544771">
<ele>97.911194</ele>
<time>2010-07-17T07:21:02Z</time>
<desc>lat.=55.874352, lon.=26.544771, Alt.=97.911194m. Speed=0.072000m/h.</desc>
<speed>0.020000</speed>
</trkpt>
<trkpt lat="55.874352" lon="26.544771">
<ele>97.907288</ele>
<time>2010-07-17T07:21:03Z</time>
<desc>lat.=55.874352, lon.=26.544771, Alt.=97.907288m. Speed=0.036000m/h.</desc>
<speed>0.010000</speed>
</trkpt>
<trkpt lat="55.874352" lon="26.544771">
<ele>97.915100</ele>
<time>2010-07-17T07:21:04Z</time>
<desc>lat.=55.874352, lon.=26.544771, Alt.=97.915100m. Speed=0.072000m/h.</desc>
<speed>0.020000</speed>
</trkpt>
<trkpt lat="55.874352" lon="26.544773">
<ele>97.915100</ele>
<time>2010-07-17T07:21:05Z</time>
<desc>lat.=55.874352, lon.=26.544773, Alt.=97.915100m. Speed=0.036000m/h.</desc>
<speed>0.010000</speed>
</trkpt>
<trkpt lat="55.874352" lon="26.544773">
<ele>97.913147</ele>
<time>2010-07-17T07:21:06Z</time>
<desc>lat.=55.874352, lon.=26.544773, Alt.=97.913147m. Speed=0.036000m/h.</desc>
<speed>0.010000</speed>
</trkpt>
<trkpt lat="55.874352" lon="26.544773">
<ele>97.913147</ele>
<time>2010-07-17T07:21:07Z</time>
<desc>lat.=55.874352, lon.=26.544773, Alt.=97.913147m. Speed=0.000000m/h.</desc>
<speed>0.000000</speed>
</trkpt>
<trkpt lat="55.874352" lon="26.544773">
<ele>97.915100</ele>
<time>2010-07-17T07:21:08Z</time>
<desc>lat.=55.874352, lon.=26.544773, Alt.=97.915100m. Speed=0.036000m/h.</desc>
<speed>0.010000</speed>
</trkpt>
<trkpt lat="55.874352" lon="26.544773">
<ele>97.915100</ele>
<time>2010-07-17T07:21:09Z</time>
<desc>lat.=55.874352, lon.=26.544773, Alt.=97.915100m. Speed=0.000000m/h.</desc>
<speed>0.000000</speed>
</trkpt>
<trkpt lat="55.874352" lon="26.544773">
<ele>97.915100</ele>
<time>2010-07-17T07:21:10Z</time>
<desc>lat.=55.874352, lon.=26.544773, Alt.=97.915100m. Speed=0.072000m/h.</desc>
<speed>0.020000</speed>
</trkpt>
<trkpt lat="55.874352" lon="26.544773">
<ele>97.917053</ele>
<time>2010-07-17T07:21:11Z</time>
<desc>lat.=55.874352, lon.=26.544773, Alt.=97.917053m. Speed=0.036000m/h.</desc>
<speed>0.010000</speed>
</trkpt>
<trkpt lat="55.874352" lon="26.544773">
<ele>97.917053</ele>
<time>2010-07-17T07:21:12Z</time>
<desc>lat.=55.874352, lon.=26.544773, Alt.=97.917053m. Speed=0.000000m/h.</desc>
<speed>0.000000</speed>
</trkpt>
<trkpt lat="55.874352" lon="26.544773">
<ele>97.911194</ele>
<time>2010-07-17T07:21:13Z</time>
<desc>lat.=55.874352, lon.=26.544773, Alt.=97.911194m. Speed=0.036000m/h.</desc>
<speed>0.010000</speed>
</trkpt>
<trkpt lat="55.874352" lon="26.544773">
<ele>97.905334</ele>
<time>2010-07-17T07:21:14Z</time>
<desc>lat.=55.874352, lon.=26.544773, Alt.=97.905334m. Speed=0.108000m/h.</desc>
<speed>0.030000</speed>
</trkpt>
<trkpt lat="55.874352" lon="26.544773">
<ele>97.897522</ele>
<time>2010-07-17T07:21:15Z</time>
<desc>lat.=55.874352, lon.=26.544773, Alt.=97.897522m. Speed=0.072000m/h.</desc>
<speed>0.020000</speed>
</trkpt>
<trkpt lat="55.874352" lon="26.544773">
<ele>97.891663</ele>
<time>2010-07-17T07:21:16Z</time>
<desc>lat.=55.874352, lon.=26.544773, Alt.=97.891663m. Speed=0.108000m/h.</desc>
<speed>0.030000</speed>
</trkpt>
<trkpt lat="55.874352" lon="26.544775">
<ele>97.883850</ele>
<time>2010-07-17T07:21:17Z</time>
<desc>lat.=55.874352, lon.=26.544775, Alt.=97.883850m. Speed=0.108000m/h.</desc>
<speed>0.030000</speed>
</trkpt>
<trkpt lat="55.874352" lon="26.544775">
<ele>97.876038</ele>
<time>2010-07-17T07:21:18Z</time>
<desc>lat.=55.874352, lon.=26.544775, Alt.=97.876038m. Speed=0.108000m/h.</desc>
<speed>0.030000</speed>
</trkpt>
<trkpt lat="55.874352" lon="26.544775">
<ele>97.864319</ele>
<time>2010-07-17T07:21:19Z</time>
<desc>lat.=55.874352, lon.=26.544775, Alt.=97.864319m. Speed=0.108000m/h.</desc>
<speed>0.030000</speed>
</trkpt>
<trkpt lat="55.874348" lon="26.544775">
<ele>97.862366</ele>
<time>2010-07-17T07:21:20Z</time>
<desc>lat.=55.874348, lon.=26.544775, Alt.=97.862366m. Speed=0.072000m/h.</desc>
<speed>0.020000</speed>
</trkpt>
<trkpt lat="55.874348" lon="26.544775">
<ele>97.852600</ele>
<time>2010-07-17T07:21:21Z</time>
<desc>lat.=55.874348, lon.=26.544775, Alt.=97.852600m. Speed=0.036000m/h.</desc>
<speed>0.010000</speed>
</trkpt>
<trkpt lat="55.874348" lon="26.544775">
<ele>97.846741</ele>
<time>2010-07-17T07:21:22Z</time>
<desc>lat.=55.874348, lon.=26.544775, Alt.=97.846741m. Speed=0.036000m/h.</desc>
<speed>0.010000</speed>
</trkpt>
<trkpt lat="55.874352" lon="26.544775">
<ele>97.835022</ele>
<time>2010-07-17T07:21:23Z</time>
<desc>lat.=55.874352, lon.=26.544775, Alt.=97.835022m. Speed=0.000000m/h.</desc>
<speed>0.000000</speed>
</trkpt>
<trkpt lat="55.874352" lon="26.544775">
<ele>97.825256</ele>
<time>2010-07-17T07:21:24Z</time>
<desc>lat.=55.874352, lon.=26.544775, Alt.=97.825256m. Speed=0.036000m/h.</desc>
<speed>0.010000</speed>
</trkpt>
<trkpt lat="55.874352" lon="26.544777">
<ele>97.813538</ele>
<time>2010-07-17T07:21:25Z</time>
<desc>lat.=55.874352, lon.=26.544777, Alt.=97.813538m. Speed=0.072000m/h.</desc>
<speed>0.020000</speed>
</trkpt>
<trkpt lat="55.874348" lon="26.544777">
<ele>97.809631</ele>
<time>2010-07-17T07:21:26Z</time>
<desc>lat.=55.874348, lon.=26.544777, Alt.=97.809631m. Speed=0.108000m/h.</desc>
<speed>0.030000</speed>
</trkpt>
<trkpt lat="55.874348" lon="26.544777">
<ele>97.799866</ele>
<time>2010-07-17T07:21:27Z</time>
<desc>lat.=55.874348, lon.=26.544777, Alt.=97.799866m. Speed=0.108000m/h.</desc>
<speed>0.030000</speed>
</trkpt>
<trkpt lat="55.874348" lon="26.544777">
<ele>97.797913</ele>
<time>2010-07-17T07:21:28Z</time>
<desc>lat.=55.874348, lon.=26.544777, Alt.=97.797913m. Speed=0.072000m/h.</desc>
<speed>0.020000</speed>
</trkpt>
<trkpt lat="55.874348" lon="26.544777">
<ele>97.788147</ele>
<time>2010-07-17T07:21:29Z</time>
<desc>lat.=55.874348, lon.=26.544777, Alt.=97.788147m. Speed=0.180000m/h.</desc>
<speed>0.050000</speed>
</trkpt>
<trkpt lat="55.874348" lon="26.544777">
<ele>97.788147</ele>
<time>2010-07-17T07:21:30Z</time>
<desc>lat.=55.874348, lon.=26.544777, Alt.=97.788147m. Speed=0.036000m/h.</desc>
<speed>0.010000</speed>
</trkpt>
<trkpt lat="55.874348" lon="26.544779">
<ele>97.780334</ele>
<time>2010-07-17T07:21:31Z</time>
<desc>lat.=55.874348, lon.=26.544779, Alt.=97.780334m. Speed=0.072000m/h.</desc>
<speed>0.020000</speed>
</trkpt>
<trkpt lat="55.874348" lon="26.544779">
<ele>97.774475</ele>
<time>2010-07-17T07:21:32Z</time>
<desc>lat.=55.874348, lon.=26.544779, Alt.=97.774475m. Speed=0.144000m/h.</desc>
<speed>0.040000</speed>
</trkpt>
<trkpt lat="55.874348" lon="26.544779">
<ele>97.770569</ele>
<time>2010-07-17T07:21:33Z</time>
<desc>lat.=55.874348, lon.=26.544779, Alt.=97.770569m. Speed=0.072000m/h.</desc>
<speed>0.020000</speed>
</trkpt>
<trkpt lat="55.874348" lon="26.544779">
<ele>97.762756</ele>
<time>2010-07-17T07:21:34Z</time>
<desc>lat.=55.874348, lon.=26.544779, Alt.=97.762756m. Speed=0.072000m/h.</desc>
<speed>0.020000</speed>
</trkpt>
<trkpt lat="55.874348" lon="26.544779">
<ele>97.752991</ele>
<time>2010-07-17T07:21:35Z</time>
<desc>lat.=55.874348, lon.=26.544779, Alt.=97.752991m. Speed=0.072000m/h.</desc>
<speed>0.020000</speed>
</trkpt>
<trkpt lat="55.874348" lon="26.544779">
<ele>97.747131</ele>
<time>2010-07-17T07:21:36Z</time>
<desc>lat.=55.874348, lon.=26.544779, Alt.=97.747131m. Speed=0.072000m/h.</desc>
<speed>0.020000</speed>
</trkpt>
<trkpt lat="55.874348" lon="26.544779">
<ele>97.729553</ele>
<time>2010-07-17T07:21:37Z</time>
<desc>lat.=55.874348, lon.=26.544779, Alt.=97.729553m. Speed=0.072000m/h.</desc>
<speed>0.020000</speed>
</trkpt>
<trkpt lat="55.874348" lon="26.544779">
<ele>97.713928</ele>
<time>2010-07-17T07:21:38Z</time>
<desc>lat.=55.874348, lon.=26.544779, Alt.=97.713928m. Speed=0.072000m/h.</desc>
<speed>0.020000</speed>
</trkpt>
<trkpt lat="55.874348" lon="26.544779">
<ele>97.694397</ele>
<time>2010-07-17T07:21:39Z</time>
<desc>lat.=55.874348, lon.=26.544779, Alt.=97.694397m. Speed=0.036000m/h.</desc>
<speed>0.010000</speed>
</trkpt>
<trkpt lat="55.874348" lon="26.544779">
<ele>97.676819</ele>
<time>2010-07-17T07:21:40Z</time>
<desc>lat.=55.874348, lon.=26.544779, Alt.=97.676819m. Speed=0.072000m/h.</desc>
<speed>0.020000</speed>
</trkpt>
<trkpt lat="55.874348" lon="26.544781">
<ele>97.653381</ele>
<time>2010-07-17T07:21:41Z</time>
<desc>lat.=55.874348, lon.=26.544781, Alt.=97.653381m. Speed=0.144000m/h.</desc>
<speed>0.040000</speed>
</trkpt>
<trkpt lat="55.874348" lon="26.544781">
<ele>97.639709</ele>
<time>2010-07-17T07:21:42Z</time>
<desc>lat.=55.874348, lon.=26.544781, Alt.=97.639709m. Speed=0.036000m/h.</desc>
<speed>0.010000</speed>
</trkpt>
<trkpt lat="55.874348" lon="26.544781">
<ele>97.622131</ele>
<time>2010-07-17T07:21:43Z</time>
<desc>lat.=55.874348, lon.=26.544781, Alt.=97.622131m. Speed=0.036000m/h.</desc>
<speed>0.010000</speed>
</trkpt>
<trkpt lat="55.874348" lon="26.544781">
<ele>97.606506</ele>
<time>2010-07-17T07:21:44Z</time>
<desc>lat.=55.874348, lon.=26.544781, Alt.=97.606506m. Speed=0.072000m/h.</desc>
<speed>0.020000</speed>
</trkpt>
<trkpt lat="55.874348" lon="26.544781">
<ele>97.585022</ele>
<time>2010-07-17T07:21:45Z</time>
<desc>lat.=55.874348, lon.=26.544781, Alt.=97.585022m. Speed=0.036000m/h.</desc>
<speed>0.010000</speed>
</trkpt>
<trkpt lat="55.874348" lon="26.544781">
<ele>97.563538</ele>
<time>2010-07-17T07:21:46Z</time>
<desc>lat.=55.874348, lon.=26.544781, Alt.=97.563538m. Speed=0.036000m/h.</desc>
<speed>0.010000</speed>
</trkpt>
<trkpt lat="55.874348" lon="26.544781">
<ele>97.544006</ele>
<time>2010-07-17T07:21:47Z</time>
<desc>lat.=55.874348, lon.=26.544781, Alt.=97.544006m. Speed=0.036000m/h.</desc>
<speed>0.010000</speed>
</trkpt>
<trkpt lat="55.874348" lon="26.544781">
<ele>97.528381</ele>
<time>2010-07-17T07:21:48Z</time>
<desc>lat.=55.874348, lon.=26.544781, Alt.=97.528381m. Speed=0.072000m/h.</desc>
<speed>0.020000</speed>
</trkpt>
<trkpt lat="55.874348" lon="26.544783">
<ele>97.518616</ele>
<time>2010-07-17T07:21:49Z</time>
<desc>lat.=55.874348, lon.=26.544783, Alt.=97.518616m. Speed=0.072000m/h.</desc>
<speed>0.020000</speed>
</trkpt>
<trkpt lat="55.874348" lon="26.544783">
<ele>97.508850</ele>
<time>2010-07-17T07:21:50Z</time>
<desc>lat.=55.874348, lon.=26.544783, Alt.=97.508850m. Speed=0.072000m/h.</desc>
<speed>0.020000</speed>
</trkpt>
<trkpt lat="55.874348" lon="26.544783">
<ele>97.501038</ele>
<time>2010-07-17T07:21:51Z</time>
<desc>lat.=55.874348, lon.=26.544783, Alt.=97.501038m. Speed=0.072000m/h.</desc>
<speed>0.020000</speed>
</trkpt>
<trkpt lat="55.874348" lon="26.544783">
<ele>97.512756</ele>
<time>2010-07-17T07:21:52Z</time>
<desc>lat.=55.874348, lon.=26.544783, Alt.=97.512756m. Speed=0.036000m/h.</desc>
<speed>0.010000</speed>
</trkpt>
<trkpt lat="55.874348" lon="26.544783">
<ele>97.530334</ele>
<time>2010-07-17T07:21:53Z</time>
<desc>lat.=55.874348, lon.=26.544783, Alt.=97.530334m. Speed=0.000000m/h.</desc>
<speed>0.000000</speed>
</trkpt>
<trkpt lat="55.874352" lon="26.544781">
<ele>97.536194</ele>
<time>2010-07-17T07:21:54Z</time>
<desc>lat.=55.874352, lon.=26.544781, Alt.=97.536194m. Speed=0.036000m/h.</desc>
<speed>0.010000</speed>
</trkpt>
<trkpt lat="55.874352" lon="26.544781">
<ele>97.538147</ele>
<time>2010-07-17T07:21:55Z</time>
<desc>lat.=55.874352, lon.=26.544781, Alt.=97.538147m. Speed=0.000000m/h.</desc>
<speed>0.000000</speed>
</trkpt>
<trkpt lat="55.874352" lon="26.544781">
<ele>97.538147</ele>
<time>2010-07-17T07:21:56Z</time>
<desc>lat.=55.874352, lon.=26.544781, Alt.=97.538147m. Speed=0.036000m/h.</desc>
<speed>0.010000</speed>
</trkpt>
<trkpt lat="55.874352" lon="26.544781">
<ele>97.553772</ele>
<time>2010-07-17T07:21:57Z</time>
<desc>lat.=55.874352, lon.=26.544781, Alt.=97.553772m. Speed=0.036000m/h.</desc>
<speed>0.010000</speed>
</trkpt>
<trkpt lat="55.874352" lon="26.544781">
<ele>97.551819</ele>
<time>2010-07-17T07:21:58Z</time>
<desc>lat.=55.874352, lon.=26.544781, Alt.=97.551819m. Speed=0.000000m/h.</desc>
<speed>0.000000</speed>
</trkpt>
<trkpt lat="55.874352" lon="26.544779">
<ele>97.555725</ele>
<time>2010-07-17T07:21:59Z</time>
<desc>lat.=55.874352, lon.=26.544779, Alt.=97.555725m. Speed=0.000000m/h.</desc>
<speed>0.000000</speed>
</trkpt>
<trkpt lat="55.874352" lon="26.544777">
<ele>97.553772</ele>
<time>2010-07-17T07:22:00Z</time>
<desc>lat.=55.874352, lon.=26.544777, Alt.=97.553772m. Speed=0.036000m/h.</desc>
<speed>0.010000</speed>
</trkpt>
<trkpt lat="55.874352" lon="26.544777">
<ele>97.551819</ele>
<time>2010-07-17T07:22:01Z</time>
<desc>lat.=55.874352, lon.=26.544777, Alt.=97.551819m. Speed=0.036000m/h.</desc>
<speed>0.010000</speed>
</trkpt>
<trkpt lat="55.874352" lon="26.544777">
<ele>97.549866</ele>
<time>2010-07-17T07:22:02Z</time>
<desc>lat.=55.874352, lon.=26.544777, Alt.=97.549866m. Speed=0.000000m/h.</desc>
<speed>0.000000</speed>
</trkpt>
<trkpt lat="55.874352" lon="26.544777">
<ele>97.547913</ele>
<time>2010-07-17T07:22:03Z</time>
<desc>lat.=55.874352, lon.=26.544777, Alt.=97.547913m. Speed=0.000000m/h.</desc>
<speed>0.000000</speed>
</trkpt>
<trkpt lat="55.874352" lon="26.544777">
<ele>97.545959</ele>
<time>2010-07-17T07:22:04Z</time>
<desc>lat.=55.874352, lon.=26.544777, Alt.=97.545959m. Speed=0.036000m/h.</desc>
<speed>0.010000</speed>
</trkpt>
<trkpt lat="55.874352" lon="26.544777">
<ele>97.542053</ele>
<time>2010-07-17T07:22:05Z</time>
<desc>lat.=55.874352, lon.=26.544777, Alt.=97.542053m. Speed=0.000000m/h.</desc>
<speed>0.000000</speed>
</trkpt>
<trkpt lat="55.874352" lon="26.544777">
<ele>97.538147</ele>
<time>2010-07-17T07:22:06Z</time>
<desc>lat.=55.874352, lon.=26.544777, Alt.=97.538147m. Speed=0.000000m/h.</desc>
<speed>0.000000</speed>
</trkpt>
<trkpt lat="55.874355" lon="26.544777">
<ele>97.547913</ele>
<time>2010-07-17T07:22:07Z</time>
<desc>lat.=55.874355, lon.=26.544777, Alt.=97.547913m. Speed=0.036000m/h.</desc>
<speed>0.010000</speed>
</trkpt>
<trkpt lat="55.874355" lon="26.544777">
<ele>97.557678</ele>
<time>2010-07-17T07:22:08Z</time>
<desc>lat.=55.874355, lon.=26.544777, Alt.=97.557678m. Speed=0.000000m/h.</desc>
<speed>0.000000</speed>
</trkpt>
<trkpt lat="55.874355" lon="26.544777">
<ele>97.551819</ele>
<time>2010-07-17T07:22:09Z</time>
<desc>lat.=55.874355, lon.=26.544777, Alt.=97.551819m. Speed=0.000000m/h.</desc>
<speed>0.000000</speed>
</trkpt>
<trkpt lat="55.874355" lon="26.544777">
<ele>97.547913</ele>
<time>2010-07-17T07:22:10Z</time>
<desc>lat.=55.874355, lon.=26.544777, Alt.=97.547913m. Speed=0.000000m/h.</desc>
<speed>0.000000</speed>
</trkpt>
<trkpt lat="55.874355" lon="26.544777">
<ele>97.542053</ele>
<time>2010-07-17T07:22:11Z</time>
<desc>lat.=55.874355, lon.=26.544777, Alt.=97.542053m. Speed=0.072000m/h.</desc>
<speed>0.020000</speed>
</trkpt>
<trkpt lat="55.874355" lon="26.544779">
<ele>97.547913</ele>
<time>2010-07-17T07:22:12Z</time>
<desc>lat.=55.874355, lon.=26.544779, Alt.=97.547913m. Speed=0.072000m/h.</desc>
<speed>0.020000</speed>
</trkpt>
<trkpt lat="55.874355" lon="26.544779">
<ele>97.544006</ele>
<time>2010-07-17T07:22:13Z</time>
<desc>lat.=55.874355, lon.=26.544779, Alt.=97.544006m. Speed=0.072000m/h.</desc>
<speed>0.020000</speed>
</trkpt>
<trkpt lat="55.874355" lon="26.544779">
<ele>97.544006</ele>
<time>2010-07-17T07:22:14Z</time>
<desc>lat.=55.874355, lon.=26.544779, Alt.=97.544006m. Speed=0.000000m/h.</desc>
<speed>0.000000</speed>
</trkpt>
<trkpt lat="55.874355" lon="26.544779">
<ele>97.544006</ele>
<time>2010-07-17T07:22:15Z</time>
<desc>lat.=55.874355, lon.=26.544779, Alt.=97.544006m. Speed=0.036000m/h.</desc>
<speed>0.010000</speed>
</trkpt>
<trkpt lat="55.874355" lon="26.544779">
<ele>97.538147</ele>
<time>2010-07-17T07:22:16Z</time>
<desc>lat.=55.874355, lon.=26.544779, Alt.=97.538147m. Speed=0.072000m/h.</desc>
<speed>0.020000</speed>
</trkpt>
<trkpt lat="55.874355" lon="26.544779">
<ele>97.534241</ele>
<time>2010-07-17T07:22:17Z</time>
<desc>lat.=55.874355, lon.=26.544779, Alt.=97.534241m. Speed=0.036000m/h.</desc>
<speed>0.010000</speed>
</trkpt>
<trkpt lat="55.874355" lon="26.544777">
<ele>97.536194</ele>
<time>2010-07-17T07:22:18Z</time>
<desc>lat.=55.874355, lon.=26.544777, Alt.=97.536194m. Speed=0.036000m/h.</desc>
<speed>0.010000</speed>
</trkpt>
<trkpt lat="55.874355" lon="26.544779">
<ele>97.555725</ele>
<time>2010-07-17T07:22:19Z</time>
<desc>lat.=55.874355, lon.=26.544779, Alt.=97.555725m. Speed=0.036000m/h.</desc>
<speed>0.010000</speed>
</trkpt>
<trkpt lat="55.874355" lon="26.544779">
<ele>97.555725</ele>
<time>2010-07-17T07:22:20Z</time>
<desc>lat.=55.874355, lon.=26.544779, Alt.=97.555725m. Speed=0.036000m/h.</desc>
<speed>0.010000</speed>
</trkpt>
<trkpt lat="55.874359" lon="26.544779">
<ele>97.571350</ele>
<time>2010-07-17T07:22:21Z</time>
<desc>lat.=55.874359, lon.=26.544779, Alt.=97.571350m. Speed=0.036000m/h.</desc>
<speed>0.010000</speed>
</trkpt>
<trkpt lat="55.874359" lon="26.544779">
<ele>97.567444</ele>
<time>2010-07-17T07:22:22Z</time>
<desc>lat.=55.874359, lon.=26.544779, Alt.=97.567444m. Speed=0.072000m/h.</desc>
<speed>0.020000</speed>
</trkpt>
<trkpt lat="55.874359" lon="26.544779">
<ele>97.579163</ele>
<time>2010-07-17T07:22:23Z</time>
<desc>lat.=55.874359, lon.=26.544779, Alt.=97.579163m. Speed=0.036000m/h.</desc>
<speed>0.010000</speed>
</trkpt>
<trkpt lat="55.874359" lon="26.544779">
<ele>97.594788</ele>
<time>2010-07-17T07:22:24Z</time>
<desc>lat.=55.874359, lon.=26.544779, Alt.=97.594788m. Speed=0.072000m/h.</desc>
<speed>0.020000</speed>
</trkpt>
<trkpt lat="55.874359" lon="26.544781">
<ele>97.608459</ele>
<time>2010-07-17T07:22:25Z</time>
<desc>lat.=55.874359, lon.=26.544781, Alt.=97.608459m. Speed=0.036000m/h.</desc>
<speed>0.010000</speed>
</trkpt>
<trkpt lat="55.874359" lon="26.544781">
<ele>97.604553</ele>
<time>2010-07-17T07:22:26Z</time>
<desc>lat.=55.874359, lon.=26.544781, Alt.=97.604553m. Speed=0.036000m/h.</desc>
<speed>0.010000</speed>
</trkpt>
<trkpt lat="55.874359" lon="26.544781">
<ele>97.606506</ele>
<time>2010-07-17T07:22:27Z</time>
<desc>lat.=55.874359, lon.=26.544781, Alt.=97.606506m. Speed=0.000000m/h.</desc>
<speed>0.000000</speed>
</trkpt>
<trkpt lat="55.874359" lon="26.544781">
<ele>97.604553</ele>
<time>2010-07-17T07:22:28Z</time>
<desc>lat.=55.874359, lon.=26.544781, Alt.=97.604553m. Speed=0.036000m/h.</desc>
<speed>0.010000</speed>
</trkpt>
<trkpt lat="55.874359" lon="26.544781">
<ele>97.612366</ele>
<time>2010-07-17T07:22:29Z</time>
<desc>lat.=55.874359, lon.=26.544781, Alt.=97.612366m. Speed=0.000000m/h.</desc>
<speed>0.000000</speed>
</trkpt>
<trkpt lat="55.874359" lon="26.544781">
<ele>97.622131</ele>
<time>2010-07-17T07:22:30Z</time>
<desc>lat.=55.874359, lon.=26.544781, Alt.=97.622131m. Speed=0.036000m/h.</desc>
<speed>0.010000</speed>
</trkpt>
<trkpt lat="55.874359" lon="26.544781">
<ele>97.622131</ele>
<time>2010-07-17T07:22:31Z</time>
<desc>lat.=55.874359, lon.=26.544781, Alt.=97.622131m. Speed=0.036000m/h.</desc>
<speed>0.010000</speed>
</trkpt>
<trkpt lat="55.874359" lon="26.544781">
<ele>97.622131</ele>
<time>2010-07-17T07:22:32Z</time>
<desc>lat.=55.874359, lon.=26.544781, Alt.=97.622131m. Speed=0.036000m/h.</desc>
<speed>0.010000</speed>
</trkpt>
<trkpt lat="55.874359" lon="26.544781">
<ele>97.624084</ele>
<time>2010-07-17T07:22:33Z</time>
<desc>lat.=55.874359, lon.=26.544781, Alt.=97.624084m. Speed=0.072000m/h.</desc>
<speed>0.020000</speed>
</trkpt>
<trkpt lat="55.874359" lon="26.544783">
<ele>97.624084</ele>
<time>2010-07-17T07:22:34Z</time>
<desc>lat.=55.874359, lon.=26.544783, Alt.=97.624084m. Speed=0.036000m/h.</desc>
<speed>0.010000</speed>
</trkpt>
<trkpt lat="55.874359" lon="26.544783">
<ele>97.622131</ele>
<time>2010-07-17T07:22:35Z</time>
<desc>lat.=55.874359, lon.=26.544783, Alt.=97.622131m. Speed=0.036000m/h.</desc>
<speed>0.010000</speed>
</trkpt>
<trkpt lat="55.874359" lon="26.544783">
<ele>97.624084</ele>
<time>2010-07-17T07:22:36Z</time>
<desc>lat.=55.874359, lon.=26.544783, Alt.=97.624084m. Speed=0.036000m/h.</desc>
<speed>0.010000</speed>
</trkpt>
<trkpt lat="55.874359" lon="26.544783">
<ele>97.624084</ele>
<time>2010-07-17T07:22:37Z</time>
<desc>lat.=55.874359, lon.=26.544783, Alt.=97.624084m. Speed=0.072000m/h.</desc>
<speed>0.020000</speed>
</trkpt>
<trkpt lat="55.874359" lon="26.544783">
<ele>97.624084</ele>
<time>2010-07-17T07:22:38Z</time>
<desc>lat.=55.874359, lon.=26.544783, Alt.=97.624084m. Speed=0.000000m/h.</desc>
<speed>0.000000</speed>
</trkpt>
<trkpt lat="55.874359" lon="26.544785">
<ele>97.622131</ele>
<time>2010-07-17T07:22:39Z</time>
<desc>lat.=55.874359, lon.=26.544785, Alt.=97.622131m. Speed=0.000000m/h.</desc>
<speed>0.000000</speed>
</trkpt>
<trkpt lat="55.874359" lon="26.544785">
<ele>97.620178</ele>
<time>2010-07-17T07:22:40Z</time>
<desc>lat.=55.874359, lon.=26.544785, Alt.=97.620178m. Speed=0.000000m/h.</desc>
<speed>0.000000</speed>
</trkpt>
<trkpt lat="55.874359" lon="26.544785">
<ele>97.614319</ele>
<time>2010-07-17T07:22:41Z</time>
<desc>lat.=55.874359, lon.=26.544785, Alt.=97.614319m. Speed=0.036000m/h.</desc>
<speed>0.010000</speed>
</trkpt>
<trkpt lat="55.874359" lon="26.544785">
<ele>97.616272</ele>
<time>2010-07-17T07:22:42Z</time>
<desc>lat.=55.874359, lon.=26.544785, Alt.=97.616272m. Speed=0.036000m/h.</desc>
<speed>0.010000</speed>
</trkpt>
<trkpt lat="55.874359" lon="26.544785">
<ele>97.610413</ele>
<time>2010-07-17T07:22:43Z</time>
<desc>lat.=55.874359, lon.=26.544785, Alt.=97.610413m. Speed=0.072000m/h.</desc>
<speed>0.020000</speed>
</trkpt>
<trkpt lat="55.874359" lon="26.544785">
<ele>97.600647</ele>
<time>2010-07-17T07:22:44Z</time>
<desc>lat.=55.874359, lon.=26.544785, Alt.=97.600647m. Speed=0.072000m/h.</desc>
<speed>0.020000</speed>
</trkpt>
<trkpt lat="55.874359" lon="26.544785">
<ele>97.594788</ele>
<time>2010-07-17T07:22:45Z</time>
<desc>lat.=55.874359, lon.=26.544785, Alt.=97.594788m. Speed=0.036000m/h.</desc>
<speed>0.010000</speed>
</trkpt>
<trkpt lat="55.874359" lon="26.544785">
<ele>97.586975</ele>
<time>2010-07-17T07:22:46Z</time>
<desc>lat.=55.874359, lon.=26.544785, Alt.=97.586975m. Speed=0.036000m/h.</desc>
<speed>0.010000</speed>
</trkpt>
<trkpt lat="55.874359" lon="26.544786">
<ele>97.585022</ele>
<time>2010-07-17T07:22:47Z</time>
<desc>lat.=55.874359, lon.=26.544786, Alt.=97.585022m. Speed=0.036000m/h.</desc>
<speed>0.010000</speed>
</trkpt>
<trkpt lat="55.874359" lon="26.544786">
<ele>97.581116</ele>
<time>2010-07-17T07:22:48Z</time>
<desc>lat.=55.874359, lon.=26.544786, Alt.=97.581116m. Speed=0.036000m/h.</desc>
<speed>0.010000</speed>
</trkpt>
<trkpt lat="55.874359" lon="26.544786">
<ele>97.583069</ele>
<time>2010-07-17T07:22:49Z</time>
<desc>lat.=55.874359, lon.=26.544786, Alt.=97.583069m. Speed=0.072000m/h.</desc>
<speed>0.020000</speed>
</trkpt>
<trkpt lat="55.874359" lon="26.544786">
<ele>97.583069</ele>
<time>2010-07-17T07:22:50Z</time>
<desc>lat.=55.874359, lon.=26.544786, Alt.=97.583069m. Speed=0.000000m/h.</desc>
<speed>0.000000</speed>
</trkpt>
<trkpt lat="55.874359" lon="26.544786">
<ele>97.575256</ele>
<time>2010-07-17T07:22:51Z</time>
<desc>lat.=55.874359, lon.=26.544786, Alt.=97.575256m. Speed=0.036000m/h.</desc>
<speed>0.010000</speed>
</trkpt>
<trkpt lat="55.874363" lon="26.544786">
<ele>97.573303</ele>
<time>2010-07-17T07:22:52Z</time>
<desc>lat.=55.874363, lon.=26.544786, Alt.=97.573303m. Speed=0.036000m/h.</desc>
<speed>0.010000</speed>
</trkpt>
<trkpt lat="55.874363" lon="26.544786">
<ele>97.569397</ele>
<time>2010-07-17T07:22:53Z</time>
<desc>lat.=55.874363, lon.=26.544786, Alt.=97.569397m. Speed=0.036000m/h.</desc>
<speed>0.010000</speed>
</trkpt>
<trkpt lat="55.874363" lon="26.544786">
<ele>97.567444</ele>
<time>2010-07-17T07:22:54Z</time>
<desc>lat.=55.874363, lon.=26.544786, Alt.=97.567444m. Speed=0.072000m/h.</desc>
<speed>0.020000</speed>
</trkpt>
<trkpt lat="55.874363" lon="26.544786">
<ele>97.565491</ele>
<time>2010-07-17T07:22:55Z</time>
<desc>lat.=55.874363, lon.=26.544786, Alt.=97.565491m. Speed=0.072000m/h.</desc>
<speed>0.020000</speed>
</trkpt>
<trkpt lat="55.874363" lon="26.544786">
<ele>97.565491</ele>
<time>2010-07-17T07:22:56Z</time>
<desc>lat.=55.874363, lon.=26.544786, Alt.=97.565491m. Speed=0.036000m/h.</desc>
<speed>0.010000</speed>
</trkpt>
<trkpt lat="55.874363" lon="26.544786">
<ele>97.565491</ele>
<time>2010-07-17T07:22:57Z</time>
<desc>lat.=55.874363, lon.=26.544786, Alt.=97.565491m. Speed=0.180000m/h.</desc>
<speed>0.050000</speed>
</trkpt>
<trkpt lat="55.874363" lon="26.544786">
<ele>97.551819</ele>
<time>2010-07-17T07:22:58Z</time>
<desc>lat.=55.874363, lon.=26.544786, Alt.=97.551819m. Speed=0.180000m/h.</desc>
<speed>0.050000</speed>
</trkpt>
<trkpt lat="55.874363" lon="26.544785">
<ele>97.540100</ele>
<time>2010-07-17T07:22:59Z</time>
<desc>lat.=55.874363, lon.=26.544785, Alt.=97.540100m. Speed=0.216000m/h.</desc>
<speed>0.060000</speed>
</trkpt>
<trkpt lat="55.874363" lon="26.544785">
<ele>97.528381</ele>
<time>2010-07-17T07:23:00Z</time>
<desc>lat.=55.874363, lon.=26.544785, Alt.=97.528381m. Speed=0.180000m/h.</desc>
<speed>0.050000</speed>
</trkpt>
<trkpt lat="55.874359" lon="26.544783">
<ele>97.516663</ele>
<time>2010-07-17T07:23:01Z</time>
<desc>lat.=55.874359, lon.=26.544783, Alt.=97.516663m. Speed=0.036000m/h.</desc>
<speed>0.010000</speed>
</trkpt>
<trkpt lat="55.874363" lon="26.544785">
<ele>97.502991</ele>
<time>2010-07-17T07:23:02Z</time>
<desc>lat.=55.874363, lon.=26.544785, Alt.=97.502991m. Speed=0.108000m/h.</desc>
<speed>0.030000</speed>
</trkpt>
<trkpt lat="55.874359" lon="26.544785">
<ele>97.487366</ele>
<time>2010-07-17T07:23:03Z</time>
<desc>lat.=55.874359, lon.=26.544785, Alt.=97.487366m. Speed=0.180000m/h.</desc>
<speed>0.050000</speed>
</trkpt>
<trkpt lat="55.874359" lon="26.544785">
<ele>97.473694</ele>
<time>2010-07-17T07:23:04Z</time>
<desc>lat.=55.874359, lon.=26.544785, Alt.=97.473694m. Speed=0.108000m/h.</desc>
<speed>0.030000</speed>
</trkpt>
<trkpt lat="55.874359" lon="26.544785">
<ele>97.460022</ele>
<time>2010-07-17T07:23:05Z</time>
<desc>lat.=55.874359, lon.=26.544785, Alt.=97.460022m. Speed=0.144000m/h.</desc>
<speed>0.040000</speed>
</trkpt>
<trkpt lat="55.874359" lon="26.544786">
<ele>97.444397</ele>
<time>2010-07-17T07:23:06Z</time>
<desc>lat.=55.874359, lon.=26.544786, Alt.=97.444397m. Speed=0.180000m/h.</desc>
<speed>0.050000</speed>
</trkpt>
<trkpt lat="55.874359" lon="26.544786">
<ele>97.430725</ele>
<time>2010-07-17T07:23:07Z</time>
<desc>lat.=55.874359, lon.=26.544786, Alt.=97.430725m. Speed=0.144000m/h.</desc>
<speed>0.040000</speed>
</trkpt>
<trkpt lat="55.874359" lon="26.544786">
<ele>97.417053</ele>
<time>2010-07-17T07:23:08Z</time>
<desc>lat.=55.874359, lon.=26.544786, Alt.=97.417053m. Speed=0.180000m/h.</desc>
<speed>0.050000</speed>
</trkpt>
<trkpt lat="55.874359" lon="26.544786">
<ele>97.405334</ele>
<time>2010-07-17T07:23:09Z</time>
<desc>lat.=55.874359, lon.=26.544786, Alt.=97.405334m. Speed=0.216000m/h.</desc>
<speed>0.060000</speed>
</trkpt>
<trkpt lat="55.874359" lon="26.544788">
<ele>97.393616</ele>
<time>2010-07-17T07:23:10Z</time>
<desc>lat.=55.874359, lon.=26.544788, Alt.=97.393616m. Speed=0.216000m/h.</desc>
<speed>0.060000</speed>
</trkpt>
<trkpt lat="55.874359" lon="26.544788">
<ele>97.379944</ele>
<time>2010-07-17T07:23:11Z</time>
<desc>lat.=55.874359, lon.=26.544788, Alt.=97.379944m. Speed=0.180000m/h.</desc>
<speed>0.050000</speed>
</trkpt>
<trkpt lat="55.874359" lon="26.544788">
<ele>97.366272</ele>
<time>2010-07-17T07:23:12Z</time>
<desc>lat.=55.874359, lon.=26.544788, Alt.=97.366272m. Speed=0.180000m/h.</desc>
<speed>0.050000</speed>
</trkpt>
<trkpt lat="55.874359" lon="26.544788">
<ele>97.352600</ele>
<time>2010-07-17T07:23:13Z</time>
<desc>lat.=55.874359, lon.=26.544788, Alt.=97.352600m. Speed=0.144000m/h.</desc>
<speed>0.040000</speed>
</trkpt>
<trkpt lat="55.874355" lon="26.544788">
<ele>97.338928</ele>
<time>2010-07-17T07:23:14Z</time>
<desc>lat.=55.874355, lon.=26.544788, Alt.=97.338928m. Speed=0.072000m/h.</desc>
<speed>0.020000</speed>
</trkpt>
<trkpt lat="55.874355" lon="26.544788">
<ele>97.327209</ele>
<time>2010-07-17T07:23:15Z</time>
<desc>lat.=55.874355, lon.=26.544788, Alt.=97.327209m. Speed=0.108000m/h.</desc>
<speed>0.030000</speed>
</trkpt>
<trkpt lat="55.874355" lon="26.544790">
<ele>97.313538</ele>
<time>2010-07-17T07:23:16Z</time>
<desc>lat.=55.874355, lon.=26.544790, Alt.=97.313538m. Speed=0.108000m/h.</desc>
<speed>0.030000</speed>
</trkpt>
<trkpt lat="55.874355" lon="26.544790">
<ele>97.299866</ele>
<time>2010-07-17T07:23:17Z</time>
<desc>lat.=55.874355, lon.=26.544790, Alt.=97.299866m. Speed=0.144000m/h.</desc>
<speed>0.040000</speed>
</trkpt>
<trkpt lat="55.874355" lon="26.544790">
<ele>97.286194</ele>
<time>2010-07-17T07:23:18Z</time>
<desc>lat.=55.874355, lon.=26.544790, Alt.=97.286194m. Speed=0.216000m/h.</desc>
<speed>0.060000</speed>
</trkpt>
<trkpt lat="55.874355" lon="26.544790">
<ele>97.266663</ele>
<time>2010-07-17T07:23:19Z</time>
<desc>lat.=55.874355, lon.=26.544790, Alt.=97.266663m. Speed=0.180000m/h.</desc>
<speed>0.050000</speed>
</trkpt>
<trkpt lat="55.874355" lon="26.544792">
<ele>97.252991</ele>
<time>2010-07-17T07:23:20Z</time>
<desc>lat.=55.874355, lon.=26.544792, Alt.=97.252991m. Speed=0.108000m/h.</desc>
<speed>0.030000</speed>
</trkpt>
<trkpt lat="55.874355" lon="26.544792">
<ele>97.241272</ele>
<time>2010-07-17T07:23:21Z</time>
<desc>lat.=55.874355, lon.=26.544792, Alt.=97.241272m. Speed=0.144000m/h.</desc>
<speed>0.040000</speed>
</trkpt>
<trkpt lat="55.874355" lon="26.544792">
<ele>97.229553</ele>
<time>2010-07-17T07:23:22Z</time>
<desc>lat.=55.874355, lon.=26.544792, Alt.=97.229553m. Speed=0.144000m/h.</desc>
<speed>0.040000</speed>
</trkpt>
<trkpt lat="55.874355" lon="26.544794">
<ele>97.213928</ele>
<time>2010-07-17T07:23:23Z</time>
<desc>lat.=55.874355, lon.=26.544794, Alt.=97.213928m. Speed=0.144000m/h.</desc>
<speed>0.040000</speed>
</trkpt>
<trkpt lat="55.874355" lon="26.544794">
<ele>97.198303</ele>
<time>2010-07-17T07:23:24Z</time>
<desc>lat.=55.874355, lon.=26.544794, Alt.=97.198303m. Speed=0.108000m/h.</desc>
<speed>0.030000</speed>
</trkpt>
<trkpt lat="55.874355" lon="26.544794">
<ele>97.182678</ele>
<time>2010-07-17T07:23:25Z</time>
<desc>lat.=55.874355, lon.=26.544794, Alt.=97.182678m. Speed=0.108000m/h.</desc>
<speed>0.030000</speed>
</trkpt>
<trkpt lat="55.874355" lon="26.544794">
<ele>97.169006</ele>
<time>2010-07-17T07:23:26Z</time>
<desc>lat.=55.874355, lon.=26.544794, Alt.=97.169006m. Speed=0.144000m/h.</desc>
<speed>0.040000</speed>
</trkpt>
<trkpt lat="55.874355" lon="26.544796">
<ele>97.149475</ele>
<time>2010-07-17T07:23:27Z</time>
<desc>lat.=55.874355, lon.=26.544796, Alt.=97.149475m. Speed=0.144000m/h.</desc>
<speed>0.040000</speed>
</trkpt>
<trkpt lat="55.874355" lon="26.544796">
<ele>97.133850</ele>
<time>2010-07-17T07:23:28Z</time>
<desc>lat.=55.874355, lon.=26.544796, Alt.=97.133850m. Speed=0.108000m/h.</desc>
<speed>0.030000</speed>
</trkpt>
<trkpt lat="55.874355" lon="26.544796">
<ele>97.114319</ele>
<time>2010-07-17T07:23:29Z</time>
<desc>lat.=55.874355, lon.=26.544796, Alt.=97.114319m. Speed=0.108000m/h.</desc>
<speed>0.030000</speed>
</trkpt>
<trkpt lat="55.874352" lon="26.544798">
<ele>97.096741</ele>
<time>2010-07-17T07:23:30Z</time>
<desc>lat.=55.874352, lon.=26.544798, Alt.=97.096741m. Speed=0.108000m/h.</desc>
<speed>0.030000</speed>
</trkpt>
<trkpt lat="55.874352" lon="26.544798">
<ele>97.073303</ele>
<time>2010-07-17T07:23:31Z</time>
<desc>lat.=55.874352, lon.=26.544798, Alt.=97.073303m. Speed=0.108000m/h.</desc>
<speed>0.030000</speed>
</trkpt>
<trkpt lat="55.874352" lon="26.544798">
<ele>97.051819</ele>
<time>2010-07-17T07:23:32Z</time>
<desc>lat.=55.874352, lon.=26.544798, Alt.=97.051819m. Speed=0.108000m/h.</desc>
<speed>0.030000</speed>
</trkpt>
<trkpt lat="55.874352" lon="26.544798">
<ele>97.026428</ele>
<time>2010-07-17T07:23:33Z</time>
<desc>lat.=55.874352, lon.=26.544798, Alt.=97.026428m. Speed=0.180000m/h.</desc>
<speed>0.050000</speed>
</trkpt>
<trkpt lat="55.874352" lon="26.544800">
<ele>97.008850</ele>
<time>2010-07-17T07:23:34Z</time>
<desc>lat.=55.874352, lon.=26.544800, Alt.=97.008850m. Speed=0.180000m/h.</desc>
<speed>0.050000</speed>
</trkpt>
<trkpt lat="55.874352" lon="26.544800">
<ele>96.989319</ele>
<time>2010-07-17T07:23:35Z</time>
<desc>lat.=55.874352, lon.=26.544800, Alt.=96.989319m. Speed=0.072000m/h.</desc>
<speed>0.020000</speed>
</trkpt>
<trkpt lat="55.874352" lon="26.544800">
<ele>96.973694</ele>
<time>2010-07-17T07:23:36Z</time>
<desc>lat.=55.874352, lon.=26.544800, Alt.=96.973694m. Speed=0.108000m/h.</desc>
<speed>0.030000</speed>
</trkpt>
<trkpt lat="55.874352" lon="26.544800">
<ele>96.960022</ele>
<time>2010-07-17T07:23:37Z</time>
<desc>lat.=55.874352, lon.=26.544800, Alt.=96.960022m. Speed=0.180000m/h.</desc>
<speed>0.050000</speed>
</trkpt>
<trkpt lat="55.874352" lon="26.544802">
<ele>96.946350</ele>
<time>2010-07-17T07:23:38Z</time>
<desc>lat.=55.874352, lon.=26.544802, Alt.=96.946350m. Speed=0.180000m/h.</desc>
<speed>0.050000</speed>
</trkpt>
<trkpt lat="55.874352" lon="26.544802">
<ele>96.932678</ele>
<time>2010-07-17T07:23:39Z</time>
<desc>lat.=55.874352, lon.=26.544802, Alt.=96.932678m. Speed=0.108000m/h.</desc>
<speed>0.030000</speed>
</trkpt>
<trkpt lat="55.874352" lon="26.544802">
<ele>96.928772</ele>
<time>2010-07-17T07:23:40Z</time>
<desc>lat.=55.874352, lon.=26.544802, Alt.=96.928772m. Speed=0.180000m/h.</desc>
<speed>0.050000</speed>
</trkpt>
<trkpt lat="55.874352" lon="26.544804">
<ele>96.922913</ele>
<time>2010-07-17T07:23:41Z</time>
<desc>lat.=55.874352, lon.=26.544804, Alt.=96.922913m. Speed=0.144000m/h.</desc>
<speed>0.040000</speed>
</trkpt>
<trkpt lat="55.874352" lon="26.544804">
<ele>96.913147</ele>
<time>2010-07-17T07:23:42Z</time>
<desc>lat.=55.874352, lon.=26.544804, Alt.=96.913147m. Speed=0.252000m/h.</desc>
<speed>0.070000</speed>
</trkpt>
<trkpt lat="55.874352" lon="26.544804">
<ele>96.911194</ele>
<time>2010-07-17T07:23:43Z</time>
<desc>lat.=55.874352, lon.=26.544804, Alt.=96.911194m. Speed=0.108000m/h.</desc>
<speed>0.030000</speed>
</trkpt>
<trkpt lat="55.874352" lon="26.544806">
<ele>96.903381</ele>
<time>2010-07-17T07:23:44Z</time>
<desc>lat.=55.874352, lon.=26.544806, Alt.=96.903381m. Speed=0.072000m/h.</desc>
<speed>0.020000</speed>
</trkpt>
<trkpt lat="55.874352" lon="26.544806">
<ele>96.905334</ele>
<time>2010-07-17T07:23:45Z</time>
<desc>lat.=55.874352, lon.=26.544806, Alt.=96.905334m. Speed=0.036000m/h.</desc>
<speed>0.010000</speed>
</trkpt>
<trkpt lat="55.874352" lon="26.544806">
<ele>96.913147</ele>
<time>2010-07-17T07:23:46Z</time>
<desc>lat.=55.874352, lon.=26.544806, Alt.=96.913147m. Speed=0.036000m/h.</desc>
<speed>0.010000</speed>
</trkpt>
<trkpt lat="55.874352" lon="26.544806">
<ele>96.922913</ele>
<time>2010-07-17T07:23:47Z</time>
<desc>lat.=55.874352, lon.=26.544806, Alt.=96.922913m. Speed=0.036000m/h.</desc>
<speed>0.010000</speed>
</trkpt>
<trkpt lat="55.874352" lon="26.544806">
<ele>96.946350</ele>
<time>2010-07-17T07:23:48Z</time>
<desc>lat.=55.874352, lon.=26.544806, Alt.=96.946350m. Speed=0.000000m/h.</desc>
<speed>0.000000</speed>
</trkpt>
<trkpt lat="55.874352" lon="26.544806">
<ele>96.969788</ele>
<time>2010-07-17T07:23:49Z</time>
<desc>lat.=55.874352, lon.=26.544806, Alt.=96.969788m. Speed=0.000000m/h.</desc>
<speed>0.000000</speed>
</trkpt>
<trkpt lat="55.874352" lon="26.544806">
<ele>96.993225</ele>
<time>2010-07-17T07:23:50Z</time>
<desc>lat.=55.874352, lon.=26.544806, Alt.=96.993225m. Speed=0.072000m/h.</desc>
<speed>0.020000</speed>
</trkpt>
<trkpt lat="55.874352" lon="26.544806">
<ele>96.993225</ele>
<time>2010-07-17T07:23:51Z</time>
<desc>lat.=55.874352, lon.=26.544806, Alt.=96.993225m. Speed=0.000000m/h.</desc>
<speed>0.000000</speed>
</trkpt>
<trkpt lat="55.874352" lon="26.544806">
<ele>96.991272</ele>
<time>2010-07-17T07:23:52Z</time>
<desc>lat.=55.874352, lon.=26.544806, Alt.=96.991272m. Speed=0.036000m/h.</desc>
<speed>0.010000</speed>
</trkpt>
<trkpt lat="55.874352" lon="26.544806">
<ele>97.010803</ele>
<time>2010-07-17T07:23:53Z</time>
<desc>lat.=55.874352, lon.=26.544806, Alt.=97.010803m. Speed=0.000000m/h.</desc>
<speed>0.000000</speed>
</trkpt>
<trkpt lat="55.874352" lon="26.544806">
<ele>97.010803</ele>
<time>2010-07-17T07:23:54Z</time>
<desc>lat.=55.874352, lon.=26.544806, Alt.=97.010803m. Speed=0.036000m/h.</desc>
<speed>0.010000</speed>
</trkpt>
<trkpt lat="55.874352" lon="26.544806">
<ele>97.006897</ele>
<time>2010-07-17T07:23:55Z</time>
<desc>lat.=55.874352, lon.=26.544806, Alt.=97.006897m. Speed=0.036000m/h.</desc>
<speed>0.010000</speed>
</trkpt>
<trkpt lat="55.874352" lon="26.544806">
<ele>97.010803</ele>
<time>2010-07-17T07:23:56Z</time>
<desc>lat.=55.874352, lon.=26.544806, Alt.=97.010803m. Speed=0.000000m/h.</desc>
<speed>0.000000</speed>
</trkpt>
<trkpt lat="55.874352" lon="26.544806">
<ele>97.012756</ele>
<time>2010-07-17T07:23:57Z</time>
<desc>lat.=55.874352, lon.=26.544806, Alt.=97.012756m. Speed=0.000000m/h.</desc>
<speed>0.000000</speed>
</trkpt>
<trkpt lat="55.874352" lon="26.544807">
<ele>97.040100</ele>
<time>2010-07-17T07:23:58Z</time>
<desc>lat.=55.874352, lon.=26.544807, Alt.=97.040100m. Speed=0.036000m/h.</desc>
<speed>0.010000</speed>
</trkpt>
<trkpt lat="55.874352" lon="26.544807">
<ele>97.055725</ele>
<time>2010-07-17T07:23:59Z</time>
<desc>lat.=55.874352, lon.=26.544807, Alt.=97.055725m. Speed=0.036000m/h.</desc>
<speed>0.010000</speed>
</trkpt>
<trkpt lat="55.874352" lon="26.544807">
<ele>97.059631</ele>
<time>2010-07-17T07:24:00Z</time>
<desc>lat.=55.874352, lon.=26.544807, Alt.=97.059631m. Speed=0.036000m/h.</desc>
<speed>0.010000</speed>
</trkpt>
<trkpt lat="55.874352" lon="26.544807">
<ele>97.081116</ele>
<time>2010-07-17T07:24:01Z</time>
<desc>lat.=55.874352, lon.=26.544807, Alt.=97.081116m. Speed=0.036000m/h.</desc>
<speed>0.010000</speed>
</trkpt>
<trkpt lat="55.874352" lon="26.544807">
<ele>97.090881</ele>
<time>2010-07-17T07:24:02Z</time>
<desc>lat.=55.874352, lon.=26.544807, Alt.=97.090881m. Speed=0.036000m/h.</desc>
<speed>0.010000</speed>
</trkpt>
<trkpt lat="55.874352" lon="26.544807">
<ele>97.114319</ele>
<time>2010-07-17T07:24:03Z</time>
<desc>lat.=55.874352, lon.=26.544807, Alt.=97.114319m. Speed=0.036000m/h.</desc>
<speed>0.010000</speed>
</trkpt>
<trkpt lat="55.874352" lon="26.544809">
<ele>97.131897</ele>
<time>2010-07-17T07:24:04Z</time>
<desc>lat.=55.874352, lon.=26.544809, Alt.=97.131897m. Speed=0.000000m/h.</desc>
<speed>0.000000</speed>
</trkpt>
<trkpt lat="55.874352" lon="26.544809">
<ele>97.149475</ele>
<time>2010-07-17T07:24:05Z</time>
<desc>lat.=55.874352, lon.=26.544809, Alt.=97.149475m. Speed=0.036000m/h.</desc>
<speed>0.010000</speed>
</trkpt>
<trkpt lat="55.874352" lon="26.544809">
<ele>97.157288</ele>
<time>2010-07-17T07:24:06Z</time>
<desc>lat.=55.874352, lon.=26.544809, Alt.=97.157288m. Speed=0.036000m/h.</desc>
<speed>0.010000</speed>
</trkpt>
<trkpt lat="55.874352" lon="26.544809">
<ele>97.176819</ele>
<time>2010-07-17T07:24:07Z</time>
<desc>lat.=55.874352, lon.=26.544809, Alt.=97.176819m. Speed=0.036000m/h.</desc>
<speed>0.010000</speed>
</trkpt>
<trkpt lat="55.874352" lon="26.544809">
<ele>97.194397</ele>
<time>2010-07-17T07:24:08Z</time>
<desc>lat.=55.874352, lon.=26.544809, Alt.=97.194397m. Speed=0.000000m/h.</desc>
<speed>0.000000</speed>
</trkpt>
<trkpt lat="55.874352" lon="26.544809">
<ele>97.217834</ele>
<time>2010-07-17T07:24:09Z</time>
<desc>lat.=55.874352, lon.=26.544809, Alt.=97.217834m. Speed=0.036000m/h.</desc>
<speed>0.010000</speed>
</trkpt>
<trkpt lat="55.874352" lon="26.544809">
<ele>97.235413</ele>
<time>2010-07-17T07:24:10Z</time>
<desc>lat.=55.874352, lon.=26.544809, Alt.=97.235413m. Speed=0.036000m/h.</desc>
<speed>0.010000</speed>
</trkpt>
<trkpt lat="55.874352" lon="26.544811">
<ele>97.254944</ele>
<time>2010-07-17T07:24:11Z</time>
<desc>lat.=55.874352, lon.=26.544811, Alt.=97.254944m. Speed=0.036000m/h.</desc>
<speed>0.010000</speed>
</trkpt>
<trkpt lat="55.874348" lon="26.544811">
<ele>97.264709</ele>
<time>2010-07-17T07:24:12Z</time>
<desc>lat.=55.874348, lon.=26.544811, Alt.=97.264709m. Speed=0.000000m/h.</desc>
<speed>0.000000</speed>
</trkpt>
<trkpt lat="55.874348" lon="26.544811">
<ele>97.282288</ele>
<time>2010-07-17T07:24:13Z</time>
<desc>lat.=55.874348, lon.=26.544811, Alt.=97.282288m. Speed=0.072000m/h.</desc>
<speed>0.020000</speed>
</trkpt>
<trkpt lat="55.874348" lon="26.544811">
<ele>97.303772</ele>
<time>2010-07-17T07:24:14Z</time>
<desc>lat.=55.874348, lon.=26.544811, Alt.=97.303772m. Speed=0.036000m/h.</desc>
<speed>0.010000</speed>
</trkpt>
<trkpt lat="55.874348" lon="26.544811">
<ele>97.307678</ele>
<time>2010-07-17T07:24:15Z</time>
<desc>lat.=55.874348, lon.=26.544811, Alt.=97.307678m. Speed=0.036000m/h.</desc>
<speed>0.010000</speed>
</trkpt>
<trkpt lat="55.874348" lon="26.544811">
<ele>97.317444</ele>
<time>2010-07-17T07:24:16Z</time>
<desc>lat.=55.874348, lon.=26.544811, Alt.=97.317444m. Speed=0.000000m/h.</desc>
<speed>0.000000</speed>
</trkpt>
<trkpt lat="55.874348" lon="26.544811">
<ele>97.335022</ele>
<time>2010-07-17T07:24:17Z</time>
<desc>lat.=55.874348, lon.=26.544811, Alt.=97.335022m. Speed=0.072000m/h.</desc>
<speed>0.020000</speed>
</trkpt>
<trkpt lat="55.874348" lon="26.544811">
<ele>97.352600</ele>
<time>2010-07-17T07:24:18Z</time>
<desc>lat.=55.874348, lon.=26.544811, Alt.=97.352600m. Speed=0.000000m/h.</desc>
<speed>0.000000</speed>
</trkpt>
<trkpt lat="55.874348" lon="26.544811">
<ele>97.366272</ele>
<time>2010-07-17T07:24:19Z</time>
<desc>lat.=55.874348, lon.=26.544811, Alt.=97.366272m. Speed=0.000000m/h.</desc>
<speed>0.000000</speed>
</trkpt>
<trkpt lat="55.874348" lon="26.544811">
<ele>97.377991</ele>
<time>2010-07-17T07:24:20Z</time>
<desc>lat.=55.874348, lon.=26.544811, Alt.=97.377991m. Speed=0.000000m/h.</desc>
<speed>0.000000</speed>
</trkpt>
<trkpt lat="55.874348" lon="26.544811">
<ele>97.383850</ele>
<time>2010-07-17T07:24:21Z</time>
<desc>lat.=55.874348, lon.=26.544811, Alt.=97.383850m. Speed=0.000000m/h.</desc>
<speed>0.000000</speed>
</trkpt>
<trkpt lat="55.874348" lon="26.544811">
<ele>97.391663</ele>
<time>2010-07-17T07:24:22Z</time>
<desc>lat.=55.874348, lon.=26.544811, Alt.=97.391663m. Speed=0.036000m/h.</desc>
<speed>0.010000</speed>
</trkpt>
<trkpt lat="55.874348" lon="26.544811">
<ele>97.399475</ele>
<time>2010-07-17T07:24:23Z</time>
<desc>lat.=55.874348, lon.=26.544811, Alt.=97.399475m. Speed=0.000000m/h.</desc>
<speed>0.000000</speed>
</trkpt>
<trkpt lat="55.874348" lon="26.544811">
<ele>97.401428</ele>
<time>2010-07-17T07:24:24Z</time>
<desc>lat.=55.874348, lon.=26.544811, Alt.=97.401428m. Speed=0.000000m/h.</desc>
<speed>0.000000</speed>
</trkpt>
<trkpt lat="55.874348" lon="26.544813">
<ele>97.411194</ele>
<time>2010-07-17T07:24:25Z</time>
<desc>lat.=55.874348, lon.=26.544813, Alt.=97.411194m. Speed=0.036000m/h.</desc>
<speed>0.010000</speed>
</trkpt>
<trkpt lat="55.874348" lon="26.544813">
<ele>97.419006</ele>
<time>2010-07-17T07:24:26Z</time>
<desc>lat.=55.874348, lon.=26.544813, Alt.=97.419006m. Speed=0.000000m/h.</desc>
<speed>0.000000</speed>
</trkpt>
<trkpt lat="55.874348" lon="26.544813">
<ele>97.424866</ele>
<time>2010-07-17T07:24:27Z</time>
<desc>lat.=55.874348, lon.=26.544813, Alt.=97.424866m. Speed=0.036000m/h.</desc>
<speed>0.010000</speed>
</trkpt>
<trkpt lat="55.874348" lon="26.544813">
<ele>97.432678</ele>
<time>2010-07-17T07:24:28Z</time>
<desc>lat.=55.874348, lon.=26.544813, Alt.=97.432678m. Speed=0.000000m/h.</desc>
<speed>0.000000</speed>
</trkpt>
<trkpt lat="55.874348" lon="26.544813">
<ele>97.436584</ele>
<time>2010-07-17T07:24:29Z</time>
<desc>lat.=55.874348, lon.=26.544813, Alt.=97.436584m. Speed=0.036000m/h.</desc>
<speed>0.010000</speed>
</trkpt>
<trkpt lat="55.874348" lon="26.544813">
<ele>97.442444</ele>
<time>2010-07-17T07:24:30Z</time>
<desc>lat.=55.874348, lon.=26.544813, Alt.=97.442444m. Speed=0.000000m/h.</desc>
<speed>0.000000</speed>
</trkpt>
<trkpt lat="55.874348" lon="26.544813">
<ele>97.444397</ele>
<time>2010-07-17T07:24:31Z</time>
<desc>lat.=55.874348, lon.=26.544813, Alt.=97.444397m. Speed=0.036000m/h.</desc>
<speed>0.010000</speed>
</trkpt>
<trkpt lat="55.874348" lon="26.544813">
<ele>97.448303</ele>
<time>2010-07-17T07:24:32Z</time>
<desc>lat.=55.874348, lon.=26.544813, Alt.=97.448303m. Speed=0.036000m/h.</desc>
<speed>0.010000</speed>
</trkpt>
<trkpt lat="55.874348" lon="26.544813">
<ele>97.450256</ele>
<time>2010-07-17T07:24:33Z</time>
<desc>lat.=55.874348, lon.=26.544813, Alt.=97.450256m. Speed=0.000000m/h.</desc>
<speed>0.000000</speed>
</trkpt>
<trkpt lat="55.874348" lon="26.544813">
<ele>97.454163</ele>
<time>2010-07-17T07:24:34Z</time>
<desc>lat.=55.874348, lon.=26.544813, Alt.=97.454163m. Speed=0.036000m/h.</desc>
<speed>0.010000</speed>
</trkpt>
<trkpt lat="55.874348" lon="26.544813">
<ele>97.456116</ele>
<time>2010-07-17T07:24:35Z</time>
<desc>lat.=55.874348, lon.=26.544813, Alt.=97.456116m. Speed=0.000000m/h.</desc>
<speed>0.000000</speed>
</trkpt>
<trkpt lat="55.874348" lon="26.544813">
<ele>97.460022</ele>
<time>2010-07-17T07:24:36Z</time>
<desc>lat.=55.874348, lon.=26.544813, Alt.=97.460022m. Speed=0.036000m/h.</desc>
<speed>0.010000</speed>
</trkpt>
<trkpt lat="55.874348" lon="26.544813">
<ele>97.465881</ele>
<time>2010-07-17T07:24:37Z</time>
<desc>lat.=55.874348, lon.=26.544813, Alt.=97.465881m. Speed=0.036000m/h.</desc>
<speed>0.010000</speed>
</trkpt>
<trkpt lat="55.874348" lon="26.544813">
<ele>97.467834</ele>
<time>2010-07-17T07:24:38Z</time>
<desc>lat.=55.874348, lon.=26.544813, Alt.=97.467834m. Speed=0.000000m/h.</desc>
<speed>0.000000</speed>
</trkpt>
<trkpt lat="55.874348" lon="26.544813">
<ele>97.467834</ele>
<time>2010-07-17T07:24:39Z</time>
<desc>lat.=55.874348, lon.=26.544813, Alt.=97.467834m. Speed=0.036000m/h.</desc>
<speed>0.010000</speed>
</trkpt>
<trkpt lat="55.874348" lon="26.544813">
<ele>97.471741</ele>
<time>2010-07-17T07:24:40Z</time>
<desc>lat.=55.874348, lon.=26.544813, Alt.=97.471741m. Speed=0.072000m/h.</desc>
<speed>0.020000</speed>
</trkpt>
<trkpt lat="55.874348" lon="26.544813">
<ele>97.477600</ele>
<time>2010-07-17T07:24:41Z</time>
<desc>lat.=55.874348, lon.=26.544813, Alt.=97.477600m. Speed=0.036000m/h.</desc>
<speed>0.010000</speed>
</trkpt>
<trkpt lat="55.874348" lon="26.544813">
<ele>97.483459</ele>
<time>2010-07-17T07:24:42Z</time>
<desc>lat.=55.874348, lon.=26.544813, Alt.=97.483459m. Speed=0.036000m/h.</desc>
<speed>0.010000</speed>
</trkpt>
<trkpt lat="55.874348" lon="26.544813">
<ele>97.489319</ele>
<time>2010-07-17T07:24:43Z</time>
<desc>lat.=55.874348, lon.=26.544813, Alt.=97.489319m. Speed=0.000000m/h.</desc>
<speed>0.000000</speed>
</trkpt>
<trkpt lat="55.874348" lon="26.544813">
<ele>97.497131</ele>
<time>2010-07-17T07:24:44Z</time>
<desc>lat.=55.874348, lon.=26.544813, Alt.=97.497131m. Speed=0.072000m/h.</desc>
<speed>0.020000</speed>
</trkpt>
<trkpt lat="55.874348" lon="26.544813">
<ele>97.502991</ele>
<time>2010-07-17T07:24:45Z</time>
<desc>lat.=55.874348, lon.=26.544813, Alt.=97.502991m. Speed=0.072000m/h.</desc>
<speed>0.020000</speed>
</trkpt>
<trkpt lat="55.874348" lon="26.544813">
<ele>97.510803</ele>
<time>2010-07-17T07:24:46Z</time>
<desc>lat.=55.874348, lon.=26.544813, Alt.=97.510803m. Speed=0.036000m/h.</desc>
<speed>0.010000</speed>
</trkpt>
<trkpt lat="55.874348" lon="26.544815">
<ele>97.516663</ele>
<time>2010-07-17T07:24:47Z</time>
<desc>lat.=55.874348, lon.=26.544815, Alt.=97.516663m. Speed=0.108000m/h.</desc>
<speed>0.030000</speed>
</trkpt>
<trkpt lat="55.874348" lon="26.544815">
<ele>97.524475</ele>
<time>2010-07-17T07:24:48Z</time>
<desc>lat.=55.874348, lon.=26.544815, Alt.=97.524475m. Speed=0.072000m/h.</desc>
<speed>0.020000</speed>
</trkpt>
<trkpt lat="55.874348" lon="26.544815">
<ele>97.524475</ele>
<time>2010-07-17T07:24:49Z</time>
<desc>lat.=55.874348, lon.=26.544815, Alt.=97.524475m. Speed=0.000000m/h.</desc>
<speed>0.000000</speed>
</trkpt>
<trkpt lat="55.874348" lon="26.544815">
<ele>97.530334</ele>
<time>2010-07-17T07:24:50Z</time>
<desc>lat.=55.874348, lon.=26.544815, Alt.=97.530334m. Speed=0.036000m/h.</desc>
<speed>0.010000</speed>
</trkpt>
<trkpt lat="55.874348" lon="26.544815">
<ele>97.538147</ele>
<time>2010-07-17T07:24:51Z</time>
<desc>lat.=55.874348, lon.=26.544815, Alt.=97.538147m. Speed=0.036000m/h.</desc>
<speed>0.010000</speed>
</trkpt>
<trkpt lat="55.874348" lon="26.544815">
<ele>97.545959</ele>
<time>2010-07-17T07:24:52Z</time>
<desc>lat.=55.874348, lon.=26.544815, Alt.=97.545959m. Speed=0.036000m/h.</desc>
<speed>0.010000</speed>
</trkpt>
<trkpt lat="55.874348" lon="26.544815">
<ele>97.553772</ele>
<time>2010-07-17T07:24:53Z</time>
<desc>lat.=55.874348, lon.=26.544815, Alt.=97.553772m. Speed=0.036000m/h.</desc>
<speed>0.010000</speed>
</trkpt>
<trkpt lat="55.874348" lon="26.544815">
<ele>97.559631</ele>
<time>2010-07-17T07:24:54Z</time>
<desc>lat.=55.874348, lon.=26.544815, Alt.=97.559631m. Speed=0.180000m/h.</desc>
<speed>0.050000</speed>
</trkpt>
<trkpt lat="55.874348" lon="26.544815">
<ele>97.561584</ele>
<time>2010-07-17T07:24:55Z</time>
<desc>lat.=55.874348, lon.=26.544815, Alt.=97.561584m. Speed=0.036000m/h.</desc>
<speed>0.010000</speed>
</trkpt>
<trkpt lat="55.874348" lon="26.544815">
<ele>97.563538</ele>
<time>2010-07-17T07:24:56Z</time>
<desc>lat.=55.874348, lon.=26.544815, Alt.=97.563538m. Speed=0.000000m/h.</desc>
<speed>0.000000</speed>
</trkpt>
<trkpt lat="55.874348" lon="26.544815">
<ele>97.567444</ele>
<time>2010-07-17T07:24:57Z</time>
<desc>lat.=55.874348, lon.=26.544815, Alt.=97.567444m. Speed=0.000000m/h.</desc>
<speed>0.000000</speed>
</trkpt>
<trkpt lat="55.874348" lon="26.544815">
<ele>97.569397</ele>
<time>2010-07-17T07:24:58Z</time>
<desc>lat.=55.874348, lon.=26.544815, Alt.=97.569397m. Speed=0.000000m/h.</desc>
<speed>0.000000</speed>
</trkpt>
<trkpt lat="55.874348" lon="26.544815">
<ele>97.571350</ele>
<time>2010-07-17T07:24:59Z</time>
<desc>lat.=55.874348, lon.=26.544815, Alt.=97.571350m. Speed=0.000000m/h.</desc>
<speed>0.000000</speed>
</trkpt>
<trkpt lat="55.874348" lon="26.544815">
<ele>97.575256</ele>
<time>2010-07-17T07:25:00Z</time>
<desc>lat.=55.874348, lon.=26.544815, Alt.=97.575256m. Speed=0.108000m/h.</desc>
<speed>0.030000</speed>
</trkpt>
<trkpt lat="55.874348" lon="26.544815">
<ele>97.577209</ele>
<time>2010-07-17T07:25:01Z</time>
<desc>lat.=55.874348, lon.=26.544815, Alt.=97.577209m. Speed=0.072000m/h.</desc>
<speed>0.020000</speed>
</trkpt>
<trkpt lat="55.874348" lon="26.544815">
<ele>97.579163</ele>
<time>2010-07-17T07:25:02Z</time>
<desc>lat.=55.874348, lon.=26.544815, Alt.=97.579163m. Speed=0.504000m/h.</desc>
<speed>0.140000</speed>
</trkpt>
<trkpt lat="55.874348" lon="26.544815">
<ele>97.581116</ele>
<time>2010-07-17T07:25:03Z</time>
<desc>lat.=55.874348, lon.=26.544815, Alt.=97.581116m. Speed=0.072000m/h.</desc>
<speed>0.020000</speed>
</trkpt>
<trkpt lat="55.874348" lon="26.544815">
<ele>97.583069</ele>
<time>2010-07-17T07:25:04Z</time>
<desc>lat.=55.874348, lon.=26.544815, Alt.=97.583069m. Speed=0.072000m/h.</desc>
<speed>0.020000</speed>
</trkpt>
<trkpt lat="55.874348" lon="26.544815">
<ele>97.590881</ele>
<time>2010-07-17T07:25:05Z</time>
<desc>lat.=55.874348, lon.=26.544815, Alt.=97.590881m. Speed=0.072000m/h.</desc>
<speed>0.020000</speed>
</trkpt>
<trkpt lat="55.874348" lon="26.544815">
<ele>97.594788</ele>
<time>2010-07-17T07:25:06Z</time>
<desc>lat.=55.874348, lon.=26.544815, Alt.=97.594788m. Speed=0.036000m/h.</desc>
<speed>0.010000</speed>
</trkpt>
<trkpt lat="55.874348" lon="26.544815">
<ele>97.602600</ele>
<time>2010-07-17T07:25:07Z</time>
<desc>lat.=55.874348, lon.=26.544815, Alt.=97.602600m. Speed=0.000000m/h.</desc>
<speed>0.000000</speed>
</trkpt>
<trkpt lat="55.874348" lon="26.544815">
<ele>97.608459</ele>
<time>2010-07-17T07:25:08Z</time>
<desc>lat.=55.874348, lon.=26.544815, Alt.=97.608459m. Speed=0.072000m/h.</desc>
<speed>0.020000</speed>
</trkpt>
<trkpt lat="55.874348" lon="26.544815">
<ele>97.612366</ele>
<time>2010-07-17T07:25:09Z</time>
<desc>lat.=55.874348, lon.=26.544815, Alt.=97.612366m. Speed=0.072000m/h.</desc>
<speed>0.020000</speed>
</trkpt>
<trkpt lat="55.874348" lon="26.544815">
<ele>97.612366</ele>
<time>2010-07-17T07:25:10Z</time>
<desc>lat.=55.874348, lon.=26.544815, Alt.=97.612366m. Speed=0.036000m/h.</desc>
<speed>0.010000</speed>
</trkpt>
<trkpt lat="55.874348" lon="26.544815">
<ele>97.616272</ele>
<time>2010-07-17T07:25:11Z</time>
<desc>lat.=55.874348, lon.=26.544815, Alt.=97.616272m. Speed=0.108000m/h.</desc>
<speed>0.030000</speed>
</trkpt>
<trkpt lat="55.874348" lon="26.544815">
<ele>97.622131</ele>
<time>2010-07-17T07:25:12Z</time>
<desc>lat.=55.874348, lon.=26.544815, Alt.=97.622131m. Speed=0.072000m/h.</desc>
<speed>0.020000</speed>
</trkpt>
<trkpt lat="55.874348" lon="26.544815">
<ele>97.622131</ele>
<time>2010-07-17T07:25:13Z</time>
<desc>lat.=55.874348, lon.=26.544815, Alt.=97.622131m. Speed=0.072000m/h.</desc>
<speed>0.020000</speed>
</trkpt>
<trkpt lat="55.874348" lon="26.544815">
<ele>97.620178</ele>
<time>2010-07-17T07:25:14Z</time>
<desc>lat.=55.874348, lon.=26.544815, Alt.=97.620178m. Speed=0.180000m/h.</desc>
<speed>0.050000</speed>
</trkpt>
<trkpt lat="55.874348" lon="26.544817">
<ele>97.622131</ele>
<time>2010-07-17T07:25:15Z</time>
<desc>lat.=55.874348, lon.=26.544817, Alt.=97.622131m. Speed=0.216000m/h.</desc>
<speed>0.060000</speed>
</trkpt>
<trkpt lat="55.874348" lon="26.544817">
<ele>97.624084</ele>
<time>2010-07-17T07:25:16Z</time>
<desc>lat.=55.874348, lon.=26.544817, Alt.=97.624084m. Speed=0.216000m/h.</desc>
<speed>0.060000</speed>
</trkpt>
<trkpt lat="55.874348" lon="26.544819">
<ele>97.626038</ele>
<time>2010-07-17T07:25:17Z</time>
<desc>lat.=55.874348, lon.=26.544819, Alt.=97.626038m. Speed=0.252000m/h.</desc>
<speed>0.070000</speed>
</trkpt>
<trkpt lat="55.874348" lon="26.544819">
<ele>97.627991</ele>
<time>2010-07-17T07:25:18Z</time>
<desc>lat.=55.874348, lon.=26.544819, Alt.=97.627991m. Speed=0.288000m/h.</desc>
<speed>0.080000</speed>
</trkpt>
<trkpt lat="55.874348" lon="26.544821">
<ele>97.629944</ele>
<time>2010-07-17T07:25:19Z</time>
<desc>lat.=55.874348, lon.=26.544821, Alt.=97.629944m. Speed=0.432000m/h.</desc>
<speed>0.120000</speed>
</trkpt>
<trkpt lat="55.874344" lon="26.544823">
<ele>97.631897</ele>
<time>2010-07-17T07:25:20Z</time>
<desc>lat.=55.874344, lon.=26.544823, Alt.=97.631897m. Speed=0.648000m/h.</desc>
<speed>0.180000</speed>
</trkpt>
<trkpt lat="55.874344" lon="26.544825">
<ele>97.631897</ele>
<time>2010-07-17T07:25:21Z</time>
<desc>lat.=55.874344, lon.=26.544825, Alt.=97.631897m. Speed=0.684000m/h.</desc>
<speed>0.190000</speed>
</trkpt>
<trkpt lat="55.874344" lon="26.544825">
<ele>97.639709</ele>
<time>2010-07-17T07:25:22Z</time>
<desc>lat.=55.874344, lon.=26.544825, Alt.=97.639709m. Speed=0.684000m/h.</desc>
<speed>0.190000</speed>
</trkpt>
<trkpt lat="55.874340" lon="26.544827">
<ele>97.639709</ele>
<time>2010-07-17T07:25:23Z</time>
<desc>lat.=55.874340, lon.=26.544827, Alt.=97.639709m. Speed=0.468000m/h.</desc>
<speed>0.130000</speed>
</trkpt>
<trkpt lat="55.874340" lon="26.544827">
<ele>97.653381</ele>
<time>2010-07-17T07:25:24Z</time>
<desc>lat.=55.874340, lon.=26.544827, Alt.=97.653381m. Speed=0.468000m/h.</desc>
<speed>0.130000</speed>
</trkpt>
<trkpt lat="55.874340" lon="26.544827">
<ele>97.661194</ele>
<time>2010-07-17T07:25:25Z</time>
<desc>lat.=55.874340, lon.=26.544827, Alt.=97.661194m. Speed=0.468000m/h.</desc>
<speed>0.130000</speed>
</trkpt>
<trkpt lat="55.874336" lon="26.544827">
<ele>97.670959</ele>
<time>2010-07-17T07:25:26Z</time>
<desc>lat.=55.874336, lon.=26.544827, Alt.=97.670959m. Speed=0.468000m/h.</desc>
<speed>0.130000</speed>
</trkpt>
<trkpt lat="55.874336" lon="26.544827">
<ele>97.682678</ele>
<time>2010-07-17T07:25:27Z</time>
<desc>lat.=55.874336, lon.=26.544827, Alt.=97.682678m. Speed=0.396000m/h.</desc>
<speed>0.110000</speed>
</trkpt>
<trkpt lat="55.874336" lon="26.544827">
<ele>97.694397</ele>
<time>2010-07-17T07:25:28Z</time>
<desc>lat.=55.874336, lon.=26.544827, Alt.=97.694397m. Speed=0.396000m/h.</desc>
<speed>0.110000</speed>
</trkpt>
<trkpt lat="55.874336" lon="26.544827">
<ele>97.692444</ele>
<time>2010-07-17T07:25:29Z</time>
<desc>lat.=55.874336, lon.=26.544827, Alt.=97.692444m. Speed=1.332000m/h.</desc>
<speed>0.370000</speed>
</trkpt>
<trkpt lat="55.874332" lon="26.544825">
<ele>97.729553</ele>
<time>2010-07-17T07:25:30Z</time>
<desc>lat.=55.874332, lon.=26.544825, Alt.=97.729553m. Speed=0.936000m/h.</desc>
<speed>0.260000</speed>
</trkpt>
<trkpt lat="55.874332" lon="26.544840">
<ele>97.555725</ele>
<time>2010-07-17T07:25:31Z</time>
<desc>lat.=55.874332, lon.=26.544840, Alt.=97.555725m. Speed=0.612000m/h.</desc>
<speed>0.170000</speed>
</trkpt>
<trkpt lat="55.874329" lon="26.544859">
<ele>97.147522</ele>
<time>2010-07-17T07:25:32Z</time>
<desc>lat.=55.874329, lon.=26.544859, Alt.=97.147522m. Speed=1.692000m/h.</desc>
<speed>0.470000</speed>
</trkpt>
<trkpt lat="55.874317" lon="26.544886">
<ele>96.821350</ele>
<time>2010-07-17T07:25:33Z</time>
<desc>lat.=55.874317, lon.=26.544886, Alt.=96.821350m. Speed=3.276000m/h.</desc>
<speed>0.910000</speed>
</trkpt>
<trkpt lat="55.874317" lon="26.544903">
<ele>96.981506</ele>
<time>2010-07-17T07:25:34Z</time>
<desc>lat.=55.874317, lon.=26.544903, Alt.=96.981506m. Speed=3.240000m/h.</desc>
<speed>0.900000</speed>
</trkpt>
<trkpt lat="55.874317" lon="26.544914">
<ele>97.012756</ele>
<time>2010-07-17T07:25:35Z</time>
<desc>lat.=55.874317, lon.=26.544914, Alt.=97.012756m. Speed=2.772000m/h.</desc>
<speed>0.770000</speed>
</trkpt>
<trkpt lat="55.874313" lon="26.544924">
<ele>97.090881</ele>
<time>2010-07-17T07:25:36Z</time>
<desc>lat.=55.874313, lon.=26.544924, Alt.=97.090881m. Speed=2.484000m/h.</desc>
<speed>0.690000</speed>
</trkpt>
<trkpt lat="55.874310" lon="26.544928">
<ele>97.106506</ele>
<time>2010-07-17T07:25:37Z</time>
<desc>lat.=55.874310, lon.=26.544928, Alt.=97.106506m. Speed=1.368000m/h.</desc>
<speed>0.380000</speed>
</trkpt>
<trkpt lat="55.874302" lon="26.544926">
<ele>97.294006</ele>
<time>2010-07-17T07:25:38Z</time>
<desc>lat.=55.874302, lon.=26.544926, Alt.=97.294006m. Speed=1.152000m/h.</desc>
<speed>0.320000</speed>
</trkpt>
<trkpt lat="55.874302" lon="26.544922">
<ele>97.419006</ele>
<time>2010-07-17T07:25:39Z</time>
<desc>lat.=55.874302, lon.=26.544922, Alt.=97.419006m. Speed=0.792000m/h.</desc>
<speed>0.220000</speed>
</trkpt>
<trkpt lat="55.874294" lon="26.544903">
<ele>97.719788</ele>
<time>2010-07-17T07:25:40Z</time>
<desc>lat.=55.874294, lon.=26.544903, Alt.=97.719788m. Speed=0.540000m/h.</desc>
<speed>0.150000</speed>
</trkpt>
<trkpt lat="55.874310" lon="26.544899">
<ele>97.901428</ele>
<time>2010-07-17T07:25:41Z</time>
<desc>lat.=55.874310, lon.=26.544899, Alt.=97.901428m. Speed=0.540000m/h.</desc>
<speed>0.150000</speed>
</trkpt>
<trkpt lat="55.874306" lon="26.544882">
<ele>98.174866</ele>
<time>2010-07-17T07:25:42Z</time>
<desc>lat.=55.874306, lon.=26.544882, Alt.=98.174866m. Speed=0.612000m/h.</desc>
<speed>0.170000</speed>
</trkpt>
<trkpt lat="55.874306" lon="26.544880">
<ele>98.186584</ele>
<time>2010-07-17T07:25:43Z</time>
<desc>lat.=55.874306, lon.=26.544880, Alt.=98.186584m. Speed=2.520000m/h.</desc>
<speed>0.700000</speed>
</trkpt>
<trkpt lat="55.874306" lon="26.544859">
<ele>98.633850</ele>
<time>2010-07-17T07:25:44Z</time>
<desc>lat.=55.874306, lon.=26.544859, Alt.=98.633850m. Speed=4.032000m/h.</desc>
<speed>1.120000</speed>
</trkpt>
<trkpt lat="55.874313" lon="26.544830">
<ele>98.981506</ele>
<time>2010-07-17T07:25:45Z</time>
<desc>lat.=55.874313, lon.=26.544830, Alt.=98.981506m. Speed=7.488000m/h.</desc>
<speed>2.080000</speed>
</trkpt>
<trkpt lat="55.874325" lon="26.544806">
<ele>98.950256</ele>
<time>2010-07-17T07:25:46Z</time>
<desc>lat.=55.874325, lon.=26.544806, Alt.=98.950256m. Speed=7.092000m/h.</desc>
<speed>1.970000</speed>
</trkpt>
<trkpt lat="55.874340" lon="26.544771">
<ele>99.083069</ele>
<time>2010-07-17T07:25:47Z</time>
<desc>lat.=55.874340, lon.=26.544771, Alt.=99.083069m. Speed=8.424000m/h.</desc>
<speed>2.340000</speed>
</trkpt>
<trkpt lat="55.874371" lon="26.544733">
<ele>99.307678</ele>
<time>2010-07-17T07:25:48Z</time>
<desc>lat.=55.874371, lon.=26.544733, Alt.=99.307678m. Speed=11.916000m/h.</desc>
<speed>3.310000</speed>
</trkpt>
<trkpt lat="55.874405" lon="26.544678">
<ele>99.920959</ele>
<time>2010-07-17T07:25:49Z</time>
<desc>lat.=55.874405, lon.=26.544678, Alt.=99.920959m. Speed=14.220000m/h.</desc>
<speed>3.950000</speed>
</trkpt>
<trkpt lat="55.874443" lon="26.544600">
<ele>99.827209</ele>
<time>2010-07-17T07:25:50Z</time>
<desc>lat.=55.874443, lon.=26.544600, Alt.=99.827209m. Speed=16.020000m/h.</desc>
<speed>4.450000</speed>
</trkpt>
<trkpt lat="55.874485" lon="26.544537">
<ele>100.165100</ele>
<time>2010-07-17T07:25:51Z</time>
<desc>lat.=55.874485, lon.=26.544537, Alt.=100.165100m. Speed=16.128000m/h.</desc>
<speed>4.480000</speed>
</trkpt>
<trkpt lat="55.874531" lon="26.544466">
<ele>100.206116</ele>
<time>2010-07-17T07:25:52Z</time>
<desc>lat.=55.874531, lon.=26.544466, Alt.=100.206116m. Speed=15.552000m/h.</desc>
<speed>4.320000</speed>
</trkpt>
<trkpt lat="55.874557" lon="26.544407">
<ele>100.762756</ele>
<time>2010-07-17T07:25:53Z</time>
<desc>lat.=55.874557, lon.=26.544407, Alt.=100.762756m. Speed=15.300000m/h.</desc>
<speed>4.250000</speed>
</trkpt>
<trkpt lat="55.874577" lon="26.544336">
<ele>101.313538</ele>
<time>2010-07-17T07:25:54Z</time>
<desc>lat.=55.874577, lon.=26.544336, Alt.=101.313538m. Speed=16.236000m/h.</desc>
<speed>4.510000</speed>
</trkpt>
<trkpt lat="55.874603" lon="26.544294">
<ele>102.700256</ele>
<time>2010-07-17T07:25:55Z</time>
<desc>lat.=55.874603, lon.=26.544294, Alt.=102.700256m. Speed=17.172001m/h.</desc>
<speed>4.770000</speed>
</trkpt>
<trkpt lat="55.874641" lon="26.544233">
<ele>103.694397</ele>
<time>2010-07-17T07:25:56Z</time>
<desc>lat.=55.874641, lon.=26.544233, Alt.=103.694397m. Speed=16.379999m/h.</desc>
<speed>4.550000</speed>
</trkpt>
<trkpt lat="55.874664" lon="26.544191">
<ele>103.227600</ele>
<time>2010-07-17T07:25:57Z</time>
<desc>lat.=55.874664, lon.=26.544191, Alt.=103.227600m. Speed=8.028000m/h.</desc>
<speed>2.230000</speed>
</trkpt>
<trkpt lat="55.874680" lon="26.544146">
<ele>102.397522</ele>
<time>2010-07-17T07:25:58Z</time>
<desc>lat.=55.874680, lon.=26.544146, Alt.=102.397522m. Speed=12.816000m/h.</desc>
<speed>3.560000</speed>
</trkpt>
<trkpt lat="55.874695" lon="26.544079">
<ele>101.356506</ele>
<time>2010-07-17T07:25:59Z</time>
<desc>lat.=55.874695, lon.=26.544079, Alt.=101.356506m. Speed=16.379999m/h.</desc>
<speed>4.550000</speed>
</trkpt>
<trkpt lat="55.874710" lon="26.544018">
<ele>100.528381</ele>
<time>2010-07-17T07:26:00Z</time>
<desc>lat.=55.874710, lon.=26.544018, Alt.=100.528381m. Speed=13.752000m/h.</desc>
<speed>3.820000</speed>
</trkpt>
<trkpt lat="55.874752" lon="26.543934">
<ele>101.053772</ele>
<time>2010-07-17T07:26:01Z</time>
<desc>lat.=55.874752, lon.=26.543934, Alt.=101.053772m. Speed=19.152000m/h.</desc>
<speed>5.320000</speed>
</trkpt>
<trkpt lat="55.874802" lon="26.543856">
<ele>101.194397</ele>
<time>2010-07-17T07:26:02Z</time>
<desc>lat.=55.874802, lon.=26.543856, Alt.=101.194397m. Speed=19.511999m/h.</desc>
<speed>5.420000</speed>
</trkpt>
<trkpt lat="55.874844" lon="26.543791">
<ele>101.127991</ele>
<time>2010-07-17T07:26:03Z</time>
<desc>lat.=55.874844, lon.=26.543791, Alt.=101.127991m. Speed=22.284000m/h.</desc>
<speed>6.190000</speed>
</trkpt>
<trkpt lat="55.874874" lon="26.543716">
<ele>99.950256</ele>
<time>2010-07-17T07:26:04Z</time>
<desc>lat.=55.874874, lon.=26.543716, Alt.=99.950256m. Speed=21.384001m/h.</desc>
<speed>5.940000</speed>
</trkpt>
<trkpt lat="55.874908" lon="26.543634">
<ele>99.702209</ele>
<time>2010-07-17T07:26:05Z</time>
<desc>lat.=55.874908, lon.=26.543634, Alt.=99.702209m. Speed=24.732000m/h.</desc>
<speed>6.870000</speed>
</trkpt>
<trkpt lat="55.874947" lon="26.543554">
<ele>99.172913</ele>
<time>2010-07-17T07:26:06Z</time>
<desc>lat.=55.874947, lon.=26.543554, Alt.=99.172913m. Speed=20.628000m/h.</desc>
<speed>5.730000</speed>
</trkpt>
<trkpt lat="55.874973" lon="26.543488">
<ele>98.940491</ele>
<time>2010-07-17T07:26:07Z</time>
<desc>lat.=55.874973, lon.=26.543488, Alt.=98.940491m. Speed=18.792000m/h.</desc>
<speed>5.220000</speed>
</trkpt>
<trkpt lat="55.874996" lon="26.543427">
<ele>98.141663</ele>
<time>2010-07-17T07:26:08Z</time>
<desc>lat.=55.874996, lon.=26.543427, Alt.=98.141663m. Speed=15.336000m/h.</desc>
<speed>4.260000</speed>
</trkpt>
<trkpt lat="55.875027" lon="26.543367">
<ele>97.063538</ele>
<time>2010-07-17T07:26:09Z</time>
<desc>lat.=55.875027, lon.=26.543367, Alt.=97.063538m. Speed=18.072001m/h.</desc>
<speed>5.020000</speed>
</trkpt>
<trkpt lat="55.875057" lon="26.543306">
<ele>96.315491</ele>
<time>2010-07-17T07:26:10Z</time>
<desc>lat.=55.875057, lon.=26.543306, Alt.=96.315491m. Speed=19.332001m/h.</desc>
<speed>5.370000</speed>
</trkpt>
<trkpt lat="55.875103" lon="26.543221">
<ele>97.069397</ele>
<time>2010-07-17T07:26:11Z</time>
<desc>lat.=55.875103, lon.=26.543221, Alt.=97.069397m. Speed=20.591999m/h.</desc>
<speed>5.720000</speed>
</trkpt>
<trkpt lat="55.875149" lon="26.543139">
<ele>97.161194</ele>
<time>2010-07-17T07:26:12Z</time>
<desc>lat.=55.875149, lon.=26.543139, Alt.=97.161194m. Speed=21.059999m/h.</desc>
<speed>5.850000</speed>
</trkpt>
<trkpt lat="55.875206" lon="26.543053">
<ele>97.465881</ele>
<time>2010-07-17T07:26:13Z</time>
<desc>lat.=55.875206, lon.=26.543053, Alt.=97.465881m. Speed=21.492001m/h.</desc>
<speed>5.970000</speed>
</trkpt>
<trkpt lat="55.875256" lon="26.542969">
<ele>97.491272</ele>
<time>2010-07-17T07:26:14Z</time>
<desc>lat.=55.875256, lon.=26.542969, Alt.=97.491272m. Speed=21.672001m/h.</desc>
<speed>6.020000</speed>
</trkpt>
<trkpt lat="55.875298" lon="26.542896">
<ele>97.473694</ele>
<time>2010-07-17T07:26:15Z</time>
<desc>lat.=55.875298, lon.=26.542896, Alt.=97.473694m. Speed=21.708000m/h.</desc>
<speed>6.030000</speed>
</trkpt>
<trkpt lat="55.875340" lon="26.542828">
<ele>96.803772</ele>
<time>2010-07-17T07:26:16Z</time>
<desc>lat.=55.875340, lon.=26.542828, Alt.=96.803772m. Speed=22.464001m/h.</desc>
<speed>6.240000</speed>
</trkpt>
<trkpt lat="55.875393" lon="26.542742">
<ele>96.813538</ele>
<time>2010-07-17T07:26:17Z</time>
<desc>lat.=55.875393, lon.=26.542742, Alt.=96.813538m. Speed=23.292000m/h.</desc>
<speed>6.470000</speed>
</trkpt>
<trkpt lat="55.875435" lon="26.542658">
<ele>97.307678</ele>
<time>2010-07-17T07:26:18Z</time>
<desc>lat.=55.875435, lon.=26.542658, Alt.=97.307678m. Speed=23.507999m/h.</desc>
<speed>6.530000</speed>
</trkpt>
<trkpt lat="55.875481" lon="26.542585">
<ele>97.155334</ele>
<time>2010-07-17T07:26:19Z</time>
<desc>lat.=55.875481, lon.=26.542585, Alt.=97.155334m. Speed=22.535999m/h.</desc>
<speed>6.260000</speed>
</trkpt>
<trkpt lat="55.875530" lon="26.542507">
<ele>96.905334</ele>
<time>2010-07-17T07:26:20Z</time>
<desc>lat.=55.875530, lon.=26.542507, Alt.=96.905334m. Speed=23.832001m/h.</desc>
<speed>6.620000</speed>
</trkpt>
<trkpt lat="55.875576" lon="26.542423">
<ele>97.227600</ele>
<time>2010-07-17T07:26:21Z</time>
<desc>lat.=55.875576, lon.=26.542423, Alt.=97.227600m. Speed=24.011999m/h.</desc>
<speed>6.670000</speed>
</trkpt>
<trkpt lat="55.875610" lon="26.542337">
<ele>97.762756</ele>
<time>2010-07-17T07:26:22Z</time>
<desc>lat.=55.875610, lon.=26.542337, Alt.=97.762756m. Speed=24.336000m/h.</desc>
<speed>6.760000</speed>
</trkpt>
<trkpt lat="55.875652" lon="26.542259">
<ele>97.805725</ele>
<time>2010-07-17T07:26:23Z</time>
<desc>lat.=55.875652, lon.=26.542259, Alt.=97.805725m. Speed=24.336000m/h.</desc>
<speed>6.760000</speed>
</trkpt>
<trkpt lat="55.875698" lon="26.542179">
<ele>98.163147</ele>
<time>2010-07-17T07:26:24Z</time>
<desc>lat.=55.875698, lon.=26.542179, Alt.=98.163147m. Speed=23.868000m/h.</desc>
<speed>6.630000</speed>
</trkpt>
<trkpt lat="55.875740" lon="26.542103">
<ele>97.934631</ele>
<time>2010-07-17T07:26:25Z</time>
<desc>lat.=55.875740, lon.=26.542103, Alt.=97.934631m. Speed=23.724001m/h.</desc>
<speed>6.590000</speed>
</trkpt>
<trkpt lat="55.875778" lon="26.542021">
<ele>97.911194</ele>
<time>2010-07-17T07:26:26Z</time>
<desc>lat.=55.875778, lon.=26.542021, Alt.=97.911194m. Speed=24.552000m/h.</desc>
<speed>6.820000</speed>
</trkpt>
<trkpt lat="55.875824" lon="26.541941">
<ele>98.094788</ele>
<time>2010-07-17T07:26:27Z</time>
<desc>lat.=55.875824, lon.=26.541941, Alt.=98.094788m. Speed=23.436001m/h.</desc>
<speed>6.510000</speed>
</trkpt>
<trkpt lat="55.875862" lon="26.541861">
<ele>97.842834</ele>
<time>2010-07-17T07:26:28Z</time>
<desc>lat.=55.875862, lon.=26.541861, Alt.=97.842834m. Speed=23.004000m/h.</desc>
<speed>6.390000</speed>
</trkpt>
<trkpt lat="55.875904" lon="26.541788">
<ele>97.862366</ele>
<time>2010-07-17T07:26:29Z</time>
<desc>lat.=55.875904, lon.=26.541788, Alt.=97.862366m. Speed=22.716000m/h.</desc>
<speed>6.310000</speed>
</trkpt>
<trkpt lat="55.875950" lon="26.541712">
<ele>97.747131</ele>
<time>2010-07-17T07:26:30Z</time>
<desc>lat.=55.875950, lon.=26.541712, Alt.=97.747131m. Speed=23.327999m/h.</desc>
<speed>6.480000</speed>
</trkpt>
<trkpt lat="55.875996" lon="26.541639">
<ele>97.641663</ele>
<time>2010-07-17T07:26:31Z</time>
<desc>lat.=55.875996, lon.=26.541639, Alt.=97.641663m. Speed=23.292000m/h.</desc>
<speed>6.470000</speed>
</trkpt>
<trkpt lat="55.876041" lon="26.541557">
<ele>97.471741</ele>
<time>2010-07-17T07:26:32Z</time>
<desc>lat.=55.876041, lon.=26.541557, Alt.=97.471741m. Speed=23.868000m/h.</desc>
<speed>6.630000</speed>
</trkpt>
<trkpt lat="55.876087" lon="26.541473">
<ele>97.614319</ele>
<time>2010-07-17T07:26:33Z</time>
<desc>lat.=55.876087, lon.=26.541473, Alt.=97.614319m. Speed=24.156000m/h.</desc>
<speed>6.710000</speed>
</trkpt>
<trkpt lat="55.876133" lon="26.541388">
<ele>97.528381</ele>
<time>2010-07-17T07:26:34Z</time>
<desc>lat.=55.876133, lon.=26.541388, Alt.=97.528381m. Speed=24.120001m/h.</desc>
<speed>6.700000</speed>
</trkpt>
<trkpt lat="55.876179" lon="26.541306">
<ele>97.163147</ele>
<time>2010-07-17T07:26:35Z</time>
<desc>lat.=55.876179, lon.=26.541306, Alt.=97.163147m. Speed=24.011999m/h.</desc>
<speed>6.670000</speed>
</trkpt>
<trkpt lat="55.876221" lon="26.541220">
<ele>97.106506</ele>
<time>2010-07-17T07:26:36Z</time>
<desc>lat.=55.876221, lon.=26.541220, Alt.=97.106506m. Speed=23.400000m/h.</desc>
<speed>6.500000</speed>
</trkpt>
<trkpt lat="55.876263" lon="26.541145">
<ele>96.960022</ele>
<time>2010-07-17T07:26:37Z</time>
<desc>lat.=55.876263, lon.=26.541145, Alt.=96.960022m. Speed=22.643999m/h.</desc>
<speed>6.290000</speed>
</trkpt>
<trkpt lat="55.876305" lon="26.541069">
<ele>96.616272</ele>
<time>2010-07-17T07:26:38Z</time>
<desc>lat.=55.876305, lon.=26.541069, Alt.=96.616272m. Speed=22.823999m/h.</desc>
<speed>6.340000</speed>
</trkpt>
<trkpt lat="55.876343" lon="26.540993">
<ele>96.555725</ele>
<time>2010-07-17T07:26:39Z</time>
<desc>lat.=55.876343, lon.=26.540993, Alt.=96.555725m. Speed=22.788000m/h.</desc>
<speed>6.330000</speed>
</trkpt>
<trkpt lat="55.876385" lon="26.540922">
<ele>97.077209</ele>
<time>2010-07-17T07:26:40Z</time>
<desc>lat.=55.876385, lon.=26.540922, Alt.=97.077209m. Speed=22.716000m/h.</desc>
<speed>6.310000</speed>
</trkpt>
<trkpt lat="55.876431" lon="26.540854">
<ele>96.745178</ele>
<time>2010-07-17T07:26:41Z</time>
<desc>lat.=55.876431, lon.=26.540854, Alt.=96.745178m. Speed=22.896000m/h.</desc>
<speed>6.360000</speed>
</trkpt>
<trkpt lat="55.876472" lon="26.540787">
<ele>96.686584</ele>
<time>2010-07-17T07:26:42Z</time>
<desc>lat.=55.876472, lon.=26.540787, Alt.=96.686584m. Speed=21.600000m/h.</desc>
<speed>6.000000</speed>
</trkpt>
<trkpt lat="55.876514" lon="26.540714">
<ele>96.893616</ele>
<time>2010-07-17T07:26:43Z</time>
<desc>lat.=55.876514, lon.=26.540714, Alt.=96.893616m. Speed=21.132000m/h.</desc>
<speed>5.870000</speed>
</trkpt>
<trkpt lat="55.876556" lon="26.540644">
<ele>97.055725</ele>
<time>2010-07-17T07:26:44Z</time>
<desc>lat.=55.876556, lon.=26.540644, Alt.=97.055725m. Speed=21.348000m/h.</desc>
<speed>5.930000</speed>
</trkpt>
<trkpt lat="55.876595" lon="26.540573">
<ele>97.440491</ele>
<time>2010-07-17T07:26:45Z</time>
<desc>lat.=55.876595, lon.=26.540573, Alt.=97.440491m. Speed=22.068001m/h.</desc>
<speed>6.130000</speed>
</trkpt>
<trkpt lat="55.876640" lon="26.540504">
<ele>97.596741</ele>
<time>2010-07-17T07:26:46Z</time>
<desc>lat.=55.876640, lon.=26.540504, Alt.=97.596741m. Speed=22.392000m/h.</desc>
<speed>6.220000</speed>
</trkpt>
<trkpt lat="55.876686" lon="26.540442">
<ele>97.840881</ele>
<time>2010-07-17T07:26:47Z</time>
<desc>lat.=55.876686, lon.=26.540442, Alt.=97.840881m. Speed=22.392000m/h.</desc>
<speed>6.220000</speed>
</trkpt>
<trkpt lat="55.876736" lon="26.540388">
<ele>98.596741</ele>
<time>2010-07-17T07:26:48Z</time>
<desc>lat.=55.876736, lon.=26.540388, Alt.=98.596741m. Speed=22.356001m/h.</desc>
<speed>6.210000</speed>
</trkpt>
<trkpt lat="55.876785" lon="26.540337">
<ele>98.163147</ele>
<time>2010-07-17T07:26:49Z</time>
<desc>lat.=55.876785, lon.=26.540337, Alt.=98.163147m. Speed=21.204000m/h.</desc>
<speed>5.890000</speed>
</trkpt>
<trkpt lat="55.876835" lon="26.540298">
<ele>98.313538</ele>
<time>2010-07-17T07:26:50Z</time>
<desc>lat.=55.876835, lon.=26.540298, Alt.=98.313538m. Speed=20.988001m/h.</desc>
<speed>5.830000</speed>
</trkpt>
<trkpt lat="55.876881" lon="26.540266">
<ele>98.672913</ele>
<time>2010-07-17T07:26:51Z</time>
<desc>lat.=55.876881, lon.=26.540266, Alt.=98.672913m. Speed=20.483999m/h.</desc>
<speed>5.690000</speed>
</trkpt>
<trkpt lat="55.876930" lon="26.540249">
<ele>98.460022</ele>
<time>2010-07-17T07:26:52Z</time>
<desc>lat.=55.876930, lon.=26.540249, Alt.=98.460022m. Speed=19.836000m/h.</desc>
<speed>5.510000</speed>
</trkpt>
<trkpt lat="55.876984" lon="26.540232">
<ele>98.045959</ele>
<time>2010-07-17T07:26:53Z</time>
<desc>lat.=55.876984, lon.=26.540232, Alt.=98.045959m. Speed=19.944000m/h.</desc>
<speed>5.540000</speed>
</trkpt>
<trkpt lat="55.877037" lon="26.540232">
<ele>99.182678</ele>
<time>2010-07-17T07:26:54Z</time>
<desc>lat.=55.877037, lon.=26.540232, Alt.=99.182678m. Speed=19.368000m/h.</desc>
<speed>5.380000</speed>
</trkpt>
<trkpt lat="55.877090" lon="26.540224">
<ele>100.126038</ele>
<time>2010-07-17T07:26:55Z</time>
<desc>lat.=55.877090, lon.=26.540224, Alt.=100.126038m. Speed=18.108000m/h.</desc>
<speed>5.030000</speed>
</trkpt>
<trkpt lat="55.877132" lon="26.540226">
<ele>99.913147</ele>
<time>2010-07-17T07:26:56Z</time>
<desc>lat.=55.877132, lon.=26.540226, Alt.=99.913147m. Speed=18.612000m/h.</desc>
<speed>5.170000</speed>
</trkpt>
<trkpt lat="55.877174" lon="26.540220">
<ele>100.354553</ele>
<time>2010-07-17T07:26:57Z</time>
<desc>lat.=55.877174, lon.=26.540220, Alt.=100.354553m. Speed=15.084000m/h.</desc>
<speed>4.190000</speed>
</trkpt>
<trkpt lat="55.877220" lon="26.540215">
<ele>101.200256</ele>
<time>2010-07-17T07:26:58Z</time>
<desc>lat.=55.877220, lon.=26.540215, Alt.=101.200256m. Speed=19.007999m/h.</desc>
<speed>5.280000</speed>
</trkpt>
<trkpt lat="55.877266" lon="26.540216">
<ele>101.497131</ele>
<time>2010-07-17T07:26:59Z</time>
<desc>lat.=55.877266, lon.=26.540216, Alt.=101.497131m. Speed=16.128000m/h.</desc>
<speed>4.480000</speed>
</trkpt>
<trkpt lat="55.877312" lon="26.540211">
<ele>101.721741</ele>
<time>2010-07-17T07:27:00Z</time>
<desc>lat.=55.877312, lon.=26.540211, Alt.=101.721741m. Speed=18.648001m/h.</desc>
<speed>5.180000</speed>
</trkpt>
<trkpt lat="55.877354" lon="26.540222">
<ele>101.440491</ele>
<time>2010-07-17T07:27:01Z</time>
<desc>lat.=55.877354, lon.=26.540222, Alt.=101.440491m. Speed=18.827999m/h.</desc>
<speed>5.230000</speed>
</trkpt>
<trkpt lat="55.877392" lon="26.540213">
<ele>100.542053</ele>
<time>2010-07-17T07:27:02Z</time>
<desc>lat.=55.877392, lon.=26.540213, Alt.=100.542053m. Speed=20.736000m/h.</desc>
<speed>5.760000</speed>
</trkpt>
<trkpt lat="55.877430" lon="26.540201">
<ele>100.092834</ele>
<time>2010-07-17T07:27:03Z</time>
<desc>lat.=55.877430, lon.=26.540201, Alt.=100.092834m. Speed=20.591999m/h.</desc>
<speed>5.720000</speed>
</trkpt>
<trkpt lat="55.877483" lon="26.540199">
<ele>101.034241</ele>
<time>2010-07-17T07:27:04Z</time>
<desc>lat.=55.877483, lon.=26.540199, Alt.=101.034241m. Speed=19.224001m/h.</desc>
<speed>5.340000</speed>
</trkpt>
<trkpt lat="55.877525" lon="26.540190">
<ele>101.102600</ele>
<time>2010-07-17T07:27:05Z</time>
<desc>lat.=55.877525, lon.=26.540190, Alt.=101.102600m. Speed=18.431999m/h.</desc>
<speed>5.120000</speed>
</trkpt>
<trkpt lat="55.877571" lon="26.540171">
<ele>101.999084</ele>
<time>2010-07-17T07:27:06Z</time>
<desc>lat.=55.877571, lon.=26.540171, Alt.=101.999084m. Speed=19.368000m/h.</desc>
<speed>5.380000</speed>
</trkpt>
<trkpt lat="55.877621" lon="26.540144">
<ele>101.858459</ele>
<time>2010-07-17T07:27:07Z</time>
<desc>lat.=55.877621, lon.=26.540144, Alt.=101.858459m. Speed=17.208000m/h.</desc>
<speed>4.780000</speed>
</trkpt>
<trkpt lat="55.877663" lon="26.540121">
<ele>102.522522</ele>
<time>2010-07-17T07:27:08Z</time>
<desc>lat.=55.877663, lon.=26.540121, Alt.=102.522522m. Speed=17.747999m/h.</desc>
<speed>4.930000</speed>
</trkpt>
<trkpt lat="55.877708" lon="26.540092">
<ele>102.512756</ele>
<time>2010-07-17T07:27:09Z</time>
<desc>lat.=55.877708, lon.=26.540092, Alt.=102.512756m. Speed=16.344000m/h.</desc>
<speed>4.540000</speed>
</trkpt>
<trkpt lat="55.877743" lon="26.540071">
<ele>102.534241</ele>
<time>2010-07-17T07:27:10Z</time>
<desc>lat.=55.877743, lon.=26.540071, Alt.=102.534241m. Speed=16.416000m/h.</desc>
<speed>4.560000</speed>
</trkpt>
<trkpt lat="55.877789" lon="26.540058">
<ele>102.876038</ele>
<time>2010-07-17T07:27:11Z</time>
<desc>lat.=55.877789, lon.=26.540058, Alt.=102.876038m. Speed=17.784000m/h.</desc>
<speed>4.940000</speed>
</trkpt>
<trkpt lat="55.877842" lon="26.540049">
<ele>102.897522</ele>
<time>2010-07-17T07:27:12Z</time>
<desc>lat.=55.877842, lon.=26.540049, Alt.=102.897522m. Speed=20.988001m/h.</desc>
<speed>5.830000</speed>
</trkpt>
<trkpt lat="55.877892" lon="26.540035">
<ele>102.920959</ele>
<time>2010-07-17T07:27:13Z</time>
<desc>lat.=55.877892, lon.=26.540035, Alt.=102.920959m. Speed=21.024000m/h.</desc>
<speed>5.840000</speed>
</trkpt>
<trkpt lat="55.877941" lon="26.540022">
<ele>103.047913</ele>
<time>2010-07-17T07:27:14Z</time>
<desc>lat.=55.877941, lon.=26.540022, Alt.=103.047913m. Speed=19.584000m/h.</desc>
<speed>5.440000</speed>
</trkpt>
<trkpt lat="55.877991" lon="26.540001">
<ele>102.657288</ele>
<time>2010-07-17T07:27:15Z</time>
<desc>lat.=55.877991, lon.=26.540001, Alt.=102.657288m. Speed=19.656000m/h.</desc>
<speed>5.460000</speed>
</trkpt>
<trkpt lat="55.878040" lon="26.539986">
<ele>102.426819</ele>
<time>2010-07-17T07:27:16Z</time>
<desc>lat.=55.878040, lon.=26.539986, Alt.=102.426819m. Speed=21.132000m/h.</desc>
<speed>5.870000</speed>
</trkpt>
<trkpt lat="55.878105" lon="26.539974">
<ele>102.145569</ele>
<time>2010-07-17T07:27:17Z</time>
<desc>lat.=55.878105, lon.=26.539974, Alt.=102.145569m. Speed=22.427999m/h.</desc>
<speed>6.230000</speed>
</trkpt>
<trkpt lat="55.878166" lon="26.539957">
<ele>101.438538</ele>
<time>2010-07-17T07:27:18Z</time>
<desc>lat.=55.878166, lon.=26.539957, Alt.=101.438538m. Speed=21.275999m/h.</desc>
<speed>5.910000</speed>
</trkpt>
<trkpt lat="55.878227" lon="26.539942">
<ele>100.641663</ele>
<time>2010-07-17T07:27:19Z</time>
<desc>lat.=55.878227, lon.=26.539942, Alt.=100.641663m. Speed=21.743999m/h.</desc>
<speed>6.040000</speed>
</trkpt>
<trkpt lat="55.878277" lon="26.539928">
<ele>100.051819</ele>
<time>2010-07-17T07:27:20Z</time>
<desc>lat.=55.878277, lon.=26.539928, Alt.=100.051819m. Speed=19.980000m/h.</desc>
<speed>5.550000</speed>
</trkpt>
<trkpt lat="55.878330" lon="26.539921">
<ele>100.760803</ele>
<time>2010-07-17T07:27:21Z</time>
<desc>lat.=55.878330, lon.=26.539921, Alt.=100.760803m. Speed=18.216000m/h.</desc>
<speed>5.060000</speed>
</trkpt>
<trkpt lat="55.878372" lon="26.539925">
<ele>101.899475</ele>
<time>2010-07-17T07:27:22Z</time>
<desc>lat.=55.878372, lon.=26.539925, Alt.=101.899475m. Speed=8.496000m/h.</desc>
<speed>2.360000</speed>
</trkpt>
<trkpt lat="55.878391" lon="26.539919">
<ele>102.157288</ele>
<time>2010-07-17T07:27:23Z</time>
<desc>lat.=55.878391, lon.=26.539919, Alt.=102.157288m. Speed=6.228000m/h.</desc>
<speed>1.730000</speed>
</trkpt>
<trkpt lat="55.878426" lon="26.539923">
<ele>102.198303</ele>
<time>2010-07-17T07:27:24Z</time>
<desc>lat.=55.878426, lon.=26.539923, Alt.=102.198303m. Speed=7.416000m/h.</desc>
<speed>2.060000</speed>
</trkpt>
<trkpt lat="55.878460" lon="26.539928">
<ele>101.583069</ele>
<time>2010-07-17T07:27:25Z</time>
<desc>lat.=55.878460, lon.=26.539928, Alt.=101.583069m. Speed=7.452000m/h.</desc>
<speed>2.070000</speed>
</trkpt>
<trkpt lat="55.878498" lon="26.539925">
<ele>100.137756</ele>
<time>2010-07-17T07:27:26Z</time>
<desc>lat.=55.878498, lon.=26.539925, Alt.=100.137756m. Speed=8.496000m/h.</desc>
<speed>2.360000</speed>
</trkpt>
<trkpt lat="55.878525" lon="26.539917">
<ele>100.026428</ele>
<time>2010-07-17T07:27:27Z</time>
<desc>lat.=55.878525, lon.=26.539917, Alt.=100.026428m. Speed=10.368000m/h.</desc>
<speed>2.880000</speed>
</trkpt>
<trkpt lat="55.878567" lon="26.539913">
<ele>100.034241</ele>
<time>2010-07-17T07:27:28Z</time>
<desc>lat.=55.878567, lon.=26.539913, Alt.=100.034241m. Speed=10.728000m/h.</desc>
<speed>2.980000</speed>
</trkpt>
<trkpt lat="55.878593" lon="26.539906">
<ele>99.581116</ele>
<time>2010-07-17T07:27:29Z</time>
<desc>lat.=55.878593, lon.=26.539906, Alt.=99.581116m. Speed=12.492000m/h.</desc>
<speed>3.470000</speed>
</trkpt>
<trkpt lat="55.878624" lon="26.539919">
<ele>99.376038</ele>
<time>2010-07-17T07:27:30Z</time>
<desc>lat.=55.878624, lon.=26.539919, Alt.=99.376038m. Speed=15.048000m/h.</desc>
<speed>4.180000</speed>
</trkpt>
<trkpt lat="55.878651" lon="26.540005">
<ele>104.372131</ele>
<time>2010-07-17T07:27:31Z</time>
<desc>lat.=55.878651, lon.=26.540005, Alt.=104.372131m. Speed=15.552000m/h.</desc>
<speed>4.320000</speed>
</trkpt>
<trkpt lat="55.878685" lon="26.540079">
<ele>105.194397</ele>
<time>2010-07-17T07:27:32Z</time>
<desc>lat.=55.878685, lon.=26.540079, Alt.=105.194397m. Speed=18.216000m/h.</desc>
<speed>5.060000</speed>
</trkpt>
<trkpt lat="55.878704" lon="26.540161">
<ele>106.794006</ele>
<time>2010-07-17T07:27:33Z</time>
<desc>lat.=55.878704, lon.=26.540161, Alt.=106.794006m. Speed=18.000000m/h.</desc>
<speed>5.000000</speed>
</trkpt>
<trkpt lat="55.878727" lon="26.540239">
<ele>107.024475</ele>
<time>2010-07-17T07:27:34Z</time>
<desc>lat.=55.878727, lon.=26.540239, Alt.=107.024475m. Speed=19.440001m/h.</desc>
<speed>5.400000</speed>
</trkpt>
<trkpt lat="55.878784" lon="26.540314">
<ele>107.147522</ele>
<time>2010-07-17T07:27:35Z</time>
<desc>lat.=55.878784, lon.=26.540314, Alt.=107.147522m. Speed=21.672001m/h.</desc>
<speed>6.020000</speed>
</trkpt>
<trkpt lat="55.878849" lon="26.540371">
<ele>108.809631</ele>
<time>2010-07-17T07:27:36Z</time>
<desc>lat.=55.878849, lon.=26.540371, Alt.=108.809631m. Speed=22.931999m/h.</desc>
<speed>6.370000</speed>
</trkpt>
<trkpt lat="55.878899" lon="26.540415">
<ele>109.350647</ele>
<time>2010-07-17T07:27:37Z</time>
<desc>lat.=55.878899, lon.=26.540415, Alt.=109.350647m. Speed=20.916000m/h.</desc>
<speed>5.810000</speed>
</trkpt>
<trkpt lat="55.878956" lon="26.540415">
<ele>109.393616</ele>
<time>2010-07-17T07:27:38Z</time>
<desc>lat.=55.878956, lon.=26.540415, Alt.=109.393616m. Speed=20.340000m/h.</desc>
<speed>5.650000</speed>
</trkpt>
<trkpt lat="55.879002" lon="26.540384">
<ele>109.762756</ele>
<time>2010-07-17T07:27:39Z</time>
<desc>lat.=55.879002, lon.=26.540384, Alt.=109.762756m. Speed=16.955999m/h.</desc>
<speed>4.710000</speed>
</trkpt>
<trkpt lat="55.879036" lon="26.540318">
<ele>109.905334</ele>
<time>2010-07-17T07:27:40Z</time>
<desc>lat.=55.879036, lon.=26.540318, Alt.=109.905334m. Speed=21.743999m/h.</desc>
<speed>6.040000</speed>
</trkpt>
<trkpt lat="55.879078" lon="26.540226">
<ele>108.399475</ele>
<time>2010-07-17T07:27:41Z</time>
<desc>lat.=55.879078, lon.=26.540226, Alt.=108.399475m. Speed=23.976000m/h.</desc>
<speed>6.660000</speed>
</trkpt>
<trkpt lat="55.879112" lon="26.540136">
<ele>107.854553</ele>
<time>2010-07-17T07:27:42Z</time>
<desc>lat.=55.879112, lon.=26.540136, Alt.=107.854553m. Speed=23.688000m/h.</desc>
<speed>6.580000</speed>
</trkpt>
<trkpt lat="55.879169" lon="26.540045">
<ele>107.579163</ele>
<time>2010-07-17T07:27:43Z</time>
<desc>lat.=55.879169, lon.=26.540045, Alt.=107.579163m. Speed=23.796000m/h.</desc>
<speed>6.610000</speed>
</trkpt>
<trkpt lat="55.879234" lon="26.539993">
<ele>106.475647</ele>
<time>2010-07-17T07:27:44Z</time>
<desc>lat.=55.879234, lon.=26.539993, Alt.=106.475647m. Speed=23.868000m/h.</desc>
<speed>6.630000</speed>
</trkpt>
<trkpt lat="55.879303" lon="26.539955">
<ele>105.413147</ele>
<time>2010-07-17T07:27:45Z</time>
<desc>lat.=55.879303, lon.=26.539955, Alt.=105.413147m. Speed=23.688000m/h.</desc>
<speed>6.580000</speed>
</trkpt>
<trkpt lat="55.879372" lon="26.539934">
<ele>105.778381</ele>
<time>2010-07-17T07:27:46Z</time>
<desc>lat.=55.879372, lon.=26.539934, Alt.=105.778381m. Speed=24.120001m/h.</desc>
<speed>6.700000</speed>
</trkpt>
<trkpt lat="55.879429" lon="26.539927">
<ele>105.639709</ele>
<time>2010-07-17T07:27:47Z</time>
<desc>lat.=55.879429, lon.=26.539927, Alt.=105.639709m. Speed=24.372000m/h.</desc>
<speed>6.770000</speed>
</trkpt>
<trkpt lat="55.879486" lon="26.539923">
<ele>105.014709</ele>
<time>2010-07-17T07:27:48Z</time>
<desc>lat.=55.879486, lon.=26.539923, Alt.=105.014709m. Speed=23.615999m/h.</desc>
<speed>6.560000</speed>
</trkpt>
<trkpt lat="55.879551" lon="26.539913">
<ele>103.903381</ele>
<time>2010-07-17T07:27:49Z</time>
<desc>lat.=55.879551, lon.=26.539913, Alt.=103.903381m. Speed=24.191999m/h.</desc>
<speed>6.720000</speed>
</trkpt>
<trkpt lat="55.879616" lon="26.539900">
<ele>103.442444</ele>
<time>2010-07-17T07:27:50Z</time>
<desc>lat.=55.879616, lon.=26.539900, Alt.=103.442444m. Speed=23.976000m/h.</desc>
<speed>6.660000</speed>
</trkpt>
<trkpt lat="55.879673" lon="26.539888">
<ele>102.667053</ele>
<time>2010-07-17T07:27:51Z</time>
<desc>lat.=55.879673, lon.=26.539888, Alt.=102.667053m. Speed=23.832001m/h.</desc>
<speed>6.620000</speed>
</trkpt>
<trkpt lat="55.879734" lon="26.539875">
<ele>101.727600</ele>
<time>2010-07-17T07:27:52Z</time>
<desc>lat.=55.879734, lon.=26.539875, Alt.=101.727600m. Speed=23.507999m/h.</desc>
<speed>6.530000</speed>
</trkpt>
<trkpt lat="55.879795" lon="26.539856">
<ele>101.333069</ele>
<time>2010-07-17T07:27:53Z</time>
<desc>lat.=55.879795, lon.=26.539856, Alt.=101.333069m. Speed=22.535999m/h.</desc>
<speed>6.260000</speed>
</trkpt>
<trkpt lat="55.879868" lon="26.539860">
<ele>102.432678</ele>
<time>2010-07-17T07:27:54Z</time>
<desc>lat.=55.879868, lon.=26.539860, Alt.=102.432678m. Speed=24.912001m/h.</desc>
<speed>6.920000</speed>
</trkpt>
<trkpt lat="55.879932" lon="26.539856">
<ele>102.774475</ele>
<time>2010-07-17T07:27:55Z</time>
<desc>lat.=55.879932, lon.=26.539856, Alt.=102.774475m. Speed=24.156000m/h.</desc>
<speed>6.710000</speed>
</trkpt>
<trkpt lat="55.879997" lon="26.539854">
<ele>103.241272</ele>
<time>2010-07-17T07:27:56Z</time>
<desc>lat.=55.879997, lon.=26.539854, Alt.=103.241272m. Speed=25.236000m/h.</desc>
<speed>7.010000</speed>
</trkpt>
<trkpt lat="55.880043" lon="26.539835">
<ele>104.524475</ele>
<time>2010-07-17T07:27:57Z</time>
<desc>lat.=55.880043, lon.=26.539835, Alt.=104.524475m. Speed=23.472000m/h.</desc>
<speed>6.520000</speed>
</trkpt>
<trkpt lat="55.880108" lon="26.539827">
<ele>104.836975</ele>
<time>2010-07-17T07:27:58Z</time>
<desc>lat.=55.880108, lon.=26.539827, Alt.=104.836975m. Speed=23.327999m/h.</desc>
<speed>6.480000</speed>
</trkpt>
<trkpt lat="55.880165" lon="26.539812">
<ele>105.729553</ele>
<time>2010-07-17T07:27:59Z</time>
<desc>lat.=55.880165, lon.=26.539812, Alt.=105.729553m. Speed=25.128000m/h.</desc>
<speed>6.980000</speed>
</trkpt>
<trkpt lat="55.880226" lon="26.539785">
<ele>105.657288</ele>
<time>2010-07-17T07:28:00Z</time>
<desc>lat.=55.880226, lon.=26.539785, Alt.=105.657288m. Speed=24.912001m/h.</desc>
<speed>6.920000</speed>
</trkpt>
<trkpt lat="55.880291" lon="26.539762">
<ele>105.579163</ele>
<time>2010-07-17T07:28:01Z</time>
<desc>lat.=55.880291, lon.=26.539762, Alt.=105.579163m. Speed=24.875999m/h.</desc>
<speed>6.910000</speed>
</trkpt>
<trkpt lat="55.880356" lon="26.539747">
<ele>105.815491</ele>
<time>2010-07-17T07:28:02Z</time>
<desc>lat.=55.880356, lon.=26.539747, Alt.=105.815491m. Speed=25.416000m/h.</desc>
<speed>7.060000</speed>
</trkpt>
<trkpt lat="55.880421" lon="26.539732">
<ele>105.872131</ele>
<time>2010-07-17T07:28:03Z</time>
<desc>lat.=55.880421, lon.=26.539732, Alt.=105.872131m. Speed=25.308001m/h.</desc>
<speed>7.030000</speed>
</trkpt>
<trkpt lat="55.880482" lon="26.539728">
<ele>106.221741</ele>
<time>2010-07-17T07:28:04Z</time>
<desc>lat.=55.880482, lon.=26.539728, Alt.=106.221741m. Speed=25.559999m/h.</desc>
<speed>7.100000</speed>
</trkpt>
<trkpt lat="55.880547" lon="26.539724">
<ele>106.422913</ele>
<time>2010-07-17T07:28:05Z</time>
<desc>lat.=55.880547, lon.=26.539724, Alt.=106.422913m. Speed=24.660000m/h.</desc>
<speed>6.850000</speed>
</trkpt>
<trkpt lat="55.880608" lon="26.539722">
<ele>105.643616</ele>
<time>2010-07-17T07:28:06Z</time>
<desc>lat.=55.880608, lon.=26.539722, Alt.=105.643616m. Speed=23.940001m/h.</desc>
<speed>6.650000</speed>
</trkpt>
<trkpt lat="55.880665" lon="26.539713">
<ele>105.368225</ele>
<time>2010-07-17T07:28:07Z</time>
<desc>lat.=55.880665, lon.=26.539713, Alt.=105.368225m. Speed=22.931999m/h.</desc>
<speed>6.370000</speed>
</trkpt>
<trkpt lat="55.880722" lon="26.539711">
<ele>105.174866</ele>
<time>2010-07-17T07:28:08Z</time>
<desc>lat.=55.880722, lon.=26.539711, Alt.=105.174866m. Speed=22.788000m/h.</desc>
<speed>6.330000</speed>
</trkpt>
<trkpt lat="55.880775" lon="26.539703">
<ele>105.477600</ele>
<time>2010-07-17T07:28:09Z</time>
<desc>lat.=55.880775, lon.=26.539703, Alt.=105.477600m. Speed=23.436001m/h.</desc>
<speed>6.510000</speed>
</trkpt>
<trkpt lat="55.880833" lon="26.539692">
<ele>105.479553</ele>
<time>2010-07-17T07:28:10Z</time>
<desc>lat.=55.880833, lon.=26.539692, Alt.=105.479553m. Speed=23.868000m/h.</desc>
<speed>6.630000</speed>
</trkpt>
<trkpt lat="55.880898" lon="26.539690">
<ele>105.243225</ele>
<time>2010-07-17T07:28:11Z</time>
<desc>lat.=55.880898, lon.=26.539690, Alt.=105.243225m. Speed=24.299999m/h.</desc>
<speed>6.750000</speed>
</trkpt>
<trkpt lat="55.880959" lon="26.539686">
<ele>105.086975</ele>
<time>2010-07-17T07:28:12Z</time>
<desc>lat.=55.880959, lon.=26.539686, Alt.=105.086975m. Speed=23.724001m/h.</desc>
<speed>6.590000</speed>
</trkpt>
<trkpt lat="55.881016" lon="26.539673">
<ele>104.971741</ele>
<time>2010-07-17T07:28:13Z</time>
<desc>lat.=55.881016, lon.=26.539673, Alt.=104.971741m. Speed=24.228001m/h.</desc>
<speed>6.730000</speed>
</trkpt>
<trkpt lat="55.881073" lon="26.539652">
<ele>105.518616</ele>
<time>2010-07-17T07:28:14Z</time>
<desc>lat.=55.881073, lon.=26.539652, Alt.=105.518616m. Speed=24.660000m/h.</desc>
<speed>6.850000</speed>
</trkpt>
<trkpt lat="55.881134" lon="26.539644">
<ele>105.424866</ele>
<time>2010-07-17T07:28:15Z</time>
<desc>lat.=55.881134, lon.=26.539644, Alt.=105.424866m. Speed=23.903999m/h.</desc>
<speed>6.640000</speed>
</trkpt>
<trkpt lat="55.881191" lon="26.539631">
<ele>104.973694</ele>
<time>2010-07-17T07:28:16Z</time>
<desc>lat.=55.881191, lon.=26.539631, Alt.=104.973694m. Speed=23.040001m/h.</desc>
<speed>6.400000</speed>
</trkpt>
<trkpt lat="55.881252" lon="26.539619">
<ele>104.417053</ele>
<time>2010-07-17T07:28:17Z</time>
<desc>lat.=55.881252, lon.=26.539619, Alt.=104.417053m. Speed=22.356001m/h.</desc>
<speed>6.210000</speed>
</trkpt>
<trkpt lat="55.881310" lon="26.539610">
<ele>104.335022</ele>
<time>2010-07-17T07:28:18Z</time>
<desc>lat.=55.881310, lon.=26.539610, Alt.=104.335022m. Speed=21.167999m/h.</desc>
<speed>5.880000</speed>
</trkpt>
<trkpt lat="55.881363" lon="26.539597">
<ele>104.077209</ele>
<time>2010-07-17T07:28:19Z</time>
<desc>lat.=55.881363, lon.=26.539597, Alt.=104.077209m. Speed=21.024000m/h.</desc>
<speed>5.840000</speed>
</trkpt>
<trkpt lat="55.881420" lon="26.539581">
<ele>103.805725</ele>
<time>2010-07-17T07:28:20Z</time>
<desc>lat.=55.881420, lon.=26.539581, Alt.=103.805725m. Speed=21.167999m/h.</desc>
<speed>5.880000</speed>
</trkpt>
<trkpt lat="55.881477" lon="26.539562">
<ele>103.965881</ele>
<time>2010-07-17T07:28:21Z</time>
<desc>lat.=55.881477, lon.=26.539562, Alt.=103.965881m. Speed=21.455999m/h.</desc>
<speed>5.960000</speed>
</trkpt>
<trkpt lat="55.881531" lon="26.539539">
<ele>103.948303</ele>
<time>2010-07-17T07:28:22Z</time>
<desc>lat.=55.881531, lon.=26.539539, Alt.=103.948303m. Speed=21.851999m/h.</desc>
<speed>6.070000</speed>
</trkpt>
<trkpt lat="55.881580" lon="26.539486">
<ele>103.649475</ele>
<time>2010-07-17T07:28:23Z</time>
<desc>lat.=55.881580, lon.=26.539486, Alt.=103.649475m. Speed=23.184000m/h.</desc>
<speed>6.440000</speed>
</trkpt>
<trkpt lat="55.881618" lon="26.539410">
<ele>103.387756</ele>
<time>2010-07-17T07:28:24Z</time>
<desc>lat.=55.881618, lon.=26.539410, Alt.=103.387756m. Speed=22.427999m/h.</desc>
<speed>6.230000</speed>
</trkpt>
<trkpt lat="55.881641" lon="26.539322">
<ele>103.327209</ele>
<time>2010-07-17T07:28:25Z</time>
<desc>lat.=55.881641, lon.=26.539322, Alt.=103.327209m. Speed=22.500000m/h.</desc>
<speed>6.250000</speed>
</trkpt>
<trkpt lat="55.881653" lon="26.539221">
<ele>103.352600</ele>
<time>2010-07-17T07:28:26Z</time>
<desc>lat.=55.881653, lon.=26.539221, Alt.=103.352600m. Speed=22.896000m/h.</desc>
<speed>6.360000</speed>
</trkpt>
<trkpt lat="55.881657" lon="26.539112">
<ele>103.112366</ele>
<time>2010-07-17T07:28:27Z</time>
<desc>lat.=55.881657, lon.=26.539112, Alt.=103.112366m. Speed=23.724001m/h.</desc>
<speed>6.590000</speed>
</trkpt>
<trkpt lat="55.881660" lon="26.539001">
<ele>103.307678</ele>
<time>2010-07-17T07:28:28Z</time>
<desc>lat.=55.881660, lon.=26.539001, Alt.=103.307678m. Speed=24.587999m/h.</desc>
<speed>6.830000</speed>
</trkpt>
<trkpt lat="55.881657" lon="26.538893">
<ele>103.454163</ele>
<time>2010-07-17T07:28:29Z</time>
<desc>lat.=55.881657, lon.=26.538893, Alt.=103.454163m. Speed=25.740000m/h.</desc>
<speed>7.150000</speed>
</trkpt>
<trkpt lat="55.881653" lon="26.538774">
<ele>102.483459</ele>
<time>2010-07-17T07:28:30Z</time>
<desc>lat.=55.881653, lon.=26.538774, Alt.=102.483459m. Speed=25.992001m/h.</desc>
<speed>7.220000</speed>
</trkpt>
<trkpt lat="55.881653" lon="26.538649">
<ele>102.485413</ele>
<time>2010-07-17T07:28:31Z</time>
<desc>lat.=55.881653, lon.=26.538649, Alt.=102.485413m. Speed=26.351999m/h.</desc>
<speed>7.320000</speed>
</trkpt>
<trkpt lat="55.881645" lon="26.538532">
<ele>101.934631</ele>
<time>2010-07-17T07:28:32Z</time>
<desc>lat.=55.881645, lon.=26.538532, Alt.=101.934631m. Speed=26.280001m/h.</desc>
<speed>7.300000</speed>
</trkpt>
<trkpt lat="55.881626" lon="26.538418">
<ele>102.227600</ele>
<time>2010-07-17T07:28:33Z</time>
<desc>lat.=55.881626, lon.=26.538418, Alt.=102.227600m. Speed=25.596001m/h.</desc>
<speed>7.110000</speed>
</trkpt>
<trkpt lat="55.881618" lon="26.538301">
<ele>102.319397</ele>
<time>2010-07-17T07:28:34Z</time>
<desc>lat.=55.881618, lon.=26.538301, Alt.=102.319397m. Speed=25.740000m/h.</desc>
<speed>7.150000</speed>
</trkpt>
<trkpt lat="55.881615" lon="26.538187">
<ele>102.165100</ele>
<time>2010-07-17T07:28:35Z</time>
<desc>lat.=55.881615, lon.=26.538187, Alt.=102.165100m. Speed=25.200001m/h.</desc>
<speed>7.000000</speed>
</trkpt>
<trkpt lat="55.881615" lon="26.538071">
<ele>101.840881</ele>
<time>2010-07-17T07:28:36Z</time>
<desc>lat.=55.881615, lon.=26.538071, Alt.=101.840881m. Speed=25.452000m/h.</desc>
<speed>7.070000</speed>
</trkpt>
<trkpt lat="55.881607" lon="26.537960">
<ele>101.799866</ele>
<time>2010-07-17T07:28:37Z</time>
<desc>lat.=55.881607, lon.=26.537960, Alt.=101.799866m. Speed=25.452000m/h.</desc>
<speed>7.070000</speed>
</trkpt>
<trkpt lat="55.881580" lon="26.537846">
<ele>102.180725</ele>
<time>2010-07-17T07:28:38Z</time>
<desc>lat.=55.881580, lon.=26.537846, Alt.=102.180725m. Speed=25.200001m/h.</desc>
<speed>7.000000</speed>
</trkpt>
<trkpt lat="55.881569" lon="26.537737">
<ele>102.452209</ele>
<time>2010-07-17T07:28:39Z</time>
<desc>lat.=55.881569, lon.=26.537737, Alt.=102.452209m. Speed=25.020000m/h.</desc>
<speed>6.950000</speed>
</trkpt>
<trkpt lat="55.881565" lon="26.537632">
<ele>102.534241</ele>
<time>2010-07-17T07:28:40Z</time>
<desc>lat.=55.881565, lon.=26.537632, Alt.=102.534241m. Speed=24.804001m/h.</desc>
<speed>6.890000</speed>
</trkpt>
<trkpt lat="55.881561" lon="26.537523">
<ele>102.473694</ele>
<time>2010-07-17T07:28:41Z</time>
<desc>lat.=55.881561, lon.=26.537523, Alt.=102.473694m. Speed=24.768000m/h.</desc>
<speed>6.880000</speed>
</trkpt>
<trkpt lat="55.881561" lon="26.537413">
<ele>102.358459</ele>
<time>2010-07-17T07:28:42Z</time>
<desc>lat.=55.881561, lon.=26.537413, Alt.=102.358459m. Speed=25.236000m/h.</desc>
<speed>7.010000</speed>
</trkpt>
<trkpt lat="55.881542" lon="26.537304">
<ele>102.463928</ele>
<time>2010-07-17T07:28:43Z</time>
<desc>lat.=55.881542, lon.=26.537304, Alt.=102.463928m. Speed=24.840000m/h.</desc>
<speed>6.900000</speed>
</trkpt>
<trkpt lat="55.881542" lon="26.537191">
<ele>102.446350</ele>
<time>2010-07-17T07:28:44Z</time>
<desc>lat.=55.881542, lon.=26.537191, Alt.=102.446350m. Speed=25.200001m/h.</desc>
<speed>7.000000</speed>
</trkpt>
<trkpt lat="55.881535" lon="26.537081">
<ele>102.131897</ele>
<time>2010-07-17T07:28:45Z</time>
<desc>lat.=55.881535, lon.=26.537081, Alt.=102.131897m. Speed=25.596001m/h.</desc>
<speed>7.110000</speed>
</trkpt>
<trkpt lat="55.881527" lon="26.536966">
<ele>101.946350</ele>
<time>2010-07-17T07:28:46Z</time>
<desc>lat.=55.881527, lon.=26.536966, Alt.=101.946350m. Speed=26.063999m/h.</desc>
<speed>7.240000</speed>
</trkpt>
<trkpt lat="55.881512" lon="26.536860">
<ele>101.545959</ele>
<time>2010-07-17T07:28:47Z</time>
<desc>lat.=55.881512, lon.=26.536860, Alt.=101.545959m. Speed=26.243999m/h.</desc>
<speed>7.290000</speed>
</trkpt>
<trkpt lat="55.881508" lon="26.536737">
<ele>101.665100</ele>
<time>2010-07-17T07:28:48Z</time>
<desc>lat.=55.881508, lon.=26.536737, Alt.=101.665100m. Speed=26.892000m/h.</desc>
<speed>7.470000</speed>
</trkpt>
<trkpt lat="55.881504" lon="26.536617">
<ele>101.512756</ele>
<time>2010-07-17T07:28:49Z</time>
<desc>lat.=55.881504, lon.=26.536617, Alt.=101.512756m. Speed=26.388000m/h.</desc>
<speed>7.330000</speed>
</trkpt>
<trkpt lat="55.881504" lon="26.536495">
<ele>101.364319</ele>
<time>2010-07-17T07:28:50Z</time>
<desc>lat.=55.881504, lon.=26.536495, Alt.=101.364319m. Speed=26.712000m/h.</desc>
<speed>7.420000</speed>
</trkpt>
<trkpt lat="55.881493" lon="26.536375">
<ele>101.629944</ele>
<time>2010-07-17T07:28:51Z</time>
<desc>lat.=55.881493, lon.=26.536375, Alt.=101.629944m. Speed=26.784000m/h.</desc>
<speed>7.440000</speed>
</trkpt>
<trkpt lat="55.881489" lon="26.536255">
<ele>101.698303</ele>
<time>2010-07-17T07:28:52Z</time>
<desc>lat.=55.881489, lon.=26.536255, Alt.=101.698303m. Speed=26.892000m/h.</desc>
<speed>7.470000</speed>
</trkpt>
<trkpt lat="55.881474" lon="26.536142">
<ele>101.663147</ele>
<time>2010-07-17T07:28:53Z</time>
<desc>lat.=55.881474, lon.=26.536142, Alt.=101.663147m. Speed=26.712000m/h.</desc>
<speed>7.420000</speed>
</trkpt>
<trkpt lat="55.881466" lon="26.536022">
<ele>101.649475</ele>
<time>2010-07-17T07:28:54Z</time>
<desc>lat.=55.881466, lon.=26.536022, Alt.=101.649475m. Speed=26.496000m/h.</desc>
<speed>7.360000</speed>
</trkpt>
<trkpt lat="55.881462" lon="26.535906">
<ele>101.594788</ele>
<time>2010-07-17T07:28:55Z</time>
<desc>lat.=55.881462, lon.=26.535906, Alt.=101.594788m. Speed=26.243999m/h.</desc>
<speed>7.290000</speed>
</trkpt>
<trkpt lat="55.881458" lon="26.535791">
<ele>101.557678</ele>
<time>2010-07-17T07:28:56Z</time>
<desc>lat.=55.881458, lon.=26.535791, Alt.=101.557678m. Speed=25.164000m/h.</desc>
<speed>6.990000</speed>
</trkpt>
<trkpt lat="55.881462" lon="26.535686">
<ele>101.583069</ele>
<time>2010-07-17T07:28:57Z</time>
<desc>lat.=55.881462, lon.=26.535686, Alt.=101.583069m. Speed=22.247999m/h.</desc>
<speed>6.180000</speed>
</trkpt>
<trkpt lat="55.881462" lon="26.535591">
<ele>101.419006</ele>
<time>2010-07-17T07:28:58Z</time>
<desc>lat.=55.881462, lon.=26.535591, Alt.=101.419006m. Speed=21.672001m/h.</desc>
<speed>6.020000</speed>
</trkpt>
<trkpt lat="55.881466" lon="26.535490">
<ele>101.376038</ele>
<time>2010-07-17T07:28:59Z</time>
<desc>lat.=55.881466, lon.=26.535490, Alt.=101.376038m. Speed=21.888000m/h.</desc>
<speed>6.080000</speed>
</trkpt>
<trkpt lat="55.881470" lon="26.535402">
<ele>101.104553</ele>
<time>2010-07-17T07:29:00Z</time>
<desc>lat.=55.881470, lon.=26.535402, Alt.=101.104553m. Speed=20.844000m/h.</desc>
<speed>5.790000</speed>
</trkpt>
<trkpt lat="55.881493" lon="26.535322">
<ele>100.440491</ele>
<time>2010-07-17T07:29:01Z</time>
<desc>lat.=55.881493, lon.=26.535322, Alt.=100.440491m. Speed=21.672001m/h.</desc>
<speed>6.020000</speed>
</trkpt>
<trkpt lat="55.881542" lon="26.535255">
<ele>100.502991</ele>
<time>2010-07-17T07:29:02Z</time>
<desc>lat.=55.881542, lon.=26.535255, Alt.=100.502991m. Speed=22.032000m/h.</desc>
<speed>6.120000</speed>
</trkpt>
<trkpt lat="55.881615" lon="26.535231">
<ele>100.922913</ele>
<time>2010-07-17T07:29:03Z</time>
<desc>lat.=55.881615, lon.=26.535231, Alt.=100.922913m. Speed=21.348000m/h.</desc>
<speed>5.930000</speed>
</trkpt>
<trkpt lat="55.881664" lon="26.535198">
<ele>101.393616</ele>
<time>2010-07-17T07:29:04Z</time>
<desc>lat.=55.881664, lon.=26.535198, Alt.=101.393616m. Speed=25.416000m/h.</desc>
<speed>7.060000</speed>
</trkpt>
<trkpt lat="55.881714" lon="26.535183">
<ele>101.782288</ele>
<time>2010-07-17T07:29:05Z</time>
<desc>lat.=55.881714, lon.=26.535183, Alt.=101.782288m. Speed=18.756001m/h.</desc>
<speed>5.210000</speed>
</trkpt>
<trkpt lat="55.881748" lon="26.535172">
<ele>102.135803</ele>
<time>2010-07-17T07:29:06Z</time>
<desc>lat.=55.881748, lon.=26.535172, Alt.=102.135803m. Speed=15.912000m/h.</desc>
<speed>4.420000</speed>
</trkpt>
<trkpt lat="55.881779" lon="26.535166">
<ele>102.469788</ele>
<time>2010-07-17T07:29:07Z</time>
<desc>lat.=55.881779, lon.=26.535166, Alt.=102.469788m. Speed=14.832000m/h.</desc>
<speed>4.120000</speed>
</trkpt>
<trkpt lat="55.881817" lon="26.535158">
<ele>102.778381</ele>
<time>2010-07-17T07:29:08Z</time>
<desc>lat.=55.881817, lon.=26.535158, Alt.=102.778381m. Speed=16.200001m/h.</desc>
<speed>4.500000</speed>
</trkpt>
<trkpt lat="55.881855" lon="26.535151">
<ele>103.053772</ele>
<time>2010-07-17T07:29:09Z</time>
<desc>lat.=55.881855, lon.=26.535151, Alt.=103.053772m. Speed=15.804000m/h.</desc>
<speed>4.390000</speed>
</trkpt>
<trkpt lat="55.881893" lon="26.535133">
<ele>103.151428</ele>
<time>2010-07-17T07:29:10Z</time>
<desc>lat.=55.881893, lon.=26.535133, Alt.=103.151428m. Speed=16.775999m/h.</desc>
<speed>4.660000</speed>
</trkpt>
<trkpt lat="55.881935" lon="26.535118">
<ele>103.333069</ele>
<time>2010-07-17T07:29:11Z</time>
<desc>lat.=55.881935, lon.=26.535118, Alt.=103.333069m. Speed=18.000000m/h.</desc>
<speed>5.000000</speed>
</trkpt>
<trkpt lat="55.881977" lon="26.535105">
<ele>103.542053</ele>
<time>2010-07-17T07:29:12Z</time>
<desc>lat.=55.881977, lon.=26.535105, Alt.=103.542053m. Speed=17.496000m/h.</desc>
<speed>4.860000</speed>
</trkpt>
<trkpt lat="55.882027" lon="26.535093">
<ele>104.383850</ele>
<time>2010-07-17T07:29:13Z</time>
<desc>lat.=55.882027, lon.=26.535093, Alt.=104.383850m. Speed=19.403999m/h.</desc>
<speed>5.390000</speed>
</trkpt>
<trkpt lat="55.882080" lon="26.535072">
<ele>104.317444</ele>
<time>2010-07-17T07:29:14Z</time>
<desc>lat.=55.882080, lon.=26.535072, Alt.=104.317444m. Speed=19.620001m/h.</desc>
<speed>5.450000</speed>
</trkpt>
<trkpt lat="55.882145" lon="26.535086">
<ele>106.368225</ele>
<time>2010-07-17T07:29:15Z</time>
<desc>lat.=55.882145, lon.=26.535086, Alt.=106.368225m. Speed=19.115999m/h.</desc>
<speed>5.310000</speed>
</trkpt>
<trkpt lat="55.882198" lon="26.535084">
<ele>107.278381</ele>
<time>2010-07-17T07:29:16Z</time>
<desc>lat.=55.882198, lon.=26.535084, Alt.=107.278381m. Speed=19.620001m/h.</desc>
<speed>5.450000</speed>
</trkpt>
<trkpt lat="55.882236" lon="26.535069">
<ele>107.985413</ele>
<time>2010-07-17T07:29:17Z</time>
<desc>lat.=55.882236, lon.=26.535069, Alt.=107.985413m. Speed=19.152000m/h.</desc>
<speed>5.320000</speed>
</trkpt>
<trkpt lat="55.882282" lon="26.535061">
<ele>107.358459</ele>
<time>2010-07-17T07:29:18Z</time>
<desc>lat.=55.882282, lon.=26.535061, Alt.=107.358459m. Speed=16.740000m/h.</desc>
<speed>4.650000</speed>
</trkpt>
<trkpt lat="55.882332" lon="26.535030">
<ele>106.911194</ele>
<time>2010-07-17T07:29:19Z</time>
<desc>lat.=55.882332, lon.=26.535030, Alt.=106.911194m. Speed=17.243999m/h.</desc>
<speed>4.790000</speed>
</trkpt>
<trkpt lat="55.882378" lon="26.535013">
<ele>107.590881</ele>
<time>2010-07-17T07:29:20Z</time>
<desc>lat.=55.882378, lon.=26.535013, Alt.=107.590881m. Speed=19.403999m/h.</desc>
<speed>5.390000</speed>
</trkpt>
<trkpt lat="55.882423" lon="26.535000">
<ele>108.545959</ele>
<time>2010-07-17T07:29:21Z</time>
<desc>lat.=55.882423, lon.=26.535000, Alt.=108.545959m. Speed=20.268000m/h.</desc>
<speed>5.630000</speed>
</trkpt>
<trkpt lat="55.882477" lon="26.534981">
<ele>109.270569</ele>
<time>2010-07-17T07:29:22Z</time>
<desc>lat.=55.882477, lon.=26.534981, Alt.=109.270569m. Speed=20.916000m/h.</desc>
<speed>5.810000</speed>
</trkpt>
<trkpt lat="55.882538" lon="26.534956">
<ele>112.071350</ele>
<time>2010-07-17T07:29:23Z</time>
<desc>lat.=55.882538, lon.=26.534956, Alt.=112.071350m. Speed=20.952000m/h.</desc>
<speed>5.820000</speed>
</trkpt>
<trkpt lat="55.882591" lon="26.534945">
<ele>112.823303</ele>
<time>2010-07-17T07:29:24Z</time>
<desc>lat.=55.882591, lon.=26.534945, Alt.=112.823303m. Speed=20.952000m/h.</desc>
<speed>5.820000</speed>
</trkpt>
<trkpt lat="55.882641" lon="26.534935">
<ele>113.264709</ele>
<time>2010-07-17T07:29:25Z</time>
<desc>lat.=55.882641, lon.=26.534935, Alt.=113.264709m. Speed=20.268000m/h.</desc>
<speed>5.630000</speed>
</trkpt>
<trkpt lat="55.882694" lon="26.534916">
<ele>115.307678</ele>
<time>2010-07-17T07:29:26Z</time>
<desc>lat.=55.882694, lon.=26.534916, Alt.=115.307678m. Speed=24.840000m/h.</desc>
<speed>6.900000</speed>
</trkpt>
<trkpt lat="55.882755" lon="26.534914">
<ele>115.852600</ele>
<time>2010-07-17T07:29:27Z</time>
<desc>lat.=55.882755, lon.=26.534914, Alt.=115.852600m. Speed=22.716000m/h.</desc>
<speed>6.310000</speed>
</trkpt>
<trkpt lat="55.882809" lon="26.534904">
<ele>116.706116</ele>
<time>2010-07-17T07:29:28Z</time>
<desc>lat.=55.882809, lon.=26.534904, Alt.=116.706116m. Speed=20.412001m/h.</desc>
<speed>5.670000</speed>
</trkpt>
<trkpt lat="55.882858" lon="26.534889">
<ele>117.377991</ele>
<time>2010-07-17T07:29:29Z</time>
<desc>lat.=55.882858, lon.=26.534889, Alt.=117.377991m. Speed=18.504000m/h.</desc>
<speed>5.140000</speed>
</trkpt>
<trkpt lat="55.882908" lon="26.534872">
<ele>117.811584</ele>
<time>2010-07-17T07:29:30Z</time>
<desc>lat.=55.882908, lon.=26.534872, Alt.=117.811584m. Speed=19.511999m/h.</desc>
<speed>5.420000</speed>
</trkpt>
<trkpt lat="55.882961" lon="26.534861">
<ele>118.475647</ele>
<time>2010-07-17T07:29:31Z</time>
<desc>lat.=55.882961, lon.=26.534861, Alt.=118.475647m. Speed=20.160000m/h.</desc>
<speed>5.600000</speed>
</trkpt>
<trkpt lat="55.883022" lon="26.534855">
<ele>120.268616</ele>
<time>2010-07-17T07:29:32Z</time>
<desc>lat.=55.883022, lon.=26.534855, Alt.=120.268616m. Speed=21.348000m/h.</desc>
<speed>5.930000</speed>
</trkpt>
<trkpt lat="55.883091" lon="26.534834">
<ele>122.426819</ele>
<time>2010-07-17T07:29:33Z</time>
<desc>lat.=55.883091, lon.=26.534834, Alt.=122.426819m. Speed=20.087999m/h.</desc>
<speed>5.580000</speed>
</trkpt>
<trkpt lat="55.883141" lon="26.534813">
<ele>122.585022</ele>
<time>2010-07-17T07:29:34Z</time>
<desc>lat.=55.883141, lon.=26.534813, Alt.=122.585022m. Speed=21.600000m/h.</desc>
<speed>6.000000</speed>
</trkpt>
<trkpt lat="55.883202" lon="26.534805">
<ele>122.747131</ele>
<time>2010-07-17T07:29:35Z</time>
<desc>lat.=55.883202, lon.=26.534805, Alt.=122.747131m. Speed=22.212000m/h.</desc>
<speed>6.170000</speed>
</trkpt>
<trkpt lat="55.883263" lon="26.534798">
<ele>122.747131</ele>
<time>2010-07-17T07:29:36Z</time>
<desc>lat.=55.883263, lon.=26.534798, Alt.=122.747131m. Speed=20.844000m/h.</desc>
<speed>5.790000</speed>
</trkpt>
<trkpt lat="55.883320" lon="26.534790">
<ele>123.167053</ele>
<time>2010-07-17T07:29:37Z</time>
<desc>lat.=55.883320, lon.=26.534790, Alt.=123.167053m. Speed=21.420000m/h.</desc>
<speed>5.950000</speed>
</trkpt>
<trkpt lat="55.883377" lon="26.534798">
<ele>125.989319</ele>
<time>2010-07-17T07:29:38Z</time>
<desc>lat.=55.883377, lon.=26.534798, Alt.=125.989319m. Speed=24.480000m/h.</desc>
<speed>6.800000</speed>
</trkpt>
<trkpt lat="55.883427" lon="26.534782">
<ele>124.555725</ele>
<time>2010-07-17T07:29:39Z</time>
<desc>lat.=55.883427, lon.=26.534782, Alt.=124.555725m. Speed=20.700001m/h.</desc>
<speed>5.750000</speed>
</trkpt>
<trkpt lat="55.883484" lon="26.534775">
<ele>124.784241</ele>
<time>2010-07-17T07:29:40Z</time>
<desc>lat.=55.883484, lon.=26.534775, Alt.=124.784241m. Speed=20.988001m/h.</desc>
<speed>5.830000</speed>
</trkpt>
<trkpt lat="55.883541" lon="26.534771">
<ele>125.008850</ele>
<time>2010-07-17T07:29:41Z</time>
<desc>lat.=55.883541, lon.=26.534771, Alt.=125.008850m. Speed=21.959999m/h.</desc>
<speed>6.100000</speed>
</trkpt>
<trkpt lat="55.883610" lon="26.534777">
<ele>125.370178</ele>
<time>2010-07-17T07:29:42Z</time>
<desc>lat.=55.883610, lon.=26.534777, Alt.=125.370178m. Speed=24.156000m/h.</desc>
<speed>6.710000</speed>
</trkpt>
<trkpt lat="55.883678" lon="26.534761">
<ele>125.473694</ele>
<time>2010-07-17T07:29:43Z</time>
<desc>lat.=55.883678, lon.=26.534761, Alt.=125.473694m. Speed=24.048000m/h.</desc>
<speed>6.680000</speed>
</trkpt>
<trkpt lat="55.883739" lon="26.534752">
<ele>125.776428</ele>
<time>2010-07-17T07:29:44Z</time>
<desc>lat.=55.883739, lon.=26.534752, Alt.=125.776428m. Speed=24.695999m/h.</desc>
<speed>6.860000</speed>
</trkpt>
<trkpt lat="55.883797" lon="26.534744">
<ele>126.167053</ele>
<time>2010-07-17T07:29:45Z</time>
<desc>lat.=55.883797, lon.=26.534744, Alt.=126.167053m. Speed=21.275999m/h.</desc>
<speed>5.910000</speed>
</trkpt>
<trkpt lat="55.883850" lon="26.534758">
<ele>129.295044</ele>
<time>2010-07-17T07:29:46Z</time>
<desc>lat.=55.883850, lon.=26.534758, Alt.=129.295044m. Speed=22.068001m/h.</desc>
<speed>6.130000</speed>
</trkpt>
<trkpt lat="55.883915" lon="26.534746">
<ele>130.146606</ele>
<time>2010-07-17T07:29:47Z</time>
<desc>lat.=55.883915, lon.=26.534746, Alt.=130.146606m. Speed=24.480000m/h.</desc>
<speed>6.800000</speed>
</trkpt>
<trkpt lat="55.883972" lon="26.534727">
<ele>129.748169</ele>
<time>2010-07-17T07:29:48Z</time>
<desc>lat.=55.883972, lon.=26.534727, Alt.=129.748169m. Speed=23.868000m/h.</desc>
<speed>6.630000</speed>
</trkpt>
<trkpt lat="55.884026" lon="26.534702">
<ele>126.559631</ele>
<time>2010-07-17T07:29:49Z</time>
<desc>lat.=55.884026, lon.=26.534702, Alt.=126.559631m. Speed=25.056000m/h.</desc>
<speed>6.960000</speed>
</trkpt>
<trkpt lat="55.884090" lon="26.534691">
<ele>126.899475</ele>
<time>2010-07-17T07:29:50Z</time>
<desc>lat.=55.884090, lon.=26.534691, Alt.=126.899475m. Speed=25.740000m/h.</desc>
<speed>7.150000</speed>
</trkpt>
<trkpt lat="55.884140" lon="26.534664">
<ele>127.547913</ele>
<time>2010-07-17T07:29:51Z</time>
<desc>lat.=55.884140, lon.=26.534664, Alt.=127.547913m. Speed=25.056000m/h.</desc>
<speed>6.960000</speed>
</trkpt>
<trkpt lat="55.884205" lon="26.534651">
<ele>127.651428</ele>
<time>2010-07-17T07:29:52Z</time>
<desc>lat.=55.884205, lon.=26.534651, Alt.=127.651428m. Speed=25.091999m/h.</desc>
<speed>6.970000</speed>
</trkpt>
<trkpt lat="55.884277" lon="26.534639">
<ele>128.060669</ele>
<time>2010-07-17T07:29:53Z</time>
<desc>lat.=55.884277, lon.=26.534639, Alt.=128.060669m. Speed=25.020000m/h.</desc>
<speed>6.950000</speed>
</trkpt>
<trkpt lat="55.884338" lon="26.534647">
<ele>129.588013</ele>
<time>2010-07-17T07:29:54Z</time>
<desc>lat.=55.884338, lon.=26.534647, Alt.=129.588013m. Speed=24.228001m/h.</desc>
<speed>6.730000</speed>
</trkpt>
<trkpt lat="55.884403" lon="26.534630">
<ele>130.427856</ele>
<time>2010-07-17T07:29:55Z</time>
<desc>lat.=55.884403, lon.=26.534630, Alt.=130.427856m. Speed=24.768000m/h.</desc>
<speed>6.880000</speed>
</trkpt>
<trkpt lat="55.884468" lon="26.534618">
<ele>130.150513</ele>
<time>2010-07-17T07:29:56Z</time>
<desc>lat.=55.884468, lon.=26.534618, Alt.=130.150513m. Speed=25.164000m/h.</desc>
<speed>6.990000</speed>
</trkpt>
<trkpt lat="55.884525" lon="26.534611">
<ele>130.205200</ele>
<time>2010-07-17T07:29:57Z</time>
<desc>lat.=55.884525, lon.=26.534611, Alt.=130.205200m. Speed=23.256001m/h.</desc>
<speed>6.460000</speed>
</trkpt>
<trkpt lat="55.884583" lon="26.534607">
<ele>130.517700</ele>
<time>2010-07-17T07:29:58Z</time>
<desc>lat.=55.884583, lon.=26.534607, Alt.=130.517700m. Speed=22.464001m/h.</desc>
<speed>6.240000</speed>
</trkpt>
<trkpt lat="55.884644" lon="26.534603">
<ele>130.619263</ele>
<time>2010-07-17T07:29:59Z</time>
<desc>lat.=55.884644, lon.=26.534603, Alt.=130.619263m. Speed=24.516001m/h.</desc>
<speed>6.810000</speed>
</trkpt>
<trkpt lat="55.884701" lon="26.534601">
<ele>130.943481</ele>
<time>2010-07-17T07:30:00Z</time>
<desc>lat.=55.884701, lon.=26.534601, Alt.=130.943481m. Speed=23.076000m/h.</desc>
<speed>6.410000</speed>
</trkpt>
<trkpt lat="55.884766" lon="26.534597">
<ele>130.908325</ele>
<time>2010-07-17T07:30:01Z</time>
<desc>lat.=55.884766, lon.=26.534597, Alt.=130.908325m. Speed=23.760000m/h.</desc>
<speed>6.600000</speed>
</trkpt>
<trkpt lat="55.884830" lon="26.534582">
<ele>131.244263</ele>
<time>2010-07-17T07:30:02Z</time>
<desc>lat.=55.884830, lon.=26.534582, Alt.=131.244263m. Speed=25.667999m/h.</desc>
<speed>7.130000</speed>
</trkpt>
<trkpt lat="55.884895" lon="26.534571">
<ele>131.384888</ele>
<time>2010-07-17T07:30:03Z</time>
<desc>lat.=55.884895, lon.=26.534571, Alt.=131.384888m. Speed=25.488001m/h.</desc>
<speed>7.080000</speed>
</trkpt>
<trkpt lat="55.884960" lon="26.534552">
<ele>131.275513</ele>
<time>2010-07-17T07:30:04Z</time>
<desc>lat.=55.884960, lon.=26.534552, Alt.=131.275513m. Speed=25.020000m/h.</desc>
<speed>6.950000</speed>
</trkpt>
<trkpt lat="55.885021" lon="26.534534">
<ele>131.076294</ele>
<time>2010-07-17T07:30:05Z</time>
<desc>lat.=55.885021, lon.=26.534534, Alt.=131.076294m. Speed=24.695999m/h.</desc>
<speed>6.860000</speed>
</trkpt>
<trkpt lat="55.885086" lon="26.534521">
<ele>130.673950</ele>
<time>2010-07-17T07:30:06Z</time>
<desc>lat.=55.885086, lon.=26.534521, Alt.=130.673950m. Speed=22.860001m/h.</desc>
<speed>6.350000</speed>
</trkpt>
<trkpt lat="55.885155" lon="26.534515">
<ele>130.088013</ele>
<time>2010-07-17T07:30:07Z</time>
<desc>lat.=55.885155, lon.=26.534515, Alt.=130.088013m. Speed=20.664000m/h.</desc>
<speed>5.740000</speed>
</trkpt>
<trkpt lat="55.885208" lon="26.534494">
<ele>129.338013</ele>
<time>2010-07-17T07:30:08Z</time>
<desc>lat.=55.885208, lon.=26.534494, Alt.=129.338013m. Speed=19.548000m/h.</desc>
<speed>5.430000</speed>
</trkpt>
<trkpt lat="55.885262" lon="26.534475">
<ele>128.181763</ele>
<time>2010-07-17T07:30:09Z</time>
<desc>lat.=55.885262, lon.=26.534475, Alt.=128.181763m. Speed=21.420000m/h.</desc>
<speed>5.950000</speed>
</trkpt>
<trkpt lat="55.885319" lon="26.534460">
<ele>127.862366</ele>
<time>2010-07-17T07:30:10Z</time>
<desc>lat.=55.885319, lon.=26.534460, Alt.=127.862366m. Speed=23.076000m/h.</desc>
<speed>6.410000</speed>
</trkpt>
<trkpt lat="55.885387" lon="26.534439">
<ele>127.692444</ele>
<time>2010-07-17T07:30:11Z</time>
<desc>lat.=55.885387, lon.=26.534439, Alt.=127.692444m. Speed=23.903999m/h.</desc>
<speed>6.640000</speed>
</trkpt>
<trkpt lat="55.885468" lon="26.534430">
<ele>129.146606</ele>
<time>2010-07-17T07:30:12Z</time>
<desc>lat.=55.885468, lon.=26.534430, Alt.=129.146606m. Speed=23.903999m/h.</desc>
<speed>6.640000</speed>
</trkpt>
<trkpt lat="55.885529" lon="26.534422">
<ele>128.470825</ele>
<time>2010-07-17T07:30:13Z</time>
<desc>lat.=55.885529, lon.=26.534422, Alt.=128.470825m. Speed=23.868000m/h.</desc>
<speed>6.630000</speed>
</trkpt>
<trkpt lat="55.885586" lon="26.534435">
<ele>127.762756</ele>
<time>2010-07-17T07:30:14Z</time>
<desc>lat.=55.885586, lon.=26.534435, Alt.=127.762756m. Speed=21.851999m/h.</desc>
<speed>6.070000</speed>
</trkpt>
<trkpt lat="55.885654" lon="26.534428">
<ele>126.772522</ele>
<time>2010-07-17T07:30:15Z</time>
<desc>lat.=55.885654, lon.=26.534428, Alt.=126.772522m. Speed=23.112000m/h.</desc>
<speed>6.420000</speed>
</trkpt>
<trkpt lat="55.885712" lon="26.534420">
<ele>126.420959</ele>
<time>2010-07-17T07:30:16Z</time>
<desc>lat.=55.885712, lon.=26.534420, Alt.=126.420959m. Speed=21.059999m/h.</desc>
<speed>5.850000</speed>
</trkpt>
<trkpt lat="55.885773" lon="26.534424">
<ele>126.303772</ele>
<time>2010-07-17T07:30:17Z</time>
<desc>lat.=55.885773, lon.=26.534424, Alt.=126.303772m. Speed=22.535999m/h.</desc>
<speed>6.260000</speed>
</trkpt>
<trkpt lat="55.885830" lon="26.534426">
<ele>125.639709</ele>
<time>2010-07-17T07:30:18Z</time>
<desc>lat.=55.885830, lon.=26.534426, Alt.=125.639709m. Speed=21.708000m/h.</desc>
<speed>6.030000</speed>
</trkpt>
<trkpt lat="55.885891" lon="26.534414">
<ele>123.762756</ele>
<time>2010-07-17T07:30:19Z</time>
<desc>lat.=55.885891, lon.=26.534414, Alt.=123.762756m. Speed=22.320000m/h.</desc>
<speed>6.200000</speed>
</trkpt>
<trkpt lat="55.885948" lon="26.534405">
<ele>123.004944</ele>
<time>2010-07-17T07:30:20Z</time>
<desc>lat.=55.885948, lon.=26.534405, Alt.=123.004944m. Speed=21.563999m/h.</desc>
<speed>5.990000</speed>
</trkpt>
<trkpt lat="55.886005" lon="26.534389">
<ele>121.997131</ele>
<time>2010-07-17T07:30:21Z</time>
<desc>lat.=55.886005, lon.=26.534389, Alt.=121.997131m. Speed=21.059999m/h.</desc>
<speed>5.850000</speed>
</trkpt>
<trkpt lat="55.886059" lon="26.534378">
<ele>121.725647</ele>
<time>2010-07-17T07:30:22Z</time>
<desc>lat.=55.886059, lon.=26.534378, Alt.=121.725647m. Speed=20.520000m/h.</desc>
<speed>5.700000</speed>
</trkpt>
<trkpt lat="55.886120" lon="26.534370">
<ele>120.885803</ele>
<time>2010-07-17T07:30:23Z</time>
<desc>lat.=55.886120, lon.=26.534370, Alt.=120.885803m. Speed=22.931999m/h.</desc>
<speed>6.370000</speed>
</trkpt>
<trkpt lat="55.886192" lon="26.534361">
<ele>119.870178</ele>
<time>2010-07-17T07:30:24Z</time>
<desc>lat.=55.886192, lon.=26.534361, Alt.=119.870178m. Speed=23.040001m/h.</desc>
<speed>6.400000</speed>
</trkpt>
<trkpt lat="55.886253" lon="26.534346">
<ele>118.256897</ele>
<time>2010-07-17T07:30:25Z</time>
<desc>lat.=55.886253, lon.=26.534346, Alt.=118.256897m. Speed=25.884001m/h.</desc>
<speed>7.190000</speed>
</trkpt>
<trkpt lat="55.886322" lon="26.534334">
<ele>117.112366</ele>
<time>2010-07-17T07:30:26Z</time>
<desc>lat.=55.886322, lon.=26.534334, Alt.=117.112366m. Speed=25.128000m/h.</desc>
<speed>6.980000</speed>
</trkpt>
<trkpt lat="55.886395" lon="26.534321">
<ele>116.262756</ele>
<time>2010-07-17T07:30:27Z</time>
<desc>lat.=55.886395, lon.=26.534321, Alt.=116.262756m. Speed=25.091999m/h.</desc>
<speed>6.970000</speed>
</trkpt>
<trkpt lat="55.886467" lon="26.534298">
<ele>115.510803</ele>
<time>2010-07-17T07:30:28Z</time>
<desc>lat.=55.886467, lon.=26.534298, Alt.=115.510803m. Speed=24.480000m/h.</desc>
<speed>6.800000</speed>
</trkpt>
<trkpt lat="55.886543" lon="26.534275">
<ele>115.557678</ele>
<time>2010-07-17T07:30:29Z</time>
<desc>lat.=55.886543, lon.=26.534275, Alt.=115.557678m. Speed=24.048000m/h.</desc>
<speed>6.680000</speed>
</trkpt>
<trkpt lat="55.886616" lon="26.534258">
<ele>114.901428</ele>
<time>2010-07-17T07:30:30Z</time>
<desc>lat.=55.886616, lon.=26.534258, Alt.=114.901428m. Speed=23.652000m/h.</desc>
<speed>6.570000</speed>
</trkpt>
<trkpt lat="55.886684" lon="26.534243">
<ele>115.085022</ele>
<time>2010-07-17T07:30:31Z</time>
<desc>lat.=55.886684, lon.=26.534243, Alt.=115.085022m. Speed=23.615999m/h.</desc>
<speed>6.560000</speed>
</trkpt>
<trkpt lat="55.886745" lon="26.534233">
<ele>113.922913</ele>
<time>2010-07-17T07:30:32Z</time>
<desc>lat.=55.886745, lon.=26.534233, Alt.=113.922913m. Speed=23.400000m/h.</desc>
<speed>6.500000</speed>
</trkpt>
<trkpt lat="55.886810" lon="26.534216">
<ele>113.944397</ele>
<time>2010-07-17T07:30:33Z</time>
<desc>lat.=55.886810, lon.=26.534216, Alt.=113.944397m. Speed=23.760000m/h.</desc>
<speed>6.600000</speed>
</trkpt>
<trkpt lat="55.886871" lon="26.534212">
<ele>114.243225</ele>
<time>2010-07-17T07:30:34Z</time>
<desc>lat.=55.886871, lon.=26.534212, Alt.=114.243225m. Speed=23.796000m/h.</desc>
<speed>6.610000</speed>
</trkpt>
<trkpt lat="55.886936" lon="26.534203">
<ele>113.760803</ele>
<time>2010-07-17T07:30:35Z</time>
<desc>lat.=55.886936, lon.=26.534203, Alt.=113.760803m. Speed=24.732000m/h.</desc>
<speed>6.870000</speed>
</trkpt>
<trkpt lat="55.886993" lon="26.534214">
<ele>114.573303</ele>
<time>2010-07-17T07:30:36Z</time>
<desc>lat.=55.886993, lon.=26.534214, Alt.=114.573303m. Speed=22.139999m/h.</desc>
<speed>6.150000</speed>
</trkpt>
<trkpt lat="55.887054" lon="26.534224">
<ele>113.639709</ele>
<time>2010-07-17T07:30:37Z</time>
<desc>lat.=55.887054, lon.=26.534224, Alt.=113.639709m. Speed=23.292000m/h.</desc>
<speed>6.470000</speed>
</trkpt>
<trkpt lat="55.887108" lon="26.534212">
<ele>113.223694</ele>
<time>2010-07-17T07:30:38Z</time>
<desc>lat.=55.887108, lon.=26.534212, Alt.=113.223694m. Speed=21.312000m/h.</desc>
<speed>5.920000</speed>
</trkpt>
<trkpt lat="55.887146" lon="26.534197">
<ele>110.940491</ele>
<time>2010-07-17T07:30:39Z</time>
<desc>lat.=55.887146, lon.=26.534197, Alt.=110.940491m. Speed=19.260000m/h.</desc>
<speed>5.350000</speed>
</trkpt>
<trkpt lat="55.887203" lon="26.534182">
<ele>110.063538</ele>
<time>2010-07-17T07:30:40Z</time>
<desc>lat.=55.887203, lon.=26.534182, Alt.=110.063538m. Speed=22.931999m/h.</desc>
<speed>6.370000</speed>
</trkpt>
<trkpt lat="55.887264" lon="26.534172">
<ele>109.186584</ele>
<time>2010-07-17T07:30:41Z</time>
<desc>lat.=55.887264, lon.=26.534172, Alt.=109.186584m. Speed=22.139999m/h.</desc>
<speed>6.150000</speed>
</trkpt>
<trkpt lat="55.887321" lon="26.534163">
<ele>108.153381</ele>
<time>2010-07-17T07:30:42Z</time>
<desc>lat.=55.887321, lon.=26.534163, Alt.=108.153381m. Speed=21.240000m/h.</desc>
<speed>5.900000</speed>
</trkpt>
<trkpt lat="55.887375" lon="26.534155">
<ele>107.204163</ele>
<time>2010-07-17T07:30:43Z</time>
<desc>lat.=55.887375, lon.=26.534155, Alt.=107.204163m. Speed=21.420000m/h.</desc>
<speed>5.950000</speed>
</trkpt>
<trkpt lat="55.887428" lon="26.534149">
<ele>107.124084</ele>
<time>2010-07-17T07:30:44Z</time>
<desc>lat.=55.887428, lon.=26.534149, Alt.=107.124084m. Speed=20.736000m/h.</desc>
<speed>5.760000</speed>
</trkpt>
<trkpt lat="55.887486" lon="26.534138">
<ele>106.206116</ele>
<time>2010-07-17T07:30:45Z</time>
<desc>lat.=55.887486, lon.=26.534138, Alt.=106.206116m. Speed=19.296000m/h.</desc>
<speed>5.360000</speed>
</trkpt>
<trkpt lat="55.887531" lon="26.534128">
<ele>105.751038</ele>
<time>2010-07-17T07:30:46Z</time>
<desc>lat.=55.887531, lon.=26.534128, Alt.=105.751038m. Speed=16.308001m/h.</desc>
<speed>4.530000</speed>
</trkpt>
<trkpt lat="55.887569" lon="26.534119">
<ele>104.407288</ele>
<time>2010-07-17T07:30:47Z</time>
<desc>lat.=55.887569, lon.=26.534119, Alt.=104.407288m. Speed=16.416000m/h.</desc>
<speed>4.560000</speed>
</trkpt>
<trkpt lat="55.887608" lon="26.534111">
<ele>101.702209</ele>
<time>2010-07-17T07:30:48Z</time>
<desc>lat.=55.887608, lon.=26.534111, Alt.=101.702209m. Speed=18.504000m/h.</desc>
<speed>5.140000</speed>
</trkpt>
<trkpt lat="55.887646" lon="26.534101">
<ele>101.817444</ele>
<time>2010-07-17T07:30:49Z</time>
<desc>lat.=55.887646, lon.=26.534101, Alt.=101.817444m. Speed=18.108000m/h.</desc>
<speed>5.030000</speed>
</trkpt>
<trkpt lat="55.887699" lon="26.534094">
<ele>101.311584</ele>
<time>2010-07-17T07:30:50Z</time>
<desc>lat.=55.887699, lon.=26.534094, Alt.=101.311584m. Speed=20.916000m/h.</desc>
<speed>5.810000</speed>
</trkpt>
<trkpt lat="55.887760" lon="26.534081">
<ele>101.311584</ele>
<time>2010-07-17T07:30:51Z</time>
<desc>lat.=55.887760, lon.=26.534081, Alt.=101.311584m. Speed=23.760000m/h.</desc>
<speed>6.600000</speed>
</trkpt>
<trkpt lat="55.887821" lon="26.534060">
<ele>100.960022</ele>
<time>2010-07-17T07:30:52Z</time>
<desc>lat.=55.887821, lon.=26.534060, Alt.=100.960022m. Speed=23.724001m/h.</desc>
<speed>6.590000</speed>
</trkpt>
<trkpt lat="55.887886" lon="26.534060">
<ele>99.979553</ele>
<time>2010-07-17T07:30:53Z</time>
<desc>lat.=55.887886, lon.=26.534060, Alt.=99.979553m. Speed=22.896000m/h.</desc>
<speed>6.360000</speed>
</trkpt>
<trkpt lat="55.887959" lon="26.534050">
<ele>98.323303</ele>
<time>2010-07-17T07:30:54Z</time>
<desc>lat.=55.887959, lon.=26.534050, Alt.=98.323303m. Speed=24.120001m/h.</desc>
<speed>6.700000</speed>
</trkpt>
<trkpt lat="55.888020" lon="26.534023">
<ele>95.920959</ele>
<time>2010-07-17T07:30:55Z</time>
<desc>lat.=55.888020, lon.=26.534023, Alt.=95.920959m. Speed=23.652000m/h.</desc>
<speed>6.570000</speed>
</trkpt>
<trkpt lat="55.888081" lon="26.534000">
<ele>93.872131</ele>
<time>2010-07-17T07:30:56Z</time>
<desc>lat.=55.888081, lon.=26.534000, Alt.=93.872131m. Speed=23.184000m/h.</desc>
<speed>6.440000</speed>
</trkpt>
<trkpt lat="55.888145" lon="26.533987">
<ele>92.780334</ele>
<time>2010-07-17T07:30:57Z</time>
<desc>lat.=55.888145, lon.=26.533987, Alt.=92.780334m. Speed=23.868000m/h.</desc>
<speed>6.630000</speed>
</trkpt>
<trkpt lat="55.888203" lon="26.533974">
<ele>92.024475</ele>
<time>2010-07-17T07:30:58Z</time>
<desc>lat.=55.888203, lon.=26.533974, Alt.=92.024475m. Speed=23.472000m/h.</desc>
<speed>6.520000</speed>
</trkpt>
<trkpt lat="55.888260" lon="26.533964">
<ele>91.395569</ele>
<time>2010-07-17T07:30:59Z</time>
<desc>lat.=55.888260, lon.=26.533964, Alt.=91.395569m. Speed=21.888000m/h.</desc>
<speed>6.080000</speed>
</trkpt>
<trkpt lat="55.888317" lon="26.533951">
<ele>92.069397</ele>
<time>2010-07-17T07:31:00Z</time>
<desc>lat.=55.888317, lon.=26.533951, Alt.=92.069397m. Speed=22.752001m/h.</desc>
<speed>6.320000</speed>
</trkpt>
<trkpt lat="55.888393" lon="26.533957">
<ele>95.151428</ele>
<time>2010-07-17T07:31:01Z</time>
<desc>lat.=55.888393, lon.=26.533957, Alt.=95.151428m. Speed=25.164000m/h.</desc>
<speed>6.990000</speed>
</trkpt>
<trkpt lat="55.888454" lon="26.533945">
<ele>95.061584</ele>
<time>2010-07-17T07:31:02Z</time>
<desc>lat.=55.888454, lon.=26.533945, Alt.=95.061584m. Speed=24.587999m/h.</desc>
<speed>6.830000</speed>
</trkpt>
<trkpt lat="55.888519" lon="26.533924">
<ele>94.526428</ele>
<time>2010-07-17T07:31:03Z</time>
<desc>lat.=55.888519, lon.=26.533924, Alt.=94.526428m. Speed=23.796000m/h.</desc>
<speed>6.610000</speed>
</trkpt>
<trkpt lat="55.888573" lon="26.533901">
<ele>94.454163</ele>
<time>2010-07-17T07:31:04Z</time>
<desc>lat.=55.888573, lon.=26.533901, Alt.=94.454163m. Speed=23.976000m/h.</desc>
<speed>6.660000</speed>
</trkpt>
<trkpt lat="55.888630" lon="26.533886">
<ele>94.266663</ele>
<time>2010-07-17T07:31:05Z</time>
<desc>lat.=55.888630, lon.=26.533886, Alt.=94.266663m. Speed=23.040001m/h.</desc>
<speed>6.400000</speed>
</trkpt>
<trkpt lat="55.888683" lon="26.533876">
<ele>94.323303</ele>
<time>2010-07-17T07:31:06Z</time>
<desc>lat.=55.888683, lon.=26.533876, Alt.=94.323303m. Speed=22.212000m/h.</desc>
<speed>6.170000</speed>
</trkpt>
<trkpt lat="55.888744" lon="26.533863">
<ele>93.477600</ele>
<time>2010-07-17T07:31:07Z</time>
<desc>lat.=55.888744, lon.=26.533863, Alt.=93.477600m. Speed=22.860001m/h.</desc>
<speed>6.350000</speed>
</trkpt>
<trkpt lat="55.888805" lon="26.533846">
<ele>92.102600</ele>
<time>2010-07-17T07:31:08Z</time>
<desc>lat.=55.888805, lon.=26.533846, Alt.=92.102600m. Speed=23.507999m/h.</desc>
<speed>6.530000</speed>
</trkpt>
<trkpt lat="55.888874" lon="26.533823">
<ele>93.674866</ele>
<time>2010-07-17T07:31:09Z</time>
<desc>lat.=55.888874, lon.=26.533823, Alt.=93.674866m. Speed=21.708000m/h.</desc>
<speed>6.030000</speed>
</trkpt>
<trkpt lat="55.888935" lon="26.533810">
<ele>94.446350</ele>
<time>2010-07-17T07:31:10Z</time>
<desc>lat.=55.888935, lon.=26.533810, Alt.=94.446350m. Speed=22.608000m/h.</desc>
<speed>6.280000</speed>
</trkpt>
<trkpt lat="55.889008" lon="26.533804">
<ele>94.467834</ele>
<time>2010-07-17T07:31:11Z</time>
<desc>lat.=55.889008, lon.=26.533804, Alt.=94.467834m. Speed=25.344000m/h.</desc>
<speed>7.040000</speed>
</trkpt>
<trkpt lat="55.889084" lon="26.533808">
<ele>95.864319</ele>
<time>2010-07-17T07:31:12Z</time>
<desc>lat.=55.889084, lon.=26.533808, Alt.=95.864319m. Speed=23.472000m/h.</desc>
<speed>6.520000</speed>
</trkpt>
<trkpt lat="55.889145" lon="26.533792">
<ele>95.514709</ele>
<time>2010-07-17T07:31:13Z</time>
<desc>lat.=55.889145, lon.=26.533792, Alt.=95.514709m. Speed=20.412001m/h.</desc>
<speed>5.670000</speed>
</trkpt>
<trkpt lat="55.889206" lon="26.533791">
<ele>97.110413</ele>
<time>2010-07-17T07:31:14Z</time>
<desc>lat.=55.889206, lon.=26.533791, Alt.=97.110413m. Speed=22.608000m/h.</desc>
<speed>6.280000</speed>
</trkpt>
<trkpt lat="55.889271" lon="26.533783">
<ele>97.555725</ele>
<time>2010-07-17T07:31:15Z</time>
<desc>lat.=55.889271, lon.=26.533783, Alt.=97.555725m. Speed=22.823999m/h.</desc>
<speed>6.340000</speed>
</trkpt>
<trkpt lat="55.889336" lon="26.533779">
<ele>97.899475</ele>
<time>2010-07-17T07:31:16Z</time>
<desc>lat.=55.889336, lon.=26.533779, Alt.=97.899475m. Speed=23.507999m/h.</desc>
<speed>6.530000</speed>
</trkpt>
<trkpt lat="55.889404" lon="26.533783">
<ele>97.559631</ele>
<time>2010-07-17T07:31:17Z</time>
<desc>lat.=55.889404, lon.=26.533783, Alt.=97.559631m. Speed=24.516001m/h.</desc>
<speed>6.810000</speed>
</trkpt>
<trkpt lat="55.889484" lon="26.533779">
<ele>97.895569</ele>
<time>2010-07-17T07:31:18Z</time>
<desc>lat.=55.889484, lon.=26.533779, Alt.=97.895569m. Speed=25.056000m/h.</desc>
<speed>6.960000</speed>
</trkpt>
<trkpt lat="55.889557" lon="26.533772">
<ele>98.713928</ele>
<time>2010-07-17T07:31:19Z</time>
<desc>lat.=55.889557, lon.=26.533772, Alt.=98.713928m. Speed=25.308001m/h.</desc>
<speed>7.030000</speed>
</trkpt>
<trkpt lat="55.889626" lon="26.533760">
<ele>98.997131</ele>
<time>2010-07-17T07:31:20Z</time>
<desc>lat.=55.889626, lon.=26.533760, Alt.=98.997131m. Speed=25.236000m/h.</desc>
<speed>7.010000</speed>
</trkpt>
<trkpt lat="55.889698" lon="26.533749">
<ele>98.844788</ele>
<time>2010-07-17T07:31:21Z</time>
<desc>lat.=55.889698, lon.=26.533749, Alt.=98.844788m. Speed=25.200001m/h.</desc>
<speed>7.000000</speed>
</trkpt>
<trkpt lat="55.889763" lon="26.533735">
<ele>99.299866</ele>
<time>2010-07-17T07:31:22Z</time>
<desc>lat.=55.889763, lon.=26.533735, Alt.=99.299866m. Speed=22.823999m/h.</desc>
<speed>6.340000</speed>
</trkpt>
<trkpt lat="55.889828" lon="26.533718">
<ele>98.967834</ele>
<time>2010-07-17T07:31:23Z</time>
<desc>lat.=55.889828, lon.=26.533718, Alt.=98.967834m. Speed=23.364000m/h.</desc>
<speed>6.490000</speed>
</trkpt>
<trkpt lat="55.889889" lon="26.533701">
<ele>98.938538</ele>
<time>2010-07-17T07:31:24Z</time>
<desc>lat.=55.889889, lon.=26.533701, Alt.=98.938538m. Speed=23.507999m/h.</desc>
<speed>6.530000</speed>
</trkpt>
<trkpt lat="55.889961" lon="26.533703">
<ele>99.961975</ele>
<time>2010-07-17T07:31:25Z</time>
<desc>lat.=55.889961, lon.=26.533703, Alt.=99.961975m. Speed=27.288000m/h.</desc>
<speed>7.580000</speed>
</trkpt>
<trkpt lat="55.890034" lon="26.533697">
<ele>100.184631</ele>
<time>2010-07-17T07:31:26Z</time>
<desc>lat.=55.890034, lon.=26.533697, Alt.=100.184631m. Speed=24.732000m/h.</desc>
<speed>6.870000</speed>
</trkpt>
<trkpt lat="55.890099" lon="26.533693">
<ele>100.403381</ele>
<time>2010-07-17T07:31:27Z</time>
<desc>lat.=55.890099, lon.=26.533693, Alt.=100.403381m. Speed=23.615999m/h.</desc>
<speed>6.560000</speed>
</trkpt>
<trkpt lat="55.890171" lon="26.533693">
<ele>100.854553</ele>
<time>2010-07-17T07:31:28Z</time>
<desc>lat.=55.890171, lon.=26.533693, Alt.=100.854553m. Speed=25.452000m/h.</desc>
<speed>7.070000</speed>
</trkpt>
<trkpt lat="55.890236" lon="26.533674">
<ele>100.557678</ele>
<time>2010-07-17T07:31:29Z</time>
<desc>lat.=55.890236, lon.=26.533674, Alt.=100.557678m. Speed=24.768000m/h.</desc>
<speed>6.880000</speed>
</trkpt>
<trkpt lat="55.890312" lon="26.533676">
<ele>102.612366</ele>
<time>2010-07-17T07:31:30Z</time>
<desc>lat.=55.890312, lon.=26.533676, Alt.=102.612366m. Speed=24.983999m/h.</desc>
<speed>6.940000</speed>
</trkpt>
<trkpt lat="55.890385" lon="26.533669">
<ele>102.170959</ele>
<time>2010-07-17T07:31:31Z</time>
<desc>lat.=55.890385, lon.=26.533669, Alt.=102.170959m. Speed=24.732000m/h.</desc>
<speed>6.870000</speed>
</trkpt>
<trkpt lat="55.890453" lon="26.533682">
<ele>101.231506</ele>
<time>2010-07-17T07:31:32Z</time>
<desc>lat.=55.890453, lon.=26.533682, Alt.=101.231506m. Speed=24.948000m/h.</desc>
<speed>6.930000</speed>
</trkpt>
<trkpt lat="55.890522" lon="26.533676">
<ele>101.217834</ele>
<time>2010-07-17T07:31:33Z</time>
<desc>lat.=55.890522, lon.=26.533676, Alt.=101.217834m. Speed=24.660000m/h.</desc>
<speed>6.850000</speed>
</trkpt>
<trkpt lat="55.890587" lon="26.533632">
<ele>98.028381</ele>
<time>2010-07-17T07:31:34Z</time>
<desc>lat.=55.890587, lon.=26.533632, Alt.=98.028381m. Speed=25.920000m/h.</desc>
<speed>7.200000</speed>
</trkpt>
<trkpt lat="55.890648" lon="26.533609">
<ele>95.579163</ele>
<time>2010-07-17T07:31:35Z</time>
<desc>lat.=55.890648, lon.=26.533609, Alt.=95.579163m. Speed=24.264000m/h.</desc>
<speed>6.740000</speed>
</trkpt>
<trkpt lat="55.890705" lon="26.533587">
<ele>95.596741</ele>
<time>2010-07-17T07:31:36Z</time>
<desc>lat.=55.890705, lon.=26.533587, Alt.=95.596741m. Speed=25.667999m/h.</desc>
<speed>7.130000</speed>
</trkpt>
<trkpt lat="55.890766" lon="26.533573">
<ele>95.585022</ele>
<time>2010-07-17T07:31:37Z</time>
<desc>lat.=55.890766, lon.=26.533573, Alt.=95.585022m. Speed=24.732000m/h.</desc>
<speed>6.870000</speed>
</trkpt>
<trkpt lat="55.890827" lon="26.533560">
<ele>95.126038</ele>
<time>2010-07-17T07:31:38Z</time>
<desc>lat.=55.890827, lon.=26.533560, Alt.=95.126038m. Speed=23.652000m/h.</desc>
<speed>6.570000</speed>
</trkpt>
<trkpt lat="55.890903" lon="26.533554">
<ele>96.055725</ele>
<time>2010-07-17T07:31:39Z</time>
<desc>lat.=55.890903, lon.=26.533554, Alt.=96.055725m. Speed=26.496000m/h.</desc>
<speed>7.360000</speed>
</trkpt>
<trkpt lat="55.890957" lon="26.533541">
<ele>97.346741</ele>
<time>2010-07-17T07:31:40Z</time>
<desc>lat.=55.890957, lon.=26.533541, Alt.=97.346741m. Speed=23.832001m/h.</desc>
<speed>6.620000</speed>
</trkpt>
<trkpt lat="55.891029" lon="26.533552">
<ele>102.659241</ele>
<time>2010-07-17T07:31:41Z</time>
<desc>lat.=55.891029, lon.=26.533552, Alt.=102.659241m. Speed=24.011999m/h.</desc>
<speed>6.670000</speed>
</trkpt>
<trkpt lat="55.891087" lon="26.533546">
<ele>103.651428</ele>
<time>2010-07-17T07:31:42Z</time>
<desc>lat.=55.891087, lon.=26.533546, Alt.=103.651428m. Speed=24.156000m/h.</desc>
<speed>6.710000</speed>
</trkpt>
<trkpt lat="55.891144" lon="26.533529">
<ele>104.436584</ele>
<time>2010-07-17T07:31:43Z</time>
<desc>lat.=55.891144, lon.=26.533529, Alt.=104.436584m. Speed=23.796000m/h.</desc>
<speed>6.610000</speed>
</trkpt>
<trkpt lat="55.891205" lon="26.533514">
<ele>105.036194</ele>
<time>2010-07-17T07:31:44Z</time>
<desc>lat.=55.891205, lon.=26.533514, Alt.=105.036194m. Speed=24.660000m/h.</desc>
<speed>6.850000</speed>
</trkpt>
<trkpt lat="55.891262" lon="26.533514">
<ele>106.772522</ele>
<time>2010-07-17T07:31:45Z</time>
<desc>lat.=55.891262, lon.=26.533514, Alt.=106.772522m. Speed=23.580000m/h.</desc>
<speed>6.550000</speed>
</trkpt>
<trkpt lat="55.891323" lon="26.533512">
<ele>107.897522</ele>
<time>2010-07-17T07:31:46Z</time>
<desc>lat.=55.891323, lon.=26.533512, Alt.=107.897522m. Speed=21.780001m/h.</desc>
<speed>6.050000</speed>
</trkpt>
<trkpt lat="55.891380" lon="26.533508">
<ele>107.932678</ele>
<time>2010-07-17T07:31:47Z</time>
<desc>lat.=55.891380, lon.=26.533508, Alt.=107.932678m. Speed=23.292000m/h.</desc>
<speed>6.470000</speed>
</trkpt>
<trkpt lat="55.891438" lon="26.533491">
<ele>106.368225</ele>
<time>2010-07-17T07:31:48Z</time>
<desc>lat.=55.891438, lon.=26.533491, Alt.=106.368225m. Speed=19.332001m/h.</desc>
<speed>5.370000</speed>
</trkpt>
<trkpt lat="55.891506" lon="26.533485">
<ele>108.565491</ele>
<time>2010-07-17T07:31:49Z</time>
<desc>lat.=55.891506, lon.=26.533485, Alt.=108.565491m. Speed=23.507999m/h.</desc>
<speed>6.530000</speed>
</trkpt>
<trkpt lat="55.891560" lon="26.533487">
<ele>108.448303</ele>
<time>2010-07-17T07:31:50Z</time>
<desc>lat.=55.891560, lon.=26.533487, Alt.=108.448303m. Speed=19.980000m/h.</desc>
<speed>5.550000</speed>
</trkpt>
<trkpt lat="55.891609" lon="26.533480">
<ele>109.016663</ele>
<time>2010-07-17T07:31:51Z</time>
<desc>lat.=55.891609, lon.=26.533480, Alt.=109.016663m. Speed=20.520000m/h.</desc>
<speed>5.700000</speed>
</trkpt>
<trkpt lat="55.891670" lon="26.533472">
<ele>109.383850</ele>
<time>2010-07-17T07:31:52Z</time>
<desc>lat.=55.891670, lon.=26.533472, Alt.=109.383850m. Speed=22.716000m/h.</desc>
<speed>6.310000</speed>
</trkpt>
<trkpt lat="55.891739" lon="26.533476">
<ele>111.530334</ele>
<time>2010-07-17T07:31:53Z</time>
<desc>lat.=55.891739, lon.=26.533476, Alt.=111.530334m. Speed=23.652000m/h.</desc>
<speed>6.570000</speed>
</trkpt>
<trkpt lat="55.891796" lon="26.533463">
<ele>111.643616</ele>
<time>2010-07-17T07:31:54Z</time>
<desc>lat.=55.891796, lon.=26.533463, Alt.=111.643616m. Speed=25.091999m/h.</desc>
<speed>6.970000</speed>
</trkpt>
<trkpt lat="55.891869" lon="26.533455">
<ele>113.840881</ele>
<time>2010-07-17T07:31:55Z</time>
<desc>lat.=55.891869, lon.=26.533455, Alt.=113.840881m. Speed=27.792000m/h.</desc>
<speed>7.720000</speed>
</trkpt>
<trkpt lat="55.891933" lon="26.533447">
<ele>114.657288</ele>
<time>2010-07-17T07:31:56Z</time>
<desc>lat.=55.891933, lon.=26.533447, Alt.=114.657288m. Speed=25.128000m/h.</desc>
<speed>6.980000</speed>
</trkpt>
<trkpt lat="55.891994" lon="26.533434">
<ele>115.092834</ele>
<time>2010-07-17T07:31:57Z</time>
<desc>lat.=55.891994, lon.=26.533434, Alt.=115.092834m. Speed=21.780001m/h.</desc>
<speed>6.050000</speed>
</trkpt>
<trkpt lat="55.892056" lon="26.533415">
<ele>116.016663</ele>
<time>2010-07-17T07:31:58Z</time>
<desc>lat.=55.892056, lon.=26.533415, Alt.=116.016663m. Speed=21.167999m/h.</desc>
<speed>5.880000</speed>
</trkpt>
<trkpt lat="55.892117" lon="26.533394">
<ele>116.850647</ele>
<time>2010-07-17T07:31:59Z</time>
<desc>lat.=55.892117, lon.=26.533394, Alt.=116.850647m. Speed=21.240000m/h.</desc>
<speed>5.900000</speed>
</trkpt>
<trkpt lat="55.892178" lon="26.533382">
<ele>117.061584</ele>
<time>2010-07-17T07:32:00Z</time>
<desc>lat.=55.892178, lon.=26.533382, Alt.=117.061584m. Speed=22.392000m/h.</desc>
<speed>6.220000</speed>
</trkpt>
<trkpt lat="55.892254" lon="26.533365">
<ele>113.751038</ele>
<time>2010-07-17T07:32:01Z</time>
<desc>lat.=55.892254, lon.=26.533365, Alt.=113.751038m. Speed=21.780001m/h.</desc>
<speed>6.050000</speed>
</trkpt>
<trkpt lat="55.892315" lon="26.533361">
<ele>113.499084</ele>
<time>2010-07-17T07:32:02Z</time>
<desc>lat.=55.892315, lon.=26.533361, Alt.=113.499084m. Speed=21.096001m/h.</desc>
<speed>5.860000</speed>
</trkpt>
<trkpt lat="55.892372" lon="26.533356">
<ele>112.571350</ele>
<time>2010-07-17T07:32:03Z</time>
<desc>lat.=55.892372, lon.=26.533356, Alt.=112.571350m. Speed=21.600000m/h.</desc>
<speed>6.000000</speed>
</trkpt>
<trkpt lat="55.892433" lon="26.533339">
<ele>112.106506</ele>
<time>2010-07-17T07:32:04Z</time>
<desc>lat.=55.892433, lon.=26.533339, Alt.=112.106506m. Speed=17.856001m/h.</desc>
<speed>4.960000</speed>
</trkpt>
<trkpt lat="55.892483" lon="26.533325">
<ele>112.639709</ele>
<time>2010-07-17T07:32:05Z</time>
<desc>lat.=55.892483, lon.=26.533325, Alt.=112.639709m. Speed=17.856001m/h.</desc>
<speed>4.960000</speed>
</trkpt>
<trkpt lat="55.892529" lon="26.533308">
<ele>112.782288</ele>
<time>2010-07-17T07:32:06Z</time>
<desc>lat.=55.892529, lon.=26.533308, Alt.=112.782288m. Speed=17.028000m/h.</desc>
<speed>4.730000</speed>
</trkpt>
<trkpt lat="55.892570" lon="26.533291">
<ele>112.909241</ele>
<time>2010-07-17T07:32:07Z</time>
<desc>lat.=55.892570, lon.=26.533291, Alt.=112.909241m. Speed=15.912000m/h.</desc>
<speed>4.420000</speed>
</trkpt>
<trkpt lat="55.892609" lon="26.533272">
<ele>113.022522</ele>
<time>2010-07-17T07:32:08Z</time>
<desc>lat.=55.892609, lon.=26.533272, Alt.=113.022522m. Speed=12.672000m/h.</desc>
<speed>3.520000</speed>
</trkpt>
<trkpt lat="55.892647" lon="26.533266">
<ele>112.551819</ele>
<time>2010-07-17T07:32:09Z</time>
<desc>lat.=55.892647, lon.=26.533266, Alt.=112.551819m. Speed=10.584000m/h.</desc>
<speed>2.940000</speed>
</trkpt>
<trkpt lat="55.892685" lon="26.533249">
<ele>111.401428</ele>
<time>2010-07-17T07:32:10Z</time>
<desc>lat.=55.892685, lon.=26.533249, Alt.=111.401428m. Speed=10.296000m/h.</desc>
<speed>2.860000</speed>
</trkpt>
<trkpt lat="55.892715" lon="26.533236">
<ele>111.534241</ele>
<time>2010-07-17T07:32:11Z</time>
<desc>lat.=55.892715, lon.=26.533236, Alt.=111.534241m. Speed=11.232000m/h.</desc>
<speed>3.120000</speed>
</trkpt>
<trkpt lat="55.892754" lon="26.533241">
<ele>110.633850</ele>
<time>2010-07-17T07:32:12Z</time>
<desc>lat.=55.892754, lon.=26.533241, Alt.=110.633850m. Speed=14.184000m/h.</desc>
<speed>3.940000</speed>
</trkpt>
<trkpt lat="55.892788" lon="26.533237">
<ele>109.483459</ele>
<time>2010-07-17T07:32:13Z</time>
<desc>lat.=55.892788, lon.=26.533237, Alt.=109.483459m. Speed=17.243999m/h.</desc>
<speed>4.790000</speed>
</trkpt>
<trkpt lat="55.892818" lon="26.533245">
<ele>106.930725</ele>
<time>2010-07-17T07:32:14Z</time>
<desc>lat.=55.892818, lon.=26.533245, Alt.=106.930725m. Speed=17.172001m/h.</desc>
<speed>4.770000</speed>
</trkpt>
<trkpt lat="55.892868" lon="26.533247">
<ele>106.018616</ele>
<time>2010-07-17T07:32:15Z</time>
<desc>lat.=55.892868, lon.=26.533247, Alt.=106.018616m. Speed=17.208000m/h.</desc>
<speed>4.780000</speed>
</trkpt>
<trkpt lat="55.892929" lon="26.533262">
<ele>106.172913</ele>
<time>2010-07-17T07:32:16Z</time>
<desc>lat.=55.892929, lon.=26.533262, Alt.=106.172913m. Speed=14.724000m/h.</desc>
<speed>4.090000</speed>
</trkpt>
<trkpt lat="55.892971" lon="26.533257">
<ele>104.665100</ele>
<time>2010-07-17T07:32:17Z</time>
<desc>lat.=55.892971, lon.=26.533257, Alt.=104.665100m. Speed=15.912000m/h.</desc>
<speed>4.420000</speed>
</trkpt>
<trkpt lat="55.893013" lon="26.533251">
<ele>103.956116</ele>
<time>2010-07-17T07:32:18Z</time>
<desc>lat.=55.893013, lon.=26.533251, Alt.=103.956116m. Speed=16.416000m/h.</desc>
<speed>4.560000</speed>
</trkpt>
<trkpt lat="55.893055" lon="26.533245">
<ele>103.356506</ele>
<time>2010-07-17T07:32:19Z</time>
<desc>lat.=55.893055, lon.=26.533245, Alt.=103.356506m. Speed=16.379999m/h.</desc>
<speed>4.550000</speed>
</trkpt>
<trkpt lat="55.893101" lon="26.533230">
<ele>103.825256</ele>
<time>2010-07-17T07:32:20Z</time>
<desc>lat.=55.893101, lon.=26.533230, Alt.=103.825256m. Speed=17.424000m/h.</desc>
<speed>4.840000</speed>
</trkpt>
<trkpt lat="55.893143" lon="26.533215">
<ele>103.747131</ele>
<time>2010-07-17T07:32:21Z</time>
<desc>lat.=55.893143, lon.=26.533215, Alt.=103.747131m. Speed=18.468000m/h.</desc>
<speed>5.130000</speed>
</trkpt>
<trkpt lat="55.893188" lon="26.533203">
<ele>104.979553</ele>
<time>2010-07-17T07:32:22Z</time>
<desc>lat.=55.893188, lon.=26.533203, Alt.=104.979553m. Speed=20.016001m/h.</desc>
<speed>5.560000</speed>
</trkpt>
<trkpt lat="55.893238" lon="26.533188">
<ele>105.020569</ele>
<time>2010-07-17T07:32:23Z</time>
<desc>lat.=55.893238, lon.=26.533188, Alt.=105.020569m. Speed=17.280001m/h.</desc>
<speed>4.800000</speed>
</trkpt>
<trkpt lat="55.893284" lon="26.533175">
<ele>104.010803</ele>
<time>2010-07-17T07:32:24Z</time>
<desc>lat.=55.893284, lon.=26.533175, Alt.=104.010803m. Speed=16.992001m/h.</desc>
<speed>4.720000</speed>
</trkpt>
<trkpt lat="55.893345" lon="26.533171">
<ele>105.569397</ele>
<time>2010-07-17T07:32:25Z</time>
<desc>lat.=55.893345, lon.=26.533171, Alt.=105.569397m. Speed=18.864000m/h.</desc>
<speed>5.240000</speed>
</trkpt>
<trkpt lat="55.893398" lon="26.533155">
<ele>106.696350</ele>
<time>2010-07-17T07:32:26Z</time>
<desc>lat.=55.893398, lon.=26.533155, Alt.=106.696350m. Speed=19.764000m/h.</desc>
<speed>5.490000</speed>
</trkpt>
<trkpt lat="55.893452" lon="26.533155">
<ele>103.139709</ele>
<time>2010-07-17T07:32:27Z</time>
<desc>lat.=55.893452, lon.=26.533155, Alt.=103.139709m. Speed=15.228000m/h.</desc>
<speed>4.230000</speed>
</trkpt>
<trkpt lat="55.893509" lon="26.533152">
<ele>103.463928</ele>
<time>2010-07-17T07:32:28Z</time>
<desc>lat.=55.893509, lon.=26.533152, Alt.=103.463928m. Speed=17.063999m/h.</desc>
<speed>4.740000</speed>
</trkpt>
<trkpt lat="55.893562" lon="26.533133">
<ele>104.928772</ele>
<time>2010-07-17T07:32:29Z</time>
<desc>lat.=55.893562, lon.=26.533133, Alt.=104.928772m. Speed=16.559999m/h.</desc>
<speed>4.600000</speed>
</trkpt>
<trkpt lat="55.893604" lon="26.533112">
<ele>105.122131</ele>
<time>2010-07-17T07:32:30Z</time>
<desc>lat.=55.893604, lon.=26.533112, Alt.=105.122131m. Speed=13.860000m/h.</desc>
<speed>3.850000</speed>
</trkpt>
<trkpt lat="55.893631" lon="26.533092">
<ele>105.311584</ele>
<time>2010-07-17T07:32:31Z</time>
<desc>lat.=55.893631, lon.=26.533092, Alt.=105.311584m. Speed=7.992000m/h.</desc>
<speed>2.220000</speed>
</trkpt>
<trkpt lat="55.893658" lon="26.533072">
<ele>104.633850</ele>
<time>2010-07-17T07:32:32Z</time>
<desc>lat.=55.893658, lon.=26.533072, Alt.=104.633850m. Speed=8.676000m/h.</desc>
<speed>2.410000</speed>
</trkpt>
<trkpt lat="55.893688" lon="26.533051">
<ele>104.911194</ele>
<time>2010-07-17T07:32:33Z</time>
<desc>lat.=55.893688, lon.=26.533051, Alt.=104.911194m. Speed=7.020000m/h.</desc>
<speed>1.950000</speed>
</trkpt>
<trkpt lat="55.893715" lon="26.533033">
<ele>105.872131</ele>
<time>2010-07-17T07:32:34Z</time>
<desc>lat.=55.893715, lon.=26.533033, Alt.=105.872131m. Speed=9.828000m/h.</desc>
<speed>2.730000</speed>
</trkpt>
<trkpt lat="55.893738" lon="26.533018">
<ele>107.002991</ele>
<time>2010-07-17T07:32:35Z</time>
<desc>lat.=55.893738, lon.=26.533018, Alt.=107.002991m. Speed=9.036000m/h.</desc>
<speed>2.510000</speed>
</trkpt>
<trkpt lat="55.893761" lon="26.532991">
<ele>105.116272</ele>
<time>2010-07-17T07:32:36Z</time>
<desc>lat.=55.893761, lon.=26.532991, Alt.=105.116272m. Speed=7.596000m/h.</desc>
<speed>2.110000</speed>
</trkpt>
<trkpt lat="55.893784" lon="26.532963">
<ele>104.206116</ele>
<time>2010-07-17T07:32:37Z</time>
<desc>lat.=55.893784, lon.=26.532963, Alt.=104.206116m. Speed=10.152000m/h.</desc>
<speed>2.820000</speed>
</trkpt>
<trkpt lat="55.893810" lon="26.532932">
<ele>102.510803</ele>
<time>2010-07-17T07:32:38Z</time>
<desc>lat.=55.893810, lon.=26.532932, Alt.=102.510803m. Speed=10.476000m/h.</desc>
<speed>2.910000</speed>
</trkpt>
<trkpt lat="55.893826" lon="26.532892">
<ele>101.768616</ele>
<time>2010-07-17T07:32:39Z</time>
<desc>lat.=55.893826, lon.=26.532892, Alt.=101.768616m. Speed=9.540000m/h.</desc>
<speed>2.650000</speed>
</trkpt>
<trkpt lat="55.893841" lon="26.532860">
<ele>101.569397</ele>
<time>2010-07-17T07:32:40Z</time>
<desc>lat.=55.893841, lon.=26.532860, Alt.=101.569397m. Speed=6.480000m/h.</desc>
<speed>1.800000</speed>
</trkpt>
<trkpt lat="55.893848" lon="26.532835">
<ele>100.864319</ele>
<time>2010-07-17T07:32:41Z</time>
<desc>lat.=55.893848, lon.=26.532835, Alt.=100.864319m. Speed=5.364000m/h.</desc>
<speed>1.490000</speed>
</trkpt>
<trkpt lat="55.893860" lon="26.532818">
<ele>100.881897</ele>
<time>2010-07-17T07:32:42Z</time>
<desc>lat.=55.893860, lon.=26.532818, Alt.=100.881897m. Speed=0.972000m/h.</desc>
<speed>0.270000</speed>
</trkpt>
<trkpt lat="55.893860" lon="26.532814">
<ele>100.374084</ele>
<time>2010-07-17T07:32:43Z</time>
<desc>lat.=55.893860, lon.=26.532814, Alt.=100.374084m. Speed=0.324000m/h.</desc>
<speed>0.090000</speed>
</trkpt>
<trkpt lat="55.893860" lon="26.532803">
<ele>100.317444</ele>
<time>2010-07-17T07:32:44Z</time>
<desc>lat.=55.893860, lon.=26.532803, Alt.=100.317444m. Speed=0.396000m/h.</desc>
<speed>0.110000</speed>
</trkpt>
<trkpt lat="55.893856" lon="26.532791">
<ele>100.278381</ele>
<time>2010-07-17T07:32:45Z</time>
<desc>lat.=55.893856, lon.=26.532791, Alt.=100.278381m. Speed=0.036000m/h.</desc>
<speed>0.010000</speed>
</trkpt>
<trkpt lat="55.893856" lon="26.532791">
<ele>100.274475</ele>
<time>2010-07-17T07:32:46Z</time>
<desc>lat.=55.893856, lon.=26.532791, Alt.=100.274475m. Speed=0.360000m/h.</desc>
<speed>0.100000</speed>
</trkpt>
<trkpt lat="55.893856" lon="26.532789">
<ele>100.284241</ele>
<time>2010-07-17T07:32:47Z</time>
<desc>lat.=55.893856, lon.=26.532789, Alt.=100.284241m. Speed=0.396000m/h.</desc>
<speed>0.110000</speed>
</trkpt>
<trkpt lat="55.893856" lon="26.532787">
<ele>100.307678</ele>
<time>2010-07-17T07:32:48Z</time>
<desc>lat.=55.893856, lon.=26.532787, Alt.=100.307678m. Speed=0.072000m/h.</desc>
<speed>0.020000</speed>
</trkpt>
<trkpt lat="55.893856" lon="26.532787">
<ele>100.340881</ele>
<time>2010-07-17T07:32:49Z</time>
<desc>lat.=55.893856, lon.=26.532787, Alt.=100.340881m. Speed=0.072000m/h.</desc>
<speed>0.020000</speed>
</trkpt>
<trkpt lat="55.893856" lon="26.532785">
<ele>100.360413</ele>
<time>2010-07-17T07:32:50Z</time>
<desc>lat.=55.893856, lon.=26.532785, Alt.=100.360413m. Speed=0.288000m/h.</desc>
<speed>0.080000</speed>
</trkpt>
<trkpt lat="55.893856" lon="26.532785">
<ele>100.391663</ele>
<time>2010-07-17T07:32:51Z</time>
<desc>lat.=55.893856, lon.=26.532785, Alt.=100.391663m. Speed=0.000000m/h.</desc>
<speed>0.000000</speed>
</trkpt>
<trkpt lat="55.893856" lon="26.532785">
<ele>100.422913</ele>
<time>2010-07-17T07:32:52Z</time>
<desc>lat.=55.893856, lon.=26.532785, Alt.=100.422913m. Speed=0.180000m/h.</desc>
<speed>0.050000</speed>
</trkpt>
<trkpt lat="55.893856" lon="26.532785">
<ele>100.448303</ele>
<time>2010-07-17T07:32:53Z</time>
<desc>lat.=55.893856, lon.=26.532785, Alt.=100.448303m. Speed=1.800000m/h.</desc>
<speed>0.500000</speed>
</trkpt>
<trkpt lat="55.893860" lon="26.532778">
<ele>100.479553</ele>
<time>2010-07-17T07:32:54Z</time>
<desc>lat.=55.893860, lon.=26.532778, Alt.=100.479553m. Speed=1.728000m/h.</desc>
<speed>0.480000</speed>
</trkpt>
<trkpt lat="55.893864" lon="26.532776">
<ele>100.583069</ele>
<time>2010-07-17T07:32:55Z</time>
<desc>lat.=55.893864, lon.=26.532776, Alt.=100.583069m. Speed=0.756000m/h.</desc>
<speed>0.210000</speed>
</trkpt>
<trkpt lat="55.893867" lon="26.532776">
<ele>100.655334</ele>
<time>2010-07-17T07:32:56Z</time>
<desc>lat.=55.893867, lon.=26.532776, Alt.=100.655334m. Speed=0.360000m/h.</desc>
<speed>0.100000</speed>
</trkpt>
<trkpt lat="55.893867" lon="26.532776">
<ele>100.717834</ele>
<time>2010-07-17T07:32:57Z</time>
<desc>lat.=55.893867, lon.=26.532776, Alt.=100.717834m. Speed=0.432000m/h.</desc>
<speed>0.120000</speed>
</trkpt>
<trkpt lat="55.893867" lon="26.532776">
<ele>100.770569</ele>
<time>2010-07-17T07:32:58Z</time>
<desc>lat.=55.893867, lon.=26.532776, Alt.=100.770569m. Speed=0.288000m/h.</desc>
<speed>0.080000</speed>
</trkpt>
<trkpt lat="55.893867" lon="26.532778">
<ele>100.809631</ele>
<time>2010-07-17T07:32:59Z</time>
<desc>lat.=55.893867, lon.=26.532778, Alt.=100.809631m. Speed=0.540000m/h.</desc>
<speed>0.150000</speed>
</trkpt>
<trkpt lat="55.893871" lon="26.532778">
<ele>100.842834</ele>
<time>2010-07-17T07:33:00Z</time>
<desc>lat.=55.893871, lon.=26.532778, Alt.=100.842834m. Speed=2.412000m/h.</desc>
<speed>0.670000</speed>
</trkpt>
<trkpt lat="55.893875" lon="26.532772">
<ele>100.833069</ele>
<time>2010-07-17T07:33:01Z</time>
<desc>lat.=55.893875, lon.=26.532772, Alt.=100.833069m. Speed=3.024000m/h.</desc>
<speed>0.840000</speed>
</trkpt>
<trkpt lat="55.893883" lon="26.532768">
<ele>100.827209</ele>
<time>2010-07-17T07:33:02Z</time>
<desc>lat.=55.893883, lon.=26.532768, Alt.=100.827209m. Speed=4.500000m/h.</desc>
<speed>1.250000</speed>
</trkpt>
<trkpt lat="55.893902" lon="26.532764">
<ele>100.801819</ele>
<time>2010-07-17T07:33:03Z</time>
<desc>lat.=55.893902, lon.=26.532764, Alt.=100.801819m. Speed=7.740000m/h.</desc>
<speed>2.150000</speed>
</trkpt>
<trkpt lat="55.893925" lon="26.532772">
<ele>100.758850</ele>
<time>2010-07-17T07:33:04Z</time>
<desc>lat.=55.893925, lon.=26.532772, Alt.=100.758850m. Speed=9.576000m/h.</desc>
<speed>2.660000</speed>
</trkpt>
<trkpt lat="55.893955" lon="26.532795">
<ele>100.557678</ele>
<time>2010-07-17T07:33:05Z</time>
<desc>lat.=55.893955, lon.=26.532795, Alt.=100.557678m. Speed=12.132000m/h.</desc>
<speed>3.370000</speed>
</trkpt>
<trkpt lat="55.893993" lon="26.532822">
<ele>100.583069</ele>
<time>2010-07-17T07:33:06Z</time>
<desc>lat.=55.893993, lon.=26.532822, Alt.=100.583069m. Speed=15.300000m/h.</desc>
<speed>4.250000</speed>
</trkpt>
<trkpt lat="55.894028" lon="26.532867">
<ele>100.280334</ele>
<time>2010-07-17T07:33:07Z</time>
<desc>lat.=55.894028, lon.=26.532867, Alt.=100.280334m. Speed=16.164000m/h.</desc>
<speed>4.490000</speed>
</trkpt>
<trkpt lat="55.894070" lon="26.532917">
<ele>100.155334</ele>
<time>2010-07-17T07:33:08Z</time>
<desc>lat.=55.894070, lon.=26.532917, Alt.=100.155334m. Speed=17.496000m/h.</desc>
<speed>4.860000</speed>
</trkpt>
<trkpt lat="55.894108" lon="26.532972">
<ele>100.010803</ele>
<time>2010-07-17T07:33:09Z</time>
<desc>lat.=55.894108, lon.=26.532972, Alt.=100.010803m. Speed=19.224001m/h.</desc>
<speed>5.340000</speed>
</trkpt>
<trkpt lat="55.894138" lon="26.533014">
<ele>99.790100</ele>
<time>2010-07-17T07:33:10Z</time>
<desc>lat.=55.894138, lon.=26.533014, Alt.=99.790100m. Speed=12.888000m/h.</desc>
<speed>3.580000</speed>
</trkpt>
<trkpt lat="55.894176" lon="26.533043">
<ele>101.249084</ele>
<time>2010-07-17T07:33:11Z</time>
<desc>lat.=55.894176, lon.=26.533043, Alt.=101.249084m. Speed=2.592000m/h.</desc>
<speed>0.720000</speed>
</trkpt>
<trkpt lat="55.894192" lon="26.533045">
<ele>101.385803</ele>
<time>2010-07-17T07:33:12Z</time>
<desc>lat.=55.894192, lon.=26.533045, Alt.=101.385803m. Speed=3.996000m/h.</desc>
<speed>1.110000</speed>
</trkpt>
<trkpt lat="55.894222" lon="26.533031">
<ele>101.297913</ele>
<time>2010-07-17T07:33:13Z</time>
<desc>lat.=55.894222, lon.=26.533031, Alt.=101.297913m. Speed=6.084000m/h.</desc>
<speed>1.690000</speed>
</trkpt>
<trkpt lat="55.894241" lon="26.533005">
<ele>101.165100</ele>
<time>2010-07-17T07:33:14Z</time>
<desc>lat.=55.894241, lon.=26.533005, Alt.=101.165100m. Speed=12.852000m/h.</desc>
<speed>3.570000</speed>
</trkpt>
<trkpt lat="55.894264" lon="26.532951">
<ele>100.883850</ele>
<time>2010-07-17T07:33:15Z</time>
<desc>lat.=55.894264, lon.=26.532951, Alt.=100.883850m. Speed=15.552000m/h.</desc>
<speed>4.320000</speed>
</trkpt>
<trkpt lat="55.894291" lon="26.532892">
<ele>100.479553</ele>
<time>2010-07-17T07:33:16Z</time>
<desc>lat.=55.894291, lon.=26.532892, Alt.=100.479553m. Speed=17.388000m/h.</desc>
<speed>4.830000</speed>
</trkpt>
<trkpt lat="55.894321" lon="26.532827">
<ele>99.946350</ele>
<time>2010-07-17T07:33:17Z</time>
<desc>lat.=55.894321, lon.=26.532827, Alt.=99.946350m. Speed=18.468000m/h.</desc>
<speed>5.130000</speed>
</trkpt>
<trkpt lat="55.894360" lon="26.532757">
<ele>98.256897</ele>
<time>2010-07-17T07:33:18Z</time>
<desc>lat.=55.894360, lon.=26.532757, Alt.=98.256897m. Speed=19.620001m/h.</desc>
<speed>5.450000</speed>
</trkpt>
<trkpt lat="55.894390" lon="26.532686">
<ele>97.596741</ele>
<time>2010-07-17T07:33:19Z</time>
<desc>lat.=55.894390, lon.=26.532686, Alt.=97.596741m. Speed=21.096001m/h.</desc>
<speed>5.860000</speed>
</trkpt>
<trkpt lat="55.894424" lon="26.532608">
<ele>96.833069</ele>
<time>2010-07-17T07:33:20Z</time>
<desc>lat.=55.894424, lon.=26.532608, Alt.=96.833069m. Speed=21.528000m/h.</desc>
<speed>5.980000</speed>
</trkpt>
<trkpt lat="55.894463" lon="26.532526">
<ele>96.083069</ele>
<time>2010-07-17T07:33:21Z</time>
<desc>lat.=55.894463, lon.=26.532526, Alt.=96.083069m. Speed=22.212000m/h.</desc>
<speed>6.170000</speed>
</trkpt>
<trkpt lat="55.894497" lon="26.532446">
<ele>95.256897</ele>
<time>2010-07-17T07:33:22Z</time>
<desc>lat.=55.894497, lon.=26.532446, Alt.=95.256897m. Speed=22.680000m/h.</desc>
<speed>6.300000</speed>
</trkpt>
<trkpt lat="55.894539" lon="26.532370">
<ele>94.774475</ele>
<time>2010-07-17T07:33:23Z</time>
<desc>lat.=55.894539, lon.=26.532370, Alt.=94.774475m. Speed=22.104000m/h.</desc>
<speed>6.140000</speed>
</trkpt>
<trkpt lat="55.894577" lon="26.532299">
<ele>94.219788</ele>
<time>2010-07-17T07:33:24Z</time>
<desc>lat.=55.894577, lon.=26.532299, Alt.=94.219788m. Speed=23.327999m/h.</desc>
<speed>6.480000</speed>
</trkpt>
<trkpt lat="55.894619" lon="26.532228">
<ele>93.581116</ele>
<time>2010-07-17T07:33:25Z</time>
<desc>lat.=55.894619, lon.=26.532228, Alt.=93.581116m. Speed=20.340000m/h.</desc>
<speed>5.650000</speed>
</trkpt>
<trkpt lat="55.894657" lon="26.532171">
<ele>93.010803</ele>
<time>2010-07-17T07:33:26Z</time>
<desc>lat.=55.894657, lon.=26.532171, Alt.=93.010803m. Speed=14.796000m/h.</desc>
<speed>4.110000</speed>
</trkpt>
<trkpt lat="55.894672" lon="26.532118">
<ele>93.135803</ele>
<time>2010-07-17T07:33:27Z</time>
<desc>lat.=55.894672, lon.=26.532118, Alt.=93.135803m. Speed=18.288000m/h.</desc>
<speed>5.080000</speed>
</trkpt>
<trkpt lat="55.894711" lon="26.532055">
<ele>92.936584</ele>
<time>2010-07-17T07:33:28Z</time>
<desc>lat.=55.894711, lon.=26.532055, Alt.=92.936584m. Speed=18.396000m/h.</desc>
<speed>5.110000</speed>
</trkpt>
<trkpt lat="55.894737" lon="26.531988">
<ele>93.477600</ele>
<time>2010-07-17T07:33:29Z</time>
<desc>lat.=55.894737, lon.=26.531988, Alt.=93.477600m. Speed=16.056000m/h.</desc>
<speed>4.460000</speed>
</trkpt>
<trkpt lat="55.894787" lon="26.531952">
<ele>94.282288</ele>
<time>2010-07-17T07:33:30Z</time>
<desc>lat.=55.894787, lon.=26.531952, Alt.=94.282288m. Speed=13.032000m/h.</desc>
<speed>3.620000</speed>
</trkpt>
<trkpt lat="55.894810" lon="26.531927">
<ele>94.891663</ele>
<time>2010-07-17T07:33:31Z</time>
<desc>lat.=55.894810, lon.=26.531927, Alt.=94.891663m. Speed=13.824000m/h.</desc>
<speed>3.840000</speed>
</trkpt>
<trkpt lat="55.894836" lon="26.531912">
<ele>95.751038</ele>
<time>2010-07-17T07:33:32Z</time>
<desc>lat.=55.894836, lon.=26.531912, Alt.=95.751038m. Speed=15.768000m/h.</desc>
<speed>4.380000</speed>
</trkpt>
<trkpt lat="55.894878" lon="26.531902">
<ele>96.260803</ele>
<time>2010-07-17T07:33:33Z</time>
<desc>lat.=55.894878, lon.=26.531902, Alt.=96.260803m. Speed=16.704000m/h.</desc>
<speed>4.640000</speed>
</trkpt>
<trkpt lat="55.894924" lon="26.531904">
<ele>96.309631</ele>
<time>2010-07-17T07:33:34Z</time>
<desc>lat.=55.894924, lon.=26.531904, Alt.=96.309631m. Speed=18.035999m/h.</desc>
<speed>5.010000</speed>
</trkpt>
<trkpt lat="55.894974" lon="26.531906">
<ele>96.528381</ele>
<time>2010-07-17T07:33:35Z</time>
<desc>lat.=55.894974, lon.=26.531906, Alt.=96.528381m. Speed=20.448000m/h.</desc>
<speed>5.680000</speed>
</trkpt>
<trkpt lat="55.895039" lon="26.531916">
<ele>97.313538</ele>
<time>2010-07-17T07:33:36Z</time>
<desc>lat.=55.895039, lon.=26.531916, Alt.=97.313538m. Speed=21.096001m/h.</desc>
<speed>5.860000</speed>
</trkpt>
<trkpt lat="55.895103" lon="26.531933">
<ele>98.247131</ele>
<time>2010-07-17T07:33:37Z</time>
<desc>lat.=55.895103, lon.=26.531933, Alt.=98.247131m. Speed=21.743999m/h.</desc>
<speed>6.040000</speed>
</trkpt>
<trkpt lat="55.895172" lon="26.531946">
<ele>99.319397</ele>
<time>2010-07-17T07:33:38Z</time>
<desc>lat.=55.895172, lon.=26.531946, Alt.=99.319397m. Speed=22.176001m/h.</desc>
<speed>6.160000</speed>
</trkpt>
<trkpt lat="55.895237" lon="26.531952">
<ele>99.784241</ele>
<time>2010-07-17T07:33:39Z</time>
<desc>lat.=55.895237, lon.=26.531952, Alt.=99.784241m. Speed=23.040001m/h.</desc>
<speed>6.400000</speed>
</trkpt>
<trkpt lat="55.895294" lon="26.531969">
<ele>99.993225</ele>
<time>2010-07-17T07:33:40Z</time>
<desc>lat.=55.895294, lon.=26.531969, Alt.=99.993225m. Speed=21.492001m/h.</desc>
<speed>5.970000</speed>
</trkpt>
<trkpt lat="55.895348" lon="26.531988">
<ele>100.385803</ele>
<time>2010-07-17T07:33:41Z</time>
<desc>lat.=55.895348, lon.=26.531988, Alt.=100.385803m. Speed=21.851999m/h.</desc>
<speed>6.070000</speed>
</trkpt>
<trkpt lat="55.895397" lon="26.532013">
<ele>100.522522</ele>
<time>2010-07-17T07:33:42Z</time>
<desc>lat.=55.895397, lon.=26.532013, Alt.=100.522522m. Speed=19.368000m/h.</desc>
<speed>5.380000</speed>
</trkpt>
<trkpt lat="55.895447" lon="26.532038">
<ele>100.528381</ele>
<time>2010-07-17T07:33:43Z</time>
<desc>lat.=55.895447, lon.=26.532038, Alt.=100.528381m. Speed=19.188000m/h.</desc>
<speed>5.330000</speed>
</trkpt>
<trkpt lat="55.895496" lon="26.532063">
<ele>100.600647</ele>
<time>2010-07-17T07:33:44Z</time>
<desc>lat.=55.895496, lon.=26.532063, Alt.=100.600647m. Speed=21.167999m/h.</desc>
<speed>5.880000</speed>
</trkpt>
<trkpt lat="55.895546" lon="26.532085">
<ele>100.682678</ele>
<time>2010-07-17T07:33:45Z</time>
<desc>lat.=55.895546, lon.=26.532085, Alt.=100.682678m. Speed=19.908001m/h.</desc>
<speed>5.530000</speed>
</trkpt>
<trkpt lat="55.895599" lon="26.532124">
<ele>100.669006</ele>
<time>2010-07-17T07:33:46Z</time>
<desc>lat.=55.895599, lon.=26.532124, Alt.=100.669006m. Speed=19.944000m/h.</desc>
<speed>5.540000</speed>
</trkpt>
<trkpt lat="55.895641" lon="26.532167">
<ele>100.774475</ele>
<time>2010-07-17T07:33:47Z</time>
<desc>lat.=55.895641, lon.=26.532167, Alt.=100.774475m. Speed=20.124001m/h.</desc>
<speed>5.590000</speed>
</trkpt>
<trkpt lat="55.895699" lon="26.532221">
<ele>101.569397</ele>
<time>2010-07-17T07:33:48Z</time>
<desc>lat.=55.895699, lon.=26.532221, Alt.=101.569397m. Speed=21.780001m/h.</desc>
<speed>6.050000</speed>
</trkpt>
<trkpt lat="55.895748" lon="26.532270">
<ele>101.510803</ele>
<time>2010-07-17T07:33:49Z</time>
<desc>lat.=55.895748, lon.=26.532270, Alt.=101.510803m. Speed=21.528000m/h.</desc>
<speed>5.980000</speed>
</trkpt>
<trkpt lat="55.895790" lon="26.532309">
<ele>101.633850</ele>
<time>2010-07-17T07:33:50Z</time>
<desc>lat.=55.895790, lon.=26.532309, Alt.=101.633850m. Speed=19.728001m/h.</desc>
<speed>5.480000</speed>
</trkpt>
<trkpt lat="55.895855" lon="26.532349">
<ele>101.256897</ele>
<time>2010-07-17T07:33:51Z</time>
<desc>lat.=55.895855, lon.=26.532349, Alt.=101.256897m. Speed=22.680000m/h.</desc>
<speed>6.300000</speed>
</trkpt>
<trkpt lat="55.895912" lon="26.532391">
<ele>100.559631</ele>
<time>2010-07-17T07:33:52Z</time>
<desc>lat.=55.895912, lon.=26.532391, Alt.=100.559631m. Speed=22.464001m/h.</desc>
<speed>6.240000</speed>
</trkpt>
<trkpt lat="55.895966" lon="26.532429">
<ele>100.235413</ele>
<time>2010-07-17T07:33:53Z</time>
<desc>lat.=55.895966, lon.=26.532429, Alt.=100.235413m. Speed=19.007999m/h.</desc>
<speed>5.280000</speed>
</trkpt>
<trkpt lat="55.896011" lon="26.532459">
<ele>100.122131</ele>
<time>2010-07-17T07:33:54Z</time>
<desc>lat.=55.896011, lon.=26.532459, Alt.=100.122131m. Speed=18.648001m/h.</desc>
<speed>5.180000</speed>
</trkpt>
<trkpt lat="55.896057" lon="26.532469">
<ele>100.022522</ele>
<time>2010-07-17T07:33:55Z</time>
<desc>lat.=55.896057, lon.=26.532469, Alt.=100.022522m. Speed=17.136000m/h.</desc>
<speed>4.760000</speed>
</trkpt>
<trkpt lat="55.896111" lon="26.532486">
<ele>102.635803</ele>
<time>2010-07-17T07:33:56Z</time>
<desc>lat.=55.896111, lon.=26.532486, Alt.=102.635803m. Speed=15.444000m/h.</desc>
<speed>4.290000</speed>
</trkpt>
<trkpt lat="55.896149" lon="26.532494">
<ele>103.833069</ele>
<time>2010-07-17T07:33:57Z</time>
<desc>lat.=55.896149, lon.=26.532494, Alt.=103.833069m. Speed=12.744000m/h.</desc>
<speed>3.540000</speed>
</trkpt>
<trkpt lat="55.896187" lon="26.532495">
<ele>104.961975</ele>
<time>2010-07-17T07:33:58Z</time>
<desc>lat.=55.896187, lon.=26.532495, Alt.=104.961975m. Speed=9.324000m/h.</desc>
<speed>2.590000</speed>
</trkpt>
<trkpt lat="55.896202" lon="26.532494">
<ele>104.768616</ele>
<time>2010-07-17T07:33:59Z</time>
<desc>lat.=55.896202, lon.=26.532494, Alt.=104.768616m. Speed=3.636000m/h.</desc>
<speed>1.010000</speed>
</trkpt>
<trkpt lat="55.896206" lon="26.532494">
<ele>104.881897</ele>
<time>2010-07-17T07:34:00Z</time>
<desc>lat.=55.896206, lon.=26.532494, Alt.=104.881897m. Speed=0.828000m/h.</desc>
<speed>0.230000</speed>
</trkpt>
<trkpt lat="55.896210" lon="26.532497">
<ele>105.018616</ele>
<time>2010-07-17T07:34:01Z</time>
<desc>lat.=55.896210, lon.=26.532497, Alt.=105.018616m. Speed=0.756000m/h.</desc>
<speed>0.210000</speed>
</trkpt>
<trkpt lat="55.896214" lon="26.532505">
<ele>104.711975</ele>
<time>2010-07-17T07:34:02Z</time>
<desc>lat.=55.896214, lon.=26.532505, Alt.=104.711975m. Speed=1.260000m/h.</desc>
<speed>0.350000</speed>
</trkpt>
<trkpt lat="55.896217" lon="26.532516">
<ele>105.708069</ele>
<time>2010-07-17T07:34:03Z</time>
<desc>lat.=55.896217, lon.=26.532516, Alt.=105.708069m. Speed=0.612000m/h.</desc>
<speed>0.170000</speed>
</trkpt>
<trkpt lat="55.896217" lon="26.532520">
<ele>105.842834</ele>
<time>2010-07-17T07:34:04Z</time>
<desc>lat.=55.896217, lon.=26.532520, Alt.=105.842834m. Speed=0.828000m/h.</desc>
<speed>0.230000</speed>
</trkpt>
<trkpt lat="55.896221" lon="26.532522">
<ele>105.950256</ele>
<time>2010-07-17T07:34:05Z</time>
<desc>lat.=55.896221, lon.=26.532522, Alt.=105.950256m. Speed=1.476000m/h.</desc>
<speed>0.410000</speed>
</trkpt>
<trkpt lat="55.896225" lon="26.532526">
<ele>106.038147</ele>
<time>2010-07-17T07:34:06Z</time>
<desc>lat.=55.896225, lon.=26.532526, Alt.=106.038147m. Speed=2.592000m/h.</desc>
<speed>0.720000</speed>
</trkpt>
<trkpt lat="55.896229" lon="26.532532">
<ele>106.131897</ele>
<time>2010-07-17T07:34:07Z</time>
<desc>lat.=55.896229, lon.=26.532532, Alt.=106.131897m. Speed=2.556000m/h.</desc>
<speed>0.710000</speed>
</trkpt>
<trkpt lat="55.896233" lon="26.532537">
<ele>106.215881</ele>
<time>2010-07-17T07:34:08Z</time>
<desc>lat.=55.896233, lon.=26.532537, Alt.=106.215881m. Speed=3.060000m/h.</desc>
<speed>0.850000</speed>
</trkpt>
<trkpt lat="55.896240" lon="26.532547">
<ele>106.288147</ele>
<time>2010-07-17T07:34:09Z</time>
<desc>lat.=55.896240, lon.=26.532547, Alt.=106.288147m. Speed=2.520000m/h.</desc>
<speed>0.700000</speed>
</trkpt>
<trkpt lat="55.896244" lon="26.532555">
<ele>106.370178</ele>
<time>2010-07-17T07:34:10Z</time>
<desc>lat.=55.896244, lon.=26.532555, Alt.=106.370178m. Speed=2.700000m/h.</desc>
<speed>0.750000</speed>
</trkpt>
<trkpt lat="55.896252" lon="26.532562">
<ele>106.471741</ele>
<time>2010-07-17T07:34:11Z</time>
<desc>lat.=55.896252, lon.=26.532562, Alt.=106.471741m. Speed=2.592000m/h.</desc>
<speed>0.720000</speed>
</trkpt>
<trkpt lat="55.896255" lon="26.532568">
<ele>106.606506</ele>
<time>2010-07-17T07:34:12Z</time>
<desc>lat.=55.896255, lon.=26.532568, Alt.=106.606506m. Speed=3.456000m/h.</desc>
<speed>0.960000</speed>
</trkpt>
<trkpt lat="55.896263" lon="26.532574">
<ele>106.715881</ele>
<time>2010-07-17T07:34:13Z</time>
<desc>lat.=55.896263, lon.=26.532574, Alt.=106.715881m. Speed=3.060000m/h.</desc>
<speed>0.850000</speed>
</trkpt>
<trkpt lat="55.896271" lon="26.532578">
<ele>106.833069</ele>
<time>2010-07-17T07:34:14Z</time>
<desc>lat.=55.896271, lon.=26.532578, Alt.=106.833069m. Speed=2.664000m/h.</desc>
<speed>0.740000</speed>
</trkpt>
<trkpt lat="55.896278" lon="26.532579">
<ele>106.942444</ele>
<time>2010-07-17T07:34:15Z</time>
<desc>lat.=55.896278, lon.=26.532579, Alt.=106.942444m. Speed=2.628000m/h.</desc>
<speed>0.730000</speed>
</trkpt>
<trkpt lat="55.896286" lon="26.532581">
<ele>107.051819</ele>
<time>2010-07-17T07:34:16Z</time>
<desc>lat.=55.896286, lon.=26.532581, Alt.=107.051819m. Speed=2.772000m/h.</desc>
<speed>0.770000</speed>
</trkpt>
<trkpt lat="55.896294" lon="26.532583">
<ele>107.180725</ele>
<time>2010-07-17T07:34:17Z</time>
<desc>lat.=55.896294, lon.=26.532583, Alt.=107.180725m. Speed=2.952000m/h.</desc>
<speed>0.820000</speed>
</trkpt>
<trkpt lat="55.896301" lon="26.532585">
<ele>107.299866</ele>
<time>2010-07-17T07:34:18Z</time>
<desc>lat.=55.896301, lon.=26.532585, Alt.=107.299866m. Speed=2.520000m/h.</desc>
<speed>0.700000</speed>
</trkpt>
<trkpt lat="55.896305" lon="26.532591">
<ele>107.401428</ele>
<time>2010-07-17T07:34:19Z</time>
<desc>lat.=55.896305, lon.=26.532591, Alt.=107.401428m. Speed=1.404000m/h.</desc>
<speed>0.390000</speed>
</trkpt>
<trkpt lat="55.896309" lon="26.532595">
<ele>107.495178</ele>
<time>2010-07-17T07:34:20Z</time>
<desc>lat.=55.896309, lon.=26.532595, Alt.=107.495178m. Speed=1.368000m/h.</desc>
<speed>0.380000</speed>
</trkpt>
<trkpt lat="55.896313" lon="26.532597">
<ele>107.586975</ele>
<time>2010-07-17T07:34:21Z</time>
<desc>lat.=55.896313, lon.=26.532597, Alt.=107.586975m. Speed=0.828000m/h.</desc>
<speed>0.230000</speed>
</trkpt>
<trkpt lat="55.896313" lon="26.532595">
<ele>107.678772</ele>
<time>2010-07-17T07:34:22Z</time>
<desc>lat.=55.896313, lon.=26.532595, Alt.=107.678772m. Speed=1.368000m/h.</desc>
<speed>0.380000</speed>
</trkpt>
<trkpt lat="55.896317" lon="26.532593">
<ele>107.762756</ele>
<time>2010-07-17T07:34:23Z</time>
<desc>lat.=55.896317, lon.=26.532593, Alt.=107.762756m. Speed=0.936000m/h.</desc>
<speed>0.260000</speed>
</trkpt>
<trkpt lat="55.896320" lon="26.532593">
<ele>107.836975</ele>
<time>2010-07-17T07:34:24Z</time>
<desc>lat.=55.896320, lon.=26.532593, Alt.=107.836975m. Speed=2.412000m/h.</desc>
<speed>0.670000</speed>
</trkpt>
<trkpt lat="55.896328" lon="26.532597">
<ele>107.926819</ele>
<time>2010-07-17T07:34:25Z</time>
<desc>lat.=55.896328, lon.=26.532597, Alt.=107.926819m. Speed=2.160000m/h.</desc>
<speed>0.600000</speed>
</trkpt>
<trkpt lat="55.896332" lon="26.532597">
<ele>108.010803</ele>
<time>2010-07-17T07:34:26Z</time>
<desc>lat.=55.896332, lon.=26.532597, Alt.=108.010803m. Speed=2.664000m/h.</desc>
<speed>0.740000</speed>
</trkpt>
<trkpt lat="55.896339" lon="26.532591">
<ele>108.090881</ele>
<time>2010-07-17T07:34:27Z</time>
<desc>lat.=55.896339, lon.=26.532591, Alt.=108.090881m. Speed=1.620000m/h.</desc>
<speed>0.450000</speed>
</trkpt>
<trkpt lat="55.896343" lon="26.532593">
<ele>108.145569</ele>
<time>2010-07-17T07:34:28Z</time>
<desc>lat.=55.896343, lon.=26.532593, Alt.=108.145569m. Speed=3.456000m/h.</desc>
<speed>0.960000</speed>
</trkpt>
<trkpt lat="55.896351" lon="26.532585">
<ele>108.184631</ele>
<time>2010-07-17T07:34:29Z</time>
<desc>lat.=55.896351, lon.=26.532585, Alt.=108.184631m. Speed=4.752000m/h.</desc>
<speed>1.320000</speed>
</trkpt>
<trkpt lat="55.896370" lon="26.532562">
<ele>107.053772</ele>
<time>2010-07-17T07:34:30Z</time>
<desc>lat.=55.896370, lon.=26.532562, Alt.=107.053772m. Speed=8.028000m/h.</desc>
<speed>2.230000</speed>
</trkpt>
<trkpt lat="55.896389" lon="26.532530">
<ele>106.663147</ele>
<time>2010-07-17T07:34:31Z</time>
<desc>lat.=55.896389, lon.=26.532530, Alt.=106.663147m. Speed=9.684000m/h.</desc>
<speed>2.690000</speed>
</trkpt>
<trkpt lat="55.896404" lon="26.532495">
<ele>106.108459</ele>
<time>2010-07-17T07:34:32Z</time>
<desc>lat.=55.896404, lon.=26.532495, Alt.=106.108459m. Speed=10.044000m/h.</desc>
<speed>2.790000</speed>
</trkpt>
<trkpt lat="55.896423" lon="26.532452">
<ele>105.729553</ele>
<time>2010-07-17T07:34:33Z</time>
<desc>lat.=55.896423, lon.=26.532452, Alt.=105.729553m. Speed=12.996000m/h.</desc>
<speed>3.610000</speed>
</trkpt>
<trkpt lat="55.896442" lon="26.532396">
<ele>105.346741</ele>
<time>2010-07-17T07:34:34Z</time>
<desc>lat.=55.896442, lon.=26.532396, Alt.=105.346741m. Speed=14.832000m/h.</desc>
<speed>4.120000</speed>
</trkpt>
<trkpt lat="55.896465" lon="26.532331">
<ele>105.161194</ele>
<time>2010-07-17T07:34:35Z</time>
<desc>lat.=55.896465, lon.=26.532331, Alt.=105.161194m. Speed=16.488001m/h.</desc>
<speed>4.580000</speed>
</trkpt>
<trkpt lat="55.896488" lon="26.532261">
<ele>105.139709</ele>
<time>2010-07-17T07:34:36Z</time>
<desc>lat.=55.896488, lon.=26.532261, Alt.=105.139709m. Speed=16.020000m/h.</desc>
<speed>4.450000</speed>
</trkpt>
<trkpt lat="55.896515" lon="26.532192">
<ele>104.960022</ele>
<time>2010-07-17T07:34:37Z</time>
<desc>lat.=55.896515, lon.=26.532192, Alt.=104.960022m. Speed=16.164000m/h.</desc>
<speed>4.490000</speed>
</trkpt>
<trkpt lat="55.896538" lon="26.532135">
<ele>104.647522</ele>
<time>2010-07-17T07:34:38Z</time>
<desc>lat.=55.896538, lon.=26.532135, Alt.=104.647522m. Speed=13.464000m/h.</desc>
<speed>3.740000</speed>
</trkpt>
<trkpt lat="55.896584" lon="26.532095">
<ele>105.629944</ele>
<time>2010-07-17T07:34:39Z</time>
<desc>lat.=55.896584, lon.=26.532095, Alt.=105.629944m. Speed=11.412000m/h.</desc>
<speed>3.170000</speed>
</trkpt>
<trkpt lat="55.896626" lon="26.532091">
<ele>105.961975</ele>
<time>2010-07-17T07:34:40Z</time>
<desc>lat.=55.896626, lon.=26.532091, Alt.=105.961975m. Speed=13.248000m/h.</desc>
<speed>3.680000</speed>
</trkpt>
<trkpt lat="55.896664" lon="26.532106">
<ele>106.342834</ele>
<time>2010-07-17T07:34:41Z</time>
<desc>lat.=55.896664, lon.=26.532106, Alt.=106.342834m. Speed=14.580000m/h.</desc>
<speed>4.050000</speed>
</trkpt>
<trkpt lat="55.896706" lon="26.532125">
<ele>106.446350</ele>
<time>2010-07-17T07:34:42Z</time>
<desc>lat.=55.896706, lon.=26.532125, Alt.=106.446350m. Speed=17.028000m/h.</desc>
<speed>4.730000</speed>
</trkpt>
<trkpt lat="55.896755" lon="26.532145">
<ele>106.135803</ele>
<time>2010-07-17T07:34:43Z</time>
<desc>lat.=55.896755, lon.=26.532145, Alt.=106.135803m. Speed=16.020000m/h.</desc>
<speed>4.450000</speed>
</trkpt>
<trkpt lat="55.896805" lon="26.532177">
<ele>107.475647</ele>
<time>2010-07-17T07:34:44Z</time>
<desc>lat.=55.896805, lon.=26.532177, Alt.=107.475647m. Speed=17.532000m/h.</desc>
<speed>4.870000</speed>
</trkpt>
<trkpt lat="55.896839" lon="26.532211">
<ele>108.157288</ele>
<time>2010-07-17T07:34:45Z</time>
<desc>lat.=55.896839, lon.=26.532211, Alt.=108.157288m. Speed=13.932000m/h.</desc>
<speed>3.870000</speed>
</trkpt>
<trkpt lat="55.896881" lon="26.532228">
<ele>108.219788</ele>
<time>2010-07-17T07:34:46Z</time>
<desc>lat.=55.896881, lon.=26.532228, Alt.=108.219788m. Speed=14.976000m/h.</desc>
<speed>4.160000</speed>
</trkpt>
<trkpt lat="55.896912" lon="26.532251">
<ele>108.362366</ele>
<time>2010-07-17T07:34:47Z</time>
<desc>lat.=55.896912, lon.=26.532251, Alt.=108.362366m. Speed=14.652000m/h.</desc>
<speed>4.070000</speed>
</trkpt>
<trkpt lat="55.896954" lon="26.532263">
<ele>108.547913</ele>
<time>2010-07-17T07:34:48Z</time>
<desc>lat.=55.896954, lon.=26.532263, Alt.=108.547913m. Speed=12.744000m/h.</desc>
<speed>3.540000</speed>
</trkpt>
<trkpt lat="55.896988" lon="26.532261">
<ele>108.743225</ele>
<time>2010-07-17T07:34:49Z</time>
<desc>lat.=55.896988, lon.=26.532261, Alt.=108.743225m. Speed=8.316000m/h.</desc>
<speed>2.310000</speed>
</trkpt>
<trkpt lat="55.897003" lon="26.532240">
<ele>107.608459</ele>
<time>2010-07-17T07:34:50Z</time>
<desc>lat.=55.897003, lon.=26.532240, Alt.=107.608459m. Speed=7.164000m/h.</desc>
<speed>1.990000</speed>
</trkpt>
<trkpt lat="55.897015" lon="26.532198">
<ele>106.497131</ele>
<time>2010-07-17T07:34:51Z</time>
<desc>lat.=55.897015, lon.=26.532198, Alt.=106.497131m. Speed=11.052000m/h.</desc>
<speed>3.070000</speed>
</trkpt>
<trkpt lat="55.897022" lon="26.532150">
<ele>105.618225</ele>
<time>2010-07-17T07:34:52Z</time>
<desc>lat.=55.897022, lon.=26.532150, Alt.=105.618225m. Speed=11.124000m/h.</desc>
<speed>3.090000</speed>
</trkpt>
<trkpt lat="55.897034" lon="26.532097">
<ele>105.258850</ele>
<time>2010-07-17T07:34:53Z</time>
<desc>lat.=55.897034, lon.=26.532097, Alt.=105.258850m. Speed=13.356000m/h.</desc>
<speed>3.710000</speed>
</trkpt>
<trkpt lat="55.897057" lon="26.532032">
<ele>104.936584</ele>
<time>2010-07-17T07:34:54Z</time>
<desc>lat.=55.897057, lon.=26.532032, Alt.=104.936584m. Speed=16.559999m/h.</desc>
<speed>4.600000</speed>
</trkpt>
<trkpt lat="55.897087" lon="26.531967">
<ele>104.516663</ele>
<time>2010-07-17T07:34:55Z</time>
<desc>lat.=55.897087, lon.=26.531967, Alt.=104.516663m. Speed=17.388000m/h.</desc>
<speed>4.830000</speed>
</trkpt>
<trkpt lat="55.897102" lon="26.531906">
<ele>103.479553</ele>
<time>2010-07-17T07:34:56Z</time>
<desc>lat.=55.897102, lon.=26.531906, Alt.=103.479553m. Speed=12.420000m/h.</desc>
<speed>3.450000</speed>
</trkpt>
<trkpt lat="55.897121" lon="26.531845">
<ele>103.059631</ele>
<time>2010-07-17T07:34:57Z</time>
<desc>lat.=55.897121, lon.=26.531845, Alt.=103.059631m. Speed=15.588000m/h.</desc>
<speed>4.330000</speed>
</trkpt>
<trkpt lat="55.897144" lon="26.531780">
<ele>103.028381</ele>
<time>2010-07-17T07:34:58Z</time>
<desc>lat.=55.897144, lon.=26.531780, Alt.=103.028381m. Speed=15.768000m/h.</desc>
<speed>4.380000</speed>
</trkpt>
<trkpt lat="55.897160" lon="26.531717">
<ele>102.309631</ele>
<time>2010-07-17T07:34:59Z</time>
<desc>lat.=55.897160, lon.=26.531717, Alt.=102.309631m. Speed=15.228000m/h.</desc>
<speed>4.230000</speed>
</trkpt>
<trkpt lat="55.897179" lon="26.531645">
<ele>102.286194</ele>
<time>2010-07-17T07:35:00Z</time>
<desc>lat.=55.897179, lon.=26.531645, Alt.=102.286194m. Speed=15.768000m/h.</desc>
<speed>4.380000</speed>
</trkpt>
<trkpt lat="55.897205" lon="26.531578">
<ele>102.094788</ele>
<time>2010-07-17T07:35:01Z</time>
<desc>lat.=55.897205, lon.=26.531578, Alt.=102.094788m. Speed=16.379999m/h.</desc>
<speed>4.550000</speed>
</trkpt>
<trkpt lat="55.897232" lon="26.531509">
<ele>102.114319</ele>
<time>2010-07-17T07:35:02Z</time>
<desc>lat.=55.897232, lon.=26.531509, Alt.=102.114319m. Speed=16.992001m/h.</desc>
<speed>4.720000</speed>
</trkpt>
<trkpt lat="55.897255" lon="26.531445">
<ele>101.784241</ele>
<time>2010-07-17T07:35:03Z</time>
<desc>lat.=55.897255, lon.=26.531445, Alt.=101.784241m. Speed=16.812000m/h.</desc>
<speed>4.670000</speed>
</trkpt>
<trkpt lat="55.897278" lon="26.531384">
<ele>101.495178</ele>
<time>2010-07-17T07:35:04Z</time>
<desc>lat.=55.897278, lon.=26.531384, Alt.=101.495178m. Speed=15.480000m/h.</desc>
<speed>4.300000</speed>
</trkpt>
<trkpt lat="55.897297" lon="26.531321">
<ele>101.254944</ele>
<time>2010-07-17T07:35:05Z</time>
<desc>lat.=55.897297, lon.=26.531321, Alt.=101.254944m. Speed=15.948000m/h.</desc>
<speed>4.430000</speed>
</trkpt>
<trkpt lat="55.897320" lon="26.531254">
<ele>101.024475</ele>
<time>2010-07-17T07:35:06Z</time>
<desc>lat.=55.897320, lon.=26.531254, Alt.=101.024475m. Speed=17.136000m/h.</desc>
<speed>4.760000</speed>
</trkpt>
<trkpt lat="55.897339" lon="26.531193">
<ele>101.139709</ele>
<time>2010-07-17T07:35:07Z</time>
<desc>lat.=55.897339, lon.=26.531193, Alt.=101.139709m. Speed=15.300000m/h.</desc>
<speed>4.250000</speed>
</trkpt>
<trkpt lat="55.897358" lon="26.531134">
<ele>101.356506</ele>
<time>2010-07-17T07:35:08Z</time>
<desc>lat.=55.897358, lon.=26.531134, Alt.=101.356506m. Speed=13.824000m/h.</desc>
<speed>3.840000</speed>
</trkpt>
<trkpt lat="55.897377" lon="26.531073">
<ele>101.100647</ele>
<time>2010-07-17T07:35:09Z</time>
<desc>lat.=55.897377, lon.=26.531073, Alt.=101.100647m. Speed=14.148000m/h.</desc>
<speed>3.930000</speed>
</trkpt>
<trkpt lat="55.897396" lon="26.531004">
<ele>101.372131</ele>
<time>2010-07-17T07:35:10Z</time>
<desc>lat.=55.897396, lon.=26.531004, Alt.=101.372131m. Speed=14.400000m/h.</desc>
<speed>4.000000</speed>
</trkpt>
<trkpt lat="55.897415" lon="26.530947">
<ele>101.471741</ele>
<time>2010-07-17T07:35:11Z</time>
<desc>lat.=55.897415, lon.=26.530947, Alt.=101.471741m. Speed=11.412000m/h.</desc>
<speed>3.170000</speed>
</trkpt>
<trkpt lat="55.897427" lon="26.530905">
<ele>101.850647</ele>
<time>2010-07-17T07:35:12Z</time>
<desc>lat.=55.897427, lon.=26.530905, Alt.=101.850647m. Speed=4.716000m/h.</desc>
<speed>1.310000</speed>
</trkpt>
<trkpt lat="55.897442" lon="26.530872">
<ele>102.417053</ele>
<time>2010-07-17T07:35:13Z</time>
<desc>lat.=55.897442, lon.=26.530872, Alt.=102.417053m. Speed=1.368000m/h.</desc>
<speed>0.380000</speed>
</trkpt>
<trkpt lat="55.897453" lon="26.530863">
<ele>102.377991</ele>
<time>2010-07-17T07:35:14Z</time>
<desc>lat.=55.897453, lon.=26.530863, Alt.=102.377991m. Speed=0.684000m/h.</desc>
<speed>0.190000</speed>
</trkpt>
<trkpt lat="55.897449" lon="26.530855">
<ele>102.620178</ele>
<time>2010-07-17T07:35:15Z</time>
<desc>lat.=55.897449, lon.=26.530855, Alt.=102.620178m. Speed=2.268000m/h.</desc>
<speed>0.630000</speed>
</trkpt>
<trkpt lat="55.897449" lon="26.530846">
<ele>102.729553</ele>
<time>2010-07-17T07:35:16Z</time>
<desc>lat.=55.897449, lon.=26.530846, Alt.=102.729553m. Speed=2.484000m/h.</desc>
<speed>0.690000</speed>
</trkpt>
<trkpt lat="55.897449" lon="26.530834">
<ele>102.672913</ele>
<time>2010-07-17T07:35:17Z</time>
<desc>lat.=55.897449, lon.=26.530834, Alt.=102.672913m. Speed=4.896000m/h.</desc>
<speed>1.360000</speed>
</trkpt>
<trkpt lat="55.897461" lon="26.530809">
<ele>102.657288</ele>
<time>2010-07-17T07:35:18Z</time>
<desc>lat.=55.897461, lon.=26.530809, Alt.=102.657288m. Speed=4.212000m/h.</desc>
<speed>1.170000</speed>
</trkpt>
<trkpt lat="55.897472" lon="26.530787">
<ele>102.585022</ele>
<time>2010-07-17T07:35:19Z</time>
<desc>lat.=55.897472, lon.=26.530787, Alt.=102.585022m. Speed=4.284000m/h.</desc>
<speed>1.190000</speed>
</trkpt>
<trkpt lat="55.897484" lon="26.530767">
<ele>102.450256</ele>
<time>2010-07-17T07:35:20Z</time>
<desc>lat.=55.897484, lon.=26.530767, Alt.=102.450256m. Speed=6.264000m/h.</desc>
<speed>1.740000</speed>
</trkpt>
<trkpt lat="55.897495" lon="26.530750">
<ele>102.294006</ele>
<time>2010-07-17T07:35:21Z</time>
<desc>lat.=55.897495, lon.=26.530750, Alt.=102.294006m. Speed=2.412000m/h.</desc>
<speed>0.670000</speed>
</trkpt>
<trkpt lat="55.897499" lon="26.530737">
<ele>102.170959</ele>
<time>2010-07-17T07:35:22Z</time>
<desc>lat.=55.897499, lon.=26.530737, Alt.=102.170959m. Speed=1.836000m/h.</desc>
<speed>0.510000</speed>
</trkpt>
<trkpt lat="55.897503" lon="26.530722">
<ele>101.965881</ele>
<time>2010-07-17T07:35:23Z</time>
<desc>lat.=55.897503, lon.=26.530722, Alt.=101.965881m. Speed=3.672000m/h.</desc>
<speed>1.020000</speed>
</trkpt>
<trkpt lat="55.897514" lon="26.530699">
<ele>101.885803</ele>
<time>2010-07-17T07:35:24Z</time>
<desc>lat.=55.897514, lon.=26.530699, Alt.=101.885803m. Speed=5.328000m/h.</desc>
<speed>1.480000</speed>
</trkpt>
<trkpt lat="55.897526" lon="26.530685">
<ele>101.813538</ele>
<time>2010-07-17T07:35:25Z</time>
<desc>lat.=55.897526, lon.=26.530685, Alt.=101.813538m. Speed=2.520000m/h.</desc>
<speed>0.700000</speed>
</trkpt>
<trkpt lat="55.897541" lon="26.530664">
<ele>102.051819</ele>
<time>2010-07-17T07:35:26Z</time>
<desc>lat.=55.897541, lon.=26.530664, Alt.=102.051819m. Speed=3.852000m/h.</desc>
<speed>1.070000</speed>
</trkpt>
<trkpt lat="55.897549" lon="26.530661">
<ele>102.044006</ele>
<time>2010-07-17T07:35:27Z</time>
<desc>lat.=55.897549, lon.=26.530661, Alt.=102.044006m. Speed=3.708000m/h.</desc>
<speed>1.030000</speed>
</trkpt>
<trkpt lat="55.897560" lon="26.530661">
<ele>102.034241</ele>
<time>2010-07-17T07:35:28Z</time>
<desc>lat.=55.897560, lon.=26.530661, Alt.=102.034241m. Speed=4.140000m/h.</desc>
<speed>1.150000</speed>
</trkpt>
<trkpt lat="55.897568" lon="26.530659">
<ele>102.053772</ele>
<time>2010-07-17T07:35:29Z</time>
<desc>lat.=55.897568, lon.=26.530659, Alt.=102.053772m. Speed=3.240000m/h.</desc>
<speed>0.900000</speed>
</trkpt>
<trkpt lat="55.897575" lon="26.530659">
<ele>102.153381</ele>
<time>2010-07-17T07:35:30Z</time>
<desc>lat.=55.897575, lon.=26.530659, Alt.=102.153381m. Speed=3.348000m/h.</desc>
<speed>0.930000</speed>
</trkpt>
<trkpt lat="55.897587" lon="26.530657">
<ele>102.077209</ele>
<time>2010-07-17T07:35:31Z</time>
<desc>lat.=55.897587, lon.=26.530657, Alt.=102.077209m. Speed=5.400000m/h.</desc>
<speed>1.500000</speed>
</trkpt>
<trkpt lat="55.897602" lon="26.530661">
<ele>102.030334</ele>
<time>2010-07-17T07:35:32Z</time>
<desc>lat.=55.897602, lon.=26.530661, Alt.=102.030334m. Speed=5.004000m/h.</desc>
<speed>1.390000</speed>
</trkpt>
<trkpt lat="55.897610" lon="26.530670">
<ele>101.614319</ele>
<time>2010-07-17T07:35:33Z</time>
<desc>lat.=55.897610, lon.=26.530670, Alt.=101.614319m. Speed=3.276000m/h.</desc>
<speed>0.910000</speed>
</trkpt>
<trkpt lat="55.897617" lon="26.530676">
<ele>101.458069</ele>
<time>2010-07-17T07:35:34Z</time>
<desc>lat.=55.897617, lon.=26.530676, Alt.=101.458069m. Speed=2.520000m/h.</desc>
<speed>0.700000</speed>
</trkpt>
<trkpt lat="55.897621" lon="26.530678">
<ele>101.391663</ele>
<time>2010-07-17T07:35:35Z</time>
<desc>lat.=55.897621, lon.=26.530678, Alt.=101.391663m. Speed=2.196000m/h.</desc>
<speed>0.610000</speed>
</trkpt>
<trkpt lat="55.897633" lon="26.530680">
<ele>101.618225</ele>
<time>2010-07-17T07:35:36Z</time>
<desc>lat.=55.897633, lon.=26.530680, Alt.=101.618225m. Speed=2.304000m/h.</desc>
<speed>0.640000</speed>
</trkpt>
<trkpt lat="55.897644" lon="26.530689">
<ele>102.252991</ele>
<time>2010-07-17T07:35:37Z</time>
<desc>lat.=55.897644, lon.=26.530689, Alt.=102.252991m. Speed=2.988000m/h.</desc>
<speed>0.830000</speed>
</trkpt>
<trkpt lat="55.897652" lon="26.530691">
<ele>102.231506</ele>
<time>2010-07-17T07:35:38Z</time>
<desc>lat.=55.897652, lon.=26.530691, Alt.=102.231506m. Speed=2.700000m/h.</desc>
<speed>0.750000</speed>
</trkpt>
<trkpt lat="55.897663" lon="26.530691">
<ele>102.026428</ele>
<time>2010-07-17T07:35:39Z</time>
<desc>lat.=55.897663, lon.=26.530691, Alt.=102.026428m. Speed=4.212000m/h.</desc>
<speed>1.170000</speed>
</trkpt>
<trkpt lat="55.897682" lon="26.530678">
<ele>102.592834</ele>
<time>2010-07-17T07:35:40Z</time>
<desc>lat.=55.897682, lon.=26.530678, Alt.=102.592834m. Speed=5.508000m/h.</desc>
<speed>1.530000</speed>
</trkpt>
<trkpt lat="55.897709" lon="26.530680">
<ele>103.004944</ele>
<time>2010-07-17T07:35:41Z</time>
<desc>lat.=55.897709, lon.=26.530680, Alt.=103.004944m. Speed=9.324000m/h.</desc>
<speed>2.590000</speed>
</trkpt>
<trkpt lat="55.897755" lon="26.530676">
<ele>103.622131</ele>
<time>2010-07-17T07:35:42Z</time>
<desc>lat.=55.897755, lon.=26.530676, Alt.=103.622131m. Speed=15.120000m/h.</desc>
<speed>4.200000</speed>
</trkpt>
<trkpt lat="55.897797" lon="26.530664">
<ele>103.846741</ele>
<time>2010-07-17T07:35:43Z</time>
<desc>lat.=55.897797, lon.=26.530664, Alt.=103.846741m. Speed=16.091999m/h.</desc>
<speed>4.470000</speed>
</trkpt>
<trkpt lat="55.897842" lon="26.530663">
<ele>104.313538</ele>
<time>2010-07-17T07:35:44Z</time>
<desc>lat.=55.897842, lon.=26.530663, Alt.=104.313538m. Speed=18.000000m/h.</desc>
<speed>5.000000</speed>
</trkpt>
<trkpt lat="55.897884" lon="26.530680">
<ele>104.321350</ele>
<time>2010-07-17T07:35:45Z</time>
<desc>lat.=55.897884, lon.=26.530680, Alt.=104.321350m. Speed=15.588000m/h.</desc>
<speed>4.330000</speed>
</trkpt>
<trkpt lat="55.897926" lon="26.530725">
<ele>104.915100</ele>
<time>2010-07-17T07:35:46Z</time>
<desc>lat.=55.897926, lon.=26.530725, Alt.=104.915100m. Speed=18.972000m/h.</desc>
<speed>5.270000</speed>
</trkpt>
<trkpt lat="55.897972" lon="26.530766">
<ele>105.057678</ele>
<time>2010-07-17T07:35:47Z</time>
<desc>lat.=55.897972, lon.=26.530766, Alt.=105.057678m. Speed=21.240000m/h.</desc>
<speed>5.900000</speed>
</trkpt>
<trkpt lat="55.898018" lon="26.530809">
<ele>104.479553</ele>
<time>2010-07-17T07:35:48Z</time>
<desc>lat.=55.898018, lon.=26.530809, Alt.=104.479553m. Speed=20.664000m/h.</desc>
<speed>5.740000</speed>
</trkpt>
<trkpt lat="55.898075" lon="26.530853">
<ele>104.276428</ele>
<time>2010-07-17T07:35:49Z</time>
<desc>lat.=55.898075, lon.=26.530853, Alt.=104.276428m. Speed=20.952000m/h.</desc>
<speed>5.820000</speed>
</trkpt>
<trkpt lat="55.898132" lon="26.530895">
<ele>103.833069</ele>
<time>2010-07-17T07:35:50Z</time>
<desc>lat.=55.898132, lon.=26.530895, Alt.=103.833069m. Speed=20.556000m/h.</desc>
<speed>5.710000</speed>
</trkpt>
<trkpt lat="55.898186" lon="26.530941">
<ele>104.102600</ele>
<time>2010-07-17T07:35:51Z</time>
<desc>lat.=55.898186, lon.=26.530941, Alt.=104.102600m. Speed=22.176001m/h.</desc>
<speed>6.160000</speed>
</trkpt>
<trkpt lat="55.898251" lon="26.530983">
<ele>103.120178</ele>
<time>2010-07-17T07:35:52Z</time>
<desc>lat.=55.898251, lon.=26.530983, Alt.=103.120178m. Speed=22.572001m/h.</desc>
<speed>6.270000</speed>
</trkpt>
<trkpt lat="55.898319" lon="26.531023">
<ele>103.280334</ele>
<time>2010-07-17T07:35:53Z</time>
<desc>lat.=55.898319, lon.=26.531023, Alt.=103.280334m. Speed=23.076000m/h.</desc>
<speed>6.410000</speed>
</trkpt>
<trkpt lat="55.898376" lon="26.531073">
<ele>104.040100</ele>
<time>2010-07-17T07:35:54Z</time>
<desc>lat.=55.898376, lon.=26.531073, Alt.=104.040100m. Speed=24.120001m/h.</desc>
<speed>6.700000</speed>
</trkpt>
<trkpt lat="55.898441" lon="26.531113">
<ele>104.419006</ele>
<time>2010-07-17T07:35:55Z</time>
<desc>lat.=55.898441, lon.=26.531113, Alt.=104.419006m. Speed=25.091999m/h.</desc>
<speed>6.970000</speed>
</trkpt>
<trkpt lat="55.898499" lon="26.531151">
<ele>104.774475</ele>
<time>2010-07-17T07:35:56Z</time>
<desc>lat.=55.898499, lon.=26.531151, Alt.=104.774475m. Speed=24.264000m/h.</desc>
<speed>6.740000</speed>
</trkpt>
<trkpt lat="55.898556" lon="26.531183">
<ele>104.946350</ele>
<time>2010-07-17T07:35:57Z</time>
<desc>lat.=55.898556, lon.=26.531183, Alt.=104.946350m. Speed=23.256001m/h.</desc>
<speed>6.460000</speed>
</trkpt>
<trkpt lat="55.898613" lon="26.531212">
<ele>105.520569</ele>
<time>2010-07-17T07:35:58Z</time>
<desc>lat.=55.898613, lon.=26.531212, Alt.=105.520569m. Speed=22.139999m/h.</desc>
<speed>6.150000</speed>
</trkpt>
<trkpt lat="55.898666" lon="26.531235">
<ele>105.774475</ele>
<time>2010-07-17T07:35:59Z</time>
<desc>lat.=55.898666, lon.=26.531235, Alt.=105.774475m. Speed=20.412001m/h.</desc>
<speed>5.670000</speed>
</trkpt>
<trkpt lat="55.898716" lon="26.531265">
<ele>106.067444</ele>
<time>2010-07-17T07:36:00Z</time>
<desc>lat.=55.898716, lon.=26.531265, Alt.=106.067444m. Speed=19.511999m/h.</desc>
<speed>5.420000</speed>
</trkpt>
<trkpt lat="55.898762" lon="26.531303">
<ele>106.075256</ele>
<time>2010-07-17T07:36:01Z</time>
<desc>lat.=55.898762, lon.=26.531303, Alt.=106.075256m. Speed=21.708000m/h.</desc>
<speed>6.030000</speed>
</trkpt>
<trkpt lat="55.898811" lon="26.531338">
<ele>106.135803</ele>
<time>2010-07-17T07:36:02Z</time>
<desc>lat.=55.898811, lon.=26.531338, Alt.=106.135803m. Speed=19.044001m/h.</desc>
<speed>5.290000</speed>
</trkpt>
<trkpt lat="55.898857" lon="26.531368">
<ele>106.006897</ele>
<time>2010-07-17T07:36:03Z</time>
<desc>lat.=55.898857, lon.=26.531368, Alt.=106.006897m. Speed=19.403999m/h.</desc>
<speed>5.390000</speed>
</trkpt>
<trkpt lat="55.898907" lon="26.531378">
<ele>105.901428</ele>
<time>2010-07-17T07:36:04Z</time>
<desc>lat.=55.898907, lon.=26.531378, Alt.=105.901428m. Speed=18.576000m/h.</desc>
<speed>5.160000</speed>
</trkpt>
<trkpt lat="55.898952" lon="26.531366">
<ele>105.561584</ele>
<time>2010-07-17T07:36:05Z</time>
<desc>lat.=55.898952, lon.=26.531366, Alt.=105.561584m. Speed=18.431999m/h.</desc>
<speed>5.120000</speed>
</trkpt>
<trkpt lat="55.898998" lon="26.531326">
<ele>105.631897</ele>
<time>2010-07-17T07:36:06Z</time>
<desc>lat.=55.898998, lon.=26.531326, Alt.=105.631897m. Speed=21.600000m/h.</desc>
<speed>6.000000</speed>
</trkpt>
<trkpt lat="55.899044" lon="26.531263">
<ele>105.651428</ele>
<time>2010-07-17T07:36:07Z</time>
<desc>lat.=55.899044, lon.=26.531263, Alt.=105.651428m. Speed=23.256001m/h.</desc>
<speed>6.460000</speed>
</trkpt>
<trkpt lat="55.899101" lon="26.531195">
<ele>104.202209</ele>
<time>2010-07-17T07:36:08Z</time>
<desc>lat.=55.899101, lon.=26.531195, Alt.=104.202209m. Speed=22.752001m/h.</desc>
<speed>6.320000</speed>
</trkpt>
<trkpt lat="55.899147" lon="26.531120">
<ele>104.051819</ele>
<time>2010-07-17T07:36:09Z</time>
<desc>lat.=55.899147, lon.=26.531120, Alt.=104.051819m. Speed=23.292000m/h.</desc>
<speed>6.470000</speed>
</trkpt>
<trkpt lat="55.899174" lon="26.531038">
<ele>104.586975</ele>
<time>2010-07-17T07:36:10Z</time>
<desc>lat.=55.899174, lon.=26.531038, Alt.=104.586975m. Speed=24.875999m/h.</desc>
<speed>6.910000</speed>
</trkpt>
<trkpt lat="55.899204" lon="26.530964">
<ele>106.977600</ele>
<time>2010-07-17T07:36:11Z</time>
<desc>lat.=55.899204, lon.=26.530964, Alt.=106.977600m. Speed=20.124001m/h.</desc>
<speed>5.590000</speed>
</trkpt>
<trkpt lat="55.899231" lon="26.530884">
<ele>106.858459</ele>
<time>2010-07-17T07:36:12Z</time>
<desc>lat.=55.899231, lon.=26.530884, Alt.=106.858459m. Speed=23.327999m/h.</desc>
<speed>6.480000</speed>
</trkpt>
<trkpt lat="55.899269" lon="26.530798">
<ele>106.127991</ele>
<time>2010-07-17T07:36:13Z</time>
<desc>lat.=55.899269, lon.=26.530798, Alt.=106.127991m. Speed=25.344000m/h.</desc>
<speed>7.040000</speed>
</trkpt>
<trkpt lat="55.899307" lon="26.530722">
<ele>106.069397</ele>
<time>2010-07-17T07:36:14Z</time>
<desc>lat.=55.899307, lon.=26.530722, Alt.=106.069397m. Speed=22.968000m/h.</desc>
<speed>6.380000</speed>
</trkpt>
<trkpt lat="55.899342" lon="26.530636">
<ele>105.393616</ele>
<time>2010-07-17T07:36:15Z</time>
<desc>lat.=55.899342, lon.=26.530636, Alt.=105.393616m. Speed=24.552000m/h.</desc>
<speed>6.820000</speed>
</trkpt>
<trkpt lat="55.899368" lon="26.530546">
<ele>104.608459</ele>
<time>2010-07-17T07:36:16Z</time>
<desc>lat.=55.899368, lon.=26.530546, Alt.=104.608459m. Speed=23.615999m/h.</desc>
<speed>6.560000</speed>
</trkpt>
<trkpt lat="55.899395" lon="26.530464">
<ele>104.223694</ele>
<time>2010-07-17T07:36:17Z</time>
<desc>lat.=55.899395, lon.=26.530464, Alt.=104.223694m. Speed=21.888000m/h.</desc>
<speed>6.080000</speed>
</trkpt>
<trkpt lat="55.899422" lon="26.530388">
<ele>103.756897</ele>
<time>2010-07-17T07:36:18Z</time>
<desc>lat.=55.899422, lon.=26.530388, Alt.=103.756897m. Speed=21.204000m/h.</desc>
<speed>5.890000</speed>
</trkpt>
<trkpt lat="55.899452" lon="26.530304">
<ele>103.944397</ele>
<time>2010-07-17T07:36:19Z</time>
<desc>lat.=55.899452, lon.=26.530304, Alt.=103.944397m. Speed=20.268000m/h.</desc>
<speed>5.630000</speed>
</trkpt>
<trkpt lat="55.899487" lon="26.530214">
<ele>104.053772</ele>
<time>2010-07-17T07:36:20Z</time>
<desc>lat.=55.899487, lon.=26.530214, Alt.=104.053772m. Speed=21.059999m/h.</desc>
<speed>5.850000</speed>
</trkpt>
<trkpt lat="55.899536" lon="26.530111">
<ele>104.510803</ele>
<time>2010-07-17T07:36:21Z</time>
<desc>lat.=55.899536, lon.=26.530111, Alt.=104.510803m. Speed=22.931999m/h.</desc>
<speed>6.370000</speed>
</trkpt>
<trkpt lat="55.899574" lon="26.530024">
<ele>105.034241</ele>
<time>2010-07-17T07:36:22Z</time>
<desc>lat.=55.899574, lon.=26.530024, Alt.=105.034241m. Speed=21.636000m/h.</desc>
<speed>6.010000</speed>
</trkpt>
<trkpt lat="55.899616" lon="26.529934">
<ele>104.872131</ele>
<time>2010-07-17T07:36:23Z</time>
<desc>lat.=55.899616, lon.=26.529934, Alt.=104.872131m. Speed=20.195999m/h.</desc>
<speed>5.610000</speed>
</trkpt>
<trkpt lat="55.899635" lon="26.529865">
<ele>105.292053</ele>
<time>2010-07-17T07:36:24Z</time>
<desc>lat.=55.899635, lon.=26.529865, Alt.=105.292053m. Speed=14.364000m/h.</desc>
<speed>3.990000</speed>
</trkpt>
<trkpt lat="55.899647" lon="26.529827">
<ele>105.547913</ele>
<time>2010-07-17T07:36:25Z</time>
<desc>lat.=55.899647, lon.=26.529827, Alt.=105.547913m. Speed=6.156000m/h.</desc>
<speed>1.710000</speed>
</trkpt>
<trkpt lat="55.899658" lon="26.529835">
<ele>109.397522</ele>
<time>2010-07-17T07:36:26Z</time>
<desc>lat.=55.899658, lon.=26.529835, Alt.=109.397522m. Speed=5.292000m/h.</desc>
<speed>1.470000</speed>
</trkpt>
<trkpt lat="55.899666" lon="26.529819">
<ele>109.579163</ele>
<time>2010-07-17T07:36:27Z</time>
<desc>lat.=55.899666, lon.=26.529819, Alt.=109.579163m. Speed=4.608000m/h.</desc>
<speed>1.280000</speed>
</trkpt>
<trkpt lat="55.899666" lon="26.529802">
<ele>109.581116</ele>
<time>2010-07-17T07:36:28Z</time>
<desc>lat.=55.899666, lon.=26.529802, Alt.=109.581116m. Speed=4.824000m/h.</desc>
<speed>1.340000</speed>
</trkpt>
<trkpt lat="55.899681" lon="26.529770">
<ele>109.723694</ele>
<time>2010-07-17T07:36:29Z</time>
<desc>lat.=55.899681, lon.=26.529770, Alt.=109.723694m. Speed=6.840000m/h.</desc>
<speed>1.900000</speed>
</trkpt>
<trkpt lat="55.899689" lon="26.529734">
<ele>110.514709</ele>
<time>2010-07-17T07:36:30Z</time>
<desc>lat.=55.899689, lon.=26.529734, Alt.=110.514709m. Speed=9.216000m/h.</desc>
<speed>2.560000</speed>
</trkpt>
<trkpt lat="55.899708" lon="26.529678">
<ele>110.663147</ele>
<time>2010-07-17T07:36:31Z</time>
<desc>lat.=55.899708, lon.=26.529678, Alt.=110.663147m. Speed=10.368000m/h.</desc>
<speed>2.880000</speed>
</trkpt>
<trkpt lat="55.899708" lon="26.529633">
<ele>112.428772</ele>
<time>2010-07-17T07:36:32Z</time>
<desc>lat.=55.899708, lon.=26.529633, Alt.=112.428772m. Speed=11.016000m/h.</desc>
<speed>3.060000</speed>
</trkpt>
<trkpt lat="55.899712" lon="26.529594">
<ele>114.465881</ele>
<time>2010-07-17T07:36:33Z</time>
<desc>lat.=55.899712, lon.=26.529594, Alt.=114.465881m. Speed=11.196000m/h.</desc>
<speed>3.110000</speed>
</trkpt>
<trkpt lat="55.899723" lon="26.529543">
<ele>114.942444</ele>
<time>2010-07-17T07:36:34Z</time>
<desc>lat.=55.899723, lon.=26.529543, Alt.=114.942444m. Speed=12.456000m/h.</desc>
<speed>3.460000</speed>
</trkpt>
<trkpt lat="55.899742" lon="26.529497">
<ele>115.626038</ele>
<time>2010-07-17T07:36:35Z</time>
<desc>lat.=55.899742, lon.=26.529497, Alt.=115.626038m. Speed=12.924000m/h.</desc>
<speed>3.590000</speed>
</trkpt>
<trkpt lat="55.899845" lon="26.529417">
<ele>117.042053</ele>
<time>2010-07-17T07:36:36Z</time>
<desc>lat.=55.899845, lon.=26.529417, Alt.=117.042053m. Speed=13.824000m/h.</desc>
<speed>3.840000</speed>
</trkpt>
<trkpt lat="55.899883" lon="26.529379">
<ele>118.059631</ele>
<time>2010-07-17T07:36:37Z</time>
<desc>lat.=55.899883, lon.=26.529379, Alt.=118.059631m. Speed=12.024000m/h.</desc>
<speed>3.340000</speed>
</trkpt>
<trkpt lat="55.899914" lon="26.529345">
<ele>118.733459</ele>
<time>2010-07-17T07:36:38Z</time>
<desc>lat.=55.899914, lon.=26.529345, Alt.=118.733459m. Speed=12.852000m/h.</desc>
<speed>3.570000</speed>
</trkpt>
<trkpt lat="55.899940" lon="26.529312">
<ele>119.495178</ele>
<time>2010-07-17T07:36:39Z</time>
<desc>lat.=55.899940, lon.=26.529312, Alt.=119.495178m. Speed=10.980000m/h.</desc>
<speed>3.050000</speed>
</trkpt>
<trkpt lat="55.899956" lon="26.529287">
<ele>120.223694</ele>
<time>2010-07-17T07:36:40Z</time>
<desc>lat.=55.899956, lon.=26.529287, Alt.=120.223694m. Speed=8.496000m/h.</desc>
<speed>2.360000</speed>
</trkpt>
<trkpt lat="55.899975" lon="26.529263">
<ele>120.932678</ele>
<time>2010-07-17T07:36:41Z</time>
<desc>lat.=55.899975, lon.=26.529263, Alt.=120.932678m. Speed=8.748000m/h.</desc>
<speed>2.430000</speed>
</trkpt>
<trkpt lat="55.899986" lon="26.529242">
<ele>121.725647</ele>
<time>2010-07-17T07:36:42Z</time>
<desc>lat.=55.899986, lon.=26.529242, Alt.=121.725647m. Speed=6.732000m/h.</desc>
<speed>1.870000</speed>
</trkpt>
<trkpt lat="55.899994" lon="26.529217">
<ele>122.637756</ele>
<time>2010-07-17T07:36:43Z</time>
<desc>lat.=55.899994, lon.=26.529217, Alt.=122.637756m. Speed=6.084000m/h.</desc>
<speed>1.690000</speed>
</trkpt>
<trkpt lat="55.900005" lon="26.529144">
<ele>122.766663</ele>
<time>2010-07-17T07:36:44Z</time>
<desc>lat.=55.900005, lon.=26.529144, Alt.=122.766663m. Speed=15.588000m/h.</desc>
<speed>4.330000</speed>
</trkpt>
<trkpt lat="55.900028" lon="26.529081">
<ele>122.999084</ele>
<time>2010-07-17T07:36:45Z</time>
<desc>lat.=55.900028, lon.=26.529081, Alt.=122.999084m. Speed=15.516000m/h.</desc>
<speed>4.310000</speed>
</trkpt>
<trkpt lat="55.900036" lon="26.529020">
<ele>123.356506</ele>
<time>2010-07-17T07:36:46Z</time>
<desc>lat.=55.900036, lon.=26.529020, Alt.=123.356506m. Speed=13.608000m/h.</desc>
<speed>3.780000</speed>
</trkpt>
<trkpt lat="55.900047" lon="26.528965">
<ele>123.571350</ele>
<time>2010-07-17T07:36:47Z</time>
<desc>lat.=55.900047, lon.=26.528965, Alt.=123.571350m. Speed=13.356000m/h.</desc>
<speed>3.710000</speed>
</trkpt>
<trkpt lat="55.900055" lon="26.528936">
<ele>123.577209</ele>
<time>2010-07-17T07:36:48Z</time>
<desc>lat.=55.900055, lon.=26.528936, Alt.=123.577209m. Speed=7.128000m/h.</desc>
<speed>1.980000</speed>
</trkpt>
<trkpt lat="55.900082" lon="26.528921">
<ele>123.835022</ele>
<time>2010-07-17T07:36:49Z</time>
<desc>lat.=55.900082, lon.=26.528921, Alt.=123.835022m. Speed=3.672000m/h.</desc>
<speed>1.020000</speed>
</trkpt>
<trkpt lat="55.900097" lon="26.528908">
<ele>124.147522</ele>
<time>2010-07-17T07:36:50Z</time>
<desc>lat.=55.900097, lon.=26.528908, Alt.=124.147522m. Speed=3.132000m/h.</desc>
<speed>0.870000</speed>
</trkpt>
<trkpt lat="55.900097" lon="26.528902">
<ele>124.473694</ele>
<time>2010-07-17T07:36:51Z</time>
<desc>lat.=55.900097, lon.=26.528902, Alt.=124.473694m. Speed=0.828000m/h.</desc>
<speed>0.230000</speed>
</trkpt>
<trkpt lat="55.900093" lon="26.528898">
<ele>124.799866</ele>
<time>2010-07-17T07:36:52Z</time>
<desc>lat.=55.900093, lon.=26.528898, Alt.=124.799866m. Speed=1.224000m/h.</desc>
<speed>0.340000</speed>
</trkpt>
<trkpt lat="55.900093" lon="26.528885">
<ele>125.225647</ele>
<time>2010-07-17T07:36:53Z</time>
<desc>lat.=55.900093, lon.=26.528885, Alt.=125.225647m. Speed=1.872000m/h.</desc>
<speed>0.520000</speed>
</trkpt>
<trkpt lat="55.900093" lon="26.528877">
<ele>125.354553</ele>
<time>2010-07-17T07:36:54Z</time>
<desc>lat.=55.900093, lon.=26.528877, Alt.=125.354553m. Speed=0.756000m/h.</desc>
<speed>0.210000</speed>
</trkpt>
<trkpt lat="55.900093" lon="26.528873">
<ele>125.489319</ele>
<time>2010-07-17T07:36:55Z</time>
<desc>lat.=55.900093, lon.=26.528873, Alt.=125.489319m. Speed=3.456000m/h.</desc>
<speed>0.960000</speed>
</trkpt>
<trkpt lat="55.900089" lon="26.528860">
<ele>125.620178</ele>
<time>2010-07-17T07:36:56Z</time>
<desc>lat.=55.900089, lon.=26.528860, Alt.=125.620178m. Speed=2.268000m/h.</desc>
<speed>0.630000</speed>
</trkpt>
<trkpt lat="55.900085" lon="26.528852">
<ele>125.760803</ele>
<time>2010-07-17T07:36:57Z</time>
<desc>lat.=55.900085, lon.=26.528852, Alt.=125.760803m. Speed=0.432000m/h.</desc>
<speed>0.120000</speed>
</trkpt>
<trkpt lat="55.900085" lon="26.528854">
<ele>125.905334</ele>
<time>2010-07-17T07:36:58Z</time>
<desc>lat.=55.900085, lon.=26.528854, Alt.=125.905334m. Speed=3.276000m/h.</desc>
<speed>0.910000</speed>
</trkpt>
<trkpt lat="55.900078" lon="26.528862">
<ele>125.999084</ele>
<time>2010-07-17T07:36:59Z</time>
<desc>lat.=55.900078, lon.=26.528862, Alt.=125.999084m. Speed=6.264000m/h.</desc>
<speed>1.740000</speed>
</trkpt>
<trkpt lat="55.900070" lon="26.528896">
<ele>126.059631</ele>
<time>2010-07-17T07:37:00Z</time>
<desc>lat.=55.900070, lon.=26.528896, Alt.=126.059631m. Speed=8.100000m/h.</desc>
<speed>2.250000</speed>
</trkpt>
<trkpt lat="55.900070" lon="26.528912">
<ele>126.137756</ele>
<time>2010-07-17T07:37:01Z</time>
<desc>lat.=55.900070, lon.=26.528912, Alt.=126.137756m. Speed=4.356000m/h.</desc>
<speed>1.210000</speed>
</trkpt>
<trkpt lat="55.900074" lon="26.528910">
<ele>126.266663</ele>
<time>2010-07-17T07:37:02Z</time>
<desc>lat.=55.900074, lon.=26.528910, Alt.=126.266663m. Speed=1.908000m/h.</desc>
<speed>0.530000</speed>
</trkpt>
<trkpt lat="55.900070" lon="26.528910">
<ele>126.502991</ele>
<time>2010-07-17T07:37:03Z</time>
<desc>lat.=55.900070, lon.=26.528910, Alt.=126.502991m. Speed=9.072000m/h.</desc>
<speed>2.520000</speed>
</trkpt>
<trkpt lat="55.900085" lon="26.528889">
<ele>126.571350</ele>
<time>2010-07-17T07:37:04Z</time>
<desc>lat.=55.900085, lon.=26.528889, Alt.=126.571350m. Speed=6.804000m/h.</desc>
<speed>1.890000</speed>
</trkpt>
<trkpt lat="55.900089" lon="26.528877">
<ele>126.581116</ele>
<time>2010-07-17T07:37:05Z</time>
<desc>lat.=55.900089, lon.=26.528877, Alt.=126.581116m. Speed=3.924000m/h.</desc>
<speed>1.090000</speed>
</trkpt>
<trkpt lat="55.900101" lon="26.528847">
<ele>126.536194</ele>
<time>2010-07-17T07:37:06Z</time>
<desc>lat.=55.900101, lon.=26.528847, Alt.=126.536194m. Speed=5.904000m/h.</desc>
<speed>1.640000</speed>
</trkpt>
<trkpt lat="55.900108" lon="26.528837">
<ele>126.452209</ele>
<time>2010-07-17T07:37:07Z</time>
<desc>lat.=55.900108, lon.=26.528837, Alt.=126.452209m. Speed=4.140000m/h.</desc>
<speed>1.150000</speed>
</trkpt>
<trkpt lat="55.900127" lon="26.528812">
<ele>126.336975</ele>
<time>2010-07-17T07:37:08Z</time>
<desc>lat.=55.900127, lon.=26.528812, Alt.=126.336975m. Speed=5.076000m/h.</desc>
<speed>1.410000</speed>
</trkpt>
<trkpt lat="55.900139" lon="26.528784">
<ele>126.335022</ele>
<time>2010-07-17T07:37:09Z</time>
<desc>lat.=55.900139, lon.=26.528784, Alt.=126.335022m. Speed=4.716000m/h.</desc>
<speed>1.310000</speed>
</trkpt>
<trkpt lat="55.900139" lon="26.528753">
<ele>126.368225</ele>
<time>2010-07-17T07:37:10Z</time>
<desc>lat.=55.900139, lon.=26.528753, Alt.=126.368225m. Speed=5.328000m/h.</desc>
<speed>1.480000</speed>
</trkpt>
<trkpt lat="55.900131" lon="26.528725">
<ele>126.389709</ele>
<time>2010-07-17T07:37:11Z</time>
<desc>lat.=55.900131, lon.=26.528725, Alt.=126.389709m. Speed=5.328000m/h.</desc>
<speed>1.480000</speed>
</trkpt>
<trkpt lat="55.900131" lon="26.528692">
<ele>126.415100</ele>
<time>2010-07-17T07:37:12Z</time>
<desc>lat.=55.900131, lon.=26.528692, Alt.=126.415100m. Speed=4.680000m/h.</desc>
<speed>1.300000</speed>
</trkpt>
<trkpt lat="55.900124" lon="26.528652">
<ele>126.460022</ele>
<time>2010-07-17T07:37:13Z</time>
<desc>lat.=55.900124, lon.=26.528652, Alt.=126.460022m. Speed=5.976000m/h.</desc>
<speed>1.660000</speed>
</trkpt>
<trkpt lat="55.900116" lon="26.528625">
<ele>126.510803</ele>
<time>2010-07-17T07:37:14Z</time>
<desc>lat.=55.900116, lon.=26.528625, Alt.=126.510803m. Speed=3.960000m/h.</desc>
<speed>1.100000</speed>
</trkpt>
<trkpt lat="55.900112" lon="26.528589">
<ele>126.567444</ele>
<time>2010-07-17T07:37:15Z</time>
<desc>lat.=55.900112, lon.=26.528589, Alt.=126.567444m. Speed=4.500000m/h.</desc>
<speed>1.250000</speed>
</trkpt>
<trkpt lat="55.900120" lon="26.528549">
<ele>126.594788</ele>
<time>2010-07-17T07:37:16Z</time>
<desc>lat.=55.900120, lon.=26.528549, Alt.=126.594788m. Speed=4.788000m/h.</desc>
<speed>1.330000</speed>
</trkpt>
<trkpt lat="55.900120" lon="26.528515">
<ele>126.618225</ele>
<time>2010-07-17T07:37:17Z</time>
<desc>lat.=55.900120, lon.=26.528515, Alt.=126.618225m. Speed=5.688000m/h.</desc>
<speed>1.580000</speed>
</trkpt>
<trkpt lat="55.900120" lon="26.528473">
<ele>126.635803</ele>
<time>2010-07-17T07:37:18Z</time>
<desc>lat.=55.900120, lon.=26.528473, Alt.=126.635803m. Speed=5.796000m/h.</desc>
<speed>1.610000</speed>
</trkpt>
<trkpt lat="55.900127" lon="26.528442">
<ele>126.643616</ele>
<time>2010-07-17T07:37:19Z</time>
<desc>lat.=55.900127, lon.=26.528442, Alt.=126.643616m. Speed=6.192000m/h.</desc>
<speed>1.720000</speed>
</trkpt>
<trkpt lat="55.900116" lon="26.528440">
<ele>126.641663</ele>
<time>2010-07-17T07:37:20Z</time>
<desc>lat.=55.900116, lon.=26.528440, Alt.=126.641663m. Speed=3.456000m/h.</desc>
<speed>0.960000</speed>
</trkpt>
<trkpt lat="55.900112" lon="26.528448">
<ele>126.608459</ele>
<time>2010-07-17T07:37:21Z</time>
<desc>lat.=55.900112, lon.=26.528448, Alt.=126.608459m. Speed=1.260000m/h.</desc>
<speed>0.350000</speed>
</trkpt>
<trkpt lat="55.900124" lon="26.528450">
<ele>126.583069</ele>
<time>2010-07-17T07:37:22Z</time>
<desc>lat.=55.900124, lon.=26.528450, Alt.=126.583069m. Speed=3.888000m/h.</desc>
<speed>1.080000</speed>
</trkpt>
<trkpt lat="55.900120" lon="26.528467">
<ele>126.542053</ele>
<time>2010-07-17T07:37:23Z</time>
<desc>lat.=55.900120, lon.=26.528467, Alt.=126.542053m. Speed=1.944000m/h.</desc>
<speed>0.540000</speed>
</trkpt>
<trkpt lat="55.900108" lon="26.528490">
<ele>126.510803</ele>
<time>2010-07-17T07:37:24Z</time>
<desc>lat.=55.900108, lon.=26.528490, Alt.=126.510803m. Speed=0.252000m/h.</desc>
<speed>0.070000</speed>
</trkpt>
<trkpt lat="55.900108" lon="26.528492">
<ele>126.495178</ele>
<time>2010-07-17T07:37:25Z</time>
<desc>lat.=55.900108, lon.=26.528492, Alt.=126.495178m. Speed=0.504000m/h.</desc>
<speed>0.140000</speed>
</trkpt>
<trkpt lat="55.900105" lon="26.528502">
<ele>126.471741</ele>
<time>2010-07-17T07:37:26Z</time>
<desc>lat.=55.900105, lon.=26.528502, Alt.=126.471741m. Speed=1.548000m/h.</desc>
<speed>0.430000</speed>
</trkpt>
<trkpt lat="55.900105" lon="26.528509">
<ele>126.417053</ele>
<time>2010-07-17T07:37:27Z</time>
<desc>lat.=55.900105, lon.=26.528509, Alt.=126.417053m. Speed=1.260000m/h.</desc>
<speed>0.350000</speed>
</trkpt>
<trkpt lat="55.900116" lon="26.528509">
<ele>126.377991</ele>
<time>2010-07-17T07:37:28Z</time>
<desc>lat.=55.900116, lon.=26.528509, Alt.=126.377991m. Speed=2.016000m/h.</desc>
<speed>0.560000</speed>
</trkpt>
<trkpt lat="55.900120" lon="26.528519">
<ele>126.336975</ele>
<time>2010-07-17T07:37:29Z</time>
<desc>lat.=55.900120, lon.=26.528519, Alt.=126.336975m. Speed=2.808000m/h.</desc>
<speed>0.780000</speed>
</trkpt>
<trkpt lat="55.900131" lon="26.528532">
<ele>126.288147</ele>
<time>2010-07-17T07:37:30Z</time>
<desc>lat.=55.900131, lon.=26.528532, Alt.=126.288147m. Speed=3.132000m/h.</desc>
<speed>0.870000</speed>
</trkpt>
<trkpt lat="55.900143" lon="26.528530">
<ele>126.239319</ele>
<time>2010-07-17T07:37:31Z</time>
<desc>lat.=55.900143, lon.=26.528530, Alt.=126.239319m. Speed=3.996000m/h.</desc>
<speed>1.110000</speed>
</trkpt>
<trkpt lat="55.900135" lon="26.528553">
<ele>126.206116</ele>
<time>2010-07-17T07:37:32Z</time>
<desc>lat.=55.900135, lon.=26.528553, Alt.=126.206116m. Speed=1.980000m/h.</desc>
<speed>0.550000</speed>
</trkpt>
<trkpt lat="55.900131" lon="26.528570">
<ele>126.176819</ele>
<time>2010-07-17T07:37:33Z</time>
<desc>lat.=55.900131, lon.=26.528570, Alt.=126.176819m. Speed=1.908000m/h.</desc>
<speed>0.530000</speed>
</trkpt>
<trkpt lat="55.900127" lon="26.528591">
<ele>126.151428</ele>
<time>2010-07-17T07:37:34Z</time>
<desc>lat.=55.900127, lon.=26.528591, Alt.=126.151428m. Speed=2.196000m/h.</desc>
<speed>0.610000</speed>
</trkpt>
<trkpt lat="55.900127" lon="26.528612">
<ele>126.100647</ele>
<time>2010-07-17T07:37:35Z</time>
<desc>lat.=55.900127, lon.=26.528612, Alt.=126.100647m. Speed=2.016000m/h.</desc>
<speed>0.560000</speed>
</trkpt>
<trkpt lat="55.900120" lon="26.528637">
<ele>126.063538</ele>
<time>2010-07-17T07:37:36Z</time>
<desc>lat.=55.900120, lon.=26.528637, Alt.=126.063538m. Speed=0.540000m/h.</desc>
<speed>0.150000</speed>
</trkpt>
<trkpt lat="55.900120" lon="26.528650">
<ele>126.067444</ele>
<time>2010-07-17T07:37:37Z</time>
<desc>lat.=55.900120, lon.=26.528650, Alt.=126.067444m. Speed=1.332000m/h.</desc>
<speed>0.370000</speed>
</trkpt>
<trkpt lat="55.900112" lon="26.528666">
<ele>126.022522</ele>
<time>2010-07-17T07:37:38Z</time>
<desc>lat.=55.900112, lon.=26.528666, Alt.=126.022522m. Speed=0.576000m/h.</desc>
<speed>0.160000</speed>
</trkpt>
<trkpt lat="55.900112" lon="26.528679">
<ele>126.020569</ele>
<time>2010-07-17T07:37:39Z</time>
<desc>lat.=55.900112, lon.=26.528679, Alt.=126.020569m. Speed=0.792000m/h.</desc>
<speed>0.220000</speed>
</trkpt>
<trkpt lat="55.900108" lon="26.528687">
<ele>126.020569</ele>
<time>2010-07-17T07:37:40Z</time>
<desc>lat.=55.900108, lon.=26.528687, Alt.=126.020569m. Speed=0.972000m/h.</desc>
<speed>0.270000</speed>
</trkpt>
<trkpt lat="55.900108" lon="26.528690">
<ele>126.016663</ele>
<time>2010-07-17T07:37:41Z</time>
<desc>lat.=55.900108, lon.=26.528690, Alt.=126.016663m. Speed=2.268000m/h.</desc>
<speed>0.630000</speed>
</trkpt>
<trkpt lat="55.900112" lon="26.528688">
<ele>126.014709</ele>
<time>2010-07-17T07:37:42Z</time>
<desc>lat.=55.900112, lon.=26.528688, Alt.=126.014709m. Speed=1.764000m/h.</desc>
<speed>0.490000</speed>
</trkpt>
<trkpt lat="55.900116" lon="26.528681">
<ele>126.002991</ele>
<time>2010-07-17T07:37:43Z</time>
<desc>lat.=55.900116, lon.=26.528681, Alt.=126.002991m. Speed=1.260000m/h.</desc>
<speed>0.350000</speed>
</trkpt>
<trkpt lat="55.900116" lon="26.528677">
<ele>125.995178</ele>
<time>2010-07-17T07:37:44Z</time>
<desc>lat.=55.900116, lon.=26.528677, Alt.=125.995178m. Speed=0.864000m/h.</desc>
<speed>0.240000</speed>
</trkpt>
<trkpt lat="55.900124" lon="26.528666">
<ele>126.057678</ele>
<time>2010-07-17T07:37:45Z</time>
<desc>lat.=55.900124, lon.=26.528666, Alt.=126.057678m. Speed=0.864000m/h.</desc>
<speed>0.240000</speed>
</trkpt>
<trkpt lat="55.900124" lon="26.528677">
<ele>126.055725</ele>
<time>2010-07-17T07:37:46Z</time>
<desc>lat.=55.900124, lon.=26.528677, Alt.=126.055725m. Speed=2.016000m/h.</desc>
<speed>0.560000</speed>
</trkpt>
<trkpt lat="55.900127" lon="26.528677">
<ele>126.051819</ele>
<time>2010-07-17T07:37:47Z</time>
<desc>lat.=55.900127, lon.=26.528677, Alt.=126.051819m. Speed=0.720000m/h.</desc>
<speed>0.200000</speed>
</trkpt>
<trkpt lat="55.900131" lon="26.528688">
<ele>126.057678</ele>
<time>2010-07-17T07:37:48Z</time>
<desc>lat.=55.900131, lon.=26.528688, Alt.=126.057678m. Speed=1.800000m/h.</desc>
<speed>0.500000</speed>
</trkpt>
<trkpt lat="55.900143" lon="26.528664">
<ele>126.061584</ele>
<time>2010-07-17T07:37:49Z</time>
<desc>lat.=55.900143, lon.=26.528664, Alt.=126.061584m. Speed=2.916000m/h.</desc>
<speed>0.810000</speed>
</trkpt>
<trkpt lat="55.900146" lon="26.528671">
<ele>126.055725</ele>
<time>2010-07-17T07:37:50Z</time>
<desc>lat.=55.900146, lon.=26.528671, Alt.=126.055725m. Speed=1.548000m/h.</desc>
<speed>0.430000</speed>
</trkpt>
<trkpt lat="55.900135" lon="26.528696">
<ele>126.047913</ele>
<time>2010-07-17T07:37:51Z</time>
<desc>lat.=55.900135, lon.=26.528696, Alt.=126.047913m. Speed=3.204000m/h.</desc>
<speed>0.890000</speed>
</trkpt>
<trkpt lat="55.900143" lon="26.528683">
<ele>126.049866</ele>
<time>2010-07-17T07:37:52Z</time>
<desc>lat.=55.900143, lon.=26.528683, Alt.=126.049866m. Speed=0.432000m/h.</desc>
<speed>0.120000</speed>
</trkpt>
<trkpt lat="55.900154" lon="26.528694">
<ele>126.184631</ele>
<time>2010-07-17T07:37:53Z</time>
<desc>lat.=55.900154, lon.=26.528694, Alt.=126.184631m. Speed=3.276000m/h.</desc>
<speed>0.910000</speed>
</trkpt>
<trkpt lat="55.900150" lon="26.528664">
<ele>126.213928</ele>
<time>2010-07-17T07:38:01Z</time>
<desc>lat.=55.900150, lon.=26.528664, Alt.=126.213928m. Speed=2.376000m/h.</desc>
<speed>0.660000</speed>
</trkpt>
<trkpt lat="55.900223" lon="26.528688">
<ele>126.469788</ele>
<time>2010-07-17T07:38:26Z</time>
<desc>lat.=55.900223, lon.=26.528688, Alt.=126.469788m. Speed=1.548000m/h.</desc>
<speed>0.430000</speed>
</trkpt>
<trkpt lat="55.900227" lon="26.528704">
<ele>126.467834</ele>
<time>2010-07-17T07:38:27Z</time>
<desc>lat.=55.900227, lon.=26.528704, Alt.=126.467834m. Speed=1.188000m/h.</desc>
<speed>0.330000</speed>
</trkpt>
<trkpt lat="55.900238" lon="26.528721">
<ele>126.487366</ele>
<time>2010-07-17T07:38:28Z</time>
<desc>lat.=55.900238, lon.=26.528721, Alt.=126.487366m. Speed=1.980000m/h.</desc>
<speed>0.550000</speed>
</trkpt>
<trkpt lat="55.900238" lon="26.528738">
<ele>126.547913</ele>
<time>2010-07-17T07:38:29Z</time>
<desc>lat.=55.900238, lon.=26.528738, Alt.=126.547913m. Speed=3.204000m/h.</desc>
<speed>0.890000</speed>
</trkpt>
<trkpt lat="55.900246" lon="26.528759">
<ele>126.590881</ele>
<time>2010-07-17T07:38:30Z</time>
<desc>lat.=55.900246, lon.=26.528759, Alt.=126.590881m. Speed=3.708000m/h.</desc>
<speed>1.030000</speed>
</trkpt>
<trkpt lat="55.900257" lon="26.528767">
<ele>126.620178</ele>
<time>2010-07-17T07:38:31Z</time>
<desc>lat.=55.900257, lon.=26.528767, Alt.=126.620178m. Speed=3.420000m/h.</desc>
<speed>0.950000</speed>
</trkpt>
<trkpt lat="55.900272" lon="26.528772">
<ele>126.649475</ele>
<time>2010-07-17T07:38:32Z</time>
<desc>lat.=55.900272, lon.=26.528772, Alt.=126.649475m. Speed=4.644000m/h.</desc>
<speed>1.290000</speed>
</trkpt>
<trkpt lat="55.900280" lon="26.528778">
<ele>126.653381</ele>
<time>2010-07-17T07:38:33Z</time>
<desc>lat.=55.900280, lon.=26.528778, Alt.=126.653381m. Speed=2.988000m/h.</desc>
<speed>0.830000</speed>
</trkpt>
<trkpt lat="55.900265" lon="26.528795">
<ele>126.711975</ele>
<time>2010-07-17T07:38:34Z</time>
<desc>lat.=55.900265, lon.=26.528795, Alt.=126.711975m. Speed=0.576000m/h.</desc>
<speed>0.160000</speed>
</trkpt>
<trkpt lat="55.900261" lon="26.528797">
<ele>126.739319</ele>
<time>2010-07-17T07:38:35Z</time>
<desc>lat.=55.900261, lon.=26.528797, Alt.=126.739319m. Speed=2.628000m/h.</desc>
<speed>0.730000</speed>
</trkpt>
<trkpt lat="55.900249" lon="26.528811">
<ele>126.782288</ele>
<time>2010-07-17T07:38:36Z</time>
<desc>lat.=55.900249, lon.=26.528811, Alt.=126.782288m. Speed=0.900000m/h.</desc>
<speed>0.250000</speed>
</trkpt>
<trkpt lat="55.900234" lon="26.528818">
<ele>126.710022</ele>
<time>2010-07-17T07:38:37Z</time>
<desc>lat.=55.900234, lon.=26.528818, Alt.=126.710022m. Speed=1.080000m/h.</desc>
<speed>0.300000</speed>
</trkpt>
<trkpt lat="55.900219" lon="26.528830">
<ele>126.774475</ele>
<time>2010-07-17T07:38:38Z</time>
<desc>lat.=55.900219, lon.=26.528830, Alt.=126.774475m. Speed=1.224000m/h.</desc>
<speed>0.340000</speed>
</trkpt>
<trkpt lat="55.900215" lon="26.528839">
<ele>126.815491</ele>
<time>2010-07-17T07:38:39Z</time>
<desc>lat.=55.900215, lon.=26.528839, Alt.=126.815491m. Speed=0.612000m/h.</desc>
<speed>0.170000</speed>
</trkpt>
<trkpt lat="55.900215" lon="26.528843">
<ele>126.864319</ele>
<time>2010-07-17T07:38:40Z</time>
<desc>lat.=55.900215, lon.=26.528843, Alt.=126.864319m. Speed=0.252000m/h.</desc>
<speed>0.070000</speed>
</trkpt>
<trkpt lat="55.900219" lon="26.528845">
<ele>126.899475</ele>
<time>2010-07-17T07:38:41Z</time>
<desc>lat.=55.900219, lon.=26.528845, Alt.=126.899475m. Speed=1.008000m/h.</desc>
<speed>0.280000</speed>
</trkpt>
<trkpt lat="55.900219" lon="26.528858">
<ele>126.938538</ele>
<time>2010-07-17T07:38:42Z</time>
<desc>lat.=55.900219, lon.=26.528858, Alt.=126.938538m. Speed=1.224000m/h.</desc>
<speed>0.340000</speed>
</trkpt>
<trkpt lat="55.900219" lon="26.528866">
<ele>126.971741</ele>
<time>2010-07-17T07:38:43Z</time>
<desc>lat.=55.900219, lon.=26.528866, Alt.=126.971741m. Speed=1.872000m/h.</desc>
<speed>0.520000</speed>
</trkpt>
<trkpt lat="55.900211" lon="26.528868">
<ele>127.006897</ele>
<time>2010-07-17T07:38:44Z</time>
<desc>lat.=55.900211, lon.=26.528868, Alt.=127.006897m. Speed=2.700000m/h.</desc>
<speed>0.750000</speed>
</trkpt>
<trkpt lat="55.900215" lon="26.528521">
<ele>127.680725</ele>
<time>2010-07-17T07:39:24Z</time>
<desc>lat.=55.900215, lon.=26.528521, Alt.=127.680725m. Speed=2.052000m/h.</desc>
<speed>0.570000</speed>
</trkpt>
<trkpt lat="55.900219" lon="26.528530">
<ele>127.676819</ele>
<time>2010-07-17T07:39:43Z</time>
<desc>lat.=55.900219, lon.=26.528530, Alt.=127.676819m. Speed=0.288000m/h.</desc>
<speed>0.080000</speed>
</trkpt>
<trkpt lat="55.900219" lon="26.528532">
<ele>127.676819</ele>
<time>2010-07-17T07:39:44Z</time>
<desc>lat.=55.900219, lon.=26.528532, Alt.=127.676819m. Speed=0.180000m/h.</desc>
<speed>0.050000</speed>
</trkpt>
<trkpt lat="55.900219" lon="26.528532">
<ele>127.674866</ele>
<time>2010-07-17T07:39:45Z</time>
<desc>lat.=55.900219, lon.=26.528532, Alt.=127.674866m. Speed=0.468000m/h.</desc>
<speed>0.130000</speed>
</trkpt>
<trkpt lat="55.900219" lon="26.528534">
<ele>127.674866</ele>
<time>2010-07-17T07:39:46Z</time>
<desc>lat.=55.900219, lon.=26.528534, Alt.=127.674866m. Speed=2.664000m/h.</desc>
<speed>0.740000</speed>
</trkpt>
<trkpt lat="55.900227" lon="26.528532">
<ele>127.620178</ele>
<time>2010-07-17T07:39:47Z</time>
<desc>lat.=55.900227, lon.=26.528532, Alt.=127.620178m. Speed=2.052000m/h.</desc>
<speed>0.570000</speed>
</trkpt>
<trkpt lat="55.900238" lon="26.528532">
<ele>127.563538</ele>
<time>2010-07-17T07:39:48Z</time>
<desc>lat.=55.900238, lon.=26.528532, Alt.=127.563538m. Speed=2.160000m/h.</desc>
<speed>0.600000</speed>
</trkpt>
<trkpt lat="55.900265" lon="26.528498">
<ele>127.499084</ele>
<time>2010-07-17T07:39:49Z</time>
<desc>lat.=55.900265, lon.=26.528498, Alt.=127.499084m. Speed=5.184000m/h.</desc>
<speed>1.440000</speed>
</trkpt>
<trkpt lat="55.900295" lon="26.528481">
<ele>127.426819</ele>
<time>2010-07-17T07:39:50Z</time>
<desc>lat.=55.900295, lon.=26.528481, Alt.=127.426819m. Speed=5.976000m/h.</desc>
<speed>1.660000</speed>
</trkpt>
<trkpt lat="55.900330" lon="26.528450">
<ele>127.348694</ele>
<time>2010-07-17T07:39:51Z</time>
<desc>lat.=55.900330, lon.=26.528450, Alt.=127.348694m. Speed=7.704000m/h.</desc>
<speed>2.140000</speed>
</trkpt>
<trkpt lat="55.900356" lon="26.528440">
<ele>127.262756</ele>
<time>2010-07-17T07:39:52Z</time>
<desc>lat.=55.900356, lon.=26.528440, Alt.=127.262756m. Speed=7.416000m/h.</desc>
<speed>2.060000</speed>
</trkpt>
<trkpt lat="55.900383" lon="26.528425">
<ele>127.182678</ele>
<time>2010-07-17T07:39:53Z</time>
<desc>lat.=55.900383, lon.=26.528425, Alt.=127.182678m. Speed=7.668000m/h.</desc>
<speed>2.130000</speed>
</trkpt>
<trkpt lat="55.900440" lon="26.528385">
<ele>127.104553</ele>
<time>2010-07-17T07:39:54Z</time>
<desc>lat.=55.900440, lon.=26.528385, Alt.=127.104553m. Speed=10.116000m/h.</desc>
<speed>2.810000</speed>
</trkpt>
<trkpt lat="55.900490" lon="26.528355">
<ele>127.028381</ele>
<time>2010-07-17T07:39:55Z</time>
<desc>lat.=55.900490, lon.=26.528355, Alt.=127.028381m. Speed=11.772000m/h.</desc>
<speed>3.270000</speed>
</trkpt>
<trkpt lat="55.900513" lon="26.528355">
<ele>126.940491</ele>
<time>2010-07-17T07:39:56Z</time>
<desc>lat.=55.900513, lon.=26.528355, Alt.=126.940491m. Speed=11.412000m/h.</desc>
<speed>3.170000</speed>
</trkpt>
<trkpt lat="55.900494" lon="26.528383">
<ele>126.848694</ele>
<time>2010-07-17T07:39:57Z</time>
<desc>lat.=55.900494, lon.=26.528383, Alt.=126.848694m. Speed=8.424000m/h.</desc>
<speed>2.340000</speed>
</trkpt>
<trkpt lat="55.900421" lon="26.528467">
<ele>126.758850</ele>
<time>2010-07-17T07:39:58Z</time>
<desc>lat.=55.900421, lon.=26.528467, Alt.=126.758850m. Speed=3.312000m/h.</desc>
<speed>0.920000</speed>
</trkpt>
<trkpt lat="55.900345" lon="26.528559">
<ele>126.672913</ele>
<time>2010-07-17T07:39:59Z</time>
<desc>lat.=55.900345, lon.=26.528559, Alt.=126.672913m. Speed=3.312000m/h.</desc>
<speed>0.920000</speed>
</trkpt>
<trkpt lat="55.900299" lon="26.528614">
<ele>126.602600</ele>
<time>2010-07-17T07:40:00Z</time>
<desc>lat.=55.900299, lon.=26.528614, Alt.=126.602600m. Speed=5.256000m/h.</desc>
<speed>1.460000</speed>
</trkpt>
<trkpt lat="55.900223" lon="26.528692">
<ele>126.514709</ele>
<time>2010-07-17T07:40:01Z</time>
<desc>lat.=55.900223, lon.=26.528692, Alt.=126.514709m. Speed=5.976000m/h.</desc>
<speed>1.660000</speed>
</trkpt>
<trkpt lat="55.900158" lon="26.528677">
<ele>126.438538</ele>
<time>2010-07-17T07:40:02Z</time>
<desc>lat.=55.900158, lon.=26.528677, Alt.=126.438538m. Speed=7.164000m/h.</desc>
<speed>1.990000</speed>
</trkpt>
<trkpt lat="55.900230" lon="26.528549">
<ele>126.688538</ele>
<time>2010-07-17T07:40:03Z</time>
<desc>lat.=55.900230, lon.=26.528549, Alt.=126.688538m. Speed=1.152000m/h.</desc>
<speed>0.320000</speed>
</trkpt>
<trkpt lat="55.900211" lon="26.528559">
<ele>126.788147</ele>
<time>2010-07-17T07:40:04Z</time>
<desc>lat.=55.900211, lon.=26.528559, Alt.=126.788147m. Speed=1.944000m/h.</desc>
<speed>0.540000</speed>
</trkpt>
<trkpt lat="55.900200" lon="26.528545">
<ele>126.442444</ele>
<time>2010-07-17T07:40:05Z</time>
<desc>lat.=55.900200, lon.=26.528545, Alt.=126.442444m. Speed=3.276000m/h.</desc>
<speed>0.910000</speed>
</trkpt>
<trkpt lat="55.900200" lon="26.528538">
<ele>126.258850</ele>
<time>2010-07-17T07:40:06Z</time>
<desc>lat.=55.900200, lon.=26.528538, Alt.=126.258850m. Speed=3.744000m/h.</desc>
<speed>1.040000</speed>
</trkpt>
<trkpt lat="55.900185" lon="26.528549">
<ele>126.348694</ele>
<time>2010-07-17T07:40:07Z</time>
<desc>lat.=55.900185, lon.=26.528549, Alt.=126.348694m. Speed=3.060000m/h.</desc>
<speed>0.850000</speed>
</trkpt>
<trkpt lat="55.900169" lon="26.528551">
<ele>126.752991</ele>
<time>2010-07-17T07:40:08Z</time>
<desc>lat.=55.900169, lon.=26.528551, Alt.=126.752991m. Speed=0.396000m/h.</desc>
<speed>0.110000</speed>
</trkpt>
<trkpt lat="55.900181" lon="26.528543">
<ele>127.036194</ele>
<time>2010-07-17T07:40:09Z</time>
<desc>lat.=55.900181, lon.=26.528543, Alt.=127.036194m. Speed=0.504000m/h.</desc>
<speed>0.140000</speed>
</trkpt>
<trkpt lat="55.900181" lon="26.528551">
<ele>127.958069</ele>
<time>2010-07-17T07:40:10Z</time>
<desc>lat.=55.900181, lon.=26.528551, Alt.=127.958069m. Speed=0.756000m/h.</desc>
<speed>0.210000</speed>
</trkpt>
<trkpt lat="55.900192" lon="26.528545">
<ele>127.991272</ele>
<time>2010-07-17T07:40:11Z</time>
<desc>lat.=55.900192, lon.=26.528545, Alt.=127.991272m. Speed=0.900000m/h.</desc>
<speed>0.250000</speed>
</trkpt>
<trkpt lat="55.900196" lon="26.528547">
<ele>127.969788</ele>
<time>2010-07-17T07:40:12Z</time>
<desc>lat.=55.900196, lon.=26.528547, Alt.=127.969788m. Speed=0.684000m/h.</desc>
<speed>0.190000</speed>
</trkpt>
<trkpt lat="55.900196" lon="26.528547">
<ele>127.963928</ele>
<time>2010-07-17T07:40:13Z</time>
<desc>lat.=55.900196, lon.=26.528547, Alt.=127.963928m. Speed=0.684000m/h.</desc>
<speed>0.190000</speed>
</trkpt>
<trkpt lat="55.900200" lon="26.528545">
<ele>127.928772</ele>
<time>2010-07-17T07:40:14Z</time>
<desc>lat.=55.900200, lon.=26.528545, Alt.=127.928772m. Speed=0.396000m/h.</desc>
<speed>0.110000</speed>
</trkpt>
<trkpt lat="55.900200" lon="26.528543">
<ele>127.899475</ele>
<time>2010-07-17T07:40:15Z</time>
<desc>lat.=55.900200, lon.=26.528543, Alt.=127.899475m. Speed=0.180000m/h.</desc>
<speed>0.050000</speed>
</trkpt>
<trkpt lat="55.900200" lon="26.528543">
<ele>127.879944</ele>
<time>2010-07-17T07:40:16Z</time>
<desc>lat.=55.900200, lon.=26.528543, Alt.=127.879944m. Speed=1.116000m/h.</desc>
<speed>0.310000</speed>
</trkpt>
<trkpt lat="55.900204" lon="26.528517">
<ele>128.369263</ele>
<time>2010-07-17T07:40:17Z</time>
<desc>lat.=55.900204, lon.=26.528517, Alt.=128.369263m. Speed=3.276000m/h.</desc>
<speed>0.910000</speed>
</trkpt>
<trkpt lat="55.900204" lon="26.528500">
<ele>129.037231</ele>
<time>2010-07-17T07:40:18Z</time>
<desc>lat.=55.900204, lon.=26.528500, Alt.=129.037231m. Speed=3.960000m/h.</desc>
<speed>1.100000</speed>
</trkpt>
<trkpt lat="55.900200" lon="26.528477">
<ele>129.236450</ele>
<time>2010-07-17T07:40:19Z</time>
<desc>lat.=55.900200, lon.=26.528477, Alt.=129.236450m. Speed=4.176000m/h.</desc>
<speed>1.160000</speed>
</trkpt>
<trkpt lat="55.900227" lon="26.528446">
<ele>128.834106</ele>
<time>2010-07-17T07:40:20Z</time>
<desc>lat.=55.900227, lon.=26.528446, Alt.=128.834106m. Speed=6.048000m/h.</desc>
<speed>1.680000</speed>
</trkpt>
<trkpt lat="55.900238" lon="26.528431">
<ele>128.455200</ele>
<time>2010-07-17T07:40:21Z</time>
<desc>lat.=55.900238, lon.=26.528431, Alt.=128.455200m. Speed=5.652000m/h.</desc>
<speed>1.570000</speed>
</trkpt>
<trkpt lat="55.900238" lon="26.528414">
<ele>128.259888</ele>
<time>2010-07-17T07:40:22Z</time>
<desc>lat.=55.900238, lon.=26.528414, Alt.=128.259888m. Speed=6.300000m/h.</desc>
<speed>1.750000</speed>
</trkpt>
<trkpt lat="55.900234" lon="26.528400">
<ele>128.189575</ele>
<time>2010-07-17T07:40:23Z</time>
<desc>lat.=55.900234, lon.=26.528400, Alt.=128.189575m. Speed=4.428000m/h.</desc>
<speed>1.230000</speed>
</trkpt>
<trkpt lat="55.900234" lon="26.528385">
<ele>128.134888</ele>
<time>2010-07-17T07:40:24Z</time>
<desc>lat.=55.900234, lon.=26.528385, Alt.=128.134888m. Speed=4.068000m/h.</desc>
<speed>1.130000</speed>
</trkpt>
<trkpt lat="55.900234" lon="26.528376">
<ele>127.946350</ele>
<time>2010-07-17T07:40:25Z</time>
<desc>lat.=55.900234, lon.=26.528376, Alt.=127.946350m. Speed=3.528000m/h.</desc>
<speed>0.980000</speed>
</trkpt>
<trkpt lat="55.900215" lon="26.528399">
<ele>126.258850</ele>
<time>2010-07-17T07:40:26Z</time>
<desc>lat.=55.900215, lon.=26.528399, Alt.=126.258850m. Speed=3.132000m/h.</desc>
<speed>0.870000</speed>
</trkpt>
<trkpt lat="55.900208" lon="26.528391">
<ele>125.807678</ele>
<time>2010-07-17T07:40:27Z</time>
<desc>lat.=55.900208, lon.=26.528391, Alt.=125.807678m. Speed=4.932000m/h.</desc>
<speed>1.370000</speed>
</trkpt>
<trkpt lat="55.900223" lon="26.528374">
<ele>126.426819</ele>
<time>2010-07-17T07:40:28Z</time>
<desc>lat.=55.900223, lon.=26.528374, Alt.=126.426819m. Speed=7.956000m/h.</desc>
<speed>2.210000</speed>
</trkpt>
<trkpt lat="55.900230" lon="26.528362">
<ele>126.592834</ele>
<time>2010-07-17T07:40:29Z</time>
<desc>lat.=55.900230, lon.=26.528362, Alt.=126.592834m. Speed=4.968000m/h.</desc>
<speed>1.380000</speed>
</trkpt>
<trkpt lat="55.900215" lon="26.528366">
<ele>126.688538</ele>
<time>2010-07-17T07:40:30Z</time>
<desc>lat.=55.900215, lon.=26.528366, Alt.=126.688538m. Speed=8.136000m/h.</desc>
<speed>2.260000</speed>
</trkpt>
<trkpt lat="55.900208" lon="26.528320">
<ele>126.116272</ele>
<time>2010-07-17T07:40:31Z</time>
<desc>lat.=55.900208, lon.=26.528320, Alt.=126.116272m. Speed=7.740000m/h.</desc>
<speed>2.150000</speed>
</trkpt>
<trkpt lat="55.900211" lon="26.528286">
<ele>126.163147</ele>
<time>2010-07-17T07:40:32Z</time>
<desc>lat.=55.900211, lon.=26.528286, Alt.=126.163147m. Speed=6.048000m/h.</desc>
<speed>1.680000</speed>
</trkpt>
<trkpt lat="55.900219" lon="26.528267">
<ele>125.975647</ele>
<time>2010-07-17T07:40:33Z</time>
<desc>lat.=55.900219, lon.=26.528267, Alt.=125.975647m. Speed=5.976000m/h.</desc>
<speed>1.660000</speed>
</trkpt>
<trkpt lat="55.900223" lon="26.528252">
<ele>125.868225</ele>
<time>2010-07-17T07:40:34Z</time>
<desc>lat.=55.900223, lon.=26.528252, Alt.=125.868225m. Speed=5.184000m/h.</desc>
<speed>1.440000</speed>
</trkpt>
<trkpt lat="55.900227" lon="26.528234">
<ele>125.940491</ele>
<time>2010-07-17T07:40:35Z</time>
<desc>lat.=55.900227, lon.=26.528234, Alt.=125.940491m. Speed=5.040000m/h.</desc>
<speed>1.400000</speed>
</trkpt>
<trkpt lat="55.900230" lon="26.528231">
<ele>125.981506</ele>
<time>2010-07-17T07:40:36Z</time>
<desc>lat.=55.900230, lon.=26.528231, Alt.=125.981506m. Speed=3.996000m/h.</desc>
<speed>1.110000</speed>
</trkpt>
<trkpt lat="55.900253" lon="26.528217">
<ele>126.131897</ele>
<time>2010-07-17T07:40:37Z</time>
<desc>lat.=55.900253, lon.=26.528217, Alt.=126.131897m. Speed=4.212000m/h.</desc>
<speed>1.170000</speed>
</trkpt>
<trkpt lat="55.900265" lon="26.528210">
<ele>126.211975</ele>
<time>2010-07-17T07:40:38Z</time>
<desc>lat.=55.900265, lon.=26.528210, Alt.=126.211975m. Speed=6.408000m/h.</desc>
<speed>1.780000</speed>
</trkpt>
<trkpt lat="55.900276" lon="26.528206">
<ele>126.211975</ele>
<time>2010-07-17T07:40:39Z</time>
<desc>lat.=55.900276, lon.=26.528206, Alt.=126.211975m. Speed=4.212000m/h.</desc>
<speed>1.170000</speed>
</trkpt>
<trkpt lat="55.900288" lon="26.528206">
<ele>126.274475</ele>
<time>2010-07-17T07:40:40Z</time>
<desc>lat.=55.900288, lon.=26.528206, Alt.=126.274475m. Speed=3.456000m/h.</desc>
<speed>0.960000</speed>
</trkpt>
<trkpt lat="55.900291" lon="26.528210">
<ele>126.397522</ele>
<time>2010-07-17T07:40:41Z</time>
<desc>lat.=55.900291, lon.=26.528210, Alt.=126.397522m. Speed=1.836000m/h.</desc>
<speed>0.510000</speed>
</trkpt>
<trkpt lat="55.900291" lon="26.528212">
<ele>126.485413</ele>
<time>2010-07-17T07:40:42Z</time>
<desc>lat.=55.900291, lon.=26.528212, Alt.=126.485413m. Speed=0.720000m/h.</desc>
<speed>0.200000</speed>
</trkpt>
<trkpt lat="55.900284" lon="26.528202">
<ele>126.360413</ele>
<time>2010-07-17T07:40:43Z</time>
<desc>lat.=55.900284, lon.=26.528202, Alt.=126.360413m. Speed=3.312000m/h.</desc>
<speed>0.920000</speed>
</trkpt>
<trkpt lat="55.900284" lon="26.528185">
<ele>126.219788</ele>
<time>2010-07-17T07:40:44Z</time>
<desc>lat.=55.900284, lon.=26.528185, Alt.=126.219788m. Speed=4.824000m/h.</desc>
<speed>1.340000</speed>
</trkpt>
<trkpt lat="55.900284" lon="26.528170">
<ele>126.135803</ele>
<time>2010-07-17T07:40:45Z</time>
<desc>lat.=55.900284, lon.=26.528170, Alt.=126.135803m. Speed=2.664000m/h.</desc>
<speed>0.740000</speed>
</trkpt>
<trkpt lat="55.900288" lon="26.528154">
<ele>125.940491</ele>
<time>2010-07-17T07:40:46Z</time>
<desc>lat.=55.900288, lon.=26.528154, Alt.=125.940491m. Speed=1.872000m/h.</desc>
<speed>0.520000</speed>
</trkpt>
<trkpt lat="55.900299" lon="26.528131">
<ele>125.768616</ele>
<time>2010-07-17T07:40:47Z</time>
<desc>lat.=55.900299, lon.=26.528131, Alt.=125.768616m. Speed=1.188000m/h.</desc>
<speed>0.330000</speed>
</trkpt>
<trkpt lat="55.900303" lon="26.528112">
<ele>125.672913</ele>
<time>2010-07-17T07:40:48Z</time>
<desc>lat.=55.900303, lon.=26.528112, Alt.=125.672913m. Speed=2.304000m/h.</desc>
<speed>0.640000</speed>
</trkpt>
<trkpt lat="55.900299" lon="26.528091">
<ele>125.549866</ele>
<time>2010-07-17T07:40:49Z</time>
<desc>lat.=55.900299, lon.=26.528091, Alt.=125.549866m. Speed=4.500000m/h.</desc>
<speed>1.250000</speed>
</trkpt>
<trkpt lat="55.900307" lon="26.528065">
<ele>125.501038</ele>
<time>2010-07-17T07:40:50Z</time>
<desc>lat.=55.900307, lon.=26.528065, Alt.=125.501038m. Speed=5.076000m/h.</desc>
<speed>1.410000</speed>
</trkpt>
<trkpt lat="55.900295" lon="26.528034">
<ele>125.276428</ele>
<time>2010-07-17T07:40:51Z</time>
<desc>lat.=55.900295, lon.=26.528034, Alt.=125.276428m. Speed=3.276000m/h.</desc>
<speed>0.910000</speed>
</trkpt>
<trkpt lat="55.900280" lon="26.528004">
<ele>125.120178</ele>
<time>2010-07-17T07:40:52Z</time>
<desc>lat.=55.900280, lon.=26.528004, Alt.=125.120178m. Speed=3.276000m/h.</desc>
<speed>0.910000</speed>
</trkpt>
<trkpt lat="55.900272" lon="26.527960">
<ele>124.641663</ele>
<time>2010-07-17T07:40:53Z</time>
<desc>lat.=55.900272, lon.=26.527960, Alt.=124.641663m. Speed=2.736000m/h.</desc>
<speed>0.760000</speed>
</trkpt>
<trkpt lat="55.900253" lon="26.527891">
<ele>124.323303</ele>
<time>2010-07-17T07:40:54Z</time>
<desc>lat.=55.900253, lon.=26.527891, Alt.=124.323303m. Speed=2.484000m/h.</desc>
<speed>0.690000</speed>
</trkpt>
<trkpt lat="55.900249" lon="26.527845">
<ele>123.983459</ele>
<time>2010-07-17T07:40:55Z</time>
<desc>lat.=55.900249, lon.=26.527845, Alt.=123.983459m. Speed=3.420000m/h.</desc>
<speed>0.950000</speed>
</trkpt>
<trkpt lat="55.900288" lon="26.527838">
<ele>123.346741</ele>
<time>2010-07-17T07:40:56Z</time>
<desc>lat.=55.900288, lon.=26.527838, Alt.=123.346741m. Speed=3.708000m/h.</desc>
<speed>1.030000</speed>
</trkpt>
<trkpt lat="55.900272" lon="26.527805">
<ele>123.008850</ele>
<time>2010-07-17T07:40:57Z</time>
<desc>lat.=55.900272, lon.=26.527805, Alt.=123.008850m. Speed=5.004000m/h.</desc>
<speed>1.390000</speed>
</trkpt>
<trkpt lat="55.900288" lon="26.527813">
<ele>122.553772</ele>
<time>2010-07-17T07:40:58Z</time>
<desc>lat.=55.900288, lon.=26.527813, Alt.=122.553772m. Speed=5.040000m/h.</desc>
<speed>1.400000</speed>
</trkpt>
<trkpt lat="55.900326" lon="26.527805">
<ele>121.831116</ele>
<time>2010-07-17T07:40:59Z</time>
<desc>lat.=55.900326, lon.=26.527805, Alt.=121.831116m. Speed=5.004000m/h.</desc>
<speed>1.390000</speed>
</trkpt>
<trkpt lat="55.900337" lon="26.527824">
<ele>121.585022</ele>
<time>2010-07-17T07:41:00Z</time>
<desc>lat.=55.900337, lon.=26.527824, Alt.=121.585022m. Speed=5.652000m/h.</desc>
<speed>1.570000</speed>
</trkpt>
<trkpt lat="55.900352" lon="26.527851">
<ele>120.961975</ele>
<time>2010-07-17T07:41:01Z</time>
<desc>lat.=55.900352, lon.=26.527851, Alt.=120.961975m. Speed=8.316000m/h.</desc>
<speed>2.310000</speed>
</trkpt>
<trkpt lat="55.900349" lon="26.527884">
<ele>120.811584</ele>
<time>2010-07-17T07:41:02Z</time>
<desc>lat.=55.900349, lon.=26.527884, Alt.=120.811584m. Speed=7.956000m/h.</desc>
<speed>2.210000</speed>
</trkpt>
<trkpt lat="55.900330" lon="26.527924">
<ele>121.157288</ele>
<time>2010-07-17T07:41:03Z</time>
<desc>lat.=55.900330, lon.=26.527924, Alt.=121.157288m. Speed=10.080000m/h.</desc>
<speed>2.800000</speed>
</trkpt>
<trkpt lat="55.900311" lon="26.527971">
<ele>121.395569</ele>
<time>2010-07-17T07:41:04Z</time>
<desc>lat.=55.900311, lon.=26.527971, Alt.=121.395569m. Speed=11.592000m/h.</desc>
<speed>3.220000</speed>
</trkpt>
<trkpt lat="55.900288" lon="26.528025">
<ele>121.579163</ele>
<time>2010-07-17T07:41:05Z</time>
<desc>lat.=55.900288, lon.=26.528025, Alt.=121.579163m. Speed=12.276000m/h.</desc>
<speed>3.410000</speed>
</trkpt>
<trkpt lat="55.900261" lon="26.528072">
<ele>121.047913</ele>
<time>2010-07-17T07:41:06Z</time>
<desc>lat.=55.900261, lon.=26.528072, Alt.=121.047913m. Speed=14.256000m/h.</desc>
<speed>3.960000</speed>
</trkpt>
<trkpt lat="55.900230" lon="26.528122">
<ele>120.659241</ele>
<time>2010-07-17T07:41:07Z</time>
<desc>lat.=55.900230, lon.=26.528122, Alt.=120.659241m. Speed=15.948000m/h.</desc>
<speed>4.430000</speed>
</trkpt>
<trkpt lat="55.900196" lon="26.528170">
<ele>119.442444</ele>
<time>2010-07-17T07:41:08Z</time>
<desc>lat.=55.900196, lon.=26.528170, Alt.=119.442444m. Speed=17.496000m/h.</desc>
<speed>4.860000</speed>
</trkpt>
<trkpt lat="55.900169" lon="26.528240">
<ele>117.590881</ele>
<time>2010-07-17T07:41:09Z</time>
<desc>lat.=55.900169, lon.=26.528240, Alt.=117.590881m. Speed=16.632000m/h.</desc>
<speed>4.620000</speed>
</trkpt>
<trkpt lat="55.900146" lon="26.528303">
<ele>117.065491</ele>
<time>2010-07-17T07:41:10Z</time>
<desc>lat.=55.900146, lon.=26.528303, Alt.=117.065491m. Speed=15.156000m/h.</desc>
<speed>4.210000</speed>
</trkpt>
<trkpt lat="55.900127" lon="26.528360">
<ele>116.690491</ele>
<time>2010-07-17T07:41:11Z</time>
<desc>lat.=55.900127, lon.=26.528360, Alt.=116.690491m. Speed=13.896000m/h.</desc>
<speed>3.860000</speed>
</trkpt>
<trkpt lat="55.900101" lon="26.528425">
<ele>116.290100</ele>
<time>2010-07-17T07:41:12Z</time>
<desc>lat.=55.900101, lon.=26.528425, Alt.=116.290100m. Speed=13.896000m/h.</desc>
<speed>3.860000</speed>
</trkpt>
<trkpt lat="55.900078" lon="26.528490">
<ele>116.184631</ele>
<time>2010-07-17T07:41:13Z</time>
<desc>lat.=55.900078, lon.=26.528490, Alt.=116.184631m. Speed=14.112000m/h.</desc>
<speed>3.920000</speed>
</trkpt>
<trkpt lat="55.900059" lon="26.528543">
<ele>115.774475</ele>
<time>2010-07-17T07:41:14Z</time>
<desc>lat.=55.900059, lon.=26.528543, Alt.=115.774475m. Speed=9.360000m/h.</desc>
<speed>2.600000</speed>
</trkpt>
<trkpt lat="55.900043" lon="26.528582">
<ele>114.245178</ele>
<time>2010-07-17T07:41:15Z</time>
<desc>lat.=55.900043, lon.=26.528582, Alt.=114.245178m. Speed=2.124000m/h.</desc>
<speed>0.590000</speed>
</trkpt>
<trkpt lat="55.900032" lon="26.528591">
<ele>113.434631</ele>
<time>2010-07-17T07:41:16Z</time>
<desc>lat.=55.900032, lon.=26.528591, Alt.=113.434631m. Speed=0.648000m/h.</desc>
<speed>0.180000</speed>
</trkpt>
<trkpt lat="55.900021" lon="26.528601">
<ele>113.042053</ele>
<time>2010-07-17T07:41:17Z</time>
<desc>lat.=55.900021, lon.=26.528601, Alt.=113.042053m. Speed=0.144000m/h.</desc>
<speed>0.040000</speed>
</trkpt>
<trkpt lat="55.900013" lon="26.528610">
<ele>113.137756</ele>
<time>2010-07-17T07:41:18Z</time>
<desc>lat.=55.900013, lon.=26.528610, Alt.=113.137756m. Speed=0.108000m/h.</desc>
<speed>0.030000</speed>
</trkpt>
<trkpt lat="55.900013" lon="26.528610">
<ele>113.040100</ele>
<time>2010-07-17T07:41:19Z</time>
<desc>lat.=55.900013, lon.=26.528610, Alt.=113.040100m. Speed=0.432000m/h.</desc>
<speed>0.120000</speed>
</trkpt>
<trkpt lat="55.900013" lon="26.528608">
<ele>112.965881</ele>
<time>2010-07-17T07:41:20Z</time>
<desc>lat.=55.900013, lon.=26.528608, Alt.=112.965881m. Speed=0.360000m/h.</desc>
<speed>0.100000</speed>
</trkpt>
<trkpt lat="55.900013" lon="26.528606">
<ele>112.915100</ele>
<time>2010-07-17T07:41:21Z</time>
<desc>lat.=55.900013, lon.=26.528606, Alt.=112.915100m. Speed=0.468000m/h.</desc>
<speed>0.130000</speed>
</trkpt>
<trkpt lat="55.900013" lon="26.528605">
<ele>112.879944</ele>
<time>2010-07-17T07:41:22Z</time>
<desc>lat.=55.900013, lon.=26.528605, Alt.=112.879944m. Speed=0.036000m/h.</desc>
<speed>0.010000</speed>
</trkpt>
<trkpt lat="55.900013" lon="26.528605">
<ele>112.852600</ele>
<time>2010-07-17T07:41:23Z</time>
<desc>lat.=55.900013, lon.=26.528605, Alt.=112.852600m. Speed=0.792000m/h.</desc>
<speed>0.220000</speed>
</trkpt>
<trkpt lat="55.900013" lon="26.528608">
<ele>112.836975</ele>
<time>2010-07-17T07:41:24Z</time>
<desc>lat.=55.900013, lon.=26.528608, Alt.=112.836975m. Speed=0.252000m/h.</desc>
<speed>0.070000</speed>
</trkpt>
<trkpt lat="55.900013" lon="26.528608">
<ele>112.825256</ele>
<time>2010-07-17T07:41:25Z</time>
<desc>lat.=55.900013, lon.=26.528608, Alt.=112.825256m. Speed=0.720000m/h.</desc>
<speed>0.200000</speed>
</trkpt>
<trkpt lat="55.900009" lon="26.528608">
<ele>112.817444</ele>
<time>2010-07-17T07:41:26Z</time>
<desc>lat.=55.900009, lon.=26.528608, Alt.=112.817444m. Speed=1.152000m/h.</desc>
<speed>0.320000</speed>
</trkpt>
<trkpt lat="55.900009" lon="26.528610">
<ele>112.809631</ele>
<time>2010-07-17T07:41:27Z</time>
<desc>lat.=55.900009, lon.=26.528610, Alt.=112.809631m. Speed=1.044000m/h.</desc>
<speed>0.290000</speed>
</trkpt>
<trkpt lat="55.900005" lon="26.528612">
<ele>112.792053</ele>
<time>2010-07-17T07:41:28Z</time>
<desc>lat.=55.900005, lon.=26.528612, Alt.=112.792053m. Speed=1.476000m/h.</desc>
<speed>0.410000</speed>
</trkpt>
<trkpt lat="55.900002" lon="26.528616">
<ele>112.790100</ele>
<time>2010-07-17T07:41:29Z</time>
<desc>lat.=55.900002, lon.=26.528616, Alt.=112.790100m. Speed=1.656000m/h.</desc>
<speed>0.460000</speed>
</trkpt>
<trkpt lat="55.900002" lon="26.528624">
<ele>112.790100</ele>
<time>2010-07-17T07:41:30Z</time>
<desc>lat.=55.900002, lon.=26.528624, Alt.=112.790100m. Speed=0.792000m/h.</desc>
<speed>0.220000</speed>
</trkpt>
<trkpt lat="55.899998" lon="26.528625">
<ele>112.799866</ele>
<time>2010-07-17T07:41:31Z</time>
<desc>lat.=55.899998, lon.=26.528625, Alt.=112.799866m. Speed=1.044000m/h.</desc>
<speed>0.290000</speed>
</trkpt>
<trkpt lat="55.899998" lon="26.528629">
<ele>112.797913</ele>
<time>2010-07-17T07:41:32Z</time>
<desc>lat.=55.899998, lon.=26.528629, Alt.=112.797913m. Speed=0.432000m/h.</desc>
<speed>0.120000</speed>
</trkpt>
<trkpt lat="55.899994" lon="26.528629">
<ele>112.797913</ele>
<time>2010-07-17T07:41:33Z</time>
<desc>lat.=55.899994, lon.=26.528629, Alt.=112.797913m. Speed=0.900000m/h.</desc>
<speed>0.250000</speed>
</trkpt>
<trkpt lat="55.899994" lon="26.528633">
<ele>112.805725</ele>
<time>2010-07-17T07:41:34Z</time>
<desc>lat.=55.899994, lon.=26.528633, Alt.=112.805725m. Speed=0.648000m/h.</desc>
<speed>0.180000</speed>
</trkpt>
<trkpt lat="55.899990" lon="26.528635">
<ele>112.821350</ele>
<time>2010-07-17T07:41:35Z</time>
<desc>lat.=55.899990, lon.=26.528635, Alt.=112.821350m. Speed=1.296000m/h.</desc>
<speed>0.360000</speed>
</trkpt>
<trkpt lat="55.899990" lon="26.528639">
<ele>112.848694</ele>
<time>2010-07-17T07:41:36Z</time>
<desc>lat.=55.899990, lon.=26.528639, Alt.=112.848694m. Speed=1.620000m/h.</desc>
<speed>0.450000</speed>
</trkpt>
<trkpt lat="55.899986" lon="26.528643">
<ele>112.864319</ele>
<time>2010-07-17T07:41:37Z</time>
<desc>lat.=55.899986, lon.=26.528643, Alt.=112.864319m. Speed=2.772000m/h.</desc>
<speed>0.770000</speed>
</trkpt>
<trkpt lat="55.899982" lon="26.528654">
<ele>112.872131</ele>
<time>2010-07-17T07:41:38Z</time>
<desc>lat.=55.899982, lon.=26.528654, Alt.=112.872131m. Speed=4.248000m/h.</desc>
<speed>1.180000</speed>
</trkpt>
<trkpt lat="55.899963" lon="26.528677">
<ele>112.997131</ele>
<time>2010-07-17T07:41:39Z</time>
<desc>lat.=55.899963, lon.=26.528677, Alt.=112.997131m. Speed=5.832000m/h.</desc>
<speed>1.620000</speed>
</trkpt>
<trkpt lat="55.899944" lon="26.528698">
<ele>113.038147</ele>
<time>2010-07-17T07:41:40Z</time>
<desc>lat.=55.899944, lon.=26.528698, Alt.=113.038147m. Speed=8.676000m/h.</desc>
<speed>2.410000</speed>
</trkpt>
<trkpt lat="55.899910" lon="26.528738">
<ele>113.323303</ele>
<time>2010-07-17T07:41:41Z</time>
<desc>lat.=55.899910, lon.=26.528738, Alt.=113.323303m. Speed=13.032000m/h.</desc>
<speed>3.620000</speed>
</trkpt>
<trkpt lat="55.899868" lon="26.528791">
<ele>113.514709</ele>
<time>2010-07-17T07:41:42Z</time>
<desc>lat.=55.899868, lon.=26.528791, Alt.=113.514709m. Speed=16.344000m/h.</desc>
<speed>4.540000</speed>
</trkpt>
<trkpt lat="55.899834" lon="26.528852">
<ele>113.981506</ele>
<time>2010-07-17T07:41:43Z</time>
<desc>lat.=55.899834, lon.=26.528852, Alt.=113.981506m. Speed=17.459999m/h.</desc>
<speed>4.850000</speed>
</trkpt>
<trkpt lat="55.899796" lon="26.528910">
<ele>114.504944</ele>
<time>2010-07-17T07:41:44Z</time>
<desc>lat.=55.899796, lon.=26.528910, Alt.=114.504944m. Speed=17.712000m/h.</desc>
<speed>4.920000</speed>
</trkpt>
<trkpt lat="55.899742" lon="26.528978">
<ele>114.868225</ele>
<time>2010-07-17T07:41:45Z</time>
<desc>lat.=55.899742, lon.=26.528978, Alt.=114.868225m. Speed=19.548000m/h.</desc>
<speed>5.430000</speed>
</trkpt>
<trkpt lat="55.899696" lon="26.529064">
<ele>115.139709</ele>
<time>2010-07-17T07:41:46Z</time>
<desc>lat.=55.899696, lon.=26.529064, Alt.=115.139709m. Speed=20.520000m/h.</desc>
<speed>5.700000</speed>
</trkpt>
<trkpt lat="55.899647" lon="26.529154">
<ele>115.460022</ele>
<time>2010-07-17T07:41:47Z</time>
<desc>lat.=55.899647, lon.=26.529154, Alt.=115.460022m. Speed=22.427999m/h.</desc>
<speed>6.230000</speed>
</trkpt>
<trkpt lat="55.899609" lon="26.529240">
<ele>115.442444</ele>
<time>2010-07-17T07:41:48Z</time>
<desc>lat.=55.899609, lon.=26.529240, Alt.=115.442444m. Speed=20.304001m/h.</desc>
<speed>5.640000</speed>
</trkpt>
<trkpt lat="55.899578" lon="26.529335">
<ele>116.149475</ele>
<time>2010-07-17T07:41:49Z</time>
<desc>lat.=55.899578, lon.=26.529335, Alt.=116.149475m. Speed=22.247999m/h.</desc>
<speed>6.180000</speed>
</trkpt>
<trkpt lat="55.899548" lon="26.529427">
<ele>116.809631</ele>
<time>2010-07-17T07:41:50Z</time>
<desc>lat.=55.899548, lon.=26.529427, Alt.=116.809631m. Speed=19.908001m/h.</desc>
<speed>5.530000</speed>
</trkpt>
<trkpt lat="55.899517" lon="26.529512">
<ele>116.852600</ele>
<time>2010-07-17T07:41:51Z</time>
<desc>lat.=55.899517, lon.=26.529512, Alt.=116.852600m. Speed=22.896000m/h.</desc>
<speed>6.360000</speed>
</trkpt>
<trkpt lat="55.899487" lon="26.529608">
<ele>116.612366</ele>
<time>2010-07-17T07:41:52Z</time>
<desc>lat.=55.899487, lon.=26.529608, Alt.=116.612366m. Speed=24.336000m/h.</desc>
<speed>6.760000</speed>
</trkpt>
<trkpt lat="55.899464" lon="26.529694">
<ele>116.196350</ele>
<time>2010-07-17T07:41:53Z</time>
<desc>lat.=55.899464, lon.=26.529694, Alt.=116.196350m. Speed=21.096001m/h.</desc>
<speed>5.860000</speed>
</trkpt>
<trkpt lat="55.899422" lon="26.529770">
<ele>116.583069</ele>
<time>2010-07-17T07:41:54Z</time>
<desc>lat.=55.899422, lon.=26.529770, Alt.=116.583069m. Speed=20.771999m/h.</desc>
<speed>5.770000</speed>
</trkpt>
<trkpt lat="55.899376" lon="26.529848">
<ele>116.973694</ele>
<time>2010-07-17T07:41:55Z</time>
<desc>lat.=55.899376, lon.=26.529848, Alt.=116.973694m. Speed=22.356001m/h.</desc>
<speed>6.210000</speed>
</trkpt>
<trkpt lat="55.899307" lon="26.529921">
<ele>118.299866</ele>
<time>2010-07-17T07:41:56Z</time>
<desc>lat.=55.899307, lon.=26.529921, Alt.=118.299866m. Speed=22.788000m/h.</desc>
<speed>6.330000</speed>
</trkpt>
<trkpt lat="55.899258" lon="26.530010">
<ele>118.864319</ele>
<time>2010-07-17T07:41:57Z</time>
<desc>lat.=55.899258, lon.=26.530010, Alt.=118.864319m. Speed=22.716000m/h.</desc>
<speed>6.310000</speed>
</trkpt>
<trkpt lat="55.899216" lon="26.530098">
<ele>118.764709</ele>
<time>2010-07-17T07:41:58Z</time>
<desc>lat.=55.899216, lon.=26.530098, Alt.=118.764709m. Speed=19.656000m/h.</desc>
<speed>5.460000</speed>
</trkpt>
<trkpt lat="55.899181" lon="26.530184">
<ele>118.622131</ele>
<time>2010-07-17T07:41:59Z</time>
<desc>lat.=55.899181, lon.=26.530184, Alt.=118.622131m. Speed=21.384001m/h.</desc>
<speed>5.940000</speed>
</trkpt>
<trkpt lat="55.899139" lon="26.530281">
<ele>118.200256</ele>
<time>2010-07-17T07:42:00Z</time>
<desc>lat.=55.899139, lon.=26.530281, Alt.=118.200256m. Speed=21.563999m/h.</desc>
<speed>5.990000</speed>
</trkpt>
<trkpt lat="55.899155" lon="26.530401">
<ele>116.465881</ele>
<time>2010-07-17T07:42:01Z</time>
<desc>lat.=55.899155, lon.=26.530401, Alt.=116.465881m. Speed=21.096001m/h.</desc>
<speed>5.860000</speed>
</trkpt>
<trkpt lat="55.899132" lon="26.530483">
<ele>116.602600</ele>
<time>2010-07-17T07:42:02Z</time>
<desc>lat.=55.899132, lon.=26.530483, Alt.=116.602600m. Speed=19.691999m/h.</desc>
<speed>5.470000</speed>
</trkpt>
<trkpt lat="55.899075" lon="26.530573">
<ele>116.706116</ele>
<time>2010-07-17T07:42:03Z</time>
<desc>lat.=55.899075, lon.=26.530573, Alt.=116.706116m. Speed=23.652000m/h.</desc>
<speed>6.570000</speed>
</trkpt>
<trkpt lat="55.899036" lon="26.530668">
<ele>117.063538</ele>
<time>2010-07-17T07:42:04Z</time>
<desc>lat.=55.899036, lon.=26.530668, Alt.=117.063538m. Speed=23.364000m/h.</desc>
<speed>6.490000</speed>
</trkpt>
<trkpt lat="55.899002" lon="26.530758">
<ele>116.952209</ele>
<time>2010-07-17T07:42:05Z</time>
<desc>lat.=55.899002, lon.=26.530758, Alt.=116.952209m. Speed=23.292000m/h.</desc>
<speed>6.470000</speed>
</trkpt>
<trkpt lat="55.898972" lon="26.530848">
<ele>116.764709</ele>
<time>2010-07-17T07:42:06Z</time>
<desc>lat.=55.898972, lon.=26.530848, Alt.=116.764709m. Speed=22.572001m/h.</desc>
<speed>6.270000</speed>
</trkpt>
<trkpt lat="55.898941" lon="26.530937">
<ele>116.694397</ele>
<time>2010-07-17T07:42:07Z</time>
<desc>lat.=55.898941, lon.=26.530937, Alt.=116.694397m. Speed=21.672001m/h.</desc>
<speed>6.020000</speed>
</trkpt>
<trkpt lat="55.898903" lon="26.531033">
<ele>117.100647</ele>
<time>2010-07-17T07:42:08Z</time>
<desc>lat.=55.898903, lon.=26.531033, Alt.=117.100647m. Speed=21.636000m/h.</desc>
<speed>6.010000</speed>
</trkpt>
<trkpt lat="55.898872" lon="26.531120">
<ele>116.528381</ele>
<time>2010-07-17T07:42:09Z</time>
<desc>lat.=55.898872, lon.=26.531120, Alt.=116.528381m. Speed=21.816000m/h.</desc>
<speed>6.060000</speed>
</trkpt>
<trkpt lat="55.898834" lon="26.531216">
<ele>115.754944</ele>
<time>2010-07-17T07:42:10Z</time>
<desc>lat.=55.898834, lon.=26.531216, Alt.=115.754944m. Speed=21.780001m/h.</desc>
<speed>6.050000</speed>
</trkpt>
<trkpt lat="55.898785" lon="26.531296">
<ele>115.686584</ele>
<time>2010-07-17T07:42:11Z</time>
<desc>lat.=55.898785, lon.=26.531296, Alt.=115.686584m. Speed=18.072001m/h.</desc>
<speed>5.020000</speed>
</trkpt>
<trkpt lat="55.898735" lon="26.531319">
<ele>113.961975</ele>
<time>2010-07-17T07:42:12Z</time>
<desc>lat.=55.898735, lon.=26.531319, Alt.=113.961975m. Speed=16.775999m/h.</desc>
<speed>4.660000</speed>
</trkpt>
<trkpt lat="55.898693" lon="26.531307">
<ele>114.803772</ele>
<time>2010-07-17T07:42:13Z</time>
<desc>lat.=55.898693, lon.=26.531307, Alt.=114.803772m. Speed=21.204000m/h.</desc>
<speed>5.890000</speed>
</trkpt>
<trkpt lat="55.898640" lon="26.531279">
<ele>114.206116</ele>
<time>2010-07-17T07:42:14Z</time>
<desc>lat.=55.898640, lon.=26.531279, Alt.=114.206116m. Speed=22.032000m/h.</desc>
<speed>6.120000</speed>
</trkpt>
<trkpt lat="55.898594" lon="26.531235">
<ele>114.083069</ele>
<time>2010-07-17T07:42:15Z</time>
<desc>lat.=55.898594, lon.=26.531235, Alt.=114.083069m. Speed=20.160000m/h.</desc>
<speed>5.600000</speed>
</trkpt>
<trkpt lat="55.898563" lon="26.531202">
<ele>113.586975</ele>
<time>2010-07-17T07:42:16Z</time>
<desc>lat.=55.898563, lon.=26.531202, Alt.=113.586975m. Speed=22.176001m/h.</desc>
<speed>6.160000</speed>
</trkpt>
<trkpt lat="55.898514" lon="26.531162">
<ele>113.268616</ele>
<time>2010-07-17T07:42:17Z</time>
<desc>lat.=55.898514, lon.=26.531162, Alt.=113.268616m. Speed=23.544001m/h.</desc>
<speed>6.540000</speed>
</trkpt>
<trkpt lat="55.898460" lon="26.531116">
<ele>112.893616</ele>
<time>2010-07-17T07:42:18Z</time>
<desc>lat.=55.898460, lon.=26.531116, Alt.=112.893616m. Speed=24.444000m/h.</desc>
<speed>6.790000</speed>
</trkpt>
<trkpt lat="55.898438" lon="26.531071">
<ele>111.450256</ele>
<time>2010-07-17T07:42:19Z</time>
<desc>lat.=55.898438, lon.=26.531071, Alt.=111.450256m. Speed=23.724001m/h.</desc>
<speed>6.590000</speed>
</trkpt>
<trkpt lat="55.898407" lon="26.531101">
<ele>113.821350</ele>
<time>2010-07-17T07:42:20Z</time>
<desc>lat.=55.898407, lon.=26.531101, Alt.=113.821350m. Speed=24.228001m/h.</desc>
<speed>6.730000</speed>
</trkpt>
<trkpt lat="55.898373" lon="26.531057">
<ele>114.247131</ele>
<time>2010-07-17T07:42:21Z</time>
<desc>lat.=55.898373, lon.=26.531057, Alt.=114.247131m. Speed=23.507999m/h.</desc>
<speed>6.530000</speed>
</trkpt>
<trkpt lat="55.898335" lon="26.531017">
<ele>113.827209</ele>
<time>2010-07-17T07:42:22Z</time>
<desc>lat.=55.898335, lon.=26.531017, Alt.=113.827209m. Speed=24.011999m/h.</desc>
<speed>6.670000</speed>
</trkpt>
<trkpt lat="55.898289" lon="26.530979">
<ele>113.854553</ele>
<time>2010-07-17T07:42:23Z</time>
<desc>lat.=55.898289, lon.=26.530979, Alt.=113.854553m. Speed=22.608000m/h.</desc>
<speed>6.280000</speed>
</trkpt>
<trkpt lat="55.898251" lon="26.530931">
<ele>114.586975</ele>
<time>2010-07-17T07:42:24Z</time>
<desc>lat.=55.898251, lon.=26.530931, Alt.=114.586975m. Speed=21.780001m/h.</desc>
<speed>6.050000</speed>
</trkpt>
<trkpt lat="55.898220" lon="26.530895">
<ele>114.614319</ele>
<time>2010-07-17T07:42:25Z</time>
<desc>lat.=55.898220, lon.=26.530895, Alt.=114.614319m. Speed=21.636000m/h.</desc>
<speed>6.010000</speed>
</trkpt>
<trkpt lat="55.898182" lon="26.530855">
<ele>114.561584</ele>
<time>2010-07-17T07:42:26Z</time>
<desc>lat.=55.898182, lon.=26.530855, Alt.=114.561584m. Speed=21.059999m/h.</desc>
<speed>5.850000</speed>
</trkpt>
<trkpt lat="55.898144" lon="26.530819">
<ele>114.139709</ele>
<time>2010-07-17T07:42:27Z</time>
<desc>lat.=55.898144, lon.=26.530819, Alt.=114.139709m. Speed=20.771999m/h.</desc>
<speed>5.770000</speed>
</trkpt>
<trkpt lat="55.898102" lon="26.530783">
<ele>113.717834</ele>
<time>2010-07-17T07:42:28Z</time>
<desc>lat.=55.898102, lon.=26.530783, Alt.=113.717834m. Speed=20.591999m/h.</desc>
<speed>5.720000</speed>
</trkpt>
<trkpt lat="55.898060" lon="26.530762">
<ele>113.958069</ele>
<time>2010-07-17T07:42:29Z</time>
<desc>lat.=55.898060, lon.=26.530762, Alt.=113.958069m. Speed=20.375999m/h.</desc>
<speed>5.660000</speed>
</trkpt>
<trkpt lat="55.898022" lon="26.530714">
<ele>112.600647</ele>
<time>2010-07-17T07:42:30Z</time>
<desc>lat.=55.898022, lon.=26.530714, Alt.=112.600647m. Speed=20.016001m/h.</desc>
<speed>5.560000</speed>
</trkpt>
<trkpt lat="55.897976" lon="26.530695">
<ele>112.026428</ele>
<time>2010-07-17T07:42:31Z</time>
<desc>lat.=55.897976, lon.=26.530695, Alt.=112.026428m. Speed=19.260000m/h.</desc>
<speed>5.350000</speed>
</trkpt>
<trkpt lat="55.897930" lon="26.530674">
<ele>111.493225</ele>
<time>2010-07-17T07:42:32Z</time>
<desc>lat.=55.897930, lon.=26.530674, Alt.=111.493225m. Speed=18.576000m/h.</desc>
<speed>5.160000</speed>
</trkpt>
<trkpt lat="55.897888" lon="26.530674">
<ele>111.669006</ele>
<time>2010-07-17T07:42:33Z</time>
<desc>lat.=55.897888, lon.=26.530674, Alt.=111.669006m. Speed=17.964001m/h.</desc>
<speed>4.990000</speed>
</trkpt>
<trkpt lat="55.897846" lon="26.530685">
<ele>111.299866</ele>
<time>2010-07-17T07:42:34Z</time>
<desc>lat.=55.897846, lon.=26.530685, Alt.=111.299866m. Speed=14.544000m/h.</desc>
<speed>4.040000</speed>
</trkpt>
<trkpt lat="55.897808" lon="26.530685">
<ele>110.297913</ele>
<time>2010-07-17T07:42:35Z</time>
<desc>lat.=55.897808, lon.=26.530685, Alt.=110.297913m. Speed=13.716000m/h.</desc>
<speed>3.810000</speed>
</trkpt>
<trkpt lat="55.897774" lon="26.530672">
<ele>109.833069</ele>
<time>2010-07-17T07:42:36Z</time>
<desc>lat.=55.897774, lon.=26.530672, Alt.=109.833069m. Speed=13.248000m/h.</desc>
<speed>3.680000</speed>
</trkpt>
<trkpt lat="55.897739" lon="26.530664">
<ele>109.532288</ele>
<time>2010-07-17T07:42:37Z</time>
<desc>lat.=55.897739, lon.=26.530664, Alt.=109.532288m. Speed=13.104000m/h.</desc>
<speed>3.640000</speed>
</trkpt>
<trkpt lat="55.897705" lon="26.530672">
<ele>109.274475</ele>
<time>2010-07-17T07:42:38Z</time>
<desc>lat.=55.897705, lon.=26.530672, Alt.=109.274475m. Speed=13.716000m/h.</desc>
<speed>3.810000</speed>
</trkpt>
<trkpt lat="55.897659" lon="26.530684">
<ele>108.862366</ele>
<time>2010-07-17T07:42:39Z</time>
<desc>lat.=55.897659, lon.=26.530684, Alt.=108.862366m. Speed=16.091999m/h.</desc>
<speed>4.470000</speed>
</trkpt>
<trkpt lat="55.897633" lon="26.530687">
<ele>107.694397</ele>
<time>2010-07-17T07:42:40Z</time>
<desc>lat.=55.897633, lon.=26.530687, Alt.=107.694397m. Speed=11.772000m/h.</desc>
<speed>3.270000</speed>
</trkpt>
<trkpt lat="55.897614" lon="26.530689">
<ele>106.981506</ele>
<time>2010-07-17T07:42:41Z</time>
<desc>lat.=55.897614, lon.=26.530689, Alt.=106.981506m. Speed=7.812000m/h.</desc>
<speed>2.170000</speed>
</trkpt>
<trkpt lat="55.897602" lon="26.530691">
<ele>106.698303</ele>
<time>2010-07-17T07:42:42Z</time>
<desc>lat.=55.897602, lon.=26.530691, Alt.=106.698303m. Speed=1.548000m/h.</desc>
<speed>0.430000</speed>
</trkpt>
<trkpt lat="55.897602" lon="26.530685">
<ele>106.139709</ele>
<time>2010-07-17T07:42:43Z</time>
<desc>lat.=55.897602, lon.=26.530685, Alt.=106.139709m. Speed=1.296000m/h.</desc>
<speed>0.360000</speed>
</trkpt>
<trkpt lat="55.897598" lon="26.530684">
<ele>105.780334</ele>
<time>2010-07-17T07:42:44Z</time>
<desc>lat.=55.897598, lon.=26.530684, Alt.=105.780334m. Speed=1.800000m/h.</desc>
<speed>0.500000</speed>
</trkpt>
<trkpt lat="55.897602" lon="26.530678">
<ele>105.479553</ele>
<time>2010-07-17T07:42:45Z</time>
<desc>lat.=55.897602, lon.=26.530678, Alt.=105.479553m. Speed=1.152000m/h.</desc>
<speed>0.320000</speed>
</trkpt>
<trkpt lat="55.897598" lon="26.530674">
<ele>105.303772</ele>
<time>2010-07-17T07:42:46Z</time>
<desc>lat.=55.897598, lon.=26.530674, Alt.=105.303772m. Speed=1.080000m/h.</desc>
<speed>0.300000</speed>
</trkpt>
<trkpt lat="55.897598" lon="26.530670">
<ele>105.120178</ele>
<time>2010-07-17T07:42:47Z</time>
<desc>lat.=55.897598, lon.=26.530670, Alt.=105.120178m. Speed=0.900000m/h.</desc>
<speed>0.250000</speed>
</trkpt>
<trkpt lat="55.897598" lon="26.530666">
<ele>104.944397</ele>
<time>2010-07-17T07:42:48Z</time>
<desc>lat.=55.897598, lon.=26.530666, Alt.=104.944397m. Speed=1.296000m/h.</desc>
<speed>0.360000</speed>
</trkpt>
<trkpt lat="55.897594" lon="26.530663">
<ele>104.809631</ele>
<time>2010-07-17T07:42:49Z</time>
<desc>lat.=55.897594, lon.=26.530663, Alt.=104.809631m. Speed=1.152000m/h.</desc>
<speed>0.320000</speed>
</trkpt>
<trkpt lat="55.897594" lon="26.530657">
<ele>104.665100</ele>
<time>2010-07-17T07:42:50Z</time>
<desc>lat.=55.897594, lon.=26.530657, Alt.=104.665100m. Speed=1.260000m/h.</desc>
<speed>0.350000</speed>
</trkpt>
<trkpt lat="55.897594" lon="26.530651">
<ele>104.518616</ele>
<time>2010-07-17T07:42:51Z</time>
<desc>lat.=55.897594, lon.=26.530651, Alt.=104.518616m. Speed=1.944000m/h.</desc>
<speed>0.540000</speed>
</trkpt>
<trkpt lat="55.897594" lon="26.530643">
<ele>104.379944</ele>
<time>2010-07-17T07:42:52Z</time>
<desc>lat.=55.897594, lon.=26.530643, Alt.=104.379944m. Speed=1.764000m/h.</desc>
<speed>0.490000</speed>
</trkpt>
<trkpt lat="55.897594" lon="26.530636">
<ele>104.241272</ele>
<time>2010-07-17T07:42:53Z</time>
<desc>lat.=55.897594, lon.=26.530636, Alt.=104.241272m. Speed=1.188000m/h.</desc>
<speed>0.330000</speed>
</trkpt>
<trkpt lat="55.897594" lon="26.530630">
<ele>104.108459</ele>
<time>2010-07-17T07:42:54Z</time>
<desc>lat.=55.897594, lon.=26.530630, Alt.=104.108459m. Speed=1.044000m/h.</desc>
<speed>0.290000</speed>
</trkpt>
<trkpt lat="55.897591" lon="26.530626">
<ele>103.971741</ele>
<time>2010-07-17T07:42:55Z</time>
<desc>lat.=55.897591, lon.=26.530626, Alt.=103.971741m. Speed=1.368000m/h.</desc>
<speed>0.380000</speed>
</trkpt>
<trkpt lat="55.897587" lon="26.530626">
<ele>103.866272</ele>
<time>2010-07-17T07:42:56Z</time>
<desc>lat.=55.897587, lon.=26.530626, Alt.=103.866272m. Speed=1.728000m/h.</desc>
<speed>0.480000</speed>
</trkpt>
<trkpt lat="55.897583" lon="26.530630">
<ele>103.760803</ele>
<time>2010-07-17T07:42:57Z</time>
<desc>lat.=55.897583, lon.=26.530630, Alt.=103.760803m. Speed=2.196000m/h.</desc>
<speed>0.610000</speed>
</trkpt>
<trkpt lat="55.897579" lon="26.530636">
<ele>103.651428</ele>
<time>2010-07-17T07:42:58Z</time>
<desc>lat.=55.897579, lon.=26.530636, Alt.=103.651428m. Speed=2.592000m/h.</desc>
<speed>0.720000</speed>
</trkpt>
<trkpt lat="55.897575" lon="26.530645">
<ele>103.540100</ele>
<time>2010-07-17T07:42:59Z</time>
<desc>lat.=55.897575, lon.=26.530645, Alt.=103.540100m. Speed=2.340000m/h.</desc>
<speed>0.650000</speed>
</trkpt>
<trkpt lat="55.897572" lon="26.530655">
<ele>103.434631</ele>
<time>2010-07-17T07:43:00Z</time>
<desc>lat.=55.897572, lon.=26.530655, Alt.=103.434631m. Speed=1.836000m/h.</desc>
<speed>0.510000</speed>
</trkpt>
<trkpt lat="55.897572" lon="26.530661">
<ele>103.327209</ele>
<time>2010-07-17T07:43:01Z</time>
<desc>lat.=55.897572, lon.=26.530661, Alt.=103.327209m. Speed=1.764000m/h.</desc>
<speed>0.490000</speed>
</trkpt>
<trkpt lat="55.897568" lon="26.530666">
<ele>103.223694</ele>
<time>2010-07-17T07:43:02Z</time>
<desc>lat.=55.897568, lon.=26.530666, Alt.=103.223694m. Speed=2.592000m/h.</desc>
<speed>0.720000</speed>
</trkpt>
<trkpt lat="55.897564" lon="26.530674">
<ele>103.124084</ele>
<time>2010-07-17T07:43:03Z</time>
<desc>lat.=55.897564, lon.=26.530674, Alt.=103.124084m. Speed=2.088000m/h.</desc>
<speed>0.580000</speed>
</trkpt>
<trkpt lat="55.897560" lon="26.530682">
<ele>103.030334</ele>
<time>2010-07-17T07:43:04Z</time>
<desc>lat.=55.897560, lon.=26.530682, Alt.=103.030334m. Speed=2.124000m/h.</desc>
<speed>0.590000</speed>
</trkpt>
<trkpt lat="55.897556" lon="26.530691">
<ele>102.938538</ele>
<time>2010-07-17T07:43:05Z</time>
<desc>lat.=55.897556, lon.=26.530691, Alt.=102.938538m. Speed=2.484000m/h.</desc>
<speed>0.690000</speed>
</trkpt>
<trkpt lat="55.897556" lon="26.530701">
<ele>102.852600</ele>
<time>2010-07-17T07:43:06Z</time>
<desc>lat.=55.897556, lon.=26.530701, Alt.=102.852600m. Speed=2.304000m/h.</desc>
<speed>0.640000</speed>
</trkpt>
<trkpt lat="55.897552" lon="26.530708">
<ele>102.766663</ele>
<time>2010-07-17T07:43:07Z</time>
<desc>lat.=55.897552, lon.=26.530708, Alt.=102.766663m. Speed=2.232000m/h.</desc>
<speed>0.620000</speed>
</trkpt>
<trkpt lat="55.897549" lon="26.530716">
<ele>102.690491</ele>
<time>2010-07-17T07:43:08Z</time>
<desc>lat.=55.897549, lon.=26.530716, Alt.=102.690491m. Speed=2.196000m/h.</desc>
<speed>0.610000</speed>
</trkpt>
<trkpt lat="55.897545" lon="26.530724">
<ele>102.631897</ele>
<time>2010-07-17T07:43:09Z</time>
<desc>lat.=55.897545, lon.=26.530724, Alt.=102.631897m. Speed=2.268000m/h.</desc>
<speed>0.630000</speed>
</trkpt>
<trkpt lat="55.897537" lon="26.530729">
<ele>102.598694</ele>
<time>2010-07-17T07:43:10Z</time>
<desc>lat.=55.897537, lon.=26.530729, Alt.=102.598694m. Speed=2.556000m/h.</desc>
<speed>0.710000</speed>
</trkpt>
<trkpt lat="55.897533" lon="26.530737">
<ele>102.567444</ele>
<time>2010-07-17T07:43:11Z</time>
<desc>lat.=55.897533, lon.=26.530737, Alt.=102.567444m. Speed=2.484000m/h.</desc>
<speed>0.690000</speed>
</trkpt>
<trkpt lat="55.897530" lon="26.530746">
<ele>102.542053</ele>
<time>2010-07-17T07:43:12Z</time>
<desc>lat.=55.897530, lon.=26.530746, Alt.=102.542053m. Speed=2.304000m/h.</desc>
<speed>0.640000</speed>
</trkpt>
<trkpt lat="55.897530" lon="26.530756">
<ele>102.483459</ele>
<time>2010-07-17T07:43:13Z</time>
<desc>lat.=55.897530, lon.=26.530756, Alt.=102.483459m. Speed=0.432000m/h.</desc>
<speed>0.120000</speed>
</trkpt>
<trkpt lat="55.897530" lon="26.530758">
<ele>102.479553</ele>
<time>2010-07-17T07:43:14Z</time>
<desc>lat.=55.897530, lon.=26.530758, Alt.=102.479553m. Speed=1.044000m/h.</desc>
<speed>0.290000</speed>
</trkpt>
<trkpt lat="55.897530" lon="26.530762">
<ele>102.475647</ele>
<time>2010-07-17T07:43:15Z</time>
<desc>lat.=55.897530, lon.=26.530762, Alt.=102.475647m. Speed=2.088000m/h.</desc>
<speed>0.580000</speed>
</trkpt>
<trkpt lat="55.897526" lon="26.530769">
<ele>102.469788</ele>
<time>2010-07-17T07:43:16Z</time>
<desc>lat.=55.897526, lon.=26.530769, Alt.=102.469788m. Speed=3.240000m/h.</desc>
<speed>0.900000</speed>
</trkpt>
<trkpt lat="55.897522" lon="26.530783">
<ele>102.467834</ele>
<time>2010-07-17T07:43:17Z</time>
<desc>lat.=55.897522, lon.=26.530783, Alt.=102.467834m. Speed=5.544000m/h.</desc>
<speed>1.540000</speed>
</trkpt>
<trkpt lat="55.897507" lon="26.530827">
<ele>102.770569</ele>
<time>2010-07-17T07:43:18Z</time>
<desc>lat.=55.897507, lon.=26.530827, Alt.=102.770569m. Speed=11.376000m/h.</desc>
<speed>3.160000</speed>
</trkpt>
<trkpt lat="55.897484" lon="26.530882">
<ele>103.221741</ele>
<time>2010-07-17T07:43:19Z</time>
<desc>lat.=55.897484, lon.=26.530882, Alt.=103.221741m. Speed=12.168000m/h.</desc>
<speed>3.380000</speed>
</trkpt>
<trkpt lat="55.897461" lon="26.530933">
<ele>103.661194</ele>
<time>2010-07-17T07:43:20Z</time>
<desc>lat.=55.897461, lon.=26.530933, Alt.=103.661194m. Speed=13.572000m/h.</desc>
<speed>3.770000</speed>
</trkpt>
<trkpt lat="55.897434" lon="26.530989">
<ele>104.219788</ele>
<time>2010-07-17T07:43:21Z</time>
<desc>lat.=55.897434, lon.=26.530989, Alt.=104.219788m. Speed=14.904000m/h.</desc>
<speed>4.140000</speed>
</trkpt>
<trkpt lat="55.897411" lon="26.531050">
<ele>104.360413</ele>
<time>2010-07-17T07:43:22Z</time>
<desc>lat.=55.897411, lon.=26.531050, Alt.=104.360413m. Speed=15.444000m/h.</desc>
<speed>4.290000</speed>
</trkpt>
<trkpt lat="55.897392" lon="26.531122">
<ele>104.321350</ele>
<time>2010-07-17T07:43:23Z</time>
<desc>lat.=55.897392, lon.=26.531122, Alt.=104.321350m. Speed=17.639999m/h.</desc>
<speed>4.900000</speed>
</trkpt>
<trkpt lat="55.897366" lon="26.531195">
<ele>104.575256</ele>
<time>2010-07-17T07:43:24Z</time>
<desc>lat.=55.897366, lon.=26.531195, Alt.=104.575256m. Speed=17.496000m/h.</desc>
<speed>4.860000</speed>
</trkpt>
<trkpt lat="55.897339" lon="26.531269">
<ele>104.432678</ele>
<time>2010-07-17T07:43:25Z</time>
<desc>lat.=55.897339, lon.=26.531269, Alt.=104.432678m. Speed=18.684000m/h.</desc>
<speed>5.190000</speed>
</trkpt>
<trkpt lat="55.897312" lon="26.531342">
<ele>103.893616</ele>
<time>2010-07-17T07:43:26Z</time>
<desc>lat.=55.897312, lon.=26.531342, Alt.=103.893616m. Speed=18.936001m/h.</desc>
<speed>5.260000</speed>
</trkpt>
<trkpt lat="55.897282" lon="26.531420">
<ele>104.182678</ele>
<time>2010-07-17T07:43:27Z</time>
<desc>lat.=55.897282, lon.=26.531420, Alt.=104.182678m. Speed=18.504000m/h.</desc>
<speed>5.140000</speed>
</trkpt>
<trkpt lat="55.897259" lon="26.531494">
<ele>103.797913</ele>
<time>2010-07-17T07:43:28Z</time>
<desc>lat.=55.897259, lon.=26.531494, Alt.=103.797913m. Speed=17.568001m/h.</desc>
<speed>4.880000</speed>
</trkpt>
<trkpt lat="55.897236" lon="26.531576">
<ele>104.305725</ele>
<time>2010-07-17T07:43:29Z</time>
<desc>lat.=55.897236, lon.=26.531576, Alt.=104.305725m. Speed=18.035999m/h.</desc>
<speed>5.010000</speed>
</trkpt>
<trkpt lat="55.897221" lon="26.531660">
<ele>105.522522</ele>
<time>2010-07-17T07:43:30Z</time>
<desc>lat.=55.897221, lon.=26.531660, Alt.=105.522522m. Speed=17.568001m/h.</desc>
<speed>4.880000</speed>
</trkpt>
<trkpt lat="55.897190" lon="26.531734">
<ele>105.979553</ele>
<time>2010-07-17T07:43:31Z</time>
<desc>lat.=55.897190, lon.=26.531734, Alt.=105.979553m. Speed=18.900000m/h.</desc>
<speed>5.250000</speed>
</trkpt>
<trkpt lat="55.897163" lon="26.531811">
<ele>106.036194</ele>
<time>2010-07-17T07:43:32Z</time>
<desc>lat.=55.897163, lon.=26.531811, Alt.=106.036194m. Speed=19.368000m/h.</desc>
<speed>5.380000</speed>
</trkpt>
<trkpt lat="55.897137" lon="26.531887">
<ele>106.075256</ele>
<time>2010-07-17T07:43:33Z</time>
<desc>lat.=55.897137, lon.=26.531887, Alt.=106.075256m. Speed=18.360001m/h.</desc>
<speed>5.100000</speed>
</trkpt>
<trkpt lat="55.897114" lon="26.531963">
<ele>106.514709</ele>
<time>2010-07-17T07:43:34Z</time>
<desc>lat.=55.897114, lon.=26.531963, Alt.=106.514709m. Speed=18.216000m/h.</desc>
<speed>5.060000</speed>
</trkpt>
<trkpt lat="55.897087" lon="26.532032">
<ele>105.264709</ele>
<time>2010-07-17T07:43:35Z</time>
<desc>lat.=55.897087, lon.=26.532032, Alt.=105.264709m. Speed=17.496000m/h.</desc>
<speed>4.860000</speed>
</trkpt>
<trkpt lat="55.897060" lon="26.532099">
<ele>104.967834</ele>
<time>2010-07-17T07:43:36Z</time>
<desc>lat.=55.897060, lon.=26.532099, Alt.=104.967834m. Speed=17.100000m/h.</desc>
<speed>4.750000</speed>
</trkpt>
<trkpt lat="55.897038" lon="26.532162">
<ele>105.268616</ele>
<time>2010-07-17T07:43:37Z</time>
<desc>lat.=55.897038, lon.=26.532162, Alt.=105.268616m. Speed=16.524000m/h.</desc>
<speed>4.590000</speed>
</trkpt>
<trkpt lat="55.897015" lon="26.532221">
<ele>105.311584</ele>
<time>2010-07-17T07:43:38Z</time>
<desc>lat.=55.897015, lon.=26.532221, Alt.=105.311584m. Speed=14.652000m/h.</desc>
<speed>4.070000</speed>
</trkpt>
<trkpt lat="55.896992" lon="26.532259">
<ele>107.604553</ele>
<time>2010-07-17T07:43:39Z</time>
<desc>lat.=55.896992, lon.=26.532259, Alt.=107.604553m. Speed=13.068000m/h.</desc>
<speed>3.630000</speed>
</trkpt>
<trkpt lat="55.896965" lon="26.532263">
<ele>107.305725</ele>
<time>2010-07-17T07:43:40Z</time>
<desc>lat.=55.896965, lon.=26.532263, Alt.=107.305725m. Speed=8.424000m/h.</desc>
<speed>2.340000</speed>
</trkpt>
<trkpt lat="55.896942" lon="26.532251">
<ele>107.001038</ele>
<time>2010-07-17T07:43:41Z</time>
<desc>lat.=55.896942, lon.=26.532251, Alt.=107.001038m. Speed=12.024000m/h.</desc>
<speed>3.340000</speed>
</trkpt>
<trkpt lat="55.896915" lon="26.532238">
<ele>107.194397</ele>
<time>2010-07-17T07:43:42Z</time>
<desc>lat.=55.896915, lon.=26.532238, Alt.=107.194397m. Speed=14.076000m/h.</desc>
<speed>3.910000</speed>
</trkpt>
<trkpt lat="55.896881" lon="26.532211">
<ele>107.295959</ele>
<time>2010-07-17T07:43:43Z</time>
<desc>lat.=55.896881, lon.=26.532211, Alt.=107.295959m. Speed=14.580000m/h.</desc>
<speed>4.050000</speed>
</trkpt>
<trkpt lat="55.896843" lon="26.532181">
<ele>106.856506</ele>
<time>2010-07-17T07:43:44Z</time>
<desc>lat.=55.896843, lon.=26.532181, Alt.=106.856506m. Speed=15.228000m/h.</desc>
<speed>4.230000</speed>
</trkpt>
<trkpt lat="55.896797" lon="26.532156">
<ele>106.801819</ele>
<time>2010-07-17T07:43:45Z</time>
<desc>lat.=55.896797, lon.=26.532156, Alt.=106.801819m. Speed=18.323999m/h.</desc>
<speed>5.090000</speed>
</trkpt>
<trkpt lat="55.896755" lon="26.532129">
<ele>106.934631</ele>
<time>2010-07-17T07:43:46Z</time>
<desc>lat.=55.896755, lon.=26.532129, Alt.=106.934631m. Speed=17.532000m/h.</desc>
<speed>4.870000</speed>
</trkpt>
<trkpt lat="55.896709" lon="26.532104">
<ele>107.305725</ele>
<time>2010-07-17T07:43:47Z</time>
<desc>lat.=55.896709, lon.=26.532104, Alt.=107.305725m. Speed=16.740000m/h.</desc>
<speed>4.650000</speed>
</trkpt>
<trkpt lat="55.896671" lon="26.532080">
<ele>107.155334</ele>
<time>2010-07-17T07:43:48Z</time>
<desc>lat.=55.896671, lon.=26.532080, Alt.=107.155334m. Speed=14.904000m/h.</desc>
<speed>4.140000</speed>
</trkpt>
<trkpt lat="55.896633" lon="26.532082">
<ele>107.483459</ele>
<time>2010-07-17T07:43:49Z</time>
<desc>lat.=55.896633, lon.=26.532082, Alt.=107.483459m. Speed=10.980000m/h.</desc>
<speed>3.050000</speed>
</trkpt>
<trkpt lat="55.896603" lon="26.532101">
<ele>107.667053</ele>
<time>2010-07-17T07:43:50Z</time>
<desc>lat.=55.896603, lon.=26.532101, Alt.=107.667053m. Speed=13.392000m/h.</desc>
<speed>3.720000</speed>
</trkpt>
<trkpt lat="55.896584" lon="26.532158">
<ele>107.706116</ele>
<time>2010-07-17T07:43:51Z</time>
<desc>lat.=55.896584, lon.=26.532158, Alt.=107.706116m. Speed=14.112000m/h.</desc>
<speed>3.920000</speed>
</trkpt>
<trkpt lat="55.896568" lon="26.532209">
<ele>107.624084</ele>
<time>2010-07-17T07:43:52Z</time>
<desc>lat.=55.896568, lon.=26.532209, Alt.=107.624084m. Speed=13.140000m/h.</desc>
<speed>3.650000</speed>
</trkpt>
<trkpt lat="55.896545" lon="26.532276">
<ele>107.559631</ele>
<time>2010-07-17T07:43:53Z</time>
<desc>lat.=55.896545, lon.=26.532276, Alt.=107.559631m. Speed=16.632000m/h.</desc>
<speed>4.620000</speed>
</trkpt>
<trkpt lat="55.896515" lon="26.532333">
<ele>107.278381</ele>
<time>2010-07-17T07:43:54Z</time>
<desc>lat.=55.896515, lon.=26.532333, Alt.=107.278381m. Speed=16.812000m/h.</desc>
<speed>4.670000</speed>
</trkpt>
<trkpt lat="55.896492" lon="26.532398">
<ele>107.534241</ele>
<time>2010-07-17T07:43:55Z</time>
<desc>lat.=55.896492, lon.=26.532398, Alt.=107.534241m. Speed=16.020000m/h.</desc>
<speed>4.450000</speed>
</trkpt>
<trkpt lat="55.896465" lon="26.532469">
<ele>107.376038</ele>
<time>2010-07-17T07:43:56Z</time>
<desc>lat.=55.896465, lon.=26.532469, Alt.=107.376038m. Speed=16.128000m/h.</desc>
<speed>4.480000</speed>
</trkpt>
<trkpt lat="55.896446" lon="26.532537">
<ele>107.540100</ele>
<time>2010-07-17T07:43:57Z</time>
<desc>lat.=55.896446, lon.=26.532537, Alt.=107.540100m. Speed=15.408000m/h.</desc>
<speed>4.280000</speed>
</trkpt>
<trkpt lat="55.896431" lon="26.532597">
<ele>109.047913</ele>
<time>2010-07-17T07:43:58Z</time>
<desc>lat.=55.896431, lon.=26.532597, Alt.=109.047913m. Speed=12.996000m/h.</desc>
<speed>3.610000</speed>
</trkpt>
<trkpt lat="55.896420" lon="26.532623">
<ele>109.501038</ele>
<time>2010-07-17T07:43:59Z</time>
<desc>lat.=55.896420, lon.=26.532623, Alt.=109.501038m. Speed=2.232000m/h.</desc>
<speed>0.620000</speed>
</trkpt>
<trkpt lat="55.896416" lon="26.532637">
<ele>109.085022</ele>
<time>2010-07-17T07:44:00Z</time>
<desc>lat.=55.896416, lon.=26.532637, Alt.=109.085022m. Speed=1.296000m/h.</desc>
<speed>0.360000</speed>
</trkpt>
<trkpt lat="55.896408" lon="26.532639">
<ele>109.086975</ele>
<time>2010-07-17T07:44:01Z</time>
<desc>lat.=55.896408, lon.=26.532639, Alt.=109.086975m. Speed=1.152000m/h.</desc>
<speed>0.320000</speed>
</trkpt>
<trkpt lat="55.896408" lon="26.532642">
<ele>109.536194</ele>
<time>2010-07-17T07:44:02Z</time>
<desc>lat.=55.896408, lon.=26.532642, Alt.=109.536194m. Speed=1.080000m/h.</desc>
<speed>0.300000</speed>
</trkpt>
<trkpt lat="55.896404" lon="26.532639">
<ele>109.698303</ele>
<time>2010-07-17T07:44:03Z</time>
<desc>lat.=55.896404, lon.=26.532639, Alt.=109.698303m. Speed=1.512000m/h.</desc>
<speed>0.420000</speed>
</trkpt>
<trkpt lat="55.896404" lon="26.532633">
<ele>109.846741</ele>
<time>2010-07-17T07:44:04Z</time>
<desc>lat.=55.896404, lon.=26.532633, Alt.=109.846741m. Speed=1.044000m/h.</desc>
<speed>0.290000</speed>
</trkpt>
<trkpt lat="55.896400" lon="26.532629">
<ele>109.983459</ele>
<time>2010-07-17T07:44:05Z</time>
<desc>lat.=55.896400, lon.=26.532629, Alt.=109.983459m. Speed=1.476000m/h.</desc>
<speed>0.410000</speed>
</trkpt>
<trkpt lat="55.896400" lon="26.532627">
<ele>110.081116</ele>
<time>2010-07-17T07:44:06Z</time>
<desc>lat.=55.896400, lon.=26.532627, Alt.=110.081116m. Speed=1.800000m/h.</desc>
<speed>0.500000</speed>
</trkpt>
<trkpt lat="55.896393" lon="26.532623">
<ele>110.174866</ele>
<time>2010-07-17T07:44:07Z</time>
<desc>lat.=55.896393, lon.=26.532623, Alt.=110.174866m. Speed=2.772000m/h.</desc>
<speed>0.770000</speed>
</trkpt>
<trkpt lat="55.896389" lon="26.532618">
<ele>110.262756</ele>
<time>2010-07-17T07:44:08Z</time>
<desc>lat.=55.896389, lon.=26.532618, Alt.=110.262756m. Speed=3.708000m/h.</desc>
<speed>1.030000</speed>
</trkpt>
<trkpt lat="55.896378" lon="26.532612">
<ele>110.229553</ele>
<time>2010-07-17T07:44:09Z</time>
<desc>lat.=55.896378, lon.=26.532612, Alt.=110.229553m. Speed=3.672000m/h.</desc>
<speed>1.020000</speed>
</trkpt>
<trkpt lat="55.896370" lon="26.532614">
<ele>110.426819</ele>
<time>2010-07-17T07:44:10Z</time>
<desc>lat.=55.896370, lon.=26.532614, Alt.=110.426819m. Speed=3.060000m/h.</desc>
<speed>0.850000</speed>
</trkpt>
<trkpt lat="55.896358" lon="26.532606">
<ele>110.286194</ele>
<time>2010-07-17T07:44:11Z</time>
<desc>lat.=55.896358, lon.=26.532606, Alt.=110.286194m. Speed=3.564000m/h.</desc>
<speed>0.990000</speed>
</trkpt>
<trkpt lat="55.896347" lon="26.532598">
<ele>110.124084</ele>
<time>2010-07-17T07:44:12Z</time>
<desc>lat.=55.896347, lon.=26.532598, Alt.=110.124084m. Speed=3.600000m/h.</desc>
<speed>1.000000</speed>
</trkpt>
<trkpt lat="55.896336" lon="26.532600">
<ele>109.342834</ele>
<time>2010-07-17T07:44:13Z</time>
<desc>lat.=55.896336, lon.=26.532600, Alt.=109.342834m. Speed=3.132000m/h.</desc>
<speed>0.870000</speed>
</trkpt>
<trkpt lat="55.896328" lon="26.532595">
<ele>109.251038</ele>
<time>2010-07-17T07:44:14Z</time>
<desc>lat.=55.896328, lon.=26.532595, Alt.=109.251038m. Speed=3.384000m/h.</desc>
<speed>0.940000</speed>
</trkpt>
<trkpt lat="55.896320" lon="26.532576">
<ele>108.860413</ele>
<time>2010-07-17T07:44:15Z</time>
<desc>lat.=55.896320, lon.=26.532576, Alt.=108.860413m. Speed=3.600000m/h.</desc>
<speed>1.000000</speed>
</trkpt>
<trkpt lat="55.896313" lon="26.532568">
<ele>108.350647</ele>
<time>2010-07-17T07:44:16Z</time>
<desc>lat.=55.896313, lon.=26.532568, Alt.=108.350647m. Speed=3.384000m/h.</desc>
<speed>0.940000</speed>
</trkpt>
<trkpt lat="55.896301" lon="26.532560">
<ele>108.272522</ele>
<time>2010-07-17T07:44:17Z</time>
<desc>lat.=55.896301, lon.=26.532560, Alt.=108.272522m. Speed=3.708000m/h.</desc>
<speed>1.030000</speed>
</trkpt>
<trkpt lat="55.896286" lon="26.532557">
<ele>108.376038</ele>
<time>2010-07-17T07:44:18Z</time>
<desc>lat.=55.896286, lon.=26.532557, Alt.=108.376038m. Speed=4.428000m/h.</desc>
<speed>1.230000</speed>
</trkpt>
<trkpt lat="55.896278" lon="26.532549">
<ele>108.553772</ele>
<time>2010-07-17T07:44:19Z</time>
<desc>lat.=55.896278, lon.=26.532549, Alt.=108.553772m. Speed=4.356000m/h.</desc>
<speed>1.210000</speed>
</trkpt>
<trkpt lat="55.896271" lon="26.532545">
<ele>108.680725</ele>
<time>2010-07-17T07:44:20Z</time>
<desc>lat.=55.896271, lon.=26.532545, Alt.=108.680725m. Speed=4.140000m/h.</desc>
<speed>1.150000</speed>
</trkpt>
<trkpt lat="55.896255" lon="26.532537">
<ele>108.719788</ele>
<time>2010-07-17T07:44:21Z</time>
<desc>lat.=55.896255, lon.=26.532537, Alt.=108.719788m. Speed=4.176000m/h.</desc>
<speed>1.160000</speed>
</trkpt>
<trkpt lat="55.896244" lon="26.532530">
<ele>108.518616</ele>
<time>2010-07-17T07:44:22Z</time>
<desc>lat.=55.896244, lon.=26.532530, Alt.=108.518616m. Speed=4.248000m/h.</desc>
<speed>1.180000</speed>
</trkpt>
<trkpt lat="55.896236" lon="26.532524">
<ele>108.512756</ele>
<time>2010-07-17T07:44:23Z</time>
<desc>lat.=55.896236, lon.=26.532524, Alt.=108.512756m. Speed=3.888000m/h.</desc>
<speed>1.080000</speed>
</trkpt>
<trkpt lat="55.896221" lon="26.532524">
<ele>108.233459</ele>
<time>2010-07-17T07:44:24Z</time>
<desc>lat.=55.896221, lon.=26.532524, Alt.=108.233459m. Speed=3.312000m/h.</desc>
<speed>0.920000</speed>
</trkpt>
<trkpt lat="55.896194" lon="26.532524">
<ele>108.299866</ele>
<time>2010-07-17T07:44:25Z</time>
<desc>lat.=55.896194, lon.=26.532524, Alt.=108.299866m. Speed=4.032000m/h.</desc>
<speed>1.120000</speed>
</trkpt>
<trkpt lat="55.896175" lon="26.532537">
<ele>108.526428</ele>
<time>2010-07-17T07:44:26Z</time>
<desc>lat.=55.896175, lon.=26.532537, Alt.=108.526428m. Speed=4.572000m/h.</desc>
<speed>1.270000</speed>
</trkpt>
<trkpt lat="55.896164" lon="26.532547">
<ele>108.553772</ele>
<time>2010-07-17T07:44:27Z</time>
<desc>lat.=55.896164, lon.=26.532547, Alt.=108.553772m. Speed=4.968000m/h.</desc>
<speed>1.380000</speed>
</trkpt>
<trkpt lat="55.896152" lon="26.532541">
<ele>108.657288</ele>
<time>2010-07-17T07:44:28Z</time>
<desc>lat.=55.896152, lon.=26.532541, Alt.=108.657288m. Speed=5.364000m/h.</desc>
<speed>1.490000</speed>
</trkpt>
<trkpt lat="55.896137" lon="26.532537">
<ele>108.635803</ele>
<time>2010-07-17T07:44:29Z</time>
<desc>lat.=55.896137, lon.=26.532537, Alt.=108.635803m. Speed=10.908000m/h.</desc>
<speed>3.030000</speed>
</trkpt>
<trkpt lat="55.896107" lon="26.532528">
<ele>108.610413</ele>
<time>2010-07-17T07:44:30Z</time>
<desc>lat.=55.896107, lon.=26.532528, Alt.=108.610413m. Speed=15.372000m/h.</desc>
<speed>4.270000</speed>
</trkpt>
<trkpt lat="55.896065" lon="26.532513">
<ele>108.637756</ele>
<time>2010-07-17T07:44:31Z</time>
<desc>lat.=55.896065, lon.=26.532513, Alt.=108.637756m. Speed=18.684000m/h.</desc>
<speed>5.190000</speed>
</trkpt>
<trkpt lat="55.896023" lon="26.532490">
<ele>108.710022</ele>
<time>2010-07-17T07:44:32Z</time>
<desc>lat.=55.896023, lon.=26.532490, Alt.=108.710022m. Speed=21.600000m/h.</desc>
<speed>6.000000</speed>
</trkpt>
<trkpt lat="55.895981" lon="26.532455">
<ele>108.237366</ele>
<time>2010-07-17T07:44:33Z</time>
<desc>lat.=55.895981, lon.=26.532455, Alt.=108.237366m. Speed=21.492001m/h.</desc>
<speed>5.970000</speed>
</trkpt>
<trkpt lat="55.895931" lon="26.532419">
<ele>108.217834</ele>
<time>2010-07-17T07:44:34Z</time>
<desc>lat.=55.895931, lon.=26.532419, Alt.=108.217834m. Speed=22.896000m/h.</desc>
<speed>6.360000</speed>
</trkpt>
<trkpt lat="55.895874" lon="26.532383">
<ele>107.629944</ele>
<time>2010-07-17T07:44:35Z</time>
<desc>lat.=55.895874, lon.=26.532383, Alt.=107.629944m. Speed=22.896000m/h.</desc>
<speed>6.360000</speed>
</trkpt>
<trkpt lat="55.895824" lon="26.532343">
<ele>106.612366</ele>
<time>2010-07-17T07:44:36Z</time>
<desc>lat.=55.895824, lon.=26.532343, Alt.=106.612366m. Speed=21.888000m/h.</desc>
<speed>6.080000</speed>
</trkpt>
<trkpt lat="55.895779" lon="26.532307">
<ele>106.614319</ele>
<time>2010-07-17T07:44:37Z</time>
<desc>lat.=55.895779, lon.=26.532307, Alt.=106.614319m. Speed=20.520000m/h.</desc>
<speed>5.700000</speed>
</trkpt>
<trkpt lat="55.895741" lon="26.532272">
<ele>106.874084</ele>
<time>2010-07-17T07:44:38Z</time>
<desc>lat.=55.895741, lon.=26.532272, Alt.=106.874084m. Speed=18.719999m/h.</desc>
<speed>5.200000</speed>
</trkpt>
<trkpt lat="55.895699" lon="26.532236">
<ele>107.026428</ele>
<time>2010-07-17T07:44:39Z</time>
<desc>lat.=55.895699, lon.=26.532236, Alt.=107.026428m. Speed=19.332001m/h.</desc>
<speed>5.370000</speed>
</trkpt>
<trkpt lat="55.895660" lon="26.532202">
<ele>106.364319</ele>
<time>2010-07-17T07:44:40Z</time>
<desc>lat.=55.895660, lon.=26.532202, Alt.=106.364319m. Speed=18.000000m/h.</desc>
<speed>5.000000</speed>
</trkpt>
<trkpt lat="55.895615" lon="26.532175">
<ele>106.288147</ele>
<time>2010-07-17T07:44:41Z</time>
<desc>lat.=55.895615, lon.=26.532175, Alt.=106.288147m. Speed=18.360001m/h.</desc>
<speed>5.100000</speed>
</trkpt>
<trkpt lat="55.895569" lon="26.532139">
<ele>105.809631</ele>
<time>2010-07-17T07:44:42Z</time>
<desc>lat.=55.895569, lon.=26.532139, Alt.=105.809631m. Speed=20.268000m/h.</desc>
<speed>5.630000</speed>
</trkpt>
<trkpt lat="55.895515" lon="26.532106">
<ele>105.622131</ele>
<time>2010-07-17T07:44:43Z</time>
<desc>lat.=55.895515, lon.=26.532106, Alt.=105.622131m. Speed=22.860001m/h.</desc>
<speed>6.350000</speed>
</trkpt>
<trkpt lat="55.895439" lon="26.532063">
<ele>104.973694</ele>
<time>2010-07-17T07:44:44Z</time>
<desc>lat.=55.895439, lon.=26.532063, Alt.=104.973694m. Speed=24.299999m/h.</desc>
<speed>6.750000</speed>
</trkpt>
<trkpt lat="55.895374" lon="26.532021">
<ele>104.344788</ele>
<time>2010-07-17T07:44:45Z</time>
<desc>lat.=55.895374, lon.=26.532021, Alt.=104.344788m. Speed=23.796000m/h.</desc>
<speed>6.610000</speed>
</trkpt>
<trkpt lat="55.895313" lon="26.531977">
<ele>103.534241</ele>
<time>2010-07-17T07:44:46Z</time>
<desc>lat.=55.895313, lon.=26.531977, Alt.=103.534241m. Speed=24.408001m/h.</desc>
<speed>6.780000</speed>
</trkpt>
<trkpt lat="55.895256" lon="26.531952">
<ele>103.493225</ele>
<time>2010-07-17T07:44:47Z</time>
<desc>lat.=55.895256, lon.=26.531952, Alt.=103.493225m. Speed=24.048000m/h.</desc>
<speed>6.680000</speed>
</trkpt>
<trkpt lat="55.895199" lon="26.531925">
<ele>102.889709</ele>
<time>2010-07-17T07:44:48Z</time>
<desc>lat.=55.895199, lon.=26.531925, Alt.=102.889709m. Speed=23.903999m/h.</desc>
<speed>6.640000</speed>
</trkpt>
<trkpt lat="55.895145" lon="26.531898">
<ele>102.616272</ele>
<time>2010-07-17T07:44:49Z</time>
<desc>lat.=55.895145, lon.=26.531898, Alt.=102.616272m. Speed=22.823999m/h.</desc>
<speed>6.340000</speed>
</trkpt>
<trkpt lat="55.895092" lon="26.531874">
<ele>102.487366</ele>
<time>2010-07-17T07:44:50Z</time>
<desc>lat.=55.895092, lon.=26.531874, Alt.=102.487366m. Speed=22.247999m/h.</desc>
<speed>6.180000</speed>
</trkpt>
<trkpt lat="55.895035" lon="26.531858">
<ele>102.581116</ele>
<time>2010-07-17T07:44:51Z</time>
<desc>lat.=55.895035, lon.=26.531858, Alt.=102.581116m. Speed=20.988001m/h.</desc>
<speed>5.830000</speed>
</trkpt>
<trkpt lat="55.894978" lon="26.531845">
<ele>102.268616</ele>
<time>2010-07-17T07:44:52Z</time>
<desc>lat.=55.894978, lon.=26.531845, Alt.=102.268616m. Speed=20.232000m/h.</desc>
<speed>5.620000</speed>
</trkpt>
<trkpt lat="55.894928" lon="26.531836">
<ele>102.231506</ele>
<time>2010-07-17T07:44:53Z</time>
<desc>lat.=55.894928, lon.=26.531836, Alt.=102.231506m. Speed=18.468000m/h.</desc>
<speed>5.130000</speed>
</trkpt>
<trkpt lat="55.894878" lon="26.531841">
<ele>101.936584</ele>
<time>2010-07-17T07:44:54Z</time>
<desc>lat.=55.894878, lon.=26.531841, Alt.=101.936584m. Speed=17.784000m/h.</desc>
<speed>4.940000</speed>
</trkpt>
<trkpt lat="55.894840" lon="26.531858">
<ele>101.526428</ele>
<time>2010-07-17T07:44:55Z</time>
<desc>lat.=55.894840, lon.=26.531858, Alt.=101.526428m. Speed=13.680000m/h.</desc>
<speed>3.800000</speed>
</trkpt>
<trkpt lat="55.894810" lon="26.531885">
<ele>101.612366</ele>
<time>2010-07-17T07:44:56Z</time>
<desc>lat.=55.894810, lon.=26.531885, Alt.=101.612366m. Speed=13.428000m/h.</desc>
<speed>3.730000</speed>
</trkpt>
<trkpt lat="55.894775" lon="26.531931">
<ele>102.104553</ele>
<time>2010-07-17T07:44:57Z</time>
<desc>lat.=55.894775, lon.=26.531931, Alt.=102.104553m. Speed=16.775999m/h.</desc>
<speed>4.660000</speed>
</trkpt>
<trkpt lat="55.894741" lon="26.531984">
<ele>102.795959</ele>
<time>2010-07-17T07:44:58Z</time>
<desc>lat.=55.894741, lon.=26.531984, Alt.=102.795959m. Speed=19.115999m/h.</desc>
<speed>5.310000</speed>
</trkpt>
<trkpt lat="55.894699" lon="26.532064">
<ele>103.266663</ele>
<time>2010-07-17T07:44:59Z</time>
<desc>lat.=55.894699, lon.=26.532064, Alt.=103.266663m. Speed=22.788000m/h.</desc>
<speed>6.330000</speed>
</trkpt>
<trkpt lat="55.894657" lon="26.532148">
<ele>103.377991</ele>
<time>2010-07-17T07:45:00Z</time>
<desc>lat.=55.894657, lon.=26.532148, Alt.=103.377991m. Speed=21.348000m/h.</desc>
<speed>5.930000</speed>
</trkpt>
<trkpt lat="55.894623" lon="26.532223">
<ele>103.284241</ele>
<time>2010-07-17T07:45:01Z</time>
<desc>lat.=55.894623, lon.=26.532223, Alt.=103.284241m. Speed=21.420000m/h.</desc>
<speed>5.950000</speed>
</trkpt>
<trkpt lat="55.894588" lon="26.532297">
<ele>102.965881</ele>
<time>2010-07-17T07:45:02Z</time>
<desc>lat.=55.894588, lon.=26.532297, Alt.=102.965881m. Speed=20.808001m/h.</desc>
<speed>5.780000</speed>
</trkpt>
<trkpt lat="55.894558" lon="26.532372">
<ele>102.913147</ele>
<time>2010-07-17T07:45:03Z</time>
<desc>lat.=55.894558, lon.=26.532372, Alt.=102.913147m. Speed=19.872000m/h.</desc>
<speed>5.520000</speed>
</trkpt>
<trkpt lat="55.894531" lon="26.532446">
<ele>102.930725</ele>
<time>2010-07-17T07:45:04Z</time>
<desc>lat.=55.894531, lon.=26.532446, Alt.=102.930725m. Speed=19.403999m/h.</desc>
<speed>5.390000</speed>
</trkpt>
<trkpt lat="55.894508" lon="26.532528">
<ele>102.901428</ele>
<time>2010-07-17T07:45:05Z</time>
<desc>lat.=55.894508, lon.=26.532528, Alt.=102.901428m. Speed=20.160000m/h.</desc>
<speed>5.600000</speed>
</trkpt>
<trkpt lat="55.894478" lon="26.532606">
<ele>102.938538</ele>
<time>2010-07-17T07:45:06Z</time>
<desc>lat.=55.894478, lon.=26.532606, Alt.=102.938538m. Speed=19.440001m/h.</desc>
<speed>5.400000</speed>
</trkpt>
<trkpt lat="55.894451" lon="26.532679">
<ele>102.977600</ele>
<time>2010-07-17T07:45:07Z</time>
<desc>lat.=55.894451, lon.=26.532679, Alt.=102.977600m. Speed=19.044001m/h.</desc>
<speed>5.290000</speed>
</trkpt>
<trkpt lat="55.894428" lon="26.532757">
<ele>102.971741</ele>
<time>2010-07-17T07:45:08Z</time>
<desc>lat.=55.894428, lon.=26.532757, Alt.=102.971741m. Speed=19.115999m/h.</desc>
<speed>5.310000</speed>
</trkpt>
<trkpt lat="55.894405" lon="26.532831">
<ele>102.954163</ele>
<time>2010-07-17T07:45:09Z</time>
<desc>lat.=55.894405, lon.=26.532831, Alt.=102.954163m. Speed=18.719999m/h.</desc>
<speed>5.200000</speed>
</trkpt>
<trkpt lat="55.894382" lon="26.532907">
<ele>102.983459</ele>
<time>2010-07-17T07:45:10Z</time>
<desc>lat.=55.894382, lon.=26.532907, Alt.=102.983459m. Speed=17.172001m/h.</desc>
<speed>4.770000</speed>
</trkpt>
<trkpt lat="55.894363" lon="26.532965">
<ele>102.969788</ele>
<time>2010-07-17T07:45:11Z</time>
<desc>lat.=55.894363, lon.=26.532965, Alt.=102.969788m. Speed=13.212000m/h.</desc>
<speed>3.670000</speed>
</trkpt>
<trkpt lat="55.894352" lon="26.533014">
<ele>102.954163</ele>
<time>2010-07-17T07:45:12Z</time>
<desc>lat.=55.894352, lon.=26.533014, Alt.=102.954163m. Speed=10.368000m/h.</desc>
<speed>2.880000</speed>
</trkpt>
<trkpt lat="55.894325" lon="26.533058">
<ele>102.770569</ele>
<time>2010-07-17T07:45:13Z</time>
<desc>lat.=55.894325, lon.=26.533058, Alt.=102.770569m. Speed=9.864000m/h.</desc>
<speed>2.740000</speed>
</trkpt>
<trkpt lat="55.894295" lon="26.533079">
<ele>102.795959</ele>
<time>2010-07-17T07:45:14Z</time>
<desc>lat.=55.894295, lon.=26.533079, Alt.=102.795959m. Speed=10.836000m/h.</desc>
<speed>3.010000</speed>
</trkpt>
<trkpt lat="55.894260" lon="26.533052">
<ele>102.870178</ele>
<time>2010-07-17T07:45:15Z</time>
<desc>lat.=55.894260, lon.=26.533052, Alt.=102.870178m. Speed=14.796000m/h.</desc>
<speed>4.110000</speed>
</trkpt>
<trkpt lat="55.894226" lon="26.533022">
<ele>102.635803</ele>
<time>2010-07-17T07:45:16Z</time>
<desc>lat.=55.894226, lon.=26.533022, Alt.=102.635803m. Speed=17.172001m/h.</desc>
<speed>4.770000</speed>
</trkpt>
<trkpt lat="55.894188" lon="26.532978">
<ele>102.247131</ele>
<time>2010-07-17T07:45:17Z</time>
<desc>lat.=55.894188, lon.=26.532978, Alt.=102.247131m. Speed=18.143999m/h.</desc>
<speed>5.040000</speed>
</trkpt>
<trkpt lat="55.894150" lon="26.532932">
<ele>102.305725</ele>
<time>2010-07-17T07:45:18Z</time>
<desc>lat.=55.894150, lon.=26.532932, Alt.=102.305725m. Speed=17.964001m/h.</desc>
<speed>4.990000</speed>
</trkpt>
<trkpt lat="55.894104" lon="26.532888">
<ele>102.317444</ele>
<time>2010-07-17T07:45:19Z</time>
<desc>lat.=55.894104, lon.=26.532888, Alt.=102.317444m. Speed=17.747999m/h.</desc>
<speed>4.930000</speed>
</trkpt>
<trkpt lat="55.894070" lon="26.532852">
<ele>102.235413</ele>
<time>2010-07-17T07:45:20Z</time>
<desc>lat.=55.894070, lon.=26.532852, Alt.=102.235413m. Speed=18.035999m/h.</desc>
<speed>5.010000</speed>
</trkpt>
<trkpt lat="55.894039" lon="26.532812">
<ele>101.905334</ele>
<time>2010-07-17T07:45:21Z</time>
<desc>lat.=55.894039, lon.=26.532812, Alt.=101.905334m. Speed=17.388000m/h.</desc>
<speed>4.830000</speed>
</trkpt>
<trkpt lat="55.894009" lon="26.532778">
<ele>101.762756</ele>
<time>2010-07-17T07:45:22Z</time>
<desc>lat.=55.894009, lon.=26.532778, Alt.=101.762756m. Speed=14.184000m/h.</desc>
<speed>3.940000</speed>
</trkpt>
<trkpt lat="55.893990" lon="26.532755">
<ele>101.631897</ele>
<time>2010-07-17T07:45:23Z</time>
<desc>lat.=55.893990, lon.=26.532755, Alt.=101.631897m. Speed=8.280000m/h.</desc>
<speed>2.300000</speed>
</trkpt>
<trkpt lat="55.893974" lon="26.532742">
<ele>101.659241</ele>
<time>2010-07-17T07:45:24Z</time>
<desc>lat.=55.893974, lon.=26.532742, Alt.=101.659241m. Speed=4.536000m/h.</desc>
<speed>1.260000</speed>
</trkpt>
<trkpt lat="55.893970" lon="26.532736">
<ele>101.463928</ele>
<time>2010-07-17T07:45:25Z</time>
<desc>lat.=55.893970, lon.=26.532736, Alt.=101.463928m. Speed=1.548000m/h.</desc>
<speed>0.430000</speed>
</trkpt>
<trkpt lat="55.893974" lon="26.532743">
<ele>101.295959</ele>
<time>2010-07-17T07:45:26Z</time>
<desc>lat.=55.893974, lon.=26.532743, Alt.=101.295959m. Speed=0.648000m/h.</desc>
<speed>0.180000</speed>
</trkpt>
<trkpt lat="55.893978" lon="26.532749">
<ele>101.417053</ele>
<time>2010-07-17T07:45:27Z</time>
<desc>lat.=55.893978, lon.=26.532749, Alt.=101.417053m. Speed=0.252000m/h.</desc>
<speed>0.070000</speed>
</trkpt>
<trkpt lat="55.893970" lon="26.532749">
<ele>101.588928</ele>
<time>2010-07-17T07:45:28Z</time>
<desc>lat.=55.893970, lon.=26.532749, Alt.=101.588928m. Speed=0.432000m/h.</desc>
<speed>0.120000</speed>
</trkpt>
<trkpt lat="55.893970" lon="26.532749">
<ele>101.540100</ele>
<time>2010-07-17T07:45:29Z</time>
<desc>lat.=55.893970, lon.=26.532749, Alt.=101.540100m. Speed=0.720000m/h.</desc>
<speed>0.200000</speed>
</trkpt>
<trkpt lat="55.893967" lon="26.532749">
<ele>101.506897</ele>
<time>2010-07-17T07:45:30Z</time>
<desc>lat.=55.893967, lon.=26.532749, Alt.=101.506897m. Speed=0.504000m/h.</desc>
<speed>0.140000</speed>
</trkpt>
<trkpt lat="55.893967" lon="26.532747">
<ele>101.483459</ele>
<time>2010-07-17T07:45:31Z</time>
<desc>lat.=55.893967, lon.=26.532747, Alt.=101.483459m. Speed=0.648000m/h.</desc>
<speed>0.180000</speed>
</trkpt>
<trkpt lat="55.893963" lon="26.532745">
<ele>101.469788</ele>
<time>2010-07-17T07:45:32Z</time>
<desc>lat.=55.893963, lon.=26.532745, Alt.=101.469788m. Speed=0.360000m/h.</desc>
<speed>0.100000</speed>
</trkpt>
<trkpt lat="55.893963" lon="26.532743">
<ele>101.460022</ele>
<time>2010-07-17T07:45:33Z</time>
<desc>lat.=55.893963, lon.=26.532743, Alt.=101.460022m. Speed=0.108000m/h.</desc>
<speed>0.030000</speed>
</trkpt>
<trkpt lat="55.893963" lon="26.532743">
<ele>101.444397</ele>
<time>2010-07-17T07:45:34Z</time>
<desc>lat.=55.893963, lon.=26.532743, Alt.=101.444397m. Speed=0.252000m/h.</desc>
<speed>0.070000</speed>
</trkpt>
<trkpt lat="55.893963" lon="26.532742">
<ele>101.432678</ele>
<time>2010-07-17T07:45:35Z</time>
<desc>lat.=55.893963, lon.=26.532742, Alt.=101.432678m. Speed=0.504000m/h.</desc>
<speed>0.140000</speed>
</trkpt>
<trkpt lat="55.893963" lon="26.532740">
<ele>101.420959</ele>
<time>2010-07-17T07:45:36Z</time>
<desc>lat.=55.893963, lon.=26.532740, Alt.=101.420959m. Speed=0.396000m/h.</desc>
<speed>0.110000</speed>
</trkpt>
<trkpt lat="55.893963" lon="26.532740">
<ele>101.415100</ele>
<time>2010-07-17T07:45:37Z</time>
<desc>lat.=55.893963, lon.=26.532740, Alt.=101.415100m. Speed=0.180000m/h.</desc>
<speed>0.050000</speed>
</trkpt>
<trkpt lat="55.893967" lon="26.532738">
<ele>101.409241</ele>
<time>2010-07-17T07:45:38Z</time>
<desc>lat.=55.893967, lon.=26.532738, Alt.=101.409241m. Speed=0.360000m/h.</desc>
<speed>0.100000</speed>
</trkpt>
<trkpt lat="55.893967" lon="26.532738">
<ele>101.399475</ele>
<time>2010-07-17T07:45:39Z</time>
<desc>lat.=55.893967, lon.=26.532738, Alt.=101.399475m. Speed=0.216000m/h.</desc>
<speed>0.060000</speed>
</trkpt>
<trkpt lat="55.893967" lon="26.532736">
<ele>101.405334</ele>
<time>2010-07-17T07:45:40Z</time>
<desc>lat.=55.893967, lon.=26.532736, Alt.=101.405334m. Speed=1.620000m/h.</desc>
<speed>0.450000</speed>
</trkpt>
<trkpt lat="55.893959" lon="26.532736">
<ele>101.424866</ele>
<time>2010-07-17T07:45:41Z</time>
<desc>lat.=55.893959, lon.=26.532736, Alt.=101.424866m. Speed=2.484000m/h.</desc>
<speed>0.690000</speed>
</trkpt>
<trkpt lat="55.893955" lon="26.532738">
<ele>101.432678</ele>
<time>2010-07-17T07:45:42Z</time>
<desc>lat.=55.893955, lon.=26.532738, Alt.=101.432678m. Speed=3.672000m/h.</desc>
<speed>1.020000</speed>
</trkpt>
<trkpt lat="55.893948" lon="26.532763">
<ele>101.356506</ele>
<time>2010-07-17T07:45:43Z</time>
<desc>lat.=55.893948, lon.=26.532763, Alt.=101.356506m. Speed=7.776000m/h.</desc>
<speed>2.160000</speed>
</trkpt>
<trkpt lat="55.893929" lon="26.532799">
<ele>101.473694</ele>
<time>2010-07-17T07:45:44Z</time>
<desc>lat.=55.893929, lon.=26.532799, Alt.=101.473694m. Speed=10.728000m/h.</desc>
<speed>2.980000</speed>
</trkpt>
<trkpt lat="55.893913" lon="26.532833">
<ele>101.653381</ele>
<time>2010-07-17T07:45:45Z</time>
<desc>lat.=55.893913, lon.=26.532833, Alt.=101.653381m. Speed=10.404000m/h.</desc>
<speed>2.890000</speed>
</trkpt>
<trkpt lat="55.893887" lon="26.532871">
<ele>101.903381</ele>
<time>2010-07-17T07:45:46Z</time>
<desc>lat.=55.893887, lon.=26.532871, Alt.=101.903381m. Speed=12.492000m/h.</desc>
<speed>3.470000</speed>
</trkpt>
<trkpt lat="55.893864" lon="26.532921">
<ele>102.354553</ele>
<time>2010-07-17T07:45:47Z</time>
<desc>lat.=55.893864, lon.=26.532921, Alt.=102.354553m. Speed=14.688000m/h.</desc>
<speed>4.080000</speed>
</trkpt>
<trkpt lat="55.893841" lon="26.532978">
<ele>102.649475</ele>
<time>2010-07-17T07:45:48Z</time>
<desc>lat.=55.893841, lon.=26.532978, Alt.=102.649475m. Speed=15.408000m/h.</desc>
<speed>4.280000</speed>
</trkpt>
<trkpt lat="55.893810" lon="26.533035">
<ele>103.157288</ele>
<time>2010-07-17T07:45:49Z</time>
<desc>lat.=55.893810, lon.=26.533035, Alt.=103.157288m. Speed=16.308001m/h.</desc>
<speed>4.530000</speed>
</trkpt>
<trkpt lat="55.893772" lon="26.533091">
<ele>103.735413</ele>
<time>2010-07-17T07:45:50Z</time>
<desc>lat.=55.893772, lon.=26.533091, Alt.=103.735413m. Speed=19.620001m/h.</desc>
<speed>5.450000</speed>
</trkpt>
<trkpt lat="55.893726" lon="26.533123">
<ele>104.282288</ele>
<time>2010-07-17T07:45:51Z</time>
<desc>lat.=55.893726, lon.=26.533123, Alt.=104.282288m. Speed=18.180000m/h.</desc>
<speed>5.050000</speed>
</trkpt>
<trkpt lat="55.893673" lon="26.533136">
<ele>104.419006</ele>
<time>2010-07-17T07:45:52Z</time>
<desc>lat.=55.893673, lon.=26.533136, Alt.=104.419006m. Speed=19.332001m/h.</desc>
<speed>5.370000</speed>
</trkpt>
<trkpt lat="55.893623" lon="26.533148">
<ele>104.376038</ele>
<time>2010-07-17T07:45:53Z</time>
<desc>lat.=55.893623, lon.=26.533148, Alt.=104.376038m. Speed=18.431999m/h.</desc>
<speed>5.120000</speed>
</trkpt>
<trkpt lat="55.893578" lon="26.533163">
<ele>104.801819</ele>
<time>2010-07-17T07:45:54Z</time>
<desc>lat.=55.893578, lon.=26.533163, Alt.=104.801819m. Speed=20.304001m/h.</desc>
<speed>5.640000</speed>
</trkpt>
<trkpt lat="55.893524" lon="26.533176">
<ele>105.393616</ele>
<time>2010-07-17T07:45:55Z</time>
<desc>lat.=55.893524, lon.=26.533176, Alt.=105.393616m. Speed=20.232000m/h.</desc>
<speed>5.620000</speed>
</trkpt>
<trkpt lat="55.893471" lon="26.533186">
<ele>105.571350</ele>
<time>2010-07-17T07:45:56Z</time>
<desc>lat.=55.893471, lon.=26.533186, Alt.=105.571350m. Speed=22.643999m/h.</desc>
<speed>6.290000</speed>
</trkpt>
<trkpt lat="55.893410" lon="26.533203">
<ele>106.346741</ele>
<time>2010-07-17T07:45:57Z</time>
<desc>lat.=55.893410, lon.=26.533203, Alt.=106.346741m. Speed=22.427999m/h.</desc>
<speed>6.230000</speed>
</trkpt>
<trkpt lat="55.893353" lon="26.533213">
<ele>106.944397</ele>
<time>2010-07-17T07:45:58Z</time>
<desc>lat.=55.893353, lon.=26.533213, Alt.=106.944397m. Speed=21.492001m/h.</desc>
<speed>5.970000</speed>
</trkpt>
<trkpt lat="55.893295" lon="26.533230">
<ele>107.473694</ele>
<time>2010-07-17T07:45:59Z</time>
<desc>lat.=55.893295, lon.=26.533230, Alt.=107.473694m. Speed=21.275999m/h.</desc>
<speed>5.910000</speed>
</trkpt>
<trkpt lat="55.893238" lon="26.533232">
<ele>107.292053</ele>
<time>2010-07-17T07:46:00Z</time>
<desc>lat.=55.893238, lon.=26.533232, Alt.=107.292053m. Speed=20.700001m/h.</desc>
<speed>5.750000</speed>
</trkpt>
<trkpt lat="55.893188" lon="26.533247">
<ele>107.690491</ele>
<time>2010-07-17T07:46:01Z</time>
<desc>lat.=55.893188, lon.=26.533247, Alt.=107.690491m. Speed=20.879999m/h.</desc>
<speed>5.800000</speed>
</trkpt>
<trkpt lat="55.893131" lon="26.533258">
<ele>107.586975</ele>
<time>2010-07-17T07:46:02Z</time>
<desc>lat.=55.893131, lon.=26.533258, Alt.=107.586975m. Speed=21.132000m/h.</desc>
<speed>5.870000</speed>
</trkpt>
<trkpt lat="55.893078" lon="26.533262">
<ele>107.645569</ele>
<time>2010-07-17T07:46:03Z</time>
<desc>lat.=55.893078, lon.=26.533262, Alt.=107.645569m. Speed=21.528000m/h.</desc>
<speed>5.980000</speed>
</trkpt>
<trkpt lat="55.893021" lon="26.533274">
<ele>107.922913</ele>
<time>2010-07-17T07:46:04Z</time>
<desc>lat.=55.893021, lon.=26.533274, Alt.=107.922913m. Speed=21.348000m/h.</desc>
<speed>5.930000</speed>
</trkpt>
<trkpt lat="55.892967" lon="26.533268">
<ele>108.458069</ele>
<time>2010-07-17T07:46:05Z</time>
<desc>lat.=55.892967, lon.=26.533268, Alt.=108.458069m. Speed=20.591999m/h.</desc>
<speed>5.720000</speed>
</trkpt>
<trkpt lat="55.892918" lon="26.533236">
<ele>108.208069</ele>
<time>2010-07-17T07:46:06Z</time>
<desc>lat.=55.892918, lon.=26.533236, Alt.=108.208069m. Speed=18.756001m/h.</desc>
<speed>5.210000</speed>
</trkpt>
<trkpt lat="55.892887" lon="26.533186">
<ele>108.106506</ele>
<time>2010-07-17T07:46:07Z</time>
<desc>lat.=55.892887, lon.=26.533186, Alt.=108.106506m. Speed=15.876000m/h.</desc>
<speed>4.410000</speed>
</trkpt>
<trkpt lat="55.892876" lon="26.533131">
<ele>106.835022</ele>
<time>2010-07-17T07:46:08Z</time>
<desc>lat.=55.892876, lon.=26.533131, Alt.=106.835022m. Speed=16.775999m/h.</desc>
<speed>4.660000</speed>
</trkpt>
<trkpt lat="55.892872" lon="26.533072">
<ele>105.663147</ele>
<time>2010-07-17T07:46:09Z</time>
<desc>lat.=55.892872, lon.=26.533072, Alt.=105.663147m. Speed=15.552000m/h.</desc>
<speed>4.320000</speed>
</trkpt>
<trkpt lat="55.892879" lon="26.533005">
<ele>105.057678</ele>
<time>2010-07-17T07:46:10Z</time>
<desc>lat.=55.892879, lon.=26.533005, Alt.=105.057678m. Speed=14.904000m/h.</desc>
<speed>4.140000</speed>
</trkpt>
<trkpt lat="55.892899" lon="26.532934">
<ele>104.729553</ele>
<time>2010-07-17T07:46:11Z</time>
<desc>lat.=55.892899, lon.=26.532934, Alt.=104.729553m. Speed=17.568001m/h.</desc>
<speed>4.880000</speed>
</trkpt>
<trkpt lat="55.892925" lon="26.532856">
<ele>104.467834</ele>
<time>2010-07-17T07:46:12Z</time>
<desc>lat.=55.892925, lon.=26.532856, Alt.=104.467834m. Speed=20.160000m/h.</desc>
<speed>5.600000</speed>
</trkpt>
<trkpt lat="55.892960" lon="26.532785">
<ele>103.594788</ele>
<time>2010-07-17T07:46:13Z</time>
<desc>lat.=55.892960, lon.=26.532785, Alt.=103.594788m. Speed=21.024000m/h.</desc>
<speed>5.840000</speed>
</trkpt>
<trkpt lat="55.893013" lon="26.532719">
<ele>103.409241</ele>
<time>2010-07-17T07:46:14Z</time>
<desc>lat.=55.893013, lon.=26.532719, Alt.=103.409241m. Speed=23.292000m/h.</desc>
<speed>6.470000</speed>
</trkpt>
<trkpt lat="55.893047" lon="26.532629">
<ele>102.874084</ele>
<time>2010-07-17T07:46:15Z</time>
<desc>lat.=55.893047, lon.=26.532629, Alt.=102.874084m. Speed=23.832001m/h.</desc>
<speed>6.620000</speed>
</trkpt>
<trkpt lat="55.893074" lon="26.532516">
<ele>102.663147</ele>
<time>2010-07-17T07:46:16Z</time>
<desc>lat.=55.893074, lon.=26.532516, Alt.=102.663147m. Speed=25.308001m/h.</desc>
<speed>7.030000</speed>
</trkpt>
<trkpt lat="55.893101" lon="26.532408">
<ele>102.010803</ele>
<time>2010-07-17T07:46:17Z</time>
<desc>lat.=55.893101, lon.=26.532408, Alt.=102.010803m. Speed=24.264000m/h.</desc>
<speed>6.740000</speed>
</trkpt>
<trkpt lat="55.893135" lon="26.532314">
<ele>101.706116</ele>
<time>2010-07-17T07:46:18Z</time>
<desc>lat.=55.893135, lon.=26.532314, Alt.=101.706116m. Speed=23.436001m/h.</desc>
<speed>6.510000</speed>
</trkpt>
<trkpt lat="55.893173" lon="26.532232">
<ele>101.461975</ele>
<time>2010-07-17T07:46:19Z</time>
<desc>lat.=55.893173, lon.=26.532232, Alt.=101.461975m. Speed=22.896000m/h.</desc>
<speed>6.360000</speed>
</trkpt>
<trkpt lat="55.893200" lon="26.532131">
<ele>101.124084</ele>
<time>2010-07-17T07:46:20Z</time>
<desc>lat.=55.893200, lon.=26.532131, Alt.=101.124084m. Speed=23.832001m/h.</desc>
<speed>6.620000</speed>
</trkpt>
<trkpt lat="55.893230" lon="26.532036">
<ele>100.506897</ele>
<time>2010-07-17T07:46:21Z</time>
<desc>lat.=55.893230, lon.=26.532036, Alt.=100.506897m. Speed=23.327999m/h.</desc>
<speed>6.480000</speed>
</trkpt>
<trkpt lat="55.893269" lon="26.531942">
<ele>100.254944</ele>
<time>2010-07-17T07:46:22Z</time>
<desc>lat.=55.893269, lon.=26.531942, Alt.=100.254944m. Speed=24.011999m/h.</desc>
<speed>6.670000</speed>
</trkpt>
<trkpt lat="55.893295" lon="26.531836">
<ele>100.047913</ele>
<time>2010-07-17T07:46:23Z</time>
<desc>lat.=55.893295, lon.=26.531836, Alt.=100.047913m. Speed=25.308001m/h.</desc>
<speed>7.030000</speed>
</trkpt>
<trkpt lat="55.893330" lon="26.531693">
<ele>100.813538</ele>
<time>2010-07-17T07:46:24Z</time>
<desc>lat.=55.893330, lon.=26.531693, Alt.=100.813538m. Speed=25.271999m/h.</desc>
<speed>7.020000</speed>
</trkpt>
<trkpt lat="55.893372" lon="26.531595">
<ele>100.172913</ele>
<time>2010-07-17T07:46:25Z</time>
<desc>lat.=55.893372, lon.=26.531595, Alt.=100.172913m. Speed=24.948000m/h.</desc>
<speed>6.930000</speed>
</trkpt>
<trkpt lat="55.893417" lon="26.531511">
<ele>99.409241</ele>
<time>2010-07-17T07:46:26Z</time>
<desc>lat.=55.893417, lon.=26.531511, Alt.=99.409241m. Speed=24.408001m/h.</desc>
<speed>6.780000</speed>
</trkpt>
<trkpt lat="55.893459" lon="26.531427">
<ele>99.885803</ele>
<time>2010-07-17T07:46:27Z</time>
<desc>lat.=55.893459, lon.=26.531427, Alt.=99.885803m. Speed=24.804001m/h.</desc>
<speed>6.890000</speed>
</trkpt>
<trkpt lat="55.893501" lon="26.531336">
<ele>99.602600</ele>
<time>2010-07-17T07:46:28Z</time>
<desc>lat.=55.893501, lon.=26.531336, Alt.=99.602600m. Speed=23.940001m/h.</desc>
<speed>6.650000</speed>
</trkpt>
<trkpt lat="55.893543" lon="26.531256">
<ele>99.309631</ele>
<time>2010-07-17T07:46:29Z</time>
<desc>lat.=55.893543, lon.=26.531256, Alt.=99.309631m. Speed=23.184000m/h.</desc>
<speed>6.440000</speed>
</trkpt>
<trkpt lat="55.893585" lon="26.531185">
<ele>99.042053</ele>
<time>2010-07-17T07:46:30Z</time>
<desc>lat.=55.893585, lon.=26.531185, Alt.=99.042053m. Speed=22.104000m/h.</desc>
<speed>6.140000</speed>
</trkpt>
<trkpt lat="55.893623" lon="26.531109">
<ele>98.942444</ele>
<time>2010-07-17T07:46:31Z</time>
<desc>lat.=55.893623, lon.=26.531109, Alt.=98.942444m. Speed=21.132000m/h.</desc>
<speed>5.870000</speed>
</trkpt>
<trkpt lat="55.893661" lon="26.531040">
<ele>99.276428</ele>
<time>2010-07-17T07:46:32Z</time>
<desc>lat.=55.893661, lon.=26.531040, Alt.=99.276428m. Speed=20.375999m/h.</desc>
<speed>5.660000</speed>
</trkpt>
<trkpt lat="55.893692" lon="26.530970">
<ele>99.495178</ele>
<time>2010-07-17T07:46:33Z</time>
<desc>lat.=55.893692, lon.=26.530970, Alt.=99.495178m. Speed=18.323999m/h.</desc>
<speed>5.090000</speed>
</trkpt>
<trkpt lat="55.893719" lon="26.530895">
<ele>98.883850</ele>
<time>2010-07-17T07:46:34Z</time>
<desc>lat.=55.893719, lon.=26.530895, Alt.=98.883850m. Speed=17.351999m/h.</desc>
<speed>4.820000</speed>
</trkpt>
<trkpt lat="55.893742" lon="26.530821">
<ele>98.760803</ele>
<time>2010-07-17T07:46:35Z</time>
<desc>lat.=55.893742, lon.=26.530821, Alt.=98.760803m. Speed=17.712000m/h.</desc>
<speed>4.920000</speed>
</trkpt>
<trkpt lat="55.893761" lon="26.530746">
<ele>99.008850</ele>
<time>2010-07-17T07:46:36Z</time>
<desc>lat.=55.893761, lon.=26.530746, Alt.=99.008850m. Speed=18.936001m/h.</desc>
<speed>5.260000</speed>
</trkpt>
<trkpt lat="55.893784" lon="26.530672">
<ele>99.354553</ele>
<time>2010-07-17T07:46:37Z</time>
<desc>lat.=55.893784, lon.=26.530672, Alt.=99.354553m. Speed=19.584000m/h.</desc>
<speed>5.440000</speed>
</trkpt>
<trkpt lat="55.893803" lon="26.530598">
<ele>99.610413</ele>
<time>2010-07-17T07:46:38Z</time>
<desc>lat.=55.893803, lon.=26.530598, Alt.=99.610413m. Speed=17.604000m/h.</desc>
<speed>4.890000</speed>
</trkpt>
<trkpt lat="55.893818" lon="26.530539">
<ele>100.862366</ele>
<time>2010-07-17T07:46:39Z</time>
<desc>lat.=55.893818, lon.=26.530539, Alt.=100.862366m. Speed=17.568001m/h.</desc>
<speed>4.880000</speed>
</trkpt>
<trkpt lat="55.893845" lon="26.530474">
<ele>100.485413</ele>
<time>2010-07-17T07:46:40Z</time>
<desc>lat.=55.893845, lon.=26.530474, Alt.=100.485413m. Speed=15.876000m/h.</desc>
<speed>4.410000</speed>
</trkpt>
<trkpt lat="55.893875" lon="26.530432">
<ele>99.874084</ele>
<time>2010-07-17T07:46:41Z</time>
<desc>lat.=55.893875, lon.=26.530432, Alt.=99.874084m. Speed=15.516000m/h.</desc>
<speed>4.310000</speed>
</trkpt>
<trkpt lat="55.893906" lon="26.530403">
<ele>100.067444</ele>
<time>2010-07-17T07:46:42Z</time>
<desc>lat.=55.893906, lon.=26.530403, Alt.=100.067444m. Speed=13.968000m/h.</desc>
<speed>3.880000</speed>
</trkpt>
<trkpt lat="55.893932" lon="26.530369">
<ele>100.409241</ele>
<time>2010-07-17T07:46:43Z</time>
<desc>lat.=55.893932, lon.=26.530369, Alt.=100.409241m. Speed=12.240000m/h.</desc>
<speed>3.400000</speed>
</trkpt>
<trkpt lat="55.893948" lon="26.530329">
<ele>101.280334</ele>
<time>2010-07-17T07:46:44Z</time>
<desc>lat.=55.893948, lon.=26.530329, Alt.=101.280334m. Speed=10.476000m/h.</desc>
<speed>2.910000</speed>
</trkpt>
<trkpt lat="55.893963" lon="26.530291">
<ele>101.502991</ele>
<time>2010-07-17T07:46:45Z</time>
<desc>lat.=55.893963, lon.=26.530291, Alt.=101.502991m. Speed=10.188000m/h.</desc>
<speed>2.830000</speed>
</trkpt>
<trkpt lat="55.893978" lon="26.530252">
<ele>102.282288</ele>
<time>2010-07-17T07:46:46Z</time>
<desc>lat.=55.893978, lon.=26.530252, Alt.=102.282288m. Speed=10.152000m/h.</desc>
<speed>2.820000</speed>
</trkpt>
<trkpt lat="55.893990" lon="26.530209">
<ele>102.682678</ele>
<time>2010-07-17T07:46:47Z</time>
<desc>lat.=55.893990, lon.=26.530209, Alt.=102.682678m. Speed=9.108000m/h.</desc>
<speed>2.530000</speed>
</trkpt>
<trkpt lat="55.894001" lon="26.530161">
<ele>103.057678</ele>
<time>2010-07-17T07:46:48Z</time>
<desc>lat.=55.894001, lon.=26.530161, Alt.=103.057678m. Speed=11.088000m/h.</desc>
<speed>3.080000</speed>
</trkpt>
<trkpt lat="55.894024" lon="26.530107">
<ele>103.420959</ele>
<time>2010-07-17T07:46:49Z</time>
<desc>lat.=55.894024, lon.=26.530107, Alt.=103.420959m. Speed=16.452000m/h.</desc>
<speed>4.570000</speed>
</trkpt>
<trkpt lat="55.894051" lon="26.530035">
<ele>104.024475</ele>
<time>2010-07-17T07:46:50Z</time>
<desc>lat.=55.894051, lon.=26.530035, Alt.=104.024475m. Speed=19.080000m/h.</desc>
<speed>5.300000</speed>
</trkpt>
<trkpt lat="55.894081" lon="26.529949">
<ele>104.135803</ele>
<time>2010-07-17T07:46:51Z</time>
<desc>lat.=55.894081, lon.=26.529949, Alt.=104.135803m. Speed=21.132000m/h.</desc>
<speed>5.870000</speed>
</trkpt>
<trkpt lat="55.894108" lon="26.529861">
<ele>103.858459</ele>
<time>2010-07-17T07:46:52Z</time>
<desc>lat.=55.894108, lon.=26.529861, Alt.=103.858459m. Speed=21.096001m/h.</desc>
<speed>5.860000</speed>
</trkpt>
<trkpt lat="55.894142" lon="26.529785">
<ele>104.001038</ele>
<time>2010-07-17T07:46:53Z</time>
<desc>lat.=55.894142, lon.=26.529785, Alt.=104.001038m. Speed=20.988001m/h.</desc>
<speed>5.830000</speed>
</trkpt>
<trkpt lat="55.894176" lon="26.529711">
<ele>104.176819</ele>
<time>2010-07-17T07:46:54Z</time>
<desc>lat.=55.894176, lon.=26.529711, Alt.=104.176819m. Speed=20.375999m/h.</desc>
<speed>5.660000</speed>
</trkpt>
<trkpt lat="55.894211" lon="26.529640">
<ele>104.647522</ele>
<time>2010-07-17T07:46:55Z</time>
<desc>lat.=55.894211, lon.=26.529640, Alt.=104.647522m. Speed=20.195999m/h.</desc>
<speed>5.610000</speed>
</trkpt>
<trkpt lat="55.894245" lon="26.529570">
<ele>104.483459</ele>
<time>2010-07-17T07:46:56Z</time>
<desc>lat.=55.894245, lon.=26.529570, Alt.=104.483459m. Speed=19.368000m/h.</desc>
<speed>5.380000</speed>
</trkpt>
<trkpt lat="55.894276" lon="26.529503">
<ele>103.842834</ele>
<time>2010-07-17T07:46:57Z</time>
<desc>lat.=55.894276, lon.=26.529503, Alt.=103.842834m. Speed=17.063999m/h.</desc>
<speed>4.740000</speed>
</trkpt>
<trkpt lat="55.894299" lon="26.529436">
<ele>102.954163</ele>
<time>2010-07-17T07:46:58Z</time>
<desc>lat.=55.894299, lon.=26.529436, Alt.=102.954163m. Speed=14.148000m/h.</desc>
<speed>3.930000</speed>
</trkpt>
<trkpt lat="55.894325" lon="26.529381">
<ele>102.350647</ele>
<time>2010-07-17T07:46:59Z</time>
<desc>lat.=55.894325, lon.=26.529381, Alt.=102.350647m. Speed=14.148000m/h.</desc>
<speed>3.930000</speed>
</trkpt>
<trkpt lat="55.894344" lon="26.529316">
<ele>101.997131</ele>
<time>2010-07-17T07:47:00Z</time>
<desc>lat.=55.894344, lon.=26.529316, Alt.=101.997131m. Speed=13.716000m/h.</desc>
<speed>3.810000</speed>
</trkpt>
<trkpt lat="55.894356" lon="26.529230">
<ele>102.745178</ele>
<time>2010-07-17T07:47:01Z</time>
<desc>lat.=55.894356, lon.=26.529230, Alt.=102.745178m. Speed=14.868000m/h.</desc>
<speed>4.130000</speed>
</trkpt>
<trkpt lat="55.894356" lon="26.529148">
<ele>102.256897</ele>
<time>2010-07-17T07:47:02Z</time>
<desc>lat.=55.894356, lon.=26.529148, Alt.=102.256897m. Speed=15.840000m/h.</desc>
<speed>4.400000</speed>
</trkpt>
<trkpt lat="55.894337" lon="26.529085">
<ele>102.002991</ele>
<time>2010-07-17T07:47:03Z</time>
<desc>lat.=55.894337, lon.=26.529085, Alt.=102.002991m. Speed=15.480000m/h.</desc>
<speed>4.300000</speed>
</trkpt>
<trkpt lat="55.894318" lon="26.529020">
<ele>102.434631</ele>
<time>2010-07-17T07:47:04Z</time>
<desc>lat.=55.894318, lon.=26.529020, Alt.=102.434631m. Speed=15.300000m/h.</desc>
<speed>4.250000</speed>
</trkpt>
<trkpt lat="55.894279" lon="26.528954">
<ele>102.321350</ele>
<time>2010-07-17T07:47:05Z</time>
<desc>lat.=55.894279, lon.=26.528954, Alt.=102.321350m. Speed=18.288000m/h.</desc>
<speed>5.080000</speed>
</trkpt>
<trkpt lat="55.894238" lon="26.528883">
<ele>102.102600</ele>
<time>2010-07-17T07:47:06Z</time>
<desc>lat.=55.894238, lon.=26.528883, Alt.=102.102600m. Speed=19.080000m/h.</desc>
<speed>5.300000</speed>
</trkpt>
<trkpt lat="55.894196" lon="26.528831">
<ele>102.751038</ele>
<time>2010-07-17T07:47:07Z</time>
<desc>lat.=55.894196, lon.=26.528831, Alt.=102.751038m. Speed=16.775999m/h.</desc>
<speed>4.660000</speed>
</trkpt>
<trkpt lat="55.894154" lon="26.528778">
<ele>102.971741</ele>
<time>2010-07-17T07:47:08Z</time>
<desc>lat.=55.894154, lon.=26.528778, Alt.=102.971741m. Speed=20.087999m/h.</desc>
<speed>5.580000</speed>
</trkpt>
<trkpt lat="55.894112" lon="26.528725">
<ele>103.049866</ele>
<time>2010-07-17T07:47:09Z</time>
<desc>lat.=55.894112, lon.=26.528725, Alt.=103.049866m. Speed=19.440001m/h.</desc>
<speed>5.400000</speed>
</trkpt>
<trkpt lat="55.894058" lon="26.528662">
<ele>102.532288</ele>
<time>2010-07-17T07:47:10Z</time>
<desc>lat.=55.894058, lon.=26.528662, Alt.=102.532288m. Speed=24.336000m/h.</desc>
<speed>6.760000</speed>
</trkpt>
<trkpt lat="55.894009" lon="26.528597">
<ele>102.235413</ele>
<time>2010-07-17T07:47:11Z</time>
<desc>lat.=55.894009, lon.=26.528597, Alt.=102.235413m. Speed=22.535999m/h.</desc>
<speed>6.260000</speed>
</trkpt>
<trkpt lat="55.893959" lon="26.528524">
<ele>101.411194</ele>
<time>2010-07-17T07:47:12Z</time>
<desc>lat.=55.893959, lon.=26.528524, Alt.=101.411194m. Speed=22.284000m/h.</desc>
<speed>6.190000</speed>
</trkpt>
<trkpt lat="55.893917" lon="26.528458">
<ele>100.960022</ele>
<time>2010-07-17T07:47:13Z</time>
<desc>lat.=55.893917, lon.=26.528458, Alt.=100.960022m. Speed=20.771999m/h.</desc>
<speed>5.770000</speed>
</trkpt>
<trkpt lat="55.893867" lon="26.528395">
<ele>100.188538</ele>
<time>2010-07-17T07:47:14Z</time>
<desc>lat.=55.893867, lon.=26.528395, Alt.=100.188538m. Speed=22.104000m/h.</desc>
<speed>6.140000</speed>
</trkpt>
<trkpt lat="55.893822" lon="26.528337">
<ele>99.831116</ele>
<time>2010-07-17T07:47:15Z</time>
<desc>lat.=55.893822, lon.=26.528337, Alt.=99.831116m. Speed=20.952000m/h.</desc>
<speed>5.820000</speed>
</trkpt>
<trkpt lat="55.893776" lon="26.528278">
<ele>99.256897</ele>
<time>2010-07-17T07:47:16Z</time>
<desc>lat.=55.893776, lon.=26.528278, Alt.=99.256897m. Speed=21.132000m/h.</desc>
<speed>5.870000</speed>
</trkpt>
<trkpt lat="55.893738" lon="26.528217">
<ele>98.608459</ele>
<time>2010-07-17T07:47:17Z</time>
<desc>lat.=55.893738, lon.=26.528217, Alt.=98.608459m. Speed=18.431999m/h.</desc>
<speed>5.120000</speed>
</trkpt>
<trkpt lat="55.893707" lon="26.528162">
<ele>98.354553</ele>
<time>2010-07-17T07:47:18Z</time>
<desc>lat.=55.893707, lon.=26.528162, Alt.=98.354553m. Speed=18.936001m/h.</desc>
<speed>5.260000</speed>
</trkpt>
<trkpt lat="55.893646" lon="26.528103">
<ele>97.741272</ele>
<time>2010-07-17T07:47:19Z</time>
<desc>lat.=55.893646, lon.=26.528103, Alt.=97.741272m. Speed=22.212000m/h.</desc>
<speed>6.170000</speed>
</trkpt>
<trkpt lat="55.893593" lon="26.528044">
<ele>97.338928</ele>
<time>2010-07-17T07:47:20Z</time>
<desc>lat.=55.893593, lon.=26.528044, Alt.=97.338928m. Speed=22.284000m/h.</desc>
<speed>6.190000</speed>
</trkpt>
<trkpt lat="55.893547" lon="26.527975">
<ele>96.991272</ele>
<time>2010-07-17T07:47:21Z</time>
<desc>lat.=55.893547, lon.=26.527975, Alt.=96.991272m. Speed=23.436001m/h.</desc>
<speed>6.510000</speed>
</trkpt>
<trkpt lat="55.893494" lon="26.527906">
<ele>96.637756</ele>
<time>2010-07-17T07:47:22Z</time>
<desc>lat.=55.893494, lon.=26.527906, Alt.=96.637756m. Speed=24.228001m/h.</desc>
<speed>6.730000</speed>
</trkpt>
<trkpt lat="55.893433" lon="26.527834">
<ele>97.358459</ele>
<time>2010-07-17T07:47:23Z</time>
<desc>lat.=55.893433, lon.=26.527834, Alt.=97.358459m. Speed=24.011999m/h.</desc>
<speed>6.670000</speed>
</trkpt>
<trkpt lat="55.893387" lon="26.527771">
<ele>97.827209</ele>
<time>2010-07-17T07:47:24Z</time>
<desc>lat.=55.893387, lon.=26.527771, Alt.=97.827209m. Speed=23.796000m/h.</desc>
<speed>6.610000</speed>
</trkpt>
<trkpt lat="55.893337" lon="26.527714">
<ele>97.710022</ele>
<time>2010-07-17T07:47:25Z</time>
<desc>lat.=55.893337, lon.=26.527714, Alt.=97.710022m. Speed=24.587999m/h.</desc>
<speed>6.830000</speed>
</trkpt>
<trkpt lat="55.893280" lon="26.527653">
<ele>97.963928</ele>
<time>2010-07-17T07:47:26Z</time>
<desc>lat.=55.893280, lon.=26.527653, Alt.=97.963928m. Speed=23.903999m/h.</desc>
<speed>6.640000</speed>
</trkpt>
<trkpt lat="55.893234" lon="26.527590">
<ele>98.063538</ele>
<time>2010-07-17T07:47:27Z</time>
<desc>lat.=55.893234, lon.=26.527590, Alt.=98.063538m. Speed=23.652000m/h.</desc>
<speed>6.570000</speed>
</trkpt>
<trkpt lat="55.893188" lon="26.527521">
<ele>97.694397</ele>
<time>2010-07-17T07:47:28Z</time>
<desc>lat.=55.893188, lon.=26.527521, Alt.=97.694397m. Speed=22.068001m/h.</desc>
<speed>6.130000</speed>
</trkpt>
<trkpt lat="55.893143" lon="26.527462">
<ele>98.172913</ele>
<time>2010-07-17T07:47:29Z</time>
<desc>lat.=55.893143, lon.=26.527462, Alt.=98.172913m. Speed=20.844000m/h.</desc>
<speed>5.790000</speed>
</trkpt>
<trkpt lat="55.893101" lon="26.527393">
<ele>101.606506</ele>
<time>2010-07-17T07:47:30Z</time>
<desc>lat.=55.893101, lon.=26.527393, Alt.=101.606506m. Speed=20.124001m/h.</desc>
<speed>5.590000</speed>
</trkpt>
<trkpt lat="55.893059" lon="26.527330">
<ele>100.686584</ele>
<time>2010-07-17T07:47:31Z</time>
<desc>lat.=55.893059, lon.=26.527330, Alt.=100.686584m. Speed=20.771999m/h.</desc>
<speed>5.770000</speed>
</trkpt>
<trkpt lat="55.893021" lon="26.527269">
<ele>101.385803</ele>
<time>2010-07-17T07:47:32Z</time>
<desc>lat.=55.893021, lon.=26.527269, Alt.=101.385803m. Speed=20.448000m/h.</desc>
<speed>5.680000</speed>
</trkpt>
<trkpt lat="55.892979" lon="26.527214">
<ele>101.233459</ele>
<time>2010-07-17T07:47:33Z</time>
<desc>lat.=55.892979, lon.=26.527214, Alt.=101.233459m. Speed=19.799999m/h.</desc>
<speed>5.500000</speed>
</trkpt>
<trkpt lat="55.892937" lon="26.527161">
<ele>100.844788</ele>
<time>2010-07-17T07:47:34Z</time>
<desc>lat.=55.892937, lon.=26.527161, Alt.=100.844788m. Speed=20.268000m/h.</desc>
<speed>5.630000</speed>
</trkpt>
<trkpt lat="55.892891" lon="26.527105">
<ele>100.553772</ele>
<time>2010-07-17T07:47:35Z</time>
<desc>lat.=55.892891, lon.=26.527105, Alt.=100.553772m. Speed=21.959999m/h.</desc>
<speed>6.100000</speed>
</trkpt>
<trkpt lat="55.892830" lon="26.527035">
<ele>99.948303</ele>
<time>2010-07-17T07:47:36Z</time>
<desc>lat.=55.892830, lon.=26.527035, Alt.=99.948303m. Speed=25.056000m/h.</desc>
<speed>6.960000</speed>
</trkpt>
<trkpt lat="55.892776" lon="26.526974">
<ele>99.506897</ele>
<time>2010-07-17T07:47:37Z</time>
<desc>lat.=55.892776, lon.=26.526974, Alt.=99.506897m. Speed=24.660000m/h.</desc>
<speed>6.850000</speed>
</trkpt>
<trkpt lat="55.892727" lon="26.526909">
<ele>98.963928</ele>
<time>2010-07-17T07:47:38Z</time>
<desc>lat.=55.892727, lon.=26.526909, Alt.=98.963928m. Speed=25.164000m/h.</desc>
<speed>6.990000</speed>
</trkpt>
<trkpt lat="55.892673" lon="26.526852">
<ele>98.606506</ele>
<time>2010-07-17T07:47:39Z</time>
<desc>lat.=55.892673, lon.=26.526852, Alt.=98.606506m. Speed=25.091999m/h.</desc>
<speed>6.970000</speed>
</trkpt>
<trkpt lat="55.892616" lon="26.526802">
<ele>98.374084</ele>
<time>2010-07-17T07:47:40Z</time>
<desc>lat.=55.892616, lon.=26.526802, Alt.=98.374084m. Speed=24.048000m/h.</desc>
<speed>6.680000</speed>
</trkpt>
<trkpt lat="55.892563" lon="26.526752">
<ele>97.997131</ele>
<time>2010-07-17T07:47:41Z</time>
<desc>lat.=55.892563, lon.=26.526752, Alt.=97.997131m. Speed=23.472000m/h.</desc>
<speed>6.520000</speed>
</trkpt>
<trkpt lat="55.892506" lon="26.526709">
<ele>97.727600</ele>
<time>2010-07-17T07:47:42Z</time>
<desc>lat.=55.892506, lon.=26.526709, Alt.=97.727600m. Speed=22.968000m/h.</desc>
<speed>6.380000</speed>
</trkpt>
<trkpt lat="55.892456" lon="26.526678">
<ele>97.524475</ele>
<time>2010-07-17T07:47:43Z</time>
<desc>lat.=55.892456, lon.=26.526678, Alt.=97.524475m. Speed=22.680000m/h.</desc>
<speed>6.300000</speed>
</trkpt>
<trkpt lat="55.892399" lon="26.526657">
<ele>97.506897</ele>
<time>2010-07-17T07:47:44Z</time>
<desc>lat.=55.892399, lon.=26.526657, Alt.=97.506897m. Speed=24.552000m/h.</desc>
<speed>6.820000</speed>
</trkpt>
<trkpt lat="55.892334" lon="26.526651">
<ele>97.581116</ele>
<time>2010-07-17T07:47:45Z</time>
<desc>lat.=55.892334, lon.=26.526651, Alt.=97.581116m. Speed=24.191999m/h.</desc>
<speed>6.720000</speed>
</trkpt>
<trkpt lat="55.892273" lon="26.526649">
<ele>97.649475</ele>
<time>2010-07-17T07:47:46Z</time>
<desc>lat.=55.892273, lon.=26.526649, Alt.=97.649475m. Speed=21.816000m/h.</desc>
<speed>6.060000</speed>
</trkpt>
<trkpt lat="55.892220" lon="26.526655">
<ele>97.460022</ele>
<time>2010-07-17T07:47:47Z</time>
<desc>lat.=55.892220, lon.=26.526655, Alt.=97.460022m. Speed=21.708000m/h.</desc>
<speed>6.030000</speed>
</trkpt>
<trkpt lat="55.892166" lon="26.526669">
<ele>97.405334</ele>
<time>2010-07-17T07:47:48Z</time>
<desc>lat.=55.892166, lon.=26.526669, Alt.=97.405334m. Speed=21.312000m/h.</desc>
<speed>5.920000</speed>
</trkpt>
<trkpt lat="55.892109" lon="26.526707">
<ele>97.301819</ele>
<time>2010-07-17T07:47:49Z</time>
<desc>lat.=55.892109, lon.=26.526707, Alt.=97.301819m. Speed=21.816000m/h.</desc>
<speed>6.060000</speed>
</trkpt>
<trkpt lat="55.892052" lon="26.526731">
<ele>97.274475</ele>
<time>2010-07-17T07:47:50Z</time>
<desc>lat.=55.892052, lon.=26.526731, Alt.=97.274475m. Speed=22.427999m/h.</desc>
<speed>6.230000</speed>
</trkpt>
<trkpt lat="55.891994" lon="26.526752">
<ele>97.219788</ele>
<time>2010-07-17T07:47:51Z</time>
<desc>lat.=55.891994, lon.=26.526752, Alt.=97.219788m. Speed=22.139999m/h.</desc>
<speed>6.150000</speed>
</trkpt>
<trkpt lat="55.891941" lon="26.526772">
<ele>97.094788</ele>
<time>2010-07-17T07:47:52Z</time>
<desc>lat.=55.891941, lon.=26.526772, Alt.=97.094788m. Speed=21.851999m/h.</desc>
<speed>6.070000</speed>
</trkpt>
<trkpt lat="55.891880" lon="26.526787">
<ele>97.055725</ele>
<time>2010-07-17T07:47:53Z</time>
<desc>lat.=55.891880, lon.=26.526787, Alt.=97.055725m. Speed=21.492001m/h.</desc>
<speed>5.970000</speed>
</trkpt>
<trkpt lat="55.891819" lon="26.526810">
<ele>97.118225</ele>
<time>2010-07-17T07:47:54Z</time>
<desc>lat.=55.891819, lon.=26.526810, Alt.=97.118225m. Speed=22.500000m/h.</desc>
<speed>6.250000</speed>
</trkpt>
<trkpt lat="55.891766" lon="26.526825">
<ele>96.879944</ele>
<time>2010-07-17T07:47:55Z</time>
<desc>lat.=55.891766, lon.=26.526825, Alt.=96.879944m. Speed=22.427999m/h.</desc>
<speed>6.230000</speed>
</trkpt>
<trkpt lat="55.891701" lon="26.526829">
<ele>96.627991</ele>
<time>2010-07-17T07:47:56Z</time>
<desc>lat.=55.891701, lon.=26.526829, Alt.=96.627991m. Speed=22.500000m/h.</desc>
<speed>6.250000</speed>
</trkpt>
<trkpt lat="55.891644" lon="26.526833">
<ele>96.567444</ele>
<time>2010-07-17T07:47:57Z</time>
<desc>lat.=55.891644, lon.=26.526833, Alt.=96.567444m. Speed=24.444000m/h.</desc>
<speed>6.790000</speed>
</trkpt>
<trkpt lat="55.891582" lon="26.526838">
<ele>96.600647</ele>
<time>2010-07-17T07:47:58Z</time>
<desc>lat.=55.891582, lon.=26.526838, Alt.=96.600647m. Speed=24.912001m/h.</desc>
<speed>6.920000</speed>
</trkpt>
<trkpt lat="55.891525" lon="26.526844">
<ele>96.586975</ele>
<time>2010-07-17T07:47:59Z</time>
<desc>lat.=55.891525, lon.=26.526844, Alt.=96.586975m. Speed=26.639999m/h.</desc>
<speed>7.400000</speed>
</trkpt>
<trkpt lat="55.891460" lon="26.526840">
<ele>96.522522</ele>
<time>2010-07-17T07:48:00Z</time>
<desc>lat.=55.891460, lon.=26.526840, Alt.=96.522522m. Speed=24.804001m/h.</desc>
<speed>6.890000</speed>
</trkpt>
<trkpt lat="55.891403" lon="26.526838">
<ele>96.440491</ele>
<time>2010-07-17T07:48:01Z</time>
<desc>lat.=55.891403, lon.=26.526838, Alt.=96.440491m. Speed=22.860001m/h.</desc>
<speed>6.350000</speed>
</trkpt>
<trkpt lat="55.891350" lon="26.526836">
<ele>96.366272</ele>
<time>2010-07-17T07:48:02Z</time>
<desc>lat.=55.891350, lon.=26.526836, Alt.=96.366272m. Speed=22.427999m/h.</desc>
<speed>6.230000</speed>
</trkpt>
<trkpt lat="55.891293" lon="26.526836">
<ele>96.190491</ele>
<time>2010-07-17T07:48:03Z</time>
<desc>lat.=55.891293, lon.=26.526836, Alt.=96.190491m. Speed=22.500000m/h.</desc>
<speed>6.250000</speed>
</trkpt>
<trkpt lat="55.891235" lon="26.526842">
<ele>96.053772</ele>
<time>2010-07-17T07:48:04Z</time>
<desc>lat.=55.891235, lon.=26.526842, Alt.=96.053772m. Speed=21.888000m/h.</desc>
<speed>6.080000</speed>
</trkpt>
<trkpt lat="55.891190" lon="26.526855">
<ele>96.063538</ele>
<time>2010-07-17T07:48:05Z</time>
<desc>lat.=55.891190, lon.=26.526855, Alt.=96.063538m. Speed=17.136000m/h.</desc>
<speed>4.760000</speed>
</trkpt>
<trkpt lat="55.891144" lon="26.526871">
<ele>95.983459</ele>
<time>2010-07-17T07:48:06Z</time>
<desc>lat.=55.891144, lon.=26.526871, Alt.=95.983459m. Speed=17.568001m/h.</desc>
<speed>4.880000</speed>
</trkpt>
<trkpt lat="55.891090" lon="26.526905">
<ele>96.147522</ele>
<time>2010-07-17T07:48:07Z</time>
<desc>lat.=55.891090, lon.=26.526905, Alt.=96.147522m. Speed=19.080000m/h.</desc>
<speed>5.300000</speed>
</trkpt>
<trkpt lat="55.891037" lon="26.526913">
<ele>96.057678</ele>
<time>2010-07-17T07:48:08Z</time>
<desc>lat.=55.891037, lon.=26.526913, Alt.=96.057678m. Speed=20.304001m/h.</desc>
<speed>5.640000</speed>
</trkpt>
<trkpt lat="55.890984" lon="26.526920">
<ele>95.825256</ele>
<time>2010-07-17T07:48:09Z</time>
<desc>lat.=55.890984, lon.=26.526920, Alt.=95.825256m. Speed=20.916000m/h.</desc>
<speed>5.810000</speed>
</trkpt>
<trkpt lat="55.890926" lon="26.526928">
<ele>95.729553</ele>
<time>2010-07-17T07:48:10Z</time>
<desc>lat.=55.890926, lon.=26.526928, Alt.=95.729553m. Speed=21.563999m/h.</desc>
<speed>5.990000</speed>
</trkpt>
<trkpt lat="55.890869" lon="26.526936">
<ele>95.772522</ele>
<time>2010-07-17T07:48:11Z</time>
<desc>lat.=55.890869, lon.=26.526936, Alt.=95.772522m. Speed=21.240000m/h.</desc>
<speed>5.900000</speed>
</trkpt>
<trkpt lat="55.890808" lon="26.526943">
<ele>95.739319</ele>
<time>2010-07-17T07:48:12Z</time>
<desc>lat.=55.890808, lon.=26.526943, Alt.=95.739319m. Speed=23.040001m/h.</desc>
<speed>6.400000</speed>
</trkpt>
<trkpt lat="55.890736" lon="26.526939">
<ele>95.676819</ele>
<time>2010-07-17T07:48:13Z</time>
<desc>lat.=55.890736, lon.=26.526939, Alt.=95.676819m. Speed=24.011999m/h.</desc>
<speed>6.670000</speed>
</trkpt>
<trkpt lat="55.890667" lon="26.526926">
<ele>95.573303</ele>
<time>2010-07-17T07:48:14Z</time>
<desc>lat.=55.890667, lon.=26.526926, Alt.=95.573303m. Speed=23.292000m/h.</desc>
<speed>6.470000</speed>
</trkpt>
<trkpt lat="55.890606" lon="26.526913">
<ele>95.471741</ele>
<time>2010-07-17T07:48:15Z</time>
<desc>lat.=55.890606, lon.=26.526913, Alt.=95.471741m. Speed=22.356001m/h.</desc>
<speed>6.210000</speed>
</trkpt>
<trkpt lat="55.890553" lon="26.526867">
<ele>96.428772</ele>
<time>2010-07-17T07:48:16Z</time>
<desc>lat.=55.890553, lon.=26.526867, Alt.=96.428772m. Speed=23.688000m/h.</desc>
<speed>6.580000</speed>
</trkpt>
<trkpt lat="55.890491" lon="26.526838">
<ele>96.950256</ele>
<time>2010-07-17T07:48:17Z</time>
<desc>lat.=55.890491, lon.=26.526838, Alt.=96.950256m. Speed=23.184000m/h.</desc>
<speed>6.440000</speed>
</trkpt>
<trkpt lat="55.890438" lon="26.526814">
<ele>97.600647</ele>
<time>2010-07-17T07:48:18Z</time>
<desc>lat.=55.890438, lon.=26.526814, Alt.=97.600647m. Speed=20.952000m/h.</desc>
<speed>5.820000</speed>
</trkpt>
<trkpt lat="55.890388" lon="26.526773">
<ele>97.881897</ele>
<time>2010-07-17T07:48:19Z</time>
<desc>lat.=55.890388, lon.=26.526773, Alt.=97.881897m. Speed=22.680000m/h.</desc>
<speed>6.300000</speed>
</trkpt>
<trkpt lat="55.890331" lon="26.526733">
<ele>98.258850</ele>
<time>2010-07-17T07:48:20Z</time>
<desc>lat.=55.890331, lon.=26.526733, Alt.=98.258850m. Speed=24.011999m/h.</desc>
<speed>6.670000</speed>
</trkpt>
<trkpt lat="55.890274" lon="26.526676">
<ele>98.210022</ele>
<time>2010-07-17T07:48:21Z</time>
<desc>lat.=55.890274, lon.=26.526676, Alt.=98.210022m. Speed=25.271999m/h.</desc>
<speed>7.020000</speed>
</trkpt>
<trkpt lat="55.890217" lon="26.526617">
<ele>98.069397</ele>
<time>2010-07-17T07:48:22Z</time>
<desc>lat.=55.890217, lon.=26.526617, Alt.=98.069397m. Speed=22.572001m/h.</desc>
<speed>6.270000</speed>
</trkpt>
<trkpt lat="55.890167" lon="26.526554">
<ele>97.827209</ele>
<time>2010-07-17T07:48:23Z</time>
<desc>lat.=55.890167, lon.=26.526554, Alt.=97.827209m. Speed=22.284000m/h.</desc>
<speed>6.190000</speed>
</trkpt>
<trkpt lat="55.890106" lon="26.526497">
<ele>97.499084</ele>
<time>2010-07-17T07:48:24Z</time>
<desc>lat.=55.890106, lon.=26.526497, Alt.=97.499084m. Speed=22.860001m/h.</desc>
<speed>6.350000</speed>
</trkpt>
<trkpt lat="55.890049" lon="26.526443">
<ele>97.501038</ele>
<time>2010-07-17T07:48:25Z</time>
<desc>lat.=55.890049, lon.=26.526443, Alt.=97.501038m. Speed=23.976000m/h.</desc>
<speed>6.660000</speed>
</trkpt>
<trkpt lat="55.890011" lon="26.526382">
<ele>97.627991</ele>
<time>2010-07-17T07:48:26Z</time>
<desc>lat.=55.890011, lon.=26.526382, Alt.=97.627991m. Speed=24.912001m/h.</desc>
<speed>6.920000</speed>
</trkpt>
<trkpt lat="55.889950" lon="26.526321">
<ele>97.506897</ele>
<time>2010-07-17T07:48:27Z</time>
<desc>lat.=55.889950, lon.=26.526321, Alt.=97.506897m. Speed=26.459999m/h.</desc>
<speed>7.350000</speed>
</trkpt>
<trkpt lat="55.889889" lon="26.526257">
<ele>98.842834</ele>
<time>2010-07-17T07:48:28Z</time>
<desc>lat.=55.889889, lon.=26.526257, Alt.=98.842834m. Speed=26.459999m/h.</desc>
<speed>7.350000</speed>
</trkpt>
<trkpt lat="55.889824" lon="26.526215">
<ele>98.899475</ele>
<time>2010-07-17T07:48:29Z</time>
<desc>lat.=55.889824, lon.=26.526215, Alt.=98.899475m. Speed=27.072001m/h.</desc>
<speed>7.520000</speed>
</trkpt>
<trkpt lat="55.889751" lon="26.526154">
<ele>98.614319</ele>
<time>2010-07-17T07:48:30Z</time>
<desc>lat.=55.889751, lon.=26.526154, Alt.=98.614319m. Speed=28.007999m/h.</desc>
<speed>7.780000</speed>
</trkpt>
<trkpt lat="55.889683" lon="26.526100">
<ele>98.963928</ele>
<time>2010-07-17T07:48:31Z</time>
<desc>lat.=55.889683, lon.=26.526100, Alt.=98.963928m. Speed=26.964001m/h.</desc>
<speed>7.490000</speed>
</trkpt>
<trkpt lat="55.889603" lon="26.526028">
<ele>98.817444</ele>
<time>2010-07-17T07:48:32Z</time>
<desc>lat.=55.889603, lon.=26.526028, Alt.=98.817444m. Speed=27.468000m/h.</desc>
<speed>7.630000</speed>
</trkpt>
<trkpt lat="55.889538" lon="26.525965">
<ele>99.034241</ele>
<time>2010-07-17T07:48:33Z</time>
<desc>lat.=55.889538, lon.=26.525965, Alt.=99.034241m. Speed=27.648001m/h.</desc>
<speed>7.680000</speed>
</trkpt>
<trkpt lat="55.889469" lon="26.525908">
<ele>99.131897</ele>
<time>2010-07-17T07:48:34Z</time>
<desc>lat.=55.889469, lon.=26.525908, Alt.=99.131897m. Speed=27.756001m/h.</desc>
<speed>7.710000</speed>
</trkpt>
<trkpt lat="55.889400" lon="26.525848">
<ele>99.141663</ele>
<time>2010-07-17T07:48:35Z</time>
<desc>lat.=55.889400, lon.=26.525848, Alt.=99.141663m. Speed=28.799999m/h.</desc>
<speed>8.000000</speed>
</trkpt>
<trkpt lat="55.889328" lon="26.525797">
<ele>99.184631</ele>
<time>2010-07-17T07:48:36Z</time>
<desc>lat.=55.889328, lon.=26.525797, Alt.=99.184631m. Speed=33.911999m/h.</desc>
<speed>9.420000</speed>
</trkpt>
<trkpt lat="55.889244" lon="26.525749">
<ele>99.514709</ele>
<time>2010-07-17T07:48:37Z</time>
<desc>lat.=55.889244, lon.=26.525749, Alt.=99.514709m. Speed=29.628000m/h.</desc>
<speed>8.230000</speed>
</trkpt>
<trkpt lat="55.889175" lon="26.525709">
<ele>99.604553</ele>
<time>2010-07-17T07:48:38Z</time>
<desc>lat.=55.889175, lon.=26.525709, Alt.=99.604553m. Speed=28.691999m/h.</desc>
<speed>7.970000</speed>
</trkpt>
<trkpt lat="55.889111" lon="26.525663">
<ele>99.432678</ele>
<time>2010-07-17T07:48:39Z</time>
<desc>lat.=55.889111, lon.=26.525663, Alt.=99.432678m. Speed=27.000000m/h.</desc>
<speed>7.500000</speed>
</trkpt>
<trkpt lat="55.889046" lon="26.525612">
<ele>99.356506</ele>
<time>2010-07-17T07:48:40Z</time>
<desc>lat.=55.889046, lon.=26.525612, Alt.=99.356506m. Speed=27.504000m/h.</desc>
<speed>7.640000</speed>
</trkpt>
<trkpt lat="55.888992" lon="26.525541">
<ele>99.096741</ele>
<time>2010-07-17T07:48:41Z</time>
<desc>lat.=55.888992, lon.=26.525541, Alt.=99.096741m. Speed=25.236000m/h.</desc>
<speed>7.010000</speed>
</trkpt>
<trkpt lat="55.888943" lon="26.525463">
<ele>98.917053</ele>
<time>2010-07-17T07:48:42Z</time>
<desc>lat.=55.888943, lon.=26.525463, Alt.=98.917053m. Speed=25.775999m/h.</desc>
<speed>7.160000</speed>
</trkpt>
<trkpt lat="55.888912" lon="26.525373">
<ele>98.737366</ele>
<time>2010-07-17T07:48:43Z</time>
<desc>lat.=55.888912, lon.=26.525373, Alt.=98.737366m. Speed=23.903999m/h.</desc>
<speed>6.640000</speed>
</trkpt>
<trkpt lat="55.888889" lon="26.525284">
<ele>98.792053</ele>
<time>2010-07-17T07:48:44Z</time>
<desc>lat.=55.888889, lon.=26.525284, Alt.=98.792053m. Speed=21.996000m/h.</desc>
<speed>6.110000</speed>
</trkpt>
<trkpt lat="55.888855" lon="26.525196">
<ele>98.512756</ele>
<time>2010-07-17T07:48:45Z</time>
<desc>lat.=55.888855, lon.=26.525196, Alt.=98.512756m. Speed=21.420000m/h.</desc>
<speed>5.950000</speed>
</trkpt>
<trkpt lat="55.888817" lon="26.525126">
<ele>98.276428</ele>
<time>2010-07-17T07:48:46Z</time>
<desc>lat.=55.888817, lon.=26.525126, Alt.=98.276428m. Speed=20.916000m/h.</desc>
<speed>5.810000</speed>
</trkpt>
<trkpt lat="55.888775" lon="26.525064">
<ele>98.108459</ele>
<time>2010-07-17T07:48:47Z</time>
<desc>lat.=55.888775, lon.=26.525064, Alt.=98.108459m. Speed=23.507999m/h.</desc>
<speed>6.530000</speed>
</trkpt>
<trkpt lat="55.888733" lon="26.525003">
<ele>97.887756</ele>
<time>2010-07-17T07:48:48Z</time>
<desc>lat.=55.888733, lon.=26.525003, Alt.=97.887756m. Speed=19.584000m/h.</desc>
<speed>5.440000</speed>
</trkpt>
<trkpt lat="55.888695" lon="26.524956">
<ele>97.735413</ele>
<time>2010-07-17T07:48:49Z</time>
<desc>lat.=55.888695, lon.=26.524956, Alt.=97.735413m. Speed=19.080000m/h.</desc>
<speed>5.300000</speed>
</trkpt>
<trkpt lat="55.888645" lon="26.524914">
<ele>97.717834</ele>
<time>2010-07-17T07:48:50Z</time>
<desc>lat.=55.888645, lon.=26.524914, Alt.=97.717834m. Speed=20.879999m/h.</desc>
<speed>5.800000</speed>
</trkpt>
<trkpt lat="55.888599" lon="26.524874">
<ele>97.702209</ele>
<time>2010-07-17T07:48:51Z</time>
<desc>lat.=55.888599, lon.=26.524874, Alt.=97.702209m. Speed=18.719999m/h.</desc>
<speed>5.200000</speed>
</trkpt>
<trkpt lat="55.888554" lon="26.524820">
<ele>97.667053</ele>
<time>2010-07-17T07:48:52Z</time>
<desc>lat.=55.888554, lon.=26.524820, Alt.=97.667053m. Speed=20.879999m/h.</desc>
<speed>5.800000</speed>
</trkpt>
<trkpt lat="55.888470" lon="26.524759">
<ele>97.262756</ele>
<time>2010-07-17T07:48:53Z</time>
<desc>lat.=55.888470, lon.=26.524759, Alt.=97.262756m. Speed=22.176001m/h.</desc>
<speed>6.160000</speed>
</trkpt>
<trkpt lat="55.888420" lon="26.524704">
<ele>97.110413</ele>
<time>2010-07-17T07:48:54Z</time>
<desc>lat.=55.888420, lon.=26.524704, Alt.=97.110413m. Speed=22.931999m/h.</desc>
<speed>6.370000</speed>
</trkpt>
<trkpt lat="55.888367" lon="26.524647">
<ele>96.963928</ele>
<time>2010-07-17T07:48:55Z</time>
<desc>lat.=55.888367, lon.=26.524647, Alt.=96.963928m. Speed=24.983999m/h.</desc>
<speed>6.940000</speed>
</trkpt>
<trkpt lat="55.888313" lon="26.524591">
<ele>96.866272</ele>
<time>2010-07-17T07:48:56Z</time>
<desc>lat.=55.888313, lon.=26.524591, Alt.=96.866272m. Speed=24.660000m/h.</desc>
<speed>6.850000</speed>
</trkpt>
<trkpt lat="55.888252" lon="26.524540">
<ele>96.721741</ele>
<time>2010-07-17T07:48:57Z</time>
<desc>lat.=55.888252, lon.=26.524540, Alt.=96.721741m. Speed=25.704000m/h.</desc>
<speed>7.140000</speed>
</trkpt>
<trkpt lat="55.888184" lon="26.524502">
<ele>96.686584</ele>
<time>2010-07-17T07:48:58Z</time>
<desc>lat.=55.888184, lon.=26.524502, Alt.=96.686584m. Speed=24.084000m/h.</desc>
<speed>6.690000</speed>
</trkpt>
<trkpt lat="55.888115" lon="26.524456">
<ele>96.526428</ele>
<time>2010-07-17T07:48:59Z</time>
<desc>lat.=55.888115, lon.=26.524456, Alt.=96.526428m. Speed=23.148001m/h.</desc>
<speed>6.430000</speed>
</trkpt>
<trkpt lat="55.888054" lon="26.524427">
<ele>96.446350</ele>
<time>2010-07-17T07:49:00Z</time>
<desc>lat.=55.888054, lon.=26.524427, Alt.=96.446350m. Speed=23.940001m/h.</desc>
<speed>6.650000</speed>
</trkpt>
<trkpt lat="55.887997" lon="26.524403">
<ele>96.325256</ele>
<time>2010-07-17T07:49:01Z</time>
<desc>lat.=55.887997, lon.=26.524403, Alt.=96.325256m. Speed=22.931999m/h.</desc>
<speed>6.370000</speed>
</trkpt>
<trkpt lat="55.887943" lon="26.524353">
<ele>96.014709</ele>
<time>2010-07-17T07:49:02Z</time>
<desc>lat.=55.887943, lon.=26.524353, Alt.=96.014709m. Speed=22.788000m/h.</desc>
<speed>6.330000</speed>
</trkpt>
<trkpt lat="55.887878" lon="26.524321">
<ele>95.971741</ele>
<time>2010-07-17T07:49:03Z</time>
<desc>lat.=55.887878, lon.=26.524321, Alt.=95.971741m. Speed=23.076000m/h.</desc>
<speed>6.410000</speed>
</trkpt>
<trkpt lat="55.887814" lon="26.524286">
<ele>96.047913</ele>
<time>2010-07-17T07:49:04Z</time>
<desc>lat.=55.887814, lon.=26.524286, Alt.=96.047913m. Speed=23.040001m/h.</desc>
<speed>6.400000</speed>
</trkpt>
<trkpt lat="55.887737" lon="26.524256">
<ele>96.336975</ele>
<time>2010-07-17T07:49:05Z</time>
<desc>lat.=55.887737, lon.=26.524256, Alt.=96.336975m. Speed=24.191999m/h.</desc>
<speed>6.720000</speed>
</trkpt>
<trkpt lat="55.887680" lon="26.524227">
<ele>96.768616</ele>
<time>2010-07-17T07:49:06Z</time>
<desc>lat.=55.887680, lon.=26.524227, Alt.=96.768616m. Speed=24.084000m/h.</desc>
<speed>6.690000</speed>
</trkpt>
<trkpt lat="55.887619" lon="26.524199">
<ele>96.844788</ele>
<time>2010-07-17T07:49:07Z</time>
<desc>lat.=55.887619, lon.=26.524199, Alt.=96.844788m. Speed=23.400000m/h.</desc>
<speed>6.500000</speed>
</trkpt>
<trkpt lat="55.887558" lon="26.524168">
<ele>96.827209</ele>
<time>2010-07-17T07:49:08Z</time>
<desc>lat.=55.887558, lon.=26.524168, Alt.=96.827209m. Speed=23.544001m/h.</desc>
<speed>6.540000</speed>
</trkpt>
<trkpt lat="55.887497" lon="26.524139">
<ele>96.866272</ele>
<time>2010-07-17T07:49:09Z</time>
<desc>lat.=55.887497, lon.=26.524139, Alt.=96.866272m. Speed=22.788000m/h.</desc>
<speed>6.330000</speed>
</trkpt>
<trkpt lat="55.887440" lon="26.524113">
<ele>97.215881</ele>
<time>2010-07-17T07:49:10Z</time>
<desc>lat.=55.887440, lon.=26.524113, Alt.=97.215881m. Speed=23.507999m/h.</desc>
<speed>6.530000</speed>
</trkpt>
<trkpt lat="55.887375" lon="26.524092">
<ele>97.047913</ele>
<time>2010-07-17T07:49:11Z</time>
<desc>lat.=55.887375, lon.=26.524092, Alt.=97.047913m. Speed=23.292000m/h.</desc>
<speed>6.470000</speed>
</trkpt>
<trkpt lat="55.887321" lon="26.524065">
<ele>96.975647</ele>
<time>2010-07-17T07:49:12Z</time>
<desc>lat.=55.887321, lon.=26.524065, Alt.=96.975647m. Speed=22.968000m/h.</desc>
<speed>6.380000</speed>
</trkpt>
<trkpt lat="55.887268" lon="26.524040">
<ele>96.979553</ele>
<time>2010-07-17T07:49:13Z</time>
<desc>lat.=55.887268, lon.=26.524040, Alt.=96.979553m. Speed=22.931999m/h.</desc>
<speed>6.370000</speed>
</trkpt>
<trkpt lat="55.887207" lon="26.524012">
<ele>96.909241</ele>
<time>2010-07-17T07:49:14Z</time>
<desc>lat.=55.887207, lon.=26.524012, Alt.=96.909241m. Speed=23.903999m/h.</desc>
<speed>6.640000</speed>
</trkpt>
<trkpt lat="55.887150" lon="26.523975">
<ele>96.631897</ele>
<time>2010-07-17T07:49:15Z</time>
<desc>lat.=55.887150, lon.=26.523975, Alt.=96.631897m. Speed=24.228001m/h.</desc>
<speed>6.730000</speed>
</trkpt>
<trkpt lat="55.887089" lon="26.523937">
<ele>96.444397</ele>
<time>2010-07-17T07:49:16Z</time>
<desc>lat.=55.887089, lon.=26.523937, Alt.=96.444397m. Speed=25.559999m/h.</desc>
<speed>7.100000</speed>
</trkpt>
<trkpt lat="55.887028" lon="26.523914">
<ele>96.639709</ele>
<time>2010-07-17T07:49:17Z</time>
<desc>lat.=55.887028, lon.=26.523914, Alt.=96.639709m. Speed=25.236000m/h.</desc>
<speed>7.010000</speed>
</trkpt>
<trkpt lat="55.886967" lon="26.523886">
<ele>96.440491</ele>
<time>2010-07-17T07:49:18Z</time>
<desc>lat.=55.886967, lon.=26.523886, Alt.=96.440491m. Speed=24.372000m/h.</desc>
<speed>6.770000</speed>
</trkpt>
<trkpt lat="55.886913" lon="26.523865">
<ele>96.395569</ele>
<time>2010-07-17T07:49:19Z</time>
<desc>lat.=55.886913, lon.=26.523865, Alt.=96.395569m. Speed=22.247999m/h.</desc>
<speed>6.180000</speed>
</trkpt>
<trkpt lat="55.886860" lon="26.523838">
<ele>96.221741</ele>
<time>2010-07-17T07:49:20Z</time>
<desc>lat.=55.886860, lon.=26.523838, Alt.=96.221741m. Speed=22.931999m/h.</desc>
<speed>6.370000</speed>
</trkpt>
<trkpt lat="55.886810" lon="26.523813">
<ele>96.106506</ele>
<time>2010-07-17T07:49:21Z</time>
<desc>lat.=55.886810, lon.=26.523813, Alt.=96.106506m. Speed=21.167999m/h.</desc>
<speed>5.880000</speed>
</trkpt>
<trkpt lat="55.886757" lon="26.523796">
<ele>96.137756</ele>
<time>2010-07-17T07:49:22Z</time>
<desc>lat.=55.886757, lon.=26.523796, Alt.=96.137756m. Speed=21.600000m/h.</desc>
<speed>6.000000</speed>
</trkpt>
<trkpt lat="55.886703" lon="26.523771">
<ele>96.172913</ele>
<time>2010-07-17T07:49:23Z</time>
<desc>lat.=55.886703, lon.=26.523771, Alt.=96.172913m. Speed=21.455999m/h.</desc>
<speed>5.960000</speed>
</trkpt>
<trkpt lat="55.886654" lon="26.523745">
<ele>96.178772</ele>
<time>2010-07-17T07:49:24Z</time>
<desc>lat.=55.886654, lon.=26.523745, Alt.=96.178772m. Speed=20.844000m/h.</desc>
<speed>5.790000</speed>
</trkpt>
<trkpt lat="55.886608" lon="26.523720">
<ele>96.401428</ele>
<time>2010-07-17T07:49:25Z</time>
<desc>lat.=55.886608, lon.=26.523720, Alt.=96.401428m. Speed=19.224001m/h.</desc>
<speed>5.340000</speed>
</trkpt>
<trkpt lat="55.886570" lon="26.523691">
<ele>96.280334</ele>
<time>2010-07-17T07:49:26Z</time>
<desc>lat.=55.886570, lon.=26.523691, Alt.=96.280334m. Speed=16.271999m/h.</desc>
<speed>4.520000</speed>
</trkpt>
<trkpt lat="55.886524" lon="26.523670">
<ele>96.424866</ele>
<time>2010-07-17T07:49:27Z</time>
<desc>lat.=55.886524, lon.=26.523670, Alt.=96.424866m. Speed=18.252001m/h.</desc>
<speed>5.070000</speed>
</trkpt>
<trkpt lat="55.886478" lon="26.523651">
<ele>96.415100</ele>
<time>2010-07-17T07:49:28Z</time>
<desc>lat.=55.886478, lon.=26.523651, Alt.=96.415100m. Speed=17.964001m/h.</desc>
<speed>4.990000</speed>
</trkpt>
<trkpt lat="55.886444" lon="26.523634">
<ele>96.600647</ele>
<time>2010-07-17T07:49:29Z</time>
<desc>lat.=55.886444, lon.=26.523634, Alt.=96.600647m. Speed=16.236000m/h.</desc>
<speed>4.510000</speed>
</trkpt>
<trkpt lat="55.886402" lon="26.523621">
<ele>96.538147</ele>
<time>2010-07-17T07:49:30Z</time>
<desc>lat.=55.886402, lon.=26.523621, Alt.=96.538147m. Speed=16.812000m/h.</desc>
<speed>4.670000</speed>
</trkpt>
<trkpt lat="55.886364" lon="26.523607">
<ele>96.794006</ele>
<time>2010-07-17T07:49:31Z</time>
<desc>lat.=55.886364, lon.=26.523607, Alt.=96.794006m. Speed=20.016001m/h.</desc>
<speed>5.560000</speed>
</trkpt>
<trkpt lat="55.886307" lon="26.523586">
<ele>96.637756</ele>
<time>2010-07-17T07:49:32Z</time>
<desc>lat.=55.886307, lon.=26.523586, Alt.=96.637756m. Speed=21.384001m/h.</desc>
<speed>5.940000</speed>
</trkpt>
<trkpt lat="55.886242" lon="26.523565">
<ele>96.251038</ele>
<time>2010-07-17T07:49:33Z</time>
<desc>lat.=55.886242, lon.=26.523565, Alt.=96.251038m. Speed=20.483999m/h.</desc>
<speed>5.690000</speed>
</trkpt>
<trkpt lat="55.886200" lon="26.523550">
<ele>96.102600</ele>
<time>2010-07-17T07:49:34Z</time>
<desc>lat.=55.886200, lon.=26.523550, Alt.=96.102600m. Speed=16.559999m/h.</desc>
<speed>4.600000</speed>
</trkpt>
<trkpt lat="55.886166" lon="26.523540">
<ele>96.073303</ele>
<time>2010-07-17T07:49:35Z</time>
<desc>lat.=55.886166, lon.=26.523540, Alt.=96.073303m. Speed=12.096000m/h.</desc>
<speed>3.360000</speed>
</trkpt>
<trkpt lat="55.886147" lon="26.523529">
<ele>95.944397</ele>
<time>2010-07-17T07:49:36Z</time>
<desc>lat.=55.886147, lon.=26.523529, Alt.=95.944397m. Speed=7.488000m/h.</desc>
<speed>2.080000</speed>
</trkpt>
<trkpt lat="55.886139" lon="26.523523">
<ele>96.022522</ele>
<time>2010-07-17T07:49:37Z</time>
<desc>lat.=55.886139, lon.=26.523523, Alt.=96.022522m. Speed=2.340000m/h.</desc>
<speed>0.650000</speed>
</trkpt>
<trkpt lat="55.886124" lon="26.523516">
<ele>95.715881</ele>
<time>2010-07-17T07:49:38Z</time>
<desc>lat.=55.886124, lon.=26.523516, Alt.=95.715881m. Speed=1.836000m/h.</desc>
<speed>0.510000</speed>
</trkpt>
<trkpt lat="55.886124" lon="26.523520">
<ele>96.208069</ele>
<time>2010-07-17T07:49:39Z</time>
<desc>lat.=55.886124, lon.=26.523520, Alt.=96.208069m. Speed=1.260000m/h.</desc>
<speed>0.350000</speed>
</trkpt>
<trkpt lat="55.886116" lon="26.523512">
<ele>95.633850</ele>
<time>2010-07-17T07:49:40Z</time>
<desc>lat.=55.886116, lon.=26.523512, Alt.=95.633850m. Speed=0.936000m/h.</desc>
<speed>0.260000</speed>
</trkpt>
<trkpt lat="55.886116" lon="26.523510">
<ele>95.641663</ele>
<time>2010-07-17T07:49:41Z</time>
<desc>lat.=55.886116, lon.=26.523510, Alt.=95.641663m. Speed=0.144000m/h.</desc>
<speed>0.040000</speed>
</trkpt>
<trkpt lat="55.886116" lon="26.523510">
<ele>95.641663</ele>
<time>2010-07-17T07:49:42Z</time>
<desc>lat.=55.886116, lon.=26.523510, Alt.=95.641663m. Speed=0.072000m/h.</desc>
<speed>0.020000</speed>
</trkpt>
<trkpt lat="55.886116" lon="26.523512">
<ele>95.647522</ele>
<time>2010-07-17T07:49:43Z</time>
<desc>lat.=55.886116, lon.=26.523512, Alt.=95.647522m. Speed=0.108000m/h.</desc>
<speed>0.030000</speed>
</trkpt>
<trkpt lat="55.886116" lon="26.523512">
<ele>95.647522</ele>
<time>2010-07-17T07:49:44Z</time>
<desc>lat.=55.886116, lon.=26.523512, Alt.=95.647522m. Speed=0.396000m/h.</desc>
<speed>0.110000</speed>
</trkpt>
<trkpt lat="55.886116" lon="26.523512">
<ele>95.645569</ele>
<time>2010-07-17T07:49:45Z</time>
<desc>lat.=55.886116, lon.=26.523512, Alt.=95.645569m. Speed=0.468000m/h.</desc>
<speed>0.130000</speed>
</trkpt>
<trkpt lat="55.886116" lon="26.523514">
<ele>95.639709</ele>
<time>2010-07-17T07:49:46Z</time>
<desc>lat.=55.886116, lon.=26.523514, Alt.=95.639709m. Speed=0.360000m/h.</desc>
<speed>0.100000</speed>
</trkpt>
<trkpt lat="55.886116" lon="26.523514">
<ele>95.633850</ele>
<time>2010-07-17T07:49:47Z</time>
<desc>lat.=55.886116, lon.=26.523514, Alt.=95.633850m. Speed=0.324000m/h.</desc>
<speed>0.090000</speed>
</trkpt>
<trkpt lat="55.886120" lon="26.523516">
<ele>95.627991</ele>
<time>2010-07-17T07:49:48Z</time>
<desc>lat.=55.886120, lon.=26.523516, Alt.=95.627991m. Speed=0.036000m/h.</desc>
<speed>0.010000</speed>
</trkpt>
<trkpt lat="55.886120" lon="26.523516">
<ele>95.633850</ele>
<time>2010-07-17T07:49:49Z</time>
<desc>lat.=55.886120, lon.=26.523516, Alt.=95.633850m. Speed=0.144000m/h.</desc>
<speed>0.040000</speed>
</trkpt>
<trkpt lat="55.886120" lon="26.523516">
<ele>95.649475</ele>
<time>2010-07-17T07:49:50Z</time>
<desc>lat.=55.886120, lon.=26.523516, Alt.=95.649475m. Speed=0.216000m/h.</desc>
<speed>0.060000</speed>
</trkpt>
<trkpt lat="55.886120" lon="26.523516">
<ele>95.661194</ele>
<time>2010-07-17T07:49:51Z</time>
<desc>lat.=55.886120, lon.=26.523516, Alt.=95.661194m. Speed=0.072000m/h.</desc>
<speed>0.020000</speed>
</trkpt>
<trkpt lat="55.886120" lon="26.523516">
<ele>95.670959</ele>
<time>2010-07-17T07:49:52Z</time>
<desc>lat.=55.886120, lon.=26.523516, Alt.=95.670959m. Speed=0.360000m/h.</desc>
<speed>0.100000</speed>
</trkpt>
<trkpt lat="55.886120" lon="26.523514">
<ele>95.674866</ele>
<time>2010-07-17T07:49:53Z</time>
<desc>lat.=55.886120, lon.=26.523514, Alt.=95.674866m. Speed=0.072000m/h.</desc>
<speed>0.020000</speed>
</trkpt>
<trkpt lat="55.886120" lon="26.523514">
<ele>95.682678</ele>
<time>2010-07-17T07:49:54Z</time>
<desc>lat.=55.886120, lon.=26.523514, Alt.=95.682678m. Speed=0.108000m/h.</desc>
<speed>0.030000</speed>
</trkpt>
<trkpt lat="55.886120" lon="26.523514">
<ele>95.688538</ele>
<time>2010-07-17T07:49:55Z</time>
<desc>lat.=55.886120, lon.=26.523514, Alt.=95.688538m. Speed=0.072000m/h.</desc>
<speed>0.020000</speed>
</trkpt>
<trkpt lat="55.886120" lon="26.523514">
<ele>95.700256</ele>
<time>2010-07-17T07:49:56Z</time>
<desc>lat.=55.886120, lon.=26.523514, Alt.=95.700256m. Speed=0.072000m/h.</desc>
<speed>0.020000</speed>
</trkpt>
<trkpt lat="55.886120" lon="26.523514">
<ele>95.711975</ele>
<time>2010-07-17T07:49:57Z</time>
<desc>lat.=55.886120, lon.=26.523514, Alt.=95.711975m. Speed=0.000000m/h.</desc>
<speed>0.000000</speed>
</trkpt>
<trkpt lat="55.886120" lon="26.523514">
<ele>95.715881</ele>
<time>2010-07-17T07:49:58Z</time>
<desc>lat.=55.886120, lon.=26.523514, Alt.=95.715881m. Speed=0.252000m/h.</desc>
<speed>0.070000</speed>
</trkpt>
<trkpt lat="55.886120" lon="26.523514">
<ele>95.717834</ele>
<time>2010-07-17T07:49:59Z</time>
<desc>lat.=55.886120, lon.=26.523514, Alt.=95.717834m. Speed=0.756000m/h.</desc>
<speed>0.210000</speed>
</trkpt>
<trkpt lat="55.886120" lon="26.523510">
<ele>95.729553</ele>
<time>2010-07-17T07:50:00Z</time>
<desc>lat.=55.886120, lon.=26.523510, Alt.=95.729553m. Speed=0.540000m/h.</desc>
<speed>0.150000</speed>
</trkpt>
<trkpt lat="55.886116" lon="26.523508">
<ele>95.743225</ele>
<time>2010-07-17T07:50:01Z</time>
<desc>lat.=55.886116, lon.=26.523508, Alt.=95.743225m. Speed=0.648000m/h.</desc>
<speed>0.180000</speed>
</trkpt>
<trkpt lat="55.886116" lon="26.523506">
<ele>95.756897</ele>
<time>2010-07-17T07:50:02Z</time>
<desc>lat.=55.886116, lon.=26.523506, Alt.=95.756897m. Speed=1.080000m/h.</desc>
<speed>0.300000</speed>
</trkpt>
<trkpt lat="55.886116" lon="26.523500">
<ele>95.764709</ele>
<time>2010-07-17T07:50:03Z</time>
<desc>lat.=55.886116, lon.=26.523500, Alt.=95.764709m. Speed=2.052000m/h.</desc>
<speed>0.570000</speed>
</trkpt>
<trkpt lat="55.886112" lon="26.523497">
<ele>95.770569</ele>
<time>2010-07-17T07:50:04Z</time>
<desc>lat.=55.886112, lon.=26.523497, Alt.=95.770569m. Speed=3.996000m/h.</desc>
<speed>1.110000</speed>
</trkpt>
<trkpt lat="55.886093" lon="26.523481">
<ele>95.909241</ele>
<time>2010-07-17T07:50:05Z</time>
<desc>lat.=55.886093, lon.=26.523481, Alt.=95.909241m. Speed=5.616000m/h.</desc>
<speed>1.560000</speed>
</trkpt>
<trkpt lat="55.886063" lon="26.523468">
<ele>96.202209</ele>
<time>2010-07-17T07:50:06Z</time>
<desc>lat.=55.886063, lon.=26.523468, Alt.=96.202209m. Speed=12.312000m/h.</desc>
<speed>3.420000</speed>
</trkpt>
<trkpt lat="55.886032" lon="26.523478">
<ele>96.428772</ele>
<time>2010-07-17T07:50:07Z</time>
<desc>lat.=55.886032, lon.=26.523478, Alt.=96.428772m. Speed=13.788000m/h.</desc>
<speed>3.830000</speed>
</trkpt>
<trkpt lat="55.885986" lon="26.523493">
<ele>96.477600</ele>
<time>2010-07-17T07:50:08Z</time>
<desc>lat.=55.885986, lon.=26.523493, Alt.=96.477600m. Speed=17.496000m/h.</desc>
<speed>4.860000</speed>
</trkpt>
<trkpt lat="55.885937" lon="26.523521">
<ele>96.561584</ele>
<time>2010-07-17T07:50:09Z</time>
<desc>lat.=55.885937, lon.=26.523521, Alt.=96.561584m. Speed=20.412001m/h.</desc>
<speed>5.670000</speed>
</trkpt>
<trkpt lat="55.885876" lon="26.523540">
<ele>96.610413</ele>
<time>2010-07-17T07:50:10Z</time>
<desc>lat.=55.885876, lon.=26.523540, Alt.=96.610413m. Speed=23.256001m/h.</desc>
<speed>6.460000</speed>
</trkpt>
<trkpt lat="55.885807" lon="26.523556">
<ele>96.670959</ele>
<time>2010-07-17T07:50:11Z</time>
<desc>lat.=55.885807, lon.=26.523556, Alt.=96.670959m. Speed=23.544001m/h.</desc>
<speed>6.540000</speed>
</trkpt>
<trkpt lat="55.885746" lon="26.523556">
<ele>96.631897</ele>
<time>2010-07-17T07:50:12Z</time>
<desc>lat.=55.885746, lon.=26.523556, Alt.=96.631897m. Speed=22.464001m/h.</desc>
<speed>6.240000</speed>
</trkpt>
<trkpt lat="55.885681" lon="26.523540">
<ele>96.202209</ele>
<time>2010-07-17T07:50:13Z</time>
<desc>lat.=55.885681, lon.=26.523540, Alt.=96.202209m. Speed=25.271999m/h.</desc>
<speed>7.020000</speed>
</trkpt>
<trkpt lat="55.885616" lon="26.523518">
<ele>96.118225</ele>
<time>2010-07-17T07:50:14Z</time>
<desc>lat.=55.885616, lon.=26.523518, Alt.=96.118225m. Speed=25.740000m/h.</desc>
<speed>7.150000</speed>
</trkpt>
<trkpt lat="55.885551" lon="26.523487">
<ele>96.545959</ele>
<time>2010-07-17T07:50:15Z</time>
<desc>lat.=55.885551, lon.=26.523487, Alt.=96.545959m. Speed=26.100000m/h.</desc>
<speed>7.250000</speed>
</trkpt>
<trkpt lat="55.885487" lon="26.523453">
<ele>96.501038</ele>
<time>2010-07-17T07:50:16Z</time>
<desc>lat.=55.885487, lon.=26.523453, Alt.=96.501038m. Speed=26.459999m/h.</desc>
<speed>7.350000</speed>
</trkpt>
<trkpt lat="55.885422" lon="26.523422">
<ele>96.471741</ele>
<time>2010-07-17T07:50:17Z</time>
<desc>lat.=55.885422, lon.=26.523422, Alt.=96.471741m. Speed=26.100000m/h.</desc>
<speed>7.250000</speed>
</trkpt>
<trkpt lat="55.885361" lon="26.523394">
<ele>96.288147</ele>
<time>2010-07-17T07:50:18Z</time>
<desc>lat.=55.885361, lon.=26.523394, Alt.=96.288147m. Speed=26.100000m/h.</desc>
<speed>7.250000</speed>
</trkpt>
<trkpt lat="55.885296" lon="26.523363">
<ele>95.721741</ele>
<time>2010-07-17T07:50:19Z</time>
<desc>lat.=55.885296, lon.=26.523363, Alt.=95.721741m. Speed=26.712000m/h.</desc>
<speed>7.420000</speed>
</trkpt>
<trkpt lat="55.885227" lon="26.523338">
<ele>95.057678</ele>
<time>2010-07-17T07:50:20Z</time>
<desc>lat.=55.885227, lon.=26.523338, Alt.=95.057678m. Speed=27.288000m/h.</desc>
<speed>7.580000</speed>
</trkpt>
<trkpt lat="55.885159" lon="26.523310">
<ele>94.540100</ele>
<time>2010-07-17T07:50:21Z</time>
<desc>lat.=55.885159, lon.=26.523310, Alt.=94.540100m. Speed=28.188000m/h.</desc>
<speed>7.830000</speed>
</trkpt>
<trkpt lat="55.885090" lon="26.523279">
<ele>94.294006</ele>
<time>2010-07-17T07:50:22Z</time>
<desc>lat.=55.885090, lon.=26.523279, Alt.=94.294006m. Speed=28.764000m/h.</desc>
<speed>7.990000</speed>
</trkpt>
<trkpt lat="55.885017" lon="26.523243">
<ele>94.282288</ele>
<time>2010-07-17T07:50:23Z</time>
<desc>lat.=55.885017, lon.=26.523243, Alt.=94.282288m. Speed=28.872000m/h.</desc>
<speed>8.020000</speed>
</trkpt>
<trkpt lat="55.884945" lon="26.523211">
<ele>94.237366</ele>
<time>2010-07-17T07:50:24Z</time>
<desc>lat.=55.884945, lon.=26.523211, Alt.=94.237366m. Speed=29.375999m/h.</desc>
<speed>8.160000</speed>
</trkpt>
<trkpt lat="55.884872" lon="26.523176">
<ele>93.989319</ele>
<time>2010-07-17T07:50:25Z</time>
<desc>lat.=55.884872, lon.=26.523176, Alt.=93.989319m. Speed=29.844000m/h.</desc>
<speed>8.290000</speed>
</trkpt>
<trkpt lat="55.884796" lon="26.523130">
<ele>93.967834</ele>
<time>2010-07-17T07:50:26Z</time>
<desc>lat.=55.884796, lon.=26.523130, Alt.=93.967834m. Speed=30.275999m/h.</desc>
<speed>8.410000</speed>
</trkpt>
<trkpt lat="55.884727" lon="26.523087">
<ele>94.137756</ele>
<time>2010-07-17T07:50:27Z</time>
<desc>lat.=55.884727, lon.=26.523087, Alt.=94.137756m. Speed=30.204000m/h.</desc>
<speed>8.390000</speed>
</trkpt>
<trkpt lat="55.884651" lon="26.523054">
<ele>94.014709</ele>
<time>2010-07-17T07:50:28Z</time>
<desc>lat.=55.884651, lon.=26.523054, Alt.=94.014709m. Speed=30.384001m/h.</desc>
<speed>8.440000</speed>
</trkpt>
<trkpt lat="55.884575" lon="26.523026">
<ele>94.379944</ele>
<time>2010-07-17T07:50:29Z</time>
<desc>lat.=55.884575, lon.=26.523026, Alt.=94.379944m. Speed=31.176001m/h.</desc>
<speed>8.660000</speed>
</trkpt>
<trkpt lat="55.884499" lon="26.522999">
<ele>94.262756</ele>
<time>2010-07-17T07:50:30Z</time>
<desc>lat.=55.884499, lon.=26.522999, Alt.=94.262756m. Speed=30.420000m/h.</desc>
<speed>8.450000</speed>
</trkpt>
<trkpt lat="55.884422" lon="26.522982">
<ele>94.018616</ele>
<time>2010-07-17T07:50:31Z</time>
<desc>lat.=55.884422, lon.=26.522982, Alt.=94.018616m. Speed=29.808001m/h.</desc>
<speed>8.280000</speed>
</trkpt>
<trkpt lat="55.884346" lon="26.522951">
<ele>93.952209</ele>
<time>2010-07-17T07:50:32Z</time>
<desc>lat.=55.884346, lon.=26.522951, Alt.=93.952209m. Speed=29.736000m/h.</desc>
<speed>8.260000</speed>
</trkpt>
<trkpt lat="55.884274" lon="26.522919">
<ele>94.252991</ele>
<time>2010-07-17T07:50:33Z</time>
<desc>lat.=55.884274, lon.=26.522919, Alt.=94.252991m. Speed=28.007999m/h.</desc>
<speed>7.780000</speed>
</trkpt>
<trkpt lat="55.884205" lon="26.522886">
<ele>94.528381</ele>
<time>2010-07-17T07:50:34Z</time>
<desc>lat.=55.884205, lon.=26.522886, Alt.=94.528381m. Speed=28.115999m/h.</desc>
<speed>7.810000</speed>
</trkpt>
<trkpt lat="55.884140" lon="26.522854">
<ele>94.665100</ele>
<time>2010-07-17T07:50:35Z</time>
<desc>lat.=55.884140, lon.=26.522854, Alt.=94.665100m. Speed=28.115999m/h.</desc>
<speed>7.810000</speed>
</trkpt>
<trkpt lat="55.884075" lon="26.522820">
<ele>94.567444</ele>
<time>2010-07-17T07:50:36Z</time>
<desc>lat.=55.884075, lon.=26.522820, Alt.=94.567444m. Speed=28.115999m/h.</desc>
<speed>7.810000</speed>
</trkpt>
<trkpt lat="55.884003" lon="26.522781">
<ele>94.893616</ele>
<time>2010-07-17T07:50:37Z</time>
<desc>lat.=55.884003, lon.=26.522781, Alt.=94.893616m. Speed=28.368000m/h.</desc>
<speed>7.880000</speed>
</trkpt>
<trkpt lat="55.883938" lon="26.522743">
<ele>94.674866</ele>
<time>2010-07-17T07:50:38Z</time>
<desc>lat.=55.883938, lon.=26.522743, Alt.=94.674866m. Speed=27.900000m/h.</desc>
<speed>7.750000</speed>
</trkpt>
<trkpt lat="55.883869" lon="26.522713">
<ele>95.368225</ele>
<time>2010-07-17T07:50:39Z</time>
<desc>lat.=55.883869, lon.=26.522713, Alt.=95.368225m. Speed=27.431999m/h.</desc>
<speed>7.620000</speed>
</trkpt>
<trkpt lat="55.883804" lon="26.522680">
<ele>95.653381</ele>
<time>2010-07-17T07:50:40Z</time>
<desc>lat.=55.883804, lon.=26.522680, Alt.=95.653381m. Speed=27.648001m/h.</desc>
<speed>7.680000</speed>
</trkpt>
<trkpt lat="55.883736" lon="26.522655">
<ele>96.364319</ele>
<time>2010-07-17T07:50:41Z</time>
<desc>lat.=55.883736, lon.=26.522655, Alt.=96.364319m. Speed=27.468000m/h.</desc>
<speed>7.630000</speed>
</trkpt>
<trkpt lat="55.883667" lon="26.522621">
<ele>96.282288</ele>
<time>2010-07-17T07:50:42Z</time>
<desc>lat.=55.883667, lon.=26.522621, Alt.=96.282288m. Speed=27.216000m/h.</desc>
<speed>7.560000</speed>
</trkpt>
<trkpt lat="55.883602" lon="26.522594">
<ele>97.229553</ele>
<time>2010-07-17T07:50:43Z</time>
<desc>lat.=55.883602, lon.=26.522594, Alt.=97.229553m. Speed=27.035999m/h.</desc>
<speed>7.510000</speed>
</trkpt>
<trkpt lat="55.883541" lon="26.522556">
<ele>97.163147</ele>
<time>2010-07-17T07:50:44Z</time>
<desc>lat.=55.883541, lon.=26.522556, Alt.=97.163147m. Speed=26.316000m/h.</desc>
<speed>7.310000</speed>
</trkpt>
<trkpt lat="55.883476" lon="26.522526">
<ele>96.930725</ele>
<time>2010-07-17T07:50:45Z</time>
<desc>lat.=55.883476, lon.=26.522526, Alt.=96.930725m. Speed=26.351999m/h.</desc>
<speed>7.320000</speed>
</trkpt>
<trkpt lat="55.883411" lon="26.522501">
<ele>96.782288</ele>
<time>2010-07-17T07:50:46Z</time>
<desc>lat.=55.883411, lon.=26.522501, Alt.=96.782288m. Speed=26.604000m/h.</desc>
<speed>7.390000</speed>
</trkpt>
<trkpt lat="55.883347" lon="26.522476">
<ele>97.170959</ele>
<time>2010-07-17T07:50:47Z</time>
<desc>lat.=55.883347, lon.=26.522476, Alt.=97.170959m. Speed=25.740000m/h.</desc>
<speed>7.150000</speed>
</trkpt>
<trkpt lat="55.883286" lon="26.522442">
<ele>97.335022</ele>
<time>2010-07-17T07:50:48Z</time>
<desc>lat.=55.883286, lon.=26.522442, Alt.=97.335022m. Speed=25.559999m/h.</desc>
<speed>7.100000</speed>
</trkpt>
<trkpt lat="55.883228" lon="26.522409">
<ele>96.815491</ele>
<time>2010-07-17T07:50:49Z</time>
<desc>lat.=55.883228, lon.=26.522409, Alt.=96.815491m. Speed=25.884001m/h.</desc>
<speed>7.190000</speed>
</trkpt>
<trkpt lat="55.883163" lon="26.522383">
<ele>96.833069</ele>
<time>2010-07-17T07:50:50Z</time>
<desc>lat.=55.883163, lon.=26.522383, Alt.=96.833069m. Speed=25.920000m/h.</desc>
<speed>7.200000</speed>
</trkpt>
<trkpt lat="55.883099" lon="26.522356">
<ele>96.643616</ele>
<time>2010-07-17T07:50:51Z</time>
<desc>lat.=55.883099, lon.=26.522356, Alt.=96.643616m. Speed=26.604000m/h.</desc>
<speed>7.390000</speed>
</trkpt>
<trkpt lat="55.883034" lon="26.522333">
<ele>96.167053</ele>
<time>2010-07-17T07:50:52Z</time>
<desc>lat.=55.883034, lon.=26.522333, Alt.=96.167053m. Speed=26.784000m/h.</desc>
<speed>7.440000</speed>
</trkpt>
<trkpt lat="55.882969" lon="26.522310">
<ele>95.836975</ele>
<time>2010-07-17T07:50:53Z</time>
<desc>lat.=55.882969, lon.=26.522310, Alt.=95.836975m. Speed=25.596001m/h.</desc>
<speed>7.110000</speed>
</trkpt>
<trkpt lat="55.882908" lon="26.522280">
<ele>95.723694</ele>
<time>2010-07-17T07:50:54Z</time>
<desc>lat.=55.882908, lon.=26.522280, Alt.=95.723694m. Speed=24.660000m/h.</desc>
<speed>6.850000</speed>
</trkpt>
<trkpt lat="55.882851" lon="26.522242">
<ele>95.647522</ele>
<time>2010-07-17T07:50:55Z</time>
<desc>lat.=55.882851, lon.=26.522242, Alt.=95.647522m. Speed=25.524000m/h.</desc>
<speed>7.090000</speed>
</trkpt>
<trkpt lat="55.882790" lon="26.522207">
<ele>95.790100</ele>
<time>2010-07-17T07:50:56Z</time>
<desc>lat.=55.882790, lon.=26.522207, Alt.=95.790100m. Speed=25.200001m/h.</desc>
<speed>7.000000</speed>
</trkpt>
<trkpt lat="55.882725" lon="26.522175">
<ele>95.612366</ele>
<time>2010-07-17T07:50:57Z</time>
<desc>lat.=55.882725, lon.=26.522175, Alt.=95.612366m. Speed=26.316000m/h.</desc>
<speed>7.310000</speed>
</trkpt>
<trkpt lat="55.882660" lon="26.522144">
<ele>95.540100</ele>
<time>2010-07-17T07:50:58Z</time>
<desc>lat.=55.882660, lon.=26.522144, Alt.=95.540100m. Speed=25.559999m/h.</desc>
<speed>7.100000</speed>
</trkpt>
<trkpt lat="55.882603" lon="26.522114">
<ele>95.608459</ele>
<time>2010-07-17T07:50:59Z</time>
<desc>lat.=55.882603, lon.=26.522114, Alt.=95.608459m. Speed=25.884001m/h.</desc>
<speed>7.190000</speed>
</trkpt>
<trkpt lat="55.882538" lon="26.522087">
<ele>95.686584</ele>
<time>2010-07-17T07:51:00Z</time>
<desc>lat.=55.882538, lon.=26.522087, Alt.=95.686584m. Speed=26.568001m/h.</desc>
<speed>7.380000</speed>
</trkpt>
<trkpt lat="55.882473" lon="26.522064">
<ele>95.624084</ele>
<time>2010-07-17T07:51:01Z</time>
<desc>lat.=55.882473, lon.=26.522064, Alt.=95.624084m. Speed=25.704000m/h.</desc>
<speed>7.140000</speed>
</trkpt>
<trkpt lat="55.882408" lon="26.522041">
<ele>95.665100</ele>
<time>2010-07-17T07:51:02Z</time>
<desc>lat.=55.882408, lon.=26.522041, Alt.=95.665100m. Speed=26.927999m/h.</desc>
<speed>7.480000</speed>
</trkpt>
<trkpt lat="55.882343" lon="26.522015">
<ele>95.592834</ele>
<time>2010-07-17T07:51:03Z</time>
<desc>lat.=55.882343, lon.=26.522015, Alt.=95.592834m. Speed=27.360001m/h.</desc>
<speed>7.600000</speed>
</trkpt>
<trkpt lat="55.882275" lon="26.521992">
<ele>95.721741</ele>
<time>2010-07-17T07:51:04Z</time>
<desc>lat.=55.882275, lon.=26.521992, Alt.=95.721741m. Speed=27.864000m/h.</desc>
<speed>7.740000</speed>
</trkpt>
<trkpt lat="55.882206" lon="26.521971">
<ele>95.542053</ele>
<time>2010-07-17T07:51:05Z</time>
<desc>lat.=55.882206, lon.=26.521971, Alt.=95.542053m. Speed=27.000000m/h.</desc>
<speed>7.500000</speed>
</trkpt>
<trkpt lat="55.882141" lon="26.521954">
<ele>95.338928</ele>
<time>2010-07-17T07:51:06Z</time>
<desc>lat.=55.882141, lon.=26.521954, Alt.=95.338928m. Speed=26.100000m/h.</desc>
<speed>7.250000</speed>
</trkpt>
<trkpt lat="55.882076" lon="26.521935">
<ele>95.159241</ele>
<time>2010-07-17T07:51:07Z</time>
<desc>lat.=55.882076, lon.=26.521935, Alt.=95.159241m. Speed=26.747999m/h.</desc>
<speed>7.430000</speed>
</trkpt>
<trkpt lat="55.882015" lon="26.521917">
<ele>95.038147</ele>
<time>2010-07-17T07:51:08Z</time>
<desc>lat.=55.882015, lon.=26.521917, Alt.=95.038147m. Speed=23.796000m/h.</desc>
<speed>6.610000</speed>
</trkpt>
<trkpt lat="55.881954" lon="26.521904">
<ele>95.006897</ele>
<time>2010-07-17T07:51:09Z</time>
<desc>lat.=55.881954, lon.=26.521904, Alt.=95.006897m. Speed=24.191999m/h.</desc>
<speed>6.720000</speed>
</trkpt>
<trkpt lat="55.881889" lon="26.521885">
<ele>94.751038</ele>
<time>2010-07-17T07:51:10Z</time>
<desc>lat.=55.881889, lon.=26.521885, Alt.=94.751038m. Speed=25.812000m/h.</desc>
<speed>7.170000</speed>
</trkpt>
<trkpt lat="55.881817" lon="26.521873">
<ele>94.717834</ele>
<time>2010-07-17T07:51:11Z</time>
<desc>lat.=55.881817, lon.=26.521873, Alt.=94.717834m. Speed=27.360001m/h.</desc>
<speed>7.600000</speed>
</trkpt>
<trkpt lat="55.881744" lon="26.521862">
<ele>94.784241</ele>
<time>2010-07-17T07:51:12Z</time>
<desc>lat.=55.881744, lon.=26.521862, Alt.=94.784241m. Speed=26.172001m/h.</desc>
<speed>7.270000</speed>
</trkpt>
<trkpt lat="55.881680" lon="26.521856">
<ele>94.657288</ele>
<time>2010-07-17T07:51:13Z</time>
<desc>lat.=55.881680, lon.=26.521856, Alt.=94.657288m. Speed=25.812000m/h.</desc>
<speed>7.170000</speed>
</trkpt>
<trkpt lat="55.881615" lon="26.521843">
<ele>94.485413</ele>
<time>2010-07-17T07:51:14Z</time>
<desc>lat.=55.881615, lon.=26.521843, Alt.=94.485413m. Speed=24.804001m/h.</desc>
<speed>6.890000</speed>
</trkpt>
<trkpt lat="55.881557" lon="26.521830">
<ele>94.272522</ele>
<time>2010-07-17T07:51:15Z</time>
<desc>lat.=55.881557, lon.=26.521830, Alt.=94.272522m. Speed=23.760000m/h.</desc>
<speed>6.600000</speed>
</trkpt>
<trkpt lat="55.881504" lon="26.521828">
<ele>94.624084</ele>
<time>2010-07-17T07:51:16Z</time>
<desc>lat.=55.881504, lon.=26.521828, Alt.=94.624084m. Speed=22.356001m/h.</desc>
<speed>6.210000</speed>
</trkpt>
<trkpt lat="55.881451" lon="26.521833">
<ele>94.629944</ele>
<time>2010-07-17T07:51:17Z</time>
<desc>lat.=55.881451, lon.=26.521833, Alt.=94.629944m. Speed=22.320000m/h.</desc>
<speed>6.200000</speed>
</trkpt>
<trkpt lat="55.881393" lon="26.521832">
<ele>94.297913</ele>
<time>2010-07-17T07:51:18Z</time>
<desc>lat.=55.881393, lon.=26.521832, Alt.=94.297913m. Speed=20.700001m/h.</desc>
<speed>5.750000</speed>
</trkpt>
<trkpt lat="55.881348" lon="26.521830">
<ele>95.010803</ele>
<time>2010-07-17T07:51:19Z</time>
<desc>lat.=55.881348, lon.=26.521830, Alt.=95.010803m. Speed=18.792000m/h.</desc>
<speed>5.220000</speed>
</trkpt>
<trkpt lat="55.881294" lon="26.521830">
<ele>95.395569</ele>
<time>2010-07-17T07:51:20Z</time>
<desc>lat.=55.881294, lon.=26.521830, Alt.=95.395569m. Speed=18.108000m/h.</desc>
<speed>5.030000</speed>
</trkpt>
<trkpt lat="55.881245" lon="26.521824">
<ele>95.044006</ele>
<time>2010-07-17T07:51:21Z</time>
<desc>lat.=55.881245, lon.=26.521824, Alt.=95.044006m. Speed=17.676001m/h.</desc>
<speed>4.910000</speed>
</trkpt>
<trkpt lat="55.881195" lon="26.521803">
<ele>94.801819</ele>
<time>2010-07-17T07:51:22Z</time>
<desc>lat.=55.881195, lon.=26.521803, Alt.=94.801819m. Speed=16.091999m/h.</desc>
<speed>4.470000</speed>
</trkpt>
<trkpt lat="55.881168" lon="26.521769">
<ele>96.127991</ele>
<time>2010-07-17T07:51:23Z</time>
<desc>lat.=55.881168, lon.=26.521769, Alt.=96.127991m. Speed=13.536000m/h.</desc>
<speed>3.760000</speed>
</trkpt>
<trkpt lat="55.881149" lon="26.521719">
<ele>96.501038</ele>
<time>2010-07-17T07:51:24Z</time>
<desc>lat.=55.881149, lon.=26.521719, Alt.=96.501038m. Speed=15.084000m/h.</desc>
<speed>4.190000</speed>
</trkpt>
<trkpt lat="55.881138" lon="26.521660">
<ele>96.979553</ele>
<time>2010-07-17T07:51:25Z</time>
<desc>lat.=55.881138, lon.=26.521660, Alt.=96.979553m. Speed=12.708000m/h.</desc>
<speed>3.530000</speed>
</trkpt>
<trkpt lat="55.881134" lon="26.521606">
<ele>97.340881</ele>
<time>2010-07-17T07:51:26Z</time>
<desc>lat.=55.881134, lon.=26.521606, Alt.=97.340881m. Speed=11.376000m/h.</desc>
<speed>3.160000</speed>
</trkpt>
<trkpt lat="55.881126" lon="26.521566">
<ele>97.854553</ele>
<time>2010-07-17T07:51:27Z</time>
<desc>lat.=55.881126, lon.=26.521566, Alt.=97.854553m. Speed=9.180000m/h.</desc>
<speed>2.550000</speed>
</trkpt>
<trkpt lat="55.881123" lon="26.521509">
<ele>98.131897</ele>
<time>2010-07-17T07:51:28Z</time>
<desc>lat.=55.881123, lon.=26.521509, Alt.=98.131897m. Speed=12.060000m/h.</desc>
<speed>3.350000</speed>
</trkpt>
<trkpt lat="55.881119" lon="26.521450">
<ele>98.436584</ele>
<time>2010-07-17T07:51:29Z</time>
<desc>lat.=55.881119, lon.=26.521450, Alt.=98.436584m. Speed=12.996000m/h.</desc>
<speed>3.610000</speed>
</trkpt>
<trkpt lat="55.881115" lon="26.521379">
<ele>98.768616</ele>
<time>2010-07-17T07:51:30Z</time>
<desc>lat.=55.881115, lon.=26.521379, Alt.=98.768616m. Speed=15.516000m/h.</desc>
<speed>4.310000</speed>
</trkpt>
<trkpt lat="55.881111" lon="26.521297">
<ele>98.903381</ele>
<time>2010-07-17T07:51:31Z</time>
<desc>lat.=55.881111, lon.=26.521297, Alt.=98.903381m. Speed=17.028000m/h.</desc>
<speed>4.730000</speed>
</trkpt>
<trkpt lat="55.881100" lon="26.521217">
<ele>98.295959</ele>
<time>2010-07-17T07:51:32Z</time>
<desc>lat.=55.881100, lon.=26.521217, Alt.=98.295959m. Speed=19.115999m/h.</desc>
<speed>5.310000</speed>
</trkpt>
<trkpt lat="55.881092" lon="26.521130">
<ele>98.838928</ele>
<time>2010-07-17T07:51:33Z</time>
<desc>lat.=55.881092, lon.=26.521130, Alt.=98.838928m. Speed=18.756001m/h.</desc>
<speed>5.210000</speed>
</trkpt>
<trkpt lat="55.881073" lon="26.521051">
<ele>99.063538</ele>
<time>2010-07-17T07:51:34Z</time>
<desc>lat.=55.881073, lon.=26.521051, Alt.=99.063538m. Speed=19.188000m/h.</desc>
<speed>5.330000</speed>
</trkpt>
<trkpt lat="55.881050" lon="26.520973">
<ele>98.745178</ele>
<time>2010-07-17T07:51:35Z</time>
<desc>lat.=55.881050, lon.=26.520973, Alt.=98.745178m. Speed=18.972000m/h.</desc>
<speed>5.270000</speed>
</trkpt>
<trkpt lat="55.881027" lon="26.520895">
<ele>99.135803</ele>
<time>2010-07-17T07:51:36Z</time>
<desc>lat.=55.881027, lon.=26.520895, Alt.=99.135803m. Speed=20.160000m/h.</desc>
<speed>5.600000</speed>
</trkpt>
<trkpt lat="55.880993" lon="26.520838">
<ele>99.920959</ele>
<time>2010-07-17T07:51:37Z</time>
<desc>lat.=55.880993, lon.=26.520838, Alt.=99.920959m. Speed=20.052000m/h.</desc>
<speed>5.570000</speed>
</trkpt>
<trkpt lat="55.880955" lon="26.520775">
<ele>99.752991</ele>
<time>2010-07-17T07:51:38Z</time>
<desc>lat.=55.880955, lon.=26.520775, Alt.=99.752991m. Speed=20.124001m/h.</desc>
<speed>5.590000</speed>
</trkpt>
<trkpt lat="55.880909" lon="26.520718">
<ele>99.799866</ele>
<time>2010-07-17T07:51:39Z</time>
<desc>lat.=55.880909, lon.=26.520718, Alt.=99.799866m. Speed=20.340000m/h.</desc>
<speed>5.650000</speed>
</trkpt>
<trkpt lat="55.880863" lon="26.520668">
<ele>99.745178</ele>
<time>2010-07-17T07:51:40Z</time>
<desc>lat.=55.880863, lon.=26.520668, Alt.=99.745178m. Speed=20.556000m/h.</desc>
<speed>5.710000</speed>
</trkpt>
<trkpt lat="55.880821" lon="26.520624">
<ele>99.674866</ele>
<time>2010-07-17T07:51:41Z</time>
<desc>lat.=55.880821, lon.=26.520624, Alt.=99.674866m. Speed=19.908001m/h.</desc>
<speed>5.530000</speed>
</trkpt>
<trkpt lat="55.880772" lon="26.520578">
<ele>99.751038</ele>
<time>2010-07-17T07:51:42Z</time>
<desc>lat.=55.880772, lon.=26.520578, Alt.=99.751038m. Speed=21.096001m/h.</desc>
<speed>5.860000</speed>
</trkpt>
<trkpt lat="55.880730" lon="26.520529">
<ele>98.692444</ele>
<time>2010-07-17T07:51:43Z</time>
<desc>lat.=55.880730, lon.=26.520529, Alt.=98.692444m. Speed=20.412001m/h.</desc>
<speed>5.670000</speed>
</trkpt>
<trkpt lat="55.880688" lon="26.520487">
<ele>98.803772</ele>
<time>2010-07-17T07:51:44Z</time>
<desc>lat.=55.880688, lon.=26.520487, Alt.=98.803772m. Speed=20.520000m/h.</desc>
<speed>5.700000</speed>
</trkpt>
<trkpt lat="55.880638" lon="26.520445">
<ele>98.809631</ele>
<time>2010-07-17T07:51:45Z</time>
<desc>lat.=55.880638, lon.=26.520445, Alt.=98.809631m. Speed=20.195999m/h.</desc>
<speed>5.610000</speed>
</trkpt>
<trkpt lat="55.880592" lon="26.520409">
<ele>99.088928</ele>
<time>2010-07-17T07:51:46Z</time>
<desc>lat.=55.880592, lon.=26.520409, Alt.=99.088928m. Speed=19.836000m/h.</desc>
<speed>5.510000</speed>
</trkpt>
<trkpt lat="55.880547" lon="26.520376">
<ele>98.801819</ele>
<time>2010-07-17T07:51:47Z</time>
<desc>lat.=55.880547, lon.=26.520376, Alt.=98.801819m. Speed=19.584000m/h.</desc>
<speed>5.440000</speed>
</trkpt>
<trkpt lat="55.880497" lon="26.520338">
<ele>98.743225</ele>
<time>2010-07-17T07:51:48Z</time>
<desc>lat.=55.880497, lon.=26.520338, Alt.=98.743225m. Speed=18.612000m/h.</desc>
<speed>5.170000</speed>
</trkpt>
<trkpt lat="55.880455" lon="26.520308">
<ele>98.844788</ele>
<time>2010-07-17T07:51:49Z</time>
<desc>lat.=55.880455, lon.=26.520308, Alt.=98.844788m. Speed=17.136000m/h.</desc>
<speed>4.760000</speed>
</trkpt>
<trkpt lat="55.880405" lon="26.520273">
<ele>98.469788</ele>
<time>2010-07-17T07:51:50Z</time>
<desc>lat.=55.880405, lon.=26.520273, Alt.=98.469788m. Speed=19.691999m/h.</desc>
<speed>5.470000</speed>
</trkpt>
<trkpt lat="55.880363" lon="26.520233">
<ele>98.397522</ele>
<time>2010-07-17T07:51:51Z</time>
<desc>lat.=55.880363, lon.=26.520233, Alt.=98.397522m. Speed=19.476000m/h.</desc>
<speed>5.410000</speed>
</trkpt>
<trkpt lat="55.880322" lon="26.520185">
<ele>97.768616</ele>
<time>2010-07-17T07:51:52Z</time>
<desc>lat.=55.880322, lon.=26.520185, Alt.=97.768616m. Speed=18.684000m/h.</desc>
<speed>5.190000</speed>
</trkpt>
<trkpt lat="55.880283" lon="26.520151">
<ele>97.710022</ele>
<time>2010-07-17T07:51:53Z</time>
<desc>lat.=55.880283, lon.=26.520151, Alt.=97.710022m. Speed=17.100000m/h.</desc>
<speed>4.750000</speed>
</trkpt>
<trkpt lat="55.880238" lon="26.520121">
<ele>97.807678</ele>
<time>2010-07-17T07:51:54Z</time>
<desc>lat.=55.880238, lon.=26.520121, Alt.=97.807678m. Speed=17.459999m/h.</desc>
<speed>4.850000</speed>
</trkpt>
<trkpt lat="55.880199" lon="26.520081">
<ele>98.002991</ele>
<time>2010-07-17T07:51:55Z</time>
<desc>lat.=55.880199, lon.=26.520081, Alt.=98.002991m. Speed=19.080000m/h.</desc>
<speed>5.300000</speed>
</trkpt>
<trkpt lat="55.880154" lon="26.520041">
<ele>97.163147</ele>
<time>2010-07-17T07:51:56Z</time>
<desc>lat.=55.880154, lon.=26.520041, Alt.=97.163147m. Speed=16.020000m/h.</desc>
<speed>4.450000</speed>
</trkpt>
<trkpt lat="55.880123" lon="26.519997">
<ele>95.803772</ele>
<time>2010-07-17T07:51:57Z</time>
<desc>lat.=55.880123, lon.=26.519997, Alt.=95.803772m. Speed=15.012000m/h.</desc>
<speed>4.170000</speed>
</trkpt>
<trkpt lat="55.880104" lon="26.519945">
<ele>95.116272</ele>
<time>2010-07-17T07:51:58Z</time>
<desc>lat.=55.880104, lon.=26.519945, Alt.=95.116272m. Speed=13.536000m/h.</desc>
<speed>3.760000</speed>
</trkpt>
<trkpt lat="55.880093" lon="26.519878">
<ele>95.145569</ele>
<time>2010-07-17T07:51:59Z</time>
<desc>lat.=55.880093, lon.=26.519878, Alt.=95.145569m. Speed=13.464000m/h.</desc>
<speed>3.740000</speed>
</trkpt>
<trkpt lat="55.880104" lon="26.519812">
<ele>95.751038</ele>
<time>2010-07-17T07:52:00Z</time>
<desc>lat.=55.880104, lon.=26.519812, Alt.=95.751038m. Speed=14.796000m/h.</desc>
<speed>4.110000</speed>
</trkpt>
<trkpt lat="55.880127" lon="26.519743">
<ele>95.706116</ele>
<time>2010-07-17T07:52:01Z</time>
<desc>lat.=55.880127, lon.=26.519743, Alt.=95.706116m. Speed=18.288000m/h.</desc>
<speed>5.080000</speed>
</trkpt>
<trkpt lat="55.880161" lon="26.519682">
<ele>95.692444</ele>
<time>2010-07-17T07:52:02Z</time>
<desc>lat.=55.880161, lon.=26.519682, Alt.=95.692444m. Speed=19.152000m/h.</desc>
<speed>5.320000</speed>
</trkpt>
<trkpt lat="55.880199" lon="26.519621">
<ele>95.475647</ele>
<time>2010-07-17T07:52:03Z</time>
<desc>lat.=55.880199, lon.=26.519621, Alt.=95.475647m. Speed=21.096001m/h.</desc>
<speed>5.860000</speed>
</trkpt>
<trkpt lat="55.880234" lon="26.519558">
<ele>95.823303</ele>
<time>2010-07-17T07:52:04Z</time>
<desc>lat.=55.880234, lon.=26.519558, Alt.=95.823303m. Speed=19.764000m/h.</desc>
<speed>5.490000</speed>
</trkpt>
<trkpt lat="55.880272" lon="26.519489">
<ele>97.100647</ele>
<time>2010-07-17T07:52:05Z</time>
<desc>lat.=55.880272, lon.=26.519489, Alt.=97.100647m. Speed=20.448000m/h.</desc>
<speed>5.680000</speed>
</trkpt>
<trkpt lat="55.880306" lon="26.519419">
<ele>97.442444</ele>
<time>2010-07-17T07:52:06Z</time>
<desc>lat.=55.880306, lon.=26.519419, Alt.=97.442444m. Speed=22.535999m/h.</desc>
<speed>6.260000</speed>
</trkpt>
<trkpt lat="55.880352" lon="26.519354">
<ele>97.932678</ele>
<time>2010-07-17T07:52:07Z</time>
<desc>lat.=55.880352, lon.=26.519354, Alt.=97.932678m. Speed=23.256001m/h.</desc>
<speed>6.460000</speed>
</trkpt>
<trkpt lat="55.880394" lon="26.519289">
<ele>98.563538</ele>
<time>2010-07-17T07:52:08Z</time>
<desc>lat.=55.880394, lon.=26.519289, Alt.=98.563538m. Speed=21.024000m/h.</desc>
<speed>5.840000</speed>
</trkpt>
<trkpt lat="55.880436" lon="26.519236">
<ele>99.137756</ele>
<time>2010-07-17T07:52:09Z</time>
<desc>lat.=55.880436, lon.=26.519236, Alt.=99.137756m. Speed=19.007999m/h.</desc>
<speed>5.280000</speed>
</trkpt>
<trkpt lat="55.880466" lon="26.519192">
<ele>99.672913</ele>
<time>2010-07-17T07:52:10Z</time>
<desc>lat.=55.880466, lon.=26.519192, Alt.=99.672913m. Speed=14.760000m/h.</desc>
<speed>4.100000</speed>
</trkpt>
<trkpt lat="55.880501" lon="26.519144">
<ele>100.327209</ele>
<time>2010-07-17T07:52:11Z</time>
<desc>lat.=55.880501, lon.=26.519144, Alt.=100.327209m. Speed=12.348000m/h.</desc>
<speed>3.430000</speed>
</trkpt>
<trkpt lat="55.880520" lon="26.519114">
<ele>100.872131</ele>
<time>2010-07-17T07:52:12Z</time>
<desc>lat.=55.880520, lon.=26.519114, Alt.=100.872131m. Speed=10.476000m/h.</desc>
<speed>2.910000</speed>
</trkpt>
<trkpt lat="55.880539" lon="26.519089">
<ele>101.434631</ele>
<time>2010-07-17T07:52:13Z</time>
<desc>lat.=55.880539, lon.=26.519089, Alt.=101.434631m. Speed=7.596000m/h.</desc>
<speed>2.110000</speed>
</trkpt>
<trkpt lat="55.880554" lon="26.519060">
<ele>101.795959</ele>
<time>2010-07-17T07:52:14Z</time>
<desc>lat.=55.880554, lon.=26.519060, Alt.=101.795959m. Speed=3.456000m/h.</desc>
<speed>0.960000</speed>
</trkpt>
<trkpt lat="55.880566" lon="26.519041">
<ele>102.083069</ele>
<time>2010-07-17T07:52:15Z</time>
<desc>lat.=55.880566, lon.=26.519041, Alt.=102.083069m. Speed=3.168000m/h.</desc>
<speed>0.880000</speed>
</trkpt>
<trkpt lat="55.880573" lon="26.519020">
<ele>101.225647</ele>
<time>2010-07-17T07:52:16Z</time>
<desc>lat.=55.880573, lon.=26.519020, Alt.=101.225647m. Speed=4.716000m/h.</desc>
<speed>1.310000</speed>
</trkpt>
<trkpt lat="55.880589" lon="26.519003">
<ele>101.516663</ele>
<time>2010-07-17T07:52:17Z</time>
<desc>lat.=55.880589, lon.=26.519003, Alt.=101.516663m. Speed=5.112000m/h.</desc>
<speed>1.420000</speed>
</trkpt>
<trkpt lat="55.880600" lon="26.518984">
<ele>101.458069</ele>
<time>2010-07-17T07:52:18Z</time>
<desc>lat.=55.880600, lon.=26.518984, Alt.=101.458069m. Speed=5.004000m/h.</desc>
<speed>1.390000</speed>
</trkpt>
<trkpt lat="55.880611" lon="26.518974">
<ele>101.801819</ele>
<time>2010-07-17T07:52:19Z</time>
<desc>lat.=55.880611, lon.=26.518974, Alt.=101.801819m. Speed=4.500000m/h.</desc>
<speed>1.250000</speed>
</trkpt>
<trkpt lat="55.880619" lon="26.518963">
<ele>102.397522</ele>
<time>2010-07-17T07:52:20Z</time>
<desc>lat.=55.880619, lon.=26.518963, Alt.=102.397522m. Speed=4.536000m/h.</desc>
<speed>1.260000</speed>
</trkpt>
<trkpt lat="55.880627" lon="26.518951">
<ele>102.639709</ele>
<time>2010-07-17T07:52:21Z</time>
<desc>lat.=55.880627, lon.=26.518951, Alt.=102.639709m. Speed=3.636000m/h.</desc>
<speed>1.010000</speed>
</trkpt>
<trkpt lat="55.880642" lon="26.518929">
<ele>102.840881</ele>
<time>2010-07-17T07:52:22Z</time>
<desc>lat.=55.880642, lon.=26.518929, Alt.=102.840881m. Speed=4.932000m/h.</desc>
<speed>1.370000</speed>
</trkpt>
<trkpt lat="55.880657" lon="26.518911">
<ele>102.622131</ele>
<time>2010-07-17T07:52:23Z</time>
<desc>lat.=55.880657, lon.=26.518911, Alt.=102.622131m. Speed=6.300000m/h.</desc>
<speed>1.750000</speed>
</trkpt>
<trkpt lat="55.880672" lon="26.518896">
<ele>102.190491</ele>
<time>2010-07-17T07:52:24Z</time>
<desc>lat.=55.880672, lon.=26.518896, Alt.=102.190491m. Speed=4.824000m/h.</desc>
<speed>1.340000</speed>
</trkpt>
<trkpt lat="55.880676" lon="26.518885">
<ele>102.061584</ele>
<time>2010-07-17T07:52:25Z</time>
<desc>lat.=55.880676, lon.=26.518885, Alt.=102.061584m. Speed=1.296000m/h.</desc>
<speed>0.360000</speed>
</trkpt>
<trkpt lat="55.880676" lon="26.518883">
<ele>102.047913</ele>
<time>2010-07-17T07:52:26Z</time>
<desc>lat.=55.880676, lon.=26.518883, Alt.=102.047913m. Speed=0.648000m/h.</desc>
<speed>0.180000</speed>
</trkpt>
<trkpt lat="55.880676" lon="26.518881">
<ele>101.518616</ele>
<time>2010-07-17T07:52:27Z</time>
<desc>lat.=55.880676, lon.=26.518881, Alt.=101.518616m. Speed=0.288000m/h.</desc>
<speed>0.080000</speed>
</trkpt>
<trkpt lat="55.880680" lon="26.518877">
<ele>101.106506</ele>
<time>2010-07-17T07:52:28Z</time>
<desc>lat.=55.880680, lon.=26.518877, Alt.=101.106506m. Speed=0.504000m/h.</desc>
<speed>0.140000</speed>
</trkpt>
<trkpt lat="55.880680" lon="26.518875">
<ele>101.225647</ele>
<time>2010-07-17T07:52:29Z</time>
<desc>lat.=55.880680, lon.=26.518875, Alt.=101.225647m. Speed=0.972000m/h.</desc>
<speed>0.270000</speed>
</trkpt>
<trkpt lat="55.880684" lon="26.518871">
<ele>101.311584</ele>
<time>2010-07-17T07:52:30Z</time>
<desc>lat.=55.880684, lon.=26.518871, Alt.=101.311584m. Speed=0.864000m/h.</desc>
<speed>0.240000</speed>
</trkpt>
<trkpt lat="55.880684" lon="26.518869">
<ele>101.368225</ele>
<time>2010-07-17T07:52:31Z</time>
<desc>lat.=55.880684, lon.=26.518869, Alt.=101.368225m. Speed=0.900000m/h.</desc>
<speed>0.250000</speed>
</trkpt>
<trkpt lat="55.880688" lon="26.518867">
<ele>101.409241</ele>
<time>2010-07-17T07:52:32Z</time>
<desc>lat.=55.880688, lon.=26.518867, Alt.=101.409241m. Speed=1.044000m/h.</desc>
<speed>0.290000</speed>
</trkpt>
<trkpt lat="55.880692" lon="26.518866">
<ele>101.442444</ele>
<time>2010-07-17T07:52:33Z</time>
<desc>lat.=55.880692, lon.=26.518866, Alt.=101.442444m. Speed=0.864000m/h.</desc>
<speed>0.240000</speed>
</trkpt>
<trkpt lat="55.880692" lon="26.518866">
<ele>101.460022</ele>
<time>2010-07-17T07:52:34Z</time>
<desc>lat.=55.880692, lon.=26.518866, Alt.=101.460022m. Speed=0.756000m/h.</desc>
<speed>0.210000</speed>
</trkpt>
<trkpt lat="55.880695" lon="26.518864">
<ele>101.475647</ele>
<time>2010-07-17T07:52:35Z</time>
<desc>lat.=55.880695, lon.=26.518864, Alt.=101.475647m. Speed=0.360000m/h.</desc>
<speed>0.100000</speed>
</trkpt>
<trkpt lat="55.880695" lon="26.518862">
<ele>101.483459</ele>
<time>2010-07-17T07:52:36Z</time>
<desc>lat.=55.880695, lon.=26.518862, Alt.=101.483459m. Speed=0.396000m/h.</desc>
<speed>0.110000</speed>
</trkpt>
<trkpt lat="55.880695" lon="26.518862">
<ele>101.491272</ele>
<time>2010-07-17T07:52:37Z</time>
<desc>lat.=55.880695, lon.=26.518862, Alt.=101.491272m. Speed=0.432000m/h.</desc>
<speed>0.120000</speed>
</trkpt>
<trkpt lat="55.880695" lon="26.518860">
<ele>101.501038</ele>
<time>2010-07-17T07:52:38Z</time>
<desc>lat.=55.880695, lon.=26.518860, Alt.=101.501038m. Speed=0.720000m/h.</desc>
<speed>0.200000</speed>
</trkpt>
<trkpt lat="55.880699" lon="26.518858">
<ele>101.508850</ele>
<time>2010-07-17T07:52:39Z</time>
<desc>lat.=55.880699, lon.=26.518858, Alt.=101.508850m. Speed=1.944000m/h.</desc>
<speed>0.540000</speed>
</trkpt>
<trkpt lat="55.880703" lon="26.518852">
<ele>101.518616</ele>
<time>2010-07-17T07:52:40Z</time>
<desc>lat.=55.880703, lon.=26.518852, Alt.=101.518616m. Speed=3.708000m/h.</desc>
<speed>1.030000</speed>
</trkpt>
<trkpt lat="55.880722" lon="26.518801">
<ele>101.710022</ele>
<time>2010-07-17T07:52:41Z</time>
<desc>lat.=55.880722, lon.=26.518801, Alt.=101.710022m. Speed=7.056000m/h.</desc>
<speed>1.960000</speed>
</trkpt>
<trkpt lat="55.880733" lon="26.518747">
<ele>101.776428</ele>
<time>2010-07-17T07:52:42Z</time>
<desc>lat.=55.880733, lon.=26.518747, Alt.=101.776428m. Speed=14.076000m/h.</desc>
<speed>3.910000</speed>
</trkpt>
<trkpt lat="55.880737" lon="26.518682">
<ele>101.348694</ele>
<time>2010-07-17T07:52:43Z</time>
<desc>lat.=55.880737, lon.=26.518682, Alt.=101.348694m. Speed=16.416000m/h.</desc>
<speed>4.560000</speed>
</trkpt>
<trkpt lat="55.880726" lon="26.518618">
<ele>101.659241</ele>
<time>2010-07-17T07:52:44Z</time>
<desc>lat.=55.880726, lon.=26.518618, Alt.=101.659241m. Speed=15.804000m/h.</desc>
<speed>4.390000</speed>
</trkpt>
<trkpt lat="55.880707" lon="26.518559">
<ele>101.592834</ele>
<time>2010-07-17T07:52:45Z</time>
<desc>lat.=55.880707, lon.=26.518559, Alt.=101.592834m. Speed=15.048000m/h.</desc>
<speed>4.180000</speed>
</trkpt>
<trkpt lat="55.880692" lon="26.518501">
<ele>101.661194</ele>
<time>2010-07-17T07:52:46Z</time>
<desc>lat.=55.880692, lon.=26.518501, Alt.=101.661194m. Speed=14.400000m/h.</desc>
<speed>4.000000</speed>
</trkpt>
<trkpt lat="55.880672" lon="26.518454">
<ele>101.602600</ele>
<time>2010-07-17T07:52:47Z</time>
<desc>lat.=55.880672, lon.=26.518454, Alt.=101.602600m. Speed=12.672000m/h.</desc>
<speed>3.520000</speed>
</trkpt>
<trkpt lat="55.880646" lon="26.518417">
<ele>101.475647</ele>
<time>2010-07-17T07:52:48Z</time>
<desc>lat.=55.880646, lon.=26.518417, Alt.=101.475647m. Speed=12.204000m/h.</desc>
<speed>3.390000</speed>
</trkpt>
<trkpt lat="55.880623" lon="26.518377">
<ele>101.372131</ele>
<time>2010-07-17T07:52:49Z</time>
<desc>lat.=55.880623, lon.=26.518377, Alt.=101.372131m. Speed=13.284000m/h.</desc>
<speed>3.690000</speed>
</trkpt>
<trkpt lat="55.880608" lon="26.518326">
<ele>101.461975</ele>
<time>2010-07-17T07:52:50Z</time>
<desc>lat.=55.880608, lon.=26.518326, Alt.=101.461975m. Speed=12.636000m/h.</desc>
<speed>3.510000</speed>
</trkpt>
<trkpt lat="55.880581" lon="26.518278">
<ele>101.698303</ele>
<time>2010-07-17T07:52:51Z</time>
<desc>lat.=55.880581, lon.=26.518278, Alt.=101.698303m. Speed=15.084000m/h.</desc>
<speed>4.190000</speed>
</trkpt>
<trkpt lat="55.880547" lon="26.518225">
<ele>102.086975</ele>
<time>2010-07-17T07:52:52Z</time>
<desc>lat.=55.880547, lon.=26.518225, Alt.=102.086975m. Speed=18.000000m/h.</desc>
<speed>5.000000</speed>
</trkpt>
<trkpt lat="55.880508" lon="26.518171">
<ele>102.512756</ele>
<time>2010-07-17T07:52:53Z</time>
<desc>lat.=55.880508, lon.=26.518171, Alt.=102.512756m. Speed=20.052000m/h.</desc>
<speed>5.570000</speed>
</trkpt>
<trkpt lat="55.880470" lon="26.518112">
<ele>103.127991</ele>
<time>2010-07-17T07:52:54Z</time>
<desc>lat.=55.880470, lon.=26.518112, Alt.=103.127991m. Speed=20.664000m/h.</desc>
<speed>5.740000</speed>
</trkpt>
<trkpt lat="55.880436" lon="26.518015">
<ele>104.374084</ele>
<time>2010-07-17T07:52:55Z</time>
<desc>lat.=55.880436, lon.=26.518015, Alt.=104.374084m. Speed=23.400000m/h.</desc>
<speed>6.500000</speed>
</trkpt>
<trkpt lat="55.880402" lon="26.517939">
<ele>105.473694</ele>
<time>2010-07-17T07:52:56Z</time>
<desc>lat.=55.880402, lon.=26.517939, Alt.=105.473694m. Speed=21.672001m/h.</desc>
<speed>6.020000</speed>
</trkpt>
<trkpt lat="55.880363" lon="26.517859">
<ele>106.081116</ele>
<time>2010-07-17T07:52:57Z</time>
<desc>lat.=55.880363, lon.=26.517859, Alt.=106.081116m. Speed=22.068001m/h.</desc>
<speed>6.130000</speed>
</trkpt>
<trkpt lat="55.880318" lon="26.517778">
<ele>105.997131</ele>
<time>2010-07-17T07:52:58Z</time>
<desc>lat.=55.880318, lon.=26.517778, Alt.=105.997131m. Speed=24.084000m/h.</desc>
<speed>6.690000</speed>
</trkpt>
<trkpt lat="55.880272" lon="26.517693">
<ele>106.252991</ele>
<time>2010-07-17T07:52:59Z</time>
<desc>lat.=55.880272, lon.=26.517693, Alt.=106.252991m. Speed=24.516001m/h.</desc>
<speed>6.810000</speed>
</trkpt>
<trkpt lat="55.880234" lon="26.517605">
<ele>106.833069</ele>
<time>2010-07-17T07:53:00Z</time>
<desc>lat.=55.880234, lon.=26.517605, Alt.=106.833069m. Speed=24.228001m/h.</desc>
<speed>6.730000</speed>
</trkpt>
<trkpt lat="55.880199" lon="26.517529">
<ele>107.612366</ele>
<time>2010-07-17T07:53:01Z</time>
<desc>lat.=55.880199, lon.=26.517529, Alt.=107.612366m. Speed=20.988001m/h.</desc>
<speed>5.830000</speed>
</trkpt>
<trkpt lat="55.880157" lon="26.517445">
<ele>108.155334</ele>
<time>2010-07-17T07:53:02Z</time>
<desc>lat.=55.880157, lon.=26.517445, Alt.=108.155334m. Speed=23.760000m/h.</desc>
<speed>6.600000</speed>
</trkpt>
<trkpt lat="55.880116" lon="26.517347">
<ele>108.309631</ele>
<time>2010-07-17T07:53:03Z</time>
<desc>lat.=55.880116, lon.=26.517347, Alt.=108.309631m. Speed=24.372000m/h.</desc>
<speed>6.770000</speed>
</trkpt>
<trkpt lat="55.880074" lon="26.517250">
<ele>108.825256</ele>
<time>2010-07-17T07:53:04Z</time>
<desc>lat.=55.880074, lon.=26.517250, Alt.=108.825256m. Speed=25.452000m/h.</desc>
<speed>7.070000</speed>
</trkpt>
<trkpt lat="55.880032" lon="26.517153">
<ele>109.274475</ele>
<time>2010-07-17T07:53:05Z</time>
<desc>lat.=55.880032, lon.=26.517153, Alt.=109.274475m. Speed=26.100000m/h.</desc>
<speed>7.250000</speed>
</trkpt>
<trkpt lat="55.879990" lon="26.517059">
<ele>109.766663</ele>
<time>2010-07-17T07:53:06Z</time>
<desc>lat.=55.879990, lon.=26.517059, Alt.=109.766663m. Speed=24.660000m/h.</desc>
<speed>6.850000</speed>
</trkpt>
<trkpt lat="55.879951" lon="26.516958">
<ele>110.014709</ele>
<time>2010-07-17T07:53:07Z</time>
<desc>lat.=55.879951, lon.=26.516958, Alt.=110.014709m. Speed=24.624001m/h.</desc>
<speed>6.840000</speed>
</trkpt>
<trkpt lat="55.879910" lon="26.516846">
<ele>110.143616</ele>
<time>2010-07-17T07:53:08Z</time>
<desc>lat.=55.879910, lon.=26.516846, Alt.=110.143616m. Speed=27.108000m/h.</desc>
<speed>7.530000</speed>
</trkpt>
<trkpt lat="55.879875" lon="26.516737">
<ele>110.510803</ele>
<time>2010-07-17T07:53:09Z</time>
<desc>lat.=55.879875, lon.=26.516737, Alt.=110.510803m. Speed=25.164000m/h.</desc>
<speed>6.990000</speed>
</trkpt>
<trkpt lat="55.879837" lon="26.516630">
<ele>110.749084</ele>
<time>2010-07-17T07:53:10Z</time>
<desc>lat.=55.879837, lon.=26.516630, Alt.=110.749084m. Speed=26.136000m/h.</desc>
<speed>7.260000</speed>
</trkpt>
<trkpt lat="55.879787" lon="26.516521">
<ele>110.282288</ele>
<time>2010-07-17T07:53:11Z</time>
<desc>lat.=55.879787, lon.=26.516521, Alt.=110.282288m. Speed=26.316000m/h.</desc>
<speed>7.310000</speed>
</trkpt>
<trkpt lat="55.879749" lon="26.516407">
<ele>110.317444</ele>
<time>2010-07-17T07:53:12Z</time>
<desc>lat.=55.879749, lon.=26.516407, Alt.=110.317444m. Speed=25.955999m/h.</desc>
<speed>7.210000</speed>
</trkpt>
<trkpt lat="55.879715" lon="26.516304">
<ele>110.536194</ele>
<time>2010-07-17T07:53:13Z</time>
<desc>lat.=55.879715, lon.=26.516304, Alt.=110.536194m. Speed=24.264000m/h.</desc>
<speed>6.740000</speed>
</trkpt>
<trkpt lat="55.879681" lon="26.516214">
<ele>110.454163</ele>
<time>2010-07-17T07:53:14Z</time>
<desc>lat.=55.879681, lon.=26.516214, Alt.=110.454163m. Speed=23.615999m/h.</desc>
<speed>6.560000</speed>
</trkpt>
<trkpt lat="55.879654" lon="26.516117">
<ele>110.403381</ele>
<time>2010-07-17T07:53:15Z</time>
<desc>lat.=55.879654, lon.=26.516117, Alt.=110.403381m. Speed=23.292000m/h.</desc>
<speed>6.470000</speed>
</trkpt>
<trkpt lat="55.879616" lon="26.516020">
<ele>110.153381</ele>
<time>2010-07-17T07:53:16Z</time>
<desc>lat.=55.879616, lon.=26.516020, Alt.=110.153381m. Speed=22.716000m/h.</desc>
<speed>6.310000</speed>
</trkpt>
<trkpt lat="55.879581" lon="26.515902">
<ele>109.731506</ele>
<time>2010-07-17T07:53:17Z</time>
<desc>lat.=55.879581, lon.=26.515902, Alt.=109.731506m. Speed=25.812000m/h.</desc>
<speed>7.170000</speed>
</trkpt>
<trkpt lat="55.879547" lon="26.515808">
<ele>109.920959</ele>
<time>2010-07-17T07:53:18Z</time>
<desc>lat.=55.879547, lon.=26.515808, Alt.=109.920959m. Speed=24.084000m/h.</desc>
<speed>6.690000</speed>
</trkpt>
<trkpt lat="55.879517" lon="26.515726">
<ele>110.040100</ele>
<time>2010-07-17T07:53:19Z</time>
<desc>lat.=55.879517, lon.=26.515726, Alt.=110.040100m. Speed=21.851999m/h.</desc>
<speed>6.070000</speed>
</trkpt>
<trkpt lat="55.879498" lon="26.515646">
<ele>110.153381</ele>
<time>2010-07-17T07:53:20Z</time>
<desc>lat.=55.879498, lon.=26.515646, Alt.=110.153381m. Speed=19.296000m/h.</desc>
<speed>5.360000</speed>
</trkpt>
<trkpt lat="55.879478" lon="26.515545">
<ele>110.180725</ele>
<time>2010-07-17T07:53:21Z</time>
<desc>lat.=55.879478, lon.=26.515545, Alt.=110.180725m. Speed=20.916000m/h.</desc>
<speed>5.810000</speed>
</trkpt>
<trkpt lat="55.879463" lon="26.515451">
<ele>110.452209</ele>
<time>2010-07-17T07:53:22Z</time>
<desc>lat.=55.879463, lon.=26.515451, Alt.=110.452209m. Speed=18.468000m/h.</desc>
<speed>5.130000</speed>
</trkpt>
<trkpt lat="55.879433" lon="26.515352">
<ele>110.885803</ele>
<time>2010-07-17T07:53:23Z</time>
<desc>lat.=55.879433, lon.=26.515352, Alt.=110.885803m. Speed=21.132000m/h.</desc>
<speed>5.870000</speed>
</trkpt>
<trkpt lat="55.879421" lon="26.515223">
<ele>110.663147</ele>
<time>2010-07-17T07:53:24Z</time>
<desc>lat.=55.879421, lon.=26.515223, Alt.=110.663147m. Speed=21.528000m/h.</desc>
<speed>5.980000</speed>
</trkpt>
<trkpt lat="55.879402" lon="26.515106">
<ele>110.643616</ele>
<time>2010-07-17T07:53:25Z</time>
<desc>lat.=55.879402, lon.=26.515106, Alt.=110.643616m. Speed=23.544001m/h.</desc>
<speed>6.540000</speed>
</trkpt>
<trkpt lat="55.879383" lon="26.515024">
<ele>111.049866</ele>
<time>2010-07-17T07:53:26Z</time>
<desc>lat.=55.879383, lon.=26.515024, Alt.=111.049866m. Speed=18.648001m/h.</desc>
<speed>5.180000</speed>
</trkpt>
<trkpt lat="55.879356" lon="26.514938">
<ele>111.858459</ele>
<time>2010-07-17T07:53:27Z</time>
<desc>lat.=55.879356, lon.=26.514938, Alt.=111.858459m. Speed=13.176000m/h.</desc>
<speed>3.660000</speed>
</trkpt>
<trkpt lat="55.879341" lon="26.514841">
<ele>112.290100</ele>
<time>2010-07-17T07:53:28Z</time>
<desc>lat.=55.879341, lon.=26.514841, Alt.=112.290100m. Speed=16.020000m/h.</desc>
<speed>4.450000</speed>
</trkpt>
<trkpt lat="55.879311" lon="26.514761">
<ele>112.557678</ele>
<time>2010-07-17T07:53:29Z</time>
<desc>lat.=55.879311, lon.=26.514761, Alt.=112.557678m. Speed=20.232000m/h.</desc>
<speed>5.620000</speed>
</trkpt>
<trkpt lat="55.879269" lon="26.514666">
<ele>112.641663</ele>
<time>2010-07-17T07:53:30Z</time>
<desc>lat.=55.879269, lon.=26.514666, Alt.=112.641663m. Speed=20.808001m/h.</desc>
<speed>5.780000</speed>
</trkpt>
<trkpt lat="55.879230" lon="26.514574">
<ele>112.700256</ele>
<time>2010-07-17T07:53:31Z</time>
<desc>lat.=55.879230, lon.=26.514574, Alt.=112.700256m. Speed=21.851999m/h.</desc>
<speed>6.070000</speed>
</trkpt>
<trkpt lat="55.879189" lon="26.514481">
<ele>112.889709</ele>
<time>2010-07-17T07:53:32Z</time>
<desc>lat.=55.879189, lon.=26.514481, Alt.=112.889709m. Speed=23.400000m/h.</desc>
<speed>6.500000</speed>
</trkpt>
<trkpt lat="55.879135" lon="26.514387">
<ele>112.874084</ele>
<time>2010-07-17T07:53:33Z</time>
<desc>lat.=55.879135, lon.=26.514387, Alt.=112.874084m. Speed=24.695999m/h.</desc>
<speed>6.860000</speed>
</trkpt>
<trkpt lat="55.879101" lon="26.514277">
<ele>112.680725</ele>
<time>2010-07-17T07:53:34Z</time>
<desc>lat.=55.879101, lon.=26.514277, Alt.=112.680725m. Speed=23.400000m/h.</desc>
<speed>6.500000</speed>
</trkpt>
<trkpt lat="55.879055" lon="26.514170">
<ele>112.465881</ele>
<time>2010-07-17T07:53:35Z</time>
<desc>lat.=55.879055, lon.=26.514170, Alt.=112.465881m. Speed=25.488001m/h.</desc>
<speed>7.080000</speed>
</trkpt>
<trkpt lat="55.879005" lon="26.514063">
<ele>112.190491</ele>
<time>2010-07-17T07:53:36Z</time>
<desc>lat.=55.879005, lon.=26.514063, Alt.=112.190491m. Speed=25.955999m/h.</desc>
<speed>7.210000</speed>
</trkpt>
<trkpt lat="55.878963" lon="26.513945">
<ele>111.963928</ele>
<time>2010-07-17T07:53:37Z</time>
<desc>lat.=55.878963, lon.=26.513945, Alt.=111.963928m. Speed=26.712000m/h.</desc>
<speed>7.420000</speed>
</trkpt>
<trkpt lat="55.878937" lon="26.513809">
<ele>111.528381</ele>
<time>2010-07-17T07:53:38Z</time>
<desc>lat.=55.878937, lon.=26.513809, Alt.=111.528381m. Speed=24.732000m/h.</desc>
<speed>6.870000</speed>
</trkpt>
<trkpt lat="55.878910" lon="26.513700">
<ele>111.438538</ele>
<time>2010-07-17T07:53:39Z</time>
<desc>lat.=55.878910, lon.=26.513700, Alt.=111.438538m. Speed=23.580000m/h.</desc>
<speed>6.550000</speed>
</trkpt>
<trkpt lat="55.878883" lon="26.513624">
<ele>111.649475</ele>
<time>2010-07-17T07:53:40Z</time>
<desc>lat.=55.878883, lon.=26.513624, Alt.=111.649475m. Speed=20.195999m/h.</desc>
<speed>5.610000</speed>
</trkpt>
<trkpt lat="55.878864" lon="26.513550">
<ele>111.756897</ele>
<time>2010-07-17T07:53:41Z</time>
<desc>lat.=55.878864, lon.=26.513550, Alt.=111.756897m. Speed=19.260000m/h.</desc>
<speed>5.350000</speed>
</trkpt>
<trkpt lat="55.878845" lon="26.513475">
<ele>111.752991</ele>
<time>2010-07-17T07:53:42Z</time>
<desc>lat.=55.878845, lon.=26.513475, Alt.=111.752991m. Speed=18.180000m/h.</desc>
<speed>5.050000</speed>
</trkpt>
<trkpt lat="55.878822" lon="26.513412">
<ele>111.778381</ele>
<time>2010-07-17T07:53:43Z</time>
<desc>lat.=55.878822, lon.=26.513412, Alt.=111.778381m. Speed=16.200001m/h.</desc>
<speed>4.500000</speed>
</trkpt>
<trkpt lat="55.878799" lon="26.513340">
<ele>111.881897</ele>
<time>2010-07-17T07:53:44Z</time>
<desc>lat.=55.878799, lon.=26.513340, Alt.=111.881897m. Speed=18.684000m/h.</desc>
<speed>5.190000</speed>
</trkpt>
<trkpt lat="55.878777" lon="26.513262">
<ele>111.985413</ele>
<time>2010-07-17T07:53:45Z</time>
<desc>lat.=55.878777, lon.=26.513262, Alt.=111.985413m. Speed=18.864000m/h.</desc>
<speed>5.240000</speed>
</trkpt>
<trkpt lat="55.878754" lon="26.513176">
<ele>112.124084</ele>
<time>2010-07-17T07:53:46Z</time>
<desc>lat.=55.878754, lon.=26.513176, Alt.=112.124084m. Speed=19.656000m/h.</desc>
<speed>5.460000</speed>
</trkpt>
<trkpt lat="55.878723" lon="26.513092">
<ele>112.170959</ele>
<time>2010-07-17T07:53:47Z</time>
<desc>lat.=55.878723, lon.=26.513092, Alt.=112.170959m. Speed=21.528000m/h.</desc>
<speed>5.980000</speed>
</trkpt>
<trkpt lat="55.878693" lon="26.512993">
<ele>112.057678</ele>
<time>2010-07-17T07:53:48Z</time>
<desc>lat.=55.878693, lon.=26.512993, Alt.=112.057678m. Speed=21.563999m/h.</desc>
<speed>5.990000</speed>
</trkpt>
<trkpt lat="55.878666" lon="26.512875">
<ele>111.887756</ele>
<time>2010-07-17T07:53:49Z</time>
<desc>lat.=55.878666, lon.=26.512875, Alt.=111.887756m. Speed=22.788000m/h.</desc>
<speed>6.330000</speed>
</trkpt>
<trkpt lat="55.878639" lon="26.512770">
<ele>111.608459</ele>
<time>2010-07-17T07:53:50Z</time>
<desc>lat.=55.878639, lon.=26.512770, Alt.=111.608459m. Speed=21.132000m/h.</desc>
<speed>5.870000</speed>
</trkpt>
<trkpt lat="55.878613" lon="26.512678">
<ele>111.362366</ele>
<time>2010-07-17T07:53:51Z</time>
<desc>lat.=55.878613, lon.=26.512678, Alt.=111.362366m. Speed=20.591999m/h.</desc>
<speed>5.720000</speed>
</trkpt>
<trkpt lat="55.878574" lon="26.512583">
<ele>111.239319</ele>
<time>2010-07-17T07:53:52Z</time>
<desc>lat.=55.878574, lon.=26.512583, Alt.=111.239319m. Speed=22.716000m/h.</desc>
<speed>6.310000</speed>
</trkpt>
<trkpt lat="55.878513" lon="26.512480">
<ele>110.698303</ele>
<time>2010-07-17T07:53:53Z</time>
<desc>lat.=55.878513, lon.=26.512480, Alt.=110.698303m. Speed=24.732000m/h.</desc>
<speed>6.870000</speed>
</trkpt>
<trkpt lat="55.878475" lon="26.512386">
<ele>110.715881</ele>
<time>2010-07-17T07:53:54Z</time>
<desc>lat.=55.878475, lon.=26.512386, Alt.=110.715881m. Speed=24.011999m/h.</desc>
<speed>6.670000</speed>
</trkpt>
<trkpt lat="55.878429" lon="26.512278">
<ele>110.536194</ele>
<time>2010-07-17T07:53:55Z</time>
<desc>lat.=55.878429, lon.=26.512278, Alt.=110.536194m. Speed=25.271999m/h.</desc>
<speed>7.020000</speed>
</trkpt>
<trkpt lat="55.878391" lon="26.512180">
<ele>110.559631</ele>
<time>2010-07-17T07:53:56Z</time>
<desc>lat.=55.878391, lon.=26.512180, Alt.=110.559631m. Speed=23.148001m/h.</desc>
<speed>6.430000</speed>
</trkpt>
<trkpt lat="55.878345" lon="26.512079">
<ele>110.196350</ele>
<time>2010-07-17T07:53:57Z</time>
<desc>lat.=55.878345, lon.=26.512079, Alt.=110.196350m. Speed=24.011999m/h.</desc>
<speed>6.670000</speed>
</trkpt>
<trkpt lat="55.878307" lon="26.511980">
<ele>109.862366</ele>
<time>2010-07-17T07:53:58Z</time>
<desc>lat.=55.878307, lon.=26.511980, Alt.=109.862366m. Speed=22.572001m/h.</desc>
<speed>6.270000</speed>
</trkpt>
<trkpt lat="55.878265" lon="26.511890">
<ele>109.911194</ele>
<time>2010-07-17T07:53:59Z</time>
<desc>lat.=55.878265, lon.=26.511890, Alt.=109.911194m. Speed=22.500000m/h.</desc>
<speed>6.250000</speed>
</trkpt>
<trkpt lat="55.878231" lon="26.511791">
<ele>109.739319</ele>
<time>2010-07-17T07:54:00Z</time>
<desc>lat.=55.878231, lon.=26.511791, Alt.=109.739319m. Speed=23.184000m/h.</desc>
<speed>6.440000</speed>
</trkpt>
<trkpt lat="55.878204" lon="26.511684">
<ele>109.377991</ele>
<time>2010-07-17T07:54:01Z</time>
<desc>lat.=55.878204, lon.=26.511684, Alt.=109.377991m. Speed=21.924000m/h.</desc>
<speed>6.090000</speed>
</trkpt>
<trkpt lat="55.878159" lon="26.511578">
<ele>108.639709</ele>
<time>2010-07-17T07:54:02Z</time>
<desc>lat.=55.878159, lon.=26.511578, Alt.=108.639709m. Speed=23.472000m/h.</desc>
<speed>6.520000</speed>
</trkpt>
<trkpt lat="55.878117" lon="26.511488">
<ele>107.952209</ele>
<time>2010-07-17T07:54:03Z</time>
<desc>lat.=55.878117, lon.=26.511488, Alt.=107.952209m. Speed=22.247999m/h.</desc>
<speed>6.180000</speed>
</trkpt>
<trkpt lat="55.878082" lon="26.511404">
<ele>105.719788</ele>
<time>2010-07-17T07:54:04Z</time>
<desc>lat.=55.878082, lon.=26.511404, Alt.=105.719788m. Speed=21.780001m/h.</desc>
<speed>6.050000</speed>
</trkpt>
<trkpt lat="55.878048" lon="26.511320">
<ele>104.805725</ele>
<time>2010-07-17T07:54:05Z</time>
<desc>lat.=55.878048, lon.=26.511320, Alt.=104.805725m. Speed=21.780001m/h.</desc>
<speed>6.050000</speed>
</trkpt>
<trkpt lat="55.878017" lon="26.511232">
<ele>105.202209</ele>
<time>2010-07-17T07:54:06Z</time>
<desc>lat.=55.878017, lon.=26.511232, Alt.=105.202209m. Speed=20.087999m/h.</desc>
<speed>5.580000</speed>
</trkpt>
<trkpt lat="55.877991" lon="26.511154">
<ele>105.542053</ele>
<time>2010-07-17T07:54:07Z</time>
<desc>lat.=55.877991, lon.=26.511154, Alt.=105.542053m. Speed=17.351999m/h.</desc>
<speed>4.820000</speed>
</trkpt>
<trkpt lat="55.877972" lon="26.511089">
<ele>104.518616</ele>
<time>2010-07-17T07:54:08Z</time>
<desc>lat.=55.877972, lon.=26.511089, Alt.=104.518616m. Speed=13.428000m/h.</desc>
<speed>3.730000</speed>
</trkpt>
<trkpt lat="55.877914" lon="26.511032">
<ele>101.311584</ele>
<time>2010-07-17T07:54:09Z</time>
<desc>lat.=55.877914, lon.=26.511032, Alt.=101.311584m. Speed=16.200001m/h.</desc>
<speed>4.500000</speed>
</trkpt>
<trkpt lat="55.877869" lon="26.510960">
<ele>99.282288</ele>
<time>2010-07-17T07:54:10Z</time>
<desc>lat.=55.877869, lon.=26.510960, Alt.=99.282288m. Speed=17.280001m/h.</desc>
<speed>4.800000</speed>
</trkpt>
<trkpt lat="55.877823" lon="26.510897">
<ele>97.778381</ele>
<time>2010-07-17T07:54:11Z</time>
<desc>lat.=55.877823, lon.=26.510897, Alt.=97.778381m. Speed=18.288000m/h.</desc>
<speed>5.080000</speed>
</trkpt>
<trkpt lat="55.877777" lon="26.510836">
<ele>97.241272</ele>
<time>2010-07-17T07:54:12Z</time>
<desc>lat.=55.877777, lon.=26.510836, Alt.=97.241272m. Speed=18.323999m/h.</desc>
<speed>5.090000</speed>
</trkpt>
<trkpt lat="55.877739" lon="26.510773">
<ele>95.192444</ele>
<time>2010-07-17T07:54:13Z</time>
<desc>lat.=55.877739, lon.=26.510773, Alt.=95.192444m. Speed=17.568001m/h.</desc>
<speed>4.880000</speed>
</trkpt>
<trkpt lat="55.877693" lon="26.510723">
<ele>93.733459</ele>
<time>2010-07-17T07:54:14Z</time>
<desc>lat.=55.877693, lon.=26.510723, Alt.=93.733459m. Speed=20.952000m/h.</desc>
<speed>5.820000</speed>
</trkpt>
<trkpt lat="55.877640" lon="26.510679">
<ele>94.047913</ele>
<time>2010-07-17T07:54:15Z</time>
<desc>lat.=55.877640, lon.=26.510679, Alt.=94.047913m. Speed=20.628000m/h.</desc>
<speed>5.730000</speed>
</trkpt>
<trkpt lat="55.877590" lon="26.510639">
<ele>93.708069</ele>
<time>2010-07-17T07:54:16Z</time>
<desc>lat.=55.877590, lon.=26.510639, Alt.=93.708069m. Speed=19.908001m/h.</desc>
<speed>5.530000</speed>
</trkpt>
<trkpt lat="55.877537" lon="26.510595">
<ele>92.895569</ele>
<time>2010-07-17T07:54:17Z</time>
<desc>lat.=55.877537, lon.=26.510595, Alt.=92.895569m. Speed=21.600000m/h.</desc>
<speed>6.000000</speed>
</trkpt>
<trkpt lat="55.877483" lon="26.510557">
<ele>92.651428</ele>
<time>2010-07-17T07:54:18Z</time>
<desc>lat.=55.877483, lon.=26.510557, Alt.=92.651428m. Speed=22.788000m/h.</desc>
<speed>6.330000</speed>
</trkpt>
<trkpt lat="55.877422" lon="26.510523">
<ele>92.743225</ele>
<time>2010-07-17T07:54:19Z</time>
<desc>lat.=55.877422, lon.=26.510523, Alt.=92.743225m. Speed=23.652000m/h.</desc>
<speed>6.570000</speed>
</trkpt>
<trkpt lat="55.877357" lon="26.510500">
<ele>93.278381</ele>
<time>2010-07-17T07:54:20Z</time>
<desc>lat.=55.877357, lon.=26.510500, Alt.=93.278381m. Speed=24.516001m/h.</desc>
<speed>6.810000</speed>
</trkpt>
<trkpt lat="55.877296" lon="26.510479">
<ele>93.178772</ele>
<time>2010-07-17T07:54:21Z</time>
<desc>lat.=55.877296, lon.=26.510479, Alt.=93.178772m. Speed=24.228001m/h.</desc>
<speed>6.730000</speed>
</trkpt>
<trkpt lat="55.877232" lon="26.510462">
<ele>92.993225</ele>
<time>2010-07-17T07:54:22Z</time>
<desc>lat.=55.877232, lon.=26.510462, Alt.=92.993225m. Speed=24.480000m/h.</desc>
<speed>6.800000</speed>
</trkpt>
<trkpt lat="55.877171" lon="26.510450">
<ele>93.346741</ele>
<time>2010-07-17T07:54:23Z</time>
<desc>lat.=55.877171, lon.=26.510450, Alt.=93.346741m. Speed=23.615999m/h.</desc>
<speed>6.560000</speed>
</trkpt>
<trkpt lat="55.877110" lon="26.510437">
<ele>93.284241</ele>
<time>2010-07-17T07:54:24Z</time>
<desc>lat.=55.877110, lon.=26.510437, Alt.=93.284241m. Speed=22.572001m/h.</desc>
<speed>6.270000</speed>
</trkpt>
<trkpt lat="55.877060" lon="26.510420">
<ele>92.594788</ele>
<time>2010-07-17T07:54:25Z</time>
<desc>lat.=55.877060, lon.=26.510420, Alt.=92.594788m. Speed=22.068001m/h.</desc>
<speed>6.130000</speed>
</trkpt>
<trkpt lat="55.877007" lon="26.510420">
<ele>92.542053</ele>
<time>2010-07-17T07:54:26Z</time>
<desc>lat.=55.877007, lon.=26.510420, Alt.=92.542053m. Speed=21.924000m/h.</desc>
<speed>6.090000</speed>
</trkpt>
<trkpt lat="55.876942" lon="26.510424">
<ele>92.536194</ele>
<time>2010-07-17T07:54:27Z</time>
<desc>lat.=55.876942, lon.=26.510424, Alt.=92.536194m. Speed=24.660000m/h.</desc>
<speed>6.850000</speed>
</trkpt>
<trkpt lat="55.876881" lon="26.510416">
<ele>92.499084</ele>
<time>2010-07-17T07:54:28Z</time>
<desc>lat.=55.876881, lon.=26.510416, Alt.=92.499084m. Speed=24.624001m/h.</desc>
<speed>6.840000</speed>
</trkpt>
<trkpt lat="55.876816" lon="26.510389">
<ele>92.022522</ele>
<time>2010-07-17T07:54:29Z</time>
<desc>lat.=55.876816, lon.=26.510389, Alt.=92.022522m. Speed=26.351999m/h.</desc>
<speed>7.320000</speed>
</trkpt>
<trkpt lat="55.876759" lon="26.510376">
<ele>91.985413</ele>
<time>2010-07-17T07:54:30Z</time>
<desc>lat.=55.876759, lon.=26.510376, Alt.=91.985413m. Speed=23.940001m/h.</desc>
<speed>6.650000</speed>
</trkpt>
<trkpt lat="55.876694" lon="26.510361">
<ele>92.217834</ele>
<time>2010-07-17T07:54:31Z</time>
<desc>lat.=55.876694, lon.=26.510361, Alt.=92.217834m. Speed=25.416000m/h.</desc>
<speed>7.060000</speed>
</trkpt>
<trkpt lat="55.876629" lon="26.510349">
<ele>92.272522</ele>
<time>2010-07-17T07:54:32Z</time>
<desc>lat.=55.876629, lon.=26.510349, Alt.=92.272522m. Speed=26.063999m/h.</desc>
<speed>7.240000</speed>
</trkpt>
<trkpt lat="55.876564" lon="26.510332">
<ele>92.374084</ele>
<time>2010-07-17T07:54:33Z</time>
<desc>lat.=55.876564, lon.=26.510332, Alt.=92.374084m. Speed=27.035999m/h.</desc>
<speed>7.510000</speed>
</trkpt>
<trkpt lat="55.876503" lon="26.510324">
<ele>92.303772</ele>
<time>2010-07-17T07:54:34Z</time>
<desc>lat.=55.876503, lon.=26.510324, Alt.=92.303772m. Speed=25.236000m/h.</desc>
<speed>7.010000</speed>
</trkpt>
<trkpt lat="55.876434" lon="26.510311">
<ele>92.450256</ele>
<time>2010-07-17T07:54:35Z</time>
<desc>lat.=55.876434, lon.=26.510311, Alt.=92.450256m. Speed=26.208000m/h.</desc>
<speed>7.280000</speed>
</trkpt>
<trkpt lat="55.876369" lon="26.510307">
<ele>92.335022</ele>
<time>2010-07-17T07:54:36Z</time>
<desc>lat.=55.876369, lon.=26.510307, Alt.=92.335022m. Speed=25.128000m/h.</desc>
<speed>6.980000</speed>
</trkpt>
<trkpt lat="55.876308" lon="26.510307">
<ele>92.274475</ele>
<time>2010-07-17T07:54:37Z</time>
<desc>lat.=55.876308, lon.=26.510307, Alt.=92.274475m. Speed=23.219999m/h.</desc>
<speed>6.450000</speed>
</trkpt>
<trkpt lat="55.876247" lon="26.510307">
<ele>92.116272</ele>
<time>2010-07-17T07:54:38Z</time>
<desc>lat.=55.876247, lon.=26.510307, Alt.=92.116272m. Speed=23.076000m/h.</desc>
<speed>6.410000</speed>
</trkpt>
<trkpt lat="55.876186" lon="26.510321">
<ele>92.079163</ele>
<time>2010-07-17T07:54:39Z</time>
<desc>lat.=55.876186, lon.=26.510321, Alt.=92.079163m. Speed=22.500000m/h.</desc>
<speed>6.250000</speed>
</trkpt>
<trkpt lat="55.876129" lon="26.510328">
<ele>91.987366</ele>
<time>2010-07-17T07:54:40Z</time>
<desc>lat.=55.876129, lon.=26.510328, Alt.=91.987366m. Speed=21.851999m/h.</desc>
<speed>6.070000</speed>
</trkpt>
<trkpt lat="55.876072" lon="26.510332">
<ele>91.805725</ele>
<time>2010-07-17T07:54:41Z</time>
<desc>lat.=55.876072, lon.=26.510332, Alt.=91.805725m. Speed=20.844000m/h.</desc>
<speed>5.790000</speed>
</trkpt>
<trkpt lat="55.876015" lon="26.510353">
<ele>91.749084</ele>
<time>2010-07-17T07:54:42Z</time>
<desc>lat.=55.876015, lon.=26.510353, Alt.=91.749084m. Speed=21.528000m/h.</desc>
<speed>5.980000</speed>
</trkpt>
<trkpt lat="55.875961" lon="26.510361">
<ele>91.653381</ele>
<time>2010-07-17T07:54:43Z</time>
<desc>lat.=55.875961, lon.=26.510361, Alt.=91.653381m. Speed=21.672001m/h.</desc>
<speed>6.020000</speed>
</trkpt>
<trkpt lat="55.875896" lon="26.510357">
<ele>91.655334</ele>
<time>2010-07-17T07:54:44Z</time>
<desc>lat.=55.875896, lon.=26.510357, Alt.=91.655334m. Speed=23.903999m/h.</desc>
<speed>6.640000</speed>
</trkpt>
<trkpt lat="55.875828" lon="26.510338">
<ele>91.745178</ele>
<time>2010-07-17T07:54:45Z</time>
<desc>lat.=55.875828, lon.=26.510338, Alt.=91.745178m. Speed=24.875999m/h.</desc>
<speed>6.910000</speed>
</trkpt>
<trkpt lat="55.875774" lon="26.510363">
<ele>91.190491</ele>
<time>2010-07-17T07:54:46Z</time>
<desc>lat.=55.875774, lon.=26.510363, Alt.=91.190491m. Speed=23.256001m/h.</desc>
<speed>6.460000</speed>
</trkpt>
<trkpt lat="55.875717" lon="26.510372">
<ele>91.256897</ele>
<time>2010-07-17T07:54:47Z</time>
<desc>lat.=55.875717, lon.=26.510372, Alt.=91.256897m. Speed=23.112000m/h.</desc>
<speed>6.420000</speed>
</trkpt>
<trkpt lat="55.875664" lon="26.510393">
<ele>91.172913</ele>
<time>2010-07-17T07:54:48Z</time>
<desc>lat.=55.875664, lon.=26.510393, Alt.=91.172913m. Speed=20.952000m/h.</desc>
<speed>5.820000</speed>
</trkpt>
<trkpt lat="55.875610" lon="26.510406">
<ele>90.954163</ele>
<time>2010-07-17T07:54:49Z</time>
<desc>lat.=55.875610, lon.=26.510406, Alt.=90.954163m. Speed=20.808001m/h.</desc>
<speed>5.780000</speed>
</trkpt>
<trkpt lat="55.875557" lon="26.510422">
<ele>90.885803</ele>
<time>2010-07-17T07:54:50Z</time>
<desc>lat.=55.875557, lon.=26.510422, Alt.=90.885803m. Speed=20.628000m/h.</desc>
<speed>5.730000</speed>
</trkpt>
<trkpt lat="55.875500" lon="26.510433">
<ele>90.926819</ele>
<time>2010-07-17T07:54:51Z</time>
<desc>lat.=55.875500, lon.=26.510433, Alt.=90.926819m. Speed=21.816000m/h.</desc>
<speed>6.060000</speed>
</trkpt>
<trkpt lat="55.875443" lon="26.510443">
<ele>90.780334</ele>
<time>2010-07-17T07:54:52Z</time>
<desc>lat.=55.875443, lon.=26.510443, Alt.=90.780334m. Speed=20.340000m/h.</desc>
<speed>5.650000</speed>
</trkpt>
<trkpt lat="55.875393" lon="26.510456">
<ele>90.672913</ele>
<time>2010-07-17T07:54:53Z</time>
<desc>lat.=55.875393, lon.=26.510456, Alt.=90.672913m. Speed=18.792000m/h.</desc>
<speed>5.220000</speed>
</trkpt>
<trkpt lat="55.875347" lon="26.510468">
<ele>90.639709</ele>
<time>2010-07-17T07:54:54Z</time>
<desc>lat.=55.875347, lon.=26.510468, Alt.=90.639709m. Speed=19.044001m/h.</desc>
<speed>5.290000</speed>
</trkpt>
<trkpt lat="55.875301" lon="26.510485">
<ele>90.508850</ele>
<time>2010-07-17T07:54:55Z</time>
<desc>lat.=55.875301, lon.=26.510485, Alt.=90.508850m. Speed=17.568001m/h.</desc>
<speed>4.880000</speed>
</trkpt>
<trkpt lat="55.875256" lon="26.510504">
<ele>90.452209</ele>
<time>2010-07-17T07:54:56Z</time>
<desc>lat.=55.875256, lon.=26.510504, Alt.=90.452209m. Speed=17.676001m/h.</desc>
<speed>4.910000</speed>
</trkpt>
<trkpt lat="55.875195" lon="26.510513">
<ele>90.208069</ele>
<time>2010-07-17T07:54:57Z</time>
<desc>lat.=55.875195, lon.=26.510513, Alt.=90.208069m. Speed=19.368000m/h.</desc>
<speed>5.380000</speed>
</trkpt>
<trkpt lat="55.875141" lon="26.510532">
<ele>90.145569</ele>
<time>2010-07-17T07:54:58Z</time>
<desc>lat.=55.875141, lon.=26.510532, Alt.=90.145569m. Speed=18.719999m/h.</desc>
<speed>5.200000</speed>
</trkpt>
<trkpt lat="55.875084" lon="26.510540">
<ele>89.911194</ele>
<time>2010-07-17T07:54:59Z</time>
<desc>lat.=55.875084, lon.=26.510540, Alt.=89.911194m. Speed=16.920000m/h.</desc>
<speed>4.700000</speed>
</trkpt>
<trkpt lat="55.875023" lon="26.510542">
<ele>89.825256</ele>
<time>2010-07-17T07:55:00Z</time>
<desc>lat.=55.875023, lon.=26.510542, Alt.=89.825256m. Speed=20.195999m/h.</desc>
<speed>5.610000</speed>
</trkpt>
<trkpt lat="55.874962" lon="26.510530">
<ele>89.737366</ele>
<time>2010-07-17T07:55:01Z</time>
<desc>lat.=55.874962, lon.=26.510530, Alt.=89.737366m. Speed=21.600000m/h.</desc>
<speed>6.000000</speed>
</trkpt>
<trkpt lat="55.874901" lon="26.510529">
<ele>89.657288</ele>
<time>2010-07-17T07:55:02Z</time>
<desc>lat.=55.874901, lon.=26.510529, Alt.=89.657288m. Speed=18.972000m/h.</desc>
<speed>5.270000</speed>
</trkpt>
<trkpt lat="55.874844" lon="26.510530">
<ele>89.567444</ele>
<time>2010-07-17T07:55:03Z</time>
<desc>lat.=55.874844, lon.=26.510530, Alt.=89.567444m. Speed=20.412001m/h.</desc>
<speed>5.670000</speed>
</trkpt>
<trkpt lat="55.874779" lon="26.510519">
<ele>89.823303</ele>
<time>2010-07-17T07:55:04Z</time>
<desc>lat.=55.874779, lon.=26.510519, Alt.=89.823303m. Speed=20.483999m/h.</desc>
<speed>5.690000</speed>
</trkpt>
<trkpt lat="55.874710" lon="26.510494">
<ele>90.004944</ele>
<time>2010-07-17T07:55:05Z</time>
<desc>lat.=55.874710, lon.=26.510494, Alt.=90.004944m. Speed=19.260000m/h.</desc>
<speed>5.350000</speed>
</trkpt>
<trkpt lat="55.874657" lon="26.510479">
<ele>90.211975</ele>
<time>2010-07-17T07:55:06Z</time>
<desc>lat.=55.874657, lon.=26.510479, Alt.=90.211975m. Speed=17.172001m/h.</desc>
<speed>4.770000</speed>
</trkpt>
<trkpt lat="55.874603" lon="26.510485">
<ele>90.294006</ele>
<time>2010-07-17T07:55:07Z</time>
<desc>lat.=55.874603, lon.=26.510485, Alt.=90.294006m. Speed=18.323999m/h.</desc>
<speed>5.090000</speed>
</trkpt>
<trkpt lat="55.874542" lon="26.510504">
<ele>90.303772</ele>
<time>2010-07-17T07:55:08Z</time>
<desc>lat.=55.874542, lon.=26.510504, Alt.=90.303772m. Speed=21.240000m/h.</desc>
<speed>5.900000</speed>
</trkpt>
<trkpt lat="55.874477" lon="26.510509">
<ele>90.366272</ele>
<time>2010-07-17T07:55:09Z</time>
<desc>lat.=55.874477, lon.=26.510509, Alt.=90.366272m. Speed=20.268000m/h.</desc>
<speed>5.630000</speed>
</trkpt>
<trkpt lat="55.874424" lon="26.510538">
<ele>90.463928</ele>
<time>2010-07-17T07:55:10Z</time>
<desc>lat.=55.874424, lon.=26.510538, Alt.=90.463928m. Speed=20.160000m/h.</desc>
<speed>5.600000</speed>
</trkpt>
<trkpt lat="55.874378" lon="26.510584">
<ele>90.321350</ele>
<time>2010-07-17T07:55:11Z</time>
<desc>lat.=55.874378, lon.=26.510584, Alt.=90.321350m. Speed=20.591999m/h.</desc>
<speed>5.720000</speed>
</trkpt>
<trkpt lat="55.874329" lon="26.510628">
<ele>90.448303</ele>
<time>2010-07-17T07:55:12Z</time>
<desc>lat.=55.874329, lon.=26.510628, Alt.=90.448303m. Speed=20.304001m/h.</desc>
<speed>5.640000</speed>
</trkpt>
<trkpt lat="55.874275" lon="26.510679">
<ele>90.473694</ele>
<time>2010-07-17T07:55:13Z</time>
<desc>lat.=55.874275, lon.=26.510679, Alt.=90.473694m. Speed=22.823999m/h.</desc>
<speed>6.340000</speed>
</trkpt>
<trkpt lat="55.874218" lon="26.510727">
<ele>90.682678</ele>
<time>2010-07-17T07:55:14Z</time>
<desc>lat.=55.874218, lon.=26.510727, Alt.=90.682678m. Speed=22.320000m/h.</desc>
<speed>6.200000</speed>
</trkpt>
<trkpt lat="55.874168" lon="26.510775">
<ele>91.135803</ele>
<time>2010-07-17T07:55:15Z</time>
<desc>lat.=55.874168, lon.=26.510775, Alt.=91.135803m. Speed=22.427999m/h.</desc>
<speed>6.230000</speed>
</trkpt>
<trkpt lat="55.874119" lon="26.510853">
<ele>90.969788</ele>
<time>2010-07-17T07:55:16Z</time>
<desc>lat.=55.874119, lon.=26.510853, Alt.=90.969788m. Speed=20.375999m/h.</desc>
<speed>5.660000</speed>
</trkpt>
<trkpt lat="55.874088" lon="26.510925">
<ele>91.069397</ele>
<time>2010-07-17T07:55:17Z</time>
<desc>lat.=55.874088, lon.=26.510925, Alt.=91.069397m. Speed=17.172001m/h.</desc>
<speed>4.770000</speed>
</trkpt>
<trkpt lat="55.874039" lon="26.510967">
<ele>91.210022</ele>
<time>2010-07-17T07:55:18Z</time>
<desc>lat.=55.874039, lon.=26.510967, Alt.=91.210022m. Speed=16.740000m/h.</desc>
<speed>4.650000</speed>
</trkpt>
<trkpt lat="55.873974" lon="26.511030">
<ele>91.051819</ele>
<time>2010-07-17T07:55:19Z</time>
<desc>lat.=55.873974, lon.=26.511030, Alt.=91.051819m. Speed=19.260000m/h.</desc>
<speed>5.350000</speed>
</trkpt>
<trkpt lat="55.873920" lon="26.511078">
<ele>91.208069</ele>
<time>2010-07-17T07:55:20Z</time>
<desc>lat.=55.873920, lon.=26.511078, Alt.=91.208069m. Speed=20.700001m/h.</desc>
<speed>5.750000</speed>
</trkpt>
<trkpt lat="55.873875" lon="26.511131">
<ele>91.356506</ele>
<time>2010-07-17T07:55:21Z</time>
<desc>lat.=55.873875, lon.=26.511131, Alt.=91.356506m. Speed=20.520000m/h.</desc>
<speed>5.700000</speed>
</trkpt>
<trkpt lat="55.873810" lon="26.511196">
<ele>91.374084</ele>
<time>2010-07-17T07:55:22Z</time>
<desc>lat.=55.873810, lon.=26.511196, Alt.=91.374084m. Speed=22.464001m/h.</desc>
<speed>6.240000</speed>
</trkpt>
<trkpt lat="55.873756" lon="26.511250">
<ele>91.485413</ele>
<time>2010-07-17T07:55:23Z</time>
<desc>lat.=55.873756, lon.=26.511250, Alt.=91.485413m. Speed=23.004000m/h.</desc>
<speed>6.390000</speed>
</trkpt>
<trkpt lat="55.873703" lon="26.511299">
<ele>91.702209</ele>
<time>2010-07-17T07:55:24Z</time>
<desc>lat.=55.873703, lon.=26.511299, Alt.=91.702209m. Speed=21.959999m/h.</desc>
<speed>6.100000</speed>
</trkpt>
<trkpt lat="55.873653" lon="26.511349">
<ele>91.954163</ele>
<time>2010-07-17T07:55:25Z</time>
<desc>lat.=55.873653, lon.=26.511349, Alt.=91.954163m. Speed=22.464001m/h.</desc>
<speed>6.240000</speed>
</trkpt>
<trkpt lat="55.873608" lon="26.511398">
<ele>91.811584</ele>
<time>2010-07-17T07:55:26Z</time>
<desc>lat.=55.873608, lon.=26.511398, Alt.=91.811584m. Speed=18.323999m/h.</desc>
<speed>5.090000</speed>
</trkpt>
<trkpt lat="55.873569" lon="26.511459">
<ele>91.948303</ele>
<time>2010-07-17T07:55:27Z</time>
<desc>lat.=55.873569, lon.=26.511459, Alt.=91.948303m. Speed=18.431999m/h.</desc>
<speed>5.120000</speed>
</trkpt>
<trkpt lat="55.873531" lon="26.511518">
<ele>91.995178</ele>
<time>2010-07-17T07:55:28Z</time>
<desc>lat.=55.873531, lon.=26.511518, Alt.=91.995178m. Speed=19.080000m/h.</desc>
<speed>5.300000</speed>
</trkpt>
<trkpt lat="55.873489" lon="26.511568">
<ele>92.096741</ele>
<time>2010-07-17T07:55:29Z</time>
<desc>lat.=55.873489, lon.=26.511568, Alt.=92.096741m. Speed=18.648001m/h.</desc>
<speed>5.180000</speed>
</trkpt>
<trkpt lat="55.873447" lon="26.511618">
<ele>92.147522</ele>
<time>2010-07-17T07:55:30Z</time>
<desc>lat.=55.873447, lon.=26.511618, Alt.=92.147522m. Speed=19.620001m/h.</desc>
<speed>5.450000</speed>
</trkpt>
<trkpt lat="55.873405" lon="26.511660">
<ele>92.278381</ele>
<time>2010-07-17T07:55:31Z</time>
<desc>lat.=55.873405, lon.=26.511660, Alt.=92.278381m. Speed=17.784000m/h.</desc>
<speed>4.940000</speed>
</trkpt>
<trkpt lat="55.873360" lon="26.511698">
<ele>92.370178</ele>
<time>2010-07-17T07:55:32Z</time>
<desc>lat.=55.873360, lon.=26.511698, Alt.=92.370178m. Speed=17.424000m/h.</desc>
<speed>4.840000</speed>
</trkpt>
<trkpt lat="55.873322" lon="26.511747">
<ele>92.243225</ele>
<time>2010-07-17T07:55:33Z</time>
<desc>lat.=55.873322, lon.=26.511747, Alt.=92.243225m. Speed=14.904000m/h.</desc>
<speed>4.140000</speed>
</trkpt>
<trkpt lat="55.873260" lon="26.511774">
<ele>92.504944</ele>
<time>2010-07-17T07:55:34Z</time>
<desc>lat.=55.873260, lon.=26.511774, Alt.=92.504944m. Speed=15.120000m/h.</desc>
<speed>4.200000</speed>
</trkpt>
<trkpt lat="55.873219" lon="26.511805">
<ele>92.454163</ele>
<time>2010-07-17T07:55:35Z</time>
<desc>lat.=55.873219, lon.=26.511805, Alt.=92.454163m. Speed=15.264000m/h.</desc>
<speed>4.240000</speed>
</trkpt>
<trkpt lat="55.873177" lon="26.511841">
<ele>92.038147</ele>
<time>2010-07-17T07:55:36Z</time>
<desc>lat.=55.873177, lon.=26.511841, Alt.=92.038147m. Speed=15.732000m/h.</desc>
<speed>4.370000</speed>
</trkpt>
<trkpt lat="55.873119" lon="26.511835">
<ele>92.282288</ele>
<time>2010-07-17T07:55:37Z</time>
<desc>lat.=55.873119, lon.=26.511835, Alt.=92.282288m. Speed=13.824000m/h.</desc>
<speed>3.840000</speed>
</trkpt>
<trkpt lat="55.873085" lon="26.511824">
<ele>92.432678</ele>
<time>2010-07-17T07:55:38Z</time>
<desc>lat.=55.873085, lon.=26.511824, Alt.=92.432678m. Speed=13.788000m/h.</desc>
<speed>3.830000</speed>
</trkpt>
<trkpt lat="55.873058" lon="26.511799">
<ele>92.612366</ele>
<time>2010-07-17T07:55:39Z</time>
<desc>lat.=55.873058, lon.=26.511799, Alt.=92.612366m. Speed=11.700000m/h.</desc>
<speed>3.250000</speed>
</trkpt>
<trkpt lat="55.873035" lon="26.511759">
<ele>92.776428</ele>
<time>2010-07-17T07:55:40Z</time>
<desc>lat.=55.873035, lon.=26.511759, Alt.=92.776428m. Speed=12.924000m/h.</desc>
<speed>3.590000</speed>
</trkpt>
<trkpt lat="55.873016" lon="26.511711">
<ele>92.932678</ele>
<time>2010-07-17T07:55:41Z</time>
<desc>lat.=55.873016, lon.=26.511711, Alt.=92.932678m. Speed=13.248000m/h.</desc>
<speed>3.680000</speed>
</trkpt>
<trkpt lat="55.873005" lon="26.511662">
<ele>93.143616</ele>
<time>2010-07-17T07:55:42Z</time>
<desc>lat.=55.873005, lon.=26.511662, Alt.=93.143616m. Speed=11.664000m/h.</desc>
<speed>3.240000</speed>
</trkpt>
<trkpt lat="55.872990" lon="26.511627">
<ele>93.323303</ele>
<time>2010-07-17T07:55:43Z</time>
<desc>lat.=55.872990, lon.=26.511627, Alt.=93.323303m. Speed=9.216000m/h.</desc>
<speed>2.560000</speed>
</trkpt>
<trkpt lat="55.872974" lon="26.511597">
<ele>93.524475</ele>
<time>2010-07-17T07:55:44Z</time>
<desc>lat.=55.872974, lon.=26.511597, Alt.=93.524475m. Speed=8.856000m/h.</desc>
<speed>2.460000</speed>
</trkpt>
<trkpt lat="55.872948" lon="26.511566">
<ele>93.766663</ele>
<time>2010-07-17T07:55:45Z</time>
<desc>lat.=55.872948, lon.=26.511566, Alt.=93.766663m. Speed=11.520000m/h.</desc>
<speed>3.200000</speed>
</trkpt>
<trkpt lat="55.872925" lon="26.511520">
<ele>94.002991</ele>
<time>2010-07-17T07:55:46Z</time>
<desc>lat.=55.872925, lon.=26.511520, Alt.=94.002991m. Speed=12.888000m/h.</desc>
<speed>3.580000</speed>
</trkpt>
<trkpt lat="55.872898" lon="26.511477">
<ele>94.331116</ele>
<time>2010-07-17T07:55:47Z</time>
<desc>lat.=55.872898, lon.=26.511477, Alt.=94.331116m. Speed=14.544000m/h.</desc>
<speed>4.040000</speed>
</trkpt>
<trkpt lat="55.872879" lon="26.511415">
<ele>94.809631</ele>
<time>2010-07-17T07:55:48Z</time>
<desc>lat.=55.872879, lon.=26.511415, Alt.=94.809631m. Speed=17.568001m/h.</desc>
<speed>4.880000</speed>
</trkpt>
<trkpt lat="55.872845" lon="26.511341">
<ele>94.960022</ele>
<time>2010-07-17T07:55:49Z</time>
<desc>lat.=55.872845, lon.=26.511341, Alt.=94.960022m. Speed=19.440001m/h.</desc>
<speed>5.400000</speed>
</trkpt>
<trkpt lat="55.872810" lon="26.511276">
<ele>95.286194</ele>
<time>2010-07-17T07:55:50Z</time>
<desc>lat.=55.872810, lon.=26.511276, Alt.=95.286194m. Speed=17.568001m/h.</desc>
<speed>4.880000</speed>
</trkpt>
<trkpt lat="55.872787" lon="26.511204">
<ele>95.672913</ele>
<time>2010-07-17T07:55:51Z</time>
<desc>lat.=55.872787, lon.=26.511204, Alt.=95.672913m. Speed=18.576000m/h.</desc>
<speed>5.160000</speed>
</trkpt>
<trkpt lat="55.872757" lon="26.511099">
<ele>96.055725</ele>
<time>2010-07-17T07:55:52Z</time>
<desc>lat.=55.872757, lon.=26.511099, Alt.=96.055725m. Speed=22.464001m/h.</desc>
<speed>6.240000</speed>
</trkpt>
<trkpt lat="55.872730" lon="26.511017">
<ele>96.489319</ele>
<time>2010-07-17T07:55:53Z</time>
<desc>lat.=55.872730, lon.=26.511017, Alt.=96.489319m. Speed=17.388000m/h.</desc>
<speed>4.830000</speed>
</trkpt>
<trkpt lat="55.872719" lon="26.510925">
<ele>96.795959</ele>
<time>2010-07-17T07:55:54Z</time>
<desc>lat.=55.872719, lon.=26.510925, Alt.=96.795959m. Speed=18.323999m/h.</desc>
<speed>5.090000</speed>
</trkpt>
<trkpt lat="55.872704" lon="26.510830">
<ele>97.106506</ele>
<time>2010-07-17T07:55:55Z</time>
<desc>lat.=55.872704, lon.=26.510830, Alt.=97.106506m. Speed=18.719999m/h.</desc>
<speed>5.200000</speed>
</trkpt>
<trkpt lat="55.872684" lon="26.510738">
<ele>97.501038</ele>
<time>2010-07-17T07:55:56Z</time>
<desc>lat.=55.872684, lon.=26.510738, Alt.=97.501038m. Speed=17.063999m/h.</desc>
<speed>4.740000</speed>
</trkpt>
<trkpt lat="55.872654" lon="26.510647">
<ele>97.940491</ele>
<time>2010-07-17T07:55:57Z</time>
<desc>lat.=55.872654, lon.=26.510647, Alt.=97.940491m. Speed=20.124001m/h.</desc>
<speed>5.590000</speed>
</trkpt>
<trkpt lat="55.872612" lon="26.510553">
<ele>98.346741</ele>
<time>2010-07-17T07:55:58Z</time>
<desc>lat.=55.872612, lon.=26.510553, Alt.=98.346741m. Speed=22.139999m/h.</desc>
<speed>6.150000</speed>
</trkpt>
<trkpt lat="55.872574" lon="26.510439">
<ele>98.446350</ele>
<time>2010-07-17T07:55:59Z</time>
<desc>lat.=55.872574, lon.=26.510439, Alt.=98.446350m. Speed=23.507999m/h.</desc>
<speed>6.530000</speed>
</trkpt>
<trkpt lat="55.872532" lon="26.510298">
<ele>97.790100</ele>
<time>2010-07-17T07:56:00Z</time>
<desc>lat.=55.872532, lon.=26.510298, Alt.=97.790100m. Speed=23.148001m/h.</desc>
<speed>6.430000</speed>
</trkpt>
<trkpt lat="55.872471" lon="26.510193">
<ele>97.831116</ele>
<time>2010-07-17T07:56:01Z</time>
<desc>lat.=55.872471, lon.=26.510193, Alt.=97.831116m. Speed=23.472000m/h.</desc>
<speed>6.520000</speed>
</trkpt>
<trkpt lat="55.872448" lon="26.510036">
<ele>97.083069</ele>
<time>2010-07-17T07:56:02Z</time>
<desc>lat.=55.872448, lon.=26.510036, Alt.=97.083069m. Speed=21.132000m/h.</desc>
<speed>5.870000</speed>
</trkpt>
<trkpt lat="55.872425" lon="26.509916">
<ele>96.528381</ele>
<time>2010-07-17T07:56:03Z</time>
<desc>lat.=55.872425, lon.=26.509916, Alt.=96.528381m. Speed=20.195999m/h.</desc>
<speed>5.610000</speed>
</trkpt>
<trkpt lat="55.872410" lon="26.509794">
<ele>95.922913</ele>
<time>2010-07-17T07:56:04Z</time>
<desc>lat.=55.872410, lon.=26.509794, Alt.=95.922913m. Speed=19.980000m/h.</desc>
<speed>5.550000</speed>
</trkpt>
<trkpt lat="55.872383" lon="26.509708">
<ele>96.004944</ele>
<time>2010-07-17T07:56:05Z</time>
<desc>lat.=55.872383, lon.=26.509708, Alt.=96.004944m. Speed=19.044001m/h.</desc>
<speed>5.290000</speed>
</trkpt>
<trkpt lat="55.872356" lon="26.509602">
<ele>95.528381</ele>
<time>2010-07-17T07:56:06Z</time>
<desc>lat.=55.872356, lon.=26.509602, Alt.=95.528381m. Speed=19.980000m/h.</desc>
<speed>5.550000</speed>
</trkpt>
<trkpt lat="55.872318" lon="26.509520">
<ele>95.137756</ele>
<time>2010-07-17T07:56:07Z</time>
<desc>lat.=55.872318, lon.=26.509520, Alt.=95.137756m. Speed=19.080000m/h.</desc>
<speed>5.300000</speed>
</trkpt>
<trkpt lat="55.872280" lon="26.509443">
<ele>95.243225</ele>
<time>2010-07-17T07:56:08Z</time>
<desc>lat.=55.872280, lon.=26.509443, Alt.=95.243225m. Speed=19.799999m/h.</desc>
<speed>5.500000</speed>
</trkpt>
<trkpt lat="55.872234" lon="26.509357">
<ele>95.815491</ele>
<time>2010-07-17T07:56:09Z</time>
<desc>lat.=55.872234, lon.=26.509357, Alt.=95.815491m. Speed=20.916000m/h.</desc>
<speed>5.810000</speed>
</trkpt>
<trkpt lat="55.872200" lon="26.509262">
<ele>95.504944</ele>
<time>2010-07-17T07:56:10Z</time>
<desc>lat.=55.872200, lon.=26.509262, Alt.=95.504944m. Speed=22.139999m/h.</desc>
<speed>6.150000</speed>
</trkpt>
<trkpt lat="55.872162" lon="26.509176">
<ele>95.495178</ele>
<time>2010-07-17T07:56:11Z</time>
<desc>lat.=55.872162, lon.=26.509176, Alt.=95.495178m. Speed=21.059999m/h.</desc>
<speed>5.850000</speed>
</trkpt>
<trkpt lat="55.872105" lon="26.509096">
<ele>95.131897</ele>
<time>2010-07-17T07:56:12Z</time>
<desc>lat.=55.872105, lon.=26.509096, Alt.=95.131897m. Speed=22.788000m/h.</desc>
<speed>6.330000</speed>
</trkpt>
<trkpt lat="55.872055" lon="26.509024">
<ele>94.497131</ele>
<time>2010-07-17T07:56:13Z</time>
<desc>lat.=55.872055, lon.=26.509024, Alt.=94.497131m. Speed=22.572001m/h.</desc>
<speed>6.270000</speed>
</trkpt>
<trkpt lat="55.872005" lon="26.508976">
<ele>94.540100</ele>
<time>2010-07-17T07:56:14Z</time>
<desc>lat.=55.872005, lon.=26.508976, Alt.=94.540100m. Speed=21.275999m/h.</desc>
<speed>5.910000</speed>
</trkpt>
<trkpt lat="55.871948" lon="26.508938">
<ele>94.624084</ele>
<time>2010-07-17T07:56:15Z</time>
<desc>lat.=55.871948, lon.=26.508938, Alt.=94.624084m. Speed=22.464001m/h.</desc>
<speed>6.240000</speed>
</trkpt>
<trkpt lat="55.871899" lon="26.508904">
<ele>94.876038</ele>
<time>2010-07-17T07:56:16Z</time>
<desc>lat.=55.871899, lon.=26.508904, Alt.=94.876038m. Speed=21.996000m/h.</desc>
<speed>6.110000</speed>
</trkpt>
<trkpt lat="55.871845" lon="26.508865">
<ele>95.055725</ele>
<time>2010-07-17T07:56:17Z</time>
<desc>lat.=55.871845, lon.=26.508865, Alt.=95.055725m. Speed=20.952000m/h.</desc>
<speed>5.820000</speed>
</trkpt>
<trkpt lat="55.871792" lon="26.508841">
<ele>95.163147</ele>
<time>2010-07-17T07:56:18Z</time>
<desc>lat.=55.871792, lon.=26.508841, Alt.=95.163147m. Speed=21.492001m/h.</desc>
<speed>5.970000</speed>
</trkpt>
<trkpt lat="55.871742" lon="26.508808">
<ele>95.141663</ele>
<time>2010-07-17T07:56:19Z</time>
<desc>lat.=55.871742, lon.=26.508808, Alt.=95.141663m. Speed=21.851999m/h.</desc>
<speed>6.070000</speed>
</trkpt>
<trkpt lat="55.871689" lon="26.508776">
<ele>95.104553</ele>
<time>2010-07-17T07:56:20Z</time>
<desc>lat.=55.871689, lon.=26.508776, Alt.=95.104553m. Speed=22.068001m/h.</desc>
<speed>6.130000</speed>
</trkpt>
<trkpt lat="55.871635" lon="26.508745">
<ele>95.305725</ele>
<time>2010-07-17T07:56:21Z</time>
<desc>lat.=55.871635, lon.=26.508745, Alt.=95.305725m. Speed=21.563999m/h.</desc>
<speed>5.990000</speed>
</trkpt>
<trkpt lat="55.871582" lon="26.508713">
<ele>95.251038</ele>
<time>2010-07-17T07:56:22Z</time>
<desc>lat.=55.871582, lon.=26.508713, Alt.=95.251038m. Speed=21.708000m/h.</desc>
<speed>6.030000</speed>
</trkpt>
<trkpt lat="55.871532" lon="26.508669">
<ele>95.020569</ele>
<time>2010-07-17T07:56:23Z</time>
<desc>lat.=55.871532, lon.=26.508669, Alt.=95.020569m. Speed=21.492001m/h.</desc>
<speed>5.970000</speed>
</trkpt>
<trkpt lat="55.871487" lon="26.508619">
<ele>94.682678</ele>
<time>2010-07-17T07:56:24Z</time>
<desc>lat.=55.871487, lon.=26.508619, Alt.=94.682678m. Speed=21.240000m/h.</desc>
<speed>5.900000</speed>
</trkpt>
<trkpt lat="55.871429" lon="26.508572">
<ele>94.387756</ele>
<time>2010-07-17T07:56:25Z</time>
<desc>lat.=55.871429, lon.=26.508572, Alt.=94.387756m. Speed=21.600000m/h.</desc>
<speed>6.000000</speed>
</trkpt>
<trkpt lat="55.871376" lon="26.508533">
<ele>94.292053</ele>
<time>2010-07-17T07:56:26Z</time>
<desc>lat.=55.871376, lon.=26.508533, Alt.=94.292053m. Speed=20.844000m/h.</desc>
<speed>5.790000</speed>
</trkpt>
<trkpt lat="55.871330" lon="26.508501">
<ele>94.325256</ele>
<time>2010-07-17T07:56:27Z</time>
<desc>lat.=55.871330, lon.=26.508501, Alt.=94.325256m. Speed=18.719999m/h.</desc>
<speed>5.200000</speed>
</trkpt>
<trkpt lat="55.871284" lon="26.508465">
<ele>94.229553</ele>
<time>2010-07-17T07:56:28Z</time>
<desc>lat.=55.871284, lon.=26.508465, Alt.=94.229553m. Speed=19.368000m/h.</desc>
<speed>5.380000</speed>
</trkpt>
<trkpt lat="55.871235" lon="26.508425">
<ele>94.247131</ele>
<time>2010-07-17T07:56:29Z</time>
<desc>lat.=55.871235, lon.=26.508425, Alt.=94.247131m. Speed=17.712000m/h.</desc>
<speed>4.920000</speed>
</trkpt>
<trkpt lat="55.871185" lon="26.508396">
<ele>93.950256</ele>
<time>2010-07-17T07:56:30Z</time>
<desc>lat.=55.871185, lon.=26.508396, Alt.=93.950256m. Speed=17.136000m/h.</desc>
<speed>4.760000</speed>
</trkpt>
<trkpt lat="55.871132" lon="26.508375">
<ele>93.520569</ele>
<time>2010-07-17T07:56:31Z</time>
<desc>lat.=55.871132, lon.=26.508375, Alt.=93.520569m. Speed=18.936001m/h.</desc>
<speed>5.260000</speed>
</trkpt>
<trkpt lat="55.871086" lon="26.508335">
<ele>92.706116</ele>
<time>2010-07-17T07:56:32Z</time>
<desc>lat.=55.871086, lon.=26.508335, Alt.=92.706116m. Speed=18.288000m/h.</desc>
<speed>5.080000</speed>
</trkpt>
<trkpt lat="55.871044" lon="26.508291">
<ele>91.831116</ele>
<time>2010-07-17T07:56:33Z</time>
<desc>lat.=55.871044, lon.=26.508291, Alt.=91.831116m. Speed=18.864000m/h.</desc>
<speed>5.240000</speed>
</trkpt>
<trkpt lat="55.870991" lon="26.508276">
<ele>91.495178</ele>
<time>2010-07-17T07:56:34Z</time>
<desc>lat.=55.870991, lon.=26.508276, Alt.=91.495178m. Speed=20.124001m/h.</desc>
<speed>5.590000</speed>
</trkpt>
<trkpt lat="55.870941" lon="26.508272">
<ele>91.450256</ele>
<time>2010-07-17T07:56:35Z</time>
<desc>lat.=55.870941, lon.=26.508272, Alt.=91.450256m. Speed=19.152000m/h.</desc>
<speed>5.320000</speed>
</trkpt>
<trkpt lat="55.870888" lon="26.508301">
<ele>91.721741</ele>
<time>2010-07-17T07:56:36Z</time>
<desc>lat.=55.870888, lon.=26.508301, Alt.=91.721741m. Speed=19.872000m/h.</desc>
<speed>5.520000</speed>
</trkpt>
<trkpt lat="55.870842" lon="26.508337">
<ele>91.754944</ele>
<time>2010-07-17T07:56:37Z</time>
<desc>lat.=55.870842, lon.=26.508337, Alt.=91.754944m. Speed=18.792000m/h.</desc>
<speed>5.220000</speed>
</trkpt>
<trkpt lat="55.870800" lon="26.508373">
<ele>92.372131</ele>
<time>2010-07-17T07:56:38Z</time>
<desc>lat.=55.870800, lon.=26.508373, Alt.=92.372131m. Speed=17.892000m/h.</desc>
<speed>4.970000</speed>
</trkpt>
<trkpt lat="55.870758" lon="26.508421">
<ele>92.522522</ele>
<time>2010-07-17T07:56:39Z</time>
<desc>lat.=55.870758, lon.=26.508421, Alt.=92.522522m. Speed=17.820000m/h.</desc>
<speed>4.950000</speed>
</trkpt>
<trkpt lat="55.870712" lon="26.508476">
<ele>92.436584</ele>
<time>2010-07-17T07:56:40Z</time>
<desc>lat.=55.870712, lon.=26.508476, Alt.=92.436584m. Speed=18.900000m/h.</desc>
<speed>5.250000</speed>
</trkpt>
<trkpt lat="55.870667" lon="26.508530">
<ele>92.008850</ele>
<time>2010-07-17T07:56:41Z</time>
<desc>lat.=55.870667, lon.=26.508530, Alt.=92.008850m. Speed=19.007999m/h.</desc>
<speed>5.280000</speed>
</trkpt>
<trkpt lat="55.870621" lon="26.508583">
<ele>91.422913</ele>
<time>2010-07-17T07:56:42Z</time>
<desc>lat.=55.870621, lon.=26.508583, Alt.=91.422913m. Speed=18.252001m/h.</desc>
<speed>5.070000</speed>
</trkpt>
<trkpt lat="55.870579" lon="26.508633">
<ele>90.682678</ele>
<time>2010-07-17T07:56:43Z</time>
<desc>lat.=55.870579, lon.=26.508633, Alt.=90.682678m. Speed=16.955999m/h.</desc>
<speed>4.710000</speed>
</trkpt>
<trkpt lat="55.870533" lon="26.508673">
<ele>90.198303</ele>
<time>2010-07-17T07:56:44Z</time>
<desc>lat.=55.870533, lon.=26.508673, Alt.=90.198303m. Speed=18.576000m/h.</desc>
<speed>5.160000</speed>
</trkpt>
<trkpt lat="55.870480" lon="26.508713">
<ele>89.463928</ele>
<time>2010-07-17T07:56:45Z</time>
<desc>lat.=55.870480, lon.=26.508713, Alt.=89.463928m. Speed=20.124001m/h.</desc>
<speed>5.590000</speed>
</trkpt>
<trkpt lat="55.870422" lon="26.508753">
<ele>88.710022</ele>
<time>2010-07-17T07:56:46Z</time>
<desc>lat.=55.870422, lon.=26.508753, Alt.=88.710022m. Speed=19.511999m/h.</desc>
<speed>5.420000</speed>
</trkpt>
<trkpt lat="55.870380" lon="26.508797">
<ele>88.169006</ele>
<time>2010-07-17T07:56:47Z</time>
<desc>lat.=55.870380, lon.=26.508797, Alt.=88.169006m. Speed=18.216000m/h.</desc>
<speed>5.060000</speed>
</trkpt>
<trkpt lat="55.870335" lon="26.508848">
<ele>87.754944</ele>
<time>2010-07-17T07:56:48Z</time>
<desc>lat.=55.870335, lon.=26.508848, Alt.=87.754944m. Speed=18.216000m/h.</desc>
<speed>5.060000</speed>
</trkpt>
<trkpt lat="55.870289" lon="26.508894">
<ele>87.717834</ele>
<time>2010-07-17T07:56:49Z</time>
<desc>lat.=55.870289, lon.=26.508894, Alt.=87.717834m. Speed=20.268000m/h.</desc>
<speed>5.630000</speed>
</trkpt>
<trkpt lat="55.870235" lon="26.508955">
<ele>87.186584</ele>
<time>2010-07-17T07:56:50Z</time>
<desc>lat.=55.870235, lon.=26.508955, Alt.=87.186584m. Speed=20.952000m/h.</desc>
<speed>5.820000</speed>
</trkpt>
<trkpt lat="55.870190" lon="26.509005">
<ele>86.872131</ele>
<time>2010-07-17T07:56:51Z</time>
<desc>lat.=55.870190, lon.=26.509005, Alt.=86.872131m. Speed=18.936001m/h.</desc>
<speed>5.260000</speed>
</trkpt>
<trkpt lat="55.870144" lon="26.509048">
<ele>86.661194</ele>
<time>2010-07-17T07:56:52Z</time>
<desc>lat.=55.870144, lon.=26.509048, Alt.=86.661194m. Speed=18.431999m/h.</desc>
<speed>5.120000</speed>
</trkpt>
<trkpt lat="55.870098" lon="26.509089">
<ele>86.686584</ele>
<time>2010-07-17T07:56:53Z</time>
<desc>lat.=55.870098, lon.=26.509089, Alt.=86.686584m. Speed=20.087999m/h.</desc>
<speed>5.580000</speed>
</trkpt>
<trkpt lat="55.870049" lon="26.509127">
<ele>86.684631</ele>
<time>2010-07-17T07:56:54Z</time>
<desc>lat.=55.870049, lon.=26.509127, Alt.=86.684631m. Speed=20.520000m/h.</desc>
<speed>5.700000</speed>
</trkpt>
<trkpt lat="55.870003" lon="26.509167">
<ele>87.586975</ele>
<time>2010-07-17T07:56:55Z</time>
<desc>lat.=55.870003, lon.=26.509167, Alt.=87.586975m. Speed=20.952000m/h.</desc>
<speed>5.820000</speed>
</trkpt>
<trkpt lat="55.869957" lon="26.509216">
<ele>87.424866</ele>
<time>2010-07-17T07:56:56Z</time>
<desc>lat.=55.869957, lon.=26.509216, Alt.=87.424866m. Speed=20.268000m/h.</desc>
<speed>5.630000</speed>
</trkpt>
<trkpt lat="55.869915" lon="26.509268">
<ele>86.792053</ele>
<time>2010-07-17T07:56:57Z</time>
<desc>lat.=55.869915, lon.=26.509268, Alt.=86.792053m. Speed=18.072001m/h.</desc>
<speed>5.020000</speed>
</trkpt>
<trkpt lat="55.869884" lon="26.509308">
<ele>87.077209</ele>
<time>2010-07-17T07:56:58Z</time>
<desc>lat.=55.869884, lon.=26.509308, Alt.=87.077209m. Speed=15.876000m/h.</desc>
<speed>4.410000</speed>
</trkpt>
<trkpt lat="55.869846" lon="26.509346">
<ele>86.985413</ele>
<time>2010-07-17T07:56:59Z</time>
<desc>lat.=55.869846, lon.=26.509346, Alt.=86.985413m. Speed=16.056000m/h.</desc>
<speed>4.460000</speed>
</trkpt>
<trkpt lat="55.869816" lon="26.509377">
<ele>86.831116</ele>
<time>2010-07-17T07:57:00Z</time>
<desc>lat.=55.869816, lon.=26.509377, Alt.=86.831116m. Speed=13.932000m/h.</desc>
<speed>3.870000</speed>
</trkpt>
<trkpt lat="55.869778" lon="26.509394">
<ele>86.268616</ele>
<time>2010-07-17T07:57:01Z</time>
<desc>lat.=55.869778, lon.=26.509394, Alt.=86.268616m. Speed=14.040000m/h.</desc>
<speed>3.900000</speed>
</trkpt>
<trkpt lat="55.869755" lon="26.509377">
<ele>86.352600</ele>
<time>2010-07-17T07:57:02Z</time>
<desc>lat.=55.869755, lon.=26.509377, Alt.=86.352600m. Speed=10.296000m/h.</desc>
<speed>2.860000</speed>
</trkpt>
<trkpt lat="55.869740" lon="26.509346">
<ele>86.376038</ele>
<time>2010-07-17T07:57:03Z</time>
<desc>lat.=55.869740, lon.=26.509346, Alt.=86.376038m. Speed=8.568000m/h.</desc>
<speed>2.380000</speed>
</trkpt>
<trkpt lat="55.869728" lon="26.509312">
<ele>86.014709</ele>
<time>2010-07-17T07:57:04Z</time>
<desc>lat.=55.869728, lon.=26.509312, Alt.=86.014709m. Speed=8.964000m/h.</desc>
<speed>2.490000</speed>
</trkpt>
<trkpt lat="55.869717" lon="26.509262">
<ele>85.764709</ele>
<time>2010-07-17T07:57:05Z</time>
<desc>lat.=55.869717, lon.=26.509262, Alt.=85.764709m. Speed=13.356000m/h.</desc>
<speed>3.710000</speed>
</trkpt>
<trkpt lat="55.869698" lon="26.509209">
<ele>86.249084</ele>
<time>2010-07-17T07:57:06Z</time>
<desc>lat.=55.869698, lon.=26.509209, Alt.=86.249084m. Speed=15.084000m/h.</desc>
<speed>4.190000</speed>
</trkpt>
<trkpt lat="55.869671" lon="26.509161">
<ele>87.362366</ele>
<time>2010-07-17T07:57:07Z</time>
<desc>lat.=55.869671, lon.=26.509161, Alt.=87.362366m. Speed=16.704000m/h.</desc>
<speed>4.640000</speed>
</trkpt>
<trkpt lat="55.869648" lon="26.509100">
<ele>86.756897</ele>
<time>2010-07-17T07:57:08Z</time>
<desc>lat.=55.869648, lon.=26.509100, Alt.=86.756897m. Speed=15.768000m/h.</desc>
<speed>4.380000</speed>
</trkpt>
<trkpt lat="55.869633" lon="26.509037">
<ele>88.358459</ele>
<time>2010-07-17T07:57:09Z</time>
<desc>lat.=55.869633, lon.=26.509037, Alt.=88.358459m. Speed=16.164000m/h.</desc>
<speed>4.490000</speed>
</trkpt>
<trkpt lat="55.869610" lon="26.508982">
<ele>88.286194</ele>
<time>2010-07-17T07:57:10Z</time>
<desc>lat.=55.869610, lon.=26.508982, Alt.=88.286194m. Speed=15.012000m/h.</desc>
<speed>4.170000</speed>
</trkpt>
<trkpt lat="55.869595" lon="26.508926">
<ele>88.485413</ele>
<time>2010-07-17T07:57:11Z</time>
<desc>lat.=55.869595, lon.=26.508926, Alt.=88.485413m. Speed=13.428000m/h.</desc>
<speed>3.730000</speed>
</trkpt>
<trkpt lat="55.869576" lon="26.508867">
<ele>88.596741</ele>
<time>2010-07-17T07:57:12Z</time>
<desc>lat.=55.869576, lon.=26.508867, Alt.=88.596741m. Speed=13.680000m/h.</desc>
<speed>3.800000</speed>
</trkpt>
<trkpt lat="55.869553" lon="26.508802">
<ele>88.510803</ele>
<time>2010-07-17T07:57:13Z</time>
<desc>lat.=55.869553, lon.=26.508802, Alt.=88.510803m. Speed=15.804000m/h.</desc>
<speed>4.390000</speed>
</trkpt>
<trkpt lat="55.869526" lon="26.508739">
<ele>88.477600</ele>
<time>2010-07-17T07:57:14Z</time>
<desc>lat.=55.869526, lon.=26.508739, Alt.=88.477600m. Speed=16.416000m/h.</desc>
<speed>4.560000</speed>
</trkpt>
<trkpt lat="55.869492" lon="26.508669">
<ele>88.710022</ele>
<time>2010-07-17T07:57:15Z</time>
<desc>lat.=55.869492, lon.=26.508669, Alt.=88.710022m. Speed=18.180000m/h.</desc>
<speed>5.050000</speed>
</trkpt>
<trkpt lat="55.869469" lon="26.508596">
<ele>88.260803</ele>
<time>2010-07-17T07:57:16Z</time>
<desc>lat.=55.869469, lon.=26.508596, Alt.=88.260803m. Speed=17.496000m/h.</desc>
<speed>4.860000</speed>
</trkpt>
<trkpt lat="55.869434" lon="26.508520">
<ele>87.844788</ele>
<time>2010-07-17T07:57:17Z</time>
<desc>lat.=55.869434, lon.=26.508520, Alt.=87.844788m. Speed=18.431999m/h.</desc>
<speed>5.120000</speed>
</trkpt>
<trkpt lat="55.869392" lon="26.508427">
<ele>88.420959</ele>
<time>2010-07-17T07:57:18Z</time>
<desc>lat.=55.869392, lon.=26.508427, Alt.=88.420959m. Speed=20.520000m/h.</desc>
<speed>5.700000</speed>
</trkpt>
<trkpt lat="55.869366" lon="26.508348">
<ele>87.350647</ele>
<time>2010-07-17T07:57:19Z</time>
<desc>lat.=55.869366, lon.=26.508348, Alt.=87.350647m. Speed=15.768000m/h.</desc>
<speed>4.380000</speed>
</trkpt>
<trkpt lat="55.869331" lon="26.508280">
<ele>84.481506</ele>
<time>2010-07-17T07:57:20Z</time>
<desc>lat.=55.869331, lon.=26.508280, Alt.=84.481506m. Speed=13.968000m/h.</desc>
<speed>3.880000</speed>
</trkpt>
<trkpt lat="55.869308" lon="26.508198">
<ele>83.948303</ele>
<time>2010-07-17T07:57:21Z</time>
<desc>lat.=55.869308, lon.=26.508198, Alt.=83.948303m. Speed=16.812000m/h.</desc>
<speed>4.670000</speed>
</trkpt>
<trkpt lat="55.869289" lon="26.508106">
<ele>84.583069</ele>
<time>2010-07-17T07:57:22Z</time>
<desc>lat.=55.869289, lon.=26.508106, Alt.=84.583069m. Speed=17.964001m/h.</desc>
<speed>4.990000</speed>
</trkpt>
<trkpt lat="55.869259" lon="26.508030">
<ele>84.602600</ele>
<time>2010-07-17T07:57:23Z</time>
<desc>lat.=55.869259, lon.=26.508030, Alt.=84.602600m. Speed=19.007999m/h.</desc>
<speed>5.280000</speed>
</trkpt>
<trkpt lat="55.869217" lon="26.507959">
<ele>84.751038</ele>
<time>2010-07-17T07:57:24Z</time>
<desc>lat.=55.869217, lon.=26.507959, Alt.=84.751038m. Speed=19.799999m/h.</desc>
<speed>5.500000</speed>
</trkpt>
<trkpt lat="55.869171" lon="26.507917">
<ele>84.963928</ele>
<time>2010-07-17T07:57:25Z</time>
<desc>lat.=55.869171, lon.=26.507917, Alt.=84.963928m. Speed=17.784000m/h.</desc>
<speed>4.940000</speed>
</trkpt>
<trkpt lat="55.869125" lon="26.507910">
<ele>85.465881</ele>
<time>2010-07-17T07:57:26Z</time>
<desc>lat.=55.869125, lon.=26.507910, Alt.=85.465881m. Speed=19.332001m/h.</desc>
<speed>5.370000</speed>
</trkpt>
<trkpt lat="55.869072" lon="26.507923">
<ele>85.731506</ele>
<time>2010-07-17T07:57:27Z</time>
<desc>lat.=55.869072, lon.=26.507923, Alt.=85.731506m. Speed=21.743999m/h.</desc>
<speed>6.040000</speed>
</trkpt>
<trkpt lat="55.869026" lon="26.507952">
<ele>86.008850</ele>
<time>2010-07-17T07:57:28Z</time>
<desc>lat.=55.869026, lon.=26.507952, Alt.=86.008850m. Speed=21.563999m/h.</desc>
<speed>5.990000</speed>
</trkpt>
<trkpt lat="55.868969" lon="26.507957">
<ele>84.985413</ele>
<time>2010-07-17T07:57:29Z</time>
<desc>lat.=55.868969, lon.=26.507957, Alt.=84.985413m. Speed=20.988001m/h.</desc>
<speed>5.830000</speed>
</trkpt>
<trkpt lat="55.868919" lon="26.508011">
<ele>86.725647</ele>
<time>2010-07-17T07:57:30Z</time>
<desc>lat.=55.868919, lon.=26.508011, Alt.=86.725647m. Speed=21.816000m/h.</desc>
<speed>6.060000</speed>
</trkpt>
<trkpt lat="55.868874" lon="26.508062">
<ele>87.967834</ele>
<time>2010-07-17T07:57:31Z</time>
<desc>lat.=55.868874, lon.=26.508062, Alt.=87.967834m. Speed=21.420000m/h.</desc>
<speed>5.950000</speed>
</trkpt>
<trkpt lat="55.868828" lon="26.508106">
<ele>88.754944</ele>
<time>2010-07-17T07:57:32Z</time>
<desc>lat.=55.868828, lon.=26.508106, Alt.=88.754944m. Speed=22.176001m/h.</desc>
<speed>6.160000</speed>
</trkpt>
<trkpt lat="55.868786" lon="26.508169">
<ele>89.518616</ele>
<time>2010-07-17T07:57:33Z</time>
<desc>lat.=55.868786, lon.=26.508169, Alt.=89.518616m. Speed=21.167999m/h.</desc>
<speed>5.880000</speed>
</trkpt>
<trkpt lat="55.868744" lon="26.508228">
<ele>88.993225</ele>
<time>2010-07-17T07:57:34Z</time>
<desc>lat.=55.868744, lon.=26.508228, Alt.=88.993225m. Speed=21.132000m/h.</desc>
<speed>5.870000</speed>
</trkpt>
<trkpt lat="55.868698" lon="26.508280">
<ele>89.127991</ele>
<time>2010-07-17T07:57:35Z</time>
<desc>lat.=55.868698, lon.=26.508280, Alt.=89.127991m. Speed=21.636000m/h.</desc>
<speed>6.010000</speed>
</trkpt>
<trkpt lat="55.868664" lon="26.508339">
<ele>90.135803</ele>
<time>2010-07-17T07:57:36Z</time>
<desc>lat.=55.868664, lon.=26.508339, Alt.=90.135803m. Speed=20.700001m/h.</desc>
<speed>5.750000</speed>
</trkpt>
<trkpt lat="55.868629" lon="26.508402">
<ele>90.749084</ele>
<time>2010-07-17T07:57:37Z</time>
<desc>lat.=55.868629, lon.=26.508402, Alt.=90.749084m. Speed=20.375999m/h.</desc>
<speed>5.660000</speed>
</trkpt>
<trkpt lat="55.868591" lon="26.508467">
<ele>91.633850</ele>
<time>2010-07-17T07:57:38Z</time>
<desc>lat.=55.868591, lon.=26.508467, Alt.=91.633850m. Speed=20.591999m/h.</desc>
<speed>5.720000</speed>
</trkpt>
<trkpt lat="55.868561" lon="26.508528">
<ele>92.088928</ele>
<time>2010-07-17T07:57:39Z</time>
<desc>lat.=55.868561, lon.=26.508528, Alt.=92.088928m. Speed=17.532000m/h.</desc>
<speed>4.870000</speed>
</trkpt>
<trkpt lat="55.868534" lon="26.508579">
<ele>92.202209</ele>
<time>2010-07-17T07:57:40Z</time>
<desc>lat.=55.868534, lon.=26.508579, Alt.=92.202209m. Speed=14.796000m/h.</desc>
<speed>4.110000</speed>
</trkpt>
<trkpt lat="55.868511" lon="26.508635">
<ele>92.743225</ele>
<time>2010-07-17T07:57:41Z</time>
<desc>lat.=55.868511, lon.=26.508635, Alt.=92.743225m. Speed=13.104000m/h.</desc>
<speed>3.640000</speed>
</trkpt>
<trkpt lat="55.868488" lon="26.508688">
<ele>93.368225</ele>
<time>2010-07-17T07:57:42Z</time>
<desc>lat.=55.868488, lon.=26.508688, Alt.=93.368225m. Speed=13.284000m/h.</desc>
<speed>3.690000</speed>
</trkpt>
<trkpt lat="55.868458" lon="26.508741">
<ele>94.756897</ele>
<time>2010-07-17T07:57:43Z</time>
<desc>lat.=55.868458, lon.=26.508741, Alt.=94.756897m. Speed=11.700000m/h.</desc>
<speed>3.250000</speed>
</trkpt>
<trkpt lat="55.868435" lon="26.508778">
<ele>94.848694</ele>
<time>2010-07-17T07:57:44Z</time>
<desc>lat.=55.868435, lon.=26.508778, Alt.=94.848694m. Speed=9.576000m/h.</desc>
<speed>2.660000</speed>
</trkpt>
<trkpt lat="55.868416" lon="26.508814">
<ele>96.631897</ele>
<time>2010-07-17T07:57:45Z</time>
<desc>lat.=55.868416, lon.=26.508814, Alt.=96.631897m. Speed=6.912000m/h.</desc>
<speed>1.920000</speed>
</trkpt>
<trkpt lat="55.868401" lon="26.508831">
<ele>96.493225</ele>
<time>2010-07-17T07:57:46Z</time>
<desc>lat.=55.868401, lon.=26.508831, Alt.=96.493225m. Speed=6.876000m/h.</desc>
<speed>1.910000</speed>
</trkpt>
<trkpt lat="55.868389" lon="26.508839">
<ele>96.135803</ele>
<time>2010-07-17T07:57:47Z</time>
<desc>lat.=55.868389, lon.=26.508839, Alt.=96.135803m. Speed=4.932000m/h.</desc>
<speed>1.370000</speed>
</trkpt>
<trkpt lat="55.868374" lon="26.508839">
<ele>96.028381</ele>
<time>2010-07-17T07:57:48Z</time>
<desc>lat.=55.868374, lon.=26.508839, Alt.=96.028381m. Speed=4.248000m/h.</desc>
<speed>1.180000</speed>
</trkpt>
<trkpt lat="55.868362" lon="26.508833">
<ele>96.461975</ele>
<time>2010-07-17T07:57:49Z</time>
<desc>lat.=55.868362, lon.=26.508833, Alt.=96.461975m. Speed=2.772000m/h.</desc>
<speed>0.770000</speed>
</trkpt>
<trkpt lat="55.868370" lon="26.508833">
<ele>97.044006</ele>
<time>2010-07-17T07:57:50Z</time>
<desc>lat.=55.868370, lon.=26.508833, Alt.=97.044006m. Speed=0.684000m/h.</desc>
<speed>0.190000</speed>
</trkpt>
<trkpt lat="55.868370" lon="26.508831">
<ele>96.950256</ele>
<time>2010-07-17T07:57:51Z</time>
<desc>lat.=55.868370, lon.=26.508831, Alt.=96.950256m. Speed=0.396000m/h.</desc>
<speed>0.110000</speed>
</trkpt>
<trkpt lat="55.868362" lon="26.508825">
<ele>97.653381</ele>
<time>2010-07-17T07:57:52Z</time>
<desc>lat.=55.868362, lon.=26.508825, Alt.=97.653381m. Speed=1.980000m/h.</desc>
<speed>0.550000</speed>
</trkpt>
<trkpt lat="55.868359" lon="26.508827">
<ele>97.838928</ele>
<time>2010-07-17T07:57:53Z</time>
<desc>lat.=55.868359, lon.=26.508827, Alt.=97.838928m. Speed=2.520000m/h.</desc>
<speed>0.700000</speed>
</trkpt>
<trkpt lat="55.868351" lon="26.508829">
<ele>98.036194</ele>
<time>2010-07-17T07:57:54Z</time>
<desc>lat.=55.868351, lon.=26.508829, Alt.=98.036194m. Speed=5.400000m/h.</desc>
<speed>1.500000</speed>
</trkpt>
<trkpt lat="55.868328" lon="26.508841">
<ele>98.352600</ele>
<time>2010-07-17T07:57:55Z</time>
<desc>lat.=55.868328, lon.=26.508841, Alt.=98.352600m. Speed=10.728000m/h.</desc>
<speed>2.980000</speed>
</trkpt>
<trkpt lat="55.868294" lon="26.508865">
<ele>98.733459</ele>
<time>2010-07-17T07:57:56Z</time>
<desc>lat.=55.868294, lon.=26.508865, Alt.=98.733459m. Speed=13.680000m/h.</desc>
<speed>3.800000</speed>
</trkpt>
<trkpt lat="55.868263" lon="26.508913">
<ele>99.047913</ele>
<time>2010-07-17T07:57:57Z</time>
<desc>lat.=55.868263, lon.=26.508913, Alt.=99.047913m. Speed=16.452000m/h.</desc>
<speed>4.570000</speed>
</trkpt>
<trkpt lat="55.868229" lon="26.508976">
<ele>99.098694</ele>
<time>2010-07-17T07:57:58Z</time>
<desc>lat.=55.868229, lon.=26.508976, Alt.=99.098694m. Speed=20.160000m/h.</desc>
<speed>5.600000</speed>
</trkpt>
<trkpt lat="55.868195" lon="26.509047">
<ele>99.276428</ele>
<time>2010-07-17T07:57:59Z</time>
<desc>lat.=55.868195, lon.=26.509047, Alt.=99.276428m. Speed=20.052000m/h.</desc>
<speed>5.570000</speed>
</trkpt>
<trkpt lat="55.868160" lon="26.509119">
<ele>99.379944</ele>
<time>2010-07-17T07:58:00Z</time>
<desc>lat.=55.868160, lon.=26.509119, Alt.=99.379944m. Speed=20.375999m/h.</desc>
<speed>5.660000</speed>
</trkpt>
<trkpt lat="55.868126" lon="26.509195">
<ele>99.299866</ele>
<time>2010-07-17T07:58:01Z</time>
<desc>lat.=55.868126, lon.=26.509195, Alt.=99.299866m. Speed=20.844000m/h.</desc>
<speed>5.790000</speed>
</trkpt>
<trkpt lat="55.868099" lon="26.509277">
<ele>99.165100</ele>
<time>2010-07-17T07:58:02Z</time>
<desc>lat.=55.868099, lon.=26.509277, Alt.=99.165100m. Speed=21.132000m/h.</desc>
<speed>5.870000</speed>
</trkpt>
<trkpt lat="55.868073" lon="26.509356">
<ele>99.463928</ele>
<time>2010-07-17T07:58:03Z</time>
<desc>lat.=55.868073, lon.=26.509356, Alt.=99.463928m. Speed=20.124001m/h.</desc>
<speed>5.590000</speed>
</trkpt>
<trkpt lat="55.868042" lon="26.509430">
<ele>99.594788</ele>
<time>2010-07-17T07:58:04Z</time>
<desc>lat.=55.868042, lon.=26.509430, Alt.=99.594788m. Speed=19.872000m/h.</desc>
<speed>5.520000</speed>
</trkpt>
<trkpt lat="55.868015" lon="26.509504">
<ele>100.075256</ele>
<time>2010-07-17T07:58:05Z</time>
<desc>lat.=55.868015, lon.=26.509504, Alt.=100.075256m. Speed=19.944000m/h.</desc>
<speed>5.540000</speed>
</trkpt>
<trkpt lat="55.867989" lon="26.509590">
<ele>100.174866</ele>
<time>2010-07-17T07:58:06Z</time>
<desc>lat.=55.867989, lon.=26.509590, Alt.=100.174866m. Speed=20.916000m/h.</desc>
<speed>5.810000</speed>
</trkpt>
<trkpt lat="55.867966" lon="26.509682">
<ele>100.315491</ele>
<time>2010-07-17T07:58:07Z</time>
<desc>lat.=55.867966, lon.=26.509682, Alt.=100.315491m. Speed=21.600000m/h.</desc>
<speed>6.000000</speed>
</trkpt>
<trkpt lat="55.867943" lon="26.509775">
<ele>100.967834</ele>
<time>2010-07-17T07:58:08Z</time>
<desc>lat.=55.867943, lon.=26.509775, Alt.=100.967834m. Speed=22.320000m/h.</desc>
<speed>6.200000</speed>
</trkpt>
<trkpt lat="55.867920" lon="26.509869">
<ele>100.745178</ele>
<time>2010-07-17T07:58:09Z</time>
<desc>lat.=55.867920, lon.=26.509869, Alt.=100.745178m. Speed=23.327999m/h.</desc>
<speed>6.480000</speed>
</trkpt>
<trkpt lat="55.867886" lon="26.509962">
<ele>100.594788</ele>
<time>2010-07-17T07:58:10Z</time>
<desc>lat.=55.867886, lon.=26.509962, Alt.=100.594788m. Speed=23.436001m/h.</desc>
<speed>6.510000</speed>
</trkpt>
<trkpt lat="55.867855" lon="26.510063">
<ele>100.102600</ele>
<time>2010-07-17T07:58:11Z</time>
<desc>lat.=55.867855, lon.=26.510063, Alt.=100.102600m. Speed=24.552000m/h.</desc>
<speed>6.820000</speed>
</trkpt>
<trkpt lat="55.867828" lon="26.510168">
<ele>100.336975</ele>
<time>2010-07-17T07:58:12Z</time>
<desc>lat.=55.867828, lon.=26.510168, Alt.=100.336975m. Speed=23.940001m/h.</desc>
<speed>6.650000</speed>
</trkpt>
<trkpt lat="55.867798" lon="26.510269">
<ele>99.850647</ele>
<time>2010-07-17T07:58:13Z</time>
<desc>lat.=55.867798, lon.=26.510269, Alt.=99.850647m. Speed=22.752001m/h.</desc>
<speed>6.320000</speed>
</trkpt>
<trkpt lat="55.867775" lon="26.510378">
<ele>100.165100</ele>
<time>2010-07-17T07:58:14Z</time>
<desc>lat.=55.867775, lon.=26.510378, Alt.=100.165100m. Speed=24.372000m/h.</desc>
<speed>6.770000</speed>
</trkpt>
<trkpt lat="55.867748" lon="26.510483">
<ele>100.110413</ele>
<time>2010-07-17T07:58:15Z</time>
<desc>lat.=55.867748, lon.=26.510483, Alt.=100.110413m. Speed=21.420000m/h.</desc>
<speed>5.950000</speed>
</trkpt>
<trkpt lat="55.867718" lon="26.510578">
<ele>99.858459</ele>
<time>2010-07-17T07:58:16Z</time>
<desc>lat.=55.867718, lon.=26.510578, Alt.=99.858459m. Speed=22.320000m/h.</desc>
<speed>6.200000</speed>
</trkpt>
<trkpt lat="55.867695" lon="26.510681">
<ele>100.126038</ele>
<time>2010-07-17T07:58:17Z</time>
<desc>lat.=55.867695, lon.=26.510681, Alt.=100.126038m. Speed=24.084000m/h.</desc>
<speed>6.690000</speed>
</trkpt>
<trkpt lat="55.867668" lon="26.510780">
<ele>100.079163</ele>
<time>2010-07-17T07:58:18Z</time>
<desc>lat.=55.867668, lon.=26.510780, Alt.=100.079163m. Speed=23.112000m/h.</desc>
<speed>6.420000</speed>
</trkpt>
<trkpt lat="55.867641" lon="26.510883">
<ele>100.467834</ele>
<time>2010-07-17T07:58:19Z</time>
<desc>lat.=55.867641, lon.=26.510883, Alt.=100.467834m. Speed=23.796000m/h.</desc>
<speed>6.610000</speed>
</trkpt>
<trkpt lat="55.867603" lon="26.510994">
<ele>100.086975</ele>
<time>2010-07-17T07:58:20Z</time>
<desc>lat.=55.867603, lon.=26.510994, Alt.=100.086975m. Speed=24.084000m/h.</desc>
<speed>6.690000</speed>
</trkpt>
<trkpt lat="55.867580" lon="26.511103">
<ele>100.465881</ele>
<time>2010-07-17T07:58:21Z</time>
<desc>lat.=55.867580, lon.=26.511103, Alt.=100.465881m. Speed=23.364000m/h.</desc>
<speed>6.490000</speed>
</trkpt>
<trkpt lat="55.867558" lon="26.511198">
<ele>100.836975</ele>
<time>2010-07-17T07:58:22Z</time>
<desc>lat.=55.867558, lon.=26.511198, Alt.=100.836975m. Speed=22.896000m/h.</desc>
<speed>6.360000</speed>
</trkpt>
<trkpt lat="55.867535" lon="26.511284">
<ele>100.268616</ele>
<time>2010-07-17T07:58:23Z</time>
<desc>lat.=55.867535, lon.=26.511284, Alt.=100.268616m. Speed=20.916000m/h.</desc>
<speed>5.810000</speed>
</trkpt>
<trkpt lat="55.867516" lon="26.511375">
<ele>100.586975</ele>
<time>2010-07-17T07:58:24Z</time>
<desc>lat.=55.867516, lon.=26.511375, Alt.=100.586975m. Speed=21.743999m/h.</desc>
<speed>6.040000</speed>
</trkpt>
<trkpt lat="55.867504" lon="26.511475">
<ele>100.854553</ele>
<time>2010-07-17T07:58:25Z</time>
<desc>lat.=55.867504, lon.=26.511475, Alt.=100.854553m. Speed=21.059999m/h.</desc>
<speed>5.850000</speed>
</trkpt>
<trkpt lat="55.867485" lon="26.511572">
<ele>100.426819</ele>
<time>2010-07-17T07:58:26Z</time>
<desc>lat.=55.867485, lon.=26.511572, Alt.=100.426819m. Speed=20.448000m/h.</desc>
<speed>5.680000</speed>
</trkpt>
<trkpt lat="55.867470" lon="26.511663">
<ele>100.930725</ele>
<time>2010-07-17T07:58:27Z</time>
<desc>lat.=55.867470, lon.=26.511663, Alt.=100.930725m. Speed=20.412001m/h.</desc>
<speed>5.670000</speed>
</trkpt>
<trkpt lat="55.867455" lon="26.511755">
<ele>101.399475</ele>
<time>2010-07-17T07:58:28Z</time>
<desc>lat.=55.867455, lon.=26.511755, Alt.=101.399475m. Speed=19.656000m/h.</desc>
<speed>5.460000</speed>
</trkpt>
<trkpt lat="55.867443" lon="26.511845">
<ele>100.985413</ele>
<time>2010-07-17T07:58:29Z</time>
<desc>lat.=55.867443, lon.=26.511845, Alt.=100.985413m. Speed=20.232000m/h.</desc>
<speed>5.620000</speed>
</trkpt>
<trkpt lat="55.867432" lon="26.511934">
<ele>100.526428</ele>
<time>2010-07-17T07:58:30Z</time>
<desc>lat.=55.867432, lon.=26.511934, Alt.=100.526428m. Speed=19.152000m/h.</desc>
<speed>5.320000</speed>
</trkpt>
<trkpt lat="55.867428" lon="26.512024">
<ele>100.887756</ele>
<time>2010-07-17T07:58:31Z</time>
<desc>lat.=55.867428, lon.=26.512024, Alt.=100.887756m. Speed=19.044001m/h.</desc>
<speed>5.290000</speed>
</trkpt>
<trkpt lat="55.867416" lon="26.512110">
<ele>100.157288</ele>
<time>2010-07-17T07:58:32Z</time>
<desc>lat.=55.867416, lon.=26.512110, Alt.=100.157288m. Speed=18.216000m/h.</desc>
<speed>5.060000</speed>
</trkpt>
<trkpt lat="55.867413" lon="26.512192">
<ele>100.301819</ele>
<time>2010-07-17T07:58:33Z</time>
<desc>lat.=55.867413, lon.=26.512192, Alt.=100.301819m. Speed=19.260000m/h.</desc>
<speed>5.350000</speed>
</trkpt>
<trkpt lat="55.867397" lon="26.512280">
<ele>100.379944</ele>
<time>2010-07-17T07:58:34Z</time>
<desc>lat.=55.867397, lon.=26.512280, Alt.=100.379944m. Speed=19.007999m/h.</desc>
<speed>5.280000</speed>
</trkpt>
<trkpt lat="55.867390" lon="26.512369">
<ele>101.061584</ele>
<time>2010-07-17T07:58:35Z</time>
<desc>lat.=55.867390, lon.=26.512369, Alt.=101.061584m. Speed=19.872000m/h.</desc>
<speed>5.520000</speed>
</trkpt>
<trkpt lat="55.867382" lon="26.512459">
<ele>100.815491</ele>
<time>2010-07-17T07:58:36Z</time>
<desc>lat.=55.867382, lon.=26.512459, Alt.=100.815491m. Speed=19.440001m/h.</desc>
<speed>5.400000</speed>
</trkpt>
<trkpt lat="55.867371" lon="26.512541">
<ele>99.727600</ele>
<time>2010-07-17T07:58:37Z</time>
<desc>lat.=55.867371, lon.=26.512541, Alt.=99.727600m. Speed=19.332001m/h.</desc>
<speed>5.370000</speed>
</trkpt>
<trkpt lat="55.867367" lon="26.512629">
<ele>100.747131</ele>
<time>2010-07-17T07:58:38Z</time>
<desc>lat.=55.867367, lon.=26.512629, Alt.=100.747131m. Speed=18.719999m/h.</desc>
<speed>5.200000</speed>
</trkpt>
<trkpt lat="55.867367" lon="26.512709">
<ele>101.391663</ele>
<time>2010-07-17T07:58:39Z</time>
<desc>lat.=55.867367, lon.=26.512709, Alt.=101.391663m. Speed=16.884001m/h.</desc>
<speed>4.690000</speed>
</trkpt>
<trkpt lat="55.867355" lon="26.512791">
<ele>101.360413</ele>
<time>2010-07-17T07:58:40Z</time>
<desc>lat.=55.867355, lon.=26.512791, Alt.=101.360413m. Speed=17.784000m/h.</desc>
<speed>4.940000</speed>
</trkpt>
<trkpt lat="55.867336" lon="26.512861">
<ele>101.239319</ele>
<time>2010-07-17T07:58:41Z</time>
<desc>lat.=55.867336, lon.=26.512861, Alt.=101.239319m. Speed=16.704000m/h.</desc>
<speed>4.640000</speed>
</trkpt>
<trkpt lat="55.867306" lon="26.512922">
<ele>100.842834</ele>
<time>2010-07-17T07:58:42Z</time>
<desc>lat.=55.867306, lon.=26.512922, Alt.=100.842834m. Speed=15.732000m/h.</desc>
<speed>4.370000</speed>
</trkpt>
<trkpt lat="55.867271" lon="26.512959">
<ele>100.342834</ele>
<time>2010-07-17T07:58:43Z</time>
<desc>lat.=55.867271, lon.=26.512959, Alt.=100.342834m. Speed=16.128000m/h.</desc>
<speed>4.480000</speed>
</trkpt>
<trkpt lat="55.867226" lon="26.512983">
<ele>100.042053</ele>
<time>2010-07-17T07:58:44Z</time>
<desc>lat.=55.867226, lon.=26.512983, Alt.=100.042053m. Speed=17.136000m/h.</desc>
<speed>4.760000</speed>
</trkpt>
<trkpt lat="55.867168" lon="26.512999">
<ele>100.813538</ele>
<time>2010-07-17T07:58:45Z</time>
<desc>lat.=55.867168, lon.=26.512999, Alt.=100.813538m. Speed=17.172001m/h.</desc>
<speed>4.770000</speed>
</trkpt>
<trkpt lat="55.867126" lon="26.512987">
<ele>100.446350</ele>
<time>2010-07-17T07:58:46Z</time>
<desc>lat.=55.867126, lon.=26.512987, Alt.=100.446350m. Speed=16.596001m/h.</desc>
<speed>4.610000</speed>
</trkpt>
<trkpt lat="55.867088" lon="26.512962">
<ele>100.512756</ele>
<time>2010-07-17T07:58:47Z</time>
<desc>lat.=55.867088, lon.=26.512962, Alt.=100.512756m. Speed=16.164000m/h.</desc>
<speed>4.490000</speed>
</trkpt>
<trkpt lat="55.867046" lon="26.512945">
<ele>100.919006</ele>
<time>2010-07-17T07:58:48Z</time>
<desc>lat.=55.867046, lon.=26.512945, Alt.=100.919006m. Speed=16.164000m/h.</desc>
<speed>4.490000</speed>
</trkpt>
<trkpt lat="55.867012" lon="26.512915">
<ele>100.647522</ele>
<time>2010-07-17T07:58:49Z</time>
<desc>lat.=55.867012, lon.=26.512915, Alt.=100.647522m. Speed=17.496000m/h.</desc>
<speed>4.860000</speed>
</trkpt>
<trkpt lat="55.866974" lon="26.512884">
<ele>100.883850</ele>
<time>2010-07-17T07:58:50Z</time>
<desc>lat.=55.866974, lon.=26.512884, Alt.=100.883850m. Speed=16.920000m/h.</desc>
<speed>4.700000</speed>
</trkpt>
<trkpt lat="55.866932" lon="26.512854">
<ele>100.307678</ele>
<time>2010-07-17T07:58:51Z</time>
<desc>lat.=55.866932, lon.=26.512854, Alt.=100.307678m. Speed=16.524000m/h.</desc>
<speed>4.590000</speed>
</trkpt>
<trkpt lat="55.866894" lon="26.512831">
<ele>100.307678</ele>
<time>2010-07-17T07:58:52Z</time>
<desc>lat.=55.866894, lon.=26.512831, Alt.=100.307678m. Speed=16.271999m/h.</desc>
<speed>4.520000</speed>
</trkpt>
<trkpt lat="55.866856" lon="26.512806">
<ele>100.727600</ele>
<time>2010-07-17T07:58:53Z</time>
<desc>lat.=55.866856, lon.=26.512806, Alt.=100.727600m. Speed=17.136000m/h.</desc>
<speed>4.760000</speed>
</trkpt>
<trkpt lat="55.866814" lon="26.512777">
<ele>100.889709</ele>
<time>2010-07-17T07:58:54Z</time>
<desc>lat.=55.866814, lon.=26.512777, Alt.=100.889709m. Speed=16.920000m/h.</desc>
<speed>4.700000</speed>
</trkpt>
<trkpt lat="55.866772" lon="26.512747">
<ele>101.538147</ele>
<time>2010-07-17T07:58:55Z</time>
<desc>lat.=55.866772, lon.=26.512747, Alt.=101.538147m. Speed=17.136000m/h.</desc>
<speed>4.760000</speed>
</trkpt>
<trkpt lat="55.866730" lon="26.512724">
<ele>101.165100</ele>
<time>2010-07-17T07:58:56Z</time>
<desc>lat.=55.866730, lon.=26.512724, Alt.=101.165100m. Speed=17.136000m/h.</desc>
<speed>4.760000</speed>
</trkpt>
<trkpt lat="55.866688" lon="26.512695">
<ele>101.758850</ele>
<time>2010-07-17T07:58:57Z</time>
<desc>lat.=55.866688, lon.=26.512695, Alt.=101.758850m. Speed=18.540001m/h.</desc>
<speed>5.150000</speed>
</trkpt>
<trkpt lat="55.866642" lon="26.512661">
<ele>101.295959</ele>
<time>2010-07-17T07:58:58Z</time>
<desc>lat.=55.866642, lon.=26.512661, Alt.=101.295959m. Speed=17.856001m/h.</desc>
<speed>4.960000</speed>
</trkpt>
<trkpt lat="55.866600" lon="26.512625">
<ele>102.260803</ele>
<time>2010-07-17T07:58:59Z</time>
<desc>lat.=55.866600, lon.=26.512625, Alt.=102.260803m. Speed=17.820000m/h.</desc>
<speed>4.950000</speed>
</trkpt>
<trkpt lat="55.866562" lon="26.512585">
<ele>102.165100</ele>
<time>2010-07-17T07:59:00Z</time>
<desc>lat.=55.866562, lon.=26.512585, Alt.=102.165100m. Speed=17.892000m/h.</desc>
<speed>4.970000</speed>
</trkpt>
<trkpt lat="55.866516" lon="26.512552">
<ele>102.139709</ele>
<time>2010-07-17T07:59:01Z</time>
<desc>lat.=55.866516, lon.=26.512552, Alt.=102.139709m. Speed=16.955999m/h.</desc>
<speed>4.710000</speed>
</trkpt>
<trkpt lat="55.866470" lon="26.512520">
<ele>102.159241</ele>
<time>2010-07-17T07:59:02Z</time>
<desc>lat.=55.866470, lon.=26.512520, Alt.=102.159241m. Speed=17.532000m/h.</desc>
<speed>4.870000</speed>
</trkpt>
<trkpt lat="55.866421" lon="26.512489">
<ele>101.682678</ele>
<time>2010-07-17T07:59:03Z</time>
<desc>lat.=55.866421, lon.=26.512489, Alt.=101.682678m. Speed=18.648001m/h.</desc>
<speed>5.180000</speed>
</trkpt>
<trkpt lat="55.866367" lon="26.512455">
<ele>101.239319</ele>
<time>2010-07-17T07:59:04Z</time>
<desc>lat.=55.866367, lon.=26.512455, Alt.=101.239319m. Speed=19.152000m/h.</desc>
<speed>5.320000</speed>
</trkpt>
<trkpt lat="55.866318" lon="26.512421">
<ele>101.014709</ele>
<time>2010-07-17T07:59:05Z</time>
<desc>lat.=55.866318, lon.=26.512421, Alt.=101.014709m. Speed=18.792000m/h.</desc>
<speed>5.220000</speed>
</trkpt>
<trkpt lat="55.866272" lon="26.512388">
<ele>100.637756</ele>
<time>2010-07-17T07:59:06Z</time>
<desc>lat.=55.866272, lon.=26.512388, Alt.=100.637756m. Speed=19.044001m/h.</desc>
<speed>5.290000</speed>
</trkpt>
<trkpt lat="55.866226" lon="26.512354">
<ele>100.569397</ele>
<time>2010-07-17T07:59:07Z</time>
<desc>lat.=55.866226, lon.=26.512354, Alt.=100.569397m. Speed=19.440001m/h.</desc>
<speed>5.400000</speed>
</trkpt>
<trkpt lat="55.866184" lon="26.512323">
<ele>100.721741</ele>
<time>2010-07-17T07:59:08Z</time>
<desc>lat.=55.866184, lon.=26.512323, Alt.=100.721741m. Speed=18.540001m/h.</desc>
<speed>5.150000</speed>
</trkpt>
<trkpt lat="55.866142" lon="26.512293">
<ele>100.479553</ele>
<time>2010-07-17T07:59:09Z</time>
<desc>lat.=55.866142, lon.=26.512293, Alt.=100.479553m. Speed=17.568001m/h.</desc>
<speed>4.880000</speed>
</trkpt>
<trkpt lat="55.866100" lon="26.512260">
<ele>100.569397</ele>
<time>2010-07-17T07:59:10Z</time>
<desc>lat.=55.866100, lon.=26.512260, Alt.=100.569397m. Speed=18.792000m/h.</desc>
<speed>5.220000</speed>
</trkpt>
<trkpt lat="55.866055" lon="26.512232">
<ele>100.405334</ele>
<time>2010-07-17T07:59:11Z</time>
<desc>lat.=55.866055, lon.=26.512232, Alt.=100.405334m. Speed=20.087999m/h.</desc>
<speed>5.580000</speed>
</trkpt>
<trkpt lat="55.866001" lon="26.512203">
<ele>99.942444</ele>
<time>2010-07-17T07:59:12Z</time>
<desc>lat.=55.866001, lon.=26.512203, Alt.=99.942444m. Speed=20.556000m/h.</desc>
<speed>5.710000</speed>
</trkpt>
<trkpt lat="55.865952" lon="26.512169">
<ele>100.442444</ele>
<time>2010-07-17T07:59:13Z</time>
<desc>lat.=55.865952, lon.=26.512169, Alt.=100.442444m. Speed=21.888000m/h.</desc>
<speed>6.080000</speed>
</trkpt>
<trkpt lat="55.865902" lon="26.512123">
<ele>100.544006</ele>
<time>2010-07-17T07:59:14Z</time>
<desc>lat.=55.865902, lon.=26.512123, Alt.=100.544006m. Speed=22.176001m/h.</desc>
<speed>6.160000</speed>
</trkpt>
<trkpt lat="55.865845" lon="26.512085">
<ele>99.790100</ele>
<time>2010-07-17T07:59:15Z</time>
<desc>lat.=55.865845, lon.=26.512085, Alt.=99.790100m. Speed=22.212000m/h.</desc>
<speed>6.170000</speed>
</trkpt>
<trkpt lat="55.865784" lon="26.512043">
<ele>99.270569</ele>
<time>2010-07-17T07:59:16Z</time>
<desc>lat.=55.865784, lon.=26.512043, Alt.=99.270569m. Speed=20.268000m/h.</desc>
<speed>5.630000</speed>
</trkpt>
<trkpt lat="55.865734" lon="26.512009">
<ele>98.807678</ele>
<time>2010-07-17T07:59:17Z</time>
<desc>lat.=55.865734, lon.=26.512009, Alt.=98.807678m. Speed=20.916000m/h.</desc>
<speed>5.810000</speed>
</trkpt>
<trkpt lat="55.865677" lon="26.511976">
<ele>97.883850</ele>
<time>2010-07-17T07:59:18Z</time>
<desc>lat.=55.865677, lon.=26.511976, Alt.=97.883850m. Speed=20.268000m/h.</desc>
<speed>5.630000</speed>
</trkpt>
<trkpt lat="55.865627" lon="26.511944">
<ele>97.997131</ele>
<time>2010-07-17T07:59:19Z</time>
<desc>lat.=55.865627, lon.=26.511944, Alt.=97.997131m. Speed=20.483999m/h.</desc>
<speed>5.690000</speed>
</trkpt>
<trkpt lat="55.865578" lon="26.511911">
<ele>98.102600</ele>
<time>2010-07-17T07:59:20Z</time>
<desc>lat.=55.865578, lon.=26.511911, Alt.=98.102600m. Speed=21.996000m/h.</desc>
<speed>6.110000</speed>
</trkpt>
<trkpt lat="55.865524" lon="26.511873">
<ele>98.557678</ele>
<time>2010-07-17T07:59:21Z</time>
<desc>lat.=55.865524, lon.=26.511873, Alt.=98.557678m. Speed=22.680000m/h.</desc>
<speed>6.300000</speed>
</trkpt>
<trkpt lat="55.865471" lon="26.511835">
<ele>98.542053</ele>
<time>2010-07-17T07:59:22Z</time>
<desc>lat.=55.865471, lon.=26.511835, Alt.=98.542053m. Speed=22.860001m/h.</desc>
<speed>6.350000</speed>
</trkpt>
<trkpt lat="55.865417" lon="26.511795">
<ele>98.301819</ele>
<time>2010-07-17T07:59:23Z</time>
<desc>lat.=55.865417, lon.=26.511795, Alt.=98.301819m. Speed=22.032000m/h.</desc>
<speed>6.120000</speed>
</trkpt>
<trkpt lat="55.865364" lon="26.511759">
<ele>98.243225</ele>
<time>2010-07-17T07:59:24Z</time>
<desc>lat.=55.865364, lon.=26.511759, Alt.=98.243225m. Speed=22.968000m/h.</desc>
<speed>6.380000</speed>
</trkpt>
<trkpt lat="55.865314" lon="26.511723">
<ele>98.362366</ele>
<time>2010-07-17T07:59:25Z</time>
<desc>lat.=55.865314, lon.=26.511723, Alt.=98.362366m. Speed=22.247999m/h.</desc>
<speed>6.180000</speed>
</trkpt>
<trkpt lat="55.865261" lon="26.511686">
<ele>98.342834</ele>
<time>2010-07-17T07:59:26Z</time>
<desc>lat.=55.865261, lon.=26.511686, Alt.=98.342834m. Speed=21.924000m/h.</desc>
<speed>6.090000</speed>
</trkpt>
<trkpt lat="55.865208" lon="26.511652">
<ele>98.342834</ele>
<time>2010-07-17T07:59:27Z</time>
<desc>lat.=55.865208, lon.=26.511652, Alt.=98.342834m. Speed=23.580000m/h.</desc>
<speed>6.550000</speed>
</trkpt>
<trkpt lat="55.865154" lon="26.511616">
<ele>98.184631</ele>
<time>2010-07-17T07:59:28Z</time>
<desc>lat.=55.865154, lon.=26.511616, Alt.=98.184631m. Speed=21.528000m/h.</desc>
<speed>5.980000</speed>
</trkpt>
<trkpt lat="55.865097" lon="26.511585">
<ele>98.172913</ele>
<time>2010-07-17T07:59:29Z</time>
<desc>lat.=55.865097, lon.=26.511585, Alt.=98.172913m. Speed=23.184000m/h.</desc>
<speed>6.440000</speed>
</trkpt>
<trkpt lat="55.865036" lon="26.511557">
<ele>98.014709</ele>
<time>2010-07-17T07:59:30Z</time>
<desc>lat.=55.865036, lon.=26.511557, Alt.=98.014709m. Speed=22.212000m/h.</desc>
<speed>6.170000</speed>
</trkpt>
<trkpt lat="55.864983" lon="26.511513">
<ele>98.358459</ele>
<time>2010-07-17T07:59:31Z</time>
<desc>lat.=55.864983, lon.=26.511513, Alt.=98.358459m. Speed=23.112000m/h.</desc>
<speed>6.420000</speed>
</trkpt>
<trkpt lat="55.864925" lon="26.511480">
<ele>98.077209</ele>
<time>2010-07-17T07:59:32Z</time>
<desc>lat.=55.864925, lon.=26.511480, Alt.=98.077209m. Speed=22.320000m/h.</desc>
<speed>6.200000</speed>
</trkpt>
<trkpt lat="55.864868" lon="26.511446">
<ele>98.184631</ele>
<time>2010-07-17T07:59:33Z</time>
<desc>lat.=55.864868, lon.=26.511446, Alt.=98.184631m. Speed=24.408001m/h.</desc>
<speed>6.780000</speed>
</trkpt>
<trkpt lat="55.864811" lon="26.511410">
<ele>97.702209</ele>
<time>2010-07-17T07:59:34Z</time>
<desc>lat.=55.864811, lon.=26.511410, Alt.=97.702209m. Speed=24.552000m/h.</desc>
<speed>6.820000</speed>
</trkpt>
<trkpt lat="55.864750" lon="26.511372">
<ele>97.364319</ele>
<time>2010-07-17T07:59:35Z</time>
<desc>lat.=55.864750, lon.=26.511372, Alt.=97.364319m. Speed=25.848000m/h.</desc>
<speed>7.180000</speed>
</trkpt>
<trkpt lat="55.864693" lon="26.511326">
<ele>96.920959</ele>
<time>2010-07-17T07:59:36Z</time>
<desc>lat.=55.864693, lon.=26.511326, Alt.=96.920959m. Speed=24.444000m/h.</desc>
<speed>6.790000</speed>
</trkpt>
<trkpt lat="55.864632" lon="26.511288">
<ele>96.708069</ele>
<time>2010-07-17T07:59:37Z</time>
<desc>lat.=55.864632, lon.=26.511288, Alt.=96.708069m. Speed=24.983999m/h.</desc>
<speed>6.940000</speed>
</trkpt>
<trkpt lat="55.864571" lon="26.511251">
<ele>97.161194</ele>
<time>2010-07-17T07:59:38Z</time>
<desc>lat.=55.864571, lon.=26.511251, Alt.=97.161194m. Speed=25.524000m/h.</desc>
<speed>7.090000</speed>
</trkpt>
<trkpt lat="55.864502" lon="26.511217">
<ele>96.692444</ele>
<time>2010-07-17T07:59:39Z</time>
<desc>lat.=55.864502, lon.=26.511217, Alt.=96.692444m. Speed=26.927999m/h.</desc>
<speed>7.480000</speed>
</trkpt>
<trkpt lat="55.864433" lon="26.511177">
<ele>96.292053</ele>
<time>2010-07-17T07:59:40Z</time>
<desc>lat.=55.864433, lon.=26.511177, Alt.=96.292053m. Speed=26.747999m/h.</desc>
<speed>7.430000</speed>
</trkpt>
<trkpt lat="55.864372" lon="26.511135">
<ele>95.772522</ele>
<time>2010-07-17T07:59:41Z</time>
<desc>lat.=55.864372, lon.=26.511135, Alt.=95.772522m. Speed=25.056000m/h.</desc>
<speed>6.960000</speed>
</trkpt>
<trkpt lat="55.864326" lon="26.511082">
<ele>95.741272</ele>
<time>2010-07-17T07:59:42Z</time>
<desc>lat.=55.864326, lon.=26.511082, Alt.=95.741272m. Speed=21.348000m/h.</desc>
<speed>5.930000</speed>
</trkpt>
<trkpt lat="55.864296" lon="26.511007">
<ele>96.795959</ele>
<time>2010-07-17T07:59:43Z</time>
<desc>lat.=55.864296, lon.=26.511007, Alt.=96.795959m. Speed=22.788000m/h.</desc>
<speed>6.330000</speed>
</trkpt>
<trkpt lat="55.864273" lon="26.510910">
<ele>96.770569</ele>
<time>2010-07-17T07:59:44Z</time>
<desc>lat.=55.864273, lon.=26.510910, Alt.=96.770569m. Speed=22.500000m/h.</desc>
<speed>6.250000</speed>
</trkpt>
<trkpt lat="55.864262" lon="26.510801">
<ele>96.838928</ele>
<time>2010-07-17T07:59:45Z</time>
<desc>lat.=55.864262, lon.=26.510801, Alt.=96.838928m. Speed=23.976000m/h.</desc>
<speed>6.660000</speed>
</trkpt>
<trkpt lat="55.864254" lon="26.510696">
<ele>97.135803</ele>
<time>2010-07-17T07:59:46Z</time>
<desc>lat.=55.864254, lon.=26.510696, Alt.=97.135803m. Speed=25.308001m/h.</desc>
<speed>7.030000</speed>
</trkpt>
<trkpt lat="55.864246" lon="26.510578">
<ele>97.038147</ele>
<time>2010-07-17T07:59:47Z</time>
<desc>lat.=55.864246, lon.=26.510578, Alt.=97.038147m. Speed=25.452000m/h.</desc>
<speed>7.070000</speed>
</trkpt>
<trkpt lat="55.864250" lon="26.510469">
<ele>96.752991</ele>
<time>2010-07-17T07:59:48Z</time>
<desc>lat.=55.864250, lon.=26.510469, Alt.=96.752991m. Speed=26.388000m/h.</desc>
<speed>7.330000</speed>
</trkpt>
<trkpt lat="55.864254" lon="26.510349">
<ele>96.538147</ele>
<time>2010-07-17T07:59:49Z</time>
<desc>lat.=55.864254, lon.=26.510349, Alt.=96.538147m. Speed=25.128000m/h.</desc>
<speed>6.980000</speed>
</trkpt>
<trkpt lat="55.864269" lon="26.510239">
<ele>96.483459</ele>
<time>2010-07-17T07:59:50Z</time>
<desc>lat.=55.864269, lon.=26.510239, Alt.=96.483459m. Speed=25.812000m/h.</desc>
<speed>7.170000</speed>
</trkpt>
<trkpt lat="55.864300" lon="26.510134">
<ele>96.469788</ele>
<time>2010-07-17T07:59:51Z</time>
<desc>lat.=55.864300, lon.=26.510134, Alt.=96.469788m. Speed=27.000000m/h.</desc>
<speed>7.500000</speed>
</trkpt>
<trkpt lat="55.864330" lon="26.510023">
<ele>96.590881</ele>
<time>2010-07-17T07:59:52Z</time>
<desc>lat.=55.864330, lon.=26.510023, Alt.=96.590881m. Speed=27.719999m/h.</desc>
<speed>7.700000</speed>
</trkpt>
<trkpt lat="55.864361" lon="26.509912">
<ele>96.348694</ele>
<time>2010-07-17T07:59:53Z</time>
<desc>lat.=55.864361, lon.=26.509912, Alt.=96.348694m. Speed=26.712000m/h.</desc>
<speed>7.420000</speed>
</trkpt>
<trkpt lat="55.864388" lon="26.509804">
<ele>95.932678</ele>
<time>2010-07-17T07:59:54Z</time>
<desc>lat.=55.864388, lon.=26.509804, Alt.=95.932678m. Speed=26.172001m/h.</desc>
<speed>7.270000</speed>
</trkpt>
<trkpt lat="55.864418" lon="26.509693">
<ele>95.545959</ele>
<time>2010-07-17T07:59:55Z</time>
<desc>lat.=55.864418, lon.=26.509693, Alt.=95.545959m. Speed=25.164000m/h.</desc>
<speed>6.990000</speed>
</trkpt>
<trkpt lat="55.864456" lon="26.509584">
<ele>96.579163</ele>
<time>2010-07-17T07:59:56Z</time>
<desc>lat.=55.864456, lon.=26.509584, Alt.=96.579163m. Speed=25.379999m/h.</desc>
<speed>7.050000</speed>
</trkpt>
<trkpt lat="55.864487" lon="26.509472">
<ele>96.809631</ele>
<time>2010-07-17T07:59:57Z</time>
<desc>lat.=55.864487, lon.=26.509472, Alt.=96.809631m. Speed=26.892000m/h.</desc>
<speed>7.470000</speed>
</trkpt>
<trkpt lat="55.864513" lon="26.509357">
<ele>96.831116</ele>
<time>2010-07-17T07:59:58Z</time>
<desc>lat.=55.864513, lon.=26.509357, Alt.=96.831116m. Speed=26.388000m/h.</desc>
<speed>7.330000</speed>
</trkpt>
<trkpt lat="55.864555" lon="26.509235">
<ele>97.960022</ele>
<time>2010-07-17T07:59:59Z</time>
<desc>lat.=55.864555, lon.=26.509235, Alt.=97.960022m. Speed=26.892000m/h.</desc>
<speed>7.470000</speed>
</trkpt>
<trkpt lat="55.864594" lon="26.509119">
<ele>98.903381</ele>
<time>2010-07-17T08:00:00Z</time>
<desc>lat.=55.864594, lon.=26.509119, Alt.=98.903381m. Speed=26.712000m/h.</desc>
<speed>7.420000</speed>
</trkpt>
<trkpt lat="55.864620" lon="26.509016">
<ele>99.022522</ele>
<time>2010-07-17T08:00:01Z</time>
<desc>lat.=55.864620, lon.=26.509016, Alt.=99.022522m. Speed=25.091999m/h.</desc>
<speed>6.970000</speed>
</trkpt>
<trkpt lat="55.864647" lon="26.508915">
<ele>99.044006</ele>
<time>2010-07-17T08:00:02Z</time>
<desc>lat.=55.864647, lon.=26.508915, Alt.=99.044006m. Speed=24.912001m/h.</desc>
<speed>6.920000</speed>
</trkpt>
<trkpt lat="55.864677" lon="26.508810">
<ele>99.284241</ele>
<time>2010-07-17T08:00:03Z</time>
<desc>lat.=55.864677, lon.=26.508810, Alt.=99.284241m. Speed=24.983999m/h.</desc>
<speed>6.940000</speed>
</trkpt>
<trkpt lat="55.864689" lon="26.508692">
<ele>99.544006</ele>
<time>2010-07-17T08:00:04Z</time>
<desc>lat.=55.864689, lon.=26.508692, Alt.=99.544006m. Speed=24.587999m/h.</desc>
<speed>6.830000</speed>
</trkpt>
<trkpt lat="55.864704" lon="26.508589">
<ele>99.690491</ele>
<time>2010-07-17T08:00:05Z</time>
<desc>lat.=55.864704, lon.=26.508589, Alt.=99.690491m. Speed=24.011999m/h.</desc>
<speed>6.670000</speed>
</trkpt>
<trkpt lat="55.864719" lon="26.508488">
<ele>99.924866</ele>
<time>2010-07-17T08:00:06Z</time>
<desc>lat.=55.864719, lon.=26.508488, Alt.=99.924866m. Speed=23.184000m/h.</desc>
<speed>6.440000</speed>
</trkpt>
<trkpt lat="55.864738" lon="26.508390">
<ele>100.252991</ele>
<time>2010-07-17T08:00:07Z</time>
<desc>lat.=55.864738, lon.=26.508390, Alt.=100.252991m. Speed=23.004000m/h.</desc>
<speed>6.390000</speed>
</trkpt>
<trkpt lat="55.864754" lon="26.508303">
<ele>99.788147</ele>
<time>2010-07-17T08:00:08Z</time>
<desc>lat.=55.864754, lon.=26.508303, Alt.=99.788147m. Speed=21.816000m/h.</desc>
<speed>6.060000</speed>
</trkpt>
<trkpt lat="55.864777" lon="26.508211">
<ele>99.794006</ele>
<time>2010-07-17T08:00:09Z</time>
<desc>lat.=55.864777, lon.=26.508211, Alt.=99.794006m. Speed=22.896000m/h.</desc>
<speed>6.360000</speed>
</trkpt>
<trkpt lat="55.864796" lon="26.508108">
<ele>99.700256</ele>
<time>2010-07-17T08:00:10Z</time>
<desc>lat.=55.864796, lon.=26.508108, Alt.=99.700256m. Speed=25.488001m/h.</desc>
<speed>7.080000</speed>
</trkpt>
<trkpt lat="55.864815" lon="26.508005">
<ele>99.637756</ele>
<time>2010-07-17T08:00:11Z</time>
<desc>lat.=55.864815, lon.=26.508005, Alt.=99.637756m. Speed=25.596001m/h.</desc>
<speed>7.110000</speed>
</trkpt>
<trkpt lat="55.864826" lon="26.507893">
<ele>99.202209</ele>
<time>2010-07-17T08:00:12Z</time>
<desc>lat.=55.864826, lon.=26.507893, Alt.=99.202209m. Speed=28.620001m/h.</desc>
<speed>7.950000</speed>
</trkpt>
<trkpt lat="55.864845" lon="26.507784">
<ele>99.042053</ele>
<time>2010-07-17T08:00:13Z</time>
<desc>lat.=55.864845, lon.=26.507784, Alt.=99.042053m. Speed=25.632000m/h.</desc>
<speed>7.120000</speed>
</trkpt>
<trkpt lat="55.864864" lon="26.507683">
<ele>98.836975</ele>
<time>2010-07-17T08:00:14Z</time>
<desc>lat.=55.864864, lon.=26.507683, Alt.=98.836975m. Speed=24.011999m/h.</desc>
<speed>6.670000</speed>
</trkpt>
<trkpt lat="55.864880" lon="26.507586">
<ele>98.747131</ele>
<time>2010-07-17T08:00:15Z</time>
<desc>lat.=55.864880, lon.=26.507586, Alt.=98.747131m. Speed=22.176001m/h.</desc>
<speed>6.160000</speed>
</trkpt>
<trkpt lat="55.864899" lon="26.507492">
<ele>98.651428</ele>
<time>2010-07-17T08:00:16Z</time>
<desc>lat.=55.864899, lon.=26.507492, Alt.=98.651428m. Speed=22.968000m/h.</desc>
<speed>6.380000</speed>
</trkpt>
<trkpt lat="55.864922" lon="26.507378">
<ele>98.872131</ele>
<time>2010-07-17T08:00:17Z</time>
<desc>lat.=55.864922, lon.=26.507378, Alt.=98.872131m. Speed=24.983999m/h.</desc>
<speed>6.940000</speed>
</trkpt>
<trkpt lat="55.864933" lon="26.507265">
<ele>98.885803</ele>
<time>2010-07-17T08:00:18Z</time>
<desc>lat.=55.864933, lon.=26.507265, Alt.=98.885803m. Speed=24.875999m/h.</desc>
<speed>6.910000</speed>
</trkpt>
<trkpt lat="55.864948" lon="26.507143">
<ele>98.995178</ele>
<time>2010-07-17T08:00:19Z</time>
<desc>lat.=55.864948, lon.=26.507143, Alt.=98.995178m. Speed=24.695999m/h.</desc>
<speed>6.860000</speed>
</trkpt>
<trkpt lat="55.864960" lon="26.507008">
<ele>99.260803</ele>
<time>2010-07-17T08:00:20Z</time>
<desc>lat.=55.864960, lon.=26.507008, Alt.=99.260803m. Speed=24.480000m/h.</desc>
<speed>6.800000</speed>
</trkpt>
<trkpt lat="55.864967" lon="26.506876">
<ele>99.530334</ele>
<time>2010-07-17T08:00:21Z</time>
<desc>lat.=55.864967, lon.=26.506876, Alt.=99.530334m. Speed=24.840000m/h.</desc>
<speed>6.900000</speed>
</trkpt>
<trkpt lat="55.864975" lon="26.506756">
<ele>99.690491</ele>
<time>2010-07-17T08:00:22Z</time>
<desc>lat.=55.864975, lon.=26.506756, Alt.=99.690491m. Speed=23.688000m/h.</desc>
<speed>6.580000</speed>
</trkpt>
<trkpt lat="55.864986" lon="26.506649">
<ele>99.967834</ele>
<time>2010-07-17T08:00:23Z</time>
<desc>lat.=55.864986, lon.=26.506649, Alt.=99.967834m. Speed=23.400000m/h.</desc>
<speed>6.500000</speed>
</trkpt>
<trkpt lat="55.865009" lon="26.506525">
<ele>100.352600</ele>
<time>2010-07-17T08:00:24Z</time>
<desc>lat.=55.865009, lon.=26.506525, Alt.=100.352600m. Speed=25.704000m/h.</desc>
<speed>7.140000</speed>
</trkpt>
<trkpt lat="55.865025" lon="26.506395">
<ele>100.549866</ele>
<time>2010-07-17T08:00:25Z</time>
<desc>lat.=55.865025, lon.=26.506395, Alt.=100.549866m. Speed=26.280001m/h.</desc>
<speed>7.300000</speed>
</trkpt>
<trkpt lat="55.865032" lon="26.506268">
<ele>100.760803</ele>
<time>2010-07-17T08:00:26Z</time>
<desc>lat.=55.865032, lon.=26.506268, Alt.=100.760803m. Speed=26.676001m/h.</desc>
<speed>7.410000</speed>
</trkpt>
<trkpt lat="55.865040" lon="26.506132">
<ele>101.090881</ele>
<time>2010-07-17T08:00:27Z</time>
<desc>lat.=55.865040, lon.=26.506132, Alt.=101.090881m. Speed=26.028000m/h.</desc>
<speed>7.230000</speed>
</trkpt>
<trkpt lat="55.865047" lon="26.506008">
<ele>101.481506</ele>
<time>2010-07-17T08:00:28Z</time>
<desc>lat.=55.865047, lon.=26.506008, Alt.=101.481506m. Speed=24.587999m/h.</desc>
<speed>6.830000</speed>
</trkpt>
<trkpt lat="55.865051" lon="26.505899">
<ele>101.344788</ele>
<time>2010-07-17T08:00:29Z</time>
<desc>lat.=55.865051, lon.=26.505899, Alt.=101.344788m. Speed=24.552000m/h.</desc>
<speed>6.820000</speed>
</trkpt>
<trkpt lat="55.865059" lon="26.505783">
<ele>101.360413</ele>
<time>2010-07-17T08:00:30Z</time>
<desc>lat.=55.865059, lon.=26.505783, Alt.=101.360413m. Speed=25.632000m/h.</desc>
<speed>7.120000</speed>
</trkpt>
<trkpt lat="55.865055" lon="26.505669">
<ele>101.411194</ele>
<time>2010-07-17T08:00:31Z</time>
<desc>lat.=55.865055, lon.=26.505669, Alt.=101.411194m. Speed=25.667999m/h.</desc>
<speed>7.130000</speed>
</trkpt>
<trkpt lat="55.865051" lon="26.505564">
<ele>101.721741</ele>
<time>2010-07-17T08:00:32Z</time>
<desc>lat.=55.865051, lon.=26.505564, Alt.=101.721741m. Speed=25.091999m/h.</desc>
<speed>6.970000</speed>
</trkpt>
<trkpt lat="55.865055" lon="26.505463">
<ele>101.797913</ele>
<time>2010-07-17T08:00:33Z</time>
<desc>lat.=55.865055, lon.=26.505463, Alt.=101.797913m. Speed=23.507999m/h.</desc>
<speed>6.530000</speed>
</trkpt>
<trkpt lat="55.865047" lon="26.505379">
<ele>102.538147</ele>
<time>2010-07-17T08:00:34Z</time>
<desc>lat.=55.865047, lon.=26.505379, Alt.=102.538147m. Speed=23.364000m/h.</desc>
<speed>6.490000</speed>
</trkpt>
<trkpt lat="55.865040" lon="26.505291">
<ele>102.801819</ele>
<time>2010-07-17T08:00:35Z</time>
<desc>lat.=55.865040, lon.=26.505291, Alt.=102.801819m. Speed=21.563999m/h.</desc>
<speed>5.990000</speed>
</trkpt>
<trkpt lat="55.865032" lon="26.505196">
<ele>102.917053</ele>
<time>2010-07-17T08:00:36Z</time>
<desc>lat.=55.865032, lon.=26.505196, Alt.=102.917053m. Speed=21.743999m/h.</desc>
<speed>6.040000</speed>
</trkpt>
<trkpt lat="55.865028" lon="26.505095">
<ele>103.221741</ele>
<time>2010-07-17T08:00:37Z</time>
<desc>lat.=55.865028, lon.=26.505095, Alt.=103.221741m. Speed=21.096001m/h.</desc>
<speed>5.860000</speed>
</trkpt>
<trkpt lat="55.865017" lon="26.504995">
<ele>103.514709</ele>
<time>2010-07-17T08:00:38Z</time>
<desc>lat.=55.865017, lon.=26.504995, Alt.=103.514709m. Speed=20.879999m/h.</desc>
<speed>5.800000</speed>
</trkpt>
<trkpt lat="55.865009" lon="26.504900">
<ele>103.680725</ele>
<time>2010-07-17T08:00:39Z</time>
<desc>lat.=55.865009, lon.=26.504900, Alt.=103.680725m. Speed=20.591999m/h.</desc>
<speed>5.720000</speed>
</trkpt>
<trkpt lat="55.864998" lon="26.504803">
<ele>103.768616</ele>
<time>2010-07-17T08:00:40Z</time>
<desc>lat.=55.864998, lon.=26.504803, Alt.=103.768616m. Speed=20.952000m/h.</desc>
<speed>5.820000</speed>
</trkpt>
<trkpt lat="55.864986" lon="26.504705">
<ele>103.770569</ele>
<time>2010-07-17T08:00:41Z</time>
<desc>lat.=55.864986, lon.=26.504705, Alt.=103.770569m. Speed=19.836000m/h.</desc>
<speed>5.510000</speed>
</trkpt>
<trkpt lat="55.864975" lon="26.504616">
<ele>103.905334</ele>
<time>2010-07-17T08:00:42Z</time>
<desc>lat.=55.864975, lon.=26.504616, Alt.=103.905334m. Speed=19.836000m/h.</desc>
<speed>5.510000</speed>
</trkpt>
<trkpt lat="55.864964" lon="26.504524">
<ele>103.612366</ele>
<time>2010-07-17T08:00:43Z</time>
<desc>lat.=55.864964, lon.=26.504524, Alt.=103.612366m. Speed=20.232000m/h.</desc>
<speed>5.620000</speed>
</trkpt>
<trkpt lat="55.864944" lon="26.504442">
<ele>103.044006</ele>
<time>2010-07-17T08:00:44Z</time>
<desc>lat.=55.864944, lon.=26.504442, Alt.=103.044006m. Speed=19.548000m/h.</desc>
<speed>5.430000</speed>
</trkpt>
<trkpt lat="55.864933" lon="26.504349">
<ele>102.639709</ele>
<time>2010-07-17T08:00:45Z</time>
<desc>lat.=55.864933, lon.=26.504349, Alt.=102.639709m. Speed=19.980000m/h.</desc>
<speed>5.550000</speed>
</trkpt>
<trkpt lat="55.864925" lon="26.504261">
<ele>102.467834</ele>
<time>2010-07-17T08:00:46Z</time>
<desc>lat.=55.864925, lon.=26.504261, Alt.=102.467834m. Speed=20.232000m/h.</desc>
<speed>5.620000</speed>
</trkpt>
<trkpt lat="55.864922" lon="26.504177">
<ele>102.667053</ele>
<time>2010-07-17T08:00:47Z</time>
<desc>lat.=55.864922, lon.=26.504177, Alt.=102.667053m. Speed=19.115999m/h.</desc>
<speed>5.310000</speed>
</trkpt>
<trkpt lat="55.864929" lon="26.504095">
<ele>102.817444</ele>
<time>2010-07-17T08:00:48Z</time>
<desc>lat.=55.864929, lon.=26.504095, Alt.=102.817444m. Speed=20.052000m/h.</desc>
<speed>5.570000</speed>
</trkpt>
<trkpt lat="55.864944" lon="26.504004">
<ele>103.182678</ele>
<time>2010-07-17T08:00:49Z</time>
<desc>lat.=55.864944, lon.=26.504004, Alt.=103.182678m. Speed=21.708000m/h.</desc>
<speed>6.030000</speed>
</trkpt>
<trkpt lat="55.864964" lon="26.503914">
<ele>103.085022</ele>
<time>2010-07-17T08:00:50Z</time>
<desc>lat.=55.864964, lon.=26.503914, Alt.=103.085022m. Speed=20.808001m/h.</desc>
<speed>5.780000</speed>
</trkpt>
<trkpt lat="55.864990" lon="26.503830">
<ele>102.512756</ele>
<time>2010-07-17T08:00:51Z</time>
<desc>lat.=55.864990, lon.=26.503830, Alt.=102.512756m. Speed=22.212000m/h.</desc>
<speed>6.170000</speed>
</trkpt>
<trkpt lat="55.865032" lon="26.503757">
<ele>102.467834</ele>
<time>2010-07-17T08:00:52Z</time>
<desc>lat.=55.865032, lon.=26.503757, Alt.=102.467834m. Speed=22.392000m/h.</desc>
<speed>6.220000</speed>
</trkpt>
<trkpt lat="55.865086" lon="26.503704">
<ele>102.377991</ele>
<time>2010-07-17T08:00:53Z</time>
<desc>lat.=55.865086, lon.=26.503704, Alt.=102.377991m. Speed=24.516001m/h.</desc>
<speed>6.810000</speed>
</trkpt>
<trkpt lat="55.865143" lon="26.503660">
<ele>102.413147</ele>
<time>2010-07-17T08:00:54Z</time>
<desc>lat.=55.865143, lon.=26.503660, Alt.=102.413147m. Speed=23.796000m/h.</desc>
<speed>6.610000</speed>
</trkpt>
<trkpt lat="55.865200" lon="26.503635">
<ele>102.475647</ele>
<time>2010-07-17T08:00:55Z</time>
<desc>lat.=55.865200, lon.=26.503635, Alt.=102.475647m. Speed=24.660000m/h.</desc>
<speed>6.850000</speed>
</trkpt>
<trkpt lat="55.865265" lon="26.503622">
<ele>102.493225</ele>
<time>2010-07-17T08:00:56Z</time>
<desc>lat.=55.865265, lon.=26.503622, Alt.=102.493225m. Speed=25.379999m/h.</desc>
<speed>7.050000</speed>
</trkpt>
<trkpt lat="55.865326" lon="26.503593">
<ele>101.551819</ele>
<time>2010-07-17T08:00:57Z</time>
<desc>lat.=55.865326, lon.=26.503593, Alt.=101.551819m. Speed=25.308001m/h.</desc>
<speed>7.030000</speed>
</trkpt>
<trkpt lat="55.865391" lon="26.503572">
<ele>101.196350</ele>
<time>2010-07-17T08:00:58Z</time>
<desc>lat.=55.865391, lon.=26.503572, Alt.=101.196350m. Speed=26.459999m/h.</desc>
<speed>7.350000</speed>
</trkpt>
<trkpt lat="55.865459" lon="26.503557">
<ele>100.932678</ele>
<time>2010-07-17T08:00:59Z</time>
<desc>lat.=55.865459, lon.=26.503557, Alt.=100.932678m. Speed=28.007999m/h.</desc>
<speed>7.780000</speed>
</trkpt>
<trkpt lat="55.865536" lon="26.503538">
<ele>100.551819</ele>
<time>2010-07-17T08:01:00Z</time>
<desc>lat.=55.865536, lon.=26.503538, Alt.=100.551819m. Speed=27.684000m/h.</desc>
<speed>7.690000</speed>
</trkpt>
<trkpt lat="55.865608" lon="26.503531">
<ele>100.876038</ele>
<time>2010-07-17T08:01:01Z</time>
<desc>lat.=55.865608, lon.=26.503531, Alt.=100.876038m. Speed=25.955999m/h.</desc>
<speed>7.210000</speed>
</trkpt>
<trkpt lat="55.865673" lon="26.503502">
<ele>99.856506</ele>
<time>2010-07-17T08:01:02Z</time>
<desc>lat.=55.865673, lon.=26.503502, Alt.=99.856506m. Speed=26.892000m/h.</desc>
<speed>7.470000</speed>
</trkpt>
<trkpt lat="55.865738" lon="26.503483">
<ele>99.708069</ele>
<time>2010-07-17T08:01:03Z</time>
<desc>lat.=55.865738, lon.=26.503483, Alt.=99.708069m. Speed=24.840000m/h.</desc>
<speed>6.900000</speed>
</trkpt>
<trkpt lat="55.865807" lon="26.503466">
<ele>100.403381</ele>
<time>2010-07-17T08:01:04Z</time>
<desc>lat.=55.865807, lon.=26.503466, Alt.=100.403381m. Speed=24.264000m/h.</desc>
<speed>6.740000</speed>
</trkpt>
<trkpt lat="55.865864" lon="26.503445">
<ele>100.645569</ele>
<time>2010-07-17T08:01:05Z</time>
<desc>lat.=55.865864, lon.=26.503445, Alt.=100.645569m. Speed=23.760000m/h.</desc>
<speed>6.600000</speed>
</trkpt>
<trkpt lat="55.865913" lon="26.503408">
<ele>100.169006</ele>
<time>2010-07-17T08:01:06Z</time>
<desc>lat.=55.865913, lon.=26.503408, Alt.=100.169006m. Speed=21.096001m/h.</desc>
<speed>5.860000</speed>
</trkpt>
<trkpt lat="55.865967" lon="26.503366">
<ele>99.760803</ele>
<time>2010-07-17T08:01:07Z</time>
<desc>lat.=55.865967, lon.=26.503366, Alt.=99.760803m. Speed=22.032000m/h.</desc>
<speed>6.120000</speed>
</trkpt>
<trkpt lat="55.866016" lon="26.503325">
<ele>99.586975</ele>
<time>2010-07-17T08:01:08Z</time>
<desc>lat.=55.866016, lon.=26.503325, Alt.=99.586975m. Speed=21.492001m/h.</desc>
<speed>5.970000</speed>
</trkpt>
<trkpt lat="55.866074" lon="26.503279">
<ele>100.258850</ele>
<time>2010-07-17T08:01:09Z</time>
<desc>lat.=55.866074, lon.=26.503279, Alt.=100.258850m. Speed=23.364000m/h.</desc>
<speed>6.490000</speed>
</trkpt>
<trkpt lat="55.866123" lon="26.503225">
<ele>100.274475</ele>
<time>2010-07-17T08:01:10Z</time>
<desc>lat.=55.866123, lon.=26.503225, Alt.=100.274475m. Speed=23.400000m/h.</desc>
<speed>6.500000</speed>
</trkpt>
<trkpt lat="55.866173" lon="26.503164">
<ele>100.223694</ele>
<time>2010-07-17T08:01:11Z</time>
<desc>lat.=55.866173, lon.=26.503164, Alt.=100.223694m. Speed=22.788000m/h.</desc>
<speed>6.330000</speed>
</trkpt>
<trkpt lat="55.866215" lon="26.503096">
<ele>100.135803</ele>
<time>2010-07-17T08:01:12Z</time>
<desc>lat.=55.866215, lon.=26.503096, Alt.=100.135803m. Speed=23.256001m/h.</desc>
<speed>6.460000</speed>
</trkpt>
<trkpt lat="55.866257" lon="26.503023">
<ele>99.977600</ele>
<time>2010-07-17T08:01:13Z</time>
<desc>lat.=55.866257, lon.=26.503023, Alt.=99.977600m. Speed=22.860001m/h.</desc>
<speed>6.350000</speed>
</trkpt>
<trkpt lat="55.866302" lon="26.502932">
<ele>99.034241</ele>
<time>2010-07-17T08:01:14Z</time>
<desc>lat.=55.866302, lon.=26.502932, Alt.=99.034241m. Speed=24.084000m/h.</desc>
<speed>6.690000</speed>
</trkpt>
<trkpt lat="55.866348" lon="26.502859">
<ele>98.713928</ele>
<time>2010-07-17T08:01:15Z</time>
<desc>lat.=55.866348, lon.=26.502859, Alt.=98.713928m. Speed=23.256001m/h.</desc>
<speed>6.460000</speed>
</trkpt>
<trkpt lat="55.866394" lon="26.502790">
<ele>98.721741</ele>
<time>2010-07-17T08:01:16Z</time>
<desc>lat.=55.866394, lon.=26.502790, Alt.=98.721741m. Speed=22.572001m/h.</desc>
<speed>6.270000</speed>
</trkpt>
<trkpt lat="55.866440" lon="26.502710">
<ele>98.420959</ele>
<time>2010-07-17T08:01:17Z</time>
<desc>lat.=55.866440, lon.=26.502710, Alt.=98.420959m. Speed=23.688000m/h.</desc>
<speed>6.580000</speed>
</trkpt>
<trkpt lat="55.866482" lon="26.502638">
<ele>98.352600</ele>
<time>2010-07-17T08:01:18Z</time>
<desc>lat.=55.866482, lon.=26.502638, Alt.=98.352600m. Speed=22.823999m/h.</desc>
<speed>6.340000</speed>
</trkpt>
<trkpt lat="55.866531" lon="26.502567">
<ele>98.292053</ele>
<time>2010-07-17T08:01:19Z</time>
<desc>lat.=55.866531, lon.=26.502567, Alt.=98.292053m. Speed=23.615999m/h.</desc>
<speed>6.560000</speed>
</trkpt>
<trkpt lat="55.866581" lon="26.502501">
<ele>98.622131</ele>
<time>2010-07-17T08:01:20Z</time>
<desc>lat.=55.866581, lon.=26.502501, Alt.=98.622131m. Speed=24.336000m/h.</desc>
<speed>6.760000</speed>
</trkpt>
<trkpt lat="55.866631" lon="26.502434">
<ele>98.811584</ele>
<time>2010-07-17T08:01:21Z</time>
<desc>lat.=55.866631, lon.=26.502434, Alt.=98.811584m. Speed=23.976000m/h.</desc>
<speed>6.660000</speed>
</trkpt>
<trkpt lat="55.866680" lon="26.502363">
<ele>98.897522</ele>
<time>2010-07-17T08:01:22Z</time>
<desc>lat.=55.866680, lon.=26.502363, Alt.=98.897522m. Speed=25.128000m/h.</desc>
<speed>6.980000</speed>
</trkpt>
<trkpt lat="55.866730" lon="26.502285">
<ele>98.387756</ele>
<time>2010-07-17T08:01:23Z</time>
<desc>lat.=55.866730, lon.=26.502285, Alt.=98.387756m. Speed=25.992001m/h.</desc>
<speed>7.220000</speed>
</trkpt>
<trkpt lat="55.866772" lon="26.502207">
<ele>97.516663</ele>
<time>2010-07-17T08:01:24Z</time>
<desc>lat.=55.866772, lon.=26.502207, Alt.=97.516663m. Speed=24.264000m/h.</desc>
<speed>6.740000</speed>
</trkpt>
<trkpt lat="55.866817" lon="26.502138">
<ele>97.618225</ele>
<time>2010-07-17T08:01:25Z</time>
<desc>lat.=55.866817, lon.=26.502138, Alt.=97.618225m. Speed=23.688000m/h.</desc>
<speed>6.580000</speed>
</trkpt>
<trkpt lat="55.866863" lon="26.502068">
<ele>97.303772</ele>
<time>2010-07-17T08:01:26Z</time>
<desc>lat.=55.866863, lon.=26.502068, Alt.=97.303772m. Speed=23.615999m/h.</desc>
<speed>6.560000</speed>
</trkpt>
<trkpt lat="55.866901" lon="26.501999">
<ele>97.124084</ele>
<time>2010-07-17T08:01:27Z</time>
<desc>lat.=55.866901, lon.=26.501999, Alt.=97.124084m. Speed=22.860001m/h.</desc>
<speed>6.350000</speed>
</trkpt>
<trkpt lat="55.866947" lon="26.501928">
<ele>96.944397</ele>
<time>2010-07-17T08:01:28Z</time>
<desc>lat.=55.866947, lon.=26.501928, Alt.=96.944397m. Speed=23.868000m/h.</desc>
<speed>6.630000</speed>
</trkpt>
<trkpt lat="55.866993" lon="26.501862">
<ele>96.774475</ele>
<time>2010-07-17T08:01:29Z</time>
<desc>lat.=55.866993, lon.=26.501862, Alt.=96.774475m. Speed=25.056000m/h.</desc>
<speed>6.960000</speed>
</trkpt>
<trkpt lat="55.867046" lon="26.501789">
<ele>96.522522</ele>
<time>2010-07-17T08:01:30Z</time>
<desc>lat.=55.867046, lon.=26.501789, Alt.=96.522522m. Speed=24.552000m/h.</desc>
<speed>6.820000</speed>
</trkpt>
<trkpt lat="55.867096" lon="26.501717">
<ele>96.090881</ele>
<time>2010-07-17T08:01:31Z</time>
<desc>lat.=55.867096, lon.=26.501717, Alt.=96.090881m. Speed=24.228001m/h.</desc>
<speed>6.730000</speed>
</trkpt>
<trkpt lat="55.867138" lon="26.501648">
<ele>95.678772</ele>
<time>2010-07-17T08:01:32Z</time>
<desc>lat.=55.867138, lon.=26.501648, Alt.=95.678772m. Speed=25.236000m/h.</desc>
<speed>7.010000</speed>
</trkpt>
<trkpt lat="55.867188" lon="26.501583">
<ele>95.461975</ele>
<time>2010-07-17T08:01:33Z</time>
<desc>lat.=55.867188, lon.=26.501583, Alt.=95.461975m. Speed=25.559999m/h.</desc>
<speed>7.100000</speed>
</trkpt>
<trkpt lat="55.867241" lon="26.501513">
<ele>95.346741</ele>
<time>2010-07-17T08:01:34Z</time>
<desc>lat.=55.867241, lon.=26.501513, Alt.=95.346741m. Speed=26.351999m/h.</desc>
<speed>7.320000</speed>
</trkpt>
<trkpt lat="55.867294" lon="26.501442">
<ele>95.104553</ele>
<time>2010-07-17T08:01:35Z</time>
<desc>lat.=55.867294, lon.=26.501442, Alt.=95.104553m. Speed=25.992001m/h.</desc>
<speed>7.220000</speed>
</trkpt>
<trkpt lat="55.867340" lon="26.501368">
<ele>94.790100</ele>
<time>2010-07-17T08:01:36Z</time>
<desc>lat.=55.867340, lon.=26.501368, Alt.=94.790100m. Speed=25.308001m/h.</desc>
<speed>7.030000</speed>
</trkpt>
<trkpt lat="55.867382" lon="26.501295">
<ele>94.735413</ele>
<time>2010-07-17T08:01:37Z</time>
<desc>lat.=55.867382, lon.=26.501295, Alt.=94.735413m. Speed=24.840000m/h.</desc>
<speed>6.900000</speed>
</trkpt>
<trkpt lat="55.867432" lon="26.501223">
<ele>94.514709</ele>
<time>2010-07-17T08:01:38Z</time>
<desc>lat.=55.867432, lon.=26.501223, Alt.=94.514709m. Speed=26.028000m/h.</desc>
<speed>7.230000</speed>
</trkpt>
<trkpt lat="55.867481" lon="26.501150">
<ele>94.325256</ele>
<time>2010-07-17T08:01:39Z</time>
<desc>lat.=55.867481, lon.=26.501150, Alt.=94.325256m. Speed=24.840000m/h.</desc>
<speed>6.900000</speed>
</trkpt>
<trkpt lat="55.867531" lon="26.501087">
<ele>94.083069</ele>
<time>2010-07-17T08:01:40Z</time>
<desc>lat.=55.867531, lon.=26.501087, Alt.=94.083069m. Speed=25.164000m/h.</desc>
<speed>6.990000</speed>
</trkpt>
<trkpt lat="55.867580" lon="26.501024">
<ele>93.995178</ele>
<time>2010-07-17T08:01:41Z</time>
<desc>lat.=55.867580, lon.=26.501024, Alt.=93.995178m. Speed=24.444000m/h.</desc>
<speed>6.790000</speed>
</trkpt>
<trkpt lat="55.867626" lon="26.500950">
<ele>93.745178</ele>
<time>2010-07-17T08:01:42Z</time>
<desc>lat.=55.867626, lon.=26.500950, Alt.=93.745178m. Speed=25.236000m/h.</desc>
<speed>7.010000</speed>
</trkpt>
<trkpt lat="55.867676" lon="26.500891">
<ele>93.737366</ele>
<time>2010-07-17T08:01:43Z</time>
<desc>lat.=55.867676, lon.=26.500891, Alt.=93.737366m. Speed=25.559999m/h.</desc>
<speed>7.100000</speed>
</trkpt>
<trkpt lat="55.867733" lon="26.500828">
<ele>94.008850</ele>
<time>2010-07-17T08:01:44Z</time>
<desc>lat.=55.867733, lon.=26.500828, Alt.=94.008850m. Speed=25.920000m/h.</desc>
<speed>7.200000</speed>
</trkpt>
<trkpt lat="55.867779" lon="26.500753">
<ele>93.895569</ele>
<time>2010-07-17T08:01:45Z</time>
<desc>lat.=55.867779, lon.=26.500753, Alt.=93.895569m. Speed=25.848000m/h.</desc>
<speed>7.180000</speed>
</trkpt>
<trkpt lat="55.867836" lon="26.500681">
<ele>94.127991</ele>
<time>2010-07-17T08:01:46Z</time>
<desc>lat.=55.867836, lon.=26.500681, Alt.=94.127991m. Speed=25.667999m/h.</desc>
<speed>7.130000</speed>
</trkpt>
<trkpt lat="55.867889" lon="26.500616">
<ele>94.295959</ele>
<time>2010-07-17T08:01:47Z</time>
<desc>lat.=55.867889, lon.=26.500616, Alt.=94.295959m. Speed=26.351999m/h.</desc>
<speed>7.320000</speed>
</trkpt>
<trkpt lat="55.867947" lon="26.500551">
<ele>94.536194</ele>
<time>2010-07-17T08:01:48Z</time>
<desc>lat.=55.867947, lon.=26.500551, Alt.=94.536194m. Speed=26.784000m/h.</desc>
<speed>7.440000</speed>
</trkpt>
<trkpt lat="55.868000" lon="26.500475">
<ele>94.674866</ele>
<time>2010-07-17T08:01:49Z</time>
<desc>lat.=55.868000, lon.=26.500475, Alt.=94.674866m. Speed=27.396000m/h.</desc>
<speed>7.610000</speed>
</trkpt>
<trkpt lat="55.868050" lon="26.500408">
<ele>94.629944</ele>
<time>2010-07-17T08:01:50Z</time>
<desc>lat.=55.868050, lon.=26.500408, Alt.=94.629944m. Speed=26.208000m/h.</desc>
<speed>7.280000</speed>
</trkpt>
<trkpt lat="55.868103" lon="26.500341">
<ele>94.926819</ele>
<time>2010-07-17T08:01:51Z</time>
<desc>lat.=55.868103, lon.=26.500341, Alt.=94.926819m. Speed=25.992001m/h.</desc>
<speed>7.220000</speed>
</trkpt>
<trkpt lat="55.868164" lon="26.500267">
<ele>95.325256</ele>
<time>2010-07-17T08:01:52Z</time>
<desc>lat.=55.868164, lon.=26.500267, Alt.=95.325256m. Speed=25.920000m/h.</desc>
<speed>7.200000</speed>
</trkpt>
<trkpt lat="55.868221" lon="26.500200">
<ele>95.510803</ele>
<time>2010-07-17T08:01:53Z</time>
<desc>lat.=55.868221, lon.=26.500200, Alt.=95.510803m. Speed=25.236000m/h.</desc>
<speed>7.010000</speed>
</trkpt>
<trkpt lat="55.868275" lon="26.500130">
<ele>95.649475</ele>
<time>2010-07-17T08:01:54Z</time>
<desc>lat.=55.868275, lon.=26.500130, Alt.=95.649475m. Speed=25.020000m/h.</desc>
<speed>6.950000</speed>
</trkpt>
<trkpt lat="55.868328" lon="26.500061">
<ele>95.891663</ele>
<time>2010-07-17T08:01:55Z</time>
<desc>lat.=55.868328, lon.=26.500061, Alt.=95.891663m. Speed=24.695999m/h.</desc>
<speed>6.860000</speed>
</trkpt>
<trkpt lat="55.868378" lon="26.499998">
<ele>95.913147</ele>
<time>2010-07-17T08:01:56Z</time>
<desc>lat.=55.868378, lon.=26.499998, Alt.=95.913147m. Speed=25.056000m/h.</desc>
<speed>6.960000</speed>
</trkpt>
<trkpt lat="55.868435" lon="26.499947">
<ele>96.260803</ele>
<time>2010-07-17T08:01:57Z</time>
<desc>lat.=55.868435, lon.=26.499947, Alt.=96.260803m. Speed=25.955999m/h.</desc>
<speed>7.210000</speed>
</trkpt>
<trkpt lat="55.868488" lon="26.499886">
<ele>96.299866</ele>
<time>2010-07-17T08:01:58Z</time>
<desc>lat.=55.868488, lon.=26.499886, Alt.=96.299866m. Speed=25.632000m/h.</desc>
<speed>7.120000</speed>
</trkpt>
<trkpt lat="55.868538" lon="26.499815">
<ele>95.897522</ele>
<time>2010-07-17T08:01:59Z</time>
<desc>lat.=55.868538, lon.=26.499815, Alt.=95.897522m. Speed=25.704000m/h.</desc>
<speed>7.140000</speed>
</trkpt>
<trkpt lat="55.868595" lon="26.499760">
<ele>95.877991</ele>
<time>2010-07-17T08:02:00Z</time>
<desc>lat.=55.868595, lon.=26.499760, Alt.=95.877991m. Speed=25.884001m/h.</desc>
<speed>7.190000</speed>
</trkpt>
<trkpt lat="55.868656" lon="26.499701">
<ele>95.674866</ele>
<time>2010-07-17T08:02:01Z</time>
<desc>lat.=55.868656, lon.=26.499701, Alt.=95.674866m. Speed=27.288000m/h.</desc>
<speed>7.580000</speed>
</trkpt>
<trkpt lat="55.868717" lon="26.499647">
<ele>95.649475</ele>
<time>2010-07-17T08:02:02Z</time>
<desc>lat.=55.868717, lon.=26.499647, Alt.=95.649475m. Speed=26.459999m/h.</desc>
<speed>7.350000</speed>
</trkpt>
<trkpt lat="55.868778" lon="26.499598">
<ele>95.932678</ele>
<time>2010-07-17T08:02:03Z</time>
<desc>lat.=55.868778, lon.=26.499598, Alt.=95.932678m. Speed=26.604000m/h.</desc>
<speed>7.390000</speed>
</trkpt>
<trkpt lat="55.868835" lon="26.499546">
<ele>95.440491</ele>
<time>2010-07-17T08:02:04Z</time>
<desc>lat.=55.868835, lon.=26.499546, Alt.=95.440491m. Speed=25.848000m/h.</desc>
<speed>7.180000</speed>
</trkpt>
<trkpt lat="55.868893" lon="26.499489">
<ele>95.579163</ele>
<time>2010-07-17T08:02:05Z</time>
<desc>lat.=55.868893, lon.=26.499489, Alt.=95.579163m. Speed=25.308001m/h.</desc>
<speed>7.030000</speed>
</trkpt>
<trkpt lat="55.868950" lon="26.499437">
<ele>95.721741</ele>
<time>2010-07-17T08:02:06Z</time>
<desc>lat.=55.868950, lon.=26.499437, Alt.=95.721741m. Speed=24.695999m/h.</desc>
<speed>6.860000</speed>
</trkpt>
<trkpt lat="55.869003" lon="26.499388">
<ele>95.690491</ele>
<time>2010-07-17T08:02:07Z</time>
<desc>lat.=55.869003, lon.=26.499388, Alt.=95.690491m. Speed=25.056000m/h.</desc>
<speed>6.960000</speed>
</trkpt>
<trkpt lat="55.869061" lon="26.499332">
<ele>95.876038</ele>
<time>2010-07-17T08:02:08Z</time>
<desc>lat.=55.869061, lon.=26.499332, Alt.=95.876038m. Speed=26.136000m/h.</desc>
<speed>7.260000</speed>
</trkpt>
<trkpt lat="55.869122" lon="26.499268">
<ele>95.803772</ele>
<time>2010-07-17T08:02:09Z</time>
<desc>lat.=55.869122, lon.=26.499268, Alt.=95.803772m. Speed=25.559999m/h.</desc>
<speed>7.100000</speed>
</trkpt>
<trkpt lat="55.869175" lon="26.499212">
<ele>95.305725</ele>
<time>2010-07-17T08:02:10Z</time>
<desc>lat.=55.869175, lon.=26.499212, Alt.=95.305725m. Speed=24.624001m/h.</desc>
<speed>6.840000</speed>
</trkpt>
<trkpt lat="55.869228" lon="26.499157">
<ele>95.217834</ele>
<time>2010-07-17T08:02:11Z</time>
<desc>lat.=55.869228, lon.=26.499157, Alt.=95.217834m. Speed=25.488001m/h.</desc>
<speed>7.080000</speed>
</trkpt>
<trkpt lat="55.869286" lon="26.499102">
<ele>95.120178</ele>
<time>2010-07-17T08:02:12Z</time>
<desc>lat.=55.869286, lon.=26.499102, Alt.=95.120178m. Speed=24.552000m/h.</desc>
<speed>6.820000</speed>
</trkpt>
<trkpt lat="55.869339" lon="26.499046">
<ele>94.926819</ele>
<time>2010-07-17T08:02:13Z</time>
<desc>lat.=55.869339, lon.=26.499046, Alt.=94.926819m. Speed=24.516001m/h.</desc>
<speed>6.810000</speed>
</trkpt>
<trkpt lat="55.869389" lon="26.498999">
<ele>95.141663</ele>
<time>2010-07-17T08:02:14Z</time>
<desc>lat.=55.869389, lon.=26.498999, Alt.=95.141663m. Speed=23.507999m/h.</desc>
<speed>6.530000</speed>
</trkpt>
<trkpt lat="55.869442" lon="26.498949">
<ele>95.219788</ele>
<time>2010-07-17T08:02:15Z</time>
<desc>lat.=55.869442, lon.=26.498949, Alt.=95.219788m. Speed=23.976000m/h.</desc>
<speed>6.660000</speed>
</trkpt>
<trkpt lat="55.869495" lon="26.498890">
<ele>95.153381</ele>
<time>2010-07-17T08:02:16Z</time>
<desc>lat.=55.869495, lon.=26.498890, Alt.=95.153381m. Speed=23.184000m/h.</desc>
<speed>6.440000</speed>
</trkpt>
<trkpt lat="55.869545" lon="26.498835">
<ele>94.920959</ele>
<time>2010-07-17T08:02:17Z</time>
<desc>lat.=55.869545, lon.=26.498835, Alt.=94.920959m. Speed=22.500000m/h.</desc>
<speed>6.250000</speed>
</trkpt>
<trkpt lat="55.869595" lon="26.498785">
<ele>94.770569</ele>
<time>2010-07-17T08:02:18Z</time>
<desc>lat.=55.869595, lon.=26.498785, Alt.=94.770569m. Speed=24.840000m/h.</desc>
<speed>6.900000</speed>
</trkpt>
<trkpt lat="55.869644" lon="26.498732">
<ele>94.635803</ele>
<time>2010-07-17T08:02:19Z</time>
<desc>lat.=55.869644, lon.=26.498732, Alt.=94.635803m. Speed=25.128000m/h.</desc>
<speed>6.980000</speed>
</trkpt>
<trkpt lat="55.869705" lon="26.498686">
<ele>94.729553</ele>
<time>2010-07-17T08:02:20Z</time>
<desc>lat.=55.869705, lon.=26.498686, Alt.=94.729553m. Speed=24.768000m/h.</desc>
<speed>6.880000</speed>
</trkpt>
<trkpt lat="55.869762" lon="26.498650">
<ele>94.088928</ele>
<time>2010-07-17T08:02:21Z</time>
<desc>lat.=55.869762, lon.=26.498650, Alt.=94.088928m. Speed=24.875999m/h.</desc>
<speed>6.910000</speed>
</trkpt>
<trkpt lat="55.869820" lon="26.498606">
<ele>93.911194</ele>
<time>2010-07-17T08:02:22Z</time>
<desc>lat.=55.869820, lon.=26.498606, Alt.=93.911194m. Speed=25.091999m/h.</desc>
<speed>6.970000</speed>
</trkpt>
<trkpt lat="55.869877" lon="26.498573">
<ele>94.167053</ele>
<time>2010-07-17T08:02:23Z</time>
<desc>lat.=55.869877, lon.=26.498573, Alt.=94.167053m. Speed=22.823999m/h.</desc>
<speed>6.340000</speed>
</trkpt>
<trkpt lat="55.869938" lon="26.498541">
<ele>93.805725</ele>
<time>2010-07-17T08:02:24Z</time>
<desc>lat.=55.869938, lon.=26.498541, Alt.=93.805725m. Speed=24.587999m/h.</desc>
<speed>6.830000</speed>
</trkpt>
<trkpt lat="55.870003" lon="26.498510">
<ele>93.813538</ele>
<time>2010-07-17T08:02:25Z</time>
<desc>lat.=55.870003, lon.=26.498510, Alt.=93.813538m. Speed=24.660000m/h.</desc>
<speed>6.850000</speed>
</trkpt>
<trkpt lat="55.870064" lon="26.498472">
<ele>92.997131</ele>
<time>2010-07-17T08:02:26Z</time>
<desc>lat.=55.870064, lon.=26.498472, Alt.=92.997131m. Speed=23.472000m/h.</desc>
<speed>6.520000</speed>
</trkpt>
<trkpt lat="55.870125" lon="26.498453">
<ele>93.395569</ele>
<time>2010-07-17T08:02:27Z</time>
<desc>lat.=55.870125, lon.=26.498453, Alt.=93.395569m. Speed=24.011999m/h.</desc>
<speed>6.670000</speed>
</trkpt>
<trkpt lat="55.870190" lon="26.498438">
<ele>93.751038</ele>
<time>2010-07-17T08:02:28Z</time>
<desc>lat.=55.870190, lon.=26.498438, Alt.=93.751038m. Speed=23.940001m/h.</desc>
<speed>6.650000</speed>
</trkpt>
<trkpt lat="55.870255" lon="26.498425">
<ele>94.405334</ele>
<time>2010-07-17T08:02:29Z</time>
<desc>lat.=55.870255, lon.=26.498425, Alt.=94.405334m. Speed=24.840000m/h.</desc>
<speed>6.900000</speed>
</trkpt>
<trkpt lat="55.870316" lon="26.498402">
<ele>94.284241</ele>
<time>2010-07-17T08:02:30Z</time>
<desc>lat.=55.870316, lon.=26.498402, Alt.=94.284241m. Speed=25.091999m/h.</desc>
<speed>6.970000</speed>
</trkpt>
<trkpt lat="55.870380" lon="26.498383">
<ele>94.223694</ele>
<time>2010-07-17T08:02:31Z</time>
<desc>lat.=55.870380, lon.=26.498383, Alt.=94.223694m. Speed=23.940001m/h.</desc>
<speed>6.650000</speed>
</trkpt>
<trkpt lat="55.870441" lon="26.498365">
<ele>94.409241</ele>
<time>2010-07-17T08:02:32Z</time>
<desc>lat.=55.870441, lon.=26.498365, Alt.=94.409241m. Speed=25.056000m/h.</desc>
<speed>6.960000</speed>
</trkpt>
<trkpt lat="55.870502" lon="26.498341">
<ele>94.299866</ele>
<time>2010-07-17T08:02:33Z</time>
<desc>lat.=55.870502, lon.=26.498341, Alt.=94.299866m. Speed=25.596001m/h.</desc>
<speed>7.110000</speed>
</trkpt>
<trkpt lat="55.870567" lon="26.498318">
<ele>94.124084</ele>
<time>2010-07-17T08:02:34Z</time>
<desc>lat.=55.870567, lon.=26.498318, Alt.=94.124084m. Speed=26.172001m/h.</desc>
<speed>7.270000</speed>
</trkpt>
<trkpt lat="55.870632" lon="26.498299">
<ele>94.194397</ele>
<time>2010-07-17T08:02:35Z</time>
<desc>lat.=55.870632, lon.=26.498299, Alt.=94.194397m. Speed=25.271999m/h.</desc>
<speed>7.020000</speed>
</trkpt>
<trkpt lat="55.870693" lon="26.498281">
<ele>94.194397</ele>
<time>2010-07-17T08:02:36Z</time>
<desc>lat.=55.870693, lon.=26.498281, Alt.=94.194397m. Speed=25.416000m/h.</desc>
<speed>7.060000</speed>
</trkpt>
<trkpt lat="55.870750" lon="26.498262">
<ele>93.735413</ele>
<time>2010-07-17T08:02:37Z</time>
<desc>lat.=55.870750, lon.=26.498262, Alt.=93.735413m. Speed=24.695999m/h.</desc>
<speed>6.860000</speed>
</trkpt>
<trkpt lat="55.870811" lon="26.498247">
<ele>93.963928</ele>
<time>2010-07-17T08:02:38Z</time>
<desc>lat.=55.870811, lon.=26.498247, Alt.=93.963928m. Speed=24.336000m/h.</desc>
<speed>6.760000</speed>
</trkpt>
<trkpt lat="55.870876" lon="26.498226">
<ele>93.944397</ele>
<time>2010-07-17T08:02:39Z</time>
<desc>lat.=55.870876, lon.=26.498226, Alt.=93.944397m. Speed=23.507999m/h.</desc>
<speed>6.530000</speed>
</trkpt>
<trkpt lat="55.870934" lon="26.498209">
<ele>93.868225</ele>
<time>2010-07-17T08:02:40Z</time>
<desc>lat.=55.870934, lon.=26.498209, Alt.=93.868225m. Speed=24.372000m/h.</desc>
<speed>6.770000</speed>
</trkpt>
<trkpt lat="55.870991" lon="26.498182">
<ele>93.436584</ele>
<time>2010-07-17T08:02:41Z</time>
<desc>lat.=55.870991, lon.=26.498182, Alt.=93.436584m. Speed=23.219999m/h.</desc>
<speed>6.450000</speed>
</trkpt>
<trkpt lat="55.871048" lon="26.498156">
<ele>93.438538</ele>
<time>2010-07-17T08:02:42Z</time>
<desc>lat.=55.871048, lon.=26.498156, Alt.=93.438538m. Speed=22.572001m/h.</desc>
<speed>6.270000</speed>
</trkpt>
<trkpt lat="55.871098" lon="26.498127">
<ele>92.967834</ele>
<time>2010-07-17T08:02:43Z</time>
<desc>lat.=55.871098, lon.=26.498127, Alt.=92.967834m. Speed=22.572001m/h.</desc>
<speed>6.270000</speed>
</trkpt>
<trkpt lat="55.871151" lon="26.498100">
<ele>91.698303</ele>
<time>2010-07-17T08:02:44Z</time>
<desc>lat.=55.871151, lon.=26.498100, Alt.=91.698303m. Speed=22.032000m/h.</desc>
<speed>6.120000</speed>
</trkpt>
<trkpt lat="55.871216" lon="26.498087">
<ele>91.842834</ele>
<time>2010-07-17T08:02:45Z</time>
<desc>lat.=55.871216, lon.=26.498087, Alt.=91.842834m. Speed=24.587999m/h.</desc>
<speed>6.830000</speed>
</trkpt>
<trkpt lat="55.871284" lon="26.498068">
<ele>92.069397</ele>
<time>2010-07-17T08:02:46Z</time>
<desc>lat.=55.871284, lon.=26.498068, Alt.=92.069397m. Speed=23.724001m/h.</desc>
<speed>6.590000</speed>
</trkpt>
<trkpt lat="55.871349" lon="26.498049">
<ele>92.116272</ele>
<time>2010-07-17T08:02:47Z</time>
<desc>lat.=55.871349, lon.=26.498049, Alt.=92.116272m. Speed=24.156000m/h.</desc>
<speed>6.710000</speed>
</trkpt>
<trkpt lat="55.871414" lon="26.498039">
<ele>92.862366</ele>
<time>2010-07-17T08:02:48Z</time>
<desc>lat.=55.871414, lon.=26.498039, Alt.=92.862366m. Speed=23.868000m/h.</desc>
<speed>6.630000</speed>
</trkpt>
<trkpt lat="55.871483" lon="26.498026">
<ele>94.340881</ele>
<time>2010-07-17T08:02:49Z</time>
<desc>lat.=55.871483, lon.=26.498026, Alt.=94.340881m. Speed=23.256001m/h.</desc>
<speed>6.460000</speed>
</trkpt>
<trkpt lat="55.871540" lon="26.498003">
<ele>94.194397</ele>
<time>2010-07-17T08:02:50Z</time>
<desc>lat.=55.871540, lon.=26.498003, Alt.=94.194397m. Speed=22.104000m/h.</desc>
<speed>6.140000</speed>
</trkpt>
<trkpt lat="55.871593" lon="26.497986">
<ele>94.083069</ele>
<time>2010-07-17T08:02:51Z</time>
<desc>lat.=55.871593, lon.=26.497986, Alt.=94.083069m. Speed=22.931999m/h.</desc>
<speed>6.370000</speed>
</trkpt>
<trkpt lat="55.871655" lon="26.497972">
<ele>94.192444</ele>
<time>2010-07-17T08:02:52Z</time>
<desc>lat.=55.871655, lon.=26.497972, Alt.=94.192444m. Speed=22.464001m/h.</desc>
<speed>6.240000</speed>
</trkpt>
<trkpt lat="55.871716" lon="26.497955">
<ele>94.422913</ele>
<time>2010-07-17T08:02:53Z</time>
<desc>lat.=55.871716, lon.=26.497955, Alt.=94.422913m. Speed=24.336000m/h.</desc>
<speed>6.760000</speed>
</trkpt>
<trkpt lat="55.871780" lon="26.497934">
<ele>94.700256</ele>
<time>2010-07-17T08:02:54Z</time>
<desc>lat.=55.871780, lon.=26.497934, Alt.=94.700256m. Speed=25.596001m/h.</desc>
<speed>7.110000</speed>
</trkpt>
<trkpt lat="55.871841" lon="26.497904">
<ele>94.387756</ele>
<time>2010-07-17T08:02:55Z</time>
<desc>lat.=55.871841, lon.=26.497904, Alt.=94.387756m. Speed=23.544001m/h.</desc>
<speed>6.540000</speed>
</trkpt>
<trkpt lat="55.871899" lon="26.497877">
<ele>94.352600</ele>
<time>2010-07-17T08:02:56Z</time>
<desc>lat.=55.871899, lon.=26.497877, Alt.=94.352600m. Speed=23.903999m/h.</desc>
<speed>6.640000</speed>
</trkpt>
<trkpt lat="55.871956" lon="26.497860">
<ele>93.924866</ele>
<time>2010-07-17T08:02:57Z</time>
<desc>lat.=55.871956, lon.=26.497860, Alt.=93.924866m. Speed=24.011999m/h.</desc>
<speed>6.670000</speed>
</trkpt>
<trkpt lat="55.872013" lon="26.497845">
<ele>93.411194</ele>
<time>2010-07-17T08:02:58Z</time>
<desc>lat.=55.872013, lon.=26.497845, Alt.=93.411194m. Speed=23.580000m/h.</desc>
<speed>6.550000</speed>
</trkpt>
<trkpt lat="55.872078" lon="26.497828">
<ele>93.344788</ele>
<time>2010-07-17T08:02:59Z</time>
<desc>lat.=55.872078, lon.=26.497828, Alt.=93.344788m. Speed=25.920000m/h.</desc>
<speed>7.200000</speed>
</trkpt>
<trkpt lat="55.872143" lon="26.497807">
<ele>93.182678</ele>
<time>2010-07-17T08:03:00Z</time>
<desc>lat.=55.872143, lon.=26.497807, Alt.=93.182678m. Speed=26.316000m/h.</desc>
<speed>7.310000</speed>
</trkpt>
<trkpt lat="55.872204" lon="26.497787">
<ele>93.067444</ele>
<time>2010-07-17T08:03:01Z</time>
<desc>lat.=55.872204, lon.=26.497787, Alt.=93.067444m. Speed=26.280001m/h.</desc>
<speed>7.300000</speed>
</trkpt>
<trkpt lat="55.872261" lon="26.497766">
<ele>92.920959</ele>
<time>2010-07-17T08:03:02Z</time>
<desc>lat.=55.872261, lon.=26.497766, Alt.=92.920959m. Speed=24.983999m/h.</desc>
<speed>6.940000</speed>
</trkpt>
<trkpt lat="55.872318" lon="26.497744">
<ele>92.897522</ele>
<time>2010-07-17T08:03:03Z</time>
<desc>lat.=55.872318, lon.=26.497744, Alt.=92.897522m. Speed=25.200001m/h.</desc>
<speed>7.000000</speed>
</trkpt>
<trkpt lat="55.872372" lon="26.497702">
<ele>91.122131</ele>
<time>2010-07-17T08:03:04Z</time>
<desc>lat.=55.872372, lon.=26.497702, Alt.=91.122131m. Speed=24.660000m/h.</desc>
<speed>6.850000</speed>
</trkpt>
<trkpt lat="55.872437" lon="26.497686">
<ele>91.836975</ele>
<time>2010-07-17T08:03:05Z</time>
<desc>lat.=55.872437, lon.=26.497686, Alt.=91.836975m. Speed=24.695999m/h.</desc>
<speed>6.860000</speed>
</trkpt>
<trkpt lat="55.872498" lon="26.497667">
<ele>92.821350</ele>
<time>2010-07-17T08:03:06Z</time>
<desc>lat.=55.872498, lon.=26.497667, Alt.=92.821350m. Speed=24.228001m/h.</desc>
<speed>6.730000</speed>
</trkpt>
<trkpt lat="55.872559" lon="26.497650">
<ele>93.180725</ele>
<time>2010-07-17T08:03:07Z</time>
<desc>lat.=55.872559, lon.=26.497650, Alt.=93.180725m. Speed=24.660000m/h.</desc>
<speed>6.850000</speed>
</trkpt>
<trkpt lat="55.872623" lon="26.497641">
<ele>94.280334</ele>
<time>2010-07-17T08:03:08Z</time>
<desc>lat.=55.872623, lon.=26.497641, Alt.=94.280334m. Speed=25.056000m/h.</desc>
<speed>6.960000</speed>
</trkpt>
<trkpt lat="55.872688" lon="26.497620">
<ele>94.694397</ele>
<time>2010-07-17T08:03:09Z</time>
<desc>lat.=55.872688, lon.=26.497620, Alt.=94.694397m. Speed=25.200001m/h.</desc>
<speed>7.000000</speed>
</trkpt>
<trkpt lat="55.872746" lon="26.497604">
<ele>94.899475</ele>
<time>2010-07-17T08:03:10Z</time>
<desc>lat.=55.872746, lon.=26.497604, Alt.=94.899475m. Speed=26.136000m/h.</desc>
<speed>7.260000</speed>
</trkpt>
<trkpt lat="55.872810" lon="26.497583">
<ele>94.280334</ele>
<time>2010-07-17T08:03:11Z</time>
<desc>lat.=55.872810, lon.=26.497583, Alt.=94.280334m. Speed=26.208000m/h.</desc>
<speed>7.280000</speed>
</trkpt>
<trkpt lat="55.872868" lon="26.497566">
<ele>93.463928</ele>
<time>2010-07-17T08:03:12Z</time>
<desc>lat.=55.872868, lon.=26.497566, Alt.=93.463928m. Speed=25.344000m/h.</desc>
<speed>7.040000</speed>
</trkpt>
<trkpt lat="55.872936" lon="26.497547">
<ele>93.764709</ele>
<time>2010-07-17T08:03:13Z</time>
<desc>lat.=55.872936, lon.=26.497547, Alt.=93.764709m. Speed=25.020000m/h.</desc>
<speed>6.950000</speed>
</trkpt>
<trkpt lat="55.872993" lon="26.497524">
<ele>92.981506</ele>
<time>2010-07-17T08:03:14Z</time>
<desc>lat.=55.872993, lon.=26.497524, Alt.=92.981506m. Speed=23.832001m/h.</desc>
<speed>6.620000</speed>
</trkpt>
<trkpt lat="55.873047" lon="26.497498">
<ele>91.879944</ele>
<time>2010-07-17T08:03:15Z</time>
<desc>lat.=55.873047, lon.=26.497498, Alt.=91.879944m. Speed=23.364000m/h.</desc>
<speed>6.490000</speed>
</trkpt>
<trkpt lat="55.873108" lon="26.497480">
<ele>91.526428</ele>
<time>2010-07-17T08:03:16Z</time>
<desc>lat.=55.873108, lon.=26.497480, Alt.=91.526428m. Speed=23.364000m/h.</desc>
<speed>6.490000</speed>
</trkpt>
<trkpt lat="55.873169" lon="26.497456">
<ele>91.704163</ele>
<time>2010-07-17T08:03:17Z</time>
<desc>lat.=55.873169, lon.=26.497456, Alt.=91.704163m. Speed=24.336000m/h.</desc>
<speed>6.760000</speed>
</trkpt>
<trkpt lat="55.873219" lon="26.497427">
<ele>90.329163</ele>
<time>2010-07-17T08:03:18Z</time>
<desc>lat.=55.873219, lon.=26.497427, Alt.=90.329163m. Speed=23.436001m/h.</desc>
<speed>6.510000</speed>
</trkpt>
<trkpt lat="55.873280" lon="26.497406">
<ele>90.596741</ele>
<time>2010-07-17T08:03:19Z</time>
<desc>lat.=55.873280, lon.=26.497406, Alt.=90.596741m. Speed=24.299999m/h.</desc>
<speed>6.750000</speed>
</trkpt>
<trkpt lat="55.873352" lon="26.497387">
<ele>91.481506</ele>
<time>2010-07-17T08:03:20Z</time>
<desc>lat.=55.873352, lon.=26.497387, Alt.=91.481506m. Speed=25.488001m/h.</desc>
<speed>7.080000</speed>
</trkpt>
<trkpt lat="55.873405" lon="26.497366">
<ele>90.508850</ele>
<time>2010-07-17T08:03:21Z</time>
<desc>lat.=55.873405, lon.=26.497366, Alt.=90.508850m. Speed=23.724001m/h.</desc>
<speed>6.590000</speed>
</trkpt>
<trkpt lat="55.873466" lon="26.497349">
<ele>90.862366</ele>
<time>2010-07-17T08:03:22Z</time>
<desc>lat.=55.873466, lon.=26.497349, Alt.=90.862366m. Speed=24.336000m/h.</desc>
<speed>6.760000</speed>
</trkpt>
<trkpt lat="55.873524" lon="26.497324">
<ele>90.926819</ele>
<time>2010-07-17T08:03:23Z</time>
<desc>lat.=55.873524, lon.=26.497324, Alt.=90.926819m. Speed=23.724001m/h.</desc>
<speed>6.590000</speed>
</trkpt>
<trkpt lat="55.873585" lon="26.497311">
<ele>91.604553</ele>
<time>2010-07-17T08:03:24Z</time>
<desc>lat.=55.873585, lon.=26.497311, Alt.=91.604553m. Speed=24.120001m/h.</desc>
<speed>6.700000</speed>
</trkpt>
<trkpt lat="55.873650" lon="26.497288">
<ele>92.479553</ele>
<time>2010-07-17T08:03:25Z</time>
<desc>lat.=55.873650, lon.=26.497288, Alt.=92.479553m. Speed=24.372000m/h.</desc>
<speed>6.770000</speed>
</trkpt>
<trkpt lat="55.873707" lon="26.497269">
<ele>93.348694</ele>
<time>2010-07-17T08:03:26Z</time>
<desc>lat.=55.873707, lon.=26.497269, Alt.=93.348694m. Speed=23.580000m/h.</desc>
<speed>6.550000</speed>
</trkpt>
<trkpt lat="55.873764" lon="26.497252">
<ele>93.745178</ele>
<time>2010-07-17T08:03:27Z</time>
<desc>lat.=55.873764, lon.=26.497252, Alt.=93.745178m. Speed=23.400000m/h.</desc>
<speed>6.500000</speed>
</trkpt>
<trkpt lat="55.873817" lon="26.497236">
<ele>94.389709</ele>
<time>2010-07-17T08:03:28Z</time>
<desc>lat.=55.873817, lon.=26.497236, Alt.=94.389709m. Speed=24.228001m/h.</desc>
<speed>6.730000</speed>
</trkpt>
<trkpt lat="55.873871" lon="26.497215">
<ele>94.014709</ele>
<time>2010-07-17T08:03:29Z</time>
<desc>lat.=55.873871, lon.=26.497215, Alt.=94.014709m. Speed=23.688000m/h.</desc>
<speed>6.580000</speed>
</trkpt>
<trkpt lat="55.873928" lon="26.497198">
<ele>94.014709</ele>
<time>2010-07-17T08:03:30Z</time>
<desc>lat.=55.873928, lon.=26.497198, Alt.=94.014709m. Speed=24.552000m/h.</desc>
<speed>6.820000</speed>
</trkpt>
<trkpt lat="55.873985" lon="26.497177">
<ele>93.842834</ele>
<time>2010-07-17T08:03:31Z</time>
<desc>lat.=55.873985, lon.=26.497177, Alt.=93.842834m. Speed=24.408001m/h.</desc>
<speed>6.780000</speed>
</trkpt>
<trkpt lat="55.874043" lon="26.497158">
<ele>93.530334</ele>
<time>2010-07-17T08:03:32Z</time>
<desc>lat.=55.874043, lon.=26.497158, Alt.=93.530334m. Speed=23.615999m/h.</desc>
<speed>6.560000</speed>
</trkpt>
<trkpt lat="55.874100" lon="26.497135">
<ele>93.448303</ele>
<time>2010-07-17T08:03:33Z</time>
<desc>lat.=55.874100, lon.=26.497135, Alt.=93.448303m. Speed=23.724001m/h.</desc>
<speed>6.590000</speed>
</trkpt>
<trkpt lat="55.874157" lon="26.497114">
<ele>93.340881</ele>
<time>2010-07-17T08:03:34Z</time>
<desc>lat.=55.874157, lon.=26.497114, Alt.=93.340881m. Speed=23.724001m/h.</desc>
<speed>6.590000</speed>
</trkpt>
<trkpt lat="55.874210" lon="26.497089">
<ele>93.575256</ele>
<time>2010-07-17T08:03:35Z</time>
<desc>lat.=55.874210, lon.=26.497089, Alt.=93.575256m. Speed=23.832001m/h.</desc>
<speed>6.620000</speed>
</trkpt>
<trkpt lat="55.874271" lon="26.497072">
<ele>94.370178</ele>
<time>2010-07-17T08:03:36Z</time>
<desc>lat.=55.874271, lon.=26.497072, Alt.=94.370178m. Speed=25.056000m/h.</desc>
<speed>6.960000</speed>
</trkpt>
<trkpt lat="55.874340" lon="26.497057">
<ele>95.323303</ele>
<time>2010-07-17T08:03:37Z</time>
<desc>lat.=55.874340, lon.=26.497057, Alt.=95.323303m. Speed=25.344000m/h.</desc>
<speed>7.040000</speed>
</trkpt>
<trkpt lat="55.874409" lon="26.497040">
<ele>95.999084</ele>
<time>2010-07-17T08:03:38Z</time>
<desc>lat.=55.874409, lon.=26.497040, Alt.=95.999084m. Speed=25.775999m/h.</desc>
<speed>7.160000</speed>
</trkpt>
<trkpt lat="55.874474" lon="26.497028">
<ele>96.801819</ele>
<time>2010-07-17T08:03:39Z</time>
<desc>lat.=55.874474, lon.=26.497028, Alt.=96.801819m. Speed=25.452000m/h.</desc>
<speed>7.070000</speed>
</trkpt>
<trkpt lat="55.874538" lon="26.497011">
<ele>97.174866</ele>
<time>2010-07-17T08:03:40Z</time>
<desc>lat.=55.874538, lon.=26.497011, Alt.=97.174866m. Speed=24.552000m/h.</desc>
<speed>6.820000</speed>
</trkpt>
<trkpt lat="55.874599" lon="26.496990">
<ele>97.204163</ele>
<time>2010-07-17T08:03:41Z</time>
<desc>lat.=55.874599, lon.=26.496990, Alt.=97.204163m. Speed=25.344000m/h.</desc>
<speed>7.040000</speed>
</trkpt>
<trkpt lat="55.874660" lon="26.496964">
<ele>97.059631</ele>
<time>2010-07-17T08:03:42Z</time>
<desc>lat.=55.874660, lon.=26.496964, Alt.=97.059631m. Speed=25.236000m/h.</desc>
<speed>7.010000</speed>
</trkpt>
<trkpt lat="55.874718" lon="26.496927">
<ele>98.131897</ele>
<time>2010-07-17T08:03:43Z</time>
<desc>lat.=55.874718, lon.=26.496927, Alt.=98.131897m. Speed=24.299999m/h.</desc>
<speed>6.750000</speed>
</trkpt>
<trkpt lat="55.874779" lon="26.496906">
<ele>97.891663</ele>
<time>2010-07-17T08:03:44Z</time>
<desc>lat.=55.874779, lon.=26.496906, Alt.=97.891663m. Speed=24.228001m/h.</desc>
<speed>6.730000</speed>
</trkpt>
<trkpt lat="55.874840" lon="26.496880">
<ele>97.965881</ele>
<time>2010-07-17T08:03:45Z</time>
<desc>lat.=55.874840, lon.=26.496880, Alt.=97.965881m. Speed=23.364000m/h.</desc>
<speed>6.490000</speed>
</trkpt>
<trkpt lat="55.874901" lon="26.496861">
<ele>98.456116</ele>
<time>2010-07-17T08:03:46Z</time>
<desc>lat.=55.874901, lon.=26.496861, Alt.=98.456116m. Speed=24.948000m/h.</desc>
<speed>6.930000</speed>
</trkpt>
<trkpt lat="55.874969" lon="26.496830">
<ele>98.307678</ele>
<time>2010-07-17T08:03:47Z</time>
<desc>lat.=55.874969, lon.=26.496830, Alt.=98.307678m. Speed=26.459999m/h.</desc>
<speed>7.350000</speed>
</trkpt>
<trkpt lat="55.875031" lon="26.496803">
<ele>97.811584</ele>
<time>2010-07-17T08:03:48Z</time>
<desc>lat.=55.875031, lon.=26.496803, Alt.=97.811584m. Speed=25.848000m/h.</desc>
<speed>7.180000</speed>
</trkpt>
<trkpt lat="55.875095" lon="26.496788">
<ele>97.711975</ele>
<time>2010-07-17T08:03:49Z</time>
<desc>lat.=55.875095, lon.=26.496788, Alt.=97.711975m. Speed=25.416000m/h.</desc>
<speed>7.060000</speed>
</trkpt>
<trkpt lat="55.875160" lon="26.496773">
<ele>97.809631</ele>
<time>2010-07-17T08:03:50Z</time>
<desc>lat.=55.875160, lon.=26.496773, Alt.=97.809631m. Speed=24.875999m/h.</desc>
<speed>6.910000</speed>
</trkpt>
<trkpt lat="55.875221" lon="26.496758">
<ele>97.571350</ele>
<time>2010-07-17T08:03:51Z</time>
<desc>lat.=55.875221, lon.=26.496758, Alt.=97.571350m. Speed=23.148001m/h.</desc>
<speed>6.430000</speed>
</trkpt>
<trkpt lat="55.875275" lon="26.496742">
<ele>96.077209</ele>
<time>2010-07-17T08:03:52Z</time>
<desc>lat.=55.875275, lon.=26.496742, Alt.=96.077209m. Speed=22.752001m/h.</desc>
<speed>6.320000</speed>
</trkpt>
<trkpt lat="55.875332" lon="26.496733">
<ele>95.733459</ele>
<time>2010-07-17T08:03:53Z</time>
<desc>lat.=55.875332, lon.=26.496733, Alt.=95.733459m. Speed=22.788000m/h.</desc>
<speed>6.330000</speed>
</trkpt>
<trkpt lat="55.875381" lon="26.496721">
<ele>95.358459</ele>
<time>2010-07-17T08:03:54Z</time>
<desc>lat.=55.875381, lon.=26.496721, Alt.=95.358459m. Speed=22.752001m/h.</desc>
<speed>6.320000</speed>
</trkpt>
<trkpt lat="55.875439" lon="26.496710">
<ele>95.227600</ele>
<time>2010-07-17T08:03:55Z</time>
<desc>lat.=55.875439, lon.=26.496710, Alt.=95.227600m. Speed=21.996000m/h.</desc>
<speed>6.110000</speed>
</trkpt>
<trkpt lat="55.875492" lon="26.496689">
<ele>94.749084</ele>
<time>2010-07-17T08:03:56Z</time>
<desc>lat.=55.875492, lon.=26.496689, Alt.=94.749084m. Speed=22.823999m/h.</desc>
<speed>6.340000</speed>
</trkpt>
<trkpt lat="55.875557" lon="26.496675">
<ele>94.239319</ele>
<time>2010-07-17T08:03:57Z</time>
<desc>lat.=55.875557, lon.=26.496675, Alt.=94.239319m. Speed=24.228001m/h.</desc>
<speed>6.730000</speed>
</trkpt>
<trkpt lat="55.875618" lon="26.496674">
<ele>93.540100</ele>
<time>2010-07-17T08:03:58Z</time>
<desc>lat.=55.875618, lon.=26.496674, Alt.=93.540100m. Speed=23.076000m/h.</desc>
<speed>6.410000</speed>
</trkpt>
<trkpt lat="55.875671" lon="26.496677">
<ele>90.157288</ele>
<time>2010-07-17T08:03:59Z</time>
<desc>lat.=55.875671, lon.=26.496677, Alt.=90.157288m. Speed=22.788000m/h.</desc>
<speed>6.330000</speed>
</trkpt>
<trkpt lat="55.875736" lon="26.496691">
<ele>94.407288</ele>
<time>2010-07-17T08:04:00Z</time>
<desc>lat.=55.875736, lon.=26.496691, Alt.=94.407288m. Speed=23.400000m/h.</desc>
<speed>6.500000</speed>
</trkpt>
<trkpt lat="55.875793" lon="26.496714">
<ele>95.024475</ele>
<time>2010-07-17T08:04:01Z</time>
<desc>lat.=55.875793, lon.=26.496714, Alt.=95.024475m. Speed=25.200001m/h.</desc>
<speed>7.000000</speed>
</trkpt>
<trkpt lat="55.875854" lon="26.496733">
<ele>94.463928</ele>
<time>2010-07-17T08:04:02Z</time>
<desc>lat.=55.875854, lon.=26.496733, Alt.=94.463928m. Speed=25.848000m/h.</desc>
<speed>7.180000</speed>
</trkpt>
<trkpt lat="55.875923" lon="26.496748">
<ele>94.842834</ele>
<time>2010-07-17T08:04:03Z</time>
<desc>lat.=55.875923, lon.=26.496748, Alt.=94.842834m. Speed=25.344000m/h.</desc>
<speed>7.040000</speed>
</trkpt>
<trkpt lat="55.875984" lon="26.496777">
<ele>95.071350</ele>
<time>2010-07-17T08:04:04Z</time>
<desc>lat.=55.875984, lon.=26.496777, Alt.=95.071350m. Speed=25.775999m/h.</desc>
<speed>7.160000</speed>
</trkpt>
<trkpt lat="55.876057" lon="26.496807">
<ele>95.436584</ele>
<time>2010-07-17T08:04:05Z</time>
<desc>lat.=55.876057, lon.=26.496807, Alt.=95.436584m. Speed=28.260000m/h.</desc>
<speed>7.850000</speed>
</trkpt>
<trkpt lat="55.876125" lon="26.496834">
<ele>95.395569</ele>
<time>2010-07-17T08:04:06Z</time>
<desc>lat.=55.876125, lon.=26.496834, Alt.=95.395569m. Speed=27.216000m/h.</desc>
<speed>7.560000</speed>
</trkpt>
<trkpt lat="55.876198" lon="26.496864">
<ele>95.327209</ele>
<time>2010-07-17T08:04:07Z</time>
<desc>lat.=55.876198, lon.=26.496864, Alt.=95.327209m. Speed=27.900000m/h.</desc>
<speed>7.750000</speed>
</trkpt>
<trkpt lat="55.876266" lon="26.496891">
<ele>95.204163</ele>
<time>2010-07-17T08:04:08Z</time>
<desc>lat.=55.876266, lon.=26.496891, Alt.=95.204163m. Speed=27.612000m/h.</desc>
<speed>7.670000</speed>
</trkpt>
<trkpt lat="55.876331" lon="26.496912">
<ele>94.827209</ele>
<time>2010-07-17T08:04:09Z</time>
<desc>lat.=55.876331, lon.=26.496912, Alt.=94.827209m. Speed=26.388000m/h.</desc>
<speed>7.330000</speed>
</trkpt>
<trkpt lat="55.876396" lon="26.496939">
<ele>94.436584</ele>
<time>2010-07-17T08:04:10Z</time>
<desc>lat.=55.876396, lon.=26.496939, Alt.=94.436584m. Speed=26.459999m/h.</desc>
<speed>7.350000</speed>
</trkpt>
<trkpt lat="55.876465" lon="26.496960">
<ele>94.169006</ele>
<time>2010-07-17T08:04:11Z</time>
<desc>lat.=55.876465, lon.=26.496960, Alt.=94.169006m. Speed=27.180000m/h.</desc>
<speed>7.550000</speed>
</trkpt>
<trkpt lat="55.876530" lon="26.496977">
<ele>94.108459</ele>
<time>2010-07-17T08:04:12Z</time>
<desc>lat.=55.876530, lon.=26.496977, Alt.=94.108459m. Speed=26.316000m/h.</desc>
<speed>7.310000</speed>
</trkpt>
<trkpt lat="55.876591" lon="26.496996">
<ele>93.928772</ele>
<time>2010-07-17T08:04:13Z</time>
<desc>lat.=55.876591, lon.=26.496996, Alt.=93.928772m. Speed=23.472000m/h.</desc>
<speed>6.520000</speed>
</trkpt>
<trkpt lat="55.876648" lon="26.497017">
<ele>94.163147</ele>
<time>2010-07-17T08:04:14Z</time>
<desc>lat.=55.876648, lon.=26.497017, Alt.=94.163147m. Speed=24.983999m/h.</desc>
<speed>6.940000</speed>
</trkpt>
<trkpt lat="55.876709" lon="26.497030">
<ele>94.167053</ele>
<time>2010-07-17T08:04:15Z</time>
<desc>lat.=55.876709, lon.=26.497030, Alt.=94.167053m. Speed=26.388000m/h.</desc>
<speed>7.330000</speed>
</trkpt>
<trkpt lat="55.876778" lon="26.497034">
<ele>93.961975</ele>
<time>2010-07-17T08:04:16Z</time>
<desc>lat.=55.876778, lon.=26.497034, Alt.=93.961975m. Speed=27.431999m/h.</desc>
<speed>7.620000</speed>
</trkpt>
<trkpt lat="55.876850" lon="26.497040">
<ele>94.303772</ele>
<time>2010-07-17T08:04:17Z</time>
<desc>lat.=55.876850, lon.=26.497040, Alt.=94.303772m. Speed=27.252001m/h.</desc>
<speed>7.570000</speed>
</trkpt>
<trkpt lat="55.876919" lon="26.497025">
<ele>94.071350</ele>
<time>2010-07-17T08:04:18Z</time>
<desc>lat.=55.876919, lon.=26.497025, Alt.=94.071350m. Speed=26.820000m/h.</desc>
<speed>7.450000</speed>
</trkpt>
<trkpt lat="55.876984" lon="26.497002">
<ele>93.280334</ele>
<time>2010-07-17T08:04:19Z</time>
<desc>lat.=55.876984, lon.=26.497002, Alt.=93.280334m. Speed=26.100000m/h.</desc>
<speed>7.250000</speed>
</trkpt>
<trkpt lat="55.877056" lon="26.496981">
<ele>93.735413</ele>
<time>2010-07-17T08:04:20Z</time>
<desc>lat.=55.877056, lon.=26.496981, Alt.=93.735413m. Speed=26.712000m/h.</desc>
<speed>7.420000</speed>
</trkpt>
<trkpt lat="55.877117" lon="26.496958">
<ele>93.016663</ele>
<time>2010-07-17T08:04:21Z</time>
<desc>lat.=55.877117, lon.=26.496958, Alt.=93.016663m. Speed=24.804001m/h.</desc>
<speed>6.890000</speed>
</trkpt>
<trkpt lat="55.877171" lon="26.496931">
<ele>93.100647</ele>
<time>2010-07-17T08:04:22Z</time>
<desc>lat.=55.877171, lon.=26.496931, Alt.=93.100647m. Speed=24.336000m/h.</desc>
<speed>6.760000</speed>
</trkpt>
<trkpt lat="55.877228" lon="26.496893">
<ele>92.751038</ele>
<time>2010-07-17T08:04:23Z</time>
<desc>lat.=55.877228, lon.=26.496893, Alt.=92.751038m. Speed=23.724001m/h.</desc>
<speed>6.590000</speed>
</trkpt>
<trkpt lat="55.877281" lon="26.496859">
<ele>92.180725</ele>
<time>2010-07-17T08:04:24Z</time>
<desc>lat.=55.877281, lon.=26.496859, Alt.=92.180725m. Speed=21.851999m/h.</desc>
<speed>6.070000</speed>
</trkpt>
<trkpt lat="55.877335" lon="26.496819">
<ele>91.616272</ele>
<time>2010-07-17T08:04:25Z</time>
<desc>lat.=55.877335, lon.=26.496819, Alt.=91.616272m. Speed=23.796000m/h.</desc>
<speed>6.610000</speed>
</trkpt>
<trkpt lat="55.877392" lon="26.496771">
<ele>90.813538</ele>
<time>2010-07-17T08:04:26Z</time>
<desc>lat.=55.877392, lon.=26.496771, Alt.=90.813538m. Speed=23.400000m/h.</desc>
<speed>6.500000</speed>
</trkpt>
<trkpt lat="55.877445" lon="26.496714">
<ele>90.391663</ele>
<time>2010-07-17T08:04:27Z</time>
<desc>lat.=55.877445, lon.=26.496714, Alt.=90.391663m. Speed=23.507999m/h.</desc>
<speed>6.530000</speed>
</trkpt>
<trkpt lat="55.877495" lon="26.496658">
<ele>90.272522</ele>
<time>2010-07-17T08:04:28Z</time>
<desc>lat.=55.877495, lon.=26.496658, Alt.=90.272522m. Speed=23.148001m/h.</desc>
<speed>6.430000</speed>
</trkpt>
<trkpt lat="55.877541" lon="26.496601">
<ele>89.917053</ele>
<time>2010-07-17T08:04:29Z</time>
<desc>lat.=55.877541, lon.=26.496601, Alt.=89.917053m. Speed=22.212000m/h.</desc>
<speed>6.170000</speed>
</trkpt>
<trkpt lat="55.877586" lon="26.496540">
<ele>89.501038</ele>
<time>2010-07-17T08:04:30Z</time>
<desc>lat.=55.877586, lon.=26.496540, Alt.=89.501038m. Speed=22.788000m/h.</desc>
<speed>6.330000</speed>
</trkpt>
<trkpt lat="55.877640" lon="26.496489">
<ele>89.438538</ele>
<time>2010-07-17T08:04:31Z</time>
<desc>lat.=55.877640, lon.=26.496489, Alt.=89.438538m. Speed=21.996000m/h.</desc>
<speed>6.110000</speed>
</trkpt>
<trkpt lat="55.877693" lon="26.496428">
<ele>89.073303</ele>
<time>2010-07-17T08:04:32Z</time>
<desc>lat.=55.877693, lon.=26.496428, Alt.=89.073303m. Speed=23.364000m/h.</desc>
<speed>6.490000</speed>
</trkpt>
<trkpt lat="55.877743" lon="26.496368">
<ele>88.821350</ele>
<time>2010-07-17T08:04:33Z</time>
<desc>lat.=55.877743, lon.=26.496368, Alt.=88.821350m. Speed=23.184000m/h.</desc>
<speed>6.440000</speed>
</trkpt>
<trkpt lat="55.877792" lon="26.496307">
<ele>88.571350</ele>
<time>2010-07-17T08:04:34Z</time>
<desc>lat.=55.877792, lon.=26.496307, Alt.=88.571350m. Speed=22.752001m/h.</desc>
<speed>6.320000</speed>
</trkpt>
<trkpt lat="55.877842" lon="26.496244">
<ele>88.501038</ele>
<time>2010-07-17T08:04:35Z</time>
<desc>lat.=55.877842, lon.=26.496244, Alt.=88.501038m. Speed=24.912001m/h.</desc>
<speed>6.920000</speed>
</trkpt>
<trkpt lat="55.877888" lon="26.496180">
<ele>88.397522</ele>
<time>2010-07-17T08:04:36Z</time>
<desc>lat.=55.877888, lon.=26.496180, Alt.=88.397522m. Speed=23.292000m/h.</desc>
<speed>6.470000</speed>
</trkpt>
<trkpt lat="55.877930" lon="26.496117">
<ele>88.567444</ele>
<time>2010-07-17T08:04:37Z</time>
<desc>lat.=55.877930, lon.=26.496117, Alt.=88.567444m. Speed=23.112000m/h.</desc>
<speed>6.420000</speed>
</trkpt>
<trkpt lat="55.877979" lon="26.496052">
<ele>88.909241</ele>
<time>2010-07-17T08:04:38Z</time>
<desc>lat.=55.877979, lon.=26.496052, Alt.=88.909241m. Speed=22.716000m/h.</desc>
<speed>6.310000</speed>
</trkpt>
<trkpt lat="55.878029" lon="26.495987">
<ele>89.342834</ele>
<time>2010-07-17T08:04:39Z</time>
<desc>lat.=55.878029, lon.=26.495987, Alt.=89.342834m. Speed=22.104000m/h.</desc>
<speed>6.140000</speed>
</trkpt>
<trkpt lat="55.878086" lon="26.495935">
<ele>90.030334</ele>
<time>2010-07-17T08:04:40Z</time>
<desc>lat.=55.878086, lon.=26.495935, Alt.=90.030334m. Speed=21.743999m/h.</desc>
<speed>6.040000</speed>
</trkpt>
<trkpt lat="55.878136" lon="26.495867">
<ele>90.506897</ele>
<time>2010-07-17T08:04:41Z</time>
<desc>lat.=55.878136, lon.=26.495867, Alt.=90.506897m. Speed=24.191999m/h.</desc>
<speed>6.720000</speed>
</trkpt>
<trkpt lat="55.878181" lon="26.495798">
<ele>90.649475</ele>
<time>2010-07-17T08:04:42Z</time>
<desc>lat.=55.878181, lon.=26.495798, Alt.=90.649475m. Speed=24.011999m/h.</desc>
<speed>6.670000</speed>
</trkpt>
<trkpt lat="55.878227" lon="26.495720">
<ele>90.463928</ele>
<time>2010-07-17T08:04:43Z</time>
<desc>lat.=55.878227, lon.=26.495720, Alt.=90.463928m. Speed=24.120001m/h.</desc>
<speed>6.700000</speed>
</trkpt>
<trkpt lat="55.878258" lon="26.495632">
<ele>90.299866</ele>
<time>2010-07-17T08:04:44Z</time>
<desc>lat.=55.878258, lon.=26.495632, Alt.=90.299866m. Speed=23.327999m/h.</desc>
<speed>6.480000</speed>
</trkpt>
<trkpt lat="55.878288" lon="26.495546">
<ele>90.104553</ele>
<time>2010-07-17T08:04:45Z</time>
<desc>lat.=55.878288, lon.=26.495546, Alt.=90.104553m. Speed=23.472000m/h.</desc>
<speed>6.520000</speed>
</trkpt>
<trkpt lat="55.878334" lon="26.495462">
<ele>90.354553</ele>
<time>2010-07-17T08:04:46Z</time>
<desc>lat.=55.878334, lon.=26.495462, Alt.=90.354553m. Speed=23.796000m/h.</desc>
<speed>6.610000</speed>
</trkpt>
<trkpt lat="55.878368" lon="26.495386">
<ele>90.684631</ele>
<time>2010-07-17T08:04:47Z</time>
<desc>lat.=55.878368, lon.=26.495386, Alt.=90.684631m. Speed=22.788000m/h.</desc>
<speed>6.330000</speed>
</trkpt>
<trkpt lat="55.878391" lon="26.495308">
<ele>90.895569</ele>
<time>2010-07-17T08:04:48Z</time>
<desc>lat.=55.878391, lon.=26.495308, Alt.=90.895569m. Speed=19.799999m/h.</desc>
<speed>5.500000</speed>
</trkpt>
<trkpt lat="55.878410" lon="26.495224">
<ele>90.936584</ele>
<time>2010-07-17T08:04:49Z</time>
<desc>lat.=55.878410, lon.=26.495224, Alt.=90.936584m. Speed=21.204000m/h.</desc>
<speed>5.890000</speed>
</trkpt>
<trkpt lat="55.878410" lon="26.495146">
<ele>91.100647</ele>
<time>2010-07-17T08:04:50Z</time>
<desc>lat.=55.878410, lon.=26.495146, Alt.=91.100647m. Speed=19.007999m/h.</desc>
<speed>5.280000</speed>
</trkpt>
<trkpt lat="55.878418" lon="26.495058">
<ele>91.249084</ele>
<time>2010-07-17T08:04:51Z</time>
<desc>lat.=55.878418, lon.=26.495058, Alt.=91.249084m. Speed=21.275999m/h.</desc>
<speed>5.910000</speed>
</trkpt>
<trkpt lat="55.878418" lon="26.494970">
<ele>91.389709</ele>
<time>2010-07-17T08:04:52Z</time>
<desc>lat.=55.878418, lon.=26.494970, Alt.=91.389709m. Speed=18.900000m/h.</desc>
<speed>5.250000</speed>
</trkpt>
<trkpt lat="55.878414" lon="26.494888">
<ele>91.463928</ele>
<time>2010-07-17T08:04:53Z</time>
<desc>lat.=55.878414, lon.=26.494888, Alt.=91.463928m. Speed=18.360001m/h.</desc>
<speed>5.100000</speed>
</trkpt>
<trkpt lat="55.878418" lon="26.494799">
<ele>91.831116</ele>
<time>2010-07-17T08:04:54Z</time>
<desc>lat.=55.878418, lon.=26.494799, Alt.=91.831116m. Speed=19.115999m/h.</desc>
<speed>5.310000</speed>
</trkpt>
<trkpt lat="55.878414" lon="26.494715">
<ele>91.842834</ele>
<time>2010-07-17T08:04:55Z</time>
<desc>lat.=55.878414, lon.=26.494715, Alt.=91.842834m. Speed=19.224001m/h.</desc>
<speed>5.340000</speed>
</trkpt>
<trkpt lat="55.878407" lon="26.494640">
<ele>91.766663</ele>
<time>2010-07-17T08:04:56Z</time>
<desc>lat.=55.878407, lon.=26.494640, Alt.=91.766663m. Speed=17.351999m/h.</desc>
<speed>4.820000</speed>
</trkpt>
<trkpt lat="55.878391" lon="26.494570">
<ele>91.743225</ele>
<time>2010-07-17T08:04:57Z</time>
<desc>lat.=55.878391, lon.=26.494570, Alt.=91.743225m. Speed=16.488001m/h.</desc>
<speed>4.580000</speed>
</trkpt>
<trkpt lat="55.878376" lon="26.494493">
<ele>91.643616</ele>
<time>2010-07-17T08:04:58Z</time>
<desc>lat.=55.878376, lon.=26.494493, Alt.=91.643616m. Speed=18.252001m/h.</desc>
<speed>5.070000</speed>
</trkpt>
<trkpt lat="55.878368" lon="26.494415">
<ele>91.739319</ele>
<time>2010-07-17T08:04:59Z</time>
<desc>lat.=55.878368, lon.=26.494415, Alt.=91.739319m. Speed=17.351999m/h.</desc>
<speed>4.820000</speed>
</trkpt>
<trkpt lat="55.878357" lon="26.494343">
<ele>91.694397</ele>
<time>2010-07-17T08:05:00Z</time>
<desc>lat.=55.878357, lon.=26.494343, Alt.=91.694397m. Speed=16.704000m/h.</desc>
<speed>4.640000</speed>
</trkpt>
<trkpt lat="55.878345" lon="26.494267">
<ele>91.614319</ele>
<time>2010-07-17T08:05:01Z</time>
<desc>lat.=55.878345, lon.=26.494267, Alt.=91.614319m. Speed=18.900000m/h.</desc>
<speed>5.250000</speed>
</trkpt>
<trkpt lat="55.878334" lon="26.494181">
<ele>91.942444</ele>
<time>2010-07-17T08:05:02Z</time>
<desc>lat.=55.878334, lon.=26.494181, Alt.=91.942444m. Speed=22.247999m/h.</desc>
<speed>6.180000</speed>
</trkpt>
<trkpt lat="55.878319" lon="26.494097">
<ele>92.467834</ele>
<time>2010-07-17T08:05:03Z</time>
<desc>lat.=55.878319, lon.=26.494097, Alt.=92.467834m. Speed=22.788000m/h.</desc>
<speed>6.330000</speed>
</trkpt>
<trkpt lat="55.878300" lon="26.493999">
<ele>92.585022</ele>
<time>2010-07-17T08:05:04Z</time>
<desc>lat.=55.878300, lon.=26.493999, Alt.=92.585022m. Speed=22.284000m/h.</desc>
<speed>6.190000</speed>
</trkpt>
<trkpt lat="55.878273" lon="26.493910">
<ele>92.594788</ele>
<time>2010-07-17T08:05:05Z</time>
<desc>lat.=55.878273, lon.=26.493910, Alt.=92.594788m. Speed=21.996000m/h.</desc>
<speed>6.110000</speed>
</trkpt>
<trkpt lat="55.878250" lon="26.493809">
<ele>92.110413</ele>
<time>2010-07-17T08:05:06Z</time>
<desc>lat.=55.878250, lon.=26.493809, Alt.=92.110413m. Speed=21.888000m/h.</desc>
<speed>6.080000</speed>
</trkpt>
<trkpt lat="55.878220" lon="26.493732">
<ele>91.719788</ele>
<time>2010-07-17T08:05:07Z</time>
<desc>lat.=55.878220, lon.=26.493732, Alt.=91.719788m. Speed=20.304001m/h.</desc>
<speed>5.640000</speed>
</trkpt>
<trkpt lat="55.878181" lon="26.493654">
<ele>91.383850</ele>
<time>2010-07-17T08:05:08Z</time>
<desc>lat.=55.878181, lon.=26.493654, Alt.=91.383850m. Speed=22.788000m/h.</desc>
<speed>6.330000</speed>
</trkpt>
<trkpt lat="55.878151" lon="26.493568">
<ele>91.053772</ele>
<time>2010-07-17T08:05:09Z</time>
<desc>lat.=55.878151, lon.=26.493568, Alt.=91.053772m. Speed=22.068001m/h.</desc>
<speed>6.130000</speed>
</trkpt>
<trkpt lat="55.878117" lon="26.493483">
<ele>90.977600</ele>
<time>2010-07-17T08:05:10Z</time>
<desc>lat.=55.878117, lon.=26.493483, Alt.=90.977600m. Speed=22.896000m/h.</desc>
<speed>6.360000</speed>
</trkpt>
<trkpt lat="55.878086" lon="26.493395">
<ele>91.139709</ele>
<time>2010-07-17T08:05:11Z</time>
<desc>lat.=55.878086, lon.=26.493395, Alt.=91.139709m. Speed=23.903999m/h.</desc>
<speed>6.640000</speed>
</trkpt>
<trkpt lat="55.878052" lon="26.493299">
<ele>91.127991</ele>
<time>2010-07-17T08:05:12Z</time>
<desc>lat.=55.878052, lon.=26.493299, Alt.=91.127991m. Speed=24.372000m/h.</desc>
<speed>6.770000</speed>
</trkpt>
<trkpt lat="55.878017" lon="26.493200">
<ele>90.846741</ele>
<time>2010-07-17T08:05:13Z</time>
<desc>lat.=55.878017, lon.=26.493200, Alt.=90.846741m. Speed=22.823999m/h.</desc>
<speed>6.340000</speed>
</trkpt>
<trkpt lat="55.877983" lon="26.493111">
<ele>90.551819</ele>
<time>2010-07-17T08:05:14Z</time>
<desc>lat.=55.877983, lon.=26.493111, Alt.=90.551819m. Speed=21.959999m/h.</desc>
<speed>6.100000</speed>
</trkpt>
<trkpt lat="55.877953" lon="26.493031">
<ele>90.401428</ele>
<time>2010-07-17T08:05:15Z</time>
<desc>lat.=55.877953, lon.=26.493031, Alt.=90.401428m. Speed=21.348000m/h.</desc>
<speed>5.930000</speed>
</trkpt>
<trkpt lat="55.877918" lon="26.492952">
<ele>90.315491</ele>
<time>2010-07-17T08:05:16Z</time>
<desc>lat.=55.877918, lon.=26.492952, Alt.=90.315491m. Speed=20.916000m/h.</desc>
<speed>5.810000</speed>
</trkpt>
<trkpt lat="55.877880" lon="26.492870">
<ele>90.260803</ele>
<time>2010-07-17T08:05:17Z</time>
<desc>lat.=55.877880, lon.=26.492870, Alt.=90.260803m. Speed=22.356001m/h.</desc>
<speed>6.210000</speed>
</trkpt>
<trkpt lat="55.877850" lon="26.492764">
<ele>90.204163</ele>
<time>2010-07-17T08:05:18Z</time>
<desc>lat.=55.877850, lon.=26.492764, Alt.=90.204163m. Speed=22.788000m/h.</desc>
<speed>6.330000</speed>
</trkpt>
<trkpt lat="55.877808" lon="26.492672">
<ele>89.956116</ele>
<time>2010-07-17T08:05:19Z</time>
<desc>lat.=55.877808, lon.=26.492672, Alt.=89.956116m. Speed=23.615999m/h.</desc>
<speed>6.560000</speed>
</trkpt>
<trkpt lat="55.877769" lon="26.492575">
<ele>89.612366</ele>
<time>2010-07-17T08:05:20Z</time>
<desc>lat.=55.877769, lon.=26.492575, Alt.=89.612366m. Speed=24.552000m/h.</desc>
<speed>6.820000</speed>
</trkpt>
<trkpt lat="55.877724" lon="26.492479">
<ele>89.487366</ele>
<time>2010-07-17T08:05:21Z</time>
<desc>lat.=55.877724, lon.=26.492479, Alt.=89.487366m. Speed=24.660000m/h.</desc>
<speed>6.850000</speed>
</trkpt>
<trkpt lat="55.877682" lon="26.492384">
<ele>89.133850</ele>
<time>2010-07-17T08:05:22Z</time>
<desc>lat.=55.877682, lon.=26.492384, Alt.=89.133850m. Speed=24.732000m/h.</desc>
<speed>6.870000</speed>
</trkpt>
<trkpt lat="55.877644" lon="26.492300">
<ele>89.385803</ele>
<time>2010-07-17T08:05:23Z</time>
<desc>lat.=55.877644, lon.=26.492300, Alt.=89.385803m. Speed=24.084000m/h.</desc>
<speed>6.690000</speed>
</trkpt>
<trkpt lat="55.877602" lon="26.492214">
<ele>89.565491</ele>
<time>2010-07-17T08:05:24Z</time>
<desc>lat.=55.877602, lon.=26.492214, Alt.=89.565491m. Speed=23.364000m/h.</desc>
<speed>6.490000</speed>
</trkpt>
<trkpt lat="55.877563" lon="26.492144">
<ele>89.356506</ele>
<time>2010-07-17T08:05:25Z</time>
<desc>lat.=55.877563, lon.=26.492144, Alt.=89.356506m. Speed=22.500000m/h.</desc>
<speed>6.250000</speed>
</trkpt>
<trkpt lat="55.877525" lon="26.492062">
<ele>89.297913</ele>
<time>2010-07-17T08:05:26Z</time>
<desc>lat.=55.877525, lon.=26.492062, Alt.=89.297913m. Speed=22.968000m/h.</desc>
<speed>6.380000</speed>
</trkpt>
<trkpt lat="55.877491" lon="26.491982">
<ele>89.274475</ele>
<time>2010-07-17T08:05:27Z</time>
<desc>lat.=55.877491, lon.=26.491982, Alt.=89.274475m. Speed=21.743999m/h.</desc>
<speed>6.040000</speed>
</trkpt>
<trkpt lat="55.877460" lon="26.491901">
<ele>89.065491</ele>
<time>2010-07-17T08:05:28Z</time>
<desc>lat.=55.877460, lon.=26.491901, Alt.=89.065491m. Speed=20.736000m/h.</desc>
<speed>5.760000</speed>
</trkpt>
<trkpt lat="55.877434" lon="26.491827">
<ele>88.786194</ele>
<time>2010-07-17T08:05:29Z</time>
<desc>lat.=55.877434, lon.=26.491827, Alt.=88.786194m. Speed=20.087999m/h.</desc>
<speed>5.580000</speed>
</trkpt>
<trkpt lat="55.877407" lon="26.491749">
<ele>88.450256</ele>
<time>2010-07-17T08:05:30Z</time>
<desc>lat.=55.877407, lon.=26.491749, Alt.=88.450256m. Speed=19.296000m/h.</desc>
<speed>5.360000</speed>
</trkpt>
<trkpt lat="55.877380" lon="26.491665">
<ele>88.354553</ele>
<time>2010-07-17T08:05:31Z</time>
<desc>lat.=55.877380, lon.=26.491665, Alt.=88.354553m. Speed=19.980000m/h.</desc>
<speed>5.550000</speed>
</trkpt>
<trkpt lat="55.877357" lon="26.491583">
<ele>88.274475</ele>
<time>2010-07-17T08:05:32Z</time>
<desc>lat.=55.877357, lon.=26.491583, Alt.=88.274475m. Speed=20.412001m/h.</desc>
<speed>5.670000</speed>
</trkpt>
<trkpt lat="55.877346" lon="26.491476">
<ele>88.327209</ele>
<time>2010-07-17T08:05:33Z</time>
<desc>lat.=55.877346, lon.=26.491476, Alt.=88.327209m. Speed=21.816000m/h.</desc>
<speed>6.060000</speed>
</trkpt>
<trkpt lat="55.877331" lon="26.491383">
<ele>88.147522</ele>
<time>2010-07-17T08:05:34Z</time>
<desc>lat.=55.877331, lon.=26.491383, Alt.=88.147522m. Speed=21.959999m/h.</desc>
<speed>6.100000</speed>
</trkpt>
<trkpt lat="55.877316" lon="26.491285">
<ele>88.077209</ele>
<time>2010-07-17T08:05:35Z</time>
<desc>lat.=55.877316, lon.=26.491285, Alt.=88.077209m. Speed=20.664000m/h.</desc>
<speed>5.740000</speed>
</trkpt>
<trkpt lat="55.877285" lon="26.491169">
<ele>87.907288</ele>
<time>2010-07-17T08:05:36Z</time>
<desc>lat.=55.877285, lon.=26.491169, Alt.=87.907288m. Speed=22.284000m/h.</desc>
<speed>6.190000</speed>
</trkpt>
<trkpt lat="55.877285" lon="26.491055">
<ele>87.997131</ele>
<time>2010-07-17T08:05:37Z</time>
<desc>lat.=55.877285, lon.=26.491055, Alt.=87.997131m. Speed=24.587999m/h.</desc>
<speed>6.830000</speed>
</trkpt>
<trkpt lat="55.877300" lon="26.490948">
<ele>88.434631</ele>
<time>2010-07-17T08:05:38Z</time>
<desc>lat.=55.877300, lon.=26.490948, Alt.=88.434631m. Speed=24.804001m/h.</desc>
<speed>6.890000</speed>
</trkpt>
<trkpt lat="55.877308" lon="26.490839">
<ele>89.122131</ele>
<time>2010-07-17T08:05:39Z</time>
<desc>lat.=55.877308, lon.=26.490839, Alt.=89.122131m. Speed=22.608000m/h.</desc>
<speed>6.280000</speed>
</trkpt>
<trkpt lat="55.877323" lon="26.490742">
<ele>88.991272</ele>
<time>2010-07-17T08:05:40Z</time>
<desc>lat.=55.877323, lon.=26.490742, Alt.=88.991272m. Speed=23.652000m/h.</desc>
<speed>6.570000</speed>
</trkpt>
<trkpt lat="55.877342" lon="26.490643">
<ele>89.661194</ele>
<time>2010-07-17T08:05:41Z</time>
<desc>lat.=55.877342, lon.=26.490643, Alt.=89.661194m. Speed=23.544001m/h.</desc>
<speed>6.540000</speed>
</trkpt>
<trkpt lat="55.877369" lon="26.490536">
<ele>89.903381</ele>
<time>2010-07-17T08:05:42Z</time>
<desc>lat.=55.877369, lon.=26.490536, Alt.=89.903381m. Speed=24.768000m/h.</desc>
<speed>6.880000</speed>
</trkpt>
<trkpt lat="55.877388" lon="26.490429">
<ele>90.131897</ele>
<time>2010-07-17T08:05:43Z</time>
<desc>lat.=55.877388, lon.=26.490429, Alt.=90.131897m. Speed=24.804001m/h.</desc>
<speed>6.890000</speed>
</trkpt>
<trkpt lat="55.877411" lon="26.490334">
<ele>90.481506</ele>
<time>2010-07-17T08:05:44Z</time>
<desc>lat.=55.877411, lon.=26.490334, Alt.=90.481506m. Speed=23.615999m/h.</desc>
<speed>6.560000</speed>
</trkpt>
<trkpt lat="55.877430" lon="26.490225">
<ele>90.571350</ele>
<time>2010-07-17T08:05:45Z</time>
<desc>lat.=55.877430, lon.=26.490225, Alt.=90.571350m. Speed=23.400000m/h.</desc>
<speed>6.500000</speed>
</trkpt>
<trkpt lat="55.877445" lon="26.490126">
<ele>90.711975</ele>
<time>2010-07-17T08:05:46Z</time>
<desc>lat.=55.877445, lon.=26.490126, Alt.=90.711975m. Speed=22.500000m/h.</desc>
<speed>6.250000</speed>
</trkpt>
<trkpt lat="55.877468" lon="26.490025">
<ele>90.754944</ele>
<time>2010-07-17T08:05:47Z</time>
<desc>lat.=55.877468, lon.=26.490025, Alt.=90.754944m. Speed=23.184000m/h.</desc>
<speed>6.440000</speed>
</trkpt>
<trkpt lat="55.877495" lon="26.489914">
<ele>90.512756</ele>
<time>2010-07-17T08:05:48Z</time>
<desc>lat.=55.877495, lon.=26.489914, Alt.=90.512756m. Speed=23.652000m/h.</desc>
<speed>6.570000</speed>
</trkpt>
<trkpt lat="55.877525" lon="26.489811">
<ele>90.376038</ele>
<time>2010-07-17T08:05:49Z</time>
<desc>lat.=55.877525, lon.=26.489811, Alt.=90.376038m. Speed=23.796000m/h.</desc>
<speed>6.610000</speed>
</trkpt>
<trkpt lat="55.877548" lon="26.489717">
<ele>90.368225</ele>
<time>2010-07-17T08:05:50Z</time>
<desc>lat.=55.877548, lon.=26.489717, Alt.=90.368225m. Speed=22.860001m/h.</desc>
<speed>6.350000</speed>
</trkpt>
<trkpt lat="55.877567" lon="26.489613">
<ele>90.391663</ele>
<time>2010-07-17T08:05:51Z</time>
<desc>lat.=55.877567, lon.=26.489613, Alt.=90.391663m. Speed=23.903999m/h.</desc>
<speed>6.640000</speed>
</trkpt>
<trkpt lat="55.877586" lon="26.489510">
<ele>90.231506</ele>
<time>2010-07-17T08:05:52Z</time>
<desc>lat.=55.877586, lon.=26.489510, Alt.=90.231506m. Speed=24.011999m/h.</desc>
<speed>6.670000</speed>
</trkpt>
<trkpt lat="55.877602" lon="26.489403">
<ele>89.942444</ele>
<time>2010-07-17T08:05:53Z</time>
<desc>lat.=55.877602, lon.=26.489403, Alt.=89.942444m. Speed=23.832001m/h.</desc>
<speed>6.620000</speed>
</trkpt>
<trkpt lat="55.877617" lon="26.489311">
<ele>90.073303</ele>
<time>2010-07-17T08:05:54Z</time>
<desc>lat.=55.877617, lon.=26.489311, Alt.=90.073303m. Speed=19.799999m/h.</desc>
<speed>5.500000</speed>
</trkpt>
<trkpt lat="55.877636" lon="26.489227">
<ele>89.930725</ele>
<time>2010-07-17T08:05:55Z</time>
<desc>lat.=55.877636, lon.=26.489227, Alt.=89.930725m. Speed=17.820000m/h.</desc>
<speed>4.950000</speed>
</trkpt>
<trkpt lat="55.877659" lon="26.489151">
<ele>89.758850</ele>
<time>2010-07-17T08:05:56Z</time>
<desc>lat.=55.877659, lon.=26.489151, Alt.=89.758850m. Speed=16.379999m/h.</desc>
<speed>4.550000</speed>
</trkpt>
<trkpt lat="55.877674" lon="26.489084">
<ele>90.299866</ele>
<time>2010-07-17T08:05:57Z</time>
<desc>lat.=55.877674, lon.=26.489084, Alt.=90.299866m. Speed=13.824000m/h.</desc>
<speed>3.840000</speed>
</trkpt>
<trkpt lat="55.877686" lon="26.489012">
<ele>91.372131</ele>
<time>2010-07-17T08:05:58Z</time>
<desc>lat.=55.877686, lon.=26.489012, Alt.=91.372131m. Speed=14.760000m/h.</desc>
<speed>4.100000</speed>
</trkpt>
<trkpt lat="55.877693" lon="26.488932">
<ele>91.288147</ele>
<time>2010-07-17T08:05:59Z</time>
<desc>lat.=55.877693, lon.=26.488932, Alt.=91.288147m. Speed=15.372000m/h.</desc>
<speed>4.270000</speed>
</trkpt>
<trkpt lat="55.877689" lon="26.488869">
<ele>91.592834</ele>
<time>2010-07-17T08:06:00Z</time>
<desc>lat.=55.877689, lon.=26.488869, Alt.=91.592834m. Speed=12.888000m/h.</desc>
<speed>3.580000</speed>
</trkpt>
<trkpt lat="55.877689" lon="26.488802">
<ele>92.465881</ele>
<time>2010-07-17T08:06:01Z</time>
<desc>lat.=55.877689, lon.=26.488802, Alt.=92.465881m. Speed=16.236000m/h.</desc>
<speed>4.510000</speed>
</trkpt>
<trkpt lat="55.877682" lon="26.488724">
<ele>93.001038</ele>
<time>2010-07-17T08:06:02Z</time>
<desc>lat.=55.877682, lon.=26.488724, Alt.=93.001038m. Speed=17.459999m/h.</desc>
<speed>4.850000</speed>
</trkpt>
<trkpt lat="55.877670" lon="26.488636">
<ele>93.231506</ele>
<time>2010-07-17T08:06:03Z</time>
<desc>lat.=55.877670, lon.=26.488636, Alt.=93.231506m. Speed=19.728001m/h.</desc>
<speed>5.480000</speed>
</trkpt>
<trkpt lat="55.877651" lon="26.488552">
<ele>94.235413</ele>
<time>2010-07-17T08:06:04Z</time>
<desc>lat.=55.877651, lon.=26.488552, Alt.=94.235413m. Speed=21.240000m/h.</desc>
<speed>5.900000</speed>
</trkpt>
<trkpt lat="55.877625" lon="26.488474">
<ele>94.754944</ele>
<time>2010-07-17T08:06:05Z</time>
<desc>lat.=55.877625, lon.=26.488474, Alt.=94.754944m. Speed=20.340000m/h.</desc>
<speed>5.650000</speed>
</trkpt>
<trkpt lat="55.877594" lon="26.488396">
<ele>95.120178</ele>
<time>2010-07-17T08:06:06Z</time>
<desc>lat.=55.877594, lon.=26.488396, Alt.=95.120178m. Speed=22.643999m/h.</desc>
<speed>6.290000</speed>
</trkpt>
<trkpt lat="55.877552" lon="26.488310">
<ele>93.926819</ele>
<time>2010-07-17T08:06:07Z</time>
<desc>lat.=55.877552, lon.=26.488310, Alt.=93.926819m. Speed=22.535999m/h.</desc>
<speed>6.260000</speed>
</trkpt>
<trkpt lat="55.877514" lon="26.488216">
<ele>93.696350</ele>
<time>2010-07-17T08:06:08Z</time>
<desc>lat.=55.877514, lon.=26.488216, Alt.=93.696350m. Speed=23.507999m/h.</desc>
<speed>6.530000</speed>
</trkpt>
<trkpt lat="55.877472" lon="26.488129">
<ele>92.901428</ele>
<time>2010-07-17T08:06:09Z</time>
<desc>lat.=55.877472, lon.=26.488129, Alt.=92.901428m. Speed=22.752001m/h.</desc>
<speed>6.320000</speed>
</trkpt>
<trkpt lat="55.877430" lon="26.488058">
<ele>92.602600</ele>
<time>2010-07-17T08:06:10Z</time>
<desc>lat.=55.877430, lon.=26.488058, Alt.=92.602600m. Speed=22.104000m/h.</desc>
<speed>6.140000</speed>
</trkpt>
<trkpt lat="55.877388" lon="26.487989">
<ele>92.225647</ele>
<time>2010-07-17T08:06:11Z</time>
<desc>lat.=55.877388, lon.=26.487989, Alt.=92.225647m. Speed=22.356001m/h.</desc>
<speed>6.210000</speed>
</trkpt>
<trkpt lat="55.877342" lon="26.487925">
<ele>92.256897</ele>
<time>2010-07-17T08:06:12Z</time>
<desc>lat.=55.877342, lon.=26.487925, Alt.=92.256897m. Speed=23.148001m/h.</desc>
<speed>6.430000</speed>
</trkpt>
<trkpt lat="55.877293" lon="26.487856">
<ele>91.651428</ele>
<time>2010-07-17T08:06:13Z</time>
<desc>lat.=55.877293, lon.=26.487856, Alt.=91.651428m. Speed=23.184000m/h.</desc>
<speed>6.440000</speed>
</trkpt>
<trkpt lat="55.877243" lon="26.487789">
<ele>90.483459</ele>
<time>2010-07-17T08:06:14Z</time>
<desc>lat.=55.877243, lon.=26.487789, Alt.=90.483459m. Speed=23.688000m/h.</desc>
<speed>6.580000</speed>
</trkpt>
<trkpt lat="55.877201" lon="26.487726">
<ele>90.631897</ele>
<time>2010-07-17T08:06:15Z</time>
<desc>lat.=55.877201, lon.=26.487726, Alt.=90.631897m. Speed=23.796000m/h.</desc>
<speed>6.610000</speed>
</trkpt>
<trkpt lat="55.877155" lon="26.487665">
<ele>90.737366</ele>
<time>2010-07-17T08:06:16Z</time>
<desc>lat.=55.877155, lon.=26.487665, Alt.=90.737366m. Speed=23.327999m/h.</desc>
<speed>6.480000</speed>
</trkpt>
<trkpt lat="55.877102" lon="26.487604">
<ele>90.305725</ele>
<time>2010-07-17T08:06:17Z</time>
<desc>lat.=55.877102, lon.=26.487604, Alt.=90.305725m. Speed=23.076000m/h.</desc>
<speed>6.410000</speed>
</trkpt>
<trkpt lat="55.877056" lon="26.487541">
<ele>90.850647</ele>
<time>2010-07-17T08:06:18Z</time>
<desc>lat.=55.877056, lon.=26.487541, Alt.=90.850647m. Speed=22.535999m/h.</desc>
<speed>6.260000</speed>
</trkpt>
<trkpt lat="55.877010" lon="26.487476">
<ele>91.063538</ele>
<time>2010-07-17T08:06:19Z</time>
<desc>lat.=55.877010, lon.=26.487476, Alt.=91.063538m. Speed=23.004000m/h.</desc>
<speed>6.390000</speed>
</trkpt>
<trkpt lat="55.876961" lon="26.487413">
<ele>91.536194</ele>
<time>2010-07-17T08:06:20Z</time>
<desc>lat.=55.876961, lon.=26.487413, Alt.=91.536194m. Speed=23.256001m/h.</desc>
<speed>6.460000</speed>
</trkpt>
<trkpt lat="55.876911" lon="26.487358">
<ele>92.149475</ele>
<time>2010-07-17T08:06:21Z</time>
<desc>lat.=55.876911, lon.=26.487358, Alt.=92.149475m. Speed=22.931999m/h.</desc>
<speed>6.370000</speed>
</trkpt>
<trkpt lat="55.876862" lon="26.487303">
<ele>92.706116</ele>
<time>2010-07-17T08:06:22Z</time>
<desc>lat.=55.876862, lon.=26.487303, Alt.=92.706116m. Speed=22.212000m/h.</desc>
<speed>6.170000</speed>
</trkpt>
<trkpt lat="55.876816" lon="26.487244">
<ele>93.235413</ele>
<time>2010-07-17T08:06:23Z</time>
<desc>lat.=55.876816, lon.=26.487244, Alt.=93.235413m. Speed=22.860001m/h.</desc>
<speed>6.350000</speed>
</trkpt>
<trkpt lat="55.876770" lon="26.487185">
<ele>93.655334</ele>
<time>2010-07-17T08:06:24Z</time>
<desc>lat.=55.876770, lon.=26.487185, Alt.=93.655334m. Speed=22.320000m/h.</desc>
<speed>6.200000</speed>
</trkpt>
<trkpt lat="55.876728" lon="26.487123">
<ele>93.920959</ele>
<time>2010-07-17T08:06:25Z</time>
<desc>lat.=55.876728, lon.=26.487123, Alt.=93.920959m. Speed=22.643999m/h.</desc>
<speed>6.290000</speed>
</trkpt>
<trkpt lat="55.876686" lon="26.487064">
<ele>94.489319</ele>
<time>2010-07-17T08:06:26Z</time>
<desc>lat.=55.876686, lon.=26.487064, Alt.=94.489319m. Speed=21.420000m/h.</desc>
<speed>5.950000</speed>
</trkpt>
<trkpt lat="55.876648" lon="26.487003">
<ele>94.919006</ele>
<time>2010-07-17T08:06:27Z</time>
<desc>lat.=55.876648, lon.=26.487003, Alt.=94.919006m. Speed=21.816000m/h.</desc>
<speed>6.060000</speed>
</trkpt>
<trkpt lat="55.876606" lon="26.486940">
<ele>95.772522</ele>
<time>2010-07-17T08:06:28Z</time>
<desc>lat.=55.876606, lon.=26.486940, Alt.=95.772522m. Speed=20.844000m/h.</desc>
<speed>5.790000</speed>
</trkpt>
<trkpt lat="55.876564" lon="26.486885">
<ele>95.762756</ele>
<time>2010-07-17T08:06:29Z</time>
<desc>lat.=55.876564, lon.=26.486885, Alt.=95.762756m. Speed=20.340000m/h.</desc>
<speed>5.650000</speed>
</trkpt>
<trkpt lat="55.876518" lon="26.486830">
<ele>95.831116</ele>
<time>2010-07-17T08:06:30Z</time>
<desc>lat.=55.876518, lon.=26.486830, Alt.=95.831116m. Speed=21.096001m/h.</desc>
<speed>5.860000</speed>
</trkpt>
<trkpt lat="55.876476" lon="26.486771">
<ele>95.928772</ele>
<time>2010-07-17T08:06:31Z</time>
<desc>lat.=55.876476, lon.=26.486771, Alt.=95.928772m. Speed=19.908001m/h.</desc>
<speed>5.530000</speed>
</trkpt>
<trkpt lat="55.876442" lon="26.486715">
<ele>96.086975</ele>
<time>2010-07-17T08:06:32Z</time>
<desc>lat.=55.876442, lon.=26.486715, Alt.=96.086975m. Speed=18.540001m/h.</desc>
<speed>5.150000</speed>
</trkpt>
<trkpt lat="55.876404" lon="26.486664">
<ele>96.356506</ele>
<time>2010-07-17T08:06:33Z</time>
<desc>lat.=55.876404, lon.=26.486664, Alt.=96.356506m. Speed=18.035999m/h.</desc>
<speed>5.010000</speed>
</trkpt>
<trkpt lat="55.876366" lon="26.486616">
<ele>96.719788</ele>
<time>2010-07-17T08:06:34Z</time>
<desc>lat.=55.876366, lon.=26.486616, Alt.=96.719788m. Speed=19.044001m/h.</desc>
<speed>5.290000</speed>
</trkpt>
<trkpt lat="55.876331" lon="26.486568">
<ele>97.202209</ele>
<time>2010-07-17T08:06:35Z</time>
<desc>lat.=55.876331, lon.=26.486568, Alt.=97.202209m. Speed=19.368000m/h.</desc>
<speed>5.380000</speed>
</trkpt>
<trkpt lat="55.876289" lon="26.486519">
<ele>97.350647</ele>
<time>2010-07-17T08:06:36Z</time>
<desc>lat.=55.876289, lon.=26.486519, Alt.=97.350647m. Speed=20.268000m/h.</desc>
<speed>5.630000</speed>
</trkpt>
<trkpt lat="55.876247" lon="26.486458">
<ele>97.323303</ele>
<time>2010-07-17T08:06:37Z</time>
<desc>lat.=55.876247, lon.=26.486458, Alt.=97.323303m. Speed=20.412001m/h.</desc>
<speed>5.670000</speed>
</trkpt>
<trkpt lat="55.876205" lon="26.486395">
<ele>97.739319</ele>
<time>2010-07-17T08:06:38Z</time>
<desc>lat.=55.876205, lon.=26.486395, Alt.=97.739319m. Speed=22.104000m/h.</desc>
<speed>6.140000</speed>
</trkpt>
<trkpt lat="55.876163" lon="26.486334">
<ele>97.823303</ele>
<time>2010-07-17T08:06:39Z</time>
<desc>lat.=55.876163, lon.=26.486334, Alt.=97.823303m. Speed=22.320000m/h.</desc>
<speed>6.200000</speed>
</trkpt>
<trkpt lat="55.876122" lon="26.486275">
<ele>98.059631</ele>
<time>2010-07-17T08:06:40Z</time>
<desc>lat.=55.876122, lon.=26.486275, Alt.=98.059631m. Speed=22.464001m/h.</desc>
<speed>6.240000</speed>
</trkpt>
<trkpt lat="55.876076" lon="26.486219">
<ele>98.241272</ele>
<time>2010-07-17T08:06:41Z</time>
<desc>lat.=55.876076, lon.=26.486219, Alt.=98.241272m. Speed=21.816000m/h.</desc>
<speed>6.060000</speed>
</trkpt>
<trkpt lat="55.876034" lon="26.486153">
<ele>98.284241</ele>
<time>2010-07-17T08:06:42Z</time>
<desc>lat.=55.876034, lon.=26.486153, Alt.=98.284241m. Speed=21.996000m/h.</desc>
<speed>6.110000</speed>
</trkpt>
<trkpt lat="55.875988" lon="26.486084">
<ele>98.426819</ele>
<time>2010-07-17T08:06:43Z</time>
<desc>lat.=55.875988, lon.=26.486084, Alt.=98.426819m. Speed=23.832001m/h.</desc>
<speed>6.620000</speed>
</trkpt>
<trkpt lat="55.875942" lon="26.486013">
<ele>98.717834</ele>
<time>2010-07-17T08:06:44Z</time>
<desc>lat.=55.875942, lon.=26.486013, Alt.=98.717834m. Speed=22.788000m/h.</desc>
<speed>6.330000</speed>
</trkpt>
<trkpt lat="55.875896" lon="26.485945">
<ele>98.930725</ele>
<time>2010-07-17T08:06:45Z</time>
<desc>lat.=55.875896, lon.=26.485945, Alt.=98.930725m. Speed=23.760000m/h.</desc>
<speed>6.600000</speed>
</trkpt>
<trkpt lat="55.875847" lon="26.485876">
<ele>99.026428</ele>
<time>2010-07-17T08:06:46Z</time>
<desc>lat.=55.875847, lon.=26.485876, Alt.=99.026428m. Speed=24.732000m/h.</desc>
<speed>6.870000</speed>
</trkpt>
<trkpt lat="55.875790" lon="26.485806">
<ele>98.794006</ele>
<time>2010-07-17T08:06:47Z</time>
<desc>lat.=55.875790, lon.=26.485806, Alt.=98.794006m. Speed=24.480000m/h.</desc>
<speed>6.800000</speed>
</trkpt>
<trkpt lat="55.875736" lon="26.485739">
<ele>98.508850</ele>
<time>2010-07-17T08:06:48Z</time>
<desc>lat.=55.875736, lon.=26.485739, Alt.=98.508850m. Speed=24.336000m/h.</desc>
<speed>6.760000</speed>
</trkpt>
<trkpt lat="55.875683" lon="26.485672">
<ele>98.294006</ele>
<time>2010-07-17T08:06:49Z</time>
<desc>lat.=55.875683, lon.=26.485672, Alt.=98.294006m. Speed=23.148001m/h.</desc>
<speed>6.430000</speed>
</trkpt>
<trkpt lat="55.875637" lon="26.485622">
<ele>97.991272</ele>
<time>2010-07-17T08:06:50Z</time>
<desc>lat.=55.875637, lon.=26.485622, Alt.=97.991272m. Speed=22.643999m/h.</desc>
<speed>6.290000</speed>
</trkpt>
<trkpt lat="55.875587" lon="26.485561">
<ele>97.819397</ele>
<time>2010-07-17T08:06:51Z</time>
<desc>lat.=55.875587, lon.=26.485561, Alt.=97.819397m. Speed=22.284000m/h.</desc>
<speed>6.190000</speed>
</trkpt>
<trkpt lat="55.875546" lon="26.485500">
<ele>97.758850</ele>
<time>2010-07-17T08:06:52Z</time>
<desc>lat.=55.875546, lon.=26.485500, Alt.=97.758850m. Speed=21.275999m/h.</desc>
<speed>5.910000</speed>
</trkpt>
<trkpt lat="55.875496" lon="26.485437">
<ele>97.506897</ele>
<time>2010-07-17T08:06:53Z</time>
<desc>lat.=55.875496, lon.=26.485437, Alt.=97.506897m. Speed=21.708000m/h.</desc>
<speed>6.030000</speed>
</trkpt>
<trkpt lat="55.875454" lon="26.485374">
<ele>97.335022</ele>
<time>2010-07-17T08:06:54Z</time>
<desc>lat.=55.875454, lon.=26.485374, Alt.=97.335022m. Speed=21.420000m/h.</desc>
<speed>5.950000</speed>
</trkpt>
<trkpt lat="55.875408" lon="26.485317">
<ele>97.200256</ele>
<time>2010-07-17T08:06:55Z</time>
<desc>lat.=55.875408, lon.=26.485317, Alt.=97.200256m. Speed=21.024000m/h.</desc>
<speed>5.840000</speed>
</trkpt>
<trkpt lat="55.875366" lon="26.485256">
<ele>96.903381</ele>
<time>2010-07-17T08:06:56Z</time>
<desc>lat.=55.875366, lon.=26.485256, Alt.=96.903381m. Speed=21.455999m/h.</desc>
<speed>5.960000</speed>
</trkpt>
<trkpt lat="55.875328" lon="26.485201">
<ele>96.813538</ele>
<time>2010-07-17T08:06:57Z</time>
<desc>lat.=55.875328, lon.=26.485201, Alt.=96.813538m. Speed=21.636000m/h.</desc>
<speed>6.010000</speed>
</trkpt>
<trkpt lat="55.875286" lon="26.485142">
<ele>96.696350</ele>
<time>2010-07-17T08:06:58Z</time>
<desc>lat.=55.875286, lon.=26.485142, Alt.=96.696350m. Speed=20.448000m/h.</desc>
<speed>5.680000</speed>
</trkpt>
<trkpt lat="55.875240" lon="26.485075">
<ele>96.477600</ele>
<time>2010-07-17T08:06:59Z</time>
<desc>lat.=55.875240, lon.=26.485075, Alt.=96.477600m. Speed=20.844000m/h.</desc>
<speed>5.790000</speed>
</trkpt>
<trkpt lat="55.875191" lon="26.485022">
<ele>96.235413</ele>
<time>2010-07-17T08:07:00Z</time>
<desc>lat.=55.875191, lon.=26.485022, Alt.=96.235413m. Speed=21.996000m/h.</desc>
<speed>6.110000</speed>
</trkpt>
<trkpt lat="55.875141" lon="26.484955">
<ele>96.030334</ele>
<time>2010-07-17T08:07:01Z</time>
<desc>lat.=55.875141, lon.=26.484955, Alt.=96.030334m. Speed=23.040001m/h.</desc>
<speed>6.400000</speed>
</trkpt>
<trkpt lat="55.875095" lon="26.484888">
<ele>95.940491</ele>
<time>2010-07-17T08:07:02Z</time>
<desc>lat.=55.875095, lon.=26.484888, Alt.=95.940491m. Speed=22.931999m/h.</desc>
<speed>6.370000</speed>
</trkpt>
<trkpt lat="55.875050" lon="26.484818">
<ele>95.663147</ele>
<time>2010-07-17T08:07:03Z</time>
<desc>lat.=55.875050, lon.=26.484818, Alt.=95.663147m. Speed=23.652000m/h.</desc>
<speed>6.570000</speed>
</trkpt>
<trkpt lat="55.875000" lon="26.484749">
<ele>95.452209</ele>
<time>2010-07-17T08:07:04Z</time>
<desc>lat.=55.875000, lon.=26.484749, Alt.=95.452209m. Speed=24.336000m/h.</desc>
<speed>6.760000</speed>
</trkpt>
<trkpt lat="55.874947" lon="26.484684">
<ele>95.178772</ele>
<time>2010-07-17T08:07:05Z</time>
<desc>lat.=55.874947, lon.=26.484684, Alt.=95.178772m. Speed=24.372000m/h.</desc>
<speed>6.770000</speed>
</trkpt>
<trkpt lat="55.874897" lon="26.484615">
<ele>94.905334</ele>
<time>2010-07-17T08:07:06Z</time>
<desc>lat.=55.874897, lon.=26.484615, Alt.=94.905334m. Speed=24.156000m/h.</desc>
<speed>6.710000</speed>
</trkpt>
<trkpt lat="55.874847" lon="26.484543">
<ele>94.618225</ele>
<time>2010-07-17T08:07:07Z</time>
<desc>lat.=55.874847, lon.=26.484543, Alt.=94.618225m. Speed=23.292000m/h.</desc>
<speed>6.470000</speed>
</trkpt>
<trkpt lat="55.874798" lon="26.484474">
<ele>94.432678</ele>
<time>2010-07-17T08:07:08Z</time>
<desc>lat.=55.874798, lon.=26.484474, Alt.=94.432678m. Speed=23.400000m/h.</desc>
<speed>6.500000</speed>
</trkpt>
<trkpt lat="55.874756" lon="26.484413">
<ele>94.227600</ele>
<time>2010-07-17T08:07:09Z</time>
<desc>lat.=55.874756, lon.=26.484413, Alt.=94.227600m. Speed=21.132000m/h.</desc>
<speed>5.870000</speed>
</trkpt>
<trkpt lat="55.874714" lon="26.484356">
<ele>94.133850</ele>
<time>2010-07-17T08:07:10Z</time>
<desc>lat.=55.874714, lon.=26.484356, Alt.=94.133850m. Speed=21.132000m/h.</desc>
<speed>5.870000</speed>
</trkpt>
<trkpt lat="55.874676" lon="26.484303">
<ele>93.948303</ele>
<time>2010-07-17T08:07:11Z</time>
<desc>lat.=55.874676, lon.=26.484303, Alt.=93.948303m. Speed=19.152000m/h.</desc>
<speed>5.320000</speed>
</trkpt>
<trkpt lat="55.874634" lon="26.484249">
<ele>93.610413</ele>
<time>2010-07-17T08:07:12Z</time>
<desc>lat.=55.874634, lon.=26.484249, Alt.=93.610413m. Speed=20.340000m/h.</desc>
<speed>5.650000</speed>
</trkpt>
<trkpt lat="55.874584" lon="26.484188">
<ele>93.420959</ele>
<time>2010-07-17T08:07:13Z</time>
<desc>lat.=55.874584, lon.=26.484188, Alt.=93.420959m. Speed=20.375999m/h.</desc>
<speed>5.660000</speed>
</trkpt>
<trkpt lat="55.874542" lon="26.484131">
<ele>93.172913</ele>
<time>2010-07-17T08:07:14Z</time>
<desc>lat.=55.874542, lon.=26.484131, Alt.=93.172913m. Speed=20.591999m/h.</desc>
<speed>5.720000</speed>
</trkpt>
<trkpt lat="55.874500" lon="26.484074">
<ele>93.008850</ele>
<time>2010-07-17T08:07:15Z</time>
<desc>lat.=55.874500, lon.=26.484074, Alt.=93.008850m. Speed=20.591999m/h.</desc>
<speed>5.720000</speed>
</trkpt>
<trkpt lat="55.874458" lon="26.484003">
<ele>92.700256</ele>
<time>2010-07-17T08:07:16Z</time>
<desc>lat.=55.874458, lon.=26.484003, Alt.=92.700256m. Speed=21.492001m/h.</desc>
<speed>5.970000</speed>
</trkpt>
<trkpt lat="55.874409" lon="26.483940">
<ele>92.616272</ele>
<time>2010-07-17T08:07:17Z</time>
<desc>lat.=55.874409, lon.=26.483940, Alt.=92.616272m. Speed=23.219999m/h.</desc>
<speed>6.450000</speed>
</trkpt>
<trkpt lat="55.874363" lon="26.483873">
<ele>92.583069</ele>
<time>2010-07-17T08:07:18Z</time>
<desc>lat.=55.874363, lon.=26.483873, Alt.=92.583069m. Speed=23.472000m/h.</desc>
<speed>6.520000</speed>
</trkpt>
<trkpt lat="55.874317" lon="26.483809">
<ele>92.485413</ele>
<time>2010-07-17T08:07:19Z</time>
<desc>lat.=55.874317, lon.=26.483809, Alt.=92.485413m. Speed=22.823999m/h.</desc>
<speed>6.340000</speed>
</trkpt>
<trkpt lat="55.874268" lon="26.483740">
<ele>92.387756</ele>
<time>2010-07-17T08:07:20Z</time>
<desc>lat.=55.874268, lon.=26.483740, Alt.=92.387756m. Speed=23.615999m/h.</desc>
<speed>6.560000</speed>
</trkpt>
<trkpt lat="55.874214" lon="26.483671">
<ele>92.090881</ele>
<time>2010-07-17T08:07:21Z</time>
<desc>lat.=55.874214, lon.=26.483671, Alt.=92.090881m. Speed=23.436001m/h.</desc>
<speed>6.510000</speed>
</trkpt>
<trkpt lat="55.874168" lon="26.483599">
<ele>92.256897</ele>
<time>2010-07-17T08:07:22Z</time>
<desc>lat.=55.874168, lon.=26.483599, Alt.=92.256897m. Speed=23.327999m/h.</desc>
<speed>6.480000</speed>
</trkpt>
<trkpt lat="55.874119" lon="26.483528">
<ele>92.336975</ele>
<time>2010-07-17T08:07:23Z</time>
<desc>lat.=55.874119, lon.=26.483528, Alt.=92.336975m. Speed=22.752001m/h.</desc>
<speed>6.320000</speed>
</trkpt>
<trkpt lat="55.874069" lon="26.483463">
<ele>92.204163</ele>
<time>2010-07-17T08:07:24Z</time>
<desc>lat.=55.874069, lon.=26.483463, Alt.=92.204163m. Speed=23.903999m/h.</desc>
<speed>6.640000</speed>
</trkpt>
<trkpt lat="55.874016" lon="26.483398">
<ele>92.057678</ele>
<time>2010-07-17T08:07:25Z</time>
<desc>lat.=55.874016, lon.=26.483398, Alt.=92.057678m. Speed=23.184000m/h.</desc>
<speed>6.440000</speed>
</trkpt>
<trkpt lat="55.873959" lon="26.483330">
<ele>91.706116</ele>
<time>2010-07-17T08:07:26Z</time>
<desc>lat.=55.873959, lon.=26.483330, Alt.=91.706116m. Speed=23.796000m/h.</desc>
<speed>6.610000</speed>
</trkpt>
<trkpt lat="55.873905" lon="26.483269">
<ele>91.540100</ele>
<time>2010-07-17T08:07:27Z</time>
<desc>lat.=55.873905, lon.=26.483269, Alt.=91.540100m. Speed=24.480000m/h.</desc>
<speed>6.800000</speed>
</trkpt>
<trkpt lat="55.873856" lon="26.483204">
<ele>91.461975</ele>
<time>2010-07-17T08:07:28Z</time>
<desc>lat.=55.873856, lon.=26.483204, Alt.=91.461975m. Speed=24.048000m/h.</desc>
<speed>6.680000</speed>
</trkpt>
<trkpt lat="55.873806" lon="26.483139">
<ele>91.272522</ele>
<time>2010-07-17T08:07:29Z</time>
<desc>lat.=55.873806, lon.=26.483139, Alt.=91.272522m. Speed=24.444000m/h.</desc>
<speed>6.790000</speed>
</trkpt>
<trkpt lat="55.873753" lon="26.483072">
<ele>90.811584</ele>
<time>2010-07-17T08:07:30Z</time>
<desc>lat.=55.873753, lon.=26.483072, Alt.=90.811584m. Speed=23.940001m/h.</desc>
<speed>6.650000</speed>
</trkpt>
<trkpt lat="55.873703" lon="26.483013">
<ele>90.674866</ele>
<time>2010-07-17T08:07:31Z</time>
<desc>lat.=55.873703, lon.=26.483013, Alt.=90.674866m. Speed=22.896000m/h.</desc>
<speed>6.360000</speed>
</trkpt>
<trkpt lat="55.873653" lon="26.482952">
<ele>90.710022</ele>
<time>2010-07-17T08:07:32Z</time>
<desc>lat.=55.873653, lon.=26.482952, Alt.=90.710022m. Speed=23.327999m/h.</desc>
<speed>6.480000</speed>
</trkpt>
<trkpt lat="55.873604" lon="26.482893">
<ele>90.637756</ele>
<time>2010-07-17T08:07:33Z</time>
<desc>lat.=55.873604, lon.=26.482893, Alt.=90.637756m. Speed=23.940001m/h.</desc>
<speed>6.650000</speed>
</trkpt>
<trkpt lat="55.873554" lon="26.482828">
<ele>90.592834</ele>
<time>2010-07-17T08:07:34Z</time>
<desc>lat.=55.873554, lon.=26.482828, Alt.=90.592834m. Speed=24.552000m/h.</desc>
<speed>6.820000</speed>
</trkpt>
<trkpt lat="55.873512" lon="26.482771">
<ele>90.147522</ele>
<time>2010-07-17T08:07:35Z</time>
<desc>lat.=55.873512, lon.=26.482771, Alt.=90.147522m. Speed=22.176001m/h.</desc>
<speed>6.160000</speed>
</trkpt>
<trkpt lat="55.873466" lon="26.482704">
<ele>89.997131</ele>
<time>2010-07-17T08:07:36Z</time>
<desc>lat.=55.873466, lon.=26.482704, Alt.=89.997131m. Speed=22.968000m/h.</desc>
<speed>6.380000</speed>
</trkpt>
<trkpt lat="55.873421" lon="26.482647">
<ele>89.729553</ele>
<time>2010-07-17T08:07:37Z</time>
<desc>lat.=55.873421, lon.=26.482647, Alt.=89.729553m. Speed=24.264000m/h.</desc>
<speed>6.740000</speed>
</trkpt>
<trkpt lat="55.873371" lon="26.482586">
<ele>89.471741</ele>
<time>2010-07-17T08:07:38Z</time>
<desc>lat.=55.873371, lon.=26.482586, Alt.=89.471741m. Speed=22.464001m/h.</desc>
<speed>6.240000</speed>
</trkpt>
<trkpt lat="55.873325" lon="26.482531">
<ele>89.256897</ele>
<time>2010-07-17T08:07:39Z</time>
<desc>lat.=55.873325, lon.=26.482531, Alt.=89.256897m. Speed=21.096001m/h.</desc>
<speed>5.860000</speed>
</trkpt>
<trkpt lat="55.873276" lon="26.482471">
<ele>88.887756</ele>
<time>2010-07-17T08:07:40Z</time>
<desc>lat.=55.873276, lon.=26.482471, Alt.=88.887756m. Speed=21.096001m/h.</desc>
<speed>5.860000</speed>
</trkpt>
<trkpt lat="55.873226" lon="26.482401">
<ele>88.721741</ele>
<time>2010-07-17T08:07:41Z</time>
<desc>lat.=55.873226, lon.=26.482401, Alt.=88.721741m. Speed=21.240000m/h.</desc>
<speed>5.900000</speed>
</trkpt>
<trkpt lat="55.873184" lon="26.482342">
<ele>88.294006</ele>
<time>2010-07-17T08:07:42Z</time>
<desc>lat.=55.873184, lon.=26.482342, Alt.=88.294006m. Speed=20.664000m/h.</desc>
<speed>5.740000</speed>
</trkpt>
<trkpt lat="55.873142" lon="26.482283">
<ele>88.045959</ele>
<time>2010-07-17T08:07:43Z</time>
<desc>lat.=55.873142, lon.=26.482283, Alt.=88.045959m. Speed=22.572001m/h.</desc>
<speed>6.270000</speed>
</trkpt>
<trkpt lat="55.873085" lon="26.482220">
<ele>87.663147</ele>
<time>2010-07-17T08:07:44Z</time>
<desc>lat.=55.873085, lon.=26.482220, Alt.=87.663147m. Speed=22.823999m/h.</desc>
<speed>6.340000</speed>
</trkpt>
<trkpt lat="55.873032" lon="26.482164">
<ele>87.653381</ele>
<time>2010-07-17T08:07:45Z</time>
<desc>lat.=55.873032, lon.=26.482164, Alt.=87.653381m. Speed=23.219999m/h.</desc>
<speed>6.450000</speed>
</trkpt>
<trkpt lat="55.872986" lon="26.482105">
<ele>87.467834</ele>
<time>2010-07-17T08:07:46Z</time>
<desc>lat.=55.872986, lon.=26.482105, Alt.=87.467834m. Speed=23.903999m/h.</desc>
<speed>6.640000</speed>
</trkpt>
<trkpt lat="55.872940" lon="26.482054">
<ele>87.114319</ele>
<time>2010-07-17T08:07:47Z</time>
<desc>lat.=55.872940, lon.=26.482054, Alt.=87.114319m. Speed=22.535999m/h.</desc>
<speed>6.260000</speed>
</trkpt>
<trkpt lat="55.872890" lon="26.481997">
<ele>86.504944</ele>
<time>2010-07-17T08:07:48Z</time>
<desc>lat.=55.872890, lon.=26.481997, Alt.=86.504944m. Speed=21.563999m/h.</desc>
<speed>5.990000</speed>
</trkpt>
<trkpt lat="55.872849" lon="26.481939">
<ele>86.016663</ele>
<time>2010-07-17T08:07:49Z</time>
<desc>lat.=55.872849, lon.=26.481939, Alt.=86.016663m. Speed=21.167999m/h.</desc>
<speed>5.880000</speed>
</trkpt>
<trkpt lat="55.872803" lon="26.481880">
<ele>85.528381</ele>
<time>2010-07-17T08:07:50Z</time>
<desc>lat.=55.872803, lon.=26.481880, Alt.=85.528381m. Speed=22.680000m/h.</desc>
<speed>6.300000</speed>
</trkpt>
<trkpt lat="55.872757" lon="26.481821">
<ele>85.192444</ele>
<time>2010-07-17T08:07:51Z</time>
<desc>lat.=55.872757, lon.=26.481821, Alt.=85.192444m. Speed=22.284000m/h.</desc>
<speed>6.190000</speed>
</trkpt>
<trkpt lat="55.872711" lon="26.481758">
<ele>84.862366</ele>
<time>2010-07-17T08:07:52Z</time>
<desc>lat.=55.872711, lon.=26.481758, Alt.=84.862366m. Speed=21.600000m/h.</desc>
<speed>6.000000</speed>
</trkpt>
<trkpt lat="55.872669" lon="26.481697">
<ele>84.573303</ele>
<time>2010-07-17T08:07:53Z</time>
<desc>lat.=55.872669, lon.=26.481697, Alt.=84.573303m. Speed=20.340000m/h.</desc>
<speed>5.650000</speed>
</trkpt>
<trkpt lat="55.872627" lon="26.481636">
<ele>84.338928</ele>
<time>2010-07-17T08:07:54Z</time>
<desc>lat.=55.872627, lon.=26.481636, Alt.=84.338928m. Speed=20.412001m/h.</desc>
<speed>5.670000</speed>
</trkpt>
<trkpt lat="55.872578" lon="26.481562">
<ele>84.059631</ele>
<time>2010-07-17T08:07:55Z</time>
<desc>lat.=55.872578, lon.=26.481562, Alt.=84.059631m. Speed=23.436001m/h.</desc>
<speed>6.510000</speed>
</trkpt>
<trkpt lat="55.872524" lon="26.481506">
<ele>83.782288</ele>
<time>2010-07-17T08:07:56Z</time>
<desc>lat.=55.872524, lon.=26.481506, Alt.=83.782288m. Speed=22.860001m/h.</desc>
<speed>6.350000</speed>
</trkpt>
<trkpt lat="55.872471" lon="26.481422">
<ele>83.641663</ele>
<time>2010-07-17T08:07:57Z</time>
<desc>lat.=55.872471, lon.=26.481422, Alt.=83.641663m. Speed=23.615999m/h.</desc>
<speed>6.560000</speed>
</trkpt>
<trkpt lat="55.872414" lon="26.481350">
<ele>83.258850</ele>
<time>2010-07-17T08:07:58Z</time>
<desc>lat.=55.872414, lon.=26.481350, Alt.=83.258850m. Speed=24.299999m/h.</desc>
<speed>6.750000</speed>
</trkpt>
<trkpt lat="55.872360" lon="26.481276">
<ele>82.907288</ele>
<time>2010-07-17T08:07:59Z</time>
<desc>lat.=55.872360, lon.=26.481276, Alt.=82.907288m. Speed=24.624001m/h.</desc>
<speed>6.840000</speed>
</trkpt>
<trkpt lat="55.872314" lon="26.481207">
<ele>82.678772</ele>
<time>2010-07-17T08:08:00Z</time>
<desc>lat.=55.872314, lon.=26.481207, Alt.=82.678772m. Speed=23.219999m/h.</desc>
<speed>6.450000</speed>
</trkpt>
<trkpt lat="55.872272" lon="26.481150">
<ele>82.231506</ele>
<time>2010-07-17T08:08:01Z</time>
<desc>lat.=55.872272, lon.=26.481150, Alt.=82.231506m. Speed=21.672001m/h.</desc>
<speed>6.020000</speed>
</trkpt>
<trkpt lat="55.872223" lon="26.481075">
<ele>82.174866</ele>
<time>2010-07-17T08:08:02Z</time>
<desc>lat.=55.872223, lon.=26.481075, Alt.=82.174866m. Speed=23.112000m/h.</desc>
<speed>6.420000</speed>
</trkpt>
<trkpt lat="55.872177" lon="26.481005">
<ele>82.071350</ele>
<time>2010-07-17T08:08:03Z</time>
<desc>lat.=55.872177, lon.=26.481005, Alt.=82.071350m. Speed=24.336000m/h.</desc>
<speed>6.760000</speed>
</trkpt>
<trkpt lat="55.872128" lon="26.480930">
<ele>81.938538</ele>
<time>2010-07-17T08:08:04Z</time>
<desc>lat.=55.872128, lon.=26.480930, Alt.=81.938538m. Speed=23.940001m/h.</desc>
<speed>6.650000</speed>
</trkpt>
<trkpt lat="55.872078" lon="26.480854">
<ele>81.614319</ele>
<time>2010-07-17T08:08:05Z</time>
<desc>lat.=55.872078, lon.=26.480854, Alt.=81.614319m. Speed=26.532000m/h.</desc>
<speed>7.370000</speed>
</trkpt>
<trkpt lat="55.872025" lon="26.480785">
<ele>81.432678</ele>
<time>2010-07-17T08:08:06Z</time>
<desc>lat.=55.872025, lon.=26.480785, Alt.=81.432678m. Speed=25.452000m/h.</desc>
<speed>7.070000</speed>
</trkpt>
<trkpt lat="55.871971" lon="26.480721">
<ele>81.340881</ele>
<time>2010-07-17T08:08:07Z</time>
<desc>lat.=55.871971, lon.=26.480721, Alt.=81.340881m. Speed=24.624001m/h.</desc>
<speed>6.840000</speed>
</trkpt>
<trkpt lat="55.871914" lon="26.480652">
<ele>81.252991</ele>
<time>2010-07-17T08:08:08Z</time>
<desc>lat.=55.871914, lon.=26.480652, Alt.=81.252991m. Speed=25.884001m/h.</desc>
<speed>7.190000</speed>
</trkpt>
<trkpt lat="55.871864" lon="26.480587">
<ele>81.221741</ele>
<time>2010-07-17T08:08:09Z</time>
<desc>lat.=55.871864, lon.=26.480587, Alt.=81.221741m. Speed=25.488001m/h.</desc>
<speed>7.080000</speed>
</trkpt>
<trkpt lat="55.871815" lon="26.480518">
<ele>81.706116</ele>
<time>2010-07-17T08:08:10Z</time>
<desc>lat.=55.871815, lon.=26.480518, Alt.=81.706116m. Speed=25.379999m/h.</desc>
<speed>7.050000</speed>
</trkpt>
<trkpt lat="55.871765" lon="26.480434">
<ele>81.633850</ele>
<time>2010-07-17T08:08:11Z</time>
<desc>lat.=55.871765, lon.=26.480434, Alt.=81.633850m. Speed=25.667999m/h.</desc>
<speed>7.130000</speed>
</trkpt>
<trkpt lat="55.871712" lon="26.480356">
<ele>81.680725</ele>
<time>2010-07-17T08:08:12Z</time>
<desc>lat.=55.871712, lon.=26.480356, Alt.=81.680725m. Speed=25.848000m/h.</desc>
<speed>7.180000</speed>
</trkpt>
<trkpt lat="55.871662" lon="26.480284">
<ele>81.870178</ele>
<time>2010-07-17T08:08:13Z</time>
<desc>lat.=55.871662, lon.=26.480284, Alt.=81.870178m. Speed=25.236000m/h.</desc>
<speed>7.010000</speed>
</trkpt>
<trkpt lat="55.871616" lon="26.480217">
<ele>82.471741</ele>
<time>2010-07-17T08:08:14Z</time>
<desc>lat.=55.871616, lon.=26.480217, Alt.=82.471741m. Speed=24.660000m/h.</desc>
<speed>6.850000</speed>
</trkpt>
<trkpt lat="55.871559" lon="26.480150">
<ele>82.206116</ele>
<time>2010-07-17T08:08:15Z</time>
<desc>lat.=55.871559, lon.=26.480150, Alt.=82.206116m. Speed=24.444000m/h.</desc>
<speed>6.790000</speed>
</trkpt>
<trkpt lat="55.871517" lon="26.480095">
<ele>81.786194</ele>
<time>2010-07-17T08:08:16Z</time>
<desc>lat.=55.871517, lon.=26.480095, Alt.=81.786194m. Speed=24.336000m/h.</desc>
<speed>6.760000</speed>
</trkpt>
<trkpt lat="55.871468" lon="26.480032">
<ele>81.522522</ele>
<time>2010-07-17T08:08:17Z</time>
<desc>lat.=55.871468, lon.=26.480032, Alt.=81.522522m. Speed=23.652000m/h.</desc>
<speed>6.570000</speed>
</trkpt>
<trkpt lat="55.871422" lon="26.479958">
<ele>81.723694</ele>
<time>2010-07-17T08:08:18Z</time>
<desc>lat.=55.871422, lon.=26.479958, Alt.=81.723694m. Speed=23.364000m/h.</desc>
<speed>6.490000</speed>
</trkpt>
<trkpt lat="55.871376" lon="26.479904">
<ele>81.616272</ele>
<time>2010-07-17T08:08:19Z</time>
<desc>lat.=55.871376, lon.=26.479904, Alt.=81.616272m. Speed=24.228001m/h.</desc>
<speed>6.730000</speed>
</trkpt>
<trkpt lat="55.871326" lon="26.479839">
<ele>81.696350</ele>
<time>2010-07-17T08:08:20Z</time>
<desc>lat.=55.871326, lon.=26.479839, Alt.=81.696350m. Speed=22.931999m/h.</desc>
<speed>6.370000</speed>
</trkpt>
<trkpt lat="55.871281" lon="26.479782">
<ele>81.743225</ele>
<time>2010-07-17T08:08:21Z</time>
<desc>lat.=55.871281, lon.=26.479782, Alt.=81.743225m. Speed=22.284000m/h.</desc>
<speed>6.190000</speed>
</trkpt>
<trkpt lat="55.871227" lon="26.479717">
<ele>81.538147</ele>
<time>2010-07-17T08:08:22Z</time>
<desc>lat.=55.871227, lon.=26.479717, Alt.=81.538147m. Speed=25.524000m/h.</desc>
<speed>7.090000</speed>
</trkpt>
<trkpt lat="55.871166" lon="26.479649">
<ele>81.276428</ele>
<time>2010-07-17T08:08:23Z</time>
<desc>lat.=55.871166, lon.=26.479649, Alt.=81.276428m. Speed=24.516001m/h.</desc>
<speed>6.810000</speed>
</trkpt>
<trkpt lat="55.871113" lon="26.479589">
<ele>81.083069</ele>
<time>2010-07-17T08:08:24Z</time>
<desc>lat.=55.871113, lon.=26.479589, Alt.=81.083069m. Speed=23.903999m/h.</desc>
<speed>6.640000</speed>
</trkpt>
<trkpt lat="55.871056" lon="26.479509">
<ele>80.618225</ele>
<time>2010-07-17T08:08:25Z</time>
<desc>lat.=55.871056, lon.=26.479509, Alt.=80.618225m. Speed=24.228001m/h.</desc>
<speed>6.730000</speed>
</trkpt>
<trkpt lat="55.870998" lon="26.479439">
<ele>80.348694</ele>
<time>2010-07-17T08:08:26Z</time>
<desc>lat.=55.870998, lon.=26.479439, Alt.=80.348694m. Speed=23.292000m/h.</desc>
<speed>6.470000</speed>
</trkpt>
<trkpt lat="55.870941" lon="26.479364">
<ele>80.237366</ele>
<time>2010-07-17T08:08:27Z</time>
<desc>lat.=55.870941, lon.=26.479364, Alt.=80.237366m. Speed=23.688000m/h.</desc>
<speed>6.580000</speed>
</trkpt>
<trkpt lat="55.870895" lon="26.479298">
<ele>80.295959</ele>
<time>2010-07-17T08:08:28Z</time>
<desc>lat.=55.870895, lon.=26.479298, Alt.=80.295959m. Speed=23.327999m/h.</desc>
<speed>6.480000</speed>
</trkpt>
<trkpt lat="55.870846" lon="26.479233">
<ele>80.276428</ele>
<time>2010-07-17T08:08:29Z</time>
<desc>lat.=55.870846, lon.=26.479233, Alt.=80.276428m. Speed=22.968000m/h.</desc>
<speed>6.380000</speed>
</trkpt>
<trkpt lat="55.870800" lon="26.479162">
<ele>80.210022</ele>
<time>2010-07-17T08:08:30Z</time>
<desc>lat.=55.870800, lon.=26.479162, Alt.=80.210022m. Speed=23.148001m/h.</desc>
<speed>6.430000</speed>
</trkpt>
<trkpt lat="55.870754" lon="26.479103">
<ele>80.116272</ele>
<time>2010-07-17T08:08:31Z</time>
<desc>lat.=55.870754, lon.=26.479103, Alt.=80.116272m. Speed=21.996000m/h.</desc>
<speed>6.110000</speed>
</trkpt>
<trkpt lat="55.870705" lon="26.479048">
<ele>80.051819</ele>
<time>2010-07-17T08:08:32Z</time>
<desc>lat.=55.870705, lon.=26.479048, Alt.=80.051819m. Speed=22.032000m/h.</desc>
<speed>6.120000</speed>
</trkpt>
<trkpt lat="55.870655" lon="26.478983">
<ele>80.044006</ele>
<time>2010-07-17T08:08:33Z</time>
<desc>lat.=55.870655, lon.=26.478983, Alt.=80.044006m. Speed=23.796000m/h.</desc>
<speed>6.610000</speed>
</trkpt>
<trkpt lat="55.870602" lon="26.478914">
<ele>79.930725</ele>
<time>2010-07-17T08:08:34Z</time>
<desc>lat.=55.870602, lon.=26.478914, Alt.=79.930725m. Speed=23.688000m/h.</desc>
<speed>6.580000</speed>
</trkpt>
<trkpt lat="55.870552" lon="26.478846">
<ele>79.833069</ele>
<time>2010-07-17T08:08:35Z</time>
<desc>lat.=55.870552, lon.=26.478846, Alt.=79.833069m. Speed=22.572001m/h.</desc>
<speed>6.270000</speed>
</trkpt>
<trkpt lat="55.870495" lon="26.478779">
<ele>79.782288</ele>
<time>2010-07-17T08:08:36Z</time>
<desc>lat.=55.870495, lon.=26.478779, Alt.=79.782288m. Speed=21.600000m/h.</desc>
<speed>6.000000</speed>
</trkpt>
<trkpt lat="55.870445" lon="26.478722">
<ele>79.698303</ele>
<time>2010-07-17T08:08:37Z</time>
<desc>lat.=55.870445, lon.=26.478722, Alt.=79.698303m. Speed=22.032000m/h.</desc>
<speed>6.120000</speed>
</trkpt>
<trkpt lat="55.870403" lon="26.478653">
<ele>79.838928</ele>
<time>2010-07-17T08:08:38Z</time>
<desc>lat.=55.870403, lon.=26.478653, Alt.=79.838928m. Speed=21.600000m/h.</desc>
<speed>6.000000</speed>
</trkpt>
<trkpt lat="55.870365" lon="26.478596">
<ele>79.794006</ele>
<time>2010-07-17T08:08:39Z</time>
<desc>lat.=55.870365, lon.=26.478596, Alt.=79.794006m. Speed=21.096001m/h.</desc>
<speed>5.860000</speed>
</trkpt>
<trkpt lat="55.870327" lon="26.478540">
<ele>79.700256</ele>
<time>2010-07-17T08:08:40Z</time>
<desc>lat.=55.870327, lon.=26.478540, Alt.=79.700256m. Speed=22.139999m/h.</desc>
<speed>6.150000</speed>
</trkpt>
<trkpt lat="55.870285" lon="26.478487">
<ele>79.653381</ele>
<time>2010-07-17T08:08:41Z</time>
<desc>lat.=55.870285, lon.=26.478487, Alt.=79.653381m. Speed=21.924000m/h.</desc>
<speed>6.090000</speed>
</trkpt>
<trkpt lat="55.870239" lon="26.478430">
<ele>79.331116</ele>
<time>2010-07-17T08:08:42Z</time>
<desc>lat.=55.870239, lon.=26.478430, Alt.=79.331116m. Speed=22.572001m/h.</desc>
<speed>6.270000</speed>
</trkpt>
<trkpt lat="55.870197" lon="26.478371">
<ele>79.403381</ele>
<time>2010-07-17T08:08:43Z</time>
<desc>lat.=55.870197, lon.=26.478371, Alt.=79.403381m. Speed=23.184000m/h.</desc>
<speed>6.440000</speed>
</trkpt>
<trkpt lat="55.870152" lon="26.478313">
<ele>79.317444</ele>
<time>2010-07-17T08:08:44Z</time>
<desc>lat.=55.870152, lon.=26.478313, Alt.=79.317444m. Speed=22.464001m/h.</desc>
<speed>6.240000</speed>
</trkpt>
<trkpt lat="55.870106" lon="26.478254">
<ele>79.176819</ele>
<time>2010-07-17T08:08:45Z</time>
<desc>lat.=55.870106, lon.=26.478254, Alt.=79.176819m. Speed=22.212000m/h.</desc>
<speed>6.170000</speed>
</trkpt>
<trkpt lat="55.870060" lon="26.478195">
<ele>79.178772</ele>
<time>2010-07-17T08:08:46Z</time>
<desc>lat.=55.870060, lon.=26.478195, Alt.=79.178772m. Speed=22.464001m/h.</desc>
<speed>6.240000</speed>
</trkpt>
<trkpt lat="55.870014" lon="26.478142">
<ele>79.200256</ele>
<time>2010-07-17T08:08:47Z</time>
<desc>lat.=55.870014, lon.=26.478142, Alt.=79.200256m. Speed=21.959999m/h.</desc>
<speed>6.100000</speed>
</trkpt>
<trkpt lat="55.869965" lon="26.478090">
<ele>79.413147</ele>
<time>2010-07-17T08:08:48Z</time>
<desc>lat.=55.869965, lon.=26.478090, Alt.=79.413147m. Speed=22.500000m/h.</desc>
<speed>6.250000</speed>
</trkpt>
<trkpt lat="55.869919" lon="26.478029">
<ele>79.672913</ele>
<time>2010-07-17T08:08:49Z</time>
<desc>lat.=55.869919, lon.=26.478029, Alt.=79.672913m. Speed=23.040001m/h.</desc>
<speed>6.400000</speed>
</trkpt>
<trkpt lat="55.869873" lon="26.477962">
<ele>80.124084</ele>
<time>2010-07-17T08:08:50Z</time>
<desc>lat.=55.869873, lon.=26.477962, Alt.=80.124084m. Speed=23.507999m/h.</desc>
<speed>6.530000</speed>
</trkpt>
<trkpt lat="55.869816" lon="26.477898">
<ele>80.516663</ele>
<time>2010-07-17T08:08:51Z</time>
<desc>lat.=55.869816, lon.=26.477898, Alt.=80.516663m. Speed=24.336000m/h.</desc>
<speed>6.760000</speed>
</trkpt>
<trkpt lat="55.869762" lon="26.477837">
<ele>80.821350</ele>
<time>2010-07-17T08:08:52Z</time>
<desc>lat.=55.869762, lon.=26.477837, Alt.=80.821350m. Speed=23.256001m/h.</desc>
<speed>6.460000</speed>
</trkpt>
<trkpt lat="55.869709" lon="26.477774">
<ele>81.022522</ele>
<time>2010-07-17T08:08:53Z</time>
<desc>lat.=55.869709, lon.=26.477774, Alt.=81.022522m. Speed=22.608000m/h.</desc>
<speed>6.280000</speed>
</trkpt>
<trkpt lat="55.869663" lon="26.477715">
<ele>81.409241</ele>
<time>2010-07-17T08:08:54Z</time>
<desc>lat.=55.869663, lon.=26.477715, Alt.=81.409241m. Speed=21.888000m/h.</desc>
<speed>6.080000</speed>
</trkpt>
<trkpt lat="55.869617" lon="26.477640">
<ele>81.583069</ele>
<time>2010-07-17T08:08:55Z</time>
<desc>lat.=55.869617, lon.=26.477640, Alt.=81.583069m. Speed=22.608000m/h.</desc>
<speed>6.280000</speed>
</trkpt>
<trkpt lat="55.869568" lon="26.477568">
<ele>81.559631</ele>
<time>2010-07-17T08:08:56Z</time>
<desc>lat.=55.869568, lon.=26.477568, Alt.=81.559631m. Speed=22.068001m/h.</desc>
<speed>6.130000</speed>
</trkpt>
<trkpt lat="55.869526" lon="26.477497">
<ele>81.752991</ele>
<time>2010-07-17T08:08:57Z</time>
<desc>lat.=55.869526, lon.=26.477497, Alt.=81.752991m. Speed=23.040001m/h.</desc>
<speed>6.400000</speed>
</trkpt>
<trkpt lat="55.869480" lon="26.477430">
<ele>81.913147</ele>
<time>2010-07-17T08:08:58Z</time>
<desc>lat.=55.869480, lon.=26.477430, Alt.=81.913147m. Speed=22.356001m/h.</desc>
<speed>6.210000</speed>
</trkpt>
<trkpt lat="55.869434" lon="26.477365">
<ele>81.995178</ele>
<time>2010-07-17T08:08:59Z</time>
<desc>lat.=55.869434, lon.=26.477365, Alt.=81.995178m. Speed=21.996000m/h.</desc>
<speed>6.110000</speed>
</trkpt>
<trkpt lat="55.869389" lon="26.477304">
<ele>82.159241</ele>
<time>2010-07-17T08:09:00Z</time>
<desc>lat.=55.869389, lon.=26.477304, Alt.=82.159241m. Speed=21.312000m/h.</desc>
<speed>5.920000</speed>
</trkpt>
<trkpt lat="55.869347" lon="26.477242">
<ele>82.549866</ele>
<time>2010-07-17T08:09:01Z</time>
<desc>lat.=55.869347, lon.=26.477242, Alt.=82.549866m. Speed=21.888000m/h.</desc>
<speed>6.080000</speed>
</trkpt>
<trkpt lat="55.869305" lon="26.477175">
<ele>82.659241</ele>
<time>2010-07-17T08:09:02Z</time>
<desc>lat.=55.869305, lon.=26.477175, Alt.=82.659241m. Speed=21.420000m/h.</desc>
<speed>5.950000</speed>
</trkpt>
<trkpt lat="55.869255" lon="26.477114">
<ele>82.544006</ele>
<time>2010-07-17T08:09:03Z</time>
<desc>lat.=55.869255, lon.=26.477114, Alt.=82.544006m. Speed=19.620001m/h.</desc>
<speed>5.450000</speed>
</trkpt>
<trkpt lat="55.869213" lon="26.477057">
<ele>82.784241</ele>
<time>2010-07-17T08:09:04Z</time>
<desc>lat.=55.869213, lon.=26.477057, Alt.=82.784241m. Speed=19.296000m/h.</desc>
<speed>5.360000</speed>
</trkpt>
<trkpt lat="55.869175" lon="26.477009">
<ele>82.780334</ele>
<time>2010-07-17T08:09:05Z</time>
<desc>lat.=55.869175, lon.=26.477009, Alt.=82.780334m. Speed=18.360001m/h.</desc>
<speed>5.100000</speed>
</trkpt>
<trkpt lat="55.869129" lon="26.476946">
<ele>82.868225</ele>
<time>2010-07-17T08:09:06Z</time>
<desc>lat.=55.869129, lon.=26.476946, Alt.=82.868225m. Speed=18.143999m/h.</desc>
<speed>5.040000</speed>
</trkpt>
<trkpt lat="55.869091" lon="26.476885">
<ele>83.126038</ele>
<time>2010-07-17T08:09:07Z</time>
<desc>lat.=55.869091, lon.=26.476885, Alt.=83.126038m. Speed=19.152000m/h.</desc>
<speed>5.320000</speed>
</trkpt>
<trkpt lat="55.869053" lon="26.476835">
<ele>83.272522</ele>
<time>2010-07-17T08:09:08Z</time>
<desc>lat.=55.869053, lon.=26.476835, Alt.=83.272522m. Speed=18.900000m/h.</desc>
<speed>5.250000</speed>
</trkpt>
<trkpt lat="55.869011" lon="26.476797">
<ele>83.649475</ele>
<time>2010-07-17T08:09:09Z</time>
<desc>lat.=55.869011, lon.=26.476797, Alt.=83.649475m. Speed=18.684000m/h.</desc>
<speed>5.190000</speed>
</trkpt>
<trkpt lat="55.868977" lon="26.476749">
<ele>83.840881</ele>
<time>2010-07-17T08:09:10Z</time>
<desc>lat.=55.868977, lon.=26.476749, Alt.=83.840881m. Speed=18.252001m/h.</desc>
<speed>5.070000</speed>
</trkpt>
<trkpt lat="55.868938" lon="26.476704">
<ele>84.042053</ele>
<time>2010-07-17T08:09:11Z</time>
<desc>lat.=55.868938, lon.=26.476704, Alt.=84.042053m. Speed=19.691999m/h.</desc>
<speed>5.470000</speed>
</trkpt>
<trkpt lat="55.868896" lon="26.476648">
<ele>84.096741</ele>
<time>2010-07-17T08:09:12Z</time>
<desc>lat.=55.868896, lon.=26.476648, Alt.=84.096741m. Speed=20.412001m/h.</desc>
<speed>5.670000</speed>
</trkpt>
<trkpt lat="55.868851" lon="26.476591">
<ele>84.133850</ele>
<time>2010-07-17T08:09:13Z</time>
<desc>lat.=55.868851, lon.=26.476591, Alt.=84.133850m. Speed=20.556000m/h.</desc>
<speed>5.710000</speed>
</trkpt>
<trkpt lat="55.868805" lon="26.476528">
<ele>84.335022</ele>
<time>2010-07-17T08:09:14Z</time>
<desc>lat.=55.868805, lon.=26.476528, Alt.=84.335022m. Speed=22.572001m/h.</desc>
<speed>6.270000</speed>
</trkpt>
<trkpt lat="55.868759" lon="26.476463">
<ele>85.268616</ele>
<time>2010-07-17T08:09:15Z</time>
<desc>lat.=55.868759, lon.=26.476463, Alt.=85.268616m. Speed=23.472000m/h.</desc>
<speed>6.520000</speed>
</trkpt>
<trkpt lat="55.868713" lon="26.476398">
<ele>85.680725</ele>
<time>2010-07-17T08:09:16Z</time>
<desc>lat.=55.868713, lon.=26.476398, Alt.=85.680725m. Speed=22.572001m/h.</desc>
<speed>6.270000</speed>
</trkpt>
<trkpt lat="55.868668" lon="26.476337">
<ele>85.723694</ele>
<time>2010-07-17T08:09:17Z</time>
<desc>lat.=55.868668, lon.=26.476337, Alt.=85.723694m. Speed=21.959999m/h.</desc>
<speed>6.100000</speed>
</trkpt>
<trkpt lat="55.868629" lon="26.476274">
<ele>85.920959</ele>
<time>2010-07-17T08:09:18Z</time>
<desc>lat.=55.868629, lon.=26.476274, Alt.=85.920959m. Speed=22.427999m/h.</desc>
<speed>6.230000</speed>
</trkpt>
<trkpt lat="55.868587" lon="26.476221">
<ele>86.258850</ele>
<time>2010-07-17T08:09:19Z</time>
<desc>lat.=55.868587, lon.=26.476221, Alt.=86.258850m. Speed=20.771999m/h.</desc>
<speed>5.770000</speed>
</trkpt>
<trkpt lat="55.868542" lon="26.476160">
<ele>86.577209</ele>
<time>2010-07-17T08:09:20Z</time>
<desc>lat.=55.868542, lon.=26.476160, Alt.=86.577209m. Speed=21.672001m/h.</desc>
<speed>6.020000</speed>
</trkpt>
<trkpt lat="55.868500" lon="26.476109">
<ele>86.895569</ele>
<time>2010-07-17T08:09:21Z</time>
<desc>lat.=55.868500, lon.=26.476109, Alt.=86.895569m. Speed=20.952000m/h.</desc>
<speed>5.820000</speed>
</trkpt>
<trkpt lat="55.868454" lon="26.476055">
<ele>87.301819</ele>
<time>2010-07-17T08:09:22Z</time>
<desc>lat.=55.868454, lon.=26.476055, Alt.=87.301819m. Speed=21.996000m/h.</desc>
<speed>6.110000</speed>
</trkpt>
<trkpt lat="55.868412" lon="26.476002">
<ele>87.397522</ele>
<time>2010-07-17T08:09:23Z</time>
<desc>lat.=55.868412, lon.=26.476002, Alt.=87.397522m. Speed=19.511999m/h.</desc>
<speed>5.420000</speed>
</trkpt>
<trkpt lat="55.868374" lon="26.475939">
<ele>87.799866</ele>
<time>2010-07-17T08:09:24Z</time>
<desc>lat.=55.868374, lon.=26.475939, Alt.=87.799866m. Speed=17.351999m/h.</desc>
<speed>4.820000</speed>
</trkpt>
<trkpt lat="55.868336" lon="26.475887">
<ele>88.008850</ele>
<time>2010-07-17T08:09:25Z</time>
<desc>lat.=55.868336, lon.=26.475887, Alt.=88.008850m. Speed=18.072001m/h.</desc>
<speed>5.020000</speed>
</trkpt>
<trkpt lat="55.868298" lon="26.475838">
<ele>88.356506</ele>
<time>2010-07-17T08:09:26Z</time>
<desc>lat.=55.868298, lon.=26.475838, Alt.=88.356506m. Speed=18.576000m/h.</desc>
<speed>5.160000</speed>
</trkpt>
<trkpt lat="55.868248" lon="26.475780">
<ele>88.295959</ele>
<time>2010-07-17T08:09:27Z</time>
<desc>lat.=55.868248, lon.=26.475780, Alt.=88.295959m. Speed=20.087999m/h.</desc>
<speed>5.580000</speed>
</trkpt>
<trkpt lat="55.868210" lon="26.475723">
<ele>88.473694</ele>
<time>2010-07-17T08:09:28Z</time>
<desc>lat.=55.868210, lon.=26.475723, Alt.=88.473694m. Speed=20.879999m/h.</desc>
<speed>5.800000</speed>
</trkpt>
<trkpt lat="55.868172" lon="26.475664">
<ele>88.667053</ele>
<time>2010-07-17T08:09:29Z</time>
<desc>lat.=55.868172, lon.=26.475664, Alt.=88.667053m. Speed=20.700001m/h.</desc>
<speed>5.750000</speed>
</trkpt>
<trkpt lat="55.868137" lon="26.475616">
<ele>88.848694</ele>
<time>2010-07-17T08:09:30Z</time>
<desc>lat.=55.868137, lon.=26.475616, Alt.=88.848694m. Speed=20.916000m/h.</desc>
<speed>5.810000</speed>
</trkpt>
<trkpt lat="55.868092" lon="26.475555">
<ele>88.723694</ele>
<time>2010-07-17T08:09:31Z</time>
<desc>lat.=55.868092, lon.=26.475555, Alt.=88.723694m. Speed=22.500000m/h.</desc>
<speed>6.250000</speed>
</trkpt>
<trkpt lat="55.868046" lon="26.475492">
<ele>88.702209</ele>
<time>2010-07-17T08:09:32Z</time>
<desc>lat.=55.868046, lon.=26.475492, Alt.=88.702209m. Speed=22.931999m/h.</desc>
<speed>6.370000</speed>
</trkpt>
<trkpt lat="55.868004" lon="26.475412">
<ele>88.481506</ele>
<time>2010-07-17T08:09:33Z</time>
<desc>lat.=55.868004, lon.=26.475412, Alt.=88.481506m. Speed=22.931999m/h.</desc>
<speed>6.370000</speed>
</trkpt>
<trkpt lat="55.867962" lon="26.475346">
<ele>88.405334</ele>
<time>2010-07-17T08:09:34Z</time>
<desc>lat.=55.867962, lon.=26.475346, Alt.=88.405334m. Speed=22.643999m/h.</desc>
<speed>6.290000</speed>
</trkpt>
<trkpt lat="55.867912" lon="26.475275">
<ele>88.299866</ele>
<time>2010-07-17T08:09:35Z</time>
<desc>lat.=55.867912, lon.=26.475275, Alt.=88.299866m. Speed=24.624001m/h.</desc>
<speed>6.840000</speed>
</trkpt>
<trkpt lat="55.867847" lon="26.475210">
<ele>88.104553</ele>
<time>2010-07-17T08:09:36Z</time>
<desc>lat.=55.867847, lon.=26.475210, Alt.=88.104553m. Speed=24.011999m/h.</desc>
<speed>6.670000</speed>
</trkpt>
<trkpt lat="55.867794" lon="26.475149">
<ele>88.311584</ele>
<time>2010-07-17T08:09:37Z</time>
<desc>lat.=55.867794, lon.=26.475149, Alt.=88.311584m. Speed=22.931999m/h.</desc>
<speed>6.370000</speed>
</trkpt>
<trkpt lat="55.867744" lon="26.475092">
<ele>88.477600</ele>
<time>2010-07-17T08:09:38Z</time>
<desc>lat.=55.867744, lon.=26.475092, Alt.=88.477600m. Speed=23.184000m/h.</desc>
<speed>6.440000</speed>
</trkpt>
<trkpt lat="55.867702" lon="26.475033">
<ele>88.473694</ele>
<time>2010-07-17T08:09:39Z</time>
<desc>lat.=55.867702, lon.=26.475033, Alt.=88.473694m. Speed=22.068001m/h.</desc>
<speed>6.130000</speed>
</trkpt>
<trkpt lat="55.867657" lon="26.474974">
<ele>88.534241</ele>
<time>2010-07-17T08:09:40Z</time>
<desc>lat.=55.867657, lon.=26.474974, Alt.=88.534241m. Speed=22.464001m/h.</desc>
<speed>6.240000</speed>
</trkpt>
<trkpt lat="55.867611" lon="26.474911">
<ele>88.626038</ele>
<time>2010-07-17T08:09:41Z</time>
<desc>lat.=55.867611, lon.=26.474911, Alt.=88.626038m. Speed=21.851999m/h.</desc>
<speed>6.070000</speed>
</trkpt>
<trkpt lat="55.867565" lon="26.474854">
<ele>88.649475</ele>
<time>2010-07-17T08:09:42Z</time>
<desc>lat.=55.867565, lon.=26.474854, Alt.=88.649475m. Speed=23.219999m/h.</desc>
<speed>6.450000</speed>
</trkpt>
<trkpt lat="55.867519" lon="26.474796">
<ele>88.751038</ele>
<time>2010-07-17T08:09:43Z</time>
<desc>lat.=55.867519, lon.=26.474796, Alt.=88.751038m. Speed=22.860001m/h.</desc>
<speed>6.350000</speed>
</trkpt>
<trkpt lat="55.867474" lon="26.474718">
<ele>89.295959</ele>
<time>2010-07-17T08:09:44Z</time>
<desc>lat.=55.867474, lon.=26.474718, Alt.=89.295959m. Speed=23.903999m/h.</desc>
<speed>6.640000</speed>
</trkpt>
<trkpt lat="55.867416" lon="26.474646">
<ele>89.325256</ele>
<time>2010-07-17T08:09:45Z</time>
<desc>lat.=55.867416, lon.=26.474646, Alt.=89.325256m. Speed=25.308001m/h.</desc>
<speed>7.030000</speed>
</trkpt>
<trkpt lat="55.867355" lon="26.474577">
<ele>89.272522</ele>
<time>2010-07-17T08:09:46Z</time>
<desc>lat.=55.867355, lon.=26.474577, Alt.=89.272522m. Speed=26.063999m/h.</desc>
<speed>7.240000</speed>
</trkpt>
<trkpt lat="55.867298" lon="26.474508">
<ele>89.204163</ele>
<time>2010-07-17T08:09:47Z</time>
<desc>lat.=55.867298, lon.=26.474508, Alt.=89.204163m. Speed=24.120001m/h.</desc>
<speed>6.700000</speed>
</trkpt>
<trkpt lat="55.867249" lon="26.474443">
<ele>89.176819</ele>
<time>2010-07-17T08:09:48Z</time>
<desc>lat.=55.867249, lon.=26.474443, Alt.=89.176819m. Speed=23.076000m/h.</desc>
<speed>6.410000</speed>
</trkpt>
<trkpt lat="55.867203" lon="26.474373">
<ele>89.172913</ele>
<time>2010-07-17T08:09:49Z</time>
<desc>lat.=55.867203, lon.=26.474373, Alt.=89.172913m. Speed=21.996000m/h.</desc>
<speed>6.110000</speed>
</trkpt>
<trkpt lat="55.867165" lon="26.474312">
<ele>89.143616</ele>
<time>2010-07-17T08:09:50Z</time>
<desc>lat.=55.867165, lon.=26.474312, Alt.=89.143616m. Speed=20.916000m/h.</desc>
<speed>5.810000</speed>
</trkpt>
<trkpt lat="55.867119" lon="26.474255">
<ele>89.026428</ele>
<time>2010-07-17T08:09:51Z</time>
<desc>lat.=55.867119, lon.=26.474255, Alt.=89.026428m. Speed=20.160000m/h.</desc>
<speed>5.600000</speed>
</trkpt>
<trkpt lat="55.867077" lon="26.474194">
<ele>89.085022</ele>
<time>2010-07-17T08:09:52Z</time>
<desc>lat.=55.867077, lon.=26.474194, Alt.=89.085022m. Speed=18.936001m/h.</desc>
<speed>5.260000</speed>
</trkpt>
<trkpt lat="55.867035" lon="26.474131">
<ele>89.051819</ele>
<time>2010-07-17T08:09:53Z</time>
<desc>lat.=55.867035, lon.=26.474131, Alt.=89.051819m. Speed=19.007999m/h.</desc>
<speed>5.280000</speed>
</trkpt>
<trkpt lat="55.866982" lon="26.474049">
<ele>89.165100</ele>
<time>2010-07-17T08:09:54Z</time>
<desc>lat.=55.866982, lon.=26.474049, Alt.=89.165100m. Speed=20.556000m/h.</desc>
<speed>5.710000</speed>
</trkpt>
<trkpt lat="55.866936" lon="26.473978">
<ele>89.452209</ele>
<time>2010-07-17T08:09:55Z</time>
<desc>lat.=55.866936, lon.=26.473978, Alt.=89.452209m. Speed=21.420000m/h.</desc>
<speed>5.950000</speed>
</trkpt>
<trkpt lat="55.866894" lon="26.473923">
<ele>89.629944</ele>
<time>2010-07-17T08:09:56Z</time>
<desc>lat.=55.866894, lon.=26.473923, Alt.=89.629944m. Speed=20.304001m/h.</desc>
<speed>5.640000</speed>
</trkpt>
<trkpt lat="55.866852" lon="26.473860">
<ele>89.731506</ele>
<time>2010-07-17T08:09:57Z</time>
<desc>lat.=55.866852, lon.=26.473860, Alt.=89.731506m. Speed=20.483999m/h.</desc>
<speed>5.690000</speed>
</trkpt>
<trkpt lat="55.866787" lon="26.473789">
<ele>90.262756</ele>
<time>2010-07-17T08:09:58Z</time>
<desc>lat.=55.866787, lon.=26.473789, Alt.=90.262756m. Speed=21.384001m/h.</desc>
<speed>5.940000</speed>
</trkpt>
<trkpt lat="55.866730" lon="26.473713">
<ele>90.463928</ele>
<time>2010-07-17T08:09:59Z</time>
<desc>lat.=55.866730, lon.=26.473713, Alt.=90.463928m. Speed=21.240000m/h.</desc>
<speed>5.900000</speed>
</trkpt>
<trkpt lat="55.866684" lon="26.473654">
<ele>90.520569</ele>
<time>2010-07-17T08:10:00Z</time>
<desc>lat.=55.866684, lon.=26.473654, Alt.=90.520569m. Speed=20.375999m/h.</desc>
<speed>5.660000</speed>
</trkpt>
<trkpt lat="55.866634" lon="26.473581">
<ele>90.555725</ele>
<time>2010-07-17T08:10:01Z</time>
<desc>lat.=55.866634, lon.=26.473581, Alt.=90.555725m. Speed=20.160000m/h.</desc>
<speed>5.600000</speed>
</trkpt>
<trkpt lat="55.866592" lon="26.473524">
<ele>90.649475</ele>
<time>2010-07-17T08:10:02Z</time>
<desc>lat.=55.866592, lon.=26.473524, Alt.=90.649475m. Speed=18.648001m/h.</desc>
<speed>5.180000</speed>
</trkpt>
<trkpt lat="55.866554" lon="26.473476">
<ele>90.727600</ele>
<time>2010-07-17T08:10:03Z</time>
<desc>lat.=55.866554, lon.=26.473476, Alt.=90.727600m. Speed=18.684000m/h.</desc>
<speed>5.190000</speed>
</trkpt>
<trkpt lat="55.866512" lon="26.473429">
<ele>90.483459</ele>
<time>2010-07-17T08:10:04Z</time>
<desc>lat.=55.866512, lon.=26.473429, Alt.=90.483459m. Speed=20.087999m/h.</desc>
<speed>5.580000</speed>
</trkpt>
<trkpt lat="55.866474" lon="26.473377">
<ele>90.169006</ele>
<time>2010-07-17T08:10:05Z</time>
<desc>lat.=55.866474, lon.=26.473377, Alt.=90.169006m. Speed=18.576000m/h.</desc>
<speed>5.160000</speed>
</trkpt>
<trkpt lat="55.866432" lon="26.473312">
<ele>90.044006</ele>
<time>2010-07-17T08:10:06Z</time>
<desc>lat.=55.866432, lon.=26.473312, Alt.=90.044006m. Speed=19.440001m/h.</desc>
<speed>5.400000</speed>
</trkpt>
<trkpt lat="55.866386" lon="26.473257">
<ele>89.991272</ele>
<time>2010-07-17T08:10:07Z</time>
<desc>lat.=55.866386, lon.=26.473257, Alt.=89.991272m. Speed=19.403999m/h.</desc>
<speed>5.390000</speed>
</trkpt>
<trkpt lat="55.866352" lon="26.473198">
<ele>89.676819</ele>
<time>2010-07-17T08:10:08Z</time>
<desc>lat.=55.866352, lon.=26.473198, Alt.=89.676819m. Speed=19.368000m/h.</desc>
<speed>5.380000</speed>
</trkpt>
<trkpt lat="55.866314" lon="26.473141">
<ele>89.495178</ele>
<time>2010-07-17T08:10:09Z</time>
<desc>lat.=55.866314, lon.=26.473141, Alt.=89.495178m. Speed=20.195999m/h.</desc>
<speed>5.610000</speed>
</trkpt>
<trkpt lat="55.866276" lon="26.473074">
<ele>89.592834</ele>
<time>2010-07-17T08:10:10Z</time>
<desc>lat.=55.866276, lon.=26.473074, Alt.=89.592834m. Speed=21.132000m/h.</desc>
<speed>5.870000</speed>
</trkpt>
<trkpt lat="55.866234" lon="26.473011">
<ele>89.682678</ele>
<time>2010-07-17T08:10:11Z</time>
<desc>lat.=55.866234, lon.=26.473011, Alt.=89.682678m. Speed=21.204000m/h.</desc>
<speed>5.890000</speed>
</trkpt>
<trkpt lat="55.866188" lon="26.472960">
<ele>90.051819</ele>
<time>2010-07-17T08:10:12Z</time>
<desc>lat.=55.866188, lon.=26.472960, Alt.=90.051819m. Speed=21.204000m/h.</desc>
<speed>5.890000</speed>
</trkpt>
<trkpt lat="55.866146" lon="26.472904">
<ele>90.219788</ele>
<time>2010-07-17T08:10:13Z</time>
<desc>lat.=55.866146, lon.=26.472904, Alt.=90.219788m. Speed=22.139999m/h.</desc>
<speed>6.150000</speed>
</trkpt>
<trkpt lat="55.866096" lon="26.472853">
<ele>90.290100</ele>
<time>2010-07-17T08:10:14Z</time>
<desc>lat.=55.866096, lon.=26.472853, Alt.=90.290100m. Speed=22.572001m/h.</desc>
<speed>6.270000</speed>
</trkpt>
<trkpt lat="55.866055" lon="26.472799">
<ele>90.278381</ele>
<time>2010-07-17T08:10:15Z</time>
<desc>lat.=55.866055, lon.=26.472799, Alt.=90.278381m. Speed=21.708000m/h.</desc>
<speed>6.030000</speed>
</trkpt>
<trkpt lat="55.866013" lon="26.472750">
<ele>90.997131</ele>
<time>2010-07-17T08:10:16Z</time>
<desc>lat.=55.866013, lon.=26.472750, Alt.=90.997131m. Speed=20.952000m/h.</desc>
<speed>5.820000</speed>
</trkpt>
<trkpt lat="55.865974" lon="26.472700">
<ele>92.532288</ele>
<time>2010-07-17T08:10:17Z</time>
<desc>lat.=55.865974, lon.=26.472700, Alt.=92.532288m. Speed=18.864000m/h.</desc>
<speed>5.240000</speed>
</trkpt>
<trkpt lat="55.865940" lon="26.472658">
<ele>92.919006</ele>
<time>2010-07-17T08:10:18Z</time>
<desc>lat.=55.865940, lon.=26.472658, Alt.=92.919006m. Speed=15.840000m/h.</desc>
<speed>4.400000</speed>
</trkpt>
<trkpt lat="55.865913" lon="26.472622">
<ele>93.610413</ele>
<time>2010-07-17T08:10:19Z</time>
<desc>lat.=55.865913, lon.=26.472622, Alt.=93.610413m. Speed=11.808000m/h.</desc>
<speed>3.280000</speed>
</trkpt>
<trkpt lat="55.865894" lon="26.472595">
<ele>93.815491</ele>
<time>2010-07-17T08:10:20Z</time>
<desc>lat.=55.865894, lon.=26.472595, Alt.=93.815491m. Speed=10.332000m/h.</desc>
<speed>2.870000</speed>
</trkpt>
<trkpt lat="55.865875" lon="26.472569">
<ele>93.971741</ele>
<time>2010-07-17T08:10:21Z</time>
<desc>lat.=55.865875, lon.=26.472569, Alt.=93.971741m. Speed=8.640000m/h.</desc>
<speed>2.400000</speed>
</trkpt>
<trkpt lat="55.865860" lon="26.472542">
<ele>95.419006</ele>
<time>2010-07-17T08:10:22Z</time>
<desc>lat.=55.865860, lon.=26.472542, Alt.=95.419006m. Speed=11.952000m/h.</desc>
<speed>3.320000</speed>
</trkpt>
<trkpt lat="55.865833" lon="26.472509">
<ele>94.946350</ele>
<time>2010-07-17T08:10:23Z</time>
<desc>lat.=55.865833, lon.=26.472509, Alt.=94.946350m. Speed=14.004000m/h.</desc>
<speed>3.890000</speed>
</trkpt>
<trkpt lat="55.865807" lon="26.472473">
<ele>94.612366</ele>
<time>2010-07-17T08:10:24Z</time>
<desc>lat.=55.865807, lon.=26.472473, Alt.=94.612366m. Speed=15.300000m/h.</desc>
<speed>4.250000</speed>
</trkpt>
<trkpt lat="55.865772" lon="26.472433">
<ele>94.745178</ele>
<time>2010-07-17T08:10:25Z</time>
<desc>lat.=55.865772, lon.=26.472433, Alt.=94.745178m. Speed=16.164000m/h.</desc>
<speed>4.490000</speed>
</trkpt>
<trkpt lat="55.865738" lon="26.472389">
<ele>94.708069</ele>
<time>2010-07-17T08:10:26Z</time>
<desc>lat.=55.865738, lon.=26.472389, Alt.=94.708069m. Speed=17.424000m/h.</desc>
<speed>4.840000</speed>
</trkpt>
<trkpt lat="55.865704" lon="26.472338">
<ele>94.686584</ele>
<time>2010-07-17T08:10:27Z</time>
<desc>lat.=55.865704, lon.=26.472338, Alt.=94.686584m. Speed=17.388000m/h.</desc>
<speed>4.830000</speed>
</trkpt>
<trkpt lat="55.865665" lon="26.472290">
<ele>94.612366</ele>
<time>2010-07-17T08:10:28Z</time>
<desc>lat.=55.865665, lon.=26.472290, Alt.=94.612366m. Speed=18.288000m/h.</desc>
<speed>5.080000</speed>
</trkpt>
<trkpt lat="55.865631" lon="26.472240">
<ele>94.624084</ele>
<time>2010-07-17T08:10:29Z</time>
<desc>lat.=55.865631, lon.=26.472240, Alt.=94.624084m. Speed=16.416000m/h.</desc>
<speed>4.560000</speed>
</trkpt>
<trkpt lat="55.865597" lon="26.472183">
<ele>94.479553</ele>
<time>2010-07-17T08:10:30Z</time>
<desc>lat.=55.865597, lon.=26.472183, Alt.=94.479553m. Speed=18.468000m/h.</desc>
<speed>5.130000</speed>
</trkpt>
<trkpt lat="55.865559" lon="26.472122">
<ele>94.315491</ele>
<time>2010-07-17T08:10:31Z</time>
<desc>lat.=55.865559, lon.=26.472122, Alt.=94.315491m. Speed=20.483999m/h.</desc>
<speed>5.690000</speed>
</trkpt>
<trkpt lat="55.865520" lon="26.472071">
<ele>94.272522</ele>
<time>2010-07-17T08:10:32Z</time>
<desc>lat.=55.865520, lon.=26.472071, Alt.=94.272522m. Speed=18.719999m/h.</desc>
<speed>5.200000</speed>
</trkpt>
<trkpt lat="55.865479" lon="26.472021">
<ele>94.303772</ele>
<time>2010-07-17T08:10:33Z</time>
<desc>lat.=55.865479, lon.=26.472021, Alt.=94.303772m. Speed=20.483999m/h.</desc>
<speed>5.690000</speed>
</trkpt>
<trkpt lat="55.865437" lon="26.471973">
<ele>94.210022</ele>
<time>2010-07-17T08:10:34Z</time>
<desc>lat.=55.865437, lon.=26.471973, Alt.=94.210022m. Speed=20.952000m/h.</desc>
<speed>5.820000</speed>
</trkpt>
<trkpt lat="55.865391" lon="26.471916">
<ele>94.002991</ele>
<time>2010-07-17T08:10:35Z</time>
<desc>lat.=55.865391, lon.=26.471916, Alt.=94.002991m. Speed=21.636000m/h.</desc>
<speed>6.010000</speed>
</trkpt>
<trkpt lat="55.865345" lon="26.471855">
<ele>93.811584</ele>
<time>2010-07-17T08:10:36Z</time>
<desc>lat.=55.865345, lon.=26.471855, Alt.=93.811584m. Speed=22.860001m/h.</desc>
<speed>6.350000</speed>
</trkpt>
<trkpt lat="55.865303" lon="26.471792">
<ele>93.727600</ele>
<time>2010-07-17T08:10:37Z</time>
<desc>lat.=55.865303, lon.=26.471792, Alt.=93.727600m. Speed=21.455999m/h.</desc>
<speed>5.960000</speed>
</trkpt>
<trkpt lat="55.865261" lon="26.471729">
<ele>93.807678</ele>
<time>2010-07-17T08:10:38Z</time>
<desc>lat.=55.865261, lon.=26.471729, Alt.=93.807678m. Speed=22.752001m/h.</desc>
<speed>6.320000</speed>
</trkpt>
<trkpt lat="55.865215" lon="26.471668">
<ele>93.934631</ele>
<time>2010-07-17T08:10:39Z</time>
<desc>lat.=55.865215, lon.=26.471668, Alt.=93.934631m. Speed=23.004000m/h.</desc>
<speed>6.390000</speed>
</trkpt>
<trkpt lat="55.865177" lon="26.471613">
<ele>94.008850</ele>
<time>2010-07-17T08:10:40Z</time>
<desc>lat.=55.865177, lon.=26.471613, Alt.=94.008850m. Speed=20.520000m/h.</desc>
<speed>5.700000</speed>
</trkpt>
<trkpt lat="55.865131" lon="26.471558">
<ele>93.907288</ele>
<time>2010-07-17T08:10:41Z</time>
<desc>lat.=55.865131, lon.=26.471558, Alt.=93.907288m. Speed=21.059999m/h.</desc>
<speed>5.850000</speed>
</trkpt>
<trkpt lat="55.865082" lon="26.471497">
<ele>93.688538</ele>
<time>2010-07-17T08:10:42Z</time>
<desc>lat.=55.865082, lon.=26.471497, Alt.=93.688538m. Speed=22.320000m/h.</desc>
<speed>6.200000</speed>
</trkpt>
<trkpt lat="55.865032" lon="26.471430">
<ele>93.637756</ele>
<time>2010-07-17T08:10:43Z</time>
<desc>lat.=55.865032, lon.=26.471430, Alt.=93.637756m. Speed=22.392000m/h.</desc>
<speed>6.220000</speed>
</trkpt>
<trkpt lat="55.864986" lon="26.471367">
<ele>93.600647</ele>
<time>2010-07-17T08:10:44Z</time>
<desc>lat.=55.864986, lon.=26.471367, Alt.=93.600647m. Speed=22.643999m/h.</desc>
<speed>6.290000</speed>
</trkpt>
<trkpt lat="55.864944" lon="26.471300">
<ele>93.629944</ele>
<time>2010-07-17T08:10:45Z</time>
<desc>lat.=55.864944, lon.=26.471300, Alt.=93.629944m. Speed=21.312000m/h.</desc>
<speed>5.920000</speed>
</trkpt>
<trkpt lat="55.864902" lon="26.471247">
<ele>93.754944</ele>
<time>2010-07-17T08:10:46Z</time>
<desc>lat.=55.864902, lon.=26.471247, Alt.=93.754944m. Speed=20.268000m/h.</desc>
<speed>5.630000</speed>
</trkpt>
<trkpt lat="55.864861" lon="26.471188">
<ele>93.872131</ele>
<time>2010-07-17T08:10:47Z</time>
<desc>lat.=55.864861, lon.=26.471188, Alt.=93.872131m. Speed=19.944000m/h.</desc>
<speed>5.540000</speed>
</trkpt>
<trkpt lat="55.864822" lon="26.471136">
<ele>94.108459</ele>
<time>2010-07-17T08:10:48Z</time>
<desc>lat.=55.864822, lon.=26.471136, Alt.=94.108459m. Speed=19.152000m/h.</desc>
<speed>5.320000</speed>
</trkpt>
<trkpt lat="55.864788" lon="26.471092">
<ele>94.204163</ele>
<time>2010-07-17T08:10:49Z</time>
<desc>lat.=55.864788, lon.=26.471092, Alt.=94.204163m. Speed=16.271999m/h.</desc>
<speed>4.520000</speed>
</trkpt>
<trkpt lat="55.864754" lon="26.471050">
<ele>94.497131</ele>
<time>2010-07-17T08:10:50Z</time>
<desc>lat.=55.864754, lon.=26.471050, Alt.=94.497131m. Speed=17.172001m/h.</desc>
<speed>4.770000</speed>
</trkpt>
<trkpt lat="55.864719" lon="26.471010">
<ele>94.227600</ele>
<time>2010-07-17T08:10:51Z</time>
<desc>lat.=55.864719, lon.=26.471010, Alt.=94.227600m. Speed=16.524000m/h.</desc>
<speed>4.590000</speed>
</trkpt>
<trkpt lat="55.864689" lon="26.470968">
<ele>93.827209</ele>
<time>2010-07-17T08:10:52Z</time>
<desc>lat.=55.864689, lon.=26.470968, Alt.=93.827209m. Speed=16.632000m/h.</desc>
<speed>4.620000</speed>
</trkpt>
<trkpt lat="55.864662" lon="26.470926">
<ele>94.196350</ele>
<time>2010-07-17T08:10:53Z</time>
<desc>lat.=55.864662, lon.=26.470926, Alt.=94.196350m. Speed=17.243999m/h.</desc>
<speed>4.790000</speed>
</trkpt>
<trkpt lat="55.864624" lon="26.470877">
<ele>93.942444</ele>
<time>2010-07-17T08:10:54Z</time>
<desc>lat.=55.864624, lon.=26.470877, Alt.=93.942444m. Speed=17.280001m/h.</desc>
<speed>4.800000</speed>
</trkpt>
<trkpt lat="55.864586" lon="26.470833">
<ele>94.030334</ele>
<time>2010-07-17T08:10:55Z</time>
<desc>lat.=55.864586, lon.=26.470833, Alt.=94.030334m. Speed=16.524000m/h.</desc>
<speed>4.590000</speed>
</trkpt>
<trkpt lat="55.864552" lon="26.470791">
<ele>94.210022</ele>
<time>2010-07-17T08:10:56Z</time>
<desc>lat.=55.864552, lon.=26.470791, Alt.=94.210022m. Speed=16.992001m/h.</desc>
<speed>4.720000</speed>
</trkpt>
<trkpt lat="55.864517" lon="26.470743">
<ele>94.038147</ele>
<time>2010-07-17T08:10:57Z</time>
<desc>lat.=55.864517, lon.=26.470743, Alt.=94.038147m. Speed=17.496000m/h.</desc>
<speed>4.860000</speed>
</trkpt>
<trkpt lat="55.864479" lon="26.470688">
<ele>94.268616</ele>
<time>2010-07-17T08:10:58Z</time>
<desc>lat.=55.864479, lon.=26.470688, Alt.=94.268616m. Speed=17.316000m/h.</desc>
<speed>4.810000</speed>
</trkpt>
<trkpt lat="55.864449" lon="26.470644">
<ele>94.794006</ele>
<time>2010-07-17T08:10:59Z</time>
<desc>lat.=55.864449, lon.=26.470644, Alt.=94.794006m. Speed=16.164000m/h.</desc>
<speed>4.490000</speed>
</trkpt>
<trkpt lat="55.864418" lon="26.470606">
<ele>95.274475</ele>
<time>2010-07-17T08:11:00Z</time>
<desc>lat.=55.864418, lon.=26.470606, Alt.=95.274475m. Speed=15.156000m/h.</desc>
<speed>4.210000</speed>
</trkpt>
<trkpt lat="55.864388" lon="26.470564">
<ele>95.823303</ele>
<time>2010-07-17T08:11:01Z</time>
<desc>lat.=55.864388, lon.=26.470564, Alt.=95.823303m. Speed=14.328000m/h.</desc>
<speed>3.980000</speed>
</trkpt>
<trkpt lat="55.864361" lon="26.470530">
<ele>95.780334</ele>
<time>2010-07-17T08:11:02Z</time>
<desc>lat.=55.864361, lon.=26.470530, Alt.=95.780334m. Speed=13.680000m/h.</desc>
<speed>3.800000</speed>
</trkpt>
<trkpt lat="55.864330" lon="26.470495">
<ele>95.969788</ele>
<time>2010-07-17T08:11:03Z</time>
<desc>lat.=55.864330, lon.=26.470495, Alt.=95.969788m. Speed=14.760000m/h.</desc>
<speed>4.100000</speed>
</trkpt>
<trkpt lat="55.864304" lon="26.470465">
<ele>96.225647</ele>
<time>2010-07-17T08:11:04Z</time>
<desc>lat.=55.864304, lon.=26.470465, Alt.=96.225647m. Speed=15.552000m/h.</desc>
<speed>4.320000</speed>
</trkpt>
<trkpt lat="55.864269" lon="26.470421">
<ele>95.885803</ele>
<time>2010-07-17T08:11:05Z</time>
<desc>lat.=55.864269, lon.=26.470421, Alt.=95.885803m. Speed=15.012000m/h.</desc>
<speed>4.170000</speed>
</trkpt>
<trkpt lat="55.864239" lon="26.470377">
<ele>94.969788</ele>
<time>2010-07-17T08:11:06Z</time>
<desc>lat.=55.864239, lon.=26.470377, Alt.=94.969788m. Speed=14.940000m/h.</desc>
<speed>4.150000</speed>
</trkpt>
<trkpt lat="55.864212" lon="26.470331">
<ele>96.280334</ele>
<time>2010-07-17T08:11:07Z</time>
<desc>lat.=55.864212, lon.=26.470331, Alt.=96.280334m. Speed=15.192000m/h.</desc>
<speed>4.220000</speed>
</trkpt>
<trkpt lat="55.864182" lon="26.470291">
<ele>96.813538</ele>
<time>2010-07-17T08:11:08Z</time>
<desc>lat.=55.864182, lon.=26.470291, Alt.=96.813538m. Speed=15.012000m/h.</desc>
<speed>4.170000</speed>
</trkpt>
<trkpt lat="55.864155" lon="26.470249">
<ele>97.393616</ele>
<time>2010-07-17T08:11:09Z</time>
<desc>lat.=55.864155, lon.=26.470249, Alt.=97.393616m. Speed=15.804000m/h.</desc>
<speed>4.390000</speed>
</trkpt>
<trkpt lat="55.864128" lon="26.470219">
<ele>98.329163</ele>
<time>2010-07-17T08:11:10Z</time>
<desc>lat.=55.864128, lon.=26.470219, Alt.=98.329163m. Speed=15.012000m/h.</desc>
<speed>4.170000</speed>
</trkpt>
<trkpt lat="55.864094" lon="26.470186">
<ele>98.594788</ele>
<time>2010-07-17T08:11:11Z</time>
<desc>lat.=55.864094, lon.=26.470186, Alt.=98.594788m. Speed=14.580000m/h.</desc>
<speed>4.050000</speed>
</trkpt>
<trkpt lat="55.864063" lon="26.470146">
<ele>99.221741</ele>
<time>2010-07-17T08:11:12Z</time>
<desc>lat.=55.864063, lon.=26.470146, Alt.=99.221741m. Speed=15.192000m/h.</desc>
<speed>4.220000</speed>
</trkpt>
<trkpt lat="55.864033" lon="26.470106">
<ele>99.629944</ele>
<time>2010-07-17T08:11:13Z</time>
<desc>lat.=55.864033, lon.=26.470106, Alt.=99.629944m. Speed=15.732000m/h.</desc>
<speed>4.370000</speed>
</trkpt>
<trkpt lat="55.864006" lon="26.470068">
<ele>99.864319</ele>
<time>2010-07-17T08:11:14Z</time>
<desc>lat.=55.864006, lon.=26.470068, Alt.=99.864319m. Speed=15.804000m/h.</desc>
<speed>4.390000</speed>
</trkpt>
<trkpt lat="55.863972" lon="26.470018">
<ele>99.674866</ele>
<time>2010-07-17T08:11:15Z</time>
<desc>lat.=55.863972, lon.=26.470018, Alt.=99.674866m. Speed=15.660000m/h.</desc>
<speed>4.350000</speed>
</trkpt>
<trkpt lat="55.863937" lon="26.469976">
<ele>99.747131</ele>
<time>2010-07-17T08:11:16Z</time>
<desc>lat.=55.863937, lon.=26.469976, Alt.=99.747131m. Speed=15.480000m/h.</desc>
<speed>4.300000</speed>
</trkpt>
<trkpt lat="55.863907" lon="26.469933">
<ele>100.294006</ele>
<time>2010-07-17T08:11:17Z</time>
<desc>lat.=55.863907, lon.=26.469933, Alt.=100.294006m. Speed=16.164000m/h.</desc>
<speed>4.490000</speed>
</trkpt>
<trkpt lat="55.863873" lon="26.469891">
<ele>100.442444</ele>
<time>2010-07-17T08:11:18Z</time>
<desc>lat.=55.863873, lon.=26.469891, Alt.=100.442444m. Speed=16.020000m/h.</desc>
<speed>4.450000</speed>
</trkpt>
<trkpt lat="55.863838" lon="26.469845">
<ele>100.629944</ele>
<time>2010-07-17T08:11:19Z</time>
<desc>lat.=55.863838, lon.=26.469845, Alt.=100.629944m. Speed=16.955999m/h.</desc>
<speed>4.710000</speed>
</trkpt>
<trkpt lat="55.863808" lon="26.469797">
<ele>100.659241</ele>
<time>2010-07-17T08:11:20Z</time>
<desc>lat.=55.863808, lon.=26.469797, Alt.=100.659241m. Speed=15.660000m/h.</desc>
<speed>4.350000</speed>
</trkpt>
<trkpt lat="55.863773" lon="26.469753">
<ele>100.723694</ele>
<time>2010-07-17T08:11:21Z</time>
<desc>lat.=55.863773, lon.=26.469753, Alt.=100.723694m. Speed=15.480000m/h.</desc>
<speed>4.300000</speed>
</trkpt>
<trkpt lat="55.863743" lon="26.469711">
<ele>100.766663</ele>
<time>2010-07-17T08:11:22Z</time>
<desc>lat.=55.863743, lon.=26.469711, Alt.=100.766663m. Speed=16.020000m/h.</desc>
<speed>4.450000</speed>
</trkpt>
<trkpt lat="55.863712" lon="26.469673">
<ele>101.059631</ele>
<time>2010-07-17T08:11:23Z</time>
<desc>lat.=55.863712, lon.=26.469673, Alt.=101.059631m. Speed=17.028000m/h.</desc>
<speed>4.730000</speed>
</trkpt>
<trkpt lat="55.863678" lon="26.469637">
<ele>101.805725</ele>
<time>2010-07-17T08:11:24Z</time>
<desc>lat.=55.863678, lon.=26.469637, Alt.=101.805725m. Speed=15.840000m/h.</desc>
<speed>4.400000</speed>
</trkpt>
<trkpt lat="55.863640" lon="26.469591">
<ele>101.762756</ele>
<time>2010-07-17T08:11:25Z</time>
<desc>lat.=55.863640, lon.=26.469591, Alt.=101.762756m. Speed=16.344000m/h.</desc>
<speed>4.540000</speed>
</trkpt>
<trkpt lat="55.863609" lon="26.469549">
<ele>102.200256</ele>
<time>2010-07-17T08:11:26Z</time>
<desc>lat.=55.863609, lon.=26.469549, Alt.=102.200256m. Speed=15.804000m/h.</desc>
<speed>4.390000</speed>
</trkpt>
<trkpt lat="55.863575" lon="26.469513">
<ele>102.350647</ele>
<time>2010-07-17T08:11:27Z</time>
<desc>lat.=55.863575, lon.=26.469513, Alt.=102.350647m. Speed=14.364000m/h.</desc>
<speed>3.990000</speed>
</trkpt>
<trkpt lat="55.863548" lon="26.469479">
<ele>103.012756</ele>
<time>2010-07-17T08:11:28Z</time>
<desc>lat.=55.863548, lon.=26.469479, Alt.=103.012756m. Speed=13.536000m/h.</desc>
<speed>3.760000</speed>
</trkpt>
<trkpt lat="55.863518" lon="26.469439">
<ele>103.020569</ele>
<time>2010-07-17T08:11:29Z</time>
<desc>lat.=55.863518, lon.=26.469439, Alt.=103.020569m. Speed=14.940000m/h.</desc>
<speed>4.150000</speed>
</trkpt>
<trkpt lat="55.863487" lon="26.469398">
<ele>103.749084</ele>
<time>2010-07-17T08:11:30Z</time>
<desc>lat.=55.863487, lon.=26.469398, Alt.=103.749084m. Speed=15.156000m/h.</desc>
<speed>4.210000</speed>
</trkpt>
<trkpt lat="55.863453" lon="26.469355">
<ele>104.729553</ele>
<time>2010-07-17T08:11:31Z</time>
<desc>lat.=55.863453, lon.=26.469355, Alt.=104.729553m. Speed=16.200001m/h.</desc>
<speed>4.500000</speed>
</trkpt>
<trkpt lat="55.863430" lon="26.469313">
<ele>104.684631</ele>
<time>2010-07-17T08:11:32Z</time>
<desc>lat.=55.863430, lon.=26.469313, Alt.=104.684631m. Speed=16.164000m/h.</desc>
<speed>4.490000</speed>
</trkpt>
<trkpt lat="55.863392" lon="26.469267">
<ele>104.116272</ele>
<time>2010-07-17T08:11:33Z</time>
<desc>lat.=55.863392, lon.=26.469267, Alt.=104.116272m. Speed=16.164000m/h.</desc>
<speed>4.490000</speed>
</trkpt>
<trkpt lat="55.863358" lon="26.469229">
<ele>104.518616</ele>
<time>2010-07-17T08:11:34Z</time>
<desc>lat.=55.863358, lon.=26.469229, Alt.=104.518616m. Speed=14.832000m/h.</desc>
<speed>4.120000</speed>
</trkpt>
<trkpt lat="55.863327" lon="26.469191">
<ele>104.751038</ele>
<time>2010-07-17T08:11:35Z</time>
<desc>lat.=55.863327, lon.=26.469191, Alt.=104.751038m. Speed=14.688000m/h.</desc>
<speed>4.080000</speed>
</trkpt>
<trkpt lat="55.863293" lon="26.469141">
<ele>104.629944</ele>
<time>2010-07-17T08:11:36Z</time>
<desc>lat.=55.863293, lon.=26.469141, Alt.=104.629944m. Speed=15.840000m/h.</desc>
<speed>4.400000</speed>
</trkpt>
<trkpt lat="55.863266" lon="26.469090">
<ele>105.635803</ele>
<time>2010-07-17T08:11:37Z</time>
<desc>lat.=55.863266, lon.=26.469090, Alt.=105.635803m. Speed=16.452000m/h.</desc>
<speed>4.570000</speed>
</trkpt>
<trkpt lat="55.863228" lon="26.469044">
<ele>106.407288</ele>
<time>2010-07-17T08:11:38Z</time>
<desc>lat.=55.863228, lon.=26.469044, Alt.=106.407288m. Speed=15.876000m/h.</desc>
<speed>4.410000</speed>
</trkpt>
<trkpt lat="55.863194" lon="26.469002">
<ele>106.501038</ele>
<time>2010-07-17T08:11:39Z</time>
<desc>lat.=55.863194, lon.=26.469002, Alt.=106.501038m. Speed=15.084000m/h.</desc>
<speed>4.190000</speed>
</trkpt>
<trkpt lat="55.863155" lon="26.468960">
<ele>106.442444</ele>
<time>2010-07-17T08:11:40Z</time>
<desc>lat.=55.863155, lon.=26.468960, Alt.=106.442444m. Speed=14.724000m/h.</desc>
<speed>4.090000</speed>
</trkpt>
<trkpt lat="55.863125" lon="26.468918">
<ele>107.075256</ele>
<time>2010-07-17T08:11:41Z</time>
<desc>lat.=55.863125, lon.=26.468918, Alt.=107.075256m. Speed=14.868000m/h.</desc>
<speed>4.130000</speed>
</trkpt>
<trkpt lat="55.863094" lon="26.468872">
<ele>106.563538</ele>
<time>2010-07-17T08:11:42Z</time>
<desc>lat.=55.863094, lon.=26.468872, Alt.=106.563538m. Speed=14.220000m/h.</desc>
<speed>3.950000</speed>
</trkpt>
<trkpt lat="55.863060" lon="26.468824">
<ele>106.885803</ele>
<time>2010-07-17T08:11:43Z</time>
<desc>lat.=55.863060, lon.=26.468824, Alt.=106.885803m. Speed=15.768000m/h.</desc>
<speed>4.380000</speed>
</trkpt>
<trkpt lat="55.863029" lon="26.468781">
<ele>107.553772</ele>
<time>2010-07-17T08:11:44Z</time>
<desc>lat.=55.863029, lon.=26.468781, Alt.=107.553772m. Speed=15.804000m/h.</desc>
<speed>4.390000</speed>
</trkpt>
<trkpt lat="55.862995" lon="26.468731">
<ele>107.764709</ele>
<time>2010-07-17T08:11:45Z</time>
<desc>lat.=55.862995, lon.=26.468731, Alt.=107.764709m. Speed=15.948000m/h.</desc>
<speed>4.430000</speed>
</trkpt>
<trkpt lat="55.862965" lon="26.468683">
<ele>107.811584</ele>
<time>2010-07-17T08:11:46Z</time>
<desc>lat.=55.862965, lon.=26.468683, Alt.=107.811584m. Speed=16.271999m/h.</desc>
<speed>4.520000</speed>
</trkpt>
<trkpt lat="55.862926" lon="26.468632">
<ele>106.782288</ele>
<time>2010-07-17T08:11:47Z</time>
<desc>lat.=55.862926, lon.=26.468632, Alt.=106.782288m. Speed=16.704000m/h.</desc>
<speed>4.640000</speed>
</trkpt>
<trkpt lat="55.862892" lon="26.468578">
<ele>106.825256</ele>
<time>2010-07-17T08:11:48Z</time>
<desc>lat.=55.862892, lon.=26.468578, Alt.=106.825256m. Speed=16.848000m/h.</desc>
<speed>4.680000</speed>
</trkpt>
<trkpt lat="55.862858" lon="26.468536">
<ele>106.928772</ele>
<time>2010-07-17T08:11:49Z</time>
<desc>lat.=55.862858, lon.=26.468536, Alt.=106.928772m. Speed=15.552000m/h.</desc>
<speed>4.320000</speed>
</trkpt>
<trkpt lat="55.862827" lon="26.468494">
<ele>107.299866</ele>
<time>2010-07-17T08:11:50Z</time>
<desc>lat.=55.862827, lon.=26.468494, Alt.=107.299866m. Speed=15.408000m/h.</desc>
<speed>4.280000</speed>
</trkpt>
<trkpt lat="55.862797" lon="26.468451">
<ele>107.133850</ele>
<time>2010-07-17T08:11:51Z</time>
<desc>lat.=55.862797, lon.=26.468451, Alt.=107.133850m. Speed=15.264000m/h.</desc>
<speed>4.240000</speed>
</trkpt>
<trkpt lat="55.862766" lon="26.468407">
<ele>107.336975</ele>
<time>2010-07-17T08:11:52Z</time>
<desc>lat.=55.862766, lon.=26.468407, Alt.=107.336975m. Speed=14.256000m/h.</desc>
<speed>3.960000</speed>
</trkpt>
<trkpt lat="55.862736" lon="26.468361">
<ele>107.452209</ele>
<time>2010-07-17T08:11:53Z</time>
<desc>lat.=55.862736, lon.=26.468361, Alt.=107.452209m. Speed=14.760000m/h.</desc>
<speed>4.100000</speed>
</trkpt>
<trkpt lat="55.862705" lon="26.468313">
<ele>107.176819</ele>
<time>2010-07-17T08:11:54Z</time>
<desc>lat.=55.862705, lon.=26.468313, Alt.=107.176819m. Speed=14.184000m/h.</desc>
<speed>3.940000</speed>
</trkpt>
<trkpt lat="55.862671" lon="26.468273">
<ele>107.002991</ele>
<time>2010-07-17T08:11:55Z</time>
<desc>lat.=55.862671, lon.=26.468273, Alt.=107.002991m. Speed=14.364000m/h.</desc>
<speed>3.990000</speed>
</trkpt>
<trkpt lat="55.862640" lon="26.468233">
<ele>106.749084</ele>
<time>2010-07-17T08:11:56Z</time>
<desc>lat.=55.862640, lon.=26.468233, Alt.=106.749084m. Speed=14.004000m/h.</desc>
<speed>3.890000</speed>
</trkpt>
<trkpt lat="55.862610" lon="26.468195">
<ele>106.870178</ele>
<time>2010-07-17T08:11:57Z</time>
<desc>lat.=55.862610, lon.=26.468195, Alt.=106.870178m. Speed=14.724000m/h.</desc>
<speed>4.090000</speed>
</trkpt>
<trkpt lat="55.862579" lon="26.468153">
<ele>107.194397</ele>
<time>2010-07-17T08:11:58Z</time>
<desc>lat.=55.862579, lon.=26.468153, Alt.=107.194397m. Speed=15.336000m/h.</desc>
<speed>4.260000</speed>
</trkpt>
<trkpt lat="55.862545" lon="26.468113">
<ele>107.487366</ele>
<time>2010-07-17T08:11:59Z</time>
<desc>lat.=55.862545, lon.=26.468113, Alt.=107.487366m. Speed=15.804000m/h.</desc>
<speed>4.390000</speed>
</trkpt>
<trkpt lat="55.862507" lon="26.468071">
<ele>107.272522</ele>
<time>2010-07-17T08:12:00Z</time>
<desc>lat.=55.862507, lon.=26.468071, Alt.=107.272522m. Speed=15.732000m/h.</desc>
<speed>4.370000</speed>
</trkpt>
<trkpt lat="55.862469" lon="26.468035">
<ele>107.997131</ele>
<time>2010-07-17T08:12:01Z</time>
<desc>lat.=55.862469, lon.=26.468035, Alt.=107.997131m. Speed=15.804000m/h.</desc>
<speed>4.390000</speed>
</trkpt>
<trkpt lat="55.862434" lon="26.467993">
<ele>108.448303</ele>
<time>2010-07-17T08:12:02Z</time>
<desc>lat.=55.862434, lon.=26.467993, Alt.=108.448303m. Speed=16.056000m/h.</desc>
<speed>4.460000</speed>
</trkpt>
<trkpt lat="55.862392" lon="26.467957">
<ele>108.667053</ele>
<time>2010-07-17T08:12:03Z</time>
<desc>lat.=55.862392, lon.=26.467957, Alt.=108.667053m. Speed=15.336000m/h.</desc>
<speed>4.260000</speed>
</trkpt>
<trkpt lat="55.862354" lon="26.467918">
<ele>109.024475</ele>
<time>2010-07-17T08:12:04Z</time>
<desc>lat.=55.862354, lon.=26.467918, Alt.=109.024475m. Speed=15.372000m/h.</desc>
<speed>4.270000</speed>
</trkpt>
<trkpt lat="55.862320" lon="26.467880">
<ele>109.360413</ele>
<time>2010-07-17T08:12:05Z</time>
<desc>lat.=55.862320, lon.=26.467880, Alt.=109.360413m. Speed=16.091999m/h.</desc>
<speed>4.470000</speed>
</trkpt>
<trkpt lat="55.862289" lon="26.467836">
<ele>109.942444</ele>
<time>2010-07-17T08:12:06Z</time>
<desc>lat.=55.862289, lon.=26.467836, Alt.=109.942444m. Speed=15.336000m/h.</desc>
<speed>4.260000</speed>
</trkpt>
<trkpt lat="55.862255" lon="26.467800">
<ele>110.813538</ele>
<time>2010-07-17T08:12:07Z</time>
<desc>lat.=55.862255, lon.=26.467800, Alt.=110.813538m. Speed=15.264000m/h.</desc>
<speed>4.240000</speed>
</trkpt>
<trkpt lat="55.862221" lon="26.467756">
<ele>111.344788</ele>
<time>2010-07-17T08:12:08Z</time>
<desc>lat.=55.862221, lon.=26.467756, Alt.=111.344788m. Speed=15.660000m/h.</desc>
<speed>4.350000</speed>
</trkpt>
<trkpt lat="55.862186" lon="26.467716">
<ele>111.844788</ele>
<time>2010-07-17T08:12:09Z</time>
<desc>lat.=55.862186, lon.=26.467716, Alt.=111.844788m. Speed=14.760000m/h.</desc>
<speed>4.100000</speed>
</trkpt>
<trkpt lat="55.862148" lon="26.467676">
<ele>111.983459</ele>
<time>2010-07-17T08:12:10Z</time>
<desc>lat.=55.862148, lon.=26.467676, Alt.=111.983459m. Speed=15.120000m/h.</desc>
<speed>4.200000</speed>
</trkpt>
<trkpt lat="55.862114" lon="26.467638">
<ele>112.381897</ele>
<time>2010-07-17T08:12:11Z</time>
<desc>lat.=55.862114, lon.=26.467638, Alt.=112.381897m. Speed=15.192000m/h.</desc>
<speed>4.220000</speed>
</trkpt>
<trkpt lat="55.862083" lon="26.467602">
<ele>112.747131</ele>
<time>2010-07-17T08:12:12Z</time>
<desc>lat.=55.862083, lon.=26.467602, Alt.=112.747131m. Speed=13.608000m/h.</desc>
<speed>3.780000</speed>
</trkpt>
<trkpt lat="55.862049" lon="26.467566">
<ele>112.846741</ele>
<time>2010-07-17T08:12:13Z</time>
<desc>lat.=55.862049, lon.=26.467566, Alt.=112.846741m. Speed=13.716000m/h.</desc>
<speed>3.810000</speed>
</trkpt>
<trkpt lat="55.862011" lon="26.467527">
<ele>112.938538</ele>
<time>2010-07-17T08:12:14Z</time>
<desc>lat.=55.862011, lon.=26.467527, Alt.=112.938538m. Speed=14.868000m/h.</desc>
<speed>4.130000</speed>
</trkpt>
<trkpt lat="55.861980" lon="26.467485">
<ele>113.393616</ele>
<time>2010-07-17T08:12:15Z</time>
<desc>lat.=55.861980, lon.=26.467485, Alt.=113.393616m. Speed=15.660000m/h.</desc>
<speed>4.350000</speed>
</trkpt>
<trkpt lat="55.861935" lon="26.467434">
<ele>113.674866</ele>
<time>2010-07-17T08:12:16Z</time>
<desc>lat.=55.861935, lon.=26.467434, Alt.=113.674866m. Speed=17.892000m/h.</desc>
<speed>4.970000</speed>
</trkpt>
<trkpt lat="55.861897" lon="26.467375">
<ele>113.991272</ele>
<time>2010-07-17T08:12:17Z</time>
<desc>lat.=55.861897, lon.=26.467375, Alt.=113.991272m. Speed=18.108000m/h.</desc>
<speed>5.030000</speed>
</trkpt>
<trkpt lat="55.861858" lon="26.467318">
<ele>114.325256</ele>
<time>2010-07-17T08:12:18Z</time>
<desc>lat.=55.861858, lon.=26.467318, Alt.=114.325256m. Speed=17.856001m/h.</desc>
<speed>4.960000</speed>
</trkpt>
<trkpt lat="55.861820" lon="26.467266">
<ele>114.485413</ele>
<time>2010-07-17T08:12:19Z</time>
<desc>lat.=55.861820, lon.=26.467266, Alt.=114.485413m. Speed=16.812000m/h.</desc>
<speed>4.670000</speed>
</trkpt>
<trkpt lat="55.861790" lon="26.467205">
<ele>116.036194</ele>
<time>2010-07-17T08:12:20Z</time>
<desc>lat.=55.861790, lon.=26.467205, Alt.=116.036194m. Speed=18.864000m/h.</desc>
<speed>5.240000</speed>
</trkpt>
<trkpt lat="55.861748" lon="26.467138">
<ele>116.936584</ele>
<time>2010-07-17T08:12:21Z</time>
<desc>lat.=55.861748, lon.=26.467138, Alt.=116.936584m. Speed=18.360001m/h.</desc>
<speed>5.100000</speed>
</trkpt>
<trkpt lat="55.861710" lon="26.467083">
<ele>117.147522</ele>
<time>2010-07-17T08:12:22Z</time>
<desc>lat.=55.861710, lon.=26.467083, Alt.=117.147522m. Speed=18.072001m/h.</desc>
<speed>5.020000</speed>
</trkpt>
<trkpt lat="55.861671" lon="26.467009">
<ele>116.669006</ele>
<time>2010-07-17T08:12:23Z</time>
<desc>lat.=55.861671, lon.=26.467009, Alt.=116.669006m. Speed=18.648001m/h.</desc>
<speed>5.180000</speed>
</trkpt>
<trkpt lat="55.861629" lon="26.466961">
<ele>117.126038</ele>
<time>2010-07-17T08:12:24Z</time>
<desc>lat.=55.861629, lon.=26.466961, Alt.=117.126038m. Speed=18.252001m/h.</desc>
<speed>5.070000</speed>
</trkpt>
<trkpt lat="55.861588" lon="26.466902">
<ele>117.801819</ele>
<time>2010-07-17T08:12:25Z</time>
<desc>lat.=55.861588, lon.=26.466902, Alt.=117.801819m. Speed=20.124001m/h.</desc>
<speed>5.590000</speed>
</trkpt>
<trkpt lat="55.861546" lon="26.466843">
<ele>117.567444</ele>
<time>2010-07-17T08:12:26Z</time>
<desc>lat.=55.861546, lon.=26.466843, Alt.=117.567444m. Speed=19.368000m/h.</desc>
<speed>5.380000</speed>
</trkpt>
<trkpt lat="55.861500" lon="26.466797">
<ele>118.079163</ele>
<time>2010-07-17T08:12:27Z</time>
<desc>lat.=55.861500, lon.=26.466797, Alt.=118.079163m. Speed=18.936001m/h.</desc>
<speed>5.260000</speed>
</trkpt>
<trkpt lat="55.861465" lon="26.466726">
<ele>117.325256</ele>
<time>2010-07-17T08:12:28Z</time>
<desc>lat.=55.861465, lon.=26.466726, Alt.=117.325256m. Speed=17.351999m/h.</desc>
<speed>4.820000</speed>
</trkpt>
<trkpt lat="55.861431" lon="26.466673">
<ele>117.295959</ele>
<time>2010-07-17T08:12:29Z</time>
<desc>lat.=55.861431, lon.=26.466673, Alt.=117.295959m. Speed=16.020000m/h.</desc>
<speed>4.450000</speed>
</trkpt>
<trkpt lat="55.861404" lon="26.466633">
<ele>117.264709</ele>
<time>2010-07-17T08:12:30Z</time>
<desc>lat.=55.861404, lon.=26.466633, Alt.=117.264709m. Speed=14.400000m/h.</desc>
<speed>4.000000</speed>
</trkpt>
<trkpt lat="55.861378" lon="26.466599">
<ele>117.198303</ele>
<time>2010-07-17T08:12:31Z</time>
<desc>lat.=55.861378, lon.=26.466599, Alt.=117.198303m. Speed=14.220000m/h.</desc>
<speed>3.950000</speed>
</trkpt>
<trkpt lat="55.861347" lon="26.466553">
<ele>117.397522</ele>
<time>2010-07-17T08:12:32Z</time>
<desc>lat.=55.861347, lon.=26.466553, Alt.=117.397522m. Speed=14.436000m/h.</desc>
<speed>4.010000</speed>
</trkpt>
<trkpt lat="55.861317" lon="26.466503">
<ele>117.795959</ele>
<time>2010-07-17T08:12:33Z</time>
<desc>lat.=55.861317, lon.=26.466503, Alt.=117.795959m. Speed=14.760000m/h.</desc>
<speed>4.100000</speed>
</trkpt>
<trkpt lat="55.861282" lon="26.466457">
<ele>118.335022</ele>
<time>2010-07-17T08:12:34Z</time>
<desc>lat.=55.861282, lon.=26.466457, Alt.=118.335022m. Speed=14.724000m/h.</desc>
<speed>4.090000</speed>
</trkpt>
<trkpt lat="55.861252" lon="26.466429">
<ele>118.575256</ele>
<time>2010-07-17T08:12:35Z</time>
<desc>lat.=55.861252, lon.=26.466429, Alt.=118.575256m. Speed=15.156000m/h.</desc>
<speed>4.210000</speed>
</trkpt>
<trkpt lat="55.861214" lon="26.466393">
<ele>118.862366</ele>
<time>2010-07-17T08:12:36Z</time>
<desc>lat.=55.861214, lon.=26.466393, Alt.=118.862366m. Speed=15.480000m/h.</desc>
<speed>4.300000</speed>
</trkpt>
<trkpt lat="55.861183" lon="26.466345">
<ele>119.223694</ele>
<time>2010-07-17T08:12:37Z</time>
<desc>lat.=55.861183, lon.=26.466345, Alt.=119.223694m. Speed=16.992001m/h.</desc>
<speed>4.720000</speed>
</trkpt>
<trkpt lat="55.861149" lon="26.466295">
<ele>119.604553</ele>
<time>2010-07-17T08:12:38Z</time>
<desc>lat.=55.861149, lon.=26.466295, Alt.=119.604553m. Speed=16.848000m/h.</desc>
<speed>4.680000</speed>
</trkpt>
<trkpt lat="55.861118" lon="26.466248">
<ele>119.756897</ele>
<time>2010-07-17T08:12:39Z</time>
<desc>lat.=55.861118, lon.=26.466248, Alt.=119.756897m. Speed=16.775999m/h.</desc>
<speed>4.660000</speed>
</trkpt>
<trkpt lat="55.861080" lon="26.466202">
<ele>119.893616</ele>
<time>2010-07-17T08:12:40Z</time>
<desc>lat.=55.861080, lon.=26.466202, Alt.=119.893616m. Speed=17.243999m/h.</desc>
<speed>4.790000</speed>
</trkpt>
<trkpt lat="55.861038" lon="26.466152">
<ele>120.059631</ele>
<time>2010-07-17T08:12:41Z</time>
<desc>lat.=55.861038, lon.=26.466152, Alt.=120.059631m. Speed=19.584000m/h.</desc>
<speed>5.440000</speed>
</trkpt>
<trkpt lat="55.860996" lon="26.466099">
<ele>120.303772</ele>
<time>2010-07-17T08:12:42Z</time>
<desc>lat.=55.860996, lon.=26.466099, Alt.=120.303772m. Speed=18.612000m/h.</desc>
<speed>5.170000</speed>
</trkpt>
<trkpt lat="55.860950" lon="26.466051">
<ele>119.973694</ele>
<time>2010-07-17T08:12:43Z</time>
<desc>lat.=55.860950, lon.=26.466051, Alt.=119.973694m. Speed=19.007999m/h.</desc>
<speed>5.280000</speed>
</trkpt>
<trkpt lat="55.860901" lon="26.466011">
<ele>119.540100</ele>
<time>2010-07-17T08:12:44Z</time>
<desc>lat.=55.860901, lon.=26.466011, Alt.=119.540100m. Speed=20.016001m/h.</desc>
<speed>5.560000</speed>
</trkpt>
<trkpt lat="55.860851" lon="26.465967">
<ele>119.362366</ele>
<time>2010-07-17T08:12:45Z</time>
<desc>lat.=55.860851, lon.=26.465967, Alt.=119.362366m. Speed=20.412001m/h.</desc>
<speed>5.670000</speed>
</trkpt>
<trkpt lat="55.860809" lon="26.465918">
<ele>119.713928</ele>
<time>2010-07-17T08:12:46Z</time>
<desc>lat.=55.860809, lon.=26.465918, Alt.=119.713928m. Speed=20.268000m/h.</desc>
<speed>5.630000</speed>
</trkpt>
<trkpt lat="55.860764" lon="26.465878">
<ele>120.286194</ele>
<time>2010-07-17T08:12:47Z</time>
<desc>lat.=55.860764, lon.=26.465878, Alt.=120.286194m. Speed=20.808001m/h.</desc>
<speed>5.780000</speed>
</trkpt>
<trkpt lat="55.860718" lon="26.465824">
<ele>120.608459</ele>
<time>2010-07-17T08:12:48Z</time>
<desc>lat.=55.860718, lon.=26.465824, Alt.=120.608459m. Speed=21.275999m/h.</desc>
<speed>5.910000</speed>
</trkpt>
<trkpt lat="55.860676" lon="26.465757">
<ele>120.315491</ele>
<time>2010-07-17T08:12:49Z</time>
<desc>lat.=55.860676, lon.=26.465757, Alt.=120.315491m. Speed=21.240000m/h.</desc>
<speed>5.900000</speed>
</trkpt>
<trkpt lat="55.860630" lon="26.465666">
<ele>118.553772</ele>
<time>2010-07-17T08:12:50Z</time>
<desc>lat.=55.860630, lon.=26.465666, Alt.=118.553772m. Speed=21.455999m/h.</desc>
<speed>5.960000</speed>
</trkpt>
<trkpt lat="55.860588" lon="26.465563">
<ele>116.112366</ele>
<time>2010-07-17T08:12:51Z</time>
<desc>lat.=55.860588, lon.=26.465563, Alt.=116.112366m. Speed=22.212000m/h.</desc>
<speed>6.170000</speed>
</trkpt>
<trkpt lat="55.860542" lon="26.465500">
<ele>114.758850</ele>
<time>2010-07-17T08:12:52Z</time>
<desc>lat.=55.860542, lon.=26.465500, Alt.=114.758850m. Speed=21.672001m/h.</desc>
<speed>6.020000</speed>
</trkpt>
<trkpt lat="55.860504" lon="26.465416">
<ele>113.157288</ele>
<time>2010-07-17T08:12:53Z</time>
<desc>lat.=55.860504, lon.=26.465416, Alt.=113.157288m. Speed=21.888000m/h.</desc>
<speed>6.080000</speed>
</trkpt>
<trkpt lat="55.860455" lon="26.465347">
<ele>112.545959</ele>
<time>2010-07-17T08:12:54Z</time>
<desc>lat.=55.860455, lon.=26.465347, Alt.=112.545959m. Speed=23.040001m/h.</desc>
<speed>6.400000</speed>
</trkpt>
<trkpt lat="55.860409" lon="26.465286">
<ele>112.336975</ele>
<time>2010-07-17T08:12:55Z</time>
<desc>lat.=55.860409, lon.=26.465286, Alt.=112.336975m. Speed=23.112000m/h.</desc>
<speed>6.420000</speed>
</trkpt>
<trkpt lat="55.860359" lon="26.465221">
<ele>111.967834</ele>
<time>2010-07-17T08:12:56Z</time>
<desc>lat.=55.860359, lon.=26.465221, Alt.=111.967834m. Speed=23.615999m/h.</desc>
<speed>6.560000</speed>
</trkpt>
<trkpt lat="55.860306" lon="26.465157">
<ele>112.024475</ele>
<time>2010-07-17T08:12:57Z</time>
<desc>lat.=55.860306, lon.=26.465157, Alt.=112.024475m. Speed=23.219999m/h.</desc>
<speed>6.450000</speed>
</trkpt>
<trkpt lat="55.860256" lon="26.465097">
<ele>111.983459</ele>
<time>2010-07-17T08:12:58Z</time>
<desc>lat.=55.860256, lon.=26.465097, Alt.=111.983459m. Speed=22.356001m/h.</desc>
<speed>6.210000</speed>
</trkpt>
<trkpt lat="55.860214" lon="26.465038">
<ele>111.694397</ele>
<time>2010-07-17T08:12:59Z</time>
<desc>lat.=55.860214, lon.=26.465038, Alt.=111.694397m. Speed=21.132000m/h.</desc>
<speed>5.870000</speed>
</trkpt>
<trkpt lat="55.860168" lon="26.464989">
<ele>110.288147</ele>
<time>2010-07-17T08:13:00Z</time>
<desc>lat.=55.860168, lon.=26.464989, Alt.=110.288147m. Speed=20.304001m/h.</desc>
<speed>5.640000</speed>
</trkpt>
<trkpt lat="55.860126" lon="26.464928">
<ele>110.131897</ele>
<time>2010-07-17T08:13:01Z</time>
<desc>lat.=55.860126, lon.=26.464928, Alt.=110.131897m. Speed=20.952000m/h.</desc>
<speed>5.820000</speed>
</trkpt>
<trkpt lat="55.860081" lon="26.464861">
<ele>109.985413</ele>
<time>2010-07-17T08:13:02Z</time>
<desc>lat.=55.860081, lon.=26.464861, Alt.=109.985413m. Speed=22.608000m/h.</desc>
<speed>6.280000</speed>
</trkpt>
<trkpt lat="55.860035" lon="26.464787">
<ele>108.987366</ele>
<time>2010-07-17T08:13:03Z</time>
<desc>lat.=55.860035, lon.=26.464787, Alt.=108.987366m. Speed=22.320000m/h.</desc>
<speed>6.200000</speed>
</trkpt>
<trkpt lat="55.859993" lon="26.464722">
<ele>108.879944</ele>
<time>2010-07-17T08:13:04Z</time>
<desc>lat.=55.859993, lon.=26.464722, Alt.=108.879944m. Speed=22.247999m/h.</desc>
<speed>6.180000</speed>
</trkpt>
<trkpt lat="55.859943" lon="26.464647">
<ele>108.711975</ele>
<time>2010-07-17T08:13:05Z</time>
<desc>lat.=55.859943, lon.=26.464647, Alt.=108.711975m. Speed=23.796000m/h.</desc>
<speed>6.610000</speed>
</trkpt>
<trkpt lat="55.859894" lon="26.464588">
<ele>108.114319</ele>
<time>2010-07-17T08:13:06Z</time>
<desc>lat.=55.859894, lon.=26.464588, Alt.=108.114319m. Speed=23.903999m/h.</desc>
<speed>6.640000</speed>
</trkpt>
<trkpt lat="55.859844" lon="26.464520">
<ele>108.032288</ele>
<time>2010-07-17T08:13:07Z</time>
<desc>lat.=55.859844, lon.=26.464520, Alt.=108.032288m. Speed=23.507999m/h.</desc>
<speed>6.530000</speed>
</trkpt>
<trkpt lat="55.859798" lon="26.464449">
<ele>107.989319</ele>
<time>2010-07-17T08:13:08Z</time>
<desc>lat.=55.859798, lon.=26.464449, Alt.=107.989319m. Speed=24.983999m/h.</desc>
<speed>6.940000</speed>
</trkpt>
<trkpt lat="55.859745" lon="26.464378">
<ele>107.922913</ele>
<time>2010-07-17T08:13:09Z</time>
<desc>lat.=55.859745, lon.=26.464378, Alt.=107.922913m. Speed=26.604000m/h.</desc>
<speed>7.390000</speed>
</trkpt>
<trkpt lat="55.859692" lon="26.464304">
<ele>107.680725</ele>
<time>2010-07-17T08:13:10Z</time>
<desc>lat.=55.859692, lon.=26.464304, Alt.=107.680725m. Speed=26.856001m/h.</desc>
<speed>7.460000</speed>
</trkpt>
<trkpt lat="55.859631" lon="26.464228">
<ele>107.327209</ele>
<time>2010-07-17T08:13:11Z</time>
<desc>lat.=55.859631, lon.=26.464228, Alt.=107.327209m. Speed=27.504000m/h.</desc>
<speed>7.640000</speed>
</trkpt>
<trkpt lat="55.859581" lon="26.464155">
<ele>107.077209</ele>
<time>2010-07-17T08:13:12Z</time>
<desc>lat.=55.859581, lon.=26.464155, Alt.=107.077209m. Speed=26.208000m/h.</desc>
<speed>7.280000</speed>
</trkpt>
<trkpt lat="55.859524" lon="26.464083">
<ele>106.788147</ele>
<time>2010-07-17T08:13:13Z</time>
<desc>lat.=55.859524, lon.=26.464083, Alt.=106.788147m. Speed=28.188000m/h.</desc>
<speed>7.830000</speed>
</trkpt>
<trkpt lat="55.859463" lon="26.463999">
<ele>106.635803</ele>
<time>2010-07-17T08:13:14Z</time>
<desc>lat.=55.859463, lon.=26.463999, Alt.=106.635803m. Speed=27.540001m/h.</desc>
<speed>7.650000</speed>
</trkpt>
<trkpt lat="55.859398" lon="26.463917">
<ele>106.127991</ele>
<time>2010-07-17T08:13:15Z</time>
<desc>lat.=55.859398, lon.=26.463917, Alt.=106.127991m. Speed=27.648001m/h.</desc>
<speed>7.680000</speed>
</trkpt>
<trkpt lat="55.859348" lon="26.463846">
<ele>105.393616</ele>
<time>2010-07-17T08:13:16Z</time>
<desc>lat.=55.859348, lon.=26.463846, Alt.=105.393616m. Speed=26.639999m/h.</desc>
<speed>7.400000</speed>
</trkpt>
<trkpt lat="55.859295" lon="26.463768">
<ele>104.999084</ele>
<time>2010-07-17T08:13:17Z</time>
<desc>lat.=55.859295, lon.=26.463768, Alt.=104.999084m. Speed=26.316000m/h.</desc>
<speed>7.310000</speed>
</trkpt>
<trkpt lat="55.859249" lon="26.463684">
<ele>104.690491</ele>
<time>2010-07-17T08:13:18Z</time>
<desc>lat.=55.859249, lon.=26.463684, Alt.=104.690491m. Speed=24.912001m/h.</desc>
<speed>6.920000</speed>
</trkpt>
<trkpt lat="55.859200" lon="26.463610">
<ele>104.622131</ele>
<time>2010-07-17T08:13:19Z</time>
<desc>lat.=55.859200, lon.=26.463610, Alt.=104.622131m. Speed=24.048000m/h.</desc>
<speed>6.680000</speed>
</trkpt>
<trkpt lat="55.859150" lon="26.463543">
<ele>104.301819</ele>
<time>2010-07-17T08:13:20Z</time>
<desc>lat.=55.859150, lon.=26.463543, Alt.=104.301819m. Speed=23.976000m/h.</desc>
<speed>6.660000</speed>
</trkpt>
<trkpt lat="55.859104" lon="26.463490">
<ele>104.602600</ele>
<time>2010-07-17T08:13:21Z</time>
<desc>lat.=55.859104, lon.=26.463490, Alt.=104.602600m. Speed=25.559999m/h.</desc>
<speed>7.100000</speed>
</trkpt>
<trkpt lat="55.859051" lon="26.463423">
<ele>104.502991</ele>
<time>2010-07-17T08:13:22Z</time>
<desc>lat.=55.859051, lon.=26.463423, Alt.=104.502991m. Speed=26.172001m/h.</desc>
<speed>7.270000</speed>
</trkpt>
<trkpt lat="55.859001" lon="26.463362">
<ele>104.452209</ele>
<time>2010-07-17T08:13:23Z</time>
<desc>lat.=55.859001, lon.=26.463362, Alt.=104.452209m. Speed=24.624001m/h.</desc>
<speed>6.840000</speed>
</trkpt>
<trkpt lat="55.858948" lon="26.463303">
<ele>104.446350</ele>
<time>2010-07-17T08:13:24Z</time>
<desc>lat.=55.858948, lon.=26.463303, Alt.=104.446350m. Speed=24.444000m/h.</desc>
<speed>6.790000</speed>
</trkpt>
<trkpt lat="55.858898" lon="26.463232">
<ele>104.272522</ele>
<time>2010-07-17T08:13:25Z</time>
<desc>lat.=55.858898, lon.=26.463232, Alt.=104.272522m. Speed=25.848000m/h.</desc>
<speed>7.180000</speed>
</trkpt>
<trkpt lat="55.858852" lon="26.463156">
<ele>104.438538</ele>
<time>2010-07-17T08:13:26Z</time>
<desc>lat.=55.858852, lon.=26.463156, Alt.=104.438538m. Speed=24.983999m/h.</desc>
<speed>6.940000</speed>
</trkpt>
<trkpt lat="55.858803" lon="26.463089">
<ele>104.422913</ele>
<time>2010-07-17T08:13:27Z</time>
<desc>lat.=55.858803, lon.=26.463089, Alt.=104.422913m. Speed=24.875999m/h.</desc>
<speed>6.910000</speed>
</trkpt>
<trkpt lat="55.858757" lon="26.463026">
<ele>104.376038</ele>
<time>2010-07-17T08:13:28Z</time>
<desc>lat.=55.858757, lon.=26.463026, Alt.=104.376038m. Speed=24.299999m/h.</desc>
<speed>6.750000</speed>
</trkpt>
<trkpt lat="55.858707" lon="26.462965">
<ele>104.387756</ele>
<time>2010-07-17T08:13:29Z</time>
<desc>lat.=55.858707, lon.=26.462965, Alt.=104.387756m. Speed=23.580000m/h.</desc>
<speed>6.550000</speed>
</trkpt>
<trkpt lat="55.858658" lon="26.462900">
<ele>104.276428</ele>
<time>2010-07-17T08:13:30Z</time>
<desc>lat.=55.858658, lon.=26.462900, Alt.=104.276428m. Speed=25.308001m/h.</desc>
<speed>7.030000</speed>
</trkpt>
<trkpt lat="55.858604" lon="26.462828">
<ele>104.079163</ele>
<time>2010-07-17T08:13:31Z</time>
<desc>lat.=55.858604, lon.=26.462828, Alt.=104.079163m. Speed=24.624001m/h.</desc>
<speed>6.840000</speed>
</trkpt>
<trkpt lat="55.858562" lon="26.462770">
<ele>103.973694</ele>
<time>2010-07-17T08:13:32Z</time>
<desc>lat.=55.858562, lon.=26.462770, Alt.=103.973694m. Speed=22.680000m/h.</desc>
<speed>6.300000</speed>
</trkpt>
<trkpt lat="55.858521" lon="26.462717">
<ele>103.954163</ele>
<time>2010-07-17T08:13:33Z</time>
<desc>lat.=55.858521, lon.=26.462717, Alt.=103.954163m. Speed=24.084000m/h.</desc>
<speed>6.690000</speed>
</trkpt>
<trkpt lat="55.858471" lon="26.462650">
<ele>103.854553</ele>
<time>2010-07-17T08:13:34Z</time>
<desc>lat.=55.858471, lon.=26.462650, Alt.=103.854553m. Speed=25.775999m/h.</desc>
<speed>7.160000</speed>
</trkpt>
<trkpt lat="55.858418" lon="26.462582">
<ele>103.909241</ele>
<time>2010-07-17T08:13:35Z</time>
<desc>lat.=55.858418, lon.=26.462582, Alt.=103.909241m. Speed=24.983999m/h.</desc>
<speed>6.940000</speed>
</trkpt>
<trkpt lat="55.858364" lon="26.462511">
<ele>103.866272</ele>
<time>2010-07-17T08:13:36Z</time>
<desc>lat.=55.858364, lon.=26.462511, Alt.=103.866272m. Speed=26.136000m/h.</desc>
<speed>7.260000</speed>
</trkpt>
<trkpt lat="55.858311" lon="26.462442">
<ele>103.905334</ele>
<time>2010-07-17T08:13:37Z</time>
<desc>lat.=55.858311, lon.=26.462442, Alt.=103.905334m. Speed=26.856001m/h.</desc>
<speed>7.460000</speed>
</trkpt>
<trkpt lat="55.858257" lon="26.462372">
<ele>103.913147</ele>
<time>2010-07-17T08:13:38Z</time>
<desc>lat.=55.858257, lon.=26.462372, Alt.=103.913147m. Speed=25.559999m/h.</desc>
<speed>7.100000</speed>
</trkpt>
<trkpt lat="55.858208" lon="26.462307">
<ele>103.721741</ele>
<time>2010-07-17T08:13:39Z</time>
<desc>lat.=55.858208, lon.=26.462307, Alt.=103.721741m. Speed=24.587999m/h.</desc>
<speed>6.830000</speed>
</trkpt>
<trkpt lat="55.858158" lon="26.462244">
<ele>103.571350</ele>
<time>2010-07-17T08:13:40Z</time>
<desc>lat.=55.858158, lon.=26.462244, Alt.=103.571350m. Speed=24.264000m/h.</desc>
<speed>6.740000</speed>
</trkpt>
<trkpt lat="55.858112" lon="26.462181">
<ele>103.655334</ele>
<time>2010-07-17T08:13:41Z</time>
<desc>lat.=55.858112, lon.=26.462181, Alt.=103.655334m. Speed=24.228001m/h.</desc>
<speed>6.730000</speed>
</trkpt>
<trkpt lat="55.858059" lon="26.462118">
<ele>103.344788</ele>
<time>2010-07-17T08:13:42Z</time>
<desc>lat.=55.858059, lon.=26.462118, Alt.=103.344788m. Speed=23.040001m/h.</desc>
<speed>6.400000</speed>
</trkpt>
<trkpt lat="55.858009" lon="26.462053">
<ele>103.114319</ele>
<time>2010-07-17T08:13:43Z</time>
<desc>lat.=55.858009, lon.=26.462053, Alt.=103.114319m. Speed=23.400000m/h.</desc>
<speed>6.500000</speed>
</trkpt>
<trkpt lat="55.857960" lon="26.462002">
<ele>103.036194</ele>
<time>2010-07-17T08:13:44Z</time>
<desc>lat.=55.857960, lon.=26.462002, Alt.=103.036194m. Speed=23.507999m/h.</desc>
<speed>6.530000</speed>
</trkpt>
<trkpt lat="55.857914" lon="26.461933">
<ele>103.208069</ele>
<time>2010-07-17T08:13:45Z</time>
<desc>lat.=55.857914, lon.=26.461933, Alt.=103.208069m. Speed=24.552000m/h.</desc>
<speed>6.820000</speed>
</trkpt>
<trkpt lat="55.857864" lon="26.461866">
<ele>103.178772</ele>
<time>2010-07-17T08:13:46Z</time>
<desc>lat.=55.857864, lon.=26.461866, Alt.=103.178772m. Speed=25.632000m/h.</desc>
<speed>7.120000</speed>
</trkpt>
<trkpt lat="55.857807" lon="26.461790">
<ele>103.213928</ele>
<time>2010-07-17T08:13:47Z</time>
<desc>lat.=55.857807, lon.=26.461790, Alt.=103.213928m. Speed=24.299999m/h.</desc>
<speed>6.750000</speed>
</trkpt>
<trkpt lat="55.857758" lon="26.461718">
<ele>103.321350</ele>
<time>2010-07-17T08:13:48Z</time>
<desc>lat.=55.857758, lon.=26.461718, Alt.=103.321350m. Speed=24.732000m/h.</desc>
<speed>6.870000</speed>
</trkpt>
<trkpt lat="55.857716" lon="26.461655">
<ele>103.381897</ele>
<time>2010-07-17T08:13:49Z</time>
<desc>lat.=55.857716, lon.=26.461655, Alt.=103.381897m. Speed=25.452000m/h.</desc>
<speed>7.070000</speed>
</trkpt>
<trkpt lat="55.857670" lon="26.461597">
<ele>104.557678</ele>
<time>2010-07-17T08:13:50Z</time>
<desc>lat.=55.857670, lon.=26.461597, Alt.=104.557678m. Speed=24.048000m/h.</desc>
<speed>6.680000</speed>
</trkpt>
<trkpt lat="55.857624" lon="26.461525">
<ele>105.110413</ele>
<time>2010-07-17T08:13:51Z</time>
<desc>lat.=55.857624, lon.=26.461525, Alt.=105.110413m. Speed=24.695999m/h.</desc>
<speed>6.860000</speed>
</trkpt>
<trkpt lat="55.857567" lon="26.461441">
<ele>105.083069</ele>
<time>2010-07-17T08:13:52Z</time>
<desc>lat.=55.857567, lon.=26.461441, Alt.=105.083069m. Speed=24.299999m/h.</desc>
<speed>6.750000</speed>
</trkpt>
<trkpt lat="55.857521" lon="26.461382">
<ele>104.307678</ele>
<time>2010-07-17T08:13:53Z</time>
<desc>lat.=55.857521, lon.=26.461382, Alt.=104.307678m. Speed=23.615999m/h.</desc>
<speed>6.560000</speed>
</trkpt>
<trkpt lat="55.857471" lon="26.461321">
<ele>104.784241</ele>
<time>2010-07-17T08:13:54Z</time>
<desc>lat.=55.857471, lon.=26.461321, Alt.=104.784241m. Speed=23.472000m/h.</desc>
<speed>6.520000</speed>
</trkpt>
<trkpt lat="55.857430" lon="26.461260">
<ele>106.544006</ele>
<time>2010-07-17T08:13:55Z</time>
<desc>lat.=55.857430, lon.=26.461260, Alt.=106.544006m. Speed=23.724001m/h.</desc>
<speed>6.590000</speed>
</trkpt>
<trkpt lat="55.857384" lon="26.461203">
<ele>107.573303</ele>
<time>2010-07-17T08:13:56Z</time>
<desc>lat.=55.857384, lon.=26.461203, Alt.=107.573303m. Speed=22.392000m/h.</desc>
<speed>6.220000</speed>
</trkpt>
<trkpt lat="55.857338" lon="26.461147">
<ele>107.924866</ele>
<time>2010-07-17T08:13:57Z</time>
<desc>lat.=55.857338, lon.=26.461147, Alt.=107.924866m. Speed=22.068001m/h.</desc>
<speed>6.130000</speed>
</trkpt>
<trkpt lat="55.857292" lon="26.461090">
<ele>107.876038</ele>
<time>2010-07-17T08:13:58Z</time>
<desc>lat.=55.857292, lon.=26.461090, Alt.=107.876038m. Speed=21.996000m/h.</desc>
<speed>6.110000</speed>
</trkpt>
<trkpt lat="55.857246" lon="26.461031">
<ele>108.356506</ele>
<time>2010-07-17T08:13:59Z</time>
<desc>lat.=55.857246, lon.=26.461031, Alt.=108.356506m. Speed=21.563999m/h.</desc>
<speed>5.990000</speed>
</trkpt>
<trkpt lat="55.857204" lon="26.460970">
<ele>108.604553</ele>
<time>2010-07-17T08:14:00Z</time>
<desc>lat.=55.857204, lon.=26.460970, Alt.=108.604553m. Speed=21.420000m/h.</desc>
<speed>5.950000</speed>
</trkpt>
<trkpt lat="55.857166" lon="26.460915">
<ele>108.868225</ele>
<time>2010-07-17T08:14:01Z</time>
<desc>lat.=55.857166, lon.=26.460915, Alt.=108.868225m. Speed=20.087999m/h.</desc>
<speed>5.580000</speed>
</trkpt>
<trkpt lat="55.857124" lon="26.460861">
<ele>108.969788</ele>
<time>2010-07-17T08:14:02Z</time>
<desc>lat.=55.857124, lon.=26.460861, Alt.=108.969788m. Speed=19.799999m/h.</desc>
<speed>5.500000</speed>
</trkpt>
<trkpt lat="55.857082" lon="26.460804">
<ele>108.823303</ele>
<time>2010-07-17T08:14:03Z</time>
<desc>lat.=55.857082, lon.=26.460804, Alt.=108.823303m. Speed=20.340000m/h.</desc>
<speed>5.650000</speed>
</trkpt>
<trkpt lat="55.857040" lon="26.460747">
<ele>108.934631</ele>
<time>2010-07-17T08:14:04Z</time>
<desc>lat.=55.857040, lon.=26.460747, Alt.=108.934631m. Speed=20.412001m/h.</desc>
<speed>5.670000</speed>
</trkpt>
<trkpt lat="55.856998" lon="26.460690">
<ele>108.985413</ele>
<time>2010-07-17T08:14:05Z</time>
<desc>lat.=55.856998, lon.=26.460690, Alt.=108.985413m. Speed=20.736000m/h.</desc>
<speed>5.760000</speed>
</trkpt>
<trkpt lat="55.856960" lon="26.460638">
<ele>109.092834</ele>
<time>2010-07-17T08:14:06Z</time>
<desc>lat.=55.856960, lon.=26.460638, Alt.=109.092834m. Speed=19.656000m/h.</desc>
<speed>5.460000</speed>
</trkpt>
<trkpt lat="55.856922" lon="26.460583">
<ele>109.256897</ele>
<time>2010-07-17T08:14:07Z</time>
<desc>lat.=55.856922, lon.=26.460583, Alt.=109.256897m. Speed=20.591999m/h.</desc>
<speed>5.720000</speed>
</trkpt>
<trkpt lat="55.856880" lon="26.460533">
<ele>109.350647</ele>
<time>2010-07-17T08:14:08Z</time>
<desc>lat.=55.856880, lon.=26.460533, Alt.=109.350647m. Speed=19.908001m/h.</desc>
<speed>5.530000</speed>
</trkpt>
<trkpt lat="55.856838" lon="26.460482">
<ele>109.299866</ele>
<time>2010-07-17T08:14:09Z</time>
<desc>lat.=55.856838, lon.=26.460482, Alt.=109.299866m. Speed=20.591999m/h.</desc>
<speed>5.720000</speed>
</trkpt>
<trkpt lat="55.856800" lon="26.460426">
<ele>109.680725</ele>
<time>2010-07-17T08:14:10Z</time>
<desc>lat.=55.856800, lon.=26.460426, Alt.=109.680725m. Speed=21.132000m/h.</desc>
<speed>5.870000</speed>
</trkpt>
<trkpt lat="55.856758" lon="26.460365">
<ele>109.530334</ele>
<time>2010-07-17T08:14:11Z</time>
<desc>lat.=55.856758, lon.=26.460365, Alt.=109.530334m. Speed=20.304001m/h.</desc>
<speed>5.640000</speed>
</trkpt>
<trkpt lat="55.856712" lon="26.460300">
<ele>109.325256</ele>
<time>2010-07-17T08:14:12Z</time>
<desc>lat.=55.856712, lon.=26.460300, Alt.=109.325256m. Speed=21.384001m/h.</desc>
<speed>5.940000</speed>
</trkpt>
<trkpt lat="55.856670" lon="26.460239">
<ele>108.850647</ele>
<time>2010-07-17T08:14:13Z</time>
<desc>lat.=55.856670, lon.=26.460239, Alt.=108.850647m. Speed=21.455999m/h.</desc>
<speed>5.960000</speed>
</trkpt>
<trkpt lat="55.856625" lon="26.460178">
<ele>109.157288</ele>
<time>2010-07-17T08:14:14Z</time>
<desc>lat.=55.856625, lon.=26.460178, Alt.=109.157288m. Speed=21.167999m/h.</desc>
<speed>5.880000</speed>
</trkpt>
<trkpt lat="55.856579" lon="26.460119">
<ele>109.331116</ele>
<time>2010-07-17T08:14:15Z</time>
<desc>lat.=55.856579, lon.=26.460119, Alt.=109.331116m. Speed=21.563999m/h.</desc>
<speed>5.990000</speed>
</trkpt>
<trkpt lat="55.856537" lon="26.460058">
<ele>109.624084</ele>
<time>2010-07-17T08:14:16Z</time>
<desc>lat.=55.856537, lon.=26.460058, Alt.=109.624084m. Speed=21.492001m/h.</desc>
<speed>5.970000</speed>
</trkpt>
<trkpt lat="55.856491" lon="26.460001">
<ele>110.260803</ele>
<time>2010-07-17T08:14:17Z</time>
<desc>lat.=55.856491, lon.=26.460001, Alt.=110.260803m. Speed=21.636000m/h.</desc>
<speed>6.010000</speed>
</trkpt>
<trkpt lat="55.856449" lon="26.459940">
<ele>110.434631</ele>
<time>2010-07-17T08:14:18Z</time>
<desc>lat.=55.856449, lon.=26.459940, Alt.=110.434631m. Speed=20.988001m/h.</desc>
<speed>5.830000</speed>
</trkpt>
<trkpt lat="55.856411" lon="26.459877">
<ele>110.848694</ele>
<time>2010-07-17T08:14:19Z</time>
<desc>lat.=55.856411, lon.=26.459877, Alt.=110.848694m. Speed=21.672001m/h.</desc>
<speed>6.020000</speed>
</trkpt>
<trkpt lat="55.856365" lon="26.459814">
<ele>111.088928</ele>
<time>2010-07-17T08:14:20Z</time>
<desc>lat.=55.856365, lon.=26.459814, Alt.=111.088928m. Speed=21.420000m/h.</desc>
<speed>5.950000</speed>
</trkpt>
<trkpt lat="55.856323" lon="26.459759">
<ele>110.715881</ele>
<time>2010-07-17T08:14:21Z</time>
<desc>lat.=55.856323, lon.=26.459759, Alt.=110.715881m. Speed=20.268000m/h.</desc>
<speed>5.630000</speed>
</trkpt>
<trkpt lat="55.856281" lon="26.459705">
<ele>110.833069</ele>
<time>2010-07-17T08:14:22Z</time>
<desc>lat.=55.856281, lon.=26.459705, Alt.=110.833069m. Speed=20.087999m/h.</desc>
<speed>5.580000</speed>
</trkpt>
<trkpt lat="55.856239" lon="26.459648">
<ele>111.038147</ele>
<time>2010-07-17T08:14:23Z</time>
<desc>lat.=55.856239, lon.=26.459648, Alt.=111.038147m. Speed=21.384001m/h.</desc>
<speed>5.940000</speed>
</trkpt>
<trkpt lat="55.856194" lon="26.459589">
<ele>111.059631</ele>
<time>2010-07-17T08:14:24Z</time>
<desc>lat.=55.856194, lon.=26.459589, Alt.=111.059631m. Speed=21.743999m/h.</desc>
<speed>6.040000</speed>
</trkpt>
<trkpt lat="55.856155" lon="26.459536">
<ele>111.151428</ele>
<time>2010-07-17T08:14:25Z</time>
<desc>lat.=55.856155, lon.=26.459536, Alt.=111.151428m. Speed=20.879999m/h.</desc>
<speed>5.800000</speed>
</trkpt>
<trkpt lat="55.856110" lon="26.459484">
<ele>110.856506</ele>
<time>2010-07-17T08:14:26Z</time>
<desc>lat.=55.856110, lon.=26.459484, Alt.=110.856506m. Speed=20.052000m/h.</desc>
<speed>5.570000</speed>
</trkpt>
<trkpt lat="55.856068" lon="26.459425">
<ele>111.381897</ele>
<time>2010-07-17T08:14:27Z</time>
<desc>lat.=55.856068, lon.=26.459425, Alt.=111.381897m. Speed=20.736000m/h.</desc>
<speed>5.760000</speed>
</trkpt>
<trkpt lat="55.856030" lon="26.459375">
<ele>112.122131</ele>
<time>2010-07-17T08:14:28Z</time>
<desc>lat.=55.856030, lon.=26.459375, Alt.=112.122131m. Speed=20.016001m/h.</desc>
<speed>5.560000</speed>
</trkpt>
<trkpt lat="55.855988" lon="26.459318">
<ele>112.239319</ele>
<time>2010-07-17T08:14:29Z</time>
<desc>lat.=55.855988, lon.=26.459318, Alt.=112.239319m. Speed=22.464001m/h.</desc>
<speed>6.240000</speed>
</trkpt>
<trkpt lat="55.855942" lon="26.459263">
<ele>112.817444</ele>
<time>2010-07-17T08:14:30Z</time>
<desc>lat.=55.855942, lon.=26.459263, Alt.=112.817444m. Speed=21.204000m/h.</desc>
<speed>5.890000</speed>
</trkpt>
<trkpt lat="55.855896" lon="26.459208">
<ele>113.374084</ele>
<time>2010-07-17T08:14:31Z</time>
<desc>lat.=55.855896, lon.=26.459208, Alt.=113.374084m. Speed=22.464001m/h.</desc>
<speed>6.240000</speed>
</trkpt>
<trkpt lat="55.855850" lon="26.459158">
<ele>113.674866</ele>
<time>2010-07-17T08:14:32Z</time>
<desc>lat.=55.855850, lon.=26.459158, Alt.=113.674866m. Speed=21.167999m/h.</desc>
<speed>5.880000</speed>
</trkpt>
<trkpt lat="55.855808" lon="26.459101">
<ele>114.182678</ele>
<time>2010-07-17T08:14:33Z</time>
<desc>lat.=55.855808, lon.=26.459101, Alt.=114.182678m. Speed=21.024000m/h.</desc>
<speed>5.840000</speed>
</trkpt>
<trkpt lat="55.855766" lon="26.459036">
<ele>114.897522</ele>
<time>2010-07-17T08:14:34Z</time>
<desc>lat.=55.855766, lon.=26.459036, Alt.=114.897522m. Speed=21.563999m/h.</desc>
<speed>5.990000</speed>
</trkpt>
<trkpt lat="55.855724" lon="26.458977">
<ele>115.481506</ele>
<time>2010-07-17T08:14:35Z</time>
<desc>lat.=55.855724, lon.=26.458977, Alt.=115.481506m. Speed=20.736000m/h.</desc>
<speed>5.760000</speed>
</trkpt>
<trkpt lat="55.855682" lon="26.458916">
<ele>115.756897</ele>
<time>2010-07-17T08:14:36Z</time>
<desc>lat.=55.855682, lon.=26.458916, Alt.=115.756897m. Speed=21.312000m/h.</desc>
<speed>5.920000</speed>
</trkpt>
<trkpt lat="55.855644" lon="26.458845">
<ele>115.340881</ele>
<time>2010-07-17T08:14:37Z</time>
<desc>lat.=55.855644, lon.=26.458845, Alt.=115.340881m. Speed=21.167999m/h.</desc>
<speed>5.880000</speed>
</trkpt>
<trkpt lat="55.855598" lon="26.458771">
<ele>114.626038</ele>
<time>2010-07-17T08:14:38Z</time>
<desc>lat.=55.855598, lon.=26.458771, Alt.=114.626038m. Speed=21.132000m/h.</desc>
<speed>5.870000</speed>
</trkpt>
<trkpt lat="55.855549" lon="26.458710">
<ele>114.249084</ele>
<time>2010-07-17T08:14:39Z</time>
<desc>lat.=55.855549, lon.=26.458710, Alt.=114.249084m. Speed=22.212000m/h.</desc>
<speed>6.170000</speed>
</trkpt>
<trkpt lat="55.855503" lon="26.458649">
<ele>114.122131</ele>
<time>2010-07-17T08:14:40Z</time>
<desc>lat.=55.855503, lon.=26.458649, Alt.=114.122131m. Speed=21.059999m/h.</desc>
<speed>5.850000</speed>
</trkpt>
<trkpt lat="55.855461" lon="26.458595">
<ele>114.336975</ele>
<time>2010-07-17T08:14:41Z</time>
<desc>lat.=55.855461, lon.=26.458595, Alt.=114.336975m. Speed=22.032000m/h.</desc>
<speed>6.120000</speed>
</trkpt>
<trkpt lat="55.855415" lon="26.458534">
<ele>114.309631</ele>
<time>2010-07-17T08:14:42Z</time>
<desc>lat.=55.855415, lon.=26.458534, Alt.=114.309631m. Speed=21.455999m/h.</desc>
<speed>5.960000</speed>
</trkpt>
<trkpt lat="55.855370" lon="26.458473">
<ele>113.827209</ele>
<time>2010-07-17T08:14:43Z</time>
<desc>lat.=55.855370, lon.=26.458473, Alt.=113.827209m. Speed=22.068001m/h.</desc>
<speed>6.130000</speed>
</trkpt>
<trkpt lat="55.855328" lon="26.458414">
<ele>114.239319</ele>
<time>2010-07-17T08:14:44Z</time>
<desc>lat.=55.855328, lon.=26.458414, Alt.=114.239319m. Speed=21.132000m/h.</desc>
<speed>5.870000</speed>
</trkpt>
<trkpt lat="55.855289" lon="26.458357">
<ele>115.292053</ele>
<time>2010-07-17T08:14:45Z</time>
<desc>lat.=55.855289, lon.=26.458357, Alt.=115.292053m. Speed=20.879999m/h.</desc>
<speed>5.800000</speed>
</trkpt>
<trkpt lat="55.855244" lon="26.458307">
<ele>115.592834</ele>
<time>2010-07-17T08:14:46Z</time>
<desc>lat.=55.855244, lon.=26.458307, Alt.=115.592834m. Speed=19.440001m/h.</desc>
<speed>5.400000</speed>
</trkpt>
<trkpt lat="55.855206" lon="26.458252">
<ele>116.210022</ele>
<time>2010-07-17T08:14:47Z</time>
<desc>lat.=55.855206, lon.=26.458252, Alt.=116.210022m. Speed=20.052000m/h.</desc>
<speed>5.570000</speed>
</trkpt>
<trkpt lat="55.855164" lon="26.458200">
<ele>116.495178</ele>
<time>2010-07-17T08:14:48Z</time>
<desc>lat.=55.855164, lon.=26.458200, Alt.=116.495178m. Speed=20.591999m/h.</desc>
<speed>5.720000</speed>
</trkpt>
<trkpt lat="55.855125" lon="26.458145">
<ele>116.979553</ele>
<time>2010-07-17T08:14:49Z</time>
<desc>lat.=55.855125, lon.=26.458145, Alt.=116.979553m. Speed=19.620001m/h.</desc>
<speed>5.450000</speed>
</trkpt>
<trkpt lat="55.855083" lon="26.458092">
<ele>116.639709</ele>
<time>2010-07-17T08:14:50Z</time>
<desc>lat.=55.855083, lon.=26.458092, Alt.=116.639709m. Speed=20.771999m/h.</desc>
<speed>5.770000</speed>
</trkpt>
<trkpt lat="55.855038" lon="26.458036">
<ele>116.565491</ele>
<time>2010-07-17T08:14:51Z</time>
<desc>lat.=55.855038, lon.=26.458036, Alt.=116.565491m. Speed=21.167999m/h.</desc>
<speed>5.880000</speed>
</trkpt>
<trkpt lat="55.854996" lon="26.457979">
<ele>116.952209</ele>
<time>2010-07-17T08:14:52Z</time>
<desc>lat.=55.854996, lon.=26.457979, Alt.=116.952209m. Speed=20.771999m/h.</desc>
<speed>5.770000</speed>
</trkpt>
<trkpt lat="55.854954" lon="26.457914">
<ele>117.301819</ele>
<time>2010-07-17T08:14:53Z</time>
<desc>lat.=55.854954, lon.=26.457914, Alt.=117.301819m. Speed=20.232000m/h.</desc>
<speed>5.620000</speed>
</trkpt>
<trkpt lat="55.854912" lon="26.457857">
<ele>117.426819</ele>
<time>2010-07-17T08:14:54Z</time>
<desc>lat.=55.854912, lon.=26.457857, Alt.=117.426819m. Speed=19.872000m/h.</desc>
<speed>5.520000</speed>
</trkpt>
<trkpt lat="55.854874" lon="26.457804">
<ele>117.665100</ele>
<time>2010-07-17T08:14:55Z</time>
<desc>lat.=55.854874, lon.=26.457804, Alt.=117.665100m. Speed=21.240000m/h.</desc>
<speed>5.900000</speed>
</trkpt>
<trkpt lat="55.854832" lon="26.457748">
<ele>117.725647</ele>
<time>2010-07-17T08:14:56Z</time>
<desc>lat.=55.854832, lon.=26.457748, Alt.=117.725647m. Speed=20.195999m/h.</desc>
<speed>5.610000</speed>
</trkpt>
<trkpt lat="55.854786" lon="26.457695">
<ele>117.081116</ele>
<time>2010-07-17T08:14:57Z</time>
<desc>lat.=55.854786, lon.=26.457695, Alt.=117.081116m. Speed=19.476000m/h.</desc>
<speed>5.410000</speed>
</trkpt>
<trkpt lat="55.854740" lon="26.457649">
<ele>116.526428</ele>
<time>2010-07-17T08:14:58Z</time>
<desc>lat.=55.854740, lon.=26.457649, Alt.=116.526428m. Speed=20.700001m/h.</desc>
<speed>5.750000</speed>
</trkpt>
<trkpt lat="55.854698" lon="26.457584">
<ele>116.059631</ele>
<time>2010-07-17T08:14:59Z</time>
<desc>lat.=55.854698, lon.=26.457584, Alt.=116.059631m. Speed=19.980000m/h.</desc>
<speed>5.550000</speed>
</trkpt>
<trkpt lat="55.854660" lon="26.457533">
<ele>116.145569</ele>
<time>2010-07-17T08:15:00Z</time>
<desc>lat.=55.854660, lon.=26.457533, Alt.=116.145569m. Speed=19.980000m/h.</desc>
<speed>5.550000</speed>
</trkpt>
<trkpt lat="55.854622" lon="26.457483">
<ele>116.655334</ele>
<time>2010-07-17T08:15:01Z</time>
<desc>lat.=55.854622, lon.=26.457483, Alt.=116.655334m. Speed=18.936001m/h.</desc>
<speed>5.260000</speed>
</trkpt>
<trkpt lat="55.854588" lon="26.457441">
<ele>116.733459</ele>
<time>2010-07-17T08:15:02Z</time>
<desc>lat.=55.854588, lon.=26.457441, Alt.=116.733459m. Speed=17.676001m/h.</desc>
<speed>4.910000</speed>
</trkpt>
<trkpt lat="55.854549" lon="26.457396">
<ele>115.627991</ele>
<time>2010-07-17T08:15:03Z</time>
<desc>lat.=55.854549, lon.=26.457396, Alt.=115.627991m. Speed=18.323999m/h.</desc>
<speed>5.090000</speed>
</trkpt>
<trkpt lat="55.854511" lon="26.457355">
<ele>115.813538</ele>
<time>2010-07-17T08:15:04Z</time>
<desc>lat.=55.854511, lon.=26.457355, Alt.=115.813538m. Speed=19.224001m/h.</desc>
<speed>5.340000</speed>
</trkpt>
<trkpt lat="55.854477" lon="26.457306">
<ele>115.997131</ele>
<time>2010-07-17T08:15:05Z</time>
<desc>lat.=55.854477, lon.=26.457306, Alt.=115.997131m. Speed=18.360001m/h.</desc>
<speed>5.100000</speed>
</trkpt>
<trkpt lat="55.854439" lon="26.457260">
<ele>116.251038</ele>
<time>2010-07-17T08:15:06Z</time>
<desc>lat.=55.854439, lon.=26.457260, Alt.=116.251038m. Speed=19.260000m/h.</desc>
<speed>5.350000</speed>
</trkpt>
<trkpt lat="55.854401" lon="26.457209">
<ele>116.227600</ele>
<time>2010-07-17T08:15:07Z</time>
<desc>lat.=55.854401, lon.=26.457209, Alt.=116.227600m. Speed=20.195999m/h.</desc>
<speed>5.610000</speed>
</trkpt>
<trkpt lat="55.854362" lon="26.457153">
<ele>115.710022</ele>
<time>2010-07-17T08:15:08Z</time>
<desc>lat.=55.854362, lon.=26.457153, Alt.=115.710022m. Speed=20.448000m/h.</desc>
<speed>5.680000</speed>
</trkpt>
<trkpt lat="55.854313" lon="26.457090">
<ele>115.461975</ele>
<time>2010-07-17T08:15:09Z</time>
<desc>lat.=55.854313, lon.=26.457090, Alt.=115.461975m. Speed=20.771999m/h.</desc>
<speed>5.770000</speed>
</trkpt>
<trkpt lat="55.854275" lon="26.457029">
<ele>115.538147</ele>
<time>2010-07-17T08:15:10Z</time>
<desc>lat.=55.854275, lon.=26.457029, Alt.=115.538147m. Speed=21.275999m/h.</desc>
<speed>5.910000</speed>
</trkpt>
<trkpt lat="55.854233" lon="26.456966">
<ele>116.137756</ele>
<time>2010-07-17T08:15:11Z</time>
<desc>lat.=55.854233, lon.=26.456966, Alt.=116.137756m. Speed=21.240000m/h.</desc>
<speed>5.900000</speed>
</trkpt>
<trkpt lat="55.854191" lon="26.456905">
<ele>116.879944</ele>
<time>2010-07-17T08:15:12Z</time>
<desc>lat.=55.854191, lon.=26.456905, Alt.=116.879944m. Speed=21.563999m/h.</desc>
<speed>5.990000</speed>
</trkpt>
<trkpt lat="55.854145" lon="26.456842">
<ele>117.110413</ele>
<time>2010-07-17T08:15:13Z</time>
<desc>lat.=55.854145, lon.=26.456842, Alt.=117.110413m. Speed=22.788000m/h.</desc>
<speed>6.330000</speed>
</trkpt>
<trkpt lat="55.854099" lon="26.456778">
<ele>117.237366</ele>
<time>2010-07-17T08:15:14Z</time>
<desc>lat.=55.854099, lon.=26.456778, Alt.=117.237366m. Speed=22.320000m/h.</desc>
<speed>6.200000</speed>
</trkpt>
<trkpt lat="55.854053" lon="26.456717">
<ele>117.475647</ele>
<time>2010-07-17T08:15:15Z</time>
<desc>lat.=55.854053, lon.=26.456717, Alt.=117.475647m. Speed=22.176001m/h.</desc>
<speed>6.160000</speed>
</trkpt>
<trkpt lat="55.854004" lon="26.456654">
<ele>117.362366</ele>
<time>2010-07-17T08:15:16Z</time>
<desc>lat.=55.854004, lon.=26.456654, Alt.=117.362366m. Speed=22.247999m/h.</desc>
<speed>6.180000</speed>
</trkpt>
<trkpt lat="55.853958" lon="26.456596">
<ele>117.219788</ele>
<time>2010-07-17T08:15:17Z</time>
<desc>lat.=55.853958, lon.=26.456596, Alt.=117.219788m. Speed=22.139999m/h.</desc>
<speed>6.150000</speed>
</trkpt>
<trkpt lat="55.853912" lon="26.456537">
<ele>117.362366</ele>
<time>2010-07-17T08:15:18Z</time>
<desc>lat.=55.853912, lon.=26.456537, Alt.=117.362366m. Speed=20.952000m/h.</desc>
<speed>5.820000</speed>
</trkpt>
<trkpt lat="55.853870" lon="26.456480">
<ele>117.487366</ele>
<time>2010-07-17T08:15:19Z</time>
<desc>lat.=55.853870, lon.=26.456480, Alt.=117.487366m. Speed=21.204000m/h.</desc>
<speed>5.890000</speed>
</trkpt>
<trkpt lat="55.853825" lon="26.456417">
<ele>117.774475</ele>
<time>2010-07-17T08:15:20Z</time>
<desc>lat.=55.853825, lon.=26.456417, Alt.=117.774475m. Speed=19.656000m/h.</desc>
<speed>5.460000</speed>
</trkpt>
<trkpt lat="55.853786" lon="26.456369">
<ele>117.928772</ele>
<time>2010-07-17T08:15:21Z</time>
<desc>lat.=55.853786, lon.=26.456369, Alt.=117.928772m. Speed=17.351999m/h.</desc>
<speed>4.820000</speed>
</trkpt>
<trkpt lat="55.853752" lon="26.456312">
<ele>118.405334</ele>
<time>2010-07-17T08:15:22Z</time>
<desc>lat.=55.853752, lon.=26.456312, Alt.=118.405334m. Speed=18.576000m/h.</desc>
<speed>5.160000</speed>
</trkpt>
<trkpt lat="55.853710" lon="26.456249">
<ele>118.747131</ele>
<time>2010-07-17T08:15:23Z</time>
<desc>lat.=55.853710, lon.=26.456249, Alt.=118.747131m. Speed=20.628000m/h.</desc>
<speed>5.730000</speed>
</trkpt>
<trkpt lat="55.853657" lon="26.456184">
<ele>118.852600</ele>
<time>2010-07-17T08:15:24Z</time>
<desc>lat.=55.853657, lon.=26.456184, Alt.=118.852600m. Speed=21.024000m/h.</desc>
<speed>5.840000</speed>
</trkpt>
<trkpt lat="55.853615" lon="26.456121">
<ele>119.192444</ele>
<time>2010-07-17T08:15:25Z</time>
<desc>lat.=55.853615, lon.=26.456121, Alt.=119.192444m. Speed=20.808001m/h.</desc>
<speed>5.780000</speed>
</trkpt>
<trkpt lat="55.853577" lon="26.456059">
<ele>119.571350</ele>
<time>2010-07-17T08:15:26Z</time>
<desc>lat.=55.853577, lon.=26.456059, Alt.=119.571350m. Speed=20.556000m/h.</desc>
<speed>5.710000</speed>
</trkpt>
<trkpt lat="55.853535" lon="26.456005">
<ele>119.243225</ele>
<time>2010-07-17T08:15:27Z</time>
<desc>lat.=55.853535, lon.=26.456005, Alt.=119.243225m. Speed=20.628000m/h.</desc>
<speed>5.730000</speed>
</trkpt>
<trkpt lat="55.853497" lon="26.455952">
<ele>119.364319</ele>
<time>2010-07-17T08:15:28Z</time>
<desc>lat.=55.853497, lon.=26.455952, Alt.=119.364319m. Speed=20.556000m/h.</desc>
<speed>5.710000</speed>
</trkpt>
<trkpt lat="55.853458" lon="26.455893">
<ele>119.389709</ele>
<time>2010-07-17T08:15:29Z</time>
<desc>lat.=55.853458, lon.=26.455893, Alt.=119.389709m. Speed=20.375999m/h.</desc>
<speed>5.660000</speed>
</trkpt>
<trkpt lat="55.853416" lon="26.455832">
<ele>119.643616</ele>
<time>2010-07-17T08:15:30Z</time>
<desc>lat.=55.853416, lon.=26.455832, Alt.=119.643616m. Speed=19.944000m/h.</desc>
<speed>5.540000</speed>
</trkpt>
<trkpt lat="55.853374" lon="26.455772">
<ele>119.524475</ele>
<time>2010-07-17T08:15:31Z</time>
<desc>lat.=55.853374, lon.=26.455772, Alt.=119.524475m. Speed=21.600000m/h.</desc>
<speed>6.000000</speed>
</trkpt>
<trkpt lat="55.853333" lon="26.455708">
<ele>118.993225</ele>
<time>2010-07-17T08:15:32Z</time>
<desc>lat.=55.853333, lon.=26.455708, Alt.=118.993225m. Speed=21.924000m/h.</desc>
<speed>6.090000</speed>
</trkpt>
<trkpt lat="55.853291" lon="26.455652">
<ele>118.842834</ele>
<time>2010-07-17T08:15:33Z</time>
<desc>lat.=55.853291, lon.=26.455652, Alt.=118.842834m. Speed=20.412001m/h.</desc>
<speed>5.670000</speed>
</trkpt>
<trkpt lat="55.853245" lon="26.455603">
<ele>118.368225</ele>
<time>2010-07-17T08:15:34Z</time>
<desc>lat.=55.853245, lon.=26.455603, Alt.=118.368225m. Speed=19.115999m/h.</desc>
<speed>5.310000</speed>
</trkpt>
<trkpt lat="55.853214" lon="26.455563">
<ele>118.893616</ele>
<time>2010-07-17T08:15:35Z</time>
<desc>lat.=55.853214, lon.=26.455563, Alt.=118.893616m. Speed=19.115999m/h.</desc>
<speed>5.310000</speed>
</trkpt>
<trkpt lat="55.853176" lon="26.455519">
<ele>119.247131</ele>
<time>2010-07-17T08:15:36Z</time>
<desc>lat.=55.853176, lon.=26.455519, Alt.=119.247131m. Speed=19.080000m/h.</desc>
<speed>5.300000</speed>
</trkpt>
<trkpt lat="55.853138" lon="26.455471">
<ele>119.065491</ele>
<time>2010-07-17T08:15:37Z</time>
<desc>lat.=55.853138, lon.=26.455471, Alt.=119.065491m. Speed=20.736000m/h.</desc>
<speed>5.760000</speed>
</trkpt>
<trkpt lat="55.853104" lon="26.455421">
<ele>119.323303</ele>
<time>2010-07-17T08:15:38Z</time>
<desc>lat.=55.853104, lon.=26.455421, Alt.=119.323303m. Speed=19.260000m/h.</desc>
<speed>5.350000</speed>
</trkpt>
<trkpt lat="55.853069" lon="26.455376">
<ele>120.032288</ele>
<time>2010-07-17T08:15:39Z</time>
<desc>lat.=55.853069, lon.=26.455376, Alt.=120.032288m. Speed=18.864000m/h.</desc>
<speed>5.240000</speed>
</trkpt>
<trkpt lat="55.853031" lon="26.455328">
<ele>120.223694</ele>
<time>2010-07-17T08:15:40Z</time>
<desc>lat.=55.853031, lon.=26.455328, Alt.=120.223694m. Speed=18.936001m/h.</desc>
<speed>5.260000</speed>
</trkpt>
<trkpt lat="55.852997" lon="26.455284">
<ele>120.420959</ele>
<time>2010-07-17T08:15:41Z</time>
<desc>lat.=55.852997, lon.=26.455284, Alt.=120.420959m. Speed=19.080000m/h.</desc>
<speed>5.300000</speed>
</trkpt>
<trkpt lat="55.852951" lon="26.455227">
<ele>120.346741</ele>
<time>2010-07-17T08:15:42Z</time>
<desc>lat.=55.852951, lon.=26.455227, Alt.=120.346741m. Speed=19.836000m/h.</desc>
<speed>5.510000</speed>
</trkpt>
<trkpt lat="55.852901" lon="26.455166">
<ele>120.106506</ele>
<time>2010-07-17T08:15:43Z</time>
<desc>lat.=55.852901, lon.=26.455166, Alt.=120.106506m. Speed=20.879999m/h.</desc>
<speed>5.800000</speed>
</trkpt>
<trkpt lat="55.852856" lon="26.455097">
<ele>120.002991</ele>
<time>2010-07-17T08:15:44Z</time>
<desc>lat.=55.852856, lon.=26.455097, Alt.=120.002991m. Speed=22.104000m/h.</desc>
<speed>6.140000</speed>
</trkpt>
<trkpt lat="55.852810" lon="26.455027">
<ele>119.165100</ele>
<time>2010-07-17T08:15:45Z</time>
<desc>lat.=55.852810, lon.=26.455027, Alt.=119.165100m. Speed=22.427999m/h.</desc>
<speed>6.230000</speed>
</trkpt>
<trkpt lat="55.852760" lon="26.454966">
<ele>118.760803</ele>
<time>2010-07-17T08:15:46Z</time>
<desc>lat.=55.852760, lon.=26.454966, Alt.=118.760803m. Speed=23.724001m/h.</desc>
<speed>6.590000</speed>
</trkpt>
<trkpt lat="55.852711" lon="26.454905">
<ele>118.749084</ele>
<time>2010-07-17T08:15:47Z</time>
<desc>lat.=55.852711, lon.=26.454905, Alt.=118.749084m. Speed=22.427999m/h.</desc>
<speed>6.230000</speed>
</trkpt>
<trkpt lat="55.852669" lon="26.454847">
<ele>118.809631</ele>
<time>2010-07-17T08:15:48Z</time>
<desc>lat.=55.852669, lon.=26.454847, Alt.=118.809631m. Speed=23.004000m/h.</desc>
<speed>6.390000</speed>
</trkpt>
<trkpt lat="55.852623" lon="26.454786">
<ele>118.876038</ele>
<time>2010-07-17T08:15:49Z</time>
<desc>lat.=55.852623, lon.=26.454786, Alt.=118.876038m. Speed=22.464001m/h.</desc>
<speed>6.240000</speed>
</trkpt>
<trkpt lat="55.852581" lon="26.454718">
<ele>119.413147</ele>
<time>2010-07-17T08:15:50Z</time>
<desc>lat.=55.852581, lon.=26.454718, Alt.=119.413147m. Speed=21.780001m/h.</desc>
<speed>6.050000</speed>
</trkpt>
<trkpt lat="55.852535" lon="26.454660">
<ele>119.417053</ele>
<time>2010-07-17T08:15:51Z</time>
<desc>lat.=55.852535, lon.=26.454660, Alt.=119.417053m. Speed=20.232000m/h.</desc>
<speed>5.620000</speed>
</trkpt>
<trkpt lat="55.852489" lon="26.454609">
<ele>119.249084</ele>
<time>2010-07-17T08:15:52Z</time>
<desc>lat.=55.852489, lon.=26.454609, Alt.=119.249084m. Speed=20.195999m/h.</desc>
<speed>5.610000</speed>
</trkpt>
<trkpt lat="55.852448" lon="26.454561">
<ele>119.180725</ele>
<time>2010-07-17T08:15:53Z</time>
<desc>lat.=55.852448, lon.=26.454561, Alt.=119.180725m. Speed=19.764000m/h.</desc>
<speed>5.490000</speed>
</trkpt>
<trkpt lat="55.852406" lon="26.454510">
<ele>119.077209</ele>
<time>2010-07-17T08:15:54Z</time>
<desc>lat.=55.852406, lon.=26.454510, Alt.=119.077209m. Speed=20.124001m/h.</desc>
<speed>5.590000</speed>
</trkpt>
<trkpt lat="55.852360" lon="26.454447">
<ele>118.893616</ele>
<time>2010-07-17T08:15:55Z</time>
<desc>lat.=55.852360, lon.=26.454447, Alt.=118.893616m. Speed=20.664000m/h.</desc>
<speed>5.740000</speed>
</trkpt>
<trkpt lat="55.852318" lon="26.454391">
<ele>119.088928</ele>
<time>2010-07-17T08:15:56Z</time>
<desc>lat.=55.852318, lon.=26.454391, Alt.=119.088928m. Speed=20.195999m/h.</desc>
<speed>5.610000</speed>
</trkpt>
<trkpt lat="55.852268" lon="26.454334">
<ele>119.301819</ele>
<time>2010-07-17T08:15:57Z</time>
<desc>lat.=55.852268, lon.=26.454334, Alt.=119.301819m. Speed=19.548000m/h.</desc>
<speed>5.430000</speed>
</trkpt>
<trkpt lat="55.852226" lon="26.454277">
<ele>119.530334</ele>
<time>2010-07-17T08:15:58Z</time>
<desc>lat.=55.852226, lon.=26.454277, Alt.=119.530334m. Speed=20.664000m/h.</desc>
<speed>5.740000</speed>
</trkpt>
<trkpt lat="55.852180" lon="26.454216">
<ele>119.795959</ele>
<time>2010-07-17T08:15:59Z</time>
<desc>lat.=55.852180, lon.=26.454216, Alt.=119.795959m. Speed=22.608000m/h.</desc>
<speed>6.280000</speed>
</trkpt>
<trkpt lat="55.852131" lon="26.454149">
<ele>120.282288</ele>
<time>2010-07-17T08:16:00Z</time>
<desc>lat.=55.852131, lon.=26.454149, Alt.=120.282288m. Speed=21.888000m/h.</desc>
<speed>6.080000</speed>
</trkpt>
<trkpt lat="55.852089" lon="26.454086">
<ele>120.885803</ele>
<time>2010-07-17T08:16:01Z</time>
<desc>lat.=55.852089, lon.=26.454086, Alt.=120.885803m. Speed=21.743999m/h.</desc>
<speed>6.040000</speed>
</trkpt>
<trkpt lat="55.852051" lon="26.454018">
<ele>121.600647</ele>
<time>2010-07-17T08:16:02Z</time>
<desc>lat.=55.852051, lon.=26.454018, Alt.=121.600647m. Speed=21.132000m/h.</desc>
<speed>5.870000</speed>
</trkpt>
<trkpt lat="55.852013" lon="26.453959">
<ele>122.063538</ele>
<time>2010-07-17T08:16:03Z</time>
<desc>lat.=55.852013, lon.=26.453959, Alt.=122.063538m. Speed=20.160000m/h.</desc>
<speed>5.600000</speed>
</trkpt>
<trkpt lat="55.851974" lon="26.453903">
<ele>122.366272</ele>
<time>2010-07-17T08:16:04Z</time>
<desc>lat.=55.851974, lon.=26.453903, Alt.=122.366272m. Speed=18.684000m/h.</desc>
<speed>5.190000</speed>
</trkpt>
<trkpt lat="55.851936" lon="26.453848">
<ele>122.461975</ele>
<time>2010-07-17T08:16:05Z</time>
<desc>lat.=55.851936, lon.=26.453848, Alt.=122.461975m. Speed=19.403999m/h.</desc>
<speed>5.390000</speed>
</trkpt>
<trkpt lat="55.851894" lon="26.453794">
<ele>122.565491</ele>
<time>2010-07-17T08:16:06Z</time>
<desc>lat.=55.851894, lon.=26.453794, Alt.=122.565491m. Speed=20.195999m/h.</desc>
<speed>5.610000</speed>
</trkpt>
<trkpt lat="55.851852" lon="26.453741">
<ele>122.522522</ele>
<time>2010-07-17T08:16:07Z</time>
<desc>lat.=55.851852, lon.=26.453741, Alt.=122.522522m. Speed=21.384001m/h.</desc>
<speed>5.940000</speed>
</trkpt>
<trkpt lat="55.851814" lon="26.453691">
<ele>122.395569</ele>
<time>2010-07-17T08:16:08Z</time>
<desc>lat.=55.851814, lon.=26.453691, Alt.=122.395569m. Speed=20.412001m/h.</desc>
<speed>5.670000</speed>
</trkpt>
<trkpt lat="55.851768" lon="26.453642">
<ele>122.379944</ele>
<time>2010-07-17T08:16:09Z</time>
<desc>lat.=55.851768, lon.=26.453642, Alt.=122.379944m. Speed=20.628000m/h.</desc>
<speed>5.730000</speed>
</trkpt>
<trkpt lat="55.851723" lon="26.453583">
<ele>122.833069</ele>
<time>2010-07-17T08:16:10Z</time>
<desc>lat.=55.851723, lon.=26.453583, Alt.=122.833069m. Speed=21.096001m/h.</desc>
<speed>5.860000</speed>
</trkpt>
<trkpt lat="55.851681" lon="26.453520">
<ele>123.198303</ele>
<time>2010-07-17T08:16:11Z</time>
<desc>lat.=55.851681, lon.=26.453520, Alt.=123.198303m. Speed=20.556000m/h.</desc>
<speed>5.710000</speed>
</trkpt>
<trkpt lat="55.851643" lon="26.453466">
<ele>123.588928</ele>
<time>2010-07-17T08:16:12Z</time>
<desc>lat.=55.851643, lon.=26.453466, Alt.=123.588928m. Speed=19.764000m/h.</desc>
<speed>5.490000</speed>
</trkpt>
<trkpt lat="55.851601" lon="26.453409">
<ele>123.838928</ele>
<time>2010-07-17T08:16:13Z</time>
<desc>lat.=55.851601, lon.=26.453409, Alt.=123.838928m. Speed=19.836000m/h.</desc>
<speed>5.510000</speed>
</trkpt>
<trkpt lat="55.851563" lon="26.453356">
<ele>123.995178</ele>
<time>2010-07-17T08:16:14Z</time>
<desc>lat.=55.851563, lon.=26.453356, Alt.=123.995178m. Speed=21.204000m/h.</desc>
<speed>5.890000</speed>
</trkpt>
<trkpt lat="55.851521" lon="26.453299">
<ele>123.989319</ele>
<time>2010-07-17T08:16:15Z</time>
<desc>lat.=55.851521, lon.=26.453299, Alt.=123.989319m. Speed=20.520000m/h.</desc>
<speed>5.700000</speed>
</trkpt>
<trkpt lat="55.851475" lon="26.453239">
<ele>124.419006</ele>
<time>2010-07-17T08:16:16Z</time>
<desc>lat.=55.851475, lon.=26.453239, Alt.=124.419006m. Speed=20.736000m/h.</desc>
<speed>5.760000</speed>
</trkpt>
<trkpt lat="55.851437" lon="26.453176">
<ele>124.485413</ele>
<time>2010-07-17T08:16:17Z</time>
<desc>lat.=55.851437, lon.=26.453176, Alt.=124.485413m. Speed=20.375999m/h.</desc>
<speed>5.660000</speed>
</trkpt>
<trkpt lat="55.851395" lon="26.453121">
<ele>124.346741</ele>
<time>2010-07-17T08:16:18Z</time>
<desc>lat.=55.851395, lon.=26.453121, Alt.=124.346741m. Speed=22.500000m/h.</desc>
<speed>6.250000</speed>
</trkpt>
<trkpt lat="55.851353" lon="26.453066">
<ele>124.596741</ele>
<time>2010-07-17T08:16:19Z</time>
<desc>lat.=55.851353, lon.=26.453066, Alt.=124.596741m. Speed=21.528000m/h.</desc>
<speed>5.980000</speed>
</trkpt>
<trkpt lat="55.851307" lon="26.453009">
<ele>124.629944</ele>
<time>2010-07-17T08:16:20Z</time>
<desc>lat.=55.851307, lon.=26.453009, Alt.=124.629944m. Speed=22.500000m/h.</desc>
<speed>6.250000</speed>
</trkpt>
<trkpt lat="55.851257" lon="26.452948">
<ele>124.776428</ele>
<time>2010-07-17T08:16:21Z</time>
<desc>lat.=55.851257, lon.=26.452948, Alt.=124.776428m. Speed=21.924000m/h.</desc>
<speed>6.090000</speed>
</trkpt>
<trkpt lat="55.851215" lon="26.452892">
<ele>124.247131</ele>
<time>2010-07-17T08:16:22Z</time>
<desc>lat.=55.851215, lon.=26.452892, Alt.=124.247131m. Speed=20.448000m/h.</desc>
<speed>5.680000</speed>
</trkpt>
<trkpt lat="55.851173" lon="26.452835">
<ele>123.948303</ele>
<time>2010-07-17T08:16:23Z</time>
<desc>lat.=55.851173, lon.=26.452835, Alt.=123.948303m. Speed=20.591999m/h.</desc>
<speed>5.720000</speed>
</trkpt>
<trkpt lat="55.851128" lon="26.452780">
<ele>123.631897</ele>
<time>2010-07-17T08:16:24Z</time>
<desc>lat.=55.851128, lon.=26.452780, Alt.=123.631897m. Speed=21.851999m/h.</desc>
<speed>6.070000</speed>
</trkpt>
<trkpt lat="55.851078" lon="26.452726">
<ele>123.292053</ele>
<time>2010-07-17T08:16:25Z</time>
<desc>lat.=55.851078, lon.=26.452726, Alt.=123.292053m. Speed=21.924000m/h.</desc>
<speed>6.090000</speed>
</trkpt>
<trkpt lat="55.851028" lon="26.452662">
<ele>123.303772</ele>
<time>2010-07-17T08:16:26Z</time>
<desc>lat.=55.851028, lon.=26.452662, Alt.=123.303772m. Speed=22.823999m/h.</desc>
<speed>6.340000</speed>
</trkpt>
<trkpt lat="55.850979" lon="26.452600">
<ele>121.290100</ele>
<time>2010-07-17T08:16:27Z</time>
<desc>lat.=55.850979, lon.=26.452600, Alt.=121.290100m. Speed=22.572001m/h.</desc>
<speed>6.270000</speed>
</trkpt>
<trkpt lat="55.850929" lon="26.452538">
<ele>121.467834</ele>
<time>2010-07-17T08:16:28Z</time>
<desc>lat.=55.850929, lon.=26.452538, Alt.=121.467834m. Speed=22.931999m/h.</desc>
<speed>6.370000</speed>
</trkpt>
<trkpt lat="55.850883" lon="26.452478">
<ele>121.590881</ele>
<time>2010-07-17T08:16:29Z</time>
<desc>lat.=55.850883, lon.=26.452478, Alt.=121.590881m. Speed=23.544001m/h.</desc>
<speed>6.540000</speed>
</trkpt>
<trkpt lat="55.850842" lon="26.452406">
<ele>121.268616</ele>
<time>2010-07-17T08:16:30Z</time>
<desc>lat.=55.850842, lon.=26.452406, Alt.=121.268616m. Speed=21.816000m/h.</desc>
<speed>6.060000</speed>
</trkpt>
<trkpt lat="55.850800" lon="26.452337">
<ele>121.850647</ele>
<time>2010-07-17T08:16:31Z</time>
<desc>lat.=55.850800, lon.=26.452337, Alt.=121.850647m. Speed=23.076000m/h.</desc>
<speed>6.410000</speed>
</trkpt>
<trkpt lat="55.850746" lon="26.452272">
<ele>121.583069</ele>
<time>2010-07-17T08:16:32Z</time>
<desc>lat.=55.850746, lon.=26.452272, Alt.=121.583069m. Speed=23.219999m/h.</desc>
<speed>6.450000</speed>
</trkpt>
<trkpt lat="55.850693" lon="26.452208">
<ele>120.504944</ele>
<time>2010-07-17T08:16:33Z</time>
<desc>lat.=55.850693, lon.=26.452208, Alt.=120.504944m. Speed=21.924000m/h.</desc>
<speed>6.090000</speed>
</trkpt>
<trkpt lat="55.850647" lon="26.452143">
<ele>120.155334</ele>
<time>2010-07-17T08:16:34Z</time>
<desc>lat.=55.850647, lon.=26.452143, Alt.=120.155334m. Speed=21.312000m/h.</desc>
<speed>5.920000</speed>
</trkpt>
<trkpt lat="55.850601" lon="26.452082">
<ele>120.126038</ele>
<time>2010-07-17T08:16:35Z</time>
<desc>lat.=55.850601, lon.=26.452082, Alt.=120.126038m. Speed=22.032000m/h.</desc>
<speed>6.120000</speed>
</trkpt>
<trkpt lat="55.850555" lon="26.452013">
<ele>120.204163</ele>
<time>2010-07-17T08:16:36Z</time>
<desc>lat.=55.850555, lon.=26.452013, Alt.=120.204163m. Speed=22.104000m/h.</desc>
<speed>6.140000</speed>
</trkpt>
<trkpt lat="55.850513" lon="26.451962">
<ele>120.817444</ele>
<time>2010-07-17T08:16:37Z</time>
<desc>lat.=55.850513, lon.=26.451962, Alt.=120.817444m. Speed=21.708000m/h.</desc>
<speed>6.030000</speed>
</trkpt>
<trkpt lat="55.850475" lon="26.451908">
<ele>121.018616</ele>
<time>2010-07-17T08:16:38Z</time>
<desc>lat.=55.850475, lon.=26.451908, Alt.=121.018616m. Speed=21.636000m/h.</desc>
<speed>6.010000</speed>
</trkpt>
<trkpt lat="55.850437" lon="26.451855">
<ele>120.756897</ele>
<time>2010-07-17T08:16:39Z</time>
<desc>lat.=55.850437, lon.=26.451855, Alt.=120.756897m. Speed=22.427999m/h.</desc>
<speed>6.230000</speed>
</trkpt>
<trkpt lat="55.850395" lon="26.451790">
<ele>120.686584</ele>
<time>2010-07-17T08:16:40Z</time>
<desc>lat.=55.850395, lon.=26.451790, Alt.=120.686584m. Speed=23.004000m/h.</desc>
<speed>6.390000</speed>
</trkpt>
<trkpt lat="55.850353" lon="26.451727">
<ele>120.692444</ele>
<time>2010-07-17T08:16:41Z</time>
<desc>lat.=55.850353, lon.=26.451727, Alt.=120.692444m. Speed=22.860001m/h.</desc>
<speed>6.350000</speed>
</trkpt>
<trkpt lat="55.850307" lon="26.451668">
<ele>120.514709</ele>
<time>2010-07-17T08:16:42Z</time>
<desc>lat.=55.850307, lon.=26.451668, Alt.=120.514709m. Speed=22.716000m/h.</desc>
<speed>6.310000</speed>
</trkpt>
<trkpt lat="55.850262" lon="26.451614">
<ele>120.596741</ele>
<time>2010-07-17T08:16:43Z</time>
<desc>lat.=55.850262, lon.=26.451614, Alt.=120.596741m. Speed=21.743999m/h.</desc>
<speed>6.040000</speed>
</trkpt>
<trkpt lat="55.850224" lon="26.451559">
<ele>121.188538</ele>
<time>2010-07-17T08:16:44Z</time>
<desc>lat.=55.850224, lon.=26.451559, Alt.=121.188538m. Speed=20.160000m/h.</desc>
<speed>5.600000</speed>
</trkpt>
<trkpt lat="55.850185" lon="26.451508">
<ele>122.030334</ele>
<time>2010-07-17T08:16:45Z</time>
<desc>lat.=55.850185, lon.=26.451508, Alt.=122.030334m. Speed=21.024000m/h.</desc>
<speed>5.840000</speed>
</trkpt>
<trkpt lat="55.850140" lon="26.451447">
<ele>121.848694</ele>
<time>2010-07-17T08:16:46Z</time>
<desc>lat.=55.850140, lon.=26.451447, Alt.=121.848694m. Speed=20.952000m/h.</desc>
<speed>5.820000</speed>
</trkpt>
<trkpt lat="55.850094" lon="26.451387">
<ele>121.782288</ele>
<time>2010-07-17T08:16:47Z</time>
<desc>lat.=55.850094, lon.=26.451387, Alt.=121.782288m. Speed=22.535999m/h.</desc>
<speed>6.260000</speed>
</trkpt>
<trkpt lat="55.850048" lon="26.451332">
<ele>122.038147</ele>
<time>2010-07-17T08:16:48Z</time>
<desc>lat.=55.850048, lon.=26.451332, Alt.=122.038147m. Speed=20.952000m/h.</desc>
<speed>5.820000</speed>
</trkpt>
<trkpt lat="55.850010" lon="26.451273">
<ele>121.809631</ele>
<time>2010-07-17T08:16:49Z</time>
<desc>lat.=55.850010, lon.=26.451273, Alt.=121.809631m. Speed=20.700001m/h.</desc>
<speed>5.750000</speed>
</trkpt>
<trkpt lat="55.849968" lon="26.451218">
<ele>121.725647</ele>
<time>2010-07-17T08:16:50Z</time>
<desc>lat.=55.849968, lon.=26.451218, Alt.=121.725647m. Speed=20.124001m/h.</desc>
<speed>5.590000</speed>
</trkpt>
<trkpt lat="55.849926" lon="26.451159">
<ele>121.309631</ele>
<time>2010-07-17T08:16:51Z</time>
<desc>lat.=55.849926, lon.=26.451159, Alt.=121.309631m. Speed=20.736000m/h.</desc>
<speed>5.760000</speed>
</trkpt>
<trkpt lat="55.849884" lon="26.451099">
<ele>121.336975</ele>
<time>2010-07-17T08:16:52Z</time>
<desc>lat.=55.849884, lon.=26.451099, Alt.=121.336975m. Speed=20.952000m/h.</desc>
<speed>5.820000</speed>
</trkpt>
<trkpt lat="55.849838" lon="26.451038">
<ele>120.174866</ele>
<time>2010-07-17T08:16:53Z</time>
<desc>lat.=55.849838, lon.=26.451038, Alt.=120.174866m. Speed=20.160000m/h.</desc>
<speed>5.600000</speed>
</trkpt>
<trkpt lat="55.849796" lon="26.450979">
<ele>119.922913</ele>
<time>2010-07-17T08:16:54Z</time>
<desc>lat.=55.849796, lon.=26.450979, Alt.=119.922913m. Speed=20.375999m/h.</desc>
<speed>5.660000</speed>
</trkpt>
<trkpt lat="55.849754" lon="26.450922">
<ele>119.739319</ele>
<time>2010-07-17T08:16:55Z</time>
<desc>lat.=55.849754, lon.=26.450922, Alt.=119.739319m. Speed=20.160000m/h.</desc>
<speed>5.600000</speed>
</trkpt>
<trkpt lat="55.849712" lon="26.450869">
<ele>119.649475</ele>
<time>2010-07-17T08:16:56Z</time>
<desc>lat.=55.849712, lon.=26.450869, Alt.=119.649475m. Speed=20.700001m/h.</desc>
<speed>5.750000</speed>
</trkpt>
<trkpt lat="55.849674" lon="26.450817">
<ele>120.319397</ele>
<time>2010-07-17T08:16:57Z</time>
<desc>lat.=55.849674, lon.=26.450817, Alt.=120.319397m. Speed=18.504000m/h.</desc>
<speed>5.140000</speed>
</trkpt>
<trkpt lat="55.849636" lon="26.450762">
<ele>120.555725</ele>
<time>2010-07-17T08:16:58Z</time>
<desc>lat.=55.849636, lon.=26.450762, Alt.=120.555725m. Speed=19.799999m/h.</desc>
<speed>5.500000</speed>
</trkpt>
<trkpt lat="55.849598" lon="26.450710">
<ele>120.831116</ele>
<time>2010-07-17T08:16:59Z</time>
<desc>lat.=55.849598, lon.=26.450710, Alt.=120.831116m. Speed=18.504000m/h.</desc>
<speed>5.140000</speed>
</trkpt>
<trkpt lat="55.849564" lon="26.450657">
<ele>120.895569</ele>
<time>2010-07-17T08:17:00Z</time>
<desc>lat.=55.849564, lon.=26.450657, Alt.=120.895569m. Speed=17.496000m/h.</desc>
<speed>4.860000</speed>
</trkpt>
<trkpt lat="55.849525" lon="26.450602">
<ele>121.336975</ele>
<time>2010-07-17T08:17:01Z</time>
<desc>lat.=55.849525, lon.=26.450602, Alt.=121.336975m. Speed=18.288000m/h.</desc>
<speed>5.080000</speed>
</trkpt>
<trkpt lat="55.849487" lon="26.450552">
<ele>121.725647</ele>
<time>2010-07-17T08:17:02Z</time>
<desc>lat.=55.849487, lon.=26.450552, Alt.=121.725647m. Speed=18.900000m/h.</desc>
<speed>5.250000</speed>
</trkpt>
<trkpt lat="55.849449" lon="26.450500">
<ele>122.051819</ele>
<time>2010-07-17T08:17:03Z</time>
<desc>lat.=55.849449, lon.=26.450500, Alt.=122.051819m. Speed=19.511999m/h.</desc>
<speed>5.420000</speed>
</trkpt>
<trkpt lat="55.849407" lon="26.450451">
<ele>122.200256</ele>
<time>2010-07-17T08:17:04Z</time>
<desc>lat.=55.849407, lon.=26.450451, Alt.=122.200256m. Speed=18.468000m/h.</desc>
<speed>5.130000</speed>
</trkpt>
<trkpt lat="55.849369" lon="26.450403">
<ele>122.514709</ele>
<time>2010-07-17T08:17:05Z</time>
<desc>lat.=55.849369, lon.=26.450403, Alt.=122.514709m. Speed=19.872000m/h.</desc>
<speed>5.520000</speed>
</trkpt>
<trkpt lat="55.849331" lon="26.450359">
<ele>122.647522</ele>
<time>2010-07-17T08:17:06Z</time>
<desc>lat.=55.849331, lon.=26.450359, Alt.=122.647522m. Speed=19.368000m/h.</desc>
<speed>5.380000</speed>
</trkpt>
<trkpt lat="55.849293" lon="26.450312">
<ele>123.323303</ele>
<time>2010-07-17T08:17:07Z</time>
<desc>lat.=55.849293, lon.=26.450312, Alt.=123.323303m. Speed=18.540001m/h.</desc>
<speed>5.150000</speed>
</trkpt>
<trkpt lat="55.849258" lon="26.450268">
<ele>123.264709</ele>
<time>2010-07-17T08:17:08Z</time>
<desc>lat.=55.849258, lon.=26.450268, Alt.=123.264709m. Speed=17.388000m/h.</desc>
<speed>4.830000</speed>
</trkpt>
<trkpt lat="55.849224" lon="26.450228">
<ele>123.586975</ele>
<time>2010-07-17T08:17:09Z</time>
<desc>lat.=55.849224, lon.=26.450228, Alt.=123.586975m. Speed=16.416000m/h.</desc>
<speed>4.560000</speed>
</trkpt>
<trkpt lat="55.849194" lon="26.450188">
<ele>123.536194</ele>
<time>2010-07-17T08:17:10Z</time>
<desc>lat.=55.849194, lon.=26.450188, Alt.=123.536194m. Speed=16.667999m/h.</desc>
<speed>4.630000</speed>
</trkpt>
<trkpt lat="55.849159" lon="26.450140">
<ele>123.754944</ele>
<time>2010-07-17T08:17:11Z</time>
<desc>lat.=55.849159, lon.=26.450140, Alt.=123.754944m. Speed=18.360001m/h.</desc>
<speed>5.100000</speed>
</trkpt>
<trkpt lat="55.849121" lon="26.450083">
<ele>124.024475</ele>
<time>2010-07-17T08:17:12Z</time>
<desc>lat.=55.849121, lon.=26.450083, Alt.=124.024475m. Speed=18.288000m/h.</desc>
<speed>5.080000</speed>
</trkpt>
<trkpt lat="55.849079" lon="26.450024">
<ele>123.938538</ele>
<time>2010-07-17T08:17:13Z</time>
<desc>lat.=55.849079, lon.=26.450024, Alt.=123.938538m. Speed=18.864000m/h.</desc>
<speed>5.240000</speed>
</trkpt>
<trkpt lat="55.849037" lon="26.449961">
<ele>123.616272</ele>
<time>2010-07-17T08:17:14Z</time>
<desc>lat.=55.849037, lon.=26.449961, Alt.=123.616272m. Speed=19.260000m/h.</desc>
<speed>5.350000</speed>
</trkpt>
<trkpt lat="55.848999" lon="26.449903">
<ele>124.077209</ele>
<time>2010-07-17T08:17:15Z</time>
<desc>lat.=55.848999, lon.=26.449903, Alt.=124.077209m. Speed=20.520000m/h.</desc>
<speed>5.700000</speed>
</trkpt>
<trkpt lat="55.848957" lon="26.449844">
<ele>124.284241</ele>
<time>2010-07-17T08:17:16Z</time>
<desc>lat.=55.848957, lon.=26.449844, Alt.=124.284241m. Speed=21.384001m/h.</desc>
<speed>5.940000</speed>
</trkpt>
<trkpt lat="55.848919" lon="26.449783">
<ele>124.760803</ele>
<time>2010-07-17T08:17:17Z</time>
<desc>lat.=55.848919, lon.=26.449783, Alt.=124.760803m. Speed=20.340000m/h.</desc>
<speed>5.650000</speed>
</trkpt>
<trkpt lat="55.848877" lon="26.449720">
<ele>124.995178</ele>
<time>2010-07-17T08:17:18Z</time>
<desc>lat.=55.848877, lon.=26.449720, Alt.=124.995178m. Speed=20.448000m/h.</desc>
<speed>5.680000</speed>
</trkpt>
<trkpt lat="55.848835" lon="26.449657">
<ele>125.612366</ele>
<time>2010-07-17T08:17:19Z</time>
<desc>lat.=55.848835, lon.=26.449657, Alt.=125.612366m. Speed=20.879999m/h.</desc>
<speed>5.800000</speed>
</trkpt>
<trkpt lat="55.848793" lon="26.449596">
<ele>126.620178</ele>
<time>2010-07-17T08:17:20Z</time>
<desc>lat.=55.848793, lon.=26.449596, Alt.=126.620178m. Speed=20.664000m/h.</desc>
<speed>5.740000</speed>
</trkpt>
<trkpt lat="55.848755" lon="26.449535">
<ele>127.135803</ele>
<time>2010-07-17T08:17:21Z</time>
<desc>lat.=55.848755, lon.=26.449535, Alt.=127.135803m. Speed=21.708000m/h.</desc>
<speed>6.030000</speed>
</trkpt>
<trkpt lat="55.848713" lon="26.449482">
<ele>127.247131</ele>
<time>2010-07-17T08:17:22Z</time>
<desc>lat.=55.848713, lon.=26.449482, Alt.=127.247131m. Speed=22.032000m/h.</desc>
<speed>6.120000</speed>
</trkpt>
<trkpt lat="55.848667" lon="26.449427">
<ele>127.282288</ele>
<time>2010-07-17T08:17:23Z</time>
<desc>lat.=55.848667, lon.=26.449427, Alt.=127.282288m. Speed=21.563999m/h.</desc>
<speed>5.990000</speed>
</trkpt>
<trkpt lat="55.848625" lon="26.449375">
<ele>127.717834</ele>
<time>2010-07-17T08:17:24Z</time>
<desc>lat.=55.848625, lon.=26.449375, Alt.=127.717834m. Speed=21.851999m/h.</desc>
<speed>6.070000</speed>
</trkpt>
<trkpt lat="55.848576" lon="26.449329">
<ele>127.360413</ele>
<time>2010-07-17T08:17:25Z</time>
<desc>lat.=55.848576, lon.=26.449329, Alt.=127.360413m. Speed=22.247999m/h.</desc>
<speed>6.180000</speed>
</trkpt>
<trkpt lat="55.848534" lon="26.449270">
<ele>127.803772</ele>
<time>2010-07-17T08:17:26Z</time>
<desc>lat.=55.848534, lon.=26.449270, Alt.=127.803772m. Speed=21.275999m/h.</desc>
<speed>5.910000</speed>
</trkpt>
<trkpt lat="55.848488" lon="26.449211">
<ele>127.870178</ele>
<time>2010-07-17T08:17:27Z</time>
<desc>lat.=55.848488, lon.=26.449211, Alt.=127.870178m. Speed=21.240000m/h.</desc>
<speed>5.900000</speed>
</trkpt>
<trkpt lat="55.848438" lon="26.449152">
<ele>128.123169</ele>
<time>2010-07-17T08:17:28Z</time>
<desc>lat.=55.848438, lon.=26.449152, Alt.=128.123169m. Speed=21.204000m/h.</desc>
<speed>5.890000</speed>
</trkpt>
<trkpt lat="55.848392" lon="26.449095">
<ele>128.349731</ele>
<time>2010-07-17T08:17:29Z</time>
<desc>lat.=55.848392, lon.=26.449095, Alt.=128.349731m. Speed=22.392000m/h.</desc>
<speed>6.220000</speed>
</trkpt>
<trkpt lat="55.848343" lon="26.449034">
<ele>128.693481</ele>
<time>2010-07-17T08:17:30Z</time>
<desc>lat.=55.848343, lon.=26.449034, Alt.=128.693481m. Speed=20.340000m/h.</desc>
<speed>5.650000</speed>
</trkpt>
<trkpt lat="55.848301" lon="26.448982">
<ele>128.720825</ele>
<time>2010-07-17T08:17:31Z</time>
<desc>lat.=55.848301, lon.=26.448982, Alt.=128.720825m. Speed=19.980000m/h.</desc>
<speed>5.550000</speed>
</trkpt>
<trkpt lat="55.848259" lon="26.448929">
<ele>128.873169</ele>
<time>2010-07-17T08:17:32Z</time>
<desc>lat.=55.848259, lon.=26.448929, Alt.=128.873169m. Speed=20.700001m/h.</desc>
<speed>5.750000</speed>
</trkpt>
<trkpt lat="55.848213" lon="26.448872">
<ele>128.888794</ele>
<time>2010-07-17T08:17:33Z</time>
<desc>lat.=55.848213, lon.=26.448872, Alt.=128.888794m. Speed=21.888000m/h.</desc>
<speed>6.080000</speed>
</trkpt>
<trkpt lat="55.848164" lon="26.448809">
<ele>128.970825</ele>
<time>2010-07-17T08:17:34Z</time>
<desc>lat.=55.848164, lon.=26.448809, Alt.=128.970825m. Speed=22.247999m/h.</desc>
<speed>6.180000</speed>
</trkpt>
<trkpt lat="55.848114" lon="26.448740">
<ele>129.263794</ele>
<time>2010-07-17T08:17:35Z</time>
<desc>lat.=55.848114, lon.=26.448740, Alt.=129.263794m. Speed=22.823999m/h.</desc>
<speed>6.340000</speed>
</trkpt>
<trkpt lat="55.848068" lon="26.448685">
<ele>129.685669</ele>
<time>2010-07-17T08:17:36Z</time>
<desc>lat.=55.848068, lon.=26.448685, Alt.=129.685669m. Speed=21.851999m/h.</desc>
<speed>6.070000</speed>
</trkpt>
<trkpt lat="55.848026" lon="26.448629">
<ele>129.986450</ele>
<time>2010-07-17T08:17:37Z</time>
<desc>lat.=55.848026, lon.=26.448629, Alt.=129.986450m. Speed=21.275999m/h.</desc>
<speed>5.910000</speed>
</trkpt>
<trkpt lat="55.847980" lon="26.448565">
<ele>129.923950</ele>
<time>2010-07-17T08:17:38Z</time>
<desc>lat.=55.847980, lon.=26.448565, Alt.=129.923950m. Speed=20.808001m/h.</desc>
<speed>5.780000</speed>
</trkpt>
<trkpt lat="55.847939" lon="26.448502">
<ele>129.670044</ele>
<time>2010-07-17T08:17:39Z</time>
<desc>lat.=55.847939, lon.=26.448502, Alt.=129.670044m. Speed=22.104000m/h.</desc>
<speed>6.140000</speed>
</trkpt>
<trkpt lat="55.847897" lon="26.448442">
<ele>129.545044</ele>
<time>2010-07-17T08:17:40Z</time>
<desc>lat.=55.847897, lon.=26.448442, Alt.=129.545044m. Speed=21.455999m/h.</desc>
<speed>5.960000</speed>
</trkpt>
<trkpt lat="55.847851" lon="26.448380">
<ele>129.380981</ele>
<time>2010-07-17T08:17:41Z</time>
<desc>lat.=55.847851, lon.=26.448380, Alt.=129.380981m. Speed=22.968000m/h.</desc>
<speed>6.380000</speed>
</trkpt>
<trkpt lat="55.847805" lon="26.448317">
<ele>129.568481</ele>
<time>2010-07-17T08:17:42Z</time>
<desc>lat.=55.847805, lon.=26.448317, Alt.=129.568481m. Speed=22.823999m/h.</desc>
<speed>6.340000</speed>
</trkpt>
<trkpt lat="55.847763" lon="26.448254">
<ele>129.455200</ele>
<time>2010-07-17T08:17:43Z</time>
<desc>lat.=55.847763, lon.=26.448254, Alt.=129.455200m. Speed=21.348000m/h.</desc>
<speed>5.930000</speed>
</trkpt>
<trkpt lat="55.847721" lon="26.448198">
<ele>129.115356</ele>
<time>2010-07-17T08:17:44Z</time>
<desc>lat.=55.847721, lon.=26.448198, Alt.=129.115356m. Speed=21.959999m/h.</desc>
<speed>6.100000</speed>
</trkpt>
<trkpt lat="55.847672" lon="26.448130">
<ele>129.396606</ele>
<time>2010-07-17T08:17:45Z</time>
<desc>lat.=55.847672, lon.=26.448130, Alt.=129.396606m. Speed=22.608000m/h.</desc>
<speed>6.280000</speed>
</trkpt>
<trkpt lat="55.847626" lon="26.448065">
<ele>129.451294</ele>
<time>2010-07-17T08:17:46Z</time>
<desc>lat.=55.847626, lon.=26.448065, Alt.=129.451294m. Speed=22.464001m/h.</desc>
<speed>6.240000</speed>
</trkpt>
<trkpt lat="55.847576" lon="26.448002">
<ele>128.920044</ele>
<time>2010-07-17T08:17:47Z</time>
<desc>lat.=55.847576, lon.=26.448002, Alt.=128.920044m. Speed=22.392000m/h.</desc>
<speed>6.220000</speed>
</trkpt>
<trkpt lat="55.847530" lon="26.447947">
<ele>128.802856</ele>
<time>2010-07-17T08:17:48Z</time>
<desc>lat.=55.847530, lon.=26.447947, Alt.=128.802856m. Speed=21.636000m/h.</desc>
<speed>6.010000</speed>
</trkpt>
<trkpt lat="55.847492" lon="26.447886">
<ele>129.162231</ele>
<time>2010-07-17T08:17:49Z</time>
<desc>lat.=55.847492, lon.=26.447886, Alt.=129.162231m. Speed=20.340000m/h.</desc>
<speed>5.650000</speed>
</trkpt>
<trkpt lat="55.847454" lon="26.447826">
<ele>129.505981</ele>
<time>2010-07-17T08:17:50Z</time>
<desc>lat.=55.847454, lon.=26.447826, Alt.=129.505981m. Speed=19.584000m/h.</desc>
<speed>5.440000</speed>
</trkpt>
<trkpt lat="55.847412" lon="26.447775">
<ele>129.560669</ele>
<time>2010-07-17T08:17:51Z</time>
<desc>lat.=55.847412, lon.=26.447775, Alt.=129.560669m. Speed=18.684000m/h.</desc>
<speed>5.190000</speed>
</trkpt>
<trkpt lat="55.847370" lon="26.447718">
<ele>129.412231</ele>
<time>2010-07-17T08:17:52Z</time>
<desc>lat.=55.847370, lon.=26.447718, Alt.=129.412231m. Speed=20.988001m/h.</desc>
<speed>5.830000</speed>
</trkpt>
<trkpt lat="55.847328" lon="26.447662">
<ele>129.275513</ele>
<time>2010-07-17T08:17:53Z</time>
<desc>lat.=55.847328, lon.=26.447662, Alt.=129.275513m. Speed=19.872000m/h.</desc>
<speed>5.520000</speed>
</trkpt>
<trkpt lat="55.847290" lon="26.447605">
<ele>129.365356</ele>
<time>2010-07-17T08:17:54Z</time>
<desc>lat.=55.847290, lon.=26.447605, Alt.=129.365356m. Speed=20.124001m/h.</desc>
<speed>5.590000</speed>
</trkpt>
<trkpt lat="55.847252" lon="26.447546">
<ele>129.271606</ele>
<time>2010-07-17T08:17:55Z</time>
<desc>lat.=55.847252, lon.=26.447546, Alt.=129.271606m. Speed=21.959999m/h.</desc>
<speed>6.100000</speed>
</trkpt>
<trkpt lat="55.847210" lon="26.447483">
<ele>129.361450</ele>
<time>2010-07-17T08:17:56Z</time>
<desc>lat.=55.847210, lon.=26.447483, Alt.=129.361450m. Speed=21.636000m/h.</desc>
<speed>6.010000</speed>
</trkpt>
<trkpt lat="55.847168" lon="26.447424">
<ele>129.302856</ele>
<time>2010-07-17T08:17:57Z</time>
<desc>lat.=55.847168, lon.=26.447424, Alt.=129.302856m. Speed=22.176001m/h.</desc>
<speed>6.160000</speed>
</trkpt>
<trkpt lat="55.847118" lon="26.447361">
<ele>129.447388</ele>
<time>2010-07-17T08:17:58Z</time>
<desc>lat.=55.847118, lon.=26.447361, Alt.=129.447388m. Speed=23.076000m/h.</desc>
<speed>6.410000</speed>
</trkpt>
<trkpt lat="55.847073" lon="26.447294">
<ele>129.517700</ele>
<time>2010-07-17T08:17:59Z</time>
<desc>lat.=55.847073, lon.=26.447294, Alt.=129.517700m. Speed=22.643999m/h.</desc>
<speed>6.290000</speed>
</trkpt>
<trkpt lat="55.847027" lon="26.447226">
<ele>129.447388</ele>
<time>2010-07-17T08:18:00Z</time>
<desc>lat.=55.847027, lon.=26.447226, Alt.=129.447388m. Speed=22.212000m/h.</desc>
<speed>6.170000</speed>
</trkpt>
<trkpt lat="55.846981" lon="26.447166">
<ele>129.330200</ele>
<time>2010-07-17T08:18:01Z</time>
<desc>lat.=55.846981, lon.=26.447166, Alt.=129.330200m. Speed=21.924000m/h.</desc>
<speed>6.090000</speed>
</trkpt>
<trkpt lat="55.846935" lon="26.447115">
<ele>128.947388</ele>
<time>2010-07-17T08:18:02Z</time>
<desc>lat.=55.846935, lon.=26.447115, Alt.=128.947388m. Speed=21.851999m/h.</desc>
<speed>6.070000</speed>
</trkpt>
<trkpt lat="55.846893" lon="26.447063">
<ele>128.795044</ele>
<time>2010-07-17T08:18:03Z</time>
<desc>lat.=55.846893, lon.=26.447063, Alt.=128.795044m. Speed=19.799999m/h.</desc>
<speed>5.500000</speed>
</trkpt>
<trkpt lat="55.846851" lon="26.447002">
<ele>128.611450</ele>
<time>2010-07-17T08:18:04Z</time>
<desc>lat.=55.846851, lon.=26.447002, Alt.=128.611450m. Speed=19.980000m/h.</desc>
<speed>5.550000</speed>
</trkpt>
<trkpt lat="55.846809" lon="26.446936">
<ele>128.595825</ele>
<time>2010-07-17T08:18:05Z</time>
<desc>lat.=55.846809, lon.=26.446936, Alt.=128.595825m. Speed=21.888000m/h.</desc>
<speed>6.080000</speed>
</trkpt>
<trkpt lat="55.846767" lon="26.446865">
<ele>129.209106</ele>
<time>2010-07-17T08:18:06Z</time>
<desc>lat.=55.846767, lon.=26.446865, Alt.=129.209106m. Speed=20.879999m/h.</desc>
<speed>5.800000</speed>
</trkpt>
<trkpt lat="55.846725" lon="26.446806">
<ele>129.505981</ele>
<time>2010-07-17T08:18:07Z</time>
<desc>lat.=55.846725, lon.=26.446806, Alt.=129.505981m. Speed=20.771999m/h.</desc>
<speed>5.770000</speed>
</trkpt>
<trkpt lat="55.846676" lon="26.446745">
<ele>128.857544</ele>
<time>2010-07-17T08:18:08Z</time>
<desc>lat.=55.846676, lon.=26.446745, Alt.=128.857544m. Speed=21.780001m/h.</desc>
<speed>6.050000</speed>
</trkpt>
<trkpt lat="55.846630" lon="26.446688">
<ele>128.838013</ele>
<time>2010-07-17T08:18:09Z</time>
<desc>lat.=55.846630, lon.=26.446688, Alt.=128.838013m. Speed=20.771999m/h.</desc>
<speed>5.770000</speed>
</trkpt>
<trkpt lat="55.846588" lon="26.446638">
<ele>129.392700</ele>
<time>2010-07-17T08:18:10Z</time>
<desc>lat.=55.846588, lon.=26.446638, Alt.=129.392700m. Speed=20.304001m/h.</desc>
<speed>5.640000</speed>
</trkpt>
<trkpt lat="55.846546" lon="26.446583">
<ele>130.080200</ele>
<time>2010-07-17T08:18:11Z</time>
<desc>lat.=55.846546, lon.=26.446583, Alt.=130.080200m. Speed=20.412001m/h.</desc>
<speed>5.670000</speed>
</trkpt>
<trkpt lat="55.846500" lon="26.446529">
<ele>129.787231</ele>
<time>2010-07-17T08:18:12Z</time>
<desc>lat.=55.846500, lon.=26.446529, Alt.=129.787231m. Speed=19.368000m/h.</desc>
<speed>5.380000</speed>
</trkpt>
<trkpt lat="55.846458" lon="26.446478">
<ele>129.677856</ele>
<time>2010-07-17T08:18:13Z</time>
<desc>lat.=55.846458, lon.=26.446478, Alt.=129.677856m. Speed=19.511999m/h.</desc>
<speed>5.420000</speed>
</trkpt>
<trkpt lat="55.846416" lon="26.446428">
<ele>130.384888</ele>
<time>2010-07-17T08:18:14Z</time>
<desc>lat.=55.846416, lon.=26.446428, Alt.=130.384888m. Speed=19.908001m/h.</desc>
<speed>5.530000</speed>
</trkpt>
<trkpt lat="55.846378" lon="26.446373">
<ele>130.283325</ele>
<time>2010-07-17T08:18:15Z</time>
<desc>lat.=55.846378, lon.=26.446373, Alt.=130.283325m. Speed=19.908001m/h.</desc>
<speed>5.530000</speed>
</trkpt>
<trkpt lat="55.846329" lon="26.446318">
<ele>129.404419</ele>
<time>2010-07-17T08:18:16Z</time>
<desc>lat.=55.846329, lon.=26.446318, Alt.=129.404419m. Speed=20.952000m/h.</desc>
<speed>5.820000</speed>
</trkpt>
<trkpt lat="55.846283" lon="26.446266">
<ele>129.037231</ele>
<time>2010-07-17T08:18:17Z</time>
<desc>lat.=55.846283, lon.=26.446266, Alt.=129.037231m. Speed=20.375999m/h.</desc>
<speed>5.660000</speed>
</trkpt>
<trkpt lat="55.846241" lon="26.446198">
<ele>128.123169</ele>
<time>2010-07-17T08:18:18Z</time>
<desc>lat.=55.846241, lon.=26.446198, Alt.=128.123169m. Speed=22.032000m/h.</desc>
<speed>6.120000</speed>
</trkpt>
<trkpt lat="55.846195" lon="26.446131">
<ele>127.163147</ele>
<time>2010-07-17T08:18:19Z</time>
<desc>lat.=55.846195, lon.=26.446131, Alt.=127.163147m. Speed=21.780001m/h.</desc>
<speed>6.050000</speed>
</trkpt>
<trkpt lat="55.846149" lon="26.446066">
<ele>126.323303</ele>
<time>2010-07-17T08:18:20Z</time>
<desc>lat.=55.846149, lon.=26.446066, Alt.=126.323303m. Speed=22.427999m/h.</desc>
<speed>6.230000</speed>
</trkpt>
<trkpt lat="55.846100" lon="26.446005">
<ele>125.825256</ele>
<time>2010-07-17T08:18:21Z</time>
<desc>lat.=55.846100, lon.=26.446005, Alt.=125.825256m. Speed=22.284000m/h.</desc>
<speed>6.190000</speed>
</trkpt>
<trkpt lat="55.846050" lon="26.445944">
<ele>125.295959</ele>
<time>2010-07-17T08:18:22Z</time>
<desc>lat.=55.846050, lon.=26.445944, Alt.=125.295959m. Speed=22.752001m/h.</desc>
<speed>6.320000</speed>
</trkpt>
<trkpt lat="55.846004" lon="26.445885">
<ele>125.743225</ele>
<time>2010-07-17T08:18:23Z</time>
<desc>lat.=55.846004, lon.=26.445885, Alt.=125.743225m. Speed=22.176001m/h.</desc>
<speed>6.160000</speed>
</trkpt>
<trkpt lat="55.845963" lon="26.445831">
<ele>125.604553</ele>
<time>2010-07-17T08:18:24Z</time>
<desc>lat.=55.845963, lon.=26.445831, Alt.=125.604553m. Speed=22.032000m/h.</desc>
<speed>6.120000</speed>
</trkpt>
<trkpt lat="55.845917" lon="26.445770">
<ele>125.696350</ele>
<time>2010-07-17T08:18:25Z</time>
<desc>lat.=55.845917, lon.=26.445770, Alt.=125.696350m. Speed=22.427999m/h.</desc>
<speed>6.230000</speed>
</trkpt>
<trkpt lat="55.845875" lon="26.445717">
<ele>125.893616</ele>
<time>2010-07-17T08:18:26Z</time>
<desc>lat.=55.845875, lon.=26.445717, Alt.=125.893616m. Speed=20.844000m/h.</desc>
<speed>5.790000</speed>
</trkpt>
<trkpt lat="55.845833" lon="26.445658">
<ele>126.770569</ele>
<time>2010-07-17T08:18:27Z</time>
<desc>lat.=55.845833, lon.=26.445658, Alt.=126.770569m. Speed=21.059999m/h.</desc>
<speed>5.850000</speed>
</trkpt>
<trkpt lat="55.845787" lon="26.445595">
<ele>127.110413</ele>
<time>2010-07-17T08:18:28Z</time>
<desc>lat.=55.845787, lon.=26.445595, Alt.=127.110413m. Speed=22.032000m/h.</desc>
<speed>6.120000</speed>
</trkpt>
<trkpt lat="55.845741" lon="26.445536">
<ele>127.991272</ele>
<time>2010-07-17T08:18:29Z</time>
<desc>lat.=55.845741, lon.=26.445536, Alt.=127.991272m. Speed=21.059999m/h.</desc>
<speed>5.850000</speed>
</trkpt>
<trkpt lat="55.845699" lon="26.445480">
<ele>129.318481</ele>
<time>2010-07-17T08:18:30Z</time>
<desc>lat.=55.845699, lon.=26.445480, Alt.=129.318481m. Speed=19.799999m/h.</desc>
<speed>5.500000</speed>
</trkpt>
<trkpt lat="55.845657" lon="26.445431">
<ele>129.959106</ele>
<time>2010-07-17T08:18:31Z</time>
<desc>lat.=55.845657, lon.=26.445431, Alt.=129.959106m. Speed=18.792000m/h.</desc>
<speed>5.220000</speed>
</trkpt>
<trkpt lat="55.845615" lon="26.445375">
<ele>130.728638</ele>
<time>2010-07-17T08:18:32Z</time>
<desc>lat.=55.845615, lon.=26.445375, Alt.=130.728638m. Speed=20.736000m/h.</desc>
<speed>5.760000</speed>
</trkpt>
<trkpt lat="55.845573" lon="26.445326">
<ele>131.205200</ele>
<time>2010-07-17T08:18:33Z</time>
<desc>lat.=55.845573, lon.=26.445326, Alt.=131.205200m. Speed=19.188000m/h.</desc>
<speed>5.330000</speed>
</trkpt>
<trkpt lat="55.845535" lon="26.445276">
<ele>131.849731</ele>
<time>2010-07-17T08:18:34Z</time>
<desc>lat.=55.845535, lon.=26.445276, Alt.=131.849731m. Speed=18.827999m/h.</desc>
<speed>5.230000</speed>
</trkpt>
<trkpt lat="55.845497" lon="26.445221">
<ele>132.146606</ele>
<time>2010-07-17T08:18:35Z</time>
<desc>lat.=55.845497, lon.=26.445221, Alt.=132.146606m. Speed=18.216000m/h.</desc>
<speed>5.060000</speed>
</trkpt>
<trkpt lat="55.845459" lon="26.445164">
<ele>131.845825</ele>
<time>2010-07-17T08:18:36Z</time>
<desc>lat.=55.845459, lon.=26.445164, Alt.=131.845825m. Speed=18.252001m/h.</desc>
<speed>5.070000</speed>
</trkpt>
<trkpt lat="55.845421" lon="26.445107">
<ele>131.802856</ele>
<time>2010-07-17T08:18:37Z</time>
<desc>lat.=55.845421, lon.=26.445107, Alt.=131.802856m. Speed=19.511999m/h.</desc>
<speed>5.420000</speed>
</trkpt>
<trkpt lat="55.845379" lon="26.445045">
<ele>131.818481</ele>
<time>2010-07-17T08:18:38Z</time>
<desc>lat.=55.845379, lon.=26.445045, Alt.=131.818481m. Speed=21.672001m/h.</desc>
<speed>6.020000</speed>
</trkpt>
<trkpt lat="55.845333" lon="26.444981">
<ele>131.568481</ele>
<time>2010-07-17T08:18:39Z</time>
<desc>lat.=55.845333, lon.=26.444981, Alt.=131.568481m. Speed=21.204000m/h.</desc>
<speed>5.890000</speed>
</trkpt>
<trkpt lat="55.845284" lon="26.444921">
<ele>131.787231</ele>
<time>2010-07-17T08:18:40Z</time>
<desc>lat.=55.845284, lon.=26.444921, Alt.=131.787231m. Speed=21.384001m/h.</desc>
<speed>5.940000</speed>
</trkpt>
<trkpt lat="55.845242" lon="26.444870">
<ele>132.654419</ele>
<time>2010-07-17T08:18:41Z</time>
<desc>lat.=55.845242, lon.=26.444870, Alt.=132.654419m. Speed=19.944000m/h.</desc>
<speed>5.540000</speed>
</trkpt>
<trkpt lat="55.845200" lon="26.444817">
<ele>132.822388</ele>
<time>2010-07-17T08:18:42Z</time>
<desc>lat.=55.845200, lon.=26.444817, Alt.=132.822388m. Speed=20.195999m/h.</desc>
<speed>5.610000</speed>
</trkpt>
<trkpt lat="55.845150" lon="26.444757">
<ele>132.048950</ele>
<time>2010-07-17T08:18:43Z</time>
<desc>lat.=55.845150, lon.=26.444757, Alt.=132.048950m. Speed=20.700001m/h.</desc>
<speed>5.750000</speed>
</trkpt>
<trkpt lat="55.845104" lon="26.444695">
<ele>132.334106</ele>
<time>2010-07-17T08:18:44Z</time>
<desc>lat.=55.845104, lon.=26.444695, Alt.=132.334106m. Speed=21.455999m/h.</desc>
<speed>5.960000</speed>
</trkpt>
<trkpt lat="55.845058" lon="26.444643">
<ele>132.529419</ele>
<time>2010-07-17T08:18:45Z</time>
<desc>lat.=55.845058, lon.=26.444643, Alt.=132.529419m. Speed=19.836000m/h.</desc>
<speed>5.510000</speed>
</trkpt>
<trkpt lat="55.845013" lon="26.444597">
<ele>132.552856</ele>
<time>2010-07-17T08:18:46Z</time>
<desc>lat.=55.845013, lon.=26.444597, Alt.=132.552856m. Speed=19.511999m/h.</desc>
<speed>5.420000</speed>
</trkpt>
<trkpt lat="55.844971" lon="26.444553">
<ele>132.634888</ele>
<time>2010-07-17T08:18:47Z</time>
<desc>lat.=55.844971, lon.=26.444553, Alt.=132.634888m. Speed=18.756001m/h.</desc>
<speed>5.210000</speed>
</trkpt>
<trkpt lat="55.844929" lon="26.444502">
<ele>133.041138</ele>
<time>2010-07-17T08:18:48Z</time>
<desc>lat.=55.844929, lon.=26.444502, Alt.=133.041138m. Speed=20.700001m/h.</desc>
<speed>5.750000</speed>
</trkpt>
<trkpt lat="55.844887" lon="26.444450">
<ele>133.529419</ele>
<time>2010-07-17T08:18:49Z</time>
<desc>lat.=55.844887, lon.=26.444450, Alt.=133.529419m. Speed=20.304001m/h.</desc>
<speed>5.640000</speed>
</trkpt>
<trkpt lat="55.844841" lon="26.444395">
<ele>134.123169</ele>
<time>2010-07-17T08:18:50Z</time>
<desc>lat.=55.844841, lon.=26.444395, Alt.=134.123169m. Speed=21.096001m/h.</desc>
<speed>5.860000</speed>
</trkpt>
<trkpt lat="55.844795" lon="26.444344">
<ele>134.740356</ele>
<time>2010-07-17T08:18:51Z</time>
<desc>lat.=55.844795, lon.=26.444344, Alt.=134.740356m. Speed=21.563999m/h.</desc>
<speed>5.990000</speed>
</trkpt>
<trkpt lat="55.844753" lon="26.444298">
<ele>135.341919</ele>
<time>2010-07-17T08:18:52Z</time>
<desc>lat.=55.844753, lon.=26.444298, Alt.=135.341919m. Speed=19.872000m/h.</desc>
<speed>5.520000</speed>
</trkpt>
<trkpt lat="55.844711" lon="26.444241">
<ele>136.088013</ele>
<time>2010-07-17T08:18:53Z</time>
<desc>lat.=55.844711, lon.=26.444241, Alt.=136.088013m. Speed=21.600000m/h.</desc>
<speed>6.000000</speed>
</trkpt>
<trkpt lat="55.844669" lon="26.444178">
<ele>136.834106</ele>
<time>2010-07-17T08:18:54Z</time>
<desc>lat.=55.844669, lon.=26.444178, Alt.=136.834106m. Speed=22.104000m/h.</desc>
<speed>6.140000</speed>
</trkpt>
<trkpt lat="55.844627" lon="26.444115">
<ele>137.529419</ele>
<time>2010-07-17T08:18:55Z</time>
<desc>lat.=55.844627, lon.=26.444115, Alt.=137.529419m. Speed=21.167999m/h.</desc>
<speed>5.880000</speed>
</trkpt>
<trkpt lat="55.844585" lon="26.444029">
<ele>137.427856</ele>
<time>2010-07-17T08:18:56Z</time>
<desc>lat.=55.844585, lon.=26.444029, Alt.=137.427856m. Speed=21.888000m/h.</desc>
<speed>6.080000</speed>
</trkpt>
<trkpt lat="55.844540" lon="26.443954">
<ele>137.314575</ele>
<time>2010-07-17T08:18:57Z</time>
<desc>lat.=55.844540, lon.=26.443954, Alt.=137.314575m. Speed=21.708000m/h.</desc>
<speed>6.030000</speed>
</trkpt>
<trkpt lat="55.844494" lon="26.443901">
<ele>137.654419</ele>
<time>2010-07-17T08:18:58Z</time>
<desc>lat.=55.844494, lon.=26.443901, Alt.=137.654419m. Speed=22.356001m/h.</desc>
<speed>6.210000</speed>
</trkpt>
<trkpt lat="55.844452" lon="26.443832">
<ele>137.384888</ele>
<time>2010-07-17T08:18:59Z</time>
<desc>lat.=55.844452, lon.=26.443832, Alt.=137.384888m. Speed=21.816000m/h.</desc>
<speed>6.060000</speed>
</trkpt>
<trkpt lat="55.844402" lon="26.443756">
<ele>136.908325</ele>
<time>2010-07-17T08:19:00Z</time>
<desc>lat.=55.844402, lon.=26.443756, Alt.=136.908325m. Speed=21.672001m/h.</desc>
<speed>6.020000</speed>
</trkpt>
<trkpt lat="55.844360" lon="26.443695">
<ele>136.634888</ele>
<time>2010-07-17T08:19:01Z</time>
<desc>lat.=55.844360, lon.=26.443695, Alt.=136.634888m. Speed=22.247999m/h.</desc>
<speed>6.180000</speed>
</trkpt>
<trkpt lat="55.844311" lon="26.443630">
<ele>136.533325</ele>
<time>2010-07-17T08:19:02Z</time>
<desc>lat.=55.844311, lon.=26.443630, Alt.=136.533325m. Speed=23.004000m/h.</desc>
<speed>6.390000</speed>
</trkpt>
<trkpt lat="55.844261" lon="26.443562">
<ele>136.591919</ele>
<time>2010-07-17T08:19:03Z</time>
<desc>lat.=55.844261, lon.=26.443562, Alt.=136.591919m. Speed=22.247999m/h.</desc>
<speed>6.180000</speed>
</trkpt>
<trkpt lat="55.844215" lon="26.443497">
<ele>136.701294</ele>
<time>2010-07-17T08:19:04Z</time>
<desc>lat.=55.844215, lon.=26.443497, Alt.=136.701294m. Speed=21.851999m/h.</desc>
<speed>6.070000</speed>
</trkpt>
<trkpt lat="55.844173" lon="26.443432">
<ele>136.705200</ele>
<time>2010-07-17T08:19:05Z</time>
<desc>lat.=55.844173, lon.=26.443432, Alt.=136.705200m. Speed=22.032000m/h.</desc>
<speed>6.120000</speed>
</trkpt>
<trkpt lat="55.844128" lon="26.443373">
<ele>136.564575</ele>
<time>2010-07-17T08:19:06Z</time>
<desc>lat.=55.844128, lon.=26.443373, Alt.=136.564575m. Speed=22.139999m/h.</desc>
<speed>6.150000</speed>
</trkpt>
<trkpt lat="55.844078" lon="26.443316">
<ele>136.615356</ele>
<time>2010-07-17T08:19:07Z</time>
<desc>lat.=55.844078, lon.=26.443316, Alt.=136.615356m. Speed=22.788000m/h.</desc>
<speed>6.330000</speed>
</trkpt>
<trkpt lat="55.844032" lon="26.443254">
<ele>136.716919</ele>
<time>2010-07-17T08:19:08Z</time>
<desc>lat.=55.844032, lon.=26.443254, Alt.=136.716919m. Speed=21.996000m/h.</desc>
<speed>6.110000</speed>
</trkpt>
<trkpt lat="55.843983" lon="26.443188">
<ele>135.873169</ele>
<time>2010-07-17T08:19:09Z</time>
<desc>lat.=55.843983, lon.=26.443188, Alt.=135.873169m. Speed=21.420000m/h.</desc>
<speed>5.950000</speed>
</trkpt>
<trkpt lat="55.843937" lon="26.443123">
<ele>135.166138</ele>
<time>2010-07-17T08:19:10Z</time>
<desc>lat.=55.843937, lon.=26.443123, Alt.=135.166138m. Speed=21.132000m/h.</desc>
<speed>5.870000</speed>
</trkpt>
<trkpt lat="55.843895" lon="26.443062">
<ele>134.791138</ele>
<time>2010-07-17T08:19:11Z</time>
<desc>lat.=55.843895, lon.=26.443062, Alt.=134.791138m. Speed=19.764000m/h.</desc>
<speed>5.490000</speed>
</trkpt>
<trkpt lat="55.843857" lon="26.443007">
<ele>134.330200</ele>
<time>2010-07-17T08:19:12Z</time>
<desc>lat.=55.843857, lon.=26.443007, Alt.=134.330200m. Speed=18.180000m/h.</desc>
<speed>5.050000</speed>
</trkpt>
<trkpt lat="55.843826" lon="26.442955">
<ele>134.029419</ele>
<time>2010-07-17T08:19:13Z</time>
<desc>lat.=55.843826, lon.=26.442955, Alt.=134.029419m. Speed=19.044001m/h.</desc>
<speed>5.290000</speed>
</trkpt>
<trkpt lat="55.843788" lon="26.442900">
<ele>133.670044</ele>
<time>2010-07-17T08:19:14Z</time>
<desc>lat.=55.843788, lon.=26.442900, Alt.=133.670044m. Speed=21.132000m/h.</desc>
<speed>5.870000</speed>
</trkpt>
<trkpt lat="55.843742" lon="26.442837">
<ele>133.420044</ele>
<time>2010-07-17T08:19:15Z</time>
<desc>lat.=55.843742, lon.=26.442837, Alt.=133.420044m. Speed=21.312000m/h.</desc>
<speed>5.920000</speed>
</trkpt>
<trkpt lat="55.843700" lon="26.442780">
<ele>133.490356</ele>
<time>2010-07-17T08:19:16Z</time>
<desc>lat.=55.843700, lon.=26.442780, Alt.=133.490356m. Speed=21.996000m/h.</desc>
<speed>6.110000</speed>
</trkpt>
<trkpt lat="55.843658" lon="26.442719">
<ele>133.240356</ele>
<time>2010-07-17T08:19:17Z</time>
<desc>lat.=55.843658, lon.=26.442719, Alt.=133.240356m. Speed=22.032000m/h.</desc>
<speed>6.120000</speed>
</trkpt>
<trkpt lat="55.843613" lon="26.442661">
<ele>132.759888</ele>
<time>2010-07-17T08:19:18Z</time>
<desc>lat.=55.843613, lon.=26.442661, Alt.=132.759888m. Speed=21.528000m/h.</desc>
<speed>5.980000</speed>
</trkpt>
<trkpt lat="55.843571" lon="26.442604">
<ele>132.798950</ele>
<time>2010-07-17T08:19:19Z</time>
<desc>lat.=55.843571, lon.=26.442604, Alt.=132.798950m. Speed=21.384001m/h.</desc>
<speed>5.940000</speed>
</trkpt>
<trkpt lat="55.843525" lon="26.442543">
<ele>132.380981</ele>
<time>2010-07-17T08:19:20Z</time>
<desc>lat.=55.843525, lon.=26.442543, Alt.=132.380981m. Speed=20.879999m/h.</desc>
<speed>5.800000</speed>
</trkpt>
<trkpt lat="55.843483" lon="26.442490">
<ele>133.017700</ele>
<time>2010-07-17T08:19:21Z</time>
<desc>lat.=55.843483, lon.=26.442490, Alt.=133.017700m. Speed=20.520000m/h.</desc>
<speed>5.700000</speed>
</trkpt>
<trkpt lat="55.843433" lon="26.442430">
<ele>132.767700</ele>
<time>2010-07-17T08:19:22Z</time>
<desc>lat.=55.843433, lon.=26.442430, Alt.=132.767700m. Speed=21.924000m/h.</desc>
<speed>6.090000</speed>
</trkpt>
<trkpt lat="55.843395" lon="26.442375">
<ele>132.873169</ele>
<time>2010-07-17T08:19:23Z</time>
<desc>lat.=55.843395, lon.=26.442375, Alt.=132.873169m. Speed=20.520000m/h.</desc>
<speed>5.700000</speed>
</trkpt>
<trkpt lat="55.843346" lon="26.442320">
<ele>132.752075</ele>
<time>2010-07-17T08:19:24Z</time>
<desc>lat.=55.843346, lon.=26.442320, Alt.=132.752075m. Speed=23.040001m/h.</desc>
<speed>6.400000</speed>
</trkpt>
<trkpt lat="55.843300" lon="26.442253">
<ele>132.920044</ele>
<time>2010-07-17T08:19:25Z</time>
<desc>lat.=55.843300, lon.=26.442253, Alt.=132.920044m. Speed=23.400000m/h.</desc>
<speed>6.500000</speed>
</trkpt>
<trkpt lat="55.843250" lon="26.442190">
<ele>132.865356</ele>
<time>2010-07-17T08:19:26Z</time>
<desc>lat.=55.843250, lon.=26.442190, Alt.=132.865356m. Speed=23.832001m/h.</desc>
<speed>6.620000</speed>
</trkpt>
<trkpt lat="55.843201" lon="26.442123">
<ele>132.709106</ele>
<time>2010-07-17T08:19:27Z</time>
<desc>lat.=55.843201, lon.=26.442123, Alt.=132.709106m. Speed=24.695999m/h.</desc>
<speed>6.860000</speed>
</trkpt>
<trkpt lat="55.843155" lon="26.442062">
<ele>132.482544</ele>
<time>2010-07-17T08:19:28Z</time>
<desc>lat.=55.843155, lon.=26.442062, Alt.=132.482544m. Speed=22.788000m/h.</desc>
<speed>6.330000</speed>
</trkpt>
<trkpt lat="55.843109" lon="26.442007">
<ele>132.341919</ele>
<time>2010-07-17T08:19:29Z</time>
<desc>lat.=55.843109, lon.=26.442007, Alt.=132.341919m. Speed=22.500000m/h.</desc>
<speed>6.250000</speed>
</trkpt>
<trkpt lat="55.843067" lon="26.441942">
<ele>132.673950</ele>
<time>2010-07-17T08:19:30Z</time>
<desc>lat.=55.843067, lon.=26.441942, Alt.=132.673950m. Speed=22.968000m/h.</desc>
<speed>6.380000</speed>
</trkpt>
<trkpt lat="55.843018" lon="26.441879">
<ele>132.896606</ele>
<time>2010-07-17T08:19:31Z</time>
<desc>lat.=55.843018, lon.=26.441879, Alt.=132.896606m. Speed=24.120001m/h.</desc>
<speed>6.700000</speed>
</trkpt>
<trkpt lat="55.842972" lon="26.441807">
<ele>132.548950</ele>
<time>2010-07-17T08:19:32Z</time>
<desc>lat.=55.842972, lon.=26.441807, Alt.=132.548950m. Speed=24.444000m/h.</desc>
<speed>6.790000</speed>
</trkpt>
<trkpt lat="55.842922" lon="26.441734">
<ele>132.478638</ele>
<time>2010-07-17T08:19:33Z</time>
<desc>lat.=55.842922, lon.=26.441734, Alt.=132.478638m. Speed=25.740000m/h.</desc>
<speed>7.150000</speed>
</trkpt>
<trkpt lat="55.842869" lon="26.441660">
<ele>132.377075</ele>
<time>2010-07-17T08:19:34Z</time>
<desc>lat.=55.842869, lon.=26.441660, Alt.=132.377075m. Speed=26.676001m/h.</desc>
<speed>7.410000</speed>
</trkpt>
<trkpt lat="55.842812" lon="26.441578">
<ele>131.998169</ele>
<time>2010-07-17T08:19:35Z</time>
<desc>lat.=55.842812, lon.=26.441578, Alt.=131.998169m. Speed=27.288000m/h.</desc>
<speed>7.580000</speed>
</trkpt>
<trkpt lat="55.842758" lon="26.441504">
<ele>131.865356</ele>
<time>2010-07-17T08:19:36Z</time>
<desc>lat.=55.842758, lon.=26.441504, Alt.=131.865356m. Speed=28.584000m/h.</desc>
<speed>7.940000</speed>
</trkpt>
<trkpt lat="55.842701" lon="26.441425">
<ele>131.787231</ele>
<time>2010-07-17T08:19:37Z</time>
<desc>lat.=55.842701, lon.=26.441425, Alt.=131.787231m. Speed=30.780001m/h.</desc>
<speed>8.550000</speed>
</trkpt>
<trkpt lat="55.842640" lon="26.441343">
<ele>131.220825</ele>
<time>2010-07-17T08:19:38Z</time>
<desc>lat.=55.842640, lon.=26.441343, Alt.=131.220825m. Speed=30.851999m/h.</desc>
<speed>8.570000</speed>
</trkpt>
<trkpt lat="55.842575" lon="26.441261">
<ele>130.998169</ele>
<time>2010-07-17T08:19:39Z</time>
<desc>lat.=55.842575, lon.=26.441261, Alt.=130.998169m. Speed=31.032000m/h.</desc>
<speed>8.620000</speed>
</trkpt>
<trkpt lat="55.842510" lon="26.441181">
<ele>130.795044</ele>
<time>2010-07-17T08:19:40Z</time>
<desc>lat.=55.842510, lon.=26.441181, Alt.=130.795044m. Speed=30.059999m/h.</desc>
<speed>8.350000</speed>
</trkpt>
<trkpt lat="55.842449" lon="26.441095">
<ele>130.873169</ele>
<time>2010-07-17T08:19:41Z</time>
<desc>lat.=55.842449, lon.=26.441095, Alt.=130.873169m. Speed=30.851999m/h.</desc>
<speed>8.570000</speed>
</trkpt>
<trkpt lat="55.842388" lon="26.441017">
<ele>130.806763</ele>
<time>2010-07-17T08:19:42Z</time>
<desc>lat.=55.842388, lon.=26.441017, Alt.=130.806763m. Speed=29.591999m/h.</desc>
<speed>8.220000</speed>
</trkpt>
<trkpt lat="55.842327" lon="26.440937">
<ele>129.982544</ele>
<time>2010-07-17T08:19:43Z</time>
<desc>lat.=55.842327, lon.=26.440937, Alt.=129.982544m. Speed=29.268000m/h.</desc>
<speed>8.130000</speed>
</trkpt>
<trkpt lat="55.842274" lon="26.440857">
<ele>129.619263</ele>
<time>2010-07-17T08:19:44Z</time>
<desc>lat.=55.842274, lon.=26.440857, Alt.=129.619263m. Speed=29.591999m/h.</desc>
<speed>8.220000</speed>
</trkpt>
<trkpt lat="55.842213" lon="26.440781">
<ele>129.244263</ele>
<time>2010-07-17T08:19:45Z</time>
<desc>lat.=55.842213, lon.=26.440781, Alt.=129.244263m. Speed=30.167999m/h.</desc>
<speed>8.380000</speed>
</trkpt>
<trkpt lat="55.842144" lon="26.440702">
<ele>128.916138</ele>
<time>2010-07-17T08:19:46Z</time>
<desc>lat.=55.842144, lon.=26.440702, Alt.=128.916138m. Speed=30.924000m/h.</desc>
<speed>8.590000</speed>
</trkpt>
<trkpt lat="55.842079" lon="26.440622">
<ele>128.634888</ele>
<time>2010-07-17T08:19:47Z</time>
<desc>lat.=55.842079, lon.=26.440622, Alt.=128.634888m. Speed=31.284000m/h.</desc>
<speed>8.690000</speed>
</trkpt>
<trkpt lat="55.842014" lon="26.440544">
<ele>128.447388</ele>
<time>2010-07-17T08:19:48Z</time>
<desc>lat.=55.842014, lon.=26.440544, Alt.=128.447388m. Speed=31.247999m/h.</desc>
<speed>8.680000</speed>
</trkpt>
<trkpt lat="55.841942" lon="26.440470">
<ele>128.170044</ele>
<time>2010-07-17T08:19:49Z</time>
<desc>lat.=55.841942, lon.=26.440470, Alt.=128.170044m. Speed=33.048000m/h.</desc>
<speed>9.180000</speed>
</trkpt>
<trkpt lat="55.841877" lon="26.440384">
<ele>128.037231</ele>
<time>2010-07-17T08:19:50Z</time>
<desc>lat.=55.841877, lon.=26.440384, Alt.=128.037231m. Speed=32.040001m/h.</desc>
<speed>8.900000</speed>
</trkpt>
<trkpt lat="55.841816" lon="26.440294">
<ele>127.788147</ele>
<time>2010-07-17T08:19:51Z</time>
<desc>lat.=55.841816, lon.=26.440294, Alt.=127.788147m. Speed=32.507999m/h.</desc>
<speed>9.030000</speed>
</trkpt>
<trkpt lat="55.841755" lon="26.440205">
<ele>127.585022</ele>
<time>2010-07-17T08:19:52Z</time>
<desc>lat.=55.841755, lon.=26.440205, Alt.=127.585022m. Speed=31.500000m/h.</desc>
<speed>8.750000</speed>
</trkpt>
<trkpt lat="55.841698" lon="26.440117">
<ele>127.147522</ele>
<time>2010-07-17T08:19:53Z</time>
<desc>lat.=55.841698, lon.=26.440117, Alt.=127.147522m. Speed=30.492001m/h.</desc>
<speed>8.470000</speed>
</trkpt>
<trkpt lat="55.841640" lon="26.440039">
<ele>126.762756</ele>
<time>2010-07-17T08:19:54Z</time>
<desc>lat.=55.841640, lon.=26.440039, Alt.=126.762756m. Speed=30.024000m/h.</desc>
<speed>8.340000</speed>
</trkpt>
<trkpt lat="55.841576" lon="26.439960">
<ele>127.061584</ele>
<time>2010-07-17T08:19:55Z</time>
<desc>lat.=55.841576, lon.=26.439960, Alt.=127.061584m. Speed=30.132000m/h.</desc>
<speed>8.370000</speed>
</trkpt>
<trkpt lat="55.841515" lon="26.439880">
<ele>126.747131</ele>
<time>2010-07-17T08:19:56Z</time>
<desc>lat.=55.841515, lon.=26.439880, Alt.=126.747131m. Speed=30.275999m/h.</desc>
<speed>8.410000</speed>
</trkpt>
<trkpt lat="55.841457" lon="26.439796">
<ele>126.544006</ele>
<time>2010-07-17T08:19:57Z</time>
<desc>lat.=55.841457, lon.=26.439796, Alt.=126.544006m. Speed=30.204000m/h.</desc>
<speed>8.390000</speed>
</trkpt>
<trkpt lat="55.841393" lon="26.439713">
<ele>126.284241</ele>
<time>2010-07-17T08:19:58Z</time>
<desc>lat.=55.841393, lon.=26.439713, Alt.=126.284241m. Speed=30.708000m/h.</desc>
<speed>8.530000</speed>
</trkpt>
<trkpt lat="55.841328" lon="26.439631">
<ele>126.079163</ele>
<time>2010-07-17T08:19:59Z</time>
<desc>lat.=55.841328, lon.=26.439631, Alt.=126.079163m. Speed=29.952000m/h.</desc>
<speed>8.320000</speed>
</trkpt>
<trkpt lat="55.841267" lon="26.439554">
<ele>125.823303</ele>
<time>2010-07-17T08:20:00Z</time>
<desc>lat.=55.841267, lon.=26.439554, Alt.=125.823303m. Speed=28.728001m/h.</desc>
<speed>7.980000</speed>
</trkpt>
<trkpt lat="55.841209" lon="26.439476">
<ele>125.594788</ele>
<time>2010-07-17T08:20:01Z</time>
<desc>lat.=55.841209, lon.=26.439476, Alt.=125.594788m. Speed=28.620001m/h.</desc>
<speed>7.950000</speed>
</trkpt>
<trkpt lat="55.841152" lon="26.439405">
<ele>125.708069</ele>
<time>2010-07-17T08:20:02Z</time>
<desc>lat.=55.841152, lon.=26.439405, Alt.=125.708069m. Speed=26.351999m/h.</desc>
<speed>7.320000</speed>
</trkpt>
<trkpt lat="55.841099" lon="26.439327">
<ele>126.401428</ele>
<time>2010-07-17T08:20:03Z</time>
<desc>lat.=55.841099, lon.=26.439327, Alt.=126.401428m. Speed=26.820000m/h.</desc>
<speed>7.450000</speed>
</trkpt>
<trkpt lat="55.841049" lon="26.439253">
<ele>126.975647</ele>
<time>2010-07-17T08:20:04Z</time>
<desc>lat.=55.841049, lon.=26.439253, Alt.=126.975647m. Speed=25.416000m/h.</desc>
<speed>7.060000</speed>
</trkpt>
<trkpt lat="55.841000" lon="26.439184">
<ele>127.360413</ele>
<time>2010-07-17T08:20:05Z</time>
<desc>lat.=55.841000, lon.=26.439184, Alt.=127.360413m. Speed=24.372000m/h.</desc>
<speed>6.770000</speed>
</trkpt>
<trkpt lat="55.840950" lon="26.439127">
<ele>128.228638</ele>
<time>2010-07-17T08:20:06Z</time>
<desc>lat.=55.840950, lon.=26.439127, Alt.=128.228638m. Speed=23.615999m/h.</desc>
<speed>6.560000</speed>
</trkpt>
<trkpt lat="55.840908" lon="26.439066">
<ele>128.427856</ele>
<time>2010-07-17T08:20:07Z</time>
<desc>lat.=55.840908, lon.=26.439066, Alt.=128.427856m. Speed=22.716000m/h.</desc>
<speed>6.310000</speed>
</trkpt>
<trkpt lat="55.840862" lon="26.439007">
<ele>128.341919</ele>
<time>2010-07-17T08:20:08Z</time>
<desc>lat.=55.840862, lon.=26.439007, Alt.=128.341919m. Speed=21.708000m/h.</desc>
<speed>6.030000</speed>
</trkpt>
<trkpt lat="55.840820" lon="26.438950">
<ele>128.943481</ele>
<time>2010-07-17T08:20:09Z</time>
<desc>lat.=55.840820, lon.=26.438950, Alt.=128.943481m. Speed=22.068001m/h.</desc>
<speed>6.130000</speed>
</trkpt>
<trkpt lat="55.840778" lon="26.438890">
<ele>129.588013</ele>
<time>2010-07-17T08:20:10Z</time>
<desc>lat.=55.840778, lon.=26.438890, Alt.=129.588013m. Speed=20.124001m/h.</desc>
<speed>5.590000</speed>
</trkpt>
<trkpt lat="55.840740" lon="26.438835">
<ele>130.591919</ele>
<time>2010-07-17T08:20:11Z</time>
<desc>lat.=55.840740, lon.=26.438835, Alt.=130.591919m. Speed=20.664000m/h.</desc>
<speed>5.740000</speed>
</trkpt>
<trkpt lat="55.840698" lon="26.438786">
<ele>131.408325</ele>
<time>2010-07-17T08:20:12Z</time>
<desc>lat.=55.840698, lon.=26.438786, Alt.=131.408325m. Speed=20.808001m/h.</desc>
<speed>5.780000</speed>
</trkpt>
<trkpt lat="55.840656" lon="26.438734">
<ele>132.033325</ele>
<time>2010-07-17T08:20:13Z</time>
<desc>lat.=55.840656, lon.=26.438734, Alt.=132.033325m. Speed=19.872000m/h.</desc>
<speed>5.520000</speed>
</trkpt>
<trkpt lat="55.840614" lon="26.438681">
<ele>132.341919</ele>
<time>2010-07-17T08:20:14Z</time>
<desc>lat.=55.840614, lon.=26.438681, Alt.=132.341919m. Speed=20.195999m/h.</desc>
<speed>5.610000</speed>
</trkpt>
<trkpt lat="55.840572" lon="26.438641">
<ele>131.595825</ele>
<time>2010-07-17T08:20:15Z</time>
<desc>lat.=55.840572, lon.=26.438641, Alt.=131.595825m. Speed=19.656000m/h.</desc>
<speed>5.460000</speed>
</trkpt>
<trkpt lat="55.840530" lon="26.438593">
<ele>131.646606</ele>
<time>2010-07-17T08:20:16Z</time>
<desc>lat.=55.840530, lon.=26.438593, Alt.=131.646606m. Speed=19.260000m/h.</desc>
<speed>5.350000</speed>
</trkpt>
<trkpt lat="55.840492" lon="26.438541">
<ele>131.740356</ele>
<time>2010-07-17T08:20:17Z</time>
<desc>lat.=55.840492, lon.=26.438541, Alt.=131.740356m. Speed=19.260000m/h.</desc>
<speed>5.350000</speed>
</trkpt>
<trkpt lat="55.840450" lon="26.438488">
<ele>131.927856</ele>
<time>2010-07-17T08:20:18Z</time>
<desc>lat.=55.840450, lon.=26.438488, Alt.=131.927856m. Speed=20.628000m/h.</desc>
<speed>5.730000</speed>
</trkpt>
<trkpt lat="55.840408" lon="26.438431">
<ele>132.373169</ele>
<time>2010-07-17T08:20:19Z</time>
<desc>lat.=55.840408, lon.=26.438431, Alt.=132.373169m. Speed=21.096001m/h.</desc>
<speed>5.860000</speed>
</trkpt>
<trkpt lat="55.840363" lon="26.438368">
<ele>133.041138</ele>
<time>2010-07-17T08:20:20Z</time>
<desc>lat.=55.840363, lon.=26.438368, Alt.=133.041138m. Speed=20.340000m/h.</desc>
<speed>5.650000</speed>
</trkpt>
<trkpt lat="55.840321" lon="26.438313">
<ele>133.146606</ele>
<time>2010-07-17T08:20:21Z</time>
<desc>lat.=55.840321, lon.=26.438313, Alt.=133.146606m. Speed=21.240000m/h.</desc>
<speed>5.900000</speed>
</trkpt>
<trkpt lat="55.840279" lon="26.438251">
<ele>133.111450</ele>
<time>2010-07-17T08:20:22Z</time>
<desc>lat.=55.840279, lon.=26.438251, Alt.=133.111450m. Speed=20.916000m/h.</desc>
<speed>5.810000</speed>
</trkpt>
<trkpt lat="55.840233" lon="26.438189">
<ele>133.287231</ele>
<time>2010-07-17T08:20:23Z</time>
<desc>lat.=55.840233, lon.=26.438189, Alt.=133.287231m. Speed=21.708000m/h.</desc>
<speed>6.030000</speed>
</trkpt>
<trkpt lat="55.840195" lon="26.438131">
<ele>133.349731</ele>
<time>2010-07-17T08:20:24Z</time>
<desc>lat.=55.840195, lon.=26.438131, Alt.=133.349731m. Speed=20.879999m/h.</desc>
<speed>5.800000</speed>
</trkpt>
<trkpt lat="55.840153" lon="26.438074">
<ele>133.076294</ele>
<time>2010-07-17T08:20:25Z</time>
<desc>lat.=55.840153, lon.=26.438074, Alt.=133.076294m. Speed=21.420000m/h.</desc>
<speed>5.950000</speed>
</trkpt>
<trkpt lat="55.840111" lon="26.438015">
<ele>132.955200</ele>
<time>2010-07-17T08:20:26Z</time>
<desc>lat.=55.840111, lon.=26.438015, Alt.=132.955200m. Speed=21.743999m/h.</desc>
<speed>6.040000</speed>
</trkpt>
<trkpt lat="55.840073" lon="26.437963">
<ele>133.263794</ele>
<time>2010-07-17T08:20:27Z</time>
<desc>lat.=55.840073, lon.=26.437963, Alt.=133.263794m. Speed=21.204000m/h.</desc>
<speed>5.890000</speed>
</trkpt>
<trkpt lat="55.840031" lon="26.437902">
<ele>133.552856</ele>
<time>2010-07-17T08:20:28Z</time>
<desc>lat.=55.840031, lon.=26.437902, Alt.=133.552856m. Speed=21.636000m/h.</desc>
<speed>6.010000</speed>
</trkpt>
<trkpt lat="55.839989" lon="26.437845">
<ele>133.298950</ele>
<time>2010-07-17T08:20:29Z</time>
<desc>lat.=55.839989, lon.=26.437845, Alt.=133.298950m. Speed=19.728001m/h.</desc>
<speed>5.480000</speed>
</trkpt>
<trkpt lat="55.839943" lon="26.437788">
<ele>132.990356</ele>
<time>2010-07-17T08:20:30Z</time>
<desc>lat.=55.839943, lon.=26.437788, Alt.=132.990356m. Speed=21.348000m/h.</desc>
<speed>5.930000</speed>
</trkpt>
<trkpt lat="55.839893" lon="26.437725">
<ele>132.818481</ele>
<time>2010-07-17T08:20:31Z</time>
<desc>lat.=55.839893, lon.=26.437725, Alt.=132.818481m. Speed=20.736000m/h.</desc>
<speed>5.760000</speed>
</trkpt>
<trkpt lat="55.839855" lon="26.437674">
<ele>132.689575</ele>
<time>2010-07-17T08:20:32Z</time>
<desc>lat.=55.839855, lon.=26.437674, Alt.=132.689575m. Speed=20.195999m/h.</desc>
<speed>5.610000</speed>
</trkpt>
<trkpt lat="55.839813" lon="26.437614">
<ele>132.716919</ele>
<time>2010-07-17T08:20:33Z</time>
<desc>lat.=55.839813, lon.=26.437614, Alt.=132.716919m. Speed=20.232000m/h.</desc>
<speed>5.620000</speed>
</trkpt>
<trkpt lat="55.839775" lon="26.437559">
<ele>132.931763</ele>
<time>2010-07-17T08:20:34Z</time>
<desc>lat.=55.839775, lon.=26.437559, Alt.=132.931763m. Speed=21.132000m/h.</desc>
<speed>5.870000</speed>
</trkpt>
<trkpt lat="55.839737" lon="26.437502">
<ele>132.654419</ele>
<time>2010-07-17T08:20:35Z</time>
<desc>lat.=55.839737, lon.=26.437502, Alt.=132.654419m. Speed=21.528000m/h.</desc>
<speed>5.980000</speed>
</trkpt>
<trkpt lat="55.839695" lon="26.437449">
<ele>132.880981</ele>
<time>2010-07-17T08:20:36Z</time>
<desc>lat.=55.839695, lon.=26.437449, Alt.=132.880981m. Speed=19.728001m/h.</desc>
<speed>5.480000</speed>
</trkpt>
<trkpt lat="55.839657" lon="26.437391">
<ele>134.232544</ele>
<time>2010-07-17T08:20:37Z</time>
<desc>lat.=55.839657, lon.=26.437391, Alt.=134.232544m. Speed=18.900000m/h.</desc>
<speed>5.250000</speed>
</trkpt>
<trkpt lat="55.839619" lon="26.437342">
<ele>134.912231</ele>
<time>2010-07-17T08:20:38Z</time>
<desc>lat.=55.839619, lon.=26.437342, Alt.=134.912231m. Speed=18.792000m/h.</desc>
<speed>5.220000</speed>
</trkpt>
<trkpt lat="55.839584" lon="26.437292">
<ele>137.095825</ele>
<time>2010-07-17T08:20:39Z</time>
<desc>lat.=55.839584, lon.=26.437292, Alt.=137.095825m. Speed=18.540001m/h.</desc>
<speed>5.150000</speed>
</trkpt>
<trkpt lat="55.839542" lon="26.437243">
<ele>138.099731</ele>
<time>2010-07-17T08:20:40Z</time>
<desc>lat.=55.839542, lon.=26.437243, Alt.=138.099731m. Speed=18.143999m/h.</desc>
<speed>5.040000</speed>
</trkpt>
<trkpt lat="55.839504" lon="26.437195">
<ele>138.517700</ele>
<time>2010-07-17T08:20:41Z</time>
<desc>lat.=55.839504, lon.=26.437195, Alt.=138.517700m. Speed=18.612000m/h.</desc>
<speed>5.170000</speed>
</trkpt>
<trkpt lat="55.839462" lon="26.437145">
<ele>139.037231</ele>
<time>2010-07-17T08:20:42Z</time>
<desc>lat.=55.839462, lon.=26.437145, Alt.=139.037231m. Speed=18.900000m/h.</desc>
<speed>5.250000</speed>
</trkpt>
<trkpt lat="55.839420" lon="26.437098">
<ele>139.767700</ele>
<time>2010-07-17T08:20:43Z</time>
<desc>lat.=55.839420, lon.=26.437098, Alt.=139.767700m. Speed=19.152000m/h.</desc>
<speed>5.320000</speed>
</trkpt>
<trkpt lat="55.839386" lon="26.437050">
<ele>140.529419</ele>
<time>2010-07-17T08:20:44Z</time>
<desc>lat.=55.839386, lon.=26.437050, Alt.=140.529419m. Speed=17.532000m/h.</desc>
<speed>4.870000</speed>
</trkpt>
<trkpt lat="55.839352" lon="26.436998">
<ele>140.646606</ele>
<time>2010-07-17T08:20:45Z</time>
<desc>lat.=55.839352, lon.=26.436998, Alt.=140.646606m. Speed=17.820000m/h.</desc>
<speed>4.950000</speed>
</trkpt>
<trkpt lat="55.839321" lon="26.436949">
<ele>142.353638</ele>
<time>2010-07-17T08:20:46Z</time>
<desc>lat.=55.839321, lon.=26.436949, Alt.=142.353638m. Speed=17.351999m/h.</desc>
<speed>4.820000</speed>
</trkpt>
<trkpt lat="55.839283" lon="26.436899">
<ele>143.232544</ele>
<time>2010-07-17T08:20:47Z</time>
<desc>lat.=55.839283, lon.=26.436899, Alt.=143.232544m. Speed=18.180000m/h.</desc>
<speed>5.050000</speed>
</trkpt>
<trkpt lat="55.839249" lon="26.436853">
<ele>143.986450</ele>
<time>2010-07-17T08:20:48Z</time>
<desc>lat.=55.839249, lon.=26.436853, Alt.=143.986450m. Speed=16.812000m/h.</desc>
<speed>4.670000</speed>
</trkpt>
<trkpt lat="55.839218" lon="26.436804">
<ele>144.341919</ele>
<time>2010-07-17T08:20:49Z</time>
<desc>lat.=55.839218, lon.=26.436804, Alt.=144.341919m. Speed=16.955999m/h.</desc>
<speed>4.710000</speed>
</trkpt>
<trkpt lat="55.839188" lon="26.436766">
<ele>144.810669</ele>
<time>2010-07-17T08:20:50Z</time>
<desc>lat.=55.839188, lon.=26.436766, Alt.=144.810669m. Speed=16.128000m/h.</desc>
<speed>4.480000</speed>
</trkpt>
<trkpt lat="55.839153" lon="26.436718">
<ele>145.697388</ele>
<time>2010-07-17T08:20:51Z</time>
<desc>lat.=55.839153, lon.=26.436718, Alt.=145.697388m. Speed=17.028000m/h.</desc>
<speed>4.730000</speed>
</trkpt>
<trkpt lat="55.839115" lon="26.436670">
<ele>146.189575</ele>
<time>2010-07-17T08:20:52Z</time>
<desc>lat.=55.839115, lon.=26.436670, Alt.=146.189575m. Speed=18.216000m/h.</desc>
<speed>5.060000</speed>
</trkpt>
<trkpt lat="55.839077" lon="26.436613">
<ele>146.728638</ele>
<time>2010-07-17T08:20:53Z</time>
<desc>lat.=55.839077, lon.=26.436613, Alt.=146.728638m. Speed=18.180000m/h.</desc>
<speed>5.050000</speed>
</trkpt>
<trkpt lat="55.839035" lon="26.436565">
<ele>146.923950</ele>
<time>2010-07-17T08:20:54Z</time>
<desc>lat.=55.839035, lon.=26.436565, Alt.=146.923950m. Speed=17.784000m/h.</desc>
<speed>4.940000</speed>
</trkpt>
<trkpt lat="55.838993" lon="26.436502">
<ele>146.158325</ele>
<time>2010-07-17T08:20:55Z</time>
<desc>lat.=55.838993, lon.=26.436502, Alt.=146.158325m. Speed=18.827999m/h.</desc>
<speed>5.230000</speed>
</trkpt>
<trkpt lat="55.838959" lon="26.436449">
<ele>147.302856</ele>
<time>2010-07-17T08:20:56Z</time>
<desc>lat.=55.838959, lon.=26.436449, Alt.=147.302856m. Speed=18.072001m/h.</desc>
<speed>5.020000</speed>
</trkpt>
<trkpt lat="55.838917" lon="26.436396">
<ele>146.920044</ele>
<time>2010-07-17T08:20:57Z</time>
<desc>lat.=55.838917, lon.=26.436396, Alt.=146.920044m. Speed=18.108000m/h.</desc>
<speed>5.030000</speed>
</trkpt>
<trkpt lat="55.838875" lon="26.436346">
<ele>146.912231</ele>
<time>2010-07-17T08:20:58Z</time>
<desc>lat.=55.838875, lon.=26.436346, Alt.=146.912231m. Speed=19.115999m/h.</desc>
<speed>5.310000</speed>
</trkpt>
<trkpt lat="55.838833" lon="26.436296">
<ele>146.400513</ele>
<time>2010-07-17T08:20:59Z</time>
<desc>lat.=55.838833, lon.=26.436296, Alt.=146.400513m. Speed=19.511999m/h.</desc>
<speed>5.420000</speed>
</trkpt>
<trkpt lat="55.838795" lon="26.436243">
<ele>146.525513</ele>
<time>2010-07-17T08:21:00Z</time>
<desc>lat.=55.838795, lon.=26.436243, Alt.=146.525513m. Speed=20.087999m/h.</desc>
<speed>5.580000</speed>
</trkpt>
<trkpt lat="55.838760" lon="26.436184">
<ele>146.849731</ele>
<time>2010-07-17T08:21:01Z</time>
<desc>lat.=55.838760, lon.=26.436184, Alt.=146.849731m. Speed=20.087999m/h.</desc>
<speed>5.580000</speed>
</trkpt>
<trkpt lat="55.838722" lon="26.436129">
<ele>146.888794</ele>
<time>2010-07-17T08:21:02Z</time>
<desc>lat.=55.838722, lon.=26.436129, Alt.=146.888794m. Speed=18.792000m/h.</desc>
<speed>5.220000</speed>
</trkpt>
<trkpt lat="55.838684" lon="26.436071">
<ele>146.935669</ele>
<time>2010-07-17T08:21:03Z</time>
<desc>lat.=55.838684, lon.=26.436071, Alt.=146.935669m. Speed=19.080000m/h.</desc>
<speed>5.300000</speed>
</trkpt>
<trkpt lat="55.838650" lon="26.436016">
<ele>147.076294</ele>
<time>2010-07-17T08:21:04Z</time>
<desc>lat.=55.838650, lon.=26.436016, Alt.=147.076294m. Speed=20.087999m/h.</desc>
<speed>5.580000</speed>
</trkpt>
<trkpt lat="55.838604" lon="26.435953">
<ele>147.009888</ele>
<time>2010-07-17T08:21:05Z</time>
<desc>lat.=55.838604, lon.=26.435953, Alt.=147.009888m. Speed=20.412001m/h.</desc>
<speed>5.670000</speed>
</trkpt>
<trkpt lat="55.838558" lon="26.435890">
<ele>146.763794</ele>
<time>2010-07-17T08:21:06Z</time>
<desc>lat.=55.838558, lon.=26.435890, Alt.=146.763794m. Speed=19.620001m/h.</desc>
<speed>5.450000</speed>
</trkpt>
<trkpt lat="55.838520" lon="26.435827">
<ele>146.705200</ele>
<time>2010-07-17T08:21:07Z</time>
<desc>lat.=55.838520, lon.=26.435827, Alt.=146.705200m. Speed=19.836000m/h.</desc>
<speed>5.510000</speed>
</trkpt>
<trkpt lat="55.838478" lon="26.435760">
<ele>146.666138</ele>
<time>2010-07-17T08:21:08Z</time>
<desc>lat.=55.838478, lon.=26.435760, Alt.=146.666138m. Speed=21.275999m/h.</desc>
<speed>5.910000</speed>
</trkpt>
<trkpt lat="55.838432" lon="26.435705">
<ele>147.162231</ele>
<time>2010-07-17T08:21:09Z</time>
<desc>lat.=55.838432, lon.=26.435705, Alt.=147.162231m. Speed=20.700001m/h.</desc>
<speed>5.750000</speed>
</trkpt>
<trkpt lat="55.838394" lon="26.435652">
<ele>147.533325</ele>
<time>2010-07-17T08:21:10Z</time>
<desc>lat.=55.838394, lon.=26.435652, Alt.=147.533325m. Speed=20.124001m/h.</desc>
<speed>5.590000</speed>
</trkpt>
<trkpt lat="55.838356" lon="26.435596">
<ele>147.658325</ele>
<time>2010-07-17T08:21:11Z</time>
<desc>lat.=55.838356, lon.=26.435596, Alt.=147.658325m. Speed=18.719999m/h.</desc>
<speed>5.200000</speed>
</trkpt>
<trkpt lat="55.838318" lon="26.435547">
<ele>147.767700</ele>
<time>2010-07-17T08:21:12Z</time>
<desc>lat.=55.838318, lon.=26.435547, Alt.=147.767700m. Speed=18.972000m/h.</desc>
<speed>5.270000</speed>
</trkpt>
<trkpt lat="55.838272" lon="26.435501">
<ele>147.943481</ele>
<time>2010-07-17T08:21:13Z</time>
<desc>lat.=55.838272, lon.=26.435501, Alt.=147.943481m. Speed=19.908001m/h.</desc>
<speed>5.530000</speed>
</trkpt>
<trkpt lat="55.838226" lon="26.435453">
<ele>147.795044</ele>
<time>2010-07-17T08:21:14Z</time>
<desc>lat.=55.838226, lon.=26.435453, Alt.=147.795044m. Speed=20.664000m/h.</desc>
<speed>5.740000</speed>
</trkpt>
<trkpt lat="55.838181" lon="26.435398">
<ele>147.755981</ele>
<time>2010-07-17T08:21:15Z</time>
<desc>lat.=55.838181, lon.=26.435398, Alt.=147.755981m. Speed=22.500000m/h.</desc>
<speed>6.250000</speed>
</trkpt>
<trkpt lat="55.838135" lon="26.435335">
<ele>147.752075</ele>
<time>2010-07-17T08:21:16Z</time>
<desc>lat.=55.838135, lon.=26.435335, Alt.=147.752075m. Speed=23.112000m/h.</desc>
<speed>6.420000</speed>
</trkpt>
<trkpt lat="55.838089" lon="26.435274">
<ele>147.845825</ele>
<time>2010-07-17T08:21:17Z</time>
<desc>lat.=55.838089, lon.=26.435274, Alt.=147.845825m. Speed=22.176001m/h.</desc>
<speed>6.160000</speed>
</trkpt>
<trkpt lat="55.838043" lon="26.435207">
<ele>147.810669</ele>
<time>2010-07-17T08:21:18Z</time>
<desc>lat.=55.838043, lon.=26.435207, Alt.=147.810669m. Speed=22.427999m/h.</desc>
<speed>6.230000</speed>
</trkpt>
<trkpt lat="55.837997" lon="26.435131">
<ele>147.713013</ele>
<time>2010-07-17T08:21:19Z</time>
<desc>lat.=55.837997, lon.=26.435131, Alt.=147.713013m. Speed=23.112000m/h.</desc>
<speed>6.420000</speed>
</trkpt>
<trkpt lat="55.837955" lon="26.435068">
<ele>147.728638</ele>
<time>2010-07-17T08:21:20Z</time>
<desc>lat.=55.837955, lon.=26.435068, Alt.=147.728638m. Speed=22.643999m/h.</desc>
<speed>6.290000</speed>
</trkpt>
<trkpt lat="55.837906" lon="26.435001">
<ele>146.990356</ele>
<time>2010-07-17T08:21:21Z</time>
<desc>lat.=55.837906, lon.=26.435001, Alt.=146.990356m. Speed=23.040001m/h.</desc>
<speed>6.400000</speed>
</trkpt>
<trkpt lat="55.837856" lon="26.434944">
<ele>146.431763</ele>
<time>2010-07-17T08:21:22Z</time>
<desc>lat.=55.837856, lon.=26.434944, Alt.=146.431763m. Speed=21.708000m/h.</desc>
<speed>6.030000</speed>
</trkpt>
<trkpt lat="55.837811" lon="26.434887">
<ele>147.177856</ele>
<time>2010-07-17T08:21:23Z</time>
<desc>lat.=55.837811, lon.=26.434887, Alt.=147.177856m. Speed=20.808001m/h.</desc>
<speed>5.780000</speed>
</trkpt>
<trkpt lat="55.837769" lon="26.434843">
<ele>147.072388</ele>
<time>2010-07-17T08:21:24Z</time>
<desc>lat.=55.837769, lon.=26.434843, Alt.=147.072388m. Speed=19.260000m/h.</desc>
<speed>5.350000</speed>
</trkpt>
<trkpt lat="55.837730" lon="26.434795">
<ele>148.158325</ele>
<time>2010-07-17T08:21:25Z</time>
<desc>lat.=55.837730, lon.=26.434795, Alt.=148.158325m. Speed=19.115999m/h.</desc>
<speed>5.310000</speed>
</trkpt>
<trkpt lat="55.837692" lon="26.434742">
<ele>148.377075</ele>
<time>2010-07-17T08:21:26Z</time>
<desc>lat.=55.837692, lon.=26.434742, Alt.=148.377075m. Speed=19.908001m/h.</desc>
<speed>5.530000</speed>
</trkpt>
<trkpt lat="55.837650" lon="26.434696">
<ele>148.771606</ele>
<time>2010-07-17T08:21:27Z</time>
<desc>lat.=55.837650, lon.=26.434696, Alt.=148.771606m. Speed=18.972000m/h.</desc>
<speed>5.270000</speed>
</trkpt>
<trkpt lat="55.837612" lon="26.434645">
<ele>147.994263</ele>
<time>2010-07-17T08:21:28Z</time>
<desc>lat.=55.837612, lon.=26.434645, Alt.=147.994263m. Speed=17.712000m/h.</desc>
<speed>4.920000</speed>
</trkpt>
<trkpt lat="55.837582" lon="26.434599">
<ele>147.892700</ele>
<time>2010-07-17T08:21:29Z</time>
<desc>lat.=55.837582, lon.=26.434599, Alt.=147.892700m. Speed=16.488001m/h.</desc>
<speed>4.580000</speed>
</trkpt>
<trkpt lat="55.837547" lon="26.434551">
<ele>147.064575</ele>
<time>2010-07-17T08:21:30Z</time>
<desc>lat.=55.837547, lon.=26.434551, Alt.=147.064575m. Speed=16.056000m/h.</desc>
<speed>4.460000</speed>
</trkpt>
<trkpt lat="55.837517" lon="26.434507">
<ele>146.357544</ele>
<time>2010-07-17T08:21:31Z</time>
<desc>lat.=55.837517, lon.=26.434507, Alt.=146.357544m. Speed=16.452000m/h.</desc>
<speed>4.570000</speed>
</trkpt>
<trkpt lat="55.837482" lon="26.434458">
<ele>146.244263</ele>
<time>2010-07-17T08:21:32Z</time>
<desc>lat.=55.837482, lon.=26.434458, Alt.=146.244263m. Speed=14.760000m/h.</desc>
<speed>4.100000</speed>
</trkpt>
<trkpt lat="55.837460" lon="26.434418">
<ele>146.142700</ele>
<time>2010-07-17T08:21:33Z</time>
<desc>lat.=55.837460, lon.=26.434418, Alt.=146.142700m. Speed=14.148000m/h.</desc>
<speed>3.930000</speed>
</trkpt>
<trkpt lat="55.837425" lon="26.434374">
<ele>146.002075</ele>
<time>2010-07-17T08:21:34Z</time>
<desc>lat.=55.837425, lon.=26.434374, Alt.=146.002075m. Speed=13.896000m/h.</desc>
<speed>3.860000</speed>
</trkpt>
<trkpt lat="55.837399" lon="26.434338">
<ele>145.955200</ele>
<time>2010-07-17T08:21:35Z</time>
<desc>lat.=55.837399, lon.=26.434338, Alt.=145.955200m. Speed=14.256000m/h.</desc>
<speed>3.960000</speed>
</trkpt>
<trkpt lat="55.837376" lon="26.434299">
<ele>146.505981</ele>
<time>2010-07-17T08:21:36Z</time>
<desc>lat.=55.837376, lon.=26.434299, Alt.=146.505981m. Speed=13.284000m/h.</desc>
<speed>3.690000</speed>
</trkpt>
<trkpt lat="55.837353" lon="26.434263">
<ele>146.439575</ele>
<time>2010-07-17T08:21:37Z</time>
<desc>lat.=55.837353, lon.=26.434263, Alt.=146.439575m. Speed=11.700000m/h.</desc>
<speed>3.250000</speed>
</trkpt>
<trkpt lat="55.837326" lon="26.434223">
<ele>145.888794</ele>
<time>2010-07-17T08:21:38Z</time>
<desc>lat.=55.837326, lon.=26.434223, Alt.=145.888794m. Speed=12.528000m/h.</desc>
<speed>3.480000</speed>
</trkpt>
<trkpt lat="55.837299" lon="26.434189">
<ele>145.974731</ele>
<time>2010-07-17T08:21:39Z</time>
<desc>lat.=55.837299, lon.=26.434189, Alt.=145.974731m. Speed=12.096000m/h.</desc>
<speed>3.360000</speed>
</trkpt>
<trkpt lat="55.837276" lon="26.434156">
<ele>146.439575</ele>
<time>2010-07-17T08:21:40Z</time>
<desc>lat.=55.837276, lon.=26.434156, Alt.=146.439575m. Speed=11.376000m/h.</desc>
<speed>3.160000</speed>
</trkpt>
<trkpt lat="55.837254" lon="26.434124">
<ele>146.673950</ele>
<time>2010-07-17T08:21:41Z</time>
<desc>lat.=55.837254, lon.=26.434124, Alt.=146.673950m. Speed=12.672000m/h.</desc>
<speed>3.520000</speed>
</trkpt>
<trkpt lat="55.837231" lon="26.434086">
<ele>146.709106</ele>
<time>2010-07-17T08:21:42Z</time>
<desc>lat.=55.837231, lon.=26.434086, Alt.=146.709106m. Speed=11.880000m/h.</desc>
<speed>3.300000</speed>
</trkpt>
<trkpt lat="55.837208" lon="26.434052">
<ele>146.666138</ele>
<time>2010-07-17T08:21:43Z</time>
<desc>lat.=55.837208, lon.=26.434052, Alt.=146.666138m. Speed=11.520000m/h.</desc>
<speed>3.200000</speed>
</trkpt>
<trkpt lat="55.837189" lon="26.434023">
<ele>146.904419</ele>
<time>2010-07-17T08:21:44Z</time>
<desc>lat.=55.837189, lon.=26.434023, Alt.=146.904419m. Speed=11.340000m/h.</desc>
<speed>3.150000</speed>
</trkpt>
<trkpt lat="55.837162" lon="26.433990">
<ele>147.341919</ele>
<time>2010-07-17T08:21:45Z</time>
<desc>lat.=55.837162, lon.=26.433990, Alt.=147.341919m. Speed=10.548000m/h.</desc>
<speed>2.930000</speed>
</trkpt>
<trkpt lat="55.837143" lon="26.433960">
<ele>147.466919</ele>
<time>2010-07-17T08:21:46Z</time>
<desc>lat.=55.837143, lon.=26.433960, Alt.=147.466919m. Speed=8.712000m/h.</desc>
<speed>2.420000</speed>
</trkpt>
<trkpt lat="55.837120" lon="26.433939">
<ele>147.685669</ele>
<time>2010-07-17T08:21:47Z</time>
<desc>lat.=55.837120, lon.=26.433939, Alt.=147.685669m. Speed=6.984000m/h.</desc>
<speed>1.940000</speed>
</trkpt>
<trkpt lat="55.837105" lon="26.433914">
<ele>147.615356</ele>
<time>2010-07-17T08:21:48Z</time>
<desc>lat.=55.837105, lon.=26.433914, Alt.=147.615356m. Speed=8.568000m/h.</desc>
<speed>2.380000</speed>
</trkpt>
<trkpt lat="55.837082" lon="26.433889">
<ele>147.986450</ele>
<time>2010-07-17T08:21:49Z</time>
<desc>lat.=55.837082, lon.=26.433889, Alt.=147.986450m. Speed=9.900000m/h.</desc>
<speed>2.750000</speed>
</trkpt>
<trkpt lat="55.837059" lon="26.433865">
<ele>148.255981</ele>
<time>2010-07-17T08:21:50Z</time>
<desc>lat.=55.837059, lon.=26.433865, Alt.=148.255981m. Speed=10.368000m/h.</desc>
<speed>2.880000</speed>
</trkpt>
<trkpt lat="55.837036" lon="26.433834">
<ele>148.709106</ele>
<time>2010-07-17T08:21:51Z</time>
<desc>lat.=55.837036, lon.=26.433834, Alt.=148.709106m. Speed=11.340000m/h.</desc>
<speed>3.150000</speed>
</trkpt>
<trkpt lat="55.837009" lon="26.433805">
<ele>149.252075</ele>
<time>2010-07-17T08:21:52Z</time>
<desc>lat.=55.837009, lon.=26.433805, Alt.=149.252075m. Speed=14.580000m/h.</desc>
<speed>4.050000</speed>
</trkpt>
<trkpt lat="55.836975" lon="26.433773">
<ele>149.611450</ele>
<time>2010-07-17T08:21:53Z</time>
<desc>lat.=55.836975, lon.=26.433773, Alt.=149.611450m. Speed=15.156000m/h.</desc>
<speed>4.210000</speed>
</trkpt>
<trkpt lat="55.836937" lon="26.433739">
<ele>149.705200</ele>
<time>2010-07-17T08:21:54Z</time>
<desc>lat.=55.836937, lon.=26.433739, Alt.=149.705200m. Speed=15.552000m/h.</desc>
<speed>4.320000</speed>
</trkpt>
<trkpt lat="55.836903" lon="26.433704">
<ele>149.810669</ele>
<time>2010-07-17T08:21:55Z</time>
<desc>lat.=55.836903, lon.=26.433704, Alt.=149.810669m. Speed=14.436000m/h.</desc>
<speed>4.010000</speed>
</trkpt>
<trkpt lat="55.836868" lon="26.433662">
<ele>149.963013</ele>
<time>2010-07-17T08:21:56Z</time>
<desc>lat.=55.836868, lon.=26.433662, Alt.=149.963013m. Speed=17.639999m/h.</desc>
<speed>4.900000</speed>
</trkpt>
<trkpt lat="55.836826" lon="26.433620">
<ele>150.240356</ele>
<time>2010-07-17T08:21:57Z</time>
<desc>lat.=55.836826, lon.=26.433620, Alt.=150.240356m. Speed=19.368000m/h.</desc>
<speed>5.380000</speed>
</trkpt>
<trkpt lat="55.836788" lon="26.433569">
<ele>150.267700</ele>
<time>2010-07-17T08:21:58Z</time>
<desc>lat.=55.836788, lon.=26.433569, Alt.=150.267700m. Speed=19.476000m/h.</desc>
<speed>5.410000</speed>
</trkpt>
<trkpt lat="55.836746" lon="26.433523">
<ele>150.463013</ele>
<time>2010-07-17T08:21:59Z</time>
<desc>lat.=55.836746, lon.=26.433523, Alt.=150.463013m. Speed=20.195999m/h.</desc>
<speed>5.610000</speed>
</trkpt>
<trkpt lat="55.836700" lon="26.433472">
<ele>150.517700</ele>
<time>2010-07-17T08:22:00Z</time>
<desc>lat.=55.836700, lon.=26.433472, Alt.=150.517700m. Speed=22.356001m/h.</desc>
<speed>6.210000</speed>
</trkpt>
<trkpt lat="55.836647" lon="26.433395">
<ele>150.267700</ele>
<time>2010-07-17T08:22:01Z</time>
<desc>lat.=55.836647, lon.=26.433395, Alt.=150.267700m. Speed=25.271999m/h.</desc>
<speed>7.020000</speed>
</trkpt>
<trkpt lat="55.836594" lon="26.433315">
<ele>149.982544</ele>
<time>2010-07-17T08:22:02Z</time>
<desc>lat.=55.836594, lon.=26.433315, Alt.=149.982544m. Speed=25.920000m/h.</desc>
<speed>7.200000</speed>
</trkpt>
<trkpt lat="55.836536" lon="26.433245">
<ele>149.853638</ele>
<time>2010-07-17T08:22:03Z</time>
<desc>lat.=55.836536, lon.=26.433245, Alt.=149.853638m. Speed=26.496000m/h.</desc>
<speed>7.360000</speed>
</trkpt>
<trkpt lat="55.836475" lon="26.433168">
<ele>149.517700</ele>
<time>2010-07-17T08:22:04Z</time>
<desc>lat.=55.836475, lon.=26.433168, Alt.=149.517700m. Speed=28.980000m/h.</desc>
<speed>8.050000</speed>
</trkpt>
<trkpt lat="55.836414" lon="26.433064">
<ele>148.748169</ele>
<time>2010-07-17T08:22:05Z</time>
<desc>lat.=55.836414, lon.=26.433064, Alt.=148.748169m. Speed=31.860001m/h.</desc>
<speed>8.850000</speed>
</trkpt>
<trkpt lat="55.836353" lon="26.432962">
<ele>147.662231</ele>
<time>2010-07-17T08:22:06Z</time>
<desc>lat.=55.836353, lon.=26.432962, Alt.=147.662231m. Speed=32.256001m/h.</desc>
<speed>8.960000</speed>
</trkpt>
<trkpt lat="55.836281" lon="26.432873">
<ele>147.322388</ele>
<time>2010-07-17T08:22:07Z</time>
<desc>lat.=55.836281, lon.=26.432873, Alt.=147.322388m. Speed=31.968000m/h.</desc>
<speed>8.880000</speed>
</trkpt>
<trkpt lat="55.836212" lon="26.432779">
<ele>147.306763</ele>
<time>2010-07-17T08:22:08Z</time>
<desc>lat.=55.836212, lon.=26.432779, Alt.=147.306763m. Speed=33.515999m/h.</desc>
<speed>9.310000</speed>
</trkpt>
<trkpt lat="55.836140" lon="26.432684">
<ele>147.505981</ele>
<time>2010-07-17T08:22:09Z</time>
<desc>lat.=55.836140, lon.=26.432684, Alt.=147.505981m. Speed=32.976002m/h.</desc>
<speed>9.160000</speed>
</trkpt>
<trkpt lat="55.836071" lon="26.432589">
<ele>147.505981</ele>
<time>2010-07-17T08:22:10Z</time>
<desc>lat.=55.836071, lon.=26.432589, Alt.=147.505981m. Speed=33.480000m/h.</desc>
<speed>9.300000</speed>
</trkpt>
<trkpt lat="55.835999" lon="26.432497">
<ele>147.443481</ele>
<time>2010-07-17T08:22:11Z</time>
<desc>lat.=55.835999, lon.=26.432497, Alt.=147.443481m. Speed=34.164001m/h.</desc>
<speed>9.490000</speed>
</trkpt>
<trkpt lat="55.835930" lon="26.432407">
<ele>147.318481</ele>
<time>2010-07-17T08:22:12Z</time>
<desc>lat.=55.835930, lon.=26.432407, Alt.=147.318481m. Speed=34.236000m/h.</desc>
<speed>9.510000</speed>
</trkpt>
<trkpt lat="55.835854" lon="26.432312">
<ele>146.970825</ele>
<time>2010-07-17T08:22:13Z</time>
<desc>lat.=55.835854, lon.=26.432312, Alt.=146.970825m. Speed=36.180000m/h.</desc>
<speed>10.050000</speed>
</trkpt>
<trkpt lat="55.835777" lon="26.432217">
<ele>146.568481</ele>
<time>2010-07-17T08:22:14Z</time>
<desc>lat.=55.835777, lon.=26.432217, Alt.=146.568481m. Speed=35.891998m/h.</desc>
<speed>9.970000</speed>
</trkpt>
<trkpt lat="55.835701" lon="26.432127">
<ele>146.490356</ele>
<time>2010-07-17T08:22:15Z</time>
<desc>lat.=55.835701, lon.=26.432127, Alt.=146.490356m. Speed=35.495998m/h.</desc>
<speed>9.860000</speed>
</trkpt>
<trkpt lat="55.835629" lon="26.432030">
<ele>146.427856</ele>
<time>2010-07-17T08:22:16Z</time>
<desc>lat.=55.835629, lon.=26.432030, Alt.=146.427856m. Speed=36.431999m/h.</desc>
<speed>10.120000</speed>
</trkpt>
<trkpt lat="55.835548" lon="26.431931">
<ele>146.361450</ele>
<time>2010-07-17T08:22:17Z</time>
<desc>lat.=55.835548, lon.=26.431931, Alt.=146.361450m. Speed=37.007999m/h.</desc>
<speed>10.280000</speed>
</trkpt>
<trkpt lat="55.835472" lon="26.431829">
<ele>146.232544</ele>
<time>2010-07-17T08:22:18Z</time>
<desc>lat.=55.835472, lon.=26.431829, Alt.=146.232544m. Speed=36.071999m/h.</desc>
<speed>10.020000</speed>
</trkpt>
<trkpt lat="55.835400" lon="26.431723">
<ele>146.529419</ele>
<time>2010-07-17T08:22:19Z</time>
<desc>lat.=55.835400, lon.=26.431723, Alt.=146.529419m. Speed=35.316002m/h.</desc>
<speed>9.810001</speed>
</trkpt>
<trkpt lat="55.835323" lon="26.431627">
<ele>146.400513</ele>
<time>2010-07-17T08:22:20Z</time>
<desc>lat.=55.835323, lon.=26.431627, Alt.=146.400513m. Speed=35.028000m/h.</desc>
<speed>9.730000</speed>
</trkpt>
<trkpt lat="55.835251" lon="26.431538">
<ele>146.189575</ele>
<time>2010-07-17T08:22:21Z</time>
<desc>lat.=55.835251, lon.=26.431538, Alt.=146.189575m. Speed=35.568001m/h.</desc>
<speed>9.880000</speed>
</trkpt>
<trkpt lat="55.835175" lon="26.431437">
<ele>146.240356</ele>
<time>2010-07-17T08:22:22Z</time>
<desc>lat.=55.835175, lon.=26.431437, Alt.=146.240356m. Speed=36.144001m/h.</desc>
<speed>10.040000</speed>
</trkpt>
<trkpt lat="55.835098" lon="26.431334">
<ele>144.798950</ele>
<time>2010-07-17T08:22:23Z</time>
<desc>lat.=55.835098, lon.=26.431334, Alt.=144.798950m. Speed=34.127998m/h.</desc>
<speed>9.480000</speed>
</trkpt>
<trkpt lat="55.835030" lon="26.431240">
<ele>142.045044</ele>
<time>2010-07-17T08:22:24Z</time>
<desc>lat.=55.835030, lon.=26.431240, Alt.=142.045044m. Speed=33.048000m/h.</desc>
<speed>9.180000</speed>
</trkpt>
<trkpt lat="55.834965" lon="26.431154">
<ele>141.685669</ele>
<time>2010-07-17T08:22:25Z</time>
<desc>lat.=55.834965, lon.=26.431154, Alt.=141.685669m. Speed=32.040001m/h.</desc>
<speed>8.900000</speed>
</trkpt>
<trkpt lat="55.834904" lon="26.431063">
<ele>141.713013</ele>
<time>2010-07-17T08:22:26Z</time>
<desc>lat.=55.834904, lon.=26.431063, Alt.=141.713013m. Speed=31.320000m/h.</desc>
<speed>8.700000</speed>
</trkpt>
<trkpt lat="55.834843" lon="26.430975">
<ele>141.248169</ele>
<time>2010-07-17T08:22:27Z</time>
<desc>lat.=55.834843, lon.=26.430975, Alt.=141.248169m. Speed=30.528000m/h.</desc>
<speed>8.480000</speed>
</trkpt>
<trkpt lat="55.834778" lon="26.430885">
<ele>140.966919</ele>
<time>2010-07-17T08:22:28Z</time>
<desc>lat.=55.834778, lon.=26.430885, Alt.=140.966919m. Speed=30.743999m/h.</desc>
<speed>8.540000</speed>
</trkpt>
<trkpt lat="55.834717" lon="26.430803">
<ele>140.689575</ele>
<time>2010-07-17T08:22:29Z</time>
<desc>lat.=55.834717, lon.=26.430803, Alt.=140.689575m. Speed=29.232000m/h.</desc>
<speed>8.120000</speed>
</trkpt>
<trkpt lat="55.834663" lon="26.430719">
<ele>140.330200</ele>
<time>2010-07-17T08:22:30Z</time>
<desc>lat.=55.834663, lon.=26.430719, Alt.=140.330200m. Speed=27.323999m/h.</desc>
<speed>7.590000</speed>
</trkpt>
<trkpt lat="55.834618" lon="26.430641">
<ele>140.193481</ele>
<time>2010-07-17T08:22:31Z</time>
<desc>lat.=55.834618, lon.=26.430641, Alt.=140.193481m. Speed=26.459999m/h.</desc>
<speed>7.350000</speed>
</trkpt>
<trkpt lat="55.834560" lon="26.430553">
<ele>139.197388</ele>
<time>2010-07-17T08:22:32Z</time>
<desc>lat.=55.834560, lon.=26.430553, Alt.=139.197388m. Speed=27.900000m/h.</desc>
<speed>7.750000</speed>
</trkpt>
<trkpt lat="55.834511" lon="26.430447">
<ele>139.091919</ele>
<time>2010-07-17T08:22:33Z</time>
<desc>lat.=55.834511, lon.=26.430447, Alt.=139.091919m. Speed=25.848000m/h.</desc>
<speed>7.180000</speed>
</trkpt>
<trkpt lat="55.834457" lon="26.430376">
<ele>138.865356</ele>
<time>2010-07-17T08:22:34Z</time>
<desc>lat.=55.834457, lon.=26.430376, Alt.=138.865356m. Speed=25.164000m/h.</desc>
<speed>6.990000</speed>
</trkpt>
<trkpt lat="55.834404" lon="26.430307">
<ele>137.310669</ele>
<time>2010-07-17T08:22:35Z</time>
<desc>lat.=55.834404, lon.=26.430307, Alt.=137.310669m. Speed=24.408001m/h.</desc>
<speed>6.780000</speed>
</trkpt>
<trkpt lat="55.834351" lon="26.430246">
<ele>137.232544</ele>
<time>2010-07-17T08:22:36Z</time>
<desc>lat.=55.834351, lon.=26.430246, Alt.=137.232544m. Speed=25.164000m/h.</desc>
<speed>6.990000</speed>
</trkpt>
<trkpt lat="55.834301" lon="26.430183">
<ele>138.513794</ele>
<time>2010-07-17T08:22:37Z</time>
<desc>lat.=55.834301, lon.=26.430183, Alt.=138.513794m. Speed=24.587999m/h.</desc>
<speed>6.830000</speed>
</trkpt>
<trkpt lat="55.834251" lon="26.430117">
<ele>139.345825</ele>
<time>2010-07-17T08:22:38Z</time>
<desc>lat.=55.834251, lon.=26.430117, Alt.=139.345825m. Speed=25.559999m/h.</desc>
<speed>7.100000</speed>
</trkpt>
<trkpt lat="55.834198" lon="26.430046">
<ele>140.088013</ele>
<time>2010-07-17T08:22:39Z</time>
<desc>lat.=55.834198, lon.=26.430046, Alt.=140.088013m. Speed=26.496000m/h.</desc>
<speed>7.360000</speed>
</trkpt>
<trkpt lat="55.834141" lon="26.429983">
<ele>140.529419</ele>
<time>2010-07-17T08:22:40Z</time>
<desc>lat.=55.834141, lon.=26.429983, Alt.=140.529419m. Speed=24.983999m/h.</desc>
<speed>6.940000</speed>
</trkpt>
<trkpt lat="55.834087" lon="26.429920">
<ele>140.970825</ele>
<time>2010-07-17T08:22:41Z</time>
<desc>lat.=55.834087, lon.=26.429920, Alt.=140.970825m. Speed=26.747999m/h.</desc>
<speed>7.430000</speed>
</trkpt>
<trkpt lat="55.834034" lon="26.429852">
<ele>141.185669</ele>
<time>2010-07-17T08:22:42Z</time>
<desc>lat.=55.834034, lon.=26.429852, Alt.=141.185669m. Speed=26.243999m/h.</desc>
<speed>7.290000</speed>
</trkpt>
<trkpt lat="55.833969" lon="26.429785">
<ele>141.498169</ele>
<time>2010-07-17T08:22:43Z</time>
<desc>lat.=55.833969, lon.=26.429785, Alt.=141.498169m. Speed=28.260000m/h.</desc>
<speed>7.850000</speed>
</trkpt>
<trkpt lat="55.833912" lon="26.429716">
<ele>141.740356</ele>
<time>2010-07-17T08:22:44Z</time>
<desc>lat.=55.833912, lon.=26.429716, Alt.=141.740356m. Speed=26.532000m/h.</desc>
<speed>7.370000</speed>
</trkpt>
<trkpt lat="55.833855" lon="26.429646">
<ele>141.912231</ele>
<time>2010-07-17T08:22:45Z</time>
<desc>lat.=55.833855, lon.=26.429646, Alt.=141.912231m. Speed=27.396000m/h.</desc>
<speed>7.610000</speed>
</trkpt>
<trkpt lat="55.833797" lon="26.429575">
<ele>142.130981</ele>
<time>2010-07-17T08:22:46Z</time>
<desc>lat.=55.833797, lon.=26.429575, Alt.=142.130981m. Speed=26.136000m/h.</desc>
<speed>7.260000</speed>
</trkpt>
<trkpt lat="55.833744" lon="26.429514">
<ele>142.365356</ele>
<time>2010-07-17T08:22:47Z</time>
<desc>lat.=55.833744, lon.=26.429514, Alt.=142.365356m. Speed=24.875999m/h.</desc>
<speed>6.910000</speed>
</trkpt>
<trkpt lat="55.833687" lon="26.429453">
<ele>142.865356</ele>
<time>2010-07-17T08:22:48Z</time>
<desc>lat.=55.833687, lon.=26.429453, Alt.=142.865356m. Speed=25.812000m/h.</desc>
<speed>7.170000</speed>
</trkpt>
<trkpt lat="55.833630" lon="26.429390">
<ele>143.263794</ele>
<time>2010-07-17T08:22:49Z</time>
<desc>lat.=55.833630, lon.=26.429390, Alt.=143.263794m. Speed=26.388000m/h.</desc>
<speed>7.330000</speed>
</trkpt>
<trkpt lat="55.833576" lon="26.429331">
<ele>143.834106</ele>
<time>2010-07-17T08:22:50Z</time>
<desc>lat.=55.833576, lon.=26.429331, Alt.=143.834106m. Speed=24.768000m/h.</desc>
<speed>6.880000</speed>
</trkpt>
<trkpt lat="55.833519" lon="26.429277">
<ele>144.298950</ele>
<time>2010-07-17T08:22:51Z</time>
<desc>lat.=55.833519, lon.=26.429277, Alt.=144.298950m. Speed=24.875999m/h.</desc>
<speed>6.910000</speed>
</trkpt>
<trkpt lat="55.833469" lon="26.429222">
<ele>144.709106</ele>
<time>2010-07-17T08:22:52Z</time>
<desc>lat.=55.833469, lon.=26.429222, Alt.=144.709106m. Speed=23.400000m/h.</desc>
<speed>6.500000</speed>
</trkpt>
<trkpt lat="55.833412" lon="26.429165">
<ele>145.318481</ele>
<time>2010-07-17T08:22:53Z</time>
<desc>lat.=55.833412, lon.=26.429165, Alt.=145.318481m. Speed=24.875999m/h.</desc>
<speed>6.910000</speed>
</trkpt>
<trkpt lat="55.833363" lon="26.429104">
<ele>145.685669</ele>
<time>2010-07-17T08:22:54Z</time>
<desc>lat.=55.833363, lon.=26.429104, Alt.=145.685669m. Speed=24.840000m/h.</desc>
<speed>6.900000</speed>
</trkpt>
<trkpt lat="55.833309" lon="26.429045">
<ele>146.170044</ele>
<time>2010-07-17T08:22:55Z</time>
<desc>lat.=55.833309, lon.=26.429045, Alt.=146.170044m. Speed=25.091999m/h.</desc>
<speed>6.970000</speed>
</trkpt>
<trkpt lat="55.833244" lon="26.428997">
<ele>146.838013</ele>
<time>2010-07-17T08:22:56Z</time>
<desc>lat.=55.833244, lon.=26.428997, Alt.=146.838013m. Speed=25.775999m/h.</desc>
<speed>7.160000</speed>
</trkpt>
<trkpt lat="55.833191" lon="26.428947">
<ele>148.021606</ele>
<time>2010-07-17T08:22:57Z</time>
<desc>lat.=55.833191, lon.=26.428947, Alt.=148.021606m. Speed=23.472000m/h.</desc>
<speed>6.520000</speed>
</trkpt>
<trkpt lat="55.833134" lon="26.428865">
<ele>149.611450</ele>
<time>2010-07-17T08:22:58Z</time>
<desc>lat.=55.833134, lon.=26.428865, Alt.=149.611450m. Speed=26.100000m/h.</desc>
<speed>7.250000</speed>
</trkpt>
<trkpt lat="55.833080" lon="26.428793">
<ele>150.084106</ele>
<time>2010-07-17T08:22:59Z</time>
<desc>lat.=55.833080, lon.=26.428793, Alt.=150.084106m. Speed=26.784000m/h.</desc>
<speed>7.440000</speed>
</trkpt>
<trkpt lat="55.833027" lon="26.428703">
<ele>150.185669</ele>
<time>2010-07-17T08:23:00Z</time>
<desc>lat.=55.833027, lon.=26.428703, Alt.=150.185669m. Speed=27.792000m/h.</desc>
<speed>7.720000</speed>
</trkpt>
<trkpt lat="55.832973" lon="26.428627">
<ele>150.947388</ele>
<time>2010-07-17T08:23:01Z</time>
<desc>lat.=55.832973, lon.=26.428627, Alt.=150.947388m. Speed=25.379999m/h.</desc>
<speed>7.050000</speed>
</trkpt>
<trkpt lat="55.832920" lon="26.428553">
<ele>151.443481</ele>
<time>2010-07-17T08:23:02Z</time>
<desc>lat.=55.832920, lon.=26.428553, Alt.=151.443481m. Speed=25.632000m/h.</desc>
<speed>7.120000</speed>
</trkpt>
<trkpt lat="55.832863" lon="26.428480">
<ele>152.009888</ele>
<time>2010-07-17T08:23:03Z</time>
<desc>lat.=55.832863, lon.=26.428480, Alt.=152.009888m. Speed=26.532000m/h.</desc>
<speed>7.370000</speed>
</trkpt>
<trkpt lat="55.832809" lon="26.428410">
<ele>152.689575</ele>
<time>2010-07-17T08:23:04Z</time>
<desc>lat.=55.832809, lon.=26.428410, Alt.=152.689575m. Speed=24.624001m/h.</desc>
<speed>6.840000</speed>
</trkpt>
<trkpt lat="55.832756" lon="26.428345">
<ele>153.177856</ele>
<time>2010-07-17T08:23:05Z</time>
<desc>lat.=55.832756, lon.=26.428345, Alt.=153.177856m. Speed=25.056000m/h.</desc>
<speed>6.960000</speed>
</trkpt>
<trkpt lat="55.832699" lon="26.428268">
<ele>153.505981</ele>
<time>2010-07-17T08:23:06Z</time>
<desc>lat.=55.832699, lon.=26.428268, Alt.=153.505981m. Speed=27.468000m/h.</desc>
<speed>7.630000</speed>
</trkpt>
<trkpt lat="55.832645" lon="26.428183">
<ele>153.732544</ele>
<time>2010-07-17T08:23:07Z</time>
<desc>lat.=55.832645, lon.=26.428183, Alt.=153.732544m. Speed=27.864000m/h.</desc>
<speed>7.740000</speed>
</trkpt>
<trkpt lat="55.832584" lon="26.428093">
<ele>153.857544</ele>
<time>2010-07-17T08:23:08Z</time>
<desc>lat.=55.832584, lon.=26.428093, Alt.=153.857544m. Speed=28.260000m/h.</desc>
<speed>7.850000</speed>
</trkpt>
<trkpt lat="55.832527" lon="26.428007">
<ele>154.013794</ele>
<time>2010-07-17T08:23:09Z</time>
<desc>lat.=55.832527, lon.=26.428007, Alt.=154.013794m. Speed=29.736000m/h.</desc>
<speed>8.260000</speed>
</trkpt>
<trkpt lat="55.832458" lon="26.427925">
<ele>154.318481</ele>
<time>2010-07-17T08:23:10Z</time>
<desc>lat.=55.832458, lon.=26.427925, Alt.=154.318481m. Speed=29.375999m/h.</desc>
<speed>8.160000</speed>
</trkpt>
<trkpt lat="55.832405" lon="26.427837">
<ele>154.744263</ele>
<time>2010-07-17T08:23:11Z</time>
<desc>lat.=55.832405, lon.=26.427837, Alt.=154.744263m. Speed=27.035999m/h.</desc>
<speed>7.510000</speed>
</trkpt>
<trkpt lat="55.832355" lon="26.427763">
<ele>154.748169</ele>
<time>2010-07-17T08:23:12Z</time>
<desc>lat.=55.832355, lon.=26.427763, Alt.=154.748169m. Speed=25.812000m/h.</desc>
<speed>7.170000</speed>
</trkpt>
<trkpt lat="55.832298" lon="26.427689">
<ele>155.080200</ele>
<time>2010-07-17T08:23:13Z</time>
<desc>lat.=55.832298, lon.=26.427689, Alt.=155.080200m. Speed=25.488001m/h.</desc>
<speed>7.080000</speed>
</trkpt>
<trkpt lat="55.832241" lon="26.427618">
<ele>155.127075</ele>
<time>2010-07-17T08:23:14Z</time>
<desc>lat.=55.832241, lon.=26.427618, Alt.=155.127075m. Speed=25.667999m/h.</desc>
<speed>7.130000</speed>
</trkpt>
<trkpt lat="55.832188" lon="26.427538">
<ele>155.384888</ele>
<time>2010-07-17T08:23:15Z</time>
<desc>lat.=55.832188, lon.=26.427538, Alt.=155.384888m. Speed=25.379999m/h.</desc>
<speed>7.050000</speed>
</trkpt>
<trkpt lat="55.832134" lon="26.427464">
<ele>155.552856</ele>
<time>2010-07-17T08:23:16Z</time>
<desc>lat.=55.832134, lon.=26.427464, Alt.=155.552856m. Speed=26.100000m/h.</desc>
<speed>7.250000</speed>
</trkpt>
<trkpt lat="55.832081" lon="26.427391">
<ele>155.720825</ele>
<time>2010-07-17T08:23:17Z</time>
<desc>lat.=55.832081, lon.=26.427391, Alt.=155.720825m. Speed=25.056000m/h.</desc>
<speed>6.960000</speed>
</trkpt>
<trkpt lat="55.832027" lon="26.427326">
<ele>156.400513</ele>
<time>2010-07-17T08:23:18Z</time>
<desc>lat.=55.832027, lon.=26.427326, Alt.=156.400513m. Speed=25.091999m/h.</desc>
<speed>6.970000</speed>
</trkpt>
<trkpt lat="55.831974" lon="26.427256">
<ele>156.978638</ele>
<time>2010-07-17T08:23:19Z</time>
<desc>lat.=55.831974, lon.=26.427256, Alt.=156.978638m. Speed=26.351999m/h.</desc>
<speed>7.320000</speed>
</trkpt>
<trkpt lat="55.831928" lon="26.427172">
<ele>157.013794</ele>
<time>2010-07-17T08:23:20Z</time>
<desc>lat.=55.831928, lon.=26.427172, Alt.=157.013794m. Speed=25.379999m/h.</desc>
<speed>7.050000</speed>
</trkpt>
<trkpt lat="55.831886" lon="26.427063">
<ele>155.716919</ele>
<time>2010-07-17T08:23:21Z</time>
<desc>lat.=55.831886, lon.=26.427063, Alt.=155.716919m. Speed=24.804001m/h.</desc>
<speed>6.890000</speed>
</trkpt>
<trkpt lat="55.831841" lon="26.426970">
<ele>155.052856</ele>
<time>2010-07-17T08:23:22Z</time>
<desc>lat.=55.831841, lon.=26.426970, Alt.=155.052856m. Speed=25.056000m/h.</desc>
<speed>6.960000</speed>
</trkpt>
<trkpt lat="55.831791" lon="26.426882">
<ele>153.896606</ele>
<time>2010-07-17T08:23:23Z</time>
<desc>lat.=55.831791, lon.=26.426882, Alt.=153.896606m. Speed=25.992001m/h.</desc>
<speed>7.220000</speed>
</trkpt>
<trkpt lat="55.831738" lon="26.426802">
<ele>153.115356</ele>
<time>2010-07-17T08:23:24Z</time>
<desc>lat.=55.831738, lon.=26.426802, Alt.=153.115356m. Speed=25.200001m/h.</desc>
<speed>7.000000</speed>
</trkpt>
<trkpt lat="55.831680" lon="26.426727">
<ele>151.197388</ele>
<time>2010-07-17T08:23:25Z</time>
<desc>lat.=55.831680, lon.=26.426727, Alt.=151.197388m. Speed=26.280001m/h.</desc>
<speed>7.300000</speed>
</trkpt>
<trkpt lat="55.831623" lon="26.426632">
<ele>147.920044</ele>
<time>2010-07-17T08:23:26Z</time>
<desc>lat.=55.831623, lon.=26.426632, Alt.=147.920044m. Speed=27.360001m/h.</desc>
<speed>7.600000</speed>
</trkpt>
<trkpt lat="55.831573" lon="26.426565">
<ele>150.115356</ele>
<time>2010-07-17T08:23:27Z</time>
<desc>lat.=55.831573, lon.=26.426565, Alt.=150.115356m. Speed=26.243999m/h.</desc>
<speed>7.290000</speed>
</trkpt>
<trkpt lat="55.831516" lon="26.426476">
<ele>148.474731</ele>
<time>2010-07-17T08:23:28Z</time>
<desc>lat.=55.831516, lon.=26.426476, Alt.=148.474731m. Speed=26.964001m/h.</desc>
<speed>7.490000</speed>
</trkpt>
<trkpt lat="55.831459" lon="26.426378">
<ele>145.439575</ele>
<time>2010-07-17T08:23:29Z</time>
<desc>lat.=55.831459, lon.=26.426378, Alt.=145.439575m. Speed=27.035999m/h.</desc>
<speed>7.510000</speed>
</trkpt>
<trkpt lat="55.831406" lon="26.426292">
<ele>144.849731</ele>
<time>2010-07-17T08:23:30Z</time>
<desc>lat.=55.831406, lon.=26.426292, Alt.=144.849731m. Speed=27.216000m/h.</desc>
<speed>7.560000</speed>
</trkpt>
<trkpt lat="55.831352" lon="26.426220">
<ele>144.548950</ele>
<time>2010-07-17T08:23:31Z</time>
<desc>lat.=55.831352, lon.=26.426220, Alt.=144.548950m. Speed=27.396000m/h.</desc>
<speed>7.610000</speed>
</trkpt>
<trkpt lat="55.831299" lon="26.426146">
<ele>144.115356</ele>
<time>2010-07-17T08:23:32Z</time>
<desc>lat.=55.831299, lon.=26.426146, Alt.=144.115356m. Speed=27.396000m/h.</desc>
<speed>7.610000</speed>
</trkpt>
<trkpt lat="55.831242" lon="26.426067">
<ele>144.185669</ele>
<time>2010-07-17T08:23:33Z</time>
<desc>lat.=55.831242, lon.=26.426067, Alt.=144.185669m. Speed=27.216000m/h.</desc>
<speed>7.560000</speed>
</trkpt>
<trkpt lat="55.831192" lon="26.425985">
<ele>143.873169</ele>
<time>2010-07-17T08:23:34Z</time>
<desc>lat.=55.831192, lon.=26.425985, Alt.=143.873169m. Speed=27.936001m/h.</desc>
<speed>7.760000</speed>
</trkpt>
<trkpt lat="55.831135" lon="26.425907">
<ele>143.220825</ele>
<time>2010-07-17T08:23:35Z</time>
<desc>lat.=55.831135, lon.=26.425907, Alt.=143.220825m. Speed=27.431999m/h.</desc>
<speed>7.620000</speed>
</trkpt>
<trkpt lat="55.831081" lon="26.425837">
<ele>143.189575</ele>
<time>2010-07-17T08:23:36Z</time>
<desc>lat.=55.831081, lon.=26.425837, Alt.=143.189575m. Speed=27.576000m/h.</desc>
<speed>7.660000</speed>
</trkpt>
<trkpt lat="55.831028" lon="26.425768">
<ele>142.818481</ele>
<time>2010-07-17T08:23:37Z</time>
<desc>lat.=55.831028, lon.=26.425768, Alt.=142.818481m. Speed=27.180000m/h.</desc>
<speed>7.550000</speed>
</trkpt>
<trkpt lat="55.830971" lon="26.425697">
<ele>142.748169</ele>
<time>2010-07-17T08:23:38Z</time>
<desc>lat.=55.830971, lon.=26.425697, Alt.=142.748169m. Speed=27.792000m/h.</desc>
<speed>7.720000</speed>
</trkpt>
<trkpt lat="55.830917" lon="26.425627">
<ele>142.619263</ele>
<time>2010-07-17T08:23:39Z</time>
<desc>lat.=55.830917, lon.=26.425627, Alt.=142.619263m. Speed=26.820000m/h.</desc>
<speed>7.450000</speed>
</trkpt>
<trkpt lat="55.830868" lon="26.425560">
<ele>142.646606</ele>
<time>2010-07-17T08:23:40Z</time>
<desc>lat.=55.830868, lon.=26.425560, Alt.=142.646606m. Speed=24.695999m/h.</desc>
<speed>6.860000</speed>
</trkpt>
<trkpt lat="55.830818" lon="26.425495">
<ele>142.709106</ele>
<time>2010-07-17T08:23:41Z</time>
<desc>lat.=55.830818, lon.=26.425495, Alt.=142.709106m. Speed=24.624001m/h.</desc>
<speed>6.840000</speed>
</trkpt>
<trkpt lat="55.830765" lon="26.425432">
<ele>142.681763</ele>
<time>2010-07-17T08:23:42Z</time>
<desc>lat.=55.830765, lon.=26.425432, Alt.=142.681763m. Speed=26.316000m/h.</desc>
<speed>7.310000</speed>
</trkpt>
<trkpt lat="55.830711" lon="26.425367">
<ele>142.615356</ele>
<time>2010-07-17T08:23:43Z</time>
<desc>lat.=55.830711, lon.=26.425367, Alt.=142.615356m. Speed=25.020000m/h.</desc>
<speed>6.950000</speed>
</trkpt>
<trkpt lat="55.830662" lon="26.425308">
<ele>142.525513</ele>
<time>2010-07-17T08:23:44Z</time>
<desc>lat.=55.830662, lon.=26.425308, Alt.=142.525513m. Speed=25.200001m/h.</desc>
<speed>7.000000</speed>
</trkpt>
<trkpt lat="55.830608" lon="26.425238">
<ele>142.408325</ele>
<time>2010-07-17T08:23:45Z</time>
<desc>lat.=55.830608, lon.=26.425238, Alt.=142.408325m. Speed=26.784000m/h.</desc>
<speed>7.440000</speed>
</trkpt>
<trkpt lat="55.830555" lon="26.425161">
<ele>142.466919</ele>
<time>2010-07-17T08:23:46Z</time>
<desc>lat.=55.830555, lon.=26.425161, Alt.=142.466919m. Speed=27.288000m/h.</desc>
<speed>7.580000</speed>
</trkpt>
<trkpt lat="55.830502" lon="26.425089">
<ele>142.517700</ele>
<time>2010-07-17T08:23:47Z</time>
<desc>lat.=55.830502, lon.=26.425089, Alt.=142.517700m. Speed=28.152000m/h.</desc>
<speed>7.820000</speed>
</trkpt>
<trkpt lat="55.830444" lon="26.425011">
<ele>142.599731</ele>
<time>2010-07-17T08:23:48Z</time>
<desc>lat.=55.830444, lon.=26.425011, Alt.=142.599731m. Speed=28.511999m/h.</desc>
<speed>7.920000</speed>
</trkpt>
<trkpt lat="55.830387" lon="26.424923">
<ele>142.404419</ele>
<time>2010-07-17T08:23:49Z</time>
<desc>lat.=55.830387, lon.=26.424923, Alt.=142.404419m. Speed=29.195999m/h.</desc>
<speed>8.110000</speed>
</trkpt>
<trkpt lat="55.830322" lon="26.424835">
<ele>141.009888</ele>
<time>2010-07-17T08:23:50Z</time>
<desc>lat.=55.830322, lon.=26.424835, Alt.=141.009888m. Speed=30.708000m/h.</desc>
<speed>8.530000</speed>
</trkpt>
<trkpt lat="55.830257" lon="26.424749">
<ele>140.763794</ele>
<time>2010-07-17T08:23:51Z</time>
<desc>lat.=55.830257, lon.=26.424749, Alt.=140.763794m. Speed=32.292000m/h.</desc>
<speed>8.970000</speed>
</trkpt>
<trkpt lat="55.830193" lon="26.424667">
<ele>140.373169</ele>
<time>2010-07-17T08:23:52Z</time>
<desc>lat.=55.830193, lon.=26.424667, Alt.=140.373169m. Speed=33.624001m/h.</desc>
<speed>9.340000</speed>
</trkpt>
<trkpt lat="55.830120" lon="26.424574">
<ele>139.838013</ele>
<time>2010-07-17T08:23:53Z</time>
<desc>lat.=55.830120, lon.=26.424574, Alt.=139.838013m. Speed=35.459999m/h.</desc>
<speed>9.850000</speed>
</trkpt>
<trkpt lat="55.830044" lon="26.424479">
<ele>139.752075</ele>
<time>2010-07-17T08:23:54Z</time>
<desc>lat.=55.830044, lon.=26.424479, Alt.=139.752075m. Speed=35.639999m/h.</desc>
<speed>9.900000</speed>
</trkpt>
<trkpt lat="55.829964" lon="26.424381">
<ele>139.220825</ele>
<time>2010-07-17T08:23:55Z</time>
<desc>lat.=55.829964, lon.=26.424381, Alt.=139.220825m. Speed=36.540001m/h.</desc>
<speed>10.150000</speed>
</trkpt>
<trkpt lat="55.829891" lon="26.424282">
<ele>138.744263</ele>
<time>2010-07-17T08:23:56Z</time>
<desc>lat.=55.829891, lon.=26.424282, Alt.=138.744263m. Speed=36.144001m/h.</desc>
<speed>10.040000</speed>
</trkpt>
<trkpt lat="55.829815" lon="26.424175">
<ele>138.220825</ele>
<time>2010-07-17T08:23:57Z</time>
<desc>lat.=55.829815, lon.=26.424175, Alt.=138.220825m. Speed=37.259998m/h.</desc>
<speed>10.350000</speed>
</trkpt>
<trkpt lat="55.829742" lon="26.424070">
<ele>138.091919</ele>
<time>2010-07-17T08:23:58Z</time>
<desc>lat.=55.829742, lon.=26.424070, Alt.=138.091919m. Speed=37.799999m/h.</desc>
<speed>10.500000</speed>
</trkpt>
<trkpt lat="55.829666" lon="26.423971">
<ele>137.662231</ele>
<time>2010-07-17T08:23:59Z</time>
<desc>lat.=55.829666, lon.=26.423971, Alt.=137.662231m. Speed=37.439999m/h.</desc>
<speed>10.400000</speed>
</trkpt>
<trkpt lat="55.829594" lon="26.423874">
<ele>137.541138</ele>
<time>2010-07-17T08:24:00Z</time>
<desc>lat.=55.829594, lon.=26.423874, Alt.=137.541138m. Speed=36.792000m/h.</desc>
<speed>10.220000</speed>
</trkpt>
<trkpt lat="55.829521" lon="26.423780">
<ele>137.404419</ele>
<time>2010-07-17T08:24:01Z</time>
<desc>lat.=55.829521, lon.=26.423780, Alt.=137.404419m. Speed=36.792000m/h.</desc>
<speed>10.220000</speed>
</trkpt>
<trkpt lat="55.829445" lon="26.423681">
<ele>136.920044</ele>
<time>2010-07-17T08:24:02Z</time>
<desc>lat.=55.829445, lon.=26.423681, Alt.=136.920044m. Speed=36.144001m/h.</desc>
<speed>10.040000</speed>
</trkpt>
<trkpt lat="55.829372" lon="26.423584">
<ele>136.599731</ele>
<time>2010-07-17T08:24:03Z</time>
<desc>lat.=55.829372, lon.=26.423584, Alt.=136.599731m. Speed=36.504002m/h.</desc>
<speed>10.140000</speed>
</trkpt>
<trkpt lat="55.829300" lon="26.423485">
<ele>136.748169</ele>
<time>2010-07-17T08:24:04Z</time>
<desc>lat.=55.829300, lon.=26.423485, Alt.=136.748169m. Speed=34.956001m/h.</desc>
<speed>9.710000</speed>
</trkpt>
<trkpt lat="55.829224" lon="26.423389">
<ele>136.568481</ele>
<time>2010-07-17T08:24:05Z</time>
<desc>lat.=55.829224, lon.=26.423389, Alt.=136.568481m. Speed=36.108002m/h.</desc>
<speed>10.030000</speed>
</trkpt>
<trkpt lat="55.829151" lon="26.423300">
<ele>136.709106</ele>
<time>2010-07-17T08:24:06Z</time>
<desc>lat.=55.829151, lon.=26.423300, Alt.=136.709106m. Speed=35.604000m/h.</desc>
<speed>9.890000</speed>
</trkpt>
<trkpt lat="55.829079" lon="26.423204">
<ele>136.724731</ele>
<time>2010-07-17T08:24:07Z</time>
<desc>lat.=55.829079, lon.=26.423204, Alt.=136.724731m. Speed=36.936001m/h.</desc>
<speed>10.260000</speed>
</trkpt>
<trkpt lat="55.829002" lon="26.423111">
<ele>136.420044</ele>
<time>2010-07-17T08:24:08Z</time>
<desc>lat.=55.829002, lon.=26.423111, Alt.=136.420044m. Speed=36.900002m/h.</desc>
<speed>10.250000</speed>
</trkpt>
<trkpt lat="55.828926" lon="26.423016">
<ele>136.072388</ele>
<time>2010-07-17T08:24:09Z</time>
<desc>lat.=55.828926, lon.=26.423016, Alt.=136.072388m. Speed=37.188000m/h.</desc>
<speed>10.330000</speed>
</trkpt>
<trkpt lat="55.828850" lon="26.422915">
<ele>136.154419</ele>
<time>2010-07-17T08:24:10Z</time>
<desc>lat.=55.828850, lon.=26.422915, Alt.=136.154419m. Speed=36.756001m/h.</desc>
<speed>10.210000</speed>
</trkpt>
<trkpt lat="55.828777" lon="26.422825">
<ele>135.775513</ele>
<time>2010-07-17T08:24:11Z</time>
<desc>lat.=55.828777, lon.=26.422825, Alt.=135.775513m. Speed=37.223999m/h.</desc>
<speed>10.340000</speed>
</trkpt>
<trkpt lat="55.828701" lon="26.422728">
<ele>135.560669</ele>
<time>2010-07-17T08:24:12Z</time>
<desc>lat.=55.828701, lon.=26.422728, Alt.=135.560669m. Speed=37.259998m/h.</desc>
<speed>10.350000</speed>
</trkpt>
<trkpt lat="55.828621" lon="26.422628">
<ele>135.486450</ele>
<time>2010-07-17T08:24:13Z</time>
<desc>lat.=55.828621, lon.=26.422628, Alt.=135.486450m. Speed=38.520000m/h.</desc>
<speed>10.700000</speed>
</trkpt>
<trkpt lat="55.828545" lon="26.422531">
<ele>135.400513</ele>
<time>2010-07-17T08:24:14Z</time>
<desc>lat.=55.828545, lon.=26.422531, Alt.=135.400513m. Speed=38.880001m/h.</desc>
<speed>10.800000</speed>
</trkpt>
<trkpt lat="55.828465" lon="26.422422">
<ele>135.259888</ele>
<time>2010-07-17T08:24:15Z</time>
<desc>lat.=55.828465, lon.=26.422422, Alt.=135.259888m. Speed=39.563999m/h.</desc>
<speed>10.990000</speed>
</trkpt>
<trkpt lat="55.828388" lon="26.422316">
<ele>135.052856</ele>
<time>2010-07-17T08:24:16Z</time>
<desc>lat.=55.828388, lon.=26.422316, Alt.=135.052856m. Speed=40.175999m/h.</desc>
<speed>11.160000</speed>
</trkpt>
<trkpt lat="55.828304" lon="26.422213">
<ele>134.771606</ele>
<time>2010-07-17T08:24:17Z</time>
<desc>lat.=55.828304, lon.=26.422213, Alt.=134.771606m. Speed=39.672001m/h.</desc>
<speed>11.020000</speed>
</trkpt>
<trkpt lat="55.828224" lon="26.422108">
<ele>134.638794</ele>
<time>2010-07-17T08:24:18Z</time>
<desc>lat.=55.828224, lon.=26.422108, Alt.=134.638794m. Speed=39.816002m/h.</desc>
<speed>11.060001</speed>
</trkpt>
<trkpt lat="55.828144" lon="26.422007">
<ele>134.451294</ele>
<time>2010-07-17T08:24:19Z</time>
<desc>lat.=55.828144, lon.=26.422007, Alt.=134.451294m. Speed=38.916000m/h.</desc>
<speed>10.810000</speed>
</trkpt>
<trkpt lat="55.828068" lon="26.421911">
<ele>134.322388</ele>
<time>2010-07-17T08:24:20Z</time>
<desc>lat.=55.828068, lon.=26.421911, Alt.=134.322388m. Speed=38.375999m/h.</desc>
<speed>10.660000</speed>
</trkpt>
<trkpt lat="55.827991" lon="26.421808">
<ele>134.244263</ele>
<time>2010-07-17T08:24:21Z</time>
<desc>lat.=55.827991, lon.=26.421808, Alt.=134.244263m. Speed=37.584000m/h.</desc>
<speed>10.440000</speed>
</trkpt>
<trkpt lat="55.827915" lon="26.421711">
<ele>134.107544</ele>
<time>2010-07-17T08:24:22Z</time>
<desc>lat.=55.827915, lon.=26.421711, Alt.=134.107544m. Speed=36.360001m/h.</desc>
<speed>10.100000</speed>
</trkpt>
<trkpt lat="55.827839" lon="26.421619">
<ele>134.154419</ele>
<time>2010-07-17T08:24:23Z</time>
<desc>lat.=55.827839, lon.=26.421619, Alt.=134.154419m. Speed=36.504002m/h.</desc>
<speed>10.140000</speed>
</trkpt>
<trkpt lat="55.827770" lon="26.421520">
<ele>134.138794</ele>
<time>2010-07-17T08:24:24Z</time>
<desc>lat.=55.827770, lon.=26.421520, Alt.=134.138794m. Speed=35.028000m/h.</desc>
<speed>9.730000</speed>
</trkpt>
<trkpt lat="55.827690" lon="26.421417">
<ele>134.162231</ele>
<time>2010-07-17T08:24:25Z</time>
<desc>lat.=55.827690, lon.=26.421417, Alt.=134.162231m. Speed=38.160000m/h.</desc>
<speed>10.600000</speed>
</trkpt>
<trkpt lat="55.827602" lon="26.421312">
<ele>134.099731</ele>
<time>2010-07-17T08:24:26Z</time>
<desc>lat.=55.827602, lon.=26.421312, Alt.=134.099731m. Speed=39.348000m/h.</desc>
<speed>10.930000</speed>
</trkpt>
<trkpt lat="55.827515" lon="26.421207">
<ele>134.068481</ele>
<time>2010-07-17T08:24:27Z</time>
<desc>lat.=55.827515, lon.=26.421207, Alt.=134.068481m. Speed=41.220001m/h.</desc>
<speed>11.450000</speed>
</trkpt>
<trkpt lat="55.827427" lon="26.421083">
<ele>134.025513</ele>
<time>2010-07-17T08:24:28Z</time>
<desc>lat.=55.827427, lon.=26.421083, Alt.=134.025513m. Speed=40.896000m/h.</desc>
<speed>11.360000</speed>
</trkpt>
<trkpt lat="55.827332" lon="26.420959">
<ele>133.830200</ele>
<time>2010-07-17T08:24:29Z</time>
<desc>lat.=55.827332, lon.=26.420959, Alt.=133.830200m. Speed=41.400002m/h.</desc>
<speed>11.500000</speed>
</trkpt>
<trkpt lat="55.827240" lon="26.420855">
<ele>133.943481</ele>
<time>2010-07-17T08:24:30Z</time>
<desc>lat.=55.827240, lon.=26.420855, Alt.=133.943481m. Speed=42.048000m/h.</desc>
<speed>11.680000</speed>
</trkpt>
<trkpt lat="55.827148" lon="26.420732">
<ele>134.037231</ele>
<time>2010-07-17T08:24:31Z</time>
<desc>lat.=55.827148, lon.=26.420732, Alt.=134.037231m. Speed=42.804001m/h.</desc>
<speed>11.890000</speed>
</trkpt>
<trkpt lat="55.827065" lon="26.420607">
<ele>134.283325</ele>
<time>2010-07-17T08:24:32Z</time>
<desc>lat.=55.827065, lon.=26.420607, Alt.=134.283325m. Speed=41.832001m/h.</desc>
<speed>11.620000</speed>
</trkpt>
<trkpt lat="55.826981" lon="26.420504">
<ele>134.380981</ele>
<time>2010-07-17T08:24:33Z</time>
<desc>lat.=55.826981, lon.=26.420504, Alt.=134.380981m. Speed=41.543999m/h.</desc>
<speed>11.540000</speed>
</trkpt>
<trkpt lat="55.826893" lon="26.420404">
<ele>134.478638</ele>
<time>2010-07-17T08:24:34Z</time>
<desc>lat.=55.826893, lon.=26.420404, Alt.=134.478638m. Speed=41.112000m/h.</desc>
<speed>11.420000</speed>
</trkpt>
<trkpt lat="55.826801" lon="26.420298">
<ele>134.732544</ele>
<time>2010-07-17T08:24:35Z</time>
<desc>lat.=55.826801, lon.=26.420298, Alt.=134.732544m. Speed=40.680000m/h.</desc>
<speed>11.300000</speed>
</trkpt>
<trkpt lat="55.826714" lon="26.420206">
<ele>135.259888</ele>
<time>2010-07-17T08:24:36Z</time>
<desc>lat.=55.826714, lon.=26.420206, Alt.=135.259888m. Speed=41.580002m/h.</desc>
<speed>11.550001</speed>
</trkpt>
<trkpt lat="55.826630" lon="26.420090">
<ele>135.345825</ele>
<time>2010-07-17T08:24:37Z</time>
<desc>lat.=55.826630, lon.=26.420090, Alt.=135.345825m. Speed=40.787998m/h.</desc>
<speed>11.329999</speed>
</trkpt>
<trkpt lat="55.826550" lon="26.419968">
<ele>135.517700</ele>
<time>2010-07-17T08:24:38Z</time>
<desc>lat.=55.826550, lon.=26.419968, Alt.=135.517700m. Speed=38.987999m/h.</desc>
<speed>10.830000</speed>
</trkpt>
<trkpt lat="55.826477" lon="26.419840">
<ele>135.744263</ele>
<time>2010-07-17T08:24:39Z</time>
<desc>lat.=55.826477, lon.=26.419840, Alt.=135.744263m. Speed=37.188000m/h.</desc>
<speed>10.330000</speed>
</trkpt>
<trkpt lat="55.826412" lon="26.419710">
<ele>136.220825</ele>
<time>2010-07-17T08:24:40Z</time>
<desc>lat.=55.826412, lon.=26.419710, Alt.=136.220825m. Speed=36.000000m/h.</desc>
<speed>10.000000</speed>
</trkpt>
<trkpt lat="55.826340" lon="26.419615">
<ele>136.029419</ele>
<time>2010-07-17T08:24:41Z</time>
<desc>lat.=55.826340, lon.=26.419615, Alt.=136.029419m. Speed=35.243999m/h.</desc>
<speed>9.790000</speed>
</trkpt>
<trkpt lat="55.826263" lon="26.419519">
<ele>135.111450</ele>
<time>2010-07-17T08:24:42Z</time>
<desc>lat.=55.826263, lon.=26.419519, Alt.=135.111450m. Speed=35.532001m/h.</desc>
<speed>9.870000</speed>
</trkpt>
<trkpt lat="55.826195" lon="26.419418">
<ele>133.982544</ele>
<time>2010-07-17T08:24:43Z</time>
<desc>lat.=55.826195, lon.=26.419418, Alt.=133.982544m. Speed=33.840000m/h.</desc>
<speed>9.400000</speed>
</trkpt>
<trkpt lat="55.826130" lon="26.419310">
<ele>132.810669</ele>
<time>2010-07-17T08:24:44Z</time>
<desc>lat.=55.826130, lon.=26.419310, Alt.=132.810669m. Speed=32.580002m/h.</desc>
<speed>9.050001</speed>
</trkpt>
<trkpt lat="55.826065" lon="26.419209">
<ele>131.451294</ele>
<time>2010-07-17T08:24:45Z</time>
<desc>lat.=55.826065, lon.=26.419209, Alt.=131.451294m. Speed=31.139999m/h.</desc>
<speed>8.650000</speed>
</trkpt>
<trkpt lat="55.826004" lon="26.419113">
<ele>130.138794</ele>
<time>2010-07-17T08:24:46Z</time>
<desc>lat.=55.826004, lon.=26.419113, Alt.=130.138794m. Speed=30.492001m/h.</desc>
<speed>8.470000</speed>
</trkpt>
<trkpt lat="55.825947" lon="26.419027">
<ele>129.951294</ele>
<time>2010-07-17T08:24:47Z</time>
<desc>lat.=55.825947, lon.=26.419027, Alt.=129.951294m. Speed=28.476000m/h.</desc>
<speed>7.910000</speed>
</trkpt>
<trkpt lat="55.825893" lon="26.418940">
<ele>129.330200</ele>
<time>2010-07-17T08:24:48Z</time>
<desc>lat.=55.825893, lon.=26.418940, Alt.=129.330200m. Speed=28.691999m/h.</desc>
<speed>7.970000</speed>
</trkpt>
<trkpt lat="55.825844" lon="26.418854">
<ele>128.595825</ele>
<time>2010-07-17T08:24:49Z</time>
<desc>lat.=55.825844, lon.=26.418854, Alt.=128.595825m. Speed=27.504000m/h.</desc>
<speed>7.640000</speed>
</trkpt>
<trkpt lat="55.825798" lon="26.418774">
<ele>128.396606</ele>
<time>2010-07-17T08:24:50Z</time>
<desc>lat.=55.825798, lon.=26.418774, Alt.=128.396606m. Speed=26.208000m/h.</desc>
<speed>7.280000</speed>
</trkpt>
<trkpt lat="55.825745" lon="26.418699">
<ele>127.715881</ele>
<time>2010-07-17T08:24:51Z</time>
<desc>lat.=55.825745, lon.=26.418699, Alt.=127.715881m. Speed=25.308001m/h.</desc>
<speed>7.030000</speed>
</trkpt>
<trkpt lat="55.825691" lon="26.418627">
<ele>126.893616</ele>
<time>2010-07-17T08:24:52Z</time>
<desc>lat.=55.825691, lon.=26.418627, Alt.=126.893616m. Speed=25.020000m/h.</desc>
<speed>6.950000</speed>
</trkpt>
<trkpt lat="55.825638" lon="26.418541">
<ele>124.592834</ele>
<time>2010-07-17T08:24:53Z</time>
<desc>lat.=55.825638, lon.=26.418541, Alt.=124.592834m. Speed=24.624001m/h.</desc>
<speed>6.840000</speed>
</trkpt>
<trkpt lat="55.825584" lon="26.418472">
<ele>124.604553</ele>
<time>2010-07-17T08:24:54Z</time>
<desc>lat.=55.825584, lon.=26.418472, Alt.=124.604553m. Speed=23.796000m/h.</desc>
<speed>6.610000</speed>
</trkpt>
<trkpt lat="55.825535" lon="26.418411">
<ele>124.526428</ele>
<time>2010-07-17T08:24:55Z</time>
<desc>lat.=55.825535, lon.=26.418411, Alt.=124.526428m. Speed=22.284000m/h.</desc>
<speed>6.190000</speed>
</trkpt>
<trkpt lat="55.825493" lon="26.418350">
<ele>124.479553</ele>
<time>2010-07-17T08:24:56Z</time>
<desc>lat.=55.825493, lon.=26.418350, Alt.=124.479553m. Speed=21.563999m/h.</desc>
<speed>5.990000</speed>
</trkpt>
<trkpt lat="55.825451" lon="26.418289">
<ele>124.495178</ele>
<time>2010-07-17T08:24:57Z</time>
<desc>lat.=55.825451, lon.=26.418289, Alt.=124.495178m. Speed=20.375999m/h.</desc>
<speed>5.660000</speed>
</trkpt>
<trkpt lat="55.825409" lon="26.418226">
<ele>124.381897</ele>
<time>2010-07-17T08:24:58Z</time>
<desc>lat.=55.825409, lon.=26.418226, Alt.=124.381897m. Speed=19.764000m/h.</desc>
<speed>5.490000</speed>
</trkpt>
<trkpt lat="55.825371" lon="26.418161">
<ele>123.145569</ele>
<time>2010-07-17T08:24:59Z</time>
<desc>lat.=55.825371, lon.=26.418161, Alt.=123.145569m. Speed=18.972000m/h.</desc>
<speed>5.270000</speed>
</trkpt>
<trkpt lat="55.825333" lon="26.418106">
<ele>122.788147</ele>
<time>2010-07-17T08:25:00Z</time>
<desc>lat.=55.825333, lon.=26.418106, Alt.=122.788147m. Speed=18.684000m/h.</desc>
<speed>5.190000</speed>
</trkpt>
<trkpt lat="55.825298" lon="26.418056">
<ele>121.961975</ele>
<time>2010-07-17T08:25:01Z</time>
<desc>lat.=55.825298, lon.=26.418056, Alt.=121.961975m. Speed=17.927999m/h.</desc>
<speed>4.980000</speed>
</trkpt>
<trkpt lat="55.825264" lon="26.418015">
<ele>122.145569</ele>
<time>2010-07-17T08:25:02Z</time>
<desc>lat.=55.825264, lon.=26.418015, Alt.=122.145569m. Speed=15.120000m/h.</desc>
<speed>4.200000</speed>
</trkpt>
<trkpt lat="55.825233" lon="26.417976">
<ele>122.383850</ele>
<time>2010-07-17T08:25:03Z</time>
<desc>lat.=55.825233, lon.=26.417976, Alt.=122.383850m. Speed=14.544000m/h.</desc>
<speed>4.040000</speed>
</trkpt>
<trkpt lat="55.825203" lon="26.417936">
<ele>122.608459</ele>
<time>2010-07-17T08:25:04Z</time>
<desc>lat.=55.825203, lon.=26.417936, Alt.=122.608459m. Speed=14.868000m/h.</desc>
<speed>4.130000</speed>
</trkpt>
<trkpt lat="55.825172" lon="26.417896">
<ele>122.567444</ele>
<time>2010-07-17T08:25:05Z</time>
<desc>lat.=55.825172, lon.=26.417896, Alt.=122.567444m. Speed=14.724000m/h.</desc>
<speed>4.090000</speed>
</trkpt>
<trkpt lat="55.825146" lon="26.417858">
<ele>122.819397</ele>
<time>2010-07-17T08:25:06Z</time>
<desc>lat.=55.825146, lon.=26.417858, Alt.=122.819397m. Speed=15.012000m/h.</desc>
<speed>4.170000</speed>
</trkpt>
<trkpt lat="55.825115" lon="26.417822">
<ele>123.356506</ele>
<time>2010-07-17T08:25:07Z</time>
<desc>lat.=55.825115, lon.=26.417822, Alt.=123.356506m. Speed=13.284000m/h.</desc>
<speed>3.690000</speed>
</trkpt>
<trkpt lat="55.825096" lon="26.417795">
<ele>123.936584</ele>
<time>2010-07-17T08:25:08Z</time>
<desc>lat.=55.825096, lon.=26.417795, Alt.=123.936584m. Speed=11.952000m/h.</desc>
<speed>3.320000</speed>
</trkpt>
<trkpt lat="55.825066" lon="26.417765">
<ele>123.555725</ele>
<time>2010-07-17T08:25:09Z</time>
<desc>lat.=55.825066, lon.=26.417765, Alt.=123.555725m. Speed=12.528000m/h.</desc>
<speed>3.480000</speed>
</trkpt>
<trkpt lat="55.825043" lon="26.417738">
<ele>123.811584</ele>
<time>2010-07-17T08:25:10Z</time>
<desc>lat.=55.825043, lon.=26.417738, Alt.=123.811584m. Speed=11.340000m/h.</desc>
<speed>3.150000</speed>
</trkpt>
<trkpt lat="55.825020" lon="26.417707">
<ele>124.053772</ele>
<time>2010-07-17T08:25:11Z</time>
<desc>lat.=55.825020, lon.=26.417707, Alt.=124.053772m. Speed=10.800000m/h.</desc>
<speed>3.000000</speed>
</trkpt>
<trkpt lat="55.825001" lon="26.417677">
<ele>123.952209</ele>
<time>2010-07-17T08:25:12Z</time>
<desc>lat.=55.825001, lon.=26.417677, Alt.=123.952209m. Speed=11.880000m/h.</desc>
<speed>3.300000</speed>
</trkpt>
<trkpt lat="55.824978" lon="26.417646">
<ele>124.450256</ele>
<time>2010-07-17T08:25:13Z</time>
<desc>lat.=55.824978, lon.=26.417646, Alt.=124.450256m. Speed=11.412000m/h.</desc>
<speed>3.170000</speed>
</trkpt>
<trkpt lat="55.824951" lon="26.417624">
<ele>125.044006</ele>
<time>2010-07-17T08:25:14Z</time>
<desc>lat.=55.824951, lon.=26.417624, Alt.=125.044006m. Speed=12.060000m/h.</desc>
<speed>3.350000</speed>
</trkpt>
<trkpt lat="55.824928" lon="26.417599">
<ele>125.895569</ele>
<time>2010-07-17T08:25:15Z</time>
<desc>lat.=55.824928, lon.=26.417599, Alt.=125.895569m. Speed=11.700000m/h.</desc>
<speed>3.250000</speed>
</trkpt>
<trkpt lat="55.824905" lon="26.417568">
<ele>127.006897</ele>
<time>2010-07-17T08:25:16Z</time>
<desc>lat.=55.824905, lon.=26.417568, Alt.=127.006897m. Speed=11.052000m/h.</desc>
<speed>3.070000</speed>
</trkpt>
<trkpt lat="55.824883" lon="26.417540">
<ele>127.754944</ele>
<time>2010-07-17T08:25:17Z</time>
<desc>lat.=55.824883, lon.=26.417540, Alt.=127.754944m. Speed=10.728000m/h.</desc>
<speed>2.980000</speed>
</trkpt>
<trkpt lat="55.824860" lon="26.417505">
<ele>128.513794</ele>
<time>2010-07-17T08:25:18Z</time>
<desc>lat.=55.824860, lon.=26.417505, Alt.=128.513794m. Speed=10.188000m/h.</desc>
<speed>2.830000</speed>
</trkpt>
<trkpt lat="55.824837" lon="26.417484">
<ele>130.736450</ele>
<time>2010-07-17T08:25:19Z</time>
<desc>lat.=55.824837, lon.=26.417484, Alt.=130.736450m. Speed=10.584000m/h.</desc>
<speed>2.940000</speed>
</trkpt>
<trkpt lat="55.824818" lon="26.417456">
<ele>131.826294</ele>
<time>2010-07-17T08:25:20Z</time>
<desc>lat.=55.824818, lon.=26.417456, Alt.=131.826294m. Speed=10.584000m/h.</desc>
<speed>2.940000</speed>
</trkpt>
<trkpt lat="55.824799" lon="26.417431">
<ele>133.080200</ele>
<time>2010-07-17T08:25:21Z</time>
<desc>lat.=55.824799, lon.=26.417431, Alt.=133.080200m. Speed=10.188000m/h.</desc>
<speed>2.830000</speed>
</trkpt>
<trkpt lat="55.824776" lon="26.417406">
<ele>134.236450</ele>
<time>2010-07-17T08:25:22Z</time>
<desc>lat.=55.824776, lon.=26.417406, Alt.=134.236450m. Speed=10.188000m/h.</desc>
<speed>2.830000</speed>
</trkpt>
<trkpt lat="55.824757" lon="26.417377">
<ele>135.005981</ele>
<time>2010-07-17T08:25:23Z</time>
<desc>lat.=55.824757, lon.=26.417377, Alt.=135.005981m. Speed=10.260000m/h.</desc>
<speed>2.850000</speed>
</trkpt>
<trkpt lat="55.824738" lon="26.417349">
<ele>135.795044</ele>
<time>2010-07-17T08:25:24Z</time>
<desc>lat.=55.824738, lon.=26.417349, Alt.=135.795044m. Speed=9.936000m/h.</desc>
<speed>2.760000</speed>
</trkpt>
<trkpt lat="55.824715" lon="26.417322">
<ele>136.377075</ele>
<time>2010-07-17T08:25:25Z</time>
<desc>lat.=55.824715, lon.=26.417322, Alt.=136.377075m. Speed=9.504000m/h.</desc>
<speed>2.640000</speed>
</trkpt>
<trkpt lat="55.824696" lon="26.417299">
<ele>137.279419</ele>
<time>2010-07-17T08:25:26Z</time>
<desc>lat.=55.824696, lon.=26.417299, Alt.=137.279419m. Speed=9.144000m/h.</desc>
<speed>2.540000</speed>
</trkpt>
<trkpt lat="55.824677" lon="26.417271">
<ele>138.275513</ele>
<time>2010-07-17T08:25:27Z</time>
<desc>lat.=55.824677, lon.=26.417271, Alt.=138.275513m. Speed=9.360000m/h.</desc>
<speed>2.600000</speed>
</trkpt>
<trkpt lat="55.824657" lon="26.417248">
<ele>139.576294</ele>
<time>2010-07-17T08:25:28Z</time>
<desc>lat.=55.824657, lon.=26.417248, Alt.=139.576294m. Speed=9.360000m/h.</desc>
<speed>2.600000</speed>
</trkpt>
<trkpt lat="55.824635" lon="26.417221">
<ele>140.255981</ele>
<time>2010-07-17T08:25:29Z</time>
<desc>lat.=55.824635, lon.=26.417221, Alt.=140.255981m. Speed=9.432000m/h.</desc>
<speed>2.620000</speed>
</trkpt>
<trkpt lat="55.824612" lon="26.417196">
<ele>140.603638</ele>
<time>2010-07-17T08:25:30Z</time>
<desc>lat.=55.824612, lon.=26.417196, Alt.=140.603638m. Speed=9.720000m/h.</desc>
<speed>2.700000</speed>
</trkpt>
<trkpt lat="55.824585" lon="26.417158">
<ele>138.412231</ele>
<time>2010-07-17T08:25:31Z</time>
<desc>lat.=55.824585, lon.=26.417158, Alt.=138.412231m. Speed=9.936000m/h.</desc>
<speed>2.760000</speed>
</trkpt>
<trkpt lat="55.824566" lon="26.417133">
<ele>139.115356</ele>
<time>2010-07-17T08:25:32Z</time>
<desc>lat.=55.824566, lon.=26.417133, Alt.=139.115356m. Speed=9.108000m/h.</desc>
<speed>2.530000</speed>
</trkpt>
<trkpt lat="55.824547" lon="26.417103">
<ele>139.662231</ele>
<time>2010-07-17T08:25:33Z</time>
<desc>lat.=55.824547, lon.=26.417103, Alt.=139.662231m. Speed=9.576000m/h.</desc>
<speed>2.660000</speed>
</trkpt>
<trkpt lat="55.824528" lon="26.417074">
<ele>140.142700</ele>
<time>2010-07-17T08:25:34Z</time>
<desc>lat.=55.824528, lon.=26.417074, Alt.=140.142700m. Speed=9.324000m/h.</desc>
<speed>2.590000</speed>
</trkpt>
<trkpt lat="55.824505" lon="26.417046">
<ele>140.662231</ele>
<time>2010-07-17T08:25:35Z</time>
<desc>lat.=55.824505, lon.=26.417046, Alt.=140.662231m. Speed=10.584000m/h.</desc>
<speed>2.940000</speed>
</trkpt>
<trkpt lat="55.824490" lon="26.417017">
<ele>141.072388</ele>
<time>2010-07-17T08:25:36Z</time>
<desc>lat.=55.824490, lon.=26.417017, Alt.=141.072388m. Speed=10.296000m/h.</desc>
<speed>2.860000</speed>
</trkpt>
<trkpt lat="55.824467" lon="26.416990">
<ele>141.740356</ele>
<time>2010-07-17T08:25:37Z</time>
<desc>lat.=55.824467, lon.=26.416990, Alt.=141.740356m. Speed=10.152000m/h.</desc>
<speed>2.820000</speed>
</trkpt>
<trkpt lat="55.824448" lon="26.416965">
<ele>142.236450</ele>
<time>2010-07-17T08:25:38Z</time>
<desc>lat.=55.824448, lon.=26.416965, Alt.=142.236450m. Speed=9.828000m/h.</desc>
<speed>2.730000</speed>
</trkpt>
<trkpt lat="55.824429" lon="26.416943">
<ele>141.834106</ele>
<time>2010-07-17T08:25:39Z</time>
<desc>lat.=55.824429, lon.=26.416943, Alt.=141.834106m. Speed=9.900000m/h.</desc>
<speed>2.750000</speed>
</trkpt>
<trkpt lat="55.824406" lon="26.416922">
<ele>142.650513</ele>
<time>2010-07-17T08:25:40Z</time>
<desc>lat.=55.824406, lon.=26.416922, Alt.=142.650513m. Speed=10.080000m/h.</desc>
<speed>2.800000</speed>
</trkpt>
<trkpt lat="55.824383" lon="26.416893">
<ele>142.560669</ele>
<time>2010-07-17T08:25:41Z</time>
<desc>lat.=55.824383, lon.=26.416893, Alt.=142.560669m. Speed=10.512000m/h.</desc>
<speed>2.920000</speed>
</trkpt>
<trkpt lat="55.824360" lon="26.416864">
<ele>142.123169</ele>
<time>2010-07-17T08:25:42Z</time>
<desc>lat.=55.824360, lon.=26.416864, Alt.=142.123169m. Speed=10.584000m/h.</desc>
<speed>2.940000</speed>
</trkpt>
<trkpt lat="55.824341" lon="26.416832">
<ele>142.459106</ele>
<time>2010-07-17T08:25:43Z</time>
<desc>lat.=55.824341, lon.=26.416832, Alt.=142.459106m. Speed=10.584000m/h.</desc>
<speed>2.940000</speed>
</trkpt>
<trkpt lat="55.824322" lon="26.416803">
<ele>143.189575</ele>
<time>2010-07-17T08:25:44Z</time>
<desc>lat.=55.824322, lon.=26.416803, Alt.=143.189575m. Speed=10.368000m/h.</desc>
<speed>2.880000</speed>
</trkpt>
<trkpt lat="55.824299" lon="26.416773">
<ele>143.627075</ele>
<time>2010-07-17T08:25:45Z</time>
<desc>lat.=55.824299, lon.=26.416773, Alt.=143.627075m. Speed=10.764000m/h.</desc>
<speed>2.990000</speed>
</trkpt>
<trkpt lat="55.824276" lon="26.416740">
<ele>142.920044</ele>
<time>2010-07-17T08:25:46Z</time>
<desc>lat.=55.824276, lon.=26.416740, Alt.=142.920044m. Speed=11.124000m/h.</desc>
<speed>3.090000</speed>
</trkpt>
<trkpt lat="55.824257" lon="26.416718">
<ele>143.177856</ele>
<time>2010-07-17T08:25:47Z</time>
<desc>lat.=55.824257, lon.=26.416718, Alt.=143.177856m. Speed=10.656000m/h.</desc>
<speed>2.960000</speed>
</trkpt>
<trkpt lat="55.824234" lon="26.416689">
<ele>143.439575</ele>
<time>2010-07-17T08:25:48Z</time>
<desc>lat.=55.824234, lon.=26.416689, Alt.=143.439575m. Speed=11.052000m/h.</desc>
<speed>3.070000</speed>
</trkpt>
<trkpt lat="55.824211" lon="26.416662">
<ele>144.673950</ele>
<time>2010-07-17T08:25:49Z</time>
<desc>lat.=55.824211, lon.=26.416662, Alt.=144.673950m. Speed=11.268000m/h.</desc>
<speed>3.130000</speed>
</trkpt>
<trkpt lat="55.824188" lon="26.416630">
<ele>144.877075</ele>
<time>2010-07-17T08:25:50Z</time>
<desc>lat.=55.824188, lon.=26.416630, Alt.=144.877075m. Speed=11.340000m/h.</desc>
<speed>3.150000</speed>
</trkpt>
<trkpt lat="55.824162" lon="26.416594">
<ele>144.361450</ele>
<time>2010-07-17T08:25:51Z</time>
<desc>lat.=55.824162, lon.=26.416594, Alt.=144.361450m. Speed=11.484000m/h.</desc>
<speed>3.190000</speed>
</trkpt>
<trkpt lat="55.824135" lon="26.416561">
<ele>144.959106</ele>
<time>2010-07-17T08:25:52Z</time>
<desc>lat.=55.824135, lon.=26.416561, Alt.=144.959106m. Speed=11.700000m/h.</desc>
<speed>3.250000</speed>
</trkpt>
<trkpt lat="55.824112" lon="26.416531">
<ele>145.220825</ele>
<time>2010-07-17T08:25:53Z</time>
<desc>lat.=55.824112, lon.=26.416531, Alt.=145.220825m. Speed=11.268000m/h.</desc>
<speed>3.130000</speed>
</trkpt>
<trkpt lat="55.824085" lon="26.416492">
<ele>144.951294</ele>
<time>2010-07-17T08:25:54Z</time>
<desc>lat.=55.824085, lon.=26.416492, Alt.=144.951294m. Speed=11.448000m/h.</desc>
<speed>3.180000</speed>
</trkpt>
<trkpt lat="55.824062" lon="26.416460">
<ele>145.107544</ele>
<time>2010-07-17T08:25:55Z</time>
<desc>lat.=55.824062, lon.=26.416460, Alt.=145.107544m. Speed=11.880000m/h.</desc>
<speed>3.300000</speed>
</trkpt>
<trkpt lat="55.824039" lon="26.416424">
<ele>145.576294</ele>
<time>2010-07-17T08:25:56Z</time>
<desc>lat.=55.824039, lon.=26.416424, Alt.=145.576294m. Speed=11.628000m/h.</desc>
<speed>3.230000</speed>
</trkpt>
<trkpt lat="55.824017" lon="26.416389">
<ele>145.599731</ele>
<time>2010-07-17T08:25:57Z</time>
<desc>lat.=55.824017, lon.=26.416389, Alt.=145.599731m. Speed=11.628000m/h.</desc>
<speed>3.230000</speed>
</trkpt>
<trkpt lat="55.823994" lon="26.416357">
<ele>145.486450</ele>
<time>2010-07-17T08:25:58Z</time>
<desc>lat.=55.823994, lon.=26.416357, Alt.=145.486450m. Speed=11.196000m/h.</desc>
<speed>3.110000</speed>
</trkpt>
<trkpt lat="55.823967" lon="26.416319">
<ele>144.877075</ele>
<time>2010-07-17T08:25:59Z</time>
<desc>lat.=55.823967, lon.=26.416319, Alt.=144.877075m. Speed=11.700000m/h.</desc>
<speed>3.250000</speed>
</trkpt>
<trkpt lat="55.823944" lon="26.416288">
<ele>144.580200</ele>
<time>2010-07-17T08:26:00Z</time>
<desc>lat.=55.823944, lon.=26.416288, Alt.=144.580200m. Speed=11.520000m/h.</desc>
<speed>3.200000</speed>
</trkpt>
<trkpt lat="55.823921" lon="26.416256">
<ele>144.045044</ele>
<time>2010-07-17T08:26:01Z</time>
<desc>lat.=55.823921, lon.=26.416256, Alt.=144.045044m. Speed=11.196000m/h.</desc>
<speed>3.110000</speed>
</trkpt>
<trkpt lat="55.823898" lon="26.416224">
<ele>143.923950</ele>
<time>2010-07-17T08:26:02Z</time>
<desc>lat.=55.823898, lon.=26.416224, Alt.=143.923950m. Speed=11.196000m/h.</desc>
<speed>3.110000</speed>
</trkpt>
<trkpt lat="55.823875" lon="26.416187">
<ele>143.912231</ele>
<time>2010-07-17T08:26:03Z</time>
<desc>lat.=55.823875, lon.=26.416187, Alt.=143.912231m. Speed=11.412000m/h.</desc>
<speed>3.170000</speed>
</trkpt>
<trkpt lat="55.823849" lon="26.416147">
<ele>143.240356</ele>
<time>2010-07-17T08:26:04Z</time>
<desc>lat.=55.823849, lon.=26.416147, Alt.=143.240356m. Speed=11.484000m/h.</desc>
<speed>3.190000</speed>
</trkpt>
<trkpt lat="55.823822" lon="26.416115">
<ele>143.205200</ele>
<time>2010-07-17T08:26:05Z</time>
<desc>lat.=55.823822, lon.=26.416115, Alt.=143.205200m. Speed=11.664000m/h.</desc>
<speed>3.240000</speed>
</trkpt>
<trkpt lat="55.823803" lon="26.416084">
<ele>143.150513</ele>
<time>2010-07-17T08:26:06Z</time>
<desc>lat.=55.823803, lon.=26.416084, Alt.=143.150513m. Speed=10.584000m/h.</desc>
<speed>2.940000</speed>
</trkpt>
<trkpt lat="55.823776" lon="26.416056">
<ele>142.900513</ele>
<time>2010-07-17T08:26:07Z</time>
<desc>lat.=55.823776, lon.=26.416056, Alt.=142.900513m. Speed=10.728000m/h.</desc>
<speed>2.980000</speed>
</trkpt>
<trkpt lat="55.823753" lon="26.416021">
<ele>142.857544</ele>
<time>2010-07-17T08:26:08Z</time>
<desc>lat.=55.823753, lon.=26.416021, Alt.=142.857544m. Speed=11.412000m/h.</desc>
<speed>3.170000</speed>
</trkpt>
<trkpt lat="55.823727" lon="26.415991">
<ele>142.365356</ele>
<time>2010-07-17T08:26:09Z</time>
<desc>lat.=55.823727, lon.=26.415991, Alt.=142.365356m. Speed=11.520000m/h.</desc>
<speed>3.200000</speed>
</trkpt>
<trkpt lat="55.823704" lon="26.415955">
<ele>141.752075</ele>
<time>2010-07-17T08:26:10Z</time>
<desc>lat.=55.823704, lon.=26.415955, Alt.=141.752075m. Speed=11.592000m/h.</desc>
<speed>3.220000</speed>
</trkpt>
<trkpt lat="55.823677" lon="26.415920">
<ele>141.416138</ele>
<time>2010-07-17T08:26:11Z</time>
<desc>lat.=55.823677, lon.=26.415920, Alt.=141.416138m. Speed=11.376000m/h.</desc>
<speed>3.160000</speed>
</trkpt>
<trkpt lat="55.823658" lon="26.415886">
<ele>140.642700</ele>
<time>2010-07-17T08:26:12Z</time>
<desc>lat.=55.823658, lon.=26.415886, Alt.=140.642700m. Speed=10.656000m/h.</desc>
<speed>2.960000</speed>
</trkpt>
<trkpt lat="55.823635" lon="26.415854">
<ele>140.228638</ele>
<time>2010-07-17T08:26:13Z</time>
<desc>lat.=55.823635, lon.=26.415854, Alt.=140.228638m. Speed=11.376000m/h.</desc>
<speed>3.160000</speed>
</trkpt>
<trkpt lat="55.823612" lon="26.415829">
<ele>141.537231</ele>
<time>2010-07-17T08:26:14Z</time>
<desc>lat.=55.823612, lon.=26.415829, Alt.=141.537231m. Speed=11.268000m/h.</desc>
<speed>3.130000</speed>
</trkpt>
<trkpt lat="55.823589" lon="26.415796">
<ele>142.201294</ele>
<time>2010-07-17T08:26:15Z</time>
<desc>lat.=55.823589, lon.=26.415796, Alt.=142.201294m. Speed=11.988000m/h.</desc>
<speed>3.330000</speed>
</trkpt>
<trkpt lat="55.823566" lon="26.415762">
<ele>143.029419</ele>
<time>2010-07-17T08:26:16Z</time>
<desc>lat.=55.823566, lon.=26.415762, Alt.=143.029419m. Speed=12.708000m/h.</desc>
<speed>3.530000</speed>
</trkpt>
<trkpt lat="55.823540" lon="26.415730">
<ele>142.865356</ele>
<time>2010-07-17T08:26:17Z</time>
<desc>lat.=55.823540, lon.=26.415730, Alt.=142.865356m. Speed=11.664000m/h.</desc>
<speed>3.240000</speed>
</trkpt>
<trkpt lat="55.823517" lon="26.415695">
<ele>143.005981</ele>
<time>2010-07-17T08:26:18Z</time>
<desc>lat.=55.823517, lon.=26.415695, Alt.=143.005981m. Speed=12.456000m/h.</desc>
<speed>3.460000</speed>
</trkpt>
<trkpt lat="55.823486" lon="26.415663">
<ele>143.502075</ele>
<time>2010-07-17T08:26:19Z</time>
<desc>lat.=55.823486, lon.=26.415663, Alt.=143.502075m. Speed=12.564000m/h.</desc>
<speed>3.490000</speed>
</trkpt>
<trkpt lat="55.823460" lon="26.415627">
<ele>143.806763</ele>
<time>2010-07-17T08:26:20Z</time>
<desc>lat.=55.823460, lon.=26.415627, Alt.=143.806763m. Speed=12.744000m/h.</desc>
<speed>3.540000</speed>
</trkpt>
<trkpt lat="55.823433" lon="26.415588">
<ele>143.892700</ele>
<time>2010-07-17T08:26:21Z</time>
<desc>lat.=55.823433, lon.=26.415588, Alt.=143.892700m. Speed=13.068000m/h.</desc>
<speed>3.630000</speed>
</trkpt>
<trkpt lat="55.823406" lon="26.415552">
<ele>144.560669</ele>
<time>2010-07-17T08:26:22Z</time>
<desc>lat.=55.823406, lon.=26.415552, Alt.=144.560669m. Speed=12.528000m/h.</desc>
<speed>3.480000</speed>
</trkpt>
<trkpt lat="55.823383" lon="26.415518">
<ele>144.986450</ele>
<time>2010-07-17T08:26:23Z</time>
<desc>lat.=55.823383, lon.=26.415518, Alt.=144.986450m. Speed=12.744000m/h.</desc>
<speed>3.540000</speed>
</trkpt>
<trkpt lat="55.823357" lon="26.415482">
<ele>145.595825</ele>
<time>2010-07-17T08:26:24Z</time>
<desc>lat.=55.823357, lon.=26.415482, Alt.=145.595825m. Speed=12.492000m/h.</desc>
<speed>3.470000</speed>
</trkpt>
<trkpt lat="55.823334" lon="26.415449">
<ele>146.314575</ele>
<time>2010-07-17T08:26:25Z</time>
<desc>lat.=55.823334, lon.=26.415449, Alt.=146.314575m. Speed=12.384000m/h.</desc>
<speed>3.440000</speed>
</trkpt>
<trkpt lat="55.823307" lon="26.415413">
<ele>146.560669</ele>
<time>2010-07-17T08:26:26Z</time>
<desc>lat.=55.823307, lon.=26.415413, Alt.=146.560669m. Speed=12.564000m/h.</desc>
<speed>3.490000</speed>
</trkpt>
<trkpt lat="55.823280" lon="26.415371">
<ele>146.177856</ele>
<time>2010-07-17T08:26:27Z</time>
<desc>lat.=55.823280, lon.=26.415371, Alt.=146.177856m. Speed=13.248000m/h.</desc>
<speed>3.680000</speed>
</trkpt>
<trkpt lat="55.823254" lon="26.415337">
<ele>145.966919</ele>
<time>2010-07-17T08:26:28Z</time>
<desc>lat.=55.823254, lon.=26.415337, Alt.=145.966919m. Speed=13.356000m/h.</desc>
<speed>3.710000</speed>
</trkpt>
<trkpt lat="55.823231" lon="26.415300">
<ele>145.970825</ele>
<time>2010-07-17T08:26:29Z</time>
<desc>lat.=55.823231, lon.=26.415300, Alt.=145.970825m. Speed=12.816000m/h.</desc>
<speed>3.560000</speed>
</trkpt>
<trkpt lat="55.823204" lon="26.415268">
<ele>146.431763</ele>
<time>2010-07-17T08:26:30Z</time>
<desc>lat.=55.823204, lon.=26.415268, Alt.=146.431763m. Speed=13.032000m/h.</desc>
<speed>3.620000</speed>
</trkpt>
<trkpt lat="55.823174" lon="26.415234">
<ele>146.463013</ele>
<time>2010-07-17T08:26:31Z</time>
<desc>lat.=55.823174, lon.=26.415234, Alt.=146.463013m. Speed=12.852000m/h.</desc>
<speed>3.570000</speed>
</trkpt>
<trkpt lat="55.823147" lon="26.415199">
<ele>146.357544</ele>
<time>2010-07-17T08:26:32Z</time>
<desc>lat.=55.823147, lon.=26.415199, Alt.=146.357544m. Speed=12.708000m/h.</desc>
<speed>3.530000</speed>
</trkpt>
<trkpt lat="55.823124" lon="26.415173">
<ele>146.716919</ele>
<time>2010-07-17T08:26:33Z</time>
<desc>lat.=55.823124, lon.=26.415173, Alt.=146.716919m. Speed=12.672000m/h.</desc>
<speed>3.520000</speed>
</trkpt>
<trkpt lat="55.823093" lon="26.415138">
<ele>146.588013</ele>
<time>2010-07-17T08:26:34Z</time>
<desc>lat.=55.823093, lon.=26.415138, Alt.=146.588013m. Speed=12.420000m/h.</desc>
<speed>3.450000</speed>
</trkpt>
<trkpt lat="55.823067" lon="26.415104">
<ele>146.072388</ele>
<time>2010-07-17T08:26:35Z</time>
<desc>lat.=55.823067, lon.=26.415104, Alt.=146.072388m. Speed=11.880000m/h.</desc>
<speed>3.300000</speed>
</trkpt>
<trkpt lat="55.823040" lon="26.415066">
<ele>145.795044</ele>
<time>2010-07-17T08:26:36Z</time>
<desc>lat.=55.823040, lon.=26.415066, Alt.=145.795044m. Speed=12.456000m/h.</desc>
<speed>3.460000</speed>
</trkpt>
<trkpt lat="55.823013" lon="26.415020">
<ele>145.630981</ele>
<time>2010-07-17T08:26:37Z</time>
<desc>lat.=55.823013, lon.=26.415020, Alt.=145.630981m. Speed=13.140000m/h.</desc>
<speed>3.650000</speed>
</trkpt>
<trkpt lat="55.822983" lon="26.414974">
<ele>145.755981</ele>
<time>2010-07-17T08:26:38Z</time>
<desc>lat.=55.822983, lon.=26.414974, Alt.=145.755981m. Speed=13.716000m/h.</desc>
<speed>3.810000</speed>
</trkpt>
<trkpt lat="55.822952" lon="26.414934">
<ele>144.990356</ele>
<time>2010-07-17T08:26:39Z</time>
<desc>lat.=55.822952, lon.=26.414934, Alt.=144.990356m. Speed=13.356000m/h.</desc>
<speed>3.710000</speed>
</trkpt>
<trkpt lat="55.822926" lon="26.414894">
<ele>144.693481</ele>
<time>2010-07-17T08:26:40Z</time>
<desc>lat.=55.822926, lon.=26.414894, Alt.=144.693481m. Speed=12.996000m/h.</desc>
<speed>3.610000</speed>
</trkpt>
<trkpt lat="55.822895" lon="26.414846">
<ele>143.978638</ele>
<time>2010-07-17T08:26:41Z</time>
<desc>lat.=55.822895, lon.=26.414846, Alt.=143.978638m. Speed=13.500000m/h.</desc>
<speed>3.750000</speed>
</trkpt>
<trkpt lat="55.822868" lon="26.414816">
<ele>144.599731</ele>
<time>2010-07-17T08:26:42Z</time>
<desc>lat.=55.822868, lon.=26.414816, Alt.=144.599731m. Speed=13.392000m/h.</desc>
<speed>3.720000</speed>
</trkpt>
<trkpt lat="55.822842" lon="26.414782">
<ele>145.380981</ele>
<time>2010-07-17T08:26:43Z</time>
<desc>lat.=55.822842, lon.=26.414782, Alt.=145.380981m. Speed=12.960000m/h.</desc>
<speed>3.600000</speed>
</trkpt>
<trkpt lat="55.822811" lon="26.414742">
<ele>144.173950</ele>
<time>2010-07-17T08:26:44Z</time>
<desc>lat.=55.822811, lon.=26.414742, Alt.=144.173950m. Speed=13.896000m/h.</desc>
<speed>3.860000</speed>
</trkpt>
<trkpt lat="55.822781" lon="26.414700">
<ele>143.755981</ele>
<time>2010-07-17T08:26:45Z</time>
<desc>lat.=55.822781, lon.=26.414700, Alt.=143.755981m. Speed=13.536000m/h.</desc>
<speed>3.760000</speed>
</trkpt>
<trkpt lat="55.822754" lon="26.414663">
<ele>143.646606</ele>
<time>2010-07-17T08:26:46Z</time>
<desc>lat.=55.822754, lon.=26.414663, Alt.=143.646606m. Speed=13.824000m/h.</desc>
<speed>3.840000</speed>
</trkpt>
<trkpt lat="55.822727" lon="26.414631">
<ele>144.115356</ele>
<time>2010-07-17T08:26:47Z</time>
<desc>lat.=55.822727, lon.=26.414631, Alt.=144.115356m. Speed=13.644000m/h.</desc>
<speed>3.790000</speed>
</trkpt>
<trkpt lat="55.822701" lon="26.414589">
<ele>144.943481</ele>
<time>2010-07-17T08:26:48Z</time>
<desc>lat.=55.822701, lon.=26.414589, Alt.=144.943481m. Speed=13.860000m/h.</desc>
<speed>3.850000</speed>
</trkpt>
<trkpt lat="55.822674" lon="26.414555">
<ele>145.295044</ele>
<time>2010-07-17T08:26:49Z</time>
<desc>lat.=55.822674, lon.=26.414555, Alt.=145.295044m. Speed=13.788000m/h.</desc>
<speed>3.830000</speed>
</trkpt>
<trkpt lat="55.822647" lon="26.414524">
<ele>145.599731</ele>
<time>2010-07-17T08:26:50Z</time>
<desc>lat.=55.822647, lon.=26.414524, Alt.=145.599731m. Speed=13.788000m/h.</desc>
<speed>3.830000</speed>
</trkpt>
<trkpt lat="55.822620" lon="26.414488">
<ele>145.896606</ele>
<time>2010-07-17T08:26:51Z</time>
<desc>lat.=55.822620, lon.=26.414488, Alt.=145.896606m. Speed=13.968000m/h.</desc>
<speed>3.880000</speed>
</trkpt>
<trkpt lat="55.822590" lon="26.414452">
<ele>146.189575</ele>
<time>2010-07-17T08:26:52Z</time>
<desc>lat.=55.822590, lon.=26.414452, Alt.=146.189575m. Speed=13.824000m/h.</desc>
<speed>3.840000</speed>
</trkpt>
<trkpt lat="55.822563" lon="26.414417">
<ele>146.271606</ele>
<time>2010-07-17T08:26:53Z</time>
<desc>lat.=55.822563, lon.=26.414417, Alt.=146.271606m. Speed=13.464000m/h.</desc>
<speed>3.740000</speed>
</trkpt>
<trkpt lat="55.822536" lon="26.414377">
<ele>146.650513</ele>
<time>2010-07-17T08:26:54Z</time>
<desc>lat.=55.822536, lon.=26.414377, Alt.=146.650513m. Speed=13.104000m/h.</desc>
<speed>3.640000</speed>
</trkpt>
<trkpt lat="55.822514" lon="26.414343">
<ele>147.068481</ele>
<time>2010-07-17T08:26:55Z</time>
<desc>lat.=55.822514, lon.=26.414343, Alt.=147.068481m. Speed=12.816000m/h.</desc>
<speed>3.560000</speed>
</trkpt>
<trkpt lat="55.822487" lon="26.414307">
<ele>147.685669</ele>
<time>2010-07-17T08:26:56Z</time>
<desc>lat.=55.822487, lon.=26.414307, Alt.=147.685669m. Speed=13.284000m/h.</desc>
<speed>3.690000</speed>
</trkpt>
<trkpt lat="55.822460" lon="26.414272">
<ele>148.334106</ele>
<time>2010-07-17T08:26:57Z</time>
<desc>lat.=55.822460, lon.=26.414272, Alt.=148.334106m. Speed=13.248000m/h.</desc>
<speed>3.680000</speed>
</trkpt>
<trkpt lat="55.822437" lon="26.414232">
<ele>149.084106</ele>
<time>2010-07-17T08:26:58Z</time>
<desc>lat.=55.822437, lon.=26.414232, Alt.=149.084106m. Speed=12.744000m/h.</desc>
<speed>3.540000</speed>
</trkpt>
<trkpt lat="55.822407" lon="26.414192">
<ele>149.283325</ele>
<time>2010-07-17T08:26:59Z</time>
<desc>lat.=55.822407, lon.=26.414192, Alt.=149.283325m. Speed=13.500000m/h.</desc>
<speed>3.750000</speed>
</trkpt>
<trkpt lat="55.822380" lon="26.414150">
<ele>149.498169</ele>
<time>2010-07-17T08:27:00Z</time>
<desc>lat.=55.822380, lon.=26.414150, Alt.=149.498169m. Speed=13.140000m/h.</desc>
<speed>3.650000</speed>
</trkpt>
<trkpt lat="55.822350" lon="26.414110">
<ele>149.353638</ele>
<time>2010-07-17T08:27:01Z</time>
<desc>lat.=55.822350, lon.=26.414110, Alt.=149.353638m. Speed=13.752000m/h.</desc>
<speed>3.820000</speed>
</trkpt>
<trkpt lat="55.822319" lon="26.414066">
<ele>148.560669</ele>
<time>2010-07-17T08:27:02Z</time>
<desc>lat.=55.822319, lon.=26.414066, Alt.=148.560669m. Speed=13.248000m/h.</desc>
<speed>3.680000</speed>
</trkpt>
<trkpt lat="55.822289" lon="26.414032">
<ele>148.755981</ele>
<time>2010-07-17T08:27:03Z</time>
<desc>lat.=55.822289, lon.=26.414032, Alt.=148.755981m. Speed=13.788000m/h.</desc>
<speed>3.830000</speed>
</trkpt>
<trkpt lat="55.822243" lon="26.413973">
<ele>145.412231</ele>
<time>2010-07-17T08:27:04Z</time>
<desc>lat.=55.822243, lon.=26.413973, Alt.=145.412231m. Speed=12.672000m/h.</desc>
<speed>3.520000</speed>
</trkpt>
<trkpt lat="55.822220" lon="26.413944">
<ele>145.295044</ele>
<time>2010-07-17T08:27:05Z</time>
<desc>lat.=55.822220, lon.=26.413944, Alt.=145.295044m. Speed=10.728000m/h.</desc>
<speed>2.980000</speed>
</trkpt>
<trkpt lat="55.822201" lon="26.413918">
<ele>146.029419</ele>
<time>2010-07-17T08:27:06Z</time>
<desc>lat.=55.822201, lon.=26.413918, Alt.=146.029419m. Speed=10.980000m/h.</desc>
<speed>3.050000</speed>
</trkpt>
<trkpt lat="55.822178" lon="26.413893">
<ele>145.853638</ele>
<time>2010-07-17T08:27:07Z</time>
<desc>lat.=55.822178, lon.=26.413893, Alt.=145.853638m. Speed=10.584000m/h.</desc>
<speed>2.940000</speed>
</trkpt>
<trkpt lat="55.822147" lon="26.413858">
<ele>144.033325</ele>
<time>2010-07-17T08:27:08Z</time>
<desc>lat.=55.822147, lon.=26.413858, Alt.=144.033325m. Speed=10.260000m/h.</desc>
<speed>2.850000</speed>
</trkpt>
<trkpt lat="55.822128" lon="26.413832">
<ele>144.232544</ele>
<time>2010-07-17T08:27:09Z</time>
<desc>lat.=55.822128, lon.=26.413832, Alt.=144.232544m. Speed=10.800000m/h.</desc>
<speed>3.000000</speed>
</trkpt>
<trkpt lat="55.822105" lon="26.413803">
<ele>144.103638</ele>
<time>2010-07-17T08:27:10Z</time>
<desc>lat.=55.822105, lon.=26.413803, Alt.=144.103638m. Speed=11.160000m/h.</desc>
<speed>3.100000</speed>
</trkpt>
<trkpt lat="55.822083" lon="26.413774">
<ele>144.037231</ele>
<time>2010-07-17T08:27:11Z</time>
<desc>lat.=55.822083, lon.=26.413774, Alt.=144.037231m. Speed=11.304000m/h.</desc>
<speed>3.140000</speed>
</trkpt>
<trkpt lat="55.822060" lon="26.413752">
<ele>144.400513</ele>
<time>2010-07-17T08:27:12Z</time>
<desc>lat.=55.822060, lon.=26.413752, Alt.=144.400513m. Speed=11.268000m/h.</desc>
<speed>3.130000</speed>
</trkpt>
<trkpt lat="55.822041" lon="26.413719">
<ele>144.138794</ele>
<time>2010-07-17T08:27:13Z</time>
<desc>lat.=55.822041, lon.=26.413719, Alt.=144.138794m. Speed=10.044000m/h.</desc>
<speed>2.790000</speed>
</trkpt>
<trkpt lat="55.822021" lon="26.413689">
<ele>143.998169</ele>
<time>2010-07-17T08:27:14Z</time>
<desc>lat.=55.822021, lon.=26.413689, Alt.=143.998169m. Speed=10.908000m/h.</desc>
<speed>3.030000</speed>
</trkpt>
<trkpt lat="55.821995" lon="26.413652">
<ele>144.877075</ele>
<time>2010-07-17T08:27:15Z</time>
<desc>lat.=55.821995, lon.=26.413652, Alt.=144.877075m. Speed=12.204000m/h.</desc>
<speed>3.390000</speed>
</trkpt>
<trkpt lat="55.821972" lon="26.413612">
<ele>145.642700</ele>
<time>2010-07-17T08:27:16Z</time>
<desc>lat.=55.821972, lon.=26.413612, Alt.=145.642700m. Speed=13.140000m/h.</desc>
<speed>3.650000</speed>
</trkpt>
<trkpt lat="55.821949" lon="26.413572">
<ele>145.994263</ele>
<time>2010-07-17T08:27:17Z</time>
<desc>lat.=55.821949, lon.=26.413572, Alt.=145.994263m. Speed=13.644000m/h.</desc>
<speed>3.790000</speed>
</trkpt>
<trkpt lat="55.821918" lon="26.413534">
<ele>146.572388</ele>
<time>2010-07-17T08:27:18Z</time>
<desc>lat.=55.821918, lon.=26.413534, Alt.=146.572388m. Speed=14.508000m/h.</desc>
<speed>4.030000</speed>
</trkpt>
<trkpt lat="55.821892" lon="26.413494">
<ele>147.416138</ele>
<time>2010-07-17T08:27:19Z</time>
<desc>lat.=55.821892, lon.=26.413494, Alt.=147.416138m. Speed=14.364000m/h.</desc>
<speed>3.990000</speed>
</trkpt>
<trkpt lat="55.821861" lon="26.413456">
<ele>147.986450</ele>
<time>2010-07-17T08:27:20Z</time>
<desc>lat.=55.821861, lon.=26.413456, Alt.=147.986450m. Speed=15.948000m/h.</desc>
<speed>4.430000</speed>
</trkpt>
<trkpt lat="55.821831" lon="26.413414">
<ele>148.318481</ele>
<time>2010-07-17T08:27:21Z</time>
<desc>lat.=55.821831, lon.=26.413414, Alt.=148.318481m. Speed=16.236000m/h.</desc>
<speed>4.510000</speed>
</trkpt>
<trkpt lat="55.821793" lon="26.413368">
<ele>148.509888</ele>
<time>2010-07-17T08:27:22Z</time>
<desc>lat.=55.821793, lon.=26.413368, Alt.=148.509888m. Speed=15.480000m/h.</desc>
<speed>4.300000</speed>
</trkpt>
<trkpt lat="55.821762" lon="26.413334">
<ele>148.068481</ele>
<time>2010-07-17T08:27:23Z</time>
<desc>lat.=55.821762, lon.=26.413334, Alt.=148.068481m. Speed=15.984000m/h.</desc>
<speed>4.440000</speed>
</trkpt>
<trkpt lat="55.821728" lon="26.413300">
<ele>147.853638</ele>
<time>2010-07-17T08:27:24Z</time>
<desc>lat.=55.821728, lon.=26.413300, Alt.=147.853638m. Speed=16.271999m/h.</desc>
<speed>4.520000</speed>
</trkpt>
<trkpt lat="55.821693" lon="26.413265">
<ele>148.490356</ele>
<time>2010-07-17T08:27:25Z</time>
<desc>lat.=55.821693, lon.=26.413265, Alt.=148.490356m. Speed=16.379999m/h.</desc>
<speed>4.550000</speed>
</trkpt>
<trkpt lat="55.821659" lon="26.413221">
<ele>148.482544</ele>
<time>2010-07-17T08:27:26Z</time>
<desc>lat.=55.821659, lon.=26.413221, Alt.=148.482544m. Speed=17.028000m/h.</desc>
<speed>4.730000</speed>
</trkpt>
<trkpt lat="55.821621" lon="26.413174">
<ele>149.056763</ele>
<time>2010-07-17T08:27:27Z</time>
<desc>lat.=55.821621, lon.=26.413174, Alt.=149.056763m. Speed=16.632000m/h.</desc>
<speed>4.620000</speed>
</trkpt>
<trkpt lat="55.821587" lon="26.413120">
<ele>147.955200</ele>
<time>2010-07-17T08:27:28Z</time>
<desc>lat.=55.821587, lon.=26.413120, Alt.=147.955200m. Speed=17.243999m/h.</desc>
<speed>4.790000</speed>
</trkpt>
<trkpt lat="55.821548" lon="26.413073">
<ele>147.259888</ele>
<time>2010-07-17T08:27:29Z</time>
<desc>lat.=55.821548, lon.=26.413073, Alt.=147.259888m. Speed=16.379999m/h.</desc>
<speed>4.550000</speed>
</trkpt>
<trkpt lat="55.821518" lon="26.413025">
<ele>146.103638</ele>
<time>2010-07-17T08:27:30Z</time>
<desc>lat.=55.821518, lon.=26.413025, Alt.=146.103638m. Speed=15.948000m/h.</desc>
<speed>4.430000</speed>
</trkpt>
<trkpt lat="55.821484" lon="26.412970">
<ele>144.377075</ele>
<time>2010-07-17T08:27:31Z</time>
<desc>lat.=55.821484, lon.=26.412970, Alt.=144.377075m. Speed=16.128000m/h.</desc>
<speed>4.480000</speed>
</trkpt>
<trkpt lat="55.821457" lon="26.412926">
<ele>144.193481</ele>
<time>2010-07-17T08:27:32Z</time>
<desc>lat.=55.821457, lon.=26.412926, Alt.=144.193481m. Speed=15.300000m/h.</desc>
<speed>4.250000</speed>
</trkpt>
<trkpt lat="55.821426" lon="26.412884">
<ele>143.865356</ele>
<time>2010-07-17T08:27:33Z</time>
<desc>lat.=55.821426, lon.=26.412884, Alt.=143.865356m. Speed=14.904000m/h.</desc>
<speed>4.140000</speed>
</trkpt>
<trkpt lat="55.821400" lon="26.412844">
<ele>143.673950</ele>
<time>2010-07-17T08:27:34Z</time>
<desc>lat.=55.821400, lon.=26.412844, Alt.=143.673950m. Speed=14.184000m/h.</desc>
<speed>3.940000</speed>
</trkpt>
<trkpt lat="55.821365" lon="26.412811">
<ele>143.591919</ele>
<time>2010-07-17T08:27:35Z</time>
<desc>lat.=55.821365, lon.=26.412811, Alt.=143.591919m. Speed=14.040000m/h.</desc>
<speed>3.900000</speed>
</trkpt>
<trkpt lat="55.821335" lon="26.412777">
<ele>143.330200</ele>
<time>2010-07-17T08:27:36Z</time>
<desc>lat.=55.821335, lon.=26.412777, Alt.=143.330200m. Speed=14.616000m/h.</desc>
<speed>4.060000</speed>
</trkpt>
<trkpt lat="55.821312" lon="26.412745">
<ele>143.005981</ele>
<time>2010-07-17T08:27:37Z</time>
<desc>lat.=55.821312, lon.=26.412745, Alt.=143.005981m. Speed=12.204000m/h.</desc>
<speed>3.390000</speed>
</trkpt>
<trkpt lat="55.821285" lon="26.412703">
<ele>143.193481</ele>
<time>2010-07-17T08:27:38Z</time>
<desc>lat.=55.821285, lon.=26.412703, Alt.=143.193481m. Speed=14.580000m/h.</desc>
<speed>4.050000</speed>
</trkpt>
<trkpt lat="55.821255" lon="26.412663">
<ele>143.638794</ele>
<time>2010-07-17T08:27:39Z</time>
<desc>lat.=55.821255, lon.=26.412663, Alt.=143.638794m. Speed=15.192000m/h.</desc>
<speed>4.220000</speed>
</trkpt>
<trkpt lat="55.821220" lon="26.412617">
<ele>144.216919</ele>
<time>2010-07-17T08:27:40Z</time>
<desc>lat.=55.821220, lon.=26.412617, Alt.=144.216919m. Speed=15.336000m/h.</desc>
<speed>4.260000</speed>
</trkpt>
<trkpt lat="55.821194" lon="26.412579">
<ele>144.713013</ele>
<time>2010-07-17T08:27:41Z</time>
<desc>lat.=55.821194, lon.=26.412579, Alt.=144.713013m. Speed=15.372000m/h.</desc>
<speed>4.270000</speed>
</trkpt>
<trkpt lat="55.821163" lon="26.412542">
<ele>145.509888</ele>
<time>2010-07-17T08:27:42Z</time>
<desc>lat.=55.821163, lon.=26.412542, Alt.=145.509888m. Speed=14.508000m/h.</desc>
<speed>4.030000</speed>
</trkpt>
<trkpt lat="55.821133" lon="26.412506">
<ele>145.830200</ele>
<time>2010-07-17T08:27:43Z</time>
<desc>lat.=55.821133, lon.=26.412506, Alt.=145.830200m. Speed=14.436000m/h.</desc>
<speed>4.010000</speed>
</trkpt>
<trkpt lat="55.821106" lon="26.412470">
<ele>146.634888</ele>
<time>2010-07-17T08:27:44Z</time>
<desc>lat.=55.821106, lon.=26.412470, Alt.=146.634888m. Speed=13.860000m/h.</desc>
<speed>3.850000</speed>
</trkpt>
<trkpt lat="55.821079" lon="26.412430">
<ele>146.584106</ele>
<time>2010-07-17T08:27:45Z</time>
<desc>lat.=55.821079, lon.=26.412430, Alt.=146.584106m. Speed=12.960000m/h.</desc>
<speed>3.600000</speed>
</trkpt>
<trkpt lat="55.821041" lon="26.412376">
<ele>144.177856</ele>
<time>2010-07-17T08:27:46Z</time>
<desc>lat.=55.821041, lon.=26.412376, Alt.=144.177856m. Speed=13.140000m/h.</desc>
<speed>3.650000</speed>
</trkpt>
<trkpt lat="55.821014" lon="26.412338">
<ele>143.685669</ele>
<time>2010-07-17T08:27:47Z</time>
<desc>lat.=55.821014, lon.=26.412338, Alt.=143.685669m. Speed=12.168000m/h.</desc>
<speed>3.380000</speed>
</trkpt>
<trkpt lat="55.820988" lon="26.412292">
<ele>143.552856</ele>
<time>2010-07-17T08:27:48Z</time>
<desc>lat.=55.820988, lon.=26.412292, Alt.=143.552856m. Speed=12.456000m/h.</desc>
<speed>3.460000</speed>
</trkpt>
<trkpt lat="55.820961" lon="26.412245">
<ele>142.607544</ele>
<time>2010-07-17T08:27:49Z</time>
<desc>lat.=55.820961, lon.=26.412245, Alt.=142.607544m. Speed=12.492000m/h.</desc>
<speed>3.470000</speed>
</trkpt>
<trkpt lat="55.820934" lon="26.412210">
<ele>142.822388</ele>
<time>2010-07-17T08:27:50Z</time>
<desc>lat.=55.820934, lon.=26.412210, Alt.=142.822388m. Speed=12.636000m/h.</desc>
<speed>3.510000</speed>
</trkpt>
<trkpt lat="55.820908" lon="26.412184">
<ele>143.025513</ele>
<time>2010-07-17T08:27:51Z</time>
<desc>lat.=55.820908, lon.=26.412184, Alt.=143.025513m. Speed=13.140000m/h.</desc>
<speed>3.650000</speed>
</trkpt>
<trkpt lat="55.820881" lon="26.412163">
<ele>143.451294</ele>
<time>2010-07-17T08:27:52Z</time>
<desc>lat.=55.820881, lon.=26.412163, Alt.=143.451294m. Speed=11.484000m/h.</desc>
<speed>3.190000</speed>
</trkpt>
<trkpt lat="55.820854" lon="26.412127">
<ele>143.193481</ele>
<time>2010-07-17T08:27:53Z</time>
<desc>lat.=55.820854, lon.=26.412127, Alt.=143.193481m. Speed=13.176000m/h.</desc>
<speed>3.660000</speed>
</trkpt>
<trkpt lat="55.820824" lon="26.412086">
<ele>143.173950</ele>
<time>2010-07-17T08:27:54Z</time>
<desc>lat.=55.820824, lon.=26.412086, Alt.=143.173950m. Speed=14.472000m/h.</desc>
<speed>4.020000</speed>
</trkpt>
<trkpt lat="55.820793" lon="26.412048">
<ele>143.365356</ele>
<time>2010-07-17T08:27:55Z</time>
<desc>lat.=55.820793, lon.=26.412048, Alt.=143.365356m. Speed=13.428000m/h.</desc>
<speed>3.730000</speed>
</trkpt>
<trkpt lat="55.820766" lon="26.412020">
<ele>143.935669</ele>
<time>2010-07-17T08:27:56Z</time>
<desc>lat.=55.820766, lon.=26.412020, Alt.=143.935669m. Speed=13.788000m/h.</desc>
<speed>3.830000</speed>
</trkpt>
<trkpt lat="55.820736" lon="26.411978">
<ele>143.994263</ele>
<time>2010-07-17T08:27:57Z</time>
<desc>lat.=55.820736, lon.=26.411978, Alt.=143.994263m. Speed=13.536000m/h.</desc>
<speed>3.760000</speed>
</trkpt>
<trkpt lat="55.820702" lon="26.411932">
<ele>144.291138</ele>
<time>2010-07-17T08:27:58Z</time>
<desc>lat.=55.820702, lon.=26.411932, Alt.=144.291138m. Speed=14.904000m/h.</desc>
<speed>4.140000</speed>
</trkpt>
<trkpt lat="55.820671" lon="26.411884">
<ele>144.951294</ele>
<time>2010-07-17T08:27:59Z</time>
<desc>lat.=55.820671, lon.=26.411884, Alt.=144.951294m. Speed=16.128000m/h.</desc>
<speed>4.480000</speed>
</trkpt>
<trkpt lat="55.820637" lon="26.411839">
<ele>144.787231</ele>
<time>2010-07-17T08:28:00Z</time>
<desc>lat.=55.820637, lon.=26.411839, Alt.=144.787231m. Speed=15.588000m/h.</desc>
<speed>4.330000</speed>
</trkpt>
<trkpt lat="55.820602" lon="26.411793">
<ele>144.334106</ele>
<time>2010-07-17T08:28:01Z</time>
<desc>lat.=55.820602, lon.=26.411793, Alt.=144.334106m. Speed=15.192000m/h.</desc>
<speed>4.220000</speed>
</trkpt>
<trkpt lat="55.820572" lon="26.411743">
<ele>144.127075</ele>
<time>2010-07-17T08:28:02Z</time>
<desc>lat.=55.820572, lon.=26.411743, Alt.=144.127075m. Speed=15.444000m/h.</desc>
<speed>4.290000</speed>
</trkpt>
<trkpt lat="55.820541" lon="26.411703">
<ele>144.447388</ele>
<time>2010-07-17T08:28:03Z</time>
<desc>lat.=55.820541, lon.=26.411703, Alt.=144.447388m. Speed=15.696000m/h.</desc>
<speed>4.360000</speed>
</trkpt>
<trkpt lat="55.820511" lon="26.411665">
<ele>144.759888</ele>
<time>2010-07-17T08:28:04Z</time>
<desc>lat.=55.820511, lon.=26.411665, Alt.=144.759888m. Speed=15.768000m/h.</desc>
<speed>4.380000</speed>
</trkpt>
<trkpt lat="55.820480" lon="26.411625">
<ele>145.115356</ele>
<time>2010-07-17T08:28:05Z</time>
<desc>lat.=55.820480, lon.=26.411625, Alt.=145.115356m. Speed=15.840000m/h.</desc>
<speed>4.400000</speed>
</trkpt>
<trkpt lat="55.820450" lon="26.411587">
<ele>145.447388</ele>
<time>2010-07-17T08:28:06Z</time>
<desc>lat.=55.820450, lon.=26.411587, Alt.=145.447388m. Speed=14.976000m/h.</desc>
<speed>4.160000</speed>
</trkpt>
<trkpt lat="55.820423" lon="26.411556">
<ele>145.349731</ele>
<time>2010-07-17T08:28:07Z</time>
<desc>lat.=55.820423, lon.=26.411556, Alt.=145.349731m. Speed=13.428000m/h.</desc>
<speed>3.730000</speed>
</trkpt>
<trkpt lat="55.820393" lon="26.411522">
<ele>144.923950</ele>
<time>2010-07-17T08:28:08Z</time>
<desc>lat.=55.820393, lon.=26.411522, Alt.=144.923950m. Speed=15.192000m/h.</desc>
<speed>4.220000</speed>
</trkpt>
<trkpt lat="55.820362" lon="26.411482">
<ele>144.904419</ele>
<time>2010-07-17T08:28:09Z</time>
<desc>lat.=55.820362, lon.=26.411482, Alt.=144.904419m. Speed=15.300000m/h.</desc>
<speed>4.250000</speed>
</trkpt>
<trkpt lat="55.820332" lon="26.411436">
<ele>145.056763</ele>
<time>2010-07-17T08:28:10Z</time>
<desc>lat.=55.820332, lon.=26.411436, Alt.=145.056763m. Speed=14.580000m/h.</desc>
<speed>4.050000</speed>
</trkpt>
<trkpt lat="55.820301" lon="26.411390">
<ele>145.623169</ele>
<time>2010-07-17T08:28:11Z</time>
<desc>lat.=55.820301, lon.=26.411390, Alt.=145.623169m. Speed=14.580000m/h.</desc>
<speed>4.050000</speed>
</trkpt>
<trkpt lat="55.820267" lon="26.411339">
<ele>145.939575</ele>
<time>2010-07-17T08:28:12Z</time>
<desc>lat.=55.820267, lon.=26.411339, Alt.=145.939575m. Speed=16.056000m/h.</desc>
<speed>4.460000</speed>
</trkpt>
<trkpt lat="55.820236" lon="26.411283">
<ele>146.490356</ele>
<time>2010-07-17T08:28:13Z</time>
<desc>lat.=55.820236, lon.=26.411283, Alt.=146.490356m. Speed=15.948000m/h.</desc>
<speed>4.430000</speed>
</trkpt>
<trkpt lat="55.820206" lon="26.411240">
<ele>146.740356</ele>
<time>2010-07-17T08:28:14Z</time>
<desc>lat.=55.820206, lon.=26.411240, Alt.=146.740356m. Speed=15.300000m/h.</desc>
<speed>4.250000</speed>
</trkpt>
<trkpt lat="55.820175" lon="26.411190">
<ele>147.115356</ele>
<time>2010-07-17T08:28:15Z</time>
<desc>lat.=55.820175, lon.=26.411190, Alt.=147.115356m. Speed=15.048000m/h.</desc>
<speed>4.180000</speed>
</trkpt>
<trkpt lat="55.820145" lon="26.411144">
<ele>146.896606</ele>
<time>2010-07-17T08:28:16Z</time>
<desc>lat.=55.820145, lon.=26.411144, Alt.=146.896606m. Speed=15.768000m/h.</desc>
<speed>4.380000</speed>
</trkpt>
<trkpt lat="55.820114" lon="26.411102">
<ele>147.283325</ele>
<time>2010-07-17T08:28:17Z</time>
<desc>lat.=55.820114, lon.=26.411102, Alt.=147.283325m. Speed=15.120000m/h.</desc>
<speed>4.200000</speed>
</trkpt>
<trkpt lat="55.820080" lon="26.411062">
<ele>147.802856</ele>
<time>2010-07-17T08:28:18Z</time>
<desc>lat.=55.820080, lon.=26.411062, Alt.=147.802856m. Speed=15.804000m/h.</desc>
<speed>4.390000</speed>
</trkpt>
<trkpt lat="55.820053" lon="26.411022">
<ele>148.076294</ele>
<time>2010-07-17T08:28:19Z</time>
<desc>lat.=55.820053, lon.=26.411022, Alt.=148.076294m. Speed=15.588000m/h.</desc>
<speed>4.330000</speed>
</trkpt>
<trkpt lat="55.820023" lon="26.410986">
<ele>149.080200</ele>
<time>2010-07-17T08:28:20Z</time>
<desc>lat.=55.820023, lon.=26.410986, Alt.=149.080200m. Speed=16.416000m/h.</desc>
<speed>4.560000</speed>
</trkpt>
<trkpt lat="55.819992" lon="26.410942">
<ele>149.302856</ele>
<time>2010-07-17T08:28:21Z</time>
<desc>lat.=55.819992, lon.=26.410942, Alt.=149.302856m. Speed=15.516000m/h.</desc>
<speed>4.310000</speed>
</trkpt>
<trkpt lat="55.819962" lon="26.410900">
<ele>149.529419</ele>
<time>2010-07-17T08:28:22Z</time>
<desc>lat.=55.819962, lon.=26.410900, Alt.=149.529419m. Speed=14.616000m/h.</desc>
<speed>4.060000</speed>
</trkpt>
<trkpt lat="55.819935" lon="26.410862">
<ele>149.431763</ele>
<time>2010-07-17T08:28:23Z</time>
<desc>lat.=55.819935, lon.=26.410862, Alt.=149.431763m. Speed=14.616000m/h.</desc>
<speed>4.060000</speed>
</trkpt>
<trkpt lat="55.819904" lon="26.410818">
<ele>149.005981</ele>
<time>2010-07-17T08:28:24Z</time>
<desc>lat.=55.819904, lon.=26.410818, Alt.=149.005981m. Speed=14.220000m/h.</desc>
<speed>3.950000</speed>
</trkpt>
<trkpt lat="55.819866" lon="26.410769">
<ele>147.798950</ele>
<time>2010-07-17T08:28:25Z</time>
<desc>lat.=55.819866, lon.=26.410769, Alt.=147.798950m. Speed=16.416000m/h.</desc>
<speed>4.560000</speed>
</trkpt>
<trkpt lat="55.819828" lon="26.410713">
<ele>147.193481</ele>
<time>2010-07-17T08:28:26Z</time>
<desc>lat.=55.819828, lon.=26.410713, Alt.=147.193481m. Speed=16.992001m/h.</desc>
<speed>4.720000</speed>
</trkpt>
<trkpt lat="55.819794" lon="26.410660">
<ele>146.584106</ele>
<time>2010-07-17T08:28:27Z</time>
<desc>lat.=55.819794, lon.=26.410660, Alt.=146.584106m. Speed=15.444000m/h.</desc>
<speed>4.290000</speed>
</trkpt>
<trkpt lat="55.819756" lon="26.410612">
<ele>145.197388</ele>
<time>2010-07-17T08:28:28Z</time>
<desc>lat.=55.819756, lon.=26.410612, Alt.=145.197388m. Speed=15.228000m/h.</desc>
<speed>4.230000</speed>
</trkpt>
<trkpt lat="55.819721" lon="26.410568">
<ele>144.361450</ele>
<time>2010-07-17T08:28:29Z</time>
<desc>lat.=55.819721, lon.=26.410568, Alt.=144.361450m. Speed=16.596001m/h.</desc>
<speed>4.610000</speed>
</trkpt>
<trkpt lat="55.819683" lon="26.410521">
<ele>143.572388</ele>
<time>2010-07-17T08:28:30Z</time>
<desc>lat.=55.819683, lon.=26.410521, Alt.=143.572388m. Speed=15.444000m/h.</desc>
<speed>4.290000</speed>
</trkpt>
<trkpt lat="55.819645" lon="26.410469">
<ele>142.658325</ele>
<time>2010-07-17T08:28:31Z</time>
<desc>lat.=55.819645, lon.=26.410469, Alt.=142.658325m. Speed=16.164000m/h.</desc>
<speed>4.490000</speed>
</trkpt>
<trkpt lat="55.819607" lon="26.410423">
<ele>142.783325</ele>
<time>2010-07-17T08:28:32Z</time>
<desc>lat.=55.819607, lon.=26.410423, Alt.=142.783325m. Speed=17.676001m/h.</desc>
<speed>4.910000</speed>
</trkpt>
<trkpt lat="55.819572" lon="26.410370">
<ele>143.338013</ele>
<time>2010-07-17T08:28:33Z</time>
<desc>lat.=55.819572, lon.=26.410370, Alt.=143.338013m. Speed=17.208000m/h.</desc>
<speed>4.780000</speed>
</trkpt>
<trkpt lat="55.819534" lon="26.410326">
<ele>143.548950</ele>
<time>2010-07-17T08:28:34Z</time>
<desc>lat.=55.819534, lon.=26.410326, Alt.=143.548950m. Speed=16.488001m/h.</desc>
<speed>4.580000</speed>
</trkpt>
<trkpt lat="55.819496" lon="26.410275">
<ele>143.123169</ele>
<time>2010-07-17T08:28:35Z</time>
<desc>lat.=55.819496, lon.=26.410275, Alt.=143.123169m. Speed=17.351999m/h.</desc>
<speed>4.820000</speed>
</trkpt>
<trkpt lat="55.819466" lon="26.410227">
<ele>143.611450</ele>
<time>2010-07-17T08:28:36Z</time>
<desc>lat.=55.819466, lon.=26.410227, Alt.=143.611450m. Speed=16.452000m/h.</desc>
<speed>4.570000</speed>
</trkpt>
<trkpt lat="55.819424" lon="26.410183">
<ele>143.490356</ele>
<time>2010-07-17T08:28:37Z</time>
<desc>lat.=55.819424, lon.=26.410183, Alt.=143.490356m. Speed=18.252001m/h.</desc>
<speed>5.070000</speed>
</trkpt>
<trkpt lat="55.819389" lon="26.410137">
<ele>143.716919</ele>
<time>2010-07-17T08:28:38Z</time>
<desc>lat.=55.819389, lon.=26.410137, Alt.=143.716919m. Speed=18.396000m/h.</desc>
<speed>5.110000</speed>
</trkpt>
<trkpt lat="55.819347" lon="26.410093">
<ele>143.162231</ele>
<time>2010-07-17T08:28:39Z</time>
<desc>lat.=55.819347, lon.=26.410093, Alt.=143.162231m. Speed=16.308001m/h.</desc>
<speed>4.530000</speed>
</trkpt>
<trkpt lat="55.819313" lon="26.410048">
<ele>143.353638</ele>
<time>2010-07-17T08:28:40Z</time>
<desc>lat.=55.819313, lon.=26.410048, Alt.=143.353638m. Speed=16.559999m/h.</desc>
<speed>4.600000</speed>
</trkpt>
<trkpt lat="55.819283" lon="26.410006">
<ele>143.173950</ele>
<time>2010-07-17T08:28:41Z</time>
<desc>lat.=55.819283, lon.=26.410006, Alt.=143.173950m. Speed=16.812000m/h.</desc>
<speed>4.670000</speed>
</trkpt>
<trkpt lat="55.819248" lon="26.409964">
<ele>143.420044</ele>
<time>2010-07-17T08:28:42Z</time>
<desc>lat.=55.819248, lon.=26.409964, Alt.=143.420044m. Speed=15.768000m/h.</desc>
<speed>4.380000</speed>
</trkpt>
<trkpt lat="55.819214" lon="26.409922">
<ele>143.888794</ele>
<time>2010-07-17T08:28:43Z</time>
<desc>lat.=55.819214, lon.=26.409922, Alt.=143.888794m. Speed=15.912000m/h.</desc>
<speed>4.420000</speed>
</trkpt>
<trkpt lat="55.819180" lon="26.409874">
<ele>144.138794</ele>
<time>2010-07-17T08:28:44Z</time>
<desc>lat.=55.819180, lon.=26.409874, Alt.=144.138794m. Speed=16.704000m/h.</desc>
<speed>4.640000</speed>
</trkpt>
<trkpt lat="55.819145" lon="26.409832">
<ele>143.720825</ele>
<time>2010-07-17T08:28:45Z</time>
<desc>lat.=55.819145, lon.=26.409832, Alt.=143.720825m. Speed=16.056000m/h.</desc>
<speed>4.460000</speed>
</trkpt>
<trkpt lat="55.819111" lon="26.409786">
<ele>143.072388</ele>
<time>2010-07-17T08:28:46Z</time>
<desc>lat.=55.819111, lon.=26.409786, Alt.=143.072388m. Speed=16.020000m/h.</desc>
<speed>4.450000</speed>
</trkpt>
<trkpt lat="55.819077" lon="26.409735">
<ele>142.724731</ele>
<time>2010-07-17T08:28:47Z</time>
<desc>lat.=55.819077, lon.=26.409735, Alt.=142.724731m. Speed=16.884001m/h.</desc>
<speed>4.690000</speed>
</trkpt>
<trkpt lat="55.819046" lon="26.409689">
<ele>142.900513</ele>
<time>2010-07-17T08:28:48Z</time>
<desc>lat.=55.819046, lon.=26.409689, Alt.=142.900513m. Speed=15.768000m/h.</desc>
<speed>4.380000</speed>
</trkpt>
<trkpt lat="55.819012" lon="26.409651">
<ele>143.283325</ele>
<time>2010-07-17T08:28:49Z</time>
<desc>lat.=55.819012, lon.=26.409651, Alt.=143.283325m. Speed=15.516000m/h.</desc>
<speed>4.310000</speed>
</trkpt>
<trkpt lat="55.818977" lon="26.409611">
<ele>143.142700</ele>
<time>2010-07-17T08:28:50Z</time>
<desc>lat.=55.818977, lon.=26.409611, Alt.=143.142700m. Speed=17.496000m/h.</desc>
<speed>4.860000</speed>
</trkpt>
<trkpt lat="55.818947" lon="26.409573">
<ele>143.240356</ele>
<time>2010-07-17T08:28:51Z</time>
<desc>lat.=55.818947, lon.=26.409573, Alt.=143.240356m. Speed=15.408000m/h.</desc>
<speed>4.280000</speed>
</trkpt>
<trkpt lat="55.818916" lon="26.409534">
<ele>143.416138</ele>
<time>2010-07-17T08:28:52Z</time>
<desc>lat.=55.818916, lon.=26.409534, Alt.=143.416138m. Speed=16.020000m/h.</desc>
<speed>4.450000</speed>
</trkpt>
<trkpt lat="55.818882" lon="26.409492">
<ele>143.291138</ele>
<time>2010-07-17T08:28:53Z</time>
<desc>lat.=55.818882, lon.=26.409492, Alt.=143.291138m. Speed=16.416000m/h.</desc>
<speed>4.560000</speed>
</trkpt>
<trkpt lat="55.818855" lon="26.409456">
<ele>143.607544</ele>
<time>2010-07-17T08:28:54Z</time>
<desc>lat.=55.818855, lon.=26.409456, Alt.=143.607544m. Speed=15.840000m/h.</desc>
<speed>4.400000</speed>
</trkpt>
<trkpt lat="55.818821" lon="26.409418">
<ele>144.638794</ele>
<time>2010-07-17T08:28:55Z</time>
<desc>lat.=55.818821, lon.=26.409418, Alt.=144.638794m. Speed=14.796000m/h.</desc>
<speed>4.110000</speed>
</trkpt>
<trkpt lat="55.818787" lon="26.409378">
<ele>144.974731</ele>
<time>2010-07-17T08:28:56Z</time>
<desc>lat.=55.818787, lon.=26.409378, Alt.=144.974731m. Speed=16.164000m/h.</desc>
<speed>4.490000</speed>
</trkpt>
<trkpt lat="55.818748" lon="26.409332">
<ele>145.318481</ele>
<time>2010-07-17T08:28:57Z</time>
<desc>lat.=55.818748, lon.=26.409332, Alt.=145.318481m. Speed=17.063999m/h.</desc>
<speed>4.740000</speed>
</trkpt>
<trkpt lat="55.818718" lon="26.409285">
<ele>145.033325</ele>
<time>2010-07-17T08:28:58Z</time>
<desc>lat.=55.818718, lon.=26.409285, Alt.=145.033325m. Speed=17.712000m/h.</desc>
<speed>4.920000</speed>
</trkpt>
<trkpt lat="55.818684" lon="26.409246">
<ele>144.869263</ele>
<time>2010-07-17T08:28:59Z</time>
<desc>lat.=55.818684, lon.=26.409246, Alt.=144.869263m. Speed=16.020000m/h.</desc>
<speed>4.450000</speed>
</trkpt>
<trkpt lat="55.818653" lon="26.409216">
<ele>145.099731</ele>
<time>2010-07-17T08:29:00Z</time>
<desc>lat.=55.818653, lon.=26.409216, Alt.=145.099731m. Speed=12.456000m/h.</desc>
<speed>3.460000</speed>
</trkpt>
<trkpt lat="55.818626" lon="26.409184">
<ele>146.244263</ele>
<time>2010-07-17T08:29:01Z</time>
<desc>lat.=55.818626, lon.=26.409184, Alt.=146.244263m. Speed=11.916000m/h.</desc>
<speed>3.310000</speed>
</trkpt>
<trkpt lat="55.818600" lon="26.409147">
<ele>146.572388</ele>
<time>2010-07-17T08:29:02Z</time>
<desc>lat.=55.818600, lon.=26.409147, Alt.=146.572388m. Speed=13.536000m/h.</desc>
<speed>3.760000</speed>
</trkpt>
<trkpt lat="55.818569" lon="26.409107">
<ele>146.291138</ele>
<time>2010-07-17T08:29:03Z</time>
<desc>lat.=55.818569, lon.=26.409107, Alt.=146.291138m. Speed=14.112000m/h.</desc>
<speed>3.920000</speed>
</trkpt>
<trkpt lat="55.818542" lon="26.409069">
<ele>146.017700</ele>
<time>2010-07-17T08:29:04Z</time>
<desc>lat.=55.818542, lon.=26.409069, Alt.=146.017700m. Speed=14.616000m/h.</desc>
<speed>4.060000</speed>
</trkpt>
<trkpt lat="55.818512" lon="26.409023">
<ele>146.111450</ele>
<time>2010-07-17T08:29:05Z</time>
<desc>lat.=55.818512, lon.=26.409023, Alt.=146.111450m. Speed=14.976000m/h.</desc>
<speed>4.160000</speed>
</trkpt>
<trkpt lat="55.818481" lon="26.408981">
<ele>146.443481</ele>
<time>2010-07-17T08:29:06Z</time>
<desc>lat.=55.818481, lon.=26.408981, Alt.=146.443481m. Speed=15.948000m/h.</desc>
<speed>4.430000</speed>
</trkpt>
<trkpt lat="55.818451" lon="26.408932">
<ele>146.498169</ele>
<time>2010-07-17T08:29:07Z</time>
<desc>lat.=55.818451, lon.=26.408932, Alt.=146.498169m. Speed=16.992001m/h.</desc>
<speed>4.720000</speed>
</trkpt>
<trkpt lat="55.818420" lon="26.408890">
<ele>147.060669</ele>
<time>2010-07-17T08:29:08Z</time>
<desc>lat.=55.818420, lon.=26.408890, Alt.=147.060669m. Speed=16.559999m/h.</desc>
<speed>4.600000</speed>
</trkpt>
<trkpt lat="55.818386" lon="26.408846">
<ele>147.361450</ele>
<time>2010-07-17T08:29:09Z</time>
<desc>lat.=55.818386, lon.=26.408846, Alt.=147.361450m. Speed=16.596001m/h.</desc>
<speed>4.610000</speed>
</trkpt>
<trkpt lat="55.818352" lon="26.408787">
<ele>148.216919</ele>
<time>2010-07-17T08:29:10Z</time>
<desc>lat.=55.818352, lon.=26.408787, Alt.=148.216919m. Speed=18.143999m/h.</desc>
<speed>5.040000</speed>
</trkpt>
<trkpt lat="55.818310" lon="26.408730">
<ele>148.338013</ele>
<time>2010-07-17T08:29:11Z</time>
<desc>lat.=55.818310, lon.=26.408730, Alt.=148.338013m. Speed=18.216000m/h.</desc>
<speed>5.060000</speed>
</trkpt>
<trkpt lat="55.818272" lon="26.408682">
<ele>148.681763</ele>
<time>2010-07-17T08:29:12Z</time>
<desc>lat.=55.818272, lon.=26.408682, Alt.=148.681763m. Speed=18.864000m/h.</desc>
<speed>5.240000</speed>
</trkpt>
<trkpt lat="55.818233" lon="26.408623">
<ele>148.775513</ele>
<time>2010-07-17T08:29:13Z</time>
<desc>lat.=55.818233, lon.=26.408623, Alt.=148.775513m. Speed=19.188000m/h.</desc>
<speed>5.330000</speed>
</trkpt>
<trkpt lat="55.818192" lon="26.408566">
<ele>148.713013</ele>
<time>2010-07-17T08:29:14Z</time>
<desc>lat.=55.818192, lon.=26.408566, Alt.=148.713013m. Speed=19.476000m/h.</desc>
<speed>5.410000</speed>
</trkpt>
<trkpt lat="55.818150" lon="26.408512">
<ele>148.943481</ele>
<time>2010-07-17T08:29:15Z</time>
<desc>lat.=55.818150, lon.=26.408512, Alt.=148.943481m. Speed=19.476000m/h.</desc>
<speed>5.410000</speed>
</trkpt>
<trkpt lat="55.818111" lon="26.408457">
<ele>149.568481</ele>
<time>2010-07-17T08:29:16Z</time>
<desc>lat.=55.818111, lon.=26.408457, Alt.=149.568481m. Speed=20.268000m/h.</desc>
<speed>5.630000</speed>
</trkpt>
<trkpt lat="55.818073" lon="26.408403">
<ele>150.076294</ele>
<time>2010-07-17T08:29:17Z</time>
<desc>lat.=55.818073, lon.=26.408403, Alt.=150.076294m. Speed=19.188000m/h.</desc>
<speed>5.330000</speed>
</trkpt>
<trkpt lat="55.818039" lon="26.408354">
<ele>150.673950</ele>
<time>2010-07-17T08:29:18Z</time>
<desc>lat.=55.818039, lon.=26.408354, Alt.=150.673950m. Speed=17.676001m/h.</desc>
<speed>4.910000</speed>
</trkpt>
<trkpt lat="55.818001" lon="26.408306">
<ele>151.084106</ele>
<time>2010-07-17T08:29:19Z</time>
<desc>lat.=55.818001, lon.=26.408306, Alt.=151.084106m. Speed=18.108000m/h.</desc>
<speed>5.030000</speed>
</trkpt>
<trkpt lat="55.817970" lon="26.408260">
<ele>151.880981</ele>
<time>2010-07-17T08:29:20Z</time>
<desc>lat.=55.817970, lon.=26.408260, Alt.=151.880981m. Speed=15.912000m/h.</desc>
<speed>4.420000</speed>
</trkpt>
<trkpt lat="55.817940" lon="26.408216">
<ele>152.345825</ele>
<time>2010-07-17T08:29:21Z</time>
<desc>lat.=55.817940, lon.=26.408216, Alt.=152.345825m. Speed=15.264000m/h.</desc>
<speed>4.240000</speed>
</trkpt>
<trkpt lat="55.817909" lon="26.408175">
<ele>152.502075</ele>
<time>2010-07-17T08:29:22Z</time>
<desc>lat.=55.817909, lon.=26.408175, Alt.=152.502075m. Speed=14.544000m/h.</desc>
<speed>4.040000</speed>
</trkpt>
<trkpt lat="55.817875" lon="26.408134">
<ele>151.838013</ele>
<time>2010-07-17T08:29:23Z</time>
<desc>lat.=55.817875, lon.=26.408134, Alt.=151.838013m. Speed=14.256000m/h.</desc>
<speed>3.960000</speed>
</trkpt>
<trkpt lat="55.817844" lon="26.408094">
<ele>151.849731</ele>
<time>2010-07-17T08:29:24Z</time>
<desc>lat.=55.817844, lon.=26.408094, Alt.=151.849731m. Speed=14.760000m/h.</desc>
<speed>4.100000</speed>
</trkpt>
<trkpt lat="55.817814" lon="26.408049">
<ele>152.654419</ele>
<time>2010-07-17T08:29:25Z</time>
<desc>lat.=55.817814, lon.=26.408049, Alt.=152.654419m. Speed=15.444000m/h.</desc>
<speed>4.290000</speed>
</trkpt>
<trkpt lat="55.817780" lon="26.408007">
<ele>153.388794</ele>
<time>2010-07-17T08:29:26Z</time>
<desc>lat.=55.817780, lon.=26.408007, Alt.=153.388794m. Speed=14.472000m/h.</desc>
<speed>4.020000</speed>
</trkpt>
<trkpt lat="55.817749" lon="26.407965">
<ele>153.978638</ele>
<time>2010-07-17T08:29:27Z</time>
<desc>lat.=55.817749, lon.=26.407965, Alt.=153.978638m. Speed=15.732000m/h.</desc>
<speed>4.370000</speed>
</trkpt>
<trkpt lat="55.817711" lon="26.407927">
<ele>156.056763</ele>
<time>2010-07-17T08:29:28Z</time>
<desc>lat.=55.817711, lon.=26.407927, Alt.=156.056763m. Speed=15.264000m/h.</desc>
<speed>4.240000</speed>
</trkpt>
<trkpt lat="55.817680" lon="26.407875">
<ele>156.591919</ele>
<time>2010-07-17T08:29:29Z</time>
<desc>lat.=55.817680, lon.=26.407875, Alt.=156.591919m. Speed=15.624000m/h.</desc>
<speed>4.340000</speed>
</trkpt>
<trkpt lat="55.817646" lon="26.407825">
<ele>156.638794</ele>
<time>2010-07-17T08:29:30Z</time>
<desc>lat.=55.817646, lon.=26.407825, Alt.=156.638794m. Speed=15.588000m/h.</desc>
<speed>4.330000</speed>
</trkpt>
<trkpt lat="55.817616" lon="26.407774">
<ele>155.943481</ele>
<time>2010-07-17T08:29:31Z</time>
<desc>lat.=55.817616, lon.=26.407774, Alt.=155.943481m. Speed=14.220000m/h.</desc>
<speed>3.950000</speed>
</trkpt>
<trkpt lat="55.817585" lon="26.407730">
<ele>155.591919</ele>
<time>2010-07-17T08:29:32Z</time>
<desc>lat.=55.817585, lon.=26.407730, Alt.=155.591919m. Speed=14.328000m/h.</desc>
<speed>3.980000</speed>
</trkpt>
<trkpt lat="55.817562" lon="26.407690">
<ele>156.248169</ele>
<time>2010-07-17T08:29:33Z</time>
<desc>lat.=55.817562, lon.=26.407690, Alt.=156.248169m. Speed=12.924000m/h.</desc>
<speed>3.590000</speed>
</trkpt>
<trkpt lat="55.817535" lon="26.407654">
<ele>156.181763</ele>
<time>2010-07-17T08:29:34Z</time>
<desc>lat.=55.817535, lon.=26.407654, Alt.=156.181763m. Speed=12.384000m/h.</desc>
<speed>3.440000</speed>
</trkpt>
<trkpt lat="55.817509" lon="26.407618">
<ele>156.115356</ele>
<time>2010-07-17T08:29:35Z</time>
<desc>lat.=55.817509, lon.=26.407618, Alt.=156.115356m. Speed=12.780000m/h.</desc>
<speed>3.550000</speed>
</trkpt>
<trkpt lat="55.817478" lon="26.407574">
<ele>156.181763</ele>
<time>2010-07-17T08:29:36Z</time>
<desc>lat.=55.817478, lon.=26.407574, Alt.=156.181763m. Speed=14.472000m/h.</desc>
<speed>4.020000</speed>
</trkpt>
<trkpt lat="55.817451" lon="26.407532">
<ele>156.037231</ele>
<time>2010-07-17T08:29:37Z</time>
<desc>lat.=55.817451, lon.=26.407532, Alt.=156.037231m. Speed=13.860000m/h.</desc>
<speed>3.850000</speed>
</trkpt>
<trkpt lat="55.817421" lon="26.407499">
<ele>155.705200</ele>
<time>2010-07-17T08:29:38Z</time>
<desc>lat.=55.817421, lon.=26.407499, Alt.=155.705200m. Speed=13.320000m/h.</desc>
<speed>3.700000</speed>
</trkpt>
<trkpt lat="55.817390" lon="26.407469">
<ele>155.568481</ele>
<time>2010-07-17T08:29:39Z</time>
<desc>lat.=55.817390, lon.=26.407469, Alt.=155.568481m. Speed=12.852000m/h.</desc>
<speed>3.570000</speed>
</trkpt>
<trkpt lat="55.817364" lon="26.407436">
<ele>155.611450</ele>
<time>2010-07-17T08:29:40Z</time>
<desc>lat.=55.817364, lon.=26.407436, Alt.=155.611450m. Speed=13.320000m/h.</desc>
<speed>3.700000</speed>
</trkpt>
<trkpt lat="55.817333" lon="26.407404">
<ele>155.291138</ele>
<time>2010-07-17T08:29:41Z</time>
<desc>lat.=55.817333, lon.=26.407404, Alt.=155.291138m. Speed=12.708000m/h.</desc>
<speed>3.530000</speed>
</trkpt>
<trkpt lat="55.817303" lon="26.407372">
<ele>154.908325</ele>
<time>2010-07-17T08:29:42Z</time>
<desc>lat.=55.817303, lon.=26.407372, Alt.=154.908325m. Speed=12.708000m/h.</desc>
<speed>3.530000</speed>
</trkpt>
<trkpt lat="55.817272" lon="26.407328">
<ele>154.908325</ele>
<time>2010-07-17T08:29:43Z</time>
<desc>lat.=55.817272, lon.=26.407328, Alt.=154.908325m. Speed=14.760000m/h.</desc>
<speed>4.100000</speed>
</trkpt>
<trkpt lat="55.817242" lon="26.407290">
<ele>155.091919</ele>
<time>2010-07-17T08:29:44Z</time>
<desc>lat.=55.817242, lon.=26.407290, Alt.=155.091919m. Speed=14.544000m/h.</desc>
<speed>4.040000</speed>
</trkpt>
<trkpt lat="55.817211" lon="26.407251">
<ele>154.291138</ele>
<time>2010-07-17T08:29:45Z</time>
<desc>lat.=55.817211, lon.=26.407251, Alt.=154.291138m. Speed=12.780000m/h.</desc>
<speed>3.550000</speed>
</trkpt>
<trkpt lat="55.817181" lon="26.407207">
<ele>154.591919</ele>
<time>2010-07-17T08:29:46Z</time>
<desc>lat.=55.817181, lon.=26.407207, Alt.=154.591919m. Speed=13.716000m/h.</desc>
<speed>3.810000</speed>
</trkpt>
<trkpt lat="55.817154" lon="26.407173">
<ele>154.728638</ele>
<time>2010-07-17T08:29:47Z</time>
<desc>lat.=55.817154, lon.=26.407173, Alt.=154.728638m. Speed=13.536000m/h.</desc>
<speed>3.760000</speed>
</trkpt>
<trkpt lat="55.817127" lon="26.407133">
<ele>155.177856</ele>
<time>2010-07-17T08:29:48Z</time>
<desc>lat.=55.817127, lon.=26.407133, Alt.=155.177856m. Speed=14.544000m/h.</desc>
<speed>4.040000</speed>
</trkpt>
<trkpt lat="55.817097" lon="26.407082">
<ele>154.755981</ele>
<time>2010-07-17T08:29:49Z</time>
<desc>lat.=55.817097, lon.=26.407082, Alt.=154.755981m. Speed=13.860000m/h.</desc>
<speed>3.850000</speed>
</trkpt>
<trkpt lat="55.817066" lon="26.407036">
<ele>154.287231</ele>
<time>2010-07-17T08:29:50Z</time>
<desc>lat.=55.817066, lon.=26.407036, Alt.=154.287231m. Speed=13.932000m/h.</desc>
<speed>3.870000</speed>
</trkpt>
<trkpt lat="55.817036" lon="26.406998">
<ele>153.127075</ele>
<time>2010-07-17T08:29:51Z</time>
<desc>lat.=55.817036, lon.=26.406998, Alt.=153.127075m. Speed=13.896000m/h.</desc>
<speed>3.860000</speed>
</trkpt>
<trkpt lat="55.817005" lon="26.406954">
<ele>152.056763</ele>
<time>2010-07-17T08:29:52Z</time>
<desc>lat.=55.817005, lon.=26.406954, Alt.=152.056763m. Speed=13.572000m/h.</desc>
<speed>3.770000</speed>
</trkpt>
<trkpt lat="55.816975" lon="26.406919">
<ele>152.021606</ele>
<time>2010-07-17T08:29:53Z</time>
<desc>lat.=55.816975, lon.=26.406919, Alt.=152.021606m. Speed=12.276000m/h.</desc>
<speed>3.410000</speed>
</trkpt>
<trkpt lat="55.816944" lon="26.406885">
<ele>152.267700</ele>
<time>2010-07-17T08:29:54Z</time>
<desc>lat.=55.816944, lon.=26.406885, Alt.=152.267700m. Speed=12.960000m/h.</desc>
<speed>3.600000</speed>
</trkpt>
<trkpt lat="55.816914" lon="26.406843">
<ele>151.966919</ele>
<time>2010-07-17T08:29:55Z</time>
<desc>lat.=55.816914, lon.=26.406843, Alt.=151.966919m. Speed=13.860000m/h.</desc>
<speed>3.850000</speed>
</trkpt>
<trkpt lat="55.816887" lon="26.406805">
<ele>152.029419</ele>
<time>2010-07-17T08:29:56Z</time>
<desc>lat.=55.816887, lon.=26.406805, Alt.=152.029419m. Speed=13.752000m/h.</desc>
<speed>3.820000</speed>
</trkpt>
<trkpt lat="55.816860" lon="26.406767">
<ele>151.818481</ele>
<time>2010-07-17T08:29:57Z</time>
<desc>lat.=55.816860, lon.=26.406767, Alt.=151.818481m. Speed=13.860000m/h.</desc>
<speed>3.850000</speed>
</trkpt>
<trkpt lat="55.816830" lon="26.406733">
<ele>151.482544</ele>
<time>2010-07-17T08:29:58Z</time>
<desc>lat.=55.816830, lon.=26.406733, Alt.=151.482544m. Speed=12.600000m/h.</desc>
<speed>3.500000</speed>
</trkpt>
<trkpt lat="55.816803" lon="26.406696">
<ele>151.798950</ele>
<time>2010-07-17T08:29:59Z</time>
<desc>lat.=55.816803, lon.=26.406696, Alt.=151.798950m. Speed=13.284000m/h.</desc>
<speed>3.690000</speed>
</trkpt>
<trkpt lat="55.816776" lon="26.406666">
<ele>152.373169</ele>
<time>2010-07-17T08:30:00Z</time>
<desc>lat.=55.816776, lon.=26.406666, Alt.=152.373169m. Speed=13.716000m/h.</desc>
<speed>3.810000</speed>
</trkpt>
<trkpt lat="55.816746" lon="26.406624">
<ele>153.103638</ele>
<time>2010-07-17T08:30:01Z</time>
<desc>lat.=55.816746, lon.=26.406624, Alt.=153.103638m. Speed=13.896000m/h.</desc>
<speed>3.860000</speed>
</trkpt>
<trkpt lat="55.816719" lon="26.406582">
<ele>153.666138</ele>
<time>2010-07-17T08:30:02Z</time>
<desc>lat.=55.816719, lon.=26.406582, Alt.=153.666138m. Speed=14.616000m/h.</desc>
<speed>4.060000</speed>
</trkpt>
<trkpt lat="55.816689" lon="26.406540">
<ele>154.009888</ele>
<time>2010-07-17T08:30:03Z</time>
<desc>lat.=55.816689, lon.=26.406540, Alt.=154.009888m. Speed=14.148000m/h.</desc>
<speed>3.930000</speed>
</trkpt>
<trkpt lat="55.816658" lon="26.406498">
<ele>154.224731</ele>
<time>2010-07-17T08:30:04Z</time>
<desc>lat.=55.816658, lon.=26.406498, Alt.=154.224731m. Speed=15.408000m/h.</desc>
<speed>4.280000</speed>
</trkpt>
<trkpt lat="55.816628" lon="26.406462">
<ele>154.357544</ele>
<time>2010-07-17T08:30:05Z</time>
<desc>lat.=55.816628, lon.=26.406462, Alt.=154.357544m. Speed=14.580000m/h.</desc>
<speed>4.050000</speed>
</trkpt>
<trkpt lat="55.816597" lon="26.406427">
<ele>154.322388</ele>
<time>2010-07-17T08:30:06Z</time>
<desc>lat.=55.816597, lon.=26.406427, Alt.=154.322388m. Speed=13.680000m/h.</desc>
<speed>3.800000</speed>
</trkpt>
<trkpt lat="55.816570" lon="26.406391">
<ele>155.459106</ele>
<time>2010-07-17T08:30:07Z</time>
<desc>lat.=55.816570, lon.=26.406391, Alt.=155.459106m. Speed=14.436000m/h.</desc>
<speed>4.010000</speed>
</trkpt>
<trkpt lat="55.816544" lon="26.406355">
<ele>155.775513</ele>
<time>2010-07-17T08:30:08Z</time>
<desc>lat.=55.816544, lon.=26.406355, Alt.=155.775513m. Speed=13.500000m/h.</desc>
<speed>3.750000</speed>
</trkpt>
<trkpt lat="55.816517" lon="26.406326">
<ele>156.283325</ele>
<time>2010-07-17T08:30:09Z</time>
<desc>lat.=55.816517, lon.=26.406326, Alt.=156.283325m. Speed=12.060000m/h.</desc>
<speed>3.350000</speed>
</trkpt>
<trkpt lat="55.816486" lon="26.406288">
<ele>156.361450</ele>
<time>2010-07-17T08:30:10Z</time>
<desc>lat.=55.816486, lon.=26.406288, Alt.=156.361450m. Speed=13.212000m/h.</desc>
<speed>3.670000</speed>
</trkpt>
<trkpt lat="55.816460" lon="26.406252">
<ele>156.310669</ele>
<time>2010-07-17T08:30:11Z</time>
<desc>lat.=55.816460, lon.=26.406252, Alt.=156.310669m. Speed=12.492000m/h.</desc>
<speed>3.470000</speed>
</trkpt>
<trkpt lat="55.816437" lon="26.406212">
<ele>156.830200</ele>
<time>2010-07-17T08:30:12Z</time>
<desc>lat.=55.816437, lon.=26.406212, Alt.=156.830200m. Speed=13.140000m/h.</desc>
<speed>3.650000</speed>
</trkpt>
<trkpt lat="55.816410" lon="26.406174">
<ele>157.130981</ele>
<time>2010-07-17T08:30:13Z</time>
<desc>lat.=55.816410, lon.=26.406174, Alt.=157.130981m. Speed=12.564000m/h.</desc>
<speed>3.490000</speed>
</trkpt>
<trkpt lat="55.816383" lon="26.406137">
<ele>157.427856</ele>
<time>2010-07-17T08:30:14Z</time>
<desc>lat.=55.816383, lon.=26.406137, Alt.=157.427856m. Speed=13.536000m/h.</desc>
<speed>3.760000</speed>
</trkpt>
<trkpt lat="55.816357" lon="26.406103">
<ele>157.802856</ele>
<time>2010-07-17T08:30:15Z</time>
<desc>lat.=55.816357, lon.=26.406103, Alt.=157.802856m. Speed=12.672000m/h.</desc>
<speed>3.520000</speed>
</trkpt>
<trkpt lat="55.816326" lon="26.406073">
<ele>156.888794</ele>
<time>2010-07-17T08:30:16Z</time>
<desc>lat.=55.816326, lon.=26.406073, Alt.=156.888794m. Speed=14.148000m/h.</desc>
<speed>3.930000</speed>
</trkpt>
<trkpt lat="55.816299" lon="26.406040">
<ele>156.572388</ele>
<time>2010-07-17T08:30:17Z</time>
<desc>lat.=55.816299, lon.=26.406040, Alt.=156.572388m. Speed=13.644000m/h.</desc>
<speed>3.790000</speed>
</trkpt>
<trkpt lat="55.816273" lon="26.405994">
<ele>157.150513</ele>
<time>2010-07-17T08:30:18Z</time>
<desc>lat.=55.816273, lon.=26.405994, Alt.=157.150513m. Speed=13.716000m/h.</desc>
<speed>3.810000</speed>
</trkpt>
<trkpt lat="55.816242" lon="26.405960">
<ele>156.963013</ele>
<time>2010-07-17T08:30:19Z</time>
<desc>lat.=55.816242, lon.=26.405960, Alt.=156.963013m. Speed=14.148000m/h.</desc>
<speed>3.930000</speed>
</trkpt>
<trkpt lat="55.816212" lon="26.405924">
<ele>157.560669</ele>
<time>2010-07-17T08:30:20Z</time>
<desc>lat.=55.816212, lon.=26.405924, Alt.=157.560669m. Speed=14.328000m/h.</desc>
<speed>3.980000</speed>
</trkpt>
<trkpt lat="55.816177" lon="26.405893">
<ele>158.041138</ele>
<time>2010-07-17T08:30:21Z</time>
<desc>lat.=55.816177, lon.=26.405893, Alt.=158.041138m. Speed=12.672000m/h.</desc>
<speed>3.520000</speed>
</trkpt>
<trkpt lat="55.816154" lon="26.405855">
<ele>158.181763</ele>
<time>2010-07-17T08:30:22Z</time>
<desc>lat.=55.816154, lon.=26.405855, Alt.=158.181763m. Speed=11.880000m/h.</desc>
<speed>3.300000</speed>
</trkpt>
<trkpt lat="55.816124" lon="26.405807">
<ele>157.927856</ele>
<time>2010-07-17T08:30:23Z</time>
<desc>lat.=55.816124, lon.=26.405807, Alt.=157.927856m. Speed=13.212000m/h.</desc>
<speed>3.670000</speed>
</trkpt>
<trkpt lat="55.816101" lon="26.405766">
<ele>158.697388</ele>
<time>2010-07-17T08:30:24Z</time>
<desc>lat.=55.816101, lon.=26.405766, Alt.=158.697388m. Speed=13.500000m/h.</desc>
<speed>3.750000</speed>
</trkpt>
<trkpt lat="55.816074" lon="26.405725">
<ele>158.588013</ele>
<time>2010-07-17T08:30:25Z</time>
<desc>lat.=55.816074, lon.=26.405725, Alt.=158.588013m. Speed=13.140000m/h.</desc>
<speed>3.650000</speed>
</trkpt>
<trkpt lat="55.816040" lon="26.405687">
<ele>158.795044</ele>
<time>2010-07-17T08:30:26Z</time>
<desc>lat.=55.816040, lon.=26.405687, Alt.=158.795044m. Speed=15.048000m/h.</desc>
<speed>4.180000</speed>
</trkpt>
<trkpt lat="55.816006" lon="26.405640">
<ele>158.650513</ele>
<time>2010-07-17T08:30:27Z</time>
<desc>lat.=55.816006, lon.=26.405640, Alt.=158.650513m. Speed=15.516000m/h.</desc>
<speed>4.310000</speed>
</trkpt>
<trkpt lat="55.815964" lon="26.405581">
<ele>158.658325</ele>
<time>2010-07-17T08:30:28Z</time>
<desc>lat.=55.815964, lon.=26.405581, Alt.=158.658325m. Speed=19.799999m/h.</desc>
<speed>5.500000</speed>
</trkpt>
<trkpt lat="55.815918" lon="26.405510">
<ele>156.791138</ele>
<time>2010-07-17T08:30:29Z</time>
<desc>lat.=55.815918, lon.=26.405510, Alt.=156.791138m. Speed=20.232000m/h.</desc>
<speed>5.620000</speed>
</trkpt>
<trkpt lat="55.815872" lon="26.405449">
<ele>156.275513</ele>
<time>2010-07-17T08:30:30Z</time>
<desc>lat.=55.815872, lon.=26.405449, Alt.=156.275513m. Speed=22.068001m/h.</desc>
<speed>6.130000</speed>
</trkpt>
<trkpt lat="55.815819" lon="26.405371">
<ele>155.955200</ele>
<time>2010-07-17T08:30:31Z</time>
<desc>lat.=55.815819, lon.=26.405371, Alt.=155.955200m. Speed=24.264000m/h.</desc>
<speed>6.740000</speed>
</trkpt>
<trkpt lat="55.815765" lon="26.405298">
<ele>155.670044</ele>
<time>2010-07-17T08:30:32Z</time>
<desc>lat.=55.815765, lon.=26.405298, Alt.=155.670044m. Speed=24.587999m/h.</desc>
<speed>6.830000</speed>
</trkpt>
<trkpt lat="55.815712" lon="26.405226">
<ele>155.037231</ele>
<time>2010-07-17T08:30:33Z</time>
<desc>lat.=55.815712, lon.=26.405226, Alt.=155.037231m. Speed=26.351999m/h.</desc>
<speed>7.320000</speed>
</trkpt>
<trkpt lat="55.815659" lon="26.405149">
<ele>154.373169</ele>
<time>2010-07-17T08:30:34Z</time>
<desc>lat.=55.815659, lon.=26.405149, Alt.=154.373169m. Speed=28.296000m/h.</desc>
<speed>7.860000</speed>
</trkpt>
<trkpt lat="55.815598" lon="26.405056">
<ele>153.857544</ele>
<time>2010-07-17T08:30:35Z</time>
<desc>lat.=55.815598, lon.=26.405056, Alt.=153.857544m. Speed=30.348000m/h.</desc>
<speed>8.430000</speed>
</trkpt>
<trkpt lat="55.815533" lon="26.404974">
<ele>153.334106</ele>
<time>2010-07-17T08:30:36Z</time>
<desc>lat.=55.815533, lon.=26.404974, Alt.=153.334106m. Speed=31.500000m/h.</desc>
<speed>8.750000</speed>
</trkpt>
<trkpt lat="55.815464" lon="26.404888">
<ele>152.779419</ele>
<time>2010-07-17T08:30:37Z</time>
<desc>lat.=55.815464, lon.=26.404888, Alt.=152.779419m. Speed=32.759998m/h.</desc>
<speed>9.100000</speed>
</trkpt>
<trkpt lat="55.815395" lon="26.404802">
<ele>151.849731</ele>
<time>2010-07-17T08:30:38Z</time>
<desc>lat.=55.815395, lon.=26.404802, Alt.=151.849731m. Speed=34.020000m/h.</desc>
<speed>9.450000</speed>
</trkpt>
<trkpt lat="55.815323" lon="26.404711">
<ele>151.353638</ele>
<time>2010-07-17T08:30:39Z</time>
<desc>lat.=55.815323, lon.=26.404711, Alt.=151.353638m. Speed=34.380001m/h.</desc>
<speed>9.550000</speed>
</trkpt>
<trkpt lat="55.815258" lon="26.404615">
<ele>150.998169</ele>
<time>2010-07-17T08:30:40Z</time>
<desc>lat.=55.815258, lon.=26.404615, Alt.=150.998169m. Speed=33.480000m/h.</desc>
<speed>9.300000</speed>
</trkpt>
<trkpt lat="55.815193" lon="26.404524">
<ele>151.029419</ele>
<time>2010-07-17T08:30:41Z</time>
<desc>lat.=55.815193, lon.=26.404524, Alt.=151.029419m. Speed=32.436001m/h.</desc>
<speed>9.010000</speed>
</trkpt>
<trkpt lat="55.815132" lon="26.404432">
<ele>150.685669</ele>
<time>2010-07-17T08:30:42Z</time>
<desc>lat.=55.815132, lon.=26.404432, Alt.=150.685669m. Speed=30.672001m/h.</desc>
<speed>8.520000</speed>
</trkpt>
<trkpt lat="55.815071" lon="26.404339">
<ele>150.611450</ele>
<time>2010-07-17T08:30:43Z</time>
<desc>lat.=55.815071, lon.=26.404339, Alt.=150.611450m. Speed=33.048000m/h.</desc>
<speed>9.180000</speed>
</trkpt>
<trkpt lat="55.814999" lon="26.404238">
<ele>149.943481</ele>
<time>2010-07-17T08:30:44Z</time>
<desc>lat.=55.814999, lon.=26.404238, Alt.=149.943481m. Speed=34.200001m/h.</desc>
<speed>9.500000</speed>
</trkpt>
<trkpt lat="55.814941" lon="26.404146">
<ele>149.576294</ele>
<time>2010-07-17T08:30:45Z</time>
<desc>lat.=55.814941, lon.=26.404146, Alt.=149.576294m. Speed=34.380001m/h.</desc>
<speed>9.550000</speed>
</trkpt>
<trkpt lat="55.814869" lon="26.404053">
<ele>149.279419</ele>
<time>2010-07-17T08:30:46Z</time>
<desc>lat.=55.814869, lon.=26.404053, Alt.=149.279419m. Speed=34.956001m/h.</desc>
<speed>9.710000</speed>
</trkpt>
<trkpt lat="55.814793" lon="26.403961">
<ele>149.201294</ele>
<time>2010-07-17T08:30:47Z</time>
<desc>lat.=55.814793, lon.=26.403961, Alt.=149.201294m. Speed=34.344002m/h.</desc>
<speed>9.540000</speed>
</trkpt>
<trkpt lat="55.814720" lon="26.403872">
<ele>148.974731</ele>
<time>2010-07-17T08:30:48Z</time>
<desc>lat.=55.814720, lon.=26.403872, Alt.=148.974731m. Speed=33.480000m/h.</desc>
<speed>9.300000</speed>
</trkpt>
<trkpt lat="55.814644" lon="26.403778">
<ele>148.630981</ele>
<time>2010-07-17T08:30:49Z</time>
<desc>lat.=55.814644, lon.=26.403778, Alt.=148.630981m. Speed=33.911999m/h.</desc>
<speed>9.420000</speed>
</trkpt>
<trkpt lat="55.814575" lon="26.403688">
<ele>148.353638</ele>
<time>2010-07-17T08:30:50Z</time>
<desc>lat.=55.814575, lon.=26.403688, Alt.=148.353638m. Speed=33.299999m/h.</desc>
<speed>9.250000</speed>
</trkpt>
<trkpt lat="55.814507" lon="26.403595">
<ele>148.084106</ele>
<time>2010-07-17T08:30:51Z</time>
<desc>lat.=55.814507, lon.=26.403595, Alt.=148.084106m. Speed=33.731998m/h.</desc>
<speed>9.370000</speed>
</trkpt>
<trkpt lat="55.814442" lon="26.403496">
<ele>148.623169</ele>
<time>2010-07-17T08:30:52Z</time>
<desc>lat.=55.814442, lon.=26.403496, Alt.=148.623169m. Speed=33.515999m/h.</desc>
<speed>9.310000</speed>
</trkpt>
<trkpt lat="55.814381" lon="26.403399">
<ele>148.830200</ele>
<time>2010-07-17T08:30:53Z</time>
<desc>lat.=55.814381, lon.=26.403399, Alt.=148.830200m. Speed=33.660000m/h.</desc>
<speed>9.350000</speed>
</trkpt>
<trkpt lat="55.814304" lon="26.403299">
<ele>148.232544</ele>
<time>2010-07-17T08:30:54Z</time>
<desc>lat.=55.814304, lon.=26.403299, Alt.=148.232544m. Speed=33.228001m/h.</desc>
<speed>9.230000</speed>
</trkpt>
<trkpt lat="55.814236" lon="26.403202">
<ele>147.588013</ele>
<time>2010-07-17T08:30:55Z</time>
<desc>lat.=55.814236, lon.=26.403202, Alt.=147.588013m. Speed=33.084000m/h.</desc>
<speed>9.190000</speed>
</trkpt>
<trkpt lat="55.814171" lon="26.403118">
<ele>146.947388</ele>
<time>2010-07-17T08:30:56Z</time>
<desc>lat.=55.814171, lon.=26.403118, Alt.=146.947388m. Speed=31.896000m/h.</desc>
<speed>8.860000</speed>
</trkpt>
<trkpt lat="55.814106" lon="26.403034">
<ele>146.670044</ele>
<time>2010-07-17T08:30:57Z</time>
<desc>lat.=55.814106, lon.=26.403034, Alt.=146.670044m. Speed=32.759998m/h.</desc>
<speed>9.100000</speed>
</trkpt>
<trkpt lat="55.814045" lon="26.402954">
<ele>146.369263</ele>
<time>2010-07-17T08:30:58Z</time>
<desc>lat.=55.814045, lon.=26.402954, Alt.=146.369263m. Speed=30.708000m/h.</desc>
<speed>8.530000</speed>
</trkpt>
<trkpt lat="55.813980" lon="26.402872">
<ele>146.091919</ele>
<time>2010-07-17T08:30:59Z</time>
<desc>lat.=55.813980, lon.=26.402872, Alt.=146.091919m. Speed=30.888000m/h.</desc>
<speed>8.580000</speed>
</trkpt>
<trkpt lat="55.813915" lon="26.402779">
<ele>145.935669</ele>
<time>2010-07-17T08:31:00Z</time>
<desc>lat.=55.813915, lon.=26.402779, Alt.=145.935669m. Speed=31.247999m/h.</desc>
<speed>8.680000</speed>
</trkpt>
<trkpt lat="55.813843" lon="26.402687">
<ele>146.033325</ele>
<time>2010-07-17T08:31:01Z</time>
<desc>lat.=55.813843, lon.=26.402687, Alt.=146.033325m. Speed=32.903999m/h.</desc>
<speed>9.140000</speed>
</trkpt>
<trkpt lat="55.813778" lon="26.402601">
<ele>146.267700</ele>
<time>2010-07-17T08:31:02Z</time>
<desc>lat.=55.813778, lon.=26.402601, Alt.=146.267700m. Speed=33.299999m/h.</desc>
<speed>9.250000</speed>
</trkpt>
<trkpt lat="55.813713" lon="26.402512">
<ele>146.459106</ele>
<time>2010-07-17T08:31:03Z</time>
<desc>lat.=55.813713, lon.=26.402512, Alt.=146.459106m. Speed=32.688000m/h.</desc>
<speed>9.080000</speed>
</trkpt>
<trkpt lat="55.813648" lon="26.402418">
<ele>146.283325</ele>
<time>2010-07-17T08:31:04Z</time>
<desc>lat.=55.813648, lon.=26.402418, Alt.=146.283325m. Speed=32.400002m/h.</desc>
<speed>9.000000</speed>
</trkpt>
<trkpt lat="55.813576" lon="26.402317">
<ele>145.923950</ele>
<time>2010-07-17T08:31:05Z</time>
<desc>lat.=55.813576, lon.=26.402317, Alt.=145.923950m. Speed=31.860001m/h.</desc>
<speed>8.850000</speed>
</trkpt>
<trkpt lat="55.813511" lon="26.402233">
<ele>145.880981</ele>
<time>2010-07-17T08:31:06Z</time>
<desc>lat.=55.813511, lon.=26.402233, Alt.=145.880981m. Speed=30.240000m/h.</desc>
<speed>8.400000</speed>
</trkpt>
<trkpt lat="55.813450" lon="26.402147">
<ele>145.966919</ele>
<time>2010-07-17T08:31:07Z</time>
<desc>lat.=55.813450, lon.=26.402147, Alt.=145.966919m. Speed=29.448000m/h.</desc>
<speed>8.180000</speed>
</trkpt>
<trkpt lat="55.813389" lon="26.402065">
<ele>146.033325</ele>
<time>2010-07-17T08:31:08Z</time>
<desc>lat.=55.813389, lon.=26.402065, Alt.=146.033325m. Speed=28.260000m/h.</desc>
<speed>7.850000</speed>
</trkpt>
<trkpt lat="55.813339" lon="26.401995">
<ele>146.056763</ele>
<time>2010-07-17T08:31:09Z</time>
<desc>lat.=55.813339, lon.=26.401995, Alt.=146.056763m. Speed=28.836000m/h.</desc>
<speed>8.010000</speed>
</trkpt>
<trkpt lat="55.813286" lon="26.401918">
<ele>145.986450</ele>
<time>2010-07-17T08:31:10Z</time>
<desc>lat.=55.813286, lon.=26.401918, Alt.=145.986450m. Speed=27.468000m/h.</desc>
<speed>7.630000</speed>
</trkpt>
<trkpt lat="55.813225" lon="26.401844">
<ele>145.877075</ele>
<time>2010-07-17T08:31:11Z</time>
<desc>lat.=55.813225, lon.=26.401844, Alt.=145.877075m. Speed=27.431999m/h.</desc>
<speed>7.620000</speed>
</trkpt>
<trkpt lat="55.813175" lon="26.401775">
<ele>145.748169</ele>
<time>2010-07-17T08:31:12Z</time>
<desc>lat.=55.813175, lon.=26.401775, Alt.=145.748169m. Speed=27.612000m/h.</desc>
<speed>7.670000</speed>
</trkpt>
<trkpt lat="55.813118" lon="26.401707">
<ele>146.088013</ele>
<time>2010-07-17T08:31:13Z</time>
<desc>lat.=55.813118, lon.=26.401707, Alt.=146.088013m. Speed=25.452000m/h.</desc>
<speed>7.070000</speed>
</trkpt>
<trkpt lat="55.813072" lon="26.401644">
<ele>146.345825</ele>
<time>2010-07-17T08:31:14Z</time>
<desc>lat.=55.813072, lon.=26.401644, Alt.=146.345825m. Speed=23.940001m/h.</desc>
<speed>6.650000</speed>
</trkpt>
<trkpt lat="55.813023" lon="26.401577">
<ele>146.787231</ele>
<time>2010-07-17T08:31:15Z</time>
<desc>lat.=55.813023, lon.=26.401577, Alt.=146.787231m. Speed=23.472000m/h.</desc>
<speed>6.520000</speed>
</trkpt>
<trkpt lat="55.812973" lon="26.401522">
<ele>146.236450</ele>
<time>2010-07-17T08:31:16Z</time>
<desc>lat.=55.812973, lon.=26.401522, Alt.=146.236450m. Speed=23.615999m/h.</desc>
<speed>6.560000</speed>
</trkpt>
<trkpt lat="55.812920" lon="26.401455">
<ele>145.697388</ele>
<time>2010-07-17T08:31:17Z</time>
<desc>lat.=55.812920, lon.=26.401455, Alt.=145.697388m. Speed=23.652000m/h.</desc>
<speed>6.570000</speed>
</trkpt>
<trkpt lat="55.812870" lon="26.401396">
<ele>145.408325</ele>
<time>2010-07-17T08:31:18Z</time>
<desc>lat.=55.812870, lon.=26.401396, Alt.=145.408325m. Speed=21.096001m/h.</desc>
<speed>5.860000</speed>
</trkpt>
<trkpt lat="55.812828" lon="26.401339">
<ele>145.306763</ele>
<time>2010-07-17T08:31:19Z</time>
<desc>lat.=55.812828, lon.=26.401339, Alt.=145.306763m. Speed=20.340000m/h.</desc>
<speed>5.650000</speed>
</trkpt>
<trkpt lat="55.812786" lon="26.401287">
<ele>145.259888</ele>
<time>2010-07-17T08:31:20Z</time>
<desc>lat.=55.812786, lon.=26.401287, Alt.=145.259888m. Speed=20.664000m/h.</desc>
<speed>5.740000</speed>
</trkpt>
<trkpt lat="55.812748" lon="26.401234">
<ele>145.365356</ele>
<time>2010-07-17T08:31:21Z</time>
<desc>lat.=55.812748, lon.=26.401234, Alt.=145.365356m. Speed=20.232000m/h.</desc>
<speed>5.620000</speed>
</trkpt>
<trkpt lat="55.812702" lon="26.401182">
<ele>144.869263</ele>
<time>2010-07-17T08:31:22Z</time>
<desc>lat.=55.812702, lon.=26.401182, Alt.=144.869263m. Speed=20.087999m/h.</desc>
<speed>5.580000</speed>
</trkpt>
<trkpt lat="55.812660" lon="26.401129">
<ele>144.623169</ele>
<time>2010-07-17T08:31:23Z</time>
<desc>lat.=55.812660, lon.=26.401129, Alt.=144.623169m. Speed=19.836000m/h.</desc>
<speed>5.510000</speed>
</trkpt>
<trkpt lat="55.812618" lon="26.401075">
<ele>144.502075</ele>
<time>2010-07-17T08:31:24Z</time>
<desc>lat.=55.812618, lon.=26.401075, Alt.=144.502075m. Speed=19.403999m/h.</desc>
<speed>5.390000</speed>
</trkpt>
<trkpt lat="55.812576" lon="26.401020">
<ele>144.287231</ele>
<time>2010-07-17T08:31:25Z</time>
<desc>lat.=55.812576, lon.=26.401020, Alt.=144.287231m. Speed=21.096001m/h.</desc>
<speed>5.860000</speed>
</trkpt>
<trkpt lat="55.812527" lon="26.400953">
<ele>144.255981</ele>
<time>2010-07-17T08:31:26Z</time>
<desc>lat.=55.812527, lon.=26.400953, Alt.=144.255981m. Speed=21.780001m/h.</desc>
<speed>6.050000</speed>
</trkpt>
<trkpt lat="55.812481" lon="26.400888">
<ele>144.447388</ele>
<time>2010-07-17T08:31:27Z</time>
<desc>lat.=55.812481, lon.=26.400888, Alt.=144.447388m. Speed=21.959999m/h.</desc>
<speed>6.100000</speed>
</trkpt>
<trkpt lat="55.812439" lon="26.400826">
<ele>144.947388</ele>
<time>2010-07-17T08:31:28Z</time>
<desc>lat.=55.812439, lon.=26.400826, Alt.=144.947388m. Speed=21.275999m/h.</desc>
<speed>5.910000</speed>
</trkpt>
<trkpt lat="55.812393" lon="26.400764">
<ele>144.591919</ele>
<time>2010-07-17T08:31:29Z</time>
<desc>lat.=55.812393, lon.=26.400764, Alt.=144.591919m. Speed=20.664000m/h.</desc>
<speed>5.740000</speed>
</trkpt>
<trkpt lat="55.812359" lon="26.400709">
<ele>145.162231</ele>
<time>2010-07-17T08:31:30Z</time>
<desc>lat.=55.812359, lon.=26.400709, Alt.=145.162231m. Speed=18.900000m/h.</desc>
<speed>5.250000</speed>
</trkpt>
<trkpt lat="55.812317" lon="26.400656">
<ele>145.568481</ele>
<time>2010-07-17T08:31:31Z</time>
<desc>lat.=55.812317, lon.=26.400656, Alt.=145.568481m. Speed=19.296000m/h.</desc>
<speed>5.360000</speed>
</trkpt>
<trkpt lat="55.812279" lon="26.400597">
<ele>146.154419</ele>
<time>2010-07-17T08:31:32Z</time>
<desc>lat.=55.812279, lon.=26.400597, Alt.=146.154419m. Speed=18.216000m/h.</desc>
<speed>5.060000</speed>
</trkpt>
<trkpt lat="55.812244" lon="26.400543">
<ele>145.568481</ele>
<time>2010-07-17T08:31:33Z</time>
<desc>lat.=55.812244, lon.=26.400543, Alt.=145.568481m. Speed=15.624000m/h.</desc>
<speed>4.340000</speed>
</trkpt>
<trkpt lat="55.812210" lon="26.400499">
<ele>145.677856</ele>
<time>2010-07-17T08:31:34Z</time>
<desc>lat.=55.812210, lon.=26.400499, Alt.=145.677856m. Speed=16.704000m/h.</desc>
<speed>4.640000</speed>
</trkpt>
<trkpt lat="55.812172" lon="26.400459">
<ele>145.205200</ele>
<time>2010-07-17T08:31:35Z</time>
<desc>lat.=55.812172, lon.=26.400459, Alt.=145.205200m. Speed=16.775999m/h.</desc>
<speed>4.660000</speed>
</trkpt>
<trkpt lat="55.812134" lon="26.400417">
<ele>145.177856</ele>
<time>2010-07-17T08:31:36Z</time>
<desc>lat.=55.812134, lon.=26.400417, Alt.=145.177856m. Speed=18.035999m/h.</desc>
<speed>5.010000</speed>
</trkpt>
<trkpt lat="55.812099" lon="26.400373">
<ele>145.556763</ele>
<time>2010-07-17T08:31:37Z</time>
<desc>lat.=55.812099, lon.=26.400373, Alt.=145.556763m. Speed=18.000000m/h.</desc>
<speed>5.000000</speed>
</trkpt>
<trkpt lat="55.812061" lon="26.400330">
<ele>146.056763</ele>
<time>2010-07-17T08:31:38Z</time>
<desc>lat.=55.812061, lon.=26.400330, Alt.=146.056763m. Speed=17.856001m/h.</desc>
<speed>4.960000</speed>
</trkpt>
<trkpt lat="55.812027" lon="26.400282">
<ele>146.537231</ele>
<time>2010-07-17T08:31:39Z</time>
<desc>lat.=55.812027, lon.=26.400282, Alt.=146.537231m. Speed=18.108000m/h.</desc>
<speed>5.030000</speed>
</trkpt>
<trkpt lat="55.811985" lon="26.400229">
<ele>146.693481</ele>
<time>2010-07-17T08:31:40Z</time>
<desc>lat.=55.811985, lon.=26.400229, Alt.=146.693481m. Speed=20.195999m/h.</desc>
<speed>5.610000</speed>
</trkpt>
<trkpt lat="55.811939" lon="26.400169">
<ele>148.193481</ele>
<time>2010-07-17T08:31:41Z</time>
<desc>lat.=55.811939, lon.=26.400169, Alt.=148.193481m. Speed=21.672001m/h.</desc>
<speed>6.020000</speed>
</trkpt>
<trkpt lat="55.811897" lon="26.400105">
<ele>149.740356</ele>
<time>2010-07-17T08:31:42Z</time>
<desc>lat.=55.811897, lon.=26.400105, Alt.=149.740356m. Speed=22.212000m/h.</desc>
<speed>6.170000</speed>
</trkpt>
<trkpt lat="55.811852" lon="26.400038">
<ele>150.963013</ele>
<time>2010-07-17T08:31:43Z</time>
<desc>lat.=55.811852, lon.=26.400038, Alt.=150.963013m. Speed=24.372000m/h.</desc>
<speed>6.770000</speed>
</trkpt>
<trkpt lat="55.811798" lon="26.399960">
<ele>150.318481</ele>
<time>2010-07-17T08:31:44Z</time>
<desc>lat.=55.811798, lon.=26.399960, Alt.=150.318481m. Speed=25.164000m/h.</desc>
<speed>6.990000</speed>
</trkpt>
<trkpt lat="55.811745" lon="26.399889">
<ele>150.783325</ele>
<time>2010-07-17T08:31:45Z</time>
<desc>lat.=55.811745, lon.=26.399889, Alt.=150.783325m. Speed=26.351999m/h.</desc>
<speed>7.320000</speed>
</trkpt>
<trkpt lat="55.811691" lon="26.399815">
<ele>149.923950</ele>
<time>2010-07-17T08:31:46Z</time>
<desc>lat.=55.811691, lon.=26.399815, Alt.=149.923950m. Speed=26.496000m/h.</desc>
<speed>7.360000</speed>
</trkpt>
<trkpt lat="55.811649" lon="26.399754">
<ele>152.623169</ele>
<time>2010-07-17T08:31:47Z</time>
<desc>lat.=55.811649, lon.=26.399754, Alt.=152.623169m. Speed=25.308001m/h.</desc>
<speed>7.030000</speed>
</trkpt>
<trkpt lat="55.811596" lon="26.399675">
<ele>153.056763</ele>
<time>2010-07-17T08:31:48Z</time>
<desc>lat.=55.811596, lon.=26.399675, Alt.=153.056763m. Speed=26.784000m/h.</desc>
<speed>7.440000</speed>
</trkpt>
<trkpt lat="55.811539" lon="26.399597">
<ele>152.966919</ele>
<time>2010-07-17T08:31:49Z</time>
<desc>lat.=55.811539, lon.=26.399597, Alt.=152.966919m. Speed=27.180000m/h.</desc>
<speed>7.550000</speed>
</trkpt>
<trkpt lat="55.811481" lon="26.399525">
<ele>153.173950</ele>
<time>2010-07-17T08:31:50Z</time>
<desc>lat.=55.811481, lon.=26.399525, Alt.=153.173950m. Speed=27.396000m/h.</desc>
<speed>7.610000</speed>
</trkpt>
<trkpt lat="55.811424" lon="26.399450">
<ele>152.763794</ele>
<time>2010-07-17T08:31:51Z</time>
<desc>lat.=55.811424, lon.=26.399450, Alt.=152.763794m. Speed=27.468000m/h.</desc>
<speed>7.630000</speed>
</trkpt>
<trkpt lat="55.811356" lon="26.399374">
<ele>151.439575</ele>
<time>2010-07-17T08:31:52Z</time>
<desc>lat.=55.811356, lon.=26.399374, Alt.=151.439575m. Speed=28.836000m/h.</desc>
<speed>8.010000</speed>
</trkpt>
<trkpt lat="55.811295" lon="26.399290">
<ele>151.283325</ele>
<time>2010-07-17T08:31:53Z</time>
<desc>lat.=55.811295, lon.=26.399290, Alt.=151.283325m. Speed=28.872000m/h.</desc>
<speed>8.020000</speed>
</trkpt>
<trkpt lat="55.811237" lon="26.399214">
<ele>150.775513</ele>
<time>2010-07-17T08:31:54Z</time>
<desc>lat.=55.811237, lon.=26.399214, Alt.=150.775513m. Speed=28.764000m/h.</desc>
<speed>7.990000</speed>
</trkpt>
<trkpt lat="55.811176" lon="26.399132">
<ele>150.681763</ele>
<time>2010-07-17T08:31:55Z</time>
<desc>lat.=55.811176, lon.=26.399132, Alt.=150.681763m. Speed=29.591999m/h.</desc>
<speed>8.220000</speed>
</trkpt>
<trkpt lat="55.811119" lon="26.399050">
<ele>150.662231</ele>
<time>2010-07-17T08:31:56Z</time>
<desc>lat.=55.811119, lon.=26.399050, Alt.=150.662231m. Speed=29.988001m/h.</desc>
<speed>8.330000</speed>
</trkpt>
<trkpt lat="55.811058" lon="26.398968">
<ele>150.533325</ele>
<time>2010-07-17T08:31:57Z</time>
<desc>lat.=55.811058, lon.=26.398968, Alt.=150.533325m. Speed=29.340000m/h.</desc>
<speed>8.150000</speed>
</trkpt>
<trkpt lat="55.810997" lon="26.398888">
<ele>149.787231</ele>
<time>2010-07-17T08:31:58Z</time>
<desc>lat.=55.810997, lon.=26.398888, Alt.=149.787231m. Speed=29.664000m/h.</desc>
<speed>8.240000</speed>
</trkpt>
<trkpt lat="55.810940" lon="26.398808">
<ele>149.548950</ele>
<time>2010-07-17T08:31:59Z</time>
<desc>lat.=55.810940, lon.=26.398808, Alt.=149.548950m. Speed=29.736000m/h.</desc>
<speed>8.260000</speed>
</trkpt>
<trkpt lat="55.810879" lon="26.398724">
<ele>148.896606</ele>
<time>2010-07-17T08:32:00Z</time>
<desc>lat.=55.810879, lon.=26.398724, Alt.=148.896606m. Speed=29.988001m/h.</desc>
<speed>8.330000</speed>
</trkpt>
<trkpt lat="55.810814" lon="26.398642">
<ele>148.443481</ele>
<time>2010-07-17T08:32:01Z</time>
<desc>lat.=55.810814, lon.=26.398642, Alt.=148.443481m. Speed=29.736000m/h.</desc>
<speed>8.260000</speed>
</trkpt>
<trkpt lat="55.810753" lon="26.398565">
<ele>147.654419</ele>
<time>2010-07-17T08:32:02Z</time>
<desc>lat.=55.810753, lon.=26.398565, Alt.=147.654419m. Speed=30.024000m/h.</desc>
<speed>8.340000</speed>
</trkpt>
<trkpt lat="55.810692" lon="26.398479">
<ele>146.646606</ele>
<time>2010-07-17T08:32:03Z</time>
<desc>lat.=55.810692, lon.=26.398479, Alt.=146.646606m. Speed=29.268000m/h.</desc>
<speed>8.130000</speed>
</trkpt>
<trkpt lat="55.810631" lon="26.398403">
<ele>146.322388</ele>
<time>2010-07-17T08:32:04Z</time>
<desc>lat.=55.810631, lon.=26.398403, Alt.=146.322388m. Speed=29.052000m/h.</desc>
<speed>8.070000</speed>
</trkpt>
<trkpt lat="55.810570" lon="26.398323">
<ele>146.197388</ele>
<time>2010-07-17T08:32:05Z</time>
<desc>lat.=55.810570, lon.=26.398323, Alt.=146.197388m. Speed=29.664000m/h.</desc>
<speed>8.240000</speed>
</trkpt>
<trkpt lat="55.810513" lon="26.398249">
<ele>146.037231</ele>
<time>2010-07-17T08:32:06Z</time>
<desc>lat.=55.810513, lon.=26.398249, Alt.=146.037231m. Speed=29.160000m/h.</desc>
<speed>8.100000</speed>
</trkpt>
<trkpt lat="55.810455" lon="26.398170">
<ele>145.966919</ele>
<time>2010-07-17T08:32:07Z</time>
<desc>lat.=55.810455, lon.=26.398170, Alt.=145.966919m. Speed=27.000000m/h.</desc>
<speed>7.500000</speed>
</trkpt>
<trkpt lat="55.810402" lon="26.398104">
<ele>145.845825</ele>
<time>2010-07-17T08:32:08Z</time>
<desc>lat.=55.810402, lon.=26.398104, Alt.=145.845825m. Speed=26.964001m/h.</desc>
<speed>7.490000</speed>
</trkpt>
<trkpt lat="55.810349" lon="26.398033">
<ele>145.650513</ele>
<time>2010-07-17T08:32:09Z</time>
<desc>lat.=55.810349, lon.=26.398033, Alt.=145.650513m. Speed=26.784000m/h.</desc>
<speed>7.440000</speed>
</trkpt>
<trkpt lat="55.810295" lon="26.397964">
<ele>145.744263</ele>
<time>2010-07-17T08:32:10Z</time>
<desc>lat.=55.810295, lon.=26.397964, Alt.=145.744263m. Speed=24.408001m/h.</desc>
<speed>6.780000</speed>
</trkpt>
<trkpt lat="55.810249" lon="26.397898">
<ele>146.146606</ele>
<time>2010-07-17T08:32:11Z</time>
<desc>lat.=55.810249, lon.=26.397898, Alt.=146.146606m. Speed=25.488001m/h.</desc>
<speed>7.080000</speed>
</trkpt>
<trkpt lat="55.810204" lon="26.397833">
<ele>146.740356</ele>
<time>2010-07-17T08:32:12Z</time>
<desc>lat.=55.810204, lon.=26.397833, Alt.=146.740356m. Speed=24.299999m/h.</desc>
<speed>6.750000</speed>
</trkpt>
<trkpt lat="55.810154" lon="26.397770">
<ele>147.013794</ele>
<time>2010-07-17T08:32:13Z</time>
<desc>lat.=55.810154, lon.=26.397770, Alt.=147.013794m. Speed=24.336000m/h.</desc>
<speed>6.760000</speed>
</trkpt>
<trkpt lat="55.810108" lon="26.397709">
<ele>147.064575</ele>
<time>2010-07-17T08:32:14Z</time>
<desc>lat.=55.810108, lon.=26.397709, Alt.=147.064575m. Speed=22.968000m/h.</desc>
<speed>6.380000</speed>
</trkpt>
<trkpt lat="55.810062" lon="26.397648">
<ele>147.080200</ele>
<time>2010-07-17T08:32:15Z</time>
<desc>lat.=55.810062, lon.=26.397648, Alt.=147.080200m. Speed=23.400000m/h.</desc>
<speed>6.500000</speed>
</trkpt>
<trkpt lat="55.810017" lon="26.397583">
<ele>147.181763</ele>
<time>2010-07-17T08:32:16Z</time>
<desc>lat.=55.810017, lon.=26.397583, Alt.=147.181763m. Speed=22.320000m/h.</desc>
<speed>6.200000</speed>
</trkpt>
<trkpt lat="55.809971" lon="26.397518">
<ele>147.072388</ele>
<time>2010-07-17T08:32:17Z</time>
<desc>lat.=55.809971, lon.=26.397518, Alt.=147.072388m. Speed=22.139999m/h.</desc>
<speed>6.150000</speed>
</trkpt>
<trkpt lat="55.809929" lon="26.397455">
<ele>147.088013</ele>
<time>2010-07-17T08:32:18Z</time>
<desc>lat.=55.809929, lon.=26.397455, Alt.=147.088013m. Speed=21.743999m/h.</desc>
<speed>6.040000</speed>
</trkpt>
<trkpt lat="55.809883" lon="26.397390">
<ele>147.166138</ele>
<time>2010-07-17T08:32:19Z</time>
<desc>lat.=55.809883, lon.=26.397390, Alt.=147.166138m. Speed=22.716000m/h.</desc>
<speed>6.310000</speed>
</trkpt>
<trkpt lat="55.809837" lon="26.397324">
<ele>146.970825</ele>
<time>2010-07-17T08:32:20Z</time>
<desc>lat.=55.809837, lon.=26.397324, Alt.=146.970825m. Speed=22.608000m/h.</desc>
<speed>6.280000</speed>
</trkpt>
<trkpt lat="55.809795" lon="26.397263">
<ele>146.947388</ele>
<time>2010-07-17T08:32:21Z</time>
<desc>lat.=55.809795, lon.=26.397263, Alt.=146.947388m. Speed=19.476000m/h.</desc>
<speed>5.410000</speed>
</trkpt>
<trkpt lat="55.809757" lon="26.397203">
<ele>146.662231</ele>
<time>2010-07-17T08:32:22Z</time>
<desc>lat.=55.809757, lon.=26.397203, Alt.=146.662231m. Speed=19.799999m/h.</desc>
<speed>5.500000</speed>
</trkpt>
<trkpt lat="55.809719" lon="26.397154">
<ele>146.271606</ele>
<time>2010-07-17T08:32:23Z</time>
<desc>lat.=55.809719, lon.=26.397154, Alt.=146.271606m. Speed=19.476000m/h.</desc>
<speed>5.410000</speed>
</trkpt>
<trkpt lat="55.809677" lon="26.397102">
<ele>146.177856</ele>
<time>2010-07-17T08:32:24Z</time>
<desc>lat.=55.809677, lon.=26.397102, Alt.=146.177856m. Speed=19.728001m/h.</desc>
<speed>5.480000</speed>
</trkpt>
<trkpt lat="55.809635" lon="26.397049">
<ele>145.619263</ele>
<time>2010-07-17T08:32:25Z</time>
<desc>lat.=55.809635, lon.=26.397049, Alt.=145.619263m. Speed=19.799999m/h.</desc>
<speed>5.500000</speed>
</trkpt>
<trkpt lat="55.809593" lon="26.396996">
<ele>146.259888</ele>
<time>2010-07-17T08:32:26Z</time>
<desc>lat.=55.809593, lon.=26.396996, Alt.=146.259888m. Speed=19.368000m/h.</desc>
<speed>5.380000</speed>
</trkpt>
<trkpt lat="55.809559" lon="26.396940">
<ele>146.802856</ele>
<time>2010-07-17T08:32:27Z</time>
<desc>lat.=55.809559, lon.=26.396940, Alt.=146.802856m. Speed=20.087999m/h.</desc>
<speed>5.580000</speed>
</trkpt>
<trkpt lat="55.809521" lon="26.396885">
<ele>146.978638</ele>
<time>2010-07-17T08:32:28Z</time>
<desc>lat.=55.809521, lon.=26.396885, Alt.=146.978638m. Speed=19.296000m/h.</desc>
<speed>5.360000</speed>
</trkpt>
<trkpt lat="55.809483" lon="26.396832">
<ele>147.088013</ele>
<time>2010-07-17T08:32:29Z</time>
<desc>lat.=55.809483, lon.=26.396832, Alt.=147.088013m. Speed=19.224001m/h.</desc>
<speed>5.340000</speed>
</trkpt>
<trkpt lat="55.809441" lon="26.396778">
<ele>147.185669</ele>
<time>2010-07-17T08:32:30Z</time>
<desc>lat.=55.809441, lon.=26.396778, Alt.=147.185669m. Speed=19.908001m/h.</desc>
<speed>5.530000</speed>
</trkpt>
<trkpt lat="55.809402" lon="26.396729">
<ele>147.646606</ele>
<time>2010-07-17T08:32:31Z</time>
<desc>lat.=55.809402, lon.=26.396729, Alt.=147.646606m. Speed=19.368000m/h.</desc>
<speed>5.380000</speed>
</trkpt>
<trkpt lat="55.809364" lon="26.396673">
<ele>147.912231</ele>
<time>2010-07-17T08:32:32Z</time>
<desc>lat.=55.809364, lon.=26.396673, Alt.=147.912231m. Speed=20.124001m/h.</desc>
<speed>5.590000</speed>
</trkpt>
<trkpt lat="55.809315" lon="26.396614">
<ele>147.779419</ele>
<time>2010-07-17T08:32:33Z</time>
<desc>lat.=55.809315, lon.=26.396614, Alt.=147.779419m. Speed=20.087999m/h.</desc>
<speed>5.580000</speed>
</trkpt>
<trkpt lat="55.809273" lon="26.396555">
<ele>147.834106</ele>
<time>2010-07-17T08:32:34Z</time>
<desc>lat.=55.809273, lon.=26.396555, Alt.=147.834106m. Speed=21.600000m/h.</desc>
<speed>6.000000</speed>
</trkpt>
<trkpt lat="55.809231" lon="26.396488">
<ele>147.029419</ele>
<time>2010-07-17T08:32:35Z</time>
<desc>lat.=55.809231, lon.=26.396488, Alt.=147.029419m. Speed=21.708000m/h.</desc>
<speed>6.030000</speed>
</trkpt>
<trkpt lat="55.809189" lon="26.396425">
<ele>146.810669</ele>
<time>2010-07-17T08:32:36Z</time>
<desc>lat.=55.809189, lon.=26.396425, Alt.=146.810669m. Speed=21.059999m/h.</desc>
<speed>5.850000</speed>
</trkpt>
<trkpt lat="55.809147" lon="26.396374">
<ele>146.662231</ele>
<time>2010-07-17T08:32:37Z</time>
<desc>lat.=55.809147, lon.=26.396374, Alt.=146.662231m. Speed=20.052000m/h.</desc>
<speed>5.570000</speed>
</trkpt>
<trkpt lat="55.809109" lon="26.396318">
<ele>146.572388</ele>
<time>2010-07-17T08:32:38Z</time>
<desc>lat.=55.809109, lon.=26.396318, Alt.=146.572388m. Speed=20.771999m/h.</desc>
<speed>5.770000</speed>
</trkpt>
<trkpt lat="55.809067" lon="26.396261">
<ele>146.814575</ele>
<time>2010-07-17T08:32:39Z</time>
<desc>lat.=55.809067, lon.=26.396261, Alt.=146.814575m. Speed=20.628000m/h.</desc>
<speed>5.730000</speed>
</trkpt>
<trkpt lat="55.809025" lon="26.396208">
<ele>147.052856</ele>
<time>2010-07-17T08:32:40Z</time>
<desc>lat.=55.809025, lon.=26.396208, Alt.=147.052856m. Speed=20.483999m/h.</desc>
<speed>5.690000</speed>
</trkpt>
<trkpt lat="55.808987" lon="26.396147">
<ele>146.900513</ele>
<time>2010-07-17T08:32:41Z</time>
<desc>lat.=55.808987, lon.=26.396147, Alt.=146.900513m. Speed=21.275999m/h.</desc>
<speed>5.910000</speed>
</trkpt>
<trkpt lat="55.808945" lon="26.396093">
<ele>147.072388</ele>
<time>2010-07-17T08:32:42Z</time>
<desc>lat.=55.808945, lon.=26.396093, Alt.=147.072388m. Speed=20.304001m/h.</desc>
<speed>5.640000</speed>
</trkpt>
<trkpt lat="55.808907" lon="26.396044">
<ele>146.634888</ele>
<time>2010-07-17T08:32:43Z</time>
<desc>lat.=55.808907, lon.=26.396044, Alt.=146.634888m. Speed=20.412001m/h.</desc>
<speed>5.670000</speed>
</trkpt>
<trkpt lat="55.808868" lon="26.395990">
<ele>146.845825</ele>
<time>2010-07-17T08:32:44Z</time>
<desc>lat.=55.808868, lon.=26.395990, Alt.=146.845825m. Speed=20.520000m/h.</desc>
<speed>5.700000</speed>
</trkpt>
<trkpt lat="55.808826" lon="26.395943">
<ele>146.896606</ele>
<time>2010-07-17T08:32:45Z</time>
<desc>lat.=55.808826, lon.=26.395943, Alt.=146.896606m. Speed=18.540001m/h.</desc>
<speed>5.150000</speed>
</trkpt>
<trkpt lat="55.808788" lon="26.395895">
<ele>147.236450</ele>
<time>2010-07-17T08:32:46Z</time>
<desc>lat.=55.808788, lon.=26.395895, Alt.=147.236450m. Speed=18.792000m/h.</desc>
<speed>5.220000</speed>
</trkpt>
<trkpt lat="55.808754" lon="26.395855">
<ele>147.017700</ele>
<time>2010-07-17T08:32:47Z</time>
<desc>lat.=55.808754, lon.=26.395855, Alt.=147.017700m. Speed=18.180000m/h.</desc>
<speed>5.050000</speed>
</trkpt>
<trkpt lat="55.808720" lon="26.395805">
<ele>147.240356</ele>
<time>2010-07-17T08:32:48Z</time>
<desc>lat.=55.808720, lon.=26.395805, Alt.=147.240356m. Speed=18.216000m/h.</desc>
<speed>5.060000</speed>
</trkpt>
<trkpt lat="55.808681" lon="26.395756">
<ele>147.517700</ele>
<time>2010-07-17T08:32:49Z</time>
<desc>lat.=55.808681, lon.=26.395756, Alt.=147.517700m. Speed=20.520000m/h.</desc>
<speed>5.700000</speed>
</trkpt>
<trkpt lat="55.808640" lon="26.395702">
<ele>147.478638</ele>
<time>2010-07-17T08:32:50Z</time>
<desc>lat.=55.808640, lon.=26.395702, Alt.=147.478638m. Speed=19.656000m/h.</desc>
<speed>5.460000</speed>
</trkpt>
<trkpt lat="55.808601" lon="26.395653">
<ele>147.638794</ele>
<time>2010-07-17T08:32:51Z</time>
<desc>lat.=55.808601, lon.=26.395653, Alt.=147.638794m. Speed=19.584000m/h.</desc>
<speed>5.440000</speed>
</trkpt>
<trkpt lat="55.808559" lon="26.395611">
<ele>146.771606</ele>
<time>2010-07-17T08:32:52Z</time>
<desc>lat.=55.808559, lon.=26.395611, Alt.=146.771606m. Speed=18.576000m/h.</desc>
<speed>5.160000</speed>
</trkpt>
<trkpt lat="55.808514" lon="26.395557">
<ele>146.463013</ele>
<time>2010-07-17T08:32:53Z</time>
<desc>lat.=55.808514, lon.=26.395557, Alt.=146.463013m. Speed=20.268000m/h.</desc>
<speed>5.630000</speed>
</trkpt>
<trkpt lat="55.808464" lon="26.395502">
<ele>145.955200</ele>
<time>2010-07-17T08:32:54Z</time>
<desc>lat.=55.808464, lon.=26.395502, Alt.=145.955200m. Speed=21.600000m/h.</desc>
<speed>6.000000</speed>
</trkpt>
<trkpt lat="55.808422" lon="26.395452">
<ele>145.642700</ele>
<time>2010-07-17T08:32:55Z</time>
<desc>lat.=55.808422, lon.=26.395452, Alt.=145.642700m. Speed=21.167999m/h.</desc>
<speed>5.880000</speed>
</trkpt>
<trkpt lat="55.808380" lon="26.395380">
<ele>145.716919</ele>
<time>2010-07-17T08:32:56Z</time>
<desc>lat.=55.808380, lon.=26.395380, Alt.=145.716919m. Speed=23.184000m/h.</desc>
<speed>6.440000</speed>
</trkpt>
<trkpt lat="55.808334" lon="26.395306">
<ele>145.451294</ele>
<time>2010-07-17T08:32:57Z</time>
<desc>lat.=55.808334, lon.=26.395306, Alt.=145.451294m. Speed=25.020000m/h.</desc>
<speed>6.950000</speed>
</trkpt>
<trkpt lat="55.808281" lon="26.395241">
<ele>145.490356</ele>
<time>2010-07-17T08:32:58Z</time>
<desc>lat.=55.808281, lon.=26.395241, Alt.=145.490356m. Speed=25.452000m/h.</desc>
<speed>7.070000</speed>
</trkpt>
<trkpt lat="55.808231" lon="26.395168">
<ele>144.994263</ele>
<time>2010-07-17T08:32:59Z</time>
<desc>lat.=55.808231, lon.=26.395168, Alt.=144.994263m. Speed=25.596001m/h.</desc>
<speed>7.110000</speed>
</trkpt>
<trkpt lat="55.808178" lon="26.395088">
<ele>144.209106</ele>
<time>2010-07-17T08:33:00Z</time>
<desc>lat.=55.808178, lon.=26.395088, Alt.=144.209106m. Speed=26.676001m/h.</desc>
<speed>7.410000</speed>
</trkpt>
<trkpt lat="55.808128" lon="26.395020">
<ele>144.236450</ele>
<time>2010-07-17T08:33:01Z</time>
<desc>lat.=55.808128, lon.=26.395020, Alt.=144.236450m. Speed=25.344000m/h.</desc>
<speed>7.040000</speed>
</trkpt>
<trkpt lat="55.808079" lon="26.394945">
<ele>143.963013</ele>
<time>2010-07-17T08:33:02Z</time>
<desc>lat.=55.808079, lon.=26.394945, Alt.=143.963013m. Speed=26.063999m/h.</desc>
<speed>7.240000</speed>
</trkpt>
<trkpt lat="55.808025" lon="26.394871">
<ele>143.795044</ele>
<time>2010-07-17T08:33:03Z</time>
<desc>lat.=55.808025, lon.=26.394871, Alt.=143.795044m. Speed=25.812000m/h.</desc>
<speed>7.170000</speed>
</trkpt>
<trkpt lat="55.807972" lon="26.394800">
<ele>143.584106</ele>
<time>2010-07-17T08:33:04Z</time>
<desc>lat.=55.807972, lon.=26.394800, Alt.=143.584106m. Speed=25.379999m/h.</desc>
<speed>7.050000</speed>
</trkpt>
<trkpt lat="55.807915" lon="26.394730">
<ele>144.142700</ele>
<time>2010-07-17T08:33:05Z</time>
<desc>lat.=55.807915, lon.=26.394730, Alt.=144.142700m. Speed=25.236000m/h.</desc>
<speed>7.010000</speed>
</trkpt>
<trkpt lat="55.807854" lon="26.394651">
<ele>144.474731</ele>
<time>2010-07-17T08:33:06Z</time>
<desc>lat.=55.807854, lon.=26.394651, Alt.=144.474731m. Speed=25.992001m/h.</desc>
<speed>7.220000</speed>
</trkpt>
<trkpt lat="55.807804" lon="26.394575">
<ele>144.627075</ele>
<time>2010-07-17T08:33:07Z</time>
<desc>lat.=55.807804, lon.=26.394575, Alt.=144.627075m. Speed=25.344000m/h.</desc>
<speed>7.040000</speed>
</trkpt>
<trkpt lat="55.807751" lon="26.394512">
<ele>144.560669</ele>
<time>2010-07-17T08:33:08Z</time>
<desc>lat.=55.807751, lon.=26.394512, Alt.=144.560669m. Speed=24.983999m/h.</desc>
<speed>6.940000</speed>
</trkpt>
<trkpt lat="55.807693" lon="26.394444">
<ele>144.838013</ele>
<time>2010-07-17T08:33:09Z</time>
<desc>lat.=55.807693, lon.=26.394444, Alt.=144.838013m. Speed=24.948000m/h.</desc>
<speed>6.930000</speed>
</trkpt>
<trkpt lat="55.807640" lon="26.394377">
<ele>144.564575</ele>
<time>2010-07-17T08:33:10Z</time>
<desc>lat.=55.807640, lon.=26.394377, Alt.=144.564575m. Speed=26.172001m/h.</desc>
<speed>7.270000</speed>
</trkpt>
<trkpt lat="55.807579" lon="26.394299">
<ele>143.841919</ele>
<time>2010-07-17T08:33:11Z</time>
<desc>lat.=55.807579, lon.=26.394299, Alt.=143.841919m. Speed=26.712000m/h.</desc>
<speed>7.420000</speed>
</trkpt>
<trkpt lat="55.807526" lon="26.394230">
<ele>144.041138</ele>
<time>2010-07-17T08:33:12Z</time>
<desc>lat.=55.807526, lon.=26.394230, Alt.=144.041138m. Speed=25.992001m/h.</desc>
<speed>7.220000</speed>
</trkpt>
<trkpt lat="55.807480" lon="26.394161">
<ele>144.634888</ele>
<time>2010-07-17T08:33:13Z</time>
<desc>lat.=55.807480, lon.=26.394161, Alt.=144.634888m. Speed=25.632000m/h.</desc>
<speed>7.120000</speed>
</trkpt>
<trkpt lat="55.807426" lon="26.394091">
<ele>143.974731</ele>
<time>2010-07-17T08:33:14Z</time>
<desc>lat.=55.807426, lon.=26.394091, Alt.=143.974731m. Speed=26.459999m/h.</desc>
<speed>7.350000</speed>
</trkpt>
<trkpt lat="55.807377" lon="26.394022">
<ele>143.255981</ele>
<time>2010-07-17T08:33:15Z</time>
<desc>lat.=55.807377, lon.=26.394022, Alt.=143.255981m. Speed=27.000000m/h.</desc>
<speed>7.500000</speed>
</trkpt>
<trkpt lat="55.807320" lon="26.393946">
<ele>142.826294</ele>
<time>2010-07-17T08:33:16Z</time>
<desc>lat.=55.807320, lon.=26.393946, Alt.=142.826294m. Speed=27.827999m/h.</desc>
<speed>7.730000</speed>
</trkpt>
<trkpt lat="55.807259" lon="26.393873">
<ele>141.877075</ele>
<time>2010-07-17T08:33:17Z</time>
<desc>lat.=55.807259, lon.=26.393873, Alt.=141.877075m. Speed=25.271999m/h.</desc>
<speed>7.020000</speed>
</trkpt>
<trkpt lat="55.807201" lon="26.393808">
<ele>142.115356</ele>
<time>2010-07-17T08:33:18Z</time>
<desc>lat.=55.807201, lon.=26.393808, Alt.=142.115356m. Speed=26.280001m/h.</desc>
<speed>7.300000</speed>
</trkpt>
<trkpt lat="55.807144" lon="26.393726">
<ele>141.943481</ele>
<time>2010-07-17T08:33:19Z</time>
<desc>lat.=55.807144, lon.=26.393726, Alt.=141.943481m. Speed=26.856001m/h.</desc>
<speed>7.460000</speed>
</trkpt>
<trkpt lat="55.807091" lon="26.393648">
<ele>141.779419</ele>
<time>2010-07-17T08:33:20Z</time>
<desc>lat.=55.807091, lon.=26.393648, Alt.=141.779419m. Speed=26.172001m/h.</desc>
<speed>7.270000</speed>
</trkpt>
<trkpt lat="55.807018" lon="26.393581">
<ele>140.701294</ele>
<time>2010-07-17T08:33:21Z</time>
<desc>lat.=55.807018, lon.=26.393581, Alt.=140.701294m. Speed=26.927999m/h.</desc>
<speed>7.480000</speed>
</trkpt>
<trkpt lat="55.806965" lon="26.393509">
<ele>141.291138</ele>
<time>2010-07-17T08:33:22Z</time>
<desc>lat.=55.806965, lon.=26.393509, Alt.=141.291138m. Speed=26.424000m/h.</desc>
<speed>7.340000</speed>
</trkpt>
<trkpt lat="55.806911" lon="26.393440">
<ele>141.556763</ele>
<time>2010-07-17T08:33:23Z</time>
<desc>lat.=55.806911, lon.=26.393440, Alt.=141.556763m. Speed=26.892000m/h.</desc>
<speed>7.470000</speed>
</trkpt>
<trkpt lat="55.806858" lon="26.393366">
<ele>141.173950</ele>
<time>2010-07-17T08:33:24Z</time>
<desc>lat.=55.806858, lon.=26.393366, Alt.=141.173950m. Speed=27.396000m/h.</desc>
<speed>7.610000</speed>
</trkpt>
<trkpt lat="55.806801" lon="26.393295">
<ele>140.916138</ele>
<time>2010-07-17T08:33:25Z</time>
<desc>lat.=55.806801, lon.=26.393295, Alt.=140.916138m. Speed=26.208000m/h.</desc>
<speed>7.280000</speed>
</trkpt>
<trkpt lat="55.806747" lon="26.393234">
<ele>140.806763</ele>
<time>2010-07-17T08:33:26Z</time>
<desc>lat.=55.806747, lon.=26.393234, Alt.=140.806763m. Speed=24.768000m/h.</desc>
<speed>6.880000</speed>
</trkpt>
<trkpt lat="55.806698" lon="26.393173">
<ele>140.435669</ele>
<time>2010-07-17T08:33:27Z</time>
<desc>lat.=55.806698, lon.=26.393173, Alt.=140.435669m. Speed=24.948000m/h.</desc>
<speed>6.930000</speed>
</trkpt>
<trkpt lat="55.806648" lon="26.393097">
<ele>140.267700</ele>
<time>2010-07-17T08:33:28Z</time>
<desc>lat.=55.806648, lon.=26.393097, Alt.=140.267700m. Speed=25.164000m/h.</desc>
<speed>6.990000</speed>
</trkpt>
<trkpt lat="55.806595" lon="26.393023">
<ele>139.927856</ele>
<time>2010-07-17T08:33:29Z</time>
<desc>lat.=55.806595, lon.=26.393023, Alt.=139.927856m. Speed=25.020000m/h.</desc>
<speed>6.950000</speed>
</trkpt>
<trkpt lat="55.806545" lon="26.392954">
<ele>139.841919</ele>
<time>2010-07-17T08:33:30Z</time>
<desc>lat.=55.806545, lon.=26.392954, Alt.=139.841919m. Speed=24.480000m/h.</desc>
<speed>6.800000</speed>
</trkpt>
<trkpt lat="55.806492" lon="26.392879">
<ele>140.170044</ele>
<time>2010-07-17T08:33:31Z</time>
<desc>lat.=55.806492, lon.=26.392879, Alt.=140.170044m. Speed=27.035999m/h.</desc>
<speed>7.510000</speed>
</trkpt>
<trkpt lat="55.806442" lon="26.392801">
<ele>140.209106</ele>
<time>2010-07-17T08:33:32Z</time>
<desc>lat.=55.806442, lon.=26.392801, Alt.=140.209106m. Speed=27.000000m/h.</desc>
<speed>7.500000</speed>
</trkpt>
<trkpt lat="55.806389" lon="26.392729">
<ele>140.310669</ele>
<time>2010-07-17T08:33:33Z</time>
<desc>lat.=55.806389, lon.=26.392729, Alt.=140.310669m. Speed=26.100000m/h.</desc>
<speed>7.250000</speed>
</trkpt>
<trkpt lat="55.806332" lon="26.392656">
<ele>139.884888</ele>
<time>2010-07-17T08:33:34Z</time>
<desc>lat.=55.806332, lon.=26.392656, Alt.=139.884888m. Speed=27.072001m/h.</desc>
<speed>7.520000</speed>
</trkpt>
<trkpt lat="55.806274" lon="26.392588">
<ele>139.088013</ele>
<time>2010-07-17T08:33:35Z</time>
<desc>lat.=55.806274, lon.=26.392588, Alt.=139.088013m. Speed=25.955999m/h.</desc>
<speed>7.210000</speed>
</trkpt>
<trkpt lat="55.806221" lon="26.392515">
<ele>138.900513</ele>
<time>2010-07-17T08:33:36Z</time>
<desc>lat.=55.806221, lon.=26.392515, Alt.=138.900513m. Speed=26.712000m/h.</desc>
<speed>7.420000</speed>
</trkpt>
<trkpt lat="55.806164" lon="26.392445">
<ele>138.345825</ele>
<time>2010-07-17T08:33:37Z</time>
<desc>lat.=55.806164, lon.=26.392445, Alt.=138.345825m. Speed=26.351999m/h.</desc>
<speed>7.320000</speed>
</trkpt>
<trkpt lat="55.806114" lon="26.392366">
<ele>139.005981</ele>
<time>2010-07-17T08:33:38Z</time>
<desc>lat.=55.806114, lon.=26.392366, Alt.=139.005981m. Speed=25.740000m/h.</desc>
<speed>7.150000</speed>
</trkpt>
<trkpt lat="55.806065" lon="26.392300">
<ele>139.002075</ele>
<time>2010-07-17T08:33:39Z</time>
<desc>lat.=55.806065, lon.=26.392300, Alt.=139.002075m. Speed=25.308001m/h.</desc>
<speed>7.030000</speed>
</trkpt>
<trkpt lat="55.806015" lon="26.392239">
<ele>138.783325</ele>
<time>2010-07-17T08:33:40Z</time>
<desc>lat.=55.806015, lon.=26.392239, Alt.=138.783325m. Speed=23.832001m/h.</desc>
<speed>6.620000</speed>
</trkpt>
<trkpt lat="55.805965" lon="26.392181">
<ele>138.744263</ele>
<time>2010-07-17T08:33:41Z</time>
<desc>lat.=55.805965, lon.=26.392181, Alt.=138.744263m. Speed=24.516001m/h.</desc>
<speed>6.810000</speed>
</trkpt>
<trkpt lat="55.805920" lon="26.392122">
<ele>138.435669</ele>
<time>2010-07-17T08:33:42Z</time>
<desc>lat.=55.805920, lon.=26.392122, Alt.=138.435669m. Speed=25.524000m/h.</desc>
<speed>7.090000</speed>
</trkpt>
<trkpt lat="55.805866" lon="26.392057">
<ele>138.267700</ele>
<time>2010-07-17T08:33:43Z</time>
<desc>lat.=55.805866, lon.=26.392057, Alt.=138.267700m. Speed=26.136000m/h.</desc>
<speed>7.260000</speed>
</trkpt>
<trkpt lat="55.805817" lon="26.391975">
<ele>139.197388</ele>
<time>2010-07-17T08:33:44Z</time>
<desc>lat.=55.805817, lon.=26.391975, Alt.=139.197388m. Speed=25.812000m/h.</desc>
<speed>7.170000</speed>
</trkpt>
<trkpt lat="55.805767" lon="26.391907">
<ele>139.728638</ele>
<time>2010-07-17T08:33:45Z</time>
<desc>lat.=55.805767, lon.=26.391907, Alt.=139.728638m. Speed=24.120001m/h.</desc>
<speed>6.700000</speed>
</trkpt>
<trkpt lat="55.805725" lon="26.391840">
<ele>140.560669</ele>
<time>2010-07-17T08:33:46Z</time>
<desc>lat.=55.805725, lon.=26.391840, Alt.=140.560669m. Speed=23.364000m/h.</desc>
<speed>6.490000</speed>
</trkpt>
<trkpt lat="55.805679" lon="26.391779">
<ele>141.408325</ele>
<time>2010-07-17T08:33:47Z</time>
<desc>lat.=55.805679, lon.=26.391779, Alt.=141.408325m. Speed=22.176001m/h.</desc>
<speed>6.160000</speed>
</trkpt>
<trkpt lat="55.805634" lon="26.391716">
<ele>141.943481</ele>
<time>2010-07-17T08:33:48Z</time>
<desc>lat.=55.805634, lon.=26.391716, Alt.=141.943481m. Speed=24.444000m/h.</desc>
<speed>6.790000</speed>
</trkpt>
<trkpt lat="55.805584" lon="26.391644">
<ele>142.259888</ele>
<time>2010-07-17T08:33:49Z</time>
<desc>lat.=55.805584, lon.=26.391644, Alt.=142.259888m. Speed=24.768000m/h.</desc>
<speed>6.880000</speed>
</trkpt>
<trkpt lat="55.805534" lon="26.391575">
<ele>142.576294</ele>
<time>2010-07-17T08:33:50Z</time>
<desc>lat.=55.805534, lon.=26.391575, Alt.=142.576294m. Speed=25.955999m/h.</desc>
<speed>7.210000</speed>
</trkpt>
<trkpt lat="55.805485" lon="26.391506">
<ele>142.998169</ele>
<time>2010-07-17T08:33:51Z</time>
<desc>lat.=55.805485, lon.=26.391506, Alt.=142.998169m. Speed=25.271999m/h.</desc>
<speed>7.020000</speed>
</trkpt>
<trkpt lat="55.805435" lon="26.391445">
<ele>143.392700</ele>
<time>2010-07-17T08:33:52Z</time>
<desc>lat.=55.805435, lon.=26.391445, Alt.=143.392700m. Speed=24.444000m/h.</desc>
<speed>6.790000</speed>
</trkpt>
<trkpt lat="55.805382" lon="26.391384">
<ele>143.595825</ele>
<time>2010-07-17T08:33:53Z</time>
<desc>lat.=55.805382, lon.=26.391384, Alt.=143.595825m. Speed=23.868000m/h.</desc>
<speed>6.630000</speed>
</trkpt>
<trkpt lat="55.805332" lon="26.391319">
<ele>143.720825</ele>
<time>2010-07-17T08:33:54Z</time>
<desc>lat.=55.805332, lon.=26.391319, Alt.=143.720825m. Speed=24.299999m/h.</desc>
<speed>6.750000</speed>
</trkpt>
<trkpt lat="55.805279" lon="26.391249">
<ele>143.744263</ele>
<time>2010-07-17T08:33:55Z</time>
<desc>lat.=55.805279, lon.=26.391249, Alt.=143.744263m. Speed=24.912001m/h.</desc>
<speed>6.920000</speed>
</trkpt>
<trkpt lat="55.805229" lon="26.391182">
<ele>143.341919</ele>
<time>2010-07-17T08:33:56Z</time>
<desc>lat.=55.805229, lon.=26.391182, Alt.=143.341919m. Speed=23.976000m/h.</desc>
<speed>6.660000</speed>
</trkpt>
<trkpt lat="55.805183" lon="26.391119">
<ele>143.556763</ele>
<time>2010-07-17T08:33:57Z</time>
<desc>lat.=55.805183, lon.=26.391119, Alt.=143.556763m. Speed=23.507999m/h.</desc>
<speed>6.530000</speed>
</trkpt>
<trkpt lat="55.805134" lon="26.391054">
<ele>143.763794</ele>
<time>2010-07-17T08:33:58Z</time>
<desc>lat.=55.805134, lon.=26.391054, Alt.=143.763794m. Speed=23.580000m/h.</desc>
<speed>6.550000</speed>
</trkpt>
<trkpt lat="55.805080" lon="26.390980">
<ele>144.142700</ele>
<time>2010-07-17T08:33:59Z</time>
<desc>lat.=55.805080, lon.=26.390980, Alt.=144.142700m. Speed=25.452000m/h.</desc>
<speed>7.070000</speed>
</trkpt>
<trkpt lat="55.805031" lon="26.390915">
<ele>144.677856</ele>
<time>2010-07-17T08:34:00Z</time>
<desc>lat.=55.805031, lon.=26.390915, Alt.=144.677856m. Speed=24.840000m/h.</desc>
<speed>6.900000</speed>
</trkpt>
<trkpt lat="55.804981" lon="26.390846">
<ele>144.521606</ele>
<time>2010-07-17T08:34:01Z</time>
<desc>lat.=55.804981, lon.=26.390846, Alt.=144.521606m. Speed=24.299999m/h.</desc>
<speed>6.750000</speed>
</trkpt>
<trkpt lat="55.804932" lon="26.390787">
<ele>144.849731</ele>
<time>2010-07-17T08:34:02Z</time>
<desc>lat.=55.804932, lon.=26.390787, Alt.=144.849731m. Speed=24.228001m/h.</desc>
<speed>6.730000</speed>
</trkpt>
<trkpt lat="55.804886" lon="26.390726">
<ele>145.252075</ele>
<time>2010-07-17T08:34:03Z</time>
<desc>lat.=55.804886, lon.=26.390726, Alt.=145.252075m. Speed=22.356001m/h.</desc>
<speed>6.210000</speed>
</trkpt>
<trkpt lat="55.804840" lon="26.390661">
<ele>145.412231</ele>
<time>2010-07-17T08:34:04Z</time>
<desc>lat.=55.804840, lon.=26.390661, Alt.=145.412231m. Speed=21.455999m/h.</desc>
<speed>5.960000</speed>
</trkpt>
<trkpt lat="55.804798" lon="26.390608">
<ele>145.306763</ele>
<time>2010-07-17T08:34:05Z</time>
<desc>lat.=55.804798, lon.=26.390608, Alt.=145.306763m. Speed=21.455999m/h.</desc>
<speed>5.960000</speed>
</trkpt>
<trkpt lat="55.804752" lon="26.390554">
<ele>145.892700</ele>
<time>2010-07-17T08:34:06Z</time>
<desc>lat.=55.804752, lon.=26.390554, Alt.=145.892700m. Speed=22.068001m/h.</desc>
<speed>6.130000</speed>
</trkpt>
<trkpt lat="55.804707" lon="26.390499">
<ele>146.392700</ele>
<time>2010-07-17T08:34:07Z</time>
<desc>lat.=55.804707, lon.=26.390499, Alt.=146.392700m. Speed=21.024000m/h.</desc>
<speed>5.840000</speed>
</trkpt>
<trkpt lat="55.804657" lon="26.390434">
<ele>145.470825</ele>
<time>2010-07-17T08:34:08Z</time>
<desc>lat.=55.804657, lon.=26.390434, Alt.=145.470825m. Speed=20.952000m/h.</desc>
<speed>5.820000</speed>
</trkpt>
<trkpt lat="55.804611" lon="26.390375">
<ele>145.943481</ele>
<time>2010-07-17T08:34:09Z</time>
<desc>lat.=55.804611, lon.=26.390375, Alt.=145.943481m. Speed=21.563999m/h.</desc>
<speed>5.990000</speed>
</trkpt>
<trkpt lat="55.804565" lon="26.390320">
<ele>145.802856</ele>
<time>2010-07-17T08:34:10Z</time>
<desc>lat.=55.804565, lon.=26.390320, Alt.=145.802856m. Speed=20.052000m/h.</desc>
<speed>5.570000</speed>
</trkpt>
<trkpt lat="55.804527" lon="26.390263">
<ele>146.720825</ele>
<time>2010-07-17T08:34:11Z</time>
<desc>lat.=55.804527, lon.=26.390263, Alt.=146.720825m. Speed=18.900000m/h.</desc>
<speed>5.250000</speed>
</trkpt>
<trkpt lat="55.804485" lon="26.390211">
<ele>147.302856</ele>
<time>2010-07-17T08:34:12Z</time>
<desc>lat.=55.804485, lon.=26.390211, Alt.=147.302856m. Speed=19.548000m/h.</desc>
<speed>5.430000</speed>
</trkpt>
<trkpt lat="55.804447" lon="26.390160">
<ele>147.697388</ele>
<time>2010-07-17T08:34:13Z</time>
<desc>lat.=55.804447, lon.=26.390160, Alt.=147.697388m. Speed=18.431999m/h.</desc>
<speed>5.120000</speed>
</trkpt>
<trkpt lat="55.804413" lon="26.390106">
<ele>147.939575</ele>
<time>2010-07-17T08:34:14Z</time>
<desc>lat.=55.804413, lon.=26.390106, Alt.=147.939575m. Speed=19.115999m/h.</desc>
<speed>5.310000</speed>
</trkpt>
<trkpt lat="55.804379" lon="26.390060">
<ele>148.732544</ele>
<time>2010-07-17T08:34:15Z</time>
<desc>lat.=55.804379, lon.=26.390060, Alt.=148.732544m. Speed=17.712000m/h.</desc>
<speed>4.920000</speed>
</trkpt>
<trkpt lat="55.804340" lon="26.390015">
<ele>148.427856</ele>
<time>2010-07-17T08:34:16Z</time>
<desc>lat.=55.804340, lon.=26.390015, Alt.=148.427856m. Speed=17.028000m/h.</desc>
<speed>4.730000</speed>
</trkpt>
<trkpt lat="55.804302" lon="26.389961">
<ele>148.166138</ele>
<time>2010-07-17T08:34:17Z</time>
<desc>lat.=55.804302, lon.=26.389961, Alt.=148.166138m. Speed=18.360001m/h.</desc>
<speed>5.100000</speed>
</trkpt>
<trkpt lat="55.804264" lon="26.389898">
<ele>148.662231</ele>
<time>2010-07-17T08:34:18Z</time>
<desc>lat.=55.804264, lon.=26.389898, Alt.=148.662231m. Speed=18.252001m/h.</desc>
<speed>5.070000</speed>
</trkpt>
<trkpt lat="55.804226" lon="26.389837">
<ele>148.068481</ele>
<time>2010-07-17T08:34:19Z</time>
<desc>lat.=55.804226, lon.=26.389837, Alt.=148.068481m. Speed=19.403999m/h.</desc>
<speed>5.390000</speed>
</trkpt>
<trkpt lat="55.804188" lon="26.389786">
<ele>147.252075</ele>
<time>2010-07-17T08:34:20Z</time>
<desc>lat.=55.804188, lon.=26.389786, Alt.=147.252075m. Speed=18.431999m/h.</desc>
<speed>5.120000</speed>
</trkpt>
<trkpt lat="55.804146" lon="26.389729">
<ele>146.146606</ele>
<time>2010-07-17T08:34:21Z</time>
<desc>lat.=55.804146, lon.=26.389729, Alt.=146.146606m. Speed=19.188000m/h.</desc>
<speed>5.330000</speed>
</trkpt>
<trkpt lat="55.804104" lon="26.389671">
<ele>145.451294</ele>
<time>2010-07-17T08:34:22Z</time>
<desc>lat.=55.804104, lon.=26.389671, Alt.=145.451294m. Speed=19.260000m/h.</desc>
<speed>5.350000</speed>
</trkpt>
<trkpt lat="55.804066" lon="26.389620">
<ele>144.713013</ele>
<time>2010-07-17T08:34:23Z</time>
<desc>lat.=55.804066, lon.=26.389620, Alt.=144.713013m. Speed=19.691999m/h.</desc>
<speed>5.470000</speed>
</trkpt>
<trkpt lat="55.804028" lon="26.389561">
<ele>144.685669</ele>
<time>2010-07-17T08:34:24Z</time>
<desc>lat.=55.804028, lon.=26.389561, Alt.=144.685669m. Speed=20.628000m/h.</desc>
<speed>5.730000</speed>
</trkpt>
<trkpt lat="55.803997" lon="26.389494">
<ele>146.220825</ele>
<time>2010-07-17T08:34:25Z</time>
<desc>lat.=55.803997, lon.=26.389494, Alt.=146.220825m. Speed=20.520000m/h.</desc>
<speed>5.700000</speed>
</trkpt>
<trkpt lat="55.803963" lon="26.389437">
<ele>146.900513</ele>
<time>2010-07-17T08:34:26Z</time>
<desc>lat.=55.803963, lon.=26.389437, Alt.=146.900513m. Speed=20.124001m/h.</desc>
<speed>5.590000</speed>
</trkpt>
<trkpt lat="55.803917" lon="26.389381">
<ele>147.115356</ele>
<time>2010-07-17T08:34:27Z</time>
<desc>lat.=55.803917, lon.=26.389381, Alt.=147.115356m. Speed=19.764000m/h.</desc>
<speed>5.490000</speed>
</trkpt>
<trkpt lat="55.803871" lon="26.389326">
<ele>147.111450</ele>
<time>2010-07-17T08:34:28Z</time>
<desc>lat.=55.803871, lon.=26.389326, Alt.=147.111450m. Speed=20.628000m/h.</desc>
<speed>5.730000</speed>
</trkpt>
<trkpt lat="55.803833" lon="26.389273">
<ele>147.599731</ele>
<time>2010-07-17T08:34:29Z</time>
<desc>lat.=55.803833, lon.=26.389273, Alt.=147.599731m. Speed=20.591999m/h.</desc>
<speed>5.720000</speed>
</trkpt>
<trkpt lat="55.803787" lon="26.389217">
<ele>147.650513</ele>
<time>2010-07-17T08:34:30Z</time>
<desc>lat.=55.803787, lon.=26.389217, Alt.=147.650513m. Speed=19.584000m/h.</desc>
<speed>5.440000</speed>
</trkpt>
<trkpt lat="55.803741" lon="26.389166">
<ele>147.146606</ele>
<time>2010-07-17T08:34:31Z</time>
<desc>lat.=55.803741, lon.=26.389166, Alt.=147.146606m. Speed=20.304001m/h.</desc>
<speed>5.640000</speed>
</trkpt>
<trkpt lat="55.803699" lon="26.389109">
<ele>147.420044</ele>
<time>2010-07-17T08:34:32Z</time>
<desc>lat.=55.803699, lon.=26.389109, Alt.=147.420044m. Speed=20.736000m/h.</desc>
<speed>5.760000</speed>
</trkpt>
<trkpt lat="55.803654" lon="26.389046">
<ele>146.537231</ele>
<time>2010-07-17T08:34:33Z</time>
<desc>lat.=55.803654, lon.=26.389046, Alt.=146.537231m. Speed=22.104000m/h.</desc>
<speed>6.140000</speed>
</trkpt>
<trkpt lat="55.803612" lon="26.388985">
<ele>146.677856</ele>
<time>2010-07-17T08:34:34Z</time>
<desc>lat.=55.803612, lon.=26.388985, Alt.=146.677856m. Speed=23.076000m/h.</desc>
<speed>6.410000</speed>
</trkpt>
<trkpt lat="55.803562" lon="26.388918">
<ele>146.693481</ele>
<time>2010-07-17T08:34:35Z</time>
<desc>lat.=55.803562, lon.=26.388918, Alt.=146.693481m. Speed=24.228001m/h.</desc>
<speed>6.730000</speed>
</trkpt>
<trkpt lat="55.803513" lon="26.388857">
<ele>146.611450</ele>
<time>2010-07-17T08:34:36Z</time>
<desc>lat.=55.803513, lon.=26.388857, Alt.=146.611450m. Speed=23.796000m/h.</desc>
<speed>6.610000</speed>
</trkpt>
<trkpt lat="55.803467" lon="26.388796">
<ele>146.252075</ele>
<time>2010-07-17T08:34:37Z</time>
<desc>lat.=55.803467, lon.=26.388796, Alt.=146.252075m. Speed=22.931999m/h.</desc>
<speed>6.370000</speed>
</trkpt>
<trkpt lat="55.803421" lon="26.388739">
<ele>146.224731</ele>
<time>2010-07-17T08:34:38Z</time>
<desc>lat.=55.803421, lon.=26.388739, Alt.=146.224731m. Speed=23.436001m/h.</desc>
<speed>6.510000</speed>
</trkpt>
<trkpt lat="55.803375" lon="26.388678">
<ele>146.099731</ele>
<time>2010-07-17T08:34:39Z</time>
<desc>lat.=55.803375, lon.=26.388678, Alt.=146.099731m. Speed=23.292000m/h.</desc>
<speed>6.470000</speed>
</trkpt>
<trkpt lat="55.803329" lon="26.388620">
<ele>146.361450</ele>
<time>2010-07-17T08:34:40Z</time>
<desc>lat.=55.803329, lon.=26.388620, Alt.=146.361450m. Speed=23.004000m/h.</desc>
<speed>6.390000</speed>
</trkpt>
<trkpt lat="55.803284" lon="26.388554">
<ele>146.310669</ele>
<time>2010-07-17T08:34:41Z</time>
<desc>lat.=55.803284, lon.=26.388554, Alt.=146.310669m. Speed=23.400000m/h.</desc>
<speed>6.500000</speed>
</trkpt>
<trkpt lat="55.803234" lon="26.388487">
<ele>145.588013</ele>
<time>2010-07-17T08:34:42Z</time>
<desc>lat.=55.803234, lon.=26.388487, Alt.=145.588013m. Speed=23.184000m/h.</desc>
<speed>6.440000</speed>
</trkpt>
<trkpt lat="55.803188" lon="26.388432">
<ele>145.291138</ele>
<time>2010-07-17T08:34:43Z</time>
<desc>lat.=55.803188, lon.=26.388432, Alt.=145.291138m. Speed=23.219999m/h.</desc>
<speed>6.450000</speed>
</trkpt>
<trkpt lat="55.803143" lon="26.388374">
<ele>145.205200</ele>
<time>2010-07-17T08:34:44Z</time>
<desc>lat.=55.803143, lon.=26.388374, Alt.=145.205200m. Speed=22.104000m/h.</desc>
<speed>6.140000</speed>
</trkpt>
<trkpt lat="55.803093" lon="26.388317">
<ele>145.088013</ele>
<time>2010-07-17T08:34:45Z</time>
<desc>lat.=55.803093, lon.=26.388317, Alt.=145.088013m. Speed=23.400000m/h.</desc>
<speed>6.500000</speed>
</trkpt>
<trkpt lat="55.803043" lon="26.388264">
<ele>145.072388</ele>
<time>2010-07-17T08:34:46Z</time>
<desc>lat.=55.803043, lon.=26.388264, Alt.=145.072388m. Speed=22.535999m/h.</desc>
<speed>6.260000</speed>
</trkpt>
<trkpt lat="55.802998" lon="26.388210">
<ele>144.904419</ele>
<time>2010-07-17T08:34:47Z</time>
<desc>lat.=55.802998, lon.=26.388210, Alt.=144.904419m. Speed=21.780001m/h.</desc>
<speed>6.050000</speed>
</trkpt>
<trkpt lat="55.802952" lon="26.388151">
<ele>144.650513</ele>
<time>2010-07-17T08:34:48Z</time>
<desc>lat.=55.802952, lon.=26.388151, Alt.=144.650513m. Speed=21.959999m/h.</desc>
<speed>6.100000</speed>
</trkpt>
<trkpt lat="55.802910" lon="26.388098">
<ele>144.443481</ele>
<time>2010-07-17T08:34:49Z</time>
<desc>lat.=55.802910, lon.=26.388098, Alt.=144.443481m. Speed=20.483999m/h.</desc>
<speed>5.690000</speed>
</trkpt>
<trkpt lat="55.802868" lon="26.388042">
<ele>143.978638</ele>
<time>2010-07-17T08:34:50Z</time>
<desc>lat.=55.802868, lon.=26.388042, Alt.=143.978638m. Speed=21.132000m/h.</desc>
<speed>5.870000</speed>
</trkpt>
<trkpt lat="55.802826" lon="26.387995">
<ele>143.884888</ele>
<time>2010-07-17T08:34:51Z</time>
<desc>lat.=55.802826, lon.=26.387995, Alt.=143.884888m. Speed=20.052000m/h.</desc>
<speed>5.570000</speed>
</trkpt>
<trkpt lat="55.802780" lon="26.387949">
<ele>143.377075</ele>
<time>2010-07-17T08:34:52Z</time>
<desc>lat.=55.802780, lon.=26.387949, Alt.=143.377075m. Speed=19.476000m/h.</desc>
<speed>5.410000</speed>
</trkpt>
<trkpt lat="55.802738" lon="26.387892">
<ele>143.240356</ele>
<time>2010-07-17T08:34:53Z</time>
<desc>lat.=55.802738, lon.=26.387892, Alt.=143.240356m. Speed=21.888000m/h.</desc>
<speed>6.080000</speed>
</trkpt>
<trkpt lat="55.802700" lon="26.387838">
<ele>143.533325</ele>
<time>2010-07-17T08:34:54Z</time>
<desc>lat.=55.802700, lon.=26.387838, Alt.=143.533325m. Speed=20.087999m/h.</desc>
<speed>5.580000</speed>
</trkpt>
<trkpt lat="55.802662" lon="26.387787">
<ele>143.959106</ele>
<time>2010-07-17T08:34:55Z</time>
<desc>lat.=55.802662, lon.=26.387787, Alt.=143.959106m. Speed=19.584000m/h.</desc>
<speed>5.440000</speed>
</trkpt>
<trkpt lat="55.802624" lon="26.387726">
<ele>143.892700</ele>
<time>2010-07-17T08:34:56Z</time>
<desc>lat.=55.802624, lon.=26.387726, Alt.=143.892700m. Speed=21.167999m/h.</desc>
<speed>5.880000</speed>
</trkpt>
<trkpt lat="55.802582" lon="26.387665">
<ele>143.740356</ele>
<time>2010-07-17T08:34:57Z</time>
<desc>lat.=55.802582, lon.=26.387665, Alt.=143.740356m. Speed=20.304001m/h.</desc>
<speed>5.640000</speed>
</trkpt>
<trkpt lat="55.802536" lon="26.387606">
<ele>143.486450</ele>
<time>2010-07-17T08:34:58Z</time>
<desc>lat.=55.802536, lon.=26.387606, Alt.=143.486450m. Speed=21.420000m/h.</desc>
<speed>5.950000</speed>
</trkpt>
<trkpt lat="55.802490" lon="26.387543">
<ele>143.326294</ele>
<time>2010-07-17T08:34:59Z</time>
<desc>lat.=55.802490, lon.=26.387543, Alt.=143.326294m. Speed=21.816000m/h.</desc>
<speed>6.060000</speed>
</trkpt>
<trkpt lat="55.802444" lon="26.387478">
<ele>143.318481</ele>
<time>2010-07-17T08:35:00Z</time>
<desc>lat.=55.802444, lon.=26.387478, Alt.=143.318481m. Speed=23.076000m/h.</desc>
<speed>6.410000</speed>
</trkpt>
<trkpt lat="55.802395" lon="26.387421">
<ele>143.142700</ele>
<time>2010-07-17T08:35:01Z</time>
<desc>lat.=55.802395, lon.=26.387421, Alt.=143.142700m. Speed=23.112000m/h.</desc>
<speed>6.420000</speed>
</trkpt>
<trkpt lat="55.802341" lon="26.387363">
<ele>142.759888</ele>
<time>2010-07-17T08:35:02Z</time>
<desc>lat.=55.802341, lon.=26.387363, Alt.=142.759888m. Speed=23.436001m/h.</desc>
<speed>6.510000</speed>
</trkpt>
<trkpt lat="55.802292" lon="26.387297">
<ele>142.431763</ele>
<time>2010-07-17T08:35:03Z</time>
<desc>lat.=55.802292, lon.=26.387297, Alt.=142.431763m. Speed=23.652000m/h.</desc>
<speed>6.570000</speed>
</trkpt>
<trkpt lat="55.802242" lon="26.387232">
<ele>142.095825</ele>
<time>2010-07-17T08:35:04Z</time>
<desc>lat.=55.802242, lon.=26.387232, Alt.=142.095825m. Speed=24.048000m/h.</desc>
<speed>6.680000</speed>
</trkpt>
<trkpt lat="55.802189" lon="26.387161">
<ele>141.744263</ele>
<time>2010-07-17T08:35:05Z</time>
<desc>lat.=55.802189, lon.=26.387161, Alt.=141.744263m. Speed=25.704000m/h.</desc>
<speed>7.140000</speed>
</trkpt>
<trkpt lat="55.802132" lon="26.387091">
<ele>141.502075</ele>
<time>2010-07-17T08:35:06Z</time>
<desc>lat.=55.802132, lon.=26.387091, Alt.=141.502075m. Speed=26.100000m/h.</desc>
<speed>7.250000</speed>
</trkpt>
<trkpt lat="55.802082" lon="26.387022">
<ele>141.377075</ele>
<time>2010-07-17T08:35:07Z</time>
<desc>lat.=55.802082, lon.=26.387022, Alt.=141.377075m. Speed=25.704000m/h.</desc>
<speed>7.140000</speed>
</trkpt>
<trkpt lat="55.802029" lon="26.386955">
<ele>141.345825</ele>
<time>2010-07-17T08:35:08Z</time>
<desc>lat.=55.802029, lon.=26.386955, Alt.=141.345825m. Speed=25.488001m/h.</desc>
<speed>7.080000</speed>
</trkpt>
<trkpt lat="55.801975" lon="26.386883">
<ele>141.205200</ele>
<time>2010-07-17T08:35:09Z</time>
<desc>lat.=55.801975, lon.=26.386883, Alt.=141.205200m. Speed=25.955999m/h.</desc>
<speed>7.210000</speed>
</trkpt>
<trkpt lat="55.801926" lon="26.386814">
<ele>141.068481</ele>
<time>2010-07-17T08:35:10Z</time>
<desc>lat.=55.801926, lon.=26.386814, Alt.=141.068481m. Speed=25.596001m/h.</desc>
<speed>7.110000</speed>
</trkpt>
<trkpt lat="55.801872" lon="26.386744">
<ele>140.845825</ele>
<time>2010-07-17T08:35:11Z</time>
<desc>lat.=55.801872, lon.=26.386744, Alt.=140.845825m. Speed=26.496000m/h.</desc>
<speed>7.360000</speed>
</trkpt>
<trkpt lat="55.801823" lon="26.386667">
<ele>140.877075</ele>
<time>2010-07-17T08:35:12Z</time>
<desc>lat.=55.801823, lon.=26.386667, Alt.=140.877075m. Speed=26.496000m/h.</desc>
<speed>7.360000</speed>
</trkpt>
<trkpt lat="55.801769" lon="26.386593">
<ele>140.884888</ele>
<time>2010-07-17T08:35:13Z</time>
<desc>lat.=55.801769, lon.=26.386593, Alt.=140.884888m. Speed=25.667999m/h.</desc>
<speed>7.130000</speed>
</trkpt>
<trkpt lat="55.801723" lon="26.386518">
<ele>140.646606</ele>
<time>2010-07-17T08:35:14Z</time>
<desc>lat.=55.801723, lon.=26.386518, Alt.=140.646606m. Speed=24.587999m/h.</desc>
<speed>6.830000</speed>
</trkpt>
<trkpt lat="55.801678" lon="26.386438">
<ele>140.947388</ele>
<time>2010-07-17T08:35:15Z</time>
<desc>lat.=55.801678, lon.=26.386438, Alt.=140.947388m. Speed=24.444000m/h.</desc>
<speed>6.790000</speed>
</trkpt>
<trkpt lat="55.801624" lon="26.386374">
<ele>140.509888</ele>
<time>2010-07-17T08:35:16Z</time>
<desc>lat.=55.801624, lon.=26.386374, Alt.=140.509888m. Speed=24.804001m/h.</desc>
<speed>6.890000</speed>
</trkpt>
<trkpt lat="55.801575" lon="26.386311">
<ele>140.146606</ele>
<time>2010-07-17T08:35:17Z</time>
<desc>lat.=55.801575, lon.=26.386311, Alt.=140.146606m. Speed=24.011999m/h.</desc>
<speed>6.670000</speed>
</trkpt>
<trkpt lat="55.801525" lon="26.386255">
<ele>140.064575</ele>
<time>2010-07-17T08:35:18Z</time>
<desc>lat.=55.801525, lon.=26.386255, Alt.=140.064575m. Speed=22.104000m/h.</desc>
<speed>6.140000</speed>
</trkpt>
<trkpt lat="55.801479" lon="26.386200">
<ele>140.216919</ele>
<time>2010-07-17T08:35:19Z</time>
<desc>lat.=55.801479, lon.=26.386200, Alt.=140.216919m. Speed=20.952000m/h.</desc>
<speed>5.820000</speed>
</trkpt>
<trkpt lat="55.801441" lon="26.386148">
<ele>140.099731</ele>
<time>2010-07-17T08:35:20Z</time>
<desc>lat.=55.801441, lon.=26.386148, Alt.=140.099731m. Speed=20.700001m/h.</desc>
<speed>5.750000</speed>
</trkpt>
<trkpt lat="55.801395" lon="26.386087">
<ele>140.017700</ele>
<time>2010-07-17T08:35:21Z</time>
<desc>lat.=55.801395, lon.=26.386087, Alt.=140.017700m. Speed=21.743999m/h.</desc>
<speed>6.040000</speed>
</trkpt>
<trkpt lat="55.801353" lon="26.386024">
<ele>140.166138</ele>
<time>2010-07-17T08:35:22Z</time>
<desc>lat.=55.801353, lon.=26.386024, Alt.=140.166138m. Speed=23.040001m/h.</desc>
<speed>6.400000</speed>
</trkpt>
<trkpt lat="55.801304" lon="26.385958">
<ele>140.654419</ele>
<time>2010-07-17T08:35:23Z</time>
<desc>lat.=55.801304, lon.=26.385958, Alt.=140.654419m. Speed=23.940001m/h.</desc>
<speed>6.650000</speed>
</trkpt>
<trkpt lat="55.801254" lon="26.385900">
<ele>141.349731</ele>
<time>2010-07-17T08:35:24Z</time>
<desc>lat.=55.801254, lon.=26.385900, Alt.=141.349731m. Speed=24.408001m/h.</desc>
<speed>6.780000</speed>
</trkpt>
<trkpt lat="55.801201" lon="26.385839">
<ele>141.670044</ele>
<time>2010-07-17T08:35:25Z</time>
<desc>lat.=55.801201, lon.=26.385839, Alt.=141.670044m. Speed=23.724001m/h.</desc>
<speed>6.590000</speed>
</trkpt>
<trkpt lat="55.801151" lon="26.385775">
<ele>142.236450</ele>
<time>2010-07-17T08:35:26Z</time>
<desc>lat.=55.801151, lon.=26.385775, Alt.=142.236450m. Speed=24.480000m/h.</desc>
<speed>6.800000</speed>
</trkpt>
<trkpt lat="55.801105" lon="26.385708">
<ele>142.728638</ele>
<time>2010-07-17T08:35:27Z</time>
<desc>lat.=55.801105, lon.=26.385708, Alt.=142.728638m. Speed=24.120001m/h.</desc>
<speed>6.700000</speed>
</trkpt>
<trkpt lat="55.801052" lon="26.385643">
<ele>143.455200</ele>
<time>2010-07-17T08:35:28Z</time>
<desc>lat.=55.801052, lon.=26.385643, Alt.=143.455200m. Speed=24.048000m/h.</desc>
<speed>6.680000</speed>
</trkpt>
<trkpt lat="55.801006" lon="26.385572">
<ele>144.611450</ele>
<time>2010-07-17T08:35:29Z</time>
<desc>lat.=55.801006, lon.=26.385572, Alt.=144.611450m. Speed=23.868000m/h.</desc>
<speed>6.630000</speed>
</trkpt>
<trkpt lat="55.800964" lon="26.385506">
<ele>145.400513</ele>
<time>2010-07-17T08:35:30Z</time>
<desc>lat.=55.800964, lon.=26.385506, Alt.=145.400513m. Speed=23.148001m/h.</desc>
<speed>6.430000</speed>
</trkpt>
<trkpt lat="55.800919" lon="26.385439">
<ele>145.529419</ele>
<time>2010-07-17T08:35:31Z</time>
<desc>lat.=55.800919, lon.=26.385439, Alt.=145.529419m. Speed=22.212000m/h.</desc>
<speed>6.170000</speed>
</trkpt>
<trkpt lat="55.800873" lon="26.385382">
<ele>146.076294</ele>
<time>2010-07-17T08:35:32Z</time>
<desc>lat.=55.800873, lon.=26.385382, Alt.=146.076294m. Speed=23.472000m/h.</desc>
<speed>6.520000</speed>
</trkpt>
<trkpt lat="55.800827" lon="26.385319">
<ele>148.236450</ele>
<time>2010-07-17T08:35:33Z</time>
<desc>lat.=55.800827, lon.=26.385319, Alt.=148.236450m. Speed=23.832001m/h.</desc>
<speed>6.620000</speed>
</trkpt>
<trkpt lat="55.800777" lon="26.385256">
<ele>148.072388</ele>
<time>2010-07-17T08:35:34Z</time>
<desc>lat.=55.800777, lon.=26.385256, Alt.=148.072388m. Speed=24.480000m/h.</desc>
<speed>6.800000</speed>
</trkpt>
<trkpt lat="55.800732" lon="26.385189">
<ele>147.623169</ele>
<time>2010-07-17T08:35:35Z</time>
<desc>lat.=55.800732, lon.=26.385189, Alt.=147.623169m. Speed=25.271999m/h.</desc>
<speed>7.020000</speed>
</trkpt>
<trkpt lat="55.800678" lon="26.385126">
<ele>147.798950</ele>
<time>2010-07-17T08:35:36Z</time>
<desc>lat.=55.800678, lon.=26.385126, Alt.=147.798950m. Speed=26.100000m/h.</desc>
<speed>7.250000</speed>
</trkpt>
<trkpt lat="55.800621" lon="26.385056">
<ele>147.861450</ele>
<time>2010-07-17T08:35:37Z</time>
<desc>lat.=55.800621, lon.=26.385056, Alt.=147.861450m. Speed=27.684000m/h.</desc>
<speed>7.690000</speed>
</trkpt>
<trkpt lat="55.800564" lon="26.384974">
<ele>147.744263</ele>
<time>2010-07-17T08:35:38Z</time>
<desc>lat.=55.800564, lon.=26.384974, Alt.=147.744263m. Speed=28.691999m/h.</desc>
<speed>7.970000</speed>
</trkpt>
<trkpt lat="55.800503" lon="26.384888">
<ele>147.232544</ele>
<time>2010-07-17T08:35:39Z</time>
<desc>lat.=55.800503, lon.=26.384888, Alt.=147.232544m. Speed=30.240000m/h.</desc>
<speed>8.400000</speed>
</trkpt>
<trkpt lat="55.800438" lon="26.384794">
<ele>146.513794</ele>
<time>2010-07-17T08:35:40Z</time>
<desc>lat.=55.800438, lon.=26.384794, Alt.=146.513794m. Speed=32.112000m/h.</desc>
<speed>8.920000</speed>
</trkpt>
<trkpt lat="55.800369" lon="26.384701">
<ele>145.498169</ele>
<time>2010-07-17T08:35:41Z</time>
<desc>lat.=55.800369, lon.=26.384701, Alt.=145.498169m. Speed=32.868000m/h.</desc>
<speed>9.130000</speed>
</trkpt>
<trkpt lat="55.800301" lon="26.384609">
<ele>144.951294</ele>
<time>2010-07-17T08:35:42Z</time>
<desc>lat.=55.800301, lon.=26.384609, Alt.=144.951294m. Speed=34.271999m/h.</desc>
<speed>9.520000</speed>
</trkpt>
<trkpt lat="55.800228" lon="26.384510">
<ele>143.646606</ele>
<time>2010-07-17T08:35:43Z</time>
<desc>lat.=55.800228, lon.=26.384510, Alt.=143.646606m. Speed=34.883999m/h.</desc>
<speed>9.690000</speed>
</trkpt>
<trkpt lat="55.800152" lon="26.384403">
<ele>142.181763</ele>
<time>2010-07-17T08:35:44Z</time>
<desc>lat.=55.800152, lon.=26.384403, Alt.=142.181763m. Speed=36.035999m/h.</desc>
<speed>10.010000</speed>
</trkpt>
<trkpt lat="55.800083" lon="26.384304">
<ele>141.666138</ele>
<time>2010-07-17T08:35:45Z</time>
<desc>lat.=55.800083, lon.=26.384304, Alt.=141.666138m. Speed=36.647999m/h.</desc>
<speed>10.180000</speed>
</trkpt>
<trkpt lat="55.800007" lon="26.384201">
<ele>141.416138</ele>
<time>2010-07-17T08:35:46Z</time>
<desc>lat.=55.800007, lon.=26.384201, Alt.=141.416138m. Speed=37.584000m/h.</desc>
<speed>10.440000</speed>
</trkpt>
<trkpt lat="55.799927" lon="26.384096">
<ele>141.611450</ele>
<time>2010-07-17T08:35:47Z</time>
<desc>lat.=55.799927, lon.=26.384096, Alt.=141.611450m. Speed=37.944000m/h.</desc>
<speed>10.540000</speed>
</trkpt>
<trkpt lat="55.799850" lon="26.383986">
<ele>141.021606</ele>
<time>2010-07-17T08:35:48Z</time>
<desc>lat.=55.799850, lon.=26.383986, Alt.=141.021606m. Speed=37.764000m/h.</desc>
<speed>10.490000</speed>
</trkpt>
<trkpt lat="55.799774" lon="26.383877">
<ele>140.521606</ele>
<time>2010-07-17T08:35:49Z</time>
<desc>lat.=55.799774, lon.=26.383877, Alt.=140.521606m. Speed=36.467999m/h.</desc>
<speed>10.130000</speed>
</trkpt>
<trkpt lat="55.799702" lon="26.383770">
<ele>139.763794</ele>
<time>2010-07-17T08:35:50Z</time>
<desc>lat.=55.799702, lon.=26.383770, Alt.=139.763794m. Speed=36.972000m/h.</desc>
<speed>10.270000</speed>
</trkpt>
<trkpt lat="55.799625" lon="26.383663">
<ele>140.072388</ele>
<time>2010-07-17T08:35:51Z</time>
<desc>lat.=55.799625, lon.=26.383663, Alt.=140.072388m. Speed=37.655998m/h.</desc>
<speed>10.460000</speed>
</trkpt>
<trkpt lat="55.799549" lon="26.383558">
<ele>140.056763</ele>
<time>2010-07-17T08:35:52Z</time>
<desc>lat.=55.799549, lon.=26.383558, Alt.=140.056763m. Speed=37.296001m/h.</desc>
<speed>10.360000</speed>
</trkpt>
<trkpt lat="55.799477" lon="26.383461">
<ele>140.111450</ele>
<time>2010-07-17T08:35:53Z</time>
<desc>lat.=55.799477, lon.=26.383461, Alt.=140.111450m. Speed=36.612000m/h.</desc>
<speed>10.170000</speed>
</trkpt>
<trkpt lat="55.799400" lon="26.383368">
<ele>140.080200</ele>
<time>2010-07-17T08:35:54Z</time>
<desc>lat.=55.799400, lon.=26.383368, Alt.=140.080200m. Speed=36.900002m/h.</desc>
<speed>10.250000</speed>
</trkpt>
<trkpt lat="55.799328" lon="26.383270">
<ele>139.845825</ele>
<time>2010-07-17T08:35:55Z</time>
<desc>lat.=55.799328, lon.=26.383270, Alt.=139.845825m. Speed=36.576000m/h.</desc>
<speed>10.160000</speed>
</trkpt>
<trkpt lat="55.799255" lon="26.383175">
<ele>139.728638</ele>
<time>2010-07-17T08:35:56Z</time>
<desc>lat.=55.799255, lon.=26.383175, Alt.=139.728638m. Speed=36.647999m/h.</desc>
<speed>10.180000</speed>
</trkpt>
<trkpt lat="55.799179" lon="26.383078">
<ele>139.541138</ele>
<time>2010-07-17T08:35:57Z</time>
<desc>lat.=55.799179, lon.=26.383078, Alt.=139.541138m. Speed=36.396000m/h.</desc>
<speed>10.110000</speed>
</trkpt>
<trkpt lat="55.799107" lon="26.382986">
<ele>139.517700</ele>
<time>2010-07-17T08:35:58Z</time>
<desc>lat.=55.799107, lon.=26.382986, Alt.=139.517700m. Speed=36.000000m/h.</desc>
<speed>10.000000</speed>
</trkpt>
<trkpt lat="55.799034" lon="26.382891">
<ele>139.302856</ele>
<time>2010-07-17T08:35:59Z</time>
<desc>lat.=55.799034, lon.=26.382891, Alt.=139.302856m. Speed=36.720001m/h.</desc>
<speed>10.200000</speed>
</trkpt>
<trkpt lat="55.798962" lon="26.382795">
<ele>139.224731</ele>
<time>2010-07-17T08:36:00Z</time>
<desc>lat.=55.798962, lon.=26.382795, Alt.=139.224731m. Speed=36.000000m/h.</desc>
<speed>10.000000</speed>
</trkpt>
<trkpt lat="55.798889" lon="26.382704">
<ele>138.814575</ele>
<time>2010-07-17T08:36:01Z</time>
<desc>lat.=55.798889, lon.=26.382704, Alt.=138.814575m. Speed=35.352001m/h.</desc>
<speed>9.820000</speed>
</trkpt>
<trkpt lat="55.798817" lon="26.382610">
<ele>138.740356</ele>
<time>2010-07-17T08:36:02Z</time>
<desc>lat.=55.798817, lon.=26.382610, Alt.=138.740356m. Speed=34.740002m/h.</desc>
<speed>9.650000</speed>
</trkpt>
<trkpt lat="55.798748" lon="26.382526">
<ele>138.892700</ele>
<time>2010-07-17T08:36:03Z</time>
<desc>lat.=55.798748, lon.=26.382526, Alt.=138.892700m. Speed=34.487999m/h.</desc>
<speed>9.580000</speed>
</trkpt>
<trkpt lat="55.798679" lon="26.382444">
<ele>138.357544</ele>
<time>2010-07-17T08:36:04Z</time>
<desc>lat.=55.798679, lon.=26.382444, Alt.=138.357544m. Speed=33.624001m/h.</desc>
<speed>9.340000</speed>
</trkpt>
<trkpt lat="55.798615" lon="26.382357">
<ele>138.713013</ele>
<time>2010-07-17T08:36:05Z</time>
<desc>lat.=55.798615, lon.=26.382357, Alt.=138.713013m. Speed=32.220001m/h.</desc>
<speed>8.950000</speed>
</trkpt>
<trkpt lat="55.798553" lon="26.382271">
<ele>138.798950</ele>
<time>2010-07-17T08:36:06Z</time>
<desc>lat.=55.798553, lon.=26.382271, Alt.=138.798950m. Speed=32.543999m/h.</desc>
<speed>9.040000</speed>
</trkpt>
<trkpt lat="55.798485" lon="26.382196">
<ele>139.451294</ele>
<time>2010-07-17T08:36:07Z</time>
<desc>lat.=55.798485, lon.=26.382196, Alt.=139.451294m. Speed=31.968000m/h.</desc>
<speed>8.880000</speed>
</trkpt>
<trkpt lat="55.798420" lon="26.382114">
<ele>139.158325</ele>
<time>2010-07-17T08:36:08Z</time>
<desc>lat.=55.798420, lon.=26.382114, Alt.=139.158325m. Speed=31.139999m/h.</desc>
<speed>8.650000</speed>
</trkpt>
<trkpt lat="55.798359" lon="26.382030">
<ele>139.509888</ele>
<time>2010-07-17T08:36:09Z</time>
<desc>lat.=55.798359, lon.=26.382030, Alt.=139.509888m. Speed=31.032000m/h.</desc>
<speed>8.620000</speed>
</trkpt>
<trkpt lat="55.798298" lon="26.381945">
<ele>138.783325</ele>
<time>2010-07-17T08:36:10Z</time>
<desc>lat.=55.798298, lon.=26.381945, Alt.=138.783325m. Speed=31.284000m/h.</desc>
<speed>8.690000</speed>
</trkpt>
<trkpt lat="55.798237" lon="26.381855">
<ele>138.314575</ele>
<time>2010-07-17T08:36:11Z</time>
<desc>lat.=55.798237, lon.=26.381855, Alt.=138.314575m. Speed=30.636000m/h.</desc>
<speed>8.510000</speed>
</trkpt>
<trkpt lat="55.798172" lon="26.381773">
<ele>138.658325</ele>
<time>2010-07-17T08:36:12Z</time>
<desc>lat.=55.798172, lon.=26.381773, Alt.=138.658325m. Speed=32.580002m/h.</desc>
<speed>9.050001</speed>
</trkpt>
<trkpt lat="55.798103" lon="26.381689">
<ele>138.127075</ele>
<time>2010-07-17T08:36:13Z</time>
<desc>lat.=55.798103, lon.=26.381689, Alt.=138.127075m. Speed=32.040001m/h.</desc>
<speed>8.900000</speed>
</trkpt>
<trkpt lat="55.798038" lon="26.381603">
<ele>137.974731</ele>
<time>2010-07-17T08:36:14Z</time>
<desc>lat.=55.798038, lon.=26.381603, Alt.=137.974731m. Speed=32.147999m/h.</desc>
<speed>8.930000</speed>
</trkpt>
<trkpt lat="55.797974" lon="26.381517">
<ele>137.322388</ele>
<time>2010-07-17T08:36:15Z</time>
<desc>lat.=55.797974, lon.=26.381517, Alt.=137.322388m. Speed=31.176001m/h.</desc>
<speed>8.660000</speed>
</trkpt>
<trkpt lat="55.797913" lon="26.381435">
<ele>137.670044</ele>
<time>2010-07-17T08:36:16Z</time>
<desc>lat.=55.797913, lon.=26.381435, Alt.=137.670044m. Speed=30.780001m/h.</desc>
<speed>8.550000</speed>
</trkpt>
<trkpt lat="55.797852" lon="26.381355">
<ele>137.240356</ele>
<time>2010-07-17T08:36:17Z</time>
<desc>lat.=55.797852, lon.=26.381355, Alt.=137.240356m. Speed=30.096001m/h.</desc>
<speed>8.360000</speed>
</trkpt>
<trkpt lat="55.797794" lon="26.381273">
<ele>136.658325</ele>
<time>2010-07-17T08:36:18Z</time>
<desc>lat.=55.797794, lon.=26.381273, Alt.=136.658325m. Speed=29.664000m/h.</desc>
<speed>8.240000</speed>
</trkpt>
<trkpt lat="55.797733" lon="26.381193">
<ele>136.142700</ele>
<time>2010-07-17T08:36:19Z</time>
<desc>lat.=55.797733, lon.=26.381193, Alt.=136.142700m. Speed=28.908001m/h.</desc>
<speed>8.030000</speed>
</trkpt>
<trkpt lat="55.797672" lon="26.381115">
<ele>135.771606</ele>
<time>2010-07-17T08:36:20Z</time>
<desc>lat.=55.797672, lon.=26.381115, Alt.=135.771606m. Speed=28.980000m/h.</desc>
<speed>8.050000</speed>
</trkpt>
<trkpt lat="55.797615" lon="26.381039">
<ele>134.877075</ele>
<time>2010-07-17T08:36:21Z</time>
<desc>lat.=55.797615, lon.=26.381039, Alt.=134.877075m. Speed=28.403999m/h.</desc>
<speed>7.890000</speed>
</trkpt>
<trkpt lat="55.797558" lon="26.380968">
<ele>134.853638</ele>
<time>2010-07-17T08:36:22Z</time>
<desc>lat.=55.797558, lon.=26.380968, Alt.=134.853638m. Speed=27.684000m/h.</desc>
<speed>7.690000</speed>
</trkpt>
<trkpt lat="55.797504" lon="26.380898">
<ele>134.334106</ele>
<time>2010-07-17T08:36:23Z</time>
<desc>lat.=55.797504, lon.=26.380898, Alt.=134.334106m. Speed=26.639999m/h.</desc>
<speed>7.400000</speed>
</trkpt>
<trkpt lat="55.797451" lon="26.380825">
<ele>133.670044</ele>
<time>2010-07-17T08:36:24Z</time>
<desc>lat.=55.797451, lon.=26.380825, Alt.=133.670044m. Speed=25.596001m/h.</desc>
<speed>7.110000</speed>
</trkpt>
<trkpt lat="55.797398" lon="26.380751">
<ele>133.349731</ele>
<time>2010-07-17T08:36:25Z</time>
<desc>lat.=55.797398, lon.=26.380751, Alt.=133.349731m. Speed=24.624001m/h.</desc>
<speed>6.840000</speed>
</trkpt>
<trkpt lat="55.797348" lon="26.380688">
<ele>133.166138</ele>
<time>2010-07-17T08:36:26Z</time>
<desc>lat.=55.797348, lon.=26.380688, Alt.=133.166138m. Speed=24.480000m/h.</desc>
<speed>6.800000</speed>
</trkpt>
<trkpt lat="55.797295" lon="26.380623">
<ele>131.955200</ele>
<time>2010-07-17T08:36:27Z</time>
<desc>lat.=55.797295, lon.=26.380623, Alt.=131.955200m. Speed=27.864000m/h.</desc>
<speed>7.740000</speed>
</trkpt>
<trkpt lat="55.797245" lon="26.380569">
<ele>132.888794</ele>
<time>2010-07-17T08:36:28Z</time>
<desc>lat.=55.797245, lon.=26.380569, Alt.=132.888794m. Speed=23.400000m/h.</desc>
<speed>6.500000</speed>
</trkpt>
<trkpt lat="55.797203" lon="26.380507">
<ele>132.826294</ele>
<time>2010-07-17T08:36:29Z</time>
<desc>lat.=55.797203, lon.=26.380507, Alt.=132.826294m. Speed=22.716000m/h.</desc>
<speed>6.310000</speed>
</trkpt>
<trkpt lat="55.797157" lon="26.380447">
<ele>132.037231</ele>
<time>2010-07-17T08:36:30Z</time>
<desc>lat.=55.797157, lon.=26.380447, Alt.=132.037231m. Speed=23.364000m/h.</desc>
<speed>6.490000</speed>
</trkpt>
<trkpt lat="55.797108" lon="26.380388">
<ele>131.814575</ele>
<time>2010-07-17T08:36:31Z</time>
<desc>lat.=55.797108, lon.=26.380388, Alt.=131.814575m. Speed=22.643999m/h.</desc>
<speed>6.290000</speed>
</trkpt>
<trkpt lat="55.797066" lon="26.380333">
<ele>131.560669</ele>
<time>2010-07-17T08:36:32Z</time>
<desc>lat.=55.797066, lon.=26.380333, Alt.=131.560669m. Speed=21.275999m/h.</desc>
<speed>5.910000</speed>
</trkpt>
<trkpt lat="55.797020" lon="26.380278">
<ele>131.361450</ele>
<time>2010-07-17T08:36:33Z</time>
<desc>lat.=55.797020, lon.=26.380278, Alt.=131.361450m. Speed=22.032000m/h.</desc>
<speed>6.120000</speed>
</trkpt>
<trkpt lat="55.796974" lon="26.380213">
<ele>130.931763</ele>
<time>2010-07-17T08:36:34Z</time>
<desc>lat.=55.796974, lon.=26.380213, Alt.=130.931763m. Speed=22.608000m/h.</desc>
<speed>6.280000</speed>
</trkpt>
<trkpt lat="55.796928" lon="26.380157">
<ele>130.349731</ele>
<time>2010-07-17T08:36:35Z</time>
<desc>lat.=55.796928, lon.=26.380157, Alt.=130.349731m. Speed=22.716000m/h.</desc>
<speed>6.310000</speed>
</trkpt>
<trkpt lat="55.796879" lon="26.380098">
<ele>130.345825</ele>
<time>2010-07-17T08:36:36Z</time>
<desc>lat.=55.796879, lon.=26.380098, Alt.=130.345825m. Speed=22.104000m/h.</desc>
<speed>6.140000</speed>
</trkpt>
<trkpt lat="55.796837" lon="26.380037">
<ele>130.662231</ele>
<time>2010-07-17T08:36:37Z</time>
<desc>lat.=55.796837, lon.=26.380037, Alt.=130.662231m. Speed=22.427999m/h.</desc>
<speed>6.230000</speed>
</trkpt>
<trkpt lat="55.796791" lon="26.379974">
<ele>131.103638</ele>
<time>2010-07-17T08:36:38Z</time>
<desc>lat.=55.796791, lon.=26.379974, Alt.=131.103638m. Speed=21.743999m/h.</desc>
<speed>6.040000</speed>
</trkpt>
<trkpt lat="55.796745" lon="26.379919">
<ele>130.146606</ele>
<time>2010-07-17T08:36:39Z</time>
<desc>lat.=55.796745, lon.=26.379919, Alt.=130.146606m. Speed=21.851999m/h.</desc>
<speed>6.070000</speed>
</trkpt>
<trkpt lat="55.796700" lon="26.379858">
<ele>130.009888</ele>
<time>2010-07-17T08:36:40Z</time>
<desc>lat.=55.796700, lon.=26.379858, Alt.=130.009888m. Speed=21.816000m/h.</desc>
<speed>6.060000</speed>
</trkpt>
<trkpt lat="55.796658" lon="26.379795">
<ele>130.673950</ele>
<time>2010-07-17T08:36:41Z</time>
<desc>lat.=55.796658, lon.=26.379795, Alt.=130.673950m. Speed=21.167999m/h.</desc>
<speed>5.880000</speed>
</trkpt>
<trkpt lat="55.796616" lon="26.379740">
<ele>130.455200</ele>
<time>2010-07-17T08:36:42Z</time>
<desc>lat.=55.796616, lon.=26.379740, Alt.=130.455200m. Speed=21.384001m/h.</desc>
<speed>5.940000</speed>
</trkpt>
<trkpt lat="55.796570" lon="26.379673">
<ele>129.880981</ele>
<time>2010-07-17T08:36:43Z</time>
<desc>lat.=55.796570, lon.=26.379673, Alt.=129.880981m. Speed=21.924000m/h.</desc>
<speed>6.090000</speed>
</trkpt>
<trkpt lat="55.796528" lon="26.379618">
<ele>129.736450</ele>
<time>2010-07-17T08:36:44Z</time>
<desc>lat.=55.796528, lon.=26.379618, Alt.=129.736450m. Speed=20.700001m/h.</desc>
<speed>5.750000</speed>
</trkpt>
<trkpt lat="55.796486" lon="26.379566">
<ele>130.213013</ele>
<time>2010-07-17T08:36:45Z</time>
<desc>lat.=55.796486, lon.=26.379566, Alt.=130.213013m. Speed=20.195999m/h.</desc>
<speed>5.610000</speed>
</trkpt>
<trkpt lat="55.796444" lon="26.379519">
<ele>130.365356</ele>
<time>2010-07-17T08:36:46Z</time>
<desc>lat.=55.796444, lon.=26.379519, Alt.=130.365356m. Speed=19.620001m/h.</desc>
<speed>5.450000</speed>
</trkpt>
<trkpt lat="55.796402" lon="26.379471">
<ele>130.740356</ele>
<time>2010-07-17T08:36:47Z</time>
<desc>lat.=55.796402, lon.=26.379471, Alt.=130.740356m. Speed=19.548000m/h.</desc>
<speed>5.430000</speed>
</trkpt>
<trkpt lat="55.796364" lon="26.379421">
<ele>131.123169</ele>
<time>2010-07-17T08:36:48Z</time>
<desc>lat.=55.796364, lon.=26.379421, Alt.=131.123169m. Speed=19.080000m/h.</desc>
<speed>5.300000</speed>
</trkpt>
<trkpt lat="55.796326" lon="26.379360">
<ele>131.193481</ele>
<time>2010-07-17T08:36:49Z</time>
<desc>lat.=55.796326, lon.=26.379360, Alt.=131.193481m. Speed=20.520000m/h.</desc>
<speed>5.700000</speed>
</trkpt>
<trkpt lat="55.796284" lon="26.379303">
<ele>131.095825</ele>
<time>2010-07-17T08:36:50Z</time>
<desc>lat.=55.796284, lon.=26.379303, Alt.=131.095825m. Speed=18.864000m/h.</desc>
<speed>5.240000</speed>
</trkpt>
<trkpt lat="55.796249" lon="26.379255">
<ele>131.638794</ele>
<time>2010-07-17T08:36:51Z</time>
<desc>lat.=55.796249, lon.=26.379255, Alt.=131.638794m. Speed=18.000000m/h.</desc>
<speed>5.000000</speed>
</trkpt>
<trkpt lat="55.796215" lon="26.379210">
<ele>132.615356</ele>
<time>2010-07-17T08:36:52Z</time>
<desc>lat.=55.796215, lon.=26.379210, Alt.=132.615356m. Speed=16.596001m/h.</desc>
<speed>4.610000</speed>
</trkpt>
<trkpt lat="55.796185" lon="26.379169">
<ele>133.295044</ele>
<time>2010-07-17T08:36:53Z</time>
<desc>lat.=55.796185, lon.=26.379169, Alt.=133.295044m. Speed=14.580000m/h.</desc>
<speed>4.050000</speed>
</trkpt>
<trkpt lat="55.796154" lon="26.379128">
<ele>133.412231</ele>
<time>2010-07-17T08:36:54Z</time>
<desc>lat.=55.796154, lon.=26.379128, Alt.=133.412231m. Speed=14.508000m/h.</desc>
<speed>4.030000</speed>
</trkpt>
<trkpt lat="55.796120" lon="26.379093">
<ele>132.802856</ele>
<time>2010-07-17T08:36:55Z</time>
<desc>lat.=55.796120, lon.=26.379093, Alt.=132.802856m. Speed=14.796000m/h.</desc>
<speed>4.110000</speed>
</trkpt>
<trkpt lat="55.796085" lon="26.379045">
<ele>132.834106</ele>
<time>2010-07-17T08:36:56Z</time>
<desc>lat.=55.796085, lon.=26.379045, Alt.=132.834106m. Speed=14.796000m/h.</desc>
<speed>4.110000</speed>
</trkpt>
<trkpt lat="55.796055" lon="26.379002">
<ele>132.978638</ele>
<time>2010-07-17T08:36:57Z</time>
<desc>lat.=55.796055, lon.=26.379002, Alt.=132.978638m. Speed=14.220000m/h.</desc>
<speed>3.950000</speed>
</trkpt>
<trkpt lat="55.796024" lon="26.378956">
<ele>132.818481</ele>
<time>2010-07-17T08:36:58Z</time>
<desc>lat.=55.796024, lon.=26.378956, Alt.=132.818481m. Speed=14.580000m/h.</desc>
<speed>4.050000</speed>
</trkpt>
<trkpt lat="55.795994" lon="26.378914">
<ele>132.134888</ele>
<time>2010-07-17T08:36:59Z</time>
<desc>lat.=55.795994, lon.=26.378914, Alt.=132.134888m. Speed=13.824000m/h.</desc>
<speed>3.840000</speed>
</trkpt>
<trkpt lat="55.795971" lon="26.378878">
<ele>134.099731</ele>
<time>2010-07-17T08:37:00Z</time>
<desc>lat.=55.795971, lon.=26.378878, Alt.=134.099731m. Speed=14.256000m/h.</desc>
<speed>3.960000</speed>
</trkpt>
<trkpt lat="55.795944" lon="26.378839">
<ele>133.998169</ele>
<time>2010-07-17T08:37:01Z</time>
<desc>lat.=55.795944, lon.=26.378839, Alt.=133.998169m. Speed=13.428000m/h.</desc>
<speed>3.730000</speed>
</trkpt>
<trkpt lat="55.795914" lon="26.378807">
<ele>134.345825</ele>
<time>2010-07-17T08:37:02Z</time>
<desc>lat.=55.795914, lon.=26.378807, Alt.=134.345825m. Speed=13.752000m/h.</desc>
<speed>3.820000</speed>
</trkpt>
<trkpt lat="55.795891" lon="26.378769">
<ele>134.767700</ele>
<time>2010-07-17T08:37:03Z</time>
<desc>lat.=55.795891, lon.=26.378769, Alt.=134.767700m. Speed=13.284000m/h.</desc>
<speed>3.690000</speed>
</trkpt>
<trkpt lat="55.795860" lon="26.378727">
<ele>134.818481</ele>
<time>2010-07-17T08:37:04Z</time>
<desc>lat.=55.795860, lon.=26.378727, Alt.=134.818481m. Speed=14.580000m/h.</desc>
<speed>4.050000</speed>
</trkpt>
<trkpt lat="55.795834" lon="26.378685">
<ele>134.908325</ele>
<time>2010-07-17T08:37:05Z</time>
<desc>lat.=55.795834, lon.=26.378685, Alt.=134.908325m. Speed=12.924000m/h.</desc>
<speed>3.590000</speed>
</trkpt>
<trkpt lat="55.795807" lon="26.378649">
<ele>135.220825</ele>
<time>2010-07-17T08:37:06Z</time>
<desc>lat.=55.795807, lon.=26.378649, Alt.=135.220825m. Speed=13.860000m/h.</desc>
<speed>3.850000</speed>
</trkpt>
<trkpt lat="55.795780" lon="26.378611">
<ele>135.759888</ele>
<time>2010-07-17T08:37:07Z</time>
<desc>lat.=55.795780, lon.=26.378611, Alt.=135.759888m. Speed=12.996000m/h.</desc>
<speed>3.610000</speed>
</trkpt>
<trkpt lat="55.795757" lon="26.378574">
<ele>135.791138</ele>
<time>2010-07-17T08:37:08Z</time>
<desc>lat.=55.795757, lon.=26.378574, Alt.=135.791138m. Speed=12.132000m/h.</desc>
<speed>3.370000</speed>
</trkpt>
<trkpt lat="55.795731" lon="26.378532">
<ele>136.033325</ele>
<time>2010-07-17T08:37:09Z</time>
<desc>lat.=55.795731, lon.=26.378532, Alt.=136.033325m. Speed=12.996000m/h.</desc>
<speed>3.610000</speed>
</trkpt>
<trkpt lat="55.795704" lon="26.378494">
<ele>136.494263</ele>
<time>2010-07-17T08:37:10Z</time>
<desc>lat.=55.795704, lon.=26.378494, Alt.=136.494263m. Speed=14.184000m/h.</desc>
<speed>3.940000</speed>
</trkpt>
<trkpt lat="55.795673" lon="26.378479">
<ele>135.150513</ele>
<time>2010-07-17T08:37:11Z</time>
<desc>lat.=55.795673, lon.=26.378479, Alt.=135.150513m. Speed=12.960000m/h.</desc>
<speed>3.600000</speed>
</trkpt>
<trkpt lat="55.795647" lon="26.378441">
<ele>135.560669</ele>
<time>2010-07-17T08:37:12Z</time>
<desc>lat.=55.795647, lon.=26.378441, Alt.=135.560669m. Speed=13.104000m/h.</desc>
<speed>3.640000</speed>
</trkpt>
<trkpt lat="55.795620" lon="26.378405">
<ele>136.091919</ele>
<time>2010-07-17T08:37:13Z</time>
<desc>lat.=55.795620, lon.=26.378405, Alt.=136.091919m. Speed=12.744000m/h.</desc>
<speed>3.540000</speed>
</trkpt>
<trkpt lat="55.795593" lon="26.378374">
<ele>136.224731</ele>
<time>2010-07-17T08:37:14Z</time>
<desc>lat.=55.795593, lon.=26.378374, Alt.=136.224731m. Speed=12.348000m/h.</desc>
<speed>3.430000</speed>
</trkpt>
<trkpt lat="55.795567" lon="26.378334">
<ele>136.306763</ele>
<time>2010-07-17T08:37:15Z</time>
<desc>lat.=55.795567, lon.=26.378334, Alt.=136.306763m. Speed=14.580000m/h.</desc>
<speed>4.050000</speed>
</trkpt>
<trkpt lat="55.795532" lon="26.378288">
<ele>136.548950</ele>
<time>2010-07-17T08:37:16Z</time>
<desc>lat.=55.795532, lon.=26.378288, Alt.=136.548950m. Speed=14.436000m/h.</desc>
<speed>4.010000</speed>
</trkpt>
<trkpt lat="55.795502" lon="26.378246">
<ele>136.865356</ele>
<time>2010-07-17T08:37:17Z</time>
<desc>lat.=55.795502, lon.=26.378246, Alt.=136.865356m. Speed=14.292000m/h.</desc>
<speed>3.970000</speed>
</trkpt>
<trkpt lat="55.795475" lon="26.378204">
<ele>136.775513</ele>
<time>2010-07-17T08:37:18Z</time>
<desc>lat.=55.795475, lon.=26.378204, Alt.=136.775513m. Speed=14.040000m/h.</desc>
<speed>3.900000</speed>
</trkpt>
<trkpt lat="55.795448" lon="26.378172">
<ele>137.603638</ele>
<time>2010-07-17T08:37:19Z</time>
<desc>lat.=55.795448, lon.=26.378172, Alt.=137.603638m. Speed=12.420000m/h.</desc>
<speed>3.450000</speed>
</trkpt>
<trkpt lat="55.795418" lon="26.378138">
<ele>137.849731</ele>
<time>2010-07-17T08:37:20Z</time>
<desc>lat.=55.795418, lon.=26.378138, Alt.=137.849731m. Speed=14.292000m/h.</desc>
<speed>3.970000</speed>
</trkpt>
<trkpt lat="55.795383" lon="26.378101">
<ele>138.048950</ele>
<time>2010-07-17T08:37:21Z</time>
<desc>lat.=55.795383, lon.=26.378101, Alt.=138.048950m. Speed=13.140000m/h.</desc>
<speed>3.650000</speed>
</trkpt>
<trkpt lat="55.795357" lon="26.378069">
<ele>138.834106</ele>
<time>2010-07-17T08:37:22Z</time>
<desc>lat.=55.795357, lon.=26.378069, Alt.=138.834106m. Speed=13.212000m/h.</desc>
<speed>3.670000</speed>
</trkpt>
<trkpt lat="55.795330" lon="26.378031">
<ele>139.072388</ele>
<time>2010-07-17T08:37:23Z</time>
<desc>lat.=55.795330, lon.=26.378031, Alt.=139.072388m. Speed=15.120000m/h.</desc>
<speed>4.200000</speed>
</trkpt>
<trkpt lat="55.795292" lon="26.378000">
<ele>138.767700</ele>
<time>2010-07-17T08:37:24Z</time>
<desc>lat.=55.795292, lon.=26.378000, Alt.=138.767700m. Speed=15.192000m/h.</desc>
<speed>4.220000</speed>
</trkpt>
<trkpt lat="55.795261" lon="26.377956">
<ele>138.591919</ele>
<time>2010-07-17T08:37:25Z</time>
<desc>lat.=55.795261, lon.=26.377956, Alt.=138.591919m. Speed=16.884001m/h.</desc>
<speed>4.690000</speed>
</trkpt>
<trkpt lat="55.795223" lon="26.377909">
<ele>139.298950</ele>
<time>2010-07-17T08:37:26Z</time>
<desc>lat.=55.795223, lon.=26.377909, Alt.=139.298950m. Speed=16.236000m/h.</desc>
<speed>4.510000</speed>
</trkpt>
<trkpt lat="55.795189" lon="26.377855">
<ele>139.853638</ele>
<time>2010-07-17T08:37:27Z</time>
<desc>lat.=55.795189, lon.=26.377855, Alt.=139.853638m. Speed=16.379999m/h.</desc>
<speed>4.550000</speed>
</trkpt>
<trkpt lat="55.795155" lon="26.377802">
<ele>140.197388</ele>
<time>2010-07-17T08:37:28Z</time>
<desc>lat.=55.795155, lon.=26.377802, Alt.=140.197388m. Speed=17.280001m/h.</desc>
<speed>4.800000</speed>
</trkpt>
<trkpt lat="55.795116" lon="26.377747">
<ele>140.060669</ele>
<time>2010-07-17T08:37:29Z</time>
<desc>lat.=55.795116, lon.=26.377747, Alt.=140.060669m. Speed=17.100000m/h.</desc>
<speed>4.750000</speed>
</trkpt>
<trkpt lat="55.795082" lon="26.377703">
<ele>139.939575</ele>
<time>2010-07-17T08:37:30Z</time>
<desc>lat.=55.795082, lon.=26.377703, Alt.=139.939575m. Speed=17.424000m/h.</desc>
<speed>4.840000</speed>
</trkpt>
<trkpt lat="55.795044" lon="26.377651">
<ele>140.447388</ele>
<time>2010-07-17T08:37:31Z</time>
<desc>lat.=55.795044, lon.=26.377651, Alt.=140.447388m. Speed=17.639999m/h.</desc>
<speed>4.900000</speed>
</trkpt>
<trkpt lat="55.794998" lon="26.377600">
<ele>140.236450</ele>
<time>2010-07-17T08:37:32Z</time>
<desc>lat.=55.794998, lon.=26.377600, Alt.=140.236450m. Speed=19.224001m/h.</desc>
<speed>5.340000</speed>
</trkpt>
<trkpt lat="55.794960" lon="26.377539">
<ele>140.720825</ele>
<time>2010-07-17T08:37:33Z</time>
<desc>lat.=55.794960, lon.=26.377539, Alt.=140.720825m. Speed=18.827999m/h.</desc>
<speed>5.230000</speed>
</trkpt>
<trkpt lat="55.794922" lon="26.377480">
<ele>140.439575</ele>
<time>2010-07-17T08:37:34Z</time>
<desc>lat.=55.794922, lon.=26.377480, Alt.=140.439575m. Speed=18.252001m/h.</desc>
<speed>5.070000</speed>
</trkpt>
<trkpt lat="55.794884" lon="26.377438">
<ele>140.236450</ele>
<time>2010-07-17T08:37:35Z</time>
<desc>lat.=55.794884, lon.=26.377438, Alt.=140.236450m. Speed=16.667999m/h.</desc>
<speed>4.630000</speed>
</trkpt>
<trkpt lat="55.794846" lon="26.377403">
<ele>140.107544</ele>
<time>2010-07-17T08:37:36Z</time>
<desc>lat.=55.794846, lon.=26.377403, Alt.=140.107544m. Speed=15.624000m/h.</desc>
<speed>4.340000</speed>
</trkpt>
<trkpt lat="55.794811" lon="26.377363">
<ele>140.244263</ele>
<time>2010-07-17T08:37:37Z</time>
<desc>lat.=55.794811, lon.=26.377363, Alt.=140.244263m. Speed=16.416000m/h.</desc>
<speed>4.560000</speed>
</trkpt>
<trkpt lat="55.794773" lon="26.377310">
<ele>140.541138</ele>
<time>2010-07-17T08:37:38Z</time>
<desc>lat.=55.794773, lon.=26.377310, Alt.=140.541138m. Speed=17.747999m/h.</desc>
<speed>4.930000</speed>
</trkpt>
<trkpt lat="55.794731" lon="26.377266">
<ele>140.181763</ele>
<time>2010-07-17T08:37:39Z</time>
<desc>lat.=55.794731, lon.=26.377266, Alt.=140.181763m. Speed=17.747999m/h.</desc>
<speed>4.930000</speed>
</trkpt>
<trkpt lat="55.794689" lon="26.377230">
<ele>140.529419</ele>
<time>2010-07-17T08:37:40Z</time>
<desc>lat.=55.794689, lon.=26.377230, Alt.=140.529419m. Speed=17.243999m/h.</desc>
<speed>4.790000</speed>
</trkpt>
<trkpt lat="55.794651" lon="26.377197">
<ele>140.857544</ele>
<time>2010-07-17T08:37:41Z</time>
<desc>lat.=55.794651, lon.=26.377197, Alt.=140.857544m. Speed=14.472000m/h.</desc>
<speed>4.020000</speed>
</trkpt>
<trkpt lat="55.794613" lon="26.377163">
<ele>140.599731</ele>
<time>2010-07-17T08:37:42Z</time>
<desc>lat.=55.794613, lon.=26.377163, Alt.=140.599731m. Speed=15.336000m/h.</desc>
<speed>4.260000</speed>
</trkpt>
<trkpt lat="55.794575" lon="26.377121">
<ele>140.658325</ele>
<time>2010-07-17T08:37:43Z</time>
<desc>lat.=55.794575, lon.=26.377121, Alt.=140.658325m. Speed=16.667999m/h.</desc>
<speed>4.630000</speed>
</trkpt>
<trkpt lat="55.794537" lon="26.377073">
<ele>141.111450</ele>
<time>2010-07-17T08:37:44Z</time>
<desc>lat.=55.794537, lon.=26.377073, Alt.=141.111450m. Speed=16.775999m/h.</desc>
<speed>4.660000</speed>
</trkpt>
<trkpt lat="55.794498" lon="26.377026">
<ele>141.642700</ele>
<time>2010-07-17T08:37:45Z</time>
<desc>lat.=55.794498, lon.=26.377026, Alt.=141.642700m. Speed=16.091999m/h.</desc>
<speed>4.470000</speed>
</trkpt>
<trkpt lat="55.794460" lon="26.376972">
<ele>141.888794</ele>
<time>2010-07-17T08:37:46Z</time>
<desc>lat.=55.794460, lon.=26.376972, Alt.=141.888794m. Speed=17.532000m/h.</desc>
<speed>4.870000</speed>
</trkpt>
<trkpt lat="55.794422" lon="26.376915">
<ele>142.310669</ele>
<time>2010-07-17T08:37:47Z</time>
<desc>lat.=55.794422, lon.=26.376915, Alt.=142.310669m. Speed=17.568001m/h.</desc>
<speed>4.880000</speed>
</trkpt>
<trkpt lat="55.794376" lon="26.376862">
<ele>142.791138</ele>
<time>2010-07-17T08:37:48Z</time>
<desc>lat.=55.794376, lon.=26.376862, Alt.=142.791138m. Speed=18.972000m/h.</desc>
<speed>5.270000</speed>
</trkpt>
<trkpt lat="55.794334" lon="26.376804">
<ele>143.189575</ele>
<time>2010-07-17T08:37:49Z</time>
<desc>lat.=55.794334, lon.=26.376804, Alt.=143.189575m. Speed=18.035999m/h.</desc>
<speed>5.010000</speed>
</trkpt>
<trkpt lat="55.794289" lon="26.376757">
<ele>143.716919</ele>
<time>2010-07-17T08:37:50Z</time>
<desc>lat.=55.794289, lon.=26.376757, Alt.=143.716919m. Speed=18.468000m/h.</desc>
<speed>5.130000</speed>
</trkpt>
<trkpt lat="55.794250" lon="26.376720">
<ele>144.209106</ele>
<time>2010-07-17T08:37:51Z</time>
<desc>lat.=55.794250, lon.=26.376720, Alt.=144.209106m. Speed=15.912000m/h.</desc>
<speed>4.420000</speed>
</trkpt>
<trkpt lat="55.794209" lon="26.376671">
<ele>144.900513</ele>
<time>2010-07-17T08:37:52Z</time>
<desc>lat.=55.794209, lon.=26.376671, Alt.=144.900513m. Speed=16.524000m/h.</desc>
<speed>4.590000</speed>
</trkpt>
<trkpt lat="55.794163" lon="26.376617">
<ele>142.607544</ele>
<time>2010-07-17T08:37:53Z</time>
<desc>lat.=55.794163, lon.=26.376617, Alt.=142.607544m. Speed=17.892000m/h.</desc>
<speed>4.970000</speed>
</trkpt>
<trkpt lat="55.794125" lon="26.376572">
<ele>143.322388</ele>
<time>2010-07-17T08:37:54Z</time>
<desc>lat.=55.794125, lon.=26.376572, Alt.=143.322388m. Speed=18.396000m/h.</desc>
<speed>5.110000</speed>
</trkpt>
<trkpt lat="55.794083" lon="26.376497">
<ele>144.123169</ele>
<time>2010-07-17T08:37:55Z</time>
<desc>lat.=55.794083, lon.=26.376497, Alt.=144.123169m. Speed=18.792000m/h.</desc>
<speed>5.220000</speed>
</trkpt>
<trkpt lat="55.794044" lon="26.376431">
<ele>145.244263</ele>
<time>2010-07-17T08:37:56Z</time>
<desc>lat.=55.794044, lon.=26.376431, Alt.=145.244263m. Speed=17.316000m/h.</desc>
<speed>4.810000</speed>
</trkpt>
<trkpt lat="55.794006" lon="26.376379">
<ele>145.880981</ele>
<time>2010-07-17T08:37:57Z</time>
<desc>lat.=55.794006, lon.=26.376379, Alt.=145.880981m. Speed=17.892000m/h.</desc>
<speed>4.970000</speed>
</trkpt>
<trkpt lat="55.793972" lon="26.376324">
<ele>146.498169</ele>
<time>2010-07-17T08:37:58Z</time>
<desc>lat.=55.793972, lon.=26.376324, Alt.=146.498169m. Speed=17.712000m/h.</desc>
<speed>4.920000</speed>
</trkpt>
<trkpt lat="55.793938" lon="26.376266">
<ele>147.447388</ele>
<time>2010-07-17T08:37:59Z</time>
<desc>lat.=55.793938, lon.=26.376266, Alt.=147.447388m. Speed=17.028000m/h.</desc>
<speed>4.730000</speed>
</trkpt>
<trkpt lat="55.793900" lon="26.376209">
<ele>147.990356</ele>
<time>2010-07-17T08:38:00Z</time>
<desc>lat.=55.793900, lon.=26.376209, Alt.=147.990356m. Speed=17.856001m/h.</desc>
<speed>4.960000</speed>
</trkpt>
<trkpt lat="55.793865" lon="26.376146">
<ele>148.603638</ele>
<time>2010-07-17T08:38:01Z</time>
<desc>lat.=55.793865, lon.=26.376146, Alt.=148.603638m. Speed=18.323999m/h.</desc>
<speed>5.090000</speed>
</trkpt>
<trkpt lat="55.793831" lon="26.376095">
<ele>149.240356</ele>
<time>2010-07-17T08:38:02Z</time>
<desc>lat.=55.793831, lon.=26.376095, Alt.=149.240356m. Speed=17.243999m/h.</desc>
<speed>4.790000</speed>
</trkpt>
<trkpt lat="55.793797" lon="26.376040">
<ele>149.783325</ele>
<time>2010-07-17T08:38:03Z</time>
<desc>lat.=55.793797, lon.=26.376040, Alt.=149.783325m. Speed=17.243999m/h.</desc>
<speed>4.790000</speed>
</trkpt>
<trkpt lat="55.793766" lon="26.375994">
<ele>150.076294</ele>
<time>2010-07-17T08:38:04Z</time>
<desc>lat.=55.793766, lon.=26.375994, Alt.=150.076294m. Speed=18.143999m/h.</desc>
<speed>5.040000</speed>
</trkpt>
<trkpt lat="55.793728" lon="26.375944">
<ele>150.619263</ele>
<time>2010-07-17T08:38:05Z</time>
<desc>lat.=55.793728, lon.=26.375944, Alt.=150.619263m. Speed=17.532000m/h.</desc>
<speed>4.870000</speed>
</trkpt>
<trkpt lat="55.793690" lon="26.375895">
<ele>151.259888</ele>
<time>2010-07-17T08:38:06Z</time>
<desc>lat.=55.793690, lon.=26.375895, Alt.=151.259888m. Speed=19.260000m/h.</desc>
<speed>5.350000</speed>
</trkpt>
<trkpt lat="55.793644" lon="26.375845">
<ele>151.689575</ele>
<time>2010-07-17T08:38:07Z</time>
<desc>lat.=55.793644, lon.=26.375845, Alt.=151.689575m. Speed=20.736000m/h.</desc>
<speed>5.760000</speed>
</trkpt>
<trkpt lat="55.793602" lon="26.375782">
<ele>152.142700</ele>
<time>2010-07-17T08:38:08Z</time>
<desc>lat.=55.793602, lon.=26.375782, Alt.=152.142700m. Speed=19.584000m/h.</desc>
<speed>5.440000</speed>
</trkpt>
<trkpt lat="55.793564" lon="26.375713">
<ele>152.533325</ele>
<time>2010-07-17T08:38:09Z</time>
<desc>lat.=55.793564, lon.=26.375713, Alt.=152.533325m. Speed=19.044001m/h.</desc>
<speed>5.290000</speed>
</trkpt>
<trkpt lat="55.793530" lon="26.375647">
<ele>153.232544</ele>
<time>2010-07-17T08:38:10Z</time>
<desc>lat.=55.793530, lon.=26.375647, Alt.=153.232544m. Speed=19.296000m/h.</desc>
<speed>5.360000</speed>
</trkpt>
<trkpt lat="55.793491" lon="26.375582">
<ele>153.451294</ele>
<time>2010-07-17T08:38:11Z</time>
<desc>lat.=55.793491, lon.=26.375582, Alt.=153.451294m. Speed=19.007999m/h.</desc>
<speed>5.280000</speed>
</trkpt>
<trkpt lat="55.793449" lon="26.375513">
<ele>153.029419</ele>
<time>2010-07-17T08:38:12Z</time>
<desc>lat.=55.793449, lon.=26.375513, Alt.=153.029419m. Speed=20.195999m/h.</desc>
<speed>5.610000</speed>
</trkpt>
<trkpt lat="55.793404" lon="26.375443">
<ele>151.767700</ele>
<time>2010-07-17T08:38:13Z</time>
<desc>lat.=55.793404, lon.=26.375443, Alt.=151.767700m. Speed=19.260000m/h.</desc>
<speed>5.350000</speed>
</trkpt>
<trkpt lat="55.793362" lon="26.375378">
<ele>150.392700</ele>
<time>2010-07-17T08:38:14Z</time>
<desc>lat.=55.793362, lon.=26.375378, Alt.=150.392700m. Speed=19.080000m/h.</desc>
<speed>5.300000</speed>
</trkpt>
<trkpt lat="55.793331" lon="26.375322">
<ele>150.248169</ele>
<time>2010-07-17T08:38:15Z</time>
<desc>lat.=55.793331, lon.=26.375322, Alt.=150.248169m. Speed=17.820000m/h.</desc>
<speed>4.950000</speed>
</trkpt>
<trkpt lat="55.793297" lon="26.375277">
<ele>150.158325</ele>
<time>2010-07-17T08:38:16Z</time>
<desc>lat.=55.793297, lon.=26.375277, Alt.=150.158325m. Speed=17.243999m/h.</desc>
<speed>4.790000</speed>
</trkpt>
<trkpt lat="55.793255" lon="26.375231">
<ele>149.935669</ele>
<time>2010-07-17T08:38:17Z</time>
<desc>lat.=55.793255, lon.=26.375231, Alt.=149.935669m. Speed=18.719999m/h.</desc>
<speed>5.200000</speed>
</trkpt>
<trkpt lat="55.793213" lon="26.375183">
<ele>149.564575</ele>
<time>2010-07-17T08:38:18Z</time>
<desc>lat.=55.793213, lon.=26.375183, Alt.=149.564575m. Speed=20.052000m/h.</desc>
<speed>5.570000</speed>
</trkpt>
<trkpt lat="55.793175" lon="26.375134">
<ele>149.798950</ele>
<time>2010-07-17T08:38:19Z</time>
<desc>lat.=55.793175, lon.=26.375134, Alt.=149.798950m. Speed=19.224001m/h.</desc>
<speed>5.340000</speed>
</trkpt>
<trkpt lat="55.793133" lon="26.375082">
<ele>149.974731</ele>
<time>2010-07-17T08:38:20Z</time>
<desc>lat.=55.793133, lon.=26.375082, Alt.=149.974731m. Speed=20.195999m/h.</desc>
<speed>5.610000</speed>
</trkpt>
<trkpt lat="55.793091" lon="26.375031">
<ele>150.322388</ele>
<time>2010-07-17T08:38:21Z</time>
<desc>lat.=55.793091, lon.=26.375031, Alt.=150.322388m. Speed=20.375999m/h.</desc>
<speed>5.660000</speed>
</trkpt>
<trkpt lat="55.793049" lon="26.374977">
<ele>150.775513</ele>
<time>2010-07-17T08:38:22Z</time>
<desc>lat.=55.793049, lon.=26.374977, Alt.=150.775513m. Speed=20.087999m/h.</desc>
<speed>5.580000</speed>
</trkpt>
<trkpt lat="55.793011" lon="26.374935">
<ele>152.478638</ele>
<time>2010-07-17T08:38:23Z</time>
<desc>lat.=55.793011, lon.=26.374935, Alt.=152.478638m. Speed=19.799999m/h.</desc>
<speed>5.500000</speed>
</trkpt>
<trkpt lat="55.792969" lon="26.374889">
<ele>153.681763</ele>
<time>2010-07-17T08:38:24Z</time>
<desc>lat.=55.792969, lon.=26.374889, Alt.=153.681763m. Speed=20.052000m/h.</desc>
<speed>5.570000</speed>
</trkpt>
<trkpt lat="55.792927" lon="26.374838">
<ele>154.459106</ele>
<time>2010-07-17T08:38:25Z</time>
<desc>lat.=55.792927, lon.=26.374838, Alt.=154.459106m. Speed=21.816000m/h.</desc>
<speed>6.060000</speed>
</trkpt>
<trkpt lat="55.792889" lon="26.374769">
<ele>153.748169</ele>
<time>2010-07-17T08:38:26Z</time>
<desc>lat.=55.792889, lon.=26.374769, Alt.=153.748169m. Speed=22.320000m/h.</desc>
<speed>6.200000</speed>
</trkpt>
<trkpt lat="55.792843" lon="26.374706">
<ele>153.755981</ele>
<time>2010-07-17T08:38:27Z</time>
<desc>lat.=55.792843, lon.=26.374706, Alt.=153.755981m. Speed=22.500000m/h.</desc>
<speed>6.250000</speed>
</trkpt>
<trkpt lat="55.792797" lon="26.374653">
<ele>153.943481</ele>
<time>2010-07-17T08:38:28Z</time>
<desc>lat.=55.792797, lon.=26.374653, Alt.=153.943481m. Speed=22.176001m/h.</desc>
<speed>6.160000</speed>
</trkpt>
<trkpt lat="55.792751" lon="26.374596">
<ele>153.798950</ele>
<time>2010-07-17T08:38:29Z</time>
<desc>lat.=55.792751, lon.=26.374596, Alt.=153.798950m. Speed=22.068001m/h.</desc>
<speed>6.130000</speed>
</trkpt>
<trkpt lat="55.792706" lon="26.374531">
<ele>153.627075</ele>
<time>2010-07-17T08:38:30Z</time>
<desc>lat.=55.792706, lon.=26.374531, Alt.=153.627075m. Speed=23.580000m/h.</desc>
<speed>6.550000</speed>
</trkpt>
<trkpt lat="55.792660" lon="26.374464">
<ele>153.177856</ele>
<time>2010-07-17T08:38:31Z</time>
<desc>lat.=55.792660, lon.=26.374464, Alt.=153.177856m. Speed=22.716000m/h.</desc>
<speed>6.310000</speed>
</trkpt>
<trkpt lat="55.792622" lon="26.374401">
<ele>152.912231</ele>
<time>2010-07-17T08:38:32Z</time>
<desc>lat.=55.792622, lon.=26.374401, Alt.=152.912231m. Speed=20.952000m/h.</desc>
<speed>5.820000</speed>
</trkpt>
<trkpt lat="55.792576" lon="26.374348">
<ele>151.787231</ele>
<time>2010-07-17T08:38:33Z</time>
<desc>lat.=55.792576, lon.=26.374348, Alt.=151.787231m. Speed=19.332001m/h.</desc>
<speed>5.370000</speed>
</trkpt>
<trkpt lat="55.792542" lon="26.374298">
<ele>151.670044</ele>
<time>2010-07-17T08:38:34Z</time>
<desc>lat.=55.792542, lon.=26.374298, Alt.=151.670044m. Speed=17.063999m/h.</desc>
<speed>4.740000</speed>
</trkpt>
<trkpt lat="55.792507" lon="26.374254">
<ele>152.822388</ele>
<time>2010-07-17T08:38:35Z</time>
<desc>lat.=55.792507, lon.=26.374254, Alt.=152.822388m. Speed=16.164000m/h.</desc>
<speed>4.490000</speed>
</trkpt>
<trkpt lat="55.792473" lon="26.374208">
<ele>152.943481</ele>
<time>2010-07-17T08:38:36Z</time>
<desc>lat.=55.792473, lon.=26.374208, Alt.=152.943481m. Speed=16.740000m/h.</desc>
<speed>4.650000</speed>
</trkpt>
<trkpt lat="55.792435" lon="26.374166">
<ele>153.533325</ele>
<time>2010-07-17T08:38:37Z</time>
<desc>lat.=55.792435, lon.=26.374166, Alt.=153.533325m. Speed=16.452000m/h.</desc>
<speed>4.570000</speed>
</trkpt>
<trkpt lat="55.792408" lon="26.374126">
<ele>153.181763</ele>
<time>2010-07-17T08:38:38Z</time>
<desc>lat.=55.792408, lon.=26.374126, Alt.=153.181763m. Speed=12.420000m/h.</desc>
<speed>3.450000</speed>
</trkpt>
<trkpt lat="55.792389" lon="26.374088">
<ele>153.865356</ele>
<time>2010-07-17T08:38:39Z</time>
<desc>lat.=55.792389, lon.=26.374088, Alt.=153.865356m. Speed=13.752000m/h.</desc>
<speed>3.820000</speed>
</trkpt>
<trkpt lat="55.792358" lon="26.374039">
<ele>152.720825</ele>
<time>2010-07-17T08:38:40Z</time>
<desc>lat.=55.792358, lon.=26.374039, Alt.=152.720825m. Speed=14.904000m/h.</desc>
<speed>4.140000</speed>
</trkpt>
<trkpt lat="55.792324" lon="26.373983">
<ele>153.248169</ele>
<time>2010-07-17T08:38:41Z</time>
<desc>lat.=55.792324, lon.=26.373983, Alt.=153.248169m. Speed=16.164000m/h.</desc>
<speed>4.490000</speed>
</trkpt>
<trkpt lat="55.792286" lon="26.373936">
<ele>155.119263</ele>
<time>2010-07-17T08:38:42Z</time>
<desc>lat.=55.792286, lon.=26.373936, Alt.=155.119263m. Speed=15.264000m/h.</desc>
<speed>4.240000</speed>
</trkpt>
<trkpt lat="55.792255" lon="26.373896">
<ele>154.896606</ele>
<time>2010-07-17T08:38:43Z</time>
<desc>lat.=55.792255, lon.=26.373896, Alt.=154.896606m. Speed=13.500000m/h.</desc>
<speed>3.750000</speed>
</trkpt>
<trkpt lat="55.792221" lon="26.373857">
<ele>154.630981</ele>
<time>2010-07-17T08:38:44Z</time>
<desc>lat.=55.792221, lon.=26.373857, Alt.=154.630981m. Speed=14.112000m/h.</desc>
<speed>3.920000</speed>
</trkpt>
<trkpt lat="55.792187" lon="26.373814">
<ele>154.892700</ele>
<time>2010-07-17T08:38:45Z</time>
<desc>lat.=55.792187, lon.=26.373814, Alt.=154.892700m. Speed=15.084000m/h.</desc>
<speed>4.190000</speed>
</trkpt>
<trkpt lat="55.792149" lon="26.373762">
<ele>154.646606</ele>
<time>2010-07-17T08:38:46Z</time>
<desc>lat.=55.792149, lon.=26.373762, Alt.=154.646606m. Speed=15.840000m/h.</desc>
<speed>4.400000</speed>
</trkpt>
<trkpt lat="55.792114" lon="26.373718">
<ele>154.427856</ele>
<time>2010-07-17T08:38:47Z</time>
<desc>lat.=55.792114, lon.=26.373718, Alt.=154.427856m. Speed=14.544000m/h.</desc>
<speed>4.040000</speed>
</trkpt>
<trkpt lat="55.792076" lon="26.373674">
<ele>154.791138</ele>
<time>2010-07-17T08:38:48Z</time>
<desc>lat.=55.792076, lon.=26.373674, Alt.=154.791138m. Speed=15.948000m/h.</desc>
<speed>4.430000</speed>
</trkpt>
<trkpt lat="55.792046" lon="26.373636">
<ele>155.213013</ele>
<time>2010-07-17T08:38:49Z</time>
<desc>lat.=55.792046, lon.=26.373636, Alt.=155.213013m. Speed=14.868000m/h.</desc>
<speed>4.130000</speed>
</trkpt>
<trkpt lat="55.792011" lon="26.373596">
<ele>155.744263</ele>
<time>2010-07-17T08:38:50Z</time>
<desc>lat.=55.792011, lon.=26.373596, Alt.=155.744263m. Speed=16.559999m/h.</desc>
<speed>4.600000</speed>
</trkpt>
<trkpt lat="55.791973" lon="26.373552">
<ele>156.201294</ele>
<time>2010-07-17T08:38:51Z</time>
<desc>lat.=55.791973, lon.=26.373552, Alt.=156.201294m. Speed=16.920000m/h.</desc>
<speed>4.700000</speed>
</trkpt>
<trkpt lat="55.791939" lon="26.373505">
<ele>156.443481</ele>
<time>2010-07-17T08:38:52Z</time>
<desc>lat.=55.791939, lon.=26.373505, Alt.=156.443481m. Speed=17.172001m/h.</desc>
<speed>4.770000</speed>
</trkpt>
<trkpt lat="55.791904" lon="26.373455">
<ele>156.709106</ele>
<time>2010-07-17T08:38:53Z</time>
<desc>lat.=55.791904, lon.=26.373455, Alt.=156.709106m. Speed=17.063999m/h.</desc>
<speed>4.740000</speed>
</trkpt>
<trkpt lat="55.791866" lon="26.373413">
<ele>157.052856</ele>
<time>2010-07-17T08:38:54Z</time>
<desc>lat.=55.791866, lon.=26.373413, Alt.=157.052856m. Speed=17.856001m/h.</desc>
<speed>4.960000</speed>
</trkpt>
<trkpt lat="55.791824" lon="26.373365">
<ele>157.392700</ele>
<time>2010-07-17T08:38:55Z</time>
<desc>lat.=55.791824, lon.=26.373365, Alt.=157.392700m. Speed=18.431999m/h.</desc>
<speed>5.120000</speed>
</trkpt>
<trkpt lat="55.791782" lon="26.373308">
<ele>157.736450</ele>
<time>2010-07-17T08:38:56Z</time>
<desc>lat.=55.791782, lon.=26.373308, Alt.=157.736450m. Speed=20.520000m/h.</desc>
<speed>5.700000</speed>
</trkpt>
<trkpt lat="55.791744" lon="26.373255">
<ele>157.998169</ele>
<time>2010-07-17T08:38:57Z</time>
<desc>lat.=55.791744, lon.=26.373255, Alt.=157.998169m. Speed=18.936001m/h.</desc>
<speed>5.260000</speed>
</trkpt>
<trkpt lat="55.791702" lon="26.373198">
<ele>158.244263</ele>
<time>2010-07-17T08:38:58Z</time>
<desc>lat.=55.791702, lon.=26.373198, Alt.=158.244263m. Speed=19.980000m/h.</desc>
<speed>5.550000</speed>
</trkpt>
<trkpt lat="55.791660" lon="26.373121">
<ele>158.150513</ele>
<time>2010-07-17T08:38:59Z</time>
<desc>lat.=55.791660, lon.=26.373121, Alt.=158.150513m. Speed=20.736000m/h.</desc>
<speed>5.760000</speed>
</trkpt>
<trkpt lat="55.791618" lon="26.373041">
<ele>158.013794</ele>
<time>2010-07-17T08:39:00Z</time>
<desc>lat.=55.791618, lon.=26.373041, Alt.=158.013794m. Speed=20.771999m/h.</desc>
<speed>5.770000</speed>
</trkpt>
<trkpt lat="55.791573" lon="26.372963">
<ele>157.939575</ele>
<time>2010-07-17T08:39:01Z</time>
<desc>lat.=55.791573, lon.=26.372963, Alt.=157.939575m. Speed=22.212000m/h.</desc>
<speed>6.170000</speed>
</trkpt>
<trkpt lat="55.791527" lon="26.372904">
<ele>158.470825</ele>
<time>2010-07-17T08:39:02Z</time>
<desc>lat.=55.791527, lon.=26.372904, Alt.=158.470825m. Speed=20.340000m/h.</desc>
<speed>5.650000</speed>
</trkpt>
<trkpt lat="55.791477" lon="26.372845">
<ele>159.201294</ele>
<time>2010-07-17T08:39:03Z</time>
<desc>lat.=55.791477, lon.=26.372845, Alt.=159.201294m. Speed=20.771999m/h.</desc>
<speed>5.770000</speed>
</trkpt>
<trkpt lat="55.791431" lon="26.372793">
<ele>159.525513</ele>
<time>2010-07-17T08:39:04Z</time>
<desc>lat.=55.791431, lon.=26.372793, Alt.=159.525513m. Speed=21.348000m/h.</desc>
<speed>5.930000</speed>
</trkpt>
<trkpt lat="55.791386" lon="26.372738">
<ele>159.369263</ele>
<time>2010-07-17T08:39:05Z</time>
<desc>lat.=55.791386, lon.=26.372738, Alt.=159.369263m. Speed=20.771999m/h.</desc>
<speed>5.770000</speed>
</trkpt>
<trkpt lat="55.791340" lon="26.372673">
<ele>159.392700</ele>
<time>2010-07-17T08:39:06Z</time>
<desc>lat.=55.791340, lon.=26.372673, Alt.=159.392700m. Speed=21.420000m/h.</desc>
<speed>5.950000</speed>
</trkpt>
<trkpt lat="55.791298" lon="26.372618">
<ele>159.619263</ele>
<time>2010-07-17T08:39:07Z</time>
<desc>lat.=55.791298, lon.=26.372618, Alt.=159.619263m. Speed=19.584000m/h.</desc>
<speed>5.440000</speed>
</trkpt>
<trkpt lat="55.791252" lon="26.372566">
<ele>159.853638</ele>
<time>2010-07-17T08:39:08Z</time>
<desc>lat.=55.791252, lon.=26.372566, Alt.=159.853638m. Speed=19.620001m/h.</desc>
<speed>5.450000</speed>
</trkpt>
<trkpt lat="55.791199" lon="26.372513">
<ele>160.427856</ele>
<time>2010-07-17T08:39:09Z</time>
<desc>lat.=55.791199, lon.=26.372513, Alt.=160.427856m. Speed=20.483999m/h.</desc>
<speed>5.690000</speed>
</trkpt>
<trkpt lat="55.791153" lon="26.372465">
<ele>160.783325</ele>
<time>2010-07-17T08:39:10Z</time>
<desc>lat.=55.791153, lon.=26.372465, Alt.=160.783325m. Speed=18.648001m/h.</desc>
<speed>5.180000</speed>
</trkpt>
<trkpt lat="55.791115" lon="26.372414">
<ele>160.931763</ele>
<time>2010-07-17T08:39:11Z</time>
<desc>lat.=55.791115, lon.=26.372414, Alt.=160.931763m. Speed=17.784000m/h.</desc>
<speed>4.940000</speed>
</trkpt>
<trkpt lat="55.791080" lon="26.372368">
<ele>161.181763</ele>
<time>2010-07-17T08:39:12Z</time>
<desc>lat.=55.791080, lon.=26.372368, Alt.=161.181763m. Speed=15.228000m/h.</desc>
<speed>4.230000</speed>
</trkpt>
<trkpt lat="55.791046" lon="26.372332">
<ele>161.216919</ele>
<time>2010-07-17T08:39:13Z</time>
<desc>lat.=55.791046, lon.=26.372332, Alt.=161.216919m. Speed=15.120000m/h.</desc>
<speed>4.200000</speed>
</trkpt>
<trkpt lat="55.791016" lon="26.372278">
<ele>161.310669</ele>
<time>2010-07-17T08:39:14Z</time>
<desc>lat.=55.791016, lon.=26.372278, Alt.=161.310669m. Speed=17.568001m/h.</desc>
<speed>4.880000</speed>
</trkpt>
<trkpt lat="55.790977" lon="26.372231">
<ele>161.380981</ele>
<time>2010-07-17T08:39:15Z</time>
<desc>lat.=55.790977, lon.=26.372231, Alt.=161.380981m. Speed=17.532000m/h.</desc>
<speed>4.870000</speed>
</trkpt>
<trkpt lat="55.790939" lon="26.372190">
<ele>161.338013</ele>
<time>2010-07-17T08:39:16Z</time>
<desc>lat.=55.790939, lon.=26.372190, Alt.=161.338013m. Speed=17.568001m/h.</desc>
<speed>4.880000</speed>
</trkpt>
<trkpt lat="55.790890" lon="26.372139">
<ele>160.369263</ele>
<time>2010-07-17T08:39:17Z</time>
<desc>lat.=55.790890, lon.=26.372139, Alt.=160.369263m. Speed=18.108000m/h.</desc>
<speed>5.030000</speed>
</trkpt>
<trkpt lat="55.790844" lon="26.372087">
<ele>160.181763</ele>
<time>2010-07-17T08:39:18Z</time>
<desc>lat.=55.790844, lon.=26.372087, Alt.=160.181763m. Speed=19.908001m/h.</desc>
<speed>5.530000</speed>
</trkpt>
<trkpt lat="55.790798" lon="26.372036">
<ele>159.853638</ele>
<time>2010-07-17T08:39:19Z</time>
<desc>lat.=55.790798, lon.=26.372036, Alt.=159.853638m. Speed=20.808001m/h.</desc>
<speed>5.780000</speed>
</trkpt>
<trkpt lat="55.790741" lon="26.371975">
<ele>159.298950</ele>
<time>2010-07-17T08:39:20Z</time>
<desc>lat.=55.790741, lon.=26.371975, Alt.=159.298950m. Speed=21.708000m/h.</desc>
<speed>6.030000</speed>
</trkpt>
<trkpt lat="55.790688" lon="26.371912">
<ele>158.654419</ele>
<time>2010-07-17T08:39:21Z</time>
<desc>lat.=55.790688, lon.=26.371912, Alt.=158.654419m. Speed=22.968000m/h.</desc>
<speed>6.380000</speed>
</trkpt>
<trkpt lat="55.790638" lon="26.371838">
<ele>157.904419</ele>
<time>2010-07-17T08:39:22Z</time>
<desc>lat.=55.790638, lon.=26.371838, Alt.=157.904419m. Speed=23.507999m/h.</desc>
<speed>6.530000</speed>
</trkpt>
<trkpt lat="55.790585" lon="26.371777">
<ele>157.591919</ele>
<time>2010-07-17T08:39:23Z</time>
<desc>lat.=55.790585, lon.=26.371777, Alt.=157.591919m. Speed=22.643999m/h.</desc>
<speed>6.290000</speed>
</trkpt>
<trkpt lat="55.790524" lon="26.371710">
<ele>156.943481</ele>
<time>2010-07-17T08:39:24Z</time>
<desc>lat.=55.790524, lon.=26.371710, Alt.=156.943481m. Speed=24.084000m/h.</desc>
<speed>6.690000</speed>
</trkpt>
<trkpt lat="55.790459" lon="26.371645">
<ele>156.408325</ele>
<time>2010-07-17T08:39:25Z</time>
<desc>lat.=55.790459, lon.=26.371645, Alt.=156.408325m. Speed=26.100000m/h.</desc>
<speed>7.250000</speed>
</trkpt>
<trkpt lat="55.790394" lon="26.371569">
<ele>155.767700</ele>
<time>2010-07-17T08:39:26Z</time>
<desc>lat.=55.790394, lon.=26.371569, Alt.=155.767700m. Speed=27.108000m/h.</desc>
<speed>7.530000</speed>
</trkpt>
<trkpt lat="55.790337" lon="26.371494">
<ele>155.115356</ele>
<time>2010-07-17T08:39:27Z</time>
<desc>lat.=55.790337, lon.=26.371494, Alt.=155.115356m. Speed=26.892000m/h.</desc>
<speed>7.470000</speed>
</trkpt>
<trkpt lat="55.790276" lon="26.371431">
<ele>154.896606</ele>
<time>2010-07-17T08:39:28Z</time>
<desc>lat.=55.790276, lon.=26.371431, Alt.=154.896606m. Speed=27.252001m/h.</desc>
<speed>7.570000</speed>
</trkpt>
<trkpt lat="55.790218" lon="26.371359">
<ele>154.689575</ele>
<time>2010-07-17T08:39:29Z</time>
<desc>lat.=55.790218, lon.=26.371359, Alt.=154.689575m. Speed=26.747999m/h.</desc>
<speed>7.430000</speed>
</trkpt>
<trkpt lat="55.790157" lon="26.371277">
<ele>154.783325</ele>
<time>2010-07-17T08:39:30Z</time>
<desc>lat.=55.790157, lon.=26.371277, Alt.=154.783325m. Speed=27.972000m/h.</desc>
<speed>7.770000</speed>
</trkpt>
<trkpt lat="55.790096" lon="26.371183">
<ele>155.369263</ele>
<time>2010-07-17T08:39:31Z</time>
<desc>lat.=55.790096, lon.=26.371183, Alt.=155.369263m. Speed=29.016001m/h.</desc>
<speed>8.060000</speed>
</trkpt>
<trkpt lat="55.790039" lon="26.371096">
<ele>156.002075</ele>
<time>2010-07-17T08:39:32Z</time>
<desc>lat.=55.790039, lon.=26.371096, Alt.=156.002075m. Speed=27.431999m/h.</desc>
<speed>7.620000</speed>
</trkpt>
<trkpt lat="55.789986" lon="26.371008">
<ele>156.908325</ele>
<time>2010-07-17T08:39:33Z</time>
<desc>lat.=55.789986, lon.=26.371008, Alt.=156.908325m. Speed=27.288000m/h.</desc>
<speed>7.580000</speed>
</trkpt>
<trkpt lat="55.789925" lon="26.370909">
<ele>157.377075</ele>
<time>2010-07-17T08:39:34Z</time>
<desc>lat.=55.789925, lon.=26.370909, Alt.=157.377075m. Speed=27.468000m/h.</desc>
<speed>7.630000</speed>
</trkpt>
<trkpt lat="55.789871" lon="26.370819">
<ele>157.627075</ele>
<time>2010-07-17T08:39:35Z</time>
<desc>lat.=55.789871, lon.=26.370819, Alt.=157.627075m. Speed=27.035999m/h.</desc>
<speed>7.510000</speed>
</trkpt>
<trkpt lat="55.789814" lon="26.370731">
<ele>157.959106</ele>
<time>2010-07-17T08:39:36Z</time>
<desc>lat.=55.789814, lon.=26.370731, Alt.=157.959106m. Speed=25.524000m/h.</desc>
<speed>7.090000</speed>
</trkpt>
<trkpt lat="55.789753" lon="26.370642">
<ele>158.224731</ele>
<time>2010-07-17T08:39:37Z</time>
<desc>lat.=55.789753, lon.=26.370642, Alt.=158.224731m. Speed=27.108000m/h.</desc>
<speed>7.530000</speed>
</trkpt>
<trkpt lat="55.789684" lon="26.370537">
<ele>157.369263</ele>
<time>2010-07-17T08:39:38Z</time>
<desc>lat.=55.789684, lon.=26.370537, Alt.=157.369263m. Speed=28.799999m/h.</desc>
<speed>8.000000</speed>
</trkpt>
<trkpt lat="55.789619" lon="26.370451">
<ele>157.045044</ele>
<time>2010-07-17T08:39:39Z</time>
<desc>lat.=55.789619, lon.=26.370451, Alt.=157.045044m. Speed=27.360001m/h.</desc>
<speed>7.600000</speed>
</trkpt>
<trkpt lat="55.789555" lon="26.370363">
<ele>156.255981</ele>
<time>2010-07-17T08:39:40Z</time>
<desc>lat.=55.789555, lon.=26.370363, Alt.=156.255981m. Speed=28.584000m/h.</desc>
<speed>7.940000</speed>
</trkpt>
<trkpt lat="55.789497" lon="26.370283">
<ele>155.314575</ele>
<time>2010-07-17T08:39:41Z</time>
<desc>lat.=55.789497, lon.=26.370283, Alt.=155.314575m. Speed=27.108000m/h.</desc>
<speed>7.530000</speed>
</trkpt>
<trkpt lat="55.789436" lon="26.370205">
<ele>154.330200</ele>
<time>2010-07-17T08:39:42Z</time>
<desc>lat.=55.789436, lon.=26.370205, Alt.=154.330200m. Speed=25.955999m/h.</desc>
<speed>7.210000</speed>
</trkpt>
<trkpt lat="55.789371" lon="26.370119">
<ele>154.060669</ele>
<time>2010-07-17T08:39:43Z</time>
<desc>lat.=55.789371, lon.=26.370119, Alt.=154.060669m. Speed=26.243999m/h.</desc>
<speed>7.290000</speed>
</trkpt>
<trkpt lat="55.789310" lon="26.370041">
<ele>153.724731</ele>
<time>2010-07-17T08:39:44Z</time>
<desc>lat.=55.789310, lon.=26.370041, Alt.=153.724731m. Speed=23.976000m/h.</desc>
<speed>6.660000</speed>
</trkpt>
<trkpt lat="55.789257" lon="26.369967">
<ele>154.166138</ele>
<time>2010-07-17T08:39:45Z</time>
<desc>lat.=55.789257, lon.=26.369967, Alt.=154.166138m. Speed=24.732000m/h.</desc>
<speed>6.870000</speed>
</trkpt>
<trkpt lat="55.789204" lon="26.369898">
<ele>153.752075</ele>
<time>2010-07-17T08:39:46Z</time>
<desc>lat.=55.789204, lon.=26.369898, Alt.=153.752075m. Speed=23.112000m/h.</desc>
<speed>6.420000</speed>
</trkpt>
<trkpt lat="55.789154" lon="26.369829">
<ele>153.431763</ele>
<time>2010-07-17T08:39:47Z</time>
<desc>lat.=55.789154, lon.=26.369829, Alt.=153.431763m. Speed=24.444000m/h.</desc>
<speed>6.790000</speed>
</trkpt>
<trkpt lat="55.789101" lon="26.369762">
<ele>153.170044</ele>
<time>2010-07-17T08:39:48Z</time>
<desc>lat.=55.789101, lon.=26.369762, Alt.=153.170044m. Speed=22.968000m/h.</desc>
<speed>6.380000</speed>
</trkpt>
<trkpt lat="55.789047" lon="26.369699">
<ele>152.826294</ele>
<time>2010-07-17T08:39:49Z</time>
<desc>lat.=55.789047, lon.=26.369699, Alt.=152.826294m. Speed=21.204000m/h.</desc>
<speed>5.890000</speed>
</trkpt>
<trkpt lat="55.788998" lon="26.369638">
<ele>152.716919</ele>
<time>2010-07-17T08:39:50Z</time>
<desc>lat.=55.788998, lon.=26.369638, Alt.=152.716919m. Speed=22.680000m/h.</desc>
<speed>6.300000</speed>
</trkpt>
<trkpt lat="55.788948" lon="26.369572">
<ele>152.736450</ele>
<time>2010-07-17T08:39:51Z</time>
<desc>lat.=55.788948, lon.=26.369572, Alt.=152.736450m. Speed=22.139999m/h.</desc>
<speed>6.150000</speed>
</trkpt>
<trkpt lat="55.788902" lon="26.369509">
<ele>152.134888</ele>
<time>2010-07-17T08:39:52Z</time>
<desc>lat.=55.788902, lon.=26.369509, Alt.=152.134888m. Speed=23.292000m/h.</desc>
<speed>6.470000</speed>
</trkpt>
<trkpt lat="55.788857" lon="26.369448">
<ele>152.986450</ele>
<time>2010-07-17T08:39:53Z</time>
<desc>lat.=55.788857, lon.=26.369448, Alt.=152.986450m. Speed=21.996000m/h.</desc>
<speed>6.110000</speed>
</trkpt>
<trkpt lat="55.788811" lon="26.369390">
<ele>154.146606</ele>
<time>2010-07-17T08:39:54Z</time>
<desc>lat.=55.788811, lon.=26.369390, Alt.=154.146606m. Speed=21.528000m/h.</desc>
<speed>5.980000</speed>
</trkpt>
<trkpt lat="55.788761" lon="26.369328">
<ele>154.955200</ele>
<time>2010-07-17T08:39:55Z</time>
<desc>lat.=55.788761, lon.=26.369328, Alt.=154.955200m. Speed=23.760000m/h.</desc>
<speed>6.600000</speed>
</trkpt>
<trkpt lat="55.788712" lon="26.369265">
<ele>155.888794</ele>
<time>2010-07-17T08:39:56Z</time>
<desc>lat.=55.788712, lon.=26.369265, Alt.=155.888794m. Speed=23.472000m/h.</desc>
<speed>6.520000</speed>
</trkpt>
<trkpt lat="55.788658" lon="26.369202">
<ele>155.990356</ele>
<time>2010-07-17T08:39:57Z</time>
<desc>lat.=55.788658, lon.=26.369202, Alt.=155.990356m. Speed=23.256001m/h.</desc>
<speed>6.460000</speed>
</trkpt>
<trkpt lat="55.788601" lon="26.369129">
<ele>155.170044</ele>
<time>2010-07-17T08:39:58Z</time>
<desc>lat.=55.788601, lon.=26.369129, Alt.=155.170044m. Speed=25.344000m/h.</desc>
<speed>7.040000</speed>
</trkpt>
<trkpt lat="55.788548" lon="26.369055">
<ele>154.603638</ele>
<time>2010-07-17T08:39:59Z</time>
<desc>lat.=55.788548, lon.=26.369055, Alt.=154.603638m. Speed=24.084000m/h.</desc>
<speed>6.690000</speed>
</trkpt>
<trkpt lat="55.788490" lon="26.368971">
<ele>154.529419</ele>
<time>2010-07-17T08:40:00Z</time>
<desc>lat.=55.788490, lon.=26.368971, Alt.=154.529419m. Speed=25.164000m/h.</desc>
<speed>6.990000</speed>
</trkpt>
<trkpt lat="55.788437" lon="26.368898">
<ele>154.392700</ele>
<time>2010-07-17T08:40:01Z</time>
<desc>lat.=55.788437, lon.=26.368898, Alt.=154.392700m. Speed=23.615999m/h.</desc>
<speed>6.560000</speed>
</trkpt>
<trkpt lat="55.788383" lon="26.368832">
<ele>154.548950</ele>
<time>2010-07-17T08:40:02Z</time>
<desc>lat.=55.788383, lon.=26.368832, Alt.=154.548950m. Speed=23.796000m/h.</desc>
<speed>6.610000</speed>
</trkpt>
<trkpt lat="55.788330" lon="26.368765">
<ele>154.509888</ele>
<time>2010-07-17T08:40:03Z</time>
<desc>lat.=55.788330, lon.=26.368765, Alt.=154.509888m. Speed=23.472000m/h.</desc>
<speed>6.520000</speed>
</trkpt>
<trkpt lat="55.788277" lon="26.368696">
<ele>154.865356</ele>
<time>2010-07-17T08:40:04Z</time>
<desc>lat.=55.788277, lon.=26.368696, Alt.=154.865356m. Speed=23.040001m/h.</desc>
<speed>6.400000</speed>
</trkpt>
<trkpt lat="55.788231" lon="26.368635">
<ele>155.298950</ele>
<time>2010-07-17T08:40:05Z</time>
<desc>lat.=55.788231, lon.=26.368635, Alt.=155.298950m. Speed=21.384001m/h.</desc>
<speed>5.940000</speed>
</trkpt>
<trkpt lat="55.788189" lon="26.368578">
<ele>155.474731</ele>
<time>2010-07-17T08:40:06Z</time>
<desc>lat.=55.788189, lon.=26.368578, Alt.=155.474731m. Speed=21.996000m/h.</desc>
<speed>6.110000</speed>
</trkpt>
<trkpt lat="55.788139" lon="26.368513">
<ele>155.955200</ele>
<time>2010-07-17T08:40:07Z</time>
<desc>lat.=55.788139, lon.=26.368513, Alt.=155.955200m. Speed=22.320000m/h.</desc>
<speed>6.200000</speed>
</trkpt>
<trkpt lat="55.788090" lon="26.368450">
<ele>155.588013</ele>
<time>2010-07-17T08:40:08Z</time>
<desc>lat.=55.788090, lon.=26.368450, Alt.=155.588013m. Speed=22.032000m/h.</desc>
<speed>6.120000</speed>
</trkpt>
<trkpt lat="55.788040" lon="26.368374">
<ele>155.720825</ele>
<time>2010-07-17T08:40:09Z</time>
<desc>lat.=55.788040, lon.=26.368374, Alt.=155.720825m. Speed=22.392000m/h.</desc>
<speed>6.220000</speed>
</trkpt>
<trkpt lat="55.787994" lon="26.368303">
<ele>154.849731</ele>
<time>2010-07-17T08:40:10Z</time>
<desc>lat.=55.787994, lon.=26.368303, Alt.=154.849731m. Speed=21.059999m/h.</desc>
<speed>5.850000</speed>
</trkpt>
<trkpt lat="55.787941" lon="26.368227">
<ele>151.904419</ele>
<time>2010-07-17T08:40:11Z</time>
<desc>lat.=55.787941, lon.=26.368227, Alt.=151.904419m. Speed=22.139999m/h.</desc>
<speed>6.150000</speed>
</trkpt>
<trkpt lat="55.787895" lon="26.368158">
<ele>151.982544</ele>
<time>2010-07-17T08:40:12Z</time>
<desc>lat.=55.787895, lon.=26.368158, Alt.=151.982544m. Speed=20.483999m/h.</desc>
<speed>5.690000</speed>
</trkpt>
<trkpt lat="55.787857" lon="26.368109">
<ele>152.537231</ele>
<time>2010-07-17T08:40:13Z</time>
<desc>lat.=55.787857, lon.=26.368109, Alt.=152.537231m. Speed=18.648001m/h.</desc>
<speed>5.180000</speed>
</trkpt>
<trkpt lat="55.787819" lon="26.368067">
<ele>153.685669</ele>
<time>2010-07-17T08:40:14Z</time>
<desc>lat.=55.787819, lon.=26.368067, Alt.=153.685669m. Speed=17.964001m/h.</desc>
<speed>4.990000</speed>
</trkpt>
<trkpt lat="55.787781" lon="26.368027">
<ele>153.818481</ele>
<time>2010-07-17T08:40:15Z</time>
<desc>lat.=55.787781, lon.=26.368027, Alt.=153.818481m. Speed=15.588000m/h.</desc>
<speed>4.330000</speed>
</trkpt>
<trkpt lat="55.787735" lon="26.367966">
<ele>152.052856</ele>
<time>2010-07-17T08:40:16Z</time>
<desc>lat.=55.787735, lon.=26.367966, Alt.=152.052856m. Speed=16.596001m/h.</desc>
<speed>4.610000</speed>
</trkpt>
<trkpt lat="55.787704" lon="26.367924">
<ele>151.857544</ele>
<time>2010-07-17T08:40:17Z</time>
<desc>lat.=55.787704, lon.=26.367924, Alt.=151.857544m. Speed=14.544000m/h.</desc>
<speed>4.040000</speed>
</trkpt>
<trkpt lat="55.787678" lon="26.367887">
<ele>150.978638</ele>
<time>2010-07-17T08:40:18Z</time>
<desc>lat.=55.787678, lon.=26.367887, Alt.=150.978638m. Speed=11.628000m/h.</desc>
<speed>3.230000</speed>
</trkpt>
<trkpt lat="55.787651" lon="26.367849">
<ele>151.045044</ele>
<time>2010-07-17T08:40:19Z</time>
<desc>lat.=55.787651, lon.=26.367849, Alt.=151.045044m. Speed=11.304000m/h.</desc>
<speed>3.140000</speed>
</trkpt>
<trkpt lat="55.787628" lon="26.367809">
<ele>150.873169</ele>
<time>2010-07-17T08:40:20Z</time>
<desc>lat.=55.787628, lon.=26.367809, Alt.=150.873169m. Speed=11.448000m/h.</desc>
<speed>3.180000</speed>
</trkpt>
<trkpt lat="55.787609" lon="26.367777">
<ele>151.228638</ele>
<time>2010-07-17T08:40:21Z</time>
<desc>lat.=55.787609, lon.=26.367777, Alt.=151.228638m. Speed=11.088000m/h.</desc>
<speed>3.080000</speed>
</trkpt>
<trkpt lat="55.787590" lon="26.367752">
<ele>151.002075</ele>
<time>2010-07-17T08:40:22Z</time>
<desc>lat.=55.787590, lon.=26.367752, Alt.=151.002075m. Speed=9.648000m/h.</desc>
<speed>2.680000</speed>
</trkpt>
<trkpt lat="55.787567" lon="26.367729">
<ele>151.060669</ele>
<time>2010-07-17T08:40:23Z</time>
<desc>lat.=55.787567, lon.=26.367729, Alt.=151.060669m. Speed=9.216000m/h.</desc>
<speed>2.560000</speed>
</trkpt>
<trkpt lat="55.787548" lon="26.367702">
<ele>151.560669</ele>
<time>2010-07-17T08:40:24Z</time>
<desc>lat.=55.787548, lon.=26.367702, Alt.=151.560669m. Speed=9.036000m/h.</desc>
<speed>2.510000</speed>
</trkpt>
<trkpt lat="55.787529" lon="26.367683">
<ele>152.029419</ele>
<time>2010-07-17T08:40:25Z</time>
<desc>lat.=55.787529, lon.=26.367683, Alt.=152.029419m. Speed=8.784000m/h.</desc>
<speed>2.440000</speed>
</trkpt>
<trkpt lat="55.787506" lon="26.367649">
<ele>152.216919</ele>
<time>2010-07-17T08:40:26Z</time>
<desc>lat.=55.787506, lon.=26.367649, Alt.=152.216919m. Speed=9.072000m/h.</desc>
<speed>2.520000</speed>
</trkpt>
<trkpt lat="55.787487" lon="26.367615">
<ele>152.021606</ele>
<time>2010-07-17T08:40:27Z</time>
<desc>lat.=55.787487, lon.=26.367615, Alt.=152.021606m. Speed=8.964000m/h.</desc>
<speed>2.490000</speed>
</trkpt>
<trkpt lat="55.787464" lon="26.367582">
<ele>151.392700</ele>
<time>2010-07-17T08:40:28Z</time>
<desc>lat.=55.787464, lon.=26.367582, Alt.=151.392700m. Speed=8.892000m/h.</desc>
<speed>2.470000</speed>
</trkpt>
<trkpt lat="55.787441" lon="26.367550">
<ele>150.861450</ele>
<time>2010-07-17T08:40:29Z</time>
<desc>lat.=55.787441, lon.=26.367550, Alt.=150.861450m. Speed=8.568000m/h.</desc>
<speed>2.380000</speed>
</trkpt>
<trkpt lat="55.787426" lon="26.367523">
<ele>151.064575</ele>
<time>2010-07-17T08:40:30Z</time>
<desc>lat.=55.787426, lon.=26.367523, Alt.=151.064575m. Speed=8.280000m/h.</desc>
<speed>2.300000</speed>
</trkpt>
<trkpt lat="55.787407" lon="26.367487">
<ele>150.025513</ele>
<time>2010-07-17T08:40:31Z</time>
<desc>lat.=55.787407, lon.=26.367487, Alt.=150.025513m. Speed=9.108000m/h.</desc>
<speed>2.530000</speed>
</trkpt>
<trkpt lat="55.787388" lon="26.367460">
<ele>149.978638</ele>
<time>2010-07-17T08:40:32Z</time>
<desc>lat.=55.787388, lon.=26.367460, Alt.=149.978638m. Speed=8.532000m/h.</desc>
<speed>2.370000</speed>
</trkpt>
<trkpt lat="55.787373" lon="26.367430">
<ele>150.427856</ele>
<time>2010-07-17T08:40:33Z</time>
<desc>lat.=55.787373, lon.=26.367430, Alt.=150.427856m. Speed=8.352000m/h.</desc>
<speed>2.320000</speed>
</trkpt>
<trkpt lat="55.787354" lon="26.367403">
<ele>150.857544</ele>
<time>2010-07-17T08:40:34Z</time>
<desc>lat.=55.787354, lon.=26.367403, Alt.=150.857544m. Speed=8.352000m/h.</desc>
<speed>2.320000</speed>
</trkpt>
<trkpt lat="55.787334" lon="26.367380">
<ele>150.892700</ele>
<time>2010-07-17T08:40:35Z</time>
<desc>lat.=55.787334, lon.=26.367380, Alt.=150.892700m. Speed=7.668000m/h.</desc>
<speed>2.130000</speed>
</trkpt>
<trkpt lat="55.787323" lon="26.367355">
<ele>150.904419</ele>
<time>2010-07-17T08:40:36Z</time>
<desc>lat.=55.787323, lon.=26.367355, Alt.=150.904419m. Speed=7.632000m/h.</desc>
<speed>2.120000</speed>
</trkpt>
<trkpt lat="55.787304" lon="26.367321">
<ele>152.673950</ele>
<time>2010-07-17T08:40:37Z</time>
<desc>lat.=55.787304, lon.=26.367321, Alt.=152.673950m. Speed=8.352000m/h.</desc>
<speed>2.320000</speed>
</trkpt>
<trkpt lat="55.787289" lon="26.367300">
<ele>153.369263</ele>
<time>2010-07-17T08:40:38Z</time>
<desc>lat.=55.787289, lon.=26.367300, Alt.=153.369263m. Speed=7.092000m/h.</desc>
<speed>1.970000</speed>
</trkpt>
<trkpt lat="55.787266" lon="26.367287">
<ele>153.615356</ele>
<time>2010-07-17T08:40:39Z</time>
<desc>lat.=55.787266, lon.=26.367287, Alt.=153.615356m. Speed=8.460000m/h.</desc>
<speed>2.350000</speed>
</trkpt>
<trkpt lat="55.787247" lon="26.367271">
<ele>153.705200</ele>
<time>2010-07-17T08:40:40Z</time>
<desc>lat.=55.787247, lon.=26.367271, Alt.=153.705200m. Speed=8.388000m/h.</desc>
<speed>2.330000</speed>
</trkpt>
<trkpt lat="55.787224" lon="26.367241">
<ele>152.931763</ele>
<time>2010-07-17T08:40:41Z</time>
<desc>lat.=55.787224, lon.=26.367241, Alt.=152.931763m. Speed=10.440000m/h.</desc>
<speed>2.900000</speed>
</trkpt>
<trkpt lat="55.787201" lon="26.367193">
<ele>154.166138</ele>
<time>2010-07-17T08:40:42Z</time>
<desc>lat.=55.787201, lon.=26.367193, Alt.=154.166138m. Speed=11.844000m/h.</desc>
<speed>3.290000</speed>
</trkpt>
<trkpt lat="55.787170" lon="26.367159">
<ele>154.244263</ele>
<time>2010-07-17T08:40:43Z</time>
<desc>lat.=55.787170, lon.=26.367159, Alt.=154.244263m. Speed=12.780000m/h.</desc>
<speed>3.550000</speed>
</trkpt>
<trkpt lat="55.787140" lon="26.367130">
<ele>153.724731</ele>
<time>2010-07-17T08:40:44Z</time>
<desc>lat.=55.787140, lon.=26.367130, Alt.=153.724731m. Speed=11.772000m/h.</desc>
<speed>3.270000</speed>
</trkpt>
<trkpt lat="55.787109" lon="26.367094">
<ele>152.705200</ele>
<time>2010-07-17T08:40:45Z</time>
<desc>lat.=55.787109, lon.=26.367094, Alt.=152.705200m. Speed=12.816000m/h.</desc>
<speed>3.560000</speed>
</trkpt>
<trkpt lat="55.787075" lon="26.367060">
<ele>152.236450</ele>
<time>2010-07-17T08:40:46Z</time>
<desc>lat.=55.787075, lon.=26.367060, Alt.=152.236450m. Speed=13.932000m/h.</desc>
<speed>3.870000</speed>
</trkpt>
<trkpt lat="55.787037" lon="26.367014">
<ele>151.353638</ele>
<time>2010-07-17T08:40:47Z</time>
<desc>lat.=55.787037, lon.=26.367014, Alt.=151.353638m. Speed=13.932000m/h.</desc>
<speed>3.870000</speed>
</trkpt>
<trkpt lat="55.787006" lon="26.366972">
<ele>150.466919</ele>
<time>2010-07-17T08:40:48Z</time>
<desc>lat.=55.787006, lon.=26.366972, Alt.=150.466919m. Speed=13.212000m/h.</desc>
<speed>3.670000</speed>
</trkpt>
<trkpt lat="55.786976" lon="26.366930">
<ele>149.548950</ele>
<time>2010-07-17T08:40:49Z</time>
<desc>lat.=55.786976, lon.=26.366930, Alt.=149.548950m. Speed=13.104000m/h.</desc>
<speed>3.640000</speed>
</trkpt>
<trkpt lat="55.786942" lon="26.366892">
<ele>147.900513</ele>
<time>2010-07-17T08:40:50Z</time>
<desc>lat.=55.786942, lon.=26.366892, Alt.=147.900513m. Speed=14.364000m/h.</desc>
<speed>3.990000</speed>
</trkpt>
<trkpt lat="55.786903" lon="26.366844">
<ele>145.849731</ele>
<time>2010-07-17T08:40:51Z</time>
<desc>lat.=55.786903, lon.=26.366844, Alt.=145.849731m. Speed=15.012000m/h.</desc>
<speed>4.170000</speed>
</trkpt>
<trkpt lat="55.786869" lon="26.366804">
<ele>145.236450</ele>
<time>2010-07-17T08:40:52Z</time>
<desc>lat.=55.786869, lon.=26.366804, Alt.=145.236450m. Speed=15.480000m/h.</desc>
<speed>4.300000</speed>
</trkpt>
<trkpt lat="55.786835" lon="26.366764">
<ele>144.599731</ele>
<time>2010-07-17T08:40:53Z</time>
<desc>lat.=55.786835, lon.=26.366764, Alt.=144.599731m. Speed=16.704000m/h.</desc>
<speed>4.640000</speed>
</trkpt>
<trkpt lat="55.786797" lon="26.366724">
<ele>143.591919</ele>
<time>2010-07-17T08:40:54Z</time>
<desc>lat.=55.786797, lon.=26.366724, Alt.=143.591919m. Speed=16.740000m/h.</desc>
<speed>4.650000</speed>
</trkpt>
<trkpt lat="55.786762" lon="26.366684">
<ele>143.138794</ele>
<time>2010-07-17T08:40:55Z</time>
<desc>lat.=55.786762, lon.=26.366684, Alt.=143.138794m. Speed=16.812000m/h.</desc>
<speed>4.670000</speed>
</trkpt>
<trkpt lat="55.786720" lon="26.366642">
<ele>142.451294</ele>
<time>2010-07-17T08:40:56Z</time>
<desc>lat.=55.786720, lon.=26.366642, Alt.=142.451294m. Speed=17.208000m/h.</desc>
<speed>4.780000</speed>
</trkpt>
<trkpt lat="55.786682" lon="26.366587">
<ele>141.986450</ele>
<time>2010-07-17T08:40:57Z</time>
<desc>lat.=55.786682, lon.=26.366587, Alt.=141.986450m. Speed=18.792000m/h.</desc>
<speed>5.220000</speed>
</trkpt>
<trkpt lat="55.786648" lon="26.366514">
<ele>141.142700</ele>
<time>2010-07-17T08:40:58Z</time>
<desc>lat.=55.786648, lon.=26.366514, Alt.=141.142700m. Speed=18.792000m/h.</desc>
<speed>5.220000</speed>
</trkpt>
<trkpt lat="55.786606" lon="26.366453">
<ele>139.849731</ele>
<time>2010-07-17T08:40:59Z</time>
<desc>lat.=55.786606, lon.=26.366453, Alt.=139.849731m. Speed=19.656000m/h.</desc>
<speed>5.460000</speed>
</trkpt>
<trkpt lat="55.786556" lon="26.366409">
<ele>138.841919</ele>
<time>2010-07-17T08:41:00Z</time>
<desc>lat.=55.786556, lon.=26.366409, Alt.=138.841919m. Speed=20.556000m/h.</desc>
<speed>5.710000</speed>
</trkpt>
<trkpt lat="55.786510" lon="26.366339">
<ele>138.095825</ele>
<time>2010-07-17T08:41:01Z</time>
<desc>lat.=55.786510, lon.=26.366339, Alt.=138.095825m. Speed=21.851999m/h.</desc>
<speed>6.070000</speed>
</trkpt>
<trkpt lat="55.786461" lon="26.366268">
<ele>137.576294</ele>
<time>2010-07-17T08:41:02Z</time>
<desc>lat.=55.786461, lon.=26.366268, Alt.=137.576294m. Speed=23.976000m/h.</desc>
<speed>6.660000</speed>
</trkpt>
<trkpt lat="55.786411" lon="26.366198">
<ele>137.302856</ele>
<time>2010-07-17T08:41:03Z</time>
<desc>lat.=55.786411, lon.=26.366198, Alt.=137.302856m. Speed=24.408001m/h.</desc>
<speed>6.780000</speed>
</trkpt>
<trkpt lat="55.786350" lon="26.366127">
<ele>137.115356</ele>
<time>2010-07-17T08:41:04Z</time>
<desc>lat.=55.786350, lon.=26.366127, Alt.=137.115356m. Speed=25.884001m/h.</desc>
<speed>7.190000</speed>
</trkpt>
<trkpt lat="55.786301" lon="26.366053">
<ele>136.927856</ele>
<time>2010-07-17T08:41:05Z</time>
<desc>lat.=55.786301, lon.=26.366053, Alt.=136.927856m. Speed=26.676001m/h.</desc>
<speed>7.410000</speed>
</trkpt>
<trkpt lat="55.786247" lon="26.365980">
<ele>136.623169</ele>
<time>2010-07-17T08:41:06Z</time>
<desc>lat.=55.786247, lon.=26.365980, Alt.=136.623169m. Speed=24.299999m/h.</desc>
<speed>6.750000</speed>
</trkpt>
<trkpt lat="55.786194" lon="26.365927">
<ele>135.716919</ele>
<time>2010-07-17T08:41:07Z</time>
<desc>lat.=55.786194, lon.=26.365927, Alt.=135.716919m. Speed=26.424000m/h.</desc>
<speed>7.340000</speed>
</trkpt>
<trkpt lat="55.786137" lon="26.365875">
<ele>134.330200</ele>
<time>2010-07-17T08:41:08Z</time>
<desc>lat.=55.786137, lon.=26.365875, Alt.=134.330200m. Speed=27.288000m/h.</desc>
<speed>7.580000</speed>
</trkpt>
<trkpt lat="55.786083" lon="26.365797">
<ele>134.334106</ele>
<time>2010-07-17T08:41:09Z</time>
<desc>lat.=55.786083, lon.=26.365797, Alt.=134.334106m. Speed=25.308001m/h.</desc>
<speed>7.030000</speed>
</trkpt>
<trkpt lat="55.786034" lon="26.365723">
<ele>134.709106</ele>
<time>2010-07-17T08:41:10Z</time>
<desc>lat.=55.786034, lon.=26.365723, Alt.=134.709106m. Speed=25.056000m/h.</desc>
<speed>6.960000</speed>
</trkpt>
<trkpt lat="55.785984" lon="26.365658">
<ele>134.545044</ele>
<time>2010-07-17T08:41:11Z</time>
<desc>lat.=55.785984, lon.=26.365658, Alt.=134.545044m. Speed=23.472000m/h.</desc>
<speed>6.520000</speed>
</trkpt>
<trkpt lat="55.785934" lon="26.365602">
<ele>134.568481</ele>
<time>2010-07-17T08:41:12Z</time>
<desc>lat.=55.785934, lon.=26.365602, Alt.=134.568481m. Speed=23.724001m/h.</desc>
<speed>6.590000</speed>
</trkpt>
<trkpt lat="55.785881" lon="26.365532">
<ele>134.533325</ele>
<time>2010-07-17T08:41:13Z</time>
<desc>lat.=55.785881, lon.=26.365532, Alt.=134.533325m. Speed=25.416000m/h.</desc>
<speed>7.060000</speed>
</trkpt>
<trkpt lat="55.785824" lon="26.365450">
<ele>134.584106</ele>
<time>2010-07-17T08:41:14Z</time>
<desc>lat.=55.785824, lon.=26.365450, Alt.=134.584106m. Speed=27.504000m/h.</desc>
<speed>7.640000</speed>
</trkpt>
<trkpt lat="55.785767" lon="26.365368">
<ele>134.529419</ele>
<time>2010-07-17T08:41:15Z</time>
<desc>lat.=55.785767, lon.=26.365368, Alt.=134.529419m. Speed=28.224001m/h.</desc>
<speed>7.840000</speed>
</trkpt>
<trkpt lat="55.785709" lon="26.365290">
<ele>134.420044</ele>
<time>2010-07-17T08:41:16Z</time>
<desc>lat.=55.785709, lon.=26.365290, Alt.=134.420044m. Speed=28.007999m/h.</desc>
<speed>7.780000</speed>
</trkpt>
<trkpt lat="55.785652" lon="26.365210">
<ele>134.338013</ele>
<time>2010-07-17T08:41:17Z</time>
<desc>lat.=55.785652, lon.=26.365210, Alt.=134.338013m. Speed=28.620001m/h.</desc>
<speed>7.950000</speed>
</trkpt>
<trkpt lat="55.785595" lon="26.365124">
<ele>134.345825</ele>
<time>2010-07-17T08:41:18Z</time>
<desc>lat.=55.785595, lon.=26.365124, Alt.=134.345825m. Speed=27.143999m/h.</desc>
<speed>7.540000</speed>
</trkpt>
<trkpt lat="55.785538" lon="26.365051">
<ele>134.263794</ele>
<time>2010-07-17T08:41:19Z</time>
<desc>lat.=55.785538, lon.=26.365051, Alt.=134.263794m. Speed=25.884001m/h.</desc>
<speed>7.190000</speed>
</trkpt>
<trkpt lat="55.785488" lon="26.364977">
<ele>134.576294</ele>
<time>2010-07-17T08:41:20Z</time>
<desc>lat.=55.785488, lon.=26.364977, Alt.=134.576294m. Speed=25.559999m/h.</desc>
<speed>7.100000</speed>
</trkpt>
<trkpt lat="55.785439" lon="26.364904">
<ele>134.654419</ele>
<time>2010-07-17T08:41:21Z</time>
<desc>lat.=55.785439, lon.=26.364904, Alt.=134.654419m. Speed=24.191999m/h.</desc>
<speed>6.720000</speed>
</trkpt>
<trkpt lat="55.785393" lon="26.364838">
<ele>135.412231</ele>
<time>2010-07-17T08:41:22Z</time>
<desc>lat.=55.785393, lon.=26.364838, Alt.=135.412231m. Speed=22.896000m/h.</desc>
<speed>6.360000</speed>
</trkpt>
<trkpt lat="55.785343" lon="26.364767">
<ele>136.252075</ele>
<time>2010-07-17T08:41:23Z</time>
<desc>lat.=55.785343, lon.=26.364767, Alt.=136.252075m. Speed=24.840000m/h.</desc>
<speed>6.900000</speed>
</trkpt>
<trkpt lat="55.785290" lon="26.364700">
<ele>137.064575</ele>
<time>2010-07-17T08:41:24Z</time>
<desc>lat.=55.785290, lon.=26.364700, Alt.=137.064575m. Speed=24.480000m/h.</desc>
<speed>6.800000</speed>
</trkpt>
<trkpt lat="55.785244" lon="26.364639">
<ele>137.373169</ele>
<time>2010-07-17T08:41:25Z</time>
<desc>lat.=55.785244, lon.=26.364639, Alt.=137.373169m. Speed=22.608000m/h.</desc>
<speed>6.280000</speed>
</trkpt>
<trkpt lat="55.785194" lon="26.364576">
<ele>137.689575</ele>
<time>2010-07-17T08:41:26Z</time>
<desc>lat.=55.785194, lon.=26.364576, Alt.=137.689575m. Speed=22.896000m/h.</desc>
<speed>6.360000</speed>
</trkpt>
<trkpt lat="55.785149" lon="26.364513">
<ele>138.912231</ele>
<time>2010-07-17T08:41:27Z</time>
<desc>lat.=55.785149, lon.=26.364513, Alt.=138.912231m. Speed=22.247999m/h.</desc>
<speed>6.180000</speed>
</trkpt>
<trkpt lat="55.785103" lon="26.364445">
<ele>140.345825</ele>
<time>2010-07-17T08:41:28Z</time>
<desc>lat.=55.785103, lon.=26.364445, Alt.=140.345825m. Speed=22.139999m/h.</desc>
<speed>6.150000</speed>
</trkpt>
<trkpt lat="55.785057" lon="26.364384">
<ele>140.662231</ele>
<time>2010-07-17T08:41:29Z</time>
<desc>lat.=55.785057, lon.=26.364384, Alt.=140.662231m. Speed=22.643999m/h.</desc>
<speed>6.290000</speed>
</trkpt>
<trkpt lat="55.785007" lon="26.364315">
<ele>141.158325</ele>
<time>2010-07-17T08:41:30Z</time>
<desc>lat.=55.785007, lon.=26.364315, Alt.=141.158325m. Speed=23.148001m/h.</desc>
<speed>6.430000</speed>
</trkpt>
<trkpt lat="55.784958" lon="26.364254">
<ele>141.767700</ele>
<time>2010-07-17T08:41:31Z</time>
<desc>lat.=55.784958, lon.=26.364254, Alt.=141.767700m. Speed=23.472000m/h.</desc>
<speed>6.520000</speed>
</trkpt>
<trkpt lat="55.784912" lon="26.364185">
<ele>142.498169</ele>
<time>2010-07-17T08:41:32Z</time>
<desc>lat.=55.784912, lon.=26.364185, Alt.=142.498169m. Speed=24.480000m/h.</desc>
<speed>6.800000</speed>
</trkpt>
<trkpt lat="55.784866" lon="26.364111">
<ele>143.970825</ele>
<time>2010-07-17T08:41:33Z</time>
<desc>lat.=55.784866, lon.=26.364111, Alt.=143.970825m. Speed=24.228001m/h.</desc>
<speed>6.730000</speed>
</trkpt>
<trkpt lat="55.784821" lon="26.364050">
<ele>144.095825</ele>
<time>2010-07-17T08:41:34Z</time>
<desc>lat.=55.784821, lon.=26.364050, Alt.=144.095825m. Speed=22.643999m/h.</desc>
<speed>6.290000</speed>
</trkpt>
<trkpt lat="55.784779" lon="26.363993">
<ele>144.177856</ele>
<time>2010-07-17T08:41:35Z</time>
<desc>lat.=55.784779, lon.=26.363993, Alt.=144.177856m. Speed=19.296000m/h.</desc>
<speed>5.360000</speed>
</trkpt>
<trkpt lat="55.784737" lon="26.363939">
<ele>144.584106</ele>
<time>2010-07-17T08:41:36Z</time>
<desc>lat.=55.784737, lon.=26.363939, Alt.=144.584106m. Speed=18.540001m/h.</desc>
<speed>5.150000</speed>
</trkpt>
<trkpt lat="55.784702" lon="26.363894">
<ele>145.056763</ele>
<time>2010-07-17T08:41:37Z</time>
<desc>lat.=55.784702, lon.=26.363894, Alt.=145.056763m. Speed=17.747999m/h.</desc>
<speed>4.930000</speed>
</trkpt>
<trkpt lat="55.784664" lon="26.363846">
<ele>145.498169</ele>
<time>2010-07-17T08:41:38Z</time>
<desc>lat.=55.784664, lon.=26.363846, Alt.=145.498169m. Speed=17.208000m/h.</desc>
<speed>4.780000</speed>
</trkpt>
<trkpt lat="55.784634" lon="26.363802">
<ele>145.880981</ele>
<time>2010-07-17T08:41:39Z</time>
<desc>lat.=55.784634, lon.=26.363802, Alt.=145.880981m. Speed=16.740000m/h.</desc>
<speed>4.650000</speed>
</trkpt>
<trkpt lat="55.784599" lon="26.363754">
<ele>146.255981</ele>
<time>2010-07-17T08:41:40Z</time>
<desc>lat.=55.784599, lon.=26.363754, Alt.=146.255981m. Speed=17.964001m/h.</desc>
<speed>4.990000</speed>
</trkpt>
<trkpt lat="55.784565" lon="26.363708">
<ele>146.599731</ele>
<time>2010-07-17T08:41:41Z</time>
<desc>lat.=55.784565, lon.=26.363708, Alt.=146.599731m. Speed=17.856001m/h.</desc>
<speed>4.960000</speed>
</trkpt>
<trkpt lat="55.784527" lon="26.363649">
<ele>147.107544</ele>
<time>2010-07-17T08:41:42Z</time>
<desc>lat.=55.784527, lon.=26.363649, Alt.=147.107544m. Speed=18.252001m/h.</desc>
<speed>5.070000</speed>
</trkpt>
<trkpt lat="55.784489" lon="26.363602">
<ele>147.443481</ele>
<time>2010-07-17T08:41:43Z</time>
<desc>lat.=55.784489, lon.=26.363602, Alt.=147.443481m. Speed=17.784000m/h.</desc>
<speed>4.940000</speed>
</trkpt>
<trkpt lat="55.784454" lon="26.363541">
<ele>148.166138</ele>
<time>2010-07-17T08:41:44Z</time>
<desc>lat.=55.784454, lon.=26.363541, Alt.=148.166138m. Speed=18.468000m/h.</desc>
<speed>5.130000</speed>
</trkpt>
<trkpt lat="55.784412" lon="26.363485">
<ele>148.341919</ele>
<time>2010-07-17T08:41:45Z</time>
<desc>lat.=55.784412, lon.=26.363485, Alt.=148.341919m. Speed=19.764000m/h.</desc>
<speed>5.490000</speed>
</trkpt>
<trkpt lat="55.784374" lon="26.363428">
<ele>148.451294</ele>
<time>2010-07-17T08:41:46Z</time>
<desc>lat.=55.784374, lon.=26.363428, Alt.=148.451294m. Speed=20.771999m/h.</desc>
<speed>5.770000</speed>
</trkpt>
<trkpt lat="55.784332" lon="26.363371">
<ele>148.498169</ele>
<time>2010-07-17T08:41:47Z</time>
<desc>lat.=55.784332, lon.=26.363371, Alt.=148.498169m. Speed=20.628000m/h.</desc>
<speed>5.730000</speed>
</trkpt>
<trkpt lat="55.784290" lon="26.363316">
<ele>148.670044</ele>
<time>2010-07-17T08:41:48Z</time>
<desc>lat.=55.784290, lon.=26.363316, Alt.=148.670044m. Speed=20.375999m/h.</desc>
<speed>5.660000</speed>
</trkpt>
<trkpt lat="55.784248" lon="26.363253">
<ele>149.107544</ele>
<time>2010-07-17T08:41:49Z</time>
<desc>lat.=55.784248, lon.=26.363253, Alt.=149.107544m. Speed=20.340000m/h.</desc>
<speed>5.650000</speed>
</trkpt>
<trkpt lat="55.784203" lon="26.363190">
<ele>149.107544</ele>
<time>2010-07-17T08:41:50Z</time>
<desc>lat.=55.784203, lon.=26.363190, Alt.=149.107544m. Speed=21.275999m/h.</desc>
<speed>5.910000</speed>
</trkpt>
<trkpt lat="55.784157" lon="26.363123">
<ele>149.123169</ele>
<time>2010-07-17T08:41:51Z</time>
<desc>lat.=55.784157, lon.=26.363123, Alt.=149.123169m. Speed=21.420000m/h.</desc>
<speed>5.950000</speed>
</trkpt>
<trkpt lat="55.784115" lon="26.363062">
<ele>149.123169</ele>
<time>2010-07-17T08:41:52Z</time>
<desc>lat.=55.784115, lon.=26.363062, Alt.=149.123169m. Speed=21.348000m/h.</desc>
<speed>5.930000</speed>
</trkpt>
<trkpt lat="55.784073" lon="26.363001">
<ele>149.271606</ele>
<time>2010-07-17T08:41:53Z</time>
<desc>lat.=55.784073, lon.=26.363001, Alt.=149.271606m. Speed=22.464001m/h.</desc>
<speed>6.240000</speed>
</trkpt>
<trkpt lat="55.784023" lon="26.362946">
<ele>149.459106</ele>
<time>2010-07-17T08:41:54Z</time>
<desc>lat.=55.784023, lon.=26.362946, Alt.=149.459106m. Speed=21.204000m/h.</desc>
<speed>5.890000</speed>
</trkpt>
<trkpt lat="55.783974" lon="26.362890">
<ele>149.916138</ele>
<time>2010-07-17T08:41:55Z</time>
<desc>lat.=55.783974, lon.=26.362890, Alt.=149.916138m. Speed=20.844000m/h.</desc>
<speed>5.790000</speed>
</trkpt>
<trkpt lat="55.783924" lon="26.362833">
<ele>150.275513</ele>
<time>2010-07-17T08:41:56Z</time>
<desc>lat.=55.783924, lon.=26.362833, Alt.=150.275513m. Speed=22.392000m/h.</desc>
<speed>6.220000</speed>
</trkpt>
<trkpt lat="55.783882" lon="26.362772">
<ele>150.611450</ele>
<time>2010-07-17T08:41:57Z</time>
<desc>lat.=55.783882, lon.=26.362772, Alt.=150.611450m. Speed=22.104000m/h.</desc>
<speed>6.140000</speed>
</trkpt>
<trkpt lat="55.783836" lon="26.362719">
<ele>150.537231</ele>
<time>2010-07-17T08:41:58Z</time>
<desc>lat.=55.783836, lon.=26.362719, Alt.=150.537231m. Speed=21.384001m/h.</desc>
<speed>5.940000</speed>
</trkpt>
<trkpt lat="55.783794" lon="26.362667">
<ele>150.513794</ele>
<time>2010-07-17T08:41:59Z</time>
<desc>lat.=55.783794, lon.=26.362667, Alt.=150.513794m. Speed=20.160000m/h.</desc>
<speed>5.600000</speed>
</trkpt>
<trkpt lat="55.783749" lon="26.362616">
<ele>150.920044</ele>
<time>2010-07-17T08:42:00Z</time>
<desc>lat.=55.783749, lon.=26.362616, Alt.=150.920044m. Speed=20.700001m/h.</desc>
<speed>5.750000</speed>
</trkpt>
<trkpt lat="55.783703" lon="26.362558">
<ele>151.228638</ele>
<time>2010-07-17T08:42:01Z</time>
<desc>lat.=55.783703, lon.=26.362558, Alt.=151.228638m. Speed=22.068001m/h.</desc>
<speed>6.130000</speed>
</trkpt>
<trkpt lat="55.783657" lon="26.362503">
<ele>151.826294</ele>
<time>2010-07-17T08:42:02Z</time>
<desc>lat.=55.783657, lon.=26.362503, Alt.=151.826294m. Speed=20.952000m/h.</desc>
<speed>5.820000</speed>
</trkpt>
<trkpt lat="55.783615" lon="26.362446">
<ele>152.466919</ele>
<time>2010-07-17T08:42:03Z</time>
<desc>lat.=55.783615, lon.=26.362446, Alt.=152.466919m. Speed=21.096001m/h.</desc>
<speed>5.860000</speed>
</trkpt>
<trkpt lat="55.783569" lon="26.362391">
<ele>152.896606</ele>
<time>2010-07-17T08:42:04Z</time>
<desc>lat.=55.783569, lon.=26.362391, Alt.=152.896606m. Speed=21.455999m/h.</desc>
<speed>5.960000</speed>
</trkpt>
<trkpt lat="55.783527" lon="26.362343">
<ele>153.517700</ele>
<time>2010-07-17T08:42:05Z</time>
<desc>lat.=55.783527, lon.=26.362343, Alt.=153.517700m. Speed=20.520000m/h.</desc>
<speed>5.700000</speed>
</trkpt>
<trkpt lat="55.783482" lon="26.362289">
<ele>153.841919</ele>
<time>2010-07-17T08:42:06Z</time>
<desc>lat.=55.783482, lon.=26.362289, Alt.=153.841919m. Speed=21.528000m/h.</desc>
<speed>5.980000</speed>
</trkpt>
<trkpt lat="55.783440" lon="26.362230">
<ele>154.056763</ele>
<time>2010-07-17T08:42:07Z</time>
<desc>lat.=55.783440, lon.=26.362230, Alt.=154.056763m. Speed=21.636000m/h.</desc>
<speed>6.010000</speed>
</trkpt>
<trkpt lat="55.783394" lon="26.362173">
<ele>154.646606</ele>
<time>2010-07-17T08:42:08Z</time>
<desc>lat.=55.783394, lon.=26.362173, Alt.=154.646606m. Speed=19.188000m/h.</desc>
<speed>5.330000</speed>
</trkpt>
<trkpt lat="55.783352" lon="26.362118">
<ele>155.158325</ele>
<time>2010-07-17T08:42:09Z</time>
<desc>lat.=55.783352, lon.=26.362118, Alt.=155.158325m. Speed=20.016001m/h.</desc>
<speed>5.560000</speed>
</trkpt>
<trkpt lat="55.783310" lon="26.362066">
<ele>155.627075</ele>
<time>2010-07-17T08:42:10Z</time>
<desc>lat.=55.783310, lon.=26.362066, Alt.=155.627075m. Speed=20.304001m/h.</desc>
<speed>5.640000</speed>
</trkpt>
<trkpt lat="55.783268" lon="26.362000">
<ele>156.181763</ele>
<time>2010-07-17T08:42:11Z</time>
<desc>lat.=55.783268, lon.=26.362000, Alt.=156.181763m. Speed=22.032000m/h.</desc>
<speed>6.120000</speed>
</trkpt>
<trkpt lat="55.783230" lon="26.361933">
<ele>156.670044</ele>
<time>2010-07-17T08:42:12Z</time>
<desc>lat.=55.783230, lon.=26.361933, Alt.=156.670044m. Speed=20.736000m/h.</desc>
<speed>5.760000</speed>
</trkpt>
<trkpt lat="55.783188" lon="26.361876">
<ele>157.056763</ele>
<time>2010-07-17T08:42:13Z</time>
<desc>lat.=55.783188, lon.=26.361876, Alt.=157.056763m. Speed=19.656000m/h.</desc>
<speed>5.460000</speed>
</trkpt>
<trkpt lat="55.783146" lon="26.361807">
<ele>157.142700</ele>
<time>2010-07-17T08:42:14Z</time>
<desc>lat.=55.783146, lon.=26.361807, Alt.=157.142700m. Speed=20.591999m/h.</desc>
<speed>5.720000</speed>
</trkpt>
<trkpt lat="55.783104" lon="26.361746">
<ele>157.330200</ele>
<time>2010-07-17T08:42:15Z</time>
<desc>lat.=55.783104, lon.=26.361746, Alt.=157.330200m. Speed=21.492001m/h.</desc>
<speed>5.970000</speed>
</trkpt>
<trkpt lat="55.783058" lon="26.361679">
<ele>157.420044</ele>
<time>2010-07-17T08:42:16Z</time>
<desc>lat.=55.783058, lon.=26.361679, Alt.=157.420044m. Speed=22.032000m/h.</desc>
<speed>6.120000</speed>
</trkpt>
<trkpt lat="55.783012" lon="26.361605">
<ele>157.623169</ele>
<time>2010-07-17T08:42:17Z</time>
<desc>lat.=55.783012, lon.=26.361605, Alt.=157.623169m. Speed=22.500000m/h.</desc>
<speed>6.250000</speed>
</trkpt>
<trkpt lat="55.782970" lon="26.361540">
<ele>157.709106</ele>
<time>2010-07-17T08:42:18Z</time>
<desc>lat.=55.782970, lon.=26.361540, Alt.=157.709106m. Speed=23.040001m/h.</desc>
<speed>6.400000</speed>
</trkpt>
<trkpt lat="55.782925" lon="26.361471">
<ele>158.037231</ele>
<time>2010-07-17T08:42:19Z</time>
<desc>lat.=55.782925, lon.=26.361471, Alt.=158.037231m. Speed=22.643999m/h.</desc>
<speed>6.290000</speed>
</trkpt>
<trkpt lat="55.782875" lon="26.361404">
<ele>158.283325</ele>
<time>2010-07-17T08:42:20Z</time>
<desc>lat.=55.782875, lon.=26.361404, Alt.=158.283325m. Speed=23.364000m/h.</desc>
<speed>6.490000</speed>
</trkpt>
<trkpt lat="55.782825" lon="26.361343">
<ele>158.783325</ele>
<time>2010-07-17T08:42:21Z</time>
<desc>lat.=55.782825, lon.=26.361343, Alt.=158.783325m. Speed=23.688000m/h.</desc>
<speed>6.580000</speed>
</trkpt>
<trkpt lat="55.782776" lon="26.361275">
<ele>158.822388</ele>
<time>2010-07-17T08:42:22Z</time>
<desc>lat.=55.782776, lon.=26.361275, Alt.=158.822388m. Speed=22.572001m/h.</desc>
<speed>6.270000</speed>
</trkpt>
<trkpt lat="55.782722" lon="26.361216">
<ele>159.474731</ele>
<time>2010-07-17T08:42:23Z</time>
<desc>lat.=55.782722, lon.=26.361216, Alt.=159.474731m. Speed=24.480000m/h.</desc>
<speed>6.800000</speed>
</trkpt>
<trkpt lat="55.782677" lon="26.361128">
<ele>159.197388</ele>
<time>2010-07-17T08:42:24Z</time>
<desc>lat.=55.782677, lon.=26.361128, Alt.=159.197388m. Speed=25.884001m/h.</desc>
<speed>7.190000</speed>
</trkpt>
<trkpt lat="55.782627" lon="26.361059">
<ele>159.142700</ele>
<time>2010-07-17T08:42:25Z</time>
<desc>lat.=55.782627, lon.=26.361059, Alt.=159.142700m. Speed=26.676001m/h.</desc>
<speed>7.410000</speed>
</trkpt>
<trkpt lat="55.782570" lon="26.360992">
<ele>159.396606</ele>
<time>2010-07-17T08:42:26Z</time>
<desc>lat.=55.782570, lon.=26.360992, Alt.=159.396606m. Speed=26.496000m/h.</desc>
<speed>7.360000</speed>
</trkpt>
<trkpt lat="55.782513" lon="26.360922">
<ele>159.505981</ele>
<time>2010-07-17T08:42:27Z</time>
<desc>lat.=55.782513, lon.=26.360922, Alt.=159.505981m. Speed=25.379999m/h.</desc>
<speed>7.050000</speed>
</trkpt>
<trkpt lat="55.782455" lon="26.360857">
<ele>160.005981</ele>
<time>2010-07-17T08:42:28Z</time>
<desc>lat.=55.782455, lon.=26.360857, Alt.=160.005981m. Speed=25.740000m/h.</desc>
<speed>7.150000</speed>
</trkpt>
<trkpt lat="55.782402" lon="26.360785">
<ele>160.545044</ele>
<time>2010-07-17T08:42:29Z</time>
<desc>lat.=55.782402, lon.=26.360785, Alt.=160.545044m. Speed=24.983999m/h.</desc>
<speed>6.940000</speed>
</trkpt>
<trkpt lat="55.782352" lon="26.360710">
<ele>160.588013</ele>
<time>2010-07-17T08:42:30Z</time>
<desc>lat.=55.782352, lon.=26.360710, Alt.=160.588013m. Speed=25.524000m/h.</desc>
<speed>7.090000</speed>
</trkpt>
<trkpt lat="55.782299" lon="26.360630">
<ele>161.173950</ele>
<time>2010-07-17T08:42:31Z</time>
<desc>lat.=55.782299, lon.=26.360630, Alt.=161.173950m. Speed=26.604000m/h.</desc>
<speed>7.390000</speed>
</trkpt>
<trkpt lat="55.782249" lon="26.360563">
<ele>161.673950</ele>
<time>2010-07-17T08:42:32Z</time>
<desc>lat.=55.782249, lon.=26.360563, Alt.=161.673950m. Speed=25.667999m/h.</desc>
<speed>7.130000</speed>
</trkpt>
<trkpt lat="55.782200" lon="26.360497">
<ele>162.248169</ele>
<time>2010-07-17T08:42:33Z</time>
<desc>lat.=55.782200, lon.=26.360497, Alt.=162.248169m. Speed=24.587999m/h.</desc>
<speed>6.830000</speed>
</trkpt>
<trkpt lat="55.782146" lon="26.360432">
<ele>162.349731</ele>
<time>2010-07-17T08:42:34Z</time>
<desc>lat.=55.782146, lon.=26.360432, Alt.=162.349731m. Speed=23.472000m/h.</desc>
<speed>6.520000</speed>
</trkpt>
<trkpt lat="55.782097" lon="26.360374">
<ele>162.322388</ele>
<time>2010-07-17T08:42:35Z</time>
<desc>lat.=55.782097, lon.=26.360374, Alt.=162.322388m. Speed=22.716000m/h.</desc>
<speed>6.310000</speed>
</trkpt>
<trkpt lat="55.782047" lon="26.360317">
<ele>162.564575</ele>
<time>2010-07-17T08:42:36Z</time>
<desc>lat.=55.782047, lon.=26.360317, Alt.=162.564575m. Speed=21.780001m/h.</desc>
<speed>6.050000</speed>
</trkpt>
<trkpt lat="55.782005" lon="26.360268">
<ele>162.314575</ele>
<time>2010-07-17T08:42:37Z</time>
<desc>lat.=55.782005, lon.=26.360268, Alt.=162.314575m. Speed=20.448000m/h.</desc>
<speed>5.680000</speed>
</trkpt>
<trkpt lat="55.781967" lon="26.360229">
<ele>162.533325</ele>
<time>2010-07-17T08:42:38Z</time>
<desc>lat.=55.781967, lon.=26.360229, Alt.=162.533325m. Speed=19.691999m/h.</desc>
<speed>5.470000</speed>
</trkpt>
<trkpt lat="55.781925" lon="26.360170">
<ele>162.505981</ele>
<time>2010-07-17T08:42:39Z</time>
<desc>lat.=55.781925, lon.=26.360170, Alt.=162.505981m. Speed=19.476000m/h.</desc>
<speed>5.410000</speed>
</trkpt>
<trkpt lat="55.781883" lon="26.360115">
<ele>162.447388</ele>
<time>2010-07-17T08:42:40Z</time>
<desc>lat.=55.781883, lon.=26.360115, Alt.=162.447388m. Speed=20.844000m/h.</desc>
<speed>5.790000</speed>
</trkpt>
<trkpt lat="55.781845" lon="26.360062">
<ele>162.677856</ele>
<time>2010-07-17T08:42:41Z</time>
<desc>lat.=55.781845, lon.=26.360062, Alt.=162.677856m. Speed=18.468000m/h.</desc>
<speed>5.130000</speed>
</trkpt>
<trkpt lat="55.781807" lon="26.360006">
<ele>162.595825</ele>
<time>2010-07-17T08:42:42Z</time>
<desc>lat.=55.781807, lon.=26.360006, Alt.=162.595825m. Speed=19.476000m/h.</desc>
<speed>5.410000</speed>
</trkpt>
<trkpt lat="55.781765" lon="26.359943">
<ele>161.783325</ele>
<time>2010-07-17T08:42:43Z</time>
<desc>lat.=55.781765, lon.=26.359943, Alt.=161.783325m. Speed=20.160000m/h.</desc>
<speed>5.600000</speed>
</trkpt>
<trkpt lat="55.781719" lon="26.359880">
<ele>160.494263</ele>
<time>2010-07-17T08:42:44Z</time>
<desc>lat.=55.781719, lon.=26.359880, Alt.=160.494263m. Speed=21.348000m/h.</desc>
<speed>5.930000</speed>
</trkpt>
<trkpt lat="55.781677" lon="26.359821">
<ele>160.310669</ele>
<time>2010-07-17T08:42:45Z</time>
<desc>lat.=55.781677, lon.=26.359821, Alt.=160.310669m. Speed=20.304001m/h.</desc>
<speed>5.640000</speed>
</trkpt>
<trkpt lat="55.781624" lon="26.359766">
<ele>160.416138</ele>
<time>2010-07-17T08:42:46Z</time>
<desc>lat.=55.781624, lon.=26.359766, Alt.=160.416138m. Speed=21.816000m/h.</desc>
<speed>6.060000</speed>
</trkpt>
<trkpt lat="55.781582" lon="26.359690">
<ele>160.263794</ele>
<time>2010-07-17T08:42:47Z</time>
<desc>lat.=55.781582, lon.=26.359690, Alt.=160.263794m. Speed=20.628000m/h.</desc>
<speed>5.730000</speed>
</trkpt>
<trkpt lat="55.781540" lon="26.359640">
<ele>159.748169</ele>
<time>2010-07-17T08:42:48Z</time>
<desc>lat.=55.781540, lon.=26.359640, Alt.=159.748169m. Speed=19.152000m/h.</desc>
<speed>5.320000</speed>
</trkpt>
<trkpt lat="55.781498" lon="26.359585">
<ele>159.845825</ele>
<time>2010-07-17T08:42:49Z</time>
<desc>lat.=55.781498, lon.=26.359585, Alt.=159.845825m. Speed=20.124001m/h.</desc>
<speed>5.590000</speed>
</trkpt>
<trkpt lat="55.781456" lon="26.359531">
<ele>159.521606</ele>
<time>2010-07-17T08:42:50Z</time>
<desc>lat.=55.781456, lon.=26.359531, Alt.=159.521606m. Speed=19.836000m/h.</desc>
<speed>5.510000</speed>
</trkpt>
<trkpt lat="55.781422" lon="26.359472">
<ele>159.314575</ele>
<time>2010-07-17T08:42:51Z</time>
<desc>lat.=55.781422, lon.=26.359472, Alt.=159.314575m. Speed=18.468000m/h.</desc>
<speed>5.130000</speed>
</trkpt>
<trkpt lat="55.781384" lon="26.359417">
<ele>158.900513</ele>
<time>2010-07-17T08:42:52Z</time>
<desc>lat.=55.781384, lon.=26.359417, Alt.=158.900513m. Speed=18.000000m/h.</desc>
<speed>5.000000</speed>
</trkpt>
<trkpt lat="55.781345" lon="26.359365">
<ele>158.361450</ele>
<time>2010-07-17T08:42:53Z</time>
<desc>lat.=55.781345, lon.=26.359365, Alt.=158.361450m. Speed=18.431999m/h.</desc>
<speed>5.120000</speed>
</trkpt>
<trkpt lat="55.781315" lon="26.359308">
<ele>158.013794</ele>
<time>2010-07-17T08:42:54Z</time>
<desc>lat.=55.781315, lon.=26.359308, Alt.=158.013794m. Speed=18.035999m/h.</desc>
<speed>5.010000</speed>
</trkpt>
<trkpt lat="55.781292" lon="26.359247">
<ele>158.236450</ele>
<time>2010-07-17T08:42:55Z</time>
<desc>lat.=55.781292, lon.=26.359247, Alt.=158.236450m. Speed=17.892000m/h.</desc>
<speed>4.970000</speed>
</trkpt>
<trkpt lat="55.781281" lon="26.359180">
<ele>158.349731</ele>
<time>2010-07-17T08:42:56Z</time>
<desc>lat.=55.781281, lon.=26.359180, Alt.=158.349731m. Speed=17.532000m/h.</desc>
<speed>4.870000</speed>
</trkpt>
<trkpt lat="55.781284" lon="26.359114">
<ele>158.541138</ele>
<time>2010-07-17T08:42:57Z</time>
<desc>lat.=55.781284, lon.=26.359114, Alt.=158.541138m. Speed=18.072001m/h.</desc>
<speed>5.020000</speed>
</trkpt>
<trkpt lat="55.781303" lon="26.359051">
<ele>159.541138</ele>
<time>2010-07-17T08:42:58Z</time>
<desc>lat.=55.781303, lon.=26.359051, Alt.=159.541138m. Speed=16.128000m/h.</desc>
<speed>4.480000</speed>
</trkpt>
<trkpt lat="55.781330" lon="26.358992">
<ele>159.525513</ele>
<time>2010-07-17T08:42:59Z</time>
<desc>lat.=55.781330, lon.=26.358992, Alt.=159.525513m. Speed=15.732000m/h.</desc>
<speed>4.370000</speed>
</trkpt>
<trkpt lat="55.781357" lon="26.358929">
<ele>159.291138</ele>
<time>2010-07-17T08:43:00Z</time>
<desc>lat.=55.781357, lon.=26.358929, Alt.=159.291138m. Speed=16.128000m/h.</desc>
<speed>4.480000</speed>
</trkpt>
<trkpt lat="55.781376" lon="26.358862">
<ele>158.197388</ele>
<time>2010-07-17T08:43:01Z</time>
<desc>lat.=55.781376, lon.=26.358862, Alt.=158.197388m. Speed=15.732000m/h.</desc>
<speed>4.370000</speed>
</trkpt>
<trkpt lat="55.781395" lon="26.358799">
<ele>158.138794</ele>
<time>2010-07-17T08:43:02Z</time>
<desc>lat.=55.781395, lon.=26.358799, Alt.=158.138794m. Speed=14.472000m/h.</desc>
<speed>4.020000</speed>
</trkpt>
<trkpt lat="55.781410" lon="26.358742">
<ele>158.088013</ele>
<time>2010-07-17T08:43:03Z</time>
<desc>lat.=55.781410, lon.=26.358742, Alt.=158.088013m. Speed=14.436000m/h.</desc>
<speed>4.010000</speed>
</trkpt>
<trkpt lat="55.781425" lon="26.358681">
<ele>157.849731</ele>
<time>2010-07-17T08:43:04Z</time>
<desc>lat.=55.781425, lon.=26.358681, Alt.=157.849731m. Speed=13.680000m/h.</desc>
<speed>3.800000</speed>
</trkpt>
<trkpt lat="55.781437" lon="26.358612">
<ele>157.435669</ele>
<time>2010-07-17T08:43:05Z</time>
<desc>lat.=55.781437, lon.=26.358612, Alt.=157.435669m. Speed=18.216000m/h.</desc>
<speed>5.060000</speed>
</trkpt>
<trkpt lat="55.781452" lon="26.358538">
<ele>157.138794</ele>
<time>2010-07-17T08:43:06Z</time>
<desc>lat.=55.781452, lon.=26.358538, Alt.=157.138794m. Speed=15.876000m/h.</desc>
<speed>4.410000</speed>
</trkpt>
<trkpt lat="55.781464" lon="26.358477">
<ele>157.119263</ele>
<time>2010-07-17T08:43:07Z</time>
<desc>lat.=55.781464, lon.=26.358477, Alt.=157.119263m. Speed=14.796000m/h.</desc>
<speed>4.110000</speed>
</trkpt>
<trkpt lat="55.781475" lon="26.358418">
<ele>157.084106</ele>
<time>2010-07-17T08:43:08Z</time>
<desc>lat.=55.781475, lon.=26.358418, Alt.=157.084106m. Speed=14.184000m/h.</desc>
<speed>3.940000</speed>
</trkpt>
<trkpt lat="55.781487" lon="26.358355">
<ele>157.013794</ele>
<time>2010-07-17T08:43:09Z</time>
<desc>lat.=55.781487, lon.=26.358355, Alt.=157.013794m. Speed=15.084000m/h.</desc>
<speed>4.190000</speed>
</trkpt>
<trkpt lat="55.781498" lon="26.358292">
<ele>156.709106</ele>
<time>2010-07-17T08:43:10Z</time>
<desc>lat.=55.781498, lon.=26.358292, Alt.=156.709106m. Speed=16.020000m/h.</desc>
<speed>4.450000</speed>
</trkpt>
<trkpt lat="55.781509" lon="26.358221">
<ele>156.021606</ele>
<time>2010-07-17T08:43:11Z</time>
<desc>lat.=55.781509, lon.=26.358221, Alt.=156.021606m. Speed=15.696000m/h.</desc>
<speed>4.360000</speed>
</trkpt>
<trkpt lat="55.781521" lon="26.358154">
<ele>155.779419</ele>
<time>2010-07-17T08:43:12Z</time>
<desc>lat.=55.781521, lon.=26.358154, Alt.=155.779419m. Speed=14.940000m/h.</desc>
<speed>4.150000</speed>
</trkpt>
<trkpt lat="55.781544" lon="26.358088">
<ele>155.705200</ele>
<time>2010-07-17T08:43:13Z</time>
<desc>lat.=55.781544, lon.=26.358088, Alt.=155.705200m. Speed=17.784000m/h.</desc>
<speed>4.940000</speed>
</trkpt>
<trkpt lat="55.781567" lon="26.358007">
<ele>155.396606</ele>
<time>2010-07-17T08:43:14Z</time>
<desc>lat.=55.781567, lon.=26.358007, Alt.=155.396606m. Speed=18.900000m/h.</desc>
<speed>5.250000</speed>
</trkpt>
<trkpt lat="55.781586" lon="26.357924">
<ele>155.029419</ele>
<time>2010-07-17T08:43:15Z</time>
<desc>lat.=55.781586, lon.=26.357924, Alt.=155.029419m. Speed=20.304001m/h.</desc>
<speed>5.640000</speed>
</trkpt>
<trkpt lat="55.781612" lon="26.357841">
<ele>154.576294</ele>
<time>2010-07-17T08:43:16Z</time>
<desc>lat.=55.781612, lon.=26.357841, Alt.=154.576294m. Speed=20.808001m/h.</desc>
<speed>5.780000</speed>
</trkpt>
<trkpt lat="55.781635" lon="26.357754">
<ele>154.170044</ele>
<time>2010-07-17T08:43:17Z</time>
<desc>lat.=55.781635, lon.=26.357754, Alt.=154.170044m. Speed=21.959999m/h.</desc>
<speed>6.100000</speed>
</trkpt>
<trkpt lat="55.781651" lon="26.357664">
<ele>154.002075</ele>
<time>2010-07-17T08:43:18Z</time>
<desc>lat.=55.781651, lon.=26.357664, Alt.=154.002075m. Speed=22.608000m/h.</desc>
<speed>6.280000</speed>
</trkpt>
<trkpt lat="55.781673" lon="26.357567">
<ele>153.943481</ele>
<time>2010-07-17T08:43:19Z</time>
<desc>lat.=55.781673, lon.=26.357567, Alt.=153.943481m. Speed=22.643999m/h.</desc>
<speed>6.290000</speed>
</trkpt>
<trkpt lat="55.781693" lon="26.357473">
<ele>152.517700</ele>
<time>2010-07-17T08:43:20Z</time>
<desc>lat.=55.781693, lon.=26.357473, Alt.=152.517700m. Speed=23.292000m/h.</desc>
<speed>6.470000</speed>
</trkpt>
<trkpt lat="55.781715" lon="26.357386">
<ele>152.365356</ele>
<time>2010-07-17T08:43:21Z</time>
<desc>lat.=55.781715, lon.=26.357386, Alt.=152.365356m. Speed=23.615999m/h.</desc>
<speed>6.560000</speed>
</trkpt>
<trkpt lat="55.781734" lon="26.357292">
<ele>151.759888</ele>
<time>2010-07-17T08:43:22Z</time>
<desc>lat.=55.781734, lon.=26.357292, Alt.=151.759888m. Speed=21.600000m/h.</desc>
<speed>6.000000</speed>
</trkpt>
<trkpt lat="55.781750" lon="26.357201">
<ele>151.658325</ele>
<time>2010-07-17T08:43:23Z</time>
<desc>lat.=55.781750, lon.=26.357201, Alt.=151.658325m. Speed=21.743999m/h.</desc>
<speed>6.040000</speed>
</trkpt>
<trkpt lat="55.781776" lon="26.357117">
<ele>151.720825</ele>
<time>2010-07-17T08:43:24Z</time>
<desc>lat.=55.781776, lon.=26.357117, Alt.=151.720825m. Speed=21.636000m/h.</desc>
<speed>6.010000</speed>
</trkpt>
<trkpt lat="55.781796" lon="26.357031">
<ele>151.521606</ele>
<time>2010-07-17T08:43:25Z</time>
<desc>lat.=55.781796, lon.=26.357031, Alt.=151.521606m. Speed=21.600000m/h.</desc>
<speed>6.000000</speed>
</trkpt>
<trkpt lat="55.781818" lon="26.356939">
<ele>152.119263</ele>
<time>2010-07-17T08:43:26Z</time>
<desc>lat.=55.781818, lon.=26.356939, Alt.=152.119263m. Speed=22.608000m/h.</desc>
<speed>6.280000</speed>
</trkpt>
<trkpt lat="55.781845" lon="26.356850">
<ele>153.084106</ele>
<time>2010-07-17T08:43:27Z</time>
<desc>lat.=55.781845, lon.=26.356850, Alt.=153.084106m. Speed=21.959999m/h.</desc>
<speed>6.100000</speed>
</trkpt>
<trkpt lat="55.781876" lon="26.356756">
<ele>153.607544</ele>
<time>2010-07-17T08:43:28Z</time>
<desc>lat.=55.781876, lon.=26.356756, Alt.=153.607544m. Speed=22.535999m/h.</desc>
<speed>6.260000</speed>
</trkpt>
<trkpt lat="55.781895" lon="26.356676">
<ele>153.142700</ele>
<time>2010-07-17T08:43:29Z</time>
<desc>lat.=55.781895, lon.=26.356676, Alt.=153.142700m. Speed=18.252001m/h.</desc>
<speed>5.070000</speed>
</trkpt>
<trkpt lat="55.781910" lon="26.356598">
<ele>153.420044</ele>
<time>2010-07-17T08:43:30Z</time>
<desc>lat.=55.781910, lon.=26.356598, Alt.=153.420044m. Speed=19.548000m/h.</desc>
<speed>5.430000</speed>
</trkpt>
<trkpt lat="55.781933" lon="26.356499">
<ele>154.857544</ele>
<time>2010-07-17T08:43:31Z</time>
<desc>lat.=55.781933, lon.=26.356499, Alt.=154.857544m. Speed=21.528000m/h.</desc>
<speed>5.980000</speed>
</trkpt>
<trkpt lat="55.781963" lon="26.356415">
<ele>155.224731</ele>
<time>2010-07-17T08:43:32Z</time>
<desc>lat.=55.781963, lon.=26.356415, Alt.=155.224731m. Speed=19.656000m/h.</desc>
<speed>5.460000</speed>
</trkpt>
<trkpt lat="55.781986" lon="26.356331">
<ele>155.388794</ele>
<time>2010-07-17T08:43:33Z</time>
<desc>lat.=55.781986, lon.=26.356331, Alt.=155.388794m. Speed=19.908001m/h.</desc>
<speed>5.530000</speed>
</trkpt>
<trkpt lat="55.782005" lon="26.356249">
<ele>154.697388</ele>
<time>2010-07-17T08:43:34Z</time>
<desc>lat.=55.782005, lon.=26.356249, Alt.=154.697388m. Speed=18.252001m/h.</desc>
<speed>5.070000</speed>
</trkpt>
<trkpt lat="55.782028" lon="26.356173">
<ele>154.384888</ele>
<time>2010-07-17T08:43:35Z</time>
<desc>lat.=55.782028, lon.=26.356173, Alt.=154.384888m. Speed=17.388000m/h.</desc>
<speed>4.830000</speed>
</trkpt>
<trkpt lat="55.782040" lon="26.356113">
<ele>154.252075</ele>
<time>2010-07-17T08:43:36Z</time>
<desc>lat.=55.782040, lon.=26.356113, Alt.=154.252075m. Speed=11.988000m/h.</desc>
<speed>3.330000</speed>
</trkpt>
<trkpt lat="55.782055" lon="26.356066">
<ele>154.232544</ele>
<time>2010-07-17T08:43:37Z</time>
<desc>lat.=55.782055, lon.=26.356066, Alt.=154.232544m. Speed=9.936000m/h.</desc>
<speed>2.760000</speed>
</trkpt>
<trkpt lat="55.782066" lon="26.356033">
<ele>154.701294</ele>
<time>2010-07-17T08:43:38Z</time>
<desc>lat.=55.782066, lon.=26.356033, Alt.=154.701294m. Speed=6.192000m/h.</desc>
<speed>1.720000</speed>
</trkpt>
<trkpt lat="55.782066" lon="26.356016">
<ele>155.021606</ele>
<time>2010-07-17T08:43:39Z</time>
<desc>lat.=55.782066, lon.=26.356016, Alt.=155.021606m. Speed=5.472000m/h.</desc>
<speed>1.520000</speed>
</trkpt>
<trkpt lat="55.782055" lon="26.355993">
<ele>154.095825</ele>
<time>2010-07-17T08:43:40Z</time>
<desc>lat.=55.782055, lon.=26.355993, Alt.=154.095825m. Speed=6.408000m/h.</desc>
<speed>1.780000</speed>
</trkpt>
<trkpt lat="55.782040" lon="26.356001">
<ele>153.896606</ele>
<time>2010-07-17T08:43:41Z</time>
<desc>lat.=55.782040, lon.=26.356001, Alt.=153.896606m. Speed=7.416000m/h.</desc>
<speed>2.060000</speed>
</trkpt>
<trkpt lat="55.782017" lon="26.356012">
<ele>153.713013</ele>
<time>2010-07-17T08:43:42Z</time>
<desc>lat.=55.782017, lon.=26.356012, Alt.=153.713013m. Speed=8.604000m/h.</desc>
<speed>2.390000</speed>
</trkpt>
<trkpt lat="55.781990" lon="26.356022">
<ele>152.880981</ele>
<time>2010-07-17T08:43:43Z</time>
<desc>lat.=55.781990, lon.=26.356022, Alt.=152.880981m. Speed=10.620000m/h.</desc>
<speed>2.950000</speed>
</trkpt>
<trkpt lat="55.781963" lon="26.356041">
<ele>151.505981</ele>
<time>2010-07-17T08:43:44Z</time>
<desc>lat.=55.781963, lon.=26.356041, Alt.=151.505981m. Speed=9.900000m/h.</desc>
<speed>2.750000</speed>
</trkpt>
<trkpt lat="55.781933" lon="26.356043">
<ele>151.134888</ele>
<time>2010-07-17T08:43:45Z</time>
<desc>lat.=55.781933, lon.=26.356043, Alt.=151.134888m. Speed=12.096000m/h.</desc>
<speed>3.360000</speed>
</trkpt>
<trkpt lat="55.781910" lon="26.355995">
<ele>150.713013</ele>
<time>2010-07-17T08:43:46Z</time>
<desc>lat.=55.781910, lon.=26.355995, Alt.=150.713013m. Speed=12.960000m/h.</desc>
<speed>3.600000</speed>
</trkpt>
<trkpt lat="55.781879" lon="26.355980">
<ele>150.986450</ele>
<time>2010-07-17T08:43:47Z</time>
<desc>lat.=55.781879, lon.=26.355980, Alt.=150.986450m. Speed=12.312000m/h.</desc>
<speed>3.420000</speed>
</trkpt>
<trkpt lat="55.781853" lon="26.355970">
<ele>151.326294</ele>
<time>2010-07-17T08:43:48Z</time>
<desc>lat.=55.781853, lon.=26.355970, Alt.=151.326294m. Speed=11.196000m/h.</desc>
<speed>3.110000</speed>
</trkpt>
<trkpt lat="55.781830" lon="26.355963">
<ele>151.275513</ele>
<time>2010-07-17T08:43:49Z</time>
<desc>lat.=55.781830, lon.=26.355963, Alt.=151.275513m. Speed=7.848000m/h.</desc>
<speed>2.180000</speed>
</trkpt>
<trkpt lat="55.781822" lon="26.355947">
<ele>150.822388</ele>
<time>2010-07-17T08:43:50Z</time>
<desc>lat.=55.781822, lon.=26.355947, Alt.=150.822388m. Speed=6.480000m/h.</desc>
<speed>1.800000</speed>
</trkpt>
<trkpt lat="55.781807" lon="26.355940">
<ele>150.541138</ele>
<time>2010-07-17T08:43:51Z</time>
<desc>lat.=55.781807, lon.=26.355940, Alt.=150.541138m. Speed=4.464000m/h.</desc>
<speed>1.240000</speed>
</trkpt>
<trkpt lat="55.781807" lon="26.355934">
<ele>150.396606</ele>
<time>2010-07-17T08:43:52Z</time>
<desc>lat.=55.781807, lon.=26.355934, Alt.=150.396606m. Speed=0.612000m/h.</desc>
<speed>0.170000</speed>
</trkpt>
<trkpt lat="55.781803" lon="26.355925">
<ele>149.322388</ele>
<time>2010-07-17T08:43:53Z</time>
<desc>lat.=55.781803, lon.=26.355925, Alt.=149.322388m. Speed=1.764000m/h.</desc>
<speed>0.490000</speed>
</trkpt>
<trkpt lat="55.781803" lon="26.355909">
<ele>149.209106</ele>
<time>2010-07-17T08:43:54Z</time>
<desc>lat.=55.781803, lon.=26.355909, Alt.=149.209106m. Speed=0.432000m/h.</desc>
<speed>0.120000</speed>
</trkpt>
<trkpt lat="55.781807" lon="26.355909">
<ele>149.736450</ele>
<time>2010-07-17T08:43:55Z</time>
<desc>lat.=55.781807, lon.=26.355909, Alt.=149.736450m. Speed=0.972000m/h.</desc>
<speed>0.270000</speed>
</trkpt>
<trkpt lat="55.781807" lon="26.355913">
<ele>149.693481</ele>
<time>2010-07-17T08:43:56Z</time>
<desc>lat.=55.781807, lon.=26.355913, Alt.=149.693481m. Speed=0.540000m/h.</desc>
<speed>0.150000</speed>
</trkpt>
<trkpt lat="55.781807" lon="26.355915">
<ele>149.666138</ele>
<time>2010-07-17T08:43:57Z</time>
<desc>lat.=55.781807, lon.=26.355915, Alt.=149.666138m. Speed=0.324000m/h.</desc>
<speed>0.090000</speed>
</trkpt>
<trkpt lat="55.781807" lon="26.355917">
<ele>149.654419</ele>
<time>2010-07-17T08:43:58Z</time>
<desc>lat.=55.781807, lon.=26.355917, Alt.=149.654419m. Speed=0.324000m/h.</desc>
<speed>0.090000</speed>
</trkpt>
<trkpt lat="55.781807" lon="26.355917">
<ele>149.642700</ele>
<time>2010-07-17T08:43:59Z</time>
<desc>lat.=55.781807, lon.=26.355917, Alt.=149.642700m. Speed=0.540000m/h.</desc>
<speed>0.150000</speed>
</trkpt>
<trkpt lat="55.781807" lon="26.355921">
<ele>149.646606</ele>
<time>2010-07-17T08:44:00Z</time>
<desc>lat.=55.781807, lon.=26.355921, Alt.=149.646606m. Speed=0.396000m/h.</desc>
<speed>0.110000</speed>
</trkpt>
<trkpt lat="55.781807" lon="26.355921">
<ele>149.630981</ele>
<time>2010-07-17T08:44:01Z</time>
<desc>lat.=55.781807, lon.=26.355921, Alt.=149.630981m. Speed=0.180000m/h.</desc>
<speed>0.050000</speed>
</trkpt>
<trkpt lat="55.781807" lon="26.355923">
<ele>149.619263</ele>
<time>2010-07-17T08:44:02Z</time>
<desc>lat.=55.781807, lon.=26.355923, Alt.=149.619263m. Speed=0.324000m/h.</desc>
<speed>0.090000</speed>
</trkpt>
<trkpt lat="55.781807" lon="26.355923">
<ele>149.615356</ele>
<time>2010-07-17T08:44:03Z</time>
<desc>lat.=55.781807, lon.=26.355923, Alt.=149.615356m. Speed=0.180000m/h.</desc>
<speed>0.050000</speed>
</trkpt>
<trkpt lat="55.781807" lon="26.355925">
<ele>149.611450</ele>
<time>2010-07-17T08:44:04Z</time>
<desc>lat.=55.781807, lon.=26.355925, Alt.=149.611450m. Speed=0.468000m/h.</desc>
<speed>0.130000</speed>
</trkpt>
<trkpt lat="55.781811" lon="26.355927">
<ele>149.611450</ele>
<time>2010-07-17T08:44:05Z</time>
<desc>lat.=55.781811, lon.=26.355927, Alt.=149.611450m. Speed=0.576000m/h.</desc>
<speed>0.160000</speed>
</trkpt>
<trkpt lat="55.781811" lon="26.355927">
<ele>149.619263</ele>
<time>2010-07-17T08:44:06Z</time>
<desc>lat.=55.781811, lon.=26.355927, Alt.=149.619263m. Speed=0.144000m/h.</desc>
<speed>0.040000</speed>
</trkpt>
<trkpt lat="55.781811" lon="26.355928">
<ele>149.623169</ele>
<time>2010-07-17T08:44:07Z</time>
<desc>lat.=55.781811, lon.=26.355928, Alt.=149.623169m. Speed=0.432000m/h.</desc>
<speed>0.120000</speed>
</trkpt>
<trkpt lat="55.781811" lon="26.355928">
<ele>149.630981</ele>
<time>2010-07-17T08:44:08Z</time>
<desc>lat.=55.781811, lon.=26.355928, Alt.=149.630981m. Speed=0.396000m/h.</desc>
<speed>0.110000</speed>
</trkpt>
<trkpt lat="55.781811" lon="26.355930">
<ele>149.638794</ele>
<time>2010-07-17T08:44:09Z</time>
<desc>lat.=55.781811, lon.=26.355930, Alt.=149.638794m. Speed=0.144000m/h.</desc>
<speed>0.040000</speed>
</trkpt>
<trkpt lat="55.781811" lon="26.355928">
<ele>149.646606</ele>
<time>2010-07-17T08:44:10Z</time>
<desc>lat.=55.781811, lon.=26.355928, Alt.=149.646606m. Speed=0.504000m/h.</desc>
<speed>0.140000</speed>
</trkpt>
<trkpt lat="55.781811" lon="26.355927">
<ele>149.658325</ele>
<time>2010-07-17T08:44:11Z</time>
<desc>lat.=55.781811, lon.=26.355927, Alt.=149.658325m. Speed=1.188000m/h.</desc>
<speed>0.330000</speed>
</trkpt>
<trkpt lat="55.781807" lon="26.355923">
<ele>149.677856</ele>
<time>2010-07-17T08:44:12Z</time>
<desc>lat.=55.781807, lon.=26.355923, Alt.=149.677856m. Speed=1.692000m/h.</desc>
<speed>0.470000</speed>
</trkpt>
<trkpt lat="55.781803" lon="26.355919">
<ele>149.697388</ele>
<time>2010-07-17T08:44:13Z</time>
<desc>lat.=55.781803, lon.=26.355919, Alt.=149.697388m. Speed=1.764000m/h.</desc>
<speed>0.490000</speed>
</trkpt>
<trkpt lat="55.781799" lon="26.355915">
<ele>149.709106</ele>
<time>2010-07-17T08:44:14Z</time>
<desc>lat.=55.781799, lon.=26.355915, Alt.=149.709106m. Speed=1.728000m/h.</desc>
<speed>0.480000</speed>
</trkpt>
<trkpt lat="55.781796" lon="26.355911">
<ele>149.728638</ele>
<time>2010-07-17T08:44:15Z</time>
<desc>lat.=55.781796, lon.=26.355911, Alt.=149.728638m. Speed=1.440000m/h.</desc>
<speed>0.400000</speed>
</trkpt>
<trkpt lat="55.781792" lon="26.355907">
<ele>149.744263</ele>
<time>2010-07-17T08:44:16Z</time>
<desc>lat.=55.781792, lon.=26.355907, Alt.=149.744263m. Speed=1.512000m/h.</desc>
<speed>0.420000</speed>
</trkpt>
<trkpt lat="55.781788" lon="26.355904">
<ele>149.767700</ele>
<time>2010-07-17T08:44:17Z</time>
<desc>lat.=55.781788, lon.=26.355904, Alt.=149.767700m. Speed=1.512000m/h.</desc>
<speed>0.420000</speed>
</trkpt>
<trkpt lat="55.781788" lon="26.355900">
<ele>149.795044</ele>
<time>2010-07-17T08:44:18Z</time>
<desc>lat.=55.781788, lon.=26.355900, Alt.=149.795044m. Speed=1.440000m/h.</desc>
<speed>0.400000</speed>
</trkpt>
<trkpt lat="55.781784" lon="26.355896">
<ele>149.826294</ele>
<time>2010-07-17T08:44:19Z</time>
<desc>lat.=55.781784, lon.=26.355896, Alt.=149.826294m. Speed=1.440000m/h.</desc>
<speed>0.400000</speed>
</trkpt>
<trkpt lat="55.781780" lon="26.355892">
<ele>149.853638</ele>
<time>2010-07-17T08:44:20Z</time>
<desc>lat.=55.781780, lon.=26.355892, Alt.=149.853638m. Speed=1.260000m/h.</desc>
<speed>0.350000</speed>
</trkpt>
<trkpt lat="55.781776" lon="26.355888">
<ele>149.884888</ele>
<time>2010-07-17T08:44:21Z</time>
<desc>lat.=55.781776, lon.=26.355888, Alt.=149.884888m. Speed=1.080000m/h.</desc>
<speed>0.300000</speed>
</trkpt>
<trkpt lat="55.781776" lon="26.355886">
<ele>149.923950</ele>
<time>2010-07-17T08:44:22Z</time>
<desc>lat.=55.781776, lon.=26.355886, Alt.=149.923950m. Speed=1.044000m/h.</desc>
<speed>0.290000</speed>
</trkpt>
<trkpt lat="55.781773" lon="26.355885">
<ele>149.963013</ele>
<time>2010-07-17T08:44:23Z</time>
<desc>lat.=55.781773, lon.=26.355885, Alt.=149.963013m. Speed=1.080000m/h.</desc>
<speed>0.300000</speed>
</trkpt>
<trkpt lat="55.781773" lon="26.355881">
<ele>149.998169</ele>
<time>2010-07-17T08:44:24Z</time>
<desc>lat.=55.781773, lon.=26.355881, Alt.=149.998169m. Speed=0.936000m/h.</desc>
<speed>0.260000</speed>
</trkpt>
<trkpt lat="55.781769" lon="26.355879">
<ele>150.029419</ele>
<time>2010-07-17T08:44:25Z</time>
<desc>lat.=55.781769, lon.=26.355879, Alt.=150.029419m. Speed=0.936000m/h.</desc>
<speed>0.260000</speed>
</trkpt>
<trkpt lat="55.781769" lon="26.355877">
<ele>150.056763</ele>
<time>2010-07-17T08:44:26Z</time>
<desc>lat.=55.781769, lon.=26.355877, Alt.=150.056763m. Speed=0.648000m/h.</desc>
<speed>0.180000</speed>
</trkpt>
<trkpt lat="55.781765" lon="26.355877">
<ele>150.080200</ele>
<time>2010-07-17T08:44:27Z</time>
<desc>lat.=55.781765, lon.=26.355877, Alt.=150.080200m. Speed=0.540000m/h.</desc>
<speed>0.150000</speed>
</trkpt>
<trkpt lat="55.781765" lon="26.355875">
<ele>150.099731</ele>
<time>2010-07-17T08:44:28Z</time>
<desc>lat.=55.781765, lon.=26.355875, Alt.=150.099731m. Speed=0.540000m/h.</desc>
<speed>0.150000</speed>
</trkpt>
<trkpt lat="55.781765" lon="26.355873">
<ele>150.119263</ele>
<time>2010-07-17T08:44:29Z</time>
<desc>lat.=55.781765, lon.=26.355873, Alt.=150.119263m. Speed=0.576000m/h.</desc>
<speed>0.160000</speed>
</trkpt>
<trkpt lat="55.781761" lon="26.355871">
<ele>150.134888</ele>
<time>2010-07-17T08:44:30Z</time>
<desc>lat.=55.781761, lon.=26.355871, Alt.=150.134888m. Speed=0.648000m/h.</desc>
<speed>0.180000</speed>
</trkpt>
<trkpt lat="55.781761" lon="26.355869">
<ele>150.158325</ele>
<time>2010-07-17T08:44:31Z</time>
<desc>lat.=55.781761, lon.=26.355869, Alt.=150.158325m. Speed=0.612000m/h.</desc>
<speed>0.170000</speed>
</trkpt>
<trkpt lat="55.781761" lon="26.355867">
<ele>150.181763</ele>
<time>2010-07-17T08:44:32Z</time>
<desc>lat.=55.781761, lon.=26.355867, Alt.=150.181763m. Speed=0.684000m/h.</desc>
<speed>0.190000</speed>
</trkpt>
<trkpt lat="55.781757" lon="26.355865">
<ele>150.209106</ele>
<time>2010-07-17T08:44:33Z</time>
<desc>lat.=55.781757, lon.=26.355865, Alt.=150.209106m. Speed=0.576000m/h.</desc>
<speed>0.160000</speed>
</trkpt>
<trkpt lat="55.781757" lon="26.355864">
<ele>150.236450</ele>
<time>2010-07-17T08:44:34Z</time>
<desc>lat.=55.781757, lon.=26.355864, Alt.=150.236450m. Speed=0.612000m/h.</desc>
<speed>0.170000</speed>
</trkpt>
<trkpt lat="55.781757" lon="26.355864">
<ele>150.271606</ele>
<time>2010-07-17T08:44:35Z</time>
<desc>lat.=55.781757, lon.=26.355864, Alt.=150.271606m. Speed=0.684000m/h.</desc>
<speed>0.190000</speed>
</trkpt>
<trkpt lat="55.781754" lon="26.355862">
<ele>150.306763</ele>
<time>2010-07-17T08:44:36Z</time>
<desc>lat.=55.781754, lon.=26.355862, Alt.=150.306763m. Speed=0.468000m/h.</desc>
<speed>0.130000</speed>
</trkpt>
<trkpt lat="55.781754" lon="26.355862">
<ele>150.345825</ele>
<time>2010-07-17T08:44:37Z</time>
<desc>lat.=55.781754, lon.=26.355862, Alt.=150.345825m. Speed=0.216000m/h.</desc>
<speed>0.060000</speed>
</trkpt>
<trkpt lat="55.781754" lon="26.355862">
<ele>150.384888</ele>
<time>2010-07-17T08:44:38Z</time>
<desc>lat.=55.781754, lon.=26.355862, Alt.=150.384888m. Speed=0.180000m/h.</desc>
<speed>0.050000</speed>
</trkpt>
<trkpt lat="55.781754" lon="26.355864">
<ele>150.423950</ele>
<time>2010-07-17T08:44:39Z</time>
<desc>lat.=55.781754, lon.=26.355864, Alt.=150.423950m. Speed=0.540000m/h.</desc>
<speed>0.150000</speed>
</trkpt>
<trkpt lat="55.781754" lon="26.355864">
<ele>150.466919</ele>
<time>2010-07-17T08:44:40Z</time>
<desc>lat.=55.781754, lon.=26.355864, Alt.=150.466919m. Speed=0.576000m/h.</desc>
<speed>0.160000</speed>
</trkpt>
<trkpt lat="55.781757" lon="26.355862">
<ele>150.509888</ele>
<time>2010-07-17T08:44:41Z</time>
<desc>lat.=55.781757, lon.=26.355862, Alt.=150.509888m. Speed=0.792000m/h.</desc>
<speed>0.220000</speed>
</trkpt>
<trkpt lat="55.781757" lon="26.355862">
<ele>150.556763</ele>
<time>2010-07-17T08:44:42Z</time>
<desc>lat.=55.781757, lon.=26.355862, Alt.=150.556763m. Speed=0.612000m/h.</desc>
<speed>0.170000</speed>
</trkpt>
<trkpt lat="55.781761" lon="26.355862">
<ele>150.615356</ele>
<time>2010-07-17T08:44:43Z</time>
<desc>lat.=55.781761, lon.=26.355862, Alt.=150.615356m. Speed=0.684000m/h.</desc>
<speed>0.190000</speed>
</trkpt>
<trkpt lat="55.781761" lon="26.355860">
<ele>150.677856</ele>
<time>2010-07-17T08:44:44Z</time>
<desc>lat.=55.781761, lon.=26.355860, Alt.=150.677856m. Speed=0.576000m/h.</desc>
<speed>0.160000</speed>
</trkpt>
<trkpt lat="55.781765" lon="26.355858">
<ele>150.748169</ele>
<time>2010-07-17T08:44:45Z</time>
<desc>lat.=55.781765, lon.=26.355858, Alt.=150.748169m. Speed=0.576000m/h.</desc>
<speed>0.160000</speed>
</trkpt>
<trkpt lat="55.781765" lon="26.355858">
<ele>150.814575</ele>
<time>2010-07-17T08:44:46Z</time>
<desc>lat.=55.781765, lon.=26.355858, Alt.=150.814575m. Speed=0.720000m/h.</desc>
<speed>0.200000</speed>
</trkpt>
<trkpt lat="55.781769" lon="26.355858">
<ele>150.880981</ele>
<time>2010-07-17T08:44:47Z</time>
<desc>lat.=55.781769, lon.=26.355858, Alt.=150.880981m. Speed=0.720000m/h.</desc>
<speed>0.200000</speed>
</trkpt>
<trkpt lat="55.781769" lon="26.355858">
<ele>150.951294</ele>
<time>2010-07-17T08:44:48Z</time>
<desc>lat.=55.781769, lon.=26.355858, Alt.=150.951294m. Speed=0.576000m/h.</desc>
<speed>0.160000</speed>
</trkpt>
<trkpt lat="55.781769" lon="26.355856">
<ele>151.013794</ele>
<time>2010-07-17T08:44:49Z</time>
<desc>lat.=55.781769, lon.=26.355856, Alt.=151.013794m. Speed=0.360000m/h.</desc>
<speed>0.100000</speed>
</trkpt>
<trkpt lat="55.781773" lon="26.355856">
<ele>151.076294</ele>
<time>2010-07-17T08:44:50Z</time>
<desc>lat.=55.781773, lon.=26.355856, Alt.=151.076294m. Speed=0.288000m/h.</desc>
<speed>0.080000</speed>
</trkpt>
<trkpt lat="55.781773" lon="26.355856">
<ele>151.150513</ele>
<time>2010-07-17T08:44:51Z</time>
<desc>lat.=55.781773, lon.=26.355856, Alt.=151.150513m. Speed=0.468000m/h.</desc>
<speed>0.130000</speed>
</trkpt>
<trkpt lat="55.781773" lon="26.355856">
<ele>151.216919</ele>
<time>2010-07-17T08:44:52Z</time>
<desc>lat.=55.781773, lon.=26.355856, Alt.=151.216919m. Speed=0.576000m/h.</desc>
<speed>0.160000</speed>
</trkpt>
<trkpt lat="55.781776" lon="26.355856">
<ele>151.291138</ele>
<time>2010-07-17T08:44:53Z</time>
<desc>lat.=55.781776, lon.=26.355856, Alt.=151.291138m. Speed=0.612000m/h.</desc>
<speed>0.170000</speed>
</trkpt>
<trkpt lat="55.781776" lon="26.355858">
<ele>151.361450</ele>
<time>2010-07-17T08:44:54Z</time>
<desc>lat.=55.781776, lon.=26.355858, Alt.=151.361450m. Speed=0.540000m/h.</desc>
<speed>0.150000</speed>
</trkpt>
<trkpt lat="55.781776" lon="26.355858">
<ele>151.427856</ele>
<time>2010-07-17T08:44:55Z</time>
<desc>lat.=55.781776, lon.=26.355858, Alt.=151.427856m. Speed=0.504000m/h.</desc>
<speed>0.140000</speed>
</trkpt>
<trkpt lat="55.781780" lon="26.355858">
<ele>151.490356</ele>
<time>2010-07-17T08:44:56Z</time>
<desc>lat.=55.781780, lon.=26.355858, Alt.=151.490356m. Speed=0.612000m/h.</desc>
<speed>0.170000</speed>
</trkpt>
<trkpt lat="55.781780" lon="26.355858">
<ele>151.556763</ele>
<time>2010-07-17T08:44:57Z</time>
<desc>lat.=55.781780, lon.=26.355858, Alt.=151.556763m. Speed=0.756000m/h.</desc>
<speed>0.210000</speed>
</trkpt>
<trkpt lat="55.781784" lon="26.355858">
<ele>151.630981</ele>
<time>2010-07-17T08:44:58Z</time>
<desc>lat.=55.781784, lon.=26.355858, Alt.=151.630981m. Speed=0.756000m/h.</desc>
<speed>0.210000</speed>
</trkpt>
<trkpt lat="55.781784" lon="26.355860">
<ele>151.705200</ele>
<time>2010-07-17T08:44:59Z</time>
<desc>lat.=55.781784, lon.=26.355860, Alt.=151.705200m. Speed=0.936000m/h.</desc>
<speed>0.260000</speed>
</trkpt>
<trkpt lat="55.781788" lon="26.355860">
<ele>151.779419</ele>
<time>2010-07-17T08:45:00Z</time>
<desc>lat.=55.781788, lon.=26.355860, Alt.=151.779419m. Speed=0.900000m/h.</desc>
<speed>0.250000</speed>
</trkpt>
<trkpt lat="55.781792" lon="26.355860">
<ele>151.841919</ele>
<time>2010-07-17T08:45:01Z</time>
<desc>lat.=55.781792, lon.=26.355860, Alt.=151.841919m. Speed=0.972000m/h.</desc>
<speed>0.270000</speed>
</trkpt>
<trkpt lat="55.781792" lon="26.355862">
<ele>151.912231</ele>
<time>2010-07-17T08:45:02Z</time>
<desc>lat.=55.781792, lon.=26.355862, Alt.=151.912231m. Speed=0.864000m/h.</desc>
<speed>0.240000</speed>
</trkpt>
<trkpt lat="55.781796" lon="26.355862">
<ele>151.978638</ele>
<time>2010-07-17T08:45:03Z</time>
<desc>lat.=55.781796, lon.=26.355862, Alt.=151.978638m. Speed=0.936000m/h.</desc>
<speed>0.260000</speed>
</trkpt>
<trkpt lat="55.781796" lon="26.355862">
<ele>152.041138</ele>
<time>2010-07-17T08:45:04Z</time>
<desc>lat.=55.781796, lon.=26.355862, Alt.=152.041138m. Speed=0.900000m/h.</desc>
<speed>0.250000</speed>
</trkpt>
<trkpt lat="55.781799" lon="26.355864">
<ele>152.111450</ele>
<time>2010-07-17T08:45:05Z</time>
<desc>lat.=55.781799, lon.=26.355864, Alt.=152.111450m. Speed=0.864000m/h.</desc>
<speed>0.240000</speed>
</trkpt>
<trkpt lat="55.781803" lon="26.355864">
<ele>152.181763</ele>
<time>2010-07-17T08:45:06Z</time>
<desc>lat.=55.781803, lon.=26.355864, Alt.=152.181763m. Speed=1.008000m/h.</desc>
<speed>0.280000</speed>
</trkpt>
<trkpt lat="55.781803" lon="26.355864">
<ele>152.263794</ele>
<time>2010-07-17T08:45:07Z</time>
<desc>lat.=55.781803, lon.=26.355864, Alt.=152.263794m. Speed=1.080000m/h.</desc>
<speed>0.300000</speed>
</trkpt>
<trkpt lat="55.781807" lon="26.355864">
<ele>152.349731</ele>
<time>2010-07-17T08:45:08Z</time>
<desc>lat.=55.781807, lon.=26.355864, Alt.=152.349731m. Speed=1.080000m/h.</desc>
<speed>0.300000</speed>
</trkpt>
<trkpt lat="55.781811" lon="26.355864">
<ele>152.443481</ele>
<time>2010-07-17T08:45:09Z</time>
<desc>lat.=55.781811, lon.=26.355864, Alt.=152.443481m. Speed=1.044000m/h.</desc>
<speed>0.290000</speed>
</trkpt>
<trkpt lat="55.781815" lon="26.355864">
<ele>152.552856</ele>
<time>2010-07-17T08:45:10Z</time>
<desc>lat.=55.781815, lon.=26.355864, Alt.=152.552856m. Speed=1.008000m/h.</desc>
<speed>0.280000</speed>
</trkpt>
<trkpt lat="55.781815" lon="26.355865">
<ele>152.666138</ele>
<time>2010-07-17T08:45:11Z</time>
<desc>lat.=55.781815, lon.=26.355865, Alt.=152.666138m. Speed=0.864000m/h.</desc>
<speed>0.240000</speed>
</trkpt>
<trkpt lat="55.781818" lon="26.355865">
<ele>152.787231</ele>
<time>2010-07-17T08:45:12Z</time>
<desc>lat.=55.781818, lon.=26.355865, Alt.=152.787231m. Speed=0.864000m/h.</desc>
<speed>0.240000</speed>
</trkpt>
<trkpt lat="55.781818" lon="26.355865">
<ele>152.912231</ele>
<time>2010-07-17T08:45:13Z</time>
<desc>lat.=55.781818, lon.=26.355865, Alt.=152.912231m. Speed=0.864000m/h.</desc>
<speed>0.240000</speed>
</trkpt>
<trkpt lat="55.781822" lon="26.355865">
<ele>153.045044</ele>
<time>2010-07-17T08:45:14Z</time>
<desc>lat.=55.781822, lon.=26.355865, Alt.=153.045044m. Speed=0.972000m/h.</desc>
<speed>0.270000</speed>
</trkpt>
<trkpt lat="55.781826" lon="26.355865">
<ele>153.185669</ele>
<time>2010-07-17T08:45:15Z</time>
<desc>lat.=55.781826, lon.=26.355865, Alt.=153.185669m. Speed=1.008000m/h.</desc>
<speed>0.280000</speed>
</trkpt>
<trkpt lat="55.781826" lon="26.355865">
<ele>153.334106</ele>
<time>2010-07-17T08:45:16Z</time>
<desc>lat.=55.781826, lon.=26.355865, Alt.=153.334106m. Speed=1.044000m/h.</desc>
<speed>0.290000</speed>
</trkpt>
<trkpt lat="55.781830" lon="26.355867">
<ele>153.486450</ele>
<time>2010-07-17T08:45:17Z</time>
<desc>lat.=55.781830, lon.=26.355867, Alt.=153.486450m. Speed=1.116000m/h.</desc>
<speed>0.310000</speed>
</trkpt>
<trkpt lat="55.781834" lon="26.355867">
<ele>153.638794</ele>
<time>2010-07-17T08:45:18Z</time>
<desc>lat.=55.781834, lon.=26.355867, Alt.=153.638794m. Speed=1.260000m/h.</desc>
<speed>0.350000</speed>
</trkpt>
<trkpt lat="55.781837" lon="26.355867">
<ele>153.798950</ele>
<time>2010-07-17T08:45:19Z</time>
<desc>lat.=55.781837, lon.=26.355867, Alt.=153.798950m. Speed=1.260000m/h.</desc>
<speed>0.350000</speed>
</trkpt>
<trkpt lat="55.781841" lon="26.355869">
<ele>153.966919</ele>
<time>2010-07-17T08:45:20Z</time>
<desc>lat.=55.781841, lon.=26.355869, Alt.=153.966919m. Speed=1.224000m/h.</desc>
<speed>0.340000</speed>
</trkpt>
<trkpt lat="55.781845" lon="26.355867">
<ele>154.123169</ele>
<time>2010-07-17T08:45:21Z</time>
<desc>lat.=55.781845, lon.=26.355867, Alt.=154.123169m. Speed=1.224000m/h.</desc>
<speed>0.340000</speed>
</trkpt>
<trkpt lat="55.781845" lon="26.355867">
<ele>154.287231</ele>
<time>2010-07-17T08:45:22Z</time>
<desc>lat.=55.781845, lon.=26.355867, Alt.=154.287231m. Speed=1.260000m/h.</desc>
<speed>0.350000</speed>
</trkpt>
<trkpt lat="55.781849" lon="26.355869">
<ele>154.455200</ele>
<time>2010-07-17T08:45:23Z</time>
<desc>lat.=55.781849, lon.=26.355869, Alt.=154.455200m. Speed=1.296000m/h.</desc>
<speed>0.360000</speed>
</trkpt>
<trkpt lat="55.781853" lon="26.355869">
<ele>154.627075</ele>
<time>2010-07-17T08:45:24Z</time>
<desc>lat.=55.781853, lon.=26.355869, Alt.=154.627075m. Speed=1.260000m/h.</desc>
<speed>0.350000</speed>
</trkpt>
<trkpt lat="55.781857" lon="26.355869">
<ele>154.802856</ele>
<time>2010-07-17T08:45:25Z</time>
<desc>lat.=55.781857, lon.=26.355869, Alt.=154.802856m. Speed=1.404000m/h.</desc>
<speed>0.390000</speed>
</trkpt>
<trkpt lat="55.781860" lon="26.355869">
<ele>154.978638</ele>
<time>2010-07-17T08:45:26Z</time>
<desc>lat.=55.781860, lon.=26.355869, Alt.=154.978638m. Speed=1.440000m/h.</desc>
<speed>0.400000</speed>
</trkpt>
<trkpt lat="55.781864" lon="26.355869">
<ele>155.162231</ele>
<time>2010-07-17T08:45:27Z</time>
<desc>lat.=55.781864, lon.=26.355869, Alt.=155.162231m. Speed=1.584000m/h.</desc>
<speed>0.440000</speed>
</trkpt>
<trkpt lat="55.781868" lon="26.355871">
<ele>155.341919</ele>
<time>2010-07-17T08:45:28Z</time>
<desc>lat.=55.781868, lon.=26.355871, Alt.=155.341919m. Speed=1.548000m/h.</desc>
<speed>0.430000</speed>
</trkpt>
<trkpt lat="55.781872" lon="26.355873">
<ele>155.537231</ele>
<time>2010-07-17T08:45:29Z</time>
<desc>lat.=55.781872, lon.=26.355873, Alt.=155.537231m. Speed=1.656000m/h.</desc>
<speed>0.460000</speed>
</trkpt>
<trkpt lat="55.781876" lon="26.355875">
<ele>155.728638</ele>
<time>2010-07-17T08:45:30Z</time>
<desc>lat.=55.781876, lon.=26.355875, Alt.=155.728638m. Speed=1.440000m/h.</desc>
<speed>0.400000</speed>
</trkpt>
<trkpt lat="55.781879" lon="26.355877">
<ele>155.927856</ele>
<time>2010-07-17T08:45:31Z</time>
<desc>lat.=55.781879, lon.=26.355877, Alt.=155.927856m. Speed=1.296000m/h.</desc>
<speed>0.360000</speed>
</trkpt>
<trkpt lat="55.781883" lon="26.355879">
<ele>156.127075</ele>
<time>2010-07-17T08:45:32Z</time>
<desc>lat.=55.781883, lon.=26.355879, Alt.=156.127075m. Speed=1.476000m/h.</desc>
<speed>0.410000</speed>
</trkpt>
<trkpt lat="55.781887" lon="26.355883">
<ele>156.330200</ele>
<time>2010-07-17T08:45:33Z</time>
<desc>lat.=55.781887, lon.=26.355883, Alt.=156.330200m. Speed=1.332000m/h.</desc>
<speed>0.370000</speed>
</trkpt>
<trkpt lat="55.781891" lon="26.355885">
<ele>156.537231</ele>
<time>2010-07-17T08:45:34Z</time>
<desc>lat.=55.781891, lon.=26.355885, Alt.=156.537231m. Speed=1.152000m/h.</desc>
<speed>0.320000</speed>
</trkpt>
<trkpt lat="55.781891" lon="26.355886">
<ele>156.748169</ele>
<time>2010-07-17T08:45:35Z</time>
<desc>lat.=55.781891, lon.=26.355886, Alt.=156.748169m. Speed=1.080000m/h.</desc>
<speed>0.300000</speed>
</trkpt>
<trkpt lat="55.781895" lon="26.355886">
<ele>156.963013</ele>
<time>2010-07-17T08:45:36Z</time>
<desc>lat.=55.781895, lon.=26.355886, Alt.=156.963013m. Speed=0.972000m/h.</desc>
<speed>0.270000</speed>
</trkpt>
<trkpt lat="55.781898" lon="26.355888">
<ele>157.181763</ele>
<time>2010-07-17T08:45:37Z</time>
<desc>lat.=55.781898, lon.=26.355888, Alt.=157.181763m. Speed=0.936000m/h.</desc>
<speed>0.260000</speed>
</trkpt>
<trkpt lat="55.781898" lon="26.355888">
<ele>157.400513</ele>
<time>2010-07-17T08:45:38Z</time>
<desc>lat.=55.781898, lon.=26.355888, Alt.=157.400513m. Speed=0.720000m/h.</desc>
<speed>0.200000</speed>
</trkpt>
<trkpt lat="55.781902" lon="26.355888">
<ele>157.623169</ele>
<time>2010-07-17T08:45:39Z</time>
<desc>lat.=55.781902, lon.=26.355888, Alt.=157.623169m. Speed=0.756000m/h.</desc>
<speed>0.210000</speed>
</trkpt>
<trkpt lat="55.781902" lon="26.355890">
<ele>157.845825</ele>
<time>2010-07-17T08:45:40Z</time>
<desc>lat.=55.781902, lon.=26.355890, Alt.=157.845825m. Speed=0.648000m/h.</desc>
<speed>0.180000</speed>
</trkpt>
<trkpt lat="55.781906" lon="26.355890">
<ele>158.072388</ele>
<time>2010-07-17T08:45:41Z</time>
<desc>lat.=55.781906, lon.=26.355890, Alt.=158.072388m. Speed=0.576000m/h.</desc>
<speed>0.160000</speed>
</trkpt>
<trkpt lat="55.781906" lon="26.355888">
<ele>158.291138</ele>
<time>2010-07-17T08:45:42Z</time>
<desc>lat.=55.781906, lon.=26.355888, Alt.=158.291138m. Speed=0.684000m/h.</desc>
<speed>0.190000</speed>
</trkpt>
<trkpt lat="55.781910" lon="26.355888">
<ele>158.513794</ele>
<time>2010-07-17T08:45:43Z</time>
<desc>lat.=55.781910, lon.=26.355888, Alt.=158.513794m. Speed=0.756000m/h.</desc>
<speed>0.210000</speed>
</trkpt>
<trkpt lat="55.781910" lon="26.355888">
<ele>158.728638</ele>
<time>2010-07-17T08:45:44Z</time>
<desc>lat.=55.781910, lon.=26.355888, Alt.=158.728638m. Speed=0.684000m/h.</desc>
<speed>0.190000</speed>
</trkpt>
<trkpt lat="55.781910" lon="26.355886">
<ele>158.951294</ele>
<time>2010-07-17T08:45:45Z</time>
<desc>lat.=55.781910, lon.=26.355886, Alt.=158.951294m. Speed=0.720000m/h.</desc>
<speed>0.200000</speed>
</trkpt>
<trkpt lat="55.781914" lon="26.355886">
<ele>159.173950</ele>
<time>2010-07-17T08:45:46Z</time>
<desc>lat.=55.781914, lon.=26.355886, Alt.=159.173950m. Speed=0.720000m/h.</desc>
<speed>0.200000</speed>
</trkpt>
<trkpt lat="55.781914" lon="26.355885">
<ele>159.388794</ele>
<time>2010-07-17T08:45:47Z</time>
<desc>lat.=55.781914, lon.=26.355885, Alt.=159.388794m. Speed=0.720000m/h.</desc>
<speed>0.200000</speed>
</trkpt>
<trkpt lat="55.781918" lon="26.355885">
<ele>159.603638</ele>
<time>2010-07-17T08:45:48Z</time>
<desc>lat.=55.781918, lon.=26.355885, Alt.=159.603638m. Speed=0.684000m/h.</desc>
<speed>0.190000</speed>
</trkpt>
<trkpt lat="55.781918" lon="26.355883">
<ele>159.826294</ele>
<time>2010-07-17T08:45:49Z</time>
<desc>lat.=55.781918, lon.=26.355883, Alt.=159.826294m. Speed=0.396000m/h.</desc>
<speed>0.110000</speed>
</trkpt>
<trkpt lat="55.781918" lon="26.355883">
<ele>160.048950</ele>
<time>2010-07-17T08:45:50Z</time>
<desc>lat.=55.781918, lon.=26.355883, Alt.=160.048950m. Speed=0.432000m/h.</desc>
<speed>0.120000</speed>
</trkpt>
<trkpt lat="55.781921" lon="26.355883">
<ele>160.275513</ele>
<time>2010-07-17T08:45:51Z</time>
<desc>lat.=55.781921, lon.=26.355883, Alt.=160.275513m. Speed=0.360000m/h.</desc>
<speed>0.100000</speed>
</trkpt>
<trkpt lat="55.781921" lon="26.355883">
<ele>160.513794</ele>
<time>2010-07-17T08:45:52Z</time>
<desc>lat.=55.781921, lon.=26.355883, Alt.=160.513794m. Speed=0.288000m/h.</desc>
<speed>0.080000</speed>
</trkpt>
<trkpt lat="55.781921" lon="26.355883">
<ele>160.759888</ele>
<time>2010-07-17T08:45:53Z</time>
<desc>lat.=55.781921, lon.=26.355883, Alt.=160.759888m. Speed=0.144000m/h.</desc>
<speed>0.040000</speed>
</trkpt>
<trkpt lat="55.781921" lon="26.355883">
<ele>161.009888</ele>
<time>2010-07-17T08:45:54Z</time>
<desc>lat.=55.781921, lon.=26.355883, Alt.=161.009888m. Speed=0.108000m/h.</desc>
<speed>0.030000</speed>
</trkpt>
<trkpt lat="55.781921" lon="26.355881">
<ele>161.271606</ele>
<time>2010-07-17T08:45:55Z</time>
<desc>lat.=55.781921, lon.=26.355881, Alt.=161.271606m. Speed=0.108000m/h.</desc>
<speed>0.030000</speed>
</trkpt>
<trkpt lat="55.781921" lon="26.355881">
<ele>161.529419</ele>
<time>2010-07-17T08:45:56Z</time>
<desc>lat.=55.781921, lon.=26.355881, Alt.=161.529419m. Speed=0.072000m/h.</desc>
<speed>0.020000</speed>
</trkpt>
<trkpt lat="55.781921" lon="26.355881">
<ele>161.798950</ele>
<time>2010-07-17T08:45:57Z</time>
<desc>lat.=55.781921, lon.=26.355881, Alt.=161.798950m. Speed=0.108000m/h.</desc>
<speed>0.030000</speed>
</trkpt>
<trkpt lat="55.781921" lon="26.355879">
<ele>162.060669</ele>
<time>2010-07-17T08:45:58Z</time>
<desc>lat.=55.781921, lon.=26.355879, Alt.=162.060669m. Speed=0.180000m/h.</desc>
<speed>0.050000</speed>
</trkpt>
<trkpt lat="55.781921" lon="26.355879">
<ele>162.318481</ele>
<time>2010-07-17T08:45:59Z</time>
<desc>lat.=55.781921, lon.=26.355879, Alt.=162.318481m. Speed=0.324000m/h.</desc>
<speed>0.090000</speed>
</trkpt>
<trkpt lat="55.781921" lon="26.355879">
<ele>162.568481</ele>
<time>2010-07-17T08:46:00Z</time>
<desc>lat.=55.781921, lon.=26.355879, Alt.=162.568481m. Speed=0.432000m/h.</desc>
<speed>0.120000</speed>
</trkpt>
<trkpt lat="55.781921" lon="26.355877">
<ele>162.818481</ele>
<time>2010-07-17T08:46:01Z</time>
<desc>lat.=55.781921, lon.=26.355877, Alt.=162.818481m. Speed=0.360000m/h.</desc>
<speed>0.100000</speed>
</trkpt>
<trkpt lat="55.781921" lon="26.355875">
<ele>163.060669</ele>
<time>2010-07-17T08:46:02Z</time>
<desc>lat.=55.781921, lon.=26.355875, Alt.=163.060669m. Speed=0.324000m/h.</desc>
<speed>0.090000</speed>
</trkpt>
<trkpt lat="55.781921" lon="26.355873">
<ele>163.302856</ele>
<time>2010-07-17T08:46:03Z</time>
<desc>lat.=55.781921, lon.=26.355873, Alt.=163.302856m. Speed=0.504000m/h.</desc>
<speed>0.140000</speed>
</trkpt>
<trkpt lat="55.781918" lon="26.355871">
<ele>163.545044</ele>
<time>2010-07-17T08:46:04Z</time>
<desc>lat.=55.781918, lon.=26.355871, Alt.=163.545044m. Speed=0.360000m/h.</desc>
<speed>0.100000</speed>
</trkpt>
<trkpt lat="55.781918" lon="26.355869">
<ele>163.795044</ele>
<time>2010-07-17T08:46:05Z</time>
<desc>lat.=55.781918, lon.=26.355869, Alt.=163.795044m. Speed=0.324000m/h.</desc>
<speed>0.090000</speed>
</trkpt>
<trkpt lat="55.781918" lon="26.355867">
<ele>164.045044</ele>
<time>2010-07-17T08:46:06Z</time>
<desc>lat.=55.781918, lon.=26.355867, Alt.=164.045044m. Speed=0.252000m/h.</desc>
<speed>0.070000</speed>
</trkpt>
<trkpt lat="55.781918" lon="26.355867">
<ele>164.295044</ele>
<time>2010-07-17T08:46:07Z</time>
<desc>lat.=55.781918, lon.=26.355867, Alt.=164.295044m. Speed=0.180000m/h.</desc>
<speed>0.050000</speed>
</trkpt>
<trkpt lat="55.781918" lon="26.355867">
<ele>164.545044</ele>
<time>2010-07-17T08:46:08Z</time>
<desc>lat.=55.781918, lon.=26.355867, Alt.=164.545044m. Speed=0.252000m/h.</desc>
<speed>0.070000</speed>
</trkpt>
<trkpt lat="55.781921" lon="26.355865">
<ele>164.791138</ele>
<time>2010-07-17T08:46:09Z</time>
<desc>lat.=55.781921, lon.=26.355865, Alt.=164.791138m. Speed=0.144000m/h.</desc>
<speed>0.040000</speed>
</trkpt>
<trkpt lat="55.781921" lon="26.355865">
<ele>165.041138</ele>
<time>2010-07-17T08:46:10Z</time>
<desc>lat.=55.781921, lon.=26.355865, Alt.=165.041138m. Speed=0.144000m/h.</desc>
<speed>0.040000</speed>
</trkpt>
<trkpt lat="55.781921" lon="26.355865">
<ele>165.287231</ele>
<time>2010-07-17T08:46:11Z</time>
<desc>lat.=55.781921, lon.=26.355865, Alt.=165.287231m. Speed=0.252000m/h.</desc>
<speed>0.070000</speed>
</trkpt>
<trkpt lat="55.781921" lon="26.355864">
<ele>165.533325</ele>
<time>2010-07-17T08:46:12Z</time>
<desc>lat.=55.781921, lon.=26.355864, Alt.=165.533325m. Speed=0.288000m/h.</desc>
<speed>0.080000</speed>
</trkpt>
<trkpt lat="55.781921" lon="26.355864">
<ele>165.779419</ele>
<time>2010-07-17T08:46:13Z</time>
<desc>lat.=55.781921, lon.=26.355864, Alt.=165.779419m. Speed=0.324000m/h.</desc>
<speed>0.090000</speed>
</trkpt>
<trkpt lat="55.781921" lon="26.355862">
<ele>166.021606</ele>
<time>2010-07-17T08:46:14Z</time>
<desc>lat.=55.781921, lon.=26.355862, Alt.=166.021606m. Speed=0.396000m/h.</desc>
<speed>0.110000</speed>
</trkpt>
<trkpt lat="55.781921" lon="26.355862">
<ele>166.267700</ele>
<time>2010-07-17T08:46:15Z</time>
<desc>lat.=55.781921, lon.=26.355862, Alt.=166.267700m. Speed=0.576000m/h.</desc>
<speed>0.160000</speed>
</trkpt>
<trkpt lat="55.781925" lon="26.355862">
<ele>166.502075</ele>
<time>2010-07-17T08:46:16Z</time>
<desc>lat.=55.781925, lon.=26.355862, Alt.=166.502075m. Speed=0.828000m/h.</desc>
<speed>0.230000</speed>
</trkpt>
<trkpt lat="55.781925" lon="26.355862">
<ele>166.728638</ele>
<time>2010-07-17T08:46:17Z</time>
<desc>lat.=55.781925, lon.=26.355862, Alt.=166.728638m. Speed=0.864000m/h.</desc>
<speed>0.240000</speed>
</trkpt>
<trkpt lat="55.781929" lon="26.355862">
<ele>166.959106</ele>
<time>2010-07-17T08:46:18Z</time>
<desc>lat.=55.781929, lon.=26.355862, Alt.=166.959106m. Speed=0.720000m/h.</desc>
<speed>0.200000</speed>
</trkpt>
<trkpt lat="55.781929" lon="26.355862">
<ele>167.185669</ele>
<time>2010-07-17T08:46:19Z</time>
<desc>lat.=55.781929, lon.=26.355862, Alt.=167.185669m. Speed=0.792000m/h.</desc>
<speed>0.220000</speed>
</trkpt>
<trkpt lat="55.781933" lon="26.355862">
<ele>167.423950</ele>
<time>2010-07-17T08:46:20Z</time>
<desc>lat.=55.781933, lon.=26.355862, Alt.=167.423950m. Speed=0.756000m/h.</desc>
<speed>0.210000</speed>
</trkpt>
<trkpt lat="55.781933" lon="26.355862">
<ele>167.673950</ele>
<time>2010-07-17T08:46:21Z</time>
<desc>lat.=55.781933, lon.=26.355862, Alt.=167.673950m. Speed=0.576000m/h.</desc>
<speed>0.160000</speed>
</trkpt>
<trkpt lat="55.781937" lon="26.355862">
<ele>167.916138</ele>
<time>2010-07-17T08:46:22Z</time>
<desc>lat.=55.781937, lon.=26.355862, Alt.=167.916138m. Speed=0.720000m/h.</desc>
<speed>0.200000</speed>
</trkpt>
<trkpt lat="55.781937" lon="26.355862">
<ele>168.162231</ele>
<time>2010-07-17T08:46:23Z</time>
<desc>lat.=55.781937, lon.=26.355862, Alt.=168.162231m. Speed=0.828000m/h.</desc>
<speed>0.230000</speed>
</trkpt>
<trkpt lat="55.781940" lon="26.355862">
<ele>168.416138</ele>
<time>2010-07-17T08:46:24Z</time>
<desc>lat.=55.781940, lon.=26.355862, Alt.=168.416138m. Speed=0.828000m/h.</desc>
<speed>0.230000</speed>
</trkpt>
<trkpt lat="55.781940" lon="26.355864">
<ele>168.666138</ele>
<time>2010-07-17T08:46:25Z</time>
<desc>lat.=55.781940, lon.=26.355864, Alt.=168.666138m. Speed=0.900000m/h.</desc>
<speed>0.250000</speed>
</trkpt>
<trkpt lat="55.781944" lon="26.355864">
<ele>168.920044</ele>
<time>2010-07-17T08:46:26Z</time>
<desc>lat.=55.781944, lon.=26.355864, Alt.=168.920044m. Speed=0.900000m/h.</desc>
<speed>0.250000</speed>
</trkpt>
<trkpt lat="55.781948" lon="26.355864">
<ele>169.173950</ele>
<time>2010-07-17T08:46:27Z</time>
<desc>lat.=55.781948, lon.=26.355864, Alt.=169.173950m. Speed=0.828000m/h.</desc>
<speed>0.230000</speed>
</trkpt>
<trkpt lat="55.781948" lon="26.355865">
<ele>169.431763</ele>
<time>2010-07-17T08:46:28Z</time>
<desc>lat.=55.781948, lon.=26.355865, Alt.=169.431763m. Speed=0.864000m/h.</desc>
<speed>0.240000</speed>
</trkpt>
<trkpt lat="55.781952" lon="26.355865">
<ele>169.685669</ele>
<time>2010-07-17T08:46:29Z</time>
<desc>lat.=55.781952, lon.=26.355865, Alt.=169.685669m. Speed=0.936000m/h.</desc>
<speed>0.260000</speed>
</trkpt>
<trkpt lat="55.781952" lon="26.355867">
<ele>169.947388</ele>
<time>2010-07-17T08:46:30Z</time>
<desc>lat.=55.781952, lon.=26.355867, Alt.=169.947388m. Speed=1.080000m/h.</desc>
<speed>0.300000</speed>
</trkpt>
<trkpt lat="55.781956" lon="26.355869">
<ele>170.209106</ele>
<time>2010-07-17T08:46:31Z</time>
<desc>lat.=55.781956, lon.=26.355869, Alt.=170.209106m. Speed=0.972000m/h.</desc>
<speed>0.270000</speed>
</trkpt>
<trkpt lat="55.781960" lon="26.355869">
<ele>170.463013</ele>
<time>2010-07-17T08:46:32Z</time>
<desc>lat.=55.781960, lon.=26.355869, Alt.=170.463013m. Speed=0.972000m/h.</desc>
<speed>0.270000</speed>
</trkpt>
<trkpt lat="55.781960" lon="26.355869">
<ele>170.713013</ele>
<time>2010-07-17T08:46:33Z</time>
<desc>lat.=55.781960, lon.=26.355869, Alt.=170.713013m. Speed=0.864000m/h.</desc>
<speed>0.240000</speed>
</trkpt>
<trkpt lat="55.781963" lon="26.355871">
<ele>170.963013</ele>
<time>2010-07-17T08:46:34Z</time>
<desc>lat.=55.781963, lon.=26.355871, Alt.=170.963013m. Speed=0.972000m/h.</desc>
<speed>0.270000</speed>
</trkpt>
<trkpt lat="55.781967" lon="26.355871">
<ele>171.216919</ele>
<time>2010-07-17T08:46:35Z</time>
<desc>lat.=55.781967, lon.=26.355871, Alt.=171.216919m. Speed=1.044000m/h.</desc>
<speed>0.290000</speed>
</trkpt>
<trkpt lat="55.781967" lon="26.355871">
<ele>171.474731</ele>
<time>2010-07-17T08:46:36Z</time>
<desc>lat.=55.781967, lon.=26.355871, Alt.=171.474731m. Speed=0.936000m/h.</desc>
<speed>0.260000</speed>
</trkpt>
<trkpt lat="55.781971" lon="26.355871">
<ele>171.740356</ele>
<time>2010-07-17T08:46:37Z</time>
<desc>lat.=55.781971, lon.=26.355871, Alt.=171.740356m. Speed=0.972000m/h.</desc>
<speed>0.270000</speed>
</trkpt>
<trkpt lat="55.781971" lon="26.355871">
<ele>172.009888</ele>
<time>2010-07-17T08:46:38Z</time>
<desc>lat.=55.781971, lon.=26.355871, Alt.=172.009888m. Speed=0.864000m/h.</desc>
<speed>0.240000</speed>
</trkpt>
<trkpt lat="55.781975" lon="26.355871">
<ele>172.287231</ele>
<time>2010-07-17T08:46:39Z</time>
<desc>lat.=55.781975, lon.=26.355871, Alt.=172.287231m. Speed=0.684000m/h.</desc>
<speed>0.190000</speed>
</trkpt>
<trkpt lat="55.781975" lon="26.355869">
<ele>172.568481</ele>
<time>2010-07-17T08:46:40Z</time>
<desc>lat.=55.781975, lon.=26.355869, Alt.=172.568481m. Speed=0.648000m/h.</desc>
<speed>0.180000</speed>
</trkpt>
<trkpt lat="55.781979" lon="26.355869">
<ele>172.853638</ele>
<time>2010-07-17T08:46:41Z</time>
<desc>lat.=55.781979, lon.=26.355869, Alt.=172.853638m. Speed=0.648000m/h.</desc>
<speed>0.180000</speed>
</trkpt>
<trkpt lat="55.781979" lon="26.355869">
<ele>173.138794</ele>
<time>2010-07-17T08:46:42Z</time>
<desc>lat.=55.781979, lon.=26.355869, Alt.=173.138794m. Speed=0.648000m/h.</desc>
<speed>0.180000</speed>
</trkpt>
<trkpt lat="55.781982" lon="26.355869">
<ele>173.431763</ele>
<time>2010-07-17T08:46:43Z</time>
<desc>lat.=55.781982, lon.=26.355869, Alt.=173.431763m. Speed=0.756000m/h.</desc>
<speed>0.210000</speed>
</trkpt>
<trkpt lat="55.781982" lon="26.355867">
<ele>173.713013</ele>
<time>2010-07-17T08:46:44Z</time>
<desc>lat.=55.781982, lon.=26.355867, Alt.=173.713013m. Speed=0.756000m/h.</desc>
<speed>0.210000</speed>
</trkpt>
<trkpt lat="55.781986" lon="26.355865">
<ele>174.002075</ele>
<time>2010-07-17T08:46:45Z</time>
<desc>lat.=55.781986, lon.=26.355865, Alt.=174.002075m. Speed=0.756000m/h.</desc>
<speed>0.210000</speed>
</trkpt>
<trkpt lat="55.781986" lon="26.355864">
<ele>174.287231</ele>
<time>2010-07-17T08:46:46Z</time>
<desc>lat.=55.781986, lon.=26.355864, Alt.=174.287231m. Speed=0.684000m/h.</desc>
<speed>0.190000</speed>
</trkpt>
<trkpt lat="55.781986" lon="26.355864">
<ele>174.564575</ele>
<time>2010-07-17T08:46:47Z</time>
<desc>lat.=55.781986, lon.=26.355864, Alt.=174.564575m. Speed=0.612000m/h.</desc>
<speed>0.170000</speed>
</trkpt>
<trkpt lat="55.781990" lon="26.355864">
<ele>174.838013</ele>
<time>2010-07-17T08:46:48Z</time>
<desc>lat.=55.781990, lon.=26.355864, Alt.=174.838013m. Speed=0.684000m/h.</desc>
<speed>0.190000</speed>
</trkpt>
<trkpt lat="55.781990" lon="26.355864">
<ele>175.103638</ele>
<time>2010-07-17T08:46:49Z</time>
<desc>lat.=55.781990, lon.=26.355864, Alt.=175.103638m. Speed=0.576000m/h.</desc>
<speed>0.160000</speed>
</trkpt>
<trkpt lat="55.781994" lon="26.355865">
<ele>175.369263</ele>
<time>2010-07-17T08:46:50Z</time>
<desc>lat.=55.781994, lon.=26.355865, Alt.=175.369263m. Speed=0.468000m/h.</desc>
<speed>0.130000</speed>
</trkpt>
<trkpt lat="55.781994" lon="26.355865">
<ele>175.634888</ele>
<time>2010-07-17T08:46:51Z</time>
<desc>lat.=55.781994, lon.=26.355865, Alt.=175.634888m. Speed=0.252000m/h.</desc>
<speed>0.070000</speed>
</trkpt>
<trkpt lat="55.781994" lon="26.355867">
<ele>175.900513</ele>
<time>2010-07-17T08:46:52Z</time>
<desc>lat.=55.781994, lon.=26.355867, Alt.=175.900513m. Speed=0.216000m/h.</desc>
<speed>0.060000</speed>
</trkpt>
<trkpt lat="55.781994" lon="26.355867">
<ele>176.158325</ele>
<time>2010-07-17T08:46:53Z</time>
<desc>lat.=55.781994, lon.=26.355867, Alt.=176.158325m. Speed=0.180000m/h.</desc>
<speed>0.050000</speed>
</trkpt>
<trkpt lat="55.781994" lon="26.355867">
<ele>176.420044</ele>
<time>2010-07-17T08:46:54Z</time>
<desc>lat.=55.781994, lon.=26.355867, Alt.=176.420044m. Speed=0.288000m/h.</desc>
<speed>0.080000</speed>
</trkpt>
<trkpt lat="55.781994" lon="26.355869">
<ele>176.685669</ele>
<time>2010-07-17T08:46:55Z</time>
<desc>lat.=55.781994, lon.=26.355869, Alt.=176.685669m. Speed=0.360000m/h.</desc>
<speed>0.100000</speed>
</trkpt>
<trkpt lat="55.781994" lon="26.355871">
<ele>176.947388</ele>
<time>2010-07-17T08:46:56Z</time>
<desc>lat.=55.781994, lon.=26.355871, Alt.=176.947388m. Speed=0.360000m/h.</desc>
<speed>0.100000</speed>
</trkpt>
<trkpt lat="55.781994" lon="26.355873">
<ele>177.216919</ele>
<time>2010-07-17T08:46:57Z</time>
<desc>lat.=55.781994, lon.=26.355873, Alt.=177.216919m. Speed=0.504000m/h.</desc>
<speed>0.140000</speed>
</trkpt>
<trkpt lat="55.781994" lon="26.355875">
<ele>177.482544</ele>
<time>2010-07-17T08:46:58Z</time>
<desc>lat.=55.781994, lon.=26.355875, Alt.=177.482544m. Speed=0.504000m/h.</desc>
<speed>0.140000</speed>
</trkpt>
<trkpt lat="55.781990" lon="26.355877">
<ele>177.748169</ele>
<time>2010-07-17T08:46:59Z</time>
<desc>lat.=55.781990, lon.=26.355877, Alt.=177.748169m. Speed=0.468000m/h.</desc>
<speed>0.130000</speed>
</trkpt>
<trkpt lat="55.781990" lon="26.355879">
<ele>178.013794</ele>
<time>2010-07-17T08:47:00Z</time>
<desc>lat.=55.781990, lon.=26.355879, Alt.=178.013794m. Speed=0.468000m/h.</desc>
<speed>0.130000</speed>
</trkpt>
<trkpt lat="55.781990" lon="26.355881">
<ele>178.275513</ele>
<time>2010-07-17T08:47:01Z</time>
<desc>lat.=55.781990, lon.=26.355881, Alt.=178.275513m. Speed=0.360000m/h.</desc>
<speed>0.100000</speed>
</trkpt>
<trkpt lat="55.781990" lon="26.355883">
<ele>178.541138</ele>
<time>2010-07-17T08:47:02Z</time>
<desc>lat.=55.781990, lon.=26.355883, Alt.=178.541138m. Speed=0.216000m/h.</desc>
<speed>0.060000</speed>
</trkpt>
<trkpt lat="55.781990" lon="26.355885">
<ele>178.814575</ele>
<time>2010-07-17T08:47:03Z</time>
<desc>lat.=55.781990, lon.=26.355885, Alt.=178.814575m. Speed=0.144000m/h.</desc>
<speed>0.040000</speed>
</trkpt>
<trkpt lat="55.781990" lon="26.355885">
<ele>179.091919</ele>
<time>2010-07-17T08:47:04Z</time>
<desc>lat.=55.781990, lon.=26.355885, Alt.=179.091919m. Speed=0.036000m/h.</desc>
<speed>0.010000</speed>
</trkpt>
<trkpt lat="55.781990" lon="26.355885">
<ele>179.373169</ele>
<time>2010-07-17T08:47:05Z</time>
<desc>lat.=55.781990, lon.=26.355885, Alt.=179.373169m. Speed=0.000000m/h.</desc>
<speed>0.000000</speed>
</trkpt>
<trkpt lat="55.781990" lon="26.355885">
<ele>179.650513</ele>
<time>2010-07-17T08:47:06Z</time>
<desc>lat.=55.781990, lon.=26.355885, Alt.=179.650513m. Speed=0.144000m/h.</desc>
<speed>0.040000</speed>
</trkpt>
<trkpt lat="55.781990" lon="26.355885">
<ele>179.927856</ele>
<time>2010-07-17T08:47:07Z</time>
<desc>lat.=55.781990, lon.=26.355885, Alt.=179.927856m. Speed=0.252000m/h.</desc>
<speed>0.070000</speed>
</trkpt>
<trkpt lat="55.781990" lon="26.355883">
<ele>180.209106</ele>
<time>2010-07-17T08:47:08Z</time>
<desc>lat.=55.781990, lon.=26.355883, Alt.=180.209106m. Speed=0.468000m/h.</desc>
<speed>0.130000</speed>
</trkpt>
<trkpt lat="55.781990" lon="26.355881">
<ele>180.490356</ele>
<time>2010-07-17T08:47:09Z</time>
<desc>lat.=55.781990, lon.=26.355881, Alt.=180.490356m. Speed=0.396000m/h.</desc>
<speed>0.110000</speed>
</trkpt>
<trkpt lat="55.781990" lon="26.355879">
<ele>180.771606</ele>
<time>2010-07-17T08:47:10Z</time>
<desc>lat.=55.781990, lon.=26.355879, Alt.=180.771606m. Speed=0.396000m/h.</desc>
<speed>0.110000</speed>
</trkpt>
<trkpt lat="55.781990" lon="26.355877">
<ele>181.048950</ele>
<time>2010-07-17T08:47:11Z</time>
<desc>lat.=55.781990, lon.=26.355877, Alt.=181.048950m. Speed=0.360000m/h.</desc>
<speed>0.100000</speed>
</trkpt>
<trkpt lat="55.781990" lon="26.355875">
<ele>181.326294</ele>
<time>2010-07-17T08:47:12Z</time>
<desc>lat.=55.781990, lon.=26.355875, Alt.=181.326294m. Speed=0.360000m/h.</desc>
<speed>0.100000</speed>
</trkpt>
<trkpt lat="55.781990" lon="26.355873">
<ele>181.599731</ele>
<time>2010-07-17T08:47:13Z</time>
<desc>lat.=55.781990, lon.=26.355873, Alt.=181.599731m. Speed=0.324000m/h.</desc>
<speed>0.090000</speed>
</trkpt>
<trkpt lat="55.781990" lon="26.355871">
<ele>181.873169</ele>
<time>2010-07-17T08:47:14Z</time>
<desc>lat.=55.781990, lon.=26.355871, Alt.=181.873169m. Speed=0.324000m/h.</desc>
<speed>0.090000</speed>
</trkpt>
<trkpt lat="55.781990" lon="26.355869">
<ele>182.146606</ele>
<time>2010-07-17T08:47:15Z</time>
<desc>lat.=55.781990, lon.=26.355869, Alt.=182.146606m. Speed=0.252000m/h.</desc>
<speed>0.070000</speed>
</trkpt>
<trkpt lat="55.781990" lon="26.355869">
<ele>182.420044</ele>
<time>2010-07-17T08:47:16Z</time>
<desc>lat.=55.781990, lon.=26.355869, Alt.=182.420044m. Speed=0.180000m/h.</desc>
<speed>0.050000</speed>
</trkpt>
<trkpt lat="55.781990" lon="26.355867">
<ele>182.693481</ele>
<time>2010-07-17T08:47:17Z</time>
<desc>lat.=55.781990, lon.=26.355867, Alt.=182.693481m. Speed=0.432000m/h.</desc>
<speed>0.120000</speed>
</trkpt>
<trkpt lat="55.781990" lon="26.355865">
<ele>182.970825</ele>
<time>2010-07-17T08:47:18Z</time>
<desc>lat.=55.781990, lon.=26.355865, Alt.=182.970825m. Speed=0.432000m/h.</desc>
<speed>0.120000</speed>
</trkpt>
<trkpt lat="55.781990" lon="26.355864">
<ele>183.240356</ele>
<time>2010-07-17T08:47:19Z</time>
<desc>lat.=55.781990, lon.=26.355864, Alt.=183.240356m. Speed=0.396000m/h.</desc>
<speed>0.110000</speed>
</trkpt>
<trkpt lat="55.781990" lon="26.355862">
<ele>183.513794</ele>
<time>2010-07-17T08:47:20Z</time>
<desc>lat.=55.781990, lon.=26.355862, Alt.=183.513794m. Speed=0.360000m/h.</desc>
<speed>0.100000</speed>
</trkpt>
<trkpt lat="55.781990" lon="26.355862">
<ele>183.783325</ele>
<time>2010-07-17T08:47:21Z</time>
<desc>lat.=55.781990, lon.=26.355862, Alt.=183.783325m. Speed=0.396000m/h.</desc>
<speed>0.110000</speed>
</trkpt>
<trkpt lat="55.781990" lon="26.355860">
<ele>184.052856</ele>
<time>2010-07-17T08:47:22Z</time>
<desc>lat.=55.781990, lon.=26.355860, Alt.=184.052856m. Speed=0.324000m/h.</desc>
<speed>0.090000</speed>
</trkpt>
<trkpt lat="55.781990" lon="26.355858">
<ele>184.318481</ele>
<time>2010-07-17T08:47:23Z</time>
<desc>lat.=55.781990, lon.=26.355858, Alt.=184.318481m. Speed=0.468000m/h.</desc>
<speed>0.130000</speed>
</trkpt>
<trkpt lat="55.781990" lon="26.355856">
<ele>184.576294</ele>
<time>2010-07-17T08:47:24Z</time>
<desc>lat.=55.781990, lon.=26.355856, Alt.=184.576294m. Speed=0.540000m/h.</desc>
<speed>0.150000</speed>
</trkpt>
<trkpt lat="55.781990" lon="26.355854">
<ele>184.834106</ele>
<time>2010-07-17T08:47:25Z</time>
<desc>lat.=55.781990, lon.=26.355854, Alt.=184.834106m. Speed=0.468000m/h.</desc>
<speed>0.130000</speed>
</trkpt>
<trkpt lat="55.781986" lon="26.355852">
<ele>185.088013</ele>
<time>2010-07-17T08:47:26Z</time>
<desc>lat.=55.781986, lon.=26.355852, Alt.=185.088013m. Speed=0.396000m/h.</desc>
<speed>0.110000</speed>
</trkpt>
<trkpt lat="55.781986" lon="26.355852">
<ele>185.334106</ele>
<time>2010-07-17T08:47:27Z</time>
<desc>lat.=55.781986, lon.=26.355852, Alt.=185.334106m. Speed=0.216000m/h.</desc>
<speed>0.060000</speed>
</trkpt>
<trkpt lat="55.781986" lon="26.355850">
<ele>185.576294</ele>
<time>2010-07-17T08:47:28Z</time>
<desc>lat.=55.781986, lon.=26.355850, Alt.=185.576294m. Speed=0.036000m/h.</desc>
<speed>0.010000</speed>
</trkpt>
<trkpt lat="55.781986" lon="26.355850">
<ele>185.806763</ele>
<time>2010-07-17T08:47:29Z</time>
<desc>lat.=55.781986, lon.=26.355850, Alt.=185.806763m. Speed=0.180000m/h.</desc>
<speed>0.050000</speed>
</trkpt>
<trkpt lat="55.781986" lon="26.355852">
<ele>186.037231</ele>
<time>2010-07-17T08:47:30Z</time>
<desc>lat.=55.781986, lon.=26.355852, Alt.=186.037231m. Speed=0.108000m/h.</desc>
<speed>0.030000</speed>
</trkpt>
<trkpt lat="55.781986" lon="26.355852">
<ele>186.267700</ele>
<time>2010-07-17T08:47:31Z</time>
<desc>lat.=55.781986, lon.=26.355852, Alt.=186.267700m. Speed=0.072000m/h.</desc>
<speed>0.020000</speed>
</trkpt>
<trkpt lat="55.781986" lon="26.355852">
<ele>186.486450</ele>
<time>2010-07-17T08:47:32Z</time>
<desc>lat.=55.781986, lon.=26.355852, Alt.=186.486450m. Speed=0.288000m/h.</desc>
<speed>0.080000</speed>
</trkpt>
<trkpt lat="55.781986" lon="26.355852">
<ele>186.705200</ele>
<time>2010-07-17T08:47:33Z</time>
<desc>lat.=55.781986, lon.=26.355852, Alt.=186.705200m. Speed=0.468000m/h.</desc>
<speed>0.130000</speed>
</trkpt>
<trkpt lat="55.781990" lon="26.355850">
<ele>186.923950</ele>
<time>2010-07-17T08:47:34Z</time>
<desc>lat.=55.781990, lon.=26.355850, Alt.=186.923950m. Speed=0.468000m/h.</desc>
<speed>0.130000</speed>
</trkpt>
<trkpt lat="55.781990" lon="26.355852">
<ele>187.142700</ele>
<time>2010-07-17T08:47:35Z</time>
<desc>lat.=55.781990, lon.=26.355852, Alt.=187.142700m. Speed=0.540000m/h.</desc>
<speed>0.150000</speed>
</trkpt>
<trkpt lat="55.781990" lon="26.355850">
<ele>187.357544</ele>
<time>2010-07-17T08:47:36Z</time>
<desc>lat.=55.781990, lon.=26.355850, Alt.=187.357544m. Speed=0.684000m/h.</desc>
<speed>0.190000</speed>
</trkpt>
<trkpt lat="55.781994" lon="26.355850">
<ele>187.556763</ele>
<time>2010-07-17T08:47:37Z</time>
<desc>lat.=55.781994, lon.=26.355850, Alt.=187.556763m. Speed=0.756000m/h.</desc>
<speed>0.210000</speed>
</trkpt>
<trkpt lat="55.781994" lon="26.355850">
<ele>187.748169</ele>
<time>2010-07-17T08:47:38Z</time>
<desc>lat.=55.781994, lon.=26.355850, Alt.=187.748169m. Speed=0.684000m/h.</desc>
<speed>0.190000</speed>
</trkpt>
<trkpt lat="55.781998" lon="26.355850">
<ele>187.931763</ele>
<time>2010-07-17T08:47:39Z</time>
<desc>lat.=55.781998, lon.=26.355850, Alt.=187.931763m. Speed=0.576000m/h.</desc>
<speed>0.160000</speed>
</trkpt>
<trkpt lat="55.781998" lon="26.355850">
<ele>188.107544</ele>
<time>2010-07-17T08:47:40Z</time>
<desc>lat.=55.781998, lon.=26.355850, Alt.=188.107544m. Speed=0.540000m/h.</desc>
<speed>0.150000</speed>
</trkpt>
<trkpt lat="55.781998" lon="26.355850">
<ele>188.263794</ele>
<time>2010-07-17T08:47:41Z</time>
<desc>lat.=55.781998, lon.=26.355850, Alt.=188.263794m. Speed=0.504000m/h.</desc>
<speed>0.140000</speed>
</trkpt>
<trkpt lat="55.782001" lon="26.355850">
<ele>188.404419</ele>
<time>2010-07-17T08:47:42Z</time>
<desc>lat.=55.782001, lon.=26.355850, Alt.=188.404419m. Speed=0.468000m/h.</desc>
<speed>0.130000</speed>
</trkpt>
<trkpt lat="55.782001" lon="26.355850">
<ele>188.533325</ele>
<time>2010-07-17T08:47:43Z</time>
<desc>lat.=55.782001, lon.=26.355850, Alt.=188.533325m. Speed=0.504000m/h.</desc>
<speed>0.140000</speed>
</trkpt>
<trkpt lat="55.782001" lon="26.355850">
<ele>188.673950</ele>
<time>2010-07-17T08:47:44Z</time>
<desc>lat.=55.782001, lon.=26.355850, Alt.=188.673950m. Speed=0.540000m/h.</desc>
<speed>0.150000</speed>
</trkpt>
<trkpt lat="55.782005" lon="26.355850">
<ele>188.802856</ele>
<time>2010-07-17T08:47:45Z</time>
<desc>lat.=55.782005, lon.=26.355850, Alt.=188.802856m. Speed=0.324000m/h.</desc>
<speed>0.090000</speed>
</trkpt>
<trkpt lat="55.782005" lon="26.355848">
<ele>188.927856</ele>
<time>2010-07-17T08:47:46Z</time>
<desc>lat.=55.782005, lon.=26.355848, Alt.=188.927856m. Speed=0.324000m/h.</desc>
<speed>0.090000</speed>
</trkpt>
<trkpt lat="55.782005" lon="26.355848">
<ele>189.048950</ele>
<time>2010-07-17T08:47:47Z</time>
<desc>lat.=55.782005, lon.=26.355848, Alt.=189.048950m. Speed=0.396000m/h.</desc>
<speed>0.110000</speed>
</trkpt>
<trkpt lat="55.782005" lon="26.355848">
<ele>189.166138</ele>
<time>2010-07-17T08:47:48Z</time>
<desc>lat.=55.782005, lon.=26.355848, Alt.=189.166138m. Speed=0.360000m/h.</desc>
<speed>0.100000</speed>
</trkpt>
<trkpt lat="55.782009" lon="26.355846">
<ele>189.271606</ele>
<time>2010-07-17T08:47:49Z</time>
<desc>lat.=55.782009, lon.=26.355846, Alt.=189.271606m. Speed=0.468000m/h.</desc>
<speed>0.130000</speed>
</trkpt>
<trkpt lat="55.782009" lon="26.355846">
<ele>189.380981</ele>
<time>2010-07-17T08:47:50Z</time>
<desc>lat.=55.782009, lon.=26.355846, Alt.=189.380981m. Speed=0.288000m/h.</desc>
<speed>0.080000</speed>
</trkpt>
<trkpt lat="55.782009" lon="26.355846">
<ele>189.478638</ele>
<time>2010-07-17T08:47:51Z</time>
<desc>lat.=55.782009, lon.=26.355846, Alt.=189.478638m. Speed=0.396000m/h.</desc>
<speed>0.110000</speed>
</trkpt>
<trkpt lat="55.782009" lon="26.355846">
<ele>189.564575</ele>
<time>2010-07-17T08:47:52Z</time>
<desc>lat.=55.782009, lon.=26.355846, Alt.=189.564575m. Speed=0.324000m/h.</desc>
<speed>0.090000</speed>
</trkpt>
<trkpt lat="55.782009" lon="26.355848">
<ele>189.658325</ele>
<time>2010-07-17T08:47:53Z</time>
<desc>lat.=55.782009, lon.=26.355848, Alt.=189.658325m. Speed=0.288000m/h.</desc>
<speed>0.080000</speed>
</trkpt>
<trkpt lat="55.782013" lon="26.355848">
<ele>189.740356</ele>
<time>2010-07-17T08:47:54Z</time>
<desc>lat.=55.782013, lon.=26.355848, Alt.=189.740356m. Speed=0.324000m/h.</desc>
<speed>0.090000</speed>
</trkpt>
<trkpt lat="55.782013" lon="26.355848">
<ele>189.810669</ele>
<time>2010-07-17T08:47:55Z</time>
<desc>lat.=55.782013, lon.=26.355848, Alt.=189.810669m. Speed=0.252000m/h.</desc>
<speed>0.070000</speed>
</trkpt>
<trkpt lat="55.782013" lon="26.355848">
<ele>189.884888</ele>
<time>2010-07-17T08:47:56Z</time>
<desc>lat.=55.782013, lon.=26.355848, Alt.=189.884888m. Speed=0.144000m/h.</desc>
<speed>0.040000</speed>
</trkpt>
<trkpt lat="55.782013" lon="26.355848">
<ele>189.947388</ele>
<time>2010-07-17T08:47:57Z</time>
<desc>lat.=55.782013, lon.=26.355848, Alt.=189.947388m. Speed=0.324000m/h.</desc>
<speed>0.090000</speed>
</trkpt>
<trkpt lat="55.782013" lon="26.355850">
<ele>190.005981</ele>
<time>2010-07-17T08:47:58Z</time>
<desc>lat.=55.782013, lon.=26.355850, Alt.=190.005981m. Speed=0.540000m/h.</desc>
<speed>0.150000</speed>
</trkpt>
<trkpt lat="55.782013" lon="26.355852">
<ele>190.060669</ele>
<time>2010-07-17T08:47:59Z</time>
<desc>lat.=55.782013, lon.=26.355852, Alt.=190.060669m. Speed=0.504000m/h.</desc>
<speed>0.140000</speed>
</trkpt>
<trkpt lat="55.782017" lon="26.355854">
<ele>190.111450</ele>
<time>2010-07-17T08:48:00Z</time>
<desc>lat.=55.782017, lon.=26.355854, Alt.=190.111450m. Speed=0.432000m/h.</desc>
<speed>0.120000</speed>
</trkpt>
<trkpt lat="55.782017" lon="26.355854">
<ele>190.166138</ele>
<time>2010-07-17T08:48:01Z</time>
<desc>lat.=55.782017, lon.=26.355854, Alt.=190.166138m. Speed=0.396000m/h.</desc>
<speed>0.110000</speed>
</trkpt>
<trkpt lat="55.782017" lon="26.355856">
<ele>190.220825</ele>
<time>2010-07-17T08:48:02Z</time>
<desc>lat.=55.782017, lon.=26.355856, Alt.=190.220825m. Speed=0.252000m/h.</desc>
<speed>0.070000</speed>
</trkpt>
<trkpt lat="55.782017" lon="26.355858">
<ele>190.271606</ele>
<time>2010-07-17T08:48:03Z</time>
<desc>lat.=55.782017, lon.=26.355858, Alt.=190.271606m. Speed=0.396000m/h.</desc>
<speed>0.110000</speed>
</trkpt>
<trkpt lat="55.782017" lon="26.355858">
<ele>190.330200</ele>
<time>2010-07-17T08:48:04Z</time>
<desc>lat.=55.782017, lon.=26.355858, Alt.=190.330200m. Speed=0.504000m/h.</desc>
<speed>0.140000</speed>
</trkpt>
<trkpt lat="55.782021" lon="26.355860">
<ele>190.384888</ele>
<time>2010-07-17T08:48:05Z</time>
<desc>lat.=55.782021, lon.=26.355860, Alt.=190.384888m. Speed=0.576000m/h.</desc>
<speed>0.160000</speed>
</trkpt>
<trkpt lat="55.782021" lon="26.355860">
<ele>190.443481</ele>
<time>2010-07-17T08:48:06Z</time>
<desc>lat.=55.782021, lon.=26.355860, Alt.=190.443481m. Speed=0.468000m/h.</desc>
<speed>0.130000</speed>
</trkpt>
<trkpt lat="55.782021" lon="26.355862">
<ele>190.498169</ele>
<time>2010-07-17T08:48:07Z</time>
<desc>lat.=55.782021, lon.=26.355862, Alt.=190.498169m. Speed=0.504000m/h.</desc>
<speed>0.140000</speed>
</trkpt>
<trkpt lat="55.782024" lon="26.355862">
<ele>190.552856</ele>
<time>2010-07-17T08:48:08Z</time>
<desc>lat.=55.782024, lon.=26.355862, Alt.=190.552856m. Speed=0.504000m/h.</desc>
<speed>0.140000</speed>
</trkpt>
<trkpt lat="55.782024" lon="26.355862">
<ele>190.595825</ele>
<time>2010-07-17T08:48:09Z</time>
<desc>lat.=55.782024, lon.=26.355862, Alt.=190.595825m. Speed=0.504000m/h.</desc>
<speed>0.140000</speed>
</trkpt>
<trkpt lat="55.782024" lon="26.355862">
<ele>190.638794</ele>
<time>2010-07-17T08:48:10Z</time>
<desc>lat.=55.782024, lon.=26.355862, Alt.=190.638794m. Speed=0.504000m/h.</desc>
<speed>0.140000</speed>
</trkpt>
<trkpt lat="55.782028" lon="26.355862">
<ele>190.673950</ele>
<time>2010-07-17T08:48:11Z</time>
<desc>lat.=55.782028, lon.=26.355862, Alt.=190.673950m. Speed=0.504000m/h.</desc>
<speed>0.140000</speed>
</trkpt>
<trkpt lat="55.782028" lon="26.355862">
<ele>190.701294</ele>
<time>2010-07-17T08:48:12Z</time>
<desc>lat.=55.782028, lon.=26.355862, Alt.=190.701294m. Speed=0.576000m/h.</desc>
<speed>0.160000</speed>
</trkpt>
<trkpt lat="55.782028" lon="26.355860">
<ele>190.724731</ele>
<time>2010-07-17T08:48:13Z</time>
<desc>lat.=55.782028, lon.=26.355860, Alt.=190.724731m. Speed=0.576000m/h.</desc>
<speed>0.160000</speed>
</trkpt>
<trkpt lat="55.782032" lon="26.355860">
<ele>190.736450</ele>
<time>2010-07-17T08:48:14Z</time>
<desc>lat.=55.782032, lon.=26.355860, Alt.=190.736450m. Speed=0.432000m/h.</desc>
<speed>0.120000</speed>
</trkpt>
<trkpt lat="55.782032" lon="26.355860">
<ele>190.748169</ele>
<time>2010-07-17T08:48:15Z</time>
<desc>lat.=55.782032, lon.=26.355860, Alt.=190.748169m. Speed=0.432000m/h.</desc>
<speed>0.120000</speed>
</trkpt>
<trkpt lat="55.782032" lon="26.355860">
<ele>190.759888</ele>
<time>2010-07-17T08:48:16Z</time>
<desc>lat.=55.782032, lon.=26.355860, Alt.=190.759888m. Speed=0.216000m/h.</desc>
<speed>0.060000</speed>
</trkpt>
<trkpt lat="55.782032" lon="26.355860">
<ele>190.783325</ele>
<time>2010-07-17T08:48:17Z</time>
<desc>lat.=55.782032, lon.=26.355860, Alt.=190.783325m. Speed=0.108000m/h.</desc>
<speed>0.030000</speed>
</trkpt>
<trkpt lat="55.782032" lon="26.355860">
<ele>190.806763</ele>
<time>2010-07-17T08:48:18Z</time>
<desc>lat.=55.782032, lon.=26.355860, Alt.=190.806763m. Speed=0.144000m/h.</desc>
<speed>0.040000</speed>
</trkpt>
<trkpt lat="55.782036" lon="26.355860">
<ele>190.834106</ele>
<time>2010-07-17T08:48:19Z</time>
<desc>lat.=55.782036, lon.=26.355860, Alt.=190.834106m. Speed=0.216000m/h.</desc>
<speed>0.060000</speed>
</trkpt>
<trkpt lat="55.782036" lon="26.355858">
<ele>190.857544</ele>
<time>2010-07-17T08:48:20Z</time>
<desc>lat.=55.782036, lon.=26.355858, Alt.=190.857544m. Speed=0.144000m/h.</desc>
<speed>0.040000</speed>
</trkpt>
<trkpt lat="55.782036" lon="26.355858">
<ele>190.869263</ele>
<time>2010-07-17T08:48:21Z</time>
<desc>lat.=55.782036, lon.=26.355858, Alt.=190.869263m. Speed=0.360000m/h.</desc>
<speed>0.100000</speed>
</trkpt>
<trkpt lat="55.782036" lon="26.355856">
<ele>190.873169</ele>
<time>2010-07-17T08:48:22Z</time>
<desc>lat.=55.782036, lon.=26.355856, Alt.=190.873169m. Speed=0.324000m/h.</desc>
<speed>0.090000</speed>
</trkpt>
<trkpt lat="55.782036" lon="26.355856">
<ele>190.869263</ele>
<time>2010-07-17T08:48:23Z</time>
<desc>lat.=55.782036, lon.=26.355856, Alt.=190.869263m. Speed=0.360000m/h.</desc>
<speed>0.100000</speed>
</trkpt>
<trkpt lat="55.782036" lon="26.355856">
<ele>190.865356</ele>
<time>2010-07-17T08:48:24Z</time>
<desc>lat.=55.782036, lon.=26.355856, Alt.=190.865356m. Speed=0.432000m/h.</desc>
<speed>0.120000</speed>
</trkpt>
<trkpt lat="55.782036" lon="26.355856">
<ele>190.849731</ele>
<time>2010-07-17T08:48:25Z</time>
<desc>lat.=55.782036, lon.=26.355856, Alt.=190.849731m. Speed=0.324000m/h.</desc>
<speed>0.090000</speed>
</trkpt>
<trkpt lat="55.782040" lon="26.355854">
<ele>190.822388</ele>
<time>2010-07-17T08:48:26Z</time>
<desc>lat.=55.782040, lon.=26.355854, Alt.=190.822388m. Speed=0.396000m/h.</desc>
<speed>0.110000</speed>
</trkpt>
<trkpt lat="55.782040" lon="26.355854">
<ele>190.798950</ele>
<time>2010-07-17T08:48:27Z</time>
<desc>lat.=55.782040, lon.=26.355854, Alt.=190.798950m. Speed=0.468000m/h.</desc>
<speed>0.130000</speed>
</trkpt>
<trkpt lat="55.782040" lon="26.355854">
<ele>190.767700</ele>
<time>2010-07-17T08:48:28Z</time>
<desc>lat.=55.782040, lon.=26.355854, Alt.=190.767700m. Speed=0.540000m/h.</desc>
<speed>0.150000</speed>
</trkpt>
<trkpt lat="55.782043" lon="26.355854">
<ele>190.732544</ele>
<time>2010-07-17T08:48:29Z</time>
<desc>lat.=55.782043, lon.=26.355854, Alt.=190.732544m. Speed=0.468000m/h.</desc>
<speed>0.130000</speed>
</trkpt>
<trkpt lat="55.782043" lon="26.355854">
<ele>190.697388</ele>
<time>2010-07-17T08:48:30Z</time>
<desc>lat.=55.782043, lon.=26.355854, Alt.=190.697388m. Speed=0.432000m/h.</desc>
<speed>0.120000</speed>
</trkpt>
<trkpt lat="55.782043" lon="26.355854">
<ele>190.650513</ele>
<time>2010-07-17T08:48:31Z</time>
<desc>lat.=55.782043, lon.=26.355854, Alt.=190.650513m. Speed=0.396000m/h.</desc>
<speed>0.110000</speed>
</trkpt>
<trkpt lat="55.782043" lon="26.355854">
<ele>190.611450</ele>
<time>2010-07-17T08:48:32Z</time>
<desc>lat.=55.782043, lon.=26.355854, Alt.=190.611450m. Speed=0.468000m/h.</desc>
<speed>0.130000</speed>
</trkpt>
<trkpt lat="55.782047" lon="26.355854">
<ele>190.564575</ele>
<time>2010-07-17T08:48:33Z</time>
<desc>lat.=55.782047, lon.=26.355854, Alt.=190.564575m. Speed=0.396000m/h.</desc>
<speed>0.110000</speed>
</trkpt>
<trkpt lat="55.782047" lon="26.355854">
<ele>190.513794</ele>
<time>2010-07-17T08:48:34Z</time>
<desc>lat.=55.782047, lon.=26.355854, Alt.=190.513794m. Speed=0.504000m/h.</desc>
<speed>0.140000</speed>
</trkpt>
<trkpt lat="55.782047" lon="26.355854">
<ele>190.463013</ele>
<time>2010-07-17T08:48:35Z</time>
<desc>lat.=55.782047, lon.=26.355854, Alt.=190.463013m. Speed=0.396000m/h.</desc>
<speed>0.110000</speed>
</trkpt>
<trkpt lat="55.782051" lon="26.355856">
<ele>190.412231</ele>
<time>2010-07-17T08:48:36Z</time>
<desc>lat.=55.782051, lon.=26.355856, Alt.=190.412231m. Speed=0.612000m/h.</desc>
<speed>0.170000</speed>
</trkpt>
<trkpt lat="55.782051" lon="26.355856">
<ele>190.361450</ele>
<time>2010-07-17T08:48:37Z</time>
<desc>lat.=55.782051, lon.=26.355856, Alt.=190.361450m. Speed=0.504000m/h.</desc>
<speed>0.140000</speed>
</trkpt>
<trkpt lat="55.782051" lon="26.355858">
<ele>190.298950</ele>
<time>2010-07-17T08:48:38Z</time>
<desc>lat.=55.782051, lon.=26.355858, Alt.=190.298950m. Speed=0.036000m/h.</desc>
<speed>0.010000</speed>
</trkpt>
<trkpt lat="55.782051" lon="26.355858">
<ele>190.236450</ele>
<time>2010-07-17T08:48:39Z</time>
<desc>lat.=55.782051, lon.=26.355858, Alt.=190.236450m. Speed=0.072000m/h.</desc>
<speed>0.020000</speed>
</trkpt>
<trkpt lat="55.782051" lon="26.355858">
<ele>190.173950</ele>
<time>2010-07-17T08:48:40Z</time>
<desc>lat.=55.782051, lon.=26.355858, Alt.=190.173950m. Speed=0.072000m/h.</desc>
<speed>0.020000</speed>
</trkpt>
<trkpt lat="55.782051" lon="26.355858">
<ele>190.123169</ele>
<time>2010-07-17T08:48:41Z</time>
<desc>lat.=55.782051, lon.=26.355858, Alt.=190.123169m. Speed=0.216000m/h.</desc>
<speed>0.060000</speed>
</trkpt>
<trkpt lat="55.782055" lon="26.355858">
<ele>190.068481</ele>
<time>2010-07-17T08:48:42Z</time>
<desc>lat.=55.782055, lon.=26.355858, Alt.=190.068481m. Speed=0.144000m/h.</desc>
<speed>0.040000</speed>
</trkpt>
<trkpt lat="55.782055" lon="26.355858">
<ele>190.017700</ele>
<time>2010-07-17T08:48:43Z</time>
<desc>lat.=55.782055, lon.=26.355858, Alt.=190.017700m. Speed=0.216000m/h.</desc>
<speed>0.060000</speed>
</trkpt>
<trkpt lat="55.782051" lon="26.355860">
<ele>189.959106</ele>
<time>2010-07-17T08:48:44Z</time>
<desc>lat.=55.782051, lon.=26.355860, Alt.=189.959106m. Speed=0.468000m/h.</desc>
<speed>0.130000</speed>
</trkpt>
<trkpt lat="55.782051" lon="26.355862">
<ele>189.904419</ele>
<time>2010-07-17T08:48:45Z</time>
<desc>lat.=55.782051, lon.=26.355862, Alt.=189.904419m. Speed=0.504000m/h.</desc>
<speed>0.140000</speed>
</trkpt>
<trkpt lat="55.782051" lon="26.355862">
<ele>189.849731</ele>
<time>2010-07-17T08:48:46Z</time>
<desc>lat.=55.782051, lon.=26.355862, Alt.=189.849731m. Speed=0.432000m/h.</desc>
<speed>0.120000</speed>
</trkpt>
<trkpt lat="55.782051" lon="26.355864">
<ele>189.791138</ele>
<time>2010-07-17T08:48:47Z</time>
<desc>lat.=55.782051, lon.=26.355864, Alt.=189.791138m. Speed=0.396000m/h.</desc>
<speed>0.110000</speed>
</trkpt>
<trkpt lat="55.782047" lon="26.355864">
<ele>189.728638</ele>
<time>2010-07-17T08:48:48Z</time>
<desc>lat.=55.782047, lon.=26.355864, Alt.=189.728638m. Speed=0.468000m/h.</desc>
<speed>0.130000</speed>
</trkpt>
<trkpt lat="55.782047" lon="26.355865">
<ele>189.658325</ele>
<time>2010-07-17T08:48:49Z</time>
<desc>lat.=55.782047, lon.=26.355865, Alt.=189.658325m. Speed=0.360000m/h.</desc>
<speed>0.100000</speed>
</trkpt>
<trkpt lat="55.782047" lon="26.355865">
<ele>189.588013</ele>
<time>2010-07-17T08:48:50Z</time>
<desc>lat.=55.782047, lon.=26.355865, Alt.=189.588013m. Speed=0.468000m/h.</desc>
<speed>0.130000</speed>
</trkpt>
<trkpt lat="55.782047" lon="26.355865">
<ele>189.509888</ele>
<time>2010-07-17T08:48:51Z</time>
<desc>lat.=55.782047, lon.=26.355865, Alt.=189.509888m. Speed=0.504000m/h.</desc>
<speed>0.140000</speed>
</trkpt>
<trkpt lat="55.782043" lon="26.355867">
<ele>189.427856</ele>
<time>2010-07-17T08:48:52Z</time>
<desc>lat.=55.782043, lon.=26.355867, Alt.=189.427856m. Speed=0.360000m/h.</desc>
<speed>0.100000</speed>
</trkpt>
<trkpt lat="55.782043" lon="26.355867">
<ele>189.341919</ele>
<time>2010-07-17T08:48:53Z</time>
<desc>lat.=55.782043, lon.=26.355867, Alt.=189.341919m. Speed=0.720000m/h.</desc>
<speed>0.200000</speed>
</trkpt>
<trkpt lat="55.782043" lon="26.355871">
<ele>189.248169</ele>
<time>2010-07-17T08:48:54Z</time>
<desc>lat.=55.782043, lon.=26.355871, Alt.=189.248169m. Speed=0.648000m/h.</desc>
<speed>0.180000</speed>
</trkpt>
<trkpt lat="55.782040" lon="26.355873">
<ele>189.158325</ele>
<time>2010-07-17T08:48:55Z</time>
<desc>lat.=55.782040, lon.=26.355873, Alt.=189.158325m. Speed=0.684000m/h.</desc>
<speed>0.190000</speed>
</trkpt>
<trkpt lat="55.782040" lon="26.355875">
<ele>189.064575</ele>
<time>2010-07-17T08:48:56Z</time>
<desc>lat.=55.782040, lon.=26.355875, Alt.=189.064575m. Speed=0.648000m/h.</desc>
<speed>0.180000</speed>
</trkpt>
<trkpt lat="55.782040" lon="26.355875">
<ele>188.966919</ele>
<time>2010-07-17T08:48:57Z</time>
<desc>lat.=55.782040, lon.=26.355875, Alt.=188.966919m. Speed=0.684000m/h.</desc>
<speed>0.190000</speed>
</trkpt>
<trkpt lat="55.782036" lon="26.355877">
<ele>188.861450</ele>
<time>2010-07-17T08:48:58Z</time>
<desc>lat.=55.782036, lon.=26.355877, Alt.=188.861450m. Speed=0.648000m/h.</desc>
<speed>0.180000</speed>
</trkpt>
<trkpt lat="55.782036" lon="26.355879">
<ele>188.752075</ele>
<time>2010-07-17T08:48:59Z</time>
<desc>lat.=55.782036, lon.=26.355879, Alt.=188.752075m. Speed=0.828000m/h.</desc>
<speed>0.230000</speed>
</trkpt>
<trkpt lat="55.782032" lon="26.355881">
<ele>188.634888</ele>
<time>2010-07-17T08:49:00Z</time>
<desc>lat.=55.782032, lon.=26.355881, Alt.=188.634888m. Speed=0.828000m/h.</desc>
<speed>0.230000</speed>
</trkpt>
<trkpt lat="55.782032" lon="26.355883">
<ele>188.513794</ele>
<time>2010-07-17T08:49:01Z</time>
<desc>lat.=55.782032, lon.=26.355883, Alt.=188.513794m. Speed=0.900000m/h.</desc>
<speed>0.250000</speed>
</trkpt>
<trkpt lat="55.782028" lon="26.355885">
<ele>188.392700</ele>
<time>2010-07-17T08:49:02Z</time>
<desc>lat.=55.782028, lon.=26.355885, Alt.=188.392700m. Speed=1.008000m/h.</desc>
<speed>0.280000</speed>
</trkpt>
<trkpt lat="55.782028" lon="26.355888">
<ele>188.263794</ele>
<time>2010-07-17T08:49:03Z</time>
<desc>lat.=55.782028, lon.=26.355888, Alt.=188.263794m. Speed=1.080000m/h.</desc>
<speed>0.300000</speed>
</trkpt>
<trkpt lat="55.782024" lon="26.355892">
<ele>187.205200</ele>
<time>2010-07-17T08:49:04Z</time>
<desc>lat.=55.782024, lon.=26.355892, Alt.=187.205200m. Speed=0.972000m/h.</desc>
<speed>0.270000</speed>
</trkpt>
<trkpt lat="55.782024" lon="26.355904">
<ele>186.673950</ele>
<time>2010-07-17T08:49:05Z</time>
<desc>lat.=55.782024, lon.=26.355904, Alt.=186.673950m. Speed=0.900000m/h.</desc>
<speed>0.250000</speed>
</trkpt>
<trkpt lat="55.782017" lon="26.355906">
<ele>185.697388</ele>
<time>2010-07-17T08:49:06Z</time>
<desc>lat.=55.782017, lon.=26.355906, Alt.=185.697388m. Speed=0.864000m/h.</desc>
<speed>0.240000</speed>
</trkpt>
<trkpt lat="55.782009" lon="26.355913">
<ele>184.634888</ele>
<time>2010-07-17T08:49:07Z</time>
<desc>lat.=55.782009, lon.=26.355913, Alt.=184.634888m. Speed=0.936000m/h.</desc>
<speed>0.260000</speed>
</trkpt>
<trkpt lat="55.782009" lon="26.355915">
<ele>184.455200</ele>
<time>2010-07-17T08:49:08Z</time>
<desc>lat.=55.782009, lon.=26.355915, Alt.=184.455200m. Speed=1.008000m/h.</desc>
<speed>0.280000</speed>
</trkpt>
<trkpt lat="55.782005" lon="26.355919">
<ele>184.279419</ele>
<time>2010-07-17T08:49:09Z</time>
<desc>lat.=55.782005, lon.=26.355919, Alt.=184.279419m. Speed=0.936000m/h.</desc>
<speed>0.260000</speed>
</trkpt>
<trkpt lat="55.782005" lon="26.355921">
<ele>184.103638</ele>
<time>2010-07-17T08:49:10Z</time>
<desc>lat.=55.782005, lon.=26.355921, Alt.=184.103638m. Speed=0.864000m/h.</desc>
<speed>0.240000</speed>
</trkpt>
<trkpt lat="55.782001" lon="26.355923">
<ele>183.931763</ele>
<time>2010-07-17T08:49:11Z</time>
<desc>lat.=55.782001, lon.=26.355923, Alt.=183.931763m. Speed=1.008000m/h.</desc>
<speed>0.280000</speed>
</trkpt>
<trkpt lat="55.782001" lon="26.355925">
<ele>183.775513</ele>
<time>2010-07-17T08:49:12Z</time>
<desc>lat.=55.782001, lon.=26.355925, Alt.=183.775513m. Speed=2.376000m/h.</desc>
<speed>0.660000</speed>
</trkpt>
<trkpt lat="55.781990" lon="26.355936">
<ele>183.568481</ele>
<time>2010-07-17T08:49:13Z</time>
<desc>lat.=55.781990, lon.=26.355936, Alt.=183.568481m. Speed=4.176000m/h.</desc>
<speed>1.160000</speed>
</trkpt>
<trkpt lat="55.781986" lon="26.355934">
<ele>183.525513</ele>
<time>2010-07-17T08:49:14Z</time>
<desc>lat.=55.781986, lon.=26.355934, Alt.=183.525513m. Speed=1.656000m/h.</desc>
<speed>0.460000</speed>
</trkpt>
<trkpt lat="55.781990" lon="26.355925">
<ele>183.486450</ele>
<time>2010-07-17T08:49:15Z</time>
<desc>lat.=55.781990, lon.=26.355925, Alt.=183.486450m. Speed=0.756000m/h.</desc>
<speed>0.210000</speed>
</trkpt>
<trkpt lat="55.781998" lon="26.355909">
<ele>183.295044</ele>
<time>2010-07-17T08:49:16Z</time>
<desc>lat.=55.781998, lon.=26.355909, Alt.=183.295044m. Speed=1.260000m/h.</desc>
<speed>0.350000</speed>
</trkpt>
<trkpt lat="55.782001" lon="26.355904">
<ele>183.205200</ele>
<time>2010-07-17T08:49:17Z</time>
<desc>lat.=55.782001, lon.=26.355904, Alt.=183.205200m. Speed=1.332000m/h.</desc>
<speed>0.370000</speed>
</trkpt>
<trkpt lat="55.782009" lon="26.355906">
<ele>183.138794</ele>
<time>2010-07-17T08:49:18Z</time>
<desc>lat.=55.782009, lon.=26.355906, Alt.=183.138794m. Speed=1.152000m/h.</desc>
<speed>0.320000</speed>
</trkpt>
<trkpt lat="55.782017" lon="26.355907">
<ele>182.927856</ele>
<time>2010-07-17T08:49:19Z</time>
<desc>lat.=55.782017, lon.=26.355907, Alt.=182.927856m. Speed=1.692000m/h.</desc>
<speed>0.470000</speed>
</trkpt>
<trkpt lat="55.782028" lon="26.355911">
<ele>182.830200</ele>
<time>2010-07-17T08:49:20Z</time>
<desc>lat.=55.782028, lon.=26.355911, Alt.=182.830200m. Speed=2.160000m/h.</desc>
<speed>0.600000</speed>
</trkpt>
<trkpt lat="55.782047" lon="26.355909">
<ele>182.654419</ele>
<time>2010-07-17T08:49:21Z</time>
<desc>lat.=55.782047, lon.=26.355909, Alt.=182.654419m. Speed=3.816000m/h.</desc>
<speed>1.060000</speed>
</trkpt>
<trkpt lat="55.782070" lon="26.355921">
<ele>182.369263</ele>
<time>2010-07-17T08:49:22Z</time>
<desc>lat.=55.782070, lon.=26.355921, Alt.=182.369263m. Speed=6.336000m/h.</desc>
<speed>1.760000</speed>
</trkpt>
<trkpt lat="55.782097" lon="26.355925">
<ele>182.017700</ele>
<time>2010-07-17T08:49:23Z</time>
<desc>lat.=55.782097, lon.=26.355925, Alt.=182.017700m. Speed=11.484000m/h.</desc>
<speed>3.190000</speed>
</trkpt>
<trkpt lat="55.782127" lon="26.355934">
<ele>181.388794</ele>
<time>2010-07-17T08:49:24Z</time>
<desc>lat.=55.782127, lon.=26.355934, Alt.=181.388794m. Speed=11.664000m/h.</desc>
<speed>3.240000</speed>
</trkpt>
<trkpt lat="55.782158" lon="26.355953">
<ele>180.912231</ele>
<time>2010-07-17T08:49:25Z</time>
<desc>lat.=55.782158, lon.=26.355953, Alt.=180.912231m. Speed=12.816000m/h.</desc>
<speed>3.560000</speed>
</trkpt>
<trkpt lat="55.782185" lon="26.355965">
<ele>180.361450</ele>
<time>2010-07-17T08:49:26Z</time>
<desc>lat.=55.782185, lon.=26.355965, Alt.=180.361450m. Speed=9.216000m/h.</desc>
<speed>2.560000</speed>
</trkpt>
<trkpt lat="55.782200" lon="26.355936">
<ele>178.189575</ele>
<time>2010-07-17T08:49:27Z</time>
<desc>lat.=55.782200, lon.=26.355936, Alt.=178.189575m. Speed=17.747999m/h.</desc>
<speed>4.930000</speed>
</trkpt>
<trkpt lat="55.782211" lon="26.355886">
<ele>176.658325</ele>
<time>2010-07-17T08:49:28Z</time>
<desc>lat.=55.782211, lon.=26.355886, Alt.=176.658325m. Speed=15.336000m/h.</desc>
<speed>4.260000</speed>
</trkpt>
<trkpt lat="55.782219" lon="26.355818">
<ele>174.939575</ele>
<time>2010-07-17T08:49:29Z</time>
<desc>lat.=55.782219, lon.=26.355818, Alt.=174.939575m. Speed=17.172001m/h.</desc>
<speed>4.770000</speed>
</trkpt>
<trkpt lat="55.782238" lon="26.355757">
<ele>174.345825</ele>
<time>2010-07-17T08:49:30Z</time>
<desc>lat.=55.782238, lon.=26.355757, Alt.=174.345825m. Speed=15.696000m/h.</desc>
<speed>4.360000</speed>
</trkpt>
<trkpt lat="55.782249" lon="26.355692">
<ele>173.537231</ele>
<time>2010-07-17T08:49:31Z</time>
<desc>lat.=55.782249, lon.=26.355692, Alt.=173.537231m. Speed=14.832000m/h.</desc>
<speed>4.120000</speed>
</trkpt>
<trkpt lat="55.782257" lon="26.355633">
<ele>172.775513</ele>
<time>2010-07-17T08:49:32Z</time>
<desc>lat.=55.782257, lon.=26.355633, Alt.=172.775513m. Speed=14.724000m/h.</desc>
<speed>4.090000</speed>
</trkpt>
<trkpt lat="55.782269" lon="26.355568">
<ele>172.068481</ele>
<time>2010-07-17T08:49:33Z</time>
<desc>lat.=55.782269, lon.=26.355568, Alt.=172.068481m. Speed=15.048000m/h.</desc>
<speed>4.180000</speed>
</trkpt>
<trkpt lat="55.782280" lon="26.355509">
<ele>171.447388</ele>
<time>2010-07-17T08:49:34Z</time>
<desc>lat.=55.782280, lon.=26.355509, Alt.=171.447388m. Speed=14.220000m/h.</desc>
<speed>3.950000</speed>
</trkpt>
<trkpt lat="55.782299" lon="26.355446">
<ele>170.752075</ele>
<time>2010-07-17T08:49:35Z</time>
<desc>lat.=55.782299, lon.=26.355446, Alt.=170.752075m. Speed=13.536000m/h.</desc>
<speed>3.760000</speed>
</trkpt>
<trkpt lat="55.782310" lon="26.355379">
<ele>169.888794</ele>
<time>2010-07-17T08:49:36Z</time>
<desc>lat.=55.782310, lon.=26.355379, Alt.=169.888794m. Speed=15.480000m/h.</desc>
<speed>4.300000</speed>
</trkpt>
<trkpt lat="55.782330" lon="26.355303">
<ele>169.244263</ele>
<time>2010-07-17T08:49:37Z</time>
<desc>lat.=55.782330, lon.=26.355303, Alt.=169.244263m. Speed=16.236000m/h.</desc>
<speed>4.510000</speed>
</trkpt>
<trkpt lat="55.782352" lon="26.355228">
<ele>168.728638</ele>
<time>2010-07-17T08:49:38Z</time>
<desc>lat.=55.782352, lon.=26.355228, Alt.=168.728638m. Speed=18.827999m/h.</desc>
<speed>5.230000</speed>
</trkpt>
<trkpt lat="55.782368" lon="26.355152">
<ele>168.107544</ele>
<time>2010-07-17T08:49:39Z</time>
<desc>lat.=55.782368, lon.=26.355152, Alt.=168.107544m. Speed=16.812000m/h.</desc>
<speed>4.670000</speed>
</trkpt>
<trkpt lat="55.782387" lon="26.355076">
<ele>167.783325</ele>
<time>2010-07-17T08:49:40Z</time>
<desc>lat.=55.782387, lon.=26.355076, Alt.=167.783325m. Speed=16.667999m/h.</desc>
<speed>4.630000</speed>
</trkpt>
<trkpt lat="55.782406" lon="26.355000">
<ele>167.451294</ele>
<time>2010-07-17T08:49:41Z</time>
<desc>lat.=55.782406, lon.=26.355000, Alt.=167.451294m. Speed=15.660000m/h.</desc>
<speed>4.350000</speed>
</trkpt>
<trkpt lat="55.782421" lon="26.354921">
<ele>167.951294</ele>
<time>2010-07-17T08:49:42Z</time>
<desc>lat.=55.782421, lon.=26.354921, Alt.=167.951294m. Speed=15.444000m/h.</desc>
<speed>4.290000</speed>
</trkpt>
<trkpt lat="55.782436" lon="26.354851">
<ele>168.045044</ele>
<time>2010-07-17T08:49:43Z</time>
<desc>lat.=55.782436, lon.=26.354851, Alt.=168.045044m. Speed=14.508000m/h.</desc>
<speed>4.030000</speed>
</trkpt>
<trkpt lat="55.782452" lon="26.354795">
<ele>167.998169</ele>
<time>2010-07-17T08:49:44Z</time>
<desc>lat.=55.782452, lon.=26.354795, Alt.=167.998169m. Speed=12.384000m/h.</desc>
<speed>3.440000</speed>
</trkpt>
<trkpt lat="55.782467" lon="26.354740">
<ele>167.642700</ele>
<time>2010-07-17T08:49:45Z</time>
<desc>lat.=55.782467, lon.=26.354740, Alt.=167.642700m. Speed=13.824000m/h.</desc>
<speed>3.840000</speed>
</trkpt>
<trkpt lat="55.782482" lon="26.354681">
<ele>167.459106</ele>
<time>2010-07-17T08:49:46Z</time>
<desc>lat.=55.782482, lon.=26.354681, Alt.=167.459106m. Speed=15.372000m/h.</desc>
<speed>4.270000</speed>
</trkpt>
<trkpt lat="55.782497" lon="26.354609">
<ele>167.564575</ele>
<time>2010-07-17T08:49:47Z</time>
<desc>lat.=55.782497, lon.=26.354609, Alt.=167.564575m. Speed=16.056000m/h.</desc>
<speed>4.460000</speed>
</trkpt>
<trkpt lat="55.782516" lon="26.354532">
<ele>167.888794</ele>
<time>2010-07-17T08:49:48Z</time>
<desc>lat.=55.782516, lon.=26.354532, Alt.=167.888794m. Speed=15.480000m/h.</desc>
<speed>4.300000</speed>
</trkpt>
<trkpt lat="55.782532" lon="26.354475">
<ele>167.630981</ele>
<time>2010-07-17T08:49:49Z</time>
<desc>lat.=55.782532, lon.=26.354475, Alt.=167.630981m. Speed=12.672000m/h.</desc>
<speed>3.520000</speed>
</trkpt>
<trkpt lat="55.782547" lon="26.354403">
<ele>167.338013</ele>
<time>2010-07-17T08:49:50Z</time>
<desc>lat.=55.782547, lon.=26.354403, Alt.=167.338013m. Speed=14.400000m/h.</desc>
<speed>4.000000</speed>
</trkpt>
<trkpt lat="55.782566" lon="26.354334">
<ele>167.677856</ele>
<time>2010-07-17T08:49:51Z</time>
<desc>lat.=55.782566, lon.=26.354334, Alt.=167.677856m. Speed=15.300000m/h.</desc>
<speed>4.250000</speed>
</trkpt>
<trkpt lat="55.782585" lon="26.354267">
<ele>168.252075</ele>
<time>2010-07-17T08:49:52Z</time>
<desc>lat.=55.782585, lon.=26.354267, Alt.=168.252075m. Speed=14.796000m/h.</desc>
<speed>4.110000</speed>
</trkpt>
<trkpt lat="55.782600" lon="26.354208">
<ele>168.498169</ele>
<time>2010-07-17T08:49:53Z</time>
<desc>lat.=55.782600, lon.=26.354208, Alt.=168.498169m. Speed=14.652000m/h.</desc>
<speed>4.070000</speed>
</trkpt>
<trkpt lat="55.782616" lon="26.354141">
<ele>168.513794</ele>
<time>2010-07-17T08:49:54Z</time>
<desc>lat.=55.782616, lon.=26.354141, Alt.=168.513794m. Speed=15.336000m/h.</desc>
<speed>4.260000</speed>
</trkpt>
<trkpt lat="55.782635" lon="26.354080">
<ele>168.619263</ele>
<time>2010-07-17T08:49:55Z</time>
<desc>lat.=55.782635, lon.=26.354080, Alt.=168.619263m. Speed=14.904000m/h.</desc>
<speed>4.140000</speed>
</trkpt>
<trkpt lat="55.782650" lon="26.354017">
<ele>168.615356</ele>
<time>2010-07-17T08:49:56Z</time>
<desc>lat.=55.782650, lon.=26.354017, Alt.=168.615356m. Speed=14.724000m/h.</desc>
<speed>4.090000</speed>
</trkpt>
<trkpt lat="55.782665" lon="26.353956">
<ele>168.338013</ele>
<time>2010-07-17T08:49:57Z</time>
<desc>lat.=55.782665, lon.=26.353956, Alt.=168.338013m. Speed=13.824000m/h.</desc>
<speed>3.840000</speed>
</trkpt>
<trkpt lat="55.782677" lon="26.353889">
<ele>168.338013</ele>
<time>2010-07-17T08:49:58Z</time>
<desc>lat.=55.782677, lon.=26.353889, Alt.=168.338013m. Speed=14.328000m/h.</desc>
<speed>3.980000</speed>
</trkpt>
<trkpt lat="55.782688" lon="26.353825">
<ele>168.177856</ele>
<time>2010-07-17T08:49:59Z</time>
<desc>lat.=55.782688, lon.=26.353825, Alt.=168.177856m. Speed=13.464000m/h.</desc>
<speed>3.740000</speed>
</trkpt>
<trkpt lat="55.782703" lon="26.353762">
<ele>167.892700</ele>
<time>2010-07-17T08:50:00Z</time>
<desc>lat.=55.782703, lon.=26.353762, Alt.=167.892700m. Speed=15.804000m/h.</desc>
<speed>4.390000</speed>
</trkpt>
<trkpt lat="55.782726" lon="26.353706">
<ele>167.763794</ele>
<time>2010-07-17T08:50:01Z</time>
<desc>lat.=55.782726, lon.=26.353706, Alt.=167.763794m. Speed=12.744000m/h.</desc>
<speed>3.540000</speed>
</trkpt>
<trkpt lat="55.782753" lon="26.353649">
<ele>168.373169</ele>
<time>2010-07-17T08:50:02Z</time>
<desc>lat.=55.782753, lon.=26.353649, Alt.=168.373169m. Speed=12.132000m/h.</desc>
<speed>3.370000</speed>
</trkpt>
<trkpt lat="55.782780" lon="26.353563">
<ele>166.951294</ele>
<time>2010-07-17T08:50:03Z</time>
<desc>lat.=55.782780, lon.=26.353563, Alt.=166.951294m. Speed=16.164000m/h.</desc>
<speed>4.490000</speed>
</trkpt>
<trkpt lat="55.782799" lon="26.353483">
<ele>166.732544</ele>
<time>2010-07-17T08:50:04Z</time>
<desc>lat.=55.782799, lon.=26.353483, Alt.=166.732544m. Speed=15.912000m/h.</desc>
<speed>4.420000</speed>
</trkpt>
<trkpt lat="55.782814" lon="26.353409">
<ele>166.619263</ele>
<time>2010-07-17T08:50:05Z</time>
<desc>lat.=55.782814, lon.=26.353409, Alt.=166.619263m. Speed=17.136000m/h.</desc>
<speed>4.760000</speed>
</trkpt>
<trkpt lat="55.782837" lon="26.353325">
<ele>166.490356</ele>
<time>2010-07-17T08:50:06Z</time>
<desc>lat.=55.782837, lon.=26.353325, Alt.=166.490356m. Speed=18.431999m/h.</desc>
<speed>5.120000</speed>
</trkpt>
<trkpt lat="55.782860" lon="26.353233">
<ele>165.869263</ele>
<time>2010-07-17T08:50:07Z</time>
<desc>lat.=55.782860, lon.=26.353233, Alt.=165.869263m. Speed=19.908001m/h.</desc>
<speed>5.530000</speed>
</trkpt>
<trkpt lat="55.782879" lon="26.353159">
<ele>165.224731</ele>
<time>2010-07-17T08:50:08Z</time>
<desc>lat.=55.782879, lon.=26.353159, Alt.=165.224731m. Speed=19.548000m/h.</desc>
<speed>5.430000</speed>
</trkpt>
<trkpt lat="55.782902" lon="26.353075">
<ele>165.134888</ele>
<time>2010-07-17T08:50:09Z</time>
<desc>lat.=55.782902, lon.=26.353075, Alt.=165.134888m. Speed=19.115999m/h.</desc>
<speed>5.310000</speed>
</trkpt>
<trkpt lat="55.782928" lon="26.352995">
<ele>164.603638</ele>
<time>2010-07-17T08:50:10Z</time>
<desc>lat.=55.782928, lon.=26.352995, Alt.=164.603638m. Speed=18.360001m/h.</desc>
<speed>5.100000</speed>
</trkpt>
<trkpt lat="55.782944" lon="26.352922">
<ele>164.642700</ele>
<time>2010-07-17T08:50:11Z</time>
<desc>lat.=55.782944, lon.=26.352922, Alt.=164.642700m. Speed=16.128000m/h.</desc>
<speed>4.480000</speed>
</trkpt>
<trkpt lat="55.782963" lon="26.352837">
<ele>164.064575</ele>
<time>2010-07-17T08:50:12Z</time>
<desc>lat.=55.782963, lon.=26.352837, Alt.=164.064575m. Speed=18.936001m/h.</desc>
<speed>5.260000</speed>
</trkpt>
<trkpt lat="55.782986" lon="26.352753">
<ele>163.634888</ele>
<time>2010-07-17T08:50:13Z</time>
<desc>lat.=55.782986, lon.=26.352753, Alt.=163.634888m. Speed=18.756001m/h.</desc>
<speed>5.210000</speed>
</trkpt>
<trkpt lat="55.783009" lon="26.352655">
<ele>162.705200</ele>
<time>2010-07-17T08:50:14Z</time>
<desc>lat.=55.783009, lon.=26.352655, Alt.=162.705200m. Speed=17.639999m/h.</desc>
<speed>4.900000</speed>
</trkpt>
<trkpt lat="55.783031" lon="26.352562">
<ele>161.505981</ele>
<time>2010-07-17T08:50:15Z</time>
<desc>lat.=55.783031, lon.=26.352562, Alt.=161.505981m. Speed=18.396000m/h.</desc>
<speed>5.110000</speed>
</trkpt>
<trkpt lat="55.783051" lon="26.352476">
<ele>161.021606</ele>
<time>2010-07-17T08:50:16Z</time>
<desc>lat.=55.783051, lon.=26.352476, Alt.=161.021606m. Speed=18.252001m/h.</desc>
<speed>5.070000</speed>
</trkpt>
<trkpt lat="55.783066" lon="26.352383">
<ele>160.181763</ele>
<time>2010-07-17T08:50:17Z</time>
<desc>lat.=55.783066, lon.=26.352383, Alt.=160.181763m. Speed=18.792000m/h.</desc>
<speed>5.220000</speed>
</trkpt>
<trkpt lat="55.783081" lon="26.352297">
<ele>158.978638</ele>
<time>2010-07-17T08:50:18Z</time>
<desc>lat.=55.783081, lon.=26.352297, Alt.=158.978638m. Speed=17.964001m/h.</desc>
<speed>4.990000</speed>
</trkpt>
<trkpt lat="55.783096" lon="26.352228">
<ele>158.795044</ele>
<time>2010-07-17T08:50:19Z</time>
<desc>lat.=55.783096, lon.=26.352228, Alt.=158.795044m. Speed=15.408000m/h.</desc>
<speed>4.280000</speed>
</trkpt>
<trkpt lat="55.783115" lon="26.352161">
<ele>158.365356</ele>
<time>2010-07-17T08:50:20Z</time>
<desc>lat.=55.783115, lon.=26.352161, Alt.=158.365356m. Speed=16.128000m/h.</desc>
<speed>4.480000</speed>
</trkpt>
<trkpt lat="55.783138" lon="26.352085">
<ele>155.865356</ele>
<time>2010-07-17T08:50:21Z</time>
<desc>lat.=55.783138, lon.=26.352085, Alt.=155.865356m. Speed=16.632000m/h.</desc>
<speed>4.620000</speed>
</trkpt>
<trkpt lat="55.783157" lon="26.352013">
<ele>154.033325</ele>
<time>2010-07-17T08:50:22Z</time>
<desc>lat.=55.783157, lon.=26.352013, Alt.=154.033325m. Speed=18.288000m/h.</desc>
<speed>5.080000</speed>
</trkpt>
<trkpt lat="55.783173" lon="26.351942">
<ele>153.357544</ele>
<time>2010-07-17T08:50:23Z</time>
<desc>lat.=55.783173, lon.=26.351942, Alt.=153.357544m. Speed=15.984000m/h.</desc>
<speed>4.440000</speed>
</trkpt>
<trkpt lat="55.783184" lon="26.351873">
<ele>152.810669</ele>
<time>2010-07-17T08:50:24Z</time>
<desc>lat.=55.783184, lon.=26.351873, Alt.=152.810669m. Speed=17.388000m/h.</desc>
<speed>4.830000</speed>
</trkpt>
<trkpt lat="55.783195" lon="26.351797">
<ele>152.560669</ele>
<time>2010-07-17T08:50:25Z</time>
<desc>lat.=55.783195, lon.=26.351797, Alt.=152.560669m. Speed=17.208000m/h.</desc>
<speed>4.780000</speed>
</trkpt>
<trkpt lat="55.783207" lon="26.351734">
<ele>152.400513</ele>
<time>2010-07-17T08:50:26Z</time>
<desc>lat.=55.783207, lon.=26.351734, Alt.=152.400513m. Speed=12.384000m/h.</desc>
<speed>3.440000</speed>
</trkpt>
<trkpt lat="55.783215" lon="26.351685">
<ele>152.142700</ele>
<time>2010-07-17T08:50:27Z</time>
<desc>lat.=55.783215, lon.=26.351685, Alt.=152.142700m. Speed=12.276000m/h.</desc>
<speed>3.410000</speed>
</trkpt>
<trkpt lat="55.783234" lon="26.351608">
<ele>151.818481</ele>
<time>2010-07-17T08:50:28Z</time>
<desc>lat.=55.783234, lon.=26.351608, Alt.=151.818481m. Speed=17.100000m/h.</desc>
<speed>4.750000</speed>
</trkpt>
<trkpt lat="55.783253" lon="26.351524">
<ele>152.119263</ele>
<time>2010-07-17T08:50:29Z</time>
<desc>lat.=55.783253, lon.=26.351524, Alt.=152.119263m. Speed=18.288000m/h.</desc>
<speed>5.080000</speed>
</trkpt>
<trkpt lat="55.783276" lon="26.351454">
<ele>152.853638</ele>
<time>2010-07-17T08:50:30Z</time>
<desc>lat.=55.783276, lon.=26.351454, Alt.=152.853638m. Speed=15.552000m/h.</desc>
<speed>4.320000</speed>
</trkpt>
<trkpt lat="55.783291" lon="26.351387">
<ele>152.802856</ele>
<time>2010-07-17T08:50:31Z</time>
<desc>lat.=55.783291, lon.=26.351387, Alt.=152.802856m. Speed=15.552000m/h.</desc>
<speed>4.320000</speed>
</trkpt>
<trkpt lat="55.783302" lon="26.351318">
<ele>152.490356</ele>
<time>2010-07-17T08:50:32Z</time>
<desc>lat.=55.783302, lon.=26.351318, Alt.=152.490356m. Speed=15.264000m/h.</desc>
<speed>4.240000</speed>
</trkpt>
<trkpt lat="55.783321" lon="26.351242">
<ele>153.185669</ele>
<time>2010-07-17T08:50:33Z</time>
<desc>lat.=55.783321, lon.=26.351242, Alt.=153.185669m. Speed=16.812000m/h.</desc>
<speed>4.670000</speed>
</trkpt>
<trkpt lat="55.783329" lon="26.351170">
<ele>152.271606</ele>
<time>2010-07-17T08:50:34Z</time>
<desc>lat.=55.783329, lon.=26.351170, Alt.=152.271606m. Speed=16.271999m/h.</desc>
<speed>4.520000</speed>
</trkpt>
<trkpt lat="55.783337" lon="26.351076">
<ele>153.576294</ele>
<time>2010-07-17T08:50:35Z</time>
<desc>lat.=55.783337, lon.=26.351076, Alt.=153.576294m. Speed=18.827999m/h.</desc>
<speed>5.230000</speed>
</trkpt>
<trkpt lat="55.783325" lon="26.350986">
<ele>153.138794</ele>
<time>2010-07-17T08:50:36Z</time>
<desc>lat.=55.783325, lon.=26.350986, Alt.=153.138794m. Speed=20.375999m/h.</desc>
<speed>5.660000</speed>
</trkpt>
<trkpt lat="55.783314" lon="26.350904">
<ele>152.783325</ele>
<time>2010-07-17T08:50:37Z</time>
<desc>lat.=55.783314, lon.=26.350904, Alt.=152.783325m. Speed=18.000000m/h.</desc>
<speed>5.000000</speed>
</trkpt>
<trkpt lat="55.783302" lon="26.350836">
<ele>152.130981</ele>
<time>2010-07-17T08:50:38Z</time>
<desc>lat.=55.783302, lon.=26.350836, Alt.=152.130981m. Speed=14.688000m/h.</desc>
<speed>4.080000</speed>
</trkpt>
<trkpt lat="55.783295" lon="26.350756">
<ele>152.517700</ele>
<time>2010-07-17T08:50:39Z</time>
<desc>lat.=55.783295, lon.=26.350756, Alt.=152.517700m. Speed=17.496000m/h.</desc>
<speed>4.860000</speed>
</trkpt>
<trkpt lat="55.783283" lon="26.350677">
<ele>152.595825</ele>
<time>2010-07-17T08:50:40Z</time>
<desc>lat.=55.783283, lon.=26.350677, Alt.=152.595825m. Speed=17.172001m/h.</desc>
<speed>4.770000</speed>
</trkpt>
<trkpt lat="55.783272" lon="26.350603">
<ele>152.892700</ele>
<time>2010-07-17T08:50:41Z</time>
<desc>lat.=55.783272, lon.=26.350603, Alt.=152.892700m. Speed=16.740000m/h.</desc>
<speed>4.650000</speed>
</trkpt>
<trkpt lat="55.783264" lon="26.350517">
<ele>153.939575</ele>
<time>2010-07-17T08:50:42Z</time>
<desc>lat.=55.783264, lon.=26.350517, Alt.=153.939575m. Speed=17.604000m/h.</desc>
<speed>4.890000</speed>
</trkpt>
<trkpt lat="55.783249" lon="26.350443">
<ele>153.595825</ele>
<time>2010-07-17T08:50:43Z</time>
<desc>lat.=55.783249, lon.=26.350443, Alt.=153.595825m. Speed=17.316000m/h.</desc>
<speed>4.810000</speed>
</trkpt>
<trkpt lat="55.783241" lon="26.350363">
<ele>153.158325</ele>
<time>2010-07-17T08:50:44Z</time>
<desc>lat.=55.783241, lon.=26.350363, Alt.=153.158325m. Speed=17.459999m/h.</desc>
<speed>4.850000</speed>
</trkpt>
<trkpt lat="55.783226" lon="26.350267">
<ele>152.248169</ele>
<time>2010-07-17T08:50:45Z</time>
<desc>lat.=55.783226, lon.=26.350267, Alt.=152.248169m. Speed=18.000000m/h.</desc>
<speed>5.000000</speed>
</trkpt>
<trkpt lat="55.783211" lon="26.350189">
<ele>151.826294</ele>
<time>2010-07-17T08:50:46Z</time>
<desc>lat.=55.783211, lon.=26.350189, Alt.=151.826294m. Speed=15.876000m/h.</desc>
<speed>4.410000</speed>
</trkpt>
<trkpt lat="55.783199" lon="26.350103">
<ele>150.955200</ele>
<time>2010-07-17T08:50:47Z</time>
<desc>lat.=55.783199, lon.=26.350103, Alt.=150.955200m. Speed=17.820000m/h.</desc>
<speed>4.950000</speed>
</trkpt>
<trkpt lat="55.783195" lon="26.350002">
<ele>152.080200</ele>
<time>2010-07-17T08:50:48Z</time>
<desc>lat.=55.783195, lon.=26.350002, Alt.=152.080200m. Speed=18.323999m/h.</desc>
<speed>5.090000</speed>
</trkpt>
<trkpt lat="55.783188" lon="26.349924">
<ele>152.052856</ele>
<time>2010-07-17T08:50:49Z</time>
<desc>lat.=55.783188, lon.=26.349924, Alt.=152.052856m. Speed=16.128000m/h.</desc>
<speed>4.480000</speed>
</trkpt>
<trkpt lat="55.783173" lon="26.349850">
<ele>152.252075</ele>
<time>2010-07-17T08:50:50Z</time>
<desc>lat.=55.783173, lon.=26.349850, Alt.=152.252075m. Speed=16.416000m/h.</desc>
<speed>4.560000</speed>
</trkpt>
<trkpt lat="55.783165" lon="26.349773">
<ele>152.427856</ele>
<time>2010-07-17T08:50:51Z</time>
<desc>lat.=55.783165, lon.=26.349773, Alt.=152.427856m. Speed=16.164000m/h.</desc>
<speed>4.490000</speed>
</trkpt>
<trkpt lat="55.783154" lon="26.349703">
<ele>151.728638</ele>
<time>2010-07-17T08:50:52Z</time>
<desc>lat.=55.783154, lon.=26.349703, Alt.=151.728638m. Speed=15.372000m/h.</desc>
<speed>4.270000</speed>
</trkpt>
<trkpt lat="55.783138" lon="26.349630">
<ele>151.904419</ele>
<time>2010-07-17T08:50:53Z</time>
<desc>lat.=55.783138, lon.=26.349630, Alt.=151.904419m. Speed=15.156000m/h.</desc>
<speed>4.210000</speed>
</trkpt>
<trkpt lat="55.783131" lon="26.349558">
<ele>153.513794</ele>
<time>2010-07-17T08:50:54Z</time>
<desc>lat.=55.783131, lon.=26.349558, Alt.=153.513794m. Speed=14.328000m/h.</desc>
<speed>3.980000</speed>
</trkpt>
<trkpt lat="55.783119" lon="26.349504">
<ele>154.560669</ele>
<time>2010-07-17T08:50:55Z</time>
<desc>lat.=55.783119, lon.=26.349504, Alt.=154.560669m. Speed=10.620000m/h.</desc>
<speed>2.950000</speed>
</trkpt>
<trkpt lat="55.783104" lon="26.349468">
<ele>153.724731</ele>
<time>2010-07-17T08:50:56Z</time>
<desc>lat.=55.783104, lon.=26.349468, Alt.=153.724731m. Speed=6.696000m/h.</desc>
<speed>1.860000</speed>
</trkpt>
<trkpt lat="55.783100" lon="26.349421">
<ele>151.513794</ele>
<time>2010-07-17T08:50:57Z</time>
<desc>lat.=55.783100, lon.=26.349421, Alt.=151.513794m. Speed=4.860000m/h.</desc>
<speed>1.350000</speed>
</trkpt>
<trkpt lat="55.783089" lon="26.349396">
<ele>151.259888</ele>
<time>2010-07-17T08:50:58Z</time>
<desc>lat.=55.783089, lon.=26.349396, Alt.=151.259888m. Speed=7.992000m/h.</desc>
<speed>2.220000</speed>
</trkpt>
<trkpt lat="55.783077" lon="26.349350">
<ele>151.123169</ele>
<time>2010-07-17T08:50:59Z</time>
<desc>lat.=55.783077, lon.=26.349350, Alt.=151.123169m. Speed=9.576000m/h.</desc>
<speed>2.660000</speed>
</trkpt>
<trkpt lat="55.783070" lon="26.349302">
<ele>150.935669</ele>
<time>2010-07-17T08:51:00Z</time>
<desc>lat.=55.783070, lon.=26.349302, Alt.=150.935669m. Speed=10.692000m/h.</desc>
<speed>2.970000</speed>
</trkpt>
<trkpt lat="55.783054" lon="26.349239">
<ele>150.681763</ele>
<time>2010-07-17T08:51:01Z</time>
<desc>lat.=55.783054, lon.=26.349239, Alt.=150.681763m. Speed=14.940000m/h.</desc>
<speed>4.150000</speed>
</trkpt>
<trkpt lat="55.783043" lon="26.349176">
<ele>150.474731</ele>
<time>2010-07-17T08:51:02Z</time>
<desc>lat.=55.783043, lon.=26.349176, Alt.=150.474731m. Speed=14.292000m/h.</desc>
<speed>3.970000</speed>
</trkpt>
<trkpt lat="55.783039" lon="26.349119">
<ele>150.373169</ele>
<time>2010-07-17T08:51:03Z</time>
<desc>lat.=55.783039, lon.=26.349119, Alt.=150.373169m. Speed=11.484000m/h.</desc>
<speed>3.190000</speed>
</trkpt>
<trkpt lat="55.783035" lon="26.349054">
<ele>150.494263</ele>
<time>2010-07-17T08:51:04Z</time>
<desc>lat.=55.783035, lon.=26.349054, Alt.=150.494263m. Speed=13.140000m/h.</desc>
<speed>3.650000</speed>
</trkpt>
<trkpt lat="55.783028" lon="26.349001">
<ele>150.338013</ele>
<time>2010-07-17T08:51:05Z</time>
<desc>lat.=55.783028, lon.=26.349001, Alt.=150.338013m. Speed=10.440000m/h.</desc>
<speed>2.900000</speed>
</trkpt>
<trkpt lat="55.783020" lon="26.348946">
<ele>150.560669</ele>
<time>2010-07-17T08:51:06Z</time>
<desc>lat.=55.783020, lon.=26.348946, Alt.=150.560669m. Speed=11.808000m/h.</desc>
<speed>3.280000</speed>
</trkpt>
<trkpt lat="55.783009" lon="26.348894">
<ele>150.338013</ele>
<time>2010-07-17T08:51:07Z</time>
<desc>lat.=55.783009, lon.=26.348894, Alt.=150.338013m. Speed=10.620000m/h.</desc>
<speed>2.950000</speed>
</trkpt>
<trkpt lat="55.782997" lon="26.348846">
<ele>149.994263</ele>
<time>2010-07-17T08:51:08Z</time>
<desc>lat.=55.782997, lon.=26.348846, Alt.=149.994263m. Speed=11.016000m/h.</desc>
<speed>3.060000</speed>
</trkpt>
<trkpt lat="55.782990" lon="26.348795">
<ele>150.025513</ele>
<time>2010-07-17T08:51:09Z</time>
<desc>lat.=55.782990, lon.=26.348795, Alt.=150.025513m. Speed=10.044000m/h.</desc>
<speed>2.790000</speed>
</trkpt>
<trkpt lat="55.782986" lon="26.348743">
<ele>150.088013</ele>
<time>2010-07-17T08:51:10Z</time>
<desc>lat.=55.782986, lon.=26.348743, Alt.=150.088013m. Speed=10.476000m/h.</desc>
<speed>2.910000</speed>
</trkpt>
<trkpt lat="55.782978" lon="26.348690">
<ele>149.295044</ele>
<time>2010-07-17T08:51:11Z</time>
<desc>lat.=55.782978, lon.=26.348690, Alt.=149.295044m. Speed=8.964000m/h.</desc>
<speed>2.490000</speed>
</trkpt>
<trkpt lat="55.782967" lon="26.348639">
<ele>148.775513</ele>
<time>2010-07-17T08:51:12Z</time>
<desc>lat.=55.782967, lon.=26.348639, Alt.=148.775513m. Speed=8.784000m/h.</desc>
<speed>2.440000</speed>
</trkpt>
<trkpt lat="55.782963" lon="26.348587">
<ele>148.853638</ele>
<time>2010-07-17T08:51:13Z</time>
<desc>lat.=55.782963, lon.=26.348587, Alt.=148.853638m. Speed=9.216000m/h.</desc>
<speed>2.560000</speed>
</trkpt>
<trkpt lat="55.782955" lon="26.348543">
<ele>148.713013</ele>
<time>2010-07-17T08:51:14Z</time>
<desc>lat.=55.782955, lon.=26.348543, Alt.=148.713013m. Speed=7.128000m/h.</desc>
<speed>1.980000</speed>
</trkpt>
<trkpt lat="55.782944" lon="26.348484">
<ele>148.857544</ele>
<time>2010-07-17T08:51:15Z</time>
<desc>lat.=55.782944, lon.=26.348484, Alt.=148.857544m. Speed=7.632000m/h.</desc>
<speed>2.120000</speed>
</trkpt>
<trkpt lat="55.782944" lon="26.348362">
<ele>148.814575</ele>
<time>2010-07-17T08:51:16Z</time>
<desc>lat.=55.782944, lon.=26.348362, Alt.=148.814575m. Speed=8.964000m/h.</desc>
<speed>2.490000</speed>
</trkpt>
<trkpt lat="55.782932" lon="26.348314">
<ele>149.056763</ele>
<time>2010-07-17T08:51:17Z</time>
<desc>lat.=55.782932, lon.=26.348314, Alt.=149.056763m. Speed=7.992000m/h.</desc>
<speed>2.220000</speed>
</trkpt>
<trkpt lat="55.782921" lon="26.348263">
<ele>149.498169</ele>
<time>2010-07-17T08:51:18Z</time>
<desc>lat.=55.782921, lon.=26.348263, Alt.=149.498169m. Speed=8.532000m/h.</desc>
<speed>2.370000</speed>
</trkpt>
<trkpt lat="55.782909" lon="26.348206">
<ele>149.963013</ele>
<time>2010-07-17T08:51:19Z</time>
<desc>lat.=55.782909, lon.=26.348206, Alt.=149.963013m. Speed=7.452000m/h.</desc>
<speed>2.070000</speed>
</trkpt>
<trkpt lat="55.782890" lon="26.348181">
<ele>150.287231</ele>
<time>2010-07-17T08:51:20Z</time>
<desc>lat.=55.782890, lon.=26.348181, Alt.=150.287231m. Speed=8.100000m/h.</desc>
<speed>2.250000</speed>
</trkpt>
<trkpt lat="55.782875" lon="26.348141">
<ele>150.267700</ele>
<time>2010-07-17T08:51:21Z</time>
<desc>lat.=55.782875, lon.=26.348141, Alt.=150.267700m. Speed=8.244000m/h.</desc>
<speed>2.290000</speed>
</trkpt>
<trkpt lat="55.782860" lon="26.348097">
<ele>151.084106</ele>
<time>2010-07-17T08:51:22Z</time>
<desc>lat.=55.782860, lon.=26.348097, Alt.=151.084106m. Speed=10.296000m/h.</desc>
<speed>2.860000</speed>
</trkpt>
<trkpt lat="55.782837" lon="26.348066">
<ele>150.810669</ele>
<time>2010-07-17T08:51:23Z</time>
<desc>lat.=55.782837, lon.=26.348066, Alt.=150.810669m. Speed=10.836000m/h.</desc>
<speed>3.010000</speed>
</trkpt>
<trkpt lat="55.782803" lon="26.348053">
<ele>150.048950</ele>
<time>2010-07-17T08:51:24Z</time>
<desc>lat.=55.782803, lon.=26.348053, Alt.=150.048950m. Speed=14.904000m/h.</desc>
<speed>4.140000</speed>
</trkpt>
<trkpt lat="55.782753" lon="26.348013">
<ele>151.025513</ele>
<time>2010-07-17T08:51:25Z</time>
<desc>lat.=55.782753, lon.=26.348013, Alt.=151.025513m. Speed=16.704000m/h.</desc>
<speed>4.640000</speed>
</trkpt>
<trkpt lat="55.782696" lon="26.347960">
<ele>151.517700</ele>
<time>2010-07-17T08:51:26Z</time>
<desc>lat.=55.782696, lon.=26.347960, Alt.=151.517700m. Speed=16.596001m/h.</desc>
<speed>4.610000</speed>
</trkpt>
<trkpt lat="55.782642" lon="26.347908">
<ele>152.150513</ele>
<time>2010-07-17T08:51:27Z</time>
<desc>lat.=55.782642, lon.=26.347908, Alt.=152.150513m. Speed=18.035999m/h.</desc>
<speed>5.010000</speed>
</trkpt>
<trkpt lat="55.782589" lon="26.347834">
<ele>152.580200</ele>
<time>2010-07-17T08:51:28Z</time>
<desc>lat.=55.782589, lon.=26.347834, Alt.=152.580200m. Speed=18.972000m/h.</desc>
<speed>5.270000</speed>
</trkpt>
<trkpt lat="55.782543" lon="26.347788">
<ele>151.619263</ele>
<time>2010-07-17T08:51:29Z</time>
<desc>lat.=55.782543, lon.=26.347788, Alt.=151.619263m. Speed=15.444000m/h.</desc>
<speed>4.290000</speed>
</trkpt>
<trkpt lat="55.782516" lon="26.347755">
<ele>150.615356</ele>
<time>2010-07-17T08:51:30Z</time>
<desc>lat.=55.782516, lon.=26.347755, Alt.=150.615356m. Speed=10.476000m/h.</desc>
<speed>2.910000</speed>
</trkpt>
<trkpt lat="55.782478" lon="26.347727">
<ele>149.013794</ele>
<time>2010-07-17T08:51:31Z</time>
<desc>lat.=55.782478, lon.=26.347727, Alt.=149.013794m. Speed=12.312000m/h.</desc>
<speed>3.420000</speed>
</trkpt>
<trkpt lat="55.782444" lon="26.347689">
<ele>147.525513</ele>
<time>2010-07-17T08:51:32Z</time>
<desc>lat.=55.782444, lon.=26.347689, Alt.=147.525513m. Speed=12.312000m/h.</desc>
<speed>3.420000</speed>
</trkpt>
<trkpt lat="55.782421" lon="26.347643">
<ele>147.228638</ele>
<time>2010-07-17T08:51:33Z</time>
<desc>lat.=55.782421, lon.=26.347643, Alt.=147.228638m. Speed=12.024000m/h.</desc>
<speed>3.340000</speed>
</trkpt>
<trkpt lat="55.782398" lon="26.347603">
<ele>147.197388</ele>
<time>2010-07-17T08:51:34Z</time>
<desc>lat.=55.782398, lon.=26.347603, Alt.=147.197388m. Speed=10.620000m/h.</desc>
<speed>2.950000</speed>
</trkpt>
<trkpt lat="55.782372" lon="26.347538">
<ele>147.072388</ele>
<time>2010-07-17T08:51:35Z</time>
<desc>lat.=55.782372, lon.=26.347538, Alt.=147.072388m. Speed=12.924000m/h.</desc>
<speed>3.590000</speed>
</trkpt>
<trkpt lat="55.782341" lon="26.347475">
<ele>146.400513</ele>
<time>2010-07-17T08:51:36Z</time>
<desc>lat.=55.782341, lon.=26.347475, Alt.=146.400513m. Speed=12.600000m/h.</desc>
<speed>3.500000</speed>
</trkpt>
<trkpt lat="55.782314" lon="26.347425">
<ele>145.439575</ele>
<time>2010-07-17T08:51:37Z</time>
<desc>lat.=55.782314, lon.=26.347425, Alt.=145.439575m. Speed=9.936000m/h.</desc>
<speed>2.760000</speed>
</trkpt>
<trkpt lat="55.782295" lon="26.347387">
<ele>144.564575</ele>
<time>2010-07-17T08:51:38Z</time>
<desc>lat.=55.782295, lon.=26.347387, Alt.=144.564575m. Speed=6.840000m/h.</desc>
<speed>1.900000</speed>
</trkpt>
<trkpt lat="55.782276" lon="26.347340">
<ele>143.443481</ele>
<time>2010-07-17T08:51:39Z</time>
<desc>lat.=55.782276, lon.=26.347340, Alt.=143.443481m. Speed=3.636000m/h.</desc>
<speed>1.010000</speed>
</trkpt>
<trkpt lat="55.782272" lon="26.347322">
<ele>142.935669</ele>
<time>2010-07-17T08:51:40Z</time>
<desc>lat.=55.782272, lon.=26.347322, Alt.=142.935669m. Speed=1.620000m/h.</desc>
<speed>0.450000</speed>
</trkpt>
<trkpt lat="55.782272" lon="26.347307">
<ele>143.283325</ele>
<time>2010-07-17T08:51:41Z</time>
<desc>lat.=55.782272, lon.=26.347307, Alt.=143.283325m. Speed=0.684000m/h.</desc>
<speed>0.190000</speed>
</trkpt>
<trkpt lat="55.782272" lon="26.347301">
<ele>143.670044</ele>
<time>2010-07-17T08:51:42Z</time>
<desc>lat.=55.782272, lon.=26.347301, Alt.=143.670044m. Speed=0.360000m/h.</desc>
<speed>0.100000</speed>
</trkpt>
<trkpt lat="55.782269" lon="26.347300">
<ele>144.384888</ele>
<time>2010-07-17T08:51:43Z</time>
<desc>lat.=55.782269, lon.=26.347300, Alt.=144.384888m. Speed=0.360000m/h.</desc>
<speed>0.100000</speed>
</trkpt>
<trkpt lat="55.782269" lon="26.347298">
<ele>144.232544</ele>
<time>2010-07-17T08:51:44Z</time>
<desc>lat.=55.782269, lon.=26.347298, Alt.=144.232544m. Speed=1.260000m/h.</desc>
<speed>0.350000</speed>
</trkpt>
<trkpt lat="55.782269" lon="26.347292">
<ele>144.115356</ele>
<time>2010-07-17T08:51:45Z</time>
<desc>lat.=55.782269, lon.=26.347292, Alt.=144.115356m. Speed=1.116000m/h.</desc>
<speed>0.310000</speed>
</trkpt>
<trkpt lat="55.782269" lon="26.347294">
<ele>144.052856</ele>
<time>2010-07-17T08:51:46Z</time>
<desc>lat.=55.782269, lon.=26.347294, Alt.=144.052856m. Speed=1.188000m/h.</desc>
<speed>0.330000</speed>
</trkpt>
<trkpt lat="55.782265" lon="26.347298">
<ele>143.990356</ele>
<time>2010-07-17T08:51:47Z</time>
<desc>lat.=55.782265, lon.=26.347298, Alt.=143.990356m. Speed=1.332000m/h.</desc>
<speed>0.370000</speed>
</trkpt>
<trkpt lat="55.782261" lon="26.347292">
<ele>143.912231</ele>
<time>2010-07-17T08:51:48Z</time>
<desc>lat.=55.782261, lon.=26.347292, Alt.=143.912231m. Speed=2.484000m/h.</desc>
<speed>0.690000</speed>
</trkpt>
<trkpt lat="55.782257" lon="26.347284">
<ele>143.838013</ele>
<time>2010-07-17T08:51:49Z</time>
<desc>lat.=55.782257, lon.=26.347284, Alt.=143.838013m. Speed=4.356000m/h.</desc>
<speed>1.210000</speed>
</trkpt>
<trkpt lat="55.782246" lon="26.347250">
<ele>143.423950</ele>
<time>2010-07-17T08:51:50Z</time>
<desc>lat.=55.782246, lon.=26.347250, Alt.=143.423950m. Speed=4.752000m/h.</desc>
<speed>1.320000</speed>
</trkpt>
<trkpt lat="55.782238" lon="26.347223">
<ele>144.107544</ele>
<time>2010-07-17T08:51:51Z</time>
<desc>lat.=55.782238, lon.=26.347223, Alt.=144.107544m. Speed=4.608000m/h.</desc>
<speed>1.280000</speed>
</trkpt>
<trkpt lat="55.782230" lon="26.347202">
<ele>144.263794</ele>
<time>2010-07-17T08:51:52Z</time>
<desc>lat.=55.782230, lon.=26.347202, Alt.=144.263794m. Speed=4.932000m/h.</desc>
<speed>1.370000</speed>
</trkpt>
<trkpt lat="55.782223" lon="26.347178">
<ele>144.119263</ele>
<time>2010-07-17T08:51:53Z</time>
<desc>lat.=55.782223, lon.=26.347178, Alt.=144.119263m. Speed=5.040000m/h.</desc>
<speed>1.400000</speed>
</trkpt>
<trkpt lat="55.782215" lon="26.347158">
<ele>143.716919</ele>
<time>2010-07-17T08:51:54Z</time>
<desc>lat.=55.782215, lon.=26.347158, Alt.=143.716919m. Speed=5.544000m/h.</desc>
<speed>1.540000</speed>
</trkpt>
<trkpt lat="55.782207" lon="26.347132">
<ele>143.466919</ele>
<time>2010-07-17T08:51:55Z</time>
<desc>lat.=55.782207, lon.=26.347132, Alt.=143.466919m. Speed=4.716000m/h.</desc>
<speed>1.310000</speed>
</trkpt>
<trkpt lat="55.782200" lon="26.347111">
<ele>142.916138</ele>
<time>2010-07-17T08:51:56Z</time>
<desc>lat.=55.782200, lon.=26.347111, Alt.=142.916138m. Speed=5.832000m/h.</desc>
<speed>1.620000</speed>
</trkpt>
<trkpt lat="55.782192" lon="26.347088">
<ele>142.927856</ele>
<time>2010-07-17T08:51:57Z</time>
<desc>lat.=55.782192, lon.=26.347088, Alt.=142.927856m. Speed=5.652000m/h.</desc>
<speed>1.570000</speed>
</trkpt>
<trkpt lat="55.782181" lon="26.347067">
<ele>142.588013</ele>
<time>2010-07-17T08:51:58Z</time>
<desc>lat.=55.782181, lon.=26.347067, Alt.=142.588013m. Speed=5.040000m/h.</desc>
<speed>1.400000</speed>
</trkpt>
<trkpt lat="55.782173" lon="26.347042">
<ele>142.787231</ele>
<time>2010-07-17T08:51:59Z</time>
<desc>lat.=55.782173, lon.=26.347042, Alt.=142.787231m. Speed=5.076000m/h.</desc>
<speed>1.410000</speed>
</trkpt>
<trkpt lat="55.782169" lon="26.347013">
<ele>143.209106</ele>
<time>2010-07-17T08:52:00Z</time>
<desc>lat.=55.782169, lon.=26.347013, Alt.=143.209106m. Speed=5.508000m/h.</desc>
<speed>1.530000</speed>
</trkpt>
<trkpt lat="55.782166" lon="26.346981">
<ele>143.619263</ele>
<time>2010-07-17T08:52:01Z</time>
<desc>lat.=55.782166, lon.=26.346981, Alt.=143.619263m. Speed=6.012000m/h.</desc>
<speed>1.670000</speed>
</trkpt>
<trkpt lat="55.782162" lon="26.346954">
<ele>143.334106</ele>
<time>2010-07-17T08:52:02Z</time>
<desc>lat.=55.782162, lon.=26.346954, Alt.=143.334106m. Speed=5.616000m/h.</desc>
<speed>1.560000</speed>
</trkpt>
<trkpt lat="55.782154" lon="26.346928">
<ele>143.306763</ele>
<time>2010-07-17T08:52:03Z</time>
<desc>lat.=55.782154, lon.=26.346928, Alt.=143.306763m. Speed=5.724000m/h.</desc>
<speed>1.590000</speed>
</trkpt>
<trkpt lat="55.782150" lon="26.346901">
<ele>143.423950</ele>
<time>2010-07-17T08:52:04Z</time>
<desc>lat.=55.782150, lon.=26.346901, Alt.=143.423950m. Speed=5.832000m/h.</desc>
<speed>1.620000</speed>
</trkpt>
<trkpt lat="55.782146" lon="26.346870">
<ele>143.244263</ele>
<time>2010-07-17T08:52:05Z</time>
<desc>lat.=55.782146, lon.=26.346870, Alt.=143.244263m. Speed=6.552000m/h.</desc>
<speed>1.820000</speed>
</trkpt>
<trkpt lat="55.782135" lon="26.346840">
<ele>142.986450</ele>
<time>2010-07-17T08:52:06Z</time>
<desc>lat.=55.782135, lon.=26.346840, Alt.=142.986450m. Speed=6.624000m/h.</desc>
<speed>1.840000</speed>
</trkpt>
<trkpt lat="55.782127" lon="26.346815">
<ele>142.650513</ele>
<time>2010-07-17T08:52:07Z</time>
<desc>lat.=55.782127, lon.=26.346815, Alt.=142.650513m. Speed=5.724000m/h.</desc>
<speed>1.590000</speed>
</trkpt>
<trkpt lat="55.782120" lon="26.346792">
<ele>142.412231</ele>
<time>2010-07-17T08:52:08Z</time>
<desc>lat.=55.782120, lon.=26.346792, Alt.=142.412231m. Speed=5.976000m/h.</desc>
<speed>1.660000</speed>
</trkpt>
<trkpt lat="55.782116" lon="26.346767">
<ele>141.724731</ele>
<time>2010-07-17T08:52:09Z</time>
<desc>lat.=55.782116, lon.=26.346767, Alt.=141.724731m. Speed=5.256000m/h.</desc>
<speed>1.460000</speed>
</trkpt>
<trkpt lat="55.782112" lon="26.346750">
<ele>141.834106</ele>
<time>2010-07-17T08:52:10Z</time>
<desc>lat.=55.782112, lon.=26.346750, Alt.=141.834106m. Speed=4.068000m/h.</desc>
<speed>1.130000</speed>
</trkpt>
<trkpt lat="55.782120" lon="26.346729">
<ele>142.201294</ele>
<time>2010-07-17T08:52:11Z</time>
<desc>lat.=55.782120, lon.=26.346729, Alt.=142.201294m. Speed=4.536000m/h.</desc>
<speed>1.260000</speed>
</trkpt>
<trkpt lat="55.782124" lon="26.346714">
<ele>142.107544</ele>
<time>2010-07-17T08:52:12Z</time>
<desc>lat.=55.782124, lon.=26.346714, Alt.=142.107544m. Speed=3.816000m/h.</desc>
<speed>1.060000</speed>
</trkpt>
<trkpt lat="55.782131" lon="26.346689">
<ele>142.525513</ele>
<time>2010-07-17T08:52:13Z</time>
<desc>lat.=55.782131, lon.=26.346689, Alt.=142.525513m. Speed=4.680000m/h.</desc>
<speed>1.300000</speed>
</trkpt>
<trkpt lat="55.782139" lon="26.346664">
<ele>142.466919</ele>
<time>2010-07-17T08:52:14Z</time>
<desc>lat.=55.782139, lon.=26.346664, Alt.=142.466919m. Speed=4.608000m/h.</desc>
<speed>1.280000</speed>
</trkpt>
<trkpt lat="55.782146" lon="26.346647">
<ele>142.416138</ele>
<time>2010-07-17T08:52:15Z</time>
<desc>lat.=55.782146, lon.=26.346647, Alt.=142.416138m. Speed=3.564000m/h.</desc>
<speed>0.990000</speed>
</trkpt>
<trkpt lat="55.782154" lon="26.346634">
<ele>142.400513</ele>
<time>2010-07-17T08:52:16Z</time>
<desc>lat.=55.782154, lon.=26.346634, Alt.=142.400513m. Speed=3.852000m/h.</desc>
<speed>1.070000</speed>
</trkpt>
<trkpt lat="55.782158" lon="26.346615">
<ele>142.630981</ele>
<time>2010-07-17T08:52:17Z</time>
<desc>lat.=55.782158, lon.=26.346615, Alt.=142.630981m. Speed=3.096000m/h.</desc>
<speed>0.860000</speed>
</trkpt>
<trkpt lat="55.782162" lon="26.346600">
<ele>142.502075</ele>
<time>2010-07-17T08:52:18Z</time>
<desc>lat.=55.782162, lon.=26.346600, Alt.=142.502075m. Speed=2.268000m/h.</desc>
<speed>0.630000</speed>
</trkpt>
<trkpt lat="55.782166" lon="26.346586">
<ele>142.775513</ele>
<time>2010-07-17T08:52:19Z</time>
<desc>lat.=55.782166, lon.=26.346586, Alt.=142.775513m. Speed=1.116000m/h.</desc>
<speed>0.310000</speed>
</trkpt>
<trkpt lat="55.782169" lon="26.346579">
<ele>142.974731</ele>
<time>2010-07-17T08:52:20Z</time>
<desc>lat.=55.782169, lon.=26.346579, Alt.=142.974731m. Speed=0.108000m/h.</desc>
<speed>0.030000</speed>
</trkpt>
<trkpt lat="55.782166" lon="26.346575">
<ele>143.220825</ele>
<time>2010-07-17T08:52:21Z</time>
<desc>lat.=55.782166, lon.=26.346575, Alt.=143.220825m. Speed=0.648000m/h.</desc>
<speed>0.180000</speed>
</trkpt>
<trkpt lat="55.782162" lon="26.346571">
<ele>143.607544</ele>
<time>2010-07-17T08:52:22Z</time>
<desc>lat.=55.782162, lon.=26.346571, Alt.=143.607544m. Speed=0.216000m/h.</desc>
<speed>0.060000</speed>
</trkpt>
<trkpt lat="55.782158" lon="26.346569">
<ele>144.025513</ele>
<time>2010-07-17T08:52:23Z</time>
<desc>lat.=55.782158, lon.=26.346569, Alt.=144.025513m. Speed=0.108000m/h.</desc>
<speed>0.030000</speed>
</trkpt>
<trkpt lat="55.782158" lon="26.346569">
<ele>144.005981</ele>
<time>2010-07-17T08:52:24Z</time>
<desc>lat.=55.782158, lon.=26.346569, Alt.=144.005981m. Speed=1.944000m/h.</desc>
<speed>0.540000</speed>
</trkpt>
<trkpt lat="55.782154" lon="26.346575">
<ele>144.002075</ele>
<time>2010-07-17T08:52:25Z</time>
<desc>lat.=55.782154, lon.=26.346575, Alt.=144.002075m. Speed=2.844000m/h.</desc>
<speed>0.790000</speed>
</trkpt>
<trkpt lat="55.782150" lon="26.346581">
<ele>144.037231</ele>
<time>2010-07-17T08:52:26Z</time>
<desc>lat.=55.782150, lon.=26.346581, Alt.=144.037231m. Speed=2.088000m/h.</desc>
<speed>0.580000</speed>
</trkpt>
<trkpt lat="55.782146" lon="26.346582">
<ele>144.107544</ele>
<time>2010-07-17T08:52:27Z</time>
<desc>lat.=55.782146, lon.=26.346582, Alt.=144.107544m. Speed=1.800000m/h.</desc>
<speed>0.500000</speed>
</trkpt>
<trkpt lat="55.782139" lon="26.346594">
<ele>144.228638</ele>
<time>2010-07-17T08:52:28Z</time>
<desc>lat.=55.782139, lon.=26.346594, Alt.=144.228638m. Speed=3.168000m/h.</desc>
<speed>0.880000</speed>
</trkpt>
<trkpt lat="55.782131" lon="26.346615">
<ele>144.310669</ele>
<time>2010-07-17T08:52:29Z</time>
<desc>lat.=55.782131, lon.=26.346615, Alt.=144.310669m. Speed=5.292000m/h.</desc>
<speed>1.470000</speed>
</trkpt>
<trkpt lat="55.782131" lon="26.346647">
<ele>144.744263</ele>
<time>2010-07-17T08:52:30Z</time>
<desc>lat.=55.782131, lon.=26.346647, Alt.=144.744263m. Speed=5.400000m/h.</desc>
<speed>1.500000</speed>
</trkpt>
<trkpt lat="55.782127" lon="26.346670">
<ele>144.673950</ele>
<time>2010-07-17T08:52:31Z</time>
<desc>lat.=55.782127, lon.=26.346670, Alt.=144.673950m. Speed=4.968000m/h.</desc>
<speed>1.380000</speed>
</trkpt>
<trkpt lat="55.782124" lon="26.346695">
<ele>144.463013</ele>
<time>2010-07-17T08:52:32Z</time>
<desc>lat.=55.782124, lon.=26.346695, Alt.=144.463013m. Speed=5.364000m/h.</desc>
<speed>1.490000</speed>
</trkpt>
<trkpt lat="55.782127" lon="26.346720">
<ele>144.931763</ele>
<time>2010-07-17T08:52:33Z</time>
<desc>lat.=55.782127, lon.=26.346720, Alt.=144.931763m. Speed=5.256000m/h.</desc>
<speed>1.460000</speed>
</trkpt>
<trkpt lat="55.782127" lon="26.346737">
<ele>145.115356</ele>
<time>2010-07-17T08:52:34Z</time>
<desc>lat.=55.782127, lon.=26.346737, Alt.=145.115356m. Speed=4.392000m/h.</desc>
<speed>1.220000</speed>
</trkpt>
<trkpt lat="55.782131" lon="26.346758">
<ele>144.966919</ele>
<time>2010-07-17T08:52:35Z</time>
<desc>lat.=55.782131, lon.=26.346758, Alt.=144.966919m. Speed=4.248000m/h.</desc>
<speed>1.180000</speed>
</trkpt>
<trkpt lat="55.782139" lon="26.346777">
<ele>144.943481</ele>
<time>2010-07-17T08:52:36Z</time>
<desc>lat.=55.782139, lon.=26.346777, Alt.=144.943481m. Speed=4.968000m/h.</desc>
<speed>1.380000</speed>
</trkpt>
<trkpt lat="55.782146" lon="26.346796">
<ele>145.201294</ele>
<time>2010-07-17T08:52:37Z</time>
<desc>lat.=55.782146, lon.=26.346796, Alt.=145.201294m. Speed=5.076000m/h.</desc>
<speed>1.410000</speed>
</trkpt>
<trkpt lat="55.782154" lon="26.346813">
<ele>145.338013</ele>
<time>2010-07-17T08:52:38Z</time>
<desc>lat.=55.782154, lon.=26.346813, Alt.=145.338013m. Speed=4.176000m/h.</desc>
<speed>1.160000</speed>
</trkpt>
<trkpt lat="55.782158" lon="26.346830">
<ele>145.435669</ele>
<time>2010-07-17T08:52:39Z</time>
<desc>lat.=55.782158, lon.=26.346830, Alt.=145.435669m. Speed=3.744000m/h.</desc>
<speed>1.040000</speed>
</trkpt>
<trkpt lat="55.782162" lon="26.346840">
<ele>145.228638</ele>
<time>2010-07-17T08:52:40Z</time>
<desc>lat.=55.782162, lon.=26.346840, Alt.=145.228638m. Speed=4.752000m/h.</desc>
<speed>1.320000</speed>
</trkpt>
<trkpt lat="55.782169" lon="26.346859">
<ele>145.463013</ele>
<time>2010-07-17T08:52:41Z</time>
<desc>lat.=55.782169, lon.=26.346859, Alt.=145.463013m. Speed=4.500000m/h.</desc>
<speed>1.250000</speed>
</trkpt>
<trkpt lat="55.782173" lon="26.346878">
<ele>145.513794</ele>
<time>2010-07-17T08:52:42Z</time>
<desc>lat.=55.782173, lon.=26.346878, Alt.=145.513794m. Speed=4.464000m/h.</desc>
<speed>1.240000</speed>
</trkpt>
<trkpt lat="55.782177" lon="26.346899">
<ele>145.580200</ele>
<time>2010-07-17T08:52:43Z</time>
<desc>lat.=55.782177, lon.=26.346899, Alt.=145.580200m. Speed=4.428000m/h.</desc>
<speed>1.230000</speed>
</trkpt>
<trkpt lat="55.782177" lon="26.346918">
<ele>145.713013</ele>
<time>2010-07-17T08:52:44Z</time>
<desc>lat.=55.782177, lon.=26.346918, Alt.=145.713013m. Speed=3.564000m/h.</desc>
<speed>0.990000</speed>
</trkpt>
<trkpt lat="55.782181" lon="26.346935">
<ele>145.716919</ele>
<time>2010-07-17T08:52:45Z</time>
<desc>lat.=55.782181, lon.=26.346935, Alt.=145.716919m. Speed=3.852000m/h.</desc>
<speed>1.070000</speed>
</trkpt>
<trkpt lat="55.782185" lon="26.346947">
<ele>145.545044</ele>
<time>2010-07-17T08:52:46Z</time>
<desc>lat.=55.782185, lon.=26.346947, Alt.=145.545044m. Speed=3.528000m/h.</desc>
<speed>0.980000</speed>
</trkpt>
<trkpt lat="55.782192" lon="26.346960">
<ele>145.779419</ele>
<time>2010-07-17T08:52:47Z</time>
<desc>lat.=55.782192, lon.=26.346960, Alt.=145.779419m. Speed=4.536000m/h.</desc>
<speed>1.260000</speed>
</trkpt>
<trkpt lat="55.782196" lon="26.346975">
<ele>145.978638</ele>
<time>2010-07-17T08:52:48Z</time>
<desc>lat.=55.782196, lon.=26.346975, Alt.=145.978638m. Speed=3.780000m/h.</desc>
<speed>1.050000</speed>
</trkpt>
<trkpt lat="55.782196" lon="26.346987">
<ele>145.404419</ele>
<time>2010-07-17T08:52:49Z</time>
<desc>lat.=55.782196, lon.=26.346987, Alt.=145.404419m. Speed=2.880000m/h.</desc>
<speed>0.800000</speed>
</trkpt>
<trkpt lat="55.782200" lon="26.347000">
<ele>145.361450</ele>
<time>2010-07-17T08:52:50Z</time>
<desc>lat.=55.782200, lon.=26.347000, Alt.=145.361450m. Speed=3.132000m/h.</desc>
<speed>0.870000</speed>
</trkpt>
<trkpt lat="55.782207" lon="26.347019">
<ele>145.447388</ele>
<time>2010-07-17T08:52:51Z</time>
<desc>lat.=55.782207, lon.=26.347019, Alt.=145.447388m. Speed=5.652000m/h.</desc>
<speed>1.570000</speed>
</trkpt>
<trkpt lat="55.782227" lon="26.347059">
<ele>145.154419</ele>
<time>2010-07-17T08:52:52Z</time>
<desc>lat.=55.782227, lon.=26.347059, Alt.=145.154419m. Speed=6.696000m/h.</desc>
<speed>1.860000</speed>
</trkpt>
<trkpt lat="55.782242" lon="26.347078">
<ele>145.369263</ele>
<time>2010-07-17T08:52:53Z</time>
<desc>lat.=55.782242, lon.=26.347078, Alt.=145.369263m. Speed=3.924000m/h.</desc>
<speed>1.090000</speed>
</trkpt>
<trkpt lat="55.782253" lon="26.347099">
<ele>145.486450</ele>
<time>2010-07-17T08:52:54Z</time>
<desc>lat.=55.782253, lon.=26.347099, Alt.=145.486450m. Speed=5.292000m/h.</desc>
<speed>1.470000</speed>
</trkpt>
<trkpt lat="55.782257" lon="26.347118">
<ele>145.443481</ele>
<time>2010-07-17T08:52:55Z</time>
<desc>lat.=55.782257, lon.=26.347118, Alt.=145.443481m. Speed=4.032000m/h.</desc>
<speed>1.120000</speed>
</trkpt>
<trkpt lat="55.782257" lon="26.347136">
<ele>145.404419</ele>
<time>2010-07-17T08:52:56Z</time>
<desc>lat.=55.782257, lon.=26.347136, Alt.=145.404419m. Speed=4.248000m/h.</desc>
<speed>1.180000</speed>
</trkpt>
<trkpt lat="55.782257" lon="26.347151">
<ele>145.130981</ele>
<time>2010-07-17T08:52:57Z</time>
<desc>lat.=55.782257, lon.=26.347151, Alt.=145.130981m. Speed=2.592000m/h.</desc>
<speed>0.720000</speed>
</trkpt>
<trkpt lat="55.782253" lon="26.347157">
<ele>145.474731</ele>
<time>2010-07-17T08:52:58Z</time>
<desc>lat.=55.782253, lon.=26.347157, Alt.=145.474731m. Speed=1.656000m/h.</desc>
<speed>0.460000</speed>
</trkpt>
<trkpt lat="55.782249" lon="26.347160">
<ele>145.197388</ele>
<time>2010-07-17T08:52:59Z</time>
<desc>lat.=55.782249, lon.=26.347160, Alt.=145.197388m. Speed=1.332000m/h.</desc>
<speed>0.370000</speed>
</trkpt>
<trkpt lat="55.782246" lon="26.347178">
<ele>145.076294</ele>
<time>2010-07-17T08:53:00Z</time>
<desc>lat.=55.782246, lon.=26.347178, Alt.=145.076294m. Speed=1.872000m/h.</desc>
<speed>0.520000</speed>
</trkpt>
<trkpt lat="55.782246" lon="26.347178">
<ele>145.037231</ele>
<time>2010-07-17T08:53:01Z</time>
<desc>lat.=55.782246, lon.=26.347178, Alt.=145.037231m. Speed=0.972000m/h.</desc>
<speed>0.270000</speed>
</trkpt>
<trkpt lat="55.782249" lon="26.347178">
<ele>145.076294</ele>
<time>2010-07-17T08:53:02Z</time>
<desc>lat.=55.782249, lon.=26.347178, Alt.=145.076294m. Speed=1.044000m/h.</desc>
<speed>0.290000</speed>
</trkpt>
<trkpt lat="55.782253" lon="26.347174">
<ele>145.201294</ele>
<time>2010-07-17T08:53:03Z</time>
<desc>lat.=55.782253, lon.=26.347174, Alt.=145.201294m. Speed=0.504000m/h.</desc>
<speed>0.140000</speed>
</trkpt>
<trkpt lat="55.782253" lon="26.347174">
<ele>145.045044</ele>
<time>2010-07-17T08:53:04Z</time>
<desc>lat.=55.782253, lon.=26.347174, Alt.=145.045044m. Speed=0.324000m/h.</desc>
<speed>0.090000</speed>
</trkpt>
<trkpt lat="55.782257" lon="26.347172">
<ele>145.048950</ele>
<time>2010-07-17T08:53:05Z</time>
<desc>lat.=55.782257, lon.=26.347172, Alt.=145.048950m. Speed=0.252000m/h.</desc>
<speed>0.070000</speed>
</trkpt>
<trkpt lat="55.782257" lon="26.347172">
<ele>145.048950</ele>
<time>2010-07-17T08:53:06Z</time>
<desc>lat.=55.782257, lon.=26.347172, Alt.=145.048950m. Speed=0.252000m/h.</desc>
<speed>0.070000</speed>
</trkpt>
<trkpt lat="55.782257" lon="26.347170">
<ele>145.048950</ele>
<time>2010-07-17T08:53:07Z</time>
<desc>lat.=55.782257, lon.=26.347170, Alt.=145.048950m. Speed=0.144000m/h.</desc>
<speed>0.040000</speed>
</trkpt>
<trkpt lat="55.782257" lon="26.347170">
<ele>145.056763</ele>
<time>2010-07-17T08:53:08Z</time>
<desc>lat.=55.782257, lon.=26.347170, Alt.=145.056763m. Speed=0.144000m/h.</desc>
<speed>0.040000</speed>
</trkpt>
<trkpt lat="55.782257" lon="26.347170">
<ele>145.064575</ele>
<time>2010-07-17T08:53:09Z</time>
<desc>lat.=55.782257, lon.=26.347170, Alt.=145.064575m. Speed=3.420000m/h.</desc>
<speed>0.950000</speed>
</trkpt>
<trkpt lat="55.782261" lon="26.347179">
<ele>145.236450</ele>
<time>2010-07-17T08:53:10Z</time>
<desc>lat.=55.782261, lon.=26.347179, Alt.=145.236450m. Speed=0.108000m/h.</desc>
<speed>0.030000</speed>
</trkpt>
<trkpt lat="55.782261" lon="26.347183">
<ele>145.334106</ele>
<time>2010-07-17T08:53:11Z</time>
<desc>lat.=55.782261, lon.=26.347183, Alt.=145.334106m. Speed=0.144000m/h.</desc>
<speed>0.040000</speed>
</trkpt>
<trkpt lat="55.782265" lon="26.347193">
<ele>144.912231</ele>
<time>2010-07-17T08:53:12Z</time>
<desc>lat.=55.782265, lon.=26.347193, Alt.=144.912231m. Speed=0.684000m/h.</desc>
<speed>0.190000</speed>
</trkpt>
<trkpt lat="55.782261" lon="26.347193">
<ele>144.841919</ele>
<time>2010-07-17T08:53:13Z</time>
<desc>lat.=55.782261, lon.=26.347193, Alt.=144.841919m. Speed=0.216000m/h.</desc>
<speed>0.060000</speed>
</trkpt>
<trkpt lat="55.782261" lon="26.347191">
<ele>144.810669</ele>
<time>2010-07-17T08:53:14Z</time>
<desc>lat.=55.782261, lon.=26.347191, Alt.=144.810669m. Speed=1.512000m/h.</desc>
<speed>0.420000</speed>
</trkpt>
<trkpt lat="55.782261" lon="26.347189">
<ele>144.818481</ele>
<time>2010-07-17T08:53:15Z</time>
<desc>lat.=55.782261, lon.=26.347189, Alt.=144.818481m. Speed=0.828000m/h.</desc>
<speed>0.230000</speed>
</trkpt>
<trkpt lat="55.782257" lon="26.347189">
<ele>144.744263</ele>
<time>2010-07-17T08:53:16Z</time>
<desc>lat.=55.782257, lon.=26.347189, Alt.=144.744263m. Speed=0.396000m/h.</desc>
<speed>0.110000</speed>
</trkpt>
<trkpt lat="55.782257" lon="26.347191">
<ele>144.834106</ele>
<time>2010-07-17T08:53:17Z</time>
<desc>lat.=55.782257, lon.=26.347191, Alt.=144.834106m. Speed=0.144000m/h.</desc>
<speed>0.040000</speed>
</trkpt>
<trkpt lat="55.782257" lon="26.347176">
<ele>144.959106</ele>
<time>2010-07-17T08:53:18Z</time>
<desc>lat.=55.782257, lon.=26.347176, Alt.=144.959106m. Speed=0.432000m/h.</desc>
<speed>0.120000</speed>
</trkpt>
<trkpt lat="55.782257" lon="26.347174">
<ele>144.943481</ele>
<time>2010-07-17T08:53:19Z</time>
<desc>lat.=55.782257, lon.=26.347174, Alt.=144.943481m. Speed=0.360000m/h.</desc>
<speed>0.100000</speed>
</trkpt>
<trkpt lat="55.782257" lon="26.347172">
<ele>144.931763</ele>
<time>2010-07-17T08:53:20Z</time>
<desc>lat.=55.782257, lon.=26.347172, Alt.=144.931763m. Speed=0.324000m/h.</desc>
<speed>0.090000</speed>
</trkpt>
<trkpt lat="55.782257" lon="26.347172">
<ele>144.923950</ele>
<time>2010-07-17T08:53:21Z</time>
<desc>lat.=55.782257, lon.=26.347172, Alt.=144.923950m. Speed=0.288000m/h.</desc>
<speed>0.080000</speed>
</trkpt>
<trkpt lat="55.782257" lon="26.347170">
<ele>144.923950</ele>
<time>2010-07-17T08:53:22Z</time>
<desc>lat.=55.782257, lon.=26.347170, Alt.=144.923950m. Speed=0.180000m/h.</desc>
<speed>0.050000</speed>
</trkpt>
<trkpt lat="55.782257" lon="26.347170">
<ele>144.920044</ele>
<time>2010-07-17T08:53:23Z</time>
<desc>lat.=55.782257, lon.=26.347170, Alt.=144.920044m. Speed=0.108000m/h.</desc>
<speed>0.030000</speed>
</trkpt>
<trkpt lat="55.782257" lon="26.347170">
<ele>144.920044</ele>
<time>2010-07-17T08:53:24Z</time>
<desc>lat.=55.782257, lon.=26.347170, Alt.=144.920044m. Speed=0.504000m/h.</desc>
<speed>0.140000</speed>
</trkpt>
<trkpt lat="55.782257" lon="26.347168">
<ele>144.920044</ele>
<time>2010-07-17T08:53:25Z</time>
<desc>lat.=55.782257, lon.=26.347168, Alt.=144.920044m. Speed=0.504000m/h.</desc>
<speed>0.140000</speed>
</trkpt>
<trkpt lat="55.782257" lon="26.347166">
<ele>144.916138</ele>
<time>2010-07-17T08:53:26Z</time>
<desc>lat.=55.782257, lon.=26.347166, Alt.=144.916138m. Speed=0.504000m/h.</desc>
<speed>0.140000</speed>
</trkpt>
<trkpt lat="55.782257" lon="26.347164">
<ele>144.912231</ele>
<time>2010-07-17T08:53:27Z</time>
<desc>lat.=55.782257, lon.=26.347164, Alt.=144.912231m. Speed=0.144000m/h.</desc>
<speed>0.040000</speed>
</trkpt>
<trkpt lat="55.782257" lon="26.347162">
<ele>144.912231</ele>
<time>2010-07-17T08:53:28Z</time>
<desc>lat.=55.782257, lon.=26.347162, Alt.=144.912231m. Speed=0.288000m/h.</desc>
<speed>0.080000</speed>
</trkpt>
<trkpt lat="55.782257" lon="26.347164">
<ele>144.912231</ele>
<time>2010-07-17T08:53:29Z</time>
<desc>lat.=55.782257, lon.=26.347164, Alt.=144.912231m. Speed=0.144000m/h.</desc>
<speed>0.040000</speed>
</trkpt>
<trkpt lat="55.782257" lon="26.347162">
<ele>144.916138</ele>
<time>2010-07-17T08:53:30Z</time>
<desc>lat.=55.782257, lon.=26.347162, Alt.=144.916138m. Speed=0.216000m/h.</desc>
<speed>0.060000</speed>
</trkpt>
<trkpt lat="55.782257" lon="26.347162">
<ele>144.916138</ele>
<time>2010-07-17T08:53:31Z</time>
<desc>lat.=55.782257, lon.=26.347162, Alt.=144.916138m. Speed=0.216000m/h.</desc>
<speed>0.060000</speed>
</trkpt>
<trkpt lat="55.782257" lon="26.347162">
<ele>144.920044</ele>
<time>2010-07-17T08:53:32Z</time>
<desc>lat.=55.782257, lon.=26.347162, Alt.=144.920044m. Speed=0.324000m/h.</desc>
<speed>0.090000</speed>
</trkpt>
<trkpt lat="55.782253" lon="26.347160">
<ele>144.920044</ele>
<time>2010-07-17T08:53:33Z</time>
<desc>lat.=55.782253, lon.=26.347160, Alt.=144.920044m. Speed=0.108000m/h.</desc>
<speed>0.030000</speed>
</trkpt>
<trkpt lat="55.782253" lon="26.347160">
<ele>144.920044</ele>
<time>2010-07-17T08:53:34Z</time>
<desc>lat.=55.782253, lon.=26.347160, Alt.=144.920044m. Speed=0.216000m/h.</desc>
<speed>0.060000</speed>
</trkpt>
<trkpt lat="55.782253" lon="26.347160">
<ele>144.931763</ele>
<time>2010-07-17T08:53:35Z</time>
<desc>lat.=55.782253, lon.=26.347160, Alt.=144.931763m. Speed=0.432000m/h.</desc>
<speed>0.120000</speed>
</trkpt>
<trkpt lat="55.782257" lon="26.347160">
<ele>144.939575</ele>
<time>2010-07-17T08:53:36Z</time>
<desc>lat.=55.782257, lon.=26.347160, Alt.=144.939575m. Speed=0.252000m/h.</desc>
<speed>0.070000</speed>
</trkpt>
<trkpt lat="55.782257" lon="26.347162">
<ele>144.951294</ele>
<time>2010-07-17T08:53:37Z</time>
<desc>lat.=55.782257, lon.=26.347162, Alt.=144.951294m. Speed=0.108000m/h.</desc>
<speed>0.030000</speed>
</trkpt>
<trkpt lat="55.782257" lon="26.347162">
<ele>144.963013</ele>
<time>2010-07-17T08:53:38Z</time>
<desc>lat.=55.782257, lon.=26.347162, Alt.=144.963013m. Speed=0.216000m/h.</desc>
<speed>0.060000</speed>
</trkpt>
<trkpt lat="55.782257" lon="26.347160">
<ele>144.970825</ele>
<time>2010-07-17T08:53:39Z</time>
<desc>lat.=55.782257, lon.=26.347160, Alt.=144.970825m. Speed=0.360000m/h.</desc>
<speed>0.100000</speed>
</trkpt>
<trkpt lat="55.782257" lon="26.347158">
<ele>144.982544</ele>
<time>2010-07-17T08:53:40Z</time>
<desc>lat.=55.782257, lon.=26.347158, Alt.=144.982544m. Speed=0.324000m/h.</desc>
<speed>0.090000</speed>
</trkpt>
<trkpt lat="55.782257" lon="26.347158">
<ele>144.994263</ele>
<time>2010-07-17T08:53:41Z</time>
<desc>lat.=55.782257, lon.=26.347158, Alt.=144.994263m. Speed=0.324000m/h.</desc>
<speed>0.090000</speed>
</trkpt>
<trkpt lat="55.782257" lon="26.347157">
<ele>145.002075</ele>
<time>2010-07-17T08:53:42Z</time>
<desc>lat.=55.782257, lon.=26.347157, Alt.=145.002075m. Speed=0.360000m/h.</desc>
<speed>0.100000</speed>
</trkpt>
<trkpt lat="55.782257" lon="26.347155">
<ele>145.017700</ele>
<time>2010-07-17T08:53:43Z</time>
<desc>lat.=55.782257, lon.=26.347155, Alt.=145.017700m. Speed=0.252000m/h.</desc>
<speed>0.070000</speed>
</trkpt>
<trkpt lat="55.782257" lon="26.347153">
<ele>145.029419</ele>
<time>2010-07-17T08:53:44Z</time>
<desc>lat.=55.782257, lon.=26.347153, Alt.=145.029419m. Speed=0.288000m/h.</desc>
<speed>0.080000</speed>
</trkpt>
<trkpt lat="55.782257" lon="26.347153">
<ele>145.033325</ele>
<time>2010-07-17T08:53:45Z</time>
<desc>lat.=55.782257, lon.=26.347153, Alt.=145.033325m. Speed=0.144000m/h.</desc>
<speed>0.040000</speed>
</trkpt>
<trkpt lat="55.782261" lon="26.347153">
<ele>145.041138</ele>
<time>2010-07-17T08:53:46Z</time>
<desc>lat.=55.782261, lon.=26.347153, Alt.=145.041138m. Speed=0.324000m/h.</desc>
<speed>0.090000</speed>
</trkpt>
<trkpt lat="55.782261" lon="26.347151">
<ele>145.048950</ele>
<time>2010-07-17T08:53:47Z</time>
<desc>lat.=55.782261, lon.=26.347151, Alt.=145.048950m. Speed=0.216000m/h.</desc>
<speed>0.060000</speed>
</trkpt>
<trkpt lat="55.782261" lon="26.347149">
<ele>145.060669</ele>
<time>2010-07-17T08:53:48Z</time>
<desc>lat.=55.782261, lon.=26.347149, Alt.=145.060669m. Speed=0.504000m/h.</desc>
<speed>0.140000</speed>
</trkpt>
<trkpt lat="55.782261" lon="26.347147">
<ele>145.072388</ele>
<time>2010-07-17T08:53:49Z</time>
<desc>lat.=55.782261, lon.=26.347147, Alt.=145.072388m. Speed=0.612000m/h.</desc>
<speed>0.170000</speed>
</trkpt>
<trkpt lat="55.782261" lon="26.347145">
<ele>145.084106</ele>
<time>2010-07-17T08:53:50Z</time>
<desc>lat.=55.782261, lon.=26.347145, Alt.=145.084106m. Speed=0.720000m/h.</desc>
<speed>0.200000</speed>
</trkpt>
<trkpt lat="55.782261" lon="26.347141">
<ele>145.091919</ele>
<time>2010-07-17T08:53:51Z</time>
<desc>lat.=55.782261, lon.=26.347141, Alt.=145.091919m. Speed=0.900000m/h.</desc>
<speed>0.250000</speed>
</trkpt>
<trkpt lat="55.782265" lon="26.347137">
<ele>145.095825</ele>
<time>2010-07-17T08:53:52Z</time>
<desc>lat.=55.782265, lon.=26.347137, Alt.=145.095825m. Speed=1.080000m/h.</desc>
<speed>0.300000</speed>
</trkpt>
<trkpt lat="55.782272" lon="26.347149">
<ele>144.810669</ele>
<time>2010-07-17T08:53:53Z</time>
<desc>lat.=55.782272, lon.=26.347149, Alt.=144.810669m. Speed=0.540000m/h.</desc>
<speed>0.150000</speed>
</trkpt>
<trkpt lat="55.782276" lon="26.347149">
<ele>144.463013</ele>
<time>2010-07-17T08:53:54Z</time>
<desc>lat.=55.782276, lon.=26.347149, Alt.=144.463013m. Speed=0.504000m/h.</desc>
<speed>0.140000</speed>
</trkpt>
<trkpt lat="55.782280" lon="26.347153">
<ele>144.213013</ele>
<time>2010-07-17T08:53:55Z</time>
<desc>lat.=55.782280, lon.=26.347153, Alt.=144.213013m. Speed=0.468000m/h.</desc>
<speed>0.130000</speed>
</trkpt>
<trkpt lat="55.782284" lon="26.347158">
<ele>143.841919</ele>
<time>2010-07-17T08:53:56Z</time>
<desc>lat.=55.782284, lon.=26.347158, Alt.=143.841919m. Speed=0.180000m/h.</desc>
<speed>0.050000</speed>
</trkpt>
<trkpt lat="55.782284" lon="26.347158">
<ele>143.838013</ele>
<time>2010-07-17T08:53:57Z</time>
<desc>lat.=55.782284, lon.=26.347158, Alt.=143.838013m. Speed=0.216000m/h.</desc>
<speed>0.060000</speed>
</trkpt>
<trkpt lat="55.782284" lon="26.347158">
<ele>143.834106</ele>
<time>2010-07-17T08:53:58Z</time>
<desc>lat.=55.782284, lon.=26.347158, Alt.=143.834106m. Speed=0.324000m/h.</desc>
<speed>0.090000</speed>
</trkpt>
<trkpt lat="55.782284" lon="26.347157">
<ele>143.830200</ele>
<time>2010-07-17T08:53:59Z</time>
<desc>lat.=55.782284, lon.=26.347157, Alt.=143.830200m. Speed=0.360000m/h.</desc>
<speed>0.100000</speed>
</trkpt>
<trkpt lat="55.782284" lon="26.347157">
<ele>143.830200</ele>
<time>2010-07-17T08:54:00Z</time>
<desc>lat.=55.782284, lon.=26.347157, Alt.=143.830200m. Speed=0.144000m/h.</desc>
<speed>0.040000</speed>
</trkpt>
<trkpt lat="55.782284" lon="26.347157">
<ele>143.830200</ele>
<time>2010-07-17T08:54:01Z</time>
<desc>lat.=55.782284, lon.=26.347157, Alt.=143.830200m. Speed=0.576000m/h.</desc>
<speed>0.160000</speed>
</trkpt>
<trkpt lat="55.782284" lon="26.347155">
<ele>143.830200</ele>
<time>2010-07-17T08:54:02Z</time>
<desc>lat.=55.782284, lon.=26.347155, Alt.=143.830200m. Speed=0.360000m/h.</desc>
<speed>0.100000</speed>
</trkpt>
<trkpt lat="55.782284" lon="26.347153">
<ele>143.826294</ele>
<time>2010-07-17T08:54:03Z</time>
<desc>lat.=55.782284, lon.=26.347153, Alt.=143.826294m. Speed=0.108000m/h.</desc>
<speed>0.030000</speed>
</trkpt>
<trkpt lat="55.782284" lon="26.347153">
<ele>143.822388</ele>
<time>2010-07-17T08:54:04Z</time>
<desc>lat.=55.782284, lon.=26.347153, Alt.=143.822388m. Speed=0.180000m/h.</desc>
<speed>0.050000</speed>
</trkpt>
<trkpt lat="55.782284" lon="26.347153">
<ele>143.818481</ele>
<time>2010-07-17T08:54:05Z</time>
<desc>lat.=55.782284, lon.=26.347153, Alt.=143.818481m. Speed=0.432000m/h.</desc>
<speed>0.120000</speed>
</trkpt>
<trkpt lat="55.782288" lon="26.347153">
<ele>143.814575</ele>
<time>2010-07-17T08:54:06Z</time>
<desc>lat.=55.782288, lon.=26.347153, Alt.=143.814575m. Speed=0.324000m/h.</desc>
<speed>0.090000</speed>
</trkpt>
<trkpt lat="55.782288" lon="26.347153">
<ele>143.810669</ele>
<time>2010-07-17T08:54:07Z</time>
<desc>lat.=55.782288, lon.=26.347153, Alt.=143.810669m. Speed=0.288000m/h.</desc>
<speed>0.080000</speed>
</trkpt>
<trkpt lat="55.782288" lon="26.347153">
<ele>143.810669</ele>
<time>2010-07-17T08:54:08Z</time>
<desc>lat.=55.782288, lon.=26.347153, Alt.=143.810669m. Speed=0.288000m/h.</desc>
<speed>0.080000</speed>
</trkpt>
<trkpt lat="55.782288" lon="26.347153">
<ele>143.806763</ele>
<time>2010-07-17T08:54:09Z</time>
<desc>lat.=55.782288, lon.=26.347153, Alt.=143.806763m. Speed=0.396000m/h.</desc>
<speed>0.110000</speed>
</trkpt>
<trkpt lat="55.782291" lon="26.347153">
<ele>143.810669</ele>
<time>2010-07-17T08:54:10Z</time>
<desc>lat.=55.782291, lon.=26.347153, Alt.=143.810669m. Speed=0.360000m/h.</desc>
<speed>0.100000</speed>
</trkpt>
<trkpt lat="55.782291" lon="26.347155">
<ele>143.814575</ele>
<time>2010-07-17T08:54:11Z</time>
<desc>lat.=55.782291, lon.=26.347155, Alt.=143.814575m. Speed=0.468000m/h.</desc>
<speed>0.130000</speed>
</trkpt>
<trkpt lat="55.782291" lon="26.347155">
<ele>143.814575</ele>
<time>2010-07-17T08:54:12Z</time>
<desc>lat.=55.782291, lon.=26.347155, Alt.=143.814575m. Speed=0.432000m/h.</desc>
<speed>0.120000</speed>
</trkpt>
<trkpt lat="55.782291" lon="26.347157">
<ele>143.814575</ele>
<time>2010-07-17T08:54:13Z</time>
<desc>lat.=55.782291, lon.=26.347157, Alt.=143.814575m. Speed=0.144000m/h.</desc>
<speed>0.040000</speed>
</trkpt>
<trkpt lat="55.782291" lon="26.347158">
<ele>143.814575</ele>
<time>2010-07-17T08:54:14Z</time>
<desc>lat.=55.782291, lon.=26.347158, Alt.=143.814575m. Speed=0.216000m/h.</desc>
<speed>0.060000</speed>
</trkpt>
<trkpt lat="55.782291" lon="26.347158">
<ele>143.814575</ele>
<time>2010-07-17T08:54:15Z</time>
<desc>lat.=55.782291, lon.=26.347158, Alt.=143.814575m. Speed=0.288000m/h.</desc>
<speed>0.080000</speed>
</trkpt>
<trkpt lat="55.782291" lon="26.347160">
<ele>143.810669</ele>
<time>2010-07-17T08:54:16Z</time>
<desc>lat.=55.782291, lon.=26.347160, Alt.=143.810669m. Speed=0.288000m/h.</desc>
<speed>0.080000</speed>
</trkpt>
<trkpt lat="55.782291" lon="26.347158">
<ele>143.806763</ele>
<time>2010-07-17T08:54:17Z</time>
<desc>lat.=55.782291, lon.=26.347158, Alt.=143.806763m. Speed=0.324000m/h.</desc>
<speed>0.090000</speed>
</trkpt>
<trkpt lat="55.782291" lon="26.347157">
<ele>143.802856</ele>
<time>2010-07-17T08:54:18Z</time>
<desc>lat.=55.782291, lon.=26.347157, Alt.=143.802856m. Speed=0.540000m/h.</desc>
<speed>0.150000</speed>
</trkpt>
<trkpt lat="55.782291" lon="26.347155">
<ele>143.791138</ele>
<time>2010-07-17T08:54:19Z</time>
<desc>lat.=55.782291, lon.=26.347155, Alt.=143.791138m. Speed=0.396000m/h.</desc>
<speed>0.110000</speed>
</trkpt>
<trkpt lat="55.782291" lon="26.347153">
<ele>143.771606</ele>
<time>2010-07-17T08:54:20Z</time>
<desc>lat.=55.782291, lon.=26.347153, Alt.=143.771606m. Speed=0.504000m/h.</desc>
<speed>0.140000</speed>
</trkpt>
<trkpt lat="55.782291" lon="26.347151">
<ele>143.759888</ele>
<time>2010-07-17T08:54:21Z</time>
<desc>lat.=55.782291, lon.=26.347151, Alt.=143.759888m. Speed=0.216000m/h.</desc>
<speed>0.060000</speed>
</trkpt>
<trkpt lat="55.782291" lon="26.347149">
<ele>143.744263</ele>
<time>2010-07-17T08:54:22Z</time>
<desc>lat.=55.782291, lon.=26.347149, Alt.=143.744263m. Speed=0.216000m/h.</desc>
<speed>0.060000</speed>
</trkpt>
<trkpt lat="55.782291" lon="26.347147">
<ele>143.724731</ele>
<time>2010-07-17T08:54:23Z</time>
<desc>lat.=55.782291, lon.=26.347147, Alt.=143.724731m. Speed=0.252000m/h.</desc>
<speed>0.070000</speed>
</trkpt>
<trkpt lat="55.782291" lon="26.347147">
<ele>143.701294</ele>
<time>2010-07-17T08:54:24Z</time>
<desc>lat.=55.782291, lon.=26.347147, Alt.=143.701294m. Speed=0.432000m/h.</desc>
<speed>0.120000</speed>
</trkpt>
<trkpt lat="55.782291" lon="26.347145">
<ele>143.677856</ele>
<time>2010-07-17T08:54:25Z</time>
<desc>lat.=55.782291, lon.=26.347145, Alt.=143.677856m. Speed=0.468000m/h.</desc>
<speed>0.130000</speed>
</trkpt>
<trkpt lat="55.782291" lon="26.347143">
<ele>143.654419</ele>
<time>2010-07-17T08:54:26Z</time>
<desc>lat.=55.782291, lon.=26.347143, Alt.=143.654419m. Speed=0.180000m/h.</desc>
<speed>0.050000</speed>
</trkpt>
<trkpt lat="55.782288" lon="26.347143">
<ele>143.630981</ele>
<time>2010-07-17T08:54:27Z</time>
<desc>lat.=55.782288, lon.=26.347143, Alt.=143.630981m. Speed=0.144000m/h.</desc>
<speed>0.040000</speed>
</trkpt>
<trkpt lat="55.782288" lon="26.347143">
<ele>143.607544</ele>
<time>2010-07-17T08:54:28Z</time>
<desc>lat.=55.782288, lon.=26.347143, Alt.=143.607544m. Speed=0.216000m/h.</desc>
<speed>0.060000</speed>
</trkpt>
<trkpt lat="55.782288" lon="26.347143">
<ele>143.588013</ele>
<time>2010-07-17T08:54:29Z</time>
<desc>lat.=55.782288, lon.=26.347143, Alt.=143.588013m. Speed=0.180000m/h.</desc>
<speed>0.050000</speed>
</trkpt>
<trkpt lat="55.782288" lon="26.347143">
<ele>143.568481</ele>
<time>2010-07-17T08:54:30Z</time>
<desc>lat.=55.782288, lon.=26.347143, Alt.=143.568481m. Speed=0.288000m/h.</desc>
<speed>0.080000</speed>
</trkpt>
<trkpt lat="55.782288" lon="26.347145">
<ele>143.552856</ele>
<time>2010-07-17T08:54:31Z</time>
<desc>lat.=55.782288, lon.=26.347145, Alt.=143.552856m. Speed=0.144000m/h.</desc>
<speed>0.040000</speed>
</trkpt>
<trkpt lat="55.782291" lon="26.347145">
<ele>143.537231</ele>
<time>2010-07-17T08:54:32Z</time>
<desc>lat.=55.782291, lon.=26.347145, Alt.=143.537231m. Speed=0.432000m/h.</desc>
<speed>0.120000</speed>
</trkpt>
<trkpt lat="55.782288" lon="26.347143">
<ele>143.521606</ele>
<time>2010-07-17T08:54:33Z</time>
<desc>lat.=55.782288, lon.=26.347143, Alt.=143.521606m. Speed=0.396000m/h.</desc>
<speed>0.110000</speed>
</trkpt>
<trkpt lat="55.782288" lon="26.347141">
<ele>143.509888</ele>
<time>2010-07-17T08:54:34Z</time>
<desc>lat.=55.782288, lon.=26.347141, Alt.=143.509888m. Speed=0.288000m/h.</desc>
<speed>0.080000</speed>
</trkpt>
<trkpt lat="55.782288" lon="26.347139">
<ele>143.502075</ele>
<time>2010-07-17T08:54:35Z</time>
<desc>lat.=55.782288, lon.=26.347139, Alt.=143.502075m. Speed=0.720000m/h.</desc>
<speed>0.200000</speed>
</trkpt>
<trkpt lat="55.782288" lon="26.347137">
<ele>143.490356</ele>
<time>2010-07-17T08:54:36Z</time>
<desc>lat.=55.782288, lon.=26.347137, Alt.=143.490356m. Speed=0.540000m/h.</desc>
<speed>0.150000</speed>
</trkpt>
<trkpt lat="55.782288" lon="26.347134">
<ele>143.486450</ele>
<time>2010-07-17T08:54:37Z</time>
<desc>lat.=55.782288, lon.=26.347134, Alt.=143.486450m. Speed=0.396000m/h.</desc>
<speed>0.110000</speed>
</trkpt>
<trkpt lat="55.782288" lon="26.347134">
<ele>143.482544</ele>
<time>2010-07-17T08:54:38Z</time>
<desc>lat.=55.782288, lon.=26.347134, Alt.=143.482544m. Speed=0.180000m/h.</desc>
<speed>0.050000</speed>
</trkpt>
<trkpt lat="55.782288" lon="26.347132">
<ele>143.482544</ele>
<time>2010-07-17T08:54:39Z</time>
<desc>lat.=55.782288, lon.=26.347132, Alt.=143.482544m. Speed=0.108000m/h.</desc>
<speed>0.030000</speed>
</trkpt>
<trkpt lat="55.782288" lon="26.347132">
<ele>143.482544</ele>
<time>2010-07-17T08:54:40Z</time>
<desc>lat.=55.782288, lon.=26.347132, Alt.=143.482544m. Speed=0.108000m/h.</desc>
<speed>0.030000</speed>
</trkpt>
<trkpt lat="55.782288" lon="26.347132">
<ele>143.486450</ele>
<time>2010-07-17T08:54:41Z</time>
<desc>lat.=55.782288, lon.=26.347132, Alt.=143.486450m. Speed=0.252000m/h.</desc>
<speed>0.070000</speed>
</trkpt>
<trkpt lat="55.782288" lon="26.347132">
<ele>143.482544</ele>
<time>2010-07-17T08:54:42Z</time>
<desc>lat.=55.782288, lon.=26.347132, Alt.=143.482544m. Speed=0.252000m/h.</desc>
<speed>0.070000</speed>
</trkpt>
<trkpt lat="55.782288" lon="26.347132">
<ele>143.478638</ele>
<time>2010-07-17T08:54:43Z</time>
<desc>lat.=55.782288, lon.=26.347132, Alt.=143.478638m. Speed=0.216000m/h.</desc>
<speed>0.060000</speed>
</trkpt>
<trkpt lat="55.782288" lon="26.347134">
<ele>143.482544</ele>
<time>2010-07-17T08:54:44Z</time>
<desc>lat.=55.782288, lon.=26.347134, Alt.=143.482544m. Speed=0.072000m/h.</desc>
<speed>0.020000</speed>
</trkpt>
<trkpt lat="55.782288" lon="26.347134">
<ele>143.486450</ele>
<time>2010-07-17T08:54:45Z</time>
<desc>lat.=55.782288, lon.=26.347134, Alt.=143.486450m. Speed=0.108000m/h.</desc>
<speed>0.030000</speed>
</trkpt>
<trkpt lat="55.782288" lon="26.347132">
<ele>143.502075</ele>
<time>2010-07-17T08:54:46Z</time>
<desc>lat.=55.782288, lon.=26.347132, Alt.=143.502075m. Speed=0.108000m/h.</desc>
<speed>0.030000</speed>
</trkpt>
<trkpt lat="55.782288" lon="26.347134">
<ele>143.513794</ele>
<time>2010-07-17T08:54:47Z</time>
<desc>lat.=55.782288, lon.=26.347134, Alt.=143.513794m. Speed=0.072000m/h.</desc>
<speed>0.020000</speed>
</trkpt>
<trkpt lat="55.782288" lon="26.347134">
<ele>143.525513</ele>
<time>2010-07-17T08:54:48Z</time>
<desc>lat.=55.782288, lon.=26.347134, Alt.=143.525513m. Speed=0.036000m/h.</desc>
<speed>0.010000</speed>
</trkpt>
<trkpt lat="55.782288" lon="26.347134">
<ele>143.537231</ele>
<time>2010-07-17T08:54:49Z</time>
<desc>lat.=55.782288, lon.=26.347134, Alt.=143.537231m. Speed=0.216000m/h.</desc>
<speed>0.060000</speed>
</trkpt>
<trkpt lat="55.782288" lon="26.347136">
<ele>143.545044</ele>
<time>2010-07-17T08:54:50Z</time>
<desc>lat.=55.782288, lon.=26.347136, Alt.=143.545044m. Speed=0.504000m/h.</desc>
<speed>0.140000</speed>
</trkpt>
<trkpt lat="55.782288" lon="26.347137">
<ele>143.556763</ele>
<time>2010-07-17T08:54:51Z</time>
<desc>lat.=55.782288, lon.=26.347137, Alt.=143.556763m. Speed=0.360000m/h.</desc>
<speed>0.100000</speed>
</trkpt>
<trkpt lat="55.782288" lon="26.347139">
<ele>143.564575</ele>
<time>2010-07-17T08:54:52Z</time>
<desc>lat.=55.782288, lon.=26.347139, Alt.=143.564575m. Speed=0.396000m/h.</desc>
<speed>0.110000</speed>
</trkpt>
<trkpt lat="55.782288" lon="26.347139">
<ele>143.576294</ele>
<time>2010-07-17T08:54:53Z</time>
<desc>lat.=55.782288, lon.=26.347139, Alt.=143.576294m. Speed=0.216000m/h.</desc>
<speed>0.060000</speed>
</trkpt>
<trkpt lat="55.782291" lon="26.347141">
<ele>143.588013</ele>
<time>2010-07-17T08:54:54Z</time>
<desc>lat.=55.782291, lon.=26.347141, Alt.=143.588013m. Speed=0.360000m/h.</desc>
<speed>0.100000</speed>
</trkpt>
<trkpt lat="55.782291" lon="26.347143">
<ele>143.599731</ele>
<time>2010-07-17T08:54:55Z</time>
<desc>lat.=55.782291, lon.=26.347143, Alt.=143.599731m. Speed=0.144000m/h.</desc>
<speed>0.040000</speed>
</trkpt>
<trkpt lat="55.782291" lon="26.347141">
<ele>143.607544</ele>
<time>2010-07-17T08:54:56Z</time>
<desc>lat.=55.782291, lon.=26.347141, Alt.=143.607544m. Speed=0.612000m/h.</desc>
<speed>0.170000</speed>
</trkpt>
<trkpt lat="55.782291" lon="26.347139">
<ele>143.623169</ele>
<time>2010-07-17T08:54:57Z</time>
<desc>lat.=55.782291, lon.=26.347139, Alt.=143.623169m. Speed=0.216000m/h.</desc>
<speed>0.060000</speed>
</trkpt>
<trkpt lat="55.782288" lon="26.347137">
<ele>143.642700</ele>
<time>2010-07-17T08:54:58Z</time>
<desc>lat.=55.782288, lon.=26.347137, Alt.=143.642700m. Speed=0.036000m/h.</desc>
<speed>0.010000</speed>
</trkpt>
<trkpt lat="55.782288" lon="26.347137">
<ele>143.670044</ele>
<time>2010-07-17T08:54:59Z</time>
<desc>lat.=55.782288, lon.=26.347137, Alt.=143.670044m. Speed=0.072000m/h.</desc>
<speed>0.020000</speed>
</trkpt>
<trkpt lat="55.782291" lon="26.347137">
<ele>143.681763</ele>
<time>2010-07-17T08:55:00Z</time>
<desc>lat.=55.782291, lon.=26.347137, Alt.=143.681763m. Speed=0.108000m/h.</desc>
<speed>0.030000</speed>
</trkpt>
<trkpt lat="55.782291" lon="26.347137">
<ele>143.689575</ele>
<time>2010-07-17T08:55:01Z</time>
<desc>lat.=55.782291, lon.=26.347137, Alt.=143.689575m. Speed=0.036000m/h.</desc>
<speed>0.010000</speed>
</trkpt>
<trkpt lat="55.782291" lon="26.347137">
<ele>143.701294</ele>
<time>2010-07-17T08:55:02Z</time>
<desc>lat.=55.782291, lon.=26.347137, Alt.=143.701294m. Speed=0.072000m/h.</desc>
<speed>0.020000</speed>
</trkpt>
<trkpt lat="55.782291" lon="26.347139">
<ele>143.713013</ele>
<time>2010-07-17T08:55:03Z</time>
<desc>lat.=55.782291, lon.=26.347139, Alt.=143.713013m. Speed=0.108000m/h.</desc>
<speed>0.030000</speed>
</trkpt>
<trkpt lat="55.782291" lon="26.347139">
<ele>143.728638</ele>
<time>2010-07-17T08:55:04Z</time>
<desc>lat.=55.782291, lon.=26.347139, Alt.=143.728638m. Speed=0.036000m/h.</desc>
<speed>0.010000</speed>
</trkpt>
<trkpt lat="55.782291" lon="26.347139">
<ele>143.748169</ele>
<time>2010-07-17T08:55:05Z</time>
<desc>lat.=55.782291, lon.=26.347139, Alt.=143.748169m. Speed=0.000000m/h.</desc>
<speed>0.000000</speed>
</trkpt>
<trkpt lat="55.782291" lon="26.347139">
<ele>143.759888</ele>
<time>2010-07-17T08:55:06Z</time>
<desc>lat.=55.782291, lon.=26.347139, Alt.=143.759888m. Speed=0.036000m/h.</desc>
<speed>0.010000</speed>
</trkpt>
<trkpt lat="55.782291" lon="26.347139">
<ele>143.763794</ele>
<time>2010-07-17T08:55:07Z</time>
<desc>lat.=55.782291, lon.=26.347139, Alt.=143.763794m. Speed=0.036000m/h.</desc>
<speed>0.010000</speed>
</trkpt>
<trkpt lat="55.782291" lon="26.347139">
<ele>143.775513</ele>
<time>2010-07-17T08:55:08Z</time>
<desc>lat.=55.782291, lon.=26.347139, Alt.=143.775513m. Speed=0.000000m/h.</desc>
<speed>0.000000</speed>
</trkpt>
<trkpt lat="55.782291" lon="26.347139">
<ele>143.783325</ele>
<time>2010-07-17T08:55:09Z</time>
<desc>lat.=55.782291, lon.=26.347139, Alt.=143.783325m. Speed=0.036000m/h.</desc>
<speed>0.010000</speed>
</trkpt>
<trkpt lat="55.782291" lon="26.347139">
<ele>143.798950</ele>
<time>2010-07-17T08:55:10Z</time>
<desc>lat.=55.782291, lon.=26.347139, Alt.=143.798950m. Speed=0.072000m/h.</desc>
<speed>0.020000</speed>
</trkpt>
<trkpt lat="55.782291" lon="26.347139">
<ele>143.810669</ele>
<time>2010-07-17T08:55:11Z</time>
<desc>lat.=55.782291, lon.=26.347139, Alt.=143.810669m. Speed=0.108000m/h.</desc>
<speed>0.030000</speed>
</trkpt>
<trkpt lat="55.782291" lon="26.347139">
<ele>143.814575</ele>
<time>2010-07-17T08:55:12Z</time>
<desc>lat.=55.782291, lon.=26.347139, Alt.=143.814575m. Speed=0.072000m/h.</desc>
<speed>0.020000</speed>
</trkpt>
<trkpt lat="55.782291" lon="26.347139">
<ele>143.826294</ele>
<time>2010-07-17T08:55:13Z</time>
<desc>lat.=55.782291, lon.=26.347139, Alt.=143.826294m. Speed=0.108000m/h.</desc>
<speed>0.030000</speed>
</trkpt>
<trkpt lat="55.782291" lon="26.347139">
<ele>143.838013</ele>
<time>2010-07-17T08:55:14Z</time>
<desc>lat.=55.782291, lon.=26.347139, Alt.=143.838013m. Speed=0.108000m/h.</desc>
<speed>0.030000</speed>
</trkpt>
<trkpt lat="55.782291" lon="26.347139">
<ele>143.849731</ele>
<time>2010-07-17T08:55:15Z</time>
<desc>lat.=55.782291, lon.=26.347139, Alt.=143.849731m. Speed=0.180000m/h.</desc>
<speed>0.050000</speed>
</trkpt>
<trkpt lat="55.782291" lon="26.347139">
<ele>143.869263</ele>
<time>2010-07-17T08:55:16Z</time>
<desc>lat.=55.782291, lon.=26.347139, Alt.=143.869263m. Speed=0.108000m/h.</desc>
<speed>0.030000</speed>
</trkpt>
<trkpt lat="55.782291" lon="26.347139">
<ele>143.869263</ele>
<time>2010-07-17T08:55:17Z</time>
<desc>lat.=55.782291, lon.=26.347139, Alt.=143.869263m. Speed=0.072000m/h.</desc>
<speed>0.020000</speed>
</trkpt>
<trkpt lat="55.782291" lon="26.347139">
<ele>143.873169</ele>
<time>2010-07-17T08:55:18Z</time>
<desc>lat.=55.782291, lon.=26.347139, Alt.=143.873169m. Speed=0.072000m/h.</desc>
<speed>0.020000</speed>
</trkpt>
<trkpt lat="55.782291" lon="26.347139">
<ele>143.877075</ele>
<time>2010-07-17T08:55:19Z</time>
<desc>lat.=55.782291, lon.=26.347139, Alt.=143.877075m. Speed=0.072000m/h.</desc>
<speed>0.020000</speed>
</trkpt>
<trkpt lat="55.782291" lon="26.347139">
<ele>143.880981</ele>
<time>2010-07-17T08:55:20Z</time>
<desc>lat.=55.782291, lon.=26.347139, Alt.=143.880981m. Speed=0.036000m/h.</desc>
<speed>0.010000</speed>
</trkpt>
<trkpt lat="55.782291" lon="26.347139">
<ele>143.884888</ele>
<time>2010-07-17T08:55:21Z</time>
<desc>lat.=55.782291, lon.=26.347139, Alt.=143.884888m. Speed=0.072000m/h.</desc>
<speed>0.020000</speed>
</trkpt>
<trkpt lat="55.782291" lon="26.347139">
<ele>143.888794</ele>
<time>2010-07-17T08:55:22Z</time>
<desc>lat.=55.782291, lon.=26.347139, Alt.=143.888794m. Speed=0.072000m/h.</desc>
<speed>0.020000</speed>
</trkpt>
<trkpt lat="55.782291" lon="26.347139">
<ele>143.888794</ele>
<time>2010-07-17T08:55:23Z</time>
<desc>lat.=55.782291, lon.=26.347139, Alt.=143.888794m. Speed=0.000000m/h.</desc>
<speed>0.000000</speed>
</trkpt>
<trkpt lat="55.782291" lon="26.347139">
<ele>143.880981</ele>
<time>2010-07-17T08:55:24Z</time>
<desc>lat.=55.782291, lon.=26.347139, Alt.=143.880981m. Speed=0.072000m/h.</desc>
<speed>0.020000</speed>
</trkpt>
<trkpt lat="55.782291" lon="26.347139">
<ele>143.873169</ele>
<time>2010-07-17T08:55:25Z</time>
<desc>lat.=55.782291, lon.=26.347139, Alt.=143.873169m. Speed=0.072000m/h.</desc>
<speed>0.020000</speed>
</trkpt>
<trkpt lat="55.782291" lon="26.347139">
<ele>143.861450</ele>
<time>2010-07-17T08:55:26Z</time>
<desc>lat.=55.782291, lon.=26.347139, Alt.=143.861450m. Speed=0.072000m/h.</desc>
<speed>0.020000</speed>
</trkpt>
<trkpt lat="55.782291" lon="26.347139">
<ele>143.853638</ele>
<time>2010-07-17T08:55:27Z</time>
<desc>lat.=55.782291, lon.=26.347139, Alt.=143.853638m. Speed=0.072000m/h.</desc>
<speed>0.020000</speed>
</trkpt>
<trkpt lat="55.782291" lon="26.347139">
<ele>143.845825</ele>
<time>2010-07-17T08:55:28Z</time>
<desc>lat.=55.782291, lon.=26.347139, Alt.=143.845825m. Speed=0.072000m/h.</desc>
<speed>0.020000</speed>
</trkpt>
<trkpt lat="55.782291" lon="26.347139">
<ele>143.834106</ele>
<time>2010-07-17T08:55:29Z</time>
<desc>lat.=55.782291, lon.=26.347139, Alt.=143.834106m. Speed=0.072000m/h.</desc>
<speed>0.020000</speed>
</trkpt>
<trkpt lat="55.782291" lon="26.347139">
<ele>143.822388</ele>
<time>2010-07-17T08:55:30Z</time>
<desc>lat.=55.782291, lon.=26.347139, Alt.=143.822388m. Speed=0.036000m/h.</desc>
<speed>0.010000</speed>
</trkpt>
<trkpt lat="55.782291" lon="26.347139">
<ele>143.814575</ele>
<time>2010-07-17T08:55:31Z</time>
<desc>lat.=55.782291, lon.=26.347139, Alt.=143.814575m. Speed=0.108000m/h.</desc>
<speed>0.030000</speed>
</trkpt>
<trkpt lat="55.782291" lon="26.347139">
<ele>143.806763</ele>
<time>2010-07-17T08:55:32Z</time>
<desc>lat.=55.782291, lon.=26.347139, Alt.=143.806763m. Speed=0.072000m/h.</desc>
<speed>0.020000</speed>
</trkpt>
<trkpt lat="55.782291" lon="26.347139">
<ele>143.806763</ele>
<time>2010-07-17T08:55:33Z</time>
<desc>lat.=55.782291, lon.=26.347139, Alt.=143.806763m. Speed=0.000000m/h.</desc>
<speed>0.000000</speed>
</trkpt>
<trkpt lat="55.782291" lon="26.347139">
<ele>143.798950</ele>
<time>2010-07-17T08:55:34Z</time>
<desc>lat.=55.782291, lon.=26.347139, Alt.=143.798950m. Speed=0.000000m/h.</desc>
<speed>0.000000</speed>
</trkpt>
<trkpt lat="55.782291" lon="26.347139">
<ele>143.791138</ele>
<time>2010-07-17T08:55:35Z</time>
<desc>lat.=55.782291, lon.=26.347139, Alt.=143.791138m. Speed=0.108000m/h.</desc>
<speed>0.030000</speed>
</trkpt>
<trkpt lat="55.782291" lon="26.347139">
<ele>143.783325</ele>
<time>2010-07-17T08:55:36Z</time>
<desc>lat.=55.782291, lon.=26.347139, Alt.=143.783325m. Speed=0.108000m/h.</desc>
<speed>0.030000</speed>
</trkpt>
<trkpt lat="55.782291" lon="26.347139">
<ele>143.771606</ele>
<time>2010-07-17T08:55:37Z</time>
<desc>lat.=55.782291, lon.=26.347139, Alt.=143.771606m. Speed=0.036000m/h.</desc>
<speed>0.010000</speed>
</trkpt>
<trkpt lat="55.782291" lon="26.347139">
<ele>143.755981</ele>
<time>2010-07-17T08:55:38Z</time>
<desc>lat.=55.782291, lon.=26.347139, Alt.=143.755981m. Speed=0.072000m/h.</desc>
<speed>0.020000</speed>
</trkpt>
<trkpt lat="55.782291" lon="26.347139">
<ele>143.740356</ele>
<time>2010-07-17T08:55:39Z</time>
<desc>lat.=55.782291, lon.=26.347139, Alt.=143.740356m. Speed=0.072000m/h.</desc>
<speed>0.020000</speed>
</trkpt>
<trkpt lat="55.782291" lon="26.347139">
<ele>143.728638</ele>
<time>2010-07-17T08:55:40Z</time>
<desc>lat.=55.782291, lon.=26.347139, Alt.=143.728638m. Speed=0.072000m/h.</desc>
<speed>0.020000</speed>
</trkpt>
<trkpt lat="55.782291" lon="26.347139">
<ele>143.713013</ele>
<time>2010-07-17T08:55:41Z</time>
<desc>lat.=55.782291, lon.=26.347139, Alt.=143.713013m. Speed=0.072000m/h.</desc>
<speed>0.020000</speed>
</trkpt>
<trkpt lat="55.782291" lon="26.347139">
<ele>143.705200</ele>
<time>2010-07-17T08:55:42Z</time>
<desc>lat.=55.782291, lon.=26.347139, Alt.=143.705200m. Speed=0.108000m/h.</desc>
<speed>0.030000</speed>
</trkpt>
<trkpt lat="55.782291" lon="26.347139">
<ele>143.697388</ele>
<time>2010-07-17T08:55:43Z</time>
<desc>lat.=55.782291, lon.=26.347139, Alt.=143.697388m. Speed=0.108000m/h.</desc>
<speed>0.030000</speed>
</trkpt>
<trkpt lat="55.782291" lon="26.347139">
<ele>143.697388</ele>
<time>2010-07-17T08:55:44Z</time>
<desc>lat.=55.782291, lon.=26.347139, Alt.=143.697388m. Speed=0.108000m/h.</desc>
<speed>0.030000</speed>
</trkpt>
<trkpt lat="55.782291" lon="26.347139">
<ele>143.689575</ele>
<time>2010-07-17T08:55:45Z</time>
<desc>lat.=55.782291, lon.=26.347139, Alt.=143.689575m. Speed=0.000000m/h.</desc>
<speed>0.000000</speed>
</trkpt>
<trkpt lat="55.782291" lon="26.347139">
<ele>143.689575</ele>
<time>2010-07-17T08:55:46Z</time>
<desc>lat.=55.782291, lon.=26.347139, Alt.=143.689575m. Speed=0.108000m/h.</desc>
<speed>0.030000</speed>
</trkpt>
<trkpt lat="55.782288" lon="26.347139">
<ele>143.685669</ele>
<time>2010-07-17T08:55:47Z</time>
<desc>lat.=55.782288, lon.=26.347139, Alt.=143.685669m. Speed=0.036000m/h.</desc>
<speed>0.010000</speed>
</trkpt>
<trkpt lat="55.782288" lon="26.347139">
<ele>143.685669</ele>
<time>2010-07-17T08:55:48Z</time>
<desc>lat.=55.782288, lon.=26.347139, Alt.=143.685669m. Speed=0.180000m/h.</desc>
<speed>0.050000</speed>
</trkpt>
<trkpt lat="55.782288" lon="26.347139">
<ele>143.677856</ele>
<time>2010-07-17T08:55:49Z</time>
<desc>lat.=55.782288, lon.=26.347139, Alt.=143.677856m. Speed=0.108000m/h.</desc>
<speed>0.030000</speed>
</trkpt>
<trkpt lat="55.782288" lon="26.347139">
<ele>143.666138</ele>
<time>2010-07-17T08:55:50Z</time>
<desc>lat.=55.782288, lon.=26.347139, Alt.=143.666138m. Speed=0.108000m/h.</desc>
<speed>0.030000</speed>
</trkpt>
<trkpt lat="55.782288" lon="26.347139">
<ele>143.666138</ele>
<time>2010-07-17T08:55:51Z</time>
<desc>lat.=55.782288, lon.=26.347139, Alt.=143.666138m. Speed=0.144000m/h.</desc>
<speed>0.040000</speed>
</trkpt>
<trkpt lat="55.782288" lon="26.347139">
<ele>143.658325</ele>
<time>2010-07-17T08:55:52Z</time>
<desc>lat.=55.782288, lon.=26.347139, Alt.=143.658325m. Speed=0.144000m/h.</desc>
<speed>0.040000</speed>
</trkpt>
<trkpt lat="55.782288" lon="26.347139">
<ele>143.650513</ele>
<time>2010-07-17T08:55:53Z</time>
<desc>lat.=55.782288, lon.=26.347139, Alt.=143.650513m. Speed=0.108000m/h.</desc>
<speed>0.030000</speed>
</trkpt>
<trkpt lat="55.782288" lon="26.347139">
<ele>143.642700</ele>
<time>2010-07-17T08:55:54Z</time>
<desc>lat.=55.782288, lon.=26.347139, Alt.=143.642700m. Speed=0.072000m/h.</desc>
<speed>0.020000</speed>
</trkpt>
<trkpt lat="55.782288" lon="26.347141">
<ele>143.634888</ele>
<time>2010-07-17T08:55:55Z</time>
<desc>lat.=55.782288, lon.=26.347141, Alt.=143.634888m. Speed=0.108000m/h.</desc>
<speed>0.030000</speed>
</trkpt>
<trkpt lat="55.782288" lon="26.347141">
<ele>143.630981</ele>
<time>2010-07-17T08:55:56Z</time>
<desc>lat.=55.782288, lon.=26.347141, Alt.=143.630981m. Speed=0.108000m/h.</desc>
<speed>0.030000</speed>
</trkpt>
<trkpt lat="55.782288" lon="26.347141">
<ele>143.630981</ele>
<time>2010-07-17T08:55:57Z</time>
<desc>lat.=55.782288, lon.=26.347141, Alt.=143.630981m. Speed=0.072000m/h.</desc>
<speed>0.020000</speed>
</trkpt>
<trkpt lat="55.782288" lon="26.347141">
<ele>143.619263</ele>
<time>2010-07-17T08:55:58Z</time>
<desc>lat.=55.782288, lon.=26.347141, Alt.=143.619263m. Speed=0.144000m/h.</desc>
<speed>0.040000</speed>
</trkpt>
<trkpt lat="55.782288" lon="26.347141">
<ele>143.627075</ele>
<time>2010-07-17T08:55:59Z</time>
<desc>lat.=55.782288, lon.=26.347141, Alt.=143.627075m. Speed=0.108000m/h.</desc>
<speed>0.030000</speed>
</trkpt>
<trkpt lat="55.782288" lon="26.347141">
<ele>143.630981</ele>
<time>2010-07-17T08:56:00Z</time>
<desc>lat.=55.782288, lon.=26.347141, Alt.=143.630981m. Speed=0.180000m/h.</desc>
<speed>0.050000</speed>
</trkpt>
<trkpt lat="55.782288" lon="26.347141">
<ele>143.630981</ele>
<time>2010-07-17T08:56:01Z</time>
<desc>lat.=55.782288, lon.=26.347141, Alt.=143.630981m. Speed=0.144000m/h.</desc>
<speed>0.040000</speed>
</trkpt>
<trkpt lat="55.782288" lon="26.347141">
<ele>143.627075</ele>
<time>2010-07-17T08:56:02Z</time>
<desc>lat.=55.782288, lon.=26.347141, Alt.=143.627075m. Speed=0.216000m/h.</desc>
<speed>0.060000</speed>
</trkpt>
<trkpt lat="55.782288" lon="26.347141">
<ele>143.634888</ele>
<time>2010-07-17T08:56:03Z</time>
<desc>lat.=55.782288, lon.=26.347141, Alt.=143.634888m. Speed=0.036000m/h.</desc>
<speed>0.010000</speed>
</trkpt>
<trkpt lat="55.782288" lon="26.347143">
<ele>143.599731</ele>
<time>2010-07-17T08:56:04Z</time>
<desc>lat.=55.782288, lon.=26.347143, Alt.=143.599731m. Speed=0.252000m/h.</desc>
<speed>0.070000</speed>
</trkpt>
<trkpt lat="55.782288" lon="26.347143">
<ele>143.576294</ele>
<time>2010-07-17T08:56:05Z</time>
<desc>lat.=55.782288, lon.=26.347143, Alt.=143.576294m. Speed=0.252000m/h.</desc>
<speed>0.070000</speed>
</trkpt>
<trkpt lat="55.782288" lon="26.347143">
<ele>143.568481</ele>
<time>2010-07-17T08:56:06Z</time>
<desc>lat.=55.782288, lon.=26.347143, Alt.=143.568481m. Speed=0.180000m/h.</desc>
<speed>0.050000</speed>
</trkpt>
<trkpt lat="55.782288" lon="26.347143">
<ele>143.552856</ele>
<time>2010-07-17T08:56:07Z</time>
<desc>lat.=55.782288, lon.=26.347143, Alt.=143.552856m. Speed=0.144000m/h.</desc>
<speed>0.040000</speed>
</trkpt>
<trkpt lat="55.782288" lon="26.347143">
<ele>143.533325</ele>
<time>2010-07-17T08:56:08Z</time>
<desc>lat.=55.782288, lon.=26.347143, Alt.=143.533325m. Speed=0.180000m/h.</desc>
<speed>0.050000</speed>
</trkpt>
<trkpt lat="55.782288" lon="26.347145">
<ele>143.494263</ele>
<time>2010-07-17T08:56:09Z</time>
<desc>lat.=55.782288, lon.=26.347145, Alt.=143.494263m. Speed=0.216000m/h.</desc>
<speed>0.060000</speed>
</trkpt>
<trkpt lat="55.782288" lon="26.347145">
<ele>143.478638</ele>
<time>2010-07-17T08:56:10Z</time>
<desc>lat.=55.782288, lon.=26.347145, Alt.=143.478638m. Speed=0.108000m/h.</desc>
<speed>0.030000</speed>
</trkpt>
<trkpt lat="55.782288" lon="26.347145">
<ele>143.474731</ele>
<time>2010-07-17T08:56:11Z</time>
<desc>lat.=55.782288, lon.=26.347145, Alt.=143.474731m. Speed=0.180000m/h.</desc>
<speed>0.050000</speed>
</trkpt>
<trkpt lat="55.782284" lon="26.347145">
<ele>143.470825</ele>
<time>2010-07-17T08:56:12Z</time>
<desc>lat.=55.782284, lon.=26.347145, Alt.=143.470825m. Speed=0.216000m/h.</desc>
<speed>0.060000</speed>
</trkpt>
<trkpt lat="55.782284" lon="26.347145">
<ele>143.466919</ele>
<time>2010-07-17T08:56:13Z</time>
<desc>lat.=55.782284, lon.=26.347145, Alt.=143.466919m. Speed=0.108000m/h.</desc>
<speed>0.030000</speed>
</trkpt>
<trkpt lat="55.782284" lon="26.347145">
<ele>143.459106</ele>
<time>2010-07-17T08:56:14Z</time>
<desc>lat.=55.782284, lon.=26.347145, Alt.=143.459106m. Speed=0.072000m/h.</desc>
<speed>0.020000</speed>
</trkpt>
<trkpt lat="55.782284" lon="26.347145">
<ele>143.451294</ele>
<time>2010-07-17T08:56:15Z</time>
<desc>lat.=55.782284, lon.=26.347145, Alt.=143.451294m. Speed=0.072000m/h.</desc>
<speed>0.020000</speed>
</trkpt>
<trkpt lat="55.782284" lon="26.347145">
<ele>143.443481</ele>
<time>2010-07-17T08:56:16Z</time>
<desc>lat.=55.782284, lon.=26.347145, Alt.=143.443481m. Speed=0.036000m/h.</desc>
<speed>0.010000</speed>
</trkpt>
<trkpt lat="55.782284" lon="26.347145">
<ele>143.431763</ele>
<time>2010-07-17T08:56:17Z</time>
<desc>lat.=55.782284, lon.=26.347145, Alt.=143.431763m. Speed=0.108000m/h.</desc>
<speed>0.030000</speed>
</trkpt>
<trkpt lat="55.782284" lon="26.347145">
<ele>143.420044</ele>
<time>2010-07-17T08:56:18Z</time>
<desc>lat.=55.782284, lon.=26.347145, Alt.=143.420044m. Speed=0.180000m/h.</desc>
<speed>0.050000</speed>
</trkpt>
<trkpt lat="55.782284" lon="26.347147">
<ele>143.408325</ele>
<time>2010-07-17T08:56:19Z</time>
<desc>lat.=55.782284, lon.=26.347147, Alt.=143.408325m. Speed=0.180000m/h.</desc>
<speed>0.050000</speed>
</trkpt>
<trkpt lat="55.782284" lon="26.347147">
<ele>143.404419</ele>
<time>2010-07-17T08:56:20Z</time>
<desc>lat.=55.782284, lon.=26.347147, Alt.=143.404419m. Speed=0.072000m/h.</desc>
<speed>0.020000</speed>
</trkpt>
<trkpt lat="55.782284" lon="26.347147">
<ele>143.384888</ele>
<time>2010-07-17T08:56:21Z</time>
<desc>lat.=55.782284, lon.=26.347147, Alt.=143.384888m. Speed=0.180000m/h.</desc>
<speed>0.050000</speed>
</trkpt>
<trkpt lat="55.782284" lon="26.347147">
<ele>143.384888</ele>
<time>2010-07-17T08:56:22Z</time>
<desc>lat.=55.782284, lon.=26.347147, Alt.=143.384888m. Speed=0.072000m/h.</desc>
<speed>0.020000</speed>
</trkpt>
<trkpt lat="55.782284" lon="26.347147">
<ele>143.392700</ele>
<time>2010-07-17T08:56:23Z</time>
<desc>lat.=55.782284, lon.=26.347147, Alt.=143.392700m. Speed=0.000000m/h.</desc>
<speed>0.000000</speed>
</trkpt>
<trkpt lat="55.782284" lon="26.347147">
<ele>143.420044</ele>
<time>2010-07-17T08:56:24Z</time>
<desc>lat.=55.782284, lon.=26.347147, Alt.=143.420044m. Speed=0.072000m/h.</desc>
<speed>0.020000</speed>
</trkpt>
<trkpt lat="55.782284" lon="26.347147">
<ele>143.431763</ele>
<time>2010-07-17T08:56:25Z</time>
<desc>lat.=55.782284, lon.=26.347147, Alt.=143.431763m. Speed=0.108000m/h.</desc>
<speed>0.030000</speed>
</trkpt>
<trkpt lat="55.782284" lon="26.347147">
<ele>143.443481</ele>
<time>2010-07-17T08:56:26Z</time>
<desc>lat.=55.782284, lon.=26.347147, Alt.=143.443481m. Speed=0.072000m/h.</desc>
<speed>0.020000</speed>
</trkpt>
<trkpt lat="55.782284" lon="26.347147">
<ele>143.439575</ele>
<time>2010-07-17T08:56:27Z</time>
<desc>lat.=55.782284, lon.=26.347147, Alt.=143.439575m. Speed=0.108000m/h.</desc>
<speed>0.030000</speed>
</trkpt>
<trkpt lat="55.782284" lon="26.347147">
<ele>143.431763</ele>
<time>2010-07-17T08:56:28Z</time>
<desc>lat.=55.782284, lon.=26.347147, Alt.=143.431763m. Speed=0.108000m/h.</desc>
<speed>0.030000</speed>
</trkpt>
<trkpt lat="55.782284" lon="26.347147">
<ele>143.435669</ele>
<time>2010-07-17T08:56:29Z</time>
<desc>lat.=55.782284, lon.=26.347147, Alt.=143.435669m. Speed=0.108000m/h.</desc>
<speed>0.030000</speed>
</trkpt>
<trkpt lat="55.782284" lon="26.347147">
<ele>143.435669</ele>
<time>2010-07-17T08:56:30Z</time>
<desc>lat.=55.782284, lon.=26.347147, Alt.=143.435669m. Speed=0.036000m/h.</desc>
<speed>0.010000</speed>
</trkpt>
<trkpt lat="55.782284" lon="26.347147">
<ele>143.443481</ele>
<time>2010-07-17T08:56:31Z</time>
<desc>lat.=55.782284, lon.=26.347147, Alt.=143.443481m. Speed=0.072000m/h.</desc>
<speed>0.020000</speed>
</trkpt>
<trkpt lat="55.782284" lon="26.347147">
<ele>143.447388</ele>
<time>2010-07-17T08:56:32Z</time>
<desc>lat.=55.782284, lon.=26.347147, Alt.=143.447388m. Speed=0.072000m/h.</desc>
<speed>0.020000</speed>
</trkpt>
<trkpt lat="55.782284" lon="26.347147">
<ele>143.447388</ele>
<time>2010-07-17T08:56:33Z</time>
<desc>lat.=55.782284, lon.=26.347147, Alt.=143.447388m. Speed=0.036000m/h.</desc>
<speed>0.010000</speed>
</trkpt>
<trkpt lat="55.782284" lon="26.347147">
<ele>143.455200</ele>
<time>2010-07-17T08:56:34Z</time>
<desc>lat.=55.782284, lon.=26.347147, Alt.=143.455200m. Speed=0.108000m/h.</desc>
<speed>0.030000</speed>
</trkpt>
<trkpt lat="55.782284" lon="26.347147">
<ele>143.463013</ele>
<time>2010-07-17T08:56:35Z</time>
<desc>lat.=55.782284, lon.=26.347147, Alt.=143.463013m. Speed=0.180000m/h.</desc>
<speed>0.050000</speed>
</trkpt>
<trkpt lat="55.782284" lon="26.347147">
<ele>143.466919</ele>
<time>2010-07-17T08:56:36Z</time>
<desc>lat.=55.782284, lon.=26.347147, Alt.=143.466919m. Speed=0.144000m/h.</desc>
<speed>0.040000</speed>
</trkpt>
<trkpt lat="55.782284" lon="26.347147">
<ele>143.470825</ele>
<time>2010-07-17T08:56:37Z</time>
<desc>lat.=55.782284, lon.=26.347147, Alt.=143.470825m. Speed=0.108000m/h.</desc>
<speed>0.030000</speed>
</trkpt>
<trkpt lat="55.782284" lon="26.347147">
<ele>143.470825</ele>
<time>2010-07-17T08:56:38Z</time>
<desc>lat.=55.782284, lon.=26.347147, Alt.=143.470825m. Speed=0.036000m/h.</desc>
<speed>0.010000</speed>
</trkpt>
<trkpt lat="55.782284" lon="26.347147">
<ele>143.474731</ele>
<time>2010-07-17T08:56:39Z</time>
<desc>lat.=55.782284, lon.=26.347147, Alt.=143.474731m. Speed=0.036000m/h.</desc>
<speed>0.010000</speed>
</trkpt>
<trkpt lat="55.782284" lon="26.347147">
<ele>143.478638</ele>
<time>2010-07-17T08:56:40Z</time>
<desc>lat.=55.782284, lon.=26.347147, Alt.=143.478638m. Speed=0.108000m/h.</desc>
<speed>0.030000</speed>
</trkpt>
<trkpt lat="55.782284" lon="26.347147">
<ele>143.478638</ele>
<time>2010-07-17T08:56:41Z</time>
<desc>lat.=55.782284, lon.=26.347147, Alt.=143.478638m. Speed=0.108000m/h.</desc>
<speed>0.030000</speed>
</trkpt>
<trkpt lat="55.782284" lon="26.347145">
<ele>143.478638</ele>
<time>2010-07-17T08:56:42Z</time>
<desc>lat.=55.782284, lon.=26.347145, Alt.=143.478638m. Speed=0.144000m/h.</desc>
<speed>0.040000</speed>
</trkpt>
<trkpt lat="55.782284" lon="26.347145">
<ele>143.482544</ele>
<time>2010-07-17T08:56:43Z</time>
<desc>lat.=55.782284, lon.=26.347145, Alt.=143.482544m. Speed=0.036000m/h.</desc>
<speed>0.010000</speed>
</trkpt>
<trkpt lat="55.782284" lon="26.347145">
<ele>143.482544</ele>
<time>2010-07-17T08:56:44Z</time>
<desc>lat.=55.782284, lon.=26.347145, Alt.=143.482544m. Speed=0.108000m/h.</desc>
<speed>0.030000</speed>
</trkpt>
<trkpt lat="55.782284" lon="26.347145">
<ele>143.470825</ele>
<time>2010-07-17T08:56:45Z</time>
<desc>lat.=55.782284, lon.=26.347145, Alt.=143.470825m. Speed=0.000000m/h.</desc>
<speed>0.000000</speed>
</trkpt>
<trkpt lat="55.782284" lon="26.347145">
<ele>143.466919</ele>
<time>2010-07-17T08:56:46Z</time>
<desc>lat.=55.782284, lon.=26.347145, Alt.=143.466919m. Speed=0.036000m/h.</desc>
<speed>0.010000</speed>
</trkpt>
<trkpt lat="55.782284" lon="26.347145">
<ele>143.470825</ele>
<time>2010-07-17T08:56:47Z</time>
<desc>lat.=55.782284, lon.=26.347145, Alt.=143.470825m. Speed=0.036000m/h.</desc>
<speed>0.010000</speed>
</trkpt>
<trkpt lat="55.782284" lon="26.347145">
<ele>143.474731</ele>
<time>2010-07-17T08:56:48Z</time>
<desc>lat.=55.782284, lon.=26.347145, Alt.=143.474731m. Speed=0.036000m/h.</desc>
<speed>0.010000</speed>
</trkpt>
<trkpt lat="55.782284" lon="26.347145">
<ele>143.478638</ele>
<time>2010-07-17T08:56:49Z</time>
<desc>lat.=55.782284, lon.=26.347145, Alt.=143.478638m. Speed=0.036000m/h.</desc>
<speed>0.010000</speed>
</trkpt>
<trkpt lat="55.782284" lon="26.347145">
<ele>143.482544</ele>
<time>2010-07-17T08:56:50Z</time>
<desc>lat.=55.782284, lon.=26.347145, Alt.=143.482544m. Speed=0.000000m/h.</desc>
<speed>0.000000</speed>
</trkpt>
<trkpt lat="55.782284" lon="26.347145">
<ele>143.486450</ele>
<time>2010-07-17T08:56:51Z</time>
<desc>lat.=55.782284, lon.=26.347145, Alt.=143.486450m. Speed=0.036000m/h.</desc>
<speed>0.010000</speed>
</trkpt>
<trkpt lat="55.782284" lon="26.347145">
<ele>143.490356</ele>
<time>2010-07-17T08:56:52Z</time>
<desc>lat.=55.782284, lon.=26.347145, Alt.=143.490356m. Speed=0.072000m/h.</desc>
<speed>0.020000</speed>
</trkpt>
<trkpt lat="55.782284" lon="26.347145">
<ele>143.486450</ele>
<time>2010-07-17T08:56:53Z</time>
<desc>lat.=55.782284, lon.=26.347145, Alt.=143.486450m. Speed=0.036000m/h.</desc>
<speed>0.010000</speed>
</trkpt>
<trkpt lat="55.782284" lon="26.347145">
<ele>143.502075</ele>
<time>2010-07-17T08:56:54Z</time>
<desc>lat.=55.782284, lon.=26.347145, Alt.=143.502075m. Speed=0.036000m/h.</desc>
<speed>0.010000</speed>
</trkpt>
<trkpt lat="55.782284" lon="26.347145">
<ele>143.509888</ele>
<time>2010-07-17T08:56:55Z</time>
<desc>lat.=55.782284, lon.=26.347145, Alt.=143.509888m. Speed=0.036000m/h.</desc>
<speed>0.010000</speed>
</trkpt>
<trkpt lat="55.782284" lon="26.347147">
<ele>143.521606</ele>
<time>2010-07-17T08:56:56Z</time>
<desc>lat.=55.782284, lon.=26.347147, Alt.=143.521606m. Speed=0.036000m/h.</desc>
<speed>0.010000</speed>
</trkpt>
<trkpt lat="55.782284" lon="26.347147">
<ele>143.529419</ele>
<time>2010-07-17T08:56:57Z</time>
<desc>lat.=55.782284, lon.=26.347147, Alt.=143.529419m. Speed=0.036000m/h.</desc>
<speed>0.010000</speed>
</trkpt>
<trkpt lat="55.782284" lon="26.347147">
<ele>143.533325</ele>
<time>2010-07-17T08:56:58Z</time>
<desc>lat.=55.782284, lon.=26.347147, Alt.=143.533325m. Speed=0.072000m/h.</desc>
<speed>0.020000</speed>
</trkpt>
<trkpt lat="55.782284" lon="26.347147">
<ele>143.537231</ele>
<time>2010-07-17T08:56:59Z</time>
<desc>lat.=55.782284, lon.=26.347147, Alt.=143.537231m. Speed=0.108000m/h.</desc>
<speed>0.030000</speed>
</trkpt>
<trkpt lat="55.782284" lon="26.347147">
<ele>143.537231</ele>
<time>2010-07-17T08:57:00Z</time>
<desc>lat.=55.782284, lon.=26.347147, Alt.=143.537231m. Speed=0.036000m/h.</desc>
<speed>0.010000</speed>
</trkpt>
<trkpt lat="55.782284" lon="26.347147">
<ele>143.537231</ele>
<time>2010-07-17T08:57:01Z</time>
<desc>lat.=55.782284, lon.=26.347147, Alt.=143.537231m. Speed=0.000000m/h.</desc>
<speed>0.000000</speed>
</trkpt>
<trkpt lat="55.782284" lon="26.347147">
<ele>143.545044</ele>
<time>2010-07-17T08:57:02Z</time>
<desc>lat.=55.782284, lon.=26.347147, Alt.=143.545044m. Speed=0.000000m/h.</desc>
<speed>0.000000</speed>
</trkpt>
<trkpt lat="55.782284" lon="26.347147">
<ele>143.545044</ele>
<time>2010-07-17T08:57:03Z</time>
<desc>lat.=55.782284, lon.=26.347147, Alt.=143.545044m. Speed=0.000000m/h.</desc>
<speed>0.000000</speed>
</trkpt>
<trkpt lat="55.782284" lon="26.347147">
<ele>143.545044</ele>
<time>2010-07-17T08:57:04Z</time>
<desc>lat.=55.782284, lon.=26.347147, Alt.=143.545044m. Speed=0.036000m/h.</desc>
<speed>0.010000</speed>
</trkpt>
<trkpt lat="55.782284" lon="26.347147">
<ele>143.541138</ele>
<time>2010-07-17T08:57:05Z</time>
<desc>lat.=55.782284, lon.=26.347147, Alt.=143.541138m. Speed=0.036000m/h.</desc>
<speed>0.010000</speed>
</trkpt>
<trkpt lat="55.782284" lon="26.347147">
<ele>143.545044</ele>
<time>2010-07-17T08:57:06Z</time>
<desc>lat.=55.782284, lon.=26.347147, Alt.=143.545044m. Speed=0.108000m/h.</desc>
<speed>0.030000</speed>
</trkpt>
<trkpt lat="55.782284" lon="26.347147">
<ele>143.537231</ele>
<time>2010-07-17T08:57:07Z</time>
<desc>lat.=55.782284, lon.=26.347147, Alt.=143.537231m. Speed=0.072000m/h.</desc>
<speed>0.020000</speed>
</trkpt>
<trkpt lat="55.782284" lon="26.347147">
<ele>143.537231</ele>
<time>2010-07-17T08:57:08Z</time>
<desc>lat.=55.782284, lon.=26.347147, Alt.=143.537231m. Speed=0.108000m/h.</desc>
<speed>0.030000</speed>
</trkpt>
<trkpt lat="55.782284" lon="26.347147">
<ele>143.537231</ele>
<time>2010-07-17T08:57:09Z</time>
<desc>lat.=55.782284, lon.=26.347147, Alt.=143.537231m. Speed=0.072000m/h.</desc>
<speed>0.020000</speed>
</trkpt>
<trkpt lat="55.782284" lon="26.347145">
<ele>143.525513</ele>
<time>2010-07-17T08:57:10Z</time>
<desc>lat.=55.782284, lon.=26.347145, Alt.=143.525513m. Speed=0.036000m/h.</desc>
<speed>0.010000</speed>
</trkpt>
<trkpt lat="55.782284" lon="26.347145">
<ele>143.517700</ele>
<time>2010-07-17T08:57:11Z</time>
<desc>lat.=55.782284, lon.=26.347145, Alt.=143.517700m. Speed=0.072000m/h.</desc>
<speed>0.020000</speed>
</trkpt>
<trkpt lat="55.782284" lon="26.347145">
<ele>143.502075</ele>
<time>2010-07-17T08:57:12Z</time>
<desc>lat.=55.782284, lon.=26.347145, Alt.=143.502075m. Speed=0.072000m/h.</desc>
<speed>0.020000</speed>
</trkpt>
<trkpt lat="55.782284" lon="26.347145">
<ele>143.486450</ele>
<time>2010-07-17T08:57:13Z</time>
<desc>lat.=55.782284, lon.=26.347145, Alt.=143.486450m. Speed=0.036000m/h.</desc>
<speed>0.010000</speed>
</trkpt>
<trkpt lat="55.782284" lon="26.347145">
<ele>143.474731</ele>
<time>2010-07-17T08:57:14Z</time>
<desc>lat.=55.782284, lon.=26.347145, Alt.=143.474731m. Speed=0.108000m/h.</desc>
<speed>0.030000</speed>
</trkpt>
<trkpt lat="55.782284" lon="26.347145">
<ele>143.455200</ele>
<time>2010-07-17T08:57:15Z</time>
<desc>lat.=55.782284, lon.=26.347145, Alt.=143.455200m. Speed=0.036000m/h.</desc>
<speed>0.010000</speed>
</trkpt>
<trkpt lat="55.782284" lon="26.347147">
<ele>143.443481</ele>
<time>2010-07-17T08:57:16Z</time>
<desc>lat.=55.782284, lon.=26.347147, Alt.=143.443481m. Speed=0.072000m/h.</desc>
<speed>0.020000</speed>
</trkpt>
<trkpt lat="55.782284" lon="26.347147">
<ele>143.431763</ele>
<time>2010-07-17T08:57:17Z</time>
<desc>lat.=55.782284, lon.=26.347147, Alt.=143.431763m. Speed=0.072000m/h.</desc>
<speed>0.020000</speed>
</trkpt>
<trkpt lat="55.782284" lon="26.347147">
<ele>143.416138</ele>
<time>2010-07-17T08:57:18Z</time>
<desc>lat.=55.782284, lon.=26.347147, Alt.=143.416138m. Speed=0.108000m/h.</desc>
<speed>0.030000</speed>
</trkpt>
<trkpt lat="55.782284" lon="26.347145">
<ele>143.412231</ele>
<time>2010-07-17T08:57:19Z</time>
<desc>lat.=55.782284, lon.=26.347145, Alt.=143.412231m. Speed=0.108000m/h.</desc>
<speed>0.030000</speed>
</trkpt>
<trkpt lat="55.782284" lon="26.347145">
<ele>143.416138</ele>
<time>2010-07-17T08:57:20Z</time>
<desc>lat.=55.782284, lon.=26.347145, Alt.=143.416138m. Speed=0.144000m/h.</desc>
<speed>0.040000</speed>
</trkpt>
<trkpt lat="55.782284" lon="26.347145">
<ele>143.412231</ele>
<time>2010-07-17T08:57:21Z</time>
<desc>lat.=55.782284, lon.=26.347145, Alt.=143.412231m. Speed=0.072000m/h.</desc>
<speed>0.020000</speed>
</trkpt>
<trkpt lat="55.782284" lon="26.347145">
<ele>143.420044</ele>
<time>2010-07-17T08:57:22Z</time>
<desc>lat.=55.782284, lon.=26.347145, Alt.=143.420044m. Speed=0.072000m/h.</desc>
<speed>0.020000</speed>
</trkpt>
<trkpt lat="55.782284" lon="26.347145">
<ele>143.420044</ele>
<time>2010-07-17T08:57:23Z</time>
<desc>lat.=55.782284, lon.=26.347145, Alt.=143.420044m. Speed=0.072000m/h.</desc>
<speed>0.020000</speed>
</trkpt>
<trkpt lat="55.782284" lon="26.347145">
<ele>143.420044</ele>
<time>2010-07-17T08:57:24Z</time>
<desc>lat.=55.782284, lon.=26.347145, Alt.=143.420044m. Speed=0.072000m/h.</desc>
<speed>0.020000</speed>
</trkpt>
<trkpt lat="55.782284" lon="26.347145">
<ele>143.423950</ele>
<time>2010-07-17T08:57:25Z</time>
<desc>lat.=55.782284, lon.=26.347145, Alt.=143.423950m. Speed=0.108000m/h.</desc>
<speed>0.030000</speed>
</trkpt>
<trkpt lat="55.782284" lon="26.347145">
<ele>143.427856</ele>
<time>2010-07-17T08:57:26Z</time>
<desc>lat.=55.782284, lon.=26.347145, Alt.=143.427856m. Speed=0.036000m/h.</desc>
<speed>0.010000</speed>
</trkpt>
<trkpt lat="55.782284" lon="26.347145">
<ele>143.427856</ele>
<time>2010-07-17T08:57:27Z</time>
<desc>lat.=55.782284, lon.=26.347145, Alt.=143.427856m. Speed=0.072000m/h.</desc>
<speed>0.020000</speed>
</trkpt>
<trkpt lat="55.782284" lon="26.347145">
<ele>143.423950</ele>
<time>2010-07-17T08:57:28Z</time>
<desc>lat.=55.782284, lon.=26.347145, Alt.=143.423950m. Speed=0.036000m/h.</desc>
<speed>0.010000</speed>
</trkpt>
<trkpt lat="55.782284" lon="26.347145">
<ele>143.420044</ele>
<time>2010-07-17T08:57:29Z</time>
<desc>lat.=55.782284, lon.=26.347145, Alt.=143.420044m. Speed=0.072000m/h.</desc>
<speed>0.020000</speed>
</trkpt>
<trkpt lat="55.782284" lon="26.347145">
<ele>143.412231</ele>
<time>2010-07-17T08:57:30Z</time>
<desc>lat.=55.782284, lon.=26.347145, Alt.=143.412231m. Speed=0.072000m/h.</desc>
<speed>0.020000</speed>
</trkpt>
<trkpt lat="55.782284" lon="26.347145">
<ele>143.412231</ele>
<time>2010-07-17T08:57:31Z</time>
<desc>lat.=55.782284, lon.=26.347145, Alt.=143.412231m. Speed=0.144000m/h.</desc>
<speed>0.040000</speed>
</trkpt>
<trkpt lat="55.782284" lon="26.347145">
<ele>143.400513</ele>
<time>2010-07-17T08:57:32Z</time>
<desc>lat.=55.782284, lon.=26.347145, Alt.=143.400513m. Speed=0.072000m/h.</desc>
<speed>0.020000</speed>
</trkpt>
<trkpt lat="55.782284" lon="26.347145">
<ele>143.400513</ele>
<time>2010-07-17T08:57:33Z</time>
<desc>lat.=55.782284, lon.=26.347145, Alt.=143.400513m. Speed=0.036000m/h.</desc>
<speed>0.010000</speed>
</trkpt>
<trkpt lat="55.782284" lon="26.347145">
<ele>143.404419</ele>
<time>2010-07-17T08:57:34Z</time>
<desc>lat.=55.782284, lon.=26.347145, Alt.=143.404419m. Speed=0.072000m/h.</desc>
<speed>0.020000</speed>
</trkpt>
<trkpt lat="55.782284" lon="26.347145">
<ele>143.408325</ele>
<time>2010-07-17T08:57:35Z</time>
<desc>lat.=55.782284, lon.=26.347145, Alt.=143.408325m. Speed=0.036000m/h.</desc>
<speed>0.010000</speed>
</trkpt>
<trkpt lat="55.782284" lon="26.347145">
<ele>143.423950</ele>
<time>2010-07-17T08:57:36Z</time>
<desc>lat.=55.782284, lon.=26.347145, Alt.=143.423950m. Speed=0.072000m/h.</desc>
<speed>0.020000</speed>
</trkpt>
<trkpt lat="55.782284" lon="26.347145">
<ele>143.435669</ele>
<time>2010-07-17T08:57:37Z</time>
<desc>lat.=55.782284, lon.=26.347145, Alt.=143.435669m. Speed=0.036000m/h.</desc>
<speed>0.010000</speed>
</trkpt>
<trkpt lat="55.782280" lon="26.347145">
<ele>143.447388</ele>
<time>2010-07-17T08:57:38Z</time>
<desc>lat.=55.782280, lon.=26.347145, Alt.=143.447388m. Speed=0.036000m/h.</desc>
<speed>0.010000</speed>
</trkpt>
<trkpt lat="55.782280" lon="26.347145">
<ele>143.455200</ele>
<time>2010-07-17T08:57:39Z</time>
<desc>lat.=55.782280, lon.=26.347145, Alt.=143.455200m. Speed=0.000000m/h.</desc>
<speed>0.000000</speed>
</trkpt>
<trkpt lat="55.782280" lon="26.347145">
<ele>143.474731</ele>
<time>2010-07-17T08:57:40Z</time>
<desc>lat.=55.782280, lon.=26.347145, Alt.=143.474731m. Speed=0.000000m/h.</desc>
<speed>0.000000</speed>
</trkpt>
<trkpt lat="55.782280" lon="26.347145">
<ele>143.494263</ele>
<time>2010-07-17T08:57:41Z</time>
<desc>lat.=55.782280, lon.=26.347145, Alt.=143.494263m. Speed=0.000000m/h.</desc>
<speed>0.000000</speed>
</trkpt>
<trkpt lat="55.782280" lon="26.347145">
<ele>143.509888</ele>
<time>2010-07-17T08:57:42Z</time>
<desc>lat.=55.782280, lon.=26.347145, Alt.=143.509888m. Speed=0.144000m/h.</desc>
<speed>0.040000</speed>
</trkpt>
<trkpt lat="55.782280" lon="26.347145">
<ele>143.525513</ele>
<time>2010-07-17T08:57:43Z</time>
<desc>lat.=55.782280, lon.=26.347145, Alt.=143.525513m. Speed=0.000000m/h.</desc>
<speed>0.000000</speed>
</trkpt>
<trkpt lat="55.782280" lon="26.347145">
<ele>143.533325</ele>
<time>2010-07-17T08:57:44Z</time>
<desc>lat.=55.782280, lon.=26.347145, Alt.=143.533325m. Speed=0.000000m/h.</desc>
<speed>0.000000</speed>
</trkpt>
<trkpt lat="55.782280" lon="26.347145">
<ele>143.545044</ele>
<time>2010-07-17T08:57:45Z</time>
<desc>lat.=55.782280, lon.=26.347145, Alt.=143.545044m. Speed=0.000000m/h.</desc>
<speed>0.000000</speed>
</trkpt>
<trkpt lat="55.782280" lon="26.347145">
<ele>143.556763</ele>
<time>2010-07-17T08:57:46Z</time>
<desc>lat.=55.782280, lon.=26.347145, Alt.=143.556763m. Speed=0.108000m/h.</desc>
<speed>0.030000</speed>
</trkpt>
<trkpt lat="55.782280" lon="26.347145">
<ele>143.568481</ele>
<time>2010-07-17T08:57:47Z</time>
<desc>lat.=55.782280, lon.=26.347145, Alt.=143.568481m. Speed=0.036000m/h.</desc>
<speed>0.010000</speed>
</trkpt>
<trkpt lat="55.782280" lon="26.347143">
<ele>143.576294</ele>
<time>2010-07-17T08:57:48Z</time>
<desc>lat.=55.782280, lon.=26.347143, Alt.=143.576294m. Speed=0.036000m/h.</desc>
<speed>0.010000</speed>
</trkpt>
<trkpt lat="55.782280" lon="26.347143">
<ele>143.572388</ele>
<time>2010-07-17T08:57:49Z</time>
<desc>lat.=55.782280, lon.=26.347143, Alt.=143.572388m. Speed=0.000000m/h.</desc>
<speed>0.000000</speed>
</trkpt>
<trkpt lat="55.782280" lon="26.347143">
<ele>143.572388</ele>
<time>2010-07-17T08:57:50Z</time>
<desc>lat.=55.782280, lon.=26.347143, Alt.=143.572388m. Speed=0.000000m/h.</desc>
<speed>0.000000</speed>
</trkpt>
<trkpt lat="55.782280" lon="26.347143">
<ele>143.576294</ele>
<time>2010-07-17T08:57:51Z</time>
<desc>lat.=55.782280, lon.=26.347143, Alt.=143.576294m. Speed=0.036000m/h.</desc>
<speed>0.010000</speed>
</trkpt>
<trkpt lat="55.782280" lon="26.347143">
<ele>143.584106</ele>
<time>2010-07-17T08:57:52Z</time>
<desc>lat.=55.782280, lon.=26.347143, Alt.=143.584106m. Speed=0.000000m/h.</desc>
<speed>0.000000</speed>
</trkpt>
<trkpt lat="55.782280" lon="26.347143">
<ele>143.584106</ele>
<time>2010-07-17T08:57:53Z</time>
<desc>lat.=55.782280, lon.=26.347143, Alt.=143.584106m. Speed=0.000000m/h.</desc>
<speed>0.000000</speed>
</trkpt>
<trkpt lat="55.782280" lon="26.347143">
<ele>143.584106</ele>
<time>2010-07-17T08:57:54Z</time>
<desc>lat.=55.782280, lon.=26.347143, Alt.=143.584106m. Speed=0.036000m/h.</desc>
<speed>0.010000</speed>
</trkpt>
<trkpt lat="55.782280" lon="26.347143">
<ele>143.584106</ele>
<time>2010-07-17T08:57:55Z</time>
<desc>lat.=55.782280, lon.=26.347143, Alt.=143.584106m. Speed=0.072000m/h.</desc>
<speed>0.020000</speed>
</trkpt>
<trkpt lat="55.782280" lon="26.347143">
<ele>143.588013</ele>
<time>2010-07-17T08:57:56Z</time>
<desc>lat.=55.782280, lon.=26.347143, Alt.=143.588013m. Speed=0.036000m/h.</desc>
<speed>0.010000</speed>
</trkpt>
<trkpt lat="55.782280" lon="26.347143">
<ele>143.584106</ele>
<time>2010-07-17T08:57:57Z</time>
<desc>lat.=55.782280, lon.=26.347143, Alt.=143.584106m. Speed=0.108000m/h.</desc>
<speed>0.030000</speed>
</trkpt>
<trkpt lat="55.782280" lon="26.347143">
<ele>143.584106</ele>
<time>2010-07-17T08:57:58Z</time>
<desc>lat.=55.782280, lon.=26.347143, Alt.=143.584106m. Speed=0.108000m/h.</desc>
<speed>0.030000</speed>
</trkpt>
<trkpt lat="55.782280" lon="26.347143">
<ele>143.580200</ele>
<time>2010-07-17T08:57:59Z</time>
<desc>lat.=55.782280, lon.=26.347143, Alt.=143.580200m. Speed=0.216000m/h.</desc>
<speed>0.060000</speed>
</trkpt>
<trkpt lat="55.782280" lon="26.347141">
<ele>143.576294</ele>
<time>2010-07-17T08:58:00Z</time>
<desc>lat.=55.782280, lon.=26.347141, Alt.=143.576294m. Speed=0.108000m/h.</desc>
<speed>0.030000</speed>
</trkpt>
<trkpt lat="55.782280" lon="26.347141">
<ele>143.580200</ele>
<time>2010-07-17T08:58:01Z</time>
<desc>lat.=55.782280, lon.=26.347141, Alt.=143.580200m. Speed=0.108000m/h.</desc>
<speed>0.030000</speed>
</trkpt>
<trkpt lat="55.782280" lon="26.347141">
<ele>143.572388</ele>
<time>2010-07-17T08:58:02Z</time>
<desc>lat.=55.782280, lon.=26.347141, Alt.=143.572388m. Speed=0.072000m/h.</desc>
<speed>0.020000</speed>
</trkpt>
<trkpt lat="55.782280" lon="26.347141">
<ele>143.580200</ele>
<time>2010-07-17T08:58:03Z</time>
<desc>lat.=55.782280, lon.=26.347141, Alt.=143.580200m. Speed=0.036000m/h.</desc>
<speed>0.010000</speed>
</trkpt>
<trkpt lat="55.782280" lon="26.347141">
<ele>143.580200</ele>
<time>2010-07-17T08:58:04Z</time>
<desc>lat.=55.782280, lon.=26.347141, Alt.=143.580200m. Speed=0.108000m/h.</desc>
<speed>0.030000</speed>
</trkpt>
<trkpt lat="55.782280" lon="26.347141">
<ele>143.580200</ele>
<time>2010-07-17T08:58:05Z</time>
<desc>lat.=55.782280, lon.=26.347141, Alt.=143.580200m. Speed=0.144000m/h.</desc>
<speed>0.040000</speed>
</trkpt>
<trkpt lat="55.782280" lon="26.347141">
<ele>143.572388</ele>
<time>2010-07-17T08:58:06Z</time>
<desc>lat.=55.782280, lon.=26.347141, Alt.=143.572388m. Speed=0.072000m/h.</desc>
<speed>0.020000</speed>
</trkpt>
<trkpt lat="55.782280" lon="26.347141">
<ele>143.568481</ele>
<time>2010-07-17T08:58:07Z</time>
<desc>lat.=55.782280, lon.=26.347141, Alt.=143.568481m. Speed=0.036000m/h.</desc>
<speed>0.010000</speed>
</trkpt>
<trkpt lat="55.782280" lon="26.347141">
<ele>143.572388</ele>
<time>2010-07-17T08:58:08Z</time>
<desc>lat.=55.782280, lon.=26.347141, Alt.=143.572388m. Speed=0.144000m/h.</desc>
<speed>0.040000</speed>
</trkpt>
<trkpt lat="55.782280" lon="26.347139">
<ele>143.576294</ele>
<time>2010-07-17T08:58:09Z</time>
<desc>lat.=55.782280, lon.=26.347139, Alt.=143.576294m. Speed=0.144000m/h.</desc>
<speed>0.040000</speed>
</trkpt>
<trkpt lat="55.782280" lon="26.347139">
<ele>143.576294</ele>
<time>2010-07-17T08:58:10Z</time>
<desc>lat.=55.782280, lon.=26.347139, Alt.=143.576294m. Speed=0.108000m/h.</desc>
<speed>0.030000</speed>
</trkpt>
<trkpt lat="55.782280" lon="26.347139">
<ele>143.580200</ele>
<time>2010-07-17T08:58:11Z</time>
<desc>lat.=55.782280, lon.=26.347139, Alt.=143.580200m. Speed=0.144000m/h.</desc>
<speed>0.040000</speed>
</trkpt>
<trkpt lat="55.782280" lon="26.347139">
<ele>143.588013</ele>
<time>2010-07-17T08:58:12Z</time>
<desc>lat.=55.782280, lon.=26.347139, Alt.=143.588013m. Speed=0.108000m/h.</desc>
<speed>0.030000</speed>
</trkpt>
<trkpt lat="55.782280" lon="26.347139">
<ele>143.599731</ele>
<time>2010-07-17T08:58:13Z</time>
<desc>lat.=55.782280, lon.=26.347139, Alt.=143.599731m. Speed=0.072000m/h.</desc>
<speed>0.020000</speed>
</trkpt>
<trkpt lat="55.782280" lon="26.347139">
<ele>143.611450</ele>
<time>2010-07-17T08:58:14Z</time>
<desc>lat.=55.782280, lon.=26.347139, Alt.=143.611450m. Speed=0.108000m/h.</desc>
<speed>0.030000</speed>
</trkpt>
<trkpt lat="55.782280" lon="26.347139">
<ele>143.611450</ele>
<time>2010-07-17T08:58:15Z</time>
<desc>lat.=55.782280, lon.=26.347139, Alt.=143.611450m. Speed=0.144000m/h.</desc>
<speed>0.040000</speed>
</trkpt>
<trkpt lat="55.782280" lon="26.347139">
<ele>143.619263</ele>
<time>2010-07-17T08:58:16Z</time>
<desc>lat.=55.782280, lon.=26.347139, Alt.=143.619263m. Speed=0.108000m/h.</desc>
<speed>0.030000</speed>
</trkpt>
<trkpt lat="55.782280" lon="26.347139">
<ele>143.619263</ele>
<time>2010-07-17T08:58:17Z</time>
<desc>lat.=55.782280, lon.=26.347139, Alt.=143.619263m. Speed=0.072000m/h.</desc>
<speed>0.020000</speed>
</trkpt>
<trkpt lat="55.782280" lon="26.347139">
<ele>143.619263</ele>
<time>2010-07-17T08:58:18Z</time>
<desc>lat.=55.782280, lon.=26.347139, Alt.=143.619263m. Speed=0.000000m/h.</desc>
<speed>0.000000</speed>
</trkpt>
<trkpt lat="55.782280" lon="26.347139">
<ele>143.623169</ele>
<time>2010-07-17T08:58:19Z</time>
<desc>lat.=55.782280, lon.=26.347139, Alt.=143.623169m. Speed=0.036000m/h.</desc>
<speed>0.010000</speed>
</trkpt>
<trkpt lat="55.782280" lon="26.347139">
<ele>143.623169</ele>
<time>2010-07-17T08:58:20Z</time>
<desc>lat.=55.782280, lon.=26.347139, Alt.=143.623169m. Speed=0.072000m/h.</desc>
<speed>0.020000</speed>
</trkpt>
<trkpt lat="55.782280" lon="26.347139">
<ele>143.619263</ele>
<time>2010-07-17T08:58:21Z</time>
<desc>lat.=55.782280, lon.=26.347139, Alt.=143.619263m. Speed=0.072000m/h.</desc>
<speed>0.020000</speed>
</trkpt>
<trkpt lat="55.782280" lon="26.347139">
<ele>143.619263</ele>
<time>2010-07-17T08:58:22Z</time>
<desc>lat.=55.782280, lon.=26.347139, Alt.=143.619263m. Speed=0.144000m/h.</desc>
<speed>0.040000</speed>
</trkpt>
<trkpt lat="55.782280" lon="26.347139">
<ele>143.611450</ele>
<time>2010-07-17T08:58:23Z</time>
<desc>lat.=55.782280, lon.=26.347139, Alt.=143.611450m. Speed=0.036000m/h.</desc>
<speed>0.010000</speed>
</trkpt>
<trkpt lat="55.782280" lon="26.347139">
<ele>143.607544</ele>
<time>2010-07-17T08:58:24Z</time>
<desc>lat.=55.782280, lon.=26.347139, Alt.=143.607544m. Speed=0.036000m/h.</desc>
<speed>0.010000</speed>
</trkpt>
<trkpt lat="55.782280" lon="26.347139">
<ele>143.599731</ele>
<time>2010-07-17T08:58:25Z</time>
<desc>lat.=55.782280, lon.=26.347139, Alt.=143.599731m. Speed=0.144000m/h.</desc>
<speed>0.040000</speed>
</trkpt>
<trkpt lat="55.782280" lon="26.347141">
<ele>143.599731</ele>
<time>2010-07-17T08:58:26Z</time>
<desc>lat.=55.782280, lon.=26.347141, Alt.=143.599731m. Speed=0.216000m/h.</desc>
<speed>0.060000</speed>
</trkpt>
<trkpt lat="55.782280" lon="26.347141">
<ele>143.595825</ele>
<time>2010-07-17T08:58:27Z</time>
<desc>lat.=55.782280, lon.=26.347141, Alt.=143.595825m. Speed=0.216000m/h.</desc>
<speed>0.060000</speed>
</trkpt>
<trkpt lat="55.782280" lon="26.347141">
<ele>143.599731</ele>
<time>2010-07-17T08:58:28Z</time>
<desc>lat.=55.782280, lon.=26.347141, Alt.=143.599731m. Speed=0.252000m/h.</desc>
<speed>0.070000</speed>
</trkpt>
<trkpt lat="55.782280" lon="26.347141">
<ele>143.591919</ele>
<time>2010-07-17T08:58:29Z</time>
<desc>lat.=55.782280, lon.=26.347141, Alt.=143.591919m. Speed=0.252000m/h.</desc>
<speed>0.070000</speed>
</trkpt>
<trkpt lat="55.782280" lon="26.347143">
<ele>143.595825</ele>
<time>2010-07-17T08:58:30Z</time>
<desc>lat.=55.782280, lon.=26.347143, Alt.=143.595825m. Speed=0.324000m/h.</desc>
<speed>0.090000</speed>
</trkpt>
<trkpt lat="55.782280" lon="26.347143">
<ele>143.599731</ele>
<time>2010-07-17T08:58:31Z</time>
<desc>lat.=55.782280, lon.=26.347143, Alt.=143.599731m. Speed=0.216000m/h.</desc>
<speed>0.060000</speed>
</trkpt>
<trkpt lat="55.782280" lon="26.347143">
<ele>143.599731</ele>
<time>2010-07-17T08:58:32Z</time>
<desc>lat.=55.782280, lon.=26.347143, Alt.=143.599731m. Speed=0.180000m/h.</desc>
<speed>0.050000</speed>
</trkpt>
<trkpt lat="55.782280" lon="26.347143">
<ele>143.591919</ele>
<time>2010-07-17T08:58:33Z</time>
<desc>lat.=55.782280, lon.=26.347143, Alt.=143.591919m. Speed=0.108000m/h.</desc>
<speed>0.030000</speed>
</trkpt>
<trkpt lat="55.782280" lon="26.347145">
<ele>143.588013</ele>
<time>2010-07-17T08:58:34Z</time>
<desc>lat.=55.782280, lon.=26.347145, Alt.=143.588013m. Speed=0.252000m/h.</desc>
<speed>0.070000</speed>
</trkpt>
<trkpt lat="55.782280" lon="26.347145">
<ele>143.584106</ele>
<time>2010-07-17T08:58:35Z</time>
<desc>lat.=55.782280, lon.=26.347145, Alt.=143.584106m. Speed=0.144000m/h.</desc>
<speed>0.040000</speed>
</trkpt>
<trkpt lat="55.782280" lon="26.347145">
<ele>143.584106</ele>
<time>2010-07-17T08:58:36Z</time>
<desc>lat.=55.782280, lon.=26.347145, Alt.=143.584106m. Speed=0.072000m/h.</desc>
<speed>0.020000</speed>
</trkpt>
<trkpt lat="55.782280" lon="26.347145">
<ele>143.580200</ele>
<time>2010-07-17T08:58:37Z</time>
<desc>lat.=55.782280, lon.=26.347145, Alt.=143.580200m. Speed=0.108000m/h.</desc>
<speed>0.030000</speed>
</trkpt>
<trkpt lat="55.782280" lon="26.347145">
<ele>143.576294</ele>
<time>2010-07-17T08:58:38Z</time>
<desc>lat.=55.782280, lon.=26.347145, Alt.=143.576294m. Speed=0.036000m/h.</desc>
<speed>0.010000</speed>
</trkpt>
<trkpt lat="55.782280" lon="26.347145">
<ele>143.572388</ele>
<time>2010-07-17T08:58:39Z</time>
<desc>lat.=55.782280, lon.=26.347145, Alt.=143.572388m. Speed=0.108000m/h.</desc>
<speed>0.030000</speed>
</trkpt>
<trkpt lat="55.782280" lon="26.347145">
<ele>143.576294</ele>
<time>2010-07-17T08:58:40Z</time>
<desc>lat.=55.782280, lon.=26.347145, Alt.=143.576294m. Speed=0.072000m/h.</desc>
<speed>0.020000</speed>
</trkpt>
<trkpt lat="55.782276" lon="26.347147">
<ele>143.576294</ele>
<time>2010-07-17T08:58:41Z</time>
<desc>lat.=55.782276, lon.=26.347147, Alt.=143.576294m. Speed=0.036000m/h.</desc>
<speed>0.010000</speed>
</trkpt>
<trkpt lat="55.782276" lon="26.347147">
<ele>143.576294</ele>
<time>2010-07-17T08:58:42Z</time>
<desc>lat.=55.782276, lon.=26.347147, Alt.=143.576294m. Speed=0.036000m/h.</desc>
<speed>0.010000</speed>
</trkpt>
<trkpt lat="55.782276" lon="26.347147">
<ele>143.572388</ele>
<time>2010-07-17T08:58:43Z</time>
<desc>lat.=55.782276, lon.=26.347147, Alt.=143.572388m. Speed=0.072000m/h.</desc>
<speed>0.020000</speed>
</trkpt>
<trkpt lat="55.782276" lon="26.347147">
<ele>143.568481</ele>
<time>2010-07-17T08:58:44Z</time>
<desc>lat.=55.782276, lon.=26.347147, Alt.=143.568481m. Speed=0.144000m/h.</desc>
<speed>0.040000</speed>
</trkpt>
<trkpt lat="55.782276" lon="26.347147">
<ele>143.560669</ele>
<time>2010-07-17T08:58:45Z</time>
<desc>lat.=55.782276, lon.=26.347147, Alt.=143.560669m. Speed=0.252000m/h.</desc>
<speed>0.070000</speed>
</trkpt>
<trkpt lat="55.782276" lon="26.347149">
<ele>143.552856</ele>
<time>2010-07-17T08:58:46Z</time>
<desc>lat.=55.782276, lon.=26.347149, Alt.=143.552856m. Speed=0.252000m/h.</desc>
<speed>0.070000</speed>
</trkpt>
<trkpt lat="55.782276" lon="26.347149">
<ele>143.545044</ele>
<time>2010-07-17T08:58:47Z</time>
<desc>lat.=55.782276, lon.=26.347149, Alt.=143.545044m. Speed=0.288000m/h.</desc>
<speed>0.080000</speed>
</trkpt>
<trkpt lat="55.782276" lon="26.347151">
<ele>143.537231</ele>
<time>2010-07-17T08:58:48Z</time>
<desc>lat.=55.782276, lon.=26.347151, Alt.=143.537231m. Speed=0.324000m/h.</desc>
<speed>0.090000</speed>
</trkpt>
<trkpt lat="55.782276" lon="26.347151">
<ele>143.525513</ele>
<time>2010-07-17T08:58:49Z</time>
<desc>lat.=55.782276, lon.=26.347151, Alt.=143.525513m. Speed=0.324000m/h.</desc>
<speed>0.090000</speed>
</trkpt>
<trkpt lat="55.782276" lon="26.347153">
<ele>143.509888</ele>
<time>2010-07-17T08:58:50Z</time>
<desc>lat.=55.782276, lon.=26.347153, Alt.=143.509888m. Speed=0.360000m/h.</desc>
<speed>0.100000</speed>
</trkpt>
<trkpt lat="55.782272" lon="26.347153">
<ele>143.494263</ele>
<time>2010-07-17T08:58:51Z</time>
<desc>lat.=55.782272, lon.=26.347153, Alt.=143.494263m. Speed=0.432000m/h.</desc>
<speed>0.120000</speed>
</trkpt>
<trkpt lat="55.782272" lon="26.347155">
<ele>143.474731</ele>
<time>2010-07-17T08:58:52Z</time>
<desc>lat.=55.782272, lon.=26.347155, Alt.=143.474731m. Speed=0.612000m/h.</desc>
<speed>0.170000</speed>
</trkpt>
<trkpt lat="55.782269" lon="26.347155">
<ele>143.451294</ele>
<time>2010-07-17T08:58:53Z</time>
<desc>lat.=55.782269, lon.=26.347155, Alt.=143.451294m. Speed=0.684000m/h.</desc>
<speed>0.190000</speed>
</trkpt>
<trkpt lat="55.782269" lon="26.347155">
<ele>143.416138</ele>
<time>2010-07-17T08:58:54Z</time>
<desc>lat.=55.782269, lon.=26.347155, Alt.=143.416138m. Speed=0.792000m/h.</desc>
<speed>0.220000</speed>
</trkpt>
<trkpt lat="55.782265" lon="26.347155">
<ele>143.377075</ele>
<time>2010-07-17T08:58:55Z</time>
<desc>lat.=55.782265, lon.=26.347155, Alt.=143.377075m. Speed=0.864000m/h.</desc>
<speed>0.240000</speed>
</trkpt>
<trkpt lat="55.782265" lon="26.347155">
<ele>143.330200</ele>
<time>2010-07-17T08:58:56Z</time>
<desc>lat.=55.782265, lon.=26.347155, Alt.=143.330200m. Speed=0.828000m/h.</desc>
<speed>0.230000</speed>
</trkpt>
<trkpt lat="55.782261" lon="26.347153">
<ele>143.283325</ele>
<time>2010-07-17T08:58:57Z</time>
<desc>lat.=55.782261, lon.=26.347153, Alt.=143.283325m. Speed=0.900000m/h.</desc>
<speed>0.250000</speed>
</trkpt>
<trkpt lat="55.782261" lon="26.347153">
<ele>143.232544</ele>
<time>2010-07-17T08:58:58Z</time>
<desc>lat.=55.782261, lon.=26.347153, Alt.=143.232544m. Speed=0.936000m/h.</desc>
<speed>0.260000</speed>
</trkpt>
<trkpt lat="55.782257" lon="26.347153">
<ele>143.170044</ele>
<time>2010-07-17T08:58:59Z</time>
<desc>lat.=55.782257, lon.=26.347153, Alt.=143.170044m. Speed=0.972000m/h.</desc>
<speed>0.270000</speed>
</trkpt>
<trkpt lat="55.782253" lon="26.347151">
<ele>143.095825</ele>
<time>2010-07-17T08:59:00Z</time>
<desc>lat.=55.782253, lon.=26.347151, Alt.=143.095825m. Speed=0.936000m/h.</desc>
<speed>0.260000</speed>
</trkpt>
<trkpt lat="55.782253" lon="26.347149">
<ele>143.017700</ele>
<time>2010-07-17T08:59:01Z</time>
<desc>lat.=55.782253, lon.=26.347149, Alt.=143.017700m. Speed=0.864000m/h.</desc>
<speed>0.240000</speed>
</trkpt>
<trkpt lat="55.782249" lon="26.347149">
<ele>142.943481</ele>
<time>2010-07-17T08:59:02Z</time>
<desc>lat.=55.782249, lon.=26.347149, Alt.=142.943481m. Speed=0.828000m/h.</desc>
<speed>0.230000</speed>
</trkpt>
<trkpt lat="55.782249" lon="26.347147">
<ele>142.869263</ele>
<time>2010-07-17T08:59:03Z</time>
<desc>lat.=55.782249, lon.=26.347147, Alt.=142.869263m. Speed=0.864000m/h.</desc>
<speed>0.240000</speed>
</trkpt>
<trkpt lat="55.782246" lon="26.347145">
<ele>142.791138</ele>
<time>2010-07-17T08:59:04Z</time>
<desc>lat.=55.782246, lon.=26.347145, Alt.=142.791138m. Speed=0.900000m/h.</desc>
<speed>0.250000</speed>
</trkpt>
<trkpt lat="55.782246" lon="26.347143">
<ele>142.709106</ele>
<time>2010-07-17T08:59:05Z</time>
<desc>lat.=55.782246, lon.=26.347143, Alt.=142.709106m. Speed=1.008000m/h.</desc>
<speed>0.280000</speed>
</trkpt>
<trkpt lat="55.782242" lon="26.347141">
<ele>142.627075</ele>
<time>2010-07-17T08:59:06Z</time>
<desc>lat.=55.782242, lon.=26.347141, Alt.=142.627075m. Speed=1.080000m/h.</desc>
<speed>0.300000</speed>
</trkpt>
<trkpt lat="55.782238" lon="26.347139">
<ele>142.896606</ele>
<time>2010-07-17T08:59:07Z</time>
<desc>lat.=55.782238, lon.=26.347139, Alt.=142.896606m. Speed=0.936000m/h.</desc>
<speed>0.260000</speed>
</trkpt>
<trkpt lat="55.782230" lon="26.347134">
<ele>143.388794</ele>
<time>2010-07-17T08:59:08Z</time>
<desc>lat.=55.782230, lon.=26.347134, Alt.=143.388794m. Speed=1.080000m/h.</desc>
<speed>0.300000</speed>
</trkpt>
<trkpt lat="55.782227" lon="26.347128">
<ele>143.537231</ele>
<time>2010-07-17T08:59:09Z</time>
<desc>lat.=55.782227, lon.=26.347128, Alt.=143.537231m. Speed=1.080000m/h.</desc>
<speed>0.300000</speed>
</trkpt>
<trkpt lat="55.782223" lon="26.347130">
<ele>143.603638</ele>
<time>2010-07-17T08:59:10Z</time>
<desc>lat.=55.782223, lon.=26.347130, Alt.=143.603638m. Speed=1.008000m/h.</desc>
<speed>0.280000</speed>
</trkpt>
<trkpt lat="55.782223" lon="26.347139">
<ele>144.173950</ele>
<time>2010-07-17T08:59:11Z</time>
<desc>lat.=55.782223, lon.=26.347139, Alt.=144.173950m. Speed=1.008000m/h.</desc>
<speed>0.280000</speed>
</trkpt>
<trkpt lat="55.782219" lon="26.347151">
<ele>144.384888</ele>
<time>2010-07-17T08:59:12Z</time>
<desc>lat.=55.782219, lon.=26.347151, Alt.=144.384888m. Speed=0.828000m/h.</desc>
<speed>0.230000</speed>
</trkpt>
<trkpt lat="55.782219" lon="26.347147">
<ele>145.408325</ele>
<time>2010-07-17T08:59:13Z</time>
<desc>lat.=55.782219, lon.=26.347147, Alt.=145.408325m. Speed=0.648000m/h.</desc>
<speed>0.180000</speed>
</trkpt>
<trkpt lat="55.782219" lon="26.347147">
<ele>145.392700</ele>
<time>2010-07-17T08:59:14Z</time>
<desc>lat.=55.782219, lon.=26.347147, Alt.=145.392700m. Speed=0.612000m/h.</desc>
<speed>0.170000</speed>
</trkpt>
<trkpt lat="55.782215" lon="26.347147">
<ele>145.377075</ele>
<time>2010-07-17T08:59:15Z</time>
<desc>lat.=55.782215, lon.=26.347147, Alt.=145.377075m. Speed=0.612000m/h.</desc>
<speed>0.170000</speed>
</trkpt>
<trkpt lat="55.782215" lon="26.347147">
<ele>145.353638</ele>
<time>2010-07-17T08:59:16Z</time>
<desc>lat.=55.782215, lon.=26.347147, Alt.=145.353638m. Speed=0.540000m/h.</desc>
<speed>0.150000</speed>
</trkpt>
<trkpt lat="55.782211" lon="26.347147">
<ele>145.326294</ele>
<time>2010-07-17T08:59:17Z</time>
<desc>lat.=55.782211, lon.=26.347147, Alt.=145.326294m. Speed=0.504000m/h.</desc>
<speed>0.140000</speed>
</trkpt>
<trkpt lat="55.782211" lon="26.347147">
<ele>145.302856</ele>
<time>2010-07-17T08:59:18Z</time>
<desc>lat.=55.782211, lon.=26.347147, Alt.=145.302856m. Speed=0.468000m/h.</desc>
<speed>0.130000</speed>
</trkpt>
<trkpt lat="55.782211" lon="26.347149">
<ele>145.287231</ele>
<time>2010-07-17T08:59:19Z</time>
<desc>lat.=55.782211, lon.=26.347149, Alt.=145.287231m. Speed=0.468000m/h.</desc>
<speed>0.130000</speed>
</trkpt>
<trkpt lat="55.782211" lon="26.347151">
<ele>145.283325</ele>
<time>2010-07-17T08:59:20Z</time>
<desc>lat.=55.782211, lon.=26.347151, Alt.=145.283325m. Speed=0.396000m/h.</desc>
<speed>0.110000</speed>
</trkpt>
<trkpt lat="55.782211" lon="26.347151">
<ele>145.291138</ele>
<time>2010-07-17T08:59:21Z</time>
<desc>lat.=55.782211, lon.=26.347151, Alt.=145.291138m. Speed=0.324000m/h.</desc>
<speed>0.090000</speed>
</trkpt>
<trkpt lat="55.782207" lon="26.347153">
<ele>145.287231</ele>
<time>2010-07-17T08:59:22Z</time>
<desc>lat.=55.782207, lon.=26.347153, Alt.=145.287231m. Speed=0.252000m/h.</desc>
<speed>0.070000</speed>
</trkpt>
<trkpt lat="55.782207" lon="26.347153">
<ele>145.295044</ele>
<time>2010-07-17T08:59:23Z</time>
<desc>lat.=55.782207, lon.=26.347153, Alt.=145.295044m. Speed=0.108000m/h.</desc>
<speed>0.030000</speed>
</trkpt>
<trkpt lat="55.782207" lon="26.347153">
<ele>145.310669</ele>
<time>2010-07-17T08:59:24Z</time>
<desc>lat.=55.782207, lon.=26.347153, Alt.=145.310669m. Speed=0.108000m/h.</desc>
<speed>0.030000</speed>
</trkpt>
<trkpt lat="55.782207" lon="26.347151">
<ele>145.330200</ele>
<time>2010-07-17T08:59:25Z</time>
<desc>lat.=55.782207, lon.=26.347151, Alt.=145.330200m. Speed=0.180000m/h.</desc>
<speed>0.050000</speed>
</trkpt>
<trkpt lat="55.782207" lon="26.347151">
<ele>145.361450</ele>
<time>2010-07-17T08:59:26Z</time>
<desc>lat.=55.782207, lon.=26.347151, Alt.=145.361450m. Speed=0.324000m/h.</desc>
<speed>0.090000</speed>
</trkpt>
<trkpt lat="55.782211" lon="26.347151">
<ele>145.400513</ele>
<time>2010-07-17T08:59:27Z</time>
<desc>lat.=55.782211, lon.=26.347151, Alt.=145.400513m. Speed=0.360000m/h.</desc>
<speed>0.100000</speed>
</trkpt>
<trkpt lat="55.782211" lon="26.347149">
<ele>145.431763</ele>
<time>2010-07-17T08:59:28Z</time>
<desc>lat.=55.782211, lon.=26.347149, Alt.=145.431763m. Speed=0.576000m/h.</desc>
<speed>0.160000</speed>
</trkpt>
<trkpt lat="55.782211" lon="26.347147">
<ele>145.470825</ele>
<time>2010-07-17T08:59:29Z</time>
<desc>lat.=55.782211, lon.=26.347147, Alt.=145.470825m. Speed=0.540000m/h.</desc>
<speed>0.150000</speed>
</trkpt>
<trkpt lat="55.782211" lon="26.347145">
<ele>145.513794</ele>
<time>2010-07-17T08:59:30Z</time>
<desc>lat.=55.782211, lon.=26.347145, Alt.=145.513794m. Speed=0.504000m/h.</desc>
<speed>0.140000</speed>
</trkpt>
<trkpt lat="55.782211" lon="26.347143">
<ele>145.548950</ele>
<time>2010-07-17T08:59:31Z</time>
<desc>lat.=55.782211, lon.=26.347143, Alt.=145.548950m. Speed=0.468000m/h.</desc>
<speed>0.130000</speed>
</trkpt>
<trkpt lat="55.782215" lon="26.347143">
<ele>145.580200</ele>
<time>2010-07-17T08:59:32Z</time>
<desc>lat.=55.782215, lon.=26.347143, Alt.=145.580200m. Speed=0.360000m/h.</desc>
<speed>0.100000</speed>
</trkpt>
<trkpt lat="55.782215" lon="26.347143">
<ele>145.611450</ele>
<time>2010-07-17T08:59:33Z</time>
<desc>lat.=55.782215, lon.=26.347143, Alt.=145.611450m. Speed=0.324000m/h.</desc>
<speed>0.090000</speed>
</trkpt>
<trkpt lat="55.782215" lon="26.347145">
<ele>145.638794</ele>
<time>2010-07-17T08:59:34Z</time>
<desc>lat.=55.782215, lon.=26.347145, Alt.=145.638794m. Speed=0.396000m/h.</desc>
<speed>0.110000</speed>
</trkpt>
<trkpt lat="55.782215" lon="26.347147">
<ele>145.658325</ele>
<time>2010-07-17T08:59:35Z</time>
<desc>lat.=55.782215, lon.=26.347147, Alt.=145.658325m. Speed=0.432000m/h.</desc>
<speed>0.120000</speed>
</trkpt>
<trkpt lat="55.782219" lon="26.347149">
<ele>145.681763</ele>
<time>2010-07-17T08:59:36Z</time>
<desc>lat.=55.782219, lon.=26.347149, Alt.=145.681763m. Speed=0.396000m/h.</desc>
<speed>0.110000</speed>
</trkpt>
<trkpt lat="55.782219" lon="26.347151">
<ele>145.697388</ele>
<time>2010-07-17T08:59:37Z</time>
<desc>lat.=55.782219, lon.=26.347151, Alt.=145.697388m. Speed=0.684000m/h.</desc>
<speed>0.190000</speed>
</trkpt>
<trkpt lat="55.782219" lon="26.347153">
<ele>145.693481</ele>
<time>2010-07-17T08:59:38Z</time>
<desc>lat.=55.782219, lon.=26.347153, Alt.=145.693481m. Speed=0.504000m/h.</desc>
<speed>0.140000</speed>
</trkpt>
<trkpt lat="55.782219" lon="26.347157">
<ele>145.677856</ele>
<time>2010-07-17T08:59:39Z</time>
<desc>lat.=55.782219, lon.=26.347157, Alt.=145.677856m. Speed=0.684000m/h.</desc>
<speed>0.190000</speed>
</trkpt>
<trkpt lat="55.782219" lon="26.347160">
<ele>145.646606</ele>
<time>2010-07-17T08:59:40Z</time>
<desc>lat.=55.782219, lon.=26.347160, Alt.=145.646606m. Speed=0.720000m/h.</desc>
<speed>0.200000</speed>
</trkpt>
<trkpt lat="55.782219" lon="26.347162">
<ele>145.607544</ele>
<time>2010-07-17T08:59:41Z</time>
<desc>lat.=55.782219, lon.=26.347162, Alt.=145.607544m. Speed=0.720000m/h.</desc>
<speed>0.200000</speed>
</trkpt>
<trkpt lat="55.782219" lon="26.347166">
<ele>145.552856</ele>
<time>2010-07-17T08:59:42Z</time>
<desc>lat.=55.782219, lon.=26.347166, Alt.=145.552856m. Speed=0.792000m/h.</desc>
<speed>0.220000</speed>
</trkpt>
<trkpt lat="55.782219" lon="26.347170">
<ele>145.482544</ele>
<time>2010-07-17T08:59:43Z</time>
<desc>lat.=55.782219, lon.=26.347170, Alt.=145.482544m. Speed=0.900000m/h.</desc>
<speed>0.250000</speed>
</trkpt>
<trkpt lat="55.782219" lon="26.347174">
<ele>145.396606</ele>
<time>2010-07-17T08:59:44Z</time>
<desc>lat.=55.782219, lon.=26.347174, Alt.=145.396606m. Speed=0.900000m/h.</desc>
<speed>0.250000</speed>
</trkpt>
<trkpt lat="55.782219" lon="26.347179">
<ele>145.306763</ele>
<time>2010-07-17T08:59:45Z</time>
<desc>lat.=55.782219, lon.=26.347179, Alt.=145.306763m. Speed=0.756000m/h.</desc>
<speed>0.210000</speed>
</trkpt>
<trkpt lat="55.782219" lon="26.347181">
<ele>145.216919</ele>
<time>2010-07-17T08:59:46Z</time>
<desc>lat.=55.782219, lon.=26.347181, Alt.=145.216919m. Speed=0.360000m/h.</desc>
<speed>0.100000</speed>
</trkpt>
<trkpt lat="55.782219" lon="26.347183">
<ele>145.127075</ele>
<time>2010-07-17T08:59:47Z</time>
<desc>lat.=55.782219, lon.=26.347183, Alt.=145.127075m. Speed=0.216000m/h.</desc>
<speed>0.060000</speed>
</trkpt>
<trkpt lat="55.782219" lon="26.347183">
<ele>145.041138</ele>
<time>2010-07-17T08:59:48Z</time>
<desc>lat.=55.782219, lon.=26.347183, Alt.=145.041138m. Speed=0.144000m/h.</desc>
<speed>0.040000</speed>
</trkpt>
<trkpt lat="55.782219" lon="26.347183">
<ele>144.970825</ele>
<time>2010-07-17T08:59:49Z</time>
<desc>lat.=55.782219, lon.=26.347183, Alt.=144.970825m. Speed=0.180000m/h.</desc>
<speed>0.050000</speed>
</trkpt>
<trkpt lat="55.782219" lon="26.347183">
<ele>144.916138</ele>
<time>2010-07-17T08:59:50Z</time>
<desc>lat.=55.782219, lon.=26.347183, Alt.=144.916138m. Speed=0.144000m/h.</desc>
<speed>0.040000</speed>
</trkpt>
<trkpt lat="55.782219" lon="26.347183">
<ele>144.869263</ele>
<time>2010-07-17T08:59:51Z</time>
<desc>lat.=55.782219, lon.=26.347183, Alt.=144.869263m. Speed=0.144000m/h.</desc>
<speed>0.040000</speed>
</trkpt>
<trkpt lat="55.782219" lon="26.347183">
<ele>144.838013</ele>
<time>2010-07-17T08:59:52Z</time>
<desc>lat.=55.782219, lon.=26.347183, Alt.=144.838013m. Speed=0.108000m/h.</desc>
<speed>0.030000</speed>
</trkpt>
<trkpt lat="55.782219" lon="26.347183">
<ele>144.806763</ele>
<time>2010-07-17T08:59:53Z</time>
<desc>lat.=55.782219, lon.=26.347183, Alt.=144.806763m. Speed=0.252000m/h.</desc>
<speed>0.070000</speed>
</trkpt>
<trkpt lat="55.782219" lon="26.347183">
<ele>144.779419</ele>
<time>2010-07-17T08:59:54Z</time>
<desc>lat.=55.782219, lon.=26.347183, Alt.=144.779419m. Speed=0.396000m/h.</desc>
<speed>0.110000</speed>
</trkpt>
<trkpt lat="55.782219" lon="26.347181">
<ele>144.763794</ele>
<time>2010-07-17T08:59:55Z</time>
<desc>lat.=55.782219, lon.=26.347181, Alt.=144.763794m. Speed=0.324000m/h.</desc>
<speed>0.090000</speed>
</trkpt>
<trkpt lat="55.782223" lon="26.347181">
<ele>144.763794</ele>
<time>2010-07-17T08:59:56Z</time>
<desc>lat.=55.782223, lon.=26.347181, Alt.=144.763794m. Speed=0.360000m/h.</desc>
<speed>0.100000</speed>
</trkpt>
<trkpt lat="55.782223" lon="26.347179">
<ele>144.767700</ele>
<time>2010-07-17T08:59:57Z</time>
<desc>lat.=55.782223, lon.=26.347179, Alt.=144.767700m. Speed=0.324000m/h.</desc>
<speed>0.090000</speed>
</trkpt>
<trkpt lat="55.782223" lon="26.347178">
<ele>144.771606</ele>
<time>2010-07-17T08:59:58Z</time>
<desc>lat.=55.782223, lon.=26.347178, Alt.=144.771606m. Speed=0.324000m/h.</desc>
<speed>0.090000</speed>
</trkpt>
<trkpt lat="55.782223" lon="26.347178">
<ele>144.779419</ele>
<time>2010-07-17T08:59:59Z</time>
<desc>lat.=55.782223, lon.=26.347178, Alt.=144.779419m. Speed=0.396000m/h.</desc>
<speed>0.110000</speed>
</trkpt>
<trkpt lat="55.782223" lon="26.347176">
<ele>144.783325</ele>
<time>2010-07-17T09:00:00Z</time>
<desc>lat.=55.782223, lon.=26.347176, Alt.=144.783325m. Speed=0.252000m/h.</desc>
<speed>0.070000</speed>
</trkpt>
<trkpt lat="55.782227" lon="26.347176">
<ele>144.791138</ele>
<time>2010-07-17T09:00:01Z</time>
<desc>lat.=55.782227, lon.=26.347176, Alt.=144.791138m. Speed=0.216000m/h.</desc>
<speed>0.060000</speed>
</trkpt>
<trkpt lat="55.782227" lon="26.347174">
<ele>144.795044</ele>
<time>2010-07-17T09:00:02Z</time>
<desc>lat.=55.782227, lon.=26.347174, Alt.=144.795044m. Speed=0.036000m/h.</desc>
<speed>0.010000</speed>
</trkpt>
<trkpt lat="55.782227" lon="26.347174">
<ele>144.795044</ele>
<time>2010-07-17T09:00:03Z</time>
<desc>lat.=55.782227, lon.=26.347174, Alt.=144.795044m. Speed=0.180000m/h.</desc>
<speed>0.050000</speed>
</trkpt>
<trkpt lat="55.782227" lon="26.347174">
<ele>144.791138</ele>
<time>2010-07-17T09:00:04Z</time>
<desc>lat.=55.782227, lon.=26.347174, Alt.=144.791138m. Speed=0.180000m/h.</desc>
<speed>0.050000</speed>
</trkpt>
<trkpt lat="55.782227" lon="26.347172">
<ele>144.795044</ele>
<time>2010-07-17T09:00:05Z</time>
<desc>lat.=55.782227, lon.=26.347172, Alt.=144.795044m. Speed=0.072000m/h.</desc>
<speed>0.020000</speed>
</trkpt>
<trkpt lat="55.782227" lon="26.347172">
<ele>144.814575</ele>
<time>2010-07-17T09:00:06Z</time>
<desc>lat.=55.782227, lon.=26.347172, Alt.=144.814575m. Speed=0.072000m/h.</desc>
<speed>0.020000</speed>
</trkpt>
<trkpt lat="55.782227" lon="26.347172">
<ele>144.838013</ele>
<time>2010-07-17T09:00:07Z</time>
<desc>lat.=55.782227, lon.=26.347172, Alt.=144.838013m. Speed=0.180000m/h.</desc>
<speed>0.050000</speed>
</trkpt>
<trkpt lat="55.782227" lon="26.347170">
<ele>144.869263</ele>
<time>2010-07-17T09:00:08Z</time>
<desc>lat.=55.782227, lon.=26.347170, Alt.=144.869263m. Speed=0.180000m/h.</desc>
<speed>0.050000</speed>
</trkpt>
<trkpt lat="55.782227" lon="26.347170">
<ele>144.908325</ele>
<time>2010-07-17T09:00:09Z</time>
<desc>lat.=55.782227, lon.=26.347170, Alt.=144.908325m. Speed=0.108000m/h.</desc>
<speed>0.030000</speed>
</trkpt>
<trkpt lat="55.782227" lon="26.347170">
<ele>144.908325</ele>
<time>2010-07-17T09:00:10Z</time>
<desc>lat.=55.782227, lon.=26.347170, Alt.=144.908325m. Speed=0.072000m/h.</desc>
<speed>0.020000</speed>
</trkpt>
<trkpt lat="55.782227" lon="26.347170">
<ele>144.900513</ele>
<time>2010-07-17T09:00:11Z</time>
<desc>lat.=55.782227, lon.=26.347170, Alt.=144.900513m. Speed=0.000000m/h.</desc>
<speed>0.000000</speed>
</trkpt>
<trkpt lat="55.782227" lon="26.347170">
<ele>144.888794</ele>
<time>2010-07-17T09:00:12Z</time>
<desc>lat.=55.782227, lon.=26.347170, Alt.=144.888794m. Speed=0.072000m/h.</desc>
<speed>0.020000</speed>
</trkpt>
<trkpt lat="55.782227" lon="26.347170">
<ele>144.880981</ele>
<time>2010-07-17T09:00:13Z</time>
<desc>lat.=55.782227, lon.=26.347170, Alt.=144.880981m. Speed=0.072000m/h.</desc>
<speed>0.020000</speed>
</trkpt>
<trkpt lat="55.782227" lon="26.347170">
<ele>144.873169</ele>
<time>2010-07-17T09:00:14Z</time>
<desc>lat.=55.782227, lon.=26.347170, Alt.=144.873169m. Speed=0.000000m/h.</desc>
<speed>0.000000</speed>
</trkpt>
<trkpt lat="55.782227" lon="26.347170">
<ele>144.861450</ele>
<time>2010-07-17T09:00:15Z</time>
<desc>lat.=55.782227, lon.=26.347170, Alt.=144.861450m. Speed=0.036000m/h.</desc>
<speed>0.010000</speed>
</trkpt>
<trkpt lat="55.782227" lon="26.347170">
<ele>144.853638</ele>
<time>2010-07-17T09:00:16Z</time>
<desc>lat.=55.782227, lon.=26.347170, Alt.=144.853638m. Speed=0.036000m/h.</desc>
<speed>0.010000</speed>
</trkpt>
<trkpt lat="55.782227" lon="26.347170">
<ele>144.838013</ele>
<time>2010-07-17T09:00:17Z</time>
<desc>lat.=55.782227, lon.=26.347170, Alt.=144.838013m. Speed=0.072000m/h.</desc>
<speed>0.020000</speed>
</trkpt>
<trkpt lat="55.782227" lon="26.347170">
<ele>144.826294</ele>
<time>2010-07-17T09:00:18Z</time>
<desc>lat.=55.782227, lon.=26.347170, Alt.=144.826294m. Speed=0.036000m/h.</desc>
<speed>0.010000</speed>
</trkpt>
<trkpt lat="55.782227" lon="26.347170">
<ele>144.818481</ele>
<time>2010-07-17T09:00:19Z</time>
<desc>lat.=55.782227, lon.=26.347170, Alt.=144.818481m. Speed=0.072000m/h.</desc>
<speed>0.020000</speed>
</trkpt>
<trkpt lat="55.782227" lon="26.347170">
<ele>144.810669</ele>
<time>2010-07-17T09:00:20Z</time>
<desc>lat.=55.782227, lon.=26.347170, Alt.=144.810669m. Speed=0.036000m/h.</desc>
<speed>0.010000</speed>
</trkpt>
<trkpt lat="55.782227" lon="26.347170">
<ele>144.802856</ele>
<time>2010-07-17T09:00:21Z</time>
<desc>lat.=55.782227, lon.=26.347170, Alt.=144.802856m. Speed=0.036000m/h.</desc>
<speed>0.010000</speed>
</trkpt>
<trkpt lat="55.782227" lon="26.347170">
<ele>144.802856</ele>
<time>2010-07-17T09:00:22Z</time>
<desc>lat.=55.782227, lon.=26.347170, Alt.=144.802856m. Speed=0.036000m/h.</desc>
<speed>0.010000</speed>
</trkpt>
<trkpt lat="55.782227" lon="26.347170">
<ele>144.798950</ele>
<time>2010-07-17T09:00:23Z</time>
<desc>lat.=55.782227, lon.=26.347170, Alt.=144.798950m. Speed=0.000000m/h.</desc>
<speed>0.000000</speed>
</trkpt>
<trkpt lat="55.782227" lon="26.347170">
<ele>144.798950</ele>
<time>2010-07-17T09:00:24Z</time>
<desc>lat.=55.782227, lon.=26.347170, Alt.=144.798950m. Speed=0.000000m/h.</desc>
<speed>0.000000</speed>
</trkpt>
<trkpt lat="55.782227" lon="26.347172">
<ele>144.795044</ele>
<time>2010-07-17T09:00:25Z</time>
<desc>lat.=55.782227, lon.=26.347172, Alt.=144.795044m. Speed=0.036000m/h.</desc>
<speed>0.010000</speed>
</trkpt>
<trkpt lat="55.782227" lon="26.347170">
<ele>144.798950</ele>
<time>2010-07-17T09:00:26Z</time>
<desc>lat.=55.782227, lon.=26.347170, Alt.=144.798950m. Speed=0.000000m/h.</desc>
<speed>0.000000</speed>
</trkpt>
<trkpt lat="55.782227" lon="26.347170">
<ele>144.802856</ele>
<time>2010-07-17T09:00:27Z</time>
<desc>lat.=55.782227, lon.=26.347170, Alt.=144.802856m. Speed=0.072000m/h.</desc>
<speed>0.020000</speed>
</trkpt>
<trkpt lat="55.782227" lon="26.347170">
<ele>144.806763</ele>
<time>2010-07-17T09:00:28Z</time>
<desc>lat.=55.782227, lon.=26.347170, Alt.=144.806763m. Speed=0.108000m/h.</desc>
<speed>0.030000</speed>
</trkpt>
<trkpt lat="55.782227" lon="26.347170">
<ele>144.802856</ele>
<time>2010-07-17T09:00:29Z</time>
<desc>lat.=55.782227, lon.=26.347170, Alt.=144.802856m. Speed=0.000000m/h.</desc>
<speed>0.000000</speed>
</trkpt>
<trkpt lat="55.782227" lon="26.347170">
<ele>144.802856</ele>
<time>2010-07-17T09:00:30Z</time>
<desc>lat.=55.782227, lon.=26.347170, Alt.=144.802856m. Speed=0.036000m/h.</desc>
<speed>0.010000</speed>
</trkpt>
<trkpt lat="55.782227" lon="26.347170">
<ele>144.795044</ele>
<time>2010-07-17T09:00:31Z</time>
<desc>lat.=55.782227, lon.=26.347170, Alt.=144.795044m. Speed=0.072000m/h.</desc>
<speed>0.020000</speed>
</trkpt>
<trkpt lat="55.782227" lon="26.347170">
<ele>144.798950</ele>
<time>2010-07-17T09:00:32Z</time>
<desc>lat.=55.782227, lon.=26.347170, Alt.=144.798950m. Speed=0.072000m/h.</desc>
<speed>0.020000</speed>
</trkpt>
<trkpt lat="55.782227" lon="26.347170">
<ele>144.798950</ele>
<time>2010-07-17T09:00:33Z</time>
<desc>lat.=55.782227, lon.=26.347170, Alt.=144.798950m. Speed=0.144000m/h.</desc>
<speed>0.040000</speed>
</trkpt>
<trkpt lat="55.782227" lon="26.347170">
<ele>144.795044</ele>
<time>2010-07-17T09:00:34Z</time>
<desc>lat.=55.782227, lon.=26.347170, Alt.=144.795044m. Speed=0.180000m/h.</desc>
<speed>0.050000</speed>
</trkpt>
<trkpt lat="55.782227" lon="26.347168">
<ele>144.787231</ele>
<time>2010-07-17T09:00:35Z</time>
<desc>lat.=55.782227, lon.=26.347168, Alt.=144.787231m. Speed=0.108000m/h.</desc>
<speed>0.030000</speed>
</trkpt>
<trkpt lat="55.782227" lon="26.347168">
<ele>144.755981</ele>
<time>2010-07-17T09:00:36Z</time>
<desc>lat.=55.782227, lon.=26.347168, Alt.=144.755981m. Speed=0.072000m/h.</desc>
<speed>0.020000</speed>
</trkpt>
<trkpt lat="55.782227" lon="26.347168">
<ele>144.740356</ele>
<time>2010-07-17T09:00:37Z</time>
<desc>lat.=55.782227, lon.=26.347168, Alt.=144.740356m. Speed=0.144000m/h.</desc>
<speed>0.040000</speed>
</trkpt>
<trkpt lat="55.782227" lon="26.347168">
<ele>144.728638</ele>
<time>2010-07-17T09:00:38Z</time>
<desc>lat.=55.782227, lon.=26.347168, Alt.=144.728638m. Speed=0.108000m/h.</desc>
<speed>0.030000</speed>
</trkpt>
<trkpt lat="55.782227" lon="26.347168">
<ele>144.724731</ele>
<time>2010-07-17T09:00:39Z</time>
<desc>lat.=55.782227, lon.=26.347168, Alt.=144.724731m. Speed=0.072000m/h.</desc>
<speed>0.020000</speed>
</trkpt>
<trkpt lat="55.782227" lon="26.347168">
<ele>144.716919</ele>
<time>2010-07-17T09:00:40Z</time>
<desc>lat.=55.782227, lon.=26.347168, Alt.=144.716919m. Speed=0.036000m/h.</desc>
<speed>0.010000</speed>
</trkpt>
<trkpt lat="55.782227" lon="26.347168">
<ele>144.701294</ele>
<time>2010-07-17T09:00:41Z</time>
<desc>lat.=55.782227, lon.=26.347168, Alt.=144.701294m. Speed=0.072000m/h.</desc>
<speed>0.020000</speed>
</trkpt>
<trkpt lat="55.782227" lon="26.347168">
<ele>144.677856</ele>
<time>2010-07-17T09:00:42Z</time>
<desc>lat.=55.782227, lon.=26.347168, Alt.=144.677856m. Speed=0.144000m/h.</desc>
<speed>0.040000</speed>
</trkpt>
<trkpt lat="55.782227" lon="26.347168">
<ele>144.662231</ele>
<time>2010-07-17T09:00:43Z</time>
<desc>lat.=55.782227, lon.=26.347168, Alt.=144.662231m. Speed=0.108000m/h.</desc>
<speed>0.030000</speed>
</trkpt>
<trkpt lat="55.782227" lon="26.347168">
<ele>144.646606</ele>
<time>2010-07-17T09:00:44Z</time>
<desc>lat.=55.782227, lon.=26.347168, Alt.=144.646606m. Speed=0.072000m/h.</desc>
<speed>0.020000</speed>
</trkpt>
<trkpt lat="55.782227" lon="26.347168">
<ele>144.630981</ele>
<time>2010-07-17T09:00:45Z</time>
<desc>lat.=55.782227, lon.=26.347168, Alt.=144.630981m. Speed=0.180000m/h.</desc>
<speed>0.050000</speed>
</trkpt>
<trkpt lat="55.782227" lon="26.347168">
<ele>144.619263</ele>
<time>2010-07-17T09:00:46Z</time>
<desc>lat.=55.782227, lon.=26.347168, Alt.=144.619263m. Speed=0.144000m/h.</desc>
<speed>0.040000</speed>
</trkpt>
<trkpt lat="55.782227" lon="26.347168">
<ele>144.611450</ele>
<time>2010-07-17T09:00:47Z</time>
<desc>lat.=55.782227, lon.=26.347168, Alt.=144.611450m. Speed=0.000000m/h.</desc>
<speed>0.000000</speed>
</trkpt>
<trkpt lat="55.782227" lon="26.347168">
<ele>144.595825</ele>
<time>2010-07-17T09:00:48Z</time>
<desc>lat.=55.782227, lon.=26.347168, Alt.=144.595825m. Speed=0.072000m/h.</desc>
<speed>0.020000</speed>
</trkpt>
<trkpt lat="55.782227" lon="26.347168">
<ele>144.588013</ele>
<time>2010-07-17T09:00:49Z</time>
<desc>lat.=55.782227, lon.=26.347168, Alt.=144.588013m. Speed=0.036000m/h.</desc>
<speed>0.010000</speed>
</trkpt>
<trkpt lat="55.782227" lon="26.347168">
<ele>144.572388</ele>
<time>2010-07-17T09:00:50Z</time>
<desc>lat.=55.782227, lon.=26.347168, Alt.=144.572388m. Speed=0.072000m/h.</desc>
<speed>0.020000</speed>
</trkpt>
<trkpt lat="55.782227" lon="26.347168">
<ele>144.560669</ele>
<time>2010-07-17T09:00:51Z</time>
<desc>lat.=55.782227, lon.=26.347168, Alt.=144.560669m. Speed=0.144000m/h.</desc>
<speed>0.040000</speed>
</trkpt>
<trkpt lat="55.782227" lon="26.347168">
<ele>144.545044</ele>
<time>2010-07-17T09:00:52Z</time>
<desc>lat.=55.782227, lon.=26.347168, Alt.=144.545044m. Speed=0.108000m/h.</desc>
<speed>0.030000</speed>
</trkpt>
<trkpt lat="55.782227" lon="26.347168">
<ele>144.525513</ele>
<time>2010-07-17T09:00:53Z</time>
<desc>lat.=55.782227, lon.=26.347168, Alt.=144.525513m. Speed=0.000000m/h.</desc>
<speed>0.000000</speed>
</trkpt>
<trkpt lat="55.782227" lon="26.347168">
<ele>144.513794</ele>
<time>2010-07-17T09:00:54Z</time>
<desc>lat.=55.782227, lon.=26.347168, Alt.=144.513794m. Speed=0.036000m/h.</desc>
<speed>0.010000</speed>
</trkpt>
<trkpt lat="55.782227" lon="26.347168">
<ele>144.498169</ele>
<time>2010-07-17T09:00:55Z</time>
<desc>lat.=55.782227, lon.=26.347168, Alt.=144.498169m. Speed=0.036000m/h.</desc>
<speed>0.010000</speed>
</trkpt>
<trkpt lat="55.782227" lon="26.347168">
<ele>144.494263</ele>
<time>2010-07-17T09:00:56Z</time>
<desc>lat.=55.782227, lon.=26.347168, Alt.=144.494263m. Speed=0.000000m/h.</desc>
<speed>0.000000</speed>
</trkpt>
<trkpt lat="55.782227" lon="26.347168">
<ele>144.494263</ele>
<time>2010-07-17T09:00:57Z</time>
<desc>lat.=55.782227, lon.=26.347168, Alt.=144.494263m. Speed=0.072000m/h.</desc>
<speed>0.020000</speed>
</trkpt>
<trkpt lat="55.782227" lon="26.347168">
<ele>144.482544</ele>
<time>2010-07-17T09:00:58Z</time>
<desc>lat.=55.782227, lon.=26.347168, Alt.=144.482544m. Speed=0.072000m/h.</desc>
<speed>0.020000</speed>
</trkpt>
<trkpt lat="55.782227" lon="26.347168">
<ele>144.459106</ele>
<time>2010-07-17T09:00:59Z</time>
<desc>lat.=55.782227, lon.=26.347168, Alt.=144.459106m. Speed=0.036000m/h.</desc>
<speed>0.010000</speed>
</trkpt>
<trkpt lat="55.782227" lon="26.347168">
<ele>144.439575</ele>
<time>2010-07-17T09:01:00Z</time>
<desc>lat.=55.782227, lon.=26.347168, Alt.=144.439575m. Speed=0.072000m/h.</desc>
<speed>0.020000</speed>
</trkpt>
<trkpt lat="55.782227" lon="26.347168">
<ele>144.420044</ele>
<time>2010-07-17T09:01:01Z</time>
<desc>lat.=55.782227, lon.=26.347168, Alt.=144.420044m. Speed=0.036000m/h.</desc>
<speed>0.010000</speed>
</trkpt>
<trkpt lat="55.782227" lon="26.347168">
<ele>144.396606</ele>
<time>2010-07-17T09:01:02Z</time>
<desc>lat.=55.782227, lon.=26.347168, Alt.=144.396606m. Speed=0.108000m/h.</desc>
<speed>0.030000</speed>
</trkpt>
<trkpt lat="55.782227" lon="26.347168">
<ele>144.380981</ele>
<time>2010-07-17T09:01:03Z</time>
<desc>lat.=55.782227, lon.=26.347168, Alt.=144.380981m. Speed=0.072000m/h.</desc>
<speed>0.020000</speed>
</trkpt>
<trkpt lat="55.782227" lon="26.347168">
<ele>144.361450</ele>
<time>2010-07-17T09:01:04Z</time>
<desc>lat.=55.782227, lon.=26.347168, Alt.=144.361450m. Speed=0.108000m/h.</desc>
<speed>0.030000</speed>
</trkpt>
<trkpt lat="55.782227" lon="26.347168">
<ele>144.338013</ele>
<time>2010-07-17T09:01:05Z</time>
<desc>lat.=55.782227, lon.=26.347168, Alt.=144.338013m. Speed=0.108000m/h.</desc>
<speed>0.030000</speed>
</trkpt>
<trkpt lat="55.782227" lon="26.347170">
<ele>144.318481</ele>
<time>2010-07-17T09:01:06Z</time>
<desc>lat.=55.782227, lon.=26.347170, Alt.=144.318481m. Speed=0.072000m/h.</desc>
<speed>0.020000</speed>
</trkpt>
<trkpt lat="55.782227" lon="26.347170">
<ele>144.295044</ele>
<time>2010-07-17T09:01:07Z</time>
<desc>lat.=55.782227, lon.=26.347170, Alt.=144.295044m. Speed=0.108000m/h.</desc>
<speed>0.030000</speed>
</trkpt>
<trkpt lat="55.782227" lon="26.347170">
<ele>144.271606</ele>
<time>2010-07-17T09:01:08Z</time>
<desc>lat.=55.782227, lon.=26.347170, Alt.=144.271606m. Speed=0.072000m/h.</desc>
<speed>0.020000</speed>
</trkpt>
<trkpt lat="55.782227" lon="26.347170">
<ele>144.252075</ele>
<time>2010-07-17T09:01:09Z</time>
<desc>lat.=55.782227, lon.=26.347170, Alt.=144.252075m. Speed=0.108000m/h.</desc>
<speed>0.030000</speed>
</trkpt>
<trkpt lat="55.782227" lon="26.347170">
<ele>144.240356</ele>
<time>2010-07-17T09:01:10Z</time>
<desc>lat.=55.782227, lon.=26.347170, Alt.=144.240356m. Speed=0.108000m/h.</desc>
<speed>0.030000</speed>
</trkpt>
<trkpt lat="55.782227" lon="26.347170">
<ele>144.224731</ele>
<time>2010-07-17T09:01:11Z</time>
<desc>lat.=55.782227, lon.=26.347170, Alt.=144.224731m. Speed=0.144000m/h.</desc>
<speed>0.040000</speed>
</trkpt>
<trkpt lat="55.782227" lon="26.347172">
<ele>144.213013</ele>
<time>2010-07-17T09:01:12Z</time>
<desc>lat.=55.782227, lon.=26.347172, Alt.=144.213013m. Speed=0.108000m/h.</desc>
<speed>0.030000</speed>
</trkpt>
<trkpt lat="55.782227" lon="26.347172">
<ele>144.201294</ele>
<time>2010-07-17T09:01:13Z</time>
<desc>lat.=55.782227, lon.=26.347172, Alt.=144.201294m. Speed=0.072000m/h.</desc>
<speed>0.020000</speed>
</trkpt>
<trkpt lat="55.782227" lon="26.347172">
<ele>144.189575</ele>
<time>2010-07-17T09:01:14Z</time>
<desc>lat.=55.782227, lon.=26.347172, Alt.=144.189575m. Speed=0.072000m/h.</desc>
<speed>0.020000</speed>
</trkpt>
<trkpt lat="55.782227" lon="26.347172">
<ele>144.181763</ele>
<time>2010-07-17T09:01:15Z</time>
<desc>lat.=55.782227, lon.=26.347172, Alt.=144.181763m. Speed=0.072000m/h.</desc>
<speed>0.020000</speed>
</trkpt>
<trkpt lat="55.782227" lon="26.347172">
<ele>144.170044</ele>
<time>2010-07-17T09:01:16Z</time>
<desc>lat.=55.782227, lon.=26.347172, Alt.=144.170044m. Speed=0.072000m/h.</desc>
<speed>0.020000</speed>
</trkpt>
<trkpt lat="55.782227" lon="26.347172">
<ele>144.166138</ele>
<time>2010-07-17T09:01:17Z</time>
<desc>lat.=55.782227, lon.=26.347172, Alt.=144.166138m. Speed=0.036000m/h.</desc>
<speed>0.010000</speed>
</trkpt>
<trkpt lat="55.782227" lon="26.347172">
<ele>144.162231</ele>
<time>2010-07-17T09:01:18Z</time>
<desc>lat.=55.782227, lon.=26.347172, Alt.=144.162231m. Speed=0.108000m/h.</desc>
<speed>0.030000</speed>
</trkpt>
<trkpt lat="55.782227" lon="26.347172">
<ele>144.158325</ele>
<time>2010-07-17T09:01:19Z</time>
<desc>lat.=55.782227, lon.=26.347172, Alt.=144.158325m. Speed=0.072000m/h.</desc>
<speed>0.020000</speed>
</trkpt>
<trkpt lat="55.782227" lon="26.347172">
<ele>144.158325</ele>
<time>2010-07-17T09:01:20Z</time>
<desc>lat.=55.782227, lon.=26.347172, Alt.=144.158325m. Speed=0.036000m/h.</desc>
<speed>0.010000</speed>
</trkpt>
<trkpt lat="55.782227" lon="26.347172">
<ele>144.154419</ele>
<time>2010-07-17T09:01:21Z</time>
<desc>lat.=55.782227, lon.=26.347172, Alt.=144.154419m. Speed=0.000000m/h.</desc>
<speed>0.000000</speed>
</trkpt>
<trkpt lat="55.782227" lon="26.347172">
<ele>144.146606</ele>
<time>2010-07-17T09:01:22Z</time>
<desc>lat.=55.782227, lon.=26.347172, Alt.=144.146606m. Speed=0.072000m/h.</desc>
<speed>0.020000</speed>
</trkpt>
<trkpt lat="55.782227" lon="26.347172">
<ele>144.138794</ele>
<time>2010-07-17T09:01:23Z</time>
<desc>lat.=55.782227, lon.=26.347172, Alt.=144.138794m. Speed=0.108000m/h.</desc>
<speed>0.030000</speed>
</trkpt>
<trkpt lat="55.782227" lon="26.347172">
<ele>144.134888</ele>
<time>2010-07-17T09:01:24Z</time>
<desc>lat.=55.782227, lon.=26.347172, Alt.=144.134888m. Speed=0.036000m/h.</desc>
<speed>0.010000</speed>
</trkpt>
<trkpt lat="55.782227" lon="26.347174">
<ele>144.127075</ele>
<time>2010-07-17T09:01:25Z</time>
<desc>lat.=55.782227, lon.=26.347174, Alt.=144.127075m. Speed=0.108000m/h.</desc>
<speed>0.030000</speed>
</trkpt>
<trkpt lat="55.782227" lon="26.347174">
<ele>144.115356</ele>
<time>2010-07-17T09:01:26Z</time>
<desc>lat.=55.782227, lon.=26.347174, Alt.=144.115356m. Speed=0.144000m/h.</desc>
<speed>0.040000</speed>
</trkpt>
<trkpt lat="55.782227" lon="26.347174">
<ele>144.107544</ele>
<time>2010-07-17T09:01:27Z</time>
<desc>lat.=55.782227, lon.=26.347174, Alt.=144.107544m. Speed=0.072000m/h.</desc>
<speed>0.020000</speed>
</trkpt>
<trkpt lat="55.782227" lon="26.347174">
<ele>144.103638</ele>
<time>2010-07-17T09:01:28Z</time>
<desc>lat.=55.782227, lon.=26.347174, Alt.=144.103638m. Speed=0.036000m/h.</desc>
<speed>0.010000</speed>
</trkpt>
<trkpt lat="55.782227" lon="26.347174">
<ele>144.095825</ele>
<time>2010-07-17T09:01:29Z</time>
<desc>lat.=55.782227, lon.=26.347174, Alt.=144.095825m. Speed=0.000000m/h.</desc>
<speed>0.000000</speed>
</trkpt>
<trkpt lat="55.782227" lon="26.347174">
<ele>144.091919</ele>
<time>2010-07-17T09:01:30Z</time>
<desc>lat.=55.782227, lon.=26.347174, Alt.=144.091919m. Speed=0.072000m/h.</desc>
<speed>0.020000</speed>
</trkpt>
<trkpt lat="55.782227" lon="26.347174">
<ele>144.080200</ele>
<time>2010-07-17T09:01:31Z</time>
<desc>lat.=55.782227, lon.=26.347174, Alt.=144.080200m. Speed=0.000000m/h.</desc>
<speed>0.000000</speed>
</trkpt>
<trkpt lat="55.782227" lon="26.347174">
<ele>144.064575</ele>
<time>2010-07-17T09:01:32Z</time>
<desc>lat.=55.782227, lon.=26.347174, Alt.=144.064575m. Speed=0.036000m/h.</desc>
<speed>0.010000</speed>
</trkpt>
<trkpt lat="55.782227" lon="26.347174">
<ele>144.056763</ele>
<time>2010-07-17T09:01:33Z</time>
<desc>lat.=55.782227, lon.=26.347174, Alt.=144.056763m. Speed=0.072000m/h.</desc>
<speed>0.020000</speed>
</trkpt>
<trkpt lat="55.782227" lon="26.347174">
<ele>144.048950</ele>
<time>2010-07-17T09:01:34Z</time>
<desc>lat.=55.782227, lon.=26.347174, Alt.=144.048950m. Speed=0.072000m/h.</desc>
<speed>0.020000</speed>
</trkpt>
<trkpt lat="55.782227" lon="26.347174">
<ele>144.037231</ele>
<time>2010-07-17T09:01:35Z</time>
<desc>lat.=55.782227, lon.=26.347174, Alt.=144.037231m. Speed=0.072000m/h.</desc>
<speed>0.020000</speed>
</trkpt>
<trkpt lat="55.782227" lon="26.347174">
<ele>144.029419</ele>
<time>2010-07-17T09:01:36Z</time>
<desc>lat.=55.782227, lon.=26.347174, Alt.=144.029419m. Speed=0.108000m/h.</desc>
<speed>0.030000</speed>
</trkpt>
<trkpt lat="55.782227" lon="26.347174">
<ele>144.021606</ele>
<time>2010-07-17T09:01:37Z</time>
<desc>lat.=55.782227, lon.=26.347174, Alt.=144.021606m. Speed=0.036000m/h.</desc>
<speed>0.010000</speed>
</trkpt>
<trkpt lat="55.782227" lon="26.347174">
<ele>144.009888</ele>
<time>2010-07-17T09:01:38Z</time>
<desc>lat.=55.782227, lon.=26.347174, Alt.=144.009888m. Speed=0.036000m/h.</desc>
<speed>0.010000</speed>
</trkpt>
<trkpt lat="55.782227" lon="26.347174">
<ele>143.998169</ele>
<time>2010-07-17T09:01:39Z</time>
<desc>lat.=55.782227, lon.=26.347174, Alt.=143.998169m. Speed=0.000000m/h.</desc>
<speed>0.000000</speed>
</trkpt>
<trkpt lat="55.782227" lon="26.347174">
<ele>143.982544</ele>
<time>2010-07-17T09:01:40Z</time>
<desc>lat.=55.782227, lon.=26.347174, Alt.=143.982544m. Speed=0.036000m/h.</desc>
<speed>0.010000</speed>
</trkpt>
<trkpt lat="55.782227" lon="26.347174">
<ele>143.963013</ele>
<time>2010-07-17T09:01:41Z</time>
<desc>lat.=55.782227, lon.=26.347174, Alt.=143.963013m. Speed=0.000000m/h.</desc>
<speed>0.000000</speed>
</trkpt>
<trkpt lat="55.782227" lon="26.347174">
<ele>143.943481</ele>
<time>2010-07-17T09:01:42Z</time>
<desc>lat.=55.782227, lon.=26.347174, Alt.=143.943481m. Speed=0.072000m/h.</desc>
<speed>0.020000</speed>
</trkpt>
<trkpt lat="55.782227" lon="26.347174">
<ele>143.931763</ele>
<time>2010-07-17T09:01:43Z</time>
<desc>lat.=55.782227, lon.=26.347174, Alt.=143.931763m. Speed=0.108000m/h.</desc>
<speed>0.030000</speed>
</trkpt>
<trkpt lat="55.782227" lon="26.347174">
<ele>143.923950</ele>
<time>2010-07-17T09:01:44Z</time>
<desc>lat.=55.782227, lon.=26.347174, Alt.=143.923950m. Speed=0.072000m/h.</desc>
<speed>0.020000</speed>
</trkpt>
<trkpt lat="55.782227" lon="26.347174">
<ele>143.877075</ele>
<time>2010-07-17T09:01:45Z</time>
<desc>lat.=55.782227, lon.=26.347174, Alt.=143.877075m. Speed=0.000000m/h.</desc>
<speed>0.000000</speed>
</trkpt>
<trkpt lat="55.782227" lon="26.347174">
<ele>143.834106</ele>
<time>2010-07-17T09:01:46Z</time>
<desc>lat.=55.782227, lon.=26.347174, Alt.=143.834106m. Speed=0.072000m/h.</desc>
<speed>0.020000</speed>
</trkpt>
<trkpt lat="55.782227" lon="26.347174">
<ele>143.826294</ele>
<time>2010-07-17T09:01:47Z</time>
<desc>lat.=55.782227, lon.=26.347174, Alt.=143.826294m. Speed=0.108000m/h.</desc>
<speed>0.030000</speed>
</trkpt>
<trkpt lat="55.782227" lon="26.347174">
<ele>143.806763</ele>
<time>2010-07-17T09:01:48Z</time>
<desc>lat.=55.782227, lon.=26.347174, Alt.=143.806763m. Speed=0.072000m/h.</desc>
<speed>0.020000</speed>
</trkpt>
<trkpt lat="55.782227" lon="26.347174">
<ele>143.791138</ele>
<time>2010-07-17T09:01:49Z</time>
<desc>lat.=55.782227, lon.=26.347174, Alt.=143.791138m. Speed=0.180000m/h.</desc>
<speed>0.050000</speed>
</trkpt>
<trkpt lat="55.782227" lon="26.347174">
<ele>143.779419</ele>
<time>2010-07-17T09:01:50Z</time>
<desc>lat.=55.782227, lon.=26.347174, Alt.=143.779419m. Speed=0.072000m/h.</desc>
<speed>0.020000</speed>
</trkpt>
<trkpt lat="55.782227" lon="26.347174">
<ele>143.771606</ele>
<time>2010-07-17T09:01:51Z</time>
<desc>lat.=55.782227, lon.=26.347174, Alt.=143.771606m. Speed=0.000000m/h.</desc>
<speed>0.000000</speed>
</trkpt>
<trkpt lat="55.782227" lon="26.347174">
<ele>143.763794</ele>
<time>2010-07-17T09:01:52Z</time>
<desc>lat.=55.782227, lon.=26.347174, Alt.=143.763794m. Speed=0.072000m/h.</desc>
<speed>0.020000</speed>
</trkpt>
<trkpt lat="55.782227" lon="26.347174">
<ele>143.752075</ele>
<time>2010-07-17T09:01:53Z</time>
<desc>lat.=55.782227, lon.=26.347174, Alt.=143.752075m. Speed=0.036000m/h.</desc>
<speed>0.010000</speed>
</trkpt>
<trkpt lat="55.782227" lon="26.347174">
<ele>143.748169</ele>
<time>2010-07-17T09:01:54Z</time>
<desc>lat.=55.782227, lon.=26.347174, Alt.=143.748169m. Speed=0.000000m/h.</desc>
<speed>0.000000</speed>
</trkpt>
<trkpt lat="55.782230" lon="26.347174">
<ele>143.736450</ele>
<time>2010-07-17T09:01:55Z</time>
<desc>lat.=55.782230, lon.=26.347174, Alt.=143.736450m. Speed=0.072000m/h.</desc>
<speed>0.020000</speed>
</trkpt>
<trkpt lat="55.782230" lon="26.347174">
<ele>143.728638</ele>
<time>2010-07-17T09:01:56Z</time>
<desc>lat.=55.782230, lon.=26.347174, Alt.=143.728638m. Speed=0.036000m/h.</desc>
<speed>0.010000</speed>
</trkpt>
<trkpt lat="55.782230" lon="26.347174">
<ele>143.724731</ele>
<time>2010-07-17T09:01:57Z</time>
<desc>lat.=55.782230, lon.=26.347174, Alt.=143.724731m. Speed=0.072000m/h.</desc>
<speed>0.020000</speed>
</trkpt>
<trkpt lat="55.782230" lon="26.347174">
<ele>143.728638</ele>
<time>2010-07-17T09:01:58Z</time>
<desc>lat.=55.782230, lon.=26.347174, Alt.=143.728638m. Speed=0.108000m/h.</desc>
<speed>0.030000</speed>
</trkpt>
<trkpt lat="55.782230" lon="26.347174">
<ele>143.728638</ele>
<time>2010-07-17T09:01:59Z</time>
<desc>lat.=55.782230, lon.=26.347174, Alt.=143.728638m. Speed=0.072000m/h.</desc>
<speed>0.020000</speed>
</trkpt>
<trkpt lat="55.782230" lon="26.347174">
<ele>143.728638</ele>
<time>2010-07-17T09:02:00Z</time>
<desc>lat.=55.782230, lon.=26.347174, Alt.=143.728638m. Speed=0.072000m/h.</desc>
<speed>0.020000</speed>
</trkpt>
<trkpt lat="55.782230" lon="26.347174">
<ele>143.732544</ele>
<time>2010-07-17T09:02:01Z</time>
<desc>lat.=55.782230, lon.=26.347174, Alt.=143.732544m. Speed=0.108000m/h.</desc>
<speed>0.030000</speed>
</trkpt>
<trkpt lat="55.782230" lon="26.347174">
<ele>143.736450</ele>
<time>2010-07-17T09:02:02Z</time>
<desc>lat.=55.782230, lon.=26.347174, Alt.=143.736450m. Speed=0.036000m/h.</desc>
<speed>0.010000</speed>
</trkpt>
<trkpt lat="55.782230" lon="26.347174">
<ele>143.744263</ele>
<time>2010-07-17T09:02:03Z</time>
<desc>lat.=55.782230, lon.=26.347174, Alt.=143.744263m. Speed=0.036000m/h.</desc>
<speed>0.010000</speed>
</trkpt>
<trkpt lat="55.782230" lon="26.347174">
<ele>143.748169</ele>
<time>2010-07-17T09:02:04Z</time>
<desc>lat.=55.782230, lon.=26.347174, Alt.=143.748169m. Speed=0.108000m/h.</desc>
<speed>0.030000</speed>
</trkpt>
<trkpt lat="55.782230" lon="26.347174">
<ele>143.755981</ele>
<time>2010-07-17T09:02:05Z</time>
<desc>lat.=55.782230, lon.=26.347174, Alt.=143.755981m. Speed=0.036000m/h.</desc>
<speed>0.010000</speed>
</trkpt>
<trkpt lat="55.782230" lon="26.347174">
<ele>143.759888</ele>
<time>2010-07-17T09:02:06Z</time>
<desc>lat.=55.782230, lon.=26.347174, Alt.=143.759888m. Speed=0.072000m/h.</desc>
<speed>0.020000</speed>
</trkpt>
<trkpt lat="55.782230" lon="26.347174">
<ele>143.759888</ele>
<time>2010-07-17T09:02:07Z</time>
<desc>lat.=55.782230, lon.=26.347174, Alt.=143.759888m. Speed=0.000000m/h.</desc>
<speed>0.000000</speed>
</trkpt>
<trkpt lat="55.782230" lon="26.347174">
<ele>143.763794</ele>
<time>2010-07-17T09:02:08Z</time>
<desc>lat.=55.782230, lon.=26.347174, Alt.=143.763794m. Speed=0.000000m/h.</desc>
<speed>0.000000</speed>
</trkpt>
<trkpt lat="55.782230" lon="26.347174">
<ele>143.763794</ele>
<time>2010-07-17T09:02:09Z</time>
<desc>lat.=55.782230, lon.=26.347174, Alt.=143.763794m. Speed=0.072000m/h.</desc>
<speed>0.020000</speed>
</trkpt>
<trkpt lat="55.782230" lon="26.347174">
<ele>143.763794</ele>
<time>2010-07-17T09:02:10Z</time>
<desc>lat.=55.782230, lon.=26.347174, Alt.=143.763794m. Speed=0.036000m/h.</desc>
<speed>0.010000</speed>
</trkpt>
<trkpt lat="55.782230" lon="26.347174">
<ele>143.759888</ele>
<time>2010-07-17T09:02:11Z</time>
<desc>lat.=55.782230, lon.=26.347174, Alt.=143.759888m. Speed=0.072000m/h.</desc>
<speed>0.020000</speed>
</trkpt>
<trkpt lat="55.782230" lon="26.347174">
<ele>143.759888</ele>
<time>2010-07-17T09:02:12Z</time>
<desc>lat.=55.782230, lon.=26.347174, Alt.=143.759888m. Speed=0.072000m/h.</desc>
<speed>0.020000</speed>
</trkpt>
<trkpt lat="55.782230" lon="26.347174">
<ele>143.759888</ele>
<time>2010-07-17T09:02:13Z</time>
<desc>lat.=55.782230, lon.=26.347174, Alt.=143.759888m. Speed=0.000000m/h.</desc>
<speed>0.000000</speed>
</trkpt>
<trkpt lat="55.782230" lon="26.347174">
<ele>143.752075</ele>
<time>2010-07-17T09:02:14Z</time>
<desc>lat.=55.782230, lon.=26.347174, Alt.=143.752075m. Speed=0.108000m/h.</desc>
<speed>0.030000</speed>
</trkpt>
<trkpt lat="55.782230" lon="26.347174">
<ele>143.736450</ele>
<time>2010-07-17T09:02:15Z</time>
<desc>lat.=55.782230, lon.=26.347174, Alt.=143.736450m. Speed=0.108000m/h.</desc>
<speed>0.030000</speed>
</trkpt>
<trkpt lat="55.782230" lon="26.347174">
<ele>143.720825</ele>
<time>2010-07-17T09:02:16Z</time>
<desc>lat.=55.782230, lon.=26.347174, Alt.=143.720825m. Speed=0.036000m/h.</desc>
<speed>0.010000</speed>
</trkpt>
<trkpt lat="55.782230" lon="26.347174">
<ele>143.709106</ele>
<time>2010-07-17T09:02:17Z</time>
<desc>lat.=55.782230, lon.=26.347174, Alt.=143.709106m. Speed=0.036000m/h.</desc>
<speed>0.010000</speed>
</trkpt>
<trkpt lat="55.782230" lon="26.347174">
<ele>143.701294</ele>
<time>2010-07-17T09:02:18Z</time>
<desc>lat.=55.782230, lon.=26.347174, Alt.=143.701294m. Speed=0.036000m/h.</desc>
<speed>0.010000</speed>
</trkpt>
<trkpt lat="55.782230" lon="26.347174">
<ele>143.677856</ele>
<time>2010-07-17T09:02:19Z</time>
<desc>lat.=55.782230, lon.=26.347174, Alt.=143.677856m. Speed=0.072000m/h.</desc>
<speed>0.020000</speed>
</trkpt>
<trkpt lat="55.782230" lon="26.347174">
<ele>143.673950</ele>
<time>2010-07-17T09:02:20Z</time>
<desc>lat.=55.782230, lon.=26.347174, Alt.=143.673950m. Speed=0.000000m/h.</desc>
<speed>0.000000</speed>
</trkpt>
<trkpt lat="55.782230" lon="26.347174">
<ele>143.662231</ele>
<time>2010-07-17T09:02:21Z</time>
<desc>lat.=55.782230, lon.=26.347174, Alt.=143.662231m. Speed=0.000000m/h.</desc>
<speed>0.000000</speed>
</trkpt>
<trkpt lat="55.782230" lon="26.347174">
<ele>143.646606</ele>
<time>2010-07-17T09:02:22Z</time>
<desc>lat.=55.782230, lon.=26.347174, Alt.=143.646606m. Speed=0.072000m/h.</desc>
<speed>0.020000</speed>
</trkpt>
<trkpt lat="55.782230" lon="26.347176">
<ele>143.630981</ele>
<time>2010-07-17T09:02:23Z</time>
<desc>lat.=55.782230, lon.=26.347176, Alt.=143.630981m. Speed=0.180000m/h.</desc>
<speed>0.050000</speed>
</trkpt>
<trkpt lat="55.782230" lon="26.347176">
<ele>143.603638</ele>
<time>2010-07-17T09:02:24Z</time>
<desc>lat.=55.782230, lon.=26.347176, Alt.=143.603638m. Speed=0.072000m/h.</desc>
<speed>0.020000</speed>
</trkpt>
<trkpt lat="55.782230" lon="26.347176">
<ele>143.564575</ele>
<time>2010-07-17T09:02:25Z</time>
<desc>lat.=55.782230, lon.=26.347176, Alt.=143.564575m. Speed=0.108000m/h.</desc>
<speed>0.030000</speed>
</trkpt>
<trkpt lat="55.782230" lon="26.347176">
<ele>143.529419</ele>
<time>2010-07-17T09:02:26Z</time>
<desc>lat.=55.782230, lon.=26.347176, Alt.=143.529419m. Speed=0.036000m/h.</desc>
<speed>0.010000</speed>
</trkpt>
<trkpt lat="55.782230" lon="26.347176">
<ele>143.517700</ele>
<time>2010-07-17T09:02:27Z</time>
<desc>lat.=55.782230, lon.=26.347176, Alt.=143.517700m. Speed=0.036000m/h.</desc>
<speed>0.010000</speed>
</trkpt>
<trkpt lat="55.782230" lon="26.347176">
<ele>143.517700</ele>
<time>2010-07-17T09:02:28Z</time>
<desc>lat.=55.782230, lon.=26.347176, Alt.=143.517700m. Speed=0.072000m/h.</desc>
<speed>0.020000</speed>
</trkpt>
<trkpt lat="55.782230" lon="26.347176">
<ele>143.509888</ele>
<time>2010-07-17T09:02:29Z</time>
<desc>lat.=55.782230, lon.=26.347176, Alt.=143.509888m. Speed=0.072000m/h.</desc>
<speed>0.020000</speed>
</trkpt>
<trkpt lat="55.782230" lon="26.347176">
<ele>143.486450</ele>
<time>2010-07-17T09:02:30Z</time>
<desc>lat.=55.782230, lon.=26.347176, Alt.=143.486450m. Speed=0.144000m/h.</desc>
<speed>0.040000</speed>
</trkpt>
<trkpt lat="55.782230" lon="26.347176">
<ele>143.482544</ele>
<time>2010-07-17T09:02:31Z</time>
<desc>lat.=55.782230, lon.=26.347176, Alt.=143.482544m. Speed=0.072000m/h.</desc>
<speed>0.020000</speed>
</trkpt>
<trkpt lat="55.782230" lon="26.347176">
<ele>143.470825</ele>
<time>2010-07-17T09:02:32Z</time>
<desc>lat.=55.782230, lon.=26.347176, Alt.=143.470825m. Speed=0.036000m/h.</desc>
<speed>0.010000</speed>
</trkpt>
<trkpt lat="55.782230" lon="26.347176">
<ele>143.455200</ele>
<time>2010-07-17T09:02:33Z</time>
<desc>lat.=55.782230, lon.=26.347176, Alt.=143.455200m. Speed=0.036000m/h.</desc>
<speed>0.010000</speed>
</trkpt>
<trkpt lat="55.782230" lon="26.347176">
<ele>143.443481</ele>
<time>2010-07-17T09:02:34Z</time>
<desc>lat.=55.782230, lon.=26.347176, Alt.=143.443481m. Speed=0.036000m/h.</desc>
<speed>0.010000</speed>
</trkpt>
<trkpt lat="55.782230" lon="26.347176">
<ele>143.439575</ele>
<time>2010-07-17T09:02:35Z</time>
<desc>lat.=55.782230, lon.=26.347176, Alt.=143.439575m. Speed=0.036000m/h.</desc>
<speed>0.010000</speed>
</trkpt>
<trkpt lat="55.782230" lon="26.347176">
<ele>143.420044</ele>
<time>2010-07-17T09:02:36Z</time>
<desc>lat.=55.782230, lon.=26.347176, Alt.=143.420044m. Speed=0.072000m/h.</desc>
<speed>0.020000</speed>
</trkpt>
<trkpt lat="55.782230" lon="26.347176">
<ele>143.412231</ele>
<time>2010-07-17T09:02:37Z</time>
<desc>lat.=55.782230, lon.=26.347176, Alt.=143.412231m. Speed=0.072000m/h.</desc>
<speed>0.020000</speed>
</trkpt>
<trkpt lat="55.782230" lon="26.347176">
<ele>143.396606</ele>
<time>2010-07-17T09:02:38Z</time>
<desc>lat.=55.782230, lon.=26.347176, Alt.=143.396606m. Speed=0.108000m/h.</desc>
<speed>0.030000</speed>
</trkpt>
<trkpt lat="55.782230" lon="26.347176">
<ele>143.388794</ele>
<time>2010-07-17T09:02:39Z</time>
<desc>lat.=55.782230, lon.=26.347176, Alt.=143.388794m. Speed=0.072000m/h.</desc>
<speed>0.020000</speed>
</trkpt>
<trkpt lat="55.782230" lon="26.347176">
<ele>143.384888</ele>
<time>2010-07-17T09:02:40Z</time>
<desc>lat.=55.782230, lon.=26.347176, Alt.=143.384888m. Speed=0.108000m/h.</desc>
<speed>0.030000</speed>
</trkpt>
<trkpt lat="55.782230" lon="26.347176">
<ele>143.380981</ele>
<time>2010-07-17T09:02:41Z</time>
<desc>lat.=55.782230, lon.=26.347176, Alt.=143.380981m. Speed=0.108000m/h.</desc>
<speed>0.030000</speed>
</trkpt>
<trkpt lat="55.782227" lon="26.347176">
<ele>143.373169</ele>
<time>2010-07-17T09:02:42Z</time>
<desc>lat.=55.782227, lon.=26.347176, Alt.=143.373169m. Speed=0.072000m/h.</desc>
<speed>0.020000</speed>
</trkpt>
<trkpt lat="55.782227" lon="26.347176">
<ele>143.369263</ele>
<time>2010-07-17T09:02:43Z</time>
<desc>lat.=55.782227, lon.=26.347176, Alt.=143.369263m. Speed=0.036000m/h.</desc>
<speed>0.010000</speed>
</trkpt>
<trkpt lat="55.782227" lon="26.347176">
<ele>143.361450</ele>
<time>2010-07-17T09:02:44Z</time>
<desc>lat.=55.782227, lon.=26.347176, Alt.=143.361450m. Speed=0.108000m/h.</desc>
<speed>0.030000</speed>
</trkpt>
<trkpt lat="55.782227" lon="26.347176">
<ele>143.357544</ele>
<time>2010-07-17T09:02:45Z</time>
<desc>lat.=55.782227, lon.=26.347176, Alt.=143.357544m. Speed=0.108000m/h.</desc>
<speed>0.030000</speed>
</trkpt>
<trkpt lat="55.782227" lon="26.347176">
<ele>143.361450</ele>
<time>2010-07-17T09:02:46Z</time>
<desc>lat.=55.782227, lon.=26.347176, Alt.=143.361450m. Speed=0.108000m/h.</desc>
<speed>0.030000</speed>
</trkpt>
<trkpt lat="55.782227" lon="26.347176">
<ele>143.365356</ele>
<time>2010-07-17T09:02:47Z</time>
<desc>lat.=55.782227, lon.=26.347176, Alt.=143.365356m. Speed=0.036000m/h.</desc>
<speed>0.010000</speed>
</trkpt>
<trkpt lat="55.782227" lon="26.347176">
<ele>143.369263</ele>
<time>2010-07-17T09:02:48Z</time>
<desc>lat.=55.782227, lon.=26.347176, Alt.=143.369263m. Speed=0.000000m/h.</desc>
<speed>0.000000</speed>
</trkpt>
<trkpt lat="55.782230" lon="26.347176">
<ele>143.373169</ele>
<time>2010-07-17T09:02:49Z</time>
<desc>lat.=55.782230, lon.=26.347176, Alt.=143.373169m. Speed=0.072000m/h.</desc>
<speed>0.020000</speed>
</trkpt>
<trkpt lat="55.782230" lon="26.347176">
<ele>143.388794</ele>
<time>2010-07-17T09:02:50Z</time>
<desc>lat.=55.782230, lon.=26.347176, Alt.=143.388794m. Speed=0.072000m/h.</desc>
<speed>0.020000</speed>
</trkpt>
<trkpt lat="55.782230" lon="26.347174">
<ele>143.392700</ele>
<time>2010-07-17T09:02:51Z</time>
<desc>lat.=55.782230, lon.=26.347174, Alt.=143.392700m. Speed=0.036000m/h.</desc>
<speed>0.010000</speed>
</trkpt>
<trkpt lat="55.782230" lon="26.347174">
<ele>143.392700</ele>
<time>2010-07-17T09:02:52Z</time>
<desc>lat.=55.782230, lon.=26.347174, Alt.=143.392700m. Speed=0.036000m/h.</desc>
<speed>0.010000</speed>
</trkpt>
<trkpt lat="55.782230" lon="26.347174">
<ele>143.396606</ele>
<time>2010-07-17T09:02:53Z</time>
<desc>lat.=55.782230, lon.=26.347174, Alt.=143.396606m. Speed=0.072000m/h.</desc>
<speed>0.020000</speed>
</trkpt>
<trkpt lat="55.782230" lon="26.347174">
<ele>143.388794</ele>
<time>2010-07-17T09:02:54Z</time>
<desc>lat.=55.782230, lon.=26.347174, Alt.=143.388794m. Speed=0.144000m/h.</desc>
<speed>0.040000</speed>
</trkpt>
<trkpt lat="55.782230" lon="26.347174">
<ele>143.384888</ele>
<time>2010-07-17T09:02:55Z</time>
<desc>lat.=55.782230, lon.=26.347174, Alt.=143.384888m. Speed=0.036000m/h.</desc>
<speed>0.010000</speed>
</trkpt>
<trkpt lat="55.782230" lon="26.347174">
<ele>143.388794</ele>
<time>2010-07-17T09:02:56Z</time>
<desc>lat.=55.782230, lon.=26.347174, Alt.=143.388794m. Speed=0.036000m/h.</desc>
<speed>0.010000</speed>
</trkpt>
<trkpt lat="55.782230" lon="26.347174">
<ele>143.388794</ele>
<time>2010-07-17T09:02:57Z</time>
<desc>lat.=55.782230, lon.=26.347174, Alt.=143.388794m. Speed=0.036000m/h.</desc>
<speed>0.010000</speed>
</trkpt>
<trkpt lat="55.782230" lon="26.347174">
<ele>143.384888</ele>
<time>2010-07-17T09:02:58Z</time>
<desc>lat.=55.782230, lon.=26.347174, Alt.=143.384888m. Speed=0.072000m/h.</desc>
<speed>0.020000</speed>
</trkpt>
<trkpt lat="55.782230" lon="26.347174">
<ele>143.384888</ele>
<time>2010-07-17T09:02:59Z</time>
<desc>lat.=55.782230, lon.=26.347174, Alt.=143.384888m. Speed=0.072000m/h.</desc>
<speed>0.020000</speed>
</trkpt>
<trkpt lat="55.782230" lon="26.347174">
<ele>143.392700</ele>
<time>2010-07-17T09:03:00Z</time>
<desc>lat.=55.782230, lon.=26.347174, Alt.=143.392700m. Speed=0.108000m/h.</desc>
<speed>0.030000</speed>
</trkpt>
<trkpt lat="55.782230" lon="26.347174">
<ele>143.396606</ele>
<time>2010-07-17T09:03:01Z</time>
<desc>lat.=55.782230, lon.=26.347174, Alt.=143.396606m. Speed=0.108000m/h.</desc>
<speed>0.030000</speed>
</trkpt>
<trkpt lat="55.782230" lon="26.347174">
<ele>143.392700</ele>
<time>2010-07-17T09:03:02Z</time>
<desc>lat.=55.782230, lon.=26.347174, Alt.=143.392700m. Speed=0.036000m/h.</desc>
<speed>0.010000</speed>
</trkpt>
<trkpt lat="55.782230" lon="26.347174">
<ele>143.392700</ele>
<time>2010-07-17T09:03:03Z</time>
<desc>lat.=55.782230, lon.=26.347174, Alt.=143.392700m. Speed=0.072000m/h.</desc>
<speed>0.020000</speed>
</trkpt>
<trkpt lat="55.782230" lon="26.347172">
<ele>143.396606</ele>
<time>2010-07-17T09:03:04Z</time>
<desc>lat.=55.782230, lon.=26.347172, Alt.=143.396606m. Speed=0.108000m/h.</desc>
<speed>0.030000</speed>
</trkpt>
<trkpt lat="55.782230" lon="26.347172">
<ele>143.388794</ele>
<time>2010-07-17T09:03:05Z</time>
<desc>lat.=55.782230, lon.=26.347172, Alt.=143.388794m. Speed=0.072000m/h.</desc>
<speed>0.020000</speed>
</trkpt>
<trkpt lat="55.782230" lon="26.347172">
<ele>143.384888</ele>
<time>2010-07-17T09:03:06Z</time>
<desc>lat.=55.782230, lon.=26.347172, Alt.=143.384888m. Speed=0.180000m/h.</desc>
<speed>0.050000</speed>
</trkpt>
<trkpt lat="55.782230" lon="26.347172">
<ele>143.384888</ele>
<time>2010-07-17T09:03:07Z</time>
<desc>lat.=55.782230, lon.=26.347172, Alt.=143.384888m. Speed=0.036000m/h.</desc>
<speed>0.010000</speed>
</trkpt>
<trkpt lat="55.782230" lon="26.347172">
<ele>143.384888</ele>
<time>2010-07-17T09:03:08Z</time>
<desc>lat.=55.782230, lon.=26.347172, Alt.=143.384888m. Speed=0.036000m/h.</desc>
<speed>0.010000</speed>
</trkpt>
<trkpt lat="55.782230" lon="26.347172">
<ele>143.384888</ele>
<time>2010-07-17T09:03:09Z</time>
<desc>lat.=55.782230, lon.=26.347172, Alt.=143.384888m. Speed=0.072000m/h.</desc>
<speed>0.020000</speed>
</trkpt>
<trkpt lat="55.782230" lon="26.347172">
<ele>143.384888</ele>
<time>2010-07-17T09:03:10Z</time>
<desc>lat.=55.782230, lon.=26.347172, Alt.=143.384888m. Speed=0.072000m/h.</desc>
<speed>0.020000</speed>
</trkpt>
<trkpt lat="55.782230" lon="26.347172">
<ele>143.377075</ele>
<time>2010-07-17T09:03:11Z</time>
<desc>lat.=55.782230, lon.=26.347172, Alt.=143.377075m. Speed=0.108000m/h.</desc>
<speed>0.030000</speed>
</trkpt>
<trkpt lat="55.782230" lon="26.347172">
<ele>143.373169</ele>
<time>2010-07-17T09:03:12Z</time>
<desc>lat.=55.782230, lon.=26.347172, Alt.=143.373169m. Speed=0.180000m/h.</desc>
<speed>0.050000</speed>
</trkpt>
<trkpt lat="55.782230" lon="26.347170">
<ele>143.365356</ele>
<time>2010-07-17T09:03:13Z</time>
<desc>lat.=55.782230, lon.=26.347170, Alt.=143.365356m. Speed=0.108000m/h.</desc>
<speed>0.030000</speed>
</trkpt>
<trkpt lat="55.782230" lon="26.347170">
<ele>143.353638</ele>
<time>2010-07-17T09:03:14Z</time>
<desc>lat.=55.782230, lon.=26.347170, Alt.=143.353638m. Speed=0.036000m/h.</desc>
<speed>0.010000</speed>
</trkpt>
<trkpt lat="55.782230" lon="26.347170">
<ele>143.349731</ele>
<time>2010-07-17T09:03:15Z</time>
<desc>lat.=55.782230, lon.=26.347170, Alt.=143.349731m. Speed=0.000000m/h.</desc>
<speed>0.000000</speed>
</trkpt>
<trkpt lat="55.782230" lon="26.347170">
<ele>143.349731</ele>
<time>2010-07-17T09:03:16Z</time>
<desc>lat.=55.782230, lon.=26.347170, Alt.=143.349731m. Speed=0.072000m/h.</desc>
<speed>0.020000</speed>
</trkpt>
<trkpt lat="55.782230" lon="26.347170">
<ele>143.349731</ele>
<time>2010-07-17T09:03:17Z</time>
<desc>lat.=55.782230, lon.=26.347170, Alt.=143.349731m. Speed=0.000000m/h.</desc>
<speed>0.000000</speed>
</trkpt>
<trkpt lat="55.782230" lon="26.347170">
<ele>143.345825</ele>
<time>2010-07-17T09:03:18Z</time>
<desc>lat.=55.782230, lon.=26.347170, Alt.=143.345825m. Speed=0.072000m/h.</desc>
<speed>0.020000</speed>
</trkpt>
<trkpt lat="55.782230" lon="26.347170">
<ele>143.334106</ele>
<time>2010-07-17T09:03:19Z</time>
<desc>lat.=55.782230, lon.=26.347170, Alt.=143.334106m. Speed=0.036000m/h.</desc>
<speed>0.010000</speed>
</trkpt>
<trkpt lat="55.782230" lon="26.347170">
<ele>143.322388</ele>
<time>2010-07-17T09:03:20Z</time>
<desc>lat.=55.782230, lon.=26.347170, Alt.=143.322388m. Speed=0.072000m/h.</desc>
<speed>0.020000</speed>
</trkpt>
<trkpt lat="55.782230" lon="26.347170">
<ele>143.310669</ele>
<time>2010-07-17T09:03:21Z</time>
<desc>lat.=55.782230, lon.=26.347170, Alt.=143.310669m. Speed=0.000000m/h.</desc>
<speed>0.000000</speed>
</trkpt>
<trkpt lat="55.782230" lon="26.347170">
<ele>143.302856</ele>
<time>2010-07-17T09:03:22Z</time>
<desc>lat.=55.782230, lon.=26.347170, Alt.=143.302856m. Speed=0.000000m/h.</desc>
<speed>0.000000</speed>
</trkpt>
<trkpt lat="55.782230" lon="26.347170">
<ele>143.295044</ele>
<time>2010-07-17T09:03:23Z</time>
<desc>lat.=55.782230, lon.=26.347170, Alt.=143.295044m. Speed=0.000000m/h.</desc>
<speed>0.000000</speed>
</trkpt>
<trkpt lat="55.782230" lon="26.347170">
<ele>143.287231</ele>
<time>2010-07-17T09:03:24Z</time>
<desc>lat.=55.782230, lon.=26.347170, Alt.=143.287231m. Speed=0.036000m/h.</desc>
<speed>0.010000</speed>
</trkpt>
<trkpt lat="55.782230" lon="26.347170">
<ele>143.283325</ele>
<time>2010-07-17T09:03:25Z</time>
<desc>lat.=55.782230, lon.=26.347170, Alt.=143.283325m. Speed=0.000000m/h.</desc>
<speed>0.000000</speed>
</trkpt>
<trkpt lat="55.782230" lon="26.347170">
<ele>143.279419</ele>
<time>2010-07-17T09:03:26Z</time>
<desc>lat.=55.782230, lon.=26.347170, Alt.=143.279419m. Speed=0.036000m/h.</desc>
<speed>0.010000</speed>
</trkpt>
<trkpt lat="55.782230" lon="26.347172">
<ele>143.271606</ele>
<time>2010-07-17T09:03:27Z</time>
<desc>lat.=55.782230, lon.=26.347172, Alt.=143.271606m. Speed=0.036000m/h.</desc>
<speed>0.010000</speed>
</trkpt>
<trkpt lat="55.782230" lon="26.347172">
<ele>143.252075</ele>
<time>2010-07-17T09:03:28Z</time>
<desc>lat.=55.782230, lon.=26.347172, Alt.=143.252075m. Speed=0.036000m/h.</desc>
<speed>0.010000</speed>
</trkpt>
<trkpt lat="55.782230" lon="26.347172">
<ele>143.244263</ele>
<time>2010-07-17T09:03:29Z</time>
<desc>lat.=55.782230, lon.=26.347172, Alt.=143.244263m. Speed=0.072000m/h.</desc>
<speed>0.020000</speed>
</trkpt>
<trkpt lat="55.782230" lon="26.347172">
<ele>143.236450</ele>
<time>2010-07-17T09:03:30Z</time>
<desc>lat.=55.782230, lon.=26.347172, Alt.=143.236450m. Speed=0.108000m/h.</desc>
<speed>0.030000</speed>
</trkpt>
<trkpt lat="55.782230" lon="26.347172">
<ele>143.228638</ele>
<time>2010-07-17T09:03:31Z</time>
<desc>lat.=55.782230, lon.=26.347172, Alt.=143.228638m. Speed=0.144000m/h.</desc>
<speed>0.040000</speed>
</trkpt>
<trkpt lat="55.782230" lon="26.347172">
<ele>143.213013</ele>
<time>2010-07-17T09:03:32Z</time>
<desc>lat.=55.782230, lon.=26.347172, Alt.=143.213013m. Speed=0.144000m/h.</desc>
<speed>0.040000</speed>
</trkpt>
<trkpt lat="55.782230" lon="26.347172">
<ele>143.201294</ele>
<time>2010-07-17T09:03:33Z</time>
<desc>lat.=55.782230, lon.=26.347172, Alt.=143.201294m. Speed=0.072000m/h.</desc>
<speed>0.020000</speed>
</trkpt>
<trkpt lat="55.782230" lon="26.347172">
<ele>143.185669</ele>
<time>2010-07-17T09:03:34Z</time>
<desc>lat.=55.782230, lon.=26.347172, Alt.=143.185669m. Speed=0.036000m/h.</desc>
<speed>0.010000</speed>
</trkpt>
<trkpt lat="55.782230" lon="26.347172">
<ele>143.170044</ele>
<time>2010-07-17T09:03:35Z</time>
<desc>lat.=55.782230, lon.=26.347172, Alt.=143.170044m. Speed=0.108000m/h.</desc>
<speed>0.030000</speed>
</trkpt>
<trkpt lat="55.782230" lon="26.347172">
<ele>143.154419</ele>
<time>2010-07-17T09:03:36Z</time>
<desc>lat.=55.782230, lon.=26.347172, Alt.=143.154419m. Speed=0.036000m/h.</desc>
<speed>0.010000</speed>
</trkpt>
<trkpt lat="55.782230" lon="26.347174">
<ele>143.134888</ele>
<time>2010-07-17T09:03:37Z</time>
<desc>lat.=55.782230, lon.=26.347174, Alt.=143.134888m. Speed=0.072000m/h.</desc>
<speed>0.020000</speed>
</trkpt>
<trkpt lat="55.782230" lon="26.347174">
<ele>143.115356</ele>
<time>2010-07-17T09:03:38Z</time>
<desc>lat.=55.782230, lon.=26.347174, Alt.=143.115356m. Speed=0.036000m/h.</desc>
<speed>0.010000</speed>
</trkpt>
<trkpt lat="55.782230" lon="26.347174">
<ele>143.103638</ele>
<time>2010-07-17T09:03:39Z</time>
<desc>lat.=55.782230, lon.=26.347174, Alt.=143.103638m. Speed=0.072000m/h.</desc>
<speed>0.020000</speed>
</trkpt>
<trkpt lat="55.782230" lon="26.347174">
<ele>143.084106</ele>
<time>2010-07-17T09:03:40Z</time>
<desc>lat.=55.782230, lon.=26.347174, Alt.=143.084106m. Speed=0.072000m/h.</desc>
<speed>0.020000</speed>
</trkpt>
<trkpt lat="55.782230" lon="26.347174">
<ele>143.060669</ele>
<time>2010-07-17T09:03:41Z</time>
<desc>lat.=55.782230, lon.=26.347174, Alt.=143.060669m. Speed=0.072000m/h.</desc>
<speed>0.020000</speed>
</trkpt>
<trkpt lat="55.782230" lon="26.347174">
<ele>143.037231</ele>
<time>2010-07-17T09:03:42Z</time>
<desc>lat.=55.782230, lon.=26.347174, Alt.=143.037231m. Speed=0.072000m/h.</desc>
<speed>0.020000</speed>
</trkpt>
<trkpt lat="55.782230" lon="26.347174">
<ele>143.005981</ele>
<time>2010-07-17T09:03:43Z</time>
<desc>lat.=55.782230, lon.=26.347174, Alt.=143.005981m. Speed=0.036000m/h.</desc>
<speed>0.010000</speed>
</trkpt>
<trkpt lat="55.782230" lon="26.347174">
<ele>142.982544</ele>
<time>2010-07-17T09:03:44Z</time>
<desc>lat.=55.782230, lon.=26.347174, Alt.=142.982544m. Speed=0.036000m/h.</desc>
<speed>0.010000</speed>
</trkpt>
<trkpt lat="55.782230" lon="26.347174">
<ele>142.947388</ele>
<time>2010-07-17T09:03:45Z</time>
<desc>lat.=55.782230, lon.=26.347174, Alt.=142.947388m. Speed=0.000000m/h.</desc>
<speed>0.000000</speed>
</trkpt>
<trkpt lat="55.782230" lon="26.347174">
<ele>142.916138</ele>
<time>2010-07-17T09:03:46Z</time>
<desc>lat.=55.782230, lon.=26.347174, Alt.=142.916138m. Speed=0.072000m/h.</desc>
<speed>0.020000</speed>
</trkpt>
<trkpt lat="55.782230" lon="26.347174">
<ele>142.900513</ele>
<time>2010-07-17T09:03:47Z</time>
<desc>lat.=55.782230, lon.=26.347174, Alt.=142.900513m. Speed=0.072000m/h.</desc>
<speed>0.020000</speed>
</trkpt>
<trkpt lat="55.782230" lon="26.347174">
<ele>142.861450</ele>
<time>2010-07-17T09:03:48Z</time>
<desc>lat.=55.782230, lon.=26.347174, Alt.=142.861450m. Speed=0.108000m/h.</desc>
<speed>0.030000</speed>
</trkpt>
<trkpt lat="55.782230" lon="26.347174">
<ele>142.838013</ele>
<time>2010-07-17T09:03:49Z</time>
<desc>lat.=55.782230, lon.=26.347174, Alt.=142.838013m. Speed=0.036000m/h.</desc>
<speed>0.010000</speed>
</trkpt>
<trkpt lat="55.782230" lon="26.347174">
<ele>142.814575</ele>
<time>2010-07-17T09:03:50Z</time>
<desc>lat.=55.782230, lon.=26.347174, Alt.=142.814575m. Speed=0.108000m/h.</desc>
<speed>0.030000</speed>
</trkpt>
<trkpt lat="55.782230" lon="26.347174">
<ele>142.806763</ele>
<time>2010-07-17T09:03:51Z</time>
<desc>lat.=55.782230, lon.=26.347174, Alt.=142.806763m. Speed=0.072000m/h.</desc>
<speed>0.020000</speed>
</trkpt>
<trkpt lat="55.782230" lon="26.347174">
<ele>142.798950</ele>
<time>2010-07-17T09:03:52Z</time>
<desc>lat.=55.782230, lon.=26.347174, Alt.=142.798950m. Speed=0.000000m/h.</desc>
<speed>0.000000</speed>
</trkpt>
<trkpt lat="55.782230" lon="26.347174">
<ele>142.763794</ele>
<time>2010-07-17T09:03:53Z</time>
<desc>lat.=55.782230, lon.=26.347174, Alt.=142.763794m. Speed=0.072000m/h.</desc>
<speed>0.020000</speed>
</trkpt>
<trkpt lat="55.782230" lon="26.347174">
<ele>142.759888</ele>
<time>2010-07-17T09:03:54Z</time>
<desc>lat.=55.782230, lon.=26.347174, Alt.=142.759888m. Speed=0.108000m/h.</desc>
<speed>0.030000</speed>
</trkpt>
<trkpt lat="55.782230" lon="26.347174">
<ele>142.724731</ele>
<time>2010-07-17T09:03:55Z</time>
<desc>lat.=55.782230, lon.=26.347174, Alt.=142.724731m. Speed=0.108000m/h.</desc>
<speed>0.030000</speed>
</trkpt>
<trkpt lat="55.782230" lon="26.347172">
<ele>142.685669</ele>
<time>2010-07-17T09:03:56Z</time>
<desc>lat.=55.782230, lon.=26.347172, Alt.=142.685669m. Speed=0.216000m/h.</desc>
<speed>0.060000</speed>
</trkpt>
<trkpt lat="55.782230" lon="26.347172">
<ele>142.666138</ele>
<time>2010-07-17T09:03:57Z</time>
<desc>lat.=55.782230, lon.=26.347172, Alt.=142.666138m. Speed=0.144000m/h.</desc>
<speed>0.040000</speed>
</trkpt>
<trkpt lat="55.782230" lon="26.347172">
<ele>142.662231</ele>
<time>2010-07-17T09:03:58Z</time>
<desc>lat.=55.782230, lon.=26.347172, Alt.=142.662231m. Speed=0.144000m/h.</desc>
<speed>0.040000</speed>
</trkpt>
<trkpt lat="55.782230" lon="26.347172">
<ele>142.611450</ele>
<time>2010-07-17T09:03:59Z</time>
<desc>lat.=55.782230, lon.=26.347172, Alt.=142.611450m. Speed=0.252000m/h.</desc>
<speed>0.070000</speed>
</trkpt>
<trkpt lat="55.782230" lon="26.347172">
<ele>142.607544</ele>
<time>2010-07-17T09:04:00Z</time>
<desc>lat.=55.782230, lon.=26.347172, Alt.=142.607544m. Speed=0.072000m/h.</desc>
<speed>0.020000</speed>
</trkpt>
<trkpt lat="55.782230" lon="26.347172">
<ele>142.588013</ele>
<time>2010-07-17T09:04:01Z</time>
<desc>lat.=55.782230, lon.=26.347172, Alt.=142.588013m. Speed=0.144000m/h.</desc>
<speed>0.040000</speed>
</trkpt>
<trkpt lat="55.782230" lon="26.347172">
<ele>142.588013</ele>
<time>2010-07-17T09:04:02Z</time>
<desc>lat.=55.782230, lon.=26.347172, Alt.=142.588013m. Speed=0.000000m/h.</desc>
<speed>0.000000</speed>
</trkpt>
<trkpt lat="55.782230" lon="26.347172">
<ele>142.588013</ele>
<time>2010-07-17T09:04:03Z</time>
<desc>lat.=55.782230, lon.=26.347172, Alt.=142.588013m. Speed=0.000000m/h.</desc>
<speed>0.000000</speed>
</trkpt>
<trkpt lat="55.782230" lon="26.347172">
<ele>142.588013</ele>
<time>2010-07-17T09:04:04Z</time>
<desc>lat.=55.782230, lon.=26.347172, Alt.=142.588013m. Speed=0.072000m/h.</desc>
<speed>0.020000</speed>
</trkpt>
<trkpt lat="55.782230" lon="26.347172">
<ele>142.564575</ele>
<time>2010-07-17T09:04:05Z</time>
<desc>lat.=55.782230, lon.=26.347172, Alt.=142.564575m. Speed=0.036000m/h.</desc>
<speed>0.010000</speed>
</trkpt>
<trkpt lat="55.782230" lon="26.347172">
<ele>142.537231</ele>
<time>2010-07-17T09:04:06Z</time>
<desc>lat.=55.782230, lon.=26.347172, Alt.=142.537231m. Speed=0.072000m/h.</desc>
<speed>0.020000</speed>
</trkpt>
<trkpt lat="55.782230" lon="26.347172">
<ele>142.513794</ele>
<time>2010-07-17T09:04:07Z</time>
<desc>lat.=55.782230, lon.=26.347172, Alt.=142.513794m. Speed=0.036000m/h.</desc>
<speed>0.010000</speed>
</trkpt>
<trkpt lat="55.782230" lon="26.347172">
<ele>142.490356</ele>
<time>2010-07-17T09:04:08Z</time>
<desc>lat.=55.782230, lon.=26.347172, Alt.=142.490356m. Speed=0.072000m/h.</desc>
<speed>0.020000</speed>
</trkpt>
<trkpt lat="55.782230" lon="26.347172">
<ele>142.482544</ele>
<time>2010-07-17T09:04:09Z</time>
<desc>lat.=55.782230, lon.=26.347172, Alt.=142.482544m. Speed=0.036000m/h.</desc>
<speed>0.010000</speed>
</trkpt>
<trkpt lat="55.782230" lon="26.347172">
<ele>142.463013</ele>
<time>2010-07-17T09:04:10Z</time>
<desc>lat.=55.782230, lon.=26.347172, Alt.=142.463013m. Speed=0.036000m/h.</desc>
<speed>0.010000</speed>
</trkpt>
<trkpt lat="55.782230" lon="26.347172">
<ele>142.443481</ele>
<time>2010-07-17T09:04:11Z</time>
<desc>lat.=55.782230, lon.=26.347172, Alt.=142.443481m. Speed=0.072000m/h.</desc>
<speed>0.020000</speed>
</trkpt>
<trkpt lat="55.782230" lon="26.347172">
<ele>142.412231</ele>
<time>2010-07-17T09:04:12Z</time>
<desc>lat.=55.782230, lon.=26.347172, Alt.=142.412231m. Speed=0.072000m/h.</desc>
<speed>0.020000</speed>
</trkpt>
<trkpt lat="55.782230" lon="26.347172">
<ele>142.392700</ele>
<time>2010-07-17T09:04:13Z</time>
<desc>lat.=55.782230, lon.=26.347172, Alt.=142.392700m. Speed=0.036000m/h.</desc>
<speed>0.010000</speed>
</trkpt>
<trkpt lat="55.782234" lon="26.347172">
<ele>142.380981</ele>
<time>2010-07-17T09:04:14Z</time>
<desc>lat.=55.782234, lon.=26.347172, Alt.=142.380981m. Speed=0.072000m/h.</desc>
<speed>0.020000</speed>
</trkpt>
<trkpt lat="55.782234" lon="26.347172">
<ele>142.365356</ele>
<time>2010-07-17T09:04:15Z</time>
<desc>lat.=55.782234, lon.=26.347172, Alt.=142.365356m. Speed=0.000000m/h.</desc>
<speed>0.000000</speed>
</trkpt>
<trkpt lat="55.782234" lon="26.347172">
<ele>142.357544</ele>
<time>2010-07-17T09:04:16Z</time>
<desc>lat.=55.782234, lon.=26.347172, Alt.=142.357544m. Speed=0.072000m/h.</desc>
<speed>0.020000</speed>
</trkpt>
<trkpt lat="55.782234" lon="26.347172">
<ele>142.345825</ele>
<time>2010-07-17T09:04:17Z</time>
<desc>lat.=55.782234, lon.=26.347172, Alt.=142.345825m. Speed=0.000000m/h.</desc>
<speed>0.000000</speed>
</trkpt>
<trkpt lat="55.782234" lon="26.347172">
<ele>142.349731</ele>
<time>2010-07-17T09:04:18Z</time>
<desc>lat.=55.782234, lon.=26.347172, Alt.=142.349731m. Speed=0.072000m/h.</desc>
<speed>0.020000</speed>
</trkpt>
<trkpt lat="55.782234" lon="26.347172">
<ele>142.353638</ele>
<time>2010-07-17T09:04:19Z</time>
<desc>lat.=55.782234, lon.=26.347172, Alt.=142.353638m. Speed=0.036000m/h.</desc>
<speed>0.010000</speed>
</trkpt>
<trkpt lat="55.782234" lon="26.347172">
<ele>142.357544</ele>
<time>2010-07-17T09:04:20Z</time>
<desc>lat.=55.782234, lon.=26.347172, Alt.=142.357544m. Speed=0.000000m/h.</desc>
<speed>0.000000</speed>
</trkpt>
<trkpt lat="55.782234" lon="26.347172">
<ele>142.349731</ele>
<time>2010-07-17T09:04:21Z</time>
<desc>lat.=55.782234, lon.=26.347172, Alt.=142.349731m. Speed=0.036000m/h.</desc>
<speed>0.010000</speed>
</trkpt>
<trkpt lat="55.782234" lon="26.347172">
<ele>142.345825</ele>
<time>2010-07-17T09:04:22Z</time>
<desc>lat.=55.782234, lon.=26.347172, Alt.=142.345825m. Speed=0.000000m/h.</desc>
<speed>0.000000</speed>
</trkpt>
<trkpt lat="55.782234" lon="26.347172">
<ele>142.341919</ele>
<time>2010-07-17T09:04:23Z</time>
<desc>lat.=55.782234, lon.=26.347172, Alt.=142.341919m. Speed=0.000000m/h.</desc>
<speed>0.000000</speed>
</trkpt>
<trkpt lat="55.782234" lon="26.347172">
<ele>142.345825</ele>
<time>2010-07-17T09:04:24Z</time>
<desc>lat.=55.782234, lon.=26.347172, Alt.=142.345825m. Speed=0.036000m/h.</desc>
<speed>0.010000</speed>
</trkpt>
<trkpt lat="55.782234" lon="26.347172">
<ele>142.349731</ele>
<time>2010-07-17T09:04:25Z</time>
<desc>lat.=55.782234, lon.=26.347172, Alt.=142.349731m. Speed=0.000000m/h.</desc>
<speed>0.000000</speed>
</trkpt>
<trkpt lat="55.782234" lon="26.347172">
<ele>142.349731</ele>
<time>2010-07-17T09:04:26Z</time>
<desc>lat.=55.782234, lon.=26.347172, Alt.=142.349731m. Speed=0.036000m/h.</desc>
<speed>0.010000</speed>
</trkpt>
<trkpt lat="55.782234" lon="26.347172">
<ele>142.345825</ele>
<time>2010-07-17T09:04:27Z</time>
<desc>lat.=55.782234, lon.=26.347172, Alt.=142.345825m. Speed=0.036000m/h.</desc>
<speed>0.010000</speed>
</trkpt>
<trkpt lat="55.782234" lon="26.347172">
<ele>142.341919</ele>
<time>2010-07-17T09:04:28Z</time>
<desc>lat.=55.782234, lon.=26.347172, Alt.=142.341919m. Speed=0.036000m/h.</desc>
<speed>0.010000</speed>
</trkpt>
<trkpt lat="55.782234" lon="26.347172">
<ele>142.338013</ele>
<time>2010-07-17T09:04:29Z</time>
<desc>lat.=55.782234, lon.=26.347172, Alt.=142.338013m. Speed=0.180000m/h.</desc>
<speed>0.050000</speed>
</trkpt>
<trkpt lat="55.782234" lon="26.347172">
<ele>142.330200</ele>
<time>2010-07-17T09:04:30Z</time>
<desc>lat.=55.782234, lon.=26.347172, Alt.=142.330200m. Speed=0.072000m/h.</desc>
<speed>0.020000</speed>
</trkpt>
<trkpt lat="55.782234" lon="26.347172">
<ele>142.322388</ele>
<time>2010-07-17T09:04:31Z</time>
<desc>lat.=55.782234, lon.=26.347172, Alt.=142.322388m. Speed=0.108000m/h.</desc>
<speed>0.030000</speed>
</trkpt>
<trkpt lat="55.782234" lon="26.347170">
<ele>142.310669</ele>
<time>2010-07-17T09:04:32Z</time>
<desc>lat.=55.782234, lon.=26.347170, Alt.=142.310669m. Speed=0.252000m/h.</desc>
<speed>0.070000</speed>
</trkpt>
<trkpt lat="55.782234" lon="26.347170">
<ele>142.310669</ele>
<time>2010-07-17T09:04:33Z</time>
<desc>lat.=55.782234, lon.=26.347170, Alt.=142.310669m. Speed=0.072000m/h.</desc>
<speed>0.020000</speed>
</trkpt>
<trkpt lat="55.782234" lon="26.347170">
<ele>142.306763</ele>
<time>2010-07-17T09:04:34Z</time>
<desc>lat.=55.782234, lon.=26.347170, Alt.=142.306763m. Speed=0.144000m/h.</desc>
<speed>0.040000</speed>
</trkpt>
<trkpt lat="55.782234" lon="26.347170">
<ele>142.298950</ele>
<time>2010-07-17T09:04:35Z</time>
<desc>lat.=55.782234, lon.=26.347170, Alt.=142.298950m. Speed=0.072000m/h.</desc>
<speed>0.020000</speed>
</trkpt>
<trkpt lat="55.782234" lon="26.347170">
<ele>142.291138</ele>
<time>2010-07-17T09:04:36Z</time>
<desc>lat.=55.782234, lon.=26.347170, Alt.=142.291138m. Speed=0.072000m/h.</desc>
<speed>0.020000</speed>
</trkpt>
<trkpt lat="55.782234" lon="26.347170">
<ele>142.287231</ele>
<time>2010-07-17T09:04:37Z</time>
<desc>lat.=55.782234, lon.=26.347170, Alt.=142.287231m. Speed=0.036000m/h.</desc>
<speed>0.010000</speed>
</trkpt>
<trkpt lat="55.782234" lon="26.347170">
<ele>142.279419</ele>
<time>2010-07-17T09:04:38Z</time>
<desc>lat.=55.782234, lon.=26.347170, Alt.=142.279419m. Speed=0.000000m/h.</desc>
<speed>0.000000</speed>
</trkpt>
<trkpt lat="55.782234" lon="26.347170">
<ele>142.267700</ele>
<time>2010-07-17T09:04:39Z</time>
<desc>lat.=55.782234, lon.=26.347170, Alt.=142.267700m. Speed=0.000000m/h.</desc>
<speed>0.000000</speed>
</trkpt>
<trkpt lat="55.782234" lon="26.347170">
<ele>142.240356</ele>
<time>2010-07-17T09:04:40Z</time>
<desc>lat.=55.782234, lon.=26.347170, Alt.=142.240356m. Speed=0.000000m/h.</desc>
<speed>0.000000</speed>
</trkpt>
<trkpt lat="55.782234" lon="26.347170">
<ele>142.224731</ele>
<time>2010-07-17T09:04:41Z</time>
<desc>lat.=55.782234, lon.=26.347170, Alt.=142.224731m. Speed=0.000000m/h.</desc>
<speed>0.000000</speed>
</trkpt>
<trkpt lat="55.782234" lon="26.347170">
<ele>142.216919</ele>
<time>2010-07-17T09:04:42Z</time>
<desc>lat.=55.782234, lon.=26.347170, Alt.=142.216919m. Speed=0.108000m/h.</desc>
<speed>0.030000</speed>
</trkpt>
<trkpt lat="55.782234" lon="26.347170">
<ele>142.201294</ele>
<time>2010-07-17T09:04:43Z</time>
<desc>lat.=55.782234, lon.=26.347170, Alt.=142.201294m. Speed=0.000000m/h.</desc>
<speed>0.000000</speed>
</trkpt>
<trkpt lat="55.782234" lon="26.347170">
<ele>142.181763</ele>
<time>2010-07-17T09:04:44Z</time>
<desc>lat.=55.782234, lon.=26.347170, Alt.=142.181763m. Speed=0.036000m/h.</desc>
<speed>0.010000</speed>
</trkpt>
<trkpt lat="55.782234" lon="26.347170">
<ele>142.166138</ele>
<time>2010-07-17T09:04:45Z</time>
<desc>lat.=55.782234, lon.=26.347170, Alt.=142.166138m. Speed=0.072000m/h.</desc>
<speed>0.020000</speed>
</trkpt>
<trkpt lat="55.782234" lon="26.347170">
<ele>142.154419</ele>
<time>2010-07-17T09:04:46Z</time>
<desc>lat.=55.782234, lon.=26.347170, Alt.=142.154419m. Speed=0.108000m/h.</desc>
<speed>0.030000</speed>
</trkpt>
<trkpt lat="55.782234" lon="26.347170">
<ele>142.127075</ele>
<time>2010-07-17T09:04:47Z</time>
<desc>lat.=55.782234, lon.=26.347170, Alt.=142.127075m. Speed=0.036000m/h.</desc>
<speed>0.010000</speed>
</trkpt>
<trkpt lat="55.782234" lon="26.347170">
<ele>142.099731</ele>
<time>2010-07-17T09:04:48Z</time>
<desc>lat.=55.782234, lon.=26.347170, Alt.=142.099731m. Speed=0.000000m/h.</desc>
<speed>0.000000</speed>
</trkpt>
<trkpt lat="55.782234" lon="26.347170">
<ele>142.084106</ele>
<time>2010-07-17T09:04:49Z</time>
<desc>lat.=55.782234, lon.=26.347170, Alt.=142.084106m. Speed=0.072000m/h.</desc>
<speed>0.020000</speed>
</trkpt>
<trkpt lat="55.782234" lon="26.347170">
<ele>142.045044</ele>
<time>2010-07-17T09:04:50Z</time>
<desc>lat.=55.782234, lon.=26.347170, Alt.=142.045044m. Speed=0.036000m/h.</desc>
<speed>0.010000</speed>
</trkpt>
<trkpt lat="55.782234" lon="26.347170">
<ele>141.998169</ele>
<time>2010-07-17T09:04:51Z</time>
<desc>lat.=55.782234, lon.=26.347170, Alt.=141.998169m. Speed=0.000000m/h.</desc>
<speed>0.000000</speed>
</trkpt>
<trkpt lat="55.782234" lon="26.347170">
<ele>141.947388</ele>
<time>2010-07-17T09:04:52Z</time>
<desc>lat.=55.782234, lon.=26.347170, Alt.=141.947388m. Speed=0.036000m/h.</desc>
<speed>0.010000</speed>
</trkpt>
<trkpt lat="55.782234" lon="26.347170">
<ele>141.927856</ele>
<time>2010-07-17T09:04:53Z</time>
<desc>lat.=55.782234, lon.=26.347170, Alt.=141.927856m. Speed=0.000000m/h.</desc>
<speed>0.000000</speed>
</trkpt>
<trkpt lat="55.782234" lon="26.347170">
<ele>141.912231</ele>
<time>2010-07-17T09:04:54Z</time>
<desc>lat.=55.782234, lon.=26.347170, Alt.=141.912231m. Speed=0.036000m/h.</desc>
<speed>0.010000</speed>
</trkpt>
<trkpt lat="55.782234" lon="26.347170">
<ele>141.888794</ele>
<time>2010-07-17T09:04:55Z</time>
<desc>lat.=55.782234, lon.=26.347170, Alt.=141.888794m. Speed=0.000000m/h.</desc>
<speed>0.000000</speed>
</trkpt>
<trkpt lat="55.782234" lon="26.347172">
<ele>141.873169</ele>
<time>2010-07-17T09:04:56Z</time>
<desc>lat.=55.782234, lon.=26.347172, Alt.=141.873169m. Speed=0.036000m/h.</desc>
<speed>0.010000</speed>
</trkpt>
<trkpt lat="55.782234" lon="26.347172">
<ele>141.853638</ele>
<time>2010-07-17T09:04:57Z</time>
<desc>lat.=55.782234, lon.=26.347172, Alt.=141.853638m. Speed=0.000000m/h.</desc>
<speed>0.000000</speed>
</trkpt>
<trkpt lat="55.782234" lon="26.347172">
<ele>141.841919</ele>
<time>2010-07-17T09:04:58Z</time>
<desc>lat.=55.782234, lon.=26.347172, Alt.=141.841919m. Speed=0.000000m/h.</desc>
<speed>0.000000</speed>
</trkpt>
<trkpt lat="55.782234" lon="26.347172">
<ele>141.830200</ele>
<time>2010-07-17T09:04:59Z</time>
<desc>lat.=55.782234, lon.=26.347172, Alt.=141.830200m. Speed=0.000000m/h.</desc>
<speed>0.000000</speed>
</trkpt>
<trkpt lat="55.782234" lon="26.347172">
<ele>141.814575</ele>
<time>2010-07-17T09:05:00Z</time>
<desc>lat.=55.782234, lon.=26.347172, Alt.=141.814575m. Speed=0.108000m/h.</desc>
<speed>0.030000</speed>
</trkpt>
<trkpt lat="55.782234" lon="26.347172">
<ele>141.798950</ele>
<time>2010-07-17T09:05:01Z</time>
<desc>lat.=55.782234, lon.=26.347172, Alt.=141.798950m. Speed=0.036000m/h.</desc>
<speed>0.010000</speed>
</trkpt>
<trkpt lat="55.782234" lon="26.347172">
<ele>141.787231</ele>
<time>2010-07-17T09:05:02Z</time>
<desc>lat.=55.782234, lon.=26.347172, Alt.=141.787231m. Speed=0.036000m/h.</desc>
<speed>0.010000</speed>
</trkpt>
<trkpt lat="55.782234" lon="26.347172">
<ele>141.779419</ele>
<time>2010-07-17T09:05:03Z</time>
<desc>lat.=55.782234, lon.=26.347172, Alt.=141.779419m. Speed=0.108000m/h.</desc>
<speed>0.030000</speed>
</trkpt>
<trkpt lat="55.782234" lon="26.347172">
<ele>141.775513</ele>
<time>2010-07-17T09:05:04Z</time>
<desc>lat.=55.782234, lon.=26.347172, Alt.=141.775513m. Speed=0.000000m/h.</desc>
<speed>0.000000</speed>
</trkpt>
<trkpt lat="55.782234" lon="26.347172">
<ele>141.771606</ele>
<time>2010-07-17T09:05:05Z</time>
<desc>lat.=55.782234, lon.=26.347172, Alt.=141.771606m. Speed=0.036000m/h.</desc>
<speed>0.010000</speed>
</trkpt>
<trkpt lat="55.782234" lon="26.347172">
<ele>141.759888</ele>
<time>2010-07-17T09:05:06Z</time>
<desc>lat.=55.782234, lon.=26.347172, Alt.=141.759888m. Speed=0.036000m/h.</desc>
<speed>0.010000</speed>
</trkpt>
<trkpt lat="55.782234" lon="26.347172">
<ele>141.752075</ele>
<time>2010-07-17T09:05:07Z</time>
<desc>lat.=55.782234, lon.=26.347172, Alt.=141.752075m. Speed=0.036000m/h.</desc>
<speed>0.010000</speed>
</trkpt>
<trkpt lat="55.782234" lon="26.347172">
<ele>141.736450</ele>
<time>2010-07-17T09:05:08Z</time>
<desc>lat.=55.782234, lon.=26.347172, Alt.=141.736450m. Speed=0.072000m/h.</desc>
<speed>0.020000</speed>
</trkpt>
<trkpt lat="55.782234" lon="26.347172">
<ele>141.724731</ele>
<time>2010-07-17T09:05:09Z</time>
<desc>lat.=55.782234, lon.=26.347172, Alt.=141.724731m. Speed=0.036000m/h.</desc>
<speed>0.010000</speed>
</trkpt>
<trkpt lat="55.782234" lon="26.347172">
<ele>141.713013</ele>
<time>2010-07-17T09:05:10Z</time>
<desc>lat.=55.782234, lon.=26.347172, Alt.=141.713013m. Speed=0.000000m/h.</desc>
<speed>0.000000</speed>
</trkpt>
<trkpt lat="55.782234" lon="26.347172">
<ele>141.705200</ele>
<time>2010-07-17T09:05:11Z</time>
<desc>lat.=55.782234, lon.=26.347172, Alt.=141.705200m. Speed=0.036000m/h.</desc>
<speed>0.010000</speed>
</trkpt>
<trkpt lat="55.782234" lon="26.347172">
<ele>141.689575</ele>
<time>2010-07-17T09:05:12Z</time>
<desc>lat.=55.782234, lon.=26.347172, Alt.=141.689575m. Speed=0.036000m/h.</desc>
<speed>0.010000</speed>
</trkpt>
<trkpt lat="55.782234" lon="26.347172">
<ele>141.673950</ele>
<time>2010-07-17T09:05:13Z</time>
<desc>lat.=55.782234, lon.=26.347172, Alt.=141.673950m. Speed=0.036000m/h.</desc>
<speed>0.010000</speed>
</trkpt>
<trkpt lat="55.782234" lon="26.347172">
<ele>141.654419</ele>
<time>2010-07-17T09:05:14Z</time>
<desc>lat.=55.782234, lon.=26.347172, Alt.=141.654419m. Speed=0.072000m/h.</desc>
<speed>0.020000</speed>
</trkpt>
<trkpt lat="55.782234" lon="26.347172">
<ele>141.634888</ele>
<time>2010-07-17T09:05:15Z</time>
<desc>lat.=55.782234, lon.=26.347172, Alt.=141.634888m. Speed=0.000000m/h.</desc>
<speed>0.000000</speed>
</trkpt>
<trkpt lat="55.782234" lon="26.347172">
<ele>141.619263</ele>
<time>2010-07-17T09:05:16Z</time>
<desc>lat.=55.782234, lon.=26.347172, Alt.=141.619263m. Speed=0.000000m/h.</desc>
<speed>0.000000</speed>
</trkpt>
<trkpt lat="55.782234" lon="26.347172">
<ele>141.599731</ele>
<time>2010-07-17T09:05:17Z</time>
<desc>lat.=55.782234, lon.=26.347172, Alt.=141.599731m. Speed=0.036000m/h.</desc>
<speed>0.010000</speed>
</trkpt>
<trkpt lat="55.782234" lon="26.347172">
<ele>141.584106</ele>
<time>2010-07-17T09:05:18Z</time>
<desc>lat.=55.782234, lon.=26.347172, Alt.=141.584106m. Speed=0.000000m/h.</desc>
<speed>0.000000</speed>
</trkpt>
<trkpt lat="55.782234" lon="26.347172">
<ele>141.576294</ele>
<time>2010-07-17T09:05:19Z</time>
<desc>lat.=55.782234, lon.=26.347172, Alt.=141.576294m. Speed=0.036000m/h.</desc>
<speed>0.010000</speed>
</trkpt>
<trkpt lat="55.782234" lon="26.347172">
<ele>141.560669</ele>
<time>2010-07-17T09:05:20Z</time>
<desc>lat.=55.782234, lon.=26.347172, Alt.=141.560669m. Speed=0.108000m/h.</desc>
<speed>0.030000</speed>
</trkpt>
<trkpt lat="55.782234" lon="26.347172">
<ele>141.548950</ele>
<time>2010-07-17T09:05:21Z</time>
<desc>lat.=55.782234, lon.=26.347172, Alt.=141.548950m. Speed=0.000000m/h.</desc>
<speed>0.000000</speed>
</trkpt>
<trkpt lat="55.782234" lon="26.347172">
<ele>141.537231</ele>
<time>2010-07-17T09:05:22Z</time>
<desc>lat.=55.782234, lon.=26.347172, Alt.=141.537231m. Speed=0.072000m/h.</desc>
<speed>0.020000</speed>
</trkpt>
<trkpt lat="55.782234" lon="26.347172">
<ele>141.525513</ele>
<time>2010-07-17T09:05:23Z</time>
<desc>lat.=55.782234, lon.=26.347172, Alt.=141.525513m. Speed=0.000000m/h.</desc>
<speed>0.000000</speed>
</trkpt>
<trkpt lat="55.782234" lon="26.347172">
<ele>141.517700</ele>
<time>2010-07-17T09:05:24Z</time>
<desc>lat.=55.782234, lon.=26.347172, Alt.=141.517700m. Speed=0.036000m/h.</desc>
<speed>0.010000</speed>
</trkpt>
<trkpt lat="55.782234" lon="26.347172">
<ele>141.513794</ele>
<time>2010-07-17T09:05:25Z</time>
<desc>lat.=55.782234, lon.=26.347172, Alt.=141.513794m. Speed=0.000000m/h.</desc>
<speed>0.000000</speed>
</trkpt>
<trkpt lat="55.782234" lon="26.347172">
<ele>141.509888</ele>
<time>2010-07-17T09:05:26Z</time>
<desc>lat.=55.782234, lon.=26.347172, Alt.=141.509888m. Speed=0.000000m/h.</desc>
<speed>0.000000</speed>
</trkpt>
<trkpt lat="55.782234" lon="26.347172">
<ele>141.498169</ele>
<time>2010-07-17T09:05:27Z</time>
<desc>lat.=55.782234, lon.=26.347172, Alt.=141.498169m. Speed=0.000000m/h.</desc>
<speed>0.000000</speed>
</trkpt>
<trkpt lat="55.782234" lon="26.347172">
<ele>141.498169</ele>
<time>2010-07-17T09:05:28Z</time>
<desc>lat.=55.782234, lon.=26.347172, Alt.=141.498169m. Speed=0.000000m/h.</desc>
<speed>0.000000</speed>
</trkpt>
<trkpt lat="55.782234" lon="26.347172">
<ele>141.494263</ele>
<time>2010-07-17T09:05:29Z</time>
<desc>lat.=55.782234, lon.=26.347172, Alt.=141.494263m. Speed=0.036000m/h.</desc>
<speed>0.010000</speed>
</trkpt>
<trkpt lat="55.782234" lon="26.347172">
<ele>141.490356</ele>
<time>2010-07-17T09:05:30Z</time>
<desc>lat.=55.782234, lon.=26.347172, Alt.=141.490356m. Speed=0.072000m/h.</desc>
<speed>0.020000</speed>
</trkpt>
<trkpt lat="55.782234" lon="26.347172">
<ele>141.486450</ele>
<time>2010-07-17T09:05:31Z</time>
<desc>lat.=55.782234, lon.=26.347172, Alt.=141.486450m. Speed=0.036000m/h.</desc>
<speed>0.010000</speed>
</trkpt>
<trkpt lat="55.782234" lon="26.347172">
<ele>141.474731</ele>
<time>2010-07-17T09:05:32Z</time>
<desc>lat.=55.782234, lon.=26.347172, Alt.=141.474731m. Speed=0.036000m/h.</desc>
<speed>0.010000</speed>
</trkpt>
<trkpt lat="55.782234" lon="26.347172">
<ele>141.470825</ele>
<time>2010-07-17T09:05:33Z</time>
<desc>lat.=55.782234, lon.=26.347172, Alt.=141.470825m. Speed=0.000000m/h.</desc>
<speed>0.000000</speed>
</trkpt>
<trkpt lat="55.782234" lon="26.347172">
<ele>141.466919</ele>
<time>2010-07-17T09:05:34Z</time>
<desc>lat.=55.782234, lon.=26.347172, Alt.=141.466919m. Speed=0.036000m/h.</desc>
<speed>0.010000</speed>
</trkpt>
<trkpt lat="55.782234" lon="26.347172">
<ele>141.459106</ele>
<time>2010-07-17T09:05:35Z</time>
<desc>lat.=55.782234, lon.=26.347172, Alt.=141.459106m. Speed=0.000000m/h.</desc>
<speed>0.000000</speed>
</trkpt>
<trkpt lat="55.782234" lon="26.347172">
<ele>141.451294</ele>
<time>2010-07-17T09:05:36Z</time>
<desc>lat.=55.782234, lon.=26.347172, Alt.=141.451294m. Speed=0.072000m/h.</desc>
<speed>0.020000</speed>
</trkpt>
<trkpt lat="55.782234" lon="26.347172">
<ele>141.447388</ele>
<time>2010-07-17T09:05:37Z</time>
<desc>lat.=55.782234, lon.=26.347172, Alt.=141.447388m. Speed=0.036000m/h.</desc>
<speed>0.010000</speed>
</trkpt>
<trkpt lat="55.782234" lon="26.347172">
<ele>141.443481</ele>
<time>2010-07-17T09:05:38Z</time>
<desc>lat.=55.782234, lon.=26.347172, Alt.=141.443481m. Speed=0.036000m/h.</desc>
<speed>0.010000</speed>
</trkpt>
<trkpt lat="55.782234" lon="26.347172">
<ele>141.443481</ele>
<time>2010-07-17T09:05:39Z</time>
<desc>lat.=55.782234, lon.=26.347172, Alt.=141.443481m. Speed=0.036000m/h.</desc>
<speed>0.010000</speed>
</trkpt>
<trkpt lat="55.782234" lon="26.347172">
<ele>141.443481</ele>
<time>2010-07-17T09:05:40Z</time>
<desc>lat.=55.782234, lon.=26.347172, Alt.=141.443481m. Speed=0.036000m/h.</desc>
<speed>0.010000</speed>
</trkpt>
<trkpt lat="55.782234" lon="26.347172">
<ele>141.447388</ele>
<time>2010-07-17T09:05:41Z</time>
<desc>lat.=55.782234, lon.=26.347172, Alt.=141.447388m. Speed=0.036000m/h.</desc>
<speed>0.010000</speed>
</trkpt>
<trkpt lat="55.782234" lon="26.347172">
<ele>141.447388</ele>
<time>2010-07-17T09:05:42Z</time>
<desc>lat.=55.782234, lon.=26.347172, Alt.=141.447388m. Speed=0.036000m/h.</desc>
<speed>0.010000</speed>
</trkpt>
<trkpt lat="55.782234" lon="26.347172">
<ele>141.443481</ele>
<time>2010-07-17T09:05:43Z</time>
<desc>lat.=55.782234, lon.=26.347172, Alt.=141.443481m. Speed=0.108000m/h.</desc>
<speed>0.030000</speed>
</trkpt>
<trkpt lat="55.782234" lon="26.347172">
<ele>141.439575</ele>
<time>2010-07-17T09:05:44Z</time>
<desc>lat.=55.782234, lon.=26.347172, Alt.=141.439575m. Speed=0.144000m/h.</desc>
<speed>0.040000</speed>
</trkpt>
<trkpt lat="55.782234" lon="26.347170">
<ele>141.435669</ele>
<time>2010-07-17T09:05:45Z</time>
<desc>lat.=55.782234, lon.=26.347170, Alt.=141.435669m. Speed=0.180000m/h.</desc>
<speed>0.050000</speed>
</trkpt>
<trkpt lat="55.782234" lon="26.347170">
<ele>141.431763</ele>
<time>2010-07-17T09:05:46Z</time>
<desc>lat.=55.782234, lon.=26.347170, Alt.=141.431763m. Speed=0.288000m/h.</desc>
<speed>0.080000</speed>
</trkpt>
<trkpt lat="55.782234" lon="26.347168">
<ele>141.427856</ele>
<time>2010-07-17T09:05:47Z</time>
<desc>lat.=55.782234, lon.=26.347168, Alt.=141.427856m. Speed=0.360000m/h.</desc>
<speed>0.100000</speed>
</trkpt>
<trkpt lat="55.782238" lon="26.347166">
<ele>141.423950</ele>
<time>2010-07-17T09:05:48Z</time>
<desc>lat.=55.782238, lon.=26.347166, Alt.=141.423950m. Speed=0.360000m/h.</desc>
<speed>0.100000</speed>
</trkpt>
<trkpt lat="55.782238" lon="26.347166">
<ele>141.420044</ele>
<time>2010-07-17T09:05:49Z</time>
<desc>lat.=55.782238, lon.=26.347166, Alt.=141.420044m. Speed=0.324000m/h.</desc>
<speed>0.090000</speed>
</trkpt>
<trkpt lat="55.782238" lon="26.347164">
<ele>141.416138</ele>
<time>2010-07-17T09:05:50Z</time>
<desc>lat.=55.782238, lon.=26.347164, Alt.=141.416138m. Speed=0.396000m/h.</desc>
<speed>0.110000</speed>
</trkpt>
<trkpt lat="55.782238" lon="26.347162">
<ele>141.412231</ele>
<time>2010-07-17T09:05:51Z</time>
<desc>lat.=55.782238, lon.=26.347162, Alt.=141.412231m. Speed=0.432000m/h.</desc>
<speed>0.120000</speed>
</trkpt>
<trkpt lat="55.782238" lon="26.347162">
<ele>141.412231</ele>
<time>2010-07-17T09:05:52Z</time>
<desc>lat.=55.782238, lon.=26.347162, Alt.=141.412231m. Speed=0.432000m/h.</desc>
<speed>0.120000</speed>
</trkpt>
<trkpt lat="55.782242" lon="26.347160">
<ele>141.412231</ele>
<time>2010-07-17T09:05:53Z</time>
<desc>lat.=55.782242, lon.=26.347160, Alt.=141.412231m. Speed=0.360000m/h.</desc>
<speed>0.100000</speed>
</trkpt>
<trkpt lat="55.782242" lon="26.347158">
<ele>141.408325</ele>
<time>2010-07-17T09:05:54Z</time>
<desc>lat.=55.782242, lon.=26.347158, Alt.=141.408325m. Speed=0.360000m/h.</desc>
<speed>0.100000</speed>
</trkpt>
<trkpt lat="55.782242" lon="26.347158">
<ele>141.408325</ele>
<time>2010-07-17T09:05:55Z</time>
<desc>lat.=55.782242, lon.=26.347158, Alt.=141.408325m. Speed=0.396000m/h.</desc>
<speed>0.110000</speed>
</trkpt>
<trkpt lat="55.782242" lon="26.347158">
<ele>141.408325</ele>
<time>2010-07-17T09:05:56Z</time>
<desc>lat.=55.782242, lon.=26.347158, Alt.=141.408325m. Speed=0.288000m/h.</desc>
<speed>0.080000</speed>
</trkpt>
<trkpt lat="55.782242" lon="26.347157">
<ele>141.400513</ele>
<time>2010-07-17T09:05:57Z</time>
<desc>lat.=55.782242, lon.=26.347157, Alt.=141.400513m. Speed=0.252000m/h.</desc>
<speed>0.070000</speed>
</trkpt>
<trkpt lat="55.782246" lon="26.347157">
<ele>141.392700</ele>
<time>2010-07-17T09:05:58Z</time>
<desc>lat.=55.782246, lon.=26.347157, Alt.=141.392700m. Speed=0.180000m/h.</desc>
<speed>0.050000</speed>
</trkpt>
<trkpt lat="55.782246" lon="26.347157">
<ele>141.384888</ele>
<time>2010-07-17T09:05:59Z</time>
<desc>lat.=55.782246, lon.=26.347157, Alt.=141.384888m. Speed=0.180000m/h.</desc>
<speed>0.050000</speed>
</trkpt>
<trkpt lat="55.782246" lon="26.347157">
<ele>141.380981</ele>
<time>2010-07-17T09:06:00Z</time>
<desc>lat.=55.782246, lon.=26.347157, Alt.=141.380981m. Speed=0.144000m/h.</desc>
<speed>0.040000</speed>
</trkpt>
<trkpt lat="55.782246" lon="26.347157">
<ele>141.361450</ele>
<time>2010-07-17T09:06:01Z</time>
<desc>lat.=55.782246, lon.=26.347157, Alt.=141.361450m. Speed=0.108000m/h.</desc>
<speed>0.030000</speed>
</trkpt>
<trkpt lat="55.782246" lon="26.347155">
<ele>141.345825</ele>
<time>2010-07-17T09:06:02Z</time>
<desc>lat.=55.782246, lon.=26.347155, Alt.=141.345825m. Speed=0.072000m/h.</desc>
<speed>0.020000</speed>
</trkpt>
<trkpt lat="55.782246" lon="26.347155">
<ele>141.318481</ele>
<time>2010-07-17T09:06:03Z</time>
<desc>lat.=55.782246, lon.=26.347155, Alt.=141.318481m. Speed=0.036000m/h.</desc>
<speed>0.010000</speed>
</trkpt>
<trkpt lat="55.782246" lon="26.347155">
<ele>141.263794</ele>
<time>2010-07-17T09:06:04Z</time>
<desc>lat.=55.782246, lon.=26.347155, Alt.=141.263794m. Speed=0.072000m/h.</desc>
<speed>0.020000</speed>
</trkpt>
<trkpt lat="55.782246" lon="26.347155">
<ele>141.209106</ele>
<time>2010-07-17T09:06:05Z</time>
<desc>lat.=55.782246, lon.=26.347155, Alt.=141.209106m. Speed=0.216000m/h.</desc>
<speed>0.060000</speed>
</trkpt>
<trkpt lat="55.782246" lon="26.347155">
<ele>141.127075</ele>
<time>2010-07-17T09:06:06Z</time>
<desc>lat.=55.782246, lon.=26.347155, Alt.=141.127075m. Speed=0.144000m/h.</desc>
<speed>0.040000</speed>
</trkpt>
<trkpt lat="55.782246" lon="26.347155">
<ele>140.998169</ele>
<time>2010-07-17T09:06:07Z</time>
<desc>lat.=55.782246, lon.=26.347155, Alt.=140.998169m. Speed=0.360000m/h.</desc>
<speed>0.100000</speed>
</trkpt>
<trkpt lat="55.782246" lon="26.347151">
<ele>140.888794</ele>
<time>2010-07-17T09:06:08Z</time>
<desc>lat.=55.782246, lon.=26.347151, Alt.=140.888794m. Speed=0.540000m/h.</desc>
<speed>0.150000</speed>
</trkpt>
<trkpt lat="55.782246" lon="26.347151">
<ele>140.740356</ele>
<time>2010-07-17T09:06:09Z</time>
<desc>lat.=55.782246, lon.=26.347151, Alt.=140.740356m. Speed=0.576000m/h.</desc>
<speed>0.160000</speed>
</trkpt>
<trkpt lat="55.782242" lon="26.347147">
<ele>140.607544</ele>
<time>2010-07-17T09:06:10Z</time>
<desc>lat.=55.782242, lon.=26.347147, Alt.=140.607544m. Speed=0.720000m/h.</desc>
<speed>0.200000</speed>
</trkpt>
<trkpt lat="55.782242" lon="26.347143">
<ele>140.466919</ele>
<time>2010-07-17T09:06:11Z</time>
<desc>lat.=55.782242, lon.=26.347143, Alt.=140.466919m. Speed=0.792000m/h.</desc>
<speed>0.220000</speed>
</trkpt>
<trkpt lat="55.782242" lon="26.347139">
<ele>140.326294</ele>
<time>2010-07-17T09:06:12Z</time>
<desc>lat.=55.782242, lon.=26.347139, Alt.=140.326294m. Speed=0.864000m/h.</desc>
<speed>0.240000</speed>
</trkpt>
<trkpt lat="55.782242" lon="26.347136">
<ele>140.138794</ele>
<time>2010-07-17T09:06:13Z</time>
<desc>lat.=55.782242, lon.=26.347136, Alt.=140.138794m. Speed=0.828000m/h.</desc>
<speed>0.230000</speed>
</trkpt>
<trkpt lat="55.782242" lon="26.347132">
<ele>139.947388</ele>
<time>2010-07-17T09:06:14Z</time>
<desc>lat.=55.782242, lon.=26.347132, Alt.=139.947388m. Speed=0.756000m/h.</desc>
<speed>0.210000</speed>
</trkpt>
<trkpt lat="55.782242" lon="26.347128">
<ele>139.744263</ele>
<time>2010-07-17T09:06:15Z</time>
<desc>lat.=55.782242, lon.=26.347128, Alt.=139.744263m. Speed=0.684000m/h.</desc>
<speed>0.190000</speed>
</trkpt>
<trkpt lat="55.782242" lon="26.347126">
<ele>139.525513</ele>
<time>2010-07-17T09:06:16Z</time>
<desc>lat.=55.782242, lon.=26.347126, Alt.=139.525513m. Speed=0.684000m/h.</desc>
<speed>0.190000</speed>
</trkpt>
<trkpt lat="55.782242" lon="26.347122">
<ele>139.287231</ele>
<time>2010-07-17T09:06:17Z</time>
<desc>lat.=55.782242, lon.=26.347122, Alt.=139.287231m. Speed=0.648000m/h.</desc>
<speed>0.180000</speed>
</trkpt>
<trkpt lat="55.782242" lon="26.347118">
<ele>139.017700</ele>
<time>2010-07-17T09:06:18Z</time>
<desc>lat.=55.782242, lon.=26.347118, Alt.=139.017700m. Speed=0.540000m/h.</desc>
<speed>0.150000</speed>
</trkpt>
<trkpt lat="55.782242" lon="26.347116">
<ele>138.767700</ele>
<time>2010-07-17T09:06:19Z</time>
<desc>lat.=55.782242, lon.=26.347116, Alt.=138.767700m. Speed=0.504000m/h.</desc>
<speed>0.140000</speed>
</trkpt>
<trkpt lat="55.782242" lon="26.347118">
<ele>138.517700</ele>
<time>2010-07-17T09:06:20Z</time>
<desc>lat.=55.782242, lon.=26.347118, Alt.=138.517700m. Speed=0.648000m/h.</desc>
<speed>0.180000</speed>
</trkpt>
<trkpt lat="55.782242" lon="26.347122">
<ele>138.248169</ele>
<time>2010-07-17T09:06:21Z</time>
<desc>lat.=55.782242, lon.=26.347122, Alt.=138.248169m. Speed=0.792000m/h.</desc>
<speed>0.220000</speed>
</trkpt>
<trkpt lat="55.782242" lon="26.347126">
<ele>137.978638</ele>
<time>2010-07-17T09:06:22Z</time>
<desc>lat.=55.782242, lon.=26.347126, Alt.=137.978638m. Speed=0.792000m/h.</desc>
<speed>0.220000</speed>
</trkpt>
<trkpt lat="55.782242" lon="26.347130">
<ele>137.701294</ele>
<time>2010-07-17T09:06:23Z</time>
<desc>lat.=55.782242, lon.=26.347130, Alt.=137.701294m. Speed=0.828000m/h.</desc>
<speed>0.230000</speed>
</trkpt>
<trkpt lat="55.782242" lon="26.347134">
<ele>137.423950</ele>
<time>2010-07-17T09:06:24Z</time>
<desc>lat.=55.782242, lon.=26.347134, Alt.=137.423950m. Speed=0.792000m/h.</desc>
<speed>0.220000</speed>
</trkpt>
<trkpt lat="55.782242" lon="26.347136">
<ele>137.134888</ele>
<time>2010-07-17T09:06:25Z</time>
<desc>lat.=55.782242, lon.=26.347136, Alt.=137.134888m. Speed=0.900000m/h.</desc>
<speed>0.250000</speed>
</trkpt>
<trkpt lat="55.782246" lon="26.347141">
<ele>136.834106</ele>
<time>2010-07-17T09:06:26Z</time>
<desc>lat.=55.782246, lon.=26.347141, Alt.=136.834106m. Speed=0.864000m/h.</desc>
<speed>0.240000</speed>
</trkpt>
<trkpt lat="55.782246" lon="26.347143">
<ele>136.545044</ele>
<time>2010-07-17T09:06:27Z</time>
<desc>lat.=55.782246, lon.=26.347143, Alt.=136.545044m. Speed=0.828000m/h.</desc>
<speed>0.230000</speed>
</trkpt>
<trkpt lat="55.782246" lon="26.347147">
<ele>136.255981</ele>
<time>2010-07-17T09:06:28Z</time>
<desc>lat.=55.782246, lon.=26.347147, Alt.=136.255981m. Speed=0.756000m/h.</desc>
<speed>0.210000</speed>
</trkpt>
<trkpt lat="55.782246" lon="26.347151">
<ele>135.970825</ele>
<time>2010-07-17T09:06:29Z</time>
<desc>lat.=55.782246, lon.=26.347151, Alt.=135.970825m. Speed=0.756000m/h.</desc>
<speed>0.210000</speed>
</trkpt>
<trkpt lat="55.782246" lon="26.347155">
<ele>135.689575</ele>
<time>2010-07-17T09:06:30Z</time>
<desc>lat.=55.782246, lon.=26.347155, Alt.=135.689575m. Speed=0.684000m/h.</desc>
<speed>0.190000</speed>
</trkpt>
<trkpt lat="55.782246" lon="26.347157">
<ele>135.420044</ele>
<time>2010-07-17T09:06:31Z</time>
<desc>lat.=55.782246, lon.=26.347157, Alt.=135.420044m. Speed=0.648000m/h.</desc>
<speed>0.180000</speed>
</trkpt>
<trkpt lat="55.782246" lon="26.347160">
<ele>135.150513</ele>
<time>2010-07-17T09:06:32Z</time>
<desc>lat.=55.782246, lon.=26.347160, Alt.=135.150513m. Speed=0.576000m/h.</desc>
<speed>0.160000</speed>
</trkpt>
<trkpt lat="55.782246" lon="26.347162">
<ele>134.888794</ele>
<time>2010-07-17T09:06:33Z</time>
<desc>lat.=55.782246, lon.=26.347162, Alt.=134.888794m. Speed=0.576000m/h.</desc>
<speed>0.160000</speed>
</trkpt>
<trkpt lat="55.782246" lon="26.347164">
<ele>134.627075</ele>
<time>2010-07-17T09:06:34Z</time>
<desc>lat.=55.782246, lon.=26.347164, Alt.=134.627075m. Speed=0.504000m/h.</desc>
<speed>0.140000</speed>
</trkpt>
<trkpt lat="55.782246" lon="26.347168">
<ele>134.365356</ele>
<time>2010-07-17T09:06:35Z</time>
<desc>lat.=55.782246, lon.=26.347168, Alt.=134.365356m. Speed=0.432000m/h.</desc>
<speed>0.120000</speed>
</trkpt>
<trkpt lat="55.782246" lon="26.347170">
<ele>134.099731</ele>
<time>2010-07-17T09:06:36Z</time>
<desc>lat.=55.782246, lon.=26.347170, Alt.=134.099731m. Speed=0.432000m/h.</desc>
<speed>0.120000</speed>
</trkpt>
<trkpt lat="55.782246" lon="26.347172">
<ele>133.841919</ele>
<time>2010-07-17T09:06:37Z</time>
<desc>lat.=55.782246, lon.=26.347172, Alt.=133.841919m. Speed=0.324000m/h.</desc>
<speed>0.090000</speed>
</trkpt>
<trkpt lat="55.782246" lon="26.347172">
<ele>133.588013</ele>
<time>2010-07-17T09:06:38Z</time>
<desc>lat.=55.782246, lon.=26.347172, Alt.=133.588013m. Speed=0.288000m/h.</desc>
<speed>0.080000</speed>
</trkpt>
<trkpt lat="55.782246" lon="26.347174">
<ele>133.330200</ele>
<time>2010-07-17T09:06:39Z</time>
<desc>lat.=55.782246, lon.=26.347174, Alt.=133.330200m. Speed=0.288000m/h.</desc>
<speed>0.080000</speed>
</trkpt>
<trkpt lat="55.782242" lon="26.347176">
<ele>133.080200</ele>
<time>2010-07-17T09:06:40Z</time>
<desc>lat.=55.782242, lon.=26.347176, Alt.=133.080200m. Speed=0.252000m/h.</desc>
<speed>0.070000</speed>
</trkpt>
<trkpt lat="55.782242" lon="26.347176">
<ele>132.826294</ele>
<time>2010-07-17T09:06:41Z</time>
<desc>lat.=55.782242, lon.=26.347176, Alt.=132.826294m. Speed=0.252000m/h.</desc>
<speed>0.070000</speed>
</trkpt>
<trkpt lat="55.782242" lon="26.347178">
<ele>132.576294</ele>
<time>2010-07-17T09:06:42Z</time>
<desc>lat.=55.782242, lon.=26.347178, Alt.=132.576294m. Speed=0.252000m/h.</desc>
<speed>0.070000</speed>
</trkpt>
<trkpt lat="55.782242" lon="26.347178">
<ele>132.330200</ele>
<time>2010-07-17T09:06:43Z</time>
<desc>lat.=55.782242, lon.=26.347178, Alt.=132.330200m. Speed=0.180000m/h.</desc>
<speed>0.050000</speed>
</trkpt>
<trkpt lat="55.782242" lon="26.347179">
<ele>132.080200</ele>
<time>2010-07-17T09:06:44Z</time>
<desc>lat.=55.782242, lon.=26.347179, Alt.=132.080200m. Speed=0.144000m/h.</desc>
<speed>0.040000</speed>
</trkpt>
<trkpt lat="55.782242" lon="26.347179">
<ele>131.834106</ele>
<time>2010-07-17T09:06:45Z</time>
<desc>lat.=55.782242, lon.=26.347179, Alt.=131.834106m. Speed=0.108000m/h.</desc>
<speed>0.030000</speed>
</trkpt>
<trkpt lat="55.782242" lon="26.347179">
<ele>131.584106</ele>
<time>2010-07-17T09:06:46Z</time>
<desc>lat.=55.782242, lon.=26.347179, Alt.=131.584106m. Speed=0.072000m/h.</desc>
<speed>0.020000</speed>
</trkpt>
<trkpt lat="55.782242" lon="26.347181">
<ele>131.338013</ele>
<time>2010-07-17T09:06:47Z</time>
<desc>lat.=55.782242, lon.=26.347181, Alt.=131.338013m. Speed=0.108000m/h.</desc>
<speed>0.030000</speed>
</trkpt>
<trkpt lat="55.782242" lon="26.347181">
<ele>131.095825</ele>
<time>2010-07-17T09:06:48Z</time>
<desc>lat.=55.782242, lon.=26.347181, Alt.=131.095825m. Speed=0.108000m/h.</desc>
<speed>0.030000</speed>
</trkpt>
<trkpt lat="55.782246" lon="26.347181">
<ele>130.849731</ele>
<time>2010-07-17T09:06:49Z</time>
<desc>lat.=55.782246, lon.=26.347181, Alt.=130.849731m. Speed=0.180000m/h.</desc>
<speed>0.050000</speed>
</trkpt>
<trkpt lat="55.782246" lon="26.347181">
<ele>130.607544</ele>
<time>2010-07-17T09:06:50Z</time>
<desc>lat.=55.782246, lon.=26.347181, Alt.=130.607544m. Speed=0.252000m/h.</desc>
<speed>0.070000</speed>
</trkpt>
<trkpt lat="55.782246" lon="26.347181">
<ele>130.369263</ele>
<time>2010-07-17T09:06:51Z</time>
<desc>lat.=55.782246, lon.=26.347181, Alt.=130.369263m. Speed=0.288000m/h.</desc>
<speed>0.080000</speed>
</trkpt>
<trkpt lat="55.782246" lon="26.347181">
<ele>130.130981</ele>
<time>2010-07-17T09:06:52Z</time>
<desc>lat.=55.782246, lon.=26.347181, Alt.=130.130981m. Speed=0.324000m/h.</desc>
<speed>0.090000</speed>
</trkpt>
<trkpt lat="55.782246" lon="26.347181">
<ele>129.896606</ele>
<time>2010-07-17T09:06:53Z</time>
<desc>lat.=55.782246, lon.=26.347181, Alt.=129.896606m. Speed=0.288000m/h.</desc>
<speed>0.080000</speed>
</trkpt>
<trkpt lat="55.782249" lon="26.347181">
<ele>129.666138</ele>
<time>2010-07-17T09:06:54Z</time>
<desc>lat.=55.782249, lon.=26.347181, Alt.=129.666138m. Speed=0.288000m/h.</desc>
<speed>0.080000</speed>
</trkpt>
<trkpt lat="55.782249" lon="26.347181">
<ele>129.443481</ele>
<time>2010-07-17T09:06:55Z</time>
<desc>lat.=55.782249, lon.=26.347181, Alt.=129.443481m. Speed=0.216000m/h.</desc>
<speed>0.060000</speed>
</trkpt>
<trkpt lat="55.782249" lon="26.347181">
<ele>129.220825</ele>
<time>2010-07-17T09:06:56Z</time>
<desc>lat.=55.782249, lon.=26.347181, Alt.=129.220825m. Speed=0.144000m/h.</desc>
<speed>0.040000</speed>
</trkpt>
<trkpt lat="55.782249" lon="26.347181">
<ele>128.998169</ele>
<time>2010-07-17T09:06:57Z</time>
<desc>lat.=55.782249, lon.=26.347181, Alt.=128.998169m. Speed=0.216000m/h.</desc>
<speed>0.060000</speed>
</trkpt>
<trkpt lat="55.782249" lon="26.347181">
<ele>128.783325</ele>
<time>2010-07-17T09:06:58Z</time>
<desc>lat.=55.782249, lon.=26.347181, Alt.=128.783325m. Speed=0.252000m/h.</desc>
<speed>0.070000</speed>
</trkpt>
<trkpt lat="55.782249" lon="26.347181">
<ele>128.572388</ele>
<time>2010-07-17T09:06:59Z</time>
<desc>lat.=55.782249, lon.=26.347181, Alt.=128.572388m. Speed=0.216000m/h.</desc>
<speed>0.060000</speed>
</trkpt>
<trkpt lat="55.782253" lon="26.347181">
<ele>128.357544</ele>
<time>2010-07-17T09:07:00Z</time>
<desc>lat.=55.782253, lon.=26.347181, Alt.=128.357544m. Speed=0.180000m/h.</desc>
<speed>0.050000</speed>
</trkpt>
<trkpt lat="55.782253" lon="26.347183">
<ele>128.146606</ele>
<time>2010-07-17T09:07:01Z</time>
<desc>lat.=55.782253, lon.=26.347183, Alt.=128.146606m. Speed=0.180000m/h.</desc>
<speed>0.050000</speed>
</trkpt>
<trkpt lat="55.782253" lon="26.347183">
<ele>127.936584</ele>
<time>2010-07-17T09:07:02Z</time>
<desc>lat.=55.782253, lon.=26.347183, Alt.=127.936584m. Speed=0.072000m/h.</desc>
<speed>0.020000</speed>
</trkpt>
<trkpt lat="55.782253" lon="26.347183">
<ele>127.725647</ele>
<time>2010-07-17T09:07:03Z</time>
<desc>lat.=55.782253, lon.=26.347183, Alt.=127.725647m. Speed=0.000000m/h.</desc>
<speed>0.000000</speed>
</trkpt>
<trkpt lat="55.782253" lon="26.347183">
<ele>127.516663</ele>
<time>2010-07-17T09:07:04Z</time>
<desc>lat.=55.782253, lon.=26.347183, Alt.=127.516663m. Speed=0.036000m/h.</desc>
<speed>0.010000</speed>
</trkpt>
<trkpt lat="55.782253" lon="26.347183">
<ele>127.315491</ele>
<time>2010-07-17T09:07:05Z</time>
<desc>lat.=55.782253, lon.=26.347183, Alt.=127.315491m. Speed=0.000000m/h.</desc>
<speed>0.000000</speed>
</trkpt>
<trkpt lat="55.782253" lon="26.347183">
<ele>127.112366</ele>
<time>2010-07-17T09:07:06Z</time>
<desc>lat.=55.782253, lon.=26.347183, Alt.=127.112366m. Speed=0.036000m/h.</desc>
<speed>0.010000</speed>
</trkpt>
<trkpt lat="55.782253" lon="26.347183">
<ele>126.911194</ele>
<time>2010-07-17T09:07:07Z</time>
<desc>lat.=55.782253, lon.=26.347183, Alt.=126.911194m. Speed=0.108000m/h.</desc>
<speed>0.030000</speed>
</trkpt>
<trkpt lat="55.782253" lon="26.347181">
<ele>126.717834</ele>
<time>2010-07-17T09:07:08Z</time>
<desc>lat.=55.782253, lon.=26.347181, Alt.=126.717834m. Speed=0.072000m/h.</desc>
<speed>0.020000</speed>
</trkpt>
<trkpt lat="55.782253" lon="26.347181">
<ele>126.526428</ele>
<time>2010-07-17T09:07:09Z</time>
<desc>lat.=55.782253, lon.=26.347181, Alt.=126.526428m. Speed=0.144000m/h.</desc>
<speed>0.040000</speed>
</trkpt>
<trkpt lat="55.782253" lon="26.347181">
<ele>126.333069</ele>
<time>2010-07-17T09:07:10Z</time>
<desc>lat.=55.782253, lon.=26.347181, Alt.=126.333069m. Speed=0.180000m/h.</desc>
<speed>0.050000</speed>
</trkpt>
<trkpt lat="55.782253" lon="26.347179">
<ele>126.147522</ele>
<time>2010-07-17T09:07:11Z</time>
<desc>lat.=55.782253, lon.=26.347179, Alt.=126.147522m. Speed=0.216000m/h.</desc>
<speed>0.060000</speed>
</trkpt>
<trkpt lat="55.782253" lon="26.347179">
<ele>125.965881</ele>
<time>2010-07-17T09:07:12Z</time>
<desc>lat.=55.782253, lon.=26.347179, Alt.=125.965881m. Speed=0.216000m/h.</desc>
<speed>0.060000</speed>
</trkpt>
<trkpt lat="55.782253" lon="26.347178">
<ele>125.788147</ele>
<time>2010-07-17T09:07:13Z</time>
<desc>lat.=55.782253, lon.=26.347178, Alt.=125.788147m. Speed=0.288000m/h.</desc>
<speed>0.080000</speed>
</trkpt>
<trkpt lat="55.782253" lon="26.347178">
<ele>125.614319</ele>
<time>2010-07-17T09:07:14Z</time>
<desc>lat.=55.782253, lon.=26.347178, Alt.=125.614319m. Speed=0.288000m/h.</desc>
<speed>0.080000</speed>
</trkpt>
<trkpt lat="55.782253" lon="26.347176">
<ele>125.434631</ele>
<time>2010-07-17T09:07:15Z</time>
<desc>lat.=55.782253, lon.=26.347176, Alt.=125.434631m. Speed=0.252000m/h.</desc>
<speed>0.070000</speed>
</trkpt>
<trkpt lat="55.782253" lon="26.347176">
<ele>125.249084</ele>
<time>2010-07-17T09:07:16Z</time>
<desc>lat.=55.782253, lon.=26.347176, Alt.=125.249084m. Speed=0.288000m/h.</desc>
<speed>0.080000</speed>
</trkpt>
<trkpt lat="55.782253" lon="26.347174">
<ele>125.071350</ele>
<time>2010-07-17T09:07:17Z</time>
<desc>lat.=55.782253, lon.=26.347174, Alt.=125.071350m. Speed=0.216000m/h.</desc>
<speed>0.060000</speed>
</trkpt>
<trkpt lat="55.782257" lon="26.347174">
<ele>124.887756</ele>
<time>2010-07-17T09:07:18Z</time>
<desc>lat.=55.782257, lon.=26.347174, Alt.=124.887756m. Speed=0.324000m/h.</desc>
<speed>0.090000</speed>
</trkpt>
<trkpt lat="55.782257" lon="26.347174">
<ele>124.710022</ele>
<time>2010-07-17T09:07:19Z</time>
<desc>lat.=55.782257, lon.=26.347174, Alt.=124.710022m. Speed=0.432000m/h.</desc>
<speed>0.120000</speed>
</trkpt>
<trkpt lat="55.782257" lon="26.347172">
<ele>124.538147</ele>
<time>2010-07-17T09:07:20Z</time>
<desc>lat.=55.782257, lon.=26.347172, Alt.=124.538147m. Speed=0.360000m/h.</desc>
<speed>0.100000</speed>
</trkpt>
<trkpt lat="55.782257" lon="26.347172">
<ele>124.372131</ele>
<time>2010-07-17T09:07:21Z</time>
<desc>lat.=55.782257, lon.=26.347172, Alt.=124.372131m. Speed=0.432000m/h.</desc>
<speed>0.120000</speed>
</trkpt>
<trkpt lat="55.782261" lon="26.347172">
<ele>124.210022</ele>
<time>2010-07-17T09:07:22Z</time>
<desc>lat.=55.782261, lon.=26.347172, Alt.=124.210022m. Speed=0.288000m/h.</desc>
<speed>0.080000</speed>
</trkpt>
<trkpt lat="55.782261" lon="26.347172">
<ele>124.047913</ele>
<time>2010-07-17T09:07:23Z</time>
<desc>lat.=55.782261, lon.=26.347172, Alt.=124.047913m. Speed=0.288000m/h.</desc>
<speed>0.080000</speed>
</trkpt>
<trkpt lat="55.782261" lon="26.347172">
<ele>123.901428</ele>
<time>2010-07-17T09:07:24Z</time>
<desc>lat.=55.782261, lon.=26.347172, Alt.=123.901428m. Speed=0.288000m/h.</desc>
<speed>0.080000</speed>
</trkpt>
<trkpt lat="55.782261" lon="26.347170">
<ele>123.760803</ele>
<time>2010-07-17T09:07:25Z</time>
<desc>lat.=55.782261, lon.=26.347170, Alt.=123.760803m. Speed=0.288000m/h.</desc>
<speed>0.080000</speed>
</trkpt>
<trkpt lat="55.782261" lon="26.347170">
<ele>123.614319</ele>
<time>2010-07-17T09:07:26Z</time>
<desc>lat.=55.782261, lon.=26.347170, Alt.=123.614319m. Speed=0.252000m/h.</desc>
<speed>0.070000</speed>
</trkpt>
<trkpt lat="55.782265" lon="26.347170">
<ele>123.469788</ele>
<time>2010-07-17T09:07:27Z</time>
<desc>lat.=55.782265, lon.=26.347170, Alt.=123.469788m. Speed=0.252000m/h.</desc>
<speed>0.070000</speed>
</trkpt>
<trkpt lat="55.782265" lon="26.347168">
<ele>123.319397</ele>
<time>2010-07-17T09:07:28Z</time>
<desc>lat.=55.782265, lon.=26.347168, Alt.=123.319397m. Speed=0.180000m/h.</desc>
<speed>0.050000</speed>
</trkpt>
<trkpt lat="55.782265" lon="26.347168">
<ele>123.169006</ele>
<time>2010-07-17T09:07:29Z</time>
<desc>lat.=55.782265, lon.=26.347168, Alt.=123.169006m. Speed=0.216000m/h.</desc>
<speed>0.060000</speed>
</trkpt>
<trkpt lat="55.782265" lon="26.347168">
<ele>123.024475</ele>
<time>2010-07-17T09:07:30Z</time>
<desc>lat.=55.782265, lon.=26.347168, Alt.=123.024475m. Speed=0.252000m/h.</desc>
<speed>0.070000</speed>
</trkpt>
<trkpt lat="55.782265" lon="26.347166">
<ele>122.881897</ele>
<time>2010-07-17T09:07:31Z</time>
<desc>lat.=55.782265, lon.=26.347166, Alt.=122.881897m. Speed=0.252000m/h.</desc>
<speed>0.070000</speed>
</trkpt>
<trkpt lat="55.782265" lon="26.347166">
<ele>122.741272</ele>
<time>2010-07-17T09:07:32Z</time>
<desc>lat.=55.782265, lon.=26.347166, Alt.=122.741272m. Speed=0.288000m/h.</desc>
<speed>0.080000</speed>
</trkpt>
<trkpt lat="55.782265" lon="26.347164">
<ele>122.600647</ele>
<time>2010-07-17T09:07:33Z</time>
<desc>lat.=55.782265, lon.=26.347164, Alt.=122.600647m. Speed=0.288000m/h.</desc>
<speed>0.080000</speed>
</trkpt>
<trkpt lat="55.782265" lon="26.347164">
<ele>122.452209</ele>
<time>2010-07-17T09:07:34Z</time>
<desc>lat.=55.782265, lon.=26.347164, Alt.=122.452209m. Speed=0.216000m/h.</desc>
<speed>0.060000</speed>
</trkpt>
<trkpt lat="55.782265" lon="26.347162">
<ele>122.303772</ele>
<time>2010-07-17T09:07:35Z</time>
<desc>lat.=55.782265, lon.=26.347162, Alt.=122.303772m. Speed=0.144000m/h.</desc>
<speed>0.040000</speed>
</trkpt>
<trkpt lat="55.782265" lon="26.347162">
<ele>122.161194</ele>
<time>2010-07-17T09:07:36Z</time>
<desc>lat.=55.782265, lon.=26.347162, Alt.=122.161194m. Speed=0.216000m/h.</desc>
<speed>0.060000</speed>
</trkpt>
<trkpt lat="55.782269" lon="26.347160">
<ele>122.022522</ele>
<time>2010-07-17T09:07:37Z</time>
<desc>lat.=55.782269, lon.=26.347160, Alt.=122.022522m. Speed=0.288000m/h.</desc>
<speed>0.080000</speed>
</trkpt>
<trkpt lat="55.782269" lon="26.347160">
<ele>121.887756</ele>
<time>2010-07-17T09:07:38Z</time>
<desc>lat.=55.782269, lon.=26.347160, Alt.=121.887756m. Speed=0.288000m/h.</desc>
<speed>0.080000</speed>
</trkpt>
<trkpt lat="55.782269" lon="26.347158">
<ele>121.756897</ele>
<time>2010-07-17T09:07:39Z</time>
<desc>lat.=55.782269, lon.=26.347158, Alt.=121.756897m. Speed=0.252000m/h.</desc>
<speed>0.070000</speed>
</trkpt>
<trkpt lat="55.782269" lon="26.347157">
<ele>121.631897</ele>
<time>2010-07-17T09:07:40Z</time>
<desc>lat.=55.782269, lon.=26.347157, Alt.=121.631897m. Speed=0.180000m/h.</desc>
<speed>0.050000</speed>
</trkpt>
<trkpt lat="55.782265" lon="26.347157">
<ele>121.504944</ele>
<time>2010-07-17T09:07:41Z</time>
<desc>lat.=55.782265, lon.=26.347157, Alt.=121.504944m. Speed=0.144000m/h.</desc>
<speed>0.040000</speed>
</trkpt>
<trkpt lat="55.782265" lon="26.347157">
<ele>121.377991</ele>
<time>2010-07-17T09:07:42Z</time>
<desc>lat.=55.782265, lon.=26.347157, Alt.=121.377991m. Speed=0.072000m/h.</desc>
<speed>0.020000</speed>
</trkpt>
<trkpt lat="55.782265" lon="26.347155">
<ele>121.260803</ele>
<time>2010-07-17T09:07:43Z</time>
<desc>lat.=55.782265, lon.=26.347155, Alt.=121.260803m. Speed=0.072000m/h.</desc>
<speed>0.020000</speed>
</trkpt>
<trkpt lat="55.782265" lon="26.347155">
<ele>121.147522</ele>
<time>2010-07-17T09:07:44Z</time>
<desc>lat.=55.782265, lon.=26.347155, Alt.=121.147522m. Speed=0.072000m/h.</desc>
<speed>0.020000</speed>
</trkpt>
<trkpt lat="55.782265" lon="26.347155">
<ele>121.149475</ele>
<time>2010-07-17T09:07:45Z</time>
<desc>lat.=55.782265, lon.=26.347155, Alt.=121.149475m. Speed=0.036000m/h.</desc>
<speed>0.010000</speed>
</trkpt>
<trkpt lat="55.782265" lon="26.347157">
<ele>121.155334</ele>
<time>2010-07-17T09:07:46Z</time>
<desc>lat.=55.782265, lon.=26.347157, Alt.=121.155334m. Speed=0.072000m/h.</desc>
<speed>0.020000</speed>
</trkpt>
<trkpt lat="55.782265" lon="26.347157">
<ele>121.163147</ele>
<time>2010-07-17T09:07:47Z</time>
<desc>lat.=55.782265, lon.=26.347157, Alt.=121.163147m. Speed=0.072000m/h.</desc>
<speed>0.020000</speed>
</trkpt>
<trkpt lat="55.782265" lon="26.347157">
<ele>121.163147</ele>
<time>2010-07-17T09:07:48Z</time>
<desc>lat.=55.782265, lon.=26.347157, Alt.=121.163147m. Speed=0.144000m/h.</desc>
<speed>0.040000</speed>
</trkpt>
<trkpt lat="55.782265" lon="26.347157">
<ele>121.157288</ele>
<time>2010-07-17T09:07:49Z</time>
<desc>lat.=55.782265, lon.=26.347157, Alt.=121.157288m. Speed=0.144000m/h.</desc>
<speed>0.040000</speed>
</trkpt>
<trkpt lat="55.782265" lon="26.347157">
<ele>121.155334</ele>
<time>2010-07-17T09:07:50Z</time>
<desc>lat.=55.782265, lon.=26.347157, Alt.=121.155334m. Speed=0.072000m/h.</desc>
<speed>0.020000</speed>
</trkpt>
<trkpt lat="55.782265" lon="26.347157">
<ele>121.157288</ele>
<time>2010-07-17T09:07:51Z</time>
<desc>lat.=55.782265, lon.=26.347157, Alt.=121.157288m. Speed=0.108000m/h.</desc>
<speed>0.030000</speed>
</trkpt>
<trkpt lat="55.782265" lon="26.347157">
<ele>121.151428</ele>
<time>2010-07-17T09:07:52Z</time>
<desc>lat.=55.782265, lon.=26.347157, Alt.=121.151428m. Speed=0.144000m/h.</desc>
<speed>0.040000</speed>
</trkpt>
<trkpt lat="55.782265" lon="26.347157">
<ele>121.145569</ele>
<time>2010-07-17T09:07:53Z</time>
<desc>lat.=55.782265, lon.=26.347157, Alt.=121.145569m. Speed=0.072000m/h.</desc>
<speed>0.020000</speed>
</trkpt>
<trkpt lat="55.782265" lon="26.347157">
<ele>121.133850</ele>
<time>2010-07-17T09:07:54Z</time>
<desc>lat.=55.782265, lon.=26.347157, Alt.=121.133850m. Speed=0.108000m/h.</desc>
<speed>0.030000</speed>
</trkpt>
<trkpt lat="55.782265" lon="26.347157">
<ele>121.127991</ele>
<time>2010-07-17T09:07:55Z</time>
<desc>lat.=55.782265, lon.=26.347157, Alt.=121.127991m. Speed=0.036000m/h.</desc>
<speed>0.010000</speed>
</trkpt>
<trkpt lat="55.782265" lon="26.347157">
<ele>121.126038</ele>
<time>2010-07-17T09:07:56Z</time>
<desc>lat.=55.782265, lon.=26.347157, Alt.=121.126038m. Speed=0.072000m/h.</desc>
<speed>0.020000</speed>
</trkpt>
<trkpt lat="55.782265" lon="26.347157">
<ele>121.116272</ele>
<time>2010-07-17T09:07:57Z</time>
<desc>lat.=55.782265, lon.=26.347157, Alt.=121.116272m. Speed=0.072000m/h.</desc>
<speed>0.020000</speed>
</trkpt>
<trkpt lat="55.782265" lon="26.347158">
<ele>121.110413</ele>
<time>2010-07-17T09:07:58Z</time>
<desc>lat.=55.782265, lon.=26.347158, Alt.=121.110413m. Speed=0.144000m/h.</desc>
<speed>0.040000</speed>
</trkpt>
<trkpt lat="55.782265" lon="26.347158">
<ele>121.108459</ele>
<time>2010-07-17T09:07:59Z</time>
<desc>lat.=55.782265, lon.=26.347158, Alt.=121.108459m. Speed=0.108000m/h.</desc>
<speed>0.030000</speed>
</trkpt>
<trkpt lat="55.782265" lon="26.347158">
<ele>121.106506</ele>
<time>2010-07-17T09:08:00Z</time>
<desc>lat.=55.782265, lon.=26.347158, Alt.=121.106506m. Speed=0.180000m/h.</desc>
<speed>0.050000</speed>
</trkpt>
<trkpt lat="55.782265" lon="26.347158">
<ele>121.092834</ele>
<time>2010-07-17T09:08:01Z</time>
<desc>lat.=55.782265, lon.=26.347158, Alt.=121.092834m. Speed=0.108000m/h.</desc>
<speed>0.030000</speed>
</trkpt>
<trkpt lat="55.782265" lon="26.347158">
<ele>121.088928</ele>
<time>2010-07-17T09:08:02Z</time>
<desc>lat.=55.782265, lon.=26.347158, Alt.=121.088928m. Speed=0.072000m/h.</desc>
<speed>0.020000</speed>
</trkpt>
<trkpt lat="55.782265" lon="26.347158">
<ele>121.085022</ele>
<time>2010-07-17T09:08:03Z</time>
<desc>lat.=55.782265, lon.=26.347158, Alt.=121.085022m. Speed=0.216000m/h.</desc>
<speed>0.060000</speed>
</trkpt>
<trkpt lat="55.782265" lon="26.347158">
<ele>121.081116</ele>
<time>2010-07-17T09:08:04Z</time>
<desc>lat.=55.782265, lon.=26.347158, Alt.=121.081116m. Speed=0.216000m/h.</desc>
<speed>0.060000</speed>
</trkpt>
<trkpt lat="55.782265" lon="26.347160">
<ele>121.071350</ele>
<time>2010-07-17T09:08:05Z</time>
<desc>lat.=55.782265, lon.=26.347160, Alt.=121.071350m. Speed=0.216000m/h.</desc>
<speed>0.060000</speed>
</trkpt>
<trkpt lat="55.782265" lon="26.347160">
<ele>121.065491</ele>
<time>2010-07-17T09:08:06Z</time>
<desc>lat.=55.782265, lon.=26.347160, Alt.=121.065491m. Speed=0.180000m/h.</desc>
<speed>0.050000</speed>
</trkpt>
<trkpt lat="55.782265" lon="26.347160">
<ele>121.057678</ele>
<time>2010-07-17T09:08:07Z</time>
<desc>lat.=55.782265, lon.=26.347160, Alt.=121.057678m. Speed=0.108000m/h.</desc>
<speed>0.030000</speed>
</trkpt>
<trkpt lat="55.782265" lon="26.347160">
<ele>121.045959</ele>
<time>2010-07-17T09:08:08Z</time>
<desc>lat.=55.782265, lon.=26.347160, Alt.=121.045959m. Speed=0.144000m/h.</desc>
<speed>0.040000</speed>
</trkpt>
<trkpt lat="55.782265" lon="26.347162">
<ele>121.024475</ele>
<time>2010-07-17T09:08:09Z</time>
<desc>lat.=55.782265, lon.=26.347162, Alt.=121.024475m. Speed=0.324000m/h.</desc>
<speed>0.090000</speed>
</trkpt>
<trkpt lat="55.782265" lon="26.347162">
<ele>121.001038</ele>
<time>2010-07-17T09:08:10Z</time>
<desc>lat.=55.782265, lon.=26.347162, Alt.=121.001038m. Speed=0.180000m/h.</desc>
<speed>0.050000</speed>
</trkpt>
<trkpt lat="55.782265" lon="26.347162">
<ele>120.983459</ele>
<time>2010-07-17T09:08:11Z</time>
<desc>lat.=55.782265, lon.=26.347162, Alt.=120.983459m. Speed=0.180000m/h.</desc>
<speed>0.050000</speed>
</trkpt>
<trkpt lat="55.782265" lon="26.347162">
<ele>120.973694</ele>
<time>2010-07-17T09:08:12Z</time>
<desc>lat.=55.782265, lon.=26.347162, Alt.=120.973694m. Speed=0.108000m/h.</desc>
<speed>0.030000</speed>
</trkpt>
<trkpt lat="55.782265" lon="26.347164">
<ele>120.967834</ele>
<time>2010-07-17T09:08:13Z</time>
<desc>lat.=55.782265, lon.=26.347164, Alt.=120.967834m. Speed=0.144000m/h.</desc>
<speed>0.040000</speed>
</trkpt>
<trkpt lat="55.782265" lon="26.347164">
<ele>120.961975</ele>
<time>2010-07-17T09:08:14Z</time>
<desc>lat.=55.782265, lon.=26.347164, Alt.=120.961975m. Speed=0.144000m/h.</desc>
<speed>0.040000</speed>
</trkpt>
<trkpt lat="55.782265" lon="26.347164">
<ele>120.956116</ele>
<time>2010-07-17T09:08:15Z</time>
<desc>lat.=55.782265, lon.=26.347164, Alt.=120.956116m. Speed=0.216000m/h.</desc>
<speed>0.060000</speed>
</trkpt>
<trkpt lat="55.782265" lon="26.347164">
<ele>120.942444</ele>
<time>2010-07-17T09:08:16Z</time>
<desc>lat.=55.782265, lon.=26.347164, Alt.=120.942444m. Speed=0.180000m/h.</desc>
<speed>0.050000</speed>
</trkpt>
<trkpt lat="55.782261" lon="26.347164">
<ele>120.917053</ele>
<time>2010-07-17T09:08:17Z</time>
<desc>lat.=55.782261, lon.=26.347164, Alt.=120.917053m. Speed=0.252000m/h.</desc>
<speed>0.070000</speed>
</trkpt>
<trkpt lat="55.782261" lon="26.347166">
<ele>120.907288</ele>
<time>2010-07-17T09:08:18Z</time>
<desc>lat.=55.782261, lon.=26.347166, Alt.=120.907288m. Speed=0.144000m/h.</desc>
<speed>0.040000</speed>
</trkpt>
<trkpt lat="55.782261" lon="26.347166">
<ele>120.901428</ele>
<time>2010-07-17T09:08:19Z</time>
<desc>lat.=55.782261, lon.=26.347166, Alt.=120.901428m. Speed=0.108000m/h.</desc>
<speed>0.030000</speed>
</trkpt>
<trkpt lat="55.782261" lon="26.347166">
<ele>120.899475</ele>
<time>2010-07-17T09:08:20Z</time>
<desc>lat.=55.782261, lon.=26.347166, Alt.=120.899475m. Speed=0.108000m/h.</desc>
<speed>0.030000</speed>
</trkpt>
<trkpt lat="55.782261" lon="26.347166">
<ele>120.885803</ele>
<time>2010-07-17T09:08:21Z</time>
<desc>lat.=55.782261, lon.=26.347166, Alt.=120.885803m. Speed=0.144000m/h.</desc>
<speed>0.040000</speed>
</trkpt>
<trkpt lat="55.782261" lon="26.347166">
<ele>120.883850</ele>
<time>2010-07-17T09:08:22Z</time>
<desc>lat.=55.782261, lon.=26.347166, Alt.=120.883850m. Speed=0.108000m/h.</desc>
<speed>0.030000</speed>
</trkpt>
<trkpt lat="55.782261" lon="26.347166">
<ele>120.879944</ele>
<time>2010-07-17T09:08:23Z</time>
<desc>lat.=55.782261, lon.=26.347166, Alt.=120.879944m. Speed=0.144000m/h.</desc>
<speed>0.040000</speed>
</trkpt>
<trkpt lat="55.782261" lon="26.347166">
<ele>120.874084</ele>
<time>2010-07-17T09:08:24Z</time>
<desc>lat.=55.782261, lon.=26.347166, Alt.=120.874084m. Speed=0.144000m/h.</desc>
<speed>0.040000</speed>
</trkpt>
<trkpt lat="55.782261" lon="26.347168">
<ele>120.866272</ele>
<time>2010-07-17T09:08:25Z</time>
<desc>lat.=55.782261, lon.=26.347168, Alt.=120.866272m. Speed=0.072000m/h.</desc>
<speed>0.020000</speed>
</trkpt>
<trkpt lat="55.782261" lon="26.347168">
<ele>120.860413</ele>
<time>2010-07-17T09:08:26Z</time>
<desc>lat.=55.782261, lon.=26.347168, Alt.=120.860413m. Speed=0.000000m/h.</desc>
<speed>0.000000</speed>
</trkpt>
<trkpt lat="55.782261" lon="26.347168">
<ele>120.866272</ele>
<time>2010-07-17T09:08:27Z</time>
<desc>lat.=55.782261, lon.=26.347168, Alt.=120.866272m. Speed=0.108000m/h.</desc>
<speed>0.030000</speed>
</trkpt>
<trkpt lat="55.782261" lon="26.347168">
<ele>120.844788</ele>
<time>2010-07-17T09:08:28Z</time>
<desc>lat.=55.782261, lon.=26.347168, Alt.=120.844788m. Speed=0.144000m/h.</desc>
<speed>0.040000</speed>
</trkpt>
<trkpt lat="55.782261" lon="26.347168">
<ele>120.821350</ele>
<time>2010-07-17T09:08:29Z</time>
<desc>lat.=55.782261, lon.=26.347168, Alt.=120.821350m. Speed=0.108000m/h.</desc>
<speed>0.030000</speed>
</trkpt>
<trkpt lat="55.782261" lon="26.347168">
<ele>120.823303</ele>
<time>2010-07-17T09:08:30Z</time>
<desc>lat.=55.782261, lon.=26.347168, Alt.=120.823303m. Speed=0.072000m/h.</desc>
<speed>0.020000</speed>
</trkpt>
<trkpt lat="55.782261" lon="26.347168">
<ele>120.809631</ele>
<time>2010-07-17T09:08:31Z</time>
<desc>lat.=55.782261, lon.=26.347168, Alt.=120.809631m. Speed=0.144000m/h.</desc>
<speed>0.040000</speed>
</trkpt>
<trkpt lat="55.782261" lon="26.347170">
<ele>120.813538</ele>
<time>2010-07-17T09:08:32Z</time>
<desc>lat.=55.782261, lon.=26.347170, Alt.=120.813538m. Speed=0.144000m/h.</desc>
<speed>0.040000</speed>
</trkpt>
<trkpt lat="55.782261" lon="26.347170">
<ele>120.805725</ele>
<time>2010-07-17T09:08:33Z</time>
<desc>lat.=55.782261, lon.=26.347170, Alt.=120.805725m. Speed=0.216000m/h.</desc>
<speed>0.060000</speed>
</trkpt>
<trkpt lat="55.782261" lon="26.347170">
<ele>120.794006</ele>
<time>2010-07-17T09:08:34Z</time>
<desc>lat.=55.782261, lon.=26.347170, Alt.=120.794006m. Speed=0.144000m/h.</desc>
<speed>0.040000</speed>
</trkpt>
<trkpt lat="55.782261" lon="26.347170">
<ele>120.794006</ele>
<time>2010-07-17T09:08:35Z</time>
<desc>lat.=55.782261, lon.=26.347170, Alt.=120.794006m. Speed=0.144000m/h.</desc>
<speed>0.040000</speed>
</trkpt>
<trkpt lat="55.782261" lon="26.347170">
<ele>120.799866</ele>
<time>2010-07-17T09:08:36Z</time>
<desc>lat.=55.782261, lon.=26.347170, Alt.=120.799866m. Speed=0.072000m/h.</desc>
<speed>0.020000</speed>
</trkpt>
<trkpt lat="55.782261" lon="26.347172">
<ele>120.799866</ele>
<time>2010-07-17T09:08:37Z</time>
<desc>lat.=55.782261, lon.=26.347172, Alt.=120.799866m. Speed=0.072000m/h.</desc>
<speed>0.020000</speed>
</trkpt>
<trkpt lat="55.782261" lon="26.347172">
<ele>120.801819</ele>
<time>2010-07-17T09:08:38Z</time>
<desc>lat.=55.782261, lon.=26.347172, Alt.=120.801819m. Speed=0.072000m/h.</desc>
<speed>0.020000</speed>
</trkpt>
<trkpt lat="55.782261" lon="26.347172">
<ele>120.801819</ele>
<time>2010-07-17T09:08:39Z</time>
<desc>lat.=55.782261, lon.=26.347172, Alt.=120.801819m. Speed=0.072000m/h.</desc>
<speed>0.020000</speed>
</trkpt>
<trkpt lat="55.782261" lon="26.347172">
<ele>120.803772</ele>
<time>2010-07-17T09:08:40Z</time>
<desc>lat.=55.782261, lon.=26.347172, Alt.=120.803772m. Speed=0.144000m/h.</desc>
<speed>0.040000</speed>
</trkpt>
<trkpt lat="55.782261" lon="26.347172">
<ele>120.803772</ele>
<time>2010-07-17T09:08:41Z</time>
<desc>lat.=55.782261, lon.=26.347172, Alt.=120.803772m. Speed=0.108000m/h.</desc>
<speed>0.030000</speed>
</trkpt>
<trkpt lat="55.782261" lon="26.347172">
<ele>120.803772</ele>
<time>2010-07-17T09:08:42Z</time>
<desc>lat.=55.782261, lon.=26.347172, Alt.=120.803772m. Speed=0.108000m/h.</desc>
<speed>0.030000</speed>
</trkpt>
<trkpt lat="55.782261" lon="26.347172">
<ele>120.803772</ele>
<time>2010-07-17T09:08:43Z</time>
<desc>lat.=55.782261, lon.=26.347172, Alt.=120.803772m. Speed=0.072000m/h.</desc>
<speed>0.020000</speed>
</trkpt>
<trkpt lat="55.782261" lon="26.347172">
<ele>120.805725</ele>
<time>2010-07-17T09:08:44Z</time>
<desc>lat.=55.782261, lon.=26.347172, Alt.=120.805725m. Speed=0.072000m/h.</desc>
<speed>0.020000</speed>
</trkpt>
<trkpt lat="55.782261" lon="26.347172">
<ele>120.803772</ele>
<time>2010-07-17T09:08:45Z</time>
<desc>lat.=55.782261, lon.=26.347172, Alt.=120.803772m. Speed=0.108000m/h.</desc>
<speed>0.030000</speed>
</trkpt>
<trkpt lat="55.782261" lon="26.347174">
<ele>120.799866</ele>
<time>2010-07-17T09:08:46Z</time>
<desc>lat.=55.782261, lon.=26.347174, Alt.=120.799866m. Speed=0.072000m/h.</desc>
<speed>0.020000</speed>
</trkpt>
<trkpt lat="55.782261" lon="26.347174">
<ele>120.797913</ele>
<time>2010-07-17T09:08:47Z</time>
<desc>lat.=55.782261, lon.=26.347174, Alt.=120.797913m. Speed=0.036000m/h.</desc>
<speed>0.010000</speed>
</trkpt>
<trkpt lat="55.782261" lon="26.347174">
<ele>120.786194</ele>
<time>2010-07-17T09:08:48Z</time>
<desc>lat.=55.782261, lon.=26.347174, Alt.=120.786194m. Speed=0.108000m/h.</desc>
<speed>0.030000</speed>
</trkpt>
<trkpt lat="55.782261" lon="26.347174">
<ele>120.774475</ele>
<time>2010-07-17T09:08:49Z</time>
<desc>lat.=55.782261, lon.=26.347174, Alt.=120.774475m. Speed=0.072000m/h.</desc>
<speed>0.020000</speed>
</trkpt>
<trkpt lat="55.782261" lon="26.347174">
<ele>120.751038</ele>
<time>2010-07-17T09:08:50Z</time>
<desc>lat.=55.782261, lon.=26.347174, Alt.=120.751038m. Speed=0.000000m/h.</desc>
<speed>0.000000</speed>
</trkpt>
<trkpt lat="55.782261" lon="26.347174">
<ele>120.729553</ele>
<time>2010-07-17T09:08:51Z</time>
<desc>lat.=55.782261, lon.=26.347174, Alt.=120.729553m. Speed=0.036000m/h.</desc>
<speed>0.010000</speed>
</trkpt>
<trkpt lat="55.782261" lon="26.347174">
<ele>120.713928</ele>
<time>2010-07-17T09:08:52Z</time>
<desc>lat.=55.782261, lon.=26.347174, Alt.=120.713928m. Speed=0.000000m/h.</desc>
<speed>0.000000</speed>
</trkpt>
<trkpt lat="55.782261" lon="26.347174">
<ele>120.702209</ele>
<time>2010-07-17T09:08:53Z</time>
<desc>lat.=55.782261, lon.=26.347174, Alt.=120.702209m. Speed=0.072000m/h.</desc>
<speed>0.020000</speed>
</trkpt>
<trkpt lat="55.782261" lon="26.347174">
<ele>120.690491</ele>
<time>2010-07-17T09:08:54Z</time>
<desc>lat.=55.782261, lon.=26.347174, Alt.=120.690491m. Speed=0.036000m/h.</desc>
<speed>0.010000</speed>
</trkpt>
<trkpt lat="55.782261" lon="26.347174">
<ele>120.678772</ele>
<time>2010-07-17T09:08:55Z</time>
<desc>lat.=55.782261, lon.=26.347174, Alt.=120.678772m. Speed=0.036000m/h.</desc>
<speed>0.010000</speed>
</trkpt>
<trkpt lat="55.782261" lon="26.347174">
<ele>120.674866</ele>
<time>2010-07-17T09:08:56Z</time>
<desc>lat.=55.782261, lon.=26.347174, Alt.=120.674866m. Speed=0.072000m/h.</desc>
<speed>0.020000</speed>
</trkpt>
<trkpt lat="55.782261" lon="26.347174">
<ele>120.667053</ele>
<time>2010-07-17T09:08:57Z</time>
<desc>lat.=55.782261, lon.=26.347174, Alt.=120.667053m. Speed=0.072000m/h.</desc>
<speed>0.020000</speed>
</trkpt>
<trkpt lat="55.782261" lon="26.347174">
<ele>120.661194</ele>
<time>2010-07-17T09:08:58Z</time>
<desc>lat.=55.782261, lon.=26.347174, Alt.=120.661194m. Speed=0.072000m/h.</desc>
<speed>0.020000</speed>
</trkpt>
<trkpt lat="55.782261" lon="26.347174">
<ele>120.651428</ele>
<time>2010-07-17T09:08:59Z</time>
<desc>lat.=55.782261, lon.=26.347174, Alt.=120.651428m. Speed=0.108000m/h.</desc>
<speed>0.030000</speed>
</trkpt>
<trkpt lat="55.782261" lon="26.347174">
<ele>120.643616</ele>
<time>2010-07-17T09:09:00Z</time>
<desc>lat.=55.782261, lon.=26.347174, Alt.=120.643616m. Speed=0.144000m/h.</desc>
<speed>0.040000</speed>
</trkpt>
<trkpt lat="55.782261" lon="26.347174">
<ele>120.631897</ele>
<time>2010-07-17T09:09:01Z</time>
<desc>lat.=55.782261, lon.=26.347174, Alt.=120.631897m. Speed=0.216000m/h.</desc>
<speed>0.060000</speed>
</trkpt>
<trkpt lat="55.782261" lon="26.347174">
<ele>120.631897</ele>
<time>2010-07-17T09:09:02Z</time>
<desc>lat.=55.782261, lon.=26.347174, Alt.=120.631897m. Speed=0.000000m/h.</desc>
<speed>0.000000</speed>
</trkpt>
<trkpt lat="55.782261" lon="26.347176">
<ele>120.631897</ele>
<time>2010-07-17T09:09:03Z</time>
<desc>lat.=55.782261, lon.=26.347176, Alt.=120.631897m. Speed=0.180000m/h.</desc>
<speed>0.050000</speed>
</trkpt>
<trkpt lat="55.782261" lon="26.347176">
<ele>120.633850</ele>
<time>2010-07-17T09:09:04Z</time>
<desc>lat.=55.782261, lon.=26.347176, Alt.=120.633850m. Speed=0.180000m/h.</desc>
<speed>0.050000</speed>
</trkpt>
<trkpt lat="55.782261" lon="26.347176">
<ele>120.631897</ele>
<time>2010-07-17T09:09:05Z</time>
<desc>lat.=55.782261, lon.=26.347176, Alt.=120.631897m. Speed=0.144000m/h.</desc>
<speed>0.040000</speed>
</trkpt>
<trkpt lat="55.782261" lon="26.347176">
<ele>120.629944</ele>
<time>2010-07-17T09:09:06Z</time>
<desc>lat.=55.782261, lon.=26.347176, Alt.=120.629944m. Speed=0.108000m/h.</desc>
<speed>0.030000</speed>
</trkpt>
<trkpt lat="55.782261" lon="26.347176">
<ele>120.627991</ele>
<time>2010-07-17T09:09:07Z</time>
<desc>lat.=55.782261, lon.=26.347176, Alt.=120.627991m. Speed=0.108000m/h.</desc>
<speed>0.030000</speed>
</trkpt>
<trkpt lat="55.782261" lon="26.347178">
<ele>120.624084</ele>
<time>2010-07-17T09:09:08Z</time>
<desc>lat.=55.782261, lon.=26.347178, Alt.=120.624084m. Speed=0.180000m/h.</desc>
<speed>0.050000</speed>
</trkpt>
<trkpt lat="55.782261" lon="26.347178">
<ele>120.624084</ele>
<time>2010-07-17T09:09:09Z</time>
<desc>lat.=55.782261, lon.=26.347178, Alt.=120.624084m. Speed=0.144000m/h.</desc>
<speed>0.040000</speed>
</trkpt>
<trkpt lat="55.782261" lon="26.347178">
<ele>120.624084</ele>
<time>2010-07-17T09:09:10Z</time>
<desc>lat.=55.782261, lon.=26.347178, Alt.=120.624084m. Speed=0.108000m/h.</desc>
<speed>0.030000</speed>
</trkpt>
<trkpt lat="55.782261" lon="26.347178">
<ele>120.627991</ele>
<time>2010-07-17T09:09:11Z</time>
<desc>lat.=55.782261, lon.=26.347178, Alt.=120.627991m. Speed=0.072000m/h.</desc>
<speed>0.020000</speed>
</trkpt>
<trkpt lat="55.782261" lon="26.347178">
<ele>120.633850</ele>
<time>2010-07-17T09:09:12Z</time>
<desc>lat.=55.782261, lon.=26.347178, Alt.=120.633850m. Speed=0.000000m/h.</desc>
<speed>0.000000</speed>
</trkpt>
<trkpt lat="55.782261" lon="26.347178">
<ele>120.661194</ele>
<time>2010-07-17T09:09:13Z</time>
<desc>lat.=55.782261, lon.=26.347178, Alt.=120.661194m. Speed=0.252000m/h.</desc>
<speed>0.070000</speed>
</trkpt>
<trkpt lat="55.782261" lon="26.347178">
<ele>120.669006</ele>
<time>2010-07-17T09:09:14Z</time>
<desc>lat.=55.782261, lon.=26.347178, Alt.=120.669006m. Speed=0.072000m/h.</desc>
<speed>0.020000</speed>
</trkpt>
<trkpt lat="55.782261" lon="26.347178">
<ele>120.678772</ele>
<time>2010-07-17T09:09:15Z</time>
<desc>lat.=55.782261, lon.=26.347178, Alt.=120.678772m. Speed=0.072000m/h.</desc>
<speed>0.020000</speed>
</trkpt>
<trkpt lat="55.782261" lon="26.347178">
<ele>120.692444</ele>
<time>2010-07-17T09:09:16Z</time>
<desc>lat.=55.782261, lon.=26.347178, Alt.=120.692444m. Speed=0.108000m/h.</desc>
<speed>0.030000</speed>
</trkpt>
<trkpt lat="55.782261" lon="26.347178">
<ele>120.715881</ele>
<time>2010-07-17T09:09:17Z</time>
<desc>lat.=55.782261, lon.=26.347178, Alt.=120.715881m. Speed=0.072000m/h.</desc>
<speed>0.020000</speed>
</trkpt>
<trkpt lat="55.782261" lon="26.347178">
<ele>120.737366</ele>
<time>2010-07-17T09:09:18Z</time>
<desc>lat.=55.782261, lon.=26.347178, Alt.=120.737366m. Speed=0.072000m/h.</desc>
<speed>0.020000</speed>
</trkpt>
<trkpt lat="55.782261" lon="26.347178">
<ele>120.743225</ele>
<time>2010-07-17T09:09:19Z</time>
<desc>lat.=55.782261, lon.=26.347178, Alt.=120.743225m. Speed=0.072000m/h.</desc>
<speed>0.020000</speed>
</trkpt>
<trkpt lat="55.782261" lon="26.347178">
<ele>120.754944</ele>
<time>2010-07-17T09:09:20Z</time>
<desc>lat.=55.782261, lon.=26.347178, Alt.=120.754944m. Speed=0.072000m/h.</desc>
<speed>0.020000</speed>
</trkpt>
<trkpt lat="55.782261" lon="26.347178">
<ele>120.774475</ele>
<time>2010-07-17T09:09:21Z</time>
<desc>lat.=55.782261, lon.=26.347178, Alt.=120.774475m. Speed=0.072000m/h.</desc>
<speed>0.020000</speed>
</trkpt>
<trkpt lat="55.782265" lon="26.347178">
<ele>120.795959</ele>
<time>2010-07-17T09:09:22Z</time>
<desc>lat.=55.782265, lon.=26.347178, Alt.=120.795959m. Speed=0.108000m/h.</desc>
<speed>0.030000</speed>
</trkpt>
<trkpt lat="55.782265" lon="26.347178">
<ele>120.815491</ele>
<time>2010-07-17T09:09:23Z</time>
<desc>lat.=55.782265, lon.=26.347178, Alt.=120.815491m. Speed=0.108000m/h.</desc>
<speed>0.030000</speed>
</trkpt>
<trkpt lat="55.782265" lon="26.347178">
<ele>120.854553</ele>
<time>2010-07-17T09:09:24Z</time>
<desc>lat.=55.782265, lon.=26.347178, Alt.=120.854553m. Speed=0.180000m/h.</desc>
<speed>0.050000</speed>
</trkpt>
<trkpt lat="55.782265" lon="26.347178">
<ele>120.877991</ele>
<time>2010-07-17T09:09:25Z</time>
<desc>lat.=55.782265, lon.=26.347178, Alt.=120.877991m. Speed=0.108000m/h.</desc>
<speed>0.030000</speed>
</trkpt>
<trkpt lat="55.782265" lon="26.347178">
<ele>120.909241</ele>
<time>2010-07-17T09:09:26Z</time>
<desc>lat.=55.782265, lon.=26.347178, Alt.=120.909241m. Speed=0.144000m/h.</desc>
<speed>0.040000</speed>
</trkpt>
<trkpt lat="55.782265" lon="26.347178">
<ele>120.965881</ele>
<time>2010-07-17T09:09:27Z</time>
<desc>lat.=55.782265, lon.=26.347178, Alt.=120.965881m. Speed=0.144000m/h.</desc>
<speed>0.040000</speed>
</trkpt>
<trkpt lat="55.782265" lon="26.347179">
<ele>121.006897</ele>
<time>2010-07-17T09:09:28Z</time>
<desc>lat.=55.782265, lon.=26.347179, Alt.=121.006897m. Speed=0.180000m/h.</desc>
<speed>0.050000</speed>
</trkpt>
<trkpt lat="55.782265" lon="26.347179">
<ele>121.034241</ele>
<time>2010-07-17T09:09:29Z</time>
<desc>lat.=55.782265, lon.=26.347179, Alt.=121.034241m. Speed=0.216000m/h.</desc>
<speed>0.060000</speed>
</trkpt>
<trkpt lat="55.782265" lon="26.347179">
<ele>121.065491</ele>
<time>2010-07-17T09:09:30Z</time>
<desc>lat.=55.782265, lon.=26.347179, Alt.=121.065491m. Speed=0.180000m/h.</desc>
<speed>0.050000</speed>
</trkpt>
<trkpt lat="55.782265" lon="26.347179">
<ele>121.096741</ele>
<time>2010-07-17T09:09:31Z</time>
<desc>lat.=55.782265, lon.=26.347179, Alt.=121.096741m. Speed=0.108000m/h.</desc>
<speed>0.030000</speed>
</trkpt>
<trkpt lat="55.782265" lon="26.347179">
<ele>121.116272</ele>
<time>2010-07-17T09:09:32Z</time>
<desc>lat.=55.782265, lon.=26.347179, Alt.=121.116272m. Speed=0.144000m/h.</desc>
<speed>0.040000</speed>
</trkpt>
<trkpt lat="55.782265" lon="26.347179">
<ele>121.137756</ele>
<time>2010-07-17T09:09:33Z</time>
<desc>lat.=55.782265, lon.=26.347179, Alt.=121.137756m. Speed=0.072000m/h.</desc>
<speed>0.020000</speed>
</trkpt>
<trkpt lat="55.782265" lon="26.347179">
<ele>121.161194</ele>
<time>2010-07-17T09:09:34Z</time>
<desc>lat.=55.782265, lon.=26.347179, Alt.=121.161194m. Speed=0.072000m/h.</desc>
<speed>0.020000</speed>
</trkpt>
<trkpt lat="55.782265" lon="26.347179">
<ele>121.194397</ele>
<time>2010-07-17T09:09:35Z</time>
<desc>lat.=55.782265, lon.=26.347179, Alt.=121.194397m. Speed=0.108000m/h.</desc>
<speed>0.030000</speed>
</trkpt>
<trkpt lat="55.782265" lon="26.347181">
<ele>121.206116</ele>
<time>2010-07-17T09:09:36Z</time>
<desc>lat.=55.782265, lon.=26.347181, Alt.=121.206116m. Speed=0.108000m/h.</desc>
<speed>0.030000</speed>
</trkpt>
<trkpt lat="55.782265" lon="26.347181">
<ele>121.210022</ele>
<time>2010-07-17T09:09:37Z</time>
<desc>lat.=55.782265, lon.=26.347181, Alt.=121.210022m. Speed=0.072000m/h.</desc>
<speed>0.020000</speed>
</trkpt>
<trkpt lat="55.782265" lon="26.347181">
<ele>121.225647</ele>
<time>2010-07-17T09:09:38Z</time>
<desc>lat.=55.782265, lon.=26.347181, Alt.=121.225647m. Speed=0.108000m/h.</desc>
<speed>0.030000</speed>
</trkpt>
<trkpt lat="55.782265" lon="26.347181">
<ele>121.241272</ele>
<time>2010-07-17T09:09:39Z</time>
<desc>lat.=55.782265, lon.=26.347181, Alt.=121.241272m. Speed=0.180000m/h.</desc>
<speed>0.050000</speed>
</trkpt>
<trkpt lat="55.782265" lon="26.347181">
<ele>121.245178</ele>
<time>2010-07-17T09:09:40Z</time>
<desc>lat.=55.782265, lon.=26.347181, Alt.=121.245178m. Speed=0.072000m/h.</desc>
<speed>0.020000</speed>
</trkpt>
<trkpt lat="55.782265" lon="26.347181">
<ele>121.252991</ele>
<time>2010-07-17T09:09:41Z</time>
<desc>lat.=55.782265, lon.=26.347181, Alt.=121.252991m. Speed=0.288000m/h.</desc>
<speed>0.080000</speed>
</trkpt>
<trkpt lat="55.782265" lon="26.347181">
<ele>121.264709</ele>
<time>2010-07-17T09:09:42Z</time>
<desc>lat.=55.782265, lon.=26.347181, Alt.=121.264709m. Speed=0.144000m/h.</desc>
<speed>0.040000</speed>
</trkpt>
<trkpt lat="55.782265" lon="26.347183">
<ele>121.272522</ele>
<time>2010-07-17T09:09:43Z</time>
<desc>lat.=55.782265, lon.=26.347183, Alt.=121.272522m. Speed=0.144000m/h.</desc>
<speed>0.040000</speed>
</trkpt>
<trkpt lat="55.782265" lon="26.347183">
<ele>121.282288</ele>
<time>2010-07-17T09:09:44Z</time>
<desc>lat.=55.782265, lon.=26.347183, Alt.=121.282288m. Speed=0.108000m/h.</desc>
<speed>0.030000</speed>
</trkpt>
<trkpt lat="55.782265" lon="26.347183">
<ele>121.297913</ele>
<time>2010-07-17T09:09:45Z</time>
<desc>lat.=55.782265, lon.=26.347183, Alt.=121.297913m. Speed=0.000000m/h.</desc>
<speed>0.000000</speed>
</trkpt>
<trkpt lat="55.782265" lon="26.347183">
<ele>121.307678</ele>
<time>2010-07-17T09:09:46Z</time>
<desc>lat.=55.782265, lon.=26.347183, Alt.=121.307678m. Speed=0.000000m/h.</desc>
<speed>0.000000</speed>
</trkpt>
<trkpt lat="55.782265" lon="26.347183">
<ele>121.315491</ele>
<time>2010-07-17T09:09:47Z</time>
<desc>lat.=55.782265, lon.=26.347183, Alt.=121.315491m. Speed=0.036000m/h.</desc>
<speed>0.010000</speed>
</trkpt>
<trkpt lat="55.782265" lon="26.347183">
<ele>121.335022</ele>
<time>2010-07-17T09:09:48Z</time>
<desc>lat.=55.782265, lon.=26.347183, Alt.=121.335022m. Speed=0.072000m/h.</desc>
<speed>0.020000</speed>
</trkpt>
<trkpt lat="55.782265" lon="26.347183">
<ele>121.348694</ele>
<time>2010-07-17T09:09:49Z</time>
<desc>lat.=55.782265, lon.=26.347183, Alt.=121.348694m. Speed=0.072000m/h.</desc>
<speed>0.020000</speed>
</trkpt>
<trkpt lat="55.782265" lon="26.347183">
<ele>121.358459</ele>
<time>2010-07-17T09:09:50Z</time>
<desc>lat.=55.782265, lon.=26.347183, Alt.=121.358459m. Speed=0.108000m/h.</desc>
<speed>0.030000</speed>
</trkpt>
<trkpt lat="55.782265" lon="26.347183">
<ele>121.381897</ele>
<time>2010-07-17T09:09:51Z</time>
<desc>lat.=55.782265, lon.=26.347183, Alt.=121.381897m. Speed=0.000000m/h.</desc>
<speed>0.000000</speed>
</trkpt>
<trkpt lat="55.782265" lon="26.347183">
<ele>121.401428</ele>
<time>2010-07-17T09:09:52Z</time>
<desc>lat.=55.782265, lon.=26.347183, Alt.=121.401428m. Speed=0.072000m/h.</desc>
<speed>0.020000</speed>
</trkpt>
<trkpt lat="55.782265" lon="26.347183">
<ele>121.415100</ele>
<time>2010-07-17T09:09:53Z</time>
<desc>lat.=55.782265, lon.=26.347183, Alt.=121.415100m. Speed=0.000000m/h.</desc>
<speed>0.000000</speed>
</trkpt>
<trkpt lat="55.782265" lon="26.347183">
<ele>121.417053</ele>
<time>2010-07-17T09:09:54Z</time>
<desc>lat.=55.782265, lon.=26.347183, Alt.=121.417053m. Speed=0.072000m/h.</desc>
<speed>0.020000</speed>
</trkpt>
<trkpt lat="55.782265" lon="26.347183">
<ele>121.413147</ele>
<time>2010-07-17T09:09:55Z</time>
<desc>lat.=55.782265, lon.=26.347183, Alt.=121.413147m. Speed=0.072000m/h.</desc>
<speed>0.020000</speed>
</trkpt>
<trkpt lat="55.782265" lon="26.347183">
<ele>121.417053</ele>
<time>2010-07-17T09:09:56Z</time>
<desc>lat.=55.782265, lon.=26.347183, Alt.=121.417053m. Speed=0.108000m/h.</desc>
<speed>0.030000</speed>
</trkpt>
<trkpt lat="55.782265" lon="26.347183">
<ele>121.417053</ele>
<time>2010-07-17T09:09:57Z</time>
<desc>lat.=55.782265, lon.=26.347183, Alt.=121.417053m. Speed=0.036000m/h.</desc>
<speed>0.010000</speed>
</trkpt>
<trkpt lat="55.782265" lon="26.347183">
<ele>121.419006</ele>
<time>2010-07-17T09:09:58Z</time>
<desc>lat.=55.782265, lon.=26.347183, Alt.=121.419006m. Speed=0.108000m/h.</desc>
<speed>0.030000</speed>
</trkpt>
<trkpt lat="55.782265" lon="26.347183">
<ele>121.420959</ele>
<time>2010-07-17T09:09:59Z</time>
<desc>lat.=55.782265, lon.=26.347183, Alt.=121.420959m. Speed=0.072000m/h.</desc>
<speed>0.020000</speed>
</trkpt>
<trkpt lat="55.782265" lon="26.347183">
<ele>121.417053</ele>
<time>2010-07-17T09:10:00Z</time>
<desc>lat.=55.782265, lon.=26.347183, Alt.=121.417053m. Speed=0.000000m/h.</desc>
<speed>0.000000</speed>
</trkpt>
<trkpt lat="55.782265" lon="26.347183">
<ele>121.411194</ele>
<time>2010-07-17T09:10:01Z</time>
<desc>lat.=55.782265, lon.=26.347183, Alt.=121.411194m. Speed=0.036000m/h.</desc>
<speed>0.010000</speed>
</trkpt>
<trkpt lat="55.782265" lon="26.347183">
<ele>121.399475</ele>
<time>2010-07-17T09:10:02Z</time>
<desc>lat.=55.782265, lon.=26.347183, Alt.=121.399475m. Speed=0.072000m/h.</desc>
<speed>0.020000</speed>
</trkpt>
<trkpt lat="55.782265" lon="26.347181">
<ele>121.387756</ele>
<time>2010-07-17T09:10:03Z</time>
<desc>lat.=55.782265, lon.=26.347181, Alt.=121.387756m. Speed=0.000000m/h.</desc>
<speed>0.000000</speed>
</trkpt>
<trkpt lat="55.782265" lon="26.347181">
<ele>121.391663</ele>
<time>2010-07-17T09:10:04Z</time>
<desc>lat.=55.782265, lon.=26.347181, Alt.=121.391663m. Speed=0.036000m/h.</desc>
<speed>0.010000</speed>
</trkpt>
<trkpt lat="55.782265" lon="26.347181">
<ele>121.397522</ele>
<time>2010-07-17T09:10:05Z</time>
<desc>lat.=55.782265, lon.=26.347181, Alt.=121.397522m. Speed=0.108000m/h.</desc>
<speed>0.030000</speed>
</trkpt>
<trkpt lat="55.782265" lon="26.347181">
<ele>121.395569</ele>
<time>2010-07-17T09:10:06Z</time>
<desc>lat.=55.782265, lon.=26.347181, Alt.=121.395569m. Speed=0.072000m/h.</desc>
<speed>0.020000</speed>
</trkpt>
<trkpt lat="55.782265" lon="26.347181">
<ele>121.399475</ele>
<time>2010-07-17T09:10:07Z</time>
<desc>lat.=55.782265, lon.=26.347181, Alt.=121.399475m. Speed=0.036000m/h.</desc>
<speed>0.010000</speed>
</trkpt>
<trkpt lat="55.782265" lon="26.347181">
<ele>121.397522</ele>
<time>2010-07-17T09:10:08Z</time>
<desc>lat.=55.782265, lon.=26.347181, Alt.=121.397522m. Speed=0.000000m/h.</desc>
<speed>0.000000</speed>
</trkpt>
<trkpt lat="55.782265" lon="26.347181">
<ele>121.391663</ele>
<time>2010-07-17T09:10:09Z</time>
<desc>lat.=55.782265, lon.=26.347181, Alt.=121.391663m. Speed=0.072000m/h.</desc>
<speed>0.020000</speed>
</trkpt>
<trkpt lat="55.782265" lon="26.347181">
<ele>121.385803</ele>
<time>2010-07-17T09:10:10Z</time>
<desc>lat.=55.782265, lon.=26.347181, Alt.=121.385803m. Speed=0.072000m/h.</desc>
<speed>0.020000</speed>
</trkpt>
<trkpt lat="55.782265" lon="26.347181">
<ele>121.377991</ele>
<time>2010-07-17T09:10:11Z</time>
<desc>lat.=55.782265, lon.=26.347181, Alt.=121.377991m. Speed=0.000000m/h.</desc>
<speed>0.000000</speed>
</trkpt>
<trkpt lat="55.782265" lon="26.347181">
<ele>121.360413</ele>
<time>2010-07-17T09:10:12Z</time>
<desc>lat.=55.782265, lon.=26.347181, Alt.=121.360413m. Speed=0.036000m/h.</desc>
<speed>0.010000</speed>
</trkpt>
<trkpt lat="55.782265" lon="26.347181">
<ele>121.352600</ele>
<time>2010-07-17T09:10:13Z</time>
<desc>lat.=55.782265, lon.=26.347181, Alt.=121.352600m. Speed=0.072000m/h.</desc>
<speed>0.020000</speed>
</trkpt>
<trkpt lat="55.782265" lon="26.347181">
<ele>121.340881</ele>
<time>2010-07-17T09:10:14Z</time>
<desc>lat.=55.782265, lon.=26.347181, Alt.=121.340881m. Speed=0.108000m/h.</desc>
<speed>0.030000</speed>
</trkpt>
<trkpt lat="55.782265" lon="26.347181">
<ele>121.325256</ele>
<time>2010-07-17T09:10:15Z</time>
<desc>lat.=55.782265, lon.=26.347181, Alt.=121.325256m. Speed=0.036000m/h.</desc>
<speed>0.010000</speed>
</trkpt>
<trkpt lat="55.782265" lon="26.347181">
<ele>121.311584</ele>
<time>2010-07-17T09:10:16Z</time>
<desc>lat.=55.782265, lon.=26.347181, Alt.=121.311584m. Speed=0.036000m/h.</desc>
<speed>0.010000</speed>
</trkpt>
<trkpt lat="55.782265" lon="26.347181">
<ele>121.305725</ele>
<time>2010-07-17T09:10:17Z</time>
<desc>lat.=55.782265, lon.=26.347181, Alt.=121.305725m. Speed=0.072000m/h.</desc>
<speed>0.020000</speed>
</trkpt>
<trkpt lat="55.782265" lon="26.347183">
<ele>121.292053</ele>
<time>2010-07-17T09:10:18Z</time>
<desc>lat.=55.782265, lon.=26.347183, Alt.=121.292053m. Speed=0.072000m/h.</desc>
<speed>0.020000</speed>
</trkpt>
<trkpt lat="55.782265" lon="26.347183">
<ele>121.290100</ele>
<time>2010-07-17T09:10:19Z</time>
<desc>lat.=55.782265, lon.=26.347183, Alt.=121.290100m. Speed=0.072000m/h.</desc>
<speed>0.020000</speed>
</trkpt>
<trkpt lat="55.782265" lon="26.347183">
<ele>121.290100</ele>
<time>2010-07-17T09:10:20Z</time>
<desc>lat.=55.782265, lon.=26.347183, Alt.=121.290100m. Speed=0.000000m/h.</desc>
<speed>0.000000</speed>
</trkpt>
<trkpt lat="55.782265" lon="26.347183">
<ele>121.286194</ele>
<time>2010-07-17T09:10:21Z</time>
<desc>lat.=55.782265, lon.=26.347183, Alt.=121.286194m. Speed=0.036000m/h.</desc>
<speed>0.010000</speed>
</trkpt>
<trkpt lat="55.782265" lon="26.347183">
<ele>121.286194</ele>
<time>2010-07-17T09:10:22Z</time>
<desc>lat.=55.782265, lon.=26.347183, Alt.=121.286194m. Speed=0.072000m/h.</desc>
<speed>0.020000</speed>
</trkpt>
<trkpt lat="55.782265" lon="26.347183">
<ele>121.286194</ele>
<time>2010-07-17T09:10:23Z</time>
<desc>lat.=55.782265, lon.=26.347183, Alt.=121.286194m. Speed=0.072000m/h.</desc>
<speed>0.020000</speed>
</trkpt>
<trkpt lat="55.782265" lon="26.347183">
<ele>121.290100</ele>
<time>2010-07-17T09:10:24Z</time>
<desc>lat.=55.782265, lon.=26.347183, Alt.=121.290100m. Speed=0.036000m/h.</desc>
<speed>0.010000</speed>
</trkpt>
<trkpt lat="55.782265" lon="26.347183">
<ele>121.295959</ele>
<time>2010-07-17T09:10:25Z</time>
<desc>lat.=55.782265, lon.=26.347183, Alt.=121.295959m. Speed=0.036000m/h.</desc>
<speed>0.010000</speed>
</trkpt>
<trkpt lat="55.782265" lon="26.347183">
<ele>121.297913</ele>
<time>2010-07-17T09:10:26Z</time>
<desc>lat.=55.782265, lon.=26.347183, Alt.=121.297913m. Speed=0.072000m/h.</desc>
<speed>0.020000</speed>
</trkpt>
<trkpt lat="55.782265" lon="26.347183">
<ele>121.305725</ele>
<time>2010-07-17T09:10:27Z</time>
<desc>lat.=55.782265, lon.=26.347183, Alt.=121.305725m. Speed=0.072000m/h.</desc>
<speed>0.020000</speed>
</trkpt>
<trkpt lat="55.782265" lon="26.347183">
<ele>121.309631</ele>
<time>2010-07-17T09:10:28Z</time>
<desc>lat.=55.782265, lon.=26.347183, Alt.=121.309631m. Speed=0.072000m/h.</desc>
<speed>0.020000</speed>
</trkpt>
<trkpt lat="55.782265" lon="26.347183">
<ele>121.319397</ele>
<time>2010-07-17T09:10:29Z</time>
<desc>lat.=55.782265, lon.=26.347183, Alt.=121.319397m. Speed=0.036000m/h.</desc>
<speed>0.010000</speed>
</trkpt>
<trkpt lat="55.782265" lon="26.347183">
<ele>121.327209</ele>
<time>2010-07-17T09:10:30Z</time>
<desc>lat.=55.782265, lon.=26.347183, Alt.=121.327209m. Speed=0.036000m/h.</desc>
<speed>0.010000</speed>
</trkpt>
<trkpt lat="55.782265" lon="26.347185">
<ele>121.333069</ele>
<time>2010-07-17T09:10:31Z</time>
<desc>lat.=55.782265, lon.=26.347185, Alt.=121.333069m. Speed=0.108000m/h.</desc>
<speed>0.030000</speed>
</trkpt>
<trkpt lat="55.782265" lon="26.347185">
<ele>121.352600</ele>
<time>2010-07-17T09:10:32Z</time>
<desc>lat.=55.782265, lon.=26.347185, Alt.=121.352600m. Speed=0.072000m/h.</desc>
<speed>0.020000</speed>
</trkpt>
<trkpt lat="55.782265" lon="26.347185">
<ele>121.362366</ele>
<time>2010-07-17T09:10:33Z</time>
<desc>lat.=55.782265, lon.=26.347185, Alt.=121.362366m. Speed=0.072000m/h.</desc>
<speed>0.020000</speed>
</trkpt>
<trkpt lat="55.782265" lon="26.347185">
<ele>121.366272</ele>
<time>2010-07-17T09:10:34Z</time>
<desc>lat.=55.782265, lon.=26.347185, Alt.=121.366272m. Speed=0.000000m/h.</desc>
<speed>0.000000</speed>
</trkpt>
<trkpt lat="55.782265" lon="26.347185">
<ele>121.370178</ele>
<time>2010-07-17T09:10:35Z</time>
<desc>lat.=55.782265, lon.=26.347185, Alt.=121.370178m. Speed=0.108000m/h.</desc>
<speed>0.030000</speed>
</trkpt>
<trkpt lat="55.782265" lon="26.347185">
<ele>121.372131</ele>
<time>2010-07-17T09:10:36Z</time>
<desc>lat.=55.782265, lon.=26.347185, Alt.=121.372131m. Speed=0.000000m/h.</desc>
<speed>0.000000</speed>
</trkpt>
<trkpt lat="55.782265" lon="26.347185">
<ele>121.379944</ele>
<time>2010-07-17T09:10:37Z</time>
<desc>lat.=55.782265, lon.=26.347185, Alt.=121.379944m. Speed=0.036000m/h.</desc>
<speed>0.010000</speed>
</trkpt>
<trkpt lat="55.782265" lon="26.347185">
<ele>121.379944</ele>
<time>2010-07-17T09:10:38Z</time>
<desc>lat.=55.782265, lon.=26.347185, Alt.=121.379944m. Speed=0.108000m/h.</desc>
<speed>0.030000</speed>
</trkpt>
<trkpt lat="55.782265" lon="26.347185">
<ele>121.374084</ele>
<time>2010-07-17T09:10:39Z</time>
<desc>lat.=55.782265, lon.=26.347185, Alt.=121.374084m. Speed=0.144000m/h.</desc>
<speed>0.040000</speed>
</trkpt>
<trkpt lat="55.782265" lon="26.347185">
<ele>121.370178</ele>
<time>2010-07-17T09:10:40Z</time>
<desc>lat.=55.782265, lon.=26.347185, Alt.=121.370178m. Speed=0.108000m/h.</desc>
<speed>0.030000</speed>
</trkpt>
<trkpt lat="55.782265" lon="26.347187">
<ele>121.364319</ele>
<time>2010-07-17T09:10:41Z</time>
<desc>lat.=55.782265, lon.=26.347187, Alt.=121.364319m. Speed=0.108000m/h.</desc>
<speed>0.030000</speed>
</trkpt>
<trkpt lat="55.782265" lon="26.347187">
<ele>121.358459</ele>
<time>2010-07-17T09:10:42Z</time>
<desc>lat.=55.782265, lon.=26.347187, Alt.=121.358459m. Speed=0.180000m/h.</desc>
<speed>0.050000</speed>
</trkpt>
<trkpt lat="55.782265" lon="26.347187">
<ele>121.344788</ele>
<time>2010-07-17T09:10:43Z</time>
<desc>lat.=55.782265, lon.=26.347187, Alt.=121.344788m. Speed=0.000000m/h.</desc>
<speed>0.000000</speed>
</trkpt>
<trkpt lat="55.782265" lon="26.347187">
<ele>121.335022</ele>
<time>2010-07-17T09:10:44Z</time>
<desc>lat.=55.782265, lon.=26.347187, Alt.=121.335022m. Speed=0.072000m/h.</desc>
<speed>0.020000</speed>
</trkpt>
<trkpt lat="55.782265" lon="26.347187">
<ele>121.325256</ele>
<time>2010-07-17T09:10:45Z</time>
<desc>lat.=55.782265, lon.=26.347187, Alt.=121.325256m. Speed=0.108000m/h.</desc>
<speed>0.030000</speed>
</trkpt>
<trkpt lat="55.782265" lon="26.347187">
<ele>121.321350</ele>
<time>2010-07-17T09:10:46Z</time>
<desc>lat.=55.782265, lon.=26.347187, Alt.=121.321350m. Speed=0.144000m/h.</desc>
<speed>0.040000</speed>
</trkpt>
<trkpt lat="55.782265" lon="26.347187">
<ele>121.317444</ele>
<time>2010-07-17T09:10:47Z</time>
<desc>lat.=55.782265, lon.=26.347187, Alt.=121.317444m. Speed=0.108000m/h.</desc>
<speed>0.030000</speed>
</trkpt>
<trkpt lat="55.782265" lon="26.347187">
<ele>121.309631</ele>
<time>2010-07-17T09:10:48Z</time>
<desc>lat.=55.782265, lon.=26.347187, Alt.=121.309631m. Speed=0.072000m/h.</desc>
<speed>0.020000</speed>
</trkpt>
<trkpt lat="55.782265" lon="26.347189">
<ele>121.303772</ele>
<time>2010-07-17T09:10:49Z</time>
<desc>lat.=55.782265, lon.=26.347189, Alt.=121.303772m. Speed=0.180000m/h.</desc>
<speed>0.050000</speed>
</trkpt>
<trkpt lat="55.782265" lon="26.347189">
<ele>121.294006</ele>
<time>2010-07-17T09:10:50Z</time>
<desc>lat.=55.782265, lon.=26.347189, Alt.=121.294006m. Speed=0.180000m/h.</desc>
<speed>0.050000</speed>
</trkpt>
<trkpt lat="55.782265" lon="26.347189">
<ele>121.286194</ele>
<time>2010-07-17T09:10:51Z</time>
<desc>lat.=55.782265, lon.=26.347189, Alt.=121.286194m. Speed=0.216000m/h.</desc>
<speed>0.060000</speed>
</trkpt>
<trkpt lat="55.782265" lon="26.347189">
<ele>121.284241</ele>
<time>2010-07-17T09:10:52Z</time>
<desc>lat.=55.782265, lon.=26.347189, Alt.=121.284241m. Speed=0.180000m/h.</desc>
<speed>0.050000</speed>
</trkpt>
<trkpt lat="55.782265" lon="26.347189">
<ele>121.282288</ele>
<time>2010-07-17T09:10:53Z</time>
<desc>lat.=55.782265, lon.=26.347189, Alt.=121.282288m. Speed=0.144000m/h.</desc>
<speed>0.040000</speed>
</trkpt>
<trkpt lat="55.782265" lon="26.347189">
<ele>121.286194</ele>
<time>2010-07-17T09:10:54Z</time>
<desc>lat.=55.782265, lon.=26.347189, Alt.=121.286194m. Speed=0.072000m/h.</desc>
<speed>0.020000</speed>
</trkpt>
<trkpt lat="55.782265" lon="26.347191">
<ele>121.282288</ele>
<time>2010-07-17T09:10:55Z</time>
<desc>lat.=55.782265, lon.=26.347191, Alt.=121.282288m. Speed=0.108000m/h.</desc>
<speed>0.030000</speed>
</trkpt>
<trkpt lat="55.782265" lon="26.347191">
<ele>121.282288</ele>
<time>2010-07-17T09:10:56Z</time>
<desc>lat.=55.782265, lon.=26.347191, Alt.=121.282288m. Speed=0.108000m/h.</desc>
<speed>0.030000</speed>
</trkpt>
<trkpt lat="55.782265" lon="26.347191">
<ele>121.282288</ele>
<time>2010-07-17T09:10:57Z</time>
<desc>lat.=55.782265, lon.=26.347191, Alt.=121.282288m. Speed=0.144000m/h.</desc>
<speed>0.040000</speed>
</trkpt>
<trkpt lat="55.782265" lon="26.347191">
<ele>121.280334</ele>
<time>2010-07-17T09:10:58Z</time>
<desc>lat.=55.782265, lon.=26.347191, Alt.=121.280334m. Speed=0.144000m/h.</desc>
<speed>0.040000</speed>
</trkpt>
<trkpt lat="55.782265" lon="26.347191">
<ele>121.276428</ele>
<time>2010-07-17T09:10:59Z</time>
<desc>lat.=55.782265, lon.=26.347191, Alt.=121.276428m. Speed=0.144000m/h.</desc>
<speed>0.040000</speed>
</trkpt>
<trkpt lat="55.782265" lon="26.347191">
<ele>121.272522</ele>
<time>2010-07-17T09:11:00Z</time>
<desc>lat.=55.782265, lon.=26.347191, Alt.=121.272522m. Speed=0.108000m/h.</desc>
<speed>0.030000</speed>
</trkpt>
<trkpt lat="55.782265" lon="26.347193">
<ele>121.266663</ele>
<time>2010-07-17T09:11:01Z</time>
<desc>lat.=55.782265, lon.=26.347193, Alt.=121.266663m. Speed=0.144000m/h.</desc>
<speed>0.040000</speed>
</trkpt>
<trkpt lat="55.782265" lon="26.347193">
<ele>121.266663</ele>
<time>2010-07-17T09:11:02Z</time>
<desc>lat.=55.782265, lon.=26.347193, Alt.=121.266663m. Speed=0.108000m/h.</desc>
<speed>0.030000</speed>
</trkpt>
<trkpt lat="55.782265" lon="26.347193">
<ele>121.262756</ele>
<time>2010-07-17T09:11:03Z</time>
<desc>lat.=55.782265, lon.=26.347193, Alt.=121.262756m. Speed=0.144000m/h.</desc>
<speed>0.040000</speed>
</trkpt>
<trkpt lat="55.782265" lon="26.347193">
<ele>121.260803</ele>
<time>2010-07-17T09:11:04Z</time>
<desc>lat.=55.782265, lon.=26.347193, Alt.=121.260803m. Speed=0.180000m/h.</desc>
<speed>0.050000</speed>
</trkpt>
<trkpt lat="55.782265" lon="26.347193">
<ele>121.256897</ele>
<time>2010-07-17T09:11:05Z</time>
<desc>lat.=55.782265, lon.=26.347193, Alt.=121.256897m. Speed=0.216000m/h.</desc>
<speed>0.060000</speed>
</trkpt>
<trkpt lat="55.782265" lon="26.347195">
<ele>121.252991</ele>
<time>2010-07-17T09:11:06Z</time>
<desc>lat.=55.782265, lon.=26.347195, Alt.=121.252991m. Speed=0.216000m/h.</desc>
<speed>0.060000</speed>
</trkpt>
<trkpt lat="55.782265" lon="26.347195">
<ele>121.256897</ele>
<time>2010-07-17T09:11:07Z</time>
<desc>lat.=55.782265, lon.=26.347195, Alt.=121.256897m. Speed=0.108000m/h.</desc>
<speed>0.030000</speed>
</trkpt>
<trkpt lat="55.782265" lon="26.347195">
<ele>121.254944</ele>
<time>2010-07-17T09:11:08Z</time>
<desc>lat.=55.782265, lon.=26.347195, Alt.=121.254944m. Speed=0.180000m/h.</desc>
<speed>0.050000</speed>
</trkpt>
<trkpt lat="55.782265" lon="26.347195">
<ele>121.260803</ele>
<time>2010-07-17T09:11:09Z</time>
<desc>lat.=55.782265, lon.=26.347195, Alt.=121.260803m. Speed=0.216000m/h.</desc>
<speed>0.060000</speed>
</trkpt>
<trkpt lat="55.782265" lon="26.347197">
<ele>121.260803</ele>
<time>2010-07-17T09:11:10Z</time>
<desc>lat.=55.782265, lon.=26.347197, Alt.=121.260803m. Speed=0.252000m/h.</desc>
<speed>0.070000</speed>
</trkpt>
<trkpt lat="55.782265" lon="26.347197">
<ele>121.260803</ele>
<time>2010-07-17T09:11:11Z</time>
<desc>lat.=55.782265, lon.=26.347197, Alt.=121.260803m. Speed=0.180000m/h.</desc>
<speed>0.050000</speed>
</trkpt>
<trkpt lat="55.782265" lon="26.347197">
<ele>121.264709</ele>
<time>2010-07-17T09:11:12Z</time>
<desc>lat.=55.782265, lon.=26.347197, Alt.=121.264709m. Speed=0.144000m/h.</desc>
<speed>0.040000</speed>
</trkpt>
<trkpt lat="55.782265" lon="26.347197">
<ele>121.264709</ele>
<time>2010-07-17T09:11:13Z</time>
<desc>lat.=55.782265, lon.=26.347197, Alt.=121.264709m. Speed=0.144000m/h.</desc>
<speed>0.040000</speed>
</trkpt>
<trkpt lat="55.782265" lon="26.347197">
<ele>121.268616</ele>
<time>2010-07-17T09:11:14Z</time>
<desc>lat.=55.782265, lon.=26.347197, Alt.=121.268616m. Speed=0.144000m/h.</desc>
<speed>0.040000</speed>
</trkpt>
<trkpt lat="55.782265" lon="26.347197">
<ele>121.270569</ele>
<time>2010-07-17T09:11:15Z</time>
<desc>lat.=55.782265, lon.=26.347197, Alt.=121.270569m. Speed=0.144000m/h.</desc>
<speed>0.040000</speed>
</trkpt>
<trkpt lat="55.782265" lon="26.347198">
<ele>121.270569</ele>
<time>2010-07-17T09:11:16Z</time>
<desc>lat.=55.782265, lon.=26.347198, Alt.=121.270569m. Speed=0.072000m/h.</desc>
<speed>0.020000</speed>
</trkpt>
<trkpt lat="55.782265" lon="26.347198">
<ele>121.270569</ele>
<time>2010-07-17T09:11:17Z</time>
<desc>lat.=55.782265, lon.=26.347198, Alt.=121.270569m. Speed=0.036000m/h.</desc>
<speed>0.010000</speed>
</trkpt>
<trkpt lat="55.782265" lon="26.347198">
<ele>121.274475</ele>
<time>2010-07-17T09:11:18Z</time>
<desc>lat.=55.782265, lon.=26.347198, Alt.=121.274475m. Speed=0.036000m/h.</desc>
<speed>0.010000</speed>
</trkpt>
<trkpt lat="55.782265" lon="26.347198">
<ele>121.276428</ele>
<time>2010-07-17T09:11:19Z</time>
<desc>lat.=55.782265, lon.=26.347198, Alt.=121.276428m. Speed=0.000000m/h.</desc>
<speed>0.000000</speed>
</trkpt>
<trkpt lat="55.782265" lon="26.347198">
<ele>121.272522</ele>
<time>2010-07-17T09:11:20Z</time>
<desc>lat.=55.782265, lon.=26.347198, Alt.=121.272522m. Speed=0.000000m/h.</desc>
<speed>0.000000</speed>
</trkpt>
<trkpt lat="55.782265" lon="26.347198">
<ele>121.280334</ele>
<time>2010-07-17T09:11:21Z</time>
<desc>lat.=55.782265, lon.=26.347198, Alt.=121.280334m. Speed=0.036000m/h.</desc>
<speed>0.010000</speed>
</trkpt>
<trkpt lat="55.782265" lon="26.347198">
<ele>121.294006</ele>
<time>2010-07-17T09:11:22Z</time>
<desc>lat.=55.782265, lon.=26.347198, Alt.=121.294006m. Speed=0.108000m/h.</desc>
<speed>0.030000</speed>
</trkpt>
<trkpt lat="55.782265" lon="26.347198">
<ele>121.305725</ele>
<time>2010-07-17T09:11:23Z</time>
<desc>lat.=55.782265, lon.=26.347198, Alt.=121.305725m. Speed=0.072000m/h.</desc>
<speed>0.020000</speed>
</trkpt>
<trkpt lat="55.782265" lon="26.347198">
<ele>121.321350</ele>
<time>2010-07-17T09:11:24Z</time>
<desc>lat.=55.782265, lon.=26.347198, Alt.=121.321350m. Speed=0.036000m/h.</desc>
<speed>0.010000</speed>
</trkpt>
<trkpt lat="55.782265" lon="26.347198">
<ele>121.356506</ele>
<time>2010-07-17T09:11:25Z</time>
<desc>lat.=55.782265, lon.=26.347198, Alt.=121.356506m. Speed=0.000000m/h.</desc>
<speed>0.000000</speed>
</trkpt>
<trkpt lat="55.782265" lon="26.347198">
<ele>121.370178</ele>
<time>2010-07-17T09:11:26Z</time>
<desc>lat.=55.782265, lon.=26.347198, Alt.=121.370178m. Speed=0.036000m/h.</desc>
<speed>0.010000</speed>
</trkpt>
<trkpt lat="55.782265" lon="26.347198">
<ele>121.391663</ele>
<time>2010-07-17T09:11:27Z</time>
<desc>lat.=55.782265, lon.=26.347198, Alt.=121.391663m. Speed=0.000000m/h.</desc>
<speed>0.000000</speed>
</trkpt>
<trkpt lat="55.782265" lon="26.347198">
<ele>121.413147</ele>
<time>2010-07-17T09:11:28Z</time>
<desc>lat.=55.782265, lon.=26.347198, Alt.=121.413147m. Speed=0.036000m/h.</desc>
<speed>0.010000</speed>
</trkpt>
<trkpt lat="55.782265" lon="26.347198">
<ele>121.434631</ele>
<time>2010-07-17T09:11:29Z</time>
<desc>lat.=55.782265, lon.=26.347198, Alt.=121.434631m. Speed=0.000000m/h.</desc>
<speed>0.000000</speed>
</trkpt>
<trkpt lat="55.782265" lon="26.347198">
<ele>121.456116</ele>
<time>2010-07-17T09:11:30Z</time>
<desc>lat.=55.782265, lon.=26.347198, Alt.=121.456116m. Speed=0.036000m/h.</desc>
<speed>0.010000</speed>
</trkpt>
<trkpt lat="55.782265" lon="26.347198">
<ele>121.471741</ele>
<time>2010-07-17T09:11:31Z</time>
<desc>lat.=55.782265, lon.=26.347198, Alt.=121.471741m. Speed=0.000000m/h.</desc>
<speed>0.000000</speed>
</trkpt>
<trkpt lat="55.782265" lon="26.347198">
<ele>121.489319</ele>
<time>2010-07-17T09:11:32Z</time>
<desc>lat.=55.782265, lon.=26.347198, Alt.=121.489319m. Speed=0.036000m/h.</desc>
<speed>0.010000</speed>
</trkpt>
<trkpt lat="55.782265" lon="26.347198">
<ele>121.499084</ele>
<time>2010-07-17T09:11:33Z</time>
<desc>lat.=55.782265, lon.=26.347198, Alt.=121.499084m. Speed=0.036000m/h.</desc>
<speed>0.010000</speed>
</trkpt>
<trkpt lat="55.782261" lon="26.347198">
<ele>121.520569</ele>
<time>2010-07-17T09:11:34Z</time>
<desc>lat.=55.782261, lon.=26.347198, Alt.=121.520569m. Speed=0.000000m/h.</desc>
<speed>0.000000</speed>
</trkpt>
<trkpt lat="55.782261" lon="26.347198">
<ele>121.536194</ele>
<time>2010-07-17T09:11:35Z</time>
<desc>lat.=55.782261, lon.=26.347198, Alt.=121.536194m. Speed=0.036000m/h.</desc>
<speed>0.010000</speed>
</trkpt>
<trkpt lat="55.782261" lon="26.347198">
<ele>121.540100</ele>
<time>2010-07-17T09:11:36Z</time>
<desc>lat.=55.782261, lon.=26.347198, Alt.=121.540100m. Speed=0.000000m/h.</desc>
<speed>0.000000</speed>
</trkpt>
<trkpt lat="55.782261" lon="26.347198">
<ele>121.549866</ele>
<time>2010-07-17T09:11:37Z</time>
<desc>lat.=55.782261, lon.=26.347198, Alt.=121.549866m. Speed=0.000000m/h.</desc>
<speed>0.000000</speed>
</trkpt>
<trkpt lat="55.782261" lon="26.347198">
<ele>121.555725</ele>
<time>2010-07-17T09:11:38Z</time>
<desc>lat.=55.782261, lon.=26.347198, Alt.=121.555725m. Speed=0.000000m/h.</desc>
<speed>0.000000</speed>
</trkpt>
<trkpt lat="55.782261" lon="26.347198">
<ele>121.559631</ele>
<time>2010-07-17T09:11:39Z</time>
<desc>lat.=55.782261, lon.=26.347198, Alt.=121.559631m. Speed=0.036000m/h.</desc>
<speed>0.010000</speed>
</trkpt>
<trkpt lat="55.782261" lon="26.347198">
<ele>121.571350</ele>
<time>2010-07-17T09:11:40Z</time>
<desc>lat.=55.782261, lon.=26.347198, Alt.=121.571350m. Speed=0.072000m/h.</desc>
<speed>0.020000</speed>
</trkpt>
<trkpt lat="55.782261" lon="26.347198">
<ele>121.575256</ele>
<time>2010-07-17T09:11:41Z</time>
<desc>lat.=55.782261, lon.=26.347198, Alt.=121.575256m. Speed=0.072000m/h.</desc>
<speed>0.020000</speed>
</trkpt>
<trkpt lat="55.782261" lon="26.347198">
<ele>121.588928</ele>
<time>2010-07-17T09:11:42Z</time>
<desc>lat.=55.782261, lon.=26.347198, Alt.=121.588928m. Speed=0.036000m/h.</desc>
<speed>0.010000</speed>
</trkpt>
<trkpt lat="55.782261" lon="26.347198">
<ele>121.596741</ele>
<time>2010-07-17T09:11:43Z</time>
<desc>lat.=55.782261, lon.=26.347198, Alt.=121.596741m. Speed=0.036000m/h.</desc>
<speed>0.010000</speed>
</trkpt>
<trkpt lat="55.782261" lon="26.347198">
<ele>121.606506</ele>
<time>2010-07-17T09:11:44Z</time>
<desc>lat.=55.782261, lon.=26.347198, Alt.=121.606506m. Speed=0.036000m/h.</desc>
<speed>0.010000</speed>
</trkpt>
<trkpt lat="55.782261" lon="26.347198">
<ele>121.610413</ele>
<time>2010-07-17T09:11:45Z</time>
<desc>lat.=55.782261, lon.=26.347198, Alt.=121.610413m. Speed=0.000000m/h.</desc>
<speed>0.000000</speed>
</trkpt>
<trkpt lat="55.782261" lon="26.347198">
<ele>121.618225</ele>
<time>2010-07-17T09:11:46Z</time>
<desc>lat.=55.782261, lon.=26.347198, Alt.=121.618225m. Speed=0.072000m/h.</desc>
<speed>0.020000</speed>
</trkpt>
<trkpt lat="55.782261" lon="26.347198">
<ele>121.622131</ele>
<time>2010-07-17T09:11:47Z</time>
<desc>lat.=55.782261, lon.=26.347198, Alt.=121.622131m. Speed=0.000000m/h.</desc>
<speed>0.000000</speed>
</trkpt>
<trkpt lat="55.782261" lon="26.347198">
<ele>121.629944</ele>
<time>2010-07-17T09:11:48Z</time>
<desc>lat.=55.782261, lon.=26.347198, Alt.=121.629944m. Speed=0.036000m/h.</desc>
<speed>0.010000</speed>
</trkpt>
<trkpt lat="55.782261" lon="26.347198">
<ele>121.633850</ele>
<time>2010-07-17T09:11:49Z</time>
<desc>lat.=55.782261, lon.=26.347198, Alt.=121.633850m. Speed=0.000000m/h.</desc>
<speed>0.000000</speed>
</trkpt>
<trkpt lat="55.782261" lon="26.347198">
<ele>121.631897</ele>
<time>2010-07-17T09:11:50Z</time>
<desc>lat.=55.782261, lon.=26.347198, Alt.=121.631897m. Speed=0.072000m/h.</desc>
<speed>0.020000</speed>
</trkpt>
<trkpt lat="55.782261" lon="26.347198">
<ele>121.629944</ele>
<time>2010-07-17T09:11:51Z</time>
<desc>lat.=55.782261, lon.=26.347198, Alt.=121.629944m. Speed=0.036000m/h.</desc>
<speed>0.010000</speed>
</trkpt>
<trkpt lat="55.782261" lon="26.347198">
<ele>121.631897</ele>
<time>2010-07-17T09:11:52Z</time>
<desc>lat.=55.782261, lon.=26.347198, Alt.=121.631897m. Speed=0.036000m/h.</desc>
<speed>0.010000</speed>
</trkpt>
<trkpt lat="55.782261" lon="26.347198">
<ele>121.629944</ele>
<time>2010-07-17T09:11:53Z</time>
<desc>lat.=55.782261, lon.=26.347198, Alt.=121.629944m. Speed=0.036000m/h.</desc>
<speed>0.010000</speed>
</trkpt>
<trkpt lat="55.782261" lon="26.347198">
<ele>121.624084</ele>
<time>2010-07-17T09:11:54Z</time>
<desc>lat.=55.782261, lon.=26.347198, Alt.=121.624084m. Speed=0.036000m/h.</desc>
<speed>0.010000</speed>
</trkpt>
<trkpt lat="55.782261" lon="26.347198">
<ele>121.616272</ele>
<time>2010-07-17T09:11:55Z</time>
<desc>lat.=55.782261, lon.=26.347198, Alt.=121.616272m. Speed=0.072000m/h.</desc>
<speed>0.020000</speed>
</trkpt>
<trkpt lat="55.782261" lon="26.347198">
<ele>121.616272</ele>
<time>2010-07-17T09:11:56Z</time>
<desc>lat.=55.782261, lon.=26.347198, Alt.=121.616272m. Speed=0.036000m/h.</desc>
<speed>0.010000</speed>
</trkpt>
<trkpt lat="55.782261" lon="26.347198">
<ele>121.614319</ele>
<time>2010-07-17T09:11:57Z</time>
<desc>lat.=55.782261, lon.=26.347198, Alt.=121.614319m. Speed=0.108000m/h.</desc>
<speed>0.030000</speed>
</trkpt>
<trkpt lat="55.782261" lon="26.347198">
<ele>121.612366</ele>
<time>2010-07-17T09:11:58Z</time>
<desc>lat.=55.782261, lon.=26.347198, Alt.=121.612366m. Speed=0.072000m/h.</desc>
<speed>0.020000</speed>
</trkpt>
<trkpt lat="55.782261" lon="26.347198">
<ele>121.610413</ele>
<time>2010-07-17T09:11:59Z</time>
<desc>lat.=55.782261, lon.=26.347198, Alt.=121.610413m. Speed=0.036000m/h.</desc>
<speed>0.010000</speed>
</trkpt>
<trkpt lat="55.782261" lon="26.347198">
<ele>121.610413</ele>
<time>2010-07-17T09:12:00Z</time>
<desc>lat.=55.782261, lon.=26.347198, Alt.=121.610413m. Speed=0.000000m/h.</desc>
<speed>0.000000</speed>
</trkpt>
<trkpt lat="55.782261" lon="26.347198">
<ele>121.604553</ele>
<time>2010-07-17T09:12:01Z</time>
<desc>lat.=55.782261, lon.=26.347198, Alt.=121.604553m. Speed=0.108000m/h.</desc>
<speed>0.030000</speed>
</trkpt>
<trkpt lat="55.782261" lon="26.347200">
<ele>121.602600</ele>
<time>2010-07-17T09:12:02Z</time>
<desc>lat.=55.782261, lon.=26.347200, Alt.=121.602600m. Speed=0.108000m/h.</desc>
<speed>0.030000</speed>
</trkpt>
<trkpt lat="55.782261" lon="26.347200">
<ele>121.602600</ele>
<time>2010-07-17T09:12:03Z</time>
<desc>lat.=55.782261, lon.=26.347200, Alt.=121.602600m. Speed=0.000000m/h.</desc>
<speed>0.000000</speed>
</trkpt>
<trkpt lat="55.782261" lon="26.347200">
<ele>121.612366</ele>
<time>2010-07-17T09:12:04Z</time>
<desc>lat.=55.782261, lon.=26.347200, Alt.=121.612366m. Speed=0.072000m/h.</desc>
<speed>0.020000</speed>
</trkpt>
<trkpt lat="55.782261" lon="26.347200">
<ele>121.608459</ele>
<time>2010-07-17T09:12:05Z</time>
<desc>lat.=55.782261, lon.=26.347200, Alt.=121.608459m. Speed=0.108000m/h.</desc>
<speed>0.030000</speed>
</trkpt>
<trkpt lat="55.782261" lon="26.347200">
<ele>121.612366</ele>
<time>2010-07-17T09:12:06Z</time>
<desc>lat.=55.782261, lon.=26.347200, Alt.=121.612366m. Speed=0.108000m/h.</desc>
<speed>0.030000</speed>
</trkpt>
<trkpt lat="55.782261" lon="26.347200">
<ele>121.616272</ele>
<time>2010-07-17T09:12:07Z</time>
<desc>lat.=55.782261, lon.=26.347200, Alt.=121.616272m. Speed=0.036000m/h.</desc>
<speed>0.010000</speed>
</trkpt>
<trkpt lat="55.782261" lon="26.347200">
<ele>121.618225</ele>
<time>2010-07-17T09:12:08Z</time>
<desc>lat.=55.782261, lon.=26.347200, Alt.=121.618225m. Speed=0.108000m/h.</desc>
<speed>0.030000</speed>
</trkpt>
<trkpt lat="55.782261" lon="26.347200">
<ele>121.624084</ele>
<time>2010-07-17T09:12:09Z</time>
<desc>lat.=55.782261, lon.=26.347200, Alt.=121.624084m. Speed=0.036000m/h.</desc>
<speed>0.010000</speed>
</trkpt>
<trkpt lat="55.782261" lon="26.347200">
<ele>121.627991</ele>
<time>2010-07-17T09:12:10Z</time>
<desc>lat.=55.782261, lon.=26.347200, Alt.=121.627991m. Speed=0.000000m/h.</desc>
<speed>0.000000</speed>
</trkpt>
<trkpt lat="55.782261" lon="26.347200">
<ele>121.626038</ele>
<time>2010-07-17T09:12:11Z</time>
<desc>lat.=55.782261, lon.=26.347200, Alt.=121.626038m. Speed=0.108000m/h.</desc>
<speed>0.030000</speed>
</trkpt>
<trkpt lat="55.782261" lon="26.347200">
<ele>121.624084</ele>
<time>2010-07-17T09:12:12Z</time>
<desc>lat.=55.782261, lon.=26.347200, Alt.=121.624084m. Speed=0.180000m/h.</desc>
<speed>0.050000</speed>
</trkpt>
<trkpt lat="55.782261" lon="26.347202">
<ele>121.620178</ele>
<time>2010-07-17T09:12:13Z</time>
<desc>lat.=55.782261, lon.=26.347202, Alt.=121.620178m. Speed=0.216000m/h.</desc>
<speed>0.060000</speed>
</trkpt>
<trkpt lat="55.782261" lon="26.347202">
<ele>121.624084</ele>
<time>2010-07-17T09:12:14Z</time>
<desc>lat.=55.782261, lon.=26.347202, Alt.=121.624084m. Speed=0.072000m/h.</desc>
<speed>0.020000</speed>
</trkpt>
<trkpt lat="55.782261" lon="26.347202">
<ele>121.624084</ele>
<time>2010-07-17T09:12:15Z</time>
<desc>lat.=55.782261, lon.=26.347202, Alt.=121.624084m. Speed=0.144000m/h.</desc>
<speed>0.040000</speed>
</trkpt>
<trkpt lat="55.782261" lon="26.347202">
<ele>121.626038</ele>
<time>2010-07-17T09:12:16Z</time>
<desc>lat.=55.782261, lon.=26.347202, Alt.=121.626038m. Speed=0.072000m/h.</desc>
<speed>0.020000</speed>
</trkpt>
<trkpt lat="55.782261" lon="26.347202">
<ele>121.627991</ele>
<time>2010-07-17T09:12:17Z</time>
<desc>lat.=55.782261, lon.=26.347202, Alt.=121.627991m. Speed=0.072000m/h.</desc>
<speed>0.020000</speed>
</trkpt>
<trkpt lat="55.782261" lon="26.347202">
<ele>121.627991</ele>
<time>2010-07-17T09:12:18Z</time>
<desc>lat.=55.782261, lon.=26.347202, Alt.=121.627991m. Speed=0.144000m/h.</desc>
<speed>0.040000</speed>
</trkpt>
<trkpt lat="55.782261" lon="26.347202">
<ele>121.629944</ele>
<time>2010-07-17T09:12:19Z</time>
<desc>lat.=55.782261, lon.=26.347202, Alt.=121.629944m. Speed=0.036000m/h.</desc>
<speed>0.010000</speed>
</trkpt>
<trkpt lat="55.782261" lon="26.347202">
<ele>121.635803</ele>
<time>2010-07-17T09:12:20Z</time>
<desc>lat.=55.782261, lon.=26.347202, Alt.=121.635803m. Speed=0.108000m/h.</desc>
<speed>0.030000</speed>
</trkpt>
<trkpt lat="55.782261" lon="26.347204">
<ele>121.639709</ele>
<time>2010-07-17T09:12:21Z</time>
<desc>lat.=55.782261, lon.=26.347204, Alt.=121.639709m. Speed=0.036000m/h.</desc>
<speed>0.010000</speed>
</trkpt>
<trkpt lat="55.782261" lon="26.347204">
<ele>121.643616</ele>
<time>2010-07-17T09:12:22Z</time>
<desc>lat.=55.782261, lon.=26.347204, Alt.=121.643616m. Speed=0.072000m/h.</desc>
<speed>0.020000</speed>
</trkpt>
<trkpt lat="55.782261" lon="26.347204">
<ele>121.645569</ele>
<time>2010-07-17T09:12:23Z</time>
<desc>lat.=55.782261, lon.=26.347204, Alt.=121.645569m. Speed=0.000000m/h.</desc>
<speed>0.000000</speed>
</trkpt>
<trkpt lat="55.782261" lon="26.347204">
<ele>121.651428</ele>
<time>2010-07-17T09:12:24Z</time>
<desc>lat.=55.782261, lon.=26.347204, Alt.=121.651428m. Speed=0.108000m/h.</desc>
<speed>0.030000</speed>
</trkpt>
<trkpt lat="55.782261" lon="26.347204">
<ele>121.661194</ele>
<time>2010-07-17T09:12:25Z</time>
<desc>lat.=55.782261, lon.=26.347204, Alt.=121.661194m. Speed=0.216000m/h.</desc>
<speed>0.060000</speed>
</trkpt>
<trkpt lat="55.782261" lon="26.347204">
<ele>121.669006</ele>
<time>2010-07-17T09:12:26Z</time>
<desc>lat.=55.782261, lon.=26.347204, Alt.=121.669006m. Speed=0.288000m/h.</desc>
<speed>0.080000</speed>
</trkpt>
<trkpt lat="55.782261" lon="26.347206">
<ele>121.676819</ele>
<time>2010-07-17T09:12:27Z</time>
<desc>lat.=55.782261, lon.=26.347206, Alt.=121.676819m. Speed=0.180000m/h.</desc>
<speed>0.050000</speed>
</trkpt>
<trkpt lat="55.782261" lon="26.347206">
<ele>121.682678</ele>
<time>2010-07-17T09:12:28Z</time>
<desc>lat.=55.782261, lon.=26.347206, Alt.=121.682678m. Speed=0.144000m/h.</desc>
<speed>0.040000</speed>
</trkpt>
<trkpt lat="55.782261" lon="26.347206">
<ele>121.696350</ele>
<time>2010-07-17T09:12:29Z</time>
<desc>lat.=55.782261, lon.=26.347206, Alt.=121.696350m. Speed=0.144000m/h.</desc>
<speed>0.040000</speed>
</trkpt>
<trkpt lat="55.782261" lon="26.347208">
<ele>121.710022</ele>
<time>2010-07-17T09:12:30Z</time>
<desc>lat.=55.782261, lon.=26.347208, Alt.=121.710022m. Speed=0.252000m/h.</desc>
<speed>0.070000</speed>
</trkpt>
<trkpt lat="55.782261" lon="26.347208">
<ele>121.723694</ele>
<time>2010-07-17T09:12:31Z</time>
<desc>lat.=55.782261, lon.=26.347208, Alt.=121.723694m. Speed=0.180000m/h.</desc>
<speed>0.050000</speed>
</trkpt>
<trkpt lat="55.782261" lon="26.347208">
<ele>121.735413</ele>
<time>2010-07-17T09:12:32Z</time>
<desc>lat.=55.782261, lon.=26.347208, Alt.=121.735413m. Speed=0.252000m/h.</desc>
<speed>0.070000</speed>
</trkpt>
<trkpt lat="55.782261" lon="26.347208">
<ele>121.743225</ele>
<time>2010-07-17T09:12:33Z</time>
<desc>lat.=55.782261, lon.=26.347208, Alt.=121.743225m. Speed=0.144000m/h.</desc>
<speed>0.040000</speed>
</trkpt>
<trkpt lat="55.782261" lon="26.347210">
<ele>121.754944</ele>
<time>2010-07-17T09:12:34Z</time>
<desc>lat.=55.782261, lon.=26.347210, Alt.=121.754944m. Speed=0.108000m/h.</desc>
<speed>0.030000</speed>
</trkpt>
<trkpt lat="55.782261" lon="26.347210">
<ele>121.760803</ele>
<time>2010-07-17T09:12:35Z</time>
<desc>lat.=55.782261, lon.=26.347210, Alt.=121.760803m. Speed=0.108000m/h.</desc>
<speed>0.030000</speed>
</trkpt>
<trkpt lat="55.782261" lon="26.347210">
<ele>121.764709</ele>
<time>2010-07-17T09:12:36Z</time>
<desc>lat.=55.782261, lon.=26.347210, Alt.=121.764709m. Speed=0.108000m/h.</desc>
<speed>0.030000</speed>
</trkpt>
<trkpt lat="55.782261" lon="26.347210">
<ele>121.768616</ele>
<time>2010-07-17T09:12:37Z</time>
<desc>lat.=55.782261, lon.=26.347210, Alt.=121.768616m. Speed=0.072000m/h.</desc>
<speed>0.020000</speed>
</trkpt>
<trkpt lat="55.782261" lon="26.347210">
<ele>121.770569</ele>
<time>2010-07-17T09:12:38Z</time>
<desc>lat.=55.782261, lon.=26.347210, Alt.=121.770569m. Speed=0.072000m/h.</desc>
<speed>0.020000</speed>
</trkpt>
<trkpt lat="55.782261" lon="26.347210">
<ele>121.774475</ele>
<time>2010-07-17T09:12:39Z</time>
<desc>lat.=55.782261, lon.=26.347210, Alt.=121.774475m. Speed=0.108000m/h.</desc>
<speed>0.030000</speed>
</trkpt>
<trkpt lat="55.782261" lon="26.347210">
<ele>121.780334</ele>
<time>2010-07-17T09:12:40Z</time>
<desc>lat.=55.782261, lon.=26.347210, Alt.=121.780334m. Speed=0.108000m/h.</desc>
<speed>0.030000</speed>
</trkpt>
<trkpt lat="55.782261" lon="26.347210">
<ele>121.786194</ele>
<time>2010-07-17T09:12:41Z</time>
<desc>lat.=55.782261, lon.=26.347210, Alt.=121.786194m. Speed=0.036000m/h.</desc>
<speed>0.010000</speed>
</trkpt>
<trkpt lat="55.782261" lon="26.347210">
<ele>121.788147</ele>
<time>2010-07-17T09:12:42Z</time>
<desc>lat.=55.782261, lon.=26.347210, Alt.=121.788147m. Speed=0.000000m/h.</desc>
<speed>0.000000</speed>
</trkpt>
<trkpt lat="55.782261" lon="26.347210">
<ele>121.790100</ele>
<time>2010-07-17T09:12:43Z</time>
<desc>lat.=55.782261, lon.=26.347210, Alt.=121.790100m. Speed=0.036000m/h.</desc>
<speed>0.010000</speed>
</trkpt>
<trkpt lat="55.782261" lon="26.347210">
<ele>121.790100</ele>
<time>2010-07-17T09:12:44Z</time>
<desc>lat.=55.782261, lon.=26.347210, Alt.=121.790100m. Speed=0.072000m/h.</desc>
<speed>0.020000</speed>
</trkpt>
<trkpt lat="55.782261" lon="26.347210">
<ele>121.788147</ele>
<time>2010-07-17T09:12:45Z</time>
<desc>lat.=55.782261, lon.=26.347210, Alt.=121.788147m. Speed=0.072000m/h.</desc>
<speed>0.020000</speed>
</trkpt>
<trkpt lat="55.782261" lon="26.347212">
<ele>121.784241</ele>
<time>2010-07-17T09:12:46Z</time>
<desc>lat.=55.782261, lon.=26.347212, Alt.=121.784241m. Speed=0.108000m/h.</desc>
<speed>0.030000</speed>
</trkpt>
<trkpt lat="55.782261" lon="26.347212">
<ele>121.782288</ele>
<time>2010-07-17T09:12:47Z</time>
<desc>lat.=55.782261, lon.=26.347212, Alt.=121.782288m. Speed=0.036000m/h.</desc>
<speed>0.010000</speed>
</trkpt>
<trkpt lat="55.782261" lon="26.347212">
<ele>121.782288</ele>
<time>2010-07-17T09:12:48Z</time>
<desc>lat.=55.782261, lon.=26.347212, Alt.=121.782288m. Speed=0.072000m/h.</desc>
<speed>0.020000</speed>
</trkpt>
<trkpt lat="55.782261" lon="26.347212">
<ele>121.778381</ele>
<time>2010-07-17T09:12:49Z</time>
<desc>lat.=55.782261, lon.=26.347212, Alt.=121.778381m. Speed=0.000000m/h.</desc>
<speed>0.000000</speed>
</trkpt>
<trkpt lat="55.782261" lon="26.347212">
<ele>121.780334</ele>
<time>2010-07-17T09:12:50Z</time>
<desc>lat.=55.782261, lon.=26.347212, Alt.=121.780334m. Speed=0.000000m/h.</desc>
<speed>0.000000</speed>
</trkpt>
<trkpt lat="55.782261" lon="26.347212">
<ele>121.782288</ele>
<time>2010-07-17T09:12:51Z</time>
<desc>lat.=55.782261, lon.=26.347212, Alt.=121.782288m. Speed=0.108000m/h.</desc>
<speed>0.030000</speed>
</trkpt>
<trkpt lat="55.782261" lon="26.347210">
<ele>121.778381</ele>
<time>2010-07-17T09:12:52Z</time>
<desc>lat.=55.782261, lon.=26.347210, Alt.=121.778381m. Speed=0.144000m/h.</desc>
<speed>0.040000</speed>
</trkpt>
<trkpt lat="55.782261" lon="26.347210">
<ele>121.774475</ele>
<time>2010-07-17T09:12:53Z</time>
<desc>lat.=55.782261, lon.=26.347210, Alt.=121.774475m. Speed=0.180000m/h.</desc>
<speed>0.050000</speed>
</trkpt>
<trkpt lat="55.782261" lon="26.347210">
<ele>121.770569</ele>
<time>2010-07-17T09:12:54Z</time>
<desc>lat.=55.782261, lon.=26.347210, Alt.=121.770569m. Speed=0.036000m/h.</desc>
<speed>0.010000</speed>
</trkpt>
<trkpt lat="55.782261" lon="26.347210">
<ele>121.766663</ele>
<time>2010-07-17T09:12:55Z</time>
<desc>lat.=55.782261, lon.=26.347210, Alt.=121.766663m. Speed=0.072000m/h.</desc>
<speed>0.020000</speed>
</trkpt>
<trkpt lat="55.782261" lon="26.347210">
<ele>121.766663</ele>
<time>2010-07-17T09:12:56Z</time>
<desc>lat.=55.782261, lon.=26.347210, Alt.=121.766663m. Speed=0.036000m/h.</desc>
<speed>0.010000</speed>
</trkpt>
<trkpt lat="55.782261" lon="26.347210">
<ele>121.772522</ele>
<time>2010-07-17T09:12:57Z</time>
<desc>lat.=55.782261, lon.=26.347210, Alt.=121.772522m. Speed=0.000000m/h.</desc>
<speed>0.000000</speed>
</trkpt>
<trkpt lat="55.782261" lon="26.347210">
<ele>121.776428</ele>
<time>2010-07-17T09:12:58Z</time>
<desc>lat.=55.782261, lon.=26.347210, Alt.=121.776428m. Speed=0.036000m/h.</desc>
<speed>0.010000</speed>
</trkpt>
<trkpt lat="55.782261" lon="26.347210">
<ele>121.780334</ele>
<time>2010-07-17T09:12:59Z</time>
<desc>lat.=55.782261, lon.=26.347210, Alt.=121.780334m. Speed=0.072000m/h.</desc>
<speed>0.020000</speed>
</trkpt>
<trkpt lat="55.782261" lon="26.347210">
<ele>121.784241</ele>
<time>2010-07-17T09:13:00Z</time>
<desc>lat.=55.782261, lon.=26.347210, Alt.=121.784241m. Speed=0.036000m/h.</desc>
<speed>0.010000</speed>
</trkpt>
<trkpt lat="55.782261" lon="26.347210">
<ele>121.790100</ele>
<time>2010-07-17T09:13:01Z</time>
<desc>lat.=55.782261, lon.=26.347210, Alt.=121.790100m. Speed=0.036000m/h.</desc>
<speed>0.010000</speed>
</trkpt>
<trkpt lat="55.782261" lon="26.347210">
<ele>121.795959</ele>
<time>2010-07-17T09:13:02Z</time>
<desc>lat.=55.782261, lon.=26.347210, Alt.=121.795959m. Speed=0.036000m/h.</desc>
<speed>0.010000</speed>
</trkpt>
<trkpt lat="55.782261" lon="26.347208">
<ele>121.801819</ele>
<time>2010-07-17T09:13:03Z</time>
<desc>lat.=55.782261, lon.=26.347208, Alt.=121.801819m. Speed=0.144000m/h.</desc>
<speed>0.040000</speed>
</trkpt>
<trkpt lat="55.782261" lon="26.347208">
<ele>121.807678</ele>
<time>2010-07-17T09:13:04Z</time>
<desc>lat.=55.782261, lon.=26.347208, Alt.=121.807678m. Speed=0.108000m/h.</desc>
<speed>0.030000</speed>
</trkpt>
<trkpt lat="55.782261" lon="26.347208">
<ele>121.813538</ele>
<time>2010-07-17T09:13:05Z</time>
<desc>lat.=55.782261, lon.=26.347208, Alt.=121.813538m. Speed=0.036000m/h.</desc>
<speed>0.010000</speed>
</trkpt>
<trkpt lat="55.782261" lon="26.347208">
<ele>121.819397</ele>
<time>2010-07-17T09:13:06Z</time>
<desc>lat.=55.782261, lon.=26.347208, Alt.=121.819397m. Speed=0.000000m/h.</desc>
<speed>0.000000</speed>
</trkpt>
<trkpt lat="55.782261" lon="26.347208">
<ele>121.829163</ele>
<time>2010-07-17T09:13:07Z</time>
<desc>lat.=55.782261, lon.=26.347208, Alt.=121.829163m. Speed=0.072000m/h.</desc>
<speed>0.020000</speed>
</trkpt>
<trkpt lat="55.782261" lon="26.347208">
<ele>121.838928</ele>
<time>2010-07-17T09:13:08Z</time>
<desc>lat.=55.782261, lon.=26.347208, Alt.=121.838928m. Speed=0.036000m/h.</desc>
<speed>0.010000</speed>
</trkpt>
<trkpt lat="55.782261" lon="26.347208">
<ele>121.850647</ele>
<time>2010-07-17T09:13:09Z</time>
<desc>lat.=55.782261, lon.=26.347208, Alt.=121.850647m. Speed=0.000000m/h.</desc>
<speed>0.000000</speed>
</trkpt>
<trkpt lat="55.782261" lon="26.347208">
<ele>121.862366</ele>
<time>2010-07-17T09:13:10Z</time>
<desc>lat.=55.782261, lon.=26.347208, Alt.=121.862366m. Speed=0.036000m/h.</desc>
<speed>0.010000</speed>
</trkpt>
<trkpt lat="55.782261" lon="26.347208">
<ele>121.872131</ele>
<time>2010-07-17T09:13:11Z</time>
<desc>lat.=55.782261, lon.=26.347208, Alt.=121.872131m. Speed=0.000000m/h.</desc>
<speed>0.000000</speed>
</trkpt>
<trkpt lat="55.782261" lon="26.347208">
<ele>121.870178</ele>
<time>2010-07-17T09:13:12Z</time>
<desc>lat.=55.782261, lon.=26.347208, Alt.=121.870178m. Speed=0.072000m/h.</desc>
<speed>0.020000</speed>
</trkpt>
<trkpt lat="55.782261" lon="26.347208">
<ele>121.877991</ele>
<time>2010-07-17T09:13:13Z</time>
<desc>lat.=55.782261, lon.=26.347208, Alt.=121.877991m. Speed=0.108000m/h.</desc>
<speed>0.030000</speed>
</trkpt>
<trkpt lat="55.782261" lon="26.347208">
<ele>121.877991</ele>
<time>2010-07-17T09:13:14Z</time>
<desc>lat.=55.782261, lon.=26.347208, Alt.=121.877991m. Speed=0.036000m/h.</desc>
<speed>0.010000</speed>
</trkpt>
<trkpt lat="55.782261" lon="26.347208">
<ele>121.877991</ele>
<time>2010-07-17T09:13:15Z</time>
<desc>lat.=55.782261, lon.=26.347208, Alt.=121.877991m. Speed=0.000000m/h.</desc>
<speed>0.000000</speed>
</trkpt>
<trkpt lat="55.782261" lon="26.347208">
<ele>121.872131</ele>
<time>2010-07-17T09:13:16Z</time>
<desc>lat.=55.782261, lon.=26.347208, Alt.=121.872131m. Speed=0.036000m/h.</desc>
<speed>0.010000</speed>
</trkpt>
<trkpt lat="55.782261" lon="26.347208">
<ele>121.862366</ele>
<time>2010-07-17T09:13:17Z</time>
<desc>lat.=55.782261, lon.=26.347208, Alt.=121.862366m. Speed=0.072000m/h.</desc>
<speed>0.020000</speed>
</trkpt>
<trkpt lat="55.782261" lon="26.347208">
<ele>121.858459</ele>
<time>2010-07-17T09:13:18Z</time>
<desc>lat.=55.782261, lon.=26.347208, Alt.=121.858459m. Speed=0.072000m/h.</desc>
<speed>0.020000</speed>
</trkpt>
<trkpt lat="55.782261" lon="26.347208">
<ele>121.879944</ele>
<time>2010-07-17T09:13:19Z</time>
<desc>lat.=55.782261, lon.=26.347208, Alt.=121.879944m. Speed=0.036000m/h.</desc>
<speed>0.010000</speed>
</trkpt>
<trkpt lat="55.782261" lon="26.347208">
<ele>121.887756</ele>
<time>2010-07-17T09:13:20Z</time>
<desc>lat.=55.782261, lon.=26.347208, Alt.=121.887756m. Speed=0.000000m/h.</desc>
<speed>0.000000</speed>
</trkpt>
<trkpt lat="55.782261" lon="26.347208">
<ele>121.895569</ele>
<time>2010-07-17T09:13:21Z</time>
<desc>lat.=55.782261, lon.=26.347208, Alt.=121.895569m. Speed=0.108000m/h.</desc>
<speed>0.030000</speed>
</trkpt>
<trkpt lat="55.782261" lon="26.347208">
<ele>121.889709</ele>
<time>2010-07-17T09:13:22Z</time>
<desc>lat.=55.782261, lon.=26.347208, Alt.=121.889709m. Speed=0.000000m/h.</desc>
<speed>0.000000</speed>
</trkpt>
<trkpt lat="55.782261" lon="26.347208">
<ele>121.897522</ele>
<time>2010-07-17T09:13:23Z</time>
<desc>lat.=55.782261, lon.=26.347208, Alt.=121.897522m. Speed=0.000000m/h.</desc>
<speed>0.000000</speed>
</trkpt>
<trkpt lat="55.782261" lon="26.347208">
<ele>121.895569</ele>
<time>2010-07-17T09:13:24Z</time>
<desc>lat.=55.782261, lon.=26.347208, Alt.=121.895569m. Speed=0.108000m/h.</desc>
<speed>0.030000</speed>
</trkpt>
<trkpt lat="55.782261" lon="26.347208">
<ele>121.891663</ele>
<time>2010-07-17T09:13:25Z</time>
<desc>lat.=55.782261, lon.=26.347208, Alt.=121.891663m. Speed=0.036000m/h.</desc>
<speed>0.010000</speed>
</trkpt>
<trkpt lat="55.782261" lon="26.347208">
<ele>121.889709</ele>
<time>2010-07-17T09:13:26Z</time>
<desc>lat.=55.782261, lon.=26.347208, Alt.=121.889709m. Speed=0.036000m/h.</desc>
<speed>0.010000</speed>
</trkpt>
<trkpt lat="55.782261" lon="26.347208">
<ele>121.885803</ele>
<time>2010-07-17T09:13:27Z</time>
<desc>lat.=55.782261, lon.=26.347208, Alt.=121.885803m. Speed=0.036000m/h.</desc>
<speed>0.010000</speed>
</trkpt>
<trkpt lat="55.782261" lon="26.347208">
<ele>121.887756</ele>
<time>2010-07-17T09:13:28Z</time>
<desc>lat.=55.782261, lon.=26.347208, Alt.=121.887756m. Speed=0.000000m/h.</desc>
<speed>0.000000</speed>
</trkpt>
<trkpt lat="55.782261" lon="26.347208">
<ele>121.885803</ele>
<time>2010-07-17T09:13:29Z</time>
<desc>lat.=55.782261, lon.=26.347208, Alt.=121.885803m. Speed=0.036000m/h.</desc>
<speed>0.010000</speed>
</trkpt>
<trkpt lat="55.782261" lon="26.347208">
<ele>121.889709</ele>
<time>2010-07-17T09:13:30Z</time>
<desc>lat.=55.782261, lon.=26.347208, Alt.=121.889709m. Speed=0.000000m/h.</desc>
<speed>0.000000</speed>
</trkpt>
<trkpt lat="55.782261" lon="26.347208">
<ele>121.883850</ele>
<time>2010-07-17T09:13:31Z</time>
<desc>lat.=55.782261, lon.=26.347208, Alt.=121.883850m. Speed=0.036000m/h.</desc>
<speed>0.010000</speed>
</trkpt>
<trkpt lat="55.782261" lon="26.347208">
<ele>121.879944</ele>
<time>2010-07-17T09:13:32Z</time>
<desc>lat.=55.782261, lon.=26.347208, Alt.=121.879944m. Speed=0.000000m/h.</desc>
<speed>0.000000</speed>
</trkpt>
<trkpt lat="55.782261" lon="26.347208">
<ele>121.876038</ele>
<time>2010-07-17T09:13:33Z</time>
<desc>lat.=55.782261, lon.=26.347208, Alt.=121.876038m. Speed=0.108000m/h.</desc>
<speed>0.030000</speed>
</trkpt>
<trkpt lat="55.782261" lon="26.347208">
<ele>121.870178</ele>
<time>2010-07-17T09:13:34Z</time>
<desc>lat.=55.782261, lon.=26.347208, Alt.=121.870178m. Speed=0.072000m/h.</desc>
<speed>0.020000</speed>
</trkpt>
<trkpt lat="55.782261" lon="26.347208">
<ele>121.868225</ele>
<time>2010-07-17T09:13:35Z</time>
<desc>lat.=55.782261, lon.=26.347208, Alt.=121.868225m. Speed=0.072000m/h.</desc>
<speed>0.020000</speed>
</trkpt>
<trkpt lat="55.782261" lon="26.347208">
<ele>121.858459</ele>
<time>2010-07-17T09:13:36Z</time>
<desc>lat.=55.782261, lon.=26.347208, Alt.=121.858459m. Speed=0.144000m/h.</desc>
<speed>0.040000</speed>
</trkpt>
<trkpt lat="55.782257" lon="26.347208">
<ele>121.852600</ele>
<time>2010-07-17T09:13:37Z</time>
<desc>lat.=55.782257, lon.=26.347208, Alt.=121.852600m. Speed=0.108000m/h.</desc>
<speed>0.030000</speed>
</trkpt>
<trkpt lat="55.782257" lon="26.347208">
<ele>121.856506</ele>
<time>2010-07-17T09:13:38Z</time>
<desc>lat.=55.782257, lon.=26.347208, Alt.=121.856506m. Speed=0.072000m/h.</desc>
<speed>0.020000</speed>
</trkpt>
<trkpt lat="55.782257" lon="26.347208">
<ele>121.842834</ele>
<time>2010-07-17T09:13:39Z</time>
<desc>lat.=55.782257, lon.=26.347208, Alt.=121.842834m. Speed=0.108000m/h.</desc>
<speed>0.030000</speed>
</trkpt>
<trkpt lat="55.782257" lon="26.347208">
<ele>121.835022</ele>
<time>2010-07-17T09:13:40Z</time>
<desc>lat.=55.782257, lon.=26.347208, Alt.=121.835022m. Speed=0.072000m/h.</desc>
<speed>0.020000</speed>
</trkpt>
<trkpt lat="55.782257" lon="26.347208">
<ele>121.833069</ele>
<time>2010-07-17T09:13:41Z</time>
<desc>lat.=55.782257, lon.=26.347208, Alt.=121.833069m. Speed=0.036000m/h.</desc>
<speed>0.010000</speed>
</trkpt>
<trkpt lat="55.782257" lon="26.347208">
<ele>121.835022</ele>
<time>2010-07-17T09:13:42Z</time>
<desc>lat.=55.782257, lon.=26.347208, Alt.=121.835022m. Speed=0.000000m/h.</desc>
<speed>0.000000</speed>
</trkpt>
<trkpt lat="55.782257" lon="26.347208">
<ele>121.827209</ele>
<time>2010-07-17T09:13:43Z</time>
<desc>lat.=55.782257, lon.=26.347208, Alt.=121.827209m. Speed=0.036000m/h.</desc>
<speed>0.010000</speed>
</trkpt>
<trkpt lat="55.782257" lon="26.347210">
<ele>121.825256</ele>
<time>2010-07-17T09:13:44Z</time>
<desc>lat.=55.782257, lon.=26.347210, Alt.=121.825256m. Speed=0.072000m/h.</desc>
<speed>0.020000</speed>
</trkpt>
<trkpt lat="55.782257" lon="26.347210">
<ele>121.827209</ele>
<time>2010-07-17T09:13:45Z</time>
<desc>lat.=55.782257, lon.=26.347210, Alt.=121.827209m. Speed=0.000000m/h.</desc>
<speed>0.000000</speed>
</trkpt>
<trkpt lat="55.782257" lon="26.347210">
<ele>121.825256</ele>
<time>2010-07-17T09:13:46Z</time>
<desc>lat.=55.782257, lon.=26.347210, Alt.=121.825256m. Speed=0.036000m/h.</desc>
<speed>0.010000</speed>
</trkpt>
<trkpt lat="55.782257" lon="26.347210">
<ele>121.844788</ele>
<time>2010-07-17T09:13:47Z</time>
<desc>lat.=55.782257, lon.=26.347210, Alt.=121.844788m. Speed=0.000000m/h.</desc>
<speed>0.000000</speed>
</trkpt>
<trkpt lat="55.782257" lon="26.347210">
<ele>121.846741</ele>
<time>2010-07-17T09:13:48Z</time>
<desc>lat.=55.782257, lon.=26.347210, Alt.=121.846741m. Speed=0.036000m/h.</desc>
<speed>0.010000</speed>
</trkpt>
<trkpt lat="55.782257" lon="26.347208">
<ele>121.860413</ele>
<time>2010-07-17T09:13:49Z</time>
<desc>lat.=55.782257, lon.=26.347208, Alt.=121.860413m. Speed=0.072000m/h.</desc>
<speed>0.020000</speed>
</trkpt>
<trkpt lat="55.782257" lon="26.347208">
<ele>121.874084</ele>
<time>2010-07-17T09:13:50Z</time>
<desc>lat.=55.782257, lon.=26.347208, Alt.=121.874084m. Speed=0.036000m/h.</desc>
<speed>0.010000</speed>
</trkpt>
<trkpt lat="55.782257" lon="26.347208">
<ele>121.881897</ele>
<time>2010-07-17T09:13:51Z</time>
<desc>lat.=55.782257, lon.=26.347208, Alt.=121.881897m. Speed=0.108000m/h.</desc>
<speed>0.030000</speed>
</trkpt>
<trkpt lat="55.782257" lon="26.347208">
<ele>121.889709</ele>
<time>2010-07-17T09:13:52Z</time>
<desc>lat.=55.782257, lon.=26.347208, Alt.=121.889709m. Speed=0.072000m/h.</desc>
<speed>0.020000</speed>
</trkpt>
<trkpt lat="55.782257" lon="26.347208">
<ele>121.913147</ele>
<time>2010-07-17T09:13:53Z</time>
<desc>lat.=55.782257, lon.=26.347208, Alt.=121.913147m. Speed=0.108000m/h.</desc>
<speed>0.030000</speed>
</trkpt>
<trkpt lat="55.782257" lon="26.347208">
<ele>121.926819</ele>
<time>2010-07-17T09:13:54Z</time>
<desc>lat.=55.782257, lon.=26.347208, Alt.=121.926819m. Speed=0.144000m/h.</desc>
<speed>0.040000</speed>
</trkpt>
<trkpt lat="55.782257" lon="26.347208">
<ele>121.930725</ele>
<time>2010-07-17T09:13:55Z</time>
<desc>lat.=55.782257, lon.=26.347208, Alt.=121.930725m. Speed=0.036000m/h.</desc>
<speed>0.010000</speed>
</trkpt>
<trkpt lat="55.782257" lon="26.347208">
<ele>121.930725</ele>
<time>2010-07-17T09:13:56Z</time>
<desc>lat.=55.782257, lon.=26.347208, Alt.=121.930725m. Speed=0.072000m/h.</desc>
<speed>0.020000</speed>
</trkpt>
<trkpt lat="55.782257" lon="26.347208">
<ele>121.920959</ele>
<time>2010-07-17T09:13:57Z</time>
<desc>lat.=55.782257, lon.=26.347208, Alt.=121.920959m. Speed=0.072000m/h.</desc>
<speed>0.020000</speed>
</trkpt>
<trkpt lat="55.782257" lon="26.347208">
<ele>121.915100</ele>
<time>2010-07-17T09:13:58Z</time>
<desc>lat.=55.782257, lon.=26.347208, Alt.=121.915100m. Speed=0.072000m/h.</desc>
<speed>0.020000</speed>
</trkpt>
<trkpt lat="55.782257" lon="26.347208">
<ele>121.911194</ele>
<time>2010-07-17T09:13:59Z</time>
<desc>lat.=55.782257, lon.=26.347208, Alt.=121.911194m. Speed=0.000000m/h.</desc>
<speed>0.000000</speed>
</trkpt>
<trkpt lat="55.782257" lon="26.347208">
<ele>121.899475</ele>
<time>2010-07-17T09:14:00Z</time>
<desc>lat.=55.782257, lon.=26.347208, Alt.=121.899475m. Speed=0.036000m/h.</desc>
<speed>0.010000</speed>
</trkpt>
<trkpt lat="55.782257" lon="26.347208">
<ele>121.887756</ele>
<time>2010-07-17T09:14:01Z</time>
<desc>lat.=55.782257, lon.=26.347208, Alt.=121.887756m. Speed=0.000000m/h.</desc>
<speed>0.000000</speed>
</trkpt>
<trkpt lat="55.782257" lon="26.347208">
<ele>121.883850</ele>
<time>2010-07-17T09:14:02Z</time>
<desc>lat.=55.782257, lon.=26.347208, Alt.=121.883850m. Speed=0.000000m/h.</desc>
<speed>0.000000</speed>
</trkpt>
<trkpt lat="55.782257" lon="26.347208">
<ele>121.877991</ele>
<time>2010-07-17T09:14:03Z</time>
<desc>lat.=55.782257, lon.=26.347208, Alt.=121.877991m. Speed=0.000000m/h.</desc>
<speed>0.000000</speed>
</trkpt>
<trkpt lat="55.782257" lon="26.347208">
<ele>121.870178</ele>
<time>2010-07-17T09:14:04Z</time>
<desc>lat.=55.782257, lon.=26.347208, Alt.=121.870178m. Speed=0.000000m/h.</desc>
<speed>0.000000</speed>
</trkpt>
<trkpt lat="55.782257" lon="26.347208">
<ele>121.868225</ele>
<time>2010-07-17T09:14:05Z</time>
<desc>lat.=55.782257, lon.=26.347208, Alt.=121.868225m. Speed=0.000000m/h.</desc>
<speed>0.000000</speed>
</trkpt>
<trkpt lat="55.782257" lon="26.347208">
<ele>121.866272</ele>
<time>2010-07-17T09:14:06Z</time>
<desc>lat.=55.782257, lon.=26.347208, Alt.=121.866272m. Speed=0.072000m/h.</desc>
<speed>0.020000</speed>
</trkpt>
<trkpt lat="55.782257" lon="26.347208">
<ele>121.862366</ele>
<time>2010-07-17T09:14:07Z</time>
<desc>lat.=55.782257, lon.=26.347208, Alt.=121.862366m. Speed=0.072000m/h.</desc>
<speed>0.020000</speed>
</trkpt>
<trkpt lat="55.782257" lon="26.347208">
<ele>121.862366</ele>
<time>2010-07-17T09:14:08Z</time>
<desc>lat.=55.782257, lon.=26.347208, Alt.=121.862366m. Speed=0.108000m/h.</desc>
<speed>0.030000</speed>
</trkpt>
<trkpt lat="55.782257" lon="26.347208">
<ele>121.860413</ele>
<time>2010-07-17T09:14:09Z</time>
<desc>lat.=55.782257, lon.=26.347208, Alt.=121.860413m. Speed=0.072000m/h.</desc>
<speed>0.020000</speed>
</trkpt>
<trkpt lat="55.782257" lon="26.347208">
<ele>121.858459</ele>
<time>2010-07-17T09:14:10Z</time>
<desc>lat.=55.782257, lon.=26.347208, Alt.=121.858459m. Speed=0.036000m/h.</desc>
<speed>0.010000</speed>
</trkpt>
<trkpt lat="55.782257" lon="26.347208">
<ele>121.856506</ele>
<time>2010-07-17T09:14:11Z</time>
<desc>lat.=55.782257, lon.=26.347208, Alt.=121.856506m. Speed=0.072000m/h.</desc>
<speed>0.020000</speed>
</trkpt>
<trkpt lat="55.782257" lon="26.347208">
<ele>121.856506</ele>
<time>2010-07-17T09:14:12Z</time>
<desc>lat.=55.782257, lon.=26.347208, Alt.=121.856506m. Speed=0.036000m/h.</desc>
<speed>0.010000</speed>
</trkpt>
<trkpt lat="55.782257" lon="26.347208">
<ele>121.856506</ele>
<time>2010-07-17T09:14:13Z</time>
<desc>lat.=55.782257, lon.=26.347208, Alt.=121.856506m. Speed=0.036000m/h.</desc>
<speed>0.010000</speed>
</trkpt>
<trkpt lat="55.782257" lon="26.347208">
<ele>121.858459</ele>
<time>2010-07-17T09:14:14Z</time>
<desc>lat.=55.782257, lon.=26.347208, Alt.=121.858459m. Speed=0.000000m/h.</desc>
<speed>0.000000</speed>
</trkpt>
<trkpt lat="55.782257" lon="26.347208">
<ele>121.860413</ele>
<time>2010-07-17T09:14:15Z</time>
<desc>lat.=55.782257, lon.=26.347208, Alt.=121.860413m. Speed=0.000000m/h.</desc>
<speed>0.000000</speed>
</trkpt>
<trkpt lat="55.782257" lon="26.347208">
<ele>121.860413</ele>
<time>2010-07-17T09:14:16Z</time>
<desc>lat.=55.782257, lon.=26.347208, Alt.=121.860413m. Speed=0.000000m/h.</desc>
<speed>0.000000</speed>
</trkpt>
<trkpt lat="55.782257" lon="26.347208">
<ele>121.860413</ele>
<time>2010-07-17T09:14:17Z</time>
<desc>lat.=55.782257, lon.=26.347208, Alt.=121.860413m. Speed=0.036000m/h.</desc>
<speed>0.010000</speed>
</trkpt>
<trkpt lat="55.782257" lon="26.347208">
<ele>121.862366</ele>
<time>2010-07-17T09:14:18Z</time>
<desc>lat.=55.782257, lon.=26.347208, Alt.=121.862366m. Speed=0.036000m/h.</desc>
<speed>0.010000</speed>
</trkpt>
<trkpt lat="55.782257" lon="26.347208">
<ele>121.864319</ele>
<time>2010-07-17T09:14:19Z</time>
<desc>lat.=55.782257, lon.=26.347208, Alt.=121.864319m. Speed=0.000000m/h.</desc>
<speed>0.000000</speed>
</trkpt>
<trkpt lat="55.782257" lon="26.347208">
<ele>121.864319</ele>
<time>2010-07-17T09:14:20Z</time>
<desc>lat.=55.782257, lon.=26.347208, Alt.=121.864319m. Speed=0.036000m/h.</desc>
<speed>0.010000</speed>
</trkpt>
<trkpt lat="55.782257" lon="26.347208">
<ele>121.864319</ele>
<time>2010-07-17T09:14:21Z</time>
<desc>lat.=55.782257, lon.=26.347208, Alt.=121.864319m. Speed=0.036000m/h.</desc>
<speed>0.010000</speed>
</trkpt>
<trkpt lat="55.782257" lon="26.347208">
<ele>121.868225</ele>
<time>2010-07-17T09:14:22Z</time>
<desc>lat.=55.782257, lon.=26.347208, Alt.=121.868225m. Speed=0.036000m/h.</desc>
<speed>0.010000</speed>
</trkpt>
<trkpt lat="55.782257" lon="26.347208">
<ele>121.866272</ele>
<time>2010-07-17T09:14:23Z</time>
<desc>lat.=55.782257, lon.=26.347208, Alt.=121.866272m. Speed=0.036000m/h.</desc>
<speed>0.010000</speed>
</trkpt>
<trkpt lat="55.782257" lon="26.347208">
<ele>121.868225</ele>
<time>2010-07-17T09:14:24Z</time>
<desc>lat.=55.782257, lon.=26.347208, Alt.=121.868225m. Speed=0.072000m/h.</desc>
<speed>0.020000</speed>
</trkpt>
<trkpt lat="55.782257" lon="26.347208">
<ele>121.868225</ele>
<time>2010-07-17T09:14:25Z</time>
<desc>lat.=55.782257, lon.=26.347208, Alt.=121.868225m. Speed=0.036000m/h.</desc>
<speed>0.010000</speed>
</trkpt>
<trkpt lat="55.782257" lon="26.347208">
<ele>121.870178</ele>
<time>2010-07-17T09:14:26Z</time>
<desc>lat.=55.782257, lon.=26.347208, Alt.=121.870178m. Speed=0.036000m/h.</desc>
<speed>0.010000</speed>
</trkpt>
<trkpt lat="55.782257" lon="26.347208">
<ele>121.872131</ele>
<time>2010-07-17T09:14:27Z</time>
<desc>lat.=55.782257, lon.=26.347208, Alt.=121.872131m. Speed=0.036000m/h.</desc>
<speed>0.010000</speed>
</trkpt>
<trkpt lat="55.782257" lon="26.347208">
<ele>121.874084</ele>
<time>2010-07-17T09:14:28Z</time>
<desc>lat.=55.782257, lon.=26.347208, Alt.=121.874084m. Speed=0.000000m/h.</desc>
<speed>0.000000</speed>
</trkpt>
<trkpt lat="55.782257" lon="26.347208">
<ele>121.876038</ele>
<time>2010-07-17T09:14:29Z</time>
<desc>lat.=55.782257, lon.=26.347208, Alt.=121.876038m. Speed=0.036000m/h.</desc>
<speed>0.010000</speed>
</trkpt>
<trkpt lat="55.782257" lon="26.347208">
<ele>121.876038</ele>
<time>2010-07-17T09:14:30Z</time>
<desc>lat.=55.782257, lon.=26.347208, Alt.=121.876038m. Speed=0.072000m/h.</desc>
<speed>0.020000</speed>
</trkpt>
<trkpt lat="55.782257" lon="26.347210">
<ele>121.874084</ele>
<time>2010-07-17T09:14:31Z</time>
<desc>lat.=55.782257, lon.=26.347210, Alt.=121.874084m. Speed=0.108000m/h.</desc>
<speed>0.030000</speed>
</trkpt>
<trkpt lat="55.782257" lon="26.347210">
<ele>121.876038</ele>
<time>2010-07-17T09:14:32Z</time>
<desc>lat.=55.782257, lon.=26.347210, Alt.=121.876038m. Speed=0.036000m/h.</desc>
<speed>0.010000</speed>
</trkpt>
<trkpt lat="55.782257" lon="26.347210">
<ele>121.879944</ele>
<time>2010-07-17T09:14:33Z</time>
<desc>lat.=55.782257, lon.=26.347210, Alt.=121.879944m. Speed=0.036000m/h.</desc>
<speed>0.010000</speed>
</trkpt>
<trkpt lat="55.782257" lon="26.347210">
<ele>121.876038</ele>
<time>2010-07-17T09:14:34Z</time>
<desc>lat.=55.782257, lon.=26.347210, Alt.=121.876038m. Speed=0.144000m/h.</desc>
<speed>0.040000</speed>
</trkpt>
<trkpt lat="55.782257" lon="26.347210">
<ele>121.874084</ele>
<time>2010-07-17T09:14:35Z</time>
<desc>lat.=55.782257, lon.=26.347210, Alt.=121.874084m. Speed=0.108000m/h.</desc>
<speed>0.030000</speed>
</trkpt>
<trkpt lat="55.782257" lon="26.347210">
<ele>121.868225</ele>
<time>2010-07-17T09:14:36Z</time>
<desc>lat.=55.782257, lon.=26.347210, Alt.=121.868225m. Speed=0.144000m/h.</desc>
<speed>0.040000</speed>
</trkpt>
<trkpt lat="55.782257" lon="26.347210">
<ele>121.864319</ele>
<time>2010-07-17T09:14:37Z</time>
<desc>lat.=55.782257, lon.=26.347210, Alt.=121.864319m. Speed=0.108000m/h.</desc>
<speed>0.030000</speed>
</trkpt>
<trkpt lat="55.782257" lon="26.347210">
<ele>121.866272</ele>
<time>2010-07-17T09:14:38Z</time>
<desc>lat.=55.782257, lon.=26.347210, Alt.=121.866272m. Speed=0.036000m/h.</desc>
<speed>0.010000</speed>
</trkpt>
<trkpt lat="55.782257" lon="26.347210">
<ele>121.870178</ele>
<time>2010-07-17T09:14:39Z</time>
<desc>lat.=55.782257, lon.=26.347210, Alt.=121.870178m. Speed=0.036000m/h.</desc>
<speed>0.010000</speed>
</trkpt>
<trkpt lat="55.782257" lon="26.347210">
<ele>121.870178</ele>
<time>2010-07-17T09:14:40Z</time>
<desc>lat.=55.782257, lon.=26.347210, Alt.=121.870178m. Speed=0.000000m/h.</desc>
<speed>0.000000</speed>
</trkpt>
<trkpt lat="55.782257" lon="26.347210">
<ele>121.866272</ele>
<time>2010-07-17T09:14:41Z</time>
<desc>lat.=55.782257, lon.=26.347210, Alt.=121.866272m. Speed=0.036000m/h.</desc>
<speed>0.010000</speed>
</trkpt>
<trkpt lat="55.782257" lon="26.347210">
<ele>121.866272</ele>
<time>2010-07-17T09:14:42Z</time>
<desc>lat.=55.782257, lon.=26.347210, Alt.=121.866272m. Speed=0.108000m/h.</desc>
<speed>0.030000</speed>
</trkpt>
<trkpt lat="55.782257" lon="26.347212">
<ele>121.862366</ele>
<time>2010-07-17T09:14:43Z</time>
<desc>lat.=55.782257, lon.=26.347212, Alt.=121.862366m. Speed=0.144000m/h.</desc>
<speed>0.040000</speed>
</trkpt>
<trkpt lat="55.782257" lon="26.347212">
<ele>121.870178</ele>
<time>2010-07-17T09:14:44Z</time>
<desc>lat.=55.782257, lon.=26.347212, Alt.=121.870178m. Speed=0.108000m/h.</desc>
<speed>0.030000</speed>
</trkpt>
<trkpt lat="55.782257" lon="26.347212">
<ele>121.881897</ele>
<time>2010-07-17T09:14:45Z</time>
<desc>lat.=55.782257, lon.=26.347212, Alt.=121.881897m. Speed=0.036000m/h.</desc>
<speed>0.010000</speed>
</trkpt>
<trkpt lat="55.782257" lon="26.347212">
<ele>121.891663</ele>
<time>2010-07-17T09:14:46Z</time>
<desc>lat.=55.782257, lon.=26.347212, Alt.=121.891663m. Speed=0.072000m/h.</desc>
<speed>0.020000</speed>
</trkpt>
<trkpt lat="55.782257" lon="26.347212">
<ele>121.909241</ele>
<time>2010-07-17T09:14:47Z</time>
<desc>lat.=55.782257, lon.=26.347212, Alt.=121.909241m. Speed=0.000000m/h.</desc>
<speed>0.000000</speed>
</trkpt>
<trkpt lat="55.782257" lon="26.347212">
<ele>121.920959</ele>
<time>2010-07-17T09:14:48Z</time>
<desc>lat.=55.782257, lon.=26.347212, Alt.=121.920959m. Speed=0.036000m/h.</desc>
<speed>0.010000</speed>
</trkpt>
<trkpt lat="55.782257" lon="26.347212">
<ele>121.928772</ele>
<time>2010-07-17T09:14:49Z</time>
<desc>lat.=55.782257, lon.=26.347212, Alt.=121.928772m. Speed=0.072000m/h.</desc>
<speed>0.020000</speed>
</trkpt>
<trkpt lat="55.782257" lon="26.347212">
<ele>121.942444</ele>
<time>2010-07-17T09:14:50Z</time>
<desc>lat.=55.782257, lon.=26.347212, Alt.=121.942444m. Speed=0.036000m/h.</desc>
<speed>0.010000</speed>
</trkpt>
<trkpt lat="55.782257" lon="26.347212">
<ele>121.960022</ele>
<time>2010-07-17T09:14:51Z</time>
<desc>lat.=55.782257, lon.=26.347212, Alt.=121.960022m. Speed=0.000000m/h.</desc>
<speed>0.000000</speed>
</trkpt>
<trkpt lat="55.782257" lon="26.347212">
<ele>121.969788</ele>
<time>2010-07-17T09:14:52Z</time>
<desc>lat.=55.782257, lon.=26.347212, Alt.=121.969788m. Speed=0.072000m/h.</desc>
<speed>0.020000</speed>
</trkpt>
<trkpt lat="55.782257" lon="26.347212">
<ele>121.977600</ele>
<time>2010-07-17T09:14:53Z</time>
<desc>lat.=55.782257, lon.=26.347212, Alt.=121.977600m. Speed=0.036000m/h.</desc>
<speed>0.010000</speed>
</trkpt>
<trkpt lat="55.782257" lon="26.347212">
<ele>121.989319</ele>
<time>2010-07-17T09:14:54Z</time>
<desc>lat.=55.782257, lon.=26.347212, Alt.=121.989319m. Speed=0.036000m/h.</desc>
<speed>0.010000</speed>
</trkpt>
<trkpt lat="55.782257" lon="26.347212">
<ele>122.010803</ele>
<time>2010-07-17T09:14:55Z</time>
<desc>lat.=55.782257, lon.=26.347212, Alt.=122.010803m. Speed=0.108000m/h.</desc>
<speed>0.030000</speed>
</trkpt>
<trkpt lat="55.782257" lon="26.347212">
<ele>122.038147</ele>
<time>2010-07-17T09:14:56Z</time>
<desc>lat.=55.782257, lon.=26.347212, Alt.=122.038147m. Speed=0.072000m/h.</desc>
<speed>0.020000</speed>
</trkpt>
<trkpt lat="55.782257" lon="26.347212">
<ele>122.045959</ele>
<time>2010-07-17T09:14:57Z</time>
<desc>lat.=55.782257, lon.=26.347212, Alt.=122.045959m. Speed=0.036000m/h.</desc>
<speed>0.010000</speed>
</trkpt>
<trkpt lat="55.782257" lon="26.347212">
<ele>122.053772</ele>
<time>2010-07-17T09:14:58Z</time>
<desc>lat.=55.782257, lon.=26.347212, Alt.=122.053772m. Speed=0.072000m/h.</desc>
<speed>0.020000</speed>
</trkpt>
<trkpt lat="55.782257" lon="26.347212">
<ele>122.067444</ele>
<time>2010-07-17T09:14:59Z</time>
<desc>lat.=55.782257, lon.=26.347212, Alt.=122.067444m. Speed=0.108000m/h.</desc>
<speed>0.030000</speed>
</trkpt>
<trkpt lat="55.782261" lon="26.347212">
<ele>122.075256</ele>
<time>2010-07-17T09:15:00Z</time>
<desc>lat.=55.782261, lon.=26.347212, Alt.=122.075256m. Speed=0.036000m/h.</desc>
<speed>0.010000</speed>
</trkpt>
<trkpt lat="55.782261" lon="26.347212">
<ele>122.071350</ele>
<time>2010-07-17T09:15:01Z</time>
<desc>lat.=55.782261, lon.=26.347212, Alt.=122.071350m. Speed=0.000000m/h.</desc>
<speed>0.000000</speed>
</trkpt>
<trkpt lat="55.782261" lon="26.347212">
<ele>122.073303</ele>
<time>2010-07-17T09:15:02Z</time>
<desc>lat.=55.782261, lon.=26.347212, Alt.=122.073303m. Speed=0.000000m/h.</desc>
<speed>0.000000</speed>
</trkpt>
<trkpt lat="55.782261" lon="26.347212">
<ele>122.083069</ele>
<time>2010-07-17T09:15:03Z</time>
<desc>lat.=55.782261, lon.=26.347212, Alt.=122.083069m. Speed=0.036000m/h.</desc>
<speed>0.010000</speed>
</trkpt>
<trkpt lat="55.782261" lon="26.347212">
<ele>122.088928</ele>
<time>2010-07-17T09:15:04Z</time>
<desc>lat.=55.782261, lon.=26.347212, Alt.=122.088928m. Speed=0.036000m/h.</desc>
<speed>0.010000</speed>
</trkpt>
<trkpt lat="55.782261" lon="26.347212">
<ele>122.088928</ele>
<time>2010-07-17T09:15:05Z</time>
<desc>lat.=55.782261, lon.=26.347212, Alt.=122.088928m. Speed=0.000000m/h.</desc>
<speed>0.000000</speed>
</trkpt>
<trkpt lat="55.782261" lon="26.347212">
<ele>122.096741</ele>
<time>2010-07-17T09:15:06Z</time>
<desc>lat.=55.782261, lon.=26.347212, Alt.=122.096741m. Speed=0.000000m/h.</desc>
<speed>0.000000</speed>
</trkpt>
<trkpt lat="55.782261" lon="26.347212">
<ele>122.102600</ele>
<time>2010-07-17T09:15:07Z</time>
<desc>lat.=55.782261, lon.=26.347212, Alt.=122.102600m. Speed=0.000000m/h.</desc>
<speed>0.000000</speed>
</trkpt>
<trkpt lat="55.782261" lon="26.347212">
<ele>122.106506</ele>
<time>2010-07-17T09:15:08Z</time>
<desc>lat.=55.782261, lon.=26.347212, Alt.=122.106506m. Speed=0.036000m/h.</desc>
<speed>0.010000</speed>
</trkpt>
<trkpt lat="55.782261" lon="26.347212">
<ele>122.114319</ele>
<time>2010-07-17T09:15:09Z</time>
<desc>lat.=55.782261, lon.=26.347212, Alt.=122.114319m. Speed=0.036000m/h.</desc>
<speed>0.010000</speed>
</trkpt>
<trkpt lat="55.782261" lon="26.347212">
<ele>122.120178</ele>
<time>2010-07-17T09:15:10Z</time>
<desc>lat.=55.782261, lon.=26.347212, Alt.=122.120178m. Speed=0.000000m/h.</desc>
<speed>0.000000</speed>
</trkpt>
<trkpt lat="55.782261" lon="26.347212">
<ele>122.124084</ele>
<time>2010-07-17T09:15:11Z</time>
<desc>lat.=55.782261, lon.=26.347212, Alt.=122.124084m. Speed=0.036000m/h.</desc>
<speed>0.010000</speed>
</trkpt>
<trkpt lat="55.782261" lon="26.347214">
<ele>122.120178</ele>
<time>2010-07-17T09:15:12Z</time>
<desc>lat.=55.782261, lon.=26.347214, Alt.=122.120178m. Speed=0.036000m/h.</desc>
<speed>0.010000</speed>
</trkpt>
<trkpt lat="55.782261" lon="26.347214">
<ele>122.124084</ele>
<time>2010-07-17T09:15:13Z</time>
<desc>lat.=55.782261, lon.=26.347214, Alt.=122.124084m. Speed=0.072000m/h.</desc>
<speed>0.020000</speed>
</trkpt>
<trkpt lat="55.782261" lon="26.347214">
<ele>122.129944</ele>
<time>2010-07-17T09:15:14Z</time>
<desc>lat.=55.782261, lon.=26.347214, Alt.=122.129944m. Speed=0.036000m/h.</desc>
<speed>0.010000</speed>
</trkpt>
<trkpt lat="55.782261" lon="26.347214">
<ele>122.127991</ele>
<time>2010-07-17T09:15:15Z</time>
<desc>lat.=55.782261, lon.=26.347214, Alt.=122.127991m. Speed=0.072000m/h.</desc>
<speed>0.020000</speed>
</trkpt>
<trkpt lat="55.782261" lon="26.347214">
<ele>122.127991</ele>
<time>2010-07-17T09:15:16Z</time>
<desc>lat.=55.782261, lon.=26.347214, Alt.=122.127991m. Speed=0.000000m/h.</desc>
<speed>0.000000</speed>
</trkpt>
<trkpt lat="55.782261" lon="26.347214">
<ele>122.129944</ele>
<time>2010-07-17T09:15:17Z</time>
<desc>lat.=55.782261, lon.=26.347214, Alt.=122.129944m. Speed=0.072000m/h.</desc>
<speed>0.020000</speed>
</trkpt>
<trkpt lat="55.782261" lon="26.347214">
<ele>122.129944</ele>
<time>2010-07-17T09:15:18Z</time>
<desc>lat.=55.782261, lon.=26.347214, Alt.=122.129944m. Speed=0.108000m/h.</desc>
<speed>0.030000</speed>
</trkpt>
<trkpt lat="55.782261" lon="26.347214">
<ele>122.135803</ele>
<time>2010-07-17T09:15:19Z</time>
<desc>lat.=55.782261, lon.=26.347214, Alt.=122.135803m. Speed=0.036000m/h.</desc>
<speed>0.010000</speed>
</trkpt>
<trkpt lat="55.782261" lon="26.347214">
<ele>122.139709</ele>
<time>2010-07-17T09:15:20Z</time>
<desc>lat.=55.782261, lon.=26.347214, Alt.=122.139709m. Speed=0.000000m/h.</desc>
<speed>0.000000</speed>
</trkpt>
<trkpt lat="55.782261" lon="26.347214">
<ele>122.145569</ele>
<time>2010-07-17T09:15:21Z</time>
<desc>lat.=55.782261, lon.=26.347214, Alt.=122.145569m. Speed=0.000000m/h.</desc>
<speed>0.000000</speed>
</trkpt>
<trkpt lat="55.782261" lon="26.347214">
<ele>122.153381</ele>
<time>2010-07-17T09:15:22Z</time>
<desc>lat.=55.782261, lon.=26.347214, Alt.=122.153381m. Speed=0.072000m/h.</desc>
<speed>0.020000</speed>
</trkpt>
<trkpt lat="55.782261" lon="26.347214">
<ele>122.163147</ele>
<time>2010-07-17T09:15:23Z</time>
<desc>lat.=55.782261, lon.=26.347214, Alt.=122.163147m. Speed=0.072000m/h.</desc>
<speed>0.020000</speed>
</trkpt>
<trkpt lat="55.782261" lon="26.347214">
<ele>122.170959</ele>
<time>2010-07-17T09:15:24Z</time>
<desc>lat.=55.782261, lon.=26.347214, Alt.=122.170959m. Speed=0.036000m/h.</desc>
<speed>0.010000</speed>
</trkpt>
<trkpt lat="55.782261" lon="26.347214">
<ele>122.176819</ele>
<time>2010-07-17T09:15:25Z</time>
<desc>lat.=55.782261, lon.=26.347214, Alt.=122.176819m. Speed=0.036000m/h.</desc>
<speed>0.010000</speed>
</trkpt>
<trkpt lat="55.782261" lon="26.347214">
<ele>122.182678</ele>
<time>2010-07-17T09:15:26Z</time>
<desc>lat.=55.782261, lon.=26.347214, Alt.=122.182678m. Speed=0.000000m/h.</desc>
<speed>0.000000</speed>
</trkpt>
<trkpt lat="55.782261" lon="26.347214">
<ele>122.192444</ele>
<time>2010-07-17T09:15:27Z</time>
<desc>lat.=55.782261, lon.=26.347214, Alt.=122.192444m. Speed=0.036000m/h.</desc>
<speed>0.010000</speed>
</trkpt>
<trkpt lat="55.782261" lon="26.347214">
<ele>122.200256</ele>
<time>2010-07-17T09:15:28Z</time>
<desc>lat.=55.782261, lon.=26.347214, Alt.=122.200256m. Speed=0.072000m/h.</desc>
<speed>0.020000</speed>
</trkpt>
<trkpt lat="55.782261" lon="26.347214">
<ele>122.213928</ele>
<time>2010-07-17T09:15:29Z</time>
<desc>lat.=55.782261, lon.=26.347214, Alt.=122.213928m. Speed=0.000000m/h.</desc>
<speed>0.000000</speed>
</trkpt>
<trkpt lat="55.782261" lon="26.347214">
<ele>122.223694</ele>
<time>2010-07-17T09:15:30Z</time>
<desc>lat.=55.782261, lon.=26.347214, Alt.=122.223694m. Speed=0.036000m/h.</desc>
<speed>0.010000</speed>
</trkpt>
<trkpt lat="55.782261" lon="26.347214">
<ele>122.233459</ele>
<time>2010-07-17T09:15:31Z</time>
<desc>lat.=55.782261, lon.=26.347214, Alt.=122.233459m. Speed=0.036000m/h.</desc>
<speed>0.010000</speed>
</trkpt>
<trkpt lat="55.782261" lon="26.347214">
<ele>122.239319</ele>
<time>2010-07-17T09:15:32Z</time>
<desc>lat.=55.782261, lon.=26.347214, Alt.=122.239319m. Speed=0.000000m/h.</desc>
<speed>0.000000</speed>
</trkpt>
<trkpt lat="55.782261" lon="26.347214">
<ele>122.239319</ele>
<time>2010-07-17T09:15:33Z</time>
<desc>lat.=55.782261, lon.=26.347214, Alt.=122.239319m. Speed=0.000000m/h.</desc>
<speed>0.000000</speed>
</trkpt>
<trkpt lat="55.782261" lon="26.347214">
<ele>122.241272</ele>
<time>2010-07-17T09:15:34Z</time>
<desc>lat.=55.782261, lon.=26.347214, Alt.=122.241272m. Speed=0.036000m/h.</desc>
<speed>0.010000</speed>
</trkpt>
<trkpt lat="55.782261" lon="26.347214">
<ele>122.247131</ele>
<time>2010-07-17T09:15:35Z</time>
<desc>lat.=55.782261, lon.=26.347214, Alt.=122.247131m. Speed=0.000000m/h.</desc>
<speed>0.000000</speed>
</trkpt>
<trkpt lat="55.782261" lon="26.347214">
<ele>122.245178</ele>
<time>2010-07-17T09:15:36Z</time>
<desc>lat.=55.782261, lon.=26.347214, Alt.=122.245178m. Speed=0.000000m/h.</desc>
<speed>0.000000</speed>
</trkpt>
<trkpt lat="55.782261" lon="26.347214">
<ele>122.241272</ele>
<time>2010-07-17T09:15:37Z</time>
<desc>lat.=55.782261, lon.=26.347214, Alt.=122.241272m. Speed=0.036000m/h.</desc>
<speed>0.010000</speed>
</trkpt>
<trkpt lat="55.782261" lon="26.347214">
<ele>122.235413</ele>
<time>2010-07-17T09:15:38Z</time>
<desc>lat.=55.782261, lon.=26.347214, Alt.=122.235413m. Speed=0.036000m/h.</desc>
<speed>0.010000</speed>
</trkpt>
<trkpt lat="55.782261" lon="26.347214">
<ele>122.237366</ele>
<time>2010-07-17T09:15:39Z</time>
<desc>lat.=55.782261, lon.=26.347214, Alt.=122.237366m. Speed=0.072000m/h.</desc>
<speed>0.020000</speed>
</trkpt>
<trkpt lat="55.782261" lon="26.347214">
<ele>122.241272</ele>
<time>2010-07-17T09:15:40Z</time>
<desc>lat.=55.782261, lon.=26.347214, Alt.=122.241272m. Speed=0.072000m/h.</desc>
<speed>0.020000</speed>
</trkpt>
<trkpt lat="55.782261" lon="26.347214">
<ele>122.243225</ele>
<time>2010-07-17T09:15:41Z</time>
<desc>lat.=55.782261, lon.=26.347214, Alt.=122.243225m. Speed=0.036000m/h.</desc>
<speed>0.010000</speed>
</trkpt>
<trkpt lat="55.782257" lon="26.347214">
<ele>122.241272</ele>
<time>2010-07-17T09:15:42Z</time>
<desc>lat.=55.782257, lon.=26.347214, Alt.=122.241272m. Speed=0.072000m/h.</desc>
<speed>0.020000</speed>
</trkpt>
<trkpt lat="55.782257" lon="26.347214">
<ele>122.237366</ele>
<time>2010-07-17T09:15:43Z</time>
<desc>lat.=55.782257, lon.=26.347214, Alt.=122.237366m. Speed=0.108000m/h.</desc>
<speed>0.030000</speed>
</trkpt>
<trkpt lat="55.782257" lon="26.347214">
<ele>122.237366</ele>
<time>2010-07-17T09:15:44Z</time>
<desc>lat.=55.782257, lon.=26.347214, Alt.=122.237366m. Speed=0.000000m/h.</desc>
<speed>0.000000</speed>
</trkpt>
<trkpt lat="55.782257" lon="26.347214">
<ele>122.237366</ele>
<time>2010-07-17T09:15:45Z</time>
<desc>lat.=55.782257, lon.=26.347214, Alt.=122.237366m. Speed=0.072000m/h.</desc>
<speed>0.020000</speed>
</trkpt>
<trkpt lat="55.782257" lon="26.347214">
<ele>122.241272</ele>
<time>2010-07-17T09:15:46Z</time>
<desc>lat.=55.782257, lon.=26.347214, Alt.=122.241272m. Speed=0.000000m/h.</desc>
<speed>0.000000</speed>
</trkpt>
<trkpt lat="55.782257" lon="26.347216">
<ele>122.241272</ele>
<time>2010-07-17T09:15:47Z</time>
<desc>lat.=55.782257, lon.=26.347216, Alt.=122.241272m. Speed=0.036000m/h.</desc>
<speed>0.010000</speed>
</trkpt>
<trkpt lat="55.782257" lon="26.347216">
<ele>122.237366</ele>
<time>2010-07-17T09:15:48Z</time>
<desc>lat.=55.782257, lon.=26.347216, Alt.=122.237366m. Speed=0.036000m/h.</desc>
<speed>0.010000</speed>
</trkpt>
<trkpt lat="55.782257" lon="26.347216">
<ele>122.239319</ele>
<time>2010-07-17T09:15:49Z</time>
<desc>lat.=55.782257, lon.=26.347216, Alt.=122.239319m. Speed=0.072000m/h.</desc>
<speed>0.020000</speed>
</trkpt>
<trkpt lat="55.782257" lon="26.347216">
<ele>122.243225</ele>
<time>2010-07-17T09:15:50Z</time>
<desc>lat.=55.782257, lon.=26.347216, Alt.=122.243225m. Speed=0.000000m/h.</desc>
<speed>0.000000</speed>
</trkpt>
<trkpt lat="55.782257" lon="26.347216">
<ele>122.251038</ele>
<time>2010-07-17T09:15:51Z</time>
<desc>lat.=55.782257, lon.=26.347216, Alt.=122.251038m. Speed=0.000000m/h.</desc>
<speed>0.000000</speed>
</trkpt>
<trkpt lat="55.782257" lon="26.347216">
<ele>122.258850</ele>
<time>2010-07-17T09:15:52Z</time>
<desc>lat.=55.782257, lon.=26.347216, Alt.=122.258850m. Speed=0.036000m/h.</desc>
<speed>0.010000</speed>
</trkpt>
<trkpt lat="55.782257" lon="26.347216">
<ele>122.260803</ele>
<time>2010-07-17T09:15:53Z</time>
<desc>lat.=55.782257, lon.=26.347216, Alt.=122.260803m. Speed=0.000000m/h.</desc>
<speed>0.000000</speed>
</trkpt>
<trkpt lat="55.782257" lon="26.347216">
<ele>122.264709</ele>
<time>2010-07-17T09:15:54Z</time>
<desc>lat.=55.782257, lon.=26.347216, Alt.=122.264709m. Speed=0.036000m/h.</desc>
<speed>0.010000</speed>
</trkpt>
<trkpt lat="55.782257" lon="26.347216">
<ele>122.272522</ele>
<time>2010-07-17T09:15:55Z</time>
<desc>lat.=55.782257, lon.=26.347216, Alt.=122.272522m. Speed=0.036000m/h.</desc>
<speed>0.010000</speed>
</trkpt>
<trkpt lat="55.782257" lon="26.347216">
<ele>122.280334</ele>
<time>2010-07-17T09:15:56Z</time>
<desc>lat.=55.782257, lon.=26.347216, Alt.=122.280334m. Speed=0.036000m/h.</desc>
<speed>0.010000</speed>
</trkpt>
<trkpt lat="55.782257" lon="26.347216">
<ele>122.286194</ele>
<time>2010-07-17T09:15:57Z</time>
<desc>lat.=55.782257, lon.=26.347216, Alt.=122.286194m. Speed=0.036000m/h.</desc>
<speed>0.010000</speed>
</trkpt>
<trkpt lat="55.782257" lon="26.347216">
<ele>122.290100</ele>
<time>2010-07-17T09:15:58Z</time>
<desc>lat.=55.782257, lon.=26.347216, Alt.=122.290100m. Speed=0.000000m/h.</desc>
<speed>0.000000</speed>
</trkpt>
<trkpt lat="55.782257" lon="26.347216">
<ele>122.290100</ele>
<time>2010-07-17T09:15:59Z</time>
<desc>lat.=55.782257, lon.=26.347216, Alt.=122.290100m. Speed=0.036000m/h.</desc>
<speed>0.010000</speed>
</trkpt>
<trkpt lat="55.782257" lon="26.347216">
<ele>122.297913</ele>
<time>2010-07-17T09:16:00Z</time>
<desc>lat.=55.782257, lon.=26.347216, Alt.=122.297913m. Speed=0.036000m/h.</desc>
<speed>0.010000</speed>
</trkpt>
<trkpt lat="55.782257" lon="26.347216">
<ele>122.307678</ele>
<time>2010-07-17T09:16:01Z</time>
<desc>lat.=55.782257, lon.=26.347216, Alt.=122.307678m. Speed=0.000000m/h.</desc>
<speed>0.000000</speed>
</trkpt>
<trkpt lat="55.782257" lon="26.347216">
<ele>122.313538</ele>
<time>2010-07-17T09:16:02Z</time>
<desc>lat.=55.782257, lon.=26.347216, Alt.=122.313538m. Speed=0.000000m/h.</desc>
<speed>0.000000</speed>
</trkpt>
<trkpt lat="55.782257" lon="26.347216">
<ele>122.321350</ele>
<time>2010-07-17T09:16:03Z</time>
<desc>lat.=55.782257, lon.=26.347216, Alt.=122.321350m. Speed=0.000000m/h.</desc>
<speed>0.000000</speed>
</trkpt>
<trkpt lat="55.782257" lon="26.347216">
<ele>122.329163</ele>
<time>2010-07-17T09:16:04Z</time>
<desc>lat.=55.782257, lon.=26.347216, Alt.=122.329163m. Speed=0.036000m/h.</desc>
<speed>0.010000</speed>
</trkpt>
<trkpt lat="55.782257" lon="26.347216">
<ele>122.331116</ele>
<time>2010-07-17T09:16:05Z</time>
<desc>lat.=55.782257, lon.=26.347216, Alt.=122.331116m. Speed=0.000000m/h.</desc>
<speed>0.000000</speed>
</trkpt>
<trkpt lat="55.782257" lon="26.347216">
<ele>122.336975</ele>
<time>2010-07-17T09:16:06Z</time>
<desc>lat.=55.782257, lon.=26.347216, Alt.=122.336975m. Speed=0.036000m/h.</desc>
<speed>0.010000</speed>
</trkpt>
<trkpt lat="55.782257" lon="26.347216">
<ele>122.344788</ele>
<time>2010-07-17T09:16:07Z</time>
<desc>lat.=55.782257, lon.=26.347216, Alt.=122.344788m. Speed=0.108000m/h.</desc>
<speed>0.030000</speed>
</trkpt>
<trkpt lat="55.782257" lon="26.347216">
<ele>122.348694</ele>
<time>2010-07-17T09:16:08Z</time>
<desc>lat.=55.782257, lon.=26.347216, Alt.=122.348694m. Speed=0.036000m/h.</desc>
<speed>0.010000</speed>
</trkpt>
<trkpt lat="55.782257" lon="26.347216">
<ele>122.350647</ele>
<time>2010-07-17T09:16:09Z</time>
<desc>lat.=55.782257, lon.=26.347216, Alt.=122.350647m. Speed=0.036000m/h.</desc>
<speed>0.010000</speed>
</trkpt>
<trkpt lat="55.782257" lon="26.347216">
<ele>122.354553</ele>
<time>2010-07-17T09:16:10Z</time>
<desc>lat.=55.782257, lon.=26.347216, Alt.=122.354553m. Speed=0.000000m/h.</desc>
<speed>0.000000</speed>
</trkpt>
<trkpt lat="55.782257" lon="26.347216">
<ele>122.360413</ele>
<time>2010-07-17T09:16:11Z</time>
<desc>lat.=55.782257, lon.=26.347216, Alt.=122.360413m. Speed=0.036000m/h.</desc>
<speed>0.010000</speed>
</trkpt>
<trkpt lat="55.782257" lon="26.347216">
<ele>122.366272</ele>
<time>2010-07-17T09:16:12Z</time>
<desc>lat.=55.782257, lon.=26.347216, Alt.=122.366272m. Speed=0.072000m/h.</desc>
<speed>0.020000</speed>
</trkpt>
<trkpt lat="55.782257" lon="26.347216">
<ele>122.368225</ele>
<time>2010-07-17T09:16:13Z</time>
<desc>lat.=55.782257, lon.=26.347216, Alt.=122.368225m. Speed=0.036000m/h.</desc>
<speed>0.010000</speed>
</trkpt>
<trkpt lat="55.782257" lon="26.347216">
<ele>122.372131</ele>
<time>2010-07-17T09:16:14Z</time>
<desc>lat.=55.782257, lon.=26.347216, Alt.=122.372131m. Speed=0.072000m/h.</desc>
<speed>0.020000</speed>
</trkpt>
<trkpt lat="55.782257" lon="26.347216">
<ele>122.376038</ele>
<time>2010-07-17T09:16:15Z</time>
<desc>lat.=55.782257, lon.=26.347216, Alt.=122.376038m. Speed=0.072000m/h.</desc>
<speed>0.020000</speed>
</trkpt>
<trkpt lat="55.782257" lon="26.347218">
<ele>122.377991</ele>
<time>2010-07-17T09:16:16Z</time>
<desc>lat.=55.782257, lon.=26.347218, Alt.=122.377991m. Speed=0.072000m/h.</desc>
<speed>0.020000</speed>
</trkpt>
<trkpt lat="55.782257" lon="26.347218">
<ele>122.377991</ele>
<time>2010-07-17T09:16:17Z</time>
<desc>lat.=55.782257, lon.=26.347218, Alt.=122.377991m. Speed=0.108000m/h.</desc>
<speed>0.030000</speed>
</trkpt>
<trkpt lat="55.782257" lon="26.347218">
<ele>122.376038</ele>
<time>2010-07-17T09:16:18Z</time>
<desc>lat.=55.782257, lon.=26.347218, Alt.=122.376038m. Speed=0.180000m/h.</desc>
<speed>0.050000</speed>
</trkpt>
<trkpt lat="55.782257" lon="26.347218">
<ele>122.372131</ele>
<time>2010-07-17T09:16:19Z</time>
<desc>lat.=55.782257, lon.=26.347218, Alt.=122.372131m. Speed=0.180000m/h.</desc>
<speed>0.050000</speed>
</trkpt>
<trkpt lat="55.782257" lon="26.347218">
<ele>122.372131</ele>
<time>2010-07-17T09:16:20Z</time>
<desc>lat.=55.782257, lon.=26.347218, Alt.=122.372131m. Speed=0.180000m/h.</desc>
<speed>0.050000</speed>
</trkpt>
<trkpt lat="55.782257" lon="26.347218">
<ele>122.368225</ele>
<time>2010-07-17T09:16:21Z</time>
<desc>lat.=55.782257, lon.=26.347218, Alt.=122.368225m. Speed=0.108000m/h.</desc>
<speed>0.030000</speed>
</trkpt>
<trkpt lat="55.782257" lon="26.347218">
<ele>122.364319</ele>
<time>2010-07-17T09:16:22Z</time>
<desc>lat.=55.782257, lon.=26.347218, Alt.=122.364319m. Speed=0.108000m/h.</desc>
<speed>0.030000</speed>
</trkpt>
<trkpt lat="55.782257" lon="26.347218">
<ele>122.360413</ele>
<time>2010-07-17T09:16:23Z</time>
<desc>lat.=55.782257, lon.=26.347218, Alt.=122.360413m. Speed=0.036000m/h.</desc>
<speed>0.010000</speed>
</trkpt>
<trkpt lat="55.782261" lon="26.347218">
<ele>122.356506</ele>
<time>2010-07-17T09:16:24Z</time>
<desc>lat.=55.782261, lon.=26.347218, Alt.=122.356506m. Speed=0.036000m/h.</desc>
<speed>0.010000</speed>
</trkpt>
<trkpt lat="55.782261" lon="26.347219">
<ele>122.352600</ele>
<time>2010-07-17T09:16:25Z</time>
<desc>lat.=55.782261, lon.=26.347219, Alt.=122.352600m. Speed=0.000000m/h.</desc>
<speed>0.000000</speed>
</trkpt>
<trkpt lat="55.782261" lon="26.347219">
<ele>122.350647</ele>
<time>2010-07-17T09:16:26Z</time>
<desc>lat.=55.782261, lon.=26.347219, Alt.=122.350647m. Speed=0.036000m/h.</desc>
<speed>0.010000</speed>
</trkpt>
<trkpt lat="55.782261" lon="26.347219">
<ele>122.346741</ele>
<time>2010-07-17T09:16:27Z</time>
<desc>lat.=55.782261, lon.=26.347219, Alt.=122.346741m. Speed=0.072000m/h.</desc>
<speed>0.020000</speed>
</trkpt>
<trkpt lat="55.782261" lon="26.347219">
<ele>122.340881</ele>
<time>2010-07-17T09:16:28Z</time>
<desc>lat.=55.782261, lon.=26.347219, Alt.=122.340881m. Speed=0.036000m/h.</desc>
<speed>0.010000</speed>
</trkpt>
<trkpt lat="55.782261" lon="26.347219">
<ele>122.340881</ele>
<time>2010-07-17T09:16:29Z</time>
<desc>lat.=55.782261, lon.=26.347219, Alt.=122.340881m. Speed=0.072000m/h.</desc>
<speed>0.020000</speed>
</trkpt>
<trkpt lat="55.782261" lon="26.347219">
<ele>122.338928</ele>
<time>2010-07-17T09:16:30Z</time>
<desc>lat.=55.782261, lon.=26.347219, Alt.=122.338928m. Speed=0.036000m/h.</desc>
<speed>0.010000</speed>
</trkpt>
<trkpt lat="55.782261" lon="26.347219">
<ele>122.336975</ele>
<time>2010-07-17T09:16:31Z</time>
<desc>lat.=55.782261, lon.=26.347219, Alt.=122.336975m. Speed=0.000000m/h.</desc>
<speed>0.000000</speed>
</trkpt>
<trkpt lat="55.782261" lon="26.347219">
<ele>122.333069</ele>
<time>2010-07-17T09:16:32Z</time>
<desc>lat.=55.782261, lon.=26.347219, Alt.=122.333069m. Speed=0.072000m/h.</desc>
<speed>0.020000</speed>
</trkpt>
<trkpt lat="55.782261" lon="26.347219">
<ele>122.333069</ele>
<time>2010-07-17T09:16:33Z</time>
<desc>lat.=55.782261, lon.=26.347219, Alt.=122.333069m. Speed=0.036000m/h.</desc>
<speed>0.010000</speed>
</trkpt>
<trkpt lat="55.782261" lon="26.347219">
<ele>122.329163</ele>
<time>2010-07-17T09:16:34Z</time>
<desc>lat.=55.782261, lon.=26.347219, Alt.=122.329163m. Speed=0.108000m/h.</desc>
<speed>0.030000</speed>
</trkpt>
<trkpt lat="55.782257" lon="26.347219">
<ele>122.327209</ele>
<time>2010-07-17T09:16:35Z</time>
<desc>lat.=55.782257, lon.=26.347219, Alt.=122.327209m. Speed=0.108000m/h.</desc>
<speed>0.030000</speed>
</trkpt>
<trkpt lat="55.782257" lon="26.347219">
<ele>122.317444</ele>
<time>2010-07-17T09:16:36Z</time>
<desc>lat.=55.782257, lon.=26.347219, Alt.=122.317444m. Speed=0.144000m/h.</desc>
<speed>0.040000</speed>
</trkpt>
<trkpt lat="55.782257" lon="26.347219">
<ele>122.315491</ele>
<time>2010-07-17T09:16:37Z</time>
<desc>lat.=55.782257, lon.=26.347219, Alt.=122.315491m. Speed=0.036000m/h.</desc>
<speed>0.010000</speed>
</trkpt>
<trkpt lat="55.782257" lon="26.347219">
<ele>122.315491</ele>
<time>2010-07-17T09:16:38Z</time>
<desc>lat.=55.782257, lon.=26.347219, Alt.=122.315491m. Speed=0.000000m/h.</desc>
<speed>0.000000</speed>
</trkpt>
<trkpt lat="55.782257" lon="26.347219">
<ele>122.294006</ele>
<time>2010-07-17T09:16:39Z</time>
<desc>lat.=55.782257, lon.=26.347219, Alt.=122.294006m. Speed=0.144000m/h.</desc>
<speed>0.040000</speed>
</trkpt>
<trkpt lat="55.782257" lon="26.347219">
<ele>122.276428</ele>
<time>2010-07-17T09:16:40Z</time>
<desc>lat.=55.782257, lon.=26.347219, Alt.=122.276428m. Speed=0.216000m/h.</desc>
<speed>0.060000</speed>
</trkpt>
<trkpt lat="55.782257" lon="26.347219">
<ele>122.280334</ele>
<time>2010-07-17T09:16:41Z</time>
<desc>lat.=55.782257, lon.=26.347219, Alt.=122.280334m. Speed=0.144000m/h.</desc>
<speed>0.040000</speed>
</trkpt>
<trkpt lat="55.782257" lon="26.347221">
<ele>122.280334</ele>
<time>2010-07-17T09:16:42Z</time>
<desc>lat.=55.782257, lon.=26.347221, Alt.=122.280334m. Speed=0.072000m/h.</desc>
<speed>0.020000</speed>
</trkpt>
<trkpt lat="55.782257" lon="26.347221">
<ele>122.280334</ele>
<time>2010-07-17T09:16:43Z</time>
<desc>lat.=55.782257, lon.=26.347221, Alt.=122.280334m. Speed=0.108000m/h.</desc>
<speed>0.030000</speed>
</trkpt>
<trkpt lat="55.782257" lon="26.347221">
<ele>122.276428</ele>
<time>2010-07-17T09:16:44Z</time>
<desc>lat.=55.782257, lon.=26.347221, Alt.=122.276428m. Speed=0.108000m/h.</desc>
<speed>0.030000</speed>
</trkpt>
<trkpt lat="55.782257" lon="26.347221">
<ele>122.280334</ele>
<time>2010-07-17T09:16:45Z</time>
<desc>lat.=55.782257, lon.=26.347221, Alt.=122.280334m. Speed=0.000000m/h.</desc>
<speed>0.000000</speed>
</trkpt>
<trkpt lat="55.782257" lon="26.347221">
<ele>122.278381</ele>
<time>2010-07-17T09:16:46Z</time>
<desc>lat.=55.782257, lon.=26.347221, Alt.=122.278381m. Speed=0.036000m/h.</desc>
<speed>0.010000</speed>
</trkpt>
<trkpt lat="55.782257" lon="26.347221">
<ele>122.272522</ele>
<time>2010-07-17T09:16:47Z</time>
<desc>lat.=55.782257, lon.=26.347221, Alt.=122.272522m. Speed=0.000000m/h.</desc>
<speed>0.000000</speed>
</trkpt>
<trkpt lat="55.782257" lon="26.347221">
<ele>122.272522</ele>
<time>2010-07-17T09:16:48Z</time>
<desc>lat.=55.782257, lon.=26.347221, Alt.=122.272522m. Speed=0.036000m/h.</desc>
<speed>0.010000</speed>
</trkpt>
<trkpt lat="55.782257" lon="26.347221">
<ele>122.270569</ele>
<time>2010-07-17T09:16:49Z</time>
<desc>lat.=55.782257, lon.=26.347221, Alt.=122.270569m. Speed=0.072000m/h.</desc>
<speed>0.020000</speed>
</trkpt>
<trkpt lat="55.782257" lon="26.347221">
<ele>122.268616</ele>
<time>2010-07-17T09:16:50Z</time>
<desc>lat.=55.782257, lon.=26.347221, Alt.=122.268616m. Speed=0.000000m/h.</desc>
<speed>0.000000</speed>
</trkpt>
<trkpt lat="55.782257" lon="26.347221">
<ele>122.266663</ele>
<time>2010-07-17T09:16:51Z</time>
<desc>lat.=55.782257, lon.=26.347221, Alt.=122.266663m. Speed=0.072000m/h.</desc>
<speed>0.020000</speed>
</trkpt>
<trkpt lat="55.782257" lon="26.347221">
<ele>122.262756</ele>
<time>2010-07-17T09:16:52Z</time>
<desc>lat.=55.782257, lon.=26.347221, Alt.=122.262756m. Speed=0.036000m/h.</desc>
<speed>0.010000</speed>
</trkpt>
<trkpt lat="55.782257" lon="26.347221">
<ele>122.260803</ele>
<time>2010-07-17T09:16:53Z</time>
<desc>lat.=55.782257, lon.=26.347221, Alt.=122.260803m. Speed=0.000000m/h.</desc>
<speed>0.000000</speed>
</trkpt>
<trkpt lat="55.782257" lon="26.347221">
<ele>122.247131</ele>
<time>2010-07-17T09:16:54Z</time>
<desc>lat.=55.782257, lon.=26.347221, Alt.=122.247131m. Speed=0.072000m/h.</desc>
<speed>0.020000</speed>
</trkpt>
<trkpt lat="55.782257" lon="26.347221">
<ele>122.237366</ele>
<time>2010-07-17T09:16:55Z</time>
<desc>lat.=55.782257, lon.=26.347221, Alt.=122.237366m. Speed=0.072000m/h.</desc>
<speed>0.020000</speed>
</trkpt>
<trkpt lat="55.782257" lon="26.347221">
<ele>122.231506</ele>
<time>2010-07-17T09:16:56Z</time>
<desc>lat.=55.782257, lon.=26.347221, Alt.=122.231506m. Speed=0.036000m/h.</desc>
<speed>0.010000</speed>
</trkpt>
<trkpt lat="55.782257" lon="26.347221">
<ele>122.225647</ele>
<time>2010-07-17T09:16:57Z</time>
<desc>lat.=55.782257, lon.=26.347221, Alt.=122.225647m. Speed=0.072000m/h.</desc>
<speed>0.020000</speed>
</trkpt>
<trkpt lat="55.782257" lon="26.347221">
<ele>122.219788</ele>
<time>2010-07-17T09:16:58Z</time>
<desc>lat.=55.782257, lon.=26.347221, Alt.=122.219788m. Speed=0.000000m/h.</desc>
<speed>0.000000</speed>
</trkpt>
<trkpt lat="55.782257" lon="26.347221">
<ele>122.213928</ele>
<time>2010-07-17T09:16:59Z</time>
<desc>lat.=55.782257, lon.=26.347221, Alt.=122.213928m. Speed=0.036000m/h.</desc>
<speed>0.010000</speed>
</trkpt>
<trkpt lat="55.782257" lon="26.347221">
<ele>122.211975</ele>
<time>2010-07-17T09:17:00Z</time>
<desc>lat.=55.782257, lon.=26.347221, Alt.=122.211975m. Speed=0.072000m/h.</desc>
<speed>0.020000</speed>
</trkpt>
<trkpt lat="55.782257" lon="26.347221">
<ele>122.208069</ele>
<time>2010-07-17T09:17:01Z</time>
<desc>lat.=55.782257, lon.=26.347221, Alt.=122.208069m. Speed=0.036000m/h.</desc>
<speed>0.010000</speed>
</trkpt>
<trkpt lat="55.782257" lon="26.347221">
<ele>122.204163</ele>
<time>2010-07-17T09:17:02Z</time>
<desc>lat.=55.782257, lon.=26.347221, Alt.=122.204163m. Speed=0.000000m/h.</desc>
<speed>0.000000</speed>
</trkpt>
<trkpt lat="55.782257" lon="26.347221">
<ele>122.202209</ele>
<time>2010-07-17T09:17:03Z</time>
<desc>lat.=55.782257, lon.=26.347221, Alt.=122.202209m. Speed=0.036000m/h.</desc>
<speed>0.010000</speed>
</trkpt>
<trkpt lat="55.782257" lon="26.347221">
<ele>122.190491</ele>
<time>2010-07-17T09:17:04Z</time>
<desc>lat.=55.782257, lon.=26.347221, Alt.=122.190491m. Speed=0.036000m/h.</desc>
<speed>0.010000</speed>
</trkpt>
<trkpt lat="55.782257" lon="26.347221">
<ele>122.186584</ele>
<time>2010-07-17T09:17:05Z</time>
<desc>lat.=55.782257, lon.=26.347221, Alt.=122.186584m. Speed=0.072000m/h.</desc>
<speed>0.020000</speed>
</trkpt>
<trkpt lat="55.782257" lon="26.347221">
<ele>122.184631</ele>
<time>2010-07-17T09:17:06Z</time>
<desc>lat.=55.782257, lon.=26.347221, Alt.=122.184631m. Speed=0.072000m/h.</desc>
<speed>0.020000</speed>
</trkpt>
<trkpt lat="55.782257" lon="26.347221">
<ele>122.182678</ele>
<time>2010-07-17T09:17:07Z</time>
<desc>lat.=55.782257, lon.=26.347221, Alt.=122.182678m. Speed=0.072000m/h.</desc>
<speed>0.020000</speed>
</trkpt>
<trkpt lat="55.782257" lon="26.347221">
<ele>122.174866</ele>
<time>2010-07-17T09:17:08Z</time>
<desc>lat.=55.782257, lon.=26.347221, Alt.=122.174866m. Speed=0.072000m/h.</desc>
<speed>0.020000</speed>
</trkpt>
<trkpt lat="55.782257" lon="26.347221">
<ele>122.170959</ele>
<time>2010-07-17T09:17:09Z</time>
<desc>lat.=55.782257, lon.=26.347221, Alt.=122.170959m. Speed=0.144000m/h.</desc>
<speed>0.040000</speed>
</trkpt>
<trkpt lat="55.782257" lon="26.347221">
<ele>122.165100</ele>
<time>2010-07-17T09:17:10Z</time>
<desc>lat.=55.782257, lon.=26.347221, Alt.=122.165100m. Speed=0.036000m/h.</desc>
<speed>0.010000</speed>
</trkpt>
<trkpt lat="55.782257" lon="26.347221">
<ele>122.159241</ele>
<time>2010-07-17T09:17:11Z</time>
<desc>lat.=55.782257, lon.=26.347221, Alt.=122.159241m. Speed=0.000000m/h.</desc>
<speed>0.000000</speed>
</trkpt>
<trkpt lat="55.782257" lon="26.347221">
<ele>122.159241</ele>
<time>2010-07-17T09:17:12Z</time>
<desc>lat.=55.782257, lon.=26.347221, Alt.=122.159241m. Speed=0.036000m/h.</desc>
<speed>0.010000</speed>
</trkpt>
<trkpt lat="55.782257" lon="26.347223">
<ele>122.153381</ele>
<time>2010-07-17T09:17:13Z</time>
<desc>lat.=55.782257, lon.=26.347223, Alt.=122.153381m. Speed=0.144000m/h.</desc>
<speed>0.040000</speed>
</trkpt>
<trkpt lat="55.782257" lon="26.347223">
<ele>122.153381</ele>
<time>2010-07-17T09:17:14Z</time>
<desc>lat.=55.782257, lon.=26.347223, Alt.=122.153381m. Speed=0.144000m/h.</desc>
<speed>0.040000</speed>
</trkpt>
<trkpt lat="55.782257" lon="26.347223">
<ele>122.153381</ele>
<time>2010-07-17T09:17:15Z</time>
<desc>lat.=55.782257, lon.=26.347223, Alt.=122.153381m. Speed=0.000000m/h.</desc>
<speed>0.000000</speed>
</trkpt>
<trkpt lat="55.782257" lon="26.347223">
<ele>122.157288</ele>
<time>2010-07-17T09:17:16Z</time>
<desc>lat.=55.782257, lon.=26.347223, Alt.=122.157288m. Speed=0.036000m/h.</desc>
<speed>0.010000</speed>
</trkpt>
<trkpt lat="55.782257" lon="26.347223">
<ele>122.163147</ele>
<time>2010-07-17T09:17:17Z</time>
<desc>lat.=55.782257, lon.=26.347223, Alt.=122.163147m. Speed=0.072000m/h.</desc>
<speed>0.020000</speed>
</trkpt>
<trkpt lat="55.782257" lon="26.347221">
<ele>122.167053</ele>
<time>2010-07-17T09:17:18Z</time>
<desc>lat.=55.782257, lon.=26.347221, Alt.=122.167053m. Speed=0.036000m/h.</desc>
<speed>0.010000</speed>
</trkpt>
<trkpt lat="55.782257" lon="26.347221">
<ele>122.172913</ele>
<time>2010-07-17T09:17:19Z</time>
<desc>lat.=55.782257, lon.=26.347221, Alt.=122.172913m. Speed=0.000000m/h.</desc>
<speed>0.000000</speed>
</trkpt>
<trkpt lat="55.782257" lon="26.347221">
<ele>122.176819</ele>
<time>2010-07-17T09:17:20Z</time>
<desc>lat.=55.782257, lon.=26.347221, Alt.=122.176819m. Speed=0.036000m/h.</desc>
<speed>0.010000</speed>
</trkpt>
<trkpt lat="55.782257" lon="26.347221">
<ele>122.182678</ele>
<time>2010-07-17T09:17:21Z</time>
<desc>lat.=55.782257, lon.=26.347221, Alt.=122.182678m. Speed=0.000000m/h.</desc>
<speed>0.000000</speed>
</trkpt>
<trkpt lat="55.782257" lon="26.347221">
<ele>122.188538</ele>
<time>2010-07-17T09:17:22Z</time>
<desc>lat.=55.782257, lon.=26.347221, Alt.=122.188538m. Speed=0.036000m/h.</desc>
<speed>0.010000</speed>
</trkpt>
<trkpt lat="55.782257" lon="26.347221">
<ele>122.192444</ele>
<time>2010-07-17T09:17:23Z</time>
<desc>lat.=55.782257, lon.=26.347221, Alt.=122.192444m. Speed=0.036000m/h.</desc>
<speed>0.010000</speed>
</trkpt>
<trkpt lat="55.782257" lon="26.347221">
<ele>122.198303</ele>
<time>2010-07-17T09:17:24Z</time>
<desc>lat.=55.782257, lon.=26.347221, Alt.=122.198303m. Speed=0.036000m/h.</desc>
<speed>0.010000</speed>
</trkpt>
<trkpt lat="55.782257" lon="26.347221">
<ele>122.204163</ele>
<time>2010-07-17T09:17:25Z</time>
<desc>lat.=55.782257, lon.=26.347221, Alt.=122.204163m. Speed=0.072000m/h.</desc>
<speed>0.020000</speed>
</trkpt>
<trkpt lat="55.782257" lon="26.347223">
<ele>122.208069</ele>
<time>2010-07-17T09:17:26Z</time>
<desc>lat.=55.782257, lon.=26.347223, Alt.=122.208069m. Speed=0.108000m/h.</desc>
<speed>0.030000</speed>
</trkpt>
<trkpt lat="55.782257" lon="26.347223">
<ele>122.211975</ele>
<time>2010-07-17T09:17:27Z</time>
<desc>lat.=55.782257, lon.=26.347223, Alt.=122.211975m. Speed=0.108000m/h.</desc>
<speed>0.030000</speed>
</trkpt>
<trkpt lat="55.782257" lon="26.347223">
<ele>122.217834</ele>
<time>2010-07-17T09:17:28Z</time>
<desc>lat.=55.782257, lon.=26.347223, Alt.=122.217834m. Speed=0.108000m/h.</desc>
<speed>0.030000</speed>
</trkpt>
<trkpt lat="55.782257" lon="26.347223">
<ele>122.217834</ele>
<time>2010-07-17T09:17:29Z</time>
<desc>lat.=55.782257, lon.=26.347223, Alt.=122.217834m. Speed=0.108000m/h.</desc>
<speed>0.030000</speed>
</trkpt>
<trkpt lat="55.782257" lon="26.347223">
<ele>122.211975</ele>
<time>2010-07-17T09:17:30Z</time>
<desc>lat.=55.782257, lon.=26.347223, Alt.=122.211975m. Speed=0.072000m/h.</desc>
<speed>0.020000</speed>
</trkpt>
<trkpt lat="55.782257" lon="26.347223">
<ele>122.210022</ele>
<time>2010-07-17T09:17:31Z</time>
<desc>lat.=55.782257, lon.=26.347223, Alt.=122.210022m. Speed=0.072000m/h.</desc>
<speed>0.020000</speed>
</trkpt>
<trkpt lat="55.782257" lon="26.347223">
<ele>122.210022</ele>
<time>2010-07-17T09:17:32Z</time>
<desc>lat.=55.782257, lon.=26.347223, Alt.=122.210022m. Speed=0.108000m/h.</desc>
<speed>0.030000</speed>
</trkpt>
<trkpt lat="55.782257" lon="26.347223">
<ele>122.211975</ele>
<time>2010-07-17T09:17:33Z</time>
<desc>lat.=55.782257, lon.=26.347223, Alt.=122.211975m. Speed=0.144000m/h.</desc>
<speed>0.040000</speed>
</trkpt>
<trkpt lat="55.782257" lon="26.347225">
<ele>122.215881</ele>
<time>2010-07-17T09:17:34Z</time>
<desc>lat.=55.782257, lon.=26.347225, Alt.=122.215881m. Speed=0.072000m/h.</desc>
<speed>0.020000</speed>
</trkpt>
<trkpt lat="55.782257" lon="26.347225">
<ele>122.219788</ele>
<time>2010-07-17T09:17:35Z</time>
<desc>lat.=55.782257, lon.=26.347225, Alt.=122.219788m. Speed=0.036000m/h.</desc>
<speed>0.010000</speed>
</trkpt>
<trkpt lat="55.782257" lon="26.347225">
<ele>122.231506</ele>
<time>2010-07-17T09:17:36Z</time>
<desc>lat.=55.782257, lon.=26.347225, Alt.=122.231506m. Speed=0.036000m/h.</desc>
<speed>0.010000</speed>
</trkpt>
<trkpt lat="55.782257" lon="26.347225">
<ele>122.237366</ele>
<time>2010-07-17T09:17:37Z</time>
<desc>lat.=55.782257, lon.=26.347225, Alt.=122.237366m. Speed=0.036000m/h.</desc>
<speed>0.010000</speed>
</trkpt>
<trkpt lat="55.782257" lon="26.347225">
<ele>122.249084</ele>
<time>2010-07-17T09:17:38Z</time>
<desc>lat.=55.782257, lon.=26.347225, Alt.=122.249084m. Speed=0.000000m/h.</desc>
<speed>0.000000</speed>
</trkpt>
<trkpt lat="55.782257" lon="26.347225">
<ele>122.260803</ele>
<time>2010-07-17T09:17:39Z</time>
<desc>lat.=55.782257, lon.=26.347225, Alt.=122.260803m. Speed=0.000000m/h.</desc>
<speed>0.000000</speed>
</trkpt>
<trkpt lat="55.782257" lon="26.347225">
<ele>122.268616</ele>
<time>2010-07-17T09:17:40Z</time>
<desc>lat.=55.782257, lon.=26.347225, Alt.=122.268616m. Speed=0.036000m/h.</desc>
<speed>0.010000</speed>
</trkpt>
<trkpt lat="55.782257" lon="26.347225">
<ele>122.274475</ele>
<time>2010-07-17T09:17:41Z</time>
<desc>lat.=55.782257, lon.=26.347225, Alt.=122.274475m. Speed=0.036000m/h.</desc>
<speed>0.010000</speed>
</trkpt>
<trkpt lat="55.782257" lon="26.347223">
<ele>122.280334</ele>
<time>2010-07-17T09:17:42Z</time>
<desc>lat.=55.782257, lon.=26.347223, Alt.=122.280334m. Speed=0.036000m/h.</desc>
<speed>0.010000</speed>
</trkpt>
<trkpt lat="55.782257" lon="26.347223">
<ele>122.290100</ele>
<time>2010-07-17T09:17:43Z</time>
<desc>lat.=55.782257, lon.=26.347223, Alt.=122.290100m. Speed=0.072000m/h.</desc>
<speed>0.020000</speed>
</trkpt>
<trkpt lat="55.782257" lon="26.347223">
<ele>122.323303</ele>
<time>2010-07-17T09:17:44Z</time>
<desc>lat.=55.782257, lon.=26.347223, Alt.=122.323303m. Speed=0.108000m/h.</desc>
<speed>0.030000</speed>
</trkpt>
<trkpt lat="55.782257" lon="26.347223">
<ele>122.327209</ele>
<time>2010-07-17T09:17:45Z</time>
<desc>lat.=55.782257, lon.=26.347223, Alt.=122.327209m. Speed=0.036000m/h.</desc>
<speed>0.010000</speed>
</trkpt>
<trkpt lat="55.782257" lon="26.347223">
<ele>122.331116</ele>
<time>2010-07-17T09:17:46Z</time>
<desc>lat.=55.782257, lon.=26.347223, Alt.=122.331116m. Speed=0.000000m/h.</desc>
<speed>0.000000</speed>
</trkpt>
<trkpt lat="55.782257" lon="26.347223">
<ele>122.336975</ele>
<time>2010-07-17T09:17:47Z</time>
<desc>lat.=55.782257, lon.=26.347223, Alt.=122.336975m. Speed=0.072000m/h.</desc>
<speed>0.020000</speed>
</trkpt>
<trkpt lat="55.782257" lon="26.347223">
<ele>122.344788</ele>
<time>2010-07-17T09:17:48Z</time>
<desc>lat.=55.782257, lon.=26.347223, Alt.=122.344788m. Speed=0.036000m/h.</desc>
<speed>0.010000</speed>
</trkpt>
<trkpt lat="55.782257" lon="26.347223">
<ele>122.360413</ele>
<time>2010-07-17T09:17:49Z</time>
<desc>lat.=55.782257, lon.=26.347223, Alt.=122.360413m. Speed=0.000000m/h.</desc>
<speed>0.000000</speed>
</trkpt>
<trkpt lat="55.782257" lon="26.347223">
<ele>122.370178</ele>
<time>2010-07-17T09:17:50Z</time>
<desc>lat.=55.782257, lon.=26.347223, Alt.=122.370178m. Speed=0.108000m/h.</desc>
<speed>0.030000</speed>
</trkpt>
<trkpt lat="55.782257" lon="26.347223">
<ele>122.372131</ele>
<time>2010-07-17T09:17:51Z</time>
<desc>lat.=55.782257, lon.=26.347223, Alt.=122.372131m. Speed=0.072000m/h.</desc>
<speed>0.020000</speed>
</trkpt>
<trkpt lat="55.782257" lon="26.347223">
<ele>122.381897</ele>
<time>2010-07-17T09:17:52Z</time>
<desc>lat.=55.782257, lon.=26.347223, Alt.=122.381897m. Speed=0.108000m/h.</desc>
<speed>0.030000</speed>
</trkpt>
<trkpt lat="55.782257" lon="26.347223">
<ele>122.383850</ele>
<time>2010-07-17T09:17:53Z</time>
<desc>lat.=55.782257, lon.=26.347223, Alt.=122.383850m. Speed=0.000000m/h.</desc>
<speed>0.000000</speed>
</trkpt>
<trkpt lat="55.782257" lon="26.347223">
<ele>122.391663</ele>
<time>2010-07-17T09:17:54Z</time>
<desc>lat.=55.782257, lon.=26.347223, Alt.=122.391663m. Speed=0.000000m/h.</desc>
<speed>0.000000</speed>
</trkpt>
<trkpt lat="55.782257" lon="26.347225">
<ele>122.391663</ele>
<time>2010-07-17T09:17:55Z</time>
<desc>lat.=55.782257, lon.=26.347225, Alt.=122.391663m. Speed=0.036000m/h.</desc>
<speed>0.010000</speed>
</trkpt>
<trkpt lat="55.782257" lon="26.347225">
<ele>122.401428</ele>
<time>2010-07-17T09:17:56Z</time>
<desc>lat.=55.782257, lon.=26.347225, Alt.=122.401428m. Speed=0.036000m/h.</desc>
<speed>0.010000</speed>
</trkpt>
<trkpt lat="55.782257" lon="26.347225">
<ele>122.407288</ele>
<time>2010-07-17T09:17:57Z</time>
<desc>lat.=55.782257, lon.=26.347225, Alt.=122.407288m. Speed=0.072000m/h.</desc>
<speed>0.020000</speed>
</trkpt>
<trkpt lat="55.782257" lon="26.347225">
<ele>122.413147</ele>
<time>2010-07-17T09:17:58Z</time>
<desc>lat.=55.782257, lon.=26.347225, Alt.=122.413147m. Speed=0.072000m/h.</desc>
<speed>0.020000</speed>
</trkpt>
<trkpt lat="55.782257" lon="26.347225">
<ele>122.417053</ele>
<time>2010-07-17T09:17:59Z</time>
<desc>lat.=55.782257, lon.=26.347225, Alt.=122.417053m. Speed=0.108000m/h.</desc>
<speed>0.030000</speed>
</trkpt>
<trkpt lat="55.782257" lon="26.347225">
<ele>122.424866</ele>
<time>2010-07-17T09:18:00Z</time>
<desc>lat.=55.782257, lon.=26.347225, Alt.=122.424866m. Speed=0.072000m/h.</desc>
<speed>0.020000</speed>
</trkpt>
<trkpt lat="55.782257" lon="26.347225">
<ele>122.440491</ele>
<time>2010-07-17T09:18:01Z</time>
<desc>lat.=55.782257, lon.=26.347225, Alt.=122.440491m. Speed=0.072000m/h.</desc>
<speed>0.020000</speed>
</trkpt>
<trkpt lat="55.782257" lon="26.347225">
<ele>122.452209</ele>
<time>2010-07-17T09:18:02Z</time>
<desc>lat.=55.782257, lon.=26.347225, Alt.=122.452209m. Speed=0.000000m/h.</desc>
<speed>0.000000</speed>
</trkpt>
<trkpt lat="55.782257" lon="26.347225">
<ele>122.460022</ele>
<time>2010-07-17T09:18:03Z</time>
<desc>lat.=55.782257, lon.=26.347225, Alt.=122.460022m. Speed=0.036000m/h.</desc>
<speed>0.010000</speed>
</trkpt>
<trkpt lat="55.782257" lon="26.347225">
<ele>122.475647</ele>
<time>2010-07-17T09:18:04Z</time>
<desc>lat.=55.782257, lon.=26.347225, Alt.=122.475647m. Speed=0.036000m/h.</desc>
<speed>0.010000</speed>
</trkpt>
<trkpt lat="55.782257" lon="26.347225">
<ele>122.483459</ele>
<time>2010-07-17T09:18:05Z</time>
<desc>lat.=55.782257, lon.=26.347225, Alt.=122.483459m. Speed=0.072000m/h.</desc>
<speed>0.020000</speed>
</trkpt>
<trkpt lat="55.782257" lon="26.347225">
<ele>122.493225</ele>
<time>2010-07-17T09:18:06Z</time>
<desc>lat.=55.782257, lon.=26.347225, Alt.=122.493225m. Speed=0.036000m/h.</desc>
<speed>0.010000</speed>
</trkpt>
<trkpt lat="55.782257" lon="26.347225">
<ele>122.510803</ele>
<time>2010-07-17T09:18:07Z</time>
<desc>lat.=55.782257, lon.=26.347225, Alt.=122.510803m. Speed=0.036000m/h.</desc>
<speed>0.010000</speed>
</trkpt>
<trkpt lat="55.782257" lon="26.347225">
<ele>122.538147</ele>
<time>2010-07-17T09:18:08Z</time>
<desc>lat.=55.782257, lon.=26.347225, Alt.=122.538147m. Speed=0.144000m/h.</desc>
<speed>0.040000</speed>
</trkpt>
<trkpt lat="55.782257" lon="26.347225">
<ele>122.555725</ele>
<time>2010-07-17T09:18:09Z</time>
<desc>lat.=55.782257, lon.=26.347225, Alt.=122.555725m. Speed=0.144000m/h.</desc>
<speed>0.040000</speed>
</trkpt>
<trkpt lat="55.782257" lon="26.347227">
<ele>122.567444</ele>
<time>2010-07-17T09:18:10Z</time>
<desc>lat.=55.782257, lon.=26.347227, Alt.=122.567444m. Speed=0.108000m/h.</desc>
<speed>0.030000</speed>
</trkpt>
<trkpt lat="55.782257" lon="26.347227">
<ele>122.581116</ele>
<time>2010-07-17T09:18:11Z</time>
<desc>lat.=55.782257, lon.=26.347227, Alt.=122.581116m. Speed=0.144000m/h.</desc>
<speed>0.040000</speed>
</trkpt>
<trkpt lat="55.782257" lon="26.347227">
<ele>122.579163</ele>
<time>2010-07-17T09:18:12Z</time>
<desc>lat.=55.782257, lon.=26.347227, Alt.=122.579163m. Speed=0.108000m/h.</desc>
<speed>0.030000</speed>
</trkpt>
<trkpt lat="55.782257" lon="26.347227">
<ele>122.588928</ele>
<time>2010-07-17T09:18:13Z</time>
<desc>lat.=55.782257, lon.=26.347227, Alt.=122.588928m. Speed=0.036000m/h.</desc>
<speed>0.010000</speed>
</trkpt>
<trkpt lat="55.782257" lon="26.347227">
<ele>122.600647</ele>
<time>2010-07-17T09:18:14Z</time>
<desc>lat.=55.782257, lon.=26.347227, Alt.=122.600647m. Speed=0.036000m/h.</desc>
<speed>0.010000</speed>
</trkpt>
<trkpt lat="55.782257" lon="26.347227">
<ele>122.620178</ele>
<time>2010-07-17T09:18:15Z</time>
<desc>lat.=55.782257, lon.=26.347227, Alt.=122.620178m. Speed=0.036000m/h.</desc>
<speed>0.010000</speed>
</trkpt>
<trkpt lat="55.782257" lon="26.347227">
<ele>122.620178</ele>
<time>2010-07-17T09:18:16Z</time>
<desc>lat.=55.782257, lon.=26.347227, Alt.=122.620178m. Speed=0.000000m/h.</desc>
<speed>0.000000</speed>
</trkpt>
<trkpt lat="55.782257" lon="26.347227">
<ele>122.626038</ele>
<time>2010-07-17T09:18:17Z</time>
<desc>lat.=55.782257, lon.=26.347227, Alt.=122.626038m. Speed=0.036000m/h.</desc>
<speed>0.010000</speed>
</trkpt>
<trkpt lat="55.782257" lon="26.347227">
<ele>122.624084</ele>
<time>2010-07-17T09:18:18Z</time>
<desc>lat.=55.782257, lon.=26.347227, Alt.=122.624084m. Speed=0.108000m/h.</desc>
<speed>0.030000</speed>
</trkpt>
<trkpt lat="55.782257" lon="26.347227">
<ele>122.618225</ele>
<time>2010-07-17T09:18:19Z</time>
<desc>lat.=55.782257, lon.=26.347227, Alt.=122.618225m. Speed=0.144000m/h.</desc>
<speed>0.040000</speed>
</trkpt>
<trkpt lat="55.782257" lon="26.347227">
<ele>122.612366</ele>
<time>2010-07-17T09:18:20Z</time>
<desc>lat.=55.782257, lon.=26.347227, Alt.=122.612366m. Speed=0.144000m/h.</desc>
<speed>0.040000</speed>
</trkpt>
<trkpt lat="55.782257" lon="26.347227">
<ele>122.610413</ele>
<time>2010-07-17T09:18:21Z</time>
<desc>lat.=55.782257, lon.=26.347227, Alt.=122.610413m. Speed=0.072000m/h.</desc>
<speed>0.020000</speed>
</trkpt>
<trkpt lat="55.782257" lon="26.347227">
<ele>122.612366</ele>
<time>2010-07-17T09:18:22Z</time>
<desc>lat.=55.782257, lon.=26.347227, Alt.=122.612366m. Speed=0.108000m/h.</desc>
<speed>0.030000</speed>
</trkpt>
<trkpt lat="55.782257" lon="26.347227">
<ele>122.610413</ele>
<time>2010-07-17T09:18:23Z</time>
<desc>lat.=55.782257, lon.=26.347227, Alt.=122.610413m. Speed=0.072000m/h.</desc>
<speed>0.020000</speed>
</trkpt>
<trkpt lat="55.782261" lon="26.347227">
<ele>122.635803</ele>
<time>2010-07-17T09:18:24Z</time>
<desc>lat.=55.782261, lon.=26.347227, Alt.=122.635803m. Speed=0.180000m/h.</desc>
<speed>0.050000</speed>
</trkpt>
<trkpt lat="55.782261" lon="26.347227">
<ele>122.633850</ele>
<time>2010-07-17T09:18:25Z</time>
<desc>lat.=55.782261, lon.=26.347227, Alt.=122.633850m. Speed=0.036000m/h.</desc>
<speed>0.010000</speed>
</trkpt>
<trkpt lat="55.782261" lon="26.347227">
<ele>122.633850</ele>
<time>2010-07-17T09:18:26Z</time>
<desc>lat.=55.782261, lon.=26.347227, Alt.=122.633850m. Speed=0.036000m/h.</desc>
<speed>0.010000</speed>
</trkpt>
<trkpt lat="55.782261" lon="26.347227">
<ele>122.631897</ele>
<time>2010-07-17T09:18:27Z</time>
<desc>lat.=55.782261, lon.=26.347227, Alt.=122.631897m. Speed=0.072000m/h.</desc>
<speed>0.020000</speed>
</trkpt>
<trkpt lat="55.782261" lon="26.347227">
<ele>122.631897</ele>
<time>2010-07-17T09:18:28Z</time>
<desc>lat.=55.782261, lon.=26.347227, Alt.=122.631897m. Speed=0.000000m/h.</desc>
<speed>0.000000</speed>
</trkpt>
<trkpt lat="55.782261" lon="26.347227">
<ele>122.624084</ele>
<time>2010-07-17T09:18:29Z</time>
<desc>lat.=55.782261, lon.=26.347227, Alt.=122.624084m. Speed=0.108000m/h.</desc>
<speed>0.030000</speed>
</trkpt>
<trkpt lat="55.782261" lon="26.347227">
<ele>122.622131</ele>
<time>2010-07-17T09:18:30Z</time>
<desc>lat.=55.782261, lon.=26.347227, Alt.=122.622131m. Speed=0.036000m/h.</desc>
<speed>0.010000</speed>
</trkpt>
<trkpt lat="55.782261" lon="26.347227">
<ele>122.629944</ele>
<time>2010-07-17T09:18:31Z</time>
<desc>lat.=55.782261, lon.=26.347227, Alt.=122.629944m. Speed=0.000000m/h.</desc>
<speed>0.000000</speed>
</trkpt>
<trkpt lat="55.782261" lon="26.347227">
<ele>122.631897</ele>
<time>2010-07-17T09:18:32Z</time>
<desc>lat.=55.782261, lon.=26.347227, Alt.=122.631897m. Speed=0.072000m/h.</desc>
<speed>0.020000</speed>
</trkpt>
<trkpt lat="55.782261" lon="26.347225">
<ele>122.635803</ele>
<time>2010-07-17T09:18:33Z</time>
<desc>lat.=55.782261, lon.=26.347225, Alt.=122.635803m. Speed=0.180000m/h.</desc>
<speed>0.050000</speed>
</trkpt>
<trkpt lat="55.782261" lon="26.347225">
<ele>122.629944</ele>
<time>2010-07-17T09:18:34Z</time>
<desc>lat.=55.782261, lon.=26.347225, Alt.=122.629944m. Speed=0.072000m/h.</desc>
<speed>0.020000</speed>
</trkpt>
<trkpt lat="55.782261" lon="26.347225">
<ele>122.626038</ele>
<time>2010-07-17T09:18:35Z</time>
<desc>lat.=55.782261, lon.=26.347225, Alt.=122.626038m. Speed=0.036000m/h.</desc>
<speed>0.010000</speed>
</trkpt>
<trkpt lat="55.782261" lon="26.347225">
<ele>122.622131</ele>
<time>2010-07-17T09:18:36Z</time>
<desc>lat.=55.782261, lon.=26.347225, Alt.=122.622131m. Speed=0.108000m/h.</desc>
<speed>0.030000</speed>
</trkpt>
<trkpt lat="55.782261" lon="26.347225">
<ele>122.618225</ele>
<time>2010-07-17T09:18:37Z</time>
<desc>lat.=55.782261, lon.=26.347225, Alt.=122.618225m. Speed=0.072000m/h.</desc>
<speed>0.020000</speed>
</trkpt>
<trkpt lat="55.782257" lon="26.347225">
<ele>122.614319</ele>
<time>2010-07-17T09:18:38Z</time>
<desc>lat.=55.782257, lon.=26.347225, Alt.=122.614319m. Speed=0.108000m/h.</desc>
<speed>0.030000</speed>
</trkpt>
<trkpt lat="55.782257" lon="26.347225">
<ele>122.610413</ele>
<time>2010-07-17T09:18:39Z</time>
<desc>lat.=55.782257, lon.=26.347225, Alt.=122.610413m. Speed=0.144000m/h.</desc>
<speed>0.040000</speed>
</trkpt>
<trkpt lat="55.782257" lon="26.347225">
<ele>122.604553</ele>
<time>2010-07-17T09:18:40Z</time>
<desc>lat.=55.782257, lon.=26.347225, Alt.=122.604553m. Speed=0.072000m/h.</desc>
<speed>0.020000</speed>
</trkpt>
<trkpt lat="55.782257" lon="26.347225">
<ele>122.600647</ele>
<time>2010-07-17T09:18:41Z</time>
<desc>lat.=55.782257, lon.=26.347225, Alt.=122.600647m. Speed=0.036000m/h.</desc>
<speed>0.010000</speed>
</trkpt>
<trkpt lat="55.782257" lon="26.347225">
<ele>122.594788</ele>
<time>2010-07-17T09:18:42Z</time>
<desc>lat.=55.782257, lon.=26.347225, Alt.=122.594788m. Speed=0.036000m/h.</desc>
<speed>0.010000</speed>
</trkpt>
<trkpt lat="55.782257" lon="26.347223">
<ele>122.594788</ele>
<time>2010-07-17T09:18:43Z</time>
<desc>lat.=55.782257, lon.=26.347223, Alt.=122.594788m. Speed=0.036000m/h.</desc>
<speed>0.010000</speed>
</trkpt>
<trkpt lat="55.782257" lon="26.347223">
<ele>122.596741</ele>
<time>2010-07-17T09:18:44Z</time>
<desc>lat.=55.782257, lon.=26.347223, Alt.=122.596741m. Speed=0.000000m/h.</desc>
<speed>0.000000</speed>
</trkpt>
<trkpt lat="55.782257" lon="26.347223">
<ele>122.596741</ele>
<time>2010-07-17T09:18:45Z</time>
<desc>lat.=55.782257, lon.=26.347223, Alt.=122.596741m. Speed=0.036000m/h.</desc>
<speed>0.010000</speed>
</trkpt>
<trkpt lat="55.782257" lon="26.347223">
<ele>122.598694</ele>
<time>2010-07-17T09:18:46Z</time>
<desc>lat.=55.782257, lon.=26.347223, Alt.=122.598694m. Speed=0.000000m/h.</desc>
<speed>0.000000</speed>
</trkpt>
<trkpt lat="55.782257" lon="26.347223">
<ele>122.602600</ele>
<time>2010-07-17T09:18:47Z</time>
<desc>lat.=55.782257, lon.=26.347223, Alt.=122.602600m. Speed=0.036000m/h.</desc>
<speed>0.010000</speed>
</trkpt>
<trkpt lat="55.782257" lon="26.347223">
<ele>122.604553</ele>
<time>2010-07-17T09:18:48Z</time>
<desc>lat.=55.782257, lon.=26.347223, Alt.=122.604553m. Speed=0.000000m/h.</desc>
<speed>0.000000</speed>
</trkpt>
<trkpt lat="55.782257" lon="26.347223">
<ele>122.608459</ele>
<time>2010-07-17T09:18:49Z</time>
<desc>lat.=55.782257, lon.=26.347223, Alt.=122.608459m. Speed=0.036000m/h.</desc>
<speed>0.010000</speed>
</trkpt>
<trkpt lat="55.782257" lon="26.347223">
<ele>122.610413</ele>
<time>2010-07-17T09:18:50Z</time>
<desc>lat.=55.782257, lon.=26.347223, Alt.=122.610413m. Speed=0.000000m/h.</desc>
<speed>0.000000</speed>
</trkpt>
<trkpt lat="55.782257" lon="26.347225">
<ele>122.612366</ele>
<time>2010-07-17T09:18:51Z</time>
<desc>lat.=55.782257, lon.=26.347225, Alt.=122.612366m. Speed=0.108000m/h.</desc>
<speed>0.030000</speed>
</trkpt>
<trkpt lat="55.782257" lon="26.347225">
<ele>122.612366</ele>
<time>2010-07-17T09:18:52Z</time>
<desc>lat.=55.782257, lon.=26.347225, Alt.=122.612366m. Speed=0.072000m/h.</desc>
<speed>0.020000</speed>
</trkpt>
<trkpt lat="55.782257" lon="26.347225">
<ele>122.612366</ele>
<time>2010-07-17T09:18:53Z</time>
<desc>lat.=55.782257, lon.=26.347225, Alt.=122.612366m. Speed=0.072000m/h.</desc>
<speed>0.020000</speed>
</trkpt>
<trkpt lat="55.782257" lon="26.347225">
<ele>122.614319</ele>
<time>2010-07-17T09:18:54Z</time>
<desc>lat.=55.782257, lon.=26.347225, Alt.=122.614319m. Speed=0.072000m/h.</desc>
<speed>0.020000</speed>
</trkpt>
<trkpt lat="55.782257" lon="26.347225">
<ele>122.616272</ele>
<time>2010-07-17T09:18:55Z</time>
<desc>lat.=55.782257, lon.=26.347225, Alt.=122.616272m. Speed=0.072000m/h.</desc>
<speed>0.020000</speed>
</trkpt>
<trkpt lat="55.782257" lon="26.347225">
<ele>122.610413</ele>
<time>2010-07-17T09:18:56Z</time>
<desc>lat.=55.782257, lon.=26.347225, Alt.=122.610413m. Speed=0.072000m/h.</desc>
<speed>0.020000</speed>
</trkpt>
<trkpt lat="55.782257" lon="26.347225">
<ele>122.604553</ele>
<time>2010-07-17T09:18:57Z</time>
<desc>lat.=55.782257, lon.=26.347225, Alt.=122.604553m. Speed=0.072000m/h.</desc>
<speed>0.020000</speed>
</trkpt>
<trkpt lat="55.782257" lon="26.347225">
<ele>122.608459</ele>
<time>2010-07-17T09:18:58Z</time>
<desc>lat.=55.782257, lon.=26.347225, Alt.=122.608459m. Speed=0.036000m/h.</desc>
<speed>0.010000</speed>
</trkpt>
<trkpt lat="55.782257" lon="26.347225">
<ele>122.604553</ele>
<time>2010-07-17T09:18:59Z</time>
<desc>lat.=55.782257, lon.=26.347225, Alt.=122.604553m. Speed=0.036000m/h.</desc>
<speed>0.010000</speed>
</trkpt>
<trkpt lat="55.782257" lon="26.347225">
<ele>122.596741</ele>
<time>2010-07-17T09:19:00Z</time>
<desc>lat.=55.782257, lon.=26.347225, Alt.=122.596741m. Speed=0.072000m/h.</desc>
<speed>0.020000</speed>
</trkpt>
<trkpt lat="55.782257" lon="26.347225">
<ele>122.590881</ele>
<time>2010-07-17T09:19:01Z</time>
<desc>lat.=55.782257, lon.=26.347225, Alt.=122.590881m. Speed=0.072000m/h.</desc>
<speed>0.020000</speed>
</trkpt>
<trkpt lat="55.782257" lon="26.347225">
<ele>122.594788</ele>
<time>2010-07-17T09:19:02Z</time>
<desc>lat.=55.782257, lon.=26.347225, Alt.=122.594788m. Speed=0.036000m/h.</desc>
<speed>0.010000</speed>
</trkpt>
<trkpt lat="55.782257" lon="26.347225">
<ele>122.596741</ele>
<time>2010-07-17T09:19:03Z</time>
<desc>lat.=55.782257, lon.=26.347225, Alt.=122.596741m. Speed=0.036000m/h.</desc>
<speed>0.010000</speed>
</trkpt>
<trkpt lat="55.782257" lon="26.347225">
<ele>122.596741</ele>
<time>2010-07-17T09:19:04Z</time>
<desc>lat.=55.782257, lon.=26.347225, Alt.=122.596741m. Speed=0.000000m/h.</desc>
<speed>0.000000</speed>
</trkpt>
<trkpt lat="55.782257" lon="26.347225">
<ele>122.600647</ele>
<time>2010-07-17T09:19:05Z</time>
<desc>lat.=55.782257, lon.=26.347225, Alt.=122.600647m. Speed=0.000000m/h.</desc>
<speed>0.000000</speed>
</trkpt>
<trkpt lat="55.782257" lon="26.347225">
<ele>122.600647</ele>
<time>2010-07-17T09:19:06Z</time>
<desc>lat.=55.782257, lon.=26.347225, Alt.=122.600647m. Speed=0.036000m/h.</desc>
<speed>0.010000</speed>
</trkpt>
<trkpt lat="55.782257" lon="26.347225">
<ele>122.600647</ele>
<time>2010-07-17T09:19:07Z</time>
<desc>lat.=55.782257, lon.=26.347225, Alt.=122.600647m. Speed=0.000000m/h.</desc>
<speed>0.000000</speed>
</trkpt>
<trkpt lat="55.782257" lon="26.347225">
<ele>122.604553</ele>
<time>2010-07-17T09:19:08Z</time>
<desc>lat.=55.782257, lon.=26.347225, Alt.=122.604553m. Speed=0.000000m/h.</desc>
<speed>0.000000</speed>
</trkpt>
<trkpt lat="55.782257" lon="26.347225">
<ele>122.606506</ele>
<time>2010-07-17T09:19:09Z</time>
<desc>lat.=55.782257, lon.=26.347225, Alt.=122.606506m. Speed=0.036000m/h.</desc>
<speed>0.010000</speed>
</trkpt>
<trkpt lat="55.782257" lon="26.347225">
<ele>122.612366</ele>
<time>2010-07-17T09:19:10Z</time>
<desc>lat.=55.782257, lon.=26.347225, Alt.=122.612366m. Speed=0.072000m/h.</desc>
<speed>0.020000</speed>
</trkpt>
<trkpt lat="55.782257" lon="26.347225">
<ele>122.620178</ele>
<time>2010-07-17T09:19:11Z</time>
<desc>lat.=55.782257, lon.=26.347225, Alt.=122.620178m. Speed=0.000000m/h.</desc>
<speed>0.000000</speed>
</trkpt>
<trkpt lat="55.782257" lon="26.347225">
<ele>122.626038</ele>
<time>2010-07-17T09:19:12Z</time>
<desc>lat.=55.782257, lon.=26.347225, Alt.=122.626038m. Speed=0.036000m/h.</desc>
<speed>0.010000</speed>
</trkpt>
<trkpt lat="55.782257" lon="26.347225">
<ele>122.627991</ele>
<time>2010-07-17T09:19:13Z</time>
<desc>lat.=55.782257, lon.=26.347225, Alt.=122.627991m. Speed=0.036000m/h.</desc>
<speed>0.010000</speed>
</trkpt>
<trkpt lat="55.782257" lon="26.347225">
<ele>122.633850</ele>
<time>2010-07-17T09:19:14Z</time>
<desc>lat.=55.782257, lon.=26.347225, Alt.=122.633850m. Speed=0.072000m/h.</desc>
<speed>0.020000</speed>
</trkpt>
<trkpt lat="55.782257" lon="26.347225">
<ele>122.641663</ele>
<time>2010-07-17T09:19:15Z</time>
<desc>lat.=55.782257, lon.=26.347225, Alt.=122.641663m. Speed=0.072000m/h.</desc>
<speed>0.020000</speed>
</trkpt>
<trkpt lat="55.782257" lon="26.347225">
<ele>122.651428</ele>
<time>2010-07-17T09:19:16Z</time>
<desc>lat.=55.782257, lon.=26.347225, Alt.=122.651428m. Speed=0.072000m/h.</desc>
<speed>0.020000</speed>
</trkpt>
<trkpt lat="55.782257" lon="26.347225">
<ele>122.661194</ele>
<time>2010-07-17T09:19:17Z</time>
<desc>lat.=55.782257, lon.=26.347225, Alt.=122.661194m. Speed=0.036000m/h.</desc>
<speed>0.010000</speed>
</trkpt>
<trkpt lat="55.782257" lon="26.347223">
<ele>122.667053</ele>
<time>2010-07-17T09:19:18Z</time>
<desc>lat.=55.782257, lon.=26.347223, Alt.=122.667053m. Speed=0.072000m/h.</desc>
<speed>0.020000</speed>
</trkpt>
<trkpt lat="55.782257" lon="26.347223">
<ele>122.665100</ele>
<time>2010-07-17T09:19:19Z</time>
<desc>lat.=55.782257, lon.=26.347223, Alt.=122.665100m. Speed=0.036000m/h.</desc>
<speed>0.010000</speed>
</trkpt>
<trkpt lat="55.782257" lon="26.347225">
<ele>122.667053</ele>
<time>2010-07-17T09:19:20Z</time>
<desc>lat.=55.782257, lon.=26.347225, Alt.=122.667053m. Speed=0.072000m/h.</desc>
<speed>0.020000</speed>
</trkpt>
<trkpt lat="55.782257" lon="26.347225">
<ele>122.665100</ele>
<time>2010-07-17T09:19:21Z</time>
<desc>lat.=55.782257, lon.=26.347225, Alt.=122.665100m. Speed=0.036000m/h.</desc>
<speed>0.010000</speed>
</trkpt>
<trkpt lat="55.782257" lon="26.347225">
<ele>122.663147</ele>
<time>2010-07-17T09:19:22Z</time>
<desc>lat.=55.782257, lon.=26.347225, Alt.=122.663147m. Speed=0.072000m/h.</desc>
<speed>0.020000</speed>
</trkpt>
<trkpt lat="55.782257" lon="26.347225">
<ele>122.667053</ele>
<time>2010-07-17T09:19:23Z</time>
<desc>lat.=55.782257, lon.=26.347225, Alt.=122.667053m. Speed=0.108000m/h.</desc>
<speed>0.030000</speed>
</trkpt>
<trkpt lat="55.782257" lon="26.347225">
<ele>122.670959</ele>
<time>2010-07-17T09:19:24Z</time>
<desc>lat.=55.782257, lon.=26.347225, Alt.=122.670959m. Speed=0.180000m/h.</desc>
<speed>0.050000</speed>
</trkpt>
<trkpt lat="55.782257" lon="26.347225">
<ele>122.678772</ele>
<time>2010-07-17T09:19:25Z</time>
<desc>lat.=55.782257, lon.=26.347225, Alt.=122.678772m. Speed=0.180000m/h.</desc>
<speed>0.050000</speed>
</trkpt>
<trkpt lat="55.782257" lon="26.347225">
<ele>122.686584</ele>
<time>2010-07-17T09:19:26Z</time>
<desc>lat.=55.782257, lon.=26.347225, Alt.=122.686584m. Speed=0.036000m/h.</desc>
<speed>0.010000</speed>
</trkpt>
<trkpt lat="55.782257" lon="26.347225">
<ele>122.696350</ele>
<time>2010-07-17T09:19:27Z</time>
<desc>lat.=55.782257, lon.=26.347225, Alt.=122.696350m. Speed=0.108000m/h.</desc>
<speed>0.030000</speed>
</trkpt>
<trkpt lat="55.782257" lon="26.347225">
<ele>122.696350</ele>
<time>2010-07-17T09:19:28Z</time>
<desc>lat.=55.782257, lon.=26.347225, Alt.=122.696350m. Speed=0.072000m/h.</desc>
<speed>0.020000</speed>
</trkpt>
<trkpt lat="55.782257" lon="26.347225">
<ele>122.698303</ele>
<time>2010-07-17T09:19:29Z</time>
<desc>lat.=55.782257, lon.=26.347225, Alt.=122.698303m. Speed=0.144000m/h.</desc>
<speed>0.040000</speed>
</trkpt>
<trkpt lat="55.782257" lon="26.347225">
<ele>122.711975</ele>
<time>2010-07-17T09:19:30Z</time>
<desc>lat.=55.782257, lon.=26.347225, Alt.=122.711975m. Speed=0.000000m/h.</desc>
<speed>0.000000</speed>
</trkpt>
<trkpt lat="55.782257" lon="26.347225">
<ele>122.717834</ele>
<time>2010-07-17T09:19:31Z</time>
<desc>lat.=55.782257, lon.=26.347225, Alt.=122.717834m. Speed=0.036000m/h.</desc>
<speed>0.010000</speed>
</trkpt>
<trkpt lat="55.782257" lon="26.347225">
<ele>122.723694</ele>
<time>2010-07-17T09:19:32Z</time>
<desc>lat.=55.782257, lon.=26.347225, Alt.=122.723694m. Speed=0.000000m/h.</desc>
<speed>0.000000</speed>
</trkpt>
<trkpt lat="55.782257" lon="26.347225">
<ele>122.737366</ele>
<time>2010-07-17T09:19:33Z</time>
<desc>lat.=55.782257, lon.=26.347225, Alt.=122.737366m. Speed=0.072000m/h.</desc>
<speed>0.020000</speed>
</trkpt>
<trkpt lat="55.782257" lon="26.347225">
<ele>122.745178</ele>
<time>2010-07-17T09:19:34Z</time>
<desc>lat.=55.782257, lon.=26.347225, Alt.=122.745178m. Speed=0.036000m/h.</desc>
<speed>0.010000</speed>
</trkpt>
<trkpt lat="55.782257" lon="26.347225">
<ele>122.754944</ele>
<time>2010-07-17T09:19:35Z</time>
<desc>lat.=55.782257, lon.=26.347225, Alt.=122.754944m. Speed=0.000000m/h.</desc>
<speed>0.000000</speed>
</trkpt>
<trkpt lat="55.782257" lon="26.347225">
<ele>122.756897</ele>
<time>2010-07-17T09:19:36Z</time>
<desc>lat.=55.782257, lon.=26.347225, Alt.=122.756897m. Speed=0.000000m/h.</desc>
<speed>0.000000</speed>
</trkpt>
<trkpt lat="55.782257" lon="26.347225">
<ele>122.758850</ele>
<time>2010-07-17T09:19:37Z</time>
<desc>lat.=55.782257, lon.=26.347225, Alt.=122.758850m. Speed=0.036000m/h.</desc>
<speed>0.010000</speed>
</trkpt>
<trkpt lat="55.782257" lon="26.347225">
<ele>122.762756</ele>
<time>2010-07-17T09:19:38Z</time>
<desc>lat.=55.782257, lon.=26.347225, Alt.=122.762756m. Speed=0.036000m/h.</desc>
<speed>0.010000</speed>
</trkpt>
<trkpt lat="55.782257" lon="26.347225">
<ele>122.766663</ele>
<time>2010-07-17T09:19:39Z</time>
<desc>lat.=55.782257, lon.=26.347225, Alt.=122.766663m. Speed=0.000000m/h.</desc>
<speed>0.000000</speed>
</trkpt>
<trkpt lat="55.782257" lon="26.347225">
<ele>122.772522</ele>
<time>2010-07-17T09:19:40Z</time>
<desc>lat.=55.782257, lon.=26.347225, Alt.=122.772522m. Speed=0.000000m/h.</desc>
<speed>0.000000</speed>
</trkpt>
<trkpt lat="55.782257" lon="26.347225">
<ele>122.772522</ele>
<time>2010-07-17T09:19:41Z</time>
<desc>lat.=55.782257, lon.=26.347225, Alt.=122.772522m. Speed=0.000000m/h.</desc>
<speed>0.000000</speed>
</trkpt>
<trkpt lat="55.782257" lon="26.347225">
<ele>122.776428</ele>
<time>2010-07-17T09:19:42Z</time>
<desc>lat.=55.782257, lon.=26.347225, Alt.=122.776428m. Speed=0.000000m/h.</desc>
<speed>0.000000</speed>
</trkpt>
<trkpt lat="55.782257" lon="26.347225">
<ele>122.778381</ele>
<time>2010-07-17T09:19:43Z</time>
<desc>lat.=55.782257, lon.=26.347225, Alt.=122.778381m. Speed=0.000000m/h.</desc>
<speed>0.000000</speed>
</trkpt>
<trkpt lat="55.782257" lon="26.347225">
<ele>122.778381</ele>
<time>2010-07-17T09:19:44Z</time>
<desc>lat.=55.782257, lon.=26.347225, Alt.=122.778381m. Speed=0.000000m/h.</desc>
<speed>0.000000</speed>
</trkpt>
<trkpt lat="55.782257" lon="26.347225">
<ele>122.780334</ele>
<time>2010-07-17T09:19:45Z</time>
<desc>lat.=55.782257, lon.=26.347225, Alt.=122.780334m. Speed=0.000000m/h.</desc>
<speed>0.000000</speed>
</trkpt>
<trkpt lat="55.782257" lon="26.347225">
<ele>122.784241</ele>
<time>2010-07-17T09:19:46Z</time>
<desc>lat.=55.782257, lon.=26.347225, Alt.=122.784241m. Speed=0.036000m/h.</desc>
<speed>0.010000</speed>
</trkpt>
<trkpt lat="55.782257" lon="26.347225">
<ele>122.788147</ele>
<time>2010-07-17T09:19:47Z</time>
<desc>lat.=55.782257, lon.=26.347225, Alt.=122.788147m. Speed=0.036000m/h.</desc>
<speed>0.010000</speed>
</trkpt>
<trkpt lat="55.782257" lon="26.347225">
<ele>122.790100</ele>
<time>2010-07-17T09:19:48Z</time>
<desc>lat.=55.782257, lon.=26.347225, Alt.=122.790100m. Speed=0.036000m/h.</desc>
<speed>0.010000</speed>
</trkpt>
<trkpt lat="55.782261" lon="26.347225">
<ele>122.790100</ele>
<time>2010-07-17T09:19:49Z</time>
<desc>lat.=55.782261, lon.=26.347225, Alt.=122.790100m. Speed=0.000000m/h.</desc>
<speed>0.000000</speed>
</trkpt>
<trkpt lat="55.782261" lon="26.347225">
<ele>122.792053</ele>
<time>2010-07-17T09:19:50Z</time>
<desc>lat.=55.782261, lon.=26.347225, Alt.=122.792053m. Speed=0.036000m/h.</desc>
<speed>0.010000</speed>
</trkpt>
<trkpt lat="55.782261" lon="26.347225">
<ele>122.795959</ele>
<time>2010-07-17T09:19:51Z</time>
<desc>lat.=55.782261, lon.=26.347225, Alt.=122.795959m. Speed=0.036000m/h.</desc>
<speed>0.010000</speed>
</trkpt>
<trkpt lat="55.782261" lon="26.347225">
<ele>122.794006</ele>
<time>2010-07-17T09:19:52Z</time>
<desc>lat.=55.782261, lon.=26.347225, Alt.=122.794006m. Speed=0.036000m/h.</desc>
<speed>0.010000</speed>
</trkpt>
<trkpt lat="55.782261" lon="26.347225">
<ele>122.799866</ele>
<time>2010-07-17T09:19:53Z</time>
<desc>lat.=55.782261, lon.=26.347225, Alt.=122.799866m. Speed=0.036000m/h.</desc>
<speed>0.010000</speed>
</trkpt>
<trkpt lat="55.782261" lon="26.347225">
<ele>122.803772</ele>
<time>2010-07-17T09:19:54Z</time>
<desc>lat.=55.782261, lon.=26.347225, Alt.=122.803772m. Speed=0.000000m/h.</desc>
<speed>0.000000</speed>
</trkpt>
<trkpt lat="55.782261" lon="26.347225">
<ele>122.811584</ele>
<time>2010-07-17T09:19:55Z</time>
<desc>lat.=55.782261, lon.=26.347225, Alt.=122.811584m. Speed=0.072000m/h.</desc>
<speed>0.020000</speed>
</trkpt>
<trkpt lat="55.782261" lon="26.347225">
<ele>122.815491</ele>
<time>2010-07-17T09:19:56Z</time>
<desc>lat.=55.782261, lon.=26.347225, Alt.=122.815491m. Speed=0.036000m/h.</desc>
<speed>0.010000</speed>
</trkpt>
<trkpt lat="55.782261" lon="26.347225">
<ele>122.821350</ele>
<time>2010-07-17T09:19:57Z</time>
<desc>lat.=55.782261, lon.=26.347225, Alt.=122.821350m. Speed=0.072000m/h.</desc>
<speed>0.020000</speed>
</trkpt>
<trkpt lat="55.782261" lon="26.347225">
<ele>122.821350</ele>
<time>2010-07-17T09:19:58Z</time>
<desc>lat.=55.782261, lon.=26.347225, Alt.=122.821350m. Speed=0.000000m/h.</desc>
<speed>0.000000</speed>
</trkpt>
<trkpt lat="55.782261" lon="26.347225">
<ele>122.829163</ele>
<time>2010-07-17T09:19:59Z</time>
<desc>lat.=55.782261, lon.=26.347225, Alt.=122.829163m. Speed=0.036000m/h.</desc>
<speed>0.010000</speed>
</trkpt>
<trkpt lat="55.782261" lon="26.347225">
<ele>122.831116</ele>
<time>2010-07-17T09:20:00Z</time>
<desc>lat.=55.782261, lon.=26.347225, Alt.=122.831116m. Speed=0.072000m/h.</desc>
<speed>0.020000</speed>
</trkpt>
<trkpt lat="55.782261" lon="26.347225">
<ele>122.835022</ele>
<time>2010-07-17T09:20:01Z</time>
<desc>lat.=55.782261, lon.=26.347225, Alt.=122.835022m. Speed=0.036000m/h.</desc>
<speed>0.010000</speed>
</trkpt>
<trkpt lat="55.782261" lon="26.347225">
<ele>122.831116</ele>
<time>2010-07-17T09:20:02Z</time>
<desc>lat.=55.782261, lon.=26.347225, Alt.=122.831116m. Speed=0.036000m/h.</desc>
<speed>0.010000</speed>
</trkpt>
<trkpt lat="55.782261" lon="26.347225">
<ele>122.817444</ele>
<time>2010-07-17T09:20:03Z</time>
<desc>lat.=55.782261, lon.=26.347225, Alt.=122.817444m. Speed=0.036000m/h.</desc>
<speed>0.010000</speed>
</trkpt>
<trkpt lat="55.782261" lon="26.347227">
<ele>122.797913</ele>
<time>2010-07-17T09:20:04Z</time>
<desc>lat.=55.782261, lon.=26.347227, Alt.=122.797913m. Speed=0.108000m/h.</desc>
<speed>0.030000</speed>
</trkpt>
<trkpt lat="55.782261" lon="26.347227">
<ele>122.790100</ele>
<time>2010-07-17T09:20:05Z</time>
<desc>lat.=55.782261, lon.=26.347227, Alt.=122.790100m. Speed=0.072000m/h.</desc>
<speed>0.020000</speed>
</trkpt>
<trkpt lat="55.782261" lon="26.347227">
<ele>122.786194</ele>
<time>2010-07-17T09:20:06Z</time>
<desc>lat.=55.782261, lon.=26.347227, Alt.=122.786194m. Speed=0.036000m/h.</desc>
<speed>0.010000</speed>
</trkpt>
<trkpt lat="55.782257" lon="26.347227">
<ele>122.772522</ele>
<time>2010-07-17T09:20:07Z</time>
<desc>lat.=55.782257, lon.=26.347227, Alt.=122.772522m. Speed=0.216000m/h.</desc>
<speed>0.060000</speed>
</trkpt>
<trkpt lat="55.782257" lon="26.347227">
<ele>122.768616</ele>
<time>2010-07-17T09:20:08Z</time>
<desc>lat.=55.782257, lon.=26.347227, Alt.=122.768616m. Speed=0.036000m/h.</desc>
<speed>0.010000</speed>
</trkpt>
<trkpt lat="55.782257" lon="26.347227">
<ele>122.752991</ele>
<time>2010-07-17T09:20:09Z</time>
<desc>lat.=55.782257, lon.=26.347227, Alt.=122.752991m. Speed=0.180000m/h.</desc>
<speed>0.050000</speed>
</trkpt>
<trkpt lat="55.782257" lon="26.347227">
<ele>122.743225</ele>
<time>2010-07-17T09:20:10Z</time>
<desc>lat.=55.782257, lon.=26.347227, Alt.=122.743225m. Speed=0.108000m/h.</desc>
<speed>0.030000</speed>
</trkpt>
<trkpt lat="55.782257" lon="26.347227">
<ele>122.733459</ele>
<time>2010-07-17T09:20:11Z</time>
<desc>lat.=55.782257, lon.=26.347227, Alt.=122.733459m. Speed=0.108000m/h.</desc>
<speed>0.030000</speed>
</trkpt>
<trkpt lat="55.782257" lon="26.347229">
<ele>122.719788</ele>
<time>2010-07-17T09:20:12Z</time>
<desc>lat.=55.782257, lon.=26.347229, Alt.=122.719788m. Speed=0.108000m/h.</desc>
<speed>0.030000</speed>
</trkpt>
<trkpt lat="55.782257" lon="26.347229">
<ele>122.715881</ele>
<time>2010-07-17T09:20:13Z</time>
<desc>lat.=55.782257, lon.=26.347229, Alt.=122.715881m. Speed=0.000000m/h.</desc>
<speed>0.000000</speed>
</trkpt>
<trkpt lat="55.782257" lon="26.347229">
<ele>122.715881</ele>
<time>2010-07-17T09:20:14Z</time>
<desc>lat.=55.782257, lon.=26.347229, Alt.=122.715881m. Speed=0.072000m/h.</desc>
<speed>0.020000</speed>
</trkpt>
<trkpt lat="55.782257" lon="26.347229">
<ele>122.717834</ele>
<time>2010-07-17T09:20:15Z</time>
<desc>lat.=55.782257, lon.=26.347229, Alt.=122.717834m. Speed=0.072000m/h.</desc>
<speed>0.020000</speed>
</trkpt>
<trkpt lat="55.782257" lon="26.347229">
<ele>122.717834</ele>
<time>2010-07-17T09:20:16Z</time>
<desc>lat.=55.782257, lon.=26.347229, Alt.=122.717834m. Speed=0.036000m/h.</desc>
<speed>0.010000</speed>
</trkpt>
<trkpt lat="55.782257" lon="26.347229">
<ele>122.706116</ele>
<time>2010-07-17T09:20:17Z</time>
<desc>lat.=55.782257, lon.=26.347229, Alt.=122.706116m. Speed=0.036000m/h.</desc>
<speed>0.010000</speed>
</trkpt>
<trkpt lat="55.782257" lon="26.347229">
<ele>122.696350</ele>
<time>2010-07-17T09:20:18Z</time>
<desc>lat.=55.782257, lon.=26.347229, Alt.=122.696350m. Speed=0.144000m/h.</desc>
<speed>0.040000</speed>
</trkpt>
<trkpt lat="55.782257" lon="26.347229">
<ele>122.684631</ele>
<time>2010-07-17T09:20:19Z</time>
<desc>lat.=55.782257, lon.=26.347229, Alt.=122.684631m. Speed=0.072000m/h.</desc>
<speed>0.020000</speed>
</trkpt>
<trkpt lat="55.782257" lon="26.347229">
<ele>122.670959</ele>
<time>2010-07-17T09:20:20Z</time>
<desc>lat.=55.782257, lon.=26.347229, Alt.=122.670959m. Speed=0.108000m/h.</desc>
<speed>0.030000</speed>
</trkpt>
<trkpt lat="55.782257" lon="26.347229">
<ele>122.659241</ele>
<time>2010-07-17T09:20:21Z</time>
<desc>lat.=55.782257, lon.=26.347229, Alt.=122.659241m. Speed=0.000000m/h.</desc>
<speed>0.000000</speed>
</trkpt>
<trkpt lat="55.782257" lon="26.347229">
<ele>122.649475</ele>
<time>2010-07-17T09:20:22Z</time>
<desc>lat.=55.782257, lon.=26.347229, Alt.=122.649475m. Speed=0.108000m/h.</desc>
<speed>0.030000</speed>
</trkpt>
<trkpt lat="55.782257" lon="26.347229">
<ele>122.643616</ele>
<time>2010-07-17T09:20:23Z</time>
<desc>lat.=55.782257, lon.=26.347229, Alt.=122.643616m. Speed=0.036000m/h.</desc>
<speed>0.010000</speed>
</trkpt>
<trkpt lat="55.782257" lon="26.347229">
<ele>122.631897</ele>
<time>2010-07-17T09:20:24Z</time>
<desc>lat.=55.782257, lon.=26.347229, Alt.=122.631897m. Speed=0.108000m/h.</desc>
<speed>0.030000</speed>
</trkpt>
<trkpt lat="55.782257" lon="26.347231">
<ele>122.629944</ele>
<time>2010-07-17T09:20:25Z</time>
<desc>lat.=55.782257, lon.=26.347231, Alt.=122.629944m. Speed=0.072000m/h.</desc>
<speed>0.020000</speed>
</trkpt>
<trkpt lat="55.782257" lon="26.347231">
<ele>122.612366</ele>
<time>2010-07-17T09:20:26Z</time>
<desc>lat.=55.782257, lon.=26.347231, Alt.=122.612366m. Speed=0.180000m/h.</desc>
<speed>0.050000</speed>
</trkpt>
<trkpt lat="55.782257" lon="26.347231">
<ele>122.604553</ele>
<time>2010-07-17T09:20:27Z</time>
<desc>lat.=55.782257, lon.=26.347231, Alt.=122.604553m. Speed=0.144000m/h.</desc>
<speed>0.040000</speed>
</trkpt>
<trkpt lat="55.782257" lon="26.347231">
<ele>122.600647</ele>
<time>2010-07-17T09:20:28Z</time>
<desc>lat.=55.782257, lon.=26.347231, Alt.=122.600647m. Speed=0.108000m/h.</desc>
<speed>0.030000</speed>
</trkpt>
<trkpt lat="55.782257" lon="26.347231">
<ele>122.592834</ele>
<time>2010-07-17T09:20:29Z</time>
<desc>lat.=55.782257, lon.=26.347231, Alt.=122.592834m. Speed=0.108000m/h.</desc>
<speed>0.030000</speed>
</trkpt>
<trkpt lat="55.782257" lon="26.347231">
<ele>122.575256</ele>
<time>2010-07-17T09:20:30Z</time>
<desc>lat.=55.782257, lon.=26.347231, Alt.=122.575256m. Speed=0.108000m/h.</desc>
<speed>0.030000</speed>
</trkpt>
<trkpt lat="55.782257" lon="26.347231">
<ele>122.563538</ele>
<time>2010-07-17T09:20:31Z</time>
<desc>lat.=55.782257, lon.=26.347231, Alt.=122.563538m. Speed=0.108000m/h.</desc>
<speed>0.030000</speed>
</trkpt>
<trkpt lat="55.782257" lon="26.347233">
<ele>122.559631</ele>
<time>2010-07-17T09:20:32Z</time>
<desc>lat.=55.782257, lon.=26.347233, Alt.=122.559631m. Speed=0.000000m/h.</desc>
<speed>0.000000</speed>
</trkpt>
<trkpt lat="55.782261" lon="26.347233">
<ele>122.549866</ele>
<time>2010-07-17T09:20:33Z</time>
<desc>lat.=55.782261, lon.=26.347233, Alt.=122.549866m. Speed=0.036000m/h.</desc>
<speed>0.010000</speed>
</trkpt>
<trkpt lat="55.782261" lon="26.347233">
<ele>122.549866</ele>
<time>2010-07-17T09:20:34Z</time>
<desc>lat.=55.782261, lon.=26.347233, Alt.=122.549866m. Speed=0.000000m/h.</desc>
<speed>0.000000</speed>
</trkpt>
<trkpt lat="55.782261" lon="26.347233">
<ele>122.551819</ele>
<time>2010-07-17T09:20:35Z</time>
<desc>lat.=55.782261, lon.=26.347233, Alt.=122.551819m. Speed=0.072000m/h.</desc>
<speed>0.020000</speed>
</trkpt>
<trkpt lat="55.782257" lon="26.347233">
<ele>122.545959</ele>
<time>2010-07-17T09:20:36Z</time>
<desc>lat.=55.782257, lon.=26.347233, Alt.=122.545959m. Speed=0.144000m/h.</desc>
<speed>0.040000</speed>
</trkpt>
<trkpt lat="55.782257" lon="26.347233">
<ele>122.542053</ele>
<time>2010-07-17T09:20:37Z</time>
<desc>lat.=55.782257, lon.=26.347233, Alt.=122.542053m. Speed=0.036000m/h.</desc>
<speed>0.010000</speed>
</trkpt>
<trkpt lat="55.782257" lon="26.347233">
<ele>122.538147</ele>
<time>2010-07-17T09:20:38Z</time>
<desc>lat.=55.782257, lon.=26.347233, Alt.=122.538147m. Speed=0.036000m/h.</desc>
<speed>0.010000</speed>
</trkpt>
<trkpt lat="55.782257" lon="26.347233">
<ele>122.542053</ele>
<time>2010-07-17T09:20:39Z</time>
<desc>lat.=55.782257, lon.=26.347233, Alt.=122.542053m. Speed=0.036000m/h.</desc>
<speed>0.010000</speed>
</trkpt>
<trkpt lat="55.782257" lon="26.347233">
<ele>122.545959</ele>
<time>2010-07-17T09:20:40Z</time>
<desc>lat.=55.782257, lon.=26.347233, Alt.=122.545959m. Speed=0.036000m/h.</desc>
<speed>0.010000</speed>
</trkpt>
<trkpt lat="55.782257" lon="26.347233">
<ele>122.555725</ele>
<time>2010-07-17T09:20:41Z</time>
<desc>lat.=55.782257, lon.=26.347233, Alt.=122.555725m. Speed=0.108000m/h.</desc>
<speed>0.030000</speed>
</trkpt>
<trkpt lat="55.782257" lon="26.347233">
<ele>122.559631</ele>
<time>2010-07-17T09:20:42Z</time>
<desc>lat.=55.782257, lon.=26.347233, Alt.=122.559631m. Speed=0.108000m/h.</desc>
<speed>0.030000</speed>
</trkpt>
<trkpt lat="55.782257" lon="26.347233">
<ele>122.563538</ele>
<time>2010-07-17T09:20:43Z</time>
<desc>lat.=55.782257, lon.=26.347233, Alt.=122.563538m. Speed=0.000000m/h.</desc>
<speed>0.000000</speed>
</trkpt>
<trkpt lat="55.782257" lon="26.347233">
<ele>122.571350</ele>
<time>2010-07-17T09:20:44Z</time>
<desc>lat.=55.782257, lon.=26.347233, Alt.=122.571350m. Speed=0.108000m/h.</desc>
<speed>0.030000</speed>
</trkpt>
<trkpt lat="55.782257" lon="26.347233">
<ele>122.579163</ele>
<time>2010-07-17T09:20:45Z</time>
<desc>lat.=55.782257, lon.=26.347233, Alt.=122.579163m. Speed=0.036000m/h.</desc>
<speed>0.010000</speed>
</trkpt>
<trkpt lat="55.782257" lon="26.347233">
<ele>122.583069</ele>
<time>2010-07-17T09:20:46Z</time>
<desc>lat.=55.782257, lon.=26.347233, Alt.=122.583069m. Speed=0.036000m/h.</desc>
<speed>0.010000</speed>
</trkpt>
<trkpt lat="55.782257" lon="26.347233">
<ele>122.585022</ele>
<time>2010-07-17T09:20:47Z</time>
<desc>lat.=55.782257, lon.=26.347233, Alt.=122.585022m. Speed=0.036000m/h.</desc>
<speed>0.010000</speed>
</trkpt>
<trkpt lat="55.782257" lon="26.347233">
<ele>122.590881</ele>
<time>2010-07-17T09:20:48Z</time>
<desc>lat.=55.782257, lon.=26.347233, Alt.=122.590881m. Speed=0.000000m/h.</desc>
<speed>0.000000</speed>
</trkpt>
<trkpt lat="55.782257" lon="26.347233">
<ele>122.596741</ele>
<time>2010-07-17T09:20:49Z</time>
<desc>lat.=55.782257, lon.=26.347233, Alt.=122.596741m. Speed=0.000000m/h.</desc>
<speed>0.000000</speed>
</trkpt>
<trkpt lat="55.782257" lon="26.347233">
<ele>122.600647</ele>
<time>2010-07-17T09:20:50Z</time>
<desc>lat.=55.782257, lon.=26.347233, Alt.=122.600647m. Speed=0.072000m/h.</desc>
<speed>0.020000</speed>
</trkpt>
<trkpt lat="55.782257" lon="26.347233">
<ele>122.608459</ele>
<time>2010-07-17T09:20:51Z</time>
<desc>lat.=55.782257, lon.=26.347233, Alt.=122.608459m. Speed=0.108000m/h.</desc>
<speed>0.030000</speed>
</trkpt>
<trkpt lat="55.782257" lon="26.347233">
<ele>122.612366</ele>
<time>2010-07-17T09:20:52Z</time>
<desc>lat.=55.782257, lon.=26.347233, Alt.=122.612366m. Speed=0.144000m/h.</desc>
<speed>0.040000</speed>
</trkpt>
<trkpt lat="55.782257" lon="26.347233">
<ele>122.614319</ele>
<time>2010-07-17T09:20:53Z</time>
<desc>lat.=55.782257, lon.=26.347233, Alt.=122.614319m. Speed=0.036000m/h.</desc>
<speed>0.010000</speed>
</trkpt>
<trkpt lat="55.782257" lon="26.347235">
<ele>122.612366</ele>
<time>2010-07-17T09:20:54Z</time>
<desc>lat.=55.782257, lon.=26.347235, Alt.=122.612366m. Speed=0.036000m/h.</desc>
<speed>0.010000</speed>
</trkpt>
<trkpt lat="55.782257" lon="26.347235">
<ele>122.616272</ele>
<time>2010-07-17T09:20:55Z</time>
<desc>lat.=55.782257, lon.=26.347235, Alt.=122.616272m. Speed=0.000000m/h.</desc>
<speed>0.000000</speed>
</trkpt>
<trkpt lat="55.782257" lon="26.347235">
<ele>122.608459</ele>
<time>2010-07-17T09:20:56Z</time>
<desc>lat.=55.782257, lon.=26.347235, Alt.=122.608459m. Speed=0.036000m/h.</desc>
<speed>0.010000</speed>
</trkpt>
<trkpt lat="55.782257" lon="26.347235">
<ele>122.602600</ele>
<time>2010-07-17T09:20:57Z</time>
<desc>lat.=55.782257, lon.=26.347235, Alt.=122.602600m. Speed=0.036000m/h.</desc>
<speed>0.010000</speed>
</trkpt>
<trkpt lat="55.782257" lon="26.347235">
<ele>122.594788</ele>
<time>2010-07-17T09:20:58Z</time>
<desc>lat.=55.782257, lon.=26.347235, Alt.=122.594788m. Speed=0.000000m/h.</desc>
<speed>0.000000</speed>
</trkpt>
<trkpt lat="55.782257" lon="26.347235">
<ele>122.596741</ele>
<time>2010-07-17T09:20:59Z</time>
<desc>lat.=55.782257, lon.=26.347235, Alt.=122.596741m. Speed=0.000000m/h.</desc>
<speed>0.000000</speed>
</trkpt>
<trkpt lat="55.782257" lon="26.347235">
<ele>122.586975</ele>
<time>2010-07-17T09:21:00Z</time>
<desc>lat.=55.782257, lon.=26.347235, Alt.=122.586975m. Speed=0.036000m/h.</desc>
<speed>0.010000</speed>
</trkpt>
<trkpt lat="55.782257" lon="26.347235">
<ele>122.586975</ele>
<time>2010-07-17T09:21:01Z</time>
<desc>lat.=55.782257, lon.=26.347235, Alt.=122.586975m. Speed=0.000000m/h.</desc>
<speed>0.000000</speed>
</trkpt>
<trkpt lat="55.782257" lon="26.347235">
<ele>122.581116</ele>
<time>2010-07-17T09:21:02Z</time>
<desc>lat.=55.782257, lon.=26.347235, Alt.=122.581116m. Speed=0.036000m/h.</desc>
<speed>0.010000</speed>
</trkpt>
<trkpt lat="55.782257" lon="26.347235">
<ele>122.581116</ele>
<time>2010-07-17T09:21:03Z</time>
<desc>lat.=55.782257, lon.=26.347235, Alt.=122.581116m. Speed=0.000000m/h.</desc>
<speed>0.000000</speed>
</trkpt>
<trkpt lat="55.782257" lon="26.347235">
<ele>122.592834</ele>
<time>2010-07-17T09:21:04Z</time>
<desc>lat.=55.782257, lon.=26.347235, Alt.=122.592834m. Speed=0.144000m/h.</desc>
<speed>0.040000</speed>
</trkpt>
<trkpt lat="55.782257" lon="26.347233">
<ele>122.639709</ele>
<time>2010-07-17T09:21:05Z</time>
<desc>lat.=55.782257, lon.=26.347233, Alt.=122.639709m. Speed=0.252000m/h.</desc>
<speed>0.070000</speed>
</trkpt>
<trkpt lat="55.782257" lon="26.347233">
<ele>122.676819</ele>
<time>2010-07-17T09:21:06Z</time>
<desc>lat.=55.782257, lon.=26.347233, Alt.=122.676819m. Speed=0.072000m/h.</desc>
<speed>0.020000</speed>
</trkpt>
<trkpt lat="55.782257" lon="26.347233">
<ele>122.733459</ele>
<time>2010-07-17T09:21:07Z</time>
<desc>lat.=55.782257, lon.=26.347233, Alt.=122.733459m. Speed=0.000000m/h.</desc>
<speed>0.000000</speed>
</trkpt>
<trkpt lat="55.782257" lon="26.347235">
<ele>122.770569</ele>
<time>2010-07-17T09:21:08Z</time>
<desc>lat.=55.782257, lon.=26.347235, Alt.=122.770569m. Speed=0.072000m/h.</desc>
<speed>0.020000</speed>
</trkpt>
<trkpt lat="55.782257" lon="26.347233">
<ele>122.813538</ele>
<time>2010-07-17T09:21:09Z</time>
<desc>lat.=55.782257, lon.=26.347233, Alt.=122.813538m. Speed=0.000000m/h.</desc>
<speed>0.000000</speed>
</trkpt>
<trkpt lat="55.782257" lon="26.347233">
<ele>122.817444</ele>
<time>2010-07-17T09:21:10Z</time>
<desc>lat.=55.782257, lon.=26.347233, Alt.=122.817444m. Speed=0.000000m/h.</desc>
<speed>0.000000</speed>
</trkpt>
<trkpt lat="55.782257" lon="26.347235">
<ele>122.821350</ele>
<time>2010-07-17T09:21:11Z</time>
<desc>lat.=55.782257, lon.=26.347235, Alt.=122.821350m. Speed=0.036000m/h.</desc>
<speed>0.010000</speed>
</trkpt>
<trkpt lat="55.782257" lon="26.347235">
<ele>122.821350</ele>
<time>2010-07-17T09:21:12Z</time>
<desc>lat.=55.782257, lon.=26.347235, Alt.=122.821350m. Speed=0.072000m/h.</desc>
<speed>0.020000</speed>
</trkpt>
<trkpt lat="55.782257" lon="26.347235">
<ele>122.827209</ele>
<time>2010-07-17T09:21:13Z</time>
<desc>lat.=55.782257, lon.=26.347235, Alt.=122.827209m. Speed=0.036000m/h.</desc>
<speed>0.010000</speed>
</trkpt>
<trkpt lat="55.782257" lon="26.347235">
<ele>122.840881</ele>
<time>2010-07-17T09:21:14Z</time>
<desc>lat.=55.782257, lon.=26.347235, Alt.=122.840881m. Speed=0.108000m/h.</desc>
<speed>0.030000</speed>
</trkpt>
<trkpt lat="55.782257" lon="26.347235">
<ele>122.850647</ele>
<time>2010-07-17T09:21:15Z</time>
<desc>lat.=55.782257, lon.=26.347235, Alt.=122.850647m. Speed=0.108000m/h.</desc>
<speed>0.030000</speed>
</trkpt>
<trkpt lat="55.782257" lon="26.347235">
<ele>122.856506</ele>
<time>2010-07-17T09:21:16Z</time>
<desc>lat.=55.782257, lon.=26.347235, Alt.=122.856506m. Speed=0.216000m/h.</desc>
<speed>0.060000</speed>
</trkpt>
<trkpt lat="55.782257" lon="26.347235">
<ele>122.862366</ele>
<time>2010-07-17T09:21:17Z</time>
<desc>lat.=55.782257, lon.=26.347235, Alt.=122.862366m. Speed=0.036000m/h.</desc>
<speed>0.010000</speed>
</trkpt>
<trkpt lat="55.782257" lon="26.347235">
<ele>122.874084</ele>
<time>2010-07-17T09:21:18Z</time>
<desc>lat.=55.782257, lon.=26.347235, Alt.=122.874084m. Speed=0.324000m/h.</desc>
<speed>0.090000</speed>
</trkpt>
<trkpt lat="55.782257" lon="26.347235">
<ele>122.879944</ele>
<time>2010-07-17T09:21:19Z</time>
<desc>lat.=55.782257, lon.=26.347235, Alt.=122.879944m. Speed=0.144000m/h.</desc>
<speed>0.040000</speed>
</trkpt>
<trkpt lat="55.782257" lon="26.347235">
<ele>122.911194</ele>
<time>2010-07-17T09:21:20Z</time>
<desc>lat.=55.782257, lon.=26.347235, Alt.=122.911194m. Speed=0.216000m/h.</desc>
<speed>0.060000</speed>
</trkpt>
<trkpt lat="55.782257" lon="26.347237">
<ele>122.917053</ele>
<time>2010-07-17T09:21:21Z</time>
<desc>lat.=55.782257, lon.=26.347237, Alt.=122.917053m. Speed=0.036000m/h.</desc>
<speed>0.010000</speed>
</trkpt>
<trkpt lat="55.782257" lon="26.347235">
<ele>122.948303</ele>
<time>2010-07-17T09:21:22Z</time>
<desc>lat.=55.782257, lon.=26.347235, Alt.=122.948303m. Speed=0.036000m/h.</desc>
<speed>0.010000</speed>
</trkpt>
<trkpt lat="55.782257" lon="26.347235">
<ele>122.975647</ele>
<time>2010-07-17T09:21:23Z</time>
<desc>lat.=55.782257, lon.=26.347235, Alt.=122.975647m. Speed=0.108000m/h.</desc>
<speed>0.030000</speed>
</trkpt>
<trkpt lat="55.782257" lon="26.347235">
<ele>122.983459</ele>
<time>2010-07-17T09:21:24Z</time>
<desc>lat.=55.782257, lon.=26.347235, Alt.=122.983459m. Speed=0.072000m/h.</desc>
<speed>0.020000</speed>
</trkpt>
<trkpt lat="55.782257" lon="26.347235">
<ele>122.981506</ele>
<time>2010-07-17T09:21:25Z</time>
<desc>lat.=55.782257, lon.=26.347235, Alt.=122.981506m. Speed=0.036000m/h.</desc>
<speed>0.010000</speed>
</trkpt>
<trkpt lat="55.782261" lon="26.347235">
<ele>122.979553</ele>
<time>2010-07-17T09:21:26Z</time>
<desc>lat.=55.782261, lon.=26.347235, Alt.=122.979553m. Speed=0.072000m/h.</desc>
<speed>0.020000</speed>
</trkpt>
<trkpt lat="55.782261" lon="26.347235">
<ele>122.979553</ele>
<time>2010-07-17T09:21:27Z</time>
<desc>lat.=55.782261, lon.=26.347235, Alt.=122.979553m. Speed=0.036000m/h.</desc>
<speed>0.010000</speed>
</trkpt>
<trkpt lat="55.782261" lon="26.347235">
<ele>122.993225</ele>
<time>2010-07-17T09:21:28Z</time>
<desc>lat.=55.782261, lon.=26.347235, Alt.=122.993225m. Speed=0.108000m/h.</desc>
<speed>0.030000</speed>
</trkpt>
<trkpt lat="55.782261" lon="26.347235">
<ele>123.001038</ele>
<time>2010-07-17T09:21:29Z</time>
<desc>lat.=55.782261, lon.=26.347235, Alt.=123.001038m. Speed=0.000000m/h.</desc>
<speed>0.000000</speed>
</trkpt>
<trkpt lat="55.782261" lon="26.347237">
<ele>123.002991</ele>
<time>2010-07-17T09:21:30Z</time>
<desc>lat.=55.782261, lon.=26.347237, Alt.=123.002991m. Speed=0.000000m/h.</desc>
<speed>0.000000</speed>
</trkpt>
<trkpt lat="55.782261" lon="26.347237">
<ele>122.999084</ele>
<time>2010-07-17T09:21:31Z</time>
<desc>lat.=55.782261, lon.=26.347237, Alt.=122.999084m. Speed=0.072000m/h.</desc>
<speed>0.020000</speed>
</trkpt>
<trkpt lat="55.782261" lon="26.347237">
<ele>123.002991</ele>
<time>2010-07-17T09:21:32Z</time>
<desc>lat.=55.782261, lon.=26.347237, Alt.=123.002991m. Speed=0.180000m/h.</desc>
<speed>0.050000</speed>
</trkpt>
<trkpt lat="55.782261" lon="26.347237">
<ele>123.018616</ele>
<time>2010-07-17T09:21:33Z</time>
<desc>lat.=55.782261, lon.=26.347237, Alt.=123.018616m. Speed=0.108000m/h.</desc>
<speed>0.030000</speed>
</trkpt>
<trkpt lat="55.782261" lon="26.347237">
<ele>123.030334</ele>
<time>2010-07-17T09:21:34Z</time>
<desc>lat.=55.782261, lon.=26.347237, Alt.=123.030334m. Speed=0.108000m/h.</desc>
<speed>0.030000</speed>
</trkpt>
<trkpt lat="55.782261" lon="26.347235">
<ele>123.036194</ele>
<time>2010-07-17T09:21:35Z</time>
<desc>lat.=55.782261, lon.=26.347235, Alt.=123.036194m. Speed=0.108000m/h.</desc>
<speed>0.030000</speed>
</trkpt>
<trkpt lat="55.782261" lon="26.347237">
<ele>123.044006</ele>
<time>2010-07-17T09:21:36Z</time>
<desc>lat.=55.782261, lon.=26.347237, Alt.=123.044006m. Speed=0.324000m/h.</desc>
<speed>0.090000</speed>
</trkpt>
<trkpt lat="55.782261" lon="26.347239">
<ele>123.057678</ele>
<time>2010-07-17T09:21:37Z</time>
<desc>lat.=55.782261, lon.=26.347239, Alt.=123.057678m. Speed=0.576000m/h.</desc>
<speed>0.160000</speed>
</trkpt>
<trkpt lat="55.782261" lon="26.347240">
<ele>123.069397</ele>
<time>2010-07-17T09:21:38Z</time>
<desc>lat.=55.782261, lon.=26.347240, Alt.=123.069397m. Speed=0.576000m/h.</desc>
<speed>0.160000</speed>
</trkpt>
<trkpt lat="55.782261" lon="26.347242">
<ele>123.079163</ele>
<time>2010-07-17T09:21:39Z</time>
<desc>lat.=55.782261, lon.=26.347242, Alt.=123.079163m. Speed=0.684000m/h.</desc>
<speed>0.190000</speed>
</trkpt>
<trkpt lat="55.782261" lon="26.347246">
<ele>123.090881</ele>
<time>2010-07-17T09:21:40Z</time>
<desc>lat.=55.782261, lon.=26.347246, Alt.=123.090881m. Speed=0.792000m/h.</desc>
<speed>0.220000</speed>
</trkpt>
<trkpt lat="55.782261" lon="26.347250">
<ele>123.110413</ele>
<time>2010-07-17T09:21:41Z</time>
<desc>lat.=55.782261, lon.=26.347250, Alt.=123.110413m. Speed=1.116000m/h.</desc>
<speed>0.310000</speed>
</trkpt>
<trkpt lat="55.782269" lon="26.347254">
<ele>123.317444</ele>
<time>2010-07-17T09:21:42Z</time>
<desc>lat.=55.782269, lon.=26.347254, Alt.=123.317444m. Speed=2.088000m/h.</desc>
<speed>0.580000</speed>
</trkpt>
<trkpt lat="55.782280" lon="26.347267">
<ele>123.567444</ele>
<time>2010-07-17T09:21:43Z</time>
<desc>lat.=55.782280, lon.=26.347267, Alt.=123.567444m. Speed=4.644000m/h.</desc>
<speed>1.290000</speed>
</trkpt>
<trkpt lat="55.782291" lon="26.347277">
<ele>123.932678</ele>
<time>2010-07-17T09:21:44Z</time>
<desc>lat.=55.782291, lon.=26.347277, Alt.=123.932678m. Speed=2.880000m/h.</desc>
<speed>0.800000</speed>
</trkpt>
<trkpt lat="55.782303" lon="26.347301">
<ele>124.370178</ele>
<time>2010-07-17T09:21:45Z</time>
<desc>lat.=55.782303, lon.=26.347301, Alt.=124.370178m. Speed=5.940000m/h.</desc>
<speed>1.650000</speed>
</trkpt>
<trkpt lat="55.782310" lon="26.347324">
<ele>124.674866</ele>
<time>2010-07-17T09:21:46Z</time>
<desc>lat.=55.782310, lon.=26.347324, Alt.=124.674866m. Speed=5.940000m/h.</desc>
<speed>1.650000</speed>
</trkpt>
<trkpt lat="55.782326" lon="26.347349">
<ele>124.897522</ele>
<time>2010-07-17T09:21:47Z</time>
<desc>lat.=55.782326, lon.=26.347349, Alt.=124.897522m. Speed=6.912000m/h.</desc>
<speed>1.920000</speed>
</trkpt>
<trkpt lat="55.782349" lon="26.347387">
<ele>125.522522</ele>
<time>2010-07-17T09:21:48Z</time>
<desc>lat.=55.782349, lon.=26.347387, Alt.=125.522522m. Speed=9.504000m/h.</desc>
<speed>2.640000</speed>
</trkpt>
<trkpt lat="55.782372" lon="26.347422">
<ele>125.950256</ele>
<time>2010-07-17T09:21:49Z</time>
<desc>lat.=55.782372, lon.=26.347422, Alt.=125.950256m. Speed=9.432000m/h.</desc>
<speed>2.620000</speed>
</trkpt>
<trkpt lat="55.782391" lon="26.347466">
<ele>126.452209</ele>
<time>2010-07-17T09:21:50Z</time>
<desc>lat.=55.782391, lon.=26.347466, Alt.=126.452209m. Speed=10.800000m/h.</desc>
<speed>3.000000</speed>
</trkpt>
<trkpt lat="55.782413" lon="26.347521">
<ele>127.030334</ele>
<time>2010-07-17T09:21:51Z</time>
<desc>lat.=55.782413, lon.=26.347521, Alt.=127.030334m. Speed=11.448000m/h.</desc>
<speed>3.180000</speed>
</trkpt>
<trkpt lat="55.782452" lon="26.347574">
<ele>128.978638</ele>
<time>2010-07-17T09:21:52Z</time>
<desc>lat.=55.782452, lon.=26.347574, Alt.=128.978638m. Speed=12.456000m/h.</desc>
<speed>3.460000</speed>
</trkpt>
<trkpt lat="55.782478" lon="26.347603">
<ele>130.134888</ele>
<time>2010-07-17T09:21:53Z</time>
<desc>lat.=55.782478, lon.=26.347603, Alt.=130.134888m. Speed=10.440000m/h.</desc>
<speed>2.900000</speed>
</trkpt>
<trkpt lat="55.782497" lon="26.347631">
<ele>130.420044</ele>
<time>2010-07-17T09:21:54Z</time>
<desc>lat.=55.782497, lon.=26.347631, Alt.=130.420044m. Speed=7.128000m/h.</desc>
<speed>1.980000</speed>
</trkpt>
<trkpt lat="55.782516" lon="26.347643">
<ele>130.900513</ele>
<time>2010-07-17T09:21:55Z</time>
<desc>lat.=55.782516, lon.=26.347643, Alt.=130.900513m. Speed=7.200000m/h.</desc>
<speed>2.000000</speed>
</trkpt>
<trkpt lat="55.782539" lon="26.347675">
<ele>131.630981</ele>
<time>2010-07-17T09:21:56Z</time>
<desc>lat.=55.782539, lon.=26.347675, Alt.=131.630981m. Speed=7.560000m/h.</desc>
<speed>2.100000</speed>
</trkpt>
<trkpt lat="55.782566" lon="26.347708">
<ele>131.982544</ele>
<time>2010-07-17T09:21:57Z</time>
<desc>lat.=55.782566, lon.=26.347708, Alt.=131.982544m. Speed=9.432000m/h.</desc>
<speed>2.620000</speed>
</trkpt>
<trkpt lat="55.782589" lon="26.347727">
<ele>132.607544</ele>
<time>2010-07-17T09:21:58Z</time>
<desc>lat.=55.782589, lon.=26.347727, Alt.=132.607544m. Speed=9.540000m/h.</desc>
<speed>2.650000</speed>
</trkpt>
<trkpt lat="55.782623" lon="26.347748">
<ele>133.295044</ele>
<time>2010-07-17T09:21:59Z</time>
<desc>lat.=55.782623, lon.=26.347748, Alt.=133.295044m. Speed=11.700000m/h.</desc>
<speed>3.250000</speed>
</trkpt>
<trkpt lat="55.782658" lon="26.347771">
<ele>133.611450</ele>
<time>2010-07-17T09:22:00Z</time>
<desc>lat.=55.782658, lon.=26.347771, Alt.=133.611450m. Speed=11.952000m/h.</desc>
<speed>3.320000</speed>
</trkpt>
<trkpt lat="55.782684" lon="26.347784">
<ele>134.127075</ele>
<time>2010-07-17T09:22:01Z</time>
<desc>lat.=55.782684, lon.=26.347784, Alt.=134.127075m. Speed=8.928000m/h.</desc>
<speed>2.480000</speed>
</trkpt>
<trkpt lat="55.782707" lon="26.347786">
<ele>134.752075</ele>
<time>2010-07-17T09:22:02Z</time>
<desc>lat.=55.782707, lon.=26.347786, Alt.=134.752075m. Speed=4.968000m/h.</desc>
<speed>1.380000</speed>
</trkpt>
<trkpt lat="55.782722" lon="26.347799">
<ele>135.365356</ele>
<time>2010-07-17T09:22:03Z</time>
<desc>lat.=55.782722, lon.=26.347799, Alt.=135.365356m. Speed=4.896000m/h.</desc>
<speed>1.360000</speed>
</trkpt>
<trkpt lat="55.782753" lon="26.347818">
<ele>136.302856</ele>
<time>2010-07-17T09:22:04Z</time>
<desc>lat.=55.782753, lon.=26.347818, Alt.=136.302856m. Speed=8.964000m/h.</desc>
<speed>2.490000</speed>
</trkpt>
<trkpt lat="55.782780" lon="26.347837">
<ele>137.130981</ele>
<time>2010-07-17T09:22:05Z</time>
<desc>lat.=55.782780, lon.=26.347837, Alt.=137.130981m. Speed=9.216000m/h.</desc>
<speed>2.560000</speed>
</trkpt>
<trkpt lat="55.782799" lon="26.347866">
<ele>137.853638</ele>
<time>2010-07-17T09:22:06Z</time>
<desc>lat.=55.782799, lon.=26.347866, Alt.=137.853638m. Speed=6.804000m/h.</desc>
<speed>1.890000</speed>
</trkpt>
<trkpt lat="55.782814" lon="26.347897">
<ele>138.189575</ele>
<time>2010-07-17T09:22:07Z</time>
<desc>lat.=55.782814, lon.=26.347897, Alt.=138.189575m. Speed=7.344000m/h.</desc>
<speed>2.040000</speed>
</trkpt>
<trkpt lat="55.782833" lon="26.347923">
<ele>138.861450</ele>
<time>2010-07-17T09:22:08Z</time>
<desc>lat.=55.782833, lon.=26.347923, Alt.=138.861450m. Speed=7.092000m/h.</desc>
<speed>1.970000</speed>
</trkpt>
<trkpt lat="55.782852" lon="26.347940">
<ele>139.420044</ele>
<time>2010-07-17T09:22:09Z</time>
<desc>lat.=55.782852, lon.=26.347940, Alt.=139.420044m. Speed=6.336000m/h.</desc>
<speed>1.760000</speed>
</trkpt>
<trkpt lat="55.782875" lon="26.347965">
<ele>140.173950</ele>
<time>2010-07-17T09:22:10Z</time>
<desc>lat.=55.782875, lon.=26.347965, Alt.=140.173950m. Speed=7.056000m/h.</desc>
<speed>1.960000</speed>
</trkpt>
<trkpt lat="55.782883" lon="26.348005">
<ele>140.689575</ele>
<time>2010-07-17T09:22:11Z</time>
<desc>lat.=55.782883, lon.=26.348005, Alt.=140.689575m. Speed=6.876000m/h.</desc>
<speed>1.910000</speed>
</trkpt>
<trkpt lat="55.782894" lon="26.348042">
<ele>141.634888</ele>
<time>2010-07-17T09:22:12Z</time>
<desc>lat.=55.782894, lon.=26.348042, Alt.=141.634888m. Speed=10.728000m/h.</desc>
<speed>2.980000</speed>
</trkpt>
<trkpt lat="55.782921" lon="26.348089">
<ele>142.232544</ele>
<time>2010-07-17T09:22:13Z</time>
<desc>lat.=55.782921, lon.=26.348089, Alt.=142.232544m. Speed=8.352000m/h.</desc>
<speed>2.320000</speed>
</trkpt>
<trkpt lat="55.782936" lon="26.348131">
<ele>142.584106</ele>
<time>2010-07-17T09:22:14Z</time>
<desc>lat.=55.782936, lon.=26.348131, Alt.=142.584106m. Speed=6.660000m/h.</desc>
<speed>1.850000</speed>
</trkpt>
<trkpt lat="55.782967" lon="26.348167">
<ele>143.435669</ele>
<time>2010-07-17T09:22:15Z</time>
<desc>lat.=55.782967, lon.=26.348167, Alt.=143.435669m. Speed=6.444000m/h.</desc>
<speed>1.790000</speed>
</trkpt>
<trkpt lat="55.783009" lon="26.348240">
<ele>146.810669</ele>
<time>2010-07-17T09:22:16Z</time>
<desc>lat.=55.783009, lon.=26.348240, Alt.=146.810669m. Speed=8.712000m/h.</desc>
<speed>2.420000</speed>
</trkpt>
<trkpt lat="55.783016" lon="26.348293">
<ele>147.134888</ele>
<time>2010-07-17T09:22:17Z</time>
<desc>lat.=55.783016, lon.=26.348293, Alt.=147.134888m. Speed=10.224000m/h.</desc>
<speed>2.840000</speed>
</trkpt>
<trkpt lat="55.783035" lon="26.348381">
<ele>147.713013</ele>
<time>2010-07-17T09:22:18Z</time>
<desc>lat.=55.783035, lon.=26.348381, Alt.=147.713013m. Speed=13.860000m/h.</desc>
<speed>3.850000</speed>
</trkpt>
<trkpt lat="55.783043" lon="26.348440">
<ele>148.310669</ele>
<time>2010-07-17T09:22:19Z</time>
<desc>lat.=55.783043, lon.=26.348440, Alt.=148.310669m. Speed=11.772000m/h.</desc>
<speed>3.270000</speed>
</trkpt>
<trkpt lat="55.783073" lon="26.348516">
<ele>148.025513</ele>
<time>2010-07-17T09:22:20Z</time>
<desc>lat.=55.783073, lon.=26.348516, Alt.=148.025513m. Speed=13.212000m/h.</desc>
<speed>3.670000</speed>
</trkpt>
<trkpt lat="55.783081" lon="26.348574">
<ele>148.541138</ele>
<time>2010-07-17T09:22:21Z</time>
<desc>lat.=55.783081, lon.=26.348574, Alt.=148.541138m. Speed=14.508000m/h.</desc>
<speed>4.030000</speed>
</trkpt>
<trkpt lat="55.783092" lon="26.348656">
<ele>148.588013</ele>
<time>2010-07-17T09:22:22Z</time>
<desc>lat.=55.783092, lon.=26.348656, Alt.=148.588013m. Speed=13.392000m/h.</desc>
<speed>3.720000</speed>
</trkpt>
<trkpt lat="55.783100" lon="26.348757">
<ele>148.013794</ele>
<time>2010-07-17T09:22:23Z</time>
<desc>lat.=55.783100, lon.=26.348757, Alt.=148.013794m. Speed=13.140000m/h.</desc>
<speed>3.650000</speed>
</trkpt>
<trkpt lat="55.783119" lon="26.348841">
<ele>146.685669</ele>
<time>2010-07-17T09:22:24Z</time>
<desc>lat.=55.783119, lon.=26.348841, Alt.=146.685669m. Speed=13.896000m/h.</desc>
<speed>3.860000</speed>
</trkpt>
<trkpt lat="55.783131" lon="26.348921">
<ele>146.529419</ele>
<time>2010-07-17T09:22:25Z</time>
<desc>lat.=55.783131, lon.=26.348921, Alt.=146.529419m. Speed=13.140000m/h.</desc>
<speed>3.650000</speed>
</trkpt>
<trkpt lat="55.783127" lon="26.349020">
<ele>146.084106</ele>
<time>2010-07-17T09:22:26Z</time>
<desc>lat.=55.783127, lon.=26.349020, Alt.=146.084106m. Speed=14.040000m/h.</desc>
<speed>3.900000</speed>
</trkpt>
<trkpt lat="55.783131" lon="26.349092">
<ele>146.759888</ele>
<time>2010-07-17T09:22:27Z</time>
<desc>lat.=55.783131, lon.=26.349092, Alt.=146.759888m. Speed=13.320000m/h.</desc>
<speed>3.700000</speed>
</trkpt>
<trkpt lat="55.783150" lon="26.349157">
<ele>146.142700</ele>
<time>2010-07-17T09:22:28Z</time>
<desc>lat.=55.783150, lon.=26.349157, Alt.=146.142700m. Speed=11.988000m/h.</desc>
<speed>3.330000</speed>
</trkpt>
<trkpt lat="55.783161" lon="26.349218">
<ele>145.873169</ele>
<time>2010-07-17T09:22:29Z</time>
<desc>lat.=55.783161, lon.=26.349218, Alt.=145.873169m. Speed=12.672000m/h.</desc>
<speed>3.520000</speed>
</trkpt>
<trkpt lat="55.783173" lon="26.349289">
<ele>145.408325</ele>
<time>2010-07-17T09:22:30Z</time>
<desc>lat.=55.783173, lon.=26.349289, Alt.=145.408325m. Speed=13.464000m/h.</desc>
<speed>3.740000</speed>
</trkpt>
<trkpt lat="55.783180" lon="26.349373">
<ele>144.763794</ele>
<time>2010-07-17T09:22:31Z</time>
<desc>lat.=55.783180, lon.=26.349373, Alt.=144.763794m. Speed=13.464000m/h.</desc>
<speed>3.740000</speed>
</trkpt>
<trkpt lat="55.783192" lon="26.349442">
<ele>144.127075</ele>
<time>2010-07-17T09:22:32Z</time>
<desc>lat.=55.783192, lon.=26.349442, Alt.=144.127075m. Speed=14.148000m/h.</desc>
<speed>3.930000</speed>
</trkpt>
<trkpt lat="55.783203" lon="26.349529">
<ele>143.463013</ele>
<time>2010-07-17T09:22:33Z</time>
<desc>lat.=55.783203, lon.=26.349529, Alt.=143.463013m. Speed=15.264000m/h.</desc>
<speed>4.240000</speed>
</trkpt>
<trkpt lat="55.783203" lon="26.349628">
<ele>143.224731</ele>
<time>2010-07-17T09:22:34Z</time>
<desc>lat.=55.783203, lon.=26.349628, Alt.=143.224731m. Speed=14.976000m/h.</desc>
<speed>4.160000</speed>
</trkpt>
<trkpt lat="55.783211" lon="26.349699">
<ele>143.752075</ele>
<time>2010-07-17T09:22:35Z</time>
<desc>lat.=55.783211, lon.=26.349699, Alt.=143.752075m. Speed=14.112000m/h.</desc>
<speed>3.920000</speed>
</trkpt>
<trkpt lat="55.783222" lon="26.349777">
<ele>143.416138</ele>
<time>2010-07-17T09:22:36Z</time>
<desc>lat.=55.783222, lon.=26.349777, Alt.=143.416138m. Speed=14.652000m/h.</desc>
<speed>4.070000</speed>
</trkpt>
<trkpt lat="55.783234" lon="26.349848">
<ele>141.709106</ele>
<time>2010-07-17T09:22:37Z</time>
<desc>lat.=55.783234, lon.=26.349848, Alt.=141.709106m. Speed=15.120000m/h.</desc>
<speed>4.200000</speed>
</trkpt>
<trkpt lat="55.783249" lon="26.349924">
<ele>141.486450</ele>
<time>2010-07-17T09:22:38Z</time>
<desc>lat.=55.783249, lon.=26.349924, Alt.=141.486450m. Speed=16.091999m/h.</desc>
<speed>4.470000</speed>
</trkpt>
<trkpt lat="55.783257" lon="26.350004">
<ele>141.482544</ele>
<time>2010-07-17T09:22:39Z</time>
<desc>lat.=55.783257, lon.=26.350004, Alt.=141.482544m. Speed=14.256000m/h.</desc>
<speed>3.960000</speed>
</trkpt>
<trkpt lat="55.783264" lon="26.350063">
<ele>141.838013</ele>
<time>2010-07-17T09:22:40Z</time>
<desc>lat.=55.783264, lon.=26.350063, Alt.=141.838013m. Speed=14.076000m/h.</desc>
<speed>3.910000</speed>
</trkpt>
<trkpt lat="55.783272" lon="26.350126">
<ele>141.880981</ele>
<time>2010-07-17T09:22:41Z</time>
<desc>lat.=55.783272, lon.=26.350126, Alt.=141.880981m. Speed=13.932000m/h.</desc>
<speed>3.870000</speed>
</trkpt>
<trkpt lat="55.783272" lon="26.350195">
<ele>142.341919</ele>
<time>2010-07-17T09:22:42Z</time>
<desc>lat.=55.783272, lon.=26.350195, Alt.=142.341919m. Speed=13.752000m/h.</desc>
<speed>3.820000</speed>
</trkpt>
<trkpt lat="55.783276" lon="26.350260">
<ele>142.466919</ele>
<time>2010-07-17T09:22:43Z</time>
<desc>lat.=55.783276, lon.=26.350260, Alt.=142.466919m. Speed=13.212000m/h.</desc>
<speed>3.670000</speed>
</trkpt>
<trkpt lat="55.783287" lon="26.350321">
<ele>143.947388</ele>
<time>2010-07-17T09:22:44Z</time>
<desc>lat.=55.783287, lon.=26.350321, Alt.=143.947388m. Speed=11.196000m/h.</desc>
<speed>3.110000</speed>
</trkpt>
<trkpt lat="55.783298" lon="26.350370">
<ele>144.095825</ele>
<time>2010-07-17T09:22:45Z</time>
<desc>lat.=55.783298, lon.=26.350370, Alt.=144.095825m. Speed=11.088000m/h.</desc>
<speed>3.080000</speed>
</trkpt>
<trkpt lat="55.783310" lon="26.350409">
<ele>144.466919</ele>
<time>2010-07-17T09:22:46Z</time>
<desc>lat.=55.783310, lon.=26.350409, Alt.=144.466919m. Speed=7.560000m/h.</desc>
<speed>2.100000</speed>
</trkpt>
<trkpt lat="55.783321" lon="26.350443">
<ele>144.603638</ele>
<time>2010-07-17T09:22:47Z</time>
<desc>lat.=55.783321, lon.=26.350443, Alt.=144.603638m. Speed=7.668000m/h.</desc>
<speed>2.130000</speed>
</trkpt>
<trkpt lat="55.783329" lon="26.350477">
<ele>146.041138</ele>
<time>2010-07-17T09:22:48Z</time>
<desc>lat.=55.783329, lon.=26.350477, Alt.=146.041138m. Speed=7.740000m/h.</desc>
<speed>2.150000</speed>
</trkpt>
<trkpt lat="55.783340" lon="26.350521">
<ele>146.037231</ele>
<time>2010-07-17T09:22:49Z</time>
<desc>lat.=55.783340, lon.=26.350521, Alt.=146.037231m. Speed=9.144000m/h.</desc>
<speed>2.540000</speed>
</trkpt>
<trkpt lat="55.783348" lon="26.350567">
<ele>146.045044</ele>
<time>2010-07-17T09:22:50Z</time>
<desc>lat.=55.783348, lon.=26.350567, Alt.=146.045044m. Speed=7.776000m/h.</desc>
<speed>2.160000</speed>
</trkpt>
<trkpt lat="55.783363" lon="26.350634">
<ele>145.517700</ele>
<time>2010-07-17T09:22:51Z</time>
<desc>lat.=55.783363, lon.=26.350634, Alt.=145.517700m. Speed=10.872000m/h.</desc>
<speed>3.020000</speed>
</trkpt>
<trkpt lat="55.783375" lon="26.350685">
<ele>144.693481</ele>
<time>2010-07-17T09:22:52Z</time>
<desc>lat.=55.783375, lon.=26.350685, Alt.=144.693481m. Speed=10.368000m/h.</desc>
<speed>2.880000</speed>
</trkpt>
<trkpt lat="55.783390" lon="26.350742">
<ele>142.818481</ele>
<time>2010-07-17T09:22:53Z</time>
<desc>lat.=55.783390, lon.=26.350742, Alt.=142.818481m. Speed=10.980000m/h.</desc>
<speed>3.050000</speed>
</trkpt>
<trkpt lat="55.783398" lon="26.350786">
<ele>143.345825</ele>
<time>2010-07-17T09:22:54Z</time>
<desc>lat.=55.783398, lon.=26.350786, Alt.=143.345825m. Speed=8.352000m/h.</desc>
<speed>2.320000</speed>
</trkpt>
<trkpt lat="55.783398" lon="26.350836">
<ele>143.533325</ele>
<time>2010-07-17T09:22:55Z</time>
<desc>lat.=55.783398, lon.=26.350836, Alt.=143.533325m. Speed=9.900000m/h.</desc>
<speed>2.750000</speed>
</trkpt>
<trkpt lat="55.783405" lon="26.350885">
<ele>143.560669</ele>
<time>2010-07-17T09:22:56Z</time>
<desc>lat.=55.783405, lon.=26.350885, Alt.=143.560669m. Speed=9.648000m/h.</desc>
<speed>2.680000</speed>
</trkpt>
<trkpt lat="55.783390" lon="26.350964">
<ele>142.123169</ele>
<time>2010-07-17T09:22:57Z</time>
<desc>lat.=55.783390, lon.=26.350964, Alt.=142.123169m. Speed=9.036000m/h.</desc>
<speed>2.510000</speed>
</trkpt>
<trkpt lat="55.783390" lon="26.351000">
<ele>142.541138</ele>
<time>2010-07-17T09:22:58Z</time>
<desc>lat.=55.783390, lon.=26.351000, Alt.=142.541138m. Speed=6.588000m/h.</desc>
<speed>1.830000</speed>
</trkpt>
<trkpt lat="55.783386" lon="26.351030">
<ele>142.853638</ele>
<time>2010-07-17T09:22:59Z</time>
<desc>lat.=55.783386, lon.=26.351030, Alt.=142.853638m. Speed=5.292000m/h.</desc>
<speed>1.470000</speed>
</trkpt>
<trkpt lat="55.783379" lon="26.351051">
<ele>142.814575</ele>
<time>2010-07-17T09:23:00Z</time>
<desc>lat.=55.783379, lon.=26.351051, Alt.=142.814575m. Speed=5.544000m/h.</desc>
<speed>1.540000</speed>
</trkpt>
<trkpt lat="55.783375" lon="26.351076">
<ele>143.021606</ele>
<time>2010-07-17T09:23:01Z</time>
<desc>lat.=55.783375, lon.=26.351076, Alt.=143.021606m. Speed=7.128000m/h.</desc>
<speed>1.980000</speed>
</trkpt>
<trkpt lat="55.783375" lon="26.351110">
<ele>143.130981</ele>
<time>2010-07-17T09:23:02Z</time>
<desc>lat.=55.783375, lon.=26.351110, Alt.=143.130981m. Speed=8.028000m/h.</desc>
<speed>2.230000</speed>
</trkpt>
<trkpt lat="55.783367" lon="26.351152">
<ele>143.045044</ele>
<time>2010-07-17T09:23:03Z</time>
<desc>lat.=55.783367, lon.=26.351152, Alt.=143.045044m. Speed=7.056000m/h.</desc>
<speed>1.960000</speed>
</trkpt>
<trkpt lat="55.783363" lon="26.351185">
<ele>143.115356</ele>
<time>2010-07-17T09:23:04Z</time>
<desc>lat.=55.783363, lon.=26.351185, Alt.=143.115356m. Speed=6.408000m/h.</desc>
<speed>1.780000</speed>
</trkpt>
<trkpt lat="55.783363" lon="26.351208">
<ele>143.662231</ele>
<time>2010-07-17T09:23:05Z</time>
<desc>lat.=55.783363, lon.=26.351208, Alt.=143.662231m. Speed=5.508000m/h.</desc>
<speed>1.530000</speed>
</trkpt>
<trkpt lat="55.783356" lon="26.351238">
<ele>143.923950</ele>
<time>2010-07-17T09:23:06Z</time>
<desc>lat.=55.783356, lon.=26.351238, Alt.=143.923950m. Speed=7.812000m/h.</desc>
<speed>2.170000</speed>
</trkpt>
<trkpt lat="55.783352" lon="26.351280">
<ele>144.673950</ele>
<time>2010-07-17T09:23:07Z</time>
<desc>lat.=55.783352, lon.=26.351280, Alt.=144.673950m. Speed=12.564000m/h.</desc>
<speed>3.490000</speed>
</trkpt>
<trkpt lat="55.783352" lon="26.351328">
<ele>145.408325</ele>
<time>2010-07-17T09:23:08Z</time>
<desc>lat.=55.783352, lon.=26.351328, Alt.=145.408325m. Speed=11.232000m/h.</desc>
<speed>3.120000</speed>
</trkpt>
<trkpt lat="55.783344" lon="26.351379">
<ele>145.654419</ele>
<time>2010-07-17T09:23:09Z</time>
<desc>lat.=55.783344, lon.=26.351379, Alt.=145.654419m. Speed=11.448000m/h.</desc>
<speed>3.180000</speed>
</trkpt>
<trkpt lat="55.783337" lon="26.351431">
<ele>146.162231</ele>
<time>2010-07-17T09:23:10Z</time>
<desc>lat.=55.783337, lon.=26.351431, Alt.=146.162231m. Speed=11.124000m/h.</desc>
<speed>3.090000</speed>
</trkpt>
<trkpt lat="55.783314" lon="26.351503">
<ele>146.388794</ele>
<time>2010-07-17T09:23:11Z</time>
<desc>lat.=55.783314, lon.=26.351503, Alt.=146.388794m. Speed=12.924000m/h.</desc>
<speed>3.590000</speed>
</trkpt>
<trkpt lat="55.783291" lon="26.351589">
<ele>146.861450</ele>
<time>2010-07-17T09:23:12Z</time>
<desc>lat.=55.783291, lon.=26.351589, Alt.=146.861450m. Speed=13.176000m/h.</desc>
<speed>3.660000</speed>
</trkpt>
<trkpt lat="55.783272" lon="26.351660">
<ele>147.064575</ele>
<time>2010-07-17T09:23:13Z</time>
<desc>lat.=55.783272, lon.=26.351660, Alt.=147.064575m. Speed=14.328000m/h.</desc>
<speed>3.980000</speed>
</trkpt>
<trkpt lat="55.783249" lon="26.351730">
<ele>146.341919</ele>
<time>2010-07-17T09:23:14Z</time>
<desc>lat.=55.783249, lon.=26.351730, Alt.=146.341919m. Speed=12.780000m/h.</desc>
<speed>3.550000</speed>
</trkpt>
<trkpt lat="55.783222" lon="26.351791">
<ele>147.009888</ele>
<time>2010-07-17T09:23:15Z</time>
<desc>lat.=55.783222, lon.=26.351791, Alt.=147.009888m. Speed=13.644000m/h.</desc>
<speed>3.790000</speed>
</trkpt>
<trkpt lat="55.783184" lon="26.351851">
<ele>147.646606</ele>
<time>2010-07-17T09:23:16Z</time>
<desc>lat.=55.783184, lon.=26.351851, Alt.=147.646606m. Speed=15.516000m/h.</desc>
<speed>4.310000</speed>
</trkpt>
<trkpt lat="55.783169" lon="26.351910">
<ele>147.439575</ele>
<time>2010-07-17T09:23:17Z</time>
<desc>lat.=55.783169, lon.=26.351910, Alt.=147.439575m. Speed=12.348000m/h.</desc>
<speed>3.430000</speed>
</trkpt>
<trkpt lat="55.783161" lon="26.351978">
<ele>148.646606</ele>
<time>2010-07-17T09:23:18Z</time>
<desc>lat.=55.783161, lon.=26.351978, Alt.=148.646606m. Speed=14.328000m/h.</desc>
<speed>3.980000</speed>
</trkpt>
<trkpt lat="55.783146" lon="26.352049">
<ele>149.130981</ele>
<time>2010-07-17T09:23:19Z</time>
<desc>lat.=55.783146, lon.=26.352049, Alt.=149.130981m. Speed=16.488001m/h.</desc>
<speed>4.580000</speed>
</trkpt>
<trkpt lat="55.783131" lon="26.352116">
<ele>150.021606</ele>
<time>2010-07-17T09:23:20Z</time>
<desc>lat.=55.783131, lon.=26.352116, Alt.=150.021606m. Speed=16.488001m/h.</desc>
<speed>4.580000</speed>
</trkpt>
<trkpt lat="55.783119" lon="26.352182">
<ele>150.982544</ele>
<time>2010-07-17T09:23:21Z</time>
<desc>lat.=55.783119, lon.=26.352182, Alt.=150.982544m. Speed=13.068000m/h.</desc>
<speed>3.630000</speed>
</trkpt>
<trkpt lat="55.783108" lon="26.352243">
<ele>151.029419</ele>
<time>2010-07-17T09:23:22Z</time>
<desc>lat.=55.783108, lon.=26.352243, Alt.=151.029419m. Speed=14.616000m/h.</desc>
<speed>4.060000</speed>
</trkpt>
<trkpt lat="55.783096" lon="26.352301">
<ele>151.287231</ele>
<time>2010-07-17T09:23:23Z</time>
<desc>lat.=55.783096, lon.=26.352301, Alt.=151.287231m. Speed=15.804000m/h.</desc>
<speed>4.390000</speed>
</trkpt>
<trkpt lat="55.783077" lon="26.352371">
<ele>151.459106</ele>
<time>2010-07-17T09:23:24Z</time>
<desc>lat.=55.783077, lon.=26.352371, Alt.=151.459106m. Speed=17.028000m/h.</desc>
<speed>4.730000</speed>
</trkpt>
<trkpt lat="55.783058" lon="26.352444">
<ele>151.724731</ele>
<time>2010-07-17T09:23:25Z</time>
<desc>lat.=55.783058, lon.=26.352444, Alt.=151.724731m. Speed=15.984000m/h.</desc>
<speed>4.440000</speed>
</trkpt>
<trkpt lat="55.783043" lon="26.352509">
<ele>152.181763</ele>
<time>2010-07-17T09:23:26Z</time>
<desc>lat.=55.783043, lon.=26.352509, Alt.=152.181763m. Speed=14.364000m/h.</desc>
<speed>3.990000</speed>
</trkpt>
<trkpt lat="55.783024" lon="26.352570">
<ele>152.244263</ele>
<time>2010-07-17T09:23:27Z</time>
<desc>lat.=55.783024, lon.=26.352570, Alt.=152.244263m. Speed=14.760000m/h.</desc>
<speed>4.100000</speed>
</trkpt>
<trkpt lat="55.783016" lon="26.352627">
<ele>152.939575</ele>
<time>2010-07-17T09:23:28Z</time>
<desc>lat.=55.783016, lon.=26.352627, Alt.=152.939575m. Speed=14.616000m/h.</desc>
<speed>4.060000</speed>
</trkpt>
<trkpt lat="55.783001" lon="26.352692">
<ele>153.244263</ele>
<time>2010-07-17T09:23:29Z</time>
<desc>lat.=55.783001, lon.=26.352692, Alt.=153.244263m. Speed=14.148000m/h.</desc>
<speed>3.930000</speed>
</trkpt>
<trkpt lat="55.782986" lon="26.352757">
<ele>153.572388</ele>
<time>2010-07-17T09:23:30Z</time>
<desc>lat.=55.782986, lon.=26.352757, Alt.=153.572388m. Speed=16.164000m/h.</desc>
<speed>4.490000</speed>
</trkpt>
<trkpt lat="55.782955" lon="26.352819">
<ele>153.845825</ele>
<time>2010-07-17T09:23:31Z</time>
<desc>lat.=55.782955, lon.=26.352819, Alt.=153.845825m. Speed=21.636000m/h.</desc>
<speed>6.010000</speed>
</trkpt>
<trkpt lat="55.782928" lon="26.352890">
<ele>154.306763</ele>
<time>2010-07-17T09:23:32Z</time>
<desc>lat.=55.782928, lon.=26.352890, Alt.=154.306763m. Speed=17.604000m/h.</desc>
<speed>4.890000</speed>
</trkpt>
<trkpt lat="55.782906" lon="26.352957">
<ele>154.775513</ele>
<time>2010-07-17T09:23:33Z</time>
<desc>lat.=55.782906, lon.=26.352957, Alt.=154.775513m. Speed=16.667999m/h.</desc>
<speed>4.630000</speed>
</trkpt>
<trkpt lat="55.782883" lon="26.353020">
<ele>155.068481</ele>
<time>2010-07-17T09:23:34Z</time>
<desc>lat.=55.782883, lon.=26.353020, Alt.=155.068481m. Speed=16.200001m/h.</desc>
<speed>4.500000</speed>
</trkpt>
<trkpt lat="55.782864" lon="26.353077">
<ele>155.408325</ele>
<time>2010-07-17T09:23:35Z</time>
<desc>lat.=55.782864, lon.=26.353077, Alt.=155.408325m. Speed=14.184000m/h.</desc>
<speed>3.940000</speed>
</trkpt>
<trkpt lat="55.782833" lon="26.353140">
<ele>156.283325</ele>
<time>2010-07-17T09:23:36Z</time>
<desc>lat.=55.782833, lon.=26.353140, Alt.=156.283325m. Speed=15.804000m/h.</desc>
<speed>4.390000</speed>
</trkpt>
<trkpt lat="55.782814" lon="26.353212">
<ele>156.716919</ele>
<time>2010-07-17T09:23:37Z</time>
<desc>lat.=55.782814, lon.=26.353212, Alt.=156.716919m. Speed=16.164000m/h.</desc>
<speed>4.490000</speed>
</trkpt>
<trkpt lat="55.782787" lon="26.353292">
<ele>157.802856</ele>
<time>2010-07-17T09:23:38Z</time>
<desc>lat.=55.782787, lon.=26.353292, Alt.=157.802856m. Speed=20.771999m/h.</desc>
<speed>5.770000</speed>
</trkpt>
<trkpt lat="55.782768" lon="26.353365">
<ele>158.451294</ele>
<time>2010-07-17T09:23:39Z</time>
<desc>lat.=55.782768, lon.=26.353365, Alt.=158.451294m. Speed=16.812000m/h.</desc>
<speed>4.670000</speed>
</trkpt>
<trkpt lat="55.782745" lon="26.353439">
<ele>158.845825</ele>
<time>2010-07-17T09:23:40Z</time>
<desc>lat.=55.782745, lon.=26.353439, Alt.=158.845825m. Speed=14.940000m/h.</desc>
<speed>4.150000</speed>
</trkpt>
<trkpt lat="55.782738" lon="26.353500">
<ele>159.298950</ele>
<time>2010-07-17T09:23:41Z</time>
<desc>lat.=55.782738, lon.=26.353500, Alt.=159.298950m. Speed=15.552000m/h.</desc>
<speed>4.320000</speed>
</trkpt>
<trkpt lat="55.782726" lon="26.353567">
<ele>159.088013</ele>
<time>2010-07-17T09:23:42Z</time>
<desc>lat.=55.782726, lon.=26.353567, Alt.=159.088013m. Speed=14.544000m/h.</desc>
<speed>4.040000</speed>
</trkpt>
<trkpt lat="55.782707" lon="26.353636">
<ele>159.779419</ele>
<time>2010-07-17T09:23:43Z</time>
<desc>lat.=55.782707, lon.=26.353636, Alt.=159.779419m. Speed=16.955999m/h.</desc>
<speed>4.710000</speed>
</trkpt>
<trkpt lat="55.782692" lon="26.353708">
<ele>160.314575</ele>
<time>2010-07-17T09:23:44Z</time>
<desc>lat.=55.782692, lon.=26.353708, Alt.=160.314575m. Speed=16.308001m/h.</desc>
<speed>4.530000</speed>
</trkpt>
<trkpt lat="55.782681" lon="26.353786">
<ele>161.002075</ele>
<time>2010-07-17T09:23:45Z</time>
<desc>lat.=55.782681, lon.=26.353786, Alt.=161.002075m. Speed=14.652000m/h.</desc>
<speed>4.070000</speed>
</trkpt>
<trkpt lat="55.782669" lon="26.353851">
<ele>161.056763</ele>
<time>2010-07-17T09:23:46Z</time>
<desc>lat.=55.782669, lon.=26.353851, Alt.=161.056763m. Speed=14.760000m/h.</desc>
<speed>4.100000</speed>
</trkpt>
<trkpt lat="55.782650" lon="26.353907">
<ele>161.002075</ele>
<time>2010-07-17T09:23:47Z</time>
<desc>lat.=55.782650, lon.=26.353907, Alt.=161.002075m. Speed=13.032000m/h.</desc>
<speed>3.620000</speed>
</trkpt>
<trkpt lat="55.782639" lon="26.353968">
<ele>161.029419</ele>
<time>2010-07-17T09:23:48Z</time>
<desc>lat.=55.782639, lon.=26.353968, Alt.=161.029419m. Speed=13.464000m/h.</desc>
<speed>3.740000</speed>
</trkpt>
<trkpt lat="55.782623" lon="26.354033">
<ele>161.318481</ele>
<time>2010-07-17T09:23:49Z</time>
<desc>lat.=55.782623, lon.=26.354033, Alt.=161.318481m. Speed=13.392000m/h.</desc>
<speed>3.720000</speed>
</trkpt>
<trkpt lat="55.782608" lon="26.354097">
<ele>161.642700</ele>
<time>2010-07-17T09:23:50Z</time>
<desc>lat.=55.782608, lon.=26.354097, Alt.=161.642700m. Speed=13.464000m/h.</desc>
<speed>3.740000</speed>
</trkpt>
<trkpt lat="55.782597" lon="26.354168">
<ele>161.666138</ele>
<time>2010-07-17T09:23:51Z</time>
<desc>lat.=55.782597, lon.=26.354168, Alt.=161.666138m. Speed=15.588000m/h.</desc>
<speed>4.330000</speed>
</trkpt>
<trkpt lat="55.782589" lon="26.354242">
<ele>161.978638</ele>
<time>2010-07-17T09:23:52Z</time>
<desc>lat.=55.782589, lon.=26.354242, Alt.=161.978638m. Speed=15.732000m/h.</desc>
<speed>4.370000</speed>
</trkpt>
<trkpt lat="55.782581" lon="26.354300">
<ele>161.916138</ele>
<time>2010-07-17T09:23:53Z</time>
<desc>lat.=55.782581, lon.=26.354300, Alt.=161.916138m. Speed=10.296000m/h.</desc>
<speed>2.860000</speed>
</trkpt>
<trkpt lat="55.782581" lon="26.354355">
<ele>162.076294</ele>
<time>2010-07-17T09:23:54Z</time>
<desc>lat.=55.782581, lon.=26.354355, Alt.=162.076294m. Speed=13.068000m/h.</desc>
<speed>3.630000</speed>
</trkpt>
<trkpt lat="55.782570" lon="26.354414">
<ele>161.802856</ele>
<time>2010-07-17T09:23:55Z</time>
<desc>lat.=55.782570, lon.=26.354414, Alt.=161.802856m. Speed=14.004000m/h.</desc>
<speed>3.890000</speed>
</trkpt>
<trkpt lat="55.782558" lon="26.354479">
<ele>162.420044</ele>
<time>2010-07-17T09:23:56Z</time>
<desc>lat.=55.782558, lon.=26.354479, Alt.=162.420044m. Speed=13.248000m/h.</desc>
<speed>3.680000</speed>
</trkpt>
<trkpt lat="55.782536" lon="26.354536">
<ele>163.240356</ele>
<time>2010-07-17T09:23:57Z</time>
<desc>lat.=55.782536, lon.=26.354536, Alt.=163.240356m. Speed=13.824000m/h.</desc>
<speed>3.840000</speed>
</trkpt>
<trkpt lat="55.782516" lon="26.354584">
<ele>163.634888</ele>
<time>2010-07-17T09:23:58Z</time>
<desc>lat.=55.782516, lon.=26.354584, Alt.=163.634888m. Speed=12.708000m/h.</desc>
<speed>3.530000</speed>
</trkpt>
<trkpt lat="55.782497" lon="26.354639">
<ele>164.291138</ele>
<time>2010-07-17T09:23:59Z</time>
<desc>lat.=55.782497, lon.=26.354639, Alt.=164.291138m. Speed=11.556000m/h.</desc>
<speed>3.210000</speed>
</trkpt>
<trkpt lat="55.782478" lon="26.354691">
<ele>164.603638</ele>
<time>2010-07-17T09:24:00Z</time>
<desc>lat.=55.782478, lon.=26.354691, Alt.=164.603638m. Speed=10.728000m/h.</desc>
<speed>2.980000</speed>
</trkpt>
<trkpt lat="55.782455" lon="26.354752">
<ele>163.599731</ele>
<time>2010-07-17T09:24:01Z</time>
<desc>lat.=55.782455, lon.=26.354752, Alt.=163.599731m. Speed=11.988000m/h.</desc>
<speed>3.330000</speed>
</trkpt>
<trkpt lat="55.782429" lon="26.354801">
<ele>162.752075</ele>
<time>2010-07-17T09:24:02Z</time>
<desc>lat.=55.782429, lon.=26.354801, Alt.=162.752075m. Speed=13.428000m/h.</desc>
<speed>3.730000</speed>
</trkpt>
<trkpt lat="55.782413" lon="26.354847">
<ele>163.713013</ele>
<time>2010-07-17T09:24:03Z</time>
<desc>lat.=55.782413, lon.=26.354847, Alt.=163.713013m. Speed=12.420000m/h.</desc>
<speed>3.450000</speed>
</trkpt>
<trkpt lat="55.782402" lon="26.354897">
<ele>163.240356</ele>
<time>2010-07-17T09:24:04Z</time>
<desc>lat.=55.782402, lon.=26.354897, Alt.=163.240356m. Speed=9.936000m/h.</desc>
<speed>2.760000</speed>
</trkpt>
<trkpt lat="55.782391" lon="26.354940">
<ele>163.060669</ele>
<time>2010-07-17T09:24:05Z</time>
<desc>lat.=55.782391, lon.=26.354940, Alt.=163.060669m. Speed=11.052000m/h.</desc>
<speed>3.070000</speed>
</trkpt>
<trkpt lat="55.782372" lon="26.354990">
<ele>163.295044</ele>
<time>2010-07-17T09:24:06Z</time>
<desc>lat.=55.782372, lon.=26.354990, Alt.=163.295044m. Speed=11.808000m/h.</desc>
<speed>3.280000</speed>
</trkpt>
<trkpt lat="55.782356" lon="26.355036">
<ele>163.818481</ele>
<time>2010-07-17T09:24:07Z</time>
<desc>lat.=55.782356, lon.=26.355036, Alt.=163.818481m. Speed=10.188000m/h.</desc>
<speed>2.830000</speed>
</trkpt>
<trkpt lat="55.782341" lon="26.355089">
<ele>163.947388</ele>
<time>2010-07-17T09:24:08Z</time>
<desc>lat.=55.782341, lon.=26.355089, Alt.=163.947388m. Speed=12.168000m/h.</desc>
<speed>3.380000</speed>
</trkpt>
<trkpt lat="55.782326" lon="26.355143">
<ele>163.990356</ele>
<time>2010-07-17T09:24:09Z</time>
<desc>lat.=55.782326, lon.=26.355143, Alt.=163.990356m. Speed=11.556000m/h.</desc>
<speed>3.210000</speed>
</trkpt>
<trkpt lat="55.782307" lon="26.355196">
<ele>162.880981</ele>
<time>2010-07-17T09:24:10Z</time>
<desc>lat.=55.782307, lon.=26.355196, Alt.=162.880981m. Speed=13.428000m/h.</desc>
<speed>3.730000</speed>
</trkpt>
<trkpt lat="55.782288" lon="26.355261">
<ele>160.615356</ele>
<time>2010-07-17T09:24:11Z</time>
<desc>lat.=55.782288, lon.=26.355261, Alt.=160.615356m. Speed=13.788000m/h.</desc>
<speed>3.830000</speed>
</trkpt>
<trkpt lat="55.782269" lon="26.355328">
<ele>159.091919</ele>
<time>2010-07-17T09:24:12Z</time>
<desc>lat.=55.782269, lon.=26.355328, Alt.=159.091919m. Speed=15.012000m/h.</desc>
<speed>4.170000</speed>
</trkpt>
<trkpt lat="55.782249" lon="26.355394">
<ele>158.787231</ele>
<time>2010-07-17T09:24:13Z</time>
<desc>lat.=55.782249, lon.=26.355394, Alt.=158.787231m. Speed=14.976000m/h.</desc>
<speed>4.160000</speed>
</trkpt>
<trkpt lat="55.782230" lon="26.355461">
<ele>158.959106</ele>
<time>2010-07-17T09:24:14Z</time>
<desc>lat.=55.782230, lon.=26.355461, Alt.=158.959106m. Speed=15.516000m/h.</desc>
<speed>4.310000</speed>
</trkpt>
<trkpt lat="55.782207" lon="26.355534">
<ele>157.334106</ele>
<time>2010-07-17T09:24:15Z</time>
<desc>lat.=55.782207, lon.=26.355534, Alt.=157.334106m. Speed=16.379999m/h.</desc>
<speed>4.550000</speed>
</trkpt>
<trkpt lat="55.782192" lon="26.355600">
<ele>157.396606</ele>
<time>2010-07-17T09:24:16Z</time>
<desc>lat.=55.782192, lon.=26.355600, Alt.=157.396606m. Speed=16.164000m/h.</desc>
<speed>4.490000</speed>
</trkpt>
<trkpt lat="55.782173" lon="26.355671">
<ele>156.775513</ele>
<time>2010-07-17T09:24:17Z</time>
<desc>lat.=55.782173, lon.=26.355671, Alt.=156.775513m. Speed=16.812000m/h.</desc>
<speed>4.670000</speed>
</trkpt>
<trkpt lat="55.782150" lon="26.355736">
<ele>156.134888</ele>
<time>2010-07-17T09:24:18Z</time>
<desc>lat.=55.782150, lon.=26.355736, Alt.=156.134888m. Speed=15.840000m/h.</desc>
<speed>4.400000</speed>
</trkpt>
<trkpt lat="55.782139" lon="26.355787">
<ele>156.857544</ele>
<time>2010-07-17T09:24:19Z</time>
<desc>lat.=55.782139, lon.=26.355787, Alt.=156.857544m. Speed=10.656000m/h.</desc>
<speed>2.960000</speed>
</trkpt>
<trkpt lat="55.782127" lon="26.355843">
<ele>156.548950</ele>
<time>2010-07-17T09:24:20Z</time>
<desc>lat.=55.782127, lon.=26.355843, Alt.=156.548950m. Speed=14.508000m/h.</desc>
<speed>4.030000</speed>
</trkpt>
<trkpt lat="55.782108" lon="26.355904">
<ele>156.068481</ele>
<time>2010-07-17T09:24:21Z</time>
<desc>lat.=55.782108, lon.=26.355904, Alt.=156.068481m. Speed=15.048000m/h.</desc>
<speed>4.180000</speed>
</trkpt>
<trkpt lat="55.782093" lon="26.355970">
<ele>156.103638</ele>
<time>2010-07-17T09:24:22Z</time>
<desc>lat.=55.782093, lon.=26.355970, Alt.=156.103638m. Speed=13.644000m/h.</desc>
<speed>3.790000</speed>
</trkpt>
<trkpt lat="55.782078" lon="26.356033">
<ele>156.201294</ele>
<time>2010-07-17T09:24:23Z</time>
<desc>lat.=55.782078, lon.=26.356033, Alt.=156.201294m. Speed=12.924000m/h.</desc>
<speed>3.590000</speed>
</trkpt>
<trkpt lat="55.782066" lon="26.356087">
<ele>155.998169</ele>
<time>2010-07-17T09:24:24Z</time>
<desc>lat.=55.782066, lon.=26.356087, Alt.=155.998169m. Speed=13.356000m/h.</desc>
<speed>3.710000</speed>
</trkpt>
<trkpt lat="55.782051" lon="26.356148">
<ele>156.021606</ele>
<time>2010-07-17T09:24:25Z</time>
<desc>lat.=55.782051, lon.=26.356148, Alt.=156.021606m. Speed=13.824000m/h.</desc>
<speed>3.840000</speed>
</trkpt>
<trkpt lat="55.782036" lon="26.356205">
<ele>156.228638</ele>
<time>2010-07-17T09:24:26Z</time>
<desc>lat.=55.782036, lon.=26.356205, Alt.=156.228638m. Speed=12.240000m/h.</desc>
<speed>3.400000</speed>
</trkpt>
<trkpt lat="55.782021" lon="26.356256">
<ele>156.412231</ele>
<time>2010-07-17T09:24:27Z</time>
<desc>lat.=55.782021, lon.=26.356256, Alt.=156.412231m. Speed=12.636000m/h.</desc>
<speed>3.510000</speed>
</trkpt>
<trkpt lat="55.782009" lon="26.356310">
<ele>156.119263</ele>
<time>2010-07-17T09:24:28Z</time>
<desc>lat.=55.782009, lon.=26.356310, Alt.=156.119263m. Speed=13.644000m/h.</desc>
<speed>3.790000</speed>
</trkpt>
<trkpt lat="55.781994" lon="26.356371">
<ele>155.849731</ele>
<time>2010-07-17T09:24:29Z</time>
<desc>lat.=55.781994, lon.=26.356371, Alt.=155.849731m. Speed=13.536000m/h.</desc>
<speed>3.760000</speed>
</trkpt>
<trkpt lat="55.781971" lon="26.356424">
<ele>156.170044</ele>
<time>2010-07-17T09:24:30Z</time>
<desc>lat.=55.781971, lon.=26.356424, Alt.=156.170044m. Speed=12.636000m/h.</desc>
<speed>3.510000</speed>
</trkpt>
<trkpt lat="55.781952" lon="26.356485">
<ele>155.900513</ele>
<time>2010-07-17T09:24:31Z</time>
<desc>lat.=55.781952, lon.=26.356485, Alt.=155.900513m. Speed=14.796000m/h.</desc>
<speed>4.110000</speed>
</trkpt>
<trkpt lat="55.781937" lon="26.356550">
<ele>156.521606</ele>
<time>2010-07-17T09:24:32Z</time>
<desc>lat.=55.781937, lon.=26.356550, Alt.=156.521606m. Speed=14.472000m/h.</desc>
<speed>4.020000</speed>
</trkpt>
<trkpt lat="55.781921" lon="26.356625">
<ele>155.916138</ele>
<time>2010-07-17T09:24:33Z</time>
<desc>lat.=55.781921, lon.=26.356625, Alt.=155.916138m. Speed=15.588000m/h.</desc>
<speed>4.330000</speed>
</trkpt>
<trkpt lat="55.781910" lon="26.356691">
<ele>156.650513</ele>
<time>2010-07-17T09:24:34Z</time>
<desc>lat.=55.781910, lon.=26.356691, Alt.=156.650513m. Speed=15.156000m/h.</desc>
<speed>4.210000</speed>
</trkpt>
<trkpt lat="55.781891" lon="26.356754">
<ele>156.951294</ele>
<time>2010-07-17T09:24:35Z</time>
<desc>lat.=55.781891, lon.=26.356754, Alt.=156.951294m. Speed=15.336000m/h.</desc>
<speed>4.260000</speed>
</trkpt>
<trkpt lat="55.781872" lon="26.356817">
<ele>157.213013</ele>
<time>2010-07-17T09:24:36Z</time>
<desc>lat.=55.781872, lon.=26.356817, Alt.=157.213013m. Speed=15.048000m/h.</desc>
<speed>4.180000</speed>
</trkpt>
<trkpt lat="55.781857" lon="26.356884">
<ele>156.795044</ele>
<time>2010-07-17T09:24:37Z</time>
<desc>lat.=55.781857, lon.=26.356884, Alt.=156.795044m. Speed=14.436000m/h.</desc>
<speed>4.010000</speed>
</trkpt>
<trkpt lat="55.781834" lon="26.356945">
<ele>156.048950</ele>
<time>2010-07-17T09:24:38Z</time>
<desc>lat.=55.781834, lon.=26.356945, Alt.=156.048950m. Speed=12.888000m/h.</desc>
<speed>3.580000</speed>
</trkpt>
<trkpt lat="55.781822" lon="26.357000">
<ele>155.880981</ele>
<time>2010-07-17T09:24:39Z</time>
<desc>lat.=55.781822, lon.=26.357000, Alt.=155.880981m. Speed=12.492000m/h.</desc>
<speed>3.470000</speed>
</trkpt>
<trkpt lat="55.781807" lon="26.357048">
<ele>156.056763</ele>
<time>2010-07-17T09:24:40Z</time>
<desc>lat.=55.781807, lon.=26.357048, Alt.=156.056763m. Speed=11.916000m/h.</desc>
<speed>3.310000</speed>
</trkpt>
<trkpt lat="55.781792" lon="26.357096">
<ele>155.849731</ele>
<time>2010-07-17T09:24:41Z</time>
<desc>lat.=55.781792, lon.=26.357096, Alt.=155.849731m. Speed=11.952000m/h.</desc>
<speed>3.320000</speed>
</trkpt>
<trkpt lat="55.781776" lon="26.357141">
<ele>155.646606</ele>
<time>2010-07-17T09:24:42Z</time>
<desc>lat.=55.781776, lon.=26.357141, Alt.=155.646606m. Speed=10.584000m/h.</desc>
<speed>2.940000</speed>
</trkpt>
<trkpt lat="55.781765" lon="26.357185">
<ele>154.834106</ele>
<time>2010-07-17T09:24:43Z</time>
<desc>lat.=55.781765, lon.=26.357185, Alt.=154.834106m. Speed=8.964000m/h.</desc>
<speed>2.490000</speed>
</trkpt>
<trkpt lat="55.781761" lon="26.357224">
<ele>155.310669</ele>
<time>2010-07-17T09:24:44Z</time>
<desc>lat.=55.781761, lon.=26.357224, Alt.=155.310669m. Speed=8.028000m/h.</desc>
<speed>2.230000</speed>
</trkpt>
<trkpt lat="55.781754" lon="26.357258">
<ele>155.584106</ele>
<time>2010-07-17T09:24:45Z</time>
<desc>lat.=55.781754, lon.=26.357258, Alt.=155.584106m. Speed=8.208000m/h.</desc>
<speed>2.280000</speed>
</trkpt>
<trkpt lat="55.781746" lon="26.357290">
<ele>155.623169</ele>
<time>2010-07-17T09:24:46Z</time>
<desc>lat.=55.781746, lon.=26.357290, Alt.=155.623169m. Speed=6.804000m/h.</desc>
<speed>1.890000</speed>
</trkpt>
<trkpt lat="55.781738" lon="26.357323">
<ele>155.841919</ele>
<time>2010-07-17T09:24:47Z</time>
<desc>lat.=55.781738, lon.=26.357323, Alt.=155.841919m. Speed=6.912000m/h.</desc>
<speed>1.920000</speed>
</trkpt>
<trkpt lat="55.781731" lon="26.357353">
<ele>156.084106</ele>
<time>2010-07-17T09:24:48Z</time>
<desc>lat.=55.781731, lon.=26.357353, Alt.=156.084106m. Speed=4.788000m/h.</desc>
<speed>1.330000</speed>
</trkpt>
<trkpt lat="55.781727" lon="26.357378">
<ele>157.380981</ele>
<time>2010-07-17T09:24:49Z</time>
<desc>lat.=55.781727, lon.=26.357378, Alt.=157.380981m. Speed=4.644000m/h.</desc>
<speed>1.290000</speed>
</trkpt>
<trkpt lat="55.781723" lon="26.357393">
<ele>157.630981</ele>
<time>2010-07-17T09:24:50Z</time>
<desc>lat.=55.781723, lon.=26.357393, Alt.=157.630981m. Speed=3.240000m/h.</desc>
<speed>0.900000</speed>
</trkpt>
<trkpt lat="55.781715" lon="26.357412">
<ele>158.181763</ele>
<time>2010-07-17T09:24:51Z</time>
<desc>lat.=55.781715, lon.=26.357412, Alt.=158.181763m. Speed=5.256000m/h.</desc>
<speed>1.460000</speed>
</trkpt>
<trkpt lat="55.781712" lon="26.357443">
<ele>158.002075</ele>
<time>2010-07-17T09:24:52Z</time>
<desc>lat.=55.781712, lon.=26.357443, Alt.=158.002075m. Speed=3.744000m/h.</desc>
<speed>1.040000</speed>
</trkpt>
<trkpt lat="55.781712" lon="26.357462">
<ele>158.377075</ele>
<time>2010-07-17T09:24:53Z</time>
<desc>lat.=55.781712, lon.=26.357462, Alt.=158.377075m. Speed=6.012000m/h.</desc>
<speed>1.670000</speed>
</trkpt>
<trkpt lat="55.781704" lon="26.357489">
<ele>158.451294</ele>
<time>2010-07-17T09:24:54Z</time>
<desc>lat.=55.781704, lon.=26.357489, Alt.=158.451294m. Speed=4.680000m/h.</desc>
<speed>1.300000</speed>
</trkpt>
<trkpt lat="55.781704" lon="26.357517">
<ele>158.564575</ele>
<time>2010-07-17T09:24:55Z</time>
<desc>lat.=55.781704, lon.=26.357517, Alt.=158.564575m. Speed=4.932000m/h.</desc>
<speed>1.370000</speed>
</trkpt>
<trkpt lat="55.781696" lon="26.357548">
<ele>158.306763</ele>
<time>2010-07-17T09:24:56Z</time>
<desc>lat.=55.781696, lon.=26.357548, Alt.=158.306763m. Speed=6.336000m/h.</desc>
<speed>1.760000</speed>
</trkpt>
<trkpt lat="55.781689" lon="26.357573">
<ele>158.314575</ele>
<time>2010-07-17T09:24:57Z</time>
<desc>lat.=55.781689, lon.=26.357573, Alt.=158.314575m. Speed=5.184000m/h.</desc>
<speed>1.440000</speed>
</trkpt>
<trkpt lat="55.781681" lon="26.357594">
<ele>158.392700</ele>
<time>2010-07-17T09:24:58Z</time>
<desc>lat.=55.781681, lon.=26.357594, Alt.=158.392700m. Speed=4.644000m/h.</desc>
<speed>1.290000</speed>
</trkpt>
<trkpt lat="55.781677" lon="26.357616">
<ele>158.349731</ele>
<time>2010-07-17T09:24:59Z</time>
<desc>lat.=55.781677, lon.=26.357616, Alt.=158.349731m. Speed=4.932000m/h.</desc>
<speed>1.370000</speed>
</trkpt>
<trkpt lat="55.781670" lon="26.357637">
<ele>158.404419</ele>
<time>2010-07-17T09:25:00Z</time>
<desc>lat.=55.781670, lon.=26.357637, Alt.=158.404419m. Speed=4.932000m/h.</desc>
<speed>1.370000</speed>
</trkpt>
<trkpt lat="55.781658" lon="26.357668">
<ele>158.166138</ele>
<time>2010-07-17T09:25:01Z</time>
<desc>lat.=55.781658, lon.=26.357668, Alt.=158.166138m. Speed=7.128000m/h.</desc>
<speed>1.980000</speed>
</trkpt>
<trkpt lat="55.781654" lon="26.357708">
<ele>157.716919</ele>
<time>2010-07-17T09:25:02Z</time>
<desc>lat.=55.781654, lon.=26.357708, Alt.=157.716919m. Speed=7.596000m/h.</desc>
<speed>2.110000</speed>
</trkpt>
<trkpt lat="55.781643" lon="26.357744">
<ele>157.568481</ele>
<time>2010-07-17T09:25:03Z</time>
<desc>lat.=55.781643, lon.=26.357744, Alt.=157.568481m. Speed=7.164000m/h.</desc>
<speed>1.990000</speed>
</trkpt>
<trkpt lat="55.781631" lon="26.357784">
<ele>157.025513</ele>
<time>2010-07-17T09:25:04Z</time>
<desc>lat.=55.781631, lon.=26.357784, Alt.=157.025513m. Speed=7.380000m/h.</desc>
<speed>2.050000</speed>
</trkpt>
<trkpt lat="55.781628" lon="26.357813">
<ele>157.052856</ele>
<time>2010-07-17T09:25:05Z</time>
<desc>lat.=55.781628, lon.=26.357813, Alt.=157.052856m. Speed=5.580000m/h.</desc>
<speed>1.550000</speed>
</trkpt>
<trkpt lat="55.781620" lon="26.357836">
<ele>156.877075</ele>
<time>2010-07-17T09:25:06Z</time>
<desc>lat.=55.781620, lon.=26.357836, Alt.=156.877075m. Speed=4.284000m/h.</desc>
<speed>1.190000</speed>
</trkpt>
<trkpt lat="55.781609" lon="26.357843">
<ele>156.720825</ele>
<time>2010-07-17T09:25:07Z</time>
<desc>lat.=55.781609, lon.=26.357843, Alt.=156.720825m. Speed=1.980000m/h.</desc>
<speed>0.550000</speed>
</trkpt>
<trkpt lat="55.781597" lon="26.357866">
<ele>156.127075</ele>
<time>2010-07-17T09:25:08Z</time>
<desc>lat.=55.781597, lon.=26.357866, Alt.=156.127075m. Speed=4.212000m/h.</desc>
<speed>1.170000</speed>
</trkpt>
<trkpt lat="55.781586" lon="26.357903">
<ele>156.123169</ele>
<time>2010-07-17T09:25:09Z</time>
<desc>lat.=55.781586, lon.=26.357903, Alt.=156.123169m. Speed=5.256000m/h.</desc>
<speed>1.460000</speed>
</trkpt>
<trkpt lat="55.781578" lon="26.357916">
<ele>155.865356</ele>
<time>2010-07-17T09:25:10Z</time>
<desc>lat.=55.781578, lon.=26.357916, Alt.=155.865356m. Speed=3.492000m/h.</desc>
<speed>0.970000</speed>
</trkpt>
<trkpt lat="55.781567" lon="26.357935">
<ele>155.619263</ele>
<time>2010-07-17T09:25:11Z</time>
<desc>lat.=55.781567, lon.=26.357935, Alt.=155.619263m. Speed=2.952000m/h.</desc>
<speed>0.820000</speed>
</trkpt>
<trkpt lat="55.781563" lon="26.357952">
<ele>155.955200</ele>
<time>2010-07-17T09:25:12Z</time>
<desc>lat.=55.781563, lon.=26.357952, Alt.=155.955200m. Speed=1.188000m/h.</desc>
<speed>0.330000</speed>
</trkpt>
<trkpt lat="55.781559" lon="26.357975">
<ele>155.783325</ele>
<time>2010-07-17T09:25:13Z</time>
<desc>lat.=55.781559, lon.=26.357975, Alt.=155.783325m. Speed=0.900000m/h.</desc>
<speed>0.250000</speed>
</trkpt>
<trkpt lat="55.781559" lon="26.357979">
<ele>155.685669</ele>
<time>2010-07-17T09:25:14Z</time>
<desc>lat.=55.781559, lon.=26.357979, Alt.=155.685669m. Speed=0.756000m/h.</desc>
<speed>0.210000</speed>
</trkpt>
<trkpt lat="55.781563" lon="26.357981">
<ele>155.611450</ele>
<time>2010-07-17T09:25:15Z</time>
<desc>lat.=55.781563, lon.=26.357981, Alt.=155.611450m. Speed=0.936000m/h.</desc>
<speed>0.260000</speed>
</trkpt>
<trkpt lat="55.781563" lon="26.357983">
<ele>155.564575</ele>
<time>2010-07-17T09:25:16Z</time>
<desc>lat.=55.781563, lon.=26.357983, Alt.=155.564575m. Speed=0.684000m/h.</desc>
<speed>0.190000</speed>
</trkpt>
<trkpt lat="55.781563" lon="26.357985">
<ele>155.533325</ele>
<time>2010-07-17T09:25:17Z</time>
<desc>lat.=55.781563, lon.=26.357985, Alt.=155.533325m. Speed=0.792000m/h.</desc>
<speed>0.220000</speed>
</trkpt>
<trkpt lat="55.781567" lon="26.357983">
<ele>155.466919</ele>
<time>2010-07-17T09:25:18Z</time>
<desc>lat.=55.781567, lon.=26.357983, Alt.=155.466919m. Speed=0.252000m/h.</desc>
<speed>0.070000</speed>
</trkpt>
<trkpt lat="55.781563" lon="26.357983">
<ele>155.420044</ele>
<time>2010-07-17T09:25:19Z</time>
<desc>lat.=55.781563, lon.=26.357983, Alt.=155.420044m. Speed=0.144000m/h.</desc>
<speed>0.040000</speed>
</trkpt>
<trkpt lat="55.781563" lon="26.357983">
<ele>155.380981</ele>
<time>2010-07-17T09:25:20Z</time>
<desc>lat.=55.781563, lon.=26.357983, Alt.=155.380981m. Speed=0.396000m/h.</desc>
<speed>0.110000</speed>
</trkpt>
<trkpt lat="55.781563" lon="26.357983">
<ele>155.349731</ele>
<time>2010-07-17T09:25:21Z</time>
<desc>lat.=55.781563, lon.=26.357983, Alt.=155.349731m. Speed=0.216000m/h.</desc>
<speed>0.060000</speed>
</trkpt>
<trkpt lat="55.781563" lon="26.357983">
<ele>155.318481</ele>
<time>2010-07-17T09:25:22Z</time>
<desc>lat.=55.781563, lon.=26.357983, Alt.=155.318481m. Speed=0.072000m/h.</desc>
<speed>0.020000</speed>
</trkpt>
<trkpt lat="55.781563" lon="26.357983">
<ele>155.318481</ele>
<time>2010-07-17T09:25:23Z</time>
<desc>lat.=55.781563, lon.=26.357983, Alt.=155.318481m. Speed=0.036000m/h.</desc>
<speed>0.010000</speed>
</trkpt>
<trkpt lat="55.781563" lon="26.357983">
<ele>155.322388</ele>
<time>2010-07-17T09:25:24Z</time>
<desc>lat.=55.781563, lon.=26.357983, Alt.=155.322388m. Speed=0.036000m/h.</desc>
<speed>0.010000</speed>
</trkpt>
<trkpt lat="55.781563" lon="26.357983">
<ele>155.330200</ele>
<time>2010-07-17T09:25:25Z</time>
<desc>lat.=55.781563, lon.=26.357983, Alt.=155.330200m. Speed=0.036000m/h.</desc>
<speed>0.010000</speed>
</trkpt>
<trkpt lat="55.781563" lon="26.357983">
<ele>155.334106</ele>
<time>2010-07-17T09:25:26Z</time>
<desc>lat.=55.781563, lon.=26.357983, Alt.=155.334106m. Speed=0.576000m/h.</desc>
<speed>0.160000</speed>
</trkpt>
<trkpt lat="55.781563" lon="26.357981">
<ele>155.349731</ele>
<time>2010-07-17T09:25:27Z</time>
<desc>lat.=55.781563, lon.=26.357981, Alt.=155.349731m. Speed=0.000000m/h.</desc>
<speed>0.000000</speed>
</trkpt>
<trkpt lat="55.781559" lon="26.357981">
<ele>155.334106</ele>
<time>2010-07-17T09:25:28Z</time>
<desc>lat.=55.781559, lon.=26.357981, Alt.=155.334106m. Speed=0.288000m/h.</desc>
<speed>0.080000</speed>
</trkpt>
<trkpt lat="55.781563" lon="26.357983">
<ele>155.306763</ele>
<time>2010-07-17T09:25:29Z</time>
<desc>lat.=55.781563, lon.=26.357983, Alt.=155.306763m. Speed=0.144000m/h.</desc>
<speed>0.040000</speed>
</trkpt>
<trkpt lat="55.781563" lon="26.357983">
<ele>155.283325</ele>
<time>2010-07-17T09:25:30Z</time>
<desc>lat.=55.781563, lon.=26.357983, Alt.=155.283325m. Speed=0.036000m/h.</desc>
<speed>0.010000</speed>
</trkpt>
<trkpt lat="55.781559" lon="26.357983">
<ele>155.244263</ele>
<time>2010-07-17T09:25:31Z</time>
<desc>lat.=55.781559, lon.=26.357983, Alt.=155.244263m. Speed=0.144000m/h.</desc>
<speed>0.040000</speed>
</trkpt>
<trkpt lat="55.781559" lon="26.357983">
<ele>155.216919</ele>
<time>2010-07-17T09:25:32Z</time>
<desc>lat.=55.781559, lon.=26.357983, Alt.=155.216919m. Speed=0.072000m/h.</desc>
<speed>0.020000</speed>
</trkpt>
<trkpt lat="55.781559" lon="26.357983">
<ele>155.193481</ele>
<time>2010-07-17T09:25:33Z</time>
<desc>lat.=55.781559, lon.=26.357983, Alt.=155.193481m. Speed=0.072000m/h.</desc>
<speed>0.020000</speed>
</trkpt>
<trkpt lat="55.781559" lon="26.357983">
<ele>155.177856</ele>
<time>2010-07-17T09:25:34Z</time>
<desc>lat.=55.781559, lon.=26.357983, Alt.=155.177856m. Speed=0.108000m/h.</desc>
<speed>0.030000</speed>
</trkpt>
<trkpt lat="55.781559" lon="26.357983">
<ele>155.170044</ele>
<time>2010-07-17T09:25:35Z</time>
<desc>lat.=55.781559, lon.=26.357983, Alt.=155.170044m. Speed=0.756000m/h.</desc>
<speed>0.210000</speed>
</trkpt>
<trkpt lat="55.781559" lon="26.357981">
<ele>155.185669</ele>
<time>2010-07-17T09:25:36Z</time>
<desc>lat.=55.781559, lon.=26.357981, Alt.=155.185669m. Speed=0.324000m/h.</desc>
<speed>0.090000</speed>
</trkpt>
<trkpt lat="55.781559" lon="26.357983">
<ele>155.154419</ele>
<time>2010-07-17T09:25:37Z</time>
<desc>lat.=55.781559, lon.=26.357983, Alt.=155.154419m. Speed=0.216000m/h.</desc>
<speed>0.060000</speed>
</trkpt>
<trkpt lat="55.781559" lon="26.357983">
<ele>155.134888</ele>
<time>2010-07-17T09:25:38Z</time>
<desc>lat.=55.781559, lon.=26.357983, Alt.=155.134888m. Speed=0.324000m/h.</desc>
<speed>0.090000</speed>
</trkpt>
<trkpt lat="55.781559" lon="26.357983">
<ele>155.099731</ele>
<time>2010-07-17T09:25:39Z</time>
<desc>lat.=55.781559, lon.=26.357983, Alt.=155.099731m. Speed=0.324000m/h.</desc>
<speed>0.090000</speed>
</trkpt>
<trkpt lat="55.781559" lon="26.357983">
<ele>155.064575</ele>
<time>2010-07-17T09:25:40Z</time>
<desc>lat.=55.781559, lon.=26.357983, Alt.=155.064575m. Speed=0.540000m/h.</desc>
<speed>0.150000</speed>
</trkpt>
<trkpt lat="55.781559" lon="26.357981">
<ele>155.033325</ele>
<time>2010-07-17T09:25:41Z</time>
<desc>lat.=55.781559, lon.=26.357981, Alt.=155.033325m. Speed=0.144000m/h.</desc>
<speed>0.040000</speed>
</trkpt>
<trkpt lat="55.781559" lon="26.357981">
<ele>155.005981</ele>
<time>2010-07-17T09:25:42Z</time>
<desc>lat.=55.781559, lon.=26.357981, Alt.=155.005981m. Speed=0.108000m/h.</desc>
<speed>0.030000</speed>
</trkpt>
<trkpt lat="55.781559" lon="26.357981">
<ele>154.986450</ele>
<time>2010-07-17T09:25:43Z</time>
<desc>lat.=55.781559, lon.=26.357981, Alt.=154.986450m. Speed=0.576000m/h.</desc>
<speed>0.160000</speed>
</trkpt>
<trkpt lat="55.781559" lon="26.357983">
<ele>154.982544</ele>
<time>2010-07-17T09:25:44Z</time>
<desc>lat.=55.781559, lon.=26.357983, Alt.=154.982544m. Speed=0.432000m/h.</desc>
<speed>0.120000</speed>
</trkpt>
<trkpt lat="55.781559" lon="26.357985">
<ele>154.998169</ele>
<time>2010-07-17T09:25:45Z</time>
<desc>lat.=55.781559, lon.=26.357985, Alt.=154.998169m. Speed=0.864000m/h.</desc>
<speed>0.240000</speed>
</trkpt>
<trkpt lat="55.781559" lon="26.357983">
<ele>155.002075</ele>
<time>2010-07-17T09:25:46Z</time>
<desc>lat.=55.781559, lon.=26.357983, Alt.=155.002075m. Speed=0.252000m/h.</desc>
<speed>0.070000</speed>
</trkpt>
<trkpt lat="55.781559" lon="26.357983">
<ele>155.005981</ele>
<time>2010-07-17T09:25:47Z</time>
<desc>lat.=55.781559, lon.=26.357983, Alt.=155.005981m. Speed=0.504000m/h.</desc>
<speed>0.140000</speed>
</trkpt>
<trkpt lat="55.781559" lon="26.357985">
<ele>155.013794</ele>
<time>2010-07-17T09:25:48Z</time>
<desc>lat.=55.781559, lon.=26.357985, Alt.=155.013794m. Speed=0.432000m/h.</desc>
<speed>0.120000</speed>
</trkpt>
<trkpt lat="55.781555" lon="26.357986">
<ele>155.025513</ele>
<time>2010-07-17T09:25:49Z</time>
<desc>lat.=55.781555, lon.=26.357986, Alt.=155.025513m. Speed=0.612000m/h.</desc>
<speed>0.170000</speed>
</trkpt>
<trkpt lat="55.781555" lon="26.357988">
<ele>155.029419</ele>
<time>2010-07-17T09:25:50Z</time>
<desc>lat.=55.781555, lon.=26.357988, Alt.=155.029419m. Speed=0.612000m/h.</desc>
<speed>0.170000</speed>
</trkpt>
<trkpt lat="55.781555" lon="26.357988">
<ele>155.033325</ele>
<time>2010-07-17T09:25:51Z</time>
<desc>lat.=55.781555, lon.=26.357988, Alt.=155.033325m. Speed=0.180000m/h.</desc>
<speed>0.050000</speed>
</trkpt>
<trkpt lat="55.781555" lon="26.357988">
<ele>155.037231</ele>
<time>2010-07-17T09:25:52Z</time>
<desc>lat.=55.781555, lon.=26.357988, Alt.=155.037231m. Speed=0.180000m/h.</desc>
<speed>0.050000</speed>
</trkpt>
<trkpt lat="55.781555" lon="26.357988">
<ele>155.045044</ele>
<time>2010-07-17T09:25:53Z</time>
<desc>lat.=55.781555, lon.=26.357988, Alt.=155.045044m. Speed=0.252000m/h.</desc>
<speed>0.070000</speed>
</trkpt>
<trkpt lat="55.781555" lon="26.357988">
<ele>155.056763</ele>
<time>2010-07-17T09:25:54Z</time>
<desc>lat.=55.781555, lon.=26.357988, Alt.=155.056763m. Speed=0.180000m/h.</desc>
<speed>0.050000</speed>
</trkpt>
<trkpt lat="55.781555" lon="26.357988">
<ele>155.068481</ele>
<time>2010-07-17T09:25:55Z</time>
<desc>lat.=55.781555, lon.=26.357988, Alt.=155.068481m. Speed=0.072000m/h.</desc>
<speed>0.020000</speed>
</trkpt>
<trkpt lat="55.781555" lon="26.357988">
<ele>155.076294</ele>
<time>2010-07-17T09:25:56Z</time>
<desc>lat.=55.781555, lon.=26.357988, Alt.=155.076294m. Speed=0.036000m/h.</desc>
<speed>0.010000</speed>
</trkpt>
<trkpt lat="55.781555" lon="26.357988">
<ele>155.099731</ele>
<time>2010-07-17T09:25:57Z</time>
<desc>lat.=55.781555, lon.=26.357988, Alt.=155.099731m. Speed=0.288000m/h.</desc>
<speed>0.080000</speed>
</trkpt>
<trkpt lat="55.781555" lon="26.357990">
<ele>155.127075</ele>
<time>2010-07-17T09:25:58Z</time>
<desc>lat.=55.781555, lon.=26.357990, Alt.=155.127075m. Speed=0.180000m/h.</desc>
<speed>0.050000</speed>
</trkpt>
<trkpt lat="55.781551" lon="26.357990">
<ele>155.173950</ele>
<time>2010-07-17T09:25:59Z</time>
<desc>lat.=55.781551, lon.=26.357990, Alt.=155.173950m. Speed=0.468000m/h.</desc>
<speed>0.130000</speed>
</trkpt>
<trkpt lat="55.781551" lon="26.357990">
<ele>155.197388</ele>
<time>2010-07-17T09:26:00Z</time>
<desc>lat.=55.781551, lon.=26.357990, Alt.=155.197388m. Speed=0.252000m/h.</desc>
<speed>0.070000</speed>
</trkpt>
<trkpt lat="55.781551" lon="26.357990">
<ele>155.224731</ele>
<time>2010-07-17T09:26:01Z</time>
<desc>lat.=55.781551, lon.=26.357990, Alt.=155.224731m. Speed=0.324000m/h.</desc>
<speed>0.090000</speed>
</trkpt>
<trkpt lat="55.781551" lon="26.357992">
<ele>155.252075</ele>
<time>2010-07-17T09:26:02Z</time>
<desc>lat.=55.781551, lon.=26.357992, Alt.=155.252075m. Speed=0.036000m/h.</desc>
<speed>0.010000</speed>
</trkpt>
<trkpt lat="55.781551" lon="26.357992">
<ele>155.255981</ele>
<time>2010-07-17T09:26:03Z</time>
<desc>lat.=55.781551, lon.=26.357992, Alt.=155.255981m. Speed=0.216000m/h.</desc>
<speed>0.060000</speed>
</trkpt>
<trkpt lat="55.781551" lon="26.357992">
<ele>155.252075</ele>
<time>2010-07-17T09:26:04Z</time>
<desc>lat.=55.781551, lon.=26.357992, Alt.=155.252075m. Speed=0.180000m/h.</desc>
<speed>0.050000</speed>
</trkpt>
<trkpt lat="55.781551" lon="26.357992">
<ele>155.252075</ele>
<time>2010-07-17T09:26:05Z</time>
<desc>lat.=55.781551, lon.=26.357992, Alt.=155.252075m. Speed=0.108000m/h.</desc>
<speed>0.030000</speed>
</trkpt>
<trkpt lat="55.781551" lon="26.357992">
<ele>155.255981</ele>
<time>2010-07-17T09:26:06Z</time>
<desc>lat.=55.781551, lon.=26.357992, Alt.=155.255981m. Speed=0.108000m/h.</desc>
<speed>0.030000</speed>
</trkpt>
<trkpt lat="55.781551" lon="26.357992">
<ele>155.259888</ele>
<time>2010-07-17T09:26:07Z</time>
<desc>lat.=55.781551, lon.=26.357992, Alt.=155.259888m. Speed=0.072000m/h.</desc>
<speed>0.020000</speed>
</trkpt>
<trkpt lat="55.781551" lon="26.357992">
<ele>155.259888</ele>
<time>2010-07-17T09:26:08Z</time>
<desc>lat.=55.781551, lon.=26.357992, Alt.=155.259888m. Speed=0.072000m/h.</desc>
<speed>0.020000</speed>
</trkpt>
<trkpt lat="55.781551" lon="26.357992">
<ele>155.259888</ele>
<time>2010-07-17T09:26:09Z</time>
<desc>lat.=55.781551, lon.=26.357992, Alt.=155.259888m. Speed=0.036000m/h.</desc>
<speed>0.010000</speed>
</trkpt>
<trkpt lat="55.781551" lon="26.357992">
<ele>155.259888</ele>
<time>2010-07-17T09:26:10Z</time>
<desc>lat.=55.781551, lon.=26.357992, Alt.=155.259888m. Speed=0.036000m/h.</desc>
<speed>0.010000</speed>
</trkpt>
<trkpt lat="55.781551" lon="26.357994">
<ele>155.263794</ele>
<time>2010-07-17T09:26:11Z</time>
<desc>lat.=55.781551, lon.=26.357994, Alt.=155.263794m. Speed=0.072000m/h.</desc>
<speed>0.020000</speed>
</trkpt>
<trkpt lat="55.781551" lon="26.357994">
<ele>155.267700</ele>
<time>2010-07-17T09:26:12Z</time>
<desc>lat.=55.781551, lon.=26.357994, Alt.=155.267700m. Speed=0.108000m/h.</desc>
<speed>0.030000</speed>
</trkpt>
<trkpt lat="55.781551" lon="26.357994">
<ele>155.267700</ele>
<time>2010-07-17T09:26:13Z</time>
<desc>lat.=55.781551, lon.=26.357994, Alt.=155.267700m. Speed=0.072000m/h.</desc>
<speed>0.020000</speed>
</trkpt>
<trkpt lat="55.781551" lon="26.357994">
<ele>155.271606</ele>
<time>2010-07-17T09:26:14Z</time>
<desc>lat.=55.781551, lon.=26.357994, Alt.=155.271606m. Speed=0.108000m/h.</desc>
<speed>0.030000</speed>
</trkpt>
<trkpt lat="55.781551" lon="26.357994">
<ele>155.275513</ele>
<time>2010-07-17T09:26:15Z</time>
<desc>lat.=55.781551, lon.=26.357994, Alt.=155.275513m. Speed=0.036000m/h.</desc>
<speed>0.010000</speed>
</trkpt>
<trkpt lat="55.781551" lon="26.357994">
<ele>155.275513</ele>
<time>2010-07-17T09:26:16Z</time>
<desc>lat.=55.781551, lon.=26.357994, Alt.=155.275513m. Speed=0.108000m/h.</desc>
<speed>0.030000</speed>
</trkpt>
<trkpt lat="55.781551" lon="26.357994">
<ele>155.275513</ele>
<time>2010-07-17T09:26:17Z</time>
<desc>lat.=55.781551, lon.=26.357994, Alt.=155.275513m. Speed=0.036000m/h.</desc>
<speed>0.010000</speed>
</trkpt>
<trkpt lat="55.781551" lon="26.357994">
<ele>155.279419</ele>
<time>2010-07-17T09:26:18Z</time>
<desc>lat.=55.781551, lon.=26.357994, Alt.=155.279419m. Speed=0.036000m/h.</desc>
<speed>0.010000</speed>
</trkpt>
<trkpt lat="55.781551" lon="26.357994">
<ele>155.287231</ele>
<time>2010-07-17T09:26:19Z</time>
<desc>lat.=55.781551, lon.=26.357994, Alt.=155.287231m. Speed=0.072000m/h.</desc>
<speed>0.020000</speed>
</trkpt>
<trkpt lat="55.781551" lon="26.357996">
<ele>155.283325</ele>
<time>2010-07-17T09:26:20Z</time>
<desc>lat.=55.781551, lon.=26.357996, Alt.=155.283325m. Speed=0.072000m/h.</desc>
<speed>0.020000</speed>
</trkpt>
<trkpt lat="55.781548" lon="26.357996">
<ele>155.279419</ele>
<time>2010-07-17T09:26:21Z</time>
<desc>lat.=55.781548, lon.=26.357996, Alt.=155.279419m. Speed=0.144000m/h.</desc>
<speed>0.040000</speed>
</trkpt>
<trkpt lat="55.781548" lon="26.357996">
<ele>155.279419</ele>
<time>2010-07-17T09:26:22Z</time>
<desc>lat.=55.781548, lon.=26.357996, Alt.=155.279419m. Speed=0.072000m/h.</desc>
<speed>0.020000</speed>
</trkpt>
<trkpt lat="55.781548" lon="26.357996">
<ele>155.275513</ele>
<time>2010-07-17T09:26:23Z</time>
<desc>lat.=55.781548, lon.=26.357996, Alt.=155.275513m. Speed=0.036000m/h.</desc>
<speed>0.010000</speed>
</trkpt>
<trkpt lat="55.781548" lon="26.357996">
<ele>155.275513</ele>
<time>2010-07-17T09:26:24Z</time>
<desc>lat.=55.781548, lon.=26.357996, Alt.=155.275513m. Speed=0.072000m/h.</desc>
<speed>0.020000</speed>
</trkpt>
<trkpt lat="55.781548" lon="26.357996">
<ele>155.279419</ele>
<time>2010-07-17T09:26:25Z</time>
<desc>lat.=55.781548, lon.=26.357996, Alt.=155.279419m. Speed=0.252000m/h.</desc>
<speed>0.070000</speed>
</trkpt>
<trkpt lat="55.781548" lon="26.357996">
<ele>155.279419</ele>
<time>2010-07-17T09:26:26Z</time>
<desc>lat.=55.781548, lon.=26.357996, Alt.=155.279419m. Speed=0.072000m/h.</desc>
<speed>0.020000</speed>
</trkpt>
<trkpt lat="55.781548" lon="26.357996">
<ele>155.275513</ele>
<time>2010-07-17T09:26:27Z</time>
<desc>lat.=55.781548, lon.=26.357996, Alt.=155.275513m. Speed=0.108000m/h.</desc>
<speed>0.030000</speed>
</trkpt>
<trkpt lat="55.781548" lon="26.357996">
<ele>155.275513</ele>
<time>2010-07-17T09:26:28Z</time>
<desc>lat.=55.781548, lon.=26.357996, Alt.=155.275513m. Speed=0.036000m/h.</desc>
<speed>0.010000</speed>
</trkpt>
<trkpt lat="55.781548" lon="26.357996">
<ele>155.275513</ele>
<time>2010-07-17T09:26:29Z</time>
<desc>lat.=55.781548, lon.=26.357996, Alt.=155.275513m. Speed=0.000000m/h.</desc>
<speed>0.000000</speed>
</trkpt>
<trkpt lat="55.781548" lon="26.357996">
<ele>155.279419</ele>
<time>2010-07-17T09:26:30Z</time>
<desc>lat.=55.781548, lon.=26.357996, Alt.=155.279419m. Speed=0.000000m/h.</desc>
<speed>0.000000</speed>
</trkpt>
<trkpt lat="55.781548" lon="26.357996">
<ele>155.279419</ele>
<time>2010-07-17T09:26:31Z</time>
<desc>lat.=55.781548, lon.=26.357996, Alt.=155.279419m. Speed=0.000000m/h.</desc>
<speed>0.000000</speed>
</trkpt>
<trkpt lat="55.781548" lon="26.357996">
<ele>155.283325</ele>
<time>2010-07-17T09:26:32Z</time>
<desc>lat.=55.781548, lon.=26.357996, Alt.=155.283325m. Speed=0.000000m/h.</desc>
<speed>0.000000</speed>
</trkpt>
<trkpt lat="55.781548" lon="26.357996">
<ele>155.291138</ele>
<time>2010-07-17T09:26:33Z</time>
<desc>lat.=55.781548, lon.=26.357996, Alt.=155.291138m. Speed=0.000000m/h.</desc>
<speed>0.000000</speed>
</trkpt>
<trkpt lat="55.781548" lon="26.357996">
<ele>155.291138</ele>
<time>2010-07-17T09:26:34Z</time>
<desc>lat.=55.781548, lon.=26.357996, Alt.=155.291138m. Speed=0.000000m/h.</desc>
<speed>0.000000</speed>
</trkpt>
<trkpt lat="55.781548" lon="26.357996">
<ele>155.287231</ele>
<time>2010-07-17T09:26:35Z</time>
<desc>lat.=55.781548, lon.=26.357996, Alt.=155.287231m. Speed=0.000000m/h.</desc>
<speed>0.000000</speed>
</trkpt>
<trkpt lat="55.781548" lon="26.357996">
<ele>155.287231</ele>
<time>2010-07-17T09:26:36Z</time>
<desc>lat.=55.781548, lon.=26.357996, Alt.=155.287231m. Speed=0.000000m/h.</desc>
<speed>0.000000</speed>
</trkpt>
<trkpt lat="55.781548" lon="26.357996">
<ele>155.287231</ele>
<time>2010-07-17T09:26:37Z</time>
<desc>lat.=55.781548, lon.=26.357996, Alt.=155.287231m. Speed=0.000000m/h.</desc>
<speed>0.000000</speed>
</trkpt>
<trkpt lat="55.781548" lon="26.357996">
<ele>155.291138</ele>
<time>2010-07-17T09:26:38Z</time>
<desc>lat.=55.781548, lon.=26.357996, Alt.=155.291138m. Speed=0.036000m/h.</desc>
<speed>0.010000</speed>
</trkpt>
<trkpt lat="55.781548" lon="26.357996">
<ele>155.291138</ele>
<time>2010-07-17T09:26:39Z</time>
<desc>lat.=55.781548, lon.=26.357996, Alt.=155.291138m. Speed=0.000000m/h.</desc>
<speed>0.000000</speed>
</trkpt>
<trkpt lat="55.781548" lon="26.357996">
<ele>155.291138</ele>
<time>2010-07-17T09:26:40Z</time>
<desc>lat.=55.781548, lon.=26.357996, Alt.=155.291138m. Speed=0.000000m/h.</desc>
<speed>0.000000</speed>
</trkpt>
<trkpt lat="55.781548" lon="26.357996">
<ele>155.291138</ele>
<time>2010-07-17T09:26:41Z</time>
<desc>lat.=55.781548, lon.=26.357996, Alt.=155.291138m. Speed=0.036000m/h.</desc>
<speed>0.010000</speed>
</trkpt>
<trkpt lat="55.781548" lon="26.357996">
<ele>155.295044</ele>
<time>2010-07-17T09:26:42Z</time>
<desc>lat.=55.781548, lon.=26.357996, Alt.=155.295044m. Speed=0.000000m/h.</desc>
<speed>0.000000</speed>
</trkpt>
<trkpt lat="55.781548" lon="26.357996">
<ele>155.295044</ele>
<time>2010-07-17T09:26:43Z</time>
<desc>lat.=55.781548, lon.=26.357996, Alt.=155.295044m. Speed=0.000000m/h.</desc>
<speed>0.000000</speed>
</trkpt>
<trkpt lat="55.781548" lon="26.357996">
<ele>155.295044</ele>
<time>2010-07-17T09:26:44Z</time>
<desc>lat.=55.781548, lon.=26.357996, Alt.=155.295044m. Speed=0.036000m/h.</desc>
<speed>0.010000</speed>
</trkpt>
<trkpt lat="55.781548" lon="26.357996">
<ele>155.291138</ele>
<time>2010-07-17T09:26:45Z</time>
<desc>lat.=55.781548, lon.=26.357996, Alt.=155.291138m. Speed=0.000000m/h.</desc>
<speed>0.000000</speed>
</trkpt>
<trkpt lat="55.781548" lon="26.357996">
<ele>155.291138</ele>
<time>2010-07-17T09:26:46Z</time>
<desc>lat.=55.781548, lon.=26.357996, Alt.=155.291138m. Speed=0.036000m/h.</desc>
<speed>0.010000</speed>
</trkpt>
<trkpt lat="55.781548" lon="26.357996">
<ele>155.298950</ele>
<time>2010-07-17T09:26:47Z</time>
<desc>lat.=55.781548, lon.=26.357996, Alt.=155.298950m. Speed=0.036000m/h.</desc>
<speed>0.010000</speed>
</trkpt>
<trkpt lat="55.781548" lon="26.357996">
<ele>155.298950</ele>
<time>2010-07-17T09:26:48Z</time>
<desc>lat.=55.781548, lon.=26.357996, Alt.=155.298950m. Speed=0.000000m/h.</desc>
<speed>0.000000</speed>
</trkpt>
<trkpt lat="55.781548" lon="26.357996">
<ele>155.295044</ele>
<time>2010-07-17T09:26:49Z</time>
<desc>lat.=55.781548, lon.=26.357996, Alt.=155.295044m. Speed=0.000000m/h.</desc>
<speed>0.000000</speed>
</trkpt>
<trkpt lat="55.781548" lon="26.357996">
<ele>155.295044</ele>
<time>2010-07-17T09:26:50Z</time>
<desc>lat.=55.781548, lon.=26.357996, Alt.=155.295044m. Speed=0.000000m/h.</desc>
<speed>0.000000</speed>
</trkpt>
<trkpt lat="55.781548" lon="26.357996">
<ele>155.287231</ele>
<time>2010-07-17T09:26:51Z</time>
<desc>lat.=55.781548, lon.=26.357996, Alt.=155.287231m. Speed=0.000000m/h.</desc>
<speed>0.000000</speed>
</trkpt>
<trkpt lat="55.781548" lon="26.357996">
<ele>155.275513</ele>
<time>2010-07-17T09:26:52Z</time>
<desc>lat.=55.781548, lon.=26.357996, Alt.=155.275513m. Speed=0.036000m/h.</desc>
<speed>0.010000</speed>
</trkpt>
<trkpt lat="55.781548" lon="26.357996">
<ele>155.263794</ele>
<time>2010-07-17T09:26:53Z</time>
<desc>lat.=55.781548, lon.=26.357996, Alt.=155.263794m. Speed=0.000000m/h.</desc>
<speed>0.000000</speed>
</trkpt>
<trkpt lat="55.781548" lon="26.357996">
<ele>155.255981</ele>
<time>2010-07-17T09:26:54Z</time>
<desc>lat.=55.781548, lon.=26.357996, Alt.=155.255981m. Speed=0.000000m/h.</desc>
<speed>0.000000</speed>
</trkpt>
<trkpt lat="55.781548" lon="26.357996">
<ele>155.252075</ele>
<time>2010-07-17T09:26:55Z</time>
<desc>lat.=55.781548, lon.=26.357996, Alt.=155.252075m. Speed=0.036000m/h.</desc>
<speed>0.010000</speed>
</trkpt>
<trkpt lat="55.781548" lon="26.357996">
<ele>155.240356</ele>
<time>2010-07-17T09:26:56Z</time>
<desc>lat.=55.781548, lon.=26.357996, Alt.=155.240356m. Speed=0.000000m/h.</desc>
<speed>0.000000</speed>
</trkpt>
<trkpt lat="55.781548" lon="26.357996">
<ele>155.228638</ele>
<time>2010-07-17T09:26:57Z</time>
<desc>lat.=55.781548, lon.=26.357996, Alt.=155.228638m. Speed=0.036000m/h.</desc>
<speed>0.010000</speed>
</trkpt>
<trkpt lat="55.781548" lon="26.357996">
<ele>155.224731</ele>
<time>2010-07-17T09:26:58Z</time>
<desc>lat.=55.781548, lon.=26.357996, Alt.=155.224731m. Speed=0.000000m/h.</desc>
<speed>0.000000</speed>
</trkpt>
<trkpt lat="55.781548" lon="26.357996">
<ele>155.220825</ele>
<time>2010-07-17T09:26:59Z</time>
<desc>lat.=55.781548, lon.=26.357996, Alt.=155.220825m. Speed=0.072000m/h.</desc>
<speed>0.020000</speed>
</trkpt>
<trkpt lat="55.781548" lon="26.357996">
<ele>155.216919</ele>
<time>2010-07-17T09:27:00Z</time>
<desc>lat.=55.781548, lon.=26.357996, Alt.=155.216919m. Speed=0.036000m/h.</desc>
<speed>0.010000</speed>
</trkpt>
<trkpt lat="55.781548" lon="26.357996">
<ele>155.216919</ele>
<time>2010-07-17T09:27:01Z</time>
<desc>lat.=55.781548, lon.=26.357996, Alt.=155.216919m. Speed=0.036000m/h.</desc>
<speed>0.010000</speed>
</trkpt>
<trkpt lat="55.781548" lon="26.357996">
<ele>155.220825</ele>
<time>2010-07-17T09:27:02Z</time>
<desc>lat.=55.781548, lon.=26.357996, Alt.=155.220825m. Speed=0.072000m/h.</desc>
<speed>0.020000</speed>
</trkpt>
<trkpt lat="55.781548" lon="26.357996">
<ele>155.220825</ele>
<time>2010-07-17T09:27:03Z</time>
<desc>lat.=55.781548, lon.=26.357996, Alt.=155.220825m. Speed=0.036000m/h.</desc>
<speed>0.010000</speed>
</trkpt>
<trkpt lat="55.781548" lon="26.357998">
<ele>155.224731</ele>
<time>2010-07-17T09:27:04Z</time>
<desc>lat.=55.781548, lon.=26.357998, Alt.=155.224731m. Speed=0.072000m/h.</desc>
<speed>0.020000</speed>
</trkpt>
<trkpt lat="55.781548" lon="26.357998">
<ele>155.228638</ele>
<time>2010-07-17T09:27:05Z</time>
<desc>lat.=55.781548, lon.=26.357998, Alt.=155.228638m. Speed=0.036000m/h.</desc>
<speed>0.010000</speed>
</trkpt>
<trkpt lat="55.781548" lon="26.357998">
<ele>155.232544</ele>
<time>2010-07-17T09:27:06Z</time>
<desc>lat.=55.781548, lon.=26.357998, Alt.=155.232544m. Speed=0.108000m/h.</desc>
<speed>0.030000</speed>
</trkpt>
<trkpt lat="55.781548" lon="26.357998">
<ele>155.244263</ele>
<time>2010-07-17T09:27:07Z</time>
<desc>lat.=55.781548, lon.=26.357998, Alt.=155.244263m. Speed=0.036000m/h.</desc>
<speed>0.010000</speed>
</trkpt>
<trkpt lat="55.781548" lon="26.357998">
<ele>155.255981</ele>
<time>2010-07-17T09:27:08Z</time>
<desc>lat.=55.781548, lon.=26.357998, Alt.=155.255981m. Speed=0.072000m/h.</desc>
<speed>0.020000</speed>
</trkpt>
<trkpt lat="55.781548" lon="26.357998">
<ele>155.267700</ele>
<time>2010-07-17T09:27:09Z</time>
<desc>lat.=55.781548, lon.=26.357998, Alt.=155.267700m. Speed=0.036000m/h.</desc>
<speed>0.010000</speed>
</trkpt>
<trkpt lat="55.781548" lon="26.357998">
<ele>155.275513</ele>
<time>2010-07-17T09:27:10Z</time>
<desc>lat.=55.781548, lon.=26.357998, Alt.=155.275513m. Speed=0.036000m/h.</desc>
<speed>0.010000</speed>
</trkpt>
<trkpt lat="55.781548" lon="26.357998">
<ele>155.283325</ele>
<time>2010-07-17T09:27:11Z</time>
<desc>lat.=55.781548, lon.=26.357998, Alt.=155.283325m. Speed=0.072000m/h.</desc>
<speed>0.020000</speed>
</trkpt>
<trkpt lat="55.781548" lon="26.357998">
<ele>155.291138</ele>
<time>2010-07-17T09:27:12Z</time>
<desc>lat.=55.781548, lon.=26.357998, Alt.=155.291138m. Speed=0.036000m/h.</desc>
<speed>0.010000</speed>
</trkpt>
<trkpt lat="55.781548" lon="26.357998">
<ele>155.306763</ele>
<time>2010-07-17T09:27:13Z</time>
<desc>lat.=55.781548, lon.=26.357998, Alt.=155.306763m. Speed=0.072000m/h.</desc>
<speed>0.020000</speed>
</trkpt>
<trkpt lat="55.781548" lon="26.357998">
<ele>155.318481</ele>
<time>2010-07-17T09:27:14Z</time>
<desc>lat.=55.781548, lon.=26.357998, Alt.=155.318481m. Speed=0.000000m/h.</desc>
<speed>0.000000</speed>
</trkpt>
<trkpt lat="55.781548" lon="26.357998">
<ele>155.326294</ele>
<time>2010-07-17T09:27:15Z</time>
<desc>lat.=55.781548, lon.=26.357998, Alt.=155.326294m. Speed=0.000000m/h.</desc>
<speed>0.000000</speed>
</trkpt>
<trkpt lat="55.781548" lon="26.357998">
<ele>155.334106</ele>
<time>2010-07-17T09:27:16Z</time>
<desc>lat.=55.781548, lon.=26.357998, Alt.=155.334106m. Speed=0.000000m/h.</desc>
<speed>0.000000</speed>
</trkpt>
<trkpt lat="55.781548" lon="26.357998">
<ele>155.345825</ele>
<time>2010-07-17T09:27:17Z</time>
<desc>lat.=55.781548, lon.=26.357998, Alt.=155.345825m. Speed=0.036000m/h.</desc>
<speed>0.010000</speed>
</trkpt>
<trkpt lat="55.781548" lon="26.357998">
<ele>155.349731</ele>
<time>2010-07-17T09:27:18Z</time>
<desc>lat.=55.781548, lon.=26.357998, Alt.=155.349731m. Speed=0.036000m/h.</desc>
<speed>0.010000</speed>
</trkpt>
<trkpt lat="55.781548" lon="26.358000">
<ele>155.353638</ele>
<time>2010-07-17T09:27:19Z</time>
<desc>lat.=55.781548, lon.=26.358000, Alt.=155.353638m. Speed=0.036000m/h.</desc>
<speed>0.010000</speed>
</trkpt>
<trkpt lat="55.781548" lon="26.358000">
<ele>155.357544</ele>
<time>2010-07-17T09:27:20Z</time>
<desc>lat.=55.781548, lon.=26.358000, Alt.=155.357544m. Speed=0.072000m/h.</desc>
<speed>0.020000</speed>
</trkpt>
<trkpt lat="55.781548" lon="26.358000">
<ele>155.357544</ele>
<time>2010-07-17T09:27:21Z</time>
<desc>lat.=55.781548, lon.=26.358000, Alt.=155.357544m. Speed=0.108000m/h.</desc>
<speed>0.030000</speed>
</trkpt>
<trkpt lat="55.781548" lon="26.358000">
<ele>155.353638</ele>
<time>2010-07-17T09:27:22Z</time>
<desc>lat.=55.781548, lon.=26.358000, Alt.=155.353638m. Speed=0.000000m/h.</desc>
<speed>0.000000</speed>
</trkpt>
<trkpt lat="55.781548" lon="26.358000">
<ele>155.357544</ele>
<time>2010-07-17T09:27:23Z</time>
<desc>lat.=55.781548, lon.=26.358000, Alt.=155.357544m. Speed=0.108000m/h.</desc>
<speed>0.030000</speed>
</trkpt>
<trkpt lat="55.781548" lon="26.358000">
<ele>155.353638</ele>
<time>2010-07-17T09:27:24Z</time>
<desc>lat.=55.781548, lon.=26.358000, Alt.=155.353638m. Speed=0.036000m/h.</desc>
<speed>0.010000</speed>
</trkpt>
<trkpt lat="55.781548" lon="26.358000">
<ele>155.349731</ele>
<time>2010-07-17T09:27:25Z</time>
<desc>lat.=55.781548, lon.=26.358000, Alt.=155.349731m. Speed=0.036000m/h.</desc>
<speed>0.010000</speed>
</trkpt>
<trkpt lat="55.781548" lon="26.358000">
<ele>155.341919</ele>
<time>2010-07-17T09:27:26Z</time>
<desc>lat.=55.781548, lon.=26.358000, Alt.=155.341919m. Speed=0.072000m/h.</desc>
<speed>0.020000</speed>
</trkpt>
<trkpt lat="55.781548" lon="26.358000">
<ele>155.334106</ele>
<time>2010-07-17T09:27:27Z</time>
<desc>lat.=55.781548, lon.=26.358000, Alt.=155.334106m. Speed=0.036000m/h.</desc>
<speed>0.010000</speed>
</trkpt>
<trkpt lat="55.781548" lon="26.358000">
<ele>155.326294</ele>
<time>2010-07-17T09:27:28Z</time>
<desc>lat.=55.781548, lon.=26.358000, Alt.=155.326294m. Speed=0.036000m/h.</desc>
<speed>0.010000</speed>
</trkpt>
<trkpt lat="55.781548" lon="26.358000">
<ele>155.322388</ele>
<time>2010-07-17T09:27:29Z</time>
<desc>lat.=55.781548, lon.=26.358000, Alt.=155.322388m. Speed=0.072000m/h.</desc>
<speed>0.020000</speed>
</trkpt>
<trkpt lat="55.781548" lon="26.358000">
<ele>155.318481</ele>
<time>2010-07-17T09:27:30Z</time>
<desc>lat.=55.781548, lon.=26.358000, Alt.=155.318481m. Speed=0.108000m/h.</desc>
<speed>0.030000</speed>
</trkpt>
<trkpt lat="55.781548" lon="26.358000">
<ele>155.314575</ele>
<time>2010-07-17T09:27:31Z</time>
<desc>lat.=55.781548, lon.=26.358000, Alt.=155.314575m. Speed=0.072000m/h.</desc>
<speed>0.020000</speed>
</trkpt>
<trkpt lat="55.781548" lon="26.358000">
<ele>155.310669</ele>
<time>2010-07-17T09:27:32Z</time>
<desc>lat.=55.781548, lon.=26.358000, Alt.=155.310669m. Speed=0.000000m/h.</desc>
<speed>0.000000</speed>
</trkpt>
<trkpt lat="55.781548" lon="26.358000">
<ele>155.306763</ele>
<time>2010-07-17T09:27:33Z</time>
<desc>lat.=55.781548, lon.=26.358000, Alt.=155.306763m. Speed=0.036000m/h.</desc>
<speed>0.010000</speed>
</trkpt>
<trkpt lat="55.781544" lon="26.358000">
<ele>155.298950</ele>
<time>2010-07-17T09:27:34Z</time>
<desc>lat.=55.781544, lon.=26.358000, Alt.=155.298950m. Speed=0.072000m/h.</desc>
<speed>0.020000</speed>
</trkpt>
<trkpt lat="55.781544" lon="26.358002">
<ele>155.295044</ele>
<time>2010-07-17T09:27:35Z</time>
<desc>lat.=55.781544, lon.=26.358002, Alt.=155.295044m. Speed=0.072000m/h.</desc>
<speed>0.020000</speed>
</trkpt>
<trkpt lat="55.781544" lon="26.358002">
<ele>155.291138</ele>
<time>2010-07-17T09:27:36Z</time>
<desc>lat.=55.781544, lon.=26.358002, Alt.=155.291138m. Speed=0.036000m/h.</desc>
<speed>0.010000</speed>
</trkpt>
<trkpt lat="55.781544" lon="26.358002">
<ele>155.291138</ele>
<time>2010-07-17T09:27:37Z</time>
<desc>lat.=55.781544, lon.=26.358002, Alt.=155.291138m. Speed=0.036000m/h.</desc>
<speed>0.010000</speed>
</trkpt>
<trkpt lat="55.781544" lon="26.358002">
<ele>155.295044</ele>
<time>2010-07-17T09:27:38Z</time>
<desc>lat.=55.781544, lon.=26.358002, Alt.=155.295044m. Speed=0.036000m/h.</desc>
<speed>0.010000</speed>
</trkpt>
<trkpt lat="55.781544" lon="26.358002">
<ele>155.295044</ele>
<time>2010-07-17T09:27:39Z</time>
<desc>lat.=55.781544, lon.=26.358002, Alt.=155.295044m. Speed=0.036000m/h.</desc>
<speed>0.010000</speed>
</trkpt>
<trkpt lat="55.781544" lon="26.358002">
<ele>155.291138</ele>
<time>2010-07-17T09:27:40Z</time>
<desc>lat.=55.781544, lon.=26.358002, Alt.=155.291138m. Speed=0.036000m/h.</desc>
<speed>0.010000</speed>
</trkpt>
<trkpt lat="55.781544" lon="26.358002">
<ele>155.283325</ele>
<time>2010-07-17T09:27:41Z</time>
<desc>lat.=55.781544, lon.=26.358002, Alt.=155.283325m. Speed=0.252000m/h.</desc>
<speed>0.070000</speed>
</trkpt>
<trkpt lat="55.781544" lon="26.358002">
<ele>155.291138</ele>
<time>2010-07-17T09:27:42Z</time>
<desc>lat.=55.781544, lon.=26.358002, Alt.=155.291138m. Speed=0.180000m/h.</desc>
<speed>0.050000</speed>
</trkpt>
<trkpt lat="55.781544" lon="26.358002">
<ele>155.287231</ele>
<time>2010-07-17T09:27:43Z</time>
<desc>lat.=55.781544, lon.=26.358002, Alt.=155.287231m. Speed=0.036000m/h.</desc>
<speed>0.010000</speed>
</trkpt>
<trkpt lat="55.781544" lon="26.358002">
<ele>155.291138</ele>
<time>2010-07-17T09:27:44Z</time>
<desc>lat.=55.781544, lon.=26.358002, Alt.=155.291138m. Speed=0.180000m/h.</desc>
<speed>0.050000</speed>
</trkpt>
<trkpt lat="55.781544" lon="26.358002">
<ele>155.287231</ele>
<time>2010-07-17T09:27:45Z</time>
<desc>lat.=55.781544, lon.=26.358002, Alt.=155.287231m. Speed=0.036000m/h.</desc>
<speed>0.010000</speed>
</trkpt>
<trkpt lat="55.781544" lon="26.358002">
<ele>155.287231</ele>
<time>2010-07-17T09:27:46Z</time>
<desc>lat.=55.781544, lon.=26.358002, Alt.=155.287231m. Speed=0.000000m/h.</desc>
<speed>0.000000</speed>
</trkpt>
<trkpt lat="55.781544" lon="26.358002">
<ele>155.291138</ele>
<time>2010-07-17T09:27:47Z</time>
<desc>lat.=55.781544, lon.=26.358002, Alt.=155.291138m. Speed=0.036000m/h.</desc>
<speed>0.010000</speed>
</trkpt>
<trkpt lat="55.781544" lon="26.358002">
<ele>155.302856</ele>
<time>2010-07-17T09:27:48Z</time>
<desc>lat.=55.781544, lon.=26.358002, Alt.=155.302856m. Speed=0.036000m/h.</desc>
<speed>0.010000</speed>
</trkpt>
<trkpt lat="55.781544" lon="26.358002">
<ele>155.310669</ele>
<time>2010-07-17T09:27:49Z</time>
<desc>lat.=55.781544, lon.=26.358002, Alt.=155.310669m. Speed=0.072000m/h.</desc>
<speed>0.020000</speed>
</trkpt>
<trkpt lat="55.781544" lon="26.358002">
<ele>155.322388</ele>
<time>2010-07-17T09:27:50Z</time>
<desc>lat.=55.781544, lon.=26.358002, Alt.=155.322388m. Speed=0.036000m/h.</desc>
<speed>0.010000</speed>
</trkpt>
<trkpt lat="55.781544" lon="26.358002">
<ele>155.334106</ele>
<time>2010-07-17T09:27:51Z</time>
<desc>lat.=55.781544, lon.=26.358002, Alt.=155.334106m. Speed=0.036000m/h.</desc>
<speed>0.010000</speed>
</trkpt>
<trkpt lat="55.781544" lon="26.358002">
<ele>155.345825</ele>
<time>2010-07-17T09:27:52Z</time>
<desc>lat.=55.781544, lon.=26.358002, Alt.=155.345825m. Speed=0.000000m/h.</desc>
<speed>0.000000</speed>
</trkpt>
<trkpt lat="55.781544" lon="26.358002">
<ele>155.353638</ele>
<time>2010-07-17T09:27:53Z</time>
<desc>lat.=55.781544, lon.=26.358002, Alt.=155.353638m. Speed=0.000000m/h.</desc>
<speed>0.000000</speed>
</trkpt>
<trkpt lat="55.781544" lon="26.358002">
<ele>155.357544</ele>
<time>2010-07-17T09:27:54Z</time>
<desc>lat.=55.781544, lon.=26.358002, Alt.=155.357544m. Speed=0.036000m/h.</desc>
<speed>0.010000</speed>
</trkpt>
<trkpt lat="55.781544" lon="26.358002">
<ele>155.361450</ele>
<time>2010-07-17T09:27:55Z</time>
<desc>lat.=55.781544, lon.=26.358002, Alt.=155.361450m. Speed=0.000000m/h.</desc>
<speed>0.000000</speed>
</trkpt>
<trkpt lat="55.781544" lon="26.358002">
<ele>155.365356</ele>
<time>2010-07-17T09:27:56Z</time>
<desc>lat.=55.781544, lon.=26.358002, Alt.=155.365356m. Speed=0.000000m/h.</desc>
<speed>0.000000</speed>
</trkpt>
<trkpt lat="55.781544" lon="26.358002">
<ele>155.369263</ele>
<time>2010-07-17T09:27:57Z</time>
<desc>lat.=55.781544, lon.=26.358002, Alt.=155.369263m. Speed=0.000000m/h.</desc>
<speed>0.000000</speed>
</trkpt>
<trkpt lat="55.781544" lon="26.358002">
<ele>155.373169</ele>
<time>2010-07-17T09:27:58Z</time>
<desc>lat.=55.781544, lon.=26.358002, Alt.=155.373169m. Speed=0.000000m/h.</desc>
<speed>0.000000</speed>
</trkpt>
<trkpt lat="55.781544" lon="26.358002">
<ele>155.377075</ele>
<time>2010-07-17T09:27:59Z</time>
<desc>lat.=55.781544, lon.=26.358002, Alt.=155.377075m. Speed=0.000000m/h.</desc>
<speed>0.000000</speed>
</trkpt>
<trkpt lat="55.781544" lon="26.358002">
<ele>155.380981</ele>
<time>2010-07-17T09:28:00Z</time>
<desc>lat.=55.781544, lon.=26.358002, Alt.=155.380981m. Speed=0.036000m/h.</desc>
<speed>0.010000</speed>
</trkpt>
<trkpt lat="55.781544" lon="26.358002">
<ele>155.380981</ele>
<time>2010-07-17T09:28:01Z</time>
<desc>lat.=55.781544, lon.=26.358002, Alt.=155.380981m. Speed=0.036000m/h.</desc>
<speed>0.010000</speed>
</trkpt>
<trkpt lat="55.781544" lon="26.358002">
<ele>155.384888</ele>
<time>2010-07-17T09:28:02Z</time>
<desc>lat.=55.781544, lon.=26.358002, Alt.=155.384888m. Speed=0.036000m/h.</desc>
<speed>0.010000</speed>
</trkpt>
<trkpt lat="55.781544" lon="26.358002">
<ele>155.380981</ele>
<time>2010-07-17T09:28:03Z</time>
<desc>lat.=55.781544, lon.=26.358002, Alt.=155.380981m. Speed=0.000000m/h.</desc>
<speed>0.000000</speed>
</trkpt>
<trkpt lat="55.781544" lon="26.358002">
<ele>155.377075</ele>
<time>2010-07-17T09:28:04Z</time>
<desc>lat.=55.781544, lon.=26.358002, Alt.=155.377075m. Speed=0.036000m/h.</desc>
<speed>0.010000</speed>
</trkpt>
<trkpt lat="55.781544" lon="26.358002">
<ele>155.377075</ele>
<time>2010-07-17T09:28:05Z</time>
<desc>lat.=55.781544, lon.=26.358002, Alt.=155.377075m. Speed=0.000000m/h.</desc>
<speed>0.000000</speed>
</trkpt>
<trkpt lat="55.781544" lon="26.358002">
<ele>155.380981</ele>
<time>2010-07-17T09:28:06Z</time>
<desc>lat.=55.781544, lon.=26.358002, Alt.=155.380981m. Speed=0.288000m/h.</desc>
<speed>0.080000</speed>
</trkpt>
<trkpt lat="55.781544" lon="26.358002">
<ele>155.384888</ele>
<time>2010-07-17T09:28:07Z</time>
<desc>lat.=55.781544, lon.=26.358002, Alt.=155.384888m. Speed=0.072000m/h.</desc>
<speed>0.020000</speed>
</trkpt>
<trkpt lat="55.781544" lon="26.358002">
<ele>155.384888</ele>
<time>2010-07-17T09:28:08Z</time>
<desc>lat.=55.781544, lon.=26.358002, Alt.=155.384888m. Speed=0.036000m/h.</desc>
<speed>0.010000</speed>
</trkpt>
<trkpt lat="55.781544" lon="26.358002">
<ele>155.380981</ele>
<time>2010-07-17T09:28:09Z</time>
<desc>lat.=55.781544, lon.=26.358002, Alt.=155.380981m. Speed=0.036000m/h.</desc>
<speed>0.010000</speed>
</trkpt>
<trkpt lat="55.781544" lon="26.358002">
<ele>155.380981</ele>
<time>2010-07-17T09:28:10Z</time>
<desc>lat.=55.781544, lon.=26.358002, Alt.=155.380981m. Speed=0.036000m/h.</desc>
<speed>0.010000</speed>
</trkpt>
<trkpt lat="55.781544" lon="26.358002">
<ele>155.377075</ele>
<time>2010-07-17T09:28:11Z</time>
<desc>lat.=55.781544, lon.=26.358002, Alt.=155.377075m. Speed=0.108000m/h.</desc>
<speed>0.030000</speed>
</trkpt>
<trkpt lat="55.781544" lon="26.358002">
<ele>155.377075</ele>
<time>2010-07-17T09:28:12Z</time>
<desc>lat.=55.781544, lon.=26.358002, Alt.=155.377075m. Speed=0.000000m/h.</desc>
<speed>0.000000</speed>
</trkpt>
<trkpt lat="55.781544" lon="26.358002">
<ele>155.377075</ele>
<time>2010-07-17T09:28:13Z</time>
<desc>lat.=55.781544, lon.=26.358002, Alt.=155.377075m. Speed=0.036000m/h.</desc>
<speed>0.010000</speed>
</trkpt>
<trkpt lat="55.781544" lon="26.358002">
<ele>155.377075</ele>
<time>2010-07-17T09:28:14Z</time>
<desc>lat.=55.781544, lon.=26.358002, Alt.=155.377075m. Speed=0.072000m/h.</desc>
<speed>0.020000</speed>
</trkpt>
<trkpt lat="55.781544" lon="26.358002">
<ele>155.377075</ele>
<time>2010-07-17T09:28:15Z</time>
<desc>lat.=55.781544, lon.=26.358002, Alt.=155.377075m. Speed=0.144000m/h.</desc>
<speed>0.040000</speed>
</trkpt>
<trkpt lat="55.781544" lon="26.358002">
<ele>155.373169</ele>
<time>2010-07-17T09:28:16Z</time>
<desc>lat.=55.781544, lon.=26.358002, Alt.=155.373169m. Speed=0.144000m/h.</desc>
<speed>0.040000</speed>
</trkpt>
<trkpt lat="55.781544" lon="26.358002">
<ele>155.373169</ele>
<time>2010-07-17T09:28:17Z</time>
<desc>lat.=55.781544, lon.=26.358002, Alt.=155.373169m. Speed=0.036000m/h.</desc>
<speed>0.010000</speed>
</trkpt>
<trkpt lat="55.781544" lon="26.358002">
<ele>155.377075</ele>
<time>2010-07-17T09:28:18Z</time>
<desc>lat.=55.781544, lon.=26.358002, Alt.=155.377075m. Speed=0.036000m/h.</desc>
<speed>0.010000</speed>
</trkpt>
<trkpt lat="55.781544" lon="26.358002">
<ele>155.380981</ele>
<time>2010-07-17T09:28:19Z</time>
<desc>lat.=55.781544, lon.=26.358002, Alt.=155.380981m. Speed=0.000000m/h.</desc>
<speed>0.000000</speed>
</trkpt>
<trkpt lat="55.781544" lon="26.358002">
<ele>155.377075</ele>
<time>2010-07-17T09:28:20Z</time>
<desc>lat.=55.781544, lon.=26.358002, Alt.=155.377075m. Speed=0.036000m/h.</desc>
<speed>0.010000</speed>
</trkpt>
<trkpt lat="55.781544" lon="26.358002">
<ele>155.377075</ele>
<time>2010-07-17T09:28:21Z</time>
<desc>lat.=55.781544, lon.=26.358002, Alt.=155.377075m. Speed=0.000000m/h.</desc>
<speed>0.000000</speed>
</trkpt>
<trkpt lat="55.781544" lon="26.358002">
<ele>155.377075</ele>
<time>2010-07-17T09:28:22Z</time>
<desc>lat.=55.781544, lon.=26.358002, Alt.=155.377075m. Speed=0.036000m/h.</desc>
<speed>0.010000</speed>
</trkpt>
<trkpt lat="55.781544" lon="26.358002">
<ele>155.377075</ele>
<time>2010-07-17T09:28:23Z</time>
<desc>lat.=55.781544, lon.=26.358002, Alt.=155.377075m. Speed=0.036000m/h.</desc>
<speed>0.010000</speed>
</trkpt>
<trkpt lat="55.781544" lon="26.358002">
<ele>155.380981</ele>
<time>2010-07-17T09:28:24Z</time>
<desc>lat.=55.781544, lon.=26.358002, Alt.=155.380981m. Speed=0.036000m/h.</desc>
<speed>0.010000</speed>
</trkpt>
<trkpt lat="55.781544" lon="26.358002">
<ele>155.384888</ele>
<time>2010-07-17T09:28:25Z</time>
<desc>lat.=55.781544, lon.=26.358002, Alt.=155.384888m. Speed=0.036000m/h.</desc>
<speed>0.010000</speed>
</trkpt>
<trkpt lat="55.781544" lon="26.358002">
<ele>155.384888</ele>
<time>2010-07-17T09:28:26Z</time>
<desc>lat.=55.781544, lon.=26.358002, Alt.=155.384888m. Speed=0.036000m/h.</desc>
<speed>0.010000</speed>
</trkpt>
<trkpt lat="55.781544" lon="26.358002">
<ele>155.384888</ele>
<time>2010-07-17T09:28:27Z</time>
<desc>lat.=55.781544, lon.=26.358002, Alt.=155.384888m. Speed=0.036000m/h.</desc>
<speed>0.010000</speed>
</trkpt>
<trkpt lat="55.781544" lon="26.358002">
<ele>155.384888</ele>
<time>2010-07-17T09:28:28Z</time>
<desc>lat.=55.781544, lon.=26.358002, Alt.=155.384888m. Speed=0.000000m/h.</desc>
<speed>0.000000</speed>
</trkpt>
<trkpt lat="55.781544" lon="26.358002">
<ele>155.384888</ele>
<time>2010-07-17T09:28:29Z</time>
<desc>lat.=55.781544, lon.=26.358002, Alt.=155.384888m. Speed=0.036000m/h.</desc>
<speed>0.010000</speed>
</trkpt>
<trkpt lat="55.781544" lon="26.358002">
<ele>155.380981</ele>
<time>2010-07-17T09:28:30Z</time>
<desc>lat.=55.781544, lon.=26.358002, Alt.=155.380981m. Speed=0.036000m/h.</desc>
<speed>0.010000</speed>
</trkpt>
<trkpt lat="55.781544" lon="26.358002">
<ele>155.377075</ele>
<time>2010-07-17T09:28:31Z</time>
<desc>lat.=55.781544, lon.=26.358002, Alt.=155.377075m. Speed=0.000000m/h.</desc>
<speed>0.000000</speed>
</trkpt>
<trkpt lat="55.781544" lon="26.358002">
<ele>155.377075</ele>
<time>2010-07-17T09:28:32Z</time>
<desc>lat.=55.781544, lon.=26.358002, Alt.=155.377075m. Speed=0.000000m/h.</desc>
<speed>0.000000</speed>
</trkpt>
<trkpt lat="55.781544" lon="26.358002">
<ele>155.377075</ele>
<time>2010-07-17T09:28:33Z</time>
<desc>lat.=55.781544, lon.=26.358002, Alt.=155.377075m. Speed=0.000000m/h.</desc>
<speed>0.000000</speed>
</trkpt>
<trkpt lat="55.781544" lon="26.358004">
<ele>155.377075</ele>
<time>2010-07-17T09:28:34Z</time>
<desc>lat.=55.781544, lon.=26.358004, Alt.=155.377075m. Speed=0.000000m/h.</desc>
<speed>0.000000</speed>
</trkpt>
<trkpt lat="55.781544" lon="26.358004">
<ele>155.377075</ele>
<time>2010-07-17T09:28:35Z</time>
<desc>lat.=55.781544, lon.=26.358004, Alt.=155.377075m. Speed=0.000000m/h.</desc>
<speed>0.000000</speed>
</trkpt>
<trkpt lat="55.781544" lon="26.358004">
<ele>155.380981</ele>
<time>2010-07-17T09:28:36Z</time>
<desc>lat.=55.781544, lon.=26.358004, Alt.=155.380981m. Speed=0.000000m/h.</desc>
<speed>0.000000</speed>
</trkpt>
<trkpt lat="55.781544" lon="26.358004">
<ele>155.380981</ele>
<time>2010-07-17T09:28:37Z</time>
<desc>lat.=55.781544, lon.=26.358004, Alt.=155.380981m. Speed=0.036000m/h.</desc>
<speed>0.010000</speed>
</trkpt>
<trkpt lat="55.781544" lon="26.358004">
<ele>155.384888</ele>
<time>2010-07-17T09:28:38Z</time>
<desc>lat.=55.781544, lon.=26.358004, Alt.=155.384888m. Speed=0.036000m/h.</desc>
<speed>0.010000</speed>
</trkpt>
<trkpt lat="55.781544" lon="26.358004">
<ele>155.380981</ele>
<time>2010-07-17T09:28:39Z</time>
<desc>lat.=55.781544, lon.=26.358004, Alt.=155.380981m. Speed=0.072000m/h.</desc>
<speed>0.020000</speed>
</trkpt>
<trkpt lat="55.781544" lon="26.358004">
<ele>155.384888</ele>
<time>2010-07-17T09:28:40Z</time>
<desc>lat.=55.781544, lon.=26.358004, Alt.=155.384888m. Speed=0.072000m/h.</desc>
<speed>0.020000</speed>
</trkpt>
<trkpt lat="55.781544" lon="26.358004">
<ele>155.380981</ele>
<time>2010-07-17T09:28:41Z</time>
<desc>lat.=55.781544, lon.=26.358004, Alt.=155.380981m. Speed=0.144000m/h.</desc>
<speed>0.040000</speed>
</trkpt>
<trkpt lat="55.781544" lon="26.358004">
<ele>155.384888</ele>
<time>2010-07-17T09:28:42Z</time>
<desc>lat.=55.781544, lon.=26.358004, Alt.=155.384888m. Speed=0.288000m/h.</desc>
<speed>0.080000</speed>
</trkpt>
<trkpt lat="55.781544" lon="26.358004">
<ele>155.384888</ele>
<time>2010-07-17T09:28:43Z</time>
<desc>lat.=55.781544, lon.=26.358004, Alt.=155.384888m. Speed=0.144000m/h.</desc>
<speed>0.040000</speed>
</trkpt>
<trkpt lat="55.781544" lon="26.358004">
<ele>155.404419</ele>
<time>2010-07-17T09:28:44Z</time>
<desc>lat.=55.781544, lon.=26.358004, Alt.=155.404419m. Speed=0.252000m/h.</desc>
<speed>0.070000</speed>
</trkpt>
<trkpt lat="55.781544" lon="26.358004">
<ele>155.400513</ele>
<time>2010-07-17T09:28:45Z</time>
<desc>lat.=55.781544, lon.=26.358004, Alt.=155.400513m. Speed=0.108000m/h.</desc>
<speed>0.030000</speed>
</trkpt>
<trkpt lat="55.781544" lon="26.358004">
<ele>155.400513</ele>
<time>2010-07-17T09:28:46Z</time>
<desc>lat.=55.781544, lon.=26.358004, Alt.=155.400513m. Speed=0.252000m/h.</desc>
<speed>0.070000</speed>
</trkpt>
<trkpt lat="55.781544" lon="26.358004">
<ele>155.396606</ele>
<time>2010-07-17T09:28:47Z</time>
<desc>lat.=55.781544, lon.=26.358004, Alt.=155.396606m. Speed=0.144000m/h.</desc>
<speed>0.040000</speed>
</trkpt>
<trkpt lat="55.781544" lon="26.358004">
<ele>155.392700</ele>
<time>2010-07-17T09:28:48Z</time>
<desc>lat.=55.781544, lon.=26.358004, Alt.=155.392700m. Speed=0.252000m/h.</desc>
<speed>0.070000</speed>
</trkpt>
<trkpt lat="55.781544" lon="26.358004">
<ele>155.388794</ele>
<time>2010-07-17T09:28:49Z</time>
<desc>lat.=55.781544, lon.=26.358004, Alt.=155.388794m. Speed=0.180000m/h.</desc>
<speed>0.050000</speed>
</trkpt>
<trkpt lat="55.781544" lon="26.358004">
<ele>155.388794</ele>
<time>2010-07-17T09:28:50Z</time>
<desc>lat.=55.781544, lon.=26.358004, Alt.=155.388794m. Speed=0.252000m/h.</desc>
<speed>0.070000</speed>
</trkpt>
<trkpt lat="55.781544" lon="26.358004">
<ele>155.388794</ele>
<time>2010-07-17T09:28:51Z</time>
<desc>lat.=55.781544, lon.=26.358004, Alt.=155.388794m. Speed=0.144000m/h.</desc>
<speed>0.040000</speed>
</trkpt>
<trkpt lat="55.781544" lon="26.358006">
<ele>155.384888</ele>
<time>2010-07-17T09:28:52Z</time>
<desc>lat.=55.781544, lon.=26.358006, Alt.=155.384888m. Speed=0.036000m/h.</desc>
<speed>0.010000</speed>
</trkpt>
<trkpt lat="55.781544" lon="26.358006">
<ele>155.384888</ele>
<time>2010-07-17T09:28:53Z</time>
<desc>lat.=55.781544, lon.=26.358006, Alt.=155.384888m. Speed=0.036000m/h.</desc>
<speed>0.010000</speed>
</trkpt>
<trkpt lat="55.781544" lon="26.358006">
<ele>155.380981</ele>
<time>2010-07-17T09:28:54Z</time>
<desc>lat.=55.781544, lon.=26.358006, Alt.=155.380981m. Speed=0.072000m/h.</desc>
<speed>0.020000</speed>
</trkpt>
<trkpt lat="55.781544" lon="26.358006">
<ele>155.380981</ele>
<time>2010-07-17T09:28:55Z</time>
<desc>lat.=55.781544, lon.=26.358006, Alt.=155.380981m. Speed=0.000000m/h.</desc>
<speed>0.000000</speed>
</trkpt>
<trkpt lat="55.781544" lon="26.358006">
<ele>155.380981</ele>
<time>2010-07-17T09:28:56Z</time>
<desc>lat.=55.781544, lon.=26.358006, Alt.=155.380981m. Speed=0.036000m/h.</desc>
<speed>0.010000</speed>
</trkpt>
<trkpt lat="55.781544" lon="26.358006">
<ele>155.384888</ele>
<time>2010-07-17T09:28:57Z</time>
<desc>lat.=55.781544, lon.=26.358006, Alt.=155.384888m. Speed=0.144000m/h.</desc>
<speed>0.040000</speed>
</trkpt>
<trkpt lat="55.781544" lon="26.358006">
<ele>155.384888</ele>
<time>2010-07-17T09:28:58Z</time>
<desc>lat.=55.781544, lon.=26.358006, Alt.=155.384888m. Speed=0.000000m/h.</desc>
<speed>0.000000</speed>
</trkpt>
<trkpt lat="55.781544" lon="26.358006">
<ele>155.388794</ele>
<time>2010-07-17T09:28:59Z</time>
<desc>lat.=55.781544, lon.=26.358006, Alt.=155.388794m. Speed=0.072000m/h.</desc>
<speed>0.020000</speed>
</trkpt>
<trkpt lat="55.781544" lon="26.358006">
<ele>155.388794</ele>
<time>2010-07-17T09:29:00Z</time>
<desc>lat.=55.781544, lon.=26.358006, Alt.=155.388794m. Speed=0.036000m/h.</desc>
<speed>0.010000</speed>
</trkpt>
<trkpt lat="55.781544" lon="26.358006">
<ele>155.392700</ele>
<time>2010-07-17T09:29:01Z</time>
<desc>lat.=55.781544, lon.=26.358006, Alt.=155.392700m. Speed=0.036000m/h.</desc>
<speed>0.010000</speed>
</trkpt>
<trkpt lat="55.781544" lon="26.358006">
<ele>155.400513</ele>
<time>2010-07-17T09:29:02Z</time>
<desc>lat.=55.781544, lon.=26.358006, Alt.=155.400513m. Speed=0.072000m/h.</desc>
<speed>0.020000</speed>
</trkpt>
<trkpt lat="55.781544" lon="26.358006">
<ele>155.400513</ele>
<time>2010-07-17T09:29:03Z</time>
<desc>lat.=55.781544, lon.=26.358006, Alt.=155.400513m. Speed=0.108000m/h.</desc>
<speed>0.030000</speed>
</trkpt>
<trkpt lat="55.781544" lon="26.358006">
<ele>155.404419</ele>
<time>2010-07-17T09:29:04Z</time>
<desc>lat.=55.781544, lon.=26.358006, Alt.=155.404419m. Speed=0.252000m/h.</desc>
<speed>0.070000</speed>
</trkpt>
<trkpt lat="55.781544" lon="26.358006">
<ele>155.408325</ele>
<time>2010-07-17T09:29:05Z</time>
<desc>lat.=55.781544, lon.=26.358006, Alt.=155.408325m. Speed=0.576000m/h.</desc>
<speed>0.160000</speed>
</trkpt>
<trkpt lat="55.781544" lon="26.358009">
<ele>155.416138</ele>
<time>2010-07-17T09:29:06Z</time>
<desc>lat.=55.781544, lon.=26.358009, Alt.=155.416138m. Speed=1.404000m/h.</desc>
<speed>0.390000</speed>
</trkpt>
<trkpt lat="55.781540" lon="26.358025">
<ele>155.576294</ele>
<time>2010-07-17T09:29:07Z</time>
<desc>lat.=55.781540, lon.=26.358025, Alt.=155.576294m. Speed=2.772000m/h.</desc>
<speed>0.770000</speed>
</trkpt>
<trkpt lat="55.781532" lon="26.358057">
<ele>156.041138</ele>
<time>2010-07-17T09:29:08Z</time>
<desc>lat.=55.781532, lon.=26.358057, Alt.=156.041138m. Speed=4.860000m/h.</desc>
<speed>1.350000</speed>
</trkpt>
<trkpt lat="55.781517" lon="26.358112">
<ele>156.611450</ele>
<time>2010-07-17T09:29:09Z</time>
<desc>lat.=55.781517, lon.=26.358112, Alt.=156.611450m. Speed=9.432000m/h.</desc>
<speed>2.620000</speed>
</trkpt>
<trkpt lat="55.781498" lon="26.358173">
<ele>157.255981</ele>
<time>2010-07-17T09:29:10Z</time>
<desc>lat.=55.781498, lon.=26.358173, Alt.=157.255981m. Speed=12.384000m/h.</desc>
<speed>3.440000</speed>
</trkpt>
<trkpt lat="55.781479" lon="26.358234">
<ele>157.974731</ele>
<time>2010-07-17T09:29:11Z</time>
<desc>lat.=55.781479, lon.=26.358234, Alt.=157.974731m. Speed=12.024000m/h.</desc>
<speed>3.340000</speed>
</trkpt>
<trkpt lat="55.781460" lon="26.358299">
<ele>158.490356</ele>
<time>2010-07-17T09:29:12Z</time>
<desc>lat.=55.781460, lon.=26.358299, Alt.=158.490356m. Speed=15.264000m/h.</desc>
<speed>4.240000</speed>
</trkpt>
<trkpt lat="55.781441" lon="26.358374">
<ele>158.916138</ele>
<time>2010-07-17T09:29:13Z</time>
<desc>lat.=55.781441, lon.=26.358374, Alt.=158.916138m. Speed=15.984000m/h.</desc>
<speed>4.440000</speed>
</trkpt>
<trkpt lat="55.781425" lon="26.358444">
<ele>159.287231</ele>
<time>2010-07-17T09:29:14Z</time>
<desc>lat.=55.781425, lon.=26.358444, Alt.=159.287231m. Speed=15.300000m/h.</desc>
<speed>4.250000</speed>
</trkpt>
<trkpt lat="55.781410" lon="26.358517">
<ele>159.689575</ele>
<time>2010-07-17T09:29:15Z</time>
<desc>lat.=55.781410, lon.=26.358517, Alt.=159.689575m. Speed=15.588000m/h.</desc>
<speed>4.330000</speed>
</trkpt>
<trkpt lat="55.781391" lon="26.358587">
<ele>159.670044</ele>
<time>2010-07-17T09:29:16Z</time>
<desc>lat.=55.781391, lon.=26.358587, Alt.=159.670044m. Speed=15.372000m/h.</desc>
<speed>4.270000</speed>
</trkpt>
<trkpt lat="55.781372" lon="26.358652">
<ele>159.713013</ele>
<time>2010-07-17T09:29:17Z</time>
<desc>lat.=55.781372, lon.=26.358652, Alt.=159.713013m. Speed=15.372000m/h.</desc>
<speed>4.270000</speed>
</trkpt>
<trkpt lat="55.781353" lon="26.358719">
<ele>159.619263</ele>
<time>2010-07-17T09:29:18Z</time>
<desc>lat.=55.781353, lon.=26.358719, Alt.=159.619263m. Speed=15.228000m/h.</desc>
<speed>4.230000</speed>
</trkpt>
<trkpt lat="55.781338" lon="26.358784">
<ele>160.002075</ele>
<time>2010-07-17T09:29:19Z</time>
<desc>lat.=55.781338, lon.=26.358784, Alt.=160.002075m. Speed=14.544000m/h.</desc>
<speed>4.040000</speed>
</trkpt>
<trkpt lat="55.781322" lon="26.358843">
<ele>160.048950</ele>
<time>2010-07-17T09:29:20Z</time>
<desc>lat.=55.781322, lon.=26.358843, Alt.=160.048950m. Speed=12.204000m/h.</desc>
<speed>3.390000</speed>
</trkpt>
<trkpt lat="55.781311" lon="26.358902">
<ele>159.654419</ele>
<time>2010-07-17T09:29:21Z</time>
<desc>lat.=55.781311, lon.=26.358902, Alt.=159.654419m. Speed=11.808000m/h.</desc>
<speed>3.280000</speed>
</trkpt>
<trkpt lat="55.781292" lon="26.358953">
<ele>159.193481</ele>
<time>2010-07-17T09:29:22Z</time>
<desc>lat.=55.781292, lon.=26.358953, Alt.=159.193481m. Speed=10.692000m/h.</desc>
<speed>2.970000</speed>
</trkpt>
<trkpt lat="55.781269" lon="26.358982">
<ele>158.853638</ele>
<time>2010-07-17T09:29:23Z</time>
<desc>lat.=55.781269, lon.=26.358982, Alt.=158.853638m. Speed=8.748000m/h.</desc>
<speed>2.430000</speed>
</trkpt>
<trkpt lat="55.781235" lon="26.358986">
<ele>158.353638</ele>
<time>2010-07-17T09:29:24Z</time>
<desc>lat.=55.781235, lon.=26.358986, Alt.=158.353638m. Speed=11.340000m/h.</desc>
<speed>3.150000</speed>
</trkpt>
<trkpt lat="55.781208" lon="26.358967">
<ele>158.341919</ele>
<time>2010-07-17T09:29:25Z</time>
<desc>lat.=55.781208, lon.=26.358967, Alt.=158.341919m. Speed=11.844000m/h.</desc>
<speed>3.290000</speed>
</trkpt>
<trkpt lat="55.781185" lon="26.358931">
<ele>158.377075</ele>
<time>2010-07-17T09:29:26Z</time>
<desc>lat.=55.781185, lon.=26.358931, Alt.=158.377075m. Speed=11.952000m/h.</desc>
<speed>3.320000</speed>
</trkpt>
<trkpt lat="55.781162" lon="26.358896">
<ele>157.853638</ele>
<time>2010-07-17T09:29:27Z</time>
<desc>lat.=55.781162, lon.=26.358896, Alt.=157.853638m. Speed=12.096000m/h.</desc>
<speed>3.360000</speed>
</trkpt>
<trkpt lat="55.781139" lon="26.358850">
<ele>157.611450</ele>
<time>2010-07-17T09:29:28Z</time>
<desc>lat.=55.781139, lon.=26.358850, Alt.=157.611450m. Speed=13.212000m/h.</desc>
<speed>3.670000</speed>
</trkpt>
<trkpt lat="55.781116" lon="26.358799">
<ele>157.912231</ele>
<time>2010-07-17T09:29:29Z</time>
<desc>lat.=55.781116, lon.=26.358799, Alt.=157.912231m. Speed=15.552000m/h.</desc>
<speed>4.320000</speed>
</trkpt>
<trkpt lat="55.781078" lon="26.358749">
<ele>158.205200</ele>
<time>2010-07-17T09:29:30Z</time>
<desc>lat.=55.781078, lon.=26.358749, Alt.=158.205200m. Speed=16.524000m/h.</desc>
<speed>4.590000</speed>
</trkpt>
<trkpt lat="55.781040" lon="26.358713">
<ele>158.361450</ele>
<time>2010-07-17T09:29:31Z</time>
<desc>lat.=55.781040, lon.=26.358713, Alt.=158.361450m. Speed=17.028000m/h.</desc>
<speed>4.730000</speed>
</trkpt>
<trkpt lat="55.781002" lon="26.358681">
<ele>158.353638</ele>
<time>2010-07-17T09:29:32Z</time>
<desc>lat.=55.781002, lon.=26.358681, Alt.=158.353638m. Speed=16.992001m/h.</desc>
<speed>4.720000</speed>
</trkpt>
<trkpt lat="55.780960" lon="26.358652">
<ele>158.697388</ele>
<time>2010-07-17T09:29:33Z</time>
<desc>lat.=55.780960, lon.=26.358652, Alt.=158.697388m. Speed=16.379999m/h.</desc>
<speed>4.550000</speed>
</trkpt>
<trkpt lat="55.780914" lon="26.358633">
<ele>157.298950</ele>
<time>2010-07-17T09:29:34Z</time>
<desc>lat.=55.780914, lon.=26.358633, Alt.=157.298950m. Speed=15.372000m/h.</desc>
<speed>4.270000</speed>
</trkpt>
<trkpt lat="55.780869" lon="26.358606">
<ele>154.287231</ele>
<time>2010-07-17T09:29:35Z</time>
<desc>lat.=55.780869, lon.=26.358606, Alt.=154.287231m. Speed=16.452000m/h.</desc>
<speed>4.570000</speed>
</trkpt>
<trkpt lat="55.780827" lon="26.358582">
<ele>153.529419</ele>
<time>2010-07-17T09:29:36Z</time>
<desc>lat.=55.780827, lon.=26.358582, Alt.=153.529419m. Speed=15.336000m/h.</desc>
<speed>4.260000</speed>
</trkpt>
<trkpt lat="55.780788" lon="26.358557">
<ele>153.170044</ele>
<time>2010-07-17T09:29:37Z</time>
<desc>lat.=55.780788, lon.=26.358557, Alt.=153.170044m. Speed=17.604000m/h.</desc>
<speed>4.890000</speed>
</trkpt>
<trkpt lat="55.780750" lon="26.358528">
<ele>152.982544</ele>
<time>2010-07-17T09:29:38Z</time>
<desc>lat.=55.780750, lon.=26.358528, Alt.=152.982544m. Speed=17.964001m/h.</desc>
<speed>4.990000</speed>
</trkpt>
<trkpt lat="55.780712" lon="26.358494">
<ele>152.923950</ele>
<time>2010-07-17T09:29:39Z</time>
<desc>lat.=55.780712, lon.=26.358494, Alt.=152.923950m. Speed=15.300000m/h.</desc>
<speed>4.250000</speed>
</trkpt>
<trkpt lat="55.780670" lon="26.358452">
<ele>152.615356</ele>
<time>2010-07-17T09:29:40Z</time>
<desc>lat.=55.780670, lon.=26.358452, Alt.=152.615356m. Speed=18.936001m/h.</desc>
<speed>5.260000</speed>
</trkpt>
<trkpt lat="55.780624" lon="26.358402">
<ele>151.927856</ele>
<time>2010-07-17T09:29:41Z</time>
<desc>lat.=55.780624, lon.=26.358402, Alt.=151.927856m. Speed=19.260000m/h.</desc>
<speed>5.350000</speed>
</trkpt>
<trkpt lat="55.780582" lon="26.358355">
<ele>151.384888</ele>
<time>2010-07-17T09:29:42Z</time>
<desc>lat.=55.780582, lon.=26.358355, Alt.=151.384888m. Speed=19.908001m/h.</desc>
<speed>5.530000</speed>
</trkpt>
<trkpt lat="55.780540" lon="26.358297">
<ele>151.560669</ele>
<time>2010-07-17T09:29:43Z</time>
<desc>lat.=55.780540, lon.=26.358297, Alt.=151.560669m. Speed=20.879999m/h.</desc>
<speed>5.800000</speed>
</trkpt>
<trkpt lat="55.780499" lon="26.358236">
<ele>151.666138</ele>
<time>2010-07-17T09:29:44Z</time>
<desc>lat.=55.780499, lon.=26.358236, Alt.=151.666138m. Speed=20.736000m/h.</desc>
<speed>5.760000</speed>
</trkpt>
<trkpt lat="55.780453" lon="26.358181">
<ele>151.478638</ele>
<time>2010-07-17T09:29:45Z</time>
<desc>lat.=55.780453, lon.=26.358181, Alt.=151.478638m. Speed=20.736000m/h.</desc>
<speed>5.760000</speed>
</trkpt>
<trkpt lat="55.780407" lon="26.358122">
<ele>151.916138</ele>
<time>2010-07-17T09:29:46Z</time>
<desc>lat.=55.780407, lon.=26.358122, Alt.=151.916138m. Speed=20.988001m/h.</desc>
<speed>5.830000</speed>
</trkpt>
<trkpt lat="55.780365" lon="26.358065">
<ele>152.013794</ele>
<time>2010-07-17T09:29:47Z</time>
<desc>lat.=55.780365, lon.=26.358065, Alt.=152.013794m. Speed=20.736000m/h.</desc>
<speed>5.760000</speed>
</trkpt>
<trkpt lat="55.780323" lon="26.358007">
<ele>152.084106</ele>
<time>2010-07-17T09:29:48Z</time>
<desc>lat.=55.780323, lon.=26.358007, Alt.=152.084106m. Speed=20.412001m/h.</desc>
<speed>5.670000</speed>
</trkpt>
<trkpt lat="55.780281" lon="26.357950">
<ele>152.052856</ele>
<time>2010-07-17T09:29:49Z</time>
<desc>lat.=55.780281, lon.=26.357950, Alt.=152.052856m. Speed=20.087999m/h.</desc>
<speed>5.580000</speed>
</trkpt>
<trkpt lat="55.780239" lon="26.357895">
<ele>152.283325</ele>
<time>2010-07-17T09:29:50Z</time>
<desc>lat.=55.780239, lon.=26.357895, Alt.=152.283325m. Speed=20.195999m/h.</desc>
<speed>5.610000</speed>
</trkpt>
<trkpt lat="55.780197" lon="26.357843">
<ele>152.248169</ele>
<time>2010-07-17T09:29:51Z</time>
<desc>lat.=55.780197, lon.=26.357843, Alt.=152.248169m. Speed=21.096001m/h.</desc>
<speed>5.860000</speed>
</trkpt>
<trkpt lat="55.780151" lon="26.357786">
<ele>152.255981</ele>
<time>2010-07-17T09:29:52Z</time>
<desc>lat.=55.780151, lon.=26.357786, Alt.=152.255981m. Speed=21.996000m/h.</desc>
<speed>6.110000</speed>
</trkpt>
<trkpt lat="55.780106" lon="26.357727">
<ele>152.295044</ele>
<time>2010-07-17T09:29:53Z</time>
<desc>lat.=55.780106, lon.=26.357727, Alt.=152.295044m. Speed=22.247999m/h.</desc>
<speed>6.180000</speed>
</trkpt>
<trkpt lat="55.780060" lon="26.357664">
<ele>152.439575</ele>
<time>2010-07-17T09:29:54Z</time>
<desc>lat.=55.780060, lon.=26.357664, Alt.=152.439575m. Speed=22.176001m/h.</desc>
<speed>6.160000</speed>
</trkpt>
<trkpt lat="55.780014" lon="26.357609">
<ele>152.298950</ele>
<time>2010-07-17T09:29:55Z</time>
<desc>lat.=55.780014, lon.=26.357609, Alt.=152.298950m. Speed=21.708000m/h.</desc>
<speed>6.030000</speed>
</trkpt>
<trkpt lat="55.779968" lon="26.357552">
<ele>152.365356</ele>
<time>2010-07-17T09:29:56Z</time>
<desc>lat.=55.779968, lon.=26.357552, Alt.=152.365356m. Speed=21.384001m/h.</desc>
<speed>5.940000</speed>
</trkpt>
<trkpt lat="55.779926" lon="26.357494">
<ele>152.252075</ele>
<time>2010-07-17T09:29:57Z</time>
<desc>lat.=55.779926, lon.=26.357494, Alt.=152.252075m. Speed=21.096001m/h.</desc>
<speed>5.860000</speed>
</trkpt>
<trkpt lat="55.779884" lon="26.357439">
<ele>152.091919</ele>
<time>2010-07-17T09:29:58Z</time>
<desc>lat.=55.779884, lon.=26.357439, Alt.=152.091919m. Speed=20.879999m/h.</desc>
<speed>5.800000</speed>
</trkpt>
<trkpt lat="55.779842" lon="26.357380">
<ele>152.005981</ele>
<time>2010-07-17T09:29:59Z</time>
<desc>lat.=55.779842, lon.=26.357380, Alt.=152.005981m. Speed=20.628000m/h.</desc>
<speed>5.730000</speed>
</trkpt>
<trkpt lat="55.779800" lon="26.357323">
<ele>151.713013</ele>
<time>2010-07-17T09:30:00Z</time>
<desc>lat.=55.779800, lon.=26.357323, Alt.=151.713013m. Speed=20.087999m/h.</desc>
<speed>5.580000</speed>
</trkpt>
<trkpt lat="55.779766" lon="26.357267">
<ele>151.498169</ele>
<time>2010-07-17T09:30:01Z</time>
<desc>lat.=55.779766, lon.=26.357267, Alt.=151.498169m. Speed=19.368000m/h.</desc>
<speed>5.380000</speed>
</trkpt>
<trkpt lat="55.779732" lon="26.357212">
<ele>151.306763</ele>
<time>2010-07-17T09:30:02Z</time>
<desc>lat.=55.779732, lon.=26.357212, Alt.=151.306763m. Speed=17.747999m/h.</desc>
<speed>4.930000</speed>
</trkpt>
<trkpt lat="55.779697" lon="26.357159">
<ele>151.170044</ele>
<time>2010-07-17T09:30:03Z</time>
<desc>lat.=55.779697, lon.=26.357159, Alt.=151.170044m. Speed=19.584000m/h.</desc>
<speed>5.440000</speed>
</trkpt>
<trkpt lat="55.779659" lon="26.357100">
<ele>151.240356</ele>
<time>2010-07-17T09:30:04Z</time>
<desc>lat.=55.779659, lon.=26.357100, Alt.=151.240356m. Speed=19.440001m/h.</desc>
<speed>5.400000</speed>
</trkpt>
<trkpt lat="55.779621" lon="26.357038">
<ele>151.048950</ele>
<time>2010-07-17T09:30:05Z</time>
<desc>lat.=55.779621, lon.=26.357038, Alt.=151.048950m. Speed=20.628000m/h.</desc>
<speed>5.730000</speed>
</trkpt>
<trkpt lat="55.779579" lon="26.356981">
<ele>151.064575</ele>
<time>2010-07-17T09:30:06Z</time>
<desc>lat.=55.779579, lon.=26.356981, Alt.=151.064575m. Speed=21.743999m/h.</desc>
<speed>6.040000</speed>
</trkpt>
<trkpt lat="55.779530" lon="26.356930">
<ele>151.095825</ele>
<time>2010-07-17T09:30:07Z</time>
<desc>lat.=55.779530, lon.=26.356930, Alt.=151.095825m. Speed=22.931999m/h.</desc>
<speed>6.370000</speed>
</trkpt>
<trkpt lat="55.779480" lon="26.356873">
<ele>151.279419</ele>
<time>2010-07-17T09:30:08Z</time>
<desc>lat.=55.779480, lon.=26.356873, Alt.=151.279419m. Speed=22.643999m/h.</desc>
<speed>6.290000</speed>
</trkpt>
<trkpt lat="55.779438" lon="26.356808">
<ele>150.795044</ele>
<time>2010-07-17T09:30:09Z</time>
<desc>lat.=55.779438, lon.=26.356808, Alt.=150.795044m. Speed=22.680000m/h.</desc>
<speed>6.300000</speed>
</trkpt>
<trkpt lat="55.779392" lon="26.356737">
<ele>150.037231</ele>
<time>2010-07-17T09:30:10Z</time>
<desc>lat.=55.779392, lon.=26.356737, Alt.=150.037231m. Speed=22.931999m/h.</desc>
<speed>6.370000</speed>
</trkpt>
<trkpt lat="55.779346" lon="26.356672">
<ele>150.017700</ele>
<time>2010-07-17T09:30:11Z</time>
<desc>lat.=55.779346, lon.=26.356672, Alt.=150.017700m. Speed=23.148001m/h.</desc>
<speed>6.430000</speed>
</trkpt>
<trkpt lat="55.779297" lon="26.356604">
<ele>149.814575</ele>
<time>2010-07-17T09:30:12Z</time>
<desc>lat.=55.779297, lon.=26.356604, Alt.=149.814575m. Speed=23.364000m/h.</desc>
<speed>6.490000</speed>
</trkpt>
<trkpt lat="55.779247" lon="26.356535">
<ele>149.623169</ele>
<time>2010-07-17T09:30:13Z</time>
<desc>lat.=55.779247, lon.=26.356535, Alt.=149.623169m. Speed=24.768000m/h.</desc>
<speed>6.880000</speed>
</trkpt>
<trkpt lat="55.779194" lon="26.356470">
<ele>149.642700</ele>
<time>2010-07-17T09:30:14Z</time>
<desc>lat.=55.779194, lon.=26.356470, Alt.=149.642700m. Speed=25.992001m/h.</desc>
<speed>7.220000</speed>
</trkpt>
<trkpt lat="55.779137" lon="26.356401">
<ele>148.771606</ele>
<time>2010-07-17T09:30:15Z</time>
<desc>lat.=55.779137, lon.=26.356401, Alt.=148.771606m. Speed=26.712000m/h.</desc>
<speed>7.420000</speed>
</trkpt>
<trkpt lat="55.779079" lon="26.356331">
<ele>148.099731</ele>
<time>2010-07-17T09:30:16Z</time>
<desc>lat.=55.779079, lon.=26.356331, Alt.=148.099731m. Speed=27.864000m/h.</desc>
<speed>7.740000</speed>
</trkpt>
<trkpt lat="55.779018" lon="26.356255">
<ele>147.681763</ele>
<time>2010-07-17T09:30:17Z</time>
<desc>lat.=55.779018, lon.=26.356255, Alt.=147.681763m. Speed=28.476000m/h.</desc>
<speed>7.910000</speed>
</trkpt>
<trkpt lat="55.778957" lon="26.356176">
<ele>147.380981</ele>
<time>2010-07-17T09:30:18Z</time>
<desc>lat.=55.778957, lon.=26.356176, Alt.=147.380981m. Speed=29.628000m/h.</desc>
<speed>8.230000</speed>
</trkpt>
<trkpt lat="55.778889" lon="26.356098">
<ele>146.513794</ele>
<time>2010-07-17T09:30:19Z</time>
<desc>lat.=55.778889, lon.=26.356098, Alt.=146.513794m. Speed=30.275999m/h.</desc>
<speed>8.410000</speed>
</trkpt>
<trkpt lat="55.778824" lon="26.356014">
<ele>146.439575</ele>
<time>2010-07-17T09:30:20Z</time>
<desc>lat.=55.778824, lon.=26.356014, Alt.=146.439575m. Speed=32.472000m/h.</desc>
<speed>9.020000</speed>
</trkpt>
<trkpt lat="55.778755" lon="26.355927">
<ele>145.798950</ele>
<time>2010-07-17T09:30:21Z</time>
<desc>lat.=55.778755, lon.=26.355927, Alt.=145.798950m. Speed=32.292000m/h.</desc>
<speed>8.970000</speed>
</trkpt>
<trkpt lat="55.778687" lon="26.355843">
<ele>145.517700</ele>
<time>2010-07-17T09:30:22Z</time>
<desc>lat.=55.778687, lon.=26.355843, Alt.=145.517700m. Speed=33.264000m/h.</desc>
<speed>9.240000</speed>
</trkpt>
<trkpt lat="55.778622" lon="26.355759">
<ele>145.642700</ele>
<time>2010-07-17T09:30:23Z</time>
<desc>lat.=55.778622, lon.=26.355759, Alt.=145.642700m. Speed=33.155998m/h.</desc>
<speed>9.210000</speed>
</trkpt>
<trkpt lat="55.778549" lon="26.355669">
<ele>145.322388</ele>
<time>2010-07-17T09:30:24Z</time>
<desc>lat.=55.778549, lon.=26.355669, Alt.=145.322388m. Speed=34.740002m/h.</desc>
<speed>9.650000</speed>
</trkpt>
<trkpt lat="55.778477" lon="26.355579">
<ele>144.693481</ele>
<time>2010-07-17T09:30:25Z</time>
<desc>lat.=55.778477, lon.=26.355579, Alt.=144.693481m. Speed=35.208000m/h.</desc>
<speed>9.780000</speed>
</trkpt>
<trkpt lat="55.778408" lon="26.355484">
<ele>144.947388</ele>
<time>2010-07-17T09:30:26Z</time>
<desc>lat.=55.778408, lon.=26.355484, Alt.=144.947388m. Speed=34.452000m/h.</desc>
<speed>9.570000</speed>
</trkpt>
<trkpt lat="55.778339" lon="26.355392">
<ele>143.986450</ele>
<time>2010-07-17T09:30:27Z</time>
<desc>lat.=55.778339, lon.=26.355392, Alt.=143.986450m. Speed=35.208000m/h.</desc>
<speed>9.780000</speed>
</trkpt>
<trkpt lat="55.778259" lon="26.355295">
<ele>143.095825</ele>
<time>2010-07-17T09:30:28Z</time>
<desc>lat.=55.778259, lon.=26.355295, Alt.=143.095825m. Speed=37.332001m/h.</desc>
<speed>10.370000</speed>
</trkpt>
<trkpt lat="55.778187" lon="26.355196">
<ele>143.033325</ele>
<time>2010-07-17T09:30:29Z</time>
<desc>lat.=55.778187, lon.=26.355196, Alt.=143.033325m. Speed=36.756001m/h.</desc>
<speed>10.210000</speed>
</trkpt>
<trkpt lat="55.778103" lon="26.355112">
<ele>142.029419</ele>
<time>2010-07-17T09:30:30Z</time>
<desc>lat.=55.778103, lon.=26.355112, Alt.=142.029419m. Speed=37.332001m/h.</desc>
<speed>10.370000</speed>
</trkpt>
<trkpt lat="55.778023" lon="26.355021">
<ele>141.338013</ele>
<time>2010-07-17T09:30:31Z</time>
<desc>lat.=55.778023, lon.=26.355021, Alt.=141.338013m. Speed=37.007999m/h.</desc>
<speed>10.280000</speed>
</trkpt>
<trkpt lat="55.777950" lon="26.354929">
<ele>141.884888</ele>
<time>2010-07-17T09:30:32Z</time>
<desc>lat.=55.777950, lon.=26.354929, Alt.=141.884888m. Speed=37.259998m/h.</desc>
<speed>10.350000</speed>
</trkpt>
<trkpt lat="55.777863" lon="26.354824">
<ele>140.810669</ele>
<time>2010-07-17T09:30:33Z</time>
<desc>lat.=55.777863, lon.=26.354824, Alt.=140.810669m. Speed=39.492001m/h.</desc>
<speed>10.970000</speed>
</trkpt>
<trkpt lat="55.777786" lon="26.354715">
<ele>140.146606</ele>
<time>2010-07-17T09:30:34Z</time>
<desc>lat.=55.777786, lon.=26.354715, Alt.=140.146606m. Speed=38.771999m/h.</desc>
<speed>10.770000</speed>
</trkpt>
<trkpt lat="55.777710" lon="26.354605">
<ele>140.209106</ele>
<time>2010-07-17T09:30:35Z</time>
<desc>lat.=55.777710, lon.=26.354605, Alt.=140.209106m. Speed=39.419998m/h.</desc>
<speed>10.949999</speed>
</trkpt>
<trkpt lat="55.777634" lon="26.354498">
<ele>139.810669</ele>
<time>2010-07-17T09:30:36Z</time>
<desc>lat.=55.777634, lon.=26.354498, Alt.=139.810669m. Speed=38.231998m/h.</desc>
<speed>10.620000</speed>
</trkpt>
<trkpt lat="55.777561" lon="26.354404">
<ele>139.830200</ele>
<time>2010-07-17T09:30:37Z</time>
<desc>lat.=55.777561, lon.=26.354404, Alt.=139.830200m. Speed=36.792000m/h.</desc>
<speed>10.220000</speed>
</trkpt>
<trkpt lat="55.777481" lon="26.354313">
<ele>139.732544</ele>
<time>2010-07-17T09:30:38Z</time>
<desc>lat.=55.777481, lon.=26.354313, Alt.=139.732544m. Speed=35.891998m/h.</desc>
<speed>9.970000</speed>
</trkpt>
<trkpt lat="55.777409" lon="26.354206">
<ele>139.904419</ele>
<time>2010-07-17T09:30:39Z</time>
<desc>lat.=55.777409, lon.=26.354206, Alt.=139.904419m. Speed=35.891998m/h.</desc>
<speed>9.970000</speed>
</trkpt>
<trkpt lat="55.777332" lon="26.354113">
<ele>139.443481</ele>
<time>2010-07-17T09:30:40Z</time>
<desc>lat.=55.777332, lon.=26.354113, Alt.=139.443481m. Speed=35.639999m/h.</desc>
<speed>9.900000</speed>
</trkpt>
<trkpt lat="55.777260" lon="26.354010">
<ele>139.052856</ele>
<time>2010-07-17T09:30:41Z</time>
<desc>lat.=55.777260, lon.=26.354010, Alt.=139.052856m. Speed=35.028000m/h.</desc>
<speed>9.730000</speed>
</trkpt>
<trkpt lat="55.777191" lon="26.353903">
<ele>139.213013</ele>
<time>2010-07-17T09:30:42Z</time>
<desc>lat.=55.777191, lon.=26.353903, Alt.=139.213013m. Speed=34.307999m/h.</desc>
<speed>9.530000</speed>
</trkpt>
<trkpt lat="55.777126" lon="26.353800">
<ele>139.451294</ele>
<time>2010-07-17T09:30:43Z</time>
<desc>lat.=55.777126, lon.=26.353800, Alt.=139.451294m. Speed=33.695999m/h.</desc>
<speed>9.360000</speed>
</trkpt>
<trkpt lat="55.777061" lon="26.353704">
<ele>139.654419</ele>
<time>2010-07-17T09:30:44Z</time>
<desc>lat.=55.777061, lon.=26.353704, Alt.=139.654419m. Speed=32.363998m/h.</desc>
<speed>8.990000</speed>
</trkpt>
<trkpt lat="55.776997" lon="26.353615">
<ele>139.439575</ele>
<time>2010-07-17T09:30:45Z</time>
<desc>lat.=55.776997, lon.=26.353615, Alt.=139.439575m. Speed=32.903999m/h.</desc>
<speed>9.140000</speed>
</trkpt>
<trkpt lat="55.776936" lon="26.353537">
<ele>138.951294</ele>
<time>2010-07-17T09:30:46Z</time>
<desc>lat.=55.776936, lon.=26.353537, Alt.=138.951294m. Speed=31.823999m/h.</desc>
<speed>8.840000</speed>
</trkpt>
<trkpt lat="55.776878" lon="26.353445">
<ele>138.720825</ele>
<time>2010-07-17T09:30:47Z</time>
<desc>lat.=55.776878, lon.=26.353445, Alt.=138.720825m. Speed=31.823999m/h.</desc>
<speed>8.840000</speed>
</trkpt>
<trkpt lat="55.776814" lon="26.353359">
<ele>138.658325</ele>
<time>2010-07-17T09:30:48Z</time>
<desc>lat.=55.776814, lon.=26.353359, Alt.=138.658325m. Speed=31.176001m/h.</desc>
<speed>8.660000</speed>
</trkpt>
<trkpt lat="55.776752" lon="26.353273">
<ele>138.310669</ele>
<time>2010-07-17T09:30:49Z</time>
<desc>lat.=55.776752, lon.=26.353273, Alt.=138.310669m. Speed=30.384001m/h.</desc>
<speed>8.440000</speed>
</trkpt>
<trkpt lat="55.776688" lon="26.353189">
<ele>138.759888</ele>
<time>2010-07-17T09:30:50Z</time>
<desc>lat.=55.776688, lon.=26.353189, Alt.=138.759888m. Speed=29.808001m/h.</desc>
<speed>8.280000</speed>
</trkpt>
<trkpt lat="55.776630" lon="26.353109">
<ele>138.955200</ele>
<time>2010-07-17T09:30:51Z</time>
<desc>lat.=55.776630, lon.=26.353109, Alt.=138.955200m. Speed=28.656000m/h.</desc>
<speed>7.960000</speed>
</trkpt>
<trkpt lat="55.776573" lon="26.353027">
<ele>139.091919</ele>
<time>2010-07-17T09:30:52Z</time>
<desc>lat.=55.776573, lon.=26.353027, Alt.=139.091919m. Speed=28.007999m/h.</desc>
<speed>7.780000</speed>
</trkpt>
<trkpt lat="55.776524" lon="26.352951">
<ele>139.017700</ele>
<time>2010-07-17T09:30:53Z</time>
<desc>lat.=55.776524, lon.=26.352951, Alt.=139.017700m. Speed=26.892000m/h.</desc>
<speed>7.470000</speed>
</trkpt>
<trkpt lat="55.776470" lon="26.352873">
<ele>139.150513</ele>
<time>2010-07-17T09:30:54Z</time>
<desc>lat.=55.776470, lon.=26.352873, Alt.=139.150513m. Speed=27.288000m/h.</desc>
<speed>7.580000</speed>
</trkpt>
<trkpt lat="55.776417" lon="26.352798">
<ele>139.259888</ele>
<time>2010-07-17T09:30:55Z</time>
<desc>lat.=55.776417, lon.=26.352798, Alt.=139.259888m. Speed=26.604000m/h.</desc>
<speed>7.390000</speed>
</trkpt>
<trkpt lat="55.776360" lon="26.352730">
<ele>139.564575</ele>
<time>2010-07-17T09:30:56Z</time>
<desc>lat.=55.776360, lon.=26.352730, Alt.=139.564575m. Speed=26.351999m/h.</desc>
<speed>7.320000</speed>
</trkpt>
<trkpt lat="55.776306" lon="26.352663">
<ele>139.849731</ele>
<time>2010-07-17T09:30:57Z</time>
<desc>lat.=55.776306, lon.=26.352663, Alt.=139.849731m. Speed=25.812000m/h.</desc>
<speed>7.170000</speed>
</trkpt>
<trkpt lat="55.776257" lon="26.352587">
<ele>140.189575</ele>
<time>2010-07-17T09:30:58Z</time>
<desc>lat.=55.776257, lon.=26.352587, Alt.=140.189575m. Speed=24.948000m/h.</desc>
<speed>6.930000</speed>
</trkpt>
<trkpt lat="55.776211" lon="26.352510">
<ele>139.900513</ele>
<time>2010-07-17T09:30:59Z</time>
<desc>lat.=55.776211, lon.=26.352510, Alt.=139.900513m. Speed=25.271999m/h.</desc>
<speed>7.020000</speed>
</trkpt>
<trkpt lat="55.776161" lon="26.352438">
<ele>140.271606</ele>
<time>2010-07-17T09:31:00Z</time>
<desc>lat.=55.776161, lon.=26.352438, Alt.=140.271606m. Speed=24.516001m/h.</desc>
<speed>6.810000</speed>
</trkpt>
<trkpt lat="55.776112" lon="26.352367">
<ele>140.380981</ele>
<time>2010-07-17T09:31:01Z</time>
<desc>lat.=55.776112, lon.=26.352367, Alt.=140.380981m. Speed=25.091999m/h.</desc>
<speed>6.970000</speed>
</trkpt>
<trkpt lat="55.776066" lon="26.352297">
<ele>140.291138</ele>
<time>2010-07-17T09:31:02Z</time>
<desc>lat.=55.776066, lon.=26.352297, Alt.=140.291138m. Speed=24.948000m/h.</desc>
<speed>6.930000</speed>
</trkpt>
<trkpt lat="55.776012" lon="26.352230">
<ele>140.584106</ele>
<time>2010-07-17T09:31:03Z</time>
<desc>lat.=55.776012, lon.=26.352230, Alt.=140.584106m. Speed=24.552000m/h.</desc>
<speed>6.820000</speed>
</trkpt>
<trkpt lat="55.775963" lon="26.352165">
<ele>140.740356</ele>
<time>2010-07-17T09:31:04Z</time>
<desc>lat.=55.775963, lon.=26.352165, Alt.=140.740356m. Speed=24.444000m/h.</desc>
<speed>6.790000</speed>
</trkpt>
<trkpt lat="55.775909" lon="26.352097">
<ele>140.595825</ele>
<time>2010-07-17T09:31:05Z</time>
<desc>lat.=55.775909, lon.=26.352097, Alt.=140.595825m. Speed=26.208000m/h.</desc>
<speed>7.280000</speed>
</trkpt>
<trkpt lat="55.775856" lon="26.352028">
<ele>140.541138</ele>
<time>2010-07-17T09:31:06Z</time>
<desc>lat.=55.775856, lon.=26.352028, Alt.=140.541138m. Speed=25.416000m/h.</desc>
<speed>7.060000</speed>
</trkpt>
<trkpt lat="55.775803" lon="26.351969">
<ele>140.576294</ele>
<time>2010-07-17T09:31:07Z</time>
<desc>lat.=55.775803, lon.=26.351969, Alt.=140.576294m. Speed=25.632000m/h.</desc>
<speed>7.120000</speed>
</trkpt>
<trkpt lat="55.775745" lon="26.351908">
<ele>140.365356</ele>
<time>2010-07-17T09:31:08Z</time>
<desc>lat.=55.775745, lon.=26.351908, Alt.=140.365356m. Speed=25.164000m/h.</desc>
<speed>6.990000</speed>
</trkpt>
<trkpt lat="55.775692" lon="26.351849">
<ele>140.607544</ele>
<time>2010-07-17T09:31:09Z</time>
<desc>lat.=55.775692, lon.=26.351849, Alt.=140.607544m. Speed=25.740000m/h.</desc>
<speed>7.150000</speed>
</trkpt>
<trkpt lat="55.775642" lon="26.351788">
<ele>140.763794</ele>
<time>2010-07-17T09:31:10Z</time>
<desc>lat.=55.775642, lon.=26.351788, Alt.=140.763794m. Speed=24.624001m/h.</desc>
<speed>6.840000</speed>
</trkpt>
<trkpt lat="55.775593" lon="26.351725">
<ele>140.580200</ele>
<time>2010-07-17T09:31:11Z</time>
<desc>lat.=55.775593, lon.=26.351725, Alt.=140.580200m. Speed=23.364000m/h.</desc>
<speed>6.490000</speed>
</trkpt>
<trkpt lat="55.775543" lon="26.351673">
<ele>140.443481</ele>
<time>2010-07-17T09:31:12Z</time>
<desc>lat.=55.775543, lon.=26.351673, Alt.=140.443481m. Speed=23.256001m/h.</desc>
<speed>6.460000</speed>
</trkpt>
<trkpt lat="55.775494" lon="26.351608">
<ele>140.263794</ele>
<time>2010-07-17T09:31:13Z</time>
<desc>lat.=55.775494, lon.=26.351608, Alt.=140.263794m. Speed=23.076000m/h.</desc>
<speed>6.410000</speed>
</trkpt>
<trkpt lat="55.775448" lon="26.351545">
<ele>139.845825</ele>
<time>2010-07-17T09:31:14Z</time>
<desc>lat.=55.775448, lon.=26.351545, Alt.=139.845825m. Speed=23.652000m/h.</desc>
<speed>6.570000</speed>
</trkpt>
<trkpt lat="55.775394" lon="26.351490">
<ele>139.541138</ele>
<time>2010-07-17T09:31:15Z</time>
<desc>lat.=55.775394, lon.=26.351490, Alt.=139.541138m. Speed=22.716000m/h.</desc>
<speed>6.310000</speed>
</trkpt>
<trkpt lat="55.775349" lon="26.351431">
<ele>139.724731</ele>
<time>2010-07-17T09:31:16Z</time>
<desc>lat.=55.775349, lon.=26.351431, Alt.=139.724731m. Speed=21.636000m/h.</desc>
<speed>6.010000</speed>
</trkpt>
<trkpt lat="55.775307" lon="26.351368">
<ele>140.349731</ele>
<time>2010-07-17T09:31:17Z</time>
<desc>lat.=55.775307, lon.=26.351368, Alt.=140.349731m. Speed=21.924000m/h.</desc>
<speed>6.090000</speed>
</trkpt>
<trkpt lat="55.775261" lon="26.351305">
<ele>140.146606</ele>
<time>2010-07-17T09:31:18Z</time>
<desc>lat.=55.775261, lon.=26.351305, Alt.=140.146606m. Speed=21.312000m/h.</desc>
<speed>5.920000</speed>
</trkpt>
<trkpt lat="55.775215" lon="26.351234">
<ele>139.627075</ele>
<time>2010-07-17T09:31:19Z</time>
<desc>lat.=55.775215, lon.=26.351234, Alt.=139.627075m. Speed=21.888000m/h.</desc>
<speed>6.080000</speed>
</trkpt>
<trkpt lat="55.775169" lon="26.351170">
<ele>139.318481</ele>
<time>2010-07-17T09:31:20Z</time>
<desc>lat.=55.775169, lon.=26.351170, Alt.=139.318481m. Speed=20.556000m/h.</desc>
<speed>5.710000</speed>
</trkpt>
<trkpt lat="55.775131" lon="26.351107">
<ele>139.482544</ele>
<time>2010-07-17T09:31:21Z</time>
<desc>lat.=55.775131, lon.=26.351107, Alt.=139.482544m. Speed=21.275999m/h.</desc>
<speed>5.910000</speed>
</trkpt>
<trkpt lat="55.775085" lon="26.351048">
<ele>139.084106</ele>
<time>2010-07-17T09:31:22Z</time>
<desc>lat.=55.775085, lon.=26.351048, Alt.=139.084106m. Speed=21.204000m/h.</desc>
<speed>5.890000</speed>
</trkpt>
<trkpt lat="55.775024" lon="26.350992">
<ele>138.463013</ele>
<time>2010-07-17T09:31:23Z</time>
<desc>lat.=55.775024, lon.=26.350992, Alt.=138.463013m. Speed=22.608000m/h.</desc>
<speed>6.280000</speed>
</trkpt>
<trkpt lat="55.774979" lon="26.350933">
<ele>138.162231</ele>
<time>2010-07-17T09:31:24Z</time>
<desc>lat.=55.774979, lon.=26.350933, Alt.=138.162231m. Speed=21.600000m/h.</desc>
<speed>6.000000</speed>
</trkpt>
<trkpt lat="55.774925" lon="26.350880">
<ele>137.880981</ele>
<time>2010-07-17T09:31:25Z</time>
<desc>lat.=55.774925, lon.=26.350880, Alt.=137.880981m. Speed=21.528000m/h.</desc>
<speed>5.980000</speed>
</trkpt>
<trkpt lat="55.774891" lon="26.350788">
<ele>139.345825</ele>
<time>2010-07-17T09:31:26Z</time>
<desc>lat.=55.774891, lon.=26.350788, Alt.=139.345825m. Speed=23.040001m/h.</desc>
<speed>6.400000</speed>
</trkpt>
<trkpt lat="55.774841" lon="26.350731">
<ele>139.377075</ele>
<time>2010-07-17T09:31:27Z</time>
<desc>lat.=55.774841, lon.=26.350731, Alt.=139.377075m. Speed=22.931999m/h.</desc>
<speed>6.370000</speed>
</trkpt>
<trkpt lat="55.774788" lon="26.350677">
<ele>138.966919</ele>
<time>2010-07-17T09:31:28Z</time>
<desc>lat.=55.774788, lon.=26.350677, Alt.=138.966919m. Speed=23.903999m/h.</desc>
<speed>6.640000</speed>
</trkpt>
<trkpt lat="55.774731" lon="26.350620">
<ele>138.697388</ele>
<time>2010-07-17T09:31:29Z</time>
<desc>lat.=55.774731, lon.=26.350620, Alt.=138.697388m. Speed=23.724001m/h.</desc>
<speed>6.590000</speed>
</trkpt>
<trkpt lat="55.774681" lon="26.350552">
<ele>138.931763</ele>
<time>2010-07-17T09:31:30Z</time>
<desc>lat.=55.774681, lon.=26.350552, Alt.=138.931763m. Speed=23.688000m/h.</desc>
<speed>6.580000</speed>
</trkpt>
<trkpt lat="55.774635" lon="26.350487">
<ele>138.904419</ele>
<time>2010-07-17T09:31:31Z</time>
<desc>lat.=55.774635, lon.=26.350487, Alt.=138.904419m. Speed=24.408001m/h.</desc>
<speed>6.780000</speed>
</trkpt>
<trkpt lat="55.774586" lon="26.350420">
<ele>138.685669</ele>
<time>2010-07-17T09:31:32Z</time>
<desc>lat.=55.774586, lon.=26.350420, Alt.=138.685669m. Speed=25.775999m/h.</desc>
<speed>7.160000</speed>
</trkpt>
<trkpt lat="55.774532" lon="26.350353">
<ele>137.673950</ele>
<time>2010-07-17T09:31:33Z</time>
<desc>lat.=55.774532, lon.=26.350353, Alt.=137.673950m. Speed=24.336000m/h.</desc>
<speed>6.760000</speed>
</trkpt>
<trkpt lat="55.774479" lon="26.350273">
<ele>138.205200</ele>
<time>2010-07-17T09:31:34Z</time>
<desc>lat.=55.774479, lon.=26.350273, Alt.=138.205200m. Speed=26.316000m/h.</desc>
<speed>7.310000</speed>
</trkpt>
<trkpt lat="55.774426" lon="26.350199">
<ele>138.740356</ele>
<time>2010-07-17T09:31:35Z</time>
<desc>lat.=55.774426, lon.=26.350199, Alt.=138.740356m. Speed=26.639999m/h.</desc>
<speed>7.400000</speed>
</trkpt>
<trkpt lat="55.774368" lon="26.350117">
<ele>139.158325</ele>
<time>2010-07-17T09:31:36Z</time>
<desc>lat.=55.774368, lon.=26.350117, Alt.=139.158325m. Speed=26.243999m/h.</desc>
<speed>7.290000</speed>
</trkpt>
<trkpt lat="55.774315" lon="26.350050">
<ele>139.728638</ele>
<time>2010-07-17T09:31:37Z</time>
<desc>lat.=55.774315, lon.=26.350050, Alt.=139.728638m. Speed=26.351999m/h.</desc>
<speed>7.320000</speed>
</trkpt>
<trkpt lat="55.774258" lon="26.349968">
<ele>140.642700</ele>
<time>2010-07-17T09:31:38Z</time>
<desc>lat.=55.774258, lon.=26.349968, Alt.=140.642700m. Speed=26.388000m/h.</desc>
<speed>7.330000</speed>
</trkpt>
<trkpt lat="55.774200" lon="26.349888">
<ele>140.763794</ele>
<time>2010-07-17T09:31:39Z</time>
<desc>lat.=55.774200, lon.=26.349888, Alt.=140.763794m. Speed=26.280001m/h.</desc>
<speed>7.300000</speed>
</trkpt>
<trkpt lat="55.774147" lon="26.349815">
<ele>141.584106</ele>
<time>2010-07-17T09:31:40Z</time>
<desc>lat.=55.774147, lon.=26.349815, Alt.=141.584106m. Speed=26.208000m/h.</desc>
<speed>7.280000</speed>
</trkpt>
<trkpt lat="55.774086" lon="26.349749">
<ele>140.552856</ele>
<time>2010-07-17T09:31:41Z</time>
<desc>lat.=55.774086, lon.=26.349749, Alt.=140.552856m. Speed=25.955999m/h.</desc>
<speed>7.210000</speed>
</trkpt>
<trkpt lat="55.774029" lon="26.349684">
<ele>139.377075</ele>
<time>2010-07-17T09:31:42Z</time>
<desc>lat.=55.774029, lon.=26.349684, Alt.=139.377075m. Speed=25.632000m/h.</desc>
<speed>7.120000</speed>
</trkpt>
<trkpt lat="55.773979" lon="26.349613">
<ele>139.517700</ele>
<time>2010-07-17T09:31:43Z</time>
<desc>lat.=55.773979, lon.=26.349613, Alt.=139.517700m. Speed=25.128000m/h.</desc>
<speed>6.980000</speed>
</trkpt>
<trkpt lat="55.773922" lon="26.349558">
<ele>139.599731</ele>
<time>2010-07-17T09:31:44Z</time>
<desc>lat.=55.773922, lon.=26.349558, Alt.=139.599731m. Speed=24.084000m/h.</desc>
<speed>6.690000</speed>
</trkpt>
<trkpt lat="55.773869" lon="26.349495">
<ele>139.314575</ele>
<time>2010-07-17T09:31:45Z</time>
<desc>lat.=55.773869, lon.=26.349495, Alt.=139.314575m. Speed=25.056000m/h.</desc>
<speed>6.960000</speed>
</trkpt>
<trkpt lat="55.773815" lon="26.349436">
<ele>139.396606</ele>
<time>2010-07-17T09:31:46Z</time>
<desc>lat.=55.773815, lon.=26.349436, Alt.=139.396606m. Speed=24.336000m/h.</desc>
<speed>6.760000</speed>
</trkpt>
<trkpt lat="55.773766" lon="26.349373">
<ele>139.896606</ele>
<time>2010-07-17T09:31:47Z</time>
<desc>lat.=55.773766, lon.=26.349373, Alt.=139.896606m. Speed=25.236000m/h.</desc>
<speed>7.010000</speed>
</trkpt>
<trkpt lat="55.773712" lon="26.349295">
<ele>140.650513</ele>
<time>2010-07-17T09:31:48Z</time>
<desc>lat.=55.773712, lon.=26.349295, Alt.=140.650513m. Speed=26.532000m/h.</desc>
<speed>7.370000</speed>
</trkpt>
<trkpt lat="55.773655" lon="26.349224">
<ele>140.459106</ele>
<time>2010-07-17T09:31:49Z</time>
<desc>lat.=55.773655, lon.=26.349224, Alt.=140.459106m. Speed=27.792000m/h.</desc>
<speed>7.720000</speed>
</trkpt>
<trkpt lat="55.773598" lon="26.349144">
<ele>140.623169</ele>
<time>2010-07-17T09:31:50Z</time>
<desc>lat.=55.773598, lon.=26.349144, Alt.=140.623169m. Speed=27.000000m/h.</desc>
<speed>7.500000</speed>
</trkpt>
<trkpt lat="55.773540" lon="26.349070">
<ele>140.908325</ele>
<time>2010-07-17T09:31:51Z</time>
<desc>lat.=55.773540, lon.=26.349070, Alt.=140.908325m. Speed=27.756001m/h.</desc>
<speed>7.710000</speed>
</trkpt>
<trkpt lat="55.773483" lon="26.348993">
<ele>141.185669</ele>
<time>2010-07-17T09:31:52Z</time>
<desc>lat.=55.773483, lon.=26.348993, Alt.=141.185669m. Speed=27.900000m/h.</desc>
<speed>7.750000</speed>
</trkpt>
<trkpt lat="55.773426" lon="26.348915">
<ele>141.326294</ele>
<time>2010-07-17T09:31:53Z</time>
<desc>lat.=55.773426, lon.=26.348915, Alt.=141.326294m. Speed=27.288000m/h.</desc>
<speed>7.580000</speed>
</trkpt>
<trkpt lat="55.773373" lon="26.348843">
<ele>141.787231</ele>
<time>2010-07-17T09:31:54Z</time>
<desc>lat.=55.773373, lon.=26.348843, Alt.=141.787231m. Speed=26.532000m/h.</desc>
<speed>7.370000</speed>
</trkpt>
<trkpt lat="55.773319" lon="26.348768">
<ele>141.752075</ele>
<time>2010-07-17T09:31:55Z</time>
<desc>lat.=55.773319, lon.=26.348768, Alt.=141.752075m. Speed=26.964001m/h.</desc>
<speed>7.490000</speed>
</trkpt>
<trkpt lat="55.773270" lon="26.348692">
<ele>141.505981</ele>
<time>2010-07-17T09:31:56Z</time>
<desc>lat.=55.773270, lon.=26.348692, Alt.=141.505981m. Speed=25.884001m/h.</desc>
<speed>7.190000</speed>
</trkpt>
<trkpt lat="55.773216" lon="26.348621">
<ele>140.845825</ele>
<time>2010-07-17T09:31:57Z</time>
<desc>lat.=55.773216, lon.=26.348621, Alt.=140.845825m. Speed=25.236000m/h.</desc>
<speed>7.010000</speed>
</trkpt>
<trkpt lat="55.773174" lon="26.348545">
<ele>141.130981</ele>
<time>2010-07-17T09:31:58Z</time>
<desc>lat.=55.773174, lon.=26.348545, Alt.=141.130981m. Speed=24.444000m/h.</desc>
<speed>6.790000</speed>
</trkpt>
<trkpt lat="55.773125" lon="26.348475">
<ele>141.334106</ele>
<time>2010-07-17T09:31:59Z</time>
<desc>lat.=55.773125, lon.=26.348475, Alt.=141.334106m. Speed=24.408001m/h.</desc>
<speed>6.780000</speed>
</trkpt>
<trkpt lat="55.773075" lon="26.348408">
<ele>140.353638</ele>
<time>2010-07-17T09:32:00Z</time>
<desc>lat.=55.773075, lon.=26.348408, Alt.=140.353638m. Speed=22.500000m/h.</desc>
<speed>6.250000</speed>
</trkpt>
<trkpt lat="55.773029" lon="26.348351">
<ele>139.298950</ele>
<time>2010-07-17T09:32:01Z</time>
<desc>lat.=55.773029, lon.=26.348351, Alt.=139.298950m. Speed=25.056000m/h.</desc>
<speed>6.960000</speed>
</trkpt>
<trkpt lat="55.772980" lon="26.348288">
<ele>138.853638</ele>
<time>2010-07-17T09:32:02Z</time>
<desc>lat.=55.772980, lon.=26.348288, Alt.=138.853638m. Speed=24.912001m/h.</desc>
<speed>6.920000</speed>
</trkpt>
<trkpt lat="55.772930" lon="26.348219">
<ele>138.943481</ele>
<time>2010-07-17T09:32:03Z</time>
<desc>lat.=55.772930, lon.=26.348219, Alt.=138.943481m. Speed=24.624001m/h.</desc>
<speed>6.840000</speed>
</trkpt>
<trkpt lat="55.772881" lon="26.348158">
<ele>139.314575</ele>
<time>2010-07-17T09:32:04Z</time>
<desc>lat.=55.772881, lon.=26.348158, Alt.=139.314575m. Speed=24.587999m/h.</desc>
<speed>6.830000</speed>
</trkpt>
<trkpt lat="55.772835" lon="26.348093">
<ele>139.142700</ele>
<time>2010-07-17T09:32:05Z</time>
<desc>lat.=55.772835, lon.=26.348093, Alt.=139.142700m. Speed=24.408001m/h.</desc>
<speed>6.780000</speed>
</trkpt>
<trkpt lat="55.772789" lon="26.348024">
<ele>139.009888</ele>
<time>2010-07-17T09:32:06Z</time>
<desc>lat.=55.772789, lon.=26.348024, Alt.=139.009888m. Speed=23.940001m/h.</desc>
<speed>6.650000</speed>
</trkpt>
<trkpt lat="55.772747" lon="26.347961">
<ele>139.349731</ele>
<time>2010-07-17T09:32:07Z</time>
<desc>lat.=55.772747, lon.=26.347961, Alt.=139.349731m. Speed=23.219999m/h.</desc>
<speed>6.450000</speed>
</trkpt>
<trkpt lat="55.772697" lon="26.347906">
<ele>139.912231</ele>
<time>2010-07-17T09:32:08Z</time>
<desc>lat.=55.772697, lon.=26.347906, Alt.=139.912231m. Speed=22.356001m/h.</desc>
<speed>6.210000</speed>
</trkpt>
<trkpt lat="55.772644" lon="26.347849">
<ele>141.005981</ele>
<time>2010-07-17T09:32:09Z</time>
<desc>lat.=55.772644, lon.=26.347849, Alt.=141.005981m. Speed=22.931999m/h.</desc>
<speed>6.370000</speed>
</trkpt>
<trkpt lat="55.772594" lon="26.347776">
<ele>141.697388</ele>
<time>2010-07-17T09:32:10Z</time>
<desc>lat.=55.772594, lon.=26.347776, Alt.=141.697388m. Speed=22.823999m/h.</desc>
<speed>6.340000</speed>
</trkpt>
<trkpt lat="55.772549" lon="26.347689">
<ele>142.158325</ele>
<time>2010-07-17T09:32:11Z</time>
<desc>lat.=55.772549, lon.=26.347689, Alt.=142.158325m. Speed=23.472000m/h.</desc>
<speed>6.520000</speed>
</trkpt>
<trkpt lat="55.772499" lon="26.347624">
<ele>141.877075</ele>
<time>2010-07-17T09:32:12Z</time>
<desc>lat.=55.772499, lon.=26.347624, Alt.=141.877075m. Speed=22.752001m/h.</desc>
<speed>6.320000</speed>
</trkpt>
<trkpt lat="55.772449" lon="26.347565">
<ele>141.880981</ele>
<time>2010-07-17T09:32:13Z</time>
<desc>lat.=55.772449, lon.=26.347565, Alt.=141.880981m. Speed=23.364000m/h.</desc>
<speed>6.490000</speed>
</trkpt>
<trkpt lat="55.772396" lon="26.347506">
<ele>143.521606</ele>
<time>2010-07-17T09:32:14Z</time>
<desc>lat.=55.772396, lon.=26.347506, Alt.=143.521606m. Speed=23.544001m/h.</desc>
<speed>6.540000</speed>
</trkpt>
<trkpt lat="55.772346" lon="26.347443">
<ele>143.955200</ele>
<time>2010-07-17T09:32:15Z</time>
<desc>lat.=55.772346, lon.=26.347443, Alt.=143.955200m. Speed=23.868000m/h.</desc>
<speed>6.630000</speed>
</trkpt>
<trkpt lat="55.772301" lon="26.347380">
<ele>144.502075</ele>
<time>2010-07-17T09:32:16Z</time>
<desc>lat.=55.772301, lon.=26.347380, Alt.=144.502075m. Speed=22.931999m/h.</desc>
<speed>6.370000</speed>
</trkpt>
<trkpt lat="55.772263" lon="26.347313">
<ele>144.302856</ele>
<time>2010-07-17T09:32:17Z</time>
<desc>lat.=55.772263, lon.=26.347313, Alt.=144.302856m. Speed=23.507999m/h.</desc>
<speed>6.530000</speed>
</trkpt>
<trkpt lat="55.772221" lon="26.347239">
<ele>144.298950</ele>
<time>2010-07-17T09:32:18Z</time>
<desc>lat.=55.772221, lon.=26.347239, Alt.=144.298950m. Speed=24.228001m/h.</desc>
<speed>6.730000</speed>
</trkpt>
<trkpt lat="55.772175" lon="26.347172">
<ele>144.232544</ele>
<time>2010-07-17T09:32:19Z</time>
<desc>lat.=55.772175, lon.=26.347172, Alt.=144.232544m. Speed=23.903999m/h.</desc>
<speed>6.640000</speed>
</trkpt>
<trkpt lat="55.772125" lon="26.347109">
<ele>143.970825</ele>
<time>2010-07-17T09:32:20Z</time>
<desc>lat.=55.772125, lon.=26.347109, Alt.=143.970825m. Speed=24.011999m/h.</desc>
<speed>6.670000</speed>
</trkpt>
<trkpt lat="55.772079" lon="26.347044">
<ele>143.826294</ele>
<time>2010-07-17T09:32:21Z</time>
<desc>lat.=55.772079, lon.=26.347044, Alt.=143.826294m. Speed=23.652000m/h.</desc>
<speed>6.570000</speed>
</trkpt>
<trkpt lat="55.772034" lon="26.346977">
<ele>143.861450</ele>
<time>2010-07-17T09:32:22Z</time>
<desc>lat.=55.772034, lon.=26.346977, Alt.=143.861450m. Speed=24.120001m/h.</desc>
<speed>6.700000</speed>
</trkpt>
<trkpt lat="55.771980" lon="26.346916">
<ele>144.048950</ele>
<time>2010-07-17T09:32:23Z</time>
<desc>lat.=55.771980, lon.=26.346916, Alt.=144.048950m. Speed=23.112000m/h.</desc>
<speed>6.420000</speed>
</trkpt>
<trkpt lat="55.771931" lon="26.346857">
<ele>143.892700</ele>
<time>2010-07-17T09:32:24Z</time>
<desc>lat.=55.771931, lon.=26.346857, Alt.=143.892700m. Speed=24.191999m/h.</desc>
<speed>6.720000</speed>
</trkpt>
<trkpt lat="55.771877" lon="26.346790">
<ele>144.482544</ele>
<time>2010-07-17T09:32:25Z</time>
<desc>lat.=55.771877, lon.=26.346790, Alt.=144.482544m. Speed=24.480000m/h.</desc>
<speed>6.800000</speed>
</trkpt>
<trkpt lat="55.771828" lon="26.346718">
<ele>145.060669</ele>
<time>2010-07-17T09:32:26Z</time>
<desc>lat.=55.771828, lon.=26.346718, Alt.=145.060669m. Speed=25.020000m/h.</desc>
<speed>6.950000</speed>
</trkpt>
<trkpt lat="55.771778" lon="26.346655">
<ele>145.213013</ele>
<time>2010-07-17T09:32:27Z</time>
<desc>lat.=55.771778, lon.=26.346655, Alt.=145.213013m. Speed=24.408001m/h.</desc>
<speed>6.780000</speed>
</trkpt>
<trkpt lat="55.771729" lon="26.346590">
<ele>145.693481</ele>
<time>2010-07-17T09:32:28Z</time>
<desc>lat.=55.771729, lon.=26.346590, Alt.=145.693481m. Speed=24.948000m/h.</desc>
<speed>6.930000</speed>
</trkpt>
<trkpt lat="55.771675" lon="26.346527">
<ele>145.716919</ele>
<time>2010-07-17T09:32:29Z</time>
<desc>lat.=55.771675, lon.=26.346527, Alt.=145.716919m. Speed=24.408001m/h.</desc>
<speed>6.780000</speed>
</trkpt>
<trkpt lat="55.771626" lon="26.346464">
<ele>145.681763</ele>
<time>2010-07-17T09:32:30Z</time>
<desc>lat.=55.771626, lon.=26.346464, Alt.=145.681763m. Speed=24.191999m/h.</desc>
<speed>6.720000</speed>
</trkpt>
<trkpt lat="55.771576" lon="26.346399">
<ele>145.959106</ele>
<time>2010-07-17T09:32:31Z</time>
<desc>lat.=55.771576, lon.=26.346399, Alt.=145.959106m. Speed=23.327999m/h.</desc>
<speed>6.480000</speed>
</trkpt>
<trkpt lat="55.771530" lon="26.346327">
<ele>145.791138</ele>
<time>2010-07-17T09:32:32Z</time>
<desc>lat.=55.771530, lon.=26.346327, Alt.=145.791138m. Speed=23.184000m/h.</desc>
<speed>6.440000</speed>
</trkpt>
<trkpt lat="55.771481" lon="26.346275">
<ele>145.970825</ele>
<time>2010-07-17T09:32:33Z</time>
<desc>lat.=55.771481, lon.=26.346275, Alt.=145.970825m. Speed=22.535999m/h.</desc>
<speed>6.260000</speed>
</trkpt>
<trkpt lat="55.771423" lon="26.346218">
<ele>145.486450</ele>
<time>2010-07-17T09:32:34Z</time>
<desc>lat.=55.771423, lon.=26.346218, Alt.=145.486450m. Speed=23.256001m/h.</desc>
<speed>6.460000</speed>
</trkpt>
<trkpt lat="55.771378" lon="26.346153">
<ele>145.459106</ele>
<time>2010-07-17T09:32:35Z</time>
<desc>lat.=55.771378, lon.=26.346153, Alt.=145.459106m. Speed=23.364000m/h.</desc>
<speed>6.490000</speed>
</trkpt>
<trkpt lat="55.771332" lon="26.346087">
<ele>145.584106</ele>
<time>2010-07-17T09:32:36Z</time>
<desc>lat.=55.771332, lon.=26.346087, Alt.=145.584106m. Speed=23.292000m/h.</desc>
<speed>6.470000</speed>
</trkpt>
<trkpt lat="55.771282" lon="26.346024">
<ele>145.603638</ele>
<time>2010-07-17T09:32:37Z</time>
<desc>lat.=55.771282, lon.=26.346024, Alt.=145.603638m. Speed=22.247999m/h.</desc>
<speed>6.180000</speed>
</trkpt>
<trkpt lat="55.771233" lon="26.345959">
<ele>144.228638</ele>
<time>2010-07-17T09:32:38Z</time>
<desc>lat.=55.771233, lon.=26.345959, Alt.=144.228638m. Speed=23.292000m/h.</desc>
<speed>6.470000</speed>
</trkpt>
<trkpt lat="55.771187" lon="26.345900">
<ele>144.134888</ele>
<time>2010-07-17T09:32:39Z</time>
<desc>lat.=55.771187, lon.=26.345900, Alt.=144.134888m. Speed=21.528000m/h.</desc>
<speed>5.980000</speed>
</trkpt>
<trkpt lat="55.771145" lon="26.345842">
<ele>143.787231</ele>
<time>2010-07-17T09:32:40Z</time>
<desc>lat.=55.771145, lon.=26.345842, Alt.=143.787231m. Speed=19.511999m/h.</desc>
<speed>5.420000</speed>
</trkpt>
<trkpt lat="55.771111" lon="26.345795">
<ele>144.080200</ele>
<time>2010-07-17T09:32:41Z</time>
<desc>lat.=55.771111, lon.=26.345795, Alt.=144.080200m. Speed=15.300000m/h.</desc>
<speed>4.250000</speed>
</trkpt>
<trkpt lat="55.771080" lon="26.345757">
<ele>144.755981</ele>
<time>2010-07-17T09:32:42Z</time>
<desc>lat.=55.771080, lon.=26.345757, Alt.=144.755981m. Speed=15.444000m/h.</desc>
<speed>4.290000</speed>
</trkpt>
<trkpt lat="55.771046" lon="26.345711">
<ele>145.306763</ele>
<time>2010-07-17T09:32:43Z</time>
<desc>lat.=55.771046, lon.=26.345711, Alt.=145.306763m. Speed=15.048000m/h.</desc>
<speed>4.180000</speed>
</trkpt>
<trkpt lat="55.771004" lon="26.345659">
<ele>145.548950</ele>
<time>2010-07-17T09:32:44Z</time>
<desc>lat.=55.771004, lon.=26.345659, Alt.=145.548950m. Speed=17.063999m/h.</desc>
<speed>4.740000</speed>
</trkpt>
<trkpt lat="55.770969" lon="26.345608">
<ele>144.994263</ele>
<time>2010-07-17T09:32:45Z</time>
<desc>lat.=55.770969, lon.=26.345608, Alt.=144.994263m. Speed=16.992001m/h.</desc>
<speed>4.720000</speed>
</trkpt>
<trkpt lat="55.770939" lon="26.345564">
<ele>145.404419</ele>
<time>2010-07-17T09:32:46Z</time>
<desc>lat.=55.770939, lon.=26.345564, Alt.=145.404419m. Speed=12.960000m/h.</desc>
<speed>3.600000</speed>
</trkpt>
<trkpt lat="55.770905" lon="26.345533">
<ele>144.705200</ele>
<time>2010-07-17T09:32:47Z</time>
<desc>lat.=55.770905, lon.=26.345533, Alt.=144.705200m. Speed=12.996000m/h.</desc>
<speed>3.610000</speed>
</trkpt>
<trkpt lat="55.770870" lon="26.345491">
<ele>144.615356</ele>
<time>2010-07-17T09:32:48Z</time>
<desc>lat.=55.770870, lon.=26.345491, Alt.=144.615356m. Speed=14.904000m/h.</desc>
<speed>4.140000</speed>
</trkpt>
<trkpt lat="55.770840" lon="26.345440">
<ele>145.431763</ele>
<time>2010-07-17T09:32:49Z</time>
<desc>lat.=55.770840, lon.=26.345440, Alt.=145.431763m. Speed=14.904000m/h.</desc>
<speed>4.140000</speed>
</trkpt>
<trkpt lat="55.770802" lon="26.345387">
<ele>146.373169</ele>
<time>2010-07-17T09:32:50Z</time>
<desc>lat.=55.770802, lon.=26.345387, Alt.=146.373169m. Speed=14.832000m/h.</desc>
<speed>4.120000</speed>
</trkpt>
<trkpt lat="55.770771" lon="26.345348">
<ele>146.509888</ele>
<time>2010-07-17T09:32:51Z</time>
<desc>lat.=55.770771, lon.=26.345348, Alt.=146.509888m. Speed=14.688000m/h.</desc>
<speed>4.080000</speed>
</trkpt>
<trkpt lat="55.770733" lon="26.345308">
<ele>146.197388</ele>
<time>2010-07-17T09:32:52Z</time>
<desc>lat.=55.770733, lon.=26.345308, Alt.=146.197388m. Speed=15.732000m/h.</desc>
<speed>4.370000</speed>
</trkpt>
<trkpt lat="55.770702" lon="26.345264">
<ele>146.033325</ele>
<time>2010-07-17T09:32:53Z</time>
<desc>lat.=55.770702, lon.=26.345264, Alt.=146.033325m. Speed=14.580000m/h.</desc>
<speed>4.050000</speed>
</trkpt>
<trkpt lat="55.770660" lon="26.345230">
<ele>146.213013</ele>
<time>2010-07-17T09:32:54Z</time>
<desc>lat.=55.770660, lon.=26.345230, Alt.=146.213013m. Speed=16.812000m/h.</desc>
<speed>4.670000</speed>
</trkpt>
<trkpt lat="55.770630" lon="26.345175">
<ele>144.588013</ele>
<time>2010-07-17T09:32:55Z</time>
<desc>lat.=55.770630, lon.=26.345175, Alt.=144.588013m. Speed=15.516000m/h.</desc>
<speed>4.310000</speed>
</trkpt>
<trkpt lat="55.770592" lon="26.345125">
<ele>143.494263</ele>
<time>2010-07-17T09:32:56Z</time>
<desc>lat.=55.770592, lon.=26.345125, Alt.=143.494263m. Speed=16.775999m/h.</desc>
<speed>4.660000</speed>
</trkpt>
<trkpt lat="55.770554" lon="26.345074">
<ele>143.658325</ele>
<time>2010-07-17T09:32:57Z</time>
<desc>lat.=55.770554, lon.=26.345074, Alt.=143.658325m. Speed=15.660000m/h.</desc>
<speed>4.350000</speed>
</trkpt>
<trkpt lat="55.770519" lon="26.345018">
<ele>143.564575</ele>
<time>2010-07-17T09:32:58Z</time>
<desc>lat.=55.770519, lon.=26.345018, Alt.=143.564575m. Speed=16.632000m/h.</desc>
<speed>4.620000</speed>
</trkpt>
<trkpt lat="55.770485" lon="26.344978">
<ele>145.228638</ele>
<time>2010-07-17T09:32:59Z</time>
<desc>lat.=55.770485, lon.=26.344978, Alt.=145.228638m. Speed=13.392000m/h.</desc>
<speed>3.720000</speed>
</trkpt>
<trkpt lat="55.770447" lon="26.344927">
<ele>145.431763</ele>
<time>2010-07-17T09:33:00Z</time>
<desc>lat.=55.770447, lon.=26.344927, Alt.=145.431763m. Speed=15.948000m/h.</desc>
<speed>4.430000</speed>
</trkpt>
<trkpt lat="55.770420" lon="26.344877">
<ele>145.810669</ele>
<time>2010-07-17T09:33:01Z</time>
<desc>lat.=55.770420, lon.=26.344877, Alt.=145.810669m. Speed=14.112000m/h.</desc>
<speed>3.920000</speed>
</trkpt>
<trkpt lat="55.770390" lon="26.344830">
<ele>145.724731</ele>
<time>2010-07-17T09:33:02Z</time>
<desc>lat.=55.770390, lon.=26.344830, Alt.=145.724731m. Speed=15.768000m/h.</desc>
<speed>4.380000</speed>
</trkpt>
<trkpt lat="55.770355" lon="26.344786">
<ele>146.177856</ele>
<time>2010-07-17T09:33:03Z</time>
<desc>lat.=55.770355, lon.=26.344786, Alt.=146.177856m. Speed=16.524000m/h.</desc>
<speed>4.590000</speed>
</trkpt>
<trkpt lat="55.770317" lon="26.344742">
<ele>146.048950</ele>
<time>2010-07-17T09:33:04Z</time>
<desc>lat.=55.770317, lon.=26.344742, Alt.=146.048950m. Speed=16.920000m/h.</desc>
<speed>4.700000</speed>
</trkpt>
<trkpt lat="55.770279" lon="26.344696">
<ele>146.189575</ele>
<time>2010-07-17T09:33:05Z</time>
<desc>lat.=55.770279, lon.=26.344696, Alt.=146.189575m. Speed=16.379999m/h.</desc>
<speed>4.550000</speed>
</trkpt>
<trkpt lat="55.770241" lon="26.344648">
<ele>146.255981</ele>
<time>2010-07-17T09:33:06Z</time>
<desc>lat.=55.770241, lon.=26.344648, Alt.=146.255981m. Speed=16.848000m/h.</desc>
<speed>4.680000</speed>
</trkpt>
<trkpt lat="55.770206" lon="26.344597">
<ele>145.795044</ele>
<time>2010-07-17T09:33:07Z</time>
<desc>lat.=55.770206, lon.=26.344597, Alt.=145.795044m. Speed=16.091999m/h.</desc>
<speed>4.470000</speed>
</trkpt>
<trkpt lat="55.770176" lon="26.344547">
<ele>145.888794</ele>
<time>2010-07-17T09:33:08Z</time>
<desc>lat.=55.770176, lon.=26.344547, Alt.=145.888794m. Speed=15.588000m/h.</desc>
<speed>4.330000</speed>
</trkpt>
<trkpt lat="55.770149" lon="26.344496">
<ele>145.912231</ele>
<time>2010-07-17T09:33:09Z</time>
<desc>lat.=55.770149, lon.=26.344496, Alt.=145.912231m. Speed=15.696000m/h.</desc>
<speed>4.360000</speed>
</trkpt>
<trkpt lat="55.770115" lon="26.344454">
<ele>146.502075</ele>
<time>2010-07-17T09:33:10Z</time>
<desc>lat.=55.770115, lon.=26.344454, Alt.=146.502075m. Speed=16.200001m/h.</desc>
<speed>4.500000</speed>
</trkpt>
<trkpt lat="55.770081" lon="26.344395">
<ele>146.892700</ele>
<time>2010-07-17T09:33:11Z</time>
<desc>lat.=55.770081, lon.=26.344395, Alt.=146.892700m. Speed=16.596001m/h.</desc>
<speed>4.610000</speed>
</trkpt>
<trkpt lat="55.770042" lon="26.344336">
<ele>146.755981</ele>
<time>2010-07-17T09:33:12Z</time>
<desc>lat.=55.770042, lon.=26.344336, Alt.=146.755981m. Speed=17.820000m/h.</desc>
<speed>4.950000</speed>
</trkpt>
<trkpt lat="55.770004" lon="26.344286">
<ele>146.834106</ele>
<time>2010-07-17T09:33:13Z</time>
<desc>lat.=55.770004, lon.=26.344286, Alt.=146.834106m. Speed=17.639999m/h.</desc>
<speed>4.900000</speed>
</trkpt>
<trkpt lat="55.769970" lon="26.344238">
<ele>146.935669</ele>
<time>2010-07-17T09:33:14Z</time>
<desc>lat.=55.769970, lon.=26.344238, Alt.=146.935669m. Speed=17.747999m/h.</desc>
<speed>4.930000</speed>
</trkpt>
<trkpt lat="55.769936" lon="26.344187">
<ele>147.084106</ele>
<time>2010-07-17T09:33:15Z</time>
<desc>lat.=55.769936, lon.=26.344187, Alt.=147.084106m. Speed=17.927999m/h.</desc>
<speed>4.980000</speed>
</trkpt>
<trkpt lat="55.769897" lon="26.344131">
<ele>147.123169</ele>
<time>2010-07-17T09:33:16Z</time>
<desc>lat.=55.769897, lon.=26.344131, Alt.=147.123169m. Speed=18.323999m/h.</desc>
<speed>5.090000</speed>
</trkpt>
<trkpt lat="55.769863" lon="26.344078">
<ele>147.045044</ele>
<time>2010-07-17T09:33:17Z</time>
<desc>lat.=55.769863, lon.=26.344078, Alt.=147.045044m. Speed=17.496000m/h.</desc>
<speed>4.860000</speed>
</trkpt>
<trkpt lat="55.769821" lon="26.344028">
<ele>146.830200</ele>
<time>2010-07-17T09:33:18Z</time>
<desc>lat.=55.769821, lon.=26.344028, Alt.=146.830200m. Speed=19.908001m/h.</desc>
<speed>5.530000</speed>
</trkpt>
<trkpt lat="55.769775" lon="26.343981">
<ele>146.298950</ele>
<time>2010-07-17T09:33:19Z</time>
<desc>lat.=55.769775, lon.=26.343981, Alt.=146.298950m. Speed=19.908001m/h.</desc>
<speed>5.530000</speed>
</trkpt>
<trkpt lat="55.769733" lon="26.343912">
<ele>146.232544</ele>
<time>2010-07-17T09:33:20Z</time>
<desc>lat.=55.769733, lon.=26.343912, Alt.=146.232544m. Speed=21.096001m/h.</desc>
<speed>5.860000</speed>
</trkpt>
<trkpt lat="55.769688" lon="26.343863">
<ele>145.720825</ele>
<time>2010-07-17T09:33:21Z</time>
<desc>lat.=55.769688, lon.=26.343863, Alt.=145.720825m. Speed=21.563999m/h.</desc>
<speed>5.990000</speed>
</trkpt>
<trkpt lat="55.769630" lon="26.343815">
<ele>145.658325</ele>
<time>2010-07-17T09:33:22Z</time>
<desc>lat.=55.769630, lon.=26.343815, Alt.=145.658325m. Speed=22.356001m/h.</desc>
<speed>6.210000</speed>
</trkpt>
<trkpt lat="55.769581" lon="26.343760">
<ele>145.072388</ele>
<time>2010-07-17T09:33:23Z</time>
<desc>lat.=55.769581, lon.=26.343760, Alt.=145.072388m. Speed=22.212000m/h.</desc>
<speed>6.170000</speed>
</trkpt>
<trkpt lat="55.769531" lon="26.343712">
<ele>144.330200</ele>
<time>2010-07-17T09:33:24Z</time>
<desc>lat.=55.769531, lon.=26.343712, Alt.=144.330200m. Speed=20.483999m/h.</desc>
<speed>5.690000</speed>
</trkpt>
<trkpt lat="55.769482" lon="26.343657">
<ele>142.744263</ele>
<time>2010-07-17T09:33:25Z</time>
<desc>lat.=55.769482, lon.=26.343657, Alt.=142.744263m. Speed=21.096001m/h.</desc>
<speed>5.860000</speed>
</trkpt>
<trkpt lat="55.769421" lon="26.343603">
<ele>142.822388</ele>
<time>2010-07-17T09:33:26Z</time>
<desc>lat.=55.769421, lon.=26.343603, Alt.=142.822388m. Speed=22.212000m/h.</desc>
<speed>6.170000</speed>
</trkpt>
<trkpt lat="55.769363" lon="26.343544">
<ele>142.970825</ele>
<time>2010-07-17T09:33:27Z</time>
<desc>lat.=55.769363, lon.=26.343544, Alt.=142.970825m. Speed=23.760000m/h.</desc>
<speed>6.600000</speed>
</trkpt>
<trkpt lat="55.769318" lon="26.343485">
<ele>142.775513</ele>
<time>2010-07-17T09:33:28Z</time>
<desc>lat.=55.769318, lon.=26.343485, Alt.=142.775513m. Speed=21.600000m/h.</desc>
<speed>6.000000</speed>
</trkpt>
<trkpt lat="55.769264" lon="26.343426">
<ele>143.166138</ele>
<time>2010-07-17T09:33:29Z</time>
<desc>lat.=55.769264, lon.=26.343426, Alt.=143.166138m. Speed=23.436001m/h.</desc>
<speed>6.510000</speed>
</trkpt>
<trkpt lat="55.769211" lon="26.343361">
<ele>143.326294</ele>
<time>2010-07-17T09:33:30Z</time>
<desc>lat.=55.769211, lon.=26.343361, Alt.=143.326294m. Speed=25.559999m/h.</desc>
<speed>7.100000</speed>
</trkpt>
<trkpt lat="55.769157" lon="26.343283">
<ele>142.380981</ele>
<time>2010-07-17T09:33:31Z</time>
<desc>lat.=55.769157, lon.=26.343283, Alt.=142.380981m. Speed=25.955999m/h.</desc>
<speed>7.210000</speed>
</trkpt>
<trkpt lat="55.769104" lon="26.343193">
<ele>141.435669</ele>
<time>2010-07-17T09:33:32Z</time>
<desc>lat.=55.769104, lon.=26.343193, Alt.=141.435669m. Speed=25.704000m/h.</desc>
<speed>7.140000</speed>
</trkpt>
<trkpt lat="55.769051" lon="26.343119">
<ele>141.408325</ele>
<time>2010-07-17T09:33:33Z</time>
<desc>lat.=55.769051, lon.=26.343119, Alt.=141.408325m. Speed=26.892000m/h.</desc>
<speed>7.470000</speed>
</trkpt>
<trkpt lat="55.768993" lon="26.343042">
<ele>142.201294</ele>
<time>2010-07-17T09:33:34Z</time>
<desc>lat.=55.768993, lon.=26.343042, Alt.=142.201294m. Speed=26.459999m/h.</desc>
<speed>7.350000</speed>
</trkpt>
<trkpt lat="55.768944" lon="26.342970">
<ele>141.611450</ele>
<time>2010-07-17T09:33:35Z</time>
<desc>lat.=55.768944, lon.=26.342970, Alt.=141.611450m. Speed=24.552000m/h.</desc>
<speed>6.820000</speed>
</trkpt>
<trkpt lat="55.768890" lon="26.342894">
<ele>141.720825</ele>
<time>2010-07-17T09:33:36Z</time>
<desc>lat.=55.768890, lon.=26.342894, Alt.=141.720825m. Speed=26.604000m/h.</desc>
<speed>7.390000</speed>
</trkpt>
<trkpt lat="55.768841" lon="26.342810">
<ele>142.638794</ele>
<time>2010-07-17T09:33:37Z</time>
<desc>lat.=55.768841, lon.=26.342810, Alt.=142.638794m. Speed=25.488001m/h.</desc>
<speed>7.080000</speed>
</trkpt>
<trkpt lat="55.768787" lon="26.342735">
<ele>142.252075</ele>
<time>2010-07-17T09:33:38Z</time>
<desc>lat.=55.768787, lon.=26.342735, Alt.=142.252075m. Speed=26.712000m/h.</desc>
<speed>7.420000</speed>
</trkpt>
<trkpt lat="55.768734" lon="26.342653">
<ele>141.509888</ele>
<time>2010-07-17T09:33:39Z</time>
<desc>lat.=55.768734, lon.=26.342653, Alt.=141.509888m. Speed=26.532000m/h.</desc>
<speed>7.370000</speed>
</trkpt>
<trkpt lat="55.768669" lon="26.342598">
<ele>140.662231</ele>
<time>2010-07-17T09:33:40Z</time>
<desc>lat.=55.768669, lon.=26.342598, Alt.=140.662231m. Speed=25.416000m/h.</desc>
<speed>7.060000</speed>
</trkpt>
<trkpt lat="55.768612" lon="26.342514">
<ele>140.685669</ele>
<time>2010-07-17T09:33:41Z</time>
<desc>lat.=55.768612, lon.=26.342514, Alt.=140.685669m. Speed=27.648001m/h.</desc>
<speed>7.680000</speed>
</trkpt>
<trkpt lat="55.768551" lon="26.342421">
<ele>141.474731</ele>
<time>2010-07-17T09:33:42Z</time>
<desc>lat.=55.768551, lon.=26.342421, Alt.=141.474731m. Speed=28.584000m/h.</desc>
<speed>7.940000</speed>
</trkpt>
<trkpt lat="55.768490" lon="26.342342">
<ele>141.630981</ele>
<time>2010-07-17T09:33:43Z</time>
<desc>lat.=55.768490, lon.=26.342342, Alt.=141.630981m. Speed=27.827999m/h.</desc>
<speed>7.730000</speed>
</trkpt>
<trkpt lat="55.768429" lon="26.342262">
<ele>141.384888</ele>
<time>2010-07-17T09:33:44Z</time>
<desc>lat.=55.768429, lon.=26.342262, Alt.=141.384888m. Speed=29.124001m/h.</desc>
<speed>8.090000</speed>
</trkpt>
<trkpt lat="55.768360" lon="26.342186">
<ele>140.763794</ele>
<time>2010-07-17T09:33:45Z</time>
<desc>lat.=55.768360, lon.=26.342186, Alt.=140.763794m. Speed=28.836000m/h.</desc>
<speed>8.010000</speed>
</trkpt>
<trkpt lat="55.768307" lon="26.342113">
<ele>139.435669</ele>
<time>2010-07-17T09:33:46Z</time>
<desc>lat.=55.768307, lon.=26.342113, Alt.=139.435669m. Speed=27.576000m/h.</desc>
<speed>7.660000</speed>
</trkpt>
<trkpt lat="55.768242" lon="26.342035">
<ele>138.517700</ele>
<time>2010-07-17T09:33:47Z</time>
<desc>lat.=55.768242, lon.=26.342035, Alt.=138.517700m. Speed=28.691999m/h.</desc>
<speed>7.970000</speed>
</trkpt>
<trkpt lat="55.768185" lon="26.341951">
<ele>138.127075</ele>
<time>2010-07-17T09:33:48Z</time>
<desc>lat.=55.768185, lon.=26.341951, Alt.=138.127075m. Speed=29.808001m/h.</desc>
<speed>8.280000</speed>
</trkpt>
<trkpt lat="55.768116" lon="26.341860">
<ele>137.787231</ele>
<time>2010-07-17T09:33:49Z</time>
<desc>lat.=55.768116, lon.=26.341860, Alt.=137.787231m. Speed=30.492001m/h.</desc>
<speed>8.470000</speed>
</trkpt>
<trkpt lat="55.768055" lon="26.341768">
<ele>137.619263</ele>
<time>2010-07-17T09:33:50Z</time>
<desc>lat.=55.768055, lon.=26.341768, Alt.=137.619263m. Speed=30.851999m/h.</desc>
<speed>8.570000</speed>
</trkpt>
<trkpt lat="55.767998" lon="26.341686">
<ele>136.849731</ele>
<time>2010-07-17T09:33:51Z</time>
<desc>lat.=55.767998, lon.=26.341686, Alt.=136.849731m. Speed=30.096001m/h.</desc>
<speed>8.360000</speed>
</trkpt>
<trkpt lat="55.767937" lon="26.341600">
<ele>136.181763</ele>
<time>2010-07-17T09:33:52Z</time>
<desc>lat.=55.767937, lon.=26.341600, Alt.=136.181763m. Speed=30.096001m/h.</desc>
<speed>8.360000</speed>
</trkpt>
<trkpt lat="55.767872" lon="26.341516">
<ele>135.630981</ele>
<time>2010-07-17T09:33:53Z</time>
<desc>lat.=55.767872, lon.=26.341516, Alt.=135.630981m. Speed=31.139999m/h.</desc>
<speed>8.650000</speed>
</trkpt>
<trkpt lat="55.767811" lon="26.341436">
<ele>135.650513</ele>
<time>2010-07-17T09:33:54Z</time>
<desc>lat.=55.767811, lon.=26.341436, Alt.=135.650513m. Speed=29.916000m/h.</desc>
<speed>8.310000</speed>
</trkpt>
<trkpt lat="55.767746" lon="26.341354">
<ele>134.705200</ele>
<time>2010-07-17T09:33:55Z</time>
<desc>lat.=55.767746, lon.=26.341354, Alt.=134.705200m. Speed=30.743999m/h.</desc>
<speed>8.540000</speed>
</trkpt>
<trkpt lat="55.767689" lon="26.341274">
<ele>134.463013</ele>
<time>2010-07-17T09:33:56Z</time>
<desc>lat.=55.767689, lon.=26.341274, Alt.=134.463013m. Speed=29.412001m/h.</desc>
<speed>8.170000</speed>
</trkpt>
<trkpt lat="55.767632" lon="26.341190">
<ele>134.806763</ele>
<time>2010-07-17T09:33:57Z</time>
<desc>lat.=55.767632, lon.=26.341190, Alt.=134.806763m. Speed=28.476000m/h.</desc>
<speed>7.910000</speed>
</trkpt>
<trkpt lat="55.767578" lon="26.341108">
<ele>134.736450</ele>
<time>2010-07-17T09:33:58Z</time>
<desc>lat.=55.767578, lon.=26.341108, Alt.=134.736450m. Speed=28.584000m/h.</desc>
<speed>7.940000</speed>
</trkpt>
<trkpt lat="55.767517" lon="26.341030">
<ele>134.334106</ele>
<time>2010-07-17T09:33:59Z</time>
<desc>lat.=55.767517, lon.=26.341030, Alt.=134.334106m. Speed=28.548000m/h.</desc>
<speed>7.930000</speed>
</trkpt>
<trkpt lat="55.767456" lon="26.340954">
<ele>134.459106</ele>
<time>2010-07-17T09:34:00Z</time>
<desc>lat.=55.767456, lon.=26.340954, Alt.=134.459106m. Speed=28.511999m/h.</desc>
<speed>7.920000</speed>
</trkpt>
<trkpt lat="55.767403" lon="26.340876">
<ele>134.134888</ele>
<time>2010-07-17T09:34:01Z</time>
<desc>lat.=55.767403, lon.=26.340876, Alt.=134.134888m. Speed=28.872000m/h.</desc>
<speed>8.020000</speed>
</trkpt>
<trkpt lat="55.767345" lon="26.340792">
<ele>134.486450</ele>
<time>2010-07-17T09:34:02Z</time>
<desc>lat.=55.767345, lon.=26.340792, Alt.=134.486450m. Speed=29.448000m/h.</desc>
<speed>8.180000</speed>
</trkpt>
<trkpt lat="55.767284" lon="26.340700">
<ele>134.814575</ele>
<time>2010-07-17T09:34:03Z</time>
<desc>lat.=55.767284, lon.=26.340700, Alt.=134.814575m. Speed=30.096001m/h.</desc>
<speed>8.360000</speed>
</trkpt>
<trkpt lat="55.767227" lon="26.340618">
<ele>133.994263</ele>
<time>2010-07-17T09:34:04Z</time>
<desc>lat.=55.767227, lon.=26.340618, Alt.=133.994263m. Speed=28.908001m/h.</desc>
<speed>8.030000</speed>
</trkpt>
<trkpt lat="55.767166" lon="26.340542">
<ele>134.244263</ele>
<time>2010-07-17T09:34:05Z</time>
<desc>lat.=55.767166, lon.=26.340542, Alt.=134.244263m. Speed=28.656000m/h.</desc>
<speed>7.960000</speed>
</trkpt>
<trkpt lat="55.767109" lon="26.340467">
<ele>134.634888</ele>
<time>2010-07-17T09:34:06Z</time>
<desc>lat.=55.767109, lon.=26.340467, Alt.=134.634888m. Speed=27.756001m/h.</desc>
<speed>7.710000</speed>
</trkpt>
<trkpt lat="55.767059" lon="26.340395">
<ele>135.537231</ele>
<time>2010-07-17T09:34:07Z</time>
<desc>lat.=55.767059, lon.=26.340395, Alt.=135.537231m. Speed=26.784000m/h.</desc>
<speed>7.440000</speed>
</trkpt>
<trkpt lat="55.767010" lon="26.340324">
<ele>135.912231</ele>
<time>2010-07-17T09:34:08Z</time>
<desc>lat.=55.767010, lon.=26.340324, Alt.=135.912231m. Speed=25.955999m/h.</desc>
<speed>7.210000</speed>
</trkpt>
<trkpt lat="55.766964" lon="26.340250">
<ele>136.045044</ele>
<time>2010-07-17T09:34:09Z</time>
<desc>lat.=55.766964, lon.=26.340250, Alt.=136.045044m. Speed=25.667999m/h.</desc>
<speed>7.130000</speed>
</trkpt>
<trkpt lat="55.766918" lon="26.340174">
<ele>136.033325</ele>
<time>2010-07-17T09:34:10Z</time>
<desc>lat.=55.766918, lon.=26.340174, Alt.=136.033325m. Speed=24.768000m/h.</desc>
<speed>6.880000</speed>
</trkpt>
<trkpt lat="55.766869" lon="26.340097">
<ele>135.416138</ele>
<time>2010-07-17T09:34:11Z</time>
<desc>lat.=55.766869, lon.=26.340097, Alt.=135.416138m. Speed=24.804001m/h.</desc>
<speed>6.890000</speed>
</trkpt>
<trkpt lat="55.766819" lon="26.340025">
<ele>135.806763</ele>
<time>2010-07-17T09:34:12Z</time>
<desc>lat.=55.766819, lon.=26.340025, Alt.=135.806763m. Speed=25.416000m/h.</desc>
<speed>7.060000</speed>
</trkpt>
<trkpt lat="55.766769" lon="26.339951">
<ele>136.091919</ele>
<time>2010-07-17T09:34:13Z</time>
<desc>lat.=55.766769, lon.=26.339951, Alt.=136.091919m. Speed=26.424000m/h.</desc>
<speed>7.340000</speed>
</trkpt>
<trkpt lat="55.766720" lon="26.339882">
<ele>136.295044</ele>
<time>2010-07-17T09:34:14Z</time>
<desc>lat.=55.766720, lon.=26.339882, Alt.=136.295044m. Speed=25.344000m/h.</desc>
<speed>7.040000</speed>
</trkpt>
<trkpt lat="55.766670" lon="26.339809">
<ele>136.482544</ele>
<time>2010-07-17T09:34:15Z</time>
<desc>lat.=55.766670, lon.=26.339809, Alt.=136.482544m. Speed=25.596001m/h.</desc>
<speed>7.110000</speed>
</trkpt>
<trkpt lat="55.766624" lon="26.339737">
<ele>136.877075</ele>
<time>2010-07-17T09:34:16Z</time>
<desc>lat.=55.766624, lon.=26.339737, Alt.=136.877075m. Speed=25.416000m/h.</desc>
<speed>7.060000</speed>
</trkpt>
<trkpt lat="55.766575" lon="26.339668">
<ele>136.900513</ele>
<time>2010-07-17T09:34:17Z</time>
<desc>lat.=55.766575, lon.=26.339668, Alt.=136.900513m. Speed=25.164000m/h.</desc>
<speed>6.990000</speed>
</trkpt>
<trkpt lat="55.766525" lon="26.339603">
<ele>136.806763</ele>
<time>2010-07-17T09:34:18Z</time>
<desc>lat.=55.766525, lon.=26.339603, Alt.=136.806763m. Speed=24.660000m/h.</desc>
<speed>6.850000</speed>
</trkpt>
<trkpt lat="55.766476" lon="26.339542">
<ele>136.755981</ele>
<time>2010-07-17T09:34:19Z</time>
<desc>lat.=55.766476, lon.=26.339542, Alt.=136.755981m. Speed=24.660000m/h.</desc>
<speed>6.850000</speed>
</trkpt>
<trkpt lat="55.766415" lon="26.339479">
<ele>137.177856</ele>
<time>2010-07-17T09:34:20Z</time>
<desc>lat.=55.766415, lon.=26.339479, Alt.=137.177856m. Speed=24.587999m/h.</desc>
<speed>6.830000</speed>
</trkpt>
<trkpt lat="55.766361" lon="26.339415">
<ele>136.670044</ele>
<time>2010-07-17T09:34:21Z</time>
<desc>lat.=55.766361, lon.=26.339415, Alt.=136.670044m. Speed=24.120001m/h.</desc>
<speed>6.700000</speed>
</trkpt>
<trkpt lat="55.766308" lon="26.339357">
<ele>137.002075</ele>
<time>2010-07-17T09:34:22Z</time>
<desc>lat.=55.766308, lon.=26.339357, Alt.=137.002075m. Speed=24.156000m/h.</desc>
<speed>6.710000</speed>
</trkpt>
<trkpt lat="55.766262" lon="26.339289">
<ele>136.111450</ele>
<time>2010-07-17T09:34:23Z</time>
<desc>lat.=55.766262, lon.=26.339289, Alt.=136.111450m. Speed=24.336000m/h.</desc>
<speed>6.760000</speed>
</trkpt>
<trkpt lat="55.766216" lon="26.339222">
<ele>135.107544</ele>
<time>2010-07-17T09:34:24Z</time>
<desc>lat.=55.766216, lon.=26.339222, Alt.=135.107544m. Speed=23.364000m/h.</desc>
<speed>6.490000</speed>
</trkpt>
<trkpt lat="55.766171" lon="26.339157">
<ele>134.779419</ele>
<time>2010-07-17T09:34:25Z</time>
<desc>lat.=55.766171, lon.=26.339157, Alt.=134.779419m. Speed=23.004000m/h.</desc>
<speed>6.390000</speed>
</trkpt>
<trkpt lat="55.766117" lon="26.339100">
<ele>134.900513</ele>
<time>2010-07-17T09:34:26Z</time>
<desc>lat.=55.766117, lon.=26.339100, Alt.=134.900513m. Speed=22.500000m/h.</desc>
<speed>6.250000</speed>
</trkpt>
<trkpt lat="55.766068" lon="26.339045">
<ele>134.677856</ele>
<time>2010-07-17T09:34:27Z</time>
<desc>lat.=55.766068, lon.=26.339045, Alt.=134.677856m. Speed=22.931999m/h.</desc>
<speed>6.370000</speed>
</trkpt>
<trkpt lat="55.766018" lon="26.338991">
<ele>134.334106</ele>
<time>2010-07-17T09:34:28Z</time>
<desc>lat.=55.766018, lon.=26.338991, Alt.=134.334106m. Speed=21.780001m/h.</desc>
<speed>6.050000</speed>
</trkpt>
<trkpt lat="55.765968" lon="26.338947">
<ele>134.005981</ele>
<time>2010-07-17T09:34:29Z</time>
<desc>lat.=55.765968, lon.=26.338947, Alt.=134.005981m. Speed=21.492001m/h.</desc>
<speed>5.970000</speed>
</trkpt>
<trkpt lat="55.765923" lon="26.338896">
<ele>134.002075</ele>
<time>2010-07-17T09:34:30Z</time>
<desc>lat.=55.765923, lon.=26.338896, Alt.=134.002075m. Speed=20.664000m/h.</desc>
<speed>5.740000</speed>
</trkpt>
<trkpt lat="55.765877" lon="26.338840">
<ele>133.755981</ele>
<time>2010-07-17T09:34:31Z</time>
<desc>lat.=55.765877, lon.=26.338840, Alt.=133.755981m. Speed=20.375999m/h.</desc>
<speed>5.660000</speed>
</trkpt>
<trkpt lat="55.765835" lon="26.338789">
<ele>133.599731</ele>
<time>2010-07-17T09:34:32Z</time>
<desc>lat.=55.765835, lon.=26.338789, Alt.=133.599731m. Speed=19.476000m/h.</desc>
<speed>5.410000</speed>
</trkpt>
<trkpt lat="55.765797" lon="26.338732">
<ele>133.896606</ele>
<time>2010-07-17T09:34:33Z</time>
<desc>lat.=55.765797, lon.=26.338732, Alt.=133.896606m. Speed=18.936001m/h.</desc>
<speed>5.260000</speed>
</trkpt>
<trkpt lat="55.765759" lon="26.338682">
<ele>133.900513</ele>
<time>2010-07-17T09:34:34Z</time>
<desc>lat.=55.765759, lon.=26.338682, Alt.=133.900513m. Speed=19.044001m/h.</desc>
<speed>5.290000</speed>
</trkpt>
<trkpt lat="55.765720" lon="26.338629">
<ele>134.427856</ele>
<time>2010-07-17T09:34:35Z</time>
<desc>lat.=55.765720, lon.=26.338629, Alt.=134.427856m. Speed=19.044001m/h.</desc>
<speed>5.290000</speed>
</trkpt>
<trkpt lat="55.765678" lon="26.338575">
<ele>134.611450</ele>
<time>2010-07-17T09:34:36Z</time>
<desc>lat.=55.765678, lon.=26.338575, Alt.=134.611450m. Speed=19.115999m/h.</desc>
<speed>5.310000</speed>
</trkpt>
<trkpt lat="55.765640" lon="26.338524">
<ele>134.447388</ele>
<time>2010-07-17T09:34:37Z</time>
<desc>lat.=55.765640, lon.=26.338524, Alt.=134.447388m. Speed=19.368000m/h.</desc>
<speed>5.380000</speed>
</trkpt>
<trkpt lat="55.765602" lon="26.338472">
<ele>134.584106</ele>
<time>2010-07-17T09:34:38Z</time>
<desc>lat.=55.765602, lon.=26.338472, Alt.=134.584106m. Speed=19.836000m/h.</desc>
<speed>5.510000</speed>
</trkpt>
<trkpt lat="55.765564" lon="26.338423">
<ele>134.650513</ele>
<time>2010-07-17T09:34:39Z</time>
<desc>lat.=55.765564, lon.=26.338423, Alt.=134.650513m. Speed=18.288000m/h.</desc>
<speed>5.080000</speed>
</trkpt>
<trkpt lat="55.765526" lon="26.338373">
<ele>134.638794</ele>
<time>2010-07-17T09:34:40Z</time>
<desc>lat.=55.765526, lon.=26.338373, Alt.=134.638794m. Speed=20.195999m/h.</desc>
<speed>5.610000</speed>
</trkpt>
<trkpt lat="55.765484" lon="26.338322">
<ele>134.658325</ele>
<time>2010-07-17T09:34:41Z</time>
<desc>lat.=55.765484, lon.=26.338322, Alt.=134.658325m. Speed=18.827999m/h.</desc>
<speed>5.230000</speed>
</trkpt>
<trkpt lat="55.765446" lon="26.338274">
<ele>134.795044</ele>
<time>2010-07-17T09:34:42Z</time>
<desc>lat.=55.765446, lon.=26.338274, Alt.=134.795044m. Speed=19.296000m/h.</desc>
<speed>5.360000</speed>
</trkpt>
<trkpt lat="55.765400" lon="26.338221">
<ele>135.111450</ele>
<time>2010-07-17T09:34:43Z</time>
<desc>lat.=55.765400, lon.=26.338221, Alt.=135.111450m. Speed=22.500000m/h.</desc>
<speed>6.250000</speed>
</trkpt>
<trkpt lat="55.765358" lon="26.338165">
<ele>135.744263</ele>
<time>2010-07-17T09:34:44Z</time>
<desc>lat.=55.765358, lon.=26.338165, Alt.=135.744263m. Speed=19.584000m/h.</desc>
<speed>5.440000</speed>
</trkpt>
<trkpt lat="55.765316" lon="26.338102">
<ele>136.314575</ele>
<time>2010-07-17T09:34:45Z</time>
<desc>lat.=55.765316, lon.=26.338102, Alt.=136.314575m. Speed=21.528000m/h.</desc>
<speed>5.980000</speed>
</trkpt>
<trkpt lat="55.765274" lon="26.338036">
<ele>136.369263</ele>
<time>2010-07-17T09:34:46Z</time>
<desc>lat.=55.765274, lon.=26.338036, Alt.=136.369263m. Speed=24.624001m/h.</desc>
<speed>6.840000</speed>
</trkpt>
<trkpt lat="55.765213" lon="26.337955">
<ele>135.865356</ele>
<time>2010-07-17T09:34:47Z</time>
<desc>lat.=55.765213, lon.=26.337955, Alt.=135.865356m. Speed=26.028000m/h.</desc>
<speed>7.230000</speed>
</trkpt>
<trkpt lat="55.765160" lon="26.337881">
<ele>136.076294</ele>
<time>2010-07-17T09:34:48Z</time>
<desc>lat.=55.765160, lon.=26.337881, Alt.=136.076294m. Speed=26.100000m/h.</desc>
<speed>7.250000</speed>
</trkpt>
<trkpt lat="55.765106" lon="26.337812">
<ele>135.884888</ele>
<time>2010-07-17T09:34:49Z</time>
<desc>lat.=55.765106, lon.=26.337812, Alt.=135.884888m. Speed=26.028000m/h.</desc>
<speed>7.230000</speed>
</trkpt>
<trkpt lat="55.765049" lon="26.337738">
<ele>135.369263</ele>
<time>2010-07-17T09:34:50Z</time>
<desc>lat.=55.765049, lon.=26.337738, Alt.=135.369263m. Speed=25.848000m/h.</desc>
<speed>7.180000</speed>
</trkpt>
<trkpt lat="55.764996" lon="26.337662">
<ele>135.224731</ele>
<time>2010-07-17T09:34:51Z</time>
<desc>lat.=55.764996, lon.=26.337662, Alt.=135.224731m. Speed=26.568001m/h.</desc>
<speed>7.380000</speed>
</trkpt>
<trkpt lat="55.764938" lon="26.337585">
<ele>134.623169</ele>
<time>2010-07-17T09:34:52Z</time>
<desc>lat.=55.764938, lon.=26.337585, Alt.=134.623169m. Speed=26.280001m/h.</desc>
<speed>7.300000</speed>
</trkpt>
<trkpt lat="55.764885" lon="26.337511">
<ele>134.127075</ele>
<time>2010-07-17T09:34:53Z</time>
<desc>lat.=55.764885, lon.=26.337511, Alt.=134.127075m. Speed=26.028000m/h.</desc>
<speed>7.230000</speed>
</trkpt>
<trkpt lat="55.764832" lon="26.337437">
<ele>134.271606</ele>
<time>2010-07-17T09:34:54Z</time>
<desc>lat.=55.764832, lon.=26.337437, Alt.=134.271606m. Speed=25.524000m/h.</desc>
<speed>7.090000</speed>
</trkpt>
<trkpt lat="55.764782" lon="26.337374">
<ele>134.525513</ele>
<time>2010-07-17T09:34:55Z</time>
<desc>lat.=55.764782, lon.=26.337374, Alt.=134.525513m. Speed=24.983999m/h.</desc>
<speed>6.940000</speed>
</trkpt>
<trkpt lat="55.764729" lon="26.337303">
<ele>134.748169</ele>
<time>2010-07-17T09:34:56Z</time>
<desc>lat.=55.764729, lon.=26.337303, Alt.=134.748169m. Speed=24.768000m/h.</desc>
<speed>6.880000</speed>
</trkpt>
<trkpt lat="55.764683" lon="26.337225">
<ele>133.935669</ele>
<time>2010-07-17T09:34:57Z</time>
<desc>lat.=55.764683, lon.=26.337225, Alt.=133.935669m. Speed=21.636000m/h.</desc>
<speed>6.010000</speed>
</trkpt>
<trkpt lat="55.764641" lon="26.337151">
<ele>133.291138</ele>
<time>2010-07-17T09:34:58Z</time>
<desc>lat.=55.764641, lon.=26.337151, Alt.=133.291138m. Speed=25.020000m/h.</desc>
<speed>6.950000</speed>
</trkpt>
<trkpt lat="55.764599" lon="26.337069">
<ele>132.802856</ele>
<time>2010-07-17T09:34:59Z</time>
<desc>lat.=55.764599, lon.=26.337069, Alt.=132.802856m. Speed=25.379999m/h.</desc>
<speed>7.050000</speed>
</trkpt>
<trkpt lat="55.764545" lon="26.336983">
<ele>133.384888</ele>
<time>2010-07-17T09:35:00Z</time>
<desc>lat.=55.764545, lon.=26.336983, Alt.=133.384888m. Speed=26.424000m/h.</desc>
<speed>7.340000</speed>
</trkpt>
<trkpt lat="55.764492" lon="26.336901">
<ele>133.959106</ele>
<time>2010-07-17T09:35:01Z</time>
<desc>lat.=55.764492, lon.=26.336901, Alt.=133.959106m. Speed=27.504000m/h.</desc>
<speed>7.640000</speed>
</trkpt>
<trkpt lat="55.764431" lon="26.336824">
<ele>133.373169</ele>
<time>2010-07-17T09:35:02Z</time>
<desc>lat.=55.764431, lon.=26.336824, Alt.=133.373169m. Speed=27.900000m/h.</desc>
<speed>7.750000</speed>
</trkpt>
<trkpt lat="55.764378" lon="26.336750">
<ele>132.783325</ele>
<time>2010-07-17T09:35:03Z</time>
<desc>lat.=55.764378, lon.=26.336750, Alt.=132.783325m. Speed=27.323999m/h.</desc>
<speed>7.590000</speed>
</trkpt>
<trkpt lat="55.764317" lon="26.336679">
<ele>132.056763</ele>
<time>2010-07-17T09:35:04Z</time>
<desc>lat.=55.764317, lon.=26.336679, Alt.=132.056763m. Speed=25.596001m/h.</desc>
<speed>7.110000</speed>
</trkpt>
<trkpt lat="55.764263" lon="26.336613">
<ele>131.341919</ele>
<time>2010-07-17T09:35:05Z</time>
<desc>lat.=55.764263, lon.=26.336613, Alt.=131.341919m. Speed=25.308001m/h.</desc>
<speed>7.030000</speed>
</trkpt>
<trkpt lat="55.764210" lon="26.336548">
<ele>131.048950</ele>
<time>2010-07-17T09:35:06Z</time>
<desc>lat.=55.764210, lon.=26.336548, Alt.=131.048950m. Speed=24.048000m/h.</desc>
<speed>6.680000</speed>
</trkpt>
<trkpt lat="55.764156" lon="26.336477">
<ele>131.146606</ele>
<time>2010-07-17T09:35:07Z</time>
<desc>lat.=55.764156, lon.=26.336477, Alt.=131.146606m. Speed=24.011999m/h.</desc>
<speed>6.670000</speed>
</trkpt>
<trkpt lat="55.764111" lon="26.336416">
<ele>131.646606</ele>
<time>2010-07-17T09:35:08Z</time>
<desc>lat.=55.764111, lon.=26.336416, Alt.=131.646606m. Speed=23.076000m/h.</desc>
<speed>6.410000</speed>
</trkpt>
<trkpt lat="55.764061" lon="26.336359">
<ele>131.220825</ele>
<time>2010-07-17T09:35:09Z</time>
<desc>lat.=55.764061, lon.=26.336359, Alt.=131.220825m. Speed=21.959999m/h.</desc>
<speed>6.100000</speed>
</trkpt>
<trkpt lat="55.764019" lon="26.336304">
<ele>131.541138</ele>
<time>2010-07-17T09:35:10Z</time>
<desc>lat.=55.764019, lon.=26.336304, Alt.=131.541138m. Speed=20.664000m/h.</desc>
<speed>5.740000</speed>
</trkpt>
<trkpt lat="55.763977" lon="26.336245">
<ele>130.642700</ele>
<time>2010-07-17T09:35:11Z</time>
<desc>lat.=55.763977, lon.=26.336245, Alt.=130.642700m. Speed=22.320000m/h.</desc>
<speed>6.200000</speed>
</trkpt>
<trkpt lat="55.763931" lon="26.336180">
<ele>130.017700</ele>
<time>2010-07-17T09:35:12Z</time>
<desc>lat.=55.763931, lon.=26.336180, Alt.=130.017700m. Speed=21.816000m/h.</desc>
<speed>6.060000</speed>
</trkpt>
<trkpt lat="55.763889" lon="26.336123">
<ele>129.521606</ele>
<time>2010-07-17T09:35:13Z</time>
<desc>lat.=55.763889, lon.=26.336123, Alt.=129.521606m. Speed=21.384001m/h.</desc>
<speed>5.940000</speed>
</trkpt>
<trkpt lat="55.763844" lon="26.336063">
<ele>129.466919</ele>
<time>2010-07-17T09:35:14Z</time>
<desc>lat.=55.763844, lon.=26.336063, Alt.=129.466919m. Speed=21.563999m/h.</desc>
<speed>5.990000</speed>
</trkpt>
<trkpt lat="55.763798" lon="26.336010">
<ele>129.783325</ele>
<time>2010-07-17T09:35:15Z</time>
<desc>lat.=55.763798, lon.=26.336010, Alt.=129.783325m. Speed=21.275999m/h.</desc>
<speed>5.910000</speed>
</trkpt>
<trkpt lat="55.763756" lon="26.335958">
<ele>129.748169</ele>
<time>2010-07-17T09:35:16Z</time>
<desc>lat.=55.763756, lon.=26.335958, Alt.=129.748169m. Speed=21.059999m/h.</desc>
<speed>5.850000</speed>
</trkpt>
<trkpt lat="55.763714" lon="26.335897">
<ele>130.779419</ele>
<time>2010-07-17T09:35:17Z</time>
<desc>lat.=55.763714, lon.=26.335897, Alt.=130.779419m. Speed=20.808001m/h.</desc>
<speed>5.780000</speed>
</trkpt>
<trkpt lat="55.763664" lon="26.335861">
<ele>131.834106</ele>
<time>2010-07-17T09:35:18Z</time>
<desc>lat.=55.763664, lon.=26.335861, Alt.=131.834106m. Speed=20.988001m/h.</desc>
<speed>5.830000</speed>
</trkpt>
<trkpt lat="55.763618" lon="26.335804">
<ele>131.791138</ele>
<time>2010-07-17T09:35:19Z</time>
<desc>lat.=55.763618, lon.=26.335804, Alt.=131.791138m. Speed=21.240000m/h.</desc>
<speed>5.900000</speed>
</trkpt>
<trkpt lat="55.763569" lon="26.335752">
<ele>132.072388</ele>
<time>2010-07-17T09:35:20Z</time>
<desc>lat.=55.763569, lon.=26.335752, Alt.=132.072388m. Speed=20.483999m/h.</desc>
<speed>5.690000</speed>
</trkpt>
<trkpt lat="55.763527" lon="26.335697">
<ele>133.115356</ele>
<time>2010-07-17T09:35:21Z</time>
<desc>lat.=55.763527, lon.=26.335697, Alt.=133.115356m. Speed=20.232000m/h.</desc>
<speed>5.620000</speed>
</trkpt>
<trkpt lat="55.763481" lon="26.335640">
<ele>133.537231</ele>
<time>2010-07-17T09:35:22Z</time>
<desc>lat.=55.763481, lon.=26.335640, Alt.=133.537231m. Speed=21.132000m/h.</desc>
<speed>5.870000</speed>
</trkpt>
<trkpt lat="55.763439" lon="26.335577">
<ele>133.685669</ele>
<time>2010-07-17T09:35:23Z</time>
<desc>lat.=55.763439, lon.=26.335577, Alt.=133.685669m. Speed=20.628000m/h.</desc>
<speed>5.730000</speed>
</trkpt>
<trkpt lat="55.763401" lon="26.335529">
<ele>133.275513</ele>
<time>2010-07-17T09:35:24Z</time>
<desc>lat.=55.763401, lon.=26.335529, Alt.=133.275513m. Speed=19.908001m/h.</desc>
<speed>5.530000</speed>
</trkpt>
<trkpt lat="55.763363" lon="26.335474">
<ele>133.431763</ele>
<time>2010-07-17T09:35:25Z</time>
<desc>lat.=55.763363, lon.=26.335474, Alt.=133.431763m. Speed=20.016001m/h.</desc>
<speed>5.560000</speed>
</trkpt>
<trkpt lat="55.763321" lon="26.335419">
<ele>135.005981</ele>
<time>2010-07-17T09:35:26Z</time>
<desc>lat.=55.763321, lon.=26.335419, Alt.=135.005981m. Speed=20.160000m/h.</desc>
<speed>5.600000</speed>
</trkpt>
<trkpt lat="55.763279" lon="26.335363">
<ele>135.767700</ele>
<time>2010-07-17T09:35:27Z</time>
<desc>lat.=55.763279, lon.=26.335363, Alt.=135.767700m. Speed=19.188000m/h.</desc>
<speed>5.330000</speed>
</trkpt>
<trkpt lat="55.763237" lon="26.335312">
<ele>136.099731</ele>
<time>2010-07-17T09:35:28Z</time>
<desc>lat.=55.763237, lon.=26.335312, Alt.=136.099731m. Speed=19.368000m/h.</desc>
<speed>5.380000</speed>
</trkpt>
<trkpt lat="55.763203" lon="26.335253">
<ele>136.033325</ele>
<time>2010-07-17T09:35:29Z</time>
<desc>lat.=55.763203, lon.=26.335253, Alt.=136.033325m. Speed=18.576000m/h.</desc>
<speed>5.160000</speed>
</trkpt>
<trkpt lat="55.763168" lon="26.335197">
<ele>135.908325</ele>
<time>2010-07-17T09:35:30Z</time>
<desc>lat.=55.763168, lon.=26.335197, Alt.=135.908325m. Speed=18.468000m/h.</desc>
<speed>5.130000</speed>
</trkpt>
<trkpt lat="55.763130" lon="26.335146">
<ele>136.048950</ele>
<time>2010-07-17T09:35:31Z</time>
<desc>lat.=55.763130, lon.=26.335146, Alt.=136.048950m. Speed=20.124001m/h.</desc>
<speed>5.590000</speed>
</trkpt>
<trkpt lat="55.763088" lon="26.335096">
<ele>136.080200</ele>
<time>2010-07-17T09:35:32Z</time>
<desc>lat.=55.763088, lon.=26.335096, Alt.=136.080200m. Speed=19.656000m/h.</desc>
<speed>5.460000</speed>
</trkpt>
<trkpt lat="55.763050" lon="26.335043">
<ele>136.216919</ele>
<time>2010-07-17T09:35:33Z</time>
<desc>lat.=55.763050, lon.=26.335043, Alt.=136.216919m. Speed=18.180000m/h.</desc>
<speed>5.050000</speed>
</trkpt>
<trkpt lat="55.763012" lon="26.334999">
<ele>136.630981</ele>
<time>2010-07-17T09:35:34Z</time>
<desc>lat.=55.763012, lon.=26.334999, Alt.=136.630981m. Speed=17.243999m/h.</desc>
<speed>4.790000</speed>
</trkpt>
<trkpt lat="55.762974" lon="26.334955">
<ele>137.595825</ele>
<time>2010-07-17T09:35:35Z</time>
<desc>lat.=55.762974, lon.=26.334955, Alt.=137.595825m. Speed=17.892000m/h.</desc>
<speed>4.970000</speed>
</trkpt>
<trkpt lat="55.762939" lon="26.334902">
<ele>137.775513</ele>
<time>2010-07-17T09:35:36Z</time>
<desc>lat.=55.762939, lon.=26.334902, Alt.=137.775513m. Speed=17.388000m/h.</desc>
<speed>4.830000</speed>
</trkpt>
<trkpt lat="55.762909" lon="26.334850">
<ele>137.697388</ele>
<time>2010-07-17T09:35:37Z</time>
<desc>lat.=55.762909, lon.=26.334850, Alt.=137.697388m. Speed=16.884001m/h.</desc>
<speed>4.690000</speed>
</trkpt>
<trkpt lat="55.762878" lon="26.334801">
<ele>137.580200</ele>
<time>2010-07-17T09:35:38Z</time>
<desc>lat.=55.762878, lon.=26.334801, Alt.=137.580200m. Speed=17.028000m/h.</desc>
<speed>4.730000</speed>
</trkpt>
<trkpt lat="55.762840" lon="26.334761">
<ele>138.162231</ele>
<time>2010-07-17T09:35:39Z</time>
<desc>lat.=55.762840, lon.=26.334761, Alt.=138.162231m. Speed=16.812000m/h.</desc>
<speed>4.670000</speed>
</trkpt>
<trkpt lat="55.762806" lon="26.334711">
<ele>137.884888</ele>
<time>2010-07-17T09:35:40Z</time>
<desc>lat.=55.762806, lon.=26.334711, Alt.=137.884888m. Speed=17.208000m/h.</desc>
<speed>4.780000</speed>
</trkpt>
<trkpt lat="55.762772" lon="26.334665">
<ele>137.853638</ele>
<time>2010-07-17T09:35:41Z</time>
<desc>lat.=55.762772, lon.=26.334665, Alt.=137.853638m. Speed=17.604000m/h.</desc>
<speed>4.890000</speed>
</trkpt>
<trkpt lat="55.762733" lon="26.334623">
<ele>137.939575</ele>
<time>2010-07-17T09:35:42Z</time>
<desc>lat.=55.762733, lon.=26.334623, Alt.=137.939575m. Speed=17.856001m/h.</desc>
<speed>4.960000</speed>
</trkpt>
<trkpt lat="55.762695" lon="26.334583">
<ele>137.873169</ele>
<time>2010-07-17T09:35:43Z</time>
<desc>lat.=55.762695, lon.=26.334583, Alt.=137.873169m. Speed=18.719999m/h.</desc>
<speed>5.200000</speed>
</trkpt>
<trkpt lat="55.762653" lon="26.334536">
<ele>137.795044</ele>
<time>2010-07-17T09:35:44Z</time>
<desc>lat.=55.762653, lon.=26.334536, Alt.=137.795044m. Speed=19.296000m/h.</desc>
<speed>5.360000</speed>
</trkpt>
<trkpt lat="55.762615" lon="26.334486">
<ele>137.826294</ele>
<time>2010-07-17T09:35:45Z</time>
<desc>lat.=55.762615, lon.=26.334486, Alt.=137.826294m. Speed=19.728001m/h.</desc>
<speed>5.480000</speed>
</trkpt>
<trkpt lat="55.762569" lon="26.334431">
<ele>137.490356</ele>
<time>2010-07-17T09:35:46Z</time>
<desc>lat.=55.762569, lon.=26.334431, Alt.=137.490356m. Speed=21.636000m/h.</desc>
<speed>6.010000</speed>
</trkpt>
<trkpt lat="55.762527" lon="26.334377">
<ele>137.603638</ele>
<time>2010-07-17T09:35:47Z</time>
<desc>lat.=55.762527, lon.=26.334377, Alt.=137.603638m. Speed=21.455999m/h.</desc>
<speed>5.960000</speed>
</trkpt>
<trkpt lat="55.762482" lon="26.334322">
<ele>137.572388</ele>
<time>2010-07-17T09:35:48Z</time>
<desc>lat.=55.762482, lon.=26.334322, Alt.=137.572388m. Speed=22.608000m/h.</desc>
<speed>6.280000</speed>
</trkpt>
<trkpt lat="55.762440" lon="26.334263">
<ele>137.529419</ele>
<time>2010-07-17T09:35:49Z</time>
<desc>lat.=55.762440, lon.=26.334263, Alt.=137.529419m. Speed=23.112000m/h.</desc>
<speed>6.420000</speed>
</trkpt>
<trkpt lat="55.762390" lon="26.334204">
<ele>137.474731</ele>
<time>2010-07-17T09:35:50Z</time>
<desc>lat.=55.762390, lon.=26.334204, Alt.=137.474731m. Speed=23.615999m/h.</desc>
<speed>6.560000</speed>
</trkpt>
<trkpt lat="55.762341" lon="26.334145">
<ele>137.119263</ele>
<time>2010-07-17T09:35:51Z</time>
<desc>lat.=55.762341, lon.=26.334145, Alt.=137.119263m. Speed=24.264000m/h.</desc>
<speed>6.740000</speed>
</trkpt>
<trkpt lat="55.762287" lon="26.334082">
<ele>137.103638</ele>
<time>2010-07-17T09:35:52Z</time>
<desc>lat.=55.762287, lon.=26.334082, Alt.=137.103638m. Speed=25.020000m/h.</desc>
<speed>6.950000</speed>
</trkpt>
<trkpt lat="55.762238" lon="26.334017">
<ele>137.068481</ele>
<time>2010-07-17T09:35:53Z</time>
<desc>lat.=55.762238, lon.=26.334017, Alt.=137.068481m. Speed=25.632000m/h.</desc>
<speed>7.120000</speed>
</trkpt>
<trkpt lat="55.762184" lon="26.333950">
<ele>136.834106</ele>
<time>2010-07-17T09:35:54Z</time>
<desc>lat.=55.762184, lon.=26.333950, Alt.=136.834106m. Speed=26.100000m/h.</desc>
<speed>7.250000</speed>
</trkpt>
<trkpt lat="55.762131" lon="26.333881">
<ele>136.681763</ele>
<time>2010-07-17T09:35:55Z</time>
<desc>lat.=55.762131, lon.=26.333881, Alt.=136.681763m. Speed=26.856001m/h.</desc>
<speed>7.460000</speed>
</trkpt>
<trkpt lat="55.762081" lon="26.333809">
<ele>136.091919</ele>
<time>2010-07-17T09:35:56Z</time>
<desc>lat.=55.762081, lon.=26.333809, Alt.=136.091919m. Speed=27.396000m/h.</desc>
<speed>7.610000</speed>
</trkpt>
<trkpt lat="55.762024" lon="26.333733">
<ele>136.033325</ele>
<time>2010-07-17T09:35:57Z</time>
<desc>lat.=55.762024, lon.=26.333733, Alt.=136.033325m. Speed=27.900000m/h.</desc>
<speed>7.750000</speed>
</trkpt>
<trkpt lat="55.761967" lon="26.333652">
<ele>135.931763</ele>
<time>2010-07-17T09:35:58Z</time>
<desc>lat.=55.761967, lon.=26.333652, Alt.=135.931763m. Speed=27.972000m/h.</desc>
<speed>7.770000</speed>
</trkpt>
<trkpt lat="55.761909" lon="26.333572">
<ele>135.513794</ele>
<time>2010-07-17T09:35:59Z</time>
<desc>lat.=55.761909, lon.=26.333572, Alt.=135.513794m. Speed=29.412001m/h.</desc>
<speed>8.170000</speed>
</trkpt>
<trkpt lat="55.761852" lon="26.333496">
<ele>135.654419</ele>
<time>2010-07-17T09:36:00Z</time>
<desc>lat.=55.761852, lon.=26.333496, Alt.=135.654419m. Speed=28.691999m/h.</desc>
<speed>7.970000</speed>
</trkpt>
<trkpt lat="55.761795" lon="26.333418">
<ele>135.818481</ele>
<time>2010-07-17T09:36:01Z</time>
<desc>lat.=55.761795, lon.=26.333418, Alt.=135.818481m. Speed=28.440001m/h.</desc>
<speed>7.900000</speed>
</trkpt>
<trkpt lat="55.761734" lon="26.333344">
<ele>135.834106</ele>
<time>2010-07-17T09:36:02Z</time>
<desc>lat.=55.761734, lon.=26.333344, Alt.=135.834106m. Speed=28.368000m/h.</desc>
<speed>7.880000</speed>
</trkpt>
<trkpt lat="55.761681" lon="26.333273">
<ele>135.810669</ele>
<time>2010-07-17T09:36:03Z</time>
<desc>lat.=55.761681, lon.=26.333273, Alt.=135.810669m. Speed=27.540001m/h.</desc>
<speed>7.650000</speed>
</trkpt>
<trkpt lat="55.761627" lon="26.333200">
<ele>135.841919</ele>
<time>2010-07-17T09:36:04Z</time>
<desc>lat.=55.761627, lon.=26.333200, Alt.=135.841919m. Speed=26.568001m/h.</desc>
<speed>7.380000</speed>
</trkpt>
<trkpt lat="55.761574" lon="26.333128">
<ele>135.912231</ele>
<time>2010-07-17T09:36:05Z</time>
<desc>lat.=55.761574, lon.=26.333128, Alt.=135.912231m. Speed=25.992001m/h.</desc>
<speed>7.220000</speed>
</trkpt>
<trkpt lat="55.761524" lon="26.333059">
<ele>136.060669</ele>
<time>2010-07-17T09:36:06Z</time>
<desc>lat.=55.761524, lon.=26.333059, Alt.=136.060669m. Speed=25.848000m/h.</desc>
<speed>7.180000</speed>
</trkpt>
<trkpt lat="55.761471" lon="26.332991">
<ele>135.986450</ele>
<time>2010-07-17T09:36:07Z</time>
<desc>lat.=55.761471, lon.=26.332991, Alt.=135.986450m. Speed=25.775999m/h.</desc>
<speed>7.160000</speed>
</trkpt>
<trkpt lat="55.761417" lon="26.332920">
<ele>135.865356</ele>
<time>2010-07-17T09:36:08Z</time>
<desc>lat.=55.761417, lon.=26.332920, Alt.=135.865356m. Speed=25.775999m/h.</desc>
<speed>7.160000</speed>
</trkpt>
<trkpt lat="55.761368" lon="26.332851">
<ele>135.673950</ele>
<time>2010-07-17T09:36:09Z</time>
<desc>lat.=55.761368, lon.=26.332851, Alt.=135.673950m. Speed=25.848000m/h.</desc>
<speed>7.180000</speed>
</trkpt>
<trkpt lat="55.761314" lon="26.332785">
<ele>135.588013</ele>
<time>2010-07-17T09:36:10Z</time>
<desc>lat.=55.761314, lon.=26.332785, Alt.=135.588013m. Speed=25.848000m/h.</desc>
<speed>7.180000</speed>
</trkpt>
<trkpt lat="55.761261" lon="26.332720">
<ele>135.373169</ele>
<time>2010-07-17T09:36:11Z</time>
<desc>lat.=55.761261, lon.=26.332720, Alt.=135.373169m. Speed=25.559999m/h.</desc>
<speed>7.100000</speed>
</trkpt>
<trkpt lat="55.761211" lon="26.332651">
<ele>135.248169</ele>
<time>2010-07-17T09:36:12Z</time>
<desc>lat.=55.761211, lon.=26.332651, Alt.=135.248169m. Speed=25.271999m/h.</desc>
<speed>7.020000</speed>
</trkpt>
<trkpt lat="55.761158" lon="26.332584">
<ele>135.099731</ele>
<time>2010-07-17T09:36:13Z</time>
<desc>lat.=55.761158, lon.=26.332584, Alt.=135.099731m. Speed=24.983999m/h.</desc>
<speed>6.940000</speed>
</trkpt>
<trkpt lat="55.761112" lon="26.332520">
<ele>134.974731</ele>
<time>2010-07-17T09:36:14Z</time>
<desc>lat.=55.761112, lon.=26.332520, Alt.=134.974731m. Speed=24.695999m/h.</desc>
<speed>6.860000</speed>
</trkpt>
<trkpt lat="55.761063" lon="26.332453">
<ele>135.021606</ele>
<time>2010-07-17T09:36:15Z</time>
<desc>lat.=55.761063, lon.=26.332453, Alt.=135.021606m. Speed=24.480000m/h.</desc>
<speed>6.800000</speed>
</trkpt>
<trkpt lat="55.761013" lon="26.332388">
<ele>135.150513</ele>
<time>2010-07-17T09:36:16Z</time>
<desc>lat.=55.761013, lon.=26.332388, Alt.=135.150513m. Speed=23.760000m/h.</desc>
<speed>6.600000</speed>
</trkpt>
<trkpt lat="55.760967" lon="26.332327">
<ele>135.353638</ele>
<time>2010-07-17T09:36:17Z</time>
<desc>lat.=55.760967, lon.=26.332327, Alt.=135.353638m. Speed=23.004000m/h.</desc>
<speed>6.390000</speed>
</trkpt>
<trkpt lat="55.760921" lon="26.332266">
<ele>135.189575</ele>
<time>2010-07-17T09:36:18Z</time>
<desc>lat.=55.760921, lon.=26.332266, Alt.=135.189575m. Speed=21.959999m/h.</desc>
<speed>6.100000</speed>
</trkpt>
<trkpt lat="55.760880" lon="26.332207">
<ele>135.173950</ele>
<time>2010-07-17T09:36:19Z</time>
<desc>lat.=55.760880, lon.=26.332207, Alt.=135.173950m. Speed=21.167999m/h.</desc>
<speed>5.880000</speed>
</trkpt>
<trkpt lat="55.760841" lon="26.332146">
<ele>135.134888</ele>
<time>2010-07-17T09:36:20Z</time>
<desc>lat.=55.760841, lon.=26.332146, Alt.=135.134888m. Speed=20.591999m/h.</desc>
<speed>5.720000</speed>
</trkpt>
<trkpt lat="55.760807" lon="26.332088">
<ele>134.373169</ele>
<time>2010-07-17T09:36:21Z</time>
<desc>lat.=55.760807, lon.=26.332088, Alt.=134.373169m. Speed=19.728001m/h.</desc>
<speed>5.480000</speed>
</trkpt>
<trkpt lat="55.760769" lon="26.332035">
<ele>134.408325</ele>
<time>2010-07-17T09:36:22Z</time>
<desc>lat.=55.760769, lon.=26.332035, Alt.=134.408325m. Speed=18.684000m/h.</desc>
<speed>5.190000</speed>
</trkpt>
<trkpt lat="55.760738" lon="26.331978">
<ele>134.619263</ele>
<time>2010-07-17T09:36:23Z</time>
<desc>lat.=55.760738, lon.=26.331978, Alt.=134.619263m. Speed=17.892000m/h.</desc>
<speed>4.970000</speed>
</trkpt>
<trkpt lat="55.760704" lon="26.331930">
<ele>134.720825</ele>
<time>2010-07-17T09:36:24Z</time>
<desc>lat.=55.760704, lon.=26.331930, Alt.=134.720825m. Speed=17.676001m/h.</desc>
<speed>4.910000</speed>
</trkpt>
<trkpt lat="55.760670" lon="26.331884">
<ele>134.775513</ele>
<time>2010-07-17T09:36:25Z</time>
<desc>lat.=55.760670, lon.=26.331884, Alt.=134.775513m. Speed=16.992001m/h.</desc>
<speed>4.720000</speed>
</trkpt>
<trkpt lat="55.760635" lon="26.331837">
<ele>134.826294</ele>
<time>2010-07-17T09:36:26Z</time>
<desc>lat.=55.760635, lon.=26.331837, Alt.=134.826294m. Speed=16.271999m/h.</desc>
<speed>4.520000</speed>
</trkpt>
<trkpt lat="55.760601" lon="26.331795">
<ele>134.869263</ele>
<time>2010-07-17T09:36:27Z</time>
<desc>lat.=55.760601, lon.=26.331795, Alt.=134.869263m. Speed=16.740000m/h.</desc>
<speed>4.650000</speed>
</trkpt>
<trkpt lat="55.760567" lon="26.331755">
<ele>135.177856</ele>
<time>2010-07-17T09:36:28Z</time>
<desc>lat.=55.760567, lon.=26.331755, Alt.=135.177856m. Speed=15.588000m/h.</desc>
<speed>4.330000</speed>
</trkpt>
<trkpt lat="55.760536" lon="26.331713">
<ele>135.986450</ele>
<time>2010-07-17T09:36:29Z</time>
<desc>lat.=55.760536, lon.=26.331713, Alt.=135.986450m. Speed=16.992001m/h.</desc>
<speed>4.720000</speed>
</trkpt>
<trkpt lat="55.760502" lon="26.331669">
<ele>136.560669</ele>
<time>2010-07-17T09:36:30Z</time>
<desc>lat.=55.760502, lon.=26.331669, Alt.=136.560669m. Speed=16.416000m/h.</desc>
<speed>4.560000</speed>
</trkpt>
<trkpt lat="55.760464" lon="26.331619">
<ele>136.869263</ele>
<time>2010-07-17T09:36:31Z</time>
<desc>lat.=55.760464, lon.=26.331619, Alt.=136.869263m. Speed=17.568001m/h.</desc>
<speed>4.880000</speed>
</trkpt>
<trkpt lat="55.760429" lon="26.331572">
<ele>137.072388</ele>
<time>2010-07-17T09:36:32Z</time>
<desc>lat.=55.760429, lon.=26.331572, Alt.=137.072388m. Speed=16.236000m/h.</desc>
<speed>4.510000</speed>
</trkpt>
<trkpt lat="55.760399" lon="26.331526">
<ele>137.318481</ele>
<time>2010-07-17T09:36:33Z</time>
<desc>lat.=55.760399, lon.=26.331526, Alt.=137.318481m. Speed=16.667999m/h.</desc>
<speed>4.630000</speed>
</trkpt>
<trkpt lat="55.760365" lon="26.331470">
<ele>137.552856</ele>
<time>2010-07-17T09:36:34Z</time>
<desc>lat.=55.760365, lon.=26.331470, Alt.=137.552856m. Speed=17.712000m/h.</desc>
<speed>4.920000</speed>
</trkpt>
<trkpt lat="55.760326" lon="26.331415">
<ele>137.787231</ele>
<time>2010-07-17T09:36:35Z</time>
<desc>lat.=55.760326, lon.=26.331415, Alt.=137.787231m. Speed=19.260000m/h.</desc>
<speed>5.350000</speed>
</trkpt>
<trkpt lat="55.760288" lon="26.331375">
<ele>138.216919</ele>
<time>2010-07-17T09:36:36Z</time>
<desc>lat.=55.760288, lon.=26.331375, Alt.=138.216919m. Speed=18.612000m/h.</desc>
<speed>5.170000</speed>
</trkpt>
<trkpt lat="55.760246" lon="26.331326">
<ele>138.591919</ele>
<time>2010-07-17T09:36:37Z</time>
<desc>lat.=55.760246, lon.=26.331326, Alt.=138.591919m. Speed=20.556000m/h.</desc>
<speed>5.710000</speed>
</trkpt>
<trkpt lat="55.760204" lon="26.331272">
<ele>138.845825</ele>
<time>2010-07-17T09:36:38Z</time>
<desc>lat.=55.760204, lon.=26.331272, Alt.=138.845825m. Speed=21.348000m/h.</desc>
<speed>5.930000</speed>
</trkpt>
<trkpt lat="55.760159" lon="26.331211">
<ele>139.091919</ele>
<time>2010-07-17T09:36:39Z</time>
<desc>lat.=55.760159, lon.=26.331211, Alt.=139.091919m. Speed=21.780001m/h.</desc>
<speed>6.050000</speed>
</trkpt>
<trkpt lat="55.760117" lon="26.331154">
<ele>139.228638</ele>
<time>2010-07-17T09:36:40Z</time>
<desc>lat.=55.760117, lon.=26.331154, Alt.=139.228638m. Speed=20.844000m/h.</desc>
<speed>5.790000</speed>
</trkpt>
<trkpt lat="55.760071" lon="26.331091">
<ele>139.345825</ele>
<time>2010-07-17T09:36:41Z</time>
<desc>lat.=55.760071, lon.=26.331091, Alt.=139.345825m. Speed=22.608000m/h.</desc>
<speed>6.280000</speed>
</trkpt>
<trkpt lat="55.760021" lon="26.331034">
<ele>139.955200</ele>
<time>2010-07-17T09:36:42Z</time>
<desc>lat.=55.760021, lon.=26.331034, Alt.=139.955200m. Speed=23.364000m/h.</desc>
<speed>6.490000</speed>
</trkpt>
<trkpt lat="55.759975" lon="26.330971">
<ele>140.310669</ele>
<time>2010-07-17T09:36:43Z</time>
<desc>lat.=55.759975, lon.=26.330971, Alt.=140.310669m. Speed=23.796000m/h.</desc>
<speed>6.610000</speed>
</trkpt>
<trkpt lat="55.759926" lon="26.330900">
<ele>140.377075</ele>
<time>2010-07-17T09:36:44Z</time>
<desc>lat.=55.759926, lon.=26.330900, Alt.=140.377075m. Speed=24.948000m/h.</desc>
<speed>6.930000</speed>
</trkpt>
<trkpt lat="55.759876" lon="26.330828">
<ele>140.474731</ele>
<time>2010-07-17T09:36:45Z</time>
<desc>lat.=55.759876, lon.=26.330828, Alt.=140.474731m. Speed=26.243999m/h.</desc>
<speed>7.290000</speed>
</trkpt>
<trkpt lat="55.759827" lon="26.330755">
<ele>140.607544</ele>
<time>2010-07-17T09:36:46Z</time>
<desc>lat.=55.759827, lon.=26.330755, Alt.=140.607544m. Speed=26.136000m/h.</desc>
<speed>7.260000</speed>
</trkpt>
<trkpt lat="55.759777" lon="26.330685">
<ele>140.830200</ele>
<time>2010-07-17T09:36:47Z</time>
<desc>lat.=55.759777, lon.=26.330685, Alt.=140.830200m. Speed=26.568001m/h.</desc>
<speed>7.380000</speed>
</trkpt>
<trkpt lat="55.759724" lon="26.330614">
<ele>140.974731</ele>
<time>2010-07-17T09:36:48Z</time>
<desc>lat.=55.759724, lon.=26.330614, Alt.=140.974731m. Speed=27.216000m/h.</desc>
<speed>7.560000</speed>
</trkpt>
<trkpt lat="55.759663" lon="26.330553">
<ele>141.142700</ele>
<time>2010-07-17T09:36:49Z</time>
<desc>lat.=55.759663, lon.=26.330553, Alt.=141.142700m. Speed=27.360001m/h.</desc>
<speed>7.600000</speed>
</trkpt>
<trkpt lat="55.759594" lon="26.330482">
<ele>141.400513</ele>
<time>2010-07-17T09:36:50Z</time>
<desc>lat.=55.759594, lon.=26.330482, Alt.=141.400513m. Speed=27.000000m/h.</desc>
<speed>7.500000</speed>
</trkpt>
<trkpt lat="55.759537" lon="26.330406">
<ele>141.545044</ele>
<time>2010-07-17T09:36:51Z</time>
<desc>lat.=55.759537, lon.=26.330406, Alt.=141.545044m. Speed=25.308001m/h.</desc>
<speed>7.030000</speed>
</trkpt>
<trkpt lat="55.759480" lon="26.330326">
<ele>141.564575</ele>
<time>2010-07-17T09:36:52Z</time>
<desc>lat.=55.759480, lon.=26.330326, Alt.=141.564575m. Speed=25.271999m/h.</desc>
<speed>7.020000</speed>
</trkpt>
<trkpt lat="55.759418" lon="26.330259">
<ele>141.724731</ele>
<time>2010-07-17T09:36:53Z</time>
<desc>lat.=55.759418, lon.=26.330259, Alt.=141.724731m. Speed=25.416000m/h.</desc>
<speed>7.060000</speed>
</trkpt>
<trkpt lat="55.759365" lon="26.330198">
<ele>141.939575</ele>
<time>2010-07-17T09:36:54Z</time>
<desc>lat.=55.759365, lon.=26.330198, Alt.=141.939575m. Speed=24.912001m/h.</desc>
<speed>6.920000</speed>
</trkpt>
<trkpt lat="55.759308" lon="26.330133">
<ele>142.142700</ele>
<time>2010-07-17T09:36:55Z</time>
<desc>lat.=55.759308, lon.=26.330133, Alt.=142.142700m. Speed=24.695999m/h.</desc>
<speed>6.860000</speed>
</trkpt>
<trkpt lat="55.759254" lon="26.330063">
<ele>142.267700</ele>
<time>2010-07-17T09:36:56Z</time>
<desc>lat.=55.759254, lon.=26.330063, Alt.=142.267700m. Speed=25.848000m/h.</desc>
<speed>7.180000</speed>
</trkpt>
<trkpt lat="55.759193" lon="26.329988">
<ele>142.392700</ele>
<time>2010-07-17T09:36:57Z</time>
<desc>lat.=55.759193, lon.=26.329988, Alt.=142.392700m. Speed=27.900000m/h.</desc>
<speed>7.750000</speed>
</trkpt>
<trkpt lat="55.759132" lon="26.329916">
<ele>142.646606</ele>
<time>2010-07-17T09:36:58Z</time>
<desc>lat.=55.759132, lon.=26.329916, Alt.=142.646606m. Speed=27.900000m/h.</desc>
<speed>7.750000</speed>
</trkpt>
<trkpt lat="55.759071" lon="26.329845">
<ele>142.834106</ele>
<time>2010-07-17T09:36:59Z</time>
<desc>lat.=55.759071, lon.=26.329845, Alt.=142.834106m. Speed=28.115999m/h.</desc>
<speed>7.810000</speed>
</trkpt>
<trkpt lat="55.759018" lon="26.329773">
<ele>142.990356</ele>
<time>2010-07-17T09:37:00Z</time>
<desc>lat.=55.759018, lon.=26.329773, Alt.=142.990356m. Speed=25.559999m/h.</desc>
<speed>7.100000</speed>
</trkpt>
<trkpt lat="55.758957" lon="26.329691">
<ele>142.642700</ele>
<time>2010-07-17T09:37:01Z</time>
<desc>lat.=55.758957, lon.=26.329691, Alt.=142.642700m. Speed=24.912001m/h.</desc>
<speed>6.920000</speed>
</trkpt>
<trkpt lat="55.758900" lon="26.329622">
<ele>142.447388</ele>
<time>2010-07-17T09:37:02Z</time>
<desc>lat.=55.758900, lon.=26.329622, Alt.=142.447388m. Speed=25.271999m/h.</desc>
<speed>7.020000</speed>
</trkpt>
<trkpt lat="55.758846" lon="26.329559">
<ele>142.728638</ele>
<time>2010-07-17T09:37:03Z</time>
<desc>lat.=55.758846, lon.=26.329559, Alt.=142.728638m. Speed=24.695999m/h.</desc>
<speed>6.860000</speed>
</trkpt>
<trkpt lat="55.758785" lon="26.329494">
<ele>142.892700</ele>
<time>2010-07-17T09:37:04Z</time>
<desc>lat.=55.758785, lon.=26.329494, Alt.=142.892700m. Speed=25.632000m/h.</desc>
<speed>7.120000</speed>
</trkpt>
<trkpt lat="55.758720" lon="26.329428">
<ele>143.181763</ele>
<time>2010-07-17T09:37:05Z</time>
<desc>lat.=55.758720, lon.=26.329428, Alt.=143.181763m. Speed=26.784000m/h.</desc>
<speed>7.440000</speed>
</trkpt>
<trkpt lat="55.758667" lon="26.329350">
<ele>143.166138</ele>
<time>2010-07-17T09:37:06Z</time>
<desc>lat.=55.758667, lon.=26.329350, Alt.=143.166138m. Speed=27.180000m/h.</desc>
<speed>7.550000</speed>
</trkpt>
<trkpt lat="55.758610" lon="26.329285">
<ele>143.080200</ele>
<time>2010-07-17T09:37:07Z</time>
<desc>lat.=55.758610, lon.=26.329285, Alt.=143.080200m. Speed=28.584000m/h.</desc>
<speed>7.940000</speed>
</trkpt>
<trkpt lat="55.758545" lon="26.329210">
<ele>143.142700</ele>
<time>2010-07-17T09:37:08Z</time>
<desc>lat.=55.758545, lon.=26.329210, Alt.=143.142700m. Speed=27.756001m/h.</desc>
<speed>7.710000</speed>
</trkpt>
<trkpt lat="55.758484" lon="26.329140">
<ele>143.197388</ele>
<time>2010-07-17T09:37:09Z</time>
<desc>lat.=55.758484, lon.=26.329140, Alt.=143.197388m. Speed=27.252001m/h.</desc>
<speed>7.570000</speed>
</trkpt>
<trkpt lat="55.758423" lon="26.329077">
<ele>143.244263</ele>
<time>2010-07-17T09:37:10Z</time>
<desc>lat.=55.758423, lon.=26.329077, Alt.=143.244263m. Speed=26.927999m/h.</desc>
<speed>7.480000</speed>
</trkpt>
<trkpt lat="55.758366" lon="26.329010">
<ele>143.478638</ele>
<time>2010-07-17T09:37:11Z</time>
<desc>lat.=55.758366, lon.=26.329010, Alt.=143.478638m. Speed=25.920000m/h.</desc>
<speed>7.200000</speed>
</trkpt>
<trkpt lat="55.758312" lon="26.328951">
<ele>143.548950</ele>
<time>2010-07-17T09:37:12Z</time>
<desc>lat.=55.758312, lon.=26.328951, Alt.=143.548950m. Speed=25.920000m/h.</desc>
<speed>7.200000</speed>
</trkpt>
<trkpt lat="55.758255" lon="26.328892">
<ele>143.830200</ele>
<time>2010-07-17T09:37:13Z</time>
<desc>lat.=55.758255, lon.=26.328892, Alt.=143.830200m. Speed=25.884001m/h.</desc>
<speed>7.190000</speed>
</trkpt>
<trkpt lat="55.758190" lon="26.328829">
<ele>144.037231</ele>
<time>2010-07-17T09:37:14Z</time>
<desc>lat.=55.758190, lon.=26.328829, Alt.=144.037231m. Speed=27.216000m/h.</desc>
<speed>7.560000</speed>
</trkpt>
<trkpt lat="55.758133" lon="26.328756">
<ele>144.076294</ele>
<time>2010-07-17T09:37:15Z</time>
<desc>lat.=55.758133, lon.=26.328756, Alt.=144.076294m. Speed=27.684000m/h.</desc>
<speed>7.690000</speed>
</trkpt>
<trkpt lat="55.758080" lon="26.328646">
<ele>144.130981</ele>
<time>2010-07-17T09:37:16Z</time>
<desc>lat.=55.758080, lon.=26.328646, Alt.=144.130981m. Speed=27.288000m/h.</desc>
<speed>7.580000</speed>
</trkpt>
<trkpt lat="55.758026" lon="26.328577">
<ele>144.088013</ele>
<time>2010-07-17T09:37:17Z</time>
<desc>lat.=55.758026, lon.=26.328577, Alt.=144.088013m. Speed=27.468000m/h.</desc>
<speed>7.630000</speed>
</trkpt>
<trkpt lat="55.757969" lon="26.328501">
<ele>144.213013</ele>
<time>2010-07-17T09:37:18Z</time>
<desc>lat.=55.757969, lon.=26.328501, Alt.=144.213013m. Speed=26.892000m/h.</desc>
<speed>7.470000</speed>
</trkpt>
<trkpt lat="55.757908" lon="26.328430">
<ele>144.158325</ele>
<time>2010-07-17T09:37:19Z</time>
<desc>lat.=55.757908, lon.=26.328430, Alt.=144.158325m. Speed=27.648001m/h.</desc>
<speed>7.680000</speed>
</trkpt>
<trkpt lat="55.757854" lon="26.328360">
<ele>144.123169</ele>
<time>2010-07-17T09:37:20Z</time>
<desc>lat.=55.757854, lon.=26.328360, Alt.=144.123169m. Speed=25.704000m/h.</desc>
<speed>7.140000</speed>
</trkpt>
<trkpt lat="55.757797" lon="26.328281">
<ele>143.986450</ele>
<time>2010-07-17T09:37:21Z</time>
<desc>lat.=55.757797, lon.=26.328281, Alt.=143.986450m. Speed=25.955999m/h.</desc>
<speed>7.210000</speed>
</trkpt>
<trkpt lat="55.757751" lon="26.328209">
<ele>143.826294</ele>
<time>2010-07-17T09:37:22Z</time>
<desc>lat.=55.757751, lon.=26.328209, Alt.=143.826294m. Speed=23.076000m/h.</desc>
<speed>6.410000</speed>
</trkpt>
<trkpt lat="55.757702" lon="26.328150">
<ele>143.740356</ele>
<time>2010-07-17T09:37:23Z</time>
<desc>lat.=55.757702, lon.=26.328150, Alt.=143.740356m. Speed=24.191999m/h.</desc>
<speed>6.720000</speed>
</trkpt>
<trkpt lat="55.757645" lon="26.328089">
<ele>143.779419</ele>
<time>2010-07-17T09:37:24Z</time>
<desc>lat.=55.757645, lon.=26.328089, Alt.=143.779419m. Speed=25.056000m/h.</desc>
<speed>6.960000</speed>
</trkpt>
<trkpt lat="55.757591" lon="26.328026">
<ele>143.697388</ele>
<time>2010-07-17T09:37:25Z</time>
<desc>lat.=55.757591, lon.=26.328026, Alt.=143.697388m. Speed=25.667999m/h.</desc>
<speed>7.130000</speed>
</trkpt>
<trkpt lat="55.757538" lon="26.327959">
<ele>143.509888</ele>
<time>2010-07-17T09:37:26Z</time>
<desc>lat.=55.757538, lon.=26.327959, Alt.=143.509888m. Speed=26.604000m/h.</desc>
<speed>7.390000</speed>
</trkpt>
<trkpt lat="55.757477" lon="26.327879">
<ele>143.232544</ele>
<time>2010-07-17T09:37:27Z</time>
<desc>lat.=55.757477, lon.=26.327879, Alt.=143.232544m. Speed=26.351999m/h.</desc>
<speed>7.320000</speed>
</trkpt>
<trkpt lat="55.757431" lon="26.327801">
<ele>143.111450</ele>
<time>2010-07-17T09:37:28Z</time>
<desc>lat.=55.757431, lon.=26.327801, Alt.=143.111450m. Speed=24.587999m/h.</desc>
<speed>6.830000</speed>
</trkpt>
<trkpt lat="55.757385" lon="26.327728">
<ele>143.072388</ele>
<time>2010-07-17T09:37:29Z</time>
<desc>lat.=55.757385, lon.=26.327728, Alt.=143.072388m. Speed=23.868000m/h.</desc>
<speed>6.630000</speed>
</trkpt>
<trkpt lat="55.757336" lon="26.327667">
<ele>143.084106</ele>
<time>2010-07-17T09:37:30Z</time>
<desc>lat.=55.757336, lon.=26.327667, Alt.=143.084106m. Speed=23.148001m/h.</desc>
<speed>6.430000</speed>
</trkpt>
<trkpt lat="55.757282" lon="26.327604">
<ele>143.002075</ele>
<time>2010-07-17T09:37:31Z</time>
<desc>lat.=55.757282, lon.=26.327604, Alt.=143.002075m. Speed=24.048000m/h.</desc>
<speed>6.680000</speed>
</trkpt>
<trkpt lat="55.757233" lon="26.327543">
<ele>142.963013</ele>
<time>2010-07-17T09:37:32Z</time>
<desc>lat.=55.757233, lon.=26.327543, Alt.=142.963013m. Speed=24.732000m/h.</desc>
<speed>6.870000</speed>
</trkpt>
<trkpt lat="55.757179" lon="26.327467">
<ele>142.638794</ele>
<time>2010-07-17T09:37:33Z</time>
<desc>lat.=55.757179, lon.=26.327467, Alt.=142.638794m. Speed=25.596001m/h.</desc>
<speed>7.110000</speed>
</trkpt>
<trkpt lat="55.757126" lon="26.327398">
<ele>142.459106</ele>
<time>2010-07-17T09:37:34Z</time>
<desc>lat.=55.757126, lon.=26.327398, Alt.=142.459106m. Speed=25.416000m/h.</desc>
<speed>7.060000</speed>
</trkpt>
<trkpt lat="55.757057" lon="26.327326">
<ele>142.310669</ele>
<time>2010-07-17T09:37:35Z</time>
<desc>lat.=55.757057, lon.=26.327326, Alt.=142.310669m. Speed=25.920000m/h.</desc>
<speed>7.200000</speed>
</trkpt>
<trkpt lat="55.756996" lon="26.327255">
<ele>142.084106</ele>
<time>2010-07-17T09:37:36Z</time>
<desc>lat.=55.756996, lon.=26.327255, Alt.=142.084106m. Speed=25.091999m/h.</desc>
<speed>6.970000</speed>
</trkpt>
<trkpt lat="55.756943" lon="26.327190">
<ele>142.029419</ele>
<time>2010-07-17T09:37:37Z</time>
<desc>lat.=55.756943, lon.=26.327190, Alt.=142.029419m. Speed=25.308001m/h.</desc>
<speed>7.030000</speed>
</trkpt>
<trkpt lat="55.756889" lon="26.327127">
<ele>141.939575</ele>
<time>2010-07-17T09:37:38Z</time>
<desc>lat.=55.756889, lon.=26.327127, Alt.=141.939575m. Speed=24.372000m/h.</desc>
<speed>6.770000</speed>
</trkpt>
<trkpt lat="55.756840" lon="26.327066">
<ele>141.810669</ele>
<time>2010-07-17T09:37:39Z</time>
<desc>lat.=55.756840, lon.=26.327066, Alt.=141.810669m. Speed=22.464001m/h.</desc>
<speed>6.240000</speed>
</trkpt>
<trkpt lat="55.756794" lon="26.327002">
<ele>141.845825</ele>
<time>2010-07-17T09:37:40Z</time>
<desc>lat.=55.756794, lon.=26.327002, Alt.=141.845825m. Speed=22.716000m/h.</desc>
<speed>6.310000</speed>
</trkpt>
<trkpt lat="55.756748" lon="26.326929">
<ele>141.670044</ele>
<time>2010-07-17T09:37:41Z</time>
<desc>lat.=55.756748, lon.=26.326929, Alt.=141.670044m. Speed=23.940001m/h.</desc>
<speed>6.650000</speed>
</trkpt>
<trkpt lat="55.756699" lon="26.326864">
<ele>141.474731</ele>
<time>2010-07-17T09:37:42Z</time>
<desc>lat.=55.756699, lon.=26.326864, Alt.=141.474731m. Speed=21.959999m/h.</desc>
<speed>6.100000</speed>
</trkpt>
<trkpt lat="55.756653" lon="26.326792">
<ele>141.236450</ele>
<time>2010-07-17T09:37:43Z</time>
<desc>lat.=55.756653, lon.=26.326792, Alt.=141.236450m. Speed=22.896000m/h.</desc>
<speed>6.360000</speed>
</trkpt>
<trkpt lat="55.756607" lon="26.326725">
<ele>141.076294</ele>
<time>2010-07-17T09:37:44Z</time>
<desc>lat.=55.756607, lon.=26.326725, Alt.=141.076294m. Speed=22.572001m/h.</desc>
<speed>6.270000</speed>
</trkpt>
<trkpt lat="55.756550" lon="26.326647">
<ele>140.814575</ele>
<time>2010-07-17T09:37:45Z</time>
<desc>lat.=55.756550, lon.=26.326647, Alt.=140.814575m. Speed=23.580000m/h.</desc>
<speed>6.550000</speed>
</trkpt>
<trkpt lat="55.756504" lon="26.326572">
<ele>140.673950</ele>
<time>2010-07-17T09:37:46Z</time>
<desc>lat.=55.756504, lon.=26.326572, Alt.=140.673950m. Speed=24.084000m/h.</desc>
<speed>6.690000</speed>
</trkpt>
<trkpt lat="55.756458" lon="26.326498">
<ele>140.568481</ele>
<time>2010-07-17T09:37:47Z</time>
<desc>lat.=55.756458, lon.=26.326498, Alt.=140.568481m. Speed=23.832001m/h.</desc>
<speed>6.620000</speed>
</trkpt>
<trkpt lat="55.756390" lon="26.326422">
<ele>140.205200</ele>
<time>2010-07-17T09:37:48Z</time>
<desc>lat.=55.756390, lon.=26.326422, Alt.=140.205200m. Speed=25.416000m/h.</desc>
<speed>7.060000</speed>
</trkpt>
<trkpt lat="55.756332" lon="26.326353">
<ele>139.916138</ele>
<time>2010-07-17T09:37:49Z</time>
<desc>lat.=55.756332, lon.=26.326353, Alt.=139.916138m. Speed=24.480000m/h.</desc>
<speed>6.800000</speed>
</trkpt>
<trkpt lat="55.756279" lon="26.326288">
<ele>139.654419</ele>
<time>2010-07-17T09:37:50Z</time>
<desc>lat.=55.756279, lon.=26.326288, Alt.=139.654419m. Speed=25.236000m/h.</desc>
<speed>7.010000</speed>
</trkpt>
<trkpt lat="55.756229" lon="26.326212">
<ele>139.603638</ele>
<time>2010-07-17T09:37:51Z</time>
<desc>lat.=55.756229, lon.=26.326212, Alt.=139.603638m. Speed=23.615999m/h.</desc>
<speed>6.560000</speed>
</trkpt>
<trkpt lat="55.756191" lon="26.326126">
<ele>139.416138</ele>
<time>2010-07-17T09:37:52Z</time>
<desc>lat.=55.756191, lon.=26.326126, Alt.=139.416138m. Speed=24.011999m/h.</desc>
<speed>6.670000</speed>
</trkpt>
<trkpt lat="55.756142" lon="26.326059">
<ele>139.150513</ele>
<time>2010-07-17T09:37:53Z</time>
<desc>lat.=55.756142, lon.=26.326059, Alt.=139.150513m. Speed=25.992001m/h.</desc>
<speed>7.220000</speed>
</trkpt>
<trkpt lat="55.756081" lon="26.325987">
<ele>138.904419</ele>
<time>2010-07-17T09:37:54Z</time>
<desc>lat.=55.756081, lon.=26.325987, Alt.=138.904419m. Speed=25.416000m/h.</desc>
<speed>7.060000</speed>
</trkpt>
<trkpt lat="55.756027" lon="26.325918">
<ele>138.763794</ele>
<time>2010-07-17T09:37:55Z</time>
<desc>lat.=55.756027, lon.=26.325918, Alt.=138.763794m. Speed=25.344000m/h.</desc>
<speed>7.040000</speed>
</trkpt>
<trkpt lat="55.755970" lon="26.325840">
<ele>138.478638</ele>
<time>2010-07-17T09:37:56Z</time>
<desc>lat.=55.755970, lon.=26.325840, Alt.=138.478638m. Speed=26.388000m/h.</desc>
<speed>7.330000</speed>
</trkpt>
<trkpt lat="55.755913" lon="26.325760">
<ele>138.263794</ele>
<time>2010-07-17T09:37:57Z</time>
<desc>lat.=55.755913, lon.=26.325760, Alt.=138.263794m. Speed=25.992001m/h.</desc>
<speed>7.220000</speed>
</trkpt>
<trkpt lat="55.755859" lon="26.325678">
<ele>138.162231</ele>
<time>2010-07-17T09:37:58Z</time>
<desc>lat.=55.755859, lon.=26.325678, Alt.=138.162231m. Speed=25.236000m/h.</desc>
<speed>7.010000</speed>
</trkpt>
<trkpt lat="55.755810" lon="26.325605">
<ele>137.990356</ele>
<time>2010-07-17T09:37:59Z</time>
<desc>lat.=55.755810, lon.=26.325605, Alt.=137.990356m. Speed=25.416000m/h.</desc>
<speed>7.060000</speed>
</trkpt>
<trkpt lat="55.755760" lon="26.325535">
<ele>137.693481</ele>
<time>2010-07-17T09:38:00Z</time>
<desc>lat.=55.755760, lon.=26.325535, Alt.=137.693481m. Speed=25.091999m/h.</desc>
<speed>6.970000</speed>
</trkpt>
<trkpt lat="55.755711" lon="26.325468">
<ele>137.361450</ele>
<time>2010-07-17T09:38:01Z</time>
<desc>lat.=55.755711, lon.=26.325468, Alt.=137.361450m. Speed=24.948000m/h.</desc>
<speed>6.930000</speed>
</trkpt>
<trkpt lat="55.755661" lon="26.325394">
<ele>136.775513</ele>
<time>2010-07-17T09:38:02Z</time>
<desc>lat.=55.755661, lon.=26.325394, Alt.=136.775513m. Speed=24.983999m/h.</desc>
<speed>6.940000</speed>
</trkpt>
<trkpt lat="55.755615" lon="26.325321">
<ele>136.556763</ele>
<time>2010-07-17T09:38:03Z</time>
<desc>lat.=55.755615, lon.=26.325321, Alt.=136.556763m. Speed=25.848000m/h.</desc>
<speed>7.180000</speed>
</trkpt>
<trkpt lat="55.755562" lon="26.325243">
<ele>136.216919</ele>
<time>2010-07-17T09:38:04Z</time>
<desc>lat.=55.755562, lon.=26.325243, Alt.=136.216919m. Speed=26.351999m/h.</desc>
<speed>7.320000</speed>
</trkpt>
<trkpt lat="55.755508" lon="26.325161">
<ele>135.888794</ele>
<time>2010-07-17T09:38:05Z</time>
<desc>lat.=55.755508, lon.=26.325161, Alt.=135.888794m. Speed=25.704000m/h.</desc>
<speed>7.140000</speed>
</trkpt>
<trkpt lat="55.755459" lon="26.325090">
<ele>135.607544</ele>
<time>2010-07-17T09:38:06Z</time>
<desc>lat.=55.755459, lon.=26.325090, Alt.=135.607544m. Speed=24.768000m/h.</desc>
<speed>6.880000</speed>
</trkpt>
<trkpt lat="55.755409" lon="26.325010">
<ele>135.420044</ele>
<time>2010-07-17T09:38:07Z</time>
<desc>lat.=55.755409, lon.=26.325010, Alt.=135.420044m. Speed=24.587999m/h.</desc>
<speed>6.830000</speed>
</trkpt>
<trkpt lat="55.755360" lon="26.324944">
<ele>135.033325</ele>
<time>2010-07-17T09:38:08Z</time>
<desc>lat.=55.755360, lon.=26.324944, Alt.=135.033325m. Speed=24.299999m/h.</desc>
<speed>6.750000</speed>
</trkpt>
<trkpt lat="55.755306" lon="26.324884">
<ele>134.783325</ele>
<time>2010-07-17T09:38:09Z</time>
<desc>lat.=55.755306, lon.=26.324884, Alt.=134.783325m. Speed=24.048000m/h.</desc>
<speed>6.680000</speed>
</trkpt>
<trkpt lat="55.755260" lon="26.324825">
<ele>134.459106</ele>
<time>2010-07-17T09:38:10Z</time>
<desc>lat.=55.755260, lon.=26.324825, Alt.=134.459106m. Speed=23.040001m/h.</desc>
<speed>6.400000</speed>
</trkpt>
<trkpt lat="55.755211" lon="26.324759">
<ele>134.287231</ele>
<time>2010-07-17T09:38:11Z</time>
<desc>lat.=55.755211, lon.=26.324759, Alt.=134.287231m. Speed=23.292000m/h.</desc>
<speed>6.470000</speed>
</trkpt>
<trkpt lat="55.755165" lon="26.324696">
<ele>134.275513</ele>
<time>2010-07-17T09:38:12Z</time>
<desc>lat.=55.755165, lon.=26.324696, Alt.=134.275513m. Speed=24.084000m/h.</desc>
<speed>6.690000</speed>
</trkpt>
<trkpt lat="55.755112" lon="26.324638">
<ele>134.076294</ele>
<time>2010-07-17T09:38:13Z</time>
<desc>lat.=55.755112, lon.=26.324638, Alt.=134.076294m. Speed=22.896000m/h.</desc>
<speed>6.360000</speed>
</trkpt>
<trkpt lat="55.755074" lon="26.324551">
<ele>134.326294</ele>
<time>2010-07-17T09:38:14Z</time>
<desc>lat.=55.755074, lon.=26.324551, Alt.=134.326294m. Speed=20.771999m/h.</desc>
<speed>5.770000</speed>
</trkpt>
<trkpt lat="55.755032" lon="26.324499">
<ele>134.271606</ele>
<time>2010-07-17T09:38:15Z</time>
<desc>lat.=55.755032, lon.=26.324499, Alt.=134.271606m. Speed=20.304001m/h.</desc>
<speed>5.640000</speed>
</trkpt>
<trkpt lat="55.754997" lon="26.324432">
<ele>134.213013</ele>
<time>2010-07-17T09:38:16Z</time>
<desc>lat.=55.754997, lon.=26.324432, Alt.=134.213013m. Speed=19.584000m/h.</desc>
<speed>5.440000</speed>
</trkpt>
<trkpt lat="55.754955" lon="26.324377">
<ele>134.142700</ele>
<time>2010-07-17T09:38:17Z</time>
<desc>lat.=55.754955, lon.=26.324377, Alt.=134.142700m. Speed=21.240000m/h.</desc>
<speed>5.900000</speed>
</trkpt>
<trkpt lat="55.754910" lon="26.324322">
<ele>134.021606</ele>
<time>2010-07-17T09:38:18Z</time>
<desc>lat.=55.754910, lon.=26.324322, Alt.=134.021606m. Speed=20.304001m/h.</desc>
<speed>5.640000</speed>
</trkpt>
<trkpt lat="55.754864" lon="26.324268">
<ele>133.900513</ele>
<time>2010-07-17T09:38:19Z</time>
<desc>lat.=55.754864, lon.=26.324268, Alt.=133.900513m. Speed=21.888000m/h.</desc>
<speed>6.080000</speed>
</trkpt>
<trkpt lat="55.754810" lon="26.324207">
<ele>133.634888</ele>
<time>2010-07-17T09:38:20Z</time>
<desc>lat.=55.754810, lon.=26.324207, Alt.=133.634888m. Speed=22.392000m/h.</desc>
<speed>6.220000</speed>
</trkpt>
<trkpt lat="55.754761" lon="26.324142">
<ele>133.677856</ele>
<time>2010-07-17T09:38:21Z</time>
<desc>lat.=55.754761, lon.=26.324142, Alt.=133.677856m. Speed=21.420000m/h.</desc>
<speed>5.950000</speed>
</trkpt>
<trkpt lat="55.754696" lon="26.324100">
<ele>134.646606</ele>
<time>2010-07-17T09:38:22Z</time>
<desc>lat.=55.754696, lon.=26.324100, Alt.=134.646606m. Speed=20.375999m/h.</desc>
<speed>5.660000</speed>
</trkpt>
<trkpt lat="55.754650" lon="26.324053">
<ele>135.298950</ele>
<time>2010-07-17T09:38:23Z</time>
<desc>lat.=55.754650, lon.=26.324053, Alt.=135.298950m. Speed=19.152000m/h.</desc>
<speed>5.320000</speed>
</trkpt>
<trkpt lat="55.754612" lon="26.323990">
<ele>135.357544</ele>
<time>2010-07-17T09:38:24Z</time>
<desc>lat.=55.754612, lon.=26.323990, Alt.=135.357544m. Speed=20.087999m/h.</desc>
<speed>5.580000</speed>
</trkpt>
<trkpt lat="55.754574" lon="26.323927">
<ele>135.310669</ele>
<time>2010-07-17T09:38:25Z</time>
<desc>lat.=55.754574, lon.=26.323927, Alt.=135.310669m. Speed=19.980000m/h.</desc>
<speed>5.550000</speed>
</trkpt>
<trkpt lat="55.754532" lon="26.323866">
<ele>135.283325</ele>
<time>2010-07-17T09:38:26Z</time>
<desc>lat.=55.754532, lon.=26.323866, Alt.=135.283325m. Speed=20.195999m/h.</desc>
<speed>5.610000</speed>
</trkpt>
<trkpt lat="55.754501" lon="26.323780">
<ele>135.517700</ele>
<time>2010-07-17T09:38:27Z</time>
<desc>lat.=55.754501, lon.=26.323780, Alt.=135.517700m. Speed=18.756001m/h.</desc>
<speed>5.210000</speed>
</trkpt>
<trkpt lat="55.754456" lon="26.323702">
<ele>135.443481</ele>
<time>2010-07-17T09:38:28Z</time>
<desc>lat.=55.754456, lon.=26.323702, Alt.=135.443481m. Speed=22.176001m/h.</desc>
<speed>6.160000</speed>
</trkpt>
<trkpt lat="55.754410" lon="26.323631">
<ele>135.295044</ele>
<time>2010-07-17T09:38:29Z</time>
<desc>lat.=55.754410, lon.=26.323631, Alt.=135.295044m. Speed=22.104000m/h.</desc>
<speed>6.140000</speed>
</trkpt>
<trkpt lat="55.754364" lon="26.323580">
<ele>135.154419</ele>
<time>2010-07-17T09:38:30Z</time>
<desc>lat.=55.754364, lon.=26.323580, Alt.=135.154419m. Speed=20.160000m/h.</desc>
<speed>5.600000</speed>
</trkpt>
<trkpt lat="55.754318" lon="26.323524">
<ele>134.916138</ele>
<time>2010-07-17T09:38:31Z</time>
<desc>lat.=55.754318, lon.=26.323524, Alt.=134.916138m. Speed=22.032000m/h.</desc>
<speed>6.120000</speed>
</trkpt>
<trkpt lat="55.754269" lon="26.323471">
<ele>135.189575</ele>
<time>2010-07-17T09:38:32Z</time>
<desc>lat.=55.754269, lon.=26.323471, Alt.=135.189575m. Speed=22.572001m/h.</desc>
<speed>6.270000</speed>
</trkpt>
<trkpt lat="55.754223" lon="26.323410">
<ele>135.338013</ele>
<time>2010-07-17T09:38:33Z</time>
<desc>lat.=55.754223, lon.=26.323410, Alt.=135.338013m. Speed=22.931999m/h.</desc>
<speed>6.370000</speed>
</trkpt>
<trkpt lat="55.754169" lon="26.323351">
<ele>135.545044</ele>
<time>2010-07-17T09:38:34Z</time>
<desc>lat.=55.754169, lon.=26.323351, Alt.=135.545044m. Speed=22.464001m/h.</desc>
<speed>6.240000</speed>
</trkpt>
<trkpt lat="55.754128" lon="26.323292">
<ele>135.630981</ele>
<time>2010-07-17T09:38:35Z</time>
<desc>lat.=55.754128, lon.=26.323292, Alt.=135.630981m. Speed=21.743999m/h.</desc>
<speed>6.040000</speed>
</trkpt>
<trkpt lat="55.754086" lon="26.323231">
<ele>135.884888</ele>
<time>2010-07-17T09:38:36Z</time>
<desc>lat.=55.754086, lon.=26.323231, Alt.=135.884888m. Speed=21.672001m/h.</desc>
<speed>6.020000</speed>
</trkpt>
<trkpt lat="55.754047" lon="26.323177">
<ele>135.943481</ele>
<time>2010-07-17T09:38:37Z</time>
<desc>lat.=55.754047, lon.=26.323177, Alt.=135.943481m. Speed=19.224001m/h.</desc>
<speed>5.340000</speed>
</trkpt>
<trkpt lat="55.754017" lon="26.323124">
<ele>136.330200</ele>
<time>2010-07-17T09:38:38Z</time>
<desc>lat.=55.754017, lon.=26.323124, Alt.=136.330200m. Speed=17.136000m/h.</desc>
<speed>4.760000</speed>
</trkpt>
<trkpt lat="55.753990" lon="26.323080">
<ele>136.638794</ele>
<time>2010-07-17T09:38:39Z</time>
<desc>lat.=55.753990, lon.=26.323080, Alt.=136.638794m. Speed=15.660000m/h.</desc>
<speed>4.350000</speed>
</trkpt>
<trkpt lat="55.753956" lon="26.323036">
<ele>137.064575</ele>
<time>2010-07-17T09:38:40Z</time>
<desc>lat.=55.753956, lon.=26.323036, Alt.=137.064575m. Speed=16.344000m/h.</desc>
<speed>4.540000</speed>
</trkpt>
<trkpt lat="55.753922" lon="26.322998">
<ele>137.490356</ele>
<time>2010-07-17T09:38:41Z</time>
<desc>lat.=55.753922, lon.=26.322998, Alt.=137.490356m. Speed=15.552000m/h.</desc>
<speed>4.320000</speed>
</trkpt>
<trkpt lat="55.753899" lon="26.322964">
<ele>137.853638</ele>
<time>2010-07-17T09:38:42Z</time>
<desc>lat.=55.753899, lon.=26.322964, Alt.=137.853638m. Speed=13.428000m/h.</desc>
<speed>3.730000</speed>
</trkpt>
<trkpt lat="55.753872" lon="26.322926">
<ele>138.088013</ele>
<time>2010-07-17T09:38:43Z</time>
<desc>lat.=55.753872, lon.=26.322926, Alt.=138.088013m. Speed=13.284000m/h.</desc>
<speed>3.690000</speed>
</trkpt>
<trkpt lat="55.753841" lon="26.322887">
<ele>138.505981</ele>
<time>2010-07-17T09:38:44Z</time>
<desc>lat.=55.753841, lon.=26.322887, Alt.=138.505981m. Speed=13.968000m/h.</desc>
<speed>3.880000</speed>
</trkpt>
<trkpt lat="55.753811" lon="26.322844">
<ele>139.076294</ele>
<time>2010-07-17T09:38:45Z</time>
<desc>lat.=55.753811, lon.=26.322844, Alt.=139.076294m. Speed=14.220000m/h.</desc>
<speed>3.950000</speed>
</trkpt>
<trkpt lat="55.753784" lon="26.322798">
<ele>139.384888</ele>
<time>2010-07-17T09:38:46Z</time>
<desc>lat.=55.753784, lon.=26.322798, Alt.=139.384888m. Speed=14.472000m/h.</desc>
<speed>4.020000</speed>
</trkpt>
<trkpt lat="55.753746" lon="26.322744">
<ele>139.615356</ele>
<time>2010-07-17T09:38:47Z</time>
<desc>lat.=55.753746, lon.=26.322744, Alt.=139.615356m. Speed=16.200001m/h.</desc>
<speed>4.500000</speed>
</trkpt>
<trkpt lat="55.753716" lon="26.322701">
<ele>140.095825</ele>
<time>2010-07-17T09:38:48Z</time>
<desc>lat.=55.753716, lon.=26.322701, Alt.=140.095825m. Speed=15.876000m/h.</desc>
<speed>4.410000</speed>
</trkpt>
<trkpt lat="55.753681" lon="26.322659">
<ele>140.447388</ele>
<time>2010-07-17T09:38:49Z</time>
<desc>lat.=55.753681, lon.=26.322659, Alt.=140.447388m. Speed=15.444000m/h.</desc>
<speed>4.290000</speed>
</trkpt>
<trkpt lat="55.753643" lon="26.322622">
<ele>141.142700</ele>
<time>2010-07-17T09:38:50Z</time>
<desc>lat.=55.753643, lon.=26.322622, Alt.=141.142700m. Speed=15.264000m/h.</desc>
<speed>4.240000</speed>
</trkpt>
<trkpt lat="55.753613" lon="26.322592">
<ele>141.306763</ele>
<time>2010-07-17T09:38:51Z</time>
<desc>lat.=55.753613, lon.=26.322592, Alt.=141.306763m. Speed=14.580000m/h.</desc>
<speed>4.050000</speed>
</trkpt>
<trkpt lat="55.753590" lon="26.322536">
<ele>142.072388</ele>
<time>2010-07-17T09:38:52Z</time>
<desc>lat.=55.753590, lon.=26.322536, Alt.=142.072388m. Speed=15.444000m/h.</desc>
<speed>4.290000</speed>
</trkpt>
<trkpt lat="55.753555" lon="26.322479">
<ele>142.841919</ele>
<time>2010-07-17T09:38:53Z</time>
<desc>lat.=55.753555, lon.=26.322479, Alt.=142.841919m. Speed=18.504000m/h.</desc>
<speed>5.140000</speed>
</trkpt>
<trkpt lat="55.753510" lon="26.322449">
<ele>144.486450</ele>
<time>2010-07-17T09:38:54Z</time>
<desc>lat.=55.753510, lon.=26.322449, Alt.=144.486450m. Speed=17.424000m/h.</desc>
<speed>4.840000</speed>
</trkpt>
<trkpt lat="55.753479" lon="26.322390">
<ele>145.455200</ele>
<time>2010-07-17T09:38:55Z</time>
<desc>lat.=55.753479, lon.=26.322390, Alt.=145.455200m. Speed=15.120000m/h.</desc>
<speed>4.200000</speed>
</trkpt>
<trkpt lat="55.753445" lon="26.322348">
<ele>145.935669</ele>
<time>2010-07-17T09:38:56Z</time>
<desc>lat.=55.753445, lon.=26.322348, Alt.=145.935669m. Speed=16.704000m/h.</desc>
<speed>4.640000</speed>
</trkpt>
<trkpt lat="55.753410" lon="26.322300">
<ele>145.853638</ele>
<time>2010-07-17T09:38:57Z</time>
<desc>lat.=55.753410, lon.=26.322300, Alt.=145.853638m. Speed=17.243999m/h.</desc>
<speed>4.790000</speed>
</trkpt>
<trkpt lat="55.753376" lon="26.322248">
<ele>145.752075</ele>
<time>2010-07-17T09:38:58Z</time>
<desc>lat.=55.753376, lon.=26.322248, Alt.=145.752075m. Speed=17.496000m/h.</desc>
<speed>4.860000</speed>
</trkpt>
<trkpt lat="55.753345" lon="26.322199">
<ele>145.705200</ele>
<time>2010-07-17T09:38:59Z</time>
<desc>lat.=55.753345, lon.=26.322199, Alt.=145.705200m. Speed=16.271999m/h.</desc>
<speed>4.520000</speed>
</trkpt>
<trkpt lat="55.753311" lon="26.322149">
<ele>146.045044</ele>
<time>2010-07-17T09:39:00Z</time>
<desc>lat.=55.753311, lon.=26.322149, Alt.=146.045044m. Speed=17.100000m/h.</desc>
<speed>4.750000</speed>
</trkpt>
<trkpt lat="55.753281" lon="26.322105">
<ele>146.146606</ele>
<time>2010-07-17T09:39:01Z</time>
<desc>lat.=55.753281, lon.=26.322105, Alt.=146.146606m. Speed=13.644000m/h.</desc>
<speed>3.790000</speed>
</trkpt>
<trkpt lat="55.753254" lon="26.322060">
<ele>146.021606</ele>
<time>2010-07-17T09:39:02Z</time>
<desc>lat.=55.753254, lon.=26.322060, Alt.=146.021606m. Speed=14.580000m/h.</desc>
<speed>4.050000</speed>
</trkpt>
<trkpt lat="55.753220" lon="26.322020">
<ele>145.791138</ele>
<time>2010-07-17T09:39:03Z</time>
<desc>lat.=55.753220, lon.=26.322020, Alt.=145.791138m. Speed=14.832000m/h.</desc>
<speed>4.120000</speed>
</trkpt>
<trkpt lat="55.753189" lon="26.321978">
<ele>145.529419</ele>
<time>2010-07-17T09:39:04Z</time>
<desc>lat.=55.753189, lon.=26.321978, Alt.=145.529419m. Speed=15.228000m/h.</desc>
<speed>4.230000</speed>
</trkpt>
<trkpt lat="55.753139" lon="26.321913">
<ele>145.392700</ele>
<time>2010-07-17T09:39:05Z</time>
<desc>lat.=55.753139, lon.=26.321913, Alt.=145.392700m. Speed=16.596001m/h.</desc>
<speed>4.610000</speed>
</trkpt>
<trkpt lat="55.753098" lon="26.321856">
<ele>145.236450</ele>
<time>2010-07-17T09:39:06Z</time>
<desc>lat.=55.753098, lon.=26.321856, Alt.=145.236450m. Speed=17.172001m/h.</desc>
<speed>4.770000</speed>
</trkpt>
<trkpt lat="55.753040" lon="26.321802">
<ele>144.037231</ele>
<time>2010-07-17T09:39:07Z</time>
<desc>lat.=55.753040, lon.=26.321802, Alt.=144.037231m. Speed=16.775999m/h.</desc>
<speed>4.660000</speed>
</trkpt>
<trkpt lat="55.752995" lon="26.321754">
<ele>143.240356</ele>
<time>2010-07-17T09:39:08Z</time>
<desc>lat.=55.752995, lon.=26.321754, Alt.=143.240356m. Speed=16.632000m/h.</desc>
<speed>4.620000</speed>
</trkpt>
<trkpt lat="55.752949" lon="26.321712">
<ele>142.509888</ele>
<time>2010-07-17T09:39:09Z</time>
<desc>lat.=55.752949, lon.=26.321712, Alt.=142.509888m. Speed=16.128000m/h.</desc>
<speed>4.480000</speed>
</trkpt>
<trkpt lat="55.752907" lon="26.321672">
<ele>141.959106</ele>
<time>2010-07-17T09:39:10Z</time>
<desc>lat.=55.752907, lon.=26.321672, Alt.=141.959106m. Speed=17.459999m/h.</desc>
<speed>4.850000</speed>
</trkpt>
<trkpt lat="55.752865" lon="26.321632">
<ele>141.349731</ele>
<time>2010-07-17T09:39:11Z</time>
<desc>lat.=55.752865, lon.=26.321632, Alt.=141.349731m. Speed=17.243999m/h.</desc>
<speed>4.790000</speed>
</trkpt>
<trkpt lat="55.752827" lon="26.321583">
<ele>141.330200</ele>
<time>2010-07-17T09:39:12Z</time>
<desc>lat.=55.752827, lon.=26.321583, Alt.=141.330200m. Speed=19.044001m/h.</desc>
<speed>5.290000</speed>
</trkpt>
<trkpt lat="55.752789" lon="26.321527">
<ele>141.377075</ele>
<time>2010-07-17T09:39:13Z</time>
<desc>lat.=55.752789, lon.=26.321527, Alt.=141.377075m. Speed=19.440001m/h.</desc>
<speed>5.400000</speed>
</trkpt>
<trkpt lat="55.752747" lon="26.321472">
<ele>142.138794</ele>
<time>2010-07-17T09:39:14Z</time>
<desc>lat.=55.752747, lon.=26.321472, Alt.=142.138794m. Speed=20.591999m/h.</desc>
<speed>5.720000</speed>
</trkpt>
<trkpt lat="55.752701" lon="26.321413">
<ele>142.787231</ele>
<time>2010-07-17T09:39:15Z</time>
<desc>lat.=55.752701, lon.=26.321413, Alt.=142.787231m. Speed=20.988001m/h.</desc>
<speed>5.830000</speed>
</trkpt>
<trkpt lat="55.752651" lon="26.321362">
<ele>141.775513</ele>
<time>2010-07-17T09:39:16Z</time>
<desc>lat.=55.752651, lon.=26.321362, Alt.=141.775513m. Speed=21.384001m/h.</desc>
<speed>5.940000</speed>
</trkpt>
<trkpt lat="55.752605" lon="26.321304">
<ele>141.713013</ele>
<time>2010-07-17T09:39:17Z</time>
<desc>lat.=55.752605, lon.=26.321304, Alt.=141.713013m. Speed=22.068001m/h.</desc>
<speed>6.130000</speed>
</trkpt>
<trkpt lat="55.752560" lon="26.321247">
<ele>141.900513</ele>
<time>2010-07-17T09:39:18Z</time>
<desc>lat.=55.752560, lon.=26.321247, Alt.=141.900513m. Speed=21.420000m/h.</desc>
<speed>5.950000</speed>
</trkpt>
<trkpt lat="55.752510" lon="26.321192">
<ele>142.365356</ele>
<time>2010-07-17T09:39:19Z</time>
<desc>lat.=55.752510, lon.=26.321192, Alt.=142.365356m. Speed=21.672001m/h.</desc>
<speed>6.020000</speed>
</trkpt>
<trkpt lat="55.752464" lon="26.321135">
<ele>142.564575</ele>
<time>2010-07-17T09:39:20Z</time>
<desc>lat.=55.752464, lon.=26.321135, Alt.=142.564575m. Speed=22.716000m/h.</desc>
<speed>6.310000</speed>
</trkpt>
<trkpt lat="55.752419" lon="26.321074">
<ele>142.392700</ele>
<time>2010-07-17T09:39:21Z</time>
<desc>lat.=55.752419, lon.=26.321074, Alt.=142.392700m. Speed=23.148001m/h.</desc>
<speed>6.430000</speed>
</trkpt>
<trkpt lat="55.752373" lon="26.321007">
<ele>142.017700</ele>
<time>2010-07-17T09:39:22Z</time>
<desc>lat.=55.752373, lon.=26.321007, Alt.=142.017700m. Speed=24.084000m/h.</desc>
<speed>6.690000</speed>
</trkpt>
<trkpt lat="55.752331" lon="26.320932">
<ele>141.736450</ele>
<time>2010-07-17T09:39:23Z</time>
<desc>lat.=55.752331, lon.=26.320932, Alt.=141.736450m. Speed=24.011999m/h.</desc>
<speed>6.670000</speed>
</trkpt>
<trkpt lat="55.752285" lon="26.320866">
<ele>141.466919</ele>
<time>2010-07-17T09:39:24Z</time>
<desc>lat.=55.752285, lon.=26.320866, Alt.=141.466919m. Speed=24.336000m/h.</desc>
<speed>6.760000</speed>
</trkpt>
<trkpt lat="55.752232" lon="26.320803">
<ele>141.533325</ele>
<time>2010-07-17T09:39:25Z</time>
<desc>lat.=55.752232, lon.=26.320803, Alt.=141.533325m. Speed=24.948000m/h.</desc>
<speed>6.930000</speed>
</trkpt>
<trkpt lat="55.752178" lon="26.320738">
<ele>141.572388</ele>
<time>2010-07-17T09:39:26Z</time>
<desc>lat.=55.752178, lon.=26.320738, Alt.=141.572388m. Speed=25.775999m/h.</desc>
<speed>7.160000</speed>
</trkpt>
<trkpt lat="55.752125" lon="26.320669">
<ele>141.552856</ele>
<time>2010-07-17T09:39:27Z</time>
<desc>lat.=55.752125, lon.=26.320669, Alt.=141.552856m. Speed=26.676001m/h.</desc>
<speed>7.410000</speed>
</trkpt>
<trkpt lat="55.752079" lon="26.320580">
<ele>140.677856</ele>
<time>2010-07-17T09:39:28Z</time>
<desc>lat.=55.752079, lon.=26.320580, Alt.=140.677856m. Speed=27.035999m/h.</desc>
<speed>7.510000</speed>
</trkpt>
<trkpt lat="55.752022" lon="26.320501">
<ele>140.685669</ele>
<time>2010-07-17T09:39:29Z</time>
<desc>lat.=55.752022, lon.=26.320501, Alt.=140.685669m. Speed=27.719999m/h.</desc>
<speed>7.700000</speed>
</trkpt>
<trkpt lat="55.751965" lon="26.320425">
<ele>140.865356</ele>
<time>2010-07-17T09:39:30Z</time>
<desc>lat.=55.751965, lon.=26.320425, Alt.=140.865356m. Speed=27.648001m/h.</desc>
<speed>7.680000</speed>
</trkpt>
<trkpt lat="55.751907" lon="26.320351">
<ele>141.767700</ele>
<time>2010-07-17T09:39:31Z</time>
<desc>lat.=55.751907, lon.=26.320351, Alt.=141.767700m. Speed=26.784000m/h.</desc>
<speed>7.440000</speed>
</trkpt>
<trkpt lat="55.751858" lon="26.320278">
<ele>141.693481</ele>
<time>2010-07-17T09:39:32Z</time>
<desc>lat.=55.751858, lon.=26.320278, Alt.=141.693481m. Speed=26.063999m/h.</desc>
<speed>7.240000</speed>
</trkpt>
<trkpt lat="55.751801" lon="26.320206">
<ele>141.798950</ele>
<time>2010-07-17T09:39:33Z</time>
<desc>lat.=55.751801, lon.=26.320206, Alt.=141.798950m. Speed=27.252001m/h.</desc>
<speed>7.570000</speed>
</trkpt>
<trkpt lat="55.751743" lon="26.320145">
<ele>142.380981</ele>
<time>2010-07-17T09:39:34Z</time>
<desc>lat.=55.751743, lon.=26.320145, Alt.=142.380981m. Speed=26.351999m/h.</desc>
<speed>7.320000</speed>
</trkpt>
<trkpt lat="55.751694" lon="26.320070">
<ele>143.314575</ele>
<time>2010-07-17T09:39:35Z</time>
<desc>lat.=55.751694, lon.=26.320070, Alt.=143.314575m. Speed=25.775999m/h.</desc>
<speed>7.160000</speed>
</trkpt>
<trkpt lat="55.751640" lon="26.320002">
<ele>142.728638</ele>
<time>2010-07-17T09:39:36Z</time>
<desc>lat.=55.751640, lon.=26.320002, Alt.=142.728638m. Speed=26.964001m/h.</desc>
<speed>7.490000</speed>
</trkpt>
<trkpt lat="55.751583" lon="26.319933">
<ele>142.310669</ele>
<time>2010-07-17T09:39:37Z</time>
<desc>lat.=55.751583, lon.=26.319933, Alt.=142.310669m. Speed=26.820000m/h.</desc>
<speed>7.450000</speed>
</trkpt>
<trkpt lat="55.751534" lon="26.319859">
<ele>141.736450</ele>
<time>2010-07-17T09:39:38Z</time>
<desc>lat.=55.751534, lon.=26.319859, Alt.=141.736450m. Speed=26.892000m/h.</desc>
<speed>7.470000</speed>
</trkpt>
<trkpt lat="55.751480" lon="26.319788">
<ele>141.771606</ele>
<time>2010-07-17T09:39:39Z</time>
<desc>lat.=55.751480, lon.=26.319788, Alt.=141.771606m. Speed=27.396000m/h.</desc>
<speed>7.610000</speed>
</trkpt>
<trkpt lat="55.751427" lon="26.319715">
<ele>141.791138</ele>
<time>2010-07-17T09:39:40Z</time>
<desc>lat.=55.751427, lon.=26.319715, Alt.=141.791138m. Speed=27.468000m/h.</desc>
<speed>7.630000</speed>
</trkpt>
<trkpt lat="55.751373" lon="26.319647">
<ele>142.021606</ele>
<time>2010-07-17T09:39:41Z</time>
<desc>lat.=55.751373, lon.=26.319647, Alt.=142.021606m. Speed=27.252001m/h.</desc>
<speed>7.570000</speed>
</trkpt>
<trkpt lat="55.751320" lon="26.319571">
<ele>142.525513</ele>
<time>2010-07-17T09:39:42Z</time>
<desc>lat.=55.751320, lon.=26.319571, Alt.=142.525513m. Speed=27.216000m/h.</desc>
<speed>7.560000</speed>
</trkpt>
<trkpt lat="55.751270" lon="26.319498">
<ele>142.841919</ele>
<time>2010-07-17T09:39:43Z</time>
<desc>lat.=55.751270, lon.=26.319498, Alt.=142.841919m. Speed=27.719999m/h.</desc>
<speed>7.700000</speed>
</trkpt>
<trkpt lat="55.751213" lon="26.319418">
<ele>143.263794</ele>
<time>2010-07-17T09:39:44Z</time>
<desc>lat.=55.751213, lon.=26.319418, Alt.=143.263794m. Speed=28.332001m/h.</desc>
<speed>7.870000</speed>
</trkpt>
<trkpt lat="55.751160" lon="26.319345">
<ele>142.611450</ele>
<time>2010-07-17T09:39:45Z</time>
<desc>lat.=55.751160, lon.=26.319345, Alt.=142.611450m. Speed=25.596001m/h.</desc>
<speed>7.110000</speed>
</trkpt>
<trkpt lat="55.751099" lon="26.319294">
<ele>144.369263</ele>
<time>2010-07-17T09:39:46Z</time>
<desc>lat.=55.751099, lon.=26.319294, Alt.=144.369263m. Speed=26.316000m/h.</desc>
<speed>7.310000</speed>
</trkpt>
<trkpt lat="55.751049" lon="26.319221">
<ele>144.263794</ele>
<time>2010-07-17T09:39:47Z</time>
<desc>lat.=55.751049, lon.=26.319221, Alt.=144.263794m. Speed=25.308001m/h.</desc>
<speed>7.030000</speed>
</trkpt>
<trkpt lat="55.750999" lon="26.319155">
<ele>144.115356</ele>
<time>2010-07-17T09:39:48Z</time>
<desc>lat.=55.750999, lon.=26.319155, Alt.=144.115356m. Speed=25.812000m/h.</desc>
<speed>7.170000</speed>
</trkpt>
<trkpt lat="55.750942" lon="26.319084">
<ele>143.798950</ele>
<time>2010-07-17T09:39:49Z</time>
<desc>lat.=55.750942, lon.=26.319084, Alt.=143.798950m. Speed=26.892000m/h.</desc>
<speed>7.470000</speed>
</trkpt>
<trkpt lat="55.750885" lon="26.319019">
<ele>143.588013</ele>
<time>2010-07-17T09:39:50Z</time>
<desc>lat.=55.750885, lon.=26.319019, Alt.=143.588013m. Speed=26.496000m/h.</desc>
<speed>7.360000</speed>
</trkpt>
<trkpt lat="55.750824" lon="26.318947">
<ele>143.291138</ele>
<time>2010-07-17T09:39:51Z</time>
<desc>lat.=55.750824, lon.=26.318947, Alt.=143.291138m. Speed=27.756001m/h.</desc>
<speed>7.710000</speed>
</trkpt>
<trkpt lat="55.750771" lon="26.318867">
<ele>142.666138</ele>
<time>2010-07-17T09:39:52Z</time>
<desc>lat.=55.750771, lon.=26.318867, Alt.=142.666138m. Speed=27.936001m/h.</desc>
<speed>7.760000</speed>
</trkpt>
<trkpt lat="55.750721" lon="26.318775">
<ele>141.345825</ele>
<time>2010-07-17T09:39:53Z</time>
<desc>lat.=55.750721, lon.=26.318775, Alt.=141.345825m. Speed=27.035999m/h.</desc>
<speed>7.510000</speed>
</trkpt>
<trkpt lat="55.750660" lon="26.318705">
<ele>140.861450</ele>
<time>2010-07-17T09:39:54Z</time>
<desc>lat.=55.750660, lon.=26.318705, Alt.=140.861450m. Speed=25.740000m/h.</desc>
<speed>7.150000</speed>
</trkpt>
<trkpt lat="55.750618" lon="26.318638">
<ele>140.459106</ele>
<time>2010-07-17T09:39:55Z</time>
<desc>lat.=55.750618, lon.=26.318638, Alt.=140.459106m. Speed=23.688000m/h.</desc>
<speed>6.580000</speed>
</trkpt>
<trkpt lat="55.750576" lon="26.318577">
<ele>139.978638</ele>
<time>2010-07-17T09:39:56Z</time>
<desc>lat.=55.750576, lon.=26.318577, Alt.=139.978638m. Speed=22.247999m/h.</desc>
<speed>6.180000</speed>
</trkpt>
<trkpt lat="55.750534" lon="26.318518">
<ele>140.611450</ele>
<time>2010-07-17T09:39:57Z</time>
<desc>lat.=55.750534, lon.=26.318518, Alt.=140.611450m. Speed=20.375999m/h.</desc>
<speed>5.660000</speed>
</trkpt>
<trkpt lat="55.750496" lon="26.318470">
<ele>140.775513</ele>
<time>2010-07-17T09:39:58Z</time>
<desc>lat.=55.750496, lon.=26.318470, Alt.=140.775513m. Speed=17.927999m/h.</desc>
<speed>4.980000</speed>
</trkpt>
<trkpt lat="55.750462" lon="26.318422">
<ele>140.888794</ele>
<time>2010-07-17T09:39:59Z</time>
<desc>lat.=55.750462, lon.=26.318422, Alt.=140.888794m. Speed=16.236000m/h.</desc>
<speed>4.510000</speed>
</trkpt>
<trkpt lat="55.750435" lon="26.318386">
<ele>140.423950</ele>
<time>2010-07-17T09:40:00Z</time>
<desc>lat.=55.750435, lon.=26.318386, Alt.=140.423950m. Speed=12.168000m/h.</desc>
<speed>3.380000</speed>
</trkpt>
<trkpt lat="55.750416" lon="26.318356">
<ele>140.482544</ele>
<time>2010-07-17T09:40:01Z</time>
<desc>lat.=55.750416, lon.=26.318356, Alt.=140.482544m. Speed=10.620000m/h.</desc>
<speed>2.950000</speed>
</trkpt>
<trkpt lat="55.750397" lon="26.318321">
<ele>140.326294</ele>
<time>2010-07-17T09:40:02Z</time>
<desc>lat.=55.750397, lon.=26.318321, Alt.=140.326294m. Speed=7.884000m/h.</desc>
<speed>2.190000</speed>
</trkpt>
<trkpt lat="55.750378" lon="26.318291">
<ele>140.080200</ele>
<time>2010-07-17T09:40:03Z</time>
<desc>lat.=55.750378, lon.=26.318291, Alt.=140.080200m. Speed=6.876000m/h.</desc>
<speed>1.910000</speed>
</trkpt>
<trkpt lat="55.750362" lon="26.318274">
<ele>140.427856</ele>
<time>2010-07-17T09:40:04Z</time>
<desc>lat.=55.750362, lon.=26.318274, Alt.=140.427856m. Speed=5.148000m/h.</desc>
<speed>1.430000</speed>
</trkpt>
<trkpt lat="55.750340" lon="26.318270">
<ele>142.158325</ele>
<time>2010-07-17T09:40:05Z</time>
<desc>lat.=55.750340, lon.=26.318270, Alt.=142.158325m. Speed=6.012000m/h.</desc>
<speed>1.670000</speed>
</trkpt>
<trkpt lat="55.750340" lon="26.318253">
<ele>141.248169</ele>
<time>2010-07-17T09:40:06Z</time>
<desc>lat.=55.750340, lon.=26.318253, Alt.=141.248169m. Speed=4.176000m/h.</desc>
<speed>1.160000</speed>
</trkpt>
<trkpt lat="55.750332" lon="26.318237">
<ele>141.134888</ele>
<time>2010-07-17T09:40:07Z</time>
<desc>lat.=55.750332, lon.=26.318237, Alt.=141.134888m. Speed=3.492000m/h.</desc>
<speed>0.970000</speed>
</trkpt>
<trkpt lat="55.750328" lon="26.318224">
<ele>141.240356</ele>
<time>2010-07-17T09:40:08Z</time>
<desc>lat.=55.750328, lon.=26.318224, Alt.=141.240356m. Speed=0.252000m/h.</desc>
<speed>0.070000</speed>
</trkpt>
<trkpt lat="55.750336" lon="26.318220">
<ele>140.689575</ele>
<time>2010-07-17T09:40:09Z</time>
<desc>lat.=55.750336, lon.=26.318220, Alt.=140.689575m. Speed=0.108000m/h.</desc>
<speed>0.030000</speed>
</trkpt>
<trkpt lat="55.750336" lon="26.318216">
<ele>140.509888</ele>
<time>2010-07-17T09:40:10Z</time>
<desc>lat.=55.750336, lon.=26.318216, Alt.=140.509888m. Speed=0.324000m/h.</desc>
<speed>0.090000</speed>
</trkpt>
<trkpt lat="55.750336" lon="26.318214">
<ele>140.541138</ele>
<time>2010-07-17T09:40:11Z</time>
<desc>lat.=55.750336, lon.=26.318214, Alt.=140.541138m. Speed=0.756000m/h.</desc>
<speed>0.210000</speed>
</trkpt>
<trkpt lat="55.750340" lon="26.318213">
<ele>140.560669</ele>
<time>2010-07-17T09:40:12Z</time>
<desc>lat.=55.750340, lon.=26.318213, Alt.=140.560669m. Speed=0.792000m/h.</desc>
<speed>0.220000</speed>
</trkpt>
<trkpt lat="55.750340" lon="26.318213">
<ele>140.580200</ele>
<time>2010-07-17T09:40:13Z</time>
<desc>lat.=55.750340, lon.=26.318213, Alt.=140.580200m. Speed=0.612000m/h.</desc>
<speed>0.170000</speed>
</trkpt>
<trkpt lat="55.750343" lon="26.318211">
<ele>140.595825</ele>
<time>2010-07-17T09:40:14Z</time>
<desc>lat.=55.750343, lon.=26.318211, Alt.=140.595825m. Speed=0.504000m/h.</desc>
<speed>0.140000</speed>
</trkpt>
<trkpt lat="55.750343" lon="26.318211">
<ele>140.607544</ele>
<time>2010-07-17T09:40:15Z</time>
<desc>lat.=55.750343, lon.=26.318211, Alt.=140.607544m. Speed=0.468000m/h.</desc>
<speed>0.130000</speed>
</trkpt>
<trkpt lat="55.750343" lon="26.318209">
<ele>140.623169</ele>
<time>2010-07-17T09:40:16Z</time>
<desc>lat.=55.750343, lon.=26.318209, Alt.=140.623169m. Speed=0.108000m/h.</desc>
<speed>0.030000</speed>
</trkpt>
<trkpt lat="55.750343" lon="26.318209">
<ele>140.638794</ele>
<time>2010-07-17T09:40:17Z</time>
<desc>lat.=55.750343, lon.=26.318209, Alt.=140.638794m. Speed=0.324000m/h.</desc>
<speed>0.090000</speed>
</trkpt>
<trkpt lat="55.750343" lon="26.318207">
<ele>140.650513</ele>
<time>2010-07-17T09:40:18Z</time>
<desc>lat.=55.750343, lon.=26.318207, Alt.=140.650513m. Speed=0.972000m/h.</desc>
<speed>0.270000</speed>
</trkpt>
<trkpt lat="55.750343" lon="26.318203">
<ele>140.662231</ele>
<time>2010-07-17T09:40:19Z</time>
<desc>lat.=55.750343, lon.=26.318203, Alt.=140.662231m. Speed=3.528000m/h.</desc>
<speed>0.980000</speed>
</trkpt>
<trkpt lat="55.750336" lon="26.318193">
<ele>140.673950</ele>
<time>2010-07-17T09:40:20Z</time>
<desc>lat.=55.750336, lon.=26.318193, Alt.=140.673950m. Speed=5.652000m/h.</desc>
<speed>1.570000</speed>
</trkpt>
<trkpt lat="55.750317" lon="26.318172">
<ele>140.697388</ele>
<time>2010-07-17T09:40:21Z</time>
<desc>lat.=55.750317, lon.=26.318172, Alt.=140.697388m. Speed=10.404000m/h.</desc>
<speed>2.890000</speed>
</trkpt>
<trkpt lat="55.750294" lon="26.318130">
<ele>140.767700</ele>
<time>2010-07-17T09:40:22Z</time>
<desc>lat.=55.750294, lon.=26.318130, Alt.=140.767700m. Speed=13.572000m/h.</desc>
<speed>3.770000</speed>
</trkpt>
<trkpt lat="55.750259" lon="26.318092">
<ele>141.533325</ele>
<time>2010-07-17T09:40:23Z</time>
<desc>lat.=55.750259, lon.=26.318092, Alt.=141.533325m. Speed=15.156000m/h.</desc>
<speed>4.210000</speed>
</trkpt>
<trkpt lat="55.750229" lon="26.318052">
<ele>141.513794</ele>
<time>2010-07-17T09:40:24Z</time>
<desc>lat.=55.750229, lon.=26.318052, Alt.=141.513794m. Speed=15.336000m/h.</desc>
<speed>4.260000</speed>
</trkpt>
<trkpt lat="55.750187" lon="26.318008">
<ele>141.400513</ele>
<time>2010-07-17T09:40:25Z</time>
<desc>lat.=55.750187, lon.=26.318008, Alt.=141.400513m. Speed=17.388000m/h.</desc>
<speed>4.830000</speed>
</trkpt>
<trkpt lat="55.750145" lon="26.317947">
<ele>141.314575</ele>
<time>2010-07-17T09:40:26Z</time>
<desc>lat.=55.750145, lon.=26.317947, Alt.=141.314575m. Speed=19.440001m/h.</desc>
<speed>5.400000</speed>
</trkpt>
<trkpt lat="55.750095" lon="26.317898">
<ele>141.451294</ele>
<time>2010-07-17T09:40:27Z</time>
<desc>lat.=55.750095, lon.=26.317898, Alt.=141.451294m. Speed=19.872000m/h.</desc>
<speed>5.520000</speed>
</trkpt>
<trkpt lat="55.750050" lon="26.317837">
<ele>141.412231</ele>
<time>2010-07-17T09:40:28Z</time>
<desc>lat.=55.750050, lon.=26.317837, Alt.=141.412231m. Speed=21.888000m/h.</desc>
<speed>6.080000</speed>
</trkpt>
<trkpt lat="55.750004" lon="26.317780">
<ele>141.513794</ele>
<time>2010-07-17T09:40:29Z</time>
<desc>lat.=55.750004, lon.=26.317780, Alt.=141.513794m. Speed=22.860001m/h.</desc>
<speed>6.350000</speed>
</trkpt>
<trkpt lat="55.749958" lon="26.317722">
<ele>141.627075</ele>
<time>2010-07-17T09:40:30Z</time>
<desc>lat.=55.749958, lon.=26.317722, Alt.=141.627075m. Speed=22.139999m/h.</desc>
<speed>6.150000</speed>
</trkpt>
<trkpt lat="55.749908" lon="26.317657">
<ele>141.470825</ele>
<time>2010-07-17T09:40:31Z</time>
<desc>lat.=55.749908, lon.=26.317657, Alt.=141.470825m. Speed=22.931999m/h.</desc>
<speed>6.370000</speed>
</trkpt>
<trkpt lat="55.749863" lon="26.317598">
<ele>141.353638</ele>
<time>2010-07-17T09:40:32Z</time>
<desc>lat.=55.749863, lon.=26.317598, Alt.=141.353638m. Speed=22.572001m/h.</desc>
<speed>6.270000</speed>
</trkpt>
<trkpt lat="55.749805" lon="26.317518">
<ele>141.267700</ele>
<time>2010-07-17T09:40:33Z</time>
<desc>lat.=55.749805, lon.=26.317518, Alt.=141.267700m. Speed=25.056000m/h.</desc>
<speed>6.960000</speed>
</trkpt>
<trkpt lat="55.749748" lon="26.317438">
<ele>141.111450</ele>
<time>2010-07-17T09:40:34Z</time>
<desc>lat.=55.749748, lon.=26.317438, Alt.=141.111450m. Speed=25.020000m/h.</desc>
<speed>6.950000</speed>
</trkpt>
<trkpt lat="55.749702" lon="26.317366">
<ele>140.591919</ele>
<time>2010-07-17T09:40:35Z</time>
<desc>lat.=55.749702, lon.=26.317366, Alt.=140.591919m. Speed=22.716000m/h.</desc>
<speed>6.310000</speed>
</trkpt>
<trkpt lat="55.749645" lon="26.317293">
<ele>140.267700</ele>
<time>2010-07-17T09:40:36Z</time>
<desc>lat.=55.749645, lon.=26.317293, Alt.=140.267700m. Speed=24.011999m/h.</desc>
<speed>6.670000</speed>
</trkpt>
<trkpt lat="55.749592" lon="26.317226">
<ele>139.220825</ele>
<time>2010-07-17T09:40:37Z</time>
<desc>lat.=55.749592, lon.=26.317226, Alt.=139.220825m. Speed=23.903999m/h.</desc>
<speed>6.640000</speed>
</trkpt>
<trkpt lat="55.749546" lon="26.317162">
<ele>138.689575</ele>
<time>2010-07-17T09:40:38Z</time>
<desc>lat.=55.749546, lon.=26.317162, Alt.=138.689575m. Speed=23.868000m/h.</desc>
<speed>6.630000</speed>
</trkpt>
<trkpt lat="55.749496" lon="26.317093">
<ele>138.263794</ele>
<time>2010-07-17T09:40:39Z</time>
<desc>lat.=55.749496, lon.=26.317093, Alt.=138.263794m. Speed=24.983999m/h.</desc>
<speed>6.940000</speed>
</trkpt>
<trkpt lat="55.749439" lon="26.317034">
<ele>137.638794</ele>
<time>2010-07-17T09:40:40Z</time>
<desc>lat.=55.749439, lon.=26.317034, Alt.=137.638794m. Speed=25.020000m/h.</desc>
<speed>6.950000</speed>
</trkpt>
<trkpt lat="55.749393" lon="26.316961">
<ele>136.986450</ele>
<time>2010-07-17T09:40:41Z</time>
<desc>lat.=55.749393, lon.=26.316961, Alt.=136.986450m. Speed=23.760000m/h.</desc>
<speed>6.600000</speed>
</trkpt>
<trkpt lat="55.749344" lon="26.316889">
<ele>136.369263</ele>
<time>2010-07-17T09:40:42Z</time>
<desc>lat.=55.749344, lon.=26.316889, Alt.=136.369263m. Speed=24.983999m/h.</desc>
<speed>6.940000</speed>
</trkpt>
<trkpt lat="55.749302" lon="26.316813">
<ele>135.791138</ele>
<time>2010-07-17T09:40:43Z</time>
<desc>lat.=55.749302, lon.=26.316813, Alt.=135.791138m. Speed=23.076000m/h.</desc>
<speed>6.410000</speed>
</trkpt>
<trkpt lat="55.749256" lon="26.316738">
<ele>134.818481</ele>
<time>2010-07-17T09:40:44Z</time>
<desc>lat.=55.749256, lon.=26.316738, Alt.=134.818481m. Speed=23.472000m/h.</desc>
<speed>6.520000</speed>
</trkpt>
<trkpt lat="55.749207" lon="26.316669">
<ele>134.341919</ele>
<time>2010-07-17T09:40:45Z</time>
<desc>lat.=55.749207, lon.=26.316669, Alt.=134.341919m. Speed=25.848000m/h.</desc>
<speed>7.180000</speed>
</trkpt>
<trkpt lat="55.749149" lon="26.316603">
<ele>134.084106</ele>
<time>2010-07-17T09:40:46Z</time>
<desc>lat.=55.749149, lon.=26.316603, Alt.=134.084106m. Speed=25.056000m/h.</desc>
<speed>6.960000</speed>
</trkpt>
<trkpt lat="55.749107" lon="26.316532">
<ele>133.861450</ele>
<time>2010-07-17T09:40:47Z</time>
<desc>lat.=55.749107, lon.=26.316532, Alt.=133.861450m. Speed=22.860001m/h.</desc>
<speed>6.350000</speed>
</trkpt>
<trkpt lat="55.749062" lon="26.316465">
<ele>133.670044</ele>
<time>2010-07-17T09:40:48Z</time>
<desc>lat.=55.749062, lon.=26.316465, Alt.=133.670044m. Speed=24.084000m/h.</desc>
<speed>6.690000</speed>
</trkpt>
<trkpt lat="55.749004" lon="26.316399">
<ele>133.787231</ele>
<time>2010-07-17T09:40:49Z</time>
<desc>lat.=55.749004, lon.=26.316399, Alt.=133.787231m. Speed=26.820000m/h.</desc>
<speed>7.450000</speed>
</trkpt>
<trkpt lat="55.748943" lon="26.316324">
<ele>132.693481</ele>
<time>2010-07-17T09:40:50Z</time>
<desc>lat.=55.748943, lon.=26.316324, Alt.=132.693481m. Speed=26.136000m/h.</desc>
<speed>7.260000</speed>
</trkpt>
<trkpt lat="55.748882" lon="26.316257">
<ele>132.744263</ele>
<time>2010-07-17T09:40:51Z</time>
<desc>lat.=55.748882, lon.=26.316257, Alt.=132.744263m. Speed=25.920000m/h.</desc>
<speed>7.200000</speed>
</trkpt>
<trkpt lat="55.748829" lon="26.316189">
<ele>132.931763</ele>
<time>2010-07-17T09:40:52Z</time>
<desc>lat.=55.748829, lon.=26.316189, Alt.=132.931763m. Speed=25.164000m/h.</desc>
<speed>6.990000</speed>
</trkpt>
<trkpt lat="55.748779" lon="26.316122">
<ele>133.677856</ele>
<time>2010-07-17T09:40:53Z</time>
<desc>lat.=55.748779, lon.=26.316122, Alt.=133.677856m. Speed=25.020000m/h.</desc>
<speed>6.950000</speed>
</trkpt>
<trkpt lat="55.748711" lon="26.316059">
<ele>134.068481</ele>
<time>2010-07-17T09:40:54Z</time>
<desc>lat.=55.748711, lon.=26.316059, Alt.=134.068481m. Speed=25.667999m/h.</desc>
<speed>7.130000</speed>
</trkpt>
<trkpt lat="55.748653" lon="26.315990">
<ele>133.603638</ele>
<time>2010-07-17T09:40:55Z</time>
<desc>lat.=55.748653, lon.=26.315990, Alt.=133.603638m. Speed=26.063999m/h.</desc>
<speed>7.240000</speed>
</trkpt>
<trkpt lat="55.748592" lon="26.315920">
<ele>133.650513</ele>
<time>2010-07-17T09:40:56Z</time>
<desc>lat.=55.748592, lon.=26.315920, Alt.=133.650513m. Speed=26.172001m/h.</desc>
<speed>7.270000</speed>
</trkpt>
<trkpt lat="55.748535" lon="26.315847">
<ele>133.388794</ele>
<time>2010-07-17T09:40:57Z</time>
<desc>lat.=55.748535, lon.=26.315847, Alt.=133.388794m. Speed=25.271999m/h.</desc>
<speed>7.020000</speed>
</trkpt>
<trkpt lat="55.748478" lon="26.315786">
<ele>133.709106</ele>
<time>2010-07-17T09:40:58Z</time>
<desc>lat.=55.748478, lon.=26.315786, Alt.=133.709106m. Speed=25.020000m/h.</desc>
<speed>6.950000</speed>
</trkpt>
<trkpt lat="55.748425" lon="26.315718">
<ele>133.685669</ele>
<time>2010-07-17T09:40:59Z</time>
<desc>lat.=55.748425, lon.=26.315718, Alt.=133.685669m. Speed=24.156000m/h.</desc>
<speed>6.710000</speed>
</trkpt>
<trkpt lat="55.748371" lon="26.315651">
<ele>133.463013</ele>
<time>2010-07-17T09:41:00Z</time>
<desc>lat.=55.748371, lon.=26.315651, Alt.=133.463013m. Speed=23.364000m/h.</desc>
<speed>6.490000</speed>
</trkpt>
<trkpt lat="55.748325" lon="26.315584">
<ele>133.384888</ele>
<time>2010-07-17T09:41:01Z</time>
<desc>lat.=55.748325, lon.=26.315584, Alt.=133.384888m. Speed=23.040001m/h.</desc>
<speed>6.400000</speed>
</trkpt>
<trkpt lat="55.748280" lon="26.315525">
<ele>133.912231</ele>
<time>2010-07-17T09:41:02Z</time>
<desc>lat.=55.748280, lon.=26.315525, Alt.=133.912231m. Speed=22.752001m/h.</desc>
<speed>6.320000</speed>
</trkpt>
<trkpt lat="55.748238" lon="26.315458">
<ele>133.716919</ele>
<time>2010-07-17T09:41:03Z</time>
<desc>lat.=55.748238, lon.=26.315458, Alt.=133.716919m. Speed=21.563999m/h.</desc>
<speed>5.990000</speed>
</trkpt>
<trkpt lat="55.748196" lon="26.315403">
<ele>134.107544</ele>
<time>2010-07-17T09:41:04Z</time>
<desc>lat.=55.748196, lon.=26.315403, Alt.=134.107544m. Speed=22.752001m/h.</desc>
<speed>6.320000</speed>
</trkpt>
<trkpt lat="55.748154" lon="26.315338">
<ele>134.130981</ele>
<time>2010-07-17T09:41:05Z</time>
<desc>lat.=55.748154, lon.=26.315338, Alt.=134.130981m. Speed=21.420000m/h.</desc>
<speed>5.950000</speed>
</trkpt>
<trkpt lat="55.748112" lon="26.315271">
<ele>134.400513</ele>
<time>2010-07-17T09:41:06Z</time>
<desc>lat.=55.748112, lon.=26.315271, Alt.=134.400513m. Speed=20.375999m/h.</desc>
<speed>5.660000</speed>
</trkpt>
<trkpt lat="55.748070" lon="26.315214">
<ele>135.173950</ele>
<time>2010-07-17T09:41:07Z</time>
<desc>lat.=55.748070, lon.=26.315214, Alt.=135.173950m. Speed=19.799999m/h.</desc>
<speed>5.500000</speed>
</trkpt>
<trkpt lat="55.748024" lon="26.315161">
<ele>134.982544</ele>
<time>2010-07-17T09:41:08Z</time>
<desc>lat.=55.748024, lon.=26.315161, Alt.=134.982544m. Speed=22.104000m/h.</desc>
<speed>6.140000</speed>
</trkpt>
<trkpt lat="55.747978" lon="26.315107">
<ele>135.291138</ele>
<time>2010-07-17T09:41:09Z</time>
<desc>lat.=55.747978, lon.=26.315107, Alt.=135.291138m. Speed=20.340000m/h.</desc>
<speed>5.650000</speed>
</trkpt>
<trkpt lat="55.747932" lon="26.315058">
<ele>135.720825</ele>
<time>2010-07-17T09:41:10Z</time>
<desc>lat.=55.747932, lon.=26.315058, Alt.=135.720825m. Speed=21.420000m/h.</desc>
<speed>5.950000</speed>
</trkpt>
<trkpt lat="55.747887" lon="26.315001">
<ele>135.810669</ele>
<time>2010-07-17T09:41:11Z</time>
<desc>lat.=55.747887, lon.=26.315001, Alt.=135.810669m. Speed=20.591999m/h.</desc>
<speed>5.720000</speed>
</trkpt>
<trkpt lat="55.747841" lon="26.314939">
<ele>135.584106</ele>
<time>2010-07-17T09:41:12Z</time>
<desc>lat.=55.747841, lon.=26.314939, Alt.=135.584106m. Speed=20.304001m/h.</desc>
<speed>5.640000</speed>
</trkpt>
<trkpt lat="55.747799" lon="26.314888">
<ele>135.349731</ele>
<time>2010-07-17T09:41:13Z</time>
<desc>lat.=55.747799, lon.=26.314888, Alt.=135.349731m. Speed=18.719999m/h.</desc>
<speed>5.200000</speed>
</trkpt>
<trkpt lat="55.747757" lon="26.314835">
<ele>135.595825</ele>
<time>2010-07-17T09:41:14Z</time>
<desc>lat.=55.747757, lon.=26.314835, Alt.=135.595825m. Speed=18.396000m/h.</desc>
<speed>5.110000</speed>
</trkpt>
<trkpt lat="55.747723" lon="26.314783">
<ele>135.994263</ele>
<time>2010-07-17T09:41:15Z</time>
<desc>lat.=55.747723, lon.=26.314783, Alt.=135.994263m. Speed=17.639999m/h.</desc>
<speed>4.900000</speed>
</trkpt>
<trkpt lat="55.747684" lon="26.314737">
<ele>136.494263</ele>
<time>2010-07-17T09:41:16Z</time>
<desc>lat.=55.747684, lon.=26.314737, Alt.=136.494263m. Speed=17.927999m/h.</desc>
<speed>4.980000</speed>
</trkpt>
<trkpt lat="55.747650" lon="26.314690">
<ele>136.927856</ele>
<time>2010-07-17T09:41:17Z</time>
<desc>lat.=55.747650, lon.=26.314690, Alt.=136.927856m. Speed=17.927999m/h.</desc>
<speed>4.980000</speed>
</trkpt>
<trkpt lat="55.747616" lon="26.314642">
<ele>137.310669</ele>
<time>2010-07-17T09:41:18Z</time>
<desc>lat.=55.747616, lon.=26.314642, Alt.=137.310669m. Speed=18.000000m/h.</desc>
<speed>5.000000</speed>
</trkpt>
<trkpt lat="55.747578" lon="26.314598">
<ele>137.795044</ele>
<time>2010-07-17T09:41:19Z</time>
<desc>lat.=55.747578, lon.=26.314598, Alt.=137.795044m. Speed=17.964001m/h.</desc>
<speed>4.990000</speed>
</trkpt>
<trkpt lat="55.747540" lon="26.314554">
<ele>137.947388</ele>
<time>2010-07-17T09:41:20Z</time>
<desc>lat.=55.747540, lon.=26.314554, Alt.=137.947388m. Speed=18.288000m/h.</desc>
<speed>5.080000</speed>
</trkpt>
<trkpt lat="55.747505" lon="26.314507">
<ele>137.771606</ele>
<time>2010-07-17T09:41:21Z</time>
<desc>lat.=55.747505, lon.=26.314507, Alt.=137.771606m. Speed=16.884001m/h.</desc>
<speed>4.690000</speed>
</trkpt>
<trkpt lat="55.747475" lon="26.314465">
<ele>137.509888</ele>
<time>2010-07-17T09:41:22Z</time>
<desc>lat.=55.747475, lon.=26.314465, Alt.=137.509888m. Speed=15.804000m/h.</desc>
<speed>4.390000</speed>
</trkpt>
<trkpt lat="55.747444" lon="26.314430">
<ele>137.767700</ele>
<time>2010-07-17T09:41:23Z</time>
<desc>lat.=55.747444, lon.=26.314430, Alt.=137.767700m. Speed=17.351999m/h.</desc>
<speed>4.820000</speed>
</trkpt>
<trkpt lat="55.747406" lon="26.314379">
<ele>138.068481</ele>
<time>2010-07-17T09:41:24Z</time>
<desc>lat.=55.747406, lon.=26.314379, Alt.=138.068481m. Speed=19.476000m/h.</desc>
<speed>5.410000</speed>
</trkpt>
<trkpt lat="55.747364" lon="26.314337">
<ele>138.298950</ele>
<time>2010-07-17T09:41:25Z</time>
<desc>lat.=55.747364, lon.=26.314337, Alt.=138.298950m. Speed=18.431999m/h.</desc>
<speed>5.120000</speed>
</trkpt>
<trkpt lat="55.747326" lon="26.314285">
<ele>138.447388</ele>
<time>2010-07-17T09:41:26Z</time>
<desc>lat.=55.747326, lon.=26.314285, Alt.=138.447388m. Speed=18.900000m/h.</desc>
<speed>5.250000</speed>
</trkpt>
<trkpt lat="55.747284" lon="26.314222">
<ele>138.263794</ele>
<time>2010-07-17T09:41:27Z</time>
<desc>lat.=55.747284, lon.=26.314222, Alt.=138.263794m. Speed=20.664000m/h.</desc>
<speed>5.740000</speed>
</trkpt>
<trkpt lat="55.747238" lon="26.314165">
<ele>138.455200</ele>
<time>2010-07-17T09:41:28Z</time>
<desc>lat.=55.747238, lon.=26.314165, Alt.=138.455200m. Speed=21.959999m/h.</desc>
<speed>6.100000</speed>
</trkpt>
<trkpt lat="55.747189" lon="26.314106">
<ele>139.005981</ele>
<time>2010-07-17T09:41:29Z</time>
<desc>lat.=55.747189, lon.=26.314106, Alt.=139.005981m. Speed=21.816000m/h.</desc>
<speed>6.060000</speed>
</trkpt>
<trkpt lat="55.747147" lon="26.314045">
<ele>139.447388</ele>
<time>2010-07-17T09:41:30Z</time>
<desc>lat.=55.747147, lon.=26.314045, Alt.=139.447388m. Speed=21.672001m/h.</desc>
<speed>6.020000</speed>
</trkpt>
<trkpt lat="55.747101" lon="26.313992">
<ele>140.189575</ele>
<time>2010-07-17T09:41:31Z</time>
<desc>lat.=55.747101, lon.=26.313992, Alt.=140.189575m. Speed=20.844000m/h.</desc>
<speed>5.790000</speed>
</trkpt>
<trkpt lat="55.747051" lon="26.313942">
<ele>140.908325</ele>
<time>2010-07-17T09:41:32Z</time>
<desc>lat.=55.747051, lon.=26.313942, Alt.=140.908325m. Speed=20.844000m/h.</desc>
<speed>5.790000</speed>
</trkpt>
<trkpt lat="55.747009" lon="26.313885">
<ele>141.662231</ele>
<time>2010-07-17T09:41:33Z</time>
<desc>lat.=55.747009, lon.=26.313885, Alt.=141.662231m. Speed=21.636000m/h.</desc>
<speed>6.010000</speed>
</trkpt>
<trkpt lat="55.746971" lon="26.313820">
<ele>141.529419</ele>
<time>2010-07-17T09:41:34Z</time>
<desc>lat.=55.746971, lon.=26.313820, Alt.=141.529419m. Speed=19.944000m/h.</desc>
<speed>5.540000</speed>
</trkpt>
<trkpt lat="55.746929" lon="26.313755">
<ele>140.970825</ele>
<time>2010-07-17T09:41:35Z</time>
<desc>lat.=55.746929, lon.=26.313755, Alt.=140.970825m. Speed=21.851999m/h.</desc>
<speed>6.070000</speed>
</trkpt>
<trkpt lat="55.746887" lon="26.313686">
<ele>140.951294</ele>
<time>2010-07-17T09:41:36Z</time>
<desc>lat.=55.746887, lon.=26.313686, Alt.=140.951294m. Speed=22.284000m/h.</desc>
<speed>6.190000</speed>
</trkpt>
<trkpt lat="55.746845" lon="26.313620">
<ele>141.060669</ele>
<time>2010-07-17T09:41:37Z</time>
<desc>lat.=55.746845, lon.=26.313620, Alt.=141.060669m. Speed=21.492001m/h.</desc>
<speed>5.970000</speed>
</trkpt>
<trkpt lat="55.746803" lon="26.313562">
<ele>140.982544</ele>
<time>2010-07-17T09:41:38Z</time>
<desc>lat.=55.746803, lon.=26.313562, Alt.=140.982544m. Speed=21.167999m/h.</desc>
<speed>5.880000</speed>
</trkpt>
<trkpt lat="55.746765" lon="26.313509">
<ele>140.306763</ele>
<time>2010-07-17T09:41:39Z</time>
<desc>lat.=55.746765, lon.=26.313509, Alt.=140.306763m. Speed=20.304001m/h.</desc>
<speed>5.640000</speed>
</trkpt>
<trkpt lat="55.746719" lon="26.313448">
<ele>139.630981</ele>
<time>2010-07-17T09:41:40Z</time>
<desc>lat.=55.746719, lon.=26.313448, Alt.=139.630981m. Speed=20.304001m/h.</desc>
<speed>5.640000</speed>
</trkpt>
<trkpt lat="55.746677" lon="26.313395">
<ele>139.912231</ele>
<time>2010-07-17T09:41:41Z</time>
<desc>lat.=55.746677, lon.=26.313395, Alt.=139.912231m. Speed=21.096001m/h.</desc>
<speed>5.860000</speed>
</trkpt>
<trkpt lat="55.746635" lon="26.313330">
<ele>140.220825</ele>
<time>2010-07-17T09:41:42Z</time>
<desc>lat.=55.746635, lon.=26.313330, Alt.=140.220825m. Speed=19.511999m/h.</desc>
<speed>5.420000</speed>
</trkpt>
<trkpt lat="55.746593" lon="26.313274">
<ele>140.240356</ele>
<time>2010-07-17T09:41:43Z</time>
<desc>lat.=55.746593, lon.=26.313274, Alt.=140.240356m. Speed=19.764000m/h.</desc>
<speed>5.490000</speed>
</trkpt>
<trkpt lat="55.746552" lon="26.313210">
<ele>140.502075</ele>
<time>2010-07-17T09:41:44Z</time>
<desc>lat.=55.746552, lon.=26.313210, Alt.=140.502075m. Speed=21.672001m/h.</desc>
<speed>6.020000</speed>
</trkpt>
<trkpt lat="55.746510" lon="26.313137">
<ele>140.720825</ele>
<time>2010-07-17T09:41:45Z</time>
<desc>lat.=55.746510, lon.=26.313137, Alt.=140.720825m. Speed=21.204000m/h.</desc>
<speed>5.890000</speed>
</trkpt>
<trkpt lat="55.746471" lon="26.313072">
<ele>141.002075</ele>
<time>2010-07-17T09:41:46Z</time>
<desc>lat.=55.746471, lon.=26.313072, Alt.=141.002075m. Speed=20.556000m/h.</desc>
<speed>5.710000</speed>
</trkpt>
<trkpt lat="55.746429" lon="26.313004">
<ele>140.904419</ele>
<time>2010-07-17T09:41:47Z</time>
<desc>lat.=55.746429, lon.=26.313004, Alt.=140.904419m. Speed=21.672001m/h.</desc>
<speed>6.020000</speed>
</trkpt>
<trkpt lat="55.746384" lon="26.312937">
<ele>140.798950</ele>
<time>2010-07-17T09:41:48Z</time>
<desc>lat.=55.746384, lon.=26.312937, Alt.=140.798950m. Speed=20.771999m/h.</desc>
<speed>5.770000</speed>
</trkpt>
<trkpt lat="55.746326" lon="26.312872">
<ele>140.834106</ele>
<time>2010-07-17T09:41:49Z</time>
<desc>lat.=55.746326, lon.=26.312872, Alt.=140.834106m. Speed=22.680000m/h.</desc>
<speed>6.300000</speed>
</trkpt>
<trkpt lat="55.746277" lon="26.312807">
<ele>141.060669</ele>
<time>2010-07-17T09:41:50Z</time>
<desc>lat.=55.746277, lon.=26.312807, Alt.=141.060669m. Speed=22.212000m/h.</desc>
<speed>6.170000</speed>
</trkpt>
<trkpt lat="55.746227" lon="26.312737">
<ele>141.080200</ele>
<time>2010-07-17T09:41:51Z</time>
<desc>lat.=55.746227, lon.=26.312737, Alt.=141.080200m. Speed=23.040001m/h.</desc>
<speed>6.400000</speed>
</trkpt>
<trkpt lat="55.746178" lon="26.312662">
<ele>141.248169</ele>
<time>2010-07-17T09:41:52Z</time>
<desc>lat.=55.746178, lon.=26.312662, Alt.=141.248169m. Speed=24.011999m/h.</desc>
<speed>6.670000</speed>
</trkpt>
<trkpt lat="55.746128" lon="26.312592">
<ele>140.205200</ele>
<time>2010-07-17T09:41:53Z</time>
<desc>lat.=55.746128, lon.=26.312592, Alt.=140.205200m. Speed=24.587999m/h.</desc>
<speed>6.830000</speed>
</trkpt>
<trkpt lat="55.746078" lon="26.312517">
<ele>140.330200</ele>
<time>2010-07-17T09:41:54Z</time>
<desc>lat.=55.746078, lon.=26.312517, Alt.=140.330200m. Speed=25.308001m/h.</desc>
<speed>7.030000</speed>
</trkpt>
<trkpt lat="55.746033" lon="26.312447">
<ele>140.220825</ele>
<time>2010-07-17T09:41:55Z</time>
<desc>lat.=55.746033, lon.=26.312447, Alt.=140.220825m. Speed=25.740000m/h.</desc>
<speed>7.150000</speed>
</trkpt>
<trkpt lat="55.745983" lon="26.312355">
<ele>138.959106</ele>
<time>2010-07-17T09:41:56Z</time>
<desc>lat.=55.745983, lon.=26.312355, Alt.=138.959106m. Speed=27.288000m/h.</desc>
<speed>7.580000</speed>
</trkpt>
<trkpt lat="55.745941" lon="26.312258">
<ele>137.802856</ele>
<time>2010-07-17T09:41:57Z</time>
<desc>lat.=55.745941, lon.=26.312258, Alt.=137.802856m. Speed=27.612000m/h.</desc>
<speed>7.670000</speed>
</trkpt>
<trkpt lat="55.745895" lon="26.312149">
<ele>137.505981</ele>
<time>2010-07-17T09:41:58Z</time>
<desc>lat.=55.745895, lon.=26.312149, Alt.=137.505981m. Speed=29.844000m/h.</desc>
<speed>8.290000</speed>
</trkpt>
<trkpt lat="55.745850" lon="26.312037">
<ele>137.259888</ele>
<time>2010-07-17T09:41:59Z</time>
<desc>lat.=55.745850, lon.=26.312037, Alt.=137.259888m. Speed=30.167999m/h.</desc>
<speed>8.380000</speed>
</trkpt>
<trkpt lat="55.745808" lon="26.311926">
<ele>136.845825</ele>
<time>2010-07-17T09:42:00Z</time>
<desc>lat.=55.745808, lon.=26.311926, Alt.=136.845825m. Speed=31.176001m/h.</desc>
<speed>8.660000</speed>
</trkpt>
<trkpt lat="55.745758" lon="26.311813">
<ele>136.681763</ele>
<time>2010-07-17T09:42:01Z</time>
<desc>lat.=55.745758, lon.=26.311813, Alt.=136.681763m. Speed=32.040001m/h.</desc>
<speed>8.900000</speed>
</trkpt>
<trkpt lat="55.745712" lon="26.311689">
<ele>136.591919</ele>
<time>2010-07-17T09:42:02Z</time>
<desc>lat.=55.745712, lon.=26.311689, Alt.=136.591919m. Speed=32.076000m/h.</desc>
<speed>8.910000</speed>
</trkpt>
<trkpt lat="55.745670" lon="26.311565">
<ele>136.158325</ele>
<time>2010-07-17T09:42:03Z</time>
<desc>lat.=55.745670, lon.=26.311565, Alt.=136.158325m. Speed=31.931999m/h.</desc>
<speed>8.870000</speed>
</trkpt>
<trkpt lat="55.745628" lon="26.311447">
<ele>135.177856</ele>
<time>2010-07-17T09:42:04Z</time>
<desc>lat.=55.745628, lon.=26.311447, Alt.=135.177856m. Speed=32.327999m/h.</desc>
<speed>8.980000</speed>
</trkpt>
<trkpt lat="55.745583" lon="26.311331">
<ele>134.806763</ele>
<time>2010-07-17T09:42:05Z</time>
<desc>lat.=55.745583, lon.=26.311331, Alt.=134.806763m. Speed=33.155998m/h.</desc>
<speed>9.210000</speed>
</trkpt>
<trkpt lat="55.745537" lon="26.311203">
<ele>134.740356</ele>
<time>2010-07-17T09:42:06Z</time>
<desc>lat.=55.745537, lon.=26.311203, Alt.=134.740356m. Speed=34.344002m/h.</desc>
<speed>9.540000</speed>
</trkpt>
<trkpt lat="55.745480" lon="26.311081">
<ele>135.291138</ele>
<time>2010-07-17T09:42:07Z</time>
<desc>lat.=55.745480, lon.=26.311081, Alt.=135.291138m. Speed=34.380001m/h.</desc>
<speed>9.550000</speed>
</trkpt>
<trkpt lat="55.745434" lon="26.310953">
<ele>135.130981</ele>
<time>2010-07-17T09:42:08Z</time>
<desc>lat.=55.745434, lon.=26.310953, Alt.=135.130981m. Speed=35.099998m/h.</desc>
<speed>9.750000</speed>
</trkpt>
<trkpt lat="55.745380" lon="26.310816">
<ele>134.880981</ele>
<time>2010-07-17T09:42:09Z</time>
<desc>lat.=55.745380, lon.=26.310816, Alt.=134.880981m. Speed=36.756001m/h.</desc>
<speed>10.210000</speed>
</trkpt>
<trkpt lat="55.745331" lon="26.310677">
<ele>134.939575</ele>
<time>2010-07-17T09:42:10Z</time>
<desc>lat.=55.745331, lon.=26.310677, Alt.=134.939575m. Speed=36.216000m/h.</desc>
<speed>10.060000</speed>
</trkpt>
<trkpt lat="55.745281" lon="26.310537">
<ele>134.615356</ele>
<time>2010-07-17T09:42:11Z</time>
<desc>lat.=55.745281, lon.=26.310537, Alt.=134.615356m. Speed=38.231998m/h.</desc>
<speed>10.620000</speed>
</trkpt>
<trkpt lat="55.745232" lon="26.310396">
<ele>134.271606</ele>
<time>2010-07-17T09:42:12Z</time>
<desc>lat.=55.745232, lon.=26.310396, Alt.=134.271606m. Speed=38.627998m/h.</desc>
<speed>10.730000</speed>
</trkpt>
<trkpt lat="55.745178" lon="26.310257">
<ele>133.935669</ele>
<time>2010-07-17T09:42:13Z</time>
<desc>lat.=55.745178, lon.=26.310257, Alt.=133.935669m. Speed=38.771999m/h.</desc>
<speed>10.770000</speed>
</trkpt>
<trkpt lat="55.745121" lon="26.310114">
<ele>133.654419</ele>
<time>2010-07-17T09:42:14Z</time>
<desc>lat.=55.745121, lon.=26.310114, Alt.=133.654419m. Speed=39.023998m/h.</desc>
<speed>10.840000</speed>
</trkpt>
<trkpt lat="55.745068" lon="26.309967">
<ele>133.463013</ele>
<time>2010-07-17T09:42:15Z</time>
<desc>lat.=55.745068, lon.=26.309967, Alt.=133.463013m. Speed=38.448002m/h.</desc>
<speed>10.680001</speed>
</trkpt>
<trkpt lat="55.745018" lon="26.309820">
<ele>132.845825</ele>
<time>2010-07-17T09:42:16Z</time>
<desc>lat.=55.745018, lon.=26.309820, Alt.=132.845825m. Speed=38.700001m/h.</desc>
<speed>10.750000</speed>
</trkpt>
<trkpt lat="55.744968" lon="26.309669">
<ele>132.689575</ele>
<time>2010-07-17T09:42:17Z</time>
<desc>lat.=55.744968, lon.=26.309669, Alt.=132.689575m. Speed=38.015999m/h.</desc>
<speed>10.560000</speed>
</trkpt>
<trkpt lat="55.744919" lon="26.309530">
<ele>132.779419</ele>
<time>2010-07-17T09:42:18Z</time>
<desc>lat.=55.744919, lon.=26.309530, Alt.=132.779419m. Speed=37.116001m/h.</desc>
<speed>10.310000</speed>
</trkpt>
<trkpt lat="55.744865" lon="26.309387">
<ele>133.013794</ele>
<time>2010-07-17T09:42:19Z</time>
<desc>lat.=55.744865, lon.=26.309387, Alt.=133.013794m. Speed=35.891998m/h.</desc>
<speed>9.970000</speed>
</trkpt>
<trkpt lat="55.744816" lon="26.309252">
<ele>133.439575</ele>
<time>2010-07-17T09:42:20Z</time>
<desc>lat.=55.744816, lon.=26.309252, Alt.=133.439575m. Speed=35.891998m/h.</desc>
<speed>9.970000</speed>
</trkpt>
<trkpt lat="55.744766" lon="26.309122">
<ele>133.072388</ele>
<time>2010-07-17T09:42:21Z</time>
<desc>lat.=55.744766, lon.=26.309122, Alt.=133.072388m. Speed=33.588001m/h.</desc>
<speed>9.330000</speed>
</trkpt>
<trkpt lat="55.744720" lon="26.308992">
<ele>132.158325</ele>
<time>2010-07-17T09:42:22Z</time>
<desc>lat.=55.744720, lon.=26.308992, Alt.=132.158325m. Speed=32.112000m/h.</desc>
<speed>8.920000</speed>
</trkpt>
<trkpt lat="55.744671" lon="26.308874">
<ele>132.154419</ele>
<time>2010-07-17T09:42:23Z</time>
<desc>lat.=55.744671, lon.=26.308874, Alt.=132.154419m. Speed=31.247999m/h.</desc>
<speed>8.680000</speed>
</trkpt>
<trkpt lat="55.744625" lon="26.308769">
<ele>132.279419</ele>
<time>2010-07-17T09:42:24Z</time>
<desc>lat.=55.744625, lon.=26.308769, Alt.=132.279419m. Speed=30.204000m/h.</desc>
<speed>8.390000</speed>
</trkpt>
<trkpt lat="55.744579" lon="26.308661">
<ele>132.103638</ele>
<time>2010-07-17T09:42:25Z</time>
<desc>lat.=55.744579, lon.=26.308661, Alt.=132.103638m. Speed=29.412001m/h.</desc>
<speed>8.170000</speed>
</trkpt>
<trkpt lat="55.744534" lon="26.308554">
<ele>132.287231</ele>
<time>2010-07-17T09:42:26Z</time>
<desc>lat.=55.744534, lon.=26.308554, Alt.=132.287231m. Speed=29.124001m/h.</desc>
<speed>8.090000</speed>
</trkpt>
<trkpt lat="55.744484" lon="26.308439">
<ele>131.607544</ele>
<time>2010-07-17T09:42:27Z</time>
<desc>lat.=55.744484, lon.=26.308439, Alt.=131.607544m. Speed=28.115999m/h.</desc>
<speed>7.810000</speed>
</trkpt>
<trkpt lat="55.744450" lon="26.308325">
<ele>130.595825</ele>
<time>2010-07-17T09:42:28Z</time>
<desc>lat.=55.744450, lon.=26.308325, Alt.=130.595825m. Speed=27.648001m/h.</desc>
<speed>7.680000</speed>
</trkpt>
<trkpt lat="55.744411" lon="26.308229">
<ele>130.338013</ele>
<time>2010-07-17T09:42:29Z</time>
<desc>lat.=55.744411, lon.=26.308229, Alt.=130.338013m. Speed=26.856001m/h.</desc>
<speed>7.460000</speed>
</trkpt>
<trkpt lat="55.744370" lon="26.308146">
<ele>129.709106</ele>
<time>2010-07-17T09:42:30Z</time>
<desc>lat.=55.744370, lon.=26.308146, Alt.=129.709106m. Speed=25.271999m/h.</desc>
<speed>7.020000</speed>
</trkpt>
<trkpt lat="55.744331" lon="26.308054">
<ele>129.478638</ele>
<time>2010-07-17T09:42:31Z</time>
<desc>lat.=55.744331, lon.=26.308054, Alt.=129.478638m. Speed=24.480000m/h.</desc>
<speed>6.800000</speed>
</trkpt>
<trkpt lat="55.744297" lon="26.307962">
<ele>129.162231</ele>
<time>2010-07-17T09:42:32Z</time>
<desc>lat.=55.744297, lon.=26.307962, Alt.=129.162231m. Speed=24.408001m/h.</desc>
<speed>6.780000</speed>
</trkpt>
<trkpt lat="55.744259" lon="26.307878">
<ele>129.224731</ele>
<time>2010-07-17T09:42:33Z</time>
<desc>lat.=55.744259, lon.=26.307878, Alt.=129.224731m. Speed=22.643999m/h.</desc>
<speed>6.290000</speed>
</trkpt>
<trkpt lat="55.744221" lon="26.307798">
<ele>129.357544</ele>
<time>2010-07-17T09:42:34Z</time>
<desc>lat.=55.744221, lon.=26.307798, Alt.=129.357544m. Speed=22.500000m/h.</desc>
<speed>6.250000</speed>
</trkpt>
<trkpt lat="55.744190" lon="26.307718">
<ele>128.584106</ele>
<time>2010-07-17T09:42:35Z</time>
<desc>lat.=55.744190, lon.=26.307718, Alt.=128.584106m. Speed=23.040001m/h.</desc>
<speed>6.400000</speed>
</trkpt>
<trkpt lat="55.744148" lon="26.307640">
<ele>128.736450</ele>
<time>2010-07-17T09:42:36Z</time>
<desc>lat.=55.744148, lon.=26.307640, Alt.=128.736450m. Speed=24.408001m/h.</desc>
<speed>6.780000</speed>
</trkpt>
<trkpt lat="55.744118" lon="26.307554">
<ele>128.775513</ele>
<time>2010-07-17T09:42:37Z</time>
<desc>lat.=55.744118, lon.=26.307554, Alt.=128.775513m. Speed=23.903999m/h.</desc>
<speed>6.640000</speed>
</trkpt>
<trkpt lat="55.744091" lon="26.307446">
<ele>128.642700</ele>
<time>2010-07-17T09:42:38Z</time>
<desc>lat.=55.744091, lon.=26.307446, Alt.=128.642700m. Speed=23.544001m/h.</desc>
<speed>6.540000</speed>
</trkpt>
<trkpt lat="55.744064" lon="26.307360">
<ele>128.888794</ele>
<time>2010-07-17T09:42:39Z</time>
<desc>lat.=55.744064, lon.=26.307360, Alt.=128.888794m. Speed=23.256001m/h.</desc>
<speed>6.460000</speed>
</trkpt>
<trkpt lat="55.744030" lon="26.307259">
<ele>128.287231</ele>
<time>2010-07-17T09:42:40Z</time>
<desc>lat.=55.744030, lon.=26.307259, Alt.=128.287231m. Speed=23.940001m/h.</desc>
<speed>6.650000</speed>
</trkpt>
<trkpt lat="55.743999" lon="26.307161">
<ele>127.776428</ele>
<time>2010-07-17T09:42:41Z</time>
<desc>lat.=55.743999, lon.=26.307161, Alt.=127.776428m. Speed=23.364000m/h.</desc>
<speed>6.490000</speed>
</trkpt>
<trkpt lat="55.743965" lon="26.307068">
<ele>127.686584</ele>
<time>2010-07-17T09:42:42Z</time>
<desc>lat.=55.743965, lon.=26.307068, Alt.=127.686584m. Speed=24.408001m/h.</desc>
<speed>6.780000</speed>
</trkpt>
<trkpt lat="55.743931" lon="26.306971">
<ele>127.461975</ele>
<time>2010-07-17T09:42:43Z</time>
<desc>lat.=55.743931, lon.=26.306971, Alt.=127.461975m. Speed=25.452000m/h.</desc>
<speed>7.070000</speed>
</trkpt>
<trkpt lat="55.743900" lon="26.306877">
<ele>127.309631</ele>
<time>2010-07-17T09:42:44Z</time>
<desc>lat.=55.743900, lon.=26.306877, Alt.=127.309631m. Speed=24.048000m/h.</desc>
<speed>6.680000</speed>
</trkpt>
<trkpt lat="55.743874" lon="26.306780">
<ele>128.095825</ele>
<time>2010-07-17T09:42:45Z</time>
<desc>lat.=55.743874, lon.=26.306780, Alt.=128.095825m. Speed=24.228001m/h.</desc>
<speed>6.730000</speed>
</trkpt>
<trkpt lat="55.743839" lon="26.306694">
<ele>129.232544</ele>
<time>2010-07-17T09:42:46Z</time>
<desc>lat.=55.743839, lon.=26.306694, Alt.=129.232544m. Speed=24.336000m/h.</desc>
<speed>6.760000</speed>
</trkpt>
<trkpt lat="55.743809" lon="26.306604">
<ele>128.810669</ele>
<time>2010-07-17T09:42:47Z</time>
<desc>lat.=55.743809, lon.=26.306604, Alt.=128.810669m. Speed=23.868000m/h.</desc>
<speed>6.630000</speed>
</trkpt>
<trkpt lat="55.743782" lon="26.306511">
<ele>127.579163</ele>
<time>2010-07-17T09:42:48Z</time>
<desc>lat.=55.743782, lon.=26.306511, Alt.=127.579163m. Speed=23.976000m/h.</desc>
<speed>6.660000</speed>
</trkpt>
<trkpt lat="55.743752" lon="26.306417">
<ele>127.702209</ele>
<time>2010-07-17T09:42:49Z</time>
<desc>lat.=55.743752, lon.=26.306417, Alt.=127.702209m. Speed=24.912001m/h.</desc>
<speed>6.920000</speed>
</trkpt>
<trkpt lat="55.743725" lon="26.306318">
<ele>126.831116</ele>
<time>2010-07-17T09:42:50Z</time>
<desc>lat.=55.743725, lon.=26.306318, Alt.=126.831116m. Speed=24.804001m/h.</desc>
<speed>6.890000</speed>
</trkpt>
<trkpt lat="55.743698" lon="26.306219">
<ele>125.803772</ele>
<time>2010-07-17T09:42:51Z</time>
<desc>lat.=55.743698, lon.=26.306219, Alt.=125.803772m. Speed=24.516001m/h.</desc>
<speed>6.810000</speed>
</trkpt>
<trkpt lat="55.743679" lon="26.306110">
<ele>125.463928</ele>
<time>2010-07-17T09:42:52Z</time>
<desc>lat.=55.743679, lon.=26.306110, Alt.=125.463928m. Speed=24.120001m/h.</desc>
<speed>6.700000</speed>
</trkpt>
<trkpt lat="55.743652" lon="26.306009">
<ele>125.344788</ele>
<time>2010-07-17T09:42:53Z</time>
<desc>lat.=55.743652, lon.=26.306009, Alt.=125.344788m. Speed=23.292000m/h.</desc>
<speed>6.470000</speed>
</trkpt>
<trkpt lat="55.743626" lon="26.305912">
<ele>125.264709</ele>
<time>2010-07-17T09:42:54Z</time>
<desc>lat.=55.743626, lon.=26.305912, Alt.=125.264709m. Speed=22.464001m/h.</desc>
<speed>6.240000</speed>
</trkpt>
<trkpt lat="55.743610" lon="26.305811">
<ele>124.327209</ele>
<time>2010-07-17T09:42:55Z</time>
<desc>lat.=55.743610, lon.=26.305811, Alt.=124.327209m. Speed=23.076000m/h.</desc>
<speed>6.410000</speed>
</trkpt>
<trkpt lat="55.743587" lon="26.305708">
<ele>123.950256</ele>
<time>2010-07-17T09:42:56Z</time>
<desc>lat.=55.743587, lon.=26.305708, Alt.=123.950256m. Speed=23.364000m/h.</desc>
<speed>6.490000</speed>
</trkpt>
<trkpt lat="55.743568" lon="26.305607">
<ele>124.592834</ele>
<time>2010-07-17T09:42:57Z</time>
<desc>lat.=55.743568, lon.=26.305607, Alt.=124.592834m. Speed=22.716000m/h.</desc>
<speed>6.310000</speed>
</trkpt>
<trkpt lat="55.743549" lon="26.305506">
<ele>124.059631</ele>
<time>2010-07-17T09:42:58Z</time>
<desc>lat.=55.743549, lon.=26.305506, Alt.=124.059631m. Speed=24.228001m/h.</desc>
<speed>6.730000</speed>
</trkpt>
<trkpt lat="55.743534" lon="26.305408">
<ele>124.118225</ele>
<time>2010-07-17T09:42:59Z</time>
<desc>lat.=55.743534, lon.=26.305408, Alt.=124.118225m. Speed=22.464001m/h.</desc>
<speed>6.240000</speed>
</trkpt>
<trkpt lat="55.743515" lon="26.305311">
<ele>123.969788</ele>
<time>2010-07-17T09:43:00Z</time>
<desc>lat.=55.743515, lon.=26.305311, Alt.=123.969788m. Speed=22.968000m/h.</desc>
<speed>6.380000</speed>
</trkpt>
<trkpt lat="55.743496" lon="26.305218">
<ele>123.969788</ele>
<time>2010-07-17T09:43:01Z</time>
<desc>lat.=55.743496, lon.=26.305218, Alt.=123.969788m. Speed=21.420000m/h.</desc>
<speed>5.950000</speed>
</trkpt>
<trkpt lat="55.743477" lon="26.305124">
<ele>124.862366</ele>
<time>2010-07-17T09:43:02Z</time>
<desc>lat.=55.743477, lon.=26.305124, Alt.=124.862366m. Speed=22.464001m/h.</desc>
<speed>6.240000</speed>
</trkpt>
<trkpt lat="55.743454" lon="26.305031">
<ele>124.790100</ele>
<time>2010-07-17T09:43:03Z</time>
<desc>lat.=55.743454, lon.=26.305031, Alt.=124.790100m. Speed=23.327999m/h.</desc>
<speed>6.480000</speed>
</trkpt>
<trkpt lat="55.743439" lon="26.304932">
<ele>125.905334</ele>
<time>2010-07-17T09:43:04Z</time>
<desc>lat.=55.743439, lon.=26.304932, Alt.=125.905334m. Speed=22.680000m/h.</desc>
<speed>6.300000</speed>
</trkpt>
<trkpt lat="55.743420" lon="26.304836">
<ele>126.137756</ele>
<time>2010-07-17T09:43:05Z</time>
<desc>lat.=55.743420, lon.=26.304836, Alt.=126.137756m. Speed=22.680000m/h.</desc>
<speed>6.300000</speed>
</trkpt>
<trkpt lat="55.743404" lon="26.304741">
<ele>126.549866</ele>
<time>2010-07-17T09:43:06Z</time>
<desc>lat.=55.743404, lon.=26.304741, Alt.=126.549866m. Speed=23.184000m/h.</desc>
<speed>6.440000</speed>
</trkpt>
<trkpt lat="55.743382" lon="26.304647">
<ele>126.655334</ele>
<time>2010-07-17T09:43:07Z</time>
<desc>lat.=55.743382, lon.=26.304647, Alt.=126.655334m. Speed=23.832001m/h.</desc>
<speed>6.620000</speed>
</trkpt>
<trkpt lat="55.743359" lon="26.304554">
<ele>126.321350</ele>
<time>2010-07-17T09:43:08Z</time>
<desc>lat.=55.743359, lon.=26.304554, Alt.=126.321350m. Speed=23.076000m/h.</desc>
<speed>6.410000</speed>
</trkpt>
<trkpt lat="55.743332" lon="26.304449">
<ele>125.325256</ele>
<time>2010-07-17T09:43:09Z</time>
<desc>lat.=55.743332, lon.=26.304449, Alt.=125.325256m. Speed=24.804001m/h.</desc>
<speed>6.890000</speed>
</trkpt>
<trkpt lat="55.743305" lon="26.304344">
<ele>124.481506</ele>
<time>2010-07-17T09:43:10Z</time>
<desc>lat.=55.743305, lon.=26.304344, Alt.=124.481506m. Speed=24.264000m/h.</desc>
<speed>6.740000</speed>
</trkpt>
<trkpt lat="55.743286" lon="26.304247">
<ele>124.497131</ele>
<time>2010-07-17T09:43:11Z</time>
<desc>lat.=55.743286, lon.=26.304247, Alt.=124.497131m. Speed=24.191999m/h.</desc>
<speed>6.720000</speed>
</trkpt>
<trkpt lat="55.743267" lon="26.304142">
<ele>123.704163</ele>
<time>2010-07-17T09:43:12Z</time>
<desc>lat.=55.743267, lon.=26.304142, Alt.=123.704163m. Speed=23.364000m/h.</desc>
<speed>6.490000</speed>
</trkpt>
<trkpt lat="55.743252" lon="26.304037">
<ele>123.335022</ele>
<time>2010-07-17T09:43:13Z</time>
<desc>lat.=55.743252, lon.=26.304037, Alt.=123.335022m. Speed=24.299999m/h.</desc>
<speed>6.750000</speed>
</trkpt>
<trkpt lat="55.743229" lon="26.303934">
<ele>122.813538</ele>
<time>2010-07-17T09:43:14Z</time>
<desc>lat.=55.743229, lon.=26.303934, Alt.=122.813538m. Speed=23.256001m/h.</desc>
<speed>6.460000</speed>
</trkpt>
<trkpt lat="55.743217" lon="26.303831">
<ele>122.555725</ele>
<time>2010-07-17T09:43:15Z</time>
<desc>lat.=55.743217, lon.=26.303831, Alt.=122.555725m. Speed=22.680000m/h.</desc>
<speed>6.300000</speed>
</trkpt>
<trkpt lat="55.743198" lon="26.303734">
<ele>122.231506</ele>
<time>2010-07-17T09:43:16Z</time>
<desc>lat.=55.743198, lon.=26.303734, Alt.=122.231506m. Speed=21.996000m/h.</desc>
<speed>6.110000</speed>
</trkpt>
<trkpt lat="55.743183" lon="26.303640">
<ele>122.475647</ele>
<time>2010-07-17T09:43:17Z</time>
<desc>lat.=55.743183, lon.=26.303640, Alt.=122.475647m. Speed=23.004000m/h.</desc>
<speed>6.390000</speed>
</trkpt>
<trkpt lat="55.743164" lon="26.303541">
<ele>122.249084</ele>
<time>2010-07-17T09:43:18Z</time>
<desc>lat.=55.743164, lon.=26.303541, Alt.=122.249084m. Speed=24.156000m/h.</desc>
<speed>6.710000</speed>
</trkpt>
<trkpt lat="55.743141" lon="26.303450">
<ele>122.139709</ele>
<time>2010-07-17T09:43:19Z</time>
<desc>lat.=55.743141, lon.=26.303450, Alt.=122.139709m. Speed=23.364000m/h.</desc>
<speed>6.490000</speed>
</trkpt>
<trkpt lat="55.743122" lon="26.303358">
<ele>122.100647</ele>
<time>2010-07-17T09:43:20Z</time>
<desc>lat.=55.743122, lon.=26.303358, Alt.=122.100647m. Speed=23.507999m/h.</desc>
<speed>6.530000</speed>
</trkpt>
<trkpt lat="55.743107" lon="26.303263">
<ele>121.770569</ele>
<time>2010-07-17T09:43:21Z</time>
<desc>lat.=55.743107, lon.=26.303263, Alt.=121.770569m. Speed=22.788000m/h.</desc>
<speed>6.330000</speed>
</trkpt>
<trkpt lat="55.743088" lon="26.303171">
<ele>121.698303</ele>
<time>2010-07-17T09:43:22Z</time>
<desc>lat.=55.743088, lon.=26.303171, Alt.=121.698303m. Speed=23.112000m/h.</desc>
<speed>6.420000</speed>
</trkpt>
<trkpt lat="55.743061" lon="26.303082">
<ele>120.477600</ele>
<time>2010-07-17T09:43:23Z</time>
<desc>lat.=55.743061, lon.=26.303082, Alt.=120.477600m. Speed=21.851999m/h.</desc>
<speed>6.070000</speed>
</trkpt>
<trkpt lat="55.743042" lon="26.302992">
<ele>120.092834</ele>
<time>2010-07-17T09:43:24Z</time>
<desc>lat.=55.743042, lon.=26.302992, Alt.=120.092834m. Speed=23.112000m/h.</desc>
<speed>6.420000</speed>
</trkpt>
<trkpt lat="55.743027" lon="26.302896">
<ele>120.129944</ele>
<time>2010-07-17T09:43:25Z</time>
<desc>lat.=55.743027, lon.=26.302896, Alt.=120.129944m. Speed=22.068001m/h.</desc>
<speed>6.130000</speed>
</trkpt>
<trkpt lat="55.743004" lon="26.302799">
<ele>119.889709</ele>
<time>2010-07-17T09:43:26Z</time>
<desc>lat.=55.743004, lon.=26.302799, Alt.=119.889709m. Speed=21.492001m/h.</desc>
<speed>5.970000</speed>
</trkpt>
<trkpt lat="55.742992" lon="26.302696">
<ele>119.251038</ele>
<time>2010-07-17T09:43:27Z</time>
<desc>lat.=55.742992, lon.=26.302696, Alt.=119.251038m. Speed=22.212000m/h.</desc>
<speed>6.170000</speed>
</trkpt>
<trkpt lat="55.742973" lon="26.302591">
<ele>118.252991</ele>
<time>2010-07-17T09:43:28Z</time>
<desc>lat.=55.742973, lon.=26.302591, Alt.=118.252991m. Speed=22.823999m/h.</desc>
<speed>6.340000</speed>
</trkpt>
<trkpt lat="55.742954" lon="26.302496">
<ele>117.854553</ele>
<time>2010-07-17T09:43:29Z</time>
<desc>lat.=55.742954, lon.=26.302496, Alt.=117.854553m. Speed=21.743999m/h.</desc>
<speed>6.040000</speed>
</trkpt>
<trkpt lat="55.742943" lon="26.302404">
<ele>117.526428</ele>
<time>2010-07-17T09:43:30Z</time>
<desc>lat.=55.742943, lon.=26.302404, Alt.=117.526428m. Speed=21.348000m/h.</desc>
<speed>5.930000</speed>
</trkpt>
<trkpt lat="55.742924" lon="26.302315">
<ele>116.995178</ele>
<time>2010-07-17T09:43:31Z</time>
<desc>lat.=55.742924, lon.=26.302315, Alt.=116.995178m. Speed=20.591999m/h.</desc>
<speed>5.720000</speed>
</trkpt>
<trkpt lat="55.742908" lon="26.302229">
<ele>116.756897</ele>
<time>2010-07-17T09:43:32Z</time>
<desc>lat.=55.742908, lon.=26.302229, Alt.=116.756897m. Speed=21.167999m/h.</desc>
<speed>5.880000</speed>
</trkpt>
<trkpt lat="55.742893" lon="26.302141">
<ele>116.794006</ele>
<time>2010-07-17T09:43:33Z</time>
<desc>lat.=55.742893, lon.=26.302141, Alt.=116.794006m. Speed=20.988001m/h.</desc>
<speed>5.830000</speed>
</trkpt>
<trkpt lat="55.742874" lon="26.302052">
<ele>116.901428</ele>
<time>2010-07-17T09:43:34Z</time>
<desc>lat.=55.742874, lon.=26.302052, Alt.=116.901428m. Speed=20.808001m/h.</desc>
<speed>5.780000</speed>
</trkpt>
<trkpt lat="55.742859" lon="26.301970">
<ele>117.555725</ele>
<time>2010-07-17T09:43:35Z</time>
<desc>lat.=55.742859, lon.=26.301970, Alt.=117.555725m. Speed=20.340000m/h.</desc>
<speed>5.650000</speed>
</trkpt>
<trkpt lat="55.742836" lon="26.301886">
<ele>117.922913</ele>
<time>2010-07-17T09:43:36Z</time>
<desc>lat.=55.742836, lon.=26.301886, Alt.=117.922913m. Speed=21.204000m/h.</desc>
<speed>5.890000</speed>
</trkpt>
<trkpt lat="55.742813" lon="26.301794">
<ele>118.198303</ele>
<time>2010-07-17T09:43:37Z</time>
<desc>lat.=55.742813, lon.=26.301794, Alt.=118.198303m. Speed=22.752001m/h.</desc>
<speed>6.320000</speed>
</trkpt>
<trkpt lat="55.742786" lon="26.301691">
<ele>118.124084</ele>
<time>2010-07-17T09:43:38Z</time>
<desc>lat.=55.742786, lon.=26.301691, Alt.=118.124084m. Speed=23.256001m/h.</desc>
<speed>6.460000</speed>
</trkpt>
<trkpt lat="55.742767" lon="26.301586">
<ele>118.149475</ele>
<time>2010-07-17T09:43:39Z</time>
<desc>lat.=55.742767, lon.=26.301586, Alt.=118.149475m. Speed=23.004000m/h.</desc>
<speed>6.390000</speed>
</trkpt>
<trkpt lat="55.742748" lon="26.301474">
<ele>117.356506</ele>
<time>2010-07-17T09:43:40Z</time>
<desc>lat.=55.742748, lon.=26.301474, Alt.=117.356506m. Speed=23.400000m/h.</desc>
<speed>6.500000</speed>
</trkpt>
<trkpt lat="55.742729" lon="26.301363">
<ele>116.823303</ele>
<time>2010-07-17T09:43:41Z</time>
<desc>lat.=55.742729, lon.=26.301363, Alt.=116.823303m. Speed=22.931999m/h.</desc>
<speed>6.370000</speed>
</trkpt>
<trkpt lat="55.742706" lon="26.301268">
<ele>116.706116</ele>
<time>2010-07-17T09:43:42Z</time>
<desc>lat.=55.742706, lon.=26.301268, Alt.=116.706116m. Speed=20.556000m/h.</desc>
<speed>5.710000</speed>
</trkpt>
<trkpt lat="55.742695" lon="26.301176">
<ele>118.188538</ele>
<time>2010-07-17T09:43:43Z</time>
<desc>lat.=55.742695, lon.=26.301176, Alt.=118.188538m. Speed=19.944000m/h.</desc>
<speed>5.540000</speed>
</trkpt>
<trkpt lat="55.742676" lon="26.301102">
<ele>118.641663</ele>
<time>2010-07-17T09:43:44Z</time>
<desc>lat.=55.742676, lon.=26.301102, Alt.=118.641663m. Speed=19.908001m/h.</desc>
<speed>5.530000</speed>
</trkpt>
<trkpt lat="55.742653" lon="26.301016">
<ele>117.510803</ele>
<time>2010-07-17T09:43:45Z</time>
<desc>lat.=55.742653, lon.=26.301016, Alt.=117.510803m. Speed=20.483999m/h.</desc>
<speed>5.690000</speed>
</trkpt>
<trkpt lat="55.742641" lon="26.300930">
<ele>117.981506</ele>
<time>2010-07-17T09:43:46Z</time>
<desc>lat.=55.742641, lon.=26.300930, Alt.=117.981506m. Speed=19.980000m/h.</desc>
<speed>5.550000</speed>
</trkpt>
<trkpt lat="55.742622" lon="26.300850">
<ele>117.915100</ele>
<time>2010-07-17T09:43:47Z</time>
<desc>lat.=55.742622, lon.=26.300850, Alt.=117.915100m. Speed=19.908001m/h.</desc>
<speed>5.530000</speed>
</trkpt>
<trkpt lat="55.742603" lon="26.300768">
<ele>117.710022</ele>
<time>2010-07-17T09:43:48Z</time>
<desc>lat.=55.742603, lon.=26.300768, Alt.=117.710022m. Speed=20.448000m/h.</desc>
<speed>5.680000</speed>
</trkpt>
<trkpt lat="55.742584" lon="26.300682">
<ele>117.766663</ele>
<time>2010-07-17T09:43:49Z</time>
<desc>lat.=55.742584, lon.=26.300682, Alt.=117.766663m. Speed=20.844000m/h.</desc>
<speed>5.790000</speed>
</trkpt>
<trkpt lat="55.742565" lon="26.300596">
<ele>117.581116</ele>
<time>2010-07-17T09:43:50Z</time>
<desc>lat.=55.742565, lon.=26.300596, Alt.=117.581116m. Speed=21.096001m/h.</desc>
<speed>5.860000</speed>
</trkpt>
<trkpt lat="55.742550" lon="26.300507">
<ele>117.965881</ele>
<time>2010-07-17T09:43:51Z</time>
<desc>lat.=55.742550, lon.=26.300507, Alt.=117.965881m. Speed=21.420000m/h.</desc>
<speed>5.950000</speed>
</trkpt>
<trkpt lat="55.742535" lon="26.300411">
<ele>118.614319</ele>
<time>2010-07-17T09:43:52Z</time>
<desc>lat.=55.742535, lon.=26.300411, Alt.=118.614319m. Speed=21.959999m/h.</desc>
<speed>6.100000</speed>
</trkpt>
<trkpt lat="55.742535" lon="26.300331">
<ele>119.866272</ele>
<time>2010-07-17T09:43:53Z</time>
<desc>lat.=55.742535, lon.=26.300331, Alt.=119.866272m. Speed=20.591999m/h.</desc>
<speed>5.720000</speed>
</trkpt>
<trkpt lat="55.742519" lon="26.300241">
<ele>119.567444</ele>
<time>2010-07-17T09:43:54Z</time>
<desc>lat.=55.742519, lon.=26.300241, Alt.=119.567444m. Speed=20.556000m/h.</desc>
<speed>5.710000</speed>
</trkpt>
<trkpt lat="55.742508" lon="26.300152">
<ele>119.544006</ele>
<time>2010-07-17T09:43:55Z</time>
<desc>lat.=55.742508, lon.=26.300152, Alt.=119.544006m. Speed=20.916000m/h.</desc>
<speed>5.810000</speed>
</trkpt>
<trkpt lat="55.742493" lon="26.300066">
<ele>120.608459</ele>
<time>2010-07-17T09:43:56Z</time>
<desc>lat.=55.742493, lon.=26.300066, Alt.=120.608459m. Speed=20.520000m/h.</desc>
<speed>5.700000</speed>
</trkpt>
<trkpt lat="55.742470" lon="26.299976">
<ele>120.862366</ele>
<time>2010-07-17T09:43:57Z</time>
<desc>lat.=55.742470, lon.=26.299976, Alt.=120.862366m. Speed=20.124001m/h.</desc>
<speed>5.590000</speed>
</trkpt>
<trkpt lat="55.742451" lon="26.299885">
<ele>120.561584</ele>
<time>2010-07-17T09:43:58Z</time>
<desc>lat.=55.742451, lon.=26.299885, Alt.=120.561584m. Speed=20.771999m/h.</desc>
<speed>5.770000</speed>
</trkpt>
<trkpt lat="55.742435" lon="26.299795">
<ele>120.624084</ele>
<time>2010-07-17T09:43:59Z</time>
<desc>lat.=55.742435, lon.=26.299795, Alt.=120.624084m. Speed=20.412001m/h.</desc>
<speed>5.670000</speed>
</trkpt>
<trkpt lat="55.742420" lon="26.299704">
<ele>120.206116</ele>
<time>2010-07-17T09:44:00Z</time>
<desc>lat.=55.742420, lon.=26.299704, Alt.=120.206116m. Speed=20.304001m/h.</desc>
<speed>5.640000</speed>
</trkpt>
<trkpt lat="55.742416" lon="26.299618">
<ele>120.588928</ele>
<time>2010-07-17T09:44:01Z</time>
<desc>lat.=55.742416, lon.=26.299618, Alt.=120.588928m. Speed=20.736000m/h.</desc>
<speed>5.760000</speed>
</trkpt>
<trkpt lat="55.742405" lon="26.299528">
<ele>120.794006</ele>
<time>2010-07-17T09:44:02Z</time>
<desc>lat.=55.742405, lon.=26.299528, Alt.=120.794006m. Speed=20.628000m/h.</desc>
<speed>5.730000</speed>
</trkpt>
<trkpt lat="55.742386" lon="26.299435">
<ele>120.440491</ele>
<time>2010-07-17T09:44:03Z</time>
<desc>lat.=55.742386, lon.=26.299435, Alt.=120.440491m. Speed=20.700001m/h.</desc>
<speed>5.750000</speed>
</trkpt>
<trkpt lat="55.742371" lon="26.299339">
<ele>121.268616</ele>
<time>2010-07-17T09:44:04Z</time>
<desc>lat.=55.742371, lon.=26.299339, Alt.=121.268616m. Speed=21.563999m/h.</desc>
<speed>5.990000</speed>
</trkpt>
<trkpt lat="55.742359" lon="26.299244">
<ele>121.491272</ele>
<time>2010-07-17T09:44:05Z</time>
<desc>lat.=55.742359, lon.=26.299244, Alt.=121.491272m. Speed=21.996000m/h.</desc>
<speed>6.110000</speed>
</trkpt>
<trkpt lat="55.742348" lon="26.299143">
<ele>121.940491</ele>
<time>2010-07-17T09:44:06Z</time>
<desc>lat.=55.742348, lon.=26.299143, Alt.=121.940491m. Speed=22.680000m/h.</desc>
<speed>6.300000</speed>
</trkpt>
<trkpt lat="55.742332" lon="26.299042">
<ele>122.547913</ele>
<time>2010-07-17T09:44:07Z</time>
<desc>lat.=55.742332, lon.=26.299042, Alt.=122.547913m. Speed=23.724001m/h.</desc>
<speed>6.590000</speed>
</trkpt>
<trkpt lat="55.742317" lon="26.298941">
<ele>123.182678</ele>
<time>2010-07-17T09:44:08Z</time>
<desc>lat.=55.742317, lon.=26.298941, Alt.=123.182678m. Speed=24.624001m/h.</desc>
<speed>6.840000</speed>
</trkpt>
<trkpt lat="55.742298" lon="26.298832">
<ele>123.534241</ele>
<time>2010-07-17T09:44:09Z</time>
<desc>lat.=55.742298, lon.=26.298832, Alt.=123.534241m. Speed=24.228001m/h.</desc>
<speed>6.730000</speed>
</trkpt>
<trkpt lat="55.742283" lon="26.298729">
<ele>124.139709</ele>
<time>2010-07-17T09:44:10Z</time>
<desc>lat.=55.742283, lon.=26.298729, Alt.=124.139709m. Speed=24.948000m/h.</desc>
<speed>6.930000</speed>
</trkpt>
<trkpt lat="55.742264" lon="26.298630">
<ele>124.502991</ele>
<time>2010-07-17T09:44:11Z</time>
<desc>lat.=55.742264, lon.=26.298630, Alt.=124.502991m. Speed=24.408001m/h.</desc>
<speed>6.780000</speed>
</trkpt>
<trkpt lat="55.742241" lon="26.298529">
<ele>125.094788</ele>
<time>2010-07-17T09:44:12Z</time>
<desc>lat.=55.742241, lon.=26.298529, Alt.=125.094788m. Speed=23.472000m/h.</desc>
<speed>6.520000</speed>
</trkpt>
<trkpt lat="55.742218" lon="26.298431">
<ele>125.522522</ele>
<time>2010-07-17T09:44:13Z</time>
<desc>lat.=55.742218, lon.=26.298431, Alt.=125.522522m. Speed=22.788000m/h.</desc>
<speed>6.330000</speed>
</trkpt>
<trkpt lat="55.742195" lon="26.298338">
<ele>125.430725</ele>
<time>2010-07-17T09:44:14Z</time>
<desc>lat.=55.742195, lon.=26.298338, Alt.=125.430725m. Speed=24.084000m/h.</desc>
<speed>6.690000</speed>
</trkpt>
<trkpt lat="55.742172" lon="26.298243">
<ele>125.977600</ele>
<time>2010-07-17T09:44:15Z</time>
<desc>lat.=55.742172, lon.=26.298243, Alt.=125.977600m. Speed=22.176001m/h.</desc>
<speed>6.160000</speed>
</trkpt>
<trkpt lat="55.742153" lon="26.298145">
<ele>127.385803</ele>
<time>2010-07-17T09:44:16Z</time>
<desc>lat.=55.742153, lon.=26.298145, Alt.=127.385803m. Speed=22.680000m/h.</desc>
<speed>6.300000</speed>
</trkpt>
<trkpt lat="55.742134" lon="26.298054">
<ele>127.297913</ele>
<time>2010-07-17T09:44:17Z</time>
<desc>lat.=55.742134, lon.=26.298054, Alt.=127.297913m. Speed=22.896000m/h.</desc>
<speed>6.360000</speed>
</trkpt>
<trkpt lat="55.742111" lon="26.297947">
<ele>127.735413</ele>
<time>2010-07-17T09:44:18Z</time>
<desc>lat.=55.742111, lon.=26.297947, Alt.=127.735413m. Speed=24.408001m/h.</desc>
<speed>6.780000</speed>
</trkpt>
<trkpt lat="55.742092" lon="26.297842">
<ele>127.784241</ele>
<time>2010-07-17T09:44:19Z</time>
<desc>lat.=55.742092, lon.=26.297842, Alt.=127.784241m. Speed=23.256001m/h.</desc>
<speed>6.460000</speed>
</trkpt>
<trkpt lat="55.742073" lon="26.297741">
<ele>127.192444</ele>
<time>2010-07-17T09:44:20Z</time>
<desc>lat.=55.742073, lon.=26.297741, Alt.=127.192444m. Speed=22.572001m/h.</desc>
<speed>6.270000</speed>
</trkpt>
<trkpt lat="55.742062" lon="26.297640">
<ele>126.737366</ele>
<time>2010-07-17T09:44:21Z</time>
<desc>lat.=55.742062, lon.=26.297640, Alt.=126.737366m. Speed=21.996000m/h.</desc>
<speed>6.110000</speed>
</trkpt>
<trkpt lat="55.742043" lon="26.297548">
<ele>126.911194</ele>
<time>2010-07-17T09:44:22Z</time>
<desc>lat.=55.742043, lon.=26.297548, Alt.=126.911194m. Speed=20.232000m/h.</desc>
<speed>5.620000</speed>
</trkpt>
<trkpt lat="55.742027" lon="26.297474">
<ele>126.985413</ele>
<time>2010-07-17T09:44:23Z</time>
<desc>lat.=55.742027, lon.=26.297474, Alt.=126.985413m. Speed=18.431999m/h.</desc>
<speed>5.120000</speed>
</trkpt>
<trkpt lat="55.742012" lon="26.297396">
<ele>127.729553</ele>
<time>2010-07-17T09:44:24Z</time>
<desc>lat.=55.742012, lon.=26.297396, Alt.=127.729553m. Speed=18.323999m/h.</desc>
<speed>5.090000</speed>
</trkpt>
<trkpt lat="55.741993" lon="26.297316">
<ele>127.922913</ele>
<time>2010-07-17T09:44:25Z</time>
<desc>lat.=55.741993, lon.=26.297316, Alt.=127.922913m. Speed=18.072001m/h.</desc>
<speed>5.020000</speed>
</trkpt>
<trkpt lat="55.741982" lon="26.297239">
<ele>128.115356</ele>
<time>2010-07-17T09:44:26Z</time>
<desc>lat.=55.741982, lon.=26.297239, Alt.=128.115356m. Speed=18.035999m/h.</desc>
<speed>5.010000</speed>
</trkpt>
<trkpt lat="55.741970" lon="26.297167">
<ele>128.349731</ele>
<time>2010-07-17T09:44:27Z</time>
<desc>lat.=55.741970, lon.=26.297167, Alt.=128.349731m. Speed=16.524000m/h.</desc>
<speed>4.590000</speed>
</trkpt>
<trkpt lat="55.741962" lon="26.297092">
<ele>128.216919</ele>
<time>2010-07-17T09:44:28Z</time>
<desc>lat.=55.741962, lon.=26.297092, Alt.=128.216919m. Speed=15.012000m/h.</desc>
<speed>4.170000</speed>
</trkpt>
<trkpt lat="55.741955" lon="26.297022">
<ele>128.642700</ele>
<time>2010-07-17T09:44:29Z</time>
<desc>lat.=55.741955, lon.=26.297022, Alt.=128.642700m. Speed=15.048000m/h.</desc>
<speed>4.180000</speed>
</trkpt>
<trkpt lat="55.741947" lon="26.296961">
<ele>129.013794</ele>
<time>2010-07-17T09:44:30Z</time>
<desc>lat.=55.741947, lon.=26.296961, Alt.=129.013794m. Speed=14.616000m/h.</desc>
<speed>4.060000</speed>
</trkpt>
<trkpt lat="55.741932" lon="26.296898">
<ele>129.380981</ele>
<time>2010-07-17T09:44:31Z</time>
<desc>lat.=55.741932, lon.=26.296898, Alt.=129.380981m. Speed=15.228000m/h.</desc>
<speed>4.230000</speed>
</trkpt>
<trkpt lat="55.741917" lon="26.296829">
<ele>129.826294</ele>
<time>2010-07-17T09:44:32Z</time>
<desc>lat.=55.741917, lon.=26.296829, Alt.=129.826294m. Speed=15.336000m/h.</desc>
<speed>4.260000</speed>
</trkpt>
<trkpt lat="55.741894" lon="26.296764">
<ele>130.052856</ele>
<time>2010-07-17T09:44:33Z</time>
<desc>lat.=55.741894, lon.=26.296764, Alt.=130.052856m. Speed=15.552000m/h.</desc>
<speed>4.320000</speed>
</trkpt>
<trkpt lat="55.741882" lon="26.296692">
<ele>129.595825</ele>
<time>2010-07-17T09:44:34Z</time>
<desc>lat.=55.741882, lon.=26.296692, Alt.=129.595825m. Speed=15.228000m/h.</desc>
<speed>4.230000</speed>
</trkpt>
<trkpt lat="55.741875" lon="26.296623">
<ele>129.670044</ele>
<time>2010-07-17T09:44:35Z</time>
<desc>lat.=55.741875, lon.=26.296623, Alt.=129.670044m. Speed=15.228000m/h.</desc>
<speed>4.230000</speed>
</trkpt>
<trkpt lat="55.741859" lon="26.296560">
<ele>129.431763</ele>
<time>2010-07-17T09:44:36Z</time>
<desc>lat.=55.741859, lon.=26.296560, Alt.=129.431763m. Speed=14.868000m/h.</desc>
<speed>4.130000</speed>
</trkpt>
<trkpt lat="55.741844" lon="26.296499">
<ele>129.767700</ele>
<time>2010-07-17T09:44:37Z</time>
<desc>lat.=55.741844, lon.=26.296499, Alt.=129.767700m. Speed=14.220000m/h.</desc>
<speed>3.950000</speed>
</trkpt>
<trkpt lat="55.741825" lon="26.296442">
<ele>129.947388</ele>
<time>2010-07-17T09:44:38Z</time>
<desc>lat.=55.741825, lon.=26.296442, Alt.=129.947388m. Speed=14.904000m/h.</desc>
<speed>4.140000</speed>
</trkpt>
<trkpt lat="55.741810" lon="26.296375">
<ele>129.474731</ele>
<time>2010-07-17T09:44:39Z</time>
<desc>lat.=55.741810, lon.=26.296375, Alt.=129.474731m. Speed=14.400000m/h.</desc>
<speed>4.000000</speed>
</trkpt>
<trkpt lat="55.741795" lon="26.296309">
<ele>129.740356</ele>
<time>2010-07-17T09:44:40Z</time>
<desc>lat.=55.741795, lon.=26.296309, Alt.=129.740356m. Speed=15.228000m/h.</desc>
<speed>4.230000</speed>
</trkpt>
<trkpt lat="55.741783" lon="26.296238">
<ele>129.838013</ele>
<time>2010-07-17T09:44:41Z</time>
<desc>lat.=55.741783, lon.=26.296238, Alt.=129.838013m. Speed=15.408000m/h.</desc>
<speed>4.280000</speed>
</trkpt>
<trkpt lat="55.741768" lon="26.296160">
<ele>129.681763</ele>
<time>2010-07-17T09:44:42Z</time>
<desc>lat.=55.741768, lon.=26.296160, Alt.=129.681763m. Speed=15.696000m/h.</desc>
<speed>4.360000</speed>
</trkpt>
<trkpt lat="55.741756" lon="26.296085">
<ele>129.658325</ele>
<time>2010-07-17T09:44:43Z</time>
<desc>lat.=55.741756, lon.=26.296085, Alt.=129.658325m. Speed=15.120000m/h.</desc>
<speed>4.200000</speed>
</trkpt>
<trkpt lat="55.741749" lon="26.296021">
<ele>129.478638</ele>
<time>2010-07-17T09:44:44Z</time>
<desc>lat.=55.741749, lon.=26.296021, Alt.=129.478638m. Speed=14.760000m/h.</desc>
<speed>4.100000</speed>
</trkpt>
<trkpt lat="55.741734" lon="26.295963">
<ele>129.927856</ele>
<time>2010-07-17T09:44:45Z</time>
<desc>lat.=55.741734, lon.=26.295963, Alt.=129.927856m. Speed=14.688000m/h.</desc>
<speed>4.080000</speed>
</trkpt>
<trkpt lat="55.741726" lon="26.295906">
<ele>130.119263</ele>
<time>2010-07-17T09:44:46Z</time>
<desc>lat.=55.741726, lon.=26.295906, Alt.=130.119263m. Speed=13.176000m/h.</desc>
<speed>3.660000</speed>
</trkpt>
<trkpt lat="55.741718" lon="26.295847">
<ele>129.994263</ele>
<time>2010-07-17T09:44:47Z</time>
<desc>lat.=55.741718, lon.=26.295847, Alt.=129.994263m. Speed=13.644000m/h.</desc>
<speed>3.790000</speed>
</trkpt>
<trkpt lat="55.741711" lon="26.295786">
<ele>130.384888</ele>
<time>2010-07-17T09:44:48Z</time>
<desc>lat.=55.741711, lon.=26.295786, Alt.=130.384888m. Speed=14.364000m/h.</desc>
<speed>3.990000</speed>
</trkpt>
<trkpt lat="55.741699" lon="26.295725">
<ele>131.115356</ele>
<time>2010-07-17T09:44:49Z</time>
<desc>lat.=55.741699, lon.=26.295725, Alt.=131.115356m. Speed=14.436000m/h.</desc>
<speed>4.010000</speed>
</trkpt>
<trkpt lat="55.741684" lon="26.295668">
<ele>131.361450</ele>
<time>2010-07-17T09:44:50Z</time>
<desc>lat.=55.741684, lon.=26.295668, Alt.=131.361450m. Speed=14.148000m/h.</desc>
<speed>3.930000</speed>
</trkpt>
<trkpt lat="55.741669" lon="26.295612">
<ele>131.923950</ele>
<time>2010-07-17T09:44:51Z</time>
<desc>lat.=55.741669, lon.=26.295612, Alt.=131.923950m. Speed=14.076000m/h.</desc>
<speed>3.910000</speed>
</trkpt>
<trkpt lat="55.741657" lon="26.295557">
<ele>132.482544</ele>
<time>2010-07-17T09:44:52Z</time>
<desc>lat.=55.741657, lon.=26.295557, Alt.=132.482544m. Speed=13.860000m/h.</desc>
<speed>3.850000</speed>
</trkpt>
<trkpt lat="55.741650" lon="26.295500">
<ele>132.814575</ele>
<time>2010-07-17T09:44:53Z</time>
<desc>lat.=55.741650, lon.=26.295500, Alt.=132.814575m. Speed=13.716000m/h.</desc>
<speed>3.810000</speed>
</trkpt>
<trkpt lat="55.741638" lon="26.295441">
<ele>133.009888</ele>
<time>2010-07-17T09:44:54Z</time>
<desc>lat.=55.741638, lon.=26.295441, Alt.=133.009888m. Speed=14.004000m/h.</desc>
<speed>3.890000</speed>
</trkpt>
<trkpt lat="55.741631" lon="26.295385">
<ele>133.502075</ele>
<time>2010-07-17T09:44:55Z</time>
<desc>lat.=55.741631, lon.=26.295385, Alt.=133.502075m. Speed=13.140000m/h.</desc>
<speed>3.650000</speed>
</trkpt>
<trkpt lat="55.741623" lon="26.295338">
<ele>134.654419</ele>
<time>2010-07-17T09:44:56Z</time>
<desc>lat.=55.741623, lon.=26.295338, Alt.=134.654419m. Speed=13.176000m/h.</desc>
<speed>3.660000</speed>
</trkpt>
<trkpt lat="55.741615" lon="26.295290">
<ele>135.744263</ele>
<time>2010-07-17T09:44:57Z</time>
<desc>lat.=55.741615, lon.=26.295290, Alt.=135.744263m. Speed=12.348000m/h.</desc>
<speed>3.430000</speed>
</trkpt>
<trkpt lat="55.741608" lon="26.295238">
<ele>135.693481</ele>
<time>2010-07-17T09:44:58Z</time>
<desc>lat.=55.741608, lon.=26.295238, Alt.=135.693481m. Speed=12.816000m/h.</desc>
<speed>3.560000</speed>
</trkpt>
<trkpt lat="55.741600" lon="26.295185">
<ele>135.670044</ele>
<time>2010-07-17T09:44:59Z</time>
<desc>lat.=55.741600, lon.=26.295185, Alt.=135.670044m. Speed=12.312000m/h.</desc>
<speed>3.420000</speed>
</trkpt>
<trkpt lat="55.741589" lon="26.295126">
<ele>135.966919</ele>
<time>2010-07-17T09:45:00Z</time>
<desc>lat.=55.741589, lon.=26.295126, Alt.=135.966919m. Speed=13.212000m/h.</desc>
<speed>3.670000</speed>
</trkpt>
<trkpt lat="55.741577" lon="26.295071">
<ele>136.822388</ele>
<time>2010-07-17T09:45:01Z</time>
<desc>lat.=55.741577, lon.=26.295071, Alt.=136.822388m. Speed=12.816000m/h.</desc>
<speed>3.560000</speed>
</trkpt>
<trkpt lat="55.741566" lon="26.295015">
<ele>137.318481</ele>
<time>2010-07-17T09:45:02Z</time>
<desc>lat.=55.741566, lon.=26.295015, Alt.=137.318481m. Speed=12.888000m/h.</desc>
<speed>3.580000</speed>
</trkpt>
<trkpt lat="55.741550" lon="26.294960">
<ele>137.220825</ele>
<time>2010-07-17T09:45:03Z</time>
<desc>lat.=55.741550, lon.=26.294960, Alt.=137.220825m. Speed=13.932000m/h.</desc>
<speed>3.870000</speed>
</trkpt>
<trkpt lat="55.741543" lon="26.294901">
<ele>138.216919</ele>
<time>2010-07-17T09:45:04Z</time>
<desc>lat.=55.741543, lon.=26.294901, Alt.=138.216919m. Speed=14.688000m/h.</desc>
<speed>4.080000</speed>
</trkpt>
<trkpt lat="55.741528" lon="26.294846">
<ele>138.830200</ele>
<time>2010-07-17T09:45:05Z</time>
<desc>lat.=55.741528, lon.=26.294846, Alt.=138.830200m. Speed=12.708000m/h.</desc>
<speed>3.530000</speed>
</trkpt>
<trkpt lat="55.741516" lon="26.294796">
<ele>139.013794</ele>
<time>2010-07-17T09:45:06Z</time>
<desc>lat.=55.741516, lon.=26.294796, Alt.=139.013794m. Speed=13.212000m/h.</desc>
<speed>3.670000</speed>
</trkpt>
<trkpt lat="55.741501" lon="26.294743">
<ele>139.232544</ele>
<time>2010-07-17T09:45:07Z</time>
<desc>lat.=55.741501, lon.=26.294743, Alt.=139.232544m. Speed=12.492000m/h.</desc>
<speed>3.470000</speed>
</trkpt>
<trkpt lat="55.741489" lon="26.294693">
<ele>137.978638</ele>
<time>2010-07-17T09:45:08Z</time>
<desc>lat.=55.741489, lon.=26.294693, Alt.=137.978638m. Speed=11.232000m/h.</desc>
<speed>3.120000</speed>
</trkpt>
<trkpt lat="55.741478" lon="26.294649">
<ele>138.076294</ele>
<time>2010-07-17T09:45:09Z</time>
<desc>lat.=55.741478, lon.=26.294649, Alt.=138.076294m. Speed=11.448000m/h.</desc>
<speed>3.180000</speed>
</trkpt>
<trkpt lat="55.741470" lon="26.294613">
<ele>137.783325</ele>
<time>2010-07-17T09:45:10Z</time>
<desc>lat.=55.741470, lon.=26.294613, Alt.=137.783325m. Speed=11.988000m/h.</desc>
<speed>3.330000</speed>
</trkpt>
<trkpt lat="55.741459" lon="26.294569">
<ele>137.966919</ele>
<time>2010-07-17T09:45:11Z</time>
<desc>lat.=55.741459, lon.=26.294569, Alt.=137.966919m. Speed=11.088000m/h.</desc>
<speed>3.080000</speed>
</trkpt>
<trkpt lat="55.741447" lon="26.294525">
<ele>138.310669</ele>
<time>2010-07-17T09:45:12Z</time>
<desc>lat.=55.741447, lon.=26.294525, Alt.=138.310669m. Speed=12.384000m/h.</desc>
<speed>3.440000</speed>
</trkpt>
<trkpt lat="55.741436" lon="26.294468">
<ele>138.275513</ele>
<time>2010-07-17T09:45:13Z</time>
<desc>lat.=55.741436, lon.=26.294468, Alt.=138.275513m. Speed=12.924000m/h.</desc>
<speed>3.590000</speed>
</trkpt>
<trkpt lat="55.741428" lon="26.294411">
<ele>138.240356</ele>
<time>2010-07-17T09:45:14Z</time>
<desc>lat.=55.741428, lon.=26.294411, Alt.=138.240356m. Speed=13.032000m/h.</desc>
<speed>3.620000</speed>
</trkpt>
<trkpt lat="55.741421" lon="26.294353">
<ele>138.486450</ele>
<time>2010-07-17T09:45:15Z</time>
<desc>lat.=55.741421, lon.=26.294353, Alt.=138.486450m. Speed=13.464000m/h.</desc>
<speed>3.740000</speed>
</trkpt>
<trkpt lat="55.741413" lon="26.294291">
<ele>138.787231</ele>
<time>2010-07-17T09:45:16Z</time>
<desc>lat.=55.741413, lon.=26.294291, Alt.=138.787231m. Speed=13.716000m/h.</desc>
<speed>3.810000</speed>
</trkpt>
<trkpt lat="55.741398" lon="26.294239">
<ele>138.873169</ele>
<time>2010-07-17T09:45:17Z</time>
<desc>lat.=55.741398, lon.=26.294239, Alt.=138.873169m. Speed=12.060000m/h.</desc>
<speed>3.350000</speed>
</trkpt>
<trkpt lat="55.741394" lon="26.294189">
<ele>139.396606</ele>
<time>2010-07-17T09:45:18Z</time>
<desc>lat.=55.741394, lon.=26.294189, Alt.=139.396606m. Speed=12.420000m/h.</desc>
<speed>3.450000</speed>
</trkpt>
<trkpt lat="55.741379" lon="26.294142">
<ele>139.474731</ele>
<time>2010-07-17T09:45:19Z</time>
<desc>lat.=55.741379, lon.=26.294142, Alt.=139.474731m. Speed=12.312000m/h.</desc>
<speed>3.420000</speed>
</trkpt>
<trkpt lat="55.741367" lon="26.294096">
<ele>139.275513</ele>
<time>2010-07-17T09:45:20Z</time>
<desc>lat.=55.741367, lon.=26.294096, Alt.=139.275513m. Speed=11.772000m/h.</desc>
<speed>3.270000</speed>
</trkpt>
<trkpt lat="55.741364" lon="26.294039">
<ele>139.369263</ele>
<time>2010-07-17T09:45:21Z</time>
<desc>lat.=55.741364, lon.=26.294039, Alt.=139.369263m. Speed=12.312000m/h.</desc>
<speed>3.420000</speed>
</trkpt>
<trkpt lat="55.741352" lon="26.293978">
<ele>139.619263</ele>
<time>2010-07-17T09:45:22Z</time>
<desc>lat.=55.741352, lon.=26.293978, Alt.=139.619263m. Speed=13.464000m/h.</desc>
<speed>3.740000</speed>
</trkpt>
<trkpt lat="55.741341" lon="26.293921">
<ele>139.920044</ele>
<time>2010-07-17T09:45:23Z</time>
<desc>lat.=55.741341, lon.=26.293921, Alt.=139.920044m. Speed=12.708000m/h.</desc>
<speed>3.530000</speed>
</trkpt>
<trkpt lat="55.741329" lon="26.293861">
<ele>139.693481</ele>
<time>2010-07-17T09:45:24Z</time>
<desc>lat.=55.741329, lon.=26.293861, Alt.=139.693481m. Speed=13.212000m/h.</desc>
<speed>3.670000</speed>
</trkpt>
<trkpt lat="55.741322" lon="26.293804">
<ele>139.767700</ele>
<time>2010-07-17T09:45:25Z</time>
<desc>lat.=55.741322, lon.=26.293804, Alt.=139.767700m. Speed=13.320000m/h.</desc>
<speed>3.700000</speed>
</trkpt>
<trkpt lat="55.741310" lon="26.293745">
<ele>139.677856</ele>
<time>2010-07-17T09:45:26Z</time>
<desc>lat.=55.741310, lon.=26.293745, Alt.=139.677856m. Speed=14.112000m/h.</desc>
<speed>3.920000</speed>
</trkpt>
<trkpt lat="55.741302" lon="26.293682">
<ele>139.537231</ele>
<time>2010-07-17T09:45:27Z</time>
<desc>lat.=55.741302, lon.=26.293682, Alt.=139.537231m. Speed=16.056000m/h.</desc>
<speed>4.460000</speed>
</trkpt>
<trkpt lat="55.741287" lon="26.293608">
<ele>139.658325</ele>
<time>2010-07-17T09:45:28Z</time>
<desc>lat.=55.741287, lon.=26.293608, Alt.=139.658325m. Speed=17.496000m/h.</desc>
<speed>4.860000</speed>
</trkpt>
<trkpt lat="55.741276" lon="26.293530">
<ele>139.564575</ele>
<time>2010-07-17T09:45:29Z</time>
<desc>lat.=55.741276, lon.=26.293530, Alt.=139.564575m. Speed=17.496000m/h.</desc>
<speed>4.860000</speed>
</trkpt>
<trkpt lat="55.741257" lon="26.293447">
<ele>139.541138</ele>
<time>2010-07-17T09:45:30Z</time>
<desc>lat.=55.741257, lon.=26.293447, Alt.=139.541138m. Speed=19.260000m/h.</desc>
<speed>5.350000</speed>
</trkpt>
<trkpt lat="55.741241" lon="26.293365">
<ele>139.584106</ele>
<time>2010-07-17T09:45:31Z</time>
<desc>lat.=55.741241, lon.=26.293365, Alt.=139.584106m. Speed=19.620001m/h.</desc>
<speed>5.450000</speed>
</trkpt>
<trkpt lat="55.741222" lon="26.293280">
<ele>139.201294</ele>
<time>2010-07-17T09:45:32Z</time>
<desc>lat.=55.741222, lon.=26.293280, Alt.=139.201294m. Speed=20.736000m/h.</desc>
<speed>5.760000</speed>
</trkpt>
<trkpt lat="55.741203" lon="26.293186">
<ele>139.045044</ele>
<time>2010-07-17T09:45:33Z</time>
<desc>lat.=55.741203, lon.=26.293186, Alt.=139.045044m. Speed=22.464001m/h.</desc>
<speed>6.240000</speed>
</trkpt>
<trkpt lat="55.741180" lon="26.293089">
<ele>138.865356</ele>
<time>2010-07-17T09:45:34Z</time>
<desc>lat.=55.741180, lon.=26.293089, Alt.=138.865356m. Speed=22.356001m/h.</desc>
<speed>6.210000</speed>
</trkpt>
<trkpt lat="55.741161" lon="26.292988">
<ele>138.201294</ele>
<time>2010-07-17T09:45:35Z</time>
<desc>lat.=55.741161, lon.=26.292988, Alt.=138.201294m. Speed=24.048000m/h.</desc>
<speed>6.680000</speed>
</trkpt>
<trkpt lat="55.741138" lon="26.292883">
<ele>138.416138</ele>
<time>2010-07-17T09:45:36Z</time>
<desc>lat.=55.741138, lon.=26.292883, Alt.=138.416138m. Speed=24.552000m/h.</desc>
<speed>6.820000</speed>
</trkpt>
<trkpt lat="55.741108" lon="26.292780">
<ele>136.271606</ele>
<time>2010-07-17T09:45:37Z</time>
<desc>lat.=55.741108, lon.=26.292780, Alt.=136.271606m. Speed=26.568001m/h.</desc>
<speed>7.380000</speed>
</trkpt>
<trkpt lat="55.741089" lon="26.292658">
<ele>135.834106</ele>
<time>2010-07-17T09:45:38Z</time>
<desc>lat.=55.741089, lon.=26.292658, Alt.=135.834106m. Speed=27.216000m/h.</desc>
<speed>7.560000</speed>
</trkpt>
<trkpt lat="55.741070" lon="26.292540">
<ele>135.423950</ele>
<time>2010-07-17T09:45:39Z</time>
<desc>lat.=55.741070, lon.=26.292540, Alt.=135.423950m. Speed=27.612000m/h.</desc>
<speed>7.670000</speed>
</trkpt>
<trkpt lat="55.741047" lon="26.292421">
<ele>134.959106</ele>
<time>2010-07-17T09:45:40Z</time>
<desc>lat.=55.741047, lon.=26.292421, Alt.=134.959106m. Speed=28.476000m/h.</desc>
<speed>7.910000</speed>
</trkpt>
<trkpt lat="55.741024" lon="26.292301">
<ele>134.455200</ele>
<time>2010-07-17T09:45:41Z</time>
<desc>lat.=55.741024, lon.=26.292301, Alt.=134.455200m. Speed=28.980000m/h.</desc>
<speed>8.050000</speed>
</trkpt>
<trkpt lat="55.740993" lon="26.292179">
<ele>134.017700</ele>
<time>2010-07-17T09:45:42Z</time>
<desc>lat.=55.740993, lon.=26.292179, Alt.=134.017700m. Speed=29.483999m/h.</desc>
<speed>8.190000</speed>
</trkpt>
<trkpt lat="55.740971" lon="26.292063">
<ele>133.338013</ele>
<time>2010-07-17T09:45:43Z</time>
<desc>lat.=55.740971, lon.=26.292063, Alt.=133.338013m. Speed=28.799999m/h.</desc>
<speed>8.000000</speed>
</trkpt>
<trkpt lat="55.740944" lon="26.291948">
<ele>132.974731</ele>
<time>2010-07-17T09:45:44Z</time>
<desc>lat.=55.740944, lon.=26.291948, Alt.=132.974731m. Speed=28.944000m/h.</desc>
<speed>8.040000</speed>
</trkpt>
<trkpt lat="55.740921" lon="26.291828">
<ele>132.677856</ele>
<time>2010-07-17T09:45:45Z</time>
<desc>lat.=55.740921, lon.=26.291828, Alt.=132.677856m. Speed=28.764000m/h.</desc>
<speed>7.990000</speed>
</trkpt>
<trkpt lat="55.740902" lon="26.291718">
<ele>132.181763</ele>
<time>2010-07-17T09:45:46Z</time>
<desc>lat.=55.740902, lon.=26.291718, Alt.=132.181763m. Speed=27.468000m/h.</desc>
<speed>7.630000</speed>
</trkpt>
<trkpt lat="55.740883" lon="26.291611">
<ele>131.916138</ele>
<time>2010-07-17T09:45:47Z</time>
<desc>lat.=55.740883, lon.=26.291611, Alt.=131.916138m. Speed=28.944000m/h.</desc>
<speed>8.040000</speed>
</trkpt>
<trkpt lat="55.740856" lon="26.291492">
<ele>131.423950</ele>
<time>2010-07-17T09:45:48Z</time>
<desc>lat.=55.740856, lon.=26.291492, Alt.=131.423950m. Speed=28.007999m/h.</desc>
<speed>7.780000</speed>
</trkpt>
<trkpt lat="55.740829" lon="26.291382">
<ele>131.064575</ele>
<time>2010-07-17T09:45:49Z</time>
<desc>lat.=55.740829, lon.=26.291382, Alt.=131.064575m. Speed=26.604000m/h.</desc>
<speed>7.390000</speed>
</trkpt>
<trkpt lat="55.740810" lon="26.291271">
<ele>130.787231</ele>
<time>2010-07-17T09:45:50Z</time>
<desc>lat.=55.740810, lon.=26.291271, Alt.=130.787231m. Speed=26.100000m/h.</desc>
<speed>7.250000</speed>
</trkpt>
<trkpt lat="55.740788" lon="26.291176">
<ele>130.525513</ele>
<time>2010-07-17T09:45:51Z</time>
<desc>lat.=55.740788, lon.=26.291176, Alt.=130.525513m. Speed=25.992001m/h.</desc>
<speed>7.220000</speed>
</trkpt>
<trkpt lat="55.740761" lon="26.291058">
<ele>129.720825</ele>
<time>2010-07-17T09:45:52Z</time>
<desc>lat.=55.740761, lon.=26.291058, Alt.=129.720825m. Speed=26.964001m/h.</desc>
<speed>7.490000</speed>
</trkpt>
<trkpt lat="55.740742" lon="26.290941">
<ele>129.541138</ele>
<time>2010-07-17T09:45:53Z</time>
<desc>lat.=55.740742, lon.=26.290941, Alt.=129.541138m. Speed=26.028000m/h.</desc>
<speed>7.230000</speed>
</trkpt>
<trkpt lat="55.740726" lon="26.290823">
<ele>129.080200</ele>
<time>2010-07-17T09:45:54Z</time>
<desc>lat.=55.740726, lon.=26.290823, Alt.=129.080200m. Speed=27.180000m/h.</desc>
<speed>7.550000</speed>
</trkpt>
<trkpt lat="55.740707" lon="26.290701">
<ele>130.084106</ele>
<time>2010-07-17T09:45:55Z</time>
<desc>lat.=55.740707, lon.=26.290701, Alt.=130.084106m. Speed=27.756001m/h.</desc>
<speed>7.710000</speed>
</trkpt>
<trkpt lat="55.740677" lon="26.290581">
<ele>130.677856</ele>
<time>2010-07-17T09:45:56Z</time>
<desc>lat.=55.740677, lon.=26.290581, Alt.=130.677856m. Speed=26.747999m/h.</desc>
<speed>7.430000</speed>
</trkpt>
<trkpt lat="55.740654" lon="26.290464">
<ele>130.232544</ele>
<time>2010-07-17T09:45:57Z</time>
<desc>lat.=55.740654, lon.=26.290464, Alt.=130.232544m. Speed=27.648001m/h.</desc>
<speed>7.680000</speed>
</trkpt>
<trkpt lat="55.740635" lon="26.290348">
<ele>130.599731</ele>
<time>2010-07-17T09:45:58Z</time>
<desc>lat.=55.740635, lon.=26.290348, Alt.=130.599731m. Speed=26.964001m/h.</desc>
<speed>7.490000</speed>
</trkpt>
<trkpt lat="55.740608" lon="26.290226">
<ele>130.298950</ele>
<time>2010-07-17T09:45:59Z</time>
<desc>lat.=55.740608, lon.=26.290226, Alt.=130.298950m. Speed=26.351999m/h.</desc>
<speed>7.320000</speed>
</trkpt>
<trkpt lat="55.740585" lon="26.290121">
<ele>130.142700</ele>
<time>2010-07-17T09:46:00Z</time>
<desc>lat.=55.740585, lon.=26.290121, Alt.=130.142700m. Speed=24.912001m/h.</desc>
<speed>6.920000</speed>
</trkpt>
<trkpt lat="55.740562" lon="26.290014">
<ele>129.853638</ele>
<time>2010-07-17T09:46:01Z</time>
<desc>lat.=55.740562, lon.=26.290014, Alt.=129.853638m. Speed=24.695999m/h.</desc>
<speed>6.860000</speed>
</trkpt>
<trkpt lat="55.740547" lon="26.289904">
<ele>129.888794</ele>
<time>2010-07-17T09:46:02Z</time>
<desc>lat.=55.740547, lon.=26.289904, Alt.=129.888794m. Speed=23.976000m/h.</desc>
<speed>6.660000</speed>
</trkpt>
<trkpt lat="55.740524" lon="26.289791">
<ele>128.865356</ele>
<time>2010-07-17T09:46:03Z</time>
<desc>lat.=55.740524, lon.=26.289791, Alt.=128.865356m. Speed=23.184000m/h.</desc>
<speed>6.440000</speed>
</trkpt>
<trkpt lat="55.740505" lon="26.289698">
<ele>128.646606</ele>
<time>2010-07-17T09:46:04Z</time>
<desc>lat.=55.740505, lon.=26.289698, Alt.=128.646606m. Speed=21.528000m/h.</desc>
<speed>5.980000</speed>
</trkpt>
<trkpt lat="55.740486" lon="26.289612">
<ele>128.314575</ele>
<time>2010-07-17T09:46:05Z</time>
<desc>lat.=55.740486, lon.=26.289612, Alt.=128.314575m. Speed=21.132000m/h.</desc>
<speed>5.870000</speed>
</trkpt>
<trkpt lat="55.740463" lon="26.289526">
<ele>128.041138</ele>
<time>2010-07-17T09:46:06Z</time>
<desc>lat.=55.740463, lon.=26.289526, Alt.=128.041138m. Speed=20.087999m/h.</desc>
<speed>5.580000</speed>
</trkpt>
<trkpt lat="55.740448" lon="26.289444">
<ele>127.676819</ele>
<time>2010-07-17T09:46:07Z</time>
<desc>lat.=55.740448, lon.=26.289444, Alt.=127.676819m. Speed=18.612000m/h.</desc>
<speed>5.170000</speed>
</trkpt>
<trkpt lat="55.740440" lon="26.289356">
<ele>127.444397</ele>
<time>2010-07-17T09:46:08Z</time>
<desc>lat.=55.740440, lon.=26.289356, Alt.=127.444397m. Speed=18.864000m/h.</desc>
<speed>5.240000</speed>
</trkpt>
<trkpt lat="55.740433" lon="26.289272">
<ele>127.508850</ele>
<time>2010-07-17T09:46:09Z</time>
<desc>lat.=55.740433, lon.=26.289272, Alt.=127.508850m. Speed=18.576000m/h.</desc>
<speed>5.160000</speed>
</trkpt>
<trkpt lat="55.740421" lon="26.289200">
<ele>127.385803</ele>
<time>2010-07-17T09:46:10Z</time>
<desc>lat.=55.740421, lon.=26.289200, Alt.=127.385803m. Speed=16.848000m/h.</desc>
<speed>4.680000</speed>
</trkpt>
<trkpt lat="55.740410" lon="26.289131">
<ele>127.629944</ele>
<time>2010-07-17T09:46:11Z</time>
<desc>lat.=55.740410, lon.=26.289131, Alt.=127.629944m. Speed=15.768000m/h.</desc>
<speed>4.380000</speed>
</trkpt>
<trkpt lat="55.740410" lon="26.289080">
<ele>128.045044</ele>
<time>2010-07-17T09:46:12Z</time>
<desc>lat.=55.740410, lon.=26.289080, Alt.=128.045044m. Speed=10.584000m/h.</desc>
<speed>2.940000</speed>
</trkpt>
<trkpt lat="55.740402" lon="26.289028">
<ele>128.400513</ele>
<time>2010-07-17T09:46:13Z</time>
<desc>lat.=55.740402, lon.=26.289028, Alt.=128.400513m. Speed=13.716000m/h.</desc>
<speed>3.810000</speed>
</trkpt>
<trkpt lat="55.740395" lon="26.288969">
<ele>128.685669</ele>
<time>2010-07-17T09:46:14Z</time>
<desc>lat.=55.740395, lon.=26.288969, Alt.=128.685669m. Speed=13.788000m/h.</desc>
<speed>3.830000</speed>
</trkpt>
<trkpt lat="55.740383" lon="26.288914">
<ele>128.908325</ele>
<time>2010-07-17T09:46:15Z</time>
<desc>lat.=55.740383, lon.=26.288914, Alt.=128.908325m. Speed=13.284000m/h.</desc>
<speed>3.690000</speed>
</trkpt>
<trkpt lat="55.740372" lon="26.288860">
<ele>129.213013</ele>
<time>2010-07-17T09:46:16Z</time>
<desc>lat.=55.740372, lon.=26.288860, Alt.=129.213013m. Speed=12.600000m/h.</desc>
<speed>3.500000</speed>
</trkpt>
<trkpt lat="55.740368" lon="26.288807">
<ele>129.701294</ele>
<time>2010-07-17T09:46:17Z</time>
<desc>lat.=55.740368, lon.=26.288807, Alt.=129.701294m. Speed=13.068000m/h.</desc>
<speed>3.630000</speed>
</trkpt>
<trkpt lat="55.740356" lon="26.288740">
<ele>129.966919</ele>
<time>2010-07-17T09:46:18Z</time>
<desc>lat.=55.740356, lon.=26.288740, Alt.=129.966919m. Speed=14.004000m/h.</desc>
<speed>3.890000</speed>
</trkpt>
<trkpt lat="55.740337" lon="26.288671">
<ele>129.654419</ele>
<time>2010-07-17T09:46:19Z</time>
<desc>lat.=55.740337, lon.=26.288671, Alt.=129.654419m. Speed=13.716000m/h.</desc>
<speed>3.810000</speed>
</trkpt>
<trkpt lat="55.740326" lon="26.288607">
<ele>129.681763</ele>
<time>2010-07-17T09:46:20Z</time>
<desc>lat.=55.740326, lon.=26.288607, Alt.=129.681763m. Speed=13.284000m/h.</desc>
<speed>3.690000</speed>
</trkpt>
<trkpt lat="55.740311" lon="26.288544">
<ele>129.779419</ele>
<time>2010-07-17T09:46:21Z</time>
<desc>lat.=55.740311, lon.=26.288544, Alt.=129.779419m. Speed=13.788000m/h.</desc>
<speed>3.830000</speed>
</trkpt>
<trkpt lat="55.740299" lon="26.288488">
<ele>130.150513</ele>
<time>2010-07-17T09:46:22Z</time>
<desc>lat.=55.740299, lon.=26.288488, Alt.=130.150513m. Speed=12.276000m/h.</desc>
<speed>3.410000</speed>
</trkpt>
<trkpt lat="55.740292" lon="26.288425">
<ele>130.611450</ele>
<time>2010-07-17T09:46:23Z</time>
<desc>lat.=55.740292, lon.=26.288425, Alt.=130.611450m. Speed=13.320000m/h.</desc>
<speed>3.700000</speed>
</trkpt>
<trkpt lat="55.740284" lon="26.288364">
<ele>130.986450</ele>
<time>2010-07-17T09:46:24Z</time>
<desc>lat.=55.740284, lon.=26.288364, Alt.=130.986450m. Speed=14.868000m/h.</desc>
<speed>4.130000</speed>
</trkpt>
<trkpt lat="55.740276" lon="26.288296">
<ele>131.146606</ele>
<time>2010-07-17T09:46:25Z</time>
<desc>lat.=55.740276, lon.=26.288296, Alt.=131.146606m. Speed=14.796000m/h.</desc>
<speed>4.110000</speed>
</trkpt>
<trkpt lat="55.740273" lon="26.288223">
<ele>131.529419</ele>
<time>2010-07-17T09:46:26Z</time>
<desc>lat.=55.740273, lon.=26.288223, Alt.=131.529419m. Speed=13.392000m/h.</desc>
<speed>3.720000</speed>
</trkpt>
<trkpt lat="55.740265" lon="26.288168">
<ele>132.123169</ele>
<time>2010-07-17T09:46:27Z</time>
<desc>lat.=55.740265, lon.=26.288168, Alt.=132.123169m. Speed=12.924000m/h.</desc>
<speed>3.590000</speed>
</trkpt>
<trkpt lat="55.740253" lon="26.288111">
<ele>132.716919</ele>
<time>2010-07-17T09:46:28Z</time>
<desc>lat.=55.740253, lon.=26.288111, Alt.=132.716919m. Speed=13.212000m/h.</desc>
<speed>3.670000</speed>
</trkpt>
<trkpt lat="55.740250" lon="26.288052">
<ele>133.427856</ele>
<time>2010-07-17T09:46:29Z</time>
<desc>lat.=55.740250, lon.=26.288052, Alt.=133.427856m. Speed=12.132000m/h.</desc>
<speed>3.370000</speed>
</trkpt>
<trkpt lat="55.740242" lon="26.287998">
<ele>133.869263</ele>
<time>2010-07-17T09:46:30Z</time>
<desc>lat.=55.740242, lon.=26.287998, Alt.=133.869263m. Speed=12.960000m/h.</desc>
<speed>3.600000</speed>
</trkpt>
<trkpt lat="55.740234" lon="26.287945">
<ele>134.369263</ele>
<time>2010-07-17T09:46:31Z</time>
<desc>lat.=55.740234, lon.=26.287945, Alt.=134.369263m. Speed=13.500000m/h.</desc>
<speed>3.750000</speed>
</trkpt>
<trkpt lat="55.740223" lon="26.287872">
<ele>134.255981</ele>
<time>2010-07-17T09:46:32Z</time>
<desc>lat.=55.740223, lon.=26.287872, Alt.=134.255981m. Speed=13.716000m/h.</desc>
<speed>3.810000</speed>
</trkpt>
<trkpt lat="55.740215" lon="26.287811">
<ele>134.470825</ele>
<time>2010-07-17T09:46:33Z</time>
<desc>lat.=55.740215, lon.=26.287811, Alt.=134.470825m. Speed=12.204000m/h.</desc>
<speed>3.390000</speed>
</trkpt>
<trkpt lat="55.740211" lon="26.287741">
<ele>134.728638</ele>
<time>2010-07-17T09:46:34Z</time>
<desc>lat.=55.740211, lon.=26.287741, Alt.=134.728638m. Speed=13.140000m/h.</desc>
<speed>3.650000</speed>
</trkpt>
<trkpt lat="55.740192" lon="26.287683">
<ele>135.357544</ele>
<time>2010-07-17T09:46:35Z</time>
<desc>lat.=55.740192, lon.=26.287683, Alt.=135.357544m. Speed=13.536000m/h.</desc>
<speed>3.760000</speed>
</trkpt>
<trkpt lat="55.740181" lon="26.287630">
<ele>135.568481</ele>
<time>2010-07-17T09:46:36Z</time>
<desc>lat.=55.740181, lon.=26.287630, Alt.=135.568481m. Speed=13.608000m/h.</desc>
<speed>3.780000</speed>
</trkpt>
<trkpt lat="55.740162" lon="26.287579">
<ele>135.326294</ele>
<time>2010-07-17T09:46:37Z</time>
<desc>lat.=55.740162, lon.=26.287579, Alt.=135.326294m. Speed=13.464000m/h.</desc>
<speed>3.740000</speed>
</trkpt>
<trkpt lat="55.740139" lon="26.287521">
<ele>135.849731</ele>
<time>2010-07-17T09:46:38Z</time>
<desc>lat.=55.740139, lon.=26.287521, Alt.=135.849731m. Speed=13.788000m/h.</desc>
<speed>3.830000</speed>
</trkpt>
<trkpt lat="55.740120" lon="26.287464">
<ele>136.584106</ele>
<time>2010-07-17T09:46:39Z</time>
<desc>lat.=55.740120, lon.=26.287464, Alt.=136.584106m. Speed=14.004000m/h.</desc>
<speed>3.890000</speed>
</trkpt>
<trkpt lat="55.740105" lon="26.287409">
<ele>137.130981</ele>
<time>2010-07-17T09:46:40Z</time>
<desc>lat.=55.740105, lon.=26.287409, Alt.=137.130981m. Speed=13.824000m/h.</desc>
<speed>3.840000</speed>
</trkpt>
<trkpt lat="55.740101" lon="26.287352">
<ele>137.275513</ele>
<time>2010-07-17T09:46:41Z</time>
<desc>lat.=55.740101, lon.=26.287352, Alt.=137.275513m. Speed=13.752000m/h.</desc>
<speed>3.820000</speed>
</trkpt>
<trkpt lat="55.740089" lon="26.287294">
<ele>137.572388</ele>
<time>2010-07-17T09:46:42Z</time>
<desc>lat.=55.740089, lon.=26.287294, Alt.=137.572388m. Speed=14.220000m/h.</desc>
<speed>3.950000</speed>
</trkpt>
<trkpt lat="55.740082" lon="26.287245">
<ele>136.892700</ele>
<time>2010-07-17T09:46:43Z</time>
<desc>lat.=55.740082, lon.=26.287245, Alt.=136.892700m. Speed=12.600000m/h.</desc>
<speed>3.500000</speed>
</trkpt>
<trkpt lat="55.740067" lon="26.287191">
<ele>136.814575</ele>
<time>2010-07-17T09:46:44Z</time>
<desc>lat.=55.740067, lon.=26.287191, Alt.=136.814575m. Speed=13.068000m/h.</desc>
<speed>3.630000</speed>
</trkpt>
<trkpt lat="55.740055" lon="26.287138">
<ele>136.947388</ele>
<time>2010-07-17T09:46:45Z</time>
<desc>lat.=55.740055, lon.=26.287138, Alt.=136.947388m. Speed=12.816000m/h.</desc>
<speed>3.560000</speed>
</trkpt>
<trkpt lat="55.740036" lon="26.287086">
<ele>136.568481</ele>
<time>2010-07-17T09:46:46Z</time>
<desc>lat.=55.740036, lon.=26.287086, Alt.=136.568481m. Speed=13.608000m/h.</desc>
<speed>3.780000</speed>
</trkpt>
<trkpt lat="55.740025" lon="26.287031">
<ele>136.580200</ele>
<time>2010-07-17T09:46:47Z</time>
<desc>lat.=55.740025, lon.=26.287031, Alt.=136.580200m. Speed=13.500000m/h.</desc>
<speed>3.750000</speed>
</trkpt>
<trkpt lat="55.740013" lon="26.286982">
<ele>136.556763</ele>
<time>2010-07-17T09:46:48Z</time>
<desc>lat.=55.740013, lon.=26.286982, Alt.=136.556763m. Speed=13.032000m/h.</desc>
<speed>3.620000</speed>
</trkpt>
<trkpt lat="55.740005" lon="26.286928">
<ele>136.478638</ele>
<time>2010-07-17T09:46:49Z</time>
<desc>lat.=55.740005, lon.=26.286928, Alt.=136.478638m. Speed=13.644000m/h.</desc>
<speed>3.790000</speed>
</trkpt>
<trkpt lat="55.739990" lon="26.286873">
<ele>136.466919</ele>
<time>2010-07-17T09:46:50Z</time>
<desc>lat.=55.739990, lon.=26.286873, Alt.=136.466919m. Speed=13.500000m/h.</desc>
<speed>3.750000</speed>
</trkpt>
<trkpt lat="55.739983" lon="26.286808">
<ele>136.502075</ele>
<time>2010-07-17T09:46:51Z</time>
<desc>lat.=55.739983, lon.=26.286808, Alt.=136.502075m. Speed=14.364000m/h.</desc>
<speed>3.990000</speed>
</trkpt>
<trkpt lat="55.739971" lon="26.286755">
<ele>136.818481</ele>
<time>2010-07-17T09:46:52Z</time>
<desc>lat.=55.739971, lon.=26.286755, Alt.=136.818481m. Speed=14.148000m/h.</desc>
<speed>3.930000</speed>
</trkpt>
<trkpt lat="55.739960" lon="26.286699">
<ele>137.088013</ele>
<time>2010-07-17T09:46:53Z</time>
<desc>lat.=55.739960, lon.=26.286699, Alt.=137.088013m. Speed=14.256000m/h.</desc>
<speed>3.960000</speed>
</trkpt>
<trkpt lat="55.739944" lon="26.286636">
<ele>137.189575</ele>
<time>2010-07-17T09:46:54Z</time>
<desc>lat.=55.739944, lon.=26.286636, Alt.=137.189575m. Speed=15.768000m/h.</desc>
<speed>4.380000</speed>
</trkpt>
<trkpt lat="55.739925" lon="26.286579">
<ele>137.767700</ele>
<time>2010-07-17T09:46:55Z</time>
<desc>lat.=55.739925, lon.=26.286579, Alt.=137.767700m. Speed=14.760000m/h.</desc>
<speed>4.100000</speed>
</trkpt>
<trkpt lat="55.739918" lon="26.286522">
<ele>137.951294</ele>
<time>2010-07-17T09:46:56Z</time>
<desc>lat.=55.739918, lon.=26.286522, Alt.=137.951294m. Speed=14.076000m/h.</desc>
<speed>3.910000</speed>
</trkpt>
<trkpt lat="55.739906" lon="26.286461">
<ele>138.091919</ele>
<time>2010-07-17T09:46:57Z</time>
<desc>lat.=55.739906, lon.=26.286461, Alt.=138.091919m. Speed=14.472000m/h.</desc>
<speed>4.020000</speed>
</trkpt>
<trkpt lat="55.739883" lon="26.286392">
<ele>137.568481</ele>
<time>2010-07-17T09:46:58Z</time>
<desc>lat.=55.739883, lon.=26.286392, Alt.=137.568481m. Speed=15.084000m/h.</desc>
<speed>4.190000</speed>
</trkpt>
<trkpt lat="55.739861" lon="26.286329">
<ele>137.252075</ele>
<time>2010-07-17T09:46:59Z</time>
<desc>lat.=55.739861, lon.=26.286329, Alt.=137.252075m. Speed=16.271999m/h.</desc>
<speed>4.520000</speed>
</trkpt>
<trkpt lat="55.739845" lon="26.286268">
<ele>137.330200</ele>
<time>2010-07-17T09:47:00Z</time>
<desc>lat.=55.739845, lon.=26.286268, Alt.=137.330200m. Speed=16.920000m/h.</desc>
<speed>4.700000</speed>
</trkpt>
<trkpt lat="55.739830" lon="26.286200">
<ele>137.728638</ele>
<time>2010-07-17T09:47:01Z</time>
<desc>lat.=55.739830, lon.=26.286200, Alt.=137.728638m. Speed=15.300000m/h.</desc>
<speed>4.250000</speed>
</trkpt>
<trkpt lat="55.739819" lon="26.286133">
<ele>137.955200</ele>
<time>2010-07-17T09:47:02Z</time>
<desc>lat.=55.739819, lon.=26.286133, Alt.=137.955200m. Speed=16.632000m/h.</desc>
<speed>4.620000</speed>
</trkpt>
<trkpt lat="55.739807" lon="26.286058">
<ele>138.103638</ele>
<time>2010-07-17T09:47:03Z</time>
<desc>lat.=55.739807, lon.=26.286058, Alt.=138.103638m. Speed=17.028000m/h.</desc>
<speed>4.730000</speed>
</trkpt>
<trkpt lat="55.739792" lon="26.285982">
<ele>137.654419</ele>
<time>2010-07-17T09:47:04Z</time>
<desc>lat.=55.739792, lon.=26.285982, Alt.=137.654419m. Speed=17.532000m/h.</desc>
<speed>4.870000</speed>
</trkpt>
<trkpt lat="55.739780" lon="26.285904">
<ele>137.228638</ele>
<time>2010-07-17T09:47:05Z</time>
<desc>lat.=55.739780, lon.=26.285904, Alt.=137.228638m. Speed=18.360001m/h.</desc>
<speed>5.100000</speed>
</trkpt>
<trkpt lat="55.739765" lon="26.285820">
<ele>137.670044</ele>
<time>2010-07-17T09:47:06Z</time>
<desc>lat.=55.739765, lon.=26.285820, Alt.=137.670044m. Speed=19.152000m/h.</desc>
<speed>5.320000</speed>
</trkpt>
<trkpt lat="55.739754" lon="26.285730">
<ele>138.431763</ele>
<time>2010-07-17T09:47:07Z</time>
<desc>lat.=55.739754, lon.=26.285730, Alt.=138.431763m. Speed=19.368000m/h.</desc>
<speed>5.380000</speed>
</trkpt>
<trkpt lat="55.739742" lon="26.285643">
<ele>138.955200</ele>
<time>2010-07-17T09:47:08Z</time>
<desc>lat.=55.739742, lon.=26.285643, Alt.=138.955200m. Speed=19.944000m/h.</desc>
<speed>5.540000</speed>
</trkpt>
<trkpt lat="55.739723" lon="26.285559">
<ele>139.373169</ele>
<time>2010-07-17T09:47:09Z</time>
<desc>lat.=55.739723, lon.=26.285559, Alt.=139.373169m. Speed=19.476000m/h.</desc>
<speed>5.410000</speed>
</trkpt>
<trkpt lat="55.739708" lon="26.285479">
<ele>139.318481</ele>
<time>2010-07-17T09:47:10Z</time>
<desc>lat.=55.739708, lon.=26.285479, Alt.=139.318481m. Speed=19.836000m/h.</desc>
<speed>5.510000</speed>
</trkpt>
<trkpt lat="55.739685" lon="26.285389">
<ele>139.482544</ele>
<time>2010-07-17T09:47:11Z</time>
<desc>lat.=55.739685, lon.=26.285389, Alt.=139.482544m. Speed=20.879999m/h.</desc>
<speed>5.800000</speed>
</trkpt>
<trkpt lat="55.739674" lon="26.285299">
<ele>139.716919</ele>
<time>2010-07-17T09:47:12Z</time>
<desc>lat.=55.739674, lon.=26.285299, Alt.=139.716919m. Speed=20.160000m/h.</desc>
<speed>5.600000</speed>
</trkpt>
<trkpt lat="55.739658" lon="26.285206">
<ele>139.728638</ele>
<time>2010-07-17T09:47:13Z</time>
<desc>lat.=55.739658, lon.=26.285206, Alt.=139.728638m. Speed=20.700001m/h.</desc>
<speed>5.750000</speed>
</trkpt>
<trkpt lat="55.739639" lon="26.285118">
<ele>139.509888</ele>
<time>2010-07-17T09:47:14Z</time>
<desc>lat.=55.739639, lon.=26.285118, Alt.=139.509888m. Speed=18.648001m/h.</desc>
<speed>5.180000</speed>
</trkpt>
<trkpt lat="55.739624" lon="26.285036">
<ele>139.509888</ele>
<time>2010-07-17T09:47:15Z</time>
<desc>lat.=55.739624, lon.=26.285036, Alt.=139.509888m. Speed=19.584000m/h.</desc>
<speed>5.440000</speed>
</trkpt>
<trkpt lat="55.739609" lon="26.284950">
<ele>139.798950</ele>
<time>2010-07-17T09:47:16Z</time>
<desc>lat.=55.739609, lon.=26.284950, Alt.=139.798950m. Speed=19.476000m/h.</desc>
<speed>5.410000</speed>
</trkpt>
<trkpt lat="55.739586" lon="26.284878">
<ele>139.966919</ele>
<time>2010-07-17T09:47:17Z</time>
<desc>lat.=55.739586, lon.=26.284878, Alt.=139.966919m. Speed=19.296000m/h.</desc>
<speed>5.360000</speed>
</trkpt>
<trkpt lat="55.739567" lon="26.284794">
<ele>139.994263</ele>
<time>2010-07-17T09:47:18Z</time>
<desc>lat.=55.739567, lon.=26.284794, Alt.=139.994263m. Speed=20.375999m/h.</desc>
<speed>5.660000</speed>
</trkpt>
<trkpt lat="55.739544" lon="26.284714">
<ele>140.552856</ele>
<time>2010-07-17T09:47:19Z</time>
<desc>lat.=55.739544, lon.=26.284714, Alt.=140.552856m. Speed=19.188000m/h.</desc>
<speed>5.330000</speed>
</trkpt>
<trkpt lat="55.739529" lon="26.284643">
<ele>141.033325</ele>
<time>2010-07-17T09:47:20Z</time>
<desc>lat.=55.739529, lon.=26.284643, Alt.=141.033325m. Speed=18.684000m/h.</desc>
<speed>5.190000</speed>
</trkpt>
<trkpt lat="55.739506" lon="26.284569">
<ele>141.720825</ele>
<time>2010-07-17T09:47:21Z</time>
<desc>lat.=55.739506, lon.=26.284569, Alt.=141.720825m. Speed=18.468000m/h.</desc>
<speed>5.130000</speed>
</trkpt>
<trkpt lat="55.739483" lon="26.284489">
<ele>142.314575</ele>
<time>2010-07-17T09:47:22Z</time>
<desc>lat.=55.739483, lon.=26.284489, Alt.=142.314575m. Speed=19.080000m/h.</desc>
<speed>5.300000</speed>
</trkpt>
<trkpt lat="55.739468" lon="26.284410">
<ele>142.744263</ele>
<time>2010-07-17T09:47:23Z</time>
<desc>lat.=55.739468, lon.=26.284410, Alt.=142.744263m. Speed=19.115999m/h.</desc>
<speed>5.310000</speed>
</trkpt>
<trkpt lat="55.739449" lon="26.284325">
<ele>143.326294</ele>
<time>2010-07-17T09:47:24Z</time>
<desc>lat.=55.739449, lon.=26.284325, Alt.=143.326294m. Speed=20.016001m/h.</desc>
<speed>5.560000</speed>
</trkpt>
<trkpt lat="55.739433" lon="26.284235">
<ele>143.720825</ele>
<time>2010-07-17T09:47:25Z</time>
<desc>lat.=55.739433, lon.=26.284235, Alt.=143.720825m. Speed=20.844000m/h.</desc>
<speed>5.790000</speed>
</trkpt>
<trkpt lat="55.739414" lon="26.284130">
<ele>143.748169</ele>
<time>2010-07-17T09:47:26Z</time>
<desc>lat.=55.739414, lon.=26.284130, Alt.=143.748169m. Speed=23.327999m/h.</desc>
<speed>6.480000</speed>
</trkpt>
<trkpt lat="55.739395" lon="26.284031">
<ele>144.045044</ele>
<time>2010-07-17T09:47:27Z</time>
<desc>lat.=55.739395, lon.=26.284031, Alt.=144.045044m. Speed=22.643999m/h.</desc>
<speed>6.290000</speed>
</trkpt>
<trkpt lat="55.739376" lon="26.283932">
<ele>144.767700</ele>
<time>2010-07-17T09:47:28Z</time>
<desc>lat.=55.739376, lon.=26.283932, Alt.=144.767700m. Speed=22.823999m/h.</desc>
<speed>6.340000</speed>
</trkpt>
<trkpt lat="55.739353" lon="26.283833">
<ele>146.505981</ele>
<time>2010-07-17T09:47:29Z</time>
<desc>lat.=55.739353, lon.=26.283833, Alt.=146.505981m. Speed=22.104000m/h.</desc>
<speed>6.140000</speed>
</trkpt>
<trkpt lat="55.739330" lon="26.283737">
<ele>146.841919</ele>
<time>2010-07-17T09:47:30Z</time>
<desc>lat.=55.739330, lon.=26.283737, Alt.=146.841919m. Speed=23.400000m/h.</desc>
<speed>6.500000</speed>
</trkpt>
<trkpt lat="55.739307" lon="26.283632">
<ele>147.162231</ele>
<time>2010-07-17T09:47:31Z</time>
<desc>lat.=55.739307, lon.=26.283632, Alt.=147.162231m. Speed=25.848000m/h.</desc>
<speed>7.180000</speed>
</trkpt>
<trkpt lat="55.739281" lon="26.283527">
<ele>148.259888</ele>
<time>2010-07-17T09:47:32Z</time>
<desc>lat.=55.739281, lon.=26.283527, Alt.=148.259888m. Speed=26.172001m/h.</desc>
<speed>7.270000</speed>
</trkpt>
<trkpt lat="55.739254" lon="26.283403">
<ele>149.298950</ele>
<time>2010-07-17T09:47:33Z</time>
<desc>lat.=55.739254, lon.=26.283403, Alt.=149.298950m. Speed=29.664000m/h.</desc>
<speed>8.240000</speed>
</trkpt>
<trkpt lat="55.739231" lon="26.283270">
<ele>150.427856</ele>
<time>2010-07-17T09:47:34Z</time>
<desc>lat.=55.739231, lon.=26.283270, Alt.=150.427856m. Speed=29.556000m/h.</desc>
<speed>8.210000</speed>
</trkpt>
<trkpt lat="55.739208" lon="26.283133">
<ele>150.865356</ele>
<time>2010-07-17T09:47:35Z</time>
<desc>lat.=55.739208, lon.=26.283133, Alt.=150.865356m. Speed=31.392000m/h.</desc>
<speed>8.720000</speed>
</trkpt>
<trkpt lat="55.739185" lon="26.282997">
<ele>150.896606</ele>
<time>2010-07-17T09:47:36Z</time>
<desc>lat.=55.739185, lon.=26.282997, Alt.=150.896606m. Speed=29.232000m/h.</desc>
<speed>8.120000</speed>
</trkpt>
<trkpt lat="55.739159" lon="26.282856">
<ele>151.373169</ele>
<time>2010-07-17T09:47:37Z</time>
<desc>lat.=55.739159, lon.=26.282856, Alt.=151.373169m. Speed=27.936001m/h.</desc>
<speed>7.760000</speed>
</trkpt>
<trkpt lat="55.739128" lon="26.282740">
<ele>151.236450</ele>
<time>2010-07-17T09:47:38Z</time>
<desc>lat.=55.739128, lon.=26.282740, Alt.=151.236450m. Speed=27.180000m/h.</desc>
<speed>7.550000</speed>
</trkpt>
<trkpt lat="55.739105" lon="26.282635">
<ele>151.166138</ele>
<time>2010-07-17T09:47:39Z</time>
<desc>lat.=55.739105, lon.=26.282635, Alt.=151.166138m. Speed=26.496000m/h.</desc>
<speed>7.360000</speed>
</trkpt>
<trkpt lat="55.739071" lon="26.282516">
<ele>151.017700</ele>
<time>2010-07-17T09:47:40Z</time>
<desc>lat.=55.739071, lon.=26.282516, Alt.=151.017700m. Speed=26.388000m/h.</desc>
<speed>7.330000</speed>
</trkpt>
<trkpt lat="55.739044" lon="26.282387">
<ele>150.521606</ele>
<time>2010-07-17T09:47:41Z</time>
<desc>lat.=55.739044, lon.=26.282387, Alt.=150.521606m. Speed=26.208000m/h.</desc>
<speed>7.280000</speed>
</trkpt>
<trkpt lat="55.739029" lon="26.282270">
<ele>150.420044</ele>
<time>2010-07-17T09:47:42Z</time>
<desc>lat.=55.739029, lon.=26.282270, Alt.=150.420044m. Speed=24.912001m/h.</desc>
<speed>6.920000</speed>
</trkpt>
<trkpt lat="55.739010" lon="26.282152">
<ele>150.173950</ele>
<time>2010-07-17T09:47:43Z</time>
<desc>lat.=55.739010, lon.=26.282152, Alt.=150.173950m. Speed=25.920000m/h.</desc>
<speed>7.200000</speed>
</trkpt>
<trkpt lat="55.738995" lon="26.282026">
<ele>149.775513</ele>
<time>2010-07-17T09:47:44Z</time>
<desc>lat.=55.738995, lon.=26.282026, Alt.=149.775513m. Speed=25.091999m/h.</desc>
<speed>6.970000</speed>
</trkpt>
<trkpt lat="55.738983" lon="26.281919">
<ele>149.611450</ele>
<time>2010-07-17T09:47:45Z</time>
<desc>lat.=55.738983, lon.=26.281919, Alt.=149.611450m. Speed=24.048000m/h.</desc>
<speed>6.680000</speed>
</trkpt>
<trkpt lat="55.738968" lon="26.281820">
<ele>149.830200</ele>
<time>2010-07-17T09:47:46Z</time>
<desc>lat.=55.738968, lon.=26.281820, Alt.=149.830200m. Speed=22.643999m/h.</desc>
<speed>6.290000</speed>
</trkpt>
<trkpt lat="55.738949" lon="26.281721">
<ele>149.865356</ele>
<time>2010-07-17T09:47:47Z</time>
<desc>lat.=55.738949, lon.=26.281721, Alt.=149.865356m. Speed=21.888000m/h.</desc>
<speed>6.080000</speed>
</trkpt>
<trkpt lat="55.738930" lon="26.281626">
<ele>149.908325</ele>
<time>2010-07-17T09:47:48Z</time>
<desc>lat.=55.738930, lon.=26.281626, Alt.=149.908325m. Speed=20.448000m/h.</desc>
<speed>5.680000</speed>
</trkpt>
<trkpt lat="55.738918" lon="26.281540">
<ele>150.103638</ele>
<time>2010-07-17T09:47:49Z</time>
<desc>lat.=55.738918, lon.=26.281540, Alt.=150.103638m. Speed=18.072001m/h.</desc>
<speed>5.020000</speed>
</trkpt>
<trkpt lat="55.738911" lon="26.281458">
<ele>149.943481</ele>
<time>2010-07-17T09:47:50Z</time>
<desc>lat.=55.738911, lon.=26.281458, Alt.=149.943481m. Speed=16.884001m/h.</desc>
<speed>4.690000</speed>
</trkpt>
<trkpt lat="55.738899" lon="26.281389">
<ele>150.181763</ele>
<time>2010-07-17T09:47:51Z</time>
<desc>lat.=55.738899, lon.=26.281389, Alt.=150.181763m. Speed=15.336000m/h.</desc>
<speed>4.260000</speed>
</trkpt>
<trkpt lat="55.738888" lon="26.281322">
<ele>151.107544</ele>
<time>2010-07-17T09:47:52Z</time>
<desc>lat.=55.738888, lon.=26.281322, Alt.=151.107544m. Speed=14.868000m/h.</desc>
<speed>4.130000</speed>
</trkpt>
<trkpt lat="55.738873" lon="26.281250">
<ele>151.443481</ele>
<time>2010-07-17T09:47:53Z</time>
<desc>lat.=55.738873, lon.=26.281250, Alt.=151.443481m. Speed=14.436000m/h.</desc>
<speed>4.010000</speed>
</trkpt>
<trkpt lat="55.738857" lon="26.281191">
<ele>151.681763</ele>
<time>2010-07-17T09:47:54Z</time>
<desc>lat.=55.738857, lon.=26.281191, Alt.=151.681763m. Speed=13.500000m/h.</desc>
<speed>3.750000</speed>
</trkpt>
<trkpt lat="55.738846" lon="26.281126">
<ele>152.759888</ele>
<time>2010-07-17T09:47:55Z</time>
<desc>lat.=55.738846, lon.=26.281126, Alt.=152.759888m. Speed=13.500000m/h.</desc>
<speed>3.750000</speed>
</trkpt>
<trkpt lat="55.738838" lon="26.281063">
<ele>153.306763</ele>
<time>2010-07-17T09:47:56Z</time>
<desc>lat.=55.738838, lon.=26.281063, Alt.=153.306763m. Speed=13.500000m/h.</desc>
<speed>3.750000</speed>
</trkpt>
<trkpt lat="55.738831" lon="26.280994">
<ele>154.361450</ele>
<time>2010-07-17T09:47:57Z</time>
<desc>lat.=55.738831, lon.=26.280994, Alt.=154.361450m. Speed=14.256000m/h.</desc>
<speed>3.960000</speed>
</trkpt>
<trkpt lat="55.738815" lon="26.280920">
<ele>154.548950</ele>
<time>2010-07-17T09:47:58Z</time>
<desc>lat.=55.738815, lon.=26.280920, Alt.=154.548950m. Speed=15.840000m/h.</desc>
<speed>4.400000</speed>
</trkpt>
<trkpt lat="55.738804" lon="26.280840">
<ele>154.525513</ele>
<time>2010-07-17T09:47:59Z</time>
<desc>lat.=55.738804, lon.=26.280840, Alt.=154.525513m. Speed=14.472000m/h.</desc>
<speed>4.020000</speed>
</trkpt>
<trkpt lat="55.738800" lon="26.280775">
<ele>154.959106</ele>
<time>2010-07-17T09:48:00Z</time>
<desc>lat.=55.738800, lon.=26.280775, Alt.=154.959106m. Speed=12.492000m/h.</desc>
<speed>3.470000</speed>
</trkpt>
<trkpt lat="55.738792" lon="26.280708">
<ele>154.525513</ele>
<time>2010-07-17T09:48:01Z</time>
<desc>lat.=55.738792, lon.=26.280708, Alt.=154.525513m. Speed=13.248000m/h.</desc>
<speed>3.680000</speed>
</trkpt>
<trkpt lat="55.738781" lon="26.280645">
<ele>154.818481</ele>
<time>2010-07-17T09:48:02Z</time>
<desc>lat.=55.738781, lon.=26.280645, Alt.=154.818481m. Speed=13.860000m/h.</desc>
<speed>3.850000</speed>
</trkpt>
<trkpt lat="55.738766" lon="26.280573">
<ele>156.009888</ele>
<time>2010-07-17T09:48:03Z</time>
<desc>lat.=55.738766, lon.=26.280573, Alt.=156.009888m. Speed=14.004000m/h.</desc>
<speed>3.890000</speed>
</trkpt>
<trkpt lat="55.738747" lon="26.280514">
<ele>156.338013</ele>
<time>2010-07-17T09:48:04Z</time>
<desc>lat.=55.738747, lon.=26.280514, Alt.=156.338013m. Speed=12.852000m/h.</desc>
<speed>3.570000</speed>
</trkpt>
<trkpt lat="55.738731" lon="26.280428">
<ele>154.880981</ele>
<time>2010-07-17T09:48:05Z</time>
<desc>lat.=55.738731, lon.=26.280428, Alt.=154.880981m. Speed=15.156000m/h.</desc>
<speed>4.210000</speed>
</trkpt>
<trkpt lat="55.738716" lon="26.280334">
<ele>153.306763</ele>
<time>2010-07-17T09:48:06Z</time>
<desc>lat.=55.738716, lon.=26.280334, Alt.=153.306763m. Speed=15.408000m/h.</desc>
<speed>4.280000</speed>
</trkpt>
<trkpt lat="55.738701" lon="26.280256">
<ele>152.853638</ele>
<time>2010-07-17T09:48:07Z</time>
<desc>lat.=55.738701, lon.=26.280256, Alt.=152.853638m. Speed=14.364000m/h.</desc>
<speed>3.990000</speed>
</trkpt>
<trkpt lat="55.738697" lon="26.280178">
<ele>152.306763</ele>
<time>2010-07-17T09:48:08Z</time>
<desc>lat.=55.738697, lon.=26.280178, Alt.=152.306763m. Speed=14.364000m/h.</desc>
<speed>3.990000</speed>
</trkpt>
<trkpt lat="55.738678" lon="26.280102">
<ele>151.255981</ele>
<time>2010-07-17T09:48:09Z</time>
<desc>lat.=55.738678, lon.=26.280102, Alt.=151.255981m. Speed=15.012000m/h.</desc>
<speed>4.170000</speed>
</trkpt>
<trkpt lat="55.738663" lon="26.280029">
<ele>149.927856</ele>
<time>2010-07-17T09:48:10Z</time>
<desc>lat.=55.738663, lon.=26.280029, Alt.=149.927856m. Speed=14.976000m/h.</desc>
<speed>4.160000</speed>
</trkpt>
<trkpt lat="55.738647" lon="26.279957">
<ele>149.400513</ele>
<time>2010-07-17T09:48:11Z</time>
<desc>lat.=55.738647, lon.=26.279957, Alt.=149.400513m. Speed=14.904000m/h.</desc>
<speed>4.140000</speed>
</trkpt>
<trkpt lat="55.738625" lon="26.279884">
<ele>149.084106</ele>
<time>2010-07-17T09:48:12Z</time>
<desc>lat.=55.738625, lon.=26.279884, Alt.=149.084106m. Speed=15.156000m/h.</desc>
<speed>4.210000</speed>
</trkpt>
<trkpt lat="55.738609" lon="26.279816">
<ele>147.927856</ele>
<time>2010-07-17T09:48:13Z</time>
<desc>lat.=55.738609, lon.=26.279816, Alt.=147.927856m. Speed=14.976000m/h.</desc>
<speed>4.160000</speed>
</trkpt>
<trkpt lat="55.738594" lon="26.279755">
<ele>147.232544</ele>
<time>2010-07-17T09:48:14Z</time>
<desc>lat.=55.738594, lon.=26.279755, Alt.=147.232544m. Speed=15.444000m/h.</desc>
<speed>4.290000</speed>
</trkpt>
<trkpt lat="55.738583" lon="26.279690">
<ele>146.670044</ele>
<time>2010-07-17T09:48:15Z</time>
<desc>lat.=55.738583, lon.=26.279690, Alt.=146.670044m. Speed=15.372000m/h.</desc>
<speed>4.270000</speed>
</trkpt>
<trkpt lat="55.738567" lon="26.279615">
<ele>146.865356</ele>
<time>2010-07-17T09:48:16Z</time>
<desc>lat.=55.738567, lon.=26.279615, Alt.=146.865356m. Speed=15.948000m/h.</desc>
<speed>4.430000</speed>
</trkpt>
<trkpt lat="55.738552" lon="26.279545">
<ele>147.349731</ele>
<time>2010-07-17T09:48:17Z</time>
<desc>lat.=55.738552, lon.=26.279545, Alt.=147.349731m. Speed=16.704000m/h.</desc>
<speed>4.640000</speed>
</trkpt>
<trkpt lat="55.738533" lon="26.279472">
<ele>147.947388</ele>
<time>2010-07-17T09:48:18Z</time>
<desc>lat.=55.738533, lon.=26.279472, Alt.=147.947388m. Speed=16.848000m/h.</desc>
<speed>4.680000</speed>
</trkpt>
<trkpt lat="55.738518" lon="26.279406">
<ele>148.474731</ele>
<time>2010-07-17T09:48:19Z</time>
<desc>lat.=55.738518, lon.=26.279406, Alt.=148.474731m. Speed=15.696000m/h.</desc>
<speed>4.360000</speed>
</trkpt>
<trkpt lat="55.738503" lon="26.279333">
<ele>147.713013</ele>
<time>2010-07-17T09:48:20Z</time>
<desc>lat.=55.738503, lon.=26.279333, Alt.=147.713013m. Speed=16.667999m/h.</desc>
<speed>4.630000</speed>
</trkpt>
<trkpt lat="55.738480" lon="26.279266">
<ele>147.806763</ele>
<time>2010-07-17T09:48:21Z</time>
<desc>lat.=55.738480, lon.=26.279266, Alt.=147.806763m. Speed=16.488001m/h.</desc>
<speed>4.580000</speed>
</trkpt>
<trkpt lat="55.738464" lon="26.279200">
<ele>149.880981</ele>
<time>2010-07-17T09:48:22Z</time>
<desc>lat.=55.738464, lon.=26.279200, Alt.=149.880981m. Speed=15.984000m/h.</desc>
<speed>4.440000</speed>
</trkpt>
<trkpt lat="55.738453" lon="26.279139">
<ele>149.541138</ele>
<time>2010-07-17T09:48:23Z</time>
<desc>lat.=55.738453, lon.=26.279139, Alt.=149.541138m. Speed=14.508000m/h.</desc>
<speed>4.030000</speed>
</trkpt>
<trkpt lat="55.738441" lon="26.279076">
<ele>149.275513</ele>
<time>2010-07-17T09:48:24Z</time>
<desc>lat.=55.738441, lon.=26.279076, Alt.=149.275513m. Speed=13.320000m/h.</desc>
<speed>3.700000</speed>
</trkpt>
<trkpt lat="55.738438" lon="26.279030">
<ele>149.048950</ele>
<time>2010-07-17T09:48:25Z</time>
<desc>lat.=55.738438, lon.=26.279030, Alt.=149.048950m. Speed=10.116000m/h.</desc>
<speed>2.810000</speed>
</trkpt>
<trkpt lat="55.738434" lon="26.278978">
<ele>148.642700</ele>
<time>2010-07-17T09:48:26Z</time>
<desc>lat.=55.738434, lon.=26.278978, Alt.=148.642700m. Speed=9.072000m/h.</desc>
<speed>2.520000</speed>
</trkpt>
<trkpt lat="55.738430" lon="26.278938">
<ele>148.420044</ele>
<time>2010-07-17T09:48:27Z</time>
<desc>lat.=55.738430, lon.=26.278938, Alt.=148.420044m. Speed=8.568000m/h.</desc>
<speed>2.380000</speed>
</trkpt>
<trkpt lat="55.738422" lon="26.278910">
<ele>148.002075</ele>
<time>2010-07-17T09:48:28Z</time>
<desc>lat.=55.738422, lon.=26.278910, Alt.=148.002075m. Speed=5.472000m/h.</desc>
<speed>1.520000</speed>
</trkpt>
<trkpt lat="55.738415" lon="26.278894">
<ele>148.459106</ele>
<time>2010-07-17T09:48:29Z</time>
<desc>lat.=55.738415, lon.=26.278894, Alt.=148.459106m. Speed=3.132000m/h.</desc>
<speed>0.870000</speed>
</trkpt>
<trkpt lat="55.738411" lon="26.278883">
<ele>149.716919</ele>
<time>2010-07-17T09:48:30Z</time>
<desc>lat.=55.738411, lon.=26.278883, Alt.=149.716919m. Speed=0.756000m/h.</desc>
<speed>0.210000</speed>
</trkpt>
<trkpt lat="55.738419" lon="26.278885">
<ele>149.209106</ele>
<time>2010-07-17T09:48:31Z</time>
<desc>lat.=55.738419, lon.=26.278885, Alt.=149.209106m. Speed=0.288000m/h.</desc>
<speed>0.080000</speed>
</trkpt>
<trkpt lat="55.738415" lon="26.278883">
<ele>148.990356</ele>
<time>2010-07-17T09:48:32Z</time>
<desc>lat.=55.738415, lon.=26.278883, Alt.=148.990356m. Speed=0.108000m/h.</desc>
<speed>0.030000</speed>
</trkpt>
<trkpt lat="55.738415" lon="26.278883">
<ele>149.052856</ele>
<time>2010-07-17T09:48:33Z</time>
<desc>lat.=55.738415, lon.=26.278883, Alt.=149.052856m. Speed=0.036000m/h.</desc>
<speed>0.010000</speed>
</trkpt>
<trkpt lat="55.738415" lon="26.278881">
<ele>149.107544</ele>
<time>2010-07-17T09:48:34Z</time>
<desc>lat.=55.738415, lon.=26.278881, Alt.=149.107544m. Speed=0.180000m/h.</desc>
<speed>0.050000</speed>
</trkpt>
<trkpt lat="55.738415" lon="26.278883">
<ele>149.154419</ele>
<time>2010-07-17T09:48:35Z</time>
<desc>lat.=55.738415, lon.=26.278883, Alt.=149.154419m. Speed=0.324000m/h.</desc>
<speed>0.090000</speed>
</trkpt>
<trkpt lat="55.738419" lon="26.278883">
<ele>149.213013</ele>
<time>2010-07-17T09:48:36Z</time>
<desc>lat.=55.738419, lon.=26.278883, Alt.=149.213013m. Speed=0.684000m/h.</desc>
<speed>0.190000</speed>
</trkpt>
<trkpt lat="55.738419" lon="26.278883">
<ele>149.267700</ele>
<time>2010-07-17T09:48:37Z</time>
<desc>lat.=55.738419, lon.=26.278883, Alt.=149.267700m. Speed=0.936000m/h.</desc>
<speed>0.260000</speed>
</trkpt>
<trkpt lat="55.738422" lon="26.278885">
<ele>149.322388</ele>
<time>2010-07-17T09:48:38Z</time>
<desc>lat.=55.738422, lon.=26.278885, Alt.=149.322388m. Speed=0.360000m/h.</desc>
<speed>0.100000</speed>
</trkpt>
<trkpt lat="55.738422" lon="26.278885">
<ele>149.365356</ele>
<time>2010-07-17T09:48:39Z</time>
<desc>lat.=55.738422, lon.=26.278885, Alt.=149.365356m. Speed=0.468000m/h.</desc>
<speed>0.130000</speed>
</trkpt>
<trkpt lat="55.738422" lon="26.278885">
<ele>149.420044</ele>
<time>2010-07-17T09:48:40Z</time>
<desc>lat.=55.738422, lon.=26.278885, Alt.=149.420044m. Speed=0.504000m/h.</desc>
<speed>0.140000</speed>
</trkpt>
<trkpt lat="55.738426" lon="26.278885">
<ele>149.486450</ele>
<time>2010-07-17T09:48:41Z</time>
<desc>lat.=55.738426, lon.=26.278885, Alt.=149.486450m. Speed=0.252000m/h.</desc>
<speed>0.070000</speed>
</trkpt>
<trkpt lat="55.738426" lon="26.278883">
<ele>149.548950</ele>
<time>2010-07-17T09:48:42Z</time>
<desc>lat.=55.738426, lon.=26.278883, Alt.=149.548950m. Speed=0.288000m/h.</desc>
<speed>0.080000</speed>
</trkpt>
<trkpt lat="55.738426" lon="26.278881">
<ele>149.599731</ele>
<time>2010-07-17T09:48:43Z</time>
<desc>lat.=55.738426, lon.=26.278881, Alt.=149.599731m. Speed=0.432000m/h.</desc>
<speed>0.120000</speed>
</trkpt>
<trkpt lat="55.738422" lon="26.278881">
<ele>149.627075</ele>
<time>2010-07-17T09:48:44Z</time>
<desc>lat.=55.738422, lon.=26.278881, Alt.=149.627075m. Speed=0.324000m/h.</desc>
<speed>0.090000</speed>
</trkpt>
<trkpt lat="55.738426" lon="26.278881">
<ele>149.646606</ele>
<time>2010-07-17T09:48:45Z</time>
<desc>lat.=55.738426, lon.=26.278881, Alt.=149.646606m. Speed=0.864000m/h.</desc>
<speed>0.240000</speed>
</trkpt>
<trkpt lat="55.738426" lon="26.278879">
<ele>149.666138</ele>
<time>2010-07-17T09:48:46Z</time>
<desc>lat.=55.738426, lon.=26.278879, Alt.=149.666138m. Speed=0.540000m/h.</desc>
<speed>0.150000</speed>
</trkpt>
<trkpt lat="55.738426" lon="26.278877">
<ele>149.681763</ele>
<time>2010-07-17T09:48:47Z</time>
<desc>lat.=55.738426, lon.=26.278877, Alt.=149.681763m. Speed=0.216000m/h.</desc>
<speed>0.060000</speed>
</trkpt>
<trkpt lat="55.738430" lon="26.278877">
<ele>149.705200</ele>
<time>2010-07-17T09:48:48Z</time>
<desc>lat.=55.738430, lon.=26.278877, Alt.=149.705200m. Speed=0.648000m/h.</desc>
<speed>0.180000</speed>
</trkpt>
<trkpt lat="55.738430" lon="26.278877">
<ele>149.736450</ele>
<time>2010-07-17T09:48:49Z</time>
<desc>lat.=55.738430, lon.=26.278877, Alt.=149.736450m. Speed=0.432000m/h.</desc>
<speed>0.120000</speed>
</trkpt>
<trkpt lat="55.738430" lon="26.278877">
<ele>149.767700</ele>
<time>2010-07-17T09:48:50Z</time>
<desc>lat.=55.738430, lon.=26.278877, Alt.=149.767700m. Speed=0.396000m/h.</desc>
<speed>0.110000</speed>
</trkpt>
<trkpt lat="55.738434" lon="26.278879">
<ele>149.787231</ele>
<time>2010-07-17T09:48:51Z</time>
<desc>lat.=55.738434, lon.=26.278879, Alt.=149.787231m. Speed=0.432000m/h.</desc>
<speed>0.120000</speed>
</trkpt>
<trkpt lat="55.738434" lon="26.278879">
<ele>149.802856</ele>
<time>2010-07-17T09:48:52Z</time>
<desc>lat.=55.738434, lon.=26.278879, Alt.=149.802856m. Speed=0.612000m/h.</desc>
<speed>0.170000</speed>
</trkpt>
<trkpt lat="55.738434" lon="26.278879">
<ele>149.814575</ele>
<time>2010-07-17T09:48:53Z</time>
<desc>lat.=55.738434, lon.=26.278879, Alt.=149.814575m. Speed=0.144000m/h.</desc>
<speed>0.040000</speed>
</trkpt>
<trkpt lat="55.738434" lon="26.278881">
<ele>149.834106</ele>
<time>2010-07-17T09:48:54Z</time>
<desc>lat.=55.738434, lon.=26.278881, Alt.=149.834106m. Speed=0.288000m/h.</desc>
<speed>0.080000</speed>
</trkpt>
<trkpt lat="55.738434" lon="26.278879">
<ele>149.857544</ele>
<time>2010-07-17T09:48:55Z</time>
<desc>lat.=55.738434, lon.=26.278879, Alt.=149.857544m. Speed=0.252000m/h.</desc>
<speed>0.070000</speed>
</trkpt>
<trkpt lat="55.738434" lon="26.278881">
<ele>149.865356</ele>
<time>2010-07-17T09:48:56Z</time>
<desc>lat.=55.738434, lon.=26.278881, Alt.=149.865356m. Speed=0.288000m/h.</desc>
<speed>0.080000</speed>
</trkpt>
<trkpt lat="55.738434" lon="26.278879">
<ele>149.865356</ele>
<time>2010-07-17T09:48:57Z</time>
<desc>lat.=55.738434, lon.=26.278879, Alt.=149.865356m. Speed=0.144000m/h.</desc>
<speed>0.040000</speed>
</trkpt>
<trkpt lat="55.738434" lon="26.278879">
<ele>149.861450</ele>
<time>2010-07-17T09:48:58Z</time>
<desc>lat.=55.738434, lon.=26.278879, Alt.=149.861450m. Speed=0.180000m/h.</desc>
<speed>0.050000</speed>
</trkpt>
<trkpt lat="55.738434" lon="26.278879">
<ele>149.849731</ele>
<time>2010-07-17T09:48:59Z</time>
<desc>lat.=55.738434, lon.=26.278879, Alt.=149.849731m. Speed=0.180000m/h.</desc>
<speed>0.050000</speed>
</trkpt>
<trkpt lat="55.738438" lon="26.278879">
<ele>149.849731</ele>
<time>2010-07-17T09:49:00Z</time>
<desc>lat.=55.738438, lon.=26.278879, Alt.=149.849731m. Speed=0.360000m/h.</desc>
<speed>0.100000</speed>
</trkpt>
<trkpt lat="55.738438" lon="26.278879">
<ele>149.845825</ele>
<time>2010-07-17T09:49:01Z</time>
<desc>lat.=55.738438, lon.=26.278879, Alt.=149.845825m. Speed=0.432000m/h.</desc>
<speed>0.120000</speed>
</trkpt>
<trkpt lat="55.738438" lon="26.278881">
<ele>149.845825</ele>
<time>2010-07-17T09:49:02Z</time>
<desc>lat.=55.738438, lon.=26.278881, Alt.=149.845825m. Speed=0.792000m/h.</desc>
<speed>0.220000</speed>
</trkpt>
<trkpt lat="55.738441" lon="26.278883">
<ele>149.841919</ele>
<time>2010-07-17T09:49:03Z</time>
<desc>lat.=55.738441, lon.=26.278883, Alt.=149.841919m. Speed=1.008000m/h.</desc>
<speed>0.280000</speed>
</trkpt>
<trkpt lat="55.738441" lon="26.278885">
<ele>149.841919</ele>
<time>2010-07-17T09:49:04Z</time>
<desc>lat.=55.738441, lon.=26.278885, Alt.=149.841919m. Speed=0.972000m/h.</desc>
<speed>0.270000</speed>
</trkpt>
<trkpt lat="55.738445" lon="26.278887">
<ele>149.838013</ele>
<time>2010-07-17T09:49:05Z</time>
<desc>lat.=55.738445, lon.=26.278887, Alt.=149.838013m. Speed=1.044000m/h.</desc>
<speed>0.290000</speed>
</trkpt>
<trkpt lat="55.738449" lon="26.278887">
<ele>149.830200</ele>
<time>2010-07-17T09:49:06Z</time>
<desc>lat.=55.738449, lon.=26.278887, Alt.=149.830200m. Speed=0.648000m/h.</desc>
<speed>0.180000</speed>
</trkpt>
<trkpt lat="55.738449" lon="26.278887">
<ele>149.834106</ele>
<time>2010-07-17T09:49:07Z</time>
<desc>lat.=55.738449, lon.=26.278887, Alt.=149.834106m. Speed=0.576000m/h.</desc>
<speed>0.160000</speed>
</trkpt>
<trkpt lat="55.738449" lon="26.278889">
<ele>149.841919</ele>
<time>2010-07-17T09:49:08Z</time>
<desc>lat.=55.738449, lon.=26.278889, Alt.=149.841919m. Speed=0.432000m/h.</desc>
<speed>0.120000</speed>
</trkpt>
<trkpt lat="55.738453" lon="26.278889">
<ele>149.845825</ele>
<time>2010-07-17T09:49:09Z</time>
<desc>lat.=55.738453, lon.=26.278889, Alt.=149.845825m. Speed=0.396000m/h.</desc>
<speed>0.110000</speed>
</trkpt>
<trkpt lat="55.738453" lon="26.278891">
<ele>149.841919</ele>
<time>2010-07-17T09:49:10Z</time>
<desc>lat.=55.738453, lon.=26.278891, Alt.=149.841919m. Speed=0.576000m/h.</desc>
<speed>0.160000</speed>
</trkpt>
<trkpt lat="55.738453" lon="26.278893">
<ele>149.838013</ele>
<time>2010-07-17T09:49:11Z</time>
<desc>lat.=55.738453, lon.=26.278893, Alt.=149.838013m. Speed=0.180000m/h.</desc>
<speed>0.050000</speed>
</trkpt>
<trkpt lat="55.738453" lon="26.278893">
<ele>149.826294</ele>
<time>2010-07-17T09:49:12Z</time>
<desc>lat.=55.738453, lon.=26.278893, Alt.=149.826294m. Speed=0.216000m/h.</desc>
<speed>0.060000</speed>
</trkpt>
<trkpt lat="55.738453" lon="26.278893">
<ele>149.814575</ele>
<time>2010-07-17T09:49:13Z</time>
<desc>lat.=55.738453, lon.=26.278893, Alt.=149.814575m. Speed=0.360000m/h.</desc>
<speed>0.100000</speed>
</trkpt>
<trkpt lat="55.738453" lon="26.278893">
<ele>149.802856</ele>
<time>2010-07-17T09:49:14Z</time>
<desc>lat.=55.738453, lon.=26.278893, Alt.=149.802856m. Speed=0.252000m/h.</desc>
<speed>0.070000</speed>
</trkpt>
<trkpt lat="55.738457" lon="26.278891">
<ele>149.791138</ele>
<time>2010-07-17T09:49:15Z</time>
<desc>lat.=55.738457, lon.=26.278891, Alt.=149.791138m. Speed=0.108000m/h.</desc>
<speed>0.030000</speed>
</trkpt>
<trkpt lat="55.738457" lon="26.278891">
<ele>149.779419</ele>
<time>2010-07-17T09:49:16Z</time>
<desc>lat.=55.738457, lon.=26.278891, Alt.=149.779419m. Speed=0.288000m/h.</desc>
<speed>0.080000</speed>
</trkpt>
<trkpt lat="55.738457" lon="26.278891">
<ele>149.775513</ele>
<time>2010-07-17T09:49:17Z</time>
<desc>lat.=55.738457, lon.=26.278891, Alt.=149.775513m. Speed=0.432000m/h.</desc>
<speed>0.120000</speed>
</trkpt>
<trkpt lat="55.738457" lon="26.278891">
<ele>149.779419</ele>
<time>2010-07-17T09:49:18Z</time>
<desc>lat.=55.738457, lon.=26.278891, Alt.=149.779419m. Speed=0.396000m/h.</desc>
<speed>0.110000</speed>
</trkpt>
<trkpt lat="55.738457" lon="26.278891">
<ele>149.787231</ele>
<time>2010-07-17T09:49:19Z</time>
<desc>lat.=55.738457, lon.=26.278891, Alt.=149.787231m. Speed=0.432000m/h.</desc>
<speed>0.120000</speed>
</trkpt>
<trkpt lat="55.738457" lon="26.278889">
<ele>149.795044</ele>
<time>2010-07-17T09:49:20Z</time>
<desc>lat.=55.738457, lon.=26.278889, Alt.=149.795044m. Speed=0.288000m/h.</desc>
<speed>0.080000</speed>
</trkpt>
<trkpt lat="55.738457" lon="26.278887">
<ele>149.798950</ele>
<time>2010-07-17T09:49:21Z</time>
<desc>lat.=55.738457, lon.=26.278887, Alt.=149.798950m. Speed=0.324000m/h.</desc>
<speed>0.090000</speed>
</trkpt>
<trkpt lat="55.738457" lon="26.278885">
<ele>149.791138</ele>
<time>2010-07-17T09:49:22Z</time>
<desc>lat.=55.738457, lon.=26.278885, Alt.=149.791138m. Speed=0.072000m/h.</desc>
<speed>0.020000</speed>
</trkpt>
<trkpt lat="55.738457" lon="26.278885">
<ele>149.791138</ele>
<time>2010-07-17T09:49:23Z</time>
<desc>lat.=55.738457, lon.=26.278885, Alt.=149.791138m. Speed=0.216000m/h.</desc>
<speed>0.060000</speed>
</trkpt>
<trkpt lat="55.738457" lon="26.278885">
<ele>149.795044</ele>
<time>2010-07-17T09:49:24Z</time>
<desc>lat.=55.738457, lon.=26.278885, Alt.=149.795044m. Speed=0.324000m/h.</desc>
<speed>0.090000</speed>
</trkpt>
<trkpt lat="55.738457" lon="26.278885">
<ele>149.810669</ele>
<time>2010-07-17T09:49:25Z</time>
<desc>lat.=55.738457, lon.=26.278885, Alt.=149.810669m. Speed=0.396000m/h.</desc>
<speed>0.110000</speed>
</trkpt>
<trkpt lat="55.738457" lon="26.278887">
<ele>149.818481</ele>
<time>2010-07-17T09:49:26Z</time>
<desc>lat.=55.738457, lon.=26.278887, Alt.=149.818481m. Speed=0.792000m/h.</desc>
<speed>0.220000</speed>
</trkpt>
<trkpt lat="55.738457" lon="26.278889">
<ele>149.822388</ele>
<time>2010-07-17T09:49:27Z</time>
<desc>lat.=55.738457, lon.=26.278889, Alt.=149.822388m. Speed=0.432000m/h.</desc>
<speed>0.120000</speed>
</trkpt>
<trkpt lat="55.738461" lon="26.278891">
<ele>149.830200</ele>
<time>2010-07-17T09:49:28Z</time>
<desc>lat.=55.738461, lon.=26.278891, Alt.=149.830200m. Speed=0.324000m/h.</desc>
<speed>0.090000</speed>
</trkpt>
<trkpt lat="55.738461" lon="26.278893">
<ele>149.838013</ele>
<time>2010-07-17T09:49:29Z</time>
<desc>lat.=55.738461, lon.=26.278893, Alt.=149.838013m. Speed=0.540000m/h.</desc>
<speed>0.150000</speed>
</trkpt>
<trkpt lat="55.738461" lon="26.278894">
<ele>149.838013</ele>
<time>2010-07-17T09:49:30Z</time>
<desc>lat.=55.738461, lon.=26.278894, Alt.=149.838013m. Speed=0.252000m/h.</desc>
<speed>0.070000</speed>
</trkpt>
<trkpt lat="55.738461" lon="26.278894">
<ele>149.830200</ele>
<time>2010-07-17T09:49:31Z</time>
<desc>lat.=55.738461, lon.=26.278894, Alt.=149.830200m. Speed=0.000000m/h.</desc>
<speed>0.000000</speed>
</trkpt>
<trkpt lat="55.738461" lon="26.278893">
<ele>149.830200</ele>
<time>2010-07-17T09:49:32Z</time>
<desc>lat.=55.738461, lon.=26.278893, Alt.=149.830200m. Speed=0.252000m/h.</desc>
<speed>0.070000</speed>
</trkpt>
<trkpt lat="55.738461" lon="26.278893">
<ele>149.826294</ele>
<time>2010-07-17T09:49:33Z</time>
<desc>lat.=55.738461, lon.=26.278893, Alt.=149.826294m. Speed=0.252000m/h.</desc>
<speed>0.070000</speed>
</trkpt>
<trkpt lat="55.738461" lon="26.278893">
<ele>149.826294</ele>
<time>2010-07-17T09:49:34Z</time>
<desc>lat.=55.738461, lon.=26.278893, Alt.=149.826294m. Speed=0.000000m/h.</desc>
<speed>0.000000</speed>
</trkpt>
<trkpt lat="55.738461" lon="26.278893">
<ele>149.830200</ele>
<time>2010-07-17T09:49:35Z</time>
<desc>lat.=55.738461, lon.=26.278893, Alt.=149.830200m. Speed=0.000000m/h.</desc>
<speed>0.000000</speed>
</trkpt>
<trkpt lat="55.738461" lon="26.278891">
<ele>149.834106</ele>
<time>2010-07-17T09:49:36Z</time>
<desc>lat.=55.738461, lon.=26.278891, Alt.=149.834106m. Speed=0.000000m/h.</desc>
<speed>0.000000</speed>
</trkpt>
<trkpt lat="55.738461" lon="26.278891">
<ele>149.841919</ele>
<time>2010-07-17T09:49:37Z</time>
<desc>lat.=55.738461, lon.=26.278891, Alt.=149.841919m. Speed=0.324000m/h.</desc>
<speed>0.090000</speed>
</trkpt>
<trkpt lat="55.738461" lon="26.278891">
<ele>149.849731</ele>
<time>2010-07-17T09:49:38Z</time>
<desc>lat.=55.738461, lon.=26.278891, Alt.=149.849731m. Speed=0.072000m/h.</desc>
<speed>0.020000</speed>
</trkpt>
<trkpt lat="55.738461" lon="26.278893">
<ele>149.861450</ele>
<time>2010-07-17T09:49:39Z</time>
<desc>lat.=55.738461, lon.=26.278893, Alt.=149.861450m. Speed=0.288000m/h.</desc>
<speed>0.080000</speed>
</trkpt>
<trkpt lat="55.738461" lon="26.278891">
<ele>149.880981</ele>
<time>2010-07-17T09:49:40Z</time>
<desc>lat.=55.738461, lon.=26.278891, Alt.=149.880981m. Speed=0.072000m/h.</desc>
<speed>0.020000</speed>
</trkpt>
<trkpt lat="55.738461" lon="26.278891">
<ele>149.896606</ele>
<time>2010-07-17T09:49:41Z</time>
<desc>lat.=55.738461, lon.=26.278891, Alt.=149.896606m. Speed=0.180000m/h.</desc>
<speed>0.050000</speed>
</trkpt>
<trkpt lat="55.738461" lon="26.278891">
<ele>149.908325</ele>
<time>2010-07-17T09:49:42Z</time>
<desc>lat.=55.738461, lon.=26.278891, Alt.=149.908325m. Speed=0.000000m/h.</desc>
<speed>0.000000</speed>
</trkpt>
<trkpt lat="55.738461" lon="26.278891">
<ele>149.920044</ele>
<time>2010-07-17T09:49:43Z</time>
<desc>lat.=55.738461, lon.=26.278891, Alt.=149.920044m. Speed=0.396000m/h.</desc>
<speed>0.110000</speed>
</trkpt>
<trkpt lat="55.738461" lon="26.278891">
<ele>149.931763</ele>
<time>2010-07-17T09:49:44Z</time>
<desc>lat.=55.738461, lon.=26.278891, Alt.=149.931763m. Speed=0.288000m/h.</desc>
<speed>0.080000</speed>
</trkpt>
<trkpt lat="55.738461" lon="26.278893">
<ele>149.943481</ele>
<time>2010-07-17T09:49:45Z</time>
<desc>lat.=55.738461, lon.=26.278893, Alt.=149.943481m. Speed=0.180000m/h.</desc>
<speed>0.050000</speed>
</trkpt>
<trkpt lat="55.738464" lon="26.278891">
<ele>149.966919</ele>
<time>2010-07-17T09:49:46Z</time>
<desc>lat.=55.738464, lon.=26.278891, Alt.=149.966919m. Speed=0.432000m/h.</desc>
<speed>0.120000</speed>
</trkpt>
<trkpt lat="55.738464" lon="26.278891">
<ele>149.990356</ele>
<time>2010-07-17T09:49:47Z</time>
<desc>lat.=55.738464, lon.=26.278891, Alt.=149.990356m. Speed=0.180000m/h.</desc>
<speed>0.050000</speed>
</trkpt>
<trkpt lat="55.738464" lon="26.278891">
<ele>149.998169</ele>
<time>2010-07-17T09:49:48Z</time>
<desc>lat.=55.738464, lon.=26.278891, Alt.=149.998169m. Speed=0.144000m/h.</desc>
<speed>0.040000</speed>
</trkpt>
<trkpt lat="55.738464" lon="26.278891">
<ele>150.009888</ele>
<time>2010-07-17T09:49:49Z</time>
<desc>lat.=55.738464, lon.=26.278891, Alt.=150.009888m. Speed=0.180000m/h.</desc>
<speed>0.050000</speed>
</trkpt>
<trkpt lat="55.738464" lon="26.278891">
<ele>150.025513</ele>
<time>2010-07-17T09:49:50Z</time>
<desc>lat.=55.738464, lon.=26.278891, Alt.=150.025513m. Speed=0.000000m/h.</desc>
<speed>0.000000</speed>
</trkpt>
<trkpt lat="55.738464" lon="26.278891">
<ele>150.037231</ele>
<time>2010-07-17T09:49:51Z</time>
<desc>lat.=55.738464, lon.=26.278891, Alt.=150.037231m. Speed=0.072000m/h.</desc>
<speed>0.020000</speed>
</trkpt>
<trkpt lat="55.738464" lon="26.278891">
<ele>150.045044</ele>
<time>2010-07-17T09:49:52Z</time>
<desc>lat.=55.738464, lon.=26.278891, Alt.=150.045044m. Speed=0.108000m/h.</desc>
<speed>0.030000</speed>
</trkpt>
<trkpt lat="55.738464" lon="26.278891">
<ele>150.060669</ele>
<time>2010-07-17T09:49:53Z</time>
<desc>lat.=55.738464, lon.=26.278891, Alt.=150.060669m. Speed=0.036000m/h.</desc>
<speed>0.010000</speed>
</trkpt>
<trkpt lat="55.738464" lon="26.278891">
<ele>150.064575</ele>
<time>2010-07-17T09:49:54Z</time>
<desc>lat.=55.738464, lon.=26.278891, Alt.=150.064575m. Speed=0.036000m/h.</desc>
<speed>0.010000</speed>
</trkpt>
<trkpt lat="55.738464" lon="26.278891">
<ele>150.064575</ele>
<time>2010-07-17T09:49:55Z</time>
<desc>lat.=55.738464, lon.=26.278891, Alt.=150.064575m. Speed=0.000000m/h.</desc>
<speed>0.000000</speed>
</trkpt>
<trkpt lat="55.738464" lon="26.278891">
<ele>150.068481</ele>
<time>2010-07-17T09:49:56Z</time>
<desc>lat.=55.738464, lon.=26.278891, Alt.=150.068481m. Speed=0.108000m/h.</desc>
<speed>0.030000</speed>
</trkpt>
<trkpt lat="55.738464" lon="26.278891">
<ele>150.076294</ele>
<time>2010-07-17T09:49:57Z</time>
<desc>lat.=55.738464, lon.=26.278891, Alt.=150.076294m. Speed=0.036000m/h.</desc>
<speed>0.010000</speed>
</trkpt>
<trkpt lat="55.738464" lon="26.278891">
<ele>150.084106</ele>
<time>2010-07-17T09:49:58Z</time>
<desc>lat.=55.738464, lon.=26.278891, Alt.=150.084106m. Speed=0.036000m/h.</desc>
<speed>0.010000</speed>
</trkpt>
<trkpt lat="55.738464" lon="26.278891">
<ele>150.088013</ele>
<time>2010-07-17T09:49:59Z</time>
<desc>lat.=55.738464, lon.=26.278891, Alt.=150.088013m. Speed=0.036000m/h.</desc>
<speed>0.010000</speed>
</trkpt>
<trkpt lat="55.738464" lon="26.278891">
<ele>150.091919</ele>
<time>2010-07-17T09:50:00Z</time>
<desc>lat.=55.738464, lon.=26.278891, Alt.=150.091919m. Speed=0.000000m/h.</desc>
<speed>0.000000</speed>
</trkpt>
<trkpt lat="55.738464" lon="26.278891">
<ele>150.099731</ele>
<time>2010-07-17T09:50:01Z</time>
<desc>lat.=55.738464, lon.=26.278891, Alt.=150.099731m. Speed=0.000000m/h.</desc>
<speed>0.000000</speed>
</trkpt>
<trkpt lat="55.738464" lon="26.278891">
<ele>150.103638</ele>
<time>2010-07-17T09:50:02Z</time>
<desc>lat.=55.738464, lon.=26.278891, Alt.=150.103638m. Speed=0.000000m/h.</desc>
<speed>0.000000</speed>
</trkpt>
<trkpt lat="55.738464" lon="26.278891">
<ele>150.103638</ele>
<time>2010-07-17T09:50:03Z</time>
<desc>lat.=55.738464, lon.=26.278891, Alt.=150.103638m. Speed=0.036000m/h.</desc>
<speed>0.010000</speed>
</trkpt>
<trkpt lat="55.738464" lon="26.278891">
<ele>150.103638</ele>
<time>2010-07-17T09:50:04Z</time>
<desc>lat.=55.738464, lon.=26.278891, Alt.=150.103638m. Speed=0.000000m/h.</desc>
<speed>0.000000</speed>
</trkpt>
<trkpt lat="55.738464" lon="26.278891">
<ele>150.103638</ele>
<time>2010-07-17T09:50:05Z</time>
<desc>lat.=55.738464, lon.=26.278891, Alt.=150.103638m. Speed=0.036000m/h.</desc>
<speed>0.010000</speed>
</trkpt>
<trkpt lat="55.738464" lon="26.278891">
<ele>150.099731</ele>
<time>2010-07-17T09:50:06Z</time>
<desc>lat.=55.738464, lon.=26.278891, Alt.=150.099731m. Speed=0.036000m/h.</desc>
<speed>0.010000</speed>
</trkpt>
<trkpt lat="55.738464" lon="26.278891">
<ele>150.103638</ele>
<time>2010-07-17T09:50:07Z</time>
<desc>lat.=55.738464, lon.=26.278891, Alt.=150.103638m. Speed=0.000000m/h.</desc>
<speed>0.000000</speed>
</trkpt>
<trkpt lat="55.738464" lon="26.278891">
<ele>150.111450</ele>
<time>2010-07-17T09:50:08Z</time>
<desc>lat.=55.738464, lon.=26.278891, Alt.=150.111450m. Speed=0.036000m/h.</desc>
<speed>0.010000</speed>
</trkpt>
<trkpt lat="55.738464" lon="26.278891">
<ele>150.119263</ele>
<time>2010-07-17T09:50:09Z</time>
<desc>lat.=55.738464, lon.=26.278891, Alt.=150.119263m. Speed=0.036000m/h.</desc>
<speed>0.010000</speed>
</trkpt>
<trkpt lat="55.738464" lon="26.278891">
<ele>150.123169</ele>
<time>2010-07-17T09:50:10Z</time>
<desc>lat.=55.738464, lon.=26.278891, Alt.=150.123169m. Speed=0.036000m/h.</desc>
<speed>0.010000</speed>
</trkpt>
<trkpt lat="55.738464" lon="26.278891">
<ele>150.127075</ele>
<time>2010-07-17T09:50:11Z</time>
<desc>lat.=55.738464, lon.=26.278891, Alt.=150.127075m. Speed=0.108000m/h.</desc>
<speed>0.030000</speed>
</trkpt>
<trkpt lat="55.738464" lon="26.278891">
<ele>150.138794</ele>
<time>2010-07-17T09:50:12Z</time>
<desc>lat.=55.738464, lon.=26.278891, Alt.=150.138794m. Speed=0.108000m/h.</desc>
<speed>0.030000</speed>
</trkpt>
<trkpt lat="55.738464" lon="26.278891">
<ele>150.150513</ele>
<time>2010-07-17T09:50:13Z</time>
<desc>lat.=55.738464, lon.=26.278891, Alt.=150.150513m. Speed=0.036000m/h.</desc>
<speed>0.010000</speed>
</trkpt>
<trkpt lat="55.738464" lon="26.278891">
<ele>150.162231</ele>
<time>2010-07-17T09:50:14Z</time>
<desc>lat.=55.738464, lon.=26.278891, Alt.=150.162231m. Speed=0.036000m/h.</desc>
<speed>0.010000</speed>
</trkpt>
<trkpt lat="55.738464" lon="26.278891">
<ele>150.162231</ele>
<time>2010-07-17T09:50:15Z</time>
<desc>lat.=55.738464, lon.=26.278891, Alt.=150.162231m. Speed=0.000000m/h.</desc>
<speed>0.000000</speed>
</trkpt>
<trkpt lat="55.738464" lon="26.278891">
<ele>150.170044</ele>
<time>2010-07-17T09:50:16Z</time>
<desc>lat.=55.738464, lon.=26.278891, Alt.=150.170044m. Speed=0.072000m/h.</desc>
<speed>0.020000</speed>
</trkpt>
<trkpt lat="55.738464" lon="26.278891">
<ele>150.177856</ele>
<time>2010-07-17T09:50:17Z</time>
<desc>lat.=55.738464, lon.=26.278891, Alt.=150.177856m. Speed=0.036000m/h.</desc>
<speed>0.010000</speed>
</trkpt>
<trkpt lat="55.738468" lon="26.278891">
<ele>150.189575</ele>
<time>2010-07-17T09:50:18Z</time>
<desc>lat.=55.738468, lon.=26.278891, Alt.=150.189575m. Speed=0.072000m/h.</desc>
<speed>0.020000</speed>
</trkpt>
<trkpt lat="55.738468" lon="26.278891">
<ele>150.205200</ele>
<time>2010-07-17T09:50:19Z</time>
<desc>lat.=55.738468, lon.=26.278891, Alt.=150.205200m. Speed=0.036000m/h.</desc>
<speed>0.010000</speed>
</trkpt>
<trkpt lat="55.738468" lon="26.278891">
<ele>150.220825</ele>
<time>2010-07-17T09:50:20Z</time>
<desc>lat.=55.738468, lon.=26.278891, Alt.=150.220825m. Speed=0.036000m/h.</desc>
<speed>0.010000</speed>
</trkpt>
<trkpt lat="55.738468" lon="26.278891">
<ele>150.232544</ele>
<time>2010-07-17T09:50:21Z</time>
<desc>lat.=55.738468, lon.=26.278891, Alt.=150.232544m. Speed=0.072000m/h.</desc>
<speed>0.020000</speed>
</trkpt>
<trkpt lat="55.738468" lon="26.278891">
<ele>150.248169</ele>
<time>2010-07-17T09:50:22Z</time>
<desc>lat.=55.738468, lon.=26.278891, Alt.=150.248169m. Speed=0.036000m/h.</desc>
<speed>0.010000</speed>
</trkpt>
<trkpt lat="55.738468" lon="26.278891">
<ele>150.259888</ele>
<time>2010-07-17T09:50:23Z</time>
<desc>lat.=55.738468, lon.=26.278891, Alt.=150.259888m. Speed=0.072000m/h.</desc>
<speed>0.020000</speed>
</trkpt>
<trkpt lat="55.738468" lon="26.278891">
<ele>150.263794</ele>
<time>2010-07-17T09:50:24Z</time>
<desc>lat.=55.738468, lon.=26.278891, Alt.=150.263794m. Speed=0.072000m/h.</desc>
<speed>0.020000</speed>
</trkpt>
<trkpt lat="55.738468" lon="26.278891">
<ele>150.263794</ele>
<time>2010-07-17T09:50:25Z</time>
<desc>lat.=55.738468, lon.=26.278891, Alt.=150.263794m. Speed=0.000000m/h.</desc>
<speed>0.000000</speed>
</trkpt>
<trkpt lat="55.738468" lon="26.278891">
<ele>150.267700</ele>
<time>2010-07-17T09:50:26Z</time>
<desc>lat.=55.738468, lon.=26.278891, Alt.=150.267700m. Speed=0.108000m/h.</desc>
<speed>0.030000</speed>
</trkpt>
<trkpt lat="55.738468" lon="26.278891">
<ele>150.279419</ele>
<time>2010-07-17T09:50:27Z</time>
<desc>lat.=55.738468, lon.=26.278891, Alt.=150.279419m. Speed=0.072000m/h.</desc>
<speed>0.020000</speed>
</trkpt>
<trkpt lat="55.738468" lon="26.278891">
<ele>150.283325</ele>
<time>2010-07-17T09:50:28Z</time>
<desc>lat.=55.738468, lon.=26.278891, Alt.=150.283325m. Speed=0.036000m/h.</desc>
<speed>0.010000</speed>
</trkpt>
<trkpt lat="55.738468" lon="26.278891">
<ele>150.291138</ele>
<time>2010-07-17T09:50:29Z</time>
<desc>lat.=55.738468, lon.=26.278891, Alt.=150.291138m. Speed=0.036000m/h.</desc>
<speed>0.010000</speed>
</trkpt>
<trkpt lat="55.738468" lon="26.278891">
<ele>150.291138</ele>
<time>2010-07-17T09:50:30Z</time>
<desc>lat.=55.738468, lon.=26.278891, Alt.=150.291138m. Speed=0.036000m/h.</desc>
<speed>0.010000</speed>
</trkpt>
<trkpt lat="55.738468" lon="26.278891">
<ele>150.298950</ele>
<time>2010-07-17T09:50:31Z</time>
<desc>lat.=55.738468, lon.=26.278891, Alt.=150.298950m. Speed=0.072000m/h.</desc>
<speed>0.020000</speed>
</trkpt>
<trkpt lat="55.738468" lon="26.278891">
<ele>150.295044</ele>
<time>2010-07-17T09:50:32Z</time>
<desc>lat.=55.738468, lon.=26.278891, Alt.=150.295044m. Speed=0.000000m/h.</desc>
<speed>0.000000</speed>
</trkpt>
<trkpt lat="55.738468" lon="26.278889">
<ele>150.298950</ele>
<time>2010-07-17T09:50:33Z</time>
<desc>lat.=55.738468, lon.=26.278889, Alt.=150.298950m. Speed=0.036000m/h.</desc>
<speed>0.010000</speed>
</trkpt>
<trkpt lat="55.738468" lon="26.278889">
<ele>150.302856</ele>
<time>2010-07-17T09:50:34Z</time>
<desc>lat.=55.738468, lon.=26.278889, Alt.=150.302856m. Speed=0.036000m/h.</desc>
<speed>0.010000</speed>
</trkpt>
<trkpt lat="55.738468" lon="26.278889">
<ele>150.302856</ele>
<time>2010-07-17T09:50:35Z</time>
<desc>lat.=55.738468, lon.=26.278889, Alt.=150.302856m. Speed=0.000000m/h.</desc>
<speed>0.000000</speed>
</trkpt>
<trkpt lat="55.738468" lon="26.278889">
<ele>150.302856</ele>
<time>2010-07-17T09:50:36Z</time>
<desc>lat.=55.738468, lon.=26.278889, Alt.=150.302856m. Speed=0.036000m/h.</desc>
<speed>0.010000</speed>
</trkpt>
<trkpt lat="55.738468" lon="26.278889">
<ele>150.302856</ele>
<time>2010-07-17T09:50:37Z</time>
<desc>lat.=55.738468, lon.=26.278889, Alt.=150.302856m. Speed=0.000000m/h.</desc>
<speed>0.000000</speed>
</trkpt>
<trkpt lat="55.738468" lon="26.278889">
<ele>150.298950</ele>
<time>2010-07-17T09:50:38Z</time>
<desc>lat.=55.738468, lon.=26.278889, Alt.=150.298950m. Speed=0.036000m/h.</desc>
<speed>0.010000</speed>
</trkpt>
<trkpt lat="55.738468" lon="26.278889">
<ele>150.291138</ele>
<time>2010-07-17T09:50:39Z</time>
<desc>lat.=55.738468, lon.=26.278889, Alt.=150.291138m. Speed=0.036000m/h.</desc>
<speed>0.010000</speed>
</trkpt>
<trkpt lat="55.738468" lon="26.278889">
<ele>150.283325</ele>
<time>2010-07-17T09:50:40Z</time>
<desc>lat.=55.738468, lon.=26.278889, Alt.=150.283325m. Speed=0.072000m/h.</desc>
<speed>0.020000</speed>
</trkpt>
<trkpt lat="55.738468" lon="26.278889">
<ele>150.275513</ele>
<time>2010-07-17T09:50:41Z</time>
<desc>lat.=55.738468, lon.=26.278889, Alt.=150.275513m. Speed=0.036000m/h.</desc>
<speed>0.010000</speed>
</trkpt>
<trkpt lat="55.738468" lon="26.278889">
<ele>150.275513</ele>
<time>2010-07-17T09:50:42Z</time>
<desc>lat.=55.738468, lon.=26.278889, Alt.=150.275513m. Speed=0.036000m/h.</desc>
<speed>0.010000</speed>
</trkpt>
<trkpt lat="55.738468" lon="26.278889">
<ele>150.275513</ele>
<time>2010-07-17T09:50:43Z</time>
<desc>lat.=55.738468, lon.=26.278889, Alt.=150.275513m. Speed=0.036000m/h.</desc>
<speed>0.010000</speed>
</trkpt>
<trkpt lat="55.738468" lon="26.278889">
<ele>150.275513</ele>
<time>2010-07-17T09:50:44Z</time>
<desc>lat.=55.738468, lon.=26.278889, Alt.=150.275513m. Speed=0.036000m/h.</desc>
<speed>0.010000</speed>
</trkpt>
<trkpt lat="55.738468" lon="26.278889">
<ele>150.275513</ele>
<time>2010-07-17T09:50:45Z</time>
<desc>lat.=55.738468, lon.=26.278889, Alt.=150.275513m. Speed=0.036000m/h.</desc>
<speed>0.010000</speed>
</trkpt>
<trkpt lat="55.738468" lon="26.278889">
<ele>150.279419</ele>
<time>2010-07-17T09:50:46Z</time>
<desc>lat.=55.738468, lon.=26.278889, Alt.=150.279419m. Speed=0.036000m/h.</desc>
<speed>0.010000</speed>
</trkpt>
<trkpt lat="55.738468" lon="26.278889">
<ele>150.287231</ele>
<time>2010-07-17T09:50:47Z</time>
<desc>lat.=55.738468, lon.=26.278889, Alt.=150.287231m. Speed=0.000000m/h.</desc>
<speed>0.000000</speed>
</trkpt>
<trkpt lat="55.738468" lon="26.278889">
<ele>150.291138</ele>
<time>2010-07-17T09:50:48Z</time>
<desc>lat.=55.738468, lon.=26.278889, Alt.=150.291138m. Speed=0.000000m/h.</desc>
<speed>0.000000</speed>
</trkpt>
<trkpt lat="55.738468" lon="26.278889">
<ele>150.291138</ele>
<time>2010-07-17T09:50:49Z</time>
<desc>lat.=55.738468, lon.=26.278889, Alt.=150.291138m. Speed=0.000000m/h.</desc>
<speed>0.000000</speed>
</trkpt>
<trkpt lat="55.738468" lon="26.278889">
<ele>150.283325</ele>
<time>2010-07-17T09:50:50Z</time>
<desc>lat.=55.738468, lon.=26.278889, Alt.=150.283325m. Speed=0.072000m/h.</desc>
<speed>0.020000</speed>
</trkpt>
<trkpt lat="55.738468" lon="26.278889">
<ele>150.287231</ele>
<time>2010-07-17T09:50:51Z</time>
<desc>lat.=55.738468, lon.=26.278889, Alt.=150.287231m. Speed=0.036000m/h.</desc>
<speed>0.010000</speed>
</trkpt>
<trkpt lat="55.738468" lon="26.278889">
<ele>150.283325</ele>
<time>2010-07-17T09:50:52Z</time>
<desc>lat.=55.738468, lon.=26.278889, Alt.=150.283325m. Speed=0.036000m/h.</desc>
<speed>0.010000</speed>
</trkpt>
<trkpt lat="55.738468" lon="26.278889">
<ele>150.283325</ele>
<time>2010-07-17T09:50:53Z</time>
<desc>lat.=55.738468, lon.=26.278889, Alt.=150.283325m. Speed=0.000000m/h.</desc>
<speed>0.000000</speed>
</trkpt>
<trkpt lat="55.738468" lon="26.278889">
<ele>150.283325</ele>
<time>2010-07-17T09:50:54Z</time>
<desc>lat.=55.738468, lon.=26.278889, Alt.=150.283325m. Speed=0.036000m/h.</desc>
<speed>0.010000</speed>
</trkpt>
<trkpt lat="55.738468" lon="26.278889">
<ele>150.279419</ele>
<time>2010-07-17T09:50:55Z</time>
<desc>lat.=55.738468, lon.=26.278889, Alt.=150.279419m. Speed=0.000000m/h.</desc>
<speed>0.000000</speed>
</trkpt>
<trkpt lat="55.738468" lon="26.278889">
<ele>150.275513</ele>
<time>2010-07-17T09:50:56Z</time>
<desc>lat.=55.738468, lon.=26.278889, Alt.=150.275513m. Speed=0.036000m/h.</desc>
<speed>0.010000</speed>
</trkpt>
<trkpt lat="55.738468" lon="26.278889">
<ele>150.275513</ele>
<time>2010-07-17T09:50:57Z</time>
<desc>lat.=55.738468, lon.=26.278889, Alt.=150.275513m. Speed=0.000000m/h.</desc>
<speed>0.000000</speed>
</trkpt>
<trkpt lat="55.738468" lon="26.278889">
<ele>150.267700</ele>
<time>2010-07-17T09:50:58Z</time>
<desc>lat.=55.738468, lon.=26.278889, Alt.=150.267700m. Speed=0.072000m/h.</desc>
<speed>0.020000</speed>
</trkpt>
<trkpt lat="55.738468" lon="26.278889">
<ele>150.263794</ele>
<time>2010-07-17T09:50:59Z</time>
<desc>lat.=55.738468, lon.=26.278889, Alt.=150.263794m. Speed=0.000000m/h.</desc>
<speed>0.000000</speed>
</trkpt>
<trkpt lat="55.738468" lon="26.278887">
<ele>150.259888</ele>
<time>2010-07-17T09:51:00Z</time>
<desc>lat.=55.738468, lon.=26.278887, Alt.=150.259888m. Speed=0.036000m/h.</desc>
<speed>0.010000</speed>
</trkpt>
<trkpt lat="55.738468" lon="26.278887">
<ele>150.267700</ele>
<time>2010-07-17T09:51:01Z</time>
<desc>lat.=55.738468, lon.=26.278887, Alt.=150.267700m. Speed=0.108000m/h.</desc>
<speed>0.030000</speed>
</trkpt>
<trkpt lat="55.738468" lon="26.278887">
<ele>150.275513</ele>
<time>2010-07-17T09:51:02Z</time>
<desc>lat.=55.738468, lon.=26.278887, Alt.=150.275513m. Speed=0.072000m/h.</desc>
<speed>0.020000</speed>
</trkpt>
<trkpt lat="55.738468" lon="26.278887">
<ele>150.271606</ele>
<time>2010-07-17T09:51:03Z</time>
<desc>lat.=55.738468, lon.=26.278887, Alt.=150.271606m. Speed=0.000000m/h.</desc>
<speed>0.000000</speed>
</trkpt>
<trkpt lat="55.738468" lon="26.278887">
<ele>150.271606</ele>
<time>2010-07-17T09:51:04Z</time>
<desc>lat.=55.738468, lon.=26.278887, Alt.=150.271606m. Speed=0.000000m/h.</desc>
<speed>0.000000</speed>
</trkpt>
<trkpt lat="55.738468" lon="26.278887">
<ele>150.271606</ele>
<time>2010-07-17T09:51:05Z</time>
<desc>lat.=55.738468, lon.=26.278887, Alt.=150.271606m. Speed=0.000000m/h.</desc>
<speed>0.000000</speed>
</trkpt>
<trkpt lat="55.738468" lon="26.278887">
<ele>150.271606</ele>
<time>2010-07-17T09:51:06Z</time>
<desc>lat.=55.738468, lon.=26.278887, Alt.=150.271606m. Speed=0.000000m/h.</desc>
<speed>0.000000</speed>
</trkpt>
<trkpt lat="55.738468" lon="26.278887">
<ele>150.271606</ele>
<time>2010-07-17T09:51:07Z</time>
<desc>lat.=55.738468, lon.=26.278887, Alt.=150.271606m. Speed=0.000000m/h.</desc>
<speed>0.000000</speed>
</trkpt>
<trkpt lat="55.738468" lon="26.278887">
<ele>150.275513</ele>
<time>2010-07-17T09:51:08Z</time>
<desc>lat.=55.738468, lon.=26.278887, Alt.=150.275513m. Speed=0.000000m/h.</desc>
<speed>0.000000</speed>
</trkpt>
<trkpt lat="55.738468" lon="26.278887">
<ele>150.275513</ele>
<time>2010-07-17T09:51:09Z</time>
<desc>lat.=55.738468, lon.=26.278887, Alt.=150.275513m. Speed=0.036000m/h.</desc>
<speed>0.010000</speed>
</trkpt>
<trkpt lat="55.738468" lon="26.278887">
<ele>150.279419</ele>
<time>2010-07-17T09:51:10Z</time>
<desc>lat.=55.738468, lon.=26.278887, Alt.=150.279419m. Speed=0.000000m/h.</desc>
<speed>0.000000</speed>
</trkpt>
<trkpt lat="55.738468" lon="26.278887">
<ele>150.279419</ele>
<time>2010-07-17T09:51:11Z</time>
<desc>lat.=55.738468, lon.=26.278887, Alt.=150.279419m. Speed=0.000000m/h.</desc>
<speed>0.000000</speed>
</trkpt>
<trkpt lat="55.738468" lon="26.278887">
<ele>150.279419</ele>
<time>2010-07-17T09:51:12Z</time>
<desc>lat.=55.738468, lon.=26.278887, Alt.=150.279419m. Speed=0.180000m/h.</desc>
<speed>0.050000</speed>
</trkpt>
<trkpt lat="55.738468" lon="26.278887">
<ele>150.279419</ele>
<time>2010-07-17T09:51:13Z</time>
<desc>lat.=55.738468, lon.=26.278887, Alt.=150.279419m. Speed=0.072000m/h.</desc>
<speed>0.020000</speed>
</trkpt>
<trkpt lat="55.738468" lon="26.278887">
<ele>150.271606</ele>
<time>2010-07-17T09:51:14Z</time>
<desc>lat.=55.738468, lon.=26.278887, Alt.=150.271606m. Speed=0.036000m/h.</desc>
<speed>0.010000</speed>
</trkpt>
<trkpt lat="55.738468" lon="26.278887">
<ele>150.267700</ele>
<time>2010-07-17T09:51:15Z</time>
<desc>lat.=55.738468, lon.=26.278887, Alt.=150.267700m. Speed=0.108000m/h.</desc>
<speed>0.030000</speed>
</trkpt>
<trkpt lat="55.738468" lon="26.278887">
<ele>150.259888</ele>
<time>2010-07-17T09:51:16Z</time>
<desc>lat.=55.738468, lon.=26.278887, Alt.=150.259888m. Speed=0.216000m/h.</desc>
<speed>0.060000</speed>
</trkpt>
<trkpt lat="55.738468" lon="26.278887">
<ele>150.232544</ele>
<time>2010-07-17T09:51:17Z</time>
<desc>lat.=55.738468, lon.=26.278887, Alt.=150.232544m. Speed=0.576000m/h.</desc>
<speed>0.160000</speed>
</trkpt>
<trkpt lat="55.738464" lon="26.278885">
<ele>150.197388</ele>
<time>2010-07-17T09:51:18Z</time>
<desc>lat.=55.738464, lon.=26.278885, Alt.=150.197388m. Speed=0.828000m/h.</desc>
<speed>0.230000</speed>
</trkpt>
<trkpt lat="55.738464" lon="26.278881">
<ele>150.158325</ele>
<time>2010-07-17T09:51:19Z</time>
<desc>lat.=55.738464, lon.=26.278881, Alt.=150.158325m. Speed=1.404000m/h.</desc>
<speed>0.390000</speed>
</trkpt>
<trkpt lat="55.738461" lon="26.278877">
<ele>150.107544</ele>
<time>2010-07-17T09:51:20Z</time>
<desc>lat.=55.738461, lon.=26.278877, Alt.=150.107544m. Speed=3.240000m/h.</desc>
<speed>0.900000</speed>
</trkpt>
<trkpt lat="55.738457" lon="26.278866">
<ele>150.052856</ele>
<time>2010-07-17T09:51:21Z</time>
<desc>lat.=55.738457, lon.=26.278866, Alt.=150.052856m. Speed=5.472000m/h.</desc>
<speed>1.520000</speed>
</trkpt>
<trkpt lat="55.738438" lon="26.278837">
<ele>149.474731</ele>
<time>2010-07-17T09:51:22Z</time>
<desc>lat.=55.738438, lon.=26.278837, Alt.=149.474731m. Speed=4.932000m/h.</desc>
<speed>1.370000</speed>
</trkpt>
<trkpt lat="55.738434" lon="26.278820">
<ele>149.431763</ele>
<time>2010-07-17T09:51:23Z</time>
<desc>lat.=55.738434, lon.=26.278820, Alt.=149.431763m. Speed=2.340000m/h.</desc>
<speed>0.650000</speed>
</trkpt>
<trkpt lat="55.738430" lon="26.278803">
<ele>149.189575</ele>
<time>2010-07-17T09:51:24Z</time>
<desc>lat.=55.738430, lon.=26.278803, Alt.=149.189575m. Speed=1.332000m/h.</desc>
<speed>0.370000</speed>
</trkpt>
<trkpt lat="55.738430" lon="26.278791">
<ele>149.095825</ele>
<time>2010-07-17T09:51:25Z</time>
<desc>lat.=55.738430, lon.=26.278791, Alt.=149.095825m. Speed=0.900000m/h.</desc>
<speed>0.250000</speed>
</trkpt>
<trkpt lat="55.738426" lon="26.278788">
<ele>149.056763</ele>
<time>2010-07-17T09:51:26Z</time>
<desc>lat.=55.738426, lon.=26.278788, Alt.=149.056763m. Speed=0.324000m/h.</desc>
<speed>0.090000</speed>
</trkpt>
<trkpt lat="55.738426" lon="26.278782">
<ele>148.650513</ele>
<time>2010-07-17T09:51:27Z</time>
<desc>lat.=55.738426, lon.=26.278782, Alt.=148.650513m. Speed=0.180000m/h.</desc>
<speed>0.050000</speed>
</trkpt>
<trkpt lat="55.738426" lon="26.278767">
<ele>148.326294</ele>
<time>2010-07-17T09:51:28Z</time>
<desc>lat.=55.738426, lon.=26.278767, Alt.=148.326294m. Speed=0.540000m/h.</desc>
<speed>0.150000</speed>
</trkpt>
<trkpt lat="55.738426" lon="26.278763">
<ele>148.295044</ele>
<time>2010-07-17T09:51:29Z</time>
<desc>lat.=55.738426, lon.=26.278763, Alt.=148.295044m. Speed=0.648000m/h.</desc>
<speed>0.180000</speed>
</trkpt>
<trkpt lat="55.738426" lon="26.278761">
<ele>148.271606</ele>
<time>2010-07-17T09:51:30Z</time>
<desc>lat.=55.738426, lon.=26.278761, Alt.=148.271606m. Speed=0.432000m/h.</desc>
<speed>0.120000</speed>
</trkpt>
<trkpt lat="55.738426" lon="26.278759">
<ele>148.248169</ele>
<time>2010-07-17T09:51:31Z</time>
<desc>lat.=55.738426, lon.=26.278759, Alt.=148.248169m. Speed=0.540000m/h.</desc>
<speed>0.150000</speed>
</trkpt>
<trkpt lat="55.738426" lon="26.278755">
<ele>148.232544</ele>
<time>2010-07-17T09:51:32Z</time>
<desc>lat.=55.738426, lon.=26.278755, Alt.=148.232544m. Speed=0.648000m/h.</desc>
<speed>0.180000</speed>
</trkpt>
<trkpt lat="55.738430" lon="26.278753">
<ele>148.216919</ele>
<time>2010-07-17T09:51:33Z</time>
<desc>lat.=55.738430, lon.=26.278753, Alt.=148.216919m. Speed=0.612000m/h.</desc>
<speed>0.170000</speed>
</trkpt>
<trkpt lat="55.738430" lon="26.278751">
<ele>148.213013</ele>
<time>2010-07-17T09:51:34Z</time>
<desc>lat.=55.738430, lon.=26.278751, Alt.=148.213013m. Speed=1.296000m/h.</desc>
<speed>0.360000</speed>
</trkpt>
<trkpt lat="55.738434" lon="26.278738">
<ele>148.173950</ele>
<time>2010-07-17T09:51:35Z</time>
<desc>lat.=55.738434, lon.=26.278738, Alt.=148.173950m. Speed=1.800000m/h.</desc>
<speed>0.500000</speed>
</trkpt>
<trkpt lat="55.738438" lon="26.278728">
<ele>148.045044</ele>
<time>2010-07-17T09:51:36Z</time>
<desc>lat.=55.738438, lon.=26.278728, Alt.=148.045044m. Speed=1.476000m/h.</desc>
<speed>0.410000</speed>
</trkpt>
<trkpt lat="55.738438" lon="26.278721">
<ele>147.998169</ele>
<time>2010-07-17T09:51:37Z</time>
<desc>lat.=55.738438, lon.=26.278721, Alt.=147.998169m. Speed=0.576000m/h.</desc>
<speed>0.160000</speed>
</trkpt>
<trkpt lat="55.738434" lon="26.278715">
<ele>147.822388</ele>
<time>2010-07-17T09:51:38Z</time>
<desc>lat.=55.738434, lon.=26.278715, Alt.=147.822388m. Speed=0.360000m/h.</desc>
<speed>0.100000</speed>
</trkpt>
<trkpt lat="55.738430" lon="26.278711">
<ele>147.783325</ele>
<time>2010-07-17T09:51:39Z</time>
<desc>lat.=55.738430, lon.=26.278711, Alt.=147.783325m. Speed=0.360000m/h.</desc>
<speed>0.100000</speed>
</trkpt>
<trkpt lat="55.738430" lon="26.278708">
<ele>147.771606</ele>
<time>2010-07-17T09:51:40Z</time>
<desc>lat.=55.738430, lon.=26.278708, Alt.=147.771606m. Speed=0.252000m/h.</desc>
<speed>0.070000</speed>
</trkpt>
<trkpt lat="55.738430" lon="26.278706">
<ele>147.771606</ele>
<time>2010-07-17T09:51:41Z</time>
<desc>lat.=55.738430, lon.=26.278706, Alt.=147.771606m. Speed=0.180000m/h.</desc>
<speed>0.050000</speed>
</trkpt>
<trkpt lat="55.738430" lon="26.278706">
<ele>147.775513</ele>
<time>2010-07-17T09:51:42Z</time>
<desc>lat.=55.738430, lon.=26.278706, Alt.=147.775513m. Speed=0.576000m/h.</desc>
<speed>0.160000</speed>
</trkpt>
<trkpt lat="55.738426" lon="26.278708">
<ele>147.779419</ele>
<time>2010-07-17T09:51:43Z</time>
<desc>lat.=55.738426, lon.=26.278708, Alt.=147.779419m. Speed=0.900000m/h.</desc>
<speed>0.250000</speed>
</trkpt>
<trkpt lat="55.738426" lon="26.278709">
<ele>147.783325</ele>
<time>2010-07-17T09:51:44Z</time>
<desc>lat.=55.738426, lon.=26.278709, Alt.=147.783325m. Speed=0.864000m/h.</desc>
<speed>0.240000</speed>
</trkpt>
<trkpt lat="55.738422" lon="26.278711">
<ele>147.787231</ele>
<time>2010-07-17T09:51:45Z</time>
<desc>lat.=55.738422, lon.=26.278711, Alt.=147.787231m. Speed=0.216000m/h.</desc>
<speed>0.060000</speed>
</trkpt>
<trkpt lat="55.738422" lon="26.278713">
<ele>147.791138</ele>
<time>2010-07-17T09:51:46Z</time>
<desc>lat.=55.738422, lon.=26.278713, Alt.=147.791138m. Speed=0.468000m/h.</desc>
<speed>0.130000</speed>
</trkpt>
<trkpt lat="55.738422" lon="26.278715">
<ele>147.795044</ele>
<time>2010-07-17T09:51:47Z</time>
<desc>lat.=55.738422, lon.=26.278715, Alt.=147.795044m. Speed=0.324000m/h.</desc>
<speed>0.090000</speed>
</trkpt>
<trkpt lat="55.738426" lon="26.278715">
<ele>147.798950</ele>
<time>2010-07-17T09:51:48Z</time>
<desc>lat.=55.738426, lon.=26.278715, Alt.=147.798950m. Speed=0.000000m/h.</desc>
<speed>0.000000</speed>
</trkpt>
<trkpt lat="55.738426" lon="26.278715">
<ele>147.802856</ele>
<time>2010-07-17T09:51:49Z</time>
<desc>lat.=55.738426, lon.=26.278715, Alt.=147.802856m. Speed=0.252000m/h.</desc>
<speed>0.070000</speed>
</trkpt>
<trkpt lat="55.738426" lon="26.278715">
<ele>147.806763</ele>
<time>2010-07-17T09:51:50Z</time>
<desc>lat.=55.738426, lon.=26.278715, Alt.=147.806763m. Speed=0.504000m/h.</desc>
<speed>0.140000</speed>
</trkpt>
<trkpt lat="55.738426" lon="26.278713">
<ele>147.814575</ele>
<time>2010-07-17T09:51:51Z</time>
<desc>lat.=55.738426, lon.=26.278713, Alt.=147.814575m. Speed=0.792000m/h.</desc>
<speed>0.220000</speed>
</trkpt>
<trkpt lat="55.738426" lon="26.278709">
<ele>147.822388</ele>
<time>2010-07-17T09:51:52Z</time>
<desc>lat.=55.738426, lon.=26.278709, Alt.=147.822388m. Speed=0.828000m/h.</desc>
<speed>0.230000</speed>
</trkpt>
<trkpt lat="55.738426" lon="26.278706">
<ele>147.830200</ele>
<time>2010-07-17T09:51:53Z</time>
<desc>lat.=55.738426, lon.=26.278706, Alt.=147.830200m. Speed=0.684000m/h.</desc>
<speed>0.190000</speed>
</trkpt>
<trkpt lat="55.738430" lon="26.278704">
<ele>147.838013</ele>
<time>2010-07-17T09:51:54Z</time>
<desc>lat.=55.738430, lon.=26.278704, Alt.=147.838013m. Speed=1.044000m/h.</desc>
<speed>0.290000</speed>
</trkpt>
<trkpt lat="55.738430" lon="26.278700">
<ele>147.845825</ele>
<time>2010-07-17T09:51:55Z</time>
<desc>lat.=55.738430, lon.=26.278700, Alt.=147.845825m. Speed=1.260000m/h.</desc>
<speed>0.350000</speed>
</trkpt>
<trkpt lat="55.738434" lon="26.278702">
<ele>147.908325</ele>
<time>2010-07-17T09:51:56Z</time>
<desc>lat.=55.738434, lon.=26.278702, Alt.=147.908325m. Speed=0.792000m/h.</desc>
<speed>0.220000</speed>
</trkpt>
<trkpt lat="55.738438" lon="26.278692">
<ele>148.013794</ele>
<time>2010-07-17T09:51:57Z</time>
<desc>lat.=55.738438, lon.=26.278692, Alt.=148.013794m. Speed=1.080000m/h.</desc>
<speed>0.300000</speed>
</trkpt>
<trkpt lat="55.738438" lon="26.278685">
<ele>148.099731</ele>
<time>2010-07-17T09:51:58Z</time>
<desc>lat.=55.738438, lon.=26.278685, Alt.=148.099731m. Speed=0.792000m/h.</desc>
<speed>0.220000</speed>
</trkpt>
<trkpt lat="55.738438" lon="26.278677">
<ele>148.279419</ele>
<time>2010-07-17T09:51:59Z</time>
<desc>lat.=55.738438, lon.=26.278677, Alt.=148.279419m. Speed=0.828000m/h.</desc>
<speed>0.230000</speed>
</trkpt>
<trkpt lat="55.738438" lon="26.278677">
<ele>148.037231</ele>
<time>2010-07-17T09:52:00Z</time>
<desc>lat.=55.738438, lon.=26.278677, Alt.=148.037231m. Speed=1.044000m/h.</desc>
<speed>0.290000</speed>
</trkpt>
<trkpt lat="55.738430" lon="26.278679">
<ele>148.060669</ele>
<time>2010-07-17T09:52:01Z</time>
<desc>lat.=55.738430, lon.=26.278679, Alt.=148.060669m. Speed=0.360000m/h.</desc>
<speed>0.100000</speed>
</trkpt>
<trkpt lat="55.738430" lon="26.278677">
<ele>148.084106</ele>
<time>2010-07-17T09:52:02Z</time>
<desc>lat.=55.738430, lon.=26.278677, Alt.=148.084106m. Speed=0.324000m/h.</desc>
<speed>0.090000</speed>
</trkpt>
<trkpt lat="55.738430" lon="26.278675">
<ele>148.103638</ele>
<time>2010-07-17T09:52:03Z</time>
<desc>lat.=55.738430, lon.=26.278675, Alt.=148.103638m. Speed=0.144000m/h.</desc>
<speed>0.040000</speed>
</trkpt>
<trkpt lat="55.738430" lon="26.278675">
<ele>148.130981</ele>
<time>2010-07-17T09:52:04Z</time>
<desc>lat.=55.738430, lon.=26.278675, Alt.=148.130981m. Speed=0.180000m/h.</desc>
<speed>0.050000</speed>
</trkpt>
<trkpt lat="55.738430" lon="26.278675">
<ele>148.150513</ele>
<time>2010-07-17T09:52:05Z</time>
<desc>lat.=55.738430, lon.=26.278675, Alt.=148.150513m. Speed=0.180000m/h.</desc>
<speed>0.050000</speed>
</trkpt>
<trkpt lat="55.738434" lon="26.278675">
<ele>148.158325</ele>
<time>2010-07-17T09:52:06Z</time>
<desc>lat.=55.738434, lon.=26.278675, Alt.=148.158325m. Speed=0.144000m/h.</desc>
<speed>0.040000</speed>
</trkpt>
<trkpt lat="55.738430" lon="26.278675">
<ele>148.189575</ele>
<time>2010-07-17T09:52:07Z</time>
<desc>lat.=55.738430, lon.=26.278675, Alt.=148.189575m. Speed=0.396000m/h.</desc>
<speed>0.110000</speed>
</trkpt>
<trkpt lat="55.738434" lon="26.278675">
<ele>148.205200</ele>
<time>2010-07-17T09:52:08Z</time>
<desc>lat.=55.738434, lon.=26.278675, Alt.=148.205200m. Speed=0.144000m/h.</desc>
<speed>0.040000</speed>
</trkpt>
<trkpt lat="55.738434" lon="26.278675">
<ele>148.232544</ele>
<time>2010-07-17T09:52:09Z</time>
<desc>lat.=55.738434, lon.=26.278675, Alt.=148.232544m. Speed=0.360000m/h.</desc>
<speed>0.100000</speed>
</trkpt>
<trkpt lat="55.738434" lon="26.278673">
<ele>148.267700</ele>
<time>2010-07-17T09:52:10Z</time>
<desc>lat.=55.738434, lon.=26.278673, Alt.=148.267700m. Speed=0.144000m/h.</desc>
<speed>0.040000</speed>
</trkpt>
<trkpt lat="55.738434" lon="26.278671">
<ele>148.314575</ele>
<time>2010-07-17T09:52:11Z</time>
<desc>lat.=55.738434, lon.=26.278671, Alt.=148.314575m. Speed=0.216000m/h.</desc>
<speed>0.060000</speed>
</trkpt>
<trkpt lat="55.738434" lon="26.278671">
<ele>148.349731</ele>
<time>2010-07-17T09:52:12Z</time>
<desc>lat.=55.738434, lon.=26.278671, Alt.=148.349731m. Speed=0.324000m/h.</desc>
<speed>0.090000</speed>
</trkpt>
<trkpt lat="55.738434" lon="26.278671">
<ele>148.377075</ele>
<time>2010-07-17T09:52:13Z</time>
<desc>lat.=55.738434, lon.=26.278671, Alt.=148.377075m. Speed=0.180000m/h.</desc>
<speed>0.050000</speed>
</trkpt>
<trkpt lat="55.738434" lon="26.278671">
<ele>148.380981</ele>
<time>2010-07-17T09:52:14Z</time>
<desc>lat.=55.738434, lon.=26.278671, Alt.=148.380981m. Speed=0.072000m/h.</desc>
<speed>0.020000</speed>
</trkpt>
<trkpt lat="55.738434" lon="26.278671">
<ele>148.380981</ele>
<time>2010-07-17T09:52:15Z</time>
<desc>lat.=55.738434, lon.=26.278671, Alt.=148.380981m. Speed=0.144000m/h.</desc>
<speed>0.040000</speed>
</trkpt>
<trkpt lat="55.738434" lon="26.278671">
<ele>148.380981</ele>
<time>2010-07-17T09:52:16Z</time>
<desc>lat.=55.738434, lon.=26.278671, Alt.=148.380981m. Speed=0.000000m/h.</desc>
<speed>0.000000</speed>
</trkpt>
<trkpt lat="55.738434" lon="26.278671">
<ele>148.384888</ele>
<time>2010-07-17T09:52:17Z</time>
<desc>lat.=55.738434, lon.=26.278671, Alt.=148.384888m. Speed=0.036000m/h.</desc>
<speed>0.010000</speed>
</trkpt>
<trkpt lat="55.738434" lon="26.278671">
<ele>148.384888</ele>
<time>2010-07-17T09:52:18Z</time>
<desc>lat.=55.738434, lon.=26.278671, Alt.=148.384888m. Speed=0.108000m/h.</desc>
<speed>0.030000</speed>
</trkpt>
<trkpt lat="55.738434" lon="26.278671">
<ele>148.384888</ele>
<time>2010-07-17T09:52:19Z</time>
<desc>lat.=55.738434, lon.=26.278671, Alt.=148.384888m. Speed=0.000000m/h.</desc>
<speed>0.000000</speed>
</trkpt>
<trkpt lat="55.738434" lon="26.278671">
<ele>148.388794</ele>
<time>2010-07-17T09:52:20Z</time>
<desc>lat.=55.738434, lon.=26.278671, Alt.=148.388794m. Speed=0.036000m/h.</desc>
<speed>0.010000</speed>
</trkpt>
<trkpt lat="55.738434" lon="26.278671">
<ele>148.392700</ele>
<time>2010-07-17T09:52:21Z</time>
<desc>lat.=55.738434, lon.=26.278671, Alt.=148.392700m. Speed=0.000000m/h.</desc>
<speed>0.000000</speed>
</trkpt>
<trkpt lat="55.738434" lon="26.278671">
<ele>148.392700</ele>
<time>2010-07-17T09:52:22Z</time>
<desc>lat.=55.738434, lon.=26.278671, Alt.=148.392700m. Speed=0.072000m/h.</desc>
<speed>0.020000</speed>
</trkpt>
<trkpt lat="55.738434" lon="26.278671">
<ele>148.396606</ele>
<time>2010-07-17T09:52:23Z</time>
<desc>lat.=55.738434, lon.=26.278671, Alt.=148.396606m. Speed=0.072000m/h.</desc>
<speed>0.020000</speed>
</trkpt>
<trkpt lat="55.738434" lon="26.278671">
<ele>148.400513</ele>
<time>2010-07-17T09:52:24Z</time>
<desc>lat.=55.738434, lon.=26.278671, Alt.=148.400513m. Speed=0.252000m/h.</desc>
<speed>0.070000</speed>
</trkpt>
<trkpt lat="55.738434" lon="26.278671">
<ele>148.404419</ele>
<time>2010-07-17T09:52:25Z</time>
<desc>lat.=55.738434, lon.=26.278671, Alt.=148.404419m. Speed=0.108000m/h.</desc>
<speed>0.030000</speed>
</trkpt>
<trkpt lat="55.738434" lon="26.278671">
<ele>148.404419</ele>
<time>2010-07-17T09:52:26Z</time>
<desc>lat.=55.738434, lon.=26.278671, Alt.=148.404419m. Speed=0.108000m/h.</desc>
<speed>0.030000</speed>
</trkpt>
<trkpt lat="55.738434" lon="26.278669">
<ele>148.396606</ele>
<time>2010-07-17T09:52:27Z</time>
<desc>lat.=55.738434, lon.=26.278669, Alt.=148.396606m. Speed=0.216000m/h.</desc>
<speed>0.060000</speed>
</trkpt>
<trkpt lat="55.738434" lon="26.278669">
<ele>148.392700</ele>
<time>2010-07-17T09:52:28Z</time>
<desc>lat.=55.738434, lon.=26.278669, Alt.=148.392700m. Speed=0.216000m/h.</desc>
<speed>0.060000</speed>
</trkpt>
<trkpt lat="55.738434" lon="26.278669">
<ele>148.388794</ele>
<time>2010-07-17T09:52:29Z</time>
<desc>lat.=55.738434, lon.=26.278669, Alt.=148.388794m. Speed=0.072000m/h.</desc>
<speed>0.020000</speed>
</trkpt>
<trkpt lat="55.738434" lon="26.278669">
<ele>148.392700</ele>
<time>2010-07-17T09:52:30Z</time>
<desc>lat.=55.738434, lon.=26.278669, Alt.=148.392700m. Speed=0.252000m/h.</desc>
<speed>0.070000</speed>
</trkpt>
<trkpt lat="55.738434" lon="26.278669">
<ele>148.396606</ele>
<time>2010-07-17T09:52:31Z</time>
<desc>lat.=55.738434, lon.=26.278669, Alt.=148.396606m. Speed=0.072000m/h.</desc>
<speed>0.020000</speed>
</trkpt>
<trkpt lat="55.738434" lon="26.278669">
<ele>148.396606</ele>
<time>2010-07-17T09:52:32Z</time>
<desc>lat.=55.738434, lon.=26.278669, Alt.=148.396606m. Speed=0.036000m/h.</desc>
<speed>0.010000</speed>
</trkpt>
<trkpt lat="55.738434" lon="26.278669">
<ele>148.388794</ele>
<time>2010-07-17T09:52:33Z</time>
<desc>lat.=55.738434, lon.=26.278669, Alt.=148.388794m. Speed=0.000000m/h.</desc>
<speed>0.000000</speed>
</trkpt>
<trkpt lat="55.738434" lon="26.278669">
<ele>148.388794</ele>
<time>2010-07-17T09:52:34Z</time>
<desc>lat.=55.738434, lon.=26.278669, Alt.=148.388794m. Speed=0.000000m/h.</desc>
<speed>0.000000</speed>
</trkpt>
<trkpt lat="55.738434" lon="26.278669">
<ele>148.384888</ele>
<time>2010-07-17T09:52:35Z</time>
<desc>lat.=55.738434, lon.=26.278669, Alt.=148.384888m. Speed=0.036000m/h.</desc>
<speed>0.010000</speed>
</trkpt>
<trkpt lat="55.738434" lon="26.278669">
<ele>148.380981</ele>
<time>2010-07-17T09:52:36Z</time>
<desc>lat.=55.738434, lon.=26.278669, Alt.=148.380981m. Speed=0.036000m/h.</desc>
<speed>0.010000</speed>
</trkpt>
<trkpt lat="55.738434" lon="26.278669">
<ele>148.380981</ele>
<time>2010-07-17T09:52:37Z</time>
<desc>lat.=55.738434, lon.=26.278669, Alt.=148.380981m. Speed=0.000000m/h.</desc>
<speed>0.000000</speed>
</trkpt>
<trkpt lat="55.738434" lon="26.278669">
<ele>148.380981</ele>
<time>2010-07-17T09:52:38Z</time>
<desc>lat.=55.738434, lon.=26.278669, Alt.=148.380981m. Speed=0.252000m/h.</desc>
<speed>0.070000</speed>
</trkpt>
<trkpt lat="55.738434" lon="26.278667">
<ele>148.384888</ele>
<time>2010-07-17T09:52:39Z</time>
<desc>lat.=55.738434, lon.=26.278667, Alt.=148.384888m. Speed=1.188000m/h.</desc>
<speed>0.330000</speed>
</trkpt>
<trkpt lat="55.738430" lon="26.278650">
<ele>148.380981</ele>
<time>2010-07-17T09:52:40Z</time>
<desc>lat.=55.738430, lon.=26.278650, Alt.=148.380981m. Speed=1.944000m/h.</desc>
<speed>0.540000</speed>
</trkpt>
<trkpt lat="55.738426" lon="26.278612">
<ele>148.576294</ele>
<time>2010-07-17T09:52:41Z</time>
<desc>lat.=55.738426, lon.=26.278612, Alt.=148.576294m. Speed=3.456000m/h.</desc>
<speed>0.960000</speed>
</trkpt>
<trkpt lat="55.738415" lon="26.278580">
<ele>148.763794</ele>
<time>2010-07-17T09:52:42Z</time>
<desc>lat.=55.738415, lon.=26.278580, Alt.=148.763794m. Speed=9.828000m/h.</desc>
<speed>2.730000</speed>
</trkpt>
<trkpt lat="55.738396" lon="26.278528">
<ele>148.744263</ele>
<time>2010-07-17T09:52:43Z</time>
<desc>lat.=55.738396, lon.=26.278528, Alt.=148.744263m. Speed=11.268000m/h.</desc>
<speed>3.130000</speed>
</trkpt>
<trkpt lat="55.738384" lon="26.278467">
<ele>148.728638</ele>
<time>2010-07-17T09:52:44Z</time>
<desc>lat.=55.738384, lon.=26.278467, Alt.=148.728638m. Speed=14.184000m/h.</desc>
<speed>3.940000</speed>
</trkpt>
<trkpt lat="55.738369" lon="26.278406">
<ele>148.982544</ele>
<time>2010-07-17T09:52:45Z</time>
<desc>lat.=55.738369, lon.=26.278406, Alt.=148.982544m. Speed=13.932000m/h.</desc>
<speed>3.870000</speed>
</trkpt>
<trkpt lat="55.738358" lon="26.278336">
<ele>149.037231</ele>
<time>2010-07-17T09:52:46Z</time>
<desc>lat.=55.738358, lon.=26.278336, Alt.=149.037231m. Speed=15.624000m/h.</desc>
<speed>4.340000</speed>
</trkpt>
<trkpt lat="55.738346" lon="26.278261">
<ele>149.041138</ele>
<time>2010-07-17T09:52:47Z</time>
<desc>lat.=55.738346, lon.=26.278261, Alt.=149.041138m. Speed=16.740000m/h.</desc>
<speed>4.650000</speed>
</trkpt>
<trkpt lat="55.738331" lon="26.278181">
<ele>148.884888</ele>
<time>2010-07-17T09:52:48Z</time>
<desc>lat.=55.738331, lon.=26.278181, Alt.=148.884888m. Speed=17.784000m/h.</desc>
<speed>4.940000</speed>
</trkpt>
<trkpt lat="55.738316" lon="26.278097">
<ele>148.994263</ele>
<time>2010-07-17T09:52:49Z</time>
<desc>lat.=55.738316, lon.=26.278097, Alt.=148.994263m. Speed=18.323999m/h.</desc>
<speed>5.090000</speed>
</trkpt>
<trkpt lat="55.738300" lon="26.278017">
<ele>149.017700</ele>
<time>2010-07-17T09:52:50Z</time>
<desc>lat.=55.738300, lon.=26.278017, Alt.=149.017700m. Speed=17.892000m/h.</desc>
<speed>4.970000</speed>
</trkpt>
<trkpt lat="55.738285" lon="26.277935">
<ele>148.880981</ele>
<time>2010-07-17T09:52:51Z</time>
<desc>lat.=55.738285, lon.=26.277935, Alt.=148.880981m. Speed=18.216000m/h.</desc>
<speed>5.060000</speed>
</trkpt>
<trkpt lat="55.738266" lon="26.277849">
<ele>149.080200</ele>
<time>2010-07-17T09:52:52Z</time>
<desc>lat.=55.738266, lon.=26.277849, Alt.=149.080200m. Speed=19.980000m/h.</desc>
<speed>5.550000</speed>
</trkpt>
<trkpt lat="55.738251" lon="26.277758">
<ele>149.127075</ele>
<time>2010-07-17T09:52:53Z</time>
<desc>lat.=55.738251, lon.=26.277758, Alt.=149.127075m. Speed=19.836000m/h.</desc>
<speed>5.510000</speed>
</trkpt>
<trkpt lat="55.738239" lon="26.277666">
<ele>148.951294</ele>
<time>2010-07-17T09:52:54Z</time>
<desc>lat.=55.738239, lon.=26.277666, Alt.=148.951294m. Speed=19.584000m/h.</desc>
<speed>5.440000</speed>
</trkpt>
<trkpt lat="55.738228" lon="26.277576">
<ele>149.013794</ele>
<time>2010-07-17T09:52:55Z</time>
<desc>lat.=55.738228, lon.=26.277576, Alt.=149.013794m. Speed=20.052000m/h.</desc>
<speed>5.570000</speed>
</trkpt>
<trkpt lat="55.738216" lon="26.277485">
<ele>149.045044</ele>
<time>2010-07-17T09:52:56Z</time>
<desc>lat.=55.738216, lon.=26.277485, Alt.=149.045044m. Speed=20.483999m/h.</desc>
<speed>5.690000</speed>
</trkpt>
<trkpt lat="55.738205" lon="26.277395">
<ele>149.142700</ele>
<time>2010-07-17T09:52:57Z</time>
<desc>lat.=55.738205, lon.=26.277395, Alt.=149.142700m. Speed=20.195999m/h.</desc>
<speed>5.610000</speed>
</trkpt>
<trkpt lat="55.738190" lon="26.277309">
<ele>149.326294</ele>
<time>2010-07-17T09:52:58Z</time>
<desc>lat.=55.738190, lon.=26.277309, Alt.=149.326294m. Speed=20.340000m/h.</desc>
<speed>5.650000</speed>
</trkpt>
<trkpt lat="55.738182" lon="26.277222">
<ele>149.556763</ele>
<time>2010-07-17T09:52:59Z</time>
<desc>lat.=55.738182, lon.=26.277222, Alt.=149.556763m. Speed=20.448000m/h.</desc>
<speed>5.680000</speed>
</trkpt>
<trkpt lat="55.738171" lon="26.277134">
<ele>149.548950</ele>
<time>2010-07-17T09:53:00Z</time>
<desc>lat.=55.738171, lon.=26.277134, Alt.=149.548950m. Speed=20.375999m/h.</desc>
<speed>5.660000</speed>
</trkpt>
<trkpt lat="55.738163" lon="26.277046">
<ele>149.025513</ele>
<time>2010-07-17T09:53:01Z</time>
<desc>lat.=55.738163, lon.=26.277046, Alt.=149.025513m. Speed=19.584000m/h.</desc>
<speed>5.440000</speed>
</trkpt>
<trkpt lat="55.738155" lon="26.276958">
<ele>148.615356</ele>
<time>2010-07-17T09:53:02Z</time>
<desc>lat.=55.738155, lon.=26.276958, Alt.=148.615356m. Speed=20.016001m/h.</desc>
<speed>5.560000</speed>
</trkpt>
<trkpt lat="55.738144" lon="26.276871">
<ele>148.775513</ele>
<time>2010-07-17T09:53:03Z</time>
<desc>lat.=55.738144, lon.=26.276871, Alt.=148.775513m. Speed=19.476000m/h.</desc>
<speed>5.410000</speed>
</trkpt>
<trkpt lat="55.738136" lon="26.276783">
<ele>148.353638</ele>
<time>2010-07-17T09:53:04Z</time>
<desc>lat.=55.738136, lon.=26.276783, Alt.=148.353638m. Speed=20.195999m/h.</desc>
<speed>5.610000</speed>
</trkpt>
<trkpt lat="55.738125" lon="26.276709">
<ele>148.201294</ele>
<time>2010-07-17T09:53:05Z</time>
<desc>lat.=55.738125, lon.=26.276709, Alt.=148.201294m. Speed=15.768000m/h.</desc>
<speed>4.380000</speed>
</trkpt>
<trkpt lat="55.738121" lon="26.276648">
<ele>147.966919</ele>
<time>2010-07-17T09:53:06Z</time>
<desc>lat.=55.738121, lon.=26.276648, Alt.=147.966919m. Speed=12.312000m/h.</desc>
<speed>3.420000</speed>
</trkpt>
<trkpt lat="55.738117" lon="26.276604">
<ele>147.677856</ele>
<time>2010-07-17T09:53:07Z</time>
<desc>lat.=55.738117, lon.=26.276604, Alt.=147.677856m. Speed=8.928000m/h.</desc>
<speed>2.480000</speed>
</trkpt>
<trkpt lat="55.738113" lon="26.276566">
<ele>147.439575</ele>
<time>2010-07-17T09:53:08Z</time>
<desc>lat.=55.738113, lon.=26.276566, Alt.=147.439575m. Speed=7.380000m/h.</desc>
<speed>2.050000</speed>
</trkpt>
<trkpt lat="55.738110" lon="26.276533">
<ele>147.451294</ele>
<time>2010-07-17T09:53:09Z</time>
<desc>lat.=55.738110, lon.=26.276533, Alt.=147.451294m. Speed=6.912000m/h.</desc>
<speed>1.920000</speed>
</trkpt>
<trkpt lat="55.738102" lon="26.276499">
<ele>147.556763</ele>
<time>2010-07-17T09:53:10Z</time>
<desc>lat.=55.738102, lon.=26.276499, Alt.=147.556763m. Speed=9.396000m/h.</desc>
<speed>2.610000</speed>
</trkpt>
<trkpt lat="55.738098" lon="26.276459">
<ele>147.740356</ele>
<time>2010-07-17T09:53:11Z</time>
<desc>lat.=55.738098, lon.=26.276459, Alt.=147.740356m. Speed=11.160000m/h.</desc>
<speed>3.100000</speed>
</trkpt>
<trkpt lat="55.738083" lon="26.276411">
<ele>147.619263</ele>
<time>2010-07-17T09:53:12Z</time>
<desc>lat.=55.738083, lon.=26.276411, Alt.=147.619263m. Speed=12.888000m/h.</desc>
<speed>3.580000</speed>
</trkpt>
<trkpt lat="55.738075" lon="26.276348">
<ele>147.658325</ele>
<time>2010-07-17T09:53:13Z</time>
<desc>lat.=55.738075, lon.=26.276348, Alt.=147.658325m. Speed=16.344000m/h.</desc>
<speed>4.540000</speed>
</trkpt>
<trkpt lat="55.738064" lon="26.276278">
<ele>147.580200</ele>
<time>2010-07-17T09:53:14Z</time>
<desc>lat.=55.738064, lon.=26.276278, Alt.=147.580200m. Speed=18.072001m/h.</desc>
<speed>5.020000</speed>
</trkpt>
<trkpt lat="55.738056" lon="26.276199">
<ele>147.634888</ele>
<time>2010-07-17T09:53:15Z</time>
<desc>lat.=55.738056, lon.=26.276199, Alt.=147.634888m. Speed=19.332001m/h.</desc>
<speed>5.370000</speed>
</trkpt>
<trkpt lat="55.738049" lon="26.276117">
<ele>148.052856</ele>
<time>2010-07-17T09:53:16Z</time>
<desc>lat.=55.738049, lon.=26.276117, Alt.=148.052856m. Speed=20.520000m/h.</desc>
<speed>5.700000</speed>
</trkpt>
<trkpt lat="55.738037" lon="26.276022">
<ele>148.658325</ele>
<time>2010-07-17T09:53:17Z</time>
<desc>lat.=55.738037, lon.=26.276022, Alt.=148.658325m. Speed=21.563999m/h.</desc>
<speed>5.990000</speed>
</trkpt>
<trkpt lat="55.738033" lon="26.275919">
<ele>151.189575</ele>
<time>2010-07-17T09:53:18Z</time>
<desc>lat.=55.738033, lon.=26.275919, Alt.=151.189575m. Speed=21.672001m/h.</desc>
<speed>6.020000</speed>
</trkpt>
<trkpt lat="55.738026" lon="26.275826">
<ele>151.228638</ele>
<time>2010-07-17T09:53:19Z</time>
<desc>lat.=55.738026, lon.=26.275826, Alt.=151.228638m. Speed=21.851999m/h.</desc>
<speed>6.070000</speed>
</trkpt>
<trkpt lat="55.738018" lon="26.275723">
<ele>151.537231</ele>
<time>2010-07-17T09:53:20Z</time>
<desc>lat.=55.738018, lon.=26.275723, Alt.=151.537231m. Speed=22.716000m/h.</desc>
<speed>6.310000</speed>
</trkpt>
<trkpt lat="55.738007" lon="26.275623">
<ele>151.556763</ele>
<time>2010-07-17T09:53:21Z</time>
<desc>lat.=55.738007, lon.=26.275623, Alt.=151.556763m. Speed=22.535999m/h.</desc>
<speed>6.260000</speed>
</trkpt>
<trkpt lat="55.737995" lon="26.275517">
<ele>151.564575</ele>
<time>2010-07-17T09:53:22Z</time>
<desc>lat.=55.737995, lon.=26.275517, Alt.=151.564575m. Speed=22.680000m/h.</desc>
<speed>6.300000</speed>
</trkpt>
<trkpt lat="55.737980" lon="26.275419">
<ele>151.822388</ele>
<time>2010-07-17T09:53:23Z</time>
<desc>lat.=55.737980, lon.=26.275419, Alt.=151.822388m. Speed=21.924000m/h.</desc>
<speed>6.090000</speed>
</trkpt>
<trkpt lat="55.737965" lon="26.275316">
<ele>152.150513</ele>
<time>2010-07-17T09:53:24Z</time>
<desc>lat.=55.737965, lon.=26.275316, Alt.=152.150513m. Speed=22.572001m/h.</desc>
<speed>6.270000</speed>
</trkpt>
<trkpt lat="55.737946" lon="26.275217">
<ele>152.150513</ele>
<time>2010-07-17T09:53:25Z</time>
<desc>lat.=55.737946, lon.=26.275217, Alt.=152.150513m. Speed=22.356001m/h.</desc>
<speed>6.210000</speed>
</trkpt>
<trkpt lat="55.737926" lon="26.275120">
<ele>152.244263</ele>
<time>2010-07-17T09:53:26Z</time>
<desc>lat.=55.737926, lon.=26.275120, Alt.=152.244263m. Speed=22.320000m/h.</desc>
<speed>6.200000</speed>
</trkpt>
<trkpt lat="55.737907" lon="26.275023">
<ele>152.232544</ele>
<time>2010-07-17T09:53:27Z</time>
<desc>lat.=55.737907, lon.=26.275023, Alt.=152.232544m. Speed=22.608000m/h.</desc>
<speed>6.280000</speed>
</trkpt>
<trkpt lat="55.737892" lon="26.274933">
<ele>152.181763</ele>
<time>2010-07-17T09:53:28Z</time>
<desc>lat.=55.737892, lon.=26.274933, Alt.=152.181763m. Speed=22.176001m/h.</desc>
<speed>6.160000</speed>
</trkpt>
<trkpt lat="55.737881" lon="26.274830">
<ele>152.427856</ele>
<time>2010-07-17T09:53:29Z</time>
<desc>lat.=55.737881, lon.=26.274830, Alt.=152.427856m. Speed=22.608000m/h.</desc>
<speed>6.280000</speed>
</trkpt>
<trkpt lat="55.737869" lon="26.274733">
<ele>152.400513</ele>
<time>2010-07-17T09:53:30Z</time>
<desc>lat.=55.737869, lon.=26.274733, Alt.=152.400513m. Speed=22.068001m/h.</desc>
<speed>6.130000</speed>
</trkpt>
<trkpt lat="55.737858" lon="26.274637">
<ele>152.880981</ele>
<time>2010-07-17T09:53:31Z</time>
<desc>lat.=55.737858, lon.=26.274637, Alt.=152.880981m. Speed=22.212000m/h.</desc>
<speed>6.170000</speed>
</trkpt>
<trkpt lat="55.737846" lon="26.274540">
<ele>152.966919</ele>
<time>2010-07-17T09:53:32Z</time>
<desc>lat.=55.737846, lon.=26.274540, Alt.=152.966919m. Speed=22.247999m/h.</desc>
<speed>6.180000</speed>
</trkpt>
<trkpt lat="55.737831" lon="26.274441">
<ele>152.845825</ele>
<time>2010-07-17T09:53:33Z</time>
<desc>lat.=55.737831, lon.=26.274441, Alt.=152.845825m. Speed=23.400000m/h.</desc>
<speed>6.500000</speed>
</trkpt>
<trkpt lat="55.737820" lon="26.274336">
<ele>152.947388</ele>
<time>2010-07-17T09:53:34Z</time>
<desc>lat.=55.737820, lon.=26.274336, Alt.=152.947388m. Speed=24.948000m/h.</desc>
<speed>6.930000</speed>
</trkpt>
<trkpt lat="55.737804" lon="26.274221">
<ele>153.291138</ele>
<time>2010-07-17T09:53:35Z</time>
<desc>lat.=55.737804, lon.=26.274221, Alt.=153.291138m. Speed=25.920000m/h.</desc>
<speed>7.200000</speed>
</trkpt>
<trkpt lat="55.737789" lon="26.274111">
<ele>153.388794</ele>
<time>2010-07-17T09:53:36Z</time>
<desc>lat.=55.737789, lon.=26.274111, Alt.=153.388794m. Speed=25.740000m/h.</desc>
<speed>7.150000</speed>
</trkpt>
<trkpt lat="55.737770" lon="26.273996">
<ele>153.021606</ele>
<time>2010-07-17T09:53:37Z</time>
<desc>lat.=55.737770, lon.=26.273996, Alt.=153.021606m. Speed=25.128000m/h.</desc>
<speed>6.980000</speed>
</trkpt>
<trkpt lat="55.737751" lon="26.273890">
<ele>152.627075</ele>
<time>2010-07-17T09:53:38Z</time>
<desc>lat.=55.737751, lon.=26.273890, Alt.=152.627075m. Speed=26.351999m/h.</desc>
<speed>7.320000</speed>
</trkpt>
<trkpt lat="55.737740" lon="26.273777">
<ele>151.861450</ele>
<time>2010-07-17T09:53:39Z</time>
<desc>lat.=55.737740, lon.=26.273777, Alt.=151.861450m. Speed=26.172001m/h.</desc>
<speed>7.270000</speed>
</trkpt>
<trkpt lat="55.737724" lon="26.273668">
<ele>151.681763</ele>
<time>2010-07-17T09:53:40Z</time>
<desc>lat.=55.737724, lon.=26.273668, Alt.=151.681763m. Speed=26.172001m/h.</desc>
<speed>7.270000</speed>
</trkpt>
<trkpt lat="55.737705" lon="26.273573">
<ele>151.697388</ele>
<time>2010-07-17T09:53:41Z</time>
<desc>lat.=55.737705, lon.=26.273573, Alt.=151.697388m. Speed=25.488001m/h.</desc>
<speed>7.080000</speed>
</trkpt>
<trkpt lat="55.737690" lon="26.273468">
<ele>151.103638</ele>
<time>2010-07-17T09:53:42Z</time>
<desc>lat.=55.737690, lon.=26.273468, Alt.=151.103638m. Speed=25.704000m/h.</desc>
<speed>7.140000</speed>
</trkpt>
<trkpt lat="55.737667" lon="26.273354">
<ele>150.720825</ele>
<time>2010-07-17T09:53:43Z</time>
<desc>lat.=55.737667, lon.=26.273354, Alt.=150.720825m. Speed=26.280001m/h.</desc>
<speed>7.300000</speed>
</trkpt>
<trkpt lat="55.737652" lon="26.273241">
<ele>150.630981</ele>
<time>2010-07-17T09:53:44Z</time>
<desc>lat.=55.737652, lon.=26.273241, Alt.=150.630981m. Speed=25.236000m/h.</desc>
<speed>7.010000</speed>
</trkpt>
<trkpt lat="55.737637" lon="26.273129">
<ele>150.670044</ele>
<time>2010-07-17T09:53:45Z</time>
<desc>lat.=55.737637, lon.=26.273129, Alt.=150.670044m. Speed=25.740000m/h.</desc>
<speed>7.150000</speed>
</trkpt>
<trkpt lat="55.737625" lon="26.273012">
<ele>150.759888</ele>
<time>2010-07-17T09:53:46Z</time>
<desc>lat.=55.737625, lon.=26.273012, Alt.=150.759888m. Speed=26.496000m/h.</desc>
<speed>7.360000</speed>
</trkpt>
<trkpt lat="55.737614" lon="26.272888">
<ele>150.943481</ele>
<time>2010-07-17T09:53:47Z</time>
<desc>lat.=55.737614, lon.=26.272888, Alt.=150.943481m. Speed=25.596001m/h.</desc>
<speed>7.110000</speed>
</trkpt>
<trkpt lat="55.737602" lon="26.272770">
<ele>151.138794</ele>
<time>2010-07-17T09:53:48Z</time>
<desc>lat.=55.737602, lon.=26.272770, Alt.=151.138794m. Speed=25.992001m/h.</desc>
<speed>7.220000</speed>
</trkpt>
<trkpt lat="55.737591" lon="26.272646">
<ele>150.318481</ele>
<time>2010-07-17T09:53:49Z</time>
<desc>lat.=55.737591, lon.=26.272646, Alt.=150.318481m. Speed=27.252001m/h.</desc>
<speed>7.570000</speed>
</trkpt>
<trkpt lat="55.737579" lon="26.272528">
<ele>150.306763</ele>
<time>2010-07-17T09:53:50Z</time>
<desc>lat.=55.737579, lon.=26.272528, Alt.=150.306763m. Speed=26.784000m/h.</desc>
<speed>7.440000</speed>
</trkpt>
<trkpt lat="55.737568" lon="26.272409">
<ele>150.033325</ele>
<time>2010-07-17T09:53:51Z</time>
<desc>lat.=55.737568, lon.=26.272409, Alt.=150.033325m. Speed=26.459999m/h.</desc>
<speed>7.350000</speed>
</trkpt>
<trkpt lat="55.737556" lon="26.272289">
<ele>149.545044</ele>
<time>2010-07-17T09:53:52Z</time>
<desc>lat.=55.737556, lon.=26.272289, Alt.=149.545044m. Speed=26.712000m/h.</desc>
<speed>7.420000</speed>
</trkpt>
<trkpt lat="55.737541" lon="26.272173">
<ele>149.134888</ele>
<time>2010-07-17T09:53:53Z</time>
<desc>lat.=55.737541, lon.=26.272173, Alt.=149.134888m. Speed=26.892000m/h.</desc>
<speed>7.470000</speed>
</trkpt>
<trkpt lat="55.737522" lon="26.272068">
<ele>148.142700</ele>
<time>2010-07-17T09:53:54Z</time>
<desc>lat.=55.737522, lon.=26.272068, Alt.=148.142700m. Speed=26.820000m/h.</desc>
<speed>7.450000</speed>
</trkpt>
<trkpt lat="55.737503" lon="26.271963">
<ele>147.138794</ele>
<time>2010-07-17T09:53:55Z</time>
<desc>lat.=55.737503, lon.=26.271963, Alt.=147.138794m. Speed=25.884001m/h.</desc>
<speed>7.190000</speed>
</trkpt>
<trkpt lat="55.737488" lon="26.271851">
<ele>146.455200</ele>
<time>2010-07-17T09:53:56Z</time>
<desc>lat.=55.737488, lon.=26.271851, Alt.=146.455200m. Speed=27.864000m/h.</desc>
<speed>7.740000</speed>
</trkpt>
<trkpt lat="55.737473" lon="26.271734">
<ele>145.697388</ele>
<time>2010-07-17T09:53:57Z</time>
<desc>lat.=55.737473, lon.=26.271734, Alt.=145.697388m. Speed=26.604000m/h.</desc>
<speed>7.390000</speed>
</trkpt>
<trkpt lat="55.737457" lon="26.271620">
<ele>144.935669</ele>
<time>2010-07-17T09:53:58Z</time>
<desc>lat.=55.737457, lon.=26.271620, Alt.=144.935669m. Speed=25.740000m/h.</desc>
<speed>7.150000</speed>
</trkpt>
<trkpt lat="55.737438" lon="26.271507">
<ele>144.955200</ele>
<time>2010-07-17T09:53:59Z</time>
<desc>lat.=55.737438, lon.=26.271507, Alt.=144.955200m. Speed=25.704000m/h.</desc>
<speed>7.140000</speed>
</trkpt>
<trkpt lat="55.737423" lon="26.271395">
<ele>144.681763</ele>
<time>2010-07-17T09:54:00Z</time>
<desc>lat.=55.737423, lon.=26.271395, Alt.=144.681763m. Speed=25.344000m/h.</desc>
<speed>7.040000</speed>
</trkpt>
<trkpt lat="55.737408" lon="26.271296">
<ele>144.498169</ele>
<time>2010-07-17T09:54:01Z</time>
<desc>lat.=55.737408, lon.=26.271296, Alt.=144.498169m. Speed=22.356001m/h.</desc>
<speed>6.210000</speed>
</trkpt>
<trkpt lat="55.737392" lon="26.271206">
<ele>144.263794</ele>
<time>2010-07-17T09:54:02Z</time>
<desc>lat.=55.737392, lon.=26.271206, Alt.=144.263794m. Speed=22.464001m/h.</desc>
<speed>6.240000</speed>
</trkpt>
<trkpt lat="55.737373" lon="26.271114">
<ele>143.666138</ele>
<time>2010-07-17T09:54:03Z</time>
<desc>lat.=55.737373, lon.=26.271114, Alt.=143.666138m. Speed=22.500000m/h.</desc>
<speed>6.250000</speed>
</trkpt>
<trkpt lat="55.737354" lon="26.271019">
<ele>143.255981</ele>
<time>2010-07-17T09:54:04Z</time>
<desc>lat.=55.737354, lon.=26.271019, Alt.=143.255981m. Speed=21.600000m/h.</desc>
<speed>6.000000</speed>
</trkpt>
<trkpt lat="55.737343" lon="26.270916">
<ele>143.068481</ele>
<time>2010-07-17T09:54:05Z</time>
<desc>lat.=55.737343, lon.=26.270916, Alt.=143.068481m. Speed=21.996000m/h.</desc>
<speed>6.110000</speed>
</trkpt>
<trkpt lat="55.737328" lon="26.270817">
<ele>142.810669</ele>
<time>2010-07-17T09:54:06Z</time>
<desc>lat.=55.737328, lon.=26.270817, Alt.=142.810669m. Speed=22.392000m/h.</desc>
<speed>6.220000</speed>
</trkpt>
<trkpt lat="55.737312" lon="26.270716">
<ele>142.724731</ele>
<time>2010-07-17T09:54:07Z</time>
<desc>lat.=55.737312, lon.=26.270716, Alt.=142.724731m. Speed=20.952000m/h.</desc>
<speed>5.820000</speed>
</trkpt>
<trkpt lat="55.737301" lon="26.270620">
<ele>142.689575</ele>
<time>2010-07-17T09:54:08Z</time>
<desc>lat.=55.737301, lon.=26.270620, Alt.=142.689575m. Speed=21.420000m/h.</desc>
<speed>5.950000</speed>
</trkpt>
<trkpt lat="55.737293" lon="26.270508">
<ele>142.709106</ele>
<time>2010-07-17T09:54:09Z</time>
<desc>lat.=55.737293, lon.=26.270508, Alt.=142.709106m. Speed=22.680000m/h.</desc>
<speed>6.300000</speed>
</trkpt>
<trkpt lat="55.737278" lon="26.270409">
<ele>142.732544</ele>
<time>2010-07-17T09:54:10Z</time>
<desc>lat.=55.737278, lon.=26.270409, Alt.=142.732544m. Speed=22.139999m/h.</desc>
<speed>6.150000</speed>
</trkpt>
<trkpt lat="55.737267" lon="26.270306">
<ele>142.603638</ele>
<time>2010-07-17T09:54:11Z</time>
<desc>lat.=55.737267, lon.=26.270306, Alt.=142.603638m. Speed=22.535999m/h.</desc>
<speed>6.260000</speed>
</trkpt>
<trkpt lat="55.737259" lon="26.270201">
<ele>142.580200</ele>
<time>2010-07-17T09:54:12Z</time>
<desc>lat.=55.737259, lon.=26.270201, Alt.=142.580200m. Speed=22.680000m/h.</desc>
<speed>6.300000</speed>
</trkpt>
<trkpt lat="55.737247" lon="26.270096">
<ele>142.431763</ele>
<time>2010-07-17T09:54:13Z</time>
<desc>lat.=55.737247, lon.=26.270096, Alt.=142.431763m. Speed=23.724001m/h.</desc>
<speed>6.590000</speed>
</trkpt>
<trkpt lat="55.737236" lon="26.269999">
<ele>142.134888</ele>
<time>2010-07-17T09:54:14Z</time>
<desc>lat.=55.737236, lon.=26.269999, Alt.=142.134888m. Speed=22.176001m/h.</desc>
<speed>6.160000</speed>
</trkpt>
<trkpt lat="55.737228" lon="26.269903">
<ele>141.771606</ele>
<time>2010-07-17T09:54:15Z</time>
<desc>lat.=55.737228, lon.=26.269903, Alt.=141.771606m. Speed=22.068001m/h.</desc>
<speed>6.130000</speed>
</trkpt>
<trkpt lat="55.737209" lon="26.269808">
<ele>141.455200</ele>
<time>2010-07-17T09:54:16Z</time>
<desc>lat.=55.737209, lon.=26.269808, Alt.=141.455200m. Speed=21.743999m/h.</desc>
<speed>6.040000</speed>
</trkpt>
<trkpt lat="55.737206" lon="26.269711">
<ele>141.478638</ele>
<time>2010-07-17T09:54:17Z</time>
<desc>lat.=55.737206, lon.=26.269711, Alt.=141.478638m. Speed=20.412001m/h.</desc>
<speed>5.670000</speed>
</trkpt>
<trkpt lat="55.737198" lon="26.269629">
<ele>141.662231</ele>
<time>2010-07-17T09:54:18Z</time>
<desc>lat.=55.737198, lon.=26.269629, Alt.=141.662231m. Speed=19.476000m/h.</desc>
<speed>5.410000</speed>
</trkpt>
<trkpt lat="55.737190" lon="26.269537">
<ele>141.443481</ele>
<time>2010-07-17T09:54:19Z</time>
<desc>lat.=55.737190, lon.=26.269537, Alt.=141.443481m. Speed=20.160000m/h.</desc>
<speed>5.600000</speed>
</trkpt>
<trkpt lat="55.737179" lon="26.269449">
<ele>141.162231</ele>
<time>2010-07-17T09:54:20Z</time>
<desc>lat.=55.737179, lon.=26.269449, Alt.=141.162231m. Speed=20.232000m/h.</desc>
<speed>5.620000</speed>
</trkpt>
<trkpt lat="55.737175" lon="26.269363">
<ele>141.255981</ele>
<time>2010-07-17T09:54:21Z</time>
<desc>lat.=55.737175, lon.=26.269363, Alt.=141.255981m. Speed=19.511999m/h.</desc>
<speed>5.420000</speed>
</trkpt>
<trkpt lat="55.737164" lon="26.269279">
<ele>142.060669</ele>
<time>2010-07-17T09:54:22Z</time>
<desc>lat.=55.737164, lon.=26.269279, Alt.=142.060669m. Speed=19.764000m/h.</desc>
<speed>5.490000</speed>
</trkpt>
<trkpt lat="55.737156" lon="26.269184">
<ele>142.556763</ele>
<time>2010-07-17T09:54:23Z</time>
<desc>lat.=55.737156, lon.=26.269184, Alt.=142.556763m. Speed=18.827999m/h.</desc>
<speed>5.230000</speed>
</trkpt>
<trkpt lat="55.737144" lon="26.269108">
<ele>142.638794</ele>
<time>2010-07-17T09:54:24Z</time>
<desc>lat.=55.737144, lon.=26.269108, Alt.=142.638794m. Speed=18.288000m/h.</desc>
<speed>5.080000</speed>
</trkpt>
<trkpt lat="55.737133" lon="26.269024">
<ele>142.736450</ele>
<time>2010-07-17T09:54:25Z</time>
<desc>lat.=55.737133, lon.=26.269024, Alt.=142.736450m. Speed=19.080000m/h.</desc>
<speed>5.300000</speed>
</trkpt>
<trkpt lat="55.737118" lon="26.268948">
<ele>142.978638</ele>
<time>2010-07-17T09:54:26Z</time>
<desc>lat.=55.737118, lon.=26.268948, Alt.=142.978638m. Speed=18.288000m/h.</desc>
<speed>5.080000</speed>
</trkpt>
<trkpt lat="55.737106" lon="26.268871">
<ele>142.838013</ele>
<time>2010-07-17T09:54:27Z</time>
<desc>lat.=55.737106, lon.=26.268871, Alt.=142.838013m. Speed=17.568001m/h.</desc>
<speed>4.880000</speed>
</trkpt>
<trkpt lat="55.737099" lon="26.268799">
<ele>142.943481</ele>
<time>2010-07-17T09:54:28Z</time>
<desc>lat.=55.737099, lon.=26.268799, Alt.=142.943481m. Speed=16.056000m/h.</desc>
<speed>4.460000</speed>
</trkpt>
<trkpt lat="55.737087" lon="26.268726">
<ele>142.814575</ele>
<time>2010-07-17T09:54:29Z</time>
<desc>lat.=55.737087, lon.=26.268726, Alt.=142.814575m. Speed=16.632000m/h.</desc>
<speed>4.620000</speed>
</trkpt>
<trkpt lat="55.737080" lon="26.268644">
<ele>142.373169</ele>
<time>2010-07-17T09:54:30Z</time>
<desc>lat.=55.737080, lon.=26.268644, Alt.=142.373169m. Speed=16.704000m/h.</desc>
<speed>4.640000</speed>
</trkpt>
<trkpt lat="55.737068" lon="26.268574">
<ele>142.322388</ele>
<time>2010-07-17T09:54:31Z</time>
<desc>lat.=55.737068, lon.=26.268574, Alt.=142.322388m. Speed=15.048000m/h.</desc>
<speed>4.180000</speed>
</trkpt>
<trkpt lat="55.737061" lon="26.268501">
<ele>142.759888</ele>
<time>2010-07-17T09:54:32Z</time>
<desc>lat.=55.737061, lon.=26.268501, Alt.=142.759888m. Speed=15.840000m/h.</desc>
<speed>4.400000</speed>
</trkpt>
<trkpt lat="55.737053" lon="26.268429">
<ele>143.369263</ele>
<time>2010-07-17T09:54:33Z</time>
<desc>lat.=55.737053, lon.=26.268429, Alt.=143.369263m. Speed=15.948000m/h.</desc>
<speed>4.430000</speed>
</trkpt>
<trkpt lat="55.737045" lon="26.268353">
<ele>144.037231</ele>
<time>2010-07-17T09:54:34Z</time>
<desc>lat.=55.737045, lon.=26.268353, Alt.=144.037231m. Speed=16.596001m/h.</desc>
<speed>4.610000</speed>
</trkpt>
<trkpt lat="55.737034" lon="26.268276">
<ele>144.263794</ele>
<time>2010-07-17T09:54:35Z</time>
<desc>lat.=55.737034, lon.=26.268276, Alt.=144.263794m. Speed=16.884001m/h.</desc>
<speed>4.690000</speed>
</trkpt>
<trkpt lat="55.737011" lon="26.268192">
<ele>145.232544</ele>
<time>2010-07-17T09:54:36Z</time>
<desc>lat.=55.737011, lon.=26.268192, Alt.=145.232544m. Speed=17.532000m/h.</desc>
<speed>4.870000</speed>
</trkpt>
<trkpt lat="55.736992" lon="26.268110">
<ele>145.666138</ele>
<time>2010-07-17T09:54:37Z</time>
<desc>lat.=55.736992, lon.=26.268110, Alt.=145.666138m. Speed=17.532000m/h.</desc>
<speed>4.870000</speed>
</trkpt>
<trkpt lat="55.736980" lon="26.268038">
<ele>146.177856</ele>
<time>2010-07-17T09:54:38Z</time>
<desc>lat.=55.736980, lon.=26.268038, Alt.=146.177856m. Speed=16.488001m/h.</desc>
<speed>4.580000</speed>
</trkpt>
<trkpt lat="55.736973" lon="26.267971">
<ele>146.744263</ele>
<time>2010-07-17T09:54:39Z</time>
<desc>lat.=55.736973, lon.=26.267971, Alt.=146.744263m. Speed=15.552000m/h.</desc>
<speed>4.320000</speed>
</trkpt>
<trkpt lat="55.736958" lon="26.267904">
<ele>147.572388</ele>
<time>2010-07-17T09:54:40Z</time>
<desc>lat.=55.736958, lon.=26.267904, Alt.=147.572388m. Speed=15.984000m/h.</desc>
<speed>4.440000</speed>
</trkpt>
<trkpt lat="55.736946" lon="26.267838">
<ele>147.595825</ele>
<time>2010-07-17T09:54:41Z</time>
<desc>lat.=55.736946, lon.=26.267838, Alt.=147.595825m. Speed=16.091999m/h.</desc>
<speed>4.470000</speed>
</trkpt>
<trkpt lat="55.736931" lon="26.267771">
<ele>147.373169</ele>
<time>2010-07-17T09:54:42Z</time>
<desc>lat.=55.736931, lon.=26.267771, Alt.=147.373169m. Speed=16.416000m/h.</desc>
<speed>4.560000</speed>
</trkpt>
<trkpt lat="55.736916" lon="26.267694">
<ele>147.545044</ele>
<time>2010-07-17T09:54:43Z</time>
<desc>lat.=55.736916, lon.=26.267694, Alt.=147.545044m. Speed=18.072001m/h.</desc>
<speed>5.020000</speed>
</trkpt>
<trkpt lat="55.736900" lon="26.267614">
<ele>147.572388</ele>
<time>2010-07-17T09:54:44Z</time>
<desc>lat.=55.736900, lon.=26.267614, Alt.=147.572388m. Speed=18.323999m/h.</desc>
<speed>5.090000</speed>
</trkpt>
<trkpt lat="55.736885" lon="26.267534">
<ele>147.459106</ele>
<time>2010-07-17T09:54:45Z</time>
<desc>lat.=55.736885, lon.=26.267534, Alt.=147.459106m. Speed=18.540001m/h.</desc>
<speed>5.150000</speed>
</trkpt>
<trkpt lat="55.736870" lon="26.267458">
<ele>147.427856</ele>
<time>2010-07-17T09:54:46Z</time>
<desc>lat.=55.736870, lon.=26.267458, Alt.=147.427856m. Speed=18.612000m/h.</desc>
<speed>5.170000</speed>
</trkpt>
<trkpt lat="55.736851" lon="26.267382">
<ele>147.408325</ele>
<time>2010-07-17T09:54:47Z</time>
<desc>lat.=55.736851, lon.=26.267382, Alt.=147.408325m. Speed=18.108000m/h.</desc>
<speed>5.030000</speed>
</trkpt>
<trkpt lat="55.736835" lon="26.267309">
<ele>148.005981</ele>
<time>2010-07-17T09:54:48Z</time>
<desc>lat.=55.736835, lon.=26.267309, Alt.=148.005981m. Speed=17.927999m/h.</desc>
<speed>4.980000</speed>
</trkpt>
<trkpt lat="55.736820" lon="26.267237">
<ele>147.427856</ele>
<time>2010-07-17T09:54:49Z</time>
<desc>lat.=55.736820, lon.=26.267237, Alt.=147.427856m. Speed=17.784000m/h.</desc>
<speed>4.940000</speed>
</trkpt>
<trkpt lat="55.736805" lon="26.267157">
<ele>147.404419</ele>
<time>2010-07-17T09:54:50Z</time>
<desc>lat.=55.736805, lon.=26.267157, Alt.=147.404419m. Speed=18.108000m/h.</desc>
<speed>5.030000</speed>
</trkpt>
<trkpt lat="55.736786" lon="26.267078">
<ele>147.619263</ele>
<time>2010-07-17T09:54:51Z</time>
<desc>lat.=55.736786, lon.=26.267078, Alt.=147.619263m. Speed=19.044001m/h.</desc>
<speed>5.290000</speed>
</trkpt>
<trkpt lat="55.736763" lon="26.267000">
<ele>147.728638</ele>
<time>2010-07-17T09:54:52Z</time>
<desc>lat.=55.736763, lon.=26.267000, Alt.=147.728638m. Speed=18.936001m/h.</desc>
<speed>5.260000</speed>
</trkpt>
<trkpt lat="55.736744" lon="26.266924">
<ele>147.752075</ele>
<time>2010-07-17T09:54:53Z</time>
<desc>lat.=55.736744, lon.=26.266924, Alt.=147.752075m. Speed=19.691999m/h.</desc>
<speed>5.470000</speed>
</trkpt>
<trkpt lat="55.736729" lon="26.266832">
<ele>147.459106</ele>
<time>2010-07-17T09:54:54Z</time>
<desc>lat.=55.736729, lon.=26.266832, Alt.=147.459106m. Speed=20.375999m/h.</desc>
<speed>5.660000</speed>
</trkpt>
<trkpt lat="55.736710" lon="26.266741">
<ele>147.420044</ele>
<time>2010-07-17T09:54:55Z</time>
<desc>lat.=55.736710, lon.=26.266741, Alt.=147.420044m. Speed=20.700001m/h.</desc>
<speed>5.750000</speed>
</trkpt>
<trkpt lat="55.736687" lon="26.266655">
<ele>146.861450</ele>
<time>2010-07-17T09:54:56Z</time>
<desc>lat.=55.736687, lon.=26.266655, Alt.=146.861450m. Speed=20.879999m/h.</desc>
<speed>5.800000</speed>
</trkpt>
<trkpt lat="55.736664" lon="26.266565">
<ele>147.095825</ele>
<time>2010-07-17T09:54:57Z</time>
<desc>lat.=55.736664, lon.=26.266565, Alt.=147.095825m. Speed=21.132000m/h.</desc>
<speed>5.870000</speed>
</trkpt>
<trkpt lat="55.736641" lon="26.266476">
<ele>147.955200</ele>
<time>2010-07-17T09:54:58Z</time>
<desc>lat.=55.736641, lon.=26.266476, Alt.=147.955200m. Speed=22.032000m/h.</desc>
<speed>6.120000</speed>
</trkpt>
<trkpt lat="55.736618" lon="26.266386">
<ele>148.099731</ele>
<time>2010-07-17T09:54:59Z</time>
<desc>lat.=55.736618, lon.=26.266386, Alt.=148.099731m. Speed=22.716000m/h.</desc>
<speed>6.310000</speed>
</trkpt>
<trkpt lat="55.736595" lon="26.266298">
<ele>148.197388</ele>
<time>2010-07-17T09:55:00Z</time>
<desc>lat.=55.736595, lon.=26.266298, Alt.=148.197388m. Speed=23.292000m/h.</desc>
<speed>6.470000</speed>
</trkpt>
<trkpt lat="55.736572" lon="26.266207">
<ele>148.302856</ele>
<time>2010-07-17T09:55:01Z</time>
<desc>lat.=55.736572, lon.=26.266207, Alt.=148.302856m. Speed=23.364000m/h.</desc>
<speed>6.490000</speed>
</trkpt>
<trkpt lat="55.736542" lon="26.266117">
<ele>148.052856</ele>
<time>2010-07-17T09:55:02Z</time>
<desc>lat.=55.736542, lon.=26.266117, Alt.=148.052856m. Speed=22.643999m/h.</desc>
<speed>6.290000</speed>
</trkpt>
<trkpt lat="55.736519" lon="26.266033">
<ele>146.677856</ele>
<time>2010-07-17T09:55:03Z</time>
<desc>lat.=55.736519, lon.=26.266033, Alt.=146.677856m. Speed=21.743999m/h.</desc>
<speed>6.040000</speed>
</trkpt>
<trkpt lat="55.736496" lon="26.265949">
<ele>146.509888</ele>
<time>2010-07-17T09:55:04Z</time>
<desc>lat.=55.736496, lon.=26.265949, Alt.=146.509888m. Speed=20.016001m/h.</desc>
<speed>5.560000</speed>
</trkpt>
<trkpt lat="55.736477" lon="26.265858">
<ele>146.517700</ele>
<time>2010-07-17T09:55:05Z</time>
<desc>lat.=55.736477, lon.=26.265858, Alt.=146.517700m. Speed=20.844000m/h.</desc>
<speed>5.790000</speed>
</trkpt>
<trkpt lat="55.736454" lon="26.265772">
<ele>146.916138</ele>
<time>2010-07-17T09:55:06Z</time>
<desc>lat.=55.736454, lon.=26.265772, Alt.=146.916138m. Speed=20.052000m/h.</desc>
<speed>5.570000</speed>
</trkpt>
<trkpt lat="55.736427" lon="26.265696">
<ele>147.287231</ele>
<time>2010-07-17T09:55:07Z</time>
<desc>lat.=55.736427, lon.=26.265696, Alt.=147.287231m. Speed=20.736000m/h.</desc>
<speed>5.760000</speed>
</trkpt>
<trkpt lat="55.736401" lon="26.265621">
<ele>147.076294</ele>
<time>2010-07-17T09:55:08Z</time>
<desc>lat.=55.736401, lon.=26.265621, Alt.=147.076294m. Speed=20.520000m/h.</desc>
<speed>5.700000</speed>
</trkpt>
<trkpt lat="55.736374" lon="26.265535">
<ele>146.099731</ele>
<time>2010-07-17T09:55:09Z</time>
<desc>lat.=55.736374, lon.=26.265535, Alt.=146.099731m. Speed=21.096001m/h.</desc>
<speed>5.860000</speed>
</trkpt>
<trkpt lat="55.736351" lon="26.265451">
<ele>145.615356</ele>
<time>2010-07-17T09:55:10Z</time>
<desc>lat.=55.736351, lon.=26.265451, Alt.=145.615356m. Speed=20.195999m/h.</desc>
<speed>5.610000</speed>
</trkpt>
<trkpt lat="55.736336" lon="26.265377">
<ele>144.787231</ele>
<time>2010-07-17T09:55:11Z</time>
<desc>lat.=55.736336, lon.=26.265377, Alt.=144.787231m. Speed=18.900000m/h.</desc>
<speed>5.250000</speed>
</trkpt>
<trkpt lat="55.736313" lon="26.265301">
<ele>143.830200</ele>
<time>2010-07-17T09:55:12Z</time>
<desc>lat.=55.736313, lon.=26.265301, Alt.=143.830200m. Speed=19.656000m/h.</desc>
<speed>5.460000</speed>
</trkpt>
<trkpt lat="55.736294" lon="26.265217">
<ele>143.709106</ele>
<time>2010-07-17T09:55:13Z</time>
<desc>lat.=55.736294, lon.=26.265217, Alt.=143.709106m. Speed=18.108000m/h.</desc>
<speed>5.030000</speed>
</trkpt>
<trkpt lat="55.736275" lon="26.265141">
<ele>143.326294</ele>
<time>2010-07-17T09:55:14Z</time>
<desc>lat.=55.736275, lon.=26.265141, Alt.=143.326294m. Speed=16.559999m/h.</desc>
<speed>4.600000</speed>
</trkpt>
<trkpt lat="55.736252" lon="26.265064">
<ele>142.560669</ele>
<time>2010-07-17T09:55:15Z</time>
<desc>lat.=55.736252, lon.=26.265064, Alt.=142.560669m. Speed=15.804000m/h.</desc>
<speed>4.390000</speed>
</trkpt>
<trkpt lat="55.736237" lon="26.265001">
<ele>142.470825</ele>
<time>2010-07-17T09:55:16Z</time>
<desc>lat.=55.736237, lon.=26.265001, Alt.=142.470825m. Speed=14.868000m/h.</desc>
<speed>4.130000</speed>
</trkpt>
<trkpt lat="55.736221" lon="26.264936">
<ele>142.685669</ele>
<time>2010-07-17T09:55:17Z</time>
<desc>lat.=55.736221, lon.=26.264936, Alt.=142.685669m. Speed=14.796000m/h.</desc>
<speed>4.110000</speed>
</trkpt>
<trkpt lat="55.736210" lon="26.264883">
<ele>142.990356</ele>
<time>2010-07-17T09:55:18Z</time>
<desc>lat.=55.736210, lon.=26.264883, Alt.=142.990356m. Speed=12.024000m/h.</desc>
<speed>3.340000</speed>
</trkpt>
<trkpt lat="55.736195" lon="26.264826">
<ele>143.048950</ele>
<time>2010-07-17T09:55:19Z</time>
<desc>lat.=55.736195, lon.=26.264826, Alt.=143.048950m. Speed=13.500000m/h.</desc>
<speed>3.750000</speed>
</trkpt>
<trkpt lat="55.736183" lon="26.264780">
<ele>143.185669</ele>
<time>2010-07-17T09:55:20Z</time>
<desc>lat.=55.736183, lon.=26.264780, Alt.=143.185669m. Speed=12.996000m/h.</desc>
<speed>3.610000</speed>
</trkpt>
<trkpt lat="55.736172" lon="26.264730">
<ele>143.045044</ele>
<time>2010-07-17T09:55:21Z</time>
<desc>lat.=55.736172, lon.=26.264730, Alt.=143.045044m. Speed=12.384000m/h.</desc>
<speed>3.440000</speed>
</trkpt>
<trkpt lat="55.736164" lon="26.264679">
<ele>143.002075</ele>
<time>2010-07-17T09:55:22Z</time>
<desc>lat.=55.736164, lon.=26.264679, Alt.=143.002075m. Speed=11.448000m/h.</desc>
<speed>3.180000</speed>
</trkpt>
<trkpt lat="55.736160" lon="26.264641">
<ele>143.427856</ele>
<time>2010-07-17T09:55:23Z</time>
<desc>lat.=55.736160, lon.=26.264641, Alt.=143.427856m. Speed=9.972000m/h.</desc>
<speed>2.770000</speed>
</trkpt>
<trkpt lat="55.736149" lon="26.264591">
<ele>143.084106</ele>
<time>2010-07-17T09:55:24Z</time>
<desc>lat.=55.736149, lon.=26.264591, Alt.=143.084106m. Speed=9.468000m/h.</desc>
<speed>2.630000</speed>
</trkpt>
<trkpt lat="55.736137" lon="26.264542">
<ele>142.857544</ele>
<time>2010-07-17T09:55:25Z</time>
<desc>lat.=55.736137, lon.=26.264542, Alt.=142.857544m. Speed=10.764000m/h.</desc>
<speed>2.990000</speed>
</trkpt>
<trkpt lat="55.736122" lon="26.264502">
<ele>142.865356</ele>
<time>2010-07-17T09:55:26Z</time>
<desc>lat.=55.736122, lon.=26.264502, Alt.=142.865356m. Speed=9.072000m/h.</desc>
<speed>2.520000</speed>
</trkpt>
<trkpt lat="55.736107" lon="26.264460">
<ele>142.740356</ele>
<time>2010-07-17T09:55:27Z</time>
<desc>lat.=55.736107, lon.=26.264460, Alt.=142.740356m. Speed=10.584000m/h.</desc>
<speed>2.940000</speed>
</trkpt>
<trkpt lat="55.736088" lon="26.264406">
<ele>142.650513</ele>
<time>2010-07-17T09:55:28Z</time>
<desc>lat.=55.736088, lon.=26.264406, Alt.=142.650513m. Speed=10.980000m/h.</desc>
<speed>3.050000</speed>
</trkpt>
<trkpt lat="55.736069" lon="26.264349">
<ele>142.920044</ele>
<time>2010-07-17T09:55:29Z</time>
<desc>lat.=55.736069, lon.=26.264349, Alt.=142.920044m. Speed=11.664000m/h.</desc>
<speed>3.240000</speed>
</trkpt>
<trkpt lat="55.736050" lon="26.264290">
<ele>143.002075</ele>
<time>2010-07-17T09:55:30Z</time>
<desc>lat.=55.736050, lon.=26.264290, Alt.=143.002075m. Speed=12.744000m/h.</desc>
<speed>3.540000</speed>
</trkpt>
<trkpt lat="55.736031" lon="26.264225">
<ele>143.033325</ele>
<time>2010-07-17T09:55:31Z</time>
<desc>lat.=55.736031, lon.=26.264225, Alt.=143.033325m. Speed=14.148000m/h.</desc>
<speed>3.930000</speed>
</trkpt>
<trkpt lat="55.736015" lon="26.264162">
<ele>143.459106</ele>
<time>2010-07-17T09:55:32Z</time>
<desc>lat.=55.736015, lon.=26.264162, Alt.=143.459106m. Speed=14.400000m/h.</desc>
<speed>4.000000</speed>
</trkpt>
<trkpt lat="55.735996" lon="26.264105">
<ele>143.591919</ele>
<time>2010-07-17T09:55:33Z</time>
<desc>lat.=55.735996, lon.=26.264105, Alt.=143.591919m. Speed=14.004000m/h.</desc>
<speed>3.890000</speed>
</trkpt>
<trkpt lat="55.735977" lon="26.264053">
<ele>143.580200</ele>
<time>2010-07-17T09:55:34Z</time>
<desc>lat.=55.735977, lon.=26.264053, Alt.=143.580200m. Speed=12.240000m/h.</desc>
<speed>3.400000</speed>
</trkpt>
<trkpt lat="55.735962" lon="26.264004">
<ele>143.681763</ele>
<time>2010-07-17T09:55:35Z</time>
<desc>lat.=55.735962, lon.=26.264004, Alt.=143.681763m. Speed=13.608000m/h.</desc>
<speed>3.780000</speed>
</trkpt>
<trkpt lat="55.735947" lon="26.263947">
<ele>143.650513</ele>
<time>2010-07-17T09:55:36Z</time>
<desc>lat.=55.735947, lon.=26.263947, Alt.=143.650513m. Speed=14.364000m/h.</desc>
<speed>3.990000</speed>
</trkpt>
<trkpt lat="55.735935" lon="26.263878">
<ele>143.877075</ele>
<time>2010-07-17T09:55:37Z</time>
<desc>lat.=55.735935, lon.=26.263878, Alt.=143.877075m. Speed=15.876000m/h.</desc>
<speed>4.410000</speed>
</trkpt>
<trkpt lat="55.735920" lon="26.263802">
<ele>144.037231</ele>
<time>2010-07-17T09:55:38Z</time>
<desc>lat.=55.735920, lon.=26.263802, Alt.=144.037231m. Speed=16.488001m/h.</desc>
<speed>4.580000</speed>
</trkpt>
<trkpt lat="55.735905" lon="26.263729">
<ele>144.349731</ele>
<time>2010-07-17T09:55:39Z</time>
<desc>lat.=55.735905, lon.=26.263729, Alt.=144.349731m. Speed=16.236000m/h.</desc>
<speed>4.510000</speed>
</trkpt>
<trkpt lat="55.735901" lon="26.263651">
<ele>143.947388</ele>
<time>2010-07-17T09:55:40Z</time>
<desc>lat.=55.735901, lon.=26.263651, Alt.=143.947388m. Speed=16.955999m/h.</desc>
<speed>4.710000</speed>
</trkpt>
<trkpt lat="55.735882" lon="26.263571">
<ele>143.845825</ele>
<time>2010-07-17T09:55:41Z</time>
<desc>lat.=55.735882, lon.=26.263571, Alt.=143.845825m. Speed=17.676001m/h.</desc>
<speed>4.910000</speed>
</trkpt>
<trkpt lat="55.735851" lon="26.263470">
<ele>143.482544</ele>
<time>2010-07-17T09:55:42Z</time>
<desc>lat.=55.735851, lon.=26.263470, Alt.=143.482544m. Speed=19.728001m/h.</desc>
<speed>5.480000</speed>
</trkpt>
<trkpt lat="55.735832" lon="26.263395">
<ele>143.666138</ele>
<time>2010-07-17T09:55:43Z</time>
<desc>lat.=55.735832, lon.=26.263395, Alt.=143.666138m. Speed=17.604000m/h.</desc>
<speed>4.890000</speed>
</trkpt>
<trkpt lat="55.735813" lon="26.263332">
<ele>144.033325</ele>
<time>2010-07-17T09:55:44Z</time>
<desc>lat.=55.735813, lon.=26.263332, Alt.=144.033325m. Speed=15.012000m/h.</desc>
<speed>4.170000</speed>
</trkpt>
<trkpt lat="55.735790" lon="26.263252">
<ele>143.998169</ele>
<time>2010-07-17T09:55:45Z</time>
<desc>lat.=55.735790, lon.=26.263252, Alt.=143.998169m. Speed=18.035999m/h.</desc>
<speed>5.010000</speed>
</trkpt>
<trkpt lat="55.735775" lon="26.263189">
<ele>144.154419</ele>
<time>2010-07-17T09:55:46Z</time>
<desc>lat.=55.735775, lon.=26.263189, Alt.=144.154419m. Speed=17.136000m/h.</desc>
<speed>4.760000</speed>
</trkpt>
<trkpt lat="55.735760" lon="26.263123">
<ele>144.099731</ele>
<time>2010-07-17T09:55:47Z</time>
<desc>lat.=55.735760, lon.=26.263123, Alt.=144.099731m. Speed=16.344000m/h.</desc>
<speed>4.540000</speed>
</trkpt>
<trkpt lat="55.735744" lon="26.263052">
<ele>144.255981</ele>
<time>2010-07-17T09:55:48Z</time>
<desc>lat.=55.735744, lon.=26.263052, Alt.=144.255981m. Speed=17.063999m/h.</desc>
<speed>4.740000</speed>
</trkpt>
<trkpt lat="55.735725" lon="26.262983">
<ele>144.451294</ele>
<time>2010-07-17T09:55:49Z</time>
<desc>lat.=55.735725, lon.=26.262983, Alt.=144.451294m. Speed=18.323999m/h.</desc>
<speed>5.090000</speed>
</trkpt>
<trkpt lat="55.735710" lon="26.262911">
<ele>145.607544</ele>
<time>2010-07-17T09:55:50Z</time>
<desc>lat.=55.735710, lon.=26.262911, Alt.=145.607544m. Speed=18.180000m/h.</desc>
<speed>5.050000</speed>
</trkpt>
<trkpt lat="55.735691" lon="26.262833">
<ele>145.849731</ele>
<time>2010-07-17T09:55:51Z</time>
<desc>lat.=55.735691, lon.=26.262833, Alt.=145.849731m. Speed=19.980000m/h.</desc>
<speed>5.550000</speed>
</trkpt>
<trkpt lat="55.735676" lon="26.262749">
<ele>146.021606</ele>
<time>2010-07-17T09:55:52Z</time>
<desc>lat.=55.735676, lon.=26.262749, Alt.=146.021606m. Speed=20.520000m/h.</desc>
<speed>5.700000</speed>
</trkpt>
<trkpt lat="55.735657" lon="26.262657">
<ele>146.357544</ele>
<time>2010-07-17T09:55:53Z</time>
<desc>lat.=55.735657, lon.=26.262657, Alt.=146.357544m. Speed=20.700001m/h.</desc>
<speed>5.750000</speed>
</trkpt>
<trkpt lat="55.735622" lon="26.262590">
<ele>147.334106</ele>
<time>2010-07-17T09:55:54Z</time>
<desc>lat.=55.735622, lon.=26.262590, Alt.=147.334106m. Speed=19.260000m/h.</desc>
<speed>5.350000</speed>
</trkpt>
<trkpt lat="55.735603" lon="26.262503">
<ele>147.142700</ele>
<time>2010-07-17T09:55:55Z</time>
<desc>lat.=55.735603, lon.=26.262503, Alt.=147.142700m. Speed=20.087999m/h.</desc>
<speed>5.580000</speed>
</trkpt>
<trkpt lat="55.735584" lon="26.262423">
<ele>147.072388</ele>
<time>2010-07-17T09:55:56Z</time>
<desc>lat.=55.735584, lon.=26.262423, Alt.=147.072388m. Speed=18.972000m/h.</desc>
<speed>5.270000</speed>
</trkpt>
<trkpt lat="55.735561" lon="26.262344">
<ele>146.994263</ele>
<time>2010-07-17T09:55:57Z</time>
<desc>lat.=55.735561, lon.=26.262344, Alt.=146.994263m. Speed=18.612000m/h.</desc>
<speed>5.170000</speed>
</trkpt>
<trkpt lat="55.735542" lon="26.262276">
<ele>147.056763</ele>
<time>2010-07-17T09:55:58Z</time>
<desc>lat.=55.735542, lon.=26.262276, Alt.=147.056763m. Speed=17.351999m/h.</desc>
<speed>4.820000</speed>
</trkpt>
<trkpt lat="55.735527" lon="26.262194">
<ele>147.431763</ele>
<time>2010-07-17T09:55:59Z</time>
<desc>lat.=55.735527, lon.=26.262194, Alt.=147.431763m. Speed=19.007999m/h.</desc>
<speed>5.280000</speed>
</trkpt>
<trkpt lat="55.735508" lon="26.262115">
<ele>147.236450</ele>
<time>2010-07-17T09:56:00Z</time>
<desc>lat.=55.735508, lon.=26.262115, Alt.=147.236450m. Speed=19.511999m/h.</desc>
<speed>5.420000</speed>
</trkpt>
<trkpt lat="55.735477" lon="26.262037">
<ele>147.084106</ele>
<time>2010-07-17T09:56:01Z</time>
<desc>lat.=55.735477, lon.=26.262037, Alt.=147.084106m. Speed=18.288000m/h.</desc>
<speed>5.080000</speed>
</trkpt>
<trkpt lat="55.735451" lon="26.261950">
<ele>146.627075</ele>
<time>2010-07-17T09:56:02Z</time>
<desc>lat.=55.735451, lon.=26.261950, Alt.=146.627075m. Speed=19.836000m/h.</desc>
<speed>5.510000</speed>
</trkpt>
<trkpt lat="55.735424" lon="26.261868">
<ele>146.673950</ele>
<time>2010-07-17T09:56:03Z</time>
<desc>lat.=55.735424, lon.=26.261868, Alt.=146.673950m. Speed=18.216000m/h.</desc>
<speed>5.060000</speed>
</trkpt>
<trkpt lat="55.735405" lon="26.261791">
<ele>147.025513</ele>
<time>2010-07-17T09:56:04Z</time>
<desc>lat.=55.735405, lon.=26.261791, Alt.=147.025513m. Speed=16.775999m/h.</desc>
<speed>4.660000</speed>
</trkpt>
<trkpt lat="55.735390" lon="26.261721">
<ele>147.255981</ele>
<time>2010-07-17T09:56:05Z</time>
<desc>lat.=55.735390, lon.=26.261721, Alt.=147.255981m. Speed=16.955999m/h.</desc>
<speed>4.710000</speed>
</trkpt>
<trkpt lat="55.735355" lon="26.261639">
<ele>147.037231</ele>
<time>2010-07-17T09:56:06Z</time>
<desc>lat.=55.735355, lon.=26.261639, Alt.=147.037231m. Speed=18.756001m/h.</desc>
<speed>5.210000</speed>
</trkpt>
<trkpt lat="55.735332" lon="26.261555">
<ele>147.252075</ele>
<time>2010-07-17T09:56:07Z</time>
<desc>lat.=55.735332, lon.=26.261555, Alt.=147.252075m. Speed=20.988001m/h.</desc>
<speed>5.830000</speed>
</trkpt>
<trkpt lat="55.735298" lon="26.261475">
<ele>147.338013</ele>
<time>2010-07-17T09:56:08Z</time>
<desc>lat.=55.735298, lon.=26.261475, Alt.=147.338013m. Speed=19.476000m/h.</desc>
<speed>5.410000</speed>
</trkpt>
<trkpt lat="55.735264" lon="26.261393">
<ele>146.978638</ele>
<time>2010-07-17T09:56:09Z</time>
<desc>lat.=55.735264, lon.=26.261393, Alt.=146.978638m. Speed=19.260000m/h.</desc>
<speed>5.350000</speed>
</trkpt>
<trkpt lat="55.735241" lon="26.261314">
<ele>147.267700</ele>
<time>2010-07-17T09:56:10Z</time>
<desc>lat.=55.735241, lon.=26.261314, Alt.=147.267700m. Speed=19.080000m/h.</desc>
<speed>5.300000</speed>
</trkpt>
<trkpt lat="55.735218" lon="26.261238">
<ele>147.283325</ele>
<time>2010-07-17T09:56:11Z</time>
<desc>lat.=55.735218, lon.=26.261238, Alt.=147.283325m. Speed=18.252001m/h.</desc>
<speed>5.070000</speed>
</trkpt>
<trkpt lat="55.735199" lon="26.261168">
<ele>147.634888</ele>
<time>2010-07-17T09:56:12Z</time>
<desc>lat.=55.735199, lon.=26.261168, Alt.=147.634888m. Speed=17.243999m/h.</desc>
<speed>4.790000</speed>
</trkpt>
<trkpt lat="55.735180" lon="26.261087">
<ele>147.736450</ele>
<time>2010-07-17T09:56:13Z</time>
<desc>lat.=55.735180, lon.=26.261087, Alt.=147.736450m. Speed=18.288000m/h.</desc>
<speed>5.080000</speed>
</trkpt>
<trkpt lat="55.735157" lon="26.261005">
<ele>147.560669</ele>
<time>2010-07-17T09:56:14Z</time>
<desc>lat.=55.735157, lon.=26.261005, Alt.=147.560669m. Speed=19.224001m/h.</desc>
<speed>5.340000</speed>
</trkpt>
<trkpt lat="55.735138" lon="26.260921">
<ele>147.810669</ele>
<time>2010-07-17T09:56:15Z</time>
<desc>lat.=55.735138, lon.=26.260921, Alt.=147.810669m. Speed=19.728001m/h.</desc>
<speed>5.480000</speed>
</trkpt>
<trkpt lat="55.735107" lon="26.260832">
<ele>148.673950</ele>
<time>2010-07-17T09:56:16Z</time>
<desc>lat.=55.735107, lon.=26.260832, Alt.=148.673950m. Speed=18.612000m/h.</desc>
<speed>5.170000</speed>
</trkpt>
<trkpt lat="55.735085" lon="26.260754">
<ele>148.884888</ele>
<time>2010-07-17T09:56:17Z</time>
<desc>lat.=55.735085, lon.=26.260754, Alt.=148.884888m. Speed=16.596001m/h.</desc>
<speed>4.610000</speed>
</trkpt>
<trkpt lat="55.735062" lon="26.260679">
<ele>149.474731</ele>
<time>2010-07-17T09:56:18Z</time>
<desc>lat.=55.735062, lon.=26.260679, Alt.=149.474731m. Speed=17.208000m/h.</desc>
<speed>4.780000</speed>
</trkpt>
<trkpt lat="55.735043" lon="26.260592">
<ele>149.841919</ele>
<time>2010-07-17T09:56:19Z</time>
<desc>lat.=55.735043, lon.=26.260592, Alt.=149.841919m. Speed=19.224001m/h.</desc>
<speed>5.340000</speed>
</trkpt>
<trkpt lat="55.735020" lon="26.260504">
<ele>149.838013</ele>
<time>2010-07-17T09:56:20Z</time>
<desc>lat.=55.735020, lon.=26.260504, Alt.=149.838013m. Speed=17.532000m/h.</desc>
<speed>4.870000</speed>
</trkpt>
<trkpt lat="55.735004" lon="26.260410">
<ele>149.509888</ele>
<time>2010-07-17T09:56:21Z</time>
<desc>lat.=55.735004, lon.=26.260410, Alt.=149.509888m. Speed=18.035999m/h.</desc>
<speed>5.010000</speed>
</trkpt>
<trkpt lat="55.734982" lon="26.260328">
<ele>148.931763</ele>
<time>2010-07-17T09:56:22Z</time>
<desc>lat.=55.734982, lon.=26.260328, Alt.=148.931763m. Speed=18.648001m/h.</desc>
<speed>5.180000</speed>
</trkpt>
<trkpt lat="55.734959" lon="26.260241">
<ele>148.560669</ele>
<time>2010-07-17T09:56:23Z</time>
<desc>lat.=55.734959, lon.=26.260241, Alt.=148.560669m. Speed=19.044001m/h.</desc>
<speed>5.290000</speed>
</trkpt>
<trkpt lat="55.734943" lon="26.260145">
<ele>148.173950</ele>
<time>2010-07-17T09:56:24Z</time>
<desc>lat.=55.734943, lon.=26.260145, Alt.=148.173950m. Speed=18.648001m/h.</desc>
<speed>5.180000</speed>
</trkpt>
<trkpt lat="55.734921" lon="26.260061">
<ele>147.189575</ele>
<time>2010-07-17T09:56:25Z</time>
<desc>lat.=55.734921, lon.=26.260061, Alt.=147.189575m. Speed=18.972000m/h.</desc>
<speed>5.270000</speed>
</trkpt>
<trkpt lat="55.734894" lon="26.259991">
<ele>148.130981</ele>
<time>2010-07-17T09:56:26Z</time>
<desc>lat.=55.734894, lon.=26.259991, Alt.=148.130981m. Speed=17.676001m/h.</desc>
<speed>4.910000</speed>
</trkpt>
<trkpt lat="55.734867" lon="26.259924">
<ele>148.892700</ele>
<time>2010-07-17T09:56:27Z</time>
<desc>lat.=55.734867, lon.=26.259924, Alt.=148.892700m. Speed=17.208000m/h.</desc>
<speed>4.780000</speed>
</trkpt>
<trkpt lat="55.734848" lon="26.259850">
<ele>148.838013</ele>
<time>2010-07-17T09:56:28Z</time>
<desc>lat.=55.734848, lon.=26.259850, Alt.=148.838013m. Speed=16.740000m/h.</desc>
<speed>4.650000</speed>
</trkpt>
<trkpt lat="55.734833" lon="26.259781">
<ele>149.025513</ele>
<time>2010-07-17T09:56:29Z</time>
<desc>lat.=55.734833, lon.=26.259781, Alt.=149.025513m. Speed=16.596001m/h.</desc>
<speed>4.610000</speed>
</trkpt>
<trkpt lat="55.734810" lon="26.259716">
<ele>149.224731</ele>
<time>2010-07-17T09:56:30Z</time>
<desc>lat.=55.734810, lon.=26.259716, Alt.=149.224731m. Speed=16.704000m/h.</desc>
<speed>4.640000</speed>
</trkpt>
<trkpt lat="55.734776" lon="26.259668">
<ele>150.724731</ele>
<time>2010-07-17T09:56:31Z</time>
<desc>lat.=55.734776, lon.=26.259668, Alt.=150.724731m. Speed=16.056000m/h.</desc>
<speed>4.460000</speed>
</trkpt>
<trkpt lat="55.734753" lon="26.259605">
<ele>151.095825</ele>
<time>2010-07-17T09:56:32Z</time>
<desc>lat.=55.734753, lon.=26.259605, Alt.=151.095825m. Speed=15.948000m/h.</desc>
<speed>4.430000</speed>
</trkpt>
<trkpt lat="55.734734" lon="26.259537">
<ele>151.005981</ele>
<time>2010-07-17T09:56:33Z</time>
<desc>lat.=55.734734, lon.=26.259537, Alt.=151.005981m. Speed=14.760000m/h.</desc>
<speed>4.100000</speed>
</trkpt>
<trkpt lat="55.734737" lon="26.259472">
<ele>149.404419</ele>
<time>2010-07-17T09:56:34Z</time>
<desc>lat.=55.734737, lon.=26.259472, Alt.=149.404419m. Speed=13.356000m/h.</desc>
<speed>3.710000</speed>
</trkpt>
<trkpt lat="55.734730" lon="26.259426">
<ele>148.963013</ele>
<time>2010-07-17T09:56:35Z</time>
<desc>lat.=55.734730, lon.=26.259426, Alt.=148.963013m. Speed=11.088000m/h.</desc>
<speed>3.080000</speed>
</trkpt>
<trkpt lat="55.734718" lon="26.259382">
<ele>149.127075</ele>
<time>2010-07-17T09:56:36Z</time>
<desc>lat.=55.734718, lon.=26.259382, Alt.=149.127075m. Speed=10.728000m/h.</desc>
<speed>2.980000</speed>
</trkpt>
<trkpt lat="55.734711" lon="26.259329">
<ele>149.404419</ele>
<time>2010-07-17T09:56:37Z</time>
<desc>lat.=55.734711, lon.=26.259329, Alt.=149.404419m. Speed=12.384000m/h.</desc>
<speed>3.440000</speed>
</trkpt>
<trkpt lat="55.734695" lon="26.259262">
<ele>149.326294</ele>
<time>2010-07-17T09:56:38Z</time>
<desc>lat.=55.734695, lon.=26.259262, Alt.=149.326294m. Speed=15.012000m/h.</desc>
<speed>4.170000</speed>
</trkpt>
<trkpt lat="55.734676" lon="26.259195">
<ele>148.779419</ele>
<time>2010-07-17T09:56:39Z</time>
<desc>lat.=55.734676, lon.=26.259195, Alt.=148.779419m. Speed=15.444000m/h.</desc>
<speed>4.290000</speed>
</trkpt>
<trkpt lat="55.734657" lon="26.259121">
<ele>149.252075</ele>
<time>2010-07-17T09:56:40Z</time>
<desc>lat.=55.734657, lon.=26.259121, Alt.=149.252075m. Speed=16.848000m/h.</desc>
<speed>4.680000</speed>
</trkpt>
<trkpt lat="55.734634" lon="26.259052">
<ele>148.822388</ele>
<time>2010-07-17T09:56:41Z</time>
<desc>lat.=55.734634, lon.=26.259052, Alt.=148.822388m. Speed=15.660000m/h.</desc>
<speed>4.350000</speed>
</trkpt>
<trkpt lat="55.734615" lon="26.258974">
<ele>148.181763</ele>
<time>2010-07-17T09:56:42Z</time>
<desc>lat.=55.734615, lon.=26.258974, Alt.=148.181763m. Speed=17.712000m/h.</desc>
<speed>4.920000</speed>
</trkpt>
<trkpt lat="55.734589" lon="26.258900">
<ele>148.173950</ele>
<time>2010-07-17T09:56:43Z</time>
<desc>lat.=55.734589, lon.=26.258900, Alt.=148.173950m. Speed=17.820000m/h.</desc>
<speed>4.950000</speed>
</trkpt>
<trkpt lat="55.734570" lon="26.258821">
<ele>148.052856</ele>
<time>2010-07-17T09:56:44Z</time>
<desc>lat.=55.734570, lon.=26.258821, Alt.=148.052856m. Speed=18.900000m/h.</desc>
<speed>5.250000</speed>
</trkpt>
<trkpt lat="55.734550" lon="26.258745">
<ele>147.755981</ele>
<time>2010-07-17T09:56:45Z</time>
<desc>lat.=55.734550, lon.=26.258745, Alt.=147.755981m. Speed=17.747999m/h.</desc>
<speed>4.930000</speed>
</trkpt>
<trkpt lat="55.734524" lon="26.258677">
<ele>147.525513</ele>
<time>2010-07-17T09:56:46Z</time>
<desc>lat.=55.734524, lon.=26.258677, Alt.=147.525513m. Speed=17.712000m/h.</desc>
<speed>4.920000</speed>
</trkpt>
<trkpt lat="55.734512" lon="26.258614">
<ele>147.439575</ele>
<time>2010-07-17T09:56:47Z</time>
<desc>lat.=55.734512, lon.=26.258614, Alt.=147.439575m. Speed=15.228000m/h.</desc>
<speed>4.230000</speed>
</trkpt>
<trkpt lat="55.734493" lon="26.258539">
<ele>147.474731</ele>
<time>2010-07-17T09:56:48Z</time>
<desc>lat.=55.734493, lon.=26.258539, Alt.=147.474731m. Speed=18.504000m/h.</desc>
<speed>5.140000</speed>
</trkpt>
<trkpt lat="55.734478" lon="26.258465">
<ele>147.185669</ele>
<time>2010-07-17T09:56:49Z</time>
<desc>lat.=55.734478, lon.=26.258465, Alt.=147.185669m. Speed=14.904000m/h.</desc>
<speed>4.140000</speed>
</trkpt>
<trkpt lat="55.734470" lon="26.258387">
<ele>146.388794</ele>
<time>2010-07-17T09:56:50Z</time>
<desc>lat.=55.734470, lon.=26.258387, Alt.=146.388794m. Speed=15.372000m/h.</desc>
<speed>4.270000</speed>
</trkpt>
<trkpt lat="55.734444" lon="26.258303">
<ele>145.966919</ele>
<time>2010-07-17T09:56:51Z</time>
<desc>lat.=55.734444, lon.=26.258303, Alt.=145.966919m. Speed=13.896000m/h.</desc>
<speed>3.860000</speed>
</trkpt>
<trkpt lat="55.734432" lon="26.258251">
<ele>146.201294</ele>
<time>2010-07-17T09:56:52Z</time>
<desc>lat.=55.734432, lon.=26.258251, Alt.=146.201294m. Speed=8.028000m/h.</desc>
<speed>2.230000</speed>
</trkpt>
<trkpt lat="55.734413" lon="26.258202">
<ele>146.533325</ele>
<time>2010-07-17T09:56:53Z</time>
<desc>lat.=55.734413, lon.=26.258202, Alt.=146.533325m. Speed=9.576000m/h.</desc>
<speed>2.660000</speed>
</trkpt>
<trkpt lat="55.734394" lon="26.258150">
<ele>144.927856</ele>
<time>2010-07-17T09:56:54Z</time>
<desc>lat.=55.734394, lon.=26.258150, Alt.=144.927856m. Speed=9.432000m/h.</desc>
<speed>2.620000</speed>
</trkpt>
<trkpt lat="55.734383" lon="26.258112">
<ele>144.107544</ele>
<time>2010-07-17T09:56:55Z</time>
<desc>lat.=55.734383, lon.=26.258112, Alt.=144.107544m. Speed=7.092000m/h.</desc>
<speed>1.970000</speed>
</trkpt>
<trkpt lat="55.734375" lon="26.258072">
<ele>143.916138</ele>
<time>2010-07-17T09:56:56Z</time>
<desc>lat.=55.734375, lon.=26.258072, Alt.=143.916138m. Speed=7.380000m/h.</desc>
<speed>2.050000</speed>
</trkpt>
<trkpt lat="55.734371" lon="26.258034">
<ele>143.998169</ele>
<time>2010-07-17T09:56:57Z</time>
<desc>lat.=55.734371, lon.=26.258034, Alt.=143.998169m. Speed=7.056000m/h.</desc>
<speed>1.960000</speed>
</trkpt>
<trkpt lat="55.734379" lon="26.258003">
<ele>144.927856</ele>
<time>2010-07-17T09:56:58Z</time>
<desc>lat.=55.734379, lon.=26.258003, Alt.=144.927856m. Speed=4.104000m/h.</desc>
<speed>1.140000</speed>
</trkpt>
<trkpt lat="55.734379" lon="26.257980">
<ele>144.990356</ele>
<time>2010-07-17T09:56:59Z</time>
<desc>lat.=55.734379, lon.=26.257980, Alt.=144.990356m. Speed=5.184000m/h.</desc>
<speed>1.440000</speed>
</trkpt>
<trkpt lat="55.734375" lon="26.257946">
<ele>146.091919</ele>
<time>2010-07-17T09:57:00Z</time>
<desc>lat.=55.734375, lon.=26.257946, Alt.=146.091919m. Speed=7.920000m/h.</desc>
<speed>2.200000</speed>
</trkpt>
<trkpt lat="55.734371" lon="26.257912">
<ele>147.255981</ele>
<time>2010-07-17T09:57:01Z</time>
<desc>lat.=55.734371, lon.=26.257912, Alt.=147.255981m. Speed=8.856000m/h.</desc>
<speed>2.460000</speed>
</trkpt>
<trkpt lat="55.734364" lon="26.257868">
<ele>147.838013</ele>
<time>2010-07-17T09:57:02Z</time>
<desc>lat.=55.734364, lon.=26.257868, Alt.=147.838013m. Speed=7.272000m/h.</desc>
<speed>2.020000</speed>
</trkpt>
<trkpt lat="55.734375" lon="26.257830">
<ele>147.873169</ele>
<time>2010-07-17T09:57:03Z</time>
<desc>lat.=55.734375, lon.=26.257830, Alt.=147.873169m. Speed=9.396000m/h.</desc>
<speed>2.610000</speed>
</trkpt>
<trkpt lat="55.734398" lon="26.257797">
<ele>147.974731</ele>
<time>2010-07-17T09:57:04Z</time>
<desc>lat.=55.734398, lon.=26.257797, Alt.=147.974731m. Speed=11.232000m/h.</desc>
<speed>3.120000</speed>
</trkpt>
<trkpt lat="55.734421" lon="26.257757">
<ele>148.326294</ele>
<time>2010-07-17T09:57:05Z</time>
<desc>lat.=55.734421, lon.=26.257757, Alt.=148.326294m. Speed=11.952000m/h.</desc>
<speed>3.320000</speed>
</trkpt>
<trkpt lat="55.734440" lon="26.257723">
<ele>148.599731</ele>
<time>2010-07-17T09:57:06Z</time>
<desc>lat.=55.734440, lon.=26.257723, Alt.=148.599731m. Speed=8.820000m/h.</desc>
<speed>2.450000</speed>
</trkpt>
<trkpt lat="55.734459" lon="26.257706">
<ele>149.002075</ele>
<time>2010-07-17T09:57:07Z</time>
<desc>lat.=55.734459, lon.=26.257706, Alt.=149.002075m. Speed=8.712000m/h.</desc>
<speed>2.420000</speed>
</trkpt>
<trkpt lat="55.734478" lon="26.257694">
<ele>149.357544</ele>
<time>2010-07-17T09:57:08Z</time>
<desc>lat.=55.734478, lon.=26.257694, Alt.=149.357544m. Speed=6.516000m/h.</desc>
<speed>1.810000</speed>
</trkpt>
<trkpt lat="55.734493" lon="26.257679">
<ele>149.670044</ele>
<time>2010-07-17T09:57:09Z</time>
<desc>lat.=55.734493, lon.=26.257679, Alt.=149.670044m. Speed=7.812000m/h.</desc>
<speed>2.170000</speed>
</trkpt>
<trkpt lat="55.734509" lon="26.257683">
<ele>150.287231</ele>
<time>2010-07-17T09:57:10Z</time>
<desc>lat.=55.734509, lon.=26.257683, Alt.=150.287231m. Speed=6.912000m/h.</desc>
<speed>1.920000</speed>
</trkpt>
<trkpt lat="55.734528" lon="26.257702">
<ele>150.892700</ele>
<time>2010-07-17T09:57:11Z</time>
<desc>lat.=55.734528, lon.=26.257702, Alt.=150.892700m. Speed=7.380000m/h.</desc>
<speed>2.050000</speed>
</trkpt>
<trkpt lat="55.734543" lon="26.257727">
<ele>151.130981</ele>
<time>2010-07-17T09:57:12Z</time>
<desc>lat.=55.734543, lon.=26.257727, Alt.=151.130981m. Speed=9.828000m/h.</desc>
<speed>2.730000</speed>
</trkpt>
<trkpt lat="55.734554" lon="26.257767">
<ele>151.189575</ele>
<time>2010-07-17T09:57:13Z</time>
<desc>lat.=55.734554, lon.=26.257767, Alt.=151.189575m. Speed=10.368000m/h.</desc>
<speed>2.880000</speed>
</trkpt>
<trkpt lat="55.734562" lon="26.257805">
<ele>150.900513</ele>
<time>2010-07-17T09:57:14Z</time>
<desc>lat.=55.734562, lon.=26.257805, Alt.=150.900513m. Speed=10.944000m/h.</desc>
<speed>3.040000</speed>
</trkpt>
<trkpt lat="55.734570" lon="26.257851">
<ele>150.213013</ele>
<time>2010-07-17T09:57:15Z</time>
<desc>lat.=55.734570, lon.=26.257851, Alt.=150.213013m. Speed=11.016000m/h.</desc>
<speed>3.060000</speed>
</trkpt>
<trkpt lat="55.734577" lon="26.257896">
<ele>150.295044</ele>
<time>2010-07-17T09:57:16Z</time>
<desc>lat.=55.734577, lon.=26.257896, Alt.=150.295044m. Speed=11.232000m/h.</desc>
<speed>3.120000</speed>
</trkpt>
<trkpt lat="55.734585" lon="26.257950">
<ele>150.345825</ele>
<time>2010-07-17T09:57:17Z</time>
<desc>lat.=55.734585, lon.=26.257950, Alt.=150.345825m. Speed=11.556000m/h.</desc>
<speed>3.210000</speed>
</trkpt>
<trkpt lat="55.734585" lon="26.257990">
<ele>150.517700</ele>
<time>2010-07-17T09:57:18Z</time>
<desc>lat.=55.734585, lon.=26.257990, Alt.=150.517700m. Speed=10.980000m/h.</desc>
<speed>3.050000</speed>
</trkpt>
<trkpt lat="55.734581" lon="26.258030">
<ele>149.838013</ele>
<time>2010-07-17T09:57:19Z</time>
<desc>lat.=55.734581, lon.=26.258030, Alt.=149.838013m. Speed=9.720000m/h.</desc>
<speed>2.700000</speed>
</trkpt>
<trkpt lat="55.734585" lon="26.258072">
<ele>149.787231</ele>
<time>2010-07-17T09:57:20Z</time>
<desc>lat.=55.734585, lon.=26.258072, Alt.=149.787231m. Speed=8.316000m/h.</desc>
<speed>2.310000</speed>
</trkpt>
<trkpt lat="55.734589" lon="26.258097">
<ele>149.533325</ele>
<time>2010-07-17T09:57:21Z</time>
<desc>lat.=55.734589, lon.=26.258097, Alt.=149.533325m. Speed=1.692000m/h.</desc>
<speed>0.470000</speed>
</trkpt>
<trkpt lat="55.734589" lon="26.258087">
<ele>149.982544</ele>
<time>2010-07-17T09:57:22Z</time>
<desc>lat.=55.734589, lon.=26.258087, Alt.=149.982544m. Speed=1.008000m/h.</desc>
<speed>0.280000</speed>
</trkpt>
<trkpt lat="55.734589" lon="26.258070">
<ele>149.474731</ele>
<time>2010-07-17T09:57:23Z</time>
<desc>lat.=55.734589, lon.=26.258070, Alt.=149.474731m. Speed=2.196000m/h.</desc>
<speed>0.610000</speed>
</trkpt>
<trkpt lat="55.734600" lon="26.258055">
<ele>149.654419</ele>
<time>2010-07-17T09:57:24Z</time>
<desc>lat.=55.734600, lon.=26.258055, Alt.=149.654419m. Speed=1.764000m/h.</desc>
<speed>0.490000</speed>
</trkpt>
<trkpt lat="55.734600" lon="26.258047">
<ele>149.767700</ele>
<time>2010-07-17T09:57:25Z</time>
<desc>lat.=55.734600, lon.=26.258047, Alt.=149.767700m. Speed=2.232000m/h.</desc>
<speed>0.620000</speed>
</trkpt>
<trkpt lat="55.734604" lon="26.258041">
<ele>149.873169</ele>
<time>2010-07-17T09:57:26Z</time>
<desc>lat.=55.734604, lon.=26.258041, Alt.=149.873169m. Speed=3.096000m/h.</desc>
<speed>0.860000</speed>
</trkpt>
<trkpt lat="55.734612" lon="26.258039">
<ele>149.982544</ele>
<time>2010-07-17T09:57:27Z</time>
<desc>lat.=55.734612, lon.=26.258039, Alt.=149.982544m. Speed=2.556000m/h.</desc>
<speed>0.710000</speed>
</trkpt>
<trkpt lat="55.734619" lon="26.258039">
<ele>150.084106</ele>
<time>2010-07-17T09:57:28Z</time>
<desc>lat.=55.734619, lon.=26.258039, Alt.=150.084106m. Speed=2.088000m/h.</desc>
<speed>0.580000</speed>
</trkpt>
<trkpt lat="55.734627" lon="26.258039">
<ele>150.173950</ele>
<time>2010-07-17T09:57:29Z</time>
<desc>lat.=55.734627, lon.=26.258039, Alt.=150.173950m. Speed=1.944000m/h.</desc>
<speed>0.540000</speed>
</trkpt>
<trkpt lat="55.734631" lon="26.258043">
<ele>150.255981</ele>
<time>2010-07-17T09:57:30Z</time>
<desc>lat.=55.734631, lon.=26.258043, Alt.=150.255981m. Speed=1.332000m/h.</desc>
<speed>0.370000</speed>
</trkpt>
<trkpt lat="55.734631" lon="26.258047">
<ele>150.345825</ele>
<time>2010-07-17T09:57:31Z</time>
<desc>lat.=55.734631, lon.=26.258047, Alt.=150.345825m. Speed=1.116000m/h.</desc>
<speed>0.310000</speed>
</trkpt>
<trkpt lat="55.734634" lon="26.258051">
<ele>150.439575</ele>
<time>2010-07-17T09:57:32Z</time>
<desc>lat.=55.734634, lon.=26.258051, Alt.=150.439575m. Speed=1.260000m/h.</desc>
<speed>0.350000</speed>
</trkpt>
<trkpt lat="55.734638" lon="26.258057">
<ele>150.529419</ele>
<time>2010-07-17T09:57:33Z</time>
<desc>lat.=55.734638, lon.=26.258057, Alt.=150.529419m. Speed=1.260000m/h.</desc>
<speed>0.350000</speed>
</trkpt>
<trkpt lat="55.734638" lon="26.258060">
<ele>150.619263</ele>
<time>2010-07-17T09:57:34Z</time>
<desc>lat.=55.734638, lon.=26.258060, Alt.=150.619263m. Speed=1.440000m/h.</desc>
<speed>0.400000</speed>
</trkpt>
<trkpt lat="55.734642" lon="26.258066">
<ele>150.709106</ele>
<time>2010-07-17T09:57:35Z</time>
<desc>lat.=55.734642, lon.=26.258066, Alt.=150.709106m. Speed=1.548000m/h.</desc>
<speed>0.430000</speed>
</trkpt>
<trkpt lat="55.734642" lon="26.258072">
<ele>150.798950</ele>
<time>2010-07-17T09:57:36Z</time>
<desc>lat.=55.734642, lon.=26.258072, Alt.=150.798950m. Speed=1.440000m/h.</desc>
<speed>0.400000</speed>
</trkpt>
<trkpt lat="55.734646" lon="26.258078">
<ele>150.896606</ele>
<time>2010-07-17T09:57:37Z</time>
<desc>lat.=55.734646, lon.=26.258078, Alt.=150.896606m. Speed=0.504000m/h.</desc>
<speed>0.140000</speed>
</trkpt>
<trkpt lat="55.734646" lon="26.258080">
<ele>150.998169</ele>
<time>2010-07-17T09:57:38Z</time>
<desc>lat.=55.734646, lon.=26.258080, Alt.=150.998169m. Speed=0.684000m/h.</desc>
<speed>0.190000</speed>
</trkpt>
<trkpt lat="55.734646" lon="26.258083">
<ele>151.068481</ele>
<time>2010-07-17T09:57:39Z</time>
<desc>lat.=55.734646, lon.=26.258083, Alt.=151.068481m. Speed=0.504000m/h.</desc>
<speed>0.140000</speed>
</trkpt>
<trkpt lat="55.734642" lon="26.258083">
<ele>151.146606</ele>
<time>2010-07-17T09:57:40Z</time>
<desc>lat.=55.734642, lon.=26.258083, Alt.=151.146606m. Speed=0.612000m/h.</desc>
<speed>0.170000</speed>
</trkpt>
<trkpt lat="55.734642" lon="26.258085">
<ele>151.224731</ele>
<time>2010-07-17T09:57:41Z</time>
<desc>lat.=55.734642, lon.=26.258085, Alt.=151.224731m. Speed=0.180000m/h.</desc>
<speed>0.050000</speed>
</trkpt>
<trkpt lat="55.734642" lon="26.258085">
<ele>151.306763</ele>
<time>2010-07-17T09:57:42Z</time>
<desc>lat.=55.734642, lon.=26.258085, Alt.=151.306763m. Speed=0.288000m/h.</desc>
<speed>0.080000</speed>
</trkpt>
<trkpt lat="55.734642" lon="26.258085">
<ele>151.365356</ele>
<time>2010-07-17T09:57:43Z</time>
<desc>lat.=55.734642, lon.=26.258085, Alt.=151.365356m. Speed=0.216000m/h.</desc>
<speed>0.060000</speed>
</trkpt>
<trkpt lat="55.734642" lon="26.258083">
<ele>151.412231</ele>
<time>2010-07-17T09:57:44Z</time>
<desc>lat.=55.734642, lon.=26.258083, Alt.=151.412231m. Speed=0.360000m/h.</desc>
<speed>0.100000</speed>
</trkpt>
<trkpt lat="55.734642" lon="26.258081">
<ele>151.455200</ele>
<time>2010-07-17T09:57:45Z</time>
<desc>lat.=55.734642, lon.=26.258081, Alt.=151.455200m. Speed=1.188000m/h.</desc>
<speed>0.330000</speed>
</trkpt>
<trkpt lat="55.734638" lon="26.258078">
<ele>151.494263</ele>
<time>2010-07-17T09:57:46Z</time>
<desc>lat.=55.734638, lon.=26.258078, Alt.=151.494263m. Speed=0.252000m/h.</desc>
<speed>0.070000</speed>
</trkpt>
<trkpt lat="55.734642" lon="26.258076">
<ele>151.537231</ele>
<time>2010-07-17T09:57:47Z</time>
<desc>lat.=55.734642, lon.=26.258076, Alt.=151.537231m. Speed=0.936000m/h.</desc>
<speed>0.260000</speed>
</trkpt>
<trkpt lat="55.734642" lon="26.258074">
<ele>151.576294</ele>
<time>2010-07-17T09:57:48Z</time>
<desc>lat.=55.734642, lon.=26.258074, Alt.=151.576294m. Speed=0.936000m/h.</desc>
<speed>0.260000</speed>
</trkpt>
<trkpt lat="55.734642" lon="26.258070">
<ele>151.611450</ele>
<time>2010-07-17T09:57:49Z</time>
<desc>lat.=55.734642, lon.=26.258070, Alt.=151.611450m. Speed=1.728000m/h.</desc>
<speed>0.480000</speed>
</trkpt>
<trkpt lat="55.734646" lon="26.258062">
<ele>151.658325</ele>
<time>2010-07-17T09:57:50Z</time>
<desc>lat.=55.734646, lon.=26.258062, Alt.=151.658325m. Speed=1.728000m/h.</desc>
<speed>0.480000</speed>
</trkpt>
<trkpt lat="55.734646" lon="26.258055">
<ele>151.689575</ele>
<time>2010-07-17T09:57:51Z</time>
<desc>lat.=55.734646, lon.=26.258055, Alt.=151.689575m. Speed=1.836000m/h.</desc>
<speed>0.510000</speed>
</trkpt>
<trkpt lat="55.734646" lon="26.258047">
<ele>151.724731</ele>
<time>2010-07-17T09:57:52Z</time>
<desc>lat.=55.734646, lon.=26.258047, Alt.=151.724731m. Speed=1.764000m/h.</desc>
<speed>0.490000</speed>
</trkpt>
<trkpt lat="55.734646" lon="26.258039">
<ele>151.763794</ele>
<time>2010-07-17T09:57:53Z</time>
<desc>lat.=55.734646, lon.=26.258039, Alt.=151.763794m. Speed=2.196000m/h.</desc>
<speed>0.610000</speed>
</trkpt>
<trkpt lat="55.734642" lon="26.258030">
<ele>151.798950</ele>
<time>2010-07-17T09:57:54Z</time>
<desc>lat.=55.734642, lon.=26.258030, Alt.=151.798950m. Speed=1.044000m/h.</desc>
<speed>0.290000</speed>
</trkpt>
<trkpt lat="55.734642" lon="26.258026">
<ele>151.830200</ele>
<time>2010-07-17T09:57:55Z</time>
<desc>lat.=55.734642, lon.=26.258026, Alt.=151.830200m. Speed=1.980000m/h.</desc>
<speed>0.550000</speed>
</trkpt>
<trkpt lat="55.734634" lon="26.258022">
<ele>151.861450</ele>
<time>2010-07-17T09:57:56Z</time>
<desc>lat.=55.734634, lon.=26.258022, Alt.=151.861450m. Speed=0.648000m/h.</desc>
<speed>0.180000</speed>
</trkpt>
<trkpt lat="55.734634" lon="26.258022">
<ele>151.892700</ele>
<time>2010-07-17T09:57:57Z</time>
<desc>lat.=55.734634, lon.=26.258022, Alt.=151.892700m. Speed=0.612000m/h.</desc>
<speed>0.170000</speed>
</trkpt>
<trkpt lat="55.734634" lon="26.258022">
<ele>151.920044</ele>
<time>2010-07-17T09:57:58Z</time>
<desc>lat.=55.734634, lon.=26.258022, Alt.=151.920044m. Speed=1.044000m/h.</desc>
<speed>0.290000</speed>
</trkpt>
<trkpt lat="55.734631" lon="26.258018">
<ele>151.943481</ele>
<time>2010-07-17T09:57:59Z</time>
<desc>lat.=55.734631, lon.=26.258018, Alt.=151.943481m. Speed=1.260000m/h.</desc>
<speed>0.350000</speed>
</trkpt>
<trkpt lat="55.734627" lon="26.258015">
<ele>151.963013</ele>
<time>2010-07-17T09:58:00Z</time>
<desc>lat.=55.734627, lon.=26.258015, Alt.=151.963013m. Speed=1.044000m/h.</desc>
<speed>0.290000</speed>
</trkpt>
<trkpt lat="55.734627" lon="26.258013">
<ele>151.986450</ele>
<time>2010-07-17T09:58:01Z</time>
<desc>lat.=55.734627, lon.=26.258013, Alt.=151.986450m. Speed=1.116000m/h.</desc>
<speed>0.310000</speed>
</trkpt>
<trkpt lat="55.734623" lon="26.258009">
<ele>152.009888</ele>
<time>2010-07-17T09:58:02Z</time>
<desc>lat.=55.734623, lon.=26.258009, Alt.=152.009888m. Speed=0.792000m/h.</desc>
<speed>0.220000</speed>
</trkpt>
<trkpt lat="55.734623" lon="26.258005">
<ele>152.033325</ele>
<time>2010-07-17T09:58:03Z</time>
<desc>lat.=55.734623, lon.=26.258005, Alt.=152.033325m. Speed=0.684000m/h.</desc>
<speed>0.190000</speed>
</trkpt>
<trkpt lat="55.734623" lon="26.258003">
<ele>152.052856</ele>
<time>2010-07-17T09:58:04Z</time>
<desc>lat.=55.734623, lon.=26.258003, Alt.=152.052856m. Speed=0.684000m/h.</desc>
<speed>0.190000</speed>
</trkpt>
<trkpt lat="55.734627" lon="26.257999">
<ele>152.072388</ele>
<time>2010-07-17T09:58:05Z</time>
<desc>lat.=55.734627, lon.=26.257999, Alt.=152.072388m. Speed=1.080000m/h.</desc>
<speed>0.300000</speed>
</trkpt>
<trkpt lat="55.734627" lon="26.257996">
<ele>152.095825</ele>
<time>2010-07-17T09:58:06Z</time>
<desc>lat.=55.734627, lon.=26.257996, Alt.=152.095825m. Speed=1.260000m/h.</desc>
<speed>0.350000</speed>
</trkpt>
<trkpt lat="55.734631" lon="26.257994">
<ele>152.115356</ele>
<time>2010-07-17T09:58:07Z</time>
<desc>lat.=55.734631, lon.=26.257994, Alt.=152.115356m. Speed=1.224000m/h.</desc>
<speed>0.340000</speed>
</trkpt>
<trkpt lat="55.734634" lon="26.257990">
<ele>152.142700</ele>
<time>2010-07-17T09:58:08Z</time>
<desc>lat.=55.734634, lon.=26.257990, Alt.=152.142700m. Speed=1.152000m/h.</desc>
<speed>0.320000</speed>
</trkpt>
<trkpt lat="55.734634" lon="26.257986">
<ele>152.162231</ele>
<time>2010-07-17T09:58:09Z</time>
<desc>lat.=55.734634, lon.=26.257986, Alt.=152.162231m. Speed=1.620000m/h.</desc>
<speed>0.450000</speed>
</trkpt>
<trkpt lat="55.734638" lon="26.257978">
<ele>152.181763</ele>
<time>2010-07-17T09:58:10Z</time>
<desc>lat.=55.734638, lon.=26.257978, Alt.=152.181763m. Speed=1.548000m/h.</desc>
<speed>0.430000</speed>
</trkpt>
<trkpt lat="55.734638" lon="26.257973">
<ele>152.209106</ele>
<time>2010-07-17T09:58:11Z</time>
<desc>lat.=55.734638, lon.=26.257973, Alt.=152.209106m. Speed=1.296000m/h.</desc>
<speed>0.360000</speed>
</trkpt>
<trkpt lat="55.734642" lon="26.257969">
<ele>152.232544</ele>
<time>2010-07-17T09:58:12Z</time>
<desc>lat.=55.734642, lon.=26.257969, Alt.=152.232544m. Speed=1.260000m/h.</desc>
<speed>0.350000</speed>
</trkpt>
<trkpt lat="55.734642" lon="26.257963">
<ele>152.259888</ele>
<time>2010-07-17T09:58:13Z</time>
<desc>lat.=55.734642, lon.=26.257963, Alt.=152.259888m. Speed=1.152000m/h.</desc>
<speed>0.320000</speed>
</trkpt>
<trkpt lat="55.734646" lon="26.257959">
<ele>152.291138</ele>
<time>2010-07-17T09:58:14Z</time>
<desc>lat.=55.734646, lon.=26.257959, Alt.=152.291138m. Speed=1.080000m/h.</desc>
<speed>0.300000</speed>
</trkpt>
<trkpt lat="55.734650" lon="26.257956">
<ele>152.322388</ele>
<time>2010-07-17T09:58:15Z</time>
<desc>lat.=55.734650, lon.=26.257956, Alt.=152.322388m. Speed=1.368000m/h.</desc>
<speed>0.380000</speed>
</trkpt>
<trkpt lat="55.734650" lon="26.257950">
<ele>152.353638</ele>
<time>2010-07-17T09:58:16Z</time>
<desc>lat.=55.734650, lon.=26.257950, Alt.=152.353638m. Speed=1.260000m/h.</desc>
<speed>0.350000</speed>
</trkpt>
<trkpt lat="55.734650" lon="26.257944">
<ele>152.384888</ele>
<time>2010-07-17T09:58:17Z</time>
<desc>lat.=55.734650, lon.=26.257944, Alt.=152.384888m. Speed=1.116000m/h.</desc>
<speed>0.310000</speed>
</trkpt>
<trkpt lat="55.734653" lon="26.257940">
<ele>152.416138</ele>
<time>2010-07-17T09:58:18Z</time>
<desc>lat.=55.734653, lon.=26.257940, Alt.=152.416138m. Speed=0.792000m/h.</desc>
<speed>0.220000</speed>
</trkpt>
<trkpt lat="55.734653" lon="26.257936">
<ele>152.443481</ele>
<time>2010-07-17T09:58:19Z</time>
<desc>lat.=55.734653, lon.=26.257936, Alt.=152.443481m. Speed=0.324000m/h.</desc>
<speed>0.090000</speed>
</trkpt>
<trkpt lat="55.734653" lon="26.257935">
<ele>152.498169</ele>
<time>2010-07-17T09:58:20Z</time>
<desc>lat.=55.734653, lon.=26.257935, Alt.=152.498169m. Speed=0.504000m/h.</desc>
<speed>0.140000</speed>
</trkpt>
<trkpt lat="55.734653" lon="26.257933">
<ele>152.545044</ele>
<time>2010-07-17T09:58:21Z</time>
<desc>lat.=55.734653, lon.=26.257933, Alt.=152.545044m. Speed=0.684000m/h.</desc>
<speed>0.190000</speed>
</trkpt>
<trkpt lat="55.734653" lon="26.257931">
<ele>152.603638</ele>
<time>2010-07-17T09:58:22Z</time>
<desc>lat.=55.734653, lon.=26.257931, Alt.=152.603638m. Speed=0.180000m/h.</desc>
<speed>0.050000</speed>
</trkpt>
<trkpt lat="55.734653" lon="26.257931">
<ele>152.662231</ele>
<time>2010-07-17T09:58:23Z</time>
<desc>lat.=55.734653, lon.=26.257931, Alt.=152.662231m. Speed=0.288000m/h.</desc>
<speed>0.080000</speed>
</trkpt>
<trkpt lat="55.734653" lon="26.257929">
<ele>152.720825</ele>
<time>2010-07-17T09:58:24Z</time>
<desc>lat.=55.734653, lon.=26.257929, Alt.=152.720825m. Speed=0.432000m/h.</desc>
<speed>0.120000</speed>
</trkpt>
<trkpt lat="55.734653" lon="26.257927">
<ele>152.771606</ele>
<time>2010-07-17T09:58:25Z</time>
<desc>lat.=55.734653, lon.=26.257927, Alt.=152.771606m. Speed=0.108000m/h.</desc>
<speed>0.030000</speed>
</trkpt>
<trkpt lat="55.734653" lon="26.257925">
<ele>152.834106</ele>
<time>2010-07-17T09:58:26Z</time>
<desc>lat.=55.734653, lon.=26.257925, Alt.=152.834106m. Speed=0.144000m/h.</desc>
<speed>0.040000</speed>
</trkpt>
<trkpt lat="55.734653" lon="26.257925">
<ele>152.877075</ele>
<time>2010-07-17T09:58:27Z</time>
<desc>lat.=55.734653, lon.=26.257925, Alt.=152.877075m. Speed=0.108000m/h.</desc>
<speed>0.030000</speed>
</trkpt>
<trkpt lat="55.734650" lon="26.257925">
<ele>152.912231</ele>
<time>2010-07-17T09:58:28Z</time>
<desc>lat.=55.734650, lon.=26.257925, Alt.=152.912231m. Speed=0.108000m/h.</desc>
<speed>0.030000</speed>
</trkpt>
<trkpt lat="55.734650" lon="26.257923">
<ele>152.943481</ele>
<time>2010-07-17T09:58:29Z</time>
<desc>lat.=55.734650, lon.=26.257923, Alt.=152.943481m. Speed=0.180000m/h.</desc>
<speed>0.050000</speed>
</trkpt>
<trkpt lat="55.734650" lon="26.257923">
<ele>152.966919</ele>
<time>2010-07-17T09:58:30Z</time>
<desc>lat.=55.734650, lon.=26.257923, Alt.=152.966919m. Speed=0.180000m/h.</desc>
<speed>0.050000</speed>
</trkpt>
<trkpt lat="55.734650" lon="26.257923">
<ele>152.990356</ele>
<time>2010-07-17T09:58:31Z</time>
<desc>lat.=55.734650, lon.=26.257923, Alt.=152.990356m. Speed=0.396000m/h.</desc>
<speed>0.110000</speed>
</trkpt>
<trkpt lat="55.734650" lon="26.257921">
<ele>153.005981</ele>
<time>2010-07-17T09:58:32Z</time>
<desc>lat.=55.734650, lon.=26.257921, Alt.=153.005981m. Speed=0.504000m/h.</desc>
<speed>0.140000</speed>
</trkpt>
<trkpt lat="55.734650" lon="26.257917">
<ele>153.017700</ele>
<time>2010-07-17T09:58:33Z</time>
<desc>lat.=55.734650, lon.=26.257917, Alt.=153.017700m. Speed=0.576000m/h.</desc>
<speed>0.160000</speed>
</trkpt>
<trkpt lat="55.734650" lon="26.257915">
<ele>153.025513</ele>
<time>2010-07-17T09:58:34Z</time>
<desc>lat.=55.734650, lon.=26.257915, Alt.=153.025513m. Speed=0.720000m/h.</desc>
<speed>0.200000</speed>
</trkpt>
<trkpt lat="55.734650" lon="26.257912">
<ele>153.033325</ele>
<time>2010-07-17T09:58:35Z</time>
<desc>lat.=55.734650, lon.=26.257912, Alt.=153.033325m. Speed=0.468000m/h.</desc>
<speed>0.130000</speed>
</trkpt>
<trkpt lat="55.734650" lon="26.257910">
<ele>153.041138</ele>
<time>2010-07-17T09:58:36Z</time>
<desc>lat.=55.734650, lon.=26.257910, Alt.=153.041138m. Speed=0.612000m/h.</desc>
<speed>0.170000</speed>
</trkpt>
<trkpt lat="55.734653" lon="26.257908">
<ele>153.045044</ele>
<time>2010-07-17T09:58:37Z</time>
<desc>lat.=55.734653, lon.=26.257908, Alt.=153.045044m. Speed=0.612000m/h.</desc>
<speed>0.170000</speed>
</trkpt>
<trkpt lat="55.734653" lon="26.257904">
<ele>153.048950</ele>
<time>2010-07-17T09:58:38Z</time>
<desc>lat.=55.734653, lon.=26.257904, Alt.=153.048950m. Speed=0.648000m/h.</desc>
<speed>0.180000</speed>
</trkpt>
<trkpt lat="55.734653" lon="26.257900">
<ele>153.052856</ele>
<time>2010-07-17T09:58:39Z</time>
<desc>lat.=55.734653, lon.=26.257900, Alt.=153.052856m. Speed=0.828000m/h.</desc>
<speed>0.230000</speed>
</trkpt>
<trkpt lat="55.734653" lon="26.257898">
<ele>153.060669</ele>
<time>2010-07-17T09:58:40Z</time>
<desc>lat.=55.734653, lon.=26.257898, Alt.=153.060669m. Speed=0.540000m/h.</desc>
<speed>0.150000</speed>
</trkpt>
<trkpt lat="55.734653" lon="26.257896">
<ele>153.068481</ele>
<time>2010-07-17T09:58:41Z</time>
<desc>lat.=55.734653, lon.=26.257896, Alt.=153.068481m. Speed=0.108000m/h.</desc>
<speed>0.030000</speed>
</trkpt>
<trkpt lat="55.734653" lon="26.257896">
<ele>153.107544</ele>
<time>2010-07-17T09:58:42Z</time>
<desc>lat.=55.734653, lon.=26.257896, Alt.=153.107544m. Speed=0.324000m/h.</desc>
<speed>0.090000</speed>
</trkpt>
<trkpt lat="55.734653" lon="26.257895">
<ele>153.138794</ele>
<time>2010-07-17T09:58:43Z</time>
<desc>lat.=55.734653, lon.=26.257895, Alt.=153.138794m. Speed=0.180000m/h.</desc>
<speed>0.050000</speed>
</trkpt>
<trkpt lat="55.734653" lon="26.257893">
<ele>153.162231</ele>
<time>2010-07-17T09:58:44Z</time>
<desc>lat.=55.734653, lon.=26.257893, Alt.=153.162231m. Speed=0.216000m/h.</desc>
<speed>0.060000</speed>
</trkpt>
<trkpt lat="55.734653" lon="26.257893">
<ele>153.181763</ele>
<time>2010-07-17T09:58:45Z</time>
<desc>lat.=55.734653, lon.=26.257893, Alt.=153.181763m. Speed=0.180000m/h.</desc>
<speed>0.050000</speed>
</trkpt>
<trkpt lat="55.734653" lon="26.257891">
<ele>153.201294</ele>
<time>2010-07-17T09:58:46Z</time>
<desc>lat.=55.734653, lon.=26.257891, Alt.=153.201294m. Speed=0.324000m/h.</desc>
<speed>0.090000</speed>
</trkpt>
<trkpt lat="55.734653" lon="26.257889">
<ele>153.213013</ele>
<time>2010-07-17T09:58:47Z</time>
<desc>lat.=55.734653, lon.=26.257889, Alt.=153.213013m. Speed=0.216000m/h.</desc>
<speed>0.060000</speed>
</trkpt>
<trkpt lat="55.734653" lon="26.257889">
<ele>153.220825</ele>
<time>2010-07-17T09:58:48Z</time>
<desc>lat.=55.734653, lon.=26.257889, Alt.=153.220825m. Speed=0.432000m/h.</desc>
<speed>0.120000</speed>
</trkpt>
<trkpt lat="55.734653" lon="26.257887">
<ele>153.232544</ele>
<time>2010-07-17T09:58:49Z</time>
<desc>lat.=55.734653, lon.=26.257887, Alt.=153.232544m. Speed=0.396000m/h.</desc>
<speed>0.110000</speed>
</trkpt>
<trkpt lat="55.734653" lon="26.257885">
<ele>153.240356</ele>
<time>2010-07-17T09:58:50Z</time>
<desc>lat.=55.734653, lon.=26.257885, Alt.=153.240356m. Speed=0.360000m/h.</desc>
<speed>0.100000</speed>
</trkpt>
<trkpt lat="55.734653" lon="26.257883">
<ele>153.248169</ele>
<time>2010-07-17T09:58:51Z</time>
<desc>lat.=55.734653, lon.=26.257883, Alt.=153.248169m. Speed=0.108000m/h.</desc>
<speed>0.030000</speed>
</trkpt>
<trkpt lat="55.734653" lon="26.257883">
<ele>153.263794</ele>
<time>2010-07-17T09:58:52Z</time>
<desc>lat.=55.734653, lon.=26.257883, Alt.=153.263794m. Speed=0.324000m/h.</desc>
<speed>0.090000</speed>
</trkpt>
<trkpt lat="55.734653" lon="26.257881">
<ele>153.267700</ele>
<time>2010-07-17T09:58:53Z</time>
<desc>lat.=55.734653, lon.=26.257881, Alt.=153.267700m. Speed=0.612000m/h.</desc>
<speed>0.170000</speed>
</trkpt>
<trkpt lat="55.734653" lon="26.257877">
<ele>153.271606</ele>
<time>2010-07-17T09:58:54Z</time>
<desc>lat.=55.734653, lon.=26.257877, Alt.=153.271606m. Speed=0.504000m/h.</desc>
<speed>0.140000</speed>
</trkpt>
<trkpt lat="55.734653" lon="26.257875">
<ele>153.275513</ele>
<time>2010-07-17T09:58:55Z</time>
<desc>lat.=55.734653, lon.=26.257875, Alt.=153.275513m. Speed=0.252000m/h.</desc>
<speed>0.070000</speed>
</trkpt>
<trkpt lat="55.734653" lon="26.257875">
<ele>153.287231</ele>
<time>2010-07-17T09:58:56Z</time>
<desc>lat.=55.734653, lon.=26.257875, Alt.=153.287231m. Speed=0.288000m/h.</desc>
<speed>0.080000</speed>
</trkpt>
<trkpt lat="55.734653" lon="26.257874">
<ele>153.291138</ele>
<time>2010-07-17T09:58:57Z</time>
<desc>lat.=55.734653, lon.=26.257874, Alt.=153.291138m. Speed=0.324000m/h.</desc>
<speed>0.090000</speed>
</trkpt>
<trkpt lat="55.734653" lon="26.257872">
<ele>153.295044</ele>
<time>2010-07-17T09:58:58Z</time>
<desc>lat.=55.734653, lon.=26.257872, Alt.=153.295044m. Speed=0.360000m/h.</desc>
<speed>0.100000</speed>
</trkpt>
<trkpt lat="55.734653" lon="26.257872">
<ele>153.302856</ele>
<time>2010-07-17T09:58:59Z</time>
<desc>lat.=55.734653, lon.=26.257872, Alt.=153.302856m. Speed=0.144000m/h.</desc>
<speed>0.040000</speed>
</trkpt>
<trkpt lat="55.734653" lon="26.257870">
<ele>153.318481</ele>
<time>2010-07-17T09:59:00Z</time>
<desc>lat.=55.734653, lon.=26.257870, Alt.=153.318481m. Speed=0.144000m/h.</desc>
<speed>0.040000</speed>
</trkpt>
<trkpt lat="55.734653" lon="26.257870">
<ele>153.334106</ele>
<time>2010-07-17T09:59:01Z</time>
<desc>lat.=55.734653, lon.=26.257870, Alt.=153.334106m. Speed=0.108000m/h.</desc>
<speed>0.030000</speed>
</trkpt>
<trkpt lat="55.734653" lon="26.257870">
<ele>153.349731</ele>
<time>2010-07-17T09:59:02Z</time>
<desc>lat.=55.734653, lon.=26.257870, Alt.=153.349731m. Speed=0.036000m/h.</desc>
<speed>0.010000</speed>
</trkpt>
<trkpt lat="55.734653" lon="26.257870">
<ele>153.369263</ele>
<time>2010-07-17T09:59:03Z</time>
<desc>lat.=55.734653, lon.=26.257870, Alt.=153.369263m. Speed=0.072000m/h.</desc>
<speed>0.020000</speed>
</trkpt>
<trkpt lat="55.734653" lon="26.257868">
<ele>153.404419</ele>
<time>2010-07-17T09:59:04Z</time>
<desc>lat.=55.734653, lon.=26.257868, Alt.=153.404419m. Speed=0.216000m/h.</desc>
<speed>0.060000</speed>
</trkpt>
<trkpt lat="55.734653" lon="26.257868">
<ele>153.443481</ele>
<time>2010-07-17T09:59:05Z</time>
<desc>lat.=55.734653, lon.=26.257868, Alt.=153.443481m. Speed=0.108000m/h.</desc>
<speed>0.030000</speed>
</trkpt>
<trkpt lat="55.734653" lon="26.257868">
<ele>153.490356</ele>
<time>2010-07-17T09:59:06Z</time>
<desc>lat.=55.734653, lon.=26.257868, Alt.=153.490356m. Speed=0.180000m/h.</desc>
<speed>0.050000</speed>
</trkpt>
<trkpt lat="55.734653" lon="26.257866">
<ele>153.521606</ele>
<time>2010-07-17T09:59:07Z</time>
<desc>lat.=55.734653, lon.=26.257866, Alt.=153.521606m. Speed=0.036000m/h.</desc>
<speed>0.010000</speed>
</trkpt>
<trkpt lat="55.734653" lon="26.257866">
<ele>153.552856</ele>
<time>2010-07-17T09:59:08Z</time>
<desc>lat.=55.734653, lon.=26.257866, Alt.=153.552856m. Speed=0.036000m/h.</desc>
<speed>0.010000</speed>
</trkpt>
<trkpt lat="55.734653" lon="26.257866">
<ele>153.576294</ele>
<time>2010-07-17T09:59:09Z</time>
<desc>lat.=55.734653, lon.=26.257866, Alt.=153.576294m. Speed=0.108000m/h.</desc>
<speed>0.030000</speed>
</trkpt>
<trkpt lat="55.734653" lon="26.257866">
<ele>153.599731</ele>
<time>2010-07-17T09:59:10Z</time>
<desc>lat.=55.734653, lon.=26.257866, Alt.=153.599731m. Speed=0.108000m/h.</desc>
<speed>0.030000</speed>
</trkpt>
<trkpt lat="55.734653" lon="26.257866">
<ele>153.599731</ele>
<time>2010-07-17T09:59:11Z</time>
<desc>lat.=55.734653, lon.=26.257866, Alt.=153.599731m. Speed=0.072000m/h.</desc>
<speed>0.020000</speed>
</trkpt>
<trkpt lat="55.734653" lon="26.257866">
<ele>153.603638</ele>
<time>2010-07-17T09:59:12Z</time>
<desc>lat.=55.734653, lon.=26.257866, Alt.=153.603638m. Speed=0.072000m/h.</desc>
<speed>0.020000</speed>
</trkpt>
<trkpt lat="55.734653" lon="26.257866">
<ele>153.599731</ele>
<time>2010-07-17T09:59:13Z</time>
<desc>lat.=55.734653, lon.=26.257866, Alt.=153.599731m. Speed=0.000000m/h.</desc>
<speed>0.000000</speed>
</trkpt>
<trkpt lat="55.734653" lon="26.257866">
<ele>153.595825</ele>
<time>2010-07-17T09:59:14Z</time>
<desc>lat.=55.734653, lon.=26.257866, Alt.=153.595825m. Speed=0.108000m/h.</desc>
<speed>0.030000</speed>
</trkpt>
<trkpt lat="55.734653" lon="26.257866">
<ele>153.591919</ele>
<time>2010-07-17T09:59:15Z</time>
<desc>lat.=55.734653, lon.=26.257866, Alt.=153.591919m. Speed=0.036000m/h.</desc>
<speed>0.010000</speed>
</trkpt>
<trkpt lat="55.734653" lon="26.257866">
<ele>153.595825</ele>
<time>2010-07-17T09:59:16Z</time>
<desc>lat.=55.734653, lon.=26.257866, Alt.=153.595825m. Speed=0.108000m/h.</desc>
<speed>0.030000</speed>
</trkpt>
<trkpt lat="55.734653" lon="26.257866">
<ele>153.603638</ele>
<time>2010-07-17T09:59:17Z</time>
<desc>lat.=55.734653, lon.=26.257866, Alt.=153.603638m. Speed=0.000000m/h.</desc>
<speed>0.000000</speed>
</trkpt>
<trkpt lat="55.734653" lon="26.257866">
<ele>153.599731</ele>
<time>2010-07-17T09:59:18Z</time>
<desc>lat.=55.734653, lon.=26.257866, Alt.=153.599731m. Speed=0.000000m/h.</desc>
<speed>0.000000</speed>
</trkpt>
<trkpt lat="55.734653" lon="26.257866">
<ele>153.599731</ele>
<time>2010-07-17T09:59:19Z</time>
<desc>lat.=55.734653, lon.=26.257866, Alt.=153.599731m. Speed=0.000000m/h.</desc>
<speed>0.000000</speed>
</trkpt>
<trkpt lat="55.734653" lon="26.257866">
<ele>153.599731</ele>
<time>2010-07-17T09:59:20Z</time>
<desc>lat.=55.734653, lon.=26.257866, Alt.=153.599731m. Speed=0.036000m/h.</desc>
<speed>0.010000</speed>
</trkpt>
<trkpt lat="55.734653" lon="26.257868">
<ele>153.599731</ele>
<time>2010-07-17T09:59:21Z</time>
<desc>lat.=55.734653, lon.=26.257868, Alt.=153.599731m. Speed=0.036000m/h.</desc>
<speed>0.010000</speed>
</trkpt>
<trkpt lat="55.734653" lon="26.257868">
<ele>153.599731</ele>
<time>2010-07-17T09:59:22Z</time>
<desc>lat.=55.734653, lon.=26.257868, Alt.=153.599731m. Speed=0.036000m/h.</desc>
<speed>0.010000</speed>
</trkpt>
<trkpt lat="55.734653" lon="26.257868">
<ele>153.595825</ele>
<time>2010-07-17T09:59:23Z</time>
<desc>lat.=55.734653, lon.=26.257868, Alt.=153.595825m. Speed=0.036000m/h.</desc>
<speed>0.010000</speed>
</trkpt>
<trkpt lat="55.734653" lon="26.257868">
<ele>153.599731</ele>
<time>2010-07-17T09:59:24Z</time>
<desc>lat.=55.734653, lon.=26.257868, Alt.=153.599731m. Speed=0.036000m/h.</desc>
<speed>0.010000</speed>
</trkpt>
<trkpt lat="55.734653" lon="26.257868">
<ele>153.599731</ele>
<time>2010-07-17T09:59:25Z</time>
<desc>lat.=55.734653, lon.=26.257868, Alt.=153.599731m. Speed=0.000000m/h.</desc>
<speed>0.000000</speed>
</trkpt>
<trkpt lat="55.734653" lon="26.257868">
<ele>153.603638</ele>
<time>2010-07-17T09:59:26Z</time>
<desc>lat.=55.734653, lon.=26.257868, Alt.=153.603638m. Speed=0.000000m/h.</desc>
<speed>0.000000</speed>
</trkpt>
<trkpt lat="55.734653" lon="26.257868">
<ele>153.603638</ele>
<time>2010-07-17T09:59:27Z</time>
<desc>lat.=55.734653, lon.=26.257868, Alt.=153.603638m. Speed=0.144000m/h.</desc>
<speed>0.040000</speed>
</trkpt>
<trkpt lat="55.734653" lon="26.257868">
<ele>153.607544</ele>
<time>2010-07-17T09:59:28Z</time>
<desc>lat.=55.734653, lon.=26.257868, Alt.=153.607544m. Speed=0.072000m/h.</desc>
<speed>0.020000</speed>
</trkpt>
<trkpt lat="55.734653" lon="26.257868">
<ele>153.611450</ele>
<time>2010-07-17T09:59:29Z</time>
<desc>lat.=55.734653, lon.=26.257868, Alt.=153.611450m. Speed=0.072000m/h.</desc>
<speed>0.020000</speed>
</trkpt>
<trkpt lat="55.734653" lon="26.257868">
<ele>153.611450</ele>
<time>2010-07-17T09:59:30Z</time>
<desc>lat.=55.734653, lon.=26.257868, Alt.=153.611450m. Speed=0.036000m/h.</desc>
<speed>0.010000</speed>
</trkpt>
<trkpt lat="55.734653" lon="26.257868">
<ele>153.607544</ele>
<time>2010-07-17T09:59:31Z</time>
<desc>lat.=55.734653, lon.=26.257868, Alt.=153.607544m. Speed=0.036000m/h.</desc>
<speed>0.010000</speed>
</trkpt>
<trkpt lat="55.734653" lon="26.257868">
<ele>153.607544</ele>
<time>2010-07-17T09:59:32Z</time>
<desc>lat.=55.734653, lon.=26.257868, Alt.=153.607544m. Speed=0.000000m/h.</desc>
<speed>0.000000</speed>
</trkpt>
<trkpt lat="55.734653" lon="26.257868">
<ele>153.603638</ele>
<time>2010-07-17T09:59:33Z</time>
<desc>lat.=55.734653, lon.=26.257868, Alt.=153.603638m. Speed=0.000000m/h.</desc>
<speed>0.000000</speed>
</trkpt>
<trkpt lat="55.734653" lon="26.257868">
<ele>153.607544</ele>
<time>2010-07-17T09:59:34Z</time>
<desc>lat.=55.734653, lon.=26.257868, Alt.=153.607544m. Speed=0.108000m/h.</desc>
<speed>0.030000</speed>
</trkpt>
<trkpt lat="55.734653" lon="26.257868">
<ele>153.607544</ele>
<time>2010-07-17T09:59:35Z</time>
<desc>lat.=55.734653, lon.=26.257868, Alt.=153.607544m. Speed=0.036000m/h.</desc>
<speed>0.010000</speed>
</trkpt>
<trkpt lat="55.734653" lon="26.257868">
<ele>153.607544</ele>
<time>2010-07-17T09:59:36Z</time>
<desc>lat.=55.734653, lon.=26.257868, Alt.=153.607544m. Speed=0.072000m/h.</desc>
<speed>0.020000</speed>
</trkpt>
<trkpt lat="55.734653" lon="26.257868">
<ele>153.607544</ele>
<time>2010-07-17T09:59:37Z</time>
<desc>lat.=55.734653, lon.=26.257868, Alt.=153.607544m. Speed=0.036000m/h.</desc>
<speed>0.010000</speed>
</trkpt>
<trkpt lat="55.734653" lon="26.257870">
<ele>153.611450</ele>
<time>2010-07-17T09:59:38Z</time>
<desc>lat.=55.734653, lon.=26.257870, Alt.=153.611450m. Speed=0.000000m/h.</desc>
<speed>0.000000</speed>
</trkpt>
<trkpt lat="55.734653" lon="26.257870">
<ele>153.615356</ele>
<time>2010-07-17T09:59:39Z</time>
<desc>lat.=55.734653, lon.=26.257870, Alt.=153.615356m. Speed=0.072000m/h.</desc>
<speed>0.020000</speed>
</trkpt>
<trkpt lat="55.734653" lon="26.257868">
<ele>153.623169</ele>
<time>2010-07-17T09:59:40Z</time>
<desc>lat.=55.734653, lon.=26.257868, Alt.=153.623169m. Speed=0.036000m/h.</desc>
<speed>0.010000</speed>
</trkpt>
<trkpt lat="55.734653" lon="26.257870">
<ele>153.623169</ele>
<time>2010-07-17T09:59:41Z</time>
<desc>lat.=55.734653, lon.=26.257870, Alt.=153.623169m. Speed=0.072000m/h.</desc>
<speed>0.020000</speed>
</trkpt>
<trkpt lat="55.734653" lon="26.257870">
<ele>153.627075</ele>
<time>2010-07-17T09:59:42Z</time>
<desc>lat.=55.734653, lon.=26.257870, Alt.=153.627075m. Speed=0.036000m/h.</desc>
<speed>0.010000</speed>
</trkpt>
<trkpt lat="55.734653" lon="26.257870">
<ele>153.634888</ele>
<time>2010-07-17T09:59:43Z</time>
<desc>lat.=55.734653, lon.=26.257870, Alt.=153.634888m. Speed=0.000000m/h.</desc>
<speed>0.000000</speed>
</trkpt>
<trkpt lat="55.734653" lon="26.257870">
<ele>153.646606</ele>
<time>2010-07-17T09:59:44Z</time>
<desc>lat.=55.734653, lon.=26.257870, Alt.=153.646606m. Speed=0.144000m/h.</desc>
<speed>0.040000</speed>
</trkpt>
<trkpt lat="55.734653" lon="26.257870">
<ele>153.650513</ele>
<time>2010-07-17T09:59:45Z</time>
<desc>lat.=55.734653, lon.=26.257870, Alt.=153.650513m. Speed=0.036000m/h.</desc>
<speed>0.010000</speed>
</trkpt>
<trkpt lat="55.734653" lon="26.257870">
<ele>153.654419</ele>
<time>2010-07-17T09:59:46Z</time>
<desc>lat.=55.734653, lon.=26.257870, Alt.=153.654419m. Speed=0.036000m/h.</desc>
<speed>0.010000</speed>
</trkpt>
<trkpt lat="55.734653" lon="26.257868">
<ele>153.662231</ele>
<time>2010-07-17T09:59:47Z</time>
<desc>lat.=55.734653, lon.=26.257868, Alt.=153.662231m. Speed=0.036000m/h.</desc>
<speed>0.010000</speed>
</trkpt>
<trkpt lat="55.734653" lon="26.257868">
<ele>153.662231</ele>
<time>2010-07-17T09:59:48Z</time>
<desc>lat.=55.734653, lon.=26.257868, Alt.=153.662231m. Speed=0.000000m/h.</desc>
<speed>0.000000</speed>
</trkpt>
<trkpt lat="55.734653" lon="26.257868">
<ele>153.670044</ele>
<time>2010-07-17T09:59:49Z</time>
<desc>lat.=55.734653, lon.=26.257868, Alt.=153.670044m. Speed=0.036000m/h.</desc>
<speed>0.010000</speed>
</trkpt>
<trkpt lat="55.734653" lon="26.257868">
<ele>153.673950</ele>
<time>2010-07-17T09:59:50Z</time>
<desc>lat.=55.734653, lon.=26.257868, Alt.=153.673950m. Speed=0.000000m/h.</desc>
<speed>0.000000</speed>
</trkpt>
<trkpt lat="55.734653" lon="26.257868">
<ele>153.677856</ele>
<time>2010-07-17T09:59:51Z</time>
<desc>lat.=55.734653, lon.=26.257868, Alt.=153.677856m. Speed=0.036000m/h.</desc>
<speed>0.010000</speed>
</trkpt>
<trkpt lat="55.734653" lon="26.257868">
<ele>153.681763</ele>
<time>2010-07-17T09:59:52Z</time>
<desc>lat.=55.734653, lon.=26.257868, Alt.=153.681763m. Speed=0.072000m/h.</desc>
<speed>0.020000</speed>
</trkpt>
<trkpt lat="55.734653" lon="26.257868">
<ele>153.685669</ele>
<time>2010-07-17T09:59:53Z</time>
<desc>lat.=55.734653, lon.=26.257868, Alt.=153.685669m. Speed=0.072000m/h.</desc>
<speed>0.020000</speed>
</trkpt>
<trkpt lat="55.734653" lon="26.257868">
<ele>153.693481</ele>
<time>2010-07-17T09:59:54Z</time>
<desc>lat.=55.734653, lon.=26.257868, Alt.=153.693481m. Speed=0.108000m/h.</desc>
<speed>0.030000</speed>
</trkpt>
<trkpt lat="55.734653" lon="26.257868">
<ele>153.709106</ele>
<time>2010-07-17T09:59:55Z</time>
<desc>lat.=55.734653, lon.=26.257868, Alt.=153.709106m. Speed=0.036000m/h.</desc>
<speed>0.010000</speed>
</trkpt>
<trkpt lat="55.734653" lon="26.257868">
<ele>153.716919</ele>
<time>2010-07-17T09:59:56Z</time>
<desc>lat.=55.734653, lon.=26.257868, Alt.=153.716919m. Speed=0.036000m/h.</desc>
<speed>0.010000</speed>
</trkpt>
<trkpt lat="55.734653" lon="26.257868">
<ele>153.732544</ele>
<time>2010-07-17T09:59:57Z</time>
<desc>lat.=55.734653, lon.=26.257868, Alt.=153.732544m. Speed=0.036000m/h.</desc>
<speed>0.010000</speed>
</trkpt>
<trkpt lat="55.734653" lon="26.257868">
<ele>153.736450</ele>
<time>2010-07-17T09:59:58Z</time>
<desc>lat.=55.734653, lon.=26.257868, Alt.=153.736450m. Speed=0.000000m/h.</desc>
<speed>0.000000</speed>
</trkpt>
<trkpt lat="55.734653" lon="26.257868">
<ele>153.744263</ele>
<time>2010-07-17T09:59:59Z</time>
<desc>lat.=55.734653, lon.=26.257868, Alt.=153.744263m. Speed=0.036000m/h.</desc>
<speed>0.010000</speed>
</trkpt>
<trkpt lat="55.734653" lon="26.257868">
<ele>153.748169</ele>
<time>2010-07-17T10:00:00Z</time>
<desc>lat.=55.734653, lon.=26.257868, Alt.=153.748169m. Speed=0.036000m/h.</desc>
<speed>0.010000</speed>
</trkpt>
<trkpt lat="55.734653" lon="26.257868">
<ele>153.759888</ele>
<time>2010-07-17T10:00:01Z</time>
<desc>lat.=55.734653, lon.=26.257868, Alt.=153.759888m. Speed=0.072000m/h.</desc>
<speed>0.020000</speed>
</trkpt>
<trkpt lat="55.734653" lon="26.257868">
<ele>153.775513</ele>
<time>2010-07-17T10:00:02Z</time>
<desc>lat.=55.734653, lon.=26.257868, Alt.=153.775513m. Speed=0.072000m/h.</desc>
<speed>0.020000</speed>
</trkpt>
<trkpt lat="55.734653" lon="26.257868">
<ele>153.783325</ele>
<time>2010-07-17T10:00:03Z</time>
<desc>lat.=55.734653, lon.=26.257868, Alt.=153.783325m. Speed=0.072000m/h.</desc>
<speed>0.020000</speed>
</trkpt>
<trkpt lat="55.734653" lon="26.257868">
<ele>153.795044</ele>
<time>2010-07-17T10:00:04Z</time>
<desc>lat.=55.734653, lon.=26.257868, Alt.=153.795044m. Speed=0.036000m/h.</desc>
<speed>0.010000</speed>
</trkpt>
<trkpt lat="55.734653" lon="26.257868">
<ele>153.798950</ele>
<time>2010-07-17T10:00:05Z</time>
<desc>lat.=55.734653, lon.=26.257868, Alt.=153.798950m. Speed=0.000000m/h.</desc>
<speed>0.000000</speed>
</trkpt>
<trkpt lat="55.734653" lon="26.257868">
<ele>153.806763</ele>
<time>2010-07-17T10:00:06Z</time>
<desc>lat.=55.734653, lon.=26.257868, Alt.=153.806763m. Speed=0.036000m/h.</desc>
<speed>0.010000</speed>
</trkpt>
<trkpt lat="55.734653" lon="26.257868">
<ele>153.806763</ele>
<time>2010-07-17T10:00:07Z</time>
<desc>lat.=55.734653, lon.=26.257868, Alt.=153.806763m. Speed=0.000000m/h.</desc>
<speed>0.000000</speed>
</trkpt>
<trkpt lat="55.734653" lon="26.257868">
<ele>153.810669</ele>
<time>2010-07-17T10:00:08Z</time>
<desc>lat.=55.734653, lon.=26.257868, Alt.=153.810669m. Speed=0.108000m/h.</desc>
<speed>0.030000</speed>
</trkpt>
<trkpt lat="55.734653" lon="26.257868">
<ele>153.810669</ele>
<time>2010-07-17T10:00:09Z</time>
<desc>lat.=55.734653, lon.=26.257868, Alt.=153.810669m. Speed=0.108000m/h.</desc>
<speed>0.030000</speed>
</trkpt>
<trkpt lat="55.734653" lon="26.257868">
<ele>153.814575</ele>
<time>2010-07-17T10:00:10Z</time>
<desc>lat.=55.734653, lon.=26.257868, Alt.=153.814575m. Speed=0.000000m/h.</desc>
<speed>0.000000</speed>
</trkpt>
<trkpt lat="55.734653" lon="26.257868">
<ele>153.818481</ele>
<time>2010-07-17T10:00:11Z</time>
<desc>lat.=55.734653, lon.=26.257868, Alt.=153.818481m. Speed=0.036000m/h.</desc>
<speed>0.010000</speed>
</trkpt>
<trkpt lat="55.734653" lon="26.257868">
<ele>153.818481</ele>
<time>2010-07-17T10:00:12Z</time>
<desc>lat.=55.734653, lon.=26.257868, Alt.=153.818481m. Speed=0.072000m/h.</desc>
<speed>0.020000</speed>
</trkpt>
<trkpt lat="55.734653" lon="26.257868">
<ele>153.818481</ele>
<time>2010-07-17T10:00:13Z</time>
<desc>lat.=55.734653, lon.=26.257868, Alt.=153.818481m. Speed=0.000000m/h.</desc>
<speed>0.000000</speed>
</trkpt>
<trkpt lat="55.734653" lon="26.257868">
<ele>153.818481</ele>
<time>2010-07-17T10:00:14Z</time>
<desc>lat.=55.734653, lon.=26.257868, Alt.=153.818481m. Speed=0.036000m/h.</desc>
<speed>0.010000</speed>
</trkpt>
<trkpt lat="55.734653" lon="26.257868">
<ele>153.830200</ele>
<time>2010-07-17T10:00:15Z</time>
<desc>lat.=55.734653, lon.=26.257868, Alt.=153.830200m. Speed=0.036000m/h.</desc>
<speed>0.010000</speed>
</trkpt>
<trkpt lat="55.734653" lon="26.257868">
<ele>153.834106</ele>
<time>2010-07-17T10:00:16Z</time>
<desc>lat.=55.734653, lon.=26.257868, Alt.=153.834106m. Speed=0.036000m/h.</desc>
<speed>0.010000</speed>
</trkpt>
<trkpt lat="55.734653" lon="26.257868">
<ele>153.838013</ele>
<time>2010-07-17T10:00:17Z</time>
<desc>lat.=55.734653, lon.=26.257868, Alt.=153.838013m. Speed=0.072000m/h.</desc>
<speed>0.020000</speed>
</trkpt>
<trkpt lat="55.734653" lon="26.257868">
<ele>153.849731</ele>
<time>2010-07-17T10:00:18Z</time>
<desc>lat.=55.734653, lon.=26.257868, Alt.=153.849731m. Speed=0.072000m/h.</desc>
<speed>0.020000</speed>
</trkpt>
<trkpt lat="55.734653" lon="26.257868">
<ele>153.857544</ele>
<time>2010-07-17T10:00:19Z</time>
<desc>lat.=55.734653, lon.=26.257868, Alt.=153.857544m. Speed=0.108000m/h.</desc>
<speed>0.030000</speed>
</trkpt>
<trkpt lat="55.734653" lon="26.257868">
<ele>153.857544</ele>
<time>2010-07-17T10:00:20Z</time>
<desc>lat.=55.734653, lon.=26.257868, Alt.=153.857544m. Speed=0.000000m/h.</desc>
<speed>0.000000</speed>
</trkpt>
<trkpt lat="55.734653" lon="26.257868">
<ele>153.853638</ele>
<time>2010-07-17T10:00:21Z</time>
<desc>lat.=55.734653, lon.=26.257868, Alt.=153.853638m. Speed=0.036000m/h.</desc>
<speed>0.010000</speed>
</trkpt>
<trkpt lat="55.734653" lon="26.257868">
<ele>153.849731</ele>
<time>2010-07-17T10:00:22Z</time>
<desc>lat.=55.734653, lon.=26.257868, Alt.=153.849731m. Speed=0.072000m/h.</desc>
<speed>0.020000</speed>
</trkpt>
<trkpt lat="55.734653" lon="26.257868">
<ele>153.849731</ele>
<time>2010-07-17T10:00:23Z</time>
<desc>lat.=55.734653, lon.=26.257868, Alt.=153.849731m. Speed=0.036000m/h.</desc>
<speed>0.010000</speed>
</trkpt>
<trkpt lat="55.734653" lon="26.257868">
<ele>153.849731</ele>
<time>2010-07-17T10:00:24Z</time>
<desc>lat.=55.734653, lon.=26.257868, Alt.=153.849731m. Speed=0.036000m/h.</desc>
<speed>0.010000</speed>
</trkpt>
<trkpt lat="55.734653" lon="26.257868">
<ele>153.849731</ele>
<time>2010-07-17T10:00:25Z</time>
<desc>lat.=55.734653, lon.=26.257868, Alt.=153.849731m. Speed=0.000000m/h.</desc>
<speed>0.000000</speed>
</trkpt>
<trkpt lat="55.734653" lon="26.257868">
<ele>153.849731</ele>
<time>2010-07-17T10:00:26Z</time>
<desc>lat.=55.734653, lon.=26.257868, Alt.=153.849731m. Speed=0.000000m/h.</desc>
<speed>0.000000</speed>
</trkpt>
<trkpt lat="55.734653" lon="26.257868">
<ele>153.857544</ele>
<time>2010-07-17T10:00:27Z</time>
<desc>lat.=55.734653, lon.=26.257868, Alt.=153.857544m. Speed=0.072000m/h.</desc>
<speed>0.020000</speed>
</trkpt>
<trkpt lat="55.734650" lon="26.257870">
<ele>153.861450</ele>
<time>2010-07-17T10:00:28Z</time>
<desc>lat.=55.734650, lon.=26.257870, Alt.=153.861450m. Speed=0.072000m/h.</desc>
<speed>0.020000</speed>
</trkpt>
<trkpt lat="55.734650" lon="26.257870">
<ele>153.861450</ele>
<time>2010-07-17T10:00:29Z</time>
<desc>lat.=55.734650, lon.=26.257870, Alt.=153.861450m. Speed=0.036000m/h.</desc>
<speed>0.010000</speed>
</trkpt>
<trkpt lat="55.734650" lon="26.257870">
<ele>153.865356</ele>
<time>2010-07-17T10:00:30Z</time>
<desc>lat.=55.734650, lon.=26.257870, Alt.=153.865356m. Speed=0.072000m/h.</desc>
<speed>0.020000</speed>
</trkpt>
<trkpt lat="55.734650" lon="26.257870">
<ele>153.869263</ele>
<time>2010-07-17T10:00:31Z</time>
<desc>lat.=55.734650, lon.=26.257870, Alt.=153.869263m. Speed=0.000000m/h.</desc>
<speed>0.000000</speed>
</trkpt>
<trkpt lat="55.734650" lon="26.257870">
<ele>153.877075</ele>
<time>2010-07-17T10:00:32Z</time>
<desc>lat.=55.734650, lon.=26.257870, Alt.=153.877075m. Speed=0.108000m/h.</desc>
<speed>0.030000</speed>
</trkpt>
<trkpt lat="55.734650" lon="26.257870">
<ele>153.877075</ele>
<time>2010-07-17T10:00:33Z</time>
<desc>lat.=55.734650, lon.=26.257870, Alt.=153.877075m. Speed=0.072000m/h.</desc>
<speed>0.020000</speed>
</trkpt>
<trkpt lat="55.734650" lon="26.257870">
<ele>153.880981</ele>
<time>2010-07-17T10:00:34Z</time>
<desc>lat.=55.734650, lon.=26.257870, Alt.=153.880981m. Speed=0.036000m/h.</desc>
<speed>0.010000</speed>
</trkpt>
<trkpt lat="55.734650" lon="26.257870">
<ele>153.888794</ele>
<time>2010-07-17T10:00:35Z</time>
<desc>lat.=55.734650, lon.=26.257870, Alt.=153.888794m. Speed=0.108000m/h.</desc>
<speed>0.030000</speed>
</trkpt>
<trkpt lat="55.734650" lon="26.257870">
<ele>153.900513</ele>
<time>2010-07-17T10:00:36Z</time>
<desc>lat.=55.734650, lon.=26.257870, Alt.=153.900513m. Speed=0.036000m/h.</desc>
<speed>0.010000</speed>
</trkpt>
<trkpt lat="55.734650" lon="26.257868">
<ele>153.904419</ele>
<time>2010-07-17T10:00:37Z</time>
<desc>lat.=55.734650, lon.=26.257868, Alt.=153.904419m. Speed=0.036000m/h.</desc>
<speed>0.010000</speed>
</trkpt>
<trkpt lat="55.734650" lon="26.257868">
<ele>153.916138</ele>
<time>2010-07-17T10:00:38Z</time>
<desc>lat.=55.734650, lon.=26.257868, Alt.=153.916138m. Speed=0.072000m/h.</desc>
<speed>0.020000</speed>
</trkpt>
<trkpt lat="55.734650" lon="26.257868">
<ele>153.920044</ele>
<time>2010-07-17T10:00:39Z</time>
<desc>lat.=55.734650, lon.=26.257868, Alt.=153.920044m. Speed=0.036000m/h.</desc>
<speed>0.010000</speed>
</trkpt>
<trkpt lat="55.734650" lon="26.257868">
<ele>153.927856</ele>
<time>2010-07-17T10:00:40Z</time>
<desc>lat.=55.734650, lon.=26.257868, Alt.=153.927856m. Speed=0.036000m/h.</desc>
<speed>0.010000</speed>
</trkpt>
<trkpt lat="55.734650" lon="26.257868">
<ele>153.931763</ele>
<time>2010-07-17T10:00:41Z</time>
<desc>lat.=55.734650, lon.=26.257868, Alt.=153.931763m. Speed=0.072000m/h.</desc>
<speed>0.020000</speed>
</trkpt>
<trkpt lat="55.734650" lon="26.257868">
<ele>153.935669</ele>
<time>2010-07-17T10:00:42Z</time>
<desc>lat.=55.734650, lon.=26.257868, Alt.=153.935669m. Speed=0.108000m/h.</desc>
<speed>0.030000</speed>
</trkpt>
<trkpt lat="55.734650" lon="26.257868">
<ele>153.939575</ele>
<time>2010-07-17T10:00:43Z</time>
<desc>lat.=55.734650, lon.=26.257868, Alt.=153.939575m. Speed=0.036000m/h.</desc>
<speed>0.010000</speed>
</trkpt>
<trkpt lat="55.734650" lon="26.257868">
<ele>153.939575</ele>
<time>2010-07-17T10:00:44Z</time>
<desc>lat.=55.734650, lon.=26.257868, Alt.=153.939575m. Speed=0.000000m/h.</desc>
<speed>0.000000</speed>
</trkpt>
<trkpt lat="55.734650" lon="26.257870">
<ele>153.943481</ele>
<time>2010-07-17T10:00:45Z</time>
<desc>lat.=55.734650, lon.=26.257870, Alt.=153.943481m. Speed=0.000000m/h.</desc>
<speed>0.000000</speed>
</trkpt>
<trkpt lat="55.734650" lon="26.257870">
<ele>153.943481</ele>
<time>2010-07-17T10:00:46Z</time>
<desc>lat.=55.734650, lon.=26.257870, Alt.=153.943481m. Speed=0.000000m/h.</desc>
<speed>0.000000</speed>
</trkpt>
<trkpt lat="55.734650" lon="26.257870">
<ele>153.947388</ele>
<time>2010-07-17T10:00:47Z</time>
<desc>lat.=55.734650, lon.=26.257870, Alt.=153.947388m. Speed=0.072000m/h.</desc>
<speed>0.020000</speed>
</trkpt>
<trkpt lat="55.734650" lon="26.257870">
<ele>153.955200</ele>
<time>2010-07-17T10:00:48Z</time>
<desc>lat.=55.734650, lon.=26.257870, Alt.=153.955200m. Speed=0.036000m/h.</desc>
<speed>0.010000</speed>
</trkpt>
<trkpt lat="55.734650" lon="26.257870">
<ele>153.959106</ele>
<time>2010-07-17T10:00:49Z</time>
<desc>lat.=55.734650, lon.=26.257870, Alt.=153.959106m. Speed=0.000000m/h.</desc>
<speed>0.000000</speed>
</trkpt>
<trkpt lat="55.734650" lon="26.257870">
<ele>153.955200</ele>
<time>2010-07-17T10:00:50Z</time>
<desc>lat.=55.734650, lon.=26.257870, Alt.=153.955200m. Speed=0.000000m/h.</desc>
<speed>0.000000</speed>
</trkpt>
<trkpt lat="55.734650" lon="26.257870">
<ele>153.959106</ele>
<time>2010-07-17T10:00:51Z</time>
<desc>lat.=55.734650, lon.=26.257870, Alt.=153.959106m. Speed=0.036000m/h.</desc>
<speed>0.010000</speed>
</trkpt>
<trkpt lat="55.734650" lon="26.257870">
<ele>153.966919</ele>
<time>2010-07-17T10:00:52Z</time>
<desc>lat.=55.734650, lon.=26.257870, Alt.=153.966919m. Speed=0.072000m/h.</desc>
<speed>0.020000</speed>
</trkpt>
<trkpt lat="55.734650" lon="26.257870">
<ele>153.970825</ele>
<time>2010-07-17T10:00:53Z</time>
<desc>lat.=55.734650, lon.=26.257870, Alt.=153.970825m. Speed=0.072000m/h.</desc>
<speed>0.020000</speed>
</trkpt>
<trkpt lat="55.734650" lon="26.257870">
<ele>153.974731</ele>
<time>2010-07-17T10:00:54Z</time>
<desc>lat.=55.734650, lon.=26.257870, Alt.=153.974731m. Speed=0.000000m/h.</desc>
<speed>0.000000</speed>
</trkpt>
<trkpt lat="55.734650" lon="26.257870">
<ele>153.982544</ele>
<time>2010-07-17T10:00:55Z</time>
<desc>lat.=55.734650, lon.=26.257870, Alt.=153.982544m. Speed=0.072000m/h.</desc>
<speed>0.020000</speed>
</trkpt>
<trkpt lat="55.734650" lon="26.257870">
<ele>153.986450</ele>
<time>2010-07-17T10:00:56Z</time>
<desc>lat.=55.734650, lon.=26.257870, Alt.=153.986450m. Speed=0.036000m/h.</desc>
<speed>0.010000</speed>
</trkpt>
<trkpt lat="55.734650" lon="26.257870">
<ele>153.982544</ele>
<time>2010-07-17T10:00:57Z</time>
<desc>lat.=55.734650, lon.=26.257870, Alt.=153.982544m. Speed=0.036000m/h.</desc>
<speed>0.010000</speed>
</trkpt>
<trkpt lat="55.734650" lon="26.257870">
<ele>153.982544</ele>
<time>2010-07-17T10:00:58Z</time>
<desc>lat.=55.734650, lon.=26.257870, Alt.=153.982544m. Speed=0.108000m/h.</desc>
<speed>0.030000</speed>
</trkpt>
<trkpt lat="55.734650" lon="26.257870">
<ele>153.986450</ele>
<time>2010-07-17T10:00:59Z</time>
<desc>lat.=55.734650, lon.=26.257870, Alt.=153.986450m. Speed=0.072000m/h.</desc>
<speed>0.020000</speed>
</trkpt>
<trkpt lat="55.734650" lon="26.257870">
<ele>153.982544</ele>
<time>2010-07-17T10:01:00Z</time>
<desc>lat.=55.734650, lon.=26.257870, Alt.=153.982544m. Speed=0.036000m/h.</desc>
<speed>0.010000</speed>
</trkpt>
<trkpt lat="55.734653" lon="26.257870">
<ele>153.966919</ele>
<time>2010-07-17T10:01:01Z</time>
<desc>lat.=55.734653, lon.=26.257870, Alt.=153.966919m. Speed=0.180000m/h.</desc>
<speed>0.050000</speed>
</trkpt>
<trkpt lat="55.734653" lon="26.257870">
<ele>153.955200</ele>
<time>2010-07-17T10:01:02Z</time>
<desc>lat.=55.734653, lon.=26.257870, Alt.=153.955200m. Speed=0.108000m/h.</desc>
<speed>0.030000</speed>
</trkpt>
<trkpt lat="55.734653" lon="26.257870">
<ele>153.943481</ele>
<time>2010-07-17T10:01:03Z</time>
<desc>lat.=55.734653, lon.=26.257870, Alt.=153.943481m. Speed=0.108000m/h.</desc>
<speed>0.030000</speed>
</trkpt>
<trkpt lat="55.734653" lon="26.257870">
<ele>153.931763</ele>
<time>2010-07-17T10:01:04Z</time>
<desc>lat.=55.734653, lon.=26.257870, Alt.=153.931763m. Speed=0.036000m/h.</desc>
<speed>0.010000</speed>
</trkpt>
<trkpt lat="55.734653" lon="26.257870">
<ele>153.923950</ele>
<time>2010-07-17T10:01:05Z</time>
<desc>lat.=55.734653, lon.=26.257870, Alt.=153.923950m. Speed=0.036000m/h.</desc>
<speed>0.010000</speed>
</trkpt>
<trkpt lat="55.734653" lon="26.257870">
<ele>153.920044</ele>
<time>2010-07-17T10:01:06Z</time>
<desc>lat.=55.734653, lon.=26.257870, Alt.=153.920044m. Speed=0.144000m/h.</desc>
<speed>0.040000</speed>
</trkpt>
<trkpt lat="55.734653" lon="26.257870">
<ele>153.920044</ele>
<time>2010-07-17T10:01:07Z</time>
<desc>lat.=55.734653, lon.=26.257870, Alt.=153.920044m. Speed=0.036000m/h.</desc>
<speed>0.010000</speed>
</trkpt>
<trkpt lat="55.734653" lon="26.257870">
<ele>153.916138</ele>
<time>2010-07-17T10:01:08Z</time>
<desc>lat.=55.734653, lon.=26.257870, Alt.=153.916138m. Speed=0.036000m/h.</desc>
<speed>0.010000</speed>
</trkpt>
<trkpt lat="55.734653" lon="26.257870">
<ele>153.912231</ele>
<time>2010-07-17T10:01:09Z</time>
<desc>lat.=55.734653, lon.=26.257870, Alt.=153.912231m. Speed=0.000000m/h.</desc>
<speed>0.000000</speed>
</trkpt>
<trkpt lat="55.734653" lon="26.257870">
<ele>153.908325</ele>
<time>2010-07-17T10:01:10Z</time>
<desc>lat.=55.734653, lon.=26.257870, Alt.=153.908325m. Speed=0.000000m/h.</desc>
<speed>0.000000</speed>
</trkpt>
<trkpt lat="55.734653" lon="26.257870">
<ele>153.896606</ele>
<time>2010-07-17T10:01:11Z</time>
<desc>lat.=55.734653, lon.=26.257870, Alt.=153.896606m. Speed=0.036000m/h.</desc>
<speed>0.010000</speed>
</trkpt>
<trkpt lat="55.734653" lon="26.257870">
<ele>153.892700</ele>
<time>2010-07-17T10:01:12Z</time>
<desc>lat.=55.734653, lon.=26.257870, Alt.=153.892700m. Speed=0.036000m/h.</desc>
<speed>0.010000</speed>
</trkpt>
<trkpt lat="55.734653" lon="26.257870">
<ele>153.892700</ele>
<time>2010-07-17T10:01:13Z</time>
<desc>lat.=55.734653, lon.=26.257870, Alt.=153.892700m. Speed=0.000000m/h.</desc>
<speed>0.000000</speed>
</trkpt>
<trkpt lat="55.734653" lon="26.257870">
<ele>153.888794</ele>
<time>2010-07-17T10:01:14Z</time>
<desc>lat.=55.734653, lon.=26.257870, Alt.=153.888794m. Speed=0.000000m/h.</desc>
<speed>0.000000</speed>
</trkpt>
<trkpt lat="55.734653" lon="26.257870">
<ele>153.888794</ele>
<time>2010-07-17T10:01:15Z</time>
<desc>lat.=55.734653, lon.=26.257870, Alt.=153.888794m. Speed=0.036000m/h.</desc>
<speed>0.010000</speed>
</trkpt>
<trkpt lat="55.734653" lon="26.257870">
<ele>153.892700</ele>
<time>2010-07-17T10:01:16Z</time>
<desc>lat.=55.734653, lon.=26.257870, Alt.=153.892700m. Speed=0.000000m/h.</desc>
<speed>0.000000</speed>
</trkpt>
<trkpt lat="55.734653" lon="26.257870">
<ele>153.888794</ele>
<time>2010-07-17T10:01:17Z</time>
<desc>lat.=55.734653, lon.=26.257870, Alt.=153.888794m. Speed=0.000000m/h.</desc>
<speed>0.000000</speed>
</trkpt>
<trkpt lat="55.734653" lon="26.257870">
<ele>153.888794</ele>
<time>2010-07-17T10:01:18Z</time>
<desc>lat.=55.734653, lon.=26.257870, Alt.=153.888794m. Speed=0.000000m/h.</desc>
<speed>0.000000</speed>
</trkpt>
<trkpt lat="55.734653" lon="26.257870">
<ele>153.884888</ele>
<time>2010-07-17T10:01:19Z</time>
<desc>lat.=55.734653, lon.=26.257870, Alt.=153.884888m. Speed=0.000000m/h.</desc>
<speed>0.000000</speed>
</trkpt>
<trkpt lat="55.734653" lon="26.257870">
<ele>153.884888</ele>
<time>2010-07-17T10:01:20Z</time>
<desc>lat.=55.734653, lon.=26.257870, Alt.=153.884888m. Speed=0.000000m/h.</desc>
<speed>0.000000</speed>
</trkpt>
<trkpt lat="55.734653" lon="26.257872">
<ele>153.884888</ele>
<time>2010-07-17T10:01:21Z</time>
<desc>lat.=55.734653, lon.=26.257872, Alt.=153.884888m. Speed=0.072000m/h.</desc>
<speed>0.020000</speed>
</trkpt>
<trkpt lat="55.734653" lon="26.257872">
<ele>153.884888</ele>
<time>2010-07-17T10:01:22Z</time>
<desc>lat.=55.734653, lon.=26.257872, Alt.=153.884888m. Speed=0.000000m/h.</desc>
<speed>0.000000</speed>
</trkpt>
<trkpt lat="55.734653" lon="26.257872">
<ele>153.884888</ele>
<time>2010-07-17T10:01:23Z</time>
<desc>lat.=55.734653, lon.=26.257872, Alt.=153.884888m. Speed=0.144000m/h.</desc>
<speed>0.040000</speed>
</trkpt>
<trkpt lat="55.734653" lon="26.257872">
<ele>153.884888</ele>
<time>2010-07-17T10:01:24Z</time>
<desc>lat.=55.734653, lon.=26.257872, Alt.=153.884888m. Speed=0.036000m/h.</desc>
<speed>0.010000</speed>
</trkpt>
<trkpt lat="55.734653" lon="26.257872">
<ele>153.880981</ele>
<time>2010-07-17T10:01:25Z</time>
<desc>lat.=55.734653, lon.=26.257872, Alt.=153.880981m. Speed=0.072000m/h.</desc>
<speed>0.020000</speed>
</trkpt>
<trkpt lat="55.734653" lon="26.257872">
<ele>153.884888</ele>
<time>2010-07-17T10:01:26Z</time>
<desc>lat.=55.734653, lon.=26.257872, Alt.=153.884888m. Speed=0.036000m/h.</desc>
<speed>0.010000</speed>
</trkpt>
<trkpt lat="55.734653" lon="26.257872">
<ele>153.892700</ele>
<time>2010-07-17T10:01:27Z</time>
<desc>lat.=55.734653, lon.=26.257872, Alt.=153.892700m. Speed=0.036000m/h.</desc>
<speed>0.010000</speed>
</trkpt>
<trkpt lat="55.734653" lon="26.257872">
<ele>153.904419</ele>
<time>2010-07-17T10:01:28Z</time>
<desc>lat.=55.734653, lon.=26.257872, Alt.=153.904419m. Speed=0.036000m/h.</desc>
<speed>0.010000</speed>
</trkpt>
<trkpt lat="55.734653" lon="26.257870">
<ele>153.908325</ele>
<time>2010-07-17T10:01:29Z</time>
<desc>lat.=55.734653, lon.=26.257870, Alt.=153.908325m. Speed=0.072000m/h.</desc>
<speed>0.020000</speed>
</trkpt>
<trkpt lat="55.734653" lon="26.257870">
<ele>153.920044</ele>
<time>2010-07-17T10:01:30Z</time>
<desc>lat.=55.734653, lon.=26.257870, Alt.=153.920044m. Speed=0.036000m/h.</desc>
<speed>0.010000</speed>
</trkpt>
<trkpt lat="55.734653" lon="26.257870">
<ele>153.923950</ele>
<time>2010-07-17T10:01:31Z</time>
<desc>lat.=55.734653, lon.=26.257870, Alt.=153.923950m. Speed=0.036000m/h.</desc>
<speed>0.010000</speed>
</trkpt>
<trkpt lat="55.734653" lon="26.257870">
<ele>153.927856</ele>
<time>2010-07-17T10:01:32Z</time>
<desc>lat.=55.734653, lon.=26.257870, Alt.=153.927856m. Speed=0.036000m/h.</desc>
<speed>0.010000</speed>
</trkpt>
<trkpt lat="55.734653" lon="26.257870">
<ele>153.927856</ele>
<time>2010-07-17T10:01:33Z</time>
<desc>lat.=55.734653, lon.=26.257870, Alt.=153.927856m. Speed=0.000000m/h.</desc>
<speed>0.000000</speed>
</trkpt>
<trkpt lat="55.734653" lon="26.257872">
<ele>153.931763</ele>
<time>2010-07-17T10:01:34Z</time>
<desc>lat.=55.734653, lon.=26.257872, Alt.=153.931763m. Speed=0.036000m/h.</desc>
<speed>0.010000</speed>
</trkpt>
<trkpt lat="55.734653" lon="26.257870">
<ele>153.943481</ele>
<time>2010-07-17T10:01:35Z</time>
<desc>lat.=55.734653, lon.=26.257870, Alt.=153.943481m. Speed=0.108000m/h.</desc>
<speed>0.030000</speed>
</trkpt>
<trkpt lat="55.734653" lon="26.257870">
<ele>153.947388</ele>
<time>2010-07-17T10:01:36Z</time>
<desc>lat.=55.734653, lon.=26.257870, Alt.=153.947388m. Speed=0.072000m/h.</desc>
<speed>0.020000</speed>
</trkpt>
<trkpt lat="55.734653" lon="26.257870">
<ele>153.951294</ele>
<time>2010-07-17T10:01:37Z</time>
<desc>lat.=55.734653, lon.=26.257870, Alt.=153.951294m. Speed=0.036000m/h.</desc>
<speed>0.010000</speed>
</trkpt>
<trkpt lat="55.734653" lon="26.257870">
<ele>153.963013</ele>
<time>2010-07-17T10:01:38Z</time>
<desc>lat.=55.734653, lon.=26.257870, Alt.=153.963013m. Speed=0.000000m/h.</desc>
<speed>0.000000</speed>
</trkpt>
<trkpt lat="55.734653" lon="26.257870">
<ele>153.963013</ele>
<time>2010-07-17T10:01:39Z</time>
<desc>lat.=55.734653, lon.=26.257870, Alt.=153.963013m. Speed=0.036000m/h.</desc>
<speed>0.010000</speed>
</trkpt>
<trkpt lat="55.734653" lon="26.257870">
<ele>153.966919</ele>
<time>2010-07-17T10:01:40Z</time>
<desc>lat.=55.734653, lon.=26.257870, Alt.=153.966919m. Speed=0.036000m/h.</desc>
<speed>0.010000</speed>
</trkpt>
<trkpt lat="55.734653" lon="26.257870">
<ele>153.970825</ele>
<time>2010-07-17T10:01:41Z</time>
<desc>lat.=55.734653, lon.=26.257870, Alt.=153.970825m. Speed=0.000000m/h.</desc>
<speed>0.000000</speed>
</trkpt>
<trkpt lat="55.734653" lon="26.257872">
<ele>153.978638</ele>
<time>2010-07-17T10:01:42Z</time>
<desc>lat.=55.734653, lon.=26.257872, Alt.=153.978638m. Speed=0.000000m/h.</desc>
<speed>0.000000</speed>
</trkpt>
<trkpt lat="55.734653" lon="26.257870">
<ele>153.990356</ele>
<time>2010-07-17T10:01:43Z</time>
<desc>lat.=55.734653, lon.=26.257870, Alt.=153.990356m. Speed=0.036000m/h.</desc>
<speed>0.010000</speed>
</trkpt>
<trkpt lat="55.734653" lon="26.257870">
<ele>153.994263</ele>
<time>2010-07-17T10:01:44Z</time>
<desc>lat.=55.734653, lon.=26.257870, Alt.=153.994263m. Speed=0.036000m/h.</desc>
<speed>0.010000</speed>
</trkpt>
<trkpt lat="55.734653" lon="26.257872">
<ele>153.998169</ele>
<time>2010-07-17T10:01:45Z</time>
<desc>lat.=55.734653, lon.=26.257872, Alt.=153.998169m. Speed=0.072000m/h.</desc>
<speed>0.020000</speed>
</trkpt>
<trkpt lat="55.734653" lon="26.257872">
<ele>154.002075</ele>
<time>2010-07-17T10:01:46Z</time>
<desc>lat.=55.734653, lon.=26.257872, Alt.=154.002075m. Speed=0.036000m/h.</desc>
<speed>0.010000</speed>
</trkpt>
<trkpt lat="55.734653" lon="26.257872">
<ele>154.005981</ele>
<time>2010-07-17T10:01:47Z</time>
<desc>lat.=55.734653, lon.=26.257872, Alt.=154.005981m. Speed=0.036000m/h.</desc>
<speed>0.010000</speed>
</trkpt>
<trkpt lat="55.734653" lon="26.257872">
<ele>154.002075</ele>
<time>2010-07-17T10:01:48Z</time>
<desc>lat.=55.734653, lon.=26.257872, Alt.=154.002075m. Speed=0.072000m/h.</desc>
<speed>0.020000</speed>
</trkpt>
<trkpt lat="55.734653" lon="26.257872">
<ele>154.002075</ele>
<time>2010-07-17T10:01:49Z</time>
<desc>lat.=55.734653, lon.=26.257872, Alt.=154.002075m. Speed=0.000000m/h.</desc>
<speed>0.000000</speed>
</trkpt>
<trkpt lat="55.734653" lon="26.257872">
<ele>154.002075</ele>
<time>2010-07-17T10:01:50Z</time>
<desc>lat.=55.734653, lon.=26.257872, Alt.=154.002075m. Speed=0.000000m/h.</desc>
<speed>0.000000</speed>
</trkpt>
<trkpt lat="55.734653" lon="26.257872">
<ele>154.002075</ele>
<time>2010-07-17T10:01:51Z</time>
<desc>lat.=55.734653, lon.=26.257872, Alt.=154.002075m. Speed=0.036000m/h.</desc>
<speed>0.010000</speed>
</trkpt>
<trkpt lat="55.734653" lon="26.257872">
<ele>154.002075</ele>
<time>2010-07-17T10:01:52Z</time>
<desc>lat.=55.734653, lon.=26.257872, Alt.=154.002075m. Speed=0.000000m/h.</desc>
<speed>0.000000</speed>
</trkpt>
<trkpt lat="55.734653" lon="26.257872">
<ele>154.005981</ele>
<time>2010-07-17T10:01:53Z</time>
<desc>lat.=55.734653, lon.=26.257872, Alt.=154.005981m. Speed=0.000000m/h.</desc>
<speed>0.000000</speed>
</trkpt>
<trkpt lat="55.734653" lon="26.257872">
<ele>154.002075</ele>
<time>2010-07-17T10:01:54Z</time>
<desc>lat.=55.734653, lon.=26.257872, Alt.=154.002075m. Speed=0.072000m/h.</desc>
<speed>0.020000</speed>
</trkpt>
<trkpt lat="55.734653" lon="26.257872">
<ele>154.002075</ele>
<time>2010-07-17T10:01:55Z</time>
<desc>lat.=55.734653, lon.=26.257872, Alt.=154.002075m. Speed=0.000000m/h.</desc>
<speed>0.000000</speed>
</trkpt>
<trkpt lat="55.734653" lon="26.257872">
<ele>153.998169</ele>
<time>2010-07-17T10:01:56Z</time>
<desc>lat.=55.734653, lon.=26.257872, Alt.=153.998169m. Speed=0.000000m/h.</desc>
<speed>0.000000</speed>
</trkpt>
<trkpt lat="55.734653" lon="26.257872">
<ele>154.002075</ele>
<time>2010-07-17T10:01:57Z</time>
<desc>lat.=55.734653, lon.=26.257872, Alt.=154.002075m. Speed=0.000000m/h.</desc>
<speed>0.000000</speed>
</trkpt>
<trkpt lat="55.734653" lon="26.257872">
<ele>154.002075</ele>
<time>2010-07-17T10:01:58Z</time>
<desc>lat.=55.734653, lon.=26.257872, Alt.=154.002075m. Speed=0.036000m/h.</desc>
<speed>0.010000</speed>
</trkpt>
<trkpt lat="55.734653" lon="26.257872">
<ele>154.009888</ele>
<time>2010-07-17T10:01:59Z</time>
<desc>lat.=55.734653, lon.=26.257872, Alt.=154.009888m. Speed=0.072000m/h.</desc>
<speed>0.020000</speed>
</trkpt>
<trkpt lat="55.734653" lon="26.257872">
<ele>154.013794</ele>
<time>2010-07-17T10:02:00Z</time>
<desc>lat.=55.734653, lon.=26.257872, Alt.=154.013794m. Speed=0.072000m/h.</desc>
<speed>0.020000</speed>
</trkpt>
<trkpt lat="55.734653" lon="26.257872">
<ele>154.009888</ele>
<time>2010-07-17T10:02:01Z</time>
<desc>lat.=55.734653, lon.=26.257872, Alt.=154.009888m. Speed=0.036000m/h.</desc>
<speed>0.010000</speed>
</trkpt>
<trkpt lat="55.734653" lon="26.257872">
<ele>154.009888</ele>
<time>2010-07-17T10:02:02Z</time>
<desc>lat.=55.734653, lon.=26.257872, Alt.=154.009888m. Speed=0.036000m/h.</desc>
<speed>0.010000</speed>
</trkpt>
<trkpt lat="55.734653" lon="26.257872">
<ele>154.009888</ele>
<time>2010-07-17T10:02:03Z</time>
<desc>lat.=55.734653, lon.=26.257872, Alt.=154.009888m. Speed=0.000000m/h.</desc>
<speed>0.000000</speed>
</trkpt>
<trkpt lat="55.734653" lon="26.257872">
<ele>154.013794</ele>
<time>2010-07-17T10:02:04Z</time>
<desc>lat.=55.734653, lon.=26.257872, Alt.=154.013794m. Speed=0.144000m/h.</desc>
<speed>0.040000</speed>
</trkpt>
<trkpt lat="55.734653" lon="26.257872">
<ele>154.013794</ele>
<time>2010-07-17T10:02:05Z</time>
<desc>lat.=55.734653, lon.=26.257872, Alt.=154.013794m. Speed=0.036000m/h.</desc>
<speed>0.010000</speed>
</trkpt>
<trkpt lat="55.734653" lon="26.257872">
<ele>154.017700</ele>
<time>2010-07-17T10:02:06Z</time>
<desc>lat.=55.734653, lon.=26.257872, Alt.=154.017700m. Speed=0.000000m/h.</desc>
<speed>0.000000</speed>
</trkpt>
<trkpt lat="55.734653" lon="26.257872">
<ele>154.017700</ele>
<time>2010-07-17T10:02:07Z</time>
<desc>lat.=55.734653, lon.=26.257872, Alt.=154.017700m. Speed=0.036000m/h.</desc>
<speed>0.010000</speed>
</trkpt>
<trkpt lat="55.734653" lon="26.257872">
<ele>154.017700</ele>
<time>2010-07-17T10:02:08Z</time>
<desc>lat.=55.734653, lon.=26.257872, Alt.=154.017700m. Speed=0.000000m/h.</desc>
<speed>0.000000</speed>
</trkpt>
<trkpt lat="55.734653" lon="26.257872">
<ele>154.017700</ele>
<time>2010-07-17T10:02:09Z</time>
<desc>lat.=55.734653, lon.=26.257872, Alt.=154.017700m. Speed=0.144000m/h.</desc>
<speed>0.040000</speed>
</trkpt>
<trkpt lat="55.734653" lon="26.257872">
<ele>154.021606</ele>
<time>2010-07-17T10:02:10Z</time>
<desc>lat.=55.734653, lon.=26.257872, Alt.=154.021606m. Speed=0.036000m/h.</desc>
<speed>0.010000</speed>
</trkpt>
<trkpt lat="55.734653" lon="26.257872">
<ele>154.021606</ele>
<time>2010-07-17T10:02:11Z</time>
<desc>lat.=55.734653, lon.=26.257872, Alt.=154.021606m. Speed=0.072000m/h.</desc>
<speed>0.020000</speed>
</trkpt>
<trkpt lat="55.734653" lon="26.257872">
<ele>154.017700</ele>
<time>2010-07-17T10:02:12Z</time>
<desc>lat.=55.734653, lon.=26.257872, Alt.=154.017700m. Speed=0.072000m/h.</desc>
<speed>0.020000</speed>
</trkpt>
<trkpt lat="55.734653" lon="26.257872">
<ele>154.017700</ele>
<time>2010-07-17T10:02:13Z</time>
<desc>lat.=55.734653, lon.=26.257872, Alt.=154.017700m. Speed=0.108000m/h.</desc>
<speed>0.030000</speed>
</trkpt>
<trkpt lat="55.734653" lon="26.257872">
<ele>154.017700</ele>
<time>2010-07-17T10:02:14Z</time>
<desc>lat.=55.734653, lon.=26.257872, Alt.=154.017700m. Speed=0.144000m/h.</desc>
<speed>0.040000</speed>
</trkpt>
<trkpt lat="55.734653" lon="26.257874">
<ele>154.021606</ele>
<time>2010-07-17T10:02:15Z</time>
<desc>lat.=55.734653, lon.=26.257874, Alt.=154.021606m. Speed=0.072000m/h.</desc>
<speed>0.020000</speed>
</trkpt>
<trkpt lat="55.734653" lon="26.257874">
<ele>154.021606</ele>
<time>2010-07-17T10:02:16Z</time>
<desc>lat.=55.734653, lon.=26.257874, Alt.=154.021606m. Speed=0.000000m/h.</desc>
<speed>0.000000</speed>
</trkpt>
<trkpt lat="55.734653" lon="26.257874">
<ele>154.021606</ele>
<time>2010-07-17T10:02:17Z</time>
<desc>lat.=55.734653, lon.=26.257874, Alt.=154.021606m. Speed=0.072000m/h.</desc>
<speed>0.020000</speed>
</trkpt>
<trkpt lat="55.734653" lon="26.257874">
<ele>154.025513</ele>
<time>2010-07-17T10:02:18Z</time>
<desc>lat.=55.734653, lon.=26.257874, Alt.=154.025513m. Speed=0.036000m/h.</desc>
<speed>0.010000</speed>
</trkpt>
<trkpt lat="55.734653" lon="26.257872">
<ele>154.021606</ele>
<time>2010-07-17T10:02:19Z</time>
<desc>lat.=55.734653, lon.=26.257872, Alt.=154.021606m. Speed=1.080000m/h.</desc>
<speed>0.300000</speed>
</trkpt>
<trkpt lat="55.734653" lon="26.257872">
<ele>154.025513</ele>
<time>2010-07-17T10:02:20Z</time>
<desc>lat.=55.734653, lon.=26.257872, Alt.=154.025513m. Speed=0.216000m/h.</desc>
<speed>0.060000</speed>
</trkpt>
<trkpt lat="55.734653" lon="26.257872">
<ele>154.029419</ele>
<time>2010-07-17T10:02:21Z</time>
<desc>lat.=55.734653, lon.=26.257872, Alt.=154.029419m. Speed=0.072000m/h.</desc>
<speed>0.020000</speed>
</trkpt>
<trkpt lat="55.734653" lon="26.257872">
<ele>154.037231</ele>
<time>2010-07-17T10:02:22Z</time>
<desc>lat.=55.734653, lon.=26.257872, Alt.=154.037231m. Speed=0.036000m/h.</desc>
<speed>0.010000</speed>
</trkpt>
<trkpt lat="55.734653" lon="26.257872">
<ele>154.045044</ele>
<time>2010-07-17T10:02:23Z</time>
<desc>lat.=55.734653, lon.=26.257872, Alt.=154.045044m. Speed=0.036000m/h.</desc>
<speed>0.010000</speed>
</trkpt>
<trkpt lat="55.734653" lon="26.257872">
<ele>154.056763</ele>
<time>2010-07-17T10:02:24Z</time>
<desc>lat.=55.734653, lon.=26.257872, Alt.=154.056763m. Speed=0.000000m/h.</desc>
<speed>0.000000</speed>
</trkpt>
<trkpt lat="55.734653" lon="26.257872">
<ele>154.076294</ele>
<time>2010-07-17T10:02:25Z</time>
<desc>lat.=55.734653, lon.=26.257872, Alt.=154.076294m. Speed=0.072000m/h.</desc>
<speed>0.020000</speed>
</trkpt>
<trkpt lat="55.734653" lon="26.257872">
<ele>154.084106</ele>
<time>2010-07-17T10:02:26Z</time>
<desc>lat.=55.734653, lon.=26.257872, Alt.=154.084106m. Speed=0.144000m/h.</desc>
<speed>0.040000</speed>
</trkpt>
<trkpt lat="55.734653" lon="26.257872">
<ele>154.088013</ele>
<time>2010-07-17T10:02:27Z</time>
<desc>lat.=55.734653, lon.=26.257872, Alt.=154.088013m. Speed=0.108000m/h.</desc>
<speed>0.030000</speed>
</trkpt>
<trkpt lat="55.734653" lon="26.257874">
<ele>154.107544</ele>
<time>2010-07-17T10:02:28Z</time>
<desc>lat.=55.734653, lon.=26.257874, Alt.=154.107544m. Speed=0.288000m/h.</desc>
<speed>0.080000</speed>
</trkpt>
<trkpt lat="55.734657" lon="26.257874">
<ele>154.127075</ele>
<time>2010-07-17T10:02:29Z</time>
<desc>lat.=55.734657, lon.=26.257874, Alt.=154.127075m. Speed=0.360000m/h.</desc>
<speed>0.100000</speed>
</trkpt>
<trkpt lat="55.734657" lon="26.257874">
<ele>154.142700</ele>
<time>2010-07-17T10:02:30Z</time>
<desc>lat.=55.734657, lon.=26.257874, Alt.=154.142700m. Speed=0.360000m/h.</desc>
<speed>0.100000</speed>
</trkpt>
<trkpt lat="55.734657" lon="26.257874">
<ele>154.166138</ele>
<time>2010-07-17T10:02:31Z</time>
<desc>lat.=55.734657, lon.=26.257874, Alt.=154.166138m. Speed=0.504000m/h.</desc>
<speed>0.140000</speed>
</trkpt>
<trkpt lat="55.734661" lon="26.257874">
<ele>154.189575</ele>
<time>2010-07-17T10:02:32Z</time>
<desc>lat.=55.734661, lon.=26.257874, Alt.=154.189575m. Speed=0.576000m/h.</desc>
<speed>0.160000</speed>
</trkpt>
<trkpt lat="55.734661" lon="26.257872">
<ele>154.213013</ele>
<time>2010-07-17T10:02:33Z</time>
<desc>lat.=55.734661, lon.=26.257872, Alt.=154.213013m. Speed=0.720000m/h.</desc>
<speed>0.200000</speed>
</trkpt>
<trkpt lat="55.734661" lon="26.257870">
<ele>154.236450</ele>
<time>2010-07-17T10:02:34Z</time>
<desc>lat.=55.734661, lon.=26.257870, Alt.=154.236450m. Speed=2.304000m/h.</desc>
<speed>0.640000</speed>
</trkpt>
<trkpt lat="55.734680" lon="26.257891">
<ele>152.865356</ele>
<time>2010-07-17T10:02:35Z</time>
<desc>lat.=55.734680, lon.=26.257891, Alt.=152.865356m. Speed=2.988000m/h.</desc>
<speed>0.830000</speed>
</trkpt>
<trkpt lat="55.734688" lon="26.257893">
<ele>152.564575</ele>
<time>2010-07-17T10:02:36Z</time>
<desc>lat.=55.734688, lon.=26.257893, Alt.=152.564575m. Speed=3.816000m/h.</desc>
<speed>1.060000</speed>
</trkpt>
<trkpt lat="55.734680" lon="26.257896">
<ele>152.728638</ele>
<time>2010-07-17T10:02:37Z</time>
<desc>lat.=55.734680, lon.=26.257896, Alt.=152.728638m. Speed=8.136000m/h.</desc>
<speed>2.260000</speed>
</trkpt>
<trkpt lat="55.734665" lon="26.257893">
<ele>152.330200</ele>
<time>2010-07-17T10:02:38Z</time>
<desc>lat.=55.734665, lon.=26.257893, Alt.=152.330200m. Speed=11.736000m/h.</desc>
<speed>3.260000</speed>
</trkpt>
<trkpt lat="55.734638" lon="26.257853">
<ele>152.130981</ele>
<time>2010-07-17T10:02:39Z</time>
<desc>lat.=55.734638, lon.=26.257853, Alt.=152.130981m. Speed=15.876000m/h.</desc>
<speed>4.410000</speed>
</trkpt>
<trkpt lat="55.734623" lon="26.257797">
<ele>151.556763</ele>
<time>2010-07-17T10:02:40Z</time>
<desc>lat.=55.734623, lon.=26.257797, Alt.=151.556763m. Speed=14.364000m/h.</desc>
<speed>3.990000</speed>
</trkpt>
<trkpt lat="55.734604" lon="26.257742">
<ele>150.798950</ele>
<time>2010-07-17T10:02:41Z</time>
<desc>lat.=55.734604, lon.=26.257742, Alt.=150.798950m. Speed=14.796000m/h.</desc>
<speed>4.110000</speed>
</trkpt>
<trkpt lat="55.734592" lon="26.257683">
<ele>150.095825</ele>
<time>2010-07-17T10:02:42Z</time>
<desc>lat.=55.734592, lon.=26.257683, Alt.=150.095825m. Speed=15.552000m/h.</desc>
<speed>4.320000</speed>
</trkpt>
<trkpt lat="55.734577" lon="26.257629">
<ele>149.447388</ele>
<time>2010-07-17T10:02:43Z</time>
<desc>lat.=55.734577, lon.=26.257629, Alt.=149.447388m. Speed=12.276000m/h.</desc>
<speed>3.410000</speed>
</trkpt>
<trkpt lat="55.734543" lon="26.257610">
<ele>148.834106</ele>
<time>2010-07-17T10:02:44Z</time>
<desc>lat.=55.734543, lon.=26.257610, Alt.=148.834106m. Speed=15.984000m/h.</desc>
<speed>4.440000</speed>
</trkpt>
<trkpt lat="55.734509" lon="26.257612">
<ele>148.416138</ele>
<time>2010-07-17T10:02:45Z</time>
<desc>lat.=55.734509, lon.=26.257612, Alt.=148.416138m. Speed=15.084000m/h.</desc>
<speed>4.190000</speed>
</trkpt>
<trkpt lat="55.734463" lon="26.257633">
<ele>148.361450</ele>
<time>2010-07-17T10:02:46Z</time>
<desc>lat.=55.734463, lon.=26.257633, Alt.=148.361450m. Speed=15.012000m/h.</desc>
<speed>4.170000</speed>
</trkpt>
<trkpt lat="55.734425" lon="26.257668">
<ele>148.611450</ele>
<time>2010-07-17T10:02:47Z</time>
<desc>lat.=55.734425, lon.=26.257668, Alt.=148.611450m. Speed=13.284000m/h.</desc>
<speed>3.690000</speed>
</trkpt>
<trkpt lat="55.734394" lon="26.257694">
<ele>148.279419</ele>
<time>2010-07-17T10:02:48Z</time>
<desc>lat.=55.734394, lon.=26.257694, Alt.=148.279419m. Speed=11.304000m/h.</desc>
<speed>3.140000</speed>
</trkpt>
<trkpt lat="55.734367" lon="26.257717">
<ele>147.998169</ele>
<time>2010-07-17T10:02:49Z</time>
<desc>lat.=55.734367, lon.=26.257717, Alt.=147.998169m. Speed=10.800000m/h.</desc>
<speed>3.000000</speed>
</trkpt>
<trkpt lat="55.734348" lon="26.257729">
<ele>147.732544</ele>
<time>2010-07-17T10:02:50Z</time>
<desc>lat.=55.734348, lon.=26.257729, Alt.=147.732544m. Speed=6.912000m/h.</desc>
<speed>1.920000</speed>
</trkpt>
<trkpt lat="55.734333" lon="26.257729">
<ele>147.466919</ele>
<time>2010-07-17T10:02:51Z</time>
<desc>lat.=55.734333, lon.=26.257729, Alt.=147.466919m. Speed=6.660000m/h.</desc>
<speed>1.850000</speed>
</trkpt>
<trkpt lat="55.734318" lon="26.257713">
<ele>147.177856</ele>
<time>2010-07-17T10:02:52Z</time>
<desc>lat.=55.734318, lon.=26.257713, Alt.=147.177856m. Speed=6.120000m/h.</desc>
<speed>1.700000</speed>
</trkpt>
<trkpt lat="55.734306" lon="26.257696">
<ele>147.013794</ele>
<time>2010-07-17T10:02:53Z</time>
<desc>lat.=55.734306, lon.=26.257696, Alt.=147.013794m. Speed=5.580000m/h.</desc>
<speed>1.550000</speed>
</trkpt>
<trkpt lat="55.734295" lon="26.257666">
<ele>146.576294</ele>
<time>2010-07-17T10:02:54Z</time>
<desc>lat.=55.734295, lon.=26.257666, Alt.=146.576294m. Speed=7.128000m/h.</desc>
<speed>1.980000</speed>
</trkpt>
<trkpt lat="55.734283" lon="26.257627">
<ele>146.048950</ele>
<time>2010-07-17T10:02:55Z</time>
<desc>lat.=55.734283, lon.=26.257627, Alt.=146.048950m. Speed=11.736000m/h.</desc>
<speed>3.260000</speed>
</trkpt>
<trkpt lat="55.734268" lon="26.257576">
<ele>145.572388</ele>
<time>2010-07-17T10:02:56Z</time>
<desc>lat.=55.734268, lon.=26.257576, Alt.=145.572388m. Speed=12.888000m/h.</desc>
<speed>3.580000</speed>
</trkpt>
<trkpt lat="55.734253" lon="26.257524">
<ele>145.045044</ele>
<time>2010-07-17T10:02:57Z</time>
<desc>lat.=55.734253, lon.=26.257524, Alt.=145.045044m. Speed=15.012000m/h.</desc>
<speed>4.170000</speed>
</trkpt>
<trkpt lat="55.734230" lon="26.257458">
<ele>144.533325</ele>
<time>2010-07-17T10:02:58Z</time>
<desc>lat.=55.734230, lon.=26.257458, Alt.=144.533325m. Speed=16.128000m/h.</desc>
<speed>4.480000</speed>
</trkpt>
<trkpt lat="55.734215" lon="26.257391">
<ele>144.138794</ele>
<time>2010-07-17T10:02:59Z</time>
<desc>lat.=55.734215, lon.=26.257391, Alt.=144.138794m. Speed=16.488001m/h.</desc>
<speed>4.580000</speed>
</trkpt>
<trkpt lat="55.734196" lon="26.257326">
<ele>143.986450</ele>
<time>2010-07-17T10:03:00Z</time>
<desc>lat.=55.734196, lon.=26.257326, Alt.=143.986450m. Speed=18.612000m/h.</desc>
<speed>5.170000</speed>
</trkpt>
<trkpt lat="55.734173" lon="26.257256">
<ele>144.002075</ele>
<time>2010-07-17T10:03:01Z</time>
<desc>lat.=55.734173, lon.=26.257256, Alt.=144.002075m. Speed=18.864000m/h.</desc>
<speed>5.240000</speed>
</trkpt>
<trkpt lat="55.734150" lon="26.257174">
<ele>143.713013</ele>
<time>2010-07-17T10:03:02Z</time>
<desc>lat.=55.734150, lon.=26.257174, Alt.=143.713013m. Speed=19.656000m/h.</desc>
<speed>5.460000</speed>
</trkpt>
<trkpt lat="55.734127" lon="26.257086">
<ele>143.513794</ele>
<time>2010-07-17T10:03:03Z</time>
<desc>lat.=55.734127, lon.=26.257086, Alt.=143.513794m. Speed=19.836000m/h.</desc>
<speed>5.510000</speed>
</trkpt>
<trkpt lat="55.734097" lon="26.257002">
<ele>143.677856</ele>
<time>2010-07-17T10:03:04Z</time>
<desc>lat.=55.734097, lon.=26.257002, Alt.=143.677856m. Speed=19.872000m/h.</desc>
<speed>5.520000</speed>
</trkpt>
<trkpt lat="55.734074" lon="26.256920">
<ele>143.959106</ele>
<time>2010-07-17T10:03:05Z</time>
<desc>lat.=55.734074, lon.=26.256920, Alt.=143.959106m. Speed=20.016001m/h.</desc>
<speed>5.560000</speed>
</trkpt>
<trkpt lat="55.734058" lon="26.256840">
<ele>143.916138</ele>
<time>2010-07-17T10:03:06Z</time>
<desc>lat.=55.734058, lon.=26.256840, Alt.=143.916138m. Speed=19.584000m/h.</desc>
<speed>5.440000</speed>
</trkpt>
<trkpt lat="55.734035" lon="26.256750">
<ele>143.713013</ele>
<time>2010-07-17T10:03:07Z</time>
<desc>lat.=55.734035, lon.=26.256750, Alt.=143.713013m. Speed=19.332001m/h.</desc>
<speed>5.370000</speed>
</trkpt>
<trkpt lat="55.734013" lon="26.256659">
<ele>142.947388</ele>
<time>2010-07-17T10:03:08Z</time>
<desc>lat.=55.734013, lon.=26.256659, Alt.=142.947388m. Speed=19.440001m/h.</desc>
<speed>5.400000</speed>
</trkpt>
<trkpt lat="55.733994" lon="26.256578">
<ele>142.728638</ele>
<time>2010-07-17T10:03:09Z</time>
<desc>lat.=55.733994, lon.=26.256578, Alt.=142.728638m. Speed=19.007999m/h.</desc>
<speed>5.280000</speed>
</trkpt>
<trkpt lat="55.733967" lon="26.256502">
<ele>142.580200</ele>
<time>2010-07-17T10:03:10Z</time>
<desc>lat.=55.733967, lon.=26.256502, Alt.=142.580200m. Speed=17.459999m/h.</desc>
<speed>4.850000</speed>
</trkpt>
<trkpt lat="55.733940" lon="26.256426">
<ele>142.588013</ele>
<time>2010-07-17T10:03:11Z</time>
<desc>lat.=55.733940, lon.=26.256426, Alt.=142.588013m. Speed=18.936001m/h.</desc>
<speed>5.260000</speed>
</trkpt>
<trkpt lat="55.733917" lon="26.256348">
<ele>142.736450</ele>
<time>2010-07-17T10:03:12Z</time>
<desc>lat.=55.733917, lon.=26.256348, Alt.=142.736450m. Speed=16.848000m/h.</desc>
<speed>4.680000</speed>
</trkpt>
<trkpt lat="55.733894" lon="26.256277">
<ele>142.755981</ele>
<time>2010-07-17T10:03:13Z</time>
<desc>lat.=55.733894, lon.=26.256277, Alt.=142.755981m. Speed=15.696000m/h.</desc>
<speed>4.360000</speed>
</trkpt>
<trkpt lat="55.733875" lon="26.256218">
<ele>142.990356</ele>
<time>2010-07-17T10:03:14Z</time>
<desc>lat.=55.733875, lon.=26.256218, Alt.=142.990356m. Speed=13.752000m/h.</desc>
<speed>3.820000</speed>
</trkpt>
<trkpt lat="55.733856" lon="26.256163">
<ele>143.509888</ele>
<time>2010-07-17T10:03:15Z</time>
<desc>lat.=55.733856, lon.=26.256163, Alt.=143.509888m. Speed=13.392000m/h.</desc>
<speed>3.720000</speed>
</trkpt>
<trkpt lat="55.733841" lon="26.256117">
<ele>143.689575</ele>
<time>2010-07-17T10:03:16Z</time>
<desc>lat.=55.733841, lon.=26.256117, Alt.=143.689575m. Speed=11.268000m/h.</desc>
<speed>3.130000</speed>
</trkpt>
<trkpt lat="55.733826" lon="26.256071">
<ele>143.509888</ele>
<time>2010-07-17T10:03:17Z</time>
<desc>lat.=55.733826, lon.=26.256071, Alt.=143.509888m. Speed=11.448000m/h.</desc>
<speed>3.180000</speed>
</trkpt>
<trkpt lat="55.733818" lon="26.256027">
<ele>143.638794</ele>
<time>2010-07-17T10:03:18Z</time>
<desc>lat.=55.733818, lon.=26.256027, Alt.=143.638794m. Speed=10.152000m/h.</desc>
<speed>2.820000</speed>
</trkpt>
<trkpt lat="55.733807" lon="26.255985">
<ele>143.826294</ele>
<time>2010-07-17T10:03:19Z</time>
<desc>lat.=55.733807, lon.=26.255985, Alt.=143.826294m. Speed=8.532000m/h.</desc>
<speed>2.370000</speed>
</trkpt>
<trkpt lat="55.733799" lon="26.255951">
<ele>144.443481</ele>
<time>2010-07-17T10:03:20Z</time>
<desc>lat.=55.733799, lon.=26.255951, Alt.=144.443481m. Speed=8.712000m/h.</desc>
<speed>2.420000</speed>
</trkpt>
<trkpt lat="55.733788" lon="26.255913">
<ele>144.482544</ele>
<time>2010-07-17T10:03:21Z</time>
<desc>lat.=55.733788, lon.=26.255913, Alt.=144.482544m. Speed=11.088000m/h.</desc>
<speed>3.080000</speed>
</trkpt>
<trkpt lat="55.733776" lon="26.255869">
<ele>144.654419</ele>
<time>2010-07-17T10:03:22Z</time>
<desc>lat.=55.733776, lon.=26.255869, Alt.=144.654419m. Speed=9.648000m/h.</desc>
<speed>2.680000</speed>
</trkpt>
<trkpt lat="55.733761" lon="26.255825">
<ele>144.572388</ele>
<time>2010-07-17T10:03:23Z</time>
<desc>lat.=55.733761, lon.=26.255825, Alt.=144.572388m. Speed=10.800000m/h.</desc>
<speed>3.000000</speed>
</trkpt>
<trkpt lat="55.733749" lon="26.255787">
<ele>144.861450</ele>
<time>2010-07-17T10:03:24Z</time>
<desc>lat.=55.733749, lon.=26.255787, Alt.=144.861450m. Speed=9.612000m/h.</desc>
<speed>2.670000</speed>
</trkpt>
<trkpt lat="55.733738" lon="26.255745">
<ele>145.166138</ele>
<time>2010-07-17T10:03:25Z</time>
<desc>lat.=55.733738, lon.=26.255745, Alt.=145.166138m. Speed=11.196000m/h.</desc>
<speed>3.110000</speed>
</trkpt>
<trkpt lat="55.733727" lon="26.255699">
<ele>145.900513</ele>
<time>2010-07-17T10:03:26Z</time>
<desc>lat.=55.733727, lon.=26.255699, Alt.=145.900513m. Speed=12.024000m/h.</desc>
<speed>3.340000</speed>
</trkpt>
<trkpt lat="55.733719" lon="26.255653">
<ele>146.107544</ele>
<time>2010-07-17T10:03:27Z</time>
<desc>lat.=55.733719, lon.=26.255653, Alt.=146.107544m. Speed=11.484000m/h.</desc>
<speed>3.190000</speed>
</trkpt>
<trkpt lat="55.733704" lon="26.255608">
<ele>146.162231</ele>
<time>2010-07-17T10:03:28Z</time>
<desc>lat.=55.733704, lon.=26.255608, Alt.=146.162231m. Speed=11.808000m/h.</desc>
<speed>3.280000</speed>
</trkpt>
<trkpt lat="55.733677" lon="26.255560">
<ele>146.369263</ele>
<time>2010-07-17T10:03:29Z</time>
<desc>lat.=55.733677, lon.=26.255560, Alt.=146.369263m. Speed=11.772000m/h.</desc>
<speed>3.270000</speed>
</trkpt>
<trkpt lat="55.733662" lon="26.255514">
<ele>146.392700</ele>
<time>2010-07-17T10:03:30Z</time>
<desc>lat.=55.733662, lon.=26.255514, Alt.=146.392700m. Speed=12.456000m/h.</desc>
<speed>3.460000</speed>
</trkpt>
<trkpt lat="55.733646" lon="26.255459">
<ele>146.623169</ele>
<time>2010-07-17T10:03:31Z</time>
<desc>lat.=55.733646, lon.=26.255459, Alt.=146.623169m. Speed=13.860000m/h.</desc>
<speed>3.850000</speed>
</trkpt>
<trkpt lat="55.733631" lon="26.255407">
<ele>147.033325</ele>
<time>2010-07-17T10:03:32Z</time>
<desc>lat.=55.733631, lon.=26.255407, Alt.=147.033325m. Speed=11.808000m/h.</desc>
<speed>3.280000</speed>
</trkpt>
<trkpt lat="55.733616" lon="26.255354">
<ele>147.111450</ele>
<time>2010-07-17T10:03:33Z</time>
<desc>lat.=55.733616, lon.=26.255354, Alt.=147.111450m. Speed=12.420000m/h.</desc>
<speed>3.450000</speed>
</trkpt>
<trkpt lat="55.733604" lon="26.255297">
<ele>146.806763</ele>
<time>2010-07-17T10:03:34Z</time>
<desc>lat.=55.733604, lon.=26.255297, Alt.=146.806763m. Speed=13.392000m/h.</desc>
<speed>3.720000</speed>
</trkpt>
<trkpt lat="55.733585" lon="26.255245">
<ele>147.318481</ele>
<time>2010-07-17T10:03:35Z</time>
<desc>lat.=55.733585, lon.=26.255245, Alt.=147.318481m. Speed=14.580000m/h.</desc>
<speed>4.050000</speed>
</trkpt>
<trkpt lat="55.733570" lon="26.255186">
<ele>147.931763</ele>
<time>2010-07-17T10:03:36Z</time>
<desc>lat.=55.733570, lon.=26.255186, Alt.=147.931763m. Speed=12.600000m/h.</desc>
<speed>3.500000</speed>
</trkpt>
<trkpt lat="55.733559" lon="26.255140">
<ele>148.244263</ele>
<time>2010-07-17T10:03:37Z</time>
<desc>lat.=55.733559, lon.=26.255140, Alt.=148.244263m. Speed=9.108000m/h.</desc>
<speed>2.530000</speed>
</trkpt>
<trkpt lat="55.733547" lon="26.255091">
<ele>148.345825</ele>
<time>2010-07-17T10:03:38Z</time>
<desc>lat.=55.733547, lon.=26.255091, Alt.=148.345825m. Speed=11.916000m/h.</desc>
<speed>3.310000</speed>
</trkpt>
<trkpt lat="55.733536" lon="26.255043">
<ele>148.908325</ele>
<time>2010-07-17T10:03:39Z</time>
<desc>lat.=55.733536, lon.=26.255043, Alt.=148.908325m. Speed=12.024000m/h.</desc>
<speed>3.340000</speed>
</trkpt>
<trkpt lat="55.733524" lon="26.254995">
<ele>149.138794</ele>
<time>2010-07-17T10:03:40Z</time>
<desc>lat.=55.733524, lon.=26.254995, Alt.=149.138794m. Speed=11.124000m/h.</desc>
<speed>3.090000</speed>
</trkpt>
<trkpt lat="55.733517" lon="26.254940">
<ele>149.673950</ele>
<time>2010-07-17T10:03:41Z</time>
<desc>lat.=55.733517, lon.=26.254940, Alt.=149.673950m. Speed=14.076000m/h.</desc>
<speed>3.910000</speed>
</trkpt>
<trkpt lat="55.733498" lon="26.254879">
<ele>150.146606</ele>
<time>2010-07-17T10:03:42Z</time>
<desc>lat.=55.733498, lon.=26.254879, Alt.=150.146606m. Speed=14.400000m/h.</desc>
<speed>4.000000</speed>
</trkpt>
<trkpt lat="55.733482" lon="26.254827">
<ele>150.463013</ele>
<time>2010-07-17T10:03:43Z</time>
<desc>lat.=55.733482, lon.=26.254827, Alt.=150.463013m. Speed=12.096000m/h.</desc>
<speed>3.360000</speed>
</trkpt>
<trkpt lat="55.733471" lon="26.254772">
<ele>150.466919</ele>
<time>2010-07-17T10:03:44Z</time>
<desc>lat.=55.733471, lon.=26.254772, Alt.=150.466919m. Speed=13.572000m/h.</desc>
<speed>3.770000</speed>
</trkpt>
<trkpt lat="55.733456" lon="26.254709">
<ele>150.556763</ele>
<time>2010-07-17T10:03:45Z</time>
<desc>lat.=55.733456, lon.=26.254709, Alt.=150.556763m. Speed=14.940000m/h.</desc>
<speed>4.150000</speed>
</trkpt>
<trkpt lat="55.733444" lon="26.254644">
<ele>150.791138</ele>
<time>2010-07-17T10:03:46Z</time>
<desc>lat.=55.733444, lon.=26.254644, Alt.=150.791138m. Speed=15.120000m/h.</desc>
<speed>4.200000</speed>
</trkpt>
<trkpt lat="55.733425" lon="26.254583">
<ele>150.787231</ele>
<time>2010-07-17T10:03:47Z</time>
<desc>lat.=55.733425, lon.=26.254583, Alt.=150.787231m. Speed=15.192000m/h.</desc>
<speed>4.220000</speed>
</trkpt>
<trkpt lat="55.733410" lon="26.254519">
<ele>150.545044</ele>
<time>2010-07-17T10:03:48Z</time>
<desc>lat.=55.733410, lon.=26.254519, Alt.=150.545044m. Speed=15.588000m/h.</desc>
<speed>4.330000</speed>
</trkpt>
<trkpt lat="55.733395" lon="26.254454">
<ele>151.091919</ele>
<time>2010-07-17T10:03:49Z</time>
<desc>lat.=55.733395, lon.=26.254454, Alt.=151.091919m. Speed=14.184000m/h.</desc>
<speed>3.940000</speed>
</trkpt>
<trkpt lat="55.733376" lon="26.254393">
<ele>151.150513</ele>
<time>2010-07-17T10:03:50Z</time>
<desc>lat.=55.733376, lon.=26.254393, Alt.=151.150513m. Speed=15.624000m/h.</desc>
<speed>4.340000</speed>
</trkpt>
<trkpt lat="55.733356" lon="26.254326">
<ele>151.197388</ele>
<time>2010-07-17T10:03:51Z</time>
<desc>lat.=55.733356, lon.=26.254326, Alt.=151.197388m. Speed=14.724000m/h.</desc>
<speed>4.090000</speed>
</trkpt>
<trkpt lat="55.733341" lon="26.254263">
<ele>151.291138</ele>
<time>2010-07-17T10:03:52Z</time>
<desc>lat.=55.733341, lon.=26.254263, Alt.=151.291138m. Speed=13.932000m/h.</desc>
<speed>3.870000</speed>
</trkpt>
<trkpt lat="55.733330" lon="26.254206">
<ele>151.959106</ele>
<time>2010-07-17T10:03:53Z</time>
<desc>lat.=55.733330, lon.=26.254206, Alt.=151.959106m. Speed=13.536000m/h.</desc>
<speed>3.760000</speed>
</trkpt>
<trkpt lat="55.733318" lon="26.254152">
<ele>151.880981</ele>
<time>2010-07-17T10:03:54Z</time>
<desc>lat.=55.733318, lon.=26.254152, Alt.=151.880981m. Speed=11.160000m/h.</desc>
<speed>3.100000</speed>
</trkpt>
<trkpt lat="55.733311" lon="26.254103">
<ele>152.013794</ele>
<time>2010-07-17T10:03:55Z</time>
<desc>lat.=55.733311, lon.=26.254103, Alt.=152.013794m. Speed=10.548000m/h.</desc>
<speed>2.930000</speed>
</trkpt>
<trkpt lat="55.733307" lon="26.254059">
<ele>152.689575</ele>
<time>2010-07-17T10:03:56Z</time>
<desc>lat.=55.733307, lon.=26.254059, Alt.=152.689575m. Speed=10.188000m/h.</desc>
<speed>2.830000</speed>
</trkpt>
<trkpt lat="55.733299" lon="26.254013">
<ele>153.216919</ele>
<time>2010-07-17T10:03:57Z</time>
<desc>lat.=55.733299, lon.=26.254013, Alt.=153.216919m. Speed=10.224000m/h.</desc>
<speed>2.840000</speed>
</trkpt>
<trkpt lat="55.733288" lon="26.253971">
<ele>153.670044</ele>
<time>2010-07-17T10:03:58Z</time>
<desc>lat.=55.733288, lon.=26.253971, Alt.=153.670044m. Speed=10.548000m/h.</desc>
<speed>2.930000</speed>
</trkpt>
<trkpt lat="55.733273" lon="26.253925">
<ele>154.193481</ele>
<time>2010-07-17T10:03:59Z</time>
<desc>lat.=55.733273, lon.=26.253925, Alt.=154.193481m. Speed=12.492000m/h.</desc>
<speed>3.470000</speed>
</trkpt>
<trkpt lat="55.733257" lon="26.253878">
<ele>154.670044</ele>
<time>2010-07-17T10:04:00Z</time>
<desc>lat.=55.733257, lon.=26.253878, Alt.=154.670044m. Speed=14.256000m/h.</desc>
<speed>3.960000</speed>
</trkpt>
<trkpt lat="55.733238" lon="26.253813">
<ele>154.412231</ele>
<time>2010-07-17T10:04:01Z</time>
<desc>lat.=55.733238, lon.=26.253813, Alt.=154.412231m. Speed=14.760000m/h.</desc>
<speed>4.100000</speed>
</trkpt>
<trkpt lat="55.733219" lon="26.253759">
<ele>154.662231</ele>
<time>2010-07-17T10:04:02Z</time>
<desc>lat.=55.733219, lon.=26.253759, Alt.=154.662231m. Speed=13.932000m/h.</desc>
<speed>3.870000</speed>
</trkpt>
<trkpt lat="55.733200" lon="26.253700">
<ele>154.591919</ele>
<time>2010-07-17T10:04:03Z</time>
<desc>lat.=55.733200, lon.=26.253700, Alt.=154.591919m. Speed=14.364000m/h.</desc>
<speed>3.990000</speed>
</trkpt>
<trkpt lat="55.733181" lon="26.253639">
<ele>154.736450</ele>
<time>2010-07-17T10:04:04Z</time>
<desc>lat.=55.733181, lon.=26.253639, Alt.=154.736450m. Speed=15.552000m/h.</desc>
<speed>4.320000</speed>
</trkpt>
<trkpt lat="55.733162" lon="26.253565">
<ele>154.654419</ele>
<time>2010-07-17T10:04:05Z</time>
<desc>lat.=55.733162, lon.=26.253565, Alt.=154.654419m. Speed=14.832000m/h.</desc>
<speed>4.120000</speed>
</trkpt>
<trkpt lat="55.733143" lon="26.253492">
<ele>154.775513</ele>
<time>2010-07-17T10:04:06Z</time>
<desc>lat.=55.733143, lon.=26.253492, Alt.=154.775513m. Speed=15.156000m/h.</desc>
<speed>4.210000</speed>
</trkpt>
<trkpt lat="55.733124" lon="26.253418">
<ele>155.002075</ele>
<time>2010-07-17T10:04:07Z</time>
<desc>lat.=55.733124, lon.=26.253418, Alt.=155.002075m. Speed=14.868000m/h.</desc>
<speed>4.130000</speed>
</trkpt>
<trkpt lat="55.733101" lon="26.253353">
<ele>154.931763</ele>
<time>2010-07-17T10:04:08Z</time>
<desc>lat.=55.733101, lon.=26.253353, Alt.=154.931763m. Speed=15.768000m/h.</desc>
<speed>4.380000</speed>
</trkpt>
<trkpt lat="55.733078" lon="26.253284">
<ele>154.877075</ele>
<time>2010-07-17T10:04:09Z</time>
<desc>lat.=55.733078, lon.=26.253284, Alt.=154.877075m. Speed=14.688000m/h.</desc>
<speed>4.080000</speed>
</trkpt>
<trkpt lat="55.733055" lon="26.253223">
<ele>154.537231</ele>
<time>2010-07-17T10:04:10Z</time>
<desc>lat.=55.733055, lon.=26.253223, Alt.=154.537231m. Speed=12.888000m/h.</desc>
<speed>3.580000</speed>
</trkpt>
<trkpt lat="55.733036" lon="26.253172">
<ele>154.349731</ele>
<time>2010-07-17T10:04:11Z</time>
<desc>lat.=55.733036, lon.=26.253172, Alt.=154.349731m. Speed=12.204000m/h.</desc>
<speed>3.390000</speed>
</trkpt>
<trkpt lat="55.733017" lon="26.253124">
<ele>154.427856</ele>
<time>2010-07-17T10:04:12Z</time>
<desc>lat.=55.733017, lon.=26.253124, Alt.=154.427856m. Speed=11.664000m/h.</desc>
<speed>3.240000</speed>
</trkpt>
<trkpt lat="55.733002" lon="26.253080">
<ele>154.662231</ele>
<time>2010-07-17T10:04:13Z</time>
<desc>lat.=55.733002, lon.=26.253080, Alt.=154.662231m. Speed=11.196000m/h.</desc>
<speed>3.110000</speed>
</trkpt>
<trkpt lat="55.732986" lon="26.253044">
<ele>154.752075</ele>
<time>2010-07-17T10:04:14Z</time>
<desc>lat.=55.732986, lon.=26.253044, Alt.=154.752075m. Speed=8.892000m/h.</desc>
<speed>2.470000</speed>
</trkpt>
<trkpt lat="55.732975" lon="26.253008">
<ele>154.795044</ele>
<time>2010-07-17T10:04:15Z</time>
<desc>lat.=55.732975, lon.=26.253008, Alt.=154.795044m. Speed=8.928000m/h.</desc>
<speed>2.480000</speed>
</trkpt>
<trkpt lat="55.732956" lon="26.252962">
<ele>154.713013</ele>
<time>2010-07-17T10:04:16Z</time>
<desc>lat.=55.732956, lon.=26.252962, Alt.=154.713013m. Speed=10.872000m/h.</desc>
<speed>3.020000</speed>
</trkpt>
<trkpt lat="55.732933" lon="26.252913">
<ele>154.935669</ele>
<time>2010-07-17T10:04:17Z</time>
<desc>lat.=55.732933, lon.=26.252913, Alt.=154.935669m. Speed=12.672000m/h.</desc>
<speed>3.520000</speed>
</trkpt>
<trkpt lat="55.732895" lon="26.252882">
<ele>155.963013</ele>
<time>2010-07-17T10:04:18Z</time>
<desc>lat.=55.732895, lon.=26.252882, Alt.=155.963013m. Speed=12.852000m/h.</desc>
<speed>3.570000</speed>
</trkpt>
<trkpt lat="55.732891" lon="26.252785">
<ele>166.849731</ele>
<time>2010-07-17T10:04:19Z</time>
<desc>lat.=55.732891, lon.=26.252785, Alt.=166.849731m. Speed=12.888000m/h.</desc>
<speed>3.580000</speed>
</trkpt>
<trkpt lat="55.732883" lon="26.252697">
<ele>167.513794</ele>
<time>2010-07-17T10:04:20Z</time>
<desc>lat.=55.732883, lon.=26.252697, Alt.=167.513794m. Speed=12.888000m/h.</desc>
<speed>3.580000</speed>
</trkpt>
<trkpt lat="55.732887" lon="26.252615">
<ele>164.857544</ele>
<time>2010-07-17T10:04:21Z</time>
<desc>lat.=55.732887, lon.=26.252615, Alt.=164.857544m. Speed=10.944000m/h.</desc>
<speed>3.040000</speed>
</trkpt>
<trkpt lat="55.732872" lon="26.252552">
<ele>164.088013</ele>
<time>2010-07-17T10:04:22Z</time>
<desc>lat.=55.732872, lon.=26.252552, Alt.=164.088013m. Speed=11.952000m/h.</desc>
<speed>3.320000</speed>
</trkpt>
<trkpt lat="55.732864" lon="26.252487">
<ele>162.634888</ele>
<time>2010-07-17T10:04:23Z</time>
<desc>lat.=55.732864, lon.=26.252487, Alt.=162.634888m. Speed=10.728000m/h.</desc>
<speed>2.980000</speed>
</trkpt>
<trkpt lat="55.732853" lon="26.252428">
<ele>162.209106</ele>
<time>2010-07-17T10:04:24Z</time>
<desc>lat.=55.732853, lon.=26.252428, Alt.=162.209106m. Speed=9.864000m/h.</desc>
<speed>2.740000</speed>
</trkpt>
<trkpt lat="55.732834" lon="26.252377">
<ele>162.142700</ele>
<time>2010-07-17T10:04:25Z</time>
<desc>lat.=55.732834, lon.=26.252377, Alt.=162.142700m. Speed=11.844000m/h.</desc>
<speed>3.290000</speed>
</trkpt>
<trkpt lat="55.732819" lon="26.252296">
<ele>162.986450</ele>
<time>2010-07-17T10:04:26Z</time>
<desc>lat.=55.732819, lon.=26.252296, Alt.=162.986450m. Speed=15.336000m/h.</desc>
<speed>4.260000</speed>
</trkpt>
<trkpt lat="55.732788" lon="26.252205">
<ele>161.646606</ele>
<time>2010-07-17T10:04:27Z</time>
<desc>lat.=55.732788, lon.=26.252205, Alt.=161.646606m. Speed=14.976000m/h.</desc>
<speed>4.160000</speed>
</trkpt>
<trkpt lat="55.732746" lon="26.252110">
<ele>160.330200</ele>
<time>2010-07-17T10:04:28Z</time>
<desc>lat.=55.732746, lon.=26.252110, Alt.=160.330200m. Speed=17.243999m/h.</desc>
<speed>4.790000</speed>
</trkpt>
<trkpt lat="55.732727" lon="26.252039">
<ele>159.541138</ele>
<time>2010-07-17T10:04:29Z</time>
<desc>lat.=55.732727, lon.=26.252039, Alt.=159.541138m. Speed=17.604000m/h.</desc>
<speed>4.890000</speed>
</trkpt>
<trkpt lat="55.732700" lon="26.251957">
<ele>160.564575</ele>
<time>2010-07-17T10:04:30Z</time>
<desc>lat.=55.732700, lon.=26.251957, Alt.=160.564575m. Speed=15.300000m/h.</desc>
<speed>4.250000</speed>
</trkpt>
<trkpt lat="55.732681" lon="26.251867">
<ele>160.404419</ele>
<time>2010-07-17T10:04:31Z</time>
<desc>lat.=55.732681, lon.=26.251867, Alt.=160.404419m. Speed=17.063999m/h.</desc>
<speed>4.740000</speed>
</trkpt>
<trkpt lat="55.732662" lon="26.251785">
<ele>159.701294</ele>
<time>2010-07-17T10:04:32Z</time>
<desc>lat.=55.732662, lon.=26.251785, Alt.=159.701294m. Speed=13.716000m/h.</desc>
<speed>3.810000</speed>
</trkpt>
<trkpt lat="55.732655" lon="26.251715">
<ele>159.580200</ele>
<time>2010-07-17T10:04:33Z</time>
<desc>lat.=55.732655, lon.=26.251715, Alt.=159.580200m. Speed=13.500000m/h.</desc>
<speed>3.750000</speed>
</trkpt>
<trkpt lat="55.732639" lon="26.251633">
<ele>161.408325</ele>
<time>2010-07-17T10:04:34Z</time>
<desc>lat.=55.732639, lon.=26.251633, Alt.=161.408325m. Speed=16.488001m/h.</desc>
<speed>4.580000</speed>
</trkpt>
<trkpt lat="55.732632" lon="26.251551">
<ele>160.877075</ele>
<time>2010-07-17T10:04:35Z</time>
<desc>lat.=55.732632, lon.=26.251551, Alt.=160.877075m. Speed=14.940000m/h.</desc>
<speed>4.150000</speed>
</trkpt>
<trkpt lat="55.732616" lon="26.251474">
<ele>160.939575</ele>
<time>2010-07-17T10:04:36Z</time>
<desc>lat.=55.732616, lon.=26.251474, Alt.=160.939575m. Speed=16.379999m/h.</desc>
<speed>4.550000</speed>
</trkpt>
<trkpt lat="55.732609" lon="26.251390">
<ele>160.630981</ele>
<time>2010-07-17T10:04:37Z</time>
<desc>lat.=55.732609, lon.=26.251390, Alt.=160.630981m. Speed=16.379999m/h.</desc>
<speed>4.550000</speed>
</trkpt>
<trkpt lat="55.732597" lon="26.251297">
<ele>161.529419</ele>
<time>2010-07-17T10:04:38Z</time>
<desc>lat.=55.732597, lon.=26.251297, Alt.=161.529419m. Speed=16.416000m/h.</desc>
<speed>4.560000</speed>
</trkpt>
<trkpt lat="55.732578" lon="26.251219">
<ele>162.127075</ele>
<time>2010-07-17T10:04:39Z</time>
<desc>lat.=55.732578, lon.=26.251219, Alt.=162.127075m. Speed=15.840000m/h.</desc>
<speed>4.400000</speed>
</trkpt>
<trkpt lat="55.732563" lon="26.251135">
<ele>162.478638</ele>
<time>2010-07-17T10:04:40Z</time>
<desc>lat.=55.732563, lon.=26.251135, Alt.=162.478638m. Speed=17.532000m/h.</desc>
<speed>4.870000</speed>
</trkpt>
<trkpt lat="55.732548" lon="26.251057">
<ele>163.451294</ele>
<time>2010-07-17T10:04:41Z</time>
<desc>lat.=55.732548, lon.=26.251057, Alt.=163.451294m. Speed=15.804000m/h.</desc>
<speed>4.390000</speed>
</trkpt>
<trkpt lat="55.732529" lon="26.250980">
<ele>163.283325</ele>
<time>2010-07-17T10:04:42Z</time>
<desc>lat.=55.732529, lon.=26.250980, Alt.=163.283325m. Speed=15.336000m/h.</desc>
<speed>4.260000</speed>
</trkpt>
<trkpt lat="55.732502" lon="26.250889">
<ele>161.994263</ele>
<time>2010-07-17T10:04:43Z</time>
<desc>lat.=55.732502, lon.=26.250889, Alt.=161.994263m. Speed=17.100000m/h.</desc>
<speed>4.750000</speed>
</trkpt>
<trkpt lat="55.732479" lon="26.250811">
<ele>161.158325</ele>
<time>2010-07-17T10:04:44Z</time>
<desc>lat.=55.732479, lon.=26.250811, Alt.=161.158325m. Speed=17.568001m/h.</desc>
<speed>4.880000</speed>
</trkpt>
<trkpt lat="55.732460" lon="26.250734">
<ele>161.916138</ele>
<time>2010-07-17T10:04:45Z</time>
<desc>lat.=55.732460, lon.=26.250734, Alt.=161.916138m. Speed=18.396000m/h.</desc>
<speed>5.110000</speed>
</trkpt>
<trkpt lat="55.732445" lon="26.250664">
<ele>162.408325</ele>
<time>2010-07-17T10:04:46Z</time>
<desc>lat.=55.732445, lon.=26.250664, Alt.=162.408325m. Speed=14.652000m/h.</desc>
<speed>4.070000</speed>
</trkpt>
<trkpt lat="55.732422" lon="26.250605">
<ele>162.482544</ele>
<time>2010-07-17T10:04:47Z</time>
<desc>lat.=55.732422, lon.=26.250605, Alt.=162.482544m. Speed=15.516000m/h.</desc>
<speed>4.310000</speed>
</trkpt>
<trkpt lat="55.732407" lon="26.250540">
<ele>162.232544</ele>
<time>2010-07-17T10:04:48Z</time>
<desc>lat.=55.732407, lon.=26.250540, Alt.=162.232544m. Speed=15.012000m/h.</desc>
<speed>4.170000</speed>
</trkpt>
<trkpt lat="55.732384" lon="26.250463">
<ele>161.662231</ele>
<time>2010-07-17T10:04:49Z</time>
<desc>lat.=55.732384, lon.=26.250463, Alt.=161.662231m. Speed=17.568001m/h.</desc>
<speed>4.880000</speed>
</trkpt>
<trkpt lat="55.732361" lon="26.250389">
<ele>161.873169</ele>
<time>2010-07-17T10:04:50Z</time>
<desc>lat.=55.732361, lon.=26.250389, Alt.=161.873169m. Speed=17.459999m/h.</desc>
<speed>4.850000</speed>
</trkpt>
<trkpt lat="55.732330" lon="26.250326">
<ele>162.193481</ele>
<time>2010-07-17T10:04:51Z</time>
<desc>lat.=55.732330, lon.=26.250326, Alt.=162.193481m. Speed=17.747999m/h.</desc>
<speed>4.930000</speed>
</trkpt>
<trkpt lat="55.732311" lon="26.250261">
<ele>162.084106</ele>
<time>2010-07-17T10:04:52Z</time>
<desc>lat.=55.732311, lon.=26.250261, Alt.=162.084106m. Speed=16.200001m/h.</desc>
<speed>4.500000</speed>
</trkpt>
<trkpt lat="55.732292" lon="26.250204">
<ele>162.412231</ele>
<time>2010-07-17T10:04:53Z</time>
<desc>lat.=55.732292, lon.=26.250204, Alt.=162.412231m. Speed=14.616000m/h.</desc>
<speed>4.060000</speed>
</trkpt>
<trkpt lat="55.732265" lon="26.250132">
<ele>162.650513</ele>
<time>2010-07-17T10:04:54Z</time>
<desc>lat.=55.732265, lon.=26.250132, Alt.=162.650513m. Speed=17.747999m/h.</desc>
<speed>4.930000</speed>
</trkpt>
<trkpt lat="55.732243" lon="26.250061">
<ele>162.627075</ele>
<time>2010-07-17T10:04:55Z</time>
<desc>lat.=55.732243, lon.=26.250061, Alt.=162.627075m. Speed=17.639999m/h.</desc>
<speed>4.900000</speed>
</trkpt>
<trkpt lat="55.732220" lon="26.249992">
<ele>162.888794</ele>
<time>2010-07-17T10:04:56Z</time>
<desc>lat.=55.732220, lon.=26.249992, Alt.=162.888794m. Speed=17.532000m/h.</desc>
<speed>4.870000</speed>
</trkpt>
<trkpt lat="55.732189" lon="26.249899">
<ele>161.795044</ele>
<time>2010-07-17T10:04:57Z</time>
<desc>lat.=55.732189, lon.=26.249899, Alt.=161.795044m. Speed=18.072001m/h.</desc>
<speed>5.020000</speed>
</trkpt>
<trkpt lat="55.732166" lon="26.249809">
<ele>160.502075</ele>
<time>2010-07-17T10:04:58Z</time>
<desc>lat.=55.732166, lon.=26.249809, Alt.=160.502075m. Speed=16.992001m/h.</desc>
<speed>4.720000</speed>
</trkpt>
<trkpt lat="55.732136" lon="26.249737">
<ele>159.834106</ele>
<time>2010-07-17T10:04:59Z</time>
<desc>lat.=55.732136, lon.=26.249737, Alt.=159.834106m. Speed=15.948000m/h.</desc>
<speed>4.430000</speed>
</trkpt>
<trkpt lat="55.732113" lon="26.249674">
<ele>159.650513</ele>
<time>2010-07-17T10:05:00Z</time>
<desc>lat.=55.732113, lon.=26.249674, Alt.=159.650513m. Speed=16.091999m/h.</desc>
<speed>4.470000</speed>
</trkpt>
<trkpt lat="55.732094" lon="26.249599">
<ele>159.595825</ele>
<time>2010-07-17T10:05:01Z</time>
<desc>lat.=55.732094, lon.=26.249599, Alt.=159.595825m. Speed=16.200001m/h.</desc>
<speed>4.500000</speed>
</trkpt>
<trkpt lat="55.732067" lon="26.249523">
<ele>159.185669</ele>
<time>2010-07-17T10:05:02Z</time>
<desc>lat.=55.732067, lon.=26.249523, Alt.=159.185669m. Speed=17.459999m/h.</desc>
<speed>4.850000</speed>
</trkpt>
<trkpt lat="55.732044" lon="26.249454">
<ele>159.634888</ele>
<time>2010-07-17T10:05:03Z</time>
<desc>lat.=55.732044, lon.=26.249454, Alt.=159.634888m. Speed=18.504000m/h.</desc>
<speed>5.140000</speed>
</trkpt>
<trkpt lat="55.732014" lon="26.249384">
<ele>159.736450</ele>
<time>2010-07-17T10:05:04Z</time>
<desc>lat.=55.732014, lon.=26.249384, Alt.=159.736450m. Speed=19.224001m/h.</desc>
<speed>5.340000</speed>
</trkpt>
<trkpt lat="55.731998" lon="26.249311">
<ele>159.951294</ele>
<time>2010-07-17T10:05:05Z</time>
<desc>lat.=55.731998, lon.=26.249311, Alt.=159.951294m. Speed=16.344000m/h.</desc>
<speed>4.540000</speed>
</trkpt>
<trkpt lat="55.731983" lon="26.249237">
<ele>160.013794</ele>
<time>2010-07-17T10:05:06Z</time>
<desc>lat.=55.731983, lon.=26.249237, Alt.=160.013794m. Speed=15.516000m/h.</desc>
<speed>4.310000</speed>
</trkpt>
<trkpt lat="55.731949" lon="26.249163">
<ele>159.943481</ele>
<time>2010-07-17T10:05:07Z</time>
<desc>lat.=55.731949, lon.=26.249163, Alt.=159.943481m. Speed=15.768000m/h.</desc>
<speed>4.380000</speed>
</trkpt>
<trkpt lat="55.731926" lon="26.249100">
<ele>160.252075</ele>
<time>2010-07-17T10:05:08Z</time>
<desc>lat.=55.731926, lon.=26.249100, Alt.=160.252075m. Speed=15.084000m/h.</desc>
<speed>4.190000</speed>
</trkpt>
<trkpt lat="55.731907" lon="26.249035">
<ele>160.369263</ele>
<time>2010-07-17T10:05:09Z</time>
<desc>lat.=55.731907, lon.=26.249035, Alt.=160.369263m. Speed=16.308001m/h.</desc>
<speed>4.530000</speed>
</trkpt>
<trkpt lat="55.731888" lon="26.248968">
<ele>160.455200</ele>
<time>2010-07-17T10:05:10Z</time>
<desc>lat.=55.731888, lon.=26.248968, Alt.=160.455200m. Speed=17.172001m/h.</desc>
<speed>4.770000</speed>
</trkpt>
<trkpt lat="55.731869" lon="26.248901">
<ele>160.595825</ele>
<time>2010-07-17T10:05:11Z</time>
<desc>lat.=55.731869, lon.=26.248901, Alt.=160.595825m. Speed=16.344000m/h.</desc>
<speed>4.540000</speed>
</trkpt>
<trkpt lat="55.731861" lon="26.248838">
<ele>161.002075</ele>
<time>2010-07-17T10:05:12Z</time>
<desc>lat.=55.731861, lon.=26.248838, Alt.=161.002075m. Speed=14.148000m/h.</desc>
<speed>3.930000</speed>
</trkpt>
<trkpt lat="55.731876" lon="26.248777">
<ele>159.963013</ele>
<time>2010-07-17T10:05:13Z</time>
<desc>lat.=55.731876, lon.=26.248777, Alt.=159.963013m. Speed=13.824000m/h.</desc>
<speed>3.840000</speed>
</trkpt>
<trkpt lat="55.731861" lon="26.248718">
<ele>160.349731</ele>
<time>2010-07-17T10:05:14Z</time>
<desc>lat.=55.731861, lon.=26.248718, Alt.=160.349731m. Speed=14.580000m/h.</desc>
<speed>4.050000</speed>
</trkpt>
<trkpt lat="55.731846" lon="26.248665">
<ele>160.974731</ele>
<time>2010-07-17T10:05:15Z</time>
<desc>lat.=55.731846, lon.=26.248665, Alt.=160.974731m. Speed=12.852000m/h.</desc>
<speed>3.570000</speed>
</trkpt>
<trkpt lat="55.731842" lon="26.248615">
<ele>161.326294</ele>
<time>2010-07-17T10:05:16Z</time>
<desc>lat.=55.731842, lon.=26.248615, Alt.=161.326294m. Speed=10.764000m/h.</desc>
<speed>2.990000</speed>
</trkpt>
<trkpt lat="55.731838" lon="26.248569">
<ele>161.607544</ele>
<time>2010-07-17T10:05:17Z</time>
<desc>lat.=55.731838, lon.=26.248569, Alt.=161.607544m. Speed=9.828000m/h.</desc>
<speed>2.730000</speed>
</trkpt>
<trkpt lat="55.731819" lon="26.248512">
<ele>162.107544</ele>
<time>2010-07-17T10:05:18Z</time>
<desc>lat.=55.731819, lon.=26.248512, Alt.=162.107544m. Speed=12.744000m/h.</desc>
<speed>3.540000</speed>
</trkpt>
<trkpt lat="55.731812" lon="26.248459">
<ele>162.314575</ele>
<time>2010-07-17T10:05:19Z</time>
<desc>lat.=55.731812, lon.=26.248459, Alt.=162.314575m. Speed=11.016000m/h.</desc>
<speed>3.060000</speed>
</trkpt>
<trkpt lat="55.731789" lon="26.248421">
<ele>163.283325</ele>
<time>2010-07-17T10:05:20Z</time>
<desc>lat.=55.731789, lon.=26.248421, Alt.=163.283325m. Speed=9.648000m/h.</desc>
<speed>2.680000</speed>
</trkpt>
<trkpt lat="55.731789" lon="26.248371">
<ele>162.267700</ele>
<time>2010-07-17T10:05:21Z</time>
<desc>lat.=55.731789, lon.=26.248371, Alt.=162.267700m. Speed=9.756000m/h.</desc>
<speed>2.710000</speed>
</trkpt>
<trkpt lat="55.731773" lon="26.248318">
<ele>162.568481</ele>
<time>2010-07-17T10:05:22Z</time>
<desc>lat.=55.731773, lon.=26.248318, Alt.=162.568481m. Speed=10.152000m/h.</desc>
<speed>2.820000</speed>
</trkpt>
<trkpt lat="55.731743" lon="26.248259">
<ele>161.771606</ele>
<time>2010-07-17T10:05:23Z</time>
<desc>lat.=55.731743, lon.=26.248259, Alt.=161.771606m. Speed=11.988000m/h.</desc>
<speed>3.330000</speed>
</trkpt>
<trkpt lat="55.731712" lon="26.248188">
<ele>160.552856</ele>
<time>2010-07-17T10:05:24Z</time>
<desc>lat.=55.731712, lon.=26.248188, Alt.=160.552856m. Speed=12.240000m/h.</desc>
<speed>3.400000</speed>
</trkpt>
<trkpt lat="55.731697" lon="26.248135">
<ele>160.517700</ele>
<time>2010-07-17T10:05:25Z</time>
<desc>lat.=55.731697, lon.=26.248135, Alt.=160.517700m. Speed=13.176000m/h.</desc>
<speed>3.660000</speed>
</trkpt>
<trkpt lat="55.731678" lon="26.248081">
<ele>160.705200</ele>
<time>2010-07-17T10:05:26Z</time>
<desc>lat.=55.731678, lon.=26.248081, Alt.=160.705200m. Speed=12.636000m/h.</desc>
<speed>3.510000</speed>
</trkpt>
<trkpt lat="55.731659" lon="26.248018">
<ele>160.939575</ele>
<time>2010-07-17T10:05:27Z</time>
<desc>lat.=55.731659, lon.=26.248018, Alt.=160.939575m. Speed=12.960000m/h.</desc>
<speed>3.600000</speed>
</trkpt>
<trkpt lat="55.731647" lon="26.247978">
<ele>161.693481</ele>
<time>2010-07-17T10:05:28Z</time>
<desc>lat.=55.731647, lon.=26.247978, Alt.=161.693481m. Speed=8.928000m/h.</desc>
<speed>2.480000</speed>
</trkpt>
<trkpt lat="55.731636" lon="26.247952">
<ele>162.685669</ele>
<time>2010-07-17T10:05:29Z</time>
<desc>lat.=55.731636, lon.=26.247952, Alt.=162.685669m. Speed=4.536000m/h.</desc>
<speed>1.260000</speed>
</trkpt>
<trkpt lat="55.731628" lon="26.247927">
<ele>163.463013</ele>
<time>2010-07-17T10:05:30Z</time>
<desc>lat.=55.731628, lon.=26.247927, Alt.=163.463013m. Speed=7.020000m/h.</desc>
<speed>1.950000</speed>
</trkpt>
<trkpt lat="55.731628" lon="26.247883">
<ele>164.338013</ele>
<time>2010-07-17T10:05:31Z</time>
<desc>lat.=55.731628, lon.=26.247883, Alt.=164.338013m. Speed=10.152000m/h.</desc>
<speed>2.820000</speed>
</trkpt>
<trkpt lat="55.731617" lon="26.247843">
<ele>165.537231</ele>
<time>2010-07-17T10:05:32Z</time>
<desc>lat.=55.731617, lon.=26.247843, Alt.=165.537231m. Speed=9.612000m/h.</desc>
<speed>2.670000</speed>
</trkpt>
<trkpt lat="55.731602" lon="26.247782">
<ele>166.341919</ele>
<time>2010-07-17T10:05:33Z</time>
<desc>lat.=55.731602, lon.=26.247782, Alt.=166.341919m. Speed=10.872000m/h.</desc>
<speed>3.020000</speed>
</trkpt>
<trkpt lat="55.731586" lon="26.247728">
<ele>166.920044</ele>
<time>2010-07-17T10:05:34Z</time>
<desc>lat.=55.731586, lon.=26.247728, Alt.=166.920044m. Speed=10.476000m/h.</desc>
<speed>2.910000</speed>
</trkpt>
<trkpt lat="55.731586" lon="26.247625">
<ele>165.701294</ele>
<time>2010-07-17T10:05:35Z</time>
<desc>lat.=55.731586, lon.=26.247625, Alt.=165.701294m. Speed=12.276000m/h.</desc>
<speed>3.410000</speed>
</trkpt>
<trkpt lat="55.731579" lon="26.247541">
<ele>163.904419</ele>
<time>2010-07-17T10:05:36Z</time>
<desc>lat.=55.731579, lon.=26.247541, Alt.=163.904419m. Speed=10.548000m/h.</desc>
<speed>2.930000</speed>
</trkpt>
<trkpt lat="55.731575" lon="26.247498">
<ele>163.982544</ele>
<time>2010-07-17T10:05:37Z</time>
<desc>lat.=55.731575, lon.=26.247498, Alt.=163.982544m. Speed=7.308000m/h.</desc>
<speed>2.030000</speed>
</trkpt>
<trkpt lat="55.731567" lon="26.247452">
<ele>162.974731</ele>
<time>2010-07-17T10:05:38Z</time>
<desc>lat.=55.731567, lon.=26.247452, Alt.=162.974731m. Speed=6.120000m/h.</desc>
<speed>1.700000</speed>
</trkpt>
<trkpt lat="55.731571" lon="26.247423">
<ele>163.158325</ele>
<time>2010-07-17T10:05:39Z</time>
<desc>lat.=55.731571, lon.=26.247423, Alt.=163.158325m. Speed=3.564000m/h.</desc>
<speed>0.990000</speed>
</trkpt>
<trkpt lat="55.731571" lon="26.247400">
<ele>163.884888</ele>
<time>2010-07-17T10:05:40Z</time>
<desc>lat.=55.731571, lon.=26.247400, Alt.=163.884888m. Speed=6.624000m/h.</desc>
<speed>1.840000</speed>
</trkpt>
<trkpt lat="55.731571" lon="26.247370">
<ele>164.404419</ele>
<time>2010-07-17T10:05:41Z</time>
<desc>lat.=55.731571, lon.=26.247370, Alt.=164.404419m. Speed=5.616000m/h.</desc>
<speed>1.560000</speed>
</trkpt>
<trkpt lat="55.731579" lon="26.247364">
<ele>166.150513</ele>
<time>2010-07-17T10:05:42Z</time>
<desc>lat.=55.731579, lon.=26.247364, Alt.=166.150513m. Speed=6.300000m/h.</desc>
<speed>1.750000</speed>
</trkpt>
<trkpt lat="55.731575" lon="26.247293">
<ele>167.201294</ele>
<time>2010-07-17T10:05:43Z</time>
<desc>lat.=55.731575, lon.=26.247293, Alt.=167.201294m. Speed=8.568000m/h.</desc>
<speed>2.380000</speed>
</trkpt>
<trkpt lat="55.731575" lon="26.247259">
<ele>168.033325</ele>
<time>2010-07-17T10:05:44Z</time>
<desc>lat.=55.731575, lon.=26.247259, Alt.=168.033325m. Speed=6.624000m/h.</desc>
<speed>1.840000</speed>
</trkpt>
<trkpt lat="55.731571" lon="26.247227">
<ele>168.498169</ele>
<time>2010-07-17T10:05:45Z</time>
<desc>lat.=55.731571, lon.=26.247227, Alt.=168.498169m. Speed=4.896000m/h.</desc>
<speed>1.360000</speed>
</trkpt>
<trkpt lat="55.731552" lon="26.247154">
<ele>166.634888</ele>
<time>2010-07-17T10:05:46Z</time>
<desc>lat.=55.731552, lon.=26.247154, Alt.=166.634888m. Speed=3.816000m/h.</desc>
<speed>1.060000</speed>
</trkpt>
<trkpt lat="55.731525" lon="26.247087">
<ele>165.041138</ele>
<time>2010-07-17T10:05:47Z</time>
<desc>lat.=55.731525, lon.=26.247087, Alt.=165.041138m. Speed=3.024000m/h.</desc>
<speed>0.840000</speed>
</trkpt>
<trkpt lat="55.731510" lon="26.247072">
<ele>164.908325</ele>
<time>2010-07-17T10:05:48Z</time>
<desc>lat.=55.731510, lon.=26.247072, Alt.=164.908325m. Speed=7.092000m/h.</desc>
<speed>1.970000</speed>
</trkpt>
<trkpt lat="55.731495" lon="26.247057">
<ele>165.185669</ele>
<time>2010-07-17T10:05:49Z</time>
<desc>lat.=55.731495, lon.=26.247057, Alt.=165.185669m. Speed=6.948000m/h.</desc>
<speed>1.930000</speed>
</trkpt>
<trkpt lat="55.731476" lon="26.247019">
<ele>165.517700</ele>
<time>2010-07-17T10:05:50Z</time>
<desc>lat.=55.731476, lon.=26.247019, Alt.=165.517700m. Speed=7.272000m/h.</desc>
<speed>2.020000</speed>
</trkpt>
<trkpt lat="55.731461" lon="26.246984">
<ele>166.193481</ele>
<time>2010-07-17T10:05:51Z</time>
<desc>lat.=55.731461, lon.=26.246984, Alt.=166.193481m. Speed=5.976000m/h.</desc>
<speed>1.660000</speed>
</trkpt>
<trkpt lat="55.731449" lon="26.246950">
<ele>166.220825</ele>
<time>2010-07-17T10:05:52Z</time>
<desc>lat.=55.731449, lon.=26.246950, Alt.=166.220825m. Speed=8.028000m/h.</desc>
<speed>2.230000</speed>
</trkpt>
<trkpt lat="55.731422" lon="26.246895">
<ele>165.474731</ele>
<time>2010-07-17T10:05:53Z</time>
<desc>lat.=55.731422, lon.=26.246895, Alt.=165.474731m. Speed=10.908000m/h.</desc>
<speed>3.030000</speed>
</trkpt>
<trkpt lat="55.731407" lon="26.246847">
<ele>164.662231</ele>
<time>2010-07-17T10:05:54Z</time>
<desc>lat.=55.731407, lon.=26.246847, Alt.=164.662231m. Speed=10.044000m/h.</desc>
<speed>2.790000</speed>
</trkpt>
<trkpt lat="55.731400" lon="26.246805">
<ele>165.334106</ele>
<time>2010-07-17T10:05:55Z</time>
<desc>lat.=55.731400, lon.=26.246805, Alt.=165.334106m. Speed=10.296000m/h.</desc>
<speed>2.860000</speed>
</trkpt>
<trkpt lat="55.731388" lon="26.246759">
<ele>165.560669</ele>
<time>2010-07-17T10:05:56Z</time>
<desc>lat.=55.731388, lon.=26.246759, Alt.=165.560669m. Speed=9.324000m/h.</desc>
<speed>2.590000</speed>
</trkpt>
<trkpt lat="55.731380" lon="26.246716">
<ele>165.963013</ele>
<time>2010-07-17T10:05:57Z</time>
<desc>lat.=55.731380, lon.=26.246716, Alt.=165.963013m. Speed=9.108000m/h.</desc>
<speed>2.530000</speed>
</trkpt>
<trkpt lat="55.731373" lon="26.246675">
<ele>166.334106</ele>
<time>2010-07-17T10:05:58Z</time>
<desc>lat.=55.731373, lon.=26.246675, Alt.=166.334106m. Speed=8.532000m/h.</desc>
<speed>2.370000</speed>
</trkpt>
<trkpt lat="55.731358" lon="26.246624">
<ele>166.982544</ele>
<time>2010-07-17T10:05:59Z</time>
<desc>lat.=55.731358, lon.=26.246624, Alt.=166.982544m. Speed=11.664000m/h.</desc>
<speed>3.240000</speed>
</trkpt>
<trkpt lat="55.731342" lon="26.246563">
<ele>167.349731</ele>
<time>2010-07-17T10:06:00Z</time>
<desc>lat.=55.731342, lon.=26.246563, Alt.=167.349731m. Speed=12.132000m/h.</desc>
<speed>3.370000</speed>
</trkpt>
<trkpt lat="55.731331" lon="26.246492">
<ele>167.857544</ele>
<time>2010-07-17T10:06:01Z</time>
<desc>lat.=55.731331, lon.=26.246492, Alt.=167.857544m. Speed=12.636000m/h.</desc>
<speed>3.510000</speed>
</trkpt>
<trkpt lat="55.731312" lon="26.246414">
<ele>167.806763</ele>
<time>2010-07-17T10:06:02Z</time>
<desc>lat.=55.731312, lon.=26.246414, Alt.=167.806763m. Speed=14.436000m/h.</desc>
<speed>4.010000</speed>
</trkpt>
<trkpt lat="55.731304" lon="26.246328">
<ele>168.205200</ele>
<time>2010-07-17T10:06:03Z</time>
<desc>lat.=55.731304, lon.=26.246328, Alt.=168.205200m. Speed=18.323999m/h.</desc>
<speed>5.090000</speed>
</trkpt>
<trkpt lat="55.731297" lon="26.246252">
<ele>168.107544</ele>
<time>2010-07-17T10:06:04Z</time>
<desc>lat.=55.731297, lon.=26.246252, Alt.=168.107544m. Speed=14.364000m/h.</desc>
<speed>3.990000</speed>
</trkpt>
<trkpt lat="55.731281" lon="26.246189">
<ele>168.134888</ele>
<time>2010-07-17T10:06:05Z</time>
<desc>lat.=55.731281, lon.=26.246189, Alt.=168.134888m. Speed=12.744000m/h.</desc>
<speed>3.540000</speed>
</trkpt>
<trkpt lat="55.731274" lon="26.246134">
<ele>168.568481</ele>
<time>2010-07-17T10:06:06Z</time>
<desc>lat.=55.731274, lon.=26.246134, Alt.=168.568481m. Speed=10.656000m/h.</desc>
<speed>2.960000</speed>
</trkpt>
<trkpt lat="55.731255" lon="26.246073">
<ele>168.134888</ele>
<time>2010-07-17T10:06:07Z</time>
<desc>lat.=55.731255, lon.=26.246073, Alt.=168.134888m. Speed=9.540000m/h.</desc>
<speed>2.650000</speed>
</trkpt>
<trkpt lat="55.731247" lon="26.246031">
<ele>168.150513</ele>
<time>2010-07-17T10:06:08Z</time>
<desc>lat.=55.731247, lon.=26.246031, Alt.=168.150513m. Speed=8.640000m/h.</desc>
<speed>2.400000</speed>
</trkpt>
<trkpt lat="55.731236" lon="26.245981">
<ele>168.107544</ele>
<time>2010-07-17T10:06:09Z</time>
<desc>lat.=55.731236, lon.=26.245981, Alt.=168.107544m. Speed=8.064000m/h.</desc>
<speed>2.240000</speed>
</trkpt>
<trkpt lat="55.731228" lon="26.245949">
<ele>168.322388</ele>
<time>2010-07-17T10:06:10Z</time>
<desc>lat.=55.731228, lon.=26.245949, Alt.=168.322388m. Speed=7.524000m/h.</desc>
<speed>2.090000</speed>
</trkpt>
<trkpt lat="55.731216" lon="26.245920">
<ele>168.634888</ele>
<time>2010-07-17T10:06:11Z</time>
<desc>lat.=55.731216, lon.=26.245920, Alt.=168.634888m. Speed=8.280000m/h.</desc>
<speed>2.300000</speed>
</trkpt>
<trkpt lat="55.731209" lon="26.245886">
<ele>168.982544</ele>
<time>2010-07-17T10:06:12Z</time>
<desc>lat.=55.731209, lon.=26.245886, Alt.=168.982544m. Speed=6.732000m/h.</desc>
<speed>1.870000</speed>
</trkpt>
<trkpt lat="55.731205" lon="26.245859">
<ele>169.240356</ele>
<time>2010-07-17T10:06:13Z</time>
<desc>lat.=55.731205, lon.=26.245859, Alt.=169.240356m. Speed=6.012000m/h.</desc>
<speed>1.670000</speed>
</trkpt>
<trkpt lat="55.731197" lon="26.245831">
<ele>169.494263</ele>
<time>2010-07-17T10:06:14Z</time>
<desc>lat.=55.731197, lon.=26.245831, Alt.=169.494263m. Speed=7.776000m/h.</desc>
<speed>2.160000</speed>
</trkpt>
<trkpt lat="55.731171" lon="26.245804">
<ele>168.623169</ele>
<time>2010-07-17T10:06:15Z</time>
<desc>lat.=55.731171, lon.=26.245804, Alt.=168.623169m. Speed=7.632000m/h.</desc>
<speed>2.120000</speed>
</trkpt>
<trkpt lat="55.731155" lon="26.245773">
<ele>168.314575</ele>
<time>2010-07-17T10:06:16Z</time>
<desc>lat.=55.731155, lon.=26.245773, Alt.=168.314575m. Speed=7.596000m/h.</desc>
<speed>2.110000</speed>
</trkpt>
<trkpt lat="55.731140" lon="26.245722">
<ele>168.591919</ele>
<time>2010-07-17T10:06:17Z</time>
<desc>lat.=55.731140, lon.=26.245722, Alt.=168.591919m. Speed=9.036000m/h.</desc>
<speed>2.510000</speed>
</trkpt>
<trkpt lat="55.731133" lon="26.245678">
<ele>169.142700</ele>
<time>2010-07-17T10:06:18Z</time>
<desc>lat.=55.731133, lon.=26.245678, Alt.=169.142700m. Speed=8.784000m/h.</desc>
<speed>2.440000</speed>
</trkpt>
<trkpt lat="55.731125" lon="26.245634">
<ele>169.818481</ele>
<time>2010-07-17T10:06:19Z</time>
<desc>lat.=55.731125, lon.=26.245634, Alt.=169.818481m. Speed=8.856000m/h.</desc>
<speed>2.460000</speed>
</trkpt>
<trkpt lat="55.731117" lon="26.245586">
<ele>169.966919</ele>
<time>2010-07-17T10:06:20Z</time>
<desc>lat.=55.731117, lon.=26.245586, Alt.=169.966919m. Speed=7.524000m/h.</desc>
<speed>2.090000</speed>
</trkpt>
<trkpt lat="55.731110" lon="26.245546">
<ele>170.193481</ele>
<time>2010-07-17T10:06:21Z</time>
<desc>lat.=55.731110, lon.=26.245546, Alt.=170.193481m. Speed=9.036000m/h.</desc>
<speed>2.510000</speed>
</trkpt>
<trkpt lat="55.731102" lon="26.245504">
<ele>169.713013</ele>
<time>2010-07-17T10:06:22Z</time>
<desc>lat.=55.731102, lon.=26.245504, Alt.=169.713013m. Speed=5.616000m/h.</desc>
<speed>1.560000</speed>
</trkpt>
<trkpt lat="55.731094" lon="26.245468">
<ele>169.529419</ele>
<time>2010-07-17T10:06:23Z</time>
<desc>lat.=55.731094, lon.=26.245468, Alt.=169.529419m. Speed=7.848000m/h.</desc>
<speed>2.180000</speed>
</trkpt>
<trkpt lat="55.731087" lon="26.245428">
<ele>169.068481</ele>
<time>2010-07-17T10:06:24Z</time>
<desc>lat.=55.731087, lon.=26.245428, Alt.=169.068481m. Speed=8.316000m/h.</desc>
<speed>2.310000</speed>
</trkpt>
<trkpt lat="55.731071" lon="26.245390">
<ele>168.763794</ele>
<time>2010-07-17T10:06:25Z</time>
<desc>lat.=55.731071, lon.=26.245390, Alt.=168.763794m. Speed=8.100000m/h.</desc>
<speed>2.250000</speed>
</trkpt>
<trkpt lat="55.731060" lon="26.245354">
<ele>168.588013</ele>
<time>2010-07-17T10:06:26Z</time>
<desc>lat.=55.731060, lon.=26.245354, Alt.=168.588013m. Speed=7.344000m/h.</desc>
<speed>2.040000</speed>
</trkpt>
<trkpt lat="55.731049" lon="26.245317">
<ele>168.205200</ele>
<time>2010-07-17T10:06:27Z</time>
<desc>lat.=55.731049, lon.=26.245317, Alt.=168.205200m. Speed=6.912000m/h.</desc>
<speed>1.920000</speed>
</trkpt>
<trkpt lat="55.731045" lon="26.245285">
<ele>167.701294</ele>
<time>2010-07-17T10:06:28Z</time>
<desc>lat.=55.731045, lon.=26.245285, Alt.=167.701294m. Speed=4.860000m/h.</desc>
<speed>1.350000</speed>
</trkpt>
<trkpt lat="55.731045" lon="26.245251">
<ele>166.923950</ele>
<time>2010-07-17T10:06:29Z</time>
<desc>lat.=55.731045, lon.=26.245251, Alt.=166.923950m. Speed=4.824000m/h.</desc>
<speed>1.340000</speed>
</trkpt>
<trkpt lat="55.731041" lon="26.245234">
<ele>165.580200</ele>
<time>2010-07-17T10:06:30Z</time>
<desc>lat.=55.731041, lon.=26.245234, Alt.=165.580200m. Speed=3.312000m/h.</desc>
<speed>0.920000</speed>
</trkpt>
<trkpt lat="55.731041" lon="26.245213">
<ele>164.927856</ele>
<time>2010-07-17T10:06:31Z</time>
<desc>lat.=55.731041, lon.=26.245213, Alt.=164.927856m. Speed=1.188000m/h.</desc>
<speed>0.330000</speed>
</trkpt>
<trkpt lat="55.731037" lon="26.245205">
<ele>164.298950</ele>
<time>2010-07-17T10:06:32Z</time>
<desc>lat.=55.731037, lon.=26.245205, Alt.=164.298950m. Speed=0.180000m/h.</desc>
<speed>0.050000</speed>
</trkpt>
<trkpt lat="55.731030" lon="26.245197">
<ele>163.767700</ele>
<time>2010-07-17T10:06:33Z</time>
<desc>lat.=55.731030, lon.=26.245197, Alt.=163.767700m. Speed=0.576000m/h.</desc>
<speed>0.160000</speed>
</trkpt>
<trkpt lat="55.731026" lon="26.245199">
<ele>163.791138</ele>
<time>2010-07-17T10:06:34Z</time>
<desc>lat.=55.731026, lon.=26.245199, Alt.=163.791138m. Speed=0.396000m/h.</desc>
<speed>0.110000</speed>
</trkpt>
<trkpt lat="55.731026" lon="26.245199">
<ele>163.802856</ele>
<time>2010-07-17T10:06:35Z</time>
<desc>lat.=55.731026, lon.=26.245199, Alt.=163.802856m. Speed=0.180000m/h.</desc>
<speed>0.050000</speed>
</trkpt>
<trkpt lat="55.731026" lon="26.245199">
<ele>163.787231</ele>
<time>2010-07-17T10:06:36Z</time>
<desc>lat.=55.731026, lon.=26.245199, Alt.=163.787231m. Speed=0.144000m/h.</desc>
<speed>0.040000</speed>
</trkpt>
<trkpt lat="55.731026" lon="26.245199">
<ele>163.795044</ele>
<time>2010-07-17T10:06:37Z</time>
<desc>lat.=55.731026, lon.=26.245199, Alt.=163.795044m. Speed=0.252000m/h.</desc>
<speed>0.070000</speed>
</trkpt>
<trkpt lat="55.731026" lon="26.245199">
<ele>163.795044</ele>
<time>2010-07-17T10:06:38Z</time>
<desc>lat.=55.731026, lon.=26.245199, Alt.=163.795044m. Speed=0.324000m/h.</desc>
<speed>0.090000</speed>
</trkpt>
<trkpt lat="55.731026" lon="26.245197">
<ele>163.755981</ele>
<time>2010-07-17T10:06:39Z</time>
<desc>lat.=55.731026, lon.=26.245197, Alt.=163.755981m. Speed=0.288000m/h.</desc>
<speed>0.080000</speed>
</trkpt>
<trkpt lat="55.731026" lon="26.245197">
<ele>163.716919</ele>
<time>2010-07-17T10:06:40Z</time>
<desc>lat.=55.731026, lon.=26.245197, Alt.=163.716919m. Speed=1.836000m/h.</desc>
<speed>0.510000</speed>
</trkpt>
<trkpt lat="55.731026" lon="26.245188">
<ele>163.685669</ele>
<time>2010-07-17T10:06:41Z</time>
<desc>lat.=55.731026, lon.=26.245188, Alt.=163.685669m. Speed=4.104000m/h.</desc>
<speed>1.140000</speed>
</trkpt>
<trkpt lat="55.731007" lon="26.245163">
<ele>162.658325</ele>
<time>2010-07-17T10:06:42Z</time>
<desc>lat.=55.731007, lon.=26.245163, Alt.=162.658325m. Speed=8.136000m/h.</desc>
<speed>2.260000</speed>
</trkpt>
<trkpt lat="55.730988" lon="26.245129">
<ele>161.173950</ele>
<time>2010-07-17T10:06:43Z</time>
<desc>lat.=55.730988, lon.=26.245129, Alt.=161.173950m. Speed=9.216000m/h.</desc>
<speed>2.560000</speed>
</trkpt>
<trkpt lat="55.730976" lon="26.245083">
<ele>160.611450</ele>
<time>2010-07-17T10:06:44Z</time>
<desc>lat.=55.730976, lon.=26.245083, Alt.=160.611450m. Speed=11.700000m/h.</desc>
<speed>3.250000</speed>
</trkpt>
<trkpt lat="55.730957" lon="26.245033">
<ele>160.271606</ele>
<time>2010-07-17T10:06:45Z</time>
<desc>lat.=55.730957, lon.=26.245033, Alt.=160.271606m. Speed=12.780000m/h.</desc>
<speed>3.550000</speed>
</trkpt>
<trkpt lat="55.730942" lon="26.244982">
<ele>160.205200</ele>
<time>2010-07-17T10:06:46Z</time>
<desc>lat.=55.730942, lon.=26.244982, Alt.=160.205200m. Speed=12.888000m/h.</desc>
<speed>3.580000</speed>
</trkpt>
<trkpt lat="55.730923" lon="26.244932">
<ele>160.252075</ele>
<time>2010-07-17T10:06:47Z</time>
<desc>lat.=55.730923, lon.=26.244932, Alt.=160.252075m. Speed=12.312000m/h.</desc>
<speed>3.420000</speed>
</trkpt>
<trkpt lat="55.730904" lon="26.244886">
<ele>160.400513</ele>
<time>2010-07-17T10:06:48Z</time>
<desc>lat.=55.730904, lon.=26.244886, Alt.=160.400513m. Speed=11.052000m/h.</desc>
<speed>3.070000</speed>
</trkpt>
<trkpt lat="55.730892" lon="26.244835">
<ele>160.880981</ele>
<time>2010-07-17T10:06:49Z</time>
<desc>lat.=55.730892, lon.=26.244835, Alt.=160.880981m. Speed=12.780000m/h.</desc>
<speed>3.550000</speed>
</trkpt>
<trkpt lat="55.730869" lon="26.244787">
<ele>160.736450</ele>
<time>2010-07-17T10:06:50Z</time>
<desc>lat.=55.730869, lon.=26.244787, Alt.=160.736450m. Speed=14.076000m/h.</desc>
<speed>3.910000</speed>
</trkpt>
<trkpt lat="55.730839" lon="26.244730">
<ele>159.986450</ele>
<time>2010-07-17T10:06:51Z</time>
<desc>lat.=55.730839, lon.=26.244730, Alt.=159.986450m. Speed=12.996000m/h.</desc>
<speed>3.610000</speed>
</trkpt>
<trkpt lat="55.730824" lon="26.244675">
<ele>160.095825</ele>
<time>2010-07-17T10:06:52Z</time>
<desc>lat.=55.730824, lon.=26.244675, Alt.=160.095825m. Speed=14.040000m/h.</desc>
<speed>3.900000</speed>
</trkpt>
<trkpt lat="55.730797" lon="26.244617">
<ele>159.029419</ele>
<time>2010-07-17T10:06:53Z</time>
<desc>lat.=55.730797, lon.=26.244617, Alt.=159.029419m. Speed=13.896000m/h.</desc>
<speed>3.860000</speed>
</trkpt>
<trkpt lat="55.730774" lon="26.244564">
<ele>158.627075</ele>
<time>2010-07-17T10:06:54Z</time>
<desc>lat.=55.730774, lon.=26.244564, Alt.=158.627075m. Speed=12.780000m/h.</desc>
<speed>3.550000</speed>
</trkpt>
<trkpt lat="55.730755" lon="26.244516">
<ele>158.408325</ele>
<time>2010-07-17T10:06:55Z</time>
<desc>lat.=55.730755, lon.=26.244516, Alt.=158.408325m. Speed=12.816000m/h.</desc>
<speed>3.560000</speed>
</trkpt>
<trkpt lat="55.730732" lon="26.244474">
<ele>158.162231</ele>
<time>2010-07-17T10:06:56Z</time>
<desc>lat.=55.730732, lon.=26.244474, Alt.=158.162231m. Speed=10.944000m/h.</desc>
<speed>3.040000</speed>
</trkpt>
<trkpt lat="55.730713" lon="26.244432">
<ele>157.197388</ele>
<time>2010-07-17T10:06:57Z</time>
<desc>lat.=55.730713, lon.=26.244432, Alt.=157.197388m. Speed=8.856000m/h.</desc>
<speed>2.460000</speed>
</trkpt>
<trkpt lat="55.730705" lon="26.244413">
<ele>156.607544</ele>
<time>2010-07-17T10:06:58Z</time>
<desc>lat.=55.730705, lon.=26.244413, Alt.=156.607544m. Speed=9.504000m/h.</desc>
<speed>2.640000</speed>
</trkpt>
<trkpt lat="55.730690" lon="26.244352">
<ele>157.146606</ele>
<time>2010-07-17T10:06:59Z</time>
<desc>lat.=55.730690, lon.=26.244352, Alt.=157.146606m. Speed=13.176000m/h.</desc>
<speed>3.660000</speed>
</trkpt>
<trkpt lat="55.730671" lon="26.244286">
<ele>157.287231</ele>
<time>2010-07-17T10:07:00Z</time>
<desc>lat.=55.730671, lon.=26.244286, Alt.=157.287231m. Speed=15.192000m/h.</desc>
<speed>4.220000</speed>
</trkpt>
<trkpt lat="55.730652" lon="26.244226">
<ele>157.443481</ele>
<time>2010-07-17T10:07:01Z</time>
<desc>lat.=55.730652, lon.=26.244226, Alt.=157.443481m. Speed=14.544000m/h.</desc>
<speed>4.040000</speed>
</trkpt>
<trkpt lat="55.730629" lon="26.244171">
<ele>157.763794</ele>
<time>2010-07-17T10:07:02Z</time>
<desc>lat.=55.730629, lon.=26.244171, Alt.=157.763794m. Speed=16.524000m/h.</desc>
<speed>4.590000</speed>
</trkpt>
<trkpt lat="55.730595" lon="26.244120">
<ele>158.009888</ele>
<time>2010-07-17T10:07:03Z</time>
<desc>lat.=55.730595, lon.=26.244120, Alt.=158.009888m. Speed=17.964001m/h.</desc>
<speed>4.990000</speed>
</trkpt>
<trkpt lat="55.730553" lon="26.244057">
<ele>157.166138</ele>
<time>2010-07-17T10:07:04Z</time>
<desc>lat.=55.730553, lon.=26.244057, Alt.=157.166138m. Speed=19.656000m/h.</desc>
<speed>5.460000</speed>
</trkpt>
<trkpt lat="55.730522" lon="26.244007">
<ele>157.209106</ele>
<time>2010-07-17T10:07:05Z</time>
<desc>lat.=55.730522, lon.=26.244007, Alt.=157.209106m. Speed=17.784000m/h.</desc>
<speed>4.940000</speed>
</trkpt>
<trkpt lat="55.730488" lon="26.243956">
<ele>156.689575</ele>
<time>2010-07-17T10:07:06Z</time>
<desc>lat.=55.730488, lon.=26.243956, Alt.=156.689575m. Speed=18.108000m/h.</desc>
<speed>5.030000</speed>
</trkpt>
<trkpt lat="55.730453" lon="26.243908">
<ele>157.486450</ele>
<time>2010-07-17T10:07:07Z</time>
<desc>lat.=55.730453, lon.=26.243908, Alt.=157.486450m. Speed=18.648001m/h.</desc>
<speed>5.180000</speed>
</trkpt>
<trkpt lat="55.730408" lon="26.243872">
<ele>157.435669</ele>
<time>2010-07-17T10:07:08Z</time>
<desc>lat.=55.730408, lon.=26.243872, Alt.=157.435669m. Speed=18.756001m/h.</desc>
<speed>5.210000</speed>
</trkpt>
<trkpt lat="55.730343" lon="26.243855">
<ele>155.052856</ele>
<time>2010-07-17T10:07:09Z</time>
<desc>lat.=55.730343, lon.=26.243855, Alt.=155.052856m. Speed=21.384001m/h.</desc>
<speed>5.940000</speed>
</trkpt>
<trkpt lat="55.730282" lon="26.243835">
<ele>154.220825</ele>
<time>2010-07-17T10:07:10Z</time>
<desc>lat.=55.730282, lon.=26.243835, Alt.=154.220825m. Speed=22.247999m/h.</desc>
<speed>6.180000</speed>
</trkpt>
<trkpt lat="55.730225" lon="26.243826">
<ele>153.369263</ele>
<time>2010-07-17T10:07:11Z</time>
<desc>lat.=55.730225, lon.=26.243826, Alt.=153.369263m. Speed=23.615999m/h.</desc>
<speed>6.560000</speed>
</trkpt>
<trkpt lat="55.730160" lon="26.243818">
<ele>152.431763</ele>
<time>2010-07-17T10:07:12Z</time>
<desc>lat.=55.730160, lon.=26.243818, Alt.=152.431763m. Speed=24.264000m/h.</desc>
<speed>6.740000</speed>
</trkpt>
<trkpt lat="55.730099" lon="26.243807">
<ele>151.951294</ele>
<time>2010-07-17T10:07:13Z</time>
<desc>lat.=55.730099, lon.=26.243807, Alt.=151.951294m. Speed=25.091999m/h.</desc>
<speed>6.970000</speed>
</trkpt>
<trkpt lat="55.730038" lon="26.243807">
<ele>151.662231</ele>
<time>2010-07-17T10:07:14Z</time>
<desc>lat.=55.730038, lon.=26.243807, Alt.=151.662231m. Speed=24.444000m/h.</desc>
<speed>6.790000</speed>
</trkpt>
<trkpt lat="55.729977" lon="26.243807">
<ele>151.115356</ele>
<time>2010-07-17T10:07:15Z</time>
<desc>lat.=55.729977, lon.=26.243807, Alt.=151.115356m. Speed=24.299999m/h.</desc>
<speed>6.750000</speed>
</trkpt>
<trkpt lat="55.729919" lon="26.243816">
<ele>151.150513</ele>
<time>2010-07-17T10:07:16Z</time>
<desc>lat.=55.729919, lon.=26.243816, Alt.=151.150513m. Speed=22.392000m/h.</desc>
<speed>6.220000</speed>
</trkpt>
<trkpt lat="55.729870" lon="26.243832">
<ele>150.880981</ele>
<time>2010-07-17T10:07:17Z</time>
<desc>lat.=55.729870, lon.=26.243832, Alt.=150.880981m. Speed=20.268000m/h.</desc>
<speed>5.630000</speed>
</trkpt>
<trkpt lat="55.729828" lon="26.243853">
<ele>151.556763</ele>
<time>2010-07-17T10:07:18Z</time>
<desc>lat.=55.729828, lon.=26.243853, Alt.=151.556763m. Speed=16.812000m/h.</desc>
<speed>4.670000</speed>
</trkpt>
<trkpt lat="55.729790" lon="26.243856">
<ele>151.091919</ele>
<time>2010-07-17T10:07:19Z</time>
<desc>lat.=55.729790, lon.=26.243856, Alt.=151.091919m. Speed=13.284000m/h.</desc>
<speed>3.690000</speed>
</trkpt>
<trkpt lat="55.729759" lon="26.243855">
<ele>151.548950</ele>
<time>2010-07-17T10:07:20Z</time>
<desc>lat.=55.729759, lon.=26.243855, Alt.=151.548950m. Speed=11.052000m/h.</desc>
<speed>3.070000</speed>
</trkpt>
<trkpt lat="55.729725" lon="26.243851">
<ele>150.939575</ele>
<time>2010-07-17T10:07:21Z</time>
<desc>lat.=55.729725, lon.=26.243851, Alt.=150.939575m. Speed=10.188000m/h.</desc>
<speed>2.830000</speed>
</trkpt>
<trkpt lat="55.729702" lon="26.243834">
<ele>150.736450</ele>
<time>2010-07-17T10:07:22Z</time>
<desc>lat.=55.729702, lon.=26.243834, Alt.=150.736450m. Speed=9.108000m/h.</desc>
<speed>2.530000</speed>
</trkpt>
<trkpt lat="55.729683" lon="26.243809">
<ele>150.724731</ele>
<time>2010-07-17T10:07:23Z</time>
<desc>lat.=55.729683, lon.=26.243809, Alt.=150.724731m. Speed=9.540000m/h.</desc>
<speed>2.650000</speed>
</trkpt>
<trkpt lat="55.729664" lon="26.243773">
<ele>150.841919</ele>
<time>2010-07-17T10:07:24Z</time>
<desc>lat.=55.729664, lon.=26.243773, Alt.=150.841919m. Speed=8.784000m/h.</desc>
<speed>2.440000</speed>
</trkpt>
<trkpt lat="55.729652" lon="26.243742">
<ele>150.869263</ele>
<time>2010-07-17T10:07:25Z</time>
<desc>lat.=55.729652, lon.=26.243742, Alt.=150.869263m. Speed=8.064000m/h.</desc>
<speed>2.240000</speed>
</trkpt>
<trkpt lat="55.729637" lon="26.243713">
<ele>150.451294</ele>
<time>2010-07-17T10:07:26Z</time>
<desc>lat.=55.729637, lon.=26.243713, Alt.=150.451294m. Speed=7.380000m/h.</desc>
<speed>2.050000</speed>
</trkpt>
<trkpt lat="55.729622" lon="26.243702">
<ele>150.580200</ele>
<time>2010-07-17T10:07:27Z</time>
<desc>lat.=55.729622, lon.=26.243702, Alt.=150.580200m. Speed=5.832000m/h.</desc>
<speed>1.620000</speed>
</trkpt>
<trkpt lat="55.729607" lon="26.243702">
<ele>149.986450</ele>
<time>2010-07-17T10:07:28Z</time>
<desc>lat.=55.729607, lon.=26.243702, Alt.=149.986450m. Speed=5.652000m/h.</desc>
<speed>1.570000</speed>
</trkpt>
<trkpt lat="55.729591" lon="26.243689">
<ele>149.654419</ele>
<time>2010-07-17T10:07:29Z</time>
<desc>lat.=55.729591, lon.=26.243689, Alt.=149.654419m. Speed=4.428000m/h.</desc>
<speed>1.230000</speed>
</trkpt>
<trkpt lat="55.729576" lon="26.243685">
<ele>149.447388</ele>
<time>2010-07-17T10:07:30Z</time>
<desc>lat.=55.729576, lon.=26.243685, Alt.=149.447388m. Speed=4.428000m/h.</desc>
<speed>1.230000</speed>
</trkpt>
<trkpt lat="55.729568" lon="26.243681">
<ele>149.259888</ele>
<time>2010-07-17T10:07:31Z</time>
<desc>lat.=55.729568, lon.=26.243681, Alt.=149.259888m. Speed=4.176000m/h.</desc>
<speed>1.160000</speed>
</trkpt>
<trkpt lat="55.729553" lon="26.243687">
<ele>149.591919</ele>
<time>2010-07-17T10:07:32Z</time>
<desc>lat.=55.729553, lon.=26.243687, Alt.=149.591919m. Speed=5.400000m/h.</desc>
<speed>1.500000</speed>
</trkpt>
<trkpt lat="55.729538" lon="26.243692">
<ele>149.451294</ele>
<time>2010-07-17T10:07:33Z</time>
<desc>lat.=55.729538, lon.=26.243692, Alt.=149.451294m. Speed=6.012000m/h.</desc>
<speed>1.670000</speed>
</trkpt>
<trkpt lat="55.729523" lon="26.243702">
<ele>149.427856</ele>
<time>2010-07-17T10:07:34Z</time>
<desc>lat.=55.729523, lon.=26.243702, Alt.=149.427856m. Speed=6.084000m/h.</desc>
<speed>1.690000</speed>
</trkpt>
<trkpt lat="55.729507" lon="26.243708">
<ele>148.998169</ele>
<time>2010-07-17T10:07:35Z</time>
<desc>lat.=55.729507, lon.=26.243708, Alt.=148.998169m. Speed=4.932000m/h.</desc>
<speed>1.370000</speed>
</trkpt>
<trkpt lat="55.729492" lon="26.243715">
<ele>149.041138</ele>
<time>2010-07-17T10:07:36Z</time>
<desc>lat.=55.729492, lon.=26.243715, Alt.=149.041138m. Speed=8.496000m/h.</desc>
<speed>2.360000</speed>
</trkpt>
<trkpt lat="55.729465" lon="26.243721">
<ele>149.111450</ele>
<time>2010-07-17T10:07:37Z</time>
<desc>lat.=55.729465, lon.=26.243721, Alt.=149.111450m. Speed=9.180000m/h.</desc>
<speed>2.550000</speed>
</trkpt>
<trkpt lat="55.729443" lon="26.243736">
<ele>149.334106</ele>
<time>2010-07-17T10:07:38Z</time>
<desc>lat.=55.729443, lon.=26.243736, Alt.=149.334106m. Speed=10.836000m/h.</desc>
<speed>3.010000</speed>
</trkpt>
<trkpt lat="55.729412" lon="26.243752">
<ele>148.978638</ele>
<time>2010-07-17T10:07:39Z</time>
<desc>lat.=55.729412, lon.=26.243752, Alt.=148.978638m. Speed=11.160000m/h.</desc>
<speed>3.100000</speed>
</trkpt>
<trkpt lat="55.729385" lon="26.243767">
<ele>149.017700</ele>
<time>2010-07-17T10:07:40Z</time>
<desc>lat.=55.729385, lon.=26.243767, Alt.=149.017700m. Speed=10.728000m/h.</desc>
<speed>2.980000</speed>
</trkpt>
<trkpt lat="55.729359" lon="26.243780">
<ele>148.845825</ele>
<time>2010-07-17T10:07:41Z</time>
<desc>lat.=55.729359, lon.=26.243780, Alt.=148.845825m. Speed=11.160000m/h.</desc>
<speed>3.100000</speed>
</trkpt>
<trkpt lat="55.729328" lon="26.243795">
<ele>148.877075</ele>
<time>2010-07-17T10:07:42Z</time>
<desc>lat.=55.729328, lon.=26.243795, Alt.=148.877075m. Speed=10.980000m/h.</desc>
<speed>3.050000</speed>
</trkpt>
<trkpt lat="55.729301" lon="26.243807">
<ele>148.748169</ele>
<time>2010-07-17T10:07:43Z</time>
<desc>lat.=55.729301, lon.=26.243807, Alt.=148.748169m. Speed=10.728000m/h.</desc>
<speed>2.980000</speed>
</trkpt>
<trkpt lat="55.729275" lon="26.243822">
<ele>148.650513</ele>
<time>2010-07-17T10:07:44Z</time>
<desc>lat.=55.729275, lon.=26.243822, Alt.=148.650513m. Speed=10.620000m/h.</desc>
<speed>2.950000</speed>
</trkpt>
<trkpt lat="55.729252" lon="26.243830">
<ele>148.662231</ele>
<time>2010-07-17T10:07:45Z</time>
<desc>lat.=55.729252, lon.=26.243830, Alt.=148.662231m. Speed=9.684000m/h.</desc>
<speed>2.690000</speed>
</trkpt>
<trkpt lat="55.729225" lon="26.243824">
<ele>148.916138</ele>
<time>2010-07-17T10:07:46Z</time>
<desc>lat.=55.729225, lon.=26.243824, Alt.=148.916138m. Speed=9.504000m/h.</desc>
<speed>2.640000</speed>
</trkpt>
<trkpt lat="55.729206" lon="26.243809">
<ele>149.021606</ele>
<time>2010-07-17T10:07:47Z</time>
<desc>lat.=55.729206, lon.=26.243809, Alt.=149.021606m. Speed=9.180000m/h.</desc>
<speed>2.550000</speed>
</trkpt>
<trkpt lat="55.729195" lon="26.243792">
<ele>149.459106</ele>
<time>2010-07-17T10:07:48Z</time>
<desc>lat.=55.729195, lon.=26.243792, Alt.=149.459106m. Speed=7.740000m/h.</desc>
<speed>2.150000</speed>
</trkpt>
<trkpt lat="55.729179" lon="26.243773">
<ele>149.838013</ele>
<time>2010-07-17T10:07:49Z</time>
<desc>lat.=55.729179, lon.=26.243773, Alt.=149.838013m. Speed=7.272000m/h.</desc>
<speed>2.020000</speed>
</trkpt>
<trkpt lat="55.729164" lon="26.243753">
<ele>150.095825</ele>
<time>2010-07-17T10:07:50Z</time>
<desc>lat.=55.729164, lon.=26.243753, Alt.=150.095825m. Speed=5.508000m/h.</desc>
<speed>1.530000</speed>
</trkpt>
<trkpt lat="55.729153" lon="26.243750">
<ele>150.302856</ele>
<time>2010-07-17T10:07:51Z</time>
<desc>lat.=55.729153, lon.=26.243750, Alt.=150.302856m. Speed=2.880000m/h.</desc>
<speed>0.800000</speed>
</trkpt>
<trkpt lat="55.729153" lon="26.243746">
<ele>150.459106</ele>
<time>2010-07-17T10:07:52Z</time>
<desc>lat.=55.729153, lon.=26.243746, Alt.=150.459106m. Speed=0.648000m/h.</desc>
<speed>0.180000</speed>
</trkpt>
<trkpt lat="55.729149" lon="26.243746">
<ele>150.470825</ele>
<time>2010-07-17T10:07:53Z</time>
<desc>lat.=55.729149, lon.=26.243746, Alt.=150.470825m. Speed=0.180000m/h.</desc>
<speed>0.050000</speed>
</trkpt>
<trkpt lat="55.729149" lon="26.243746">
<ele>150.494263</ele>
<time>2010-07-17T10:07:54Z</time>
<desc>lat.=55.729149, lon.=26.243746, Alt.=150.494263m. Speed=0.468000m/h.</desc>
<speed>0.130000</speed>
</trkpt>
<trkpt lat="55.729149" lon="26.243746">
<ele>150.572388</ele>
<time>2010-07-17T10:07:55Z</time>
<desc>lat.=55.729149, lon.=26.243746, Alt.=150.572388m. Speed=0.288000m/h.</desc>
<speed>0.080000</speed>
</trkpt>
<trkpt lat="55.729145" lon="26.243746">
<ele>150.642700</ele>
<time>2010-07-17T10:07:56Z</time>
<desc>lat.=55.729145, lon.=26.243746, Alt.=150.642700m. Speed=0.612000m/h.</desc>
<speed>0.170000</speed>
</trkpt>
<trkpt lat="55.729145" lon="26.243746">
<ele>150.701294</ele>
<time>2010-07-17T10:07:57Z</time>
<desc>lat.=55.729145, lon.=26.243746, Alt.=150.701294m. Speed=0.360000m/h.</desc>
<speed>0.100000</speed>
</trkpt>
<trkpt lat="55.729145" lon="26.243746">
<ele>150.755981</ele>
<time>2010-07-17T10:07:58Z</time>
<desc>lat.=55.729145, lon.=26.243746, Alt.=150.755981m. Speed=0.432000m/h.</desc>
<speed>0.120000</speed>
</trkpt>
<trkpt lat="55.729145" lon="26.243748">
<ele>150.798950</ele>
<time>2010-07-17T10:07:59Z</time>
<desc>lat.=55.729145, lon.=26.243748, Alt.=150.798950m. Speed=0.936000m/h.</desc>
<speed>0.260000</speed>
</trkpt>
<trkpt lat="55.729149" lon="26.243750">
<ele>150.834106</ele>
<time>2010-07-17T10:08:00Z</time>
<desc>lat.=55.729149, lon.=26.243750, Alt.=150.834106m. Speed=0.216000m/h.</desc>
<speed>0.060000</speed>
</trkpt>
<trkpt lat="55.729149" lon="26.243750">
<ele>150.861450</ele>
<time>2010-07-17T10:08:01Z</time>
<desc>lat.=55.729149, lon.=26.243750, Alt.=150.861450m. Speed=0.180000m/h.</desc>
<speed>0.050000</speed>
</trkpt>
<trkpt lat="55.729145" lon="26.243748">
<ele>150.880981</ele>
<time>2010-07-17T10:08:02Z</time>
<desc>lat.=55.729145, lon.=26.243748, Alt.=150.880981m. Speed=0.180000m/h.</desc>
<speed>0.050000</speed>
</trkpt>
<trkpt lat="55.729145" lon="26.243748">
<ele>150.884888</ele>
<time>2010-07-17T10:08:03Z</time>
<desc>lat.=55.729145, lon.=26.243748, Alt.=150.884888m. Speed=1.476000m/h.</desc>
<speed>0.410000</speed>
</trkpt>
<trkpt lat="55.729149" lon="26.243753">
<ele>150.888794</ele>
<time>2010-07-17T10:08:04Z</time>
<desc>lat.=55.729149, lon.=26.243753, Alt.=150.888794m. Speed=1.620000m/h.</desc>
<speed>0.450000</speed>
</trkpt>
<trkpt lat="55.729153" lon="26.243757">
<ele>150.877075</ele>
<time>2010-07-17T10:08:05Z</time>
<desc>lat.=55.729153, lon.=26.243757, Alt.=150.877075m. Speed=3.852000m/h.</desc>
<speed>1.070000</speed>
</trkpt>
<trkpt lat="55.729153" lon="26.243782">
<ele>150.818481</ele>
<time>2010-07-17T10:08:06Z</time>
<desc>lat.=55.729153, lon.=26.243782, Alt.=150.818481m. Speed=1.368000m/h.</desc>
<speed>0.380000</speed>
</trkpt>
<trkpt lat="55.729156" lon="26.243799">
<ele>150.646606</ele>
<time>2010-07-17T10:08:07Z</time>
<desc>lat.=55.729156, lon.=26.243799, Alt.=150.646606m. Speed=2.160000m/h.</desc>
<speed>0.600000</speed>
</trkpt>
<trkpt lat="55.729179" lon="26.243788">
<ele>150.088013</ele>
<time>2010-07-17T10:08:08Z</time>
<desc>lat.=55.729179, lon.=26.243788, Alt.=150.088013m. Speed=10.404000m/h.</desc>
<speed>2.890000</speed>
</trkpt>
<trkpt lat="55.729191" lon="26.243755">
<ele>147.377075</ele>
<time>2010-07-17T10:08:09Z</time>
<desc>lat.=55.729191, lon.=26.243755, Alt.=147.377075m. Speed=9.504000m/h.</desc>
<speed>2.640000</speed>
</trkpt>
<trkpt lat="55.729214" lon="26.243731">
<ele>146.490356</ele>
<time>2010-07-17T10:08:10Z</time>
<desc>lat.=55.729214, lon.=26.243731, Alt.=146.490356m. Speed=13.320000m/h.</desc>
<speed>3.700000</speed>
</trkpt>
<trkpt lat="55.729248" lon="26.243711">
<ele>146.166138</ele>
<time>2010-07-17T10:08:11Z</time>
<desc>lat.=55.729248, lon.=26.243711, Alt.=146.166138m. Speed=10.512000m/h.</desc>
<speed>2.920000</speed>
</trkpt>
<trkpt lat="55.729282" lon="26.243692">
<ele>145.716919</ele>
<time>2010-07-17T10:08:12Z</time>
<desc>lat.=55.729282, lon.=26.243692, Alt.=145.716919m. Speed=18.035999m/h.</desc>
<speed>5.010000</speed>
</trkpt>
<trkpt lat="55.729321" lon="26.243675">
<ele>145.338013</ele>
<time>2010-07-17T10:08:13Z</time>
<desc>lat.=55.729321, lon.=26.243675, Alt.=145.338013m. Speed=12.672000m/h.</desc>
<speed>3.520000</speed>
</trkpt>
<trkpt lat="55.729351" lon="26.243654">
<ele>145.173950</ele>
<time>2010-07-17T10:08:14Z</time>
<desc>lat.=55.729351, lon.=26.243654, Alt.=145.173950m. Speed=11.160000m/h.</desc>
<speed>3.100000</speed>
</trkpt>
<trkpt lat="55.729374" lon="26.243628">
<ele>144.869263</ele>
<time>2010-07-17T10:08:15Z</time>
<desc>lat.=55.729374, lon.=26.243628, Alt.=144.869263m. Speed=4.500000m/h.</desc>
<speed>1.250000</speed>
</trkpt>
<trkpt lat="55.729397" lon="26.243612">
<ele>144.236450</ele>
<time>2010-07-17T10:08:16Z</time>
<desc>lat.=55.729397, lon.=26.243612, Alt.=144.236450m. Speed=8.352000m/h.</desc>
<speed>2.320000</speed>
</trkpt>
<trkpt lat="55.729412" lon="26.243603">
<ele>143.970825</ele>
<time>2010-07-17T10:08:17Z</time>
<desc>lat.=55.729412, lon.=26.243603, Alt.=143.970825m. Speed=5.400000m/h.</desc>
<speed>1.500000</speed>
</trkpt>
<trkpt lat="55.729427" lon="26.243597">
<ele>143.158325</ele>
<time>2010-07-17T10:08:18Z</time>
<desc>lat.=55.729427, lon.=26.243597, Alt.=143.158325m. Speed=4.356000m/h.</desc>
<speed>1.210000</speed>
</trkpt>
<trkpt lat="55.729450" lon="26.243591">
<ele>142.689575</ele>
<time>2010-07-17T10:08:19Z</time>
<desc>lat.=55.729450, lon.=26.243591, Alt.=142.689575m. Speed=8.496000m/h.</desc>
<speed>2.360000</speed>
</trkpt>
<trkpt lat="55.729465" lon="26.243584">
<ele>142.255981</ele>
<time>2010-07-17T10:08:20Z</time>
<desc>lat.=55.729465, lon.=26.243584, Alt.=142.255981m. Speed=5.256000m/h.</desc>
<speed>1.460000</speed>
</trkpt>
<trkpt lat="55.729481" lon="26.243591">
<ele>143.791138</ele>
<time>2010-07-17T10:08:21Z</time>
<desc>lat.=55.729481, lon.=26.243591, Alt.=143.791138m. Speed=4.284000m/h.</desc>
<speed>1.190000</speed>
</trkpt>
<trkpt lat="55.729500" lon="26.243584">
<ele>143.505981</ele>
<time>2010-07-17T10:08:22Z</time>
<desc>lat.=55.729500, lon.=26.243584, Alt.=143.505981m. Speed=6.516000m/h.</desc>
<speed>1.810000</speed>
</trkpt>
<trkpt lat="55.729507" lon="26.243578">
<ele>143.627075</ele>
<time>2010-07-17T10:08:23Z</time>
<desc>lat.=55.729507, lon.=26.243578, Alt.=143.627075m. Speed=2.196000m/h.</desc>
<speed>0.610000</speed>
</trkpt>
<trkpt lat="55.729515" lon="26.243570">
<ele>143.701294</ele>
<time>2010-07-17T10:08:24Z</time>
<desc>lat.=55.729515, lon.=26.243570, Alt.=143.701294m. Speed=2.520000m/h.</desc>
<speed>0.700000</speed>
</trkpt>
<trkpt lat="55.729523" lon="26.243568">
<ele>143.947388</ele>
<time>2010-07-17T10:08:25Z</time>
<desc>lat.=55.729523, lon.=26.243568, Alt.=143.947388m. Speed=0.936000m/h.</desc>
<speed>0.260000</speed>
</trkpt>
<trkpt lat="55.729527" lon="26.243570">
<ele>143.963013</ele>
<time>2010-07-17T10:08:26Z</time>
<desc>lat.=55.729527, lon.=26.243570, Alt.=143.963013m. Speed=0.792000m/h.</desc>
<speed>0.220000</speed>
</trkpt>
<trkpt lat="55.729523" lon="26.243572">
<ele>143.814575</ele>
<time>2010-07-17T10:08:27Z</time>
<desc>lat.=55.729523, lon.=26.243572, Alt.=143.814575m. Speed=0.756000m/h.</desc>
<speed>0.210000</speed>
</trkpt>
<trkpt lat="55.729530" lon="26.243576">
<ele>143.798950</ele>
<time>2010-07-17T10:08:28Z</time>
<desc>lat.=55.729530, lon.=26.243576, Alt.=143.798950m. Speed=2.088000m/h.</desc>
<speed>0.580000</speed>
</trkpt>
<trkpt lat="55.729542" lon="26.243574">
<ele>143.791138</ele>
<time>2010-07-17T10:08:29Z</time>
<desc>lat.=55.729542, lon.=26.243574, Alt.=143.791138m. Speed=3.240000m/h.</desc>
<speed>0.900000</speed>
</trkpt>
<trkpt lat="55.729546" lon="26.243574">
<ele>143.720825</ele>
<time>2010-07-17T10:08:30Z</time>
<desc>lat.=55.729546, lon.=26.243574, Alt.=143.720825m. Speed=1.296000m/h.</desc>
<speed>0.360000</speed>
</trkpt>
<trkpt lat="55.729546" lon="26.243578">
<ele>143.689575</ele>
<time>2010-07-17T10:08:31Z</time>
<desc>lat.=55.729546, lon.=26.243578, Alt.=143.689575m. Speed=0.720000m/h.</desc>
<speed>0.200000</speed>
</trkpt>
<trkpt lat="55.729549" lon="26.243584">
<ele>143.548950</ele>
<time>2010-07-17T10:08:32Z</time>
<desc>lat.=55.729549, lon.=26.243584, Alt.=143.548950m. Speed=0.612000m/h.</desc>
<speed>0.170000</speed>
</trkpt>
<trkpt lat="55.729553" lon="26.243589">
<ele>143.463013</ele>
<time>2010-07-17T10:08:33Z</time>
<desc>lat.=55.729553, lon.=26.243589, Alt.=143.463013m. Speed=0.756000m/h.</desc>
<speed>0.210000</speed>
</trkpt>
<trkpt lat="55.729553" lon="26.243593">
<ele>143.388794</ele>
<time>2010-07-17T10:08:34Z</time>
<desc>lat.=55.729553, lon.=26.243593, Alt.=143.388794m. Speed=1.404000m/h.</desc>
<speed>0.390000</speed>
</trkpt>
<trkpt lat="55.729557" lon="26.243603">
<ele>143.341919</ele>
<time>2010-07-17T10:08:35Z</time>
<desc>lat.=55.729557, lon.=26.243603, Alt.=143.341919m. Speed=1.440000m/h.</desc>
<speed>0.400000</speed>
</trkpt>
<trkpt lat="55.729557" lon="26.243607">
<ele>143.502075</ele>
<time>2010-07-17T10:08:36Z</time>
<desc>lat.=55.729557, lon.=26.243607, Alt.=143.502075m. Speed=1.332000m/h.</desc>
<speed>0.370000</speed>
</trkpt>
<trkpt lat="55.729557" lon="26.243593">
<ele>143.447388</ele>
<time>2010-07-17T10:08:37Z</time>
<desc>lat.=55.729557, lon.=26.243593, Alt.=143.447388m. Speed=0.144000m/h.</desc>
<speed>0.040000</speed>
</trkpt>
<trkpt lat="55.729557" lon="26.243603">
<ele>143.650513</ele>
<time>2010-07-17T10:08:38Z</time>
<desc>lat.=55.729557, lon.=26.243603, Alt.=143.650513m. Speed=0.072000m/h.</desc>
<speed>0.020000</speed>
</trkpt>
<trkpt lat="55.729557" lon="26.243605">
<ele>143.716919</ele>
<time>2010-07-17T10:08:39Z</time>
<desc>lat.=55.729557, lon.=26.243605, Alt.=143.716919m. Speed=0.000000m/h.</desc>
<speed>0.000000</speed>
</trkpt>
<trkpt lat="55.729557" lon="26.243608">
<ele>143.822388</ele>
<time>2010-07-17T10:08:40Z</time>
<desc>lat.=55.729557, lon.=26.243608, Alt.=143.822388m. Speed=0.036000m/h.</desc>
<speed>0.010000</speed>
</trkpt>
<trkpt lat="55.729557" lon="26.243608">
<ele>143.826294</ele>
<time>2010-07-17T10:08:41Z</time>
<desc>lat.=55.729557, lon.=26.243608, Alt.=143.826294m. Speed=0.036000m/h.</desc>
<speed>0.010000</speed>
</trkpt>
<trkpt lat="55.729557" lon="26.243608">
<ele>143.826294</ele>
<time>2010-07-17T10:08:42Z</time>
<desc>lat.=55.729557, lon.=26.243608, Alt.=143.826294m. Speed=0.144000m/h.</desc>
<speed>0.040000</speed>
</trkpt>
<trkpt lat="55.729557" lon="26.243607">
<ele>143.834106</ele>
<time>2010-07-17T10:08:43Z</time>
<desc>lat.=55.729557, lon.=26.243607, Alt.=143.834106m. Speed=0.036000m/h.</desc>
<speed>0.010000</speed>
</trkpt>
<trkpt lat="55.729557" lon="26.243607">
<ele>143.822388</ele>
<time>2010-07-17T10:08:44Z</time>
<desc>lat.=55.729557, lon.=26.243607, Alt.=143.822388m. Speed=0.108000m/h.</desc>
<speed>0.030000</speed>
</trkpt>
<trkpt lat="55.729557" lon="26.243607">
<ele>143.830200</ele>
<time>2010-07-17T10:08:45Z</time>
<desc>lat.=55.729557, lon.=26.243607, Alt.=143.830200m. Speed=0.288000m/h.</desc>
<speed>0.080000</speed>
</trkpt>
<trkpt lat="55.729557" lon="26.243608">
<ele>143.849731</ele>
<time>2010-07-17T10:08:46Z</time>
<desc>lat.=55.729557, lon.=26.243608, Alt.=143.849731m. Speed=0.252000m/h.</desc>
<speed>0.070000</speed>
</trkpt>
<trkpt lat="55.729557" lon="26.243607">
<ele>143.861450</ele>
<time>2010-07-17T10:08:47Z</time>
<desc>lat.=55.729557, lon.=26.243607, Alt.=143.861450m. Speed=0.000000m/h.</desc>
<speed>0.000000</speed>
</trkpt>
<trkpt lat="55.729557" lon="26.243608">
<ele>143.877075</ele>
<time>2010-07-17T10:08:48Z</time>
<desc>lat.=55.729557, lon.=26.243608, Alt.=143.877075m. Speed=0.036000m/h.</desc>
<speed>0.010000</speed>
</trkpt>
<trkpt lat="55.729557" lon="26.243608">
<ele>143.892700</ele>
<time>2010-07-17T10:08:49Z</time>
<desc>lat.=55.729557, lon.=26.243608, Alt.=143.892700m. Speed=0.504000m/h.</desc>
<speed>0.140000</speed>
</trkpt>
<trkpt lat="55.729561" lon="26.243610">
<ele>143.923950</ele>
<time>2010-07-17T10:08:50Z</time>
<desc>lat.=55.729561, lon.=26.243610, Alt.=143.923950m. Speed=0.864000m/h.</desc>
<speed>0.240000</speed>
</trkpt>
<trkpt lat="55.729561" lon="26.243608">
<ele>143.939575</ele>
<time>2010-07-17T10:08:51Z</time>
<desc>lat.=55.729561, lon.=26.243608, Alt.=143.939575m. Speed=0.720000m/h.</desc>
<speed>0.200000</speed>
</trkpt>
<trkpt lat="55.729565" lon="26.243608">
<ele>143.955200</ele>
<time>2010-07-17T10:08:52Z</time>
<desc>lat.=55.729565, lon.=26.243608, Alt.=143.955200m. Speed=0.792000m/h.</desc>
<speed>0.220000</speed>
</trkpt>
<trkpt lat="55.729565" lon="26.243612">
<ele>143.982544</ele>
<time>2010-07-17T10:08:53Z</time>
<desc>lat.=55.729565, lon.=26.243612, Alt.=143.982544m. Speed=0.648000m/h.</desc>
<speed>0.180000</speed>
</trkpt>
<trkpt lat="55.729565" lon="26.243614">
<ele>144.013794</ele>
<time>2010-07-17T10:08:54Z</time>
<desc>lat.=55.729565, lon.=26.243614, Alt.=144.013794m. Speed=0.288000m/h.</desc>
<speed>0.080000</speed>
</trkpt>
<trkpt lat="55.729565" lon="26.243614">
<ele>144.052856</ele>
<time>2010-07-17T10:08:55Z</time>
<desc>lat.=55.729565, lon.=26.243614, Alt.=144.052856m. Speed=0.108000m/h.</desc>
<speed>0.030000</speed>
</trkpt>
<trkpt lat="55.729565" lon="26.243614">
<ele>144.084106</ele>
<time>2010-07-17T10:08:56Z</time>
<desc>lat.=55.729565, lon.=26.243614, Alt.=144.084106m. Speed=0.144000m/h.</desc>
<speed>0.040000</speed>
</trkpt>
<trkpt lat="55.729565" lon="26.243614">
<ele>144.088013</ele>
<time>2010-07-17T10:08:57Z</time>
<desc>lat.=55.729565, lon.=26.243614, Alt.=144.088013m. Speed=0.288000m/h.</desc>
<speed>0.080000</speed>
</trkpt>
<trkpt lat="55.729565" lon="26.243616">
<ele>144.095825</ele>
<time>2010-07-17T10:08:58Z</time>
<desc>lat.=55.729565, lon.=26.243616, Alt.=144.095825m. Speed=0.180000m/h.</desc>
<speed>0.050000</speed>
</trkpt>
<trkpt lat="55.729565" lon="26.243618">
<ele>144.103638</ele>
<time>2010-07-17T10:08:59Z</time>
<desc>lat.=55.729565, lon.=26.243618, Alt.=144.103638m. Speed=0.000000m/h.</desc>
<speed>0.000000</speed>
</trkpt>
<trkpt lat="55.729565" lon="26.243618">
<ele>144.111450</ele>
<time>2010-07-17T10:09:00Z</time>
<desc>lat.=55.729565, lon.=26.243618, Alt.=144.111450m. Speed=0.432000m/h.</desc>
<speed>0.120000</speed>
</trkpt>
<trkpt lat="55.729565" lon="26.243618">
<ele>144.119263</ele>
<time>2010-07-17T10:09:01Z</time>
<desc>lat.=55.729565, lon.=26.243618, Alt.=144.119263m. Speed=0.432000m/h.</desc>
<speed>0.120000</speed>
</trkpt>
<trkpt lat="55.729565" lon="26.243620">
<ele>144.127075</ele>
<time>2010-07-17T10:09:02Z</time>
<desc>lat.=55.729565, lon.=26.243620, Alt.=144.127075m. Speed=0.468000m/h.</desc>
<speed>0.130000</speed>
</trkpt>
<trkpt lat="55.729565" lon="26.243622">
<ele>144.130981</ele>
<time>2010-07-17T10:09:03Z</time>
<desc>lat.=55.729565, lon.=26.243622, Alt.=144.130981m. Speed=0.144000m/h.</desc>
<speed>0.040000</speed>
</trkpt>
<trkpt lat="55.729565" lon="26.243624">
<ele>144.134888</ele>
<time>2010-07-17T10:09:04Z</time>
<desc>lat.=55.729565, lon.=26.243624, Alt.=144.134888m. Speed=0.108000m/h.</desc>
<speed>0.030000</speed>
</trkpt>
<trkpt lat="55.729565" lon="26.243624">
<ele>144.138794</ele>
<time>2010-07-17T10:09:05Z</time>
<desc>lat.=55.729565, lon.=26.243624, Alt.=144.138794m. Speed=0.324000m/h.</desc>
<speed>0.090000</speed>
</trkpt>
<trkpt lat="55.729565" lon="26.243626">
<ele>144.142700</ele>
<time>2010-07-17T10:09:06Z</time>
<desc>lat.=55.729565, lon.=26.243626, Alt.=144.142700m. Speed=0.216000m/h.</desc>
<speed>0.060000</speed>
</trkpt>
<trkpt lat="55.729565" lon="26.243626">
<ele>144.134888</ele>
<time>2010-07-17T10:09:07Z</time>
<desc>lat.=55.729565, lon.=26.243626, Alt.=144.134888m. Speed=0.216000m/h.</desc>
<speed>0.060000</speed>
</trkpt>
<trkpt lat="55.729565" lon="26.243626">
<ele>144.130981</ele>
<time>2010-07-17T10:09:08Z</time>
<desc>lat.=55.729565, lon.=26.243626, Alt.=144.130981m. Speed=0.216000m/h.</desc>
<speed>0.060000</speed>
</trkpt>
<trkpt lat="55.729565" lon="26.243626">
<ele>144.130981</ele>
<time>2010-07-17T10:09:09Z</time>
<desc>lat.=55.729565, lon.=26.243626, Alt.=144.130981m. Speed=0.144000m/h.</desc>
<speed>0.040000</speed>
</trkpt>
<trkpt lat="55.729565" lon="26.243626">
<ele>144.127075</ele>
<time>2010-07-17T10:09:10Z</time>
<desc>lat.=55.729565, lon.=26.243626, Alt.=144.127075m. Speed=0.180000m/h.</desc>
<speed>0.050000</speed>
</trkpt>
<trkpt lat="55.729561" lon="26.243626">
<ele>144.127075</ele>
<time>2010-07-17T10:09:11Z</time>
<desc>lat.=55.729561, lon.=26.243626, Alt.=144.127075m. Speed=0.072000m/h.</desc>
<speed>0.020000</speed>
</trkpt>
<trkpt lat="55.729561" lon="26.243626">
<ele>144.123169</ele>
<time>2010-07-17T10:09:12Z</time>
<desc>lat.=55.729561, lon.=26.243626, Alt.=144.123169m. Speed=0.144000m/h.</desc>
<speed>0.040000</speed>
</trkpt>
<trkpt lat="55.729561" lon="26.243626">
<ele>144.115356</ele>
<time>2010-07-17T10:09:13Z</time>
<desc>lat.=55.729561, lon.=26.243626, Alt.=144.115356m. Speed=0.036000m/h.</desc>
<speed>0.010000</speed>
</trkpt>
<trkpt lat="55.729561" lon="26.243626">
<ele>144.103638</ele>
<time>2010-07-17T10:09:14Z</time>
<desc>lat.=55.729561, lon.=26.243626, Alt.=144.103638m. Speed=0.108000m/h.</desc>
<speed>0.030000</speed>
</trkpt>
<trkpt lat="55.729561" lon="26.243626">
<ele>144.091919</ele>
<time>2010-07-17T10:09:15Z</time>
<desc>lat.=55.729561, lon.=26.243626, Alt.=144.091919m. Speed=0.324000m/h.</desc>
<speed>0.090000</speed>
</trkpt>
<trkpt lat="55.729565" lon="26.243624">
<ele>144.072388</ele>
<time>2010-07-17T10:09:16Z</time>
<desc>lat.=55.729565, lon.=26.243624, Alt.=144.072388m. Speed=0.180000m/h.</desc>
<speed>0.050000</speed>
</trkpt>
<trkpt lat="55.729565" lon="26.243624">
<ele>144.068481</ele>
<time>2010-07-17T10:09:17Z</time>
<desc>lat.=55.729565, lon.=26.243624, Alt.=144.068481m. Speed=0.180000m/h.</desc>
<speed>0.050000</speed>
</trkpt>
<trkpt lat="55.729565" lon="26.243624">
<ele>144.068481</ele>
<time>2010-07-17T10:09:18Z</time>
<desc>lat.=55.729565, lon.=26.243624, Alt.=144.068481m. Speed=0.036000m/h.</desc>
<speed>0.010000</speed>
</trkpt>
<trkpt lat="55.729565" lon="26.243624">
<ele>144.068481</ele>
<time>2010-07-17T10:09:19Z</time>
<desc>lat.=55.729565, lon.=26.243624, Alt.=144.068481m. Speed=0.000000m/h.</desc>
<speed>0.000000</speed>
</trkpt>
<trkpt lat="55.729565" lon="26.243624">
<ele>144.068481</ele>
<time>2010-07-17T10:09:20Z</time>
<desc>lat.=55.729565, lon.=26.243624, Alt.=144.068481m. Speed=0.072000m/h.</desc>
<speed>0.020000</speed>
</trkpt>
<trkpt lat="55.729565" lon="26.243624">
<ele>144.068481</ele>
<time>2010-07-17T10:09:21Z</time>
<desc>lat.=55.729565, lon.=26.243624, Alt.=144.068481m. Speed=0.072000m/h.</desc>
<speed>0.020000</speed>
</trkpt>
<trkpt lat="55.729565" lon="26.243624">
<ele>144.072388</ele>
<time>2010-07-17T10:09:22Z</time>
<desc>lat.=55.729565, lon.=26.243624, Alt.=144.072388m. Speed=0.144000m/h.</desc>
<speed>0.040000</speed>
</trkpt>
<trkpt lat="55.729565" lon="26.243624">
<ele>144.068481</ele>
<time>2010-07-17T10:09:23Z</time>
<desc>lat.=55.729565, lon.=26.243624, Alt.=144.068481m. Speed=0.072000m/h.</desc>
<speed>0.020000</speed>
</trkpt>
<trkpt lat="55.729565" lon="26.243624">
<ele>144.072388</ele>
<time>2010-07-17T10:09:24Z</time>
<desc>lat.=55.729565, lon.=26.243624, Alt.=144.072388m. Speed=0.072000m/h.</desc>
<speed>0.020000</speed>
</trkpt>
<trkpt lat="55.729565" lon="26.243624">
<ele>144.076294</ele>
<time>2010-07-17T10:09:25Z</time>
<desc>lat.=55.729565, lon.=26.243624, Alt.=144.076294m. Speed=0.000000m/h.</desc>
<speed>0.000000</speed>
</trkpt>
<trkpt lat="55.729565" lon="26.243624">
<ele>144.076294</ele>
<time>2010-07-17T10:09:26Z</time>
<desc>lat.=55.729565, lon.=26.243624, Alt.=144.076294m. Speed=0.036000m/h.</desc>
<speed>0.010000</speed>
</trkpt>
<trkpt lat="55.729565" lon="26.243624">
<ele>144.076294</ele>
<time>2010-07-17T10:09:27Z</time>
<desc>lat.=55.729565, lon.=26.243624, Alt.=144.076294m. Speed=0.108000m/h.</desc>
<speed>0.030000</speed>
</trkpt>
<trkpt lat="55.729565" lon="26.243624">
<ele>144.076294</ele>
<time>2010-07-17T10:09:28Z</time>
<desc>lat.=55.729565, lon.=26.243624, Alt.=144.076294m. Speed=0.036000m/h.</desc>
<speed>0.010000</speed>
</trkpt>
<trkpt lat="55.729565" lon="26.243624">
<ele>144.076294</ele>
<time>2010-07-17T10:09:29Z</time>
<desc>lat.=55.729565, lon.=26.243624, Alt.=144.076294m. Speed=0.072000m/h.</desc>
<speed>0.020000</speed>
</trkpt>
<trkpt lat="55.729565" lon="26.243624">
<ele>144.072388</ele>
<time>2010-07-17T10:09:30Z</time>
<desc>lat.=55.729565, lon.=26.243624, Alt.=144.072388m. Speed=0.108000m/h.</desc>
<speed>0.030000</speed>
</trkpt>
<trkpt lat="55.729565" lon="26.243624">
<ele>144.072388</ele>
<time>2010-07-17T10:09:31Z</time>
<desc>lat.=55.729565, lon.=26.243624, Alt.=144.072388m. Speed=0.000000m/h.</desc>
<speed>0.000000</speed>
</trkpt>
<trkpt lat="55.729565" lon="26.243624">
<ele>144.072388</ele>
<time>2010-07-17T10:09:32Z</time>
<desc>lat.=55.729565, lon.=26.243624, Alt.=144.072388m. Speed=0.000000m/h.</desc>
<speed>0.000000</speed>
</trkpt>
<trkpt lat="55.729565" lon="26.243624">
<ele>144.080200</ele>
<time>2010-07-17T10:09:33Z</time>
<desc>lat.=55.729565, lon.=26.243624, Alt.=144.080200m. Speed=0.036000m/h.</desc>
<speed>0.010000</speed>
</trkpt>
<trkpt lat="55.729565" lon="26.243626">
<ele>144.080200</ele>
<time>2010-07-17T10:09:34Z</time>
<desc>lat.=55.729565, lon.=26.243626, Alt.=144.080200m. Speed=0.000000m/h.</desc>
<speed>0.000000</speed>
</trkpt>
<trkpt lat="55.729565" lon="26.243626">
<ele>144.084106</ele>
<time>2010-07-17T10:09:35Z</time>
<desc>lat.=55.729565, lon.=26.243626, Alt.=144.084106m. Speed=0.036000m/h.</desc>
<speed>0.010000</speed>
</trkpt>
<trkpt lat="55.729565" lon="26.243626">
<ele>144.084106</ele>
<time>2010-07-17T10:09:36Z</time>
<desc>lat.=55.729565, lon.=26.243626, Alt.=144.084106m. Speed=0.036000m/h.</desc>
<speed>0.010000</speed>
</trkpt>
<trkpt lat="55.729565" lon="26.243626">
<ele>144.088013</ele>
<time>2010-07-17T10:09:37Z</time>
<desc>lat.=55.729565, lon.=26.243626, Alt.=144.088013m. Speed=0.036000m/h.</desc>
<speed>0.010000</speed>
</trkpt>
<trkpt lat="55.729565" lon="26.243626">
<ele>144.091919</ele>
<time>2010-07-17T10:09:38Z</time>
<desc>lat.=55.729565, lon.=26.243626, Alt.=144.091919m. Speed=0.036000m/h.</desc>
<speed>0.010000</speed>
</trkpt>
<trkpt lat="55.729565" lon="26.243626">
<ele>144.095825</ele>
<time>2010-07-17T10:09:39Z</time>
<desc>lat.=55.729565, lon.=26.243626, Alt.=144.095825m. Speed=0.000000m/h.</desc>
<speed>0.000000</speed>
</trkpt>
<trkpt lat="55.729565" lon="26.243626">
<ele>144.099731</ele>
<time>2010-07-17T10:09:40Z</time>
<desc>lat.=55.729565, lon.=26.243626, Alt.=144.099731m. Speed=0.000000m/h.</desc>
<speed>0.000000</speed>
</trkpt>
<trkpt lat="55.729565" lon="26.243626">
<ele>144.103638</ele>
<time>2010-07-17T10:09:41Z</time>
<desc>lat.=55.729565, lon.=26.243626, Alt.=144.103638m. Speed=0.036000m/h.</desc>
<speed>0.010000</speed>
</trkpt>
<trkpt lat="55.729565" lon="26.243626">
<ele>144.107544</ele>
<time>2010-07-17T10:09:42Z</time>
<desc>lat.=55.729565, lon.=26.243626, Alt.=144.107544m. Speed=0.036000m/h.</desc>
<speed>0.010000</speed>
</trkpt>
<trkpt lat="55.729565" lon="26.243626">
<ele>144.111450</ele>
<time>2010-07-17T10:09:43Z</time>
<desc>lat.=55.729565, lon.=26.243626, Alt.=144.111450m. Speed=0.000000m/h.</desc>
<speed>0.000000</speed>
</trkpt>
<trkpt lat="55.729565" lon="26.243626">
<ele>144.115356</ele>
<time>2010-07-17T10:09:44Z</time>
<desc>lat.=55.729565, lon.=26.243626, Alt.=144.115356m. Speed=0.000000m/h.</desc>
<speed>0.000000</speed>
</trkpt>
<trkpt lat="55.729565" lon="26.243626">
<ele>144.115356</ele>
<time>2010-07-17T10:09:45Z</time>
<desc>lat.=55.729565, lon.=26.243626, Alt.=144.115356m. Speed=0.072000m/h.</desc>
<speed>0.020000</speed>
</trkpt>
<trkpt lat="55.729565" lon="26.243626">
<ele>144.119263</ele>
<time>2010-07-17T10:09:46Z</time>
<desc>lat.=55.729565, lon.=26.243626, Alt.=144.119263m. Speed=0.072000m/h.</desc>
<speed>0.020000</speed>
</trkpt>
<trkpt lat="55.729565" lon="26.243626">
<ele>144.123169</ele>
<time>2010-07-17T10:09:47Z</time>
<desc>lat.=55.729565, lon.=26.243626, Alt.=144.123169m. Speed=0.036000m/h.</desc>
<speed>0.010000</speed>
</trkpt>
<trkpt lat="55.729565" lon="26.243626">
<ele>144.127075</ele>
<time>2010-07-17T10:09:48Z</time>
<desc>lat.=55.729565, lon.=26.243626, Alt.=144.127075m. Speed=0.072000m/h.</desc>
<speed>0.020000</speed>
</trkpt>
<trkpt lat="55.729565" lon="26.243626">
<ele>144.134888</ele>
<time>2010-07-17T10:09:49Z</time>
<desc>lat.=55.729565, lon.=26.243626, Alt.=144.134888m. Speed=0.072000m/h.</desc>
<speed>0.020000</speed>
</trkpt>
<trkpt lat="55.729565" lon="26.243626">
<ele>144.146606</ele>
<time>2010-07-17T10:09:50Z</time>
<desc>lat.=55.729565, lon.=26.243626, Alt.=144.146606m. Speed=0.072000m/h.</desc>
<speed>0.020000</speed>
</trkpt>
<trkpt lat="55.729565" lon="26.243626">
<ele>144.142700</ele>
<time>2010-07-17T10:09:51Z</time>
<desc>lat.=55.729565, lon.=26.243626, Alt.=144.142700m. Speed=0.000000m/h.</desc>
<speed>0.000000</speed>
</trkpt>
<trkpt lat="55.729565" lon="26.243626">
<ele>144.150513</ele>
<time>2010-07-17T10:09:52Z</time>
<desc>lat.=55.729565, lon.=26.243626, Alt.=144.150513m. Speed=0.000000m/h.</desc>
<speed>0.000000</speed>
</trkpt>
<trkpt lat="55.729565" lon="26.243626">
<ele>144.158325</ele>
<time>2010-07-17T10:09:53Z</time>
<desc>lat.=55.729565, lon.=26.243626, Alt.=144.158325m. Speed=0.072000m/h.</desc>
<speed>0.020000</speed>
</trkpt>
<trkpt lat="55.729565" lon="26.243626">
<ele>144.166138</ele>
<time>2010-07-17T10:09:54Z</time>
<desc>lat.=55.729565, lon.=26.243626, Alt.=144.166138m. Speed=0.036000m/h.</desc>
<speed>0.010000</speed>
</trkpt>
<trkpt lat="55.729565" lon="26.243626">
<ele>144.173950</ele>
<time>2010-07-17T10:09:55Z</time>
<desc>lat.=55.729565, lon.=26.243626, Alt.=144.173950m. Speed=0.000000m/h.</desc>
<speed>0.000000</speed>
</trkpt>
<trkpt lat="55.729565" lon="26.243626">
<ele>144.181763</ele>
<time>2010-07-17T10:09:56Z</time>
<desc>lat.=55.729565, lon.=26.243626, Alt.=144.181763m. Speed=0.072000m/h.</desc>
<speed>0.020000</speed>
</trkpt>
<trkpt lat="55.729565" lon="26.243626">
<ele>144.177856</ele>
<time>2010-07-17T10:09:57Z</time>
<desc>lat.=55.729565, lon.=26.243626, Alt.=144.177856m. Speed=0.036000m/h.</desc>
<speed>0.010000</speed>
</trkpt>
<trkpt lat="55.729565" lon="26.243628">
<ele>144.177856</ele>
<time>2010-07-17T10:09:58Z</time>
<desc>lat.=55.729565, lon.=26.243628, Alt.=144.177856m. Speed=0.072000m/h.</desc>
<speed>0.020000</speed>
</trkpt>
<trkpt lat="55.729565" lon="26.243628">
<ele>144.177856</ele>
<time>2010-07-17T10:09:59Z</time>
<desc>lat.=55.729565, lon.=26.243628, Alt.=144.177856m. Speed=0.000000m/h.</desc>
<speed>0.000000</speed>
</trkpt>
<trkpt lat="55.729565" lon="26.243628">
<ele>144.181763</ele>
<time>2010-07-17T10:10:00Z</time>
<desc>lat.=55.729565, lon.=26.243628, Alt.=144.181763m. Speed=0.072000m/h.</desc>
<speed>0.020000</speed>
</trkpt>
<trkpt lat="55.729565" lon="26.243628">
<ele>144.185669</ele>
<time>2010-07-17T10:10:01Z</time>
<desc>lat.=55.729565, lon.=26.243628, Alt.=144.185669m. Speed=0.000000m/h.</desc>
<speed>0.000000</speed>
</trkpt>
<trkpt lat="55.729565" lon="26.243628">
<ele>144.197388</ele>
<time>2010-07-17T10:10:02Z</time>
<desc>lat.=55.729565, lon.=26.243628, Alt.=144.197388m. Speed=0.036000m/h.</desc>
<speed>0.010000</speed>
</trkpt>
<trkpt lat="55.729565" lon="26.243628">
<ele>144.201294</ele>
<time>2010-07-17T10:10:03Z</time>
<desc>lat.=55.729565, lon.=26.243628, Alt.=144.201294m. Speed=0.000000m/h.</desc>
<speed>0.000000</speed>
</trkpt>
<trkpt lat="55.729565" lon="26.243628">
<ele>144.201294</ele>
<time>2010-07-17T10:10:04Z</time>
<desc>lat.=55.729565, lon.=26.243628, Alt.=144.201294m. Speed=0.000000m/h.</desc>
<speed>0.000000</speed>
</trkpt>
<trkpt lat="55.729565" lon="26.243628">
<ele>144.193481</ele>
<time>2010-07-17T10:10:05Z</time>
<desc>lat.=55.729565, lon.=26.243628, Alt.=144.193481m. Speed=0.000000m/h.</desc>
<speed>0.000000</speed>
</trkpt>
<trkpt lat="55.729565" lon="26.243628">
<ele>144.193481</ele>
<time>2010-07-17T10:10:06Z</time>
<desc>lat.=55.729565, lon.=26.243628, Alt.=144.193481m. Speed=0.036000m/h.</desc>
<speed>0.010000</speed>
</trkpt>
<trkpt lat="55.729565" lon="26.243628">
<ele>144.189575</ele>
<time>2010-07-17T10:10:07Z</time>
<desc>lat.=55.729565, lon.=26.243628, Alt.=144.189575m. Speed=0.000000m/h.</desc>
<speed>0.000000</speed>
</trkpt>
<trkpt lat="55.729565" lon="26.243628">
<ele>144.189575</ele>
<time>2010-07-17T10:10:08Z</time>
<desc>lat.=55.729565, lon.=26.243628, Alt.=144.189575m. Speed=0.036000m/h.</desc>
<speed>0.010000</speed>
</trkpt>
<trkpt lat="55.729565" lon="26.243629">
<ele>144.181763</ele>
<time>2010-07-17T10:10:09Z</time>
<desc>lat.=55.729565, lon.=26.243629, Alt.=144.181763m. Speed=0.072000m/h.</desc>
<speed>0.020000</speed>
</trkpt>
<trkpt lat="55.729565" lon="26.243629">
<ele>144.185669</ele>
<time>2010-07-17T10:10:10Z</time>
<desc>lat.=55.729565, lon.=26.243629, Alt.=144.185669m. Speed=0.072000m/h.</desc>
<speed>0.020000</speed>
</trkpt>
<trkpt lat="55.729565" lon="26.243629">
<ele>144.193481</ele>
<time>2010-07-17T10:10:11Z</time>
<desc>lat.=55.729565, lon.=26.243629, Alt.=144.193481m. Speed=0.072000m/h.</desc>
<speed>0.020000</speed>
</trkpt>
<trkpt lat="55.729565" lon="26.243629">
<ele>144.193481</ele>
<time>2010-07-17T10:10:12Z</time>
<desc>lat.=55.729565, lon.=26.243629, Alt.=144.193481m. Speed=0.000000m/h.</desc>
<speed>0.000000</speed>
</trkpt>
<trkpt lat="55.729565" lon="26.243629">
<ele>144.185669</ele>
<time>2010-07-17T10:10:13Z</time>
<desc>lat.=55.729565, lon.=26.243629, Alt.=144.185669m. Speed=0.072000m/h.</desc>
<speed>0.020000</speed>
</trkpt>
<trkpt lat="55.729565" lon="26.243629">
<ele>144.185669</ele>
<time>2010-07-17T10:10:14Z</time>
<desc>lat.=55.729565, lon.=26.243629, Alt.=144.185669m. Speed=0.036000m/h.</desc>
<speed>0.010000</speed>
</trkpt>
<trkpt lat="55.729565" lon="26.243629">
<ele>144.181763</ele>
<time>2010-07-17T10:10:15Z</time>
<desc>lat.=55.729565, lon.=26.243629, Alt.=144.181763m. Speed=0.036000m/h.</desc>
<speed>0.010000</speed>
</trkpt>
<trkpt lat="55.729565" lon="26.243629">
<ele>144.173950</ele>
<time>2010-07-17T10:10:16Z</time>
<desc>lat.=55.729565, lon.=26.243629, Alt.=144.173950m. Speed=0.072000m/h.</desc>
<speed>0.020000</speed>
</trkpt>
<trkpt lat="55.729565" lon="26.243629">
<ele>144.173950</ele>
<time>2010-07-17T10:10:17Z</time>
<desc>lat.=55.729565, lon.=26.243629, Alt.=144.173950m. Speed=0.000000m/h.</desc>
<speed>0.000000</speed>
</trkpt>
<trkpt lat="55.729565" lon="26.243629">
<ele>144.177856</ele>
<time>2010-07-17T10:10:18Z</time>
<desc>lat.=55.729565, lon.=26.243629, Alt.=144.177856m. Speed=0.036000m/h.</desc>
<speed>0.010000</speed>
</trkpt>
<trkpt lat="55.729565" lon="26.243629">
<ele>144.177856</ele>
<time>2010-07-17T10:10:19Z</time>
<desc>lat.=55.729565, lon.=26.243629, Alt.=144.177856m. Speed=0.000000m/h.</desc>
<speed>0.000000</speed>
</trkpt>
<trkpt lat="55.729565" lon="26.243629">
<ele>144.181763</ele>
<time>2010-07-17T10:10:20Z</time>
<desc>lat.=55.729565, lon.=26.243629, Alt.=144.181763m. Speed=0.072000m/h.</desc>
<speed>0.020000</speed>
</trkpt>
<trkpt lat="55.729565" lon="26.243629">
<ele>144.177856</ele>
<time>2010-07-17T10:10:21Z</time>
<desc>lat.=55.729565, lon.=26.243629, Alt.=144.177856m. Speed=0.036000m/h.</desc>
<speed>0.010000</speed>
</trkpt>
<trkpt lat="55.729565" lon="26.243631">
<ele>144.173950</ele>
<time>2010-07-17T10:10:22Z</time>
<desc>lat.=55.729565, lon.=26.243631, Alt.=144.173950m. Speed=0.036000m/h.</desc>
<speed>0.010000</speed>
</trkpt>
<trkpt lat="55.729565" lon="26.243631">
<ele>144.170044</ele>
<time>2010-07-17T10:10:23Z</time>
<desc>lat.=55.729565, lon.=26.243631, Alt.=144.170044m. Speed=0.000000m/h.</desc>
<speed>0.000000</speed>
</trkpt>
<trkpt lat="55.729565" lon="26.243631">
<ele>144.162231</ele>
<time>2010-07-17T10:10:24Z</time>
<desc>lat.=55.729565, lon.=26.243631, Alt.=144.162231m. Speed=0.072000m/h.</desc>
<speed>0.020000</speed>
</trkpt>
<trkpt lat="55.729565" lon="26.243631">
<ele>144.162231</ele>
<time>2010-07-17T10:10:25Z</time>
<desc>lat.=55.729565, lon.=26.243631, Alt.=144.162231m. Speed=0.036000m/h.</desc>
<speed>0.010000</speed>
</trkpt>
<trkpt lat="55.729565" lon="26.243631">
<ele>144.162231</ele>
<time>2010-07-17T10:10:26Z</time>
<desc>lat.=55.729565, lon.=26.243631, Alt.=144.162231m. Speed=0.072000m/h.</desc>
<speed>0.020000</speed>
</trkpt>
<trkpt lat="55.729565" lon="26.243631">
<ele>144.162231</ele>
<time>2010-07-17T10:10:27Z</time>
<desc>lat.=55.729565, lon.=26.243631, Alt.=144.162231m. Speed=0.036000m/h.</desc>
<speed>0.010000</speed>
</trkpt>
<trkpt lat="55.729565" lon="26.243631">
<ele>144.162231</ele>
<time>2010-07-17T10:10:28Z</time>
<desc>lat.=55.729565, lon.=26.243631, Alt.=144.162231m. Speed=0.036000m/h.</desc>
<speed>0.010000</speed>
</trkpt>
<trkpt lat="55.729565" lon="26.243631">
<ele>144.162231</ele>
<time>2010-07-17T10:10:29Z</time>
<desc>lat.=55.729565, lon.=26.243631, Alt.=144.162231m. Speed=0.072000m/h.</desc>
<speed>0.020000</speed>
</trkpt>
<trkpt lat="55.729565" lon="26.243631">
<ele>144.166138</ele>
<time>2010-07-17T10:10:30Z</time>
<desc>lat.=55.729565, lon.=26.243631, Alt.=144.166138m. Speed=0.000000m/h.</desc>
<speed>0.000000</speed>
</trkpt>
<trkpt lat="55.729565" lon="26.243631">
<ele>144.158325</ele>
<time>2010-07-17T10:10:31Z</time>
<desc>lat.=55.729565, lon.=26.243631, Alt.=144.158325m. Speed=0.000000m/h.</desc>
<speed>0.000000</speed>
</trkpt>
<trkpt lat="55.729565" lon="26.243631">
<ele>144.158325</ele>
<time>2010-07-17T10:10:32Z</time>
<desc>lat.=55.729565, lon.=26.243631, Alt.=144.158325m. Speed=0.036000m/h.</desc>
<speed>0.010000</speed>
</trkpt>
<trkpt lat="55.729565" lon="26.243631">
<ele>144.162231</ele>
<time>2010-07-17T10:10:33Z</time>
<desc>lat.=55.729565, lon.=26.243631, Alt.=144.162231m. Speed=0.036000m/h.</desc>
<speed>0.010000</speed>
</trkpt>
<trkpt lat="55.729565" lon="26.243631">
<ele>144.154419</ele>
<time>2010-07-17T10:10:34Z</time>
<desc>lat.=55.729565, lon.=26.243631, Alt.=144.154419m. Speed=0.108000m/h.</desc>
<speed>0.030000</speed>
</trkpt>
<trkpt lat="55.729565" lon="26.243631">
<ele>144.150513</ele>
<time>2010-07-17T10:10:35Z</time>
<desc>lat.=55.729565, lon.=26.243631, Alt.=144.150513m. Speed=0.000000m/h.</desc>
<speed>0.000000</speed>
</trkpt>
<trkpt lat="55.729565" lon="26.243631">
<ele>144.150513</ele>
<time>2010-07-17T10:10:36Z</time>
<desc>lat.=55.729565, lon.=26.243631, Alt.=144.150513m. Speed=0.108000m/h.</desc>
<speed>0.030000</speed>
</trkpt>
<trkpt lat="55.729565" lon="26.243631">
<ele>144.142700</ele>
<time>2010-07-17T10:10:37Z</time>
<desc>lat.=55.729565, lon.=26.243631, Alt.=144.142700m. Speed=0.000000m/h.</desc>
<speed>0.000000</speed>
</trkpt>
<trkpt lat="55.729565" lon="26.243631">
<ele>144.142700</ele>
<time>2010-07-17T10:10:38Z</time>
<desc>lat.=55.729565, lon.=26.243631, Alt.=144.142700m. Speed=0.000000m/h.</desc>
<speed>0.000000</speed>
</trkpt>
<trkpt lat="55.729565" lon="26.243631">
<ele>144.146606</ele>
<time>2010-07-17T10:10:39Z</time>
<desc>lat.=55.729565, lon.=26.243631, Alt.=144.146606m. Speed=0.000000m/h.</desc>
<speed>0.000000</speed>
</trkpt>
<trkpt lat="55.729565" lon="26.243631">
<ele>144.146606</ele>
<time>2010-07-17T10:10:40Z</time>
<desc>lat.=55.729565, lon.=26.243631, Alt.=144.146606m. Speed=0.036000m/h.</desc>
<speed>0.010000</speed>
</trkpt>
<trkpt lat="55.729565" lon="26.243631">
<ele>144.150513</ele>
<time>2010-07-17T10:10:41Z</time>
<desc>lat.=55.729565, lon.=26.243631, Alt.=144.150513m. Speed=0.036000m/h.</desc>
<speed>0.010000</speed>
</trkpt>
<trkpt lat="55.729565" lon="26.243631">
<ele>144.154419</ele>
<time>2010-07-17T10:10:42Z</time>
<desc>lat.=55.729565, lon.=26.243631, Alt.=144.154419m. Speed=0.000000m/h.</desc>
<speed>0.000000</speed>
</trkpt>
<trkpt lat="55.729565" lon="26.243631">
<ele>144.158325</ele>
<time>2010-07-17T10:10:43Z</time>
<desc>lat.=55.729565, lon.=26.243631, Alt.=144.158325m. Speed=0.000000m/h.</desc>
<speed>0.000000</speed>
</trkpt>
<trkpt lat="55.729565" lon="26.243631">
<ele>144.158325</ele>
<time>2010-07-17T10:10:44Z</time>
<desc>lat.=55.729565, lon.=26.243631, Alt.=144.158325m. Speed=0.000000m/h.</desc>
<speed>0.000000</speed>
</trkpt>
<trkpt lat="55.729565" lon="26.243631">
<ele>144.162231</ele>
<time>2010-07-17T10:10:45Z</time>
<desc>lat.=55.729565, lon.=26.243631, Alt.=144.162231m. Speed=0.000000m/h.</desc>
<speed>0.000000</speed>
</trkpt>
<trkpt lat="55.729565" lon="26.243631">
<ele>144.166138</ele>
<time>2010-07-17T10:10:46Z</time>
<desc>lat.=55.729565, lon.=26.243631, Alt.=144.166138m. Speed=0.000000m/h.</desc>
<speed>0.000000</speed>
</trkpt>
<trkpt lat="55.729565" lon="26.243631">
<ele>144.166138</ele>
<time>2010-07-17T10:10:47Z</time>
<desc>lat.=55.729565, lon.=26.243631, Alt.=144.166138m. Speed=0.036000m/h.</desc>
<speed>0.010000</speed>
</trkpt>
<trkpt lat="55.729565" lon="26.243631">
<ele>144.170044</ele>
<time>2010-07-17T10:10:48Z</time>
<desc>lat.=55.729565, lon.=26.243631, Alt.=144.170044m. Speed=0.000000m/h.</desc>
<speed>0.000000</speed>
</trkpt>
<trkpt lat="55.729565" lon="26.243631">
<ele>144.170044</ele>
<time>2010-07-17T10:10:49Z</time>
<desc>lat.=55.729565, lon.=26.243631, Alt.=144.170044m. Speed=0.036000m/h.</desc>
<speed>0.010000</speed>
</trkpt>
<trkpt lat="55.729565" lon="26.243631">
<ele>144.170044</ele>
<time>2010-07-17T10:10:50Z</time>
<desc>lat.=55.729565, lon.=26.243631, Alt.=144.170044m. Speed=0.000000m/h.</desc>
<speed>0.000000</speed>
</trkpt>
<trkpt lat="55.729565" lon="26.243631">
<ele>144.170044</ele>
<time>2010-07-17T10:10:51Z</time>
<desc>lat.=55.729565, lon.=26.243631, Alt.=144.170044m. Speed=0.036000m/h.</desc>
<speed>0.010000</speed>
</trkpt>
<trkpt lat="55.729565" lon="26.243631">
<ele>144.170044</ele>
<time>2010-07-17T10:10:52Z</time>
<desc>lat.=55.729565, lon.=26.243631, Alt.=144.170044m. Speed=0.036000m/h.</desc>
<speed>0.010000</speed>
</trkpt>
<trkpt lat="55.729565" lon="26.243631">
<ele>144.173950</ele>
<time>2010-07-17T10:10:53Z</time>
<desc>lat.=55.729565, lon.=26.243631, Alt.=144.173950m. Speed=0.072000m/h.</desc>
<speed>0.020000</speed>
</trkpt>
<trkpt lat="55.729565" lon="26.243631">
<ele>144.177856</ele>
<time>2010-07-17T10:10:54Z</time>
<desc>lat.=55.729565, lon.=26.243631, Alt.=144.177856m. Speed=0.072000m/h.</desc>
<speed>0.020000</speed>
</trkpt>
<trkpt lat="55.729565" lon="26.243631">
<ele>144.181763</ele>
<time>2010-07-17T10:10:55Z</time>
<desc>lat.=55.729565, lon.=26.243631, Alt.=144.181763m. Speed=0.036000m/h.</desc>
<speed>0.010000</speed>
</trkpt>
<trkpt lat="55.729565" lon="26.243631">
<ele>144.181763</ele>
<time>2010-07-17T10:10:56Z</time>
<desc>lat.=55.729565, lon.=26.243631, Alt.=144.181763m. Speed=0.072000m/h.</desc>
<speed>0.020000</speed>
</trkpt>
<trkpt lat="55.729565" lon="26.243631">
<ele>144.185669</ele>
<time>2010-07-17T10:10:57Z</time>
<desc>lat.=55.729565, lon.=26.243631, Alt.=144.185669m. Speed=0.036000m/h.</desc>
<speed>0.010000</speed>
</trkpt>
<trkpt lat="55.729565" lon="26.243633">
<ele>144.185669</ele>
<time>2010-07-17T10:10:58Z</time>
<desc>lat.=55.729565, lon.=26.243633, Alt.=144.185669m. Speed=0.072000m/h.</desc>
<speed>0.020000</speed>
</trkpt>
<trkpt lat="55.729565" lon="26.243633">
<ele>144.189575</ele>
<time>2010-07-17T10:10:59Z</time>
<desc>lat.=55.729565, lon.=26.243633, Alt.=144.189575m. Speed=0.072000m/h.</desc>
<speed>0.020000</speed>
</trkpt>
<trkpt lat="55.729565" lon="26.243633">
<ele>144.189575</ele>
<time>2010-07-17T10:11:00Z</time>
<desc>lat.=55.729565, lon.=26.243633, Alt.=144.189575m. Speed=0.072000m/h.</desc>
<speed>0.020000</speed>
</trkpt>
<trkpt lat="55.729565" lon="26.243633">
<ele>144.185669</ele>
<time>2010-07-17T10:11:01Z</time>
<desc>lat.=55.729565, lon.=26.243633, Alt.=144.185669m. Speed=0.000000m/h.</desc>
<speed>0.000000</speed>
</trkpt>
<trkpt lat="55.729565" lon="26.243633">
<ele>144.185669</ele>
<time>2010-07-17T10:11:02Z</time>
<desc>lat.=55.729565, lon.=26.243633, Alt.=144.185669m. Speed=0.000000m/h.</desc>
<speed>0.000000</speed>
</trkpt>
<trkpt lat="55.729565" lon="26.243633">
<ele>144.181763</ele>
<time>2010-07-17T10:11:03Z</time>
<desc>lat.=55.729565, lon.=26.243633, Alt.=144.181763m. Speed=0.072000m/h.</desc>
<speed>0.020000</speed>
</trkpt>
<trkpt lat="55.729565" lon="26.243633">
<ele>144.177856</ele>
<time>2010-07-17T10:11:04Z</time>
<desc>lat.=55.729565, lon.=26.243633, Alt.=144.177856m. Speed=0.072000m/h.</desc>
<speed>0.020000</speed>
</trkpt>
<trkpt lat="55.729565" lon="26.243633">
<ele>144.173950</ele>
<time>2010-07-17T10:11:05Z</time>
<desc>lat.=55.729565, lon.=26.243633, Alt.=144.173950m. Speed=0.108000m/h.</desc>
<speed>0.030000</speed>
</trkpt>
<trkpt lat="55.729565" lon="26.243633">
<ele>144.173950</ele>
<time>2010-07-17T10:11:06Z</time>
<desc>lat.=55.729565, lon.=26.243633, Alt.=144.173950m. Speed=0.072000m/h.</desc>
<speed>0.020000</speed>
</trkpt>
<trkpt lat="55.729565" lon="26.243633">
<ele>144.170044</ele>
<time>2010-07-17T10:11:07Z</time>
<desc>lat.=55.729565, lon.=26.243633, Alt.=144.170044m. Speed=0.072000m/h.</desc>
<speed>0.020000</speed>
</trkpt>
<trkpt lat="55.729565" lon="26.243633">
<ele>144.170044</ele>
<time>2010-07-17T10:11:08Z</time>
<desc>lat.=55.729565, lon.=26.243633, Alt.=144.170044m. Speed=0.072000m/h.</desc>
<speed>0.020000</speed>
</trkpt>
<trkpt lat="55.729565" lon="26.243633">
<ele>144.166138</ele>
<time>2010-07-17T10:11:09Z</time>
<desc>lat.=55.729565, lon.=26.243633, Alt.=144.166138m. Speed=0.216000m/h.</desc>
<speed>0.060000</speed>
</trkpt>
<trkpt lat="55.729565" lon="26.243633">
<ele>144.166138</ele>
<time>2010-07-17T10:11:10Z</time>
<desc>lat.=55.729565, lon.=26.243633, Alt.=144.166138m. Speed=0.072000m/h.</desc>
<speed>0.020000</speed>
</trkpt>
<trkpt lat="55.729565" lon="26.243633">
<ele>144.170044</ele>
<time>2010-07-17T10:11:11Z</time>
<desc>lat.=55.729565, lon.=26.243633, Alt.=144.170044m. Speed=0.036000m/h.</desc>
<speed>0.010000</speed>
</trkpt>
<trkpt lat="55.729565" lon="26.243633">
<ele>144.170044</ele>
<time>2010-07-17T10:11:12Z</time>
<desc>lat.=55.729565, lon.=26.243633, Alt.=144.170044m. Speed=0.036000m/h.</desc>
<speed>0.010000</speed>
</trkpt>
<trkpt lat="55.729565" lon="26.243633">
<ele>144.173950</ele>
<time>2010-07-17T10:11:13Z</time>
<desc>lat.=55.729565, lon.=26.243633, Alt.=144.173950m. Speed=0.036000m/h.</desc>
<speed>0.010000</speed>
</trkpt>
<trkpt lat="55.729565" lon="26.243633">
<ele>144.173950</ele>
<time>2010-07-17T10:11:14Z</time>
<desc>lat.=55.729565, lon.=26.243633, Alt.=144.173950m. Speed=0.036000m/h.</desc>
<speed>0.010000</speed>
</trkpt>
<trkpt lat="55.729565" lon="26.243633">
<ele>144.173950</ele>
<time>2010-07-17T10:11:15Z</time>
<desc>lat.=55.729565, lon.=26.243633, Alt.=144.173950m. Speed=0.036000m/h.</desc>
<speed>0.010000</speed>
</trkpt>
<trkpt lat="55.729565" lon="26.243633">
<ele>144.173950</ele>
<time>2010-07-17T10:11:16Z</time>
<desc>lat.=55.729565, lon.=26.243633, Alt.=144.173950m. Speed=0.036000m/h.</desc>
<speed>0.010000</speed>
</trkpt>
<trkpt lat="55.729565" lon="26.243633">
<ele>144.173950</ele>
<time>2010-07-17T10:11:17Z</time>
<desc>lat.=55.729565, lon.=26.243633, Alt.=144.173950m. Speed=0.036000m/h.</desc>
<speed>0.010000</speed>
</trkpt>
<trkpt lat="55.729565" lon="26.243633">
<ele>144.173950</ele>
<time>2010-07-17T10:11:18Z</time>
<desc>lat.=55.729565, lon.=26.243633, Alt.=144.173950m. Speed=0.036000m/h.</desc>
<speed>0.010000</speed>
</trkpt>
<trkpt lat="55.729565" lon="26.243633">
<ele>144.177856</ele>
<time>2010-07-17T10:11:19Z</time>
<desc>lat.=55.729565, lon.=26.243633, Alt.=144.177856m. Speed=0.036000m/h.</desc>
<speed>0.010000</speed>
</trkpt>
<trkpt lat="55.729565" lon="26.243633">
<ele>144.177856</ele>
<time>2010-07-17T10:11:20Z</time>
<desc>lat.=55.729565, lon.=26.243633, Alt.=144.177856m. Speed=0.036000m/h.</desc>
<speed>0.010000</speed>
</trkpt>
<trkpt lat="55.729565" lon="26.243633">
<ele>144.181763</ele>
<time>2010-07-17T10:11:21Z</time>
<desc>lat.=55.729565, lon.=26.243633, Alt.=144.181763m. Speed=0.036000m/h.</desc>
<speed>0.010000</speed>
</trkpt>
<trkpt lat="55.729565" lon="26.243633">
<ele>144.189575</ele>
<time>2010-07-17T10:11:22Z</time>
<desc>lat.=55.729565, lon.=26.243633, Alt.=144.189575m. Speed=0.072000m/h.</desc>
<speed>0.020000</speed>
</trkpt>
<trkpt lat="55.729565" lon="26.243633">
<ele>144.193481</ele>
<time>2010-07-17T10:11:23Z</time>
<desc>lat.=55.729565, lon.=26.243633, Alt.=144.193481m. Speed=0.036000m/h.</desc>
<speed>0.010000</speed>
</trkpt>
<trkpt lat="55.729565" lon="26.243633">
<ele>144.193481</ele>
<time>2010-07-17T10:11:24Z</time>
<desc>lat.=55.729565, lon.=26.243633, Alt.=144.193481m. Speed=0.036000m/h.</desc>
<speed>0.010000</speed>
</trkpt>
<trkpt lat="55.729565" lon="26.243633">
<ele>144.197388</ele>
<time>2010-07-17T10:11:25Z</time>
<desc>lat.=55.729565, lon.=26.243633, Alt.=144.197388m. Speed=0.036000m/h.</desc>
<speed>0.010000</speed>
</trkpt>
<trkpt lat="55.729565" lon="26.243633">
<ele>144.197388</ele>
<time>2010-07-17T10:11:26Z</time>
<desc>lat.=55.729565, lon.=26.243633, Alt.=144.197388m. Speed=0.072000m/h.</desc>
<speed>0.020000</speed>
</trkpt>
<trkpt lat="55.729565" lon="26.243633">
<ele>144.197388</ele>
<time>2010-07-17T10:11:27Z</time>
<desc>lat.=55.729565, lon.=26.243633, Alt.=144.197388m. Speed=0.072000m/h.</desc>
<speed>0.020000</speed>
</trkpt>
<trkpt lat="55.729565" lon="26.243633">
<ele>144.201294</ele>
<time>2010-07-17T10:11:28Z</time>
<desc>lat.=55.729565, lon.=26.243633, Alt.=144.201294m. Speed=0.072000m/h.</desc>
<speed>0.020000</speed>
</trkpt>
<trkpt lat="55.729565" lon="26.243633">
<ele>144.205200</ele>
<time>2010-07-17T10:11:29Z</time>
<desc>lat.=55.729565, lon.=26.243633, Alt.=144.205200m. Speed=0.000000m/h.</desc>
<speed>0.000000</speed>
</trkpt>
<trkpt lat="55.729565" lon="26.243633">
<ele>144.209106</ele>
<time>2010-07-17T10:11:30Z</time>
<desc>lat.=55.729565, lon.=26.243633, Alt.=144.209106m. Speed=0.000000m/h.</desc>
<speed>0.000000</speed>
</trkpt>
<trkpt lat="55.729565" lon="26.243633">
<ele>144.216919</ele>
<time>2010-07-17T10:11:31Z</time>
<desc>lat.=55.729565, lon.=26.243633, Alt.=144.216919m. Speed=0.036000m/h.</desc>
<speed>0.010000</speed>
</trkpt>
<trkpt lat="55.729565" lon="26.243633">
<ele>144.220825</ele>
<time>2010-07-17T10:11:32Z</time>
<desc>lat.=55.729565, lon.=26.243633, Alt.=144.220825m. Speed=0.072000m/h.</desc>
<speed>0.020000</speed>
</trkpt>
<trkpt lat="55.729565" lon="26.243633">
<ele>144.224731</ele>
<time>2010-07-17T10:11:33Z</time>
<desc>lat.=55.729565, lon.=26.243633, Alt.=144.224731m. Speed=0.072000m/h.</desc>
<speed>0.020000</speed>
</trkpt>
<trkpt lat="55.729565" lon="26.243633">
<ele>144.224731</ele>
<time>2010-07-17T10:11:34Z</time>
<desc>lat.=55.729565, lon.=26.243633, Alt.=144.224731m. Speed=0.108000m/h.</desc>
<speed>0.030000</speed>
</trkpt>
<trkpt lat="55.729565" lon="26.243633">
<ele>144.224731</ele>
<time>2010-07-17T10:11:35Z</time>
<desc>lat.=55.729565, lon.=26.243633, Alt.=144.224731m. Speed=0.072000m/h.</desc>
<speed>0.020000</speed>
</trkpt>
<trkpt lat="55.729565" lon="26.243633">
<ele>144.224731</ele>
<time>2010-07-17T10:11:36Z</time>
<desc>lat.=55.729565, lon.=26.243633, Alt.=144.224731m. Speed=0.072000m/h.</desc>
<speed>0.020000</speed>
</trkpt>
<trkpt lat="55.729565" lon="26.243633">
<ele>144.224731</ele>
<time>2010-07-17T10:11:37Z</time>
<desc>lat.=55.729565, lon.=26.243633, Alt.=144.224731m. Speed=0.000000m/h.</desc>
<speed>0.000000</speed>
</trkpt>
<trkpt lat="55.729565" lon="26.243633">
<ele>144.224731</ele>
<time>2010-07-17T10:11:38Z</time>
<desc>lat.=55.729565, lon.=26.243633, Alt.=144.224731m. Speed=0.000000m/h.</desc>
<speed>0.000000</speed>
</trkpt>
<trkpt lat="55.729565" lon="26.243633">
<ele>144.228638</ele>
<time>2010-07-17T10:11:39Z</time>
<desc>lat.=55.729565, lon.=26.243633, Alt.=144.228638m. Speed=0.036000m/h.</desc>
<speed>0.010000</speed>
</trkpt>
<trkpt lat="55.729565" lon="26.243633">
<ele>144.228638</ele>
<time>2010-07-17T10:11:40Z</time>
<desc>lat.=55.729565, lon.=26.243633, Alt.=144.228638m. Speed=0.000000m/h.</desc>
<speed>0.000000</speed>
</trkpt>
<trkpt lat="55.729565" lon="26.243633">
<ele>144.228638</ele>
<time>2010-07-17T10:11:41Z</time>
<desc>lat.=55.729565, lon.=26.243633, Alt.=144.228638m. Speed=0.072000m/h.</desc>
<speed>0.020000</speed>
</trkpt>
<trkpt lat="55.729565" lon="26.243633">
<ele>144.232544</ele>
<time>2010-07-17T10:11:42Z</time>
<desc>lat.=55.729565, lon.=26.243633, Alt.=144.232544m. Speed=0.036000m/h.</desc>
<speed>0.010000</speed>
</trkpt>
<trkpt lat="55.729565" lon="26.243633">
<ele>144.232544</ele>
<time>2010-07-17T10:11:43Z</time>
<desc>lat.=55.729565, lon.=26.243633, Alt.=144.232544m. Speed=0.072000m/h.</desc>
<speed>0.020000</speed>
</trkpt>
<trkpt lat="55.729565" lon="26.243633">
<ele>144.236450</ele>
<time>2010-07-17T10:11:44Z</time>
<desc>lat.=55.729565, lon.=26.243633, Alt.=144.236450m. Speed=0.072000m/h.</desc>
<speed>0.020000</speed>
</trkpt>
<trkpt lat="55.729565" lon="26.243633">
<ele>144.236450</ele>
<time>2010-07-17T10:11:45Z</time>
<desc>lat.=55.729565, lon.=26.243633, Alt.=144.236450m. Speed=0.072000m/h.</desc>
<speed>0.020000</speed>
</trkpt>
<trkpt lat="55.729565" lon="26.243633">
<ele>144.240356</ele>
<time>2010-07-17T10:11:46Z</time>
<desc>lat.=55.729565, lon.=26.243633, Alt.=144.240356m. Speed=0.036000m/h.</desc>
<speed>0.010000</speed>
</trkpt>
<trkpt lat="55.729565" lon="26.243633">
<ele>144.240356</ele>
<time>2010-07-17T10:11:47Z</time>
<desc>lat.=55.729565, lon.=26.243633, Alt.=144.240356m. Speed=0.000000m/h.</desc>
<speed>0.000000</speed>
</trkpt>
<trkpt lat="55.729565" lon="26.243633">
<ele>144.244263</ele>
<time>2010-07-17T10:11:48Z</time>
<desc>lat.=55.729565, lon.=26.243633, Alt.=144.244263m. Speed=0.072000m/h.</desc>
<speed>0.020000</speed>
</trkpt>
<trkpt lat="55.729565" lon="26.243633">
<ele>144.244263</ele>
<time>2010-07-17T10:11:49Z</time>
<desc>lat.=55.729565, lon.=26.243633, Alt.=144.244263m. Speed=0.072000m/h.</desc>
<speed>0.020000</speed>
</trkpt>
<trkpt lat="55.729565" lon="26.243633">
<ele>144.240356</ele>
<time>2010-07-17T10:11:50Z</time>
<desc>lat.=55.729565, lon.=26.243633, Alt.=144.240356m. Speed=0.108000m/h.</desc>
<speed>0.030000</speed>
</trkpt>
<trkpt lat="55.729565" lon="26.243633">
<ele>144.232544</ele>
<time>2010-07-17T10:11:51Z</time>
<desc>lat.=55.729565, lon.=26.243633, Alt.=144.232544m. Speed=0.216000m/h.</desc>
<speed>0.060000</speed>
</trkpt>
<trkpt lat="55.729565" lon="26.243633">
<ele>144.232544</ele>
<time>2010-07-17T10:11:52Z</time>
<desc>lat.=55.729565, lon.=26.243633, Alt.=144.232544m. Speed=0.000000m/h.</desc>
<speed>0.000000</speed>
</trkpt>
<trkpt lat="55.729565" lon="26.243633">
<ele>144.228638</ele>
<time>2010-07-17T10:11:53Z</time>
<desc>lat.=55.729565, lon.=26.243633, Alt.=144.228638m. Speed=0.036000m/h.</desc>
<speed>0.010000</speed>
</trkpt>
<trkpt lat="55.729565" lon="26.243635">
<ele>144.228638</ele>
<time>2010-07-17T10:11:54Z</time>
<desc>lat.=55.729565, lon.=26.243635, Alt.=144.228638m. Speed=0.000000m/h.</desc>
<speed>0.000000</speed>
</trkpt>
<trkpt lat="55.729565" lon="26.243635">
<ele>144.232544</ele>
<time>2010-07-17T10:11:55Z</time>
<desc>lat.=55.729565, lon.=26.243635, Alt.=144.232544m. Speed=0.036000m/h.</desc>
<speed>0.010000</speed>
</trkpt>
<trkpt lat="55.729565" lon="26.243635">
<ele>144.228638</ele>
<time>2010-07-17T10:11:56Z</time>
<desc>lat.=55.729565, lon.=26.243635, Alt.=144.228638m. Speed=0.036000m/h.</desc>
<speed>0.010000</speed>
</trkpt>
<trkpt lat="55.729565" lon="26.243635">
<ele>144.224731</ele>
<time>2010-07-17T10:11:57Z</time>
<desc>lat.=55.729565, lon.=26.243635, Alt.=144.224731m. Speed=0.036000m/h.</desc>
<speed>0.010000</speed>
</trkpt>
<trkpt lat="55.729565" lon="26.243635">
<ele>144.228638</ele>
<time>2010-07-17T10:11:58Z</time>
<desc>lat.=55.729565, lon.=26.243635, Alt.=144.228638m. Speed=0.036000m/h.</desc>
<speed>0.010000</speed>
</trkpt>
<trkpt lat="55.729565" lon="26.243635">
<ele>144.228638</ele>
<time>2010-07-17T10:11:59Z</time>
<desc>lat.=55.729565, lon.=26.243635, Alt.=144.228638m. Speed=0.036000m/h.</desc>
<speed>0.010000</speed>
</trkpt>
<trkpt lat="55.729565" lon="26.243635">
<ele>144.228638</ele>
<time>2010-07-17T10:12:00Z</time>
<desc>lat.=55.729565, lon.=26.243635, Alt.=144.228638m. Speed=0.000000m/h.</desc>
<speed>0.000000</speed>
</trkpt>
<trkpt lat="55.729565" lon="26.243635">
<ele>144.232544</ele>
<time>2010-07-17T10:12:01Z</time>
<desc>lat.=55.729565, lon.=26.243635, Alt.=144.232544m. Speed=0.036000m/h.</desc>
<speed>0.010000</speed>
</trkpt>
<trkpt lat="55.729565" lon="26.243635">
<ele>144.232544</ele>
<time>2010-07-17T10:12:02Z</time>
<desc>lat.=55.729565, lon.=26.243635, Alt.=144.232544m. Speed=0.072000m/h.</desc>
<speed>0.020000</speed>
</trkpt>
<trkpt lat="55.729565" lon="26.243635">
<ele>144.232544</ele>
<time>2010-07-17T10:12:03Z</time>
<desc>lat.=55.729565, lon.=26.243635, Alt.=144.232544m. Speed=0.072000m/h.</desc>
<speed>0.020000</speed>
</trkpt>
<trkpt lat="55.729565" lon="26.243635">
<ele>144.228638</ele>
<time>2010-07-17T10:12:04Z</time>
<desc>lat.=55.729565, lon.=26.243635, Alt.=144.228638m. Speed=0.108000m/h.</desc>
<speed>0.030000</speed>
</trkpt>
<trkpt lat="55.729565" lon="26.243635">
<ele>144.220825</ele>
<time>2010-07-17T10:12:05Z</time>
<desc>lat.=55.729565, lon.=26.243635, Alt.=144.220825m. Speed=0.072000m/h.</desc>
<speed>0.020000</speed>
</trkpt>
<trkpt lat="55.729565" lon="26.243635">
<ele>144.216919</ele>
<time>2010-07-17T10:12:06Z</time>
<desc>lat.=55.729565, lon.=26.243635, Alt.=144.216919m. Speed=0.000000m/h.</desc>
<speed>0.000000</speed>
</trkpt>
<trkpt lat="55.729565" lon="26.243635">
<ele>144.220825</ele>
<time>2010-07-17T10:12:07Z</time>
<desc>lat.=55.729565, lon.=26.243635, Alt.=144.220825m. Speed=0.072000m/h.</desc>
<speed>0.020000</speed>
</trkpt>
<trkpt lat="55.729565" lon="26.243635">
<ele>144.216919</ele>
<time>2010-07-17T10:12:08Z</time>
<desc>lat.=55.729565, lon.=26.243635, Alt.=144.216919m. Speed=0.036000m/h.</desc>
<speed>0.010000</speed>
</trkpt>
<trkpt lat="55.729565" lon="26.243635">
<ele>144.216919</ele>
<time>2010-07-17T10:12:09Z</time>
<desc>lat.=55.729565, lon.=26.243635, Alt.=144.216919m. Speed=0.036000m/h.</desc>
<speed>0.010000</speed>
</trkpt>
<trkpt lat="55.729565" lon="26.243635">
<ele>144.209106</ele>
<time>2010-07-17T10:12:10Z</time>
<desc>lat.=55.729565, lon.=26.243635, Alt.=144.209106m. Speed=0.036000m/h.</desc>
<speed>0.010000</speed>
</trkpt>
<trkpt lat="55.729565" lon="26.243633">
<ele>144.205200</ele>
<time>2010-07-17T10:12:11Z</time>
<desc>lat.=55.729565, lon.=26.243633, Alt.=144.205200m. Speed=0.036000m/h.</desc>
<speed>0.010000</speed>
</trkpt>
<trkpt lat="55.729565" lon="26.243633">
<ele>144.197388</ele>
<time>2010-07-17T10:12:12Z</time>
<desc>lat.=55.729565, lon.=26.243633, Alt.=144.197388m. Speed=0.000000m/h.</desc>
<speed>0.000000</speed>
</trkpt>
<trkpt lat="55.729565" lon="26.243633">
<ele>144.197388</ele>
<time>2010-07-17T10:12:13Z</time>
<desc>lat.=55.729565, lon.=26.243633, Alt.=144.197388m. Speed=0.000000m/h.</desc>
<speed>0.000000</speed>
</trkpt>
<trkpt lat="55.729565" lon="26.243633">
<ele>144.189575</ele>
<time>2010-07-17T10:12:14Z</time>
<desc>lat.=55.729565, lon.=26.243633, Alt.=144.189575m. Speed=0.036000m/h.</desc>
<speed>0.010000</speed>
</trkpt>
<trkpt lat="55.729565" lon="26.243633">
<ele>144.185669</ele>
<time>2010-07-17T10:12:15Z</time>
<desc>lat.=55.729565, lon.=26.243633, Alt.=144.185669m. Speed=0.036000m/h.</desc>
<speed>0.010000</speed>
</trkpt>
<trkpt lat="55.729565" lon="26.243633">
<ele>144.177856</ele>
<time>2010-07-17T10:12:16Z</time>
<desc>lat.=55.729565, lon.=26.243633, Alt.=144.177856m. Speed=0.036000m/h.</desc>
<speed>0.010000</speed>
</trkpt>
<trkpt lat="55.729565" lon="26.243633">
<ele>144.177856</ele>
<time>2010-07-17T10:12:17Z</time>
<desc>lat.=55.729565, lon.=26.243633, Alt.=144.177856m. Speed=0.000000m/h.</desc>
<speed>0.000000</speed>
</trkpt>
<trkpt lat="55.729565" lon="26.243633">
<ele>144.173950</ele>
<time>2010-07-17T10:12:18Z</time>
<desc>lat.=55.729565, lon.=26.243633, Alt.=144.173950m. Speed=0.072000m/h.</desc>
<speed>0.020000</speed>
</trkpt>
<trkpt lat="55.729568" lon="26.243633">
<ele>144.170044</ele>
<time>2010-07-17T10:12:19Z</time>
<desc>lat.=55.729568, lon.=26.243633, Alt.=144.170044m. Speed=0.036000m/h.</desc>
<speed>0.010000</speed>
</trkpt>
<trkpt lat="55.729568" lon="26.243633">
<ele>144.166138</ele>
<time>2010-07-17T10:12:20Z</time>
<desc>lat.=55.729568, lon.=26.243633, Alt.=144.166138m. Speed=0.036000m/h.</desc>
<speed>0.010000</speed>
</trkpt>
<trkpt lat="55.729568" lon="26.243633">
<ele>144.166138</ele>
<time>2010-07-17T10:12:21Z</time>
<desc>lat.=55.729568, lon.=26.243633, Alt.=144.166138m. Speed=0.036000m/h.</desc>
<speed>0.010000</speed>
</trkpt>
<trkpt lat="55.729568" lon="26.243633">
<ele>144.166138</ele>
<time>2010-07-17T10:12:22Z</time>
<desc>lat.=55.729568, lon.=26.243633, Alt.=144.166138m. Speed=0.036000m/h.</desc>
<speed>0.010000</speed>
</trkpt>
<trkpt lat="55.729568" lon="26.243633">
<ele>144.170044</ele>
<time>2010-07-17T10:12:23Z</time>
<desc>lat.=55.729568, lon.=26.243633, Alt.=144.170044m. Speed=0.036000m/h.</desc>
<speed>0.010000</speed>
</trkpt>
<trkpt lat="55.729568" lon="26.243633">
<ele>144.170044</ele>
<time>2010-07-17T10:12:24Z</time>
<desc>lat.=55.729568, lon.=26.243633, Alt.=144.170044m. Speed=0.000000m/h.</desc>
<speed>0.000000</speed>
</trkpt>
<trkpt lat="55.729568" lon="26.243633">
<ele>144.173950</ele>
<time>2010-07-17T10:12:25Z</time>
<desc>lat.=55.729568, lon.=26.243633, Alt.=144.173950m. Speed=0.000000m/h.</desc>
<speed>0.000000</speed>
</trkpt>
<trkpt lat="55.729568" lon="26.243633">
<ele>144.177856</ele>
<time>2010-07-17T10:12:26Z</time>
<desc>lat.=55.729568, lon.=26.243633, Alt.=144.177856m. Speed=0.000000m/h.</desc>
<speed>0.000000</speed>
</trkpt>
<trkpt lat="55.729568" lon="26.243633">
<ele>144.177856</ele>
<time>2010-07-17T10:12:27Z</time>
<desc>lat.=55.729568, lon.=26.243633, Alt.=144.177856m. Speed=0.036000m/h.</desc>
<speed>0.010000</speed>
</trkpt>
<trkpt lat="55.729568" lon="26.243633">
<ele>144.181763</ele>
<time>2010-07-17T10:12:28Z</time>
<desc>lat.=55.729568, lon.=26.243633, Alt.=144.181763m. Speed=0.036000m/h.</desc>
<speed>0.010000</speed>
</trkpt>
<trkpt lat="55.729568" lon="26.243633">
<ele>144.181763</ele>
<time>2010-07-17T10:12:29Z</time>
<desc>lat.=55.729568, lon.=26.243633, Alt.=144.181763m. Speed=0.036000m/h.</desc>
<speed>0.010000</speed>
</trkpt>
<trkpt lat="55.729568" lon="26.243633">
<ele>144.181763</ele>
<time>2010-07-17T10:12:30Z</time>
<desc>lat.=55.729568, lon.=26.243633, Alt.=144.181763m. Speed=0.036000m/h.</desc>
<speed>0.010000</speed>
</trkpt>
<trkpt lat="55.729568" lon="26.243633">
<ele>144.185669</ele>
<time>2010-07-17T10:12:31Z</time>
<desc>lat.=55.729568, lon.=26.243633, Alt.=144.185669m. Speed=0.072000m/h.</desc>
<speed>0.020000</speed>
</trkpt>
<trkpt lat="55.729568" lon="26.243633">
<ele>144.181763</ele>
<time>2010-07-17T10:12:32Z</time>
<desc>lat.=55.729568, lon.=26.243633, Alt.=144.181763m. Speed=0.072000m/h.</desc>
<speed>0.020000</speed>
</trkpt>
<trkpt lat="55.729568" lon="26.243633">
<ele>144.185669</ele>
<time>2010-07-17T10:12:33Z</time>
<desc>lat.=55.729568, lon.=26.243633, Alt.=144.185669m. Speed=0.072000m/h.</desc>
<speed>0.020000</speed>
</trkpt>
<trkpt lat="55.729568" lon="26.243633">
<ele>144.181763</ele>
<time>2010-07-17T10:12:34Z</time>
<desc>lat.=55.729568, lon.=26.243633, Alt.=144.181763m. Speed=0.108000m/h.</desc>
<speed>0.030000</speed>
</trkpt>
<trkpt lat="55.729568" lon="26.243633">
<ele>144.181763</ele>
<time>2010-07-17T10:12:35Z</time>
<desc>lat.=55.729568, lon.=26.243633, Alt.=144.181763m. Speed=0.072000m/h.</desc>
<speed>0.020000</speed>
</trkpt>
<trkpt lat="55.729568" lon="26.243633">
<ele>144.181763</ele>
<time>2010-07-17T10:12:36Z</time>
<desc>lat.=55.729568, lon.=26.243633, Alt.=144.181763m. Speed=0.072000m/h.</desc>
<speed>0.020000</speed>
</trkpt>
<trkpt lat="55.729568" lon="26.243633">
<ele>144.177856</ele>
<time>2010-07-17T10:12:37Z</time>
<desc>lat.=55.729568, lon.=26.243633, Alt.=144.177856m. Speed=0.036000m/h.</desc>
<speed>0.010000</speed>
</trkpt>
<trkpt lat="55.729568" lon="26.243633">
<ele>144.177856</ele>
<time>2010-07-17T10:12:38Z</time>
<desc>lat.=55.729568, lon.=26.243633, Alt.=144.177856m. Speed=0.000000m/h.</desc>
<speed>0.000000</speed>
</trkpt>
<trkpt lat="55.729568" lon="26.243633">
<ele>144.177856</ele>
<time>2010-07-17T10:12:39Z</time>
<desc>lat.=55.729568, lon.=26.243633, Alt.=144.177856m. Speed=0.036000m/h.</desc>
<speed>0.010000</speed>
</trkpt>
<trkpt lat="55.729568" lon="26.243633">
<ele>144.185669</ele>
<time>2010-07-17T10:12:40Z</time>
<desc>lat.=55.729568, lon.=26.243633, Alt.=144.185669m. Speed=0.036000m/h.</desc>
<speed>0.010000</speed>
</trkpt>
<trkpt lat="55.729568" lon="26.243633">
<ele>144.189575</ele>
<time>2010-07-17T10:12:41Z</time>
<desc>lat.=55.729568, lon.=26.243633, Alt.=144.189575m. Speed=0.072000m/h.</desc>
<speed>0.020000</speed>
</trkpt>
<trkpt lat="55.729568" lon="26.243633">
<ele>144.193481</ele>
<time>2010-07-17T10:12:42Z</time>
<desc>lat.=55.729568, lon.=26.243633, Alt.=144.193481m. Speed=0.108000m/h.</desc>
<speed>0.030000</speed>
</trkpt>
<trkpt lat="55.729568" lon="26.243633">
<ele>144.197388</ele>
<time>2010-07-17T10:12:43Z</time>
<desc>lat.=55.729568, lon.=26.243633, Alt.=144.197388m. Speed=0.072000m/h.</desc>
<speed>0.020000</speed>
</trkpt>
<trkpt lat="55.729568" lon="26.243633">
<ele>144.197388</ele>
<time>2010-07-17T10:12:44Z</time>
<desc>lat.=55.729568, lon.=26.243633, Alt.=144.197388m. Speed=0.108000m/h.</desc>
<speed>0.030000</speed>
</trkpt>
<trkpt lat="55.729568" lon="26.243633">
<ele>144.201294</ele>
<time>2010-07-17T10:12:45Z</time>
<desc>lat.=55.729568, lon.=26.243633, Alt.=144.201294m. Speed=0.036000m/h.</desc>
<speed>0.010000</speed>
</trkpt>
<trkpt lat="55.729568" lon="26.243633">
<ele>144.205200</ele>
<time>2010-07-17T10:12:46Z</time>
<desc>lat.=55.729568, lon.=26.243633, Alt.=144.205200m. Speed=0.072000m/h.</desc>
<speed>0.020000</speed>
</trkpt>
<trkpt lat="55.729568" lon="26.243631">
<ele>144.201294</ele>
<time>2010-07-17T10:12:47Z</time>
<desc>lat.=55.729568, lon.=26.243631, Alt.=144.201294m. Speed=0.000000m/h.</desc>
<speed>0.000000</speed>
</trkpt>
<trkpt lat="55.729568" lon="26.243631">
<ele>144.197388</ele>
<time>2010-07-17T10:12:48Z</time>
<desc>lat.=55.729568, lon.=26.243631, Alt.=144.197388m. Speed=0.000000m/h.</desc>
<speed>0.000000</speed>
</trkpt>
<trkpt lat="55.729568" lon="26.243631">
<ele>144.193481</ele>
<time>2010-07-17T10:12:49Z</time>
<desc>lat.=55.729568, lon.=26.243631, Alt.=144.193481m. Speed=0.036000m/h.</desc>
<speed>0.010000</speed>
</trkpt>
<trkpt lat="55.729568" lon="26.243631">
<ele>144.189575</ele>
<time>2010-07-17T10:12:50Z</time>
<desc>lat.=55.729568, lon.=26.243631, Alt.=144.189575m. Speed=0.072000m/h.</desc>
<speed>0.020000</speed>
</trkpt>
<trkpt lat="55.729568" lon="26.243631">
<ele>144.185669</ele>
<time>2010-07-17T10:12:51Z</time>
<desc>lat.=55.729568, lon.=26.243631, Alt.=144.185669m. Speed=0.036000m/h.</desc>
<speed>0.010000</speed>
</trkpt>
<trkpt lat="55.729568" lon="26.243631">
<ele>144.189575</ele>
<time>2010-07-17T10:12:52Z</time>
<desc>lat.=55.729568, lon.=26.243631, Alt.=144.189575m. Speed=0.108000m/h.</desc>
<speed>0.030000</speed>
</trkpt>
<trkpt lat="55.729568" lon="26.243631">
<ele>144.189575</ele>
<time>2010-07-17T10:12:53Z</time>
<desc>lat.=55.729568, lon.=26.243631, Alt.=144.189575m. Speed=0.000000m/h.</desc>
<speed>0.000000</speed>
</trkpt>
<trkpt lat="55.729568" lon="26.243631">
<ele>144.189575</ele>
<time>2010-07-17T10:12:54Z</time>
<desc>lat.=55.729568, lon.=26.243631, Alt.=144.189575m. Speed=0.000000m/h.</desc>
<speed>0.000000</speed>
</trkpt>
<trkpt lat="55.729568" lon="26.243631">
<ele>144.189575</ele>
<time>2010-07-17T10:12:55Z</time>
<desc>lat.=55.729568, lon.=26.243631, Alt.=144.189575m. Speed=0.072000m/h.</desc>
<speed>0.020000</speed>
</trkpt>
<trkpt lat="55.729568" lon="26.243631">
<ele>144.189575</ele>
<time>2010-07-17T10:12:56Z</time>
<desc>lat.=55.729568, lon.=26.243631, Alt.=144.189575m. Speed=0.036000m/h.</desc>
<speed>0.010000</speed>
</trkpt>
<trkpt lat="55.729568" lon="26.243631">
<ele>144.189575</ele>
<time>2010-07-17T10:12:57Z</time>
<desc>lat.=55.729568, lon.=26.243631, Alt.=144.189575m. Speed=0.072000m/h.</desc>
<speed>0.020000</speed>
</trkpt>
<trkpt lat="55.729568" lon="26.243631">
<ele>144.189575</ele>
<time>2010-07-17T10:12:58Z</time>
<desc>lat.=55.729568, lon.=26.243631, Alt.=144.189575m. Speed=0.036000m/h.</desc>
<speed>0.010000</speed>
</trkpt>
<trkpt lat="55.729568" lon="26.243631">
<ele>144.193481</ele>
<time>2010-07-17T10:12:59Z</time>
<desc>lat.=55.729568, lon.=26.243631, Alt.=144.193481m. Speed=0.000000m/h.</desc>
<speed>0.000000</speed>
</trkpt>
<trkpt lat="55.729568" lon="26.243631">
<ele>144.197388</ele>
<time>2010-07-17T10:13:00Z</time>
<desc>lat.=55.729568, lon.=26.243631, Alt.=144.197388m. Speed=0.072000m/h.</desc>
<speed>0.020000</speed>
</trkpt>
<trkpt lat="55.729568" lon="26.243631">
<ele>144.201294</ele>
<time>2010-07-17T10:13:01Z</time>
<desc>lat.=55.729568, lon.=26.243631, Alt.=144.201294m. Speed=0.108000m/h.</desc>
<speed>0.030000</speed>
</trkpt>
<trkpt lat="55.729568" lon="26.243631">
<ele>144.201294</ele>
<time>2010-07-17T10:13:02Z</time>
<desc>lat.=55.729568, lon.=26.243631, Alt.=144.201294m. Speed=0.036000m/h.</desc>
<speed>0.010000</speed>
</trkpt>
<trkpt lat="55.729568" lon="26.243631">
<ele>144.201294</ele>
<time>2010-07-17T10:13:03Z</time>
<desc>lat.=55.729568, lon.=26.243631, Alt.=144.201294m. Speed=0.000000m/h.</desc>
<speed>0.000000</speed>
</trkpt>
<trkpt lat="55.729568" lon="26.243631">
<ele>144.197388</ele>
<time>2010-07-17T10:13:04Z</time>
<desc>lat.=55.729568, lon.=26.243631, Alt.=144.197388m. Speed=0.000000m/h.</desc>
<speed>0.000000</speed>
</trkpt>
<trkpt lat="55.729568" lon="26.243631">
<ele>144.197388</ele>
<time>2010-07-17T10:13:05Z</time>
<desc>lat.=55.729568, lon.=26.243631, Alt.=144.197388m. Speed=0.072000m/h.</desc>
<speed>0.020000</speed>
</trkpt>
<trkpt lat="55.729568" lon="26.243631">
<ele>144.197388</ele>
<time>2010-07-17T10:13:06Z</time>
<desc>lat.=55.729568, lon.=26.243631, Alt.=144.197388m. Speed=0.000000m/h.</desc>
<speed>0.000000</speed>
</trkpt>
<trkpt lat="55.729568" lon="26.243631">
<ele>144.197388</ele>
<time>2010-07-17T10:13:07Z</time>
<desc>lat.=55.729568, lon.=26.243631, Alt.=144.197388m. Speed=0.000000m/h.</desc>
<speed>0.000000</speed>
</trkpt>
<trkpt lat="55.729568" lon="26.243633">
<ele>144.201294</ele>
<time>2010-07-17T10:13:08Z</time>
<desc>lat.=55.729568, lon.=26.243633, Alt.=144.201294m. Speed=0.000000m/h.</desc>
<speed>0.000000</speed>
</trkpt>
<trkpt lat="55.729568" lon="26.243633">
<ele>144.201294</ele>
<time>2010-07-17T10:13:09Z</time>
<desc>lat.=55.729568, lon.=26.243633, Alt.=144.201294m. Speed=0.000000m/h.</desc>
<speed>0.000000</speed>
</trkpt>
<trkpt lat="55.729568" lon="26.243633">
<ele>144.205200</ele>
<time>2010-07-17T10:13:10Z</time>
<desc>lat.=55.729568, lon.=26.243633, Alt.=144.205200m. Speed=0.036000m/h.</desc>
<speed>0.010000</speed>
</trkpt>
<trkpt lat="55.729568" lon="26.243633">
<ele>144.213013</ele>
<time>2010-07-17T10:13:11Z</time>
<desc>lat.=55.729568, lon.=26.243633, Alt.=144.213013m. Speed=0.036000m/h.</desc>
<speed>0.010000</speed>
</trkpt>
<trkpt lat="55.729568" lon="26.243633">
<ele>144.213013</ele>
<time>2010-07-17T10:13:12Z</time>
<desc>lat.=55.729568, lon.=26.243633, Alt.=144.213013m. Speed=0.036000m/h.</desc>
<speed>0.010000</speed>
</trkpt>
<trkpt lat="55.729568" lon="26.243633">
<ele>144.209106</ele>
<time>2010-07-17T10:13:13Z</time>
<desc>lat.=55.729568, lon.=26.243633, Alt.=144.209106m. Speed=0.144000m/h.</desc>
<speed>0.040000</speed>
</trkpt>
<trkpt lat="55.729568" lon="26.243633">
<ele>144.213013</ele>
<time>2010-07-17T10:13:14Z</time>
<desc>lat.=55.729568, lon.=26.243633, Alt.=144.213013m. Speed=0.036000m/h.</desc>
<speed>0.010000</speed>
</trkpt>
<trkpt lat="55.729568" lon="26.243633">
<ele>144.216919</ele>
<time>2010-07-17T10:13:15Z</time>
<desc>lat.=55.729568, lon.=26.243633, Alt.=144.216919m. Speed=0.072000m/h.</desc>
<speed>0.020000</speed>
</trkpt>
<trkpt lat="55.729568" lon="26.243633">
<ele>144.216919</ele>
<time>2010-07-17T10:13:16Z</time>
<desc>lat.=55.729568, lon.=26.243633, Alt.=144.216919m. Speed=0.072000m/h.</desc>
<speed>0.020000</speed>
</trkpt>
<trkpt lat="55.729568" lon="26.243633">
<ele>144.213013</ele>
<time>2010-07-17T10:13:17Z</time>
<desc>lat.=55.729568, lon.=26.243633, Alt.=144.213013m. Speed=0.144000m/h.</desc>
<speed>0.040000</speed>
</trkpt>
<trkpt lat="55.729568" lon="26.243633">
<ele>144.216919</ele>
<time>2010-07-17T10:13:18Z</time>
<desc>lat.=55.729568, lon.=26.243633, Alt.=144.216919m. Speed=0.144000m/h.</desc>
<speed>0.040000</speed>
</trkpt>
<trkpt lat="55.729568" lon="26.243633">
<ele>144.220825</ele>
<time>2010-07-17T10:13:19Z</time>
<desc>lat.=55.729568, lon.=26.243633, Alt.=144.220825m. Speed=0.072000m/h.</desc>
<speed>0.020000</speed>
</trkpt>
<trkpt lat="55.729568" lon="26.243633">
<ele>144.224731</ele>
<time>2010-07-17T10:13:20Z</time>
<desc>lat.=55.729568, lon.=26.243633, Alt.=144.224731m. Speed=0.036000m/h.</desc>
<speed>0.010000</speed>
</trkpt>
<trkpt lat="55.729568" lon="26.243633">
<ele>144.224731</ele>
<time>2010-07-17T10:13:21Z</time>
<desc>lat.=55.729568, lon.=26.243633, Alt.=144.224731m. Speed=0.072000m/h.</desc>
<speed>0.020000</speed>
</trkpt>
<trkpt lat="55.729568" lon="26.243633">
<ele>144.224731</ele>
<time>2010-07-17T10:13:22Z</time>
<desc>lat.=55.729568, lon.=26.243633, Alt.=144.224731m. Speed=0.216000m/h.</desc>
<speed>0.060000</speed>
</trkpt>
<trkpt lat="55.729568" lon="26.243633">
<ele>144.228638</ele>
<time>2010-07-17T10:13:23Z</time>
<desc>lat.=55.729568, lon.=26.243633, Alt.=144.228638m. Speed=0.288000m/h.</desc>
<speed>0.080000</speed>
</trkpt>
<trkpt lat="55.729572" lon="26.243633">
<ele>144.220825</ele>
<time>2010-07-17T10:13:24Z</time>
<desc>lat.=55.729572, lon.=26.243633, Alt.=144.220825m. Speed=0.180000m/h.</desc>
<speed>0.050000</speed>
</trkpt>
<trkpt lat="55.729572" lon="26.243635">
<ele>144.209106</ele>
<time>2010-07-17T10:13:25Z</time>
<desc>lat.=55.729572, lon.=26.243635, Alt.=144.209106m. Speed=0.036000m/h.</desc>
<speed>0.010000</speed>
</trkpt>
<trkpt lat="55.729572" lon="26.243633">
<ele>144.197388</ele>
<time>2010-07-17T10:13:26Z</time>
<desc>lat.=55.729572, lon.=26.243633, Alt.=144.197388m. Speed=0.036000m/h.</desc>
<speed>0.010000</speed>
</trkpt>
<trkpt lat="55.729568" lon="26.243633">
<ele>144.193481</ele>
<time>2010-07-17T10:13:27Z</time>
<desc>lat.=55.729568, lon.=26.243633, Alt.=144.193481m. Speed=0.036000m/h.</desc>
<speed>0.010000</speed>
</trkpt>
<trkpt lat="55.729568" lon="26.243633">
<ele>144.181763</ele>
<time>2010-07-17T10:13:28Z</time>
<desc>lat.=55.729568, lon.=26.243633, Alt.=144.181763m. Speed=0.036000m/h.</desc>
<speed>0.010000</speed>
</trkpt>
<trkpt lat="55.729568" lon="26.243633">
<ele>144.170044</ele>
<time>2010-07-17T10:13:29Z</time>
<desc>lat.=55.729568, lon.=26.243633, Alt.=144.170044m. Speed=0.036000m/h.</desc>
<speed>0.010000</speed>
</trkpt>
<trkpt lat="55.729568" lon="26.243633">
<ele>144.170044</ele>
<time>2010-07-17T10:13:30Z</time>
<desc>lat.=55.729568, lon.=26.243633, Alt.=144.170044m. Speed=0.000000m/h.</desc>
<speed>0.000000</speed>
</trkpt>
<trkpt lat="55.729568" lon="26.243633">
<ele>144.162231</ele>
<time>2010-07-17T10:13:31Z</time>
<desc>lat.=55.729568, lon.=26.243633, Alt.=144.162231m. Speed=0.036000m/h.</desc>
<speed>0.010000</speed>
</trkpt>
<trkpt lat="55.729568" lon="26.243633">
<ele>144.154419</ele>
<time>2010-07-17T10:13:32Z</time>
<desc>lat.=55.729568, lon.=26.243633, Alt.=144.154419m. Speed=0.036000m/h.</desc>
<speed>0.010000</speed>
</trkpt>
<trkpt lat="55.729568" lon="26.243633">
<ele>144.154419</ele>
<time>2010-07-17T10:13:33Z</time>
<desc>lat.=55.729568, lon.=26.243633, Alt.=144.154419m. Speed=0.000000m/h.</desc>
<speed>0.000000</speed>
</trkpt>
<trkpt lat="55.729568" lon="26.243633">
<ele>144.150513</ele>
<time>2010-07-17T10:13:34Z</time>
<desc>lat.=55.729568, lon.=26.243633, Alt.=144.150513m. Speed=0.036000m/h.</desc>
<speed>0.010000</speed>
</trkpt>
<trkpt lat="55.729568" lon="26.243633">
<ele>144.146606</ele>
<time>2010-07-17T10:13:35Z</time>
<desc>lat.=55.729568, lon.=26.243633, Alt.=144.146606m. Speed=0.000000m/h.</desc>
<speed>0.000000</speed>
</trkpt>
<trkpt lat="55.729568" lon="26.243633">
<ele>144.142700</ele>
<time>2010-07-17T10:13:36Z</time>
<desc>lat.=55.729568, lon.=26.243633, Alt.=144.142700m. Speed=0.000000m/h.</desc>
<speed>0.000000</speed>
</trkpt>
<trkpt lat="55.729568" lon="26.243633">
<ele>144.142700</ele>
<time>2010-07-17T10:13:37Z</time>
<desc>lat.=55.729568, lon.=26.243633, Alt.=144.142700m. Speed=0.108000m/h.</desc>
<speed>0.030000</speed>
</trkpt>
<trkpt lat="55.729568" lon="26.243633">
<ele>144.142700</ele>
<time>2010-07-17T10:13:38Z</time>
<desc>lat.=55.729568, lon.=26.243633, Alt.=144.142700m. Speed=0.036000m/h.</desc>
<speed>0.010000</speed>
</trkpt>
<trkpt lat="55.729568" lon="26.243633">
<ele>144.138794</ele>
<time>2010-07-17T10:13:39Z</time>
<desc>lat.=55.729568, lon.=26.243633, Alt.=144.138794m. Speed=0.036000m/h.</desc>
<speed>0.010000</speed>
</trkpt>
<trkpt lat="55.729568" lon="26.243633">
<ele>144.134888</ele>
<time>2010-07-17T10:13:40Z</time>
<desc>lat.=55.729568, lon.=26.243633, Alt.=144.134888m. Speed=0.036000m/h.</desc>
<speed>0.010000</speed>
</trkpt>
<trkpt lat="55.729568" lon="26.243633">
<ele>144.134888</ele>
<time>2010-07-17T10:13:41Z</time>
<desc>lat.=55.729568, lon.=26.243633, Alt.=144.134888m. Speed=0.036000m/h.</desc>
<speed>0.010000</speed>
</trkpt>
<trkpt lat="55.729568" lon="26.243633">
<ele>144.130981</ele>
<time>2010-07-17T10:13:42Z</time>
<desc>lat.=55.729568, lon.=26.243633, Alt.=144.130981m. Speed=0.000000m/h.</desc>
<speed>0.000000</speed>
</trkpt>
<trkpt lat="55.729568" lon="26.243633">
<ele>144.130981</ele>
<time>2010-07-17T10:13:43Z</time>
<desc>lat.=55.729568, lon.=26.243633, Alt.=144.130981m. Speed=0.000000m/h.</desc>
<speed>0.000000</speed>
</trkpt>
<trkpt lat="55.729568" lon="26.243633">
<ele>144.127075</ele>
<time>2010-07-17T10:13:44Z</time>
<desc>lat.=55.729568, lon.=26.243633, Alt.=144.127075m. Speed=0.000000m/h.</desc>
<speed>0.000000</speed>
</trkpt>
<trkpt lat="55.729568" lon="26.243633">
<ele>144.127075</ele>
<time>2010-07-17T10:13:45Z</time>
<desc>lat.=55.729568, lon.=26.243633, Alt.=144.127075m. Speed=0.072000m/h.</desc>
<speed>0.020000</speed>
</trkpt>
<trkpt lat="55.729568" lon="26.243633">
<ele>144.130981</ele>
<time>2010-07-17T10:13:46Z</time>
<desc>lat.=55.729568, lon.=26.243633, Alt.=144.130981m. Speed=0.036000m/h.</desc>
<speed>0.010000</speed>
</trkpt>
<trkpt lat="55.729568" lon="26.243633">
<ele>144.134888</ele>
<time>2010-07-17T10:13:47Z</time>
<desc>lat.=55.729568, lon.=26.243633, Alt.=144.134888m. Speed=0.072000m/h.</desc>
<speed>0.020000</speed>
</trkpt>
<trkpt lat="55.729568" lon="26.243633">
<ele>144.134888</ele>
<time>2010-07-17T10:13:48Z</time>
<desc>lat.=55.729568, lon.=26.243633, Alt.=144.134888m. Speed=0.036000m/h.</desc>
<speed>0.010000</speed>
</trkpt>
<trkpt lat="55.729568" lon="26.243633">
<ele>144.134888</ele>
<time>2010-07-17T10:13:49Z</time>
<desc>lat.=55.729568, lon.=26.243633, Alt.=144.134888m. Speed=0.036000m/h.</desc>
<speed>0.010000</speed>
</trkpt>
<trkpt lat="55.729568" lon="26.243633">
<ele>144.134888</ele>
<time>2010-07-17T10:13:50Z</time>
<desc>lat.=55.729568, lon.=26.243633, Alt.=144.134888m. Speed=0.072000m/h.</desc>
<speed>0.020000</speed>
</trkpt>
<trkpt lat="55.729568" lon="26.243633">
<ele>144.138794</ele>
<time>2010-07-17T10:13:51Z</time>
<desc>lat.=55.729568, lon.=26.243633, Alt.=144.138794m. Speed=0.072000m/h.</desc>
<speed>0.020000</speed>
</trkpt>
<trkpt lat="55.729568" lon="26.243633">
<ele>144.138794</ele>
<time>2010-07-17T10:13:52Z</time>
<desc>lat.=55.729568, lon.=26.243633, Alt.=144.138794m. Speed=0.144000m/h.</desc>
<speed>0.040000</speed>
</trkpt>
<trkpt lat="55.729568" lon="26.243633">
<ele>144.134888</ele>
<time>2010-07-17T10:13:53Z</time>
<desc>lat.=55.729568, lon.=26.243633, Alt.=144.134888m. Speed=0.108000m/h.</desc>
<speed>0.030000</speed>
</trkpt>
<trkpt lat="55.729568" lon="26.243633">
<ele>144.134888</ele>
<time>2010-07-17T10:13:54Z</time>
<desc>lat.=55.729568, lon.=26.243633, Alt.=144.134888m. Speed=0.072000m/h.</desc>
<speed>0.020000</speed>
</trkpt>
<trkpt lat="55.729568" lon="26.243633">
<ele>144.134888</ele>
<time>2010-07-17T10:13:55Z</time>
<desc>lat.=55.729568, lon.=26.243633, Alt.=144.134888m. Speed=0.108000m/h.</desc>
<speed>0.030000</speed>
</trkpt>
<trkpt lat="55.729572" lon="26.243633">
<ele>144.142700</ele>
<time>2010-07-17T10:13:56Z</time>
<desc>lat.=55.729572, lon.=26.243633, Alt.=144.142700m. Speed=0.036000m/h.</desc>
<speed>0.010000</speed>
</trkpt>
<trkpt lat="55.729572" lon="26.243633">
<ele>144.142700</ele>
<time>2010-07-17T10:13:57Z</time>
<desc>lat.=55.729572, lon.=26.243633, Alt.=144.142700m. Speed=0.000000m/h.</desc>
<speed>0.000000</speed>
</trkpt>
<trkpt lat="55.729572" lon="26.243633">
<ele>144.142700</ele>
<time>2010-07-17T10:13:58Z</time>
<desc>lat.=55.729572, lon.=26.243633, Alt.=144.142700m. Speed=0.108000m/h.</desc>
<speed>0.030000</speed>
</trkpt>
<trkpt lat="55.729572" lon="26.243633">
<ele>144.142700</ele>
<time>2010-07-17T10:13:59Z</time>
<desc>lat.=55.729572, lon.=26.243633, Alt.=144.142700m. Speed=0.072000m/h.</desc>
<speed>0.020000</speed>
</trkpt>
<trkpt lat="55.729572" lon="26.243635">
<ele>144.138794</ele>
<time>2010-07-17T10:14:00Z</time>
<desc>lat.=55.729572, lon.=26.243635, Alt.=144.138794m. Speed=0.072000m/h.</desc>
<speed>0.020000</speed>
</trkpt>
<trkpt lat="55.729572" lon="26.243633">
<ele>144.134888</ele>
<time>2010-07-17T10:14:01Z</time>
<desc>lat.=55.729572, lon.=26.243633, Alt.=144.134888m. Speed=0.000000m/h.</desc>
<speed>0.000000</speed>
</trkpt>
<trkpt lat="55.729572" lon="26.243635">
<ele>144.130981</ele>
<time>2010-07-17T10:14:02Z</time>
<desc>lat.=55.729572, lon.=26.243635, Alt.=144.130981m. Speed=0.036000m/h.</desc>
<speed>0.010000</speed>
</trkpt>
<trkpt lat="55.729572" lon="26.243635">
<ele>144.123169</ele>
<time>2010-07-17T10:14:03Z</time>
<desc>lat.=55.729572, lon.=26.243635, Alt.=144.123169m. Speed=0.072000m/h.</desc>
<speed>0.020000</speed>
</trkpt>
<trkpt lat="55.729572" lon="26.243635">
<ele>144.119263</ele>
<time>2010-07-17T10:14:04Z</time>
<desc>lat.=55.729572, lon.=26.243635, Alt.=144.119263m. Speed=0.036000m/h.</desc>
<speed>0.010000</speed>
</trkpt>
<trkpt lat="55.729572" lon="26.243635">
<ele>144.123169</ele>
<time>2010-07-17T10:14:05Z</time>
<desc>lat.=55.729572, lon.=26.243635, Alt.=144.123169m. Speed=0.072000m/h.</desc>
<speed>0.020000</speed>
</trkpt>
<trkpt lat="55.729572" lon="26.243635">
<ele>144.123169</ele>
<time>2010-07-17T10:14:06Z</time>
<desc>lat.=55.729572, lon.=26.243635, Alt.=144.123169m. Speed=0.000000m/h.</desc>
<speed>0.000000</speed>
</trkpt>
<trkpt lat="55.729572" lon="26.243635">
<ele>144.119263</ele>
<time>2010-07-17T10:14:07Z</time>
<desc>lat.=55.729572, lon.=26.243635, Alt.=144.119263m. Speed=0.036000m/h.</desc>
<speed>0.010000</speed>
</trkpt>
<trkpt lat="55.729572" lon="26.243635">
<ele>144.115356</ele>
<time>2010-07-17T10:14:08Z</time>
<desc>lat.=55.729572, lon.=26.243635, Alt.=144.115356m. Speed=0.072000m/h.</desc>
<speed>0.020000</speed>
</trkpt>
<trkpt lat="55.729572" lon="26.243635">
<ele>144.119263</ele>
<time>2010-07-17T10:14:09Z</time>
<desc>lat.=55.729572, lon.=26.243635, Alt.=144.119263m. Speed=0.036000m/h.</desc>
<speed>0.010000</speed>
</trkpt>
<trkpt lat="55.729572" lon="26.243635">
<ele>144.115356</ele>
<time>2010-07-17T10:14:10Z</time>
<desc>lat.=55.729572, lon.=26.243635, Alt.=144.115356m. Speed=0.036000m/h.</desc>
<speed>0.010000</speed>
</trkpt>
<trkpt lat="55.729572" lon="26.243635">
<ele>144.115356</ele>
<time>2010-07-17T10:14:11Z</time>
<desc>lat.=55.729572, lon.=26.243635, Alt.=144.115356m. Speed=0.144000m/h.</desc>
<speed>0.040000</speed>
</trkpt>
<trkpt lat="55.729572" lon="26.243633">
<ele>144.115356</ele>
<time>2010-07-17T10:14:12Z</time>
<desc>lat.=55.729572, lon.=26.243633, Alt.=144.115356m. Speed=0.072000m/h.</desc>
<speed>0.020000</speed>
</trkpt>
<trkpt lat="55.729572" lon="26.243635">
<ele>144.115356</ele>
<time>2010-07-17T10:14:13Z</time>
<desc>lat.=55.729572, lon.=26.243635, Alt.=144.115356m. Speed=0.000000m/h.</desc>
<speed>0.000000</speed>
</trkpt>
<trkpt lat="55.729572" lon="26.243635">
<ele>144.119263</ele>
<time>2010-07-17T10:14:14Z</time>
<desc>lat.=55.729572, lon.=26.243635, Alt.=144.119263m. Speed=0.036000m/h.</desc>
<speed>0.010000</speed>
</trkpt>
<trkpt lat="55.729572" lon="26.243635">
<ele>144.119263</ele>
<time>2010-07-17T10:14:15Z</time>
<desc>lat.=55.729572, lon.=26.243635, Alt.=144.119263m. Speed=0.072000m/h.</desc>
<speed>0.020000</speed>
</trkpt>
<trkpt lat="55.729572" lon="26.243635">
<ele>144.119263</ele>
<time>2010-07-17T10:14:16Z</time>
<desc>lat.=55.729572, lon.=26.243635, Alt.=144.119263m. Speed=0.000000m/h.</desc>
<speed>0.000000</speed>
</trkpt>
<trkpt lat="55.729572" lon="26.243633">
<ele>144.119263</ele>
<time>2010-07-17T10:14:17Z</time>
<desc>lat.=55.729572, lon.=26.243633, Alt.=144.119263m. Speed=0.036000m/h.</desc>
<speed>0.010000</speed>
</trkpt>
<trkpt lat="55.729572" lon="26.243633">
<ele>144.115356</ele>
<time>2010-07-17T10:14:18Z</time>
<desc>lat.=55.729572, lon.=26.243633, Alt.=144.115356m. Speed=0.036000m/h.</desc>
<speed>0.010000</speed>
</trkpt>
<trkpt lat="55.729572" lon="26.243633">
<ele>144.111450</ele>
<time>2010-07-17T10:14:19Z</time>
<desc>lat.=55.729572, lon.=26.243633, Alt.=144.111450m. Speed=0.036000m/h.</desc>
<speed>0.010000</speed>
</trkpt>
<trkpt lat="55.729572" lon="26.243633">
<ele>144.103638</ele>
<time>2010-07-17T10:14:20Z</time>
<desc>lat.=55.729572, lon.=26.243633, Alt.=144.103638m. Speed=0.036000m/h.</desc>
<speed>0.010000</speed>
</trkpt>
<trkpt lat="55.729572" lon="26.243633">
<ele>144.099731</ele>
<time>2010-07-17T10:14:21Z</time>
<desc>lat.=55.729572, lon.=26.243633, Alt.=144.099731m. Speed=0.000000m/h.</desc>
<speed>0.000000</speed>
</trkpt>
<trkpt lat="55.729572" lon="26.243633">
<ele>144.095825</ele>
<time>2010-07-17T10:14:22Z</time>
<desc>lat.=55.729572, lon.=26.243633, Alt.=144.095825m. Speed=0.108000m/h.</desc>
<speed>0.030000</speed>
</trkpt>
<trkpt lat="55.729572" lon="26.243633">
<ele>144.091919</ele>
<time>2010-07-17T10:14:23Z</time>
<desc>lat.=55.729572, lon.=26.243633, Alt.=144.091919m. Speed=0.036000m/h.</desc>
<speed>0.010000</speed>
</trkpt>
<trkpt lat="55.729572" lon="26.243633">
<ele>144.088013</ele>
<time>2010-07-17T10:14:24Z</time>
<desc>lat.=55.729572, lon.=26.243633, Alt.=144.088013m. Speed=0.000000m/h.</desc>
<speed>0.000000</speed>
</trkpt>
<trkpt lat="55.729572" lon="26.243633">
<ele>144.084106</ele>
<time>2010-07-17T10:14:25Z</time>
<desc>lat.=55.729572, lon.=26.243633, Alt.=144.084106m. Speed=0.036000m/h.</desc>
<speed>0.010000</speed>
</trkpt>
<trkpt lat="55.729572" lon="26.243633">
<ele>144.084106</ele>
<time>2010-07-17T10:14:26Z</time>
<desc>lat.=55.729572, lon.=26.243633, Alt.=144.084106m. Speed=0.036000m/h.</desc>
<speed>0.010000</speed>
</trkpt>
<trkpt lat="55.729572" lon="26.243633">
<ele>144.080200</ele>
<time>2010-07-17T10:14:27Z</time>
<desc>lat.=55.729572, lon.=26.243633, Alt.=144.080200m. Speed=0.036000m/h.</desc>
<speed>0.010000</speed>
</trkpt>
<trkpt lat="55.729572" lon="26.243633">
<ele>144.076294</ele>
<time>2010-07-17T10:14:28Z</time>
<desc>lat.=55.729572, lon.=26.243633, Alt.=144.076294m. Speed=0.108000m/h.</desc>
<speed>0.030000</speed>
</trkpt>
<trkpt lat="55.729572" lon="26.243633">
<ele>144.076294</ele>
<time>2010-07-17T10:14:29Z</time>
<desc>lat.=55.729572, lon.=26.243633, Alt.=144.076294m. Speed=0.072000m/h.</desc>
<speed>0.020000</speed>
</trkpt>
<trkpt lat="55.729572" lon="26.243635">
<ele>144.072388</ele>
<time>2010-07-17T10:14:30Z</time>
<desc>lat.=55.729572, lon.=26.243635, Alt.=144.072388m. Speed=0.072000m/h.</desc>
<speed>0.020000</speed>
</trkpt>
<trkpt lat="55.729572" lon="26.243635">
<ele>144.064575</ele>
<time>2010-07-17T10:14:31Z</time>
<desc>lat.=55.729572, lon.=26.243635, Alt.=144.064575m. Speed=0.072000m/h.</desc>
<speed>0.020000</speed>
</trkpt>
<trkpt lat="55.729572" lon="26.243635">
<ele>144.056763</ele>
<time>2010-07-17T10:14:32Z</time>
<desc>lat.=55.729572, lon.=26.243635, Alt.=144.056763m. Speed=0.072000m/h.</desc>
<speed>0.020000</speed>
</trkpt>
<trkpt lat="55.729572" lon="26.243635">
<ele>144.052856</ele>
<time>2010-07-17T10:14:33Z</time>
<desc>lat.=55.729572, lon.=26.243635, Alt.=144.052856m. Speed=0.072000m/h.</desc>
<speed>0.020000</speed>
</trkpt>
<trkpt lat="55.729572" lon="26.243635">
<ele>144.052856</ele>
<time>2010-07-17T10:14:34Z</time>
<desc>lat.=55.729572, lon.=26.243635, Alt.=144.052856m. Speed=0.036000m/h.</desc>
<speed>0.010000</speed>
</trkpt>
<trkpt lat="55.729572" lon="26.243635">
<ele>144.052856</ele>
<time>2010-07-17T10:14:35Z</time>
<desc>lat.=55.729572, lon.=26.243635, Alt.=144.052856m. Speed=0.072000m/h.</desc>
<speed>0.020000</speed>
</trkpt>
<trkpt lat="55.729572" lon="26.243635">
<ele>144.045044</ele>
<time>2010-07-17T10:14:36Z</time>
<desc>lat.=55.729572, lon.=26.243635, Alt.=144.045044m. Speed=0.036000m/h.</desc>
<speed>0.010000</speed>
</trkpt>
<trkpt lat="55.729572" lon="26.243635">
<ele>144.041138</ele>
<time>2010-07-17T10:14:37Z</time>
<desc>lat.=55.729572, lon.=26.243635, Alt.=144.041138m. Speed=0.000000m/h.</desc>
<speed>0.000000</speed>
</trkpt>
<trkpt lat="55.729572" lon="26.243635">
<ele>144.041138</ele>
<time>2010-07-17T10:14:38Z</time>
<desc>lat.=55.729572, lon.=26.243635, Alt.=144.041138m. Speed=0.036000m/h.</desc>
<speed>0.010000</speed>
</trkpt>
<trkpt lat="55.729572" lon="26.243635">
<ele>144.041138</ele>
<time>2010-07-17T10:14:39Z</time>
<desc>lat.=55.729572, lon.=26.243635, Alt.=144.041138m. Speed=0.072000m/h.</desc>
<speed>0.020000</speed>
</trkpt>
<trkpt lat="55.729572" lon="26.243635">
<ele>144.037231</ele>
<time>2010-07-17T10:14:40Z</time>
<desc>lat.=55.729572, lon.=26.243635, Alt.=144.037231m. Speed=0.000000m/h.</desc>
<speed>0.000000</speed>
</trkpt>
<trkpt lat="55.729572" lon="26.243635">
<ele>144.041138</ele>
<time>2010-07-17T10:14:41Z</time>
<desc>lat.=55.729572, lon.=26.243635, Alt.=144.041138m. Speed=0.036000m/h.</desc>
<speed>0.010000</speed>
</trkpt>
<trkpt lat="55.729572" lon="26.243635">
<ele>144.041138</ele>
<time>2010-07-17T10:14:42Z</time>
<desc>lat.=55.729572, lon.=26.243635, Alt.=144.041138m. Speed=0.072000m/h.</desc>
<speed>0.020000</speed>
</trkpt>
<trkpt lat="55.729572" lon="26.243635">
<ele>144.037231</ele>
<time>2010-07-17T10:14:43Z</time>
<desc>lat.=55.729572, lon.=26.243635, Alt.=144.037231m. Speed=0.036000m/h.</desc>
<speed>0.010000</speed>
</trkpt>
<trkpt lat="55.729572" lon="26.243635">
<ele>144.041138</ele>
<time>2010-07-17T10:14:44Z</time>
<desc>lat.=55.729572, lon.=26.243635, Alt.=144.041138m. Speed=0.036000m/h.</desc>
<speed>0.010000</speed>
</trkpt>
<trkpt lat="55.729572" lon="26.243635">
<ele>144.041138</ele>
<time>2010-07-17T10:14:45Z</time>
<desc>lat.=55.729572, lon.=26.243635, Alt.=144.041138m. Speed=0.036000m/h.</desc>
<speed>0.010000</speed>
</trkpt>
<trkpt lat="55.729572" lon="26.243635">
<ele>144.037231</ele>
<time>2010-07-17T10:14:46Z</time>
<desc>lat.=55.729572, lon.=26.243635, Alt.=144.037231m. Speed=0.072000m/h.</desc>
<speed>0.020000</speed>
</trkpt>
<trkpt lat="55.729572" lon="26.243635">
<ele>144.037231</ele>
<time>2010-07-17T10:14:47Z</time>
<desc>lat.=55.729572, lon.=26.243635, Alt.=144.037231m. Speed=0.108000m/h.</desc>
<speed>0.030000</speed>
</trkpt>
<trkpt lat="55.729572" lon="26.243635">
<ele>144.037231</ele>
<time>2010-07-17T10:14:48Z</time>
<desc>lat.=55.729572, lon.=26.243635, Alt.=144.037231m. Speed=0.036000m/h.</desc>
<speed>0.010000</speed>
</trkpt>
<trkpt lat="55.729572" lon="26.243635">
<ele>144.037231</ele>
<time>2010-07-17T10:14:49Z</time>
<desc>lat.=55.729572, lon.=26.243635, Alt.=144.037231m. Speed=0.036000m/h.</desc>
<speed>0.010000</speed>
</trkpt>
<trkpt lat="55.729572" lon="26.243635">
<ele>144.033325</ele>
<time>2010-07-17T10:14:50Z</time>
<desc>lat.=55.729572, lon.=26.243635, Alt.=144.033325m. Speed=0.036000m/h.</desc>
<speed>0.010000</speed>
</trkpt>
<trkpt lat="55.729572" lon="26.243635">
<ele>144.033325</ele>
<time>2010-07-17T10:14:51Z</time>
<desc>lat.=55.729572, lon.=26.243635, Alt.=144.033325m. Speed=0.036000m/h.</desc>
<speed>0.010000</speed>
</trkpt>
<trkpt lat="55.729572" lon="26.243635">
<ele>144.033325</ele>
<time>2010-07-17T10:14:52Z</time>
<desc>lat.=55.729572, lon.=26.243635, Alt.=144.033325m. Speed=0.036000m/h.</desc>
<speed>0.010000</speed>
</trkpt>
<trkpt lat="55.729572" lon="26.243635">
<ele>144.033325</ele>
<time>2010-07-17T10:14:53Z</time>
<desc>lat.=55.729572, lon.=26.243635, Alt.=144.033325m. Speed=0.072000m/h.</desc>
<speed>0.020000</speed>
</trkpt>
<trkpt lat="55.729572" lon="26.243635">
<ele>144.033325</ele>
<time>2010-07-17T10:14:54Z</time>
<desc>lat.=55.729572, lon.=26.243635, Alt.=144.033325m. Speed=0.072000m/h.</desc>
<speed>0.020000</speed>
</trkpt>
<trkpt lat="55.729572" lon="26.243635">
<ele>144.033325</ele>
<time>2010-07-17T10:14:55Z</time>
<desc>lat.=55.729572, lon.=26.243635, Alt.=144.033325m. Speed=0.036000m/h.</desc>
<speed>0.010000</speed>
</trkpt>
<trkpt lat="55.729572" lon="26.243635">
<ele>144.037231</ele>
<time>2010-07-17T10:14:56Z</time>
<desc>lat.=55.729572, lon.=26.243635, Alt.=144.037231m. Speed=0.036000m/h.</desc>
<speed>0.010000</speed>
</trkpt>
<trkpt lat="55.729572" lon="26.243635">
<ele>144.037231</ele>
<time>2010-07-17T10:14:57Z</time>
<desc>lat.=55.729572, lon.=26.243635, Alt.=144.037231m. Speed=0.000000m/h.</desc>
<speed>0.000000</speed>
</trkpt>
<trkpt lat="55.729572" lon="26.243635">
<ele>144.041138</ele>
<time>2010-07-17T10:14:58Z</time>
<desc>lat.=55.729572, lon.=26.243635, Alt.=144.041138m. Speed=0.036000m/h.</desc>
<speed>0.010000</speed>
</trkpt>
<trkpt lat="55.729572" lon="26.243635">
<ele>144.048950</ele>
<time>2010-07-17T10:14:59Z</time>
<desc>lat.=55.729572, lon.=26.243635, Alt.=144.048950m. Speed=0.000000m/h.</desc>
<speed>0.000000</speed>
</trkpt>
<trkpt lat="55.729572" lon="26.243635">
<ele>144.048950</ele>
<time>2010-07-17T10:15:00Z</time>
<desc>lat.=55.729572, lon.=26.243635, Alt.=144.048950m. Speed=0.036000m/h.</desc>
<speed>0.010000</speed>
</trkpt>
<trkpt lat="55.729572" lon="26.243635">
<ele>144.048950</ele>
<time>2010-07-17T10:15:01Z</time>
<desc>lat.=55.729572, lon.=26.243635, Alt.=144.048950m. Speed=0.072000m/h.</desc>
<speed>0.020000</speed>
</trkpt>
<trkpt lat="55.729572" lon="26.243635">
<ele>144.052856</ele>
<time>2010-07-17T10:15:02Z</time>
<desc>lat.=55.729572, lon.=26.243635, Alt.=144.052856m. Speed=0.036000m/h.</desc>
<speed>0.010000</speed>
</trkpt>
<trkpt lat="55.729572" lon="26.243635">
<ele>144.048950</ele>
<time>2010-07-17T10:15:03Z</time>
<desc>lat.=55.729572, lon.=26.243635, Alt.=144.048950m. Speed=0.036000m/h.</desc>
<speed>0.010000</speed>
</trkpt>
<trkpt lat="55.729572" lon="26.243635">
<ele>144.048950</ele>
<time>2010-07-17T10:15:04Z</time>
<desc>lat.=55.729572, lon.=26.243635, Alt.=144.048950m. Speed=0.072000m/h.</desc>
<speed>0.020000</speed>
</trkpt>
<trkpt lat="55.729572" lon="26.243635">
<ele>144.048950</ele>
<time>2010-07-17T10:15:05Z</time>
<desc>lat.=55.729572, lon.=26.243635, Alt.=144.048950m. Speed=0.036000m/h.</desc>
<speed>0.010000</speed>
</trkpt>
<trkpt lat="55.729572" lon="26.243635">
<ele>144.041138</ele>
<time>2010-07-17T10:15:06Z</time>
<desc>lat.=55.729572, lon.=26.243635, Alt.=144.041138m. Speed=0.000000m/h.</desc>
<speed>0.000000</speed>
</trkpt>
<trkpt lat="55.729572" lon="26.243635">
<ele>144.037231</ele>
<time>2010-07-17T10:15:07Z</time>
<desc>lat.=55.729572, lon.=26.243635, Alt.=144.037231m. Speed=0.000000m/h.</desc>
<speed>0.000000</speed>
</trkpt>
<trkpt lat="55.729572" lon="26.243635">
<ele>144.041138</ele>
<time>2010-07-17T10:15:08Z</time>
<desc>lat.=55.729572, lon.=26.243635, Alt.=144.041138m. Speed=0.000000m/h.</desc>
<speed>0.000000</speed>
</trkpt>
<trkpt lat="55.729572" lon="26.243635">
<ele>144.048950</ele>
<time>2010-07-17T10:15:09Z</time>
<desc>lat.=55.729572, lon.=26.243635, Alt.=144.048950m. Speed=0.036000m/h.</desc>
<speed>0.010000</speed>
</trkpt>
<trkpt lat="55.729572" lon="26.243635">
<ele>144.048950</ele>
<time>2010-07-17T10:15:10Z</time>
<desc>lat.=55.729572, lon.=26.243635, Alt.=144.048950m. Speed=0.108000m/h.</desc>
<speed>0.030000</speed>
</trkpt>
<trkpt lat="55.729572" lon="26.243635">
<ele>144.048950</ele>
<time>2010-07-17T10:15:11Z</time>
<desc>lat.=55.729572, lon.=26.243635, Alt.=144.048950m. Speed=0.108000m/h.</desc>
<speed>0.030000</speed>
</trkpt>
<trkpt lat="55.729572" lon="26.243635">
<ele>144.045044</ele>
<time>2010-07-17T10:15:12Z</time>
<desc>lat.=55.729572, lon.=26.243635, Alt.=144.045044m. Speed=0.216000m/h.</desc>
<speed>0.060000</speed>
</trkpt>
<trkpt lat="55.729572" lon="26.243635">
<ele>144.041138</ele>
<time>2010-07-17T10:15:13Z</time>
<desc>lat.=55.729572, lon.=26.243635, Alt.=144.041138m. Speed=0.108000m/h.</desc>
<speed>0.030000</speed>
</trkpt>
<trkpt lat="55.729572" lon="26.243635">
<ele>144.037231</ele>
<time>2010-07-17T10:15:14Z</time>
<desc>lat.=55.729572, lon.=26.243635, Alt.=144.037231m. Speed=0.108000m/h.</desc>
<speed>0.030000</speed>
</trkpt>
<trkpt lat="55.729572" lon="26.243637">
<ele>144.033325</ele>
<time>2010-07-17T10:15:15Z</time>
<desc>lat.=55.729572, lon.=26.243637, Alt.=144.033325m. Speed=0.036000m/h.</desc>
<speed>0.010000</speed>
</trkpt>
<trkpt lat="55.729572" lon="26.243637">
<ele>144.033325</ele>
<time>2010-07-17T10:15:16Z</time>
<desc>lat.=55.729572, lon.=26.243637, Alt.=144.033325m. Speed=0.108000m/h.</desc>
<speed>0.030000</speed>
</trkpt>
<trkpt lat="55.729572" lon="26.243637">
<ele>144.033325</ele>
<time>2010-07-17T10:15:17Z</time>
<desc>lat.=55.729572, lon.=26.243637, Alt.=144.033325m. Speed=0.072000m/h.</desc>
<speed>0.020000</speed>
</trkpt>
<trkpt lat="55.729572" lon="26.243637">
<ele>144.033325</ele>
<time>2010-07-17T10:15:18Z</time>
<desc>lat.=55.729572, lon.=26.243637, Alt.=144.033325m. Speed=0.180000m/h.</desc>
<speed>0.050000</speed>
</trkpt>
<trkpt lat="55.729572" lon="26.243637">
<ele>144.037231</ele>
<time>2010-07-17T10:15:19Z</time>
<desc>lat.=55.729572, lon.=26.243637, Alt.=144.037231m. Speed=0.072000m/h.</desc>
<speed>0.020000</speed>
</trkpt>
<trkpt lat="55.729572" lon="26.243637">
<ele>144.033325</ele>
<time>2010-07-17T10:15:20Z</time>
<desc>lat.=55.729572, lon.=26.243637, Alt.=144.033325m. Speed=0.036000m/h.</desc>
<speed>0.010000</speed>
</trkpt>
<trkpt lat="55.729572" lon="26.243637">
<ele>144.025513</ele>
<time>2010-07-17T10:15:21Z</time>
<desc>lat.=55.729572, lon.=26.243637, Alt.=144.025513m. Speed=0.072000m/h.</desc>
<speed>0.020000</speed>
</trkpt>
<trkpt lat="55.729572" lon="26.243637">
<ele>144.009888</ele>
<time>2010-07-17T10:15:22Z</time>
<desc>lat.=55.729572, lon.=26.243637, Alt.=144.009888m. Speed=0.072000m/h.</desc>
<speed>0.020000</speed>
</trkpt>
<trkpt lat="55.729572" lon="26.243637">
<ele>143.998169</ele>
<time>2010-07-17T10:15:23Z</time>
<desc>lat.=55.729572, lon.=26.243637, Alt.=143.998169m. Speed=0.000000m/h.</desc>
<speed>0.000000</speed>
</trkpt>
<trkpt lat="55.729572" lon="26.243637">
<ele>143.994263</ele>
<time>2010-07-17T10:15:24Z</time>
<desc>lat.=55.729572, lon.=26.243637, Alt.=143.994263m. Speed=0.000000m/h.</desc>
<speed>0.000000</speed>
</trkpt>
<trkpt lat="55.729572" lon="26.243637">
<ele>143.998169</ele>
<time>2010-07-17T10:15:25Z</time>
<desc>lat.=55.729572, lon.=26.243637, Alt.=143.998169m. Speed=0.000000m/h.</desc>
<speed>0.000000</speed>
</trkpt>
<trkpt lat="55.729572" lon="26.243637">
<ele>143.994263</ele>
<time>2010-07-17T10:15:26Z</time>
<desc>lat.=55.729572, lon.=26.243637, Alt.=143.994263m. Speed=0.000000m/h.</desc>
<speed>0.000000</speed>
</trkpt>
<trkpt lat="55.729572" lon="26.243637">
<ele>143.994263</ele>
<time>2010-07-17T10:15:27Z</time>
<desc>lat.=55.729572, lon.=26.243637, Alt.=143.994263m. Speed=0.000000m/h.</desc>
<speed>0.000000</speed>
</trkpt>
<trkpt lat="55.729572" lon="26.243639">
<ele>143.990356</ele>
<time>2010-07-17T10:15:28Z</time>
<desc>lat.=55.729572, lon.=26.243639, Alt.=143.990356m. Speed=0.036000m/h.</desc>
<speed>0.010000</speed>
</trkpt>
<trkpt lat="55.729572" lon="26.243639">
<ele>143.982544</ele>
<time>2010-07-17T10:15:29Z</time>
<desc>lat.=55.729572, lon.=26.243639, Alt.=143.982544m. Speed=0.108000m/h.</desc>
<speed>0.030000</speed>
</trkpt>
<trkpt lat="55.729572" lon="26.243639">
<ele>143.974731</ele>
<time>2010-07-17T10:15:30Z</time>
<desc>lat.=55.729572, lon.=26.243639, Alt.=143.974731m. Speed=0.036000m/h.</desc>
<speed>0.010000</speed>
</trkpt>
<trkpt lat="55.729572" lon="26.243639">
<ele>143.966919</ele>
<time>2010-07-17T10:15:31Z</time>
<desc>lat.=55.729572, lon.=26.243639, Alt.=143.966919m. Speed=0.072000m/h.</desc>
<speed>0.020000</speed>
</trkpt>
<trkpt lat="55.729572" lon="26.243639">
<ele>143.963013</ele>
<time>2010-07-17T10:15:32Z</time>
<desc>lat.=55.729572, lon.=26.243639, Alt.=143.963013m. Speed=0.036000m/h.</desc>
<speed>0.010000</speed>
</trkpt>
<trkpt lat="55.729572" lon="26.243639">
<ele>143.959106</ele>
<time>2010-07-17T10:15:33Z</time>
<desc>lat.=55.729572, lon.=26.243639, Alt.=143.959106m. Speed=0.072000m/h.</desc>
<speed>0.020000</speed>
</trkpt>
<trkpt lat="55.729572" lon="26.243639">
<ele>143.955200</ele>
<time>2010-07-17T10:15:34Z</time>
<desc>lat.=55.729572, lon.=26.243639, Alt.=143.955200m. Speed=0.144000m/h.</desc>
<speed>0.040000</speed>
</trkpt>
<trkpt lat="55.729572" lon="26.243639">
<ele>143.947388</ele>
<time>2010-07-17T10:15:35Z</time>
<desc>lat.=55.729572, lon.=26.243639, Alt.=143.947388m. Speed=0.036000m/h.</desc>
<speed>0.010000</speed>
</trkpt>
<trkpt lat="55.729572" lon="26.243641">
<ele>143.951294</ele>
<time>2010-07-17T10:15:36Z</time>
<desc>lat.=55.729572, lon.=26.243641, Alt.=143.951294m. Speed=0.144000m/h.</desc>
<speed>0.040000</speed>
</trkpt>
<trkpt lat="55.729572" lon="26.243641">
<ele>143.951294</ele>
<time>2010-07-17T10:15:37Z</time>
<desc>lat.=55.729572, lon.=26.243641, Alt.=143.951294m. Speed=0.000000m/h.</desc>
<speed>0.000000</speed>
</trkpt>
<trkpt lat="55.729572" lon="26.243641">
<ele>143.947388</ele>
<time>2010-07-17T10:15:38Z</time>
<desc>lat.=55.729572, lon.=26.243641, Alt.=143.947388m. Speed=0.180000m/h.</desc>
<speed>0.050000</speed>
</trkpt>
<trkpt lat="55.729572" lon="26.243641">
<ele>143.947388</ele>
<time>2010-07-17T10:15:39Z</time>
<desc>lat.=55.729572, lon.=26.243641, Alt.=143.947388m. Speed=0.180000m/h.</desc>
<speed>0.050000</speed>
</trkpt>
<trkpt lat="55.729572" lon="26.243641">
<ele>143.947388</ele>
<time>2010-07-17T10:15:40Z</time>
<desc>lat.=55.729572, lon.=26.243641, Alt.=143.947388m. Speed=0.108000m/h.</desc>
<speed>0.030000</speed>
</trkpt>
<trkpt lat="55.729572" lon="26.243641">
<ele>143.947388</ele>
<time>2010-07-17T10:15:41Z</time>
<desc>lat.=55.729572, lon.=26.243641, Alt.=143.947388m. Speed=0.108000m/h.</desc>
<speed>0.030000</speed>
</trkpt>
<trkpt lat="55.729572" lon="26.243643">
<ele>143.947388</ele>
<time>2010-07-17T10:15:42Z</time>
<desc>lat.=55.729572, lon.=26.243643, Alt.=143.947388m. Speed=0.072000m/h.</desc>
<speed>0.020000</speed>
</trkpt>
<trkpt lat="55.729572" lon="26.243643">
<ele>143.947388</ele>
<time>2010-07-17T10:15:43Z</time>
<desc>lat.=55.729572, lon.=26.243643, Alt.=143.947388m. Speed=0.036000m/h.</desc>
<speed>0.010000</speed>
</trkpt>
<trkpt lat="55.729572" lon="26.243643">
<ele>143.951294</ele>
<time>2010-07-17T10:15:44Z</time>
<desc>lat.=55.729572, lon.=26.243643, Alt.=143.951294m. Speed=0.036000m/h.</desc>
<speed>0.010000</speed>
</trkpt>
<trkpt lat="55.729572" lon="26.243643">
<ele>143.951294</ele>
<time>2010-07-17T10:15:45Z</time>
<desc>lat.=55.729572, lon.=26.243643, Alt.=143.951294m. Speed=0.000000m/h.</desc>
<speed>0.000000</speed>
</trkpt>
<trkpt lat="55.729572" lon="26.243643">
<ele>143.955200</ele>
<time>2010-07-17T10:15:46Z</time>
<desc>lat.=55.729572, lon.=26.243643, Alt.=143.955200m. Speed=0.000000m/h.</desc>
<speed>0.000000</speed>
</trkpt>
<trkpt lat="55.729572" lon="26.243643">
<ele>143.951294</ele>
<time>2010-07-17T10:15:47Z</time>
<desc>lat.=55.729572, lon.=26.243643, Alt.=143.951294m. Speed=0.036000m/h.</desc>
<speed>0.010000</speed>
</trkpt>
<trkpt lat="55.729572" lon="26.243643">
<ele>143.955200</ele>
<time>2010-07-17T10:15:48Z</time>
<desc>lat.=55.729572, lon.=26.243643, Alt.=143.955200m. Speed=0.036000m/h.</desc>
<speed>0.010000</speed>
</trkpt>
<trkpt lat="55.729572" lon="26.243643">
<ele>143.955200</ele>
<time>2010-07-17T10:15:49Z</time>
<desc>lat.=55.729572, lon.=26.243643, Alt.=143.955200m. Speed=0.072000m/h.</desc>
<speed>0.020000</speed>
</trkpt>
<trkpt lat="55.729572" lon="26.243643">
<ele>143.955200</ele>
<time>2010-07-17T10:15:50Z</time>
<desc>lat.=55.729572, lon.=26.243643, Alt.=143.955200m. Speed=0.072000m/h.</desc>
<speed>0.020000</speed>
</trkpt>
<trkpt lat="55.729572" lon="26.243643">
<ele>143.947388</ele>
<time>2010-07-17T10:15:51Z</time>
<desc>lat.=55.729572, lon.=26.243643, Alt.=143.947388m. Speed=0.036000m/h.</desc>
<speed>0.010000</speed>
</trkpt>
<trkpt lat="55.729572" lon="26.243643">
<ele>143.947388</ele>
<time>2010-07-17T10:15:52Z</time>
<desc>lat.=55.729572, lon.=26.243643, Alt.=143.947388m. Speed=0.036000m/h.</desc>
<speed>0.010000</speed>
</trkpt>
<trkpt lat="55.729572" lon="26.243641">
<ele>143.943481</ele>
<time>2010-07-17T10:15:53Z</time>
<desc>lat.=55.729572, lon.=26.243641, Alt.=143.943481m. Speed=0.036000m/h.</desc>
<speed>0.010000</speed>
</trkpt>
<trkpt lat="55.729572" lon="26.243641">
<ele>143.935669</ele>
<time>2010-07-17T10:15:54Z</time>
<desc>lat.=55.729572, lon.=26.243641, Alt.=143.935669m. Speed=0.036000m/h.</desc>
<speed>0.010000</speed>
</trkpt>
<trkpt lat="55.729572" lon="26.243641">
<ele>143.935669</ele>
<time>2010-07-17T10:15:55Z</time>
<desc>lat.=55.729572, lon.=26.243641, Alt.=143.935669m. Speed=0.072000m/h.</desc>
<speed>0.020000</speed>
</trkpt>
<trkpt lat="55.729572" lon="26.243641">
<ele>143.931763</ele>
<time>2010-07-17T10:15:56Z</time>
<desc>lat.=55.729572, lon.=26.243641, Alt.=143.931763m. Speed=0.072000m/h.</desc>
<speed>0.020000</speed>
</trkpt>
<trkpt lat="55.729572" lon="26.243641">
<ele>143.927856</ele>
<time>2010-07-17T10:15:57Z</time>
<desc>lat.=55.729572, lon.=26.243641, Alt.=143.927856m. Speed=0.036000m/h.</desc>
<speed>0.010000</speed>
</trkpt>
<trkpt lat="55.729572" lon="26.243641">
<ele>143.927856</ele>
<time>2010-07-17T10:15:58Z</time>
<desc>lat.=55.729572, lon.=26.243641, Alt.=143.927856m. Speed=0.036000m/h.</desc>
<speed>0.010000</speed>
</trkpt>
<trkpt lat="55.729572" lon="26.243641">
<ele>143.927856</ele>
<time>2010-07-17T10:15:59Z</time>
<desc>lat.=55.729572, lon.=26.243641, Alt.=143.927856m. Speed=0.072000m/h.</desc>
<speed>0.020000</speed>
</trkpt>
<trkpt lat="55.729572" lon="26.243641">
<ele>143.931763</ele>
<time>2010-07-17T10:16:00Z</time>
<desc>lat.=55.729572, lon.=26.243641, Alt.=143.931763m. Speed=0.036000m/h.</desc>
<speed>0.010000</speed>
</trkpt>
<trkpt lat="55.729572" lon="26.243641">
<ele>143.931763</ele>
<time>2010-07-17T10:16:01Z</time>
<desc>lat.=55.729572, lon.=26.243641, Alt.=143.931763m. Speed=0.036000m/h.</desc>
<speed>0.010000</speed>
</trkpt>
<trkpt lat="55.729572" lon="26.243641">
<ele>143.931763</ele>
<time>2010-07-17T10:16:02Z</time>
<desc>lat.=55.729572, lon.=26.243641, Alt.=143.931763m. Speed=0.000000m/h.</desc>
<speed>0.000000</speed>
</trkpt>
<trkpt lat="55.729572" lon="26.243641">
<ele>143.931763</ele>
<time>2010-07-17T10:16:03Z</time>
<desc>lat.=55.729572, lon.=26.243641, Alt.=143.931763m. Speed=0.000000m/h.</desc>
<speed>0.000000</speed>
</trkpt>
<trkpt lat="55.729572" lon="26.243641">
<ele>143.935669</ele>
<time>2010-07-17T10:16:04Z</time>
<desc>lat.=55.729572, lon.=26.243641, Alt.=143.935669m. Speed=0.000000m/h.</desc>
<speed>0.000000</speed>
</trkpt>
<trkpt lat="55.729572" lon="26.243641">
<ele>143.939575</ele>
<time>2010-07-17T10:16:05Z</time>
<desc>lat.=55.729572, lon.=26.243641, Alt.=143.939575m. Speed=0.036000m/h.</desc>
<speed>0.010000</speed>
</trkpt>
<trkpt lat="55.729572" lon="26.243641">
<ele>143.939575</ele>
<time>2010-07-17T10:16:06Z</time>
<desc>lat.=55.729572, lon.=26.243641, Alt.=143.939575m. Speed=0.072000m/h.</desc>
<speed>0.020000</speed>
</trkpt>
<trkpt lat="55.729572" lon="26.243641">
<ele>143.947388</ele>
<time>2010-07-17T10:16:07Z</time>
<desc>lat.=55.729572, lon.=26.243641, Alt.=143.947388m. Speed=0.036000m/h.</desc>
<speed>0.010000</speed>
</trkpt>
<trkpt lat="55.729572" lon="26.243641">
<ele>143.947388</ele>
<time>2010-07-17T10:16:08Z</time>
<desc>lat.=55.729572, lon.=26.243641, Alt.=143.947388m. Speed=0.036000m/h.</desc>
<speed>0.010000</speed>
</trkpt>
<trkpt lat="55.729572" lon="26.243641">
<ele>143.947388</ele>
<time>2010-07-17T10:16:09Z</time>
<desc>lat.=55.729572, lon.=26.243641, Alt.=143.947388m. Speed=0.036000m/h.</desc>
<speed>0.010000</speed>
</trkpt>
<trkpt lat="55.729572" lon="26.243641">
<ele>143.943481</ele>
<time>2010-07-17T10:16:10Z</time>
<desc>lat.=55.729572, lon.=26.243641, Alt.=143.943481m. Speed=0.036000m/h.</desc>
<speed>0.010000</speed>
</trkpt>
<trkpt lat="55.729572" lon="26.243641">
<ele>143.947388</ele>
<time>2010-07-17T10:16:11Z</time>
<desc>lat.=55.729572, lon.=26.243641, Alt.=143.947388m. Speed=0.000000m/h.</desc>
<speed>0.000000</speed>
</trkpt>
<trkpt lat="55.729572" lon="26.243641">
<ele>143.947388</ele>
<time>2010-07-17T10:16:12Z</time>
<desc>lat.=55.729572, lon.=26.243641, Alt.=143.947388m. Speed=0.072000m/h.</desc>
<speed>0.020000</speed>
</trkpt>
<trkpt lat="55.729572" lon="26.243641">
<ele>143.939575</ele>
<time>2010-07-17T10:16:13Z</time>
<desc>lat.=55.729572, lon.=26.243641, Alt.=143.939575m. Speed=0.000000m/h.</desc>
<speed>0.000000</speed>
</trkpt>
<trkpt lat="55.729572" lon="26.243641">
<ele>143.939575</ele>
<time>2010-07-17T10:16:14Z</time>
<desc>lat.=55.729572, lon.=26.243641, Alt.=143.939575m. Speed=0.036000m/h.</desc>
<speed>0.010000</speed>
</trkpt>
<trkpt lat="55.729572" lon="26.243641">
<ele>143.943481</ele>
<time>2010-07-17T10:16:15Z</time>
<desc>lat.=55.729572, lon.=26.243641, Alt.=143.943481m. Speed=0.036000m/h.</desc>
<speed>0.010000</speed>
</trkpt>
<trkpt lat="55.729572" lon="26.243641">
<ele>143.947388</ele>
<time>2010-07-17T10:16:16Z</time>
<desc>lat.=55.729572, lon.=26.243641, Alt.=143.947388m. Speed=0.036000m/h.</desc>
<speed>0.010000</speed>
</trkpt>
<trkpt lat="55.729572" lon="26.243641">
<ele>143.951294</ele>
<time>2010-07-17T10:16:17Z</time>
<desc>lat.=55.729572, lon.=26.243641, Alt.=143.951294m. Speed=0.000000m/h.</desc>
<speed>0.000000</speed>
</trkpt>
<trkpt lat="55.729568" lon="26.243641">
<ele>143.951294</ele>
<time>2010-07-17T10:16:18Z</time>
<desc>lat.=55.729568, lon.=26.243641, Alt.=143.951294m. Speed=0.000000m/h.</desc>
<speed>0.000000</speed>
</trkpt>
<trkpt lat="55.729568" lon="26.243641">
<ele>143.951294</ele>
<time>2010-07-17T10:16:19Z</time>
<desc>lat.=55.729568, lon.=26.243641, Alt.=143.951294m. Speed=0.000000m/h.</desc>
<speed>0.000000</speed>
</trkpt>
<trkpt lat="55.729568" lon="26.243641">
<ele>143.951294</ele>
<time>2010-07-17T10:16:20Z</time>
<desc>lat.=55.729568, lon.=26.243641, Alt.=143.951294m. Speed=0.000000m/h.</desc>
<speed>0.000000</speed>
</trkpt>
<trkpt lat="55.729568" lon="26.243643">
<ele>143.947388</ele>
<time>2010-07-17T10:16:21Z</time>
<desc>lat.=55.729568, lon.=26.243643, Alt.=143.947388m. Speed=0.000000m/h.</desc>
<speed>0.000000</speed>
</trkpt>
<trkpt lat="55.729568" lon="26.243643">
<ele>143.947388</ele>
<time>2010-07-17T10:16:22Z</time>
<desc>lat.=55.729568, lon.=26.243643, Alt.=143.947388m. Speed=0.000000m/h.</desc>
<speed>0.000000</speed>
</trkpt>
<trkpt lat="55.729568" lon="26.243641">
<ele>143.947388</ele>
<time>2010-07-17T10:16:23Z</time>
<desc>lat.=55.729568, lon.=26.243641, Alt.=143.947388m. Speed=0.036000m/h.</desc>
<speed>0.010000</speed>
</trkpt>
<trkpt lat="55.729568" lon="26.243643">
<ele>143.951294</ele>
<time>2010-07-17T10:16:24Z</time>
<desc>lat.=55.729568, lon.=26.243643, Alt.=143.951294m. Speed=0.000000m/h.</desc>
<speed>0.000000</speed>
</trkpt>
<trkpt lat="55.729568" lon="26.243643">
<ele>143.947388</ele>
<time>2010-07-17T10:16:25Z</time>
<desc>lat.=55.729568, lon.=26.243643, Alt.=143.947388m. Speed=0.036000m/h.</desc>
<speed>0.010000</speed>
</trkpt>
<trkpt lat="55.729568" lon="26.243643">
<ele>143.951294</ele>
<time>2010-07-17T10:16:26Z</time>
<desc>lat.=55.729568, lon.=26.243643, Alt.=143.951294m. Speed=0.072000m/h.</desc>
<speed>0.020000</speed>
</trkpt>
<trkpt lat="55.729568" lon="26.243643">
<ele>143.947388</ele>
<time>2010-07-17T10:16:27Z</time>
<desc>lat.=55.729568, lon.=26.243643, Alt.=143.947388m. Speed=0.036000m/h.</desc>
<speed>0.010000</speed>
</trkpt>
<trkpt lat="55.729568" lon="26.243643">
<ele>143.943481</ele>
<time>2010-07-17T10:16:28Z</time>
<desc>lat.=55.729568, lon.=26.243643, Alt.=143.943481m. Speed=0.036000m/h.</desc>
<speed>0.010000</speed>
</trkpt>
<trkpt lat="55.729568" lon="26.243643">
<ele>143.943481</ele>
<time>2010-07-17T10:16:29Z</time>
<desc>lat.=55.729568, lon.=26.243643, Alt.=143.943481m. Speed=0.036000m/h.</desc>
<speed>0.010000</speed>
</trkpt>
<trkpt lat="55.729568" lon="26.243643">
<ele>143.943481</ele>
<time>2010-07-17T10:16:30Z</time>
<desc>lat.=55.729568, lon.=26.243643, Alt.=143.943481m. Speed=0.000000m/h.</desc>
<speed>0.000000</speed>
</trkpt>
<trkpt lat="55.729568" lon="26.243643">
<ele>143.943481</ele>
<time>2010-07-17T10:16:31Z</time>
<desc>lat.=55.729568, lon.=26.243643, Alt.=143.943481m. Speed=0.036000m/h.</desc>
<speed>0.010000</speed>
</trkpt>
<trkpt lat="55.729568" lon="26.243643">
<ele>143.943481</ele>
<time>2010-07-17T10:16:32Z</time>
<desc>lat.=55.729568, lon.=26.243643, Alt.=143.943481m. Speed=0.072000m/h.</desc>
<speed>0.020000</speed>
</trkpt>
<trkpt lat="55.729568" lon="26.243643">
<ele>143.943481</ele>
<time>2010-07-17T10:16:33Z</time>
<desc>lat.=55.729568, lon.=26.243643, Alt.=143.943481m. Speed=0.072000m/h.</desc>
<speed>0.020000</speed>
</trkpt>
<trkpt lat="55.729568" lon="26.243643">
<ele>143.939575</ele>
<time>2010-07-17T10:16:34Z</time>
<desc>lat.=55.729568, lon.=26.243643, Alt.=143.939575m. Speed=0.036000m/h.</desc>
<speed>0.010000</speed>
</trkpt>
<trkpt lat="55.729568" lon="26.243643">
<ele>143.939575</ele>
<time>2010-07-17T10:16:35Z</time>
<desc>lat.=55.729568, lon.=26.243643, Alt.=143.939575m. Speed=0.072000m/h.</desc>
<speed>0.020000</speed>
</trkpt>
<trkpt lat="55.729568" lon="26.243643">
<ele>143.947388</ele>
<time>2010-07-17T10:16:36Z</time>
<desc>lat.=55.729568, lon.=26.243643, Alt.=143.947388m. Speed=0.000000m/h.</desc>
<speed>0.000000</speed>
</trkpt>
<trkpt lat="55.729568" lon="26.243643">
<ele>143.947388</ele>
<time>2010-07-17T10:16:37Z</time>
<desc>lat.=55.729568, lon.=26.243643, Alt.=143.947388m. Speed=0.036000m/h.</desc>
<speed>0.010000</speed>
</trkpt>
<trkpt lat="55.729568" lon="26.243643">
<ele>143.947388</ele>
<time>2010-07-17T10:16:38Z</time>
<desc>lat.=55.729568, lon.=26.243643, Alt.=143.947388m. Speed=0.000000m/h.</desc>
<speed>0.000000</speed>
</trkpt>
<trkpt lat="55.729568" lon="26.243643">
<ele>143.955200</ele>
<time>2010-07-17T10:16:39Z</time>
<desc>lat.=55.729568, lon.=26.243643, Alt.=143.955200m. Speed=0.072000m/h.</desc>
<speed>0.020000</speed>
</trkpt>
<trkpt lat="55.729568" lon="26.243643">
<ele>143.955200</ele>
<time>2010-07-17T10:16:40Z</time>
<desc>lat.=55.729568, lon.=26.243643, Alt.=143.955200m. Speed=0.000000m/h.</desc>
<speed>0.000000</speed>
</trkpt>
<trkpt lat="55.729568" lon="26.243643">
<ele>143.959106</ele>
<time>2010-07-17T10:16:41Z</time>
<desc>lat.=55.729568, lon.=26.243643, Alt.=143.959106m. Speed=0.036000m/h.</desc>
<speed>0.010000</speed>
</trkpt>
<trkpt lat="55.729568" lon="26.243643">
<ele>143.963013</ele>
<time>2010-07-17T10:16:42Z</time>
<desc>lat.=55.729568, lon.=26.243643, Alt.=143.963013m. Speed=0.036000m/h.</desc>
<speed>0.010000</speed>
</trkpt>
<trkpt lat="55.729568" lon="26.243643">
<ele>143.966919</ele>
<time>2010-07-17T10:16:43Z</time>
<desc>lat.=55.729568, lon.=26.243643, Alt.=143.966919m. Speed=0.108000m/h.</desc>
<speed>0.030000</speed>
</trkpt>
<trkpt lat="55.729568" lon="26.243643">
<ele>143.974731</ele>
<time>2010-07-17T10:16:44Z</time>
<desc>lat.=55.729568, lon.=26.243643, Alt.=143.974731m. Speed=0.000000m/h.</desc>
<speed>0.000000</speed>
</trkpt>
<trkpt lat="55.729568" lon="26.243643">
<ele>143.974731</ele>
<time>2010-07-17T10:16:45Z</time>
<desc>lat.=55.729568, lon.=26.243643, Alt.=143.974731m. Speed=0.036000m/h.</desc>
<speed>0.010000</speed>
</trkpt>
<trkpt lat="55.729568" lon="26.243643">
<ele>143.978638</ele>
<time>2010-07-17T10:16:46Z</time>
<desc>lat.=55.729568, lon.=26.243643, Alt.=143.978638m. Speed=0.036000m/h.</desc>
<speed>0.010000</speed>
</trkpt>
<trkpt lat="55.729568" lon="26.243643">
<ele>143.986450</ele>
<time>2010-07-17T10:16:47Z</time>
<desc>lat.=55.729568, lon.=26.243643, Alt.=143.986450m. Speed=0.036000m/h.</desc>
<speed>0.010000</speed>
</trkpt>
<trkpt lat="55.729568" lon="26.243643">
<ele>143.990356</ele>
<time>2010-07-17T10:16:48Z</time>
<desc>lat.=55.729568, lon.=26.243643, Alt.=143.990356m. Speed=0.036000m/h.</desc>
<speed>0.010000</speed>
</trkpt>
<trkpt lat="55.729568" lon="26.243643">
<ele>143.990356</ele>
<time>2010-07-17T10:16:49Z</time>
<desc>lat.=55.729568, lon.=26.243643, Alt.=143.990356m. Speed=0.000000m/h.</desc>
<speed>0.000000</speed>
</trkpt>
<trkpt lat="55.729568" lon="26.243643">
<ele>143.994263</ele>
<time>2010-07-17T10:16:50Z</time>
<desc>lat.=55.729568, lon.=26.243643, Alt.=143.994263m. Speed=0.036000m/h.</desc>
<speed>0.010000</speed>
</trkpt>
<trkpt lat="55.729568" lon="26.243643">
<ele>143.998169</ele>
<time>2010-07-17T10:16:51Z</time>
<desc>lat.=55.729568, lon.=26.243643, Alt.=143.998169m. Speed=0.036000m/h.</desc>
<speed>0.010000</speed>
</trkpt>
<trkpt lat="55.729568" lon="26.243643">
<ele>143.998169</ele>
<time>2010-07-17T10:16:52Z</time>
<desc>lat.=55.729568, lon.=26.243643, Alt.=143.998169m. Speed=0.000000m/h.</desc>
<speed>0.000000</speed>
</trkpt>
<trkpt lat="55.729568" lon="26.243643">
<ele>143.998169</ele>
<time>2010-07-17T10:16:53Z</time>
<desc>lat.=55.729568, lon.=26.243643, Alt.=143.998169m. Speed=0.072000m/h.</desc>
<speed>0.020000</speed>
</trkpt>
<trkpt lat="55.729568" lon="26.243643">
<ele>144.002075</ele>
<time>2010-07-17T10:16:54Z</time>
<desc>lat.=55.729568, lon.=26.243643, Alt.=144.002075m. Speed=0.036000m/h.</desc>
<speed>0.010000</speed>
</trkpt>
<trkpt lat="55.729568" lon="26.243643">
<ele>144.005981</ele>
<time>2010-07-17T10:16:55Z</time>
<desc>lat.=55.729568, lon.=26.243643, Alt.=144.005981m. Speed=0.000000m/h.</desc>
<speed>0.000000</speed>
</trkpt>
<trkpt lat="55.729568" lon="26.243643">
<ele>144.005981</ele>
<time>2010-07-17T10:16:56Z</time>
<desc>lat.=55.729568, lon.=26.243643, Alt.=144.005981m. Speed=0.036000m/h.</desc>
<speed>0.010000</speed>
</trkpt>
<trkpt lat="55.729568" lon="26.243643">
<ele>144.005981</ele>
<time>2010-07-17T10:16:57Z</time>
<desc>lat.=55.729568, lon.=26.243643, Alt.=144.005981m. Speed=0.072000m/h.</desc>
<speed>0.020000</speed>
</trkpt>
<trkpt lat="55.729568" lon="26.243643">
<ele>144.002075</ele>
<time>2010-07-17T10:16:58Z</time>
<desc>lat.=55.729568, lon.=26.243643, Alt.=144.002075m. Speed=0.180000m/h.</desc>
<speed>0.050000</speed>
</trkpt>
<trkpt lat="55.729568" lon="26.243643">
<ele>144.005981</ele>
<time>2010-07-17T10:16:59Z</time>
<desc>lat.=55.729568, lon.=26.243643, Alt.=144.005981m. Speed=0.072000m/h.</desc>
<speed>0.020000</speed>
</trkpt>
<trkpt lat="55.729568" lon="26.243643">
<ele>144.009888</ele>
<time>2010-07-17T10:17:00Z</time>
<desc>lat.=55.729568, lon.=26.243643, Alt.=144.009888m. Speed=0.108000m/h.</desc>
<speed>0.030000</speed>
</trkpt>
<trkpt lat="55.729568" lon="26.243643">
<ele>144.013794</ele>
<time>2010-07-17T10:17:01Z</time>
<desc>lat.=55.729568, lon.=26.243643, Alt.=144.013794m. Speed=0.072000m/h.</desc>
<speed>0.020000</speed>
</trkpt>
<trkpt lat="55.729568" lon="26.243643">
<ele>144.017700</ele>
<time>2010-07-17T10:17:02Z</time>
<desc>lat.=55.729568, lon.=26.243643, Alt.=144.017700m. Speed=0.072000m/h.</desc>
<speed>0.020000</speed>
</trkpt>
<trkpt lat="55.729568" lon="26.243643">
<ele>144.021606</ele>
<time>2010-07-17T10:17:03Z</time>
<desc>lat.=55.729568, lon.=26.243643, Alt.=144.021606m. Speed=0.036000m/h.</desc>
<speed>0.010000</speed>
</trkpt>
<trkpt lat="55.729568" lon="26.243645">
<ele>144.029419</ele>
<time>2010-07-17T10:17:04Z</time>
<desc>lat.=55.729568, lon.=26.243645, Alt.=144.029419m. Speed=0.144000m/h.</desc>
<speed>0.040000</speed>
</trkpt>
<trkpt lat="55.729568" lon="26.243645">
<ele>144.033325</ele>
<time>2010-07-17T10:17:05Z</time>
<desc>lat.=55.729568, lon.=26.243645, Alt.=144.033325m. Speed=0.144000m/h.</desc>
<speed>0.040000</speed>
</trkpt>
<trkpt lat="55.729568" lon="26.243645">
<ele>144.033325</ele>
<time>2010-07-17T10:17:06Z</time>
<desc>lat.=55.729568, lon.=26.243645, Alt.=144.033325m. Speed=0.108000m/h.</desc>
<speed>0.030000</speed>
</trkpt>
<trkpt lat="55.729568" lon="26.243645">
<ele>144.033325</ele>
<time>2010-07-17T10:17:07Z</time>
<desc>lat.=55.729568, lon.=26.243645, Alt.=144.033325m. Speed=0.108000m/h.</desc>
<speed>0.030000</speed>
</trkpt>
<trkpt lat="55.729568" lon="26.243645">
<ele>144.037231</ele>
<time>2010-07-17T10:17:08Z</time>
<desc>lat.=55.729568, lon.=26.243645, Alt.=144.037231m. Speed=0.144000m/h.</desc>
<speed>0.040000</speed>
</trkpt>
<trkpt lat="55.729568" lon="26.243645">
<ele>144.037231</ele>
<time>2010-07-17T10:17:09Z</time>
<desc>lat.=55.729568, lon.=26.243645, Alt.=144.037231m. Speed=0.072000m/h.</desc>
<speed>0.020000</speed>
</trkpt>
<trkpt lat="55.729568" lon="26.243645">
<ele>144.037231</ele>
<time>2010-07-17T10:17:10Z</time>
<desc>lat.=55.729568, lon.=26.243645, Alt.=144.037231m. Speed=0.072000m/h.</desc>
<speed>0.020000</speed>
</trkpt>
<trkpt lat="55.729568" lon="26.243645">
<ele>144.037231</ele>
<time>2010-07-17T10:17:11Z</time>
<desc>lat.=55.729568, lon.=26.243645, Alt.=144.037231m. Speed=0.036000m/h.</desc>
<speed>0.010000</speed>
</trkpt>
<trkpt lat="55.729568" lon="26.243645">
<ele>144.041138</ele>
<time>2010-07-17T10:17:12Z</time>
<desc>lat.=55.729568, lon.=26.243645, Alt.=144.041138m. Speed=0.072000m/h.</desc>
<speed>0.020000</speed>
</trkpt>
<trkpt lat="55.729568" lon="26.243645">
<ele>144.041138</ele>
<time>2010-07-17T10:17:13Z</time>
<desc>lat.=55.729568, lon.=26.243645, Alt.=144.041138m. Speed=0.036000m/h.</desc>
<speed>0.010000</speed>
</trkpt>
<trkpt lat="55.729568" lon="26.243645">
<ele>144.041138</ele>
<time>2010-07-17T10:17:14Z</time>
<desc>lat.=55.729568, lon.=26.243645, Alt.=144.041138m. Speed=0.108000m/h.</desc>
<speed>0.030000</speed>
</trkpt>
<trkpt lat="55.729568" lon="26.243645">
<ele>144.045044</ele>
<time>2010-07-17T10:17:15Z</time>
<desc>lat.=55.729568, lon.=26.243645, Alt.=144.045044m. Speed=0.216000m/h.</desc>
<speed>0.060000</speed>
</trkpt>
<trkpt lat="55.729568" lon="26.243645">
<ele>144.052856</ele>
<time>2010-07-17T10:17:16Z</time>
<desc>lat.=55.729568, lon.=26.243645, Alt.=144.052856m. Speed=0.072000m/h.</desc>
<speed>0.020000</speed>
</trkpt>
<trkpt lat="55.729568" lon="26.243645">
<ele>144.048950</ele>
<time>2010-07-17T10:17:17Z</time>
<desc>lat.=55.729568, lon.=26.243645, Alt.=144.048950m. Speed=0.108000m/h.</desc>
<speed>0.030000</speed>
</trkpt>
<trkpt lat="55.729568" lon="26.243645">
<ele>144.048950</ele>
<time>2010-07-17T10:17:18Z</time>
<desc>lat.=55.729568, lon.=26.243645, Alt.=144.048950m. Speed=0.180000m/h.</desc>
<speed>0.050000</speed>
</trkpt>
<trkpt lat="55.729568" lon="26.243645">
<ele>144.052856</ele>
<time>2010-07-17T10:17:19Z</time>
<desc>lat.=55.729568, lon.=26.243645, Alt.=144.052856m. Speed=0.108000m/h.</desc>
<speed>0.030000</speed>
</trkpt>
<trkpt lat="55.729568" lon="26.243645">
<ele>144.052856</ele>
<time>2010-07-17T10:17:20Z</time>
<desc>lat.=55.729568, lon.=26.243645, Alt.=144.052856m. Speed=0.072000m/h.</desc>
<speed>0.020000</speed>
</trkpt>
<trkpt lat="55.729568" lon="26.243645">
<ele>144.052856</ele>
<time>2010-07-17T10:17:21Z</time>
<desc>lat.=55.729568, lon.=26.243645, Alt.=144.052856m. Speed=0.072000m/h.</desc>
<speed>0.020000</speed>
</trkpt>
<trkpt lat="55.729568" lon="26.243647">
<ele>144.052856</ele>
<time>2010-07-17T10:17:22Z</time>
<desc>lat.=55.729568, lon.=26.243647, Alt.=144.052856m. Speed=0.144000m/h.</desc>
<speed>0.040000</speed>
</trkpt>
<trkpt lat="55.729568" lon="26.243647">
<ele>144.056763</ele>
<time>2010-07-17T10:17:23Z</time>
<desc>lat.=55.729568, lon.=26.243647, Alt.=144.056763m. Speed=0.072000m/h.</desc>
<speed>0.020000</speed>
</trkpt>
<trkpt lat="55.729568" lon="26.243647">
<ele>144.060669</ele>
<time>2010-07-17T10:17:24Z</time>
<desc>lat.=55.729568, lon.=26.243647, Alt.=144.060669m. Speed=0.108000m/h.</desc>
<speed>0.030000</speed>
</trkpt>
<trkpt lat="55.729565" lon="26.243647">
<ele>144.064575</ele>
<time>2010-07-17T10:17:25Z</time>
<desc>lat.=55.729565, lon.=26.243647, Alt.=144.064575m. Speed=0.072000m/h.</desc>
<speed>0.020000</speed>
</trkpt>
<trkpt lat="55.729565" lon="26.243647">
<ele>144.072388</ele>
<time>2010-07-17T10:17:26Z</time>
<desc>lat.=55.729565, lon.=26.243647, Alt.=144.072388m. Speed=0.144000m/h.</desc>
<speed>0.040000</speed>
</trkpt>
<trkpt lat="55.729565" lon="26.243647">
<ele>144.076294</ele>
<time>2010-07-17T10:17:27Z</time>
<desc>lat.=55.729565, lon.=26.243647, Alt.=144.076294m. Speed=0.144000m/h.</desc>
<speed>0.040000</speed>
</trkpt>
<trkpt lat="55.729565" lon="26.243647">
<ele>144.076294</ele>
<time>2010-07-17T10:17:28Z</time>
<desc>lat.=55.729565, lon.=26.243647, Alt.=144.076294m. Speed=0.180000m/h.</desc>
<speed>0.050000</speed>
</trkpt>
<trkpt lat="55.729565" lon="26.243647">
<ele>144.076294</ele>
<time>2010-07-17T10:17:29Z</time>
<desc>lat.=55.729565, lon.=26.243647, Alt.=144.076294m. Speed=0.144000m/h.</desc>
<speed>0.040000</speed>
</trkpt>
<trkpt lat="55.729565" lon="26.243647">
<ele>144.080200</ele>
<time>2010-07-17T10:17:30Z</time>
<desc>lat.=55.729565, lon.=26.243647, Alt.=144.080200m. Speed=0.144000m/h.</desc>
<speed>0.040000</speed>
</trkpt>
<trkpt lat="55.729565" lon="26.243647">
<ele>144.084106</ele>
<time>2010-07-17T10:17:31Z</time>
<desc>lat.=55.729565, lon.=26.243647, Alt.=144.084106m. Speed=0.036000m/h.</desc>
<speed>0.010000</speed>
</trkpt>
<trkpt lat="55.729565" lon="26.243649">
<ele>144.088013</ele>
<time>2010-07-17T10:17:32Z</time>
<desc>lat.=55.729565, lon.=26.243649, Alt.=144.088013m. Speed=0.108000m/h.</desc>
<speed>0.030000</speed>
</trkpt>
<trkpt lat="55.729565" lon="26.243649">
<ele>144.088013</ele>
<time>2010-07-17T10:17:33Z</time>
<desc>lat.=55.729565, lon.=26.243649, Alt.=144.088013m. Speed=0.108000m/h.</desc>
<speed>0.030000</speed>
</trkpt>
<trkpt lat="55.729565" lon="26.243649">
<ele>144.091919</ele>
<time>2010-07-17T10:17:34Z</time>
<desc>lat.=55.729565, lon.=26.243649, Alt.=144.091919m. Speed=0.144000m/h.</desc>
<speed>0.040000</speed>
</trkpt>
<trkpt lat="55.729565" lon="26.243649">
<ele>144.084106</ele>
<time>2010-07-17T10:17:35Z</time>
<desc>lat.=55.729565, lon.=26.243649, Alt.=144.084106m. Speed=0.036000m/h.</desc>
<speed>0.010000</speed>
</trkpt>
<trkpt lat="55.729565" lon="26.243649">
<ele>144.076294</ele>
<time>2010-07-17T10:17:36Z</time>
<desc>lat.=55.729565, lon.=26.243649, Alt.=144.076294m. Speed=0.036000m/h.</desc>
<speed>0.010000</speed>
</trkpt>
<trkpt lat="55.729565" lon="26.243649">
<ele>144.076294</ele>
<time>2010-07-17T10:17:37Z</time>
<desc>lat.=55.729565, lon.=26.243649, Alt.=144.076294m. Speed=0.000000m/h.</desc>
<speed>0.000000</speed>
</trkpt>
<trkpt lat="55.729565" lon="26.243649">
<ele>144.072388</ele>
<time>2010-07-17T10:17:38Z</time>
<desc>lat.=55.729565, lon.=26.243649, Alt.=144.072388m. Speed=0.072000m/h.</desc>
<speed>0.020000</speed>
</trkpt>
<trkpt lat="55.729565" lon="26.243649">
<ele>144.068481</ele>
<time>2010-07-17T10:17:39Z</time>
<desc>lat.=55.729565, lon.=26.243649, Alt.=144.068481m. Speed=0.072000m/h.</desc>
<speed>0.020000</speed>
</trkpt>
<trkpt lat="55.729565" lon="26.243649">
<ele>144.068481</ele>
<time>2010-07-17T10:17:40Z</time>
<desc>lat.=55.729565, lon.=26.243649, Alt.=144.068481m. Speed=0.108000m/h.</desc>
<speed>0.030000</speed>
</trkpt>
<trkpt lat="55.729565" lon="26.243649">
<ele>144.080200</ele>
<time>2010-07-17T10:17:41Z</time>
<desc>lat.=55.729565, lon.=26.243649, Alt.=144.080200m. Speed=0.072000m/h.</desc>
<speed>0.020000</speed>
</trkpt>
<trkpt lat="55.729565" lon="26.243649">
<ele>144.091919</ele>
<time>2010-07-17T10:17:42Z</time>
<desc>lat.=55.729565, lon.=26.243649, Alt.=144.091919m. Speed=0.108000m/h.</desc>
<speed>0.030000</speed>
</trkpt>
<trkpt lat="55.729565" lon="26.243649">
<ele>144.099731</ele>
<time>2010-07-17T10:17:43Z</time>
<desc>lat.=55.729565, lon.=26.243649, Alt.=144.099731m. Speed=0.108000m/h.</desc>
<speed>0.030000</speed>
</trkpt>
<trkpt lat="55.729565" lon="26.243649">
<ele>144.099731</ele>
<time>2010-07-17T10:17:44Z</time>
<desc>lat.=55.729565, lon.=26.243649, Alt.=144.099731m. Speed=0.072000m/h.</desc>
<speed>0.020000</speed>
</trkpt>
<trkpt lat="55.729565" lon="26.243649">
<ele>144.095825</ele>
<time>2010-07-17T10:17:45Z</time>
<desc>lat.=55.729565, lon.=26.243649, Alt.=144.095825m. Speed=0.072000m/h.</desc>
<speed>0.020000</speed>
</trkpt>
<trkpt lat="55.729565" lon="26.243649">
<ele>144.095825</ele>
<time>2010-07-17T10:17:46Z</time>
<desc>lat.=55.729565, lon.=26.243649, Alt.=144.095825m. Speed=0.036000m/h.</desc>
<speed>0.010000</speed>
</trkpt>
<trkpt lat="55.729565" lon="26.243649">
<ele>144.095825</ele>
<time>2010-07-17T10:17:47Z</time>
<desc>lat.=55.729565, lon.=26.243649, Alt.=144.095825m. Speed=0.216000m/h.</desc>
<speed>0.060000</speed>
</trkpt>
<trkpt lat="55.729565" lon="26.243649">
<ele>144.091919</ele>
<time>2010-07-17T10:17:48Z</time>
<desc>lat.=55.729565, lon.=26.243649, Alt.=144.091919m. Speed=0.144000m/h.</desc>
<speed>0.040000</speed>
</trkpt>
<trkpt lat="55.729565" lon="26.243649">
<ele>144.095825</ele>
<time>2010-07-17T10:17:49Z</time>
<desc>lat.=55.729565, lon.=26.243649, Alt.=144.095825m. Speed=0.144000m/h.</desc>
<speed>0.040000</speed>
</trkpt>
<trkpt lat="55.729565" lon="26.243650">
<ele>144.099731</ele>
<time>2010-07-17T10:17:50Z</time>
<desc>lat.=55.729565, lon.=26.243650, Alt.=144.099731m. Speed=0.252000m/h.</desc>
<speed>0.070000</speed>
</trkpt>
<trkpt lat="55.729565" lon="26.243650">
<ele>144.103638</ele>
<time>2010-07-17T10:17:51Z</time>
<desc>lat.=55.729565, lon.=26.243650, Alt.=144.103638m. Speed=0.180000m/h.</desc>
<speed>0.050000</speed>
</trkpt>
<trkpt lat="55.729565" lon="26.243650">
<ele>144.103638</ele>
<time>2010-07-17T10:17:52Z</time>
<desc>lat.=55.729565, lon.=26.243650, Alt.=144.103638m. Speed=0.144000m/h.</desc>
<speed>0.040000</speed>
</trkpt>
<trkpt lat="55.729561" lon="26.243650">
<ele>144.107544</ele>
<time>2010-07-17T10:17:53Z</time>
<desc>lat.=55.729561, lon.=26.243650, Alt.=144.107544m. Speed=0.144000m/h.</desc>
<speed>0.040000</speed>
</trkpt>
<trkpt lat="55.729561" lon="26.243650">
<ele>144.111450</ele>
<time>2010-07-17T10:17:54Z</time>
<desc>lat.=55.729561, lon.=26.243650, Alt.=144.111450m. Speed=0.216000m/h.</desc>
<speed>0.060000</speed>
</trkpt>
<trkpt lat="55.729561" lon="26.243650">
<ele>144.107544</ele>
<time>2010-07-17T10:17:55Z</time>
<desc>lat.=55.729561, lon.=26.243650, Alt.=144.107544m. Speed=0.108000m/h.</desc>
<speed>0.030000</speed>
</trkpt>
<trkpt lat="55.729561" lon="26.243650">
<ele>144.103638</ele>
<time>2010-07-17T10:17:56Z</time>
<desc>lat.=55.729561, lon.=26.243650, Alt.=144.103638m. Speed=0.180000m/h.</desc>
<speed>0.050000</speed>
</trkpt>
<trkpt lat="55.729561" lon="26.243652">
<ele>144.099731</ele>
<time>2010-07-17T10:17:57Z</time>
<desc>lat.=55.729561, lon.=26.243652, Alt.=144.099731m. Speed=0.144000m/h.</desc>
<speed>0.040000</speed>
</trkpt>
<trkpt lat="55.729561" lon="26.243652">
<ele>144.103638</ele>
<time>2010-07-17T10:17:58Z</time>
<desc>lat.=55.729561, lon.=26.243652, Alt.=144.103638m. Speed=0.180000m/h.</desc>
<speed>0.050000</speed>
</trkpt>
<trkpt lat="55.729561" lon="26.243652">
<ele>144.111450</ele>
<time>2010-07-17T10:17:59Z</time>
<desc>lat.=55.729561, lon.=26.243652, Alt.=144.111450m. Speed=0.036000m/h.</desc>
<speed>0.010000</speed>
</trkpt>
<trkpt lat="55.729561" lon="26.243652">
<ele>144.119263</ele>
<time>2010-07-17T10:18:00Z</time>
<desc>lat.=55.729561, lon.=26.243652, Alt.=144.119263m. Speed=0.000000m/h.</desc>
<speed>0.000000</speed>
</trkpt>
<trkpt lat="55.729561" lon="26.243652">
<ele>144.115356</ele>
<time>2010-07-17T10:18:01Z</time>
<desc>lat.=55.729561, lon.=26.243652, Alt.=144.115356m. Speed=0.216000m/h.</desc>
<speed>0.060000</speed>
</trkpt>
<trkpt lat="55.729561" lon="26.243652">
<ele>144.119263</ele>
<time>2010-07-17T10:18:02Z</time>
<desc>lat.=55.729561, lon.=26.243652, Alt.=144.119263m. Speed=0.180000m/h.</desc>
<speed>0.050000</speed>
</trkpt>
<trkpt lat="55.729561" lon="26.243652">
<ele>144.111450</ele>
<time>2010-07-17T10:18:03Z</time>
<desc>lat.=55.729561, lon.=26.243652, Alt.=144.111450m. Speed=0.108000m/h.</desc>
<speed>0.030000</speed>
</trkpt>
<trkpt lat="55.729561" lon="26.243652">
<ele>144.111450</ele>
<time>2010-07-17T10:18:04Z</time>
<desc>lat.=55.729561, lon.=26.243652, Alt.=144.111450m. Speed=0.180000m/h.</desc>
<speed>0.050000</speed>
</trkpt>
<trkpt lat="55.729561" lon="26.243652">
<ele>144.111450</ele>
<time>2010-07-17T10:18:05Z</time>
<desc>lat.=55.729561, lon.=26.243652, Alt.=144.111450m. Speed=0.072000m/h.</desc>
<speed>0.020000</speed>
</trkpt>
<trkpt lat="55.729561" lon="26.243654">
<ele>144.123169</ele>
<time>2010-07-17T10:18:06Z</time>
<desc>lat.=55.729561, lon.=26.243654, Alt.=144.123169m. Speed=0.108000m/h.</desc>
<speed>0.030000</speed>
</trkpt>
<trkpt lat="55.729561" lon="26.243654">
<ele>144.127075</ele>
<time>2010-07-17T10:18:07Z</time>
<desc>lat.=55.729561, lon.=26.243654, Alt.=144.127075m. Speed=0.036000m/h.</desc>
<speed>0.010000</speed>
</trkpt>
<trkpt lat="55.729561" lon="26.243654">
<ele>144.134888</ele>
<time>2010-07-17T10:18:08Z</time>
<desc>lat.=55.729561, lon.=26.243654, Alt.=144.134888m. Speed=0.036000m/h.</desc>
<speed>0.010000</speed>
</trkpt>
<trkpt lat="55.729561" lon="26.243654">
<ele>144.134888</ele>
<time>2010-07-17T10:18:09Z</time>
<desc>lat.=55.729561, lon.=26.243654, Alt.=144.134888m. Speed=0.036000m/h.</desc>
<speed>0.010000</speed>
</trkpt>
<trkpt lat="55.729561" lon="26.243654">
<ele>144.142700</ele>
<time>2010-07-17T10:18:10Z</time>
<desc>lat.=55.729561, lon.=26.243654, Alt.=144.142700m. Speed=0.072000m/h.</desc>
<speed>0.020000</speed>
</trkpt>
<trkpt lat="55.729561" lon="26.243654">
<ele>144.154419</ele>
<time>2010-07-17T10:18:11Z</time>
<desc>lat.=55.729561, lon.=26.243654, Alt.=144.154419m. Speed=0.036000m/h.</desc>
<speed>0.010000</speed>
</trkpt>
<trkpt lat="55.729561" lon="26.243654">
<ele>144.158325</ele>
<time>2010-07-17T10:18:12Z</time>
<desc>lat.=55.729561, lon.=26.243654, Alt.=144.158325m. Speed=0.108000m/h.</desc>
<speed>0.030000</speed>
</trkpt>
<trkpt lat="55.729561" lon="26.243654">
<ele>144.158325</ele>
<time>2010-07-17T10:18:13Z</time>
<desc>lat.=55.729561, lon.=26.243654, Alt.=144.158325m. Speed=0.108000m/h.</desc>
<speed>0.030000</speed>
</trkpt>
<trkpt lat="55.729561" lon="26.243656">
<ele>144.162231</ele>
<time>2010-07-17T10:18:14Z</time>
<desc>lat.=55.729561, lon.=26.243656, Alt.=144.162231m. Speed=0.144000m/h.</desc>
<speed>0.040000</speed>
</trkpt>
<trkpt lat="55.729561" lon="26.243656">
<ele>144.162231</ele>
<time>2010-07-17T10:18:15Z</time>
<desc>lat.=55.729561, lon.=26.243656, Alt.=144.162231m. Speed=0.072000m/h.</desc>
<speed>0.020000</speed>
</trkpt>
<trkpt lat="55.729561" lon="26.243656">
<ele>144.166138</ele>
<time>2010-07-17T10:18:16Z</time>
<desc>lat.=55.729561, lon.=26.243656, Alt.=144.166138m. Speed=0.072000m/h.</desc>
<speed>0.020000</speed>
</trkpt>
<trkpt lat="55.729561" lon="26.243656">
<ele>144.162231</ele>
<time>2010-07-17T10:18:17Z</time>
<desc>lat.=55.729561, lon.=26.243656, Alt.=144.162231m. Speed=0.000000m/h.</desc>
<speed>0.000000</speed>
</trkpt>
<trkpt lat="55.729561" lon="26.243656">
<ele>144.162231</ele>
<time>2010-07-17T10:18:18Z</time>
<desc>lat.=55.729561, lon.=26.243656, Alt.=144.162231m. Speed=0.072000m/h.</desc>
<speed>0.020000</speed>
</trkpt>
<trkpt lat="55.729561" lon="26.243656">
<ele>144.166138</ele>
<time>2010-07-17T10:18:19Z</time>
<desc>lat.=55.729561, lon.=26.243656, Alt.=144.166138m. Speed=0.108000m/h.</desc>
<speed>0.030000</speed>
</trkpt>
<trkpt lat="55.729561" lon="26.243656">
<ele>144.170044</ele>
<time>2010-07-17T10:18:20Z</time>
<desc>lat.=55.729561, lon.=26.243656, Alt.=144.170044m. Speed=0.108000m/h.</desc>
<speed>0.030000</speed>
</trkpt>
<trkpt lat="55.729561" lon="26.243656">
<ele>144.177856</ele>
<time>2010-07-17T10:18:21Z</time>
<desc>lat.=55.729561, lon.=26.243656, Alt.=144.177856m. Speed=0.000000m/h.</desc>
<speed>0.000000</speed>
</trkpt>
<trkpt lat="55.729561" lon="26.243658">
<ele>144.181763</ele>
<time>2010-07-17T10:18:22Z</time>
<desc>lat.=55.729561, lon.=26.243658, Alt.=144.181763m. Speed=0.180000m/h.</desc>
<speed>0.050000</speed>
</trkpt>
<trkpt lat="55.729561" lon="26.243658">
<ele>144.185669</ele>
<time>2010-07-17T10:18:23Z</time>
<desc>lat.=55.729561, lon.=26.243658, Alt.=144.185669m. Speed=0.108000m/h.</desc>
<speed>0.030000</speed>
</trkpt>
<trkpt lat="55.729561" lon="26.243658">
<ele>144.185669</ele>
<time>2010-07-17T10:18:24Z</time>
<desc>lat.=55.729561, lon.=26.243658, Alt.=144.185669m. Speed=0.108000m/h.</desc>
<speed>0.030000</speed>
</trkpt>
<trkpt lat="55.729561" lon="26.243658">
<ele>144.181763</ele>
<time>2010-07-17T10:18:25Z</time>
<desc>lat.=55.729561, lon.=26.243658, Alt.=144.181763m. Speed=0.036000m/h.</desc>
<speed>0.010000</speed>
</trkpt>
<trkpt lat="55.729561" lon="26.243658">
<ele>144.177856</ele>
<time>2010-07-17T10:18:26Z</time>
<desc>lat.=55.729561, lon.=26.243658, Alt.=144.177856m. Speed=0.180000m/h.</desc>
<speed>0.050000</speed>
</trkpt>
<trkpt lat="55.729561" lon="26.243658">
<ele>144.173950</ele>
<time>2010-07-17T10:18:27Z</time>
<desc>lat.=55.729561, lon.=26.243658, Alt.=144.173950m. Speed=0.072000m/h.</desc>
<speed>0.020000</speed>
</trkpt>
<trkpt lat="55.729561" lon="26.243658">
<ele>144.177856</ele>
<time>2010-07-17T10:18:28Z</time>
<desc>lat.=55.729561, lon.=26.243658, Alt.=144.177856m. Speed=0.072000m/h.</desc>
<speed>0.020000</speed>
</trkpt>
<trkpt lat="55.729561" lon="26.243658">
<ele>144.177856</ele>
<time>2010-07-17T10:18:29Z</time>
<desc>lat.=55.729561, lon.=26.243658, Alt.=144.177856m. Speed=0.072000m/h.</desc>
<speed>0.020000</speed>
</trkpt>
<trkpt lat="55.729561" lon="26.243658">
<ele>144.185669</ele>
<time>2010-07-17T10:18:30Z</time>
<desc>lat.=55.729561, lon.=26.243658, Alt.=144.185669m. Speed=0.000000m/h.</desc>
<speed>0.000000</speed>
</trkpt>
<trkpt lat="55.729557" lon="26.243658">
<ele>144.193481</ele>
<time>2010-07-17T10:18:31Z</time>
<desc>lat.=55.729557, lon.=26.243658, Alt.=144.193481m. Speed=0.072000m/h.</desc>
<speed>0.020000</speed>
</trkpt>
<trkpt lat="55.729557" lon="26.243658">
<ele>144.201294</ele>
<time>2010-07-17T10:18:32Z</time>
<desc>lat.=55.729557, lon.=26.243658, Alt.=144.201294m. Speed=0.144000m/h.</desc>
<speed>0.040000</speed>
</trkpt>
<trkpt lat="55.729557" lon="26.243660">
<ele>144.205200</ele>
<time>2010-07-17T10:18:33Z</time>
<desc>lat.=55.729557, lon.=26.243660, Alt.=144.205200m. Speed=0.072000m/h.</desc>
<speed>0.020000</speed>
</trkpt>
<trkpt lat="55.729557" lon="26.243660">
<ele>144.213013</ele>
<time>2010-07-17T10:18:34Z</time>
<desc>lat.=55.729557, lon.=26.243660, Alt.=144.213013m. Speed=0.108000m/h.</desc>
<speed>0.030000</speed>
</trkpt>
<trkpt lat="55.729557" lon="26.243660">
<ele>144.220825</ele>
<time>2010-07-17T10:18:35Z</time>
<desc>lat.=55.729557, lon.=26.243660, Alt.=144.220825m. Speed=0.144000m/h.</desc>
<speed>0.040000</speed>
</trkpt>
<trkpt lat="55.729557" lon="26.243662">
<ele>144.224731</ele>
<time>2010-07-17T10:18:36Z</time>
<desc>lat.=55.729557, lon.=26.243662, Alt.=144.224731m. Speed=0.216000m/h.</desc>
<speed>0.060000</speed>
</trkpt>
<trkpt lat="55.729557" lon="26.243662">
<ele>144.232544</ele>
<time>2010-07-17T10:18:37Z</time>
<desc>lat.=55.729557, lon.=26.243662, Alt.=144.232544m. Speed=0.252000m/h.</desc>
<speed>0.070000</speed>
</trkpt>
<trkpt lat="55.729557" lon="26.243664">
<ele>144.236450</ele>
<time>2010-07-17T10:18:38Z</time>
<desc>lat.=55.729557, lon.=26.243664, Alt.=144.236450m. Speed=0.360000m/h.</desc>
<speed>0.100000</speed>
</trkpt>
<trkpt lat="55.729557" lon="26.243666">
<ele>144.244263</ele>
<time>2010-07-17T10:18:39Z</time>
<desc>lat.=55.729557, lon.=26.243666, Alt.=144.244263m. Speed=0.468000m/h.</desc>
<speed>0.130000</speed>
</trkpt>
<trkpt lat="55.729557" lon="26.243668">
<ele>144.248169</ele>
<time>2010-07-17T10:18:40Z</time>
<desc>lat.=55.729557, lon.=26.243668, Alt.=144.248169m. Speed=0.648000m/h.</desc>
<speed>0.180000</speed>
</trkpt>
<trkpt lat="55.729553" lon="26.243670">
<ele>144.252075</ele>
<time>2010-07-17T10:18:41Z</time>
<desc>lat.=55.729553, lon.=26.243670, Alt.=144.252075m. Speed=0.792000m/h.</desc>
<speed>0.220000</speed>
</trkpt>
<trkpt lat="55.729553" lon="26.243671">
<ele>144.259888</ele>
<time>2010-07-17T10:18:42Z</time>
<desc>lat.=55.729553, lon.=26.243671, Alt.=144.259888m. Speed=0.972000m/h.</desc>
<speed>0.270000</speed>
</trkpt>
<trkpt lat="55.729549" lon="26.243675">
<ele>144.263794</ele>
<time>2010-07-17T10:18:43Z</time>
<desc>lat.=55.729549, lon.=26.243675, Alt.=144.263794m. Speed=0.972000m/h.</desc>
<speed>0.270000</speed>
</trkpt>
<trkpt lat="55.729549" lon="26.243677">
<ele>144.267700</ele>
<time>2010-07-17T10:18:44Z</time>
<desc>lat.=55.729549, lon.=26.243677, Alt.=144.267700m. Speed=0.972000m/h.</desc>
<speed>0.270000</speed>
</trkpt>
<trkpt lat="55.729546" lon="26.243679">
<ele>144.263794</ele>
<time>2010-07-17T10:18:45Z</time>
<desc>lat.=55.729546, lon.=26.243679, Alt.=144.263794m. Speed=1.008000m/h.</desc>
<speed>0.280000</speed>
</trkpt>
<trkpt lat="55.729546" lon="26.243681">
<ele>144.255981</ele>
<time>2010-07-17T10:18:46Z</time>
<desc>lat.=55.729546, lon.=26.243681, Alt.=144.255981m. Speed=0.792000m/h.</desc>
<speed>0.220000</speed>
</trkpt>
<trkpt lat="55.729542" lon="26.243683">
<ele>144.252075</ele>
<time>2010-07-17T10:18:47Z</time>
<desc>lat.=55.729542, lon.=26.243683, Alt.=144.252075m. Speed=0.864000m/h.</desc>
<speed>0.240000</speed>
</trkpt>
<trkpt lat="55.729542" lon="26.243685">
<ele>144.248169</ele>
<time>2010-07-17T10:18:48Z</time>
<desc>lat.=55.729542, lon.=26.243685, Alt.=144.248169m. Speed=1.044000m/h.</desc>
<speed>0.290000</speed>
</trkpt>
<trkpt lat="55.729538" lon="26.243687">
<ele>144.244263</ele>
<time>2010-07-17T10:18:49Z</time>
<desc>lat.=55.729538, lon.=26.243687, Alt.=144.244263m. Speed=1.188000m/h.</desc>
<speed>0.330000</speed>
</trkpt>
<trkpt lat="55.729523" lon="26.243704">
<ele>144.599731</ele>
<time>2010-07-17T10:18:50Z</time>
<desc>lat.=55.729523, lon.=26.243704, Alt.=144.599731m. Speed=1.332000m/h.</desc>
<speed>0.370000</speed>
</trkpt>
<trkpt lat="55.729515" lon="26.243711">
<ele>144.759888</ele>
<time>2010-07-17T10:18:51Z</time>
<desc>lat.=55.729515, lon.=26.243711, Alt.=144.759888m. Speed=1.368000m/h.</desc>
<speed>0.380000</speed>
</trkpt>
<trkpt lat="55.729507" lon="26.243721">
<ele>144.908325</ele>
<time>2010-07-17T10:18:52Z</time>
<desc>lat.=55.729507, lon.=26.243721, Alt.=144.908325m. Speed=1.368000m/h.</desc>
<speed>0.380000</speed>
</trkpt>
<trkpt lat="55.729500" lon="26.243729">
<ele>145.107544</ele>
<time>2010-07-17T10:18:53Z</time>
<desc>lat.=55.729500, lon.=26.243729, Alt.=145.107544m. Speed=1.476000m/h.</desc>
<speed>0.410000</speed>
</trkpt>
<trkpt lat="55.729492" lon="26.243736">
<ele>145.306763</ele>
<time>2010-07-17T10:18:54Z</time>
<desc>lat.=55.729492, lon.=26.243736, Alt.=145.306763m. Speed=1.512000m/h.</desc>
<speed>0.420000</speed>
</trkpt>
<trkpt lat="55.729488" lon="26.243740">
<ele>145.248169</ele>
<time>2010-07-17T10:18:55Z</time>
<desc>lat.=55.729488, lon.=26.243740, Alt.=145.248169m. Speed=1.404000m/h.</desc>
<speed>0.390000</speed>
</trkpt>
<trkpt lat="55.729488" lon="26.243738">
<ele>145.017700</ele>
<time>2010-07-17T10:18:56Z</time>
<desc>lat.=55.729488, lon.=26.243738, Alt.=145.017700m. Speed=1.296000m/h.</desc>
<speed>0.360000</speed>
</trkpt>
<trkpt lat="55.729477" lon="26.243738">
<ele>145.189575</ele>
<time>2010-07-17T10:18:57Z</time>
<desc>lat.=55.729477, lon.=26.243738, Alt.=145.189575m. Speed=1.332000m/h.</desc>
<speed>0.370000</speed>
</trkpt>
<trkpt lat="55.729469" lon="26.243740">
<ele>145.263794</ele>
<time>2010-07-17T10:18:58Z</time>
<desc>lat.=55.729469, lon.=26.243740, Alt.=145.263794m. Speed=1.260000m/h.</desc>
<speed>0.350000</speed>
</trkpt>
<trkpt lat="55.729462" lon="26.243740">
<ele>145.341919</ele>
<time>2010-07-17T10:18:59Z</time>
<desc>lat.=55.729462, lon.=26.243740, Alt.=145.341919m. Speed=1.224000m/h.</desc>
<speed>0.340000</speed>
</trkpt>
<trkpt lat="55.729462" lon="26.243742">
<ele>145.420044</ele>
<time>2010-07-17T10:19:00Z</time>
<desc>lat.=55.729462, lon.=26.243742, Alt.=145.420044m. Speed=1.188000m/h.</desc>
<speed>0.330000</speed>
</trkpt>
<trkpt lat="55.729454" lon="26.243742">
<ele>145.716919</ele>
<time>2010-07-17T10:19:01Z</time>
<desc>lat.=55.729454, lon.=26.243742, Alt.=145.716919m. Speed=1.224000m/h.</desc>
<speed>0.340000</speed>
</trkpt>
<trkpt lat="55.729450" lon="26.243740">
<ele>145.994263</ele>
<time>2010-07-17T10:19:02Z</time>
<desc>lat.=55.729450, lon.=26.243740, Alt.=145.994263m. Speed=1.188000m/h.</desc>
<speed>0.330000</speed>
</trkpt>
<trkpt lat="55.729443" lon="26.243744">
<ele>146.408325</ele>
<time>2010-07-17T10:19:03Z</time>
<desc>lat.=55.729443, lon.=26.243744, Alt.=146.408325m. Speed=1.152000m/h.</desc>
<speed>0.320000</speed>
</trkpt>
<trkpt lat="55.729439" lon="26.243752">
<ele>146.697388</ele>
<time>2010-07-17T10:19:04Z</time>
<desc>lat.=55.729439, lon.=26.243752, Alt.=146.697388m. Speed=1.152000m/h.</desc>
<speed>0.320000</speed>
</trkpt>
<trkpt lat="55.729431" lon="26.243757">
<ele>146.923950</ele>
<time>2010-07-17T10:19:05Z</time>
<desc>lat.=55.729431, lon.=26.243757, Alt.=146.923950m. Speed=1.152000m/h.</desc>
<speed>0.320000</speed>
</trkpt>
<trkpt lat="55.729424" lon="26.243763">
<ele>147.353638</ele>
<time>2010-07-17T10:19:06Z</time>
<desc>lat.=55.729424, lon.=26.243763, Alt.=147.353638m. Speed=1.152000m/h.</desc>
<speed>0.320000</speed>
</trkpt>
<trkpt lat="55.729416" lon="26.243780">
<ele>147.697388</ele>
<time>2010-07-17T10:19:07Z</time>
<desc>lat.=55.729416, lon.=26.243780, Alt.=147.697388m. Speed=1.116000m/h.</desc>
<speed>0.310000</speed>
</trkpt>
<trkpt lat="55.729408" lon="26.243788">
<ele>147.994263</ele>
<time>2010-07-17T10:19:08Z</time>
<desc>lat.=55.729408, lon.=26.243788, Alt.=147.994263m. Speed=1.116000m/h.</desc>
<speed>0.310000</speed>
</trkpt>
<trkpt lat="55.729408" lon="26.243795">
<ele>148.240356</ele>
<time>2010-07-17T10:19:09Z</time>
<desc>lat.=55.729408, lon.=26.243795, Alt.=148.240356m. Speed=1.044000m/h.</desc>
<speed>0.290000</speed>
</trkpt>
<trkpt lat="55.729404" lon="26.243805">
<ele>148.673950</ele>
<time>2010-07-17T10:19:10Z</time>
<desc>lat.=55.729404, lon.=26.243805, Alt.=148.673950m. Speed=0.972000m/h.</desc>
<speed>0.270000</speed>
</trkpt>
<trkpt lat="55.729401" lon="26.243820">
<ele>149.060669</ele>
<time>2010-07-17T10:19:11Z</time>
<desc>lat.=55.729401, lon.=26.243820, Alt.=149.060669m. Speed=1.080000m/h.</desc>
<speed>0.300000</speed>
</trkpt>
<trkpt lat="55.729385" lon="26.243843">
<ele>149.521606</ele>
<time>2010-07-17T10:19:12Z</time>
<desc>lat.=55.729385, lon.=26.243843, Alt.=149.521606m. Speed=1.260000m/h.</desc>
<speed>0.350000</speed>
</trkpt>
<trkpt lat="55.729385" lon="26.243860">
<ele>149.787231</ele>
<time>2010-07-17T10:19:13Z</time>
<desc>lat.=55.729385, lon.=26.243860, Alt.=149.787231m. Speed=1.188000m/h.</desc>
<speed>0.330000</speed>
</trkpt>
<trkpt lat="55.729374" lon="26.243881">
<ele>150.189575</ele>
<time>2010-07-17T10:19:14Z</time>
<desc>lat.=55.729374, lon.=26.243881, Alt.=150.189575m. Speed=1.296000m/h.</desc>
<speed>0.360000</speed>
</trkpt>
<trkpt lat="55.729370" lon="26.243896">
<ele>150.502075</ele>
<time>2010-07-17T10:19:15Z</time>
<desc>lat.=55.729370, lon.=26.243896, Alt.=150.502075m. Speed=1.296000m/h.</desc>
<speed>0.360000</speed>
</trkpt>
<trkpt lat="55.729374" lon="26.243912">
<ele>150.857544</ele>
<time>2010-07-17T10:19:16Z</time>
<desc>lat.=55.729374, lon.=26.243912, Alt.=150.857544m. Speed=1.296000m/h.</desc>
<speed>0.360000</speed>
</trkpt>
<trkpt lat="55.729378" lon="26.243923">
<ele>151.408325</ele>
<time>2010-07-17T10:19:17Z</time>
<desc>lat.=55.729378, lon.=26.243923, Alt.=151.408325m. Speed=1.188000m/h.</desc>
<speed>0.330000</speed>
</trkpt>
<trkpt lat="55.729374" lon="26.243929">
<ele>152.002075</ele>
<time>2010-07-17T10:19:18Z</time>
<desc>lat.=55.729374, lon.=26.243929, Alt.=152.002075m. Speed=1.008000m/h.</desc>
<speed>0.280000</speed>
</trkpt>
<trkpt lat="55.729378" lon="26.243940">
<ele>152.490356</ele>
<time>2010-07-17T10:19:19Z</time>
<desc>lat.=55.729378, lon.=26.243940, Alt.=152.490356m. Speed=0.936000m/h.</desc>
<speed>0.260000</speed>
</trkpt>
<trkpt lat="55.729382" lon="26.243952">
<ele>152.970825</ele>
<time>2010-07-17T10:19:20Z</time>
<desc>lat.=55.729382, lon.=26.243952, Alt.=152.970825m. Speed=0.828000m/h.</desc>
<speed>0.230000</speed>
</trkpt>
<trkpt lat="55.729382" lon="26.243959">
<ele>153.826294</ele>
<time>2010-07-17T10:19:21Z</time>
<desc>lat.=55.729382, lon.=26.243959, Alt.=153.826294m. Speed=0.612000m/h.</desc>
<speed>0.170000</speed>
</trkpt>
<trkpt lat="55.729378" lon="26.243963">
<ele>153.920044</ele>
<time>2010-07-17T10:19:22Z</time>
<desc>lat.=55.729378, lon.=26.243963, Alt.=153.920044m. Speed=0.720000m/h.</desc>
<speed>0.200000</speed>
</trkpt>
<trkpt lat="55.729378" lon="26.243965">
<ele>154.021606</ele>
<time>2010-07-17T10:19:23Z</time>
<desc>lat.=55.729378, lon.=26.243965, Alt.=154.021606m. Speed=0.756000m/h.</desc>
<speed>0.210000</speed>
</trkpt>
<trkpt lat="55.729378" lon="26.243969">
<ele>154.130981</ele>
<time>2010-07-17T10:19:24Z</time>
<desc>lat.=55.729378, lon.=26.243969, Alt.=154.130981m. Speed=0.720000m/h.</desc>
<speed>0.200000</speed>
</trkpt>
<trkpt lat="55.729378" lon="26.243973">
<ele>154.240356</ele>
<time>2010-07-17T10:19:25Z</time>
<desc>lat.=55.729378, lon.=26.243973, Alt.=154.240356m. Speed=0.612000m/h.</desc>
<speed>0.170000</speed>
</trkpt>
<trkpt lat="55.729378" lon="26.243975">
<ele>154.353638</ele>
<time>2010-07-17T10:19:26Z</time>
<desc>lat.=55.729378, lon.=26.243975, Alt.=154.353638m. Speed=0.648000m/h.</desc>
<speed>0.180000</speed>
</trkpt>
<trkpt lat="55.729374" lon="26.243977">
<ele>154.466919</ele>
<time>2010-07-17T10:19:27Z</time>
<desc>lat.=55.729374, lon.=26.243977, Alt.=154.466919m. Speed=0.540000m/h.</desc>
<speed>0.150000</speed>
</trkpt>
<trkpt lat="55.729374" lon="26.243979">
<ele>154.588013</ele>
<time>2010-07-17T10:19:28Z</time>
<desc>lat.=55.729374, lon.=26.243979, Alt.=154.588013m. Speed=0.396000m/h.</desc>
<speed>0.110000</speed>
</trkpt>
<trkpt lat="55.729374" lon="26.243980">
<ele>154.705200</ele>
<time>2010-07-17T10:19:29Z</time>
<desc>lat.=55.729374, lon.=26.243980, Alt.=154.705200m. Speed=0.396000m/h.</desc>
<speed>0.110000</speed>
</trkpt>
<trkpt lat="55.729374" lon="26.243982">
<ele>154.826294</ele>
<time>2010-07-17T10:19:30Z</time>
<desc>lat.=55.729374, lon.=26.243982, Alt.=154.826294m. Speed=0.504000m/h.</desc>
<speed>0.140000</speed>
</trkpt>
<trkpt lat="55.729374" lon="26.243984">
<ele>154.939575</ele>
<time>2010-07-17T10:19:31Z</time>
<desc>lat.=55.729374, lon.=26.243984, Alt.=154.939575m. Speed=0.684000m/h.</desc>
<speed>0.190000</speed>
</trkpt>
<trkpt lat="55.729374" lon="26.243988">
<ele>155.052856</ele>
<time>2010-07-17T10:19:32Z</time>
<desc>lat.=55.729374, lon.=26.243988, Alt.=155.052856m. Speed=0.720000m/h.</desc>
<speed>0.200000</speed>
</trkpt>
<trkpt lat="55.729370" lon="26.243992">
<ele>155.162231</ele>
<time>2010-07-17T10:19:33Z</time>
<desc>lat.=55.729370, lon.=26.243992, Alt.=155.162231m. Speed=0.756000m/h.</desc>
<speed>0.210000</speed>
</trkpt>
<trkpt lat="55.729370" lon="26.243994">
<ele>155.271606</ele>
<time>2010-07-17T10:19:34Z</time>
<desc>lat.=55.729370, lon.=26.243994, Alt.=155.271606m. Speed=0.864000m/h.</desc>
<speed>0.240000</speed>
</trkpt>
<trkpt lat="55.729370" lon="26.243998">
<ele>155.377075</ele>
<time>2010-07-17T10:19:35Z</time>
<desc>lat.=55.729370, lon.=26.243998, Alt.=155.377075m. Speed=1.008000m/h.</desc>
<speed>0.280000</speed>
</trkpt>
<trkpt lat="55.729370" lon="26.244001">
<ele>155.482544</ele>
<time>2010-07-17T10:19:36Z</time>
<desc>lat.=55.729370, lon.=26.244001, Alt.=155.482544m. Speed=0.936000m/h.</desc>
<speed>0.260000</speed>
</trkpt>
<trkpt lat="55.729366" lon="26.244005">
<ele>155.588013</ele>
<time>2010-07-17T10:19:37Z</time>
<desc>lat.=55.729366, lon.=26.244005, Alt.=155.588013m. Speed=0.900000m/h.</desc>
<speed>0.250000</speed>
</trkpt>
<trkpt lat="55.729366" lon="26.244009">
<ele>155.666138</ele>
<time>2010-07-17T10:19:38Z</time>
<desc>lat.=55.729366, lon.=26.244009, Alt.=155.666138m. Speed=0.828000m/h.</desc>
<speed>0.230000</speed>
</trkpt>
<trkpt lat="55.729366" lon="26.244011">
<ele>155.744263</ele>
<time>2010-07-17T10:19:39Z</time>
<desc>lat.=55.729366, lon.=26.244011, Alt.=155.744263m. Speed=0.864000m/h.</desc>
<speed>0.240000</speed>
</trkpt>
<trkpt lat="55.729362" lon="26.244015">
<ele>155.818481</ele>
<time>2010-07-17T10:19:40Z</time>
<desc>lat.=55.729362, lon.=26.244015, Alt.=155.818481m. Speed=0.792000m/h.</desc>
<speed>0.220000</speed>
</trkpt>
<trkpt lat="55.729362" lon="26.244019">
<ele>155.880981</ele>
<time>2010-07-17T10:19:41Z</time>
<desc>lat.=55.729362, lon.=26.244019, Alt.=155.880981m. Speed=0.828000m/h.</desc>
<speed>0.230000</speed>
</trkpt>
<trkpt lat="55.729362" lon="26.244020">
<ele>155.943481</ele>
<time>2010-07-17T10:19:42Z</time>
<desc>lat.=55.729362, lon.=26.244020, Alt.=155.943481m. Speed=0.720000m/h.</desc>
<speed>0.200000</speed>
</trkpt>
<trkpt lat="55.729362" lon="26.244024">
<ele>156.005981</ele>
<time>2010-07-17T10:19:43Z</time>
<desc>lat.=55.729362, lon.=26.244024, Alt.=156.005981m. Speed=0.756000m/h.</desc>
<speed>0.210000</speed>
</trkpt>
<trkpt lat="55.729362" lon="26.244028">
<ele>156.060669</ele>
<time>2010-07-17T10:19:44Z</time>
<desc>lat.=55.729362, lon.=26.244028, Alt.=156.060669m. Speed=0.576000m/h.</desc>
<speed>0.160000</speed>
</trkpt>
<trkpt lat="55.729362" lon="26.244030">
<ele>156.115356</ele>
<time>2010-07-17T10:19:45Z</time>
<desc>lat.=55.729362, lon.=26.244030, Alt.=156.115356m. Speed=0.612000m/h.</desc>
<speed>0.170000</speed>
</trkpt>
<trkpt lat="55.729362" lon="26.244034">
<ele>156.158325</ele>
<time>2010-07-17T10:19:46Z</time>
<desc>lat.=55.729362, lon.=26.244034, Alt.=156.158325m. Speed=0.612000m/h.</desc>
<speed>0.170000</speed>
</trkpt>
<trkpt lat="55.729362" lon="26.244036">
<ele>156.205200</ele>
<time>2010-07-17T10:19:47Z</time>
<desc>lat.=55.729362, lon.=26.244036, Alt.=156.205200m. Speed=0.468000m/h.</desc>
<speed>0.130000</speed>
</trkpt>
<trkpt lat="55.729362" lon="26.244038">
<ele>156.248169</ele>
<time>2010-07-17T10:19:48Z</time>
<desc>lat.=55.729362, lon.=26.244038, Alt.=156.248169m. Speed=0.504000m/h.</desc>
<speed>0.140000</speed>
</trkpt>
<trkpt lat="55.729362" lon="26.244040">
<ele>156.298950</ele>
<time>2010-07-17T10:19:49Z</time>
<desc>lat.=55.729362, lon.=26.244040, Alt.=156.298950m. Speed=0.396000m/h.</desc>
<speed>0.110000</speed>
</trkpt>
<trkpt lat="55.729362" lon="26.244041">
<ele>156.345825</ele>
<time>2010-07-17T10:19:50Z</time>
<desc>lat.=55.729362, lon.=26.244041, Alt.=156.345825m. Speed=0.468000m/h.</desc>
<speed>0.130000</speed>
</trkpt>
<trkpt lat="55.729362" lon="26.244043">
<ele>156.396606</ele>
<time>2010-07-17T10:19:51Z</time>
<desc>lat.=55.729362, lon.=26.244043, Alt.=156.396606m. Speed=0.540000m/h.</desc>
<speed>0.150000</speed>
</trkpt>
<trkpt lat="55.729366" lon="26.244045">
<ele>156.455200</ele>
<time>2010-07-17T10:19:52Z</time>
<desc>lat.=55.729366, lon.=26.244045, Alt.=156.455200m. Speed=0.468000m/h.</desc>
<speed>0.130000</speed>
</trkpt>
<trkpt lat="55.729366" lon="26.244045">
<ele>156.513794</ele>
<time>2010-07-17T10:19:53Z</time>
<desc>lat.=55.729366, lon.=26.244045, Alt.=156.513794m. Speed=0.648000m/h.</desc>
<speed>0.180000</speed>
</trkpt>
<trkpt lat="55.729366" lon="26.244047">
<ele>156.572388</ele>
<time>2010-07-17T10:19:54Z</time>
<desc>lat.=55.729366, lon.=26.244047, Alt.=156.572388m. Speed=0.648000m/h.</desc>
<speed>0.180000</speed>
</trkpt>
<trkpt lat="55.729370" lon="26.244047">
<ele>156.638794</ele>
<time>2010-07-17T10:19:55Z</time>
<desc>lat.=55.729370, lon.=26.244047, Alt.=156.638794m. Speed=0.648000m/h.</desc>
<speed>0.180000</speed>
</trkpt>
<trkpt lat="55.729370" lon="26.244047">
<ele>156.697388</ele>
<time>2010-07-17T10:19:56Z</time>
<desc>lat.=55.729370, lon.=26.244047, Alt.=156.697388m. Speed=0.612000m/h.</desc>
<speed>0.170000</speed>
</trkpt>
<trkpt lat="55.729374" lon="26.244047">
<ele>156.755981</ele>
<time>2010-07-17T10:19:57Z</time>
<desc>lat.=55.729374, lon.=26.244047, Alt.=156.755981m. Speed=0.612000m/h.</desc>
<speed>0.170000</speed>
</trkpt>
<trkpt lat="55.729374" lon="26.244049">
<ele>156.814575</ele>
<time>2010-07-17T10:19:58Z</time>
<desc>lat.=55.729374, lon.=26.244049, Alt.=156.814575m. Speed=0.540000m/h.</desc>
<speed>0.150000</speed>
</trkpt>
<trkpt lat="55.729374" lon="26.244049">
<ele>156.873169</ele>
<time>2010-07-17T10:19:59Z</time>
<desc>lat.=55.729374, lon.=26.244049, Alt.=156.873169m. Speed=0.576000m/h.</desc>
<speed>0.160000</speed>
</trkpt>
<trkpt lat="55.729378" lon="26.244051">
<ele>156.935669</ele>
<time>2010-07-17T10:20:00Z</time>
<desc>lat.=55.729378, lon.=26.244051, Alt.=156.935669m. Speed=0.432000m/h.</desc>
<speed>0.120000</speed>
</trkpt>
<trkpt lat="55.729378" lon="26.244051">
<ele>156.998169</ele>
<time>2010-07-17T10:20:01Z</time>
<desc>lat.=55.729378, lon.=26.244051, Alt.=156.998169m. Speed=0.396000m/h.</desc>
<speed>0.110000</speed>
</trkpt>
<trkpt lat="55.729378" lon="26.244053">
<ele>157.056763</ele>
<time>2010-07-17T10:20:02Z</time>
<desc>lat.=55.729378, lon.=26.244053, Alt.=157.056763m. Speed=0.396000m/h.</desc>
<speed>0.110000</speed>
</trkpt>
<trkpt lat="55.729382" lon="26.244053">
<ele>157.115356</ele>
<time>2010-07-17T10:20:03Z</time>
<desc>lat.=55.729382, lon.=26.244053, Alt.=157.115356m. Speed=0.216000m/h.</desc>
<speed>0.060000</speed>
</trkpt>
<trkpt lat="55.729382" lon="26.244053">
<ele>157.162231</ele>
<time>2010-07-17T10:20:04Z</time>
<desc>lat.=55.729382, lon.=26.244053, Alt.=157.162231m. Speed=0.288000m/h.</desc>
<speed>0.080000</speed>
</trkpt>
<trkpt lat="55.729382" lon="26.244055">
<ele>157.213013</ele>
<time>2010-07-17T10:20:05Z</time>
<desc>lat.=55.729382, lon.=26.244055, Alt.=157.213013m. Speed=0.324000m/h.</desc>
<speed>0.090000</speed>
</trkpt>
<trkpt lat="55.729382" lon="26.244057">
<ele>157.259888</ele>
<time>2010-07-17T10:20:06Z</time>
<desc>lat.=55.729382, lon.=26.244057, Alt.=157.259888m. Speed=0.432000m/h.</desc>
<speed>0.120000</speed>
</trkpt>
<trkpt lat="55.729382" lon="26.244059">
<ele>157.310669</ele>
<time>2010-07-17T10:20:07Z</time>
<desc>lat.=55.729382, lon.=26.244059, Alt.=157.310669m. Speed=0.504000m/h.</desc>
<speed>0.140000</speed>
</trkpt>
<trkpt lat="55.729382" lon="26.244061">
<ele>157.361450</ele>
<time>2010-07-17T10:20:08Z</time>
<desc>lat.=55.729382, lon.=26.244061, Alt.=157.361450m. Speed=0.612000m/h.</desc>
<speed>0.170000</speed>
</trkpt>
<trkpt lat="55.729382" lon="26.244062">
<ele>157.408325</ele>
<time>2010-07-17T10:20:09Z</time>
<desc>lat.=55.729382, lon.=26.244062, Alt.=157.408325m. Speed=0.540000m/h.</desc>
<speed>0.150000</speed>
</trkpt>
<trkpt lat="55.729385" lon="26.244064">
<ele>157.451294</ele>
<time>2010-07-17T10:20:10Z</time>
<desc>lat.=55.729385, lon.=26.244064, Alt.=157.451294m. Speed=0.540000m/h.</desc>
<speed>0.150000</speed>
</trkpt>
<trkpt lat="55.729385" lon="26.244066">
<ele>157.494263</ele>
<time>2010-07-17T10:20:11Z</time>
<desc>lat.=55.729385, lon.=26.244066, Alt.=157.494263m. Speed=0.612000m/h.</desc>
<speed>0.170000</speed>
</trkpt>
<trkpt lat="55.729385" lon="26.244070">
<ele>157.537231</ele>
<time>2010-07-17T10:20:12Z</time>
<desc>lat.=55.729385, lon.=26.244070, Alt.=157.537231m. Speed=0.684000m/h.</desc>
<speed>0.190000</speed>
</trkpt>
<trkpt lat="55.729385" lon="26.244072">
<ele>157.588013</ele>
<time>2010-07-17T10:20:13Z</time>
<desc>lat.=55.729385, lon.=26.244072, Alt.=157.588013m. Speed=0.612000m/h.</desc>
<speed>0.170000</speed>
</trkpt>
<trkpt lat="55.729385" lon="26.244076">
<ele>157.634888</ele>
<time>2010-07-17T10:20:14Z</time>
<desc>lat.=55.729385, lon.=26.244076, Alt.=157.634888m. Speed=0.756000m/h.</desc>
<speed>0.210000</speed>
</trkpt>
<trkpt lat="55.729389" lon="26.244078">
<ele>157.689575</ele>
<time>2010-07-17T10:20:15Z</time>
<desc>lat.=55.729389, lon.=26.244078, Alt.=157.689575m. Speed=0.612000m/h.</desc>
<speed>0.170000</speed>
</trkpt>
<trkpt lat="55.729389" lon="26.244080">
<ele>157.740356</ele>
<time>2010-07-17T10:20:16Z</time>
<desc>lat.=55.729389, lon.=26.244080, Alt.=157.740356m. Speed=0.612000m/h.</desc>
<speed>0.170000</speed>
</trkpt>
<trkpt lat="55.729389" lon="26.244083">
<ele>157.787231</ele>
<time>2010-07-17T10:20:17Z</time>
<desc>lat.=55.729389, lon.=26.244083, Alt.=157.787231m. Speed=0.576000m/h.</desc>
<speed>0.160000</speed>
</trkpt>
<trkpt lat="55.729389" lon="26.244085">
<ele>157.830200</ele>
<time>2010-07-17T10:20:18Z</time>
<desc>lat.=55.729389, lon.=26.244085, Alt.=157.830200m. Speed=0.540000m/h.</desc>
<speed>0.150000</speed>
</trkpt>
<trkpt lat="55.729393" lon="26.244087">
<ele>157.873169</ele>
<time>2010-07-17T10:20:19Z</time>
<desc>lat.=55.729393, lon.=26.244087, Alt.=157.873169m. Speed=0.900000m/h.</desc>
<speed>0.250000</speed>
</trkpt>
<trkpt lat="55.729393" lon="26.244091">
<ele>157.920044</ele>
<time>2010-07-17T10:20:20Z</time>
<desc>lat.=55.729393, lon.=26.244091, Alt.=157.920044m. Speed=1.080000m/h.</desc>
<speed>0.300000</speed>
</trkpt>
<trkpt lat="55.729397" lon="26.244102">
<ele>158.009888</ele>
<time>2010-07-17T10:20:21Z</time>
<desc>lat.=55.729397, lon.=26.244102, Alt.=158.009888m. Speed=0.972000m/h.</desc>
<speed>0.270000</speed>
</trkpt>
<trkpt lat="55.729401" lon="26.244112">
<ele>158.041138</ele>
<time>2010-07-17T10:20:22Z</time>
<desc>lat.=55.729401, lon.=26.244112, Alt.=158.041138m. Speed=0.936000m/h.</desc>
<speed>0.260000</speed>
</trkpt>
<trkpt lat="55.729397" lon="26.244125">
<ele>157.943481</ele>
<time>2010-07-17T10:20:23Z</time>
<desc>lat.=55.729397, lon.=26.244125, Alt.=157.943481m. Speed=0.972000m/h.</desc>
<speed>0.270000</speed>
</trkpt>
<trkpt lat="55.729393" lon="26.244137">
<ele>157.767700</ele>
<time>2010-07-17T10:20:24Z</time>
<desc>lat.=55.729393, lon.=26.244137, Alt.=157.767700m. Speed=1.116000m/h.</desc>
<speed>0.310000</speed>
</trkpt>
<trkpt lat="55.729389" lon="26.244146">
<ele>157.603638</ele>
<time>2010-07-17T10:20:25Z</time>
<desc>lat.=55.729389, lon.=26.244146, Alt.=157.603638m. Speed=1.116000m/h.</desc>
<speed>0.310000</speed>
</trkpt>
<trkpt lat="55.729385" lon="26.244150">
<ele>157.689575</ele>
<time>2010-07-17T10:20:26Z</time>
<desc>lat.=55.729385, lon.=26.244150, Alt.=157.689575m. Speed=1.044000m/h.</desc>
<speed>0.290000</speed>
</trkpt>
<trkpt lat="55.729389" lon="26.244152">
<ele>157.779419</ele>
<time>2010-07-17T10:20:27Z</time>
<desc>lat.=55.729389, lon.=26.244152, Alt.=157.779419m. Speed=0.828000m/h.</desc>
<speed>0.230000</speed>
</trkpt>
<trkpt lat="55.729385" lon="26.244162">
<ele>157.513794</ele>
<time>2010-07-17T10:20:28Z</time>
<desc>lat.=55.729385, lon.=26.244162, Alt.=157.513794m. Speed=0.936000m/h.</desc>
<speed>0.260000</speed>
</trkpt>
<trkpt lat="55.729389" lon="26.244164">
<ele>157.650513</ele>
<time>2010-07-17T10:20:29Z</time>
<desc>lat.=55.729389, lon.=26.244164, Alt.=157.650513m. Speed=0.900000m/h.</desc>
<speed>0.250000</speed>
</trkpt>
<trkpt lat="55.729385" lon="26.244167">
<ele>157.681763</ele>
<time>2010-07-17T10:20:30Z</time>
<desc>lat.=55.729385, lon.=26.244167, Alt.=157.681763m. Speed=0.900000m/h.</desc>
<speed>0.250000</speed>
</trkpt>
<trkpt lat="55.729385" lon="26.244171">
<ele>157.720825</ele>
<time>2010-07-17T10:20:31Z</time>
<desc>lat.=55.729385, lon.=26.244171, Alt.=157.720825m. Speed=0.792000m/h.</desc>
<speed>0.220000</speed>
</trkpt>
<trkpt lat="55.729385" lon="26.244175">
<ele>157.763794</ele>
<time>2010-07-17T10:20:32Z</time>
<desc>lat.=55.729385, lon.=26.244175, Alt.=157.763794m. Speed=0.828000m/h.</desc>
<speed>0.230000</speed>
</trkpt>
<trkpt lat="55.729385" lon="26.244177">
<ele>157.814575</ele>
<time>2010-07-17T10:20:33Z</time>
<desc>lat.=55.729385, lon.=26.244177, Alt.=157.814575m. Speed=0.864000m/h.</desc>
<speed>0.240000</speed>
</trkpt>
<trkpt lat="55.729382" lon="26.244179">
<ele>157.869263</ele>
<time>2010-07-17T10:20:34Z</time>
<desc>lat.=55.729382, lon.=26.244179, Alt.=157.869263m. Speed=0.864000m/h.</desc>
<speed>0.240000</speed>
</trkpt>
<trkpt lat="55.729382" lon="26.244183">
<ele>157.931763</ele>
<time>2010-07-17T10:20:35Z</time>
<desc>lat.=55.729382, lon.=26.244183, Alt.=157.931763m. Speed=0.684000m/h.</desc>
<speed>0.190000</speed>
</trkpt>
<trkpt lat="55.729378" lon="26.244183">
<ele>158.002075</ele>
<time>2010-07-17T10:20:36Z</time>
<desc>lat.=55.729378, lon.=26.244183, Alt.=158.002075m. Speed=0.612000m/h.</desc>
<speed>0.170000</speed>
</trkpt>
<trkpt lat="55.729378" lon="26.244184">
<ele>158.068481</ele>
<time>2010-07-17T10:20:37Z</time>
<desc>lat.=55.729378, lon.=26.244184, Alt.=158.068481m. Speed=0.540000m/h.</desc>
<speed>0.150000</speed>
</trkpt>
<trkpt lat="55.729374" lon="26.244184">
<ele>158.130981</ele>
<time>2010-07-17T10:20:38Z</time>
<desc>lat.=55.729374, lon.=26.244184, Alt.=158.130981m. Speed=0.540000m/h.</desc>
<speed>0.150000</speed>
</trkpt>
<trkpt lat="55.729374" lon="26.244184">
<ele>158.205200</ele>
<time>2010-07-17T10:20:39Z</time>
<desc>lat.=55.729374, lon.=26.244184, Alt.=158.205200m. Speed=0.576000m/h.</desc>
<speed>0.160000</speed>
</trkpt>
<trkpt lat="55.729374" lon="26.244186">
<ele>158.271606</ele>
<time>2010-07-17T10:20:40Z</time>
<desc>lat.=55.729374, lon.=26.244186, Alt.=158.271606m. Speed=0.468000m/h.</desc>
<speed>0.130000</speed>
</trkpt>
<trkpt lat="55.729370" lon="26.244186">
<ele>158.345825</ele>
<time>2010-07-17T10:20:41Z</time>
<desc>lat.=55.729370, lon.=26.244186, Alt.=158.345825m. Speed=0.504000m/h.</desc>
<speed>0.140000</speed>
</trkpt>
<trkpt lat="55.729370" lon="26.244188">
<ele>158.427856</ele>
<time>2010-07-17T10:20:42Z</time>
<desc>lat.=55.729370, lon.=26.244188, Alt.=158.427856m. Speed=0.396000m/h.</desc>
<speed>0.110000</speed>
</trkpt>
<trkpt lat="55.729370" lon="26.244190">
<ele>158.509888</ele>
<time>2010-07-17T10:20:43Z</time>
<desc>lat.=55.729370, lon.=26.244190, Alt.=158.509888m. Speed=0.360000m/h.</desc>
<speed>0.100000</speed>
</trkpt>
<trkpt lat="55.729370" lon="26.244192">
<ele>158.611450</ele>
<time>2010-07-17T10:20:44Z</time>
<desc>lat.=55.729370, lon.=26.244192, Alt.=158.611450m. Speed=0.540000m/h.</desc>
<speed>0.150000</speed>
</trkpt>
<trkpt lat="55.729370" lon="26.244196">
<ele>158.713013</ele>
<time>2010-07-17T10:20:45Z</time>
<desc>lat.=55.729370, lon.=26.244196, Alt.=158.713013m. Speed=0.540000m/h.</desc>
<speed>0.150000</speed>
</trkpt>
<trkpt lat="55.729370" lon="26.244198">
<ele>158.818481</ele>
<time>2010-07-17T10:20:46Z</time>
<desc>lat.=55.729370, lon.=26.244198, Alt.=158.818481m. Speed=0.612000m/h.</desc>
<speed>0.170000</speed>
</trkpt>
<trkpt lat="55.729370" lon="26.244200">
<ele>158.927856</ele>
<time>2010-07-17T10:20:47Z</time>
<desc>lat.=55.729370, lon.=26.244200, Alt.=158.927856m. Speed=0.648000m/h.</desc>
<speed>0.180000</speed>
</trkpt>
<trkpt lat="55.729370" lon="26.244204">
<ele>159.041138</ele>
<time>2010-07-17T10:20:48Z</time>
<desc>lat.=55.729370, lon.=26.244204, Alt.=159.041138m. Speed=0.540000m/h.</desc>
<speed>0.150000</speed>
</trkpt>
<trkpt lat="55.729366" lon="26.244205">
<ele>159.154419</ele>
<time>2010-07-17T10:20:49Z</time>
<desc>lat.=55.729366, lon.=26.244205, Alt.=159.154419m. Speed=0.612000m/h.</desc>
<speed>0.170000</speed>
</trkpt>
<trkpt lat="55.729366" lon="26.244207">
<ele>159.291138</ele>
<time>2010-07-17T10:20:50Z</time>
<desc>lat.=55.729366, lon.=26.244207, Alt.=159.291138m. Speed=0.324000m/h.</desc>
<speed>0.090000</speed>
</trkpt>
<trkpt lat="55.729366" lon="26.244209">
<ele>159.451294</ele>
<time>2010-07-17T10:20:51Z</time>
<desc>lat.=55.729366, lon.=26.244209, Alt.=159.451294m. Speed=0.432000m/h.</desc>
<speed>0.120000</speed>
</trkpt>
<trkpt lat="55.729366" lon="26.244211">
<ele>159.603638</ele>
<time>2010-07-17T10:20:52Z</time>
<desc>lat.=55.729366, lon.=26.244211, Alt.=159.603638m. Speed=0.432000m/h.</desc>
<speed>0.120000</speed>
</trkpt>
<trkpt lat="55.729366" lon="26.244211">
<ele>159.779419</ele>
<time>2010-07-17T10:20:53Z</time>
<desc>lat.=55.729366, lon.=26.244211, Alt.=159.779419m. Speed=0.756000m/h.</desc>
<speed>0.210000</speed>
</trkpt>
<trkpt lat="55.729362" lon="26.244213">
<ele>159.970825</ele>
<time>2010-07-17T10:20:54Z</time>
<desc>lat.=55.729362, lon.=26.244213, Alt.=159.970825m. Speed=0.828000m/h.</desc>
<speed>0.230000</speed>
</trkpt>
<trkpt lat="55.729362" lon="26.244215">
<ele>160.158325</ele>
<time>2010-07-17T10:20:55Z</time>
<desc>lat.=55.729362, lon.=26.244215, Alt.=160.158325m. Speed=0.576000m/h.</desc>
<speed>0.160000</speed>
</trkpt>
<trkpt lat="55.729359" lon="26.244219">
<ele>160.341919</ele>
<time>2010-07-17T10:20:56Z</time>
<desc>lat.=55.729359, lon.=26.244219, Alt.=160.341919m. Speed=0.576000m/h.</desc>
<speed>0.160000</speed>
</trkpt>
<trkpt lat="55.729359" lon="26.244219">
<ele>160.537231</ele>
<time>2010-07-17T10:20:57Z</time>
<desc>lat.=55.729359, lon.=26.244219, Alt.=160.537231m. Speed=0.648000m/h.</desc>
<speed>0.180000</speed>
</trkpt>
<trkpt lat="55.729359" lon="26.244223">
<ele>160.720825</ele>
<time>2010-07-17T10:20:58Z</time>
<desc>lat.=55.729359, lon.=26.244223, Alt.=160.720825m. Speed=0.612000m/h.</desc>
<speed>0.170000</speed>
</trkpt>
<trkpt lat="55.729359" lon="26.244225">
<ele>160.908325</ele>
<time>2010-07-17T10:20:59Z</time>
<desc>lat.=55.729359, lon.=26.244225, Alt.=160.908325m. Speed=0.540000m/h.</desc>
<speed>0.150000</speed>
</trkpt>
<trkpt lat="55.729355" lon="26.244226">
<ele>161.099731</ele>
<time>2010-07-17T10:21:00Z</time>
<desc>lat.=55.729355, lon.=26.244226, Alt.=161.099731m. Speed=0.504000m/h.</desc>
<speed>0.140000</speed>
</trkpt>
<trkpt lat="55.729355" lon="26.244228">
<ele>161.287231</ele>
<time>2010-07-17T10:21:01Z</time>
<desc>lat.=55.729355, lon.=26.244228, Alt.=161.287231m. Speed=0.540000m/h.</desc>
<speed>0.150000</speed>
</trkpt>
<trkpt lat="55.729355" lon="26.244230">
<ele>161.482544</ele>
<time>2010-07-17T10:21:02Z</time>
<desc>lat.=55.729355, lon.=26.244230, Alt.=161.482544m. Speed=0.504000m/h.</desc>
<speed>0.140000</speed>
</trkpt>
<trkpt lat="55.729355" lon="26.244230">
<ele>161.670044</ele>
<time>2010-07-17T10:21:03Z</time>
<desc>lat.=55.729355, lon.=26.244230, Alt.=161.670044m. Speed=0.540000m/h.</desc>
<speed>0.150000</speed>
</trkpt>
<trkpt lat="55.729351" lon="26.244232">
<ele>161.861450</ele>
<time>2010-07-17T10:21:04Z</time>
<desc>lat.=55.729351, lon.=26.244232, Alt.=161.861450m. Speed=0.648000m/h.</desc>
<speed>0.180000</speed>
</trkpt>
<trkpt lat="55.729351" lon="26.244236">
<ele>162.052856</ele>
<time>2010-07-17T10:21:05Z</time>
<desc>lat.=55.729351, lon.=26.244236, Alt.=162.052856m. Speed=0.648000m/h.</desc>
<speed>0.180000</speed>
</trkpt>
<trkpt lat="55.729351" lon="26.244238">
<ele>162.248169</ele>
<time>2010-07-17T10:21:06Z</time>
<desc>lat.=55.729351, lon.=26.244238, Alt.=162.248169m. Speed=0.612000m/h.</desc>
<speed>0.170000</speed>
</trkpt>
<trkpt lat="55.729351" lon="26.244240">
<ele>162.451294</ele>
<time>2010-07-17T10:21:07Z</time>
<desc>lat.=55.729351, lon.=26.244240, Alt.=162.451294m. Speed=0.720000m/h.</desc>
<speed>0.200000</speed>
</trkpt>
<trkpt lat="55.729347" lon="26.244242">
<ele>162.654419</ele>
<time>2010-07-17T10:21:08Z</time>
<desc>lat.=55.729347, lon.=26.244242, Alt.=162.654419m. Speed=0.720000m/h.</desc>
<speed>0.200000</speed>
</trkpt>
<trkpt lat="55.729347" lon="26.244246">
<ele>162.857544</ele>
<time>2010-07-17T10:21:09Z</time>
<desc>lat.=55.729347, lon.=26.244246, Alt.=162.857544m. Speed=0.756000m/h.</desc>
<speed>0.210000</speed>
</trkpt>
<trkpt lat="55.729347" lon="26.244247">
<ele>163.076294</ele>
<time>2010-07-17T10:21:10Z</time>
<desc>lat.=55.729347, lon.=26.244247, Alt.=163.076294m. Speed=0.576000m/h.</desc>
<speed>0.160000</speed>
</trkpt>
<trkpt lat="55.729343" lon="26.244249">
<ele>163.306763</ele>
<time>2010-07-17T10:21:11Z</time>
<desc>lat.=55.729343, lon.=26.244249, Alt.=163.306763m. Speed=0.720000m/h.</desc>
<speed>0.200000</speed>
</trkpt>
<trkpt lat="55.729343" lon="26.244253">
<ele>163.541138</ele>
<time>2010-07-17T10:21:12Z</time>
<desc>lat.=55.729343, lon.=26.244253, Alt.=163.541138m. Speed=0.828000m/h.</desc>
<speed>0.230000</speed>
</trkpt>
<trkpt lat="55.729343" lon="26.244255">
<ele>163.787231</ele>
<time>2010-07-17T10:21:13Z</time>
<desc>lat.=55.729343, lon.=26.244255, Alt.=163.787231m. Speed=0.900000m/h.</desc>
<speed>0.250000</speed>
</trkpt>
<trkpt lat="55.729340" lon="26.244259">
<ele>164.037231</ele>
<time>2010-07-17T10:21:14Z</time>
<desc>lat.=55.729340, lon.=26.244259, Alt.=164.037231m. Speed=0.756000m/h.</desc>
<speed>0.210000</speed>
</trkpt>
<trkpt lat="55.729340" lon="26.244263">
<ele>164.314575</ele>
<time>2010-07-17T10:21:15Z</time>
<desc>lat.=55.729340, lon.=26.244263, Alt.=164.314575m. Speed=0.648000m/h.</desc>
<speed>0.180000</speed>
</trkpt>
<trkpt lat="55.729340" lon="26.244265">
<ele>164.537231</ele>
<time>2010-07-17T10:21:16Z</time>
<desc>lat.=55.729340, lon.=26.244265, Alt.=164.537231m. Speed=0.648000m/h.</desc>
<speed>0.180000</speed>
</trkpt>
<trkpt lat="55.729340" lon="26.244268">
<ele>164.732544</ele>
<time>2010-07-17T10:21:17Z</time>
<desc>lat.=55.729340, lon.=26.244268, Alt.=164.732544m. Speed=0.720000m/h.</desc>
<speed>0.200000</speed>
</trkpt>
<trkpt lat="55.729343" lon="26.244270">
<ele>164.900513</ele>
<time>2010-07-17T10:21:18Z</time>
<desc>lat.=55.729343, lon.=26.244270, Alt.=164.900513m. Speed=0.576000m/h.</desc>
<speed>0.160000</speed>
</trkpt>
<trkpt lat="55.729340" lon="26.244272">
<ele>165.048950</ele>
<time>2010-07-17T10:21:19Z</time>
<desc>lat.=55.729340, lon.=26.244272, Alt.=165.048950m. Speed=0.828000m/h.</desc>
<speed>0.230000</speed>
</trkpt>
<trkpt lat="55.729340" lon="26.244276">
<ele>165.170044</ele>
<time>2010-07-17T10:21:20Z</time>
<desc>lat.=55.729340, lon.=26.244276, Alt.=165.170044m. Speed=0.756000m/h.</desc>
<speed>0.210000</speed>
</trkpt>
<trkpt lat="55.729340" lon="26.244278">
<ele>165.283325</ele>
<time>2010-07-17T10:21:21Z</time>
<desc>lat.=55.729340, lon.=26.244278, Alt.=165.283325m. Speed=0.576000m/h.</desc>
<speed>0.160000</speed>
</trkpt>
<trkpt lat="55.729336" lon="26.244280">
<ele>165.400513</ele>
<time>2010-07-17T10:21:22Z</time>
<desc>lat.=55.729336, lon.=26.244280, Alt.=165.400513m. Speed=0.504000m/h.</desc>
<speed>0.140000</speed>
</trkpt>
<trkpt lat="55.729336" lon="26.244280">
<ele>165.502075</ele>
<time>2010-07-17T10:21:23Z</time>
<desc>lat.=55.729336, lon.=26.244280, Alt.=165.502075m. Speed=0.756000m/h.</desc>
<speed>0.210000</speed>
</trkpt>
<trkpt lat="55.729332" lon="26.244282">
<ele>165.576294</ele>
<time>2010-07-17T10:21:24Z</time>
<desc>lat.=55.729332, lon.=26.244282, Alt.=165.576294m. Speed=0.684000m/h.</desc>
<speed>0.190000</speed>
</trkpt>
<trkpt lat="55.729332" lon="26.244282">
<ele>165.642700</ele>
<time>2010-07-17T10:21:25Z</time>
<desc>lat.=55.729332, lon.=26.244282, Alt.=165.642700m. Speed=0.576000m/h.</desc>
<speed>0.160000</speed>
</trkpt>
<trkpt lat="55.729332" lon="26.244284">
<ele>165.713013</ele>
<time>2010-07-17T10:21:26Z</time>
<desc>lat.=55.729332, lon.=26.244284, Alt.=165.713013m. Speed=0.828000m/h.</desc>
<speed>0.230000</speed>
</trkpt>
<trkpt lat="55.729328" lon="26.244284">
<ele>165.791138</ele>
<time>2010-07-17T10:21:27Z</time>
<desc>lat.=55.729328, lon.=26.244284, Alt.=165.791138m. Speed=0.756000m/h.</desc>
<speed>0.210000</speed>
</trkpt>
<trkpt lat="55.729324" lon="26.244284">
<ele>165.857544</ele>
<time>2010-07-17T10:21:28Z</time>
<desc>lat.=55.729324, lon.=26.244284, Alt.=165.857544m. Speed=0.792000m/h.</desc>
<speed>0.220000</speed>
</trkpt>
<trkpt lat="55.729324" lon="26.244286">
<ele>165.916138</ele>
<time>2010-07-17T10:21:29Z</time>
<desc>lat.=55.729324, lon.=26.244286, Alt.=165.916138m. Speed=0.504000m/h.</desc>
<speed>0.140000</speed>
</trkpt>
<trkpt lat="55.729324" lon="26.244286">
<ele>165.963013</ele>
<time>2010-07-17T10:21:30Z</time>
<desc>lat.=55.729324, lon.=26.244286, Alt.=165.963013m. Speed=0.252000m/h.</desc>
<speed>0.070000</speed>
</trkpt>
<trkpt lat="55.729324" lon="26.244286">
<ele>165.998169</ele>
<time>2010-07-17T10:21:31Z</time>
<desc>lat.=55.729324, lon.=26.244286, Alt.=165.998169m. Speed=0.252000m/h.</desc>
<speed>0.070000</speed>
</trkpt>
<trkpt lat="55.729321" lon="26.244286">
<ele>166.045044</ele>
<time>2010-07-17T10:21:32Z</time>
<desc>lat.=55.729321, lon.=26.244286, Alt.=166.045044m. Speed=0.108000m/h.</desc>
<speed>0.030000</speed>
</trkpt>
<trkpt lat="55.729324" lon="26.244286">
<ele>166.080200</ele>
<time>2010-07-17T10:21:33Z</time>
<desc>lat.=55.729324, lon.=26.244286, Alt.=166.080200m. Speed=0.144000m/h.</desc>
<speed>0.040000</speed>
</trkpt>
<trkpt lat="55.729324" lon="26.244286">
<ele>166.107544</ele>
<time>2010-07-17T10:21:34Z</time>
<desc>lat.=55.729324, lon.=26.244286, Alt.=166.107544m. Speed=0.144000m/h.</desc>
<speed>0.040000</speed>
</trkpt>
<trkpt lat="55.729324" lon="26.244286">
<ele>166.130981</ele>
<time>2010-07-17T10:21:35Z</time>
<desc>lat.=55.729324, lon.=26.244286, Alt.=166.130981m. Speed=0.216000m/h.</desc>
<speed>0.060000</speed>
</trkpt>
<trkpt lat="55.729324" lon="26.244287">
<ele>166.150513</ele>
<time>2010-07-17T10:21:36Z</time>
<desc>lat.=55.729324, lon.=26.244287, Alt.=166.150513m. Speed=0.144000m/h.</desc>
<speed>0.040000</speed>
</trkpt>
<trkpt lat="55.729324" lon="26.244287">
<ele>166.173950</ele>
<time>2010-07-17T10:21:37Z</time>
<desc>lat.=55.729324, lon.=26.244287, Alt.=166.173950m. Speed=0.036000m/h.</desc>
<speed>0.010000</speed>
</trkpt>
<trkpt lat="55.729324" lon="26.244287">
<ele>166.193481</ele>
<time>2010-07-17T10:21:38Z</time>
<desc>lat.=55.729324, lon.=26.244287, Alt.=166.193481m. Speed=0.036000m/h.</desc>
<speed>0.010000</speed>
</trkpt>
<trkpt lat="55.729324" lon="26.244287">
<ele>166.216919</ele>
<time>2010-07-17T10:21:39Z</time>
<desc>lat.=55.729324, lon.=26.244287, Alt.=166.216919m. Speed=0.000000m/h.</desc>
<speed>0.000000</speed>
</trkpt>
<trkpt lat="55.729324" lon="26.244287">
<ele>166.232544</ele>
<time>2010-07-17T10:21:40Z</time>
<desc>lat.=55.729324, lon.=26.244287, Alt.=166.232544m. Speed=0.000000m/h.</desc>
<speed>0.000000</speed>
</trkpt>
<trkpt lat="55.729324" lon="26.244287">
<ele>166.248169</ele>
<time>2010-07-17T10:21:41Z</time>
<desc>lat.=55.729324, lon.=26.244287, Alt.=166.248169m. Speed=0.000000m/h.</desc>
<speed>0.000000</speed>
</trkpt>
<trkpt lat="55.729324" lon="26.244287">
<ele>166.259888</ele>
<time>2010-07-17T10:21:42Z</time>
<desc>lat.=55.729324, lon.=26.244287, Alt.=166.259888m. Speed=0.144000m/h.</desc>
<speed>0.040000</speed>
</trkpt>
<trkpt lat="55.729324" lon="26.244287">
<ele>166.267700</ele>
<time>2010-07-17T10:21:43Z</time>
<desc>lat.=55.729324, lon.=26.244287, Alt.=166.267700m. Speed=0.036000m/h.</desc>
<speed>0.010000</speed>
</trkpt>
<trkpt lat="55.729324" lon="26.244287">
<ele>166.271606</ele>
<time>2010-07-17T10:21:44Z</time>
<desc>lat.=55.729324, lon.=26.244287, Alt.=166.271606m. Speed=0.000000m/h.</desc>
<speed>0.000000</speed>
</trkpt>
<trkpt lat="55.729324" lon="26.244287">
<ele>166.275513</ele>
<time>2010-07-17T10:21:45Z</time>
<desc>lat.=55.729324, lon.=26.244287, Alt.=166.275513m. Speed=0.072000m/h.</desc>
<speed>0.020000</speed>
</trkpt>
<trkpt lat="55.729324" lon="26.244287">
<ele>166.279419</ele>
<time>2010-07-17T10:21:46Z</time>
<desc>lat.=55.729324, lon.=26.244287, Alt.=166.279419m. Speed=0.072000m/h.</desc>
<speed>0.020000</speed>
</trkpt>
<trkpt lat="55.729324" lon="26.244287">
<ele>166.287231</ele>
<time>2010-07-17T10:21:47Z</time>
<desc>lat.=55.729324, lon.=26.244287, Alt.=166.287231m. Speed=0.072000m/h.</desc>
<speed>0.020000</speed>
</trkpt>
<trkpt lat="55.729324" lon="26.244287">
<ele>166.295044</ele>
<time>2010-07-17T10:21:48Z</time>
<desc>lat.=55.729324, lon.=26.244287, Alt.=166.295044m. Speed=0.036000m/h.</desc>
<speed>0.010000</speed>
</trkpt>
<trkpt lat="55.729324" lon="26.244287">
<ele>166.298950</ele>
<time>2010-07-17T10:21:49Z</time>
<desc>lat.=55.729324, lon.=26.244287, Alt.=166.298950m. Speed=0.072000m/h.</desc>
<speed>0.020000</speed>
</trkpt>
<trkpt lat="55.729324" lon="26.244287">
<ele>166.306763</ele>
<time>2010-07-17T10:21:50Z</time>
<desc>lat.=55.729324, lon.=26.244287, Alt.=166.306763m. Speed=0.072000m/h.</desc>
<speed>0.020000</speed>
</trkpt>
<trkpt lat="55.729324" lon="26.244287">
<ele>166.310669</ele>
<time>2010-07-17T10:21:51Z</time>
<desc>lat.=55.729324, lon.=26.244287, Alt.=166.310669m. Speed=0.036000m/h.</desc>
<speed>0.010000</speed>
</trkpt>
<trkpt lat="55.729324" lon="26.244287">
<ele>166.314575</ele>
<time>2010-07-17T10:21:52Z</time>
<desc>lat.=55.729324, lon.=26.244287, Alt.=166.314575m. Speed=0.108000m/h.</desc>
<speed>0.030000</speed>
</trkpt>
<trkpt lat="55.729324" lon="26.244287">
<ele>166.334106</ele>
<time>2010-07-17T10:21:53Z</time>
<desc>lat.=55.729324, lon.=26.244287, Alt.=166.334106m. Speed=0.396000m/h.</desc>
<speed>0.110000</speed>
</trkpt>
<trkpt lat="55.729324" lon="26.244286">
<ele>166.338013</ele>
<time>2010-07-17T10:21:54Z</time>
<desc>lat.=55.729324, lon.=26.244286, Alt.=166.338013m. Speed=0.108000m/h.</desc>
<speed>0.030000</speed>
</trkpt>
<trkpt lat="55.729324" lon="26.244286">
<ele>166.341919</ele>
<time>2010-07-17T10:21:55Z</time>
<desc>lat.=55.729324, lon.=26.244286, Alt.=166.341919m. Speed=0.108000m/h.</desc>
<speed>0.030000</speed>
</trkpt>
<trkpt lat="55.729324" lon="26.244286">
<ele>166.349731</ele>
<time>2010-07-17T10:21:56Z</time>
<desc>lat.=55.729324, lon.=26.244286, Alt.=166.349731m. Speed=0.108000m/h.</desc>
<speed>0.030000</speed>
</trkpt>
<trkpt lat="55.729324" lon="26.244286">
<ele>166.357544</ele>
<time>2010-07-17T10:21:57Z</time>
<desc>lat.=55.729324, lon.=26.244286, Alt.=166.357544m. Speed=0.072000m/h.</desc>
<speed>0.020000</speed>
</trkpt>
<trkpt lat="55.729324" lon="26.244286">
<ele>166.369263</ele>
<time>2010-07-17T10:21:58Z</time>
<desc>lat.=55.729324, lon.=26.244286, Alt.=166.369263m. Speed=0.108000m/h.</desc>
<speed>0.030000</speed>
</trkpt>
<trkpt lat="55.729324" lon="26.244286">
<ele>166.377075</ele>
<time>2010-07-17T10:21:59Z</time>
<desc>lat.=55.729324, lon.=26.244286, Alt.=166.377075m. Speed=0.000000m/h.</desc>
<speed>0.000000</speed>
</trkpt>
<trkpt lat="55.729324" lon="26.244286">
<ele>166.388794</ele>
<time>2010-07-17T10:22:00Z</time>
<desc>lat.=55.729324, lon.=26.244286, Alt.=166.388794m. Speed=0.072000m/h.</desc>
<speed>0.020000</speed>
</trkpt>
<trkpt lat="55.729324" lon="26.244286">
<ele>166.412231</ele>
<time>2010-07-17T10:22:01Z</time>
<desc>lat.=55.729324, lon.=26.244286, Alt.=166.412231m. Speed=0.288000m/h.</desc>
<speed>0.080000</speed>
</trkpt>
<trkpt lat="55.729324" lon="26.244286">
<ele>166.423950</ele>
<time>2010-07-17T10:22:02Z</time>
<desc>lat.=55.729324, lon.=26.244286, Alt.=166.423950m. Speed=0.072000m/h.</desc>
<speed>0.020000</speed>
</trkpt>
<trkpt lat="55.729324" lon="26.244286">
<ele>166.435669</ele>
<time>2010-07-17T10:22:03Z</time>
<desc>lat.=55.729324, lon.=26.244286, Alt.=166.435669m. Speed=0.036000m/h.</desc>
<speed>0.010000</speed>
</trkpt>
<trkpt lat="55.729324" lon="26.244286">
<ele>166.431763</ele>
<time>2010-07-17T10:22:04Z</time>
<desc>lat.=55.729324, lon.=26.244286, Alt.=166.431763m. Speed=0.108000m/h.</desc>
<speed>0.030000</speed>
</trkpt>
<trkpt lat="55.729324" lon="26.244286">
<ele>166.435669</ele>
<time>2010-07-17T10:22:05Z</time>
<desc>lat.=55.729324, lon.=26.244286, Alt.=166.435669m. Speed=0.108000m/h.</desc>
<speed>0.030000</speed>
</trkpt>
<trkpt lat="55.729324" lon="26.244286">
<ele>166.439575</ele>
<time>2010-07-17T10:22:06Z</time>
<desc>lat.=55.729324, lon.=26.244286, Alt.=166.439575m. Speed=0.108000m/h.</desc>
<speed>0.030000</speed>
</trkpt>
<trkpt lat="55.729324" lon="26.244287">
<ele>166.451294</ele>
<time>2010-07-17T10:22:07Z</time>
<desc>lat.=55.729324, lon.=26.244287, Alt.=166.451294m. Speed=0.108000m/h.</desc>
<speed>0.030000</speed>
</trkpt>
<trkpt lat="55.729324" lon="26.244287">
<ele>166.455200</ele>
<time>2010-07-17T10:22:08Z</time>
<desc>lat.=55.729324, lon.=26.244287, Alt.=166.455200m. Speed=0.180000m/h.</desc>
<speed>0.050000</speed>
</trkpt>
<trkpt lat="55.729324" lon="26.244287">
<ele>166.459106</ele>
<time>2010-07-17T10:22:09Z</time>
<desc>lat.=55.729324, lon.=26.244287, Alt.=166.459106m. Speed=0.180000m/h.</desc>
<speed>0.050000</speed>
</trkpt>
<trkpt lat="55.729324" lon="26.244287">
<ele>166.455200</ele>
<time>2010-07-17T10:22:10Z</time>
<desc>lat.=55.729324, lon.=26.244287, Alt.=166.455200m. Speed=0.072000m/h.</desc>
<speed>0.020000</speed>
</trkpt>
<trkpt lat="55.729324" lon="26.244287">
<ele>166.466919</ele>
<time>2010-07-17T10:22:11Z</time>
<desc>lat.=55.729324, lon.=26.244287, Alt.=166.466919m. Speed=0.036000m/h.</desc>
<speed>0.010000</speed>
</trkpt>
<trkpt lat="55.729321" lon="26.244287">
<ele>166.470825</ele>
<time>2010-07-17T10:22:12Z</time>
<desc>lat.=55.729321, lon.=26.244287, Alt.=166.470825m. Speed=0.108000m/h.</desc>
<speed>0.030000</speed>
</trkpt>
<trkpt lat="55.729321" lon="26.244287">
<ele>166.470825</ele>
<time>2010-07-17T10:22:13Z</time>
<desc>lat.=55.729321, lon.=26.244287, Alt.=166.470825m. Speed=0.072000m/h.</desc>
<speed>0.020000</speed>
</trkpt>
<trkpt lat="55.729321" lon="26.244287">
<ele>166.474731</ele>
<time>2010-07-17T10:22:14Z</time>
<desc>lat.=55.729321, lon.=26.244287, Alt.=166.474731m. Speed=0.072000m/h.</desc>
<speed>0.020000</speed>
</trkpt>
<trkpt lat="55.729321" lon="26.244287">
<ele>166.478638</ele>
<time>2010-07-17T10:22:15Z</time>
<desc>lat.=55.729321, lon.=26.244287, Alt.=166.478638m. Speed=0.072000m/h.</desc>
<speed>0.020000</speed>
</trkpt>
<trkpt lat="55.729321" lon="26.244287">
<ele>166.478638</ele>
<time>2010-07-17T10:22:16Z</time>
<desc>lat.=55.729321, lon.=26.244287, Alt.=166.478638m. Speed=0.144000m/h.</desc>
<speed>0.040000</speed>
</trkpt>
<trkpt lat="55.729321" lon="26.244287">
<ele>166.486450</ele>
<time>2010-07-17T10:22:17Z</time>
<desc>lat.=55.729321, lon.=26.244287, Alt.=166.486450m. Speed=0.108000m/h.</desc>
<speed>0.030000</speed>
</trkpt>
<trkpt lat="55.729321" lon="26.244287">
<ele>166.498169</ele>
<time>2010-07-17T10:22:18Z</time>
<desc>lat.=55.729321, lon.=26.244287, Alt.=166.498169m. Speed=0.072000m/h.</desc>
<speed>0.020000</speed>
</trkpt>
<trkpt lat="55.729321" lon="26.244287">
<ele>166.505981</ele>
<time>2010-07-17T10:22:19Z</time>
<desc>lat.=55.729321, lon.=26.244287, Alt.=166.505981m. Speed=0.108000m/h.</desc>
<speed>0.030000</speed>
</trkpt>
<trkpt lat="55.729321" lon="26.244287">
<ele>166.517700</ele>
<time>2010-07-17T10:22:20Z</time>
<desc>lat.=55.729321, lon.=26.244287, Alt.=166.517700m. Speed=0.072000m/h.</desc>
<speed>0.020000</speed>
</trkpt>
<trkpt lat="55.729321" lon="26.244287">
<ele>166.529419</ele>
<time>2010-07-17T10:22:21Z</time>
<desc>lat.=55.729321, lon.=26.244287, Alt.=166.529419m. Speed=0.144000m/h.</desc>
<speed>0.040000</speed>
</trkpt>
<trkpt lat="55.729321" lon="26.244287">
<ele>166.541138</ele>
<time>2010-07-17T10:22:22Z</time>
<desc>lat.=55.729321, lon.=26.244287, Alt.=166.541138m. Speed=0.180000m/h.</desc>
<speed>0.050000</speed>
</trkpt>
<trkpt lat="55.729321" lon="26.244287">
<ele>166.545044</ele>
<time>2010-07-17T10:22:23Z</time>
<desc>lat.=55.729321, lon.=26.244287, Alt.=166.545044m. Speed=0.180000m/h.</desc>
<speed>0.050000</speed>
</trkpt>
<trkpt lat="55.729321" lon="26.244287">
<ele>166.548950</ele>
<time>2010-07-17T10:22:24Z</time>
<desc>lat.=55.729321, lon.=26.244287, Alt.=166.548950m. Speed=0.036000m/h.</desc>
<speed>0.010000</speed>
</trkpt>
<trkpt lat="55.729321" lon="26.244287">
<ele>166.548950</ele>
<time>2010-07-17T10:22:25Z</time>
<desc>lat.=55.729321, lon.=26.244287, Alt.=166.548950m. Speed=0.072000m/h.</desc>
<speed>0.020000</speed>
</trkpt>
<trkpt lat="55.729321" lon="26.244289">
<ele>166.548950</ele>
<time>2010-07-17T10:22:26Z</time>
<desc>lat.=55.729321, lon.=26.244289, Alt.=166.548950m. Speed=0.072000m/h.</desc>
<speed>0.020000</speed>
</trkpt>
<trkpt lat="55.729321" lon="26.244289">
<ele>166.552856</ele>
<time>2010-07-17T10:22:27Z</time>
<desc>lat.=55.729321, lon.=26.244289, Alt.=166.552856m. Speed=0.072000m/h.</desc>
<speed>0.020000</speed>
</trkpt>
<trkpt lat="55.729321" lon="26.244289">
<ele>166.552856</ele>
<time>2010-07-17T10:22:28Z</time>
<desc>lat.=55.729321, lon.=26.244289, Alt.=166.552856m. Speed=0.108000m/h.</desc>
<speed>0.030000</speed>
</trkpt>
<trkpt lat="55.729321" lon="26.244289">
<ele>166.556763</ele>
<time>2010-07-17T10:22:29Z</time>
<desc>lat.=55.729321, lon.=26.244289, Alt.=166.556763m. Speed=0.072000m/h.</desc>
<speed>0.020000</speed>
</trkpt>
<trkpt lat="55.729321" lon="26.244289">
<ele>166.560669</ele>
<time>2010-07-17T10:22:30Z</time>
<desc>lat.=55.729321, lon.=26.244289, Alt.=166.560669m. Speed=0.036000m/h.</desc>
<speed>0.010000</speed>
</trkpt>
<trkpt lat="55.729321" lon="26.244289">
<ele>166.564575</ele>
<time>2010-07-17T10:22:31Z</time>
<desc>lat.=55.729321, lon.=26.244289, Alt.=166.564575m. Speed=0.036000m/h.</desc>
<speed>0.010000</speed>
</trkpt>
<trkpt lat="55.729321" lon="26.244289">
<ele>166.572388</ele>
<time>2010-07-17T10:22:32Z</time>
<desc>lat.=55.729321, lon.=26.244289, Alt.=166.572388m. Speed=0.036000m/h.</desc>
<speed>0.010000</speed>
</trkpt>
<trkpt lat="55.729321" lon="26.244289">
<ele>166.580200</ele>
<time>2010-07-17T10:22:33Z</time>
<desc>lat.=55.729321, lon.=26.244289, Alt.=166.580200m. Speed=0.180000m/h.</desc>
<speed>0.050000</speed>
</trkpt>
<trkpt lat="55.729321" lon="26.244289">
<ele>166.584106</ele>
<time>2010-07-17T10:22:34Z</time>
<desc>lat.=55.729321, lon.=26.244289, Alt.=166.584106m. Speed=0.108000m/h.</desc>
<speed>0.030000</speed>
</trkpt>
<trkpt lat="55.729321" lon="26.244289">
<ele>166.588013</ele>
<time>2010-07-17T10:22:35Z</time>
<desc>lat.=55.729321, lon.=26.244289, Alt.=166.588013m. Speed=0.036000m/h.</desc>
<speed>0.010000</speed>
</trkpt>
<trkpt lat="55.729321" lon="26.244289">
<ele>166.595825</ele>
<time>2010-07-17T10:22:36Z</time>
<desc>lat.=55.729321, lon.=26.244289, Alt.=166.595825m. Speed=0.072000m/h.</desc>
<speed>0.020000</speed>
</trkpt>
<trkpt lat="55.729321" lon="26.244289">
<ele>166.599731</ele>
<time>2010-07-17T10:22:37Z</time>
<desc>lat.=55.729321, lon.=26.244289, Alt.=166.599731m. Speed=0.036000m/h.</desc>
<speed>0.010000</speed>
</trkpt>
<trkpt lat="55.729321" lon="26.244289">
<ele>166.595825</ele>
<time>2010-07-17T10:22:38Z</time>
<desc>lat.=55.729321, lon.=26.244289, Alt.=166.595825m. Speed=0.036000m/h.</desc>
<speed>0.010000</speed>
</trkpt>
<trkpt lat="55.729321" lon="26.244289">
<ele>166.595825</ele>
<time>2010-07-17T10:22:39Z</time>
<desc>lat.=55.729321, lon.=26.244289, Alt.=166.595825m. Speed=0.000000m/h.</desc>
<speed>0.000000</speed>
</trkpt>
<trkpt lat="55.729321" lon="26.244289">
<ele>166.595825</ele>
<time>2010-07-17T10:22:40Z</time>
<desc>lat.=55.729321, lon.=26.244289, Alt.=166.595825m. Speed=0.036000m/h.</desc>
<speed>0.010000</speed>
</trkpt>
<trkpt lat="55.729321" lon="26.244287">
<ele>166.595825</ele>
<time>2010-07-17T10:22:41Z</time>
<desc>lat.=55.729321, lon.=26.244287, Alt.=166.595825m. Speed=0.036000m/h.</desc>
<speed>0.010000</speed>
</trkpt>
<trkpt lat="55.729321" lon="26.244287">
<ele>166.591919</ele>
<time>2010-07-17T10:22:42Z</time>
<desc>lat.=55.729321, lon.=26.244287, Alt.=166.591919m. Speed=0.108000m/h.</desc>
<speed>0.030000</speed>
</trkpt>
<trkpt lat="55.729321" lon="26.244287">
<ele>166.584106</ele>
<time>2010-07-17T10:22:43Z</time>
<desc>lat.=55.729321, lon.=26.244287, Alt.=166.584106m. Speed=0.072000m/h.</desc>
<speed>0.020000</speed>
</trkpt>
<trkpt lat="55.729321" lon="26.244287">
<ele>166.580200</ele>
<time>2010-07-17T10:22:44Z</time>
<desc>lat.=55.729321, lon.=26.244287, Alt.=166.580200m. Speed=0.000000m/h.</desc>
<speed>0.000000</speed>
</trkpt>
<trkpt lat="55.729321" lon="26.244287">
<ele>166.576294</ele>
<time>2010-07-17T10:22:45Z</time>
<desc>lat.=55.729321, lon.=26.244287, Alt.=166.576294m. Speed=0.000000m/h.</desc>
<speed>0.000000</speed>
</trkpt>
<trkpt lat="55.729321" lon="26.244287">
<ele>166.564575</ele>
<time>2010-07-17T10:22:46Z</time>
<desc>lat.=55.729321, lon.=26.244287, Alt.=166.564575m. Speed=0.036000m/h.</desc>
<speed>0.010000</speed>
</trkpt>
<trkpt lat="55.729321" lon="26.244287">
<ele>166.560669</ele>
<time>2010-07-17T10:22:47Z</time>
<desc>lat.=55.729321, lon.=26.244287, Alt.=166.560669m. Speed=0.072000m/h.</desc>
<speed>0.020000</speed>
</trkpt>
<trkpt lat="55.729321" lon="26.244287">
<ele>166.548950</ele>
<time>2010-07-17T10:22:48Z</time>
<desc>lat.=55.729321, lon.=26.244287, Alt.=166.548950m. Speed=0.072000m/h.</desc>
<speed>0.020000</speed>
</trkpt>
<trkpt lat="55.729321" lon="26.244287">
<ele>166.541138</ele>
<time>2010-07-17T10:22:49Z</time>
<desc>lat.=55.729321, lon.=26.244287, Alt.=166.541138m. Speed=0.072000m/h.</desc>
<speed>0.020000</speed>
</trkpt>
<trkpt lat="55.729321" lon="26.244287">
<ele>166.533325</ele>
<time>2010-07-17T10:22:50Z</time>
<desc>lat.=55.729321, lon.=26.244287, Alt.=166.533325m. Speed=0.108000m/h.</desc>
<speed>0.030000</speed>
</trkpt>
<trkpt lat="55.729321" lon="26.244286">
<ele>166.529419</ele>
<time>2010-07-17T10:22:51Z</time>
<desc>lat.=55.729321, lon.=26.244286, Alt.=166.529419m. Speed=0.180000m/h.</desc>
<speed>0.050000</speed>
</trkpt>
<trkpt lat="55.729321" lon="26.244286">
<ele>166.529419</ele>
<time>2010-07-17T10:22:52Z</time>
<desc>lat.=55.729321, lon.=26.244286, Alt.=166.529419m. Speed=0.108000m/h.</desc>
<speed>0.030000</speed>
</trkpt>
<trkpt lat="55.729321" lon="26.244286">
<ele>166.525513</ele>
<time>2010-07-17T10:22:53Z</time>
<desc>lat.=55.729321, lon.=26.244286, Alt.=166.525513m. Speed=0.144000m/h.</desc>
<speed>0.040000</speed>
</trkpt>
<trkpt lat="55.729321" lon="26.244286">
<ele>166.517700</ele>
<time>2010-07-17T10:22:54Z</time>
<desc>lat.=55.729321, lon.=26.244286, Alt.=166.517700m. Speed=0.108000m/h.</desc>
<speed>0.030000</speed>
</trkpt>
<trkpt lat="55.729321" lon="26.244286">
<ele>166.517700</ele>
<time>2010-07-17T10:22:55Z</time>
<desc>lat.=55.729321, lon.=26.244286, Alt.=166.517700m. Speed=0.108000m/h.</desc>
<speed>0.030000</speed>
</trkpt>
<trkpt lat="55.729321" lon="26.244286">
<ele>166.517700</ele>
<time>2010-07-17T10:22:56Z</time>
<desc>lat.=55.729321, lon.=26.244286, Alt.=166.517700m. Speed=0.180000m/h.</desc>
<speed>0.050000</speed>
</trkpt>
<trkpt lat="55.729321" lon="26.244284">
<ele>166.509888</ele>
<time>2010-07-17T10:22:57Z</time>
<desc>lat.=55.729321, lon.=26.244284, Alt.=166.509888m. Speed=0.180000m/h.</desc>
<speed>0.050000</speed>
</trkpt>
<trkpt lat="55.729321" lon="26.244284">
<ele>166.502075</ele>
<time>2010-07-17T10:22:58Z</time>
<desc>lat.=55.729321, lon.=26.244284, Alt.=166.502075m. Speed=0.108000m/h.</desc>
<speed>0.030000</speed>
</trkpt>
<trkpt lat="55.729321" lon="26.244284">
<ele>166.490356</ele>
<time>2010-07-17T10:22:59Z</time>
<desc>lat.=55.729321, lon.=26.244284, Alt.=166.490356m. Speed=0.108000m/h.</desc>
<speed>0.030000</speed>
</trkpt>
<trkpt lat="55.729321" lon="26.244284">
<ele>166.486450</ele>
<time>2010-07-17T10:23:00Z</time>
<desc>lat.=55.729321, lon.=26.244284, Alt.=166.486450m. Speed=0.108000m/h.</desc>
<speed>0.030000</speed>
</trkpt>
<trkpt lat="55.729321" lon="26.244284">
<ele>166.482544</ele>
<time>2010-07-17T10:23:01Z</time>
<desc>lat.=55.729321, lon.=26.244284, Alt.=166.482544m. Speed=0.252000m/h.</desc>
<speed>0.070000</speed>
</trkpt>
<trkpt lat="55.729321" lon="26.244282">
<ele>166.486450</ele>
<time>2010-07-17T10:23:02Z</time>
<desc>lat.=55.729321, lon.=26.244282, Alt.=166.486450m. Speed=0.180000m/h.</desc>
<speed>0.050000</speed>
</trkpt>
<trkpt lat="55.729321" lon="26.244282">
<ele>166.486450</ele>
<time>2010-07-17T10:23:03Z</time>
<desc>lat.=55.729321, lon.=26.244282, Alt.=166.486450m. Speed=0.144000m/h.</desc>
<speed>0.040000</speed>
</trkpt>
<trkpt lat="55.729321" lon="26.244282">
<ele>166.482544</ele>
<time>2010-07-17T10:23:04Z</time>
<desc>lat.=55.729321, lon.=26.244282, Alt.=166.482544m. Speed=0.072000m/h.</desc>
<speed>0.020000</speed>
</trkpt>
<trkpt lat="55.729321" lon="26.244282">
<ele>166.478638</ele>
<time>2010-07-17T10:23:05Z</time>
<desc>lat.=55.729321, lon.=26.244282, Alt.=166.478638m. Speed=0.252000m/h.</desc>
<speed>0.070000</speed>
</trkpt>
<trkpt lat="55.729321" lon="26.244282">
<ele>166.478638</ele>
<time>2010-07-17T10:23:06Z</time>
<desc>lat.=55.729321, lon.=26.244282, Alt.=166.478638m. Speed=0.252000m/h.</desc>
<speed>0.070000</speed>
</trkpt>
<trkpt lat="55.729321" lon="26.244280">
<ele>166.478638</ele>
<time>2010-07-17T10:23:07Z</time>
<desc>lat.=55.729321, lon.=26.244280, Alt.=166.478638m. Speed=0.180000m/h.</desc>
<speed>0.050000</speed>
</trkpt>
<trkpt lat="55.729321" lon="26.244280">
<ele>166.474731</ele>
<time>2010-07-17T10:23:08Z</time>
<desc>lat.=55.729321, lon.=26.244280, Alt.=166.474731m. Speed=0.216000m/h.</desc>
<speed>0.060000</speed>
</trkpt>
<trkpt lat="55.729321" lon="26.244280">
<ele>166.466919</ele>
<time>2010-07-17T10:23:09Z</time>
<desc>lat.=55.729321, lon.=26.244280, Alt.=166.466919m. Speed=0.144000m/h.</desc>
<speed>0.040000</speed>
</trkpt>
<trkpt lat="55.729321" lon="26.244280">
<ele>166.470825</ele>
<time>2010-07-17T10:23:10Z</time>
<desc>lat.=55.729321, lon.=26.244280, Alt.=166.470825m. Speed=0.108000m/h.</desc>
<speed>0.030000</speed>
</trkpt>
<trkpt lat="55.729321" lon="26.244278">
<ele>166.470825</ele>
<time>2010-07-17T10:23:11Z</time>
<desc>lat.=55.729321, lon.=26.244278, Alt.=166.470825m. Speed=0.216000m/h.</desc>
<speed>0.060000</speed>
</trkpt>
<trkpt lat="55.729321" lon="26.244278">
<ele>166.466919</ele>
<time>2010-07-17T10:23:12Z</time>
<desc>lat.=55.729321, lon.=26.244278, Alt.=166.466919m. Speed=0.216000m/h.</desc>
<speed>0.060000</speed>
</trkpt>
<trkpt lat="55.729324" lon="26.244278">
<ele>166.463013</ele>
<time>2010-07-17T10:23:13Z</time>
<desc>lat.=55.729324, lon.=26.244278, Alt.=166.463013m. Speed=0.252000m/h.</desc>
<speed>0.070000</speed>
</trkpt>
<trkpt lat="55.729324" lon="26.244278">
<ele>166.459106</ele>
<time>2010-07-17T10:23:14Z</time>
<desc>lat.=55.729324, lon.=26.244278, Alt.=166.459106m. Speed=0.108000m/h.</desc>
<speed>0.030000</speed>
</trkpt>
<trkpt lat="55.729324" lon="26.244278">
<ele>166.459106</ele>
<time>2010-07-17T10:23:15Z</time>
<desc>lat.=55.729324, lon.=26.244278, Alt.=166.459106m. Speed=0.252000m/h.</desc>
<speed>0.070000</speed>
</trkpt>
<trkpt lat="55.729324" lon="26.244276">
<ele>166.455200</ele>
<time>2010-07-17T10:23:16Z</time>
<desc>lat.=55.729324, lon.=26.244276, Alt.=166.455200m. Speed=0.288000m/h.</desc>
<speed>0.080000</speed>
</trkpt>
<trkpt lat="55.729324" lon="26.244276">
<ele>166.447388</ele>
<time>2010-07-17T10:23:17Z</time>
<desc>lat.=55.729324, lon.=26.244276, Alt.=166.447388m. Speed=0.180000m/h.</desc>
<speed>0.050000</speed>
</trkpt>
<trkpt lat="55.729324" lon="26.244276">
<ele>166.443481</ele>
<time>2010-07-17T10:23:18Z</time>
<desc>lat.=55.729324, lon.=26.244276, Alt.=166.443481m. Speed=0.180000m/h.</desc>
<speed>0.050000</speed>
</trkpt>
<trkpt lat="55.729324" lon="26.244276">
<ele>166.435669</ele>
<time>2010-07-17T10:23:19Z</time>
<desc>lat.=55.729324, lon.=26.244276, Alt.=166.435669m. Speed=0.144000m/h.</desc>
<speed>0.040000</speed>
</trkpt>
<trkpt lat="55.729324" lon="26.244274">
<ele>166.423950</ele>
<time>2010-07-17T10:23:20Z</time>
<desc>lat.=55.729324, lon.=26.244274, Alt.=166.423950m. Speed=0.108000m/h.</desc>
<speed>0.030000</speed>
</trkpt>
<trkpt lat="55.729324" lon="26.244274">
<ele>166.416138</ele>
<time>2010-07-17T10:23:21Z</time>
<desc>lat.=55.729324, lon.=26.244274, Alt.=166.416138m. Speed=0.108000m/h.</desc>
<speed>0.030000</speed>
</trkpt>
<trkpt lat="55.729324" lon="26.244274">
<ele>166.416138</ele>
<time>2010-07-17T10:23:22Z</time>
<desc>lat.=55.729324, lon.=26.244274, Alt.=166.416138m. Speed=0.180000m/h.</desc>
<speed>0.050000</speed>
</trkpt>
<trkpt lat="55.729324" lon="26.244274">
<ele>166.412231</ele>
<time>2010-07-17T10:23:23Z</time>
<desc>lat.=55.729324, lon.=26.244274, Alt.=166.412231m. Speed=0.108000m/h.</desc>
<speed>0.030000</speed>
</trkpt>
<trkpt lat="55.729324" lon="26.244274">
<ele>166.412231</ele>
<time>2010-07-17T10:23:24Z</time>
<desc>lat.=55.729324, lon.=26.244274, Alt.=166.412231m. Speed=0.288000m/h.</desc>
<speed>0.080000</speed>
</trkpt>
<trkpt lat="55.729324" lon="26.244274">
<ele>166.412231</ele>
<time>2010-07-17T10:23:25Z</time>
<desc>lat.=55.729324, lon.=26.244274, Alt.=166.412231m. Speed=0.324000m/h.</desc>
<speed>0.090000</speed>
</trkpt>
<trkpt lat="55.729328" lon="26.244274">
<ele>166.408325</ele>
<time>2010-07-17T10:23:26Z</time>
<desc>lat.=55.729328, lon.=26.244274, Alt.=166.408325m. Speed=0.432000m/h.</desc>
<speed>0.120000</speed>
</trkpt>
<trkpt lat="55.729328" lon="26.244274">
<ele>166.412231</ele>
<time>2010-07-17T10:23:27Z</time>
<desc>lat.=55.729328, lon.=26.244274, Alt.=166.412231m. Speed=0.468000m/h.</desc>
<speed>0.130000</speed>
</trkpt>
<trkpt lat="55.729328" lon="26.244274">
<ele>166.412231</ele>
<time>2010-07-17T10:23:28Z</time>
<desc>lat.=55.729328, lon.=26.244274, Alt.=166.412231m. Speed=0.468000m/h.</desc>
<speed>0.130000</speed>
</trkpt>
<trkpt lat="55.729332" lon="26.244274">
<ele>166.420044</ele>
<time>2010-07-17T10:23:29Z</time>
<desc>lat.=55.729332, lon.=26.244274, Alt.=166.420044m. Speed=0.540000m/h.</desc>
<speed>0.150000</speed>
</trkpt>
<trkpt lat="55.729332" lon="26.244274">
<ele>166.431763</ele>
<time>2010-07-17T10:23:30Z</time>
<desc>lat.=55.729332, lon.=26.244274, Alt.=166.431763m. Speed=0.612000m/h.</desc>
<speed>0.170000</speed>
</trkpt>
<trkpt lat="55.729332" lon="26.244274">
<ele>166.447388</ele>
<time>2010-07-17T10:23:31Z</time>
<desc>lat.=55.729332, lon.=26.244274, Alt.=166.447388m. Speed=0.720000m/h.</desc>
<speed>0.200000</speed>
</trkpt>
<trkpt lat="55.729336" lon="26.244272">
<ele>166.474731</ele>
<time>2010-07-17T10:23:32Z</time>
<desc>lat.=55.729336, lon.=26.244272, Alt.=166.474731m. Speed=0.936000m/h.</desc>
<speed>0.260000</speed>
</trkpt>
<trkpt lat="55.729336" lon="26.244270">
<ele>166.498169</ele>
<time>2010-07-17T10:23:33Z</time>
<desc>lat.=55.729336, lon.=26.244270, Alt.=166.498169m. Speed=0.972000m/h.</desc>
<speed>0.270000</speed>
</trkpt>
<trkpt lat="55.729340" lon="26.244268">
<ele>166.517700</ele>
<time>2010-07-17T10:23:34Z</time>
<desc>lat.=55.729340, lon.=26.244268, Alt.=166.517700m. Speed=1.008000m/h.</desc>
<speed>0.280000</speed>
</trkpt>
<trkpt lat="55.729343" lon="26.244267">
<ele>166.541138</ele>
<time>2010-07-17T10:23:35Z</time>
<desc>lat.=55.729343, lon.=26.244267, Alt.=166.541138m. Speed=1.044000m/h.</desc>
<speed>0.290000</speed>
</trkpt>
<trkpt lat="55.729343" lon="26.244265">
<ele>166.572388</ele>
<time>2010-07-17T10:23:36Z</time>
<desc>lat.=55.729343, lon.=26.244265, Alt.=166.572388m. Speed=1.116000m/h.</desc>
<speed>0.310000</speed>
</trkpt>
<trkpt lat="55.729347" lon="26.244249">
<ele>166.560669</ele>
<time>2010-07-17T10:23:37Z</time>
<desc>lat.=55.729347, lon.=26.244249, Alt.=166.560669m. Speed=1.080000m/h.</desc>
<speed>0.300000</speed>
</trkpt>
<trkpt lat="55.729347" lon="26.244226">
<ele>166.982544</ele>
<time>2010-07-17T10:23:38Z</time>
<desc>lat.=55.729347, lon.=26.244226, Alt.=166.982544m. Speed=1.260000m/h.</desc>
<speed>0.350000</speed>
</trkpt>
<trkpt lat="55.729355" lon="26.244205">
<ele>167.380981</ele>
<time>2010-07-17T10:23:39Z</time>
<desc>lat.=55.729355, lon.=26.244205, Alt.=167.380981m. Speed=1.476000m/h.</desc>
<speed>0.410000</speed>
</trkpt>
<trkpt lat="55.729359" lon="26.244188">
<ele>167.478638</ele>
<time>2010-07-17T10:23:40Z</time>
<desc>lat.=55.729359, lon.=26.244188, Alt.=167.478638m. Speed=1.404000m/h.</desc>
<speed>0.390000</speed>
</trkpt>
<trkpt lat="55.729362" lon="26.244171">
<ele>167.650513</ele>
<time>2010-07-17T10:23:41Z</time>
<desc>lat.=55.729362, lon.=26.244171, Alt.=167.650513m. Speed=1.332000m/h.</desc>
<speed>0.370000</speed>
</trkpt>
<trkpt lat="55.729366" lon="26.244156">
<ele>167.685669</ele>
<time>2010-07-17T10:23:42Z</time>
<desc>lat.=55.729366, lon.=26.244156, Alt.=167.685669m. Speed=1.332000m/h.</desc>
<speed>0.370000</speed>
</trkpt>
<trkpt lat="55.729370" lon="26.244143">
<ele>167.541138</ele>
<time>2010-07-17T10:23:43Z</time>
<desc>lat.=55.729370, lon.=26.244143, Alt.=167.541138m. Speed=1.476000m/h.</desc>
<speed>0.410000</speed>
</trkpt>
<trkpt lat="55.729374" lon="26.244125">
<ele>167.513794</ele>
<time>2010-07-17T10:23:44Z</time>
<desc>lat.=55.729374, lon.=26.244125, Alt.=167.513794m. Speed=1.476000m/h.</desc>
<speed>0.410000</speed>
</trkpt>
<trkpt lat="55.729374" lon="26.244152">
<ele>166.892700</ele>
<time>2010-07-17T10:23:45Z</time>
<desc>lat.=55.729374, lon.=26.244152, Alt.=166.892700m. Speed=1.044000m/h.</desc>
<speed>0.290000</speed>
</trkpt>
<trkpt lat="55.729374" lon="26.244154">
<ele>166.474731</ele>
<time>2010-07-17T10:23:46Z</time>
<desc>lat.=55.729374, lon.=26.244154, Alt.=166.474731m. Speed=0.972000m/h.</desc>
<speed>0.270000</speed>
</trkpt>
<trkpt lat="55.729378" lon="26.244148">
<ele>166.150513</ele>
<time>2010-07-17T10:23:47Z</time>
<desc>lat.=55.729378, lon.=26.244148, Alt.=166.150513m. Speed=0.864000m/h.</desc>
<speed>0.240000</speed>
</trkpt>
<trkpt lat="55.729382" lon="26.244144">
<ele>165.877075</ele>
<time>2010-07-17T10:23:48Z</time>
<desc>lat.=55.729382, lon.=26.244144, Alt.=165.877075m. Speed=0.828000m/h.</desc>
<speed>0.230000</speed>
</trkpt>
<trkpt lat="55.729382" lon="26.244144">
<ele>165.900513</ele>
<time>2010-07-17T10:23:49Z</time>
<desc>lat.=55.729382, lon.=26.244144, Alt.=165.900513m. Speed=0.684000m/h.</desc>
<speed>0.190000</speed>
</trkpt>
<trkpt lat="55.729385" lon="26.244144">
<ele>165.927856</ele>
<time>2010-07-17T10:23:50Z</time>
<desc>lat.=55.729385, lon.=26.244144, Alt.=165.927856m. Speed=0.648000m/h.</desc>
<speed>0.180000</speed>
</trkpt>
<trkpt lat="55.729385" lon="26.244144">
<ele>165.955200</ele>
<time>2010-07-17T10:23:51Z</time>
<desc>lat.=55.729385, lon.=26.244144, Alt.=165.955200m. Speed=0.468000m/h.</desc>
<speed>0.130000</speed>
</trkpt>
<trkpt lat="55.729385" lon="26.244144">
<ele>165.978638</ele>
<time>2010-07-17T10:23:52Z</time>
<desc>lat.=55.729385, lon.=26.244144, Alt.=165.978638m. Speed=0.504000m/h.</desc>
<speed>0.140000</speed>
</trkpt>
<trkpt lat="55.729389" lon="26.244144">
<ele>166.005981</ele>
<time>2010-07-17T10:23:53Z</time>
<desc>lat.=55.729389, lon.=26.244144, Alt.=166.005981m. Speed=0.396000m/h.</desc>
<speed>0.110000</speed>
</trkpt>
<trkpt lat="55.729389" lon="26.244144">
<ele>166.025513</ele>
<time>2010-07-17T10:23:54Z</time>
<desc>lat.=55.729389, lon.=26.244144, Alt.=166.025513m. Speed=0.432000m/h.</desc>
<speed>0.120000</speed>
</trkpt>
<trkpt lat="55.729389" lon="26.244144">
<ele>166.048950</ele>
<time>2010-07-17T10:23:55Z</time>
<desc>lat.=55.729389, lon.=26.244144, Alt.=166.048950m. Speed=0.396000m/h.</desc>
<speed>0.110000</speed>
</trkpt>
<trkpt lat="55.729389" lon="26.244144">
<ele>166.068481</ele>
<time>2010-07-17T10:23:56Z</time>
<desc>lat.=55.729389, lon.=26.244144, Alt.=166.068481m. Speed=0.396000m/h.</desc>
<speed>0.110000</speed>
</trkpt>
<trkpt lat="55.729393" lon="26.244144">
<ele>166.088013</ele>
<time>2010-07-17T10:23:57Z</time>
<desc>lat.=55.729393, lon.=26.244144, Alt.=166.088013m. Speed=0.504000m/h.</desc>
<speed>0.140000</speed>
</trkpt>
<trkpt lat="55.729393" lon="26.244144">
<ele>166.103638</ele>
<time>2010-07-17T10:23:58Z</time>
<desc>lat.=55.729393, lon.=26.244144, Alt.=166.103638m. Speed=0.612000m/h.</desc>
<speed>0.170000</speed>
</trkpt>
<trkpt lat="55.729393" lon="26.244144">
<ele>166.115356</ele>
<time>2010-07-17T10:23:59Z</time>
<desc>lat.=55.729393, lon.=26.244144, Alt.=166.115356m. Speed=0.720000m/h.</desc>
<speed>0.200000</speed>
</trkpt>
<trkpt lat="55.729397" lon="26.244144">
<ele>166.127075</ele>
<time>2010-07-17T10:24:00Z</time>
<desc>lat.=55.729397, lon.=26.244144, Alt.=166.127075m. Speed=0.684000m/h.</desc>
<speed>0.190000</speed>
</trkpt>
<trkpt lat="55.729397" lon="26.244144">
<ele>166.134888</ele>
<time>2010-07-17T10:24:01Z</time>
<desc>lat.=55.729397, lon.=26.244144, Alt.=166.134888m. Speed=0.684000m/h.</desc>
<speed>0.190000</speed>
</trkpt>
<trkpt lat="55.729401" lon="26.244146">
<ele>166.150513</ele>
<time>2010-07-17T10:24:02Z</time>
<desc>lat.=55.729401, lon.=26.244146, Alt.=166.150513m. Speed=0.576000m/h.</desc>
<speed>0.160000</speed>
</trkpt>
<trkpt lat="55.729401" lon="26.244146">
<ele>166.158325</ele>
<time>2010-07-17T10:24:03Z</time>
<desc>lat.=55.729401, lon.=26.244146, Alt.=166.158325m. Speed=0.720000m/h.</desc>
<speed>0.200000</speed>
</trkpt>
<trkpt lat="55.729404" lon="26.244146">
<ele>166.162231</ele>
<time>2010-07-17T10:24:04Z</time>
<desc>lat.=55.729404, lon.=26.244146, Alt.=166.162231m. Speed=0.576000m/h.</desc>
<speed>0.160000</speed>
</trkpt>
<trkpt lat="55.729404" lon="26.244146">
<ele>166.170044</ele>
<time>2010-07-17T10:24:05Z</time>
<desc>lat.=55.729404, lon.=26.244146, Alt.=166.170044m. Speed=0.540000m/h.</desc>
<speed>0.150000</speed>
</trkpt>
<trkpt lat="55.729404" lon="26.244144">
<ele>166.177856</ele>
<time>2010-07-17T10:24:06Z</time>
<desc>lat.=55.729404, lon.=26.244144, Alt.=166.177856m. Speed=0.504000m/h.</desc>
<speed>0.140000</speed>
</trkpt>
<trkpt lat="55.729408" lon="26.244144">
<ele>166.185669</ele>
<time>2010-07-17T10:24:07Z</time>
<desc>lat.=55.729408, lon.=26.244144, Alt.=166.185669m. Speed=0.396000m/h.</desc>
<speed>0.110000</speed>
</trkpt>
<trkpt lat="55.729408" lon="26.244143">
<ele>166.193481</ele>
<time>2010-07-17T10:24:08Z</time>
<desc>lat.=55.729408, lon.=26.244143, Alt.=166.193481m. Speed=0.324000m/h.</desc>
<speed>0.090000</speed>
</trkpt>
<trkpt lat="55.729408" lon="26.244143">
<ele>166.205200</ele>
<time>2010-07-17T10:24:09Z</time>
<desc>lat.=55.729408, lon.=26.244143, Alt.=166.205200m. Speed=0.144000m/h.</desc>
<speed>0.040000</speed>
</trkpt>
<trkpt lat="55.729408" lon="26.244143">
<ele>166.197388</ele>
<time>2010-07-17T10:24:10Z</time>
<desc>lat.=55.729408, lon.=26.244143, Alt.=166.197388m. Speed=0.288000m/h.</desc>
<speed>0.080000</speed>
</trkpt>
<trkpt lat="55.729408" lon="26.244141">
<ele>166.197388</ele>
<time>2010-07-17T10:24:11Z</time>
<desc>lat.=55.729408, lon.=26.244141, Alt.=166.197388m. Speed=0.288000m/h.</desc>
<speed>0.080000</speed>
</trkpt>
<trkpt lat="55.729408" lon="26.244141">
<ele>166.201294</ele>
<time>2010-07-17T10:24:12Z</time>
<desc>lat.=55.729408, lon.=26.244141, Alt.=166.201294m. Speed=0.252000m/h.</desc>
<speed>0.070000</speed>
</trkpt>
<trkpt lat="55.729408" lon="26.244139">
<ele>166.213013</ele>
<time>2010-07-17T10:24:13Z</time>
<desc>lat.=55.729408, lon.=26.244139, Alt.=166.213013m. Speed=0.288000m/h.</desc>
<speed>0.080000</speed>
</trkpt>
<trkpt lat="55.729408" lon="26.244139">
<ele>166.224731</ele>
<time>2010-07-17T10:24:14Z</time>
<desc>lat.=55.729408, lon.=26.244139, Alt.=166.224731m. Speed=0.360000m/h.</desc>
<speed>0.100000</speed>
</trkpt>
<trkpt lat="55.729408" lon="26.244137">
<ele>166.248169</ele>
<time>2010-07-17T10:24:15Z</time>
<desc>lat.=55.729408, lon.=26.244137, Alt.=166.248169m. Speed=0.396000m/h.</desc>
<speed>0.110000</speed>
</trkpt>
<trkpt lat="55.729404" lon="26.244135">
<ele>166.267700</ele>
<time>2010-07-17T10:24:16Z</time>
<desc>lat.=55.729404, lon.=26.244135, Alt.=166.267700m. Speed=0.144000m/h.</desc>
<speed>0.040000</speed>
</trkpt>
<trkpt lat="55.729404" lon="26.244135">
<ele>166.298950</ele>
<time>2010-07-17T10:24:17Z</time>
<desc>lat.=55.729404, lon.=26.244135, Alt.=166.298950m. Speed=0.252000m/h.</desc>
<speed>0.070000</speed>
</trkpt>
<trkpt lat="55.729404" lon="26.244135">
<ele>166.334106</ele>
<time>2010-07-17T10:24:18Z</time>
<desc>lat.=55.729404, lon.=26.244135, Alt.=166.334106m. Speed=0.288000m/h.</desc>
<speed>0.080000</speed>
</trkpt>
<trkpt lat="55.729404" lon="26.244135">
<ele>166.369263</ele>
<time>2010-07-17T10:24:19Z</time>
<desc>lat.=55.729404, lon.=26.244135, Alt.=166.369263m. Speed=0.288000m/h.</desc>
<speed>0.080000</speed>
</trkpt>
<trkpt lat="55.729404" lon="26.244133">
<ele>166.408325</ele>
<time>2010-07-17T10:24:20Z</time>
<desc>lat.=55.729404, lon.=26.244133, Alt.=166.408325m. Speed=0.144000m/h.</desc>
<speed>0.040000</speed>
</trkpt>
<trkpt lat="55.729404" lon="26.244133">
<ele>166.447388</ele>
<time>2010-07-17T10:24:21Z</time>
<desc>lat.=55.729404, lon.=26.244133, Alt.=166.447388m. Speed=0.108000m/h.</desc>
<speed>0.030000</speed>
</trkpt>
<trkpt lat="55.729404" lon="26.244133">
<ele>166.498169</ele>
<time>2010-07-17T10:24:22Z</time>
<desc>lat.=55.729404, lon.=26.244133, Alt.=166.498169m. Speed=0.180000m/h.</desc>
<speed>0.050000</speed>
</trkpt>
<trkpt lat="55.729404" lon="26.244133">
<ele>166.541138</ele>
<time>2010-07-17T10:24:23Z</time>
<desc>lat.=55.729404, lon.=26.244133, Alt.=166.541138m. Speed=0.432000m/h.</desc>
<speed>0.120000</speed>
</trkpt>
<trkpt lat="55.729404" lon="26.244131">
<ele>166.591919</ele>
<time>2010-07-17T10:24:24Z</time>
<desc>lat.=55.729404, lon.=26.244131, Alt.=166.591919m. Speed=0.504000m/h.</desc>
<speed>0.140000</speed>
</trkpt>
<trkpt lat="55.729408" lon="26.244131">
<ele>166.658325</ele>
<time>2010-07-17T10:24:25Z</time>
<desc>lat.=55.729408, lon.=26.244131, Alt.=166.658325m. Speed=0.324000m/h.</desc>
<speed>0.090000</speed>
</trkpt>
<trkpt lat="55.729408" lon="26.244131">
<ele>166.736450</ele>
<time>2010-07-17T10:24:26Z</time>
<desc>lat.=55.729408, lon.=26.244131, Alt.=166.736450m. Speed=0.504000m/h.</desc>
<speed>0.140000</speed>
</trkpt>
<trkpt lat="55.729408" lon="26.244131">
<ele>166.826294</ele>
<time>2010-07-17T10:24:27Z</time>
<desc>lat.=55.729408, lon.=26.244131, Alt.=166.826294m. Speed=0.540000m/h.</desc>
<speed>0.150000</speed>
</trkpt>
<trkpt lat="55.729412" lon="26.244131">
<ele>166.927856</ele>
<time>2010-07-17T10:24:28Z</time>
<desc>lat.=55.729412, lon.=26.244131, Alt.=166.927856m. Speed=0.648000m/h.</desc>
<speed>0.180000</speed>
</trkpt>
<trkpt lat="55.729412" lon="26.244131">
<ele>167.025513</ele>
<time>2010-07-17T10:24:29Z</time>
<desc>lat.=55.729412, lon.=26.244131, Alt.=167.025513m. Speed=0.540000m/h.</desc>
<speed>0.150000</speed>
</trkpt>
<trkpt lat="55.729416" lon="26.244131">
<ele>167.123169</ele>
<time>2010-07-17T10:24:30Z</time>
<desc>lat.=55.729416, lon.=26.244131, Alt.=167.123169m. Speed=0.468000m/h.</desc>
<speed>0.130000</speed>
</trkpt>
<trkpt lat="55.729416" lon="26.244131">
<ele>167.228638</ele>
<time>2010-07-17T10:24:31Z</time>
<desc>lat.=55.729416, lon.=26.244131, Alt.=167.228638m. Speed=0.468000m/h.</desc>
<speed>0.130000</speed>
</trkpt>
<trkpt lat="55.729416" lon="26.244133">
<ele>167.334106</ele>
<time>2010-07-17T10:24:32Z</time>
<desc>lat.=55.729416, lon.=26.244133, Alt.=167.334106m. Speed=0.396000m/h.</desc>
<speed>0.110000</speed>
</trkpt>
<trkpt lat="55.729416" lon="26.244133">
<ele>167.447388</ele>
<time>2010-07-17T10:24:33Z</time>
<desc>lat.=55.729416, lon.=26.244133, Alt.=167.447388m. Speed=0.144000m/h.</desc>
<speed>0.040000</speed>
</trkpt>
<trkpt lat="55.729420" lon="26.244133">
<ele>167.568481</ele>
<time>2010-07-17T10:24:34Z</time>
<desc>lat.=55.729420, lon.=26.244133, Alt.=167.568481m. Speed=0.252000m/h.</desc>
<speed>0.070000</speed>
</trkpt>
<trkpt lat="55.729420" lon="26.244133">
<ele>167.709106</ele>
<time>2010-07-17T10:24:35Z</time>
<desc>lat.=55.729420, lon.=26.244133, Alt.=167.709106m. Speed=0.324000m/h.</desc>
<speed>0.090000</speed>
</trkpt>
<trkpt lat="55.729420" lon="26.244135">
<ele>167.853638</ele>
<time>2010-07-17T10:24:36Z</time>
<desc>lat.=55.729420, lon.=26.244135, Alt.=167.853638m. Speed=0.432000m/h.</desc>
<speed>0.120000</speed>
</trkpt>
<trkpt lat="55.729420" lon="26.244137">
<ele>167.986450</ele>
<time>2010-07-17T10:24:37Z</time>
<desc>lat.=55.729420, lon.=26.244137, Alt.=167.986450m. Speed=0.468000m/h.</desc>
<speed>0.130000</speed>
</trkpt>
<trkpt lat="55.729416" lon="26.244139">
<ele>168.123169</ele>
<time>2010-07-17T10:24:38Z</time>
<desc>lat.=55.729416, lon.=26.244139, Alt.=168.123169m. Speed=0.720000m/h.</desc>
<speed>0.200000</speed>
</trkpt>
<trkpt lat="55.729416" lon="26.244141">
<ele>168.267700</ele>
<time>2010-07-17T10:24:39Z</time>
<desc>lat.=55.729416, lon.=26.244141, Alt.=168.267700m. Speed=0.864000m/h.</desc>
<speed>0.240000</speed>
</trkpt>
<trkpt lat="55.729416" lon="26.244143">
<ele>168.420044</ele>
<time>2010-07-17T10:24:40Z</time>
<desc>lat.=55.729416, lon.=26.244143, Alt.=168.420044m. Speed=0.612000m/h.</desc>
<speed>0.170000</speed>
</trkpt>
<trkpt lat="55.729412" lon="26.244144">
<ele>168.580200</ele>
<time>2010-07-17T10:24:41Z</time>
<desc>lat.=55.729412, lon.=26.244144, Alt.=168.580200m. Speed=0.648000m/h.</desc>
<speed>0.180000</speed>
</trkpt>
<trkpt lat="55.729412" lon="26.244146">
<ele>168.740356</ele>
<time>2010-07-17T10:24:42Z</time>
<desc>lat.=55.729412, lon.=26.244146, Alt.=168.740356m. Speed=0.648000m/h.</desc>
<speed>0.180000</speed>
</trkpt>
<trkpt lat="55.729412" lon="26.244150">
<ele>168.908325</ele>
<time>2010-07-17T10:24:43Z</time>
<desc>lat.=55.729412, lon.=26.244150, Alt.=168.908325m. Speed=0.612000m/h.</desc>
<speed>0.170000</speed>
</trkpt>
<trkpt lat="55.729412" lon="26.244152">
<ele>169.084106</ele>
<time>2010-07-17T10:24:44Z</time>
<desc>lat.=55.729412, lon.=26.244152, Alt.=169.084106m. Speed=0.396000m/h.</desc>
<speed>0.110000</speed>
</trkpt>
<trkpt lat="55.729408" lon="26.244154">
<ele>169.259888</ele>
<time>2010-07-17T10:24:45Z</time>
<desc>lat.=55.729408, lon.=26.244154, Alt.=169.259888m. Speed=0.288000m/h.</desc>
<speed>0.080000</speed>
</trkpt>
<trkpt lat="55.729408" lon="26.244154">
<ele>169.435669</ele>
<time>2010-07-17T10:24:46Z</time>
<desc>lat.=55.729408, lon.=26.244154, Alt.=169.435669m. Speed=0.216000m/h.</desc>
<speed>0.060000</speed>
</trkpt>
<trkpt lat="55.729408" lon="26.244154">
<ele>169.607544</ele>
<time>2010-07-17T10:24:47Z</time>
<desc>lat.=55.729408, lon.=26.244154, Alt.=169.607544m. Speed=0.216000m/h.</desc>
<speed>0.060000</speed>
</trkpt>
<trkpt lat="55.729408" lon="26.244154">
<ele>169.787231</ele>
<time>2010-07-17T10:24:48Z</time>
<desc>lat.=55.729408, lon.=26.244154, Alt.=169.787231m. Speed=0.216000m/h.</desc>
<speed>0.060000</speed>
</trkpt>
<trkpt lat="55.729408" lon="26.244154">
<ele>169.970825</ele>
<time>2010-07-17T10:24:49Z</time>
<desc>lat.=55.729408, lon.=26.244154, Alt.=169.970825m. Speed=0.180000m/h.</desc>
<speed>0.050000</speed>
</trkpt>
<trkpt lat="55.729408" lon="26.244154">
<ele>170.142700</ele>
<time>2010-07-17T10:24:50Z</time>
<desc>lat.=55.729408, lon.=26.244154, Alt.=170.142700m. Speed=0.432000m/h.</desc>
<speed>0.120000</speed>
</trkpt>
<trkpt lat="55.729408" lon="26.244156">
<ele>170.310669</ele>
<time>2010-07-17T10:24:51Z</time>
<desc>lat.=55.729408, lon.=26.244156, Alt.=170.310669m. Speed=0.504000m/h.</desc>
<speed>0.140000</speed>
</trkpt>
<trkpt lat="55.729404" lon="26.244158">
<ele>170.486450</ele>
<time>2010-07-17T10:24:52Z</time>
<desc>lat.=55.729404, lon.=26.244158, Alt.=170.486450m. Speed=0.540000m/h.</desc>
<speed>0.150000</speed>
</trkpt>
<trkpt lat="55.729404" lon="26.244160">
<ele>170.666138</ele>
<time>2010-07-17T10:24:53Z</time>
<desc>lat.=55.729404, lon.=26.244160, Alt.=170.666138m. Speed=0.648000m/h.</desc>
<speed>0.180000</speed>
</trkpt>
<trkpt lat="55.729404" lon="26.244162">
<ele>170.845825</ele>
<time>2010-07-17T10:24:54Z</time>
<desc>lat.=55.729404, lon.=26.244162, Alt.=170.845825m. Speed=0.792000m/h.</desc>
<speed>0.220000</speed>
</trkpt>
<trkpt lat="55.729404" lon="26.244165">
<ele>171.025513</ele>
<time>2010-07-17T10:24:55Z</time>
<desc>lat.=55.729404, lon.=26.244165, Alt.=171.025513m. Speed=0.900000m/h.</desc>
<speed>0.250000</speed>
</trkpt>
<trkpt lat="55.729404" lon="26.244169">
<ele>171.209106</ele>
<time>2010-07-17T10:24:56Z</time>
<desc>lat.=55.729404, lon.=26.244169, Alt.=171.209106m. Speed=0.792000m/h.</desc>
<speed>0.220000</speed>
</trkpt>
<trkpt lat="55.729401" lon="26.244173">
<ele>171.388794</ele>
<time>2010-07-17T10:24:57Z</time>
<desc>lat.=55.729401, lon.=26.244173, Alt.=171.388794m. Speed=0.828000m/h.</desc>
<speed>0.230000</speed>
</trkpt>
<trkpt lat="55.729401" lon="26.244175">
<ele>171.560669</ele>
<time>2010-07-17T10:24:58Z</time>
<desc>lat.=55.729401, lon.=26.244175, Alt.=171.560669m. Speed=0.828000m/h.</desc>
<speed>0.230000</speed>
</trkpt>
<trkpt lat="55.729401" lon="26.244179">
<ele>171.724731</ele>
<time>2010-07-17T10:24:59Z</time>
<desc>lat.=55.729401, lon.=26.244179, Alt.=171.724731m. Speed=0.756000m/h.</desc>
<speed>0.210000</speed>
</trkpt>
<trkpt lat="55.729397" lon="26.244181">
<ele>171.880981</ele>
<time>2010-07-17T10:25:00Z</time>
<desc>lat.=55.729397, lon.=26.244181, Alt.=171.880981m. Speed=0.756000m/h.</desc>
<speed>0.210000</speed>
</trkpt>
<trkpt lat="55.729397" lon="26.244183">
<ele>172.037231</ele>
<time>2010-07-17T10:25:01Z</time>
<desc>lat.=55.729397, lon.=26.244183, Alt.=172.037231m. Speed=0.720000m/h.</desc>
<speed>0.200000</speed>
</trkpt>
<trkpt lat="55.729397" lon="26.244186">
<ele>172.197388</ele>
<time>2010-07-17T10:25:02Z</time>
<desc>lat.=55.729397, lon.=26.244186, Alt.=172.197388m. Speed=0.504000m/h.</desc>
<speed>0.140000</speed>
</trkpt>
<trkpt lat="55.729397" lon="26.244188">
<ele>172.361450</ele>
<time>2010-07-17T10:25:03Z</time>
<desc>lat.=55.729397, lon.=26.244188, Alt.=172.361450m. Speed=0.360000m/h.</desc>
<speed>0.100000</speed>
</trkpt>
<trkpt lat="55.729397" lon="26.244190">
<ele>172.533325</ele>
<time>2010-07-17T10:25:04Z</time>
<desc>lat.=55.729397, lon.=26.244190, Alt.=172.533325m. Speed=0.504000m/h.</desc>
<speed>0.140000</speed>
</trkpt>
<trkpt lat="55.729397" lon="26.244192">
<ele>172.705200</ele>
<time>2010-07-17T10:25:05Z</time>
<desc>lat.=55.729397, lon.=26.244192, Alt.=172.705200m. Speed=0.720000m/h.</desc>
<speed>0.200000</speed>
</trkpt>
<trkpt lat="55.729397" lon="26.244196">
<ele>172.873169</ele>
<time>2010-07-17T10:25:06Z</time>
<desc>lat.=55.729397, lon.=26.244196, Alt.=172.873169m. Speed=0.792000m/h.</desc>
<speed>0.220000</speed>
</trkpt>
<trkpt lat="55.729397" lon="26.244198">
<ele>173.037231</ele>
<time>2010-07-17T10:25:07Z</time>
<desc>lat.=55.729397, lon.=26.244198, Alt.=173.037231m. Speed=0.936000m/h.</desc>
<speed>0.260000</speed>
</trkpt>
<trkpt lat="55.729397" lon="26.244202">
<ele>173.193481</ele>
<time>2010-07-17T10:25:08Z</time>
<desc>lat.=55.729397, lon.=26.244202, Alt.=173.193481m. Speed=1.404000m/h.</desc>
<speed>0.390000</speed>
</trkpt>
<trkpt lat="55.729412" lon="26.244204">
<ele>173.275513</ele>
<time>2010-07-17T10:25:09Z</time>
<desc>lat.=55.729412, lon.=26.244204, Alt.=173.275513m. Speed=1.548000m/h.</desc>
<speed>0.430000</speed>
</trkpt>
<trkpt lat="55.729416" lon="26.244196">
<ele>173.330200</ele>
<time>2010-07-17T10:25:10Z</time>
<desc>lat.=55.729416, lon.=26.244196, Alt.=173.330200m. Speed=1.512000m/h.</desc>
<speed>0.420000</speed>
</trkpt>
<trkpt lat="55.729424" lon="26.244183">
<ele>173.130981</ele>
<time>2010-07-17T10:25:11Z</time>
<desc>lat.=55.729424, lon.=26.244183, Alt.=173.130981m. Speed=1.440000m/h.</desc>
<speed>0.400000</speed>
</trkpt>
<trkpt lat="55.729431" lon="26.244171">
<ele>172.755981</ele>
<time>2010-07-17T10:25:12Z</time>
<desc>lat.=55.729431, lon.=26.244171, Alt.=172.755981m. Speed=1.476000m/h.</desc>
<speed>0.410000</speed>
</trkpt>
<trkpt lat="55.729435" lon="26.244156">
<ele>172.568481</ele>
<time>2010-07-17T10:25:13Z</time>
<desc>lat.=55.729435, lon.=26.244156, Alt.=172.568481m. Speed=1.368000m/h.</desc>
<speed>0.380000</speed>
</trkpt>
<trkpt lat="55.729439" lon="26.244150">
<ele>172.232544</ele>
<time>2010-07-17T10:25:14Z</time>
<desc>lat.=55.729439, lon.=26.244150, Alt.=172.232544m. Speed=1.224000m/h.</desc>
<speed>0.340000</speed>
</trkpt>
<trkpt lat="55.729443" lon="26.244141">
<ele>172.127075</ele>
<time>2010-07-17T10:25:15Z</time>
<desc>lat.=55.729443, lon.=26.244141, Alt.=172.127075m. Speed=1.044000m/h.</desc>
<speed>0.290000</speed>
</trkpt>
<trkpt lat="55.729446" lon="26.244131">
<ele>171.775513</ele>
<time>2010-07-17T10:25:16Z</time>
<desc>lat.=55.729446, lon.=26.244131, Alt.=171.775513m. Speed=0.792000m/h.</desc>
<speed>0.220000</speed>
</trkpt>
<trkpt lat="55.729450" lon="26.244122">
<ele>171.287231</ele>
<time>2010-07-17T10:25:17Z</time>
<desc>lat.=55.729450, lon.=26.244122, Alt.=171.287231m. Speed=0.792000m/h.</desc>
<speed>0.220000</speed>
</trkpt>
<trkpt lat="55.729450" lon="26.244118">
<ele>170.877075</ele>
<time>2010-07-17T10:25:18Z</time>
<desc>lat.=55.729450, lon.=26.244118, Alt.=170.877075m. Speed=0.720000m/h.</desc>
<speed>0.200000</speed>
</trkpt>
<trkpt lat="55.729454" lon="26.244118">
<ele>170.943481</ele>
<time>2010-07-17T10:25:19Z</time>
<desc>lat.=55.729454, lon.=26.244118, Alt.=170.943481m. Speed=0.900000m/h.</desc>
<speed>0.250000</speed>
</trkpt>
<trkpt lat="55.729454" lon="26.244118">
<ele>171.005981</ele>
<time>2010-07-17T10:25:20Z</time>
<desc>lat.=55.729454, lon.=26.244118, Alt.=171.005981m. Speed=0.720000m/h.</desc>
<speed>0.200000</speed>
</trkpt>
<trkpt lat="55.729458" lon="26.244120">
<ele>171.056763</ele>
<time>2010-07-17T10:25:21Z</time>
<desc>lat.=55.729458, lon.=26.244120, Alt.=171.056763m. Speed=0.936000m/h.</desc>
<speed>0.260000</speed>
</trkpt>
<trkpt lat="55.729458" lon="26.244120">
<ele>171.103638</ele>
<time>2010-07-17T10:25:22Z</time>
<desc>lat.=55.729458, lon.=26.244120, Alt.=171.103638m. Speed=0.972000m/h.</desc>
<speed>0.270000</speed>
</trkpt>
<trkpt lat="55.729462" lon="26.244122">
<ele>171.150513</ele>
<time>2010-07-17T10:25:23Z</time>
<desc>lat.=55.729462, lon.=26.244122, Alt.=171.150513m. Speed=0.828000m/h.</desc>
<speed>0.230000</speed>
</trkpt>
<trkpt lat="55.729462" lon="26.244122">
<ele>171.177856</ele>
<time>2010-07-17T10:25:24Z</time>
<desc>lat.=55.729462, lon.=26.244122, Alt.=171.177856m. Speed=0.756000m/h.</desc>
<speed>0.210000</speed>
</trkpt>
<trkpt lat="55.729465" lon="26.244122">
<ele>171.205200</ele>
<time>2010-07-17T10:25:25Z</time>
<desc>lat.=55.729465, lon.=26.244122, Alt.=171.205200m. Speed=0.684000m/h.</desc>
<speed>0.190000</speed>
</trkpt>
<trkpt lat="55.729465" lon="26.244122">
<ele>171.216919</ele>
<time>2010-07-17T10:25:26Z</time>
<desc>lat.=55.729465, lon.=26.244122, Alt.=171.216919m. Speed=0.684000m/h.</desc>
<speed>0.190000</speed>
</trkpt>
<trkpt lat="55.729469" lon="26.244122">
<ele>171.220825</ele>
<time>2010-07-17T10:25:27Z</time>
<desc>lat.=55.729469, lon.=26.244122, Alt.=171.220825m. Speed=0.612000m/h.</desc>
<speed>0.170000</speed>
</trkpt>
<trkpt lat="55.729469" lon="26.244122">
<ele>171.216919</ele>
<time>2010-07-17T10:25:28Z</time>
<desc>lat.=55.729469, lon.=26.244122, Alt.=171.216919m. Speed=0.648000m/h.</desc>
<speed>0.180000</speed>
</trkpt>
<trkpt lat="55.729473" lon="26.244118">
<ele>171.209106</ele>
<time>2010-07-17T10:25:29Z</time>
<desc>lat.=55.729473, lon.=26.244118, Alt.=171.209106m. Speed=0.828000m/h.</desc>
<speed>0.230000</speed>
</trkpt>
<trkpt lat="55.729473" lon="26.244114">
<ele>171.193481</ele>
<time>2010-07-17T10:25:30Z</time>
<desc>lat.=55.729473, lon.=26.244114, Alt.=171.193481m. Speed=0.792000m/h.</desc>
<speed>0.220000</speed>
</trkpt>
<trkpt lat="55.729473" lon="26.244110">
<ele>171.166138</ele>
<time>2010-07-17T10:25:31Z</time>
<desc>lat.=55.729473, lon.=26.244110, Alt.=171.166138m. Speed=0.900000m/h.</desc>
<speed>0.250000</speed>
</trkpt>
<trkpt lat="55.729473" lon="26.244106">
<ele>171.123169</ele>
<time>2010-07-17T10:25:32Z</time>
<desc>lat.=55.729473, lon.=26.244106, Alt.=171.123169m. Speed=1.224000m/h.</desc>
<speed>0.340000</speed>
</trkpt>
<trkpt lat="55.729469" lon="26.244080">
<ele>170.451294</ele>
<time>2010-07-17T10:25:33Z</time>
<desc>lat.=55.729469, lon.=26.244080, Alt.=170.451294m. Speed=1.044000m/h.</desc>
<speed>0.290000</speed>
</trkpt>
<trkpt lat="55.729465" lon="26.244059">
<ele>169.826294</ele>
<time>2010-07-17T10:25:34Z</time>
<desc>lat.=55.729465, lon.=26.244059, Alt.=169.826294m. Speed=1.116000m/h.</desc>
<speed>0.310000</speed>
</trkpt>
<trkpt lat="55.729465" lon="26.244041">
<ele>169.509888</ele>
<time>2010-07-17T10:25:35Z</time>
<desc>lat.=55.729465, lon.=26.244041, Alt.=169.509888m. Speed=1.260000m/h.</desc>
<speed>0.350000</speed>
</trkpt>
<trkpt lat="55.729462" lon="26.244028">
<ele>169.201294</ele>
<time>2010-07-17T10:25:36Z</time>
<desc>lat.=55.729462, lon.=26.244028, Alt.=169.201294m. Speed=1.296000m/h.</desc>
<speed>0.360000</speed>
</trkpt>
<trkpt lat="55.729465" lon="26.244003">
<ele>168.884888</ele>
<time>2010-07-17T10:25:37Z</time>
<desc>lat.=55.729465, lon.=26.244003, Alt.=168.884888m. Speed=1.476000m/h.</desc>
<speed>0.410000</speed>
</trkpt>
<trkpt lat="55.729477" lon="26.243980">
<ele>168.775513</ele>
<time>2010-07-17T10:25:38Z</time>
<desc>lat.=55.729477, lon.=26.243980, Alt.=168.775513m. Speed=1.656000m/h.</desc>
<speed>0.460000</speed>
</trkpt>
<trkpt lat="55.729477" lon="26.243963">
<ele>168.630981</ele>
<time>2010-07-17T10:25:39Z</time>
<desc>lat.=55.729477, lon.=26.243963, Alt.=168.630981m. Speed=1.584000m/h.</desc>
<speed>0.440000</speed>
</trkpt>
<trkpt lat="55.729477" lon="26.243946">
<ele>168.396606</ele>
<time>2010-07-17T10:25:40Z</time>
<desc>lat.=55.729477, lon.=26.243946, Alt.=168.396606m. Speed=1.692000m/h.</desc>
<speed>0.470000</speed>
</trkpt>
<trkpt lat="55.729477" lon="26.243933">
<ele>168.099731</ele>
<time>2010-07-17T10:25:41Z</time>
<desc>lat.=55.729477, lon.=26.243933, Alt.=168.099731m. Speed=1.656000m/h.</desc>
<speed>0.460000</speed>
</trkpt>
<trkpt lat="55.729481" lon="26.243923">
<ele>167.709106</ele>
<time>2010-07-17T10:25:42Z</time>
<desc>lat.=55.729481, lon.=26.243923, Alt.=167.709106m. Speed=1.584000m/h.</desc>
<speed>0.440000</speed>
</trkpt>
<trkpt lat="55.729488" lon="26.243937">
<ele>167.326294</ele>
<time>2010-07-17T10:25:43Z</time>
<desc>lat.=55.729488, lon.=26.243937, Alt.=167.326294m. Speed=0.396000m/h.</desc>
<speed>0.110000</speed>
</trkpt>
<trkpt lat="55.729496" lon="26.243933">
<ele>166.966919</ele>
<time>2010-07-17T10:25:44Z</time>
<desc>lat.=55.729496, lon.=26.243933, Alt.=166.966919m. Speed=0.504000m/h.</desc>
<speed>0.140000</speed>
</trkpt>
<trkpt lat="55.729504" lon="26.243931">
<ele>166.611450</ele>
<time>2010-07-17T10:25:45Z</time>
<desc>lat.=55.729504, lon.=26.243931, Alt.=166.611450m. Speed=0.684000m/h.</desc>
<speed>0.190000</speed>
</trkpt>
<trkpt lat="55.729507" lon="26.243929">
<ele>166.349731</ele>
<time>2010-07-17T10:25:46Z</time>
<desc>lat.=55.729507, lon.=26.243929, Alt.=166.349731m. Speed=0.756000m/h.</desc>
<speed>0.210000</speed>
</trkpt>
<trkpt lat="55.729511" lon="26.243927">
<ele>166.255981</ele>
<time>2010-07-17T10:25:47Z</time>
<desc>lat.=55.729511, lon.=26.243927, Alt.=166.255981m. Speed=0.792000m/h.</desc>
<speed>0.220000</speed>
</trkpt>
<trkpt lat="55.729511" lon="26.243927">
<ele>166.150513</ele>
<time>2010-07-17T10:25:48Z</time>
<desc>lat.=55.729511, lon.=26.243927, Alt.=166.150513m. Speed=0.900000m/h.</desc>
<speed>0.250000</speed>
</trkpt>
<trkpt lat="55.729515" lon="26.243927">
<ele>166.029419</ele>
<time>2010-07-17T10:25:49Z</time>
<desc>lat.=55.729515, lon.=26.243927, Alt.=166.029419m. Speed=1.008000m/h.</desc>
<speed>0.280000</speed>
</trkpt>
<trkpt lat="55.729515" lon="26.243925">
<ele>165.900513</ele>
<time>2010-07-17T10:25:50Z</time>
<desc>lat.=55.729515, lon.=26.243925, Alt.=165.900513m. Speed=0.900000m/h.</desc>
<speed>0.250000</speed>
</trkpt>
<trkpt lat="55.729519" lon="26.243923">
<ele>165.763794</ele>
<time>2010-07-17T10:25:51Z</time>
<desc>lat.=55.729519, lon.=26.243923, Alt.=165.763794m. Speed=0.792000m/h.</desc>
<speed>0.220000</speed>
</trkpt>
<trkpt lat="55.729519" lon="26.243923">
<ele>165.619263</ele>
<time>2010-07-17T10:25:52Z</time>
<desc>lat.=55.729519, lon.=26.243923, Alt.=165.619263m. Speed=0.648000m/h.</desc>
<speed>0.180000</speed>
</trkpt>
<trkpt lat="55.729523" lon="26.243921">
<ele>165.478638</ele>
<time>2010-07-17T10:25:53Z</time>
<desc>lat.=55.729523, lon.=26.243921, Alt.=165.478638m. Speed=0.576000m/h.</desc>
<speed>0.160000</speed>
</trkpt>
<trkpt lat="55.729523" lon="26.243919">
<ele>165.334106</ele>
<time>2010-07-17T10:25:54Z</time>
<desc>lat.=55.729523, lon.=26.243919, Alt.=165.334106m. Speed=0.504000m/h.</desc>
<speed>0.140000</speed>
</trkpt>
<trkpt lat="55.729523" lon="26.243917">
<ele>165.185669</ele>
<time>2010-07-17T10:25:55Z</time>
<desc>lat.=55.729523, lon.=26.243917, Alt.=165.185669m. Speed=0.396000m/h.</desc>
<speed>0.110000</speed>
</trkpt>
<trkpt lat="55.729523" lon="26.243916">
<ele>165.045044</ele>
<time>2010-07-17T10:25:56Z</time>
<desc>lat.=55.729523, lon.=26.243916, Alt.=165.045044m. Speed=0.360000m/h.</desc>
<speed>0.100000</speed>
</trkpt>
<trkpt lat="55.729523" lon="26.243916">
<ele>164.912231</ele>
<time>2010-07-17T10:25:57Z</time>
<desc>lat.=55.729523, lon.=26.243916, Alt.=164.912231m. Speed=0.396000m/h.</desc>
<speed>0.110000</speed>
</trkpt>
<trkpt lat="55.729523" lon="26.243914">
<ele>164.787231</ele>
<time>2010-07-17T10:25:58Z</time>
<desc>lat.=55.729523, lon.=26.243914, Alt.=164.787231m. Speed=0.612000m/h.</desc>
<speed>0.170000</speed>
</trkpt>
<trkpt lat="55.729523" lon="26.243912">
<ele>164.670044</ele>
<time>2010-07-17T10:25:59Z</time>
<desc>lat.=55.729523, lon.=26.243912, Alt.=164.670044m. Speed=0.576000m/h.</desc>
<speed>0.160000</speed>
</trkpt>
<trkpt lat="55.729523" lon="26.243910">
<ele>164.552856</ele>
<time>2010-07-17T10:26:00Z</time>
<desc>lat.=55.729523, lon.=26.243910, Alt.=164.552856m. Speed=0.576000m/h.</desc>
<speed>0.160000</speed>
</trkpt>
<trkpt lat="55.729519" lon="26.243908">
<ele>164.439575</ele>
<time>2010-07-17T10:26:01Z</time>
<desc>lat.=55.729519, lon.=26.243908, Alt.=164.439575m. Speed=0.324000m/h.</desc>
<speed>0.090000</speed>
</trkpt>
<trkpt lat="55.729519" lon="26.243906">
<ele>164.330200</ele>
<time>2010-07-17T10:26:02Z</time>
<desc>lat.=55.729519, lon.=26.243906, Alt.=164.330200m. Speed=0.324000m/h.</desc>
<speed>0.090000</speed>
</trkpt>
<trkpt lat="55.729519" lon="26.243904">
<ele>164.216919</ele>
<time>2010-07-17T10:26:03Z</time>
<desc>lat.=55.729519, lon.=26.243904, Alt.=164.216919m. Speed=0.360000m/h.</desc>
<speed>0.100000</speed>
</trkpt>
<trkpt lat="55.729519" lon="26.243904">
<ele>164.107544</ele>
<time>2010-07-17T10:26:04Z</time>
<desc>lat.=55.729519, lon.=26.243904, Alt.=164.107544m. Speed=0.360000m/h.</desc>
<speed>0.100000</speed>
</trkpt>
<trkpt lat="55.729519" lon="26.243902">
<ele>164.009888</ele>
<time>2010-07-17T10:26:05Z</time>
<desc>lat.=55.729519, lon.=26.243902, Alt.=164.009888m. Speed=0.324000m/h.</desc>
<speed>0.090000</speed>
</trkpt>
<trkpt lat="55.729519" lon="26.243900">
<ele>163.908325</ele>
<time>2010-07-17T10:26:06Z</time>
<desc>lat.=55.729519, lon.=26.243900, Alt.=163.908325m. Speed=0.252000m/h.</desc>
<speed>0.070000</speed>
</trkpt>
<trkpt lat="55.729519" lon="26.243898">
<ele>163.806763</ele>
<time>2010-07-17T10:26:07Z</time>
<desc>lat.=55.729519, lon.=26.243898, Alt.=163.806763m. Speed=0.180000m/h.</desc>
<speed>0.050000</speed>
</trkpt>
<trkpt lat="55.729519" lon="26.243898">
<ele>163.705200</ele>
<time>2010-07-17T10:26:08Z</time>
<desc>lat.=55.729519, lon.=26.243898, Alt.=163.705200m. Speed=0.468000m/h.</desc>
<speed>0.130000</speed>
</trkpt>
<trkpt lat="55.729515" lon="26.243896">
<ele>163.619263</ele>
<time>2010-07-17T10:26:09Z</time>
<desc>lat.=55.729515, lon.=26.243896, Alt.=163.619263m. Speed=0.468000m/h.</desc>
<speed>0.130000</speed>
</trkpt>
<trkpt lat="55.729515" lon="26.243896">
<ele>163.529419</ele>
<time>2010-07-17T10:26:10Z</time>
<desc>lat.=55.729515, lon.=26.243896, Alt.=163.529419m. Speed=0.360000m/h.</desc>
<speed>0.100000</speed>
</trkpt>
<trkpt lat="55.729515" lon="26.243895">
<ele>163.447388</ele>
<time>2010-07-17T10:26:11Z</time>
<desc>lat.=55.729515, lon.=26.243895, Alt.=163.447388m. Speed=0.144000m/h.</desc>
<speed>0.040000</speed>
</trkpt>
<trkpt lat="55.729515" lon="26.243895">
<ele>163.373169</ele>
<time>2010-07-17T10:26:12Z</time>
<desc>lat.=55.729515, lon.=26.243895, Alt.=163.373169m. Speed=0.180000m/h.</desc>
<speed>0.050000</speed>
</trkpt>
<trkpt lat="55.729515" lon="26.243893">
<ele>163.302856</ele>
<time>2010-07-17T10:26:13Z</time>
<desc>lat.=55.729515, lon.=26.243893, Alt.=163.302856m. Speed=0.144000m/h.</desc>
<speed>0.040000</speed>
</trkpt>
<trkpt lat="55.729515" lon="26.243893">
<ele>163.236450</ele>
<time>2010-07-17T10:26:14Z</time>
<desc>lat.=55.729515, lon.=26.243893, Alt.=163.236450m. Speed=0.108000m/h.</desc>
<speed>0.030000</speed>
</trkpt>
<trkpt lat="55.729515" lon="26.243893">
<ele>163.189575</ele>
<time>2010-07-17T10:26:15Z</time>
<desc>lat.=55.729515, lon.=26.243893, Alt.=163.189575m. Speed=0.144000m/h.</desc>
<speed>0.040000</speed>
</trkpt>
<trkpt lat="55.729515" lon="26.243891">
<ele>163.146606</ele>
<time>2010-07-17T10:26:16Z</time>
<desc>lat.=55.729515, lon.=26.243891, Alt.=163.146606m. Speed=0.252000m/h.</desc>
<speed>0.070000</speed>
</trkpt>
<trkpt lat="55.729515" lon="26.243891">
<ele>163.111450</ele>
<time>2010-07-17T10:26:17Z</time>
<desc>lat.=55.729515, lon.=26.243891, Alt.=163.111450m. Speed=0.216000m/h.</desc>
<speed>0.060000</speed>
</trkpt>
<trkpt lat="55.729515" lon="26.243891">
<ele>163.076294</ele>
<time>2010-07-17T10:26:18Z</time>
<desc>lat.=55.729515, lon.=26.243891, Alt.=163.076294m. Speed=0.180000m/h.</desc>
<speed>0.050000</speed>
</trkpt>
<trkpt lat="55.729515" lon="26.243889">
<ele>163.045044</ele>
<time>2010-07-17T10:26:19Z</time>
<desc>lat.=55.729515, lon.=26.243889, Alt.=163.045044m. Speed=0.180000m/h.</desc>
<speed>0.050000</speed>
</trkpt>
<trkpt lat="55.729515" lon="26.243889">
<ele>163.002075</ele>
<time>2010-07-17T10:26:20Z</time>
<desc>lat.=55.729515, lon.=26.243889, Alt.=163.002075m. Speed=0.252000m/h.</desc>
<speed>0.070000</speed>
</trkpt>
<trkpt lat="55.729515" lon="26.243889">
<ele>162.959106</ele>
<time>2010-07-17T10:26:21Z</time>
<desc>lat.=55.729515, lon.=26.243889, Alt.=162.959106m. Speed=0.324000m/h.</desc>
<speed>0.090000</speed>
</trkpt>
<trkpt lat="55.729519" lon="26.243887">
<ele>162.908325</ele>
<time>2010-07-17T10:26:22Z</time>
<desc>lat.=55.729519, lon.=26.243887, Alt.=162.908325m. Speed=0.324000m/h.</desc>
<speed>0.090000</speed>
</trkpt>
<trkpt lat="55.729519" lon="26.243887">
<ele>162.857544</ele>
<time>2010-07-17T10:26:23Z</time>
<desc>lat.=55.729519, lon.=26.243887, Alt.=162.857544m. Speed=0.180000m/h.</desc>
<speed>0.050000</speed>
</trkpt>
<trkpt lat="55.729519" lon="26.243887">
<ele>162.810669</ele>
<time>2010-07-17T10:26:24Z</time>
<desc>lat.=55.729519, lon.=26.243887, Alt.=162.810669m. Speed=0.468000m/h.</desc>
<speed>0.130000</speed>
</trkpt>
<trkpt lat="55.729519" lon="26.243887">
<ele>162.771606</ele>
<time>2010-07-17T10:26:25Z</time>
<desc>lat.=55.729519, lon.=26.243887, Alt.=162.771606m. Speed=0.504000m/h.</desc>
<speed>0.140000</speed>
</trkpt>
<trkpt lat="55.729523" lon="26.243885">
<ele>162.720825</ele>
<time>2010-07-17T10:26:26Z</time>
<desc>lat.=55.729523, lon.=26.243885, Alt.=162.720825m. Speed=0.720000m/h.</desc>
<speed>0.200000</speed>
</trkpt>
<trkpt lat="55.729523" lon="26.243885">
<ele>162.673950</ele>
<time>2010-07-17T10:26:27Z</time>
<desc>lat.=55.729523, lon.=26.243885, Alt.=162.673950m. Speed=0.504000m/h.</desc>
<speed>0.140000</speed>
</trkpt>
<trkpt lat="55.729523" lon="26.243885">
<ele>162.634888</ele>
<time>2010-07-17T10:26:28Z</time>
<desc>lat.=55.729523, lon.=26.243885, Alt.=162.634888m. Speed=0.504000m/h.</desc>
<speed>0.140000</speed>
</trkpt>
<trkpt lat="55.729527" lon="26.243883">
<ele>162.595825</ele>
<time>2010-07-17T10:26:29Z</time>
<desc>lat.=55.729527, lon.=26.243883, Alt.=162.595825m. Speed=0.360000m/h.</desc>
<speed>0.100000</speed>
</trkpt>
<trkpt lat="55.729527" lon="26.243883">
<ele>162.560669</ele>
<time>2010-07-17T10:26:30Z</time>
<desc>lat.=55.729527, lon.=26.243883, Alt.=162.560669m. Speed=0.396000m/h.</desc>
<speed>0.110000</speed>
</trkpt>
<trkpt lat="55.729527" lon="26.243885">
<ele>162.529419</ele>
<time>2010-07-17T10:26:31Z</time>
<desc>lat.=55.729527, lon.=26.243885, Alt.=162.529419m. Speed=0.360000m/h.</desc>
<speed>0.100000</speed>
</trkpt>
<trkpt lat="55.729530" lon="26.243885">
<ele>162.498169</ele>
<time>2010-07-17T10:26:32Z</time>
<desc>lat.=55.729530, lon.=26.243885, Alt.=162.498169m. Speed=0.360000m/h.</desc>
<speed>0.100000</speed>
</trkpt>
<trkpt lat="55.729530" lon="26.243883">
<ele>162.463013</ele>
<time>2010-07-17T10:26:33Z</time>
<desc>lat.=55.729530, lon.=26.243883, Alt.=162.463013m. Speed=0.216000m/h.</desc>
<speed>0.060000</speed>
</trkpt>
<trkpt lat="55.729530" lon="26.243883">
<ele>162.439575</ele>
<time>2010-07-17T10:26:34Z</time>
<desc>lat.=55.729530, lon.=26.243883, Alt.=162.439575m. Speed=0.144000m/h.</desc>
<speed>0.040000</speed>
</trkpt>
<trkpt lat="55.729530" lon="26.243881">
<ele>162.420044</ele>
<time>2010-07-17T10:26:35Z</time>
<desc>lat.=55.729530, lon.=26.243881, Alt.=162.420044m. Speed=0.252000m/h.</desc>
<speed>0.070000</speed>
</trkpt>
<trkpt lat="55.729530" lon="26.243881">
<ele>162.404419</ele>
<time>2010-07-17T10:26:36Z</time>
<desc>lat.=55.729530, lon.=26.243881, Alt.=162.404419m. Speed=0.180000m/h.</desc>
<speed>0.050000</speed>
</trkpt>
<trkpt lat="55.729527" lon="26.243881">
<ele>162.388794</ele>
<time>2010-07-17T10:26:37Z</time>
<desc>lat.=55.729527, lon.=26.243881, Alt.=162.388794m. Speed=0.324000m/h.</desc>
<speed>0.090000</speed>
</trkpt>
<trkpt lat="55.729527" lon="26.243881">
<ele>162.369263</ele>
<time>2010-07-17T10:26:38Z</time>
<desc>lat.=55.729527, lon.=26.243881, Alt.=162.369263m. Speed=0.396000m/h.</desc>
<speed>0.110000</speed>
</trkpt>
<trkpt lat="55.729527" lon="26.243881">
<ele>162.357544</ele>
<time>2010-07-17T10:26:39Z</time>
<desc>lat.=55.729527, lon.=26.243881, Alt.=162.357544m. Speed=0.468000m/h.</desc>
<speed>0.130000</speed>
</trkpt>
<trkpt lat="55.729527" lon="26.243881">
<ele>162.345825</ele>
<time>2010-07-17T10:26:40Z</time>
<desc>lat.=55.729527, lon.=26.243881, Alt.=162.345825m. Speed=0.288000m/h.</desc>
<speed>0.080000</speed>
</trkpt>
<trkpt lat="55.729523" lon="26.243881">
<ele>162.341919</ele>
<time>2010-07-17T10:26:41Z</time>
<desc>lat.=55.729523, lon.=26.243881, Alt.=162.341919m. Speed=0.216000m/h.</desc>
<speed>0.060000</speed>
</trkpt>
<trkpt lat="55.729523" lon="26.243879">
<ele>162.338013</ele>
<time>2010-07-17T10:26:42Z</time>
<desc>lat.=55.729523, lon.=26.243879, Alt.=162.338013m. Speed=0.144000m/h.</desc>
<speed>0.040000</speed>
</trkpt>
<trkpt lat="55.729523" lon="26.243879">
<ele>162.338013</ele>
<time>2010-07-17T10:26:43Z</time>
<desc>lat.=55.729523, lon.=26.243879, Alt.=162.338013m. Speed=0.144000m/h.</desc>
<speed>0.040000</speed>
</trkpt>
<trkpt lat="55.729523" lon="26.243881">
<ele>162.341919</ele>
<time>2010-07-17T10:26:44Z</time>
<desc>lat.=55.729523, lon.=26.243881, Alt.=162.341919m. Speed=0.144000m/h.</desc>
<speed>0.040000</speed>
</trkpt>
<trkpt lat="55.729523" lon="26.243881">
<ele>162.345825</ele>
<time>2010-07-17T10:26:45Z</time>
<desc>lat.=55.729523, lon.=26.243881, Alt.=162.345825m. Speed=0.108000m/h.</desc>
<speed>0.030000</speed>
</trkpt>
<trkpt lat="55.729523" lon="26.243881">
<ele>162.349731</ele>
<time>2010-07-17T10:26:46Z</time>
<desc>lat.=55.729523, lon.=26.243881, Alt.=162.349731m. Speed=0.072000m/h.</desc>
<speed>0.020000</speed>
</trkpt>
<trkpt lat="55.729523" lon="26.243881">
<ele>162.353638</ele>
<time>2010-07-17T10:26:47Z</time>
<desc>lat.=55.729523, lon.=26.243881, Alt.=162.353638m. Speed=0.144000m/h.</desc>
<speed>0.040000</speed>
</trkpt>
<trkpt lat="55.729523" lon="26.243881">
<ele>162.353638</ele>
<time>2010-07-17T10:26:48Z</time>
<desc>lat.=55.729523, lon.=26.243881, Alt.=162.353638m. Speed=0.108000m/h.</desc>
<speed>0.030000</speed>
</trkpt>
<trkpt lat="55.729523" lon="26.243881">
<ele>162.353638</ele>
<time>2010-07-17T10:26:49Z</time>
<desc>lat.=55.729523, lon.=26.243881, Alt.=162.353638m. Speed=0.000000m/h.</desc>
<speed>0.000000</speed>
</trkpt>
<trkpt lat="55.729523" lon="26.243881">
<ele>162.361450</ele>
<time>2010-07-17T10:26:50Z</time>
<desc>lat.=55.729523, lon.=26.243881, Alt.=162.361450m. Speed=0.036000m/h.</desc>
<speed>0.010000</speed>
</trkpt>
<trkpt lat="55.729523" lon="26.243881">
<ele>162.365356</ele>
<time>2010-07-17T10:26:51Z</time>
<desc>lat.=55.729523, lon.=26.243881, Alt.=162.365356m. Speed=0.144000m/h.</desc>
<speed>0.040000</speed>
</trkpt>
<trkpt lat="55.729523" lon="26.243881">
<ele>162.373169</ele>
<time>2010-07-17T10:26:52Z</time>
<desc>lat.=55.729523, lon.=26.243881, Alt.=162.373169m. Speed=0.144000m/h.</desc>
<speed>0.040000</speed>
</trkpt>
<trkpt lat="55.729523" lon="26.243881">
<ele>162.380981</ele>
<time>2010-07-17T10:26:53Z</time>
<desc>lat.=55.729523, lon.=26.243881, Alt.=162.380981m. Speed=0.072000m/h.</desc>
<speed>0.020000</speed>
</trkpt>
<trkpt lat="55.729523" lon="26.243881">
<ele>162.388794</ele>
<time>2010-07-17T10:26:54Z</time>
<desc>lat.=55.729523, lon.=26.243881, Alt.=162.388794m. Speed=0.000000m/h.</desc>
<speed>0.000000</speed>
</trkpt>
<trkpt lat="55.729523" lon="26.243883">
<ele>162.392700</ele>
<time>2010-07-17T10:26:55Z</time>
<desc>lat.=55.729523, lon.=26.243883, Alt.=162.392700m. Speed=0.072000m/h.</desc>
<speed>0.020000</speed>
</trkpt>
<trkpt lat="55.729523" lon="26.243883">
<ele>162.400513</ele>
<time>2010-07-17T10:26:56Z</time>
<desc>lat.=55.729523, lon.=26.243883, Alt.=162.400513m. Speed=0.000000m/h.</desc>
<speed>0.000000</speed>
</trkpt>
<trkpt lat="55.729523" lon="26.243883">
<ele>162.408325</ele>
<time>2010-07-17T10:26:57Z</time>
<desc>lat.=55.729523, lon.=26.243883, Alt.=162.408325m. Speed=0.000000m/h.</desc>
<speed>0.000000</speed>
</trkpt>
<trkpt lat="55.729523" lon="26.243883">
<ele>162.408325</ele>
<time>2010-07-17T10:26:58Z</time>
<desc>lat.=55.729523, lon.=26.243883, Alt.=162.408325m. Speed=0.072000m/h.</desc>
<speed>0.020000</speed>
</trkpt>
<trkpt lat="55.729523" lon="26.243883">
<ele>162.408325</ele>
<time>2010-07-17T10:26:59Z</time>
<desc>lat.=55.729523, lon.=26.243883, Alt.=162.408325m. Speed=0.000000m/h.</desc>
<speed>0.000000</speed>
</trkpt>
<trkpt lat="55.729523" lon="26.243883">
<ele>162.416138</ele>
<time>2010-07-17T10:27:00Z</time>
<desc>lat.=55.729523, lon.=26.243883, Alt.=162.416138m. Speed=0.108000m/h.</desc>
<speed>0.030000</speed>
</trkpt>
<trkpt lat="55.729523" lon="26.243883">
<ele>162.420044</ele>
<time>2010-07-17T10:27:01Z</time>
<desc>lat.=55.729523, lon.=26.243883, Alt.=162.420044m. Speed=0.036000m/h.</desc>
<speed>0.010000</speed>
</trkpt>
<trkpt lat="55.729523" lon="26.243883">
<ele>162.420044</ele>
<time>2010-07-17T10:27:02Z</time>
<desc>lat.=55.729523, lon.=26.243883, Alt.=162.420044m. Speed=0.000000m/h.</desc>
<speed>0.000000</speed>
</trkpt>
<trkpt lat="55.729523" lon="26.243883">
<ele>162.420044</ele>
<time>2010-07-17T10:27:03Z</time>
<desc>lat.=55.729523, lon.=26.243883, Alt.=162.420044m. Speed=0.000000m/h.</desc>
<speed>0.000000</speed>
</trkpt>
<trkpt lat="55.729523" lon="26.243883">
<ele>162.420044</ele>
<time>2010-07-17T10:27:04Z</time>
<desc>lat.=55.729523, lon.=26.243883, Alt.=162.420044m. Speed=0.000000m/h.</desc>
<speed>0.000000</speed>
</trkpt>
<trkpt lat="55.729523" lon="26.243883">
<ele>162.427856</ele>
<time>2010-07-17T10:27:05Z</time>
<desc>lat.=55.729523, lon.=26.243883, Alt.=162.427856m. Speed=0.072000m/h.</desc>
<speed>0.020000</speed>
</trkpt>
<trkpt lat="55.729523" lon="26.243883">
<ele>162.435669</ele>
<time>2010-07-17T10:27:06Z</time>
<desc>lat.=55.729523, lon.=26.243883, Alt.=162.435669m. Speed=0.036000m/h.</desc>
<speed>0.010000</speed>
</trkpt>
<trkpt lat="55.729523" lon="26.243883">
<ele>162.439575</ele>
<time>2010-07-17T10:27:07Z</time>
<desc>lat.=55.729523, lon.=26.243883, Alt.=162.439575m. Speed=0.000000m/h.</desc>
<speed>0.000000</speed>
</trkpt>
<trkpt lat="55.729523" lon="26.243883">
<ele>162.447388</ele>
<time>2010-07-17T10:27:08Z</time>
<desc>lat.=55.729523, lon.=26.243883, Alt.=162.447388m. Speed=0.036000m/h.</desc>
<speed>0.010000</speed>
</trkpt>
<trkpt lat="55.729523" lon="26.243883">
<ele>162.459106</ele>
<time>2010-07-17T10:27:09Z</time>
<desc>lat.=55.729523, lon.=26.243883, Alt.=162.459106m. Speed=0.108000m/h.</desc>
<speed>0.030000</speed>
</trkpt>
<trkpt lat="55.729523" lon="26.243885">
<ele>162.463013</ele>
<time>2010-07-17T10:27:10Z</time>
<desc>lat.=55.729523, lon.=26.243885, Alt.=162.463013m. Speed=0.072000m/h.</desc>
<speed>0.020000</speed>
</trkpt>
<trkpt lat="55.729523" lon="26.243885">
<ele>162.478638</ele>
<time>2010-07-17T10:27:11Z</time>
<desc>lat.=55.729523, lon.=26.243885, Alt.=162.478638m. Speed=0.108000m/h.</desc>
<speed>0.030000</speed>
</trkpt>
<trkpt lat="55.729523" lon="26.243885">
<ele>162.490356</ele>
<time>2010-07-17T10:27:12Z</time>
<desc>lat.=55.729523, lon.=26.243885, Alt.=162.490356m. Speed=0.072000m/h.</desc>
<speed>0.020000</speed>
</trkpt>
<trkpt lat="55.729523" lon="26.243885">
<ele>162.494263</ele>
<time>2010-07-17T10:27:13Z</time>
<desc>lat.=55.729523, lon.=26.243885, Alt.=162.494263m. Speed=0.072000m/h.</desc>
<speed>0.020000</speed>
</trkpt>
<trkpt lat="55.729523" lon="26.243885">
<ele>162.502075</ele>
<time>2010-07-17T10:27:14Z</time>
<desc>lat.=55.729523, lon.=26.243885, Alt.=162.502075m. Speed=0.072000m/h.</desc>
<speed>0.020000</speed>
</trkpt>
<trkpt lat="55.729523" lon="26.243885">
<ele>162.505981</ele>
<time>2010-07-17T10:27:15Z</time>
<desc>lat.=55.729523, lon.=26.243885, Alt.=162.505981m. Speed=0.144000m/h.</desc>
<speed>0.040000</speed>
</trkpt>
<trkpt lat="55.729523" lon="26.243885">
<ele>162.537231</ele>
<time>2010-07-17T10:27:16Z</time>
<desc>lat.=55.729523, lon.=26.243885, Alt.=162.537231m. Speed=0.180000m/h.</desc>
<speed>0.050000</speed>
</trkpt>
<trkpt lat="55.729523" lon="26.243885">
<ele>162.552856</ele>
<time>2010-07-17T10:27:17Z</time>
<desc>lat.=55.729523, lon.=26.243885, Alt.=162.552856m. Speed=0.144000m/h.</desc>
<speed>0.040000</speed>
</trkpt>
<trkpt lat="55.729523" lon="26.243885">
<ele>162.568481</ele>
<time>2010-07-17T10:27:18Z</time>
<desc>lat.=55.729523, lon.=26.243885, Alt.=162.568481m. Speed=0.108000m/h.</desc>
<speed>0.030000</speed>
</trkpt>
<trkpt lat="55.729523" lon="26.243887">
<ele>162.580200</ele>
<time>2010-07-17T10:27:19Z</time>
<desc>lat.=55.729523, lon.=26.243887, Alt.=162.580200m. Speed=0.108000m/h.</desc>
<speed>0.030000</speed>
</trkpt>
<trkpt lat="55.729523" lon="26.243887">
<ele>162.591919</ele>
<time>2010-07-17T10:27:20Z</time>
<desc>lat.=55.729523, lon.=26.243887, Alt.=162.591919m. Speed=0.072000m/h.</desc>
<speed>0.020000</speed>
</trkpt>
<trkpt lat="55.729523" lon="26.243887">
<ele>162.607544</ele>
<time>2010-07-17T10:27:21Z</time>
<desc>lat.=55.729523, lon.=26.243887, Alt.=162.607544m. Speed=0.072000m/h.</desc>
<speed>0.020000</speed>
</trkpt>
<trkpt lat="55.729519" lon="26.243887">
<ele>162.623169</ele>
<time>2010-07-17T10:27:22Z</time>
<desc>lat.=55.729519, lon.=26.243887, Alt.=162.623169m. Speed=0.000000m/h.</desc>
<speed>0.000000</speed>
</trkpt>
<trkpt lat="55.729523" lon="26.243887">
<ele>162.642700</ele>
<time>2010-07-17T10:27:23Z</time>
<desc>lat.=55.729523, lon.=26.243887, Alt.=162.642700m. Speed=0.036000m/h.</desc>
<speed>0.010000</speed>
</trkpt>
<trkpt lat="55.729519" lon="26.243887">
<ele>162.658325</ele>
<time>2010-07-17T10:27:24Z</time>
<desc>lat.=55.729519, lon.=26.243887, Alt.=162.658325m. Speed=0.108000m/h.</desc>
<speed>0.030000</speed>
</trkpt>
<trkpt lat="55.729519" lon="26.243887">
<ele>162.662231</ele>
<time>2010-07-17T10:27:25Z</time>
<desc>lat.=55.729519, lon.=26.243887, Alt.=162.662231m. Speed=0.252000m/h.</desc>
<speed>0.070000</speed>
</trkpt>
<trkpt lat="55.729519" lon="26.243887">
<ele>162.677856</ele>
<time>2010-07-17T10:27:26Z</time>
<desc>lat.=55.729519, lon.=26.243887, Alt.=162.677856m. Speed=0.216000m/h.</desc>
<speed>0.060000</speed>
</trkpt>
<trkpt lat="55.729519" lon="26.243889">
<ele>162.685669</ele>
<time>2010-07-17T10:27:27Z</time>
<desc>lat.=55.729519, lon.=26.243889, Alt.=162.685669m. Speed=0.072000m/h.</desc>
<speed>0.020000</speed>
</trkpt>
<trkpt lat="55.729519" lon="26.243889">
<ele>162.693481</ele>
<time>2010-07-17T10:27:28Z</time>
<desc>lat.=55.729519, lon.=26.243889, Alt.=162.693481m. Speed=0.000000m/h.</desc>
<speed>0.000000</speed>
</trkpt>
<trkpt lat="55.729519" lon="26.243889">
<ele>162.701294</ele>
<time>2010-07-17T10:27:29Z</time>
<desc>lat.=55.729519, lon.=26.243889, Alt.=162.701294m. Speed=0.072000m/h.</desc>
<speed>0.020000</speed>
</trkpt>
<trkpt lat="55.729519" lon="26.243889">
<ele>162.716919</ele>
<time>2010-07-17T10:27:30Z</time>
<desc>lat.=55.729519, lon.=26.243889, Alt.=162.716919m. Speed=0.180000m/h.</desc>
<speed>0.050000</speed>
</trkpt>
<trkpt lat="55.729519" lon="26.243891">
<ele>162.720825</ele>
<time>2010-07-17T10:27:31Z</time>
<desc>lat.=55.729519, lon.=26.243891, Alt.=162.720825m. Speed=0.108000m/h.</desc>
<speed>0.030000</speed>
</trkpt>
<trkpt lat="55.729519" lon="26.243891">
<ele>162.732544</ele>
<time>2010-07-17T10:27:32Z</time>
<desc>lat.=55.729519, lon.=26.243891, Alt.=162.732544m. Speed=0.180000m/h.</desc>
<speed>0.050000</speed>
</trkpt>
<trkpt lat="55.729519" lon="26.243893">
<ele>162.732544</ele>
<time>2010-07-17T10:27:33Z</time>
<desc>lat.=55.729519, lon.=26.243893, Alt.=162.732544m. Speed=0.180000m/h.</desc>
<speed>0.050000</speed>
</trkpt>
<trkpt lat="55.729519" lon="26.243893">
<ele>162.740356</ele>
<time>2010-07-17T10:27:34Z</time>
<desc>lat.=55.729519, lon.=26.243893, Alt.=162.740356m. Speed=0.144000m/h.</desc>
<speed>0.040000</speed>
</trkpt>
<trkpt lat="55.729519" lon="26.243893">
<ele>162.748169</ele>
<time>2010-07-17T10:27:35Z</time>
<desc>lat.=55.729519, lon.=26.243893, Alt.=162.748169m. Speed=0.072000m/h.</desc>
<speed>0.020000</speed>
</trkpt>
<trkpt lat="55.729519" lon="26.243893">
<ele>162.759888</ele>
<time>2010-07-17T10:27:36Z</time>
<desc>lat.=55.729519, lon.=26.243893, Alt.=162.759888m. Speed=0.108000m/h.</desc>
<speed>0.030000</speed>
</trkpt>
<trkpt lat="55.729515" lon="26.243895">
<ele>162.759888</ele>
<time>2010-07-17T10:27:37Z</time>
<desc>lat.=55.729515, lon.=26.243895, Alt.=162.759888m. Speed=0.180000m/h.</desc>
<speed>0.050000</speed>
</trkpt>
<trkpt lat="55.729515" lon="26.243895">
<ele>162.763794</ele>
<time>2010-07-17T10:27:38Z</time>
<desc>lat.=55.729515, lon.=26.243895, Alt.=162.763794m. Speed=0.000000m/h.</desc>
<speed>0.000000</speed>
</trkpt>
<trkpt lat="55.729515" lon="26.243895">
<ele>162.767700</ele>
<time>2010-07-17T10:27:39Z</time>
<desc>lat.=55.729515, lon.=26.243895, Alt.=162.767700m. Speed=0.144000m/h.</desc>
<speed>0.040000</speed>
</trkpt>
<trkpt lat="55.729515" lon="26.243895">
<ele>162.775513</ele>
<time>2010-07-17T10:27:40Z</time>
<desc>lat.=55.729515, lon.=26.243895, Alt.=162.775513m. Speed=0.000000m/h.</desc>
<speed>0.000000</speed>
</trkpt>
<trkpt lat="55.729515" lon="26.243895">
<ele>162.779419</ele>
<time>2010-07-17T10:27:41Z</time>
<desc>lat.=55.729515, lon.=26.243895, Alt.=162.779419m. Speed=0.072000m/h.</desc>
<speed>0.020000</speed>
</trkpt>
<trkpt lat="55.729515" lon="26.243895">
<ele>162.787231</ele>
<time>2010-07-17T10:27:42Z</time>
<desc>lat.=55.729515, lon.=26.243895, Alt.=162.787231m. Speed=0.000000m/h.</desc>
<speed>0.000000</speed>
</trkpt>
<trkpt lat="55.729515" lon="26.243895">
<ele>162.795044</ele>
<time>2010-07-17T10:27:43Z</time>
<desc>lat.=55.729515, lon.=26.243895, Alt.=162.795044m. Speed=0.000000m/h.</desc>
<speed>0.000000</speed>
</trkpt>
<trkpt lat="55.729515" lon="26.243895">
<ele>162.802856</ele>
<time>2010-07-17T10:27:44Z</time>
<desc>lat.=55.729515, lon.=26.243895, Alt.=162.802856m. Speed=0.000000m/h.</desc>
<speed>0.000000</speed>
</trkpt>
<trkpt lat="55.729515" lon="26.243896">
<ele>162.802856</ele>
<time>2010-07-17T10:27:45Z</time>
<desc>lat.=55.729515, lon.=26.243896, Alt.=162.802856m. Speed=0.000000m/h.</desc>
<speed>0.000000</speed>
</trkpt>
<trkpt lat="55.729515" lon="26.243896">
<ele>162.810669</ele>
<time>2010-07-17T10:27:46Z</time>
<desc>lat.=55.729515, lon.=26.243896, Alt.=162.810669m. Speed=0.036000m/h.</desc>
<speed>0.010000</speed>
</trkpt>
<trkpt lat="55.729515" lon="26.243896">
<ele>162.814575</ele>
<time>2010-07-17T10:27:47Z</time>
<desc>lat.=55.729515, lon.=26.243896, Alt.=162.814575m. Speed=0.000000m/h.</desc>
<speed>0.000000</speed>
</trkpt>
<trkpt lat="55.729515" lon="26.243896">
<ele>162.826294</ele>
<time>2010-07-17T10:27:48Z</time>
<desc>lat.=55.729515, lon.=26.243896, Alt.=162.826294m. Speed=0.072000m/h.</desc>
<speed>0.020000</speed>
</trkpt>
<trkpt lat="55.729515" lon="26.243896">
<ele>162.826294</ele>
<time>2010-07-17T10:27:49Z</time>
<desc>lat.=55.729515, lon.=26.243896, Alt.=162.826294m. Speed=0.144000m/h.</desc>
<speed>0.040000</speed>
</trkpt>
<trkpt lat="55.729515" lon="26.243896">
<ele>162.830200</ele>
<time>2010-07-17T10:27:50Z</time>
<desc>lat.=55.729515, lon.=26.243896, Alt.=162.830200m. Speed=0.072000m/h.</desc>
<speed>0.020000</speed>
</trkpt>
<trkpt lat="55.729515" lon="26.243896">
<ele>162.834106</ele>
<time>2010-07-17T10:27:51Z</time>
<desc>lat.=55.729515, lon.=26.243896, Alt.=162.834106m. Speed=0.144000m/h.</desc>
<speed>0.040000</speed>
</trkpt>
<trkpt lat="55.729515" lon="26.243896">
<ele>162.845825</ele>
<time>2010-07-17T10:27:52Z</time>
<desc>lat.=55.729515, lon.=26.243896, Alt.=162.845825m. Speed=0.216000m/h.</desc>
<speed>0.060000</speed>
</trkpt>
<trkpt lat="55.729515" lon="26.243896">
<ele>162.857544</ele>
<time>2010-07-17T10:27:53Z</time>
<desc>lat.=55.729515, lon.=26.243896, Alt.=162.857544m. Speed=0.324000m/h.</desc>
<speed>0.090000</speed>
</trkpt>
<trkpt lat="55.729515" lon="26.243896">
<ele>162.869263</ele>
<time>2010-07-17T10:27:54Z</time>
<desc>lat.=55.729515, lon.=26.243896, Alt.=162.869263m. Speed=0.324000m/h.</desc>
<speed>0.090000</speed>
</trkpt>
<trkpt lat="55.729511" lon="26.243896">
<ele>162.884888</ele>
<time>2010-07-17T10:27:55Z</time>
<desc>lat.=55.729511, lon.=26.243896, Alt.=162.884888m. Speed=0.360000m/h.</desc>
<speed>0.100000</speed>
</trkpt>
<trkpt lat="55.729511" lon="26.243896">
<ele>162.900513</ele>
<time>2010-07-17T10:27:56Z</time>
<desc>lat.=55.729511, lon.=26.243896, Alt.=162.900513m. Speed=0.360000m/h.</desc>
<speed>0.100000</speed>
</trkpt>
<trkpt lat="55.729511" lon="26.243896">
<ele>162.916138</ele>
<time>2010-07-17T10:27:57Z</time>
<desc>lat.=55.729511, lon.=26.243896, Alt.=162.916138m. Speed=0.324000m/h.</desc>
<speed>0.090000</speed>
</trkpt>
<trkpt lat="55.729511" lon="26.243896">
<ele>162.931763</ele>
<time>2010-07-17T10:27:58Z</time>
<desc>lat.=55.729511, lon.=26.243896, Alt.=162.931763m. Speed=0.396000m/h.</desc>
<speed>0.110000</speed>
</trkpt>
<trkpt lat="55.729507" lon="26.243896">
<ele>162.943481</ele>
<time>2010-07-17T10:27:59Z</time>
<desc>lat.=55.729507, lon.=26.243896, Alt.=162.943481m. Speed=0.396000m/h.</desc>
<speed>0.110000</speed>
</trkpt>
<trkpt lat="55.729507" lon="26.243896">
<ele>162.959106</ele>
<time>2010-07-17T10:28:00Z</time>
<desc>lat.=55.729507, lon.=26.243896, Alt.=162.959106m. Speed=0.468000m/h.</desc>
<speed>0.130000</speed>
</trkpt>
<trkpt lat="55.729507" lon="26.243896">
<ele>162.970825</ele>
<time>2010-07-17T10:28:01Z</time>
<desc>lat.=55.729507, lon.=26.243896, Alt.=162.970825m. Speed=0.504000m/h.</desc>
<speed>0.140000</speed>
</trkpt>
<trkpt lat="55.729507" lon="26.243896">
<ele>162.990356</ele>
<time>2010-07-17T10:28:02Z</time>
<desc>lat.=55.729507, lon.=26.243896, Alt.=162.990356m. Speed=0.432000m/h.</desc>
<speed>0.120000</speed>
</trkpt>
<trkpt lat="55.729504" lon="26.243898">
<ele>163.002075</ele>
<time>2010-07-17T10:28:03Z</time>
<desc>lat.=55.729504, lon.=26.243898, Alt.=163.002075m. Speed=0.648000m/h.</desc>
<speed>0.180000</speed>
</trkpt>
<trkpt lat="55.729504" lon="26.243898">
<ele>163.017700</ele>
<time>2010-07-17T10:28:04Z</time>
<desc>lat.=55.729504, lon.=26.243898, Alt.=163.017700m. Speed=0.720000m/h.</desc>
<speed>0.200000</speed>
</trkpt>
<trkpt lat="55.729500" lon="26.243896">
<ele>163.029419</ele>
<time>2010-07-17T10:28:05Z</time>
<desc>lat.=55.729500, lon.=26.243896, Alt.=163.029419m. Speed=0.108000m/h.</desc>
<speed>0.030000</speed>
</trkpt>
<trkpt lat="55.729500" lon="26.243898">
<ele>163.048950</ele>
<time>2010-07-17T10:28:06Z</time>
<desc>lat.=55.729500, lon.=26.243898, Alt.=163.048950m. Speed=0.072000m/h.</desc>
<speed>0.020000</speed>
</trkpt>
<trkpt lat="55.729500" lon="26.243898">
<ele>163.045044</ele>
<time>2010-07-17T10:28:07Z</time>
<desc>lat.=55.729500, lon.=26.243898, Alt.=163.045044m. Speed=0.072000m/h.</desc>
<speed>0.020000</speed>
</trkpt>
<trkpt lat="55.729500" lon="26.243898">
<ele>163.048950</ele>
<time>2010-07-17T10:28:08Z</time>
<desc>lat.=55.729500, lon.=26.243898, Alt.=163.048950m. Speed=0.072000m/h.</desc>
<speed>0.020000</speed>
</trkpt>
<trkpt lat="55.729500" lon="26.243898">
<ele>163.048950</ele>
<time>2010-07-17T10:28:09Z</time>
<desc>lat.=55.729500, lon.=26.243898, Alt.=163.048950m. Speed=0.036000m/h.</desc>
<speed>0.010000</speed>
</trkpt>
<trkpt lat="55.729500" lon="26.243898">
<ele>163.052856</ele>
<time>2010-07-17T10:28:10Z</time>
<desc>lat.=55.729500, lon.=26.243898, Alt.=163.052856m. Speed=0.072000m/h.</desc>
<speed>0.020000</speed>
</trkpt>
<trkpt lat="55.729500" lon="26.243898">
<ele>163.056763</ele>
<time>2010-07-17T10:28:11Z</time>
<desc>lat.=55.729500, lon.=26.243898, Alt.=163.056763m. Speed=0.072000m/h.</desc>
<speed>0.020000</speed>
</trkpt>
<trkpt lat="55.729500" lon="26.243898">
<ele>163.060669</ele>
<time>2010-07-17T10:28:12Z</time>
<desc>lat.=55.729500, lon.=26.243898, Alt.=163.060669m. Speed=0.108000m/h.</desc>
<speed>0.030000</speed>
</trkpt>
<trkpt lat="55.729500" lon="26.243898">
<ele>163.076294</ele>
<time>2010-07-17T10:28:13Z</time>
<desc>lat.=55.729500, lon.=26.243898, Alt.=163.076294m. Speed=0.144000m/h.</desc>
<speed>0.040000</speed>
</trkpt>
<trkpt lat="55.729500" lon="26.243898">
<ele>163.088013</ele>
<time>2010-07-17T10:28:14Z</time>
<desc>lat.=55.729500, lon.=26.243898, Alt.=163.088013m. Speed=0.144000m/h.</desc>
<speed>0.040000</speed>
</trkpt>
<trkpt lat="55.729500" lon="26.243898">
<ele>163.111450</ele>
<time>2010-07-17T10:28:15Z</time>
<desc>lat.=55.729500, lon.=26.243898, Alt.=163.111450m. Speed=0.144000m/h.</desc>
<speed>0.040000</speed>
</trkpt>
<trkpt lat="55.729496" lon="26.243898">
<ele>163.127075</ele>
<time>2010-07-17T10:28:16Z</time>
<desc>lat.=55.729496, lon.=26.243898, Alt.=163.127075m. Speed=0.216000m/h.</desc>
<speed>0.060000</speed>
</trkpt>
<trkpt lat="55.729496" lon="26.243898">
<ele>163.146606</ele>
<time>2010-07-17T10:28:17Z</time>
<desc>lat.=55.729496, lon.=26.243898, Alt.=163.146606m. Speed=0.288000m/h.</desc>
<speed>0.080000</speed>
</trkpt>
<trkpt lat="55.729496" lon="26.243898">
<ele>163.158325</ele>
<time>2010-07-17T10:28:18Z</time>
<desc>lat.=55.729496, lon.=26.243898, Alt.=163.158325m. Speed=0.072000m/h.</desc>
<speed>0.020000</speed>
</trkpt>
<trkpt lat="55.729496" lon="26.243898">
<ele>163.158325</ele>
<time>2010-07-17T10:28:19Z</time>
<desc>lat.=55.729496, lon.=26.243898, Alt.=163.158325m. Speed=0.036000m/h.</desc>
<speed>0.010000</speed>
</trkpt>
<trkpt lat="55.729496" lon="26.243900">
<ele>163.158325</ele>
<time>2010-07-17T10:28:20Z</time>
<desc>lat.=55.729496, lon.=26.243900, Alt.=163.158325m. Speed=0.036000m/h.</desc>
<speed>0.010000</speed>
</trkpt>
<trkpt lat="55.729496" lon="26.243900">
<ele>163.162231</ele>
<time>2010-07-17T10:28:21Z</time>
<desc>lat.=55.729496, lon.=26.243900, Alt.=163.162231m. Speed=0.036000m/h.</desc>
<speed>0.010000</speed>
</trkpt>
<trkpt lat="55.729496" lon="26.243900">
<ele>163.158325</ele>
<time>2010-07-17T10:28:22Z</time>
<desc>lat.=55.729496, lon.=26.243900, Alt.=163.158325m. Speed=0.036000m/h.</desc>
<speed>0.010000</speed>
</trkpt>
<trkpt lat="55.729496" lon="26.243900">
<ele>163.162231</ele>
<time>2010-07-17T10:28:23Z</time>
<desc>lat.=55.729496, lon.=26.243900, Alt.=163.162231m. Speed=0.036000m/h.</desc>
<speed>0.010000</speed>
</trkpt>
<trkpt lat="55.729496" lon="26.243900">
<ele>163.154419</ele>
<time>2010-07-17T10:28:24Z</time>
<desc>lat.=55.729496, lon.=26.243900, Alt.=163.154419m. Speed=0.000000m/h.</desc>
<speed>0.000000</speed>
</trkpt>
<trkpt lat="55.729496" lon="26.243900">
<ele>163.158325</ele>
<time>2010-07-17T10:28:25Z</time>
<desc>lat.=55.729496, lon.=26.243900, Alt.=163.158325m. Speed=0.000000m/h.</desc>
<speed>0.000000</speed>
</trkpt>
<trkpt lat="55.729496" lon="26.243900">
<ele>163.154419</ele>
<time>2010-07-17T10:28:26Z</time>
<desc>lat.=55.729496, lon.=26.243900, Alt.=163.154419m. Speed=0.036000m/h.</desc>
<speed>0.010000</speed>
</trkpt>
<trkpt lat="55.729496" lon="26.243900">
<ele>163.154419</ele>
<time>2010-07-17T10:28:27Z</time>
<desc>lat.=55.729496, lon.=26.243900, Alt.=163.154419m. Speed=0.000000m/h.</desc>
<speed>0.000000</speed>
</trkpt>
<trkpt lat="55.729496" lon="26.243900">
<ele>163.154419</ele>
<time>2010-07-17T10:28:28Z</time>
<desc>lat.=55.729496, lon.=26.243900, Alt.=163.154419m. Speed=0.000000m/h.</desc>
<speed>0.000000</speed>
</trkpt>
<trkpt lat="55.729496" lon="26.243900">
<ele>163.154419</ele>
<time>2010-07-17T10:28:29Z</time>
<desc>lat.=55.729496, lon.=26.243900, Alt.=163.154419m. Speed=0.036000m/h.</desc>
<speed>0.010000</speed>
</trkpt>
<trkpt lat="55.729496" lon="26.243900">
<ele>163.154419</ele>
<time>2010-07-17T10:28:30Z</time>
<desc>lat.=55.729496, lon.=26.243900, Alt.=163.154419m. Speed=0.036000m/h.</desc>
<speed>0.010000</speed>
</trkpt>
<trkpt lat="55.729496" lon="26.243900">
<ele>163.150513</ele>
<time>2010-07-17T10:28:31Z</time>
<desc>lat.=55.729496, lon.=26.243900, Alt.=163.150513m. Speed=0.036000m/h.</desc>
<speed>0.010000</speed>
</trkpt>
<trkpt lat="55.729500" lon="26.243900">
<ele>163.146606</ele>
<time>2010-07-17T10:28:32Z</time>
<desc>lat.=55.729500, lon.=26.243900, Alt.=163.146606m. Speed=0.072000m/h.</desc>
<speed>0.020000</speed>
</trkpt>
<trkpt lat="55.729500" lon="26.243900">
<ele>163.146606</ele>
<time>2010-07-17T10:28:33Z</time>
<desc>lat.=55.729500, lon.=26.243900, Alt.=163.146606m. Speed=0.072000m/h.</desc>
<speed>0.020000</speed>
</trkpt>
<trkpt lat="55.729500" lon="26.243900">
<ele>163.142700</ele>
<time>2010-07-17T10:28:34Z</time>
<desc>lat.=55.729500, lon.=26.243900, Alt.=163.142700m. Speed=0.108000m/h.</desc>
<speed>0.030000</speed>
</trkpt>
<trkpt lat="55.729500" lon="26.243900">
<ele>163.138794</ele>
<time>2010-07-17T10:28:35Z</time>
<desc>lat.=55.729500, lon.=26.243900, Alt.=163.138794m. Speed=0.144000m/h.</desc>
<speed>0.040000</speed>
</trkpt>
<trkpt lat="55.729500" lon="26.243900">
<ele>163.130981</ele>
<time>2010-07-17T10:28:36Z</time>
<desc>lat.=55.729500, lon.=26.243900, Alt.=163.130981m. Speed=0.144000m/h.</desc>
<speed>0.040000</speed>
</trkpt>
<trkpt lat="55.729500" lon="26.243900">
<ele>163.123169</ele>
<time>2010-07-17T10:28:37Z</time>
<desc>lat.=55.729500, lon.=26.243900, Alt.=163.123169m. Speed=0.144000m/h.</desc>
<speed>0.040000</speed>
</trkpt>
<trkpt lat="55.729500" lon="26.243900">
<ele>163.119263</ele>
<time>2010-07-17T10:28:38Z</time>
<desc>lat.=55.729500, lon.=26.243900, Alt.=163.119263m. Speed=0.180000m/h.</desc>
<speed>0.050000</speed>
</trkpt>
<trkpt lat="55.729500" lon="26.243900">
<ele>163.111450</ele>
<time>2010-07-17T10:28:39Z</time>
<desc>lat.=55.729500, lon.=26.243900, Alt.=163.111450m. Speed=0.180000m/h.</desc>
<speed>0.050000</speed>
</trkpt>
<trkpt lat="55.729500" lon="26.243900">
<ele>163.099731</ele>
<time>2010-07-17T10:28:40Z</time>
<desc>lat.=55.729500, lon.=26.243900, Alt.=163.099731m. Speed=0.180000m/h.</desc>
<speed>0.050000</speed>
</trkpt>
<trkpt lat="55.729500" lon="26.243900">
<ele>163.091919</ele>
<time>2010-07-17T10:28:41Z</time>
<desc>lat.=55.729500, lon.=26.243900, Alt.=163.091919m. Speed=0.180000m/h.</desc>
<speed>0.050000</speed>
</trkpt>
<trkpt lat="55.729504" lon="26.243900">
<ele>163.088013</ele>
<time>2010-07-17T10:28:42Z</time>
<desc>lat.=55.729504, lon.=26.243900, Alt.=163.088013m. Speed=0.216000m/h.</desc>
<speed>0.060000</speed>
</trkpt>
<trkpt lat="55.729504" lon="26.243900">
<ele>163.076294</ele>
<time>2010-07-17T10:28:43Z</time>
<desc>lat.=55.729504, lon.=26.243900, Alt.=163.076294m. Speed=0.108000m/h.</desc>
<speed>0.030000</speed>
</trkpt>
<trkpt lat="55.729504" lon="26.243898">
<ele>163.056763</ele>
<time>2010-07-17T10:28:44Z</time>
<desc>lat.=55.729504, lon.=26.243898, Alt.=163.056763m. Speed=0.144000m/h.</desc>
<speed>0.040000</speed>
</trkpt>
<trkpt lat="55.729504" lon="26.243898">
<ele>163.045044</ele>
<time>2010-07-17T10:28:45Z</time>
<desc>lat.=55.729504, lon.=26.243898, Alt.=163.045044m. Speed=0.252000m/h.</desc>
<speed>0.070000</speed>
</trkpt>
<trkpt lat="55.729500" lon="26.243898">
<ele>163.029419</ele>
<time>2010-07-17T10:28:46Z</time>
<desc>lat.=55.729500, lon.=26.243898, Alt.=163.029419m. Speed=0.360000m/h.</desc>
<speed>0.100000</speed>
</trkpt>
<trkpt lat="55.729500" lon="26.243898">
<ele>163.021606</ele>
<time>2010-07-17T10:28:47Z</time>
<desc>lat.=55.729500, lon.=26.243898, Alt.=163.021606m. Speed=0.324000m/h.</desc>
<speed>0.090000</speed>
</trkpt>
<trkpt lat="55.729500" lon="26.243896">
<ele>163.009888</ele>
<time>2010-07-17T10:28:48Z</time>
<desc>lat.=55.729500, lon.=26.243896, Alt.=163.009888m. Speed=0.468000m/h.</desc>
<speed>0.130000</speed>
</trkpt>
<trkpt lat="55.729500" lon="26.243896">
<ele>162.998169</ele>
<time>2010-07-17T10:28:49Z</time>
<desc>lat.=55.729500, lon.=26.243896, Alt.=162.998169m. Speed=0.540000m/h.</desc>
<speed>0.150000</speed>
</trkpt>
<trkpt lat="55.729496" lon="26.243895">
<ele>162.982544</ele>
<time>2010-07-17T10:28:50Z</time>
<desc>lat.=55.729496, lon.=26.243895, Alt.=162.982544m. Speed=0.504000m/h.</desc>
<speed>0.140000</speed>
</trkpt>
<trkpt lat="55.729496" lon="26.243895">
<ele>162.963013</ele>
<time>2010-07-17T10:28:51Z</time>
<desc>lat.=55.729496, lon.=26.243895, Alt.=162.963013m. Speed=0.468000m/h.</desc>
<speed>0.130000</speed>
</trkpt>
<trkpt lat="55.729496" lon="26.243893">
<ele>162.943481</ele>
<time>2010-07-17T10:28:52Z</time>
<desc>lat.=55.729496, lon.=26.243893, Alt.=162.943481m. Speed=0.468000m/h.</desc>
<speed>0.130000</speed>
</trkpt>
<trkpt lat="55.729492" lon="26.243893">
<ele>162.920044</ele>
<time>2010-07-17T10:28:53Z</time>
<desc>lat.=55.729492, lon.=26.243893, Alt.=162.920044m. Speed=0.432000m/h.</desc>
<speed>0.120000</speed>
</trkpt>
<trkpt lat="55.729492" lon="26.243893">
<ele>162.892700</ele>
<time>2010-07-17T10:28:54Z</time>
<desc>lat.=55.729492, lon.=26.243893, Alt.=162.892700m. Speed=0.612000m/h.</desc>
<speed>0.170000</speed>
</trkpt>
<trkpt lat="55.729492" lon="26.243891">
<ele>162.869263</ele>
<time>2010-07-17T10:28:55Z</time>
<desc>lat.=55.729492, lon.=26.243891, Alt.=162.869263m. Speed=0.684000m/h.</desc>
<speed>0.190000</speed>
</trkpt>
<trkpt lat="55.729488" lon="26.243891">
<ele>162.845825</ele>
<time>2010-07-17T10:28:56Z</time>
<desc>lat.=55.729488, lon.=26.243891, Alt.=162.845825m. Speed=0.612000m/h.</desc>
<speed>0.170000</speed>
</trkpt>
<trkpt lat="55.729488" lon="26.243889">
<ele>162.822388</ele>
<time>2010-07-17T10:28:57Z</time>
<desc>lat.=55.729488, lon.=26.243889, Alt.=162.822388m. Speed=0.576000m/h.</desc>
<speed>0.160000</speed>
</trkpt>
<trkpt lat="55.729485" lon="26.243889">
<ele>162.798950</ele>
<time>2010-07-17T10:28:58Z</time>
<desc>lat.=55.729485, lon.=26.243889, Alt.=162.798950m. Speed=0.540000m/h.</desc>
<speed>0.150000</speed>
</trkpt>
<trkpt lat="55.729485" lon="26.243889">
<ele>162.775513</ele>
<time>2010-07-17T10:28:59Z</time>
<desc>lat.=55.729485, lon.=26.243889, Alt.=162.775513m. Speed=0.504000m/h.</desc>
<speed>0.140000</speed>
</trkpt>
<trkpt lat="55.729485" lon="26.243887">
<ele>162.752075</ele>
<time>2010-07-17T10:29:00Z</time>
<desc>lat.=55.729485, lon.=26.243887, Alt.=162.752075m. Speed=0.540000m/h.</desc>
<speed>0.150000</speed>
</trkpt>
<trkpt lat="55.729481" lon="26.243887">
<ele>162.732544</ele>
<time>2010-07-17T10:29:01Z</time>
<desc>lat.=55.729481, lon.=26.243887, Alt.=162.732544m. Speed=0.468000m/h.</desc>
<speed>0.130000</speed>
</trkpt>
<trkpt lat="55.729481" lon="26.243887">
<ele>162.716919</ele>
<time>2010-07-17T10:29:02Z</time>
<desc>lat.=55.729481, lon.=26.243887, Alt.=162.716919m. Speed=0.468000m/h.</desc>
<speed>0.130000</speed>
</trkpt>
<trkpt lat="55.729481" lon="26.243885">
<ele>162.697388</ele>
<time>2010-07-17T10:29:03Z</time>
<desc>lat.=55.729481, lon.=26.243885, Alt.=162.697388m. Speed=0.504000m/h.</desc>
<speed>0.140000</speed>
</trkpt>
<trkpt lat="55.729477" lon="26.243885">
<ele>162.681763</ele>
<time>2010-07-17T10:29:04Z</time>
<desc>lat.=55.729477, lon.=26.243885, Alt.=162.681763m. Speed=0.576000m/h.</desc>
<speed>0.160000</speed>
</trkpt>
<trkpt lat="55.729477" lon="26.243883">
<ele>162.666138</ele>
<time>2010-07-17T10:29:05Z</time>
<desc>lat.=55.729477, lon.=26.243883, Alt.=162.666138m. Speed=0.576000m/h.</desc>
<speed>0.160000</speed>
</trkpt>
<trkpt lat="55.729477" lon="26.243881">
<ele>162.650513</ele>
<time>2010-07-17T10:29:06Z</time>
<desc>lat.=55.729477, lon.=26.243881, Alt.=162.650513m. Speed=0.576000m/h.</desc>
<speed>0.160000</speed>
</trkpt>
<trkpt lat="55.729473" lon="26.243881">
<ele>162.634888</ele>
<time>2010-07-17T10:29:07Z</time>
<desc>lat.=55.729473, lon.=26.243881, Alt.=162.634888m. Speed=0.540000m/h.</desc>
<speed>0.150000</speed>
</trkpt>
<trkpt lat="55.729473" lon="26.243881">
<ele>162.619263</ele>
<time>2010-07-17T10:29:08Z</time>
<desc>lat.=55.729473, lon.=26.243881, Alt.=162.619263m. Speed=0.468000m/h.</desc>
<speed>0.130000</speed>
</trkpt>
<trkpt lat="55.729473" lon="26.243879">
<ele>162.603638</ele>
<time>2010-07-17T10:29:09Z</time>
<desc>lat.=55.729473, lon.=26.243879, Alt.=162.603638m. Speed=0.468000m/h.</desc>
<speed>0.130000</speed>
</trkpt>
<trkpt lat="55.729469" lon="26.243879">
<ele>162.588013</ele>
<time>2010-07-17T10:29:10Z</time>
<desc>lat.=55.729469, lon.=26.243879, Alt.=162.588013m. Speed=0.468000m/h.</desc>
<speed>0.130000</speed>
</trkpt>
<trkpt lat="55.729469" lon="26.243879">
<ele>162.568481</ele>
<time>2010-07-17T10:29:11Z</time>
<desc>lat.=55.729469, lon.=26.243879, Alt.=162.568481m. Speed=0.432000m/h.</desc>
<speed>0.120000</speed>
</trkpt>
<trkpt lat="55.729469" lon="26.243877">
<ele>162.545044</ele>
<time>2010-07-17T10:29:12Z</time>
<desc>lat.=55.729469, lon.=26.243877, Alt.=162.545044m. Speed=0.324000m/h.</desc>
<speed>0.090000</speed>
</trkpt>
<trkpt lat="55.729469" lon="26.243877">
<ele>162.525513</ele>
<time>2010-07-17T10:29:13Z</time>
<desc>lat.=55.729469, lon.=26.243877, Alt.=162.525513m. Speed=0.288000m/h.</desc>
<speed>0.080000</speed>
</trkpt>
<trkpt lat="55.729469" lon="26.243877">
<ele>162.505981</ele>
<time>2010-07-17T10:29:14Z</time>
<desc>lat.=55.729469, lon.=26.243877, Alt.=162.505981m. Speed=0.252000m/h.</desc>
<speed>0.070000</speed>
</trkpt>
<trkpt lat="55.729465" lon="26.243877">
<ele>162.490356</ele>
<time>2010-07-17T10:29:15Z</time>
<desc>lat.=55.729465, lon.=26.243877, Alt.=162.490356m. Speed=0.252000m/h.</desc>
<speed>0.070000</speed>
</trkpt>
<trkpt lat="55.729465" lon="26.243877">
<ele>162.474731</ele>
<time>2010-07-17T10:29:16Z</time>
<desc>lat.=55.729465, lon.=26.243877, Alt.=162.474731m. Speed=0.252000m/h.</desc>
<speed>0.070000</speed>
</trkpt>
<trkpt lat="55.729465" lon="26.243876">
<ele>162.459106</ele>
<time>2010-07-17T10:29:17Z</time>
<desc>lat.=55.729465, lon.=26.243876, Alt.=162.459106m. Speed=0.288000m/h.</desc>
<speed>0.080000</speed>
</trkpt>
<trkpt lat="55.729465" lon="26.243876">
<ele>162.447388</ele>
<time>2010-07-17T10:29:18Z</time>
<desc>lat.=55.729465, lon.=26.243876, Alt.=162.447388m. Speed=0.252000m/h.</desc>
<speed>0.070000</speed>
</trkpt>
<trkpt lat="55.729465" lon="26.243876">
<ele>162.431763</ele>
<time>2010-07-17T10:29:19Z</time>
<desc>lat.=55.729465, lon.=26.243876, Alt.=162.431763m. Speed=0.216000m/h.</desc>
<speed>0.060000</speed>
</trkpt>
<trkpt lat="55.729465" lon="26.243874">
<ele>162.420044</ele>
<time>2010-07-17T10:29:20Z</time>
<desc>lat.=55.729465, lon.=26.243874, Alt.=162.420044m. Speed=0.252000m/h.</desc>
<speed>0.070000</speed>
</trkpt>
<trkpt lat="55.729462" lon="26.243874">
<ele>162.404419</ele>
<time>2010-07-17T10:29:21Z</time>
<desc>lat.=55.729462, lon.=26.243874, Alt.=162.404419m. Speed=0.216000m/h.</desc>
<speed>0.060000</speed>
</trkpt>
<trkpt lat="55.729462" lon="26.243874">
<ele>162.388794</ele>
<time>2010-07-17T10:29:22Z</time>
<desc>lat.=55.729462, lon.=26.243874, Alt.=162.388794m. Speed=0.252000m/h.</desc>
<speed>0.070000</speed>
</trkpt>
<trkpt lat="55.729462" lon="26.243874">
<ele>162.373169</ele>
<time>2010-07-17T10:29:23Z</time>
<desc>lat.=55.729462, lon.=26.243874, Alt.=162.373169m. Speed=0.216000m/h.</desc>
<speed>0.060000</speed>
</trkpt>
<trkpt lat="55.729462" lon="26.243872">
<ele>162.361450</ele>
<time>2010-07-17T10:29:24Z</time>
<desc>lat.=55.729462, lon.=26.243872, Alt.=162.361450m. Speed=0.072000m/h.</desc>
<speed>0.020000</speed>
</trkpt>
<trkpt lat="55.729462" lon="26.243872">
<ele>162.345825</ele>
<time>2010-07-17T10:29:25Z</time>
<desc>lat.=55.729462, lon.=26.243872, Alt.=162.345825m. Speed=0.036000m/h.</desc>
<speed>0.010000</speed>
</trkpt>
<trkpt lat="55.729462" lon="26.243872">
<ele>162.334106</ele>
<time>2010-07-17T10:29:26Z</time>
<desc>lat.=55.729462, lon.=26.243872, Alt.=162.334106m. Speed=0.036000m/h.</desc>
<speed>0.010000</speed>
</trkpt>
<trkpt lat="55.729462" lon="26.243872">
<ele>162.318481</ele>
<time>2010-07-17T10:29:27Z</time>
<desc>lat.=55.729462, lon.=26.243872, Alt.=162.318481m. Speed=0.072000m/h.</desc>
<speed>0.020000</speed>
</trkpt>
<trkpt lat="55.729462" lon="26.243872">
<ele>162.310669</ele>
<time>2010-07-17T10:29:28Z</time>
<desc>lat.=55.729462, lon.=26.243872, Alt.=162.310669m. Speed=0.072000m/h.</desc>
<speed>0.020000</speed>
</trkpt>
<trkpt lat="55.729462" lon="26.243872">
<ele>162.295044</ele>
<time>2010-07-17T10:29:29Z</time>
<desc>lat.=55.729462, lon.=26.243872, Alt.=162.295044m. Speed=0.036000m/h.</desc>
<speed>0.010000</speed>
</trkpt>
<trkpt lat="55.729462" lon="26.243872">
<ele>162.279419</ele>
<time>2010-07-17T10:29:30Z</time>
<desc>lat.=55.729462, lon.=26.243872, Alt.=162.279419m. Speed=0.108000m/h.</desc>
<speed>0.030000</speed>
</trkpt>
<trkpt lat="55.729462" lon="26.243872">
<ele>162.271606</ele>
<time>2010-07-17T10:29:31Z</time>
<desc>lat.=55.729462, lon.=26.243872, Alt.=162.271606m. Speed=0.108000m/h.</desc>
<speed>0.030000</speed>
</trkpt>
<trkpt lat="55.729462" lon="26.243872">
<ele>162.259888</ele>
<time>2010-07-17T10:29:32Z</time>
<desc>lat.=55.729462, lon.=26.243872, Alt.=162.259888m. Speed=0.072000m/h.</desc>
<speed>0.020000</speed>
</trkpt>
<trkpt lat="55.729462" lon="26.243870">
<ele>162.248169</ele>
<time>2010-07-17T10:29:33Z</time>
<desc>lat.=55.729462, lon.=26.243870, Alt.=162.248169m. Speed=0.072000m/h.</desc>
<speed>0.020000</speed>
</trkpt>
<trkpt lat="55.729462" lon="26.243870">
<ele>162.240356</ele>
<time>2010-07-17T10:29:34Z</time>
<desc>lat.=55.729462, lon.=26.243870, Alt.=162.240356m. Speed=0.108000m/h.</desc>
<speed>0.030000</speed>
</trkpt>
<trkpt lat="55.729462" lon="26.243870">
<ele>162.228638</ele>
<time>2010-07-17T10:29:35Z</time>
<desc>lat.=55.729462, lon.=26.243870, Alt.=162.228638m. Speed=0.180000m/h.</desc>
<speed>0.050000</speed>
</trkpt>
<trkpt lat="55.729462" lon="26.243870">
<ele>162.220825</ele>
<time>2010-07-17T10:29:36Z</time>
<desc>lat.=55.729462, lon.=26.243870, Alt.=162.220825m. Speed=0.144000m/h.</desc>
<speed>0.040000</speed>
</trkpt>
<trkpt lat="55.729462" lon="26.243870">
<ele>162.209106</ele>
<time>2010-07-17T10:29:37Z</time>
<desc>lat.=55.729462, lon.=26.243870, Alt.=162.209106m. Speed=0.108000m/h.</desc>
<speed>0.030000</speed>
</trkpt>
<trkpt lat="55.729462" lon="26.243868">
<ele>162.201294</ele>
<time>2010-07-17T10:29:38Z</time>
<desc>lat.=55.729462, lon.=26.243868, Alt.=162.201294m. Speed=0.072000m/h.</desc>
<speed>0.020000</speed>
</trkpt>
<trkpt lat="55.729462" lon="26.243868">
<ele>162.189575</ele>
<time>2010-07-17T10:29:39Z</time>
<desc>lat.=55.729462, lon.=26.243868, Alt.=162.189575m. Speed=0.072000m/h.</desc>
<speed>0.020000</speed>
</trkpt>
<trkpt lat="55.729462" lon="26.243868">
<ele>162.181763</ele>
<time>2010-07-17T10:29:40Z</time>
<desc>lat.=55.729462, lon.=26.243868, Alt.=162.181763m. Speed=0.036000m/h.</desc>
<speed>0.010000</speed>
</trkpt>
<trkpt lat="55.729462" lon="26.243868">
<ele>162.173950</ele>
<time>2010-07-17T10:29:41Z</time>
<desc>lat.=55.729462, lon.=26.243868, Alt.=162.173950m. Speed=0.036000m/h.</desc>
<speed>0.010000</speed>
</trkpt>
<trkpt lat="55.729462" lon="26.243868">
<ele>162.162231</ele>
<time>2010-07-17T10:29:42Z</time>
<desc>lat.=55.729462, lon.=26.243868, Alt.=162.162231m. Speed=0.000000m/h.</desc>
<speed>0.000000</speed>
</trkpt>
<trkpt lat="55.729462" lon="26.243868">
<ele>162.154419</ele>
<time>2010-07-17T10:29:43Z</time>
<desc>lat.=55.729462, lon.=26.243868, Alt.=162.154419m. Speed=0.036000m/h.</desc>
<speed>0.010000</speed>
</trkpt>
<trkpt lat="55.729462" lon="26.243868">
<ele>162.142700</ele>
<time>2010-07-17T10:29:44Z</time>
<desc>lat.=55.729462, lon.=26.243868, Alt.=162.142700m. Speed=0.000000m/h.</desc>
<speed>0.000000</speed>
</trkpt>
<trkpt lat="55.729462" lon="26.243868">
<ele>162.134888</ele>
<time>2010-07-17T10:29:45Z</time>
<desc>lat.=55.729462, lon.=26.243868, Alt.=162.134888m. Speed=0.000000m/h.</desc>
<speed>0.000000</speed>
</trkpt>
<trkpt lat="55.729462" lon="26.243868">
<ele>162.123169</ele>
<time>2010-07-17T10:29:46Z</time>
<desc>lat.=55.729462, lon.=26.243868, Alt.=162.123169m. Speed=0.000000m/h.</desc>
<speed>0.000000</speed>
</trkpt>
<trkpt lat="55.729462" lon="26.243868">
<ele>162.119263</ele>
<time>2010-07-17T10:29:47Z</time>
<desc>lat.=55.729462, lon.=26.243868, Alt.=162.119263m. Speed=0.036000m/h.</desc>
<speed>0.010000</speed>
</trkpt>
<trkpt lat="55.729462" lon="26.243868">
<ele>162.111450</ele>
<time>2010-07-17T10:29:48Z</time>
<desc>lat.=55.729462, lon.=26.243868, Alt.=162.111450m. Speed=0.144000m/h.</desc>
<speed>0.040000</speed>
</trkpt>
<trkpt lat="55.729462" lon="26.243868">
<ele>162.103638</ele>
<time>2010-07-17T10:29:49Z</time>
<desc>lat.=55.729462, lon.=26.243868, Alt.=162.103638m. Speed=0.144000m/h.</desc>
<speed>0.040000</speed>
</trkpt>
<trkpt lat="55.729462" lon="26.243868">
<ele>162.099731</ele>
<time>2010-07-17T10:29:50Z</time>
<desc>lat.=55.729462, lon.=26.243868, Alt.=162.099731m. Speed=0.216000m/h.</desc>
<speed>0.060000</speed>
</trkpt>
<trkpt lat="55.729462" lon="26.243868">
<ele>162.091919</ele>
<time>2010-07-17T10:29:51Z</time>
<desc>lat.=55.729462, lon.=26.243868, Alt.=162.091919m. Speed=0.216000m/h.</desc>
<speed>0.060000</speed>
</trkpt>
<trkpt lat="55.729462" lon="26.243868">
<ele>162.088013</ele>
<time>2010-07-17T10:29:52Z</time>
<desc>lat.=55.729462, lon.=26.243868, Alt.=162.088013m. Speed=0.252000m/h.</desc>
<speed>0.070000</speed>
</trkpt>
<trkpt lat="55.729465" lon="26.243870">
<ele>162.084106</ele>
<time>2010-07-17T10:29:53Z</time>
<desc>lat.=55.729465, lon.=26.243870, Alt.=162.084106m. Speed=0.324000m/h.</desc>
<speed>0.090000</speed>
</trkpt>
<trkpt lat="55.729465" lon="26.243870">
<ele>162.080200</ele>
<time>2010-07-17T10:29:54Z</time>
<desc>lat.=55.729465, lon.=26.243870, Alt.=162.080200m. Speed=0.396000m/h.</desc>
<speed>0.110000</speed>
</trkpt>
<trkpt lat="55.729465" lon="26.243870">
<ele>162.076294</ele>
<time>2010-07-17T10:29:55Z</time>
<desc>lat.=55.729465, lon.=26.243870, Alt.=162.076294m. Speed=0.468000m/h.</desc>
<speed>0.130000</speed>
</trkpt>
<trkpt lat="55.729465" lon="26.243870">
<ele>162.072388</ele>
<time>2010-07-17T10:29:56Z</time>
<desc>lat.=55.729465, lon.=26.243870, Alt.=162.072388m. Speed=0.468000m/h.</desc>
<speed>0.130000</speed>
</trkpt>
<trkpt lat="55.729469" lon="26.243870">
<ele>162.068481</ele>
<time>2010-07-17T10:29:57Z</time>
<desc>lat.=55.729469, lon.=26.243870, Alt.=162.068481m. Speed=0.540000m/h.</desc>
<speed>0.150000</speed>
</trkpt>
<trkpt lat="55.729469" lon="26.243870">
<ele>162.064575</ele>
<time>2010-07-17T10:29:58Z</time>
<desc>lat.=55.729469, lon.=26.243870, Alt.=162.064575m. Speed=0.576000m/h.</desc>
<speed>0.160000</speed>
</trkpt>
<trkpt lat="55.729473" lon="26.243872">
<ele>162.060669</ele>
<time>2010-07-17T10:29:59Z</time>
<desc>lat.=55.729473, lon.=26.243872, Alt.=162.060669m. Speed=0.576000m/h.</desc>
<speed>0.160000</speed>
</trkpt>
<trkpt lat="55.729473" lon="26.243872">
<ele>162.056763</ele>
<time>2010-07-17T10:30:00Z</time>
<desc>lat.=55.729473, lon.=26.243872, Alt.=162.056763m. Speed=0.540000m/h.</desc>
<speed>0.150000</speed>
</trkpt>
<trkpt lat="55.729473" lon="26.243872">
<ele>162.052856</ele>
<time>2010-07-17T10:30:01Z</time>
<desc>lat.=55.729473, lon.=26.243872, Alt.=162.052856m. Speed=0.576000m/h.</desc>
<speed>0.160000</speed>
</trkpt>
<trkpt lat="55.729477" lon="26.243872">
<ele>162.048950</ele>
<time>2010-07-17T10:30:02Z</time>
<desc>lat.=55.729477, lon.=26.243872, Alt.=162.048950m. Speed=0.576000m/h.</desc>
<speed>0.160000</speed>
</trkpt>
<trkpt lat="55.729477" lon="26.243872">
<ele>162.045044</ele>
<time>2010-07-17T10:30:03Z</time>
<desc>lat.=55.729477, lon.=26.243872, Alt.=162.045044m. Speed=0.576000m/h.</desc>
<speed>0.160000</speed>
</trkpt>
<trkpt lat="55.729481" lon="26.243872">
<ele>162.045044</ele>
<time>2010-07-17T10:30:04Z</time>
<desc>lat.=55.729481, lon.=26.243872, Alt.=162.045044m. Speed=0.648000m/h.</desc>
<speed>0.180000</speed>
</trkpt>
<trkpt lat="55.729481" lon="26.243872">
<ele>162.041138</ele>
<time>2010-07-17T10:30:05Z</time>
<desc>lat.=55.729481, lon.=26.243872, Alt.=162.041138m. Speed=0.684000m/h.</desc>
<speed>0.190000</speed>
</trkpt>
<trkpt lat="55.729485" lon="26.243872">
<ele>162.033325</ele>
<time>2010-07-17T10:30:06Z</time>
<desc>lat.=55.729485, lon.=26.243872, Alt.=162.033325m. Speed=0.684000m/h.</desc>
<speed>0.190000</speed>
</trkpt>
<trkpt lat="55.729485" lon="26.243872">
<ele>162.029419</ele>
<time>2010-07-17T10:30:07Z</time>
<desc>lat.=55.729485, lon.=26.243872, Alt.=162.029419m. Speed=0.432000m/h.</desc>
<speed>0.120000</speed>
</trkpt>
<trkpt lat="55.729485" lon="26.243874">
<ele>162.025513</ele>
<time>2010-07-17T10:30:08Z</time>
<desc>lat.=55.729485, lon.=26.243874, Alt.=162.025513m. Speed=0.432000m/h.</desc>
<speed>0.120000</speed>
</trkpt>
<trkpt lat="55.729485" lon="26.243874">
<ele>162.017700</ele>
<time>2010-07-17T10:30:09Z</time>
<desc>lat.=55.729485, lon.=26.243874, Alt.=162.017700m. Speed=0.324000m/h.</desc>
<speed>0.090000</speed>
</trkpt>
<trkpt lat="55.729488" lon="26.243874">
<ele>162.005981</ele>
<time>2010-07-17T10:30:10Z</time>
<desc>lat.=55.729488, lon.=26.243874, Alt.=162.005981m. Speed=0.216000m/h.</desc>
<speed>0.060000</speed>
</trkpt>
<trkpt lat="55.729488" lon="26.243874">
<ele>161.998169</ele>
<time>2010-07-17T10:30:11Z</time>
<desc>lat.=55.729488, lon.=26.243874, Alt.=161.998169m. Speed=0.180000m/h.</desc>
<speed>0.050000</speed>
</trkpt>
<trkpt lat="55.729488" lon="26.243874">
<ele>161.990356</ele>
<time>2010-07-17T10:30:12Z</time>
<desc>lat.=55.729488, lon.=26.243874, Alt.=161.990356m. Speed=0.180000m/h.</desc>
<speed>0.050000</speed>
</trkpt>
<trkpt lat="55.729488" lon="26.243874">
<ele>161.978638</ele>
<time>2010-07-17T10:30:13Z</time>
<desc>lat.=55.729488, lon.=26.243874, Alt.=161.978638m. Speed=0.144000m/h.</desc>
<speed>0.040000</speed>
</trkpt>
<trkpt lat="55.729488" lon="26.243874">
<ele>161.970825</ele>
<time>2010-07-17T10:30:14Z</time>
<desc>lat.=55.729488, lon.=26.243874, Alt.=161.970825m. Speed=0.108000m/h.</desc>
<speed>0.030000</speed>
</trkpt>
<trkpt lat="55.729488" lon="26.243874">
<ele>161.959106</ele>
<time>2010-07-17T10:30:15Z</time>
<desc>lat.=55.729488, lon.=26.243874, Alt.=161.959106m. Speed=0.108000m/h.</desc>
<speed>0.030000</speed>
</trkpt>
<trkpt lat="55.729488" lon="26.243874">
<ele>161.951294</ele>
<time>2010-07-17T10:30:16Z</time>
<desc>lat.=55.729488, lon.=26.243874, Alt.=161.951294m. Speed=0.036000m/h.</desc>
<speed>0.010000</speed>
</trkpt>
<trkpt lat="55.729488" lon="26.243874">
<ele>161.935669</ele>
<time>2010-07-17T10:30:17Z</time>
<desc>lat.=55.729488, lon.=26.243874, Alt.=161.935669m. Speed=0.072000m/h.</desc>
<speed>0.020000</speed>
</trkpt>
<trkpt lat="55.729488" lon="26.243874">
<ele>161.923950</ele>
<time>2010-07-17T10:30:18Z</time>
<desc>lat.=55.729488, lon.=26.243874, Alt.=161.923950m. Speed=0.072000m/h.</desc>
<speed>0.020000</speed>
</trkpt>
<trkpt lat="55.729488" lon="26.243874">
<ele>161.916138</ele>
<time>2010-07-17T10:30:19Z</time>
<desc>lat.=55.729488, lon.=26.243874, Alt.=161.916138m. Speed=0.072000m/h.</desc>
<speed>0.020000</speed>
</trkpt>
<trkpt lat="55.729488" lon="26.243874">
<ele>161.900513</ele>
<time>2010-07-17T10:30:20Z</time>
<desc>lat.=55.729488, lon.=26.243874, Alt.=161.900513m. Speed=0.144000m/h.</desc>
<speed>0.040000</speed>
</trkpt>
<trkpt lat="55.729488" lon="26.243874">
<ele>161.892700</ele>
<time>2010-07-17T10:30:21Z</time>
<desc>lat.=55.729488, lon.=26.243874, Alt.=161.892700m. Speed=0.144000m/h.</desc>
<speed>0.040000</speed>
</trkpt>
<trkpt lat="55.729488" lon="26.243874">
<ele>161.880981</ele>
<time>2010-07-17T10:30:22Z</time>
<desc>lat.=55.729488, lon.=26.243874, Alt.=161.880981m. Speed=0.216000m/h.</desc>
<speed>0.060000</speed>
</trkpt>
<trkpt lat="55.729488" lon="26.243872">
<ele>161.869263</ele>
<time>2010-07-17T10:30:23Z</time>
<desc>lat.=55.729488, lon.=26.243872, Alt.=161.869263m. Speed=0.216000m/h.</desc>
<speed>0.060000</speed>
</trkpt>
<trkpt lat="55.729488" lon="26.243872">
<ele>161.857544</ele>
<time>2010-07-17T10:30:24Z</time>
<desc>lat.=55.729488, lon.=26.243872, Alt.=161.857544m. Speed=0.216000m/h.</desc>
<speed>0.060000</speed>
</trkpt>
<trkpt lat="55.729485" lon="26.243872">
<ele>161.857544</ele>
<time>2010-07-17T10:30:25Z</time>
<desc>lat.=55.729485, lon.=26.243872, Alt.=161.857544m. Speed=0.108000m/h.</desc>
<speed>0.030000</speed>
</trkpt>
<trkpt lat="55.729485" lon="26.243872">
<ele>161.857544</ele>
<time>2010-07-17T10:30:26Z</time>
<desc>lat.=55.729485, lon.=26.243872, Alt.=161.857544m. Speed=0.072000m/h.</desc>
<speed>0.020000</speed>
</trkpt>
<trkpt lat="55.729485" lon="26.243872">
<ele>161.857544</ele>
<time>2010-07-17T10:30:27Z</time>
<desc>lat.=55.729485, lon.=26.243872, Alt.=161.857544m. Speed=0.000000m/h.</desc>
<speed>0.000000</speed>
</trkpt>
<trkpt lat="55.729485" lon="26.243872">
<ele>161.857544</ele>
<time>2010-07-17T10:30:28Z</time>
<desc>lat.=55.729485, lon.=26.243872, Alt.=161.857544m. Speed=0.000000m/h.</desc>
<speed>0.000000</speed>
</trkpt>
<trkpt lat="55.729485" lon="26.243872">
<ele>161.861450</ele>
<time>2010-07-17T10:30:29Z</time>
<desc>lat.=55.729485, lon.=26.243872, Alt.=161.861450m. Speed=0.072000m/h.</desc>
<speed>0.020000</speed>
</trkpt>
<trkpt lat="55.729488" lon="26.243872">
<ele>161.865356</ele>
<time>2010-07-17T10:30:30Z</time>
<desc>lat.=55.729488, lon.=26.243872, Alt.=161.865356m. Speed=0.072000m/h.</desc>
<speed>0.020000</speed>
</trkpt>
<trkpt lat="55.729488" lon="26.243872">
<ele>161.865356</ele>
<time>2010-07-17T10:30:31Z</time>
<desc>lat.=55.729488, lon.=26.243872, Alt.=161.865356m. Speed=0.108000m/h.</desc>
<speed>0.030000</speed>
</trkpt>
<trkpt lat="55.729488" lon="26.243872">
<ele>161.865356</ele>
<time>2010-07-17T10:30:32Z</time>
<desc>lat.=55.729488, lon.=26.243872, Alt.=161.865356m. Speed=0.144000m/h.</desc>
<speed>0.040000</speed>
</trkpt>
<trkpt lat="55.729488" lon="26.243872">
<ele>161.869263</ele>
<time>2010-07-17T10:30:33Z</time>
<desc>lat.=55.729488, lon.=26.243872, Alt.=161.869263m. Speed=0.036000m/h.</desc>
<speed>0.010000</speed>
</trkpt>
<trkpt lat="55.729488" lon="26.243872">
<ele>161.869263</ele>
<time>2010-07-17T10:30:34Z</time>
<desc>lat.=55.729488, lon.=26.243872, Alt.=161.869263m. Speed=0.036000m/h.</desc>
<speed>0.010000</speed>
</trkpt>
<trkpt lat="55.729488" lon="26.243872">
<ele>161.869263</ele>
<time>2010-07-17T10:30:35Z</time>
<desc>lat.=55.729488, lon.=26.243872, Alt.=161.869263m. Speed=0.000000m/h.</desc>
<speed>0.000000</speed>
</trkpt>
<trkpt lat="55.729488" lon="26.243872">
<ele>161.869263</ele>
<time>2010-07-17T10:30:36Z</time>
<desc>lat.=55.729488, lon.=26.243872, Alt.=161.869263m. Speed=0.000000m/h.</desc>
<speed>0.000000</speed>
</trkpt>
<trkpt lat="55.729488" lon="26.243872">
<ele>161.869263</ele>
<time>2010-07-17T10:30:37Z</time>
<desc>lat.=55.729488, lon.=26.243872, Alt.=161.869263m. Speed=0.000000m/h.</desc>
<speed>0.000000</speed>
</trkpt>
<trkpt lat="55.729488" lon="26.243872">
<ele>161.869263</ele>
<time>2010-07-17T10:30:38Z</time>
<desc>lat.=55.729488, lon.=26.243872, Alt.=161.869263m. Speed=0.000000m/h.</desc>
<speed>0.000000</speed>
</trkpt>
<trkpt lat="55.729488" lon="26.243872">
<ele>161.869263</ele>
<time>2010-07-17T10:30:39Z</time>
<desc>lat.=55.729488, lon.=26.243872, Alt.=161.869263m. Speed=0.036000m/h.</desc>
<speed>0.010000</speed>
</trkpt>
<trkpt lat="55.729488" lon="26.243872">
<ele>161.869263</ele>
<time>2010-07-17T10:30:40Z</time>
<desc>lat.=55.729488, lon.=26.243872, Alt.=161.869263m. Speed=0.036000m/h.</desc>
<speed>0.010000</speed>
</trkpt>
<trkpt lat="55.729488" lon="26.243872">
<ele>161.869263</ele>
<time>2010-07-17T10:30:41Z</time>
<desc>lat.=55.729488, lon.=26.243872, Alt.=161.869263m. Speed=0.000000m/h.</desc>
<speed>0.000000</speed>
</trkpt>
<trkpt lat="55.729488" lon="26.243872">
<ele>161.869263</ele>
<time>2010-07-17T10:30:42Z</time>
<desc>lat.=55.729488, lon.=26.243872, Alt.=161.869263m. Speed=0.036000m/h.</desc>
<speed>0.010000</speed>
</trkpt>
<trkpt lat="55.729488" lon="26.243872">
<ele>161.869263</ele>
<time>2010-07-17T10:30:43Z</time>
<desc>lat.=55.729488, lon.=26.243872, Alt.=161.869263m. Speed=0.036000m/h.</desc>
<speed>0.010000</speed>
</trkpt>
<trkpt lat="55.729488" lon="26.243872">
<ele>161.869263</ele>
<time>2010-07-17T10:30:44Z</time>
<desc>lat.=55.729488, lon.=26.243872, Alt.=161.869263m. Speed=0.036000m/h.</desc>
<speed>0.010000</speed>
</trkpt>
<trkpt lat="55.729488" lon="26.243872">
<ele>161.869263</ele>
<time>2010-07-17T10:30:45Z</time>
<desc>lat.=55.729488, lon.=26.243872, Alt.=161.869263m. Speed=0.036000m/h.</desc>
<speed>0.010000</speed>
</trkpt>
<trkpt lat="55.729488" lon="26.243872">
<ele>161.865356</ele>
<time>2010-07-17T10:30:46Z</time>
<desc>lat.=55.729488, lon.=26.243872, Alt.=161.865356m. Speed=0.036000m/h.</desc>
<speed>0.010000</speed>
</trkpt>
<trkpt lat="55.729488" lon="26.243874">
<ele>161.865356</ele>
<time>2010-07-17T10:30:47Z</time>
<desc>lat.=55.729488, lon.=26.243874, Alt.=161.865356m. Speed=0.036000m/h.</desc>
<speed>0.010000</speed>
</trkpt>
<trkpt lat="55.729488" lon="26.243874">
<ele>161.865356</ele>
<time>2010-07-17T10:30:48Z</time>
<desc>lat.=55.729488, lon.=26.243874, Alt.=161.865356m. Speed=0.072000m/h.</desc>
<speed>0.020000</speed>
</trkpt>
<trkpt lat="55.729488" lon="26.243874">
<ele>161.865356</ele>
<time>2010-07-17T10:30:49Z</time>
<desc>lat.=55.729488, lon.=26.243874, Alt.=161.865356m. Speed=0.036000m/h.</desc>
<speed>0.010000</speed>
</trkpt>
<trkpt lat="55.729488" lon="26.243874">
<ele>161.865356</ele>
<time>2010-07-17T10:30:50Z</time>
<desc>lat.=55.729488, lon.=26.243874, Alt.=161.865356m. Speed=0.072000m/h.</desc>
<speed>0.020000</speed>
</trkpt>
<trkpt lat="55.729488" lon="26.243874">
<ele>161.865356</ele>
<time>2010-07-17T10:30:51Z</time>
<desc>lat.=55.729488, lon.=26.243874, Alt.=161.865356m. Speed=0.036000m/h.</desc>
<speed>0.010000</speed>
</trkpt>
<trkpt lat="55.729488" lon="26.243874">
<ele>161.865356</ele>
<time>2010-07-17T10:30:52Z</time>
<desc>lat.=55.729488, lon.=26.243874, Alt.=161.865356m. Speed=0.036000m/h.</desc>
<speed>0.010000</speed>
</trkpt>
<trkpt lat="55.729488" lon="26.243874">
<ele>161.869263</ele>
<time>2010-07-17T10:30:53Z</time>
<desc>lat.=55.729488, lon.=26.243874, Alt.=161.869263m. Speed=0.108000m/h.</desc>
<speed>0.030000</speed>
</trkpt>
<trkpt lat="55.729488" lon="26.243874">
<ele>161.869263</ele>
<time>2010-07-17T10:30:54Z</time>
<desc>lat.=55.729488, lon.=26.243874, Alt.=161.869263m. Speed=0.000000m/h.</desc>
<speed>0.000000</speed>
</trkpt>
<trkpt lat="55.729488" lon="26.243874">
<ele>161.873169</ele>
<time>2010-07-17T10:30:55Z</time>
<desc>lat.=55.729488, lon.=26.243874, Alt.=161.873169m. Speed=0.000000m/h.</desc>
<speed>0.000000</speed>
</trkpt>
<trkpt lat="55.729488" lon="26.243874">
<ele>161.873169</ele>
<time>2010-07-17T10:30:56Z</time>
<desc>lat.=55.729488, lon.=26.243874, Alt.=161.873169m. Speed=0.072000m/h.</desc>
<speed>0.020000</speed>
</trkpt>
<trkpt lat="55.729488" lon="26.243876">
<ele>161.880981</ele>
<time>2010-07-17T10:30:57Z</time>
<desc>lat.=55.729488, lon.=26.243876, Alt.=161.880981m. Speed=0.072000m/h.</desc>
<speed>0.020000</speed>
</trkpt>
<trkpt lat="55.729488" lon="26.243876">
<ele>161.888794</ele>
<time>2010-07-17T10:30:58Z</time>
<desc>lat.=55.729488, lon.=26.243876, Alt.=161.888794m. Speed=0.144000m/h.</desc>
<speed>0.040000</speed>
</trkpt>
<trkpt lat="55.729488" lon="26.243876">
<ele>161.892700</ele>
<time>2010-07-17T10:30:59Z</time>
<desc>lat.=55.729488, lon.=26.243876, Alt.=161.892700m. Speed=0.180000m/h.</desc>
<speed>0.050000</speed>
</trkpt>
<trkpt lat="55.729485" lon="26.243876">
<ele>161.900513</ele>
<time>2010-07-17T10:31:00Z</time>
<desc>lat.=55.729485, lon.=26.243876, Alt.=161.900513m. Speed=0.180000m/h.</desc>
<speed>0.050000</speed>
</trkpt>
<trkpt lat="55.729485" lon="26.243876">
<ele>161.912231</ele>
<time>2010-07-17T10:31:01Z</time>
<desc>lat.=55.729485, lon.=26.243876, Alt.=161.912231m. Speed=0.180000m/h.</desc>
<speed>0.050000</speed>
</trkpt>
<trkpt lat="55.729485" lon="26.243876">
<ele>161.923950</ele>
<time>2010-07-17T10:31:02Z</time>
<desc>lat.=55.729485, lon.=26.243876, Alt.=161.923950m. Speed=0.216000m/h.</desc>
<speed>0.060000</speed>
</trkpt>
<trkpt lat="55.729485" lon="26.243876">
<ele>161.935669</ele>
<time>2010-07-17T10:31:03Z</time>
<desc>lat.=55.729485, lon.=26.243876, Alt.=161.935669m. Speed=0.036000m/h.</desc>
<speed>0.010000</speed>
</trkpt>
<trkpt lat="55.729485" lon="26.243876">
<ele>161.939575</ele>
<time>2010-07-17T10:31:04Z</time>
<desc>lat.=55.729485, lon.=26.243876, Alt.=161.939575m. Speed=0.072000m/h.</desc>
<speed>0.020000</speed>
</trkpt>
<trkpt lat="55.729485" lon="26.243876">
<ele>161.943481</ele>
<time>2010-07-17T10:31:05Z</time>
<desc>lat.=55.729485, lon.=26.243876, Alt.=161.943481m. Speed=0.108000m/h.</desc>
<speed>0.030000</speed>
</trkpt>
<trkpt lat="55.729485" lon="26.243876">
<ele>161.947388</ele>
<time>2010-07-17T10:31:06Z</time>
<desc>lat.=55.729485, lon.=26.243876, Alt.=161.947388m. Speed=0.144000m/h.</desc>
<speed>0.040000</speed>
</trkpt>
<trkpt lat="55.729485" lon="26.243876">
<ele>161.951294</ele>
<time>2010-07-17T10:31:07Z</time>
<desc>lat.=55.729485, lon.=26.243876, Alt.=161.951294m. Speed=0.180000m/h.</desc>
<speed>0.050000</speed>
</trkpt>
<trkpt lat="55.729485" lon="26.243876">
<ele>161.959106</ele>
<time>2010-07-17T10:31:08Z</time>
<desc>lat.=55.729485, lon.=26.243876, Alt.=161.959106m. Speed=0.144000m/h.</desc>
<speed>0.040000</speed>
</trkpt>
<trkpt lat="55.729485" lon="26.243876">
<ele>161.966919</ele>
<time>2010-07-17T10:31:09Z</time>
<desc>lat.=55.729485, lon.=26.243876, Alt.=161.966919m. Speed=0.144000m/h.</desc>
<speed>0.040000</speed>
</trkpt>
<trkpt lat="55.729485" lon="26.243876">
<ele>161.970825</ele>
<time>2010-07-17T10:31:10Z</time>
<desc>lat.=55.729485, lon.=26.243876, Alt.=161.970825m. Speed=0.072000m/h.</desc>
<speed>0.020000</speed>
</trkpt>
<trkpt lat="55.729485" lon="26.243876">
<ele>161.974731</ele>
<time>2010-07-17T10:31:11Z</time>
<desc>lat.=55.729485, lon.=26.243876, Alt.=161.974731m. Speed=0.000000m/h.</desc>
<speed>0.000000</speed>
</trkpt>
<trkpt lat="55.729485" lon="26.243876">
<ele>161.974731</ele>
<time>2010-07-17T10:31:12Z</time>
<desc>lat.=55.729485, lon.=26.243876, Alt.=161.974731m. Speed=0.036000m/h.</desc>
<speed>0.010000</speed>
</trkpt>
<trkpt lat="55.729485" lon="26.243876">
<ele>161.978638</ele>
<time>2010-07-17T10:31:13Z</time>
<desc>lat.=55.729485, lon.=26.243876, Alt.=161.978638m. Speed=0.072000m/h.</desc>
<speed>0.020000</speed>
</trkpt>
<trkpt lat="55.729485" lon="26.243876">
<ele>161.982544</ele>
<time>2010-07-17T10:31:14Z</time>
<desc>lat.=55.729485, lon.=26.243876, Alt.=161.982544m. Speed=0.036000m/h.</desc>
<speed>0.010000</speed>
</trkpt>
<trkpt lat="55.729485" lon="26.243876">
<ele>161.986450</ele>
<time>2010-07-17T10:31:15Z</time>
<desc>lat.=55.729485, lon.=26.243876, Alt.=161.986450m. Speed=0.000000m/h.</desc>
<speed>0.000000</speed>
</trkpt>
<trkpt lat="55.729485" lon="26.243876">
<ele>161.990356</ele>
<time>2010-07-17T10:31:16Z</time>
<desc>lat.=55.729485, lon.=26.243876, Alt.=161.990356m. Speed=0.036000m/h.</desc>
<speed>0.010000</speed>
</trkpt>
<trkpt lat="55.729485" lon="26.243876">
<ele>161.994263</ele>
<time>2010-07-17T10:31:17Z</time>
<desc>lat.=55.729485, lon.=26.243876, Alt.=161.994263m. Speed=0.108000m/h.</desc>
<speed>0.030000</speed>
</trkpt>
<trkpt lat="55.729485" lon="26.243876">
<ele>161.998169</ele>
<time>2010-07-17T10:31:18Z</time>
<desc>lat.=55.729485, lon.=26.243876, Alt.=161.998169m. Speed=0.036000m/h.</desc>
<speed>0.010000</speed>
</trkpt>
<trkpt lat="55.729485" lon="26.243876">
<ele>162.005981</ele>
<time>2010-07-17T10:31:19Z</time>
<desc>lat.=55.729485, lon.=26.243876, Alt.=162.005981m. Speed=0.144000m/h.</desc>
<speed>0.040000</speed>
</trkpt>
<trkpt lat="55.729485" lon="26.243877">
<ele>162.013794</ele>
<time>2010-07-17T10:31:20Z</time>
<desc>lat.=55.729485, lon.=26.243877, Alt.=162.013794m. Speed=0.216000m/h.</desc>
<speed>0.060000</speed>
</trkpt>
<trkpt lat="55.729481" lon="26.243877">
<ele>162.021606</ele>
<time>2010-07-17T10:31:21Z</time>
<desc>lat.=55.729481, lon.=26.243877, Alt.=162.021606m. Speed=0.288000m/h.</desc>
<speed>0.080000</speed>
</trkpt>
<trkpt lat="55.729481" lon="26.243877">
<ele>162.029419</ele>
<time>2010-07-17T10:31:22Z</time>
<desc>lat.=55.729481, lon.=26.243877, Alt.=162.029419m. Speed=0.360000m/h.</desc>
<speed>0.100000</speed>
</trkpt>
<trkpt lat="55.729481" lon="26.243877">
<ele>162.041138</ele>
<time>2010-07-17T10:31:23Z</time>
<desc>lat.=55.729481, lon.=26.243877, Alt.=162.041138m. Speed=0.432000m/h.</desc>
<speed>0.120000</speed>
</trkpt>
<trkpt lat="55.729481" lon="26.243876">
<ele>162.056763</ele>
<time>2010-07-17T10:31:24Z</time>
<desc>lat.=55.729481, lon.=26.243876, Alt.=162.056763m. Speed=0.432000m/h.</desc>
<speed>0.120000</speed>
</trkpt>
<trkpt lat="55.729477" lon="26.243876">
<ele>162.068481</ele>
<time>2010-07-17T10:31:25Z</time>
<desc>lat.=55.729477, lon.=26.243876, Alt.=162.068481m. Speed=0.504000m/h.</desc>
<speed>0.140000</speed>
</trkpt>
<trkpt lat="55.729477" lon="26.243876">
<ele>162.084106</ele>
<time>2010-07-17T10:31:26Z</time>
<desc>lat.=55.729477, lon.=26.243876, Alt.=162.084106m. Speed=0.504000m/h.</desc>
<speed>0.140000</speed>
</trkpt>
<trkpt lat="55.729477" lon="26.243876">
<ele>162.099731</ele>
<time>2010-07-17T10:31:27Z</time>
<desc>lat.=55.729477, lon.=26.243876, Alt.=162.099731m. Speed=0.468000m/h.</desc>
<speed>0.130000</speed>
</trkpt>
<trkpt lat="55.729473" lon="26.243876">
<ele>162.119263</ele>
<time>2010-07-17T10:31:28Z</time>
<desc>lat.=55.729473, lon.=26.243876, Alt.=162.119263m. Speed=0.468000m/h.</desc>
<speed>0.130000</speed>
</trkpt>
<trkpt lat="55.729473" lon="26.243876">
<ele>162.142700</ele>
<time>2010-07-17T10:31:29Z</time>
<desc>lat.=55.729473, lon.=26.243876, Alt.=162.142700m. Speed=0.504000m/h.</desc>
<speed>0.140000</speed>
</trkpt>
<trkpt lat="55.729473" lon="26.243876">
<ele>162.170044</ele>
<time>2010-07-17T10:31:30Z</time>
<desc>lat.=55.729473, lon.=26.243876, Alt.=162.170044m. Speed=0.540000m/h.</desc>
<speed>0.150000</speed>
</trkpt>
<trkpt lat="55.729469" lon="26.243876">
<ele>162.201294</ele>
<time>2010-07-17T10:31:31Z</time>
<desc>lat.=55.729469, lon.=26.243876, Alt.=162.201294m. Speed=0.540000m/h.</desc>
<speed>0.150000</speed>
</trkpt>
<trkpt lat="55.729469" lon="26.243876">
<ele>162.232544</ele>
<time>2010-07-17T10:31:32Z</time>
<desc>lat.=55.729469, lon.=26.243876, Alt.=162.232544m. Speed=0.576000m/h.</desc>
<speed>0.160000</speed>
</trkpt>
<trkpt lat="55.729465" lon="26.243876">
<ele>162.267700</ele>
<time>2010-07-17T10:31:33Z</time>
<desc>lat.=55.729465, lon.=26.243876, Alt.=162.267700m. Speed=0.648000m/h.</desc>
<speed>0.180000</speed>
</trkpt>
<trkpt lat="55.729465" lon="26.243876">
<ele>162.306763</ele>
<time>2010-07-17T10:31:34Z</time>
<desc>lat.=55.729465, lon.=26.243876, Alt.=162.306763m. Speed=0.720000m/h.</desc>
<speed>0.200000</speed>
</trkpt>
<trkpt lat="55.729462" lon="26.243876">
<ele>162.345825</ele>
<time>2010-07-17T10:31:35Z</time>
<desc>lat.=55.729462, lon.=26.243876, Alt.=162.345825m. Speed=0.828000m/h.</desc>
<speed>0.230000</speed>
</trkpt>
<trkpt lat="55.729462" lon="26.243876">
<ele>162.384888</ele>
<time>2010-07-17T10:31:36Z</time>
<desc>lat.=55.729462, lon.=26.243876, Alt.=162.384888m. Speed=0.828000m/h.</desc>
<speed>0.230000</speed>
</trkpt>
<trkpt lat="55.729458" lon="26.243876">
<ele>162.423950</ele>
<time>2010-07-17T10:31:37Z</time>
<desc>lat.=55.729458, lon.=26.243876, Alt.=162.423950m. Speed=0.864000m/h.</desc>
<speed>0.240000</speed>
</trkpt>
<trkpt lat="55.729458" lon="26.243876">
<ele>162.466919</ele>
<time>2010-07-17T10:31:38Z</time>
<desc>lat.=55.729458, lon.=26.243876, Alt.=162.466919m. Speed=0.864000m/h.</desc>
<speed>0.240000</speed>
</trkpt>
<trkpt lat="55.729454" lon="26.243876">
<ele>162.509888</ele>
<time>2010-07-17T10:31:39Z</time>
<desc>lat.=55.729454, lon.=26.243876, Alt.=162.509888m. Speed=1.008000m/h.</desc>
<speed>0.280000</speed>
</trkpt>
<trkpt lat="55.729450" lon="26.243876">
<ele>162.548950</ele>
<time>2010-07-17T10:31:40Z</time>
<desc>lat.=55.729450, lon.=26.243876, Alt.=162.548950m. Speed=1.008000m/h.</desc>
<speed>0.280000</speed>
</trkpt>
<trkpt lat="55.729450" lon="26.243876">
<ele>162.591919</ele>
<time>2010-07-17T10:31:41Z</time>
<desc>lat.=55.729450, lon.=26.243876, Alt.=162.591919m. Speed=1.080000m/h.</desc>
<speed>0.300000</speed>
</trkpt>
<trkpt lat="55.729439" lon="26.243881">
<ele>163.177856</ele>
<time>2010-07-17T10:31:42Z</time>
<desc>lat.=55.729439, lon.=26.243881, Alt.=163.177856m. Speed=1.152000m/h.</desc>
<speed>0.320000</speed>
</trkpt>
<trkpt lat="55.729431" lon="26.243883">
<ele>163.459106</ele>
<time>2010-07-17T10:31:43Z</time>
<desc>lat.=55.729431, lon.=26.243883, Alt.=163.459106m. Speed=1.152000m/h.</desc>
<speed>0.320000</speed>
</trkpt>
<trkpt lat="55.729427" lon="26.243883">
<ele>163.732544</ele>
<time>2010-07-17T10:31:44Z</time>
<desc>lat.=55.729427, lon.=26.243883, Alt.=163.732544m. Speed=1.044000m/h.</desc>
<speed>0.290000</speed>
</trkpt>
<trkpt lat="55.729416" lon="26.243887">
<ele>164.189575</ele>
<time>2010-07-17T10:31:45Z</time>
<desc>lat.=55.729416, lon.=26.243887, Alt.=164.189575m. Speed=1.080000m/h.</desc>
<speed>0.300000</speed>
</trkpt>
<trkpt lat="55.729408" lon="26.243889">
<ele>164.666138</ele>
<time>2010-07-17T10:31:46Z</time>
<desc>lat.=55.729408, lon.=26.243889, Alt.=164.666138m. Speed=1.080000m/h.</desc>
<speed>0.300000</speed>
</trkpt>
<trkpt lat="55.729404" lon="26.243893">
<ele>165.123169</ele>
<time>2010-07-17T10:31:47Z</time>
<desc>lat.=55.729404, lon.=26.243893, Alt.=165.123169m. Speed=0.828000m/h.</desc>
<speed>0.230000</speed>
</trkpt>
<trkpt lat="55.729397" lon="26.243893">
<ele>165.591919</ele>
<time>2010-07-17T10:31:48Z</time>
<desc>lat.=55.729397, lon.=26.243893, Alt.=165.591919m. Speed=0.900000m/h.</desc>
<speed>0.250000</speed>
</trkpt>
<trkpt lat="55.729393" lon="26.243895">
<ele>165.857544</ele>
<time>2010-07-17T10:31:49Z</time>
<desc>lat.=55.729393, lon.=26.243895, Alt.=165.857544m. Speed=0.900000m/h.</desc>
<speed>0.250000</speed>
</trkpt>
<trkpt lat="55.729389" lon="26.243895">
<ele>166.205200</ele>
<time>2010-07-17T10:31:50Z</time>
<desc>lat.=55.729389, lon.=26.243895, Alt.=166.205200m. Speed=0.864000m/h.</desc>
<speed>0.240000</speed>
</trkpt>
<trkpt lat="55.729385" lon="26.243895">
<ele>166.267700</ele>
<time>2010-07-17T10:31:51Z</time>
<desc>lat.=55.729385, lon.=26.243895, Alt.=166.267700m. Speed=0.828000m/h.</desc>
<speed>0.230000</speed>
</trkpt>
<trkpt lat="55.729385" lon="26.243895">
<ele>166.326294</ele>
<time>2010-07-17T10:31:52Z</time>
<desc>lat.=55.729385, lon.=26.243895, Alt.=166.326294m. Speed=0.756000m/h.</desc>
<speed>0.210000</speed>
</trkpt>
<trkpt lat="55.729382" lon="26.243895">
<ele>166.388794</ele>
<time>2010-07-17T10:31:53Z</time>
<desc>lat.=55.729382, lon.=26.243895, Alt.=166.388794m. Speed=0.756000m/h.</desc>
<speed>0.210000</speed>
</trkpt>
<trkpt lat="55.729382" lon="26.243895">
<ele>166.451294</ele>
<time>2010-07-17T10:31:54Z</time>
<desc>lat.=55.729382, lon.=26.243895, Alt.=166.451294m. Speed=0.756000m/h.</desc>
<speed>0.210000</speed>
</trkpt>
<trkpt lat="55.729378" lon="26.243895">
<ele>166.517700</ele>
<time>2010-07-17T10:31:55Z</time>
<desc>lat.=55.729378, lon.=26.243895, Alt.=166.517700m. Speed=0.612000m/h.</desc>
<speed>0.170000</speed>
</trkpt>
<trkpt lat="55.729378" lon="26.243895">
<ele>166.588013</ele>
<time>2010-07-17T10:31:56Z</time>
<desc>lat.=55.729378, lon.=26.243895, Alt.=166.588013m. Speed=0.612000m/h.</desc>
<speed>0.170000</speed>
</trkpt>
<trkpt lat="55.729374" lon="26.243895">
<ele>166.658325</ele>
<time>2010-07-17T10:31:57Z</time>
<desc>lat.=55.729374, lon.=26.243895, Alt.=166.658325m. Speed=0.540000m/h.</desc>
<speed>0.150000</speed>
</trkpt>
<trkpt lat="55.729374" lon="26.243896">
<ele>166.732544</ele>
<time>2010-07-17T10:31:58Z</time>
<desc>lat.=55.729374, lon.=26.243896, Alt.=166.732544m. Speed=0.432000m/h.</desc>
<speed>0.120000</speed>
</trkpt>
<trkpt lat="55.729374" lon="26.243896">
<ele>166.806763</ele>
<time>2010-07-17T10:31:59Z</time>
<desc>lat.=55.729374, lon.=26.243896, Alt.=166.806763m. Speed=0.360000m/h.</desc>
<speed>0.100000</speed>
</trkpt>
<trkpt lat="55.729370" lon="26.243896">
<ele>166.880981</ele>
<time>2010-07-17T10:32:00Z</time>
<desc>lat.=55.729370, lon.=26.243896, Alt.=166.880981m. Speed=0.216000m/h.</desc>
<speed>0.060000</speed>
</trkpt>
<trkpt lat="55.729370" lon="26.243896">
<ele>166.963013</ele>
<time>2010-07-17T10:32:01Z</time>
<desc>lat.=55.729370, lon.=26.243896, Alt.=166.963013m. Speed=0.180000m/h.</desc>
<speed>0.050000</speed>
</trkpt>
<trkpt lat="55.729370" lon="26.243898">
<ele>167.037231</ele>
<time>2010-07-17T10:32:02Z</time>
<desc>lat.=55.729370, lon.=26.243898, Alt.=167.037231m. Speed=0.216000m/h.</desc>
<speed>0.060000</speed>
</trkpt>
<trkpt lat="55.729370" lon="26.243898">
<ele>167.115356</ele>
<time>2010-07-17T10:32:03Z</time>
<desc>lat.=55.729370, lon.=26.243898, Alt.=167.115356m. Speed=0.180000m/h.</desc>
<speed>0.050000</speed>
</trkpt>
<trkpt lat="55.729370" lon="26.243900">
<ele>167.193481</ele>
<time>2010-07-17T10:32:04Z</time>
<desc>lat.=55.729370, lon.=26.243900, Alt.=167.193481m. Speed=0.180000m/h.</desc>
<speed>0.050000</speed>
</trkpt>
<trkpt lat="55.729370" lon="26.243900">
<ele>167.271606</ele>
<time>2010-07-17T10:32:05Z</time>
<desc>lat.=55.729370, lon.=26.243900, Alt.=167.271606m. Speed=0.288000m/h.</desc>
<speed>0.080000</speed>
</trkpt>
<trkpt lat="55.729370" lon="26.243900">
<ele>167.349731</ele>
<time>2010-07-17T10:32:06Z</time>
<desc>lat.=55.729370, lon.=26.243900, Alt.=167.349731m. Speed=0.144000m/h.</desc>
<speed>0.040000</speed>
</trkpt>
<trkpt lat="55.729370" lon="26.243902">
<ele>167.427856</ele>
<time>2010-07-17T10:32:07Z</time>
<desc>lat.=55.729370, lon.=26.243902, Alt.=167.427856m. Speed=0.216000m/h.</desc>
<speed>0.060000</speed>
</trkpt>
<trkpt lat="55.729370" lon="26.243902">
<ele>167.502075</ele>
<time>2010-07-17T10:32:08Z</time>
<desc>lat.=55.729370, lon.=26.243902, Alt.=167.502075m. Speed=0.180000m/h.</desc>
<speed>0.050000</speed>
</trkpt>
<trkpt lat="55.729370" lon="26.243904">
<ele>167.580200</ele>
<time>2010-07-17T10:32:09Z</time>
<desc>lat.=55.729370, lon.=26.243904, Alt.=167.580200m. Speed=0.216000m/h.</desc>
<speed>0.060000</speed>
</trkpt>
<trkpt lat="55.729370" lon="26.243904">
<ele>167.662231</ele>
<time>2010-07-17T10:32:10Z</time>
<desc>lat.=55.729370, lon.=26.243904, Alt.=167.662231m. Speed=0.252000m/h.</desc>
<speed>0.070000</speed>
</trkpt>
<trkpt lat="55.729370" lon="26.243906">
<ele>167.748169</ele>
<time>2010-07-17T10:32:11Z</time>
<desc>lat.=55.729370, lon.=26.243906, Alt.=167.748169m. Speed=0.180000m/h.</desc>
<speed>0.050000</speed>
</trkpt>
<trkpt lat="55.729370" lon="26.243906">
<ele>167.834106</ele>
<time>2010-07-17T10:32:12Z</time>
<desc>lat.=55.729370, lon.=26.243906, Alt.=167.834106m. Speed=0.144000m/h.</desc>
<speed>0.040000</speed>
</trkpt>
<trkpt lat="55.729366" lon="26.243906">
<ele>167.920044</ele>
<time>2010-07-17T10:32:13Z</time>
<desc>lat.=55.729366, lon.=26.243906, Alt.=167.920044m. Speed=0.216000m/h.</desc>
<speed>0.060000</speed>
</trkpt>
<trkpt lat="55.729366" lon="26.243908">
<ele>168.005981</ele>
<time>2010-07-17T10:32:14Z</time>
<desc>lat.=55.729366, lon.=26.243908, Alt.=168.005981m. Speed=0.180000m/h.</desc>
<speed>0.050000</speed>
</trkpt>
<trkpt lat="55.729366" lon="26.243908">
<ele>168.099731</ele>
<time>2010-07-17T10:32:15Z</time>
<desc>lat.=55.729366, lon.=26.243908, Alt.=168.099731m. Speed=0.252000m/h.</desc>
<speed>0.070000</speed>
</trkpt>
<trkpt lat="55.729366" lon="26.243910">
<ele>168.197388</ele>
<time>2010-07-17T10:32:16Z</time>
<desc>lat.=55.729366, lon.=26.243910, Alt.=168.197388m. Speed=0.180000m/h.</desc>
<speed>0.050000</speed>
</trkpt>
<trkpt lat="55.729366" lon="26.243910">
<ele>168.291138</ele>
<time>2010-07-17T10:32:17Z</time>
<desc>lat.=55.729366, lon.=26.243910, Alt.=168.291138m. Speed=0.216000m/h.</desc>
<speed>0.060000</speed>
</trkpt>
<trkpt lat="55.729366" lon="26.243912">
<ele>168.388794</ele>
<time>2010-07-17T10:32:18Z</time>
<desc>lat.=55.729366, lon.=26.243912, Alt.=168.388794m. Speed=0.216000m/h.</desc>
<speed>0.060000</speed>
</trkpt>
<trkpt lat="55.729366" lon="26.243912">
<ele>168.490356</ele>
<time>2010-07-17T10:32:19Z</time>
<desc>lat.=55.729366, lon.=26.243912, Alt.=168.490356m. Speed=0.180000m/h.</desc>
<speed>0.050000</speed>
</trkpt>
<trkpt lat="55.729366" lon="26.243914">
<ele>168.591919</ele>
<time>2010-07-17T10:32:20Z</time>
<desc>lat.=55.729366, lon.=26.243914, Alt.=168.591919m. Speed=0.216000m/h.</desc>
<speed>0.060000</speed>
</trkpt>
<trkpt lat="55.729366" lon="26.243914">
<ele>168.689575</ele>
<time>2010-07-17T10:32:21Z</time>
<desc>lat.=55.729366, lon.=26.243914, Alt.=168.689575m. Speed=0.216000m/h.</desc>
<speed>0.060000</speed>
</trkpt>
<trkpt lat="55.729366" lon="26.243916">
<ele>168.791138</ele>
<time>2010-07-17T10:32:22Z</time>
<desc>lat.=55.729366, lon.=26.243916, Alt.=168.791138m. Speed=0.288000m/h.</desc>
<speed>0.080000</speed>
</trkpt>
<trkpt lat="55.729366" lon="26.243916">
<ele>168.892700</ele>
<time>2010-07-17T10:32:23Z</time>
<desc>lat.=55.729366, lon.=26.243916, Alt.=168.892700m. Speed=0.252000m/h.</desc>
<speed>0.070000</speed>
</trkpt>
<trkpt lat="55.729362" lon="26.243917">
<ele>168.998169</ele>
<time>2010-07-17T10:32:24Z</time>
<desc>lat.=55.729362, lon.=26.243917, Alt.=168.998169m. Speed=0.252000m/h.</desc>
<speed>0.070000</speed>
</trkpt>
<trkpt lat="55.729362" lon="26.243917">
<ele>169.099731</ele>
<time>2010-07-17T10:32:25Z</time>
<desc>lat.=55.729362, lon.=26.243917, Alt.=169.099731m. Speed=0.252000m/h.</desc>
<speed>0.070000</speed>
</trkpt>
<trkpt lat="55.729362" lon="26.243919">
<ele>169.205200</ele>
<time>2010-07-17T10:32:26Z</time>
<desc>lat.=55.729362, lon.=26.243919, Alt.=169.205200m. Speed=0.252000m/h.</desc>
<speed>0.070000</speed>
</trkpt>
<trkpt lat="55.729362" lon="26.243919">
<ele>169.306763</ele>
<time>2010-07-17T10:32:27Z</time>
<desc>lat.=55.729362, lon.=26.243919, Alt.=169.306763m. Speed=0.252000m/h.</desc>
<speed>0.070000</speed>
</trkpt>
<trkpt lat="55.729362" lon="26.243921">
<ele>169.416138</ele>
<time>2010-07-17T10:32:28Z</time>
<desc>lat.=55.729362, lon.=26.243921, Alt.=169.416138m. Speed=0.252000m/h.</desc>
<speed>0.070000</speed>
</trkpt>
<trkpt lat="55.729362" lon="26.243923">
<ele>169.509888</ele>
<time>2010-07-17T10:32:29Z</time>
<desc>lat.=55.729362, lon.=26.243923, Alt.=169.509888m. Speed=0.252000m/h.</desc>
<speed>0.070000</speed>
</trkpt>
<trkpt lat="55.729362" lon="26.243923">
<ele>169.619263</ele>
<time>2010-07-17T10:32:30Z</time>
<desc>lat.=55.729362, lon.=26.243923, Alt.=169.619263m. Speed=0.288000m/h.</desc>
<speed>0.080000</speed>
</trkpt>
<trkpt lat="55.729362" lon="26.243925">
<ele>169.716919</ele>
<time>2010-07-17T10:32:31Z</time>
<desc>lat.=55.729362, lon.=26.243925, Alt.=169.716919m. Speed=0.252000m/h.</desc>
<speed>0.070000</speed>
</trkpt>
<trkpt lat="55.729362" lon="26.243925">
<ele>169.818481</ele>
<time>2010-07-17T10:32:32Z</time>
<desc>lat.=55.729362, lon.=26.243925, Alt.=169.818481m. Speed=0.252000m/h.</desc>
<speed>0.070000</speed>
</trkpt>
<trkpt lat="55.729362" lon="26.243927">
<ele>169.912231</ele>
<time>2010-07-17T10:32:33Z</time>
<desc>lat.=55.729362, lon.=26.243927, Alt.=169.912231m. Speed=0.216000m/h.</desc>
<speed>0.060000</speed>
</trkpt>
<trkpt lat="55.729362" lon="26.243927">
<ele>170.021606</ele>
<time>2010-07-17T10:32:34Z</time>
<desc>lat.=55.729362, lon.=26.243927, Alt.=170.021606m. Speed=0.144000m/h.</desc>
<speed>0.040000</speed>
</trkpt>
<trkpt lat="55.729359" lon="26.243929">
<ele>170.111450</ele>
<time>2010-07-17T10:32:35Z</time>
<desc>lat.=55.729359, lon.=26.243929, Alt.=170.111450m. Speed=0.216000m/h.</desc>
<speed>0.060000</speed>
</trkpt>
<trkpt lat="55.729359" lon="26.243929">
<ele>170.220825</ele>
<time>2010-07-17T10:32:36Z</time>
<desc>lat.=55.729359, lon.=26.243929, Alt.=170.220825m. Speed=0.252000m/h.</desc>
<speed>0.070000</speed>
</trkpt>
<trkpt lat="55.729359" lon="26.243931">
<ele>170.322388</ele>
<time>2010-07-17T10:32:37Z</time>
<desc>lat.=55.729359, lon.=26.243931, Alt.=170.322388m. Speed=0.252000m/h.</desc>
<speed>0.070000</speed>
</trkpt>
<trkpt lat="55.729359" lon="26.243933">
<ele>170.427856</ele>
<time>2010-07-17T10:32:38Z</time>
<desc>lat.=55.729359, lon.=26.243933, Alt.=170.427856m. Speed=0.216000m/h.</desc>
<speed>0.060000</speed>
</trkpt>
<trkpt lat="55.729359" lon="26.243933">
<ele>170.529419</ele>
<time>2010-07-17T10:32:39Z</time>
<desc>lat.=55.729359, lon.=26.243933, Alt.=170.529419m. Speed=0.252000m/h.</desc>
<speed>0.070000</speed>
</trkpt>
<trkpt lat="55.729359" lon="26.243935">
<ele>170.638794</ele>
<time>2010-07-17T10:32:40Z</time>
<desc>lat.=55.729359, lon.=26.243935, Alt.=170.638794m. Speed=0.216000m/h.</desc>
<speed>0.060000</speed>
</trkpt>
<trkpt lat="55.729359" lon="26.243935">
<ele>170.740356</ele>
<time>2010-07-17T10:32:41Z</time>
<desc>lat.=55.729359, lon.=26.243935, Alt.=170.740356m. Speed=0.252000m/h.</desc>
<speed>0.070000</speed>
</trkpt>
<trkpt lat="55.729359" lon="26.243937">
<ele>170.849731</ele>
<time>2010-07-17T10:32:42Z</time>
<desc>lat.=55.729359, lon.=26.243937, Alt.=170.849731m. Speed=0.216000m/h.</desc>
<speed>0.060000</speed>
</trkpt>
<trkpt lat="55.729359" lon="26.243937">
<ele>170.955200</ele>
<time>2010-07-17T10:32:43Z</time>
<desc>lat.=55.729359, lon.=26.243937, Alt.=170.955200m. Speed=0.252000m/h.</desc>
<speed>0.070000</speed>
</trkpt>
<trkpt lat="55.729359" lon="26.243938">
<ele>171.064575</ele>
<time>2010-07-17T10:32:44Z</time>
<desc>lat.=55.729359, lon.=26.243938, Alt.=171.064575m. Speed=0.288000m/h.</desc>
<speed>0.080000</speed>
</trkpt>
<trkpt lat="55.729359" lon="26.243940">
<ele>171.173950</ele>
<time>2010-07-17T10:32:45Z</time>
<desc>lat.=55.729359, lon.=26.243940, Alt.=171.173950m. Speed=0.252000m/h.</desc>
<speed>0.070000</speed>
</trkpt>
<trkpt lat="55.729359" lon="26.243940">
<ele>171.283325</ele>
<time>2010-07-17T10:32:46Z</time>
<desc>lat.=55.729359, lon.=26.243940, Alt.=171.283325m. Speed=0.288000m/h.</desc>
<speed>0.080000</speed>
</trkpt>
<trkpt lat="55.729355" lon="26.243942">
<ele>171.388794</ele>
<time>2010-07-17T10:32:47Z</time>
<desc>lat.=55.729355, lon.=26.243942, Alt.=171.388794m. Speed=0.288000m/h.</desc>
<speed>0.080000</speed>
</trkpt>
<trkpt lat="55.729355" lon="26.243944">
<ele>171.490356</ele>
<time>2010-07-17T10:32:48Z</time>
<desc>lat.=55.729355, lon.=26.243944, Alt.=171.490356m. Speed=0.252000m/h.</desc>
<speed>0.070000</speed>
</trkpt>
<trkpt lat="55.729355" lon="26.243944">
<ele>171.591919</ele>
<time>2010-07-17T10:32:49Z</time>
<desc>lat.=55.729355, lon.=26.243944, Alt.=171.591919m. Speed=0.216000m/h.</desc>
<speed>0.060000</speed>
</trkpt>
<trkpt lat="55.729355" lon="26.243946">
<ele>171.685669</ele>
<time>2010-07-17T10:32:50Z</time>
<desc>lat.=55.729355, lon.=26.243946, Alt.=171.685669m. Speed=0.252000m/h.</desc>
<speed>0.070000</speed>
</trkpt>
<trkpt lat="55.729355" lon="26.243946">
<ele>171.779419</ele>
<time>2010-07-17T10:32:51Z</time>
<desc>lat.=55.729355, lon.=26.243946, Alt.=171.779419m. Speed=0.252000m/h.</desc>
<speed>0.070000</speed>
</trkpt>
<trkpt lat="55.729355" lon="26.243948">
<ele>171.877075</ele>
<time>2010-07-17T10:32:52Z</time>
<desc>lat.=55.729355, lon.=26.243948, Alt.=171.877075m. Speed=0.288000m/h.</desc>
<speed>0.080000</speed>
</trkpt>
<trkpt lat="55.729355" lon="26.243948">
<ele>171.966919</ele>
<time>2010-07-17T10:32:53Z</time>
<desc>lat.=55.729355, lon.=26.243948, Alt.=171.966919m. Speed=0.108000m/h.</desc>
<speed>0.030000</speed>
</trkpt>
<trkpt lat="55.729355" lon="26.243948">
<ele>172.056763</ele>
<time>2010-07-17T10:32:54Z</time>
<desc>lat.=55.729355, lon.=26.243948, Alt.=172.056763m. Speed=0.288000m/h.</desc>
<speed>0.080000</speed>
</trkpt>
<trkpt lat="55.729355" lon="26.243950">
<ele>172.150513</ele>
<time>2010-07-17T10:32:55Z</time>
<desc>lat.=55.729355, lon.=26.243950, Alt.=172.150513m. Speed=0.252000m/h.</desc>
<speed>0.070000</speed>
</trkpt>
<trkpt lat="55.729355" lon="26.243952">
<ele>172.244263</ele>
<time>2010-07-17T10:32:56Z</time>
<desc>lat.=55.729355, lon.=26.243952, Alt.=172.244263m. Speed=0.288000m/h.</desc>
<speed>0.080000</speed>
</trkpt>
<trkpt lat="55.729351" lon="26.243952">
<ele>172.338013</ele>
<time>2010-07-17T10:32:57Z</time>
<desc>lat.=55.729351, lon.=26.243952, Alt.=172.338013m. Speed=0.216000m/h.</desc>
<speed>0.060000</speed>
</trkpt>
<trkpt lat="55.729351" lon="26.243954">
<ele>172.431763</ele>
<time>2010-07-17T10:32:58Z</time>
<desc>lat.=55.729351, lon.=26.243954, Alt.=172.431763m. Speed=0.252000m/h.</desc>
<speed>0.070000</speed>
</trkpt>
<trkpt lat="55.729351" lon="26.243954">
<ele>172.521606</ele>
<time>2010-07-17T10:32:59Z</time>
<desc>lat.=55.729351, lon.=26.243954, Alt.=172.521606m. Speed=0.252000m/h.</desc>
<speed>0.070000</speed>
</trkpt>
<trkpt lat="55.729351" lon="26.243956">
<ele>172.619263</ele>
<time>2010-07-17T10:33:00Z</time>
<desc>lat.=55.729351, lon.=26.243956, Alt.=172.619263m. Speed=0.252000m/h.</desc>
<speed>0.070000</speed>
</trkpt>
<trkpt lat="55.729351" lon="26.243956">
<ele>172.713013</ele>
<time>2010-07-17T10:33:01Z</time>
<desc>lat.=55.729351, lon.=26.243956, Alt.=172.713013m. Speed=0.216000m/h.</desc>
<speed>0.060000</speed>
</trkpt>
<trkpt lat="55.729351" lon="26.243958">
<ele>172.806763</ele>
<time>2010-07-17T10:33:02Z</time>
<desc>lat.=55.729351, lon.=26.243958, Alt.=172.806763m. Speed=0.216000m/h.</desc>
<speed>0.060000</speed>
</trkpt>
<trkpt lat="55.729351" lon="26.243958">
<ele>172.896606</ele>
<time>2010-07-17T10:33:03Z</time>
<desc>lat.=55.729351, lon.=26.243958, Alt.=172.896606m. Speed=0.216000m/h.</desc>
<speed>0.060000</speed>
</trkpt>
<trkpt lat="55.729351" lon="26.243959">
<ele>172.986450</ele>
<time>2010-07-17T10:33:04Z</time>
<desc>lat.=55.729351, lon.=26.243959, Alt.=172.986450m. Speed=0.216000m/h.</desc>
<speed>0.060000</speed>
</trkpt>
<trkpt lat="55.729351" lon="26.243959">
<ele>173.080200</ele>
<time>2010-07-17T10:33:05Z</time>
<desc>lat.=55.729351, lon.=26.243959, Alt.=173.080200m. Speed=0.216000m/h.</desc>
<speed>0.060000</speed>
</trkpt>
<trkpt lat="55.729351" lon="26.243961">
<ele>173.170044</ele>
<time>2010-07-17T10:33:06Z</time>
<desc>lat.=55.729351, lon.=26.243961, Alt.=173.170044m. Speed=0.180000m/h.</desc>
<speed>0.050000</speed>
</trkpt>
<trkpt lat="55.729351" lon="26.243961">
<ele>173.255981</ele>
<time>2010-07-17T10:33:07Z</time>
<desc>lat.=55.729351, lon.=26.243961, Alt.=173.255981m. Speed=0.180000m/h.</desc>
<speed>0.050000</speed>
</trkpt>
<trkpt lat="55.729351" lon="26.243963">
<ele>173.353638</ele>
<time>2010-07-17T10:33:08Z</time>
<desc>lat.=55.729351, lon.=26.243963, Alt.=173.353638m. Speed=0.252000m/h.</desc>
<speed>0.070000</speed>
</trkpt>
<trkpt lat="55.729351" lon="26.243965">
<ele>173.439575</ele>
<time>2010-07-17T10:33:09Z</time>
<desc>lat.=55.729351, lon.=26.243965, Alt.=173.439575m. Speed=0.216000m/h.</desc>
<speed>0.060000</speed>
</trkpt>
<trkpt lat="55.729351" lon="26.243965">
<ele>173.529419</ele>
<time>2010-07-17T10:33:10Z</time>
<desc>lat.=55.729351, lon.=26.243965, Alt.=173.529419m. Speed=0.252000m/h.</desc>
<speed>0.070000</speed>
</trkpt>
<trkpt lat="55.729351" lon="26.243967">
<ele>173.619263</ele>
<time>2010-07-17T10:33:11Z</time>
<desc>lat.=55.729351, lon.=26.243967, Alt.=173.619263m. Speed=0.216000m/h.</desc>
<speed>0.060000</speed>
</trkpt>
<trkpt lat="55.729351" lon="26.243967">
<ele>173.713013</ele>
<time>2010-07-17T10:33:12Z</time>
<desc>lat.=55.729351, lon.=26.243967, Alt.=173.713013m. Speed=0.252000m/h.</desc>
<speed>0.070000</speed>
</trkpt>
<trkpt lat="55.729351" lon="26.243969">
<ele>173.802856</ele>
<time>2010-07-17T10:33:13Z</time>
<desc>lat.=55.729351, lon.=26.243969, Alt.=173.802856m. Speed=0.072000m/h.</desc>
<speed>0.020000</speed>
</trkpt>
<trkpt lat="55.729351" lon="26.243969">
<ele>173.892700</ele>
<time>2010-07-17T10:33:14Z</time>
<desc>lat.=55.729351, lon.=26.243969, Alt.=173.892700m. Speed=0.216000m/h.</desc>
<speed>0.060000</speed>
</trkpt>
<trkpt lat="55.729351" lon="26.243971">
<ele>173.978638</ele>
<time>2010-07-17T10:33:15Z</time>
<desc>lat.=55.729351, lon.=26.243971, Alt.=173.978638m. Speed=0.180000m/h.</desc>
<speed>0.050000</speed>
</trkpt>
<trkpt lat="55.729351" lon="26.243971">
<ele>174.068481</ele>
<time>2010-07-17T10:33:16Z</time>
<desc>lat.=55.729351, lon.=26.243971, Alt.=174.068481m. Speed=0.252000m/h.</desc>
<speed>0.070000</speed>
</trkpt>
<trkpt lat="55.729351" lon="26.243973">
<ele>174.158325</ele>
<time>2010-07-17T10:33:17Z</time>
<desc>lat.=55.729351, lon.=26.243973, Alt.=174.158325m. Speed=0.216000m/h.</desc>
<speed>0.060000</speed>
</trkpt>
<trkpt lat="55.729351" lon="26.243975">
<ele>174.255981</ele>
<time>2010-07-17T10:33:18Z</time>
<desc>lat.=55.729351, lon.=26.243975, Alt.=174.255981m. Speed=0.180000m/h.</desc>
<speed>0.050000</speed>
</trkpt>
<trkpt lat="55.729351" lon="26.243975">
<ele>174.341919</ele>
<time>2010-07-17T10:33:19Z</time>
<desc>lat.=55.729351, lon.=26.243975, Alt.=174.341919m. Speed=0.144000m/h.</desc>
<speed>0.040000</speed>
</trkpt>
<trkpt lat="55.729351" lon="26.243975">
<ele>174.431763</ele>
<time>2010-07-17T10:33:20Z</time>
<desc>lat.=55.729351, lon.=26.243975, Alt.=174.431763m. Speed=0.396000m/h.</desc>
<speed>0.110000</speed>
</trkpt>
<trkpt lat="55.729347" lon="26.243977">
<ele>174.521606</ele>
<time>2010-07-17T10:33:21Z</time>
<desc>lat.=55.729347, lon.=26.243977, Alt.=174.521606m. Speed=0.360000m/h.</desc>
<speed>0.100000</speed>
</trkpt>
<trkpt lat="55.729347" lon="26.243977">
<ele>174.611450</ele>
<time>2010-07-17T10:33:22Z</time>
<desc>lat.=55.729347, lon.=26.243977, Alt.=174.611450m. Speed=0.252000m/h.</desc>
<speed>0.070000</speed>
</trkpt>
<trkpt lat="55.729347" lon="26.243979">
<ele>174.701294</ele>
<time>2010-07-17T10:33:23Z</time>
<desc>lat.=55.729347, lon.=26.243979, Alt.=174.701294m. Speed=0.288000m/h.</desc>
<speed>0.080000</speed>
</trkpt>
<trkpt lat="55.729347" lon="26.243980">
<ele>174.787231</ele>
<time>2010-07-17T10:33:24Z</time>
<desc>lat.=55.729347, lon.=26.243980, Alt.=174.787231m. Speed=0.180000m/h.</desc>
<speed>0.050000</speed>
</trkpt>
<trkpt lat="55.729347" lon="26.243980">
<ele>174.877075</ele>
<time>2010-07-17T10:33:25Z</time>
<desc>lat.=55.729347, lon.=26.243980, Alt.=174.877075m. Speed=0.288000m/h.</desc>
<speed>0.080000</speed>
</trkpt>
<trkpt lat="55.729347" lon="26.243980">
<ele>174.966919</ele>
<time>2010-07-17T10:33:26Z</time>
<desc>lat.=55.729347, lon.=26.243980, Alt.=174.966919m. Speed=0.288000m/h.</desc>
<speed>0.080000</speed>
</trkpt>
<trkpt lat="55.729347" lon="26.243982">
<ele>175.056763</ele>
<time>2010-07-17T10:33:27Z</time>
<desc>lat.=55.729347, lon.=26.243982, Alt.=175.056763m. Speed=0.252000m/h.</desc>
<speed>0.070000</speed>
</trkpt>
<trkpt lat="55.729343" lon="26.243984">
<ele>175.142700</ele>
<time>2010-07-17T10:33:28Z</time>
<desc>lat.=55.729343, lon.=26.243984, Alt.=175.142700m. Speed=0.288000m/h.</desc>
<speed>0.080000</speed>
</trkpt>
<trkpt lat="55.729343" lon="26.243984">
<ele>175.228638</ele>
<time>2010-07-17T10:33:29Z</time>
<desc>lat.=55.729343, lon.=26.243984, Alt.=175.228638m. Speed=0.252000m/h.</desc>
<speed>0.070000</speed>
</trkpt>
<trkpt lat="55.729343" lon="26.243986">
<ele>175.318481</ele>
<time>2010-07-17T10:33:30Z</time>
<desc>lat.=55.729343, lon.=26.243986, Alt.=175.318481m. Speed=0.252000m/h.</desc>
<speed>0.070000</speed>
</trkpt>
<trkpt lat="55.729343" lon="26.243986">
<ele>175.404419</ele>
<time>2010-07-17T10:33:31Z</time>
<desc>lat.=55.729343, lon.=26.243986, Alt.=175.404419m. Speed=0.216000m/h.</desc>
<speed>0.060000</speed>
</trkpt>
<trkpt lat="55.729343" lon="26.243988">
<ele>175.498169</ele>
<time>2010-07-17T10:33:32Z</time>
<desc>lat.=55.729343, lon.=26.243988, Alt.=175.498169m. Speed=0.180000m/h.</desc>
<speed>0.050000</speed>
</trkpt>
<trkpt lat="55.729343" lon="26.243988">
<ele>175.588013</ele>
<time>2010-07-17T10:33:33Z</time>
<desc>lat.=55.729343, lon.=26.243988, Alt.=175.588013m. Speed=0.252000m/h.</desc>
<speed>0.070000</speed>
</trkpt>
<trkpt lat="55.729343" lon="26.243988">
<ele>175.677856</ele>
<time>2010-07-17T10:33:34Z</time>
<desc>lat.=55.729343, lon.=26.243988, Alt.=175.677856m. Speed=0.216000m/h.</desc>
<speed>0.060000</speed>
</trkpt>
<trkpt lat="55.729343" lon="26.243990">
<ele>175.763794</ele>
<time>2010-07-17T10:33:35Z</time>
<desc>lat.=55.729343, lon.=26.243990, Alt.=175.763794m. Speed=0.216000m/h.</desc>
<speed>0.060000</speed>
</trkpt>
<trkpt lat="55.729343" lon="26.243990">
<ele>175.853638</ele>
<time>2010-07-17T10:33:36Z</time>
<desc>lat.=55.729343, lon.=26.243990, Alt.=175.853638m. Speed=0.180000m/h.</desc>
<speed>0.050000</speed>
</trkpt>
<trkpt lat="55.729343" lon="26.243992">
<ele>175.939575</ele>
<time>2010-07-17T10:33:37Z</time>
<desc>lat.=55.729343, lon.=26.243992, Alt.=175.939575m. Speed=0.252000m/h.</desc>
<speed>0.070000</speed>
</trkpt>
<trkpt lat="55.729343" lon="26.243994">
<ele>176.025513</ele>
<time>2010-07-17T10:33:38Z</time>
<desc>lat.=55.729343, lon.=26.243994, Alt.=176.025513m. Speed=0.216000m/h.</desc>
<speed>0.060000</speed>
</trkpt>
<trkpt lat="55.729343" lon="26.243994">
<ele>176.111450</ele>
<time>2010-07-17T10:33:39Z</time>
<desc>lat.=55.729343, lon.=26.243994, Alt.=176.111450m. Speed=0.216000m/h.</desc>
<speed>0.060000</speed>
</trkpt>
<trkpt lat="55.729343" lon="26.243996">
<ele>176.197388</ele>
<time>2010-07-17T10:33:40Z</time>
<desc>lat.=55.729343, lon.=26.243996, Alt.=176.197388m. Speed=0.252000m/h.</desc>
<speed>0.070000</speed>
</trkpt>
<trkpt lat="55.729343" lon="26.243996">
<ele>176.279419</ele>
<time>2010-07-17T10:33:41Z</time>
<desc>lat.=55.729343, lon.=26.243996, Alt.=176.279419m. Speed=0.216000m/h.</desc>
<speed>0.060000</speed>
</trkpt>
<trkpt lat="55.729343" lon="26.243998">
<ele>176.361450</ele>
<time>2010-07-17T10:33:42Z</time>
<desc>lat.=55.729343, lon.=26.243998, Alt.=176.361450m. Speed=0.252000m/h.</desc>
<speed>0.070000</speed>
</trkpt>
<trkpt lat="55.729343" lon="26.243998">
<ele>176.451294</ele>
<time>2010-07-17T10:33:43Z</time>
<desc>lat.=55.729343, lon.=26.243998, Alt.=176.451294m. Speed=0.252000m/h.</desc>
<speed>0.070000</speed>
</trkpt>
<trkpt lat="55.729343" lon="26.243999">
<ele>176.533325</ele>
<time>2010-07-17T10:33:44Z</time>
<desc>lat.=55.729343, lon.=26.243999, Alt.=176.533325m. Speed=0.288000m/h.</desc>
<speed>0.080000</speed>
</trkpt>
<trkpt lat="55.729343" lon="26.244001">
<ele>176.615356</ele>
<time>2010-07-17T10:33:45Z</time>
<desc>lat.=55.729343, lon.=26.244001, Alt.=176.615356m. Speed=0.180000m/h.</desc>
<speed>0.050000</speed>
</trkpt>
<trkpt lat="55.729343" lon="26.244001">
<ele>176.701294</ele>
<time>2010-07-17T10:33:46Z</time>
<desc>lat.=55.729343, lon.=26.244001, Alt.=176.701294m. Speed=0.216000m/h.</desc>
<speed>0.060000</speed>
</trkpt>
<trkpt lat="55.729343" lon="26.244003">
<ele>176.783325</ele>
<time>2010-07-17T10:33:47Z</time>
<desc>lat.=55.729343, lon.=26.244003, Alt.=176.783325m. Speed=0.216000m/h.</desc>
<speed>0.060000</speed>
</trkpt>
<trkpt lat="55.729343" lon="26.244003">
<ele>176.869263</ele>
<time>2010-07-17T10:33:48Z</time>
<desc>lat.=55.729343, lon.=26.244003, Alt.=176.869263m. Speed=0.252000m/h.</desc>
<speed>0.070000</speed>
</trkpt>
<trkpt lat="55.729343" lon="26.244005">
<ele>176.951294</ele>
<time>2010-07-17T10:33:49Z</time>
<desc>lat.=55.729343, lon.=26.244005, Alt.=176.951294m. Speed=0.288000m/h.</desc>
<speed>0.080000</speed>
</trkpt>
<trkpt lat="55.729343" lon="26.244005">
<ele>177.037231</ele>
<time>2010-07-17T10:33:50Z</time>
<desc>lat.=55.729343, lon.=26.244005, Alt.=177.037231m. Speed=0.144000m/h.</desc>
<speed>0.040000</speed>
</trkpt>
<trkpt lat="55.729343" lon="26.244007">
<ele>177.123169</ele>
<time>2010-07-17T10:33:51Z</time>
<desc>lat.=55.729343, lon.=26.244007, Alt.=177.123169m. Speed=0.252000m/h.</desc>
<speed>0.070000</speed>
</trkpt>
<trkpt lat="55.729343" lon="26.244007">
<ele>177.209106</ele>
<time>2010-07-17T10:33:52Z</time>
<desc>lat.=55.729343, lon.=26.244007, Alt.=177.209106m. Speed=0.252000m/h.</desc>
<speed>0.070000</speed>
</trkpt>
<trkpt lat="55.729343" lon="26.244009">
<ele>177.298950</ele>
<time>2010-07-17T10:33:53Z</time>
<desc>lat.=55.729343, lon.=26.244009, Alt.=177.298950m. Speed=0.288000m/h.</desc>
<speed>0.080000</speed>
</trkpt>
<trkpt lat="55.729343" lon="26.244009">
<ele>177.384888</ele>
<time>2010-07-17T10:33:54Z</time>
<desc>lat.=55.729343, lon.=26.244009, Alt.=177.384888m. Speed=0.360000m/h.</desc>
<speed>0.100000</speed>
</trkpt>
<trkpt lat="55.729340" lon="26.244011">
<ele>177.466919</ele>
<time>2010-07-17T10:33:55Z</time>
<desc>lat.=55.729340, lon.=26.244011, Alt.=177.466919m. Speed=0.288000m/h.</desc>
<speed>0.080000</speed>
</trkpt>
<trkpt lat="55.729340" lon="26.244013">
<ele>177.548950</ele>
<time>2010-07-17T10:33:56Z</time>
<desc>lat.=55.729340, lon.=26.244013, Alt.=177.548950m. Speed=0.252000m/h.</desc>
<speed>0.070000</speed>
</trkpt>
<trkpt lat="55.729340" lon="26.244013">
<ele>177.627075</ele>
<time>2010-07-17T10:33:57Z</time>
<desc>lat.=55.729340, lon.=26.244013, Alt.=177.627075m. Speed=0.252000m/h.</desc>
<speed>0.070000</speed>
</trkpt>
<trkpt lat="55.729340" lon="26.244015">
<ele>177.709106</ele>
<time>2010-07-17T10:33:58Z</time>
<desc>lat.=55.729340, lon.=26.244015, Alt.=177.709106m. Speed=0.288000m/h.</desc>
<speed>0.080000</speed>
</trkpt>
<trkpt lat="55.729340" lon="26.244015">
<ele>177.791138</ele>
<time>2010-07-17T10:33:59Z</time>
<desc>lat.=55.729340, lon.=26.244015, Alt.=177.791138m. Speed=0.252000m/h.</desc>
<speed>0.070000</speed>
</trkpt>
<trkpt lat="55.729340" lon="26.244017">
<ele>177.869263</ele>
<time>2010-07-17T10:34:00Z</time>
<desc>lat.=55.729340, lon.=26.244017, Alt.=177.869263m. Speed=0.216000m/h.</desc>
<speed>0.060000</speed>
</trkpt>
<trkpt lat="55.729340" lon="26.244017">
<ele>177.947388</ele>
<time>2010-07-17T10:34:01Z</time>
<desc>lat.=55.729340, lon.=26.244017, Alt.=177.947388m. Speed=0.180000m/h.</desc>
<speed>0.050000</speed>
</trkpt>
<trkpt lat="55.729340" lon="26.244019">
<ele>178.025513</ele>
<time>2010-07-17T10:34:02Z</time>
<desc>lat.=55.729340, lon.=26.244019, Alt.=178.025513m. Speed=0.252000m/h.</desc>
<speed>0.070000</speed>
</trkpt>
<trkpt lat="55.729340" lon="26.244019">
<ele>178.103638</ele>
<time>2010-07-17T10:34:03Z</time>
<desc>lat.=55.729340, lon.=26.244019, Alt.=178.103638m. Speed=0.144000m/h.</desc>
<speed>0.040000</speed>
</trkpt>
<trkpt lat="55.729340" lon="26.244020">
<ele>178.185669</ele>
<time>2010-07-17T10:34:04Z</time>
<desc>lat.=55.729340, lon.=26.244020, Alt.=178.185669m. Speed=0.288000m/h.</desc>
<speed>0.080000</speed>
</trkpt>
<trkpt lat="55.729340" lon="26.244020">
<ele>178.263794</ele>
<time>2010-07-17T10:34:05Z</time>
<desc>lat.=55.729340, lon.=26.244020, Alt.=178.263794m. Speed=0.180000m/h.</desc>
<speed>0.050000</speed>
</trkpt>
<trkpt lat="55.729340" lon="26.244022">
<ele>178.341919</ele>
<time>2010-07-17T10:34:06Z</time>
<desc>lat.=55.729340, lon.=26.244022, Alt.=178.341919m. Speed=0.216000m/h.</desc>
<speed>0.060000</speed>
</trkpt>
<trkpt lat="55.729340" lon="26.244022">
<ele>178.423950</ele>
<time>2010-07-17T10:34:07Z</time>
<desc>lat.=55.729340, lon.=26.244022, Alt.=178.423950m. Speed=0.252000m/h.</desc>
<speed>0.070000</speed>
</trkpt>
<trkpt lat="55.729340" lon="26.244024">
<ele>178.502075</ele>
<time>2010-07-17T10:34:08Z</time>
<desc>lat.=55.729340, lon.=26.244024, Alt.=178.502075m. Speed=0.252000m/h.</desc>
<speed>0.070000</speed>
</trkpt>
<trkpt lat="55.729340" lon="26.244024">
<ele>178.580200</ele>
<time>2010-07-17T10:34:09Z</time>
<desc>lat.=55.729340, lon.=26.244024, Alt.=178.580200m. Speed=0.216000m/h.</desc>
<speed>0.060000</speed>
</trkpt>
<trkpt lat="55.729340" lon="26.244026">
<ele>178.662231</ele>
<time>2010-07-17T10:34:10Z</time>
<desc>lat.=55.729340, lon.=26.244026, Alt.=178.662231m. Speed=0.216000m/h.</desc>
<speed>0.060000</speed>
</trkpt>
<trkpt lat="55.729336" lon="26.244026">
<ele>178.740356</ele>
<time>2010-07-17T10:34:11Z</time>
<desc>lat.=55.729336, lon.=26.244026, Alt.=178.740356m. Speed=0.216000m/h.</desc>
<speed>0.060000</speed>
</trkpt>
<trkpt lat="55.729336" lon="26.244028">
<ele>178.822388</ele>
<time>2010-07-17T10:34:12Z</time>
<desc>lat.=55.729336, lon.=26.244028, Alt.=178.822388m. Speed=0.180000m/h.</desc>
<speed>0.050000</speed>
</trkpt>
<trkpt lat="55.729336" lon="26.244028">
<ele>178.904419</ele>
<time>2010-07-17T10:34:13Z</time>
<desc>lat.=55.729336, lon.=26.244028, Alt.=178.904419m. Speed=0.108000m/h.</desc>
<speed>0.030000</speed>
</trkpt>
<trkpt lat="55.729336" lon="26.244028">
<ele>178.986450</ele>
<time>2010-07-17T10:34:14Z</time>
<desc>lat.=55.729336, lon.=26.244028, Alt.=178.986450m. Speed=0.288000m/h.</desc>
<speed>0.080000</speed>
</trkpt>
<trkpt lat="55.729336" lon="26.244030">
<ele>179.064575</ele>
<time>2010-07-17T10:34:15Z</time>
<desc>lat.=55.729336, lon.=26.244030, Alt.=179.064575m. Speed=0.288000m/h.</desc>
<speed>0.080000</speed>
</trkpt>
<trkpt lat="55.729336" lon="26.244032">
<ele>179.150513</ele>
<time>2010-07-17T10:34:16Z</time>
<desc>lat.=55.729336, lon.=26.244032, Alt.=179.150513m. Speed=0.252000m/h.</desc>
<speed>0.070000</speed>
</trkpt>
<trkpt lat="55.729336" lon="26.244032">
<ele>179.232544</ele>
<time>2010-07-17T10:34:17Z</time>
<desc>lat.=55.729336, lon.=26.244032, Alt.=179.232544m. Speed=0.216000m/h.</desc>
<speed>0.060000</speed>
</trkpt>
<trkpt lat="55.729336" lon="26.244034">
<ele>179.314575</ele>
<time>2010-07-17T10:34:18Z</time>
<desc>lat.=55.729336, lon.=26.244034, Alt.=179.314575m. Speed=0.216000m/h.</desc>
<speed>0.060000</speed>
</trkpt>
<trkpt lat="55.729336" lon="26.244034">
<ele>179.396606</ele>
<time>2010-07-17T10:34:19Z</time>
<desc>lat.=55.729336, lon.=26.244034, Alt.=179.396606m. Speed=0.252000m/h.</desc>
<speed>0.070000</speed>
</trkpt>
<trkpt lat="55.729336" lon="26.244036">
<ele>179.478638</ele>
<time>2010-07-17T10:34:20Z</time>
<desc>lat.=55.729336, lon.=26.244036, Alt.=179.478638m. Speed=0.216000m/h.</desc>
<speed>0.060000</speed>
</trkpt>
<trkpt lat="55.729336" lon="26.244036">
<ele>179.556763</ele>
<time>2010-07-17T10:34:21Z</time>
<desc>lat.=55.729336, lon.=26.244036, Alt.=179.556763m. Speed=0.252000m/h.</desc>
<speed>0.070000</speed>
</trkpt>
<trkpt lat="55.729336" lon="26.244038">
<ele>179.634888</ele>
<time>2010-07-17T10:34:22Z</time>
<desc>lat.=55.729336, lon.=26.244038, Alt.=179.634888m. Speed=0.252000m/h.</desc>
<speed>0.070000</speed>
</trkpt>
<trkpt lat="55.729336" lon="26.244038">
<ele>179.713013</ele>
<time>2010-07-17T10:34:23Z</time>
<desc>lat.=55.729336, lon.=26.244038, Alt.=179.713013m. Speed=0.252000m/h.</desc>
<speed>0.070000</speed>
</trkpt>
<trkpt lat="55.729336" lon="26.244040">
<ele>179.787231</ele>
<time>2010-07-17T10:34:24Z</time>
<desc>lat.=55.729336, lon.=26.244040, Alt.=179.787231m. Speed=0.216000m/h.</desc>
<speed>0.060000</speed>
</trkpt>
<trkpt lat="55.729332" lon="26.244040">
<ele>179.865356</ele>
<time>2010-07-17T10:34:25Z</time>
<desc>lat.=55.729332, lon.=26.244040, Alt.=179.865356m. Speed=0.252000m/h.</desc>
<speed>0.070000</speed>
</trkpt>
<trkpt lat="55.729332" lon="26.244041">
<ele>179.939575</ele>
<time>2010-07-17T10:34:26Z</time>
<desc>lat.=55.729332, lon.=26.244041, Alt.=179.939575m. Speed=0.216000m/h.</desc>
<speed>0.060000</speed>
</trkpt>
<trkpt lat="55.729332" lon="26.244041">
<ele>180.013794</ele>
<time>2010-07-17T10:34:27Z</time>
<desc>lat.=55.729332, lon.=26.244041, Alt.=180.013794m. Speed=0.216000m/h.</desc>
<speed>0.060000</speed>
</trkpt>
<trkpt lat="55.729332" lon="26.244041">
<ele>180.088013</ele>
<time>2010-07-17T10:34:28Z</time>
<desc>lat.=55.729332, lon.=26.244041, Alt.=180.088013m. Speed=0.252000m/h.</desc>
<speed>0.070000</speed>
</trkpt>
<trkpt lat="55.729332" lon="26.244043">
<ele>180.162231</ele>
<time>2010-07-17T10:34:29Z</time>
<desc>lat.=55.729332, lon.=26.244043, Alt.=180.162231m. Speed=0.180000m/h.</desc>
<speed>0.050000</speed>
</trkpt>
<trkpt lat="55.729332" lon="26.244043">
<ele>180.236450</ele>
<time>2010-07-17T10:34:30Z</time>
<desc>lat.=55.729332, lon.=26.244043, Alt.=180.236450m. Speed=0.252000m/h.</desc>
<speed>0.070000</speed>
</trkpt>
<trkpt lat="55.729332" lon="26.244045">
<ele>180.314575</ele>
<time>2010-07-17T10:34:31Z</time>
<desc>lat.=55.729332, lon.=26.244045, Alt.=180.314575m. Speed=0.396000m/h.</desc>
<speed>0.110000</speed>
</trkpt>
<trkpt lat="55.729332" lon="26.244045">
<ele>180.392700</ele>
<time>2010-07-17T10:34:32Z</time>
<desc>lat.=55.729332, lon.=26.244045, Alt.=180.392700m. Speed=0.360000m/h.</desc>
<speed>0.100000</speed>
</trkpt>
<trkpt lat="55.729332" lon="26.244047">
<ele>180.463013</ele>
<time>2010-07-17T10:34:33Z</time>
<desc>lat.=55.729332, lon.=26.244047, Alt.=180.463013m. Speed=0.216000m/h.</desc>
<speed>0.060000</speed>
</trkpt>
<trkpt lat="55.729332" lon="26.244049">
<ele>180.525513</ele>
<time>2010-07-17T10:34:34Z</time>
<desc>lat.=55.729332, lon.=26.244049, Alt.=180.525513m. Speed=0.180000m/h.</desc>
<speed>0.050000</speed>
</trkpt>
<trkpt lat="55.729332" lon="26.244049">
<ele>180.595825</ele>
<time>2010-07-17T10:34:35Z</time>
<desc>lat.=55.729332, lon.=26.244049, Alt.=180.595825m. Speed=0.144000m/h.</desc>
<speed>0.040000</speed>
</trkpt>
<trkpt lat="55.729332" lon="26.244049">
<ele>180.658325</ele>
<time>2010-07-17T10:34:36Z</time>
<desc>lat.=55.729332, lon.=26.244049, Alt.=180.658325m. Speed=0.252000m/h.</desc>
<speed>0.070000</speed>
</trkpt>
<trkpt lat="55.729332" lon="26.244051">
<ele>180.728638</ele>
<time>2010-07-17T10:34:37Z</time>
<desc>lat.=55.729332, lon.=26.244051, Alt.=180.728638m. Speed=0.180000m/h.</desc>
<speed>0.050000</speed>
</trkpt>
<trkpt lat="55.729332" lon="26.244051">
<ele>180.806763</ele>
<time>2010-07-17T10:34:38Z</time>
<desc>lat.=55.729332, lon.=26.244051, Alt.=180.806763m. Speed=0.252000m/h.</desc>
<speed>0.070000</speed>
</trkpt>
<trkpt lat="55.729332" lon="26.244053">
<ele>180.880981</ele>
<time>2010-07-17T10:34:39Z</time>
<desc>lat.=55.729332, lon.=26.244053, Alt.=180.880981m. Speed=0.180000m/h.</desc>
<speed>0.050000</speed>
</trkpt>
<trkpt lat="55.729332" lon="26.244053">
<ele>180.955200</ele>
<time>2010-07-17T10:34:40Z</time>
<desc>lat.=55.729332, lon.=26.244053, Alt.=180.955200m. Speed=0.324000m/h.</desc>
<speed>0.090000</speed>
</trkpt>
<trkpt lat="55.729332" lon="26.244055">
<ele>181.025513</ele>
<time>2010-07-17T10:34:41Z</time>
<desc>lat.=55.729332, lon.=26.244055, Alt.=181.025513m. Speed=0.468000m/h.</desc>
<speed>0.130000</speed>
</trkpt>
<trkpt lat="55.729332" lon="26.244055">
<ele>181.095825</ele>
<time>2010-07-17T10:34:42Z</time>
<desc>lat.=55.729332, lon.=26.244055, Alt.=181.095825m. Speed=0.684000m/h.</desc>
<speed>0.190000</speed>
</trkpt>
<trkpt lat="55.729336" lon="26.244057">
<ele>181.162231</ele>
<time>2010-07-17T10:34:43Z</time>
<desc>lat.=55.729336, lon.=26.244057, Alt.=181.162231m. Speed=0.900000m/h.</desc>
<speed>0.250000</speed>
</trkpt>
<trkpt lat="55.729336" lon="26.244059">
<ele>181.228638</ele>
<time>2010-07-17T10:34:44Z</time>
<desc>lat.=55.729336, lon.=26.244059, Alt.=181.228638m. Speed=1.044000m/h.</desc>
<speed>0.290000</speed>
</trkpt>
<trkpt lat="55.729340" lon="26.244061">
<ele>181.295044</ele>
<time>2010-07-17T10:34:45Z</time>
<desc>lat.=55.729340, lon.=26.244061, Alt.=181.295044m. Speed=1.116000m/h.</desc>
<speed>0.310000</speed>
</trkpt>
<trkpt lat="55.729347" lon="26.244059">
<ele>181.388794</ele>
<time>2010-07-17T10:34:46Z</time>
<desc>lat.=55.729347, lon.=26.244059, Alt.=181.388794m. Speed=1.188000m/h.</desc>
<speed>0.330000</speed>
</trkpt>
<trkpt lat="55.729355" lon="26.244059">
<ele>181.326294</ele>
<time>2010-07-17T10:34:47Z</time>
<desc>lat.=55.729355, lon.=26.244059, Alt.=181.326294m. Speed=1.224000m/h.</desc>
<speed>0.340000</speed>
</trkpt>
<trkpt lat="55.729362" lon="26.244057">
<ele>181.279419</ele>
<time>2010-07-17T10:34:48Z</time>
<desc>lat.=55.729362, lon.=26.244057, Alt.=181.279419m. Speed=1.332000m/h.</desc>
<speed>0.370000</speed>
</trkpt>
<trkpt lat="55.729370" lon="26.244055">
<ele>181.369263</ele>
<time>2010-07-17T10:34:49Z</time>
<desc>lat.=55.729370, lon.=26.244055, Alt.=181.369263m. Speed=1.332000m/h.</desc>
<speed>0.370000</speed>
</trkpt>
<trkpt lat="55.729374" lon="26.244053">
<ele>181.248169</ele>
<time>2010-07-17T10:34:50Z</time>
<desc>lat.=55.729374, lon.=26.244053, Alt.=181.248169m. Speed=1.296000m/h.</desc>
<speed>0.360000</speed>
</trkpt>
<trkpt lat="55.729378" lon="26.244047">
<ele>181.220825</ele>
<time>2010-07-17T10:34:51Z</time>
<desc>lat.=55.729378, lon.=26.244047, Alt.=181.220825m. Speed=1.368000m/h.</desc>
<speed>0.380000</speed>
</trkpt>
<trkpt lat="55.729385" lon="26.244043">
<ele>180.939575</ele>
<time>2010-07-17T10:34:52Z</time>
<desc>lat.=55.729385, lon.=26.244043, Alt.=180.939575m. Speed=1.224000m/h.</desc>
<speed>0.340000</speed>
</trkpt>
<trkpt lat="55.729389" lon="26.244040">
<ele>180.638794</ele>
<time>2010-07-17T10:34:53Z</time>
<desc>lat.=55.729389, lon.=26.244040, Alt.=180.638794m. Speed=1.080000m/h.</desc>
<speed>0.300000</speed>
</trkpt>
<trkpt lat="55.729393" lon="26.244034">
<ele>180.482544</ele>
<time>2010-07-17T10:34:54Z</time>
<desc>lat.=55.729393, lon.=26.244034, Alt.=180.482544m. Speed=0.936000m/h.</desc>
<speed>0.260000</speed>
</trkpt>
<trkpt lat="55.729393" lon="26.244028">
<ele>180.279419</ele>
<time>2010-07-17T10:34:55Z</time>
<desc>lat.=55.729393, lon.=26.244028, Alt.=180.279419m. Speed=0.828000m/h.</desc>
<speed>0.230000</speed>
</trkpt>
<trkpt lat="55.729397" lon="26.244024">
<ele>180.181763</ele>
<time>2010-07-17T10:34:56Z</time>
<desc>lat.=55.729397, lon.=26.244024, Alt.=180.181763m. Speed=0.792000m/h.</desc>
<speed>0.220000</speed>
</trkpt>
<trkpt lat="55.729393" lon="26.244017">
<ele>180.041138</ele>
<time>2010-07-17T10:34:57Z</time>
<desc>lat.=55.729393, lon.=26.244017, Alt.=180.041138m. Speed=0.468000m/h.</desc>
<speed>0.130000</speed>
</trkpt>
<trkpt lat="55.729393" lon="26.244019">
<ele>180.080200</ele>
<time>2010-07-17T10:34:58Z</time>
<desc>lat.=55.729393, lon.=26.244019, Alt.=180.080200m. Speed=0.468000m/h.</desc>
<speed>0.130000</speed>
</trkpt>
<trkpt lat="55.729393" lon="26.244019">
<ele>180.115356</ele>
<time>2010-07-17T10:34:59Z</time>
<desc>lat.=55.729393, lon.=26.244019, Alt.=180.115356m. Speed=0.540000m/h.</desc>
<speed>0.150000</speed>
</trkpt>
<trkpt lat="55.729397" lon="26.244020">
<ele>180.150513</ele>
<time>2010-07-17T10:35:00Z</time>
<desc>lat.=55.729397, lon.=26.244020, Alt.=180.150513m. Speed=0.396000m/h.</desc>
<speed>0.110000</speed>
</trkpt>
<trkpt lat="55.729397" lon="26.244020">
<ele>180.181763</ele>
<time>2010-07-17T10:35:01Z</time>
<desc>lat.=55.729397, lon.=26.244020, Alt.=180.181763m. Speed=0.360000m/h.</desc>
<speed>0.100000</speed>
</trkpt>
<trkpt lat="55.729397" lon="26.244022">
<ele>180.216919</ele>
<time>2010-07-17T10:35:02Z</time>
<desc>lat.=55.729397, lon.=26.244022, Alt.=180.216919m. Speed=0.288000m/h.</desc>
<speed>0.080000</speed>
</trkpt>
<trkpt lat="55.729397" lon="26.244022">
<ele>180.248169</ele>
<time>2010-07-17T10:35:03Z</time>
<desc>lat.=55.729397, lon.=26.244022, Alt.=180.248169m. Speed=0.144000m/h.</desc>
<speed>0.040000</speed>
</trkpt>
<trkpt lat="55.729397" lon="26.244022">
<ele>180.279419</ele>
<time>2010-07-17T10:35:04Z</time>
<desc>lat.=55.729397, lon.=26.244022, Alt.=180.279419m. Speed=0.108000m/h.</desc>
<speed>0.030000</speed>
</trkpt>
<trkpt lat="55.729397" lon="26.244024">
<ele>180.306763</ele>
<time>2010-07-17T10:35:05Z</time>
<desc>lat.=55.729397, lon.=26.244024, Alt.=180.306763m. Speed=0.144000m/h.</desc>
<speed>0.040000</speed>
</trkpt>
<trkpt lat="55.729397" lon="26.244024">
<ele>180.334106</ele>
<time>2010-07-17T10:35:06Z</time>
<desc>lat.=55.729397, lon.=26.244024, Alt.=180.334106m. Speed=0.216000m/h.</desc>
<speed>0.060000</speed>
</trkpt>
<trkpt lat="55.729401" lon="26.244024">
<ele>180.361450</ele>
<time>2010-07-17T10:35:07Z</time>
<desc>lat.=55.729401, lon.=26.244024, Alt.=180.361450m. Speed=0.216000m/h.</desc>
<speed>0.060000</speed>
</trkpt>
<trkpt lat="55.729401" lon="26.244026">
<ele>180.388794</ele>
<time>2010-07-17T10:35:08Z</time>
<desc>lat.=55.729401, lon.=26.244026, Alt.=180.388794m. Speed=0.216000m/h.</desc>
<speed>0.060000</speed>
</trkpt>
<trkpt lat="55.729401" lon="26.244026">
<ele>180.408325</ele>
<time>2010-07-17T10:35:09Z</time>
<desc>lat.=55.729401, lon.=26.244026, Alt.=180.408325m. Speed=0.216000m/h.</desc>
<speed>0.060000</speed>
</trkpt>
<trkpt lat="55.729401" lon="26.244028">
<ele>180.427856</ele>
<time>2010-07-17T10:35:10Z</time>
<desc>lat.=55.729401, lon.=26.244028, Alt.=180.427856m. Speed=0.180000m/h.</desc>
<speed>0.050000</speed>
</trkpt>
<trkpt lat="55.729401" lon="26.244028">
<ele>180.443481</ele>
<time>2010-07-17T10:35:11Z</time>
<desc>lat.=55.729401, lon.=26.244028, Alt.=180.443481m. Speed=0.180000m/h.</desc>
<speed>0.050000</speed>
</trkpt>
<trkpt lat="55.729401" lon="26.244028">
<ele>180.455200</ele>
<time>2010-07-17T10:35:12Z</time>
<desc>lat.=55.729401, lon.=26.244028, Alt.=180.455200m. Speed=0.216000m/h.</desc>
<speed>0.060000</speed>
</trkpt>
<trkpt lat="55.729401" lon="26.244030">
<ele>180.463013</ele>
<time>2010-07-17T10:35:13Z</time>
<desc>lat.=55.729401, lon.=26.244030, Alt.=180.463013m. Speed=0.324000m/h.</desc>
<speed>0.090000</speed>
</trkpt>
<trkpt lat="55.729401" lon="26.244028">
<ele>180.466919</ele>
<time>2010-07-17T10:35:14Z</time>
<desc>lat.=55.729401, lon.=26.244028, Alt.=180.466919m. Speed=0.396000m/h.</desc>
<speed>0.110000</speed>
</trkpt>
<trkpt lat="55.729404" lon="26.244028">
<ele>180.459106</ele>
<time>2010-07-17T10:35:15Z</time>
<desc>lat.=55.729404, lon.=26.244028, Alt.=180.459106m. Speed=0.612000m/h.</desc>
<speed>0.170000</speed>
</trkpt>
<trkpt lat="55.729404" lon="26.244028">
<ele>180.451294</ele>
<time>2010-07-17T10:35:16Z</time>
<desc>lat.=55.729404, lon.=26.244028, Alt.=180.451294m. Speed=0.756000m/h.</desc>
<speed>0.210000</speed>
</trkpt>
<trkpt lat="55.729408" lon="26.244030">
<ele>180.435669</ele>
<time>2010-07-17T10:35:17Z</time>
<desc>lat.=55.729408, lon.=26.244030, Alt.=180.435669m. Speed=0.864000m/h.</desc>
<speed>0.240000</speed>
</trkpt>
<trkpt lat="55.729408" lon="26.244030">
<ele>180.420044</ele>
<time>2010-07-17T10:35:18Z</time>
<desc>lat.=55.729408, lon.=26.244030, Alt.=180.420044m. Speed=0.900000m/h.</desc>
<speed>0.250000</speed>
</trkpt>
<trkpt lat="55.729412" lon="26.244032">
<ele>180.396606</ele>
<time>2010-07-17T10:35:19Z</time>
<desc>lat.=55.729412, lon.=26.244032, Alt.=180.396606m. Speed=0.864000m/h.</desc>
<speed>0.240000</speed>
</trkpt>
<trkpt lat="55.729416" lon="26.244032">
<ele>180.369263</ele>
<time>2010-07-17T10:35:20Z</time>
<desc>lat.=55.729416, lon.=26.244032, Alt.=180.369263m. Speed=0.864000m/h.</desc>
<speed>0.240000</speed>
</trkpt>
<trkpt lat="55.729416" lon="26.244032">
<ele>180.341919</ele>
<time>2010-07-17T10:35:21Z</time>
<desc>lat.=55.729416, lon.=26.244032, Alt.=180.341919m. Speed=1.008000m/h.</desc>
<speed>0.280000</speed>
</trkpt>
<trkpt lat="55.729420" lon="26.244032">
<ele>180.310669</ele>
<time>2010-07-17T10:35:22Z</time>
<desc>lat.=55.729420, lon.=26.244032, Alt.=180.310669m. Speed=1.332000m/h.</desc>
<speed>0.370000</speed>
</trkpt>
<trkpt lat="55.729431" lon="26.244036">
<ele>180.056763</ele>
<time>2010-07-17T10:35:23Z</time>
<desc>lat.=55.729431, lon.=26.244036, Alt.=180.056763m. Speed=1.548000m/h.</desc>
<speed>0.430000</speed>
</trkpt>
<trkpt lat="55.729443" lon="26.244036">
<ele>179.677856</ele>
<time>2010-07-17T10:35:24Z</time>
<desc>lat.=55.729443, lon.=26.244036, Alt.=179.677856m. Speed=1.764000m/h.</desc>
<speed>0.490000</speed>
</trkpt>
<trkpt lat="55.729450" lon="26.244036">
<ele>179.396606</ele>
<time>2010-07-17T10:35:25Z</time>
<desc>lat.=55.729450, lon.=26.244036, Alt.=179.396606m. Speed=1.692000m/h.</desc>
<speed>0.470000</speed>
</trkpt>
<trkpt lat="55.729469" lon="26.244032">
<ele>179.236450</ele>
<time>2010-07-17T10:35:26Z</time>
<desc>lat.=55.729469, lon.=26.244032, Alt.=179.236450m. Speed=1.764000m/h.</desc>
<speed>0.490000</speed>
</trkpt>
<trkpt lat="55.729465" lon="26.244028">
<ele>178.716919</ele>
<time>2010-07-17T10:35:27Z</time>
<desc>lat.=55.729465, lon.=26.244028, Alt.=178.716919m. Speed=1.368000m/h.</desc>
<speed>0.380000</speed>
</trkpt>
<trkpt lat="55.729458" lon="26.244017">
<ele>178.115356</ele>
<time>2010-07-17T10:35:28Z</time>
<desc>lat.=55.729458, lon.=26.244017, Alt.=178.115356m. Speed=1.008000m/h.</desc>
<speed>0.280000</speed>
</trkpt>
<trkpt lat="55.729469" lon="26.244009">
<ele>177.791138</ele>
<time>2010-07-17T10:35:29Z</time>
<desc>lat.=55.729469, lon.=26.244009, Alt.=177.791138m. Speed=0.936000m/h.</desc>
<speed>0.260000</speed>
</trkpt>
<trkpt lat="55.729485" lon="26.244001">
<ele>177.642700</ele>
<time>2010-07-17T10:35:30Z</time>
<desc>lat.=55.729485, lon.=26.244001, Alt.=177.642700m. Speed=1.116000m/h.</desc>
<speed>0.310000</speed>
</trkpt>
<trkpt lat="55.729500" lon="26.243992">
<ele>177.435669</ele>
<time>2010-07-17T10:35:31Z</time>
<desc>lat.=55.729500, lon.=26.243992, Alt.=177.435669m. Speed=1.332000m/h.</desc>
<speed>0.370000</speed>
</trkpt>
<trkpt lat="55.729500" lon="26.243982">
<ele>177.076294</ele>
<time>2010-07-17T10:35:32Z</time>
<desc>lat.=55.729500, lon.=26.243982, Alt.=177.076294m. Speed=1.404000m/h.</desc>
<speed>0.390000</speed>
</trkpt>
<trkpt lat="55.729507" lon="26.243967">
<ele>176.736450</ele>
<time>2010-07-17T10:35:33Z</time>
<desc>lat.=55.729507, lon.=26.243967, Alt.=176.736450m. Speed=1.476000m/h.</desc>
<speed>0.410000</speed>
</trkpt>
<trkpt lat="55.729511" lon="26.243950">
<ele>176.431763</ele>
<time>2010-07-17T10:35:34Z</time>
<desc>lat.=55.729511, lon.=26.243950, Alt.=176.431763m. Speed=1.548000m/h.</desc>
<speed>0.430000</speed>
</trkpt>
<trkpt lat="55.729507" lon="26.243940">
<ele>176.173950</ele>
<time>2010-07-17T10:35:35Z</time>
<desc>lat.=55.729507, lon.=26.243940, Alt.=176.173950m. Speed=1.368000m/h.</desc>
<speed>0.380000</speed>
</trkpt>
<trkpt lat="55.729496" lon="26.243925">
<ele>175.947388</ele>
<time>2010-07-17T10:35:36Z</time>
<desc>lat.=55.729496, lon.=26.243925, Alt.=175.947388m. Speed=1.152000m/h.</desc>
<speed>0.320000</speed>
</trkpt>
<trkpt lat="55.729488" lon="26.243919">
<ele>175.771606</ele>
<time>2010-07-17T10:35:37Z</time>
<desc>lat.=55.729488, lon.=26.243919, Alt.=175.771606m. Speed=0.864000m/h.</desc>
<speed>0.240000</speed>
</trkpt>
<trkpt lat="55.729485" lon="26.243916">
<ele>175.552856</ele>
<time>2010-07-17T10:35:38Z</time>
<desc>lat.=55.729485, lon.=26.243916, Alt.=175.552856m. Speed=0.684000m/h.</desc>
<speed>0.190000</speed>
</trkpt>
<trkpt lat="55.729485" lon="26.243908">
<ele>175.400513</ele>
<time>2010-07-17T10:35:39Z</time>
<desc>lat.=55.729485, lon.=26.243908, Alt.=175.400513m. Speed=0.720000m/h.</desc>
<speed>0.200000</speed>
</trkpt>
<trkpt lat="55.729485" lon="26.243904">
<ele>175.298950</ele>
<time>2010-07-17T10:35:40Z</time>
<desc>lat.=55.729485, lon.=26.243904, Alt.=175.298950m. Speed=0.684000m/h.</desc>
<speed>0.190000</speed>
</trkpt>
<trkpt lat="55.729485" lon="26.243902">
<ele>175.213013</ele>
<time>2010-07-17T10:35:41Z</time>
<desc>lat.=55.729485, lon.=26.243902, Alt.=175.213013m. Speed=0.576000m/h.</desc>
<speed>0.160000</speed>
</trkpt>
<trkpt lat="55.729485" lon="26.243900">
<ele>175.127075</ele>
<time>2010-07-17T10:35:42Z</time>
<desc>lat.=55.729485, lon.=26.243900, Alt.=175.127075m. Speed=0.468000m/h.</desc>
<speed>0.130000</speed>
</trkpt>
<trkpt lat="55.729485" lon="26.243900">
<ele>175.041138</ele>
<time>2010-07-17T10:35:43Z</time>
<desc>lat.=55.729485, lon.=26.243900, Alt.=175.041138m. Speed=0.432000m/h.</desc>
<speed>0.120000</speed>
</trkpt>
<trkpt lat="55.729488" lon="26.243902">
<ele>174.959106</ele>
<time>2010-07-17T10:35:44Z</time>
<desc>lat.=55.729488, lon.=26.243902, Alt.=174.959106m. Speed=0.396000m/h.</desc>
<speed>0.110000</speed>
</trkpt>
<trkpt lat="55.729488" lon="26.243902">
<ele>174.877075</ele>
<time>2010-07-17T10:35:45Z</time>
<desc>lat.=55.729488, lon.=26.243902, Alt.=174.877075m. Speed=0.468000m/h.</desc>
<speed>0.130000</speed>
</trkpt>
<trkpt lat="55.729488" lon="26.243906">
<ele>174.791138</ele>
<time>2010-07-17T10:35:46Z</time>
<desc>lat.=55.729488, lon.=26.243906, Alt.=174.791138m. Speed=0.576000m/h.</desc>
<speed>0.160000</speed>
</trkpt>
<trkpt lat="55.729488" lon="26.243908">
<ele>174.701294</ele>
<time>2010-07-17T10:35:47Z</time>
<desc>lat.=55.729488, lon.=26.243908, Alt.=174.701294m. Speed=0.648000m/h.</desc>
<speed>0.180000</speed>
</trkpt>
<trkpt lat="55.729488" lon="26.243912">
<ele>174.615356</ele>
<time>2010-07-17T10:35:48Z</time>
<desc>lat.=55.729488, lon.=26.243912, Alt.=174.615356m. Speed=0.756000m/h.</desc>
<speed>0.210000</speed>
</trkpt>
<trkpt lat="55.729488" lon="26.243916">
<ele>174.521606</ele>
<time>2010-07-17T10:35:49Z</time>
<desc>lat.=55.729488, lon.=26.243916, Alt.=174.521606m. Speed=0.792000m/h.</desc>
<speed>0.220000</speed>
</trkpt>
<trkpt lat="55.729488" lon="26.243917">
<ele>174.431763</ele>
<time>2010-07-17T10:35:50Z</time>
<desc>lat.=55.729488, lon.=26.243917, Alt.=174.431763m. Speed=1.116000m/h.</desc>
<speed>0.310000</speed>
</trkpt>
<trkpt lat="55.729477" lon="26.243931">
<ele>174.338013</ele>
<time>2010-07-17T10:35:51Z</time>
<desc>lat.=55.729477, lon.=26.243931, Alt.=174.338013m. Speed=1.728000m/h.</desc>
<speed>0.480000</speed>
</trkpt>
<trkpt lat="55.729477" lon="26.243935">
<ele>174.302856</ele>
<time>2010-07-17T10:35:52Z</time>
<desc>lat.=55.729477, lon.=26.243935, Alt.=174.302856m. Speed=1.764000m/h.</desc>
<speed>0.490000</speed>
</trkpt>
<trkpt lat="55.729496" lon="26.243940">
<ele>174.420044</ele>
<time>2010-07-17T10:35:53Z</time>
<desc>lat.=55.729496, lon.=26.243940, Alt.=174.420044m. Speed=2.160000m/h.</desc>
<speed>0.600000</speed>
</trkpt>
<trkpt lat="55.729523" lon="26.243927">
<ele>174.341919</ele>
<time>2010-07-17T10:35:54Z</time>
<desc>lat.=55.729523, lon.=26.243927, Alt.=174.341919m. Speed=3.204000m/h.</desc>
<speed>0.890000</speed>
</trkpt>
<trkpt lat="55.729534" lon="26.243937">
<ele>174.255981</ele>
<time>2010-07-17T10:35:55Z</time>
<desc>lat.=55.729534, lon.=26.243937, Alt.=174.255981m. Speed=3.960000m/h.</desc>
<speed>1.100000</speed>
</trkpt>
<trkpt lat="55.729557" lon="26.243950">
<ele>174.162231</ele>
<time>2010-07-17T10:35:56Z</time>
<desc>lat.=55.729557, lon.=26.243950, Alt.=174.162231m. Speed=6.156000m/h.</desc>
<speed>1.710000</speed>
</trkpt>
<trkpt lat="55.729568" lon="26.243959">
<ele>174.080200</ele>
<time>2010-07-17T10:35:57Z</time>
<desc>lat.=55.729568, lon.=26.243959, Alt.=174.080200m. Speed=6.372000m/h.</desc>
<speed>1.770000</speed>
</trkpt>
<trkpt lat="55.729580" lon="26.243965">
<ele>174.005981</ele>
<time>2010-07-17T10:35:58Z</time>
<desc>lat.=55.729580, lon.=26.243965, Alt.=174.005981m. Speed=6.588000m/h.</desc>
<speed>1.830000</speed>
</trkpt>
<trkpt lat="55.729599" lon="26.243977">
<ele>174.002075</ele>
<time>2010-07-17T10:35:59Z</time>
<desc>lat.=55.729599, lon.=26.243977, Alt.=174.002075m. Speed=7.560000m/h.</desc>
<speed>2.100000</speed>
</trkpt>
<trkpt lat="55.729610" lon="26.243980">
<ele>173.927856</ele>
<time>2010-07-17T10:36:00Z</time>
<desc>lat.=55.729610, lon.=26.243980, Alt.=173.927856m. Speed=4.248000m/h.</desc>
<speed>1.180000</speed>
</trkpt>
<trkpt lat="55.729618" lon="26.243984">
<ele>173.818481</ele>
<time>2010-07-17T10:36:01Z</time>
<desc>lat.=55.729618, lon.=26.243984, Alt.=173.818481m. Speed=2.232000m/h.</desc>
<speed>0.620000</speed>
</trkpt>
<trkpt lat="55.729626" lon="26.243990">
<ele>173.787231</ele>
<time>2010-07-17T10:36:02Z</time>
<desc>lat.=55.729626, lon.=26.243990, Alt.=173.787231m. Speed=3.384000m/h.</desc>
<speed>0.940000</speed>
</trkpt>
<trkpt lat="55.729633" lon="26.243998">
<ele>173.611450</ele>
<time>2010-07-17T10:36:03Z</time>
<desc>lat.=55.729633, lon.=26.243998, Alt.=173.611450m. Speed=2.520000m/h.</desc>
<speed>0.700000</speed>
</trkpt>
<trkpt lat="55.729626" lon="26.243992">
<ele>173.291138</ele>
<time>2010-07-17T10:36:04Z</time>
<desc>lat.=55.729626, lon.=26.243992, Alt.=173.291138m. Speed=1.044000m/h.</desc>
<speed>0.290000</speed>
</trkpt>
<trkpt lat="55.729618" lon="26.243977">
<ele>173.181763</ele>
<time>2010-07-17T10:36:05Z</time>
<desc>lat.=55.729618, lon.=26.243977, Alt.=173.181763m. Speed=1.512000m/h.</desc>
<speed>0.420000</speed>
</trkpt>
<trkpt lat="55.729618" lon="26.243977">
<ele>173.021606</ele>
<time>2010-07-17T10:36:06Z</time>
<desc>lat.=55.729618, lon.=26.243977, Alt.=173.021606m. Speed=1.080000m/h.</desc>
<speed>0.300000</speed>
</trkpt>
<trkpt lat="55.729618" lon="26.243979">
<ele>172.841919</ele>
<time>2010-07-17T10:36:07Z</time>
<desc>lat.=55.729618, lon.=26.243979, Alt.=172.841919m. Speed=0.828000m/h.</desc>
<speed>0.230000</speed>
</trkpt>
<trkpt lat="55.729614" lon="26.243980">
<ele>172.677856</ele>
<time>2010-07-17T10:36:08Z</time>
<desc>lat.=55.729614, lon.=26.243980, Alt.=172.677856m. Speed=0.720000m/h.</desc>
<speed>0.200000</speed>
</trkpt>
<trkpt lat="55.729614" lon="26.243980">
<ele>172.564575</ele>
<time>2010-07-17T10:36:09Z</time>
<desc>lat.=55.729614, lon.=26.243980, Alt.=172.564575m. Speed=0.576000m/h.</desc>
<speed>0.160000</speed>
</trkpt>
<trkpt lat="55.729618" lon="26.243986">
<ele>172.431763</ele>
<time>2010-07-17T10:36:10Z</time>
<desc>lat.=55.729618, lon.=26.243986, Alt.=172.431763m. Speed=0.468000m/h.</desc>
<speed>0.130000</speed>
</trkpt>
<trkpt lat="55.729618" lon="26.243984">
<ele>172.287231</ele>
<time>2010-07-17T10:36:11Z</time>
<desc>lat.=55.729618, lon.=26.243984, Alt.=172.287231m. Speed=0.504000m/h.</desc>
<speed>0.140000</speed>
</trkpt>
<trkpt lat="55.729618" lon="26.243982">
<ele>172.138794</ele>
<time>2010-07-17T10:36:12Z</time>
<desc>lat.=55.729618, lon.=26.243982, Alt.=172.138794m. Speed=0.396000m/h.</desc>
<speed>0.110000</speed>
</trkpt>
<trkpt lat="55.729622" lon="26.243980">
<ele>171.994263</ele>
<time>2010-07-17T10:36:13Z</time>
<desc>lat.=55.729622, lon.=26.243980, Alt.=171.994263m. Speed=0.000000m/h.</desc>
<speed>0.000000</speed>
</trkpt>
<trkpt lat="55.729622" lon="26.243980">
<ele>171.849731</ele>
<time>2010-07-17T10:36:14Z</time>
<desc>lat.=55.729622, lon.=26.243980, Alt.=171.849731m. Speed=0.180000m/h.</desc>
<speed>0.050000</speed>
</trkpt>
<trkpt lat="55.729622" lon="26.243982">
<ele>171.705200</ele>
<time>2010-07-17T10:36:15Z</time>
<desc>lat.=55.729622, lon.=26.243982, Alt.=171.705200m. Speed=0.684000m/h.</desc>
<speed>0.190000</speed>
</trkpt>
<trkpt lat="55.729622" lon="26.243984">
<ele>171.564575</ele>
<time>2010-07-17T10:36:16Z</time>
<desc>lat.=55.729622, lon.=26.243984, Alt.=171.564575m. Speed=1.260000m/h.</desc>
<speed>0.350000</speed>
</trkpt>
<trkpt lat="55.729626" lon="26.244001">
<ele>171.615356</ele>
<time>2010-07-17T10:36:17Z</time>
<desc>lat.=55.729626, lon.=26.244001, Alt.=171.615356m. Speed=1.404000m/h.</desc>
<speed>0.390000</speed>
</trkpt>
<trkpt lat="55.729637" lon="26.244017">
<ele>171.615356</ele>
<time>2010-07-17T10:36:18Z</time>
<desc>lat.=55.729637, lon.=26.244017, Alt.=171.615356m. Speed=1.800000m/h.</desc>
<speed>0.500000</speed>
</trkpt>
<trkpt lat="55.729649" lon="26.244026">
<ele>171.724731</ele>
<time>2010-07-17T10:36:19Z</time>
<desc>lat.=55.729649, lon.=26.244026, Alt.=171.724731m. Speed=2.376000m/h.</desc>
<speed>0.660000</speed>
</trkpt>
<trkpt lat="55.729671" lon="26.244024">
<ele>171.545044</ele>
<time>2010-07-17T10:36:20Z</time>
<desc>lat.=55.729671, lon.=26.244024, Alt.=171.545044m. Speed=4.104000m/h.</desc>
<speed>1.140000</speed>
</trkpt>
<trkpt lat="55.729691" lon="26.244024">
<ele>171.373169</ele>
<time>2010-07-17T10:36:21Z</time>
<desc>lat.=55.729691, lon.=26.244024, Alt.=171.373169m. Speed=4.788000m/h.</desc>
<speed>1.330000</speed>
</trkpt>
<trkpt lat="55.729725" lon="26.244020">
<ele>170.584106</ele>
<time>2010-07-17T10:36:22Z</time>
<desc>lat.=55.729725, lon.=26.244020, Alt.=170.584106m. Speed=11.376000m/h.</desc>
<speed>3.160000</speed>
</trkpt>
<trkpt lat="55.729759" lon="26.243977">
<ele>169.939575</ele>
<time>2010-07-17T10:36:23Z</time>
<desc>lat.=55.729759, lon.=26.243977, Alt.=169.939575m. Speed=9.540000m/h.</desc>
<speed>2.650000</speed>
</trkpt>
<trkpt lat="55.729786" lon="26.243965">
<ele>169.146606</ele>
<time>2010-07-17T10:36:24Z</time>
<desc>lat.=55.729786, lon.=26.243965, Alt.=169.146606m. Speed=10.296000m/h.</desc>
<speed>2.860000</speed>
</trkpt>
<trkpt lat="55.729820" lon="26.243954">
<ele>168.556763</ele>
<time>2010-07-17T10:36:25Z</time>
<desc>lat.=55.729820, lon.=26.243954, Alt.=168.556763m. Speed=13.284000m/h.</desc>
<speed>3.690000</speed>
</trkpt>
<trkpt lat="55.729855" lon="26.243942">
<ele>168.158325</ele>
<time>2010-07-17T10:36:26Z</time>
<desc>lat.=55.729855, lon.=26.243942, Alt.=168.158325m. Speed=12.996000m/h.</desc>
<speed>3.610000</speed>
</trkpt>
<trkpt lat="55.729885" lon="26.243921">
<ele>167.619263</ele>
<time>2010-07-17T10:36:27Z</time>
<desc>lat.=55.729885, lon.=26.243921, Alt.=167.619263m. Speed=10.764000m/h.</desc>
<speed>2.990000</speed>
</trkpt>
<trkpt lat="55.729908" lon="26.243906">
<ele>167.064575</ele>
<time>2010-07-17T10:36:28Z</time>
<desc>lat.=55.729908, lon.=26.243906, Alt.=167.064575m. Speed=8.928000m/h.</desc>
<speed>2.480000</speed>
</trkpt>
<trkpt lat="55.729931" lon="26.243902">
<ele>166.533325</ele>
<time>2010-07-17T10:36:29Z</time>
<desc>lat.=55.729931, lon.=26.243902, Alt.=166.533325m. Speed=8.352000m/h.</desc>
<speed>2.320000</speed>
</trkpt>
<trkpt lat="55.729969" lon="26.243900">
<ele>165.998169</ele>
<time>2010-07-17T10:36:30Z</time>
<desc>lat.=55.729969, lon.=26.243900, Alt.=165.998169m. Speed=11.988000m/h.</desc>
<speed>3.330000</speed>
</trkpt>
<trkpt lat="55.730015" lon="26.243887">
<ele>164.951294</ele>
<time>2010-07-17T10:36:31Z</time>
<desc>lat.=55.730015, lon.=26.243887, Alt.=164.951294m. Speed=9.072000m/h.</desc>
<speed>2.520000</speed>
</trkpt>
<trkpt lat="55.730038" lon="26.243887">
<ele>164.498169</ele>
<time>2010-07-17T10:36:32Z</time>
<desc>lat.=55.730038, lon.=26.243887, Alt.=164.498169m. Speed=7.704000m/h.</desc>
<speed>2.140000</speed>
</trkpt>
<trkpt lat="55.730057" lon="26.243895">
<ele>164.166138</ele>
<time>2010-07-17T10:36:33Z</time>
<desc>lat.=55.730057, lon.=26.243895, Alt.=164.166138m. Speed=4.788000m/h.</desc>
<speed>1.330000</speed>
</trkpt>
<trkpt lat="55.730083" lon="26.243912">
<ele>164.029419</ele>
<time>2010-07-17T10:36:34Z</time>
<desc>lat.=55.730083, lon.=26.243912, Alt.=164.029419m. Speed=6.948000m/h.</desc>
<speed>1.930000</speed>
</trkpt>
<trkpt lat="55.730110" lon="26.243950">
<ele>163.670044</ele>
<time>2010-07-17T10:36:35Z</time>
<desc>lat.=55.730110, lon.=26.243950, Alt.=163.670044m. Speed=5.220000m/h.</desc>
<speed>1.450000</speed>
</trkpt>
<trkpt lat="55.730133" lon="26.243979">
<ele>163.021606</ele>
<time>2010-07-17T10:36:36Z</time>
<desc>lat.=55.730133, lon.=26.243979, Alt.=163.021606m. Speed=7.488000m/h.</desc>
<speed>2.080000</speed>
</trkpt>
<trkpt lat="55.730167" lon="26.244013">
<ele>162.349731</ele>
<time>2010-07-17T10:36:37Z</time>
<desc>lat.=55.730167, lon.=26.244013, Alt.=162.349731m. Speed=8.532000m/h.</desc>
<speed>2.370000</speed>
</trkpt>
<trkpt lat="55.730186" lon="26.244043">
<ele>161.369263</ele>
<time>2010-07-17T10:36:38Z</time>
<desc>lat.=55.730186, lon.=26.244043, Alt.=161.369263m. Speed=5.544000m/h.</desc>
<speed>1.540000</speed>
</trkpt>
<trkpt lat="55.730198" lon="26.244072">
<ele>160.576294</ele>
<time>2010-07-17T10:36:39Z</time>
<desc>lat.=55.730198, lon.=26.244072, Alt.=160.576294m. Speed=4.572000m/h.</desc>
<speed>1.270000</speed>
</trkpt>
<trkpt lat="55.730221" lon="26.244120">
<ele>159.935669</ele>
<time>2010-07-17T10:36:40Z</time>
<desc>lat.=55.730221, lon.=26.244120, Alt.=159.935669m. Speed=7.020000m/h.</desc>
<speed>1.950000</speed>
</trkpt>
<trkpt lat="55.730251" lon="26.244200">
<ele>159.302856</ele>
<time>2010-07-17T10:36:41Z</time>
<desc>lat.=55.730251, lon.=26.244200, Alt.=159.302856m. Speed=9.756000m/h.</desc>
<speed>2.710000</speed>
</trkpt>
<trkpt lat="55.730267" lon="26.244247">
<ele>158.560669</ele>
<time>2010-07-17T10:36:42Z</time>
<desc>lat.=55.730267, lon.=26.244247, Alt.=158.560669m. Speed=7.128000m/h.</desc>
<speed>1.980000</speed>
</trkpt>
<trkpt lat="55.730293" lon="26.244278">
<ele>158.158325</ele>
<time>2010-07-17T10:36:43Z</time>
<desc>lat.=55.730293, lon.=26.244278, Alt.=158.158325m. Speed=6.408000m/h.</desc>
<speed>1.780000</speed>
</trkpt>
<trkpt lat="55.730305" lon="26.244310">
<ele>157.666138</ele>
<time>2010-07-17T10:36:44Z</time>
<desc>lat.=55.730305, lon.=26.244310, Alt.=157.666138m. Speed=6.156000m/h.</desc>
<speed>1.710000</speed>
</trkpt>
<trkpt lat="55.730320" lon="26.244362">
<ele>157.158325</ele>
<time>2010-07-17T10:36:45Z</time>
<desc>lat.=55.730320, lon.=26.244362, Alt.=157.158325m. Speed=9.972000m/h.</desc>
<speed>2.770000</speed>
</trkpt>
<trkpt lat="55.730339" lon="26.244406">
<ele>156.627075</ele>
<time>2010-07-17T10:36:46Z</time>
<desc>lat.=55.730339, lon.=26.244406, Alt.=156.627075m. Speed=9.972000m/h.</desc>
<speed>2.770000</speed>
</trkpt>
<trkpt lat="55.730354" lon="26.244452">
<ele>156.099731</ele>
<time>2010-07-17T10:36:47Z</time>
<desc>lat.=55.730354, lon.=26.244452, Alt.=156.099731m. Speed=10.404000m/h.</desc>
<speed>2.890000</speed>
</trkpt>
<trkpt lat="55.730366" lon="26.244492">
<ele>155.697388</ele>
<time>2010-07-17T10:36:48Z</time>
<desc>lat.=55.730366, lon.=26.244492, Alt.=155.697388m. Speed=6.300000m/h.</desc>
<speed>1.750000</speed>
</trkpt>
<trkpt lat="55.730373" lon="26.244516">
<ele>155.412231</ele>
<time>2010-07-17T10:36:49Z</time>
<desc>lat.=55.730373, lon.=26.244516, Alt.=155.412231m. Speed=5.076000m/h.</desc>
<speed>1.410000</speed>
</trkpt>
<trkpt lat="55.730389" lon="26.244556">
<ele>155.107544</ele>
<time>2010-07-17T10:36:50Z</time>
<desc>lat.=55.730389, lon.=26.244556, Alt.=155.107544m. Speed=6.660000m/h.</desc>
<speed>1.850000</speed>
</trkpt>
<trkpt lat="55.730400" lon="26.244591">
<ele>154.947388</ele>
<time>2010-07-17T10:36:51Z</time>
<desc>lat.=55.730400, lon.=26.244591, Alt.=154.947388m. Speed=6.516000m/h.</desc>
<speed>1.810000</speed>
</trkpt>
<trkpt lat="55.730408" lon="26.244644">
<ele>154.408325</ele>
<time>2010-07-17T10:36:52Z</time>
<desc>lat.=55.730408, lon.=26.244644, Alt.=154.408325m. Speed=8.388000m/h.</desc>
<speed>2.330000</speed>
</trkpt>
<trkpt lat="55.730423" lon="26.244698">
<ele>154.056763</ele>
<time>2010-07-17T10:36:53Z</time>
<desc>lat.=55.730423, lon.=26.244698, Alt.=154.056763m. Speed=10.080000m/h.</desc>
<speed>2.800000</speed>
</trkpt>
<trkpt lat="55.730442" lon="26.244762">
<ele>153.775513</ele>
<time>2010-07-17T10:36:54Z</time>
<desc>lat.=55.730442, lon.=26.244762, Alt.=153.775513m. Speed=9.720000m/h.</desc>
<speed>2.700000</speed>
</trkpt>
<trkpt lat="55.730461" lon="26.244823">
<ele>153.400513</ele>
<time>2010-07-17T10:36:55Z</time>
<desc>lat.=55.730461, lon.=26.244823, Alt.=153.400513m. Speed=10.872000m/h.</desc>
<speed>3.020000</speed>
</trkpt>
<trkpt lat="55.730488" lon="26.244871">
<ele>152.838013</ele>
<time>2010-07-17T10:36:56Z</time>
<desc>lat.=55.730488, lon.=26.244871, Alt.=152.838013m. Speed=10.944000m/h.</desc>
<speed>3.040000</speed>
</trkpt>
<trkpt lat="55.730499" lon="26.244932">
<ele>152.603638</ele>
<time>2010-07-17T10:36:57Z</time>
<desc>lat.=55.730499, lon.=26.244932, Alt.=152.603638m. Speed=9.684000m/h.</desc>
<speed>2.690000</speed>
</trkpt>
<trkpt lat="55.730507" lon="26.244986">
<ele>152.220825</ele>
<time>2010-07-17T10:36:58Z</time>
<desc>lat.=55.730507, lon.=26.244986, Alt.=152.220825m. Speed=8.352000m/h.</desc>
<speed>2.320000</speed>
</trkpt>
<trkpt lat="55.730522" lon="26.245050">
<ele>151.927856</ele>
<time>2010-07-17T10:36:59Z</time>
<desc>lat.=55.730522, lon.=26.245050, Alt.=151.927856m. Speed=10.944000m/h.</desc>
<speed>3.040000</speed>
</trkpt>
<trkpt lat="55.730541" lon="26.245121">
<ele>151.634888</ele>
<time>2010-07-17T10:37:00Z</time>
<desc>lat.=55.730541, lon.=26.245121, Alt.=151.634888m. Speed=13.536000m/h.</desc>
<speed>3.760000</speed>
</trkpt>
<trkpt lat="55.730564" lon="26.245195">
<ele>151.255981</ele>
<time>2010-07-17T10:37:01Z</time>
<desc>lat.=55.730564, lon.=26.245195, Alt.=151.255981m. Speed=15.660000m/h.</desc>
<speed>4.350000</speed>
</trkpt>
<trkpt lat="55.730583" lon="26.245268">
<ele>150.670044</ele>
<time>2010-07-17T10:37:02Z</time>
<desc>lat.=55.730583, lon.=26.245268, Alt.=150.670044m. Speed=13.608000m/h.</desc>
<speed>3.780000</speed>
</trkpt>
<trkpt lat="55.730602" lon="26.245337">
<ele>150.377075</ele>
<time>2010-07-17T10:37:03Z</time>
<desc>lat.=55.730602, lon.=26.245337, Alt.=150.377075m. Speed=12.672000m/h.</desc>
<speed>3.520000</speed>
</trkpt>
<trkpt lat="55.730618" lon="26.245405">
<ele>150.037231</ele>
<time>2010-07-17T10:37:04Z</time>
<desc>lat.=55.730618, lon.=26.245405, Alt.=150.037231m. Speed=10.404000m/h.</desc>
<speed>2.890000</speed>
</trkpt>
<trkpt lat="55.730637" lon="26.245464">
<ele>149.463013</ele>
<time>2010-07-17T10:37:05Z</time>
<desc>lat.=55.730637, lon.=26.245464, Alt.=149.463013m. Speed=10.080000m/h.</desc>
<speed>2.800000</speed>
</trkpt>
<trkpt lat="55.730644" lon="26.245523">
<ele>149.021606</ele>
<time>2010-07-17T10:37:06Z</time>
<desc>lat.=55.730644, lon.=26.245523, Alt.=149.021606m. Speed=8.712000m/h.</desc>
<speed>2.420000</speed>
</trkpt>
<trkpt lat="55.730713" lon="26.245577">
<ele>150.552856</ele>
<time>2010-07-17T10:37:07Z</time>
<desc>lat.=55.730713, lon.=26.245577, Alt.=150.552856m. Speed=9.576000m/h.</desc>
<speed>2.660000</speed>
</trkpt>
<trkpt lat="55.730747" lon="26.245623">
<ele>150.869263</ele>
<time>2010-07-17T10:37:08Z</time>
<desc>lat.=55.730747, lon.=26.245623, Alt.=150.869263m. Speed=7.452000m/h.</desc>
<speed>2.070000</speed>
</trkpt>
<trkpt lat="55.730766" lon="26.245661">
<ele>150.806763</ele>
<time>2010-07-17T10:37:09Z</time>
<desc>lat.=55.730766, lon.=26.245661, Alt.=150.806763m. Speed=4.212000m/h.</desc>
<speed>1.170000</speed>
</trkpt>
<trkpt lat="55.730789" lon="26.245699">
<ele>150.939575</ele>
<time>2010-07-17T10:37:10Z</time>
<desc>lat.=55.730789, lon.=26.245699, Alt.=150.939575m. Speed=3.780000m/h.</desc>
<speed>1.050000</speed>
</trkpt>
<trkpt lat="55.730804" lon="26.245741">
<ele>150.908325</ele>
<time>2010-07-17T10:37:11Z</time>
<desc>lat.=55.730804, lon.=26.245741, Alt.=150.908325m. Speed=5.148000m/h.</desc>
<speed>1.430000</speed>
</trkpt>
<trkpt lat="55.730820" lon="26.245783">
<ele>151.068481</ele>
<time>2010-07-17T10:37:12Z</time>
<desc>lat.=55.730820, lon.=26.245783, Alt.=151.068481m. Speed=6.084000m/h.</desc>
<speed>1.690000</speed>
</trkpt>
<trkpt lat="55.730827" lon="26.245827">
<ele>150.923950</ele>
<time>2010-07-17T10:37:13Z</time>
<desc>lat.=55.730827, lon.=26.245827, Alt.=150.923950m. Speed=6.804000m/h.</desc>
<speed>1.890000</speed>
</trkpt>
<trkpt lat="55.730835" lon="26.245876">
<ele>150.736450</ele>
<time>2010-07-17T10:37:14Z</time>
<desc>lat.=55.730835, lon.=26.245876, Alt.=150.736450m. Speed=6.516000m/h.</desc>
<speed>1.810000</speed>
</trkpt>
<trkpt lat="55.730839" lon="26.245918">
<ele>150.509888</ele>
<time>2010-07-17T10:37:15Z</time>
<desc>lat.=55.730839, lon.=26.245918, Alt.=150.509888m. Speed=2.700000m/h.</desc>
<speed>0.750000</speed>
</trkpt>
<trkpt lat="55.730835" lon="26.245939">
<ele>150.084106</ele>
<time>2010-07-17T10:37:16Z</time>
<desc>lat.=55.730835, lon.=26.245939, Alt.=150.084106m. Speed=2.376000m/h.</desc>
<speed>0.660000</speed>
</trkpt>
<trkpt lat="55.730827" lon="26.245966">
<ele>150.205200</ele>
<time>2010-07-17T10:37:17Z</time>
<desc>lat.=55.730827, lon.=26.245966, Alt.=150.205200m. Speed=3.132000m/h.</desc>
<speed>0.870000</speed>
</trkpt>
<trkpt lat="55.730824" lon="26.246002">
<ele>150.494263</ele>
<time>2010-07-17T10:37:18Z</time>
<desc>lat.=55.730824, lon.=26.246002, Alt.=150.494263m. Speed=3.564000m/h.</desc>
<speed>0.990000</speed>
</trkpt>
<trkpt lat="55.730831" lon="26.246069">
<ele>151.884888</ele>
<time>2010-07-17T10:37:19Z</time>
<desc>lat.=55.730831, lon.=26.246069, Alt.=151.884888m. Speed=3.132000m/h.</desc>
<speed>0.870000</speed>
</trkpt>
<trkpt lat="55.730843" lon="26.246122">
<ele>152.877075</ele>
<time>2010-07-17T10:37:20Z</time>
<desc>lat.=55.730843, lon.=26.246122, Alt.=152.877075m. Speed=2.340000m/h.</desc>
<speed>0.650000</speed>
</trkpt>
<trkpt lat="55.730835" lon="26.246140">
<ele>153.064575</ele>
<time>2010-07-17T10:37:21Z</time>
<desc>lat.=55.730835, lon.=26.246140, Alt.=153.064575m. Speed=2.448000m/h.</desc>
<speed>0.680000</speed>
</trkpt>
<trkpt lat="55.730835" lon="26.246178">
<ele>153.795044</ele>
<time>2010-07-17T10:37:22Z</time>
<desc>lat.=55.730835, lon.=26.246178, Alt.=153.795044m. Speed=2.376000m/h.</desc>
<speed>0.660000</speed>
</trkpt>
<trkpt lat="55.730839" lon="26.246195">
<ele>154.248169</ele>
<time>2010-07-17T10:37:23Z</time>
<desc>lat.=55.730839, lon.=26.246195, Alt.=154.248169m. Speed=1.440000m/h.</desc>
<speed>0.400000</speed>
</trkpt>
<trkpt lat="55.730846" lon="26.246202">
<ele>154.720825</ele>
<time>2010-07-17T10:37:24Z</time>
<desc>lat.=55.730846, lon.=26.246202, Alt.=154.720825m. Speed=1.116000m/h.</desc>
<speed>0.310000</speed>
</trkpt>
<trkpt lat="55.730854" lon="26.246201">
<ele>154.927856</ele>
<time>2010-07-17T10:37:25Z</time>
<desc>lat.=55.730854, lon.=26.246201, Alt.=154.927856m. Speed=0.864000m/h.</desc>
<speed>0.240000</speed>
</trkpt>
<trkpt lat="55.730846" lon="26.246191">
<ele>155.384888</ele>
<time>2010-07-17T10:37:26Z</time>
<desc>lat.=55.730846, lon.=26.246191, Alt.=155.384888m. Speed=1.296000m/h.</desc>
<speed>0.360000</speed>
</trkpt>
<trkpt lat="55.730843" lon="26.246180">
<ele>155.701294</ele>
<time>2010-07-17T10:37:27Z</time>
<desc>lat.=55.730843, lon.=26.246180, Alt.=155.701294m. Speed=1.080000m/h.</desc>
<speed>0.300000</speed>
</trkpt>
<trkpt lat="55.730839" lon="26.246172">
<ele>156.322388</ele>
<time>2010-07-17T10:37:28Z</time>
<desc>lat.=55.730839, lon.=26.246172, Alt.=156.322388m. Speed=1.044000m/h.</desc>
<speed>0.290000</speed>
</trkpt>
<trkpt lat="55.730835" lon="26.246157">
<ele>156.572388</ele>
<time>2010-07-17T10:37:29Z</time>
<desc>lat.=55.730835, lon.=26.246157, Alt.=156.572388m. Speed=0.864000m/h.</desc>
<speed>0.240000</speed>
</trkpt>
<trkpt lat="55.730835" lon="26.246143">
<ele>157.072388</ele>
<time>2010-07-17T10:37:30Z</time>
<desc>lat.=55.730835, lon.=26.246143, Alt.=157.072388m. Speed=0.540000m/h.</desc>
<speed>0.150000</speed>
</trkpt>
<trkpt lat="55.730843" lon="26.246134">
<ele>157.521606</ele>
<time>2010-07-17T10:37:31Z</time>
<desc>lat.=55.730843, lon.=26.246134, Alt.=157.521606m. Speed=0.252000m/h.</desc>
<speed>0.070000</speed>
</trkpt>
<trkpt lat="55.730843" lon="26.246132">
<ele>157.451294</ele>
<time>2010-07-17T10:37:32Z</time>
<desc>lat.=55.730843, lon.=26.246132, Alt.=157.451294m. Speed=0.288000m/h.</desc>
<speed>0.080000</speed>
</trkpt>
<trkpt lat="55.730843" lon="26.246130">
<ele>157.396606</ele>
<time>2010-07-17T10:37:33Z</time>
<desc>lat.=55.730843, lon.=26.246130, Alt.=157.396606m. Speed=0.288000m/h.</desc>
<speed>0.080000</speed>
</trkpt>
<trkpt lat="55.730843" lon="26.246128">
<ele>157.341919</ele>
<time>2010-07-17T10:37:34Z</time>
<desc>lat.=55.730843, lon.=26.246128, Alt.=157.341919m. Speed=0.324000m/h.</desc>
<speed>0.090000</speed>
</trkpt>
<trkpt lat="55.730843" lon="26.246128">
<ele>157.283325</ele>
<time>2010-07-17T10:37:35Z</time>
<desc>lat.=55.730843, lon.=26.246128, Alt.=157.283325m. Speed=0.468000m/h.</desc>
<speed>0.130000</speed>
</trkpt>
<trkpt lat="55.730843" lon="26.246126">
<ele>157.228638</ele>
<time>2010-07-17T10:37:36Z</time>
<desc>lat.=55.730843, lon.=26.246126, Alt.=157.228638m. Speed=0.468000m/h.</desc>
<speed>0.130000</speed>
</trkpt>
<trkpt lat="55.730846" lon="26.246124">
<ele>157.173950</ele>
<time>2010-07-17T10:37:37Z</time>
<desc>lat.=55.730846, lon.=26.246124, Alt.=157.173950m. Speed=0.540000m/h.</desc>
<speed>0.150000</speed>
</trkpt>
<trkpt lat="55.730846" lon="26.246122">
<ele>157.130981</ele>
<time>2010-07-17T10:37:38Z</time>
<desc>lat.=55.730846, lon.=26.246122, Alt.=157.130981m. Speed=0.324000m/h.</desc>
<speed>0.090000</speed>
</trkpt>
<trkpt lat="55.730846" lon="26.246120">
<ele>157.084106</ele>
<time>2010-07-17T10:37:39Z</time>
<desc>lat.=55.730846, lon.=26.246120, Alt.=157.084106m. Speed=0.504000m/h.</desc>
<speed>0.140000</speed>
</trkpt>
<trkpt lat="55.730846" lon="26.246119">
<ele>157.041138</ele>
<time>2010-07-17T10:37:40Z</time>
<desc>lat.=55.730846, lon.=26.246119, Alt.=157.041138m. Speed=0.468000m/h.</desc>
<speed>0.130000</speed>
</trkpt>
<trkpt lat="55.730846" lon="26.246117">
<ele>157.005981</ele>
<time>2010-07-17T10:37:41Z</time>
<desc>lat.=55.730846, lon.=26.246117, Alt.=157.005981m. Speed=0.288000m/h.</desc>
<speed>0.080000</speed>
</trkpt>
<trkpt lat="55.730850" lon="26.246117">
<ele>156.970825</ele>
<time>2010-07-17T10:37:42Z</time>
<desc>lat.=55.730850, lon.=26.246117, Alt.=156.970825m. Speed=0.468000m/h.</desc>
<speed>0.130000</speed>
</trkpt>
<trkpt lat="55.730850" lon="26.246115">
<ele>156.963013</ele>
<time>2010-07-17T10:37:43Z</time>
<desc>lat.=55.730850, lon.=26.246115, Alt.=156.963013m. Speed=0.540000m/h.</desc>
<speed>0.150000</speed>
</trkpt>
<trkpt lat="55.730850" lon="26.246115">
<ele>156.959106</ele>
<time>2010-07-17T10:37:44Z</time>
<desc>lat.=55.730850, lon.=26.246115, Alt.=156.959106m. Speed=0.792000m/h.</desc>
<speed>0.220000</speed>
</trkpt>
<trkpt lat="55.730854" lon="26.246113">
<ele>156.943481</ele>
<time>2010-07-17T10:37:45Z</time>
<desc>lat.=55.730854, lon.=26.246113, Alt.=156.943481m. Speed=0.864000m/h.</desc>
<speed>0.240000</speed>
</trkpt>
<trkpt lat="55.730854" lon="26.246113">
<ele>156.947388</ele>
<time>2010-07-17T10:37:46Z</time>
<desc>lat.=55.730854, lon.=26.246113, Alt.=156.947388m. Speed=0.612000m/h.</desc>
<speed>0.170000</speed>
</trkpt>
<trkpt lat="55.730858" lon="26.246111">
<ele>156.935669</ele>
<time>2010-07-17T10:37:47Z</time>
<desc>lat.=55.730858, lon.=26.246111, Alt.=156.935669m. Speed=0.540000m/h.</desc>
<speed>0.150000</speed>
</trkpt>
<trkpt lat="55.730858" lon="26.246111">
<ele>156.916138</ele>
<time>2010-07-17T10:37:48Z</time>
<desc>lat.=55.730858, lon.=26.246111, Alt.=156.916138m. Speed=0.324000m/h.</desc>
<speed>0.090000</speed>
</trkpt>
<trkpt lat="55.730858" lon="26.246109">
<ele>156.916138</ele>
<time>2010-07-17T10:37:49Z</time>
<desc>lat.=55.730858, lon.=26.246109, Alt.=156.916138m. Speed=0.360000m/h.</desc>
<speed>0.100000</speed>
</trkpt>
<trkpt lat="55.730858" lon="26.246107">
<ele>156.904419</ele>
<time>2010-07-17T10:37:50Z</time>
<desc>lat.=55.730858, lon.=26.246107, Alt.=156.904419m. Speed=0.504000m/h.</desc>
<speed>0.140000</speed>
</trkpt>
<trkpt lat="55.730858" lon="26.246105">
<ele>156.896606</ele>
<time>2010-07-17T10:37:51Z</time>
<desc>lat.=55.730858, lon.=26.246105, Alt.=156.896606m. Speed=0.504000m/h.</desc>
<speed>0.140000</speed>
</trkpt>
<trkpt lat="55.730858" lon="26.246101">
<ele>156.888794</ele>
<time>2010-07-17T10:37:52Z</time>
<desc>lat.=55.730858, lon.=26.246101, Alt.=156.888794m. Speed=0.504000m/h.</desc>
<speed>0.140000</speed>
</trkpt>
<trkpt lat="55.730858" lon="26.246099">
<ele>156.888794</ele>
<time>2010-07-17T10:37:53Z</time>
<desc>lat.=55.730858, lon.=26.246099, Alt.=156.888794m. Speed=0.648000m/h.</desc>
<speed>0.180000</speed>
</trkpt>
<trkpt lat="55.730858" lon="26.246096">
<ele>156.884888</ele>
<time>2010-07-17T10:37:54Z</time>
<desc>lat.=55.730858, lon.=26.246096, Alt.=156.884888m. Speed=0.756000m/h.</desc>
<speed>0.210000</speed>
</trkpt>
<trkpt lat="55.730858" lon="26.246094">
<ele>156.884888</ele>
<time>2010-07-17T10:37:55Z</time>
<desc>lat.=55.730858, lon.=26.246094, Alt.=156.884888m. Speed=0.900000m/h.</desc>
<speed>0.250000</speed>
</trkpt>
<trkpt lat="55.730858" lon="26.246088">
<ele>156.888794</ele>
<time>2010-07-17T10:37:56Z</time>
<desc>lat.=55.730858, lon.=26.246088, Alt.=156.888794m. Speed=1.044000m/h.</desc>
<speed>0.290000</speed>
</trkpt>
<trkpt lat="55.730858" lon="26.246084">
<ele>156.892700</ele>
<time>2010-07-17T10:37:57Z</time>
<desc>lat.=55.730858, lon.=26.246084, Alt.=156.892700m. Speed=0.972000m/h.</desc>
<speed>0.270000</speed>
</trkpt>
<trkpt lat="55.730858" lon="26.246078">
<ele>156.904419</ele>
<time>2010-07-17T10:37:58Z</time>
<desc>lat.=55.730858, lon.=26.246078, Alt.=156.904419m. Speed=1.080000m/h.</desc>
<speed>0.300000</speed>
</trkpt>
<trkpt lat="55.730869" lon="26.246063">
<ele>157.263794</ele>
<time>2010-07-17T10:37:59Z</time>
<desc>lat.=55.730869, lon.=26.246063, Alt.=157.263794m. Speed=1.044000m/h.</desc>
<speed>0.290000</speed>
</trkpt>
<trkpt lat="55.730873" lon="26.246054">
<ele>157.670044</ele>
<time>2010-07-17T10:38:00Z</time>
<desc>lat.=55.730873, lon.=26.246054, Alt.=157.670044m. Speed=1.116000m/h.</desc>
<speed>0.310000</speed>
</trkpt>
<trkpt lat="55.730873" lon="26.246046">
<ele>157.802856</ele>
<time>2010-07-17T10:38:01Z</time>
<desc>lat.=55.730873, lon.=26.246046, Alt.=157.802856m. Speed=1.080000m/h.</desc>
<speed>0.300000</speed>
</trkpt>
<trkpt lat="55.730869" lon="26.246033">
<ele>158.037231</ele>
<time>2010-07-17T10:38:02Z</time>
<desc>lat.=55.730869, lon.=26.246033, Alt.=158.037231m. Speed=1.260000m/h.</desc>
<speed>0.350000</speed>
</trkpt>
<trkpt lat="55.730869" lon="26.246021">
<ele>158.338013</ele>
<time>2010-07-17T10:38:03Z</time>
<desc>lat.=55.730869, lon.=26.246021, Alt.=158.338013m. Speed=1.404000m/h.</desc>
<speed>0.390000</speed>
</trkpt>
<trkpt lat="55.730881" lon="26.246002">
<ele>158.763794</ele>
<time>2010-07-17T10:38:04Z</time>
<desc>lat.=55.730881, lon.=26.246002, Alt.=158.763794m. Speed=1.620000m/h.</desc>
<speed>0.450000</speed>
</trkpt>
<trkpt lat="55.730885" lon="26.245989">
<ele>158.599731</ele>
<time>2010-07-17T10:38:05Z</time>
<desc>lat.=55.730885, lon.=26.245989, Alt.=158.599731m. Speed=1.620000m/h.</desc>
<speed>0.450000</speed>
</trkpt>
<trkpt lat="55.730885" lon="26.245972">
<ele>158.298950</ele>
<time>2010-07-17T10:38:06Z</time>
<desc>lat.=55.730885, lon.=26.245972, Alt.=158.298950m. Speed=1.620000m/h.</desc>
<speed>0.450000</speed>
</trkpt>
<trkpt lat="55.730885" lon="26.245958">
<ele>158.095825</ele>
<time>2010-07-17T10:38:07Z</time>
<desc>lat.=55.730885, lon.=26.245958, Alt.=158.095825m. Speed=1.620000m/h.</desc>
<speed>0.450000</speed>
</trkpt>
<trkpt lat="55.730900" lon="26.245947">
<ele>158.599731</ele>
<time>2010-07-17T10:38:08Z</time>
<desc>lat.=55.730900, lon.=26.245947, Alt.=158.599731m. Speed=1.584000m/h.</desc>
<speed>0.440000</speed>
</trkpt>
<trkpt lat="55.730904" lon="26.245939">
<ele>158.966919</ele>
<time>2010-07-17T10:38:09Z</time>
<desc>lat.=55.730904, lon.=26.245939, Alt.=158.966919m. Speed=1.404000m/h.</desc>
<speed>0.390000</speed>
</trkpt>
<trkpt lat="55.730919" lon="26.245928">
<ele>159.588013</ele>
<time>2010-07-17T10:38:10Z</time>
<desc>lat.=55.730919, lon.=26.245928, Alt.=159.588013m. Speed=1.476000m/h.</desc>
<speed>0.410000</speed>
</trkpt>
<trkpt lat="55.730961" lon="26.245920">
<ele>160.748169</ele>
<time>2010-07-17T10:38:11Z</time>
<desc>lat.=55.730961, lon.=26.245920, Alt.=160.748169m. Speed=1.764000m/h.</desc>
<speed>0.490000</speed>
</trkpt>
<trkpt lat="55.730999" lon="26.245893">
<ele>161.537231</ele>
<time>2010-07-17T10:38:12Z</time>
<desc>lat.=55.730999, lon.=26.245893, Alt.=161.537231m. Speed=1.980000m/h.</desc>
<speed>0.550000</speed>
</trkpt>
<trkpt lat="55.731026" lon="26.245888">
<ele>162.611450</ele>
<time>2010-07-17T10:38:13Z</time>
<desc>lat.=55.731026, lon.=26.245888, Alt.=162.611450m. Speed=2.016000m/h.</desc>
<speed>0.560000</speed>
</trkpt>
<trkpt lat="55.731041" lon="26.245880">
<ele>163.197388</ele>
<time>2010-07-17T10:38:14Z</time>
<desc>lat.=55.731041, lon.=26.245880, Alt.=163.197388m. Speed=1.980000m/h.</desc>
<speed>0.550000</speed>
</trkpt>
<trkpt lat="55.731056" lon="26.245869">
<ele>163.591919</ele>
<time>2010-07-17T10:38:15Z</time>
<desc>lat.=55.731056, lon.=26.245869, Alt.=163.591919m. Speed=2.016000m/h.</desc>
<speed>0.560000</speed>
</trkpt>
<trkpt lat="55.731068" lon="26.245861">
<ele>163.834106</ele>
<time>2010-07-17T10:38:16Z</time>
<desc>lat.=55.731068, lon.=26.245861, Alt.=163.834106m. Speed=2.088000m/h.</desc>
<speed>0.580000</speed>
</trkpt>
<trkpt lat="55.731075" lon="26.245863">
<ele>164.466919</ele>
<time>2010-07-17T10:38:17Z</time>
<desc>lat.=55.731075, lon.=26.245863, Alt.=164.466919m. Speed=2.016000m/h.</desc>
<speed>0.560000</speed>
</trkpt>
<trkpt lat="55.731087" lon="26.245882">
<ele>164.650513</ele>
<time>2010-07-17T10:38:18Z</time>
<desc>lat.=55.731087, lon.=26.245882, Alt.=164.650513m. Speed=1.836000m/h.</desc>
<speed>0.510000</speed>
</trkpt>
<trkpt lat="55.731094" lon="26.245890">
<ele>164.939575</ele>
<time>2010-07-17T10:38:19Z</time>
<desc>lat.=55.731094, lon.=26.245890, Alt.=164.939575m. Speed=1.836000m/h.</desc>
<speed>0.510000</speed>
</trkpt>
<trkpt lat="55.731106" lon="26.245901">
<ele>165.494263</ele>
<time>2010-07-17T10:38:20Z</time>
<desc>lat.=55.731106, lon.=26.245901, Alt.=165.494263m. Speed=1.872000m/h.</desc>
<speed>0.520000</speed>
</trkpt>
<trkpt lat="55.731106" lon="26.245916">
<ele>165.927856</ele>
<time>2010-07-17T10:38:21Z</time>
<desc>lat.=55.731106, lon.=26.245916, Alt.=165.927856m. Speed=1.620000m/h.</desc>
<speed>0.450000</speed>
</trkpt>
<trkpt lat="55.731110" lon="26.245913">
<ele>166.123169</ele>
<time>2010-07-17T10:38:22Z</time>
<desc>lat.=55.731110, lon.=26.245913, Alt.=166.123169m. Speed=1.692000m/h.</desc>
<speed>0.470000</speed>
</trkpt>
<trkpt lat="55.731117" lon="26.245913">
<ele>166.490356</ele>
<time>2010-07-17T10:38:23Z</time>
<desc>lat.=55.731117, lon.=26.245913, Alt.=166.490356m. Speed=1.692000m/h.</desc>
<speed>0.470000</speed>
</trkpt>
<trkpt lat="55.731121" lon="26.245920">
<ele>166.849731</ele>
<time>2010-07-17T10:38:24Z</time>
<desc>lat.=55.731121, lon.=26.245920, Alt.=166.849731m. Speed=1.584000m/h.</desc>
<speed>0.440000</speed>
</trkpt>
<trkpt lat="55.731117" lon="26.245926">
<ele>167.470825</ele>
<time>2010-07-17T10:38:25Z</time>
<desc>lat.=55.731117, lon.=26.245926, Alt.=167.470825m. Speed=1.368000m/h.</desc>
<speed>0.380000</speed>
</trkpt>
<trkpt lat="55.731113" lon="26.245930">
<ele>168.056763</ele>
<time>2010-07-17T10:38:26Z</time>
<desc>lat.=55.731113, lon.=26.245930, Alt.=168.056763m. Speed=1.116000m/h.</desc>
<speed>0.310000</speed>
</trkpt>
<trkpt lat="55.731110" lon="26.245924">
<ele>168.420044</ele>
<time>2010-07-17T10:38:27Z</time>
<desc>lat.=55.731110, lon.=26.245924, Alt.=168.420044m. Speed=0.792000m/h.</desc>
<speed>0.220000</speed>
</trkpt>
<trkpt lat="55.731110" lon="26.245922">
<ele>168.662231</ele>
<time>2010-07-17T10:38:28Z</time>
<desc>lat.=55.731110, lon.=26.245922, Alt.=168.662231m. Speed=0.612000m/h.</desc>
<speed>0.170000</speed>
</trkpt>
<trkpt lat="55.731106" lon="26.245920">
<ele>168.959106</ele>
<time>2010-07-17T10:38:29Z</time>
<desc>lat.=55.731106, lon.=26.245920, Alt.=168.959106m. Speed=0.396000m/h.</desc>
<speed>0.110000</speed>
</trkpt>
<trkpt lat="55.731102" lon="26.245922">
<ele>169.177856</ele>
<time>2010-07-17T10:38:30Z</time>
<desc>lat.=55.731102, lon.=26.245922, Alt.=169.177856m. Speed=0.252000m/h.</desc>
<speed>0.070000</speed>
</trkpt>
<trkpt lat="55.731102" lon="26.245920">
<ele>169.298950</ele>
<time>2010-07-17T10:38:31Z</time>
<desc>lat.=55.731102, lon.=26.245920, Alt.=169.298950m. Speed=0.252000m/h.</desc>
<speed>0.070000</speed>
</trkpt>
<trkpt lat="55.731102" lon="26.245920">
<ele>169.423950</ele>
<time>2010-07-17T10:38:32Z</time>
<desc>lat.=55.731102, lon.=26.245920, Alt.=169.423950m. Speed=0.108000m/h.</desc>
<speed>0.030000</speed>
</trkpt>
<trkpt lat="55.731106" lon="26.245920">
<ele>169.545044</ele>
<time>2010-07-17T10:38:33Z</time>
<desc>lat.=55.731106, lon.=26.245920, Alt.=169.545044m. Speed=0.288000m/h.</desc>
<speed>0.080000</speed>
</trkpt>
<trkpt lat="55.731106" lon="26.245922">
<ele>169.670044</ele>
<time>2010-07-17T10:38:34Z</time>
<desc>lat.=55.731106, lon.=26.245922, Alt.=169.670044m. Speed=0.144000m/h.</desc>
<speed>0.040000</speed>
</trkpt>
<trkpt lat="55.731106" lon="26.245922">
<ele>169.787231</ele>
<time>2010-07-17T10:38:35Z</time>
<desc>lat.=55.731106, lon.=26.245922, Alt.=169.787231m. Speed=0.144000m/h.</desc>
<speed>0.040000</speed>
</trkpt>
<trkpt lat="55.731106" lon="26.245924">
<ele>169.912231</ele>
<time>2010-07-17T10:38:36Z</time>
<desc>lat.=55.731106, lon.=26.245924, Alt.=169.912231m. Speed=0.288000m/h.</desc>
<speed>0.080000</speed>
</trkpt>
<trkpt lat="55.731102" lon="26.245924">
<ele>170.029419</ele>
<time>2010-07-17T10:38:37Z</time>
<desc>lat.=55.731102, lon.=26.245924, Alt.=170.029419m. Speed=0.504000m/h.</desc>
<speed>0.140000</speed>
</trkpt>
<trkpt lat="55.731102" lon="26.245924">
<ele>170.146606</ele>
<time>2010-07-17T10:38:38Z</time>
<desc>lat.=55.731102, lon.=26.245924, Alt.=170.146606m. Speed=0.540000m/h.</desc>
<speed>0.150000</speed>
</trkpt>
<trkpt lat="55.731102" lon="26.245924">
<ele>170.259888</ele>
<time>2010-07-17T10:38:39Z</time>
<desc>lat.=55.731102, lon.=26.245924, Alt.=170.259888m. Speed=0.576000m/h.</desc>
<speed>0.160000</speed>
</trkpt>
<trkpt lat="55.731098" lon="26.245924">
<ele>170.377075</ele>
<time>2010-07-17T10:38:40Z</time>
<desc>lat.=55.731098, lon.=26.245924, Alt.=170.377075m. Speed=0.540000m/h.</desc>
<speed>0.150000</speed>
</trkpt>
<trkpt lat="55.731098" lon="26.245924">
<ele>170.498169</ele>
<time>2010-07-17T10:38:41Z</time>
<desc>lat.=55.731098, lon.=26.245924, Alt.=170.498169m. Speed=0.612000m/h.</desc>
<speed>0.170000</speed>
</trkpt>
<trkpt lat="55.731098" lon="26.245926">
<ele>170.611450</ele>
<time>2010-07-17T10:38:42Z</time>
<desc>lat.=55.731098, lon.=26.245926, Alt.=170.611450m. Speed=0.756000m/h.</desc>
<speed>0.210000</speed>
</trkpt>
<trkpt lat="55.731094" lon="26.245928">
<ele>170.720825</ele>
<time>2010-07-17T10:38:43Z</time>
<desc>lat.=55.731094, lon.=26.245928, Alt.=170.720825m. Speed=1.008000m/h.</desc>
<speed>0.280000</speed>
</trkpt>
<trkpt lat="55.731091" lon="26.245930">
<ele>170.838013</ele>
<time>2010-07-17T10:38:44Z</time>
<desc>lat.=55.731091, lon.=26.245930, Alt.=170.838013m. Speed=1.008000m/h.</desc>
<speed>0.280000</speed>
</trkpt>
<trkpt lat="55.731091" lon="26.245932">
<ele>170.947388</ele>
<time>2010-07-17T10:38:45Z</time>
<desc>lat.=55.731091, lon.=26.245932, Alt.=170.947388m. Speed=0.828000m/h.</desc>
<speed>0.230000</speed>
</trkpt>
<trkpt lat="55.731087" lon="26.245932">
<ele>171.056763</ele>
<time>2010-07-17T10:38:46Z</time>
<desc>lat.=55.731087, lon.=26.245932, Alt.=171.056763m. Speed=0.468000m/h.</desc>
<speed>0.130000</speed>
</trkpt>
<trkpt lat="55.731087" lon="26.245934">
<ele>171.162231</ele>
<time>2010-07-17T10:38:47Z</time>
<desc>lat.=55.731087, lon.=26.245934, Alt.=171.162231m. Speed=0.468000m/h.</desc>
<speed>0.130000</speed>
</trkpt>
<trkpt lat="55.731087" lon="26.245935">
<ele>171.255981</ele>
<time>2010-07-17T10:38:48Z</time>
<desc>lat.=55.731087, lon.=26.245935, Alt.=171.255981m. Speed=0.360000m/h.</desc>
<speed>0.100000</speed>
</trkpt>
<trkpt lat="55.731087" lon="26.245937">
<ele>171.338013</ele>
<time>2010-07-17T10:38:49Z</time>
<desc>lat.=55.731087, lon.=26.245937, Alt.=171.338013m. Speed=0.504000m/h.</desc>
<speed>0.140000</speed>
</trkpt>
<trkpt lat="55.731087" lon="26.245939">
<ele>171.412231</ele>
<time>2010-07-17T10:38:50Z</time>
<desc>lat.=55.731087, lon.=26.245939, Alt.=171.412231m. Speed=0.396000m/h.</desc>
<speed>0.110000</speed>
</trkpt>
<trkpt lat="55.731087" lon="26.245941">
<ele>171.474731</ele>
<time>2010-07-17T10:38:51Z</time>
<desc>lat.=55.731087, lon.=26.245941, Alt.=171.474731m. Speed=0.468000m/h.</desc>
<speed>0.130000</speed>
</trkpt>
<trkpt lat="55.731087" lon="26.245943">
<ele>171.521606</ele>
<time>2010-07-17T10:38:52Z</time>
<desc>lat.=55.731087, lon.=26.245943, Alt.=171.521606m. Speed=0.504000m/h.</desc>
<speed>0.140000</speed>
</trkpt>
<trkpt lat="55.731087" lon="26.245945">
<ele>171.564575</ele>
<time>2010-07-17T10:38:53Z</time>
<desc>lat.=55.731087, lon.=26.245945, Alt.=171.564575m. Speed=0.288000m/h.</desc>
<speed>0.080000</speed>
</trkpt>
<trkpt lat="55.731087" lon="26.245947">
<ele>171.603638</ele>
<time>2010-07-17T10:38:54Z</time>
<desc>lat.=55.731087, lon.=26.245947, Alt.=171.603638m. Speed=0.180000m/h.</desc>
<speed>0.050000</speed>
</trkpt>
<trkpt lat="55.731087" lon="26.245947">
<ele>171.627075</ele>
<time>2010-07-17T10:38:55Z</time>
<desc>lat.=55.731087, lon.=26.245947, Alt.=171.627075m. Speed=0.144000m/h.</desc>
<speed>0.040000</speed>
</trkpt>
<trkpt lat="55.731087" lon="26.245947">
<ele>171.654419</ele>
<time>2010-07-17T10:38:56Z</time>
<desc>lat.=55.731087, lon.=26.245947, Alt.=171.654419m. Speed=0.144000m/h.</desc>
<speed>0.040000</speed>
</trkpt>
<trkpt lat="55.731087" lon="26.245949">
<ele>171.670044</ele>
<time>2010-07-17T10:38:57Z</time>
<desc>lat.=55.731087, lon.=26.245949, Alt.=171.670044m. Speed=0.144000m/h.</desc>
<speed>0.040000</speed>
</trkpt>
<trkpt lat="55.731087" lon="26.245949">
<ele>171.681763</ele>
<time>2010-07-17T10:38:58Z</time>
<desc>lat.=55.731087, lon.=26.245949, Alt.=171.681763m. Speed=0.252000m/h.</desc>
<speed>0.070000</speed>
</trkpt>
<trkpt lat="55.731087" lon="26.245951">
<ele>171.697388</ele>
<time>2010-07-17T10:38:59Z</time>
<desc>lat.=55.731087, lon.=26.245951, Alt.=171.697388m. Speed=0.396000m/h.</desc>
<speed>0.110000</speed>
</trkpt>
<trkpt lat="55.731087" lon="26.245953">
<ele>171.716919</ele>
<time>2010-07-17T10:39:00Z</time>
<desc>lat.=55.731087, lon.=26.245953, Alt.=171.716919m. Speed=0.576000m/h.</desc>
<speed>0.160000</speed>
</trkpt>
<trkpt lat="55.731087" lon="26.245955">
<ele>171.744263</ele>
<time>2010-07-17T10:39:01Z</time>
<desc>lat.=55.731087, lon.=26.245955, Alt.=171.744263m. Speed=0.648000m/h.</desc>
<speed>0.180000</speed>
</trkpt>
<trkpt lat="55.731087" lon="26.245958">
<ele>171.763794</ele>
<time>2010-07-17T10:39:02Z</time>
<desc>lat.=55.731087, lon.=26.245958, Alt.=171.763794m. Speed=0.756000m/h.</desc>
<speed>0.210000</speed>
</trkpt>
<trkpt lat="55.731087" lon="26.245960">
<ele>171.775513</ele>
<time>2010-07-17T10:39:03Z</time>
<desc>lat.=55.731087, lon.=26.245960, Alt.=171.775513m. Speed=0.756000m/h.</desc>
<speed>0.210000</speed>
</trkpt>
<trkpt lat="55.731087" lon="26.245964">
<ele>171.787231</ele>
<time>2010-07-17T10:39:04Z</time>
<desc>lat.=55.731087, lon.=26.245964, Alt.=171.787231m. Speed=0.792000m/h.</desc>
<speed>0.220000</speed>
</trkpt>
<trkpt lat="55.731087" lon="26.245968">
<ele>171.802856</ele>
<time>2010-07-17T10:39:05Z</time>
<desc>lat.=55.731087, lon.=26.245968, Alt.=171.802856m. Speed=0.720000m/h.</desc>
<speed>0.200000</speed>
</trkpt>
<trkpt lat="55.731087" lon="26.245970">
<ele>171.806763</ele>
<time>2010-07-17T10:39:06Z</time>
<desc>lat.=55.731087, lon.=26.245970, Alt.=171.806763m. Speed=0.684000m/h.</desc>
<speed>0.190000</speed>
</trkpt>
<trkpt lat="55.731083" lon="26.245972">
<ele>171.806763</ele>
<time>2010-07-17T10:39:07Z</time>
<desc>lat.=55.731083, lon.=26.245972, Alt.=171.806763m. Speed=0.648000m/h.</desc>
<speed>0.180000</speed>
</trkpt>
<trkpt lat="55.731083" lon="26.245974">
<ele>171.806763</ele>
<time>2010-07-17T10:39:08Z</time>
<desc>lat.=55.731083, lon.=26.245974, Alt.=171.806763m. Speed=0.432000m/h.</desc>
<speed>0.120000</speed>
</trkpt>
<trkpt lat="55.731083" lon="26.245975">
<ele>171.795044</ele>
<time>2010-07-17T10:39:09Z</time>
<desc>lat.=55.731083, lon.=26.245975, Alt.=171.795044m. Speed=0.432000m/h.</desc>
<speed>0.120000</speed>
</trkpt>
<trkpt lat="55.731079" lon="26.245975">
<ele>171.775513</ele>
<time>2010-07-17T10:39:10Z</time>
<desc>lat.=55.731079, lon.=26.245975, Alt.=171.775513m. Speed=0.324000m/h.</desc>
<speed>0.090000</speed>
</trkpt>
<trkpt lat="55.731079" lon="26.245975">
<ele>171.755981</ele>
<time>2010-07-17T10:39:11Z</time>
<desc>lat.=55.731079, lon.=26.245975, Alt.=171.755981m. Speed=0.252000m/h.</desc>
<speed>0.070000</speed>
</trkpt>
<trkpt lat="55.731079" lon="26.245975">
<ele>171.728638</ele>
<time>2010-07-17T10:39:12Z</time>
<desc>lat.=55.731079, lon.=26.245975, Alt.=171.728638m. Speed=0.324000m/h.</desc>
<speed>0.090000</speed>
</trkpt>
<trkpt lat="55.731079" lon="26.245974">
<ele>171.693481</ele>
<time>2010-07-17T10:39:13Z</time>
<desc>lat.=55.731079, lon.=26.245974, Alt.=171.693481m. Speed=0.504000m/h.</desc>
<speed>0.140000</speed>
</trkpt>
<trkpt lat="55.731079" lon="26.245970">
<ele>171.658325</ele>
<time>2010-07-17T10:39:14Z</time>
<desc>lat.=55.731079, lon.=26.245970, Alt.=171.658325m. Speed=0.576000m/h.</desc>
<speed>0.160000</speed>
</trkpt>
<trkpt lat="55.731079" lon="26.245968">
<ele>171.619263</ele>
<time>2010-07-17T10:39:15Z</time>
<desc>lat.=55.731079, lon.=26.245968, Alt.=171.619263m. Speed=0.684000m/h.</desc>
<speed>0.190000</speed>
</trkpt>
<trkpt lat="55.731079" lon="26.245966">
<ele>171.580200</ele>
<time>2010-07-17T10:39:16Z</time>
<desc>lat.=55.731079, lon.=26.245966, Alt.=171.580200m. Speed=0.720000m/h.</desc>
<speed>0.200000</speed>
</trkpt>
<trkpt lat="55.731083" lon="26.245962">
<ele>171.541138</ele>
<time>2010-07-17T10:39:17Z</time>
<desc>lat.=55.731083, lon.=26.245962, Alt.=171.541138m. Speed=0.756000m/h.</desc>
<speed>0.210000</speed>
</trkpt>
<trkpt lat="55.731083" lon="26.245958">
<ele>171.502075</ele>
<time>2010-07-17T10:39:18Z</time>
<desc>lat.=55.731083, lon.=26.245958, Alt.=171.502075m. Speed=0.756000m/h.</desc>
<speed>0.210000</speed>
</trkpt>
<trkpt lat="55.731083" lon="26.245956">
<ele>171.463013</ele>
<time>2010-07-17T10:39:19Z</time>
<desc>lat.=55.731083, lon.=26.245956, Alt.=171.463013m. Speed=0.864000m/h.</desc>
<speed>0.240000</speed>
</trkpt>
<trkpt lat="55.731087" lon="26.245953">
<ele>171.431763</ele>
<time>2010-07-17T10:39:20Z</time>
<desc>lat.=55.731087, lon.=26.245953, Alt.=171.431763m. Speed=0.936000m/h.</desc>
<speed>0.260000</speed>
</trkpt>
<trkpt lat="55.731087" lon="26.245949">
<ele>171.396606</ele>
<time>2010-07-17T10:39:21Z</time>
<desc>lat.=55.731087, lon.=26.245949, Alt.=171.396606m. Speed=1.080000m/h.</desc>
<speed>0.300000</speed>
</trkpt>
<trkpt lat="55.731098" lon="26.245932">
<ele>171.205200</ele>
<time>2010-07-17T10:39:22Z</time>
<desc>lat.=55.731098, lon.=26.245932, Alt.=171.205200m. Speed=1.296000m/h.</desc>
<speed>0.360000</speed>
</trkpt>
<trkpt lat="55.731098" lon="26.245922">
<ele>170.970825</ele>
<time>2010-07-17T10:39:23Z</time>
<desc>lat.=55.731098, lon.=26.245922, Alt.=170.970825m. Speed=1.440000m/h.</desc>
<speed>0.400000</speed>
</trkpt>
<trkpt lat="55.731106" lon="26.245911">
<ele>171.045044</ele>
<time>2010-07-17T10:39:24Z</time>
<desc>lat.=55.731106, lon.=26.245911, Alt.=171.045044m. Speed=1.512000m/h.</desc>
<speed>0.420000</speed>
</trkpt>
<trkpt lat="55.731106" lon="26.245913">
<ele>171.412231</ele>
<time>2010-07-17T10:39:25Z</time>
<desc>lat.=55.731106, lon.=26.245913, Alt.=171.412231m. Speed=1.404000m/h.</desc>
<speed>0.390000</speed>
</trkpt>
<trkpt lat="55.731102" lon="26.245914">
<ele>171.740356</ele>
<time>2010-07-17T10:39:26Z</time>
<desc>lat.=55.731102, lon.=26.245914, Alt.=171.740356m. Speed=1.476000m/h.</desc>
<speed>0.410000</speed>
</trkpt>
<trkpt lat="55.731106" lon="26.245911">
<ele>172.041138</ele>
<time>2010-07-17T10:39:27Z</time>
<desc>lat.=55.731106, lon.=26.245911, Alt.=172.041138m. Speed=1.368000m/h.</desc>
<speed>0.380000</speed>
</trkpt>
<trkpt lat="55.731110" lon="26.245899">
<ele>172.306763</ele>
<time>2010-07-17T10:39:28Z</time>
<desc>lat.=55.731110, lon.=26.245899, Alt.=172.306763m. Speed=1.368000m/h.</desc>
<speed>0.380000</speed>
</trkpt>
<trkpt lat="55.731117" lon="26.245895">
<ele>172.697388</ele>
<time>2010-07-17T10:39:29Z</time>
<desc>lat.=55.731117, lon.=26.245895, Alt.=172.697388m. Speed=1.368000m/h.</desc>
<speed>0.380000</speed>
</trkpt>
<trkpt lat="55.731125" lon="26.245884">
<ele>173.037231</ele>
<time>2010-07-17T10:39:30Z</time>
<desc>lat.=55.731125, lon.=26.245884, Alt.=173.037231m. Speed=1.548000m/h.</desc>
<speed>0.430000</speed>
</trkpt>
<trkpt lat="55.731125" lon="26.245878">
<ele>173.056763</ele>
<time>2010-07-17T10:39:31Z</time>
<desc>lat.=55.731125, lon.=26.245878, Alt.=173.056763m. Speed=1.548000m/h.</desc>
<speed>0.430000</speed>
</trkpt>
<trkpt lat="55.731133" lon="26.245874">
<ele>173.552856</ele>
<time>2010-07-17T10:39:32Z</time>
<desc>lat.=55.731133, lon.=26.245874, Alt.=173.552856m. Speed=1.620000m/h.</desc>
<speed>0.450000</speed>
</trkpt>
<trkpt lat="55.731136" lon="26.245876">
<ele>174.033325</ele>
<time>2010-07-17T10:39:33Z</time>
<desc>lat.=55.731136, lon.=26.245876, Alt.=174.033325m. Speed=1.512000m/h.</desc>
<speed>0.420000</speed>
</trkpt>
<trkpt lat="55.731152" lon="26.245869">
<ele>174.244263</ele>
<time>2010-07-17T10:39:34Z</time>
<desc>lat.=55.731152, lon.=26.245869, Alt.=174.244263m. Speed=1.584000m/h.</desc>
<speed>0.440000</speed>
</trkpt>
<trkpt lat="55.731155" lon="26.245867">
<ele>174.302856</ele>
<time>2010-07-17T10:39:35Z</time>
<desc>lat.=55.731155, lon.=26.245867, Alt.=174.302856m. Speed=1.512000m/h.</desc>
<speed>0.420000</speed>
</trkpt>
<trkpt lat="55.731155" lon="26.245867">
<ele>174.705200</ele>
<time>2010-07-17T10:39:36Z</time>
<desc>lat.=55.731155, lon.=26.245867, Alt.=174.705200m. Speed=1.404000m/h.</desc>
<speed>0.390000</speed>
</trkpt>
<trkpt lat="55.731159" lon="26.245867">
<ele>175.283325</ele>
<time>2010-07-17T10:39:37Z</time>
<desc>lat.=55.731159, lon.=26.245867, Alt.=175.283325m. Speed=1.368000m/h.</desc>
<speed>0.380000</speed>
</trkpt>
<trkpt lat="55.731163" lon="26.245867">
<ele>175.826294</ele>
<time>2010-07-17T10:39:38Z</time>
<desc>lat.=55.731163, lon.=26.245867, Alt.=175.826294m. Speed=1.296000m/h.</desc>
<speed>0.360000</speed>
</trkpt>
<trkpt lat="55.731163" lon="26.245871">
<ele>176.205200</ele>
<time>2010-07-17T10:39:39Z</time>
<desc>lat.=55.731163, lon.=26.245871, Alt.=176.205200m. Speed=1.116000m/h.</desc>
<speed>0.310000</speed>
</trkpt>
<trkpt lat="55.731163" lon="26.245869">
<ele>176.623169</ele>
<time>2010-07-17T10:39:40Z</time>
<desc>lat.=55.731163, lon.=26.245869, Alt.=176.623169m. Speed=1.080000m/h.</desc>
<speed>0.300000</speed>
</trkpt>
<trkpt lat="55.731174" lon="26.245871">
<ele>176.744263</ele>
<time>2010-07-17T10:39:41Z</time>
<desc>lat.=55.731174, lon.=26.245871, Alt.=176.744263m. Speed=1.152000m/h.</desc>
<speed>0.320000</speed>
</trkpt>
<trkpt lat="55.731182" lon="26.245874">
<ele>176.947388</ele>
<time>2010-07-17T10:39:42Z</time>
<desc>lat.=55.731182, lon.=26.245874, Alt.=176.947388m. Speed=1.188000m/h.</desc>
<speed>0.330000</speed>
</trkpt>
<trkpt lat="55.731182" lon="26.245878">
<ele>177.287231</ele>
<time>2010-07-17T10:39:43Z</time>
<desc>lat.=55.731182, lon.=26.245878, Alt.=177.287231m. Speed=1.044000m/h.</desc>
<speed>0.290000</speed>
</trkpt>
<trkpt lat="55.731178" lon="26.245876">
<ele>177.466919</ele>
<time>2010-07-17T10:39:44Z</time>
<desc>lat.=55.731178, lon.=26.245876, Alt.=177.466919m. Speed=0.864000m/h.</desc>
<speed>0.240000</speed>
</trkpt>
<trkpt lat="55.731182" lon="26.245876">
<ele>177.904419</ele>
<time>2010-07-17T10:39:45Z</time>
<desc>lat.=55.731182, lon.=26.245876, Alt.=177.904419m. Speed=0.792000m/h.</desc>
<speed>0.220000</speed>
</trkpt>
<trkpt lat="55.731182" lon="26.245874">
<ele>178.025513</ele>
<time>2010-07-17T10:39:46Z</time>
<desc>lat.=55.731182, lon.=26.245874, Alt.=178.025513m. Speed=0.648000m/h.</desc>
<speed>0.180000</speed>
</trkpt>
<trkpt lat="55.731182" lon="26.245874">
<ele>178.072388</ele>
<time>2010-07-17T10:39:47Z</time>
<desc>lat.=55.731182, lon.=26.245874, Alt.=178.072388m. Speed=0.576000m/h.</desc>
<speed>0.160000</speed>
</trkpt>
<trkpt lat="55.731186" lon="26.245872">
<ele>178.123169</ele>
<time>2010-07-17T10:39:48Z</time>
<desc>lat.=55.731186, lon.=26.245872, Alt.=178.123169m. Speed=0.504000m/h.</desc>
<speed>0.140000</speed>
</trkpt>
<trkpt lat="55.731186" lon="26.245871">
<ele>178.173950</ele>
<time>2010-07-17T10:39:49Z</time>
<desc>lat.=55.731186, lon.=26.245871, Alt.=178.173950m. Speed=0.684000m/h.</desc>
<speed>0.190000</speed>
</trkpt>
<trkpt lat="55.731186" lon="26.245867">
<ele>178.201294</ele>
<time>2010-07-17T10:39:50Z</time>
<desc>lat.=55.731186, lon.=26.245867, Alt.=178.201294m. Speed=0.648000m/h.</desc>
<speed>0.180000</speed>
</trkpt>
<trkpt lat="55.731186" lon="26.245865">
<ele>178.236450</ele>
<time>2010-07-17T10:39:51Z</time>
<desc>lat.=55.731186, lon.=26.245865, Alt.=178.236450m. Speed=0.648000m/h.</desc>
<speed>0.180000</speed>
</trkpt>
<trkpt lat="55.731182" lon="26.245861">
<ele>178.275513</ele>
<time>2010-07-17T10:39:52Z</time>
<desc>lat.=55.731182, lon.=26.245861, Alt.=178.275513m. Speed=0.648000m/h.</desc>
<speed>0.180000</speed>
</trkpt>
<trkpt lat="55.731182" lon="26.245859">
<ele>178.310669</ele>
<time>2010-07-17T10:39:53Z</time>
<desc>lat.=55.731182, lon.=26.245859, Alt.=178.310669m. Speed=0.648000m/h.</desc>
<speed>0.180000</speed>
</trkpt>
<trkpt lat="55.731182" lon="26.245857">
<ele>178.353638</ele>
<time>2010-07-17T10:39:54Z</time>
<desc>lat.=55.731182, lon.=26.245857, Alt.=178.353638m. Speed=0.720000m/h.</desc>
<speed>0.200000</speed>
</trkpt>
<trkpt lat="55.731178" lon="26.245855">
<ele>178.396606</ele>
<time>2010-07-17T10:39:55Z</time>
<desc>lat.=55.731178, lon.=26.245855, Alt.=178.396606m. Speed=0.720000m/h.</desc>
<speed>0.200000</speed>
</trkpt>
<trkpt lat="55.731178" lon="26.245853">
<ele>178.447388</ele>
<time>2010-07-17T10:39:56Z</time>
<desc>lat.=55.731178, lon.=26.245853, Alt.=178.447388m. Speed=0.612000m/h.</desc>
<speed>0.170000</speed>
</trkpt>
<trkpt lat="55.731178" lon="26.245852">
<ele>178.494263</ele>
<time>2010-07-17T10:39:57Z</time>
<desc>lat.=55.731178, lon.=26.245852, Alt.=178.494263m. Speed=0.684000m/h.</desc>
<speed>0.190000</speed>
</trkpt>
<trkpt lat="55.731174" lon="26.245850">
<ele>178.533325</ele>
<time>2010-07-17T10:39:58Z</time>
<desc>lat.=55.731174, lon.=26.245850, Alt.=178.533325m. Speed=0.900000m/h.</desc>
<speed>0.250000</speed>
</trkpt>
<trkpt lat="55.731174" lon="26.245848">
<ele>178.568481</ele>
<time>2010-07-17T10:39:59Z</time>
<desc>lat.=55.731174, lon.=26.245848, Alt.=178.568481m. Speed=0.684000m/h.</desc>
<speed>0.190000</speed>
</trkpt>
<trkpt lat="55.731171" lon="26.245846">
<ele>178.595825</ele>
<time>2010-07-17T10:40:00Z</time>
<desc>lat.=55.731171, lon.=26.245846, Alt.=178.595825m. Speed=0.756000m/h.</desc>
<speed>0.210000</speed>
</trkpt>
<trkpt lat="55.731171" lon="26.245844">
<ele>178.627075</ele>
<time>2010-07-17T10:40:01Z</time>
<desc>lat.=55.731171, lon.=26.245844, Alt.=178.627075m. Speed=0.720000m/h.</desc>
<speed>0.200000</speed>
</trkpt>
<trkpt lat="55.731167" lon="26.245844">
<ele>178.646606</ele>
<time>2010-07-17T10:40:02Z</time>
<desc>lat.=55.731167, lon.=26.245844, Alt.=178.646606m. Speed=0.720000m/h.</desc>
<speed>0.200000</speed>
</trkpt>
<trkpt lat="55.731167" lon="26.245842">
<ele>178.658325</ele>
<time>2010-07-17T10:40:03Z</time>
<desc>lat.=55.731167, lon.=26.245842, Alt.=178.658325m. Speed=0.828000m/h.</desc>
<speed>0.230000</speed>
</trkpt>
<trkpt lat="55.731163" lon="26.245840">
<ele>178.662231</ele>
<time>2010-07-17T10:40:04Z</time>
<desc>lat.=55.731163, lon.=26.245840, Alt.=178.662231m. Speed=1.080000m/h.</desc>
<speed>0.300000</speed>
</trkpt>
<trkpt lat="55.731155" lon="26.245840">
<ele>178.658325</ele>
<time>2010-07-17T10:40:05Z</time>
<desc>lat.=55.731155, lon.=26.245840, Alt.=178.658325m. Speed=1.044000m/h.</desc>
<speed>0.290000</speed>
</trkpt>
<trkpt lat="55.731152" lon="26.245846">
<ele>178.584106</ele>
<time>2010-07-17T10:40:06Z</time>
<desc>lat.=55.731152, lon.=26.245846, Alt.=178.584106m. Speed=0.936000m/h.</desc>
<speed>0.260000</speed>
</trkpt>
<trkpt lat="55.731144" lon="26.245857">
<ele>178.537231</ele>
<time>2010-07-17T10:40:07Z</time>
<desc>lat.=55.731144, lon.=26.245857, Alt.=178.537231m. Speed=0.972000m/h.</desc>
<speed>0.270000</speed>
</trkpt>
<trkpt lat="55.731136" lon="26.245872">
<ele>178.494263</ele>
<time>2010-07-17T10:40:08Z</time>
<desc>lat.=55.731136, lon.=26.245872, Alt.=178.494263m. Speed=1.008000m/h.</desc>
<speed>0.280000</speed>
</trkpt>
<trkpt lat="55.731136" lon="26.245872">
<ele>178.502075</ele>
<time>2010-07-17T10:40:09Z</time>
<desc>lat.=55.731136, lon.=26.245872, Alt.=178.502075m. Speed=1.080000m/h.</desc>
<speed>0.300000</speed>
</trkpt>
<trkpt lat="55.731129" lon="26.245869">
<ele>178.529419</ele>
<time>2010-07-17T10:40:10Z</time>
<desc>lat.=55.731129, lon.=26.245869, Alt.=178.529419m. Speed=1.080000m/h.</desc>
<speed>0.300000</speed>
</trkpt>
<trkpt lat="55.731121" lon="26.245867">
<ele>178.599731</ele>
<time>2010-07-17T10:40:11Z</time>
<desc>lat.=55.731121, lon.=26.245867, Alt.=178.599731m. Speed=1.080000m/h.</desc>
<speed>0.300000</speed>
</trkpt>
<trkpt lat="55.731117" lon="26.245861">
<ele>178.709106</ele>
<time>2010-07-17T10:40:12Z</time>
<desc>lat.=55.731117, lon.=26.245861, Alt.=178.709106m. Speed=1.224000m/h.</desc>
<speed>0.340000</speed>
</trkpt>
<trkpt lat="55.731113" lon="26.245859">
<ele>178.713013</ele>
<time>2010-07-17T10:40:13Z</time>
<desc>lat.=55.731113, lon.=26.245859, Alt.=178.713013m. Speed=1.296000m/h.</desc>
<speed>0.360000</speed>
</trkpt>
<trkpt lat="55.731110" lon="26.245857">
<ele>178.642700</ele>
<time>2010-07-17T10:40:14Z</time>
<desc>lat.=55.731110, lon.=26.245857, Alt.=178.642700m. Speed=1.332000m/h.</desc>
<speed>0.370000</speed>
</trkpt>
<trkpt lat="55.731106" lon="26.245850">
<ele>178.693481</ele>
<time>2010-07-17T10:40:15Z</time>
<desc>lat.=55.731106, lon.=26.245850, Alt.=178.693481m. Speed=1.296000m/h.</desc>
<speed>0.360000</speed>
</trkpt>
<trkpt lat="55.731110" lon="26.245846">
<ele>178.748169</ele>
<time>2010-07-17T10:40:16Z</time>
<desc>lat.=55.731110, lon.=26.245846, Alt.=178.748169m. Speed=1.152000m/h.</desc>
<speed>0.320000</speed>
</trkpt>
<trkpt lat="55.731110" lon="26.245846">
<ele>178.752075</ele>
<time>2010-07-17T10:40:17Z</time>
<desc>lat.=55.731110, lon.=26.245846, Alt.=178.752075m. Speed=1.008000m/h.</desc>
<speed>0.280000</speed>
</trkpt>
<trkpt lat="55.731106" lon="26.245844">
<ele>178.736450</ele>
<time>2010-07-17T10:40:18Z</time>
<desc>lat.=55.731106, lon.=26.245844, Alt.=178.736450m. Speed=1.008000m/h.</desc>
<speed>0.280000</speed>
</trkpt>
<trkpt lat="55.731106" lon="26.245852">
<ele>178.791138</ele>
<time>2010-07-17T10:40:19Z</time>
<desc>lat.=55.731106, lon.=26.245852, Alt.=178.791138m. Speed=0.900000m/h.</desc>
<speed>0.250000</speed>
</trkpt>
<trkpt lat="55.731106" lon="26.245867">
<ele>178.580200</ele>
<time>2010-07-17T10:40:20Z</time>
<desc>lat.=55.731106, lon.=26.245867, Alt.=178.580200m. Speed=0.720000m/h.</desc>
<speed>0.200000</speed>
</trkpt>
<trkpt lat="55.731106" lon="26.245865">
<ele>178.595825</ele>
<time>2010-07-17T10:40:21Z</time>
<desc>lat.=55.731106, lon.=26.245865, Alt.=178.595825m. Speed=0.648000m/h.</desc>
<speed>0.180000</speed>
</trkpt>
<trkpt lat="55.731102" lon="26.245863">
<ele>178.607544</ele>
<time>2010-07-17T10:40:22Z</time>
<desc>lat.=55.731102, lon.=26.245863, Alt.=178.607544m. Speed=0.432000m/h.</desc>
<speed>0.120000</speed>
</trkpt>
<trkpt lat="55.731102" lon="26.245861">
<ele>178.627075</ele>
<time>2010-07-17T10:40:23Z</time>
<desc>lat.=55.731102, lon.=26.245861, Alt.=178.627075m. Speed=0.288000m/h.</desc>
<speed>0.080000</speed>
</trkpt>
<trkpt lat="55.731102" lon="26.245861">
<ele>178.642700</ele>
<time>2010-07-17T10:40:24Z</time>
<desc>lat.=55.731102, lon.=26.245861, Alt.=178.642700m. Speed=0.180000m/h.</desc>
<speed>0.050000</speed>
</trkpt>
<trkpt lat="55.731102" lon="26.245859">
<ele>178.654419</ele>
<time>2010-07-17T10:40:25Z</time>
<desc>lat.=55.731102, lon.=26.245859, Alt.=178.654419m. Speed=0.144000m/h.</desc>
<speed>0.040000</speed>
</trkpt>
<trkpt lat="55.731102" lon="26.245859">
<ele>178.666138</ele>
<time>2010-07-17T10:40:26Z</time>
<desc>lat.=55.731102, lon.=26.245859, Alt.=178.666138m. Speed=0.180000m/h.</desc>
<speed>0.050000</speed>
</trkpt>
<trkpt lat="55.731102" lon="26.245859">
<ele>178.673950</ele>
<time>2010-07-17T10:40:27Z</time>
<desc>lat.=55.731102, lon.=26.245859, Alt.=178.673950m. Speed=0.576000m/h.</desc>
<speed>0.160000</speed>
</trkpt>
<trkpt lat="55.731102" lon="26.245855">
<ele>178.681763</ele>
<time>2010-07-17T10:40:28Z</time>
<desc>lat.=55.731102, lon.=26.245855, Alt.=178.681763m. Speed=0.936000m/h.</desc>
<speed>0.260000</speed>
</trkpt>
<trkpt lat="55.731106" lon="26.245853">
<ele>178.689575</ele>
<time>2010-07-17T10:40:29Z</time>
<desc>lat.=55.731106, lon.=26.245853, Alt.=178.689575m. Speed=0.936000m/h.</desc>
<speed>0.260000</speed>
</trkpt>
<trkpt lat="55.731106" lon="26.245850">
<ele>178.693481</ele>
<time>2010-07-17T10:40:30Z</time>
<desc>lat.=55.731106, lon.=26.245850, Alt.=178.693481m. Speed=1.188000m/h.</desc>
<speed>0.330000</speed>
</trkpt>
<trkpt lat="55.731117" lon="26.245853">
<ele>178.439575</ele>
<time>2010-07-17T10:40:31Z</time>
<desc>lat.=55.731117, lon.=26.245853, Alt.=178.439575m. Speed=1.548000m/h.</desc>
<speed>0.430000</speed>
</trkpt>
<trkpt lat="55.731129" lon="26.245855">
<ele>178.330200</ele>
<time>2010-07-17T10:40:32Z</time>
<desc>lat.=55.731129, lon.=26.245855, Alt.=178.330200m. Speed=1.800000m/h.</desc>
<speed>0.500000</speed>
</trkpt>
<trkpt lat="55.731144" lon="26.245857">
<ele>177.963013</ele>
<time>2010-07-17T10:40:33Z</time>
<desc>lat.=55.731144, lon.=26.245857, Alt.=177.963013m. Speed=2.376000m/h.</desc>
<speed>0.660000</speed>
</trkpt>
<trkpt lat="55.731163" lon="26.245867">
<ele>177.697388</ele>
<time>2010-07-17T10:40:34Z</time>
<desc>lat.=55.731163, lon.=26.245867, Alt.=177.697388m. Speed=2.736000m/h.</desc>
<speed>0.760000</speed>
</trkpt>
<trkpt lat="55.731171" lon="26.245859">
<ele>177.552856</ele>
<time>2010-07-17T10:40:35Z</time>
<desc>lat.=55.731171, lon.=26.245859, Alt.=177.552856m. Speed=2.736000m/h.</desc>
<speed>0.760000</speed>
</trkpt>
<trkpt lat="55.731182" lon="26.245852">
<ele>177.466919</ele>
<time>2010-07-17T10:40:36Z</time>
<desc>lat.=55.731182, lon.=26.245852, Alt.=177.466919m. Speed=2.988000m/h.</desc>
<speed>0.830000</speed>
</trkpt>
<trkpt lat="55.731190" lon="26.245836">
<ele>177.388794</ele>
<time>2010-07-17T10:40:37Z</time>
<desc>lat.=55.731190, lon.=26.245836, Alt.=177.388794m. Speed=2.124000m/h.</desc>
<speed>0.590000</speed>
</trkpt>
<trkpt lat="55.731167" lon="26.245802">
<ele>176.830200</ele>
<time>2010-07-17T10:40:38Z</time>
<desc>lat.=55.731167, lon.=26.245802, Alt.=176.830200m. Speed=3.852000m/h.</desc>
<speed>1.070000</speed>
</trkpt>
<trkpt lat="55.731163" lon="26.245770">
<ele>176.752075</ele>
<time>2010-07-17T10:40:39Z</time>
<desc>lat.=55.731163, lon.=26.245770, Alt.=176.752075m. Speed=5.256000m/h.</desc>
<speed>1.460000</speed>
</trkpt>
<trkpt lat="55.731163" lon="26.245741">
<ele>176.681763</ele>
<time>2010-07-17T10:40:40Z</time>
<desc>lat.=55.731163, lon.=26.245741, Alt.=176.681763m. Speed=6.624000m/h.</desc>
<speed>1.840000</speed>
</trkpt>
<trkpt lat="55.731159" lon="26.245714">
<ele>176.630981</ele>
<time>2010-07-17T10:40:41Z</time>
<desc>lat.=55.731159, lon.=26.245714, Alt.=176.630981m. Speed=7.560000m/h.</desc>
<speed>2.100000</speed>
</trkpt>
<trkpt lat="55.731159" lon="26.245682">
<ele>176.650513</ele>
<time>2010-07-17T10:40:42Z</time>
<desc>lat.=55.731159, lon.=26.245682, Alt.=176.650513m. Speed=6.588000m/h.</desc>
<speed>1.830000</speed>
</trkpt>
<trkpt lat="55.731144" lon="26.245655">
<ele>176.232544</ele>
<time>2010-07-17T10:40:43Z</time>
<desc>lat.=55.731144, lon.=26.245655, Alt.=176.232544m. Speed=7.812000m/h.</desc>
<speed>2.170000</speed>
</trkpt>
<trkpt lat="55.731129" lon="26.245625">
<ele>176.213013</ele>
<time>2010-07-17T10:40:44Z</time>
<desc>lat.=55.731129, lon.=26.245625, Alt.=176.213013m. Speed=9.576000m/h.</desc>
<speed>2.660000</speed>
</trkpt>
<trkpt lat="55.731113" lon="26.245583">
<ele>176.306763</ele>
<time>2010-07-17T10:40:45Z</time>
<desc>lat.=55.731113, lon.=26.245583, Alt.=176.306763m. Speed=10.548000m/h.</desc>
<speed>2.930000</speed>
</trkpt>
<trkpt lat="55.731098" lon="26.245539">
<ele>176.107544</ele>
<time>2010-07-17T10:40:46Z</time>
<desc>lat.=55.731098, lon.=26.245539, Alt.=176.107544m. Speed=11.700000m/h.</desc>
<speed>3.250000</speed>
</trkpt>
<trkpt lat="55.731075" lon="26.245483">
<ele>175.455200</ele>
<time>2010-07-17T10:40:47Z</time>
<desc>lat.=55.731075, lon.=26.245483, Alt.=175.455200m. Speed=12.384000m/h.</desc>
<speed>3.440000</speed>
</trkpt>
<trkpt lat="55.731052" lon="26.245436">
<ele>175.255981</ele>
<time>2010-07-17T10:40:48Z</time>
<desc>lat.=55.731052, lon.=26.245436, Alt.=175.255981m. Speed=10.404000m/h.</desc>
<speed>2.890000</speed>
</trkpt>
<trkpt lat="55.731037" lon="26.245388">
<ele>174.920044</ele>
<time>2010-07-17T10:40:49Z</time>
<desc>lat.=55.731037, lon.=26.245388, Alt.=174.920044m. Speed=9.288000m/h.</desc>
<speed>2.580000</speed>
</trkpt>
<trkpt lat="55.731037" lon="26.245344">
<ele>174.748169</ele>
<time>2010-07-17T10:40:50Z</time>
<desc>lat.=55.731037, lon.=26.245344, Alt.=174.748169m. Speed=8.316000m/h.</desc>
<speed>2.310000</speed>
</trkpt>
<trkpt lat="55.731045" lon="26.245310">
<ele>174.732544</ele>
<time>2010-07-17T10:40:51Z</time>
<desc>lat.=55.731045, lon.=26.245310, Alt.=174.732544m. Speed=6.948000m/h.</desc>
<speed>1.930000</speed>
</trkpt>
<trkpt lat="55.731052" lon="26.245255">
<ele>174.404419</ele>
<time>2010-07-17T10:40:52Z</time>
<desc>lat.=55.731052, lon.=26.245255, Alt.=174.404419m. Speed=9.288000m/h.</desc>
<speed>2.580000</speed>
</trkpt>
<trkpt lat="55.731071" lon="26.245214">
<ele>174.150513</ele>
<time>2010-07-17T10:40:53Z</time>
<desc>lat.=55.731071, lon.=26.245214, Alt.=174.150513m. Speed=9.504000m/h.</desc>
<speed>2.640000</speed>
</trkpt>
<trkpt lat="55.731098" lon="26.245188">
<ele>173.459106</ele>
<time>2010-07-17T10:40:54Z</time>
<desc>lat.=55.731098, lon.=26.245188, Alt.=173.459106m. Speed=13.428000m/h.</desc>
<speed>3.730000</speed>
</trkpt>
<trkpt lat="55.731144" lon="26.245132">
<ele>172.603638</ele>
<time>2010-07-17T10:40:55Z</time>
<desc>lat.=55.731144, lon.=26.245132, Alt.=172.603638m. Speed=15.696000m/h.</desc>
<speed>4.360000</speed>
</trkpt>
<trkpt lat="55.731178" lon="26.245102">
<ele>172.267700</ele>
<time>2010-07-17T10:40:56Z</time>
<desc>lat.=55.731178, lon.=26.245102, Alt.=172.267700m. Speed=15.408000m/h.</desc>
<speed>4.280000</speed>
</trkpt>
<trkpt lat="55.731220" lon="26.245056">
<ele>171.400513</ele>
<time>2010-07-17T10:40:57Z</time>
<desc>lat.=55.731220, lon.=26.245056, Alt.=171.400513m. Speed=16.308001m/h.</desc>
<speed>4.530000</speed>
</trkpt>
<trkpt lat="55.731270" lon="26.244991">
<ele>170.556763</ele>
<time>2010-07-17T10:40:58Z</time>
<desc>lat.=55.731270, lon.=26.244991, Alt.=170.556763m. Speed=17.568001m/h.</desc>
<speed>4.880000</speed>
</trkpt>
<trkpt lat="55.731316" lon="26.244932">
<ele>169.755981</ele>
<time>2010-07-17T10:40:59Z</time>
<desc>lat.=55.731316, lon.=26.244932, Alt.=169.755981m. Speed=18.396000m/h.</desc>
<speed>5.110000</speed>
</trkpt>
<trkpt lat="55.731350" lon="26.244879">
<ele>169.064575</ele>
<time>2010-07-17T10:41:00Z</time>
<desc>lat.=55.731350, lon.=26.244879, Alt.=169.064575m. Speed=16.128000m/h.</desc>
<speed>4.480000</speed>
</trkpt>
<trkpt lat="55.731380" lon="26.244837">
<ele>168.502075</ele>
<time>2010-07-17T10:41:01Z</time>
<desc>lat.=55.731380, lon.=26.244837, Alt.=168.502075m. Speed=15.588000m/h.</desc>
<speed>4.330000</speed>
</trkpt>
<trkpt lat="55.731400" lon="26.244802">
<ele>167.787231</ele>
<time>2010-07-17T10:41:02Z</time>
<desc>lat.=55.731400, lon.=26.244802, Alt.=167.787231m. Speed=9.360000m/h.</desc>
<speed>2.600000</speed>
</trkpt>
<trkpt lat="55.731419" lon="26.244778">
<ele>166.873169</ele>
<time>2010-07-17T10:41:03Z</time>
<desc>lat.=55.731419, lon.=26.244778, Alt.=166.873169m. Speed=8.136000m/h.</desc>
<speed>2.260000</speed>
</trkpt>
<trkpt lat="55.731449" lon="26.244747">
<ele>166.029419</ele>
<time>2010-07-17T10:41:04Z</time>
<desc>lat.=55.731449, lon.=26.244747, Alt.=166.029419m. Speed=12.096000m/h.</desc>
<speed>3.360000</speed>
</trkpt>
<trkpt lat="55.731476" lon="26.244724">
<ele>165.552856</ele>
<time>2010-07-17T10:41:05Z</time>
<desc>lat.=55.731476, lon.=26.244724, Alt.=165.552856m. Speed=11.484000m/h.</desc>
<speed>3.190000</speed>
</trkpt>
<trkpt lat="55.731514" lon="26.244699">
<ele>164.994263</ele>
<time>2010-07-17T10:41:06Z</time>
<desc>lat.=55.731514, lon.=26.244699, Alt.=164.994263m. Speed=15.696000m/h.</desc>
<speed>4.360000</speed>
</trkpt>
<trkpt lat="55.731544" lon="26.244665">
<ele>164.232544</ele>
<time>2010-07-17T10:41:07Z</time>
<desc>lat.=55.731544, lon.=26.244665, Alt.=164.232544m. Speed=14.616000m/h.</desc>
<speed>4.060000</speed>
</trkpt>
<trkpt lat="55.731579" lon="26.244617">
<ele>163.463013</ele>
<time>2010-07-17T10:41:08Z</time>
<desc>lat.=55.731579, lon.=26.244617, Alt.=163.463013m. Speed=15.264000m/h.</desc>
<speed>4.240000</speed>
</trkpt>
<trkpt lat="55.731621" lon="26.244587">
<ele>162.982544</ele>
<time>2010-07-17T10:41:09Z</time>
<desc>lat.=55.731621, lon.=26.244587, Alt.=162.982544m. Speed=16.812000m/h.</desc>
<speed>4.670000</speed>
</trkpt>
<trkpt lat="55.731667" lon="26.244549">
<ele>162.193481</ele>
<time>2010-07-17T10:41:10Z</time>
<desc>lat.=55.731667, lon.=26.244549, Alt.=162.193481m. Speed=16.271999m/h.</desc>
<speed>4.520000</speed>
</trkpt>
<trkpt lat="55.731709" lon="26.244526">
<ele>161.623169</ele>
<time>2010-07-17T10:41:11Z</time>
<desc>lat.=55.731709, lon.=26.244526, Alt.=161.623169m. Speed=16.452000m/h.</desc>
<speed>4.570000</speed>
</trkpt>
<trkpt lat="55.731754" lon="26.244509">
<ele>161.138794</ele>
<time>2010-07-17T10:41:12Z</time>
<desc>lat.=55.731754, lon.=26.244509, Alt.=161.138794m. Speed=15.840000m/h.</desc>
<speed>4.400000</speed>
</trkpt>
<trkpt lat="55.731792" lon="26.244493">
<ele>160.701294</ele>
<time>2010-07-17T10:41:13Z</time>
<desc>lat.=55.731792, lon.=26.244493, Alt.=160.701294m. Speed=14.364000m/h.</desc>
<speed>3.990000</speed>
</trkpt>
<trkpt lat="55.731827" lon="26.244476">
<ele>160.017700</ele>
<time>2010-07-17T10:41:14Z</time>
<desc>lat.=55.731827, lon.=26.244476, Alt.=160.017700m. Speed=12.240000m/h.</desc>
<speed>3.400000</speed>
</trkpt>
<trkpt lat="55.731861" lon="26.244476">
<ele>159.814575</ele>
<time>2010-07-17T10:41:15Z</time>
<desc>lat.=55.731861, lon.=26.244476, Alt.=159.814575m. Speed=10.152000m/h.</desc>
<speed>2.820000</speed>
</trkpt>
<trkpt lat="55.731907" lon="26.244480">
<ele>159.873169</ele>
<time>2010-07-17T10:41:16Z</time>
<desc>lat.=55.731907, lon.=26.244480, Alt.=159.873169m. Speed=13.572000m/h.</desc>
<speed>3.770000</speed>
</trkpt>
<trkpt lat="55.731949" lon="26.244474">
<ele>159.373169</ele>
<time>2010-07-17T10:41:17Z</time>
<desc>lat.=55.731949, lon.=26.244474, Alt.=159.373169m. Speed=14.076000m/h.</desc>
<speed>3.910000</speed>
</trkpt>
<trkpt lat="55.731995" lon="26.244453">
<ele>157.685669</ele>
<time>2010-07-17T10:41:18Z</time>
<desc>lat.=55.731995, lon.=26.244453, Alt.=157.685669m. Speed=14.724000m/h.</desc>
<speed>4.090000</speed>
</trkpt>
<trkpt lat="55.732052" lon="26.244465">
<ele>157.787231</ele>
<time>2010-07-17T10:41:19Z</time>
<desc>lat.=55.732052, lon.=26.244465, Alt.=157.787231m. Speed=18.180000m/h.</desc>
<speed>5.050000</speed>
</trkpt>
<trkpt lat="55.732098" lon="26.244488">
<ele>157.791138</ele>
<time>2010-07-17T10:41:20Z</time>
<desc>lat.=55.732098, lon.=26.244488, Alt.=157.791138m. Speed=18.360001m/h.</desc>
<speed>5.100000</speed>
</trkpt>
<trkpt lat="55.732140" lon="26.244514">
<ele>157.584106</ele>
<time>2010-07-17T10:41:21Z</time>
<desc>lat.=55.732140, lon.=26.244514, Alt.=157.584106m. Speed=16.596001m/h.</desc>
<speed>4.610000</speed>
</trkpt>
<trkpt lat="55.732182" lon="26.244549">
<ele>157.291138</ele>
<time>2010-07-17T10:41:22Z</time>
<desc>lat.=55.732182, lon.=26.244549, Alt.=157.291138m. Speed=17.172001m/h.</desc>
<speed>4.770000</speed>
</trkpt>
<trkpt lat="55.732216" lon="26.244581">
<ele>157.084106</ele>
<time>2010-07-17T10:41:23Z</time>
<desc>lat.=55.732216, lon.=26.244581, Alt.=157.084106m. Speed=15.552000m/h.</desc>
<speed>4.320000</speed>
</trkpt>
<trkpt lat="55.732250" lon="26.244629">
<ele>157.193481</ele>
<time>2010-07-17T10:41:24Z</time>
<desc>lat.=55.732250, lon.=26.244629, Alt.=157.193481m. Speed=12.852000m/h.</desc>
<speed>3.570000</speed>
</trkpt>
<trkpt lat="55.732277" lon="26.244671">
<ele>156.724731</ele>
<time>2010-07-17T10:41:25Z</time>
<desc>lat.=55.732277, lon.=26.244671, Alt.=156.724731m. Speed=13.752000m/h.</desc>
<speed>3.820000</speed>
</trkpt>
<trkpt lat="55.732304" lon="26.244715">
<ele>156.798950</ele>
<time>2010-07-17T10:41:26Z</time>
<desc>lat.=55.732304, lon.=26.244715, Alt.=156.798950m. Speed=13.212000m/h.</desc>
<speed>3.670000</speed>
</trkpt>
<trkpt lat="55.732330" lon="26.244766">
<ele>156.771606</ele>
<time>2010-07-17T10:41:27Z</time>
<desc>lat.=55.732330, lon.=26.244766, Alt.=156.771606m. Speed=14.004000m/h.</desc>
<speed>3.890000</speed>
</trkpt>
<trkpt lat="55.732357" lon="26.244812">
<ele>156.775513</ele>
<time>2010-07-17T10:41:28Z</time>
<desc>lat.=55.732357, lon.=26.244812, Alt.=156.775513m. Speed=13.356000m/h.</desc>
<speed>3.710000</speed>
</trkpt>
<trkpt lat="55.732376" lon="26.244850">
<ele>156.556763</ele>
<time>2010-07-17T10:41:29Z</time>
<desc>lat.=55.732376, lon.=26.244850, Alt.=156.556763m. Speed=10.764000m/h.</desc>
<speed>2.990000</speed>
</trkpt>
<trkpt lat="55.732395" lon="26.244896">
<ele>156.537231</ele>
<time>2010-07-17T10:41:30Z</time>
<desc>lat.=55.732395, lon.=26.244896, Alt.=156.537231m. Speed=11.700000m/h.</desc>
<speed>3.250000</speed>
</trkpt>
<trkpt lat="55.732418" lon="26.244944">
<ele>156.775513</ele>
<time>2010-07-17T10:41:31Z</time>
<desc>lat.=55.732418, lon.=26.244944, Alt.=156.775513m. Speed=11.628000m/h.</desc>
<speed>3.230000</speed>
</trkpt>
<trkpt lat="55.732437" lon="26.244993">
<ele>156.970825</ele>
<time>2010-07-17T10:41:32Z</time>
<desc>lat.=55.732437, lon.=26.244993, Alt.=156.970825m. Speed=10.224000m/h.</desc>
<speed>2.840000</speed>
</trkpt>
<trkpt lat="55.732456" lon="26.245033">
<ele>156.990356</ele>
<time>2010-07-17T10:41:33Z</time>
<desc>lat.=55.732456, lon.=26.245033, Alt.=156.990356m. Speed=11.268000m/h.</desc>
<speed>3.130000</speed>
</trkpt>
<trkpt lat="55.732479" lon="26.245071">
<ele>157.134888</ele>
<time>2010-07-17T10:41:34Z</time>
<desc>lat.=55.732479, lon.=26.245071, Alt.=157.134888m. Speed=14.400000m/h.</desc>
<speed>4.000000</speed>
</trkpt>
<trkpt lat="55.732510" lon="26.245108">
<ele>157.341919</ele>
<time>2010-07-17T10:41:35Z</time>
<desc>lat.=55.732510, lon.=26.245108, Alt.=157.341919m. Speed=13.824000m/h.</desc>
<speed>3.840000</speed>
</trkpt>
<trkpt lat="55.732548" lon="26.245144">
<ele>157.412231</ele>
<time>2010-07-17T10:41:36Z</time>
<desc>lat.=55.732548, lon.=26.245144, Alt.=157.412231m. Speed=14.400000m/h.</desc>
<speed>4.000000</speed>
</trkpt>
<trkpt lat="55.732590" lon="26.245165">
<ele>157.646606</ele>
<time>2010-07-17T10:41:37Z</time>
<desc>lat.=55.732590, lon.=26.245165, Alt.=157.646606m. Speed=17.280001m/h.</desc>
<speed>4.800000</speed>
</trkpt>
<trkpt lat="55.732635" lon="26.245188">
<ele>157.861450</ele>
<time>2010-07-17T10:41:38Z</time>
<desc>lat.=55.732635, lon.=26.245188, Alt.=157.861450m. Speed=16.596001m/h.</desc>
<speed>4.610000</speed>
</trkpt>
<trkpt lat="55.732670" lon="26.245193">
<ele>158.130981</ele>
<time>2010-07-17T10:41:39Z</time>
<desc>lat.=55.732670, lon.=26.245193, Alt.=158.130981m. Speed=15.192000m/h.</desc>
<speed>4.220000</speed>
</trkpt>
<trkpt lat="55.732693" lon="26.245207">
<ele>158.791138</ele>
<time>2010-07-17T10:41:40Z</time>
<desc>lat.=55.732693, lon.=26.245207, Alt.=158.791138m. Speed=13.212000m/h.</desc>
<speed>3.670000</speed>
</trkpt>
<trkpt lat="55.732716" lon="26.245201">
<ele>159.127075</ele>
<time>2010-07-17T10:41:41Z</time>
<desc>lat.=55.732716, lon.=26.245201, Alt.=159.127075m. Speed=11.088000m/h.</desc>
<speed>3.080000</speed>
</trkpt>
<trkpt lat="55.732742" lon="26.245201">
<ele>159.099731</ele>
<time>2010-07-17T10:41:42Z</time>
<desc>lat.=55.732742, lon.=26.245201, Alt.=159.099731m. Speed=10.512000m/h.</desc>
<speed>2.920000</speed>
</trkpt>
<trkpt lat="55.732769" lon="26.245205">
<ele>159.017700</ele>
<time>2010-07-17T10:41:43Z</time>
<desc>lat.=55.732769, lon.=26.245205, Alt.=159.017700m. Speed=9.252000m/h.</desc>
<speed>2.570000</speed>
</trkpt>
<trkpt lat="55.732811" lon="26.245186">
<ele>158.654419</ele>
<time>2010-07-17T10:41:44Z</time>
<desc>lat.=55.732811, lon.=26.245186, Alt.=158.654419m. Speed=10.800000m/h.</desc>
<speed>3.000000</speed>
</trkpt>
<trkpt lat="55.732841" lon="26.245178">
<ele>158.838013</ele>
<time>2010-07-17T10:41:45Z</time>
<desc>lat.=55.732841, lon.=26.245178, Alt.=158.838013m. Speed=11.232000m/h.</desc>
<speed>3.120000</speed>
</trkpt>
<trkpt lat="55.732876" lon="26.245167">
<ele>158.904419</ele>
<time>2010-07-17T10:41:46Z</time>
<desc>lat.=55.732876, lon.=26.245167, Alt.=158.904419m. Speed=10.476000m/h.</desc>
<speed>2.910000</speed>
</trkpt>
<trkpt lat="55.732903" lon="26.245159">
<ele>159.298950</ele>
<time>2010-07-17T10:41:47Z</time>
<desc>lat.=55.732903, lon.=26.245159, Alt.=159.298950m. Speed=8.388000m/h.</desc>
<speed>2.330000</speed>
</trkpt>
<trkpt lat="55.732952" lon="26.245153">
<ele>159.623169</ele>
<time>2010-07-17T10:41:48Z</time>
<desc>lat.=55.732952, lon.=26.245153, Alt.=159.623169m. Speed=11.124000m/h.</desc>
<speed>3.090000</speed>
</trkpt>
<trkpt lat="55.732990" lon="26.245161">
<ele>160.978638</ele>
<time>2010-07-17T10:41:49Z</time>
<desc>lat.=55.732990, lon.=26.245161, Alt.=160.978638m. Speed=9.180000m/h.</desc>
<speed>2.550000</speed>
</trkpt>
<trkpt lat="55.733044" lon="26.245161">
<ele>161.443481</ele>
<time>2010-07-17T10:41:50Z</time>
<desc>lat.=55.733044, lon.=26.245161, Alt.=161.443481m. Speed=11.124000m/h.</desc>
<speed>3.090000</speed>
</trkpt>
<trkpt lat="55.733067" lon="26.245144">
<ele>161.662231</ele>
<time>2010-07-17T10:41:51Z</time>
<desc>lat.=55.733067, lon.=26.245144, Alt.=161.662231m. Speed=14.832000m/h.</desc>
<speed>4.120000</speed>
</trkpt>
<trkpt lat="55.733109" lon="26.245142">
<ele>162.099731</ele>
<time>2010-07-17T10:41:52Z</time>
<desc>lat.=55.733109, lon.=26.245142, Alt.=162.099731m. Speed=14.112000m/h.</desc>
<speed>3.920000</speed>
</trkpt>
<trkpt lat="55.733150" lon="26.245132">
<ele>162.338013</ele>
<time>2010-07-17T10:41:53Z</time>
<desc>lat.=55.733150, lon.=26.245132, Alt.=162.338013m. Speed=12.096000m/h.</desc>
<speed>3.360000</speed>
</trkpt>
<trkpt lat="55.733192" lon="26.245131">
<ele>162.591919</ele>
<time>2010-07-17T10:41:54Z</time>
<desc>lat.=55.733192, lon.=26.245131, Alt.=162.591919m. Speed=11.880000m/h.</desc>
<speed>3.300000</speed>
</trkpt>
<trkpt lat="55.733234" lon="26.245125">
<ele>163.052856</ele>
<time>2010-07-17T10:41:55Z</time>
<desc>lat.=55.733234, lon.=26.245125, Alt.=163.052856m. Speed=13.896000m/h.</desc>
<speed>3.860000</speed>
</trkpt>
<trkpt lat="55.733269" lon="26.245098">
<ele>163.017700</ele>
<time>2010-07-17T10:41:56Z</time>
<desc>lat.=55.733269, lon.=26.245098, Alt.=163.017700m. Speed=13.968000m/h.</desc>
<speed>3.880000</speed>
</trkpt>
<trkpt lat="55.733303" lon="26.245083">
<ele>163.252075</ele>
<time>2010-07-17T10:41:57Z</time>
<desc>lat.=55.733303, lon.=26.245083, Alt.=163.252075m. Speed=13.068000m/h.</desc>
<speed>3.630000</speed>
</trkpt>
<trkpt lat="55.733330" lon="26.245066">
<ele>163.509888</ele>
<time>2010-07-17T10:41:58Z</time>
<desc>lat.=55.733330, lon.=26.245066, Alt.=163.509888m. Speed=12.708000m/h.</desc>
<speed>3.530000</speed>
</trkpt>
<trkpt lat="55.733364" lon="26.245052">
<ele>163.806763</ele>
<time>2010-07-17T10:41:59Z</time>
<desc>lat.=55.733364, lon.=26.245052, Alt.=163.806763m. Speed=12.276000m/h.</desc>
<speed>3.410000</speed>
</trkpt>
<trkpt lat="55.733395" lon="26.245029">
<ele>164.416138</ele>
<time>2010-07-17T10:42:00Z</time>
<desc>lat.=55.733395, lon.=26.245029, Alt.=164.416138m. Speed=12.708000m/h.</desc>
<speed>3.530000</speed>
</trkpt>
<trkpt lat="55.733429" lon="26.245041">
<ele>164.724731</ele>
<time>2010-07-17T10:42:01Z</time>
<desc>lat.=55.733429, lon.=26.245041, Alt.=164.724731m. Speed=10.260000m/h.</desc>
<speed>2.850000</speed>
</trkpt>
<trkpt lat="55.733456" lon="26.245041">
<ele>165.076294</ele>
<time>2010-07-17T10:42:02Z</time>
<desc>lat.=55.733456, lon.=26.245041, Alt.=165.076294m. Speed=9.108000m/h.</desc>
<speed>2.530000</speed>
</trkpt>
<trkpt lat="55.733479" lon="26.245029">
<ele>165.341919</ele>
<time>2010-07-17T10:42:03Z</time>
<desc>lat.=55.733479, lon.=26.245029, Alt.=165.341919m. Speed=9.144000m/h.</desc>
<speed>2.540000</speed>
</trkpt>
<trkpt lat="55.733521" lon="26.245028">
<ele>165.767700</ele>
<time>2010-07-17T10:42:04Z</time>
<desc>lat.=55.733521, lon.=26.245028, Alt.=165.767700m. Speed=15.228000m/h.</desc>
<speed>4.230000</speed>
</trkpt>
<trkpt lat="55.733566" lon="26.245028">
<ele>165.920044</ele>
<time>2010-07-17T10:42:05Z</time>
<desc>lat.=55.733566, lon.=26.245028, Alt.=165.920044m. Speed=15.264000m/h.</desc>
<speed>4.240000</speed>
</trkpt>
<trkpt lat="55.733608" lon="26.245024">
<ele>166.123169</ele>
<time>2010-07-17T10:42:06Z</time>
<desc>lat.=55.733608, lon.=26.245024, Alt.=166.123169m. Speed=14.508000m/h.</desc>
<speed>4.030000</speed>
</trkpt>
<trkpt lat="55.733646" lon="26.245033">
<ele>166.982544</ele>
<time>2010-07-17T10:42:07Z</time>
<desc>lat.=55.733646, lon.=26.245033, Alt.=166.982544m. Speed=12.780000m/h.</desc>
<speed>3.550000</speed>
</trkpt>
<trkpt lat="55.733677" lon="26.245029">
<ele>167.705200</ele>
<time>2010-07-17T10:42:08Z</time>
<desc>lat.=55.733677, lon.=26.245029, Alt.=167.705200m. Speed=10.368000m/h.</desc>
<speed>2.880000</speed>
</trkpt>
<trkpt lat="55.733711" lon="26.245029">
<ele>168.119263</ele>
<time>2010-07-17T10:42:09Z</time>
<desc>lat.=55.733711, lon.=26.245029, Alt.=168.119263m. Speed=11.736000m/h.</desc>
<speed>3.260000</speed>
</trkpt>
<trkpt lat="55.733738" lon="26.245028">
<ele>168.341919</ele>
<time>2010-07-17T10:42:10Z</time>
<desc>lat.=55.733738, lon.=26.245028, Alt.=168.341919m. Speed=14.328000m/h.</desc>
<speed>3.980000</speed>
</trkpt>
<trkpt lat="55.733776" lon="26.245022">
<ele>168.603638</ele>
<time>2010-07-17T10:42:11Z</time>
<desc>lat.=55.733776, lon.=26.245022, Alt.=168.603638m. Speed=14.868000m/h.</desc>
<speed>4.130000</speed>
</trkpt>
<trkpt lat="55.733810" lon="26.245008">
<ele>169.248169</ele>
<time>2010-07-17T10:42:12Z</time>
<desc>lat.=55.733810, lon.=26.245008, Alt.=169.248169m. Speed=13.212000m/h.</desc>
<speed>3.670000</speed>
</trkpt>
<trkpt lat="55.733841" lon="26.244993">
<ele>169.451294</ele>
<time>2010-07-17T10:42:13Z</time>
<desc>lat.=55.733841, lon.=26.244993, Alt.=169.451294m. Speed=17.208000m/h.</desc>
<speed>4.780000</speed>
</trkpt>
<trkpt lat="55.733898" lon="26.244995">
<ele>169.869263</ele>
<time>2010-07-17T10:42:14Z</time>
<desc>lat.=55.733898, lon.=26.244995, Alt.=169.869263m. Speed=17.639999m/h.</desc>
<speed>4.900000</speed>
</trkpt>
<trkpt lat="55.733967" lon="26.244987">
<ele>170.177856</ele>
<time>2010-07-17T10:42:15Z</time>
<desc>lat.=55.733967, lon.=26.244987, Alt.=170.177856m. Speed=18.216000m/h.</desc>
<speed>5.060000</speed>
</trkpt>
<trkpt lat="55.734024" lon="26.244968">
<ele>170.322388</ele>
<time>2010-07-17T10:42:16Z</time>
<desc>lat.=55.734024, lon.=26.244968, Alt.=170.322388m. Speed=18.431999m/h.</desc>
<speed>5.120000</speed>
</trkpt>
<trkpt lat="55.734070" lon="26.244949">
<ele>169.963013</ele>
<time>2010-07-17T10:42:17Z</time>
<desc>lat.=55.734070, lon.=26.244949, Alt.=169.963013m. Speed=16.848000m/h.</desc>
<speed>4.680000</speed>
</trkpt>
<trkpt lat="55.734116" lon="26.244940">
<ele>170.412231</ele>
<time>2010-07-17T10:42:18Z</time>
<desc>lat.=55.734116, lon.=26.244940, Alt.=170.412231m. Speed=17.100000m/h.</desc>
<speed>4.750000</speed>
</trkpt>
<trkpt lat="55.734165" lon="26.244930">
<ele>171.076294</ele>
<time>2010-07-17T10:42:19Z</time>
<desc>lat.=55.734165, lon.=26.244930, Alt.=171.076294m. Speed=17.532000m/h.</desc>
<speed>4.870000</speed>
</trkpt>
<trkpt lat="55.734215" lon="26.244905">
<ele>170.056763</ele>
<time>2010-07-17T10:42:20Z</time>
<desc>lat.=55.734215, lon.=26.244905, Alt.=170.056763m. Speed=15.660000m/h.</desc>
<speed>4.350000</speed>
</trkpt>
<trkpt lat="55.734257" lon="26.244898">
<ele>169.838013</ele>
<time>2010-07-17T10:42:21Z</time>
<desc>lat.=55.734257, lon.=26.244898, Alt.=169.838013m. Speed=17.063999m/h.</desc>
<speed>4.740000</speed>
</trkpt>
<trkpt lat="55.734299" lon="26.244879">
<ele>168.560669</ele>
<time>2010-07-17T10:42:22Z</time>
<desc>lat.=55.734299, lon.=26.244879, Alt.=168.560669m. Speed=15.840000m/h.</desc>
<speed>4.400000</speed>
</trkpt>
<trkpt lat="55.734341" lon="26.244860">
<ele>167.490356</ele>
<time>2010-07-17T10:42:23Z</time>
<desc>lat.=55.734341, lon.=26.244860, Alt.=167.490356m. Speed=16.667999m/h.</desc>
<speed>4.630000</speed>
</trkpt>
<trkpt lat="55.734379" lon="26.244856">
<ele>167.056763</ele>
<time>2010-07-17T10:42:24Z</time>
<desc>lat.=55.734379, lon.=26.244856, Alt.=167.056763m. Speed=15.408000m/h.</desc>
<speed>4.280000</speed>
</trkpt>
<trkpt lat="55.734421" lon="26.244858">
<ele>167.033325</ele>
<time>2010-07-17T10:42:25Z</time>
<desc>lat.=55.734421, lon.=26.244858, Alt.=167.033325m. Speed=16.488001m/h.</desc>
<speed>4.580000</speed>
</trkpt>
<trkpt lat="55.734463" lon="26.244860">
<ele>167.517700</ele>
<time>2010-07-17T10:42:26Z</time>
<desc>lat.=55.734463, lon.=26.244860, Alt.=167.517700m. Speed=16.596001m/h.</desc>
<speed>4.610000</speed>
</trkpt>
<trkpt lat="55.734493" lon="26.244856">
<ele>167.759888</ele>
<time>2010-07-17T10:42:27Z</time>
<desc>lat.=55.734493, lon.=26.244856, Alt.=167.759888m. Speed=12.132000m/h.</desc>
<speed>3.370000</speed>
</trkpt>
<trkpt lat="55.734524" lon="26.244841">
<ele>168.830200</ele>
<time>2010-07-17T10:42:28Z</time>
<desc>lat.=55.734524, lon.=26.244841, Alt.=168.830200m. Speed=10.152000m/h.</desc>
<speed>2.820000</speed>
</trkpt>
<trkpt lat="55.734558" lon="26.244823">
<ele>169.986450</ele>
<time>2010-07-17T10:42:29Z</time>
<desc>lat.=55.734558, lon.=26.244823, Alt.=169.986450m. Speed=11.124000m/h.</desc>
<speed>3.090000</speed>
</trkpt>
<trkpt lat="55.734589" lon="26.244808">
<ele>170.259888</ele>
<time>2010-07-17T10:42:30Z</time>
<desc>lat.=55.734589, lon.=26.244808, Alt.=170.259888m. Speed=10.260000m/h.</desc>
<speed>2.850000</speed>
</trkpt>
<trkpt lat="55.734634" lon="26.244802">
<ele>170.084106</ele>
<time>2010-07-17T10:42:31Z</time>
<desc>lat.=55.734634, lon.=26.244802, Alt.=170.084106m. Speed=12.492000m/h.</desc>
<speed>3.470000</speed>
</trkpt>
<trkpt lat="55.734673" lon="26.244804">
<ele>169.935669</ele>
<time>2010-07-17T10:42:32Z</time>
<desc>lat.=55.734673, lon.=26.244804, Alt.=169.935669m. Speed=9.612000m/h.</desc>
<speed>2.670000</speed>
</trkpt>
<trkpt lat="55.734699" lon="26.244795">
<ele>170.009888</ele>
<time>2010-07-17T10:42:33Z</time>
<desc>lat.=55.734699, lon.=26.244795, Alt.=170.009888m. Speed=14.220000m/h.</desc>
<speed>3.950000</speed>
</trkpt>
<trkpt lat="55.734806" lon="26.244793">
<ele>172.216919</ele>
<time>2010-07-17T10:42:34Z</time>
<desc>lat.=55.734806, lon.=26.244793, Alt.=172.216919m. Speed=11.592000m/h.</desc>
<speed>3.220000</speed>
</trkpt>
<trkpt lat="55.734856" lon="26.244787">
<ele>173.072388</ele>
<time>2010-07-17T10:42:35Z</time>
<desc>lat.=55.734856, lon.=26.244787, Alt.=173.072388m. Speed=8.820000m/h.</desc>
<speed>2.450000</speed>
</trkpt>
<trkpt lat="55.734890" lon="26.244787">
<ele>173.759888</ele>
<time>2010-07-17T10:42:36Z</time>
<desc>lat.=55.734890, lon.=26.244787, Alt.=173.759888m. Speed=7.740000m/h.</desc>
<speed>2.150000</speed>
</trkpt>
<trkpt lat="55.734928" lon="26.244793">
<ele>175.048950</ele>
<time>2010-07-17T10:42:37Z</time>
<desc>lat.=55.734928, lon.=26.244793, Alt.=175.048950m. Speed=7.488000m/h.</desc>
<speed>2.080000</speed>
</trkpt>
<trkpt lat="55.734955" lon="26.244799">
<ele>175.213013</ele>
<time>2010-07-17T10:42:38Z</time>
<desc>lat.=55.734955, lon.=26.244799, Alt.=175.213013m. Speed=7.416000m/h.</desc>
<speed>2.060000</speed>
</trkpt>
<trkpt lat="55.734978" lon="26.244789">
<ele>175.138794</ele>
<time>2010-07-17T10:42:39Z</time>
<desc>lat.=55.734978, lon.=26.244789, Alt.=175.138794m. Speed=5.292000m/h.</desc>
<speed>1.470000</speed>
</trkpt>
<trkpt lat="55.735008" lon="26.244787">
<ele>175.463013</ele>
<time>2010-07-17T10:42:40Z</time>
<desc>lat.=55.735008, lon.=26.244787, Alt.=175.463013m. Speed=8.352000m/h.</desc>
<speed>2.320000</speed>
</trkpt>
<trkpt lat="55.735043" lon="26.244802">
<ele>175.603638</ele>
<time>2010-07-17T10:42:41Z</time>
<desc>lat.=55.735043, lon.=26.244802, Alt.=175.603638m. Speed=6.120000m/h.</desc>
<speed>1.700000</speed>
</trkpt>
<trkpt lat="55.735065" lon="26.244802">
<ele>175.834106</ele>
<time>2010-07-17T10:42:42Z</time>
<desc>lat.=55.735065, lon.=26.244802, Alt.=175.834106m. Speed=3.960000m/h.</desc>
<speed>1.100000</speed>
</trkpt>
<trkpt lat="55.735073" lon="26.244806">
<ele>176.927856</ele>
<time>2010-07-17T10:42:43Z</time>
<desc>lat.=55.735073, lon.=26.244806, Alt.=176.927856m. Speed=2.448000m/h.</desc>
<speed>0.680000</speed>
</trkpt>
<trkpt lat="55.735069" lon="26.244797">
<ele>176.802856</ele>
<time>2010-07-17T10:42:44Z</time>
<desc>lat.=55.735069, lon.=26.244797, Alt.=176.802856m. Speed=2.592000m/h.</desc>
<speed>0.720000</speed>
</trkpt>
<trkpt lat="55.735058" lon="26.244781">
<ele>176.713013</ele>
<time>2010-07-17T10:42:45Z</time>
<desc>lat.=55.735058, lon.=26.244781, Alt.=176.713013m. Speed=3.636000m/h.</desc>
<speed>1.010000</speed>
</trkpt>
<trkpt lat="55.735046" lon="26.244751">
<ele>175.291138</ele>
<time>2010-07-17T10:42:46Z</time>
<desc>lat.=55.735046, lon.=26.244751, Alt.=175.291138m. Speed=4.824000m/h.</desc>
<speed>1.340000</speed>
</trkpt>
<trkpt lat="55.735027" lon="26.244738">
<ele>175.607544</ele>
<time>2010-07-17T10:42:47Z</time>
<desc>lat.=55.735027, lon.=26.244738, Alt.=175.607544m. Speed=5.724000m/h.</desc>
<speed>1.590000</speed>
</trkpt>
<trkpt lat="55.735012" lon="26.244701">
<ele>174.931763</ele>
<time>2010-07-17T10:42:48Z</time>
<desc>lat.=55.735012, lon.=26.244701, Alt.=174.931763m. Speed=5.652000m/h.</desc>
<speed>1.570000</speed>
</trkpt>
<trkpt lat="55.735023" lon="26.244671">
<ele>173.775513</ele>
<time>2010-07-17T10:42:49Z</time>
<desc>lat.=55.735023, lon.=26.244671, Alt.=173.775513m. Speed=8.496000m/h.</desc>
<speed>2.360000</speed>
</trkpt>
<trkpt lat="55.735046" lon="26.244642">
<ele>172.736450</ele>
<time>2010-07-17T10:42:50Z</time>
<desc>lat.=55.735046, lon.=26.244642, Alt.=172.736450m. Speed=9.324000m/h.</desc>
<speed>2.590000</speed>
</trkpt>
<trkpt lat="55.735054" lon="26.244608">
<ele>172.345825</ele>
<time>2010-07-17T10:42:51Z</time>
<desc>lat.=55.735054, lon.=26.244608, Alt.=172.345825m. Speed=9.432000m/h.</desc>
<speed>2.620000</speed>
</trkpt>
<trkpt lat="55.735062" lon="26.244566">
<ele>171.755981</ele>
<time>2010-07-17T10:42:52Z</time>
<desc>lat.=55.735062, lon.=26.244566, Alt.=171.755981m. Speed=9.612000m/h.</desc>
<speed>2.670000</speed>
</trkpt>
<trkpt lat="55.735073" lon="26.244514">
<ele>171.724731</ele>
<time>2010-07-17T10:42:53Z</time>
<desc>lat.=55.735073, lon.=26.244514, Alt.=171.724731m. Speed=10.836000m/h.</desc>
<speed>3.010000</speed>
</trkpt>
<trkpt lat="55.735088" lon="26.244457">
<ele>171.556763</ele>
<time>2010-07-17T10:42:54Z</time>
<desc>lat.=55.735088, lon.=26.244457, Alt.=171.556763m. Speed=10.620000m/h.</desc>
<speed>2.950000</speed>
</trkpt>
<trkpt lat="55.735100" lon="26.244408">
<ele>171.572388</ele>
<time>2010-07-17T10:42:55Z</time>
<desc>lat.=55.735100, lon.=26.244408, Alt.=171.572388m. Speed=9.288000m/h.</desc>
<speed>2.580000</speed>
</trkpt>
<trkpt lat="55.735123" lon="26.244370">
<ele>171.189575</ele>
<time>2010-07-17T10:42:56Z</time>
<desc>lat.=55.735123, lon.=26.244370, Alt.=171.189575m. Speed=7.632000m/h.</desc>
<speed>2.120000</speed>
</trkpt>
<trkpt lat="55.735146" lon="26.244326">
<ele>171.240356</ele>
<time>2010-07-17T10:42:57Z</time>
<desc>lat.=55.735146, lon.=26.244326, Alt.=171.240356m. Speed=8.460000m/h.</desc>
<speed>2.350000</speed>
</trkpt>
<trkpt lat="55.735157" lon="26.244259">
<ele>171.279419</ele>
<time>2010-07-17T10:42:58Z</time>
<desc>lat.=55.735157, lon.=26.244259, Alt.=171.279419m. Speed=10.620000m/h.</desc>
<speed>2.950000</speed>
</trkpt>
<trkpt lat="55.735149" lon="26.244186">
<ele>171.099731</ele>
<time>2010-07-17T10:42:59Z</time>
<desc>lat.=55.735149, lon.=26.244186, Alt.=171.099731m. Speed=11.592000m/h.</desc>
<speed>3.220000</speed>
</trkpt>
<trkpt lat="55.735153" lon="26.244137">
<ele>171.435669</ele>
<time>2010-07-17T10:43:00Z</time>
<desc>lat.=55.735153, lon.=26.244137, Alt.=171.435669m. Speed=9.396000m/h.</desc>
<speed>2.610000</speed>
</trkpt>
<trkpt lat="55.735149" lon="26.244076">
<ele>171.521606</ele>
<time>2010-07-17T10:43:01Z</time>
<desc>lat.=55.735149, lon.=26.244076, Alt.=171.521606m. Speed=11.916000m/h.</desc>
<speed>3.310000</speed>
</trkpt>
<trkpt lat="55.735149" lon="26.244022">
<ele>171.455200</ele>
<time>2010-07-17T10:43:02Z</time>
<desc>lat.=55.735149, lon.=26.244022, Alt.=171.455200m. Speed=11.880000m/h.</desc>
<speed>3.300000</speed>
</trkpt>
<trkpt lat="55.735149" lon="26.243965">
<ele>171.380981</ele>
<time>2010-07-17T10:43:03Z</time>
<desc>lat.=55.735149, lon.=26.243965, Alt.=171.380981m. Speed=10.764000m/h.</desc>
<speed>2.990000</speed>
</trkpt>
<trkpt lat="55.735153" lon="26.243917">
<ele>171.298950</ele>
<time>2010-07-17T10:43:04Z</time>
<desc>lat.=55.735153, lon.=26.243917, Alt.=171.298950m. Speed=10.404000m/h.</desc>
<speed>2.890000</speed>
</trkpt>
<trkpt lat="55.735161" lon="26.243858">
<ele>171.318481</ele>
<time>2010-07-17T10:43:05Z</time>
<desc>lat.=55.735161, lon.=26.243858, Alt.=171.318481m. Speed=12.528000m/h.</desc>
<speed>3.480000</speed>
</trkpt>
<trkpt lat="55.735157" lon="26.243792">
<ele>171.412231</ele>
<time>2010-07-17T10:43:06Z</time>
<desc>lat.=55.735157, lon.=26.243792, Alt.=171.412231m. Speed=12.708000m/h.</desc>
<speed>3.530000</speed>
</trkpt>
<trkpt lat="55.735157" lon="26.243725">
<ele>171.486450</ele>
<time>2010-07-17T10:43:07Z</time>
<desc>lat.=55.735157, lon.=26.243725, Alt.=171.486450m. Speed=11.844000m/h.</desc>
<speed>3.290000</speed>
</trkpt>
<trkpt lat="55.735161" lon="26.243643">
<ele>171.240356</ele>
<time>2010-07-17T10:43:08Z</time>
<desc>lat.=55.735161, lon.=26.243643, Alt.=171.240356m. Speed=12.708000m/h.</desc>
<speed>3.530000</speed>
</trkpt>
<trkpt lat="55.735149" lon="26.243568">
<ele>170.775513</ele>
<time>2010-07-17T10:43:09Z</time>
<desc>lat.=55.735149, lon.=26.243568, Alt.=170.775513m. Speed=11.664000m/h.</desc>
<speed>3.240000</speed>
</trkpt>
<trkpt lat="55.735153" lon="26.243511">
<ele>170.576294</ele>
<time>2010-07-17T10:43:10Z</time>
<desc>lat.=55.735153, lon.=26.243511, Alt.=170.576294m. Speed=11.484000m/h.</desc>
<speed>3.190000</speed>
</trkpt>
<trkpt lat="55.735157" lon="26.243450">
<ele>170.478638</ele>
<time>2010-07-17T10:43:11Z</time>
<desc>lat.=55.735157, lon.=26.243450, Alt.=170.478638m. Speed=12.060000m/h.</desc>
<speed>3.350000</speed>
</trkpt>
<trkpt lat="55.735157" lon="26.243395">
<ele>170.154419</ele>
<time>2010-07-17T10:43:12Z</time>
<desc>lat.=55.735157, lon.=26.243395, Alt.=170.154419m. Speed=10.656000m/h.</desc>
<speed>2.960000</speed>
</trkpt>
<trkpt lat="55.735149" lon="26.243336">
<ele>170.177856</ele>
<time>2010-07-17T10:43:13Z</time>
<desc>lat.=55.735149, lon.=26.243336, Alt.=170.177856m. Speed=10.296000m/h.</desc>
<speed>2.860000</speed>
</trkpt>
<trkpt lat="55.735138" lon="26.243286">
<ele>170.091919</ele>
<time>2010-07-17T10:43:14Z</time>
<desc>lat.=55.735138, lon.=26.243286, Alt.=170.091919m. Speed=9.792000m/h.</desc>
<speed>2.720000</speed>
</trkpt>
<trkpt lat="55.735130" lon="26.243237">
<ele>169.908325</ele>
<time>2010-07-17T10:43:15Z</time>
<desc>lat.=55.735130, lon.=26.243237, Alt.=169.908325m. Speed=10.116000m/h.</desc>
<speed>2.810000</speed>
</trkpt>
<trkpt lat="55.735107" lon="26.243143">
<ele>168.838013</ele>
<time>2010-07-17T10:43:16Z</time>
<desc>lat.=55.735107, lon.=26.243143, Alt.=168.838013m. Speed=12.348000m/h.</desc>
<speed>3.430000</speed>
</trkpt>
<trkpt lat="55.735107" lon="26.243078">
<ele>168.931763</ele>
<time>2010-07-17T10:43:17Z</time>
<desc>lat.=55.735107, lon.=26.243078, Alt.=168.931763m. Speed=11.592000m/h.</desc>
<speed>3.220000</speed>
</trkpt>
<trkpt lat="55.735100" lon="26.243013">
<ele>168.826294</ele>
<time>2010-07-17T10:43:18Z</time>
<desc>lat.=55.735100, lon.=26.243013, Alt.=168.826294m. Speed=12.744000m/h.</desc>
<speed>3.540000</speed>
</trkpt>
<trkpt lat="55.735092" lon="26.242933">
<ele>168.459106</ele>
<time>2010-07-17T10:43:19Z</time>
<desc>lat.=55.735092, lon.=26.242933, Alt.=168.459106m. Speed=13.212000m/h.</desc>
<speed>3.670000</speed>
</trkpt>
<trkpt lat="55.735085" lon="26.242853">
<ele>168.263794</ele>
<time>2010-07-17T10:43:20Z</time>
<desc>lat.=55.735085, lon.=26.242853, Alt.=168.263794m. Speed=15.732000m/h.</desc>
<speed>4.370000</speed>
</trkpt>
<trkpt lat="55.735058" lon="26.242756">
<ele>168.431763</ele>
<time>2010-07-17T10:43:21Z</time>
<desc>lat.=55.735058, lon.=26.242756, Alt.=168.431763m. Speed=17.243999m/h.</desc>
<speed>4.790000</speed>
</trkpt>
<trkpt lat="55.735008" lon="26.242617">
<ele>168.603638</ele>
<time>2010-07-17T10:43:22Z</time>
<desc>lat.=55.735008, lon.=26.242617, Alt.=168.603638m. Speed=22.464001m/h.</desc>
<speed>6.240000</speed>
</trkpt>
<trkpt lat="55.734959" lon="26.242491">
<ele>168.662231</ele>
<time>2010-07-17T10:43:23Z</time>
<desc>lat.=55.734959, lon.=26.242491, Alt.=168.662231m. Speed=24.191999m/h.</desc>
<speed>6.720000</speed>
</trkpt>
<trkpt lat="55.734928" lon="26.242401">
<ele>168.826294</ele>
<time>2010-07-17T10:43:24Z</time>
<desc>lat.=55.734928, lon.=26.242401, Alt.=168.826294m. Speed=23.940001m/h.</desc>
<speed>6.650000</speed>
</trkpt>
<trkpt lat="55.734890" lon="26.242296">
<ele>168.470825</ele>
<time>2010-07-17T10:43:25Z</time>
<desc>lat.=55.734890, lon.=26.242296, Alt.=168.470825m. Speed=26.172001m/h.</desc>
<speed>7.270000</speed>
</trkpt>
<trkpt lat="55.734844" lon="26.242172">
<ele>168.216919</ele>
<time>2010-07-17T10:43:26Z</time>
<desc>lat.=55.734844, lon.=26.242172, Alt.=168.216919m. Speed=27.396000m/h.</desc>
<speed>7.610000</speed>
</trkpt>
<trkpt lat="55.734791" lon="26.242033">
<ele>167.619263</ele>
<time>2010-07-17T10:43:27Z</time>
<desc>lat.=55.734791, lon.=26.242033, Alt.=167.619263m. Speed=27.684000m/h.</desc>
<speed>7.690000</speed>
</trkpt>
<trkpt lat="55.734730" lon="26.241901">
<ele>166.896606</ele>
<time>2010-07-17T10:43:28Z</time>
<desc>lat.=55.734730, lon.=26.241901, Alt.=166.896606m. Speed=28.007999m/h.</desc>
<speed>7.780000</speed>
</trkpt>
<trkpt lat="55.734684" lon="26.241802">
<ele>166.048950</ele>
<time>2010-07-17T10:43:29Z</time>
<desc>lat.=55.734684, lon.=26.241802, Alt.=166.048950m. Speed=23.292000m/h.</desc>
<speed>6.470000</speed>
</trkpt>
<trkpt lat="55.734642" lon="26.241713">
<ele>164.502075</ele>
<time>2010-07-17T10:43:30Z</time>
<desc>lat.=55.734642, lon.=26.241713, Alt.=164.502075m. Speed=19.764000m/h.</desc>
<speed>5.490000</speed>
</trkpt>
<trkpt lat="55.734604" lon="26.241617">
<ele>163.873169</ele>
<time>2010-07-17T10:43:31Z</time>
<desc>lat.=55.734604, lon.=26.241617, Alt.=163.873169m. Speed=19.872000m/h.</desc>
<speed>5.520000</speed>
</trkpt>
<trkpt lat="55.734573" lon="26.241549">
<ele>163.076294</ele>
<time>2010-07-17T10:43:32Z</time>
<desc>lat.=55.734573, lon.=26.241549, Alt.=163.076294m. Speed=18.431999m/h.</desc>
<speed>5.120000</speed>
</trkpt>
<trkpt lat="55.734543" lon="26.241489">
<ele>162.705200</ele>
<time>2010-07-17T10:43:33Z</time>
<desc>lat.=55.734543, lon.=26.241489, Alt.=162.705200m. Speed=14.220000m/h.</desc>
<speed>3.950000</speed>
</trkpt>
<trkpt lat="55.734512" lon="26.241449">
<ele>162.486450</ele>
<time>2010-07-17T10:43:34Z</time>
<desc>lat.=55.734512, lon.=26.241449, Alt.=162.486450m. Speed=13.356000m/h.</desc>
<speed>3.710000</speed>
</trkpt>
<trkpt lat="55.734486" lon="26.241419">
<ele>162.185669</ele>
<time>2010-07-17T10:43:35Z</time>
<desc>lat.=55.734486, lon.=26.241419, Alt.=162.185669m. Speed=9.288000m/h.</desc>
<speed>2.580000</speed>
</trkpt>
<trkpt lat="55.734463" lon="26.241392">
<ele>161.689575</ele>
<time>2010-07-17T10:43:36Z</time>
<desc>lat.=55.734463, lon.=26.241392, Alt.=161.689575m. Speed=9.108000m/h.</desc>
<speed>2.530000</speed>
</trkpt>
<trkpt lat="55.734444" lon="26.241373">
<ele>160.732544</ele>
<time>2010-07-17T10:43:37Z</time>
<desc>lat.=55.734444, lon.=26.241373, Alt.=160.732544m. Speed=8.604000m/h.</desc>
<speed>2.390000</speed>
</trkpt>
<trkpt lat="55.734402" lon="26.241354">
<ele>158.209106</ele>
<time>2010-07-17T10:43:38Z</time>
<desc>lat.=55.734402, lon.=26.241354, Alt.=158.209106m. Speed=6.588000m/h.</desc>
<speed>1.830000</speed>
</trkpt>
<trkpt lat="55.734375" lon="26.241333">
<ele>157.267700</ele>
<time>2010-07-17T10:43:39Z</time>
<desc>lat.=55.734375, lon.=26.241333, Alt.=157.267700m. Speed=5.904000m/h.</desc>
<speed>1.640000</speed>
</trkpt>
<trkpt lat="55.734360" lon="26.241323">
<ele>154.685669</ele>
<time>2010-07-17T10:43:40Z</time>
<desc>lat.=55.734360, lon.=26.241323, Alt.=154.685669m. Speed=3.996000m/h.</desc>
<speed>1.110000</speed>
</trkpt>
<trkpt lat="55.734364" lon="26.241318">
<ele>153.709106</ele>
<time>2010-07-17T10:43:41Z</time>
<desc>lat.=55.734364, lon.=26.241318, Alt.=153.709106m. Speed=1.332000m/h.</desc>
<speed>0.370000</speed>
</trkpt>
<trkpt lat="55.734360" lon="26.241316">
<ele>153.318481</ele>
<time>2010-07-17T10:43:42Z</time>
<desc>lat.=55.734360, lon.=26.241316, Alt.=153.318481m. Speed=1.008000m/h.</desc>
<speed>0.280000</speed>
</trkpt>
<trkpt lat="55.734364" lon="26.241320">
<ele>153.451294</ele>
<time>2010-07-17T10:43:43Z</time>
<desc>lat.=55.734364, lon.=26.241320, Alt.=153.451294m. Speed=0.144000m/h.</desc>
<speed>0.040000</speed>
</trkpt>
<trkpt lat="55.734360" lon="26.241322">
<ele>152.916138</ele>
<time>2010-07-17T10:43:44Z</time>
<desc>lat.=55.734360, lon.=26.241322, Alt.=152.916138m. Speed=0.108000m/h.</desc>
<speed>0.030000</speed>
</trkpt>
<trkpt lat="55.734360" lon="26.241322">
<ele>152.880981</ele>
<time>2010-07-17T10:43:45Z</time>
<desc>lat.=55.734360, lon.=26.241322, Alt.=152.880981m. Speed=0.072000m/h.</desc>
<speed>0.020000</speed>
</trkpt>
<trkpt lat="55.734360" lon="26.241322">
<ele>152.841919</ele>
<time>2010-07-17T10:43:46Z</time>
<desc>lat.=55.734360, lon.=26.241322, Alt.=152.841919m. Speed=0.036000m/h.</desc>
<speed>0.010000</speed>
</trkpt>
<trkpt lat="55.734360" lon="26.241322">
<ele>152.810669</ele>
<time>2010-07-17T10:43:47Z</time>
<desc>lat.=55.734360, lon.=26.241322, Alt.=152.810669m. Speed=0.072000m/h.</desc>
<speed>0.020000</speed>
</trkpt>
<trkpt lat="55.734360" lon="26.241322">
<ele>152.771606</ele>
<time>2010-07-17T10:43:48Z</time>
<desc>lat.=55.734360, lon.=26.241322, Alt.=152.771606m. Speed=0.144000m/h.</desc>
<speed>0.040000</speed>
</trkpt>
<trkpt lat="55.734360" lon="26.241323">
<ele>152.748169</ele>
<time>2010-07-17T10:43:49Z</time>
<desc>lat.=55.734360, lon.=26.241323, Alt.=152.748169m. Speed=0.216000m/h.</desc>
<speed>0.060000</speed>
</trkpt>
<trkpt lat="55.734360" lon="26.241323">
<ele>152.732544</ele>
<time>2010-07-17T10:43:50Z</time>
<desc>lat.=55.734360, lon.=26.241323, Alt.=152.732544m. Speed=0.216000m/h.</desc>
<speed>0.060000</speed>
</trkpt>
<trkpt lat="55.734360" lon="26.241325">
<ele>152.720825</ele>
<time>2010-07-17T10:43:51Z</time>
<desc>lat.=55.734360, lon.=26.241325, Alt.=152.720825m. Speed=0.252000m/h.</desc>
<speed>0.070000</speed>
</trkpt>
<trkpt lat="55.734360" lon="26.241325">
<ele>152.701294</ele>
<time>2010-07-17T10:43:52Z</time>
<desc>lat.=55.734360, lon.=26.241325, Alt.=152.701294m. Speed=0.360000m/h.</desc>
<speed>0.100000</speed>
</trkpt>
<trkpt lat="55.734356" lon="26.241327">
<ele>152.681763</ele>
<time>2010-07-17T10:43:53Z</time>
<desc>lat.=55.734356, lon.=26.241327, Alt.=152.681763m. Speed=0.216000m/h.</desc>
<speed>0.060000</speed>
</trkpt>
<trkpt lat="55.734356" lon="26.241329">
<ele>152.650513</ele>
<time>2010-07-17T10:43:54Z</time>
<desc>lat.=55.734356, lon.=26.241329, Alt.=152.650513m. Speed=0.216000m/h.</desc>
<speed>0.060000</speed>
</trkpt>
<trkpt lat="55.734356" lon="26.241329">
<ele>152.623169</ele>
<time>2010-07-17T10:43:55Z</time>
<desc>lat.=55.734356, lon.=26.241329, Alt.=152.623169m. Speed=0.252000m/h.</desc>
<speed>0.070000</speed>
</trkpt>
<trkpt lat="55.734356" lon="26.241329">
<ele>152.595825</ele>
<time>2010-07-17T10:43:56Z</time>
<desc>lat.=55.734356, lon.=26.241329, Alt.=152.595825m. Speed=0.180000m/h.</desc>
<speed>0.050000</speed>
</trkpt>
<trkpt lat="55.734356" lon="26.241331">
<ele>152.568481</ele>
<time>2010-07-17T10:43:57Z</time>
<desc>lat.=55.734356, lon.=26.241331, Alt.=152.568481m. Speed=0.468000m/h.</desc>
<speed>0.130000</speed>
</trkpt>
<trkpt lat="55.734356" lon="26.241331">
<ele>152.533325</ele>
<time>2010-07-17T10:43:58Z</time>
<desc>lat.=55.734356, lon.=26.241331, Alt.=152.533325m. Speed=0.072000m/h.</desc>
<speed>0.020000</speed>
</trkpt>
<trkpt lat="55.734356" lon="26.241331">
<ele>152.490356</ele>
<time>2010-07-17T10:43:59Z</time>
<desc>lat.=55.734356, lon.=26.241331, Alt.=152.490356m. Speed=0.360000m/h.</desc>
<speed>0.100000</speed>
</trkpt>
<trkpt lat="55.734352" lon="26.241329">
<ele>152.470825</ele>
<time>2010-07-17T10:44:00Z</time>
<desc>lat.=55.734352, lon.=26.241329, Alt.=152.470825m. Speed=0.396000m/h.</desc>
<speed>0.110000</speed>
</trkpt>
<trkpt lat="55.734352" lon="26.241329">
<ele>152.451294</ele>
<time>2010-07-17T10:44:01Z</time>
<desc>lat.=55.734352, lon.=26.241329, Alt.=152.451294m. Speed=0.396000m/h.</desc>
<speed>0.110000</speed>
</trkpt>
<trkpt lat="55.734352" lon="26.241329">
<ele>152.435669</ele>
<time>2010-07-17T10:44:02Z</time>
<desc>lat.=55.734352, lon.=26.241329, Alt.=152.435669m. Speed=0.468000m/h.</desc>
<speed>0.130000</speed>
</trkpt>
<trkpt lat="55.734352" lon="26.241327">
<ele>152.427856</ele>
<time>2010-07-17T10:44:03Z</time>
<desc>lat.=55.734352, lon.=26.241327, Alt.=152.427856m. Speed=0.324000m/h.</desc>
<speed>0.090000</speed>
</trkpt>
<trkpt lat="55.734352" lon="26.241325">
<ele>152.423950</ele>
<time>2010-07-17T10:44:04Z</time>
<desc>lat.=55.734352, lon.=26.241325, Alt.=152.423950m. Speed=2.448000m/h.</desc>
<speed>0.680000</speed>
</trkpt>
<trkpt lat="55.734352" lon="26.241314">
<ele>152.423950</ele>
<time>2010-07-17T10:44:05Z</time>
<desc>lat.=55.734352, lon.=26.241314, Alt.=152.423950m. Speed=4.068000m/h.</desc>
<speed>1.130000</speed>
</trkpt>
<trkpt lat="55.734356" lon="26.241287">
<ele>152.408325</ele>
<time>2010-07-17T10:44:06Z</time>
<desc>lat.=55.734356, lon.=26.241287, Alt.=152.408325m. Speed=3.276000m/h.</desc>
<speed>0.910000</speed>
</trkpt>
<trkpt lat="55.734356" lon="26.241222">
<ele>153.373169</ele>
<time>2010-07-17T10:44:07Z</time>
<desc>lat.=55.734356, lon.=26.241222, Alt.=153.373169m. Speed=4.356000m/h.</desc>
<speed>1.210000</speed>
</trkpt>
<trkpt lat="55.734356" lon="26.241232">
<ele>152.912231</ele>
<time>2010-07-17T10:44:08Z</time>
<desc>lat.=55.734356, lon.=26.241232, Alt.=152.912231m. Speed=5.220000m/h.</desc>
<speed>1.450000</speed>
</trkpt>
<trkpt lat="55.734367" lon="26.241247">
<ele>152.595825</ele>
<time>2010-07-17T10:44:09Z</time>
<desc>lat.=55.734367, lon.=26.241247, Alt.=152.595825m. Speed=5.976000m/h.</desc>
<speed>1.660000</speed>
</trkpt>
<trkpt lat="55.734375" lon="26.241243">
<ele>152.396606</ele>
<time>2010-07-17T10:44:10Z</time>
<desc>lat.=55.734375, lon.=26.241243, Alt.=152.396606m. Speed=4.176000m/h.</desc>
<speed>1.160000</speed>
</trkpt>
<trkpt lat="55.734379" lon="26.241222">
<ele>152.248169</ele>
<time>2010-07-17T10:44:11Z</time>
<desc>lat.=55.734379, lon.=26.241222, Alt.=152.248169m. Speed=3.708000m/h.</desc>
<speed>1.030000</speed>
</trkpt>
<trkpt lat="55.734375" lon="26.241199">
<ele>151.896606</ele>
<time>2010-07-17T10:44:12Z</time>
<desc>lat.=55.734375, lon.=26.241199, Alt.=151.896606m. Speed=3.996000m/h.</desc>
<speed>1.110000</speed>
</trkpt>
<trkpt lat="55.734383" lon="26.241169">
<ele>151.763794</ele>
<time>2010-07-17T10:44:13Z</time>
<desc>lat.=55.734383, lon.=26.241169, Alt.=151.763794m. Speed=9.288000m/h.</desc>
<speed>2.580000</speed>
</trkpt>
<trkpt lat="55.734406" lon="26.241137">
<ele>151.377075</ele>
<time>2010-07-17T10:44:14Z</time>
<desc>lat.=55.734406, lon.=26.241137, Alt.=151.377075m. Speed=11.628000m/h.</desc>
<speed>3.230000</speed>
</trkpt>
<trkpt lat="55.734428" lon="26.241098">
<ele>150.857544</ele>
<time>2010-07-17T10:44:15Z</time>
<desc>lat.=55.734428, lon.=26.241098, Alt.=150.857544m. Speed=12.924000m/h.</desc>
<speed>3.590000</speed>
</trkpt>
<trkpt lat="55.734451" lon="26.241056">
<ele>150.521606</ele>
<time>2010-07-17T10:44:16Z</time>
<desc>lat.=55.734451, lon.=26.241056, Alt.=150.521606m. Speed=13.716000m/h.</desc>
<speed>3.810000</speed>
</trkpt>
<trkpt lat="55.734478" lon="26.241007">
<ele>150.408325</ele>
<time>2010-07-17T10:44:17Z</time>
<desc>lat.=55.734478, lon.=26.241007, Alt.=150.408325m. Speed=14.472000m/h.</desc>
<speed>4.020000</speed>
</trkpt>
<trkpt lat="55.734505" lon="26.240953">
<ele>150.142700</ele>
<time>2010-07-17T10:44:18Z</time>
<desc>lat.=55.734505, lon.=26.240953, Alt.=150.142700m. Speed=13.644000m/h.</desc>
<speed>3.790000</speed>
</trkpt>
<trkpt lat="55.734535" lon="26.240904">
<ele>149.806763</ele>
<time>2010-07-17T10:44:19Z</time>
<desc>lat.=55.734535, lon.=26.240904, Alt.=149.806763m. Speed=13.248000m/h.</desc>
<speed>3.680000</speed>
</trkpt>
<trkpt lat="55.734558" lon="26.240845">
<ele>148.209106</ele>
<time>2010-07-17T10:44:20Z</time>
<desc>lat.=55.734558, lon.=26.240845, Alt.=148.209106m. Speed=14.112000m/h.</desc>
<speed>3.920000</speed>
</trkpt>
<trkpt lat="55.734600" lon="26.240805">
<ele>147.830200</ele>
<time>2010-07-17T10:44:21Z</time>
<desc>lat.=55.734600, lon.=26.240805, Alt.=147.830200m. Speed=15.084000m/h.</desc>
<speed>4.190000</speed>
</trkpt>
<trkpt lat="55.734631" lon="26.240768">
<ele>147.759888</ele>
<time>2010-07-17T10:44:22Z</time>
<desc>lat.=55.734631, lon.=26.240768, Alt.=147.759888m. Speed=12.492000m/h.</desc>
<speed>3.470000</speed>
</trkpt>
<trkpt lat="55.734661" lon="26.240742">
<ele>147.830200</ele>
<time>2010-07-17T10:44:23Z</time>
<desc>lat.=55.734661, lon.=26.240742, Alt.=147.830200m. Speed=12.204000m/h.</desc>
<speed>3.390000</speed>
</trkpt>
<trkpt lat="55.734676" lon="26.240700">
<ele>147.310669</ele>
<time>2010-07-17T10:44:24Z</time>
<desc>lat.=55.734676, lon.=26.240700, Alt.=147.310669m. Speed=10.296000m/h.</desc>
<speed>2.860000</speed>
</trkpt>
<trkpt lat="55.734692" lon="26.240667">
<ele>147.041138</ele>
<time>2010-07-17T10:44:25Z</time>
<desc>lat.=55.734692, lon.=26.240667, Alt.=147.041138m. Speed=10.296000m/h.</desc>
<speed>2.860000</speed>
</trkpt>
<trkpt lat="55.734707" lon="26.240637">
<ele>146.779419</ele>
<time>2010-07-17T10:44:26Z</time>
<desc>lat.=55.734707, lon.=26.240637, Alt.=146.779419m. Speed=9.540000m/h.</desc>
<speed>2.650000</speed>
</trkpt>
<trkpt lat="55.734722" lon="26.240606">
<ele>146.814575</ele>
<time>2010-07-17T10:44:27Z</time>
<desc>lat.=55.734722, lon.=26.240606, Alt.=146.814575m. Speed=8.460000m/h.</desc>
<speed>2.350000</speed>
</trkpt>
<trkpt lat="55.734749" lon="26.240566">
<ele>146.298950</ele>
<time>2010-07-17T10:44:28Z</time>
<desc>lat.=55.734749, lon.=26.240566, Alt.=146.298950m. Speed=11.016000m/h.</desc>
<speed>3.060000</speed>
</trkpt>
<trkpt lat="55.734768" lon="26.240528">
<ele>145.880981</ele>
<time>2010-07-17T10:44:29Z</time>
<desc>lat.=55.734768, lon.=26.240528, Alt.=145.880981m. Speed=11.520000m/h.</desc>
<speed>3.200000</speed>
</trkpt>
<trkpt lat="55.734795" lon="26.240488">
<ele>145.650513</ele>
<time>2010-07-17T10:44:30Z</time>
<desc>lat.=55.734795, lon.=26.240488, Alt.=145.650513m. Speed=12.744000m/h.</desc>
<speed>3.540000</speed>
</trkpt>
<trkpt lat="55.734814" lon="26.240442">
<ele>145.607544</ele>
<time>2010-07-17T10:44:31Z</time>
<desc>lat.=55.734814, lon.=26.240442, Alt.=145.607544m. Speed=13.032000m/h.</desc>
<speed>3.620000</speed>
</trkpt>
<trkpt lat="55.734837" lon="26.240387">
<ele>145.279419</ele>
<time>2010-07-17T10:44:32Z</time>
<desc>lat.=55.734837, lon.=26.240387, Alt.=145.279419m. Speed=14.724000m/h.</desc>
<speed>4.090000</speed>
</trkpt>
<trkpt lat="55.734863" lon="26.240332">
<ele>144.900513</ele>
<time>2010-07-17T10:44:33Z</time>
<desc>lat.=55.734863, lon.=26.240332, Alt.=144.900513m. Speed=15.336000m/h.</desc>
<speed>4.260000</speed>
</trkpt>
<trkpt lat="55.734894" lon="26.240267">
<ele>144.908325</ele>
<time>2010-07-17T10:44:34Z</time>
<desc>lat.=55.734894, lon.=26.240267, Alt.=144.908325m. Speed=15.048000m/h.</desc>
<speed>4.180000</speed>
</trkpt>
<trkpt lat="55.734924" lon="26.240210">
<ele>145.060669</ele>
<time>2010-07-17T10:44:35Z</time>
<desc>lat.=55.734924, lon.=26.240210, Alt.=145.060669m. Speed=13.968000m/h.</desc>
<speed>3.880000</speed>
</trkpt>
<trkpt lat="55.734955" lon="26.240160">
<ele>145.244263</ele>
<time>2010-07-17T10:44:36Z</time>
<desc>lat.=55.734955, lon.=26.240160, Alt.=145.244263m. Speed=14.148000m/h.</desc>
<speed>3.930000</speed>
</trkpt>
<trkpt lat="55.734974" lon="26.240110">
<ele>145.170044</ele>
<time>2010-07-17T10:44:37Z</time>
<desc>lat.=55.734974, lon.=26.240110, Alt.=145.170044m. Speed=12.924000m/h.</desc>
<speed>3.590000</speed>
</trkpt>
<trkpt lat="55.734993" lon="26.240068">
<ele>144.970825</ele>
<time>2010-07-17T10:44:38Z</time>
<desc>lat.=55.734993, lon.=26.240068, Alt.=144.970825m. Speed=11.340000m/h.</desc>
<speed>3.150000</speed>
</trkpt>
<trkpt lat="55.735016" lon="26.240032">
<ele>144.818481</ele>
<time>2010-07-17T10:44:39Z</time>
<desc>lat.=55.735016, lon.=26.240032, Alt.=144.818481m. Speed=11.592000m/h.</desc>
<speed>3.220000</speed>
</trkpt>
<trkpt lat="55.735035" lon="26.239988">
<ele>145.009888</ele>
<time>2010-07-17T10:44:40Z</time>
<desc>lat.=55.735035, lon.=26.239988, Alt.=145.009888m. Speed=11.268000m/h.</desc>
<speed>3.130000</speed>
</trkpt>
<trkpt lat="55.735054" lon="26.239950">
<ele>145.127075</ele>
<time>2010-07-17T10:44:41Z</time>
<desc>lat.=55.735054, lon.=26.239950, Alt.=145.127075m. Speed=8.784000m/h.</desc>
<speed>2.440000</speed>
</trkpt>
<trkpt lat="55.735073" lon="26.239918">
<ele>145.459106</ele>
<time>2010-07-17T10:44:42Z</time>
<desc>lat.=55.735073, lon.=26.239918, Alt.=145.459106m. Speed=9.720000m/h.</desc>
<speed>2.700000</speed>
</trkpt>
<trkpt lat="55.735100" lon="26.239887">
<ele>145.474731</ele>
<time>2010-07-17T10:44:43Z</time>
<desc>lat.=55.735100, lon.=26.239887, Alt.=145.474731m. Speed=11.628000m/h.</desc>
<speed>3.230000</speed>
</trkpt>
<trkpt lat="55.735123" lon="26.239855">
<ele>144.213013</ele>
<time>2010-07-17T10:44:44Z</time>
<desc>lat.=55.735123, lon.=26.239855, Alt.=144.213013m. Speed=12.924000m/h.</desc>
<speed>3.590000</speed>
</trkpt>
<trkpt lat="55.735157" lon="26.239828">
<ele>143.951294</ele>
<time>2010-07-17T10:44:45Z</time>
<desc>lat.=55.735157, lon.=26.239828, Alt.=143.951294m. Speed=11.880000m/h.</desc>
<speed>3.300000</speed>
</trkpt>
<trkpt lat="55.735184" lon="26.239794">
<ele>143.920044</ele>
<time>2010-07-17T10:44:46Z</time>
<desc>lat.=55.735184, lon.=26.239794, Alt.=143.920044m. Speed=11.592000m/h.</desc>
<speed>3.220000</speed>
</trkpt>
<trkpt lat="55.735207" lon="26.239765">
<ele>143.861450</ele>
<time>2010-07-17T10:44:47Z</time>
<desc>lat.=55.735207, lon.=26.239765, Alt.=143.861450m. Speed=13.032000m/h.</desc>
<speed>3.620000</speed>
</trkpt>
<trkpt lat="55.735260" lon="26.239731">
<ele>142.345825</ele>
<time>2010-07-17T10:44:48Z</time>
<desc>lat.=55.735260, lon.=26.239731, Alt.=142.345825m. Speed=11.592000m/h.</desc>
<speed>3.220000</speed>
</trkpt>
<trkpt lat="55.735291" lon="26.239702">
<ele>141.013794</ele>
<time>2010-07-17T10:44:49Z</time>
<desc>lat.=55.735291, lon.=26.239702, Alt.=141.013794m. Speed=9.756000m/h.</desc>
<speed>2.710000</speed>
</trkpt>
<trkpt lat="55.735329" lon="26.239655">
<ele>139.701294</ele>
<time>2010-07-17T10:44:50Z</time>
<desc>lat.=55.735329, lon.=26.239655, Alt.=139.701294m. Speed=11.556000m/h.</desc>
<speed>3.210000</speed>
</trkpt>
<trkpt lat="55.735355" lon="26.239607">
<ele>138.853638</ele>
<time>2010-07-17T10:44:51Z</time>
<desc>lat.=55.735355, lon.=26.239607, Alt.=138.853638m. Speed=10.296000m/h.</desc>
<speed>2.860000</speed>
</trkpt>
<trkpt lat="55.735371" lon="26.239565">
<ele>138.123169</ele>
<time>2010-07-17T10:44:52Z</time>
<desc>lat.=55.735371, lon.=26.239565, Alt.=138.123169m. Speed=8.964000m/h.</desc>
<speed>2.490000</speed>
</trkpt>
<trkpt lat="55.735390" lon="26.239527">
<ele>137.338013</ele>
<time>2010-07-17T10:44:53Z</time>
<desc>lat.=55.735390, lon.=26.239527, Alt.=137.338013m. Speed=8.568000m/h.</desc>
<speed>2.380000</speed>
</trkpt>
<trkpt lat="55.735397" lon="26.239489">
<ele>137.056763</ele>
<time>2010-07-17T10:44:54Z</time>
<desc>lat.=55.735397, lon.=26.239489, Alt.=137.056763m. Speed=7.560000m/h.</desc>
<speed>2.100000</speed>
</trkpt>
<trkpt lat="55.735420" lon="26.239460">
<ele>136.869263</ele>
<time>2010-07-17T10:44:55Z</time>
<desc>lat.=55.735420, lon.=26.239460, Alt.=136.869263m. Speed=7.524000m/h.</desc>
<speed>2.090000</speed>
</trkpt>
<trkpt lat="55.735435" lon="26.239429">
<ele>135.209106</ele>
<time>2010-07-17T10:44:56Z</time>
<desc>lat.=55.735435, lon.=26.239429, Alt.=135.209106m. Speed=6.372000m/h.</desc>
<speed>1.770000</speed>
</trkpt>
<trkpt lat="55.735451" lon="26.239403">
<ele>135.127075</ele>
<time>2010-07-17T10:44:57Z</time>
<desc>lat.=55.735451, lon.=26.239403, Alt.=135.127075m. Speed=6.444000m/h.</desc>
<speed>1.790000</speed>
</trkpt>
<trkpt lat="55.735474" lon="26.239376">
<ele>134.763794</ele>
<time>2010-07-17T10:44:58Z</time>
<desc>lat.=55.735474, lon.=26.239376, Alt.=134.763794m. Speed=7.452000m/h.</desc>
<speed>2.070000</speed>
</trkpt>
<trkpt lat="55.735489" lon="26.239351">
<ele>134.380981</ele>
<time>2010-07-17T10:44:59Z</time>
<desc>lat.=55.735489, lon.=26.239351, Alt.=134.380981m. Speed=7.056000m/h.</desc>
<speed>1.960000</speed>
</trkpt>
<trkpt lat="55.735508" lon="26.239332">
<ele>134.318481</ele>
<time>2010-07-17T10:45:00Z</time>
<desc>lat.=55.735508, lon.=26.239332, Alt.=134.318481m. Speed=6.660000m/h.</desc>
<speed>1.850000</speed>
</trkpt>
<trkpt lat="55.735523" lon="26.239313">
<ele>133.861450</ele>
<time>2010-07-17T10:45:01Z</time>
<desc>lat.=55.735523, lon.=26.239313, Alt.=133.861450m. Speed=8.064000m/h.</desc>
<speed>2.240000</speed>
</trkpt>
<trkpt lat="55.735550" lon="26.239275">
<ele>133.427856</ele>
<time>2010-07-17T10:45:02Z</time>
<desc>lat.=55.735550, lon.=26.239275, Alt.=133.427856m. Speed=9.828000m/h.</desc>
<speed>2.730000</speed>
</trkpt>
<trkpt lat="55.735561" lon="26.239237">
<ele>133.185669</ele>
<time>2010-07-17T10:45:03Z</time>
<desc>lat.=55.735561, lon.=26.239237, Alt.=133.185669m. Speed=8.208000m/h.</desc>
<speed>2.280000</speed>
</trkpt>
<trkpt lat="55.735550" lon="26.239176">
<ele>134.142700</ele>
<time>2010-07-17T10:45:04Z</time>
<desc>lat.=55.735550, lon.=26.239176, Alt.=134.142700m. Speed=9.036000m/h.</desc>
<speed>2.510000</speed>
</trkpt>
<trkpt lat="55.735584" lon="26.239105">
<ele>133.431763</ele>
<time>2010-07-17T10:45:05Z</time>
<desc>lat.=55.735584, lon.=26.239105, Alt.=133.431763m. Speed=9.396000m/h.</desc>
<speed>2.610000</speed>
</trkpt>
<trkpt lat="55.735603" lon="26.239048">
<ele>133.525513</ele>
<time>2010-07-17T10:45:06Z</time>
<desc>lat.=55.735603, lon.=26.239048, Alt.=133.525513m. Speed=9.792000m/h.</desc>
<speed>2.720000</speed>
</trkpt>
<trkpt lat="55.735622" lon="26.239000">
<ele>133.920044</ele>
<time>2010-07-17T10:45:07Z</time>
<desc>lat.=55.735622, lon.=26.239000, Alt.=133.920044m. Speed=9.108000m/h.</desc>
<speed>2.530000</speed>
</trkpt>
<trkpt lat="55.735641" lon="26.238947">
<ele>134.709106</ele>
<time>2010-07-17T10:45:08Z</time>
<desc>lat.=55.735641, lon.=26.238947, Alt.=134.709106m. Speed=9.468000m/h.</desc>
<speed>2.630000</speed>
</trkpt>
<trkpt lat="55.735664" lon="26.238905">
<ele>135.318481</ele>
<time>2010-07-17T10:45:09Z</time>
<desc>lat.=55.735664, lon.=26.238905, Alt.=135.318481m. Speed=9.468000m/h.</desc>
<speed>2.630000</speed>
</trkpt>
<trkpt lat="55.735687" lon="26.238867">
<ele>135.271606</ele>
<time>2010-07-17T10:45:10Z</time>
<desc>lat.=55.735687, lon.=26.238867, Alt.=135.271606m. Speed=7.920000m/h.</desc>
<speed>2.200000</speed>
</trkpt>
<trkpt lat="55.735710" lon="26.238832">
<ele>136.146606</ele>
<time>2010-07-17T10:45:11Z</time>
<desc>lat.=55.735710, lon.=26.238832, Alt.=136.146606m. Speed=6.192000m/h.</desc>
<speed>1.720000</speed>
</trkpt>
<trkpt lat="55.735718" lon="26.238804">
<ele>136.056763</ele>
<time>2010-07-17T10:45:12Z</time>
<desc>lat.=55.735718, lon.=26.238804, Alt.=136.056763m. Speed=6.624000m/h.</desc>
<speed>1.840000</speed>
</trkpt>
<trkpt lat="55.735725" lon="26.238768">
<ele>136.232544</ele>
<time>2010-07-17T10:45:13Z</time>
<desc>lat.=55.735725, lon.=26.238768, Alt.=136.232544m. Speed=9.576000m/h.</desc>
<speed>2.660000</speed>
</trkpt>
<trkpt lat="55.735737" lon="26.238729">
<ele>136.236450</ele>
<time>2010-07-17T10:45:14Z</time>
<desc>lat.=55.735737, lon.=26.238729, Alt.=136.236450m. Speed=8.100000m/h.</desc>
<speed>2.250000</speed>
</trkpt>
<trkpt lat="55.735748" lon="26.238686">
<ele>136.330200</ele>
<time>2010-07-17T10:45:15Z</time>
<desc>lat.=55.735748, lon.=26.238686, Alt.=136.330200m. Speed=8.712000m/h.</desc>
<speed>2.420000</speed>
</trkpt>
<trkpt lat="55.735760" lon="26.238644">
<ele>136.353638</ele>
<time>2010-07-17T10:45:16Z</time>
<desc>lat.=55.735760, lon.=26.238644, Alt.=136.353638m. Speed=9.324000m/h.</desc>
<speed>2.590000</speed>
</trkpt>
<trkpt lat="55.735771" lon="26.238598">
<ele>136.736450</ele>
<time>2010-07-17T10:45:17Z</time>
<desc>lat.=55.735771, lon.=26.238598, Alt.=136.736450m. Speed=8.424000m/h.</desc>
<speed>2.340000</speed>
</trkpt>
<trkpt lat="55.735813" lon="26.238548">
<ele>137.099731</ele>
<time>2010-07-17T10:45:18Z</time>
<desc>lat.=55.735813, lon.=26.238548, Alt.=137.099731m. Speed=8.532000m/h.</desc>
<speed>2.370000</speed>
</trkpt>
<trkpt lat="55.735828" lon="26.238482">
<ele>136.240356</ele>
<time>2010-07-17T10:45:19Z</time>
<desc>lat.=55.735828, lon.=26.238482, Alt.=136.240356m. Speed=11.052000m/h.</desc>
<speed>3.070000</speed>
</trkpt>
<trkpt lat="55.735832" lon="26.238438">
<ele>136.146606</ele>
<time>2010-07-17T10:45:20Z</time>
<desc>lat.=55.735832, lon.=26.238438, Alt.=136.146606m. Speed=9.432000m/h.</desc>
<speed>2.620000</speed>
</trkpt>
<trkpt lat="55.735836" lon="26.238394">
<ele>136.127075</ele>
<time>2010-07-17T10:45:21Z</time>
<desc>lat.=55.735836, lon.=26.238394, Alt.=136.127075m. Speed=9.324000m/h.</desc>
<speed>2.590000</speed>
</trkpt>
<trkpt lat="55.735855" lon="26.238327">
<ele>135.779419</ele>
<time>2010-07-17T10:45:22Z</time>
<desc>lat.=55.735855, lon.=26.238327, Alt.=135.779419m. Speed=10.692000m/h.</desc>
<speed>2.970000</speed>
</trkpt>
<trkpt lat="55.735855" lon="26.238255">
<ele>135.838013</ele>
<time>2010-07-17T10:45:23Z</time>
<desc>lat.=55.735855, lon.=26.238255, Alt.=135.838013m. Speed=8.820000m/h.</desc>
<speed>2.450000</speed>
</trkpt>
<trkpt lat="55.735855" lon="26.238195">
<ele>135.517700</ele>
<time>2010-07-17T10:45:24Z</time>
<desc>lat.=55.735855, lon.=26.238195, Alt.=135.517700m. Speed=10.656000m/h.</desc>
<speed>2.960000</speed>
</trkpt>
<trkpt lat="55.735840" lon="26.238102">
<ele>135.533325</ele>
<time>2010-07-17T10:45:25Z</time>
<desc>lat.=55.735840, lon.=26.238102, Alt.=135.533325m. Speed=11.772000m/h.</desc>
<speed>3.270000</speed>
</trkpt>
<trkpt lat="55.735825" lon="26.238029">
<ele>134.427856</ele>
<time>2010-07-17T10:45:26Z</time>
<desc>lat.=55.735825, lon.=26.238029, Alt.=134.427856m. Speed=11.916000m/h.</desc>
<speed>3.310000</speed>
</trkpt>
<trkpt lat="55.735809" lon="26.237944">
<ele>133.416138</ele>
<time>2010-07-17T10:45:27Z</time>
<desc>lat.=55.735809, lon.=26.237944, Alt.=133.416138m. Speed=12.204000m/h.</desc>
<speed>3.390000</speed>
</trkpt>
<trkpt lat="55.735790" lon="26.237860">
<ele>132.298950</ele>
<time>2010-07-17T10:45:28Z</time>
<desc>lat.=55.735790, lon.=26.237860, Alt.=132.298950m. Speed=11.376000m/h.</desc>
<speed>3.160000</speed>
</trkpt>
<trkpt lat="55.735783" lon="26.237801">
<ele>131.033325</ele>
<time>2010-07-17T10:45:29Z</time>
<desc>lat.=55.735783, lon.=26.237801, Alt.=131.033325m. Speed=9.756000m/h.</desc>
<speed>2.710000</speed>
</trkpt>
<trkpt lat="55.735775" lon="26.237743">
<ele>130.615356</ele>
<time>2010-07-17T10:45:30Z</time>
<desc>lat.=55.735775, lon.=26.237743, Alt.=130.615356m. Speed=9.504000m/h.</desc>
<speed>2.640000</speed>
</trkpt>
<trkpt lat="55.735783" lon="26.237696">
<ele>129.517700</ele>
<time>2010-07-17T10:45:31Z</time>
<desc>lat.=55.735783, lon.=26.237696, Alt.=129.517700m. Speed=8.100000m/h.</desc>
<speed>2.250000</speed>
</trkpt>
<trkpt lat="55.735775" lon="26.237640">
<ele>129.177856</ele>
<time>2010-07-17T10:45:32Z</time>
<desc>lat.=55.735775, lon.=26.237640, Alt.=129.177856m. Speed=8.424000m/h.</desc>
<speed>2.340000</speed>
</trkpt>
<trkpt lat="55.735771" lon="26.237602">
<ele>128.720825</ele>
<time>2010-07-17T10:45:33Z</time>
<desc>lat.=55.735771, lon.=26.237602, Alt.=128.720825m. Speed=7.848000m/h.</desc>
<speed>2.180000</speed>
</trkpt>
<trkpt lat="55.735764" lon="26.237555">
<ele>128.283325</ele>
<time>2010-07-17T10:45:34Z</time>
<desc>lat.=55.735764, lon.=26.237555, Alt.=128.283325m. Speed=8.748000m/h.</desc>
<speed>2.430000</speed>
</trkpt>
<trkpt lat="55.735764" lon="26.237514">
<ele>128.384888</ele>
<time>2010-07-17T10:45:35Z</time>
<desc>lat.=55.735764, lon.=26.237514, Alt.=128.384888m. Speed=7.164000m/h.</desc>
<speed>1.990000</speed>
</trkpt>
<trkpt lat="55.735775" lon="26.237476">
<ele>129.189575</ele>
<time>2010-07-17T10:45:36Z</time>
<desc>lat.=55.735775, lon.=26.237476, Alt.=129.189575m. Speed=6.876000m/h.</desc>
<speed>1.910000</speed>
</trkpt>
<trkpt lat="55.735779" lon="26.237442">
<ele>129.072388</ele>
<time>2010-07-17T10:45:37Z</time>
<desc>lat.=55.735779, lon.=26.237442, Alt.=129.072388m. Speed=6.552000m/h.</desc>
<speed>1.820000</speed>
</trkpt>
<trkpt lat="55.735767" lon="26.237396">
<ele>128.244263</ele>
<time>2010-07-17T10:45:38Z</time>
<desc>lat.=55.735767, lon.=26.237396, Alt.=128.244263m. Speed=6.804000m/h.</desc>
<speed>1.890000</speed>
</trkpt>
<trkpt lat="55.735764" lon="26.237364">
<ele>127.954163</ele>
<time>2010-07-17T10:45:39Z</time>
<desc>lat.=55.735764, lon.=26.237364, Alt.=127.954163m. Speed=6.948000m/h.</desc>
<speed>1.930000</speed>
</trkpt>
<trkpt lat="55.735764" lon="26.237303">
<ele>127.887756</ele>
<time>2010-07-17T10:45:40Z</time>
<desc>lat.=55.735764, lon.=26.237303, Alt.=127.887756m. Speed=9.144000m/h.</desc>
<speed>2.540000</speed>
</trkpt>
<trkpt lat="55.735764" lon="26.237265">
<ele>127.460022</ele>
<time>2010-07-17T10:45:41Z</time>
<desc>lat.=55.735764, lon.=26.237265, Alt.=127.460022m. Speed=6.912000m/h.</desc>
<speed>1.920000</speed>
</trkpt>
<trkpt lat="55.735767" lon="26.237249">
<ele>127.364319</ele>
<time>2010-07-17T10:45:42Z</time>
<desc>lat.=55.735767, lon.=26.237249, Alt.=127.364319m. Speed=2.160000m/h.</desc>
<speed>0.600000</speed>
</trkpt>
<trkpt lat="55.735767" lon="26.237238">
<ele>127.649475</ele>
<time>2010-07-17T10:45:43Z</time>
<desc>lat.=55.735767, lon.=26.237238, Alt.=127.649475m. Speed=0.576000m/h.</desc>
<speed>0.160000</speed>
</trkpt>
<trkpt lat="55.735767" lon="26.237236">
<ele>127.983459</ele>
<time>2010-07-17T10:45:44Z</time>
<desc>lat.=55.735767, lon.=26.237236, Alt.=127.983459m. Speed=0.324000m/h.</desc>
<speed>0.090000</speed>
</trkpt>
<trkpt lat="55.735767" lon="26.237234">
<ele>128.189575</ele>
<time>2010-07-17T10:45:45Z</time>
<desc>lat.=55.735767, lon.=26.237234, Alt.=128.189575m. Speed=0.684000m/h.</desc>
<speed>0.190000</speed>
</trkpt>
<trkpt lat="55.735767" lon="26.237236">
<ele>128.041138</ele>
<time>2010-07-17T10:45:46Z</time>
<desc>lat.=55.735767, lon.=26.237236, Alt.=128.041138m. Speed=0.828000m/h.</desc>
<speed>0.230000</speed>
</trkpt>
<trkpt lat="55.735764" lon="26.237240">
<ele>127.944397</ele>
<time>2010-07-17T10:45:47Z</time>
<desc>lat.=55.735764, lon.=26.237240, Alt.=127.944397m. Speed=1.728000m/h.</desc>
<speed>0.480000</speed>
</trkpt>
<trkpt lat="55.735764" lon="26.237247">
<ele>128.041138</ele>
<time>2010-07-17T10:45:48Z</time>
<desc>lat.=55.735764, lon.=26.237247, Alt.=128.041138m. Speed=1.656000m/h.</desc>
<speed>0.460000</speed>
</trkpt>
<trkpt lat="55.735760" lon="26.237253">
<ele>128.130981</ele>
<time>2010-07-17T10:45:49Z</time>
<desc>lat.=55.735760, lon.=26.237253, Alt.=128.130981m. Speed=0.288000m/h.</desc>
<speed>0.080000</speed>
</trkpt>
<trkpt lat="55.735760" lon="26.237253">
<ele>128.017700</ele>
<time>2010-07-17T10:45:50Z</time>
<desc>lat.=55.735760, lon.=26.237253, Alt.=128.017700m. Speed=0.072000m/h.</desc>
<speed>0.020000</speed>
</trkpt>
<trkpt lat="55.735760" lon="26.237253">
<ele>127.961975</ele>
<time>2010-07-17T10:45:51Z</time>
<desc>lat.=55.735760, lon.=26.237253, Alt.=127.961975m. Speed=0.180000m/h.</desc>
<speed>0.050000</speed>
</trkpt>
<trkpt lat="55.735760" lon="26.237255">
<ele>127.922913</ele>
<time>2010-07-17T10:45:52Z</time>
<desc>lat.=55.735760, lon.=26.237255, Alt.=127.922913m. Speed=0.252000m/h.</desc>
<speed>0.070000</speed>
</trkpt>
<trkpt lat="55.735760" lon="26.237255">
<ele>127.893616</ele>
<time>2010-07-17T10:45:53Z</time>
<desc>lat.=55.735760, lon.=26.237255, Alt.=127.893616m. Speed=0.216000m/h.</desc>
<speed>0.060000</speed>
</trkpt>
<trkpt lat="55.735760" lon="26.237253">
<ele>127.879944</ele>
<time>2010-07-17T10:45:54Z</time>
<desc>lat.=55.735760, lon.=26.237253, Alt.=127.879944m. Speed=0.144000m/h.</desc>
<speed>0.040000</speed>
</trkpt>
<trkpt lat="55.735760" lon="26.237255">
<ele>127.864319</ele>
<time>2010-07-17T10:45:55Z</time>
<desc>lat.=55.735760, lon.=26.237255, Alt.=127.864319m. Speed=0.216000m/h.</desc>
<speed>0.060000</speed>
</trkpt>
<trkpt lat="55.735760" lon="26.237255">
<ele>127.848694</ele>
<time>2010-07-17T10:45:56Z</time>
<desc>lat.=55.735760, lon.=26.237255, Alt.=127.848694m. Speed=0.360000m/h.</desc>
<speed>0.100000</speed>
</trkpt>
<trkpt lat="55.735760" lon="26.237257">
<ele>127.836975</ele>
<time>2010-07-17T10:45:57Z</time>
<desc>lat.=55.735760, lon.=26.237257, Alt.=127.836975m. Speed=0.072000m/h.</desc>
<speed>0.020000</speed>
</trkpt>
<trkpt lat="55.735760" lon="26.237257">
<ele>127.805725</ele>
<time>2010-07-17T10:45:58Z</time>
<desc>lat.=55.735760, lon.=26.237257, Alt.=127.805725m. Speed=0.828000m/h.</desc>
<speed>0.230000</speed>
</trkpt>
<trkpt lat="55.735760" lon="26.237255">
<ele>127.780334</ele>
<time>2010-07-17T10:45:59Z</time>
<desc>lat.=55.735760, lon.=26.237255, Alt.=127.780334m. Speed=0.864000m/h.</desc>
<speed>0.240000</speed>
</trkpt>
<trkpt lat="55.735760" lon="26.237251">
<ele>127.774475</ele>
<time>2010-07-17T10:46:00Z</time>
<desc>lat.=55.735760, lon.=26.237251, Alt.=127.774475m. Speed=3.204000m/h.</desc>
<speed>0.890000</speed>
</trkpt>
<trkpt lat="55.735760" lon="26.237238">
<ele>127.766663</ele>
<time>2010-07-17T10:46:01Z</time>
<desc>lat.=55.735760, lon.=26.237238, Alt.=127.766663m. Speed=5.220000m/h.</desc>
<speed>1.450000</speed>
</trkpt>
<trkpt lat="55.735771" lon="26.237215">
<ele>127.794006</ele>
<time>2010-07-17T10:46:02Z</time>
<desc>lat.=55.735771, lon.=26.237215, Alt.=127.794006m. Speed=6.984000m/h.</desc>
<speed>1.940000</speed>
</trkpt>
<trkpt lat="55.735771" lon="26.237175">
<ele>127.698303</ele>
<time>2010-07-17T10:46:03Z</time>
<desc>lat.=55.735771, lon.=26.237175, Alt.=127.698303m. Speed=8.640000m/h.</desc>
<speed>2.400000</speed>
</trkpt>
<trkpt lat="55.735779" lon="26.237141">
<ele>127.827209</ele>
<time>2010-07-17T10:46:04Z</time>
<desc>lat.=55.735779, lon.=26.237141, Alt.=127.827209m. Speed=7.884000m/h.</desc>
<speed>2.190000</speed>
</trkpt>
<trkpt lat="55.735786" lon="26.237099">
<ele>128.130981</ele>
<time>2010-07-17T10:46:05Z</time>
<desc>lat.=55.735786, lon.=26.237099, Alt.=128.130981m. Speed=9.108000m/h.</desc>
<speed>2.530000</speed>
</trkpt>
<trkpt lat="55.735790" lon="26.237053">
<ele>128.638794</ele>
<time>2010-07-17T10:46:06Z</time>
<desc>lat.=55.735790, lon.=26.237053, Alt.=128.638794m. Speed=7.704000m/h.</desc>
<speed>2.140000</speed>
</trkpt>
<trkpt lat="55.735790" lon="26.237013">
<ele>128.795044</ele>
<time>2010-07-17T10:46:07Z</time>
<desc>lat.=55.735790, lon.=26.237013, Alt.=128.795044m. Speed=9.504000m/h.</desc>
<speed>2.640000</speed>
</trkpt>
<trkpt lat="55.735790" lon="26.236956">
<ele>128.830200</ele>
<time>2010-07-17T10:46:08Z</time>
<desc>lat.=55.735790, lon.=26.236956, Alt.=128.830200m. Speed=11.880000m/h.</desc>
<speed>3.300000</speed>
</trkpt>
<trkpt lat="55.735794" lon="26.236893">
<ele>128.959106</ele>
<time>2010-07-17T10:46:09Z</time>
<desc>lat.=55.735794, lon.=26.236893, Alt.=128.959106m. Speed=12.852000m/h.</desc>
<speed>3.570000</speed>
</trkpt>
<trkpt lat="55.735802" lon="26.236830">
<ele>129.048950</ele>
<time>2010-07-17T10:46:10Z</time>
<desc>lat.=55.735802, lon.=26.236830, Alt.=129.048950m. Speed=11.664000m/h.</desc>
<speed>3.240000</speed>
</trkpt>
<trkpt lat="55.735809" lon="26.236765">
<ele>129.189575</ele>
<time>2010-07-17T10:46:11Z</time>
<desc>lat.=55.735809, lon.=26.236765, Alt.=129.189575m. Speed=12.420000m/h.</desc>
<speed>3.450000</speed>
</trkpt>
<trkpt lat="55.735817" lon="26.236710">
<ele>129.197388</ele>
<time>2010-07-17T10:46:12Z</time>
<desc>lat.=55.735817, lon.=26.236710, Alt.=129.197388m. Speed=11.376000m/h.</desc>
<speed>3.160000</speed>
</trkpt>
<trkpt lat="55.735821" lon="26.236652">
<ele>129.173950</ele>
<time>2010-07-17T10:46:13Z</time>
<desc>lat.=55.735821, lon.=26.236652, Alt.=129.173950m. Speed=12.780000m/h.</desc>
<speed>3.550000</speed>
</trkpt>
<trkpt lat="55.735828" lon="26.236601">
<ele>129.150513</ele>
<time>2010-07-17T10:46:14Z</time>
<desc>lat.=55.735828, lon.=26.236601, Alt.=129.150513m. Speed=10.800000m/h.</desc>
<speed>3.000000</speed>
</trkpt>
<trkpt lat="55.735840" lon="26.236549">
<ele>129.189575</ele>
<time>2010-07-17T10:46:15Z</time>
<desc>lat.=55.735840, lon.=26.236549, Alt.=129.189575m. Speed=10.656000m/h.</desc>
<speed>2.960000</speed>
</trkpt>
<trkpt lat="55.735836" lon="26.236483">
<ele>129.162231</ele>
<time>2010-07-17T10:46:16Z</time>
<desc>lat.=55.735836, lon.=26.236483, Alt.=129.162231m. Speed=11.736000m/h.</desc>
<speed>3.260000</speed>
</trkpt>
<trkpt lat="55.735851" lon="26.236422">
<ele>129.357544</ele>
<time>2010-07-17T10:46:17Z</time>
<desc>lat.=55.735851, lon.=26.236422, Alt.=129.357544m. Speed=11.628000m/h.</desc>
<speed>3.230000</speed>
</trkpt>
<trkpt lat="55.735847" lon="26.236347">
<ele>129.396606</ele>
<time>2010-07-17T10:46:18Z</time>
<desc>lat.=55.735847, lon.=26.236347, Alt.=129.396606m. Speed=13.284000m/h.</desc>
<speed>3.690000</speed>
</trkpt>
<trkpt lat="55.735844" lon="26.236284">
<ele>129.236450</ele>
<time>2010-07-17T10:46:19Z</time>
<desc>lat.=55.735844, lon.=26.236284, Alt.=129.236450m. Speed=11.196000m/h.</desc>
<speed>3.110000</speed>
</trkpt>
<trkpt lat="55.735844" lon="26.236206">
<ele>129.150513</ele>
<time>2010-07-17T10:46:20Z</time>
<desc>lat.=55.735844, lon.=26.236206, Alt.=129.150513m. Speed=13.608000m/h.</desc>
<speed>3.780000</speed>
</trkpt>
<trkpt lat="55.735840" lon="26.236145">
<ele>129.255981</ele>
<time>2010-07-17T10:46:21Z</time>
<desc>lat.=55.735840, lon.=26.236145, Alt.=129.255981m. Speed=14.292000m/h.</desc>
<speed>3.970000</speed>
</trkpt>
<trkpt lat="55.735840" lon="26.236082">
<ele>129.380981</ele>
<time>2010-07-17T10:46:22Z</time>
<desc>lat.=55.735840, lon.=26.236082, Alt.=129.380981m. Speed=13.824000m/h.</desc>
<speed>3.840000</speed>
</trkpt>
<trkpt lat="55.735836" lon="26.236021">
<ele>129.447388</ele>
<time>2010-07-17T10:46:23Z</time>
<desc>lat.=55.735836, lon.=26.236021, Alt.=129.447388m. Speed=13.716000m/h.</desc>
<speed>3.810000</speed>
</trkpt>
<trkpt lat="55.735828" lon="26.235937">
<ele>129.267700</ele>
<time>2010-07-17T10:46:24Z</time>
<desc>lat.=55.735828, lon.=26.235937, Alt.=129.267700m. Speed=13.320000m/h.</desc>
<speed>3.700000</speed>
</trkpt>
<trkpt lat="55.735825" lon="26.235878">
<ele>129.236450</ele>
<time>2010-07-17T10:46:25Z</time>
<desc>lat.=55.735825, lon.=26.235878, Alt.=129.236450m. Speed=12.456000m/h.</desc>
<speed>3.460000</speed>
</trkpt>
<trkpt lat="55.735809" lon="26.235788">
<ele>128.990356</ele>
<time>2010-07-17T10:46:26Z</time>
<desc>lat.=55.735809, lon.=26.235788, Alt.=128.990356m. Speed=12.636000m/h.</desc>
<speed>3.510000</speed>
</trkpt>
<trkpt lat="55.735802" lon="26.235691">
<ele>128.134888</ele>
<time>2010-07-17T10:46:27Z</time>
<desc>lat.=55.735802, lon.=26.235691, Alt.=128.134888m. Speed=12.060000m/h.</desc>
<speed>3.350000</speed>
</trkpt>
<trkpt lat="55.735790" lon="26.235609">
<ele>127.360413</ele>
<time>2010-07-17T10:46:28Z</time>
<desc>lat.=55.735790, lon.=26.235609, Alt.=127.360413m. Speed=12.024000m/h.</desc>
<speed>3.340000</speed>
</trkpt>
<trkpt lat="55.735779" lon="26.235537">
<ele>127.118225</ele>
<time>2010-07-17T10:46:29Z</time>
<desc>lat.=55.735779, lon.=26.235537, Alt.=127.118225m. Speed=10.944000m/h.</desc>
<speed>3.040000</speed>
</trkpt>
<trkpt lat="55.735779" lon="26.235483">
<ele>126.829163</ele>
<time>2010-07-17T10:46:30Z</time>
<desc>lat.=55.735779, lon.=26.235483, Alt.=126.829163m. Speed=9.720000m/h.</desc>
<speed>2.700000</speed>
</trkpt>
<trkpt lat="55.735794" lon="26.235413">
<ele>127.178772</ele>
<time>2010-07-17T10:46:31Z</time>
<desc>lat.=55.735794, lon.=26.235413, Alt.=127.178772m. Speed=9.936000m/h.</desc>
<speed>2.760000</speed>
</trkpt>
<trkpt lat="55.735802" lon="26.235355">
<ele>127.268616</ele>
<time>2010-07-17T10:46:32Z</time>
<desc>lat.=55.735802, lon.=26.235355, Alt.=127.268616m. Speed=10.476000m/h.</desc>
<speed>2.910000</speed>
</trkpt>
<trkpt lat="55.735798" lon="26.235300">
<ele>126.991272</ele>
<time>2010-07-17T10:46:33Z</time>
<desc>lat.=55.735798, lon.=26.235300, Alt.=126.991272m. Speed=10.692000m/h.</desc>
<speed>2.970000</speed>
</trkpt>
<trkpt lat="55.735794" lon="26.235237">
<ele>126.723694</ele>
<time>2010-07-17T10:46:34Z</time>
<desc>lat.=55.735794, lon.=26.235237, Alt.=126.723694m. Speed=10.548000m/h.</desc>
<speed>2.930000</speed>
</trkpt>
<trkpt lat="55.735790" lon="26.235180">
<ele>126.561584</ele>
<time>2010-07-17T10:46:35Z</time>
<desc>lat.=55.735790, lon.=26.235180, Alt.=126.561584m. Speed=11.196000m/h.</desc>
<speed>3.110000</speed>
</trkpt>
<trkpt lat="55.735786" lon="26.235121">
<ele>126.366272</ele>
<time>2010-07-17T10:46:36Z</time>
<desc>lat.=55.735786, lon.=26.235121, Alt.=126.366272m. Speed=11.628000m/h.</desc>
<speed>3.230000</speed>
</trkpt>
<trkpt lat="55.735786" lon="26.235062">
<ele>126.145569</ele>
<time>2010-07-17T10:46:37Z</time>
<desc>lat.=55.735786, lon.=26.235062, Alt.=126.145569m. Speed=11.664000m/h.</desc>
<speed>3.240000</speed>
</trkpt>
<trkpt lat="55.735783" lon="26.235001">
<ele>125.680725</ele>
<time>2010-07-17T10:46:38Z</time>
<desc>lat.=55.735783, lon.=26.235001, Alt.=125.680725m. Speed=12.096000m/h.</desc>
<speed>3.360000</speed>
</trkpt>
<trkpt lat="55.735771" lon="26.234940">
<ele>125.163147</ele>
<time>2010-07-17T10:46:39Z</time>
<desc>lat.=55.735771, lon.=26.234940, Alt.=125.163147m. Speed=13.860000m/h.</desc>
<speed>3.850000</speed>
</trkpt>
<trkpt lat="55.735767" lon="26.234877">
<ele>124.827209</ele>
<time>2010-07-17T10:46:40Z</time>
<desc>lat.=55.735767, lon.=26.234877, Alt.=124.827209m. Speed=13.032000m/h.</desc>
<speed>3.620000</speed>
</trkpt>
<trkpt lat="55.735760" lon="26.234808">
<ele>124.461975</ele>
<time>2010-07-17T10:46:41Z</time>
<desc>lat.=55.735760, lon.=26.234808, Alt.=124.461975m. Speed=14.544000m/h.</desc>
<speed>4.040000</speed>
</trkpt>
<trkpt lat="55.735760" lon="26.234739">
<ele>123.831116</ele>
<time>2010-07-17T10:46:42Z</time>
<desc>lat.=55.735760, lon.=26.234739, Alt.=123.831116m. Speed=14.004000m/h.</desc>
<speed>3.890000</speed>
</trkpt>
<trkpt lat="55.735760" lon="26.234671">
<ele>123.499084</ele>
<time>2010-07-17T10:46:43Z</time>
<desc>lat.=55.735760, lon.=26.234671, Alt.=123.499084m. Speed=14.256000m/h.</desc>
<speed>3.960000</speed>
</trkpt>
<trkpt lat="55.735756" lon="26.234602">
<ele>123.331116</ele>
<time>2010-07-17T10:46:44Z</time>
<desc>lat.=55.735756, lon.=26.234602, Alt.=123.331116m. Speed=15.156000m/h.</desc>
<speed>4.210000</speed>
</trkpt>
<trkpt lat="55.735752" lon="26.234533">
<ele>123.010803</ele>
<time>2010-07-17T10:46:45Z</time>
<desc>lat.=55.735752, lon.=26.234533, Alt.=123.010803m. Speed=14.508000m/h.</desc>
<speed>4.030000</speed>
</trkpt>
<trkpt lat="55.735748" lon="26.234467">
<ele>122.684631</ele>
<time>2010-07-17T10:46:46Z</time>
<desc>lat.=55.735748, lon.=26.234467, Alt.=122.684631m. Speed=13.860000m/h.</desc>
<speed>3.850000</speed>
</trkpt>
<trkpt lat="55.735752" lon="26.234402">
<ele>122.592834</ele>
<time>2010-07-17T10:46:47Z</time>
<desc>lat.=55.735752, lon.=26.234402, Alt.=122.592834m. Speed=13.608000m/h.</desc>
<speed>3.780000</speed>
</trkpt>
<trkpt lat="55.735752" lon="26.234339">
<ele>122.303772</ele>
<time>2010-07-17T10:46:48Z</time>
<desc>lat.=55.735752, lon.=26.234339, Alt.=122.303772m. Speed=13.248000m/h.</desc>
<speed>3.680000</speed>
</trkpt>
<trkpt lat="55.735748" lon="26.234280">
<ele>121.944397</ele>
<time>2010-07-17T10:46:49Z</time>
<desc>lat.=55.735748, lon.=26.234280, Alt.=121.944397m. Speed=13.032000m/h.</desc>
<speed>3.620000</speed>
</trkpt>
<trkpt lat="55.735744" lon="26.234209">
<ele>121.536194</ele>
<time>2010-07-17T10:46:50Z</time>
<desc>lat.=55.735744, lon.=26.234209, Alt.=121.536194m. Speed=13.572000m/h.</desc>
<speed>3.770000</speed>
</trkpt>
<trkpt lat="55.735748" lon="26.234140">
<ele>121.317444</ele>
<time>2010-07-17T10:46:51Z</time>
<desc>lat.=55.735748, lon.=26.234140, Alt.=121.317444m. Speed=13.896000m/h.</desc>
<speed>3.860000</speed>
</trkpt>
<trkpt lat="55.735756" lon="26.234068">
<ele>121.342834</ele>
<time>2010-07-17T10:46:52Z</time>
<desc>lat.=55.735756, lon.=26.234068, Alt.=121.342834m. Speed=14.220000m/h.</desc>
<speed>3.950000</speed>
</trkpt>
<trkpt lat="55.735760" lon="26.233984">
<ele>121.688538</ele>
<time>2010-07-17T10:46:53Z</time>
<desc>lat.=55.735760, lon.=26.233984, Alt.=121.688538m. Speed=14.328000m/h.</desc>
<speed>3.980000</speed>
</trkpt>
<trkpt lat="55.735767" lon="26.233910">
<ele>121.776428</ele>
<time>2010-07-17T10:46:54Z</time>
<desc>lat.=55.735767, lon.=26.233910, Alt.=121.776428m. Speed=15.408000m/h.</desc>
<speed>4.280000</speed>
</trkpt>
<trkpt lat="55.735775" lon="26.233812">
<ele>122.434631</ele>
<time>2010-07-17T10:46:55Z</time>
<desc>lat.=55.735775, lon.=26.233812, Alt.=122.434631m. Speed=16.524000m/h.</desc>
<speed>4.590000</speed>
</trkpt>
<trkpt lat="55.735790" lon="26.233730">
<ele>122.581116</ele>
<time>2010-07-17T10:46:56Z</time>
<desc>lat.=55.735790, lon.=26.233730, Alt.=122.581116m. Speed=17.388000m/h.</desc>
<speed>4.830000</speed>
</trkpt>
<trkpt lat="55.735802" lon="26.233648">
<ele>122.409241</ele>
<time>2010-07-17T10:46:57Z</time>
<desc>lat.=55.735802, lon.=26.233648, Alt.=122.409241m. Speed=18.360001m/h.</desc>
<speed>5.100000</speed>
</trkpt>
<trkpt lat="55.735813" lon="26.233562">
<ele>122.510803</ele>
<time>2010-07-17T10:46:58Z</time>
<desc>lat.=55.735813, lon.=26.233562, Alt.=122.510803m. Speed=20.016001m/h.</desc>
<speed>5.560000</speed>
</trkpt>
<trkpt lat="55.735821" lon="26.233467">
<ele>122.883850</ele>
<time>2010-07-17T10:46:59Z</time>
<desc>lat.=55.735821, lon.=26.233467, Alt.=122.883850m. Speed=19.872000m/h.</desc>
<speed>5.520000</speed>
</trkpt>
<trkpt lat="55.735840" lon="26.233381">
<ele>122.704163</ele>
<time>2010-07-17T10:47:00Z</time>
<desc>lat.=55.735840, lon.=26.233381, Alt.=122.704163m. Speed=20.160000m/h.</desc>
<speed>5.600000</speed>
</trkpt>
<trkpt lat="55.735840" lon="26.233284">
<ele>122.024475</ele>
<time>2010-07-17T10:47:01Z</time>
<desc>lat.=55.735840, lon.=26.233284, Alt.=122.024475m. Speed=19.944000m/h.</desc>
<speed>5.540000</speed>
</trkpt>
<trkpt lat="55.735847" lon="26.233196">
<ele>122.004944</ele>
<time>2010-07-17T10:47:02Z</time>
<desc>lat.=55.735847, lon.=26.233196, Alt.=122.004944m. Speed=18.972000m/h.</desc>
<speed>5.270000</speed>
</trkpt>
<trkpt lat="55.735855" lon="26.233112">
<ele>121.958069</ele>
<time>2010-07-17T10:47:03Z</time>
<desc>lat.=55.735855, lon.=26.233112, Alt.=121.958069m. Speed=18.252001m/h.</desc>
<speed>5.070000</speed>
</trkpt>
<trkpt lat="55.735874" lon="26.233040">
<ele>122.034241</ele>
<time>2010-07-17T10:47:04Z</time>
<desc>lat.=55.735874, lon.=26.233040, Alt.=122.034241m. Speed=17.351999m/h.</desc>
<speed>4.820000</speed>
</trkpt>
<trkpt lat="55.735882" lon="26.232967">
<ele>121.965881</ele>
<time>2010-07-17T10:47:05Z</time>
<desc>lat.=55.735882, lon.=26.232967, Alt.=121.965881m. Speed=17.351999m/h.</desc>
<speed>4.820000</speed>
</trkpt>
<trkpt lat="55.735889" lon="26.232891">
<ele>122.045959</ele>
<time>2010-07-17T10:47:06Z</time>
<desc>lat.=55.735889, lon.=26.232891, Alt.=122.045959m. Speed=17.639999m/h.</desc>
<speed>4.900000</speed>
</trkpt>
<trkpt lat="55.735897" lon="26.232815">
<ele>121.901428</ele>
<time>2010-07-17T10:47:07Z</time>
<desc>lat.=55.735897, lon.=26.232815, Alt.=121.901428m. Speed=16.452000m/h.</desc>
<speed>4.570000</speed>
</trkpt>
<trkpt lat="55.735901" lon="26.232742">
<ele>121.610413</ele>
<time>2010-07-17T10:47:08Z</time>
<desc>lat.=55.735901, lon.=26.232742, Alt.=121.610413m. Speed=18.143999m/h.</desc>
<speed>5.040000</speed>
</trkpt>
<trkpt lat="55.735909" lon="26.232672">
<ele>121.930725</ele>
<time>2010-07-17T10:47:09Z</time>
<desc>lat.=55.735909, lon.=26.232672, Alt.=121.930725m. Speed=16.452000m/h.</desc>
<speed>4.570000</speed>
</trkpt>
<trkpt lat="55.735920" lon="26.232597">
<ele>122.215881</ele>
<time>2010-07-17T10:47:10Z</time>
<desc>lat.=55.735920, lon.=26.232597, Alt.=122.215881m. Speed=16.128000m/h.</desc>
<speed>4.480000</speed>
</trkpt>
<trkpt lat="55.735928" lon="26.232521">
<ele>123.196350</ele>
<time>2010-07-17T10:47:11Z</time>
<desc>lat.=55.735928, lon.=26.232521, Alt.=123.196350m. Speed=16.164000m/h.</desc>
<speed>4.490000</speed>
</trkpt>
<trkpt lat="55.735928" lon="26.232447">
<ele>123.567444</ele>
<time>2010-07-17T10:47:12Z</time>
<desc>lat.=55.735928, lon.=26.232447, Alt.=123.567444m. Speed=16.128000m/h.</desc>
<speed>4.480000</speed>
</trkpt>
<trkpt lat="55.735935" lon="26.232376">
<ele>124.696350</ele>
<time>2010-07-17T10:47:13Z</time>
<desc>lat.=55.735935, lon.=26.232376, Alt.=124.696350m. Speed=15.444000m/h.</desc>
<speed>4.290000</speed>
</trkpt>
<trkpt lat="55.735950" lon="26.232309">
<ele>125.592834</ele>
<time>2010-07-17T10:47:14Z</time>
<desc>lat.=55.735950, lon.=26.232309, Alt.=125.592834m. Speed=14.256000m/h.</desc>
<speed>3.960000</speed>
</trkpt>
<trkpt lat="55.735958" lon="26.232235">
<ele>126.071350</ele>
<time>2010-07-17T10:47:15Z</time>
<desc>lat.=55.735958, lon.=26.232235, Alt.=126.071350m. Speed=14.616000m/h.</desc>
<speed>4.060000</speed>
</trkpt>
<trkpt lat="55.735958" lon="26.232161">
<ele>125.760803</ele>
<time>2010-07-17T10:47:16Z</time>
<desc>lat.=55.735958, lon.=26.232161, Alt.=125.760803m. Speed=15.264000m/h.</desc>
<speed>4.240000</speed>
</trkpt>
<trkpt lat="55.735966" lon="26.232086">
<ele>125.686584</ele>
<time>2010-07-17T10:47:17Z</time>
<desc>lat.=55.735966, lon.=26.232086, Alt.=125.686584m. Speed=15.300000m/h.</desc>
<speed>4.250000</speed>
</trkpt>
<trkpt lat="55.735973" lon="26.232018">
<ele>125.881897</ele>
<time>2010-07-17T10:47:18Z</time>
<desc>lat.=55.735973, lon.=26.232018, Alt.=125.881897m. Speed=14.724000m/h.</desc>
<speed>4.090000</speed>
</trkpt>
<trkpt lat="55.735985" lon="26.231949">
<ele>126.583069</ele>
<time>2010-07-17T10:47:19Z</time>
<desc>lat.=55.735985, lon.=26.231949, Alt.=126.583069m. Speed=15.192000m/h.</desc>
<speed>4.220000</speed>
</trkpt>
<trkpt lat="55.735981" lon="26.231884">
<ele>126.752991</ele>
<time>2010-07-17T10:47:20Z</time>
<desc>lat.=55.735981, lon.=26.231884, Alt.=126.752991m. Speed=14.400000m/h.</desc>
<speed>4.000000</speed>
</trkpt>
<trkpt lat="55.735977" lon="26.231813">
<ele>127.264709</ele>
<time>2010-07-17T10:47:21Z</time>
<desc>lat.=55.735977, lon.=26.231813, Alt.=127.264709m. Speed=14.040000m/h.</desc>
<speed>3.900000</speed>
</trkpt>
<trkpt lat="55.735973" lon="26.231758">
<ele>127.292053</ele>
<time>2010-07-17T10:47:22Z</time>
<desc>lat.=55.735973, lon.=26.231758, Alt.=127.292053m. Speed=11.772000m/h.</desc>
<speed>3.270000</speed>
</trkpt>
<trkpt lat="55.735962" lon="26.231701">
<ele>127.885803</ele>
<time>2010-07-17T10:47:23Z</time>
<desc>lat.=55.735962, lon.=26.231701, Alt.=127.885803m. Speed=12.276000m/h.</desc>
<speed>3.410000</speed>
</trkpt>
<trkpt lat="55.735954" lon="26.231644">
<ele>127.919006</ele>
<time>2010-07-17T10:47:24Z</time>
<desc>lat.=55.735954, lon.=26.231644, Alt.=127.919006m. Speed=14.148000m/h.</desc>
<speed>3.930000</speed>
</trkpt>
<trkpt lat="55.735950" lon="26.231577">
<ele>128.752075</ele>
<time>2010-07-17T10:47:25Z</time>
<desc>lat.=55.735950, lon.=26.231577, Alt.=128.752075m. Speed=15.552000m/h.</desc>
<speed>4.320000</speed>
</trkpt>
<trkpt lat="55.735939" lon="26.231504">
<ele>129.259888</ele>
<time>2010-07-17T10:47:26Z</time>
<desc>lat.=55.735939, lon.=26.231504, Alt.=129.259888m. Speed=15.228000m/h.</desc>
<speed>4.230000</speed>
</trkpt>
<trkpt lat="55.735928" lon="26.231438">
<ele>129.716919</ele>
<time>2010-07-17T10:47:27Z</time>
<desc>lat.=55.735928, lon.=26.231438, Alt.=129.716919m. Speed=14.040000m/h.</desc>
<speed>3.900000</speed>
</trkpt>
<trkpt lat="55.735916" lon="26.231384">
<ele>130.556763</ele>
<time>2010-07-17T10:47:28Z</time>
<desc>lat.=55.735916, lon.=26.231384, Alt.=130.556763m. Speed=12.168000m/h.</desc>
<speed>3.380000</speed>
</trkpt>
<trkpt lat="55.735901" lon="26.231337">
<ele>131.068481</ele>
<time>2010-07-17T10:47:29Z</time>
<desc>lat.=55.735901, lon.=26.231337, Alt.=131.068481m. Speed=11.124000m/h.</desc>
<speed>3.090000</speed>
</trkpt>
<trkpt lat="55.735874" lon="26.231300">
<ele>131.232544</ele>
<time>2010-07-17T10:47:30Z</time>
<desc>lat.=55.735874, lon.=26.231300, Alt.=131.232544m. Speed=13.032000m/h.</desc>
<speed>3.620000</speed>
</trkpt>
<trkpt lat="55.735855" lon="26.231260">
<ele>132.513794</ele>
<time>2010-07-17T10:47:31Z</time>
<desc>lat.=55.735855, lon.=26.231260, Alt.=132.513794m. Speed=8.208000m/h.</desc>
<speed>2.280000</speed>
</trkpt>
<trkpt lat="55.735840" lon="26.231237">
<ele>133.091919</ele>
<time>2010-07-17T10:47:32Z</time>
<desc>lat.=55.735840, lon.=26.231237, Alt.=133.091919m. Speed=5.472000m/h.</desc>
<speed>1.520000</speed>
</trkpt>
<trkpt lat="55.735825" lon="26.231207">
<ele>133.045044</ele>
<time>2010-07-17T10:47:33Z</time>
<desc>lat.=55.735825, lon.=26.231207, Alt.=133.045044m. Speed=5.400000m/h.</desc>
<speed>1.500000</speed>
</trkpt>
<trkpt lat="55.735813" lon="26.231186">
<ele>133.138794</ele>
<time>2010-07-17T10:47:34Z</time>
<desc>lat.=55.735813, lon.=26.231186, Alt.=133.138794m. Speed=5.364000m/h.</desc>
<speed>1.490000</speed>
</trkpt>
<trkpt lat="55.735798" lon="26.231161">
<ele>132.845825</ele>
<time>2010-07-17T10:47:35Z</time>
<desc>lat.=55.735798, lon.=26.231161, Alt.=132.845825m. Speed=6.624000m/h.</desc>
<speed>1.840000</speed>
</trkpt>
<trkpt lat="55.735783" lon="26.231133">
<ele>133.142700</ele>
<time>2010-07-17T10:47:36Z</time>
<desc>lat.=55.735783, lon.=26.231133, Alt.=133.142700m. Speed=5.076000m/h.</desc>
<speed>1.410000</speed>
</trkpt>
<trkpt lat="55.735771" lon="26.231100">
<ele>133.552856</ele>
<time>2010-07-17T10:47:37Z</time>
<desc>lat.=55.735771, lon.=26.231100, Alt.=133.552856m. Speed=6.336000m/h.</desc>
<speed>1.760000</speed>
</trkpt>
<trkpt lat="55.735764" lon="26.231073">
<ele>134.068481</ele>
<time>2010-07-17T10:47:38Z</time>
<desc>lat.=55.735764, lon.=26.231073, Alt.=134.068481m. Speed=7.560000m/h.</desc>
<speed>2.100000</speed>
</trkpt>
<trkpt lat="55.735744" lon="26.231022">
<ele>133.834106</ele>
<time>2010-07-17T10:47:39Z</time>
<desc>lat.=55.735744, lon.=26.231022, Alt.=133.834106m. Speed=8.856000m/h.</desc>
<speed>2.460000</speed>
</trkpt>
<trkpt lat="55.735729" lon="26.230991">
<ele>134.529419</ele>
<time>2010-07-17T10:47:40Z</time>
<desc>lat.=55.735729, lon.=26.230991, Alt.=134.529419m. Speed=8.316000m/h.</desc>
<speed>2.310000</speed>
</trkpt>
<trkpt lat="55.735722" lon="26.230957">
<ele>135.990356</ele>
<time>2010-07-17T10:47:41Z</time>
<desc>lat.=55.735722, lon.=26.230957, Alt.=135.990356m. Speed=7.596000m/h.</desc>
<speed>2.110000</speed>
</trkpt>
<trkpt lat="55.735703" lon="26.230917">
<ele>135.959106</ele>
<time>2010-07-17T10:47:42Z</time>
<desc>lat.=55.735703, lon.=26.230917, Alt.=135.959106m. Speed=7.416000m/h.</desc>
<speed>2.060000</speed>
</trkpt>
<trkpt lat="55.735687" lon="26.230879">
<ele>135.838013</ele>
<time>2010-07-17T10:47:43Z</time>
<desc>lat.=55.735687, lon.=26.230879, Alt.=135.838013m. Speed=5.940000m/h.</desc>
<speed>1.650000</speed>
</trkpt>
<trkpt lat="55.735668" lon="26.230843">
<ele>135.880981</ele>
<time>2010-07-17T10:47:44Z</time>
<desc>lat.=55.735668, lon.=26.230843, Alt.=135.880981m. Speed=6.192000m/h.</desc>
<speed>1.720000</speed>
</trkpt>
<trkpt lat="55.735649" lon="26.230803">
<ele>135.474731</ele>
<time>2010-07-17T10:47:45Z</time>
<desc>lat.=55.735649, lon.=26.230803, Alt.=135.474731m. Speed=7.200000m/h.</desc>
<speed>2.000000</speed>
</trkpt>
<trkpt lat="55.735634" lon="26.230768">
<ele>135.654419</ele>
<time>2010-07-17T10:47:46Z</time>
<desc>lat.=55.735634, lon.=26.230768, Alt.=135.654419m. Speed=8.136000m/h.</desc>
<speed>2.260000</speed>
</trkpt>
<trkpt lat="55.735615" lon="26.230730">
<ele>135.166138</ele>
<time>2010-07-17T10:47:47Z</time>
<desc>lat.=55.735615, lon.=26.230730, Alt.=135.166138m. Speed=8.568000m/h.</desc>
<speed>2.380000</speed>
</trkpt>
<trkpt lat="55.735600" lon="26.230692">
<ele>134.998169</ele>
<time>2010-07-17T10:47:48Z</time>
<desc>lat.=55.735600, lon.=26.230692, Alt.=134.998169m. Speed=8.820000m/h.</desc>
<speed>2.450000</speed>
</trkpt>
<trkpt lat="55.735573" lon="26.230642">
<ele>134.896606</ele>
<time>2010-07-17T10:47:49Z</time>
<desc>lat.=55.735573, lon.=26.230642, Alt.=134.896606m. Speed=10.332000m/h.</desc>
<speed>2.870000</speed>
</trkpt>
<trkpt lat="55.735542" lon="26.230587">
<ele>134.716919</ele>
<time>2010-07-17T10:47:50Z</time>
<desc>lat.=55.735542, lon.=26.230587, Alt.=134.716919m. Speed=11.232000m/h.</desc>
<speed>3.120000</speed>
</trkpt>
<trkpt lat="55.735519" lon="26.230537">
<ele>134.838013</ele>
<time>2010-07-17T10:47:51Z</time>
<desc>lat.=55.735519, lon.=26.230537, Alt.=134.838013m. Speed=10.476000m/h.</desc>
<speed>2.910000</speed>
</trkpt>
<trkpt lat="55.735504" lon="26.230501">
<ele>134.912231</ele>
<time>2010-07-17T10:47:52Z</time>
<desc>lat.=55.735504, lon.=26.230501, Alt.=134.912231m. Speed=10.260000m/h.</desc>
<speed>2.850000</speed>
</trkpt>
<trkpt lat="55.735489" lon="26.230461">
<ele>135.216919</ele>
<time>2010-07-17T10:47:53Z</time>
<desc>lat.=55.735489, lon.=26.230461, Alt.=135.216919m. Speed=9.828000m/h.</desc>
<speed>2.730000</speed>
</trkpt>
<trkpt lat="55.735470" lon="26.230423">
<ele>135.213013</ele>
<time>2010-07-17T10:47:54Z</time>
<desc>lat.=55.735470, lon.=26.230423, Alt.=135.213013m. Speed=8.748000m/h.</desc>
<speed>2.430000</speed>
</trkpt>
<trkpt lat="55.735455" lon="26.230394">
<ele>135.451294</ele>
<time>2010-07-17T10:47:55Z</time>
<desc>lat.=55.735455, lon.=26.230394, Alt.=135.451294m. Speed=9.432000m/h.</desc>
<speed>2.620000</speed>
</trkpt>
<trkpt lat="55.735447" lon="26.230362">
<ele>135.599731</ele>
<time>2010-07-17T10:47:56Z</time>
<desc>lat.=55.735447, lon.=26.230362, Alt.=135.599731m. Speed=8.712000m/h.</desc>
<speed>2.420000</speed>
</trkpt>
<trkpt lat="55.735432" lon="26.230328">
<ele>135.611450</ele>
<time>2010-07-17T10:47:57Z</time>
<desc>lat.=55.735432, lon.=26.230328, Alt.=135.611450m. Speed=8.748000m/h.</desc>
<speed>2.430000</speed>
</trkpt>
<trkpt lat="55.735420" lon="26.230288">
<ele>135.814575</ele>
<time>2010-07-17T10:47:58Z</time>
<desc>lat.=55.735420, lon.=26.230288, Alt.=135.814575m. Speed=9.576000m/h.</desc>
<speed>2.660000</speed>
</trkpt>
<trkpt lat="55.735409" lon="26.230257">
<ele>135.724731</ele>
<time>2010-07-17T10:47:59Z</time>
<desc>lat.=55.735409, lon.=26.230257, Alt.=135.724731m. Speed=9.756000m/h.</desc>
<speed>2.710000</speed>
</trkpt>
<trkpt lat="55.735394" lon="26.230221">
<ele>135.701294</ele>
<time>2010-07-17T10:48:00Z</time>
<desc>lat.=55.735394, lon.=26.230221, Alt.=135.701294m. Speed=9.648000m/h.</desc>
<speed>2.680000</speed>
</trkpt>
<trkpt lat="55.735378" lon="26.230185">
<ele>135.775513</ele>
<time>2010-07-17T10:48:01Z</time>
<desc>lat.=55.735378, lon.=26.230185, Alt.=135.775513m. Speed=9.576000m/h.</desc>
<speed>2.660000</speed>
</trkpt>
<trkpt lat="55.735359" lon="26.230146">
<ele>135.713013</ele>
<time>2010-07-17T10:48:02Z</time>
<desc>lat.=55.735359, lon.=26.230146, Alt.=135.713013m. Speed=9.648000m/h.</desc>
<speed>2.680000</speed>
</trkpt>
<trkpt lat="55.735340" lon="26.230110">
<ele>135.599731</ele>
<time>2010-07-17T10:48:03Z</time>
<desc>lat.=55.735340, lon.=26.230110, Alt.=135.599731m. Speed=9.216000m/h.</desc>
<speed>2.560000</speed>
</trkpt>
<trkpt lat="55.735321" lon="26.230078">
<ele>135.505981</ele>
<time>2010-07-17T10:48:04Z</time>
<desc>lat.=55.735321, lon.=26.230078, Alt.=135.505981m. Speed=10.080000m/h.</desc>
<speed>2.800000</speed>
</trkpt>
<trkpt lat="55.735306" lon="26.230042">
<ele>135.486450</ele>
<time>2010-07-17T10:48:05Z</time>
<desc>lat.=55.735306, lon.=26.230042, Alt.=135.486450m. Speed=10.332000m/h.</desc>
<speed>2.870000</speed>
</trkpt>
<trkpt lat="55.735291" lon="26.230001">
<ele>135.291138</ele>
<time>2010-07-17T10:48:06Z</time>
<desc>lat.=55.735291, lon.=26.230001, Alt.=135.291138m. Speed=9.792000m/h.</desc>
<speed>2.720000</speed>
</trkpt>
<trkpt lat="55.735275" lon="26.229963">
<ele>135.005981</ele>
<time>2010-07-17T10:48:07Z</time>
<desc>lat.=55.735275, lon.=26.229963, Alt.=135.005981m. Speed=9.828000m/h.</desc>
<speed>2.730000</speed>
</trkpt>
<trkpt lat="55.735264" lon="26.229923">
<ele>134.951294</ele>
<time>2010-07-17T10:48:08Z</time>
<desc>lat.=55.735264, lon.=26.229923, Alt.=134.951294m. Speed=10.548000m/h.</desc>
<speed>2.930000</speed>
</trkpt>
<trkpt lat="55.735252" lon="26.229885">
<ele>134.697388</ele>
<time>2010-07-17T10:48:09Z</time>
<desc>lat.=55.735252, lon.=26.229885, Alt.=134.697388m. Speed=11.556000m/h.</desc>
<speed>3.210000</speed>
</trkpt>
<trkpt lat="55.735237" lon="26.229839">
<ele>134.568481</ele>
<time>2010-07-17T10:48:10Z</time>
<desc>lat.=55.735237, lon.=26.229839, Alt.=134.568481m. Speed=11.772000m/h.</desc>
<speed>3.270000</speed>
</trkpt>
<trkpt lat="55.735222" lon="26.229797">
<ele>134.486450</ele>
<time>2010-07-17T10:48:11Z</time>
<desc>lat.=55.735222, lon.=26.229797, Alt.=134.486450m. Speed=10.980000m/h.</desc>
<speed>3.050000</speed>
</trkpt>
<trkpt lat="55.735207" lon="26.229759">
<ele>134.423950</ele>
<time>2010-07-17T10:48:12Z</time>
<desc>lat.=55.735207, lon.=26.229759, Alt.=134.423950m. Speed=10.476000m/h.</desc>
<speed>2.910000</speed>
</trkpt>
<trkpt lat="55.735195" lon="26.229721">
<ele>134.392700</ele>
<time>2010-07-17T10:48:13Z</time>
<desc>lat.=55.735195, lon.=26.229721, Alt.=134.392700m. Speed=10.224000m/h.</desc>
<speed>2.840000</speed>
</trkpt>
<trkpt lat="55.735184" lon="26.229689">
<ele>134.400513</ele>
<time>2010-07-17T10:48:14Z</time>
<desc>lat.=55.735184, lon.=26.229689, Alt.=134.400513m. Speed=9.864000m/h.</desc>
<speed>2.740000</speed>
</trkpt>
<trkpt lat="55.735168" lon="26.229658">
<ele>134.373169</ele>
<time>2010-07-17T10:48:15Z</time>
<desc>lat.=55.735168, lon.=26.229658, Alt.=134.373169m. Speed=9.036000m/h.</desc>
<speed>2.510000</speed>
</trkpt>
<trkpt lat="55.735153" lon="26.229628">
<ele>134.349731</ele>
<time>2010-07-17T10:48:16Z</time>
<desc>lat.=55.735153, lon.=26.229628, Alt.=134.349731m. Speed=8.748000m/h.</desc>
<speed>2.430000</speed>
</trkpt>
<trkpt lat="55.735142" lon="26.229601">
<ele>134.365356</ele>
<time>2010-07-17T10:48:17Z</time>
<desc>lat.=55.735142, lon.=26.229601, Alt.=134.365356m. Speed=9.108000m/h.</desc>
<speed>2.530000</speed>
</trkpt>
<trkpt lat="55.735126" lon="26.229567">
<ele>134.306763</ele>
<time>2010-07-17T10:48:18Z</time>
<desc>lat.=55.735126, lon.=26.229567, Alt.=134.306763m. Speed=9.360000m/h.</desc>
<speed>2.600000</speed>
</trkpt>
<trkpt lat="55.735111" lon="26.229538">
<ele>134.283325</ele>
<time>2010-07-17T10:48:19Z</time>
<desc>lat.=55.735111, lon.=26.229538, Alt.=134.283325m. Speed=9.108000m/h.</desc>
<speed>2.530000</speed>
</trkpt>
<trkpt lat="55.735100" lon="26.229511">
<ele>134.334106</ele>
<time>2010-07-17T10:48:20Z</time>
<desc>lat.=55.735100, lon.=26.229511, Alt.=134.334106m. Speed=9.684000m/h.</desc>
<speed>2.690000</speed>
</trkpt>
<trkpt lat="55.735081" lon="26.229483">
<ele>134.248169</ele>
<time>2010-07-17T10:48:21Z</time>
<desc>lat.=55.735081, lon.=26.229483, Alt.=134.248169m. Speed=9.432000m/h.</desc>
<speed>2.620000</speed>
</trkpt>
<trkpt lat="55.735065" lon="26.229450">
<ele>134.275513</ele>
<time>2010-07-17T10:48:22Z</time>
<desc>lat.=55.735065, lon.=26.229450, Alt.=134.275513m. Speed=9.216000m/h.</desc>
<speed>2.560000</speed>
</trkpt>
<trkpt lat="55.735050" lon="26.229420">
<ele>134.349731</ele>
<time>2010-07-17T10:48:23Z</time>
<desc>lat.=55.735050, lon.=26.229420, Alt.=134.349731m. Speed=9.108000m/h.</desc>
<speed>2.530000</speed>
</trkpt>
<trkpt lat="55.735035" lon="26.229389">
<ele>134.627075</ele>
<time>2010-07-17T10:48:24Z</time>
<desc>lat.=55.735035, lon.=26.229389, Alt.=134.627075m. Speed=8.604000m/h.</desc>
<speed>2.390000</speed>
</trkpt>
<trkpt lat="55.735020" lon="26.229366">
<ele>135.670044</ele>
<time>2010-07-17T10:48:25Z</time>
<desc>lat.=55.735020, lon.=26.229366, Alt.=135.670044m. Speed=7.956000m/h.</desc>
<speed>2.210000</speed>
</trkpt>
<trkpt lat="55.735008" lon="26.229351">
<ele>135.697388</ele>
<time>2010-07-17T10:48:26Z</time>
<desc>lat.=55.735008, lon.=26.229351, Alt.=135.697388m. Speed=7.416000m/h.</desc>
<speed>2.060000</speed>
</trkpt>
<trkpt lat="55.734993" lon="26.229332">
<ele>135.552856</ele>
<time>2010-07-17T10:48:27Z</time>
<desc>lat.=55.734993, lon.=26.229332, Alt.=135.552856m. Speed=7.416000m/h.</desc>
<speed>2.060000</speed>
</trkpt>
<trkpt lat="55.734982" lon="26.229305">
<ele>135.306763</ele>
<time>2010-07-17T10:48:28Z</time>
<desc>lat.=55.734982, lon.=26.229305, Alt.=135.306763m. Speed=8.316000m/h.</desc>
<speed>2.310000</speed>
</trkpt>
<trkpt lat="55.734966" lon="26.229282">
<ele>135.173950</ele>
<time>2010-07-17T10:48:29Z</time>
<desc>lat.=55.734966, lon.=26.229282, Alt.=135.173950m. Speed=9.360000m/h.</desc>
<speed>2.600000</speed>
</trkpt>
<trkpt lat="55.734947" lon="26.229259">
<ele>135.162231</ele>
<time>2010-07-17T10:48:30Z</time>
<desc>lat.=55.734947, lon.=26.229259, Alt.=135.162231m. Speed=10.620000m/h.</desc>
<speed>2.950000</speed>
</trkpt>
<trkpt lat="55.734924" lon="26.229244">
<ele>135.513794</ele>
<time>2010-07-17T10:48:31Z</time>
<desc>lat.=55.734924, lon.=26.229244, Alt.=135.513794m. Speed=11.196000m/h.</desc>
<speed>3.110000</speed>
</trkpt>
<trkpt lat="55.734898" lon="26.229231">
<ele>135.630981</ele>
<time>2010-07-17T10:48:32Z</time>
<desc>lat.=55.734898, lon.=26.229231, Alt.=135.630981m. Speed=11.196000m/h.</desc>
<speed>3.110000</speed>
</trkpt>
<trkpt lat="55.734871" lon="26.229218">
<ele>135.630981</ele>
<time>2010-07-17T10:48:33Z</time>
<desc>lat.=55.734871, lon.=26.229218, Alt.=135.630981m. Speed=10.512000m/h.</desc>
<speed>2.920000</speed>
</trkpt>
<trkpt lat="55.734848" lon="26.229210">
<ele>135.412231</ele>
<time>2010-07-17T10:48:34Z</time>
<desc>lat.=55.734848, lon.=26.229210, Alt.=135.412231m. Speed=11.628000m/h.</desc>
<speed>3.230000</speed>
</trkpt>
<trkpt lat="55.734818" lon="26.229198">
<ele>135.545044</ele>
<time>2010-07-17T10:48:35Z</time>
<desc>lat.=55.734818, lon.=26.229198, Alt.=135.545044m. Speed=11.772000m/h.</desc>
<speed>3.270000</speed>
</trkpt>
<trkpt lat="55.734791" lon="26.229181">
<ele>135.748169</ele>
<time>2010-07-17T10:48:36Z</time>
<desc>lat.=55.734791, lon.=26.229181, Alt.=135.748169m. Speed=12.276000m/h.</desc>
<speed>3.410000</speed>
</trkpt>
<trkpt lat="55.734764" lon="26.229160">
<ele>136.091919</ele>
<time>2010-07-17T10:48:37Z</time>
<desc>lat.=55.734764, lon.=26.229160, Alt.=136.091919m. Speed=11.916000m/h.</desc>
<speed>3.310000</speed>
</trkpt>
<trkpt lat="55.734734" lon="26.229156">
<ele>136.267700</ele>
<time>2010-07-17T10:48:38Z</time>
<desc>lat.=55.734734, lon.=26.229156, Alt.=136.267700m. Speed=11.160000m/h.</desc>
<speed>3.100000</speed>
</trkpt>
<trkpt lat="55.734707" lon="26.229151">
<ele>136.709106</ele>
<time>2010-07-17T10:48:39Z</time>
<desc>lat.=55.734707, lon.=26.229151, Alt.=136.709106m. Speed=9.360000m/h.</desc>
<speed>2.600000</speed>
</trkpt>
<trkpt lat="55.734688" lon="26.229137">
<ele>137.189575</ele>
<time>2010-07-17T10:48:40Z</time>
<desc>lat.=55.734688, lon.=26.229137, Alt.=137.189575m. Speed=8.460000m/h.</desc>
<speed>2.350000</speed>
</trkpt>
<trkpt lat="55.734669" lon="26.229128">
<ele>137.806763</ele>
<time>2010-07-17T10:48:41Z</time>
<desc>lat.=55.734669, lon.=26.229128, Alt.=137.806763m. Speed=8.568000m/h.</desc>
<speed>2.380000</speed>
</trkpt>
<trkpt lat="55.734650" lon="26.229128">
<ele>138.502075</ele>
<time>2010-07-17T10:48:42Z</time>
<desc>lat.=55.734650, lon.=26.229128, Alt.=138.502075m. Speed=8.892000m/h.</desc>
<speed>2.470000</speed>
</trkpt>
<trkpt lat="55.734631" lon="26.229126">
<ele>139.095825</ele>
<time>2010-07-17T10:48:43Z</time>
<desc>lat.=55.734631, lon.=26.229126, Alt.=139.095825m. Speed=8.640000m/h.</desc>
<speed>2.400000</speed>
</trkpt>
<trkpt lat="55.734608" lon="26.229124">
<ele>139.974731</ele>
<time>2010-07-17T10:48:44Z</time>
<desc>lat.=55.734608, lon.=26.229124, Alt.=139.974731m. Speed=8.928000m/h.</desc>
<speed>2.480000</speed>
</trkpt>
<trkpt lat="55.734589" lon="26.229132">
<ele>140.228638</ele>
<time>2010-07-17T10:48:45Z</time>
<desc>lat.=55.734589, lon.=26.229132, Alt.=140.228638m. Speed=7.740000m/h.</desc>
<speed>2.150000</speed>
</trkpt>
<trkpt lat="55.734566" lon="26.229139">
<ele>140.408325</ele>
<time>2010-07-17T10:48:46Z</time>
<desc>lat.=55.734566, lon.=26.229139, Alt.=140.408325m. Speed=9.144000m/h.</desc>
<speed>2.540000</speed>
</trkpt>
<trkpt lat="55.734539" lon="26.229141">
<ele>140.177856</ele>
<time>2010-07-17T10:48:47Z</time>
<desc>lat.=55.734539, lon.=26.229141, Alt.=140.177856m. Speed=9.720000m/h.</desc>
<speed>2.700000</speed>
</trkpt>
<trkpt lat="55.734516" lon="26.229151">
<ele>140.283325</ele>
<time>2010-07-17T10:48:48Z</time>
<desc>lat.=55.734516, lon.=26.229151, Alt.=140.283325m. Speed=10.044000m/h.</desc>
<speed>2.790000</speed>
</trkpt>
<trkpt lat="55.734493" lon="26.229168">
<ele>140.779419</ele>
<time>2010-07-17T10:48:49Z</time>
<desc>lat.=55.734493, lon.=26.229168, Alt.=140.779419m. Speed=9.900000m/h.</desc>
<speed>2.750000</speed>
</trkpt>
<trkpt lat="55.734474" lon="26.229189">
<ele>141.291138</ele>
<time>2010-07-17T10:48:50Z</time>
<desc>lat.=55.734474, lon.=26.229189, Alt.=141.291138m. Speed=8.064000m/h.</desc>
<speed>2.240000</speed>
</trkpt>
<trkpt lat="55.734451" lon="26.229208">
<ele>141.673950</ele>
<time>2010-07-17T10:48:51Z</time>
<desc>lat.=55.734451, lon.=26.229208, Alt.=141.673950m. Speed=9.396000m/h.</desc>
<speed>2.610000</speed>
</trkpt>
<trkpt lat="55.734428" lon="26.229219">
<ele>142.435669</ele>
<time>2010-07-17T10:48:52Z</time>
<desc>lat.=55.734428, lon.=26.229219, Alt.=142.435669m. Speed=10.080000m/h.</desc>
<speed>2.800000</speed>
</trkpt>
<trkpt lat="55.734406" lon="26.229229">
<ele>142.744263</ele>
<time>2010-07-17T10:48:53Z</time>
<desc>lat.=55.734406, lon.=26.229229, Alt.=142.744263m. Speed=10.620000m/h.</desc>
<speed>2.950000</speed>
</trkpt>
<trkpt lat="55.734375" lon="26.229248">
<ele>142.720825</ele>
<time>2010-07-17T10:48:54Z</time>
<desc>lat.=55.734375, lon.=26.229248, Alt.=142.720825m. Speed=11.196000m/h.</desc>
<speed>3.110000</speed>
</trkpt>
<trkpt lat="55.734348" lon="26.229261">
<ele>143.236450</ele>
<time>2010-07-17T10:48:55Z</time>
<desc>lat.=55.734348, lon.=26.229261, Alt.=143.236450m. Speed=11.664000m/h.</desc>
<speed>3.240000</speed>
</trkpt>
<trkpt lat="55.734322" lon="26.229279">
<ele>143.568481</ele>
<time>2010-07-17T10:48:56Z</time>
<desc>lat.=55.734322, lon.=26.229279, Alt.=143.568481m. Speed=11.304000m/h.</desc>
<speed>3.140000</speed>
</trkpt>
<trkpt lat="55.734299" lon="26.229294">
<ele>143.568481</ele>
<time>2010-07-17T10:48:57Z</time>
<desc>lat.=55.734299, lon.=26.229294, Alt.=143.568481m. Speed=7.956000m/h.</desc>
<speed>2.210000</speed>
</trkpt>
<trkpt lat="55.734280" lon="26.229311">
<ele>143.791138</ele>
<time>2010-07-17T10:48:58Z</time>
<desc>lat.=55.734280, lon.=26.229311, Alt.=143.791138m. Speed=9.684000m/h.</desc>
<speed>2.690000</speed>
</trkpt>
<trkpt lat="55.734257" lon="26.229324">
<ele>144.181763</ele>
<time>2010-07-17T10:48:59Z</time>
<desc>lat.=55.734257, lon.=26.229324, Alt.=144.181763m. Speed=7.956000m/h.</desc>
<speed>2.210000</speed>
</trkpt>
<trkpt lat="55.734234" lon="26.229338">
<ele>144.080200</ele>
<time>2010-07-17T10:49:00Z</time>
<desc>lat.=55.734234, lon.=26.229338, Alt.=144.080200m. Speed=7.272000m/h.</desc>
<speed>2.020000</speed>
</trkpt>
<trkpt lat="55.734200" lon="26.229345">
<ele>143.959106</ele>
<time>2010-07-17T10:49:01Z</time>
<desc>lat.=55.734200, lon.=26.229345, Alt.=143.959106m. Speed=10.116000m/h.</desc>
<speed>2.810000</speed>
</trkpt>
<trkpt lat="55.734177" lon="26.229347">
<ele>144.443481</ele>
<time>2010-07-17T10:49:02Z</time>
<desc>lat.=55.734177, lon.=26.229347, Alt.=144.443481m. Speed=8.964000m/h.</desc>
<speed>2.490000</speed>
</trkpt>
<trkpt lat="55.734154" lon="26.229349">
<ele>144.447388</ele>
<time>2010-07-17T10:49:03Z</time>
<desc>lat.=55.734154, lon.=26.229349, Alt.=144.447388m. Speed=9.180000m/h.</desc>
<speed>2.550000</speed>
</trkpt>
<trkpt lat="55.734131" lon="26.229353">
<ele>144.248169</ele>
<time>2010-07-17T10:49:04Z</time>
<desc>lat.=55.734131, lon.=26.229353, Alt.=144.248169m. Speed=8.712000m/h.</desc>
<speed>2.420000</speed>
</trkpt>
<trkpt lat="55.734112" lon="26.229359">
<ele>144.533325</ele>
<time>2010-07-17T10:49:05Z</time>
<desc>lat.=55.734112, lon.=26.229359, Alt.=144.533325m. Speed=8.964000m/h.</desc>
<speed>2.490000</speed>
</trkpt>
<trkpt lat="55.734093" lon="26.229370">
<ele>144.556763</ele>
<time>2010-07-17T10:49:06Z</time>
<desc>lat.=55.734093, lon.=26.229370, Alt.=144.556763m. Speed=8.316000m/h.</desc>
<speed>2.310000</speed>
</trkpt>
<trkpt lat="55.734074" lon="26.229378">
<ele>144.548950</ele>
<time>2010-07-17T10:49:07Z</time>
<desc>lat.=55.734074, lon.=26.229378, Alt.=144.548950m. Speed=8.136000m/h.</desc>
<speed>2.260000</speed>
</trkpt>
<trkpt lat="55.734051" lon="26.229385">
<ele>144.642700</ele>
<time>2010-07-17T10:49:08Z</time>
<desc>lat.=55.734051, lon.=26.229385, Alt.=144.642700m. Speed=8.280000m/h.</desc>
<speed>2.300000</speed>
</trkpt>
<trkpt lat="55.734028" lon="26.229393">
<ele>144.580200</ele>
<time>2010-07-17T10:49:09Z</time>
<desc>lat.=55.734028, lon.=26.229393, Alt.=144.580200m. Speed=8.748000m/h.</desc>
<speed>2.430000</speed>
</trkpt>
<trkpt lat="55.734009" lon="26.229395">
<ele>144.623169</ele>
<time>2010-07-17T10:49:10Z</time>
<desc>lat.=55.734009, lon.=26.229395, Alt.=144.623169m. Speed=10.044000m/h.</desc>
<speed>2.790000</speed>
</trkpt>
<trkpt lat="55.733982" lon="26.229397">
<ele>144.287231</ele>
<time>2010-07-17T10:49:11Z</time>
<desc>lat.=55.733982, lon.=26.229397, Alt.=144.287231m. Speed=11.736000m/h.</desc>
<speed>3.260000</speed>
</trkpt>
<trkpt lat="55.733955" lon="26.229399">
<ele>144.623169</ele>
<time>2010-07-17T10:49:12Z</time>
<desc>lat.=55.733955, lon.=26.229399, Alt.=144.623169m. Speed=12.384000m/h.</desc>
<speed>3.440000</speed>
</trkpt>
<trkpt lat="55.733925" lon="26.229414">
<ele>144.713013</ele>
<time>2010-07-17T10:49:13Z</time>
<desc>lat.=55.733925, lon.=26.229414, Alt.=144.713013m. Speed=14.040000m/h.</desc>
<speed>3.900000</speed>
</trkpt>
<trkpt lat="55.733883" lon="26.229435">
<ele>143.798950</ele>
<time>2010-07-17T10:49:14Z</time>
<desc>lat.=55.733883, lon.=26.229435, Alt.=143.798950m. Speed=16.775999m/h.</desc>
<speed>4.660000</speed>
</trkpt>
<trkpt lat="55.733841" lon="26.229462">
<ele>143.619263</ele>
<time>2010-07-17T10:49:15Z</time>
<desc>lat.=55.733841, lon.=26.229462, Alt.=143.619263m. Speed=18.648001m/h.</desc>
<speed>5.180000</speed>
</trkpt>
<trkpt lat="55.733799" lon="26.229488">
<ele>143.443481</ele>
<time>2010-07-17T10:49:16Z</time>
<desc>lat.=55.733799, lon.=26.229488, Alt.=143.443481m. Speed=18.216000m/h.</desc>
<speed>5.060000</speed>
</trkpt>
<trkpt lat="55.733749" lon="26.229506">
<ele>143.259888</ele>
<time>2010-07-17T10:49:17Z</time>
<desc>lat.=55.733749, lon.=26.229506, Alt.=143.259888m. Speed=18.360001m/h.</desc>
<speed>5.100000</speed>
</trkpt>
<trkpt lat="55.733707" lon="26.229517">
<ele>143.177856</ele>
<time>2010-07-17T10:49:18Z</time>
<desc>lat.=55.733707, lon.=26.229517, Alt.=143.177856m. Speed=17.351999m/h.</desc>
<speed>4.820000</speed>
</trkpt>
<trkpt lat="55.733669" lon="26.229527">
<ele>142.998169</ele>
<time>2010-07-17T10:49:19Z</time>
<desc>lat.=55.733669, lon.=26.229527, Alt.=142.998169m. Speed=15.732000m/h.</desc>
<speed>4.370000</speed>
</trkpt>
<trkpt lat="55.733627" lon="26.229532">
<ele>142.759888</ele>
<time>2010-07-17T10:49:20Z</time>
<desc>lat.=55.733627, lon.=26.229532, Alt.=142.759888m. Speed=14.580000m/h.</desc>
<speed>4.050000</speed>
</trkpt>
<trkpt lat="55.733597" lon="26.229538">
<ele>142.595825</ele>
<time>2010-07-17T10:49:21Z</time>
<desc>lat.=55.733597, lon.=26.229538, Alt.=142.595825m. Speed=10.368000m/h.</desc>
<speed>2.880000</speed>
</trkpt>
<trkpt lat="55.733578" lon="26.229544">
<ele>143.072388</ele>
<time>2010-07-17T10:49:22Z</time>
<desc>lat.=55.733578, lon.=26.229544, Alt.=143.072388m. Speed=7.632000m/h.</desc>
<speed>2.120000</speed>
</trkpt>
<trkpt lat="55.733559" lon="26.229549">
<ele>143.314575</ele>
<time>2010-07-17T10:49:23Z</time>
<desc>lat.=55.733559, lon.=26.229549, Alt.=143.314575m. Speed=5.976000m/h.</desc>
<speed>1.660000</speed>
</trkpt>
<trkpt lat="55.733551" lon="26.229553">
<ele>143.310669</ele>
<time>2010-07-17T10:49:24Z</time>
<desc>lat.=55.733551, lon.=26.229553, Alt.=143.310669m. Speed=3.708000m/h.</desc>
<speed>1.030000</speed>
</trkpt>
<trkpt lat="55.733543" lon="26.229557">
<ele>143.345825</ele>
<time>2010-07-17T10:49:25Z</time>
<desc>lat.=55.733543, lon.=26.229557, Alt.=143.345825m. Speed=0.900000m/h.</desc>
<speed>0.250000</speed>
</trkpt>
<trkpt lat="55.733543" lon="26.229559">
<ele>143.423950</ele>
<time>2010-07-17T10:49:26Z</time>
<desc>lat.=55.733543, lon.=26.229559, Alt.=143.423950m. Speed=0.108000m/h.</desc>
<speed>0.030000</speed>
</trkpt>
<trkpt lat="55.733540" lon="26.229561">
<ele>143.189575</ele>
<time>2010-07-17T10:49:27Z</time>
<desc>lat.=55.733540, lon.=26.229561, Alt.=143.189575m. Speed=1.296000m/h.</desc>
<speed>0.360000</speed>
</trkpt>
<trkpt lat="55.733540" lon="26.229563">
<ele>143.248169</ele>
<time>2010-07-17T10:49:28Z</time>
<desc>lat.=55.733540, lon.=26.229563, Alt.=143.248169m. Speed=3.492000m/h.</desc>
<speed>0.970000</speed>
</trkpt>
<trkpt lat="55.733528" lon="26.229565">
<ele>143.287231</ele>
<time>2010-07-17T10:49:29Z</time>
<desc>lat.=55.733528, lon.=26.229565, Alt.=143.287231m. Speed=5.148000m/h.</desc>
<speed>1.430000</speed>
</trkpt>
<trkpt lat="55.733517" lon="26.229570">
<ele>143.240356</ele>
<time>2010-07-17T10:49:30Z</time>
<desc>lat.=55.733517, lon.=26.229570, Alt.=143.240356m. Speed=7.236000m/h.</desc>
<speed>2.010000</speed>
</trkpt>
<trkpt lat="55.733494" lon="26.229584">
<ele>143.064575</ele>
<time>2010-07-17T10:49:31Z</time>
<desc>lat.=55.733494, lon.=26.229584, Alt.=143.064575m. Speed=7.668000m/h.</desc>
<speed>2.130000</speed>
</trkpt>
<trkpt lat="55.733467" lon="26.229591">
<ele>142.892700</ele>
<time>2010-07-17T10:49:32Z</time>
<desc>lat.=55.733467, lon.=26.229591, Alt.=142.892700m. Speed=11.844000m/h.</desc>
<speed>3.290000</speed>
</trkpt>
<trkpt lat="55.733433" lon="26.229597">
<ele>142.791138</ele>
<time>2010-07-17T10:49:33Z</time>
<desc>lat.=55.733433, lon.=26.229597, Alt.=142.791138m. Speed=12.924000m/h.</desc>
<speed>3.590000</speed>
</trkpt>
<trkpt lat="55.733395" lon="26.229599">
<ele>142.013794</ele>
<time>2010-07-17T10:49:34Z</time>
<desc>lat.=55.733395, lon.=26.229599, Alt.=142.013794m. Speed=15.444000m/h.</desc>
<speed>4.290000</speed>
</trkpt>
<trkpt lat="55.733356" lon="26.229605">
<ele>141.724731</ele>
<time>2010-07-17T10:49:35Z</time>
<desc>lat.=55.733356, lon.=26.229605, Alt.=141.724731m. Speed=17.676001m/h.</desc>
<speed>4.910000</speed>
</trkpt>
<trkpt lat="55.733315" lon="26.229618">
<ele>141.295044</ele>
<time>2010-07-17T10:49:36Z</time>
<desc>lat.=55.733315, lon.=26.229618, Alt.=141.295044m. Speed=19.656000m/h.</desc>
<speed>5.460000</speed>
</trkpt>
<trkpt lat="55.733261" lon="26.229628">
<ele>140.931763</ele>
<time>2010-07-17T10:49:37Z</time>
<desc>lat.=55.733261, lon.=26.229628, Alt.=140.931763m. Speed=21.204000m/h.</desc>
<speed>5.890000</speed>
</trkpt>
<trkpt lat="55.733212" lon="26.229631">
<ele>140.845825</ele>
<time>2010-07-17T10:49:38Z</time>
<desc>lat.=55.733212, lon.=26.229631, Alt.=140.845825m. Speed=22.139999m/h.</desc>
<speed>6.150000</speed>
</trkpt>
<trkpt lat="55.733154" lon="26.229635">
<ele>140.338013</ele>
<time>2010-07-17T10:49:39Z</time>
<desc>lat.=55.733154, lon.=26.229635, Alt.=140.338013m. Speed=23.112000m/h.</desc>
<speed>6.420000</speed>
</trkpt>
<trkpt lat="55.733093" lon="26.229637">
<ele>139.966919</ele>
<time>2010-07-17T10:49:40Z</time>
<desc>lat.=55.733093, lon.=26.229637, Alt.=139.966919m. Speed=23.219999m/h.</desc>
<speed>6.450000</speed>
</trkpt>
<trkpt lat="55.733036" lon="26.229637">
<ele>139.974731</ele>
<time>2010-07-17T10:49:41Z</time>
<desc>lat.=55.733036, lon.=26.229637, Alt.=139.974731m. Speed=23.436001m/h.</desc>
<speed>6.510000</speed>
</trkpt>
<trkpt lat="55.732975" lon="26.229637">
<ele>139.822388</ele>
<time>2010-07-17T10:49:42Z</time>
<desc>lat.=55.732975, lon.=26.229637, Alt.=139.822388m. Speed=23.076000m/h.</desc>
<speed>6.410000</speed>
</trkpt>
<trkpt lat="55.732918" lon="26.229635">
<ele>139.693481</ele>
<time>2010-07-17T10:49:43Z</time>
<desc>lat.=55.732918, lon.=26.229635, Alt.=139.693481m. Speed=21.600000m/h.</desc>
<speed>6.000000</speed>
</trkpt>
<trkpt lat="55.732864" lon="26.229633">
<ele>139.650513</ele>
<time>2010-07-17T10:49:44Z</time>
<desc>lat.=55.732864, lon.=26.229633, Alt.=139.650513m. Speed=21.492001m/h.</desc>
<speed>5.970000</speed>
</trkpt>
<trkpt lat="55.732815" lon="26.229635">
<ele>139.607544</ele>
<time>2010-07-17T10:49:45Z</time>
<desc>lat.=55.732815, lon.=26.229635, Alt.=139.607544m. Speed=19.511999m/h.</desc>
<speed>5.420000</speed>
</trkpt>
<trkpt lat="55.732765" lon="26.229635">
<ele>139.599731</ele>
<time>2010-07-17T10:49:46Z</time>
<desc>lat.=55.732765, lon.=26.229635, Alt.=139.599731m. Speed=18.827999m/h.</desc>
<speed>5.230000</speed>
</trkpt>
<trkpt lat="55.732723" lon="26.229643">
<ele>139.599731</ele>
<time>2010-07-17T10:49:47Z</time>
<desc>lat.=55.732723, lon.=26.229643, Alt.=139.599731m. Speed=14.796000m/h.</desc>
<speed>4.110000</speed>
</trkpt>
<trkpt lat="55.732708" lon="26.229666">
<ele>139.767700</ele>
<time>2010-07-17T10:49:48Z</time>
<desc>lat.=55.732708, lon.=26.229666, Alt.=139.767700m. Speed=7.344000m/h.</desc>
<speed>2.040000</speed>
</trkpt>
<trkpt lat="55.732677" lon="26.229664">
<ele>139.904419</ele>
<time>2010-07-17T10:49:49Z</time>
<desc>lat.=55.732677, lon.=26.229664, Alt.=139.904419m. Speed=12.204000m/h.</desc>
<speed>3.390000</speed>
</trkpt>
<trkpt lat="55.732647" lon="26.229670">
<ele>140.021606</ele>
<time>2010-07-17T10:49:50Z</time>
<desc>lat.=55.732647, lon.=26.229670, Alt.=140.021606m. Speed=11.700000m/h.</desc>
<speed>3.250000</speed>
</trkpt>
<trkpt lat="55.732613" lon="26.229671">
<ele>139.861450</ele>
<time>2010-07-17T10:49:51Z</time>
<desc>lat.=55.732613, lon.=26.229671, Alt.=139.861450m. Speed=13.680000m/h.</desc>
<speed>3.800000</speed>
</trkpt>
<trkpt lat="55.732571" lon="26.229670">
<ele>139.755981</ele>
<time>2010-07-17T10:49:52Z</time>
<desc>lat.=55.732571, lon.=26.229670, Alt.=139.755981m. Speed=15.768000m/h.</desc>
<speed>4.380000</speed>
</trkpt>
<trkpt lat="55.732540" lon="26.229677">
<ele>139.845825</ele>
<time>2010-07-17T10:49:53Z</time>
<desc>lat.=55.732540, lon.=26.229677, Alt.=139.845825m. Speed=9.900000m/h.</desc>
<speed>2.750000</speed>
</trkpt>
<trkpt lat="55.732506" lon="26.229691">
<ele>139.611450</ele>
<time>2010-07-17T10:49:54Z</time>
<desc>lat.=55.732506, lon.=26.229691, Alt.=139.611450m. Speed=9.504000m/h.</desc>
<speed>2.640000</speed>
</trkpt>
<trkpt lat="55.732483" lon="26.229691">
<ele>139.435669</ele>
<time>2010-07-17T10:49:55Z</time>
<desc>lat.=55.732483, lon.=26.229691, Alt.=139.435669m. Speed=7.848000m/h.</desc>
<speed>2.180000</speed>
</trkpt>
<trkpt lat="55.732460" lon="26.229702">
<ele>139.322388</ele>
<time>2010-07-17T10:49:56Z</time>
<desc>lat.=55.732460, lon.=26.229702, Alt.=139.322388m. Speed=7.380000m/h.</desc>
<speed>2.050000</speed>
</trkpt>
<trkpt lat="55.732437" lon="26.229710">
<ele>139.291138</ele>
<time>2010-07-17T10:49:57Z</time>
<desc>lat.=55.732437, lon.=26.229710, Alt.=139.291138m. Speed=9.504000m/h.</desc>
<speed>2.640000</speed>
</trkpt>
<trkpt lat="55.732418" lon="26.229713">
<ele>139.181763</ele>
<time>2010-07-17T10:49:58Z</time>
<desc>lat.=55.732418, lon.=26.229713, Alt.=139.181763m. Speed=7.848000m/h.</desc>
<speed>2.180000</speed>
</trkpt>
<trkpt lat="55.732388" lon="26.229719">
<ele>139.009888</ele>
<time>2010-07-17T10:49:59Z</time>
<desc>lat.=55.732388, lon.=26.229719, Alt.=139.009888m. Speed=12.060000m/h.</desc>
<speed>3.350000</speed>
</trkpt>
<trkpt lat="55.732361" lon="26.229740">
<ele>138.798950</ele>
<time>2010-07-17T10:50:00Z</time>
<desc>lat.=55.732361, lon.=26.229740, Alt.=138.798950m. Speed=9.612000m/h.</desc>
<speed>2.670000</speed>
</trkpt>
<trkpt lat="55.732342" lon="26.229755">
<ele>139.545044</ele>
<time>2010-07-17T10:50:01Z</time>
<desc>lat.=55.732342, lon.=26.229755, Alt.=139.545044m. Speed=8.676000m/h.</desc>
<speed>2.410000</speed>
</trkpt>
<trkpt lat="55.732323" lon="26.229776">
<ele>139.400513</ele>
<time>2010-07-17T10:50:02Z</time>
<desc>lat.=55.732323, lon.=26.229776, Alt.=139.400513m. Speed=10.116000m/h.</desc>
<speed>2.810000</speed>
</trkpt>
<trkpt lat="55.732304" lon="26.229795">
<ele>139.314575</ele>
<time>2010-07-17T10:50:03Z</time>
<desc>lat.=55.732304, lon.=26.229795, Alt.=139.314575m. Speed=7.272000m/h.</desc>
<speed>2.020000</speed>
</trkpt>
<trkpt lat="55.732288" lon="26.229818">
<ele>139.252075</ele>
<time>2010-07-17T10:50:04Z</time>
<desc>lat.=55.732288, lon.=26.229818, Alt.=139.252075m. Speed=8.028000m/h.</desc>
<speed>2.230000</speed>
</trkpt>
<trkpt lat="55.732273" lon="26.229847">
<ele>139.224731</ele>
<time>2010-07-17T10:50:05Z</time>
<desc>lat.=55.732273, lon.=26.229847, Alt.=139.224731m. Speed=9.252000m/h.</desc>
<speed>2.570000</speed>
</trkpt>
<trkpt lat="55.732258" lon="26.229891">
<ele>139.439575</ele>
<time>2010-07-17T10:50:06Z</time>
<desc>lat.=55.732258, lon.=26.229891, Alt.=139.439575m. Speed=12.276000m/h.</desc>
<speed>3.410000</speed>
</trkpt>
<trkpt lat="55.732227" lon="26.229931">
<ele>139.310669</ele>
<time>2010-07-17T10:50:07Z</time>
<desc>lat.=55.732227, lon.=26.229931, Alt.=139.310669m. Speed=13.320000m/h.</desc>
<speed>3.700000</speed>
</trkpt>
<trkpt lat="55.732208" lon="26.229971">
<ele>139.310669</ele>
<time>2010-07-17T10:50:08Z</time>
<desc>lat.=55.732208, lon.=26.229971, Alt.=139.310669m. Speed=12.060000m/h.</desc>
<speed>3.350000</speed>
</trkpt>
<trkpt lat="55.732185" lon="26.230009">
<ele>139.341919</ele>
<time>2010-07-17T10:50:09Z</time>
<desc>lat.=55.732185, lon.=26.230009, Alt.=139.341919m. Speed=10.692000m/h.</desc>
<speed>2.970000</speed>
</trkpt>
<trkpt lat="55.732151" lon="26.230040">
<ele>139.302856</ele>
<time>2010-07-17T10:50:10Z</time>
<desc>lat.=55.732151, lon.=26.230040, Alt.=139.302856m. Speed=9.324000m/h.</desc>
<speed>2.590000</speed>
</trkpt>
<trkpt lat="55.732128" lon="26.230064">
<ele>139.064575</ele>
<time>2010-07-17T10:50:11Z</time>
<desc>lat.=55.732128, lon.=26.230064, Alt.=139.064575m. Speed=7.776000m/h.</desc>
<speed>2.160000</speed>
</trkpt>
<trkpt lat="55.732105" lon="26.230091">
<ele>138.740356</ele>
<time>2010-07-17T10:50:12Z</time>
<desc>lat.=55.732105, lon.=26.230091, Alt.=138.740356m. Speed=6.120000m/h.</desc>
<speed>1.700000</speed>
</trkpt>
<trkpt lat="55.732090" lon="26.230139">
<ele>138.740356</ele>
<time>2010-07-17T10:50:13Z</time>
<desc>lat.=55.732090, lon.=26.230139, Alt.=138.740356m. Speed=6.156000m/h.</desc>
<speed>1.710000</speed>
</trkpt>
<trkpt lat="55.732067" lon="26.230158">
<ele>138.568481</ele>
<time>2010-07-17T10:50:14Z</time>
<desc>lat.=55.732067, lon.=26.230158, Alt.=138.568481m. Speed=4.464000m/h.</desc>
<speed>1.240000</speed>
</trkpt>
<trkpt lat="55.732059" lon="26.230177">
<ele>138.713013</ele>
<time>2010-07-17T10:50:15Z</time>
<desc>lat.=55.732059, lon.=26.230177, Alt.=138.713013m. Speed=3.492000m/h.</desc>
<speed>0.970000</speed>
</trkpt>
<trkpt lat="55.732040" lon="26.230188">
<ele>138.443481</ele>
<time>2010-07-17T10:50:16Z</time>
<desc>lat.=55.732040, lon.=26.230188, Alt.=138.443481m. Speed=2.592000m/h.</desc>
<speed>0.720000</speed>
</trkpt>
<trkpt lat="55.732029" lon="26.230188">
<ele>139.150513</ele>
<time>2010-07-17T10:50:17Z</time>
<desc>lat.=55.732029, lon.=26.230188, Alt.=139.150513m. Speed=1.548000m/h.</desc>
<speed>0.430000</speed>
</trkpt>
<trkpt lat="55.732014" lon="26.230196">
<ele>139.630981</ele>
<time>2010-07-17T10:50:18Z</time>
<desc>lat.=55.732014, lon.=26.230196, Alt.=139.630981m. Speed=2.592000m/h.</desc>
<speed>0.720000</speed>
</trkpt>
<trkpt lat="55.732010" lon="26.230204">
<ele>139.642700</ele>
<time>2010-07-17T10:50:19Z</time>
<desc>lat.=55.732010, lon.=26.230204, Alt.=139.642700m. Speed=2.988000m/h.</desc>
<speed>0.830000</speed>
</trkpt>
<trkpt lat="55.732002" lon="26.230211">
<ele>139.662231</ele>
<time>2010-07-17T10:50:20Z</time>
<desc>lat.=55.732002, lon.=26.230211, Alt.=139.662231m. Speed=3.600000m/h.</desc>
<speed>1.000000</speed>
</trkpt>
<trkpt lat="55.731968" lon="26.230217">
<ele>139.416138</ele>
<time>2010-07-17T10:50:21Z</time>
<desc>lat.=55.731968, lon.=26.230217, Alt.=139.416138m. Speed=3.708000m/h.</desc>
<speed>1.030000</speed>
</trkpt>
<trkpt lat="55.731937" lon="26.230221">
<ele>139.420044</ele>
<time>2010-07-17T10:50:22Z</time>
<desc>lat.=55.731937, lon.=26.230221, Alt.=139.420044m. Speed=3.816000m/h.</desc>
<speed>1.060000</speed>
</trkpt>
<trkpt lat="55.731876" lon="26.230211">
<ele>139.478638</ele>
<time>2010-07-17T10:50:23Z</time>
<desc>lat.=55.731876, lon.=26.230211, Alt.=139.478638m. Speed=4.644000m/h.</desc>
<speed>1.290000</speed>
</trkpt>
<trkpt lat="55.731846" lon="26.230196">
<ele>139.677856</ele>
<time>2010-07-17T10:50:24Z</time>
<desc>lat.=55.731846, lon.=26.230196, Alt.=139.677856m. Speed=4.860000m/h.</desc>
<speed>1.350000</speed>
</trkpt>
<trkpt lat="55.731819" lon="26.230186">
<ele>139.670044</ele>
<time>2010-07-17T10:50:25Z</time>
<desc>lat.=55.731819, lon.=26.230186, Alt.=139.670044m. Speed=5.112000m/h.</desc>
<speed>1.420000</speed>
</trkpt>
<trkpt lat="55.731777" lon="26.230183">
<ele>139.623169</ele>
<time>2010-07-17T10:50:26Z</time>
<desc>lat.=55.731777, lon.=26.230183, Alt.=139.623169m. Speed=6.012000m/h.</desc>
<speed>1.670000</speed>
</trkpt>
<trkpt lat="55.731728" lon="26.230179">
<ele>139.529419</ele>
<time>2010-07-17T10:50:27Z</time>
<desc>lat.=55.731728, lon.=26.230179, Alt.=139.529419m. Speed=6.588000m/h.</desc>
<speed>1.830000</speed>
</trkpt>
<trkpt lat="55.731709" lon="26.230177">
<ele>139.611450</ele>
<time>2010-07-17T10:50:28Z</time>
<desc>lat.=55.731709, lon.=26.230177, Alt.=139.611450m. Speed=5.760000m/h.</desc>
<speed>1.600000</speed>
</trkpt>
<trkpt lat="55.731682" lon="26.230181">
<ele>139.486450</ele>
<time>2010-07-17T10:50:29Z</time>
<desc>lat.=55.731682, lon.=26.230181, Alt.=139.486450m. Speed=5.184000m/h.</desc>
<speed>1.440000</speed>
</trkpt>
<trkpt lat="55.731659" lon="26.230177">
<ele>139.498169</ele>
<time>2010-07-17T10:50:30Z</time>
<desc>lat.=55.731659, lon.=26.230177, Alt.=139.498169m. Speed=4.932000m/h.</desc>
<speed>1.370000</speed>
</trkpt>
<trkpt lat="55.731640" lon="26.230200">
<ele>139.341919</ele>
<time>2010-07-17T10:50:31Z</time>
<desc>lat.=55.731640, lon.=26.230200, Alt.=139.341919m. Speed=3.348000m/h.</desc>
<speed>0.930000</speed>
</trkpt>
<trkpt lat="55.731632" lon="26.230196">
<ele>139.466919</ele>
<time>2010-07-17T10:50:32Z</time>
<desc>lat.=55.731632, lon.=26.230196, Alt.=139.466919m. Speed=5.148000m/h.</desc>
<speed>1.430000</speed>
</trkpt>
<trkpt lat="55.731621" lon="26.230209">
<ele>139.224731</ele>
<time>2010-07-17T10:50:33Z</time>
<desc>lat.=55.731621, lon.=26.230209, Alt.=139.224731m. Speed=3.600000m/h.</desc>
<speed>1.000000</speed>
</trkpt>
<trkpt lat="55.731613" lon="26.230221">
<ele>138.923950</ele>
<time>2010-07-17T10:50:34Z</time>
<desc>lat.=55.731613, lon.=26.230221, Alt.=138.923950m. Speed=5.076000m/h.</desc>
<speed>1.410000</speed>
</trkpt>
<trkpt lat="55.731613" lon="26.230244">
<ele>139.146606</ele>
<time>2010-07-17T10:50:35Z</time>
<desc>lat.=55.731613, lon.=26.230244, Alt.=139.146606m. Speed=5.724000m/h.</desc>
<speed>1.590000</speed>
</trkpt>
<trkpt lat="55.731598" lon="26.230234">
<ele>139.158325</ele>
<time>2010-07-17T10:50:36Z</time>
<desc>lat.=55.731598, lon.=26.230234, Alt.=139.158325m. Speed=3.528000m/h.</desc>
<speed>0.980000</speed>
</trkpt>
<trkpt lat="55.731590" lon="26.230236">
<ele>139.232544</ele>
<time>2010-07-17T10:50:37Z</time>
<desc>lat.=55.731590, lon.=26.230236, Alt.=139.232544m. Speed=1.188000m/h.</desc>
<speed>0.330000</speed>
</trkpt>
<trkpt lat="55.731594" lon="26.230270">
<ele>139.431763</ele>
<time>2010-07-17T10:50:38Z</time>
<desc>lat.=55.731594, lon.=26.230270, Alt.=139.431763m. Speed=4.320000m/h.</desc>
<speed>1.200000</speed>
</trkpt>
<trkpt lat="55.731594" lon="26.230291">
<ele>139.619263</ele>
<time>2010-07-17T10:50:39Z</time>
<desc>lat.=55.731594, lon.=26.230291, Alt.=139.619263m. Speed=4.176000m/h.</desc>
<speed>1.160000</speed>
</trkpt>
<trkpt lat="55.731598" lon="26.230310">
<ele>139.517700</ele>
<time>2010-07-17T10:50:40Z</time>
<desc>lat.=55.731598, lon.=26.230310, Alt.=139.517700m. Speed=3.672000m/h.</desc>
<speed>1.020000</speed>
</trkpt>
<trkpt lat="55.731598" lon="26.230335">
<ele>139.380981</ele>
<time>2010-07-17T10:50:41Z</time>
<desc>lat.=55.731598, lon.=26.230335, Alt.=139.380981m. Speed=3.204000m/h.</desc>
<speed>0.890000</speed>
</trkpt>
<trkpt lat="55.731579" lon="26.230356">
<ele>138.084106</ele>
<time>2010-07-17T10:50:42Z</time>
<desc>lat.=55.731579, lon.=26.230356, Alt.=138.084106m. Speed=3.852000m/h.</desc>
<speed>1.070000</speed>
</trkpt>
<trkpt lat="55.731571" lon="26.230381">
<ele>137.861450</ele>
<time>2010-07-17T10:50:43Z</time>
<desc>lat.=55.731571, lon.=26.230381, Alt.=137.861450m. Speed=4.104000m/h.</desc>
<speed>1.140000</speed>
</trkpt>
<trkpt lat="55.731564" lon="26.230400">
<ele>137.459106</ele>
<time>2010-07-17T10:50:44Z</time>
<desc>lat.=55.731564, lon.=26.230400, Alt.=137.459106m. Speed=4.752000m/h.</desc>
<speed>1.320000</speed>
</trkpt>
<trkpt lat="55.731560" lon="26.230423">
<ele>137.127075</ele>
<time>2010-07-17T10:50:45Z</time>
<desc>lat.=55.731560, lon.=26.230423, Alt.=137.127075m. Speed=4.788000m/h.</desc>
<speed>1.330000</speed>
</trkpt>
<trkpt lat="55.731556" lon="26.230452">
<ele>136.818481</ele>
<time>2010-07-17T10:50:46Z</time>
<desc>lat.=55.731556, lon.=26.230452, Alt.=136.818481m. Speed=4.140000m/h.</desc>
<speed>1.150000</speed>
</trkpt>
<trkpt lat="55.731564" lon="26.230478">
<ele>136.490356</ele>
<time>2010-07-17T10:50:47Z</time>
<desc>lat.=55.731564, lon.=26.230478, Alt.=136.490356m. Speed=4.896000m/h.</desc>
<speed>1.360000</speed>
</trkpt>
<trkpt lat="55.731564" lon="26.230494">
<ele>136.173950</ele>
<time>2010-07-17T10:50:48Z</time>
<desc>lat.=55.731564, lon.=26.230494, Alt.=136.173950m. Speed=2.124000m/h.</desc>
<speed>0.590000</speed>
</trkpt>
<trkpt lat="55.731571" lon="26.230503">
<ele>136.017700</ele>
<time>2010-07-17T10:50:49Z</time>
<desc>lat.=55.731571, lon.=26.230503, Alt.=136.017700m. Speed=2.556000m/h.</desc>
<speed>0.710000</speed>
</trkpt>
<trkpt lat="55.731571" lon="26.230518">
<ele>136.197388</ele>
<time>2010-07-17T10:50:50Z</time>
<desc>lat.=55.731571, lon.=26.230518, Alt.=136.197388m. Speed=3.276000m/h.</desc>
<speed>0.910000</speed>
</trkpt>
<trkpt lat="55.731575" lon="26.230499">
<ele>138.338013</ele>
<time>2010-07-17T10:50:51Z</time>
<desc>lat.=55.731575, lon.=26.230499, Alt.=138.338013m. Speed=3.240000m/h.</desc>
<speed>0.900000</speed>
</trkpt>
<trkpt lat="55.731579" lon="26.230495">
<ele>138.728638</ele>
<time>2010-07-17T10:50:52Z</time>
<desc>lat.=55.731579, lon.=26.230495, Alt.=138.728638m. Speed=4.284000m/h.</desc>
<speed>1.190000</speed>
</trkpt>
<trkpt lat="55.731583" lon="26.230484">
<ele>138.142700</ele>
<time>2010-07-17T10:50:53Z</time>
<desc>lat.=55.731583, lon.=26.230484, Alt.=138.142700m. Speed=3.636000m/h.</desc>
<speed>1.010000</speed>
</trkpt>
<trkpt lat="55.731586" lon="26.230448">
<ele>137.142700</ele>
<time>2010-07-17T10:50:54Z</time>
<desc>lat.=55.731586, lon.=26.230448, Alt.=137.142700m. Speed=5.112000m/h.</desc>
<speed>1.420000</speed>
</trkpt>
<trkpt lat="55.731594" lon="26.230434">
<ele>137.568481</ele>
<time>2010-07-17T10:50:55Z</time>
<desc>lat.=55.731594, lon.=26.230434, Alt.=137.568481m. Speed=2.628000m/h.</desc>
<speed>0.730000</speed>
</trkpt>
<trkpt lat="55.731594" lon="26.230431">
<ele>138.275513</ele>
<time>2010-07-17T10:50:56Z</time>
<desc>lat.=55.731594, lon.=26.230431, Alt.=138.275513m. Speed=5.292000m/h.</desc>
<speed>1.470000</speed>
</trkpt>
<trkpt lat="55.731586" lon="26.230421">
<ele>138.525513</ele>
<time>2010-07-17T10:50:57Z</time>
<desc>lat.=55.731586, lon.=26.230421, Alt.=138.525513m. Speed=4.572000m/h.</desc>
<speed>1.270000</speed>
</trkpt>
<trkpt lat="55.731579" lon="26.230410">
<ele>138.638794</ele>
<time>2010-07-17T10:50:58Z</time>
<desc>lat.=55.731579, lon.=26.230410, Alt.=138.638794m. Speed=4.320000m/h.</desc>
<speed>1.200000</speed>
</trkpt>
<trkpt lat="55.731575" lon="26.230391">
<ele>138.681763</ele>
<time>2010-07-17T10:50:59Z</time>
<desc>lat.=55.731575, lon.=26.230391, Alt.=138.681763m. Speed=4.320000m/h.</desc>
<speed>1.200000</speed>
</trkpt>
<trkpt lat="55.731571" lon="26.230375">
<ele>138.654419</ele>
<time>2010-07-17T10:51:00Z</time>
<desc>lat.=55.731571, lon.=26.230375, Alt.=138.654419m. Speed=1.620000m/h.</desc>
<speed>0.450000</speed>
</trkpt>
<trkpt lat="55.731571" lon="26.230366">
<ele>138.642700</ele>
<time>2010-07-17T10:51:01Z</time>
<desc>lat.=55.731571, lon.=26.230366, Alt.=138.642700m. Speed=2.160000m/h.</desc>
<speed>0.600000</speed>
</trkpt>
<trkpt lat="55.731556" lon="26.230349">
<ele>139.412231</ele>
<time>2010-07-17T10:51:02Z</time>
<desc>lat.=55.731556, lon.=26.230349, Alt.=139.412231m. Speed=4.932000m/h.</desc>
<speed>1.370000</speed>
</trkpt>
<trkpt lat="55.731544" lon="26.230343">
<ele>139.724731</ele>
<time>2010-07-17T10:51:03Z</time>
<desc>lat.=55.731544, lon.=26.230343, Alt.=139.724731m. Speed=3.924000m/h.</desc>
<speed>1.090000</speed>
</trkpt>
<trkpt lat="55.731541" lon="26.230354">
<ele>139.857544</ele>
<time>2010-07-17T10:51:04Z</time>
<desc>lat.=55.731541, lon.=26.230354, Alt.=139.857544m. Speed=3.456000m/h.</desc>
<speed>0.960000</speed>
</trkpt>
<trkpt lat="55.731544" lon="26.230362">
<ele>139.986450</ele>
<time>2010-07-17T10:51:05Z</time>
<desc>lat.=55.731544, lon.=26.230362, Alt.=139.986450m. Speed=2.340000m/h.</desc>
<speed>0.650000</speed>
</trkpt>
<trkpt lat="55.731548" lon="26.230370">
<ele>140.041138</ele>
<time>2010-07-17T10:51:06Z</time>
<desc>lat.=55.731548, lon.=26.230370, Alt.=140.041138m. Speed=4.752000m/h.</desc>
<speed>1.320000</speed>
</trkpt>
<trkpt lat="55.731556" lon="26.230383">
<ele>140.095825</ele>
<time>2010-07-17T10:51:07Z</time>
<desc>lat.=55.731556, lon.=26.230383, Alt.=140.095825m. Speed=7.452000m/h.</desc>
<speed>2.070000</speed>
</trkpt>
<trkpt lat="55.731567" lon="26.230400">
<ele>140.021606</ele>
<time>2010-07-17T10:51:08Z</time>
<desc>lat.=55.731567, lon.=26.230400, Alt.=140.021606m. Speed=6.768000m/h.</desc>
<speed>1.880000</speed>
</trkpt>
<trkpt lat="55.731579" lon="26.230413">
<ele>140.123169</ele>
<time>2010-07-17T10:51:09Z</time>
<desc>lat.=55.731579, lon.=26.230413, Alt.=140.123169m. Speed=6.192000m/h.</desc>
<speed>1.720000</speed>
</trkpt>
<trkpt lat="55.731598" lon="26.230423">
<ele>141.076294</ele>
<time>2010-07-17T10:51:10Z</time>
<desc>lat.=55.731598, lon.=26.230423, Alt.=141.076294m. Speed=7.956000m/h.</desc>
<speed>2.210000</speed>
</trkpt>
<trkpt lat="55.731609" lon="26.230421">
<ele>141.595825</ele>
<time>2010-07-17T10:51:11Z</time>
<desc>lat.=55.731609, lon.=26.230421, Alt.=141.595825m. Speed=6.012000m/h.</desc>
<speed>1.670000</speed>
</trkpt>
<trkpt lat="55.731621" lon="26.230417">
<ele>142.130981</ele>
<time>2010-07-17T10:51:12Z</time>
<desc>lat.=55.731621, lon.=26.230417, Alt.=142.130981m. Speed=6.840000m/h.</desc>
<speed>1.900000</speed>
</trkpt>
<trkpt lat="55.731636" lon="26.230417">
<ele>142.443481</ele>
<time>2010-07-17T10:51:13Z</time>
<desc>lat.=55.731636, lon.=26.230417, Alt.=142.443481m. Speed=5.832000m/h.</desc>
<speed>1.620000</speed>
</trkpt>
<trkpt lat="55.731644" lon="26.230413">
<ele>142.709106</ele>
<time>2010-07-17T10:51:14Z</time>
<desc>lat.=55.731644, lon.=26.230413, Alt.=142.709106m. Speed=5.616000m/h.</desc>
<speed>1.560000</speed>
</trkpt>
<trkpt lat="55.731663" lon="26.230417">
<ele>142.982544</ele>
<time>2010-07-17T10:51:15Z</time>
<desc>lat.=55.731663, lon.=26.230417, Alt.=142.982544m. Speed=9.288000m/h.</desc>
<speed>2.580000</speed>
</trkpt>
<trkpt lat="55.731693" lon="26.230413">
<ele>143.146606</ele>
<time>2010-07-17T10:51:16Z</time>
<desc>lat.=55.731693, lon.=26.230413, Alt.=143.146606m. Speed=12.132000m/h.</desc>
<speed>3.370000</speed>
</trkpt>
<trkpt lat="55.731735" lon="26.230396">
<ele>143.201294</ele>
<time>2010-07-17T10:51:17Z</time>
<desc>lat.=55.731735, lon.=26.230396, Alt.=143.201294m. Speed=17.676001m/h.</desc>
<speed>4.910000</speed>
</trkpt>
<trkpt lat="55.731796" lon="26.230358">
<ele>143.068481</ele>
<time>2010-07-17T10:51:18Z</time>
<desc>lat.=55.731796, lon.=26.230358, Alt.=143.068481m. Speed=23.364000m/h.</desc>
<speed>6.490000</speed>
</trkpt>
<trkpt lat="55.731861" lon="26.230305">
<ele>142.841919</ele>
<time>2010-07-17T10:51:19Z</time>
<desc>lat.=55.731861, lon.=26.230305, Alt.=142.841919m. Speed=24.228001m/h.</desc>
<speed>6.730000</speed>
</trkpt>
<trkpt lat="55.731907" lon="26.230242">
<ele>142.865356</ele>
<time>2010-07-17T10:51:20Z</time>
<desc>lat.=55.731907, lon.=26.230242, Alt.=142.865356m. Speed=23.076000m/h.</desc>
<speed>6.410000</speed>
</trkpt>
<trkpt lat="55.731960" lon="26.230179">
<ele>142.787231</ele>
<time>2010-07-17T10:51:21Z</time>
<desc>lat.=55.731960, lon.=26.230179, Alt.=142.787231m. Speed=24.768000m/h.</desc>
<speed>6.880000</speed>
</trkpt>
<trkpt lat="55.732029" lon="26.230124">
<ele>142.630981</ele>
<time>2010-07-17T10:51:22Z</time>
<desc>lat.=55.732029, lon.=26.230124, Alt.=142.630981m. Speed=26.604000m/h.</desc>
<speed>7.390000</speed>
</trkpt>
<trkpt lat="55.732082" lon="26.230062">
<ele>142.529419</ele>
<time>2010-07-17T10:51:23Z</time>
<desc>lat.=55.732082, lon.=26.230062, Alt.=142.529419m. Speed=25.236000m/h.</desc>
<speed>7.010000</speed>
</trkpt>
<trkpt lat="55.732132" lon="26.230003">
<ele>142.482544</ele>
<time>2010-07-17T10:51:24Z</time>
<desc>lat.=55.732132, lon.=26.230003, Alt.=142.482544m. Speed=21.384001m/h.</desc>
<speed>5.940000</speed>
</trkpt>
<trkpt lat="55.732178" lon="26.229950">
<ele>142.595825</ele>
<time>2010-07-17T10:51:25Z</time>
<desc>lat.=55.732178, lon.=26.229950, Alt.=142.595825m. Speed=20.736000m/h.</desc>
<speed>5.760000</speed>
</trkpt>
<trkpt lat="55.732220" lon="26.229904">
<ele>142.709106</ele>
<time>2010-07-17T10:51:26Z</time>
<desc>lat.=55.732220, lon.=26.229904, Alt.=142.709106m. Speed=19.440001m/h.</desc>
<speed>5.400000</speed>
</trkpt>
<trkpt lat="55.732273" lon="26.229868">
<ele>142.912231</ele>
<time>2010-07-17T10:51:27Z</time>
<desc>lat.=55.732273, lon.=26.229868, Alt.=142.912231m. Speed=18.396000m/h.</desc>
<speed>5.110000</speed>
</trkpt>
<trkpt lat="55.732323" lon="26.229841">
<ele>142.990356</ele>
<time>2010-07-17T10:51:28Z</time>
<desc>lat.=55.732323, lon.=26.229841, Alt.=142.990356m. Speed=18.900000m/h.</desc>
<speed>5.250000</speed>
</trkpt>
<trkpt lat="55.732368" lon="26.229813">
<ele>142.947388</ele>
<time>2010-07-17T10:51:29Z</time>
<desc>lat.=55.732368, lon.=26.229813, Alt.=142.947388m. Speed=18.396000m/h.</desc>
<speed>5.110000</speed>
</trkpt>
<trkpt lat="55.732410" lon="26.229795">
<ele>143.048950</ele>
<time>2010-07-17T10:51:30Z</time>
<desc>lat.=55.732410, lon.=26.229795, Alt.=143.048950m. Speed=14.400000m/h.</desc>
<speed>4.000000</speed>
</trkpt>
<trkpt lat="55.732456" lon="26.229778">
<ele>143.017700</ele>
<time>2010-07-17T10:51:31Z</time>
<desc>lat.=55.732456, lon.=26.229778, Alt.=143.017700m. Speed=15.444000m/h.</desc>
<speed>4.290000</speed>
</trkpt>
<trkpt lat="55.732494" lon="26.229761">
<ele>143.021606</ele>
<time>2010-07-17T10:51:32Z</time>
<desc>lat.=55.732494, lon.=26.229761, Alt.=143.021606m. Speed=12.816000m/h.</desc>
<speed>3.560000</speed>
</trkpt>
<trkpt lat="55.732552" lon="26.229746">
<ele>143.037231</ele>
<time>2010-07-17T10:51:33Z</time>
<desc>lat.=55.732552, lon.=26.229746, Alt.=143.037231m. Speed=18.252001m/h.</desc>
<speed>5.070000</speed>
</trkpt>
<trkpt lat="55.732601" lon="26.229731">
<ele>142.982544</ele>
<time>2010-07-17T10:51:34Z</time>
<desc>lat.=55.732601, lon.=26.229731, Alt.=142.982544m. Speed=16.667999m/h.</desc>
<speed>4.630000</speed>
</trkpt>
<trkpt lat="55.732655" lon="26.229721">
<ele>142.685669</ele>
<time>2010-07-17T10:51:35Z</time>
<desc>lat.=55.732655, lon.=26.229721, Alt.=142.685669m. Speed=16.559999m/h.</desc>
<speed>4.600000</speed>
</trkpt>
<trkpt lat="55.732731" lon="26.229731">
<ele>143.209106</ele>
<time>2010-07-17T10:51:36Z</time>
<desc>lat.=55.732731, lon.=26.229731, Alt.=143.209106m. Speed=22.032000m/h.</desc>
<speed>6.120000</speed>
</trkpt>
<trkpt lat="55.732796" lon="26.229727">
<ele>143.127075</ele>
<time>2010-07-17T10:51:37Z</time>
<desc>lat.=55.732796, lon.=26.229727, Alt.=143.127075m. Speed=25.271999m/h.</desc>
<speed>7.020000</speed>
</trkpt>
<trkpt lat="55.732849" lon="26.229725">
<ele>143.017700</ele>
<time>2010-07-17T10:51:38Z</time>
<desc>lat.=55.732849, lon.=26.229725, Alt.=143.017700m. Speed=24.552000m/h.</desc>
<speed>6.820000</speed>
</trkpt>
<trkpt lat="55.732914" lon="26.229702">
<ele>143.341919</ele>
<time>2010-07-17T10:51:39Z</time>
<desc>lat.=55.732914, lon.=26.229702, Alt.=143.341919m. Speed=27.540001m/h.</desc>
<speed>7.650000</speed>
</trkpt>
<trkpt lat="55.732998" lon="26.229687">
<ele>144.205200</ele>
<time>2010-07-17T10:51:40Z</time>
<desc>lat.=55.732998, lon.=26.229687, Alt.=144.205200m. Speed=27.684000m/h.</desc>
<speed>7.690000</speed>
</trkpt>
<trkpt lat="55.733074" lon="26.229689">
<ele>144.263794</ele>
<time>2010-07-17T10:51:41Z</time>
<desc>lat.=55.733074, lon.=26.229689, Alt.=144.263794m. Speed=26.316000m/h.</desc>
<speed>7.310000</speed>
</trkpt>
<trkpt lat="55.733135" lon="26.229685">
<ele>144.728638</ele>
<time>2010-07-17T10:51:42Z</time>
<desc>lat.=55.733135, lon.=26.229685, Alt.=144.728638m. Speed=19.836000m/h.</desc>
<speed>5.510000</speed>
</trkpt>
<trkpt lat="55.733204" lon="26.229681">
<ele>145.341919</ele>
<time>2010-07-17T10:51:43Z</time>
<desc>lat.=55.733204, lon.=26.229681, Alt.=145.341919m. Speed=19.872000m/h.</desc>
<speed>5.520000</speed>
</trkpt>
<trkpt lat="55.733269" lon="26.229662">
<ele>145.716919</ele>
<time>2010-07-17T10:51:44Z</time>
<desc>lat.=55.733269, lon.=26.229662, Alt.=145.716919m. Speed=18.756001m/h.</desc>
<speed>5.210000</speed>
</trkpt>
<trkpt lat="55.733326" lon="26.229624">
<ele>144.630981</ele>
<time>2010-07-17T10:51:45Z</time>
<desc>lat.=55.733326, lon.=26.229624, Alt.=144.630981m. Speed=17.639999m/h.</desc>
<speed>4.900000</speed>
</trkpt>
<trkpt lat="55.733376" lon="26.229599">
<ele>145.314575</ele>
<time>2010-07-17T10:51:46Z</time>
<desc>lat.=55.733376, lon.=26.229599, Alt.=145.314575m. Speed=16.775999m/h.</desc>
<speed>4.660000</speed>
</trkpt>
<trkpt lat="55.733425" lon="26.229570">
<ele>145.185669</ele>
<time>2010-07-17T10:51:47Z</time>
<desc>lat.=55.733425, lon.=26.229570, Alt.=145.185669m. Speed=15.048000m/h.</desc>
<speed>4.180000</speed>
</trkpt>
<trkpt lat="55.733459" lon="26.229555">
<ele>145.420044</ele>
<time>2010-07-17T10:51:48Z</time>
<desc>lat.=55.733459, lon.=26.229555, Alt.=145.420044m. Speed=13.788000m/h.</desc>
<speed>3.830000</speed>
</trkpt>
<trkpt lat="55.733501" lon="26.229538">
<ele>145.220825</ele>
<time>2010-07-17T10:51:49Z</time>
<desc>lat.=55.733501, lon.=26.229538, Alt.=145.220825m. Speed=13.932000m/h.</desc>
<speed>3.870000</speed>
</trkpt>
<trkpt lat="55.733540" lon="26.229525">
<ele>145.709106</ele>
<time>2010-07-17T10:51:50Z</time>
<desc>lat.=55.733540, lon.=26.229525, Alt.=145.709106m. Speed=14.328000m/h.</desc>
<speed>3.980000</speed>
</trkpt>
<trkpt lat="55.733593" lon="26.229507">
<ele>144.959106</ele>
<time>2010-07-17T10:51:51Z</time>
<desc>lat.=55.733593, lon.=26.229507, Alt.=144.959106m. Speed=17.639999m/h.</desc>
<speed>4.900000</speed>
</trkpt>
<trkpt lat="55.733639" lon="26.229486">
<ele>144.880981</ele>
<time>2010-07-17T10:51:52Z</time>
<desc>lat.=55.733639, lon.=26.229486, Alt.=144.880981m. Speed=18.792000m/h.</desc>
<speed>5.220000</speed>
</trkpt>
<trkpt lat="55.733696" lon="26.229460">
<ele>144.060669</ele>
<time>2010-07-17T10:51:53Z</time>
<desc>lat.=55.733696, lon.=26.229460, Alt.=144.060669m. Speed=22.068001m/h.</desc>
<speed>6.130000</speed>
</trkpt>
<trkpt lat="55.733757" lon="26.229433">
<ele>143.416138</ele>
<time>2010-07-17T10:51:54Z</time>
<desc>lat.=55.733757, lon.=26.229433, Alt.=143.416138m. Speed=22.752001m/h.</desc>
<speed>6.320000</speed>
</trkpt>
<trkpt lat="55.733814" lon="26.229412">
<ele>143.377075</ele>
<time>2010-07-17T10:51:55Z</time>
<desc>lat.=55.733814, lon.=26.229412, Alt.=143.377075m. Speed=22.535999m/h.</desc>
<speed>6.260000</speed>
</trkpt>
<trkpt lat="55.733864" lon="26.229387">
<ele>143.795044</ele>
<time>2010-07-17T10:51:56Z</time>
<desc>lat.=55.733864, lon.=26.229387, Alt.=143.795044m. Speed=21.851999m/h.</desc>
<speed>6.070000</speed>
</trkpt>
<trkpt lat="55.733917" lon="26.229370">
<ele>144.084106</ele>
<time>2010-07-17T10:51:57Z</time>
<desc>lat.=55.733917, lon.=26.229370, Alt.=144.084106m. Speed=20.952000m/h.</desc>
<speed>5.820000</speed>
</trkpt>
<trkpt lat="55.733963" lon="26.229353">
<ele>144.330200</ele>
<time>2010-07-17T10:51:58Z</time>
<desc>lat.=55.733963, lon.=26.229353, Alt.=144.330200m. Speed=18.431999m/h.</desc>
<speed>5.120000</speed>
</trkpt>
<trkpt lat="55.734001" lon="26.229342">
<ele>144.388794</ele>
<time>2010-07-17T10:51:59Z</time>
<desc>lat.=55.734001, lon.=26.229342, Alt.=144.388794m. Speed=16.056000m/h.</desc>
<speed>4.460000</speed>
</trkpt>
<trkpt lat="55.734039" lon="26.229328">
<ele>144.267700</ele>
<time>2010-07-17T10:52:00Z</time>
<desc>lat.=55.734039, lon.=26.229328, Alt.=144.267700m. Speed=15.984000m/h.</desc>
<speed>4.440000</speed>
</trkpt>
<trkpt lat="55.734077" lon="26.229319">
<ele>144.306763</ele>
<time>2010-07-17T10:52:01Z</time>
<desc>lat.=55.734077, lon.=26.229319, Alt.=144.306763m. Speed=14.472000m/h.</desc>
<speed>4.020000</speed>
</trkpt>
<trkpt lat="55.734119" lon="26.229305">
<ele>143.638794</ele>
<time>2010-07-17T10:52:02Z</time>
<desc>lat.=55.734119, lon.=26.229305, Alt.=143.638794m. Speed=15.048000m/h.</desc>
<speed>4.180000</speed>
</trkpt>
<trkpt lat="55.734158" lon="26.229282">
<ele>143.088013</ele>
<time>2010-07-17T10:52:03Z</time>
<desc>lat.=55.734158, lon.=26.229282, Alt.=143.088013m. Speed=14.220000m/h.</desc>
<speed>3.950000</speed>
</trkpt>
<trkpt lat="55.734188" lon="26.229269">
<ele>142.822388</ele>
<time>2010-07-17T10:52:04Z</time>
<desc>lat.=55.734188, lon.=26.229269, Alt.=142.822388m. Speed=9.252000m/h.</desc>
<speed>2.570000</speed>
</trkpt>
<trkpt lat="55.734203" lon="26.229261">
<ele>142.767700</ele>
<time>2010-07-17T10:52:05Z</time>
<desc>lat.=55.734203, lon.=26.229261, Alt.=142.767700m. Speed=4.968000m/h.</desc>
<speed>1.380000</speed>
</trkpt>
<trkpt lat="55.734215" lon="26.229258">
<ele>142.615356</ele>
<time>2010-07-17T10:52:06Z</time>
<desc>lat.=55.734215, lon.=26.229258, Alt.=142.615356m. Speed=4.068000m/h.</desc>
<speed>1.130000</speed>
</trkpt>
<trkpt lat="55.734222" lon="26.229248">
<ele>142.537231</ele>
<time>2010-07-17T10:52:07Z</time>
<desc>lat.=55.734222, lon.=26.229248, Alt.=142.537231m. Speed=2.412000m/h.</desc>
<speed>0.670000</speed>
</trkpt>
<trkpt lat="55.734226" lon="26.229246">
<ele>142.443481</ele>
<time>2010-07-17T10:52:08Z</time>
<desc>lat.=55.734226, lon.=26.229246, Alt.=142.443481m. Speed=1.836000m/h.</desc>
<speed>0.510000</speed>
</trkpt>
<trkpt lat="55.734226" lon="26.229248">
<ele>142.326294</ele>
<time>2010-07-17T10:52:09Z</time>
<desc>lat.=55.734226, lon.=26.229248, Alt.=142.326294m. Speed=0.900000m/h.</desc>
<speed>0.250000</speed>
</trkpt>
<trkpt lat="55.734226" lon="26.229248">
<ele>142.361450</ele>
<time>2010-07-17T10:52:10Z</time>
<desc>lat.=55.734226, lon.=26.229248, Alt.=142.361450m. Speed=0.936000m/h.</desc>
<speed>0.260000</speed>
</trkpt>
<trkpt lat="55.734230" lon="26.229246">
<ele>142.306763</ele>
<time>2010-07-17T10:52:11Z</time>
<desc>lat.=55.734230, lon.=26.229246, Alt.=142.306763m. Speed=0.684000m/h.</desc>
<speed>0.190000</speed>
</trkpt>
<trkpt lat="55.734230" lon="26.229246">
<ele>142.271606</ele>
<time>2010-07-17T10:52:12Z</time>
<desc>lat.=55.734230, lon.=26.229246, Alt.=142.271606m. Speed=0.072000m/h.</desc>
<speed>0.020000</speed>
</trkpt>
<trkpt lat="55.734230" lon="26.229246">
<ele>142.232544</ele>
<time>2010-07-17T10:52:13Z</time>
<desc>lat.=55.734230, lon.=26.229246, Alt.=142.232544m. Speed=0.072000m/h.</desc>
<speed>0.020000</speed>
</trkpt>
<trkpt lat="55.734230" lon="26.229246">
<ele>142.213013</ele>
<time>2010-07-17T10:52:14Z</time>
<desc>lat.=55.734230, lon.=26.229246, Alt.=142.213013m. Speed=0.000000m/h.</desc>
<speed>0.000000</speed>
</trkpt>
<trkpt lat="55.734230" lon="26.229246">
<ele>142.193481</ele>
<time>2010-07-17T10:52:15Z</time>
<desc>lat.=55.734230, lon.=26.229246, Alt.=142.193481m. Speed=0.108000m/h.</desc>
<speed>0.030000</speed>
</trkpt>
<trkpt lat="55.734230" lon="26.229246">
<ele>142.201294</ele>
<time>2010-07-17T10:52:16Z</time>
<desc>lat.=55.734230, lon.=26.229246, Alt.=142.201294m. Speed=0.072000m/h.</desc>
<speed>0.020000</speed>
</trkpt>
<trkpt lat="55.734234" lon="26.229246">
<ele>142.209106</ele>
<time>2010-07-17T10:52:17Z</time>
<desc>lat.=55.734234, lon.=26.229246, Alt.=142.209106m. Speed=0.072000m/h.</desc>
<speed>0.020000</speed>
</trkpt>
<trkpt lat="55.734234" lon="26.229246">
<ele>142.216919</ele>
<time>2010-07-17T10:52:18Z</time>
<desc>lat.=55.734234, lon.=26.229246, Alt.=142.216919m. Speed=0.072000m/h.</desc>
<speed>0.020000</speed>
</trkpt>
<trkpt lat="55.734234" lon="26.229246">
<ele>142.213013</ele>
<time>2010-07-17T10:52:19Z</time>
<desc>lat.=55.734234, lon.=26.229246, Alt.=142.213013m. Speed=0.108000m/h.</desc>
<speed>0.030000</speed>
</trkpt>
<trkpt lat="55.734234" lon="26.229246">
<ele>142.232544</ele>
<time>2010-07-17T10:52:20Z</time>
<desc>lat.=55.734234, lon.=26.229246, Alt.=142.232544m. Speed=0.108000m/h.</desc>
<speed>0.030000</speed>
</trkpt>
<trkpt lat="55.734234" lon="26.229248">
<ele>142.248169</ele>
<time>2010-07-17T10:52:21Z</time>
<desc>lat.=55.734234, lon.=26.229248, Alt.=142.248169m. Speed=0.108000m/h.</desc>
<speed>0.030000</speed>
</trkpt>
<trkpt lat="55.734234" lon="26.229248">
<ele>142.267700</ele>
<time>2010-07-17T10:52:22Z</time>
<desc>lat.=55.734234, lon.=26.229248, Alt.=142.267700m. Speed=0.324000m/h.</desc>
<speed>0.090000</speed>
</trkpt>
<trkpt lat="55.734234" lon="26.229248">
<ele>142.275513</ele>
<time>2010-07-17T10:52:23Z</time>
<desc>lat.=55.734234, lon.=26.229248, Alt.=142.275513m. Speed=0.540000m/h.</desc>
<speed>0.150000</speed>
</trkpt>
<trkpt lat="55.734234" lon="26.229248">
<ele>142.279419</ele>
<time>2010-07-17T10:52:24Z</time>
<desc>lat.=55.734234, lon.=26.229248, Alt.=142.279419m. Speed=1.656000m/h.</desc>
<speed>0.460000</speed>
</trkpt>
<trkpt lat="55.734238" lon="26.229254">
<ele>142.279419</ele>
<time>2010-07-17T10:52:25Z</time>
<desc>lat.=55.734238, lon.=26.229254, Alt.=142.279419m. Speed=1.548000m/h.</desc>
<speed>0.430000</speed>
</trkpt>
<trkpt lat="55.734238" lon="26.229259">
<ele>142.279419</ele>
<time>2010-07-17T10:52:26Z</time>
<desc>lat.=55.734238, lon.=26.229259, Alt.=142.279419m. Speed=1.116000m/h.</desc>
<speed>0.310000</speed>
</trkpt>
<trkpt lat="55.734241" lon="26.229265">
<ele>142.279419</ele>
<time>2010-07-17T10:52:27Z</time>
<desc>lat.=55.734241, lon.=26.229265, Alt.=142.279419m. Speed=1.404000m/h.</desc>
<speed>0.390000</speed>
</trkpt>
<trkpt lat="55.734241" lon="26.229271">
<ele>142.279419</ele>
<time>2010-07-17T10:52:28Z</time>
<desc>lat.=55.734241, lon.=26.229271, Alt.=142.279419m. Speed=2.772000m/h.</desc>
<speed>0.770000</speed>
</trkpt>
<trkpt lat="55.734241" lon="26.229282">
<ele>142.291138</ele>
<time>2010-07-17T10:52:29Z</time>
<desc>lat.=55.734241, lon.=26.229282, Alt.=142.291138m. Speed=3.024000m/h.</desc>
<speed>0.840000</speed>
</trkpt>
<trkpt lat="55.734234" lon="26.229288">
<ele>142.298950</ele>
<time>2010-07-17T10:52:30Z</time>
<desc>lat.=55.734234, lon.=26.229288, Alt.=142.298950m. Speed=4.032000m/h.</desc>
<speed>1.120000</speed>
</trkpt>
<trkpt lat="55.734222" lon="26.229296">
<ele>142.298950</ele>
<time>2010-07-17T10:52:31Z</time>
<desc>lat.=55.734222, lon.=26.229296, Alt.=142.298950m. Speed=5.220000m/h.</desc>
<speed>1.450000</speed>
</trkpt>
<trkpt lat="55.734211" lon="26.229294">
<ele>142.302856</ele>
<time>2010-07-17T10:52:32Z</time>
<desc>lat.=55.734211, lon.=26.229294, Alt.=142.302856m. Speed=3.168000m/h.</desc>
<speed>0.880000</speed>
</trkpt>
<trkpt lat="55.734200" lon="26.229290">
<ele>142.341919</ele>
<time>2010-07-17T10:52:33Z</time>
<desc>lat.=55.734200, lon.=26.229290, Alt.=142.341919m. Speed=4.968000m/h.</desc>
<speed>1.380000</speed>
</trkpt>
<trkpt lat="55.734192" lon="26.229288">
<ele>142.423950</ele>
<time>2010-07-17T10:52:34Z</time>
<desc>lat.=55.734192, lon.=26.229288, Alt.=142.423950m. Speed=4.968000m/h.</desc>
<speed>1.380000</speed>
</trkpt>
<trkpt lat="55.734177" lon="26.229294">
<ele>142.427856</ele>
<time>2010-07-17T10:52:35Z</time>
<desc>lat.=55.734177, lon.=26.229294, Alt.=142.427856m. Speed=7.884000m/h.</desc>
<speed>2.190000</speed>
</trkpt>
<trkpt lat="55.734150" lon="26.229301">
<ele>142.584106</ele>
<time>2010-07-17T10:52:36Z</time>
<desc>lat.=55.734150, lon.=26.229301, Alt.=142.584106m. Speed=10.620000m/h.</desc>
<speed>2.950000</speed>
</trkpt>
<trkpt lat="55.734123" lon="26.229317">
<ele>142.810669</ele>
<time>2010-07-17T10:52:37Z</time>
<desc>lat.=55.734123, lon.=26.229317, Alt.=142.810669m. Speed=11.232000m/h.</desc>
<speed>3.120000</speed>
</trkpt>
<trkpt lat="55.734097" lon="26.229334">
<ele>143.138794</ele>
<time>2010-07-17T10:52:38Z</time>
<desc>lat.=55.734097, lon.=26.229334, Alt.=143.138794m. Speed=12.132000m/h.</desc>
<speed>3.370000</speed>
</trkpt>
<trkpt lat="55.734066" lon="26.229345">
<ele>143.111450</ele>
<time>2010-07-17T10:52:39Z</time>
<desc>lat.=55.734066, lon.=26.229345, Alt.=143.111450m. Speed=12.960000m/h.</desc>
<speed>3.600000</speed>
</trkpt>
<trkpt lat="55.734035" lon="26.229357">
<ele>143.013794</ele>
<time>2010-07-17T10:52:40Z</time>
<desc>lat.=55.734035, lon.=26.229357, Alt.=143.013794m. Speed=13.320000m/h.</desc>
<speed>3.700000</speed>
</trkpt>
<trkpt lat="55.734005" lon="26.229376">
<ele>142.900513</ele>
<time>2010-07-17T10:52:41Z</time>
<desc>lat.=55.734005, lon.=26.229376, Alt.=142.900513m. Speed=13.392000m/h.</desc>
<speed>3.720000</speed>
</trkpt>
<trkpt lat="55.733974" lon="26.229397">
<ele>142.888794</ele>
<time>2010-07-17T10:52:42Z</time>
<desc>lat.=55.733974, lon.=26.229397, Alt.=142.888794m. Speed=14.328000m/h.</desc>
<speed>3.980000</speed>
</trkpt>
<trkpt lat="55.733936" lon="26.229418">
<ele>142.716919</ele>
<time>2010-07-17T10:52:43Z</time>
<desc>lat.=55.733936, lon.=26.229418, Alt.=142.716919m. Speed=15.480000m/h.</desc>
<speed>4.300000</speed>
</trkpt>
<trkpt lat="55.733894" lon="26.229435">
<ele>142.482544</ele>
<time>2010-07-17T10:52:44Z</time>
<desc>lat.=55.733894, lon.=26.229435, Alt.=142.482544m. Speed=17.280001m/h.</desc>
<speed>4.800000</speed>
</trkpt>
<trkpt lat="55.733849" lon="26.229454">
<ele>142.384888</ele>
<time>2010-07-17T10:52:45Z</time>
<desc>lat.=55.733849, lon.=26.229454, Alt.=142.384888m. Speed=19.980000m/h.</desc>
<speed>5.550000</speed>
</trkpt>
<trkpt lat="55.733803" lon="26.229479">
<ele>142.298950</ele>
<time>2010-07-17T10:52:46Z</time>
<desc>lat.=55.733803, lon.=26.229479, Alt.=142.298950m. Speed=19.044001m/h.</desc>
<speed>5.290000</speed>
</trkpt>
<trkpt lat="55.733753" lon="26.229498">
<ele>142.209106</ele>
<time>2010-07-17T10:52:47Z</time>
<desc>lat.=55.733753, lon.=26.229498, Alt.=142.209106m. Speed=18.792000m/h.</desc>
<speed>5.220000</speed>
</trkpt>
<trkpt lat="55.733707" lon="26.229519">
<ele>142.357544</ele>
<time>2010-07-17T10:52:48Z</time>
<desc>lat.=55.733707, lon.=26.229519, Alt.=142.357544m. Speed=17.604000m/h.</desc>
<speed>4.890000</speed>
</trkpt>
<trkpt lat="55.733665" lon="26.229540">
<ele>143.380981</ele>
<time>2010-07-17T10:52:49Z</time>
<desc>lat.=55.733665, lon.=26.229540, Alt.=143.380981m. Speed=16.020000m/h.</desc>
<speed>4.450000</speed>
</trkpt>
<trkpt lat="55.733627" lon="26.229549">
<ele>143.416138</ele>
<time>2010-07-17T10:52:50Z</time>
<desc>lat.=55.733627, lon.=26.229549, Alt.=143.416138m. Speed=14.004000m/h.</desc>
<speed>3.890000</speed>
</trkpt>
<trkpt lat="55.733589" lon="26.229563">
<ele>144.228638</ele>
<time>2010-07-17T10:52:51Z</time>
<desc>lat.=55.733589, lon.=26.229563, Alt.=144.228638m. Speed=14.256000m/h.</desc>
<speed>3.960000</speed>
</trkpt>
<trkpt lat="55.733555" lon="26.229572">
<ele>144.341919</ele>
<time>2010-07-17T10:52:52Z</time>
<desc>lat.=55.733555, lon.=26.229572, Alt.=144.341919m. Speed=14.436000m/h.</desc>
<speed>4.010000</speed>
</trkpt>
<trkpt lat="55.733521" lon="26.229586">
<ele>144.455200</ele>
<time>2010-07-17T10:52:53Z</time>
<desc>lat.=55.733521, lon.=26.229586, Alt.=144.455200m. Speed=14.652000m/h.</desc>
<speed>4.070000</speed>
</trkpt>
<trkpt lat="55.733486" lon="26.229599">
<ele>144.619263</ele>
<time>2010-07-17T10:52:54Z</time>
<desc>lat.=55.733486, lon.=26.229599, Alt.=144.619263m. Speed=16.128000m/h.</desc>
<speed>4.480000</speed>
</trkpt>
<trkpt lat="55.733444" lon="26.229612">
<ele>144.330200</ele>
<time>2010-07-17T10:52:55Z</time>
<desc>lat.=55.733444, lon.=26.229612, Alt.=144.330200m. Speed=17.712000m/h.</desc>
<speed>4.920000</speed>
</trkpt>
<trkpt lat="55.733398" lon="26.229620">
<ele>144.213013</ele>
<time>2010-07-17T10:52:56Z</time>
<desc>lat.=55.733398, lon.=26.229620, Alt.=144.213013m. Speed=20.195999m/h.</desc>
<speed>5.610000</speed>
</trkpt>
<trkpt lat="55.733345" lon="26.229631">
<ele>143.877075</ele>
<time>2010-07-17T10:52:57Z</time>
<desc>lat.=55.733345, lon.=26.229631, Alt.=143.877075m. Speed=21.996000m/h.</desc>
<speed>6.110000</speed>
</trkpt>
<trkpt lat="55.733284" lon="26.229643">
<ele>143.533325</ele>
<time>2010-07-17T10:52:58Z</time>
<desc>lat.=55.733284, lon.=26.229643, Alt.=143.533325m. Speed=23.219999m/h.</desc>
<speed>6.450000</speed>
</trkpt>
<trkpt lat="55.733223" lon="26.229652">
<ele>143.275513</ele>
<time>2010-07-17T10:52:59Z</time>
<desc>lat.=55.733223, lon.=26.229652, Alt.=143.275513m. Speed=24.587999m/h.</desc>
<speed>6.830000</speed>
</trkpt>
<trkpt lat="55.733158" lon="26.229650">
<ele>143.275513</ele>
<time>2010-07-17T10:53:00Z</time>
<desc>lat.=55.733158, lon.=26.229650, Alt.=143.275513m. Speed=25.056000m/h.</desc>
<speed>6.960000</speed>
</trkpt>
<trkpt lat="55.733093" lon="26.229649">
<ele>143.498169</ele>
<time>2010-07-17T10:53:01Z</time>
<desc>lat.=55.733093, lon.=26.229649, Alt.=143.498169m. Speed=24.804001m/h.</desc>
<speed>6.890000</speed>
</trkpt>
<trkpt lat="55.733032" lon="26.229647">
<ele>143.693481</ele>
<time>2010-07-17T10:53:02Z</time>
<desc>lat.=55.733032, lon.=26.229647, Alt.=143.693481m. Speed=23.940001m/h.</desc>
<speed>6.650000</speed>
</trkpt>
<trkpt lat="55.732971" lon="26.229645">
<ele>143.529419</ele>
<time>2010-07-17T10:53:03Z</time>
<desc>lat.=55.732971, lon.=26.229645, Alt.=143.529419m. Speed=22.788000m/h.</desc>
<speed>6.330000</speed>
</trkpt>
<trkpt lat="55.732914" lon="26.229637">
<ele>143.365356</ele>
<time>2010-07-17T10:53:04Z</time>
<desc>lat.=55.732914, lon.=26.229637, Alt.=143.365356m. Speed=22.284000m/h.</desc>
<speed>6.190000</speed>
</trkpt>
<trkpt lat="55.732857" lon="26.229626">
<ele>143.338013</ele>
<time>2010-07-17T10:53:05Z</time>
<desc>lat.=55.732857, lon.=26.229626, Alt.=143.338013m. Speed=21.348000m/h.</desc>
<speed>5.930000</speed>
</trkpt>
<trkpt lat="55.732807" lon="26.229620">
<ele>143.416138</ele>
<time>2010-07-17T10:53:06Z</time>
<desc>lat.=55.732807, lon.=26.229620, Alt.=143.416138m. Speed=21.240000m/h.</desc>
<speed>5.900000</speed>
</trkpt>
<trkpt lat="55.732761" lon="26.229622">
<ele>143.697388</ele>
<time>2010-07-17T10:53:07Z</time>
<desc>lat.=55.732761, lon.=26.229622, Alt.=143.697388m. Speed=17.028000m/h.</desc>
<speed>4.730000</speed>
</trkpt>
<trkpt lat="55.732731" lon="26.229628">
<ele>143.982544</ele>
<time>2010-07-17T10:53:08Z</time>
<desc>lat.=55.732731, lon.=26.229628, Alt.=143.982544m. Speed=13.680000m/h.</desc>
<speed>3.800000</speed>
</trkpt>
<trkpt lat="55.732689" lon="26.229633">
<ele>144.310669</ele>
<time>2010-07-17T10:53:09Z</time>
<desc>lat.=55.732689, lon.=26.229633, Alt.=144.310669m. Speed=16.488001m/h.</desc>
<speed>4.580000</speed>
</trkpt>
<trkpt lat="55.732639" lon="26.229643">
<ele>144.439575</ele>
<time>2010-07-17T10:53:10Z</time>
<desc>lat.=55.732639, lon.=26.229643, Alt.=144.439575m. Speed=16.164000m/h.</desc>
<speed>4.490000</speed>
</trkpt>
<trkpt lat="55.732601" lon="26.229652">
<ele>144.584106</ele>
<time>2010-07-17T10:53:11Z</time>
<desc>lat.=55.732601, lon.=26.229652, Alt.=144.584106m. Speed=14.292000m/h.</desc>
<speed>3.970000</speed>
</trkpt>
<trkpt lat="55.732567" lon="26.229666">
<ele>144.650513</ele>
<time>2010-07-17T10:53:12Z</time>
<desc>lat.=55.732567, lon.=26.229666, Alt.=144.650513m. Speed=14.148000m/h.</desc>
<speed>3.930000</speed>
</trkpt>
<trkpt lat="55.732536" lon="26.229681">
<ele>144.841919</ele>
<time>2010-07-17T10:53:13Z</time>
<desc>lat.=55.732536, lon.=26.229681, Alt.=144.841919m. Speed=11.340000m/h.</desc>
<speed>3.150000</speed>
</trkpt>
<trkpt lat="55.732517" lon="26.229698">
<ele>144.994263</ele>
<time>2010-07-17T10:53:14Z</time>
<desc>lat.=55.732517, lon.=26.229698, Alt.=144.994263m. Speed=7.956000m/h.</desc>
<speed>2.210000</speed>
</trkpt>
<trkpt lat="55.732483" lon="26.229704">
<ele>145.193481</ele>
<time>2010-07-17T10:53:15Z</time>
<desc>lat.=55.732483, lon.=26.229704, Alt.=145.193481m. Speed=12.636000m/h.</desc>
<speed>3.510000</speed>
</trkpt>
<trkpt lat="55.732452" lon="26.229715">
<ele>145.252075</ele>
<time>2010-07-17T10:53:16Z</time>
<desc>lat.=55.732452, lon.=26.229715, Alt.=145.252075m. Speed=12.096000m/h.</desc>
<speed>3.360000</speed>
</trkpt>
<trkpt lat="55.732430" lon="26.229725">
<ele>145.486450</ele>
<time>2010-07-17T10:53:17Z</time>
<desc>lat.=55.732430, lon.=26.229725, Alt.=145.486450m. Speed=10.332000m/h.</desc>
<speed>2.870000</speed>
</trkpt>
<trkpt lat="55.732399" lon="26.229750">
<ele>145.521606</ele>
<time>2010-07-17T10:53:18Z</time>
<desc>lat.=55.732399, lon.=26.229750, Alt.=145.521606m. Speed=12.672000m/h.</desc>
<speed>3.520000</speed>
</trkpt>
<trkpt lat="55.732368" lon="26.229776">
<ele>145.619263</ele>
<time>2010-07-17T10:53:19Z</time>
<desc>lat.=55.732368, lon.=26.229776, Alt.=145.619263m. Speed=11.628000m/h.</desc>
<speed>3.230000</speed>
</trkpt>
<trkpt lat="55.732346" lon="26.229813">
<ele>145.705200</ele>
<time>2010-07-17T10:53:20Z</time>
<desc>lat.=55.732346, lon.=26.229813, Alt.=145.705200m. Speed=11.664000m/h.</desc>
<speed>3.240000</speed>
</trkpt>
<trkpt lat="55.732327" lon="26.229856">
<ele>145.927856</ele>
<time>2010-07-17T10:53:21Z</time>
<desc>lat.=55.732327, lon.=26.229856, Alt.=145.927856m. Speed=11.484000m/h.</desc>
<speed>3.190000</speed>
</trkpt>
<trkpt lat="55.732307" lon="26.229900">
<ele>146.005981</ele>
<time>2010-07-17T10:53:22Z</time>
<desc>lat.=55.732307, lon.=26.229900, Alt.=146.005981m. Speed=10.584000m/h.</desc>
<speed>2.940000</speed>
</trkpt>
<trkpt lat="55.732273" lon="26.229958">
<ele>146.220825</ele>
<time>2010-07-17T10:53:23Z</time>
<desc>lat.=55.732273, lon.=26.229958, Alt.=146.220825m. Speed=17.568001m/h.</desc>
<speed>4.880000</speed>
</trkpt>
<trkpt lat="55.732235" lon="26.230028">
<ele>146.494263</ele>
<time>2010-07-17T10:53:24Z</time>
<desc>lat.=55.732235, lon.=26.230028, Alt.=146.494263m. Speed=18.684000m/h.</desc>
<speed>5.190000</speed>
</trkpt>
<trkpt lat="55.732189" lon="26.230085">
<ele>146.474731</ele>
<time>2010-07-17T10:53:25Z</time>
<desc>lat.=55.732189, lon.=26.230085, Alt.=146.474731m. Speed=19.836000m/h.</desc>
<speed>5.510000</speed>
</trkpt>
<trkpt lat="55.732136" lon="26.230145">
<ele>146.392700</ele>
<time>2010-07-17T10:53:26Z</time>
<desc>lat.=55.732136, lon.=26.230145, Alt.=146.392700m. Speed=20.016001m/h.</desc>
<speed>5.560000</speed>
</trkpt>
<trkpt lat="55.732086" lon="26.230194">
<ele>146.396606</ele>
<time>2010-07-17T10:53:27Z</time>
<desc>lat.=55.732086, lon.=26.230194, Alt.=146.396606m. Speed=19.368000m/h.</desc>
<speed>5.380000</speed>
</trkpt>
<trkpt lat="55.732040" lon="26.230240">
<ele>146.470825</ele>
<time>2010-07-17T10:53:28Z</time>
<desc>lat.=55.732040, lon.=26.230240, Alt.=146.470825m. Speed=15.984000m/h.</desc>
<speed>4.440000</speed>
</trkpt>
<trkpt lat="55.732006" lon="26.230280">
<ele>147.041138</ele>
<time>2010-07-17T10:53:29Z</time>
<desc>lat.=55.732006, lon.=26.230280, Alt.=147.041138m. Speed=13.068000m/h.</desc>
<speed>3.630000</speed>
</trkpt>
<trkpt lat="55.731976" lon="26.230312">
<ele>147.525513</ele>
<time>2010-07-17T10:53:30Z</time>
<desc>lat.=55.731976, lon.=26.230312, Alt.=147.525513m. Speed=8.784000m/h.</desc>
<speed>2.440000</speed>
</trkpt>
<trkpt lat="55.731934" lon="26.230328">
<ele>147.763794</ele>
<time>2010-07-17T10:53:31Z</time>
<desc>lat.=55.731934, lon.=26.230328, Alt.=147.763794m. Speed=9.540000m/h.</desc>
<speed>2.650000</speed>
</trkpt>
<trkpt lat="55.731842" lon="26.230328">
<ele>148.076294</ele>
<time>2010-07-17T10:53:32Z</time>
<desc>lat.=55.731842, lon.=26.230328, Alt.=148.076294m. Speed=9.468000m/h.</desc>
<speed>2.630000</speed>
</trkpt>
<trkpt lat="55.731815" lon="26.230354">
<ele>147.490356</ele>
<time>2010-07-17T10:53:33Z</time>
<desc>lat.=55.731815, lon.=26.230354, Alt.=147.490356m. Speed=6.624000m/h.</desc>
<speed>1.840000</speed>
</trkpt>
<trkpt lat="55.731770" lon="26.230345">
<ele>147.556763</ele>
<time>2010-07-17T10:53:34Z</time>
<desc>lat.=55.731770, lon.=26.230345, Alt.=147.556763m. Speed=8.640000m/h.</desc>
<speed>2.400000</speed>
</trkpt>
<trkpt lat="55.731743" lon="26.230349">
<ele>147.724731</ele>
<time>2010-07-17T10:53:35Z</time>
<desc>lat.=55.731743, lon.=26.230349, Alt.=147.724731m. Speed=3.816000m/h.</desc>
<speed>1.060000</speed>
</trkpt>
<trkpt lat="55.731739" lon="26.230364">
<ele>148.099731</ele>
<time>2010-07-17T10:53:36Z</time>
<desc>lat.=55.731739, lon.=26.230364, Alt.=148.099731m. Speed=3.672000m/h.</desc>
<speed>1.020000</speed>
</trkpt>
<trkpt lat="55.731728" lon="26.230366">
<ele>148.384888</ele>
<time>2010-07-17T10:53:37Z</time>
<desc>lat.=55.731728, lon.=26.230366, Alt.=148.384888m. Speed=2.628000m/h.</desc>
<speed>0.730000</speed>
</trkpt>
<trkpt lat="55.731720" lon="26.230362">
<ele>148.634888</ele>
<time>2010-07-17T10:53:38Z</time>
<desc>lat.=55.731720, lon.=26.230362, Alt.=148.634888m. Speed=2.772000m/h.</desc>
<speed>0.770000</speed>
</trkpt>
<trkpt lat="55.731709" lon="26.230362">
<ele>148.927856</ele>
<time>2010-07-17T10:53:39Z</time>
<desc>lat.=55.731709, lon.=26.230362, Alt.=148.927856m. Speed=3.456000m/h.</desc>
<speed>0.960000</speed>
</trkpt>
<trkpt lat="55.731689" lon="26.230371">
<ele>149.650513</ele>
<time>2010-07-17T10:53:40Z</time>
<desc>lat.=55.731689, lon.=26.230371, Alt.=149.650513m. Speed=3.816000m/h.</desc>
<speed>1.060000</speed>
</trkpt>
<trkpt lat="55.731674" lon="26.230400">
<ele>150.466919</ele>
<time>2010-07-17T10:53:41Z</time>
<desc>lat.=55.731674, lon.=26.230400, Alt.=150.466919m. Speed=4.140000m/h.</desc>
<speed>1.150000</speed>
</trkpt>
<trkpt lat="55.731659" lon="26.230423">
<ele>150.408325</ele>
<time>2010-07-17T10:53:42Z</time>
<desc>lat.=55.731659, lon.=26.230423, Alt.=150.408325m. Speed=4.716000m/h.</desc>
<speed>1.310000</speed>
</trkpt>
<trkpt lat="55.731628" lon="26.230495">
<ele>148.959106</ele>
<time>2010-07-17T10:53:43Z</time>
<desc>lat.=55.731628, lon.=26.230495, Alt.=148.959106m. Speed=8.136000m/h.</desc>
<speed>2.260000</speed>
</trkpt>
<trkpt lat="55.731625" lon="26.230536">
<ele>148.920044</ele>
<time>2010-07-17T10:53:44Z</time>
<desc>lat.=55.731625, lon.=26.230536, Alt.=148.920044m. Speed=8.820000m/h.</desc>
<speed>2.450000</speed>
</trkpt>
<trkpt lat="55.731621" lon="26.230574">
<ele>148.935669</ele>
<time>2010-07-17T10:53:45Z</time>
<desc>lat.=55.731621, lon.=26.230574, Alt.=148.935669m. Speed=8.748000m/h.</desc>
<speed>2.430000</speed>
</trkpt>
<trkpt lat="55.731625" lon="26.230635">
<ele>149.021606</ele>
<time>2010-07-17T10:53:46Z</time>
<desc>lat.=55.731625, lon.=26.230635, Alt.=149.021606m. Speed=13.104000m/h.</desc>
<speed>3.640000</speed>
</trkpt>
<trkpt lat="55.731632" lon="26.230684">
<ele>149.209106</ele>
<time>2010-07-17T10:53:47Z</time>
<desc>lat.=55.731632, lon.=26.230684, Alt.=149.209106m. Speed=10.764000m/h.</desc>
<speed>2.990000</speed>
</trkpt>
<trkpt lat="55.731632" lon="26.230728">
<ele>149.392700</ele>
<time>2010-07-17T10:53:48Z</time>
<desc>lat.=55.731632, lon.=26.230728, Alt.=149.392700m. Speed=10.332000m/h.</desc>
<speed>2.870000</speed>
</trkpt>
<trkpt lat="55.731632" lon="26.230789">
<ele>149.502075</ele>
<time>2010-07-17T10:53:49Z</time>
<desc>lat.=55.731632, lon.=26.230789, Alt.=149.502075m. Speed=12.420000m/h.</desc>
<speed>3.450000</speed>
</trkpt>
<trkpt lat="55.731628" lon="26.230844">
<ele>149.584106</ele>
<time>2010-07-17T10:53:50Z</time>
<desc>lat.=55.731628, lon.=26.230844, Alt.=149.584106m. Speed=11.412000m/h.</desc>
<speed>3.170000</speed>
</trkpt>
<trkpt lat="55.731632" lon="26.230896">
<ele>149.642700</ele>
<time>2010-07-17T10:53:51Z</time>
<desc>lat.=55.731632, lon.=26.230896, Alt.=149.642700m. Speed=10.332000m/h.</desc>
<speed>2.870000</speed>
</trkpt>
<trkpt lat="55.731621" lon="26.230947">
<ele>149.591919</ele>
<time>2010-07-17T10:53:52Z</time>
<desc>lat.=55.731621, lon.=26.230947, Alt.=149.591919m. Speed=8.712000m/h.</desc>
<speed>2.420000</speed>
</trkpt>
<trkpt lat="55.731609" lon="26.230989">
<ele>149.568481</ele>
<time>2010-07-17T10:53:53Z</time>
<desc>lat.=55.731609, lon.=26.230989, Alt.=149.568481m. Speed=7.020000m/h.</desc>
<speed>1.950000</speed>
</trkpt>
<trkpt lat="55.731590" lon="26.231024">
<ele>149.666138</ele>
<time>2010-07-17T10:53:54Z</time>
<desc>lat.=55.731590, lon.=26.231024, Alt.=149.666138m. Speed=5.976000m/h.</desc>
<speed>1.660000</speed>
</trkpt>
<trkpt lat="55.731583" lon="26.231062">
<ele>149.709106</ele>
<time>2010-07-17T10:53:55Z</time>
<desc>lat.=55.731583, lon.=26.231062, Alt.=149.709106m. Speed=5.904000m/h.</desc>
<speed>1.640000</speed>
</trkpt>
<trkpt lat="55.731556" lon="26.231104">
<ele>149.623169</ele>
<time>2010-07-17T10:53:56Z</time>
<desc>lat.=55.731556, lon.=26.231104, Alt.=149.623169m. Speed=7.596000m/h.</desc>
<speed>2.110000</speed>
</trkpt>
<trkpt lat="55.731541" lon="26.231148">
<ele>149.107544</ele>
<time>2010-07-17T10:53:57Z</time>
<desc>lat.=55.731541, lon.=26.231148, Alt.=149.107544m. Speed=6.768000m/h.</desc>
<speed>1.880000</speed>
</trkpt>
<trkpt lat="55.731518" lon="26.231178">
<ele>149.283325</ele>
<time>2010-07-17T10:53:58Z</time>
<desc>lat.=55.731518, lon.=26.231178, Alt.=149.283325m. Speed=5.904000m/h.</desc>
<speed>1.640000</speed>
</trkpt>
<trkpt lat="55.731503" lon="26.231205">
<ele>149.521606</ele>
<time>2010-07-17T10:53:59Z</time>
<desc>lat.=55.731503, lon.=26.231205, Alt.=149.521606m. Speed=4.752000m/h.</desc>
<speed>1.320000</speed>
</trkpt>
<trkpt lat="55.731495" lon="26.231253">
<ele>149.705200</ele>
<time>2010-07-17T10:54:00Z</time>
<desc>lat.=55.731495, lon.=26.231253, Alt.=149.705200m. Speed=3.348000m/h.</desc>
<speed>0.930000</speed>
</trkpt>
<trkpt lat="55.731491" lon="26.231281">
<ele>149.752075</ele>
<time>2010-07-17T10:54:01Z</time>
<desc>lat.=55.731491, lon.=26.231281, Alt.=149.752075m. Speed=5.148000m/h.</desc>
<speed>1.430000</speed>
</trkpt>
<trkpt lat="55.731480" lon="26.231316">
<ele>149.931763</ele>
<time>2010-07-17T10:54:02Z</time>
<desc>lat.=55.731480, lon.=26.231316, Alt.=149.931763m. Speed=5.688000m/h.</desc>
<speed>1.580000</speed>
</trkpt>
<trkpt lat="55.731461" lon="26.231354">
<ele>149.963013</ele>
<time>2010-07-17T10:54:03Z</time>
<desc>lat.=55.731461, lon.=26.231354, Alt.=149.963013m. Speed=5.292000m/h.</desc>
<speed>1.470000</speed>
</trkpt>
<trkpt lat="55.731449" lon="26.231384">
<ele>149.912231</ele>
<time>2010-07-17T10:54:04Z</time>
<desc>lat.=55.731449, lon.=26.231384, Alt.=149.912231m. Speed=4.428000m/h.</desc>
<speed>1.230000</speed>
</trkpt>
<trkpt lat="55.731438" lon="26.231419">
<ele>149.877075</ele>
<time>2010-07-17T10:54:05Z</time>
<desc>lat.=55.731438, lon.=26.231419, Alt.=149.877075m. Speed=1.872000m/h.</desc>
<speed>0.520000</speed>
</trkpt>
<trkpt lat="55.731438" lon="26.231411">
<ele>149.951294</ele>
<time>2010-07-17T10:54:06Z</time>
<desc>lat.=55.731438, lon.=26.231411, Alt.=149.951294m. Speed=0.576000m/h.</desc>
<speed>0.160000</speed>
</trkpt>
<trkpt lat="55.731426" lon="26.231415">
<ele>149.834106</ele>
<time>2010-07-17T10:54:07Z</time>
<desc>lat.=55.731426, lon.=26.231415, Alt.=149.834106m. Speed=0.216000m/h.</desc>
<speed>0.060000</speed>
</trkpt>
<trkpt lat="55.731419" lon="26.231422">
<ele>150.025513</ele>
<time>2010-07-17T10:54:08Z</time>
<desc>lat.=55.731419, lon.=26.231422, Alt.=150.025513m. Speed=0.504000m/h.</desc>
<speed>0.140000</speed>
</trkpt>
<trkpt lat="55.731419" lon="26.231424">
<ele>150.056763</ele>
<time>2010-07-17T10:54:09Z</time>
<desc>lat.=55.731419, lon.=26.231424, Alt.=150.056763m. Speed=0.648000m/h.</desc>
<speed>0.180000</speed>
</trkpt>
<trkpt lat="55.731419" lon="26.231426">
<ele>150.088013</ele>
<time>2010-07-17T10:54:10Z</time>
<desc>lat.=55.731419, lon.=26.231426, Alt.=150.088013m. Speed=0.288000m/h.</desc>
<speed>0.080000</speed>
</trkpt>
<trkpt lat="55.731419" lon="26.231426">
<ele>150.123169</ele>
<time>2010-07-17T10:54:11Z</time>
<desc>lat.=55.731419, lon.=26.231426, Alt.=150.123169m. Speed=1.656000m/h.</desc>
<speed>0.460000</speed>
</trkpt>
<trkpt lat="55.731415" lon="26.231422">
<ele>150.162231</ele>
<time>2010-07-17T10:54:12Z</time>
<desc>lat.=55.731415, lon.=26.231422, Alt.=150.162231m. Speed=0.216000m/h.</desc>
<speed>0.060000</speed>
</trkpt>
<trkpt lat="55.731415" lon="26.231424">
<ele>150.158325</ele>
<time>2010-07-17T10:54:13Z</time>
<desc>lat.=55.731415, lon.=26.231424, Alt.=150.158325m. Speed=0.972000m/h.</desc>
<speed>0.270000</speed>
</trkpt>
<trkpt lat="55.731415" lon="26.231426">
<ele>150.154419</ele>
<time>2010-07-17T10:54:14Z</time>
<desc>lat.=55.731415, lon.=26.231426, Alt.=150.154419m. Speed=0.072000m/h.</desc>
<speed>0.020000</speed>
</trkpt>
<trkpt lat="55.731415" lon="26.231426">
<ele>150.170044</ele>
<time>2010-07-17T10:54:15Z</time>
<desc>lat.=55.731415, lon.=26.231426, Alt.=150.170044m. Speed=2.124000m/h.</desc>
<speed>0.590000</speed>
</trkpt>
<trkpt lat="55.731415" lon="26.231419">
<ele>150.232544</ele>
<time>2010-07-17T10:54:16Z</time>
<desc>lat.=55.731415, lon.=26.231419, Alt.=150.232544m. Speed=2.304000m/h.</desc>
<speed>0.640000</speed>
</trkpt>
<trkpt lat="55.731415" lon="26.231409">
<ele>150.287231</ele>
<time>2010-07-17T10:54:17Z</time>
<desc>lat.=55.731415, lon.=26.231409, Alt.=150.287231m. Speed=0.756000m/h.</desc>
<speed>0.210000</speed>
</trkpt>
<trkpt lat="55.731415" lon="26.231405">
<ele>150.302856</ele>
<time>2010-07-17T10:54:18Z</time>
<desc>lat.=55.731415, lon.=26.231405, Alt.=150.302856m. Speed=0.720000m/h.</desc>
<speed>0.200000</speed>
</trkpt>
<trkpt lat="55.731411" lon="26.231405">
<ele>150.306763</ele>
<time>2010-07-17T10:54:19Z</time>
<desc>lat.=55.731411, lon.=26.231405, Alt.=150.306763m. Speed=0.540000m/h.</desc>
<speed>0.150000</speed>
</trkpt>
<trkpt lat="55.731411" lon="26.231401">
<ele>150.326294</ele>
<time>2010-07-17T10:54:20Z</time>
<desc>lat.=55.731411, lon.=26.231401, Alt.=150.326294m. Speed=1.476000m/h.</desc>
<speed>0.410000</speed>
</trkpt>
<trkpt lat="55.731415" lon="26.231396">
<ele>150.322388</ele>
<time>2010-07-17T10:54:21Z</time>
<desc>lat.=55.731415, lon.=26.231396, Alt.=150.322388m. Speed=3.348000m/h.</desc>
<speed>0.930000</speed>
</trkpt>
<trkpt lat="55.731419" lon="26.231388">
<ele>150.318481</ele>
<time>2010-07-17T10:54:22Z</time>
<desc>lat.=55.731419, lon.=26.231388, Alt.=150.318481m. Speed=3.564000m/h.</desc>
<speed>0.990000</speed>
</trkpt>
<trkpt lat="55.731426" lon="26.231377">
<ele>150.310669</ele>
<time>2010-07-17T10:54:23Z</time>
<desc>lat.=55.731426, lon.=26.231377, Alt.=150.310669m. Speed=4.500000m/h.</desc>
<speed>1.250000</speed>
</trkpt>
<trkpt lat="55.731438" lon="26.231367">
<ele>150.302856</ele>
<time>2010-07-17T10:54:24Z</time>
<desc>lat.=55.731438, lon.=26.231367, Alt.=150.302856m. Speed=3.924000m/h.</desc>
<speed>1.090000</speed>
</trkpt>
<trkpt lat="55.731434" lon="26.231367">
<ele>149.841919</ele>
<time>2010-07-17T10:54:25Z</time>
<desc>lat.=55.731434, lon.=26.231367, Alt.=149.841919m. Speed=0.900000m/h.</desc>
<speed>0.250000</speed>
</trkpt>
<trkpt lat="55.731434" lon="26.231371">
<ele>149.638794</ele>
<time>2010-07-17T10:54:26Z</time>
<desc>lat.=55.731434, lon.=26.231371, Alt.=149.638794m. Speed=0.612000m/h.</desc>
<speed>0.170000</speed>
</trkpt>
<trkpt lat="55.731434" lon="26.231382">
<ele>149.365356</ele>
<time>2010-07-17T10:54:27Z</time>
<desc>lat.=55.731434, lon.=26.231382, Alt.=149.365356m. Speed=0.324000m/h.</desc>
<speed>0.090000</speed>
</trkpt>
<trkpt lat="55.731430" lon="26.231388">
<ele>148.861450</ele>
<time>2010-07-17T10:54:28Z</time>
<desc>lat.=55.731430, lon.=26.231388, Alt.=148.861450m. Speed=0.468000m/h.</desc>
<speed>0.130000</speed>
</trkpt>
<trkpt lat="55.731430" lon="26.231390">
<ele>148.861450</ele>
<time>2010-07-17T10:54:29Z</time>
<desc>lat.=55.731430, lon.=26.231390, Alt.=148.861450m. Speed=0.360000m/h.</desc>
<speed>0.100000</speed>
</trkpt>
<trkpt lat="55.731430" lon="26.231388">
<ele>148.853638</ele>
<time>2010-07-17T10:54:30Z</time>
<desc>lat.=55.731430, lon.=26.231388, Alt.=148.853638m. Speed=0.360000m/h.</desc>
<speed>0.100000</speed>
</trkpt>
<trkpt lat="55.731430" lon="26.231390">
<ele>148.861450</ele>
<time>2010-07-17T10:54:31Z</time>
<desc>lat.=55.731430, lon.=26.231390, Alt.=148.861450m. Speed=0.396000m/h.</desc>
<speed>0.110000</speed>
</trkpt>
<trkpt lat="55.731430" lon="26.231392">
<ele>148.861450</ele>
<time>2010-07-17T10:54:32Z</time>
<desc>lat.=55.731430, lon.=26.231392, Alt.=148.861450m. Speed=0.936000m/h.</desc>
<speed>0.260000</speed>
</trkpt>
<trkpt lat="55.731430" lon="26.231388">
<ele>148.830200</ele>
<time>2010-07-17T10:54:33Z</time>
<desc>lat.=55.731430, lon.=26.231388, Alt.=148.830200m. Speed=0.216000m/h.</desc>
<speed>0.060000</speed>
</trkpt>
<trkpt lat="55.731430" lon="26.231388">
<ele>148.822388</ele>
<time>2010-07-17T10:54:34Z</time>
<desc>lat.=55.731430, lon.=26.231388, Alt.=148.822388m. Speed=0.684000m/h.</desc>
<speed>0.190000</speed>
</trkpt>
<trkpt lat="55.731430" lon="26.231386">
<ele>148.826294</ele>
<time>2010-07-17T10:54:35Z</time>
<desc>lat.=55.731430, lon.=26.231386, Alt.=148.826294m. Speed=1.080000m/h.</desc>
<speed>0.300000</speed>
</trkpt>
<trkpt lat="55.731430" lon="26.231386">
<ele>148.693481</ele>
<time>2010-07-17T10:54:36Z</time>
<desc>lat.=55.731430, lon.=26.231386, Alt.=148.693481m. Speed=0.828000m/h.</desc>
<speed>0.230000</speed>
</trkpt>
<trkpt lat="55.731430" lon="26.231388">
<ele>148.466919</ele>
<time>2010-07-17T10:54:37Z</time>
<desc>lat.=55.731430, lon.=26.231388, Alt.=148.466919m. Speed=0.000000m/h.</desc>
<speed>0.000000</speed>
</trkpt>
<trkpt lat="55.731430" lon="26.231390">
<ele>148.295044</ele>
<time>2010-07-17T10:54:38Z</time>
<desc>lat.=55.731430, lon.=26.231390, Alt.=148.295044m. Speed=0.108000m/h.</desc>
<speed>0.030000</speed>
</trkpt>
<trkpt lat="55.731422" lon="26.231392">
<ele>149.041138</ele>
<time>2010-07-17T10:54:39Z</time>
<desc>lat.=55.731422, lon.=26.231392, Alt.=149.041138m. Speed=0.828000m/h.</desc>
<speed>0.230000</speed>
</trkpt>
<trkpt lat="55.731422" lon="26.231390">
<ele>149.080200</ele>
<time>2010-07-17T10:54:40Z</time>
<desc>lat.=55.731422, lon.=26.231390, Alt.=149.080200m. Speed=0.036000m/h.</desc>
<speed>0.010000</speed>
</trkpt>
<trkpt lat="55.731422" lon="26.231390">
<ele>149.091919</ele>
<time>2010-07-17T10:54:41Z</time>
<desc>lat.=55.731422, lon.=26.231390, Alt.=149.091919m. Speed=0.288000m/h.</desc>
<speed>0.080000</speed>
</trkpt>
<trkpt lat="55.731422" lon="26.231392">
<ele>149.091919</ele>
<time>2010-07-17T10:54:42Z</time>
<desc>lat.=55.731422, lon.=26.231392, Alt.=149.091919m. Speed=0.360000m/h.</desc>
<speed>0.100000</speed>
</trkpt>
<trkpt lat="55.731422" lon="26.231390">
<ele>149.107544</ele>
<time>2010-07-17T10:54:43Z</time>
<desc>lat.=55.731422, lon.=26.231390, Alt.=149.107544m. Speed=0.792000m/h.</desc>
<speed>0.220000</speed>
</trkpt>
<trkpt lat="55.731422" lon="26.231386">
<ele>149.103638</ele>
<time>2010-07-17T10:54:44Z</time>
<desc>lat.=55.731422, lon.=26.231386, Alt.=149.103638m. Speed=0.396000m/h.</desc>
<speed>0.110000</speed>
</trkpt>
<trkpt lat="55.731426" lon="26.231386">
<ele>149.107544</ele>
<time>2010-07-17T10:54:45Z</time>
<desc>lat.=55.731426, lon.=26.231386, Alt.=149.107544m. Speed=0.252000m/h.</desc>
<speed>0.070000</speed>
</trkpt>
<trkpt lat="55.731426" lon="26.231386">
<ele>149.103638</ele>
<time>2010-07-17T10:54:46Z</time>
<desc>lat.=55.731426, lon.=26.231386, Alt.=149.103638m. Speed=0.180000m/h.</desc>
<speed>0.050000</speed>
</trkpt>
<trkpt lat="55.731426" lon="26.231386">
<ele>149.099731</ele>
<time>2010-07-17T10:54:47Z</time>
<desc>lat.=55.731426, lon.=26.231386, Alt.=149.099731m. Speed=0.216000m/h.</desc>
<speed>0.060000</speed>
</trkpt>
<trkpt lat="55.731426" lon="26.231384">
<ele>149.088013</ele>
<time>2010-07-17T10:54:48Z</time>
<desc>lat.=55.731426, lon.=26.231384, Alt.=149.088013m. Speed=0.432000m/h.</desc>
<speed>0.120000</speed>
</trkpt>
<trkpt lat="55.731426" lon="26.231384">
<ele>149.084106</ele>
<time>2010-07-17T10:54:49Z</time>
<desc>lat.=55.731426, lon.=26.231384, Alt.=149.084106m. Speed=0.360000m/h.</desc>
<speed>0.100000</speed>
</trkpt>
<trkpt lat="55.731426" lon="26.231382">
<ele>149.076294</ele>
<time>2010-07-17T10:54:50Z</time>
<desc>lat.=55.731426, lon.=26.231382, Alt.=149.076294m. Speed=0.252000m/h.</desc>
<speed>0.070000</speed>
</trkpt>
<trkpt lat="55.731426" lon="26.231380">
<ele>149.072388</ele>
<time>2010-07-17T10:54:51Z</time>
<desc>lat.=55.731426, lon.=26.231380, Alt.=149.072388m. Speed=0.468000m/h.</desc>
<speed>0.130000</speed>
</trkpt>
<trkpt lat="55.731422" lon="26.231382">
<ele>149.068481</ele>
<time>2010-07-17T10:54:52Z</time>
<desc>lat.=55.731422, lon.=26.231382, Alt.=149.068481m. Speed=0.504000m/h.</desc>
<speed>0.140000</speed>
</trkpt>
<trkpt lat="55.731422" lon="26.231380">
<ele>149.064575</ele>
<time>2010-07-17T10:54:53Z</time>
<desc>lat.=55.731422, lon.=26.231380, Alt.=149.064575m. Speed=0.468000m/h.</desc>
<speed>0.130000</speed>
</trkpt>
<trkpt lat="55.731422" lon="26.231380">
<ele>149.060669</ele>
<time>2010-07-17T10:54:54Z</time>
<desc>lat.=55.731422, lon.=26.231380, Alt.=149.060669m. Speed=0.324000m/h.</desc>
<speed>0.090000</speed>
</trkpt>
<trkpt lat="55.731419" lon="26.231380">
<ele>149.060669</ele>
<time>2010-07-17T10:54:55Z</time>
<desc>lat.=55.731419, lon.=26.231380, Alt.=149.060669m. Speed=0.396000m/h.</desc>
<speed>0.110000</speed>
</trkpt>
<trkpt lat="55.731419" lon="26.231382">
<ele>149.052856</ele>
<time>2010-07-17T10:54:56Z</time>
<desc>lat.=55.731419, lon.=26.231382, Alt.=149.052856m. Speed=0.324000m/h.</desc>
<speed>0.090000</speed>
</trkpt>
<trkpt lat="55.731419" lon="26.231382">
<ele>149.045044</ele>
<time>2010-07-17T10:54:57Z</time>
<desc>lat.=55.731419, lon.=26.231382, Alt.=149.045044m. Speed=0.144000m/h.</desc>
<speed>0.040000</speed>
</trkpt>
<trkpt lat="55.731419" lon="26.231382">
<ele>149.037231</ele>
<time>2010-07-17T10:54:58Z</time>
<desc>lat.=55.731419, lon.=26.231382, Alt.=149.037231m. Speed=0.072000m/h.</desc>
<speed>0.020000</speed>
</trkpt>
<trkpt lat="55.731419" lon="26.231382">
<ele>149.033325</ele>
<time>2010-07-17T10:54:59Z</time>
<desc>lat.=55.731419, lon.=26.231382, Alt.=149.033325m. Speed=0.216000m/h.</desc>
<speed>0.060000</speed>
</trkpt>
<trkpt lat="55.731419" lon="26.231382">
<ele>149.029419</ele>
<time>2010-07-17T10:55:00Z</time>
<desc>lat.=55.731419, lon.=26.231382, Alt.=149.029419m. Speed=0.108000m/h.</desc>
<speed>0.030000</speed>
</trkpt>
<trkpt lat="55.731419" lon="26.231382">
<ele>149.029419</ele>
<time>2010-07-17T10:55:01Z</time>
<desc>lat.=55.731419, lon.=26.231382, Alt.=149.029419m. Speed=0.180000m/h.</desc>
<speed>0.050000</speed>
</trkpt>
<trkpt lat="55.731419" lon="26.231382">
<ele>149.029419</ele>
<time>2010-07-17T10:55:02Z</time>
<desc>lat.=55.731419, lon.=26.231382, Alt.=149.029419m. Speed=0.144000m/h.</desc>
<speed>0.040000</speed>
</trkpt>
<trkpt lat="55.731419" lon="26.231382">
<ele>149.029419</ele>
<time>2010-07-17T10:55:03Z</time>
<desc>lat.=55.731419, lon.=26.231382, Alt.=149.029419m. Speed=0.108000m/h.</desc>
<speed>0.030000</speed>
</trkpt>
<trkpt lat="55.731419" lon="26.231382">
<ele>149.029419</ele>
<time>2010-07-17T10:55:04Z</time>
<desc>lat.=55.731419, lon.=26.231382, Alt.=149.029419m. Speed=0.108000m/h.</desc>
<speed>0.030000</speed>
</trkpt>
<trkpt lat="55.731419" lon="26.231382">
<ele>149.025513</ele>
<time>2010-07-17T10:55:05Z</time>
<desc>lat.=55.731419, lon.=26.231382, Alt.=149.025513m. Speed=0.036000m/h.</desc>
<speed>0.010000</speed>
</trkpt>
<trkpt lat="55.731419" lon="26.231382">
<ele>149.025513</ele>
<time>2010-07-17T10:55:06Z</time>
<desc>lat.=55.731419, lon.=26.231382, Alt.=149.025513m. Speed=0.216000m/h.</desc>
<speed>0.060000</speed>
</trkpt>
<trkpt lat="55.731419" lon="26.231382">
<ele>149.025513</ele>
<time>2010-07-17T10:55:07Z</time>
<desc>lat.=55.731419, lon.=26.231382, Alt.=149.025513m. Speed=0.324000m/h.</desc>
<speed>0.090000</speed>
</trkpt>
<trkpt lat="55.731419" lon="26.231384">
<ele>149.021606</ele>
<time>2010-07-17T10:55:08Z</time>
<desc>lat.=55.731419, lon.=26.231384, Alt.=149.021606m. Speed=0.540000m/h.</desc>
<speed>0.150000</speed>
</trkpt>
<trkpt lat="55.731419" lon="26.231386">
<ele>149.017700</ele>
<time>2010-07-17T10:55:09Z</time>
<desc>lat.=55.731419, lon.=26.231386, Alt.=149.017700m. Speed=0.432000m/h.</desc>
<speed>0.120000</speed>
</trkpt>
<trkpt lat="55.731422" lon="26.231388">
<ele>149.013794</ele>
<time>2010-07-17T10:55:10Z</time>
<desc>lat.=55.731422, lon.=26.231388, Alt.=149.013794m. Speed=0.180000m/h.</desc>
<speed>0.050000</speed>
</trkpt>
<trkpt lat="55.731422" lon="26.231388">
<ele>149.017700</ele>
<time>2010-07-17T10:55:11Z</time>
<desc>lat.=55.731422, lon.=26.231388, Alt.=149.017700m. Speed=0.216000m/h.</desc>
<speed>0.060000</speed>
</trkpt>
<trkpt lat="55.731422" lon="26.231388">
<ele>149.017700</ele>
<time>2010-07-17T10:55:12Z</time>
<desc>lat.=55.731422, lon.=26.231388, Alt.=149.017700m. Speed=0.468000m/h.</desc>
<speed>0.130000</speed>
</trkpt>
<trkpt lat="55.731422" lon="26.231390">
<ele>149.009888</ele>
<time>2010-07-17T10:55:13Z</time>
<desc>lat.=55.731422, lon.=26.231390, Alt.=149.009888m. Speed=0.216000m/h.</desc>
<speed>0.060000</speed>
</trkpt>
<trkpt lat="55.731422" lon="26.231390">
<ele>149.005981</ele>
<time>2010-07-17T10:55:14Z</time>
<desc>lat.=55.731422, lon.=26.231390, Alt.=149.005981m. Speed=0.108000m/h.</desc>
<speed>0.030000</speed>
</trkpt>
<trkpt lat="55.731422" lon="26.231392">
<ele>149.002075</ele>
<time>2010-07-17T10:55:15Z</time>
<desc>lat.=55.731422, lon.=26.231392, Alt.=149.002075m. Speed=0.288000m/h.</desc>
<speed>0.080000</speed>
</trkpt>
<trkpt lat="55.731422" lon="26.231392">
<ele>148.998169</ele>
<time>2010-07-17T10:55:16Z</time>
<desc>lat.=55.731422, lon.=26.231392, Alt.=148.998169m. Speed=0.288000m/h.</desc>
<speed>0.080000</speed>
</trkpt>
<trkpt lat="55.731419" lon="26.231392">
<ele>148.994263</ele>
<time>2010-07-17T10:55:17Z</time>
<desc>lat.=55.731419, lon.=26.231392, Alt.=148.994263m. Speed=0.324000m/h.</desc>
<speed>0.090000</speed>
</trkpt>
<trkpt lat="55.731419" lon="26.231390">
<ele>148.990356</ele>
<time>2010-07-17T10:55:18Z</time>
<desc>lat.=55.731419, lon.=26.231390, Alt.=148.990356m. Speed=0.432000m/h.</desc>
<speed>0.120000</speed>
</trkpt>
<trkpt lat="55.731419" lon="26.231390">
<ele>148.986450</ele>
<time>2010-07-17T10:55:19Z</time>
<desc>lat.=55.731419, lon.=26.231390, Alt.=148.986450m. Speed=0.396000m/h.</desc>
<speed>0.110000</speed>
</trkpt>
<trkpt lat="55.731419" lon="26.231388">
<ele>148.986450</ele>
<time>2010-07-17T10:55:20Z</time>
<desc>lat.=55.731419, lon.=26.231388, Alt.=148.986450m. Speed=0.252000m/h.</desc>
<speed>0.070000</speed>
</trkpt>
<trkpt lat="55.731419" lon="26.231388">
<ele>148.982544</ele>
<time>2010-07-17T10:55:21Z</time>
<desc>lat.=55.731419, lon.=26.231388, Alt.=148.982544m. Speed=0.504000m/h.</desc>
<speed>0.140000</speed>
</trkpt>
<trkpt lat="55.731415" lon="26.231388">
<ele>148.978638</ele>
<time>2010-07-17T10:55:22Z</time>
<desc>lat.=55.731415, lon.=26.231388, Alt.=148.978638m. Speed=0.720000m/h.</desc>
<speed>0.200000</speed>
</trkpt>
<trkpt lat="55.731415" lon="26.231388">
<ele>148.978638</ele>
<time>2010-07-17T10:55:23Z</time>
<desc>lat.=55.731415, lon.=26.231388, Alt.=148.978638m. Speed=0.504000m/h.</desc>
<speed>0.140000</speed>
</trkpt>
<trkpt lat="55.731411" lon="26.231388">
<ele>148.978638</ele>
<time>2010-07-17T10:55:24Z</time>
<desc>lat.=55.731411, lon.=26.231388, Alt.=148.978638m. Speed=0.468000m/h.</desc>
<speed>0.130000</speed>
</trkpt>
<trkpt lat="55.731411" lon="26.231388">
<ele>148.978638</ele>
<time>2010-07-17T10:55:25Z</time>
<desc>lat.=55.731411, lon.=26.231388, Alt.=148.978638m. Speed=0.612000m/h.</desc>
<speed>0.170000</speed>
</trkpt>
<trkpt lat="55.731411" lon="26.231390">
<ele>148.978638</ele>
<time>2010-07-17T10:55:26Z</time>
<desc>lat.=55.731411, lon.=26.231390, Alt.=148.978638m. Speed=0.504000m/h.</desc>
<speed>0.140000</speed>
</trkpt>
<trkpt lat="55.731407" lon="26.231390">
<ele>148.978638</ele>
<time>2010-07-17T10:55:27Z</time>
<desc>lat.=55.731407, lon.=26.231390, Alt.=148.978638m. Speed=0.252000m/h.</desc>
<speed>0.070000</speed>
</trkpt>
<trkpt lat="55.731411" lon="26.231392">
<ele>148.978638</ele>
<time>2010-07-17T10:55:28Z</time>
<desc>lat.=55.731411, lon.=26.231392, Alt.=148.978638m. Speed=0.252000m/h.</desc>
<speed>0.070000</speed>
</trkpt>
<trkpt lat="55.731411" lon="26.231392">
<ele>148.978638</ele>
<time>2010-07-17T10:55:29Z</time>
<desc>lat.=55.731411, lon.=26.231392, Alt.=148.978638m. Speed=0.360000m/h.</desc>
<speed>0.100000</speed>
</trkpt>
<trkpt lat="55.731411" lon="26.231392">
<ele>148.978638</ele>
<time>2010-07-17T10:55:30Z</time>
<desc>lat.=55.731411, lon.=26.231392, Alt.=148.978638m. Speed=0.180000m/h.</desc>
<speed>0.050000</speed>
</trkpt>
<trkpt lat="55.731411" lon="26.231394">
<ele>148.974731</ele>
<time>2010-07-17T10:55:31Z</time>
<desc>lat.=55.731411, lon.=26.231394, Alt.=148.974731m. Speed=0.144000m/h.</desc>
<speed>0.040000</speed>
</trkpt>
<trkpt lat="55.731411" lon="26.231394">
<ele>148.978638</ele>
<time>2010-07-17T10:55:32Z</time>
<desc>lat.=55.731411, lon.=26.231394, Alt.=148.978638m. Speed=0.144000m/h.</desc>
<speed>0.040000</speed>
</trkpt>
<trkpt lat="55.731411" lon="26.231394">
<ele>148.982544</ele>
<time>2010-07-17T10:55:33Z</time>
<desc>lat.=55.731411, lon.=26.231394, Alt.=148.982544m. Speed=0.360000m/h.</desc>
<speed>0.100000</speed>
</trkpt>
<trkpt lat="55.731411" lon="26.231396">
<ele>148.978638</ele>
<time>2010-07-17T10:55:34Z</time>
<desc>lat.=55.731411, lon.=26.231396, Alt.=148.978638m. Speed=0.576000m/h.</desc>
<speed>0.160000</speed>
</trkpt>
<trkpt lat="55.731415" lon="26.231396">
<ele>148.978638</ele>
<time>2010-07-17T10:55:35Z</time>
<desc>lat.=55.731415, lon.=26.231396, Alt.=148.978638m. Speed=0.396000m/h.</desc>
<speed>0.110000</speed>
</trkpt>
<trkpt lat="55.731415" lon="26.231398">
<ele>148.974731</ele>
<time>2010-07-17T10:55:36Z</time>
<desc>lat.=55.731415, lon.=26.231398, Alt.=148.974731m. Speed=0.288000m/h.</desc>
<speed>0.080000</speed>
</trkpt>
<trkpt lat="55.731415" lon="26.231400">
<ele>148.974731</ele>
<time>2010-07-17T10:55:37Z</time>
<desc>lat.=55.731415, lon.=26.231400, Alt.=148.974731m. Speed=0.612000m/h.</desc>
<speed>0.170000</speed>
</trkpt>
<trkpt lat="55.731415" lon="26.231401">
<ele>148.966919</ele>
<time>2010-07-17T10:55:38Z</time>
<desc>lat.=55.731415, lon.=26.231401, Alt.=148.966919m. Speed=0.396000m/h.</desc>
<speed>0.110000</speed>
</trkpt>
<trkpt lat="55.731415" lon="26.231403">
<ele>148.963013</ele>
<time>2010-07-17T10:55:39Z</time>
<desc>lat.=55.731415, lon.=26.231403, Alt.=148.963013m. Speed=0.180000m/h.</desc>
<speed>0.050000</speed>
</trkpt>
<trkpt lat="55.731415" lon="26.231403">
<ele>148.955200</ele>
<time>2010-07-17T10:55:40Z</time>
<desc>lat.=55.731415, lon.=26.231403, Alt.=148.955200m. Speed=0.144000m/h.</desc>
<speed>0.040000</speed>
</trkpt>
<trkpt lat="55.731415" lon="26.231405">
<ele>148.951294</ele>
<time>2010-07-17T10:55:41Z</time>
<desc>lat.=55.731415, lon.=26.231405, Alt.=148.951294m. Speed=0.180000m/h.</desc>
<speed>0.050000</speed>
</trkpt>
<trkpt lat="55.731415" lon="26.231405">
<ele>148.951294</ele>
<time>2010-07-17T10:55:42Z</time>
<desc>lat.=55.731415, lon.=26.231405, Alt.=148.951294m. Speed=0.288000m/h.</desc>
<speed>0.080000</speed>
</trkpt>
<trkpt lat="55.731415" lon="26.231403">
<ele>148.959106</ele>
<time>2010-07-17T10:55:43Z</time>
<desc>lat.=55.731415, lon.=26.231403, Alt.=148.959106m. Speed=0.288000m/h.</desc>
<speed>0.080000</speed>
</trkpt>
<trkpt lat="55.731415" lon="26.231403">
<ele>148.966919</ele>
<time>2010-07-17T10:55:44Z</time>
<desc>lat.=55.731415, lon.=26.231403, Alt.=148.966919m. Speed=0.180000m/h.</desc>
<speed>0.050000</speed>
</trkpt>
<trkpt lat="55.731415" lon="26.231405">
<ele>148.970825</ele>
<time>2010-07-17T10:55:45Z</time>
<desc>lat.=55.731415, lon.=26.231405, Alt.=148.970825m. Speed=0.252000m/h.</desc>
<speed>0.070000</speed>
</trkpt>
<trkpt lat="55.731415" lon="26.231405">
<ele>148.966919</ele>
<time>2010-07-17T10:55:46Z</time>
<desc>lat.=55.731415, lon.=26.231405, Alt.=148.966919m. Speed=0.072000m/h.</desc>
<speed>0.020000</speed>
</trkpt>
<trkpt lat="55.731415" lon="26.231405">
<ele>148.966919</ele>
<time>2010-07-17T10:55:47Z</time>
<desc>lat.=55.731415, lon.=26.231405, Alt.=148.966919m. Speed=0.000000m/h.</desc>
<speed>0.000000</speed>
</trkpt>
<trkpt lat="55.731415" lon="26.231405">
<ele>148.966919</ele>
<time>2010-07-17T10:55:48Z</time>
<desc>lat.=55.731415, lon.=26.231405, Alt.=148.966919m. Speed=0.288000m/h.</desc>
<speed>0.080000</speed>
</trkpt>
<trkpt lat="55.731415" lon="26.231405">
<ele>148.963013</ele>
<time>2010-07-17T10:55:49Z</time>
<desc>lat.=55.731415, lon.=26.231405, Alt.=148.963013m. Speed=0.216000m/h.</desc>
<speed>0.060000</speed>
</trkpt>
<trkpt lat="55.731415" lon="26.231405">
<ele>148.951294</ele>
<time>2010-07-17T10:55:50Z</time>
<desc>lat.=55.731415, lon.=26.231405, Alt.=148.951294m. Speed=0.432000m/h.</desc>
<speed>0.120000</speed>
</trkpt>
<trkpt lat="55.731415" lon="26.231403">
<ele>148.951294</ele>
<time>2010-07-17T10:55:51Z</time>
<desc>lat.=55.731415, lon.=26.231403, Alt.=148.951294m. Speed=0.360000m/h.</desc>
<speed>0.100000</speed>
</trkpt>
<trkpt lat="55.731415" lon="26.231401">
<ele>148.947388</ele>
<time>2010-07-17T10:55:52Z</time>
<desc>lat.=55.731415, lon.=26.231401, Alt.=148.947388m. Speed=0.360000m/h.</desc>
<speed>0.100000</speed>
</trkpt>
<trkpt lat="55.731411" lon="26.231400">
<ele>148.947388</ele>
<time>2010-07-17T10:55:53Z</time>
<desc>lat.=55.731411, lon.=26.231400, Alt.=148.947388m. Speed=0.180000m/h.</desc>
<speed>0.050000</speed>
</trkpt>
<trkpt lat="55.731411" lon="26.231400">
<ele>148.947388</ele>
<time>2010-07-17T10:55:54Z</time>
<desc>lat.=55.731411, lon.=26.231400, Alt.=148.947388m. Speed=0.216000m/h.</desc>
<speed>0.060000</speed>
</trkpt>
<trkpt lat="55.731415" lon="26.231400">
<ele>148.943481</ele>
<time>2010-07-17T10:55:55Z</time>
<desc>lat.=55.731415, lon.=26.231400, Alt.=148.943481m. Speed=0.180000m/h.</desc>
<speed>0.050000</speed>
</trkpt>
<trkpt lat="55.731415" lon="26.231400">
<ele>148.943481</ele>
<time>2010-07-17T10:55:56Z</time>
<desc>lat.=55.731415, lon.=26.231400, Alt.=148.943481m. Speed=0.180000m/h.</desc>
<speed>0.050000</speed>
</trkpt>
<trkpt lat="55.731415" lon="26.231401">
<ele>148.931763</ele>
<time>2010-07-17T10:55:57Z</time>
<desc>lat.=55.731415, lon.=26.231401, Alt.=148.931763m. Speed=0.360000m/h.</desc>
<speed>0.100000</speed>
</trkpt>
<trkpt lat="55.731415" lon="26.231401">
<ele>148.923950</ele>
<time>2010-07-17T10:55:58Z</time>
<desc>lat.=55.731415, lon.=26.231401, Alt.=148.923950m. Speed=0.108000m/h.</desc>
<speed>0.030000</speed>
</trkpt>
<trkpt lat="55.731415" lon="26.231403">
<ele>148.923950</ele>
<time>2010-07-17T10:55:59Z</time>
<desc>lat.=55.731415, lon.=26.231403, Alt.=148.923950m. Speed=0.360000m/h.</desc>
<speed>0.100000</speed>
</trkpt>
<trkpt lat="55.731415" lon="26.231403">
<ele>148.920044</ele>
<time>2010-07-17T10:56:00Z</time>
<desc>lat.=55.731415, lon.=26.231403, Alt.=148.920044m. Speed=0.468000m/h.</desc>
<speed>0.130000</speed>
</trkpt>
<trkpt lat="55.731415" lon="26.231405">
<ele>148.920044</ele>
<time>2010-07-17T10:56:01Z</time>
<desc>lat.=55.731415, lon.=26.231405, Alt.=148.920044m. Speed=0.612000m/h.</desc>
<speed>0.170000</speed>
</trkpt>
<trkpt lat="55.731419" lon="26.231407">
<ele>148.916138</ele>
<time>2010-07-17T10:56:02Z</time>
<desc>lat.=55.731419, lon.=26.231407, Alt.=148.916138m. Speed=0.576000m/h.</desc>
<speed>0.160000</speed>
</trkpt>
<trkpt lat="55.731419" lon="26.231409">
<ele>148.912231</ele>
<time>2010-07-17T10:56:03Z</time>
<desc>lat.=55.731419, lon.=26.231409, Alt.=148.912231m. Speed=0.576000m/h.</desc>
<speed>0.160000</speed>
</trkpt>
<trkpt lat="55.731419" lon="26.231411">
<ele>148.908325</ele>
<time>2010-07-17T10:56:04Z</time>
<desc>lat.=55.731419, lon.=26.231411, Alt.=148.908325m. Speed=0.864000m/h.</desc>
<speed>0.240000</speed>
</trkpt>
<trkpt lat="55.731422" lon="26.231415">
<ele>148.904419</ele>
<time>2010-07-17T10:56:05Z</time>
<desc>lat.=55.731422, lon.=26.231415, Alt.=148.904419m. Speed=0.900000m/h.</desc>
<speed>0.250000</speed>
</trkpt>
<trkpt lat="55.731422" lon="26.231415">
<ele>148.900513</ele>
<time>2010-07-17T10:56:06Z</time>
<desc>lat.=55.731422, lon.=26.231415, Alt.=148.900513m. Speed=0.720000m/h.</desc>
<speed>0.200000</speed>
</trkpt>
<trkpt lat="55.731426" lon="26.231417">
<ele>148.892700</ele>
<time>2010-07-17T10:56:07Z</time>
<desc>lat.=55.731426, lon.=26.231417, Alt.=148.892700m. Speed=0.936000m/h.</desc>
<speed>0.260000</speed>
</trkpt>
<trkpt lat="55.731426" lon="26.231417">
<ele>148.888794</ele>
<time>2010-07-17T10:56:08Z</time>
<desc>lat.=55.731426, lon.=26.231417, Alt.=148.888794m. Speed=1.116000m/h.</desc>
<speed>0.310000</speed>
</trkpt>
<trkpt lat="55.731434" lon="26.231422">
<ele>148.966919</ele>
<time>2010-07-17T10:56:09Z</time>
<desc>lat.=55.731434, lon.=26.231422, Alt.=148.966919m. Speed=1.404000m/h.</desc>
<speed>0.390000</speed>
</trkpt>
<trkpt lat="55.731430" lon="26.231430">
<ele>149.017700</ele>
<time>2010-07-17T10:56:10Z</time>
<desc>lat.=55.731430, lon.=26.231430, Alt.=149.017700m. Speed=1.044000m/h.</desc>
<speed>0.290000</speed>
</trkpt>
<trkpt lat="55.731430" lon="26.231436">
<ele>149.045044</ele>
<time>2010-07-17T10:56:11Z</time>
<desc>lat.=55.731430, lon.=26.231436, Alt.=149.045044m. Speed=0.792000m/h.</desc>
<speed>0.220000</speed>
</trkpt>
<trkpt lat="55.731430" lon="26.231438">
<ele>149.068481</ele>
<time>2010-07-17T10:56:12Z</time>
<desc>lat.=55.731430, lon.=26.231438, Alt.=149.068481m. Speed=0.684000m/h.</desc>
<speed>0.190000</speed>
</trkpt>
<trkpt lat="55.731422" lon="26.231436">
<ele>148.767700</ele>
<time>2010-07-17T10:56:13Z</time>
<desc>lat.=55.731422, lon.=26.231436, Alt.=148.767700m. Speed=0.396000m/h.</desc>
<speed>0.110000</speed>
</trkpt>
<trkpt lat="55.731422" lon="26.231438">
<ele>148.755981</ele>
<time>2010-07-17T10:56:14Z</time>
<desc>lat.=55.731422, lon.=26.231438, Alt.=148.755981m. Speed=0.360000m/h.</desc>
<speed>0.100000</speed>
</trkpt>
<trkpt lat="55.731422" lon="26.231438">
<ele>148.744263</ele>
<time>2010-07-17T10:56:15Z</time>
<desc>lat.=55.731422, lon.=26.231438, Alt.=148.744263m. Speed=0.072000m/h.</desc>
<speed>0.020000</speed>
</trkpt>
<trkpt lat="55.731422" lon="26.231438">
<ele>148.732544</ele>
<time>2010-07-17T10:56:16Z</time>
<desc>lat.=55.731422, lon.=26.231438, Alt.=148.732544m. Speed=0.144000m/h.</desc>
<speed>0.040000</speed>
</trkpt>
<trkpt lat="55.731422" lon="26.231438">
<ele>148.720825</ele>
<time>2010-07-17T10:56:17Z</time>
<desc>lat.=55.731422, lon.=26.231438, Alt.=148.720825m. Speed=0.072000m/h.</desc>
<speed>0.020000</speed>
</trkpt>
<trkpt lat="55.731422" lon="26.231438">
<ele>148.705200</ele>
<time>2010-07-17T10:56:18Z</time>
<desc>lat.=55.731422, lon.=26.231438, Alt.=148.705200m. Speed=0.180000m/h.</desc>
<speed>0.050000</speed>
</trkpt>
<trkpt lat="55.731422" lon="26.231438">
<ele>148.693481</ele>
<time>2010-07-17T10:56:19Z</time>
<desc>lat.=55.731422, lon.=26.231438, Alt.=148.693481m. Speed=0.216000m/h.</desc>
<speed>0.060000</speed>
</trkpt>
<trkpt lat="55.731422" lon="26.231436">
<ele>148.681763</ele>
<time>2010-07-17T10:56:20Z</time>
<desc>lat.=55.731422, lon.=26.231436, Alt.=148.681763m. Speed=0.288000m/h.</desc>
<speed>0.080000</speed>
</trkpt>
<trkpt lat="55.731422" lon="26.231436">
<ele>148.666138</ele>
<time>2010-07-17T10:56:21Z</time>
<desc>lat.=55.731422, lon.=26.231436, Alt.=148.666138m. Speed=0.324000m/h.</desc>
<speed>0.090000</speed>
</trkpt>
<trkpt lat="55.731422" lon="26.231434">
<ele>148.654419</ele>
<time>2010-07-17T10:56:22Z</time>
<desc>lat.=55.731422, lon.=26.231434, Alt.=148.654419m. Speed=0.432000m/h.</desc>
<speed>0.120000</speed>
</trkpt>
<trkpt lat="55.731419" lon="26.231432">
<ele>148.642700</ele>
<time>2010-07-17T10:56:23Z</time>
<desc>lat.=55.731419, lon.=26.231432, Alt.=148.642700m. Speed=0.540000m/h.</desc>
<speed>0.150000</speed>
</trkpt>
<trkpt lat="55.731419" lon="26.231432">
<ele>148.627075</ele>
<time>2010-07-17T10:56:24Z</time>
<desc>lat.=55.731419, lon.=26.231432, Alt.=148.627075m. Speed=0.612000m/h.</desc>
<speed>0.170000</speed>
</trkpt>
<trkpt lat="55.731419" lon="26.231430">
<ele>148.619263</ele>
<time>2010-07-17T10:56:25Z</time>
<desc>lat.=55.731419, lon.=26.231430, Alt.=148.619263m. Speed=0.540000m/h.</desc>
<speed>0.150000</speed>
</trkpt>
<trkpt lat="55.731415" lon="26.231428">
<ele>148.611450</ele>
<time>2010-07-17T10:56:26Z</time>
<desc>lat.=55.731415, lon.=26.231428, Alt.=148.611450m. Speed=0.468000m/h.</desc>
<speed>0.130000</speed>
</trkpt>
<trkpt lat="55.731415" lon="26.231428">
<ele>148.603638</ele>
<time>2010-07-17T10:56:27Z</time>
<desc>lat.=55.731415, lon.=26.231428, Alt.=148.603638m. Speed=0.540000m/h.</desc>
<speed>0.150000</speed>
</trkpt>
<trkpt lat="55.731415" lon="26.231428">
<ele>148.591919</ele>
<time>2010-07-17T10:56:28Z</time>
<desc>lat.=55.731415, lon.=26.231428, Alt.=148.591919m. Speed=0.648000m/h.</desc>
<speed>0.180000</speed>
</trkpt>
<trkpt lat="55.731411" lon="26.231428">
<ele>148.591919</ele>
<time>2010-07-17T10:56:29Z</time>
<desc>lat.=55.731411, lon.=26.231428, Alt.=148.591919m. Speed=0.612000m/h.</desc>
<speed>0.170000</speed>
</trkpt>
<trkpt lat="55.731411" lon="26.231428">
<ele>148.588013</ele>
<time>2010-07-17T10:56:30Z</time>
<desc>lat.=55.731411, lon.=26.231428, Alt.=148.588013m. Speed=0.684000m/h.</desc>
<speed>0.190000</speed>
</trkpt>
<trkpt lat="55.731407" lon="26.231426">
<ele>148.584106</ele>
<time>2010-07-17T10:56:31Z</time>
<desc>lat.=55.731407, lon.=26.231426, Alt.=148.584106m. Speed=0.720000m/h.</desc>
<speed>0.200000</speed>
</trkpt>
<trkpt lat="55.731407" lon="26.231424">
<ele>148.584106</ele>
<time>2010-07-17T10:56:32Z</time>
<desc>lat.=55.731407, lon.=26.231424, Alt.=148.584106m. Speed=0.792000m/h.</desc>
<speed>0.220000</speed>
</trkpt>
<trkpt lat="55.731403" lon="26.231421">
<ele>148.591919</ele>
<time>2010-07-17T10:56:33Z</time>
<desc>lat.=55.731403, lon.=26.231421, Alt.=148.591919m. Speed=0.900000m/h.</desc>
<speed>0.250000</speed>
</trkpt>
<trkpt lat="55.731403" lon="26.231419">
<ele>148.615356</ele>
<time>2010-07-17T10:56:34Z</time>
<desc>lat.=55.731403, lon.=26.231419, Alt.=148.615356m. Speed=0.756000m/h.</desc>
<speed>0.210000</speed>
</trkpt>
<trkpt lat="55.731403" lon="26.231417">
<ele>148.634888</ele>
<time>2010-07-17T10:56:35Z</time>
<desc>lat.=55.731403, lon.=26.231417, Alt.=148.634888m. Speed=0.648000m/h.</desc>
<speed>0.180000</speed>
</trkpt>
<trkpt lat="55.731400" lon="26.231415">
<ele>148.654419</ele>
<time>2010-07-17T10:56:36Z</time>
<desc>lat.=55.731400, lon.=26.231415, Alt.=148.654419m. Speed=0.504000m/h.</desc>
<speed>0.140000</speed>
</trkpt>
<trkpt lat="55.731400" lon="26.231413">
<ele>148.670044</ele>
<time>2010-07-17T10:56:37Z</time>
<desc>lat.=55.731400, lon.=26.231413, Alt.=148.670044m. Speed=0.432000m/h.</desc>
<speed>0.120000</speed>
</trkpt>
<trkpt lat="55.731400" lon="26.231413">
<ele>148.685669</ele>
<time>2010-07-17T10:56:38Z</time>
<desc>lat.=55.731400, lon.=26.231413, Alt.=148.685669m. Speed=0.504000m/h.</desc>
<speed>0.140000</speed>
</trkpt>
<trkpt lat="55.731400" lon="26.231411">
<ele>148.697388</ele>
<time>2010-07-17T10:56:39Z</time>
<desc>lat.=55.731400, lon.=26.231411, Alt.=148.697388m. Speed=0.216000m/h.</desc>
<speed>0.060000</speed>
</trkpt>
<trkpt lat="55.731396" lon="26.231411">
<ele>148.713013</ele>
<time>2010-07-17T10:56:40Z</time>
<desc>lat.=55.731396, lon.=26.231411, Alt.=148.713013m. Speed=0.288000m/h.</desc>
<speed>0.080000</speed>
</trkpt>
<trkpt lat="55.731396" lon="26.231409">
<ele>148.724731</ele>
<time>2010-07-17T10:56:41Z</time>
<desc>lat.=55.731396, lon.=26.231409, Alt.=148.724731m. Speed=0.252000m/h.</desc>
<speed>0.070000</speed>
</trkpt>
<trkpt lat="55.731396" lon="26.231409">
<ele>148.736450</ele>
<time>2010-07-17T10:56:42Z</time>
<desc>lat.=55.731396, lon.=26.231409, Alt.=148.736450m. Speed=0.108000m/h.</desc>
<speed>0.030000</speed>
</trkpt>
<trkpt lat="55.731396" lon="26.231409">
<ele>148.752075</ele>
<time>2010-07-17T10:56:43Z</time>
<desc>lat.=55.731396, lon.=26.231409, Alt.=148.752075m. Speed=0.288000m/h.</desc>
<speed>0.080000</speed>
</trkpt>
<trkpt lat="55.731396" lon="26.231407">
<ele>148.767700</ele>
<time>2010-07-17T10:56:44Z</time>
<desc>lat.=55.731396, lon.=26.231407, Alt.=148.767700m. Speed=0.252000m/h.</desc>
<speed>0.070000</speed>
</trkpt>
<trkpt lat="55.731396" lon="26.231407">
<ele>148.795044</ele>
<time>2010-07-17T10:56:45Z</time>
<desc>lat.=55.731396, lon.=26.231407, Alt.=148.795044m. Speed=0.252000m/h.</desc>
<speed>0.070000</speed>
</trkpt>
<trkpt lat="55.731392" lon="26.231407">
<ele>148.822388</ele>
<time>2010-07-17T10:56:46Z</time>
<desc>lat.=55.731392, lon.=26.231407, Alt.=148.822388m. Speed=0.180000m/h.</desc>
<speed>0.050000</speed>
</trkpt>
<trkpt lat="55.731392" lon="26.231405">
<ele>148.849731</ele>
<time>2010-07-17T10:56:47Z</time>
<desc>lat.=55.731392, lon.=26.231405, Alt.=148.849731m. Speed=0.324000m/h.</desc>
<speed>0.090000</speed>
</trkpt>
<trkpt lat="55.731392" lon="26.231405">
<ele>148.873169</ele>
<time>2010-07-17T10:56:48Z</time>
<desc>lat.=55.731392, lon.=26.231405, Alt.=148.873169m. Speed=0.360000m/h.</desc>
<speed>0.100000</speed>
</trkpt>
<trkpt lat="55.731392" lon="26.231405">
<ele>148.884888</ele>
<time>2010-07-17T10:56:49Z</time>
<desc>lat.=55.731392, lon.=26.231405, Alt.=148.884888m. Speed=0.360000m/h.</desc>
<speed>0.100000</speed>
</trkpt>
<trkpt lat="55.731392" lon="26.231403">
<ele>148.900513</ele>
<time>2010-07-17T10:56:50Z</time>
<desc>lat.=55.731392, lon.=26.231403, Alt.=148.900513m. Speed=0.396000m/h.</desc>
<speed>0.110000</speed>
</trkpt>
<trkpt lat="55.731388" lon="26.231401">
<ele>148.923950</ele>
<time>2010-07-17T10:56:51Z</time>
<desc>lat.=55.731388, lon.=26.231401, Alt.=148.923950m. Speed=0.648000m/h.</desc>
<speed>0.180000</speed>
</trkpt>
<trkpt lat="55.731388" lon="26.231400">
<ele>148.955200</ele>
<time>2010-07-17T10:56:52Z</time>
<desc>lat.=55.731388, lon.=26.231400, Alt.=148.955200m. Speed=0.468000m/h.</desc>
<speed>0.130000</speed>
</trkpt>
<trkpt lat="55.731388" lon="26.231400">
<ele>148.994263</ele>
<time>2010-07-17T10:56:53Z</time>
<desc>lat.=55.731388, lon.=26.231400, Alt.=148.994263m. Speed=0.612000m/h.</desc>
<speed>0.170000</speed>
</trkpt>
<trkpt lat="55.731384" lon="26.231398">
<ele>149.041138</ele>
<time>2010-07-17T10:56:54Z</time>
<desc>lat.=55.731384, lon.=26.231398, Alt.=149.041138m. Speed=0.576000m/h.</desc>
<speed>0.160000</speed>
</trkpt>
<trkpt lat="55.731384" lon="26.231396">
<ele>149.091919</ele>
<time>2010-07-17T10:56:55Z</time>
<desc>lat.=55.731384, lon.=26.231396, Alt.=149.091919m. Speed=0.540000m/h.</desc>
<speed>0.150000</speed>
</trkpt>
<trkpt lat="55.731384" lon="26.231394">
<ele>149.150513</ele>
<time>2010-07-17T10:56:56Z</time>
<desc>lat.=55.731384, lon.=26.231394, Alt.=149.150513m. Speed=0.396000m/h.</desc>
<speed>0.110000</speed>
</trkpt>
<trkpt lat="55.731384" lon="26.231392">
<ele>149.209106</ele>
<time>2010-07-17T10:56:57Z</time>
<desc>lat.=55.731384, lon.=26.231392, Alt.=149.209106m. Speed=0.504000m/h.</desc>
<speed>0.140000</speed>
</trkpt>
<trkpt lat="55.731380" lon="26.231390">
<ele>149.271606</ele>
<time>2010-07-17T10:56:58Z</time>
<desc>lat.=55.731380, lon.=26.231390, Alt.=149.271606m. Speed=0.648000m/h.</desc>
<speed>0.180000</speed>
</trkpt>
<trkpt lat="55.731380" lon="26.231388">
<ele>149.330200</ele>
<time>2010-07-17T10:56:59Z</time>
<desc>lat.=55.731380, lon.=26.231388, Alt.=149.330200m. Speed=1.116000m/h.</desc>
<speed>0.310000</speed>
</trkpt>
<trkpt lat="55.731373" lon="26.231382">
<ele>149.545044</ele>
<time>2010-07-17T10:57:00Z</time>
<desc>lat.=55.731373, lon.=26.231382, Alt.=149.545044m. Speed=1.008000m/h.</desc>
<speed>0.280000</speed>
</trkpt>
<trkpt lat="55.731377" lon="26.231384">
<ele>149.455200</ele>
<time>2010-07-17T10:57:01Z</time>
<desc>lat.=55.731377, lon.=26.231384, Alt.=149.455200m. Speed=0.288000m/h.</desc>
<speed>0.080000</speed>
</trkpt>
<trkpt lat="55.731369" lon="26.231373">
<ele>149.603638</ele>
<time>2010-07-17T10:57:02Z</time>
<desc>lat.=55.731369, lon.=26.231373, Alt.=149.603638m. Speed=0.324000m/h.</desc>
<speed>0.090000</speed>
</trkpt>
<trkpt lat="55.731365" lon="26.231373">
<ele>149.865356</ele>
<time>2010-07-17T10:57:03Z</time>
<desc>lat.=55.731365, lon.=26.231373, Alt.=149.865356m. Speed=0.324000m/h.</desc>
<speed>0.090000</speed>
</trkpt>
<trkpt lat="55.731365" lon="26.231373">
<ele>149.904419</ele>
<time>2010-07-17T10:57:04Z</time>
<desc>lat.=55.731365, lon.=26.231373, Alt.=149.904419m. Speed=0.216000m/h.</desc>
<speed>0.060000</speed>
</trkpt>
<trkpt lat="55.731365" lon="26.231371">
<ele>149.947388</ele>
<time>2010-07-17T10:57:05Z</time>
<desc>lat.=55.731365, lon.=26.231371, Alt.=149.947388m. Speed=0.252000m/h.</desc>
<speed>0.070000</speed>
</trkpt>
<trkpt lat="55.731365" lon="26.231371">
<ele>149.990356</ele>
<time>2010-07-17T10:57:06Z</time>
<desc>lat.=55.731365, lon.=26.231371, Alt.=149.990356m. Speed=0.072000m/h.</desc>
<speed>0.020000</speed>
</trkpt>
<trkpt lat="55.731361" lon="26.231371">
<ele>150.029419</ele>
<time>2010-07-17T10:57:07Z</time>
<desc>lat.=55.731361, lon.=26.231371, Alt.=150.029419m. Speed=0.072000m/h.</desc>
<speed>0.020000</speed>
</trkpt>
<trkpt lat="55.731361" lon="26.231371">
<ele>150.076294</ele>
<time>2010-07-17T10:57:08Z</time>
<desc>lat.=55.731361, lon.=26.231371, Alt.=150.076294m. Speed=0.108000m/h.</desc>
<speed>0.030000</speed>
</trkpt>
<trkpt lat="55.731361" lon="26.231371">
<ele>150.111450</ele>
<time>2010-07-17T10:57:09Z</time>
<desc>lat.=55.731361, lon.=26.231371, Alt.=150.111450m. Speed=0.072000m/h.</desc>
<speed>0.020000</speed>
</trkpt>
<trkpt lat="55.731361" lon="26.231373">
<ele>150.150513</ele>
<time>2010-07-17T10:57:10Z</time>
<desc>lat.=55.731361, lon.=26.231373, Alt.=150.150513m. Speed=0.000000m/h.</desc>
<speed>0.000000</speed>
</trkpt>
<trkpt lat="55.731361" lon="26.231371">
<ele>150.173950</ele>
<time>2010-07-17T10:57:11Z</time>
<desc>lat.=55.731361, lon.=26.231371, Alt.=150.173950m. Speed=0.108000m/h.</desc>
<speed>0.030000</speed>
</trkpt>
<trkpt lat="55.731361" lon="26.231371">
<ele>150.197388</ele>
<time>2010-07-17T10:57:12Z</time>
<desc>lat.=55.731361, lon.=26.231371, Alt.=150.197388m. Speed=0.288000m/h.</desc>
<speed>0.080000</speed>
</trkpt>
<trkpt lat="55.731361" lon="26.231371">
<ele>150.224731</ele>
<time>2010-07-17T10:57:13Z</time>
<desc>lat.=55.731361, lon.=26.231371, Alt.=150.224731m. Speed=0.252000m/h.</desc>
<speed>0.070000</speed>
</trkpt>
<trkpt lat="55.731361" lon="26.231369">
<ele>150.248169</ele>
<time>2010-07-17T10:57:14Z</time>
<desc>lat.=55.731361, lon.=26.231369, Alt.=150.248169m. Speed=0.324000m/h.</desc>
<speed>0.090000</speed>
</trkpt>
<trkpt lat="55.731361" lon="26.231369">
<ele>150.271606</ele>
<time>2010-07-17T10:57:15Z</time>
<desc>lat.=55.731361, lon.=26.231369, Alt.=150.271606m. Speed=0.180000m/h.</desc>
<speed>0.050000</speed>
</trkpt>
<trkpt lat="55.731358" lon="26.231367">
<ele>150.295044</ele>
<time>2010-07-17T10:57:16Z</time>
<desc>lat.=55.731358, lon.=26.231367, Alt.=150.295044m. Speed=0.252000m/h.</desc>
<speed>0.070000</speed>
</trkpt>
<trkpt lat="55.731358" lon="26.231367">
<ele>150.318481</ele>
<time>2010-07-17T10:57:17Z</time>
<desc>lat.=55.731358, lon.=26.231367, Alt.=150.318481m. Speed=0.360000m/h.</desc>
<speed>0.100000</speed>
</trkpt>
<trkpt lat="55.731358" lon="26.231365">
<ele>150.334106</ele>
<time>2010-07-17T10:57:18Z</time>
<desc>lat.=55.731358, lon.=26.231365, Alt.=150.334106m. Speed=0.252000m/h.</desc>
<speed>0.070000</speed>
</trkpt>
<trkpt lat="55.731358" lon="26.231365">
<ele>150.345825</ele>
<time>2010-07-17T10:57:19Z</time>
<desc>lat.=55.731358, lon.=26.231365, Alt.=150.345825m. Speed=0.252000m/h.</desc>
<speed>0.070000</speed>
</trkpt>
<trkpt lat="55.731358" lon="26.231363">
<ele>150.365356</ele>
<time>2010-07-17T10:57:20Z</time>
<desc>lat.=55.731358, lon.=26.231363, Alt.=150.365356m. Speed=0.216000m/h.</desc>
<speed>0.060000</speed>
</trkpt>
<trkpt lat="55.731358" lon="26.231363">
<ele>150.384888</ele>
<time>2010-07-17T10:57:21Z</time>
<desc>lat.=55.731358, lon.=26.231363, Alt.=150.384888m. Speed=0.216000m/h.</desc>
<speed>0.060000</speed>
</trkpt>
<trkpt lat="55.731354" lon="26.231363">
<ele>150.396606</ele>
<time>2010-07-17T10:57:22Z</time>
<desc>lat.=55.731354, lon.=26.231363, Alt.=150.396606m. Speed=0.072000m/h.</desc>
<speed>0.020000</speed>
</trkpt>
<trkpt lat="55.731354" lon="26.231363">
<ele>150.416138</ele>
<time>2010-07-17T10:57:23Z</time>
<desc>lat.=55.731354, lon.=26.231363, Alt.=150.416138m. Speed=0.108000m/h.</desc>
<speed>0.030000</speed>
</trkpt>
<trkpt lat="55.731358" lon="26.231363">
<ele>150.435669</ele>
<time>2010-07-17T10:57:24Z</time>
<desc>lat.=55.731358, lon.=26.231363, Alt.=150.435669m. Speed=0.072000m/h.</desc>
<speed>0.020000</speed>
</trkpt>
<trkpt lat="55.731358" lon="26.231363">
<ele>150.451294</ele>
<time>2010-07-17T10:57:25Z</time>
<desc>lat.=55.731358, lon.=26.231363, Alt.=150.451294m. Speed=0.036000m/h.</desc>
<speed>0.010000</speed>
</trkpt>
<trkpt lat="55.731358" lon="26.231363">
<ele>150.463013</ele>
<time>2010-07-17T10:57:26Z</time>
<desc>lat.=55.731358, lon.=26.231363, Alt.=150.463013m. Speed=0.108000m/h.</desc>
<speed>0.030000</speed>
</trkpt>
<trkpt lat="55.731358" lon="26.231363">
<ele>150.474731</ele>
<time>2010-07-17T10:57:27Z</time>
<desc>lat.=55.731358, lon.=26.231363, Alt.=150.474731m. Speed=0.180000m/h.</desc>
<speed>0.050000</speed>
</trkpt>
<trkpt lat="55.731358" lon="26.231365">
<ele>150.486450</ele>
<time>2010-07-17T10:57:28Z</time>
<desc>lat.=55.731358, lon.=26.231365, Alt.=150.486450m. Speed=0.000000m/h.</desc>
<speed>0.000000</speed>
</trkpt>
<trkpt lat="55.731358" lon="26.231365">
<ele>150.505981</ele>
<time>2010-07-17T10:57:29Z</time>
<desc>lat.=55.731358, lon.=26.231365, Alt.=150.505981m. Speed=0.108000m/h.</desc>
<speed>0.030000</speed>
</trkpt>
<trkpt lat="55.731358" lon="26.231365">
<ele>150.525513</ele>
<time>2010-07-17T10:57:30Z</time>
<desc>lat.=55.731358, lon.=26.231365, Alt.=150.525513m. Speed=0.180000m/h.</desc>
<speed>0.050000</speed>
</trkpt>
<trkpt lat="55.731358" lon="26.231365">
<ele>150.552856</ele>
<time>2010-07-17T10:57:31Z</time>
<desc>lat.=55.731358, lon.=26.231365, Alt.=150.552856m. Speed=0.144000m/h.</desc>
<speed>0.040000</speed>
</trkpt>
<trkpt lat="55.731358" lon="26.231367">
<ele>150.584106</ele>
<time>2010-07-17T10:57:32Z</time>
<desc>lat.=55.731358, lon.=26.231367, Alt.=150.584106m. Speed=0.036000m/h.</desc>
<speed>0.010000</speed>
</trkpt>
<trkpt lat="55.731358" lon="26.231367">
<ele>150.615356</ele>
<time>2010-07-17T10:57:33Z</time>
<desc>lat.=55.731358, lon.=26.231367, Alt.=150.615356m. Speed=0.000000m/h.</desc>
<speed>0.000000</speed>
</trkpt>
<trkpt lat="55.731358" lon="26.231367">
<ele>150.650513</ele>
<time>2010-07-17T10:57:34Z</time>
<desc>lat.=55.731358, lon.=26.231367, Alt.=150.650513m. Speed=0.072000m/h.</desc>
<speed>0.020000</speed>
</trkpt>
<trkpt lat="55.731358" lon="26.231367">
<ele>150.689575</ele>
<time>2010-07-17T10:57:35Z</time>
<desc>lat.=55.731358, lon.=26.231367, Alt.=150.689575m. Speed=0.180000m/h.</desc>
<speed>0.050000</speed>
</trkpt>
<trkpt lat="55.731358" lon="26.231367">
<ele>150.740356</ele>
<time>2010-07-17T10:57:36Z</time>
<desc>lat.=55.731358, lon.=26.231367, Alt.=150.740356m. Speed=0.108000m/h.</desc>
<speed>0.030000</speed>
</trkpt>
<trkpt lat="55.731358" lon="26.231369">
<ele>150.798950</ele>
<time>2010-07-17T10:57:37Z</time>
<desc>lat.=55.731358, lon.=26.231369, Alt.=150.798950m. Speed=0.288000m/h.</desc>
<speed>0.080000</speed>
</trkpt>
<trkpt lat="55.731358" lon="26.231369">
<ele>150.865356</ele>
<time>2010-07-17T10:57:38Z</time>
<desc>lat.=55.731358, lon.=26.231369, Alt.=150.865356m. Speed=0.216000m/h.</desc>
<speed>0.060000</speed>
</trkpt>
<trkpt lat="55.731358" lon="26.231369">
<ele>150.935669</ele>
<time>2010-07-17T10:57:39Z</time>
<desc>lat.=55.731358, lon.=26.231369, Alt.=150.935669m. Speed=0.324000m/h.</desc>
<speed>0.090000</speed>
</trkpt>
<trkpt lat="55.731361" lon="26.231371">
<ele>151.013794</ele>
<time>2010-07-17T10:57:40Z</time>
<desc>lat.=55.731361, lon.=26.231371, Alt.=151.013794m. Speed=0.360000m/h.</desc>
<speed>0.100000</speed>
</trkpt>
<trkpt lat="55.731361" lon="26.231371">
<ele>151.084106</ele>
<time>2010-07-17T10:57:41Z</time>
<desc>lat.=55.731361, lon.=26.231371, Alt.=151.084106m. Speed=0.324000m/h.</desc>
<speed>0.090000</speed>
</trkpt>
<trkpt lat="55.731361" lon="26.231373">
<ele>151.150513</ele>
<time>2010-07-17T10:57:42Z</time>
<desc>lat.=55.731361, lon.=26.231373, Alt.=151.150513m. Speed=0.324000m/h.</desc>
<speed>0.090000</speed>
</trkpt>
<trkpt lat="55.731361" lon="26.231373">
<ele>151.205200</ele>
<time>2010-07-17T10:57:43Z</time>
<desc>lat.=55.731361, lon.=26.231373, Alt.=151.205200m. Speed=0.252000m/h.</desc>
<speed>0.070000</speed>
</trkpt>
<trkpt lat="55.731361" lon="26.231375">
<ele>151.259888</ele>
<time>2010-07-17T10:57:44Z</time>
<desc>lat.=55.731361, lon.=26.231375, Alt.=151.259888m. Speed=0.324000m/h.</desc>
<speed>0.090000</speed>
</trkpt>
<trkpt lat="55.731361" lon="26.231375">
<ele>151.306763</ele>
<time>2010-07-17T10:57:45Z</time>
<desc>lat.=55.731361, lon.=26.231375, Alt.=151.306763m. Speed=0.288000m/h.</desc>
<speed>0.080000</speed>
</trkpt>
<trkpt lat="55.731361" lon="26.231377">
<ele>151.349731</ele>
<time>2010-07-17T10:57:46Z</time>
<desc>lat.=55.731361, lon.=26.231377, Alt.=151.349731m. Speed=0.324000m/h.</desc>
<speed>0.090000</speed>
</trkpt>
<trkpt lat="55.731365" lon="26.231377">
<ele>151.384888</ele>
<time>2010-07-17T10:57:47Z</time>
<desc>lat.=55.731365, lon.=26.231377, Alt.=151.384888m. Speed=0.144000m/h.</desc>
<speed>0.040000</speed>
</trkpt>
<trkpt lat="55.731365" lon="26.231377">
<ele>151.408325</ele>
<time>2010-07-17T10:57:48Z</time>
<desc>lat.=55.731365, lon.=26.231377, Alt.=151.408325m. Speed=0.000000m/h.</desc>
<speed>0.000000</speed>
</trkpt>
<trkpt lat="55.731365" lon="26.231377">
<ele>151.427856</ele>
<time>2010-07-17T10:57:49Z</time>
<desc>lat.=55.731365, lon.=26.231377, Alt.=151.427856m. Speed=0.072000m/h.</desc>
<speed>0.020000</speed>
</trkpt>
<trkpt lat="55.731361" lon="26.231377">
<ele>151.423950</ele>
<time>2010-07-17T10:57:50Z</time>
<desc>lat.=55.731361, lon.=26.231377, Alt.=151.423950m. Speed=0.144000m/h.</desc>
<speed>0.040000</speed>
</trkpt>
<trkpt lat="55.731361" lon="26.231377">
<ele>151.416138</ele>
<time>2010-07-17T10:57:51Z</time>
<desc>lat.=55.731361, lon.=26.231377, Alt.=151.416138m. Speed=0.252000m/h.</desc>
<speed>0.070000</speed>
</trkpt>
<trkpt lat="55.731361" lon="26.231377">
<ele>151.412231</ele>
<time>2010-07-17T10:57:52Z</time>
<desc>lat.=55.731361, lon.=26.231377, Alt.=151.412231m. Speed=0.252000m/h.</desc>
<speed>0.070000</speed>
</trkpt>
<trkpt lat="55.731361" lon="26.231375">
<ele>151.400513</ele>
<time>2010-07-17T10:57:53Z</time>
<desc>lat.=55.731361, lon.=26.231375, Alt.=151.400513m. Speed=0.360000m/h.</desc>
<speed>0.100000</speed>
</trkpt>
<trkpt lat="55.731361" lon="26.231373">
<ele>151.396606</ele>
<time>2010-07-17T10:57:54Z</time>
<desc>lat.=55.731361, lon.=26.231373, Alt.=151.396606m. Speed=0.432000m/h.</desc>
<speed>0.120000</speed>
</trkpt>
<trkpt lat="55.731361" lon="26.231371">
<ele>151.396606</ele>
<time>2010-07-17T10:57:55Z</time>
<desc>lat.=55.731361, lon.=26.231371, Alt.=151.396606m. Speed=0.576000m/h.</desc>
<speed>0.160000</speed>
</trkpt>
<trkpt lat="55.731358" lon="26.231371">
<ele>151.396606</ele>
<time>2010-07-17T10:57:56Z</time>
<desc>lat.=55.731358, lon.=26.231371, Alt.=151.396606m. Speed=0.540000m/h.</desc>
<speed>0.150000</speed>
</trkpt>
<trkpt lat="55.731358" lon="26.231369">
<ele>151.388794</ele>
<time>2010-07-17T10:57:57Z</time>
<desc>lat.=55.731358, lon.=26.231369, Alt.=151.388794m. Speed=0.396000m/h.</desc>
<speed>0.110000</speed>
</trkpt>
<trkpt lat="55.731358" lon="26.231367">
<ele>151.377075</ele>
<time>2010-07-17T10:57:58Z</time>
<desc>lat.=55.731358, lon.=26.231367, Alt.=151.377075m. Speed=0.504000m/h.</desc>
<speed>0.140000</speed>
</trkpt>
<trkpt lat="55.731354" lon="26.231367">
<ele>151.373169</ele>
<time>2010-07-17T10:57:59Z</time>
<desc>lat.=55.731354, lon.=26.231367, Alt.=151.373169m. Speed=0.396000m/h.</desc>
<speed>0.110000</speed>
</trkpt>
<trkpt lat="55.731354" lon="26.231365">
<ele>151.361450</ele>
<time>2010-07-17T10:58:00Z</time>
<desc>lat.=55.731354, lon.=26.231365, Alt.=151.361450m. Speed=0.432000m/h.</desc>
<speed>0.120000</speed>
</trkpt>
<trkpt lat="55.731354" lon="26.231363">
<ele>151.361450</ele>
<time>2010-07-17T10:58:01Z</time>
<desc>lat.=55.731354, lon.=26.231363, Alt.=151.361450m. Speed=0.432000m/h.</desc>
<speed>0.120000</speed>
</trkpt>
<trkpt lat="55.731354" lon="26.231361">
<ele>151.365356</ele>
<time>2010-07-17T10:58:02Z</time>
<desc>lat.=55.731354, lon.=26.231361, Alt.=151.365356m. Speed=0.504000m/h.</desc>
<speed>0.140000</speed>
</trkpt>
<trkpt lat="55.731354" lon="26.231361">
<ele>151.373169</ele>
<time>2010-07-17T10:58:03Z</time>
<desc>lat.=55.731354, lon.=26.231361, Alt.=151.373169m. Speed=0.360000m/h.</desc>
<speed>0.100000</speed>
</trkpt>
<trkpt lat="55.731350" lon="26.231359">
<ele>151.377075</ele>
<time>2010-07-17T10:58:04Z</time>
<desc>lat.=55.731350, lon.=26.231359, Alt.=151.377075m. Speed=0.252000m/h.</desc>
<speed>0.070000</speed>
</trkpt>
<trkpt lat="55.731350" lon="26.231358">
<ele>151.377075</ele>
<time>2010-07-17T10:58:05Z</time>
<desc>lat.=55.731350, lon.=26.231358, Alt.=151.377075m. Speed=0.072000m/h.</desc>
<speed>0.020000</speed>
</trkpt>
<trkpt lat="55.731350" lon="26.231358">
<ele>151.380981</ele>
<time>2010-07-17T10:58:06Z</time>
<desc>lat.=55.731350, lon.=26.231358, Alt.=151.380981m. Speed=0.072000m/h.</desc>
<speed>0.020000</speed>
</trkpt>
<trkpt lat="55.731350" lon="26.231358">
<ele>151.384888</ele>
<time>2010-07-17T10:58:07Z</time>
<desc>lat.=55.731350, lon.=26.231358, Alt.=151.384888m. Speed=0.108000m/h.</desc>
<speed>0.030000</speed>
</trkpt>
<trkpt lat="55.731350" lon="26.231358">
<ele>151.392700</ele>
<time>2010-07-17T10:58:08Z</time>
<desc>lat.=55.731350, lon.=26.231358, Alt.=151.392700m. Speed=0.036000m/h.</desc>
<speed>0.010000</speed>
</trkpt>
<trkpt lat="55.731350" lon="26.231358">
<ele>151.396606</ele>
<time>2010-07-17T10:58:09Z</time>
<desc>lat.=55.731350, lon.=26.231358, Alt.=151.396606m. Speed=0.180000m/h.</desc>
<speed>0.050000</speed>
</trkpt>
<trkpt lat="55.731350" lon="26.231359">
<ele>151.404419</ele>
<time>2010-07-17T10:58:10Z</time>
<desc>lat.=55.731350, lon.=26.231359, Alt.=151.404419m. Speed=0.288000m/h.</desc>
<speed>0.080000</speed>
</trkpt>
<trkpt lat="55.731354" lon="26.231359">
<ele>151.412231</ele>
<time>2010-07-17T10:58:11Z</time>
<desc>lat.=55.731354, lon.=26.231359, Alt.=151.412231m. Speed=0.288000m/h.</desc>
<speed>0.080000</speed>
</trkpt>
<trkpt lat="55.731354" lon="26.231361">
<ele>151.423950</ele>
<time>2010-07-17T10:58:12Z</time>
<desc>lat.=55.731354, lon.=26.231361, Alt.=151.423950m. Speed=0.252000m/h.</desc>
<speed>0.070000</speed>
</trkpt>
<trkpt lat="55.731354" lon="26.231361">
<ele>151.443481</ele>
<time>2010-07-17T10:58:13Z</time>
<desc>lat.=55.731354, lon.=26.231361, Alt.=151.443481m. Speed=0.360000m/h.</desc>
<speed>0.100000</speed>
</trkpt>
<trkpt lat="55.731354" lon="26.231363">
<ele>151.463013</ele>
<time>2010-07-17T10:58:14Z</time>
<desc>lat.=55.731354, lon.=26.231363, Alt.=151.463013m. Speed=0.360000m/h.</desc>
<speed>0.100000</speed>
</trkpt>
<trkpt lat="55.731354" lon="26.231363">
<ele>151.482544</ele>
<time>2010-07-17T10:58:15Z</time>
<desc>lat.=55.731354, lon.=26.231363, Alt.=151.482544m. Speed=0.360000m/h.</desc>
<speed>0.100000</speed>
</trkpt>
<trkpt lat="55.731354" lon="26.231365">
<ele>151.505981</ele>
<time>2010-07-17T10:58:16Z</time>
<desc>lat.=55.731354, lon.=26.231365, Alt.=151.505981m. Speed=0.432000m/h.</desc>
<speed>0.120000</speed>
</trkpt>
<trkpt lat="55.731358" lon="26.231367">
<ele>151.525513</ele>
<time>2010-07-17T10:58:17Z</time>
<desc>lat.=55.731358, lon.=26.231367, Alt.=151.525513m. Speed=0.432000m/h.</desc>
<speed>0.120000</speed>
</trkpt>
<trkpt lat="55.731358" lon="26.231367">
<ele>151.545044</ele>
<time>2010-07-17T10:58:18Z</time>
<desc>lat.=55.731358, lon.=26.231367, Alt.=151.545044m. Speed=0.432000m/h.</desc>
<speed>0.120000</speed>
</trkpt>
<trkpt lat="55.731358" lon="26.231369">
<ele>151.545044</ele>
<time>2010-07-17T10:58:19Z</time>
<desc>lat.=55.731358, lon.=26.231369, Alt.=151.545044m. Speed=0.432000m/h.</desc>
<speed>0.120000</speed>
</trkpt>
<trkpt lat="55.731358" lon="26.231371">
<ele>151.552856</ele>
<time>2010-07-17T10:58:20Z</time>
<desc>lat.=55.731358, lon.=26.231371, Alt.=151.552856m. Speed=0.216000m/h.</desc>
<speed>0.060000</speed>
</trkpt>
<trkpt lat="55.731358" lon="26.231371">
<ele>151.564575</ele>
<time>2010-07-17T10:58:21Z</time>
<desc>lat.=55.731358, lon.=26.231371, Alt.=151.564575m. Speed=0.288000m/h.</desc>
<speed>0.080000</speed>
</trkpt>
<trkpt lat="55.731358" lon="26.231373">
<ele>151.572388</ele>
<time>2010-07-17T10:58:22Z</time>
<desc>lat.=55.731358, lon.=26.231373, Alt.=151.572388m. Speed=0.180000m/h.</desc>
<speed>0.050000</speed>
</trkpt>
<trkpt lat="55.731361" lon="26.231373">
<ele>151.584106</ele>
<time>2010-07-17T10:58:23Z</time>
<desc>lat.=55.731361, lon.=26.231373, Alt.=151.584106m. Speed=0.252000m/h.</desc>
<speed>0.070000</speed>
</trkpt>
<trkpt lat="55.731361" lon="26.231375">
<ele>151.591919</ele>
<time>2010-07-17T10:58:24Z</time>
<desc>lat.=55.731361, lon.=26.231375, Alt.=151.591919m. Speed=0.216000m/h.</desc>
<speed>0.060000</speed>
</trkpt>
<trkpt lat="55.731361" lon="26.231375">
<ele>151.599731</ele>
<time>2010-07-17T10:58:25Z</time>
<desc>lat.=55.731361, lon.=26.231375, Alt.=151.599731m. Speed=0.252000m/h.</desc>
<speed>0.070000</speed>
</trkpt>
<trkpt lat="55.731361" lon="26.231377">
<ele>151.607544</ele>
<time>2010-07-17T10:58:26Z</time>
<desc>lat.=55.731361, lon.=26.231377, Alt.=151.607544m. Speed=0.216000m/h.</desc>
<speed>0.060000</speed>
</trkpt>
<trkpt lat="55.731361" lon="26.231377">
<ele>151.611450</ele>
<time>2010-07-17T10:58:27Z</time>
<desc>lat.=55.731361, lon.=26.231377, Alt.=151.611450m. Speed=0.288000m/h.</desc>
<speed>0.080000</speed>
</trkpt>
<trkpt lat="55.731361" lon="26.231377">
<ele>151.619263</ele>
<time>2010-07-17T10:58:28Z</time>
<desc>lat.=55.731361, lon.=26.231377, Alt.=151.619263m. Speed=0.036000m/h.</desc>
<speed>0.010000</speed>
</trkpt>
<trkpt lat="55.731361" lon="26.231379">
<ele>151.623169</ele>
<time>2010-07-17T10:58:29Z</time>
<desc>lat.=55.731361, lon.=26.231379, Alt.=151.623169m. Speed=0.036000m/h.</desc>
<speed>0.010000</speed>
</trkpt>
<trkpt lat="55.731361" lon="26.231379">
<ele>151.650513</ele>
<time>2010-07-17T10:58:30Z</time>
<desc>lat.=55.731361, lon.=26.231379, Alt.=151.650513m. Speed=0.108000m/h.</desc>
<speed>0.030000</speed>
</trkpt>
<trkpt lat="55.731361" lon="26.231379">
<ele>151.689575</ele>
<time>2010-07-17T10:58:31Z</time>
<desc>lat.=55.731361, lon.=26.231379, Alt.=151.689575m. Speed=0.072000m/h.</desc>
<speed>0.020000</speed>
</trkpt>
<trkpt lat="55.731361" lon="26.231379">
<ele>151.744263</ele>
<time>2010-07-17T10:58:32Z</time>
<desc>lat.=55.731361, lon.=26.231379, Alt.=151.744263m. Speed=0.072000m/h.</desc>
<speed>0.020000</speed>
</trkpt>
<trkpt lat="55.731361" lon="26.231379">
<ele>151.806763</ele>
<time>2010-07-17T10:58:33Z</time>
<desc>lat.=55.731361, lon.=26.231379, Alt.=151.806763m. Speed=0.108000m/h.</desc>
<speed>0.030000</speed>
</trkpt>
<trkpt lat="55.731361" lon="26.231379">
<ele>151.877075</ele>
<time>2010-07-17T10:58:34Z</time>
<desc>lat.=55.731361, lon.=26.231379, Alt.=151.877075m. Speed=0.108000m/h.</desc>
<speed>0.030000</speed>
</trkpt>
<trkpt lat="55.731361" lon="26.231379">
<ele>151.951294</ele>
<time>2010-07-17T10:58:35Z</time>
<desc>lat.=55.731361, lon.=26.231379, Alt.=151.951294m. Speed=0.288000m/h.</desc>
<speed>0.080000</speed>
</trkpt>
<trkpt lat="55.731361" lon="26.231377">
<ele>152.021606</ele>
<time>2010-07-17T10:58:36Z</time>
<desc>lat.=55.731361, lon.=26.231377, Alt.=152.021606m. Speed=0.216000m/h.</desc>
<speed>0.060000</speed>
</trkpt>
<trkpt lat="55.731361" lon="26.231377">
<ele>152.099731</ele>
<time>2010-07-17T10:58:37Z</time>
<desc>lat.=55.731361, lon.=26.231377, Alt.=152.099731m. Speed=0.252000m/h.</desc>
<speed>0.070000</speed>
</trkpt>
<trkpt lat="55.731361" lon="26.231377">
<ele>152.170044</ele>
<time>2010-07-17T10:58:38Z</time>
<desc>lat.=55.731361, lon.=26.231377, Alt.=152.170044m. Speed=0.252000m/h.</desc>
<speed>0.070000</speed>
</trkpt>
<trkpt lat="55.731361" lon="26.231375">
<ele>152.248169</ele>
<time>2010-07-17T10:58:39Z</time>
<desc>lat.=55.731361, lon.=26.231375, Alt.=152.248169m. Speed=0.108000m/h.</desc>
<speed>0.030000</speed>
</trkpt>
<trkpt lat="55.731361" lon="26.231375">
<ele>152.322388</ele>
<time>2010-07-17T10:58:40Z</time>
<desc>lat.=55.731361, lon.=26.231375, Alt.=152.322388m. Speed=0.216000m/h.</desc>
<speed>0.060000</speed>
</trkpt>
<trkpt lat="55.731358" lon="26.231373">
<ele>152.392700</ele>
<time>2010-07-17T10:58:41Z</time>
<desc>lat.=55.731358, lon.=26.231373, Alt.=152.392700m. Speed=0.324000m/h.</desc>
<speed>0.090000</speed>
</trkpt>
<trkpt lat="55.731358" lon="26.231373">
<ele>152.466919</ele>
<time>2010-07-17T10:58:42Z</time>
<desc>lat.=55.731358, lon.=26.231373, Alt.=152.466919m. Speed=0.288000m/h.</desc>
<speed>0.080000</speed>
</trkpt>
<trkpt lat="55.731358" lon="26.231371">
<ele>152.537231</ele>
<time>2010-07-17T10:58:43Z</time>
<desc>lat.=55.731358, lon.=26.231371, Alt.=152.537231m. Speed=0.396000m/h.</desc>
<speed>0.110000</speed>
</trkpt>
<trkpt lat="55.731358" lon="26.231369">
<ele>152.607544</ele>
<time>2010-07-17T10:58:44Z</time>
<desc>lat.=55.731358, lon.=26.231369, Alt.=152.607544m. Speed=0.576000m/h.</desc>
<speed>0.160000</speed>
</trkpt>
<trkpt lat="55.731358" lon="26.231367">
<ele>152.677856</ele>
<time>2010-07-17T10:58:45Z</time>
<desc>lat.=55.731358, lon.=26.231367, Alt.=152.677856m. Speed=0.720000m/h.</desc>
<speed>0.200000</speed>
</trkpt>
<trkpt lat="55.731354" lon="26.231365">
<ele>152.740356</ele>
<time>2010-07-17T10:58:46Z</time>
<desc>lat.=55.731354, lon.=26.231365, Alt.=152.740356m. Speed=0.756000m/h.</desc>
<speed>0.210000</speed>
</trkpt>
<trkpt lat="55.731354" lon="26.231363">
<ele>152.795044</ele>
<time>2010-07-17T10:58:47Z</time>
<desc>lat.=55.731354, lon.=26.231363, Alt.=152.795044m. Speed=0.720000m/h.</desc>
<speed>0.200000</speed>
</trkpt>
<trkpt lat="55.731350" lon="26.231361">
<ele>152.853638</ele>
<time>2010-07-17T10:58:48Z</time>
<desc>lat.=55.731350, lon.=26.231361, Alt.=152.853638m. Speed=0.612000m/h.</desc>
<speed>0.170000</speed>
</trkpt>
<trkpt lat="55.731350" lon="26.231359">
<ele>152.904419</ele>
<time>2010-07-17T10:58:49Z</time>
<desc>lat.=55.731350, lon.=26.231359, Alt.=152.904419m. Speed=0.756000m/h.</desc>
<speed>0.210000</speed>
</trkpt>
<trkpt lat="55.731350" lon="26.231356">
<ele>152.955200</ele>
<time>2010-07-17T10:58:50Z</time>
<desc>lat.=55.731350, lon.=26.231356, Alt.=152.955200m. Speed=0.612000m/h.</desc>
<speed>0.170000</speed>
</trkpt>
<trkpt lat="55.731346" lon="26.231354">
<ele>153.009888</ele>
<time>2010-07-17T10:58:51Z</time>
<desc>lat.=55.731346, lon.=26.231354, Alt.=153.009888m. Speed=0.684000m/h.</desc>
<speed>0.190000</speed>
</trkpt>
<trkpt lat="55.731346" lon="26.231352">
<ele>153.052856</ele>
<time>2010-07-17T10:58:52Z</time>
<desc>lat.=55.731346, lon.=26.231352, Alt.=153.052856m. Speed=0.648000m/h.</desc>
<speed>0.180000</speed>
</trkpt>
<trkpt lat="55.731346" lon="26.231352">
<ele>153.103638</ele>
<time>2010-07-17T10:58:53Z</time>
<desc>lat.=55.731346, lon.=26.231352, Alt.=153.103638m. Speed=0.720000m/h.</desc>
<speed>0.200000</speed>
</trkpt>
<trkpt lat="55.731342" lon="26.231348">
<ele>153.150513</ele>
<time>2010-07-17T10:58:54Z</time>
<desc>lat.=55.731342, lon.=26.231348, Alt.=153.150513m. Speed=0.684000m/h.</desc>
<speed>0.190000</speed>
</trkpt>
<trkpt lat="55.731342" lon="26.231346">
<ele>153.197388</ele>
<time>2010-07-17T10:58:55Z</time>
<desc>lat.=55.731342, lon.=26.231346, Alt.=153.197388m. Speed=0.720000m/h.</desc>
<speed>0.200000</speed>
</trkpt>
<trkpt lat="55.731342" lon="26.231344">
<ele>153.240356</ele>
<time>2010-07-17T10:58:56Z</time>
<desc>lat.=55.731342, lon.=26.231344, Alt.=153.240356m. Speed=0.648000m/h.</desc>
<speed>0.180000</speed>
</trkpt>
<trkpt lat="55.731339" lon="26.231342">
<ele>153.287231</ele>
<time>2010-07-17T10:58:57Z</time>
<desc>lat.=55.731339, lon.=26.231342, Alt.=153.287231m. Speed=0.720000m/h.</desc>
<speed>0.200000</speed>
</trkpt>
<trkpt lat="55.731339" lon="26.231340">
<ele>153.326294</ele>
<time>2010-07-17T10:58:58Z</time>
<desc>lat.=55.731339, lon.=26.231340, Alt.=153.326294m. Speed=0.864000m/h.</desc>
<speed>0.240000</speed>
</trkpt>
<trkpt lat="55.731335" lon="26.231337">
<ele>153.365356</ele>
<time>2010-07-17T10:58:59Z</time>
<desc>lat.=55.731335, lon.=26.231337, Alt.=153.365356m. Speed=0.720000m/h.</desc>
<speed>0.200000</speed>
</trkpt>
<trkpt lat="55.731335" lon="26.231335">
<ele>153.408325</ele>
<time>2010-07-17T10:59:00Z</time>
<desc>lat.=55.731335, lon.=26.231335, Alt.=153.408325m. Speed=0.684000m/h.</desc>
<speed>0.190000</speed>
</trkpt>
<trkpt lat="55.731335" lon="26.231333">
<ele>153.443481</ele>
<time>2010-07-17T10:59:01Z</time>
<desc>lat.=55.731335, lon.=26.231333, Alt.=153.443481m. Speed=0.576000m/h.</desc>
<speed>0.160000</speed>
</trkpt>
<trkpt lat="55.731331" lon="26.231331">
<ele>153.474731</ele>
<time>2010-07-17T10:59:02Z</time>
<desc>lat.=55.731331, lon.=26.231331, Alt.=153.474731m. Speed=0.540000m/h.</desc>
<speed>0.150000</speed>
</trkpt>
<trkpt lat="55.731331" lon="26.231329">
<ele>153.502075</ele>
<time>2010-07-17T10:59:03Z</time>
<desc>lat.=55.731331, lon.=26.231329, Alt.=153.502075m. Speed=0.612000m/h.</desc>
<speed>0.170000</speed>
</trkpt>
<trkpt lat="55.731331" lon="26.231327">
<ele>153.521606</ele>
<time>2010-07-17T10:59:04Z</time>
<desc>lat.=55.731331, lon.=26.231327, Alt.=153.521606m. Speed=0.576000m/h.</desc>
<speed>0.160000</speed>
</trkpt>
<trkpt lat="55.731331" lon="26.231325">
<ele>153.541138</ele>
<time>2010-07-17T10:59:05Z</time>
<desc>lat.=55.731331, lon.=26.231325, Alt.=153.541138m. Speed=0.396000m/h.</desc>
<speed>0.110000</speed>
</trkpt>
<trkpt lat="55.731327" lon="26.231325">
<ele>153.556763</ele>
<time>2010-07-17T10:59:06Z</time>
<desc>lat.=55.731327, lon.=26.231325, Alt.=153.556763m. Speed=0.360000m/h.</desc>
<speed>0.100000</speed>
</trkpt>
<trkpt lat="55.731327" lon="26.231323">
<ele>153.568481</ele>
<time>2010-07-17T10:59:07Z</time>
<desc>lat.=55.731327, lon.=26.231323, Alt.=153.568481m. Speed=0.108000m/h.</desc>
<speed>0.030000</speed>
</trkpt>
<trkpt lat="55.731327" lon="26.231323">
<ele>153.576294</ele>
<time>2010-07-17T10:59:08Z</time>
<desc>lat.=55.731327, lon.=26.231323, Alt.=153.576294m. Speed=0.108000m/h.</desc>
<speed>0.030000</speed>
</trkpt>
<trkpt lat="55.731327" lon="26.231325">
<ele>153.580200</ele>
<time>2010-07-17T10:59:09Z</time>
<desc>lat.=55.731327, lon.=26.231325, Alt.=153.580200m. Speed=0.144000m/h.</desc>
<speed>0.040000</speed>
</trkpt>
<trkpt lat="55.731327" lon="26.231325">
<ele>153.584106</ele>
<time>2010-07-17T10:59:10Z</time>
<desc>lat.=55.731327, lon.=26.231325, Alt.=153.584106m. Speed=0.324000m/h.</desc>
<speed>0.090000</speed>
</trkpt>
<trkpt lat="55.731327" lon="26.231327">
<ele>153.584106</ele>
<time>2010-07-17T10:59:11Z</time>
<desc>lat.=55.731327, lon.=26.231327, Alt.=153.584106m. Speed=0.252000m/h.</desc>
<speed>0.070000</speed>
</trkpt>
<trkpt lat="55.731331" lon="26.231327">
<ele>153.595825</ele>
<time>2010-07-17T10:59:12Z</time>
<desc>lat.=55.731331, lon.=26.231327, Alt.=153.595825m. Speed=0.180000m/h.</desc>
<speed>0.050000</speed>
</trkpt>
<trkpt lat="55.731331" lon="26.231329">
<ele>153.611450</ele>
<time>2010-07-17T10:59:13Z</time>
<desc>lat.=55.731331, lon.=26.231329, Alt.=153.611450m. Speed=0.504000m/h.</desc>
<speed>0.140000</speed>
</trkpt>
<trkpt lat="55.731331" lon="26.231331">
<ele>153.615356</ele>
<time>2010-07-17T10:59:14Z</time>
<desc>lat.=55.731331, lon.=26.231331, Alt.=153.615356m. Speed=0.684000m/h.</desc>
<speed>0.190000</speed>
</trkpt>
<trkpt lat="55.731331" lon="26.231333">
<ele>153.619263</ele>
<time>2010-07-17T10:59:15Z</time>
<desc>lat.=55.731331, lon.=26.231333, Alt.=153.619263m. Speed=0.756000m/h.</desc>
<speed>0.210000</speed>
</trkpt>
<trkpt lat="55.731335" lon="26.231337">
<ele>153.638794</ele>
<time>2010-07-17T10:59:16Z</time>
<desc>lat.=55.731335, lon.=26.231337, Alt.=153.638794m. Speed=0.792000m/h.</desc>
<speed>0.220000</speed>
</trkpt>
<trkpt lat="55.731335" lon="26.231339">
<ele>153.662231</ele>
<time>2010-07-17T10:59:17Z</time>
<desc>lat.=55.731335, lon.=26.231339, Alt.=153.662231m. Speed=0.216000m/h.</desc>
<speed>0.060000</speed>
</trkpt>
<trkpt lat="55.731335" lon="26.231339">
<ele>153.677856</ele>
<time>2010-07-17T10:59:18Z</time>
<desc>lat.=55.731335, lon.=26.231339, Alt.=153.677856m. Speed=0.036000m/h.</desc>
<speed>0.010000</speed>
</trkpt>
<trkpt lat="55.731335" lon="26.231339">
<ele>153.701294</ele>
<time>2010-07-17T10:59:19Z</time>
<desc>lat.=55.731335, lon.=26.231339, Alt.=153.701294m. Speed=0.036000m/h.</desc>
<speed>0.010000</speed>
</trkpt>
<trkpt lat="55.731335" lon="26.231340">
<ele>153.724731</ele>
<time>2010-07-17T10:59:20Z</time>
<desc>lat.=55.731335, lon.=26.231340, Alt.=153.724731m. Speed=0.036000m/h.</desc>
<speed>0.010000</speed>
</trkpt>
<trkpt lat="55.731335" lon="26.231340">
<ele>153.748169</ele>
<time>2010-07-17T10:59:21Z</time>
<desc>lat.=55.731335, lon.=26.231340, Alt.=153.748169m. Speed=0.072000m/h.</desc>
<speed>0.020000</speed>
</trkpt>
<trkpt lat="55.731335" lon="26.231340">
<ele>153.767700</ele>
<time>2010-07-17T10:59:22Z</time>
<desc>lat.=55.731335, lon.=26.231340, Alt.=153.767700m. Speed=0.000000m/h.</desc>
<speed>0.000000</speed>
</trkpt>
<trkpt lat="55.731335" lon="26.231340">
<ele>153.795044</ele>
<time>2010-07-17T10:59:23Z</time>
<desc>lat.=55.731335, lon.=26.231340, Alt.=153.795044m. Speed=0.108000m/h.</desc>
<speed>0.030000</speed>
</trkpt>
<trkpt lat="55.731335" lon="26.231342">
<ele>153.830200</ele>
<time>2010-07-17T10:59:24Z</time>
<desc>lat.=55.731335, lon.=26.231342, Alt.=153.830200m. Speed=0.036000m/h.</desc>
<speed>0.010000</speed>
</trkpt>
<trkpt lat="55.731335" lon="26.231342">
<ele>153.857544</ele>
<time>2010-07-17T10:59:25Z</time>
<desc>lat.=55.731335, lon.=26.231342, Alt.=153.857544m. Speed=0.000000m/h.</desc>
<speed>0.000000</speed>
</trkpt>
<trkpt lat="55.731335" lon="26.231342">
<ele>153.896606</ele>
<time>2010-07-17T10:59:26Z</time>
<desc>lat.=55.731335, lon.=26.231342, Alt.=153.896606m. Speed=0.000000m/h.</desc>
<speed>0.000000</speed>
</trkpt>
<trkpt lat="55.731335" lon="26.231342">
<ele>153.927856</ele>
<time>2010-07-17T10:59:27Z</time>
<desc>lat.=55.731335, lon.=26.231342, Alt.=153.927856m. Speed=0.036000m/h.</desc>
<speed>0.010000</speed>
</trkpt>
<trkpt lat="55.731339" lon="26.231342">
<ele>153.978638</ele>
<time>2010-07-17T10:59:28Z</time>
<desc>lat.=55.731339, lon.=26.231342, Alt.=153.978638m. Speed=0.072000m/h.</desc>
<speed>0.020000</speed>
</trkpt>
<trkpt lat="55.731339" lon="26.231342">
<ele>153.990356</ele>
<time>2010-07-17T10:59:29Z</time>
<desc>lat.=55.731339, lon.=26.231342, Alt.=153.990356m. Speed=0.000000m/h.</desc>
<speed>0.000000</speed>
</trkpt>
<trkpt lat="55.731339" lon="26.231342">
<ele>154.009888</ele>
<time>2010-07-17T10:59:30Z</time>
<desc>lat.=55.731339, lon.=26.231342, Alt.=154.009888m. Speed=0.036000m/h.</desc>
<speed>0.010000</speed>
</trkpt>
<trkpt lat="55.731339" lon="26.231344">
<ele>154.021606</ele>
<time>2010-07-17T10:59:31Z</time>
<desc>lat.=55.731339, lon.=26.231344, Alt.=154.021606m. Speed=0.000000m/h.</desc>
<speed>0.000000</speed>
</trkpt>
<trkpt lat="55.731339" lon="26.231344">
<ele>154.029419</ele>
<time>2010-07-17T10:59:32Z</time>
<desc>lat.=55.731339, lon.=26.231344, Alt.=154.029419m. Speed=0.072000m/h.</desc>
<speed>0.020000</speed>
</trkpt>
<trkpt lat="55.731339" lon="26.231344">
<ele>154.041138</ele>
<time>2010-07-17T10:59:33Z</time>
<desc>lat.=55.731339, lon.=26.231344, Alt.=154.041138m. Speed=0.072000m/h.</desc>
<speed>0.020000</speed>
</trkpt>
<trkpt lat="55.731339" lon="26.231344">
<ele>154.064575</ele>
<time>2010-07-17T10:59:34Z</time>
<desc>lat.=55.731339, lon.=26.231344, Alt.=154.064575m. Speed=0.144000m/h.</desc>
<speed>0.040000</speed>
</trkpt>
<trkpt lat="55.731339" lon="26.231344">
<ele>154.072388</ele>
<time>2010-07-17T10:59:35Z</time>
<desc>lat.=55.731339, lon.=26.231344, Alt.=154.072388m. Speed=0.108000m/h.</desc>
<speed>0.030000</speed>
</trkpt>
<trkpt lat="55.731335" lon="26.231344">
<ele>154.080200</ele>
<time>2010-07-17T10:59:36Z</time>
<desc>lat.=55.731335, lon.=26.231344, Alt.=154.080200m. Speed=0.036000m/h.</desc>
<speed>0.010000</speed>
</trkpt>
<trkpt lat="55.731335" lon="26.231344">
<ele>154.095825</ele>
<time>2010-07-17T10:59:37Z</time>
<desc>lat.=55.731335, lon.=26.231344, Alt.=154.095825m. Speed=0.108000m/h.</desc>
<speed>0.030000</speed>
</trkpt>
<trkpt lat="55.731335" lon="26.231344">
<ele>154.103638</ele>
<time>2010-07-17T10:59:38Z</time>
<desc>lat.=55.731335, lon.=26.231344, Alt.=154.103638m. Speed=0.036000m/h.</desc>
<speed>0.010000</speed>
</trkpt>
<trkpt lat="55.731335" lon="26.231344">
<ele>154.115356</ele>
<time>2010-07-17T10:59:39Z</time>
<desc>lat.=55.731335, lon.=26.231344, Alt.=154.115356m. Speed=0.036000m/h.</desc>
<speed>0.010000</speed>
</trkpt>
<trkpt lat="55.731335" lon="26.231344">
<ele>154.127075</ele>
<time>2010-07-17T10:59:40Z</time>
<desc>lat.=55.731335, lon.=26.231344, Alt.=154.127075m. Speed=0.000000m/h.</desc>
<speed>0.000000</speed>
</trkpt>
<trkpt lat="55.731335" lon="26.231344">
<ele>154.134888</ele>
<time>2010-07-17T10:59:41Z</time>
<desc>lat.=55.731335, lon.=26.231344, Alt.=154.134888m. Speed=0.000000m/h.</desc>
<speed>0.000000</speed>
</trkpt>
<trkpt lat="55.731335" lon="26.231344">
<ele>154.138794</ele>
<time>2010-07-17T10:59:42Z</time>
<desc>lat.=55.731335, lon.=26.231344, Alt.=154.138794m. Speed=0.036000m/h.</desc>
<speed>0.010000</speed>
</trkpt>
<trkpt lat="55.731335" lon="26.231344">
<ele>154.142700</ele>
<time>2010-07-17T10:59:43Z</time>
<desc>lat.=55.731335, lon.=26.231344, Alt.=154.142700m. Speed=0.000000m/h.</desc>
<speed>0.000000</speed>
</trkpt>
<trkpt lat="55.731335" lon="26.231344">
<ele>154.146606</ele>
<time>2010-07-17T10:59:44Z</time>
<desc>lat.=55.731335, lon.=26.231344, Alt.=154.146606m. Speed=0.000000m/h.</desc>
<speed>0.000000</speed>
</trkpt>
<trkpt lat="55.731335" lon="26.231344">
<ele>154.150513</ele>
<time>2010-07-17T10:59:45Z</time>
<desc>lat.=55.731335, lon.=26.231344, Alt.=154.150513m. Speed=0.036000m/h.</desc>
<speed>0.010000</speed>
</trkpt>
<trkpt lat="55.731335" lon="26.231344">
<ele>154.150513</ele>
<time>2010-07-17T10:59:46Z</time>
<desc>lat.=55.731335, lon.=26.231344, Alt.=154.150513m. Speed=0.036000m/h.</desc>
<speed>0.010000</speed>
</trkpt>
<trkpt lat="55.731335" lon="26.231344">
<ele>154.146606</ele>
<time>2010-07-17T10:59:47Z</time>
<desc>lat.=55.731335, lon.=26.231344, Alt.=154.146606m. Speed=0.036000m/h.</desc>
<speed>0.010000</speed>
</trkpt>
<trkpt lat="55.731335" lon="26.231344">
<ele>154.146606</ele>
<time>2010-07-17T10:59:48Z</time>
<desc>lat.=55.731335, lon.=26.231344, Alt.=154.146606m. Speed=0.036000m/h.</desc>
<speed>0.010000</speed>
</trkpt>
<trkpt lat="55.731335" lon="26.231344">
<ele>154.146606</ele>
<time>2010-07-17T10:59:49Z</time>
<desc>lat.=55.731335, lon.=26.231344, Alt.=154.146606m. Speed=0.036000m/h.</desc>
<speed>0.010000</speed>
</trkpt>
<trkpt lat="55.731335" lon="26.231344">
<ele>154.142700</ele>
<time>2010-07-17T10:59:50Z</time>
<desc>lat.=55.731335, lon.=26.231344, Alt.=154.142700m. Speed=0.000000m/h.</desc>
<speed>0.000000</speed>
</trkpt>
<trkpt lat="55.731335" lon="26.231344">
<ele>154.134888</ele>
<time>2010-07-17T10:59:51Z</time>
<desc>lat.=55.731335, lon.=26.231344, Alt.=154.134888m. Speed=0.108000m/h.</desc>
<speed>0.030000</speed>
</trkpt>
<trkpt lat="55.731335" lon="26.231346">
<ele>154.127075</ele>
<time>2010-07-17T10:59:52Z</time>
<desc>lat.=55.731335, lon.=26.231346, Alt.=154.127075m. Speed=0.144000m/h.</desc>
<speed>0.040000</speed>
</trkpt>
<trkpt lat="55.731339" lon="26.231346">
<ele>154.119263</ele>
<time>2010-07-17T10:59:53Z</time>
<desc>lat.=55.731339, lon.=26.231346, Alt.=154.119263m. Speed=0.216000m/h.</desc>
<speed>0.060000</speed>
</trkpt>
<trkpt lat="55.731339" lon="26.231346">
<ele>154.103638</ele>
<time>2010-07-17T10:59:54Z</time>
<desc>lat.=55.731339, lon.=26.231346, Alt.=154.103638m. Speed=0.324000m/h.</desc>
<speed>0.090000</speed>
</trkpt>
<trkpt lat="55.731339" lon="26.231348">
<ele>154.084106</ele>
<time>2010-07-17T10:59:55Z</time>
<desc>lat.=55.731339, lon.=26.231348, Alt.=154.084106m. Speed=0.396000m/h.</desc>
<speed>0.110000</speed>
</trkpt>
<trkpt lat="55.731339" lon="26.231350">
<ele>154.056763</ele>
<time>2010-07-17T10:59:56Z</time>
<desc>lat.=55.731339, lon.=26.231350, Alt.=154.056763m. Speed=0.504000m/h.</desc>
<speed>0.140000</speed>
</trkpt>
<trkpt lat="55.731339" lon="26.231350">
<ele>154.025513</ele>
<time>2010-07-17T10:59:57Z</time>
<desc>lat.=55.731339, lon.=26.231350, Alt.=154.025513m. Speed=0.540000m/h.</desc>
<speed>0.150000</speed>
</trkpt>
<trkpt lat="55.731342" lon="26.231352">
<ele>153.990356</ele>
<time>2010-07-17T10:59:58Z</time>
<desc>lat.=55.731342, lon.=26.231352, Alt.=153.990356m. Speed=0.576000m/h.</desc>
<speed>0.160000</speed>
</trkpt>
<trkpt lat="55.731342" lon="26.231354">
<ele>153.943481</ele>
<time>2010-07-17T10:59:59Z</time>
<desc>lat.=55.731342, lon.=26.231354, Alt.=153.943481m. Speed=0.648000m/h.</desc>
<speed>0.180000</speed>
</trkpt>
<trkpt lat="55.731342" lon="26.231356">
<ele>153.892700</ele>
<time>2010-07-17T11:00:00Z</time>
<desc>lat.=55.731342, lon.=26.231356, Alt.=153.892700m. Speed=0.720000m/h.</desc>
<speed>0.200000</speed>
</trkpt>
<trkpt lat="55.731346" lon="26.231358">
<ele>153.838013</ele>
<time>2010-07-17T11:00:01Z</time>
<desc>lat.=55.731346, lon.=26.231358, Alt.=153.838013m. Speed=0.720000m/h.</desc>
<speed>0.200000</speed>
</trkpt>
<trkpt lat="55.731346" lon="26.231361">
<ele>153.779419</ele>
<time>2010-07-17T11:00:02Z</time>
<desc>lat.=55.731346, lon.=26.231361, Alt.=153.779419m. Speed=0.828000m/h.</desc>
<speed>0.230000</speed>
</trkpt>
<trkpt lat="55.731346" lon="26.231363">
<ele>153.716919</ele>
<time>2010-07-17T11:00:03Z</time>
<desc>lat.=55.731346, lon.=26.231363, Alt.=153.716919m. Speed=0.900000m/h.</desc>
<speed>0.250000</speed>
</trkpt>
<trkpt lat="55.731350" lon="26.231365">
<ele>153.646606</ele>
<time>2010-07-17T11:00:04Z</time>
<desc>lat.=55.731350, lon.=26.231365, Alt.=153.646606m. Speed=1.008000m/h.</desc>
<speed>0.280000</speed>
</trkpt>
<trkpt lat="55.731350" lon="26.231369">
<ele>153.572388</ele>
<time>2010-07-17T11:00:05Z</time>
<desc>lat.=55.731350, lon.=26.231369, Alt.=153.572388m. Speed=1.044000m/h.</desc>
<speed>0.290000</speed>
</trkpt>
<trkpt lat="55.731354" lon="26.231373">
<ele>153.502075</ele>
<time>2010-07-17T11:00:06Z</time>
<desc>lat.=55.731354, lon.=26.231373, Alt.=153.502075m. Speed=1.080000m/h.</desc>
<speed>0.300000</speed>
</trkpt>
<trkpt lat="55.731358" lon="26.231375">
<ele>153.474731</ele>
<time>2010-07-17T11:00:07Z</time>
<desc>lat.=55.731358, lon.=26.231375, Alt.=153.474731m. Speed=1.008000m/h.</desc>
<speed>0.280000</speed>
</trkpt>
<trkpt lat="55.731361" lon="26.231375">
<ele>153.404419</ele>
<time>2010-07-17T11:00:08Z</time>
<desc>lat.=55.731361, lon.=26.231375, Alt.=153.404419m. Speed=0.864000m/h.</desc>
<speed>0.240000</speed>
</trkpt>
<trkpt lat="55.731365" lon="26.231384">
<ele>152.990356</ele>
<time>2010-07-17T11:00:09Z</time>
<desc>lat.=55.731365, lon.=26.231384, Alt.=152.990356m. Speed=1.008000m/h.</desc>
<speed>0.280000</speed>
</trkpt>
<trkpt lat="55.731365" lon="26.231384">
<ele>153.107544</ele>
<time>2010-07-17T11:00:10Z</time>
<desc>lat.=55.731365, lon.=26.231384, Alt.=153.107544m. Speed=0.792000m/h.</desc>
<speed>0.220000</speed>
</trkpt>
<trkpt lat="55.731369" lon="26.231386">
<ele>153.037231</ele>
<time>2010-07-17T11:00:11Z</time>
<desc>lat.=55.731369, lon.=26.231386, Alt.=153.037231m. Speed=0.720000m/h.</desc>
<speed>0.200000</speed>
</trkpt>
<trkpt lat="55.731369" lon="26.231388">
<ele>152.970825</ele>
<time>2010-07-17T11:00:12Z</time>
<desc>lat.=55.731369, lon.=26.231388, Alt.=152.970825m. Speed=0.828000m/h.</desc>
<speed>0.230000</speed>
</trkpt>
<trkpt lat="55.731373" lon="26.231390">
<ele>152.908325</ele>
<time>2010-07-17T11:00:13Z</time>
<desc>lat.=55.731373, lon.=26.231390, Alt.=152.908325m. Speed=0.684000m/h.</desc>
<speed>0.190000</speed>
</trkpt>
<trkpt lat="55.731373" lon="26.231394">
<ele>152.849731</ele>
<time>2010-07-17T11:00:14Z</time>
<desc>lat.=55.731373, lon.=26.231394, Alt.=152.849731m. Speed=0.540000m/h.</desc>
<speed>0.150000</speed>
</trkpt>
<trkpt lat="55.731373" lon="26.231396">
<ele>152.791138</ele>
<time>2010-07-17T11:00:15Z</time>
<desc>lat.=55.731373, lon.=26.231396, Alt.=152.791138m. Speed=0.468000m/h.</desc>
<speed>0.130000</speed>
</trkpt>
<trkpt lat="55.731377" lon="26.231396">
<ele>152.740356</ele>
<time>2010-07-17T11:00:16Z</time>
<desc>lat.=55.731377, lon.=26.231396, Alt.=152.740356m. Speed=0.360000m/h.</desc>
<speed>0.100000</speed>
</trkpt>
<trkpt lat="55.731377" lon="26.231398">
<ele>152.697388</ele>
<time>2010-07-17T11:00:17Z</time>
<desc>lat.=55.731377, lon.=26.231398, Alt.=152.697388m. Speed=0.360000m/h.</desc>
<speed>0.100000</speed>
</trkpt>
<trkpt lat="55.731377" lon="26.231398">
<ele>152.654419</ele>
<time>2010-07-17T11:00:18Z</time>
<desc>lat.=55.731377, lon.=26.231398, Alt.=152.654419m. Speed=0.288000m/h.</desc>
<speed>0.080000</speed>
</trkpt>
<trkpt lat="55.731377" lon="26.231400">
<ele>152.619263</ele>
<time>2010-07-17T11:00:19Z</time>
<desc>lat.=55.731377, lon.=26.231400, Alt.=152.619263m. Speed=0.216000m/h.</desc>
<speed>0.060000</speed>
</trkpt>
<trkpt lat="55.731377" lon="26.231400">
<ele>152.591919</ele>
<time>2010-07-17T11:00:20Z</time>
<desc>lat.=55.731377, lon.=26.231400, Alt.=152.591919m. Speed=0.036000m/h.</desc>
<speed>0.010000</speed>
</trkpt>
<trkpt lat="55.731377" lon="26.231401">
<ele>152.576294</ele>
<time>2010-07-17T11:00:21Z</time>
<desc>lat.=55.731377, lon.=26.231401, Alt.=152.576294m. Speed=0.072000m/h.</desc>
<speed>0.020000</speed>
</trkpt>
<trkpt lat="55.731377" lon="26.231401">
<ele>152.572388</ele>
<time>2010-07-17T11:00:22Z</time>
<desc>lat.=55.731377, lon.=26.231401, Alt.=152.572388m. Speed=0.036000m/h.</desc>
<speed>0.010000</speed>
</trkpt>
<trkpt lat="55.731377" lon="26.231401">
<ele>152.572388</ele>
<time>2010-07-17T11:00:23Z</time>
<desc>lat.=55.731377, lon.=26.231401, Alt.=152.572388m. Speed=0.108000m/h.</desc>
<speed>0.030000</speed>
</trkpt>
<trkpt lat="55.731377" lon="26.231401">
<ele>152.580200</ele>
<time>2010-07-17T11:00:24Z</time>
<desc>lat.=55.731377, lon.=26.231401, Alt.=152.580200m. Speed=0.036000m/h.</desc>
<speed>0.010000</speed>
</trkpt>
<trkpt lat="55.731377" lon="26.231401">
<ele>152.603638</ele>
<time>2010-07-17T11:00:25Z</time>
<desc>lat.=55.731377, lon.=26.231401, Alt.=152.603638m. Speed=0.036000m/h.</desc>
<speed>0.010000</speed>
</trkpt>
<trkpt lat="55.731377" lon="26.231401">
<ele>152.642700</ele>
<time>2010-07-17T11:00:26Z</time>
<desc>lat.=55.731377, lon.=26.231401, Alt.=152.642700m. Speed=0.072000m/h.</desc>
<speed>0.020000</speed>
</trkpt>
<trkpt lat="55.731377" lon="26.231401">
<ele>152.693481</ele>
<time>2010-07-17T11:00:27Z</time>
<desc>lat.=55.731377, lon.=26.231401, Alt.=152.693481m. Speed=0.072000m/h.</desc>
<speed>0.020000</speed>
</trkpt>
<trkpt lat="55.731377" lon="26.231401">
<ele>152.740356</ele>
<time>2010-07-17T11:00:28Z</time>
<desc>lat.=55.731377, lon.=26.231401, Alt.=152.740356m. Speed=0.072000m/h.</desc>
<speed>0.020000</speed>
</trkpt>
<trkpt lat="55.731377" lon="26.231401">
<ele>152.791138</ele>
<time>2010-07-17T11:00:29Z</time>
<desc>lat.=55.731377, lon.=26.231401, Alt.=152.791138m. Speed=0.108000m/h.</desc>
<speed>0.030000</speed>
</trkpt>
<trkpt lat="55.731377" lon="26.231403">
<ele>152.838013</ele>
<time>2010-07-17T11:00:30Z</time>
<desc>lat.=55.731377, lon.=26.231403, Alt.=152.838013m. Speed=0.072000m/h.</desc>
<speed>0.020000</speed>
</trkpt>
<trkpt lat="55.731377" lon="26.231401">
<ele>152.892700</ele>
<time>2010-07-17T11:00:31Z</time>
<desc>lat.=55.731377, lon.=26.231401, Alt.=152.892700m. Speed=0.072000m/h.</desc>
<speed>0.020000</speed>
</trkpt>
<trkpt lat="55.731377" lon="26.231403">
<ele>152.900513</ele>
<time>2010-07-17T11:00:32Z</time>
<desc>lat.=55.731377, lon.=26.231403, Alt.=152.900513m. Speed=0.072000m/h.</desc>
<speed>0.020000</speed>
</trkpt>
<trkpt lat="55.731377" lon="26.231403">
<ele>152.904419</ele>
<time>2010-07-17T11:00:33Z</time>
<desc>lat.=55.731377, lon.=26.231403, Alt.=152.904419m. Speed=0.036000m/h.</desc>
<speed>0.010000</speed>
</trkpt>
<trkpt lat="55.731377" lon="26.231403">
<ele>152.908325</ele>
<time>2010-07-17T11:00:34Z</time>
<desc>lat.=55.731377, lon.=26.231403, Alt.=152.908325m. Speed=0.108000m/h.</desc>
<speed>0.030000</speed>
</trkpt>
<trkpt lat="55.731377" lon="26.231403">
<ele>152.916138</ele>
<time>2010-07-17T11:00:35Z</time>
<desc>lat.=55.731377, lon.=26.231403, Alt.=152.916138m. Speed=0.036000m/h.</desc>
<speed>0.010000</speed>
</trkpt>
<trkpt lat="55.731377" lon="26.231403">
<ele>152.916138</ele>
<time>2010-07-17T11:00:36Z</time>
<desc>lat.=55.731377, lon.=26.231403, Alt.=152.916138m. Speed=0.000000m/h.</desc>
<speed>0.000000</speed>
</trkpt>
<trkpt lat="55.731377" lon="26.231403">
<ele>152.927856</ele>
<time>2010-07-17T11:00:37Z</time>
<desc>lat.=55.731377, lon.=26.231403, Alt.=152.927856m. Speed=0.072000m/h.</desc>
<speed>0.020000</speed>
</trkpt>
<trkpt lat="55.731377" lon="26.231403">
<ele>152.935669</ele>
<time>2010-07-17T11:00:38Z</time>
<desc>lat.=55.731377, lon.=26.231403, Alt.=152.935669m. Speed=0.180000m/h.</desc>
<speed>0.050000</speed>
</trkpt>
<trkpt lat="55.731377" lon="26.231403">
<ele>152.959106</ele>
<time>2010-07-17T11:00:39Z</time>
<desc>lat.=55.731377, lon.=26.231403, Alt.=152.959106m. Speed=0.108000m/h.</desc>
<speed>0.030000</speed>
</trkpt>
<trkpt lat="55.731377" lon="26.231403">
<ele>152.978638</ele>
<time>2010-07-17T11:00:40Z</time>
<desc>lat.=55.731377, lon.=26.231403, Alt.=152.978638m. Speed=0.180000m/h.</desc>
<speed>0.050000</speed>
</trkpt>
<trkpt lat="55.731377" lon="26.231403">
<ele>152.986450</ele>
<time>2010-07-17T11:00:41Z</time>
<desc>lat.=55.731377, lon.=26.231403, Alt.=152.986450m. Speed=0.072000m/h.</desc>
<speed>0.020000</speed>
</trkpt>
<trkpt lat="55.731377" lon="26.231405">
<ele>152.990356</ele>
<time>2010-07-17T11:00:42Z</time>
<desc>lat.=55.731377, lon.=26.231405, Alt.=152.990356m. Speed=0.072000m/h.</desc>
<speed>0.020000</speed>
</trkpt>
<trkpt lat="55.731377" lon="26.231405">
<ele>152.986450</ele>
<time>2010-07-17T11:00:43Z</time>
<desc>lat.=55.731377, lon.=26.231405, Alt.=152.986450m. Speed=0.036000m/h.</desc>
<speed>0.010000</speed>
</trkpt>
<trkpt lat="55.731380" lon="26.231405">
<ele>152.986450</ele>
<time>2010-07-17T11:00:44Z</time>
<desc>lat.=55.731380, lon.=26.231405, Alt.=152.986450m. Speed=0.072000m/h.</desc>
<speed>0.020000</speed>
</trkpt>
<trkpt lat="55.731380" lon="26.231405">
<ele>152.986450</ele>
<time>2010-07-17T11:00:45Z</time>
<desc>lat.=55.731380, lon.=26.231405, Alt.=152.986450m. Speed=0.108000m/h.</desc>
<speed>0.030000</speed>
</trkpt>
<trkpt lat="55.731380" lon="26.231405">
<ele>152.990356</ele>
<time>2010-07-17T11:00:46Z</time>
<desc>lat.=55.731380, lon.=26.231405, Alt.=152.990356m. Speed=0.180000m/h.</desc>
<speed>0.050000</speed>
</trkpt>
<trkpt lat="55.731380" lon="26.231407">
<ele>152.994263</ele>
<time>2010-07-17T11:00:47Z</time>
<desc>lat.=55.731380, lon.=26.231407, Alt.=152.994263m. Speed=0.288000m/h.</desc>
<speed>0.080000</speed>
</trkpt>
<trkpt lat="55.731380" lon="26.231407">
<ele>153.002075</ele>
<time>2010-07-17T11:00:48Z</time>
<desc>lat.=55.731380, lon.=26.231407, Alt.=153.002075m. Speed=0.324000m/h.</desc>
<speed>0.090000</speed>
</trkpt>
<trkpt lat="55.731380" lon="26.231409">
<ele>153.009888</ele>
<time>2010-07-17T11:00:49Z</time>
<desc>lat.=55.731380, lon.=26.231409, Alt.=153.009888m. Speed=0.360000m/h.</desc>
<speed>0.100000</speed>
</trkpt>
<trkpt lat="55.731380" lon="26.231409">
<ele>153.009888</ele>
<time>2010-07-17T11:00:50Z</time>
<desc>lat.=55.731380, lon.=26.231409, Alt.=153.009888m. Speed=0.432000m/h.</desc>
<speed>0.120000</speed>
</trkpt>
<trkpt lat="55.731380" lon="26.231411">
<ele>153.013794</ele>
<time>2010-07-17T11:00:51Z</time>
<desc>lat.=55.731380, lon.=26.231411, Alt.=153.013794m. Speed=0.360000m/h.</desc>
<speed>0.100000</speed>
</trkpt>
<trkpt lat="55.731384" lon="26.231413">
<ele>153.021606</ele>
<time>2010-07-17T11:00:52Z</time>
<desc>lat.=55.731384, lon.=26.231413, Alt.=153.021606m. Speed=0.252000m/h.</desc>
<speed>0.070000</speed>
</trkpt>
<trkpt lat="55.731384" lon="26.231413">
<ele>153.033325</ele>
<time>2010-07-17T11:00:53Z</time>
<desc>lat.=55.731384, lon.=26.231413, Alt.=153.033325m. Speed=0.216000m/h.</desc>
<speed>0.060000</speed>
</trkpt>
<trkpt lat="55.731384" lon="26.231413">
<ele>153.041138</ele>
<time>2010-07-17T11:00:54Z</time>
<desc>lat.=55.731384, lon.=26.231413, Alt.=153.041138m. Speed=0.180000m/h.</desc>
<speed>0.050000</speed>
</trkpt>
<trkpt lat="55.731384" lon="26.231415">
<ele>153.052856</ele>
<time>2010-07-17T11:00:55Z</time>
<desc>lat.=55.731384, lon.=26.231415, Alt.=153.052856m. Speed=0.180000m/h.</desc>
<speed>0.050000</speed>
</trkpt>
<trkpt lat="55.731384" lon="26.231415">
<ele>153.072388</ele>
<time>2010-07-17T11:00:56Z</time>
<desc>lat.=55.731384, lon.=26.231415, Alt.=153.072388m. Speed=0.108000m/h.</desc>
<speed>0.030000</speed>
</trkpt>
<trkpt lat="55.731384" lon="26.231415">
<ele>153.099731</ele>
<time>2010-07-17T11:00:57Z</time>
<desc>lat.=55.731384, lon.=26.231415, Alt.=153.099731m. Speed=0.036000m/h.</desc>
<speed>0.010000</speed>
</trkpt>
<trkpt lat="55.731384" lon="26.231415">
<ele>153.138794</ele>
<time>2010-07-17T11:00:58Z</time>
<desc>lat.=55.731384, lon.=26.231415, Alt.=153.138794m. Speed=0.036000m/h.</desc>
<speed>0.010000</speed>
</trkpt>
<trkpt lat="55.731384" lon="26.231415">
<ele>153.185669</ele>
<time>2010-07-17T11:00:59Z</time>
<desc>lat.=55.731384, lon.=26.231415, Alt.=153.185669m. Speed=0.036000m/h.</desc>
<speed>0.010000</speed>
</trkpt>
<trkpt lat="55.731384" lon="26.231415">
<ele>153.232544</ele>
<time>2010-07-17T11:01:00Z</time>
<desc>lat.=55.731384, lon.=26.231415, Alt.=153.232544m. Speed=0.144000m/h.</desc>
<speed>0.040000</speed>
</trkpt>
<trkpt lat="55.731384" lon="26.231415">
<ele>153.279419</ele>
<time>2010-07-17T11:01:01Z</time>
<desc>lat.=55.731384, lon.=26.231415, Alt.=153.279419m. Speed=0.324000m/h.</desc>
<speed>0.090000</speed>
</trkpt>
<trkpt lat="55.731380" lon="26.231413">
<ele>153.318481</ele>
<time>2010-07-17T11:01:02Z</time>
<desc>lat.=55.731380, lon.=26.231413, Alt.=153.318481m. Speed=0.468000m/h.</desc>
<speed>0.130000</speed>
</trkpt>
<trkpt lat="55.731380" lon="26.231413">
<ele>153.357544</ele>
<time>2010-07-17T11:01:03Z</time>
<desc>lat.=55.731380, lon.=26.231413, Alt.=153.357544m. Speed=0.468000m/h.</desc>
<speed>0.130000</speed>
</trkpt>
<trkpt lat="55.731380" lon="26.231411">
<ele>153.392700</ele>
<time>2010-07-17T11:01:04Z</time>
<desc>lat.=55.731380, lon.=26.231411, Alt.=153.392700m. Speed=0.468000m/h.</desc>
<speed>0.130000</speed>
</trkpt>
<trkpt lat="55.731380" lon="26.231409">
<ele>153.435669</ele>
<time>2010-07-17T11:01:05Z</time>
<desc>lat.=55.731380, lon.=26.231409, Alt.=153.435669m. Speed=0.504000m/h.</desc>
<speed>0.140000</speed>
</trkpt>
<trkpt lat="55.731377" lon="26.231407">
<ele>153.486450</ele>
<time>2010-07-17T11:01:06Z</time>
<desc>lat.=55.731377, lon.=26.231407, Alt.=153.486450m. Speed=0.576000m/h.</desc>
<speed>0.160000</speed>
</trkpt>
<trkpt lat="55.731377" lon="26.231405">
<ele>153.545044</ele>
<time>2010-07-17T11:01:07Z</time>
<desc>lat.=55.731377, lon.=26.231405, Alt.=153.545044m. Speed=0.612000m/h.</desc>
<speed>0.170000</speed>
</trkpt>
<trkpt lat="55.731377" lon="26.231405">
<ele>153.607544</ele>
<time>2010-07-17T11:01:08Z</time>
<desc>lat.=55.731377, lon.=26.231405, Alt.=153.607544m. Speed=0.612000m/h.</desc>
<speed>0.170000</speed>
</trkpt>
<trkpt lat="55.731373" lon="26.231403">
<ele>153.677856</ele>
<time>2010-07-17T11:01:09Z</time>
<desc>lat.=55.731373, lon.=26.231403, Alt.=153.677856m. Speed=0.648000m/h.</desc>
<speed>0.180000</speed>
</trkpt>
<trkpt lat="55.731373" lon="26.231401">
<ele>153.744263</ele>
<time>2010-07-17T11:01:10Z</time>
<desc>lat.=55.731373, lon.=26.231401, Alt.=153.744263m. Speed=0.648000m/h.</desc>
<speed>0.180000</speed>
</trkpt>
<trkpt lat="55.731373" lon="26.231400">
<ele>153.814575</ele>
<time>2010-07-17T11:01:11Z</time>
<desc>lat.=55.731373, lon.=26.231400, Alt.=153.814575m. Speed=0.612000m/h.</desc>
<speed>0.170000</speed>
</trkpt>
<trkpt lat="55.731369" lon="26.231398">
<ele>153.884888</ele>
<time>2010-07-17T11:01:12Z</time>
<desc>lat.=55.731369, lon.=26.231398, Alt.=153.884888m. Speed=0.612000m/h.</desc>
<speed>0.170000</speed>
</trkpt>
<trkpt lat="55.731369" lon="26.231396">
<ele>153.955200</ele>
<time>2010-07-17T11:01:13Z</time>
<desc>lat.=55.731369, lon.=26.231396, Alt.=153.955200m. Speed=0.504000m/h.</desc>
<speed>0.140000</speed>
</trkpt>
<trkpt lat="55.731369" lon="26.231394">
<ele>154.021606</ele>
<time>2010-07-17T11:01:14Z</time>
<desc>lat.=55.731369, lon.=26.231394, Alt.=154.021606m. Speed=0.432000m/h.</desc>
<speed>0.120000</speed>
</trkpt>
<trkpt lat="55.731365" lon="26.231394">
<ele>154.088013</ele>
<time>2010-07-17T11:01:15Z</time>
<desc>lat.=55.731365, lon.=26.231394, Alt.=154.088013m. Speed=0.360000m/h.</desc>
<speed>0.100000</speed>
</trkpt>
<trkpt lat="55.731365" lon="26.231392">
<ele>154.154419</ele>
<time>2010-07-17T11:01:16Z</time>
<desc>lat.=55.731365, lon.=26.231392, Alt.=154.154419m. Speed=0.288000m/h.</desc>
<speed>0.080000</speed>
</trkpt>
<trkpt lat="55.731365" lon="26.231392">
<ele>154.220825</ele>
<time>2010-07-17T11:01:17Z</time>
<desc>lat.=55.731365, lon.=26.231392, Alt.=154.220825m. Speed=0.216000m/h.</desc>
<speed>0.060000</speed>
</trkpt>
<trkpt lat="55.731365" lon="26.231392">
<ele>154.287231</ele>
<time>2010-07-17T11:01:18Z</time>
<desc>lat.=55.731365, lon.=26.231392, Alt.=154.287231m. Speed=0.144000m/h.</desc>
<speed>0.040000</speed>
</trkpt>
<trkpt lat="55.731365" lon="26.231392">
<ele>154.357544</ele>
<time>2010-07-17T11:01:19Z</time>
<desc>lat.=55.731365, lon.=26.231392, Alt.=154.357544m. Speed=0.072000m/h.</desc>
<speed>0.020000</speed>
</trkpt>
<trkpt lat="55.731365" lon="26.231392">
<ele>154.431763</ele>
<time>2010-07-17T11:01:20Z</time>
<desc>lat.=55.731365, lon.=26.231392, Alt.=154.431763m. Speed=0.072000m/h.</desc>
<speed>0.020000</speed>
</trkpt>
<trkpt lat="55.731365" lon="26.231392">
<ele>154.517700</ele>
<time>2010-07-17T11:01:21Z</time>
<desc>lat.=55.731365, lon.=26.231392, Alt.=154.517700m. Speed=0.108000m/h.</desc>
<speed>0.030000</speed>
</trkpt>
<trkpt lat="55.731365" lon="26.231392">
<ele>154.611450</ele>
<time>2010-07-17T11:01:22Z</time>
<desc>lat.=55.731365, lon.=26.231392, Alt.=154.611450m. Speed=0.252000m/h.</desc>
<speed>0.070000</speed>
</trkpt>
<trkpt lat="55.731365" lon="26.231394">
<ele>154.724731</ele>
<time>2010-07-17T11:01:23Z</time>
<desc>lat.=55.731365, lon.=26.231394, Alt.=154.724731m. Speed=0.324000m/h.</desc>
<speed>0.090000</speed>
</trkpt>
<trkpt lat="55.731365" lon="26.231396">
<ele>154.841919</ele>
<time>2010-07-17T11:01:24Z</time>
<desc>lat.=55.731365, lon.=26.231396, Alt.=154.841919m. Speed=0.396000m/h.</desc>
<speed>0.110000</speed>
</trkpt>
<trkpt lat="55.731365" lon="26.231398">
<ele>154.970825</ele>
<time>2010-07-17T11:01:25Z</time>
<desc>lat.=55.731365, lon.=26.231398, Alt.=154.970825m. Speed=0.432000m/h.</desc>
<speed>0.120000</speed>
</trkpt>
<trkpt lat="55.731365" lon="26.231400">
<ele>155.111450</ele>
<time>2010-07-17T11:01:26Z</time>
<desc>lat.=55.731365, lon.=26.231400, Alt.=155.111450m. Speed=0.468000m/h.</desc>
<speed>0.130000</speed>
</trkpt>
<trkpt lat="55.731361" lon="26.231401">
<ele>155.259888</ele>
<time>2010-07-17T11:01:27Z</time>
<desc>lat.=55.731361, lon.=26.231401, Alt.=155.259888m. Speed=0.504000m/h.</desc>
<speed>0.140000</speed>
</trkpt>
<trkpt lat="55.731361" lon="26.231403">
<ele>155.412231</ele>
<time>2010-07-17T11:01:28Z</time>
<desc>lat.=55.731361, lon.=26.231403, Alt.=155.412231m. Speed=0.504000m/h.</desc>
<speed>0.140000</speed>
</trkpt>
<trkpt lat="55.731361" lon="26.231405">
<ele>155.576294</ele>
<time>2010-07-17T11:01:29Z</time>
<desc>lat.=55.731361, lon.=26.231405, Alt.=155.576294m. Speed=0.540000m/h.</desc>
<speed>0.150000</speed>
</trkpt>
<trkpt lat="55.731361" lon="26.231407">
<ele>155.752075</ele>
<time>2010-07-17T11:01:30Z</time>
<desc>lat.=55.731361, lon.=26.231407, Alt.=155.752075m. Speed=0.576000m/h.</desc>
<speed>0.160000</speed>
</trkpt>
<trkpt lat="55.731358" lon="26.231409">
<ele>155.931763</ele>
<time>2010-07-17T11:01:31Z</time>
<desc>lat.=55.731358, lon.=26.231409, Alt.=155.931763m. Speed=0.576000m/h.</desc>
<speed>0.160000</speed>
</trkpt>
<trkpt lat="55.731358" lon="26.231411">
<ele>156.123169</ele>
<time>2010-07-17T11:01:32Z</time>
<desc>lat.=55.731358, lon.=26.231411, Alt.=156.123169m. Speed=0.504000m/h.</desc>
<speed>0.140000</speed>
</trkpt>
<trkpt lat="55.731358" lon="26.231411">
<ele>156.322388</ele>
<time>2010-07-17T11:01:33Z</time>
<desc>lat.=55.731358, lon.=26.231411, Alt.=156.322388m. Speed=0.504000m/h.</desc>
<speed>0.140000</speed>
</trkpt>
<trkpt lat="55.731354" lon="26.231411">
<ele>156.525513</ele>
<time>2010-07-17T11:01:34Z</time>
<desc>lat.=55.731354, lon.=26.231411, Alt.=156.525513m. Speed=0.540000m/h.</desc>
<speed>0.150000</speed>
</trkpt>
<trkpt lat="55.731354" lon="26.231413">
<ele>156.736450</ele>
<time>2010-07-17T11:01:35Z</time>
<desc>lat.=55.731354, lon.=26.231413, Alt.=156.736450m. Speed=0.468000m/h.</desc>
<speed>0.130000</speed>
</trkpt>
<trkpt lat="55.731354" lon="26.231413">
<ele>156.951294</ele>
<time>2010-07-17T11:01:36Z</time>
<desc>lat.=55.731354, lon.=26.231413, Alt.=156.951294m. Speed=0.360000m/h.</desc>
<speed>0.100000</speed>
</trkpt>
<trkpt lat="55.731354" lon="26.231413">
<ele>157.170044</ele>
<time>2010-07-17T11:01:37Z</time>
<desc>lat.=55.731354, lon.=26.231413, Alt.=157.170044m. Speed=0.360000m/h.</desc>
<speed>0.100000</speed>
</trkpt>
<trkpt lat="55.731350" lon="26.231415">
<ele>157.388794</ele>
<time>2010-07-17T11:01:38Z</time>
<desc>lat.=55.731350, lon.=26.231415, Alt.=157.388794m. Speed=0.396000m/h.</desc>
<speed>0.110000</speed>
</trkpt>
<trkpt lat="55.731350" lon="26.231415">
<ele>157.615356</ele>
<time>2010-07-17T11:01:39Z</time>
<desc>lat.=55.731350, lon.=26.231415, Alt.=157.615356m. Speed=0.360000m/h.</desc>
<speed>0.100000</speed>
</trkpt>
<trkpt lat="55.731350" lon="26.231415">
<ele>157.841919</ele>
<time>2010-07-17T11:01:40Z</time>
<desc>lat.=55.731350, lon.=26.231415, Alt.=157.841919m. Speed=0.288000m/h.</desc>
<speed>0.080000</speed>
</trkpt>
<trkpt lat="55.731350" lon="26.231417">
<ele>158.080200</ele>
<time>2010-07-17T11:01:41Z</time>
<desc>lat.=55.731350, lon.=26.231417, Alt.=158.080200m. Speed=0.036000m/h.</desc>
<speed>0.010000</speed>
</trkpt>
<trkpt lat="55.731350" lon="26.231417">
<ele>158.314575</ele>
<time>2010-07-17T11:01:42Z</time>
<desc>lat.=55.731350, lon.=26.231417, Alt.=158.314575m. Speed=0.108000m/h.</desc>
<speed>0.030000</speed>
</trkpt>
<trkpt lat="55.731350" lon="26.231415">
<ele>158.556763</ele>
<time>2010-07-17T11:01:43Z</time>
<desc>lat.=55.731350, lon.=26.231415, Alt.=158.556763m. Speed=0.180000m/h.</desc>
<speed>0.050000</speed>
</trkpt>
<trkpt lat="55.731350" lon="26.231415">
<ele>158.798950</ele>
<time>2010-07-17T11:01:44Z</time>
<desc>lat.=55.731350, lon.=26.231415, Alt.=158.798950m. Speed=0.216000m/h.</desc>
<speed>0.060000</speed>
</trkpt>
<trkpt lat="55.731350" lon="26.231415">
<ele>159.041138</ele>
<time>2010-07-17T11:01:45Z</time>
<desc>lat.=55.731350, lon.=26.231415, Alt.=159.041138m. Speed=0.252000m/h.</desc>
<speed>0.070000</speed>
</trkpt>
<trkpt lat="55.731350" lon="26.231415">
<ele>159.283325</ele>
<time>2010-07-17T11:01:46Z</time>
<desc>lat.=55.731350, lon.=26.231415, Alt.=159.283325m. Speed=0.324000m/h.</desc>
<speed>0.090000</speed>
</trkpt>
<trkpt lat="55.731354" lon="26.231417">
<ele>159.529419</ele>
<time>2010-07-17T11:01:47Z</time>
<desc>lat.=55.731354, lon.=26.231417, Alt.=159.529419m. Speed=0.360000m/h.</desc>
<speed>0.100000</speed>
</trkpt>
<trkpt lat="55.731354" lon="26.231417">
<ele>159.779419</ele>
<time>2010-07-17T11:01:48Z</time>
<desc>lat.=55.731354, lon.=26.231417, Alt.=159.779419m. Speed=0.468000m/h.</desc>
<speed>0.130000</speed>
</trkpt>
<trkpt lat="55.731354" lon="26.231417">
<ele>160.025513</ele>
<time>2010-07-17T11:01:49Z</time>
<desc>lat.=55.731354, lon.=26.231417, Alt.=160.025513m. Speed=0.576000m/h.</desc>
<speed>0.160000</speed>
</trkpt>
<trkpt lat="55.731358" lon="26.231419">
<ele>160.275513</ele>
<time>2010-07-17T11:01:50Z</time>
<desc>lat.=55.731358, lon.=26.231419, Alt.=160.275513m. Speed=0.648000m/h.</desc>
<speed>0.180000</speed>
</trkpt>
<trkpt lat="55.731358" lon="26.231419">
<ele>160.521606</ele>
<time>2010-07-17T11:01:51Z</time>
<desc>lat.=55.731358, lon.=26.231419, Alt.=160.521606m. Speed=0.720000m/h.</desc>
<speed>0.200000</speed>
</trkpt>
<trkpt lat="55.731358" lon="26.231421">
<ele>160.767700</ele>
<time>2010-07-17T11:01:52Z</time>
<desc>lat.=55.731358, lon.=26.231421, Alt.=160.767700m. Speed=0.900000m/h.</desc>
<speed>0.250000</speed>
</trkpt>
<trkpt lat="55.731361" lon="26.231422">
<ele>161.017700</ele>
<time>2010-07-17T11:01:53Z</time>
<desc>lat.=55.731361, lon.=26.231422, Alt.=161.017700m. Speed=0.972000m/h.</desc>
<speed>0.270000</speed>
</trkpt>
<trkpt lat="55.731365" lon="26.231424">
<ele>161.271606</ele>
<time>2010-07-17T11:01:54Z</time>
<desc>lat.=55.731365, lon.=26.231424, Alt.=161.271606m. Speed=1.152000m/h.</desc>
<speed>0.320000</speed>
</trkpt>
<trkpt lat="55.731373" lon="26.231436">
<ele>161.705200</ele>
<time>2010-07-17T11:01:55Z</time>
<desc>lat.=55.731373, lon.=26.231436, Alt.=161.705200m. Speed=1.152000m/h.</desc>
<speed>0.320000</speed>
</trkpt>
<trkpt lat="55.731380" lon="26.231440">
<ele>162.404419</ele>
<time>2010-07-17T11:01:56Z</time>
<desc>lat.=55.731380, lon.=26.231440, Alt.=162.404419m. Speed=1.224000m/h.</desc>
<speed>0.340000</speed>
</trkpt>
<trkpt lat="55.731396" lon="26.231449">
<ele>163.427856</ele>
<time>2010-07-17T11:01:57Z</time>
<desc>lat.=55.731396, lon.=26.231449, Alt.=163.427856m. Speed=1.368000m/h.</desc>
<speed>0.380000</speed>
</trkpt>
<trkpt lat="55.731403" lon="26.231455">
<ele>164.025513</ele>
<time>2010-07-17T11:01:58Z</time>
<desc>lat.=55.731403, lon.=26.231455, Alt.=164.025513m. Speed=1.368000m/h.</desc>
<speed>0.380000</speed>
</trkpt>
<trkpt lat="55.731415" lon="26.231464">
<ele>165.005981</ele>
<time>2010-07-17T11:01:59Z</time>
<desc>lat.=55.731415, lon.=26.231464, Alt.=165.005981m. Speed=1.476000m/h.</desc>
<speed>0.410000</speed>
</trkpt>
<trkpt lat="55.731422" lon="26.231472">
<ele>166.162231</ele>
<time>2010-07-17T11:02:00Z</time>
<desc>lat.=55.731422, lon.=26.231472, Alt.=166.162231m. Speed=1.368000m/h.</desc>
<speed>0.380000</speed>
</trkpt>
<trkpt lat="55.731441" lon="26.231483">
<ele>167.580200</ele>
<time>2010-07-17T11:02:01Z</time>
<desc>lat.=55.731441, lon.=26.231483, Alt.=167.580200m. Speed=1.332000m/h.</desc>
<speed>0.370000</speed>
</trkpt>
<trkpt lat="55.731453" lon="26.231485">
<ele>169.435669</ele>
<time>2010-07-17T11:02:02Z</time>
<desc>lat.=55.731453, lon.=26.231485, Alt.=169.435669m. Speed=1.116000m/h.</desc>
<speed>0.310000</speed>
</trkpt>
<trkpt lat="55.731464" lon="26.231483">
<ele>171.279419</ele>
<time>2010-07-17T11:02:03Z</time>
<desc>lat.=55.731464, lon.=26.231483, Alt.=171.279419m. Speed=0.972000m/h.</desc>
<speed>0.270000</speed>
</trkpt>
<trkpt lat="55.731472" lon="26.231480">
<ele>172.435669</ele>
<time>2010-07-17T11:02:04Z</time>
<desc>lat.=55.731472, lon.=26.231480, Alt.=172.435669m. Speed=0.936000m/h.</desc>
<speed>0.260000</speed>
</trkpt>
<trkpt lat="55.731476" lon="26.231478">
<ele>173.650513</ele>
<time>2010-07-17T11:02:05Z</time>
<desc>lat.=55.731476, lon.=26.231478, Alt.=173.650513m. Speed=0.828000m/h.</desc>
<speed>0.230000</speed>
</trkpt>
<trkpt lat="55.731483" lon="26.231485">
<ele>174.677856</ele>
<time>2010-07-17T11:02:06Z</time>
<desc>lat.=55.731483, lon.=26.231485, Alt.=174.677856m. Speed=0.828000m/h.</desc>
<speed>0.230000</speed>
</trkpt>
<trkpt lat="55.731487" lon="26.231487">
<ele>175.048950</ele>
<time>2010-07-17T11:02:07Z</time>
<desc>lat.=55.731487, lon.=26.231487, Alt.=175.048950m. Speed=0.900000m/h.</desc>
<speed>0.250000</speed>
</trkpt>
<trkpt lat="55.731487" lon="26.231489">
<ele>175.423950</ele>
<time>2010-07-17T11:02:08Z</time>
<desc>lat.=55.731487, lon.=26.231489, Alt.=175.423950m. Speed=0.792000m/h.</desc>
<speed>0.220000</speed>
</trkpt>
<trkpt lat="55.731491" lon="26.231493">
<ele>175.798950</ele>
<time>2010-07-17T11:02:09Z</time>
<desc>lat.=55.731491, lon.=26.231493, Alt.=175.798950m. Speed=0.828000m/h.</desc>
<speed>0.230000</speed>
</trkpt>
<trkpt lat="55.731491" lon="26.231495">
<ele>176.181763</ele>
<time>2010-07-17T11:02:10Z</time>
<desc>lat.=55.731491, lon.=26.231495, Alt.=176.181763m. Speed=0.936000m/h.</desc>
<speed>0.260000</speed>
</trkpt>
<trkpt lat="55.731495" lon="26.231497">
<ele>176.548950</ele>
<time>2010-07-17T11:02:11Z</time>
<desc>lat.=55.731495, lon.=26.231497, Alt.=176.548950m. Speed=0.936000m/h.</desc>
<speed>0.260000</speed>
</trkpt>
<trkpt lat="55.731495" lon="26.231501">
<ele>176.912231</ele>
<time>2010-07-17T11:02:12Z</time>
<desc>lat.=55.731495, lon.=26.231501, Alt.=176.912231m. Speed=0.972000m/h.</desc>
<speed>0.270000</speed>
</trkpt>
<trkpt lat="55.731499" lon="26.231503">
<ele>177.255981</ele>
<time>2010-07-17T11:02:13Z</time>
<desc>lat.=55.731499, lon.=26.231503, Alt.=177.255981m. Speed=0.720000m/h.</desc>
<speed>0.200000</speed>
</trkpt>
<trkpt lat="55.731499" lon="26.231504">
<ele>177.588013</ele>
<time>2010-07-17T11:02:14Z</time>
<desc>lat.=55.731499, lon.=26.231504, Alt.=177.588013m. Speed=0.612000m/h.</desc>
<speed>0.170000</speed>
</trkpt>
<trkpt lat="55.731499" lon="26.231506">
<ele>177.834106</ele>
<time>2010-07-17T11:02:15Z</time>
<desc>lat.=55.731499, lon.=26.231506, Alt.=177.834106m. Speed=0.360000m/h.</desc>
<speed>0.100000</speed>
</trkpt>
<trkpt lat="55.731503" lon="26.231508">
<ele>178.009888</ele>
<time>2010-07-17T11:02:16Z</time>
<desc>lat.=55.731503, lon.=26.231508, Alt.=178.009888m. Speed=0.180000m/h.</desc>
<speed>0.050000</speed>
</trkpt>
<trkpt lat="55.731503" lon="26.231508">
<ele>178.130981</ele>
<time>2010-07-17T11:02:17Z</time>
<desc>lat.=55.731503, lon.=26.231508, Alt.=178.130981m. Speed=0.396000m/h.</desc>
<speed>0.110000</speed>
</trkpt>
<trkpt lat="55.731503" lon="26.231508">
<ele>178.216919</ele>
<time>2010-07-17T11:02:18Z</time>
<desc>lat.=55.731503, lon.=26.231508, Alt.=178.216919m. Speed=0.216000m/h.</desc>
<speed>0.060000</speed>
</trkpt>
<trkpt lat="55.731503" lon="26.231510">
<ele>178.279419</ele>
<time>2010-07-17T11:02:19Z</time>
<desc>lat.=55.731503, lon.=26.231510, Alt.=178.279419m. Speed=0.180000m/h.</desc>
<speed>0.050000</speed>
</trkpt>
<trkpt lat="55.731503" lon="26.231510">
<ele>178.318481</ele>
<time>2010-07-17T11:02:20Z</time>
<desc>lat.=55.731503, lon.=26.231510, Alt.=178.318481m. Speed=0.108000m/h.</desc>
<speed>0.030000</speed>
</trkpt>
<trkpt lat="55.731503" lon="26.231510">
<ele>178.353638</ele>
<time>2010-07-17T11:02:21Z</time>
<desc>lat.=55.731503, lon.=26.231510, Alt.=178.353638m. Speed=0.036000m/h.</desc>
<speed>0.010000</speed>
</trkpt>
<trkpt lat="55.731503" lon="26.231510">
<ele>178.380981</ele>
<time>2010-07-17T11:02:22Z</time>
<desc>lat.=55.731503, lon.=26.231510, Alt.=178.380981m. Speed=0.036000m/h.</desc>
<speed>0.010000</speed>
</trkpt>
<trkpt lat="55.731503" lon="26.231510">
<ele>178.404419</ele>
<time>2010-07-17T11:02:23Z</time>
<desc>lat.=55.731503, lon.=26.231510, Alt.=178.404419m. Speed=0.036000m/h.</desc>
<speed>0.010000</speed>
</trkpt>
<trkpt lat="55.731503" lon="26.231510">
<ele>178.420044</ele>
<time>2010-07-17T11:02:24Z</time>
<desc>lat.=55.731503, lon.=26.231510, Alt.=178.420044m. Speed=0.072000m/h.</desc>
<speed>0.020000</speed>
</trkpt>
<trkpt lat="55.731503" lon="26.231510">
<ele>178.443481</ele>
<time>2010-07-17T11:02:25Z</time>
<desc>lat.=55.731503, lon.=26.231510, Alt.=178.443481m. Speed=0.108000m/h.</desc>
<speed>0.030000</speed>
</trkpt>
<trkpt lat="55.731503" lon="26.231510">
<ele>178.486450</ele>
<time>2010-07-17T11:02:26Z</time>
<desc>lat.=55.731503, lon.=26.231510, Alt.=178.486450m. Speed=0.036000m/h.</desc>
<speed>0.010000</speed>
</trkpt>
<trkpt lat="55.731503" lon="26.231510">
<ele>178.505981</ele>
<time>2010-07-17T11:02:27Z</time>
<desc>lat.=55.731503, lon.=26.231510, Alt.=178.505981m. Speed=0.180000m/h.</desc>
<speed>0.050000</speed>
</trkpt>
<trkpt lat="55.731503" lon="26.231512">
<ele>178.529419</ele>
<time>2010-07-17T11:02:28Z</time>
<desc>lat.=55.731503, lon.=26.231512, Alt.=178.529419m. Speed=0.216000m/h.</desc>
<speed>0.060000</speed>
</trkpt>
<trkpt lat="55.731503" lon="26.231512">
<ele>178.556763</ele>
<time>2010-07-17T11:02:29Z</time>
<desc>lat.=55.731503, lon.=26.231512, Alt.=178.556763m. Speed=0.036000m/h.</desc>
<speed>0.010000</speed>
</trkpt>
<trkpt lat="55.731503" lon="26.231512">
<ele>178.588013</ele>
<time>2010-07-17T11:02:30Z</time>
<desc>lat.=55.731503, lon.=26.231512, Alt.=178.588013m. Speed=0.108000m/h.</desc>
<speed>0.030000</speed>
</trkpt>
<trkpt lat="55.731503" lon="26.231512">
<ele>178.634888</ele>
<time>2010-07-17T11:02:31Z</time>
<desc>lat.=55.731503, lon.=26.231512, Alt.=178.634888m. Speed=0.252000m/h.</desc>
<speed>0.070000</speed>
</trkpt>
<trkpt lat="55.731503" lon="26.231512">
<ele>178.677856</ele>
<time>2010-07-17T11:02:32Z</time>
<desc>lat.=55.731503, lon.=26.231512, Alt.=178.677856m. Speed=0.036000m/h.</desc>
<speed>0.010000</speed>
</trkpt>
<trkpt lat="55.731503" lon="26.231512">
<ele>178.705200</ele>
<time>2010-07-17T11:02:33Z</time>
<desc>lat.=55.731503, lon.=26.231512, Alt.=178.705200m. Speed=0.000000m/h.</desc>
<speed>0.000000</speed>
</trkpt>
<trkpt lat="55.731503" lon="26.231512">
<ele>178.728638</ele>
<time>2010-07-17T11:02:34Z</time>
<desc>lat.=55.731503, lon.=26.231512, Alt.=178.728638m. Speed=0.324000m/h.</desc>
<speed>0.090000</speed>
</trkpt>
<trkpt lat="55.731503" lon="26.231514">
<ele>178.748169</ele>
<time>2010-07-17T11:02:35Z</time>
<desc>lat.=55.731503, lon.=26.231514, Alt.=178.748169m. Speed=0.108000m/h.</desc>
<speed>0.030000</speed>
</trkpt>
<trkpt lat="55.731503" lon="26.231514">
<ele>178.771606</ele>
<time>2010-07-17T11:02:36Z</time>
<desc>lat.=55.731503, lon.=26.231514, Alt.=178.771606m. Speed=0.108000m/h.</desc>
<speed>0.030000</speed>
</trkpt>
<trkpt lat="55.731503" lon="26.231514">
<ele>178.798950</ele>
<time>2010-07-17T11:02:37Z</time>
<desc>lat.=55.731503, lon.=26.231514, Alt.=178.798950m. Speed=0.180000m/h.</desc>
<speed>0.050000</speed>
</trkpt>
<trkpt lat="55.731503" lon="26.231514">
<ele>178.810669</ele>
<time>2010-07-17T11:02:38Z</time>
<desc>lat.=55.731503, lon.=26.231514, Alt.=178.810669m. Speed=0.288000m/h.</desc>
<speed>0.080000</speed>
</trkpt>
<trkpt lat="55.731503" lon="26.231516">
<ele>178.806763</ele>
<time>2010-07-17T11:02:39Z</time>
<desc>lat.=55.731503, lon.=26.231516, Alt.=178.806763m. Speed=0.036000m/h.</desc>
<speed>0.010000</speed>
</trkpt>
<trkpt lat="55.731503" lon="26.231516">
<ele>178.806763</ele>
<time>2010-07-17T11:02:40Z</time>
<desc>lat.=55.731503, lon.=26.231516, Alt.=178.806763m. Speed=0.036000m/h.</desc>
<speed>0.010000</speed>
</trkpt>
<trkpt lat="55.731503" lon="26.231516">
<ele>178.798950</ele>
<time>2010-07-17T11:02:41Z</time>
<desc>lat.=55.731503, lon.=26.231516, Alt.=178.798950m. Speed=0.000000m/h.</desc>
<speed>0.000000</speed>
</trkpt>
<trkpt lat="55.731503" lon="26.231516">
<ele>178.787231</ele>
<time>2010-07-17T11:02:42Z</time>
<desc>lat.=55.731503, lon.=26.231516, Alt.=178.787231m. Speed=0.108000m/h.</desc>
<speed>0.030000</speed>
</trkpt>
<trkpt lat="55.731503" lon="26.231516">
<ele>178.767700</ele>
<time>2010-07-17T11:02:43Z</time>
<desc>lat.=55.731503, lon.=26.231516, Alt.=178.767700m. Speed=0.036000m/h.</desc>
<speed>0.010000</speed>
</trkpt>
<trkpt lat="55.731503" lon="26.231516">
<ele>178.755981</ele>
<time>2010-07-17T11:02:44Z</time>
<desc>lat.=55.731503, lon.=26.231516, Alt.=178.755981m. Speed=0.288000m/h.</desc>
<speed>0.080000</speed>
</trkpt>
<trkpt lat="55.731503" lon="26.231514">
<ele>178.736450</ele>
<time>2010-07-17T11:02:45Z</time>
<desc>lat.=55.731503, lon.=26.231514, Alt.=178.736450m. Speed=0.072000m/h.</desc>
<speed>0.020000</speed>
</trkpt>
<trkpt lat="55.731503" lon="26.231514">
<ele>178.724731</ele>
<time>2010-07-17T11:02:46Z</time>
<desc>lat.=55.731503, lon.=26.231514, Alt.=178.724731m. Speed=0.432000m/h.</desc>
<speed>0.120000</speed>
</trkpt>
<trkpt lat="55.731503" lon="26.231512">
<ele>178.689575</ele>
<time>2010-07-17T11:02:47Z</time>
<desc>lat.=55.731503, lon.=26.231512, Alt.=178.689575m. Speed=0.612000m/h.</desc>
<speed>0.170000</speed>
</trkpt>
<trkpt lat="55.731499" lon="26.231510">
<ele>178.646606</ele>
<time>2010-07-17T11:02:48Z</time>
<desc>lat.=55.731499, lon.=26.231510, Alt.=178.646606m. Speed=0.576000m/h.</desc>
<speed>0.160000</speed>
</trkpt>
<trkpt lat="55.731499" lon="26.231508">
<ele>178.638794</ele>
<time>2010-07-17T11:02:49Z</time>
<desc>lat.=55.731499, lon.=26.231508, Alt.=178.638794m. Speed=0.540000m/h.</desc>
<speed>0.150000</speed>
</trkpt>
<trkpt lat="55.731499" lon="26.231506">
<ele>178.646606</ele>
<time>2010-07-17T11:02:50Z</time>
<desc>lat.=55.731499, lon.=26.231506, Alt.=178.646606m. Speed=0.396000m/h.</desc>
<speed>0.110000</speed>
</trkpt>
<trkpt lat="55.731495" lon="26.231506">
<ele>178.642700</ele>
<time>2010-07-17T11:02:51Z</time>
<desc>lat.=55.731495, lon.=26.231506, Alt.=178.642700m. Speed=0.504000m/h.</desc>
<speed>0.140000</speed>
</trkpt>
<trkpt lat="55.731495" lon="26.231504">
<ele>178.638794</ele>
<time>2010-07-17T11:02:52Z</time>
<desc>lat.=55.731495, lon.=26.231504, Alt.=178.638794m. Speed=0.252000m/h.</desc>
<speed>0.070000</speed>
</trkpt>
<trkpt lat="55.731495" lon="26.231504">
<ele>178.630981</ele>
<time>2010-07-17T11:02:53Z</time>
<desc>lat.=55.731495, lon.=26.231504, Alt.=178.630981m. Speed=0.216000m/h.</desc>
<speed>0.060000</speed>
</trkpt>
<trkpt lat="55.731495" lon="26.231503">
<ele>178.607544</ele>
<time>2010-07-17T11:02:54Z</time>
<desc>lat.=55.731495, lon.=26.231503, Alt.=178.607544m. Speed=0.180000m/h.</desc>
<speed>0.050000</speed>
</trkpt>
<trkpt lat="55.731495" lon="26.231503">
<ele>178.584106</ele>
<time>2010-07-17T11:02:55Z</time>
<desc>lat.=55.731495, lon.=26.231503, Alt.=178.584106m. Speed=0.324000m/h.</desc>
<speed>0.090000</speed>
</trkpt>
<trkpt lat="55.731491" lon="26.231501">
<ele>178.564575</ele>
<time>2010-07-17T11:02:56Z</time>
<desc>lat.=55.731491, lon.=26.231501, Alt.=178.564575m. Speed=0.504000m/h.</desc>
<speed>0.140000</speed>
</trkpt>
<trkpt lat="55.731491" lon="26.231501">
<ele>178.545044</ele>
<time>2010-07-17T11:02:57Z</time>
<desc>lat.=55.731491, lon.=26.231501, Alt.=178.545044m. Speed=0.360000m/h.</desc>
<speed>0.100000</speed>
</trkpt>
<trkpt lat="55.731491" lon="26.231499">
<ele>178.513794</ele>
<time>2010-07-17T11:02:58Z</time>
<desc>lat.=55.731491, lon.=26.231499, Alt.=178.513794m. Speed=0.324000m/h.</desc>
<speed>0.090000</speed>
</trkpt>
<trkpt lat="55.731491" lon="26.231499">
<ele>178.482544</ele>
<time>2010-07-17T11:02:59Z</time>
<desc>lat.=55.731491, lon.=26.231499, Alt.=178.482544m. Speed=0.036000m/h.</desc>
<speed>0.010000</speed>
</trkpt>
<trkpt lat="55.731491" lon="26.231497">
<ele>178.455200</ele>
<time>2010-07-17T11:03:00Z</time>
<desc>lat.=55.731491, lon.=26.231497, Alt.=178.455200m. Speed=0.216000m/h.</desc>
<speed>0.060000</speed>
</trkpt>
<trkpt lat="55.731491" lon="26.231497">
<ele>178.431763</ele>
<time>2010-07-17T11:03:01Z</time>
<desc>lat.=55.731491, lon.=26.231497, Alt.=178.431763m. Speed=0.036000m/h.</desc>
<speed>0.010000</speed>
</trkpt>
<trkpt lat="55.731487" lon="26.231497">
<ele>178.408325</ele>
<time>2010-07-17T11:03:02Z</time>
<desc>lat.=55.731487, lon.=26.231497, Alt.=178.408325m. Speed=0.252000m/h.</desc>
<speed>0.070000</speed>
</trkpt>
<trkpt lat="55.731487" lon="26.231497">
<ele>178.384888</ele>
<time>2010-07-17T11:03:03Z</time>
<desc>lat.=55.731487, lon.=26.231497, Alt.=178.384888m. Speed=0.072000m/h.</desc>
<speed>0.020000</speed>
</trkpt>
<trkpt lat="55.731487" lon="26.231495">
<ele>178.361450</ele>
<time>2010-07-17T11:03:04Z</time>
<desc>lat.=55.731487, lon.=26.231495, Alt.=178.361450m. Speed=0.180000m/h.</desc>
<speed>0.050000</speed>
</trkpt>
<trkpt lat="55.731487" lon="26.231495">
<ele>178.338013</ele>
<time>2010-07-17T11:03:05Z</time>
<desc>lat.=55.731487, lon.=26.231495, Alt.=178.338013m. Speed=0.036000m/h.</desc>
<speed>0.010000</speed>
</trkpt>
<trkpt lat="55.731487" lon="26.231495">
<ele>178.322388</ele>
<time>2010-07-17T11:03:06Z</time>
<desc>lat.=55.731487, lon.=26.231495, Alt.=178.322388m. Speed=0.072000m/h.</desc>
<speed>0.020000</speed>
</trkpt>
<trkpt lat="55.731487" lon="26.231497">
<ele>178.298950</ele>
<time>2010-07-17T11:03:07Z</time>
<desc>lat.=55.731487, lon.=26.231497, Alt.=178.298950m. Speed=0.144000m/h.</desc>
<speed>0.040000</speed>
</trkpt>
<trkpt lat="55.731487" lon="26.231497">
<ele>178.271606</ele>
<time>2010-07-17T11:03:08Z</time>
<desc>lat.=55.731487, lon.=26.231497, Alt.=178.271606m. Speed=0.072000m/h.</desc>
<speed>0.020000</speed>
</trkpt>
<trkpt lat="55.731487" lon="26.231497">
<ele>178.240356</ele>
<time>2010-07-17T11:03:09Z</time>
<desc>lat.=55.731487, lon.=26.231497, Alt.=178.240356m. Speed=0.180000m/h.</desc>
<speed>0.050000</speed>
</trkpt>
<trkpt lat="55.731487" lon="26.231499">
<ele>178.213013</ele>
<time>2010-07-17T11:03:10Z</time>
<desc>lat.=55.731487, lon.=26.231499, Alt.=178.213013m. Speed=0.180000m/h.</desc>
<speed>0.050000</speed>
</trkpt>
<trkpt lat="55.731487" lon="26.231499">
<ele>178.185669</ele>
<time>2010-07-17T11:03:11Z</time>
<desc>lat.=55.731487, lon.=26.231499, Alt.=178.185669m. Speed=0.072000m/h.</desc>
<speed>0.020000</speed>
</trkpt>
<trkpt lat="55.731487" lon="26.231499">
<ele>178.162231</ele>
<time>2010-07-17T11:03:12Z</time>
<desc>lat.=55.731487, lon.=26.231499, Alt.=178.162231m. Speed=0.036000m/h.</desc>
<speed>0.010000</speed>
</trkpt>
<trkpt lat="55.731487" lon="26.231499">
<ele>178.138794</ele>
<time>2010-07-17T11:03:13Z</time>
<desc>lat.=55.731487, lon.=26.231499, Alt.=178.138794m. Speed=0.180000m/h.</desc>
<speed>0.050000</speed>
</trkpt>
<trkpt lat="55.731487" lon="26.231499">
<ele>178.123169</ele>
<time>2010-07-17T11:03:14Z</time>
<desc>lat.=55.731487, lon.=26.231499, Alt.=178.123169m. Speed=0.288000m/h.</desc>
<speed>0.080000</speed>
</trkpt>
<trkpt lat="55.731487" lon="26.231499">
<ele>178.099731</ele>
<time>2010-07-17T11:03:15Z</time>
<desc>lat.=55.731487, lon.=26.231499, Alt.=178.099731m. Speed=0.216000m/h.</desc>
<speed>0.060000</speed>
</trkpt>
<trkpt lat="55.731487" lon="26.231501">
<ele>178.084106</ele>
<time>2010-07-17T11:03:16Z</time>
<desc>lat.=55.731487, lon.=26.231501, Alt.=178.084106m. Speed=0.216000m/h.</desc>
<speed>0.060000</speed>
</trkpt>
<trkpt lat="55.731487" lon="26.231501">
<ele>178.076294</ele>
<time>2010-07-17T11:03:17Z</time>
<desc>lat.=55.731487, lon.=26.231501, Alt.=178.076294m. Speed=0.252000m/h.</desc>
<speed>0.070000</speed>
</trkpt>
<trkpt lat="55.731487" lon="26.231503">
<ele>178.072388</ele>
<time>2010-07-17T11:03:18Z</time>
<desc>lat.=55.731487, lon.=26.231503, Alt.=178.072388m. Speed=0.108000m/h.</desc>
<speed>0.030000</speed>
</trkpt>
<trkpt lat="55.731487" lon="26.231503">
<ele>178.060669</ele>
<time>2010-07-17T11:03:19Z</time>
<desc>lat.=55.731487, lon.=26.231503, Alt.=178.060669m. Speed=0.036000m/h.</desc>
<speed>0.010000</speed>
</trkpt>
<trkpt lat="55.731487" lon="26.231503">
<ele>178.048950</ele>
<time>2010-07-17T11:03:20Z</time>
<desc>lat.=55.731487, lon.=26.231503, Alt.=178.048950m. Speed=0.216000m/h.</desc>
<speed>0.060000</speed>
</trkpt>
<trkpt lat="55.731487" lon="26.231503">
<ele>178.033325</ele>
<time>2010-07-17T11:03:21Z</time>
<desc>lat.=55.731487, lon.=26.231503, Alt.=178.033325m. Speed=0.108000m/h.</desc>
<speed>0.030000</speed>
</trkpt>
<trkpt lat="55.731487" lon="26.231503">
<ele>178.025513</ele>
<time>2010-07-17T11:03:22Z</time>
<desc>lat.=55.731487, lon.=26.231503, Alt.=178.025513m. Speed=0.144000m/h.</desc>
<speed>0.040000</speed>
</trkpt>
<trkpt lat="55.731487" lon="26.231503">
<ele>178.017700</ele>
<time>2010-07-17T11:03:23Z</time>
<desc>lat.=55.731487, lon.=26.231503, Alt.=178.017700m. Speed=0.072000m/h.</desc>
<speed>0.020000</speed>
</trkpt>
<trkpt lat="55.731487" lon="26.231504">
<ele>178.009888</ele>
<time>2010-07-17T11:03:24Z</time>
<desc>lat.=55.731487, lon.=26.231504, Alt.=178.009888m. Speed=0.288000m/h.</desc>
<speed>0.080000</speed>
</trkpt>
<trkpt lat="55.731487" lon="26.231503">
<ele>178.009888</ele>
<time>2010-07-17T11:03:25Z</time>
<desc>lat.=55.731487, lon.=26.231503, Alt.=178.009888m. Speed=0.216000m/h.</desc>
<speed>0.060000</speed>
</trkpt>
<trkpt lat="55.731487" lon="26.231504">
<ele>178.017700</ele>
<time>2010-07-17T11:03:26Z</time>
<desc>lat.=55.731487, lon.=26.231504, Alt.=178.017700m. Speed=0.144000m/h.</desc>
<speed>0.040000</speed>
</trkpt>
<trkpt lat="55.731491" lon="26.231504">
<ele>178.021606</ele>
<time>2010-07-17T11:03:27Z</time>
<desc>lat.=55.731491, lon.=26.231504, Alt.=178.021606m. Speed=0.180000m/h.</desc>
<speed>0.050000</speed>
</trkpt>
<trkpt lat="55.731491" lon="26.231506">
<ele>178.033325</ele>
<time>2010-07-17T11:03:28Z</time>
<desc>lat.=55.731491, lon.=26.231506, Alt.=178.033325m. Speed=0.108000m/h.</desc>
<speed>0.030000</speed>
</trkpt>
<trkpt lat="55.731491" lon="26.231506">
<ele>178.045044</ele>
<time>2010-07-17T11:03:29Z</time>
<desc>lat.=55.731491, lon.=26.231506, Alt.=178.045044m. Speed=0.072000m/h.</desc>
<speed>0.020000</speed>
</trkpt>
<trkpt lat="55.731491" lon="26.231506">
<ele>178.048950</ele>
<time>2010-07-17T11:03:30Z</time>
<desc>lat.=55.731491, lon.=26.231506, Alt.=178.048950m. Speed=0.216000m/h.</desc>
<speed>0.060000</speed>
</trkpt>
<trkpt lat="55.731491" lon="26.231506">
<ele>178.052856</ele>
<time>2010-07-17T11:03:31Z</time>
<desc>lat.=55.731491, lon.=26.231506, Alt.=178.052856m. Speed=0.072000m/h.</desc>
<speed>0.020000</speed>
</trkpt>
<trkpt lat="55.731491" lon="26.231508">
<ele>178.068481</ele>
<time>2010-07-17T11:03:32Z</time>
<desc>lat.=55.731491, lon.=26.231508, Alt.=178.068481m. Speed=0.360000m/h.</desc>
<speed>0.100000</speed>
</trkpt>
<trkpt lat="55.731491" lon="26.231506">
<ele>178.088013</ele>
<time>2010-07-17T11:03:33Z</time>
<desc>lat.=55.731491, lon.=26.231506, Alt.=178.088013m. Speed=0.180000m/h.</desc>
<speed>0.050000</speed>
</trkpt>
<trkpt lat="55.731487" lon="26.231506">
<ele>178.107544</ele>
<time>2010-07-17T11:03:34Z</time>
<desc>lat.=55.731487, lon.=26.231506, Alt.=178.107544m. Speed=0.036000m/h.</desc>
<speed>0.010000</speed>
</trkpt>
<trkpt lat="55.731487" lon="26.231506">
<ele>178.119263</ele>
<time>2010-07-17T11:03:35Z</time>
<desc>lat.=55.731487, lon.=26.231506, Alt.=178.119263m. Speed=0.108000m/h.</desc>
<speed>0.030000</speed>
</trkpt>
<trkpt lat="55.731491" lon="26.231506">
<ele>178.130981</ele>
<time>2010-07-17T11:03:36Z</time>
<desc>lat.=55.731491, lon.=26.231506, Alt.=178.130981m. Speed=0.180000m/h.</desc>
<speed>0.050000</speed>
</trkpt>
<trkpt lat="55.731487" lon="26.231506">
<ele>178.138794</ele>
<time>2010-07-17T11:03:37Z</time>
<desc>lat.=55.731487, lon.=26.231506, Alt.=178.138794m. Speed=0.144000m/h.</desc>
<speed>0.040000</speed>
</trkpt>
<trkpt lat="55.731491" lon="26.231508">
<ele>178.134888</ele>
<time>2010-07-17T11:03:38Z</time>
<desc>lat.=55.731491, lon.=26.231508, Alt.=178.134888m. Speed=0.216000m/h.</desc>
<speed>0.060000</speed>
</trkpt>
<trkpt lat="55.731491" lon="26.231508">
<ele>178.138794</ele>
<time>2010-07-17T11:03:39Z</time>
<desc>lat.=55.731491, lon.=26.231508, Alt.=178.138794m. Speed=0.108000m/h.</desc>
<speed>0.030000</speed>
</trkpt>
<trkpt lat="55.731491" lon="26.231510">
<ele>178.150513</ele>
<time>2010-07-17T11:03:40Z</time>
<desc>lat.=55.731491, lon.=26.231510, Alt.=178.150513m. Speed=0.144000m/h.</desc>
<speed>0.040000</speed>
</trkpt>
<trkpt lat="55.731491" lon="26.231508">
<ele>178.154419</ele>
<time>2010-07-17T11:03:41Z</time>
<desc>lat.=55.731491, lon.=26.231508, Alt.=178.154419m. Speed=0.288000m/h.</desc>
<speed>0.080000</speed>
</trkpt>
<trkpt lat="55.731487" lon="26.231510">
<ele>178.170044</ele>
<time>2010-07-17T11:03:42Z</time>
<desc>lat.=55.731487, lon.=26.231510, Alt.=178.170044m. Speed=0.108000m/h.</desc>
<speed>0.030000</speed>
</trkpt>
<trkpt lat="55.731487" lon="26.231510">
<ele>178.181763</ele>
<time>2010-07-17T11:03:43Z</time>
<desc>lat.=55.731487, lon.=26.231510, Alt.=178.181763m. Speed=0.216000m/h.</desc>
<speed>0.060000</speed>
</trkpt>
<trkpt lat="55.731487" lon="26.231510">
<ele>178.189575</ele>
<time>2010-07-17T11:03:44Z</time>
<desc>lat.=55.731487, lon.=26.231510, Alt.=178.189575m. Speed=0.072000m/h.</desc>
<speed>0.020000</speed>
</trkpt>
<trkpt lat="55.731487" lon="26.231510">
<ele>178.197388</ele>
<time>2010-07-17T11:03:45Z</time>
<desc>lat.=55.731487, lon.=26.231510, Alt.=178.197388m. Speed=0.432000m/h.</desc>
<speed>0.120000</speed>
</trkpt>
<trkpt lat="55.731487" lon="26.231510">
<ele>178.209106</ele>
<time>2010-07-17T11:03:46Z</time>
<desc>lat.=55.731487, lon.=26.231510, Alt.=178.209106m. Speed=0.072000m/h.</desc>
<speed>0.020000</speed>
</trkpt>
<trkpt lat="55.731487" lon="26.231510">
<ele>178.216919</ele>
<time>2010-07-17T11:03:47Z</time>
<desc>lat.=55.731487, lon.=26.231510, Alt.=178.216919m. Speed=0.432000m/h.</desc>
<speed>0.120000</speed>
</trkpt>
<trkpt lat="55.731487" lon="26.231512">
<ele>178.224731</ele>
<time>2010-07-17T11:03:48Z</time>
<desc>lat.=55.731487, lon.=26.231512, Alt.=178.224731m. Speed=0.036000m/h.</desc>
<speed>0.010000</speed>
</trkpt>
<trkpt lat="55.731487" lon="26.231512">
<ele>178.228638</ele>
<time>2010-07-17T11:03:49Z</time>
<desc>lat.=55.731487, lon.=26.231512, Alt.=178.228638m. Speed=0.000000m/h.</desc>
<speed>0.000000</speed>
</trkpt>
<trkpt lat="55.731487" lon="26.231512">
<ele>178.216919</ele>
<time>2010-07-17T11:03:50Z</time>
<desc>lat.=55.731487, lon.=26.231512, Alt.=178.216919m. Speed=0.000000m/h.</desc>
<speed>0.000000</speed>
</trkpt>
<trkpt lat="55.731487" lon="26.231512">
<ele>178.205200</ele>
<time>2010-07-17T11:03:51Z</time>
<desc>lat.=55.731487, lon.=26.231512, Alt.=178.205200m. Speed=0.036000m/h.</desc>
<speed>0.010000</speed>
</trkpt>
<trkpt lat="55.731487" lon="26.231512">
<ele>178.209106</ele>
<time>2010-07-17T11:03:52Z</time>
<desc>lat.=55.731487, lon.=26.231512, Alt.=178.209106m. Speed=0.000000m/h.</desc>
<speed>0.000000</speed>
</trkpt>
<trkpt lat="55.731487" lon="26.231512">
<ele>178.220825</ele>
<time>2010-07-17T11:03:53Z</time>
<desc>lat.=55.731487, lon.=26.231512, Alt.=178.220825m. Speed=0.036000m/h.</desc>
<speed>0.010000</speed>
</trkpt>
<trkpt lat="55.731487" lon="26.231512">
<ele>178.220825</ele>
<time>2010-07-17T11:03:54Z</time>
<desc>lat.=55.731487, lon.=26.231512, Alt.=178.220825m. Speed=0.000000m/h.</desc>
<speed>0.000000</speed>
</trkpt>
<trkpt lat="55.731487" lon="26.231512">
<ele>178.216919</ele>
<time>2010-07-17T11:03:55Z</time>
<desc>lat.=55.731487, lon.=26.231512, Alt.=178.216919m. Speed=0.000000m/h.</desc>
<speed>0.000000</speed>
</trkpt>
<trkpt lat="55.731487" lon="26.231512">
<ele>178.213013</ele>
<time>2010-07-17T11:03:56Z</time>
<desc>lat.=55.731487, lon.=26.231512, Alt.=178.213013m. Speed=0.036000m/h.</desc>
<speed>0.010000</speed>
</trkpt>
<trkpt lat="55.731487" lon="26.231512">
<ele>178.213013</ele>
<time>2010-07-17T11:03:57Z</time>
<desc>lat.=55.731487, lon.=26.231512, Alt.=178.213013m. Speed=0.000000m/h.</desc>
<speed>0.000000</speed>
</trkpt>
<trkpt lat="55.731487" lon="26.231512">
<ele>178.216919</ele>
<time>2010-07-17T11:03:58Z</time>
<desc>lat.=55.731487, lon.=26.231512, Alt.=178.216919m. Speed=0.072000m/h.</desc>
<speed>0.020000</speed>
</trkpt>
<trkpt lat="55.731487" lon="26.231512">
<ele>178.224731</ele>
<time>2010-07-17T11:03:59Z</time>
<desc>lat.=55.731487, lon.=26.231512, Alt.=178.224731m. Speed=0.000000m/h.</desc>
<speed>0.000000</speed>
</trkpt>
<trkpt lat="55.731487" lon="26.231512">
<ele>178.224731</ele>
<time>2010-07-17T11:04:00Z</time>
<desc>lat.=55.731487, lon.=26.231512, Alt.=178.224731m. Speed=0.036000m/h.</desc>
<speed>0.010000</speed>
</trkpt>
<trkpt lat="55.731487" lon="26.231512">
<ele>178.228638</ele>
<time>2010-07-17T11:04:01Z</time>
<desc>lat.=55.731487, lon.=26.231512, Alt.=178.228638m. Speed=0.000000m/h.</desc>
<speed>0.000000</speed>
</trkpt>
<trkpt lat="55.731487" lon="26.231512">
<ele>178.232544</ele>
<time>2010-07-17T11:04:02Z</time>
<desc>lat.=55.731487, lon.=26.231512, Alt.=178.232544m. Speed=0.036000m/h.</desc>
<speed>0.010000</speed>
</trkpt>
<trkpt lat="55.731487" lon="26.231512">
<ele>178.232544</ele>
<time>2010-07-17T11:04:03Z</time>
<desc>lat.=55.731487, lon.=26.231512, Alt.=178.232544m. Speed=0.036000m/h.</desc>
<speed>0.010000</speed>
</trkpt>
<trkpt lat="55.731487" lon="26.231512">
<ele>178.232544</ele>
<time>2010-07-17T11:04:04Z</time>
<desc>lat.=55.731487, lon.=26.231512, Alt.=178.232544m. Speed=0.072000m/h.</desc>
<speed>0.020000</speed>
</trkpt>
<trkpt lat="55.731487" lon="26.231512">
<ele>178.236450</ele>
<time>2010-07-17T11:04:05Z</time>
<desc>lat.=55.731487, lon.=26.231512, Alt.=178.236450m. Speed=0.036000m/h.</desc>
<speed>0.010000</speed>
</trkpt>
<trkpt lat="55.731487" lon="26.231512">
<ele>178.236450</ele>
<time>2010-07-17T11:04:06Z</time>
<desc>lat.=55.731487, lon.=26.231512, Alt.=178.236450m. Speed=0.036000m/h.</desc>
<speed>0.010000</speed>
</trkpt>
<trkpt lat="55.731487" lon="26.231510">
<ele>178.232544</ele>
<time>2010-07-17T11:04:07Z</time>
<desc>lat.=55.731487, lon.=26.231510, Alt.=178.232544m. Speed=0.036000m/h.</desc>
<speed>0.010000</speed>
</trkpt>
<trkpt lat="55.731487" lon="26.231512">
<ele>178.232544</ele>
<time>2010-07-17T11:04:08Z</time>
<desc>lat.=55.731487, lon.=26.231512, Alt.=178.232544m. Speed=0.072000m/h.</desc>
<speed>0.020000</speed>
</trkpt>
<trkpt lat="55.731483" lon="26.231512">
<ele>178.213013</ele>
<time>2010-07-17T11:04:09Z</time>
<desc>lat.=55.731483, lon.=26.231512, Alt.=178.213013m. Speed=0.000000m/h.</desc>
<speed>0.000000</speed>
</trkpt>
<trkpt lat="55.731483" lon="26.231512">
<ele>178.173950</ele>
<time>2010-07-17T11:04:10Z</time>
<desc>lat.=55.731483, lon.=26.231512, Alt.=178.173950m. Speed=0.180000m/h.</desc>
<speed>0.050000</speed>
</trkpt>
<trkpt lat="55.731483" lon="26.231510">
<ele>178.119263</ele>
<time>2010-07-17T11:04:11Z</time>
<desc>lat.=55.731483, lon.=26.231510, Alt.=178.119263m. Speed=0.288000m/h.</desc>
<speed>0.080000</speed>
</trkpt>
<trkpt lat="55.731483" lon="26.231510">
<ele>178.033325</ele>
<time>2010-07-17T11:04:12Z</time>
<desc>lat.=55.731483, lon.=26.231510, Alt.=178.033325m. Speed=0.468000m/h.</desc>
<speed>0.130000</speed>
</trkpt>
<trkpt lat="55.731483" lon="26.231510">
<ele>177.998169</ele>
<time>2010-07-17T11:04:13Z</time>
<desc>lat.=55.731483, lon.=26.231510, Alt.=177.998169m. Speed=0.144000m/h.</desc>
<speed>0.040000</speed>
</trkpt>
<trkpt lat="55.731483" lon="26.231508">
<ele>177.963013</ele>
<time>2010-07-17T11:04:14Z</time>
<desc>lat.=55.731483, lon.=26.231508, Alt.=177.963013m. Speed=0.180000m/h.</desc>
<speed>0.050000</speed>
</trkpt>
<trkpt lat="55.731483" lon="26.231508">
<ele>177.939575</ele>
<time>2010-07-17T11:04:15Z</time>
<desc>lat.=55.731483, lon.=26.231508, Alt.=177.939575m. Speed=0.144000m/h.</desc>
<speed>0.040000</speed>
</trkpt>
<trkpt lat="55.731483" lon="26.231508">
<ele>177.935669</ele>
<time>2010-07-17T11:04:16Z</time>
<desc>lat.=55.731483, lon.=26.231508, Alt.=177.935669m. Speed=0.108000m/h.</desc>
<speed>0.030000</speed>
</trkpt>
<trkpt lat="55.731483" lon="26.231508">
<ele>177.904419</ele>
<time>2010-07-17T11:04:17Z</time>
<desc>lat.=55.731483, lon.=26.231508, Alt.=177.904419m. Speed=0.108000m/h.</desc>
<speed>0.030000</speed>
</trkpt>
<trkpt lat="55.731483" lon="26.231508">
<ele>177.873169</ele>
<time>2010-07-17T11:04:18Z</time>
<desc>lat.=55.731483, lon.=26.231508, Alt.=177.873169m. Speed=0.144000m/h.</desc>
<speed>0.040000</speed>
</trkpt>
<trkpt lat="55.731480" lon="26.231508">
<ele>177.857544</ele>
<time>2010-07-17T11:04:19Z</time>
<desc>lat.=55.731480, lon.=26.231508, Alt.=177.857544m. Speed=0.252000m/h.</desc>
<speed>0.070000</speed>
</trkpt>
<trkpt lat="55.731480" lon="26.231508">
<ele>177.869263</ele>
<time>2010-07-17T11:04:20Z</time>
<desc>lat.=55.731480, lon.=26.231508, Alt.=177.869263m. Speed=0.036000m/h.</desc>
<speed>0.010000</speed>
</trkpt>
<trkpt lat="55.731480" lon="26.231508">
<ele>177.861450</ele>
<time>2010-07-17T11:04:21Z</time>
<desc>lat.=55.731480, lon.=26.231508, Alt.=177.861450m. Speed=0.000000m/h.</desc>
<speed>0.000000</speed>
</trkpt>
<trkpt lat="55.731480" lon="26.231506">
<ele>177.834106</ele>
<time>2010-07-17T11:04:22Z</time>
<desc>lat.=55.731480, lon.=26.231506, Alt.=177.834106m. Speed=0.036000m/h.</desc>
<speed>0.010000</speed>
</trkpt>
<trkpt lat="55.731480" lon="26.231506">
<ele>177.818481</ele>
<time>2010-07-17T11:04:23Z</time>
<desc>lat.=55.731480, lon.=26.231506, Alt.=177.818481m. Speed=0.000000m/h.</desc>
<speed>0.000000</speed>
</trkpt>
<trkpt lat="55.731480" lon="26.231506">
<ele>177.802856</ele>
<time>2010-07-17T11:04:24Z</time>
<desc>lat.=55.731480, lon.=26.231506, Alt.=177.802856m. Speed=0.000000m/h.</desc>
<speed>0.000000</speed>
</trkpt>
<trkpt lat="55.731480" lon="26.231506">
<ele>177.798950</ele>
<time>2010-07-17T11:04:25Z</time>
<desc>lat.=55.731480, lon.=26.231506, Alt.=177.798950m. Speed=0.000000m/h.</desc>
<speed>0.000000</speed>
</trkpt>
<trkpt lat="55.731480" lon="26.231506">
<ele>177.779419</ele>
<time>2010-07-17T11:04:26Z</time>
<desc>lat.=55.731480, lon.=26.231506, Alt.=177.779419m. Speed=0.036000m/h.</desc>
<speed>0.010000</speed>
</trkpt>
<trkpt lat="55.731480" lon="26.231506">
<ele>177.763794</ele>
<time>2010-07-17T11:04:27Z</time>
<desc>lat.=55.731480, lon.=26.231506, Alt.=177.763794m. Speed=0.036000m/h.</desc>
<speed>0.010000</speed>
</trkpt>
<trkpt lat="55.731480" lon="26.231506">
<ele>177.763794</ele>
<time>2010-07-17T11:04:28Z</time>
<desc>lat.=55.731480, lon.=26.231506, Alt.=177.763794m. Speed=0.036000m/h.</desc>
<speed>0.010000</speed>
</trkpt>
<trkpt lat="55.731480" lon="26.231506">
<ele>177.755981</ele>
<time>2010-07-17T11:04:29Z</time>
<desc>lat.=55.731480, lon.=26.231506, Alt.=177.755981m. Speed=0.036000m/h.</desc>
<speed>0.010000</speed>
</trkpt>
<trkpt lat="55.731480" lon="26.231506">
<ele>177.759888</ele>
<time>2010-07-17T11:04:30Z</time>
<desc>lat.=55.731480, lon.=26.231506, Alt.=177.759888m. Speed=0.036000m/h.</desc>
<speed>0.010000</speed>
</trkpt>
<trkpt lat="55.731480" lon="26.231506">
<ele>177.755981</ele>
<time>2010-07-17T11:04:31Z</time>
<desc>lat.=55.731480, lon.=26.231506, Alt.=177.755981m. Speed=0.036000m/h.</desc>
<speed>0.010000</speed>
</trkpt>
<trkpt lat="55.731480" lon="26.231506">
<ele>177.759888</ele>
<time>2010-07-17T11:04:32Z</time>
<desc>lat.=55.731480, lon.=26.231506, Alt.=177.759888m. Speed=0.000000m/h.</desc>
<speed>0.000000</speed>
</trkpt>
<trkpt lat="55.731480" lon="26.231506">
<ele>177.763794</ele>
<time>2010-07-17T11:04:33Z</time>
<desc>lat.=55.731480, lon.=26.231506, Alt.=177.763794m. Speed=0.000000m/h.</desc>
<speed>0.000000</speed>
</trkpt>
<trkpt lat="55.731480" lon="26.231506">
<ele>177.759888</ele>
<time>2010-07-17T11:04:34Z</time>
<desc>lat.=55.731480, lon.=26.231506, Alt.=177.759888m. Speed=0.000000m/h.</desc>
<speed>0.000000</speed>
</trkpt>
<trkpt lat="55.731483" lon="26.231506">
<ele>177.752075</ele>
<time>2010-07-17T11:04:35Z</time>
<desc>lat.=55.731483, lon.=26.231506, Alt.=177.752075m. Speed=0.000000m/h.</desc>
<speed>0.000000</speed>
</trkpt>
<trkpt lat="55.731483" lon="26.231506">
<ele>177.748169</ele>
<time>2010-07-17T11:04:36Z</time>
<desc>lat.=55.731483, lon.=26.231506, Alt.=177.748169m. Speed=0.072000m/h.</desc>
<speed>0.020000</speed>
</trkpt>
<trkpt lat="55.731483" lon="26.231506">
<ele>177.740356</ele>
<time>2010-07-17T11:04:37Z</time>
<desc>lat.=55.731483, lon.=26.231506, Alt.=177.740356m. Speed=0.000000m/h.</desc>
<speed>0.000000</speed>
</trkpt>
<trkpt lat="55.731483" lon="26.231506">
<ele>177.740356</ele>
<time>2010-07-17T11:04:38Z</time>
<desc>lat.=55.731483, lon.=26.231506, Alt.=177.740356m. Speed=0.036000m/h.</desc>
<speed>0.010000</speed>
</trkpt>
<trkpt lat="55.731483" lon="26.231506">
<ele>177.740356</ele>
<time>2010-07-17T11:04:39Z</time>
<desc>lat.=55.731483, lon.=26.231506, Alt.=177.740356m. Speed=0.072000m/h.</desc>
<speed>0.020000</speed>
</trkpt>
<trkpt lat="55.731483" lon="26.231508">
<ele>177.720825</ele>
<time>2010-07-17T11:04:40Z</time>
<desc>lat.=55.731483, lon.=26.231508, Alt.=177.720825m. Speed=0.180000m/h.</desc>
<speed>0.050000</speed>
</trkpt>
<trkpt lat="55.731483" lon="26.231508">
<ele>177.689575</ele>
<time>2010-07-17T11:04:41Z</time>
<desc>lat.=55.731483, lon.=26.231508, Alt.=177.689575m. Speed=0.324000m/h.</desc>
<speed>0.090000</speed>
</trkpt>
<trkpt lat="55.731483" lon="26.231510">
<ele>177.650513</ele>
<time>2010-07-17T11:04:42Z</time>
<desc>lat.=55.731483, lon.=26.231510, Alt.=177.650513m. Speed=0.432000m/h.</desc>
<speed>0.120000</speed>
</trkpt>
<trkpt lat="55.731483" lon="26.231512">
<ele>177.607544</ele>
<time>2010-07-17T11:04:43Z</time>
<desc>lat.=55.731483, lon.=26.231512, Alt.=177.607544m. Speed=0.432000m/h.</desc>
<speed>0.120000</speed>
</trkpt>
<trkpt lat="55.731483" lon="26.231514">
<ele>177.548950</ele>
<time>2010-07-17T11:04:44Z</time>
<desc>lat.=55.731483, lon.=26.231514, Alt.=177.548950m. Speed=0.432000m/h.</desc>
<speed>0.120000</speed>
</trkpt>
<trkpt lat="55.731483" lon="26.231516">
<ele>177.482544</ele>
<time>2010-07-17T11:04:45Z</time>
<desc>lat.=55.731483, lon.=26.231516, Alt.=177.482544m. Speed=0.540000m/h.</desc>
<speed>0.150000</speed>
</trkpt>
<trkpt lat="55.731483" lon="26.231520">
<ele>177.408325</ele>
<time>2010-07-17T11:04:46Z</time>
<desc>lat.=55.731483, lon.=26.231520, Alt.=177.408325m. Speed=0.540000m/h.</desc>
<speed>0.150000</speed>
</trkpt>
<trkpt lat="55.731483" lon="26.231522">
<ele>177.330200</ele>
<time>2010-07-17T11:04:47Z</time>
<desc>lat.=55.731483, lon.=26.231522, Alt.=177.330200m. Speed=0.648000m/h.</desc>
<speed>0.180000</speed>
</trkpt>
<trkpt lat="55.731483" lon="26.231524">
<ele>177.240356</ele>
<time>2010-07-17T11:04:48Z</time>
<desc>lat.=55.731483, lon.=26.231524, Alt.=177.240356m. Speed=0.612000m/h.</desc>
<speed>0.170000</speed>
</trkpt>
<trkpt lat="55.731483" lon="26.231527">
<ele>177.142700</ele>
<time>2010-07-17T11:04:49Z</time>
<desc>lat.=55.731483, lon.=26.231527, Alt.=177.142700m. Speed=0.756000m/h.</desc>
<speed>0.210000</speed>
</trkpt>
<trkpt lat="55.731483" lon="26.231531">
<ele>177.037231</ele>
<time>2010-07-17T11:04:50Z</time>
<desc>lat.=55.731483, lon.=26.231531, Alt.=177.037231m. Speed=0.792000m/h.</desc>
<speed>0.220000</speed>
</trkpt>
<trkpt lat="55.731483" lon="26.231535">
<ele>176.923950</ele>
<time>2010-07-17T11:04:51Z</time>
<desc>lat.=55.731483, lon.=26.231535, Alt.=176.923950m. Speed=0.828000m/h.</desc>
<speed>0.230000</speed>
</trkpt>
<trkpt lat="55.731483" lon="26.231539">
<ele>176.810669</ele>
<time>2010-07-17T11:04:52Z</time>
<desc>lat.=55.731483, lon.=26.231539, Alt.=176.810669m. Speed=0.792000m/h.</desc>
<speed>0.220000</speed>
</trkpt>
<trkpt lat="55.731483" lon="26.231543">
<ele>176.677856</ele>
<time>2010-07-17T11:04:53Z</time>
<desc>lat.=55.731483, lon.=26.231543, Alt.=176.677856m. Speed=0.756000m/h.</desc>
<speed>0.210000</speed>
</trkpt>
<trkpt lat="55.731483" lon="26.231546">
<ele>176.537231</ele>
<time>2010-07-17T11:04:54Z</time>
<desc>lat.=55.731483, lon.=26.231546, Alt.=176.537231m. Speed=0.684000m/h.</desc>
<speed>0.190000</speed>
</trkpt>
<trkpt lat="55.731483" lon="26.231548">
<ele>176.404419</ele>
<time>2010-07-17T11:04:55Z</time>
<desc>lat.=55.731483, lon.=26.231548, Alt.=176.404419m. Speed=0.216000m/h.</desc>
<speed>0.060000</speed>
</trkpt>
<trkpt lat="55.731483" lon="26.231548">
<ele>176.263794</ele>
<time>2010-07-17T11:04:56Z</time>
<desc>lat.=55.731483, lon.=26.231548, Alt.=176.263794m. Speed=0.072000m/h.</desc>
<speed>0.020000</speed>
</trkpt>
<trkpt lat="55.731483" lon="26.231550">
<ele>176.119263</ele>
<time>2010-07-17T11:04:57Z</time>
<desc>lat.=55.731483, lon.=26.231550, Alt.=176.119263m. Speed=0.108000m/h.</desc>
<speed>0.030000</speed>
</trkpt>
<trkpt lat="55.731483" lon="26.231550">
<ele>175.963013</ele>
<time>2010-07-17T11:04:58Z</time>
<desc>lat.=55.731483, lon.=26.231550, Alt.=175.963013m. Speed=0.036000m/h.</desc>
<speed>0.010000</speed>
</trkpt>
<trkpt lat="55.731483" lon="26.231550">
<ele>175.802856</ele>
<time>2010-07-17T11:04:59Z</time>
<desc>lat.=55.731483, lon.=26.231550, Alt.=175.802856m. Speed=0.072000m/h.</desc>
<speed>0.020000</speed>
</trkpt>
<trkpt lat="55.731483" lon="26.231550">
<ele>175.630981</ele>
<time>2010-07-17T11:05:00Z</time>
<desc>lat.=55.731483, lon.=26.231550, Alt.=175.630981m. Speed=0.180000m/h.</desc>
<speed>0.050000</speed>
</trkpt>
<trkpt lat="55.731483" lon="26.231550">
<ele>175.443481</ele>
<time>2010-07-17T11:05:01Z</time>
<desc>lat.=55.731483, lon.=26.231550, Alt.=175.443481m. Speed=0.360000m/h.</desc>
<speed>0.100000</speed>
</trkpt>
<trkpt lat="55.731483" lon="26.231548">
<ele>175.248169</ele>
<time>2010-07-17T11:05:02Z</time>
<desc>lat.=55.731483, lon.=26.231548, Alt.=175.248169m. Speed=0.504000m/h.</desc>
<speed>0.140000</speed>
</trkpt>
<trkpt lat="55.731480" lon="26.231546">
<ele>175.048950</ele>
<time>2010-07-17T11:05:03Z</time>
<desc>lat.=55.731480, lon.=26.231546, Alt.=175.048950m. Speed=0.684000m/h.</desc>
<speed>0.190000</speed>
</trkpt>
<trkpt lat="55.731480" lon="26.231544">
<ele>174.845825</ele>
<time>2010-07-17T11:05:04Z</time>
<desc>lat.=55.731480, lon.=26.231544, Alt.=174.845825m. Speed=0.828000m/h.</desc>
<speed>0.230000</speed>
</trkpt>
<trkpt lat="55.731476" lon="26.231543">
<ele>174.642700</ele>
<time>2010-07-17T11:05:05Z</time>
<desc>lat.=55.731476, lon.=26.231543, Alt.=174.642700m. Speed=0.936000m/h.</desc>
<speed>0.260000</speed>
</trkpt>
<trkpt lat="55.731476" lon="26.231541">
<ele>174.451294</ele>
<time>2010-07-17T11:05:06Z</time>
<desc>lat.=55.731476, lon.=26.231541, Alt.=174.451294m. Speed=1.008000m/h.</desc>
<speed>0.280000</speed>
</trkpt>
<trkpt lat="55.731472" lon="26.231539">
<ele>174.259888</ele>
<time>2010-07-17T11:05:07Z</time>
<desc>lat.=55.731472, lon.=26.231539, Alt.=174.259888m. Speed=1.116000m/h.</desc>
<speed>0.310000</speed>
</trkpt>
<trkpt lat="55.731464" lon="26.231525">
<ele>173.646606</ele>
<time>2010-07-17T11:05:08Z</time>
<desc>lat.=55.731464, lon.=26.231525, Alt.=173.646606m. Speed=0.864000m/h.</desc>
<speed>0.240000</speed>
</trkpt>
<trkpt lat="55.731461" lon="26.231516">
<ele>173.271606</ele>
<time>2010-07-17T11:05:09Z</time>
<desc>lat.=55.731461, lon.=26.231516, Alt.=173.271606m. Speed=0.432000m/h.</desc>
<speed>0.120000</speed>
</trkpt>
<trkpt lat="55.731457" lon="26.231512">
<ele>173.130981</ele>
<time>2010-07-17T11:05:10Z</time>
<desc>lat.=55.731457, lon.=26.231512, Alt.=173.130981m. Speed=0.396000m/h.</desc>
<speed>0.110000</speed>
</trkpt>
<trkpt lat="55.731453" lon="26.231508">
<ele>172.584106</ele>
<time>2010-07-17T11:05:11Z</time>
<desc>lat.=55.731453, lon.=26.231508, Alt.=172.584106m. Speed=0.144000m/h.</desc>
<speed>0.040000</speed>
</trkpt>
<trkpt lat="55.731453" lon="26.231508">
<ele>172.502075</ele>
<time>2010-07-17T11:05:12Z</time>
<desc>lat.=55.731453, lon.=26.231508, Alt.=172.502075m. Speed=0.108000m/h.</desc>
<speed>0.030000</speed>
</trkpt>
<trkpt lat="55.731453" lon="26.231506">
<ele>172.427856</ele>
<time>2010-07-17T11:05:13Z</time>
<desc>lat.=55.731453, lon.=26.231506, Alt.=172.427856m. Speed=0.360000m/h.</desc>
<speed>0.100000</speed>
</trkpt>
<trkpt lat="55.731453" lon="26.231506">
<ele>172.365356</ele>
<time>2010-07-17T11:05:14Z</time>
<desc>lat.=55.731453, lon.=26.231506, Alt.=172.365356m. Speed=0.468000m/h.</desc>
<speed>0.130000</speed>
</trkpt>
<trkpt lat="55.731449" lon="26.231506">
<ele>172.318481</ele>
<time>2010-07-17T11:05:15Z</time>
<desc>lat.=55.731449, lon.=26.231506, Alt.=172.318481m. Speed=0.468000m/h.</desc>
<speed>0.130000</speed>
</trkpt>
<trkpt lat="55.731449" lon="26.231504">
<ele>172.275513</ele>
<time>2010-07-17T11:05:16Z</time>
<desc>lat.=55.731449, lon.=26.231504, Alt.=172.275513m. Speed=0.180000m/h.</desc>
<speed>0.050000</speed>
</trkpt>
<trkpt lat="55.731449" lon="26.231504">
<ele>172.240356</ele>
<time>2010-07-17T11:05:17Z</time>
<desc>lat.=55.731449, lon.=26.231504, Alt.=172.240356m. Speed=0.288000m/h.</desc>
<speed>0.080000</speed>
</trkpt>
<trkpt lat="55.731449" lon="26.231504">
<ele>172.213013</ele>
<time>2010-07-17T11:05:18Z</time>
<desc>lat.=55.731449, lon.=26.231504, Alt.=172.213013m. Speed=0.180000m/h.</desc>
<speed>0.050000</speed>
</trkpt>
<trkpt lat="55.731449" lon="26.231504">
<ele>172.185669</ele>
<time>2010-07-17T11:05:19Z</time>
<desc>lat.=55.731449, lon.=26.231504, Alt.=172.185669m. Speed=0.180000m/h.</desc>
<speed>0.050000</speed>
</trkpt>
<trkpt lat="55.731449" lon="26.231504">
<ele>172.158325</ele>
<time>2010-07-17T11:05:20Z</time>
<desc>lat.=55.731449, lon.=26.231504, Alt.=172.158325m. Speed=0.108000m/h.</desc>
<speed>0.030000</speed>
</trkpt>
<trkpt lat="55.731449" lon="26.231504">
<ele>172.130981</ele>
<time>2010-07-17T11:05:21Z</time>
<desc>lat.=55.731449, lon.=26.231504, Alt.=172.130981m. Speed=0.180000m/h.</desc>
<speed>0.050000</speed>
</trkpt>
<trkpt lat="55.731449" lon="26.231506">
<ele>172.107544</ele>
<time>2010-07-17T11:05:22Z</time>
<desc>lat.=55.731449, lon.=26.231506, Alt.=172.107544m. Speed=0.252000m/h.</desc>
<speed>0.070000</speed>
</trkpt>
<trkpt lat="55.731449" lon="26.231506">
<ele>172.088013</ele>
<time>2010-07-17T11:05:23Z</time>
<desc>lat.=55.731449, lon.=26.231506, Alt.=172.088013m. Speed=0.108000m/h.</desc>
<speed>0.030000</speed>
</trkpt>
<trkpt lat="55.731449" lon="26.231508">
<ele>172.068481</ele>
<time>2010-07-17T11:05:24Z</time>
<desc>lat.=55.731449, lon.=26.231508, Alt.=172.068481m. Speed=0.180000m/h.</desc>
<speed>0.050000</speed>
</trkpt>
<trkpt lat="55.731449" lon="26.231508">
<ele>172.056763</ele>
<time>2010-07-17T11:05:25Z</time>
<desc>lat.=55.731449, lon.=26.231508, Alt.=172.056763m. Speed=0.216000m/h.</desc>
<speed>0.060000</speed>
</trkpt>
<trkpt lat="55.731449" lon="26.231508">
<ele>172.045044</ele>
<time>2010-07-17T11:05:26Z</time>
<desc>lat.=55.731449, lon.=26.231508, Alt.=172.045044m. Speed=0.288000m/h.</desc>
<speed>0.080000</speed>
</trkpt>
<trkpt lat="55.731449" lon="26.231510">
<ele>172.033325</ele>
<time>2010-07-17T11:05:27Z</time>
<desc>lat.=55.731449, lon.=26.231510, Alt.=172.033325m. Speed=0.648000m/h.</desc>
<speed>0.180000</speed>
</trkpt>
<trkpt lat="55.731449" lon="26.231512">
<ele>172.017700</ele>
<time>2010-07-17T11:05:28Z</time>
<desc>lat.=55.731449, lon.=26.231512, Alt.=172.017700m. Speed=0.252000m/h.</desc>
<speed>0.070000</speed>
</trkpt>
<trkpt lat="55.731453" lon="26.231512">
<ele>172.005981</ele>
<time>2010-07-17T11:05:29Z</time>
<desc>lat.=55.731453, lon.=26.231512, Alt.=172.005981m. Speed=0.396000m/h.</desc>
<speed>0.110000</speed>
</trkpt>
<trkpt lat="55.731449" lon="26.231512">
<ele>171.994263</ele>
<time>2010-07-17T11:05:30Z</time>
<desc>lat.=55.731449, lon.=26.231512, Alt.=171.994263m. Speed=0.324000m/h.</desc>
<speed>0.090000</speed>
</trkpt>
<trkpt lat="55.731449" lon="26.231514">
<ele>171.986450</ele>
<time>2010-07-17T11:05:31Z</time>
<desc>lat.=55.731449, lon.=26.231514, Alt.=171.986450m. Speed=0.324000m/h.</desc>
<speed>0.090000</speed>
</trkpt>
<trkpt lat="55.731449" lon="26.231516">
<ele>171.974731</ele>
<time>2010-07-17T11:05:32Z</time>
<desc>lat.=55.731449, lon.=26.231516, Alt.=171.974731m. Speed=0.576000m/h.</desc>
<speed>0.160000</speed>
</trkpt>
<trkpt lat="55.731449" lon="26.231518">
<ele>171.978638</ele>
<time>2010-07-17T11:05:33Z</time>
<desc>lat.=55.731449, lon.=26.231518, Alt.=171.978638m. Speed=0.396000m/h.</desc>
<speed>0.110000</speed>
</trkpt>
<trkpt lat="55.731449" lon="26.231518">
<ele>171.978638</ele>
<time>2010-07-17T11:05:34Z</time>
<desc>lat.=55.731449, lon.=26.231518, Alt.=171.978638m. Speed=0.288000m/h.</desc>
<speed>0.080000</speed>
</trkpt>
<trkpt lat="55.731449" lon="26.231518">
<ele>171.978638</ele>
<time>2010-07-17T11:05:35Z</time>
<desc>lat.=55.731449, lon.=26.231518, Alt.=171.978638m. Speed=0.252000m/h.</desc>
<speed>0.070000</speed>
</trkpt>
<trkpt lat="55.731449" lon="26.231520">
<ele>171.974731</ele>
<time>2010-07-17T11:05:36Z</time>
<desc>lat.=55.731449, lon.=26.231520, Alt.=171.974731m. Speed=0.468000m/h.</desc>
<speed>0.130000</speed>
</trkpt>
<trkpt lat="55.731445" lon="26.231522">
<ele>171.959106</ele>
<time>2010-07-17T11:05:37Z</time>
<desc>lat.=55.731445, lon.=26.231522, Alt.=171.959106m. Speed=0.468000m/h.</desc>
<speed>0.130000</speed>
</trkpt>
<trkpt lat="55.731445" lon="26.231524">
<ele>171.947388</ele>
<time>2010-07-17T11:05:38Z</time>
<desc>lat.=55.731445, lon.=26.231524, Alt.=171.947388m. Speed=0.216000m/h.</desc>
<speed>0.060000</speed>
</trkpt>
<trkpt lat="55.731445" lon="26.231524">
<ele>171.939575</ele>
<time>2010-07-17T11:05:39Z</time>
<desc>lat.=55.731445, lon.=26.231524, Alt.=171.939575m. Speed=0.108000m/h.</desc>
<speed>0.030000</speed>
</trkpt>
<trkpt lat="55.731445" lon="26.231525">
<ele>171.935669</ele>
<time>2010-07-17T11:05:40Z</time>
<desc>lat.=55.731445, lon.=26.231525, Alt.=171.935669m. Speed=0.036000m/h.</desc>
<speed>0.010000</speed>
</trkpt>
<trkpt lat="55.731445" lon="26.231524">
<ele>171.927856</ele>
<time>2010-07-17T11:05:41Z</time>
<desc>lat.=55.731445, lon.=26.231524, Alt.=171.927856m. Speed=0.108000m/h.</desc>
<speed>0.030000</speed>
</trkpt>
<trkpt lat="55.731445" lon="26.231524">
<ele>171.923950</ele>
<time>2010-07-17T11:05:42Z</time>
<desc>lat.=55.731445, lon.=26.231524, Alt.=171.923950m. Speed=0.252000m/h.</desc>
<speed>0.070000</speed>
</trkpt>
<trkpt lat="55.731445" lon="26.231524">
<ele>171.916138</ele>
<time>2010-07-17T11:05:43Z</time>
<desc>lat.=55.731445, lon.=26.231524, Alt.=171.916138m. Speed=0.396000m/h.</desc>
<speed>0.110000</speed>
</trkpt>
<trkpt lat="55.731445" lon="26.231522">
<ele>171.908325</ele>
<time>2010-07-17T11:05:44Z</time>
<desc>lat.=55.731445, lon.=26.231522, Alt.=171.908325m. Speed=0.432000m/h.</desc>
<speed>0.120000</speed>
</trkpt>
<trkpt lat="55.731449" lon="26.231520">
<ele>171.880981</ele>
<time>2010-07-17T11:05:45Z</time>
<desc>lat.=55.731449, lon.=26.231520, Alt.=171.880981m. Speed=0.144000m/h.</desc>
<speed>0.040000</speed>
</trkpt>
<trkpt lat="55.731449" lon="26.231520">
<ele>171.861450</ele>
<time>2010-07-17T11:05:46Z</time>
<desc>lat.=55.731449, lon.=26.231520, Alt.=171.861450m. Speed=0.144000m/h.</desc>
<speed>0.040000</speed>
</trkpt>
<trkpt lat="55.731449" lon="26.231518">
<ele>171.845825</ele>
<time>2010-07-17T11:05:47Z</time>
<desc>lat.=55.731449, lon.=26.231518, Alt.=171.845825m. Speed=0.144000m/h.</desc>
<speed>0.040000</speed>
</trkpt>
<trkpt lat="55.731449" lon="26.231518">
<ele>171.830200</ele>
<time>2010-07-17T11:05:48Z</time>
<desc>lat.=55.731449, lon.=26.231518, Alt.=171.830200m. Speed=0.108000m/h.</desc>
<speed>0.030000</speed>
</trkpt>
<trkpt lat="55.731449" lon="26.231518">
<ele>171.822388</ele>
<time>2010-07-17T11:05:49Z</time>
<desc>lat.=55.731449, lon.=26.231518, Alt.=171.822388m. Speed=0.216000m/h.</desc>
<speed>0.060000</speed>
</trkpt>
<trkpt lat="55.731449" lon="26.231520">
<ele>171.818481</ele>
<time>2010-07-17T11:05:50Z</time>
<desc>lat.=55.731449, lon.=26.231520, Alt.=171.818481m. Speed=0.108000m/h.</desc>
<speed>0.030000</speed>
</trkpt>
<trkpt lat="55.731449" lon="26.231518">
<ele>171.814575</ele>
<time>2010-07-17T11:05:51Z</time>
<desc>lat.=55.731449, lon.=26.231518, Alt.=171.814575m. Speed=0.180000m/h.</desc>
<speed>0.050000</speed>
</trkpt>
<trkpt lat="55.731449" lon="26.231518">
<ele>171.810669</ele>
<time>2010-07-17T11:05:52Z</time>
<desc>lat.=55.731449, lon.=26.231518, Alt.=171.810669m. Speed=0.288000m/h.</desc>
<speed>0.080000</speed>
</trkpt>
<trkpt lat="55.731449" lon="26.231516">
<ele>171.798950</ele>
<time>2010-07-17T11:05:53Z</time>
<desc>lat.=55.731449, lon.=26.231516, Alt.=171.798950m. Speed=0.216000m/h.</desc>
<speed>0.060000</speed>
</trkpt>
<trkpt lat="55.731445" lon="26.231514">
<ele>171.787231</ele>
<time>2010-07-17T11:05:54Z</time>
<desc>lat.=55.731445, lon.=26.231514, Alt.=171.787231m. Speed=0.288000m/h.</desc>
<speed>0.080000</speed>
</trkpt>
<trkpt lat="55.731445" lon="26.231514">
<ele>171.787231</ele>
<time>2010-07-17T11:05:55Z</time>
<desc>lat.=55.731445, lon.=26.231514, Alt.=171.787231m. Speed=0.324000m/h.</desc>
<speed>0.090000</speed>
</trkpt>
<trkpt lat="55.731445" lon="26.231512">
<ele>171.791138</ele>
<time>2010-07-17T11:05:56Z</time>
<desc>lat.=55.731445, lon.=26.231512, Alt.=171.791138m. Speed=0.108000m/h.</desc>
<speed>0.030000</speed>
</trkpt>
<trkpt lat="55.731445" lon="26.231512">
<ele>171.806763</ele>
<time>2010-07-17T11:05:57Z</time>
<desc>lat.=55.731445, lon.=26.231512, Alt.=171.806763m. Speed=0.144000m/h.</desc>
<speed>0.040000</speed>
</trkpt>
<trkpt lat="55.731445" lon="26.231512">
<ele>171.822388</ele>
<time>2010-07-17T11:05:58Z</time>
<desc>lat.=55.731445, lon.=26.231512, Alt.=171.822388m. Speed=0.252000m/h.</desc>
<speed>0.070000</speed>
</trkpt>
<trkpt lat="55.731445" lon="26.231510">
<ele>171.841919</ele>
<time>2010-07-17T11:05:59Z</time>
<desc>lat.=55.731445, lon.=26.231510, Alt.=171.841919m. Speed=0.180000m/h.</desc>
<speed>0.050000</speed>
</trkpt>
<trkpt lat="55.731445" lon="26.231510">
<ele>171.841919</ele>
<time>2010-07-17T11:06:00Z</time>
<desc>lat.=55.731445, lon.=26.231510, Alt.=171.841919m. Speed=0.180000m/h.</desc>
<speed>0.050000</speed>
</trkpt>
<trkpt lat="55.731445" lon="26.231508">
<ele>171.849731</ele>
<time>2010-07-17T11:06:01Z</time>
<desc>lat.=55.731445, lon.=26.231508, Alt.=171.849731m. Speed=0.288000m/h.</desc>
<speed>0.080000</speed>
</trkpt>
<trkpt lat="55.731445" lon="26.231508">
<ele>171.853638</ele>
<time>2010-07-17T11:06:02Z</time>
<desc>lat.=55.731445, lon.=26.231508, Alt.=171.853638m. Speed=0.288000m/h.</desc>
<speed>0.080000</speed>
</trkpt>
<trkpt lat="55.731445" lon="26.231508">
<ele>171.845825</ele>
<time>2010-07-17T11:06:03Z</time>
<desc>lat.=55.731445, lon.=26.231508, Alt.=171.845825m. Speed=0.144000m/h.</desc>
<speed>0.040000</speed>
</trkpt>
<trkpt lat="55.731445" lon="26.231508">
<ele>171.838013</ele>
<time>2010-07-17T11:06:04Z</time>
<desc>lat.=55.731445, lon.=26.231508, Alt.=171.838013m. Speed=0.180000m/h.</desc>
<speed>0.050000</speed>
</trkpt>
<trkpt lat="55.731445" lon="26.231506">
<ele>171.826294</ele>
<time>2010-07-17T11:06:05Z</time>
<desc>lat.=55.731445, lon.=26.231506, Alt.=171.826294m. Speed=0.072000m/h.</desc>
<speed>0.020000</speed>
</trkpt>
<trkpt lat="55.731445" lon="26.231506">
<ele>171.826294</ele>
<time>2010-07-17T11:06:06Z</time>
<desc>lat.=55.731445, lon.=26.231506, Alt.=171.826294m. Speed=0.108000m/h.</desc>
<speed>0.030000</speed>
</trkpt>
<trkpt lat="55.731445" lon="26.231506">
<ele>171.818481</ele>
<time>2010-07-17T11:06:07Z</time>
<desc>lat.=55.731445, lon.=26.231506, Alt.=171.818481m. Speed=0.144000m/h.</desc>
<speed>0.040000</speed>
</trkpt>
<trkpt lat="55.731445" lon="26.231506">
<ele>171.810669</ele>
<time>2010-07-17T11:06:08Z</time>
<desc>lat.=55.731445, lon.=26.231506, Alt.=171.810669m. Speed=0.144000m/h.</desc>
<speed>0.040000</speed>
</trkpt>
<trkpt lat="55.731445" lon="26.231506">
<ele>171.795044</ele>
<time>2010-07-17T11:06:09Z</time>
<desc>lat.=55.731445, lon.=26.231506, Alt.=171.795044m. Speed=0.144000m/h.</desc>
<speed>0.040000</speed>
</trkpt>
<trkpt lat="55.731445" lon="26.231506">
<ele>171.795044</ele>
<time>2010-07-17T11:06:10Z</time>
<desc>lat.=55.731445, lon.=26.231506, Alt.=171.795044m. Speed=0.108000m/h.</desc>
<speed>0.030000</speed>
</trkpt>
<trkpt lat="55.731445" lon="26.231506">
<ele>171.779419</ele>
<time>2010-07-17T11:06:11Z</time>
<desc>lat.=55.731445, lon.=26.231506, Alt.=171.779419m. Speed=0.180000m/h.</desc>
<speed>0.050000</speed>
</trkpt>
<trkpt lat="55.731445" lon="26.231506">
<ele>171.771606</ele>
<time>2010-07-17T11:06:12Z</time>
<desc>lat.=55.731445, lon.=26.231506, Alt.=171.771606m. Speed=0.072000m/h.</desc>
<speed>0.020000</speed>
</trkpt>
<trkpt lat="55.731445" lon="26.231506">
<ele>171.767700</ele>
<time>2010-07-17T11:06:13Z</time>
<desc>lat.=55.731445, lon.=26.231506, Alt.=171.767700m. Speed=0.036000m/h.</desc>
<speed>0.010000</speed>
</trkpt>
<trkpt lat="55.731445" lon="26.231504">
<ele>171.767700</ele>
<time>2010-07-17T11:06:14Z</time>
<desc>lat.=55.731445, lon.=26.231504, Alt.=171.767700m. Speed=0.108000m/h.</desc>
<speed>0.030000</speed>
</trkpt>
<trkpt lat="55.731445" lon="26.231504">
<ele>171.752075</ele>
<time>2010-07-17T11:06:15Z</time>
<desc>lat.=55.731445, lon.=26.231504, Alt.=171.752075m. Speed=0.144000m/h.</desc>
<speed>0.040000</speed>
</trkpt>
<trkpt lat="55.731445" lon="26.231504">
<ele>171.752075</ele>
<time>2010-07-17T11:06:16Z</time>
<desc>lat.=55.731445, lon.=26.231504, Alt.=171.752075m. Speed=0.036000m/h.</desc>
<speed>0.010000</speed>
</trkpt>
<trkpt lat="55.731449" lon="26.231504">
<ele>171.752075</ele>
<time>2010-07-17T11:06:17Z</time>
<desc>lat.=55.731449, lon.=26.231504, Alt.=171.752075m. Speed=0.036000m/h.</desc>
<speed>0.010000</speed>
</trkpt>
<trkpt lat="55.731449" lon="26.231504">
<ele>171.755981</ele>
<time>2010-07-17T11:06:18Z</time>
<desc>lat.=55.731449, lon.=26.231504, Alt.=171.755981m. Speed=0.000000m/h.</desc>
<speed>0.000000</speed>
</trkpt>
<trkpt lat="55.731449" lon="26.231504">
<ele>171.755981</ele>
<time>2010-07-17T11:06:19Z</time>
<desc>lat.=55.731449, lon.=26.231504, Alt.=171.755981m. Speed=0.000000m/h.</desc>
<speed>0.000000</speed>
</trkpt>
<trkpt lat="55.731449" lon="26.231504">
<ele>171.752075</ele>
<time>2010-07-17T11:06:20Z</time>
<desc>lat.=55.731449, lon.=26.231504, Alt.=171.752075m. Speed=0.108000m/h.</desc>
<speed>0.030000</speed>
</trkpt>
<trkpt lat="55.731449" lon="26.231504">
<ele>171.759888</ele>
<time>2010-07-17T11:06:21Z</time>
<desc>lat.=55.731449, lon.=26.231504, Alt.=171.759888m. Speed=0.000000m/h.</desc>
<speed>0.000000</speed>
</trkpt>
<trkpt lat="55.731449" lon="26.231504">
<ele>171.759888</ele>
<time>2010-07-17T11:06:22Z</time>
<desc>lat.=55.731449, lon.=26.231504, Alt.=171.759888m. Speed=0.072000m/h.</desc>
<speed>0.020000</speed>
</trkpt>
<trkpt lat="55.731449" lon="26.231504">
<ele>171.767700</ele>
<time>2010-07-17T11:06:23Z</time>
<desc>lat.=55.731449, lon.=26.231504, Alt.=171.767700m. Speed=0.072000m/h.</desc>
<speed>0.020000</speed>
</trkpt>
<trkpt lat="55.731449" lon="26.231504">
<ele>171.759888</ele>
<time>2010-07-17T11:06:24Z</time>
<desc>lat.=55.731449, lon.=26.231504, Alt.=171.759888m. Speed=0.036000m/h.</desc>
<speed>0.010000</speed>
</trkpt>
<trkpt lat="55.731449" lon="26.231506">
<ele>171.763794</ele>
<time>2010-07-17T11:06:25Z</time>
<desc>lat.=55.731449, lon.=26.231506, Alt.=171.763794m. Speed=0.072000m/h.</desc>
<speed>0.020000</speed>
</trkpt>
<trkpt lat="55.731449" lon="26.231506">
<ele>171.759888</ele>
<time>2010-07-17T11:06:26Z</time>
<desc>lat.=55.731449, lon.=26.231506, Alt.=171.759888m. Speed=0.108000m/h.</desc>
<speed>0.030000</speed>
</trkpt>
<trkpt lat="55.731449" lon="26.231506">
<ele>171.759888</ele>
<time>2010-07-17T11:06:27Z</time>
<desc>lat.=55.731449, lon.=26.231506, Alt.=171.759888m. Speed=0.072000m/h.</desc>
<speed>0.020000</speed>
</trkpt>
<trkpt lat="55.731449" lon="26.231506">
<ele>171.763794</ele>
<time>2010-07-17T11:06:28Z</time>
<desc>lat.=55.731449, lon.=26.231506, Alt.=171.763794m. Speed=0.000000m/h.</desc>
<speed>0.000000</speed>
</trkpt>
<trkpt lat="55.731449" lon="26.231506">
<ele>171.732544</ele>
<time>2010-07-17T11:06:29Z</time>
<desc>lat.=55.731449, lon.=26.231506, Alt.=171.732544m. Speed=0.072000m/h.</desc>
<speed>0.020000</speed>
</trkpt>
<trkpt lat="55.731449" lon="26.231506">
<ele>171.720825</ele>
<time>2010-07-17T11:06:30Z</time>
<desc>lat.=55.731449, lon.=26.231506, Alt.=171.720825m. Speed=0.000000m/h.</desc>
<speed>0.000000</speed>
</trkpt>
<trkpt lat="55.731449" lon="26.231506">
<ele>171.709106</ele>
<time>2010-07-17T11:06:31Z</time>
<desc>lat.=55.731449, lon.=26.231506, Alt.=171.709106m. Speed=0.000000m/h.</desc>
<speed>0.000000</speed>
</trkpt>
<trkpt lat="55.731445" lon="26.231506">
<ele>171.705200</ele>
<time>2010-07-17T11:06:32Z</time>
<desc>lat.=55.731445, lon.=26.231506, Alt.=171.705200m. Speed=0.000000m/h.</desc>
<speed>0.000000</speed>
</trkpt>
<trkpt lat="55.731445" lon="26.231506">
<ele>171.693481</ele>
<time>2010-07-17T11:06:33Z</time>
<desc>lat.=55.731445, lon.=26.231506, Alt.=171.693481m. Speed=0.000000m/h.</desc>
<speed>0.000000</speed>
</trkpt>
<trkpt lat="55.731445" lon="26.231506">
<ele>171.689575</ele>
<time>2010-07-17T11:06:34Z</time>
<desc>lat.=55.731445, lon.=26.231506, Alt.=171.689575m. Speed=0.036000m/h.</desc>
<speed>0.010000</speed>
</trkpt>
<trkpt lat="55.731445" lon="26.231506">
<ele>171.677856</ele>
<time>2010-07-17T11:06:35Z</time>
<desc>lat.=55.731445, lon.=26.231506, Alt.=171.677856m. Speed=0.000000m/h.</desc>
<speed>0.000000</speed>
</trkpt>
<trkpt lat="55.731445" lon="26.231506">
<ele>171.670044</ele>
<time>2010-07-17T11:06:36Z</time>
<desc>lat.=55.731445, lon.=26.231506, Alt.=171.670044m. Speed=0.072000m/h.</desc>
<speed>0.020000</speed>
</trkpt>
<trkpt lat="55.731445" lon="26.231506">
<ele>171.662231</ele>
<time>2010-07-17T11:06:37Z</time>
<desc>lat.=55.731445, lon.=26.231506, Alt.=171.662231m. Speed=0.036000m/h.</desc>
<speed>0.010000</speed>
</trkpt>
<trkpt lat="55.731445" lon="26.231506">
<ele>171.646606</ele>
<time>2010-07-17T11:06:38Z</time>
<desc>lat.=55.731445, lon.=26.231506, Alt.=171.646606m. Speed=0.000000m/h.</desc>
<speed>0.000000</speed>
</trkpt>
<trkpt lat="55.731445" lon="26.231506">
<ele>171.630981</ele>
<time>2010-07-17T11:06:39Z</time>
<desc>lat.=55.731445, lon.=26.231506, Alt.=171.630981m. Speed=0.000000m/h.</desc>
<speed>0.000000</speed>
</trkpt>
<trkpt lat="55.731445" lon="26.231506">
<ele>171.619263</ele>
<time>2010-07-17T11:06:40Z</time>
<desc>lat.=55.731445, lon.=26.231506, Alt.=171.619263m. Speed=0.036000m/h.</desc>
<speed>0.010000</speed>
</trkpt>
<trkpt lat="55.731445" lon="26.231506">
<ele>171.599731</ele>
<time>2010-07-17T11:06:41Z</time>
<desc>lat.=55.731445, lon.=26.231506, Alt.=171.599731m. Speed=0.000000m/h.</desc>
<speed>0.000000</speed>
</trkpt>
<trkpt lat="55.731445" lon="26.231506">
<ele>171.580200</ele>
<time>2010-07-17T11:06:42Z</time>
<desc>lat.=55.731445, lon.=26.231506, Alt.=171.580200m. Speed=0.000000m/h.</desc>
<speed>0.000000</speed>
</trkpt>
<trkpt lat="55.731445" lon="26.231506">
<ele>171.556763</ele>
<time>2010-07-17T11:06:43Z</time>
<desc>lat.=55.731445, lon.=26.231506, Alt.=171.556763m. Speed=0.000000m/h.</desc>
<speed>0.000000</speed>
</trkpt>
<trkpt lat="55.731445" lon="26.231506">
<ele>171.525513</ele>
<time>2010-07-17T11:06:44Z</time>
<desc>lat.=55.731445, lon.=26.231506, Alt.=171.525513m. Speed=0.072000m/h.</desc>
<speed>0.020000</speed>
</trkpt>
<trkpt lat="55.731445" lon="26.231506">
<ele>171.505981</ele>
<time>2010-07-17T11:06:45Z</time>
<desc>lat.=55.731445, lon.=26.231506, Alt.=171.505981m. Speed=0.036000m/h.</desc>
<speed>0.010000</speed>
</trkpt>
<trkpt lat="55.731445" lon="26.231506">
<ele>171.494263</ele>
<time>2010-07-17T11:06:46Z</time>
<desc>lat.=55.731445, lon.=26.231506, Alt.=171.494263m. Speed=0.036000m/h.</desc>
<speed>0.010000</speed>
</trkpt>
<trkpt lat="55.731445" lon="26.231506">
<ele>171.482544</ele>
<time>2010-07-17T11:06:47Z</time>
<desc>lat.=55.731445, lon.=26.231506, Alt.=171.482544m. Speed=0.036000m/h.</desc>
<speed>0.010000</speed>
</trkpt>
<trkpt lat="55.731445" lon="26.231506">
<ele>171.463013</ele>
<time>2010-07-17T11:06:48Z</time>
<desc>lat.=55.731445, lon.=26.231506, Alt.=171.463013m. Speed=0.036000m/h.</desc>
<speed>0.010000</speed>
</trkpt>
<trkpt lat="55.731445" lon="26.231506">
<ele>171.447388</ele>
<time>2010-07-17T11:06:49Z</time>
<desc>lat.=55.731445, lon.=26.231506, Alt.=171.447388m. Speed=0.036000m/h.</desc>
<speed>0.010000</speed>
</trkpt>
<trkpt lat="55.731445" lon="26.231506">
<ele>171.423950</ele>
<time>2010-07-17T11:06:50Z</time>
<desc>lat.=55.731445, lon.=26.231506, Alt.=171.423950m. Speed=0.108000m/h.</desc>
<speed>0.030000</speed>
</trkpt>
<trkpt lat="55.731445" lon="26.231506">
<ele>171.408325</ele>
<time>2010-07-17T11:06:51Z</time>
<desc>lat.=55.731445, lon.=26.231506, Alt.=171.408325m. Speed=0.072000m/h.</desc>
<speed>0.020000</speed>
</trkpt>
<trkpt lat="55.731445" lon="26.231506">
<ele>171.392700</ele>
<time>2010-07-17T11:06:52Z</time>
<desc>lat.=55.731445, lon.=26.231506, Alt.=171.392700m. Speed=0.108000m/h.</desc>
<speed>0.030000</speed>
</trkpt>
<trkpt lat="55.731445" lon="26.231506">
<ele>171.384888</ele>
<time>2010-07-17T11:06:53Z</time>
<desc>lat.=55.731445, lon.=26.231506, Alt.=171.384888m. Speed=0.000000m/h.</desc>
<speed>0.000000</speed>
</trkpt>
<trkpt lat="55.731445" lon="26.231506">
<ele>171.380981</ele>
<time>2010-07-17T11:06:54Z</time>
<desc>lat.=55.731445, lon.=26.231506, Alt.=171.380981m. Speed=0.036000m/h.</desc>
<speed>0.010000</speed>
</trkpt>
<trkpt lat="55.731445" lon="26.231506">
<ele>171.384888</ele>
<time>2010-07-17T11:06:55Z</time>
<desc>lat.=55.731445, lon.=26.231506, Alt.=171.384888m. Speed=0.000000m/h.</desc>
<speed>0.000000</speed>
</trkpt>
<trkpt lat="55.731445" lon="26.231506">
<ele>171.388794</ele>
<time>2010-07-17T11:06:56Z</time>
<desc>lat.=55.731445, lon.=26.231506, Alt.=171.388794m. Speed=0.036000m/h.</desc>
<speed>0.010000</speed>
</trkpt>
<trkpt lat="55.731445" lon="26.231506">
<ele>171.404419</ele>
<time>2010-07-17T11:06:57Z</time>
<desc>lat.=55.731445, lon.=26.231506, Alt.=171.404419m. Speed=0.036000m/h.</desc>
<speed>0.010000</speed>
</trkpt>
<trkpt lat="55.731445" lon="26.231506">
<ele>171.412231</ele>
<time>2010-07-17T11:06:58Z</time>
<desc>lat.=55.731445, lon.=26.231506, Alt.=171.412231m. Speed=0.072000m/h.</desc>
<speed>0.020000</speed>
</trkpt>
<trkpt lat="55.731445" lon="26.231506">
<ele>171.412231</ele>
<time>2010-07-17T11:06:59Z</time>
<desc>lat.=55.731445, lon.=26.231506, Alt.=171.412231m. Speed=0.036000m/h.</desc>
<speed>0.010000</speed>
</trkpt>
<trkpt lat="55.731445" lon="26.231506">
<ele>171.412231</ele>
<time>2010-07-17T11:07:00Z</time>
<desc>lat.=55.731445, lon.=26.231506, Alt.=171.412231m. Speed=0.000000m/h.</desc>
<speed>0.000000</speed>
</trkpt>
<trkpt lat="55.731445" lon="26.231506">
<ele>171.408325</ele>
<time>2010-07-17T11:07:01Z</time>
<desc>lat.=55.731445, lon.=26.231506, Alt.=171.408325m. Speed=0.108000m/h.</desc>
<speed>0.030000</speed>
</trkpt>
<trkpt lat="55.731445" lon="26.231506">
<ele>171.408325</ele>
<time>2010-07-17T11:07:02Z</time>
<desc>lat.=55.731445, lon.=26.231506, Alt.=171.408325m. Speed=0.144000m/h.</desc>
<speed>0.040000</speed>
</trkpt>
<trkpt lat="55.731445" lon="26.231506">
<ele>171.412231</ele>
<time>2010-07-17T11:07:03Z</time>
<desc>lat.=55.731445, lon.=26.231506, Alt.=171.412231m. Speed=0.216000m/h.</desc>
<speed>0.060000</speed>
</trkpt>
<trkpt lat="55.731445" lon="26.231506">
<ele>171.416138</ele>
<time>2010-07-17T11:07:04Z</time>
<desc>lat.=55.731445, lon.=26.231506, Alt.=171.416138m. Speed=0.252000m/h.</desc>
<speed>0.070000</speed>
</trkpt>
<trkpt lat="55.731445" lon="26.231506">
<ele>171.412231</ele>
<time>2010-07-17T11:07:05Z</time>
<desc>lat.=55.731445, lon.=26.231506, Alt.=171.412231m. Speed=0.324000m/h.</desc>
<speed>0.090000</speed>
</trkpt>
<trkpt lat="55.731441" lon="26.231506">
<ele>171.400513</ele>
<time>2010-07-17T11:07:06Z</time>
<desc>lat.=55.731441, lon.=26.231506, Alt.=171.400513m. Speed=0.396000m/h.</desc>
<speed>0.110000</speed>
</trkpt>
<trkpt lat="55.731441" lon="26.231506">
<ele>171.392700</ele>
<time>2010-07-17T11:07:07Z</time>
<desc>lat.=55.731441, lon.=26.231506, Alt.=171.392700m. Speed=0.396000m/h.</desc>
<speed>0.110000</speed>
</trkpt>
<trkpt lat="55.731441" lon="26.231506">
<ele>171.380981</ele>
<time>2010-07-17T11:07:08Z</time>
<desc>lat.=55.731441, lon.=26.231506, Alt.=171.380981m. Speed=0.396000m/h.</desc>
<speed>0.110000</speed>
</trkpt>
<trkpt lat="55.731441" lon="26.231506">
<ele>171.369263</ele>
<time>2010-07-17T11:07:09Z</time>
<desc>lat.=55.731441, lon.=26.231506, Alt.=171.369263m. Speed=0.360000m/h.</desc>
<speed>0.100000</speed>
</trkpt>
<trkpt lat="55.731438" lon="26.231506">
<ele>171.353638</ele>
<time>2010-07-17T11:07:10Z</time>
<desc>lat.=55.731438, lon.=26.231506, Alt.=171.353638m. Speed=0.360000m/h.</desc>
<speed>0.100000</speed>
</trkpt>
<trkpt lat="55.731438" lon="26.231506">
<ele>171.334106</ele>
<time>2010-07-17T11:07:11Z</time>
<desc>lat.=55.731438, lon.=26.231506, Alt.=171.334106m. Speed=0.324000m/h.</desc>
<speed>0.090000</speed>
</trkpt>
<trkpt lat="55.731438" lon="26.231506">
<ele>171.310669</ele>
<time>2010-07-17T11:07:12Z</time>
<desc>lat.=55.731438, lon.=26.231506, Alt.=171.310669m. Speed=0.360000m/h.</desc>
<speed>0.100000</speed>
</trkpt>
<trkpt lat="55.731438" lon="26.231504">
<ele>171.287231</ele>
<time>2010-07-17T11:07:13Z</time>
<desc>lat.=55.731438, lon.=26.231504, Alt.=171.287231m. Speed=0.252000m/h.</desc>
<speed>0.070000</speed>
</trkpt>
<trkpt lat="55.731434" lon="26.231504">
<ele>171.267700</ele>
<time>2010-07-17T11:07:14Z</time>
<desc>lat.=55.731434, lon.=26.231504, Alt.=171.267700m. Speed=0.216000m/h.</desc>
<speed>0.060000</speed>
</trkpt>
<trkpt lat="55.731434" lon="26.231503">
<ele>171.252075</ele>
<time>2010-07-17T11:07:15Z</time>
<desc>lat.=55.731434, lon.=26.231503, Alt.=171.252075m. Speed=0.216000m/h.</desc>
<speed>0.060000</speed>
</trkpt>
<trkpt lat="55.731434" lon="26.231503">
<ele>171.240356</ele>
<time>2010-07-17T11:07:16Z</time>
<desc>lat.=55.731434, lon.=26.231503, Alt.=171.240356m. Speed=0.216000m/h.</desc>
<speed>0.060000</speed>
</trkpt>
<trkpt lat="55.731434" lon="26.231501">
<ele>171.228638</ele>
<time>2010-07-17T11:07:17Z</time>
<desc>lat.=55.731434, lon.=26.231501, Alt.=171.228638m. Speed=0.216000m/h.</desc>
<speed>0.060000</speed>
</trkpt>
<trkpt lat="55.731438" lon="26.231501">
<ele>171.220825</ele>
<time>2010-07-17T11:07:18Z</time>
<desc>lat.=55.731438, lon.=26.231501, Alt.=171.220825m. Speed=0.288000m/h.</desc>
<speed>0.080000</speed>
</trkpt>
<trkpt lat="55.731438" lon="26.231501">
<ele>171.220825</ele>
<time>2010-07-17T11:07:19Z</time>
<desc>lat.=55.731438, lon.=26.231501, Alt.=171.220825m. Speed=0.360000m/h.</desc>
<speed>0.100000</speed>
</trkpt>
<trkpt lat="55.731438" lon="26.231499">
<ele>171.228638</ele>
<time>2010-07-17T11:07:20Z</time>
<desc>lat.=55.731438, lon.=26.231499, Alt.=171.228638m. Speed=0.432000m/h.</desc>
<speed>0.120000</speed>
</trkpt>
<trkpt lat="55.731438" lon="26.231499">
<ele>171.240356</ele>
<time>2010-07-17T11:07:21Z</time>
<desc>lat.=55.731438, lon.=26.231499, Alt.=171.240356m. Speed=0.576000m/h.</desc>
<speed>0.160000</speed>
</trkpt>
<trkpt lat="55.731441" lon="26.231497">
<ele>171.255981</ele>
<time>2010-07-17T11:07:22Z</time>
<desc>lat.=55.731441, lon.=26.231497, Alt.=171.255981m. Speed=0.720000m/h.</desc>
<speed>0.200000</speed>
</trkpt>
<trkpt lat="55.731441" lon="26.231495">
<ele>171.263794</ele>
<time>2010-07-17T11:07:23Z</time>
<desc>lat.=55.731441, lon.=26.231495, Alt.=171.263794m. Speed=0.792000m/h.</desc>
<speed>0.220000</speed>
</trkpt>
<trkpt lat="55.731445" lon="26.231495">
<ele>171.287231</ele>
<time>2010-07-17T11:07:24Z</time>
<desc>lat.=55.731445, lon.=26.231495, Alt.=171.287231m. Speed=0.900000m/h.</desc>
<speed>0.250000</speed>
</trkpt>
<trkpt lat="55.731445" lon="26.231493">
<ele>171.306763</ele>
<time>2010-07-17T11:07:25Z</time>
<desc>lat.=55.731445, lon.=26.231493, Alt.=171.306763m. Speed=0.720000m/h.</desc>
<speed>0.200000</speed>
</trkpt>
<trkpt lat="55.731449" lon="26.231493">
<ele>171.334106</ele>
<time>2010-07-17T11:07:26Z</time>
<desc>lat.=55.731449, lon.=26.231493, Alt.=171.334106m. Speed=0.828000m/h.</desc>
<speed>0.230000</speed>
</trkpt>
<trkpt lat="55.731453" lon="26.231495">
<ele>171.361450</ele>
<time>2010-07-17T11:07:27Z</time>
<desc>lat.=55.731453, lon.=26.231495, Alt.=171.361450m. Speed=0.936000m/h.</desc>
<speed>0.260000</speed>
</trkpt>
<trkpt lat="55.731453" lon="26.231495">
<ele>171.392700</ele>
<time>2010-07-17T11:07:28Z</time>
<desc>lat.=55.731453, lon.=26.231495, Alt.=171.392700m. Speed=0.972000m/h.</desc>
<speed>0.270000</speed>
</trkpt>
<trkpt lat="55.731457" lon="26.231497">
<ele>171.431763</ele>
<time>2010-07-17T11:07:29Z</time>
<desc>lat.=55.731457, lon.=26.231497, Alt.=171.431763m. Speed=1.116000m/h.</desc>
<speed>0.310000</speed>
</trkpt>
<trkpt lat="55.731476" lon="26.231503">
<ele>172.068481</ele>
<time>2010-07-17T11:07:30Z</time>
<desc>lat.=55.731476, lon.=26.231503, Alt.=172.068481m. Speed=1.260000m/h.</desc>
<speed>0.350000</speed>
</trkpt>
<trkpt lat="55.731487" lon="26.231504">
<ele>172.170044</ele>
<time>2010-07-17T11:07:31Z</time>
<desc>lat.=55.731487, lon.=26.231504, Alt.=172.170044m. Speed=1.044000m/h.</desc>
<speed>0.290000</speed>
</trkpt>
<trkpt lat="55.731499" lon="26.231506">
<ele>172.482544</ele>
<time>2010-07-17T11:07:32Z</time>
<desc>lat.=55.731499, lon.=26.231506, Alt.=172.482544m. Speed=0.648000m/h.</desc>
<speed>0.180000</speed>
</trkpt>
<trkpt lat="55.731506" lon="26.231510">
<ele>172.396606</ele>
<time>2010-07-17T11:07:33Z</time>
<desc>lat.=55.731506, lon.=26.231510, Alt.=172.396606m. Speed=0.576000m/h.</desc>
<speed>0.160000</speed>
</trkpt>
<trkpt lat="55.731510" lon="26.231512">
<ele>172.412231</ele>
<time>2010-07-17T11:07:34Z</time>
<desc>lat.=55.731510, lon.=26.231512, Alt.=172.412231m. Speed=0.504000m/h.</desc>
<speed>0.140000</speed>
</trkpt>
<trkpt lat="55.731510" lon="26.231512">
<ele>172.408325</ele>
<time>2010-07-17T11:07:35Z</time>
<desc>lat.=55.731510, lon.=26.231512, Alt.=172.408325m. Speed=0.432000m/h.</desc>
<speed>0.120000</speed>
</trkpt>
<trkpt lat="55.731514" lon="26.231514">
<ele>172.396606</ele>
<time>2010-07-17T11:07:36Z</time>
<desc>lat.=55.731514, lon.=26.231514, Alt.=172.396606m. Speed=0.504000m/h.</desc>
<speed>0.140000</speed>
</trkpt>
<trkpt lat="55.731514" lon="26.231514">
<ele>172.392700</ele>
<time>2010-07-17T11:07:37Z</time>
<desc>lat.=55.731514, lon.=26.231514, Alt.=172.392700m. Speed=0.540000m/h.</desc>
<speed>0.150000</speed>
</trkpt>
<trkpt lat="55.731514" lon="26.231514">
<ele>172.384888</ele>
<time>2010-07-17T11:07:38Z</time>
<desc>lat.=55.731514, lon.=26.231514, Alt.=172.384888m. Speed=0.324000m/h.</desc>
<speed>0.090000</speed>
</trkpt>
<trkpt lat="55.731518" lon="26.231514">
<ele>172.380981</ele>
<time>2010-07-17T11:07:39Z</time>
<desc>lat.=55.731518, lon.=26.231514, Alt.=172.380981m. Speed=0.324000m/h.</desc>
<speed>0.090000</speed>
</trkpt>
<trkpt lat="55.731518" lon="26.231512">
<ele>172.365356</ele>
<time>2010-07-17T11:07:40Z</time>
<desc>lat.=55.731518, lon.=26.231512, Alt.=172.365356m. Speed=0.252000m/h.</desc>
<speed>0.070000</speed>
</trkpt>
<trkpt lat="55.731518" lon="26.231512">
<ele>172.361450</ele>
<time>2010-07-17T11:07:41Z</time>
<desc>lat.=55.731518, lon.=26.231512, Alt.=172.361450m. Speed=0.324000m/h.</desc>
<speed>0.090000</speed>
</trkpt>
<trkpt lat="55.731518" lon="26.231514">
<ele>172.353638</ele>
<time>2010-07-17T11:07:42Z</time>
<desc>lat.=55.731518, lon.=26.231514, Alt.=172.353638m. Speed=0.216000m/h.</desc>
<speed>0.060000</speed>
</trkpt>
<trkpt lat="55.731518" lon="26.231514">
<ele>172.341919</ele>
<time>2010-07-17T11:07:43Z</time>
<desc>lat.=55.731518, lon.=26.231514, Alt.=172.341919m. Speed=0.252000m/h.</desc>
<speed>0.070000</speed>
</trkpt>
<trkpt lat="55.731518" lon="26.231516">
<ele>172.334106</ele>
<time>2010-07-17T11:07:44Z</time>
<desc>lat.=55.731518, lon.=26.231516, Alt.=172.334106m. Speed=0.288000m/h.</desc>
<speed>0.080000</speed>
</trkpt>
<trkpt lat="55.731518" lon="26.231518">
<ele>172.322388</ele>
<time>2010-07-17T11:07:45Z</time>
<desc>lat.=55.731518, lon.=26.231518, Alt.=172.322388m. Speed=0.252000m/h.</desc>
<speed>0.070000</speed>
</trkpt>
<trkpt lat="55.731518" lon="26.231518">
<ele>172.314575</ele>
<time>2010-07-17T11:07:46Z</time>
<desc>lat.=55.731518, lon.=26.231518, Alt.=172.314575m. Speed=0.432000m/h.</desc>
<speed>0.120000</speed>
</trkpt>
<trkpt lat="55.731518" lon="26.231520">
<ele>172.306763</ele>
<time>2010-07-17T11:07:47Z</time>
<desc>lat.=55.731518, lon.=26.231520, Alt.=172.306763m. Speed=0.396000m/h.</desc>
<speed>0.110000</speed>
</trkpt>
<trkpt lat="55.731518" lon="26.231522">
<ele>172.295044</ele>
<time>2010-07-17T11:07:48Z</time>
<desc>lat.=55.731518, lon.=26.231522, Alt.=172.295044m. Speed=0.432000m/h.</desc>
<speed>0.120000</speed>
</trkpt>
<trkpt lat="55.731518" lon="26.231522">
<ele>172.283325</ele>
<time>2010-07-17T11:07:49Z</time>
<desc>lat.=55.731518, lon.=26.231522, Alt.=172.283325m. Speed=0.432000m/h.</desc>
<speed>0.120000</speed>
</trkpt>
<trkpt lat="55.731514" lon="26.231524">
<ele>172.263794</ele>
<time>2010-07-17T11:07:50Z</time>
<desc>lat.=55.731514, lon.=26.231524, Alt.=172.263794m. Speed=0.468000m/h.</desc>
<speed>0.130000</speed>
</trkpt>
<trkpt lat="55.731514" lon="26.231525">
<ele>172.240356</ele>
<time>2010-07-17T11:07:51Z</time>
<desc>lat.=55.731514, lon.=26.231525, Alt.=172.240356m. Speed=0.504000m/h.</desc>
<speed>0.140000</speed>
</trkpt>
<trkpt lat="55.731514" lon="26.231527">
<ele>172.220825</ele>
<time>2010-07-17T11:07:52Z</time>
<desc>lat.=55.731514, lon.=26.231527, Alt.=172.220825m. Speed=0.000000m/h.</desc>
<speed>0.000000</speed>
</trkpt>
<trkpt lat="55.731514" lon="26.231527">
<ele>172.205200</ele>
<time>2010-07-17T11:07:53Z</time>
<desc>lat.=55.731514, lon.=26.231527, Alt.=172.205200m. Speed=0.072000m/h.</desc>
<speed>0.020000</speed>
</trkpt>
<trkpt lat="55.731514" lon="26.231527">
<ele>172.185669</ele>
<time>2010-07-17T11:07:54Z</time>
<desc>lat.=55.731514, lon.=26.231527, Alt.=172.185669m. Speed=0.036000m/h.</desc>
<speed>0.010000</speed>
</trkpt>
<trkpt lat="55.731514" lon="26.231527">
<ele>172.173950</ele>
<time>2010-07-17T11:07:55Z</time>
<desc>lat.=55.731514, lon.=26.231527, Alt.=172.173950m. Speed=0.036000m/h.</desc>
<speed>0.010000</speed>
</trkpt>
<trkpt lat="55.731514" lon="26.231527">
<ele>172.162231</ele>
<time>2010-07-17T11:07:56Z</time>
<desc>lat.=55.731514, lon.=26.231527, Alt.=172.162231m. Speed=0.180000m/h.</desc>
<speed>0.050000</speed>
</trkpt>
<trkpt lat="55.731514" lon="26.231527">
<ele>172.154419</ele>
<time>2010-07-17T11:07:57Z</time>
<desc>lat.=55.731514, lon.=26.231527, Alt.=172.154419m. Speed=0.072000m/h.</desc>
<speed>0.020000</speed>
</trkpt>
<trkpt lat="55.731514" lon="26.231527">
<ele>172.142700</ele>
<time>2010-07-17T11:07:58Z</time>
<desc>lat.=55.731514, lon.=26.231527, Alt.=172.142700m. Speed=0.108000m/h.</desc>
<speed>0.030000</speed>
</trkpt>
<trkpt lat="55.731514" lon="26.231527">
<ele>172.142700</ele>
<time>2010-07-17T11:07:59Z</time>
<desc>lat.=55.731514, lon.=26.231527, Alt.=172.142700m. Speed=0.108000m/h.</desc>
<speed>0.030000</speed>
</trkpt>
<trkpt lat="55.731514" lon="26.231527">
<ele>172.138794</ele>
<time>2010-07-17T11:08:00Z</time>
<desc>lat.=55.731514, lon.=26.231527, Alt.=172.138794m. Speed=0.000000m/h.</desc>
<speed>0.000000</speed>
</trkpt>
<trkpt lat="55.731514" lon="26.231527">
<ele>172.154419</ele>
<time>2010-07-17T11:08:01Z</time>
<desc>lat.=55.731514, lon.=26.231527, Alt.=172.154419m. Speed=0.036000m/h.</desc>
<speed>0.010000</speed>
</trkpt>
<trkpt lat="55.731514" lon="26.231527">
<ele>172.162231</ele>
<time>2010-07-17T11:08:02Z</time>
<desc>lat.=55.731514, lon.=26.231527, Alt.=172.162231m. Speed=0.072000m/h.</desc>
<speed>0.020000</speed>
</trkpt>
<trkpt lat="55.731514" lon="26.231527">
<ele>172.181763</ele>
<time>2010-07-17T11:08:03Z</time>
<desc>lat.=55.731514, lon.=26.231527, Alt.=172.181763m. Speed=0.108000m/h.</desc>
<speed>0.030000</speed>
</trkpt>
<trkpt lat="55.731514" lon="26.231529">
<ele>172.213013</ele>
<time>2010-07-17T11:08:04Z</time>
<desc>lat.=55.731514, lon.=26.231529, Alt.=172.213013m. Speed=0.180000m/h.</desc>
<speed>0.050000</speed>
</trkpt>
<trkpt lat="55.731510" lon="26.231529">
<ele>172.252075</ele>
<time>2010-07-17T11:08:05Z</time>
<desc>lat.=55.731510, lon.=26.231529, Alt.=172.252075m. Speed=0.072000m/h.</desc>
<speed>0.020000</speed>
</trkpt>
<trkpt lat="55.731514" lon="26.231529">
<ele>172.287231</ele>
<time>2010-07-17T11:08:06Z</time>
<desc>lat.=55.731514, lon.=26.231529, Alt.=172.287231m. Speed=0.144000m/h.</desc>
<speed>0.040000</speed>
</trkpt>
<trkpt lat="55.731514" lon="26.231529">
<ele>172.322388</ele>
<time>2010-07-17T11:08:07Z</time>
<desc>lat.=55.731514, lon.=26.231529, Alt.=172.322388m. Speed=0.396000m/h.</desc>
<speed>0.110000</speed>
</trkpt>
<trkpt lat="55.731514" lon="26.231531">
<ele>172.353638</ele>
<time>2010-07-17T11:08:08Z</time>
<desc>lat.=55.731514, lon.=26.231531, Alt.=172.353638m. Speed=0.396000m/h.</desc>
<speed>0.110000</speed>
</trkpt>
<trkpt lat="55.731514" lon="26.231533">
<ele>172.392700</ele>
<time>2010-07-17T11:08:09Z</time>
<desc>lat.=55.731514, lon.=26.231533, Alt.=172.392700m. Speed=0.468000m/h.</desc>
<speed>0.130000</speed>
</trkpt>
<trkpt lat="55.731514" lon="26.231535">
<ele>172.439575</ele>
<time>2010-07-17T11:08:10Z</time>
<desc>lat.=55.731514, lon.=26.231535, Alt.=172.439575m. Speed=0.684000m/h.</desc>
<speed>0.190000</speed>
</trkpt>
<trkpt lat="55.731514" lon="26.231537">
<ele>172.486450</ele>
<time>2010-07-17T11:08:11Z</time>
<desc>lat.=55.731514, lon.=26.231537, Alt.=172.486450m. Speed=0.792000m/h.</desc>
<speed>0.220000</speed>
</trkpt>
<trkpt lat="55.731518" lon="26.231541">
<ele>172.529419</ele>
<time>2010-07-17T11:08:12Z</time>
<desc>lat.=55.731518, lon.=26.231541, Alt.=172.529419m. Speed=0.828000m/h.</desc>
<speed>0.230000</speed>
</trkpt>
<trkpt lat="55.731518" lon="26.231544">
<ele>172.564575</ele>
<time>2010-07-17T11:08:13Z</time>
<desc>lat.=55.731518, lon.=26.231544, Alt.=172.564575m. Speed=0.864000m/h.</desc>
<speed>0.240000</speed>
</trkpt>
<trkpt lat="55.731518" lon="26.231546">
<ele>172.607544</ele>
<time>2010-07-17T11:08:14Z</time>
<desc>lat.=55.731518, lon.=26.231546, Alt.=172.607544m. Speed=0.864000m/h.</desc>
<speed>0.240000</speed>
</trkpt>
<trkpt lat="55.731522" lon="26.231550">
<ele>172.642700</ele>
<time>2010-07-17T11:08:15Z</time>
<desc>lat.=55.731522, lon.=26.231550, Alt.=172.642700m. Speed=0.612000m/h.</desc>
<speed>0.170000</speed>
</trkpt>
<trkpt lat="55.731522" lon="26.231552">
<ele>172.670044</ele>
<time>2010-07-17T11:08:16Z</time>
<desc>lat.=55.731522, lon.=26.231552, Alt.=172.670044m. Speed=0.684000m/h.</desc>
<speed>0.190000</speed>
</trkpt>
<trkpt lat="55.731522" lon="26.231556">
<ele>172.697388</ele>
<time>2010-07-17T11:08:17Z</time>
<desc>lat.=55.731522, lon.=26.231556, Alt.=172.697388m. Speed=0.648000m/h.</desc>
<speed>0.180000</speed>
</trkpt>
<trkpt lat="55.731525" lon="26.231558">
<ele>172.720825</ele>
<time>2010-07-17T11:08:18Z</time>
<desc>lat.=55.731525, lon.=26.231558, Alt.=172.720825m. Speed=0.576000m/h.</desc>
<speed>0.160000</speed>
</trkpt>
<trkpt lat="55.731525" lon="26.231560">
<ele>172.740356</ele>
<time>2010-07-17T11:08:19Z</time>
<desc>lat.=55.731525, lon.=26.231560, Alt.=172.740356m. Speed=0.468000m/h.</desc>
<speed>0.130000</speed>
</trkpt>
<trkpt lat="55.731525" lon="26.231562">
<ele>172.763794</ele>
<time>2010-07-17T11:08:20Z</time>
<desc>lat.=55.731525, lon.=26.231562, Alt.=172.763794m. Speed=0.396000m/h.</desc>
<speed>0.110000</speed>
</trkpt>
<trkpt lat="55.731525" lon="26.231564">
<ele>172.775513</ele>
<time>2010-07-17T11:08:21Z</time>
<desc>lat.=55.731525, lon.=26.231564, Alt.=172.775513m. Speed=0.252000m/h.</desc>
<speed>0.070000</speed>
</trkpt>
<trkpt lat="55.731525" lon="26.231564">
<ele>172.791138</ele>
<time>2010-07-17T11:08:22Z</time>
<desc>lat.=55.731525, lon.=26.231564, Alt.=172.791138m. Speed=0.144000m/h.</desc>
<speed>0.040000</speed>
</trkpt>
<trkpt lat="55.731525" lon="26.231564">
<ele>172.806763</ele>
<time>2010-07-17T11:08:23Z</time>
<desc>lat.=55.731525, lon.=26.231564, Alt.=172.806763m. Speed=0.108000m/h.</desc>
<speed>0.030000</speed>
</trkpt>
<trkpt lat="55.731525" lon="26.231564">
<ele>172.826294</ele>
<time>2010-07-17T11:08:24Z</time>
<desc>lat.=55.731525, lon.=26.231564, Alt.=172.826294m. Speed=0.036000m/h.</desc>
<speed>0.010000</speed>
</trkpt>
<trkpt lat="55.731525" lon="26.231564">
<ele>172.834106</ele>
<time>2010-07-17T11:08:25Z</time>
<desc>lat.=55.731525, lon.=26.231564, Alt.=172.834106m. Speed=0.072000m/h.</desc>
<speed>0.020000</speed>
</trkpt>
<trkpt lat="55.731525" lon="26.231564">
<ele>172.830200</ele>
<time>2010-07-17T11:08:26Z</time>
<desc>lat.=55.731525, lon.=26.231564, Alt.=172.830200m. Speed=0.036000m/h.</desc>
<speed>0.010000</speed>
</trkpt>
<trkpt lat="55.731525" lon="26.231564">
<ele>172.822388</ele>
<time>2010-07-17T11:08:27Z</time>
<desc>lat.=55.731525, lon.=26.231564, Alt.=172.822388m. Speed=0.180000m/h.</desc>
<speed>0.050000</speed>
</trkpt>
<trkpt lat="55.731525" lon="26.231564">
<ele>172.814575</ele>
<time>2010-07-17T11:08:28Z</time>
<desc>lat.=55.731525, lon.=26.231564, Alt.=172.814575m. Speed=0.000000m/h.</desc>
<speed>0.000000</speed>
</trkpt>
<trkpt lat="55.731525" lon="26.231564">
<ele>172.806763</ele>
<time>2010-07-17T11:08:29Z</time>
<desc>lat.=55.731525, lon.=26.231564, Alt.=172.806763m. Speed=0.036000m/h.</desc>
<speed>0.010000</speed>
</trkpt>
<trkpt lat="55.731525" lon="26.231564">
<ele>172.802856</ele>
<time>2010-07-17T11:08:30Z</time>
<desc>lat.=55.731525, lon.=26.231564, Alt.=172.802856m. Speed=0.108000m/h.</desc>
<speed>0.030000</speed>
</trkpt>
<trkpt lat="55.731525" lon="26.231564">
<ele>172.787231</ele>
<time>2010-07-17T11:08:31Z</time>
<desc>lat.=55.731525, lon.=26.231564, Alt.=172.787231m. Speed=0.180000m/h.</desc>
<speed>0.050000</speed>
</trkpt>
<trkpt lat="55.731525" lon="26.231562">
<ele>172.759888</ele>
<time>2010-07-17T11:08:32Z</time>
<desc>lat.=55.731525, lon.=26.231562, Alt.=172.759888m. Speed=0.180000m/h.</desc>
<speed>0.050000</speed>
</trkpt>
<trkpt lat="55.731525" lon="26.231562">
<ele>172.744263</ele>
<time>2010-07-17T11:08:33Z</time>
<desc>lat.=55.731525, lon.=26.231562, Alt.=172.744263m. Speed=0.072000m/h.</desc>
<speed>0.020000</speed>
</trkpt>
<trkpt lat="55.731525" lon="26.231562">
<ele>172.728638</ele>
<time>2010-07-17T11:08:34Z</time>
<desc>lat.=55.731525, lon.=26.231562, Alt.=172.728638m. Speed=0.000000m/h.</desc>
<speed>0.000000</speed>
</trkpt>
<trkpt lat="55.731525" lon="26.231562">
<ele>172.697388</ele>
<time>2010-07-17T11:08:35Z</time>
<desc>lat.=55.731525, lon.=26.231562, Alt.=172.697388m. Speed=0.108000m/h.</desc>
<speed>0.030000</speed>
</trkpt>
<trkpt lat="55.731525" lon="26.231562">
<ele>172.670044</ele>
<time>2010-07-17T11:08:36Z</time>
<desc>lat.=55.731525, lon.=26.231562, Alt.=172.670044m. Speed=0.252000m/h.</desc>
<speed>0.070000</speed>
</trkpt>
<trkpt lat="55.731525" lon="26.231560">
<ele>172.630981</ele>
<time>2010-07-17T11:08:37Z</time>
<desc>lat.=55.731525, lon.=26.231560, Alt.=172.630981m. Speed=0.180000m/h.</desc>
<speed>0.050000</speed>
</trkpt>
<trkpt lat="55.731525" lon="26.231560">
<ele>172.584106</ele>
<time>2010-07-17T11:08:38Z</time>
<desc>lat.=55.731525, lon.=26.231560, Alt.=172.584106m. Speed=0.108000m/h.</desc>
<speed>0.030000</speed>
</trkpt>
<trkpt lat="55.731525" lon="26.231560">
<ele>172.541138</ele>
<time>2010-07-17T11:08:39Z</time>
<desc>lat.=55.731525, lon.=26.231560, Alt.=172.541138m. Speed=0.036000m/h.</desc>
<speed>0.010000</speed>
</trkpt>
<trkpt lat="55.731525" lon="26.231560">
<ele>172.498169</ele>
<time>2010-07-17T11:08:40Z</time>
<desc>lat.=55.731525, lon.=26.231560, Alt.=172.498169m. Speed=0.072000m/h.</desc>
<speed>0.020000</speed>
</trkpt>
<trkpt lat="55.731525" lon="26.231560">
<ele>172.455200</ele>
<time>2010-07-17T11:08:41Z</time>
<desc>lat.=55.731525, lon.=26.231560, Alt.=172.455200m. Speed=0.180000m/h.</desc>
<speed>0.050000</speed>
</trkpt>
<trkpt lat="55.731525" lon="26.231560">
<ele>172.420044</ele>
<time>2010-07-17T11:08:42Z</time>
<desc>lat.=55.731525, lon.=26.231560, Alt.=172.420044m. Speed=0.216000m/h.</desc>
<speed>0.060000</speed>
</trkpt>
<trkpt lat="55.731522" lon="26.231558">
<ele>172.373169</ele>
<time>2010-07-17T11:08:43Z</time>
<desc>lat.=55.731522, lon.=26.231558, Alt.=172.373169m. Speed=0.396000m/h.</desc>
<speed>0.110000</speed>
</trkpt>
<trkpt lat="55.731522" lon="26.231558">
<ele>172.326294</ele>
<time>2010-07-17T11:08:44Z</time>
<desc>lat.=55.731522, lon.=26.231558, Alt.=172.326294m. Speed=0.540000m/h.</desc>
<speed>0.150000</speed>
</trkpt>
<trkpt lat="55.731522" lon="26.231556">
<ele>172.279419</ele>
<time>2010-07-17T11:08:45Z</time>
<desc>lat.=55.731522, lon.=26.231556, Alt.=172.279419m. Speed=0.504000m/h.</desc>
<speed>0.140000</speed>
</trkpt>
<trkpt lat="55.731518" lon="26.231556">
<ele>172.228638</ele>
<time>2010-07-17T11:08:46Z</time>
<desc>lat.=55.731518, lon.=26.231556, Alt.=172.228638m. Speed=0.540000m/h.</desc>
<speed>0.150000</speed>
</trkpt>
<trkpt lat="55.731518" lon="26.231554">
<ele>172.181763</ele>
<time>2010-07-17T11:08:47Z</time>
<desc>lat.=55.731518, lon.=26.231554, Alt.=172.181763m. Speed=0.576000m/h.</desc>
<speed>0.160000</speed>
</trkpt>
<trkpt lat="55.731518" lon="26.231552">
<ele>172.130981</ele>
<time>2010-07-17T11:08:48Z</time>
<desc>lat.=55.731518, lon.=26.231552, Alt.=172.130981m. Speed=0.576000m/h.</desc>
<speed>0.160000</speed>
</trkpt>
<trkpt lat="55.731518" lon="26.231550">
<ele>172.076294</ele>
<time>2010-07-17T11:08:49Z</time>
<desc>lat.=55.731518, lon.=26.231550, Alt.=172.076294m. Speed=0.612000m/h.</desc>
<speed>0.170000</speed>
</trkpt>
<trkpt lat="55.731514" lon="26.231550">
<ele>172.037231</ele>
<time>2010-07-17T11:08:50Z</time>
<desc>lat.=55.731514, lon.=26.231550, Alt.=172.037231m. Speed=0.684000m/h.</desc>
<speed>0.190000</speed>
</trkpt>
<trkpt lat="55.731514" lon="26.231548">
<ele>172.002075</ele>
<time>2010-07-17T11:08:51Z</time>
<desc>lat.=55.731514, lon.=26.231548, Alt.=172.002075m. Speed=0.684000m/h.</desc>
<speed>0.190000</speed>
</trkpt>
<trkpt lat="55.731510" lon="26.231546">
<ele>171.966919</ele>
<time>2010-07-17T11:08:52Z</time>
<desc>lat.=55.731510, lon.=26.231546, Alt.=171.966919m. Speed=0.576000m/h.</desc>
<speed>0.160000</speed>
</trkpt>
<trkpt lat="55.731510" lon="26.231546">
<ele>171.931763</ele>
<time>2010-07-17T11:08:53Z</time>
<desc>lat.=55.731510, lon.=26.231546, Alt.=171.931763m. Speed=0.432000m/h.</desc>
<speed>0.120000</speed>
</trkpt>
<trkpt lat="55.731510" lon="26.231544">
<ele>171.892700</ele>
<time>2010-07-17T11:08:54Z</time>
<desc>lat.=55.731510, lon.=26.231544, Alt.=171.892700m. Speed=0.576000m/h.</desc>
<speed>0.160000</speed>
</trkpt>
<trkpt lat="55.731506" lon="26.231544">
<ele>171.857544</ele>
<time>2010-07-17T11:08:55Z</time>
<desc>lat.=55.731506, lon.=26.231544, Alt.=171.857544m. Speed=0.648000m/h.</desc>
<speed>0.180000</speed>
</trkpt>
<trkpt lat="55.731506" lon="26.231544">
<ele>171.822388</ele>
<time>2010-07-17T11:08:56Z</time>
<desc>lat.=55.731506, lon.=26.231544, Alt.=171.822388m. Speed=0.504000m/h.</desc>
<speed>0.140000</speed>
</trkpt>
<trkpt lat="55.731506" lon="26.231543">
<ele>171.783325</ele>
<time>2010-07-17T11:08:57Z</time>
<desc>lat.=55.731506, lon.=26.231543, Alt.=171.783325m. Speed=0.504000m/h.</desc>
<speed>0.140000</speed>
</trkpt>
<trkpt lat="55.731503" lon="26.231543">
<ele>171.736450</ele>
<time>2010-07-17T11:08:58Z</time>
<desc>lat.=55.731503, lon.=26.231543, Alt.=171.736450m. Speed=0.396000m/h.</desc>
<speed>0.110000</speed>
</trkpt>
<trkpt lat="55.731503" lon="26.231541">
<ele>171.693481</ele>
<time>2010-07-17T11:08:59Z</time>
<desc>lat.=55.731503, lon.=26.231541, Alt.=171.693481m. Speed=0.612000m/h.</desc>
<speed>0.170000</speed>
</trkpt>
<trkpt lat="55.731499" lon="26.231541">
<ele>171.650513</ele>
<time>2010-07-17T11:09:00Z</time>
<desc>lat.=55.731499, lon.=26.231541, Alt.=171.650513m. Speed=0.612000m/h.</desc>
<speed>0.170000</speed>
</trkpt>
<trkpt lat="55.731499" lon="26.231539">
<ele>171.599731</ele>
<time>2010-07-17T11:09:01Z</time>
<desc>lat.=55.731499, lon.=26.231539, Alt.=171.599731m. Speed=0.648000m/h.</desc>
<speed>0.180000</speed>
</trkpt>
<trkpt lat="55.731499" lon="26.231539">
<ele>171.537231</ele>
<time>2010-07-17T11:09:02Z</time>
<desc>lat.=55.731499, lon.=26.231539, Alt.=171.537231m. Speed=0.936000m/h.</desc>
<speed>0.260000</speed>
</trkpt>
<trkpt lat="55.731495" lon="26.231537">
<ele>171.474731</ele>
<time>2010-07-17T11:09:03Z</time>
<desc>lat.=55.731495, lon.=26.231537, Alt.=171.474731m. Speed=0.864000m/h.</desc>
<speed>0.240000</speed>
</trkpt>
<trkpt lat="55.731491" lon="26.231537">
<ele>171.408325</ele>
<time>2010-07-17T11:09:04Z</time>
<desc>lat.=55.731491, lon.=26.231537, Alt.=171.408325m. Speed=0.828000m/h.</desc>
<speed>0.230000</speed>
</trkpt>
<trkpt lat="55.731491" lon="26.231535">
<ele>171.338013</ele>
<time>2010-07-17T11:09:05Z</time>
<desc>lat.=55.731491, lon.=26.231535, Alt.=171.338013m. Speed=0.900000m/h.</desc>
<speed>0.250000</speed>
</trkpt>
<trkpt lat="55.731487" lon="26.231533">
<ele>171.271606</ele>
<time>2010-07-17T11:09:06Z</time>
<desc>lat.=55.731487, lon.=26.231533, Alt.=171.271606m. Speed=0.684000m/h.</desc>
<speed>0.190000</speed>
</trkpt>
<trkpt lat="55.731487" lon="26.231533">
<ele>171.209106</ele>
<time>2010-07-17T11:09:07Z</time>
<desc>lat.=55.731487, lon.=26.231533, Alt.=171.209106m. Speed=0.504000m/h.</desc>
<speed>0.140000</speed>
</trkpt>
<trkpt lat="55.731487" lon="26.231531">
<ele>171.146606</ele>
<time>2010-07-17T11:09:08Z</time>
<desc>lat.=55.731487, lon.=26.231531, Alt.=171.146606m. Speed=0.432000m/h.</desc>
<speed>0.120000</speed>
</trkpt>
<trkpt lat="55.731483" lon="26.231531">
<ele>171.084106</ele>
<time>2010-07-17T11:09:09Z</time>
<desc>lat.=55.731483, lon.=26.231531, Alt.=171.084106m. Speed=0.288000m/h.</desc>
<speed>0.080000</speed>
</trkpt>
<trkpt lat="55.731483" lon="26.231531">
<ele>171.025513</ele>
<time>2010-07-17T11:09:10Z</time>
<desc>lat.=55.731483, lon.=26.231531, Alt.=171.025513m. Speed=0.216000m/h.</desc>
<speed>0.060000</speed>
</trkpt>
<trkpt lat="55.731483" lon="26.231529">
<ele>170.959106</ele>
<time>2010-07-17T11:09:11Z</time>
<desc>lat.=55.731483, lon.=26.231529, Alt.=170.959106m. Speed=0.252000m/h.</desc>
<speed>0.070000</speed>
</trkpt>
<trkpt lat="55.731483" lon="26.231529">
<ele>170.896606</ele>
<time>2010-07-17T11:09:12Z</time>
<desc>lat.=55.731483, lon.=26.231529, Alt.=170.896606m. Speed=0.180000m/h.</desc>
<speed>0.050000</speed>
</trkpt>
<trkpt lat="55.731483" lon="26.231529">
<ele>170.838013</ele>
<time>2010-07-17T11:09:13Z</time>
<desc>lat.=55.731483, lon.=26.231529, Alt.=170.838013m. Speed=0.180000m/h.</desc>
<speed>0.050000</speed>
</trkpt>
<trkpt lat="55.731483" lon="26.231529">
<ele>170.775513</ele>
<time>2010-07-17T11:09:14Z</time>
<desc>lat.=55.731483, lon.=26.231529, Alt.=170.775513m. Speed=0.252000m/h.</desc>
<speed>0.070000</speed>
</trkpt>
<trkpt lat="55.731480" lon="26.231527">
<ele>170.716919</ele>
<time>2010-07-17T11:09:15Z</time>
<desc>lat.=55.731480, lon.=26.231527, Alt.=170.716919m. Speed=0.216000m/h.</desc>
<speed>0.060000</speed>
</trkpt>
<trkpt lat="55.731480" lon="26.231527">
<ele>170.658325</ele>
<time>2010-07-17T11:09:16Z</time>
<desc>lat.=55.731480, lon.=26.231527, Alt.=170.658325m. Speed=0.216000m/h.</desc>
<speed>0.060000</speed>
</trkpt>
<trkpt lat="55.731480" lon="26.231527">
<ele>170.584106</ele>
<time>2010-07-17T11:09:17Z</time>
<desc>lat.=55.731480, lon.=26.231527, Alt.=170.584106m. Speed=0.360000m/h.</desc>
<speed>0.100000</speed>
</trkpt>
<trkpt lat="55.731480" lon="26.231525">
<ele>170.502075</ele>
<time>2010-07-17T11:09:18Z</time>
<desc>lat.=55.731480, lon.=26.231525, Alt.=170.502075m. Speed=0.504000m/h.</desc>
<speed>0.140000</speed>
</trkpt>
<trkpt lat="55.731476" lon="26.231525">
<ele>170.423950</ele>
<time>2010-07-17T11:09:19Z</time>
<desc>lat.=55.731476, lon.=26.231525, Alt.=170.423950m. Speed=0.540000m/h.</desc>
<speed>0.150000</speed>
</trkpt>
<trkpt lat="55.731476" lon="26.231524">
<ele>170.341919</ele>
<time>2010-07-17T11:09:20Z</time>
<desc>lat.=55.731476, lon.=26.231524, Alt.=170.341919m. Speed=0.684000m/h.</desc>
<speed>0.190000</speed>
</trkpt>
<trkpt lat="55.731472" lon="26.231524">
<ele>170.259888</ele>
<time>2010-07-17T11:09:21Z</time>
<desc>lat.=55.731472, lon.=26.231524, Alt.=170.259888m. Speed=0.828000m/h.</desc>
<speed>0.230000</speed>
</trkpt>
<trkpt lat="55.731472" lon="26.231522">
<ele>170.185669</ele>
<time>2010-07-17T11:09:22Z</time>
<desc>lat.=55.731472, lon.=26.231522, Alt.=170.185669m. Speed=0.756000m/h.</desc>
<speed>0.210000</speed>
</trkpt>
<trkpt lat="55.731468" lon="26.231522">
<ele>170.107544</ele>
<time>2010-07-17T11:09:23Z</time>
<desc>lat.=55.731468, lon.=26.231522, Alt.=170.107544m. Speed=0.756000m/h.</desc>
<speed>0.210000</speed>
</trkpt>
<trkpt lat="55.731468" lon="26.231520">
<ele>170.033325</ele>
<time>2010-07-17T11:09:24Z</time>
<desc>lat.=55.731468, lon.=26.231520, Alt.=170.033325m. Speed=0.684000m/h.</desc>
<speed>0.190000</speed>
</trkpt>
<trkpt lat="55.731464" lon="26.231520">
<ele>169.955200</ele>
<time>2010-07-17T11:09:25Z</time>
<desc>lat.=55.731464, lon.=26.231520, Alt.=169.955200m. Speed=0.792000m/h.</desc>
<speed>0.220000</speed>
</trkpt>
<trkpt lat="55.731464" lon="26.231518">
<ele>169.873169</ele>
<time>2010-07-17T11:09:26Z</time>
<desc>lat.=55.731464, lon.=26.231518, Alt.=169.873169m. Speed=0.684000m/h.</desc>
<speed>0.190000</speed>
</trkpt>
<trkpt lat="55.731461" lon="26.231518">
<ele>169.783325</ele>
<time>2010-07-17T11:09:27Z</time>
<desc>lat.=55.731461, lon.=26.231518, Alt.=169.783325m. Speed=0.576000m/h.</desc>
<speed>0.160000</speed>
</trkpt>
<trkpt lat="55.731461" lon="26.231516">
<ele>169.689575</ele>
<time>2010-07-17T11:09:28Z</time>
<desc>lat.=55.731461, lon.=26.231516, Alt.=169.689575m. Speed=0.432000m/h.</desc>
<speed>0.120000</speed>
</trkpt>
<trkpt lat="55.731457" lon="26.231516">
<ele>169.584106</ele>
<time>2010-07-17T11:09:29Z</time>
<desc>lat.=55.731457, lon.=26.231516, Alt.=169.584106m. Speed=0.504000m/h.</desc>
<speed>0.140000</speed>
</trkpt>
<trkpt lat="55.731457" lon="26.231514">
<ele>169.459106</ele>
<time>2010-07-17T11:09:30Z</time>
<desc>lat.=55.731457, lon.=26.231514, Alt.=169.459106m. Speed=0.576000m/h.</desc>
<speed>0.160000</speed>
</trkpt>
<trkpt lat="55.731457" lon="26.231514">
<ele>169.318481</ele>
<time>2010-07-17T11:09:31Z</time>
<desc>lat.=55.731457, lon.=26.231514, Alt.=169.318481m. Speed=0.612000m/h.</desc>
<speed>0.170000</speed>
</trkpt>
<trkpt lat="55.731453" lon="26.231512">
<ele>169.170044</ele>
<time>2010-07-17T11:09:32Z</time>
<desc>lat.=55.731453, lon.=26.231512, Alt.=169.170044m. Speed=0.612000m/h.</desc>
<speed>0.170000</speed>
</trkpt>
<trkpt lat="55.731453" lon="26.231510">
<ele>169.002075</ele>
<time>2010-07-17T11:09:33Z</time>
<desc>lat.=55.731453, lon.=26.231510, Alt.=169.002075m. Speed=0.540000m/h.</desc>
<speed>0.150000</speed>
</trkpt>
<trkpt lat="55.731449" lon="26.231510">
<ele>168.814575</ele>
<time>2010-07-17T11:09:34Z</time>
<desc>lat.=55.731449, lon.=26.231510, Alt.=168.814575m. Speed=0.576000m/h.</desc>
<speed>0.160000</speed>
</trkpt>
<trkpt lat="55.731449" lon="26.231508">
<ele>168.646606</ele>
<time>2010-07-17T11:09:35Z</time>
<desc>lat.=55.731449, lon.=26.231508, Alt.=168.646606m. Speed=0.576000m/h.</desc>
<speed>0.160000</speed>
</trkpt>
<trkpt lat="55.731449" lon="26.231508">
<ele>168.482544</ele>
<time>2010-07-17T11:09:36Z</time>
<desc>lat.=55.731449, lon.=26.231508, Alt.=168.482544m. Speed=0.144000m/h.</desc>
<speed>0.040000</speed>
</trkpt>
<trkpt lat="55.731449" lon="26.231506">
<ele>168.334106</ele>
<time>2010-07-17T11:09:37Z</time>
<desc>lat.=55.731449, lon.=26.231506, Alt.=168.334106m. Speed=0.180000m/h.</desc>
<speed>0.050000</speed>
</trkpt>
<trkpt lat="55.731449" lon="26.231506">
<ele>168.154419</ele>
<time>2010-07-17T11:09:38Z</time>
<desc>lat.=55.731449, lon.=26.231506, Alt.=168.154419m. Speed=0.144000m/h.</desc>
<speed>0.040000</speed>
</trkpt>
<trkpt lat="55.731449" lon="26.231506">
<ele>167.998169</ele>
<time>2010-07-17T11:09:39Z</time>
<desc>lat.=55.731449, lon.=26.231506, Alt.=167.998169m. Speed=0.108000m/h.</desc>
<speed>0.030000</speed>
</trkpt>
<trkpt lat="55.731449" lon="26.231504">
<ele>167.841919</ele>
<time>2010-07-17T11:09:40Z</time>
<desc>lat.=55.731449, lon.=26.231504, Alt.=167.841919m. Speed=0.144000m/h.</desc>
<speed>0.040000</speed>
</trkpt>
<trkpt lat="55.731449" lon="26.231504">
<ele>167.673950</ele>
<time>2010-07-17T11:09:41Z</time>
<desc>lat.=55.731449, lon.=26.231504, Alt.=167.673950m. Speed=0.144000m/h.</desc>
<speed>0.040000</speed>
</trkpt>
<trkpt lat="55.731449" lon="26.231504">
<ele>167.502075</ele>
<time>2010-07-17T11:09:42Z</time>
<desc>lat.=55.731449, lon.=26.231504, Alt.=167.502075m. Speed=0.144000m/h.</desc>
<speed>0.040000</speed>
</trkpt>
<trkpt lat="55.731449" lon="26.231503">
<ele>167.345825</ele>
<time>2010-07-17T11:09:43Z</time>
<desc>lat.=55.731449, lon.=26.231503, Alt.=167.345825m. Speed=0.252000m/h.</desc>
<speed>0.070000</speed>
</trkpt>
<trkpt lat="55.731445" lon="26.231503">
<ele>167.201294</ele>
<time>2010-07-17T11:09:44Z</time>
<desc>lat.=55.731445, lon.=26.231503, Alt.=167.201294m. Speed=0.288000m/h.</desc>
<speed>0.080000</speed>
</trkpt>
<trkpt lat="55.731445" lon="26.231501">
<ele>167.052856</ele>
<time>2010-07-17T11:09:45Z</time>
<desc>lat.=55.731445, lon.=26.231501, Alt.=167.052856m. Speed=0.360000m/h.</desc>
<speed>0.100000</speed>
</trkpt>
<trkpt lat="55.731445" lon="26.231501">
<ele>166.908325</ele>
<time>2010-07-17T11:09:46Z</time>
<desc>lat.=55.731445, lon.=26.231501, Alt.=166.908325m. Speed=0.468000m/h.</desc>
<speed>0.130000</speed>
</trkpt>
<trkpt lat="55.731445" lon="26.231499">
<ele>166.771606</ele>
<time>2010-07-17T11:09:47Z</time>
<desc>lat.=55.731445, lon.=26.231499, Alt.=166.771606m. Speed=0.468000m/h.</desc>
<speed>0.130000</speed>
</trkpt>
<trkpt lat="55.731441" lon="26.231499">
<ele>166.630981</ele>
<time>2010-07-17T11:09:48Z</time>
<desc>lat.=55.731441, lon.=26.231499, Alt.=166.630981m. Speed=0.360000m/h.</desc>
<speed>0.100000</speed>
</trkpt>
<trkpt lat="55.731441" lon="26.231499">
<ele>166.486450</ele>
<time>2010-07-17T11:09:49Z</time>
<desc>lat.=55.731441, lon.=26.231499, Alt.=166.486450m. Speed=0.396000m/h.</desc>
<speed>0.110000</speed>
</trkpt>
<trkpt lat="55.731441" lon="26.231497">
<ele>166.345825</ele>
<time>2010-07-17T11:09:50Z</time>
<desc>lat.=55.731441, lon.=26.231497, Alt.=166.345825m. Speed=0.468000m/h.</desc>
<speed>0.130000</speed>
</trkpt>
<trkpt lat="55.731441" lon="26.231497">
<ele>166.213013</ele>
<time>2010-07-17T11:09:51Z</time>
<desc>lat.=55.731441, lon.=26.231497, Alt.=166.213013m. Speed=0.576000m/h.</desc>
<speed>0.160000</speed>
</trkpt>
<trkpt lat="55.731438" lon="26.231497">
<ele>166.080200</ele>
<time>2010-07-17T11:09:52Z</time>
<desc>lat.=55.731438, lon.=26.231497, Alt.=166.080200m. Speed=0.720000m/h.</desc>
<speed>0.200000</speed>
</trkpt>
<trkpt lat="55.731438" lon="26.231497">
<ele>165.951294</ele>
<time>2010-07-17T11:09:53Z</time>
<desc>lat.=55.731438, lon.=26.231497, Alt.=165.951294m. Speed=0.864000m/h.</desc>
<speed>0.240000</speed>
</trkpt>
<trkpt lat="55.731434" lon="26.231497">
<ele>165.826294</ele>
<time>2010-07-17T11:09:54Z</time>
<desc>lat.=55.731434, lon.=26.231497, Alt.=165.826294m. Speed=1.008000m/h.</desc>
<speed>0.280000</speed>
</trkpt>
<trkpt lat="55.731430" lon="26.231499">
<ele>165.693481</ele>
<time>2010-07-17T11:09:55Z</time>
<desc>lat.=55.731430, lon.=26.231499, Alt.=165.693481m. Speed=1.260000m/h.</desc>
<speed>0.350000</speed>
</trkpt>
<trkpt lat="55.731422" lon="26.231504">
<ele>165.357544</ele>
<time>2010-07-17T11:09:56Z</time>
<desc>lat.=55.731422, lon.=26.231504, Alt.=165.357544m. Speed=1.368000m/h.</desc>
<speed>0.380000</speed>
</trkpt>
<trkpt lat="55.731415" lon="26.231510">
<ele>165.189575</ele>
<time>2010-07-17T11:09:57Z</time>
<desc>lat.=55.731415, lon.=26.231510, Alt.=165.189575m. Speed=1.476000m/h.</desc>
<speed>0.410000</speed>
</trkpt>
<trkpt lat="55.731403" lon="26.231514">
<ele>164.400513</ele>
<time>2010-07-17T11:09:58Z</time>
<desc>lat.=55.731403, lon.=26.231514, Alt.=164.400513m. Speed=1.476000m/h.</desc>
<speed>0.410000</speed>
</trkpt>
<trkpt lat="55.731396" lon="26.231520">
<ele>164.048950</ele>
<time>2010-07-17T11:09:59Z</time>
<desc>lat.=55.731396, lon.=26.231520, Alt.=164.048950m. Speed=1.548000m/h.</desc>
<speed>0.430000</speed>
</trkpt>
<trkpt lat="55.731384" lon="26.231520">
<ele>162.927856</ele>
<time>2010-07-17T11:10:00Z</time>
<desc>lat.=55.731384, lon.=26.231520, Alt.=162.927856m. Speed=1.512000m/h.</desc>
<speed>0.420000</speed>
</trkpt>
<trkpt lat="55.731377" lon="26.231527">
<ele>162.900513</ele>
<time>2010-07-17T11:10:01Z</time>
<desc>lat.=55.731377, lon.=26.231527, Alt.=162.900513m. Speed=1.512000m/h.</desc>
<speed>0.420000</speed>
</trkpt>
<trkpt lat="55.731365" lon="26.231531">
<ele>162.595825</ele>
<time>2010-07-17T11:10:02Z</time>
<desc>lat.=55.731365, lon.=26.231531, Alt.=162.595825m. Speed=1.440000m/h.</desc>
<speed>0.400000</speed>
</trkpt>
<trkpt lat="55.731346" lon="26.231529">
<ele>161.787231</ele>
<time>2010-07-17T11:10:03Z</time>
<desc>lat.=55.731346, lon.=26.231529, Alt.=161.787231m. Speed=1.476000m/h.</desc>
<speed>0.410000</speed>
</trkpt>
<trkpt lat="55.731339" lon="26.231527">
<ele>161.138794</ele>
<time>2010-07-17T11:10:04Z</time>
<desc>lat.=55.731339, lon.=26.231527, Alt.=161.138794m. Speed=1.188000m/h.</desc>
<speed>0.330000</speed>
</trkpt>
<trkpt lat="55.731346" lon="26.231531">
<ele>160.826294</ele>
<time>2010-07-17T11:10:05Z</time>
<desc>lat.=55.731346, lon.=26.231531, Alt.=160.826294m. Speed=0.072000m/h.</desc>
<speed>0.020000</speed>
</trkpt>
<trkpt lat="55.731342" lon="26.231529">
<ele>160.259888</ele>
<time>2010-07-17T11:10:06Z</time>
<desc>lat.=55.731342, lon.=26.231529, Alt.=160.259888m. Speed=0.036000m/h.</desc>
<speed>0.010000</speed>
</trkpt>
<trkpt lat="55.731335" lon="26.231531">
<ele>159.775513</ele>
<time>2010-07-17T11:10:07Z</time>
<desc>lat.=55.731335, lon.=26.231531, Alt.=159.775513m. Speed=0.036000m/h.</desc>
<speed>0.010000</speed>
</trkpt>
<trkpt lat="55.731331" lon="26.231535">
<ele>160.048950</ele>
<time>2010-07-17T11:10:08Z</time>
<desc>lat.=55.731331, lon.=26.231535, Alt.=160.048950m. Speed=0.144000m/h.</desc>
<speed>0.040000</speed>
</trkpt>
<trkpt lat="55.731331" lon="26.231535">
<ele>159.963013</ele>
<time>2010-07-17T11:10:09Z</time>
<desc>lat.=55.731331, lon.=26.231535, Alt.=159.963013m. Speed=0.144000m/h.</desc>
<speed>0.040000</speed>
</trkpt>
<trkpt lat="55.731331" lon="26.231533">
<ele>159.869263</ele>
<time>2010-07-17T11:10:10Z</time>
<desc>lat.=55.731331, lon.=26.231533, Alt.=159.869263m. Speed=0.144000m/h.</desc>
<speed>0.040000</speed>
</trkpt>
<trkpt lat="55.731331" lon="26.231533">
<ele>159.779419</ele>
<time>2010-07-17T11:10:11Z</time>
<desc>lat.=55.731331, lon.=26.231533, Alt.=159.779419m. Speed=0.144000m/h.</desc>
<speed>0.040000</speed>
</trkpt>
<trkpt lat="55.731335" lon="26.231533">
<ele>159.705200</ele>
<time>2010-07-17T11:10:12Z</time>
<desc>lat.=55.731335, lon.=26.231533, Alt.=159.705200m. Speed=0.072000m/h.</desc>
<speed>0.020000</speed>
</trkpt>
<trkpt lat="55.731335" lon="26.231533">
<ele>159.627075</ele>
<time>2010-07-17T11:10:13Z</time>
<desc>lat.=55.731335, lon.=26.231533, Alt.=159.627075m. Speed=0.072000m/h.</desc>
<speed>0.020000</speed>
</trkpt>
<trkpt lat="55.731335" lon="26.231533">
<ele>159.560669</ele>
<time>2010-07-17T11:10:14Z</time>
<desc>lat.=55.731335, lon.=26.231533, Alt.=159.560669m. Speed=0.000000m/h.</desc>
<speed>0.000000</speed>
</trkpt>
<trkpt lat="55.731335" lon="26.231533">
<ele>159.498169</ele>
<time>2010-07-17T11:10:15Z</time>
<desc>lat.=55.731335, lon.=26.231533, Alt.=159.498169m. Speed=0.036000m/h.</desc>
<speed>0.010000</speed>
</trkpt>
<trkpt lat="55.731335" lon="26.231533">
<ele>159.439575</ele>
<time>2010-07-17T11:10:16Z</time>
<desc>lat.=55.731335, lon.=26.231533, Alt.=159.439575m. Speed=0.072000m/h.</desc>
<speed>0.020000</speed>
</trkpt>
<trkpt lat="55.731335" lon="26.231533">
<ele>159.373169</ele>
<time>2010-07-17T11:10:17Z</time>
<desc>lat.=55.731335, lon.=26.231533, Alt.=159.373169m. Speed=0.108000m/h.</desc>
<speed>0.030000</speed>
</trkpt>
<trkpt lat="55.731335" lon="26.231533">
<ele>159.291138</ele>
<time>2010-07-17T11:10:18Z</time>
<desc>lat.=55.731335, lon.=26.231533, Alt.=159.291138m. Speed=0.180000m/h.</desc>
<speed>0.050000</speed>
</trkpt>
<trkpt lat="55.731335" lon="26.231533">
<ele>159.205200</ele>
<time>2010-07-17T11:10:19Z</time>
<desc>lat.=55.731335, lon.=26.231533, Alt.=159.205200m. Speed=0.216000m/h.</desc>
<speed>0.060000</speed>
</trkpt>
<trkpt lat="55.731335" lon="26.231533">
<ele>159.107544</ele>
<time>2010-07-17T11:10:20Z</time>
<desc>lat.=55.731335, lon.=26.231533, Alt.=159.107544m. Speed=0.216000m/h.</desc>
<speed>0.060000</speed>
</trkpt>
<trkpt lat="55.731335" lon="26.231531">
<ele>159.009888</ele>
<time>2010-07-17T11:10:21Z</time>
<desc>lat.=55.731335, lon.=26.231531, Alt.=159.009888m. Speed=0.216000m/h.</desc>
<speed>0.060000</speed>
</trkpt>
<trkpt lat="55.731335" lon="26.231531">
<ele>158.912231</ele>
<time>2010-07-17T11:10:22Z</time>
<desc>lat.=55.731335, lon.=26.231531, Alt.=158.912231m. Speed=0.216000m/h.</desc>
<speed>0.060000</speed>
</trkpt>
<trkpt lat="55.731339" lon="26.231531">
<ele>158.806763</ele>
<time>2010-07-17T11:10:23Z</time>
<desc>lat.=55.731339, lon.=26.231531, Alt.=158.806763m. Speed=0.324000m/h.</desc>
<speed>0.090000</speed>
</trkpt>
<trkpt lat="55.731339" lon="26.231529">
<ele>158.701294</ele>
<time>2010-07-17T11:10:24Z</time>
<desc>lat.=55.731339, lon.=26.231529, Alt.=158.701294m. Speed=0.360000m/h.</desc>
<speed>0.100000</speed>
</trkpt>
<trkpt lat="55.731339" lon="26.231529">
<ele>158.595825</ele>
<time>2010-07-17T11:10:25Z</time>
<desc>lat.=55.731339, lon.=26.231529, Alt.=158.595825m. Speed=0.288000m/h.</desc>
<speed>0.080000</speed>
</trkpt>
<trkpt lat="55.731339" lon="26.231527">
<ele>158.470825</ele>
<time>2010-07-17T11:10:26Z</time>
<desc>lat.=55.731339, lon.=26.231527, Alt.=158.470825m. Speed=0.036000m/h.</desc>
<speed>0.010000</speed>
</trkpt>
<trkpt lat="55.731339" lon="26.231527">
<ele>158.334106</ele>
<time>2010-07-17T11:10:27Z</time>
<desc>lat.=55.731339, lon.=26.231527, Alt.=158.334106m. Speed=0.000000m/h.</desc>
<speed>0.000000</speed>
</trkpt>
<trkpt lat="55.731339" lon="26.231527">
<ele>158.189575</ele>
<time>2010-07-17T11:10:28Z</time>
<desc>lat.=55.731339, lon.=26.231527, Alt.=158.189575m. Speed=0.036000m/h.</desc>
<speed>0.010000</speed>
</trkpt>
<trkpt lat="55.731339" lon="26.231527">
<ele>158.037231</ele>
<time>2010-07-17T11:10:29Z</time>
<desc>lat.=55.731339, lon.=26.231527, Alt.=158.037231m. Speed=0.000000m/h.</desc>
<speed>0.000000</speed>
</trkpt>
<trkpt lat="55.731339" lon="26.231527">
<ele>157.888794</ele>
<time>2010-07-17T11:10:30Z</time>
<desc>lat.=55.731339, lon.=26.231527, Alt.=157.888794m. Speed=0.036000m/h.</desc>
<speed>0.010000</speed>
</trkpt>
<trkpt lat="55.731339" lon="26.231527">
<ele>157.724731</ele>
<time>2010-07-17T11:10:31Z</time>
<desc>lat.=55.731339, lon.=26.231527, Alt.=157.724731m. Speed=0.036000m/h.</desc>
<speed>0.010000</speed>
</trkpt>
<trkpt lat="55.731339" lon="26.231527">
<ele>157.552856</ele>
<time>2010-07-17T11:10:32Z</time>
<desc>lat.=55.731339, lon.=26.231527, Alt.=157.552856m. Speed=0.036000m/h.</desc>
<speed>0.010000</speed>
</trkpt>
<trkpt lat="55.731339" lon="26.231527">
<ele>157.377075</ele>
<time>2010-07-17T11:10:33Z</time>
<desc>lat.=55.731339, lon.=26.231527, Alt.=157.377075m. Speed=0.108000m/h.</desc>
<speed>0.030000</speed>
</trkpt>
<trkpt lat="55.731339" lon="26.231527">
<ele>157.201294</ele>
<time>2010-07-17T11:10:34Z</time>
<desc>lat.=55.731339, lon.=26.231527, Alt.=157.201294m. Speed=0.108000m/h.</desc>
<speed>0.030000</speed>
</trkpt>
<trkpt lat="55.731339" lon="26.231525">
<ele>157.021606</ele>
<time>2010-07-17T11:10:35Z</time>
<desc>lat.=55.731339, lon.=26.231525, Alt.=157.021606m. Speed=0.108000m/h.</desc>
<speed>0.030000</speed>
</trkpt>
<trkpt lat="55.731339" lon="26.231525">
<ele>156.822388</ele>
<time>2010-07-17T11:10:36Z</time>
<desc>lat.=55.731339, lon.=26.231525, Alt.=156.822388m. Speed=0.216000m/h.</desc>
<speed>0.060000</speed>
</trkpt>
<trkpt lat="55.731339" lon="26.231524">
<ele>156.619263</ele>
<time>2010-07-17T11:10:37Z</time>
<desc>lat.=55.731339, lon.=26.231524, Alt.=156.619263m. Speed=0.216000m/h.</desc>
<speed>0.060000</speed>
</trkpt>
<trkpt lat="55.731339" lon="26.231524">
<ele>156.420044</ele>
<time>2010-07-17T11:10:38Z</time>
<desc>lat.=55.731339, lon.=26.231524, Alt.=156.420044m. Speed=0.216000m/h.</desc>
<speed>0.060000</speed>
</trkpt>
<trkpt lat="55.731339" lon="26.231524">
<ele>156.220825</ele>
<time>2010-07-17T11:10:39Z</time>
<desc>lat.=55.731339, lon.=26.231524, Alt.=156.220825m. Speed=0.216000m/h.</desc>
<speed>0.060000</speed>
</trkpt>
<trkpt lat="55.731339" lon="26.231522">
<ele>156.017700</ele>
<time>2010-07-17T11:10:40Z</time>
<desc>lat.=55.731339, lon.=26.231522, Alt.=156.017700m. Speed=0.252000m/h.</desc>
<speed>0.070000</speed>
</trkpt>
<trkpt lat="55.731339" lon="26.231522">
<ele>155.822388</ele>
<time>2010-07-17T11:10:41Z</time>
<desc>lat.=55.731339, lon.=26.231522, Alt.=155.822388m. Speed=0.252000m/h.</desc>
<speed>0.070000</speed>
</trkpt>
<trkpt lat="55.731339" lon="26.231520">
<ele>155.607544</ele>
<time>2010-07-17T11:10:42Z</time>
<desc>lat.=55.731339, lon.=26.231520, Alt.=155.607544m. Speed=0.180000m/h.</desc>
<speed>0.050000</speed>
</trkpt>
<trkpt lat="55.731339" lon="26.231520">
<ele>155.388794</ele>
<time>2010-07-17T11:10:43Z</time>
<desc>lat.=55.731339, lon.=26.231520, Alt.=155.388794m. Speed=0.180000m/h.</desc>
<speed>0.050000</speed>
</trkpt>
<trkpt lat="55.731339" lon="26.231518">
<ele>155.138794</ele>
<time>2010-07-17T11:10:44Z</time>
<desc>lat.=55.731339, lon.=26.231518, Alt.=155.138794m. Speed=0.216000m/h.</desc>
<speed>0.060000</speed>
</trkpt>
<trkpt lat="55.731339" lon="26.231518">
<ele>154.888794</ele>
<time>2010-07-17T11:10:45Z</time>
<desc>lat.=55.731339, lon.=26.231518, Alt.=154.888794m. Speed=0.144000m/h.</desc>
<speed>0.040000</speed>
</trkpt>
<trkpt lat="55.731339" lon="26.231516">
<ele>154.615356</ele>
<time>2010-07-17T11:10:46Z</time>
<desc>lat.=55.731339, lon.=26.231516, Alt.=154.615356m. Speed=0.180000m/h.</desc>
<speed>0.050000</speed>
</trkpt>
<trkpt lat="55.731339" lon="26.231516">
<ele>154.330200</ele>
<time>2010-07-17T11:10:47Z</time>
<desc>lat.=55.731339, lon.=26.231516, Alt.=154.330200m. Speed=0.252000m/h.</desc>
<speed>0.070000</speed>
</trkpt>
<trkpt lat="55.731339" lon="26.231514">
<ele>154.037231</ele>
<time>2010-07-17T11:10:48Z</time>
<desc>lat.=55.731339, lon.=26.231514, Alt.=154.037231m. Speed=0.324000m/h.</desc>
<speed>0.090000</speed>
</trkpt>
<trkpt lat="55.731339" lon="26.231512">
<ele>153.736450</ele>
<time>2010-07-17T11:10:49Z</time>
<desc>lat.=55.731339, lon.=26.231512, Alt.=153.736450m. Speed=0.360000m/h.</desc>
<speed>0.100000</speed>
</trkpt>
<trkpt lat="55.731339" lon="26.231510">
<ele>153.423950</ele>
<time>2010-07-17T11:10:50Z</time>
<desc>lat.=55.731339, lon.=26.231510, Alt.=153.423950m. Speed=0.360000m/h.</desc>
<speed>0.100000</speed>
</trkpt>
<trkpt lat="55.731339" lon="26.231508">
<ele>153.111450</ele>
<time>2010-07-17T11:10:51Z</time>
<desc>lat.=55.731339, lon.=26.231508, Alt.=153.111450m. Speed=0.468000m/h.</desc>
<speed>0.130000</speed>
</trkpt>
<trkpt lat="55.731339" lon="26.231506">
<ele>152.798950</ele>
<time>2010-07-17T11:10:52Z</time>
<desc>lat.=55.731339, lon.=26.231506, Alt.=152.798950m. Speed=0.540000m/h.</desc>
<speed>0.150000</speed>
</trkpt>
<trkpt lat="55.731339" lon="26.231504">
<ele>152.482544</ele>
<time>2010-07-17T11:10:53Z</time>
<desc>lat.=55.731339, lon.=26.231504, Alt.=152.482544m. Speed=0.504000m/h.</desc>
<speed>0.140000</speed>
</trkpt>
<trkpt lat="55.731339" lon="26.231503">
<ele>152.166138</ele>
<time>2010-07-17T11:10:54Z</time>
<desc>lat.=55.731339, lon.=26.231503, Alt.=152.166138m. Speed=0.576000m/h.</desc>
<speed>0.160000</speed>
</trkpt>
<trkpt lat="55.731339" lon="26.231499">
<ele>151.861450</ele>
<time>2010-07-17T11:10:55Z</time>
<desc>lat.=55.731339, lon.=26.231499, Alt.=151.861450m. Speed=0.612000m/h.</desc>
<speed>0.170000</speed>
</trkpt>
<trkpt lat="55.731339" lon="26.231497">
<ele>151.552856</ele>
<time>2010-07-17T11:10:56Z</time>
<desc>lat.=55.731339, lon.=26.231497, Alt.=151.552856m. Speed=0.684000m/h.</desc>
<speed>0.190000</speed>
</trkpt>
<trkpt lat="55.731335" lon="26.231493">
<ele>151.252075</ele>
<time>2010-07-17T11:10:57Z</time>
<desc>lat.=55.731335, lon.=26.231493, Alt.=151.252075m. Speed=0.792000m/h.</desc>
<speed>0.220000</speed>
</trkpt>
<trkpt lat="55.731335" lon="26.231491">
<ele>150.908325</ele>
<time>2010-07-17T11:10:58Z</time>
<desc>lat.=55.731335, lon.=26.231491, Alt.=150.908325m. Speed=0.900000m/h.</desc>
<speed>0.250000</speed>
</trkpt>
<trkpt lat="55.731331" lon="26.231487">
<ele>150.552856</ele>
<time>2010-07-17T11:10:59Z</time>
<desc>lat.=55.731331, lon.=26.231487, Alt.=150.552856m. Speed=0.972000m/h.</desc>
<speed>0.270000</speed>
</trkpt>
<trkpt lat="55.731331" lon="26.231485">
<ele>150.185669</ele>
<time>2010-07-17T11:11:00Z</time>
<desc>lat.=55.731331, lon.=26.231485, Alt.=150.185669m. Speed=1.044000m/h.</desc>
<speed>0.290000</speed>
</trkpt>
<trkpt lat="55.731327" lon="26.231482">
<ele>149.802856</ele>
<time>2010-07-17T11:11:01Z</time>
<desc>lat.=55.731327, lon.=26.231482, Alt.=149.802856m. Speed=0.324000m/h.</desc>
<speed>0.090000</speed>
</trkpt>
<trkpt lat="55.731327" lon="26.231482">
<ele>149.416138</ele>
<time>2010-07-17T11:11:02Z</time>
<desc>lat.=55.731327, lon.=26.231482, Alt.=149.416138m. Speed=0.360000m/h.</desc>
<speed>0.100000</speed>
</trkpt>
<trkpt lat="55.731327" lon="26.231482">
<ele>149.009888</ele>
<time>2010-07-17T11:11:03Z</time>
<desc>lat.=55.731327, lon.=26.231482, Alt.=149.009888m. Speed=0.360000m/h.</desc>
<speed>0.100000</speed>
</trkpt>
<trkpt lat="55.731327" lon="26.231482">
<ele>148.619263</ele>
<time>2010-07-17T11:11:04Z</time>
<desc>lat.=55.731327, lon.=26.231482, Alt.=148.619263m. Speed=0.360000m/h.</desc>
<speed>0.100000</speed>
</trkpt>
<trkpt lat="55.731327" lon="26.231482">
<ele>148.228638</ele>
<time>2010-07-17T11:11:05Z</time>
<desc>lat.=55.731327, lon.=26.231482, Alt.=148.228638m. Speed=0.324000m/h.</desc>
<speed>0.090000</speed>
</trkpt>
<trkpt lat="55.731323" lon="26.231482">
<ele>147.845825</ele>
<time>2010-07-17T11:11:06Z</time>
<desc>lat.=55.731323, lon.=26.231482, Alt.=147.845825m. Speed=0.252000m/h.</desc>
<speed>0.070000</speed>
</trkpt>
<trkpt lat="55.731323" lon="26.231482">
<ele>147.466919</ele>
<time>2010-07-17T11:11:07Z</time>
<desc>lat.=55.731323, lon.=26.231482, Alt.=147.466919m. Speed=0.180000m/h.</desc>
<speed>0.050000</speed>
</trkpt>
<trkpt lat="55.731323" lon="26.231482">
<ele>147.088013</ele>
<time>2010-07-17T11:11:08Z</time>
<desc>lat.=55.731323, lon.=26.231482, Alt.=147.088013m. Speed=0.252000m/h.</desc>
<speed>0.070000</speed>
</trkpt>
<trkpt lat="55.731323" lon="26.231482">
<ele>146.713013</ele>
<time>2010-07-17T11:11:09Z</time>
<desc>lat.=55.731323, lon.=26.231482, Alt.=146.713013m. Speed=0.252000m/h.</desc>
<speed>0.070000</speed>
</trkpt>
<trkpt lat="55.731323" lon="26.231480">
<ele>146.353638</ele>
<time>2010-07-17T11:11:10Z</time>
<desc>lat.=55.731323, lon.=26.231480, Alt.=146.353638m. Speed=0.252000m/h.</desc>
<speed>0.070000</speed>
</trkpt>
<trkpt lat="55.731323" lon="26.231480">
<ele>145.982544</ele>
<time>2010-07-17T11:11:11Z</time>
<desc>lat.=55.731323, lon.=26.231480, Alt.=145.982544m. Speed=0.288000m/h.</desc>
<speed>0.080000</speed>
</trkpt>
<trkpt lat="55.731323" lon="26.231478">
<ele>145.623169</ele>
<time>2010-07-17T11:11:12Z</time>
<desc>lat.=55.731323, lon.=26.231478, Alt.=145.623169m. Speed=0.324000m/h.</desc>
<speed>0.090000</speed>
</trkpt>
<trkpt lat="55.731319" lon="26.231478">
<ele>145.271606</ele>
<time>2010-07-17T11:11:13Z</time>
<desc>lat.=55.731319, lon.=26.231478, Alt.=145.271606m. Speed=0.540000m/h.</desc>
<speed>0.150000</speed>
</trkpt>
<trkpt lat="55.731319" lon="26.231476">
<ele>144.935669</ele>
<time>2010-07-17T11:11:14Z</time>
<desc>lat.=55.731319, lon.=26.231476, Alt.=144.935669m. Speed=0.540000m/h.</desc>
<speed>0.150000</speed>
</trkpt>
<trkpt lat="55.731319" lon="26.231474">
<ele>144.603638</ele>
<time>2010-07-17T11:11:15Z</time>
<desc>lat.=55.731319, lon.=26.231474, Alt.=144.603638m. Speed=0.576000m/h.</desc>
<speed>0.160000</speed>
</trkpt>
<trkpt lat="55.731319" lon="26.231474">
<ele>144.263794</ele>
<time>2010-07-17T11:11:16Z</time>
<desc>lat.=55.731319, lon.=26.231474, Alt.=144.263794m. Speed=0.468000m/h.</desc>
<speed>0.130000</speed>
</trkpt>
<trkpt lat="55.731316" lon="26.231472">
<ele>143.920044</ele>
<time>2010-07-17T11:11:17Z</time>
<desc>lat.=55.731316, lon.=26.231472, Alt.=143.920044m. Speed=0.432000m/h.</desc>
<speed>0.120000</speed>
</trkpt>
<trkpt lat="55.731316" lon="26.231470">
<ele>143.576294</ele>
<time>2010-07-17T11:11:18Z</time>
<desc>lat.=55.731316, lon.=26.231470, Alt.=143.576294m. Speed=0.468000m/h.</desc>
<speed>0.130000</speed>
</trkpt>
<trkpt lat="55.731316" lon="26.231468">
<ele>143.224731</ele>
<time>2010-07-17T11:11:19Z</time>
<desc>lat.=55.731316, lon.=26.231468, Alt.=143.224731m. Speed=0.432000m/h.</desc>
<speed>0.120000</speed>
</trkpt>
<trkpt lat="55.731316" lon="26.231466">
<ele>142.877075</ele>
<time>2010-07-17T11:11:20Z</time>
<desc>lat.=55.731316, lon.=26.231466, Alt.=142.877075m. Speed=0.432000m/h.</desc>
<speed>0.120000</speed>
</trkpt>
<trkpt lat="55.731316" lon="26.231466">
<ele>142.525513</ele>
<time>2010-07-17T11:11:21Z</time>
<desc>lat.=55.731316, lon.=26.231466, Alt.=142.525513m. Speed=1.152000m/h.</desc>
<speed>0.320000</speed>
</trkpt>
<trkpt lat="55.731312" lon="26.231468">
<ele>141.435669</ele>
<time>2010-07-17T11:11:22Z</time>
<desc>lat.=55.731312, lon.=26.231468, Alt.=141.435669m. Speed=1.332000m/h.</desc>
<speed>0.370000</speed>
</trkpt>
<trkpt lat="55.731312" lon="26.231468">
<ele>140.408325</ele>
<time>2010-07-17T11:11:23Z</time>
<desc>lat.=55.731312, lon.=26.231468, Alt.=140.408325m. Speed=1.224000m/h.</desc>
<speed>0.340000</speed>
</trkpt>
<trkpt lat="55.731308" lon="26.231470">
<ele>139.505981</ele>
<time>2010-07-17T11:11:24Z</time>
<desc>lat.=55.731308, lon.=26.231470, Alt.=139.505981m. Speed=0.900000m/h.</desc>
<speed>0.250000</speed>
</trkpt>
<trkpt lat="55.731308" lon="26.231476">
<ele>138.568481</ele>
<time>2010-07-17T11:11:25Z</time>
<desc>lat.=55.731308, lon.=26.231476, Alt.=138.568481m. Speed=0.936000m/h.</desc>
<speed>0.260000</speed>
</trkpt>
<trkpt lat="55.731308" lon="26.231476">
<ele>137.615356</ele>
<time>2010-07-17T11:11:26Z</time>
<desc>lat.=55.731308, lon.=26.231476, Alt.=137.615356m. Speed=0.864000m/h.</desc>
<speed>0.240000</speed>
</trkpt>
<trkpt lat="55.731312" lon="26.231485">
<ele>137.771606</ele>
<time>2010-07-17T11:11:27Z</time>
<desc>lat.=55.731312, lon.=26.231485, Alt.=137.771606m. Speed=0.468000m/h.</desc>
<speed>0.130000</speed>
</trkpt>
<trkpt lat="55.731308" lon="26.231485">
<ele>137.545044</ele>
<time>2010-07-17T11:11:28Z</time>
<desc>lat.=55.731308, lon.=26.231485, Alt.=137.545044m. Speed=0.432000m/h.</desc>
<speed>0.120000</speed>
</trkpt>
<trkpt lat="55.731308" lon="26.231487">
<ele>137.326294</ele>
<time>2010-07-17T11:11:29Z</time>
<desc>lat.=55.731308, lon.=26.231487, Alt.=137.326294m. Speed=0.432000m/h.</desc>
<speed>0.120000</speed>
</trkpt>
<trkpt lat="55.731308" lon="26.231487">
<ele>137.103638</ele>
<time>2010-07-17T11:11:30Z</time>
<desc>lat.=55.731308, lon.=26.231487, Alt.=137.103638m. Speed=0.432000m/h.</desc>
<speed>0.120000</speed>
</trkpt>
<trkpt lat="55.731304" lon="26.231489">
<ele>136.884888</ele>
<time>2010-07-17T11:11:31Z</time>
<desc>lat.=55.731304, lon.=26.231489, Alt.=136.884888m. Speed=0.432000m/h.</desc>
<speed>0.120000</speed>
</trkpt>
<trkpt lat="55.731304" lon="26.231489">
<ele>136.662231</ele>
<time>2010-07-17T11:11:32Z</time>
<desc>lat.=55.731304, lon.=26.231489, Alt.=136.662231m. Speed=0.504000m/h.</desc>
<speed>0.140000</speed>
</trkpt>
<trkpt lat="55.731304" lon="26.231491">
<ele>136.443481</ele>
<time>2010-07-17T11:11:33Z</time>
<desc>lat.=55.731304, lon.=26.231491, Alt.=136.443481m. Speed=0.396000m/h.</desc>
<speed>0.110000</speed>
</trkpt>
<trkpt lat="55.731304" lon="26.231491">
<ele>136.232544</ele>
<time>2010-07-17T11:11:34Z</time>
<desc>lat.=55.731304, lon.=26.231491, Alt.=136.232544m. Speed=0.396000m/h.</desc>
<speed>0.110000</speed>
</trkpt>
<trkpt lat="55.731300" lon="26.231491">
<ele>136.021606</ele>
<time>2010-07-17T11:11:35Z</time>
<desc>lat.=55.731300, lon.=26.231491, Alt.=136.021606m. Speed=0.576000m/h.</desc>
<speed>0.160000</speed>
</trkpt>
<trkpt lat="55.731300" lon="26.231493">
<ele>135.818481</ele>
<time>2010-07-17T11:11:36Z</time>
<desc>lat.=55.731300, lon.=26.231493, Alt.=135.818481m. Speed=0.576000m/h.</desc>
<speed>0.160000</speed>
</trkpt>
<trkpt lat="55.731300" lon="26.231495">
<ele>135.623169</ele>
<time>2010-07-17T11:11:37Z</time>
<desc>lat.=55.731300, lon.=26.231495, Alt.=135.623169m. Speed=0.612000m/h.</desc>
<speed>0.170000</speed>
</trkpt>
<trkpt lat="55.731297" lon="26.231495">
<ele>135.420044</ele>
<time>2010-07-17T11:11:38Z</time>
<desc>lat.=55.731297, lon.=26.231495, Alt.=135.420044m. Speed=0.648000m/h.</desc>
<speed>0.180000</speed>
</trkpt>
<trkpt lat="55.731297" lon="26.231495">
<ele>135.216919</ele>
<time>2010-07-17T11:11:39Z</time>
<desc>lat.=55.731297, lon.=26.231495, Alt.=135.216919m. Speed=0.684000m/h.</desc>
<speed>0.190000</speed>
</trkpt>
<trkpt lat="55.731293" lon="26.231495">
<ele>135.009888</ele>
<time>2010-07-17T11:11:40Z</time>
<desc>lat.=55.731293, lon.=26.231495, Alt.=135.009888m. Speed=0.396000m/h.</desc>
<speed>0.110000</speed>
</trkpt>
<trkpt lat="55.731293" lon="26.231495">
<ele>134.818481</ele>
<time>2010-07-17T11:11:41Z</time>
<desc>lat.=55.731293, lon.=26.231495, Alt.=134.818481m. Speed=0.504000m/h.</desc>
<speed>0.140000</speed>
</trkpt>
<trkpt lat="55.731293" lon="26.231495">
<ele>134.627075</ele>
<time>2010-07-17T11:11:42Z</time>
<desc>lat.=55.731293, lon.=26.231495, Alt.=134.627075m. Speed=0.576000m/h.</desc>
<speed>0.160000</speed>
</trkpt>
<trkpt lat="55.731289" lon="26.231493">
<ele>134.439575</ele>
<time>2010-07-17T11:11:43Z</time>
<desc>lat.=55.731289, lon.=26.231493, Alt.=134.439575m. Speed=0.720000m/h.</desc>
<speed>0.200000</speed>
</trkpt>
<trkpt lat="55.731289" lon="26.231493">
<ele>134.248169</ele>
<time>2010-07-17T11:11:44Z</time>
<desc>lat.=55.731289, lon.=26.231493, Alt.=134.248169m. Speed=0.612000m/h.</desc>
<speed>0.170000</speed>
</trkpt>
<trkpt lat="55.731289" lon="26.231493">
<ele>134.060669</ele>
<time>2010-07-17T11:11:45Z</time>
<desc>lat.=55.731289, lon.=26.231493, Alt.=134.060669m. Speed=0.504000m/h.</desc>
<speed>0.140000</speed>
</trkpt>
<trkpt lat="55.731285" lon="26.231491">
<ele>133.873169</ele>
<time>2010-07-17T11:11:46Z</time>
<desc>lat.=55.731285, lon.=26.231491, Alt.=133.873169m. Speed=0.576000m/h.</desc>
<speed>0.160000</speed>
</trkpt>
<trkpt lat="55.731285" lon="26.231489">
<ele>133.693481</ele>
<time>2010-07-17T11:11:47Z</time>
<desc>lat.=55.731285, lon.=26.231489, Alt.=133.693481m. Speed=0.684000m/h.</desc>
<speed>0.190000</speed>
</trkpt>
<trkpt lat="55.731285" lon="26.231487">
<ele>133.517700</ele>
<time>2010-07-17T11:11:48Z</time>
<desc>lat.=55.731285, lon.=26.231487, Alt.=133.517700m. Speed=0.684000m/h.</desc>
<speed>0.190000</speed>
</trkpt>
<trkpt lat="55.731281" lon="26.231485">
<ele>133.357544</ele>
<time>2010-07-17T11:11:49Z</time>
<desc>lat.=55.731281, lon.=26.231485, Alt.=133.357544m. Speed=0.648000m/h.</desc>
<speed>0.180000</speed>
</trkpt>
<trkpt lat="55.731281" lon="26.231485">
<ele>133.197388</ele>
<time>2010-07-17T11:11:50Z</time>
<desc>lat.=55.731281, lon.=26.231485, Alt.=133.197388m. Speed=0.648000m/h.</desc>
<speed>0.180000</speed>
</trkpt>
<trkpt lat="55.731277" lon="26.231483">
<ele>133.048950</ele>
<time>2010-07-17T11:11:51Z</time>
<desc>lat.=55.731277, lon.=26.231483, Alt.=133.048950m. Speed=0.828000m/h.</desc>
<speed>0.230000</speed>
</trkpt>
<trkpt lat="55.731277" lon="26.231480">
<ele>132.896606</ele>
<time>2010-07-17T11:11:52Z</time>
<desc>lat.=55.731277, lon.=26.231480, Alt.=132.896606m. Speed=0.900000m/h.</desc>
<speed>0.250000</speed>
</trkpt>
<trkpt lat="55.731277" lon="26.231478">
<ele>132.744263</ele>
<time>2010-07-17T11:11:53Z</time>
<desc>lat.=55.731277, lon.=26.231478, Alt.=132.744263m. Speed=0.936000m/h.</desc>
<speed>0.260000</speed>
</trkpt>
<trkpt lat="55.731274" lon="26.231474">
<ele>132.603638</ele>
<time>2010-07-17T11:11:54Z</time>
<desc>lat.=55.731274, lon.=26.231474, Alt.=132.603638m. Speed=0.828000m/h.</desc>
<speed>0.230000</speed>
</trkpt>
<trkpt lat="55.731274" lon="26.231472">
<ele>132.470825</ele>
<time>2010-07-17T11:11:55Z</time>
<desc>lat.=55.731274, lon.=26.231472, Alt.=132.470825m. Speed=0.792000m/h.</desc>
<speed>0.220000</speed>
</trkpt>
<trkpt lat="55.731270" lon="26.231470">
<ele>132.345825</ele>
<time>2010-07-17T11:11:56Z</time>
<desc>lat.=55.731270, lon.=26.231470, Alt.=132.345825m. Speed=0.576000m/h.</desc>
<speed>0.160000</speed>
</trkpt>
<trkpt lat="55.731270" lon="26.231468">
<ele>132.228638</ele>
<time>2010-07-17T11:11:57Z</time>
<desc>lat.=55.731270, lon.=26.231468, Alt.=132.228638m. Speed=0.432000m/h.</desc>
<speed>0.120000</speed>
</trkpt>
<trkpt lat="55.731270" lon="26.231468">
<ele>132.119263</ele>
<time>2010-07-17T11:11:58Z</time>
<desc>lat.=55.731270, lon.=26.231468, Alt.=132.119263m. Speed=0.324000m/h.</desc>
<speed>0.090000</speed>
</trkpt>
<trkpt lat="55.731270" lon="26.231468">
<ele>132.005981</ele>
<time>2010-07-17T11:11:59Z</time>
<desc>lat.=55.731270, lon.=26.231468, Alt.=132.005981m. Speed=0.216000m/h.</desc>
<speed>0.060000</speed>
</trkpt>
<trkpt lat="55.731266" lon="26.231468">
<ele>131.900513</ele>
<time>2010-07-17T11:12:00Z</time>
<desc>lat.=55.731266, lon.=26.231468, Alt.=131.900513m. Speed=0.108000m/h.</desc>
<speed>0.030000</speed>
</trkpt>
<trkpt lat="55.731266" lon="26.231468">
<ele>131.791138</ele>
<time>2010-07-17T11:12:01Z</time>
<desc>lat.=55.731266, lon.=26.231468, Alt.=131.791138m. Speed=0.072000m/h.</desc>
<speed>0.020000</speed>
</trkpt>
<trkpt lat="55.731266" lon="26.231468">
<ele>131.685669</ele>
<time>2010-07-17T11:12:02Z</time>
<desc>lat.=55.731266, lon.=26.231468, Alt.=131.685669m. Speed=0.108000m/h.</desc>
<speed>0.030000</speed>
</trkpt>
<trkpt lat="55.731266" lon="26.231468">
<ele>131.576294</ele>
<time>2010-07-17T11:12:03Z</time>
<desc>lat.=55.731266, lon.=26.231468, Alt.=131.576294m. Speed=0.180000m/h.</desc>
<speed>0.050000</speed>
</trkpt>
<trkpt lat="55.731266" lon="26.231468">
<ele>131.470825</ele>
<time>2010-07-17T11:12:04Z</time>
<desc>lat.=55.731266, lon.=26.231468, Alt.=131.470825m. Speed=0.144000m/h.</desc>
<speed>0.040000</speed>
</trkpt>
<trkpt lat="55.731266" lon="26.231468">
<ele>131.361450</ele>
<time>2010-07-17T11:12:05Z</time>
<desc>lat.=55.731266, lon.=26.231468, Alt.=131.361450m. Speed=0.072000m/h.</desc>
<speed>0.020000</speed>
</trkpt>
<trkpt lat="55.731266" lon="26.231470">
<ele>131.255981</ele>
<time>2010-07-17T11:12:06Z</time>
<desc>lat.=55.731266, lon.=26.231470, Alt.=131.255981m. Speed=0.072000m/h.</desc>
<speed>0.020000</speed>
</trkpt>
<trkpt lat="55.731266" lon="26.231470">
<ele>131.150513</ele>
<time>2010-07-17T11:12:07Z</time>
<desc>lat.=55.731266, lon.=26.231470, Alt.=131.150513m. Speed=0.072000m/h.</desc>
<speed>0.020000</speed>
</trkpt>
<trkpt lat="55.731266" lon="26.231470">
<ele>131.041138</ele>
<time>2010-07-17T11:12:08Z</time>
<desc>lat.=55.731266, lon.=26.231470, Alt.=131.041138m. Speed=0.000000m/h.</desc>
<speed>0.000000</speed>
</trkpt>
<trkpt lat="55.731266" lon="26.231470">
<ele>130.931763</ele>
<time>2010-07-17T11:12:09Z</time>
<desc>lat.=55.731266, lon.=26.231470, Alt.=130.931763m. Speed=0.108000m/h.</desc>
<speed>0.030000</speed>
</trkpt>
<trkpt lat="55.731266" lon="26.231468">
<ele>130.818481</ele>
<time>2010-07-17T11:12:10Z</time>
<desc>lat.=55.731266, lon.=26.231468, Alt.=130.818481m. Speed=0.288000m/h.</desc>
<speed>0.080000</speed>
</trkpt>
<trkpt lat="55.731266" lon="26.231468">
<ele>130.697388</ele>
<time>2010-07-17T11:12:11Z</time>
<desc>lat.=55.731266, lon.=26.231468, Alt.=130.697388m. Speed=0.216000m/h.</desc>
<speed>0.060000</speed>
</trkpt>
<trkpt lat="55.731266" lon="26.231466">
<ele>130.576294</ele>
<time>2010-07-17T11:12:12Z</time>
<desc>lat.=55.731266, lon.=26.231466, Alt.=130.576294m. Speed=0.180000m/h.</desc>
<speed>0.050000</speed>
</trkpt>
<trkpt lat="55.731266" lon="26.231466">
<ele>130.447388</ele>
<time>2010-07-17T11:12:13Z</time>
<desc>lat.=55.731266, lon.=26.231466, Alt.=130.447388m. Speed=0.036000m/h.</desc>
<speed>0.010000</speed>
</trkpt>
<trkpt lat="55.731266" lon="26.231466">
<ele>130.330200</ele>
<time>2010-07-17T11:12:14Z</time>
<desc>lat.=55.731266, lon.=26.231466, Alt.=130.330200m. Speed=0.072000m/h.</desc>
<speed>0.020000</speed>
</trkpt>
<trkpt lat="55.731266" lon="26.231466">
<ele>130.201294</ele>
<time>2010-07-17T11:12:15Z</time>
<desc>lat.=55.731266, lon.=26.231466, Alt.=130.201294m. Speed=0.072000m/h.</desc>
<speed>0.020000</speed>
</trkpt>
<trkpt lat="55.731270" lon="26.231466">
<ele>130.068481</ele>
<time>2010-07-17T11:12:16Z</time>
<desc>lat.=55.731270, lon.=26.231466, Alt.=130.068481m. Speed=0.108000m/h.</desc>
<speed>0.030000</speed>
</trkpt>
<trkpt lat="55.731270" lon="26.231466">
<ele>129.935669</ele>
<time>2010-07-17T11:12:17Z</time>
<desc>lat.=55.731270, lon.=26.231466, Alt.=129.935669m. Speed=0.072000m/h.</desc>
<speed>0.020000</speed>
</trkpt>
<trkpt lat="55.731270" lon="26.231466">
<ele>129.802856</ele>
<time>2010-07-17T11:12:18Z</time>
<desc>lat.=55.731270, lon.=26.231466, Alt.=129.802856m. Speed=0.072000m/h.</desc>
<speed>0.020000</speed>
</trkpt>
<trkpt lat="55.731270" lon="26.231466">
<ele>129.673950</ele>
<time>2010-07-17T11:12:19Z</time>
<desc>lat.=55.731270, lon.=26.231466, Alt.=129.673950m. Speed=0.072000m/h.</desc>
<speed>0.020000</speed>
</trkpt>
<trkpt lat="55.731270" lon="26.231466">
<ele>129.545044</ele>
<time>2010-07-17T11:12:20Z</time>
<desc>lat.=55.731270, lon.=26.231466, Alt.=129.545044m. Speed=0.108000m/h.</desc>
<speed>0.030000</speed>
</trkpt>
<trkpt lat="55.731270" lon="26.231466">
<ele>129.427856</ele>
<time>2010-07-17T11:12:21Z</time>
<desc>lat.=55.731270, lon.=26.231466, Alt.=129.427856m. Speed=0.072000m/h.</desc>
<speed>0.020000</speed>
</trkpt>
<trkpt lat="55.731270" lon="26.231466">
<ele>129.310669</ele>
<time>2010-07-17T11:12:22Z</time>
<desc>lat.=55.731270, lon.=26.231466, Alt.=129.310669m. Speed=0.036000m/h.</desc>
<speed>0.010000</speed>
</trkpt>
<trkpt lat="55.731270" lon="26.231466">
<ele>129.205200</ele>
<time>2010-07-17T11:12:23Z</time>
<desc>lat.=55.731270, lon.=26.231466, Alt.=129.205200m. Speed=0.036000m/h.</desc>
<speed>0.010000</speed>
</trkpt>
<trkpt lat="55.731270" lon="26.231466">
<ele>129.095825</ele>
<time>2010-07-17T11:12:24Z</time>
<desc>lat.=55.731270, lon.=26.231466, Alt.=129.095825m. Speed=0.036000m/h.</desc>
<speed>0.010000</speed>
</trkpt>
<trkpt lat="55.731270" lon="26.231464">
<ele>129.002075</ele>
<time>2010-07-17T11:12:25Z</time>
<desc>lat.=55.731270, lon.=26.231464, Alt.=129.002075m. Speed=0.072000m/h.</desc>
<speed>0.020000</speed>
</trkpt>
<trkpt lat="55.731270" lon="26.231464">
<ele>128.927856</ele>
<time>2010-07-17T11:12:26Z</time>
<desc>lat.=55.731270, lon.=26.231464, Alt.=128.927856m. Speed=0.108000m/h.</desc>
<speed>0.030000</speed>
</trkpt>
<trkpt lat="55.731270" lon="26.231464">
<ele>128.869263</ele>
<time>2010-07-17T11:12:27Z</time>
<desc>lat.=55.731270, lon.=26.231464, Alt.=128.869263m. Speed=0.036000m/h.</desc>
<speed>0.010000</speed>
</trkpt>
<trkpt lat="55.731270" lon="26.231464">
<ele>128.822388</ele>
<time>2010-07-17T11:12:28Z</time>
<desc>lat.=55.731270, lon.=26.231464, Alt.=128.822388m. Speed=0.036000m/h.</desc>
<speed>0.010000</speed>
</trkpt>
<trkpt lat="55.731270" lon="26.231464">
<ele>128.783325</ele>
<time>2010-07-17T11:12:29Z</time>
<desc>lat.=55.731270, lon.=26.231464, Alt.=128.783325m. Speed=0.036000m/h.</desc>
<speed>0.010000</speed>
</trkpt>
<trkpt lat="55.731270" lon="26.231464">
<ele>128.775513</ele>
<time>2010-07-17T11:12:30Z</time>
<desc>lat.=55.731270, lon.=26.231464, Alt.=128.775513m. Speed=0.000000m/h.</desc>
<speed>0.000000</speed>
</trkpt>
<trkpt lat="55.731270" lon="26.231464">
<ele>128.779419</ele>
<time>2010-07-17T11:12:31Z</time>
<desc>lat.=55.731270, lon.=26.231464, Alt.=128.779419m. Speed=0.036000m/h.</desc>
<speed>0.010000</speed>
</trkpt>
<trkpt lat="55.731270" lon="26.231464">
<ele>128.783325</ele>
<time>2010-07-17T11:12:32Z</time>
<desc>lat.=55.731270, lon.=26.231464, Alt.=128.783325m. Speed=0.000000m/h.</desc>
<speed>0.000000</speed>
</trkpt>
<trkpt lat="55.731270" lon="26.231464">
<ele>128.787231</ele>
<time>2010-07-17T11:12:33Z</time>
<desc>lat.=55.731270, lon.=26.231464, Alt.=128.787231m. Speed=0.036000m/h.</desc>
<speed>0.010000</speed>
</trkpt>
<trkpt lat="55.731270" lon="26.231464">
<ele>128.798950</ele>
<time>2010-07-17T11:12:34Z</time>
<desc>lat.=55.731270, lon.=26.231464, Alt.=128.798950m. Speed=0.036000m/h.</desc>
<speed>0.010000</speed>
</trkpt>
<trkpt lat="55.731270" lon="26.231464">
<ele>128.818481</ele>
<time>2010-07-17T11:12:35Z</time>
<desc>lat.=55.731270, lon.=26.231464, Alt.=128.818481m. Speed=0.036000m/h.</desc>
<speed>0.010000</speed>
</trkpt>
<trkpt lat="55.731270" lon="26.231464">
<ele>128.826294</ele>
<time>2010-07-17T11:12:36Z</time>
<desc>lat.=55.731270, lon.=26.231464, Alt.=128.826294m. Speed=0.000000m/h.</desc>
<speed>0.000000</speed>
</trkpt>
<trkpt lat="55.731270" lon="26.231464">
<ele>128.826294</ele>
<time>2010-07-17T11:12:37Z</time>
<desc>lat.=55.731270, lon.=26.231464, Alt.=128.826294m. Speed=0.000000m/h.</desc>
<speed>0.000000</speed>
</trkpt>
<trkpt lat="55.731270" lon="26.231464">
<ele>128.838013</ele>
<time>2010-07-17T11:12:38Z</time>
<desc>lat.=55.731270, lon.=26.231464, Alt.=128.838013m. Speed=0.036000m/h.</desc>
<speed>0.010000</speed>
</trkpt>
<trkpt lat="55.731270" lon="26.231464">
<ele>128.849731</ele>
<time>2010-07-17T11:12:39Z</time>
<desc>lat.=55.731270, lon.=26.231464, Alt.=128.849731m. Speed=0.036000m/h.</desc>
<speed>0.010000</speed>
</trkpt>
<trkpt lat="55.731270" lon="26.231464">
<ele>128.853638</ele>
<time>2010-07-17T11:12:40Z</time>
<desc>lat.=55.731270, lon.=26.231464, Alt.=128.853638m. Speed=0.000000m/h.</desc>
<speed>0.000000</speed>
</trkpt>
<trkpt lat="55.731270" lon="26.231464">
<ele>128.861450</ele>
<time>2010-07-17T11:12:41Z</time>
<desc>lat.=55.731270, lon.=26.231464, Alt.=128.861450m. Speed=0.000000m/h.</desc>
<speed>0.000000</speed>
</trkpt>
<trkpt lat="55.731270" lon="26.231464">
<ele>128.865356</ele>
<time>2010-07-17T11:12:42Z</time>
<desc>lat.=55.731270, lon.=26.231464, Alt.=128.865356m. Speed=0.000000m/h.</desc>
<speed>0.000000</speed>
</trkpt>
<trkpt lat="55.731270" lon="26.231464">
<ele>128.873169</ele>
<time>2010-07-17T11:12:43Z</time>
<desc>lat.=55.731270, lon.=26.231464, Alt.=128.873169m. Speed=0.000000m/h.</desc>
<speed>0.000000</speed>
</trkpt>
<trkpt lat="55.731270" lon="26.231464">
<ele>128.884888</ele>
<time>2010-07-17T11:12:44Z</time>
<desc>lat.=55.731270, lon.=26.231464, Alt.=128.884888m. Speed=0.036000m/h.</desc>
<speed>0.010000</speed>
</trkpt>
<trkpt lat="55.731270" lon="26.231464">
<ele>128.900513</ele>
<time>2010-07-17T11:12:45Z</time>
<desc>lat.=55.731270, lon.=26.231464, Alt.=128.900513m. Speed=0.108000m/h.</desc>
<speed>0.030000</speed>
</trkpt>
<trkpt lat="55.731270" lon="26.231464">
<ele>128.908325</ele>
<time>2010-07-17T11:12:46Z</time>
<desc>lat.=55.731270, lon.=26.231464, Alt.=128.908325m. Speed=0.108000m/h.</desc>
<speed>0.030000</speed>
</trkpt>
<trkpt lat="55.731270" lon="26.231464">
<ele>128.912231</ele>
<time>2010-07-17T11:12:47Z</time>
<desc>lat.=55.731270, lon.=26.231464, Alt.=128.912231m. Speed=0.036000m/h.</desc>
<speed>0.010000</speed>
</trkpt>
<trkpt lat="55.731270" lon="26.231464">
<ele>128.920044</ele>
<time>2010-07-17T11:12:48Z</time>
<desc>lat.=55.731270, lon.=26.231464, Alt.=128.920044m. Speed=0.072000m/h.</desc>
<speed>0.020000</speed>
</trkpt>
<trkpt lat="55.731270" lon="26.231464">
<ele>128.923950</ele>
<time>2010-07-17T11:12:49Z</time>
<desc>lat.=55.731270, lon.=26.231464, Alt.=128.923950m. Speed=0.072000m/h.</desc>
<speed>0.020000</speed>
</trkpt>
<trkpt lat="55.731270" lon="26.231464">
<ele>128.927856</ele>
<time>2010-07-17T11:12:50Z</time>
<desc>lat.=55.731270, lon.=26.231464, Alt.=128.927856m. Speed=0.000000m/h.</desc>
<speed>0.000000</speed>
</trkpt>
<trkpt lat="55.731270" lon="26.231464">
<ele>128.935669</ele>
<time>2010-07-17T11:12:51Z</time>
<desc>lat.=55.731270, lon.=26.231464, Alt.=128.935669m. Speed=0.072000m/h.</desc>
<speed>0.020000</speed>
</trkpt>
<trkpt lat="55.731270" lon="26.231464">
<ele>128.935669</ele>
<time>2010-07-17T11:12:52Z</time>
<desc>lat.=55.731270, lon.=26.231464, Alt.=128.935669m. Speed=0.036000m/h.</desc>
<speed>0.010000</speed>
</trkpt>
<trkpt lat="55.731270" lon="26.231464">
<ele>128.939575</ele>
<time>2010-07-17T11:12:53Z</time>
<desc>lat.=55.731270, lon.=26.231464, Alt.=128.939575m. Speed=0.036000m/h.</desc>
<speed>0.010000</speed>
</trkpt>
<trkpt lat="55.731270" lon="26.231464">
<ele>128.943481</ele>
<time>2010-07-17T11:12:54Z</time>
<desc>lat.=55.731270, lon.=26.231464, Alt.=128.943481m. Speed=0.000000m/h.</desc>
<speed>0.000000</speed>
</trkpt>
<trkpt lat="55.731270" lon="26.231464">
<ele>128.947388</ele>
<time>2010-07-17T11:12:55Z</time>
<desc>lat.=55.731270, lon.=26.231464, Alt.=128.947388m. Speed=0.000000m/h.</desc>
<speed>0.000000</speed>
</trkpt>
<trkpt lat="55.731270" lon="26.231464">
<ele>128.947388</ele>
<time>2010-07-17T11:12:56Z</time>
<desc>lat.=55.731270, lon.=26.231464, Alt.=128.947388m. Speed=0.072000m/h.</desc>
<speed>0.020000</speed>
</trkpt>
<trkpt lat="55.731270" lon="26.231464">
<ele>128.951294</ele>
<time>2010-07-17T11:12:57Z</time>
<desc>lat.=55.731270, lon.=26.231464, Alt.=128.951294m. Speed=0.072000m/h.</desc>
<speed>0.020000</speed>
</trkpt>
<trkpt lat="55.731270" lon="26.231464">
<ele>128.951294</ele>
<time>2010-07-17T11:12:58Z</time>
<desc>lat.=55.731270, lon.=26.231464, Alt.=128.951294m. Speed=0.036000m/h.</desc>
<speed>0.010000</speed>
</trkpt>
<trkpt lat="55.731270" lon="26.231464">
<ele>128.955200</ele>
<time>2010-07-17T11:12:59Z</time>
<desc>lat.=55.731270, lon.=26.231464, Alt.=128.955200m. Speed=0.108000m/h.</desc>
<speed>0.030000</speed>
</trkpt>
<trkpt lat="55.731270" lon="26.231464">
<ele>128.963013</ele>
<time>2010-07-17T11:13:00Z</time>
<desc>lat.=55.731270, lon.=26.231464, Alt.=128.963013m. Speed=0.000000m/h.</desc>
<speed>0.000000</speed>
</trkpt>
<trkpt lat="55.731270" lon="26.231464">
<ele>128.966919</ele>
<time>2010-07-17T11:13:01Z</time>
<desc>lat.=55.731270, lon.=26.231464, Alt.=128.966919m. Speed=0.036000m/h.</desc>
<speed>0.010000</speed>
</trkpt>
<trkpt lat="55.731270" lon="26.231464">
<ele>128.970825</ele>
<time>2010-07-17T11:13:02Z</time>
<desc>lat.=55.731270, lon.=26.231464, Alt.=128.970825m. Speed=0.036000m/h.</desc>
<speed>0.010000</speed>
</trkpt>
<trkpt lat="55.731270" lon="26.231464">
<ele>128.970825</ele>
<time>2010-07-17T11:13:03Z</time>
<desc>lat.=55.731270, lon.=26.231464, Alt.=128.970825m. Speed=0.072000m/h.</desc>
<speed>0.020000</speed>
</trkpt>
<trkpt lat="55.731274" lon="26.231464">
<ele>128.974731</ele>
<time>2010-07-17T11:13:04Z</time>
<desc>lat.=55.731274, lon.=26.231464, Alt.=128.974731m. Speed=0.000000m/h.</desc>
<speed>0.000000</speed>
</trkpt>
<trkpt lat="55.731270" lon="26.231464">
<ele>128.978638</ele>
<time>2010-07-17T11:13:05Z</time>
<desc>lat.=55.731270, lon.=26.231464, Alt.=128.978638m. Speed=0.072000m/h.</desc>
<speed>0.020000</speed>
</trkpt>
<trkpt lat="55.731270" lon="26.231464">
<ele>128.982544</ele>
<time>2010-07-17T11:13:06Z</time>
<desc>lat.=55.731270, lon.=26.231464, Alt.=128.982544m. Speed=0.072000m/h.</desc>
<speed>0.020000</speed>
</trkpt>
<trkpt lat="55.731270" lon="26.231464">
<ele>128.986450</ele>
<time>2010-07-17T11:13:07Z</time>
<desc>lat.=55.731270, lon.=26.231464, Alt.=128.986450m. Speed=0.000000m/h.</desc>
<speed>0.000000</speed>
</trkpt>
<trkpt lat="55.731270" lon="26.231464">
<ele>128.986450</ele>
<time>2010-07-17T11:13:08Z</time>
<desc>lat.=55.731270, lon.=26.231464, Alt.=128.986450m. Speed=0.000000m/h.</desc>
<speed>0.000000</speed>
</trkpt>
<trkpt lat="55.731270" lon="26.231464">
<ele>128.990356</ele>
<time>2010-07-17T11:13:09Z</time>
<desc>lat.=55.731270, lon.=26.231464, Alt.=128.990356m. Speed=0.000000m/h.</desc>
<speed>0.000000</speed>
</trkpt>
<trkpt lat="55.731270" lon="26.231464">
<ele>128.998169</ele>
<time>2010-07-17T11:13:10Z</time>
<desc>lat.=55.731270, lon.=26.231464, Alt.=128.998169m. Speed=0.000000m/h.</desc>
<speed>0.000000</speed>
</trkpt>
<trkpt lat="55.731270" lon="26.231464">
<ele>129.002075</ele>
<time>2010-07-17T11:13:11Z</time>
<desc>lat.=55.731270, lon.=26.231464, Alt.=129.002075m. Speed=0.036000m/h.</desc>
<speed>0.010000</speed>
</trkpt>
<trkpt lat="55.731270" lon="26.231464">
<ele>129.005981</ele>
<time>2010-07-17T11:13:12Z</time>
<desc>lat.=55.731270, lon.=26.231464, Alt.=129.005981m. Speed=0.000000m/h.</desc>
<speed>0.000000</speed>
</trkpt>
<trkpt lat="55.731270" lon="26.231464">
<ele>129.009888</ele>
<time>2010-07-17T11:13:13Z</time>
<desc>lat.=55.731270, lon.=26.231464, Alt.=129.009888m. Speed=0.000000m/h.</desc>
<speed>0.000000</speed>
</trkpt>
<trkpt lat="55.731270" lon="26.231464">
<ele>129.013794</ele>
<time>2010-07-17T11:13:14Z</time>
<desc>lat.=55.731270, lon.=26.231464, Alt.=129.013794m. Speed=0.036000m/h.</desc>
<speed>0.010000</speed>
</trkpt>
<trkpt lat="55.731270" lon="26.231464">
<ele>129.017700</ele>
<time>2010-07-17T11:13:15Z</time>
<desc>lat.=55.731270, lon.=26.231464, Alt.=129.017700m. Speed=0.072000m/h.</desc>
<speed>0.020000</speed>
</trkpt>
<trkpt lat="55.731270" lon="26.231464">
<ele>129.025513</ele>
<time>2010-07-17T11:13:16Z</time>
<desc>lat.=55.731270, lon.=26.231464, Alt.=129.025513m. Speed=0.144000m/h.</desc>
<speed>0.040000</speed>
</trkpt>
<trkpt lat="55.731270" lon="26.231464">
<ele>129.025513</ele>
<time>2010-07-17T11:13:17Z</time>
<desc>lat.=55.731270, lon.=26.231464, Alt.=129.025513m. Speed=0.180000m/h.</desc>
<speed>0.050000</speed>
</trkpt>
<trkpt lat="55.731270" lon="26.231462">
<ele>129.029419</ele>
<time>2010-07-17T11:13:18Z</time>
<desc>lat.=55.731270, lon.=26.231462, Alt.=129.029419m. Speed=0.216000m/h.</desc>
<speed>0.060000</speed>
</trkpt>
<trkpt lat="55.731270" lon="26.231462">
<ele>129.033325</ele>
<time>2010-07-17T11:13:19Z</time>
<desc>lat.=55.731270, lon.=26.231462, Alt.=129.033325m. Speed=0.252000m/h.</desc>
<speed>0.070000</speed>
</trkpt>
<trkpt lat="55.731270" lon="26.231461">
<ele>129.037231</ele>
<time>2010-07-17T11:13:20Z</time>
<desc>lat.=55.731270, lon.=26.231461, Alt.=129.037231m. Speed=0.288000m/h.</desc>
<speed>0.080000</speed>
</trkpt>
<trkpt lat="55.731270" lon="26.231461">
<ele>129.045044</ele>
<time>2010-07-17T11:13:21Z</time>
<desc>lat.=55.731270, lon.=26.231461, Alt.=129.045044m. Speed=0.288000m/h.</desc>
<speed>0.080000</speed>
</trkpt>
<trkpt lat="55.731270" lon="26.231459">
<ele>129.052856</ele>
<time>2010-07-17T11:13:22Z</time>
<desc>lat.=55.731270, lon.=26.231459, Alt.=129.052856m. Speed=0.360000m/h.</desc>
<speed>0.100000</speed>
</trkpt>
<trkpt lat="55.731270" lon="26.231457">
<ele>129.064575</ele>
<time>2010-07-17T11:13:23Z</time>
<desc>lat.=55.731270, lon.=26.231457, Alt.=129.064575m. Speed=0.432000m/h.</desc>
<speed>0.120000</speed>
</trkpt>
<trkpt lat="55.731266" lon="26.231457">
<ele>129.076294</ele>
<time>2010-07-17T11:13:24Z</time>
<desc>lat.=55.731266, lon.=26.231457, Alt.=129.076294m. Speed=0.432000m/h.</desc>
<speed>0.120000</speed>
</trkpt>
<trkpt lat="55.731266" lon="26.231455">
<ele>129.088013</ele>
<time>2010-07-17T11:13:25Z</time>
<desc>lat.=55.731266, lon.=26.231455, Alt.=129.088013m. Speed=0.432000m/h.</desc>
<speed>0.120000</speed>
</trkpt>
<trkpt lat="55.731266" lon="26.231453">
<ele>129.111450</ele>
<time>2010-07-17T11:13:26Z</time>
<desc>lat.=55.731266, lon.=26.231453, Alt.=129.111450m. Speed=0.468000m/h.</desc>
<speed>0.130000</speed>
</trkpt>
<trkpt lat="55.731266" lon="26.231453">
<ele>129.134888</ele>
<time>2010-07-17T11:13:27Z</time>
<desc>lat.=55.731266, lon.=26.231453, Alt.=129.134888m. Speed=0.468000m/h.</desc>
<speed>0.130000</speed>
</trkpt>
<trkpt lat="55.731262" lon="26.231451">
<ele>129.158325</ele>
<time>2010-07-17T11:13:28Z</time>
<desc>lat.=55.731262, lon.=26.231451, Alt.=129.158325m. Speed=0.432000m/h.</desc>
<speed>0.120000</speed>
</trkpt>
<trkpt lat="55.731262" lon="26.231451">
<ele>129.185669</ele>
<time>2010-07-17T11:13:29Z</time>
<desc>lat.=55.731262, lon.=26.231451, Alt.=129.185669m. Speed=0.432000m/h.</desc>
<speed>0.120000</speed>
</trkpt>
<trkpt lat="55.731262" lon="26.231449">
<ele>129.216919</ele>
<time>2010-07-17T11:13:30Z</time>
<desc>lat.=55.731262, lon.=26.231449, Alt.=129.216919m. Speed=0.468000m/h.</desc>
<speed>0.130000</speed>
</trkpt>
<trkpt lat="55.731262" lon="26.231447">
<ele>129.244263</ele>
<time>2010-07-17T11:13:31Z</time>
<desc>lat.=55.731262, lon.=26.231447, Alt.=129.244263m. Speed=0.432000m/h.</desc>
<speed>0.120000</speed>
</trkpt>
<trkpt lat="55.731258" lon="26.231447">
<ele>129.271606</ele>
<time>2010-07-17T11:13:32Z</time>
<desc>lat.=55.731258, lon.=26.231447, Alt.=129.271606m. Speed=0.360000m/h.</desc>
<speed>0.100000</speed>
</trkpt>
<trkpt lat="55.731258" lon="26.231445">
<ele>129.306763</ele>
<time>2010-07-17T11:13:33Z</time>
<desc>lat.=55.731258, lon.=26.231445, Alt.=129.306763m. Speed=0.324000m/h.</desc>
<speed>0.090000</speed>
</trkpt>
<trkpt lat="55.731258" lon="26.231443">
<ele>129.345825</ele>
<time>2010-07-17T11:13:34Z</time>
<desc>lat.=55.731258, lon.=26.231443, Alt.=129.345825m. Speed=0.216000m/h.</desc>
<speed>0.060000</speed>
</trkpt>
<trkpt lat="55.731258" lon="26.231443">
<ele>129.384888</ele>
<time>2010-07-17T11:13:35Z</time>
<desc>lat.=55.731258, lon.=26.231443, Alt.=129.384888m. Speed=0.324000m/h.</desc>
<speed>0.090000</speed>
</trkpt>
<trkpt lat="55.731262" lon="26.231441">
<ele>129.423950</ele>
<time>2010-07-17T11:13:36Z</time>
<desc>lat.=55.731262, lon.=26.231441, Alt.=129.423950m. Speed=0.324000m/h.</desc>
<speed>0.090000</speed>
</trkpt>
<trkpt lat="55.731262" lon="26.231441">
<ele>129.466919</ele>
<time>2010-07-17T11:13:37Z</time>
<desc>lat.=55.731262, lon.=26.231441, Alt.=129.466919m. Speed=0.324000m/h.</desc>
<speed>0.090000</speed>
</trkpt>
<trkpt lat="55.731262" lon="26.231441">
<ele>129.513794</ele>
<time>2010-07-17T11:13:38Z</time>
<desc>lat.=55.731262, lon.=26.231441, Alt.=129.513794m. Speed=0.324000m/h.</desc>
<speed>0.090000</speed>
</trkpt>
<trkpt lat="55.731262" lon="26.231440">
<ele>129.568481</ele>
<time>2010-07-17T11:13:39Z</time>
<desc>lat.=55.731262, lon.=26.231440, Alt.=129.568481m. Speed=0.288000m/h.</desc>
<speed>0.080000</speed>
</trkpt>
<trkpt lat="55.731262" lon="26.231440">
<ele>129.630981</ele>
<time>2010-07-17T11:13:40Z</time>
<desc>lat.=55.731262, lon.=26.231440, Alt.=129.630981m. Speed=0.360000m/h.</desc>
<speed>0.100000</speed>
</trkpt>
<trkpt lat="55.731266" lon="26.231440">
<ele>129.689575</ele>
<time>2010-07-17T11:13:41Z</time>
<desc>lat.=55.731266, lon.=26.231440, Alt.=129.689575m. Speed=0.288000m/h.</desc>
<speed>0.080000</speed>
</trkpt>
<trkpt lat="55.731266" lon="26.231438">
<ele>129.755981</ele>
<time>2010-07-17T11:13:42Z</time>
<desc>lat.=55.731266, lon.=26.231438, Alt.=129.755981m. Speed=0.360000m/h.</desc>
<speed>0.100000</speed>
</trkpt>
<trkpt lat="55.731266" lon="26.231438">
<ele>129.830200</ele>
<time>2010-07-17T11:13:43Z</time>
<desc>lat.=55.731266, lon.=26.231438, Alt.=129.830200m. Speed=0.432000m/h.</desc>
<speed>0.120000</speed>
</trkpt>
<trkpt lat="55.731266" lon="26.231438">
<ele>129.900513</ele>
<time>2010-07-17T11:13:44Z</time>
<desc>lat.=55.731266, lon.=26.231438, Alt.=129.900513m. Speed=0.360000m/h.</desc>
<speed>0.100000</speed>
</trkpt>
<trkpt lat="55.731270" lon="26.231438">
<ele>129.974731</ele>
<time>2010-07-17T11:13:45Z</time>
<desc>lat.=55.731270, lon.=26.231438, Alt.=129.974731m. Speed=0.360000m/h.</desc>
<speed>0.100000</speed>
</trkpt>
<trkpt lat="55.731270" lon="26.231438">
<ele>130.056763</ele>
<time>2010-07-17T11:13:46Z</time>
<desc>lat.=55.731270, lon.=26.231438, Alt.=130.056763m. Speed=0.360000m/h.</desc>
<speed>0.100000</speed>
</trkpt>
<trkpt lat="55.731270" lon="26.231438">
<ele>130.138794</ele>
<time>2010-07-17T11:13:47Z</time>
<desc>lat.=55.731270, lon.=26.231438, Alt.=130.138794m. Speed=0.288000m/h.</desc>
<speed>0.080000</speed>
</trkpt>
<trkpt lat="55.731270" lon="26.231436">
<ele>130.228638</ele>
<time>2010-07-17T11:13:48Z</time>
<desc>lat.=55.731270, lon.=26.231436, Alt.=130.228638m. Speed=0.324000m/h.</desc>
<speed>0.090000</speed>
</trkpt>
<trkpt lat="55.731274" lon="26.231436">
<ele>130.322388</ele>
<time>2010-07-17T11:13:49Z</time>
<desc>lat.=55.731274, lon.=26.231436, Alt.=130.322388m. Speed=0.360000m/h.</desc>
<speed>0.100000</speed>
</trkpt>
<trkpt lat="55.731274" lon="26.231436">
<ele>130.420044</ele>
<time>2010-07-17T11:13:50Z</time>
<desc>lat.=55.731274, lon.=26.231436, Alt.=130.420044m. Speed=0.324000m/h.</desc>
<speed>0.090000</speed>
</trkpt>
<trkpt lat="55.731274" lon="26.231436">
<ele>130.513794</ele>
<time>2010-07-17T11:13:51Z</time>
<desc>lat.=55.731274, lon.=26.231436, Alt.=130.513794m. Speed=0.252000m/h.</desc>
<speed>0.070000</speed>
</trkpt>
<trkpt lat="55.731274" lon="26.231436">
<ele>130.607544</ele>
<time>2010-07-17T11:13:52Z</time>
<desc>lat.=55.731274, lon.=26.231436, Alt.=130.607544m. Speed=0.216000m/h.</desc>
<speed>0.060000</speed>
</trkpt>
<trkpt lat="55.731274" lon="26.231436">
<ele>130.701294</ele>
<time>2010-07-17T11:13:53Z</time>
<desc>lat.=55.731274, lon.=26.231436, Alt.=130.701294m. Speed=0.216000m/h.</desc>
<speed>0.060000</speed>
</trkpt>
<trkpt lat="55.731274" lon="26.231438">
<ele>130.798950</ele>
<time>2010-07-17T11:13:54Z</time>
<desc>lat.=55.731274, lon.=26.231438, Alt.=130.798950m. Speed=0.216000m/h.</desc>
<speed>0.060000</speed>
</trkpt>
<trkpt lat="55.731277" lon="26.231438">
<ele>130.892700</ele>
<time>2010-07-17T11:13:55Z</time>
<desc>lat.=55.731277, lon.=26.231438, Alt.=130.892700m. Speed=0.252000m/h.</desc>
<speed>0.070000</speed>
</trkpt>
<trkpt lat="55.731277" lon="26.231438">
<ele>130.982544</ele>
<time>2010-07-17T11:13:56Z</time>
<desc>lat.=55.731277, lon.=26.231438, Alt.=130.982544m. Speed=0.216000m/h.</desc>
<speed>0.060000</speed>
</trkpt>
<trkpt lat="55.731277" lon="26.231438">
<ele>131.076294</ele>
<time>2010-07-17T11:13:57Z</time>
<desc>lat.=55.731277, lon.=26.231438, Alt.=131.076294m. Speed=0.288000m/h.</desc>
<speed>0.080000</speed>
</trkpt>
<trkpt lat="55.731277" lon="26.231440">
<ele>131.173950</ele>
<time>2010-07-17T11:13:58Z</time>
<desc>lat.=55.731277, lon.=26.231440, Alt.=131.173950m. Speed=0.216000m/h.</desc>
<speed>0.060000</speed>
</trkpt>
<trkpt lat="55.731277" lon="26.231440">
<ele>131.275513</ele>
<time>2010-07-17T11:13:59Z</time>
<desc>lat.=55.731277, lon.=26.231440, Alt.=131.275513m. Speed=0.252000m/h.</desc>
<speed>0.070000</speed>
</trkpt>
<trkpt lat="55.731277" lon="26.231440">
<ele>131.377075</ele>
<time>2010-07-17T11:14:00Z</time>
<desc>lat.=55.731277, lon.=26.231440, Alt.=131.377075m. Speed=0.252000m/h.</desc>
<speed>0.070000</speed>
</trkpt>
<trkpt lat="55.731277" lon="26.231440">
<ele>131.470825</ele>
<time>2010-07-17T11:14:01Z</time>
<desc>lat.=55.731277, lon.=26.231440, Alt.=131.470825m. Speed=0.288000m/h.</desc>
<speed>0.080000</speed>
</trkpt>
<trkpt lat="55.731281" lon="26.231441">
<ele>131.556763</ele>
<time>2010-07-17T11:14:02Z</time>
<desc>lat.=55.731281, lon.=26.231441, Alt.=131.556763m. Speed=0.180000m/h.</desc>
<speed>0.050000</speed>
</trkpt>
<trkpt lat="55.731281" lon="26.231441">
<ele>131.638794</ele>
<time>2010-07-17T11:14:03Z</time>
<desc>lat.=55.731281, lon.=26.231441, Alt.=131.638794m. Speed=0.144000m/h.</desc>
<speed>0.040000</speed>
</trkpt>
<trkpt lat="55.731281" lon="26.231441">
<ele>131.716919</ele>
<time>2010-07-17T11:14:04Z</time>
<desc>lat.=55.731281, lon.=26.231441, Alt.=131.716919m. Speed=0.144000m/h.</desc>
<speed>0.040000</speed>
</trkpt>
<trkpt lat="55.731281" lon="26.231441">
<ele>131.791138</ele>
<time>2010-07-17T11:14:05Z</time>
<desc>lat.=55.731281, lon.=26.231441, Alt.=131.791138m. Speed=0.180000m/h.</desc>
<speed>0.050000</speed>
</trkpt>
<trkpt lat="55.731281" lon="26.231441">
<ele>131.873169</ele>
<time>2010-07-17T11:14:06Z</time>
<desc>lat.=55.731281, lon.=26.231441, Alt.=131.873169m. Speed=0.180000m/h.</desc>
<speed>0.050000</speed>
</trkpt>
<trkpt lat="55.731281" lon="26.231441">
<ele>131.959106</ele>
<time>2010-07-17T11:14:07Z</time>
<desc>lat.=55.731281, lon.=26.231441, Alt.=131.959106m. Speed=0.180000m/h.</desc>
<speed>0.050000</speed>
</trkpt>
<trkpt lat="55.731281" lon="26.231443">
<ele>132.045044</ele>
<time>2010-07-17T11:14:08Z</time>
<desc>lat.=55.731281, lon.=26.231443, Alt.=132.045044m. Speed=0.180000m/h.</desc>
<speed>0.050000</speed>
</trkpt>
<trkpt lat="55.731281" lon="26.231443">
<ele>132.138794</ele>
<time>2010-07-17T11:14:09Z</time>
<desc>lat.=55.731281, lon.=26.231443, Alt.=132.138794m. Speed=0.216000m/h.</desc>
<speed>0.060000</speed>
</trkpt>
<trkpt lat="55.731281" lon="26.231443">
<ele>132.220825</ele>
<time>2010-07-17T11:14:10Z</time>
<desc>lat.=55.731281, lon.=26.231443, Alt.=132.220825m. Speed=0.144000m/h.</desc>
<speed>0.040000</speed>
</trkpt>
<trkpt lat="55.731285" lon="26.231445">
<ele>132.298950</ele>
<time>2010-07-17T11:14:11Z</time>
<desc>lat.=55.731285, lon.=26.231445, Alt.=132.298950m. Speed=0.144000m/h.</desc>
<speed>0.040000</speed>
</trkpt>
<trkpt lat="55.731285" lon="26.231445">
<ele>132.384888</ele>
<time>2010-07-17T11:14:12Z</time>
<desc>lat.=55.731285, lon.=26.231445, Alt.=132.384888m. Speed=0.144000m/h.</desc>
<speed>0.040000</speed>
</trkpt>
<trkpt lat="55.731285" lon="26.231445">
<ele>132.470825</ele>
<time>2010-07-17T11:14:13Z</time>
<desc>lat.=55.731285, lon.=26.231445, Alt.=132.470825m. Speed=0.144000m/h.</desc>
<speed>0.040000</speed>
</trkpt>
<trkpt lat="55.731285" lon="26.231447">
<ele>132.556763</ele>
<time>2010-07-17T11:14:14Z</time>
<desc>lat.=55.731285, lon.=26.231447, Alt.=132.556763m. Speed=0.216000m/h.</desc>
<speed>0.060000</speed>
</trkpt>
<trkpt lat="55.731285" lon="26.231447">
<ele>132.642700</ele>
<time>2010-07-17T11:14:15Z</time>
<desc>lat.=55.731285, lon.=26.231447, Alt.=132.642700m. Speed=0.216000m/h.</desc>
<speed>0.060000</speed>
</trkpt>
<trkpt lat="55.731285" lon="26.231449">
<ele>132.720825</ele>
<time>2010-07-17T11:14:16Z</time>
<desc>lat.=55.731285, lon.=26.231449, Alt.=132.720825m. Speed=0.144000m/h.</desc>
<speed>0.040000</speed>
</trkpt>
<trkpt lat="55.731285" lon="26.231449">
<ele>132.806763</ele>
<time>2010-07-17T11:14:17Z</time>
<desc>lat.=55.731285, lon.=26.231449, Alt.=132.806763m. Speed=0.108000m/h.</desc>
<speed>0.030000</speed>
</trkpt>
<trkpt lat="55.731285" lon="26.231451">
<ele>132.892700</ele>
<time>2010-07-17T11:14:18Z</time>
<desc>lat.=55.731285, lon.=26.231451, Alt.=132.892700m. Speed=0.144000m/h.</desc>
<speed>0.040000</speed>
</trkpt>
<trkpt lat="55.731285" lon="26.231451">
<ele>132.974731</ele>
<time>2010-07-17T11:14:19Z</time>
<desc>lat.=55.731285, lon.=26.231451, Alt.=132.974731m. Speed=0.180000m/h.</desc>
<speed>0.050000</speed>
</trkpt>
<trkpt lat="55.731285" lon="26.231451">
<ele>133.052856</ele>
<time>2010-07-17T11:14:20Z</time>
<desc>lat.=55.731285, lon.=26.231451, Alt.=133.052856m. Speed=0.180000m/h.</desc>
<speed>0.050000</speed>
</trkpt>
<trkpt lat="55.731285" lon="26.231453">
<ele>133.127075</ele>
<time>2010-07-17T11:14:21Z</time>
<desc>lat.=55.731285, lon.=26.231453, Alt.=133.127075m. Speed=0.144000m/h.</desc>
<speed>0.040000</speed>
</trkpt>
<trkpt lat="55.731285" lon="26.231453">
<ele>133.197388</ele>
<time>2010-07-17T11:14:22Z</time>
<desc>lat.=55.731285, lon.=26.231453, Alt.=133.197388m. Speed=0.144000m/h.</desc>
<speed>0.040000</speed>
</trkpt>
<trkpt lat="55.731285" lon="26.231453">
<ele>133.263794</ele>
<time>2010-07-17T11:14:23Z</time>
<desc>lat.=55.731285, lon.=26.231453, Alt.=133.263794m. Speed=0.108000m/h.</desc>
<speed>0.030000</speed>
</trkpt>
<trkpt lat="55.731285" lon="26.231455">
<ele>133.326294</ele>
<time>2010-07-17T11:14:24Z</time>
<desc>lat.=55.731285, lon.=26.231455, Alt.=133.326294m. Speed=0.108000m/h.</desc>
<speed>0.030000</speed>
</trkpt>
<trkpt lat="55.731285" lon="26.231455">
<ele>133.396606</ele>
<time>2010-07-17T11:14:25Z</time>
<desc>lat.=55.731285, lon.=26.231455, Alt.=133.396606m. Speed=0.216000m/h.</desc>
<speed>0.060000</speed>
</trkpt>
<trkpt lat="55.731285" lon="26.231457">
<ele>133.463013</ele>
<time>2010-07-17T11:14:26Z</time>
<desc>lat.=55.731285, lon.=26.231457, Alt.=133.463013m. Speed=0.216000m/h.</desc>
<speed>0.060000</speed>
</trkpt>
<trkpt lat="55.731285" lon="26.231457">
<ele>133.529419</ele>
<time>2010-07-17T11:14:27Z</time>
<desc>lat.=55.731285, lon.=26.231457, Alt.=133.529419m. Speed=0.144000m/h.</desc>
<speed>0.040000</speed>
</trkpt>
<trkpt lat="55.731285" lon="26.231459">
<ele>133.603638</ele>
<time>2010-07-17T11:14:28Z</time>
<desc>lat.=55.731285, lon.=26.231459, Alt.=133.603638m. Speed=0.144000m/h.</desc>
<speed>0.040000</speed>
</trkpt>
<trkpt lat="55.731285" lon="26.231459">
<ele>133.681763</ele>
<time>2010-07-17T11:14:29Z</time>
<desc>lat.=55.731285, lon.=26.231459, Alt.=133.681763m. Speed=0.180000m/h.</desc>
<speed>0.050000</speed>
</trkpt>
<trkpt lat="55.731285" lon="26.231459">
<ele>133.755981</ele>
<time>2010-07-17T11:14:30Z</time>
<desc>lat.=55.731285, lon.=26.231459, Alt.=133.755981m. Speed=0.108000m/h.</desc>
<speed>0.030000</speed>
</trkpt>
<trkpt lat="55.731285" lon="26.231461">
<ele>133.834106</ele>
<time>2010-07-17T11:14:31Z</time>
<desc>lat.=55.731285, lon.=26.231461, Alt.=133.834106m. Speed=0.108000m/h.</desc>
<speed>0.030000</speed>
</trkpt>
<trkpt lat="55.731285" lon="26.231461">
<ele>133.916138</ele>
<time>2010-07-17T11:14:32Z</time>
<desc>lat.=55.731285, lon.=26.231461, Alt.=133.916138m. Speed=0.108000m/h.</desc>
<speed>0.030000</speed>
</trkpt>
<trkpt lat="55.731285" lon="26.231461">
<ele>134.009888</ele>
<time>2010-07-17T11:14:33Z</time>
<desc>lat.=55.731285, lon.=26.231461, Alt.=134.009888m. Speed=0.108000m/h.</desc>
<speed>0.030000</speed>
</trkpt>
<trkpt lat="55.731285" lon="26.231462">
<ele>134.099731</ele>
<time>2010-07-17T11:14:34Z</time>
<desc>lat.=55.731285, lon.=26.231462, Alt.=134.099731m. Speed=0.108000m/h.</desc>
<speed>0.030000</speed>
</trkpt>
<trkpt lat="55.731285" lon="26.231462">
<ele>134.201294</ele>
<time>2010-07-17T11:14:35Z</time>
<desc>lat.=55.731285, lon.=26.231462, Alt.=134.201294m. Speed=0.108000m/h.</desc>
<speed>0.030000</speed>
</trkpt>
<trkpt lat="55.731285" lon="26.231462">
<ele>134.298950</ele>
<time>2010-07-17T11:14:36Z</time>
<desc>lat.=55.731285, lon.=26.231462, Alt.=134.298950m. Speed=0.072000m/h.</desc>
<speed>0.020000</speed>
</trkpt>
<trkpt lat="55.731285" lon="26.231462">
<ele>134.404419</ele>
<time>2010-07-17T11:14:37Z</time>
<desc>lat.=55.731285, lon.=26.231462, Alt.=134.404419m. Speed=0.108000m/h.</desc>
<speed>0.030000</speed>
</trkpt>
<trkpt lat="55.731285" lon="26.231462">
<ele>134.509888</ele>
<time>2010-07-17T11:14:38Z</time>
<desc>lat.=55.731285, lon.=26.231462, Alt.=134.509888m. Speed=0.072000m/h.</desc>
<speed>0.020000</speed>
</trkpt>
<trkpt lat="55.731285" lon="26.231462">
<ele>134.619263</ele>
<time>2010-07-17T11:14:39Z</time>
<desc>lat.=55.731285, lon.=26.231462, Alt.=134.619263m. Speed=0.000000m/h.</desc>
<speed>0.000000</speed>
</trkpt>
<trkpt lat="55.731285" lon="26.231462">
<ele>134.728638</ele>
<time>2010-07-17T11:14:40Z</time>
<desc>lat.=55.731285, lon.=26.231462, Alt.=134.728638m. Speed=0.036000m/h.</desc>
<speed>0.010000</speed>
</trkpt>
<trkpt lat="55.731285" lon="26.231462">
<ele>134.838013</ele>
<time>2010-07-17T11:14:41Z</time>
<desc>lat.=55.731285, lon.=26.231462, Alt.=134.838013m. Speed=0.072000m/h.</desc>
<speed>0.020000</speed>
</trkpt>
<trkpt lat="55.731285" lon="26.231462">
<ele>134.951294</ele>
<time>2010-07-17T11:14:42Z</time>
<desc>lat.=55.731285, lon.=26.231462, Alt.=134.951294m. Speed=0.000000m/h.</desc>
<speed>0.000000</speed>
</trkpt>
<trkpt lat="55.731285" lon="26.231462">
<ele>135.064575</ele>
<time>2010-07-17T11:14:43Z</time>
<desc>lat.=55.731285, lon.=26.231462, Alt.=135.064575m. Speed=0.036000m/h.</desc>
<speed>0.010000</speed>
</trkpt>
<trkpt lat="55.731285" lon="26.231462">
<ele>135.177856</ele>
<time>2010-07-17T11:14:44Z</time>
<desc>lat.=55.731285, lon.=26.231462, Alt.=135.177856m. Speed=0.036000m/h.</desc>
<speed>0.010000</speed>
</trkpt>
<trkpt lat="55.731285" lon="26.231464">
<ele>135.295044</ele>
<time>2010-07-17T11:14:45Z</time>
<desc>lat.=55.731285, lon.=26.231464, Alt.=135.295044m. Speed=0.036000m/h.</desc>
<speed>0.010000</speed>
</trkpt>
<trkpt lat="55.731285" lon="26.231464">
<ele>135.412231</ele>
<time>2010-07-17T11:14:46Z</time>
<desc>lat.=55.731285, lon.=26.231464, Alt.=135.412231m. Speed=0.108000m/h.</desc>
<speed>0.030000</speed>
</trkpt>
<trkpt lat="55.731285" lon="26.231464">
<ele>135.533325</ele>
<time>2010-07-17T11:14:47Z</time>
<desc>lat.=55.731285, lon.=26.231464, Alt.=135.533325m. Speed=0.144000m/h.</desc>
<speed>0.040000</speed>
</trkpt>
<trkpt lat="55.731285" lon="26.231466">
<ele>135.658325</ele>
<time>2010-07-17T11:14:48Z</time>
<desc>lat.=55.731285, lon.=26.231466, Alt.=135.658325m. Speed=0.216000m/h.</desc>
<speed>0.060000</speed>
</trkpt>
<trkpt lat="55.731285" lon="26.231466">
<ele>135.787231</ele>
<time>2010-07-17T11:14:49Z</time>
<desc>lat.=55.731285, lon.=26.231466, Alt.=135.787231m. Speed=0.288000m/h.</desc>
<speed>0.080000</speed>
</trkpt>
<trkpt lat="55.731289" lon="26.231466">
<ele>135.920044</ele>
<time>2010-07-17T11:14:50Z</time>
<desc>lat.=55.731289, lon.=26.231466, Alt.=135.920044m. Speed=0.360000m/h.</desc>
<speed>0.100000</speed>
</trkpt>
<trkpt lat="55.731289" lon="26.231468">
<ele>136.052856</ele>
<time>2010-07-17T11:14:51Z</time>
<desc>lat.=55.731289, lon.=26.231468, Alt.=136.052856m. Speed=0.324000m/h.</desc>
<speed>0.090000</speed>
</trkpt>
<trkpt lat="55.731289" lon="26.231470">
<ele>136.189575</ele>
<time>2010-07-17T11:14:52Z</time>
<desc>lat.=55.731289, lon.=26.231470, Alt.=136.189575m. Speed=0.432000m/h.</desc>
<speed>0.120000</speed>
</trkpt>
<trkpt lat="55.731289" lon="26.231470">
<ele>136.330200</ele>
<time>2010-07-17T11:14:53Z</time>
<desc>lat.=55.731289, lon.=26.231470, Alt.=136.330200m. Speed=0.360000m/h.</desc>
<speed>0.100000</speed>
</trkpt>
<trkpt lat="55.731289" lon="26.231472">
<ele>136.474731</ele>
<time>2010-07-17T11:14:54Z</time>
<desc>lat.=55.731289, lon.=26.231472, Alt.=136.474731m. Speed=0.396000m/h.</desc>
<speed>0.110000</speed>
</trkpt>
<trkpt lat="55.731289" lon="26.231474">
<ele>136.619263</ele>
<time>2010-07-17T11:14:55Z</time>
<desc>lat.=55.731289, lon.=26.231474, Alt.=136.619263m. Speed=0.468000m/h.</desc>
<speed>0.130000</speed>
</trkpt>
<trkpt lat="55.731293" lon="26.231476">
<ele>136.767700</ele>
<time>2010-07-17T11:14:56Z</time>
<desc>lat.=55.731293, lon.=26.231476, Alt.=136.767700m. Speed=0.468000m/h.</desc>
<speed>0.130000</speed>
</trkpt>
<trkpt lat="55.731293" lon="26.231478">
<ele>136.920044</ele>
<time>2010-07-17T11:14:57Z</time>
<desc>lat.=55.731293, lon.=26.231478, Alt.=136.920044m. Speed=0.504000m/h.</desc>
<speed>0.140000</speed>
</trkpt>
<trkpt lat="55.731293" lon="26.231480">
<ele>137.088013</ele>
<time>2010-07-17T11:14:58Z</time>
<desc>lat.=55.731293, lon.=26.231480, Alt.=137.088013m. Speed=0.540000m/h.</desc>
<speed>0.150000</speed>
</trkpt>
<trkpt lat="55.731293" lon="26.231482">
<ele>137.259888</ele>
<time>2010-07-17T11:14:59Z</time>
<desc>lat.=55.731293, lon.=26.231482, Alt.=137.259888m. Speed=0.540000m/h.</desc>
<speed>0.150000</speed>
</trkpt>
<trkpt lat="55.731297" lon="26.231483">
<ele>137.439575</ele>
<time>2010-07-17T11:15:00Z</time>
<desc>lat.=55.731297, lon.=26.231483, Alt.=137.439575m. Speed=0.576000m/h.</desc>
<speed>0.160000</speed>
</trkpt>
<trkpt lat="55.731297" lon="26.231483">
<ele>137.623169</ele>
<time>2010-07-17T11:15:01Z</time>
<desc>lat.=55.731297, lon.=26.231483, Alt.=137.623169m. Speed=0.576000m/h.</desc>
<speed>0.160000</speed>
</trkpt>
<trkpt lat="55.731297" lon="26.231485">
<ele>137.814575</ele>
<time>2010-07-17T11:15:02Z</time>
<desc>lat.=55.731297, lon.=26.231485, Alt.=137.814575m. Speed=0.504000m/h.</desc>
<speed>0.140000</speed>
</trkpt>
<trkpt lat="55.731300" lon="26.231487">
<ele>138.005981</ele>
<time>2010-07-17T11:15:03Z</time>
<desc>lat.=55.731300, lon.=26.231487, Alt.=138.005981m. Speed=0.576000m/h.</desc>
<speed>0.160000</speed>
</trkpt>
<trkpt lat="55.731300" lon="26.231489">
<ele>138.201294</ele>
<time>2010-07-17T11:15:04Z</time>
<desc>lat.=55.731300, lon.=26.231489, Alt.=138.201294m. Speed=0.540000m/h.</desc>
<speed>0.150000</speed>
</trkpt>
<trkpt lat="55.731300" lon="26.231491">
<ele>138.400513</ele>
<time>2010-07-17T11:15:05Z</time>
<desc>lat.=55.731300, lon.=26.231491, Alt.=138.400513m. Speed=0.468000m/h.</desc>
<speed>0.130000</speed>
</trkpt>
<trkpt lat="55.731300" lon="26.231491">
<ele>138.607544</ele>
<time>2010-07-17T11:15:06Z</time>
<desc>lat.=55.731300, lon.=26.231491, Alt.=138.607544m. Speed=0.432000m/h.</desc>
<speed>0.120000</speed>
</trkpt>
<trkpt lat="55.731300" lon="26.231493">
<ele>138.814575</ele>
<time>2010-07-17T11:15:07Z</time>
<desc>lat.=55.731300, lon.=26.231493, Alt.=138.814575m. Speed=0.432000m/h.</desc>
<speed>0.120000</speed>
</trkpt>
<trkpt lat="55.731304" lon="26.231495">
<ele>139.025513</ele>
<time>2010-07-17T11:15:08Z</time>
<desc>lat.=55.731304, lon.=26.231495, Alt.=139.025513m. Speed=0.432000m/h.</desc>
<speed>0.120000</speed>
</trkpt>
<trkpt lat="55.731304" lon="26.231497">
<ele>139.248169</ele>
<time>2010-07-17T11:15:09Z</time>
<desc>lat.=55.731304, lon.=26.231497, Alt.=139.248169m. Speed=0.360000m/h.</desc>
<speed>0.100000</speed>
</trkpt>
<trkpt lat="55.731304" lon="26.231499">
<ele>139.466919</ele>
<time>2010-07-17T11:15:10Z</time>
<desc>lat.=55.731304, lon.=26.231499, Alt.=139.466919m. Speed=0.396000m/h.</desc>
<speed>0.110000</speed>
</trkpt>
<trkpt lat="55.731300" lon="26.231501">
<ele>139.689575</ele>
<time>2010-07-17T11:15:11Z</time>
<desc>lat.=55.731300, lon.=26.231501, Alt.=139.689575m. Speed=0.432000m/h.</desc>
<speed>0.120000</speed>
</trkpt>
<trkpt lat="55.731300" lon="26.231503">
<ele>139.923950</ele>
<time>2010-07-17T11:15:12Z</time>
<desc>lat.=55.731300, lon.=26.231503, Alt.=139.923950m. Speed=0.396000m/h.</desc>
<speed>0.110000</speed>
</trkpt>
<trkpt lat="55.731300" lon="26.231503">
<ele>140.154419</ele>
<time>2010-07-17T11:15:13Z</time>
<desc>lat.=55.731300, lon.=26.231503, Alt.=140.154419m. Speed=0.504000m/h.</desc>
<speed>0.140000</speed>
</trkpt>
<trkpt lat="55.731300" lon="26.231504">
<ele>140.388794</ele>
<time>2010-07-17T11:15:14Z</time>
<desc>lat.=55.731300, lon.=26.231504, Alt.=140.388794m. Speed=0.468000m/h.</desc>
<speed>0.130000</speed>
</trkpt>
<trkpt lat="55.731297" lon="26.231504">
<ele>140.619263</ele>
<time>2010-07-17T11:15:15Z</time>
<desc>lat.=55.731297, lon.=26.231504, Alt.=140.619263m. Speed=0.396000m/h.</desc>
<speed>0.110000</speed>
</trkpt>
<trkpt lat="55.731297" lon="26.231504">
<ele>140.857544</ele>
<time>2010-07-17T11:15:16Z</time>
<desc>lat.=55.731297, lon.=26.231504, Alt.=140.857544m. Speed=0.360000m/h.</desc>
<speed>0.100000</speed>
</trkpt>
<trkpt lat="55.731297" lon="26.231506">
<ele>141.099731</ele>
<time>2010-07-17T11:15:17Z</time>
<desc>lat.=55.731297, lon.=26.231506, Alt.=141.099731m. Speed=0.396000m/h.</desc>
<speed>0.110000</speed>
</trkpt>
<trkpt lat="55.731297" lon="26.231506">
<ele>141.353638</ele>
<time>2010-07-17T11:15:18Z</time>
<desc>lat.=55.731297, lon.=26.231506, Alt.=141.353638m. Speed=0.468000m/h.</desc>
<speed>0.130000</speed>
</trkpt>
<trkpt lat="55.731293" lon="26.231506">
<ele>141.615356</ele>
<time>2010-07-17T11:15:19Z</time>
<desc>lat.=55.731293, lon.=26.231506, Alt.=141.615356m. Speed=0.468000m/h.</desc>
<speed>0.130000</speed>
</trkpt>
<trkpt lat="55.731293" lon="26.231506">
<ele>141.888794</ele>
<time>2010-07-17T11:15:20Z</time>
<desc>lat.=55.731293, lon.=26.231506, Alt.=141.888794m. Speed=0.468000m/h.</desc>
<speed>0.130000</speed>
</trkpt>
<trkpt lat="55.731293" lon="26.231504">
<ele>142.166138</ele>
<time>2010-07-17T11:15:21Z</time>
<desc>lat.=55.731293, lon.=26.231504, Alt.=142.166138m. Speed=0.468000m/h.</desc>
<speed>0.130000</speed>
</trkpt>
<trkpt lat="55.731289" lon="26.231504">
<ele>142.439575</ele>
<time>2010-07-17T11:15:22Z</time>
<desc>lat.=55.731289, lon.=26.231504, Alt.=142.439575m. Speed=0.432000m/h.</desc>
<speed>0.120000</speed>
</trkpt>
<trkpt lat="55.731289" lon="26.231504">
<ele>142.713013</ele>
<time>2010-07-17T11:15:23Z</time>
<desc>lat.=55.731289, lon.=26.231504, Alt.=142.713013m. Speed=0.468000m/h.</desc>
<speed>0.130000</speed>
</trkpt>
<trkpt lat="55.731289" lon="26.231503">
<ele>142.990356</ele>
<time>2010-07-17T11:15:24Z</time>
<desc>lat.=55.731289, lon.=26.231503, Alt.=142.990356m. Speed=0.432000m/h.</desc>
<speed>0.120000</speed>
</trkpt>
<trkpt lat="55.731285" lon="26.231503">
<ele>143.267700</ele>
<time>2010-07-17T11:15:25Z</time>
<desc>lat.=55.731285, lon.=26.231503, Alt.=143.267700m. Speed=0.432000m/h.</desc>
<speed>0.120000</speed>
</trkpt>
<trkpt lat="55.731285" lon="26.231501">
<ele>143.537231</ele>
<time>2010-07-17T11:15:26Z</time>
<desc>lat.=55.731285, lon.=26.231501, Alt.=143.537231m. Speed=0.324000m/h.</desc>
<speed>0.090000</speed>
</trkpt>
<trkpt lat="55.731285" lon="26.231501">
<ele>143.802856</ele>
<time>2010-07-17T11:15:27Z</time>
<desc>lat.=55.731285, lon.=26.231501, Alt.=143.802856m. Speed=0.288000m/h.</desc>
<speed>0.080000</speed>
</trkpt>
<trkpt lat="55.731285" lon="26.231501">
<ele>144.056763</ele>
<time>2010-07-17T11:15:28Z</time>
<desc>lat.=55.731285, lon.=26.231501, Alt.=144.056763m. Speed=0.576000m/h.</desc>
<speed>0.160000</speed>
</trkpt>
<trkpt lat="55.731285" lon="26.231501">
<ele>144.306763</ele>
<time>2010-07-17T11:15:29Z</time>
<desc>lat.=55.731285, lon.=26.231501, Alt.=144.306763m. Speed=0.828000m/h.</desc>
<speed>0.230000</speed>
</trkpt>
<trkpt lat="55.731289" lon="26.231503">
<ele>144.556763</ele>
<time>2010-07-17T11:15:30Z</time>
<desc>lat.=55.731289, lon.=26.231503, Alt.=144.556763m. Speed=0.828000m/h.</desc>
<speed>0.230000</speed>
</trkpt>
<trkpt lat="55.731289" lon="26.231504">
<ele>144.814575</ele>
<time>2010-07-17T11:15:31Z</time>
<desc>lat.=55.731289, lon.=26.231504, Alt.=144.814575m. Speed=0.864000m/h.</desc>
<speed>0.240000</speed>
</trkpt>
<trkpt lat="55.731293" lon="26.231506">
<ele>145.072388</ele>
<time>2010-07-17T11:15:32Z</time>
<desc>lat.=55.731293, lon.=26.231506, Alt.=145.072388m. Speed=0.936000m/h.</desc>
<speed>0.260000</speed>
</trkpt>
<trkpt lat="55.731297" lon="26.231508">
<ele>145.334106</ele>
<time>2010-07-17T11:15:33Z</time>
<desc>lat.=55.731297, lon.=26.231508, Alt.=145.334106m. Speed=0.972000m/h.</desc>
<speed>0.270000</speed>
</trkpt>
<trkpt lat="55.731297" lon="26.231510">
<ele>145.595825</ele>
<time>2010-07-17T11:15:34Z</time>
<desc>lat.=55.731297, lon.=26.231510, Alt.=145.595825m. Speed=1.044000m/h.</desc>
<speed>0.290000</speed>
</trkpt>
<trkpt lat="55.731300" lon="26.231512">
<ele>145.865356</ele>
<time>2010-07-17T11:15:35Z</time>
<desc>lat.=55.731300, lon.=26.231512, Alt.=145.865356m. Speed=1.116000m/h.</desc>
<speed>0.310000</speed>
</trkpt>
<trkpt lat="55.731316" lon="26.231518">
<ele>146.693481</ele>
<time>2010-07-17T11:15:36Z</time>
<desc>lat.=55.731316, lon.=26.231518, Alt.=146.693481m. Speed=1.188000m/h.</desc>
<speed>0.330000</speed>
</trkpt>
<trkpt lat="55.731323" lon="26.231522">
<ele>147.291138</ele>
<time>2010-07-17T11:15:37Z</time>
<desc>lat.=55.731323, lon.=26.231522, Alt.=147.291138m. Speed=1.296000m/h.</desc>
<speed>0.360000</speed>
</trkpt>
<trkpt lat="55.731335" lon="26.231524">
<ele>147.771606</ele>
<time>2010-07-17T11:15:38Z</time>
<desc>lat.=55.731335, lon.=26.231524, Alt.=147.771606m. Speed=1.368000m/h.</desc>
<speed>0.380000</speed>
</trkpt>
<trkpt lat="55.731346" lon="26.231520">
<ele>148.486450</ele>
<time>2010-07-17T11:15:39Z</time>
<desc>lat.=55.731346, lon.=26.231520, Alt.=148.486450m. Speed=1.440000m/h.</desc>
<speed>0.400000</speed>
</trkpt>
<trkpt lat="55.731354" lon="26.231524">
<ele>149.310669</ele>
<time>2010-07-17T11:15:40Z</time>
<desc>lat.=55.731354, lon.=26.231524, Alt.=149.310669m. Speed=1.476000m/h.</desc>
<speed>0.410000</speed>
</trkpt>
<trkpt lat="55.731361" lon="26.231527">
<ele>149.388794</ele>
<time>2010-07-17T11:15:41Z</time>
<desc>lat.=55.731361, lon.=26.231527, Alt.=149.388794m. Speed=1.512000m/h.</desc>
<speed>0.420000</speed>
</trkpt>
<trkpt lat="55.731365" lon="26.231529">
<ele>149.791138</ele>
<time>2010-07-17T11:15:42Z</time>
<desc>lat.=55.731365, lon.=26.231529, Alt.=149.791138m. Speed=1.404000m/h.</desc>
<speed>0.390000</speed>
</trkpt>
<trkpt lat="55.731365" lon="26.231531">
<ele>150.271606</ele>
<time>2010-07-17T11:15:43Z</time>
<desc>lat.=55.731365, lon.=26.231531, Alt.=150.271606m. Speed=1.224000m/h.</desc>
<speed>0.340000</speed>
</trkpt>
<trkpt lat="55.731365" lon="26.231529">
<ele>150.279419</ele>
<time>2010-07-17T11:15:44Z</time>
<desc>lat.=55.731365, lon.=26.231529, Alt.=150.279419m. Speed=1.044000m/h.</desc>
<speed>0.290000</speed>
</trkpt>
<trkpt lat="55.731369" lon="26.231529">
<ele>150.615356</ele>
<time>2010-07-17T11:15:45Z</time>
<desc>lat.=55.731369, lon.=26.231529, Alt.=150.615356m. Speed=0.900000m/h.</desc>
<speed>0.250000</speed>
</trkpt>
<trkpt lat="55.731369" lon="26.231529">
<ele>150.849731</ele>
<time>2010-07-17T11:15:46Z</time>
<desc>lat.=55.731369, lon.=26.231529, Alt.=150.849731m. Speed=0.828000m/h.</desc>
<speed>0.230000</speed>
</trkpt>
<trkpt lat="55.731373" lon="26.231531">
<ele>151.318481</ele>
<time>2010-07-17T11:15:47Z</time>
<desc>lat.=55.731373, lon.=26.231531, Alt.=151.318481m. Speed=0.684000m/h.</desc>
<speed>0.190000</speed>
</trkpt>
<trkpt lat="55.731373" lon="26.231533">
<ele>151.607544</ele>
<time>2010-07-17T11:15:48Z</time>
<desc>lat.=55.731373, lon.=26.231533, Alt.=151.607544m. Speed=0.828000m/h.</desc>
<speed>0.230000</speed>
</trkpt>
<trkpt lat="55.731377" lon="26.231533">
<ele>151.896606</ele>
<time>2010-07-17T11:15:49Z</time>
<desc>lat.=55.731377, lon.=26.231533, Alt.=151.896606m. Speed=0.756000m/h.</desc>
<speed>0.210000</speed>
</trkpt>
<trkpt lat="55.731377" lon="26.231533">
<ele>152.189575</ele>
<time>2010-07-17T11:15:50Z</time>
<desc>lat.=55.731377, lon.=26.231533, Alt.=152.189575m. Speed=0.720000m/h.</desc>
<speed>0.200000</speed>
</trkpt>
<trkpt lat="55.731380" lon="26.231535">
<ele>152.463013</ele>
<time>2010-07-17T11:15:51Z</time>
<desc>lat.=55.731380, lon.=26.231535, Alt.=152.463013m. Speed=0.720000m/h.</desc>
<speed>0.200000</speed>
</trkpt>
<trkpt lat="55.731380" lon="26.231535">
<ele>152.724731</ele>
<time>2010-07-17T11:15:52Z</time>
<desc>lat.=55.731380, lon.=26.231535, Alt.=152.724731m. Speed=0.504000m/h.</desc>
<speed>0.140000</speed>
</trkpt>
<trkpt lat="55.731384" lon="26.231535">
<ele>152.974731</ele>
<time>2010-07-17T11:15:53Z</time>
<desc>lat.=55.731384, lon.=26.231535, Alt.=152.974731m. Speed=0.360000m/h.</desc>
<speed>0.100000</speed>
</trkpt>
<trkpt lat="55.731384" lon="26.231535">
<ele>153.220825</ele>
<time>2010-07-17T11:15:54Z</time>
<desc>lat.=55.731384, lon.=26.231535, Alt.=153.220825m. Speed=0.288000m/h.</desc>
<speed>0.080000</speed>
</trkpt>
<trkpt lat="55.731384" lon="26.231535">
<ele>153.459106</ele>
<time>2010-07-17T11:15:55Z</time>
<desc>lat.=55.731384, lon.=26.231535, Alt.=153.459106m. Speed=0.216000m/h.</desc>
<speed>0.060000</speed>
</trkpt>
<trkpt lat="55.731384" lon="26.231535">
<ele>153.693481</ele>
<time>2010-07-17T11:15:56Z</time>
<desc>lat.=55.731384, lon.=26.231535, Alt.=153.693481m. Speed=0.180000m/h.</desc>
<speed>0.050000</speed>
</trkpt>
<trkpt lat="55.731384" lon="26.231535">
<ele>153.908325</ele>
<time>2010-07-17T11:15:57Z</time>
<desc>lat.=55.731384, lon.=26.231535, Alt.=153.908325m. Speed=0.108000m/h.</desc>
<speed>0.030000</speed>
</trkpt>
<trkpt lat="55.731384" lon="26.231535">
<ele>154.099731</ele>
<time>2010-07-17T11:15:58Z</time>
<desc>lat.=55.731384, lon.=26.231535, Alt.=154.099731m. Speed=0.180000m/h.</desc>
<speed>0.050000</speed>
</trkpt>
<trkpt lat="55.731384" lon="26.231535">
<ele>154.295044</ele>
<time>2010-07-17T11:15:59Z</time>
<desc>lat.=55.731384, lon.=26.231535, Alt.=154.295044m. Speed=0.216000m/h.</desc>
<speed>0.060000</speed>
</trkpt>
<trkpt lat="55.731384" lon="26.231535">
<ele>154.478638</ele>
<time>2010-07-17T11:16:00Z</time>
<desc>lat.=55.731384, lon.=26.231535, Alt.=154.478638m. Speed=0.252000m/h.</desc>
<speed>0.070000</speed>
</trkpt>
<trkpt lat="55.731380" lon="26.231535">
<ele>154.638794</ele>
<time>2010-07-17T11:16:01Z</time>
<desc>lat.=55.731380, lon.=26.231535, Alt.=154.638794m. Speed=0.504000m/h.</desc>
<speed>0.140000</speed>
</trkpt>
<trkpt lat="55.731380" lon="26.231535">
<ele>154.802856</ele>
<time>2010-07-17T11:16:02Z</time>
<desc>lat.=55.731380, lon.=26.231535, Alt.=154.802856m. Speed=0.576000m/h.</desc>
<speed>0.160000</speed>
</trkpt>
<trkpt lat="55.731380" lon="26.231535">
<ele>154.931763</ele>
<time>2010-07-17T11:16:03Z</time>
<desc>lat.=55.731380, lon.=26.231535, Alt.=154.931763m. Speed=0.900000m/h.</desc>
<speed>0.250000</speed>
</trkpt>
<trkpt lat="55.731377" lon="26.231533">
<ele>155.072388</ele>
<time>2010-07-17T11:16:04Z</time>
<desc>lat.=55.731377, lon.=26.231533, Alt.=155.072388m. Speed=1.008000m/h.</desc>
<speed>0.280000</speed>
</trkpt>
<trkpt lat="55.731373" lon="26.231533">
<ele>155.209106</ele>
<time>2010-07-17T11:16:05Z</time>
<desc>lat.=55.731373, lon.=26.231533, Alt.=155.209106m. Speed=1.152000m/h.</desc>
<speed>0.320000</speed>
</trkpt>
<trkpt lat="55.731365" lon="26.231527">
<ele>155.236450</ele>
<time>2010-07-17T11:16:06Z</time>
<desc>lat.=55.731365, lon.=26.231527, Alt.=155.236450m. Speed=1.188000m/h.</desc>
<speed>0.330000</speed>
</trkpt>
<trkpt lat="55.731361" lon="26.231524">
<ele>155.099731</ele>
<time>2010-07-17T11:16:07Z</time>
<desc>lat.=55.731361, lon.=26.231524, Alt.=155.099731m. Speed=1.188000m/h.</desc>
<speed>0.330000</speed>
</trkpt>
<trkpt lat="55.731350" lon="26.231520">
<ele>155.330200</ele>
<time>2010-07-17T11:16:08Z</time>
<desc>lat.=55.731350, lon.=26.231520, Alt.=155.330200m. Speed=1.296000m/h.</desc>
<speed>0.360000</speed>
</trkpt>
<trkpt lat="55.731342" lon="26.231518">
<ele>155.525513</ele>
<time>2010-07-17T11:16:09Z</time>
<desc>lat.=55.731342, lon.=26.231518, Alt.=155.525513m. Speed=1.332000m/h.</desc>
<speed>0.370000</speed>
</trkpt>
<trkpt lat="55.731346" lon="26.231525">
<ele>155.978638</ele>
<time>2010-07-17T11:16:10Z</time>
<desc>lat.=55.731346, lon.=26.231525, Alt.=155.978638m. Speed=0.972000m/h.</desc>
<speed>0.270000</speed>
</trkpt>
<trkpt lat="55.731346" lon="26.231529">
<ele>156.033325</ele>
<time>2010-07-17T11:16:11Z</time>
<desc>lat.=55.731346, lon.=26.231529, Alt.=156.033325m. Speed=0.792000m/h.</desc>
<speed>0.220000</speed>
</trkpt>
<trkpt lat="55.731346" lon="26.231525">
<ele>155.982544</ele>
<time>2010-07-17T11:16:12Z</time>
<desc>lat.=55.731346, lon.=26.231525, Alt.=155.982544m. Speed=0.540000m/h.</desc>
<speed>0.150000</speed>
</trkpt>
<trkpt lat="55.731346" lon="26.231520">
<ele>155.689575</ele>
<time>2010-07-17T11:16:13Z</time>
<desc>lat.=55.731346, lon.=26.231520, Alt.=155.689575m. Speed=0.432000m/h.</desc>
<speed>0.120000</speed>
</trkpt>
<trkpt lat="55.731346" lon="26.231520">
<ele>155.787231</ele>
<time>2010-07-17T11:16:14Z</time>
<desc>lat.=55.731346, lon.=26.231520, Alt.=155.787231m. Speed=0.468000m/h.</desc>
<speed>0.130000</speed>
</trkpt>
<trkpt lat="55.731342" lon="26.231520">
<ele>155.873169</ele>
<time>2010-07-17T11:16:15Z</time>
<desc>lat.=55.731342, lon.=26.231520, Alt.=155.873169m. Speed=0.396000m/h.</desc>
<speed>0.110000</speed>
</trkpt>
<trkpt lat="55.731342" lon="26.231520">
<ele>155.955200</ele>
<time>2010-07-17T11:16:16Z</time>
<desc>lat.=55.731342, lon.=26.231520, Alt.=155.955200m. Speed=0.432000m/h.</desc>
<speed>0.120000</speed>
</trkpt>
<trkpt lat="55.731342" lon="26.231520">
<ele>156.013794</ele>
<time>2010-07-17T11:16:17Z</time>
<desc>lat.=55.731342, lon.=26.231520, Alt.=156.013794m. Speed=0.432000m/h.</desc>
<speed>0.120000</speed>
</trkpt>
<trkpt lat="55.731339" lon="26.231520">
<ele>156.060669</ele>
<time>2010-07-17T11:16:18Z</time>
<desc>lat.=55.731339, lon.=26.231520, Alt.=156.060669m. Speed=0.252000m/h.</desc>
<speed>0.070000</speed>
</trkpt>
<trkpt lat="55.731339" lon="26.231520">
<ele>156.088013</ele>
<time>2010-07-17T11:16:19Z</time>
<desc>lat.=55.731339, lon.=26.231520, Alt.=156.088013m. Speed=0.000000m/h.</desc>
<speed>0.000000</speed>
</trkpt>
<trkpt lat="55.731339" lon="26.231520">
<ele>156.099731</ele>
<time>2010-07-17T11:16:20Z</time>
<desc>lat.=55.731339, lon.=26.231520, Alt.=156.099731m. Speed=0.288000m/h.</desc>
<speed>0.080000</speed>
</trkpt>
<trkpt lat="55.731342" lon="26.231520">
<ele>156.088013</ele>
<time>2010-07-17T11:16:21Z</time>
<desc>lat.=55.731342, lon.=26.231520, Alt.=156.088013m. Speed=0.432000m/h.</desc>
<speed>0.120000</speed>
</trkpt>
<trkpt lat="55.731342" lon="26.231522">
<ele>156.064575</ele>
<time>2010-07-17T11:16:22Z</time>
<desc>lat.=55.731342, lon.=26.231522, Alt.=156.064575m. Speed=0.828000m/h.</desc>
<speed>0.230000</speed>
</trkpt>
<trkpt lat="55.731346" lon="26.231522">
<ele>156.013794</ele>
<time>2010-07-17T11:16:23Z</time>
<desc>lat.=55.731346, lon.=26.231522, Alt.=156.013794m. Speed=0.972000m/h.</desc>
<speed>0.270000</speed>
</trkpt>
<trkpt lat="55.731346" lon="26.231522">
<ele>155.939575</ele>
<time>2010-07-17T11:16:24Z</time>
<desc>lat.=55.731346, lon.=26.231522, Alt.=155.939575m. Speed=1.188000m/h.</desc>
<speed>0.330000</speed>
</trkpt>
<trkpt lat="55.731361" lon="26.231524">
<ele>154.888794</ele>
<time>2010-07-17T11:16:25Z</time>
<desc>lat.=55.731361, lon.=26.231524, Alt.=154.888794m. Speed=1.296000m/h.</desc>
<speed>0.360000</speed>
</trkpt>
<trkpt lat="55.731358" lon="26.231522">
<ele>153.982544</ele>
<time>2010-07-17T11:16:26Z</time>
<desc>lat.=55.731358, lon.=26.231522, Alt.=153.982544m. Speed=0.144000m/h.</desc>
<speed>0.040000</speed>
</trkpt>
<trkpt lat="55.731361" lon="26.231520">
<ele>152.752075</ele>
<time>2010-07-17T11:16:27Z</time>
<desc>lat.=55.731361, lon.=26.231520, Alt.=152.752075m. Speed=0.180000m/h.</desc>
<speed>0.050000</speed>
</trkpt>
<trkpt lat="55.731369" lon="26.231518">
<ele>151.459106</ele>
<time>2010-07-17T11:16:28Z</time>
<desc>lat.=55.731369, lon.=26.231518, Alt.=151.459106m. Speed=0.180000m/h.</desc>
<speed>0.050000</speed>
</trkpt>
<trkpt lat="55.731373" lon="26.231514">
<ele>150.666138</ele>
<time>2010-07-17T11:16:29Z</time>
<desc>lat.=55.731373, lon.=26.231514, Alt.=150.666138m. Speed=0.324000m/h.</desc>
<speed>0.090000</speed>
</trkpt>
<trkpt lat="55.731369" lon="26.231512">
<ele>150.517700</ele>
<time>2010-07-17T11:16:30Z</time>
<desc>lat.=55.731369, lon.=26.231512, Alt.=150.517700m. Speed=0.360000m/h.</desc>
<speed>0.100000</speed>
</trkpt>
<trkpt lat="55.731369" lon="26.231512">
<ele>150.357544</ele>
<time>2010-07-17T11:16:31Z</time>
<desc>lat.=55.731369, lon.=26.231512, Alt.=150.357544m. Speed=0.468000m/h.</desc>
<speed>0.130000</speed>
</trkpt>
<trkpt lat="55.731369" lon="26.231512">
<ele>150.185669</ele>
<time>2010-07-17T11:16:32Z</time>
<desc>lat.=55.731369, lon.=26.231512, Alt.=150.185669m. Speed=0.468000m/h.</desc>
<speed>0.130000</speed>
</trkpt>
<trkpt lat="55.731369" lon="26.231510">
<ele>149.994263</ele>
<time>2010-07-17T11:16:33Z</time>
<desc>lat.=55.731369, lon.=26.231510, Alt.=149.994263m. Speed=0.576000m/h.</desc>
<speed>0.160000</speed>
</trkpt>
<trkpt lat="55.731365" lon="26.231510">
<ele>149.791138</ele>
<time>2010-07-17T11:16:34Z</time>
<desc>lat.=55.731365, lon.=26.231510, Alt.=149.791138m. Speed=0.576000m/h.</desc>
<speed>0.160000</speed>
</trkpt>
<trkpt lat="55.731365" lon="26.231508">
<ele>149.588013</ele>
<time>2010-07-17T11:16:35Z</time>
<desc>lat.=55.731365, lon.=26.231508, Alt.=149.588013m. Speed=0.612000m/h.</desc>
<speed>0.170000</speed>
</trkpt>
<trkpt lat="55.731365" lon="26.231508">
<ele>149.380981</ele>
<time>2010-07-17T11:16:36Z</time>
<desc>lat.=55.731365, lon.=26.231508, Alt.=149.380981m. Speed=0.576000m/h.</desc>
<speed>0.160000</speed>
</trkpt>
<trkpt lat="55.731361" lon="26.231506">
<ele>149.166138</ele>
<time>2010-07-17T11:16:37Z</time>
<desc>lat.=55.731361, lon.=26.231506, Alt.=149.166138m. Speed=0.504000m/h.</desc>
<speed>0.140000</speed>
</trkpt>
<trkpt lat="55.731361" lon="26.231506">
<ele>148.943481</ele>
<time>2010-07-17T11:16:38Z</time>
<desc>lat.=55.731361, lon.=26.231506, Alt.=148.943481m. Speed=0.540000m/h.</desc>
<speed>0.150000</speed>
</trkpt>
<trkpt lat="55.731361" lon="26.231504">
<ele>148.724731</ele>
<time>2010-07-17T11:16:39Z</time>
<desc>lat.=55.731361, lon.=26.231504, Alt.=148.724731m. Speed=0.612000m/h.</desc>
<speed>0.170000</speed>
</trkpt>
<trkpt lat="55.731358" lon="26.231504">
<ele>148.505981</ele>
<time>2010-07-17T11:16:40Z</time>
<desc>lat.=55.731358, lon.=26.231504, Alt.=148.505981m. Speed=0.720000m/h.</desc>
<speed>0.200000</speed>
</trkpt>
<trkpt lat="55.731358" lon="26.231503">
<ele>148.291138</ele>
<time>2010-07-17T11:16:41Z</time>
<desc>lat.=55.731358, lon.=26.231503, Alt.=148.291138m. Speed=0.648000m/h.</desc>
<speed>0.180000</speed>
</trkpt>
<trkpt lat="55.731358" lon="26.231503">
<ele>148.076294</ele>
<time>2010-07-17T11:16:42Z</time>
<desc>lat.=55.731358, lon.=26.231503, Alt.=148.076294m. Speed=0.684000m/h.</desc>
<speed>0.190000</speed>
</trkpt>
<trkpt lat="55.731354" lon="26.231501">
<ele>147.873169</ele>
<time>2010-07-17T11:16:43Z</time>
<desc>lat.=55.731354, lon.=26.231501, Alt.=147.873169m. Speed=0.612000m/h.</desc>
<speed>0.170000</speed>
</trkpt>
<trkpt lat="55.731354" lon="26.231501">
<ele>147.670044</ele>
<time>2010-07-17T11:16:44Z</time>
<desc>lat.=55.731354, lon.=26.231501, Alt.=147.670044m. Speed=0.648000m/h.</desc>
<speed>0.180000</speed>
</trkpt>
<trkpt lat="55.731350" lon="26.231499">
<ele>147.463013</ele>
<time>2010-07-17T11:16:45Z</time>
<desc>lat.=55.731350, lon.=26.231499, Alt.=147.463013m. Speed=0.432000m/h.</desc>
<speed>0.120000</speed>
</trkpt>
<trkpt lat="55.731350" lon="26.231497">
<ele>147.255981</ele>
<time>2010-07-17T11:16:46Z</time>
<desc>lat.=55.731350, lon.=26.231497, Alt.=147.255981m. Speed=0.684000m/h.</desc>
<speed>0.190000</speed>
</trkpt>
<trkpt lat="55.731350" lon="26.231495">
<ele>147.052856</ele>
<time>2010-07-17T11:16:47Z</time>
<desc>lat.=55.731350, lon.=26.231495, Alt.=147.052856m. Speed=0.576000m/h.</desc>
<speed>0.160000</speed>
</trkpt>
<trkpt lat="55.731350" lon="26.231493">
<ele>146.853638</ele>
<time>2010-07-17T11:16:48Z</time>
<desc>lat.=55.731350, lon.=26.231493, Alt.=146.853638m. Speed=0.576000m/h.</desc>
<speed>0.160000</speed>
</trkpt>
<trkpt lat="55.731346" lon="26.231493">
<ele>146.650513</ele>
<time>2010-07-17T11:16:49Z</time>
<desc>lat.=55.731346, lon.=26.231493, Alt.=146.650513m. Speed=0.576000m/h.</desc>
<speed>0.160000</speed>
</trkpt>
<trkpt lat="55.731346" lon="26.231491">
<ele>146.439575</ele>
<time>2010-07-17T11:16:50Z</time>
<desc>lat.=55.731346, lon.=26.231491, Alt.=146.439575m. Speed=0.648000m/h.</desc>
<speed>0.180000</speed>
</trkpt>
<trkpt lat="55.731342" lon="26.231491">
<ele>146.216919</ele>
<time>2010-07-17T11:16:51Z</time>
<desc>lat.=55.731342, lon.=26.231491, Alt.=146.216919m. Speed=0.612000m/h.</desc>
<speed>0.170000</speed>
</trkpt>
<trkpt lat="55.731342" lon="26.231491">
<ele>145.998169</ele>
<time>2010-07-17T11:16:52Z</time>
<desc>lat.=55.731342, lon.=26.231491, Alt.=145.998169m. Speed=0.540000m/h.</desc>
<speed>0.150000</speed>
</trkpt>
<trkpt lat="55.731342" lon="26.231491">
<ele>145.775513</ele>
<time>2010-07-17T11:16:53Z</time>
<desc>lat.=55.731342, lon.=26.231491, Alt.=145.775513m. Speed=0.360000m/h.</desc>
<speed>0.100000</speed>
</trkpt>
<trkpt lat="55.731339" lon="26.231491">
<ele>145.552856</ele>
<time>2010-07-17T11:16:54Z</time>
<desc>lat.=55.731339, lon.=26.231491, Alt.=145.552856m. Speed=0.252000m/h.</desc>
<speed>0.070000</speed>
</trkpt>
<trkpt lat="55.731339" lon="26.231491">
<ele>145.314575</ele>
<time>2010-07-17T11:16:55Z</time>
<desc>lat.=55.731339, lon.=26.231491, Alt.=145.314575m. Speed=0.216000m/h.</desc>
<speed>0.060000</speed>
</trkpt>
<trkpt lat="55.731339" lon="26.231491">
<ele>145.064575</ele>
<time>2010-07-17T11:16:56Z</time>
<desc>lat.=55.731339, lon.=26.231491, Alt.=145.064575m. Speed=0.144000m/h.</desc>
<speed>0.040000</speed>
</trkpt>
<trkpt lat="55.731339" lon="26.231491">
<ele>144.810669</ele>
<time>2010-07-17T11:16:57Z</time>
<desc>lat.=55.731339, lon.=26.231491, Alt.=144.810669m. Speed=0.108000m/h.</desc>
<speed>0.030000</speed>
</trkpt>
<trkpt lat="55.731339" lon="26.231491">
<ele>144.548950</ele>
<time>2010-07-17T11:16:58Z</time>
<desc>lat.=55.731339, lon.=26.231491, Alt.=144.548950m. Speed=0.072000m/h.</desc>
<speed>0.020000</speed>
</trkpt>
<trkpt lat="55.731339" lon="26.231491">
<ele>144.283325</ele>
<time>2010-07-17T11:16:59Z</time>
<desc>lat.=55.731339, lon.=26.231491, Alt.=144.283325m. Speed=0.144000m/h.</desc>
<speed>0.040000</speed>
</trkpt>
<trkpt lat="55.731339" lon="26.231491">
<ele>144.009888</ele>
<time>2010-07-17T11:17:00Z</time>
<desc>lat.=55.731339, lon.=26.231491, Alt.=144.009888m. Speed=0.180000m/h.</desc>
<speed>0.050000</speed>
</trkpt>
<trkpt lat="55.731339" lon="26.231491">
<ele>143.724731</ele>
<time>2010-07-17T11:17:01Z</time>
<desc>lat.=55.731339, lon.=26.231491, Alt.=143.724731m. Speed=0.288000m/h.</desc>
<speed>0.080000</speed>
</trkpt>
<trkpt lat="55.731339" lon="26.231493">
<ele>143.431763</ele>
<time>2010-07-17T11:17:02Z</time>
<desc>lat.=55.731339, lon.=26.231493, Alt.=143.431763m. Speed=0.504000m/h.</desc>
<speed>0.140000</speed>
</trkpt>
<trkpt lat="55.731342" lon="26.231495">
<ele>143.130981</ele>
<time>2010-07-17T11:17:03Z</time>
<desc>lat.=55.731342, lon.=26.231495, Alt.=143.130981m. Speed=0.540000m/h.</desc>
<speed>0.150000</speed>
</trkpt>
<trkpt lat="55.731342" lon="26.231495">
<ele>142.826294</ele>
<time>2010-07-17T11:17:04Z</time>
<desc>lat.=55.731342, lon.=26.231495, Alt.=142.826294m. Speed=0.720000m/h.</desc>
<speed>0.200000</speed>
</trkpt>
<trkpt lat="55.731342" lon="26.231499">
<ele>142.517700</ele>
<time>2010-07-17T11:17:05Z</time>
<desc>lat.=55.731342, lon.=26.231499, Alt.=142.517700m. Speed=0.900000m/h.</desc>
<speed>0.250000</speed>
</trkpt>
<trkpt lat="55.731346" lon="26.231501">
<ele>142.248169</ele>
<time>2010-07-17T11:17:06Z</time>
<desc>lat.=55.731346, lon.=26.231501, Alt.=142.248169m. Speed=0.972000m/h.</desc>
<speed>0.270000</speed>
</trkpt>
<trkpt lat="55.731346" lon="26.231503">
<ele>142.041138</ele>
<time>2010-07-17T11:17:07Z</time>
<desc>lat.=55.731346, lon.=26.231503, Alt.=142.041138m. Speed=1.044000m/h.</desc>
<speed>0.290000</speed>
</trkpt>
<trkpt lat="55.731350" lon="26.231506">
<ele>141.834106</ele>
<time>2010-07-17T11:17:08Z</time>
<desc>lat.=55.731350, lon.=26.231506, Alt.=141.834106m. Speed=0.972000m/h.</desc>
<speed>0.270000</speed>
</trkpt>
<trkpt lat="55.731354" lon="26.231508">
<ele>141.627075</ele>
<time>2010-07-17T11:17:09Z</time>
<desc>lat.=55.731354, lon.=26.231508, Alt.=141.627075m. Speed=1.044000m/h.</desc>
<speed>0.290000</speed>
</trkpt>
<trkpt lat="55.731354" lon="26.231510">
<ele>141.412231</ele>
<time>2010-07-17T11:17:10Z</time>
<desc>lat.=55.731354, lon.=26.231510, Alt.=141.412231m. Speed=0.828000m/h.</desc>
<speed>0.230000</speed>
</trkpt>
<trkpt lat="55.731358" lon="26.231512">
<ele>141.197388</ele>
<time>2010-07-17T11:17:11Z</time>
<desc>lat.=55.731358, lon.=26.231512, Alt.=141.197388m. Speed=0.504000m/h.</desc>
<speed>0.140000</speed>
</trkpt>
<trkpt lat="55.731358" lon="26.231514">
<ele>140.982544</ele>
<time>2010-07-17T11:17:12Z</time>
<desc>lat.=55.731358, lon.=26.231514, Alt.=140.982544m. Speed=0.360000m/h.</desc>
<speed>0.100000</speed>
</trkpt>
<trkpt lat="55.731358" lon="26.231514">
<ele>140.767700</ele>
<time>2010-07-17T11:17:13Z</time>
<desc>lat.=55.731358, lon.=26.231514, Alt.=140.767700m. Speed=0.180000m/h.</desc>
<speed>0.050000</speed>
</trkpt>
<trkpt lat="55.731358" lon="26.231516">
<ele>140.560669</ele>
<time>2010-07-17T11:17:14Z</time>
<desc>lat.=55.731358, lon.=26.231516, Alt.=140.560669m. Speed=0.072000m/h.</desc>
<speed>0.020000</speed>
</trkpt>
<trkpt lat="55.731358" lon="26.231516">
<ele>140.353638</ele>
<time>2010-07-17T11:17:15Z</time>
<desc>lat.=55.731358, lon.=26.231516, Alt.=140.353638m. Speed=0.180000m/h.</desc>
<speed>0.050000</speed>
</trkpt>
<trkpt lat="55.731358" lon="26.231514">
<ele>140.146606</ele>
<time>2010-07-17T11:17:16Z</time>
<desc>lat.=55.731358, lon.=26.231514, Alt.=140.146606m. Speed=0.396000m/h.</desc>
<speed>0.110000</speed>
</trkpt>
<trkpt lat="55.731358" lon="26.231514">
<ele>139.923950</ele>
<time>2010-07-17T11:17:17Z</time>
<desc>lat.=55.731358, lon.=26.231514, Alt.=139.923950m. Speed=0.324000m/h.</desc>
<speed>0.090000</speed>
</trkpt>
<trkpt lat="55.731354" lon="26.231512">
<ele>139.709106</ele>
<time>2010-07-17T11:17:18Z</time>
<desc>lat.=55.731354, lon.=26.231512, Alt.=139.709106m. Speed=0.540000m/h.</desc>
<speed>0.150000</speed>
</trkpt>
<trkpt lat="55.731354" lon="26.231512">
<ele>139.494263</ele>
<time>2010-07-17T11:17:19Z</time>
<desc>lat.=55.731354, lon.=26.231512, Alt.=139.494263m. Speed=0.612000m/h.</desc>
<speed>0.170000</speed>
</trkpt>
<trkpt lat="55.731354" lon="26.231512">
<ele>139.287231</ele>
<time>2010-07-17T11:17:20Z</time>
<desc>lat.=55.731354, lon.=26.231512, Alt.=139.287231m. Speed=0.684000m/h.</desc>
<speed>0.190000</speed>
</trkpt>
<trkpt lat="55.731350" lon="26.231510">
<ele>139.088013</ele>
<time>2010-07-17T11:17:21Z</time>
<desc>lat.=55.731350, lon.=26.231510, Alt.=139.088013m. Speed=0.792000m/h.</desc>
<speed>0.220000</speed>
</trkpt>
<trkpt lat="55.731350" lon="26.231508">
<ele>138.888794</ele>
<time>2010-07-17T11:17:22Z</time>
<desc>lat.=55.731350, lon.=26.231508, Alt.=138.888794m. Speed=0.648000m/h.</desc>
<speed>0.180000</speed>
</trkpt>
<trkpt lat="55.731346" lon="26.231508">
<ele>138.693481</ele>
<time>2010-07-17T11:17:23Z</time>
<desc>lat.=55.731346, lon.=26.231508, Alt.=138.693481m. Speed=0.504000m/h.</desc>
<speed>0.140000</speed>
</trkpt>
<trkpt lat="55.731346" lon="26.231506">
<ele>138.502075</ele>
<time>2010-07-17T11:17:24Z</time>
<desc>lat.=55.731346, lon.=26.231506, Alt.=138.502075m. Speed=0.612000m/h.</desc>
<speed>0.170000</speed>
</trkpt>
<trkpt lat="55.731342" lon="26.231506">
<ele>138.310669</ele>
<time>2010-07-17T11:17:25Z</time>
<desc>lat.=55.731342, lon.=26.231506, Alt.=138.310669m. Speed=0.648000m/h.</desc>
<speed>0.180000</speed>
</trkpt>
<trkpt lat="55.731342" lon="26.231504">
<ele>138.119263</ele>
<time>2010-07-17T11:17:26Z</time>
<desc>lat.=55.731342, lon.=26.231504, Alt.=138.119263m. Speed=0.684000m/h.</desc>
<speed>0.190000</speed>
</trkpt>
<trkpt lat="55.731342" lon="26.231503">
<ele>137.927856</ele>
<time>2010-07-17T11:17:27Z</time>
<desc>lat.=55.731342, lon.=26.231503, Alt.=137.927856m. Speed=0.720000m/h.</desc>
<speed>0.200000</speed>
</trkpt>
<trkpt lat="55.731339" lon="26.231501">
<ele>137.744263</ele>
<time>2010-07-17T11:17:28Z</time>
<desc>lat.=55.731339, lon.=26.231501, Alt.=137.744263m. Speed=0.720000m/h.</desc>
<speed>0.200000</speed>
</trkpt>
<trkpt lat="55.731339" lon="26.231499">
<ele>137.568481</ele>
<time>2010-07-17T11:17:29Z</time>
<desc>lat.=55.731339, lon.=26.231499, Alt.=137.568481m. Speed=0.612000m/h.</desc>
<speed>0.170000</speed>
</trkpt>
<trkpt lat="55.731339" lon="26.231497">
<ele>137.380981</ele>
<time>2010-07-17T11:17:30Z</time>
<desc>lat.=55.731339, lon.=26.231497, Alt.=137.380981m. Speed=0.576000m/h.</desc>
<speed>0.160000</speed>
</trkpt>
<trkpt lat="55.731335" lon="26.231495">
<ele>137.185669</ele>
<time>2010-07-17T11:17:31Z</time>
<desc>lat.=55.731335, lon.=26.231495, Alt.=137.185669m. Speed=0.324000m/h.</desc>
<speed>0.090000</speed>
</trkpt>
<trkpt lat="55.731335" lon="26.231495">
<ele>136.990356</ele>
<time>2010-07-17T11:17:32Z</time>
<desc>lat.=55.731335, lon.=26.231495, Alt.=136.990356m. Speed=0.324000m/h.</desc>
<speed>0.090000</speed>
</trkpt>
<trkpt lat="55.731335" lon="26.231493">
<ele>136.787231</ele>
<time>2010-07-17T11:17:33Z</time>
<desc>lat.=55.731335, lon.=26.231493, Alt.=136.787231m. Speed=0.288000m/h.</desc>
<speed>0.080000</speed>
</trkpt>
<trkpt lat="55.731335" lon="26.231493">
<ele>136.580200</ele>
<time>2010-07-17T11:17:34Z</time>
<desc>lat.=55.731335, lon.=26.231493, Alt.=136.580200m. Speed=0.432000m/h.</desc>
<speed>0.120000</speed>
</trkpt>
<trkpt lat="55.731331" lon="26.231493">
<ele>136.373169</ele>
<time>2010-07-17T11:17:35Z</time>
<desc>lat.=55.731331, lon.=26.231493, Alt.=136.373169m. Speed=0.396000m/h.</desc>
<speed>0.110000</speed>
</trkpt>
<trkpt lat="55.731331" lon="26.231491">
<ele>136.166138</ele>
<time>2010-07-17T11:17:36Z</time>
<desc>lat.=55.731331, lon.=26.231491, Alt.=136.166138m. Speed=0.288000m/h.</desc>
<speed>0.080000</speed>
</trkpt>
<trkpt lat="55.731331" lon="26.231491">
<ele>135.951294</ele>
<time>2010-07-17T11:17:37Z</time>
<desc>lat.=55.731331, lon.=26.231491, Alt.=135.951294m. Speed=0.216000m/h.</desc>
<speed>0.060000</speed>
</trkpt>
<trkpt lat="55.731331" lon="26.231491">
<ele>135.744263</ele>
<time>2010-07-17T11:17:38Z</time>
<desc>lat.=55.731331, lon.=26.231491, Alt.=135.744263m. Speed=0.252000m/h.</desc>
<speed>0.070000</speed>
</trkpt>
<trkpt lat="55.731331" lon="26.231489">
<ele>135.537231</ele>
<time>2010-07-17T11:17:39Z</time>
<desc>lat.=55.731331, lon.=26.231489, Alt.=135.537231m. Speed=0.432000m/h.</desc>
<speed>0.120000</speed>
</trkpt>
<trkpt lat="55.731327" lon="26.231489">
<ele>135.334106</ele>
<time>2010-07-17T11:17:40Z</time>
<desc>lat.=55.731327, lon.=26.231489, Alt.=135.334106m. Speed=0.468000m/h.</desc>
<speed>0.130000</speed>
</trkpt>
<trkpt lat="55.731327" lon="26.231489">
<ele>135.146606</ele>
<time>2010-07-17T11:17:41Z</time>
<desc>lat.=55.731327, lon.=26.231489, Alt.=135.146606m. Speed=0.756000m/h.</desc>
<speed>0.210000</speed>
</trkpt>
<trkpt lat="55.731327" lon="26.231487">
<ele>134.966919</ele>
<time>2010-07-17T11:17:42Z</time>
<desc>lat.=55.731327, lon.=26.231487, Alt.=134.966919m. Speed=0.684000m/h.</desc>
<speed>0.190000</speed>
</trkpt>
<trkpt lat="55.731323" lon="26.231485">
<ele>134.802856</ele>
<time>2010-07-17T11:17:43Z</time>
<desc>lat.=55.731323, lon.=26.231485, Alt.=134.802856m. Speed=0.612000m/h.</desc>
<speed>0.170000</speed>
</trkpt>
<trkpt lat="55.731323" lon="26.231485">
<ele>134.638794</ele>
<time>2010-07-17T11:17:44Z</time>
<desc>lat.=55.731323, lon.=26.231485, Alt.=134.638794m. Speed=0.648000m/h.</desc>
<speed>0.180000</speed>
</trkpt>
<trkpt lat="55.731319" lon="26.231483">
<ele>134.478638</ele>
<time>2010-07-17T11:17:45Z</time>
<desc>lat.=55.731319, lon.=26.231483, Alt.=134.478638m. Speed=0.648000m/h.</desc>
<speed>0.180000</speed>
</trkpt>
<trkpt lat="55.731319" lon="26.231482">
<ele>134.326294</ele>
<time>2010-07-17T11:17:46Z</time>
<desc>lat.=55.731319, lon.=26.231482, Alt.=134.326294m. Speed=0.648000m/h.</desc>
<speed>0.180000</speed>
</trkpt>
<trkpt lat="55.731319" lon="26.231482">
<ele>134.177856</ele>
<time>2010-07-17T11:17:47Z</time>
<desc>lat.=55.731319, lon.=26.231482, Alt.=134.177856m. Speed=0.576000m/h.</desc>
<speed>0.160000</speed>
</trkpt>
<trkpt lat="55.731316" lon="26.231480">
<ele>134.041138</ele>
<time>2010-07-17T11:17:48Z</time>
<desc>lat.=55.731316, lon.=26.231480, Alt.=134.041138m. Speed=0.468000m/h.</desc>
<speed>0.130000</speed>
</trkpt>
<trkpt lat="55.731316" lon="26.231480">
<ele>133.923950</ele>
<time>2010-07-17T11:17:49Z</time>
<desc>lat.=55.731316, lon.=26.231480, Alt.=133.923950m. Speed=0.324000m/h.</desc>
<speed>0.090000</speed>
</trkpt>
<trkpt lat="55.731316" lon="26.231480">
<ele>133.814575</ele>
<time>2010-07-17T11:17:50Z</time>
<desc>lat.=55.731316, lon.=26.231480, Alt.=133.814575m. Speed=0.288000m/h.</desc>
<speed>0.080000</speed>
</trkpt>
<trkpt lat="55.731312" lon="26.231480">
<ele>133.724731</ele>
<time>2010-07-17T11:17:51Z</time>
<desc>lat.=55.731312, lon.=26.231480, Alt.=133.724731m. Speed=0.504000m/h.</desc>
<speed>0.140000</speed>
</trkpt>
<trkpt lat="55.731312" lon="26.231480">
<ele>133.646606</ele>
<time>2010-07-17T11:17:52Z</time>
<desc>lat.=55.731312, lon.=26.231480, Alt.=133.646606m. Speed=0.288000m/h.</desc>
<speed>0.080000</speed>
</trkpt>
<trkpt lat="55.731312" lon="26.231478">
<ele>133.568481</ele>
<time>2010-07-17T11:17:53Z</time>
<desc>lat.=55.731312, lon.=26.231478, Alt.=133.568481m. Speed=0.180000m/h.</desc>
<speed>0.050000</speed>
</trkpt>
<trkpt lat="55.731312" lon="26.231478">
<ele>133.490356</ele>
<time>2010-07-17T11:17:54Z</time>
<desc>lat.=55.731312, lon.=26.231478, Alt.=133.490356m. Speed=0.288000m/h.</desc>
<speed>0.080000</speed>
</trkpt>
<trkpt lat="55.731312" lon="26.231478">
<ele>133.420044</ele>
<time>2010-07-17T11:17:55Z</time>
<desc>lat.=55.731312, lon.=26.231478, Alt.=133.420044m. Speed=0.324000m/h.</desc>
<speed>0.090000</speed>
</trkpt>
<trkpt lat="55.731312" lon="26.231476">
<ele>133.349731</ele>
<time>2010-07-17T11:17:56Z</time>
<desc>lat.=55.731312, lon.=26.231476, Alt.=133.349731m. Speed=0.144000m/h.</desc>
<speed>0.040000</speed>
</trkpt>
<trkpt lat="55.731308" lon="26.231476">
<ele>133.291138</ele>
<time>2010-07-17T11:17:57Z</time>
<desc>lat.=55.731308, lon.=26.231476, Alt.=133.291138m. Speed=0.144000m/h.</desc>
<speed>0.040000</speed>
</trkpt>
<trkpt lat="55.731308" lon="26.231476">
<ele>133.232544</ele>
<time>2010-07-17T11:17:58Z</time>
<desc>lat.=55.731308, lon.=26.231476, Alt.=133.232544m. Speed=0.216000m/h.</desc>
<speed>0.060000</speed>
</trkpt>
<trkpt lat="55.731308" lon="26.231474">
<ele>133.185669</ele>
<time>2010-07-17T11:17:59Z</time>
<desc>lat.=55.731308, lon.=26.231474, Alt.=133.185669m. Speed=0.180000m/h.</desc>
<speed>0.050000</speed>
</trkpt>
<trkpt lat="55.731308" lon="26.231474">
<ele>133.138794</ele>
<time>2010-07-17T11:18:00Z</time>
<desc>lat.=55.731308, lon.=26.231474, Alt.=133.138794m. Speed=0.144000m/h.</desc>
<speed>0.040000</speed>
</trkpt>
<trkpt lat="55.731308" lon="26.231474">
<ele>133.103638</ele>
<time>2010-07-17T11:18:01Z</time>
<desc>lat.=55.731308, lon.=26.231474, Alt.=133.103638m. Speed=0.180000m/h.</desc>
<speed>0.050000</speed>
</trkpt>
<trkpt lat="55.731308" lon="26.231474">
<ele>133.076294</ele>
<time>2010-07-17T11:18:02Z</time>
<desc>lat.=55.731308, lon.=26.231474, Alt.=133.076294m. Speed=0.036000m/h.</desc>
<speed>0.010000</speed>
</trkpt>
<trkpt lat="55.731308" lon="26.231474">
<ele>133.060669</ele>
<time>2010-07-17T11:18:03Z</time>
<desc>lat.=55.731308, lon.=26.231474, Alt.=133.060669m. Speed=0.036000m/h.</desc>
<speed>0.010000</speed>
</trkpt>
<trkpt lat="55.731308" lon="26.231474">
<ele>133.048950</ele>
<time>2010-07-17T11:18:04Z</time>
<desc>lat.=55.731308, lon.=26.231474, Alt.=133.048950m. Speed=0.036000m/h.</desc>
<speed>0.010000</speed>
</trkpt>
<trkpt lat="55.731308" lon="26.231474">
<ele>133.045044</ele>
<time>2010-07-17T11:18:05Z</time>
<desc>lat.=55.731308, lon.=26.231474, Alt.=133.045044m. Speed=0.072000m/h.</desc>
<speed>0.020000</speed>
</trkpt>
<trkpt lat="55.731308" lon="26.231474">
<ele>133.056763</ele>
<time>2010-07-17T11:18:06Z</time>
<desc>lat.=55.731308, lon.=26.231474, Alt.=133.056763m. Speed=0.072000m/h.</desc>
<speed>0.020000</speed>
</trkpt>
<trkpt lat="55.731308" lon="26.231474">
<ele>133.080200</ele>
<time>2010-07-17T11:18:07Z</time>
<desc>lat.=55.731308, lon.=26.231474, Alt.=133.080200m. Speed=0.108000m/h.</desc>
<speed>0.030000</speed>
</trkpt>
<trkpt lat="55.731308" lon="26.231474">
<ele>133.107544</ele>
<time>2010-07-17T11:18:08Z</time>
<desc>lat.=55.731308, lon.=26.231474, Alt.=133.107544m. Speed=0.216000m/h.</desc>
<speed>0.060000</speed>
</trkpt>
<trkpt lat="55.731308" lon="26.231474">
<ele>133.115356</ele>
<time>2010-07-17T11:18:09Z</time>
<desc>lat.=55.731308, lon.=26.231474, Alt.=133.115356m. Speed=0.036000m/h.</desc>
<speed>0.010000</speed>
</trkpt>
<trkpt lat="55.731308" lon="26.231474">
<ele>133.123169</ele>
<time>2010-07-17T11:18:10Z</time>
<desc>lat.=55.731308, lon.=26.231474, Alt.=133.123169m. Speed=0.072000m/h.</desc>
<speed>0.020000</speed>
</trkpt>
<trkpt lat="55.731308" lon="26.231474">
<ele>133.127075</ele>
<time>2010-07-17T11:18:11Z</time>
<desc>lat.=55.731308, lon.=26.231474, Alt.=133.127075m. Speed=0.108000m/h.</desc>
<speed>0.030000</speed>
</trkpt>
<trkpt lat="55.731308" lon="26.231474">
<ele>133.134888</ele>
<time>2010-07-17T11:18:12Z</time>
<desc>lat.=55.731308, lon.=26.231474, Alt.=133.134888m. Speed=0.072000m/h.</desc>
<speed>0.020000</speed>
</trkpt>
<trkpt lat="55.731308" lon="26.231474">
<ele>133.134888</ele>
<time>2010-07-17T11:18:13Z</time>
<desc>lat.=55.731308, lon.=26.231474, Alt.=133.134888m. Speed=0.036000m/h.</desc>
<speed>0.010000</speed>
</trkpt>
<trkpt lat="55.731308" lon="26.231474">
<ele>133.142700</ele>
<time>2010-07-17T11:18:14Z</time>
<desc>lat.=55.731308, lon.=26.231474, Alt.=133.142700m. Speed=0.036000m/h.</desc>
<speed>0.010000</speed>
</trkpt>
<trkpt lat="55.731308" lon="26.231476">
<ele>133.158325</ele>
<time>2010-07-17T11:18:15Z</time>
<desc>lat.=55.731308, lon.=26.231476, Alt.=133.158325m. Speed=0.036000m/h.</desc>
<speed>0.010000</speed>
</trkpt>
<trkpt lat="55.731308" lon="26.231476">
<ele>133.170044</ele>
<time>2010-07-17T11:18:16Z</time>
<desc>lat.=55.731308, lon.=26.231476, Alt.=133.170044m. Speed=0.072000m/h.</desc>
<speed>0.020000</speed>
</trkpt>
<trkpt lat="55.731308" lon="26.231476">
<ele>133.181763</ele>
<time>2010-07-17T11:18:17Z</time>
<desc>lat.=55.731308, lon.=26.231476, Alt.=133.181763m. Speed=0.072000m/h.</desc>
<speed>0.020000</speed>
</trkpt>
<trkpt lat="55.731308" lon="26.231476">
<ele>133.193481</ele>
<time>2010-07-17T11:18:18Z</time>
<desc>lat.=55.731308, lon.=26.231476, Alt.=133.193481m. Speed=0.108000m/h.</desc>
<speed>0.030000</speed>
</trkpt>
<trkpt lat="55.731312" lon="26.231476">
<ele>133.197388</ele>
<time>2010-07-17T11:18:19Z</time>
<desc>lat.=55.731312, lon.=26.231476, Alt.=133.197388m. Speed=0.072000m/h.</desc>
<speed>0.020000</speed>
</trkpt>
<trkpt lat="55.731312" lon="26.231476">
<ele>133.213013</ele>
<time>2010-07-17T11:18:20Z</time>
<desc>lat.=55.731312, lon.=26.231476, Alt.=133.213013m. Speed=0.036000m/h.</desc>
<speed>0.010000</speed>
</trkpt>
<trkpt lat="55.731312" lon="26.231476">
<ele>133.228638</ele>
<time>2010-07-17T11:18:21Z</time>
<desc>lat.=55.731312, lon.=26.231476, Alt.=133.228638m. Speed=0.108000m/h.</desc>
<speed>0.030000</speed>
</trkpt>
<trkpt lat="55.731312" lon="26.231476">
<ele>133.248169</ele>
<time>2010-07-17T11:18:22Z</time>
<desc>lat.=55.731312, lon.=26.231476, Alt.=133.248169m. Speed=0.144000m/h.</desc>
<speed>0.040000</speed>
</trkpt>
<trkpt lat="55.731312" lon="26.231476">
<ele>133.255981</ele>
<time>2010-07-17T11:18:23Z</time>
<desc>lat.=55.731312, lon.=26.231476, Alt.=133.255981m. Speed=0.108000m/h.</desc>
<speed>0.030000</speed>
</trkpt>
<trkpt lat="55.731312" lon="26.231476">
<ele>133.263794</ele>
<time>2010-07-17T11:18:24Z</time>
<desc>lat.=55.731312, lon.=26.231476, Alt.=133.263794m. Speed=0.072000m/h.</desc>
<speed>0.020000</speed>
</trkpt>
<trkpt lat="55.731312" lon="26.231476">
<ele>133.275513</ele>
<time>2010-07-17T11:18:25Z</time>
<desc>lat.=55.731312, lon.=26.231476, Alt.=133.275513m. Speed=0.072000m/h.</desc>
<speed>0.020000</speed>
</trkpt>
<trkpt lat="55.731312" lon="26.231476">
<ele>133.283325</ele>
<time>2010-07-17T11:18:26Z</time>
<desc>lat.=55.731312, lon.=26.231476, Alt.=133.283325m. Speed=0.072000m/h.</desc>
<speed>0.020000</speed>
</trkpt>
<trkpt lat="55.731312" lon="26.231478">
<ele>133.291138</ele>
<time>2010-07-17T11:18:27Z</time>
<desc>lat.=55.731312, lon.=26.231478, Alt.=133.291138m. Speed=0.036000m/h.</desc>
<speed>0.010000</speed>
</trkpt>
<trkpt lat="55.731312" lon="26.231478">
<ele>133.298950</ele>
<time>2010-07-17T11:18:28Z</time>
<desc>lat.=55.731312, lon.=26.231478, Alt.=133.298950m. Speed=0.108000m/h.</desc>
<speed>0.030000</speed>
</trkpt>
<trkpt lat="55.731312" lon="26.231478">
<ele>133.302856</ele>
<time>2010-07-17T11:18:29Z</time>
<desc>lat.=55.731312, lon.=26.231478, Alt.=133.302856m. Speed=0.036000m/h.</desc>
<speed>0.010000</speed>
</trkpt>
<trkpt lat="55.731312" lon="26.231478">
<ele>133.302856</ele>
<time>2010-07-17T11:18:30Z</time>
<desc>lat.=55.731312, lon.=26.231478, Alt.=133.302856m. Speed=0.000000m/h.</desc>
<speed>0.000000</speed>
</trkpt>
<trkpt lat="55.731312" lon="26.231478">
<ele>133.314575</ele>
<time>2010-07-17T11:18:31Z</time>
<desc>lat.=55.731312, lon.=26.231478, Alt.=133.314575m. Speed=0.108000m/h.</desc>
<speed>0.030000</speed>
</trkpt>
<trkpt lat="55.731312" lon="26.231478">
<ele>133.314575</ele>
<time>2010-07-17T11:18:32Z</time>
<desc>lat.=55.731312, lon.=26.231478, Alt.=133.314575m. Speed=0.072000m/h.</desc>
<speed>0.020000</speed>
</trkpt>
<trkpt lat="55.731312" lon="26.231478">
<ele>133.326294</ele>
<time>2010-07-17T11:18:33Z</time>
<desc>lat.=55.731312, lon.=26.231478, Alt.=133.326294m. Speed=0.108000m/h.</desc>
<speed>0.030000</speed>
</trkpt>
<trkpt lat="55.731312" lon="26.231478">
<ele>133.334106</ele>
<time>2010-07-17T11:18:34Z</time>
<desc>lat.=55.731312, lon.=26.231478, Alt.=133.334106m. Speed=0.108000m/h.</desc>
<speed>0.030000</speed>
</trkpt>
<trkpt lat="55.731312" lon="26.231480">
<ele>133.349731</ele>
<time>2010-07-17T11:18:35Z</time>
<desc>lat.=55.731312, lon.=26.231480, Alt.=133.349731m. Speed=0.180000m/h.</desc>
<speed>0.050000</speed>
</trkpt>
<trkpt lat="55.731312" lon="26.231480">
<ele>133.353638</ele>
<time>2010-07-17T11:18:36Z</time>
<desc>lat.=55.731312, lon.=26.231480, Alt.=133.353638m. Speed=0.108000m/h.</desc>
<speed>0.030000</speed>
</trkpt>
<trkpt lat="55.731312" lon="26.231480">
<ele>133.361450</ele>
<time>2010-07-17T11:18:37Z</time>
<desc>lat.=55.731312, lon.=26.231480, Alt.=133.361450m. Speed=0.000000m/h.</desc>
<speed>0.000000</speed>
</trkpt>
<trkpt lat="55.731312" lon="26.231480">
<ele>133.365356</ele>
<time>2010-07-17T11:18:38Z</time>
<desc>lat.=55.731312, lon.=26.231480, Alt.=133.365356m. Speed=0.072000m/h.</desc>
<speed>0.020000</speed>
</trkpt>
<trkpt lat="55.731312" lon="26.231480">
<ele>133.373169</ele>
<time>2010-07-17T11:18:39Z</time>
<desc>lat.=55.731312, lon.=26.231480, Alt.=133.373169m. Speed=0.000000m/h.</desc>
<speed>0.000000</speed>
</trkpt>
<trkpt lat="55.731312" lon="26.231480">
<ele>133.384888</ele>
<time>2010-07-17T11:18:40Z</time>
<desc>lat.=55.731312, lon.=26.231480, Alt.=133.384888m. Speed=0.036000m/h.</desc>
<speed>0.010000</speed>
</trkpt>
<trkpt lat="55.731312" lon="26.231480">
<ele>133.392700</ele>
<time>2010-07-17T11:18:41Z</time>
<desc>lat.=55.731312, lon.=26.231480, Alt.=133.392700m. Speed=0.036000m/h.</desc>
<speed>0.010000</speed>
</trkpt>
<trkpt lat="55.731312" lon="26.231480">
<ele>133.408325</ele>
<time>2010-07-17T11:18:42Z</time>
<desc>lat.=55.731312, lon.=26.231480, Alt.=133.408325m. Speed=0.036000m/h.</desc>
<speed>0.010000</speed>
</trkpt>
<trkpt lat="55.731312" lon="26.231480">
<ele>133.416138</ele>
<time>2010-07-17T11:18:43Z</time>
<desc>lat.=55.731312, lon.=26.231480, Alt.=133.416138m. Speed=0.036000m/h.</desc>
<speed>0.010000</speed>
</trkpt>
<trkpt lat="55.731312" lon="26.231480">
<ele>133.431763</ele>
<time>2010-07-17T11:18:44Z</time>
<desc>lat.=55.731312, lon.=26.231480, Alt.=133.431763m. Speed=0.072000m/h.</desc>
<speed>0.020000</speed>
</trkpt>
<trkpt lat="55.731312" lon="26.231480">
<ele>133.447388</ele>
<time>2010-07-17T11:18:45Z</time>
<desc>lat.=55.731312, lon.=26.231480, Alt.=133.447388m. Speed=0.036000m/h.</desc>
<speed>0.010000</speed>
</trkpt>
<trkpt lat="55.731312" lon="26.231480">
<ele>133.463013</ele>
<time>2010-07-17T11:18:46Z</time>
<desc>lat.=55.731312, lon.=26.231480, Alt.=133.463013m. Speed=0.000000m/h.</desc>
<speed>0.000000</speed>
</trkpt>
<trkpt lat="55.731312" lon="26.231480">
<ele>133.474731</ele>
<time>2010-07-17T11:18:47Z</time>
<desc>lat.=55.731312, lon.=26.231480, Alt.=133.474731m. Speed=0.000000m/h.</desc>
<speed>0.000000</speed>
</trkpt>
<trkpt lat="55.731312" lon="26.231480">
<ele>133.494263</ele>
<time>2010-07-17T11:18:48Z</time>
<desc>lat.=55.731312, lon.=26.231480, Alt.=133.494263m. Speed=0.108000m/h.</desc>
<speed>0.030000</speed>
</trkpt>
<trkpt lat="55.731312" lon="26.231482">
<ele>133.509888</ele>
<time>2010-07-17T11:18:49Z</time>
<desc>lat.=55.731312, lon.=26.231482, Alt.=133.509888m. Speed=0.144000m/h.</desc>
<speed>0.040000</speed>
</trkpt>
<trkpt lat="55.731312" lon="26.231482">
<ele>133.525513</ele>
<time>2010-07-17T11:18:50Z</time>
<desc>lat.=55.731312, lon.=26.231482, Alt.=133.525513m. Speed=0.036000m/h.</desc>
<speed>0.010000</speed>
</trkpt>
<trkpt lat="55.731312" lon="26.231482">
<ele>133.541138</ele>
<time>2010-07-17T11:18:51Z</time>
<desc>lat.=55.731312, lon.=26.231482, Alt.=133.541138m. Speed=0.108000m/h.</desc>
<speed>0.030000</speed>
</trkpt>
<trkpt lat="55.731312" lon="26.231482">
<ele>133.548950</ele>
<time>2010-07-17T11:18:52Z</time>
<desc>lat.=55.731312, lon.=26.231482, Alt.=133.548950m. Speed=0.036000m/h.</desc>
<speed>0.010000</speed>
</trkpt>
<trkpt lat="55.731312" lon="26.231482">
<ele>133.564575</ele>
<time>2010-07-17T11:18:53Z</time>
<desc>lat.=55.731312, lon.=26.231482, Alt.=133.564575m. Speed=0.036000m/h.</desc>
<speed>0.010000</speed>
</trkpt>
<trkpt lat="55.731312" lon="26.231482">
<ele>133.568481</ele>
<time>2010-07-17T11:18:54Z</time>
<desc>lat.=55.731312, lon.=26.231482, Alt.=133.568481m. Speed=0.000000m/h.</desc>
<speed>0.000000</speed>
</trkpt>
<trkpt lat="55.731312" lon="26.231482">
<ele>133.580200</ele>
<time>2010-07-17T11:18:55Z</time>
<desc>lat.=55.731312, lon.=26.231482, Alt.=133.580200m. Speed=0.036000m/h.</desc>
<speed>0.010000</speed>
</trkpt>
<trkpt lat="55.731312" lon="26.231482">
<ele>133.603638</ele>
<time>2010-07-17T11:18:56Z</time>
<desc>lat.=55.731312, lon.=26.231482, Alt.=133.603638m. Speed=0.072000m/h.</desc>
<speed>0.020000</speed>
</trkpt>
<trkpt lat="55.731312" lon="26.231483">
<ele>133.627075</ele>
<time>2010-07-17T11:18:57Z</time>
<desc>lat.=55.731312, lon.=26.231483, Alt.=133.627075m. Speed=0.036000m/h.</desc>
<speed>0.010000</speed>
</trkpt>
<trkpt lat="55.731312" lon="26.231483">
<ele>133.646606</ele>
<time>2010-07-17T11:18:58Z</time>
<desc>lat.=55.731312, lon.=26.231483, Alt.=133.646606m. Speed=0.036000m/h.</desc>
<speed>0.010000</speed>
</trkpt>
<trkpt lat="55.731312" lon="26.231483">
<ele>133.658325</ele>
<time>2010-07-17T11:18:59Z</time>
<desc>lat.=55.731312, lon.=26.231483, Alt.=133.658325m. Speed=0.036000m/h.</desc>
<speed>0.010000</speed>
</trkpt>
<trkpt lat="55.731312" lon="26.231483">
<ele>133.666138</ele>
<time>2010-07-17T11:19:00Z</time>
<desc>lat.=55.731312, lon.=26.231483, Alt.=133.666138m. Speed=0.036000m/h.</desc>
<speed>0.010000</speed>
</trkpt>
<trkpt lat="55.731312" lon="26.231483">
<ele>133.677856</ele>
<time>2010-07-17T11:19:01Z</time>
<desc>lat.=55.731312, lon.=26.231483, Alt.=133.677856m. Speed=0.108000m/h.</desc>
<speed>0.030000</speed>
</trkpt>
<trkpt lat="55.731312" lon="26.231483">
<ele>133.689575</ele>
<time>2010-07-17T11:19:02Z</time>
<desc>lat.=55.731312, lon.=26.231483, Alt.=133.689575m. Speed=0.036000m/h.</desc>
<speed>0.010000</speed>
</trkpt>
<trkpt lat="55.731312" lon="26.231483">
<ele>133.709106</ele>
<time>2010-07-17T11:19:03Z</time>
<desc>lat.=55.731312, lon.=26.231483, Alt.=133.709106m. Speed=0.108000m/h.</desc>
<speed>0.030000</speed>
</trkpt>
<trkpt lat="55.731312" lon="26.231483">
<ele>133.732544</ele>
<time>2010-07-17T11:19:04Z</time>
<desc>lat.=55.731312, lon.=26.231483, Alt.=133.732544m. Speed=0.108000m/h.</desc>
<speed>0.030000</speed>
</trkpt>
<trkpt lat="55.731312" lon="26.231483">
<ele>133.748169</ele>
<time>2010-07-17T11:19:05Z</time>
<desc>lat.=55.731312, lon.=26.231483, Alt.=133.748169m. Speed=0.036000m/h.</desc>
<speed>0.010000</speed>
</trkpt>
<trkpt lat="55.731312" lon="26.231483">
<ele>133.771606</ele>
<time>2010-07-17T11:19:06Z</time>
<desc>lat.=55.731312, lon.=26.231483, Alt.=133.771606m. Speed=0.072000m/h.</desc>
<speed>0.020000</speed>
</trkpt>
<trkpt lat="55.731312" lon="26.231483">
<ele>133.795044</ele>
<time>2010-07-17T11:19:07Z</time>
<desc>lat.=55.731312, lon.=26.231483, Alt.=133.795044m. Speed=0.108000m/h.</desc>
<speed>0.030000</speed>
</trkpt>
<trkpt lat="55.731312" lon="26.231483">
<ele>133.814575</ele>
<time>2010-07-17T11:19:08Z</time>
<desc>lat.=55.731312, lon.=26.231483, Alt.=133.814575m. Speed=0.036000m/h.</desc>
<speed>0.010000</speed>
</trkpt>
<trkpt lat="55.731312" lon="26.231485">
<ele>133.845825</ele>
<time>2010-07-17T11:19:09Z</time>
<desc>lat.=55.731312, lon.=26.231485, Alt.=133.845825m. Speed=0.000000m/h.</desc>
<speed>0.000000</speed>
</trkpt>
<trkpt lat="55.731312" lon="26.231485">
<ele>133.865356</ele>
<time>2010-07-17T11:19:10Z</time>
<desc>lat.=55.731312, lon.=26.231485, Alt.=133.865356m. Speed=0.108000m/h.</desc>
<speed>0.030000</speed>
</trkpt>
<trkpt lat="55.731316" lon="26.231485">
<ele>133.892700</ele>
<time>2010-07-17T11:19:11Z</time>
<desc>lat.=55.731316, lon.=26.231485, Alt.=133.892700m. Speed=0.036000m/h.</desc>
<speed>0.010000</speed>
</trkpt>
<trkpt lat="55.731316" lon="26.231485">
<ele>133.908325</ele>
<time>2010-07-17T11:19:12Z</time>
<desc>lat.=55.731316, lon.=26.231485, Alt.=133.908325m. Speed=0.000000m/h.</desc>
<speed>0.000000</speed>
</trkpt>
<trkpt lat="55.731316" lon="26.231485">
<ele>133.927856</ele>
<time>2010-07-17T11:19:13Z</time>
<desc>lat.=55.731316, lon.=26.231485, Alt.=133.927856m. Speed=0.036000m/h.</desc>
<speed>0.010000</speed>
</trkpt>
<trkpt lat="55.731316" lon="26.231485">
<ele>133.947388</ele>
<time>2010-07-17T11:19:14Z</time>
<desc>lat.=55.731316, lon.=26.231485, Alt.=133.947388m. Speed=0.036000m/h.</desc>
<speed>0.010000</speed>
</trkpt>
<trkpt lat="55.731316" lon="26.231485">
<ele>133.970825</ele>
<time>2010-07-17T11:19:15Z</time>
<desc>lat.=55.731316, lon.=26.231485, Alt.=133.970825m. Speed=0.072000m/h.</desc>
<speed>0.020000</speed>
</trkpt>
<trkpt lat="55.731316" lon="26.231485">
<ele>133.986450</ele>
<time>2010-07-17T11:19:16Z</time>
<desc>lat.=55.731316, lon.=26.231485, Alt.=133.986450m. Speed=0.036000m/h.</desc>
<speed>0.010000</speed>
</trkpt>
<trkpt lat="55.731316" lon="26.231485">
<ele>133.998169</ele>
<time>2010-07-17T11:19:17Z</time>
<desc>lat.=55.731316, lon.=26.231485, Alt.=133.998169m. Speed=0.000000m/h.</desc>
<speed>0.000000</speed>
</trkpt>
<trkpt lat="55.731316" lon="26.231485">
<ele>134.017700</ele>
<time>2010-07-17T11:19:18Z</time>
<desc>lat.=55.731316, lon.=26.231485, Alt.=134.017700m. Speed=0.072000m/h.</desc>
<speed>0.020000</speed>
</trkpt>
<trkpt lat="55.731316" lon="26.231487">
<ele>134.041138</ele>
<time>2010-07-17T11:19:19Z</time>
<desc>lat.=55.731316, lon.=26.231487, Alt.=134.041138m. Speed=0.072000m/h.</desc>
<speed>0.020000</speed>
</trkpt>
<trkpt lat="55.731316" lon="26.231487">
<ele>134.080200</ele>
<time>2010-07-17T11:19:20Z</time>
<desc>lat.=55.731316, lon.=26.231487, Alt.=134.080200m. Speed=0.144000m/h.</desc>
<speed>0.040000</speed>
</trkpt>
<trkpt lat="55.731316" lon="26.231487">
<ele>134.134888</ele>
<time>2010-07-17T11:19:21Z</time>
<desc>lat.=55.731316, lon.=26.231487, Alt.=134.134888m. Speed=0.216000m/h.</desc>
<speed>0.060000</speed>
</trkpt>
<trkpt lat="55.731316" lon="26.231487">
<ele>134.193481</ele>
<time>2010-07-17T11:19:22Z</time>
<desc>lat.=55.731316, lon.=26.231487, Alt.=134.193481m. Speed=0.180000m/h.</desc>
<speed>0.050000</speed>
</trkpt>
<trkpt lat="55.731316" lon="26.231489">
<ele>134.252075</ele>
<time>2010-07-17T11:19:23Z</time>
<desc>lat.=55.731316, lon.=26.231489, Alt.=134.252075m. Speed=0.216000m/h.</desc>
<speed>0.060000</speed>
</trkpt>
<trkpt lat="55.731319" lon="26.231489">
<ele>134.318481</ele>
<time>2010-07-17T11:19:24Z</time>
<desc>lat.=55.731319, lon.=26.231489, Alt.=134.318481m. Speed=0.252000m/h.</desc>
<speed>0.070000</speed>
</trkpt>
<trkpt lat="55.731319" lon="26.231489">
<ele>134.384888</ele>
<time>2010-07-17T11:19:25Z</time>
<desc>lat.=55.731319, lon.=26.231489, Alt.=134.384888m. Speed=0.252000m/h.</desc>
<speed>0.070000</speed>
</trkpt>
<trkpt lat="55.731319" lon="26.231489">
<ele>134.447388</ele>
<time>2010-07-17T11:19:26Z</time>
<desc>lat.=55.731319, lon.=26.231489, Alt.=134.447388m. Speed=0.252000m/h.</desc>
<speed>0.070000</speed>
</trkpt>
<trkpt lat="55.731319" lon="26.231489">
<ele>134.513794</ele>
<time>2010-07-17T11:19:27Z</time>
<desc>lat.=55.731319, lon.=26.231489, Alt.=134.513794m. Speed=0.288000m/h.</desc>
<speed>0.080000</speed>
</trkpt>
<trkpt lat="55.731319" lon="26.231491">
<ele>134.572388</ele>
<time>2010-07-17T11:19:28Z</time>
<desc>lat.=55.731319, lon.=26.231491, Alt.=134.572388m. Speed=0.288000m/h.</desc>
<speed>0.080000</speed>
</trkpt>
<trkpt lat="55.731319" lon="26.231491">
<ele>134.634888</ele>
<time>2010-07-17T11:19:29Z</time>
<desc>lat.=55.731319, lon.=26.231491, Alt.=134.634888m. Speed=0.324000m/h.</desc>
<speed>0.090000</speed>
</trkpt>
<trkpt lat="55.731323" lon="26.231491">
<ele>134.705200</ele>
<time>2010-07-17T11:19:30Z</time>
<desc>lat.=55.731323, lon.=26.231491, Alt.=134.705200m. Speed=0.180000m/h.</desc>
<speed>0.050000</speed>
</trkpt>
<trkpt lat="55.731323" lon="26.231493">
<ele>134.787231</ele>
<time>2010-07-17T11:19:31Z</time>
<desc>lat.=55.731323, lon.=26.231493, Alt.=134.787231m. Speed=0.216000m/h.</desc>
<speed>0.060000</speed>
</trkpt>
<trkpt lat="55.731323" lon="26.231493">
<ele>134.877075</ele>
<time>2010-07-17T11:19:32Z</time>
<desc>lat.=55.731323, lon.=26.231493, Alt.=134.877075m. Speed=0.324000m/h.</desc>
<speed>0.090000</speed>
</trkpt>
<trkpt lat="55.731323" lon="26.231495">
<ele>134.963013</ele>
<time>2010-07-17T11:19:33Z</time>
<desc>lat.=55.731323, lon.=26.231495, Alt.=134.963013m. Speed=0.288000m/h.</desc>
<speed>0.080000</speed>
</trkpt>
<trkpt lat="55.731323" lon="26.231495">
<ele>135.045044</ele>
<time>2010-07-17T11:19:34Z</time>
<desc>lat.=55.731323, lon.=26.231495, Alt.=135.045044m. Speed=0.324000m/h.</desc>
<speed>0.090000</speed>
</trkpt>
<trkpt lat="55.731323" lon="26.231495">
<ele>135.130981</ele>
<time>2010-07-17T11:19:35Z</time>
<desc>lat.=55.731323, lon.=26.231495, Alt.=135.130981m. Speed=0.288000m/h.</desc>
<speed>0.080000</speed>
</trkpt>
<trkpt lat="55.731327" lon="26.231497">
<ele>135.216919</ele>
<time>2010-07-17T11:19:36Z</time>
<desc>lat.=55.731327, lon.=26.231497, Alt.=135.216919m. Speed=0.324000m/h.</desc>
<speed>0.090000</speed>
</trkpt>
<trkpt lat="55.731327" lon="26.231497">
<ele>135.306763</ele>
<time>2010-07-17T11:19:37Z</time>
<desc>lat.=55.731327, lon.=26.231497, Alt.=135.306763m. Speed=0.324000m/h.</desc>
<speed>0.090000</speed>
</trkpt>
<trkpt lat="55.731327" lon="26.231499">
<ele>135.396606</ele>
<time>2010-07-17T11:19:38Z</time>
<desc>lat.=55.731327, lon.=26.231499, Alt.=135.396606m. Speed=0.252000m/h.</desc>
<speed>0.070000</speed>
</trkpt>
<trkpt lat="55.731327" lon="26.231499">
<ele>135.474731</ele>
<time>2010-07-17T11:19:39Z</time>
<desc>lat.=55.731327, lon.=26.231499, Alt.=135.474731m. Speed=0.288000m/h.</desc>
<speed>0.080000</speed>
</trkpt>
<trkpt lat="55.731327" lon="26.231499">
<ele>135.556763</ele>
<time>2010-07-17T11:19:40Z</time>
<desc>lat.=55.731327, lon.=26.231499, Alt.=135.556763m. Speed=0.180000m/h.</desc>
<speed>0.050000</speed>
</trkpt>
<trkpt lat="55.731327" lon="26.231501">
<ele>135.634888</ele>
<time>2010-07-17T11:19:41Z</time>
<desc>lat.=55.731327, lon.=26.231501, Alt.=135.634888m. Speed=0.288000m/h.</desc>
<speed>0.080000</speed>
</trkpt>
<trkpt lat="55.731327" lon="26.231501">
<ele>135.709106</ele>
<time>2010-07-17T11:19:42Z</time>
<desc>lat.=55.731327, lon.=26.231501, Alt.=135.709106m. Speed=0.252000m/h.</desc>
<speed>0.070000</speed>
</trkpt>
<trkpt lat="55.731331" lon="26.231501">
<ele>135.779419</ele>
<time>2010-07-17T11:19:43Z</time>
<desc>lat.=55.731331, lon.=26.231501, Alt.=135.779419m. Speed=0.180000m/h.</desc>
<speed>0.050000</speed>
</trkpt>
<trkpt lat="55.731331" lon="26.231503">
<ele>135.841919</ele>
<time>2010-07-17T11:19:44Z</time>
<desc>lat.=55.731331, lon.=26.231503, Alt.=135.841919m. Speed=0.252000m/h.</desc>
<speed>0.070000</speed>
</trkpt>
<trkpt lat="55.731331" lon="26.231503">
<ele>135.896606</ele>
<time>2010-07-17T11:19:45Z</time>
<desc>lat.=55.731331, lon.=26.231503, Alt.=135.896606m. Speed=0.252000m/h.</desc>
<speed>0.070000</speed>
</trkpt>
<trkpt lat="55.731331" lon="26.231503">
<ele>135.951294</ele>
<time>2010-07-17T11:19:46Z</time>
<desc>lat.=55.731331, lon.=26.231503, Alt.=135.951294m. Speed=0.252000m/h.</desc>
<speed>0.070000</speed>
</trkpt>
<trkpt lat="55.731331" lon="26.231503">
<ele>135.998169</ele>
<time>2010-07-17T11:19:47Z</time>
<desc>lat.=55.731331, lon.=26.231503, Alt.=135.998169m. Speed=0.180000m/h.</desc>
<speed>0.050000</speed>
</trkpt>
<trkpt lat="55.731331" lon="26.231503">
<ele>136.037231</ele>
<time>2010-07-17T11:19:48Z</time>
<desc>lat.=55.731331, lon.=26.231503, Alt.=136.037231m. Speed=0.216000m/h.</desc>
<speed>0.060000</speed>
</trkpt>
<trkpt lat="55.731331" lon="26.231503">
<ele>136.068481</ele>
<time>2010-07-17T11:19:49Z</time>
<desc>lat.=55.731331, lon.=26.231503, Alt.=136.068481m. Speed=0.180000m/h.</desc>
<speed>0.050000</speed>
</trkpt>
<trkpt lat="55.731331" lon="26.231503">
<ele>136.099731</ele>
<time>2010-07-17T11:19:50Z</time>
<desc>lat.=55.731331, lon.=26.231503, Alt.=136.099731m. Speed=0.216000m/h.</desc>
<speed>0.060000</speed>
</trkpt>
<trkpt lat="55.731335" lon="26.231503">
<ele>136.127075</ele>
<time>2010-07-17T11:19:51Z</time>
<desc>lat.=55.731335, lon.=26.231503, Alt.=136.127075m. Speed=0.252000m/h.</desc>
<speed>0.070000</speed>
</trkpt>
<trkpt lat="55.731335" lon="26.231503">
<ele>136.150513</ele>
<time>2010-07-17T11:19:52Z</time>
<desc>lat.=55.731335, lon.=26.231503, Alt.=136.150513m. Speed=0.216000m/h.</desc>
<speed>0.060000</speed>
</trkpt>
<trkpt lat="55.731335" lon="26.231503">
<ele>136.170044</ele>
<time>2010-07-17T11:19:53Z</time>
<desc>lat.=55.731335, lon.=26.231503, Alt.=136.170044m. Speed=0.180000m/h.</desc>
<speed>0.050000</speed>
</trkpt>
<trkpt lat="55.731335" lon="26.231501">
<ele>136.189575</ele>
<time>2010-07-17T11:19:54Z</time>
<desc>lat.=55.731335, lon.=26.231501, Alt.=136.189575m. Speed=0.216000m/h.</desc>
<speed>0.060000</speed>
</trkpt>
<trkpt lat="55.731335" lon="26.231501">
<ele>136.209106</ele>
<time>2010-07-17T11:19:55Z</time>
<desc>lat.=55.731335, lon.=26.231501, Alt.=136.209106m. Speed=0.180000m/h.</desc>
<speed>0.050000</speed>
</trkpt>
<trkpt lat="55.731335" lon="26.231501">
<ele>136.232544</ele>
<time>2010-07-17T11:19:56Z</time>
<desc>lat.=55.731335, lon.=26.231501, Alt.=136.232544m. Speed=0.216000m/h.</desc>
<speed>0.060000</speed>
</trkpt>
<trkpt lat="55.731335" lon="26.231501">
<ele>136.252075</ele>
<time>2010-07-17T11:19:57Z</time>
<desc>lat.=55.731335, lon.=26.231501, Alt.=136.252075m. Speed=0.216000m/h.</desc>
<speed>0.060000</speed>
</trkpt>
<trkpt lat="55.731339" lon="26.231501">
<ele>136.267700</ele>
<time>2010-07-17T11:19:58Z</time>
<desc>lat.=55.731339, lon.=26.231501, Alt.=136.267700m. Speed=0.180000m/h.</desc>
<speed>0.050000</speed>
</trkpt>
<trkpt lat="55.731339" lon="26.231501">
<ele>136.283325</ele>
<time>2010-07-17T11:19:59Z</time>
<desc>lat.=55.731339, lon.=26.231501, Alt.=136.283325m. Speed=0.180000m/h.</desc>
<speed>0.050000</speed>
</trkpt>
<trkpt lat="55.731339" lon="26.231501">
<ele>136.291138</ele>
<time>2010-07-17T11:20:00Z</time>
<desc>lat.=55.731339, lon.=26.231501, Alt.=136.291138m. Speed=0.252000m/h.</desc>
<speed>0.070000</speed>
</trkpt>
<trkpt lat="55.731339" lon="26.231501">
<ele>136.295044</ele>
<time>2010-07-17T11:20:01Z</time>
<desc>lat.=55.731339, lon.=26.231501, Alt.=136.295044m. Speed=0.216000m/h.</desc>
<speed>0.060000</speed>
</trkpt>
<trkpt lat="55.731339" lon="26.231499">
<ele>136.295044</ele>
<time>2010-07-17T11:20:02Z</time>
<desc>lat.=55.731339, lon.=26.231499, Alt.=136.295044m. Speed=0.144000m/h.</desc>
<speed>0.040000</speed>
</trkpt>
<trkpt lat="55.731339" lon="26.231499">
<ele>136.295044</ele>
<time>2010-07-17T11:20:03Z</time>
<desc>lat.=55.731339, lon.=26.231499, Alt.=136.295044m. Speed=0.144000m/h.</desc>
<speed>0.040000</speed>
</trkpt>
<trkpt lat="55.731339" lon="26.231499">
<ele>136.291138</ele>
<time>2010-07-17T11:20:04Z</time>
<desc>lat.=55.731339, lon.=26.231499, Alt.=136.291138m. Speed=0.108000m/h.</desc>
<speed>0.030000</speed>
</trkpt>
<trkpt lat="55.731339" lon="26.231499">
<ele>136.287231</ele>
<time>2010-07-17T11:20:05Z</time>
<desc>lat.=55.731339, lon.=26.231499, Alt.=136.287231m. Speed=0.072000m/h.</desc>
<speed>0.020000</speed>
</trkpt>
<trkpt lat="55.731339" lon="26.231499">
<ele>136.283325</ele>
<time>2010-07-17T11:20:06Z</time>
<desc>lat.=55.731339, lon.=26.231499, Alt.=136.283325m. Speed=0.000000m/h.</desc>
<speed>0.000000</speed>
</trkpt>
<trkpt lat="55.731339" lon="26.231499">
<ele>136.275513</ele>
<time>2010-07-17T11:20:07Z</time>
<desc>lat.=55.731339, lon.=26.231499, Alt.=136.275513m. Speed=0.036000m/h.</desc>
<speed>0.010000</speed>
</trkpt>
<trkpt lat="55.731339" lon="26.231499">
<ele>136.271606</ele>
<time>2010-07-17T11:20:08Z</time>
<desc>lat.=55.731339, lon.=26.231499, Alt.=136.271606m. Speed=0.072000m/h.</desc>
<speed>0.020000</speed>
</trkpt>
<trkpt lat="55.731339" lon="26.231499">
<ele>136.263794</ele>
<time>2010-07-17T11:20:09Z</time>
<desc>lat.=55.731339, lon.=26.231499, Alt.=136.263794m. Speed=0.072000m/h.</desc>
<speed>0.020000</speed>
</trkpt>
<trkpt lat="55.731339" lon="26.231499">
<ele>136.259888</ele>
<time>2010-07-17T11:20:10Z</time>
<desc>lat.=55.731339, lon.=26.231499, Alt.=136.259888m. Speed=0.108000m/h.</desc>
<speed>0.030000</speed>
</trkpt>
<trkpt lat="55.731339" lon="26.231499">
<ele>136.252075</ele>
<time>2010-07-17T11:20:11Z</time>
<desc>lat.=55.731339, lon.=26.231499, Alt.=136.252075m. Speed=0.144000m/h.</desc>
<speed>0.040000</speed>
</trkpt>
<trkpt lat="55.731339" lon="26.231501">
<ele>136.248169</ele>
<time>2010-07-17T11:20:12Z</time>
<desc>lat.=55.731339, lon.=26.231501, Alt.=136.248169m. Speed=0.180000m/h.</desc>
<speed>0.050000</speed>
</trkpt>
<trkpt lat="55.731339" lon="26.231501">
<ele>136.244263</ele>
<time>2010-07-17T11:20:13Z</time>
<desc>lat.=55.731339, lon.=26.231501, Alt.=136.244263m. Speed=0.216000m/h.</desc>
<speed>0.060000</speed>
</trkpt>
<trkpt lat="55.731339" lon="26.231501">
<ele>136.236450</ele>
<time>2010-07-17T11:20:14Z</time>
<desc>lat.=55.731339, lon.=26.231501, Alt.=136.236450m. Speed=0.216000m/h.</desc>
<speed>0.060000</speed>
</trkpt>
<trkpt lat="55.731339" lon="26.231501">
<ele>136.232544</ele>
<time>2010-07-17T11:20:15Z</time>
<desc>lat.=55.731339, lon.=26.231501, Alt.=136.232544m. Speed=0.216000m/h.</desc>
<speed>0.060000</speed>
</trkpt>
<trkpt lat="55.731335" lon="26.231501">
<ele>136.232544</ele>
<time>2010-07-17T11:20:16Z</time>
<desc>lat.=55.731335, lon.=26.231501, Alt.=136.232544m. Speed=0.180000m/h.</desc>
<speed>0.050000</speed>
</trkpt>
<trkpt lat="55.731335" lon="26.231503">
<ele>136.232544</ele>
<time>2010-07-17T11:20:17Z</time>
<desc>lat.=55.731335, lon.=26.231503, Alt.=136.232544m. Speed=0.144000m/h.</desc>
<speed>0.040000</speed>
</trkpt>
<trkpt lat="55.731335" lon="26.231503">
<ele>136.236450</ele>
<time>2010-07-17T11:20:18Z</time>
<desc>lat.=55.731335, lon.=26.231503, Alt.=136.236450m. Speed=0.108000m/h.</desc>
<speed>0.030000</speed>
</trkpt>
<trkpt lat="55.731335" lon="26.231503">
<ele>136.244263</ele>
<time>2010-07-17T11:20:19Z</time>
<desc>lat.=55.731335, lon.=26.231503, Alt.=136.244263m. Speed=0.108000m/h.</desc>
<speed>0.030000</speed>
</trkpt>
<trkpt lat="55.731335" lon="26.231503">
<ele>136.248169</ele>
<time>2010-07-17T11:20:20Z</time>
<desc>lat.=55.731335, lon.=26.231503, Alt.=136.248169m. Speed=0.108000m/h.</desc>
<speed>0.030000</speed>
</trkpt>
<trkpt lat="55.731335" lon="26.231503">
<ele>136.255981</ele>
<time>2010-07-17T11:20:21Z</time>
<desc>lat.=55.731335, lon.=26.231503, Alt.=136.255981m. Speed=0.216000m/h.</desc>
<speed>0.060000</speed>
</trkpt>
<trkpt lat="55.731335" lon="26.231504">
<ele>136.263794</ele>
<time>2010-07-17T11:20:22Z</time>
<desc>lat.=55.731335, lon.=26.231504, Alt.=136.263794m. Speed=0.180000m/h.</desc>
<speed>0.050000</speed>
</trkpt>
<trkpt lat="55.731335" lon="26.231504">
<ele>136.271606</ele>
<time>2010-07-17T11:20:23Z</time>
<desc>lat.=55.731335, lon.=26.231504, Alt.=136.271606m. Speed=0.144000m/h.</desc>
<speed>0.040000</speed>
</trkpt>
<trkpt lat="55.731335" lon="26.231504">
<ele>136.275513</ele>
<time>2010-07-17T11:20:24Z</time>
<desc>lat.=55.731335, lon.=26.231504, Alt.=136.275513m. Speed=0.180000m/h.</desc>
<speed>0.050000</speed>
</trkpt>
<trkpt lat="55.731331" lon="26.231504">
<ele>136.279419</ele>
<time>2010-07-17T11:20:25Z</time>
<desc>lat.=55.731331, lon.=26.231504, Alt.=136.279419m. Speed=0.252000m/h.</desc>
<speed>0.070000</speed>
</trkpt>
<trkpt lat="55.731331" lon="26.231504">
<ele>136.271606</ele>
<time>2010-07-17T11:20:26Z</time>
<desc>lat.=55.731331, lon.=26.231504, Alt.=136.271606m. Speed=0.252000m/h.</desc>
<speed>0.070000</speed>
</trkpt>
<trkpt lat="55.731331" lon="26.231506">
<ele>136.248169</ele>
<time>2010-07-17T11:20:27Z</time>
<desc>lat.=55.731331, lon.=26.231506, Alt.=136.248169m. Speed=0.180000m/h.</desc>
<speed>0.050000</speed>
</trkpt>
<trkpt lat="55.731331" lon="26.231506">
<ele>136.220825</ele>
<time>2010-07-17T11:20:28Z</time>
<desc>lat.=55.731331, lon.=26.231506, Alt.=136.220825m. Speed=0.252000m/h.</desc>
<speed>0.070000</speed>
</trkpt>
<trkpt lat="55.731331" lon="26.231506">
<ele>136.185669</ele>
<time>2010-07-17T11:20:29Z</time>
<desc>lat.=55.731331, lon.=26.231506, Alt.=136.185669m. Speed=0.288000m/h.</desc>
<speed>0.080000</speed>
</trkpt>
<trkpt lat="55.731331" lon="26.231506">
<ele>136.142700</ele>
<time>2010-07-17T11:20:30Z</time>
<desc>lat.=55.731331, lon.=26.231506, Alt.=136.142700m. Speed=0.252000m/h.</desc>
<speed>0.070000</speed>
</trkpt>
<trkpt lat="55.731327" lon="26.231506">
<ele>136.091919</ele>
<time>2010-07-17T11:20:31Z</time>
<desc>lat.=55.731327, lon.=26.231506, Alt.=136.091919m. Speed=0.360000m/h.</desc>
<speed>0.100000</speed>
</trkpt>
<trkpt lat="55.731327" lon="26.231506">
<ele>136.041138</ele>
<time>2010-07-17T11:20:32Z</time>
<desc>lat.=55.731327, lon.=26.231506, Alt.=136.041138m. Speed=0.360000m/h.</desc>
<speed>0.100000</speed>
</trkpt>
<trkpt lat="55.731327" lon="26.231506">
<ele>135.986450</ele>
<time>2010-07-17T11:20:33Z</time>
<desc>lat.=55.731327, lon.=26.231506, Alt.=135.986450m. Speed=0.396000m/h.</desc>
<speed>0.110000</speed>
</trkpt>
<trkpt lat="55.731327" lon="26.231508">
<ele>135.923950</ele>
<time>2010-07-17T11:20:34Z</time>
<desc>lat.=55.731327, lon.=26.231508, Alt.=135.923950m. Speed=0.396000m/h.</desc>
<speed>0.110000</speed>
</trkpt>
<trkpt lat="55.731323" lon="26.231508">
<ele>135.869263</ele>
<time>2010-07-17T11:20:35Z</time>
<desc>lat.=55.731323, lon.=26.231508, Alt.=135.869263m. Speed=0.396000m/h.</desc>
<speed>0.110000</speed>
</trkpt>
<trkpt lat="55.731323" lon="26.231508">
<ele>135.810669</ele>
<time>2010-07-17T11:20:36Z</time>
<desc>lat.=55.731323, lon.=26.231508, Alt.=135.810669m. Speed=0.360000m/h.</desc>
<speed>0.100000</speed>
</trkpt>
<trkpt lat="55.731323" lon="26.231508">
<ele>135.752075</ele>
<time>2010-07-17T11:20:37Z</time>
<desc>lat.=55.731323, lon.=26.231508, Alt.=135.752075m. Speed=0.360000m/h.</desc>
<speed>0.100000</speed>
</trkpt>
<trkpt lat="55.731319" lon="26.231508">
<ele>135.685669</ele>
<time>2010-07-17T11:20:38Z</time>
<desc>lat.=55.731319, lon.=26.231508, Alt.=135.685669m. Speed=0.396000m/h.</desc>
<speed>0.110000</speed>
</trkpt>
<trkpt lat="55.731319" lon="26.231508">
<ele>135.623169</ele>
<time>2010-07-17T11:20:39Z</time>
<desc>lat.=55.731319, lon.=26.231508, Alt.=135.623169m. Speed=0.396000m/h.</desc>
<speed>0.110000</speed>
</trkpt>
<trkpt lat="55.731319" lon="26.231508">
<ele>135.564575</ele>
<time>2010-07-17T11:20:40Z</time>
<desc>lat.=55.731319, lon.=26.231508, Alt.=135.564575m. Speed=0.432000m/h.</desc>
<speed>0.120000</speed>
</trkpt>
<trkpt lat="55.731319" lon="26.231508">
<ele>135.498169</ele>
<time>2010-07-17T11:20:41Z</time>
<desc>lat.=55.731319, lon.=26.231508, Alt.=135.498169m. Speed=0.504000m/h.</desc>
<speed>0.140000</speed>
</trkpt>
<trkpt lat="55.731316" lon="26.231510">
<ele>135.431763</ele>
<time>2010-07-17T11:20:42Z</time>
<desc>lat.=55.731316, lon.=26.231510, Alt.=135.431763m. Speed=0.468000m/h.</desc>
<speed>0.130000</speed>
</trkpt>
<trkpt lat="55.731316" lon="26.231510">
<ele>135.365356</ele>
<time>2010-07-17T11:20:43Z</time>
<desc>lat.=55.731316, lon.=26.231510, Alt.=135.365356m. Speed=0.468000m/h.</desc>
<speed>0.130000</speed>
</trkpt>
<trkpt lat="55.731316" lon="26.231510">
<ele>135.295044</ele>
<time>2010-07-17T11:20:44Z</time>
<desc>lat.=55.731316, lon.=26.231510, Alt.=135.295044m. Speed=0.468000m/h.</desc>
<speed>0.130000</speed>
</trkpt>
<trkpt lat="55.731312" lon="26.231510">
<ele>135.220825</ele>
<time>2010-07-17T11:20:45Z</time>
<desc>lat.=55.731312, lon.=26.231510, Alt.=135.220825m. Speed=0.468000m/h.</desc>
<speed>0.130000</speed>
</trkpt>
<trkpt lat="55.731312" lon="26.231510">
<ele>135.158325</ele>
<time>2010-07-17T11:20:46Z</time>
<desc>lat.=55.731312, lon.=26.231510, Alt.=135.158325m. Speed=0.432000m/h.</desc>
<speed>0.120000</speed>
</trkpt>
<trkpt lat="55.731312" lon="26.231510">
<ele>135.084106</ele>
<time>2010-07-17T11:20:47Z</time>
<desc>lat.=55.731312, lon.=26.231510, Alt.=135.084106m. Speed=0.504000m/h.</desc>
<speed>0.140000</speed>
</trkpt>
<trkpt lat="55.731308" lon="26.231510">
<ele>135.009888</ele>
<time>2010-07-17T11:20:48Z</time>
<desc>lat.=55.731308, lon.=26.231510, Alt.=135.009888m. Speed=0.576000m/h.</desc>
<speed>0.160000</speed>
</trkpt>
<trkpt lat="55.731308" lon="26.231510">
<ele>134.947388</ele>
<time>2010-07-17T11:20:49Z</time>
<desc>lat.=55.731308, lon.=26.231510, Alt.=134.947388m. Speed=0.540000m/h.</desc>
<speed>0.150000</speed>
</trkpt>
<trkpt lat="55.731308" lon="26.231512">
<ele>134.884888</ele>
<time>2010-07-17T11:20:50Z</time>
<desc>lat.=55.731308, lon.=26.231512, Alt.=134.884888m. Speed=0.432000m/h.</desc>
<speed>0.120000</speed>
</trkpt>
<trkpt lat="55.731304" lon="26.231512">
<ele>134.830200</ele>
<time>2010-07-17T11:20:51Z</time>
<desc>lat.=55.731304, lon.=26.231512, Alt.=134.830200m. Speed=0.396000m/h.</desc>
<speed>0.110000</speed>
</trkpt>
<trkpt lat="55.731304" lon="26.231512">
<ele>134.759888</ele>
<time>2010-07-17T11:20:52Z</time>
<desc>lat.=55.731304, lon.=26.231512, Alt.=134.759888m. Speed=0.504000m/h.</desc>
<speed>0.140000</speed>
</trkpt>
<trkpt lat="55.731304" lon="26.231512">
<ele>134.685669</ele>
<time>2010-07-17T11:20:53Z</time>
<desc>lat.=55.731304, lon.=26.231512, Alt.=134.685669m. Speed=0.468000m/h.</desc>
<speed>0.130000</speed>
</trkpt>
<trkpt lat="55.731300" lon="26.231512">
<ele>134.615356</ele>
<time>2010-07-17T11:20:54Z</time>
<desc>lat.=55.731300, lon.=26.231512, Alt.=134.615356m. Speed=0.504000m/h.</desc>
<speed>0.140000</speed>
</trkpt>
<trkpt lat="55.731300" lon="26.231512">
<ele>134.548950</ele>
<time>2010-07-17T11:20:55Z</time>
<desc>lat.=55.731300, lon.=26.231512, Alt.=134.548950m. Speed=0.468000m/h.</desc>
<speed>0.130000</speed>
</trkpt>
<trkpt lat="55.731300" lon="26.231512">
<ele>134.486450</ele>
<time>2010-07-17T11:20:56Z</time>
<desc>lat.=55.731300, lon.=26.231512, Alt.=134.486450m. Speed=0.468000m/h.</desc>
<speed>0.130000</speed>
</trkpt>
<trkpt lat="55.731297" lon="26.231512">
<ele>134.423950</ele>
<time>2010-07-17T11:20:57Z</time>
<desc>lat.=55.731297, lon.=26.231512, Alt.=134.423950m. Speed=0.396000m/h.</desc>
<speed>0.110000</speed>
</trkpt>
<trkpt lat="55.731297" lon="26.231512">
<ele>134.365356</ele>
<time>2010-07-17T11:20:58Z</time>
<desc>lat.=55.731297, lon.=26.231512, Alt.=134.365356m. Speed=0.360000m/h.</desc>
<speed>0.100000</speed>
</trkpt>
<trkpt lat="55.731297" lon="26.231512">
<ele>134.310669</ele>
<time>2010-07-17T11:20:59Z</time>
<desc>lat.=55.731297, lon.=26.231512, Alt.=134.310669m. Speed=0.288000m/h.</desc>
<speed>0.080000</speed>
</trkpt>
<trkpt lat="55.731297" lon="26.231512">
<ele>134.263794</ele>
<time>2010-07-17T11:21:00Z</time>
<desc>lat.=55.731297, lon.=26.231512, Alt.=134.263794m. Speed=0.180000m/h.</desc>
<speed>0.050000</speed>
</trkpt>
<trkpt lat="55.731297" lon="26.231512">
<ele>134.224731</ele>
<time>2010-07-17T11:21:01Z</time>
<desc>lat.=55.731297, lon.=26.231512, Alt.=134.224731m. Speed=0.072000m/h.</desc>
<speed>0.020000</speed>
</trkpt>
<trkpt lat="55.731297" lon="26.231512">
<ele>134.185669</ele>
<time>2010-07-17T11:21:02Z</time>
<desc>lat.=55.731297, lon.=26.231512, Alt.=134.185669m. Speed=0.072000m/h.</desc>
<speed>0.020000</speed>
</trkpt>
<trkpt lat="55.731297" lon="26.231512">
<ele>134.146606</ele>
<time>2010-07-17T11:21:03Z</time>
<desc>lat.=55.731297, lon.=26.231512, Alt.=134.146606m. Speed=0.144000m/h.</desc>
<speed>0.040000</speed>
</trkpt>
<trkpt lat="55.731297" lon="26.231510">
<ele>134.115356</ele>
<time>2010-07-17T11:21:04Z</time>
<desc>lat.=55.731297, lon.=26.231510, Alt.=134.115356m. Speed=0.180000m/h.</desc>
<speed>0.050000</speed>
</trkpt>
<trkpt lat="55.731297" lon="26.231510">
<ele>134.091919</ele>
<time>2010-07-17T11:21:05Z</time>
<desc>lat.=55.731297, lon.=26.231510, Alt.=134.091919m. Speed=0.324000m/h.</desc>
<speed>0.090000</speed>
</trkpt>
<trkpt lat="55.731297" lon="26.231510">
<ele>134.060669</ele>
<time>2010-07-17T11:21:06Z</time>
<desc>lat.=55.731297, lon.=26.231510, Alt.=134.060669m. Speed=0.288000m/h.</desc>
<speed>0.080000</speed>
</trkpt>
<trkpt lat="55.731297" lon="26.231508">
<ele>134.037231</ele>
<time>2010-07-17T11:21:07Z</time>
<desc>lat.=55.731297, lon.=26.231508, Alt.=134.037231m. Speed=0.144000m/h.</desc>
<speed>0.040000</speed>
</trkpt>
<trkpt lat="55.731297" lon="26.231508">
<ele>134.017700</ele>
<time>2010-07-17T11:21:08Z</time>
<desc>lat.=55.731297, lon.=26.231508, Alt.=134.017700m. Speed=0.144000m/h.</desc>
<speed>0.040000</speed>
</trkpt>
<trkpt lat="55.731297" lon="26.231508">
<ele>134.002075</ele>
<time>2010-07-17T11:21:09Z</time>
<desc>lat.=55.731297, lon.=26.231508, Alt.=134.002075m. Speed=0.216000m/h.</desc>
<speed>0.060000</speed>
</trkpt>
<trkpt lat="55.731300" lon="26.231508">
<ele>133.986450</ele>
<time>2010-07-17T11:21:10Z</time>
<desc>lat.=55.731300, lon.=26.231508, Alt.=133.986450m. Speed=0.288000m/h.</desc>
<speed>0.080000</speed>
</trkpt>
<trkpt lat="55.731300" lon="26.231506">
<ele>133.974731</ele>
<time>2010-07-17T11:21:11Z</time>
<desc>lat.=55.731300, lon.=26.231506, Alt.=133.974731m. Speed=0.360000m/h.</desc>
<speed>0.100000</speed>
</trkpt>
<trkpt lat="55.731300" lon="26.231506">
<ele>133.970825</ele>
<time>2010-07-17T11:21:12Z</time>
<desc>lat.=55.731300, lon.=26.231506, Alt.=133.970825m. Speed=0.000000m/h.</desc>
<speed>0.000000</speed>
</trkpt>
<trkpt lat="55.731300" lon="26.231506">
<ele>133.966919</ele>
<time>2010-07-17T11:21:13Z</time>
<desc>lat.=55.731300, lon.=26.231506, Alt.=133.966919m. Speed=0.000000m/h.</desc>
<speed>0.000000</speed>
</trkpt>
<trkpt lat="55.731300" lon="26.231506">
<ele>133.970825</ele>
<time>2010-07-17T11:21:14Z</time>
<desc>lat.=55.731300, lon.=26.231506, Alt.=133.970825m. Speed=0.000000m/h.</desc>
<speed>0.000000</speed>
</trkpt>
<trkpt lat="55.731300" lon="26.231506">
<ele>133.966919</ele>
<time>2010-07-17T11:21:15Z</time>
<desc>lat.=55.731300, lon.=26.231506, Alt.=133.966919m. Speed=0.000000m/h.</desc>
<speed>0.000000</speed>
</trkpt>
<trkpt lat="55.731300" lon="26.231506">
<ele>133.966919</ele>
<time>2010-07-17T11:21:16Z</time>
<desc>lat.=55.731300, lon.=26.231506, Alt.=133.966919m. Speed=0.000000m/h.</desc>
<speed>0.000000</speed>
</trkpt>
<trkpt lat="55.731300" lon="26.231506">
<ele>133.966919</ele>
<time>2010-07-17T11:21:17Z</time>
<desc>lat.=55.731300, lon.=26.231506, Alt.=133.966919m. Speed=0.000000m/h.</desc>
<speed>0.000000</speed>
</trkpt>
<trkpt lat="55.731300" lon="26.231506">
<ele>133.966919</ele>
<time>2010-07-17T11:21:18Z</time>
<desc>lat.=55.731300, lon.=26.231506, Alt.=133.966919m. Speed=0.036000m/h.</desc>
<speed>0.010000</speed>
</trkpt>
<trkpt lat="55.731300" lon="26.231506">
<ele>133.966919</ele>
<time>2010-07-17T11:21:19Z</time>
<desc>lat.=55.731300, lon.=26.231506, Alt.=133.966919m. Speed=0.000000m/h.</desc>
<speed>0.000000</speed>
</trkpt>
<trkpt lat="55.731300" lon="26.231506">
<ele>133.966919</ele>
<time>2010-07-17T11:21:20Z</time>
<desc>lat.=55.731300, lon.=26.231506, Alt.=133.966919m. Speed=0.036000m/h.</desc>
<speed>0.010000</speed>
</trkpt>
<trkpt lat="55.731300" lon="26.231506">
<ele>133.963013</ele>
<time>2010-07-17T11:21:21Z</time>
<desc>lat.=55.731300, lon.=26.231506, Alt.=133.963013m. Speed=0.000000m/h.</desc>
<speed>0.000000</speed>
</trkpt>
<trkpt lat="55.731300" lon="26.231506">
<ele>133.963013</ele>
<time>2010-07-17T11:21:22Z</time>
<desc>lat.=55.731300, lon.=26.231506, Alt.=133.963013m. Speed=0.000000m/h.</desc>
<speed>0.000000</speed>
</trkpt>
<trkpt lat="55.731300" lon="26.231506">
<ele>133.959106</ele>
<time>2010-07-17T11:21:23Z</time>
<desc>lat.=55.731300, lon.=26.231506, Alt.=133.959106m. Speed=0.036000m/h.</desc>
<speed>0.010000</speed>
</trkpt>
<trkpt lat="55.731300" lon="26.231506">
<ele>133.959106</ele>
<time>2010-07-17T11:21:24Z</time>
<desc>lat.=55.731300, lon.=26.231506, Alt.=133.959106m. Speed=0.000000m/h.</desc>
<speed>0.000000</speed>
</trkpt>
<trkpt lat="55.731300" lon="26.231506">
<ele>133.959106</ele>
<time>2010-07-17T11:21:25Z</time>
<desc>lat.=55.731300, lon.=26.231506, Alt.=133.959106m. Speed=0.036000m/h.</desc>
<speed>0.010000</speed>
</trkpt>
<trkpt lat="55.731300" lon="26.231506">
<ele>133.959106</ele>
<time>2010-07-17T11:21:26Z</time>
<desc>lat.=55.731300, lon.=26.231506, Alt.=133.959106m. Speed=0.000000m/h.</desc>
<speed>0.000000</speed>
</trkpt>
<trkpt lat="55.731300" lon="26.231506">
<ele>133.959106</ele>
<time>2010-07-17T11:21:27Z</time>
<desc>lat.=55.731300, lon.=26.231506, Alt.=133.959106m. Speed=0.036000m/h.</desc>
<speed>0.010000</speed>
</trkpt>
<trkpt lat="55.731300" lon="26.231506">
<ele>133.959106</ele>
<time>2010-07-17T11:21:28Z</time>
<desc>lat.=55.731300, lon.=26.231506, Alt.=133.959106m. Speed=0.072000m/h.</desc>
<speed>0.020000</speed>
</trkpt>
<trkpt lat="55.731300" lon="26.231506">
<ele>133.959106</ele>
<time>2010-07-17T11:21:29Z</time>
<desc>lat.=55.731300, lon.=26.231506, Alt.=133.959106m. Speed=0.036000m/h.</desc>
<speed>0.010000</speed>
</trkpt>
<trkpt lat="55.731300" lon="26.231506">
<ele>133.959106</ele>
<time>2010-07-17T11:21:30Z</time>
<desc>lat.=55.731300, lon.=26.231506, Alt.=133.959106m. Speed=0.036000m/h.</desc>
<speed>0.010000</speed>
</trkpt>
<trkpt lat="55.731300" lon="26.231506">
<ele>133.966919</ele>
<time>2010-07-17T11:21:31Z</time>
<desc>lat.=55.731300, lon.=26.231506, Alt.=133.966919m. Speed=0.000000m/h.</desc>
<speed>0.000000</speed>
</trkpt>
<trkpt lat="55.731300" lon="26.231506">
<ele>133.966919</ele>
<time>2010-07-17T11:21:32Z</time>
<desc>lat.=55.731300, lon.=26.231506, Alt.=133.966919m. Speed=0.000000m/h.</desc>
<speed>0.000000</speed>
</trkpt>
<trkpt lat="55.731300" lon="26.231506">
<ele>133.974731</ele>
<time>2010-07-17T11:21:33Z</time>
<desc>lat.=55.731300, lon.=26.231506, Alt.=133.974731m. Speed=0.108000m/h.</desc>
<speed>0.030000</speed>
</trkpt>
<trkpt lat="55.731300" lon="26.231506">
<ele>133.982544</ele>
<time>2010-07-17T11:21:34Z</time>
<desc>lat.=55.731300, lon.=26.231506, Alt.=133.982544m. Speed=0.036000m/h.</desc>
<speed>0.010000</speed>
</trkpt>
<trkpt lat="55.731300" lon="26.231506">
<ele>133.990356</ele>
<time>2010-07-17T11:21:35Z</time>
<desc>lat.=55.731300, lon.=26.231506, Alt.=133.990356m. Speed=0.072000m/h.</desc>
<speed>0.020000</speed>
</trkpt>
<trkpt lat="55.731300" lon="26.231506">
<ele>134.002075</ele>
<time>2010-07-17T11:21:36Z</time>
<desc>lat.=55.731300, lon.=26.231506, Alt.=134.002075m. Speed=0.036000m/h.</desc>
<speed>0.010000</speed>
</trkpt>
<trkpt lat="55.731300" lon="26.231506">
<ele>134.009888</ele>
<time>2010-07-17T11:21:37Z</time>
<desc>lat.=55.731300, lon.=26.231506, Alt.=134.009888m. Speed=0.000000m/h.</desc>
<speed>0.000000</speed>
</trkpt>
<trkpt lat="55.731300" lon="26.231506">
<ele>134.021606</ele>
<time>2010-07-17T11:21:38Z</time>
<desc>lat.=55.731300, lon.=26.231506, Alt.=134.021606m. Speed=0.072000m/h.</desc>
<speed>0.020000</speed>
</trkpt>
<trkpt lat="55.731300" lon="26.231506">
<ele>134.037231</ele>
<time>2010-07-17T11:21:39Z</time>
<desc>lat.=55.731300, lon.=26.231506, Alt.=134.037231m. Speed=0.108000m/h.</desc>
<speed>0.030000</speed>
</trkpt>
<trkpt lat="55.731300" lon="26.231506">
<ele>134.048950</ele>
<time>2010-07-17T11:21:40Z</time>
<desc>lat.=55.731300, lon.=26.231506, Alt.=134.048950m. Speed=0.180000m/h.</desc>
<speed>0.050000</speed>
</trkpt>
<trkpt lat="55.731300" lon="26.231506">
<ele>134.064575</ele>
<time>2010-07-17T11:21:41Z</time>
<desc>lat.=55.731300, lon.=26.231506, Alt.=134.064575m. Speed=0.252000m/h.</desc>
<speed>0.070000</speed>
</trkpt>
<trkpt lat="55.731300" lon="26.231504">
<ele>134.076294</ele>
<time>2010-07-17T11:21:42Z</time>
<desc>lat.=55.731300, lon.=26.231504, Alt.=134.076294m. Speed=0.252000m/h.</desc>
<speed>0.070000</speed>
</trkpt>
<trkpt lat="55.731300" lon="26.231504">
<ele>134.091919</ele>
<time>2010-07-17T11:21:43Z</time>
<desc>lat.=55.731300, lon.=26.231504, Alt.=134.091919m. Speed=0.216000m/h.</desc>
<speed>0.060000</speed>
</trkpt>
<trkpt lat="55.731300" lon="26.231504">
<ele>134.103638</ele>
<time>2010-07-17T11:21:44Z</time>
<desc>lat.=55.731300, lon.=26.231504, Alt.=134.103638m. Speed=0.216000m/h.</desc>
<speed>0.060000</speed>
</trkpt>
<trkpt lat="55.731304" lon="26.231504">
<ele>134.111450</ele>
<time>2010-07-17T11:21:45Z</time>
<desc>lat.=55.731304, lon.=26.231504, Alt.=134.111450m. Speed=0.324000m/h.</desc>
<speed>0.090000</speed>
</trkpt>
<trkpt lat="55.731304" lon="26.231503">
<ele>134.115356</ele>
<time>2010-07-17T11:21:46Z</time>
<desc>lat.=55.731304, lon.=26.231503, Alt.=134.115356m. Speed=0.216000m/h.</desc>
<speed>0.060000</speed>
</trkpt>
<trkpt lat="55.731304" lon="26.231503">
<ele>134.115356</ele>
<time>2010-07-17T11:21:47Z</time>
<desc>lat.=55.731304, lon.=26.231503, Alt.=134.115356m. Speed=0.144000m/h.</desc>
<speed>0.040000</speed>
</trkpt>
<trkpt lat="55.731304" lon="26.231503">
<ele>134.111450</ele>
<time>2010-07-17T11:21:48Z</time>
<desc>lat.=55.731304, lon.=26.231503, Alt.=134.111450m. Speed=0.108000m/h.</desc>
<speed>0.030000</speed>
</trkpt>
<trkpt lat="55.731304" lon="26.231503">
<ele>134.107544</ele>
<time>2010-07-17T11:21:49Z</time>
<desc>lat.=55.731304, lon.=26.231503, Alt.=134.107544m. Speed=0.072000m/h.</desc>
<speed>0.020000</speed>
</trkpt>
<trkpt lat="55.731304" lon="26.231503">
<ele>134.103638</ele>
<time>2010-07-17T11:21:50Z</time>
<desc>lat.=55.731304, lon.=26.231503, Alt.=134.103638m. Speed=0.144000m/h.</desc>
<speed>0.040000</speed>
</trkpt>
<trkpt lat="55.731304" lon="26.231503">
<ele>134.095825</ele>
<time>2010-07-17T11:21:51Z</time>
<desc>lat.=55.731304, lon.=26.231503, Alt.=134.095825m. Speed=0.072000m/h.</desc>
<speed>0.020000</speed>
</trkpt>
<trkpt lat="55.731304" lon="26.231503">
<ele>134.088013</ele>
<time>2010-07-17T11:21:52Z</time>
<desc>lat.=55.731304, lon.=26.231503, Alt.=134.088013m. Speed=0.036000m/h.</desc>
<speed>0.010000</speed>
</trkpt>
<trkpt lat="55.731304" lon="26.231503">
<ele>134.076294</ele>
<time>2010-07-17T11:21:53Z</time>
<desc>lat.=55.731304, lon.=26.231503, Alt.=134.076294m. Speed=0.000000m/h.</desc>
<speed>0.000000</speed>
</trkpt>
<trkpt lat="55.731304" lon="26.231503">
<ele>134.064575</ele>
<time>2010-07-17T11:21:54Z</time>
<desc>lat.=55.731304, lon.=26.231503, Alt.=134.064575m. Speed=0.036000m/h.</desc>
<speed>0.010000</speed>
</trkpt>
<trkpt lat="55.731304" lon="26.231501">
<ele>134.052856</ele>
<time>2010-07-17T11:21:55Z</time>
<desc>lat.=55.731304, lon.=26.231501, Alt.=134.052856m. Speed=0.072000m/h.</desc>
<speed>0.020000</speed>
</trkpt>
<trkpt lat="55.731304" lon="26.231501">
<ele>134.041138</ele>
<time>2010-07-17T11:21:56Z</time>
<desc>lat.=55.731304, lon.=26.231501, Alt.=134.041138m. Speed=0.144000m/h.</desc>
<speed>0.040000</speed>
</trkpt>
<trkpt lat="55.731304" lon="26.231503">
<ele>134.029419</ele>
<time>2010-07-17T11:21:57Z</time>
<desc>lat.=55.731304, lon.=26.231503, Alt.=134.029419m. Speed=0.216000m/h.</desc>
<speed>0.060000</speed>
</trkpt>
<trkpt lat="55.731304" lon="26.231503">
<ele>134.013794</ele>
<time>2010-07-17T11:21:58Z</time>
<desc>lat.=55.731304, lon.=26.231503, Alt.=134.013794m. Speed=0.216000m/h.</desc>
<speed>0.060000</speed>
</trkpt>
<trkpt lat="55.731304" lon="26.231503">
<ele>134.002075</ele>
<time>2010-07-17T11:21:59Z</time>
<desc>lat.=55.731304, lon.=26.231503, Alt.=134.002075m. Speed=0.216000m/h.</desc>
<speed>0.060000</speed>
</trkpt>
<trkpt lat="55.731304" lon="26.231503">
<ele>133.994263</ele>
<time>2010-07-17T11:22:00Z</time>
<desc>lat.=55.731304, lon.=26.231503, Alt.=133.994263m. Speed=0.216000m/h.</desc>
<speed>0.060000</speed>
</trkpt>
<trkpt lat="55.731300" lon="26.231503">
<ele>133.986450</ele>
<time>2010-07-17T11:22:01Z</time>
<desc>lat.=55.731300, lon.=26.231503, Alt.=133.986450m. Speed=0.144000m/h.</desc>
<speed>0.040000</speed>
</trkpt>
<trkpt lat="55.731300" lon="26.231503">
<ele>133.978638</ele>
<time>2010-07-17T11:22:02Z</time>
<desc>lat.=55.731300, lon.=26.231503, Alt.=133.978638m. Speed=0.108000m/h.</desc>
<speed>0.030000</speed>
</trkpt>
<trkpt lat="55.731300" lon="26.231503">
<ele>133.974731</ele>
<time>2010-07-17T11:22:03Z</time>
<desc>lat.=55.731300, lon.=26.231503, Alt.=133.974731m. Speed=0.144000m/h.</desc>
<speed>0.040000</speed>
</trkpt>
<trkpt lat="55.731300" lon="26.231503">
<ele>133.970825</ele>
<time>2010-07-17T11:22:04Z</time>
<desc>lat.=55.731300, lon.=26.231503, Alt.=133.970825m. Speed=0.108000m/h.</desc>
<speed>0.030000</speed>
</trkpt>
<trkpt lat="55.731300" lon="26.231503">
<ele>133.978638</ele>
<time>2010-07-17T11:22:05Z</time>
<desc>lat.=55.731300, lon.=26.231503, Alt.=133.978638m. Speed=0.072000m/h.</desc>
<speed>0.020000</speed>
</trkpt>
<trkpt lat="55.731300" lon="26.231504">
<ele>133.982544</ele>
<time>2010-07-17T11:22:06Z</time>
<desc>lat.=55.731300, lon.=26.231504, Alt.=133.982544m. Speed=0.000000m/h.</desc>
<speed>0.000000</speed>
</trkpt>
<trkpt lat="55.731300" lon="26.231504">
<ele>133.990356</ele>
<time>2010-07-17T11:22:07Z</time>
<desc>lat.=55.731300, lon.=26.231504, Alt.=133.990356m. Speed=0.000000m/h.</desc>
<speed>0.000000</speed>
</trkpt>
<trkpt lat="55.731300" lon="26.231504">
<ele>133.998169</ele>
<time>2010-07-17T11:22:08Z</time>
<desc>lat.=55.731300, lon.=26.231504, Alt.=133.998169m. Speed=0.108000m/h.</desc>
<speed>0.030000</speed>
</trkpt>
<trkpt lat="55.731300" lon="26.231504">
<ele>134.009888</ele>
<time>2010-07-17T11:22:09Z</time>
<desc>lat.=55.731300, lon.=26.231504, Alt.=134.009888m. Speed=0.108000m/h.</desc>
<speed>0.030000</speed>
</trkpt>
<trkpt lat="55.731300" lon="26.231503">
<ele>134.021606</ele>
<time>2010-07-17T11:22:10Z</time>
<desc>lat.=55.731300, lon.=26.231503, Alt.=134.021606m. Speed=0.144000m/h.</desc>
<speed>0.040000</speed>
</trkpt>
<trkpt lat="55.731300" lon="26.231503">
<ele>134.037231</ele>
<time>2010-07-17T11:22:11Z</time>
<desc>lat.=55.731300, lon.=26.231503, Alt.=134.037231m. Speed=0.144000m/h.</desc>
<speed>0.040000</speed>
</trkpt>
<trkpt lat="55.731304" lon="26.231503">
<ele>134.060669</ele>
<time>2010-07-17T11:22:12Z</time>
<desc>lat.=55.731304, lon.=26.231503, Alt.=134.060669m. Speed=0.180000m/h.</desc>
<speed>0.050000</speed>
</trkpt>
<trkpt lat="55.731304" lon="26.231503">
<ele>134.084106</ele>
<time>2010-07-17T11:22:13Z</time>
<desc>lat.=55.731304, lon.=26.231503, Alt.=134.084106m. Speed=0.252000m/h.</desc>
<speed>0.070000</speed>
</trkpt>
<trkpt lat="55.731304" lon="26.231503">
<ele>134.091919</ele>
<time>2010-07-17T11:22:14Z</time>
<desc>lat.=55.731304, lon.=26.231503, Alt.=134.091919m. Speed=0.036000m/h.</desc>
<speed>0.010000</speed>
</trkpt>
<trkpt lat="55.731304" lon="26.231503">
<ele>134.091919</ele>
<time>2010-07-17T11:22:15Z</time>
<desc>lat.=55.731304, lon.=26.231503, Alt.=134.091919m. Speed=0.000000m/h.</desc>
<speed>0.000000</speed>
</trkpt>
<trkpt lat="55.731304" lon="26.231503">
<ele>134.099731</ele>
<time>2010-07-17T11:22:16Z</time>
<desc>lat.=55.731304, lon.=26.231503, Alt.=134.099731m. Speed=0.000000m/h.</desc>
<speed>0.000000</speed>
</trkpt>
<trkpt lat="55.731304" lon="26.231503">
<ele>134.103638</ele>
<time>2010-07-17T11:22:17Z</time>
<desc>lat.=55.731304, lon.=26.231503, Alt.=134.103638m. Speed=0.108000m/h.</desc>
<speed>0.030000</speed>
</trkpt>
<trkpt lat="55.731304" lon="26.231503">
<ele>134.107544</ele>
<time>2010-07-17T11:22:18Z</time>
<desc>lat.=55.731304, lon.=26.231503, Alt.=134.107544m. Speed=0.000000m/h.</desc>
<speed>0.000000</speed>
</trkpt>
<trkpt lat="55.731304" lon="26.231503">
<ele>134.111450</ele>
<time>2010-07-17T11:22:19Z</time>
<desc>lat.=55.731304, lon.=26.231503, Alt.=134.111450m. Speed=0.000000m/h.</desc>
<speed>0.000000</speed>
</trkpt>
<trkpt lat="55.731304" lon="26.231503">
<ele>134.119263</ele>
<time>2010-07-17T11:22:20Z</time>
<desc>lat.=55.731304, lon.=26.231503, Alt.=134.119263m. Speed=0.072000m/h.</desc>
<speed>0.020000</speed>
</trkpt>
<trkpt lat="55.731304" lon="26.231503">
<ele>134.123169</ele>
<time>2010-07-17T11:22:21Z</time>
<desc>lat.=55.731304, lon.=26.231503, Alt.=134.123169m. Speed=0.036000m/h.</desc>
<speed>0.010000</speed>
</trkpt>
<trkpt lat="55.731304" lon="26.231503">
<ele>134.127075</ele>
<time>2010-07-17T11:22:22Z</time>
<desc>lat.=55.731304, lon.=26.231503, Alt.=134.127075m. Speed=0.072000m/h.</desc>
<speed>0.020000</speed>
</trkpt>
<trkpt lat="55.731304" lon="26.231503">
<ele>134.127075</ele>
<time>2010-07-17T11:22:23Z</time>
<desc>lat.=55.731304, lon.=26.231503, Alt.=134.127075m. Speed=0.000000m/h.</desc>
<speed>0.000000</speed>
</trkpt>
<trkpt lat="55.731304" lon="26.231503">
<ele>134.127075</ele>
<time>2010-07-17T11:22:24Z</time>
<desc>lat.=55.731304, lon.=26.231503, Alt.=134.127075m. Speed=0.000000m/h.</desc>
<speed>0.000000</speed>
</trkpt>
<trkpt lat="55.731304" lon="26.231503">
<ele>134.130981</ele>
<time>2010-07-17T11:22:25Z</time>
<desc>lat.=55.731304, lon.=26.231503, Alt.=134.130981m. Speed=0.072000m/h.</desc>
<speed>0.020000</speed>
</trkpt>
<trkpt lat="55.731304" lon="26.231503">
<ele>134.130981</ele>
<time>2010-07-17T11:22:26Z</time>
<desc>lat.=55.731304, lon.=26.231503, Alt.=134.130981m. Speed=0.072000m/h.</desc>
<speed>0.020000</speed>
</trkpt>
<trkpt lat="55.731304" lon="26.231503">
<ele>134.134888</ele>
<time>2010-07-17T11:22:27Z</time>
<desc>lat.=55.731304, lon.=26.231503, Alt.=134.134888m. Speed=0.036000m/h.</desc>
<speed>0.010000</speed>
</trkpt>
<trkpt lat="55.731304" lon="26.231503">
<ele>134.134888</ele>
<time>2010-07-17T11:22:28Z</time>
<desc>lat.=55.731304, lon.=26.231503, Alt.=134.134888m. Speed=0.072000m/h.</desc>
<speed>0.020000</speed>
</trkpt>
<trkpt lat="55.731304" lon="26.231503">
<ele>134.134888</ele>
<time>2010-07-17T11:22:29Z</time>
<desc>lat.=55.731304, lon.=26.231503, Alt.=134.134888m. Speed=0.036000m/h.</desc>
<speed>0.010000</speed>
</trkpt>
<trkpt lat="55.731304" lon="26.231503">
<ele>134.130981</ele>
<time>2010-07-17T11:22:30Z</time>
<desc>lat.=55.731304, lon.=26.231503, Alt.=134.130981m. Speed=0.036000m/h.</desc>
<speed>0.010000</speed>
</trkpt>
<trkpt lat="55.731304" lon="26.231503">
<ele>134.134888</ele>
<time>2010-07-17T11:22:31Z</time>
<desc>lat.=55.731304, lon.=26.231503, Alt.=134.134888m. Speed=0.000000m/h.</desc>
<speed>0.000000</speed>
</trkpt>
<trkpt lat="55.731304" lon="26.231503">
<ele>134.130981</ele>
<time>2010-07-17T11:22:32Z</time>
<desc>lat.=55.731304, lon.=26.231503, Alt.=134.130981m. Speed=0.000000m/h.</desc>
<speed>0.000000</speed>
</trkpt>
<trkpt lat="55.731304" lon="26.231503">
<ele>134.130981</ele>
<time>2010-07-17T11:22:33Z</time>
<desc>lat.=55.731304, lon.=26.231503, Alt.=134.130981m. Speed=0.072000m/h.</desc>
<speed>0.020000</speed>
</trkpt>
<trkpt lat="55.731304" lon="26.231503">
<ele>134.130981</ele>
<time>2010-07-17T11:22:34Z</time>
<desc>lat.=55.731304, lon.=26.231503, Alt.=134.130981m. Speed=0.036000m/h.</desc>
<speed>0.010000</speed>
</trkpt>
<trkpt lat="55.731304" lon="26.231503">
<ele>134.130981</ele>
<time>2010-07-17T11:22:35Z</time>
<desc>lat.=55.731304, lon.=26.231503, Alt.=134.130981m. Speed=0.000000m/h.</desc>
<speed>0.000000</speed>
</trkpt>
<trkpt lat="55.731304" lon="26.231503">
<ele>134.134888</ele>
<time>2010-07-17T11:22:36Z</time>
<desc>lat.=55.731304, lon.=26.231503, Alt.=134.134888m. Speed=0.072000m/h.</desc>
<speed>0.020000</speed>
</trkpt>
<trkpt lat="55.731304" lon="26.231503">
<ele>134.138794</ele>
<time>2010-07-17T11:22:37Z</time>
<desc>lat.=55.731304, lon.=26.231503, Alt.=134.138794m. Speed=0.000000m/h.</desc>
<speed>0.000000</speed>
</trkpt>
<trkpt lat="55.731304" lon="26.231503">
<ele>134.138794</ele>
<time>2010-07-17T11:22:38Z</time>
<desc>lat.=55.731304, lon.=26.231503, Alt.=134.138794m. Speed=0.072000m/h.</desc>
<speed>0.020000</speed>
</trkpt>
<trkpt lat="55.731304" lon="26.231503">
<ele>134.138794</ele>
<time>2010-07-17T11:22:39Z</time>
<desc>lat.=55.731304, lon.=26.231503, Alt.=134.138794m. Speed=0.036000m/h.</desc>
<speed>0.010000</speed>
</trkpt>
<trkpt lat="55.731304" lon="26.231503">
<ele>134.138794</ele>
<time>2010-07-17T11:22:40Z</time>
<desc>lat.=55.731304, lon.=26.231503, Alt.=134.138794m. Speed=0.000000m/h.</desc>
<speed>0.000000</speed>
</trkpt>
<trkpt lat="55.731304" lon="26.231503">
<ele>134.142700</ele>
<time>2010-07-17T11:22:41Z</time>
<desc>lat.=55.731304, lon.=26.231503, Alt.=134.142700m. Speed=0.036000m/h.</desc>
<speed>0.010000</speed>
</trkpt>
<trkpt lat="55.731304" lon="26.231503">
<ele>134.138794</ele>
<time>2010-07-17T11:22:42Z</time>
<desc>lat.=55.731304, lon.=26.231503, Alt.=134.138794m. Speed=0.036000m/h.</desc>
<speed>0.010000</speed>
</trkpt>
<trkpt lat="55.731304" lon="26.231503">
<ele>134.130981</ele>
<time>2010-07-17T11:22:43Z</time>
<desc>lat.=55.731304, lon.=26.231503, Alt.=134.130981m. Speed=0.000000m/h.</desc>
<speed>0.000000</speed>
</trkpt>
<trkpt lat="55.731304" lon="26.231503">
<ele>134.115356</ele>
<time>2010-07-17T11:22:44Z</time>
<desc>lat.=55.731304, lon.=26.231503, Alt.=134.115356m. Speed=0.000000m/h.</desc>
<speed>0.000000</speed>
</trkpt>
<trkpt lat="55.731304" lon="26.231503">
<ele>134.103638</ele>
<time>2010-07-17T11:22:45Z</time>
<desc>lat.=55.731304, lon.=26.231503, Alt.=134.103638m. Speed=0.036000m/h.</desc>
<speed>0.010000</speed>
</trkpt>
<trkpt lat="55.731304" lon="26.231503">
<ele>134.091919</ele>
<time>2010-07-17T11:22:46Z</time>
<desc>lat.=55.731304, lon.=26.231503, Alt.=134.091919m. Speed=0.036000m/h.</desc>
<speed>0.010000</speed>
</trkpt>
<trkpt lat="55.731304" lon="26.231503">
<ele>134.080200</ele>
<time>2010-07-17T11:22:47Z</time>
<desc>lat.=55.731304, lon.=26.231503, Alt.=134.080200m. Speed=0.036000m/h.</desc>
<speed>0.010000</speed>
</trkpt>
<trkpt lat="55.731304" lon="26.231504">
<ele>134.064575</ele>
<time>2010-07-17T11:22:48Z</time>
<desc>lat.=55.731304, lon.=26.231504, Alt.=134.064575m. Speed=0.072000m/h.</desc>
<speed>0.020000</speed>
</trkpt>
<trkpt lat="55.731304" lon="26.231504">
<ele>134.056763</ele>
<time>2010-07-17T11:22:49Z</time>
<desc>lat.=55.731304, lon.=26.231504, Alt.=134.056763m. Speed=0.036000m/h.</desc>
<speed>0.010000</speed>
</trkpt>
<trkpt lat="55.731304" lon="26.231504">
<ele>134.048950</ele>
<time>2010-07-17T11:22:50Z</time>
<desc>lat.=55.731304, lon.=26.231504, Alt.=134.048950m. Speed=0.036000m/h.</desc>
<speed>0.010000</speed>
</trkpt>
<trkpt lat="55.731304" lon="26.231504">
<ele>134.037231</ele>
<time>2010-07-17T11:22:51Z</time>
<desc>lat.=55.731304, lon.=26.231504, Alt.=134.037231m. Speed=0.072000m/h.</desc>
<speed>0.020000</speed>
</trkpt>
<trkpt lat="55.731304" lon="26.231504">
<ele>134.029419</ele>
<time>2010-07-17T11:22:52Z</time>
<desc>lat.=55.731304, lon.=26.231504, Alt.=134.029419m. Speed=0.036000m/h.</desc>
<speed>0.010000</speed>
</trkpt>
<trkpt lat="55.731304" lon="26.231504">
<ele>134.021606</ele>
<time>2010-07-17T11:22:53Z</time>
<desc>lat.=55.731304, lon.=26.231504, Alt.=134.021606m. Speed=0.000000m/h.</desc>
<speed>0.000000</speed>
</trkpt>
<trkpt lat="55.731304" lon="26.231504">
<ele>134.017700</ele>
<time>2010-07-17T11:22:54Z</time>
<desc>lat.=55.731304, lon.=26.231504, Alt.=134.017700m. Speed=0.036000m/h.</desc>
<speed>0.010000</speed>
</trkpt>
<trkpt lat="55.731304" lon="26.231504">
<ele>134.013794</ele>
<time>2010-07-17T11:22:55Z</time>
<desc>lat.=55.731304, lon.=26.231504, Alt.=134.013794m. Speed=0.072000m/h.</desc>
<speed>0.020000</speed>
</trkpt>
<trkpt lat="55.731304" lon="26.231504">
<ele>134.009888</ele>
<time>2010-07-17T11:22:56Z</time>
<desc>lat.=55.731304, lon.=26.231504, Alt.=134.009888m. Speed=0.000000m/h.</desc>
<speed>0.000000</speed>
</trkpt>
<trkpt lat="55.731304" lon="26.231504">
<ele>134.005981</ele>
<time>2010-07-17T11:22:57Z</time>
<desc>lat.=55.731304, lon.=26.231504, Alt.=134.005981m. Speed=0.036000m/h.</desc>
<speed>0.010000</speed>
</trkpt>
<trkpt lat="55.731304" lon="26.231504">
<ele>133.998169</ele>
<time>2010-07-17T11:22:58Z</time>
<desc>lat.=55.731304, lon.=26.231504, Alt.=133.998169m. Speed=0.000000m/h.</desc>
<speed>0.000000</speed>
</trkpt>
<trkpt lat="55.731304" lon="26.231504">
<ele>133.990356</ele>
<time>2010-07-17T11:22:59Z</time>
<desc>lat.=55.731304, lon.=26.231504, Alt.=133.990356m. Speed=0.000000m/h.</desc>
<speed>0.000000</speed>
</trkpt>
<trkpt lat="55.731304" lon="26.231504">
<ele>133.986450</ele>
<time>2010-07-17T11:23:00Z</time>
<desc>lat.=55.731304, lon.=26.231504, Alt.=133.986450m. Speed=0.072000m/h.</desc>
<speed>0.020000</speed>
</trkpt>
<trkpt lat="55.731304" lon="26.231504">
<ele>133.978638</ele>
<time>2010-07-17T11:23:01Z</time>
<desc>lat.=55.731304, lon.=26.231504, Alt.=133.978638m. Speed=0.036000m/h.</desc>
<speed>0.010000</speed>
</trkpt>
<trkpt lat="55.731304" lon="26.231504">
<ele>133.974731</ele>
<time>2010-07-17T11:23:02Z</time>
<desc>lat.=55.731304, lon.=26.231504, Alt.=133.974731m. Speed=0.144000m/h.</desc>
<speed>0.040000</speed>
</trkpt>
<trkpt lat="55.731304" lon="26.231504">
<ele>133.966919</ele>
<time>2010-07-17T11:23:03Z</time>
<desc>lat.=55.731304, lon.=26.231504, Alt.=133.966919m. Speed=0.108000m/h.</desc>
<speed>0.030000</speed>
</trkpt>
<trkpt lat="55.731304" lon="26.231504">
<ele>133.963013</ele>
<time>2010-07-17T11:23:04Z</time>
<desc>lat.=55.731304, lon.=26.231504, Alt.=133.963013m. Speed=0.108000m/h.</desc>
<speed>0.030000</speed>
</trkpt>
<trkpt lat="55.731304" lon="26.231504">
<ele>133.963013</ele>
<time>2010-07-17T11:23:05Z</time>
<desc>lat.=55.731304, lon.=26.231504, Alt.=133.963013m. Speed=0.180000m/h.</desc>
<speed>0.050000</speed>
</trkpt>
<trkpt lat="55.731300" lon="26.231504">
<ele>133.963013</ele>
<time>2010-07-17T11:23:06Z</time>
<desc>lat.=55.731300, lon.=26.231504, Alt.=133.963013m. Speed=0.144000m/h.</desc>
<speed>0.040000</speed>
</trkpt>
<trkpt lat="55.731300" lon="26.231504">
<ele>133.959106</ele>
<time>2010-07-17T11:23:07Z</time>
<desc>lat.=55.731300, lon.=26.231504, Alt.=133.959106m. Speed=0.108000m/h.</desc>
<speed>0.030000</speed>
</trkpt>
<trkpt lat="55.731300" lon="26.231504">
<ele>133.959106</ele>
<time>2010-07-17T11:23:08Z</time>
<desc>lat.=55.731300, lon.=26.231504, Alt.=133.959106m. Speed=0.072000m/h.</desc>
<speed>0.020000</speed>
</trkpt>
<trkpt lat="55.731300" lon="26.231504">
<ele>133.963013</ele>
<time>2010-07-17T11:23:09Z</time>
<desc>lat.=55.731300, lon.=26.231504, Alt.=133.963013m. Speed=0.072000m/h.</desc>
<speed>0.020000</speed>
</trkpt>
<trkpt lat="55.731300" lon="26.231504">
<ele>133.963013</ele>
<time>2010-07-17T11:23:10Z</time>
<desc>lat.=55.731300, lon.=26.231504, Alt.=133.963013m. Speed=0.036000m/h.</desc>
<speed>0.010000</speed>
</trkpt>
<trkpt lat="55.731300" lon="26.231504">
<ele>133.959106</ele>
<time>2010-07-17T11:23:11Z</time>
<desc>lat.=55.731300, lon.=26.231504, Alt.=133.959106m. Speed=0.144000m/h.</desc>
<speed>0.040000</speed>
</trkpt>
<trkpt lat="55.731300" lon="26.231504">
<ele>133.955200</ele>
<time>2010-07-17T11:23:12Z</time>
<desc>lat.=55.731300, lon.=26.231504, Alt.=133.955200m. Speed=0.108000m/h.</desc>
<speed>0.030000</speed>
</trkpt>
<trkpt lat="55.731300" lon="26.231504">
<ele>133.951294</ele>
<time>2010-07-17T11:23:13Z</time>
<desc>lat.=55.731300, lon.=26.231504, Alt.=133.951294m. Speed=0.036000m/h.</desc>
<speed>0.010000</speed>
</trkpt>
<trkpt lat="55.731300" lon="26.231504">
<ele>133.951294</ele>
<time>2010-07-17T11:23:14Z</time>
<desc>lat.=55.731300, lon.=26.231504, Alt.=133.951294m. Speed=0.036000m/h.</desc>
<speed>0.010000</speed>
</trkpt>
<trkpt lat="55.731300" lon="26.231504">
<ele>133.943481</ele>
<time>2010-07-17T11:23:15Z</time>
<desc>lat.=55.731300, lon.=26.231504, Alt.=133.943481m. Speed=0.000000m/h.</desc>
<speed>0.000000</speed>
</trkpt>
<trkpt lat="55.731300" lon="26.231503">
<ele>133.939575</ele>
<time>2010-07-17T11:23:16Z</time>
<desc>lat.=55.731300, lon.=26.231503, Alt.=133.939575m. Speed=0.036000m/h.</desc>
<speed>0.010000</speed>
</trkpt>
<trkpt lat="55.731300" lon="26.231503">
<ele>133.931763</ele>
<time>2010-07-17T11:23:17Z</time>
<desc>lat.=55.731300, lon.=26.231503, Alt.=133.931763m. Speed=0.108000m/h.</desc>
<speed>0.030000</speed>
</trkpt>
<trkpt lat="55.731300" lon="26.231503">
<ele>133.931763</ele>
<time>2010-07-17T11:23:18Z</time>
<desc>lat.=55.731300, lon.=26.231503, Alt.=133.931763m. Speed=0.036000m/h.</desc>
<speed>0.010000</speed>
</trkpt>
<trkpt lat="55.731300" lon="26.231503">
<ele>133.931763</ele>
<time>2010-07-17T11:23:19Z</time>
<desc>lat.=55.731300, lon.=26.231503, Alt.=133.931763m. Speed=0.000000m/h.</desc>
<speed>0.000000</speed>
</trkpt>
<trkpt lat="55.731300" lon="26.231503">
<ele>133.931763</ele>
<time>2010-07-17T11:23:20Z</time>
<desc>lat.=55.731300, lon.=26.231503, Alt.=133.931763m. Speed=0.036000m/h.</desc>
<speed>0.010000</speed>
</trkpt>
<trkpt lat="55.731300" lon="26.231503">
<ele>133.931763</ele>
<time>2010-07-17T11:23:21Z</time>
<desc>lat.=55.731300, lon.=26.231503, Alt.=133.931763m. Speed=0.072000m/h.</desc>
<speed>0.020000</speed>
</trkpt>
<trkpt lat="55.731300" lon="26.231503">
<ele>133.931763</ele>
<time>2010-07-17T11:23:22Z</time>
<desc>lat.=55.731300, lon.=26.231503, Alt.=133.931763m. Speed=0.000000m/h.</desc>
<speed>0.000000</speed>
</trkpt>
<trkpt lat="55.731300" lon="26.231503">
<ele>133.931763</ele>
<time>2010-07-17T11:23:23Z</time>
<desc>lat.=55.731300, lon.=26.231503, Alt.=133.931763m. Speed=0.036000m/h.</desc>
<speed>0.010000</speed>
</trkpt>
<trkpt lat="55.731300" lon="26.231503">
<ele>133.931763</ele>
<time>2010-07-17T11:23:24Z</time>
<desc>lat.=55.731300, lon.=26.231503, Alt.=133.931763m. Speed=0.036000m/h.</desc>
<speed>0.010000</speed>
</trkpt>
<trkpt lat="55.731300" lon="26.231503">
<ele>133.927856</ele>
<time>2010-07-17T11:23:25Z</time>
<desc>lat.=55.731300, lon.=26.231503, Alt.=133.927856m. Speed=0.000000m/h.</desc>
<speed>0.000000</speed>
</trkpt>
<trkpt lat="55.731300" lon="26.231503">
<ele>133.927856</ele>
<time>2010-07-17T11:23:26Z</time>
<desc>lat.=55.731300, lon.=26.231503, Alt.=133.927856m. Speed=0.000000m/h.</desc>
<speed>0.000000</speed>
</trkpt>
<trkpt lat="55.731300" lon="26.231503">
<ele>133.927856</ele>
<time>2010-07-17T11:23:27Z</time>
<desc>lat.=55.731300, lon.=26.231503, Alt.=133.927856m. Speed=0.072000m/h.</desc>
<speed>0.020000</speed>
</trkpt>
<trkpt lat="55.731300" lon="26.231503">
<ele>133.927856</ele>
<time>2010-07-17T11:23:28Z</time>
<desc>lat.=55.731300, lon.=26.231503, Alt.=133.927856m. Speed=0.000000m/h.</desc>
<speed>0.000000</speed>
</trkpt>
<trkpt lat="55.731300" lon="26.231503">
<ele>133.927856</ele>
<time>2010-07-17T11:23:29Z</time>
<desc>lat.=55.731300, lon.=26.231503, Alt.=133.927856m. Speed=0.072000m/h.</desc>
<speed>0.020000</speed>
</trkpt>
<trkpt lat="55.731300" lon="26.231503">
<ele>133.923950</ele>
<time>2010-07-17T11:23:30Z</time>
<desc>lat.=55.731300, lon.=26.231503, Alt.=133.923950m. Speed=0.036000m/h.</desc>
<speed>0.010000</speed>
</trkpt>
<trkpt lat="55.731300" lon="26.231503">
<ele>133.920044</ele>
<time>2010-07-17T11:23:31Z</time>
<desc>lat.=55.731300, lon.=26.231503, Alt.=133.920044m. Speed=0.144000m/h.</desc>
<speed>0.040000</speed>
</trkpt>
<trkpt lat="55.731300" lon="26.231503">
<ele>133.912231</ele>
<time>2010-07-17T11:23:32Z</time>
<desc>lat.=55.731300, lon.=26.231503, Alt.=133.912231m. Speed=0.072000m/h.</desc>
<speed>0.020000</speed>
</trkpt>
<trkpt lat="55.731300" lon="26.231503">
<ele>133.908325</ele>
<time>2010-07-17T11:23:33Z</time>
<desc>lat.=55.731300, lon.=26.231503, Alt.=133.908325m. Speed=0.108000m/h.</desc>
<speed>0.030000</speed>
</trkpt>
<trkpt lat="55.731300" lon="26.231503">
<ele>133.896606</ele>
<time>2010-07-17T11:23:34Z</time>
<desc>lat.=55.731300, lon.=26.231503, Alt.=133.896606m. Speed=0.144000m/h.</desc>
<speed>0.040000</speed>
</trkpt>
<trkpt lat="55.731300" lon="26.231503">
<ele>133.892700</ele>
<time>2010-07-17T11:23:35Z</time>
<desc>lat.=55.731300, lon.=26.231503, Alt.=133.892700m. Speed=0.252000m/h.</desc>
<speed>0.070000</speed>
</trkpt>
<trkpt lat="55.731300" lon="26.231503">
<ele>133.884888</ele>
<time>2010-07-17T11:23:36Z</time>
<desc>lat.=55.731300, lon.=26.231503, Alt.=133.884888m. Speed=0.180000m/h.</desc>
<speed>0.050000</speed>
</trkpt>
<trkpt lat="55.731300" lon="26.231504">
<ele>133.880981</ele>
<time>2010-07-17T11:23:37Z</time>
<desc>lat.=55.731300, lon.=26.231504, Alt.=133.880981m. Speed=0.288000m/h.</desc>
<speed>0.080000</speed>
</trkpt>
<trkpt lat="55.731300" lon="26.231504">
<ele>133.873169</ele>
<time>2010-07-17T11:23:38Z</time>
<desc>lat.=55.731300, lon.=26.231504, Alt.=133.873169m. Speed=0.396000m/h.</desc>
<speed>0.110000</speed>
</trkpt>
<trkpt lat="55.731297" lon="26.231504">
<ele>133.869263</ele>
<time>2010-07-17T11:23:39Z</time>
<desc>lat.=55.731297, lon.=26.231504, Alt.=133.869263m. Speed=0.468000m/h.</desc>
<speed>0.130000</speed>
</trkpt>
<trkpt lat="55.731297" lon="26.231504">
<ele>133.865356</ele>
<time>2010-07-17T11:23:40Z</time>
<desc>lat.=55.731297, lon.=26.231504, Alt.=133.865356m. Speed=0.504000m/h.</desc>
<speed>0.140000</speed>
</trkpt>
<trkpt lat="55.731297" lon="26.231506">
<ele>133.857544</ele>
<time>2010-07-17T11:23:41Z</time>
<desc>lat.=55.731297, lon.=26.231506, Alt.=133.857544m. Speed=0.576000m/h.</desc>
<speed>0.160000</speed>
</trkpt>
<trkpt lat="55.731293" lon="26.231508">
<ele>133.849731</ele>
<time>2010-07-17T11:23:42Z</time>
<desc>lat.=55.731293, lon.=26.231508, Alt.=133.849731m. Speed=0.684000m/h.</desc>
<speed>0.190000</speed>
</trkpt>
<trkpt lat="55.731293" lon="26.231508">
<ele>133.849731</ele>
<time>2010-07-17T11:23:43Z</time>
<desc>lat.=55.731293, lon.=26.231508, Alt.=133.849731m. Speed=0.540000m/h.</desc>
<speed>0.150000</speed>
</trkpt>
<trkpt lat="55.731289" lon="26.231510">
<ele>133.845825</ele>
<time>2010-07-17T11:23:44Z</time>
<desc>lat.=55.731289, lon.=26.231510, Alt.=133.845825m. Speed=0.540000m/h.</desc>
<speed>0.150000</speed>
</trkpt>
<trkpt lat="55.731289" lon="26.231510">
<ele>133.845825</ele>
<time>2010-07-17T11:23:45Z</time>
<desc>lat.=55.731289, lon.=26.231510, Alt.=133.845825m. Speed=0.504000m/h.</desc>
<speed>0.140000</speed>
</trkpt>
<trkpt lat="55.731289" lon="26.231512">
<ele>133.845825</ele>
<time>2010-07-17T11:23:46Z</time>
<desc>lat.=55.731289, lon.=26.231512, Alt.=133.845825m. Speed=0.540000m/h.</desc>
<speed>0.150000</speed>
</trkpt>
<trkpt lat="55.731285" lon="26.231512">
<ele>133.845825</ele>
<time>2010-07-17T11:23:47Z</time>
<desc>lat.=55.731285, lon.=26.231512, Alt.=133.845825m. Speed=0.540000m/h.</desc>
<speed>0.150000</speed>
</trkpt>
<trkpt lat="55.731285" lon="26.231512">
<ele>133.853638</ele>
<time>2010-07-17T11:23:48Z</time>
<desc>lat.=55.731285, lon.=26.231512, Alt.=133.853638m. Speed=0.504000m/h.</desc>
<speed>0.140000</speed>
</trkpt>
<trkpt lat="55.731285" lon="26.231514">
<ele>133.865356</ele>
<time>2010-07-17T11:23:49Z</time>
<desc>lat.=55.731285, lon.=26.231514, Alt.=133.865356m. Speed=0.468000m/h.</desc>
<speed>0.130000</speed>
</trkpt>
<trkpt lat="55.731281" lon="26.231514">
<ele>133.877075</ele>
<time>2010-07-17T11:23:50Z</time>
<desc>lat.=55.731281, lon.=26.231514, Alt.=133.877075m. Speed=0.396000m/h.</desc>
<speed>0.110000</speed>
</trkpt>
<trkpt lat="55.731281" lon="26.231514">
<ele>133.900513</ele>
<time>2010-07-17T11:23:51Z</time>
<desc>lat.=55.731281, lon.=26.231514, Alt.=133.900513m. Speed=0.468000m/h.</desc>
<speed>0.130000</speed>
</trkpt>
<trkpt lat="55.731281" lon="26.231514">
<ele>133.923950</ele>
<time>2010-07-17T11:23:52Z</time>
<desc>lat.=55.731281, lon.=26.231514, Alt.=133.923950m. Speed=0.432000m/h.</desc>
<speed>0.120000</speed>
</trkpt>
<trkpt lat="55.731281" lon="26.231516">
<ele>133.955200</ele>
<time>2010-07-17T11:23:53Z</time>
<desc>lat.=55.731281, lon.=26.231516, Alt.=133.955200m. Speed=0.432000m/h.</desc>
<speed>0.120000</speed>
</trkpt>
<trkpt lat="55.731277" lon="26.231514">
<ele>133.986450</ele>
<time>2010-07-17T11:23:54Z</time>
<desc>lat.=55.731277, lon.=26.231514, Alt.=133.986450m. Speed=0.360000m/h.</desc>
<speed>0.100000</speed>
</trkpt>
<trkpt lat="55.731277" lon="26.231514">
<ele>134.029419</ele>
<time>2010-07-17T11:23:55Z</time>
<desc>lat.=55.731277, lon.=26.231514, Alt.=134.029419m. Speed=0.324000m/h.</desc>
<speed>0.090000</speed>
</trkpt>
<trkpt lat="55.731277" lon="26.231514">
<ele>134.072388</ele>
<time>2010-07-17T11:23:56Z</time>
<desc>lat.=55.731277, lon.=26.231514, Alt.=134.072388m. Speed=0.216000m/h.</desc>
<speed>0.060000</speed>
</trkpt>
<trkpt lat="55.731277" lon="26.231514">
<ele>134.119263</ele>
<time>2010-07-17T11:23:57Z</time>
<desc>lat.=55.731277, lon.=26.231514, Alt.=134.119263m. Speed=0.216000m/h.</desc>
<speed>0.060000</speed>
</trkpt>
<trkpt lat="55.731277" lon="26.231514">
<ele>134.177856</ele>
<time>2010-07-17T11:23:58Z</time>
<desc>lat.=55.731277, lon.=26.231514, Alt.=134.177856m. Speed=0.144000m/h.</desc>
<speed>0.040000</speed>
</trkpt>
<trkpt lat="55.731277" lon="26.231514">
<ele>134.248169</ele>
<time>2010-07-17T11:23:59Z</time>
<desc>lat.=55.731277, lon.=26.231514, Alt.=134.248169m. Speed=0.108000m/h.</desc>
<speed>0.030000</speed>
</trkpt>
<trkpt lat="55.731277" lon="26.231514">
<ele>134.326294</ele>
<time>2010-07-17T11:24:00Z</time>
<desc>lat.=55.731277, lon.=26.231514, Alt.=134.326294m. Speed=0.072000m/h.</desc>
<speed>0.020000</speed>
</trkpt>
<trkpt lat="55.731277" lon="26.231514">
<ele>134.408325</ele>
<time>2010-07-17T11:24:01Z</time>
<desc>lat.=55.731277, lon.=26.231514, Alt.=134.408325m. Speed=0.180000m/h.</desc>
<speed>0.050000</speed>
</trkpt>
<trkpt lat="55.731277" lon="26.231514">
<ele>134.502075</ele>
<time>2010-07-17T11:24:02Z</time>
<desc>lat.=55.731277, lon.=26.231514, Alt.=134.502075m. Speed=0.252000m/h.</desc>
<speed>0.070000</speed>
</trkpt>
<trkpt lat="55.731277" lon="26.231514">
<ele>134.599731</ele>
<time>2010-07-17T11:24:03Z</time>
<desc>lat.=55.731277, lon.=26.231514, Alt.=134.599731m. Speed=0.360000m/h.</desc>
<speed>0.100000</speed>
</trkpt>
<trkpt lat="55.731277" lon="26.231514">
<ele>134.697388</ele>
<time>2010-07-17T11:24:04Z</time>
<desc>lat.=55.731277, lon.=26.231514, Alt.=134.697388m. Speed=0.432000m/h.</desc>
<speed>0.120000</speed>
</trkpt>
<trkpt lat="55.731281" lon="26.231512">
<ele>134.806763</ele>
<time>2010-07-17T11:24:05Z</time>
<desc>lat.=55.731281, lon.=26.231512, Alt.=134.806763m. Speed=0.468000m/h.</desc>
<speed>0.130000</speed>
</trkpt>
<trkpt lat="55.731281" lon="26.231512">
<ele>134.912231</ele>
<time>2010-07-17T11:24:06Z</time>
<desc>lat.=55.731281, lon.=26.231512, Alt.=134.912231m. Speed=0.540000m/h.</desc>
<speed>0.150000</speed>
</trkpt>
<trkpt lat="55.731281" lon="26.231510">
<ele>135.033325</ele>
<time>2010-07-17T11:24:07Z</time>
<desc>lat.=55.731281, lon.=26.231510, Alt.=135.033325m. Speed=0.612000m/h.</desc>
<speed>0.170000</speed>
</trkpt>
<trkpt lat="55.731285" lon="26.231510">
<ele>135.162231</ele>
<time>2010-07-17T11:24:08Z</time>
<desc>lat.=55.731285, lon.=26.231510, Alt.=135.162231m. Speed=0.648000m/h.</desc>
<speed>0.180000</speed>
</trkpt>
<trkpt lat="55.731285" lon="26.231508">
<ele>135.291138</ele>
<time>2010-07-17T11:24:09Z</time>
<desc>lat.=55.731285, lon.=26.231508, Alt.=135.291138m. Speed=0.612000m/h.</desc>
<speed>0.170000</speed>
</trkpt>
<trkpt lat="55.731285" lon="26.231506">
<ele>135.427856</ele>
<time>2010-07-17T11:24:10Z</time>
<desc>lat.=55.731285, lon.=26.231506, Alt.=135.427856m. Speed=0.576000m/h.</desc>
<speed>0.160000</speed>
</trkpt>
<trkpt lat="55.731289" lon="26.231504">
<ele>135.564575</ele>
<time>2010-07-17T11:24:11Z</time>
<desc>lat.=55.731289, lon.=26.231504, Alt.=135.564575m. Speed=0.468000m/h.</desc>
<speed>0.130000</speed>
</trkpt>
<trkpt lat="55.731289" lon="26.231504">
<ele>135.709106</ele>
<time>2010-07-17T11:24:12Z</time>
<desc>lat.=55.731289, lon.=26.231504, Alt.=135.709106m. Speed=0.432000m/h.</desc>
<speed>0.120000</speed>
</trkpt>
<trkpt lat="55.731289" lon="26.231503">
<ele>135.853638</ele>
<time>2010-07-17T11:24:13Z</time>
<desc>lat.=55.731289, lon.=26.231503, Alt.=135.853638m. Speed=0.360000m/h.</desc>
<speed>0.100000</speed>
</trkpt>
<trkpt lat="55.731289" lon="26.231501">
<ele>136.005981</ele>
<time>2010-07-17T11:24:14Z</time>
<desc>lat.=55.731289, lon.=26.231501, Alt.=136.005981m. Speed=0.396000m/h.</desc>
<speed>0.110000</speed>
</trkpt>
<trkpt lat="55.731289" lon="26.231499">
<ele>136.158325</ele>
<time>2010-07-17T11:24:15Z</time>
<desc>lat.=55.731289, lon.=26.231499, Alt.=136.158325m. Speed=0.324000m/h.</desc>
<speed>0.090000</speed>
</trkpt>
<trkpt lat="55.731289" lon="26.231499">
<ele>136.310669</ele>
<time>2010-07-17T11:24:16Z</time>
<desc>lat.=55.731289, lon.=26.231499, Alt.=136.310669m. Speed=0.288000m/h.</desc>
<speed>0.080000</speed>
</trkpt>
<trkpt lat="55.731289" lon="26.231497">
<ele>136.470825</ele>
<time>2010-07-17T11:24:17Z</time>
<desc>lat.=55.731289, lon.=26.231497, Alt.=136.470825m. Speed=0.324000m/h.</desc>
<speed>0.090000</speed>
</trkpt>
<trkpt lat="55.731289" lon="26.231495">
<ele>136.627075</ele>
<time>2010-07-17T11:24:18Z</time>
<desc>lat.=55.731289, lon.=26.231495, Alt.=136.627075m. Speed=0.288000m/h.</desc>
<speed>0.080000</speed>
</trkpt>
<trkpt lat="55.731289" lon="26.231493">
<ele>136.791138</ele>
<time>2010-07-17T11:24:19Z</time>
<desc>lat.=55.731289, lon.=26.231493, Alt.=136.791138m. Speed=0.252000m/h.</desc>
<speed>0.070000</speed>
</trkpt>
<trkpt lat="55.731289" lon="26.231493">
<ele>136.951294</ele>
<time>2010-07-17T11:24:20Z</time>
<desc>lat.=55.731289, lon.=26.231493, Alt.=136.951294m. Speed=0.252000m/h.</desc>
<speed>0.070000</speed>
</trkpt>
<trkpt lat="55.731289" lon="26.231491">
<ele>137.115356</ele>
<time>2010-07-17T11:24:21Z</time>
<desc>lat.=55.731289, lon.=26.231491, Alt.=137.115356m. Speed=0.216000m/h.</desc>
<speed>0.060000</speed>
</trkpt>
<trkpt lat="55.731289" lon="26.231491">
<ele>137.283325</ele>
<time>2010-07-17T11:24:22Z</time>
<desc>lat.=55.731289, lon.=26.231491, Alt.=137.283325m. Speed=0.252000m/h.</desc>
<speed>0.070000</speed>
</trkpt>
<trkpt lat="55.731293" lon="26.231489">
<ele>137.447388</ele>
<time>2010-07-17T11:24:23Z</time>
<desc>lat.=55.731293, lon.=26.231489, Alt.=137.447388m. Speed=0.180000m/h.</desc>
<speed>0.050000</speed>
</trkpt>
<trkpt lat="55.731293" lon="26.231489">
<ele>137.607544</ele>
<time>2010-07-17T11:24:24Z</time>
<desc>lat.=55.731293, lon.=26.231489, Alt.=137.607544m. Speed=0.144000m/h.</desc>
<speed>0.040000</speed>
</trkpt>
<trkpt lat="55.731293" lon="26.231487">
<ele>137.775513</ele>
<time>2010-07-17T11:24:25Z</time>
<desc>lat.=55.731293, lon.=26.231487, Alt.=137.775513m. Speed=0.252000m/h.</desc>
<speed>0.070000</speed>
</trkpt>
<trkpt lat="55.731293" lon="26.231487">
<ele>137.943481</ele>
<time>2010-07-17T11:24:26Z</time>
<desc>lat.=55.731293, lon.=26.231487, Alt.=137.943481m. Speed=0.252000m/h.</desc>
<speed>0.070000</speed>
</trkpt>
<trkpt lat="55.731293" lon="26.231489">
<ele>138.123169</ele>
<time>2010-07-17T11:24:27Z</time>
<desc>lat.=55.731293, lon.=26.231489, Alt.=138.123169m. Speed=0.396000m/h.</desc>
<speed>0.110000</speed>
</trkpt>
<trkpt lat="55.731293" lon="26.231489">
<ele>138.314575</ele>
<time>2010-07-17T11:24:28Z</time>
<desc>lat.=55.731293, lon.=26.231489, Alt.=138.314575m. Speed=0.360000m/h.</desc>
<speed>0.100000</speed>
</trkpt>
<trkpt lat="55.731297" lon="26.231491">
<ele>138.517700</ele>
<time>2010-07-17T11:24:29Z</time>
<desc>lat.=55.731297, lon.=26.231491, Alt.=138.517700m. Speed=0.432000m/h.</desc>
<speed>0.120000</speed>
</trkpt>
<trkpt lat="55.731297" lon="26.231493">
<ele>138.724731</ele>
<time>2010-07-17T11:24:30Z</time>
<desc>lat.=55.731297, lon.=26.231493, Alt.=138.724731m. Speed=0.468000m/h.</desc>
<speed>0.130000</speed>
</trkpt>
<trkpt lat="55.731297" lon="26.231493">
<ele>138.935669</ele>
<time>2010-07-17T11:24:31Z</time>
<desc>lat.=55.731297, lon.=26.231493, Alt.=138.935669m. Speed=0.504000m/h.</desc>
<speed>0.140000</speed>
</trkpt>
<trkpt lat="55.731297" lon="26.231495">
<ele>139.150513</ele>
<time>2010-07-17T11:24:32Z</time>
<desc>lat.=55.731297, lon.=26.231495, Alt.=139.150513m. Speed=0.576000m/h.</desc>
<speed>0.160000</speed>
</trkpt>
<trkpt lat="55.731300" lon="26.231495">
<ele>139.369263</ele>
<time>2010-07-17T11:24:33Z</time>
<desc>lat.=55.731300, lon.=26.231495, Alt.=139.369263m. Speed=0.612000m/h.</desc>
<speed>0.170000</speed>
</trkpt>
<trkpt lat="55.731300" lon="26.231497">
<ele>139.595825</ele>
<time>2010-07-17T11:24:34Z</time>
<desc>lat.=55.731300, lon.=26.231497, Alt.=139.595825m. Speed=0.612000m/h.</desc>
<speed>0.170000</speed>
</trkpt>
<trkpt lat="55.731304" lon="26.231497">
<ele>139.826294</ele>
<time>2010-07-17T11:24:35Z</time>
<desc>lat.=55.731304, lon.=26.231497, Alt.=139.826294m. Speed=0.648000m/h.</desc>
<speed>0.180000</speed>
</trkpt>
<trkpt lat="55.731304" lon="26.231499">
<ele>140.060669</ele>
<time>2010-07-17T11:24:36Z</time>
<desc>lat.=55.731304, lon.=26.231499, Alt.=140.060669m. Speed=0.576000m/h.</desc>
<speed>0.160000</speed>
</trkpt>
<trkpt lat="55.731304" lon="26.231501">
<ele>140.302856</ele>
<time>2010-07-17T11:24:37Z</time>
<desc>lat.=55.731304, lon.=26.231501, Alt.=140.302856m. Speed=0.612000m/h.</desc>
<speed>0.170000</speed>
</trkpt>
<trkpt lat="55.731308" lon="26.231501">
<ele>140.548950</ele>
<time>2010-07-17T11:24:38Z</time>
<desc>lat.=55.731308, lon.=26.231501, Alt.=140.548950m. Speed=0.648000m/h.</desc>
<speed>0.180000</speed>
</trkpt>
<trkpt lat="55.731308" lon="26.231503">
<ele>140.802856</ele>
<time>2010-07-17T11:24:39Z</time>
<desc>lat.=55.731308, lon.=26.231503, Alt.=140.802856m. Speed=0.684000m/h.</desc>
<speed>0.190000</speed>
</trkpt>
<trkpt lat="55.731312" lon="26.231504">
<ele>141.060669</ele>
<time>2010-07-17T11:24:40Z</time>
<desc>lat.=55.731312, lon.=26.231504, Alt.=141.060669m. Speed=0.756000m/h.</desc>
<speed>0.210000</speed>
</trkpt>
<trkpt lat="55.731312" lon="26.231506">
<ele>141.326294</ele>
<time>2010-07-17T11:24:41Z</time>
<desc>lat.=55.731312, lon.=26.231506, Alt.=141.326294m. Speed=0.720000m/h.</desc>
<speed>0.200000</speed>
</trkpt>
<trkpt lat="55.731316" lon="26.231506">
<ele>141.595825</ele>
<time>2010-07-17T11:24:42Z</time>
<desc>lat.=55.731316, lon.=26.231506, Alt.=141.595825m. Speed=0.756000m/h.</desc>
<speed>0.210000</speed>
</trkpt>
<trkpt lat="55.731316" lon="26.231508">
<ele>141.869263</ele>
<time>2010-07-17T11:24:43Z</time>
<desc>lat.=55.731316, lon.=26.231508, Alt.=141.869263m. Speed=0.756000m/h.</desc>
<speed>0.210000</speed>
</trkpt>
<trkpt lat="55.731319" lon="26.231508">
<ele>142.142700</ele>
<time>2010-07-17T11:24:44Z</time>
<desc>lat.=55.731319, lon.=26.231508, Alt.=142.142700m. Speed=0.684000m/h.</desc>
<speed>0.190000</speed>
</trkpt>
<trkpt lat="55.731319" lon="26.231510">
<ele>142.427856</ele>
<time>2010-07-17T11:24:45Z</time>
<desc>lat.=55.731319, lon.=26.231510, Alt.=142.427856m. Speed=0.720000m/h.</desc>
<speed>0.200000</speed>
</trkpt>
<trkpt lat="55.731319" lon="26.231512">
<ele>142.709106</ele>
<time>2010-07-17T11:24:46Z</time>
<desc>lat.=55.731319, lon.=26.231512, Alt.=142.709106m. Speed=0.648000m/h.</desc>
<speed>0.180000</speed>
</trkpt>
<trkpt lat="55.731323" lon="26.231512">
<ele>142.990356</ele>
<time>2010-07-17T11:24:47Z</time>
<desc>lat.=55.731323, lon.=26.231512, Alt.=142.990356m. Speed=0.684000m/h.</desc>
<speed>0.190000</speed>
</trkpt>
<trkpt lat="55.731323" lon="26.231514">
<ele>143.283325</ele>
<time>2010-07-17T11:24:48Z</time>
<desc>lat.=55.731323, lon.=26.231514, Alt.=143.283325m. Speed=0.684000m/h.</desc>
<speed>0.190000</speed>
</trkpt>
<trkpt lat="55.731327" lon="26.231514">
<ele>143.580200</ele>
<time>2010-07-17T11:24:49Z</time>
<desc>lat.=55.731327, lon.=26.231514, Alt.=143.580200m. Speed=0.648000m/h.</desc>
<speed>0.180000</speed>
</trkpt>
<trkpt lat="55.731327" lon="26.231516">
<ele>143.884888</ele>
<time>2010-07-17T11:24:50Z</time>
<desc>lat.=55.731327, lon.=26.231516, Alt.=143.884888m. Speed=0.684000m/h.</desc>
<speed>0.190000</speed>
</trkpt>
<trkpt lat="55.731327" lon="26.231518">
<ele>144.189575</ele>
<time>2010-07-17T11:24:51Z</time>
<desc>lat.=55.731327, lon.=26.231518, Alt.=144.189575m. Speed=0.648000m/h.</desc>
<speed>0.180000</speed>
</trkpt>
<trkpt lat="55.731331" lon="26.231518">
<ele>144.494263</ele>
<time>2010-07-17T11:24:52Z</time>
<desc>lat.=55.731331, lon.=26.231518, Alt.=144.494263m. Speed=0.648000m/h.</desc>
<speed>0.180000</speed>
</trkpt>
<trkpt lat="55.731331" lon="26.231520">
<ele>144.798950</ele>
<time>2010-07-17T11:24:53Z</time>
<desc>lat.=55.731331, lon.=26.231520, Alt.=144.798950m. Speed=0.648000m/h.</desc>
<speed>0.180000</speed>
</trkpt>
<trkpt lat="55.731335" lon="26.231520">
<ele>145.107544</ele>
<time>2010-07-17T11:24:54Z</time>
<desc>lat.=55.731335, lon.=26.231520, Alt.=145.107544m. Speed=0.648000m/h.</desc>
<speed>0.180000</speed>
</trkpt>
<trkpt lat="55.731335" lon="26.231520">
<ele>145.412231</ele>
<time>2010-07-17T11:24:55Z</time>
<desc>lat.=55.731335, lon.=26.231520, Alt.=145.412231m. Speed=0.540000m/h.</desc>
<speed>0.150000</speed>
</trkpt>
<trkpt lat="55.731335" lon="26.231522">
<ele>145.720825</ele>
<time>2010-07-17T11:24:56Z</time>
<desc>lat.=55.731335, lon.=26.231522, Alt.=145.720825m. Speed=0.576000m/h.</desc>
<speed>0.160000</speed>
</trkpt>
<trkpt lat="55.731339" lon="26.231524">
<ele>146.021606</ele>
<time>2010-07-17T11:24:57Z</time>
<desc>lat.=55.731339, lon.=26.231524, Alt.=146.021606m. Speed=0.540000m/h.</desc>
<speed>0.150000</speed>
</trkpt>
<trkpt lat="55.731339" lon="26.231525">
<ele>146.318481</ele>
<time>2010-07-17T11:24:58Z</time>
<desc>lat.=55.731339, lon.=26.231525, Alt.=146.318481m. Speed=0.396000m/h.</desc>
<speed>0.110000</speed>
</trkpt>
<trkpt lat="55.731339" lon="26.231527">
<ele>146.611450</ele>
<time>2010-07-17T11:24:59Z</time>
<desc>lat.=55.731339, lon.=26.231527, Alt.=146.611450m. Speed=0.432000m/h.</desc>
<speed>0.120000</speed>
</trkpt>
<trkpt lat="55.731339" lon="26.231527">
<ele>146.900513</ele>
<time>2010-07-17T11:25:00Z</time>
<desc>lat.=55.731339, lon.=26.231527, Alt.=146.900513m. Speed=0.288000m/h.</desc>
<speed>0.080000</speed>
</trkpt>
<trkpt lat="55.731339" lon="26.231529">
<ele>147.177856</ele>
<time>2010-07-17T11:25:01Z</time>
<desc>lat.=55.731339, lon.=26.231529, Alt.=147.177856m. Speed=0.288000m/h.</desc>
<speed>0.080000</speed>
</trkpt>
<trkpt lat="55.731339" lon="26.231531">
<ele>147.455200</ele>
<time>2010-07-17T11:25:02Z</time>
<desc>lat.=55.731339, lon.=26.231531, Alt.=147.455200m. Speed=0.324000m/h.</desc>
<speed>0.090000</speed>
</trkpt>
<trkpt lat="55.731339" lon="26.231533">
<ele>147.728638</ele>
<time>2010-07-17T11:25:03Z</time>
<desc>lat.=55.731339, lon.=26.231533, Alt.=147.728638m. Speed=0.324000m/h.</desc>
<speed>0.090000</speed>
</trkpt>
<trkpt lat="55.731339" lon="26.231533">
<ele>147.998169</ele>
<time>2010-07-17T11:25:04Z</time>
<desc>lat.=55.731339, lon.=26.231533, Alt.=147.998169m. Speed=0.504000m/h.</desc>
<speed>0.140000</speed>
</trkpt>
<trkpt lat="55.731339" lon="26.231535">
<ele>148.271606</ele>
<time>2010-07-17T11:25:05Z</time>
<desc>lat.=55.731339, lon.=26.231535, Alt.=148.271606m. Speed=0.504000m/h.</desc>
<speed>0.140000</speed>
</trkpt>
<trkpt lat="55.731335" lon="26.231537">
<ele>148.541138</ele>
<time>2010-07-17T11:25:06Z</time>
<desc>lat.=55.731335, lon.=26.231537, Alt.=148.541138m. Speed=0.576000m/h.</desc>
<speed>0.160000</speed>
</trkpt>
<trkpt lat="55.731335" lon="26.231539">
<ele>148.810669</ele>
<time>2010-07-17T11:25:07Z</time>
<desc>lat.=55.731335, lon.=26.231539, Alt.=148.810669m. Speed=0.504000m/h.</desc>
<speed>0.140000</speed>
</trkpt>
<trkpt lat="55.731335" lon="26.231541">
<ele>149.068481</ele>
<time>2010-07-17T11:25:08Z</time>
<desc>lat.=55.731335, lon.=26.231541, Alt.=149.068481m. Speed=0.504000m/h.</desc>
<speed>0.140000</speed>
</trkpt>
<trkpt lat="55.731331" lon="26.231541">
<ele>149.318481</ele>
<time>2010-07-17T11:25:09Z</time>
<desc>lat.=55.731331, lon.=26.231541, Alt.=149.318481m. Speed=0.468000m/h.</desc>
<speed>0.130000</speed>
</trkpt>
<trkpt lat="55.731331" lon="26.231541">
<ele>149.552856</ele>
<time>2010-07-17T11:25:10Z</time>
<desc>lat.=55.731331, lon.=26.231541, Alt.=149.552856m. Speed=0.504000m/h.</desc>
<speed>0.140000</speed>
</trkpt>
<trkpt lat="55.731331" lon="26.231543">
<ele>149.775513</ele>
<time>2010-07-17T11:25:11Z</time>
<desc>lat.=55.731331, lon.=26.231543, Alt.=149.775513m. Speed=0.504000m/h.</desc>
<speed>0.140000</speed>
</trkpt>
<trkpt lat="55.731327" lon="26.231543">
<ele>149.982544</ele>
<time>2010-07-17T11:25:12Z</time>
<desc>lat.=55.731327, lon.=26.231543, Alt.=149.982544m. Speed=0.540000m/h.</desc>
<speed>0.150000</speed>
</trkpt>
<trkpt lat="55.731327" lon="26.231543">
<ele>150.173950</ele>
<time>2010-07-17T11:25:13Z</time>
<desc>lat.=55.731327, lon.=26.231543, Alt.=150.173950m. Speed=0.468000m/h.</desc>
<speed>0.130000</speed>
</trkpt>
<trkpt lat="55.731327" lon="26.231543">
<ele>150.345825</ele>
<time>2010-07-17T11:25:14Z</time>
<desc>lat.=55.731327, lon.=26.231543, Alt.=150.345825m. Speed=0.432000m/h.</desc>
<speed>0.120000</speed>
</trkpt>
<trkpt lat="55.731323" lon="26.231544">
<ele>150.509888</ele>
<time>2010-07-17T11:25:15Z</time>
<desc>lat.=55.731323, lon.=26.231544, Alt.=150.509888m. Speed=0.468000m/h.</desc>
<speed>0.130000</speed>
</trkpt>
<trkpt lat="55.731323" lon="26.231544">
<ele>150.666138</ele>
<time>2010-07-17T11:25:16Z</time>
<desc>lat.=55.731323, lon.=26.231544, Alt.=150.666138m. Speed=0.540000m/h.</desc>
<speed>0.150000</speed>
</trkpt>
<trkpt lat="55.731323" lon="26.231544">
<ele>150.806763</ele>
<time>2010-07-17T11:25:17Z</time>
<desc>lat.=55.731323, lon.=26.231544, Alt.=150.806763m. Speed=0.576000m/h.</desc>
<speed>0.160000</speed>
</trkpt>
<trkpt lat="55.731319" lon="26.231543">
<ele>150.931763</ele>
<time>2010-07-17T11:25:18Z</time>
<desc>lat.=55.731319, lon.=26.231543, Alt.=150.931763m. Speed=0.612000m/h.</desc>
<speed>0.170000</speed>
</trkpt>
<trkpt lat="55.731319" lon="26.231543">
<ele>151.056763</ele>
<time>2010-07-17T11:25:19Z</time>
<desc>lat.=55.731319, lon.=26.231543, Alt.=151.056763m. Speed=0.576000m/h.</desc>
<speed>0.160000</speed>
</trkpt>
<trkpt lat="55.731316" lon="26.231543">
<ele>151.173950</ele>
<time>2010-07-17T11:25:20Z</time>
<desc>lat.=55.731316, lon.=26.231543, Alt.=151.173950m. Speed=0.648000m/h.</desc>
<speed>0.180000</speed>
</trkpt>
<trkpt lat="55.731316" lon="26.231541">
<ele>151.287231</ele>
<time>2010-07-17T11:25:21Z</time>
<desc>lat.=55.731316, lon.=26.231541, Alt.=151.287231m. Speed=0.684000m/h.</desc>
<speed>0.190000</speed>
</trkpt>
<trkpt lat="55.731312" lon="26.231541">
<ele>151.388794</ele>
<time>2010-07-17T11:25:22Z</time>
<desc>lat.=55.731312, lon.=26.231541, Alt.=151.388794m. Speed=0.720000m/h.</desc>
<speed>0.200000</speed>
</trkpt>
<trkpt lat="55.731312" lon="26.231541">
<ele>151.478638</ele>
<time>2010-07-17T11:25:23Z</time>
<desc>lat.=55.731312, lon.=26.231541, Alt.=151.478638m. Speed=0.684000m/h.</desc>
<speed>0.190000</speed>
</trkpt>
<trkpt lat="55.731308" lon="26.231541">
<ele>151.556763</ele>
<time>2010-07-17T11:25:24Z</time>
<desc>lat.=55.731308, lon.=26.231541, Alt.=151.556763m. Speed=0.792000m/h.</desc>
<speed>0.220000</speed>
</trkpt>
<trkpt lat="55.731308" lon="26.231541">
<ele>151.603638</ele>
<time>2010-07-17T11:25:25Z</time>
<desc>lat.=55.731308, lon.=26.231541, Alt.=151.603638m. Speed=0.540000m/h.</desc>
<speed>0.150000</speed>
</trkpt>
<trkpt lat="55.731308" lon="26.231543">
<ele>151.630981</ele>
<time>2010-07-17T11:25:26Z</time>
<desc>lat.=55.731308, lon.=26.231543, Alt.=151.630981m. Speed=0.576000m/h.</desc>
<speed>0.160000</speed>
</trkpt>
<trkpt lat="55.731304" lon="26.231544">
<ele>151.654419</ele>
<time>2010-07-17T11:25:27Z</time>
<desc>lat.=55.731304, lon.=26.231544, Alt.=151.654419m. Speed=0.612000m/h.</desc>
<speed>0.170000</speed>
</trkpt>
<trkpt lat="55.731304" lon="26.231544">
<ele>151.662231</ele>
<time>2010-07-17T11:25:28Z</time>
<desc>lat.=55.731304, lon.=26.231544, Alt.=151.662231m. Speed=0.576000m/h.</desc>
<speed>0.160000</speed>
</trkpt>
<trkpt lat="55.731300" lon="26.231544">
<ele>151.666138</ele>
<time>2010-07-17T11:25:29Z</time>
<desc>lat.=55.731300, lon.=26.231544, Alt.=151.666138m. Speed=0.540000m/h.</desc>
<speed>0.150000</speed>
</trkpt>
<trkpt lat="55.731300" lon="26.231546">
<ele>151.654419</ele>
<time>2010-07-17T11:25:30Z</time>
<desc>lat.=55.731300, lon.=26.231546, Alt.=151.654419m. Speed=0.360000m/h.</desc>
<speed>0.100000</speed>
</trkpt>
<trkpt lat="55.731300" lon="26.231546">
<ele>151.642700</ele>
<time>2010-07-17T11:25:31Z</time>
<desc>lat.=55.731300, lon.=26.231546, Alt.=151.642700m. Speed=0.396000m/h.</desc>
<speed>0.110000</speed>
</trkpt>
<trkpt lat="55.731300" lon="26.231546">
<ele>151.627075</ele>
<time>2010-07-17T11:25:32Z</time>
<desc>lat.=55.731300, lon.=26.231546, Alt.=151.627075m. Speed=0.324000m/h.</desc>
<speed>0.090000</speed>
</trkpt>
<trkpt lat="55.731300" lon="26.231548">
<ele>151.615356</ele>
<time>2010-07-17T11:25:33Z</time>
<desc>lat.=55.731300, lon.=26.231548, Alt.=151.615356m. Speed=0.288000m/h.</desc>
<speed>0.080000</speed>
</trkpt>
<trkpt lat="55.731297" lon="26.231548">
<ele>151.595825</ele>
<time>2010-07-17T11:25:34Z</time>
<desc>lat.=55.731297, lon.=26.231548, Alt.=151.595825m. Speed=0.288000m/h.</desc>
<speed>0.080000</speed>
</trkpt>
<trkpt lat="55.731297" lon="26.231548">
<ele>151.568481</ele>
<time>2010-07-17T11:25:35Z</time>
<desc>lat.=55.731297, lon.=26.231548, Alt.=151.568481m. Speed=0.216000m/h.</desc>
<speed>0.060000</speed>
</trkpt>
<trkpt lat="55.731297" lon="26.231548">
<ele>151.556763</ele>
<time>2010-07-17T11:25:36Z</time>
<desc>lat.=55.731297, lon.=26.231548, Alt.=151.556763m. Speed=0.180000m/h.</desc>
<speed>0.050000</speed>
</trkpt>
<trkpt lat="55.731297" lon="26.231548">
<ele>151.533325</ele>
<time>2010-07-17T11:25:37Z</time>
<desc>lat.=55.731297, lon.=26.231548, Alt.=151.533325m. Speed=0.180000m/h.</desc>
<speed>0.050000</speed>
</trkpt>
<trkpt lat="55.731297" lon="26.231550">
<ele>151.509888</ele>
<time>2010-07-17T11:25:38Z</time>
<desc>lat.=55.731297, lon.=26.231550, Alt.=151.509888m. Speed=0.288000m/h.</desc>
<speed>0.080000</speed>
</trkpt>
<trkpt lat="55.731297" lon="26.231550">
<ele>151.474731</ele>
<time>2010-07-17T11:25:39Z</time>
<desc>lat.=55.731297, lon.=26.231550, Alt.=151.474731m. Speed=0.324000m/h.</desc>
<speed>0.090000</speed>
</trkpt>
<trkpt lat="55.731293" lon="26.231550">
<ele>151.427856</ele>
<time>2010-07-17T11:25:40Z</time>
<desc>lat.=55.731293, lon.=26.231550, Alt.=151.427856m. Speed=0.504000m/h.</desc>
<speed>0.140000</speed>
</trkpt>
<trkpt lat="55.731293" lon="26.231550">
<ele>151.392700</ele>
<time>2010-07-17T11:25:41Z</time>
<desc>lat.=55.731293, lon.=26.231550, Alt.=151.392700m. Speed=0.432000m/h.</desc>
<speed>0.120000</speed>
</trkpt>
<trkpt lat="55.731293" lon="26.231550">
<ele>151.357544</ele>
<time>2010-07-17T11:25:42Z</time>
<desc>lat.=55.731293, lon.=26.231550, Alt.=151.357544m. Speed=0.360000m/h.</desc>
<speed>0.100000</speed>
</trkpt>
<trkpt lat="55.731289" lon="26.231550">
<ele>151.326294</ele>
<time>2010-07-17T11:25:43Z</time>
<desc>lat.=55.731289, lon.=26.231550, Alt.=151.326294m. Speed=0.360000m/h.</desc>
<speed>0.100000</speed>
</trkpt>
<trkpt lat="55.731289" lon="26.231550">
<ele>151.271606</ele>
<time>2010-07-17T11:25:44Z</time>
<desc>lat.=55.731289, lon.=26.231550, Alt.=151.271606m. Speed=0.396000m/h.</desc>
<speed>0.110000</speed>
</trkpt>
<trkpt lat="55.731289" lon="26.231550">
<ele>151.213013</ele>
<time>2010-07-17T11:25:45Z</time>
<desc>lat.=55.731289, lon.=26.231550, Alt.=151.213013m. Speed=0.360000m/h.</desc>
<speed>0.100000</speed>
</trkpt>
<trkpt lat="55.731289" lon="26.231550">
<ele>151.154419</ele>
<time>2010-07-17T11:25:46Z</time>
<desc>lat.=55.731289, lon.=26.231550, Alt.=151.154419m. Speed=0.360000m/h.</desc>
<speed>0.100000</speed>
</trkpt>
<trkpt lat="55.731289" lon="26.231550">
<ele>151.107544</ele>
<time>2010-07-17T11:25:47Z</time>
<desc>lat.=55.731289, lon.=26.231550, Alt.=151.107544m. Speed=0.216000m/h.</desc>
<speed>0.060000</speed>
</trkpt>
<trkpt lat="55.731285" lon="26.231550">
<ele>151.064575</ele>
<time>2010-07-17T11:25:48Z</time>
<desc>lat.=55.731285, lon.=26.231550, Alt.=151.064575m. Speed=0.180000m/h.</desc>
<speed>0.050000</speed>
</trkpt>
<trkpt lat="55.731285" lon="26.231550">
<ele>151.013794</ele>
<time>2010-07-17T11:25:49Z</time>
<desc>lat.=55.731285, lon.=26.231550, Alt.=151.013794m. Speed=0.216000m/h.</desc>
<speed>0.060000</speed>
</trkpt>
<trkpt lat="55.731285" lon="26.231548">
<ele>150.974731</ele>
<time>2010-07-17T11:25:50Z</time>
<desc>lat.=55.731285, lon.=26.231548, Alt.=150.974731m. Speed=0.216000m/h.</desc>
<speed>0.060000</speed>
</trkpt>
<trkpt lat="55.731285" lon="26.231548">
<ele>150.916138</ele>
<time>2010-07-17T11:25:51Z</time>
<desc>lat.=55.731285, lon.=26.231548, Alt.=150.916138m. Speed=0.252000m/h.</desc>
<speed>0.070000</speed>
</trkpt>
<trkpt lat="55.731285" lon="26.231548">
<ele>150.861450</ele>
<time>2010-07-17T11:25:52Z</time>
<desc>lat.=55.731285, lon.=26.231548, Alt.=150.861450m. Speed=0.288000m/h.</desc>
<speed>0.080000</speed>
</trkpt>
<trkpt lat="55.731285" lon="26.231548">
<ele>150.798950</ele>
<time>2010-07-17T11:25:53Z</time>
<desc>lat.=55.731285, lon.=26.231548, Alt.=150.798950m. Speed=0.252000m/h.</desc>
<speed>0.070000</speed>
</trkpt>
<trkpt lat="55.731285" lon="26.231546">
<ele>150.736450</ele>
<time>2010-07-17T11:25:54Z</time>
<desc>lat.=55.731285, lon.=26.231546, Alt.=150.736450m. Speed=0.288000m/h.</desc>
<speed>0.080000</speed>
</trkpt>
<trkpt lat="55.731281" lon="26.231546">
<ele>150.666138</ele>
<time>2010-07-17T11:25:55Z</time>
<desc>lat.=55.731281, lon.=26.231546, Alt.=150.666138m. Speed=0.252000m/h.</desc>
<speed>0.070000</speed>
</trkpt>
<trkpt lat="55.731281" lon="26.231546">
<ele>150.595825</ele>
<time>2010-07-17T11:25:56Z</time>
<desc>lat.=55.731281, lon.=26.231546, Alt.=150.595825m. Speed=0.216000m/h.</desc>
<speed>0.060000</speed>
</trkpt>
<trkpt lat="55.731281" lon="26.231544">
<ele>150.517700</ele>
<time>2010-07-17T11:25:57Z</time>
<desc>lat.=55.731281, lon.=26.231544, Alt.=150.517700m. Speed=0.324000m/h.</desc>
<speed>0.090000</speed>
</trkpt>
<trkpt lat="55.731281" lon="26.231544">
<ele>150.443481</ele>
<time>2010-07-17T11:25:58Z</time>
<desc>lat.=55.731281, lon.=26.231544, Alt.=150.443481m. Speed=0.252000m/h.</desc>
<speed>0.070000</speed>
</trkpt>
<trkpt lat="55.731281" lon="26.231543">
<ele>150.369263</ele>
<time>2010-07-17T11:25:59Z</time>
<desc>lat.=55.731281, lon.=26.231543, Alt.=150.369263m. Speed=0.360000m/h.</desc>
<speed>0.100000</speed>
</trkpt>
<trkpt lat="55.731281" lon="26.231543">
<ele>150.295044</ele>
<time>2010-07-17T11:26:00Z</time>
<desc>lat.=55.731281, lon.=26.231543, Alt.=150.295044m. Speed=0.360000m/h.</desc>
<speed>0.100000</speed>
</trkpt>
<trkpt lat="55.731277" lon="26.231543">
<ele>150.224731</ele>
<time>2010-07-17T11:26:01Z</time>
<desc>lat.=55.731277, lon.=26.231543, Alt.=150.224731m. Speed=0.396000m/h.</desc>
<speed>0.110000</speed>
</trkpt>
<trkpt lat="55.731277" lon="26.231541">
<ele>150.142700</ele>
<time>2010-07-17T11:26:02Z</time>
<desc>lat.=55.731277, lon.=26.231541, Alt.=150.142700m. Speed=0.432000m/h.</desc>
<speed>0.120000</speed>
</trkpt>
<trkpt lat="55.731277" lon="26.231541">
<ele>150.060669</ele>
<time>2010-07-17T11:26:03Z</time>
<desc>lat.=55.731277, lon.=26.231541, Alt.=150.060669m. Speed=0.504000m/h.</desc>
<speed>0.140000</speed>
</trkpt>
<trkpt lat="55.731274" lon="26.231539">
<ele>149.986450</ele>
<time>2010-07-17T11:26:04Z</time>
<desc>lat.=55.731274, lon.=26.231539, Alt.=149.986450m. Speed=0.504000m/h.</desc>
<speed>0.140000</speed>
</trkpt>
<trkpt lat="55.731274" lon="26.231539">
<ele>149.908325</ele>
<time>2010-07-17T11:26:05Z</time>
<desc>lat.=55.731274, lon.=26.231539, Alt.=149.908325m. Speed=0.504000m/h.</desc>
<speed>0.140000</speed>
</trkpt>
<trkpt lat="55.731274" lon="26.231539">
<ele>149.826294</ele>
<time>2010-07-17T11:26:06Z</time>
<desc>lat.=55.731274, lon.=26.231539, Alt.=149.826294m. Speed=0.576000m/h.</desc>
<speed>0.160000</speed>
</trkpt>
<trkpt lat="55.731270" lon="26.231537">
<ele>149.755981</ele>
<time>2010-07-17T11:26:07Z</time>
<desc>lat.=55.731270, lon.=26.231537, Alt.=149.755981m. Speed=0.396000m/h.</desc>
<speed>0.110000</speed>
</trkpt>
<trkpt lat="55.731270" lon="26.231537">
<ele>149.685669</ele>
<time>2010-07-17T11:26:08Z</time>
<desc>lat.=55.731270, lon.=26.231537, Alt.=149.685669m. Speed=0.432000m/h.</desc>
<speed>0.120000</speed>
</trkpt>
<trkpt lat="55.731270" lon="26.231537">
<ele>149.619263</ele>
<time>2010-07-17T11:26:09Z</time>
<desc>lat.=55.731270, lon.=26.231537, Alt.=149.619263m. Speed=0.432000m/h.</desc>
<speed>0.120000</speed>
</trkpt>
<trkpt lat="55.731270" lon="26.231537">
<ele>149.556763</ele>
<time>2010-07-17T11:26:10Z</time>
<desc>lat.=55.731270, lon.=26.231537, Alt.=149.556763m. Speed=0.432000m/h.</desc>
<speed>0.120000</speed>
</trkpt>
<trkpt lat="55.731266" lon="26.231537">
<ele>149.494263</ele>
<time>2010-07-17T11:26:11Z</time>
<desc>lat.=55.731266, lon.=26.231537, Alt.=149.494263m. Speed=0.396000m/h.</desc>
<speed>0.110000</speed>
</trkpt>
<trkpt lat="55.731266" lon="26.231535">
<ele>149.431763</ele>
<time>2010-07-17T11:26:12Z</time>
<desc>lat.=55.731266, lon.=26.231535, Alt.=149.431763m. Speed=0.324000m/h.</desc>
<speed>0.090000</speed>
</trkpt>
<trkpt lat="55.731266" lon="26.231535">
<ele>149.373169</ele>
<time>2010-07-17T11:26:13Z</time>
<desc>lat.=55.731266, lon.=26.231535, Alt.=149.373169m. Speed=0.288000m/h.</desc>
<speed>0.080000</speed>
</trkpt>
<trkpt lat="55.731266" lon="26.231535">
<ele>149.310669</ele>
<time>2010-07-17T11:26:14Z</time>
<desc>lat.=55.731266, lon.=26.231535, Alt.=149.310669m. Speed=0.288000m/h.</desc>
<speed>0.080000</speed>
</trkpt>
<trkpt lat="55.731266" lon="26.231535">
<ele>149.275513</ele>
<time>2010-07-17T11:26:15Z</time>
<desc>lat.=55.731266, lon.=26.231535, Alt.=149.275513m. Speed=0.108000m/h.</desc>
<speed>0.030000</speed>
</trkpt>
<trkpt lat="55.731266" lon="26.231533">
<ele>149.228638</ele>
<time>2010-07-17T11:26:16Z</time>
<desc>lat.=55.731266, lon.=26.231533, Alt.=149.228638m. Speed=0.144000m/h.</desc>
<speed>0.040000</speed>
</trkpt>
<trkpt lat="55.731266" lon="26.231533">
<ele>149.201294</ele>
<time>2010-07-17T11:26:17Z</time>
<desc>lat.=55.731266, lon.=26.231533, Alt.=149.201294m. Speed=0.324000m/h.</desc>
<speed>0.090000</speed>
</trkpt>
<trkpt lat="55.731266" lon="26.231535">
<ele>149.162231</ele>
<time>2010-07-17T11:26:18Z</time>
<desc>lat.=55.731266, lon.=26.231535, Alt.=149.162231m. Speed=0.288000m/h.</desc>
<speed>0.080000</speed>
</trkpt>
<trkpt lat="55.731266" lon="26.231535">
<ele>149.123169</ele>
<time>2010-07-17T11:26:19Z</time>
<desc>lat.=55.731266, lon.=26.231535, Alt.=149.123169m. Speed=0.288000m/h.</desc>
<speed>0.080000</speed>
</trkpt>
<trkpt lat="55.731266" lon="26.231537">
<ele>149.084106</ele>
<time>2010-07-17T11:26:20Z</time>
<desc>lat.=55.731266, lon.=26.231537, Alt.=149.084106m. Speed=0.252000m/h.</desc>
<speed>0.070000</speed>
</trkpt>
<trkpt lat="55.731266" lon="26.231537">
<ele>149.033325</ele>
<time>2010-07-17T11:26:21Z</time>
<desc>lat.=55.731266, lon.=26.231537, Alt.=149.033325m. Speed=0.288000m/h.</desc>
<speed>0.080000</speed>
</trkpt>
<trkpt lat="55.731266" lon="26.231539">
<ele>148.986450</ele>
<time>2010-07-17T11:26:22Z</time>
<desc>lat.=55.731266, lon.=26.231539, Alt.=148.986450m. Speed=0.180000m/h.</desc>
<speed>0.050000</speed>
</trkpt>
<trkpt lat="55.731270" lon="26.231539">
<ele>148.943481</ele>
<time>2010-07-17T11:26:23Z</time>
<desc>lat.=55.731270, lon.=26.231539, Alt.=148.943481m. Speed=0.216000m/h.</desc>
<speed>0.060000</speed>
</trkpt>
<trkpt lat="55.731270" lon="26.231539">
<ele>148.896606</ele>
<time>2010-07-17T11:26:24Z</time>
<desc>lat.=55.731270, lon.=26.231539, Alt.=148.896606m. Speed=0.216000m/h.</desc>
<speed>0.060000</speed>
</trkpt>
<trkpt lat="55.731270" lon="26.231539">
<ele>148.845825</ele>
<time>2010-07-17T11:26:25Z</time>
<desc>lat.=55.731270, lon.=26.231539, Alt.=148.845825m. Speed=0.252000m/h.</desc>
<speed>0.070000</speed>
</trkpt>
<trkpt lat="55.731270" lon="26.231539">
<ele>148.795044</ele>
<time>2010-07-17T11:26:26Z</time>
<desc>lat.=55.731270, lon.=26.231539, Alt.=148.795044m. Speed=0.360000m/h.</desc>
<speed>0.100000</speed>
</trkpt>
<trkpt lat="55.731270" lon="26.231539">
<ele>148.771606</ele>
<time>2010-07-17T11:26:27Z</time>
<desc>lat.=55.731270, lon.=26.231539, Alt.=148.771606m. Speed=0.072000m/h.</desc>
<speed>0.020000</speed>
</trkpt>
<trkpt lat="55.731270" lon="26.231539">
<ele>148.744263</ele>
<time>2010-07-17T11:26:28Z</time>
<desc>lat.=55.731270, lon.=26.231539, Alt.=148.744263m. Speed=0.036000m/h.</desc>
<speed>0.010000</speed>
</trkpt>
<trkpt lat="55.731270" lon="26.231539">
<ele>148.736450</ele>
<time>2010-07-17T11:26:29Z</time>
<desc>lat.=55.731270, lon.=26.231539, Alt.=148.736450m. Speed=0.036000m/h.</desc>
<speed>0.010000</speed>
</trkpt>
<trkpt lat="55.731270" lon="26.231539">
<ele>148.736450</ele>
<time>2010-07-17T11:26:30Z</time>
<desc>lat.=55.731270, lon.=26.231539, Alt.=148.736450m. Speed=0.036000m/h.</desc>
<speed>0.010000</speed>
</trkpt>
<trkpt lat="55.731270" lon="26.231539">
<ele>148.732544</ele>
<time>2010-07-17T11:26:31Z</time>
<desc>lat.=55.731270, lon.=26.231539, Alt.=148.732544m. Speed=0.036000m/h.</desc>
<speed>0.010000</speed>
</trkpt>
<trkpt lat="55.731270" lon="26.231539">
<ele>148.732544</ele>
<time>2010-07-17T11:26:32Z</time>
<desc>lat.=55.731270, lon.=26.231539, Alt.=148.732544m. Speed=0.036000m/h.</desc>
<speed>0.010000</speed>
</trkpt>
<trkpt lat="55.731270" lon="26.231539">
<ele>148.732544</ele>
<time>2010-07-17T11:26:33Z</time>
<desc>lat.=55.731270, lon.=26.231539, Alt.=148.732544m. Speed=0.144000m/h.</desc>
<speed>0.040000</speed>
</trkpt>
<trkpt lat="55.731270" lon="26.231539">
<ele>148.720825</ele>
<time>2010-07-17T11:26:34Z</time>
<desc>lat.=55.731270, lon.=26.231539, Alt.=148.720825m. Speed=0.036000m/h.</desc>
<speed>0.010000</speed>
</trkpt>
<trkpt lat="55.731270" lon="26.231539">
<ele>148.716919</ele>
<time>2010-07-17T11:26:35Z</time>
<desc>lat.=55.731270, lon.=26.231539, Alt.=148.716919m. Speed=0.108000m/h.</desc>
<speed>0.030000</speed>
</trkpt>
<trkpt lat="55.731270" lon="26.231537">
<ele>148.713013</ele>
<time>2010-07-17T11:26:36Z</time>
<desc>lat.=55.731270, lon.=26.231537, Alt.=148.713013m. Speed=0.252000m/h.</desc>
<speed>0.070000</speed>
</trkpt>
<trkpt lat="55.731270" lon="26.231537">
<ele>148.697388</ele>
<time>2010-07-17T11:26:37Z</time>
<desc>lat.=55.731270, lon.=26.231537, Alt.=148.697388m. Speed=0.180000m/h.</desc>
<speed>0.050000</speed>
</trkpt>
<trkpt lat="55.731270" lon="26.231537">
<ele>148.677856</ele>
<time>2010-07-17T11:26:38Z</time>
<desc>lat.=55.731270, lon.=26.231537, Alt.=148.677856m. Speed=0.252000m/h.</desc>
<speed>0.070000</speed>
</trkpt>
<trkpt lat="55.731270" lon="26.231537">
<ele>148.658325</ele>
<time>2010-07-17T11:26:39Z</time>
<desc>lat.=55.731270, lon.=26.231537, Alt.=148.658325m. Speed=0.180000m/h.</desc>
<speed>0.050000</speed>
</trkpt>
<trkpt lat="55.731270" lon="26.231537">
<ele>148.642700</ele>
<time>2010-07-17T11:26:40Z</time>
<desc>lat.=55.731270, lon.=26.231537, Alt.=148.642700m. Speed=0.072000m/h.</desc>
<speed>0.020000</speed>
</trkpt>
<trkpt lat="55.731270" lon="26.231537">
<ele>148.638794</ele>
<time>2010-07-17T11:26:41Z</time>
<desc>lat.=55.731270, lon.=26.231537, Alt.=148.638794m. Speed=0.072000m/h.</desc>
<speed>0.020000</speed>
</trkpt>
<trkpt lat="55.731270" lon="26.231537">
<ele>148.642700</ele>
<time>2010-07-17T11:26:42Z</time>
<desc>lat.=55.731270, lon.=26.231537, Alt.=148.642700m. Speed=0.108000m/h.</desc>
<speed>0.030000</speed>
</trkpt>
<trkpt lat="55.731270" lon="26.231537">
<ele>148.638794</ele>
<time>2010-07-17T11:26:43Z</time>
<desc>lat.=55.731270, lon.=26.231537, Alt.=148.638794m. Speed=0.144000m/h.</desc>
<speed>0.040000</speed>
</trkpt>
<trkpt lat="55.731270" lon="26.231537">
<ele>148.634888</ele>
<time>2010-07-17T11:26:44Z</time>
<desc>lat.=55.731270, lon.=26.231537, Alt.=148.634888m. Speed=0.036000m/h.</desc>
<speed>0.010000</speed>
</trkpt>
<trkpt lat="55.731270" lon="26.231535">
<ele>148.634888</ele>
<time>2010-07-17T11:26:45Z</time>
<desc>lat.=55.731270, lon.=26.231535, Alt.=148.634888m. Speed=0.144000m/h.</desc>
<speed>0.040000</speed>
</trkpt>
<trkpt lat="55.731270" lon="26.231535">
<ele>148.619263</ele>
<time>2010-07-17T11:26:46Z</time>
<desc>lat.=55.731270, lon.=26.231535, Alt.=148.619263m. Speed=0.324000m/h.</desc>
<speed>0.090000</speed>
</trkpt>
<trkpt lat="55.731270" lon="26.231535">
<ele>148.611450</ele>
<time>2010-07-17T11:26:47Z</time>
<desc>lat.=55.731270, lon.=26.231535, Alt.=148.611450m. Speed=0.180000m/h.</desc>
<speed>0.050000</speed>
</trkpt>
<trkpt lat="55.731270" lon="26.231535">
<ele>148.599731</ele>
<time>2010-07-17T11:26:48Z</time>
<desc>lat.=55.731270, lon.=26.231535, Alt.=148.599731m. Speed=0.108000m/h.</desc>
<speed>0.030000</speed>
</trkpt>
<trkpt lat="55.731270" lon="26.231535">
<ele>148.595825</ele>
<time>2010-07-17T11:26:49Z</time>
<desc>lat.=55.731270, lon.=26.231535, Alt.=148.595825m. Speed=0.144000m/h.</desc>
<speed>0.040000</speed>
</trkpt>
<trkpt lat="55.731270" lon="26.231535">
<ele>148.591919</ele>
<time>2010-07-17T11:26:50Z</time>
<desc>lat.=55.731270, lon.=26.231535, Alt.=148.591919m. Speed=0.360000m/h.</desc>
<speed>0.100000</speed>
</trkpt>
<trkpt lat="55.731270" lon="26.231533">
<ele>148.572388</ele>
<time>2010-07-17T11:26:51Z</time>
<desc>lat.=55.731270, lon.=26.231533, Alt.=148.572388m. Speed=0.180000m/h.</desc>
<speed>0.050000</speed>
</trkpt>
<trkpt lat="55.731270" lon="26.231535">
<ele>148.572388</ele>
<time>2010-07-17T11:26:52Z</time>
<desc>lat.=55.731270, lon.=26.231535, Alt.=148.572388m. Speed=0.036000m/h.</desc>
<speed>0.010000</speed>
</trkpt>
<trkpt lat="55.731270" lon="26.231535">
<ele>148.568481</ele>
<time>2010-07-17T11:26:53Z</time>
<desc>lat.=55.731270, lon.=26.231535, Alt.=148.568481m. Speed=0.036000m/h.</desc>
<speed>0.010000</speed>
</trkpt>
<trkpt lat="55.731270" lon="26.231533">
<ele>148.568481</ele>
<time>2010-07-17T11:26:54Z</time>
<desc>lat.=55.731270, lon.=26.231533, Alt.=148.568481m. Speed=0.144000m/h.</desc>
<speed>0.040000</speed>
</trkpt>
<trkpt lat="55.731270" lon="26.231533">
<ele>148.572388</ele>
<time>2010-07-17T11:26:55Z</time>
<desc>lat.=55.731270, lon.=26.231533, Alt.=148.572388m. Speed=0.144000m/h.</desc>
<speed>0.040000</speed>
</trkpt>
<trkpt lat="55.731270" lon="26.231533">
<ele>148.568481</ele>
<time>2010-07-17T11:26:56Z</time>
<desc>lat.=55.731270, lon.=26.231533, Alt.=148.568481m. Speed=0.072000m/h.</desc>
<speed>0.020000</speed>
</trkpt>
<trkpt lat="55.731270" lon="26.231533">
<ele>148.568481</ele>
<time>2010-07-17T11:26:57Z</time>
<desc>lat.=55.731270, lon.=26.231533, Alt.=148.568481m. Speed=0.144000m/h.</desc>
<speed>0.040000</speed>
</trkpt>
<trkpt lat="55.731270" lon="26.231533">
<ele>148.568481</ele>
<time>2010-07-17T11:26:58Z</time>
<desc>lat.=55.731270, lon.=26.231533, Alt.=148.568481m. Speed=0.000000m/h.</desc>
<speed>0.000000</speed>
</trkpt>
<trkpt lat="55.731270" lon="26.231533">
<ele>148.568481</ele>
<time>2010-07-17T11:26:59Z</time>
<desc>lat.=55.731270, lon.=26.231533, Alt.=148.568481m. Speed=0.000000m/h.</desc>
<speed>0.000000</speed>
</trkpt>
<trkpt lat="55.731270" lon="26.231533">
<ele>148.568481</ele>
<time>2010-07-17T11:27:00Z</time>
<desc>lat.=55.731270, lon.=26.231533, Alt.=148.568481m. Speed=0.000000m/h.</desc>
<speed>0.000000</speed>
</trkpt>
<trkpt lat="55.731274" lon="26.231533">
<ele>148.568481</ele>
<time>2010-07-17T11:27:01Z</time>
<desc>lat.=55.731274, lon.=26.231533, Alt.=148.568481m. Speed=0.036000m/h.</desc>
<speed>0.010000</speed>
</trkpt>
<trkpt lat="55.731274" lon="26.231533">
<ele>148.564575</ele>
<time>2010-07-17T11:27:02Z</time>
<desc>lat.=55.731274, lon.=26.231533, Alt.=148.564575m. Speed=0.000000m/h.</desc>
<speed>0.000000</speed>
</trkpt>
<trkpt lat="55.731274" lon="26.231533">
<ele>148.564575</ele>
<time>2010-07-17T11:27:03Z</time>
<desc>lat.=55.731274, lon.=26.231533, Alt.=148.564575m. Speed=0.036000m/h.</desc>
<speed>0.010000</speed>
</trkpt>
<trkpt lat="55.731274" lon="26.231533">
<ele>148.560669</ele>
<time>2010-07-17T11:27:04Z</time>
<desc>lat.=55.731274, lon.=26.231533, Alt.=148.560669m. Speed=0.036000m/h.</desc>
<speed>0.010000</speed>
</trkpt>
<trkpt lat="55.731274" lon="26.231533">
<ele>148.556763</ele>
<time>2010-07-17T11:27:05Z</time>
<desc>lat.=55.731274, lon.=26.231533, Alt.=148.556763m. Speed=0.000000m/h.</desc>
<speed>0.000000</speed>
</trkpt>
<trkpt lat="55.731274" lon="26.231533">
<ele>148.552856</ele>
<time>2010-07-17T11:27:06Z</time>
<desc>lat.=55.731274, lon.=26.231533, Alt.=148.552856m. Speed=0.036000m/h.</desc>
<speed>0.010000</speed>
</trkpt>
<trkpt lat="55.731274" lon="26.231533">
<ele>148.548950</ele>
<time>2010-07-17T11:27:07Z</time>
<desc>lat.=55.731274, lon.=26.231533, Alt.=148.548950m. Speed=0.036000m/h.</desc>
<speed>0.010000</speed>
</trkpt>
<trkpt lat="55.731274" lon="26.231533">
<ele>148.541138</ele>
<time>2010-07-17T11:27:08Z</time>
<desc>lat.=55.731274, lon.=26.231533, Alt.=148.541138m. Speed=0.000000m/h.</desc>
<speed>0.000000</speed>
</trkpt>
<trkpt lat="55.731274" lon="26.231533">
<ele>148.537231</ele>
<time>2010-07-17T11:27:09Z</time>
<desc>lat.=55.731274, lon.=26.231533, Alt.=148.537231m. Speed=0.036000m/h.</desc>
<speed>0.010000</speed>
</trkpt>
<trkpt lat="55.731274" lon="26.231533">
<ele>148.533325</ele>
<time>2010-07-17T11:27:10Z</time>
<desc>lat.=55.731274, lon.=26.231533, Alt.=148.533325m. Speed=0.000000m/h.</desc>
<speed>0.000000</speed>
</trkpt>
<trkpt lat="55.731274" lon="26.231531">
<ele>148.525513</ele>
<time>2010-07-17T11:27:11Z</time>
<desc>lat.=55.731274, lon.=26.231531, Alt.=148.525513m. Speed=0.036000m/h.</desc>
<speed>0.010000</speed>
</trkpt>
<trkpt lat="55.731274" lon="26.231531">
<ele>148.517700</ele>
<time>2010-07-17T11:27:12Z</time>
<desc>lat.=55.731274, lon.=26.231531, Alt.=148.517700m. Speed=0.000000m/h.</desc>
<speed>0.000000</speed>
</trkpt>
<trkpt lat="55.731274" lon="26.231531">
<ele>148.513794</ele>
<time>2010-07-17T11:27:13Z</time>
<desc>lat.=55.731274, lon.=26.231531, Alt.=148.513794m. Speed=0.000000m/h.</desc>
<speed>0.000000</speed>
</trkpt>
<trkpt lat="55.731274" lon="26.231531">
<ele>148.505981</ele>
<time>2010-07-17T11:27:14Z</time>
<desc>lat.=55.731274, lon.=26.231531, Alt.=148.505981m. Speed=0.000000m/h.</desc>
<speed>0.000000</speed>
</trkpt>
<trkpt lat="55.731274" lon="26.231531">
<ele>148.502075</ele>
<time>2010-07-17T11:27:15Z</time>
<desc>lat.=55.731274, lon.=26.231531, Alt.=148.502075m. Speed=0.000000m/h.</desc>
<speed>0.000000</speed>
</trkpt>
<trkpt lat="55.731274" lon="26.231531">
<ele>148.498169</ele>
<time>2010-07-17T11:27:16Z</time>
<desc>lat.=55.731274, lon.=26.231531, Alt.=148.498169m. Speed=0.000000m/h.</desc>
<speed>0.000000</speed>
</trkpt>
<trkpt lat="55.731274" lon="26.231531">
<ele>148.494263</ele>
<time>2010-07-17T11:27:17Z</time>
<desc>lat.=55.731274, lon.=26.231531, Alt.=148.494263m. Speed=0.000000m/h.</desc>
<speed>0.000000</speed>
</trkpt>
<trkpt lat="55.731274" lon="26.231531">
<ele>148.490356</ele>
<time>2010-07-17T11:27:18Z</time>
<desc>lat.=55.731274, lon.=26.231531, Alt.=148.490356m. Speed=0.036000m/h.</desc>
<speed>0.010000</speed>
</trkpt>
<trkpt lat="55.731274" lon="26.231531">
<ele>148.482544</ele>
<time>2010-07-17T11:27:19Z</time>
<desc>lat.=55.731274, lon.=26.231531, Alt.=148.482544m. Speed=0.000000m/h.</desc>
<speed>0.000000</speed>
</trkpt>
<trkpt lat="55.731274" lon="26.231531">
<ele>148.474731</ele>
<time>2010-07-17T11:27:20Z</time>
<desc>lat.=55.731274, lon.=26.231531, Alt.=148.474731m. Speed=0.000000m/h.</desc>
<speed>0.000000</speed>
</trkpt>
<trkpt lat="55.731274" lon="26.231531">
<ele>148.470825</ele>
<time>2010-07-17T11:27:21Z</time>
<desc>lat.=55.731274, lon.=26.231531, Alt.=148.470825m. Speed=0.072000m/h.</desc>
<speed>0.020000</speed>
</trkpt>
<trkpt lat="55.731274" lon="26.231531">
<ele>148.463013</ele>
<time>2010-07-17T11:27:22Z</time>
<desc>lat.=55.731274, lon.=26.231531, Alt.=148.463013m. Speed=0.000000m/h.</desc>
<speed>0.000000</speed>
</trkpt>
<trkpt lat="55.731274" lon="26.231531">
<ele>148.459106</ele>
<time>2010-07-17T11:27:23Z</time>
<desc>lat.=55.731274, lon.=26.231531, Alt.=148.459106m. Speed=0.000000m/h.</desc>
<speed>0.000000</speed>
</trkpt>
<trkpt lat="55.731274" lon="26.231529">
<ele>148.455200</ele>
<time>2010-07-17T11:27:24Z</time>
<desc>lat.=55.731274, lon.=26.231529, Alt.=148.455200m. Speed=0.036000m/h.</desc>
<speed>0.010000</speed>
</trkpt>
<trkpt lat="55.731274" lon="26.231529">
<ele>148.447388</ele>
<time>2010-07-17T11:27:25Z</time>
<desc>lat.=55.731274, lon.=26.231529, Alt.=148.447388m. Speed=0.000000m/h.</desc>
<speed>0.000000</speed>
</trkpt>
<trkpt lat="55.731274" lon="26.231529">
<ele>148.439575</ele>
<time>2010-07-17T11:27:26Z</time>
<desc>lat.=55.731274, lon.=26.231529, Alt.=148.439575m. Speed=0.036000m/h.</desc>
<speed>0.010000</speed>
</trkpt>
<trkpt lat="55.731274" lon="26.231529">
<ele>148.435669</ele>
<time>2010-07-17T11:27:27Z</time>
<desc>lat.=55.731274, lon.=26.231529, Alt.=148.435669m. Speed=0.000000m/h.</desc>
<speed>0.000000</speed>
</trkpt>
<trkpt lat="55.731274" lon="26.231529">
<ele>148.431763</ele>
<time>2010-07-17T11:27:28Z</time>
<desc>lat.=55.731274, lon.=26.231529, Alt.=148.431763m. Speed=0.000000m/h.</desc>
<speed>0.000000</speed>
</trkpt>
<trkpt lat="55.731274" lon="26.231529">
<ele>148.423950</ele>
<time>2010-07-17T11:27:29Z</time>
<desc>lat.=55.731274, lon.=26.231529, Alt.=148.423950m. Speed=0.000000m/h.</desc>
<speed>0.000000</speed>
</trkpt>
<trkpt lat="55.731274" lon="26.231529">
<ele>148.420044</ele>
<time>2010-07-17T11:27:30Z</time>
<desc>lat.=55.731274, lon.=26.231529, Alt.=148.420044m. Speed=0.000000m/h.</desc>
<speed>0.000000</speed>
</trkpt>
<trkpt lat="55.731274" lon="26.231529">
<ele>148.416138</ele>
<time>2010-07-17T11:27:31Z</time>
<desc>lat.=55.731274, lon.=26.231529, Alt.=148.416138m. Speed=0.036000m/h.</desc>
<speed>0.010000</speed>
</trkpt>
<trkpt lat="55.731274" lon="26.231529">
<ele>148.408325</ele>
<time>2010-07-17T11:27:32Z</time>
<desc>lat.=55.731274, lon.=26.231529, Alt.=148.408325m. Speed=0.036000m/h.</desc>
<speed>0.010000</speed>
</trkpt>
<trkpt lat="55.731274" lon="26.231529">
<ele>148.400513</ele>
<time>2010-07-17T11:27:33Z</time>
<desc>lat.=55.731274, lon.=26.231529, Alt.=148.400513m. Speed=0.036000m/h.</desc>
<speed>0.010000</speed>
</trkpt>
<trkpt lat="55.731274" lon="26.231529">
<ele>148.400513</ele>
<time>2010-07-17T11:27:34Z</time>
<desc>lat.=55.731274, lon.=26.231529, Alt.=148.400513m. Speed=0.036000m/h.</desc>
<speed>0.010000</speed>
</trkpt>
<trkpt lat="55.731274" lon="26.231529">
<ele>148.396606</ele>
<time>2010-07-17T11:27:35Z</time>
<desc>lat.=55.731274, lon.=26.231529, Alt.=148.396606m. Speed=0.000000m/h.</desc>
<speed>0.000000</speed>
</trkpt>
<trkpt lat="55.731274" lon="26.231529">
<ele>148.396606</ele>
<time>2010-07-17T11:27:36Z</time>
<desc>lat.=55.731274, lon.=26.231529, Alt.=148.396606m. Speed=0.000000m/h.</desc>
<speed>0.000000</speed>
</trkpt>
<trkpt lat="55.731274" lon="26.231527">
<ele>148.388794</ele>
<time>2010-07-17T11:27:37Z</time>
<desc>lat.=55.731274, lon.=26.231527, Alt.=148.388794m. Speed=0.000000m/h.</desc>
<speed>0.000000</speed>
</trkpt>
<trkpt lat="55.731274" lon="26.231527">
<ele>148.384888</ele>
<time>2010-07-17T11:27:38Z</time>
<desc>lat.=55.731274, lon.=26.231527, Alt.=148.384888m. Speed=0.000000m/h.</desc>
<speed>0.000000</speed>
</trkpt>
<trkpt lat="55.731274" lon="26.231527">
<ele>148.384888</ele>
<time>2010-07-17T11:27:39Z</time>
<desc>lat.=55.731274, lon.=26.231527, Alt.=148.384888m. Speed=0.000000m/h.</desc>
<speed>0.000000</speed>
</trkpt>
<trkpt lat="55.731274" lon="26.231527">
<ele>148.384888</ele>
<time>2010-07-17T11:27:40Z</time>
<desc>lat.=55.731274, lon.=26.231527, Alt.=148.384888m. Speed=0.000000m/h.</desc>
<speed>0.000000</speed>
</trkpt>
<trkpt lat="55.731274" lon="26.231527">
<ele>148.384888</ele>
<time>2010-07-17T11:27:41Z</time>
<desc>lat.=55.731274, lon.=26.231527, Alt.=148.384888m. Speed=0.000000m/h.</desc>
<speed>0.000000</speed>
</trkpt>
<trkpt lat="55.731274" lon="26.231527">
<ele>148.380981</ele>
<time>2010-07-17T11:27:42Z</time>
<desc>lat.=55.731274, lon.=26.231527, Alt.=148.380981m. Speed=0.000000m/h.</desc>
<speed>0.000000</speed>
</trkpt>
<trkpt lat="55.731274" lon="26.231527">
<ele>148.380981</ele>
<time>2010-07-17T11:27:43Z</time>
<desc>lat.=55.731274, lon.=26.231527, Alt.=148.380981m. Speed=0.000000m/h.</desc>
<speed>0.000000</speed>
</trkpt>
<trkpt lat="55.731274" lon="26.231527">
<ele>148.380981</ele>
<time>2010-07-17T11:27:44Z</time>
<desc>lat.=55.731274, lon.=26.231527, Alt.=148.380981m. Speed=0.000000m/h.</desc>
<speed>0.000000</speed>
</trkpt>
<trkpt lat="55.731274" lon="26.231527">
<ele>148.380981</ele>
<time>2010-07-17T11:27:45Z</time>
<desc>lat.=55.731274, lon.=26.231527, Alt.=148.380981m. Speed=0.036000m/h.</desc>
<speed>0.010000</speed>
</trkpt>
<trkpt lat="55.731274" lon="26.231527">
<ele>148.377075</ele>
<time>2010-07-17T11:27:46Z</time>
<desc>lat.=55.731274, lon.=26.231527, Alt.=148.377075m. Speed=0.036000m/h.</desc>
<speed>0.010000</speed>
</trkpt>
<trkpt lat="55.731274" lon="26.231527">
<ele>148.373169</ele>
<time>2010-07-17T11:27:47Z</time>
<desc>lat.=55.731274, lon.=26.231527, Alt.=148.373169m. Speed=0.036000m/h.</desc>
<speed>0.010000</speed>
</trkpt>
<trkpt lat="55.731274" lon="26.231527">
<ele>148.365356</ele>
<time>2010-07-17T11:27:48Z</time>
<desc>lat.=55.731274, lon.=26.231527, Alt.=148.365356m. Speed=0.036000m/h.</desc>
<speed>0.010000</speed>
</trkpt>
<trkpt lat="55.731274" lon="26.231527">
<ele>148.357544</ele>
<time>2010-07-17T11:27:49Z</time>
<desc>lat.=55.731274, lon.=26.231527, Alt.=148.357544m. Speed=0.000000m/h.</desc>
<speed>0.000000</speed>
</trkpt>
<trkpt lat="55.731274" lon="26.231527">
<ele>148.353638</ele>
<time>2010-07-17T11:27:50Z</time>
<desc>lat.=55.731274, lon.=26.231527, Alt.=148.353638m. Speed=0.072000m/h.</desc>
<speed>0.020000</speed>
</trkpt>
<trkpt lat="55.731274" lon="26.231527">
<ele>148.345825</ele>
<time>2010-07-17T11:27:51Z</time>
<desc>lat.=55.731274, lon.=26.231527, Alt.=148.345825m. Speed=0.108000m/h.</desc>
<speed>0.030000</speed>
</trkpt>
<trkpt lat="55.731274" lon="26.231525">
<ele>148.338013</ele>
<time>2010-07-17T11:27:52Z</time>
<desc>lat.=55.731274, lon.=26.231525, Alt.=148.338013m. Speed=0.000000m/h.</desc>
<speed>0.000000</speed>
</trkpt>
<trkpt lat="55.731274" lon="26.231525">
<ele>148.330200</ele>
<time>2010-07-17T11:27:53Z</time>
<desc>lat.=55.731274, lon.=26.231525, Alt.=148.330200m. Speed=0.036000m/h.</desc>
<speed>0.010000</speed>
</trkpt>
<trkpt lat="55.731274" lon="26.231525">
<ele>148.326294</ele>
<time>2010-07-17T11:27:54Z</time>
<desc>lat.=55.731274, lon.=26.231525, Alt.=148.326294m. Speed=0.000000m/h.</desc>
<speed>0.000000</speed>
</trkpt>
<trkpt lat="55.731274" lon="26.231525">
<ele>148.322388</ele>
<time>2010-07-17T11:27:55Z</time>
<desc>lat.=55.731274, lon.=26.231525, Alt.=148.322388m. Speed=0.036000m/h.</desc>
<speed>0.010000</speed>
</trkpt>
<trkpt lat="55.731274" lon="26.231525">
<ele>148.318481</ele>
<time>2010-07-17T11:27:56Z</time>
<desc>lat.=55.731274, lon.=26.231525, Alt.=148.318481m. Speed=0.036000m/h.</desc>
<speed>0.010000</speed>
</trkpt>
<trkpt lat="55.731274" lon="26.231525">
<ele>148.318481</ele>
<time>2010-07-17T11:27:57Z</time>
<desc>lat.=55.731274, lon.=26.231525, Alt.=148.318481m. Speed=0.000000m/h.</desc>
<speed>0.000000</speed>
</trkpt>
<trkpt lat="55.731274" lon="26.231525">
<ele>148.314575</ele>
<time>2010-07-17T11:27:58Z</time>
<desc>lat.=55.731274, lon.=26.231525, Alt.=148.314575m. Speed=0.000000m/h.</desc>
<speed>0.000000</speed>
</trkpt>
<trkpt lat="55.731274" lon="26.231525">
<ele>148.310669</ele>
<time>2010-07-17T11:27:59Z</time>
<desc>lat.=55.731274, lon.=26.231525, Alt.=148.310669m. Speed=0.036000m/h.</desc>
<speed>0.010000</speed>
</trkpt>
<trkpt lat="55.731274" lon="26.231525">
<ele>148.306763</ele>
<time>2010-07-17T11:28:00Z</time>
<desc>lat.=55.731274, lon.=26.231525, Alt.=148.306763m. Speed=0.000000m/h.</desc>
<speed>0.000000</speed>
</trkpt>
<trkpt lat="55.731274" lon="26.231525">
<ele>148.306763</ele>
<time>2010-07-17T11:28:01Z</time>
<desc>lat.=55.731274, lon.=26.231525, Alt.=148.306763m. Speed=0.036000m/h.</desc>
<speed>0.010000</speed>
</trkpt>
<trkpt lat="55.731274" lon="26.231525">
<ele>148.306763</ele>
<time>2010-07-17T11:28:02Z</time>
<desc>lat.=55.731274, lon.=26.231525, Alt.=148.306763m. Speed=0.000000m/h.</desc>
<speed>0.000000</speed>
</trkpt>
<trkpt lat="55.731274" lon="26.231525">
<ele>148.302856</ele>
<time>2010-07-17T11:28:03Z</time>
<desc>lat.=55.731274, lon.=26.231525, Alt.=148.302856m. Speed=0.000000m/h.</desc>
<speed>0.000000</speed>
</trkpt>
<trkpt lat="55.731274" lon="26.231525">
<ele>148.298950</ele>
<time>2010-07-17T11:28:04Z</time>
<desc>lat.=55.731274, lon.=26.231525, Alt.=148.298950m. Speed=0.000000m/h.</desc>
<speed>0.000000</speed>
</trkpt>
<trkpt lat="55.731274" lon="26.231525">
<ele>148.295044</ele>
<time>2010-07-17T11:28:05Z</time>
<desc>lat.=55.731274, lon.=26.231525, Alt.=148.295044m. Speed=0.000000m/h.</desc>
<speed>0.000000</speed>
</trkpt>
<trkpt lat="55.731274" lon="26.231525">
<ele>148.295044</ele>
<time>2010-07-17T11:28:06Z</time>
<desc>lat.=55.731274, lon.=26.231525, Alt.=148.295044m. Speed=0.036000m/h.</desc>
<speed>0.010000</speed>
</trkpt>
<trkpt lat="55.731274" lon="26.231525">
<ele>148.295044</ele>
<time>2010-07-17T11:28:07Z</time>
<desc>lat.=55.731274, lon.=26.231525, Alt.=148.295044m. Speed=0.036000m/h.</desc>
<speed>0.010000</speed>
</trkpt>
<trkpt lat="55.731274" lon="26.231525">
<ele>148.291138</ele>
<time>2010-07-17T11:28:08Z</time>
<desc>lat.=55.731274, lon.=26.231525, Alt.=148.291138m. Speed=0.000000m/h.</desc>
<speed>0.000000</speed>
</trkpt>
<trkpt lat="55.731274" lon="26.231525">
<ele>148.291138</ele>
<time>2010-07-17T11:28:09Z</time>
<desc>lat.=55.731274, lon.=26.231525, Alt.=148.291138m. Speed=0.000000m/h.</desc>
<speed>0.000000</speed>
</trkpt>
<trkpt lat="55.731274" lon="26.231525">
<ele>148.287231</ele>
<time>2010-07-17T11:28:10Z</time>
<desc>lat.=55.731274, lon.=26.231525, Alt.=148.287231m. Speed=0.036000m/h.</desc>
<speed>0.010000</speed>
</trkpt>
<trkpt lat="55.731274" lon="26.231525">
<ele>148.287231</ele>
<time>2010-07-17T11:28:11Z</time>
<desc>lat.=55.731274, lon.=26.231525, Alt.=148.287231m. Speed=0.036000m/h.</desc>
<speed>0.010000</speed>
</trkpt>
<trkpt lat="55.731274" lon="26.231525">
<ele>148.287231</ele>
<time>2010-07-17T11:28:12Z</time>
<desc>lat.=55.731274, lon.=26.231525, Alt.=148.287231m. Speed=0.000000m/h.</desc>
<speed>0.000000</speed>
</trkpt>
<trkpt lat="55.731274" lon="26.231525">
<ele>148.287231</ele>
<time>2010-07-17T11:28:13Z</time>
<desc>lat.=55.731274, lon.=26.231525, Alt.=148.287231m. Speed=0.036000m/h.</desc>
<speed>0.010000</speed>
</trkpt>
<trkpt lat="55.731274" lon="26.231525">
<ele>148.283325</ele>
<time>2010-07-17T11:28:14Z</time>
<desc>lat.=55.731274, lon.=26.231525, Alt.=148.283325m. Speed=0.000000m/h.</desc>
<speed>0.000000</speed>
</trkpt>
<trkpt lat="55.731274" lon="26.231525">
<ele>148.283325</ele>
<time>2010-07-17T11:28:15Z</time>
<desc>lat.=55.731274, lon.=26.231525, Alt.=148.283325m. Speed=0.000000m/h.</desc>
<speed>0.000000</speed>
</trkpt>
<trkpt lat="55.731274" lon="26.231525">
<ele>148.279419</ele>
<time>2010-07-17T11:28:16Z</time>
<desc>lat.=55.731274, lon.=26.231525, Alt.=148.279419m. Speed=0.000000m/h.</desc>
<speed>0.000000</speed>
</trkpt>
<trkpt lat="55.731274" lon="26.231525">
<ele>148.279419</ele>
<time>2010-07-17T11:28:17Z</time>
<desc>lat.=55.731274, lon.=26.231525, Alt.=148.279419m. Speed=0.000000m/h.</desc>
<speed>0.000000</speed>
</trkpt>
<trkpt lat="55.731274" lon="26.231525">
<ele>148.275513</ele>
<time>2010-07-17T11:28:18Z</time>
<desc>lat.=55.731274, lon.=26.231525, Alt.=148.275513m. Speed=0.000000m/h.</desc>
<speed>0.000000</speed>
</trkpt>
<trkpt lat="55.731274" lon="26.231524">
<ele>148.275513</ele>
<time>2010-07-17T11:28:19Z</time>
<desc>lat.=55.731274, lon.=26.231524, Alt.=148.275513m. Speed=0.000000m/h.</desc>
<speed>0.000000</speed>
</trkpt>
<trkpt lat="55.731274" lon="26.231524">
<ele>148.271606</ele>
<time>2010-07-17T11:28:20Z</time>
<desc>lat.=55.731274, lon.=26.231524, Alt.=148.271606m. Speed=0.036000m/h.</desc>
<speed>0.010000</speed>
</trkpt>
<trkpt lat="55.731274" lon="26.231524">
<ele>148.267700</ele>
<time>2010-07-17T11:28:21Z</time>
<desc>lat.=55.731274, lon.=26.231524, Alt.=148.267700m. Speed=0.000000m/h.</desc>
<speed>0.000000</speed>
</trkpt>
<trkpt lat="55.731274" lon="26.231524">
<ele>148.267700</ele>
<time>2010-07-17T11:28:22Z</time>
<desc>lat.=55.731274, lon.=26.231524, Alt.=148.267700m. Speed=0.000000m/h.</desc>
<speed>0.000000</speed>
</trkpt>
<trkpt lat="55.731274" lon="26.231524">
<ele>148.263794</ele>
<time>2010-07-17T11:28:23Z</time>
<desc>lat.=55.731274, lon.=26.231524, Alt.=148.263794m. Speed=0.000000m/h.</desc>
<speed>0.000000</speed>
</trkpt>
<trkpt lat="55.731274" lon="26.231524">
<ele>148.259888</ele>
<time>2010-07-17T11:28:24Z</time>
<desc>lat.=55.731274, lon.=26.231524, Alt.=148.259888m. Speed=0.000000m/h.</desc>
<speed>0.000000</speed>
</trkpt>
<trkpt lat="55.731274" lon="26.231524">
<ele>148.255981</ele>
<time>2010-07-17T11:28:25Z</time>
<desc>lat.=55.731274, lon.=26.231524, Alt.=148.255981m. Speed=0.000000m/h.</desc>
<speed>0.000000</speed>
</trkpt>
<trkpt lat="55.731274" lon="26.231524">
<ele>148.255981</ele>
<time>2010-07-17T11:28:26Z</time>
<desc>lat.=55.731274, lon.=26.231524, Alt.=148.255981m. Speed=0.036000m/h.</desc>
<speed>0.010000</speed>
</trkpt>
<trkpt lat="55.731274" lon="26.231524">
<ele>148.252075</ele>
<time>2010-07-17T11:28:27Z</time>
<desc>lat.=55.731274, lon.=26.231524, Alt.=148.252075m. Speed=0.000000m/h.</desc>
<speed>0.000000</speed>
</trkpt>
<trkpt lat="55.731274" lon="26.231524">
<ele>148.248169</ele>
<time>2010-07-17T11:28:28Z</time>
<desc>lat.=55.731274, lon.=26.231524, Alt.=148.248169m. Speed=0.000000m/h.</desc>
<speed>0.000000</speed>
</trkpt>
<trkpt lat="55.731274" lon="26.231524">
<ele>148.248169</ele>
<time>2010-07-17T11:28:29Z</time>
<desc>lat.=55.731274, lon.=26.231524, Alt.=148.248169m. Speed=0.000000m/h.</desc>
<speed>0.000000</speed>
</trkpt>
<trkpt lat="55.731274" lon="26.231524">
<ele>148.244263</ele>
<time>2010-07-17T11:28:30Z</time>
<desc>lat.=55.731274, lon.=26.231524, Alt.=148.244263m. Speed=0.000000m/h.</desc>
<speed>0.000000</speed>
</trkpt>
<trkpt lat="55.731274" lon="26.231524">
<ele>148.244263</ele>
<time>2010-07-17T11:28:31Z</time>
<desc>lat.=55.731274, lon.=26.231524, Alt.=148.244263m. Speed=0.000000m/h.</desc>
<speed>0.000000</speed>
</trkpt>
<trkpt lat="55.731274" lon="26.231524">
<ele>148.244263</ele>
<time>2010-07-17T11:28:32Z</time>
<desc>lat.=55.731274, lon.=26.231524, Alt.=148.244263m. Speed=0.000000m/h.</desc>
<speed>0.000000</speed>
</trkpt>
<trkpt lat="55.731274" lon="26.231524">
<ele>148.240356</ele>
<time>2010-07-17T11:28:33Z</time>
<desc>lat.=55.731274, lon.=26.231524, Alt.=148.240356m. Speed=0.000000m/h.</desc>
<speed>0.000000</speed>
</trkpt>
<trkpt lat="55.731274" lon="26.231524">
<ele>148.240356</ele>
<time>2010-07-17T11:28:34Z</time>
<desc>lat.=55.731274, lon.=26.231524, Alt.=148.240356m. Speed=0.000000m/h.</desc>
<speed>0.000000</speed>
</trkpt>
<trkpt lat="55.731274" lon="26.231524">
<ele>148.240356</ele>
<time>2010-07-17T11:28:35Z</time>
<desc>lat.=55.731274, lon.=26.231524, Alt.=148.240356m. Speed=0.036000m/h.</desc>
<speed>0.010000</speed>
</trkpt>
<trkpt lat="55.731274" lon="26.231524">
<ele>148.240356</ele>
<time>2010-07-17T11:28:36Z</time>
<desc>lat.=55.731274, lon.=26.231524, Alt.=148.240356m. Speed=0.000000m/h.</desc>
<speed>0.000000</speed>
</trkpt>
<trkpt lat="55.731274" lon="26.231524">
<ele>148.240356</ele>
<time>2010-07-17T11:28:37Z</time>
<desc>lat.=55.731274, lon.=26.231524, Alt.=148.240356m. Speed=0.000000m/h.</desc>
<speed>0.000000</speed>
</trkpt>
<trkpt lat="55.731274" lon="26.231522">
<ele>148.240356</ele>
<time>2010-07-17T11:28:38Z</time>
<desc>lat.=55.731274, lon.=26.231522, Alt.=148.240356m. Speed=0.000000m/h.</desc>
<speed>0.000000</speed>
</trkpt>
<trkpt lat="55.731274" lon="26.231522">
<ele>148.240356</ele>
<time>2010-07-17T11:28:39Z</time>
<desc>lat.=55.731274, lon.=26.231522, Alt.=148.240356m. Speed=0.000000m/h.</desc>
<speed>0.000000</speed>
</trkpt>
<trkpt lat="55.731274" lon="26.231522">
<ele>148.240356</ele>
<time>2010-07-17T11:28:40Z</time>
<desc>lat.=55.731274, lon.=26.231522, Alt.=148.240356m. Speed=0.000000m/h.</desc>
<speed>0.000000</speed>
</trkpt>
<trkpt lat="55.731274" lon="26.231522">
<ele>148.240356</ele>
<time>2010-07-17T11:28:41Z</time>
<desc>lat.=55.731274, lon.=26.231522, Alt.=148.240356m. Speed=0.036000m/h.</desc>
<speed>0.010000</speed>
</trkpt>
<trkpt lat="55.731274" lon="26.231522">
<ele>148.240356</ele>
<time>2010-07-17T11:28:42Z</time>
<desc>lat.=55.731274, lon.=26.231522, Alt.=148.240356m. Speed=0.000000m/h.</desc>
<speed>0.000000</speed>
</trkpt>
<trkpt lat="55.731274" lon="26.231522">
<ele>148.244263</ele>
<time>2010-07-17T11:28:43Z</time>
<desc>lat.=55.731274, lon.=26.231522, Alt.=148.244263m. Speed=0.036000m/h.</desc>
<speed>0.010000</speed>
</trkpt>
<trkpt lat="55.731274" lon="26.231522">
<ele>148.248169</ele>
<time>2010-07-17T11:28:44Z</time>
<desc>lat.=55.731274, lon.=26.231522, Alt.=148.248169m. Speed=0.036000m/h.</desc>
<speed>0.010000</speed>
</trkpt>
<trkpt lat="55.731274" lon="26.231522">
<ele>148.252075</ele>
<time>2010-07-17T11:28:45Z</time>
<desc>lat.=55.731274, lon.=26.231522, Alt.=148.252075m. Speed=0.036000m/h.</desc>
<speed>0.010000</speed>
</trkpt>
<trkpt lat="55.731274" lon="26.231522">
<ele>148.255981</ele>
<time>2010-07-17T11:28:46Z</time>
<desc>lat.=55.731274, lon.=26.231522, Alt.=148.255981m. Speed=0.036000m/h.</desc>
<speed>0.010000</speed>
</trkpt>
<trkpt lat="55.731274" lon="26.231522">
<ele>148.259888</ele>
<time>2010-07-17T11:28:47Z</time>
<desc>lat.=55.731274, lon.=26.231522, Alt.=148.259888m. Speed=0.036000m/h.</desc>
<speed>0.010000</speed>
</trkpt>
<trkpt lat="55.731274" lon="26.231522">
<ele>148.267700</ele>
<time>2010-07-17T11:28:48Z</time>
<desc>lat.=55.731274, lon.=26.231522, Alt.=148.267700m. Speed=0.072000m/h.</desc>
<speed>0.020000</speed>
</trkpt>
<trkpt lat="55.731274" lon="26.231522">
<ele>148.267700</ele>
<time>2010-07-17T11:28:49Z</time>
<desc>lat.=55.731274, lon.=26.231522, Alt.=148.267700m. Speed=0.000000m/h.</desc>
<speed>0.000000</speed>
</trkpt>
<trkpt lat="55.731274" lon="26.231522">
<ele>148.263794</ele>
<time>2010-07-17T11:28:50Z</time>
<desc>lat.=55.731274, lon.=26.231522, Alt.=148.263794m. Speed=0.000000m/h.</desc>
<speed>0.000000</speed>
</trkpt>
<trkpt lat="55.731274" lon="26.231522">
<ele>148.263794</ele>
<time>2010-07-17T11:28:51Z</time>
<desc>lat.=55.731274, lon.=26.231522, Alt.=148.263794m. Speed=0.000000m/h.</desc>
<speed>0.000000</speed>
</trkpt>
<trkpt lat="55.731274" lon="26.231522">
<ele>148.259888</ele>
<time>2010-07-17T11:28:52Z</time>
<desc>lat.=55.731274, lon.=26.231522, Alt.=148.259888m. Speed=0.000000m/h.</desc>
<speed>0.000000</speed>
</trkpt>
<trkpt lat="55.731274" lon="26.231522">
<ele>148.255981</ele>
<time>2010-07-17T11:28:53Z</time>
<desc>lat.=55.731274, lon.=26.231522, Alt.=148.255981m. Speed=0.000000m/h.</desc>
<speed>0.000000</speed>
</trkpt>
<trkpt lat="55.731274" lon="26.231522">
<ele>148.255981</ele>
<time>2010-07-17T11:28:54Z</time>
<desc>lat.=55.731274, lon.=26.231522, Alt.=148.255981m. Speed=0.000000m/h.</desc>
<speed>0.000000</speed>
</trkpt>
<trkpt lat="55.731274" lon="26.231522">
<ele>148.255981</ele>
<time>2010-07-17T11:28:55Z</time>
<desc>lat.=55.731274, lon.=26.231522, Alt.=148.255981m. Speed=0.000000m/h.</desc>
<speed>0.000000</speed>
</trkpt>
<trkpt lat="55.731274" lon="26.231522">
<ele>148.259888</ele>
<time>2010-07-17T11:28:56Z</time>
<desc>lat.=55.731274, lon.=26.231522, Alt.=148.259888m. Speed=0.072000m/h.</desc>
<speed>0.020000</speed>
</trkpt>
<trkpt lat="55.731277" lon="26.231522">
<ele>148.259888</ele>
<time>2010-07-17T11:28:57Z</time>
<desc>lat.=55.731277, lon.=26.231522, Alt.=148.259888m. Speed=0.072000m/h.</desc>
<speed>0.020000</speed>
</trkpt>
<trkpt lat="55.731277" lon="26.231522">
<ele>148.259888</ele>
<time>2010-07-17T11:28:58Z</time>
<desc>lat.=55.731277, lon.=26.231522, Alt.=148.259888m. Speed=0.036000m/h.</desc>
<speed>0.010000</speed>
</trkpt>
<trkpt lat="55.731277" lon="26.231522">
<ele>148.263794</ele>
<time>2010-07-17T11:28:59Z</time>
<desc>lat.=55.731277, lon.=26.231522, Alt.=148.263794m. Speed=0.504000m/h.</desc>
<speed>0.140000</speed>
</trkpt>
<trkpt lat="55.731274" lon="26.231520">
<ele>148.275513</ele>
<time>2010-07-17T11:29:00Z</time>
<desc>lat.=55.731274, lon.=26.231520, Alt.=148.275513m. Speed=0.504000m/h.</desc>
<speed>0.140000</speed>
</trkpt>
<trkpt lat="55.731274" lon="26.231520">
<ele>148.291138</ele>
<time>2010-07-17T11:29:01Z</time>
<desc>lat.=55.731274, lon.=26.231520, Alt.=148.291138m. Speed=0.504000m/h.</desc>
<speed>0.140000</speed>
</trkpt>
<trkpt lat="55.731274" lon="26.231518">
<ele>148.302856</ele>
<time>2010-07-17T11:29:02Z</time>
<desc>lat.=55.731274, lon.=26.231518, Alt.=148.302856m. Speed=0.504000m/h.</desc>
<speed>0.140000</speed>
</trkpt>
<trkpt lat="55.731270" lon="26.231516">
<ele>148.318481</ele>
<time>2010-07-17T11:29:03Z</time>
<desc>lat.=55.731270, lon.=26.231516, Alt.=148.318481m. Speed=0.504000m/h.</desc>
<speed>0.140000</speed>
</trkpt>
<trkpt lat="55.731270" lon="26.231516">
<ele>148.334106</ele>
<time>2010-07-17T11:29:04Z</time>
<desc>lat.=55.731270, lon.=26.231516, Alt.=148.334106m. Speed=0.180000m/h.</desc>
<speed>0.050000</speed>
</trkpt>
<trkpt lat="55.731270" lon="26.231516">
<ele>148.345825</ele>
<time>2010-07-17T11:29:05Z</time>
<desc>lat.=55.731270, lon.=26.231516, Alt.=148.345825m. Speed=0.036000m/h.</desc>
<speed>0.010000</speed>
</trkpt>
<trkpt lat="55.731270" lon="26.231516">
<ele>148.353638</ele>
<time>2010-07-17T11:29:06Z</time>
<desc>lat.=55.731270, lon.=26.231516, Alt.=148.353638m. Speed=0.036000m/h.</desc>
<speed>0.010000</speed>
</trkpt>
<trkpt lat="55.731270" lon="26.231514">
<ele>148.357544</ele>
<time>2010-07-17T11:29:07Z</time>
<desc>lat.=55.731270, lon.=26.231514, Alt.=148.357544m. Speed=0.000000m/h.</desc>
<speed>0.000000</speed>
</trkpt>
<trkpt lat="55.731270" lon="26.231514">
<ele>148.361450</ele>
<time>2010-07-17T11:29:08Z</time>
<desc>lat.=55.731270, lon.=26.231514, Alt.=148.361450m. Speed=0.036000m/h.</desc>
<speed>0.010000</speed>
</trkpt>
<trkpt lat="55.731270" lon="26.231514">
<ele>148.357544</ele>
<time>2010-07-17T11:29:09Z</time>
<desc>lat.=55.731270, lon.=26.231514, Alt.=148.357544m. Speed=0.036000m/h.</desc>
<speed>0.010000</speed>
</trkpt>
<trkpt lat="55.731270" lon="26.231514">
<ele>148.349731</ele>
<time>2010-07-17T11:29:10Z</time>
<desc>lat.=55.731270, lon.=26.231514, Alt.=148.349731m. Speed=0.072000m/h.</desc>
<speed>0.020000</speed>
</trkpt>
<trkpt lat="55.731270" lon="26.231514">
<ele>148.338013</ele>
<time>2010-07-17T11:29:11Z</time>
<desc>lat.=55.731270, lon.=26.231514, Alt.=148.338013m. Speed=0.108000m/h.</desc>
<speed>0.030000</speed>
</trkpt>
<trkpt lat="55.731270" lon="26.231514">
<ele>148.318481</ele>
<time>2010-07-17T11:29:12Z</time>
<desc>lat.=55.731270, lon.=26.231514, Alt.=148.318481m. Speed=0.144000m/h.</desc>
<speed>0.040000</speed>
</trkpt>
<trkpt lat="55.731270" lon="26.231514">
<ele>148.306763</ele>
<time>2010-07-17T11:29:13Z</time>
<desc>lat.=55.731270, lon.=26.231514, Alt.=148.306763m. Speed=0.072000m/h.</desc>
<speed>0.020000</speed>
</trkpt>
<trkpt lat="55.731270" lon="26.231514">
<ele>148.283325</ele>
<time>2010-07-17T11:29:14Z</time>
<desc>lat.=55.731270, lon.=26.231514, Alt.=148.283325m. Speed=0.144000m/h.</desc>
<speed>0.040000</speed>
</trkpt>
<trkpt lat="55.731266" lon="26.231512">
<ele>148.259888</ele>
<time>2010-07-17T11:29:15Z</time>
<desc>lat.=55.731266, lon.=26.231512, Alt.=148.259888m. Speed=0.180000m/h.</desc>
<speed>0.050000</speed>
</trkpt>
<trkpt lat="55.731266" lon="26.231512">
<ele>148.255981</ele>
<time>2010-07-17T11:29:16Z</time>
<desc>lat.=55.731266, lon.=26.231512, Alt.=148.255981m. Speed=0.036000m/h.</desc>
<speed>0.010000</speed>
</trkpt>
<trkpt lat="55.731266" lon="26.231512">
<ele>148.255981</ele>
<time>2010-07-17T11:29:17Z</time>
<desc>lat.=55.731266, lon.=26.231512, Alt.=148.255981m. Speed=0.000000m/h.</desc>
<speed>0.000000</speed>
</trkpt>
<trkpt lat="55.731266" lon="26.231512">
<ele>148.255981</ele>
<time>2010-07-17T11:29:18Z</time>
<desc>lat.=55.731266, lon.=26.231512, Alt.=148.255981m. Speed=0.000000m/h.</desc>
<speed>0.000000</speed>
</trkpt>
<trkpt lat="55.731266" lon="26.231512">
<ele>148.255981</ele>
<time>2010-07-17T11:29:19Z</time>
<desc>lat.=55.731266, lon.=26.231512, Alt.=148.255981m. Speed=0.072000m/h.</desc>
<speed>0.020000</speed>
</trkpt>
<trkpt lat="55.731266" lon="26.231512">
<ele>148.255981</ele>
<time>2010-07-17T11:29:20Z</time>
<desc>lat.=55.731266, lon.=26.231512, Alt.=148.255981m. Speed=0.036000m/h.</desc>
<speed>0.010000</speed>
</trkpt>
<trkpt lat="55.731266" lon="26.231512">
<ele>148.255981</ele>
<time>2010-07-17T11:29:21Z</time>
<desc>lat.=55.731266, lon.=26.231512, Alt.=148.255981m. Speed=0.072000m/h.</desc>
<speed>0.020000</speed>
</trkpt>
<trkpt lat="55.731270" lon="26.231512">
<ele>148.255981</ele>
<time>2010-07-17T11:29:22Z</time>
<desc>lat.=55.731270, lon.=26.231512, Alt.=148.255981m. Speed=0.072000m/h.</desc>
<speed>0.020000</speed>
</trkpt>
<trkpt lat="55.731270" lon="26.231512">
<ele>148.255981</ele>
<time>2010-07-17T11:29:23Z</time>
<desc>lat.=55.731270, lon.=26.231512, Alt.=148.255981m. Speed=0.072000m/h.</desc>
<speed>0.020000</speed>
</trkpt>
<trkpt lat="55.731270" lon="26.231512">
<ele>148.255981</ele>
<time>2010-07-17T11:29:24Z</time>
<desc>lat.=55.731270, lon.=26.231512, Alt.=148.255981m. Speed=0.036000m/h.</desc>
<speed>0.010000</speed>
</trkpt>
<trkpt lat="55.731270" lon="26.231512">
<ele>148.259888</ele>
<time>2010-07-17T11:29:25Z</time>
<desc>lat.=55.731270, lon.=26.231512, Alt.=148.259888m. Speed=0.108000m/h.</desc>
<speed>0.030000</speed>
</trkpt>
<trkpt lat="55.731270" lon="26.231510">
<ele>148.259888</ele>
<time>2010-07-17T11:29:26Z</time>
<desc>lat.=55.731270, lon.=26.231510, Alt.=148.259888m. Speed=0.072000m/h.</desc>
<speed>0.020000</speed>
</trkpt>
<trkpt lat="55.731270" lon="26.231510">
<ele>148.259888</ele>
<time>2010-07-17T11:29:27Z</time>
<desc>lat.=55.731270, lon.=26.231510, Alt.=148.259888m. Speed=0.036000m/h.</desc>
<speed>0.010000</speed>
</trkpt>
<trkpt lat="55.731270" lon="26.231510">
<ele>148.255981</ele>
<time>2010-07-17T11:29:28Z</time>
<desc>lat.=55.731270, lon.=26.231510, Alt.=148.255981m. Speed=0.036000m/h.</desc>
<speed>0.010000</speed>
</trkpt>
<trkpt lat="55.731270" lon="26.231510">
<ele>148.255981</ele>
<time>2010-07-17T11:29:29Z</time>
<desc>lat.=55.731270, lon.=26.231510, Alt.=148.255981m. Speed=0.000000m/h.</desc>
<speed>0.000000</speed>
</trkpt>
<trkpt lat="55.731270" lon="26.231510">
<ele>148.255981</ele>
<time>2010-07-17T11:29:30Z</time>
<desc>lat.=55.731270, lon.=26.231510, Alt.=148.255981m. Speed=0.000000m/h.</desc>
<speed>0.000000</speed>
</trkpt>
<trkpt lat="55.731270" lon="26.231510">
<ele>148.252075</ele>
<time>2010-07-17T11:29:31Z</time>
<desc>lat.=55.731270, lon.=26.231510, Alt.=148.252075m. Speed=0.000000m/h.</desc>
<speed>0.000000</speed>
</trkpt>
<trkpt lat="55.731270" lon="26.231510">
<ele>148.255981</ele>
<time>2010-07-17T11:29:32Z</time>
<desc>lat.=55.731270, lon.=26.231510, Alt.=148.255981m. Speed=0.036000m/h.</desc>
<speed>0.010000</speed>
</trkpt>
<trkpt lat="55.731270" lon="26.231510">
<ele>148.252075</ele>
<time>2010-07-17T11:29:33Z</time>
<desc>lat.=55.731270, lon.=26.231510, Alt.=148.252075m. Speed=0.036000m/h.</desc>
<speed>0.010000</speed>
</trkpt>
<trkpt lat="55.731270" lon="26.231510">
<ele>148.255981</ele>
<time>2010-07-17T11:29:34Z</time>
<desc>lat.=55.731270, lon.=26.231510, Alt.=148.255981m. Speed=0.000000m/h.</desc>
<speed>0.000000</speed>
</trkpt>
<trkpt lat="55.731270" lon="26.231510">
<ele>148.255981</ele>
<time>2010-07-17T11:29:35Z</time>
<desc>lat.=55.731270, lon.=26.231510, Alt.=148.255981m. Speed=0.000000m/h.</desc>
<speed>0.000000</speed>
</trkpt>
<trkpt lat="55.731270" lon="26.231510">
<ele>148.255981</ele>
<time>2010-07-17T11:29:36Z</time>
<desc>lat.=55.731270, lon.=26.231510, Alt.=148.255981m. Speed=0.036000m/h.</desc>
<speed>0.010000</speed>
</trkpt>
<trkpt lat="55.731270" lon="26.231510">
<ele>148.255981</ele>
<time>2010-07-17T11:29:37Z</time>
<desc>lat.=55.731270, lon.=26.231510, Alt.=148.255981m. Speed=0.000000m/h.</desc>
<speed>0.000000</speed>
</trkpt>
<trkpt lat="55.731270" lon="26.231510">
<ele>148.255981</ele>
<time>2010-07-17T11:29:38Z</time>
<desc>lat.=55.731270, lon.=26.231510, Alt.=148.255981m. Speed=0.036000m/h.</desc>
<speed>0.010000</speed>
</trkpt>
<trkpt lat="55.731270" lon="26.231510">
<ele>148.259888</ele>
<time>2010-07-17T11:29:39Z</time>
<desc>lat.=55.731270, lon.=26.231510, Alt.=148.259888m. Speed=0.000000m/h.</desc>
<speed>0.000000</speed>
</trkpt>
<trkpt lat="55.731270" lon="26.231510">
<ele>148.263794</ele>
<time>2010-07-17T11:29:40Z</time>
<desc>lat.=55.731270, lon.=26.231510, Alt.=148.263794m. Speed=0.000000m/h.</desc>
<speed>0.000000</speed>
</trkpt>
<trkpt lat="55.731270" lon="26.231510">
<ele>148.263794</ele>
<time>2010-07-17T11:29:41Z</time>
<desc>lat.=55.731270, lon.=26.231510, Alt.=148.263794m. Speed=0.000000m/h.</desc>
<speed>0.000000</speed>
</trkpt>
<trkpt lat="55.731270" lon="26.231510">
<ele>148.259888</ele>
<time>2010-07-17T11:29:42Z</time>
<desc>lat.=55.731270, lon.=26.231510, Alt.=148.259888m. Speed=0.000000m/h.</desc>
<speed>0.000000</speed>
</trkpt>
<trkpt lat="55.731270" lon="26.231510">
<ele>148.259888</ele>
<time>2010-07-17T11:29:43Z</time>
<desc>lat.=55.731270, lon.=26.231510, Alt.=148.259888m. Speed=0.000000m/h.</desc>
<speed>0.000000</speed>
</trkpt>
<trkpt lat="55.731270" lon="26.231510">
<ele>148.259888</ele>
<time>2010-07-17T11:29:44Z</time>
<desc>lat.=55.731270, lon.=26.231510, Alt.=148.259888m. Speed=0.036000m/h.</desc>
<speed>0.010000</speed>
</trkpt>
<trkpt lat="55.731270" lon="26.231510">
<ele>148.259888</ele>
<time>2010-07-17T11:29:45Z</time>
<desc>lat.=55.731270, lon.=26.231510, Alt.=148.259888m. Speed=0.000000m/h.</desc>
<speed>0.000000</speed>
</trkpt>
<trkpt lat="55.731270" lon="26.231510">
<ele>148.259888</ele>
<time>2010-07-17T11:29:46Z</time>
<desc>lat.=55.731270, lon.=26.231510, Alt.=148.259888m. Speed=0.036000m/h.</desc>
<speed>0.010000</speed>
</trkpt>
<trkpt lat="55.731270" lon="26.231510">
<ele>148.259888</ele>
<time>2010-07-17T11:29:47Z</time>
<desc>lat.=55.731270, lon.=26.231510, Alt.=148.259888m. Speed=0.000000m/h.</desc>
<speed>0.000000</speed>
</trkpt>
<trkpt lat="55.731270" lon="26.231510">
<ele>148.259888</ele>
<time>2010-07-17T11:29:48Z</time>
<desc>lat.=55.731270, lon.=26.231510, Alt.=148.259888m. Speed=0.000000m/h.</desc>
<speed>0.000000</speed>
</trkpt>
<trkpt lat="55.731270" lon="26.231510">
<ele>148.259888</ele>
<time>2010-07-17T11:29:49Z</time>
<desc>lat.=55.731270, lon.=26.231510, Alt.=148.259888m. Speed=0.000000m/h.</desc>
<speed>0.000000</speed>
</trkpt>
<trkpt lat="55.731270" lon="26.231510">
<ele>148.259888</ele>
<time>2010-07-17T11:29:50Z</time>
<desc>lat.=55.731270, lon.=26.231510, Alt.=148.259888m. Speed=0.000000m/h.</desc>
<speed>0.000000</speed>
</trkpt>
<trkpt lat="55.731270" lon="26.231510">
<ele>148.259888</ele>
<time>2010-07-17T11:29:51Z</time>
<desc>lat.=55.731270, lon.=26.231510, Alt.=148.259888m. Speed=0.000000m/h.</desc>
<speed>0.000000</speed>
</trkpt>
<trkpt lat="55.731270" lon="26.231510">
<ele>148.255981</ele>
<time>2010-07-17T11:29:52Z</time>
<desc>lat.=55.731270, lon.=26.231510, Alt.=148.255981m. Speed=0.000000m/h.</desc>
<speed>0.000000</speed>
</trkpt>
<trkpt lat="55.731270" lon="26.231510">
<ele>148.255981</ele>
<time>2010-07-17T11:29:53Z</time>
<desc>lat.=55.731270, lon.=26.231510, Alt.=148.255981m. Speed=0.000000m/h.</desc>
<speed>0.000000</speed>
</trkpt>
<trkpt lat="55.731270" lon="26.231510">
<ele>148.252075</ele>
<time>2010-07-17T11:29:54Z</time>
<desc>lat.=55.731270, lon.=26.231510, Alt.=148.252075m. Speed=0.000000m/h.</desc>
<speed>0.000000</speed>
</trkpt>
<trkpt lat="55.731270" lon="26.231508">
<ele>148.244263</ele>
<time>2010-07-17T11:29:55Z</time>
<desc>lat.=55.731270, lon.=26.231508, Alt.=148.244263m. Speed=0.000000m/h.</desc>
<speed>0.000000</speed>
</trkpt>
<trkpt lat="55.731270" lon="26.231508">
<ele>148.244263</ele>
<time>2010-07-17T11:29:56Z</time>
<desc>lat.=55.731270, lon.=26.231508, Alt.=148.244263m. Speed=0.000000m/h.</desc>
<speed>0.000000</speed>
</trkpt>
<trkpt lat="55.731270" lon="26.231508">
<ele>148.240356</ele>
<time>2010-07-17T11:29:57Z</time>
<desc>lat.=55.731270, lon.=26.231508, Alt.=148.240356m. Speed=0.000000m/h.</desc>
<speed>0.000000</speed>
</trkpt>
<trkpt lat="55.731270" lon="26.231508">
<ele>148.232544</ele>
<time>2010-07-17T11:29:58Z</time>
<desc>lat.=55.731270, lon.=26.231508, Alt.=148.232544m. Speed=0.000000m/h.</desc>
<speed>0.000000</speed>
</trkpt>
<trkpt lat="55.731270" lon="26.231508">
<ele>148.228638</ele>
<time>2010-07-17T11:29:59Z</time>
<desc>lat.=55.731270, lon.=26.231508, Alt.=148.228638m. Speed=0.036000m/h.</desc>
<speed>0.010000</speed>
</trkpt>
<trkpt lat="55.731270" lon="26.231508">
<ele>148.224731</ele>
<time>2010-07-17T11:30:00Z</time>
<desc>lat.=55.731270, lon.=26.231508, Alt.=148.224731m. Speed=0.036000m/h.</desc>
<speed>0.010000</speed>
</trkpt>
<trkpt lat="55.731270" lon="26.231508">
<ele>148.220825</ele>
<time>2010-07-17T11:30:01Z</time>
<desc>lat.=55.731270, lon.=26.231508, Alt.=148.220825m. Speed=0.036000m/h.</desc>
<speed>0.010000</speed>
</trkpt>
<trkpt lat="55.731270" lon="26.231508">
<ele>148.220825</ele>
<time>2010-07-17T11:30:02Z</time>
<desc>lat.=55.731270, lon.=26.231508, Alt.=148.220825m. Speed=0.036000m/h.</desc>
<speed>0.010000</speed>
</trkpt>
<trkpt lat="55.731270" lon="26.231508">
<ele>148.213013</ele>
<time>2010-07-17T11:30:03Z</time>
<desc>lat.=55.731270, lon.=26.231508, Alt.=148.213013m. Speed=0.036000m/h.</desc>
<speed>0.010000</speed>
</trkpt>
<trkpt lat="55.731270" lon="26.231508">
<ele>148.213013</ele>
<time>2010-07-17T11:30:04Z</time>
<desc>lat.=55.731270, lon.=26.231508, Alt.=148.213013m. Speed=0.036000m/h.</desc>
<speed>0.010000</speed>
</trkpt>
<trkpt lat="55.731270" lon="26.231508">
<ele>148.209106</ele>
<time>2010-07-17T11:30:05Z</time>
<desc>lat.=55.731270, lon.=26.231508, Alt.=148.209106m. Speed=0.000000m/h.</desc>
<speed>0.000000</speed>
</trkpt>
<trkpt lat="55.731270" lon="26.231508">
<ele>148.205200</ele>
<time>2010-07-17T11:30:06Z</time>
<desc>lat.=55.731270, lon.=26.231508, Alt.=148.205200m. Speed=0.000000m/h.</desc>
<speed>0.000000</speed>
</trkpt>
<trkpt lat="55.731270" lon="26.231508">
<ele>148.205200</ele>
<time>2010-07-17T11:30:07Z</time>
<desc>lat.=55.731270, lon.=26.231508, Alt.=148.205200m. Speed=0.036000m/h.</desc>
<speed>0.010000</speed>
</trkpt>
<trkpt lat="55.731270" lon="26.231508">
<ele>148.197388</ele>
<time>2010-07-17T11:30:08Z</time>
<desc>lat.=55.731270, lon.=26.231508, Alt.=148.197388m. Speed=0.036000m/h.</desc>
<speed>0.010000</speed>
</trkpt>
<trkpt lat="55.731270" lon="26.231508">
<ele>148.193481</ele>
<time>2010-07-17T11:30:09Z</time>
<desc>lat.=55.731270, lon.=26.231508, Alt.=148.193481m. Speed=0.036000m/h.</desc>
<speed>0.010000</speed>
</trkpt>
<trkpt lat="55.731270" lon="26.231508">
<ele>148.189575</ele>
<time>2010-07-17T11:30:10Z</time>
<desc>lat.=55.731270, lon.=26.231508, Alt.=148.189575m. Speed=0.036000m/h.</desc>
<speed>0.010000</speed>
</trkpt>
<trkpt lat="55.731270" lon="26.231508">
<ele>148.185669</ele>
<time>2010-07-17T11:30:11Z</time>
<desc>lat.=55.731270, lon.=26.231508, Alt.=148.185669m. Speed=0.000000m/h.</desc>
<speed>0.000000</speed>
</trkpt>
<trkpt lat="55.731270" lon="26.231508">
<ele>148.181763</ele>
<time>2010-07-17T11:30:12Z</time>
<desc>lat.=55.731270, lon.=26.231508, Alt.=148.181763m. Speed=0.072000m/h.</desc>
<speed>0.020000</speed>
</trkpt>
<trkpt lat="55.731270" lon="26.231508">
<ele>148.181763</ele>
<time>2010-07-17T11:30:13Z</time>
<desc>lat.=55.731270, lon.=26.231508, Alt.=148.181763m. Speed=0.036000m/h.</desc>
<speed>0.010000</speed>
</trkpt>
<trkpt lat="55.731270" lon="26.231508">
<ele>148.173950</ele>
<time>2010-07-17T11:30:14Z</time>
<desc>lat.=55.731270, lon.=26.231508, Alt.=148.173950m. Speed=0.108000m/h.</desc>
<speed>0.030000</speed>
</trkpt>
<trkpt lat="55.731270" lon="26.231508">
<ele>148.170044</ele>
<time>2010-07-17T11:30:15Z</time>
<desc>lat.=55.731270, lon.=26.231508, Alt.=148.170044m. Speed=0.000000m/h.</desc>
<speed>0.000000</speed>
</trkpt>
<trkpt lat="55.731270" lon="26.231508">
<ele>148.166138</ele>
<time>2010-07-17T11:30:16Z</time>
<desc>lat.=55.731270, lon.=26.231508, Alt.=148.166138m. Speed=0.072000m/h.</desc>
<speed>0.020000</speed>
</trkpt>
<trkpt lat="55.731270" lon="26.231508">
<ele>148.166138</ele>
<time>2010-07-17T11:30:17Z</time>
<desc>lat.=55.731270, lon.=26.231508, Alt.=148.166138m. Speed=0.000000m/h.</desc>
<speed>0.000000</speed>
</trkpt>
<trkpt lat="55.731270" lon="26.231508">
<ele>148.162231</ele>
<time>2010-07-17T11:30:18Z</time>
<desc>lat.=55.731270, lon.=26.231508, Alt.=148.162231m. Speed=0.036000m/h.</desc>
<speed>0.010000</speed>
</trkpt>
<trkpt lat="55.731270" lon="26.231508">
<ele>148.154419</ele>
<time>2010-07-17T11:30:19Z</time>
<desc>lat.=55.731270, lon.=26.231508, Alt.=148.154419m. Speed=0.036000m/h.</desc>
<speed>0.010000</speed>
</trkpt>
<trkpt lat="55.731270" lon="26.231508">
<ele>148.150513</ele>
<time>2010-07-17T11:30:20Z</time>
<desc>lat.=55.731270, lon.=26.231508, Alt.=148.150513m. Speed=0.072000m/h.</desc>
<speed>0.020000</speed>
</trkpt>
<trkpt lat="55.731270" lon="26.231506">
<ele>148.142700</ele>
<time>2010-07-17T11:30:21Z</time>
<desc>lat.=55.731270, lon.=26.231506, Alt.=148.142700m. Speed=0.000000m/h.</desc>
<speed>0.000000</speed>
</trkpt>
<trkpt lat="55.731270" lon="26.231506">
<ele>148.138794</ele>
<time>2010-07-17T11:30:22Z</time>
<desc>lat.=55.731270, lon.=26.231506, Alt.=148.138794m. Speed=0.036000m/h.</desc>
<speed>0.010000</speed>
</trkpt>
<trkpt lat="55.731270" lon="26.231506">
<ele>148.130981</ele>
<time>2010-07-17T11:30:23Z</time>
<desc>lat.=55.731270, lon.=26.231506, Alt.=148.130981m. Speed=0.036000m/h.</desc>
<speed>0.010000</speed>
</trkpt>
<trkpt lat="55.731270" lon="26.231506">
<ele>148.123169</ele>
<time>2010-07-17T11:30:24Z</time>
<desc>lat.=55.731270, lon.=26.231506, Alt.=148.123169m. Speed=0.108000m/h.</desc>
<speed>0.030000</speed>
</trkpt>
<trkpt lat="55.731270" lon="26.231506">
<ele>148.119263</ele>
<time>2010-07-17T11:30:25Z</time>
<desc>lat.=55.731270, lon.=26.231506, Alt.=148.119263m. Speed=0.072000m/h.</desc>
<speed>0.020000</speed>
</trkpt>
<trkpt lat="55.731270" lon="26.231506">
<ele>148.111450</ele>
<time>2010-07-17T11:30:26Z</time>
<desc>lat.=55.731270, lon.=26.231506, Alt.=148.111450m. Speed=0.000000m/h.</desc>
<speed>0.000000</speed>
</trkpt>
<trkpt lat="55.731270" lon="26.231506">
<ele>148.099731</ele>
<time>2010-07-17T11:30:27Z</time>
<desc>lat.=55.731270, lon.=26.231506, Alt.=148.099731m. Speed=0.000000m/h.</desc>
<speed>0.000000</speed>
</trkpt>
<trkpt lat="55.731270" lon="26.231506">
<ele>148.088013</ele>
<time>2010-07-17T11:30:28Z</time>
<desc>lat.=55.731270, lon.=26.231506, Alt.=148.088013m. Speed=0.036000m/h.</desc>
<speed>0.010000</speed>
</trkpt>
<trkpt lat="55.731270" lon="26.231506">
<ele>148.072388</ele>
<time>2010-07-17T11:30:29Z</time>
<desc>lat.=55.731270, lon.=26.231506, Alt.=148.072388m. Speed=0.072000m/h.</desc>
<speed>0.020000</speed>
</trkpt>
<trkpt lat="55.731270" lon="26.231506">
<ele>148.060669</ele>
<time>2010-07-17T11:30:30Z</time>
<desc>lat.=55.731270, lon.=26.231506, Alt.=148.060669m. Speed=0.036000m/h.</desc>
<speed>0.010000</speed>
</trkpt>
<trkpt lat="55.731270" lon="26.231506">
<ele>148.048950</ele>
<time>2010-07-17T11:30:31Z</time>
<desc>lat.=55.731270, lon.=26.231506, Alt.=148.048950m. Speed=0.000000m/h.</desc>
<speed>0.000000</speed>
</trkpt>
<trkpt lat="55.731270" lon="26.231506">
<ele>148.037231</ele>
<time>2010-07-17T11:30:32Z</time>
<desc>lat.=55.731270, lon.=26.231506, Alt.=148.037231m. Speed=0.000000m/h.</desc>
<speed>0.000000</speed>
</trkpt>
<trkpt lat="55.731270" lon="26.231504">
<ele>148.029419</ele>
<time>2010-07-17T11:30:33Z</time>
<desc>lat.=55.731270, lon.=26.231504, Alt.=148.029419m. Speed=0.000000m/h.</desc>
<speed>0.000000</speed>
</trkpt>
<trkpt lat="55.731270" lon="26.231504">
<ele>148.017700</ele>
<time>2010-07-17T11:30:34Z</time>
<desc>lat.=55.731270, lon.=26.231504, Alt.=148.017700m. Speed=0.036000m/h.</desc>
<speed>0.010000</speed>
</trkpt>
<trkpt lat="55.731270" lon="26.231504">
<ele>148.009888</ele>
<time>2010-07-17T11:30:35Z</time>
<desc>lat.=55.731270, lon.=26.231504, Alt.=148.009888m. Speed=0.000000m/h.</desc>
<speed>0.000000</speed>
</trkpt>
<trkpt lat="55.731270" lon="26.231504">
<ele>148.002075</ele>
<time>2010-07-17T11:30:36Z</time>
<desc>lat.=55.731270, lon.=26.231504, Alt.=148.002075m. Speed=0.000000m/h.</desc>
<speed>0.000000</speed>
</trkpt>
<trkpt lat="55.731270" lon="26.231504">
<ele>147.994263</ele>
<time>2010-07-17T11:30:37Z</time>
<desc>lat.=55.731270, lon.=26.231504, Alt.=147.994263m. Speed=0.000000m/h.</desc>
<speed>0.000000</speed>
</trkpt>
<trkpt lat="55.731270" lon="26.231504">
<ele>147.986450</ele>
<time>2010-07-17T11:30:38Z</time>
<desc>lat.=55.731270, lon.=26.231504, Alt.=147.986450m. Speed=0.000000m/h.</desc>
<speed>0.000000</speed>
</trkpt>
<trkpt lat="55.731270" lon="26.231504">
<ele>147.978638</ele>
<time>2010-07-17T11:30:39Z</time>
<desc>lat.=55.731270, lon.=26.231504, Alt.=147.978638m. Speed=0.072000m/h.</desc>
<speed>0.020000</speed>
</trkpt>
<trkpt lat="55.731270" lon="26.231504">
<ele>147.966919</ele>
<time>2010-07-17T11:30:40Z</time>
<desc>lat.=55.731270, lon.=26.231504, Alt.=147.966919m. Speed=0.036000m/h.</desc>
<speed>0.010000</speed>
</trkpt>
<trkpt lat="55.731270" lon="26.231504">
<ele>147.959106</ele>
<time>2010-07-17T11:30:41Z</time>
<desc>lat.=55.731270, lon.=26.231504, Alt.=147.959106m. Speed=0.036000m/h.</desc>
<speed>0.010000</speed>
</trkpt>
<trkpt lat="55.731270" lon="26.231504">
<ele>147.955200</ele>
<time>2010-07-17T11:30:42Z</time>
<desc>lat.=55.731270, lon.=26.231504, Alt.=147.955200m. Speed=0.000000m/h.</desc>
<speed>0.000000</speed>
</trkpt>
<trkpt lat="55.731270" lon="26.231504">
<ele>147.951294</ele>
<time>2010-07-17T11:30:43Z</time>
<desc>lat.=55.731270, lon.=26.231504, Alt.=147.951294m. Speed=0.000000m/h.</desc>
<speed>0.000000</speed>
</trkpt>
<trkpt lat="55.731270" lon="26.231504">
<ele>147.947388</ele>
<time>2010-07-17T11:30:44Z</time>
<desc>lat.=55.731270, lon.=26.231504, Alt.=147.947388m. Speed=0.036000m/h.</desc>
<speed>0.010000</speed>
</trkpt>
<trkpt lat="55.731274" lon="26.231504">
<ele>147.943481</ele>
<time>2010-07-17T11:30:45Z</time>
<desc>lat.=55.731274, lon.=26.231504, Alt.=147.943481m. Speed=0.000000m/h.</desc>
<speed>0.000000</speed>
</trkpt>
<trkpt lat="55.731274" lon="26.231504">
<ele>147.935669</ele>
<time>2010-07-17T11:30:46Z</time>
<desc>lat.=55.731274, lon.=26.231504, Alt.=147.935669m. Speed=0.036000m/h.</desc>
<speed>0.010000</speed>
</trkpt>
<trkpt lat="55.731274" lon="26.231504">
<ele>147.931763</ele>
<time>2010-07-17T11:30:47Z</time>
<desc>lat.=55.731274, lon.=26.231504, Alt.=147.931763m. Speed=0.036000m/h.</desc>
<speed>0.010000</speed>
</trkpt>
<trkpt lat="55.731274" lon="26.231504">
<ele>147.923950</ele>
<time>2010-07-17T11:30:48Z</time>
<desc>lat.=55.731274, lon.=26.231504, Alt.=147.923950m. Speed=0.072000m/h.</desc>
<speed>0.020000</speed>
</trkpt>
<trkpt lat="55.731274" lon="26.231504">
<ele>147.916138</ele>
<time>2010-07-17T11:30:49Z</time>
<desc>lat.=55.731274, lon.=26.231504, Alt.=147.916138m. Speed=0.000000m/h.</desc>
<speed>0.000000</speed>
</trkpt>
<trkpt lat="55.731274" lon="26.231504">
<ele>147.916138</ele>
<time>2010-07-17T11:30:50Z</time>
<desc>lat.=55.731274, lon.=26.231504, Alt.=147.916138m. Speed=0.072000m/h.</desc>
<speed>0.020000</speed>
</trkpt>
<trkpt lat="55.731274" lon="26.231504">
<ele>147.912231</ele>
<time>2010-07-17T11:30:51Z</time>
<desc>lat.=55.731274, lon.=26.231504, Alt.=147.912231m. Speed=0.000000m/h.</desc>
<speed>0.000000</speed>
</trkpt>
<trkpt lat="55.731274" lon="26.231504">
<ele>147.904419</ele>
<time>2010-07-17T11:30:52Z</time>
<desc>lat.=55.731274, lon.=26.231504, Alt.=147.904419m. Speed=0.036000m/h.</desc>
<speed>0.010000</speed>
</trkpt>
<trkpt lat="55.731274" lon="26.231504">
<ele>147.900513</ele>
<time>2010-07-17T11:30:53Z</time>
<desc>lat.=55.731274, lon.=26.231504, Alt.=147.900513m. Speed=0.000000m/h.</desc>
<speed>0.000000</speed>
</trkpt>
<trkpt lat="55.731274" lon="26.231504">
<ele>147.896606</ele>
<time>2010-07-17T11:30:54Z</time>
<desc>lat.=55.731274, lon.=26.231504, Alt.=147.896606m. Speed=0.108000m/h.</desc>
<speed>0.030000</speed>
</trkpt>
<trkpt lat="55.731274" lon="26.231504">
<ele>147.896606</ele>
<time>2010-07-17T11:30:55Z</time>
<desc>lat.=55.731274, lon.=26.231504, Alt.=147.896606m. Speed=0.000000m/h.</desc>
<speed>0.000000</speed>
</trkpt>
<trkpt lat="55.731274" lon="26.231504">
<ele>147.888794</ele>
<time>2010-07-17T11:30:56Z</time>
<desc>lat.=55.731274, lon.=26.231504, Alt.=147.888794m. Speed=0.000000m/h.</desc>
<speed>0.000000</speed>
</trkpt>
<trkpt lat="55.731274" lon="26.231504">
<ele>147.888794</ele>
<time>2010-07-17T11:30:57Z</time>
<desc>lat.=55.731274, lon.=26.231504, Alt.=147.888794m. Speed=0.036000m/h.</desc>
<speed>0.010000</speed>
</trkpt>
<trkpt lat="55.731274" lon="26.231504">
<ele>147.880981</ele>
<time>2010-07-17T11:30:58Z</time>
<desc>lat.=55.731274, lon.=26.231504, Alt.=147.880981m. Speed=0.036000m/h.</desc>
<speed>0.010000</speed>
</trkpt>
<trkpt lat="55.731274" lon="26.231504">
<ele>147.877075</ele>
<time>2010-07-17T11:30:59Z</time>
<desc>lat.=55.731274, lon.=26.231504, Alt.=147.877075m. Speed=0.072000m/h.</desc>
<speed>0.020000</speed>
</trkpt>
<trkpt lat="55.731274" lon="26.231504">
<ele>147.873169</ele>
<time>2010-07-17T11:31:00Z</time>
<desc>lat.=55.731274, lon.=26.231504, Alt.=147.873169m. Speed=0.000000m/h.</desc>
<speed>0.000000</speed>
</trkpt>
<trkpt lat="55.731274" lon="26.231504">
<ele>147.869263</ele>
<time>2010-07-17T11:31:01Z</time>
<desc>lat.=55.731274, lon.=26.231504, Alt.=147.869263m. Speed=0.036000m/h.</desc>
<speed>0.010000</speed>
</trkpt>
<trkpt lat="55.731274" lon="26.231504">
<ele>147.861450</ele>
<time>2010-07-17T11:31:02Z</time>
<desc>lat.=55.731274, lon.=26.231504, Alt.=147.861450m. Speed=0.036000m/h.</desc>
<speed>0.010000</speed>
</trkpt>
<trkpt lat="55.731274" lon="26.231504">
<ele>147.853638</ele>
<time>2010-07-17T11:31:03Z</time>
<desc>lat.=55.731274, lon.=26.231504, Alt.=147.853638m. Speed=0.072000m/h.</desc>
<speed>0.020000</speed>
</trkpt>
<trkpt lat="55.731274" lon="26.231504">
<ele>147.845825</ele>
<time>2010-07-17T11:31:04Z</time>
<desc>lat.=55.731274, lon.=26.231504, Alt.=147.845825m. Speed=0.000000m/h.</desc>
<speed>0.000000</speed>
</trkpt>
<trkpt lat="55.731274" lon="26.231504">
<ele>147.841919</ele>
<time>2010-07-17T11:31:05Z</time>
<desc>lat.=55.731274, lon.=26.231504, Alt.=147.841919m. Speed=0.000000m/h.</desc>
<speed>0.000000</speed>
</trkpt>
<trkpt lat="55.731274" lon="26.231504">
<ele>147.841919</ele>
<time>2010-07-17T11:31:06Z</time>
<desc>lat.=55.731274, lon.=26.231504, Alt.=147.841919m. Speed=0.036000m/h.</desc>
<speed>0.010000</speed>
</trkpt>
<trkpt lat="55.731274" lon="26.231504">
<ele>147.834106</ele>
<time>2010-07-17T11:31:07Z</time>
<desc>lat.=55.731274, lon.=26.231504, Alt.=147.834106m. Speed=0.072000m/h.</desc>
<speed>0.020000</speed>
</trkpt>
<trkpt lat="55.731274" lon="26.231504">
<ele>147.834106</ele>
<time>2010-07-17T11:31:08Z</time>
<desc>lat.=55.731274, lon.=26.231504, Alt.=147.834106m. Speed=0.108000m/h.</desc>
<speed>0.030000</speed>
</trkpt>
<trkpt lat="55.731274" lon="26.231504">
<ele>147.834106</ele>
<time>2010-07-17T11:31:09Z</time>
<desc>lat.=55.731274, lon.=26.231504, Alt.=147.834106m. Speed=0.180000m/h.</desc>
<speed>0.050000</speed>
</trkpt>
<trkpt lat="55.731274" lon="26.231504">
<ele>147.830200</ele>
<time>2010-07-17T11:31:10Z</time>
<desc>lat.=55.731274, lon.=26.231504, Alt.=147.830200m. Speed=0.072000m/h.</desc>
<speed>0.020000</speed>
</trkpt>
<trkpt lat="55.731274" lon="26.231504">
<ele>147.830200</ele>
<time>2010-07-17T11:31:11Z</time>
<desc>lat.=55.731274, lon.=26.231504, Alt.=147.830200m. Speed=0.108000m/h.</desc>
<speed>0.030000</speed>
</trkpt>
<trkpt lat="55.731274" lon="26.231504">
<ele>147.826294</ele>
<time>2010-07-17T11:31:12Z</time>
<desc>lat.=55.731274, lon.=26.231504, Alt.=147.826294m. Speed=0.036000m/h.</desc>
<speed>0.010000</speed>
</trkpt>
<trkpt lat="55.731274" lon="26.231504">
<ele>147.822388</ele>
<time>2010-07-17T11:31:13Z</time>
<desc>lat.=55.731274, lon.=26.231504, Alt.=147.822388m. Speed=0.072000m/h.</desc>
<speed>0.020000</speed>
</trkpt>
<trkpt lat="55.731274" lon="26.231504">
<ele>147.818481</ele>
<time>2010-07-17T11:31:14Z</time>
<desc>lat.=55.731274, lon.=26.231504, Alt.=147.818481m. Speed=0.108000m/h.</desc>
<speed>0.030000</speed>
</trkpt>
<trkpt lat="55.731274" lon="26.231504">
<ele>147.818481</ele>
<time>2010-07-17T11:31:15Z</time>
<desc>lat.=55.731274, lon.=26.231504, Alt.=147.818481m. Speed=0.072000m/h.</desc>
<speed>0.020000</speed>
</trkpt>
<trkpt lat="55.731274" lon="26.231504">
<ele>147.810669</ele>
<time>2010-07-17T11:31:16Z</time>
<desc>lat.=55.731274, lon.=26.231504, Alt.=147.810669m. Speed=0.000000m/h.</desc>
<speed>0.000000</speed>
</trkpt>
<trkpt lat="55.731274" lon="26.231504">
<ele>147.822388</ele>
<time>2010-07-17T11:31:17Z</time>
<desc>lat.=55.731274, lon.=26.231504, Alt.=147.822388m. Speed=0.180000m/h.</desc>
<speed>0.050000</speed>
</trkpt>
<trkpt lat="55.731274" lon="26.231504">
<ele>147.826294</ele>
<time>2010-07-17T11:31:18Z</time>
<desc>lat.=55.731274, lon.=26.231504, Alt.=147.826294m. Speed=0.108000m/h.</desc>
<speed>0.030000</speed>
</trkpt>
<trkpt lat="55.731274" lon="26.231506">
<ele>147.830200</ele>
<time>2010-07-17T11:31:19Z</time>
<desc>lat.=55.731274, lon.=26.231506, Alt.=147.830200m. Speed=0.036000m/h.</desc>
<speed>0.010000</speed>
</trkpt>
<trkpt lat="55.731274" lon="26.231506">
<ele>147.838013</ele>
<time>2010-07-17T11:31:20Z</time>
<desc>lat.=55.731274, lon.=26.231506, Alt.=147.838013m. Speed=0.108000m/h.</desc>
<speed>0.030000</speed>
</trkpt>
<trkpt lat="55.731274" lon="26.231506">
<ele>147.845825</ele>
<time>2010-07-17T11:31:21Z</time>
<desc>lat.=55.731274, lon.=26.231506, Alt.=147.845825m. Speed=0.108000m/h.</desc>
<speed>0.030000</speed>
</trkpt>
<trkpt lat="55.731277" lon="26.231506">
<ele>147.853638</ele>
<time>2010-07-17T11:31:22Z</time>
<desc>lat.=55.731277, lon.=26.231506, Alt.=147.853638m. Speed=0.108000m/h.</desc>
<speed>0.030000</speed>
</trkpt>
<trkpt lat="55.731277" lon="26.231506">
<ele>147.861450</ele>
<time>2010-07-17T11:31:23Z</time>
<desc>lat.=55.731277, lon.=26.231506, Alt.=147.861450m. Speed=0.036000m/h.</desc>
<speed>0.010000</speed>
</trkpt>
<trkpt lat="55.731277" lon="26.231506">
<ele>147.861450</ele>
<time>2010-07-17T11:31:24Z</time>
<desc>lat.=55.731277, lon.=26.231506, Alt.=147.861450m. Speed=0.000000m/h.</desc>
<speed>0.000000</speed>
</trkpt>
<trkpt lat="55.731277" lon="26.231506">
<ele>147.865356</ele>
<time>2010-07-17T11:31:25Z</time>
<desc>lat.=55.731277, lon.=26.231506, Alt.=147.865356m. Speed=0.000000m/h.</desc>
<speed>0.000000</speed>
</trkpt>
<trkpt lat="55.731277" lon="26.231506">
<ele>147.869263</ele>
<time>2010-07-17T11:31:26Z</time>
<desc>lat.=55.731277, lon.=26.231506, Alt.=147.869263m. Speed=0.000000m/h.</desc>
<speed>0.000000</speed>
</trkpt>
<trkpt lat="55.731277" lon="26.231506">
<ele>147.877075</ele>
<time>2010-07-17T11:31:27Z</time>
<desc>lat.=55.731277, lon.=26.231506, Alt.=147.877075m. Speed=0.036000m/h.</desc>
<speed>0.010000</speed>
</trkpt>
<trkpt lat="55.731277" lon="26.231506">
<ele>147.880981</ele>
<time>2010-07-17T11:31:28Z</time>
<desc>lat.=55.731277, lon.=26.231506, Alt.=147.880981m. Speed=0.000000m/h.</desc>
<speed>0.000000</speed>
</trkpt>
<trkpt lat="55.731277" lon="26.231506">
<ele>147.888794</ele>
<time>2010-07-17T11:31:29Z</time>
<desc>lat.=55.731277, lon.=26.231506, Alt.=147.888794m. Speed=0.000000m/h.</desc>
<speed>0.000000</speed>
</trkpt>
<trkpt lat="55.731277" lon="26.231506">
<ele>147.892700</ele>
<time>2010-07-17T11:31:30Z</time>
<desc>lat.=55.731277, lon.=26.231506, Alt.=147.892700m. Speed=0.000000m/h.</desc>
<speed>0.000000</speed>
</trkpt>
<trkpt lat="55.731277" lon="26.231506">
<ele>147.896606</ele>
<time>2010-07-17T11:31:31Z</time>
<desc>lat.=55.731277, lon.=26.231506, Alt.=147.896606m. Speed=0.036000m/h.</desc>
<speed>0.010000</speed>
</trkpt>
<trkpt lat="55.731277" lon="26.231506">
<ele>147.900513</ele>
<time>2010-07-17T11:31:32Z</time>
<desc>lat.=55.731277, lon.=26.231506, Alt.=147.900513m. Speed=0.000000m/h.</desc>
<speed>0.000000</speed>
</trkpt>
<trkpt lat="55.731277" lon="26.231506">
<ele>147.908325</ele>
<time>2010-07-17T11:31:33Z</time>
<desc>lat.=55.731277, lon.=26.231506, Alt.=147.908325m. Speed=0.036000m/h.</desc>
<speed>0.010000</speed>
</trkpt>
<trkpt lat="55.731277" lon="26.231506">
<ele>147.912231</ele>
<time>2010-07-17T11:31:34Z</time>
<desc>lat.=55.731277, lon.=26.231506, Alt.=147.912231m. Speed=0.000000m/h.</desc>
<speed>0.000000</speed>
</trkpt>
<trkpt lat="55.731277" lon="26.231506">
<ele>147.916138</ele>
<time>2010-07-17T11:31:35Z</time>
<desc>lat.=55.731277, lon.=26.231506, Alt.=147.916138m. Speed=0.036000m/h.</desc>
<speed>0.010000</speed>
</trkpt>
<trkpt lat="55.731277" lon="26.231506">
<ele>147.920044</ele>
<time>2010-07-17T11:31:36Z</time>
<desc>lat.=55.731277, lon.=26.231506, Alt.=147.920044m. Speed=0.072000m/h.</desc>
<speed>0.020000</speed>
</trkpt>
<trkpt lat="55.731277" lon="26.231506">
<ele>147.923950</ele>
<time>2010-07-17T11:31:37Z</time>
<desc>lat.=55.731277, lon.=26.231506, Alt.=147.923950m. Speed=0.036000m/h.</desc>
<speed>0.010000</speed>
</trkpt>
<trkpt lat="55.731277" lon="26.231506">
<ele>147.927856</ele>
<time>2010-07-17T11:31:38Z</time>
<desc>lat.=55.731277, lon.=26.231506, Alt.=147.927856m. Speed=0.072000m/h.</desc>
<speed>0.020000</speed>
</trkpt>
<trkpt lat="55.731277" lon="26.231506">
<ele>147.935669</ele>
<time>2010-07-17T11:31:39Z</time>
<desc>lat.=55.731277, lon.=26.231506, Alt.=147.935669m. Speed=0.072000m/h.</desc>
<speed>0.020000</speed>
</trkpt>
<trkpt lat="55.731277" lon="26.231506">
<ele>147.943481</ele>
<time>2010-07-17T11:31:40Z</time>
<desc>lat.=55.731277, lon.=26.231506, Alt.=147.943481m. Speed=0.108000m/h.</desc>
<speed>0.030000</speed>
</trkpt>
<trkpt lat="55.731277" lon="26.231506">
<ele>147.943481</ele>
<time>2010-07-17T11:31:41Z</time>
<desc>lat.=55.731277, lon.=26.231506, Alt.=147.943481m. Speed=0.108000m/h.</desc>
<speed>0.030000</speed>
</trkpt>
<trkpt lat="55.731277" lon="26.231506">
<ele>147.943481</ele>
<time>2010-07-17T11:31:42Z</time>
<desc>lat.=55.731277, lon.=26.231506, Alt.=147.943481m. Speed=0.180000m/h.</desc>
<speed>0.050000</speed>
</trkpt>
<trkpt lat="55.731277" lon="26.231506">
<ele>147.947388</ele>
<time>2010-07-17T11:31:43Z</time>
<desc>lat.=55.731277, lon.=26.231506, Alt.=147.947388m. Speed=0.036000m/h.</desc>
<speed>0.010000</speed>
</trkpt>
<trkpt lat="55.731277" lon="26.231506">
<ele>147.947388</ele>
<time>2010-07-17T11:31:44Z</time>
<desc>lat.=55.731277, lon.=26.231506, Alt.=147.947388m. Speed=0.072000m/h.</desc>
<speed>0.020000</speed>
</trkpt>
<trkpt lat="55.731277" lon="26.231506">
<ele>147.947388</ele>
<time>2010-07-17T11:31:45Z</time>
<desc>lat.=55.731277, lon.=26.231506, Alt.=147.947388m. Speed=0.072000m/h.</desc>
<speed>0.020000</speed>
</trkpt>
<trkpt lat="55.731277" lon="26.231506">
<ele>147.947388</ele>
<time>2010-07-17T11:31:46Z</time>
<desc>lat.=55.731277, lon.=26.231506, Alt.=147.947388m. Speed=0.072000m/h.</desc>
<speed>0.020000</speed>
</trkpt>
<trkpt lat="55.731277" lon="26.231506">
<ele>147.947388</ele>
<time>2010-07-17T11:31:47Z</time>
<desc>lat.=55.731277, lon.=26.231506, Alt.=147.947388m. Speed=0.036000m/h.</desc>
<speed>0.010000</speed>
</trkpt>
<trkpt lat="55.731277" lon="26.231506">
<ele>147.947388</ele>
<time>2010-07-17T11:31:48Z</time>
<desc>lat.=55.731277, lon.=26.231506, Alt.=147.947388m. Speed=0.072000m/h.</desc>
<speed>0.020000</speed>
</trkpt>
<trkpt lat="55.731277" lon="26.231506">
<ele>147.943481</ele>
<time>2010-07-17T11:31:49Z</time>
<desc>lat.=55.731277, lon.=26.231506, Alt.=147.943481m. Speed=0.072000m/h.</desc>
<speed>0.020000</speed>
</trkpt>
<trkpt lat="55.731277" lon="26.231506">
<ele>147.943481</ele>
<time>2010-07-17T11:31:50Z</time>
<desc>lat.=55.731277, lon.=26.231506, Alt.=147.943481m. Speed=0.072000m/h.</desc>
<speed>0.020000</speed>
</trkpt>
<trkpt lat="55.731277" lon="26.231506">
<ele>147.939575</ele>
<time>2010-07-17T11:31:51Z</time>
<desc>lat.=55.731277, lon.=26.231506, Alt.=147.939575m. Speed=0.072000m/h.</desc>
<speed>0.020000</speed>
</trkpt>
<trkpt lat="55.731277" lon="26.231506">
<ele>147.935669</ele>
<time>2010-07-17T11:31:52Z</time>
<desc>lat.=55.731277, lon.=26.231506, Alt.=147.935669m. Speed=0.180000m/h.</desc>
<speed>0.050000</speed>
</trkpt>
<trkpt lat="55.731277" lon="26.231506">
<ele>147.931763</ele>
<time>2010-07-17T11:31:53Z</time>
<desc>lat.=55.731277, lon.=26.231506, Alt.=147.931763m. Speed=0.072000m/h.</desc>
<speed>0.020000</speed>
</trkpt>
<trkpt lat="55.731281" lon="26.231506">
<ele>147.920044</ele>
<time>2010-07-17T11:31:54Z</time>
<desc>lat.=55.731281, lon.=26.231506, Alt.=147.920044m. Speed=0.180000m/h.</desc>
<speed>0.050000</speed>
</trkpt>
<trkpt lat="55.731281" lon="26.231506">
<ele>147.908325</ele>
<time>2010-07-17T11:31:55Z</time>
<desc>lat.=55.731281, lon.=26.231506, Alt.=147.908325m. Speed=0.288000m/h.</desc>
<speed>0.080000</speed>
</trkpt>
<trkpt lat="55.731281" lon="26.231506">
<ele>147.900513</ele>
<time>2010-07-17T11:31:56Z</time>
<desc>lat.=55.731281, lon.=26.231506, Alt.=147.900513m. Speed=0.252000m/h.</desc>
<speed>0.070000</speed>
</trkpt>
<trkpt lat="55.731281" lon="26.231506">
<ele>147.900513</ele>
<time>2010-07-17T11:31:57Z</time>
<desc>lat.=55.731281, lon.=26.231506, Alt.=147.900513m. Speed=0.180000m/h.</desc>
<speed>0.050000</speed>
</trkpt>
<trkpt lat="55.731281" lon="26.231506">
<ele>147.896606</ele>
<time>2010-07-17T11:31:58Z</time>
<desc>lat.=55.731281, lon.=26.231506, Alt.=147.896606m. Speed=0.108000m/h.</desc>
<speed>0.030000</speed>
</trkpt>
<trkpt lat="55.731281" lon="26.231506">
<ele>147.892700</ele>
<time>2010-07-17T11:31:59Z</time>
<desc>lat.=55.731281, lon.=26.231506, Alt.=147.892700m. Speed=0.216000m/h.</desc>
<speed>0.060000</speed>
</trkpt>
<trkpt lat="55.731281" lon="26.231506">
<ele>147.884888</ele>
<time>2010-07-17T11:32:00Z</time>
<desc>lat.=55.731281, lon.=26.231506, Alt.=147.884888m. Speed=0.108000m/h.</desc>
<speed>0.030000</speed>
</trkpt>
<trkpt lat="55.731281" lon="26.231506">
<ele>147.877075</ele>
<time>2010-07-17T11:32:01Z</time>
<desc>lat.=55.731281, lon.=26.231506, Alt.=147.877075m. Speed=0.180000m/h.</desc>
<speed>0.050000</speed>
</trkpt>
<trkpt lat="55.731281" lon="26.231506">
<ele>147.865356</ele>
<time>2010-07-17T11:32:02Z</time>
<desc>lat.=55.731281, lon.=26.231506, Alt.=147.865356m. Speed=0.072000m/h.</desc>
<speed>0.020000</speed>
</trkpt>
<trkpt lat="55.731281" lon="26.231506">
<ele>147.861450</ele>
<time>2010-07-17T11:32:03Z</time>
<desc>lat.=55.731281, lon.=26.231506, Alt.=147.861450m. Speed=0.180000m/h.</desc>
<speed>0.050000</speed>
</trkpt>
<trkpt lat="55.731281" lon="26.231506">
<ele>147.853638</ele>
<time>2010-07-17T11:32:04Z</time>
<desc>lat.=55.731281, lon.=26.231506, Alt.=147.853638m. Speed=0.144000m/h.</desc>
<speed>0.040000</speed>
</trkpt>
<trkpt lat="55.731281" lon="26.231506">
<ele>147.849731</ele>
<time>2010-07-17T11:32:05Z</time>
<desc>lat.=55.731281, lon.=26.231506, Alt.=147.849731m. Speed=0.108000m/h.</desc>
<speed>0.030000</speed>
</trkpt>
<trkpt lat="55.731281" lon="26.231506">
<ele>147.841919</ele>
<time>2010-07-17T11:32:06Z</time>
<desc>lat.=55.731281, lon.=26.231506, Alt.=147.841919m. Speed=0.108000m/h.</desc>
<speed>0.030000</speed>
</trkpt>
<trkpt lat="55.731281" lon="26.231506">
<ele>147.838013</ele>
<time>2010-07-17T11:32:07Z</time>
<desc>lat.=55.731281, lon.=26.231506, Alt.=147.838013m. Speed=0.144000m/h.</desc>
<speed>0.040000</speed>
</trkpt>
<trkpt lat="55.731281" lon="26.231506">
<ele>147.830200</ele>
<time>2010-07-17T11:32:08Z</time>
<desc>lat.=55.731281, lon.=26.231506, Alt.=147.830200m. Speed=0.144000m/h.</desc>
<speed>0.040000</speed>
</trkpt>
<trkpt lat="55.731281" lon="26.231506">
<ele>147.830200</ele>
<time>2010-07-17T11:32:09Z</time>
<desc>lat.=55.731281, lon.=26.231506, Alt.=147.830200m. Speed=0.108000m/h.</desc>
<speed>0.030000</speed>
</trkpt>
<trkpt lat="55.731281" lon="26.231506">
<ele>147.826294</ele>
<time>2010-07-17T11:32:10Z</time>
<desc>lat.=55.731281, lon.=26.231506, Alt.=147.826294m. Speed=0.108000m/h.</desc>
<speed>0.030000</speed>
</trkpt>
<trkpt lat="55.731285" lon="26.231506">
<ele>147.826294</ele>
<time>2010-07-17T11:32:11Z</time>
<desc>lat.=55.731285, lon.=26.231506, Alt.=147.826294m. Speed=0.144000m/h.</desc>
<speed>0.040000</speed>
</trkpt>
<trkpt lat="55.731285" lon="26.231506">
<ele>147.814575</ele>
<time>2010-07-17T11:32:12Z</time>
<desc>lat.=55.731285, lon.=26.231506, Alt.=147.814575m. Speed=0.108000m/h.</desc>
<speed>0.030000</speed>
</trkpt>
<trkpt lat="55.731285" lon="26.231506">
<ele>147.818481</ele>
<time>2010-07-17T11:32:13Z</time>
<desc>lat.=55.731285, lon.=26.231506, Alt.=147.818481m. Speed=0.180000m/h.</desc>
<speed>0.050000</speed>
</trkpt>
<trkpt lat="55.731285" lon="26.231506">
<ele>147.814575</ele>
<time>2010-07-17T11:32:14Z</time>
<desc>lat.=55.731285, lon.=26.231506, Alt.=147.814575m. Speed=0.036000m/h.</desc>
<speed>0.010000</speed>
</trkpt>
<trkpt lat="55.731285" lon="26.231506">
<ele>147.798950</ele>
<time>2010-07-17T11:32:15Z</time>
<desc>lat.=55.731285, lon.=26.231506, Alt.=147.798950m. Speed=0.072000m/h.</desc>
<speed>0.020000</speed>
</trkpt>
<trkpt lat="55.731285" lon="26.231506">
<ele>147.795044</ele>
<time>2010-07-17T11:32:16Z</time>
<desc>lat.=55.731285, lon.=26.231506, Alt.=147.795044m. Speed=0.108000m/h.</desc>
<speed>0.030000</speed>
</trkpt>
<trkpt lat="55.731285" lon="26.231506">
<ele>147.791138</ele>
<time>2010-07-17T11:32:17Z</time>
<desc>lat.=55.731285, lon.=26.231506, Alt.=147.791138m. Speed=0.108000m/h.</desc>
<speed>0.030000</speed>
</trkpt>
<trkpt lat="55.731285" lon="26.231506">
<ele>147.783325</ele>
<time>2010-07-17T11:32:18Z</time>
<desc>lat.=55.731285, lon.=26.231506, Alt.=147.783325m. Speed=0.072000m/h.</desc>
<speed>0.020000</speed>
</trkpt>
<trkpt lat="55.731285" lon="26.231506">
<ele>147.775513</ele>
<time>2010-07-17T11:32:19Z</time>
<desc>lat.=55.731285, lon.=26.231506, Alt.=147.775513m. Speed=0.000000m/h.</desc>
<speed>0.000000</speed>
</trkpt>
<trkpt lat="55.731285" lon="26.231506">
<ele>147.771606</ele>
<time>2010-07-17T11:32:20Z</time>
<desc>lat.=55.731285, lon.=26.231506, Alt.=147.771606m. Speed=0.036000m/h.</desc>
<speed>0.010000</speed>
</trkpt>
<trkpt lat="55.731285" lon="26.231506">
<ele>147.767700</ele>
<time>2010-07-17T11:32:21Z</time>
<desc>lat.=55.731285, lon.=26.231506, Alt.=147.767700m. Speed=0.072000m/h.</desc>
<speed>0.020000</speed>
</trkpt>
<trkpt lat="55.731285" lon="26.231506">
<ele>147.771606</ele>
<time>2010-07-17T11:32:22Z</time>
<desc>lat.=55.731285, lon.=26.231506, Alt.=147.771606m. Speed=0.036000m/h.</desc>
<speed>0.010000</speed>
</trkpt>
<trkpt lat="55.731285" lon="26.231504">
<ele>147.775513</ele>
<time>2010-07-17T11:32:23Z</time>
<desc>lat.=55.731285, lon.=26.231504, Alt.=147.775513m. Speed=0.072000m/h.</desc>
<speed>0.020000</speed>
</trkpt>
<trkpt lat="55.731285" lon="26.231504">
<ele>147.783325</ele>
<time>2010-07-17T11:32:24Z</time>
<desc>lat.=55.731285, lon.=26.231504, Alt.=147.783325m. Speed=0.036000m/h.</desc>
<speed>0.010000</speed>
</trkpt>
<trkpt lat="55.731285" lon="26.231504">
<ele>147.795044</ele>
<time>2010-07-17T11:32:25Z</time>
<desc>lat.=55.731285, lon.=26.231504, Alt.=147.795044m. Speed=0.000000m/h.</desc>
<speed>0.000000</speed>
</trkpt>
<trkpt lat="55.731285" lon="26.231504">
<ele>147.798950</ele>
<time>2010-07-17T11:32:26Z</time>
<desc>lat.=55.731285, lon.=26.231504, Alt.=147.798950m. Speed=0.036000m/h.</desc>
<speed>0.010000</speed>
</trkpt>
<trkpt lat="55.731285" lon="26.231506">
<ele>147.795044</ele>
<time>2010-07-17T11:32:27Z</time>
<desc>lat.=55.731285, lon.=26.231506, Alt.=147.795044m. Speed=0.000000m/h.</desc>
<speed>0.000000</speed>
</trkpt>
<trkpt lat="55.731285" lon="26.231504">
<ele>147.798950</ele>
<time>2010-07-17T11:32:28Z</time>
<desc>lat.=55.731285, lon.=26.231504, Alt.=147.798950m. Speed=0.036000m/h.</desc>
<speed>0.010000</speed>
</trkpt>
<trkpt lat="55.731285" lon="26.231504">
<ele>147.798950</ele>
<time>2010-07-17T11:32:29Z</time>
<desc>lat.=55.731285, lon.=26.231504, Alt.=147.798950m. Speed=0.072000m/h.</desc>
<speed>0.020000</speed>
</trkpt>
<trkpt lat="55.731285" lon="26.231504">
<ele>147.806763</ele>
<time>2010-07-17T11:32:30Z</time>
<desc>lat.=55.731285, lon.=26.231504, Alt.=147.806763m. Speed=0.108000m/h.</desc>
<speed>0.030000</speed>
</trkpt>
<trkpt lat="55.731285" lon="26.231504">
<ele>147.818481</ele>
<time>2010-07-17T11:32:31Z</time>
<desc>lat.=55.731285, lon.=26.231504, Alt.=147.818481m. Speed=0.072000m/h.</desc>
<speed>0.020000</speed>
</trkpt>
<trkpt lat="55.731285" lon="26.231504">
<ele>147.822388</ele>
<time>2010-07-17T11:32:32Z</time>
<desc>lat.=55.731285, lon.=26.231504, Alt.=147.822388m. Speed=0.036000m/h.</desc>
<speed>0.010000</speed>
</trkpt>
<trkpt lat="55.731285" lon="26.231506">
<ele>147.818481</ele>
<time>2010-07-17T11:32:33Z</time>
<desc>lat.=55.731285, lon.=26.231506, Alt.=147.818481m. Speed=0.072000m/h.</desc>
<speed>0.020000</speed>
</trkpt>
<trkpt lat="55.731285" lon="26.231506">
<ele>147.818481</ele>
<time>2010-07-17T11:32:34Z</time>
<desc>lat.=55.731285, lon.=26.231506, Alt.=147.818481m. Speed=0.000000m/h.</desc>
<speed>0.000000</speed>
</trkpt>
<trkpt lat="55.731285" lon="26.231506">
<ele>147.806763</ele>
<time>2010-07-17T11:32:35Z</time>
<desc>lat.=55.731285, lon.=26.231506, Alt.=147.806763m. Speed=0.000000m/h.</desc>
<speed>0.000000</speed>
</trkpt>
<trkpt lat="55.731285" lon="26.231506">
<ele>147.795044</ele>
<time>2010-07-17T11:32:36Z</time>
<desc>lat.=55.731285, lon.=26.231506, Alt.=147.795044m. Speed=0.036000m/h.</desc>
<speed>0.010000</speed>
</trkpt>
<trkpt lat="55.731285" lon="26.231506">
<ele>147.787231</ele>
<time>2010-07-17T11:32:37Z</time>
<desc>lat.=55.731285, lon.=26.231506, Alt.=147.787231m. Speed=0.036000m/h.</desc>
<speed>0.010000</speed>
</trkpt>
<trkpt lat="55.731285" lon="26.231506">
<ele>147.783325</ele>
<time>2010-07-17T11:32:38Z</time>
<desc>lat.=55.731285, lon.=26.231506, Alt.=147.783325m. Speed=0.036000m/h.</desc>
<speed>0.010000</speed>
</trkpt>
<trkpt lat="55.731285" lon="26.231504">
<ele>147.775513</ele>
<time>2010-07-17T11:32:39Z</time>
<desc>lat.=55.731285, lon.=26.231504, Alt.=147.775513m. Speed=0.000000m/h.</desc>
<speed>0.000000</speed>
</trkpt>
<trkpt lat="55.731285" lon="26.231504">
<ele>147.775513</ele>
<time>2010-07-17T11:32:40Z</time>
<desc>lat.=55.731285, lon.=26.231504, Alt.=147.775513m. Speed=0.036000m/h.</desc>
<speed>0.010000</speed>
</trkpt>
<trkpt lat="55.731285" lon="26.231504">
<ele>147.767700</ele>
<time>2010-07-17T11:32:41Z</time>
<desc>lat.=55.731285, lon.=26.231504, Alt.=147.767700m. Speed=0.000000m/h.</desc>
<speed>0.000000</speed>
</trkpt>
<trkpt lat="55.731285" lon="26.231504">
<ele>147.759888</ele>
<time>2010-07-17T11:32:42Z</time>
<desc>lat.=55.731285, lon.=26.231504, Alt.=147.759888m. Speed=0.072000m/h.</desc>
<speed>0.020000</speed>
</trkpt>
<trkpt lat="55.731285" lon="26.231504">
<ele>147.759888</ele>
<time>2010-07-17T11:32:43Z</time>
<desc>lat.=55.731285, lon.=26.231504, Alt.=147.759888m. Speed=0.000000m/h.</desc>
<speed>0.000000</speed>
</trkpt>
<trkpt lat="55.731285" lon="26.231504">
<ele>147.755981</ele>
<time>2010-07-17T11:32:44Z</time>
<desc>lat.=55.731285, lon.=26.231504, Alt.=147.755981m. Speed=0.000000m/h.</desc>
<speed>0.000000</speed>
</trkpt>
<trkpt lat="55.731285" lon="26.231504">
<ele>147.755981</ele>
<time>2010-07-17T11:32:45Z</time>
<desc>lat.=55.731285, lon.=26.231504, Alt.=147.755981m. Speed=0.036000m/h.</desc>
<speed>0.010000</speed>
</trkpt>
<trkpt lat="55.731285" lon="26.231504">
<ele>147.752075</ele>
<time>2010-07-17T11:32:46Z</time>
<desc>lat.=55.731285, lon.=26.231504, Alt.=147.752075m. Speed=0.000000m/h.</desc>
<speed>0.000000</speed>
</trkpt>
<trkpt lat="55.731285" lon="26.231504">
<ele>147.755981</ele>
<time>2010-07-17T11:32:47Z</time>
<desc>lat.=55.731285, lon.=26.231504, Alt.=147.755981m. Speed=0.000000m/h.</desc>
<speed>0.000000</speed>
</trkpt>
<trkpt lat="55.731285" lon="26.231504">
<ele>147.755981</ele>
<time>2010-07-17T11:32:48Z</time>
<desc>lat.=55.731285, lon.=26.231504, Alt.=147.755981m. Speed=0.108000m/h.</desc>
<speed>0.030000</speed>
</trkpt>
<trkpt lat="55.731285" lon="26.231504">
<ele>147.759888</ele>
<time>2010-07-17T11:32:49Z</time>
<desc>lat.=55.731285, lon.=26.231504, Alt.=147.759888m. Speed=0.036000m/h.</desc>
<speed>0.010000</speed>
</trkpt>
<trkpt lat="55.731285" lon="26.231504">
<ele>147.752075</ele>
<time>2010-07-17T11:32:50Z</time>
<desc>lat.=55.731285, lon.=26.231504, Alt.=147.752075m. Speed=0.000000m/h.</desc>
<speed>0.000000</speed>
</trkpt>
<trkpt lat="55.731285" lon="26.231504">
<ele>147.759888</ele>
<time>2010-07-17T11:32:51Z</time>
<desc>lat.=55.731285, lon.=26.231504, Alt.=147.759888m. Speed=0.072000m/h.</desc>
<speed>0.020000</speed>
</trkpt>
<trkpt lat="55.731285" lon="26.231504">
<ele>147.755981</ele>
<time>2010-07-17T11:32:52Z</time>
<desc>lat.=55.731285, lon.=26.231504, Alt.=147.755981m. Speed=0.000000m/h.</desc>
<speed>0.000000</speed>
</trkpt>
<trkpt lat="55.731285" lon="26.231504">
<ele>147.755981</ele>
<time>2010-07-17T11:32:53Z</time>
<desc>lat.=55.731285, lon.=26.231504, Alt.=147.755981m. Speed=0.036000m/h.</desc>
<speed>0.010000</speed>
</trkpt>
<trkpt lat="55.731285" lon="26.231504">
<ele>147.755981</ele>
<time>2010-07-17T11:32:54Z</time>
<desc>lat.=55.731285, lon.=26.231504, Alt.=147.755981m. Speed=0.036000m/h.</desc>
<speed>0.010000</speed>
</trkpt>
<trkpt lat="55.731285" lon="26.231504">
<ele>147.748169</ele>
<time>2010-07-17T11:32:55Z</time>
<desc>lat.=55.731285, lon.=26.231504, Alt.=147.748169m. Speed=0.072000m/h.</desc>
<speed>0.020000</speed>
</trkpt>
<trkpt lat="55.731285" lon="26.231504">
<ele>147.748169</ele>
<time>2010-07-17T11:32:56Z</time>
<desc>lat.=55.731285, lon.=26.231504, Alt.=147.748169m. Speed=0.036000m/h.</desc>
<speed>0.010000</speed>
</trkpt>
<trkpt lat="55.731285" lon="26.231504">
<ele>147.744263</ele>
<time>2010-07-17T11:32:57Z</time>
<desc>lat.=55.731285, lon.=26.231504, Alt.=147.744263m. Speed=0.000000m/h.</desc>
<speed>0.000000</speed>
</trkpt>
<trkpt lat="55.731285" lon="26.231504">
<ele>147.740356</ele>
<time>2010-07-17T11:32:58Z</time>
<desc>lat.=55.731285, lon.=26.231504, Alt.=147.740356m. Speed=0.000000m/h.</desc>
<speed>0.000000</speed>
</trkpt>
<trkpt lat="55.731285" lon="26.231504">
<ele>147.732544</ele>
<time>2010-07-17T11:32:59Z</time>
<desc>lat.=55.731285, lon.=26.231504, Alt.=147.732544m. Speed=0.072000m/h.</desc>
<speed>0.020000</speed>
</trkpt>
<trkpt lat="55.731285" lon="26.231504">
<ele>147.724731</ele>
<time>2010-07-17T11:33:00Z</time>
<desc>lat.=55.731285, lon.=26.231504, Alt.=147.724731m. Speed=0.072000m/h.</desc>
<speed>0.020000</speed>
</trkpt>
<trkpt lat="55.731285" lon="26.231504">
<ele>147.713013</ele>
<time>2010-07-17T11:33:01Z</time>
<desc>lat.=55.731285, lon.=26.231504, Alt.=147.713013m. Speed=0.036000m/h.</desc>
<speed>0.010000</speed>
</trkpt>
<trkpt lat="55.731285" lon="26.231504">
<ele>147.701294</ele>
<time>2010-07-17T11:33:02Z</time>
<desc>lat.=55.731285, lon.=26.231504, Alt.=147.701294m. Speed=0.036000m/h.</desc>
<speed>0.010000</speed>
</trkpt>
<trkpt lat="55.731285" lon="26.231504">
<ele>147.689575</ele>
<time>2010-07-17T11:33:03Z</time>
<desc>lat.=55.731285, lon.=26.231504, Alt.=147.689575m. Speed=0.000000m/h.</desc>
<speed>0.000000</speed>
</trkpt>
<trkpt lat="55.731285" lon="26.231504">
<ele>147.681763</ele>
<time>2010-07-17T11:33:04Z</time>
<desc>lat.=55.731285, lon.=26.231504, Alt.=147.681763m. Speed=0.072000m/h.</desc>
<speed>0.020000</speed>
</trkpt>
<trkpt lat="55.731285" lon="26.231504">
<ele>147.673950</ele>
<time>2010-07-17T11:33:05Z</time>
<desc>lat.=55.731285, lon.=26.231504, Alt.=147.673950m. Speed=0.036000m/h.</desc>
<speed>0.010000</speed>
</trkpt>
<trkpt lat="55.731285" lon="26.231504">
<ele>147.658325</ele>
<time>2010-07-17T11:33:06Z</time>
<desc>lat.=55.731285, lon.=26.231504, Alt.=147.658325m. Speed=0.144000m/h.</desc>
<speed>0.040000</speed>
</trkpt>
<trkpt lat="55.731285" lon="26.231504">
<ele>147.650513</ele>
<time>2010-07-17T11:33:07Z</time>
<desc>lat.=55.731285, lon.=26.231504, Alt.=147.650513m. Speed=0.072000m/h.</desc>
<speed>0.020000</speed>
</trkpt>
<trkpt lat="55.731285" lon="26.231504">
<ele>147.642700</ele>
<time>2010-07-17T11:33:08Z</time>
<desc>lat.=55.731285, lon.=26.231504, Alt.=147.642700m. Speed=0.072000m/h.</desc>
<speed>0.020000</speed>
</trkpt>
<trkpt lat="55.731285" lon="26.231504">
<ele>147.630981</ele>
<time>2010-07-17T11:33:09Z</time>
<desc>lat.=55.731285, lon.=26.231504, Alt.=147.630981m. Speed=0.036000m/h.</desc>
<speed>0.010000</speed>
</trkpt>
<trkpt lat="55.731285" lon="26.231504">
<ele>147.619263</ele>
<time>2010-07-17T11:33:10Z</time>
<desc>lat.=55.731285, lon.=26.231504, Alt.=147.619263m. Speed=0.072000m/h.</desc>
<speed>0.020000</speed>
</trkpt>
<trkpt lat="55.731285" lon="26.231504">
<ele>147.611450</ele>
<time>2010-07-17T11:33:11Z</time>
<desc>lat.=55.731285, lon.=26.231504, Alt.=147.611450m. Speed=0.072000m/h.</desc>
<speed>0.020000</speed>
</trkpt>
<trkpt lat="55.731285" lon="26.231503">
<ele>147.599731</ele>
<time>2010-07-17T11:33:12Z</time>
<desc>lat.=55.731285, lon.=26.231503, Alt.=147.599731m. Speed=0.036000m/h.</desc>
<speed>0.010000</speed>
</trkpt>
<trkpt lat="55.731285" lon="26.231503">
<ele>147.591919</ele>
<time>2010-07-17T11:33:13Z</time>
<desc>lat.=55.731285, lon.=26.231503, Alt.=147.591919m. Speed=0.000000m/h.</desc>
<speed>0.000000</speed>
</trkpt>
<trkpt lat="55.731285" lon="26.231503">
<ele>147.584106</ele>
<time>2010-07-17T11:33:14Z</time>
<desc>lat.=55.731285, lon.=26.231503, Alt.=147.584106m. Speed=0.036000m/h.</desc>
<speed>0.010000</speed>
</trkpt>
<trkpt lat="55.731285" lon="26.231503">
<ele>147.576294</ele>
<time>2010-07-17T11:33:15Z</time>
<desc>lat.=55.731285, lon.=26.231503, Alt.=147.576294m. Speed=0.000000m/h.</desc>
<speed>0.000000</speed>
</trkpt>
<trkpt lat="55.731285" lon="26.231503">
<ele>147.572388</ele>
<time>2010-07-17T11:33:16Z</time>
<desc>lat.=55.731285, lon.=26.231503, Alt.=147.572388m. Speed=0.036000m/h.</desc>
<speed>0.010000</speed>
</trkpt>
<trkpt lat="55.731285" lon="26.231503">
<ele>147.572388</ele>
<time>2010-07-17T11:33:17Z</time>
<desc>lat.=55.731285, lon.=26.231503, Alt.=147.572388m. Speed=0.036000m/h.</desc>
<speed>0.010000</speed>
</trkpt>
<trkpt lat="55.731285" lon="26.231503">
<ele>147.564575</ele>
<time>2010-07-17T11:33:18Z</time>
<desc>lat.=55.731285, lon.=26.231503, Alt.=147.564575m. Speed=0.036000m/h.</desc>
<speed>0.010000</speed>
</trkpt>
<trkpt lat="55.731289" lon="26.231503">
<ele>147.560669</ele>
<time>2010-07-17T11:33:19Z</time>
<desc>lat.=55.731289, lon.=26.231503, Alt.=147.560669m. Speed=0.036000m/h.</desc>
<speed>0.010000</speed>
</trkpt>
<trkpt lat="55.731289" lon="26.231503">
<ele>147.564575</ele>
<time>2010-07-17T11:33:20Z</time>
<desc>lat.=55.731289, lon.=26.231503, Alt.=147.564575m. Speed=0.036000m/h.</desc>
<speed>0.010000</speed>
</trkpt>
<trkpt lat="55.731289" lon="26.231503">
<ele>147.564575</ele>
<time>2010-07-17T11:33:21Z</time>
<desc>lat.=55.731289, lon.=26.231503, Alt.=147.564575m. Speed=0.036000m/h.</desc>
<speed>0.010000</speed>
</trkpt>
<trkpt lat="55.731289" lon="26.231503">
<ele>147.560669</ele>
<time>2010-07-17T11:33:22Z</time>
<desc>lat.=55.731289, lon.=26.231503, Alt.=147.560669m. Speed=0.072000m/h.</desc>
<speed>0.020000</speed>
</trkpt>
<trkpt lat="55.731289" lon="26.231503">
<ele>147.556763</ele>
<time>2010-07-17T11:33:23Z</time>
<desc>lat.=55.731289, lon.=26.231503, Alt.=147.556763m. Speed=0.072000m/h.</desc>
<speed>0.020000</speed>
</trkpt>
<trkpt lat="55.731289" lon="26.231503">
<ele>147.560669</ele>
<time>2010-07-17T11:33:24Z</time>
<desc>lat.=55.731289, lon.=26.231503, Alt.=147.560669m. Speed=0.072000m/h.</desc>
<speed>0.020000</speed>
</trkpt>
<trkpt lat="55.731289" lon="26.231503">
<ele>147.560669</ele>
<time>2010-07-17T11:33:25Z</time>
<desc>lat.=55.731289, lon.=26.231503, Alt.=147.560669m. Speed=0.108000m/h.</desc>
<speed>0.030000</speed>
</trkpt>
<trkpt lat="55.731289" lon="26.231503">
<ele>147.560669</ele>
<time>2010-07-17T11:33:26Z</time>
<desc>lat.=55.731289, lon.=26.231503, Alt.=147.560669m. Speed=0.108000m/h.</desc>
<speed>0.030000</speed>
</trkpt>
<trkpt lat="55.731289" lon="26.231503">
<ele>147.556763</ele>
<time>2010-07-17T11:33:27Z</time>
<desc>lat.=55.731289, lon.=26.231503, Alt.=147.556763m. Speed=0.108000m/h.</desc>
<speed>0.030000</speed>
</trkpt>
<trkpt lat="55.731289" lon="26.231503">
<ele>147.556763</ele>
<time>2010-07-17T11:33:28Z</time>
<desc>lat.=55.731289, lon.=26.231503, Alt.=147.556763m. Speed=0.108000m/h.</desc>
<speed>0.030000</speed>
</trkpt>
<trkpt lat="55.731289" lon="26.231503">
<ele>147.560669</ele>
<time>2010-07-17T11:33:29Z</time>
<desc>lat.=55.731289, lon.=26.231503, Alt.=147.560669m. Speed=0.180000m/h.</desc>
<speed>0.050000</speed>
</trkpt>
<trkpt lat="55.731289" lon="26.231503">
<ele>147.564575</ele>
<time>2010-07-17T11:33:30Z</time>
<desc>lat.=55.731289, lon.=26.231503, Alt.=147.564575m. Speed=0.180000m/h.</desc>
<speed>0.050000</speed>
</trkpt>
<trkpt lat="55.731289" lon="26.231503">
<ele>147.564575</ele>
<time>2010-07-17T11:33:31Z</time>
<desc>lat.=55.731289, lon.=26.231503, Alt.=147.564575m. Speed=0.072000m/h.</desc>
<speed>0.020000</speed>
</trkpt>
<trkpt lat="55.731289" lon="26.231503">
<ele>147.572388</ele>
<time>2010-07-17T11:33:32Z</time>
<desc>lat.=55.731289, lon.=26.231503, Alt.=147.572388m. Speed=0.180000m/h.</desc>
<speed>0.050000</speed>
</trkpt>
<trkpt lat="55.731289" lon="26.231503">
<ele>147.572388</ele>
<time>2010-07-17T11:33:33Z</time>
<desc>lat.=55.731289, lon.=26.231503, Alt.=147.572388m. Speed=0.180000m/h.</desc>
<speed>0.050000</speed>
</trkpt>
<trkpt lat="55.731289" lon="26.231503">
<ele>147.572388</ele>
<time>2010-07-17T11:33:34Z</time>
<desc>lat.=55.731289, lon.=26.231503, Alt.=147.572388m. Speed=0.144000m/h.</desc>
<speed>0.040000</speed>
</trkpt>
<trkpt lat="55.731289" lon="26.231503">
<ele>147.572388</ele>
<time>2010-07-17T11:33:35Z</time>
<desc>lat.=55.731289, lon.=26.231503, Alt.=147.572388m. Speed=0.180000m/h.</desc>
<speed>0.050000</speed>
</trkpt>
<trkpt lat="55.731289" lon="26.231503">
<ele>147.572388</ele>
<time>2010-07-17T11:33:36Z</time>
<desc>lat.=55.731289, lon.=26.231503, Alt.=147.572388m. Speed=0.144000m/h.</desc>
<speed>0.040000</speed>
</trkpt>
<trkpt lat="55.731289" lon="26.231503">
<ele>147.572388</ele>
<time>2010-07-17T11:33:37Z</time>
<desc>lat.=55.731289, lon.=26.231503, Alt.=147.572388m. Speed=0.108000m/h.</desc>
<speed>0.030000</speed>
</trkpt>
<trkpt lat="55.731289" lon="26.231503">
<ele>147.564575</ele>
<time>2010-07-17T11:33:38Z</time>
<desc>lat.=55.731289, lon.=26.231503, Alt.=147.564575m. Speed=0.180000m/h.</desc>
<speed>0.050000</speed>
</trkpt>
<trkpt lat="55.731289" lon="26.231503">
<ele>147.556763</ele>
<time>2010-07-17T11:33:39Z</time>
<desc>lat.=55.731289, lon.=26.231503, Alt.=147.556763m. Speed=0.144000m/h.</desc>
<speed>0.040000</speed>
</trkpt>
<trkpt lat="55.731289" lon="26.231503">
<ele>147.552856</ele>
<time>2010-07-17T11:33:40Z</time>
<desc>lat.=55.731289, lon.=26.231503, Alt.=147.552856m. Speed=0.144000m/h.</desc>
<speed>0.040000</speed>
</trkpt>
<trkpt lat="55.731289" lon="26.231503">
<ele>147.545044</ele>
<time>2010-07-17T11:33:41Z</time>
<desc>lat.=55.731289, lon.=26.231503, Alt.=147.545044m. Speed=0.180000m/h.</desc>
<speed>0.050000</speed>
</trkpt>
<trkpt lat="55.731289" lon="26.231503">
<ele>147.541138</ele>
<time>2010-07-17T11:33:42Z</time>
<desc>lat.=55.731289, lon.=26.231503, Alt.=147.541138m. Speed=0.144000m/h.</desc>
<speed>0.040000</speed>
</trkpt>
<trkpt lat="55.731293" lon="26.231503">
<ele>147.537231</ele>
<time>2010-07-17T11:33:43Z</time>
<desc>lat.=55.731293, lon.=26.231503, Alt.=147.537231m. Speed=0.108000m/h.</desc>
<speed>0.030000</speed>
</trkpt>
<trkpt lat="55.731293" lon="26.231503">
<ele>147.537231</ele>
<time>2010-07-17T11:33:44Z</time>
<desc>lat.=55.731293, lon.=26.231503, Alt.=147.537231m. Speed=0.072000m/h.</desc>
<speed>0.020000</speed>
</trkpt>
<trkpt lat="55.731293" lon="26.231503">
<ele>147.533325</ele>
<time>2010-07-17T11:33:45Z</time>
<desc>lat.=55.731293, lon.=26.231503, Alt.=147.533325m. Speed=0.072000m/h.</desc>
<speed>0.020000</speed>
</trkpt>
<trkpt lat="55.731293" lon="26.231503">
<ele>147.529419</ele>
<time>2010-07-17T11:33:46Z</time>
<desc>lat.=55.731293, lon.=26.231503, Alt.=147.529419m. Speed=0.036000m/h.</desc>
<speed>0.010000</speed>
</trkpt>
<trkpt lat="55.731293" lon="26.231503">
<ele>147.517700</ele>
<time>2010-07-17T11:33:47Z</time>
<desc>lat.=55.731293, lon.=26.231503, Alt.=147.517700m. Speed=0.036000m/h.</desc>
<speed>0.010000</speed>
</trkpt>
<trkpt lat="55.731293" lon="26.231503">
<ele>147.517700</ele>
<time>2010-07-17T11:33:48Z</time>
<desc>lat.=55.731293, lon.=26.231503, Alt.=147.517700m. Speed=0.144000m/h.</desc>
<speed>0.040000</speed>
</trkpt>
<trkpt lat="55.731293" lon="26.231503">
<ele>147.517700</ele>
<time>2010-07-17T11:33:49Z</time>
<desc>lat.=55.731293, lon.=26.231503, Alt.=147.517700m. Speed=0.216000m/h.</desc>
<speed>0.060000</speed>
</trkpt>
<trkpt lat="55.731293" lon="26.231503">
<ele>147.517700</ele>
<time>2010-07-17T11:33:50Z</time>
<desc>lat.=55.731293, lon.=26.231503, Alt.=147.517700m. Speed=0.036000m/h.</desc>
<speed>0.010000</speed>
</trkpt>
<trkpt lat="55.731293" lon="26.231503">
<ele>147.509888</ele>
<time>2010-07-17T11:33:51Z</time>
<desc>lat.=55.731293, lon.=26.231503, Alt.=147.509888m. Speed=0.144000m/h.</desc>
<speed>0.040000</speed>
</trkpt>
<trkpt lat="55.731293" lon="26.231503">
<ele>147.509888</ele>
<time>2010-07-17T11:33:52Z</time>
<desc>lat.=55.731293, lon.=26.231503, Alt.=147.509888m. Speed=0.144000m/h.</desc>
<speed>0.040000</speed>
</trkpt>
<trkpt lat="55.731293" lon="26.231503">
<ele>147.505981</ele>
<time>2010-07-17T11:33:53Z</time>
<desc>lat.=55.731293, lon.=26.231503, Alt.=147.505981m. Speed=0.144000m/h.</desc>
<speed>0.040000</speed>
</trkpt>
<trkpt lat="55.731293" lon="26.231503">
<ele>147.498169</ele>
<time>2010-07-17T11:33:54Z</time>
<desc>lat.=55.731293, lon.=26.231503, Alt.=147.498169m. Speed=0.144000m/h.</desc>
<speed>0.040000</speed>
</trkpt>
<trkpt lat="55.731293" lon="26.231503">
<ele>147.498169</ele>
<time>2010-07-17T11:33:55Z</time>
<desc>lat.=55.731293, lon.=26.231503, Alt.=147.498169m. Speed=0.180000m/h.</desc>
<speed>0.050000</speed>
</trkpt>
<trkpt lat="55.731293" lon="26.231503">
<ele>147.498169</ele>
<time>2010-07-17T11:33:56Z</time>
<desc>lat.=55.731293, lon.=26.231503, Alt.=147.498169m. Speed=0.180000m/h.</desc>
<speed>0.050000</speed>
</trkpt>
<trkpt lat="55.731293" lon="26.231503">
<ele>147.494263</ele>
<time>2010-07-17T11:33:57Z</time>
<desc>lat.=55.731293, lon.=26.231503, Alt.=147.494263m. Speed=0.072000m/h.</desc>
<speed>0.020000</speed>
</trkpt>
<trkpt lat="55.731293" lon="26.231503">
<ele>147.486450</ele>
<time>2010-07-17T11:33:58Z</time>
<desc>lat.=55.731293, lon.=26.231503, Alt.=147.486450m. Speed=0.036000m/h.</desc>
<speed>0.010000</speed>
</trkpt>
<trkpt lat="55.731293" lon="26.231503">
<ele>147.482544</ele>
<time>2010-07-17T11:33:59Z</time>
<desc>lat.=55.731293, lon.=26.231503, Alt.=147.482544m. Speed=0.036000m/h.</desc>
<speed>0.010000</speed>
</trkpt>
<trkpt lat="55.731293" lon="26.231503">
<ele>147.482544</ele>
<time>2010-07-17T11:34:00Z</time>
<desc>lat.=55.731293, lon.=26.231503, Alt.=147.482544m. Speed=0.000000m/h.</desc>
<speed>0.000000</speed>
</trkpt>
<trkpt lat="55.731293" lon="26.231503">
<ele>147.482544</ele>
<time>2010-07-17T11:34:01Z</time>
<desc>lat.=55.731293, lon.=26.231503, Alt.=147.482544m. Speed=0.036000m/h.</desc>
<speed>0.010000</speed>
</trkpt>
<trkpt lat="55.731293" lon="26.231501">
<ele>147.478638</ele>
<time>2010-07-17T11:34:02Z</time>
<desc>lat.=55.731293, lon.=26.231501, Alt.=147.478638m. Speed=0.072000m/h.</desc>
<speed>0.020000</speed>
</trkpt>
<trkpt lat="55.731293" lon="26.231501">
<ele>147.466919</ele>
<time>2010-07-17T11:34:03Z</time>
<desc>lat.=55.731293, lon.=26.231501, Alt.=147.466919m. Speed=0.000000m/h.</desc>
<speed>0.000000</speed>
</trkpt>
<trkpt lat="55.731293" lon="26.231501">
<ele>147.466919</ele>
<time>2010-07-17T11:34:04Z</time>
<desc>lat.=55.731293, lon.=26.231501, Alt.=147.466919m. Speed=0.000000m/h.</desc>
<speed>0.000000</speed>
</trkpt>
<trkpt lat="55.731293" lon="26.231501">
<ele>147.466919</ele>
<time>2010-07-17T11:34:05Z</time>
<desc>lat.=55.731293, lon.=26.231501, Alt.=147.466919m. Speed=0.036000m/h.</desc>
<speed>0.010000</speed>
</trkpt>
<trkpt lat="55.731293" lon="26.231501">
<ele>147.466919</ele>
<time>2010-07-17T11:34:06Z</time>
<desc>lat.=55.731293, lon.=26.231501, Alt.=147.466919m. Speed=0.000000m/h.</desc>
<speed>0.000000</speed>
</trkpt>
<trkpt lat="55.731293" lon="26.231501">
<ele>147.466919</ele>
<time>2010-07-17T11:34:07Z</time>
<desc>lat.=55.731293, lon.=26.231501, Alt.=147.466919m. Speed=0.000000m/h.</desc>
<speed>0.000000</speed>
</trkpt>
<trkpt lat="55.731297" lon="26.231501">
<ele>147.463013</ele>
<time>2010-07-17T11:34:08Z</time>
<desc>lat.=55.731297, lon.=26.231501, Alt.=147.463013m. Speed=0.000000m/h.</desc>
<speed>0.000000</speed>
</trkpt>
<trkpt lat="55.731297" lon="26.231501">
<ele>147.463013</ele>
<time>2010-07-17T11:34:09Z</time>
<desc>lat.=55.731297, lon.=26.231501, Alt.=147.463013m. Speed=0.000000m/h.</desc>
<speed>0.000000</speed>
</trkpt>
<trkpt lat="55.731297" lon="26.231501">
<ele>147.463013</ele>
<time>2010-07-17T11:34:10Z</time>
<desc>lat.=55.731297, lon.=26.231501, Alt.=147.463013m. Speed=0.000000m/h.</desc>
<speed>0.000000</speed>
</trkpt>
<trkpt lat="55.731297" lon="26.231501">
<ele>147.455200</ele>
<time>2010-07-17T11:34:11Z</time>
<desc>lat.=55.731297, lon.=26.231501, Alt.=147.455200m. Speed=0.036000m/h.</desc>
<speed>0.010000</speed>
</trkpt>
<trkpt lat="55.731297" lon="26.231501">
<ele>147.455200</ele>
<time>2010-07-17T11:34:12Z</time>
<desc>lat.=55.731297, lon.=26.231501, Alt.=147.455200m. Speed=0.000000m/h.</desc>
<speed>0.000000</speed>
</trkpt>
<trkpt lat="55.731297" lon="26.231501">
<ele>147.447388</ele>
<time>2010-07-17T11:34:13Z</time>
<desc>lat.=55.731297, lon.=26.231501, Alt.=147.447388m. Speed=0.000000m/h.</desc>
<speed>0.000000</speed>
</trkpt>
<trkpt lat="55.731297" lon="26.231501">
<ele>147.443481</ele>
<time>2010-07-17T11:34:14Z</time>
<desc>lat.=55.731297, lon.=26.231501, Alt.=147.443481m. Speed=0.000000m/h.</desc>
<speed>0.000000</speed>
</trkpt>
<trkpt lat="55.731297" lon="26.231501">
<ele>147.439575</ele>
<time>2010-07-17T11:34:15Z</time>
<desc>lat.=55.731297, lon.=26.231501, Alt.=147.439575m. Speed=0.036000m/h.</desc>
<speed>0.010000</speed>
</trkpt>
<trkpt lat="55.731297" lon="26.231501">
<ele>147.431763</ele>
<time>2010-07-17T11:34:16Z</time>
<desc>lat.=55.731297, lon.=26.231501, Alt.=147.431763m. Speed=0.000000m/h.</desc>
<speed>0.000000</speed>
</trkpt>
<trkpt lat="55.731297" lon="26.231501">
<ele>147.431763</ele>
<time>2010-07-17T11:34:17Z</time>
<desc>lat.=55.731297, lon.=26.231501, Alt.=147.431763m. Speed=0.036000m/h.</desc>
<speed>0.010000</speed>
</trkpt>
<trkpt lat="55.731297" lon="26.231501">
<ele>147.423950</ele>
<time>2010-07-17T11:34:18Z</time>
<desc>lat.=55.731297, lon.=26.231501, Alt.=147.423950m. Speed=0.000000m/h.</desc>
<speed>0.000000</speed>
</trkpt>
<trkpt lat="55.731297" lon="26.231501">
<ele>147.420044</ele>
<time>2010-07-17T11:34:19Z</time>
<desc>lat.=55.731297, lon.=26.231501, Alt.=147.420044m. Speed=0.000000m/h.</desc>
<speed>0.000000</speed>
</trkpt>
<trkpt lat="55.731297" lon="26.231501">
<ele>147.416138</ele>
<time>2010-07-17T11:34:20Z</time>
<desc>lat.=55.731297, lon.=26.231501, Alt.=147.416138m. Speed=0.000000m/h.</desc>
<speed>0.000000</speed>
</trkpt>
<trkpt lat="55.731297" lon="26.231501">
<ele>147.412231</ele>
<time>2010-07-17T11:34:21Z</time>
<desc>lat.=55.731297, lon.=26.231501, Alt.=147.412231m. Speed=0.000000m/h.</desc>
<speed>0.000000</speed>
</trkpt>
<trkpt lat="55.731297" lon="26.231501">
<ele>147.404419</ele>
<time>2010-07-17T11:34:22Z</time>
<desc>lat.=55.731297, lon.=26.231501, Alt.=147.404419m. Speed=0.000000m/h.</desc>
<speed>0.000000</speed>
</trkpt>
<trkpt lat="55.731297" lon="26.231501">
<ele>147.400513</ele>
<time>2010-07-17T11:34:23Z</time>
<desc>lat.=55.731297, lon.=26.231501, Alt.=147.400513m. Speed=0.036000m/h.</desc>
<speed>0.010000</speed>
</trkpt>
<trkpt lat="55.731297" lon="26.231501">
<ele>147.396606</ele>
<time>2010-07-17T11:34:24Z</time>
<desc>lat.=55.731297, lon.=26.231501, Alt.=147.396606m. Speed=0.000000m/h.</desc>
<speed>0.000000</speed>
</trkpt>
<trkpt lat="55.731297" lon="26.231501">
<ele>147.388794</ele>
<time>2010-07-17T11:34:25Z</time>
<desc>lat.=55.731297, lon.=26.231501, Alt.=147.388794m. Speed=0.000000m/h.</desc>
<speed>0.000000</speed>
</trkpt>
<trkpt lat="55.731297" lon="26.231501">
<ele>147.388794</ele>
<time>2010-07-17T11:34:26Z</time>
<desc>lat.=55.731297, lon.=26.231501, Alt.=147.388794m. Speed=0.036000m/h.</desc>
<speed>0.010000</speed>
</trkpt>
<trkpt lat="55.731297" lon="26.231501">
<ele>147.384888</ele>
<time>2010-07-17T11:34:27Z</time>
<desc>lat.=55.731297, lon.=26.231501, Alt.=147.384888m. Speed=0.000000m/h.</desc>
<speed>0.000000</speed>
</trkpt>
<trkpt lat="55.731297" lon="26.231501">
<ele>147.384888</ele>
<time>2010-07-17T11:34:28Z</time>
<desc>lat.=55.731297, lon.=26.231501, Alt.=147.384888m. Speed=0.000000m/h.</desc>
<speed>0.000000</speed>
</trkpt>
<trkpt lat="55.731297" lon="26.231501">
<ele>147.380981</ele>
<time>2010-07-17T11:34:29Z</time>
<desc>lat.=55.731297, lon.=26.231501, Alt.=147.380981m. Speed=0.036000m/h.</desc>
<speed>0.010000</speed>
</trkpt>
<trkpt lat="55.731297" lon="26.231501">
<ele>147.377075</ele>
<time>2010-07-17T11:34:30Z</time>
<desc>lat.=55.731297, lon.=26.231501, Alt.=147.377075m. Speed=0.036000m/h.</desc>
<speed>0.010000</speed>
</trkpt>
<trkpt lat="55.731297" lon="26.231501">
<ele>147.377075</ele>
<time>2010-07-17T11:34:31Z</time>
<desc>lat.=55.731297, lon.=26.231501, Alt.=147.377075m. Speed=0.000000m/h.</desc>
<speed>0.000000</speed>
</trkpt>
<trkpt lat="55.731297" lon="26.231501">
<ele>147.373169</ele>
<time>2010-07-17T11:34:32Z</time>
<desc>lat.=55.731297, lon.=26.231501, Alt.=147.373169m. Speed=0.000000m/h.</desc>
<speed>0.000000</speed>
</trkpt>
<trkpt lat="55.731297" lon="26.231501">
<ele>147.369263</ele>
<time>2010-07-17T11:34:33Z</time>
<desc>lat.=55.731297, lon.=26.231501, Alt.=147.369263m. Speed=0.072000m/h.</desc>
<speed>0.020000</speed>
</trkpt>
<trkpt lat="55.731297" lon="26.231501">
<ele>147.361450</ele>
<time>2010-07-17T11:34:34Z</time>
<desc>lat.=55.731297, lon.=26.231501, Alt.=147.361450m. Speed=0.000000m/h.</desc>
<speed>0.000000</speed>
</trkpt>
<trkpt lat="55.731297" lon="26.231501">
<ele>147.361450</ele>
<time>2010-07-17T11:34:35Z</time>
<desc>lat.=55.731297, lon.=26.231501, Alt.=147.361450m. Speed=0.036000m/h.</desc>
<speed>0.010000</speed>
</trkpt>
<trkpt lat="55.731297" lon="26.231501">
<ele>147.357544</ele>
<time>2010-07-17T11:34:36Z</time>
<desc>lat.=55.731297, lon.=26.231501, Alt.=147.357544m. Speed=0.000000m/h.</desc>
<speed>0.000000</speed>
</trkpt>
<trkpt lat="55.731297" lon="26.231501">
<ele>147.349731</ele>
<time>2010-07-17T11:34:37Z</time>
<desc>lat.=55.731297, lon.=26.231501, Alt.=147.349731m. Speed=0.072000m/h.</desc>
<speed>0.020000</speed>
</trkpt>
<trkpt lat="55.731297" lon="26.231501">
<ele>147.345825</ele>
<time>2010-07-17T11:34:38Z</time>
<desc>lat.=55.731297, lon.=26.231501, Alt.=147.345825m. Speed=0.072000m/h.</desc>
<speed>0.020000</speed>
</trkpt>
<trkpt lat="55.731297" lon="26.231501">
<ele>147.341919</ele>
<time>2010-07-17T11:34:39Z</time>
<desc>lat.=55.731297, lon.=26.231501, Alt.=147.341919m. Speed=0.072000m/h.</desc>
<speed>0.020000</speed>
</trkpt>
<trkpt lat="55.731297" lon="26.231501">
<ele>147.338013</ele>
<time>2010-07-17T11:34:40Z</time>
<desc>lat.=55.731297, lon.=26.231501, Alt.=147.338013m. Speed=0.036000m/h.</desc>
<speed>0.010000</speed>
</trkpt>
<trkpt lat="55.731297" lon="26.231501">
<ele>147.326294</ele>
<time>2010-07-17T11:34:41Z</time>
<desc>lat.=55.731297, lon.=26.231501, Alt.=147.326294m. Speed=0.144000m/h.</desc>
<speed>0.040000</speed>
</trkpt>
<trkpt lat="55.731297" lon="26.231501">
<ele>147.326294</ele>
<time>2010-07-17T11:34:42Z</time>
<desc>lat.=55.731297, lon.=26.231501, Alt.=147.326294m. Speed=0.072000m/h.</desc>
<speed>0.020000</speed>
</trkpt>
<trkpt lat="55.731297" lon="26.231499">
<ele>147.318481</ele>
<time>2010-07-17T11:34:43Z</time>
<desc>lat.=55.731297, lon.=26.231499, Alt.=147.318481m. Speed=0.072000m/h.</desc>
<speed>0.020000</speed>
</trkpt>
<trkpt lat="55.731297" lon="26.231499">
<ele>147.310669</ele>
<time>2010-07-17T11:34:44Z</time>
<desc>lat.=55.731297, lon.=26.231499, Alt.=147.310669m. Speed=0.072000m/h.</desc>
<speed>0.020000</speed>
</trkpt>
<trkpt lat="55.731297" lon="26.231499">
<ele>147.310669</ele>
<time>2010-07-17T11:34:45Z</time>
<desc>lat.=55.731297, lon.=26.231499, Alt.=147.310669m. Speed=0.000000m/h.</desc>
<speed>0.000000</speed>
</trkpt>
<trkpt lat="55.731297" lon="26.231499">
<ele>147.310669</ele>
<time>2010-07-17T11:34:46Z</time>
<desc>lat.=55.731297, lon.=26.231499, Alt.=147.310669m. Speed=0.000000m/h.</desc>
<speed>0.000000</speed>
</trkpt>
<trkpt lat="55.731297" lon="26.231499">
<ele>147.306763</ele>
<time>2010-07-17T11:34:47Z</time>
<desc>lat.=55.731297, lon.=26.231499, Alt.=147.306763m. Speed=0.036000m/h.</desc>
<speed>0.010000</speed>
</trkpt>
<trkpt lat="55.731297" lon="26.231499">
<ele>147.302856</ele>
<time>2010-07-17T11:34:48Z</time>
<desc>lat.=55.731297, lon.=26.231499, Alt.=147.302856m. Speed=0.000000m/h.</desc>
<speed>0.000000</speed>
</trkpt>
<trkpt lat="55.731297" lon="26.231499">
<ele>147.302856</ele>
<time>2010-07-17T11:34:49Z</time>
<desc>lat.=55.731297, lon.=26.231499, Alt.=147.302856m. Speed=0.000000m/h.</desc>
<speed>0.000000</speed>
</trkpt>
<trkpt lat="55.731297" lon="26.231499">
<ele>147.298950</ele>
<time>2010-07-17T11:34:50Z</time>
<desc>lat.=55.731297, lon.=26.231499, Alt.=147.298950m. Speed=0.000000m/h.</desc>
<speed>0.000000</speed>
</trkpt>
<trkpt lat="55.731297" lon="26.231499">
<ele>147.298950</ele>
<time>2010-07-17T11:34:51Z</time>
<desc>lat.=55.731297, lon.=26.231499, Alt.=147.298950m. Speed=0.000000m/h.</desc>
<speed>0.000000</speed>
</trkpt>
<trkpt lat="55.731297" lon="26.231499">
<ele>147.298950</ele>
<time>2010-07-17T11:34:52Z</time>
<desc>lat.=55.731297, lon.=26.231499, Alt.=147.298950m. Speed=0.000000m/h.</desc>
<speed>0.000000</speed>
</trkpt>
<trkpt lat="55.731297" lon="26.231499">
<ele>147.298950</ele>
<time>2010-07-17T11:34:53Z</time>
<desc>lat.=55.731297, lon.=26.231499, Alt.=147.298950m. Speed=0.000000m/h.</desc>
<speed>0.000000</speed>
</trkpt>
<trkpt lat="55.731297" lon="26.231499">
<ele>147.295044</ele>
<time>2010-07-17T11:34:54Z</time>
<desc>lat.=55.731297, lon.=26.231499, Alt.=147.295044m. Speed=0.000000m/h.</desc>
<speed>0.000000</speed>
</trkpt>
<trkpt lat="55.731297" lon="26.231499">
<ele>147.298950</ele>
<time>2010-07-17T11:34:55Z</time>
<desc>lat.=55.731297, lon.=26.231499, Alt.=147.298950m. Speed=0.036000m/h.</desc>
<speed>0.010000</speed>
</trkpt>
<trkpt lat="55.731297" lon="26.231499">
<ele>147.302856</ele>
<time>2010-07-17T11:34:56Z</time>
<desc>lat.=55.731297, lon.=26.231499, Alt.=147.302856m. Speed=0.072000m/h.</desc>
<speed>0.020000</speed>
</trkpt>
<trkpt lat="55.731297" lon="26.231499">
<ele>147.302856</ele>
<time>2010-07-17T11:34:57Z</time>
<desc>lat.=55.731297, lon.=26.231499, Alt.=147.302856m. Speed=0.036000m/h.</desc>
<speed>0.010000</speed>
</trkpt>
<trkpt lat="55.731297" lon="26.231499">
<ele>147.306763</ele>
<time>2010-07-17T11:34:58Z</time>
<desc>lat.=55.731297, lon.=26.231499, Alt.=147.306763m. Speed=0.000000m/h.</desc>
<speed>0.000000</speed>
</trkpt>
<trkpt lat="55.731297" lon="26.231499">
<ele>147.310669</ele>
<time>2010-07-17T11:34:59Z</time>
<desc>lat.=55.731297, lon.=26.231499, Alt.=147.310669m. Speed=0.000000m/h.</desc>
<speed>0.000000</speed>
</trkpt>
<trkpt lat="55.731297" lon="26.231499">
<ele>147.310669</ele>
<time>2010-07-17T11:35:00Z</time>
<desc>lat.=55.731297, lon.=26.231499, Alt.=147.310669m. Speed=0.036000m/h.</desc>
<speed>0.010000</speed>
</trkpt>
<trkpt lat="55.731297" lon="26.231499">
<ele>147.310669</ele>
<time>2010-07-17T11:35:01Z</time>
<desc>lat.=55.731297, lon.=26.231499, Alt.=147.310669m. Speed=0.036000m/h.</desc>
<speed>0.010000</speed>
</trkpt>
<trkpt lat="55.731297" lon="26.231499">
<ele>147.310669</ele>
<time>2010-07-17T11:35:02Z</time>
<desc>lat.=55.731297, lon.=26.231499, Alt.=147.310669m. Speed=0.072000m/h.</desc>
<speed>0.020000</speed>
</trkpt>
<trkpt lat="55.731297" lon="26.231499">
<ele>147.314575</ele>
<time>2010-07-17T11:35:03Z</time>
<desc>lat.=55.731297, lon.=26.231499, Alt.=147.314575m. Speed=0.144000m/h.</desc>
<speed>0.040000</speed>
</trkpt>
<trkpt lat="55.731297" lon="26.231501">
<ele>147.318481</ele>
<time>2010-07-17T11:35:04Z</time>
<desc>lat.=55.731297, lon.=26.231501, Alt.=147.318481m. Speed=0.036000m/h.</desc>
<speed>0.010000</speed>
</trkpt>
<trkpt lat="55.731297" lon="26.231501">
<ele>147.326294</ele>
<time>2010-07-17T11:35:05Z</time>
<desc>lat.=55.731297, lon.=26.231501, Alt.=147.326294m. Speed=0.036000m/h.</desc>
<speed>0.010000</speed>
</trkpt>
<trkpt lat="55.731297" lon="26.231501">
<ele>147.330200</ele>
<time>2010-07-17T11:35:06Z</time>
<desc>lat.=55.731297, lon.=26.231501, Alt.=147.330200m. Speed=0.180000m/h.</desc>
<speed>0.050000</speed>
</trkpt>
<trkpt lat="55.731300" lon="26.231501">
<ele>147.338013</ele>
<time>2010-07-17T11:35:07Z</time>
<desc>lat.=55.731300, lon.=26.231501, Alt.=147.338013m. Speed=0.180000m/h.</desc>
<speed>0.050000</speed>
</trkpt>
<trkpt lat="55.731300" lon="26.231501">
<ele>147.341919</ele>
<time>2010-07-17T11:35:08Z</time>
<desc>lat.=55.731300, lon.=26.231501, Alt.=147.341919m. Speed=0.144000m/h.</desc>
<speed>0.040000</speed>
</trkpt>
<trkpt lat="55.731300" lon="26.231501">
<ele>147.345825</ele>
<time>2010-07-17T11:35:09Z</time>
<desc>lat.=55.731300, lon.=26.231501, Alt.=147.345825m. Speed=0.144000m/h.</desc>
<speed>0.040000</speed>
</trkpt>
<trkpt lat="55.731300" lon="26.231501">
<ele>147.345825</ele>
<time>2010-07-17T11:35:10Z</time>
<desc>lat.=55.731300, lon.=26.231501, Alt.=147.345825m. Speed=0.036000m/h.</desc>
<speed>0.010000</speed>
</trkpt>
<trkpt lat="55.731300" lon="26.231501">
<ele>147.345825</ele>
<time>2010-07-17T11:35:11Z</time>
<desc>lat.=55.731300, lon.=26.231501, Alt.=147.345825m. Speed=0.036000m/h.</desc>
<speed>0.010000</speed>
</trkpt>
<trkpt lat="55.731300" lon="26.231501">
<ele>147.345825</ele>
<time>2010-07-17T11:35:12Z</time>
<desc>lat.=55.731300, lon.=26.231501, Alt.=147.345825m. Speed=0.108000m/h.</desc>
<speed>0.030000</speed>
</trkpt>
<trkpt lat="55.731300" lon="26.231501">
<ele>147.345825</ele>
<time>2010-07-17T11:35:13Z</time>
<desc>lat.=55.731300, lon.=26.231501, Alt.=147.345825m. Speed=0.000000m/h.</desc>
<speed>0.000000</speed>
</trkpt>
<trkpt lat="55.731300" lon="26.231501">
<ele>147.349731</ele>
<time>2010-07-17T11:35:14Z</time>
<desc>lat.=55.731300, lon.=26.231501, Alt.=147.349731m. Speed=0.036000m/h.</desc>
<speed>0.010000</speed>
</trkpt>
<trkpt lat="55.731300" lon="26.231501">
<ele>147.349731</ele>
<time>2010-07-17T11:35:15Z</time>
<desc>lat.=55.731300, lon.=26.231501, Alt.=147.349731m. Speed=0.000000m/h.</desc>
<speed>0.000000</speed>
</trkpt>
<trkpt lat="55.731300" lon="26.231501">
<ele>147.349731</ele>
<time>2010-07-17T11:35:16Z</time>
<desc>lat.=55.731300, lon.=26.231501, Alt.=147.349731m. Speed=0.000000m/h.</desc>
<speed>0.000000</speed>
</trkpt>
<trkpt lat="55.731300" lon="26.231501">
<ele>147.357544</ele>
<time>2010-07-17T11:35:17Z</time>
<desc>lat.=55.731300, lon.=26.231501, Alt.=147.357544m. Speed=0.036000m/h.</desc>
<speed>0.010000</speed>
</trkpt>
<trkpt lat="55.731300" lon="26.231501">
<ele>147.361450</ele>
<time>2010-07-17T11:35:18Z</time>
<desc>lat.=55.731300, lon.=26.231501, Alt.=147.361450m. Speed=0.072000m/h.</desc>
<speed>0.020000</speed>
</trkpt>
<trkpt lat="55.731300" lon="26.231501">
<ele>147.357544</ele>
<time>2010-07-17T11:35:19Z</time>
<desc>lat.=55.731300, lon.=26.231501, Alt.=147.357544m. Speed=0.000000m/h.</desc>
<speed>0.000000</speed>
</trkpt>
<trkpt lat="55.731300" lon="26.231501">
<ele>147.361450</ele>
<time>2010-07-17T11:35:20Z</time>
<desc>lat.=55.731300, lon.=26.231501, Alt.=147.361450m. Speed=0.000000m/h.</desc>
<speed>0.000000</speed>
</trkpt>
<trkpt lat="55.731300" lon="26.231501">
<ele>147.361450</ele>
<time>2010-07-17T11:35:21Z</time>
<desc>lat.=55.731300, lon.=26.231501, Alt.=147.361450m. Speed=0.000000m/h.</desc>
<speed>0.000000</speed>
</trkpt>
<trkpt lat="55.731300" lon="26.231501">
<ele>147.365356</ele>
<time>2010-07-17T11:35:22Z</time>
<desc>lat.=55.731300, lon.=26.231501, Alt.=147.365356m. Speed=0.000000m/h.</desc>
<speed>0.000000</speed>
</trkpt>
<trkpt lat="55.731300" lon="26.231501">
<ele>147.365356</ele>
<time>2010-07-17T11:35:23Z</time>
<desc>lat.=55.731300, lon.=26.231501, Alt.=147.365356m. Speed=0.108000m/h.</desc>
<speed>0.030000</speed>
</trkpt>
<trkpt lat="55.731300" lon="26.231501">
<ele>147.365356</ele>
<time>2010-07-17T11:35:24Z</time>
<desc>lat.=55.731300, lon.=26.231501, Alt.=147.365356m. Speed=0.108000m/h.</desc>
<speed>0.030000</speed>
</trkpt>
<trkpt lat="55.731300" lon="26.231501">
<ele>147.361450</ele>
<time>2010-07-17T11:35:25Z</time>
<desc>lat.=55.731300, lon.=26.231501, Alt.=147.361450m. Speed=0.036000m/h.</desc>
<speed>0.010000</speed>
</trkpt>
<trkpt lat="55.731300" lon="26.231501">
<ele>147.357544</ele>
<time>2010-07-17T11:35:26Z</time>
<desc>lat.=55.731300, lon.=26.231501, Alt.=147.357544m. Speed=0.000000m/h.</desc>
<speed>0.000000</speed>
</trkpt>
<trkpt lat="55.731300" lon="26.231501">
<ele>147.353638</ele>
<time>2010-07-17T11:35:27Z</time>
<desc>lat.=55.731300, lon.=26.231501, Alt.=147.353638m. Speed=0.036000m/h.</desc>
<speed>0.010000</speed>
</trkpt>
<trkpt lat="55.731300" lon="26.231501">
<ele>147.357544</ele>
<time>2010-07-17T11:35:28Z</time>
<desc>lat.=55.731300, lon.=26.231501, Alt.=147.357544m. Speed=0.036000m/h.</desc>
<speed>0.010000</speed>
</trkpt>
<trkpt lat="55.731300" lon="26.231501">
<ele>147.361450</ele>
<time>2010-07-17T11:35:29Z</time>
<desc>lat.=55.731300, lon.=26.231501, Alt.=147.361450m. Speed=0.036000m/h.</desc>
<speed>0.010000</speed>
</trkpt>
<trkpt lat="55.731300" lon="26.231501">
<ele>147.361450</ele>
<time>2010-07-17T11:35:30Z</time>
<desc>lat.=55.731300, lon.=26.231501, Alt.=147.361450m. Speed=0.000000m/h.</desc>
<speed>0.000000</speed>
</trkpt>
<trkpt lat="55.731300" lon="26.231501">
<ele>147.365356</ele>
<time>2010-07-17T11:35:31Z</time>
<desc>lat.=55.731300, lon.=26.231501, Alt.=147.365356m. Speed=0.108000m/h.</desc>
<speed>0.030000</speed>
</trkpt>
<trkpt lat="55.731300" lon="26.231501">
<ele>147.365356</ele>
<time>2010-07-17T11:35:32Z</time>
<desc>lat.=55.731300, lon.=26.231501, Alt.=147.365356m. Speed=0.036000m/h.</desc>
<speed>0.010000</speed>
</trkpt>
<trkpt lat="55.731300" lon="26.231501">
<ele>147.373169</ele>
<time>2010-07-17T11:35:33Z</time>
<desc>lat.=55.731300, lon.=26.231501, Alt.=147.373169m. Speed=0.036000m/h.</desc>
<speed>0.010000</speed>
</trkpt>
<trkpt lat="55.731300" lon="26.231501">
<ele>147.373169</ele>
<time>2010-07-17T11:35:34Z</time>
<desc>lat.=55.731300, lon.=26.231501, Alt.=147.373169m. Speed=0.000000m/h.</desc>
<speed>0.000000</speed>
</trkpt>
<trkpt lat="55.731300" lon="26.231501">
<ele>147.377075</ele>
<time>2010-07-17T11:35:35Z</time>
<desc>lat.=55.731300, lon.=26.231501, Alt.=147.377075m. Speed=0.036000m/h.</desc>
<speed>0.010000</speed>
</trkpt>
<trkpt lat="55.731300" lon="26.231499">
<ele>147.380981</ele>
<time>2010-07-17T11:35:36Z</time>
<desc>lat.=55.731300, lon.=26.231499, Alt.=147.380981m. Speed=0.036000m/h.</desc>
<speed>0.010000</speed>
</trkpt>
<trkpt lat="55.731300" lon="26.231499">
<ele>147.377075</ele>
<time>2010-07-17T11:35:37Z</time>
<desc>lat.=55.731300, lon.=26.231499, Alt.=147.377075m. Speed=0.036000m/h.</desc>
<speed>0.010000</speed>
</trkpt>
<trkpt lat="55.731300" lon="26.231499">
<ele>147.377075</ele>
<time>2010-07-17T11:35:38Z</time>
<desc>lat.=55.731300, lon.=26.231499, Alt.=147.377075m. Speed=0.000000m/h.</desc>
<speed>0.000000</speed>
</trkpt>
<trkpt lat="55.731300" lon="26.231499">
<ele>147.377075</ele>
<time>2010-07-17T11:35:39Z</time>
<desc>lat.=55.731300, lon.=26.231499, Alt.=147.377075m. Speed=0.036000m/h.</desc>
<speed>0.010000</speed>
</trkpt>
<trkpt lat="55.731300" lon="26.231501">
<ele>147.377075</ele>
<time>2010-07-17T11:35:40Z</time>
<desc>lat.=55.731300, lon.=26.231501, Alt.=147.377075m. Speed=0.000000m/h.</desc>
<speed>0.000000</speed>
</trkpt>
<trkpt lat="55.731300" lon="26.231501">
<ele>147.373169</ele>
<time>2010-07-17T11:35:41Z</time>
<desc>lat.=55.731300, lon.=26.231501, Alt.=147.373169m. Speed=0.180000m/h.</desc>
<speed>0.050000</speed>
</trkpt>
<trkpt lat="55.731300" lon="26.231501">
<ele>147.373169</ele>
<time>2010-07-17T11:35:42Z</time>
<desc>lat.=55.731300, lon.=26.231501, Alt.=147.373169m. Speed=0.072000m/h.</desc>
<speed>0.020000</speed>
</trkpt>
<trkpt lat="55.731300" lon="26.231501">
<ele>147.365356</ele>
<time>2010-07-17T11:35:43Z</time>
<desc>lat.=55.731300, lon.=26.231501, Alt.=147.365356m. Speed=0.036000m/h.</desc>
<speed>0.010000</speed>
</trkpt>
<trkpt lat="55.731300" lon="26.231501">
<ele>147.361450</ele>
<time>2010-07-17T11:35:44Z</time>
<desc>lat.=55.731300, lon.=26.231501, Alt.=147.361450m. Speed=0.000000m/h.</desc>
<speed>0.000000</speed>
</trkpt>
<trkpt lat="55.731300" lon="26.231501">
<ele>147.357544</ele>
<time>2010-07-17T11:35:45Z</time>
<desc>lat.=55.731300, lon.=26.231501, Alt.=147.357544m. Speed=0.108000m/h.</desc>
<speed>0.030000</speed>
</trkpt>
<trkpt lat="55.731300" lon="26.231501">
<ele>147.349731</ele>
<time>2010-07-17T11:35:46Z</time>
<desc>lat.=55.731300, lon.=26.231501, Alt.=147.349731m. Speed=0.072000m/h.</desc>
<speed>0.020000</speed>
</trkpt>
<trkpt lat="55.731300" lon="26.231501">
<ele>147.341919</ele>
<time>2010-07-17T11:35:47Z</time>
<desc>lat.=55.731300, lon.=26.231501, Alt.=147.341919m. Speed=0.036000m/h.</desc>
<speed>0.010000</speed>
</trkpt>
<trkpt lat="55.731300" lon="26.231501">
<ele>147.334106</ele>
<time>2010-07-17T11:35:48Z</time>
<desc>lat.=55.731300, lon.=26.231501, Alt.=147.334106m. Speed=0.072000m/h.</desc>
<speed>0.020000</speed>
</trkpt>
<trkpt lat="55.731300" lon="26.231501">
<ele>147.330200</ele>
<time>2010-07-17T11:35:49Z</time>
<desc>lat.=55.731300, lon.=26.231501, Alt.=147.330200m. Speed=0.000000m/h.</desc>
<speed>0.000000</speed>
</trkpt>
<trkpt lat="55.731300" lon="26.231501">
<ele>147.322388</ele>
<time>2010-07-17T11:35:50Z</time>
<desc>lat.=55.731300, lon.=26.231501, Alt.=147.322388m. Speed=0.036000m/h.</desc>
<speed>0.010000</speed>
</trkpt>
<trkpt lat="55.731300" lon="26.231501">
<ele>147.318481</ele>
<time>2010-07-17T11:35:51Z</time>
<desc>lat.=55.731300, lon.=26.231501, Alt.=147.318481m. Speed=0.000000m/h.</desc>
<speed>0.000000</speed>
</trkpt>
<trkpt lat="55.731300" lon="26.231501">
<ele>147.314575</ele>
<time>2010-07-17T11:35:52Z</time>
<desc>lat.=55.731300, lon.=26.231501, Alt.=147.314575m. Speed=0.036000m/h.</desc>
<speed>0.010000</speed>
</trkpt>
<trkpt lat="55.731300" lon="26.231503">
<ele>147.306763</ele>
<time>2010-07-17T11:35:53Z</time>
<desc>lat.=55.731300, lon.=26.231503, Alt.=147.306763m. Speed=0.144000m/h.</desc>
<speed>0.040000</speed>
</trkpt>
<trkpt lat="55.731300" lon="26.231503">
<ele>147.302856</ele>
<time>2010-07-17T11:35:54Z</time>
<desc>lat.=55.731300, lon.=26.231503, Alt.=147.302856m. Speed=0.036000m/h.</desc>
<speed>0.010000</speed>
</trkpt>
<trkpt lat="55.731300" lon="26.231503">
<ele>147.298950</ele>
<time>2010-07-17T11:35:55Z</time>
<desc>lat.=55.731300, lon.=26.231503, Alt.=147.298950m. Speed=0.000000m/h.</desc>
<speed>0.000000</speed>
</trkpt>
<trkpt lat="55.731300" lon="26.231503">
<ele>147.291138</ele>
<time>2010-07-17T11:35:56Z</time>
<desc>lat.=55.731300, lon.=26.231503, Alt.=147.291138m. Speed=0.036000m/h.</desc>
<speed>0.010000</speed>
</trkpt>
<trkpt lat="55.731300" lon="26.231503">
<ele>147.291138</ele>
<time>2010-07-17T11:35:57Z</time>
<desc>lat.=55.731300, lon.=26.231503, Alt.=147.291138m. Speed=0.072000m/h.</desc>
<speed>0.020000</speed>
</trkpt>
<trkpt lat="55.731300" lon="26.231503">
<ele>147.287231</ele>
<time>2010-07-17T11:35:58Z</time>
<desc>lat.=55.731300, lon.=26.231503, Alt.=147.287231m. Speed=0.000000m/h.</desc>
<speed>0.000000</speed>
</trkpt>
<trkpt lat="55.731300" lon="26.231503">
<ele>147.287231</ele>
<time>2010-07-17T11:35:59Z</time>
<desc>lat.=55.731300, lon.=26.231503, Alt.=147.287231m. Speed=0.036000m/h.</desc>
<speed>0.010000</speed>
</trkpt>
<trkpt lat="55.731300" lon="26.231503">
<ele>147.283325</ele>
<time>2010-07-17T11:36:00Z</time>
<desc>lat.=55.731300, lon.=26.231503, Alt.=147.283325m. Speed=0.000000m/h.</desc>
<speed>0.000000</speed>
</trkpt>
<trkpt lat="55.731300" lon="26.231504">
<ele>147.279419</ele>
<time>2010-07-17T11:36:01Z</time>
<desc>lat.=55.731300, lon.=26.231504, Alt.=147.279419m. Speed=0.000000m/h.</desc>
<speed>0.000000</speed>
</trkpt>
<trkpt lat="55.731300" lon="26.231504">
<ele>147.279419</ele>
<time>2010-07-17T11:36:02Z</time>
<desc>lat.=55.731300, lon.=26.231504, Alt.=147.279419m. Speed=0.000000m/h.</desc>
<speed>0.000000</speed>
</trkpt>
<trkpt lat="55.731300" lon="26.231504">
<ele>147.279419</ele>
<time>2010-07-17T11:36:03Z</time>
<desc>lat.=55.731300, lon.=26.231504, Alt.=147.279419m. Speed=0.000000m/h.</desc>
<speed>0.000000</speed>
</trkpt>
<trkpt lat="55.731300" lon="26.231504">
<ele>147.279419</ele>
<time>2010-07-17T11:36:04Z</time>
<desc>lat.=55.731300, lon.=26.231504, Alt.=147.279419m. Speed=0.036000m/h.</desc>
<speed>0.010000</speed>
</trkpt>
<trkpt lat="55.731300" lon="26.231504">
<ele>147.275513</ele>
<time>2010-07-17T11:36:05Z</time>
<desc>lat.=55.731300, lon.=26.231504, Alt.=147.275513m. Speed=0.036000m/h.</desc>
<speed>0.010000</speed>
</trkpt>
<trkpt lat="55.731300" lon="26.231504">
<ele>147.275513</ele>
<time>2010-07-17T11:36:06Z</time>
<desc>lat.=55.731300, lon.=26.231504, Alt.=147.275513m. Speed=0.036000m/h.</desc>
<speed>0.010000</speed>
</trkpt>
<trkpt lat="55.731304" lon="26.231504">
<ele>147.275513</ele>
<time>2010-07-17T11:36:07Z</time>
<desc>lat.=55.731304, lon.=26.231504, Alt.=147.275513m. Speed=0.108000m/h.</desc>
<speed>0.030000</speed>
</trkpt>
<trkpt lat="55.731304" lon="26.231504">
<ele>147.271606</ele>
<time>2010-07-17T11:36:08Z</time>
<desc>lat.=55.731304, lon.=26.231504, Alt.=147.271606m. Speed=0.216000m/h.</desc>
<speed>0.060000</speed>
</trkpt>
<trkpt lat="55.731304" lon="26.231504">
<ele>147.263794</ele>
<time>2010-07-17T11:36:09Z</time>
<desc>lat.=55.731304, lon.=26.231504, Alt.=147.263794m. Speed=0.144000m/h.</desc>
<speed>0.040000</speed>
</trkpt>
<trkpt lat="55.731304" lon="26.231504">
<ele>147.263794</ele>
<time>2010-07-17T11:36:10Z</time>
<desc>lat.=55.731304, lon.=26.231504, Alt.=147.263794m. Speed=0.144000m/h.</desc>
<speed>0.040000</speed>
</trkpt>
<trkpt lat="55.731304" lon="26.231504">
<ele>147.267700</ele>
<time>2010-07-17T11:36:11Z</time>
<desc>lat.=55.731304, lon.=26.231504, Alt.=147.267700m. Speed=0.144000m/h.</desc>
<speed>0.040000</speed>
</trkpt>
<trkpt lat="55.731304" lon="26.231504">
<ele>147.263794</ele>
<time>2010-07-17T11:36:12Z</time>
<desc>lat.=55.731304, lon.=26.231504, Alt.=147.263794m. Speed=0.072000m/h.</desc>
<speed>0.020000</speed>
</trkpt>
<trkpt lat="55.731304" lon="26.231504">
<ele>147.267700</ele>
<time>2010-07-17T11:36:13Z</time>
<desc>lat.=55.731304, lon.=26.231504, Alt.=147.267700m. Speed=0.000000m/h.</desc>
<speed>0.000000</speed>
</trkpt>
<trkpt lat="55.731304" lon="26.231504">
<ele>147.271606</ele>
<time>2010-07-17T11:36:14Z</time>
<desc>lat.=55.731304, lon.=26.231504, Alt.=147.271606m. Speed=0.000000m/h.</desc>
<speed>0.000000</speed>
</trkpt>
<trkpt lat="55.731304" lon="26.231506">
<ele>147.275513</ele>
<time>2010-07-17T11:36:15Z</time>
<desc>lat.=55.731304, lon.=26.231506, Alt.=147.275513m. Speed=0.072000m/h.</desc>
<speed>0.020000</speed>
</trkpt>
<trkpt lat="55.731304" lon="26.231506">
<ele>147.271606</ele>
<time>2010-07-17T11:36:16Z</time>
<desc>lat.=55.731304, lon.=26.231506, Alt.=147.271606m. Speed=0.072000m/h.</desc>
<speed>0.020000</speed>
</trkpt>
<trkpt lat="55.731304" lon="26.231506">
<ele>147.275513</ele>
<time>2010-07-17T11:36:17Z</time>
<desc>lat.=55.731304, lon.=26.231506, Alt.=147.275513m. Speed=0.036000m/h.</desc>
<speed>0.010000</speed>
</trkpt>
<trkpt lat="55.731304" lon="26.231506">
<ele>147.275513</ele>
<time>2010-07-17T11:36:18Z</time>
<desc>lat.=55.731304, lon.=26.231506, Alt.=147.275513m. Speed=0.036000m/h.</desc>
<speed>0.010000</speed>
</trkpt>
<trkpt lat="55.731304" lon="26.231506">
<ele>147.279419</ele>
<time>2010-07-17T11:36:19Z</time>
<desc>lat.=55.731304, lon.=26.231506, Alt.=147.279419m. Speed=0.036000m/h.</desc>
<speed>0.010000</speed>
</trkpt>
<trkpt lat="55.731304" lon="26.231506">
<ele>147.283325</ele>
<time>2010-07-17T11:36:20Z</time>
<desc>lat.=55.731304, lon.=26.231506, Alt.=147.283325m. Speed=0.180000m/h.</desc>
<speed>0.050000</speed>
</trkpt>
<trkpt lat="55.731304" lon="26.231506">
<ele>147.283325</ele>
<time>2010-07-17T11:36:21Z</time>
<desc>lat.=55.731304, lon.=26.231506, Alt.=147.283325m. Speed=0.036000m/h.</desc>
<speed>0.010000</speed>
</trkpt>
<trkpt lat="55.731304" lon="26.231506">
<ele>147.279419</ele>
<time>2010-07-17T11:36:22Z</time>
<desc>lat.=55.731304, lon.=26.231506, Alt.=147.279419m. Speed=0.000000m/h.</desc>
<speed>0.000000</speed>
</trkpt>
<trkpt lat="55.731304" lon="26.231506">
<ele>147.279419</ele>
<time>2010-07-17T11:36:23Z</time>
<desc>lat.=55.731304, lon.=26.231506, Alt.=147.279419m. Speed=0.000000m/h.</desc>
<speed>0.000000</speed>
</trkpt>
<trkpt lat="55.731304" lon="26.231506">
<ele>147.275513</ele>
<time>2010-07-17T11:36:24Z</time>
<desc>lat.=55.731304, lon.=26.231506, Alt.=147.275513m. Speed=0.000000m/h.</desc>
<speed>0.000000</speed>
</trkpt>
<trkpt lat="55.731304" lon="26.231506">
<ele>147.275513</ele>
<time>2010-07-17T11:36:25Z</time>
<desc>lat.=55.731304, lon.=26.231506, Alt.=147.275513m. Speed=0.000000m/h.</desc>
<speed>0.000000</speed>
</trkpt>
<trkpt lat="55.731304" lon="26.231506">
<ele>147.267700</ele>
<time>2010-07-17T11:36:26Z</time>
<desc>lat.=55.731304, lon.=26.231506, Alt.=147.267700m. Speed=0.036000m/h.</desc>
<speed>0.010000</speed>
</trkpt>
<trkpt lat="55.731304" lon="26.231506">
<ele>147.267700</ele>
<time>2010-07-17T11:36:27Z</time>
<desc>lat.=55.731304, lon.=26.231506, Alt.=147.267700m. Speed=0.000000m/h.</desc>
<speed>0.000000</speed>
</trkpt>
<trkpt lat="55.731304" lon="26.231506">
<ele>147.263794</ele>
<time>2010-07-17T11:36:28Z</time>
<desc>lat.=55.731304, lon.=26.231506, Alt.=147.263794m. Speed=0.072000m/h.</desc>
<speed>0.020000</speed>
</trkpt>
<trkpt lat="55.731304" lon="26.231506">
<ele>147.259888</ele>
<time>2010-07-17T11:36:29Z</time>
<desc>lat.=55.731304, lon.=26.231506, Alt.=147.259888m. Speed=0.036000m/h.</desc>
<speed>0.010000</speed>
</trkpt>
<trkpt lat="55.731304" lon="26.231506">
<ele>147.259888</ele>
<time>2010-07-17T11:36:30Z</time>
<desc>lat.=55.731304, lon.=26.231506, Alt.=147.259888m. Speed=0.036000m/h.</desc>
<speed>0.010000</speed>
</trkpt>
<trkpt lat="55.731304" lon="26.231506">
<ele>147.252075</ele>
<time>2010-07-17T11:36:31Z</time>
<desc>lat.=55.731304, lon.=26.231506, Alt.=147.252075m. Speed=0.036000m/h.</desc>
<speed>0.010000</speed>
</trkpt>
<trkpt lat="55.731304" lon="26.231506">
<ele>147.248169</ele>
<time>2010-07-17T11:36:32Z</time>
<desc>lat.=55.731304, lon.=26.231506, Alt.=147.248169m. Speed=0.036000m/h.</desc>
<speed>0.010000</speed>
</trkpt>
<trkpt lat="55.731304" lon="26.231506">
<ele>147.244263</ele>
<time>2010-07-17T11:36:33Z</time>
<desc>lat.=55.731304, lon.=26.231506, Alt.=147.244263m. Speed=0.036000m/h.</desc>
<speed>0.010000</speed>
</trkpt>
<trkpt lat="55.731304" lon="26.231506">
<ele>147.248169</ele>
<time>2010-07-17T11:36:34Z</time>
<desc>lat.=55.731304, lon.=26.231506, Alt.=147.248169m. Speed=0.000000m/h.</desc>
<speed>0.000000</speed>
</trkpt>
<trkpt lat="55.731304" lon="26.231506">
<ele>147.252075</ele>
<time>2010-07-17T11:36:35Z</time>
<desc>lat.=55.731304, lon.=26.231506, Alt.=147.252075m. Speed=0.036000m/h.</desc>
<speed>0.010000</speed>
</trkpt>
<trkpt lat="55.731304" lon="26.231508">
<ele>147.255981</ele>
<time>2010-07-17T11:36:36Z</time>
<desc>lat.=55.731304, lon.=26.231508, Alt.=147.255981m. Speed=0.036000m/h.</desc>
<speed>0.010000</speed>
</trkpt>
<trkpt lat="55.731304" lon="26.231508">
<ele>147.259888</ele>
<time>2010-07-17T11:36:37Z</time>
<desc>lat.=55.731304, lon.=26.231508, Alt.=147.259888m. Speed=0.036000m/h.</desc>
<speed>0.010000</speed>
</trkpt>
<trkpt lat="55.731304" lon="26.231508">
<ele>147.263794</ele>
<time>2010-07-17T11:36:38Z</time>
<desc>lat.=55.731304, lon.=26.231508, Alt.=147.263794m. Speed=0.036000m/h.</desc>
<speed>0.010000</speed>
</trkpt>
<trkpt lat="55.731304" lon="26.231508">
<ele>147.267700</ele>
<time>2010-07-17T11:36:39Z</time>
<desc>lat.=55.731304, lon.=26.231508, Alt.=147.267700m. Speed=0.072000m/h.</desc>
<speed>0.020000</speed>
</trkpt>
<trkpt lat="55.731304" lon="26.231508">
<ele>147.271606</ele>
<time>2010-07-17T11:36:40Z</time>
<desc>lat.=55.731304, lon.=26.231508, Alt.=147.271606m. Speed=0.036000m/h.</desc>
<speed>0.010000</speed>
</trkpt>
<trkpt lat="55.731304" lon="26.231508">
<ele>147.271606</ele>
<time>2010-07-17T11:36:41Z</time>
<desc>lat.=55.731304, lon.=26.231508, Alt.=147.271606m. Speed=0.036000m/h.</desc>
<speed>0.010000</speed>
</trkpt>
<trkpt lat="55.731304" lon="26.231508">
<ele>147.271606</ele>
<time>2010-07-17T11:36:42Z</time>
<desc>lat.=55.731304, lon.=26.231508, Alt.=147.271606m. Speed=0.072000m/h.</desc>
<speed>0.020000</speed>
</trkpt>
<trkpt lat="55.731304" lon="26.231508">
<ele>147.271606</ele>
<time>2010-07-17T11:36:43Z</time>
<desc>lat.=55.731304, lon.=26.231508, Alt.=147.271606m. Speed=0.036000m/h.</desc>
<speed>0.010000</speed>
</trkpt>
<trkpt lat="55.731304" lon="26.231508">
<ele>147.279419</ele>
<time>2010-07-17T11:36:44Z</time>
<desc>lat.=55.731304, lon.=26.231508, Alt.=147.279419m. Speed=0.000000m/h.</desc>
<speed>0.000000</speed>
</trkpt>
<trkpt lat="55.731304" lon="26.231508">
<ele>147.279419</ele>
<time>2010-07-17T11:36:45Z</time>
<desc>lat.=55.731304, lon.=26.231508, Alt.=147.279419m. Speed=0.072000m/h.</desc>
<speed>0.020000</speed>
</trkpt>
<trkpt lat="55.731304" lon="26.231508">
<ele>147.283325</ele>
<time>2010-07-17T11:36:46Z</time>
<desc>lat.=55.731304, lon.=26.231508, Alt.=147.283325m. Speed=0.072000m/h.</desc>
<speed>0.020000</speed>
</trkpt>
<trkpt lat="55.731304" lon="26.231508">
<ele>147.287231</ele>
<time>2010-07-17T11:36:47Z</time>
<desc>lat.=55.731304, lon.=26.231508, Alt.=147.287231m. Speed=0.036000m/h.</desc>
<speed>0.010000</speed>
</trkpt>
<trkpt lat="55.731304" lon="26.231508">
<ele>147.287231</ele>
<time>2010-07-17T11:36:48Z</time>
<desc>lat.=55.731304, lon.=26.231508, Alt.=147.287231m. Speed=0.072000m/h.</desc>
<speed>0.020000</speed>
</trkpt>
<trkpt lat="55.731304" lon="26.231508">
<ele>147.283325</ele>
<time>2010-07-17T11:36:49Z</time>
<desc>lat.=55.731304, lon.=26.231508, Alt.=147.283325m. Speed=0.108000m/h.</desc>
<speed>0.030000</speed>
</trkpt>
<trkpt lat="55.731304" lon="26.231508">
<ele>147.283325</ele>
<time>2010-07-17T11:36:50Z</time>
<desc>lat.=55.731304, lon.=26.231508, Alt.=147.283325m. Speed=0.036000m/h.</desc>
<speed>0.010000</speed>
</trkpt>
<trkpt lat="55.731304" lon="26.231508">
<ele>147.287231</ele>
<time>2010-07-17T11:36:51Z</time>
<desc>lat.=55.731304, lon.=26.231508, Alt.=147.287231m. Speed=0.072000m/h.</desc>
<speed>0.020000</speed>
</trkpt>
<trkpt lat="55.731304" lon="26.231508">
<ele>147.283325</ele>
<time>2010-07-17T11:36:52Z</time>
<desc>lat.=55.731304, lon.=26.231508, Alt.=147.283325m. Speed=0.072000m/h.</desc>
<speed>0.020000</speed>
</trkpt>
<trkpt lat="55.731304" lon="26.231508">
<ele>147.283325</ele>
<time>2010-07-17T11:36:53Z</time>
<desc>lat.=55.731304, lon.=26.231508, Alt.=147.283325m. Speed=0.036000m/h.</desc>
<speed>0.010000</speed>
</trkpt>
<trkpt lat="55.731304" lon="26.231508">
<ele>147.287231</ele>
<time>2010-07-17T11:36:54Z</time>
<desc>lat.=55.731304, lon.=26.231508, Alt.=147.287231m. Speed=0.072000m/h.</desc>
<speed>0.020000</speed>
</trkpt>
<trkpt lat="55.731304" lon="26.231508">
<ele>147.291138</ele>
<time>2010-07-17T11:36:55Z</time>
<desc>lat.=55.731304, lon.=26.231508, Alt.=147.291138m. Speed=0.036000m/h.</desc>
<speed>0.010000</speed>
</trkpt>
<trkpt lat="55.731304" lon="26.231508">
<ele>147.283325</ele>
<time>2010-07-17T11:36:56Z</time>
<desc>lat.=55.731304, lon.=26.231508, Alt.=147.283325m. Speed=0.072000m/h.</desc>
<speed>0.020000</speed>
</trkpt>
<trkpt lat="55.731304" lon="26.231508">
<ele>147.279419</ele>
<time>2010-07-17T11:36:57Z</time>
<desc>lat.=55.731304, lon.=26.231508, Alt.=147.279419m. Speed=0.036000m/h.</desc>
<speed>0.010000</speed>
</trkpt>
<trkpt lat="55.731304" lon="26.231508">
<ele>147.271606</ele>
<time>2010-07-17T11:36:58Z</time>
<desc>lat.=55.731304, lon.=26.231508, Alt.=147.271606m. Speed=0.000000m/h.</desc>
<speed>0.000000</speed>
</trkpt>
<trkpt lat="55.731304" lon="26.231508">
<ele>147.271606</ele>
<time>2010-07-17T11:36:59Z</time>
<desc>lat.=55.731304, lon.=26.231508, Alt.=147.271606m. Speed=0.036000m/h.</desc>
<speed>0.010000</speed>
</trkpt>
<trkpt lat="55.731304" lon="26.231508">
<ele>147.271606</ele>
<time>2010-07-17T11:37:00Z</time>
<desc>lat.=55.731304, lon.=26.231508, Alt.=147.271606m. Speed=0.144000m/h.</desc>
<speed>0.040000</speed>
</trkpt>
<trkpt lat="55.731304" lon="26.231510">
<ele>147.267700</ele>
<time>2010-07-17T11:37:01Z</time>
<desc>lat.=55.731304, lon.=26.231510, Alt.=147.267700m. Speed=0.144000m/h.</desc>
<speed>0.040000</speed>
</trkpt>
<trkpt lat="55.731304" lon="26.231510">
<ele>147.267700</ele>
<time>2010-07-17T11:37:02Z</time>
<desc>lat.=55.731304, lon.=26.231510, Alt.=147.267700m. Speed=0.036000m/h.</desc>
<speed>0.010000</speed>
</trkpt>
<trkpt lat="55.731304" lon="26.231510">
<ele>147.271606</ele>
<time>2010-07-17T11:37:03Z</time>
<desc>lat.=55.731304, lon.=26.231510, Alt.=147.271606m. Speed=0.000000m/h.</desc>
<speed>0.000000</speed>
</trkpt>
<trkpt lat="55.731304" lon="26.231510">
<ele>147.275513</ele>
<time>2010-07-17T11:37:04Z</time>
<desc>lat.=55.731304, lon.=26.231510, Alt.=147.275513m. Speed=0.108000m/h.</desc>
<speed>0.030000</speed>
</trkpt>
<trkpt lat="55.731304" lon="26.231510">
<ele>147.279419</ele>
<time>2010-07-17T11:37:05Z</time>
<desc>lat.=55.731304, lon.=26.231510, Alt.=147.279419m. Speed=0.144000m/h.</desc>
<speed>0.040000</speed>
</trkpt>
<trkpt lat="55.731304" lon="26.231510">
<ele>147.287231</ele>
<time>2010-07-17T11:37:06Z</time>
<desc>lat.=55.731304, lon.=26.231510, Alt.=147.287231m. Speed=0.036000m/h.</desc>
<speed>0.010000</speed>
</trkpt>
<trkpt lat="55.731304" lon="26.231510">
<ele>147.295044</ele>
<time>2010-07-17T11:37:07Z</time>
<desc>lat.=55.731304, lon.=26.231510, Alt.=147.295044m. Speed=0.180000m/h.</desc>
<speed>0.050000</speed>
</trkpt>
<trkpt lat="55.731304" lon="26.231510">
<ele>147.306763</ele>
<time>2010-07-17T11:37:08Z</time>
<desc>lat.=55.731304, lon.=26.231510, Alt.=147.306763m. Speed=0.072000m/h.</desc>
<speed>0.020000</speed>
</trkpt>
<trkpt lat="55.731304" lon="26.231510">
<ele>147.322388</ele>
<time>2010-07-17T11:37:09Z</time>
<desc>lat.=55.731304, lon.=26.231510, Alt.=147.322388m. Speed=0.108000m/h.</desc>
<speed>0.030000</speed>
</trkpt>
<trkpt lat="55.731308" lon="26.231510">
<ele>147.334106</ele>
<time>2010-07-17T11:37:10Z</time>
<desc>lat.=55.731308, lon.=26.231510, Alt.=147.334106m. Speed=0.108000m/h.</desc>
<speed>0.030000</speed>
</trkpt>
<trkpt lat="55.731308" lon="26.231510">
<ele>147.345825</ele>
<time>2010-07-17T11:37:11Z</time>
<desc>lat.=55.731308, lon.=26.231510, Alt.=147.345825m. Speed=0.072000m/h.</desc>
<speed>0.020000</speed>
</trkpt>
<trkpt lat="55.731308" lon="26.231510">
<ele>147.353638</ele>
<time>2010-07-17T11:37:12Z</time>
<desc>lat.=55.731308, lon.=26.231510, Alt.=147.353638m. Speed=0.036000m/h.</desc>
<speed>0.010000</speed>
</trkpt>
<trkpt lat="55.731308" lon="26.231510">
<ele>147.365356</ele>
<time>2010-07-17T11:37:13Z</time>
<desc>lat.=55.731308, lon.=26.231510, Alt.=147.365356m. Speed=0.036000m/h.</desc>
<speed>0.010000</speed>
</trkpt>
<trkpt lat="55.731308" lon="26.231510">
<ele>147.380981</ele>
<time>2010-07-17T11:37:14Z</time>
<desc>lat.=55.731308, lon.=26.231510, Alt.=147.380981m. Speed=0.036000m/h.</desc>
<speed>0.010000</speed>
</trkpt>
<trkpt lat="55.731308" lon="26.231512">
<ele>147.388794</ele>
<time>2010-07-17T11:37:15Z</time>
<desc>lat.=55.731308, lon.=26.231512, Alt.=147.388794m. Speed=0.072000m/h.</desc>
<speed>0.020000</speed>
</trkpt>
<trkpt lat="55.731308" lon="26.231512">
<ele>147.408325</ele>
<time>2010-07-17T11:37:16Z</time>
<desc>lat.=55.731308, lon.=26.231512, Alt.=147.408325m. Speed=0.036000m/h.</desc>
<speed>0.010000</speed>
</trkpt>
<trkpt lat="55.731308" lon="26.231512">
<ele>147.423950</ele>
<time>2010-07-17T11:37:17Z</time>
<desc>lat.=55.731308, lon.=26.231512, Alt.=147.423950m. Speed=0.000000m/h.</desc>
<speed>0.000000</speed>
</trkpt>
<trkpt lat="55.731308" lon="26.231512">
<ele>147.439575</ele>
<time>2010-07-17T11:37:18Z</time>
<desc>lat.=55.731308, lon.=26.231512, Alt.=147.439575m. Speed=0.108000m/h.</desc>
<speed>0.030000</speed>
</trkpt>
<trkpt lat="55.731308" lon="26.231512">
<ele>147.451294</ele>
<time>2010-07-17T11:37:19Z</time>
<desc>lat.=55.731308, lon.=26.231512, Alt.=147.451294m. Speed=0.000000m/h.</desc>
<speed>0.000000</speed>
</trkpt>
<trkpt lat="55.731308" lon="26.231512">
<ele>147.463013</ele>
<time>2010-07-17T11:37:20Z</time>
<desc>lat.=55.731308, lon.=26.231512, Alt.=147.463013m. Speed=0.072000m/h.</desc>
<speed>0.020000</speed>
</trkpt>
<trkpt lat="55.731308" lon="26.231510">
<ele>147.474731</ele>
<time>2010-07-17T11:37:21Z</time>
<desc>lat.=55.731308, lon.=26.231510, Alt.=147.474731m. Speed=0.036000m/h.</desc>
<speed>0.010000</speed>
</trkpt>
<trkpt lat="55.731308" lon="26.231510">
<ele>147.474731</ele>
<time>2010-07-17T11:37:22Z</time>
<desc>lat.=55.731308, lon.=26.231510, Alt.=147.474731m. Speed=0.108000m/h.</desc>
<speed>0.030000</speed>
</trkpt>
<trkpt lat="55.731308" lon="26.231510">
<ele>147.486450</ele>
<time>2010-07-17T11:37:23Z</time>
<desc>lat.=55.731308, lon.=26.231510, Alt.=147.486450m. Speed=0.036000m/h.</desc>
<speed>0.010000</speed>
</trkpt>
<trkpt lat="55.731308" lon="26.231510">
<ele>147.490356</ele>
<time>2010-07-17T11:37:24Z</time>
<desc>lat.=55.731308, lon.=26.231510, Alt.=147.490356m. Speed=0.144000m/h.</desc>
<speed>0.040000</speed>
</trkpt>
<trkpt lat="55.731308" lon="26.231510">
<ele>147.498169</ele>
<time>2010-07-17T11:37:25Z</time>
<desc>lat.=55.731308, lon.=26.231510, Alt.=147.498169m. Speed=0.036000m/h.</desc>
<speed>0.010000</speed>
</trkpt>
<trkpt lat="55.731308" lon="26.231510">
<ele>147.498169</ele>
<time>2010-07-17T11:37:26Z</time>
<desc>lat.=55.731308, lon.=26.231510, Alt.=147.498169m. Speed=0.036000m/h.</desc>
<speed>0.010000</speed>
</trkpt>
<trkpt lat="55.731308" lon="26.231510">
<ele>147.494263</ele>
<time>2010-07-17T11:37:27Z</time>
<desc>lat.=55.731308, lon.=26.231510, Alt.=147.494263m. Speed=0.072000m/h.</desc>
<speed>0.020000</speed>
</trkpt>
<trkpt lat="55.731308" lon="26.231510">
<ele>147.494263</ele>
<time>2010-07-17T11:37:28Z</time>
<desc>lat.=55.731308, lon.=26.231510, Alt.=147.494263m. Speed=0.036000m/h.</desc>
<speed>0.010000</speed>
</trkpt>
<trkpt lat="55.731308" lon="26.231510">
<ele>147.482544</ele>
<time>2010-07-17T11:37:29Z</time>
<desc>lat.=55.731308, lon.=26.231510, Alt.=147.482544m. Speed=0.036000m/h.</desc>
<speed>0.010000</speed>
</trkpt>
<trkpt lat="55.731308" lon="26.231510">
<ele>147.478638</ele>
<time>2010-07-17T11:37:30Z</time>
<desc>lat.=55.731308, lon.=26.231510, Alt.=147.478638m. Speed=0.000000m/h.</desc>
<speed>0.000000</speed>
</trkpt>
<trkpt lat="55.731308" lon="26.231510">
<ele>147.466919</ele>
<time>2010-07-17T11:37:31Z</time>
<desc>lat.=55.731308, lon.=26.231510, Alt.=147.466919m. Speed=0.000000m/h.</desc>
<speed>0.000000</speed>
</trkpt>
<trkpt lat="55.731308" lon="26.231510">
<ele>147.451294</ele>
<time>2010-07-17T11:37:32Z</time>
<desc>lat.=55.731308, lon.=26.231510, Alt.=147.451294m. Speed=0.036000m/h.</desc>
<speed>0.010000</speed>
</trkpt>
<trkpt lat="55.731308" lon="26.231510">
<ele>147.431763</ele>
<time>2010-07-17T11:37:33Z</time>
<desc>lat.=55.731308, lon.=26.231510, Alt.=147.431763m. Speed=0.108000m/h.</desc>
<speed>0.030000</speed>
</trkpt>
<trkpt lat="55.731308" lon="26.231510">
<ele>147.416138</ele>
<time>2010-07-17T11:37:34Z</time>
<desc>lat.=55.731308, lon.=26.231510, Alt.=147.416138m. Speed=0.036000m/h.</desc>
<speed>0.010000</speed>
</trkpt>
<trkpt lat="55.731308" lon="26.231510">
<ele>147.396606</ele>
<time>2010-07-17T11:37:35Z</time>
<desc>lat.=55.731308, lon.=26.231510, Alt.=147.396606m. Speed=0.108000m/h.</desc>
<speed>0.030000</speed>
</trkpt>
<trkpt lat="55.731308" lon="26.231510">
<ele>147.384888</ele>
<time>2010-07-17T11:37:36Z</time>
<desc>lat.=55.731308, lon.=26.231510, Alt.=147.384888m. Speed=0.036000m/h.</desc>
<speed>0.010000</speed>
</trkpt>
<trkpt lat="55.731308" lon="26.231510">
<ele>147.377075</ele>
<time>2010-07-17T11:37:37Z</time>
<desc>lat.=55.731308, lon.=26.231510, Alt.=147.377075m. Speed=0.036000m/h.</desc>
<speed>0.010000</speed>
</trkpt>
<trkpt lat="55.731308" lon="26.231510">
<ele>147.365356</ele>
<time>2010-07-17T11:37:38Z</time>
<desc>lat.=55.731308, lon.=26.231510, Alt.=147.365356m. Speed=0.000000m/h.</desc>
<speed>0.000000</speed>
</trkpt>
<trkpt lat="55.731308" lon="26.231510">
<ele>147.353638</ele>
<time>2010-07-17T11:37:39Z</time>
<desc>lat.=55.731308, lon.=26.231510, Alt.=147.353638m. Speed=0.036000m/h.</desc>
<speed>0.010000</speed>
</trkpt>
<trkpt lat="55.731308" lon="26.231510">
<ele>147.338013</ele>
<time>2010-07-17T11:37:40Z</time>
<desc>lat.=55.731308, lon.=26.231510, Alt.=147.338013m. Speed=0.072000m/h.</desc>
<speed>0.020000</speed>
</trkpt>
<trkpt lat="55.731308" lon="26.231510">
<ele>147.330200</ele>
<time>2010-07-17T11:37:41Z</time>
<desc>lat.=55.731308, lon.=26.231510, Alt.=147.330200m. Speed=0.036000m/h.</desc>
<speed>0.010000</speed>
</trkpt>
<trkpt lat="55.731308" lon="26.231510">
<ele>147.322388</ele>
<time>2010-07-17T11:37:42Z</time>
<desc>lat.=55.731308, lon.=26.231510, Alt.=147.322388m. Speed=0.072000m/h.</desc>
<speed>0.020000</speed>
</trkpt>
<trkpt lat="55.731308" lon="26.231510">
<ele>147.318481</ele>
<time>2010-07-17T11:37:43Z</time>
<desc>lat.=55.731308, lon.=26.231510, Alt.=147.318481m. Speed=0.000000m/h.</desc>
<speed>0.000000</speed>
</trkpt>
<trkpt lat="55.731308" lon="26.231510">
<ele>147.314575</ele>
<time>2010-07-17T11:37:44Z</time>
<desc>lat.=55.731308, lon.=26.231510, Alt.=147.314575m. Speed=0.036000m/h.</desc>
<speed>0.010000</speed>
</trkpt>
<trkpt lat="55.731308" lon="26.231510">
<ele>147.310669</ele>
<time>2010-07-17T11:37:45Z</time>
<desc>lat.=55.731308, lon.=26.231510, Alt.=147.310669m. Speed=0.072000m/h.</desc>
<speed>0.020000</speed>
</trkpt>
<trkpt lat="55.731308" lon="26.231508">
<ele>147.302856</ele>
<time>2010-07-17T11:37:46Z</time>
<desc>lat.=55.731308, lon.=26.231508, Alt.=147.302856m. Speed=0.108000m/h.</desc>
<speed>0.030000</speed>
</trkpt>
<trkpt lat="55.731308" lon="26.231508">
<ele>147.295044</ele>
<time>2010-07-17T11:37:47Z</time>
<desc>lat.=55.731308, lon.=26.231508, Alt.=147.295044m. Speed=0.072000m/h.</desc>
<speed>0.020000</speed>
</trkpt>
<trkpt lat="55.731308" lon="26.231508">
<ele>147.291138</ele>
<time>2010-07-17T11:37:48Z</time>
<desc>lat.=55.731308, lon.=26.231508, Alt.=147.291138m. Speed=0.036000m/h.</desc>
<speed>0.010000</speed>
</trkpt>
<trkpt lat="55.731308" lon="26.231508">
<ele>147.287231</ele>
<time>2010-07-17T11:37:49Z</time>
<desc>lat.=55.731308, lon.=26.231508, Alt.=147.287231m. Speed=0.000000m/h.</desc>
<speed>0.000000</speed>
</trkpt>
<trkpt lat="55.731308" lon="26.231508">
<ele>147.279419</ele>
<time>2010-07-17T11:37:50Z</time>
<desc>lat.=55.731308, lon.=26.231508, Alt.=147.279419m. Speed=0.000000m/h.</desc>
<speed>0.000000</speed>
</trkpt>
<trkpt lat="55.731308" lon="26.231508">
<ele>147.279419</ele>
<time>2010-07-17T11:37:51Z</time>
<desc>lat.=55.731308, lon.=26.231508, Alt.=147.279419m. Speed=0.036000m/h.</desc>
<speed>0.010000</speed>
</trkpt>
<trkpt lat="55.731308" lon="26.231508">
<ele>147.275513</ele>
<time>2010-07-17T11:37:52Z</time>
<desc>lat.=55.731308, lon.=26.231508, Alt.=147.275513m. Speed=0.036000m/h.</desc>
<speed>0.010000</speed>
</trkpt>
<trkpt lat="55.731308" lon="26.231508">
<ele>147.267700</ele>
<time>2010-07-17T11:37:53Z</time>
<desc>lat.=55.731308, lon.=26.231508, Alt.=147.267700m. Speed=0.036000m/h.</desc>
<speed>0.010000</speed>
</trkpt>
<trkpt lat="55.731308" lon="26.231508">
<ele>147.263794</ele>
<time>2010-07-17T11:37:54Z</time>
<desc>lat.=55.731308, lon.=26.231508, Alt.=147.263794m. Speed=0.036000m/h.</desc>
<speed>0.010000</speed>
</trkpt>
<trkpt lat="55.731308" lon="26.231508">
<ele>147.263794</ele>
<time>2010-07-17T11:37:55Z</time>
<desc>lat.=55.731308, lon.=26.231508, Alt.=147.263794m. Speed=0.072000m/h.</desc>
<speed>0.020000</speed>
</trkpt>
<trkpt lat="55.731308" lon="26.231508">
<ele>147.259888</ele>
<time>2010-07-17T11:37:56Z</time>
<desc>lat.=55.731308, lon.=26.231508, Alt.=147.259888m. Speed=0.108000m/h.</desc>
<speed>0.030000</speed>
</trkpt>
<trkpt lat="55.731308" lon="26.231510">
<ele>147.255981</ele>
<time>2010-07-17T11:37:57Z</time>
<desc>lat.=55.731308, lon.=26.231510, Alt.=147.255981m. Speed=0.108000m/h.</desc>
<speed>0.030000</speed>
</trkpt>
<trkpt lat="55.731308" lon="26.231510">
<ele>147.252075</ele>
<time>2010-07-17T11:37:58Z</time>
<desc>lat.=55.731308, lon.=26.231510, Alt.=147.252075m. Speed=0.144000m/h.</desc>
<speed>0.040000</speed>
</trkpt>
<trkpt lat="55.731308" lon="26.231510">
<ele>147.248169</ele>
<time>2010-07-17T11:37:59Z</time>
<desc>lat.=55.731308, lon.=26.231510, Alt.=147.248169m. Speed=0.072000m/h.</desc>
<speed>0.020000</speed>
</trkpt>
<trkpt lat="55.731308" lon="26.231510">
<ele>147.248169</ele>
<time>2010-07-17T11:38:00Z</time>
<desc>lat.=55.731308, lon.=26.231510, Alt.=147.248169m. Speed=0.000000m/h.</desc>
<speed>0.000000</speed>
</trkpt>
<trkpt lat="55.731308" lon="26.231510">
<ele>147.252075</ele>
<time>2010-07-17T11:38:01Z</time>
<desc>lat.=55.731308, lon.=26.231510, Alt.=147.252075m. Speed=0.108000m/h.</desc>
<speed>0.030000</speed>
</trkpt>
<trkpt lat="55.731308" lon="26.231510">
<ele>147.248169</ele>
<time>2010-07-17T11:38:02Z</time>
<desc>lat.=55.731308, lon.=26.231510, Alt.=147.248169m. Speed=0.072000m/h.</desc>
<speed>0.020000</speed>
</trkpt>
<trkpt lat="55.731308" lon="26.231510">
<ele>147.244263</ele>
<time>2010-07-17T11:38:03Z</time>
<desc>lat.=55.731308, lon.=26.231510, Alt.=147.244263m. Speed=0.072000m/h.</desc>
<speed>0.020000</speed>
</trkpt>
<trkpt lat="55.731308" lon="26.231510">
<ele>147.236450</ele>
<time>2010-07-17T11:38:04Z</time>
<desc>lat.=55.731308, lon.=26.231510, Alt.=147.236450m. Speed=0.036000m/h.</desc>
<speed>0.010000</speed>
</trkpt>
<trkpt lat="55.731308" lon="26.231510">
<ele>147.232544</ele>
<time>2010-07-17T11:38:05Z</time>
<desc>lat.=55.731308, lon.=26.231510, Alt.=147.232544m. Speed=0.036000m/h.</desc>
<speed>0.010000</speed>
</trkpt>
<trkpt lat="55.731308" lon="26.231510">
<ele>147.232544</ele>
<time>2010-07-17T11:38:06Z</time>
<desc>lat.=55.731308, lon.=26.231510, Alt.=147.232544m. Speed=0.036000m/h.</desc>
<speed>0.010000</speed>
</trkpt>
<trkpt lat="55.731308" lon="26.231510">
<ele>147.228638</ele>
<time>2010-07-17T11:38:07Z</time>
<desc>lat.=55.731308, lon.=26.231510, Alt.=147.228638m. Speed=0.000000m/h.</desc>
<speed>0.000000</speed>
</trkpt>
<trkpt lat="55.731312" lon="26.231510">
<ele>147.228638</ele>
<time>2010-07-17T11:38:08Z</time>
<desc>lat.=55.731312, lon.=26.231510, Alt.=147.228638m. Speed=0.036000m/h.</desc>
<speed>0.010000</speed>
</trkpt>
<trkpt lat="55.731312" lon="26.231510">
<ele>147.220825</ele>
<time>2010-07-17T11:38:09Z</time>
<desc>lat.=55.731312, lon.=26.231510, Alt.=147.220825m. Speed=0.036000m/h.</desc>
<speed>0.010000</speed>
</trkpt>
<trkpt lat="55.731312" lon="26.231510">
<ele>147.220825</ele>
<time>2010-07-17T11:38:10Z</time>
<desc>lat.=55.731312, lon.=26.231510, Alt.=147.220825m. Speed=0.000000m/h.</desc>
<speed>0.000000</speed>
</trkpt>
<trkpt lat="55.731312" lon="26.231510">
<ele>147.213013</ele>
<time>2010-07-17T11:38:11Z</time>
<desc>lat.=55.731312, lon.=26.231510, Alt.=147.213013m. Speed=0.000000m/h.</desc>
<speed>0.000000</speed>
</trkpt>
<trkpt lat="55.731312" lon="26.231510">
<ele>147.213013</ele>
<time>2010-07-17T11:38:12Z</time>
<desc>lat.=55.731312, lon.=26.231510, Alt.=147.213013m. Speed=0.000000m/h.</desc>
<speed>0.000000</speed>
</trkpt>
<trkpt lat="55.731312" lon="26.231510">
<ele>147.216919</ele>
<time>2010-07-17T11:38:13Z</time>
<desc>lat.=55.731312, lon.=26.231510, Alt.=147.216919m. Speed=0.036000m/h.</desc>
<speed>0.010000</speed>
</trkpt>
<trkpt lat="55.731312" lon="26.231510">
<ele>147.213013</ele>
<time>2010-07-17T11:38:14Z</time>
<desc>lat.=55.731312, lon.=26.231510, Alt.=147.213013m. Speed=0.036000m/h.</desc>
<speed>0.010000</speed>
</trkpt>
<trkpt lat="55.731312" lon="26.231510">
<ele>147.216919</ele>
<time>2010-07-17T11:38:15Z</time>
<desc>lat.=55.731312, lon.=26.231510, Alt.=147.216919m. Speed=0.072000m/h.</desc>
<speed>0.020000</speed>
</trkpt>
<trkpt lat="55.731312" lon="26.231510">
<ele>147.224731</ele>
<time>2010-07-17T11:38:16Z</time>
<desc>lat.=55.731312, lon.=26.231510, Alt.=147.224731m. Speed=0.036000m/h.</desc>
<speed>0.010000</speed>
</trkpt>
<trkpt lat="55.731312" lon="26.231510">
<ele>147.228638</ele>
<time>2010-07-17T11:38:17Z</time>
<desc>lat.=55.731312, lon.=26.231510, Alt.=147.228638m. Speed=0.036000m/h.</desc>
<speed>0.010000</speed>
</trkpt>
<trkpt lat="55.731312" lon="26.231510">
<ele>147.240356</ele>
<time>2010-07-17T11:38:18Z</time>
<desc>lat.=55.731312, lon.=26.231510, Alt.=147.240356m. Speed=0.072000m/h.</desc>
<speed>0.020000</speed>
</trkpt>
<trkpt lat="55.731312" lon="26.231510">
<ele>147.236450</ele>
<time>2010-07-17T11:38:19Z</time>
<desc>lat.=55.731312, lon.=26.231510, Alt.=147.236450m. Speed=0.072000m/h.</desc>
<speed>0.020000</speed>
</trkpt>
<trkpt lat="55.731312" lon="26.231510">
<ele>147.228638</ele>
<time>2010-07-17T11:38:20Z</time>
<desc>lat.=55.731312, lon.=26.231510, Alt.=147.228638m. Speed=0.072000m/h.</desc>
<speed>0.020000</speed>
</trkpt>
<trkpt lat="55.731312" lon="26.231510">
<ele>147.224731</ele>
<time>2010-07-17T11:38:21Z</time>
<desc>lat.=55.731312, lon.=26.231510, Alt.=147.224731m. Speed=0.000000m/h.</desc>
<speed>0.000000</speed>
</trkpt>
<trkpt lat="55.731312" lon="26.231508">
<ele>147.220825</ele>
<time>2010-07-17T11:38:22Z</time>
<desc>lat.=55.731312, lon.=26.231508, Alt.=147.220825m. Speed=0.072000m/h.</desc>
<speed>0.020000</speed>
</trkpt>
<trkpt lat="55.731312" lon="26.231508">
<ele>147.213013</ele>
<time>2010-07-17T11:38:23Z</time>
<desc>lat.=55.731312, lon.=26.231508, Alt.=147.213013m. Speed=0.072000m/h.</desc>
<speed>0.020000</speed>
</trkpt>
<trkpt lat="55.731312" lon="26.231508">
<ele>147.201294</ele>
<time>2010-07-17T11:38:24Z</time>
<desc>lat.=55.731312, lon.=26.231508, Alt.=147.201294m. Speed=0.072000m/h.</desc>
<speed>0.020000</speed>
</trkpt>
<trkpt lat="55.731312" lon="26.231508">
<ele>147.197388</ele>
<time>2010-07-17T11:38:25Z</time>
<desc>lat.=55.731312, lon.=26.231508, Alt.=147.197388m. Speed=0.072000m/h.</desc>
<speed>0.020000</speed>
</trkpt>
<trkpt lat="55.731312" lon="26.231508">
<ele>147.189575</ele>
<time>2010-07-17T11:38:26Z</time>
<desc>lat.=55.731312, lon.=26.231508, Alt.=147.189575m. Speed=0.108000m/h.</desc>
<speed>0.030000</speed>
</trkpt>
<trkpt lat="55.731312" lon="26.231508">
<ele>147.181763</ele>
<time>2010-07-17T11:38:27Z</time>
<desc>lat.=55.731312, lon.=26.231508, Alt.=147.181763m. Speed=0.036000m/h.</desc>
<speed>0.010000</speed>
</trkpt>
<trkpt lat="55.731312" lon="26.231508">
<ele>147.170044</ele>
<time>2010-07-17T11:38:28Z</time>
<desc>lat.=55.731312, lon.=26.231508, Alt.=147.170044m. Speed=0.144000m/h.</desc>
<speed>0.040000</speed>
</trkpt>
<trkpt lat="55.731312" lon="26.231508">
<ele>147.162231</ele>
<time>2010-07-17T11:38:29Z</time>
<desc>lat.=55.731312, lon.=26.231508, Alt.=147.162231m. Speed=0.000000m/h.</desc>
<speed>0.000000</speed>
</trkpt>
<trkpt lat="55.731312" lon="26.231508">
<ele>147.150513</ele>
<time>2010-07-17T11:38:30Z</time>
<desc>lat.=55.731312, lon.=26.231508, Alt.=147.150513m. Speed=0.000000m/h.</desc>
<speed>0.000000</speed>
</trkpt>
<trkpt lat="55.731312" lon="26.231508">
<ele>147.142700</ele>
<time>2010-07-17T11:38:31Z</time>
<desc>lat.=55.731312, lon.=26.231508, Alt.=147.142700m. Speed=0.072000m/h.</desc>
<speed>0.020000</speed>
</trkpt>
<trkpt lat="55.731312" lon="26.231508">
<ele>147.134888</ele>
<time>2010-07-17T11:38:32Z</time>
<desc>lat.=55.731312, lon.=26.231508, Alt.=147.134888m. Speed=0.072000m/h.</desc>
<speed>0.020000</speed>
</trkpt>
<trkpt lat="55.731312" lon="26.231508">
<ele>147.127075</ele>
<time>2010-07-17T11:38:33Z</time>
<desc>lat.=55.731312, lon.=26.231508, Alt.=147.127075m. Speed=0.000000m/h.</desc>
<speed>0.000000</speed>
</trkpt>
<trkpt lat="55.731312" lon="26.231508">
<ele>147.123169</ele>
<time>2010-07-17T11:38:34Z</time>
<desc>lat.=55.731312, lon.=26.231508, Alt.=147.123169m. Speed=0.000000m/h.</desc>
<speed>0.000000</speed>
</trkpt>
<trkpt lat="55.731312" lon="26.231508">
<ele>147.115356</ele>
<time>2010-07-17T11:38:35Z</time>
<desc>lat.=55.731312, lon.=26.231508, Alt.=147.115356m. Speed=0.000000m/h.</desc>
<speed>0.000000</speed>
</trkpt>
<trkpt lat="55.731312" lon="26.231508">
<ele>147.111450</ele>
<time>2010-07-17T11:38:36Z</time>
<desc>lat.=55.731312, lon.=26.231508, Alt.=147.111450m. Speed=0.072000m/h.</desc>
<speed>0.020000</speed>
</trkpt>
<trkpt lat="55.731312" lon="26.231508">
<ele>147.107544</ele>
<time>2010-07-17T11:38:37Z</time>
<desc>lat.=55.731312, lon.=26.231508, Alt.=147.107544m. Speed=0.108000m/h.</desc>
<speed>0.030000</speed>
</trkpt>
<trkpt lat="55.731312" lon="26.231508">
<ele>147.099731</ele>
<time>2010-07-17T11:38:38Z</time>
<desc>lat.=55.731312, lon.=26.231508, Alt.=147.099731m. Speed=0.072000m/h.</desc>
<speed>0.020000</speed>
</trkpt>
<trkpt lat="55.731312" lon="26.231508">
<ele>147.088013</ele>
<time>2010-07-17T11:38:39Z</time>
<desc>lat.=55.731312, lon.=26.231508, Alt.=147.088013m. Speed=0.108000m/h.</desc>
<speed>0.030000</speed>
</trkpt>
<trkpt lat="55.731312" lon="26.231508">
<ele>147.076294</ele>
<time>2010-07-17T11:38:40Z</time>
<desc>lat.=55.731312, lon.=26.231508, Alt.=147.076294m. Speed=0.000000m/h.</desc>
<speed>0.000000</speed>
</trkpt>
<trkpt lat="55.731312" lon="26.231508">
<ele>147.072388</ele>
<time>2010-07-17T11:38:41Z</time>
<desc>lat.=55.731312, lon.=26.231508, Alt.=147.072388m. Speed=0.036000m/h.</desc>
<speed>0.010000</speed>
</trkpt>
<trkpt lat="55.731312" lon="26.231508">
<ele>147.072388</ele>
<time>2010-07-17T11:38:42Z</time>
<desc>lat.=55.731312, lon.=26.231508, Alt.=147.072388m. Speed=0.108000m/h.</desc>
<speed>0.030000</speed>
</trkpt>
<trkpt lat="55.731312" lon="26.231508">
<ele>147.072388</ele>
<time>2010-07-17T11:38:43Z</time>
<desc>lat.=55.731312, lon.=26.231508, Alt.=147.072388m. Speed=0.108000m/h.</desc>
<speed>0.030000</speed>
</trkpt>
<trkpt lat="55.731312" lon="26.231508">
<ele>147.072388</ele>
<time>2010-07-17T11:38:44Z</time>
<desc>lat.=55.731312, lon.=26.231508, Alt.=147.072388m. Speed=0.000000m/h.</desc>
<speed>0.000000</speed>
</trkpt>
<trkpt lat="55.731312" lon="26.231508">
<ele>147.068481</ele>
<time>2010-07-17T11:38:45Z</time>
<desc>lat.=55.731312, lon.=26.231508, Alt.=147.068481m. Speed=0.036000m/h.</desc>
<speed>0.010000</speed>
</trkpt>
<trkpt lat="55.731312" lon="26.231508">
<ele>147.060669</ele>
<time>2010-07-17T11:38:46Z</time>
<desc>lat.=55.731312, lon.=26.231508, Alt.=147.060669m. Speed=0.000000m/h.</desc>
<speed>0.000000</speed>
</trkpt>
<trkpt lat="55.731312" lon="26.231508">
<ele>147.060669</ele>
<time>2010-07-17T11:38:47Z</time>
<desc>lat.=55.731312, lon.=26.231508, Alt.=147.060669m. Speed=0.108000m/h.</desc>
<speed>0.030000</speed>
</trkpt>
<trkpt lat="55.731312" lon="26.231508">
<ele>147.064575</ele>
<time>2010-07-17T11:38:48Z</time>
<desc>lat.=55.731312, lon.=26.231508, Alt.=147.064575m. Speed=0.000000m/h.</desc>
<speed>0.000000</speed>
</trkpt>
<trkpt lat="55.731312" lon="26.231508">
<ele>147.080200</ele>
<time>2010-07-17T11:38:49Z</time>
<desc>lat.=55.731312, lon.=26.231508, Alt.=147.080200m. Speed=0.036000m/h.</desc>
<speed>0.010000</speed>
</trkpt>
<trkpt lat="55.731312" lon="26.231506">
<ele>147.080200</ele>
<time>2010-07-17T11:38:50Z</time>
<desc>lat.=55.731312, lon.=26.231506, Alt.=147.080200m. Speed=0.036000m/h.</desc>
<speed>0.010000</speed>
</trkpt>
<trkpt lat="55.731312" lon="26.231506">
<ele>147.080200</ele>
<time>2010-07-17T11:38:51Z</time>
<desc>lat.=55.731312, lon.=26.231506, Alt.=147.080200m. Speed=0.000000m/h.</desc>
<speed>0.000000</speed>
</trkpt>
<trkpt lat="55.731312" lon="26.231506">
<ele>147.088013</ele>
<time>2010-07-17T11:38:52Z</time>
<desc>lat.=55.731312, lon.=26.231506, Alt.=147.088013m. Speed=0.000000m/h.</desc>
<speed>0.000000</speed>
</trkpt>
<trkpt lat="55.731312" lon="26.231506">
<ele>147.091919</ele>
<time>2010-07-17T11:38:53Z</time>
<desc>lat.=55.731312, lon.=26.231506, Alt.=147.091919m. Speed=0.036000m/h.</desc>
<speed>0.010000</speed>
</trkpt>
<trkpt lat="55.731312" lon="26.231506">
<ele>147.103638</ele>
<time>2010-07-17T11:38:54Z</time>
<desc>lat.=55.731312, lon.=26.231506, Alt.=147.103638m. Speed=0.144000m/h.</desc>
<speed>0.040000</speed>
</trkpt>
<trkpt lat="55.731312" lon="26.231506">
<ele>147.115356</ele>
<time>2010-07-17T11:38:55Z</time>
<desc>lat.=55.731312, lon.=26.231506, Alt.=147.115356m. Speed=0.108000m/h.</desc>
<speed>0.030000</speed>
</trkpt>
<trkpt lat="55.731312" lon="26.231506">
<ele>147.115356</ele>
<time>2010-07-17T11:38:56Z</time>
<desc>lat.=55.731312, lon.=26.231506, Alt.=147.115356m. Speed=0.000000m/h.</desc>
<speed>0.000000</speed>
</trkpt>
<trkpt lat="55.731312" lon="26.231506">
<ele>147.119263</ele>
<time>2010-07-17T11:38:57Z</time>
<desc>lat.=55.731312, lon.=26.231506, Alt.=147.119263m. Speed=0.036000m/h.</desc>
<speed>0.010000</speed>
</trkpt>
<trkpt lat="55.731312" lon="26.231506">
<ele>147.119263</ele>
<time>2010-07-17T11:38:58Z</time>
<desc>lat.=55.731312, lon.=26.231506, Alt.=147.119263m. Speed=0.036000m/h.</desc>
<speed>0.010000</speed>
</trkpt>
<trkpt lat="55.731312" lon="26.231506">
<ele>147.130981</ele>
<time>2010-07-17T11:38:59Z</time>
<desc>lat.=55.731312, lon.=26.231506, Alt.=147.130981m. Speed=0.072000m/h.</desc>
<speed>0.020000</speed>
</trkpt>
<trkpt lat="55.731312" lon="26.231506">
<ele>147.138794</ele>
<time>2010-07-17T11:39:00Z</time>
<desc>lat.=55.731312, lon.=26.231506, Alt.=147.138794m. Speed=0.036000m/h.</desc>
<speed>0.010000</speed>
</trkpt>
<trkpt lat="55.731312" lon="26.231506">
<ele>147.138794</ele>
<time>2010-07-17T11:39:01Z</time>
<desc>lat.=55.731312, lon.=26.231506, Alt.=147.138794m. Speed=0.036000m/h.</desc>
<speed>0.010000</speed>
</trkpt>
<trkpt lat="55.731312" lon="26.231506">
<ele>147.142700</ele>
<time>2010-07-17T11:39:02Z</time>
<desc>lat.=55.731312, lon.=26.231506, Alt.=147.142700m. Speed=0.072000m/h.</desc>
<speed>0.020000</speed>
</trkpt>
<trkpt lat="55.731312" lon="26.231506">
<ele>147.146606</ele>
<time>2010-07-17T11:39:03Z</time>
<desc>lat.=55.731312, lon.=26.231506, Alt.=147.146606m. Speed=0.072000m/h.</desc>
<speed>0.020000</speed>
</trkpt>
<trkpt lat="55.731312" lon="26.231506">
<ele>147.158325</ele>
<time>2010-07-17T11:39:04Z</time>
<desc>lat.=55.731312, lon.=26.231506, Alt.=147.158325m. Speed=0.036000m/h.</desc>
<speed>0.010000</speed>
</trkpt>
<trkpt lat="55.731312" lon="26.231506">
<ele>147.150513</ele>
<time>2010-07-17T11:39:05Z</time>
<desc>lat.=55.731312, lon.=26.231506, Alt.=147.150513m. Speed=0.000000m/h.</desc>
<speed>0.000000</speed>
</trkpt>
<trkpt lat="55.731312" lon="26.231506">
<ele>147.142700</ele>
<time>2010-07-17T11:39:06Z</time>
<desc>lat.=55.731312, lon.=26.231506, Alt.=147.142700m. Speed=0.108000m/h.</desc>
<speed>0.030000</speed>
</trkpt>
<trkpt lat="55.731312" lon="26.231506">
<ele>147.138794</ele>
<time>2010-07-17T11:39:07Z</time>
<desc>lat.=55.731312, lon.=26.231506, Alt.=147.138794m. Speed=0.108000m/h.</desc>
<speed>0.030000</speed>
</trkpt>
<trkpt lat="55.731312" lon="26.231506">
<ele>147.134888</ele>
<time>2010-07-17T11:39:08Z</time>
<desc>lat.=55.731312, lon.=26.231506, Alt.=147.134888m. Speed=0.108000m/h.</desc>
<speed>0.030000</speed>
</trkpt>
<trkpt lat="55.731312" lon="26.231506">
<ele>147.127075</ele>
<time>2010-07-17T11:39:09Z</time>
<desc>lat.=55.731312, lon.=26.231506, Alt.=147.127075m. Speed=0.036000m/h.</desc>
<speed>0.010000</speed>
</trkpt>
<trkpt lat="55.731312" lon="26.231506">
<ele>147.119263</ele>
<time>2010-07-17T11:39:10Z</time>
<desc>lat.=55.731312, lon.=26.231506, Alt.=147.119263m. Speed=0.000000m/h.</desc>
<speed>0.000000</speed>
</trkpt>
<trkpt lat="55.731312" lon="26.231506">
<ele>147.115356</ele>
<time>2010-07-17T11:39:11Z</time>
<desc>lat.=55.731312, lon.=26.231506, Alt.=147.115356m. Speed=0.036000m/h.</desc>
<speed>0.010000</speed>
</trkpt>
<trkpt lat="55.731312" lon="26.231506">
<ele>147.103638</ele>
<time>2010-07-17T11:39:12Z</time>
<desc>lat.=55.731312, lon.=26.231506, Alt.=147.103638m. Speed=0.072000m/h.</desc>
<speed>0.020000</speed>
</trkpt>
<trkpt lat="55.731312" lon="26.231506">
<ele>147.084106</ele>
<time>2010-07-17T11:39:13Z</time>
<desc>lat.=55.731312, lon.=26.231506, Alt.=147.084106m. Speed=0.072000m/h.</desc>
<speed>0.020000</speed>
</trkpt>
<trkpt lat="55.731316" lon="26.231506">
<ele>147.072388</ele>
<time>2010-07-17T11:39:14Z</time>
<desc>lat.=55.731316, lon.=26.231506, Alt.=147.072388m. Speed=0.108000m/h.</desc>
<speed>0.030000</speed>
</trkpt>
<trkpt lat="55.731316" lon="26.231506">
<ele>147.060669</ele>
<time>2010-07-17T11:39:15Z</time>
<desc>lat.=55.731316, lon.=26.231506, Alt.=147.060669m. Speed=0.108000m/h.</desc>
<speed>0.030000</speed>
</trkpt>
<trkpt lat="55.731316" lon="26.231506">
<ele>147.056763</ele>
<time>2010-07-17T11:39:16Z</time>
<desc>lat.=55.731316, lon.=26.231506, Alt.=147.056763m. Speed=0.108000m/h.</desc>
<speed>0.030000</speed>
</trkpt>
<trkpt lat="55.731316" lon="26.231506">
<ele>147.037231</ele>
<time>2010-07-17T11:39:17Z</time>
<desc>lat.=55.731316, lon.=26.231506, Alt.=147.037231m. Speed=0.144000m/h.</desc>
<speed>0.040000</speed>
</trkpt>
<trkpt lat="55.731316" lon="26.231506">
<ele>147.009888</ele>
<time>2010-07-17T11:39:18Z</time>
<desc>lat.=55.731316, lon.=26.231506, Alt.=147.009888m. Speed=0.072000m/h.</desc>
<speed>0.020000</speed>
</trkpt>
<trkpt lat="55.731316" lon="26.231506">
<ele>147.002075</ele>
<time>2010-07-17T11:39:19Z</time>
<desc>lat.=55.731316, lon.=26.231506, Alt.=147.002075m. Speed=0.072000m/h.</desc>
<speed>0.020000</speed>
</trkpt>
<trkpt lat="55.731316" lon="26.231506">
<ele>146.986450</ele>
<time>2010-07-17T11:39:20Z</time>
<desc>lat.=55.731316, lon.=26.231506, Alt.=146.986450m. Speed=0.036000m/h.</desc>
<speed>0.010000</speed>
</trkpt>
<trkpt lat="55.731316" lon="26.231506">
<ele>146.959106</ele>
<time>2010-07-17T11:39:21Z</time>
<desc>lat.=55.731316, lon.=26.231506, Alt.=146.959106m. Speed=0.180000m/h.</desc>
<speed>0.050000</speed>
</trkpt>
<trkpt lat="55.731316" lon="26.231506">
<ele>146.939575</ele>
<time>2010-07-17T11:39:22Z</time>
<desc>lat.=55.731316, lon.=26.231506, Alt.=146.939575m. Speed=0.108000m/h.</desc>
<speed>0.030000</speed>
</trkpt>
<trkpt lat="55.731316" lon="26.231506">
<ele>146.931763</ele>
<time>2010-07-17T11:39:23Z</time>
<desc>lat.=55.731316, lon.=26.231506, Alt.=146.931763m. Speed=0.144000m/h.</desc>
<speed>0.040000</speed>
</trkpt>
<trkpt lat="55.731316" lon="26.231508">
<ele>146.916138</ele>
<time>2010-07-17T11:39:24Z</time>
<desc>lat.=55.731316, lon.=26.231508, Alt.=146.916138m. Speed=0.180000m/h.</desc>
<speed>0.050000</speed>
</trkpt>
<trkpt lat="55.731316" lon="26.231508">
<ele>146.908325</ele>
<time>2010-07-17T11:39:25Z</time>
<desc>lat.=55.731316, lon.=26.231508, Alt.=146.908325m. Speed=0.072000m/h.</desc>
<speed>0.020000</speed>
</trkpt>
<trkpt lat="55.731316" lon="26.231508">
<ele>146.892700</ele>
<time>2010-07-17T11:39:26Z</time>
<desc>lat.=55.731316, lon.=26.231508, Alt.=146.892700m. Speed=0.036000m/h.</desc>
<speed>0.010000</speed>
</trkpt>
<trkpt lat="55.731316" lon="26.231508">
<ele>146.877075</ele>
<time>2010-07-17T11:39:27Z</time>
<desc>lat.=55.731316, lon.=26.231508, Alt.=146.877075m. Speed=0.072000m/h.</desc>
<speed>0.020000</speed>
</trkpt>
<trkpt lat="55.731316" lon="26.231508">
<ele>146.857544</ele>
<time>2010-07-17T11:39:28Z</time>
<desc>lat.=55.731316, lon.=26.231508, Alt.=146.857544m. Speed=0.144000m/h.</desc>
<speed>0.040000</speed>
</trkpt>
<trkpt lat="55.731316" lon="26.231508">
<ele>146.841919</ele>
<time>2010-07-17T11:39:29Z</time>
<desc>lat.=55.731316, lon.=26.231508, Alt.=146.841919m. Speed=0.072000m/h.</desc>
<speed>0.020000</speed>
</trkpt>
<trkpt lat="55.731316" lon="26.231508">
<ele>146.834106</ele>
<time>2010-07-17T11:39:30Z</time>
<desc>lat.=55.731316, lon.=26.231508, Alt.=146.834106m. Speed=0.108000m/h.</desc>
<speed>0.030000</speed>
</trkpt>
<trkpt lat="55.731316" lon="26.231508">
<ele>146.826294</ele>
<time>2010-07-17T11:39:31Z</time>
<desc>lat.=55.731316, lon.=26.231508, Alt.=146.826294m. Speed=0.108000m/h.</desc>
<speed>0.030000</speed>
</trkpt>
<trkpt lat="55.731316" lon="26.231508">
<ele>146.814575</ele>
<time>2010-07-17T11:39:32Z</time>
<desc>lat.=55.731316, lon.=26.231508, Alt.=146.814575m. Speed=0.144000m/h.</desc>
<speed>0.040000</speed>
</trkpt>
<trkpt lat="55.731316" lon="26.231508">
<ele>146.810669</ele>
<time>2010-07-17T11:39:33Z</time>
<desc>lat.=55.731316, lon.=26.231508, Alt.=146.810669m. Speed=0.180000m/h.</desc>
<speed>0.050000</speed>
</trkpt>
<trkpt lat="55.731319" lon="26.231508">
<ele>146.802856</ele>
<time>2010-07-17T11:39:34Z</time>
<desc>lat.=55.731319, lon.=26.231508, Alt.=146.802856m. Speed=0.180000m/h.</desc>
<speed>0.050000</speed>
</trkpt>
<trkpt lat="55.731319" lon="26.231508">
<ele>146.798950</ele>
<time>2010-07-17T11:39:35Z</time>
<desc>lat.=55.731319, lon.=26.231508, Alt.=146.798950m. Speed=0.144000m/h.</desc>
<speed>0.040000</speed>
</trkpt>
<trkpt lat="55.731319" lon="26.231508">
<ele>146.802856</ele>
<time>2010-07-17T11:39:36Z</time>
<desc>lat.=55.731319, lon.=26.231508, Alt.=146.802856m. Speed=0.180000m/h.</desc>
<speed>0.050000</speed>
</trkpt>
<trkpt lat="55.731319" lon="26.231508">
<ele>146.802856</ele>
<time>2010-07-17T11:39:37Z</time>
<desc>lat.=55.731319, lon.=26.231508, Alt.=146.802856m. Speed=0.108000m/h.</desc>
<speed>0.030000</speed>
</trkpt>
<trkpt lat="55.731319" lon="26.231508">
<ele>146.798950</ele>
<time>2010-07-17T11:39:38Z</time>
<desc>lat.=55.731319, lon.=26.231508, Alt.=146.798950m. Speed=0.144000m/h.</desc>
<speed>0.040000</speed>
</trkpt>
<trkpt lat="55.731319" lon="26.231508">
<ele>146.802856</ele>
<time>2010-07-17T11:39:39Z</time>
<desc>lat.=55.731319, lon.=26.231508, Alt.=146.802856m. Speed=0.144000m/h.</desc>
<speed>0.040000</speed>
</trkpt>
<trkpt lat="55.731319" lon="26.231508">
<ele>146.802856</ele>
<time>2010-07-17T11:39:40Z</time>
<desc>lat.=55.731319, lon.=26.231508, Alt.=146.802856m. Speed=0.144000m/h.</desc>
<speed>0.040000</speed>
</trkpt>
<trkpt lat="55.731319" lon="26.231508">
<ele>146.798950</ele>
<time>2010-07-17T11:39:41Z</time>
<desc>lat.=55.731319, lon.=26.231508, Alt.=146.798950m. Speed=0.036000m/h.</desc>
<speed>0.010000</speed>
</trkpt>
<trkpt lat="55.731319" lon="26.231510">
<ele>146.798950</ele>
<time>2010-07-17T11:39:42Z</time>
<desc>lat.=55.731319, lon.=26.231510, Alt.=146.798950m. Speed=0.108000m/h.</desc>
<speed>0.030000</speed>
</trkpt>
<trkpt lat="55.731319" lon="26.231510">
<ele>146.795044</ele>
<time>2010-07-17T11:39:43Z</time>
<desc>lat.=55.731319, lon.=26.231510, Alt.=146.795044m. Speed=0.072000m/h.</desc>
<speed>0.020000</speed>
</trkpt>
<trkpt lat="55.731319" lon="26.231510">
<ele>146.791138</ele>
<time>2010-07-17T11:39:44Z</time>
<desc>lat.=55.731319, lon.=26.231510, Alt.=146.791138m. Speed=0.216000m/h.</desc>
<speed>0.060000</speed>
</trkpt>
<trkpt lat="55.731319" lon="26.231510">
<ele>146.783325</ele>
<time>2010-07-17T11:39:45Z</time>
<desc>lat.=55.731319, lon.=26.231510, Alt.=146.783325m. Speed=0.216000m/h.</desc>
<speed>0.060000</speed>
</trkpt>
<trkpt lat="55.731319" lon="26.231510">
<ele>146.775513</ele>
<time>2010-07-17T11:39:46Z</time>
<desc>lat.=55.731319, lon.=26.231510, Alt.=146.775513m. Speed=0.252000m/h.</desc>
<speed>0.070000</speed>
</trkpt>
<trkpt lat="55.731319" lon="26.231510">
<ele>146.771606</ele>
<time>2010-07-17T11:39:47Z</time>
<desc>lat.=55.731319, lon.=26.231510, Alt.=146.771606m. Speed=0.144000m/h.</desc>
<speed>0.040000</speed>
</trkpt>
<trkpt lat="55.731319" lon="26.231510">
<ele>146.763794</ele>
<time>2010-07-17T11:39:48Z</time>
<desc>lat.=55.731319, lon.=26.231510, Alt.=146.763794m. Speed=0.072000m/h.</desc>
<speed>0.020000</speed>
</trkpt>
<trkpt lat="55.731319" lon="26.231510">
<ele>146.759888</ele>
<time>2010-07-17T11:39:49Z</time>
<desc>lat.=55.731319, lon.=26.231510, Alt.=146.759888m. Speed=0.036000m/h.</desc>
<speed>0.010000</speed>
</trkpt>
<trkpt lat="55.731319" lon="26.231510">
<ele>146.752075</ele>
<time>2010-07-17T11:39:50Z</time>
<desc>lat.=55.731319, lon.=26.231510, Alt.=146.752075m. Speed=0.072000m/h.</desc>
<speed>0.020000</speed>
</trkpt>
<trkpt lat="55.731319" lon="26.231510">
<ele>146.752075</ele>
<time>2010-07-17T11:39:51Z</time>
<desc>lat.=55.731319, lon.=26.231510, Alt.=146.752075m. Speed=0.072000m/h.</desc>
<speed>0.020000</speed>
</trkpt>
<trkpt lat="55.731319" lon="26.231510">
<ele>146.759888</ele>
<time>2010-07-17T11:39:52Z</time>
<desc>lat.=55.731319, lon.=26.231510, Alt.=146.759888m. Speed=0.108000m/h.</desc>
<speed>0.030000</speed>
</trkpt>
<trkpt lat="55.731319" lon="26.231510">
<ele>146.771606</ele>
<time>2010-07-17T11:39:53Z</time>
<desc>lat.=55.731319, lon.=26.231510, Alt.=146.771606m. Speed=0.108000m/h.</desc>
<speed>0.030000</speed>
</trkpt>
<trkpt lat="55.731319" lon="26.231510">
<ele>146.775513</ele>
<time>2010-07-17T11:39:54Z</time>
<desc>lat.=55.731319, lon.=26.231510, Alt.=146.775513m. Speed=0.108000m/h.</desc>
<speed>0.030000</speed>
</trkpt>
<trkpt lat="55.731319" lon="26.231510">
<ele>146.771606</ele>
<time>2010-07-17T11:39:55Z</time>
<desc>lat.=55.731319, lon.=26.231510, Alt.=146.771606m. Speed=0.036000m/h.</desc>
<speed>0.010000</speed>
</trkpt>
<trkpt lat="55.731323" lon="26.231510">
<ele>146.775513</ele>
<time>2010-07-17T11:39:56Z</time>
<desc>lat.=55.731323, lon.=26.231510, Alt.=146.775513m. Speed=0.072000m/h.</desc>
<speed>0.020000</speed>
</trkpt>
<trkpt lat="55.731323" lon="26.231510">
<ele>146.775513</ele>
<time>2010-07-17T11:39:57Z</time>
<desc>lat.=55.731323, lon.=26.231510, Alt.=146.775513m. Speed=0.000000m/h.</desc>
<speed>0.000000</speed>
</trkpt>
<trkpt lat="55.731323" lon="26.231510">
<ele>146.767700</ele>
<time>2010-07-17T11:39:58Z</time>
<desc>lat.=55.731323, lon.=26.231510, Alt.=146.767700m. Speed=0.036000m/h.</desc>
<speed>0.010000</speed>
</trkpt>
<trkpt lat="55.731323" lon="26.231510">
<ele>146.752075</ele>
<time>2010-07-17T11:39:59Z</time>
<desc>lat.=55.731323, lon.=26.231510, Alt.=146.752075m. Speed=0.072000m/h.</desc>
<speed>0.020000</speed>
</trkpt>
<trkpt lat="55.731323" lon="26.231510">
<ele>146.732544</ele>
<time>2010-07-17T11:40:00Z</time>
<desc>lat.=55.731323, lon.=26.231510, Alt.=146.732544m. Speed=0.000000m/h.</desc>
<speed>0.000000</speed>
</trkpt>
<trkpt lat="55.731323" lon="26.231510">
<ele>146.732544</ele>
<time>2010-07-17T11:40:01Z</time>
<desc>lat.=55.731323, lon.=26.231510, Alt.=146.732544m. Speed=0.072000m/h.</desc>
<speed>0.020000</speed>
</trkpt>
<trkpt lat="55.731323" lon="26.231512">
<ele>146.716919</ele>
<time>2010-07-17T11:40:02Z</time>
<desc>lat.=55.731323, lon.=26.231512, Alt.=146.716919m. Speed=0.108000m/h.</desc>
<speed>0.030000</speed>
</trkpt>
<trkpt lat="55.731323" lon="26.231512">
<ele>146.709106</ele>
<time>2010-07-17T11:40:03Z</time>
<desc>lat.=55.731323, lon.=26.231512, Alt.=146.709106m. Speed=0.252000m/h.</desc>
<speed>0.070000</speed>
</trkpt>
<trkpt lat="55.731323" lon="26.231512">
<ele>146.697388</ele>
<time>2010-07-17T11:40:04Z</time>
<desc>lat.=55.731323, lon.=26.231512, Alt.=146.697388m. Speed=0.288000m/h.</desc>
<speed>0.080000</speed>
</trkpt>
<trkpt lat="55.731323" lon="26.231512">
<ele>146.689575</ele>
<time>2010-07-17T11:40:05Z</time>
<desc>lat.=55.731323, lon.=26.231512, Alt.=146.689575m. Speed=0.144000m/h.</desc>
<speed>0.040000</speed>
</trkpt>
<trkpt lat="55.731323" lon="26.231512">
<ele>146.681763</ele>
<time>2010-07-17T11:40:06Z</time>
<desc>lat.=55.731323, lon.=26.231512, Alt.=146.681763m. Speed=0.144000m/h.</desc>
<speed>0.040000</speed>
</trkpt>
<trkpt lat="55.731323" lon="26.231512">
<ele>146.670044</ele>
<time>2010-07-17T11:40:07Z</time>
<desc>lat.=55.731323, lon.=26.231512, Alt.=146.670044m. Speed=0.072000m/h.</desc>
<speed>0.020000</speed>
</trkpt>
<trkpt lat="55.731323" lon="26.231512">
<ele>146.658325</ele>
<time>2010-07-17T11:40:08Z</time>
<desc>lat.=55.731323, lon.=26.231512, Alt.=146.658325m. Speed=0.036000m/h.</desc>
<speed>0.010000</speed>
</trkpt>
<trkpt lat="55.731323" lon="26.231512">
<ele>146.658325</ele>
<time>2010-07-17T11:40:09Z</time>
<desc>lat.=55.731323, lon.=26.231512, Alt.=146.658325m. Speed=0.000000m/h.</desc>
<speed>0.000000</speed>
</trkpt>
<trkpt lat="55.731323" lon="26.231512">
<ele>146.646606</ele>
<time>2010-07-17T11:40:10Z</time>
<desc>lat.=55.731323, lon.=26.231512, Alt.=146.646606m. Speed=0.036000m/h.</desc>
<speed>0.010000</speed>
</trkpt>
<trkpt lat="55.731323" lon="26.231512">
<ele>146.646606</ele>
<time>2010-07-17T11:40:11Z</time>
<desc>lat.=55.731323, lon.=26.231512, Alt.=146.646606m. Speed=0.000000m/h.</desc>
<speed>0.000000</speed>
</trkpt>
<trkpt lat="55.731323" lon="26.231512">
<ele>146.638794</ele>
<time>2010-07-17T11:40:12Z</time>
<desc>lat.=55.731323, lon.=26.231512, Alt.=146.638794m. Speed=0.036000m/h.</desc>
<speed>0.010000</speed>
</trkpt>
<trkpt lat="55.731323" lon="26.231512">
<ele>146.627075</ele>
<time>2010-07-17T11:40:13Z</time>
<desc>lat.=55.731323, lon.=26.231512, Alt.=146.627075m. Speed=0.000000m/h.</desc>
<speed>0.000000</speed>
</trkpt>
<trkpt lat="55.731323" lon="26.231512">
<ele>146.615356</ele>
<time>2010-07-17T11:40:14Z</time>
<desc>lat.=55.731323, lon.=26.231512, Alt.=146.615356m. Speed=0.000000m/h.</desc>
<speed>0.000000</speed>
</trkpt>
<trkpt lat="55.731323" lon="26.231512">
<ele>146.607544</ele>
<time>2010-07-17T11:40:15Z</time>
<desc>lat.=55.731323, lon.=26.231512, Alt.=146.607544m. Speed=0.000000m/h.</desc>
<speed>0.000000</speed>
</trkpt>
<trkpt lat="55.731323" lon="26.231512">
<ele>146.595825</ele>
<time>2010-07-17T11:40:16Z</time>
<desc>lat.=55.731323, lon.=26.231512, Alt.=146.595825m. Speed=0.000000m/h.</desc>
<speed>0.000000</speed>
</trkpt>
<trkpt lat="55.731323" lon="26.231512">
<ele>146.584106</ele>
<time>2010-07-17T11:40:17Z</time>
<desc>lat.=55.731323, lon.=26.231512, Alt.=146.584106m. Speed=0.036000m/h.</desc>
<speed>0.010000</speed>
</trkpt>
<trkpt lat="55.731323" lon="26.231512">
<ele>146.580200</ele>
<time>2010-07-17T11:40:18Z</time>
<desc>lat.=55.731323, lon.=26.231512, Alt.=146.580200m. Speed=0.000000m/h.</desc>
<speed>0.000000</speed>
</trkpt>
<trkpt lat="55.731323" lon="26.231512">
<ele>146.572388</ele>
<time>2010-07-17T11:40:19Z</time>
<desc>lat.=55.731323, lon.=26.231512, Alt.=146.572388m. Speed=0.000000m/h.</desc>
<speed>0.000000</speed>
</trkpt>
<trkpt lat="55.731323" lon="26.231512">
<ele>146.568481</ele>
<time>2010-07-17T11:40:20Z</time>
<desc>lat.=55.731323, lon.=26.231512, Alt.=146.568481m. Speed=0.000000m/h.</desc>
<speed>0.000000</speed>
</trkpt>
<trkpt lat="55.731323" lon="26.231512">
<ele>146.560669</ele>
<time>2010-07-17T11:40:21Z</time>
<desc>lat.=55.731323, lon.=26.231512, Alt.=146.560669m. Speed=0.000000m/h.</desc>
<speed>0.000000</speed>
</trkpt>
<trkpt lat="55.731323" lon="26.231514">
<ele>146.560669</ele>
<time>2010-07-17T11:40:22Z</time>
<desc>lat.=55.731323, lon.=26.231514, Alt.=146.560669m. Speed=0.000000m/h.</desc>
<speed>0.000000</speed>
</trkpt>
<trkpt lat="55.731323" lon="26.231514">
<ele>146.560669</ele>
<time>2010-07-17T11:40:23Z</time>
<desc>lat.=55.731323, lon.=26.231514, Alt.=146.560669m. Speed=0.000000m/h.</desc>
<speed>0.000000</speed>
</trkpt>
<trkpt lat="55.731323" lon="26.231514">
<ele>146.560669</ele>
<time>2010-07-17T11:40:24Z</time>
<desc>lat.=55.731323, lon.=26.231514, Alt.=146.560669m. Speed=0.000000m/h.</desc>
<speed>0.000000</speed>
</trkpt>
<trkpt lat="55.731323" lon="26.231514">
<ele>146.556763</ele>
<time>2010-07-17T11:40:25Z</time>
<desc>lat.=55.731323, lon.=26.231514, Alt.=146.556763m. Speed=0.072000m/h.</desc>
<speed>0.020000</speed>
</trkpt>
<trkpt lat="55.731327" lon="26.231514">
<ele>146.560669</ele>
<time>2010-07-17T11:40:26Z</time>
<desc>lat.=55.731327, lon.=26.231514, Alt.=146.560669m. Speed=0.036000m/h.</desc>
<speed>0.010000</speed>
</trkpt>
<trkpt lat="55.731327" lon="26.231514">
<ele>146.560669</ele>
<time>2010-07-17T11:40:27Z</time>
<desc>lat.=55.731327, lon.=26.231514, Alt.=146.560669m. Speed=0.036000m/h.</desc>
<speed>0.010000</speed>
</trkpt>
<trkpt lat="55.731327" lon="26.231514">
<ele>146.564575</ele>
<time>2010-07-17T11:40:28Z</time>
<desc>lat.=55.731327, lon.=26.231514, Alt.=146.564575m. Speed=0.000000m/h.</desc>
<speed>0.000000</speed>
</trkpt>
<trkpt lat="55.731327" lon="26.231514">
<ele>146.560669</ele>
<time>2010-07-17T11:40:29Z</time>
<desc>lat.=55.731327, lon.=26.231514, Alt.=146.560669m. Speed=0.036000m/h.</desc>
<speed>0.010000</speed>
</trkpt>
<trkpt lat="55.731327" lon="26.231514">
<ele>146.560669</ele>
<time>2010-07-17T11:40:30Z</time>
<desc>lat.=55.731327, lon.=26.231514, Alt.=146.560669m. Speed=0.000000m/h.</desc>
<speed>0.000000</speed>
</trkpt>
<trkpt lat="55.731327" lon="26.231514">
<ele>146.556763</ele>
<time>2010-07-17T11:40:31Z</time>
<desc>lat.=55.731327, lon.=26.231514, Alt.=146.556763m. Speed=0.000000m/h.</desc>
<speed>0.000000</speed>
</trkpt>
<trkpt lat="55.731327" lon="26.231512">
<ele>146.552856</ele>
<time>2010-07-17T11:40:32Z</time>
<desc>lat.=55.731327, lon.=26.231512, Alt.=146.552856m. Speed=0.036000m/h.</desc>
<speed>0.010000</speed>
</trkpt>
<trkpt lat="55.731327" lon="26.231512">
<ele>146.548950</ele>
<time>2010-07-17T11:40:33Z</time>
<desc>lat.=55.731327, lon.=26.231512, Alt.=146.548950m. Speed=0.000000m/h.</desc>
<speed>0.000000</speed>
</trkpt>
<trkpt lat="55.731327" lon="26.231512">
<ele>146.548950</ele>
<time>2010-07-17T11:40:34Z</time>
<desc>lat.=55.731327, lon.=26.231512, Alt.=146.548950m. Speed=0.000000m/h.</desc>
<speed>0.000000</speed>
</trkpt>
<trkpt lat="55.731327" lon="26.231512">
<ele>146.548950</ele>
<time>2010-07-17T11:40:35Z</time>
<desc>lat.=55.731327, lon.=26.231512, Alt.=146.548950m. Speed=0.000000m/h.</desc>
<speed>0.000000</speed>
</trkpt>
<trkpt lat="55.731327" lon="26.231512">
<ele>146.548950</ele>
<time>2010-07-17T11:40:36Z</time>
<desc>lat.=55.731327, lon.=26.231512, Alt.=146.548950m. Speed=0.000000m/h.</desc>
<speed>0.000000</speed>
</trkpt>
<trkpt lat="55.731327" lon="26.231512">
<ele>146.548950</ele>
<time>2010-07-17T11:40:37Z</time>
<desc>lat.=55.731327, lon.=26.231512, Alt.=146.548950m. Speed=0.036000m/h.</desc>
<speed>0.010000</speed>
</trkpt>
<trkpt lat="55.731327" lon="26.231512">
<ele>146.548950</ele>
<time>2010-07-17T11:40:38Z</time>
<desc>lat.=55.731327, lon.=26.231512, Alt.=146.548950m. Speed=0.036000m/h.</desc>
<speed>0.010000</speed>
</trkpt>
<trkpt lat="55.731327" lon="26.231512">
<ele>146.548950</ele>
<time>2010-07-17T11:40:39Z</time>
<desc>lat.=55.731327, lon.=26.231512, Alt.=146.548950m. Speed=0.036000m/h.</desc>
<speed>0.010000</speed>
</trkpt>
<trkpt lat="55.731327" lon="26.231512">
<ele>146.541138</ele>
<time>2010-07-17T11:40:40Z</time>
<desc>lat.=55.731327, lon.=26.231512, Alt.=146.541138m. Speed=0.072000m/h.</desc>
<speed>0.020000</speed>
</trkpt>
<trkpt lat="55.731327" lon="26.231512">
<ele>146.541138</ele>
<time>2010-07-17T11:40:41Z</time>
<desc>lat.=55.731327, lon.=26.231512, Alt.=146.541138m. Speed=0.108000m/h.</desc>
<speed>0.030000</speed>
</trkpt>
<trkpt lat="55.731327" lon="26.231512">
<ele>146.541138</ele>
<time>2010-07-17T11:40:42Z</time>
<desc>lat.=55.731327, lon.=26.231512, Alt.=146.541138m. Speed=0.036000m/h.</desc>
<speed>0.010000</speed>
</trkpt>
<trkpt lat="55.731327" lon="26.231512">
<ele>146.537231</ele>
<time>2010-07-17T11:40:43Z</time>
<desc>lat.=55.731327, lon.=26.231512, Alt.=146.537231m. Speed=0.000000m/h.</desc>
<speed>0.000000</speed>
</trkpt>
<trkpt lat="55.731327" lon="26.231512">
<ele>146.533325</ele>
<time>2010-07-17T11:40:44Z</time>
<desc>lat.=55.731327, lon.=26.231512, Alt.=146.533325m. Speed=0.036000m/h.</desc>
<speed>0.010000</speed>
</trkpt>
<trkpt lat="55.731327" lon="26.231512">
<ele>146.533325</ele>
<time>2010-07-17T11:40:45Z</time>
<desc>lat.=55.731327, lon.=26.231512, Alt.=146.533325m. Speed=0.000000m/h.</desc>
<speed>0.000000</speed>
</trkpt>
<trkpt lat="55.731327" lon="26.231512">
<ele>146.529419</ele>
<time>2010-07-17T11:40:46Z</time>
<desc>lat.=55.731327, lon.=26.231512, Alt.=146.529419m. Speed=0.000000m/h.</desc>
<speed>0.000000</speed>
</trkpt>
<trkpt lat="55.731327" lon="26.231512">
<ele>146.533325</ele>
<time>2010-07-17T11:40:47Z</time>
<desc>lat.=55.731327, lon.=26.231512, Alt.=146.533325m. Speed=0.036000m/h.</desc>
<speed>0.010000</speed>
</trkpt>
<trkpt lat="55.731327" lon="26.231512">
<ele>146.529419</ele>
<time>2010-07-17T11:40:48Z</time>
<desc>lat.=55.731327, lon.=26.231512, Alt.=146.529419m. Speed=0.072000m/h.</desc>
<speed>0.020000</speed>
</trkpt>
<trkpt lat="55.731327" lon="26.231512">
<ele>146.525513</ele>
<time>2010-07-17T11:40:49Z</time>
<desc>lat.=55.731327, lon.=26.231512, Alt.=146.525513m. Speed=0.000000m/h.</desc>
<speed>0.000000</speed>
</trkpt>
<trkpt lat="55.731327" lon="26.231512">
<ele>146.525513</ele>
<time>2010-07-17T11:40:50Z</time>
<desc>lat.=55.731327, lon.=26.231512, Alt.=146.525513m. Speed=0.072000m/h.</desc>
<speed>0.020000</speed>
</trkpt>
<trkpt lat="55.731327" lon="26.231512">
<ele>146.521606</ele>
<time>2010-07-17T11:40:51Z</time>
<desc>lat.=55.731327, lon.=26.231512, Alt.=146.521606m. Speed=0.036000m/h.</desc>
<speed>0.010000</speed>
</trkpt>
<trkpt lat="55.731327" lon="26.231512">
<ele>146.521606</ele>
<time>2010-07-17T11:40:52Z</time>
<desc>lat.=55.731327, lon.=26.231512, Alt.=146.521606m. Speed=0.036000m/h.</desc>
<speed>0.010000</speed>
</trkpt>
<trkpt lat="55.731327" lon="26.231512">
<ele>146.521606</ele>
<time>2010-07-17T11:40:53Z</time>
<desc>lat.=55.731327, lon.=26.231512, Alt.=146.521606m. Speed=0.000000m/h.</desc>
<speed>0.000000</speed>
</trkpt>
<trkpt lat="55.731327" lon="26.231512">
<ele>146.521606</ele>
<time>2010-07-17T11:40:54Z</time>
<desc>lat.=55.731327, lon.=26.231512, Alt.=146.521606m. Speed=0.000000m/h.</desc>
<speed>0.000000</speed>
</trkpt>
<trkpt lat="55.731327" lon="26.231512">
<ele>146.513794</ele>
<time>2010-07-17T11:40:55Z</time>
<desc>lat.=55.731327, lon.=26.231512, Alt.=146.513794m. Speed=0.252000m/h.</desc>
<speed>0.070000</speed>
</trkpt>
<trkpt lat="55.731327" lon="26.231512">
<ele>146.513794</ele>
<time>2010-07-17T11:40:56Z</time>
<desc>lat.=55.731327, lon.=26.231512, Alt.=146.513794m. Speed=0.072000m/h.</desc>
<speed>0.020000</speed>
</trkpt>
<trkpt lat="55.731327" lon="26.231512">
<ele>146.513794</ele>
<time>2010-07-17T11:40:57Z</time>
<desc>lat.=55.731327, lon.=26.231512, Alt.=146.513794m. Speed=0.072000m/h.</desc>
<speed>0.020000</speed>
</trkpt>
<trkpt lat="55.731327" lon="26.231512">
<ele>146.517700</ele>
<time>2010-07-17T11:40:58Z</time>
<desc>lat.=55.731327, lon.=26.231512, Alt.=146.517700m. Speed=0.000000m/h.</desc>
<speed>0.000000</speed>
</trkpt>
<trkpt lat="55.731327" lon="26.231512">
<ele>146.521606</ele>
<time>2010-07-17T11:40:59Z</time>
<desc>lat.=55.731327, lon.=26.231512, Alt.=146.521606m. Speed=0.036000m/h.</desc>
<speed>0.010000</speed>
</trkpt>
<trkpt lat="55.731327" lon="26.231512">
<ele>146.529419</ele>
<time>2010-07-17T11:41:00Z</time>
<desc>lat.=55.731327, lon.=26.231512, Alt.=146.529419m. Speed=0.036000m/h.</desc>
<speed>0.010000</speed>
</trkpt>
<trkpt lat="55.731327" lon="26.231512">
<ele>146.533325</ele>
<time>2010-07-17T11:41:01Z</time>
<desc>lat.=55.731327, lon.=26.231512, Alt.=146.533325m. Speed=0.036000m/h.</desc>
<speed>0.010000</speed>
</trkpt>
<trkpt lat="55.731327" lon="26.231512">
<ele>146.537231</ele>
<time>2010-07-17T11:41:02Z</time>
<desc>lat.=55.731327, lon.=26.231512, Alt.=146.537231m. Speed=0.036000m/h.</desc>
<speed>0.010000</speed>
</trkpt>
<trkpt lat="55.731327" lon="26.231512">
<ele>146.541138</ele>
<time>2010-07-17T11:41:03Z</time>
<desc>lat.=55.731327, lon.=26.231512, Alt.=146.541138m. Speed=0.036000m/h.</desc>
<speed>0.010000</speed>
</trkpt>
<trkpt lat="55.731327" lon="26.231512">
<ele>146.545044</ele>
<time>2010-07-17T11:41:04Z</time>
<desc>lat.=55.731327, lon.=26.231512, Alt.=146.545044m. Speed=0.108000m/h.</desc>
<speed>0.030000</speed>
</trkpt>
<trkpt lat="55.731327" lon="26.231512">
<ele>146.548950</ele>
<time>2010-07-17T11:41:05Z</time>
<desc>lat.=55.731327, lon.=26.231512, Alt.=146.548950m. Speed=0.036000m/h.</desc>
<speed>0.010000</speed>
</trkpt>
<trkpt lat="55.731327" lon="26.231512">
<ele>146.548950</ele>
<time>2010-07-17T11:41:06Z</time>
<desc>lat.=55.731327, lon.=26.231512, Alt.=146.548950m. Speed=0.000000m/h.</desc>
<speed>0.000000</speed>
</trkpt>
<trkpt lat="55.731327" lon="26.231512">
<ele>146.548950</ele>
<time>2010-07-17T11:41:07Z</time>
<desc>lat.=55.731327, lon.=26.231512, Alt.=146.548950m. Speed=0.000000m/h.</desc>
<speed>0.000000</speed>
</trkpt>
<trkpt lat="55.731327" lon="26.231512">
<ele>146.556763</ele>
<time>2010-07-17T11:41:08Z</time>
<desc>lat.=55.731327, lon.=26.231512, Alt.=146.556763m. Speed=0.072000m/h.</desc>
<speed>0.020000</speed>
</trkpt>
<trkpt lat="55.731327" lon="26.231512">
<ele>146.560669</ele>
<time>2010-07-17T11:41:09Z</time>
<desc>lat.=55.731327, lon.=26.231512, Alt.=146.560669m. Speed=0.108000m/h.</desc>
<speed>0.030000</speed>
</trkpt>
<trkpt lat="55.731327" lon="26.231512">
<ele>146.564575</ele>
<time>2010-07-17T11:41:10Z</time>
<desc>lat.=55.731327, lon.=26.231512, Alt.=146.564575m. Speed=0.180000m/h.</desc>
<speed>0.050000</speed>
</trkpt>
<trkpt lat="55.731327" lon="26.231512">
<ele>146.572388</ele>
<time>2010-07-17T11:41:11Z</time>
<desc>lat.=55.731327, lon.=26.231512, Alt.=146.572388m. Speed=0.072000m/h.</desc>
<speed>0.020000</speed>
</trkpt>
<trkpt lat="55.731327" lon="26.231512">
<ele>146.576294</ele>
<time>2010-07-17T11:41:12Z</time>
<desc>lat.=55.731327, lon.=26.231512, Alt.=146.576294m. Speed=0.108000m/h.</desc>
<speed>0.030000</speed>
</trkpt>
<trkpt lat="55.731327" lon="26.231512">
<ele>146.584106</ele>
<time>2010-07-17T11:41:13Z</time>
<desc>lat.=55.731327, lon.=26.231512, Alt.=146.584106m. Speed=0.108000m/h.</desc>
<speed>0.030000</speed>
</trkpt>
<trkpt lat="55.731327" lon="26.231512">
<ele>146.584106</ele>
<time>2010-07-17T11:41:14Z</time>
<desc>lat.=55.731327, lon.=26.231512, Alt.=146.584106m. Speed=0.072000m/h.</desc>
<speed>0.020000</speed>
</trkpt>
<trkpt lat="55.731327" lon="26.231512">
<ele>146.588013</ele>
<time>2010-07-17T11:41:15Z</time>
<desc>lat.=55.731327, lon.=26.231512, Alt.=146.588013m. Speed=0.072000m/h.</desc>
<speed>0.020000</speed>
</trkpt>
<trkpt lat="55.731327" lon="26.231512">
<ele>146.591919</ele>
<time>2010-07-17T11:41:16Z</time>
<desc>lat.=55.731327, lon.=26.231512, Alt.=146.591919m. Speed=0.036000m/h.</desc>
<speed>0.010000</speed>
</trkpt>
<trkpt lat="55.731327" lon="26.231512">
<ele>146.599731</ele>
<time>2010-07-17T11:41:17Z</time>
<desc>lat.=55.731327, lon.=26.231512, Alt.=146.599731m. Speed=0.036000m/h.</desc>
<speed>0.010000</speed>
</trkpt>
<trkpt lat="55.731327" lon="26.231512">
<ele>146.599731</ele>
<time>2010-07-17T11:41:18Z</time>
<desc>lat.=55.731327, lon.=26.231512, Alt.=146.599731m. Speed=0.072000m/h.</desc>
<speed>0.020000</speed>
</trkpt>
<trkpt lat="55.731327" lon="26.231510">
<ele>146.607544</ele>
<time>2010-07-17T11:41:19Z</time>
<desc>lat.=55.731327, lon.=26.231510, Alt.=146.607544m. Speed=0.036000m/h.</desc>
<speed>0.010000</speed>
</trkpt>
<trkpt lat="55.731327" lon="26.231510">
<ele>146.611450</ele>
<time>2010-07-17T11:41:20Z</time>
<desc>lat.=55.731327, lon.=26.231510, Alt.=146.611450m. Speed=0.036000m/h.</desc>
<speed>0.010000</speed>
</trkpt>
<trkpt lat="55.731327" lon="26.231510">
<ele>146.619263</ele>
<time>2010-07-17T11:41:21Z</time>
<desc>lat.=55.731327, lon.=26.231510, Alt.=146.619263m. Speed=0.108000m/h.</desc>
<speed>0.030000</speed>
</trkpt>
<trkpt lat="55.731327" lon="26.231510">
<ele>146.627075</ele>
<time>2010-07-17T11:41:22Z</time>
<desc>lat.=55.731327, lon.=26.231510, Alt.=146.627075m. Speed=0.180000m/h.</desc>
<speed>0.050000</speed>
</trkpt>
<trkpt lat="55.731331" lon="26.231510">
<ele>146.627075</ele>
<time>2010-07-17T11:41:23Z</time>
<desc>lat.=55.731331, lon.=26.231510, Alt.=146.627075m. Speed=0.144000m/h.</desc>
<speed>0.040000</speed>
</trkpt>
<trkpt lat="55.731331" lon="26.231510">
<ele>146.627075</ele>
<time>2010-07-17T11:41:24Z</time>
<desc>lat.=55.731331, lon.=26.231510, Alt.=146.627075m. Speed=0.144000m/h.</desc>
<speed>0.040000</speed>
</trkpt>
<trkpt lat="55.731331" lon="26.231510">
<ele>146.627075</ele>
<time>2010-07-17T11:41:25Z</time>
<desc>lat.=55.731331, lon.=26.231510, Alt.=146.627075m. Speed=0.036000m/h.</desc>
<speed>0.010000</speed>
</trkpt>
<trkpt lat="55.731331" lon="26.231510">
<ele>146.627075</ele>
<time>2010-07-17T11:41:26Z</time>
<desc>lat.=55.731331, lon.=26.231510, Alt.=146.627075m. Speed=0.036000m/h.</desc>
<speed>0.010000</speed>
</trkpt>
<trkpt lat="55.731331" lon="26.231510">
<ele>146.619263</ele>
<time>2010-07-17T11:41:27Z</time>
<desc>lat.=55.731331, lon.=26.231510, Alt.=146.619263m. Speed=0.072000m/h.</desc>
<speed>0.020000</speed>
</trkpt>
<trkpt lat="55.731331" lon="26.231510">
<ele>146.607544</ele>
<time>2010-07-17T11:41:28Z</time>
<desc>lat.=55.731331, lon.=26.231510, Alt.=146.607544m. Speed=0.288000m/h.</desc>
<speed>0.080000</speed>
</trkpt>
<trkpt lat="55.731331" lon="26.231510">
<ele>146.595825</ele>
<time>2010-07-17T11:41:29Z</time>
<desc>lat.=55.731331, lon.=26.231510, Alt.=146.595825m. Speed=0.072000m/h.</desc>
<speed>0.020000</speed>
</trkpt>
<trkpt lat="55.731331" lon="26.231510">
<ele>146.584106</ele>
<time>2010-07-17T11:41:30Z</time>
<desc>lat.=55.731331, lon.=26.231510, Alt.=146.584106m. Speed=0.072000m/h.</desc>
<speed>0.020000</speed>
</trkpt>
<trkpt lat="55.731331" lon="26.231510">
<ele>146.564575</ele>
<time>2010-07-17T11:41:31Z</time>
<desc>lat.=55.731331, lon.=26.231510, Alt.=146.564575m. Speed=0.288000m/h.</desc>
<speed>0.080000</speed>
</trkpt>
<trkpt lat="55.731331" lon="26.231510">
<ele>146.560669</ele>
<time>2010-07-17T11:41:32Z</time>
<desc>lat.=55.731331, lon.=26.231510, Alt.=146.560669m. Speed=0.144000m/h.</desc>
<speed>0.040000</speed>
</trkpt>
<trkpt lat="55.731331" lon="26.231510">
<ele>146.556763</ele>
<time>2010-07-17T11:41:33Z</time>
<desc>lat.=55.731331, lon.=26.231510, Alt.=146.556763m. Speed=0.000000m/h.</desc>
<speed>0.000000</speed>
</trkpt>
<trkpt lat="55.731331" lon="26.231508">
<ele>146.552856</ele>
<time>2010-07-17T11:41:34Z</time>
<desc>lat.=55.731331, lon.=26.231508, Alt.=146.552856m. Speed=0.072000m/h.</desc>
<speed>0.020000</speed>
</trkpt>
<trkpt lat="55.731331" lon="26.231508">
<ele>146.548950</ele>
<time>2010-07-17T11:41:35Z</time>
<desc>lat.=55.731331, lon.=26.231508, Alt.=146.548950m. Speed=0.000000m/h.</desc>
<speed>0.000000</speed>
</trkpt>
<trkpt lat="55.731331" lon="26.231508">
<ele>146.548950</ele>
<time>2010-07-17T11:41:36Z</time>
<desc>lat.=55.731331, lon.=26.231508, Alt.=146.548950m. Speed=0.072000m/h.</desc>
<speed>0.020000</speed>
</trkpt>
<trkpt lat="55.731331" lon="26.231508">
<ele>146.541138</ele>
<time>2010-07-17T11:41:37Z</time>
<desc>lat.=55.731331, lon.=26.231508, Alt.=146.541138m. Speed=0.072000m/h.</desc>
<speed>0.020000</speed>
</trkpt>
<trkpt lat="55.731331" lon="26.231508">
<ele>146.533325</ele>
<time>2010-07-17T11:41:38Z</time>
<desc>lat.=55.731331, lon.=26.231508, Alt.=146.533325m. Speed=0.036000m/h.</desc>
<speed>0.010000</speed>
</trkpt>
<trkpt lat="55.731331" lon="26.231508">
<ele>146.517700</ele>
<time>2010-07-17T11:41:39Z</time>
<desc>lat.=55.731331, lon.=26.231508, Alt.=146.517700m. Speed=0.036000m/h.</desc>
<speed>0.010000</speed>
</trkpt>
<trkpt lat="55.731331" lon="26.231508">
<ele>146.513794</ele>
<time>2010-07-17T11:41:40Z</time>
<desc>lat.=55.731331, lon.=26.231508, Alt.=146.513794m. Speed=0.036000m/h.</desc>
<speed>0.010000</speed>
</trkpt>
<trkpt lat="55.731331" lon="26.231508">
<ele>146.513794</ele>
<time>2010-07-17T11:41:41Z</time>
<desc>lat.=55.731331, lon.=26.231508, Alt.=146.513794m. Speed=0.036000m/h.</desc>
<speed>0.010000</speed>
</trkpt>
<trkpt lat="55.731331" lon="26.231508">
<ele>146.517700</ele>
<time>2010-07-17T11:41:42Z</time>
<desc>lat.=55.731331, lon.=26.231508, Alt.=146.517700m. Speed=0.000000m/h.</desc>
<speed>0.000000</speed>
</trkpt>
<trkpt lat="55.731331" lon="26.231508">
<ele>146.517700</ele>
<time>2010-07-17T11:41:43Z</time>
<desc>lat.=55.731331, lon.=26.231508, Alt.=146.517700m. Speed=0.036000m/h.</desc>
<speed>0.010000</speed>
</trkpt>
<trkpt lat="55.731331" lon="26.231508">
<ele>146.521606</ele>
<time>2010-07-17T11:41:44Z</time>
<desc>lat.=55.731331, lon.=26.231508, Alt.=146.521606m. Speed=0.036000m/h.</desc>
<speed>0.010000</speed>
</trkpt>
<trkpt lat="55.731331" lon="26.231508">
<ele>146.521606</ele>
<time>2010-07-17T11:41:45Z</time>
<desc>lat.=55.731331, lon.=26.231508, Alt.=146.521606m. Speed=0.000000m/h.</desc>
<speed>0.000000</speed>
</trkpt>
<trkpt lat="55.731331" lon="26.231508">
<ele>146.529419</ele>
<time>2010-07-17T11:41:46Z</time>
<desc>lat.=55.731331, lon.=26.231508, Alt.=146.529419m. Speed=0.072000m/h.</desc>
<speed>0.020000</speed>
</trkpt>
<trkpt lat="55.731331" lon="26.231508">
<ele>146.529419</ele>
<time>2010-07-17T11:41:47Z</time>
<desc>lat.=55.731331, lon.=26.231508, Alt.=146.529419m. Speed=0.036000m/h.</desc>
<speed>0.010000</speed>
</trkpt>
<trkpt lat="55.731331" lon="26.231508">
<ele>146.521606</ele>
<time>2010-07-17T11:41:48Z</time>
<desc>lat.=55.731331, lon.=26.231508, Alt.=146.521606m. Speed=0.108000m/h.</desc>
<speed>0.030000</speed>
</trkpt>
<trkpt lat="55.731331" lon="26.231508">
<ele>146.517700</ele>
<time>2010-07-17T11:41:49Z</time>
<desc>lat.=55.731331, lon.=26.231508, Alt.=146.517700m. Speed=0.360000m/h.</desc>
<speed>0.100000</speed>
</trkpt>
<trkpt lat="55.731331" lon="26.231508">
<ele>146.517700</ele>
<time>2010-07-17T11:41:50Z</time>
<desc>lat.=55.731331, lon.=26.231508, Alt.=146.517700m. Speed=0.072000m/h.</desc>
<speed>0.020000</speed>
</trkpt>
<trkpt lat="55.731331" lon="26.231508">
<ele>146.513794</ele>
<time>2010-07-17T11:41:51Z</time>
<desc>lat.=55.731331, lon.=26.231508, Alt.=146.513794m. Speed=0.072000m/h.</desc>
<speed>0.020000</speed>
</trkpt>
<trkpt lat="55.731331" lon="26.231508">
<ele>146.505981</ele>
<time>2010-07-17T11:41:52Z</time>
<desc>lat.=55.731331, lon.=26.231508, Alt.=146.505981m. Speed=0.000000m/h.</desc>
<speed>0.000000</speed>
</trkpt>
<trkpt lat="55.731331" lon="26.231508">
<ele>146.494263</ele>
<time>2010-07-17T11:41:53Z</time>
<desc>lat.=55.731331, lon.=26.231508, Alt.=146.494263m. Speed=0.000000m/h.</desc>
<speed>0.000000</speed>
</trkpt>
<trkpt lat="55.731331" lon="26.231508">
<ele>146.490356</ele>
<time>2010-07-17T11:41:54Z</time>
<desc>lat.=55.731331, lon.=26.231508, Alt.=146.490356m. Speed=0.036000m/h.</desc>
<speed>0.010000</speed>
</trkpt>
<trkpt lat="55.731331" lon="26.231508">
<ele>146.482544</ele>
<time>2010-07-17T11:41:55Z</time>
<desc>lat.=55.731331, lon.=26.231508, Alt.=146.482544m. Speed=0.000000m/h.</desc>
<speed>0.000000</speed>
</trkpt>
<trkpt lat="55.731331" lon="26.231508">
<ele>146.474731</ele>
<time>2010-07-17T11:41:56Z</time>
<desc>lat.=55.731331, lon.=26.231508, Alt.=146.474731m. Speed=0.036000m/h.</desc>
<speed>0.010000</speed>
</trkpt>
<trkpt lat="55.731331" lon="26.231508">
<ele>146.470825</ele>
<time>2010-07-17T11:41:57Z</time>
<desc>lat.=55.731331, lon.=26.231508, Alt.=146.470825m. Speed=0.036000m/h.</desc>
<speed>0.010000</speed>
</trkpt>
<trkpt lat="55.731331" lon="26.231508">
<ele>146.459106</ele>
<time>2010-07-17T11:41:58Z</time>
<desc>lat.=55.731331, lon.=26.231508, Alt.=146.459106m. Speed=0.000000m/h.</desc>
<speed>0.000000</speed>
</trkpt>
<trkpt lat="55.731331" lon="26.231508">
<ele>146.451294</ele>
<time>2010-07-17T11:41:59Z</time>
<desc>lat.=55.731331, lon.=26.231508, Alt.=146.451294m. Speed=0.036000m/h.</desc>
<speed>0.010000</speed>
</trkpt>
<trkpt lat="55.731331" lon="26.231508">
<ele>146.447388</ele>
<time>2010-07-17T11:42:00Z</time>
<desc>lat.=55.731331, lon.=26.231508, Alt.=146.447388m. Speed=0.036000m/h.</desc>
<speed>0.010000</speed>
</trkpt>
<trkpt lat="55.731331" lon="26.231508">
<ele>146.447388</ele>
<time>2010-07-17T11:42:01Z</time>
<desc>lat.=55.731331, lon.=26.231508, Alt.=146.447388m. Speed=0.000000m/h.</desc>
<speed>0.000000</speed>
</trkpt>
<trkpt lat="55.731331" lon="26.231508">
<ele>146.447388</ele>
<time>2010-07-17T11:42:02Z</time>
<desc>lat.=55.731331, lon.=26.231508, Alt.=146.447388m. Speed=0.000000m/h.</desc>
<speed>0.000000</speed>
</trkpt>
<trkpt lat="55.731331" lon="26.231508">
<ele>146.447388</ele>
<time>2010-07-17T11:42:03Z</time>
<desc>lat.=55.731331, lon.=26.231508, Alt.=146.447388m. Speed=0.000000m/h.</desc>
<speed>0.000000</speed>
</trkpt>
<trkpt lat="55.731331" lon="26.231508">
<ele>146.435669</ele>
<time>2010-07-17T11:42:04Z</time>
<desc>lat.=55.731331, lon.=26.231508, Alt.=146.435669m. Speed=0.036000m/h.</desc>
<speed>0.010000</speed>
</trkpt>
<trkpt lat="55.731331" lon="26.231506">
<ele>146.427856</ele>
<time>2010-07-17T11:42:05Z</time>
<desc>lat.=55.731331, lon.=26.231506, Alt.=146.427856m. Speed=0.144000m/h.</desc>
<speed>0.040000</speed>
</trkpt>
<trkpt lat="55.731331" lon="26.231506">
<ele>146.420044</ele>
<time>2010-07-17T11:42:06Z</time>
<desc>lat.=55.731331, lon.=26.231506, Alt.=146.420044m. Speed=0.036000m/h.</desc>
<speed>0.010000</speed>
</trkpt>
<trkpt lat="55.731331" lon="26.231506">
<ele>146.412231</ele>
<time>2010-07-17T11:42:07Z</time>
<desc>lat.=55.731331, lon.=26.231506, Alt.=146.412231m. Speed=0.000000m/h.</desc>
<speed>0.000000</speed>
</trkpt>
<trkpt lat="55.731331" lon="26.231506">
<ele>146.396606</ele>
<time>2010-07-17T11:42:08Z</time>
<desc>lat.=55.731331, lon.=26.231506, Alt.=146.396606m. Speed=0.072000m/h.</desc>
<speed>0.020000</speed>
</trkpt>
<trkpt lat="55.731331" lon="26.231506">
<ele>146.388794</ele>
<time>2010-07-17T11:42:09Z</time>
<desc>lat.=55.731331, lon.=26.231506, Alt.=146.388794m. Speed=0.000000m/h.</desc>
<speed>0.000000</speed>
</trkpt>
<trkpt lat="55.731331" lon="26.231506">
<ele>146.380981</ele>
<time>2010-07-17T11:42:10Z</time>
<desc>lat.=55.731331, lon.=26.231506, Alt.=146.380981m. Speed=0.036000m/h.</desc>
<speed>0.010000</speed>
</trkpt>
<trkpt lat="55.731331" lon="26.231506">
<ele>146.373169</ele>
<time>2010-07-17T11:42:11Z</time>
<desc>lat.=55.731331, lon.=26.231506, Alt.=146.373169m. Speed=0.000000m/h.</desc>
<speed>0.000000</speed>
</trkpt>
<trkpt lat="55.731331" lon="26.231506">
<ele>146.369263</ele>
<time>2010-07-17T11:42:12Z</time>
<desc>lat.=55.731331, lon.=26.231506, Alt.=146.369263m. Speed=0.000000m/h.</desc>
<speed>0.000000</speed>
</trkpt>
<trkpt lat="55.731331" lon="26.231506">
<ele>146.361450</ele>
<time>2010-07-17T11:42:13Z</time>
<desc>lat.=55.731331, lon.=26.231506, Alt.=146.361450m. Speed=0.072000m/h.</desc>
<speed>0.020000</speed>
</trkpt>
<trkpt lat="55.731331" lon="26.231506">
<ele>146.349731</ele>
<time>2010-07-17T11:42:14Z</time>
<desc>lat.=55.731331, lon.=26.231506, Alt.=146.349731m. Speed=0.000000m/h.</desc>
<speed>0.000000</speed>
</trkpt>
<trkpt lat="55.731331" lon="26.231506">
<ele>146.349731</ele>
<time>2010-07-17T11:42:15Z</time>
<desc>lat.=55.731331, lon.=26.231506, Alt.=146.349731m. Speed=0.036000m/h.</desc>
<speed>0.010000</speed>
</trkpt>
<trkpt lat="55.731331" lon="26.231506">
<ele>146.345825</ele>
<time>2010-07-17T11:42:16Z</time>
<desc>lat.=55.731331, lon.=26.231506, Alt.=146.345825m. Speed=0.036000m/h.</desc>
<speed>0.010000</speed>
</trkpt>
<trkpt lat="55.731331" lon="26.231506">
<ele>146.341919</ele>
<time>2010-07-17T11:42:17Z</time>
<desc>lat.=55.731331, lon.=26.231506, Alt.=146.341919m. Speed=0.036000m/h.</desc>
<speed>0.010000</speed>
</trkpt>
<trkpt lat="55.731331" lon="26.231506">
<ele>146.338013</ele>
<time>2010-07-17T11:42:18Z</time>
<desc>lat.=55.731331, lon.=26.231506, Alt.=146.338013m. Speed=0.036000m/h.</desc>
<speed>0.010000</speed>
</trkpt>
<trkpt lat="55.731331" lon="26.231506">
<ele>146.334106</ele>
<time>2010-07-17T11:42:19Z</time>
<desc>lat.=55.731331, lon.=26.231506, Alt.=146.334106m. Speed=0.036000m/h.</desc>
<speed>0.010000</speed>
</trkpt>
<trkpt lat="55.731331" lon="26.231506">
<ele>146.338013</ele>
<time>2010-07-17T11:42:20Z</time>
<desc>lat.=55.731331, lon.=26.231506, Alt.=146.338013m. Speed=0.000000m/h.</desc>
<speed>0.000000</speed>
</trkpt>
<trkpt lat="55.731331" lon="26.231506">
<ele>146.341919</ele>
<time>2010-07-17T11:42:21Z</time>
<desc>lat.=55.731331, lon.=26.231506, Alt.=146.341919m. Speed=0.036000m/h.</desc>
<speed>0.010000</speed>
</trkpt>
<trkpt lat="55.731331" lon="26.231506">
<ele>146.345825</ele>
<time>2010-07-17T11:42:22Z</time>
<desc>lat.=55.731331, lon.=26.231506, Alt.=146.345825m. Speed=0.036000m/h.</desc>
<speed>0.010000</speed>
</trkpt>
<trkpt lat="55.731331" lon="26.231506">
<ele>146.349731</ele>
<time>2010-07-17T11:42:23Z</time>
<desc>lat.=55.731331, lon.=26.231506, Alt.=146.349731m. Speed=0.000000m/h.</desc>
<speed>0.000000</speed>
</trkpt>
<trkpt lat="55.731331" lon="26.231506">
<ele>146.349731</ele>
<time>2010-07-17T11:42:24Z</time>
<desc>lat.=55.731331, lon.=26.231506, Alt.=146.349731m. Speed=0.036000m/h.</desc>
<speed>0.010000</speed>
</trkpt>
<trkpt lat="55.731331" lon="26.231506">
<ele>146.353638</ele>
<time>2010-07-17T11:42:25Z</time>
<desc>lat.=55.731331, lon.=26.231506, Alt.=146.353638m. Speed=0.036000m/h.</desc>
<speed>0.010000</speed>
</trkpt>
<trkpt lat="55.731331" lon="26.231506">
<ele>146.353638</ele>
<time>2010-07-17T11:42:26Z</time>
<desc>lat.=55.731331, lon.=26.231506, Alt.=146.353638m. Speed=0.072000m/h.</desc>
<speed>0.020000</speed>
</trkpt>
<trkpt lat="55.731331" lon="26.231506">
<ele>146.353638</ele>
<time>2010-07-17T11:42:27Z</time>
<desc>lat.=55.731331, lon.=26.231506, Alt.=146.353638m. Speed=0.000000m/h.</desc>
<speed>0.000000</speed>
</trkpt>
<trkpt lat="55.731331" lon="26.231506">
<ele>146.365356</ele>
<time>2010-07-17T11:42:28Z</time>
<desc>lat.=55.731331, lon.=26.231506, Alt.=146.365356m. Speed=0.036000m/h.</desc>
<speed>0.010000</speed>
</trkpt>
<trkpt lat="55.731331" lon="26.231506">
<ele>146.365356</ele>
<time>2010-07-17T11:42:29Z</time>
<desc>lat.=55.731331, lon.=26.231506, Alt.=146.365356m. Speed=0.036000m/h.</desc>
<speed>0.010000</speed>
</trkpt>
<trkpt lat="55.731331" lon="26.231506">
<ele>146.369263</ele>
<time>2010-07-17T11:42:30Z</time>
<desc>lat.=55.731331, lon.=26.231506, Alt.=146.369263m. Speed=0.036000m/h.</desc>
<speed>0.010000</speed>
</trkpt>
<trkpt lat="55.731331" lon="26.231506">
<ele>146.373169</ele>
<time>2010-07-17T11:42:31Z</time>
<desc>lat.=55.731331, lon.=26.231506, Alt.=146.373169m. Speed=0.108000m/h.</desc>
<speed>0.030000</speed>
</trkpt>
<trkpt lat="55.731331" lon="26.231506">
<ele>146.373169</ele>
<time>2010-07-17T11:42:32Z</time>
<desc>lat.=55.731331, lon.=26.231506, Alt.=146.373169m. Speed=0.144000m/h.</desc>
<speed>0.040000</speed>
</trkpt>
<trkpt lat="55.731331" lon="26.231506">
<ele>146.377075</ele>
<time>2010-07-17T11:42:33Z</time>
<desc>lat.=55.731331, lon.=26.231506, Alt.=146.377075m. Speed=0.036000m/h.</desc>
<speed>0.010000</speed>
</trkpt>
<trkpt lat="55.731331" lon="26.231506">
<ele>146.377075</ele>
<time>2010-07-17T11:42:34Z</time>
<desc>lat.=55.731331, lon.=26.231506, Alt.=146.377075m. Speed=0.072000m/h.</desc>
<speed>0.020000</speed>
</trkpt>
<trkpt lat="55.731331" lon="26.231506">
<ele>146.384888</ele>
<time>2010-07-17T11:42:35Z</time>
<desc>lat.=55.731331, lon.=26.231506, Alt.=146.384888m. Speed=0.036000m/h.</desc>
<speed>0.010000</speed>
</trkpt>
<trkpt lat="55.731331" lon="26.231506">
<ele>146.388794</ele>
<time>2010-07-17T11:42:36Z</time>
<desc>lat.=55.731331, lon.=26.231506, Alt.=146.388794m. Speed=0.000000m/h.</desc>
<speed>0.000000</speed>
</trkpt>
<trkpt lat="55.731331" lon="26.231506">
<ele>146.388794</ele>
<time>2010-07-17T11:42:37Z</time>
<desc>lat.=55.731331, lon.=26.231506, Alt.=146.388794m. Speed=0.108000m/h.</desc>
<speed>0.030000</speed>
</trkpt>
<trkpt lat="55.731331" lon="26.231508">
<ele>146.384888</ele>
<time>2010-07-17T11:42:38Z</time>
<desc>lat.=55.731331, lon.=26.231508, Alt.=146.384888m. Speed=0.072000m/h.</desc>
<speed>0.020000</speed>
</trkpt>
<trkpt lat="55.731331" lon="26.231508">
<ele>146.380981</ele>
<time>2010-07-17T11:42:39Z</time>
<desc>lat.=55.731331, lon.=26.231508, Alt.=146.380981m. Speed=0.000000m/h.</desc>
<speed>0.000000</speed>
</trkpt>
<trkpt lat="55.731331" lon="26.231508">
<ele>146.380981</ele>
<time>2010-07-17T11:42:40Z</time>
<desc>lat.=55.731331, lon.=26.231508, Alt.=146.380981m. Speed=0.036000m/h.</desc>
<speed>0.010000</speed>
</trkpt>
<trkpt lat="55.731331" lon="26.231508">
<ele>146.388794</ele>
<time>2010-07-17T11:42:41Z</time>
<desc>lat.=55.731331, lon.=26.231508, Alt.=146.388794m. Speed=0.000000m/h.</desc>
<speed>0.000000</speed>
</trkpt>
<trkpt lat="55.731331" lon="26.231508">
<ele>146.388794</ele>
<time>2010-07-17T11:42:42Z</time>
<desc>lat.=55.731331, lon.=26.231508, Alt.=146.388794m. Speed=0.036000m/h.</desc>
<speed>0.010000</speed>
</trkpt>
<trkpt lat="55.731331" lon="26.231508">
<ele>146.392700</ele>
<time>2010-07-17T11:42:43Z</time>
<desc>lat.=55.731331, lon.=26.231508, Alt.=146.392700m. Speed=0.000000m/h.</desc>
<speed>0.000000</speed>
</trkpt>
<trkpt lat="55.731331" lon="26.231508">
<ele>146.392700</ele>
<time>2010-07-17T11:42:44Z</time>
<desc>lat.=55.731331, lon.=26.231508, Alt.=146.392700m. Speed=0.036000m/h.</desc>
<speed>0.010000</speed>
</trkpt>
<trkpt lat="55.731331" lon="26.231508">
<ele>146.392700</ele>
<time>2010-07-17T11:42:45Z</time>
<desc>lat.=55.731331, lon.=26.231508, Alt.=146.392700m. Speed=0.072000m/h.</desc>
<speed>0.020000</speed>
</trkpt>
<trkpt lat="55.731331" lon="26.231508">
<ele>146.388794</ele>
<time>2010-07-17T11:42:46Z</time>
<desc>lat.=55.731331, lon.=26.231508, Alt.=146.388794m. Speed=0.036000m/h.</desc>
<speed>0.010000</speed>
</trkpt>
<trkpt lat="55.731331" lon="26.231508">
<ele>146.380981</ele>
<time>2010-07-17T11:42:47Z</time>
<desc>lat.=55.731331, lon.=26.231508, Alt.=146.380981m. Speed=0.108000m/h.</desc>
<speed>0.030000</speed>
</trkpt>
<trkpt lat="55.731331" lon="26.231508">
<ele>146.377075</ele>
<time>2010-07-17T11:42:48Z</time>
<desc>lat.=55.731331, lon.=26.231508, Alt.=146.377075m. Speed=0.000000m/h.</desc>
<speed>0.000000</speed>
</trkpt>
<trkpt lat="55.731331" lon="26.231508">
<ele>146.365356</ele>
<time>2010-07-17T11:42:49Z</time>
<desc>lat.=55.731331, lon.=26.231508, Alt.=146.365356m. Speed=0.036000m/h.</desc>
<speed>0.010000</speed>
</trkpt>
<trkpt lat="55.731331" lon="26.231508">
<ele>146.361450</ele>
<time>2010-07-17T11:42:50Z</time>
<desc>lat.=55.731331, lon.=26.231508, Alt.=146.361450m. Speed=0.000000m/h.</desc>
<speed>0.000000</speed>
</trkpt>
<trkpt lat="55.731331" lon="26.231508">
<ele>146.353638</ele>
<time>2010-07-17T11:42:51Z</time>
<desc>lat.=55.731331, lon.=26.231508, Alt.=146.353638m. Speed=0.000000m/h.</desc>
<speed>0.000000</speed>
</trkpt>
<trkpt lat="55.731331" lon="26.231508">
<ele>146.345825</ele>
<time>2010-07-17T11:42:52Z</time>
<desc>lat.=55.731331, lon.=26.231508, Alt.=146.345825m. Speed=0.000000m/h.</desc>
<speed>0.000000</speed>
</trkpt>
<trkpt lat="55.731331" lon="26.231508">
<ele>146.338013</ele>
<time>2010-07-17T11:42:53Z</time>
<desc>lat.=55.731331, lon.=26.231508, Alt.=146.338013m. Speed=0.000000m/h.</desc>
<speed>0.000000</speed>
</trkpt>
<trkpt lat="55.731331" lon="26.231508">
<ele>146.330200</ele>
<time>2010-07-17T11:42:54Z</time>
<desc>lat.=55.731331, lon.=26.231508, Alt.=146.330200m. Speed=0.036000m/h.</desc>
<speed>0.010000</speed>
</trkpt>
<trkpt lat="55.731331" lon="26.231508">
<ele>146.330200</ele>
<time>2010-07-17T11:42:55Z</time>
<desc>lat.=55.731331, lon.=26.231508, Alt.=146.330200m. Speed=0.036000m/h.</desc>
<speed>0.010000</speed>
</trkpt>
<trkpt lat="55.731331" lon="26.231508">
<ele>146.330200</ele>
<time>2010-07-17T11:42:56Z</time>
<desc>lat.=55.731331, lon.=26.231508, Alt.=146.330200m. Speed=0.036000m/h.</desc>
<speed>0.010000</speed>
</trkpt>
<trkpt lat="55.731331" lon="26.231508">
<ele>146.334106</ele>
<time>2010-07-17T11:42:57Z</time>
<desc>lat.=55.731331, lon.=26.231508, Alt.=146.334106m. Speed=0.036000m/h.</desc>
<speed>0.010000</speed>
</trkpt>
<trkpt lat="55.731331" lon="26.231508">
<ele>146.338013</ele>
<time>2010-07-17T11:42:58Z</time>
<desc>lat.=55.731331, lon.=26.231508, Alt.=146.338013m. Speed=0.072000m/h.</desc>
<speed>0.020000</speed>
</trkpt>
<trkpt lat="55.731331" lon="26.231508">
<ele>146.334106</ele>
<time>2010-07-17T11:42:59Z</time>
<desc>lat.=55.731331, lon.=26.231508, Alt.=146.334106m. Speed=0.036000m/h.</desc>
<speed>0.010000</speed>
</trkpt>
<trkpt lat="55.731331" lon="26.231510">
<ele>146.334106</ele>
<time>2010-07-17T11:43:00Z</time>
<desc>lat.=55.731331, lon.=26.231510, Alt.=146.334106m. Speed=0.072000m/h.</desc>
<speed>0.020000</speed>
</trkpt>
<trkpt lat="55.731331" lon="26.231510">
<ele>146.334106</ele>
<time>2010-07-17T11:43:01Z</time>
<desc>lat.=55.731331, lon.=26.231510, Alt.=146.334106m. Speed=0.072000m/h.</desc>
<speed>0.020000</speed>
</trkpt>
<trkpt lat="55.731331" lon="26.231510">
<ele>146.330200</ele>
<time>2010-07-17T11:43:02Z</time>
<desc>lat.=55.731331, lon.=26.231510, Alt.=146.330200m. Speed=0.000000m/h.</desc>
<speed>0.000000</speed>
</trkpt>
<trkpt lat="55.731335" lon="26.231510">
<ele>146.326294</ele>
<time>2010-07-17T11:43:03Z</time>
<desc>lat.=55.731335, lon.=26.231510, Alt.=146.326294m. Speed=0.036000m/h.</desc>
<speed>0.010000</speed>
</trkpt>
<trkpt lat="55.731335" lon="26.231510">
<ele>146.322388</ele>
<time>2010-07-17T11:43:04Z</time>
<desc>lat.=55.731335, lon.=26.231510, Alt.=146.322388m. Speed=0.036000m/h.</desc>
<speed>0.010000</speed>
</trkpt>
<trkpt lat="55.731335" lon="26.231510">
<ele>146.322388</ele>
<time>2010-07-17T11:43:05Z</time>
<desc>lat.=55.731335, lon.=26.231510, Alt.=146.322388m. Speed=0.036000m/h.</desc>
<speed>0.010000</speed>
</trkpt>
<trkpt lat="55.731335" lon="26.231510">
<ele>146.318481</ele>
<time>2010-07-17T11:43:06Z</time>
<desc>lat.=55.731335, lon.=26.231510, Alt.=146.318481m. Speed=0.000000m/h.</desc>
<speed>0.000000</speed>
</trkpt>
<trkpt lat="55.731335" lon="26.231510">
<ele>146.314575</ele>
<time>2010-07-17T11:43:07Z</time>
<desc>lat.=55.731335, lon.=26.231510, Alt.=146.314575m. Speed=0.036000m/h.</desc>
<speed>0.010000</speed>
</trkpt>
<trkpt lat="55.731335" lon="26.231510">
<ele>146.310669</ele>
<time>2010-07-17T11:43:08Z</time>
<desc>lat.=55.731335, lon.=26.231510, Alt.=146.310669m. Speed=0.036000m/h.</desc>
<speed>0.010000</speed>
</trkpt>
<trkpt lat="55.731335" lon="26.231510">
<ele>146.310669</ele>
<time>2010-07-17T11:43:09Z</time>
<desc>lat.=55.731335, lon.=26.231510, Alt.=146.310669m. Speed=0.000000m/h.</desc>
<speed>0.000000</speed>
</trkpt>
<trkpt lat="55.731335" lon="26.231510">
<ele>146.314575</ele>
<time>2010-07-17T11:43:10Z</time>
<desc>lat.=55.731335, lon.=26.231510, Alt.=146.314575m. Speed=0.036000m/h.</desc>
<speed>0.010000</speed>
</trkpt>
<trkpt lat="55.731335" lon="26.231510">
<ele>146.318481</ele>
<time>2010-07-17T11:43:11Z</time>
<desc>lat.=55.731335, lon.=26.231510, Alt.=146.318481m. Speed=0.036000m/h.</desc>
<speed>0.010000</speed>
</trkpt>
<trkpt lat="55.731335" lon="26.231510">
<ele>146.326294</ele>
<time>2010-07-17T11:43:12Z</time>
<desc>lat.=55.731335, lon.=26.231510, Alt.=146.326294m. Speed=0.036000m/h.</desc>
<speed>0.010000</speed>
</trkpt>
<trkpt lat="55.731335" lon="26.231512">
<ele>146.338013</ele>
<time>2010-07-17T11:43:13Z</time>
<desc>lat.=55.731335, lon.=26.231512, Alt.=146.338013m. Speed=0.072000m/h.</desc>
<speed>0.020000</speed>
</trkpt>
<trkpt lat="55.731335" lon="26.231512">
<ele>146.341919</ele>
<time>2010-07-17T11:43:14Z</time>
<desc>lat.=55.731335, lon.=26.231512, Alt.=146.341919m. Speed=0.036000m/h.</desc>
<speed>0.010000</speed>
</trkpt>
<trkpt lat="55.731335" lon="26.231512">
<ele>146.341919</ele>
<time>2010-07-17T11:43:15Z</time>
<desc>lat.=55.731335, lon.=26.231512, Alt.=146.341919m. Speed=0.072000m/h.</desc>
<speed>0.020000</speed>
</trkpt>
<trkpt lat="55.731335" lon="26.231512">
<ele>146.345825</ele>
<time>2010-07-17T11:43:16Z</time>
<desc>lat.=55.731335, lon.=26.231512, Alt.=146.345825m. Speed=0.000000m/h.</desc>
<speed>0.000000</speed>
</trkpt>
<trkpt lat="55.731335" lon="26.231512">
<ele>146.353638</ele>
<time>2010-07-17T11:43:17Z</time>
<desc>lat.=55.731335, lon.=26.231512, Alt.=146.353638m. Speed=0.072000m/h.</desc>
<speed>0.020000</speed>
</trkpt>
<trkpt lat="55.731335" lon="26.231512">
<ele>146.357544</ele>
<time>2010-07-17T11:43:18Z</time>
<desc>lat.=55.731335, lon.=26.231512, Alt.=146.357544m. Speed=0.036000m/h.</desc>
<speed>0.010000</speed>
</trkpt>
<trkpt lat="55.731335" lon="26.231512">
<ele>146.365356</ele>
<time>2010-07-17T11:43:19Z</time>
<desc>lat.=55.731335, lon.=26.231512, Alt.=146.365356m. Speed=0.000000m/h.</desc>
<speed>0.000000</speed>
</trkpt>
<trkpt lat="55.731335" lon="26.231512">
<ele>146.373169</ele>
<time>2010-07-17T11:43:20Z</time>
<desc>lat.=55.731335, lon.=26.231512, Alt.=146.373169m. Speed=0.036000m/h.</desc>
<speed>0.010000</speed>
</trkpt>
<trkpt lat="55.731335" lon="26.231512">
<ele>146.377075</ele>
<time>2010-07-17T11:43:21Z</time>
<desc>lat.=55.731335, lon.=26.231512, Alt.=146.377075m. Speed=0.072000m/h.</desc>
<speed>0.020000</speed>
</trkpt>
<trkpt lat="55.731335" lon="26.231512">
<ele>146.380981</ele>
<time>2010-07-17T11:43:22Z</time>
<desc>lat.=55.731335, lon.=26.231512, Alt.=146.380981m. Speed=0.000000m/h.</desc>
<speed>0.000000</speed>
</trkpt>
<trkpt lat="55.731335" lon="26.231512">
<ele>146.377075</ele>
<time>2010-07-17T11:43:23Z</time>
<desc>lat.=55.731335, lon.=26.231512, Alt.=146.377075m. Speed=0.000000m/h.</desc>
<speed>0.000000</speed>
</trkpt>
<trkpt lat="55.731335" lon="26.231512">
<ele>146.380981</ele>
<time>2010-07-17T11:43:24Z</time>
<desc>lat.=55.731335, lon.=26.231512, Alt.=146.380981m. Speed=0.036000m/h.</desc>
<speed>0.010000</speed>
</trkpt>
<trkpt lat="55.731335" lon="26.231512">
<ele>146.380981</ele>
<time>2010-07-17T11:43:25Z</time>
<desc>lat.=55.731335, lon.=26.231512, Alt.=146.380981m. Speed=0.036000m/h.</desc>
<speed>0.010000</speed>
</trkpt>
<trkpt lat="55.731335" lon="26.231512">
<ele>146.384888</ele>
<time>2010-07-17T11:43:26Z</time>
<desc>lat.=55.731335, lon.=26.231512, Alt.=146.384888m. Speed=0.072000m/h.</desc>
<speed>0.020000</speed>
</trkpt>
<trkpt lat="55.731335" lon="26.231512">
<ele>146.380981</ele>
<time>2010-07-17T11:43:27Z</time>
<desc>lat.=55.731335, lon.=26.231512, Alt.=146.380981m. Speed=0.072000m/h.</desc>
<speed>0.020000</speed>
</trkpt>
<trkpt lat="55.731335" lon="26.231512">
<ele>146.380981</ele>
<time>2010-07-17T11:43:28Z</time>
<desc>lat.=55.731335, lon.=26.231512, Alt.=146.380981m. Speed=0.036000m/h.</desc>
<speed>0.010000</speed>
</trkpt>
<trkpt lat="55.731335" lon="26.231512">
<ele>146.377075</ele>
<time>2010-07-17T11:43:29Z</time>
<desc>lat.=55.731335, lon.=26.231512, Alt.=146.377075m. Speed=0.036000m/h.</desc>
<speed>0.010000</speed>
</trkpt>
<trkpt lat="55.731335" lon="26.231512">
<ele>146.380981</ele>
<time>2010-07-17T11:43:30Z</time>
<desc>lat.=55.731335, lon.=26.231512, Alt.=146.380981m. Speed=0.000000m/h.</desc>
<speed>0.000000</speed>
</trkpt>
<trkpt lat="55.731335" lon="26.231512">
<ele>146.377075</ele>
<time>2010-07-17T11:43:31Z</time>
<desc>lat.=55.731335, lon.=26.231512, Alt.=146.377075m. Speed=0.036000m/h.</desc>
<speed>0.010000</speed>
</trkpt>
<trkpt lat="55.731335" lon="26.231512">
<ele>146.377075</ele>
<time>2010-07-17T11:43:32Z</time>
<desc>lat.=55.731335, lon.=26.231512, Alt.=146.377075m. Speed=0.000000m/h.</desc>
<speed>0.000000</speed>
</trkpt>
<trkpt lat="55.731335" lon="26.231512">
<ele>146.377075</ele>
<time>2010-07-17T11:43:33Z</time>
<desc>lat.=55.731335, lon.=26.231512, Alt.=146.377075m. Speed=0.000000m/h.</desc>
<speed>0.000000</speed>
</trkpt>
<trkpt lat="55.731335" lon="26.231512">
<ele>146.377075</ele>
<time>2010-07-17T11:43:34Z</time>
<desc>lat.=55.731335, lon.=26.231512, Alt.=146.377075m. Speed=0.036000m/h.</desc>
<speed>0.010000</speed>
</trkpt>
<trkpt lat="55.731335" lon="26.231512">
<ele>146.373169</ele>
<time>2010-07-17T11:43:35Z</time>
<desc>lat.=55.731335, lon.=26.231512, Alt.=146.373169m. Speed=0.000000m/h.</desc>
<speed>0.000000</speed>
</trkpt>
<trkpt lat="55.731335" lon="26.231512">
<ele>146.365356</ele>
<time>2010-07-17T11:43:36Z</time>
<desc>lat.=55.731335, lon.=26.231512, Alt.=146.365356m. Speed=0.036000m/h.</desc>
<speed>0.010000</speed>
</trkpt>
<trkpt lat="55.731335" lon="26.231512">
<ele>146.361450</ele>
<time>2010-07-17T11:43:37Z</time>
<desc>lat.=55.731335, lon.=26.231512, Alt.=146.361450m. Speed=0.108000m/h.</desc>
<speed>0.030000</speed>
</trkpt>
<trkpt lat="55.731335" lon="26.231512">
<ele>146.349731</ele>
<time>2010-07-17T11:43:38Z</time>
<desc>lat.=55.731335, lon.=26.231512, Alt.=146.349731m. Speed=0.000000m/h.</desc>
<speed>0.000000</speed>
</trkpt>
<trkpt lat="55.731335" lon="26.231512">
<ele>146.349731</ele>
<time>2010-07-17T11:43:39Z</time>
<desc>lat.=55.731335, lon.=26.231512, Alt.=146.349731m. Speed=0.000000m/h.</desc>
<speed>0.000000</speed>
</trkpt>
<trkpt lat="55.731335" lon="26.231512">
<ele>146.334106</ele>
<time>2010-07-17T11:43:40Z</time>
<desc>lat.=55.731335, lon.=26.231512, Alt.=146.334106m. Speed=0.036000m/h.</desc>
<speed>0.010000</speed>
</trkpt>
<trkpt lat="55.731335" lon="26.231512">
<ele>146.318481</ele>
<time>2010-07-17T11:43:41Z</time>
<desc>lat.=55.731335, lon.=26.231512, Alt.=146.318481m. Speed=0.036000m/h.</desc>
<speed>0.010000</speed>
</trkpt>
<trkpt lat="55.731335" lon="26.231514">
<ele>146.306763</ele>
<time>2010-07-17T11:43:42Z</time>
<desc>lat.=55.731335, lon.=26.231514, Alt.=146.306763m. Speed=0.000000m/h.</desc>
<speed>0.000000</speed>
</trkpt>
<trkpt lat="55.731335" lon="26.231514">
<ele>146.291138</ele>
<time>2010-07-17T11:43:43Z</time>
<desc>lat.=55.731335, lon.=26.231514, Alt.=146.291138m. Speed=0.036000m/h.</desc>
<speed>0.010000</speed>
</trkpt>
<trkpt lat="55.731335" lon="26.231514">
<ele>146.279419</ele>
<time>2010-07-17T11:43:44Z</time>
<desc>lat.=55.731335, lon.=26.231514, Alt.=146.279419m. Speed=0.036000m/h.</desc>
<speed>0.010000</speed>
</trkpt>
<trkpt lat="55.731335" lon="26.231514">
<ele>146.263794</ele>
<time>2010-07-17T11:43:45Z</time>
<desc>lat.=55.731335, lon.=26.231514, Alt.=146.263794m. Speed=0.072000m/h.</desc>
<speed>0.020000</speed>
</trkpt>
<trkpt lat="55.731335" lon="26.231514">
<ele>146.252075</ele>
<time>2010-07-17T11:43:46Z</time>
<desc>lat.=55.731335, lon.=26.231514, Alt.=146.252075m. Speed=0.072000m/h.</desc>
<speed>0.020000</speed>
</trkpt>
<trkpt lat="55.731335" lon="26.231514">
<ele>146.240356</ele>
<time>2010-07-17T11:43:47Z</time>
<desc>lat.=55.731335, lon.=26.231514, Alt.=146.240356m. Speed=0.180000m/h.</desc>
<speed>0.050000</speed>
</trkpt>
<trkpt lat="55.731335" lon="26.231514">
<ele>146.232544</ele>
<time>2010-07-17T11:43:48Z</time>
<desc>lat.=55.731335, lon.=26.231514, Alt.=146.232544m. Speed=0.180000m/h.</desc>
<speed>0.050000</speed>
</trkpt>
<trkpt lat="55.731335" lon="26.231514">
<ele>146.228638</ele>
<time>2010-07-17T11:43:49Z</time>
<desc>lat.=55.731335, lon.=26.231514, Alt.=146.228638m. Speed=0.108000m/h.</desc>
<speed>0.030000</speed>
</trkpt>
<trkpt lat="55.731335" lon="26.231514">
<ele>146.220825</ele>
<time>2010-07-17T11:43:50Z</time>
<desc>lat.=55.731335, lon.=26.231514, Alt.=146.220825m. Speed=0.108000m/h.</desc>
<speed>0.030000</speed>
</trkpt>
<trkpt lat="55.731335" lon="26.231514">
<ele>146.213013</ele>
<time>2010-07-17T11:43:51Z</time>
<desc>lat.=55.731335, lon.=26.231514, Alt.=146.213013m. Speed=0.072000m/h.</desc>
<speed>0.020000</speed>
</trkpt>
<trkpt lat="55.731335" lon="26.231514">
<ele>146.201294</ele>
<time>2010-07-17T11:43:52Z</time>
<desc>lat.=55.731335, lon.=26.231514, Alt.=146.201294m. Speed=0.108000m/h.</desc>
<speed>0.030000</speed>
</trkpt>
<trkpt lat="55.731335" lon="26.231514">
<ele>146.197388</ele>
<time>2010-07-17T11:43:53Z</time>
<desc>lat.=55.731335, lon.=26.231514, Alt.=146.197388m. Speed=0.108000m/h.</desc>
<speed>0.030000</speed>
</trkpt>
<trkpt lat="55.731331" lon="26.231514">
<ele>146.201294</ele>
<time>2010-07-17T11:43:54Z</time>
<desc>lat.=55.731331, lon.=26.231514, Alt.=146.201294m. Speed=0.072000m/h.</desc>
<speed>0.020000</speed>
</trkpt>
<trkpt lat="55.731331" lon="26.231514">
<ele>146.209106</ele>
<time>2010-07-17T11:43:55Z</time>
<desc>lat.=55.731331, lon.=26.231514, Alt.=146.209106m. Speed=0.000000m/h.</desc>
<speed>0.000000</speed>
</trkpt>
<trkpt lat="55.731331" lon="26.231514">
<ele>146.209106</ele>
<time>2010-07-17T11:43:56Z</time>
<desc>lat.=55.731331, lon.=26.231514, Alt.=146.209106m. Speed=0.072000m/h.</desc>
<speed>0.020000</speed>
</trkpt>
<trkpt lat="55.731331" lon="26.231514">
<ele>146.205200</ele>
<time>2010-07-17T11:43:57Z</time>
<desc>lat.=55.731331, lon.=26.231514, Alt.=146.205200m. Speed=0.072000m/h.</desc>
<speed>0.020000</speed>
</trkpt>
<trkpt lat="55.731331" lon="26.231514">
<ele>146.201294</ele>
<time>2010-07-17T11:43:58Z</time>
<desc>lat.=55.731331, lon.=26.231514, Alt.=146.201294m. Speed=0.036000m/h.</desc>
<speed>0.010000</speed>
</trkpt>
<trkpt lat="55.731331" lon="26.231514">
<ele>146.197388</ele>
<time>2010-07-17T11:43:59Z</time>
<desc>lat.=55.731331, lon.=26.231514, Alt.=146.197388m. Speed=0.108000m/h.</desc>
<speed>0.030000</speed>
</trkpt>
<trkpt lat="55.731331" lon="26.231516">
<ele>146.197388</ele>
<time>2010-07-17T11:44:00Z</time>
<desc>lat.=55.731331, lon.=26.231516, Alt.=146.197388m. Speed=0.072000m/h.</desc>
<speed>0.020000</speed>
</trkpt>
<trkpt lat="55.731331" lon="26.231516">
<ele>146.193481</ele>
<time>2010-07-17T11:44:01Z</time>
<desc>lat.=55.731331, lon.=26.231516, Alt.=146.193481m. Speed=0.072000m/h.</desc>
<speed>0.020000</speed>
</trkpt>
<trkpt lat="55.731331" lon="26.231516">
<ele>146.185669</ele>
<time>2010-07-17T11:44:02Z</time>
<desc>lat.=55.731331, lon.=26.231516, Alt.=146.185669m. Speed=0.036000m/h.</desc>
<speed>0.010000</speed>
</trkpt>
<trkpt lat="55.731331" lon="26.231516">
<ele>146.181763</ele>
<time>2010-07-17T11:44:03Z</time>
<desc>lat.=55.731331, lon.=26.231516, Alt.=146.181763m. Speed=0.036000m/h.</desc>
<speed>0.010000</speed>
</trkpt>
<trkpt lat="55.731331" lon="26.231516">
<ele>146.173950</ele>
<time>2010-07-17T11:44:04Z</time>
<desc>lat.=55.731331, lon.=26.231516, Alt.=146.173950m. Speed=0.000000m/h.</desc>
<speed>0.000000</speed>
</trkpt>
<trkpt lat="55.731335" lon="26.231516">
<ele>146.173950</ele>
<time>2010-07-17T11:44:05Z</time>
<desc>lat.=55.731335, lon.=26.231516, Alt.=146.173950m. Speed=0.072000m/h.</desc>
<speed>0.020000</speed>
</trkpt>
<trkpt lat="55.731335" lon="26.231516">
<ele>146.162231</ele>
<time>2010-07-17T11:44:06Z</time>
<desc>lat.=55.731335, lon.=26.231516, Alt.=146.162231m. Speed=0.144000m/h.</desc>
<speed>0.040000</speed>
</trkpt>
<trkpt lat="55.731335" lon="26.231516">
<ele>146.150513</ele>
<time>2010-07-17T11:44:07Z</time>
<desc>lat.=55.731335, lon.=26.231516, Alt.=146.150513m. Speed=0.036000m/h.</desc>
<speed>0.010000</speed>
</trkpt>
<trkpt lat="55.731335" lon="26.231516">
<ele>146.146606</ele>
<time>2010-07-17T11:44:08Z</time>
<desc>lat.=55.731335, lon.=26.231516, Alt.=146.146606m. Speed=0.108000m/h.</desc>
<speed>0.030000</speed>
</trkpt>
<trkpt lat="55.731335" lon="26.231516">
<ele>146.134888</ele>
<time>2010-07-17T11:44:09Z</time>
<desc>lat.=55.731335, lon.=26.231516, Alt.=146.134888m. Speed=0.036000m/h.</desc>
<speed>0.010000</speed>
</trkpt>
<trkpt lat="55.731335" lon="26.231516">
<ele>146.127075</ele>
<time>2010-07-17T11:44:10Z</time>
<desc>lat.=55.731335, lon.=26.231516, Alt.=146.127075m. Speed=0.036000m/h.</desc>
<speed>0.010000</speed>
</trkpt>
<trkpt lat="55.731335" lon="26.231516">
<ele>146.111450</ele>
<time>2010-07-17T11:44:11Z</time>
<desc>lat.=55.731335, lon.=26.231516, Alt.=146.111450m. Speed=0.036000m/h.</desc>
<speed>0.010000</speed>
</trkpt>
<trkpt lat="55.731335" lon="26.231516">
<ele>146.099731</ele>
<time>2010-07-17T11:44:12Z</time>
<desc>lat.=55.731335, lon.=26.231516, Alt.=146.099731m. Speed=0.108000m/h.</desc>
<speed>0.030000</speed>
</trkpt>
<trkpt lat="55.731335" lon="26.231516">
<ele>146.088013</ele>
<time>2010-07-17T11:44:13Z</time>
<desc>lat.=55.731335, lon.=26.231516, Alt.=146.088013m. Speed=0.036000m/h.</desc>
<speed>0.010000</speed>
</trkpt>
<trkpt lat="55.731335" lon="26.231516">
<ele>146.076294</ele>
<time>2010-07-17T11:44:14Z</time>
<desc>lat.=55.731335, lon.=26.231516, Alt.=146.076294m. Speed=0.072000m/h.</desc>
<speed>0.020000</speed>
</trkpt>
<trkpt lat="55.731335" lon="26.231516">
<ele>146.064575</ele>
<time>2010-07-17T11:44:15Z</time>
<desc>lat.=55.731335, lon.=26.231516, Alt.=146.064575m. Speed=0.000000m/h.</desc>
<speed>0.000000</speed>
</trkpt>
<trkpt lat="55.731335" lon="26.231516">
<ele>146.052856</ele>
<time>2010-07-17T11:44:16Z</time>
<desc>lat.=55.731335, lon.=26.231516, Alt.=146.052856m. Speed=0.000000m/h.</desc>
<speed>0.000000</speed>
</trkpt>
<trkpt lat="55.731335" lon="26.231516">
<ele>146.045044</ele>
<time>2010-07-17T11:44:17Z</time>
<desc>lat.=55.731335, lon.=26.231516, Alt.=146.045044m. Speed=0.036000m/h.</desc>
<speed>0.010000</speed>
</trkpt>
<trkpt lat="55.731335" lon="26.231516">
<ele>146.045044</ele>
<time>2010-07-17T11:44:18Z</time>
<desc>lat.=55.731335, lon.=26.231516, Alt.=146.045044m. Speed=0.036000m/h.</desc>
<speed>0.010000</speed>
</trkpt>
<trkpt lat="55.731335" lon="26.231516">
<ele>146.041138</ele>
<time>2010-07-17T11:44:19Z</time>
<desc>lat.=55.731335, lon.=26.231516, Alt.=146.041138m. Speed=0.072000m/h.</desc>
<speed>0.020000</speed>
</trkpt>
<trkpt lat="55.731335" lon="26.231516">
<ele>146.033325</ele>
<time>2010-07-17T11:44:20Z</time>
<desc>lat.=55.731335, lon.=26.231516, Alt.=146.033325m. Speed=0.036000m/h.</desc>
<speed>0.010000</speed>
</trkpt>
<trkpt lat="55.731335" lon="26.231516">
<ele>146.025513</ele>
<time>2010-07-17T11:44:21Z</time>
<desc>lat.=55.731335, lon.=26.231516, Alt.=146.025513m. Speed=0.000000m/h.</desc>
<speed>0.000000</speed>
</trkpt>
<trkpt lat="55.731335" lon="26.231516">
<ele>146.009888</ele>
<time>2010-07-17T11:44:22Z</time>
<desc>lat.=55.731335, lon.=26.231516, Alt.=146.009888m. Speed=0.036000m/h.</desc>
<speed>0.010000</speed>
</trkpt>
<trkpt lat="55.731335" lon="26.231516">
<ele>145.986450</ele>
<time>2010-07-17T11:44:23Z</time>
<desc>lat.=55.731335, lon.=26.231516, Alt.=145.986450m. Speed=0.144000m/h.</desc>
<speed>0.040000</speed>
</trkpt>
<trkpt lat="55.731335" lon="26.231516">
<ele>145.974731</ele>
<time>2010-07-17T11:44:24Z</time>
<desc>lat.=55.731335, lon.=26.231516, Alt.=145.974731m. Speed=0.036000m/h.</desc>
<speed>0.010000</speed>
</trkpt>
<trkpt lat="55.731335" lon="26.231516">
<ele>145.963013</ele>
<time>2010-07-17T11:44:25Z</time>
<desc>lat.=55.731335, lon.=26.231516, Alt.=145.963013m. Speed=0.072000m/h.</desc>
<speed>0.020000</speed>
</trkpt>
<trkpt lat="55.731335" lon="26.231516">
<ele>145.951294</ele>
<time>2010-07-17T11:44:26Z</time>
<desc>lat.=55.731335, lon.=26.231516, Alt.=145.951294m. Speed=0.000000m/h.</desc>
<speed>0.000000</speed>
</trkpt>
<trkpt lat="55.731335" lon="26.231516">
<ele>145.943481</ele>
<time>2010-07-17T11:44:27Z</time>
<desc>lat.=55.731335, lon.=26.231516, Alt.=145.943481m. Speed=0.000000m/h.</desc>
<speed>0.000000</speed>
</trkpt>
<trkpt lat="55.731335" lon="26.231516">
<ele>145.935669</ele>
<time>2010-07-17T11:44:28Z</time>
<desc>lat.=55.731335, lon.=26.231516, Alt.=145.935669m. Speed=0.072000m/h.</desc>
<speed>0.020000</speed>
</trkpt>
<trkpt lat="55.731335" lon="26.231516">
<ele>145.931763</ele>
<time>2010-07-17T11:44:29Z</time>
<desc>lat.=55.731335, lon.=26.231516, Alt.=145.931763m. Speed=0.036000m/h.</desc>
<speed>0.010000</speed>
</trkpt>
<trkpt lat="55.731335" lon="26.231516">
<ele>145.920044</ele>
<time>2010-07-17T11:44:30Z</time>
<desc>lat.=55.731335, lon.=26.231516, Alt.=145.920044m. Speed=0.180000m/h.</desc>
<speed>0.050000</speed>
</trkpt>
<trkpt lat="55.731335" lon="26.231516">
<ele>145.920044</ele>
<time>2010-07-17T11:44:31Z</time>
<desc>lat.=55.731335, lon.=26.231516, Alt.=145.920044m. Speed=0.072000m/h.</desc>
<speed>0.020000</speed>
</trkpt>
<trkpt lat="55.731335" lon="26.231516">
<ele>145.920044</ele>
<time>2010-07-17T11:44:32Z</time>
<desc>lat.=55.731335, lon.=26.231516, Alt.=145.920044m. Speed=0.072000m/h.</desc>
<speed>0.020000</speed>
</trkpt>
<trkpt lat="55.731335" lon="26.231516">
<ele>145.908325</ele>
<time>2010-07-17T11:44:33Z</time>
<desc>lat.=55.731335, lon.=26.231516, Alt.=145.908325m. Speed=0.000000m/h.</desc>
<speed>0.000000</speed>
</trkpt>
<trkpt lat="55.731335" lon="26.231516">
<ele>145.900513</ele>
<time>2010-07-17T11:44:34Z</time>
<desc>lat.=55.731335, lon.=26.231516, Alt.=145.900513m. Speed=0.000000m/h.</desc>
<speed>0.000000</speed>
</trkpt>
<trkpt lat="55.731335" lon="26.231516">
<ele>145.892700</ele>
<time>2010-07-17T11:44:35Z</time>
<desc>lat.=55.731335, lon.=26.231516, Alt.=145.892700m. Speed=0.180000m/h.</desc>
<speed>0.050000</speed>
</trkpt>
<trkpt lat="55.731335" lon="26.231516">
<ele>145.884888</ele>
<time>2010-07-17T11:44:36Z</time>
<desc>lat.=55.731335, lon.=26.231516, Alt.=145.884888m. Speed=0.072000m/h.</desc>
<speed>0.020000</speed>
</trkpt>
<trkpt lat="55.731335" lon="26.231516">
<ele>145.869263</ele>
<time>2010-07-17T11:44:37Z</time>
<desc>lat.=55.731335, lon.=26.231516, Alt.=145.869263m. Speed=0.072000m/h.</desc>
<speed>0.020000</speed>
</trkpt>
<trkpt lat="55.731335" lon="26.231516">
<ele>145.853638</ele>
<time>2010-07-17T11:44:38Z</time>
<desc>lat.=55.731335, lon.=26.231516, Alt.=145.853638m. Speed=0.144000m/h.</desc>
<speed>0.040000</speed>
</trkpt>
<trkpt lat="55.731335" lon="26.231516">
<ele>145.841919</ele>
<time>2010-07-17T11:44:39Z</time>
<desc>lat.=55.731335, lon.=26.231516, Alt.=145.841919m. Speed=0.108000m/h.</desc>
<speed>0.030000</speed>
</trkpt>
<trkpt lat="55.731335" lon="26.231516">
<ele>145.830200</ele>
<time>2010-07-17T11:44:40Z</time>
<desc>lat.=55.731335, lon.=26.231516, Alt.=145.830200m. Speed=0.036000m/h.</desc>
<speed>0.010000</speed>
</trkpt>
<trkpt lat="55.731335" lon="26.231516">
<ele>145.810669</ele>
<time>2010-07-17T11:44:41Z</time>
<desc>lat.=55.731335, lon.=26.231516, Alt.=145.810669m. Speed=0.036000m/h.</desc>
<speed>0.010000</speed>
</trkpt>
<trkpt lat="55.731335" lon="26.231516">
<ele>145.791138</ele>
<time>2010-07-17T11:44:42Z</time>
<desc>lat.=55.731335, lon.=26.231516, Alt.=145.791138m. Speed=0.072000m/h.</desc>
<speed>0.020000</speed>
</trkpt>
<trkpt lat="55.731335" lon="26.231516">
<ele>145.767700</ele>
<time>2010-07-17T11:44:43Z</time>
<desc>lat.=55.731335, lon.=26.231516, Alt.=145.767700m. Speed=0.108000m/h.</desc>
<speed>0.030000</speed>
</trkpt>
<trkpt lat="55.731335" lon="26.231516">
<ele>145.744263</ele>
<time>2010-07-17T11:44:44Z</time>
<desc>lat.=55.731335, lon.=26.231516, Alt.=145.744263m. Speed=0.072000m/h.</desc>
<speed>0.020000</speed>
</trkpt>
<trkpt lat="55.731335" lon="26.231516">
<ele>145.732544</ele>
<time>2010-07-17T11:44:45Z</time>
<desc>lat.=55.731335, lon.=26.231516, Alt.=145.732544m. Speed=0.072000m/h.</desc>
<speed>0.020000</speed>
</trkpt>
<trkpt lat="55.731335" lon="26.231518">
<ele>145.720825</ele>
<time>2010-07-17T11:44:46Z</time>
<desc>lat.=55.731335, lon.=26.231518, Alt.=145.720825m. Speed=0.108000m/h.</desc>
<speed>0.030000</speed>
</trkpt>
<trkpt lat="55.731335" lon="26.231518">
<ele>145.709106</ele>
<time>2010-07-17T11:44:47Z</time>
<desc>lat.=55.731335, lon.=26.231518, Alt.=145.709106m. Speed=0.072000m/h.</desc>
<speed>0.020000</speed>
</trkpt>
<trkpt lat="55.731335" lon="26.231518">
<ele>145.693481</ele>
<time>2010-07-17T11:44:48Z</time>
<desc>lat.=55.731335, lon.=26.231518, Alt.=145.693481m. Speed=0.108000m/h.</desc>
<speed>0.030000</speed>
</trkpt>
<trkpt lat="55.731335" lon="26.231518">
<ele>145.681763</ele>
<time>2010-07-17T11:44:49Z</time>
<desc>lat.=55.731335, lon.=26.231518, Alt.=145.681763m. Speed=0.072000m/h.</desc>
<speed>0.020000</speed>
</trkpt>
<trkpt lat="55.731335" lon="26.231518">
<ele>145.666138</ele>
<time>2010-07-17T11:44:50Z</time>
<desc>lat.=55.731335, lon.=26.231518, Alt.=145.666138m. Speed=0.072000m/h.</desc>
<speed>0.020000</speed>
</trkpt>
<trkpt lat="55.731335" lon="26.231518">
<ele>145.654419</ele>
<time>2010-07-17T11:44:51Z</time>
<desc>lat.=55.731335, lon.=26.231518, Alt.=145.654419m. Speed=0.036000m/h.</desc>
<speed>0.010000</speed>
</trkpt>
<trkpt lat="55.731335" lon="26.231518">
<ele>145.642700</ele>
<time>2010-07-17T11:44:52Z</time>
<desc>lat.=55.731335, lon.=26.231518, Alt.=145.642700m. Speed=0.072000m/h.</desc>
<speed>0.020000</speed>
</trkpt>
<trkpt lat="55.731335" lon="26.231518">
<ele>145.627075</ele>
<time>2010-07-17T11:44:53Z</time>
<desc>lat.=55.731335, lon.=26.231518, Alt.=145.627075m. Speed=0.072000m/h.</desc>
<speed>0.020000</speed>
</trkpt>
<trkpt lat="55.731335" lon="26.231518">
<ele>145.615356</ele>
<time>2010-07-17T11:44:54Z</time>
<desc>lat.=55.731335, lon.=26.231518, Alt.=145.615356m. Speed=0.108000m/h.</desc>
<speed>0.030000</speed>
</trkpt>
<trkpt lat="55.731335" lon="26.231518">
<ele>145.599731</ele>
<time>2010-07-17T11:44:55Z</time>
<desc>lat.=55.731335, lon.=26.231518, Alt.=145.599731m. Speed=0.036000m/h.</desc>
<speed>0.010000</speed>
</trkpt>
<trkpt lat="55.731335" lon="26.231516">
<ele>145.595825</ele>
<time>2010-07-17T11:44:56Z</time>
<desc>lat.=55.731335, lon.=26.231516, Alt.=145.595825m. Speed=0.036000m/h.</desc>
<speed>0.010000</speed>
</trkpt>
<trkpt lat="55.731335" lon="26.231516">
<ele>145.588013</ele>
<time>2010-07-17T11:44:57Z</time>
<desc>lat.=55.731335, lon.=26.231516, Alt.=145.588013m. Speed=0.036000m/h.</desc>
<speed>0.010000</speed>
</trkpt>
<trkpt lat="55.731335" lon="26.231516">
<ele>145.580200</ele>
<time>2010-07-17T11:44:58Z</time>
<desc>lat.=55.731335, lon.=26.231516, Alt.=145.580200m. Speed=0.036000m/h.</desc>
<speed>0.010000</speed>
</trkpt>
<trkpt lat="55.731335" lon="26.231516">
<ele>145.572388</ele>
<time>2010-07-17T11:44:59Z</time>
<desc>lat.=55.731335, lon.=26.231516, Alt.=145.572388m. Speed=0.036000m/h.</desc>
<speed>0.010000</speed>
</trkpt>
<trkpt lat="55.731335" lon="26.231516">
<ele>145.560669</ele>
<time>2010-07-17T11:45:00Z</time>
<desc>lat.=55.731335, lon.=26.231516, Alt.=145.560669m. Speed=0.036000m/h.</desc>
<speed>0.010000</speed>
</trkpt>
<trkpt lat="55.731335" lon="26.231516">
<ele>145.548950</ele>
<time>2010-07-17T11:45:01Z</time>
<desc>lat.=55.731335, lon.=26.231516, Alt.=145.548950m. Speed=0.000000m/h.</desc>
<speed>0.000000</speed>
</trkpt>
<trkpt lat="55.731335" lon="26.231516">
<ele>145.541138</ele>
<time>2010-07-17T11:45:02Z</time>
<desc>lat.=55.731335, lon.=26.231516, Alt.=145.541138m. Speed=0.000000m/h.</desc>
<speed>0.000000</speed>
</trkpt>
<trkpt lat="55.731335" lon="26.231516">
<ele>145.537231</ele>
<time>2010-07-17T11:45:03Z</time>
<desc>lat.=55.731335, lon.=26.231516, Alt.=145.537231m. Speed=0.000000m/h.</desc>
<speed>0.000000</speed>
</trkpt>
<trkpt lat="55.731335" lon="26.231516">
<ele>145.525513</ele>
<time>2010-07-17T11:45:04Z</time>
<desc>lat.=55.731335, lon.=26.231516, Alt.=145.525513m. Speed=0.072000m/h.</desc>
<speed>0.020000</speed>
</trkpt>
<trkpt lat="55.731335" lon="26.231516">
<ele>145.513794</ele>
<time>2010-07-17T11:45:05Z</time>
<desc>lat.=55.731335, lon.=26.231516, Alt.=145.513794m. Speed=0.036000m/h.</desc>
<speed>0.010000</speed>
</trkpt>
<trkpt lat="55.731335" lon="26.231516">
<ele>145.502075</ele>
<time>2010-07-17T11:45:06Z</time>
<desc>lat.=55.731335, lon.=26.231516, Alt.=145.502075m. Speed=0.000000m/h.</desc>
<speed>0.000000</speed>
</trkpt>
<trkpt lat="55.731335" lon="26.231516">
<ele>145.494263</ele>
<time>2010-07-17T11:45:07Z</time>
<desc>lat.=55.731335, lon.=26.231516, Alt.=145.494263m. Speed=0.036000m/h.</desc>
<speed>0.010000</speed>
</trkpt>
<trkpt lat="55.731335" lon="26.231516">
<ele>145.482544</ele>
<time>2010-07-17T11:45:08Z</time>
<desc>lat.=55.731335, lon.=26.231516, Alt.=145.482544m. Speed=0.036000m/h.</desc>
<speed>0.010000</speed>
</trkpt>
<trkpt lat="55.731335" lon="26.231516">
<ele>145.470825</ele>
<time>2010-07-17T11:45:09Z</time>
<desc>lat.=55.731335, lon.=26.231516, Alt.=145.470825m. Speed=0.072000m/h.</desc>
<speed>0.020000</speed>
</trkpt>
<trkpt lat="55.731335" lon="26.231516">
<ele>145.459106</ele>
<time>2010-07-17T11:45:10Z</time>
<desc>lat.=55.731335, lon.=26.231516, Alt.=145.459106m. Speed=0.036000m/h.</desc>
<speed>0.010000</speed>
</trkpt>
<trkpt lat="55.731335" lon="26.231516">
<ele>145.451294</ele>
<time>2010-07-17T11:45:11Z</time>
<desc>lat.=55.731335, lon.=26.231516, Alt.=145.451294m. Speed=0.036000m/h.</desc>
<speed>0.010000</speed>
</trkpt>
<trkpt lat="55.731335" lon="26.231516">
<ele>145.435669</ele>
<time>2010-07-17T11:45:12Z</time>
<desc>lat.=55.731335, lon.=26.231516, Alt.=145.435669m. Speed=0.180000m/h.</desc>
<speed>0.050000</speed>
</trkpt>
<trkpt lat="55.731335" lon="26.231516">
<ele>145.431763</ele>
<time>2010-07-17T11:45:13Z</time>
<desc>lat.=55.731335, lon.=26.231516, Alt.=145.431763m. Speed=0.108000m/h.</desc>
<speed>0.030000</speed>
</trkpt>
<trkpt lat="55.731335" lon="26.231516">
<ele>145.423950</ele>
<time>2010-07-17T11:45:14Z</time>
<desc>lat.=55.731335, lon.=26.231516, Alt.=145.423950m. Speed=0.036000m/h.</desc>
<speed>0.010000</speed>
</trkpt>
<trkpt lat="55.731335" lon="26.231516">
<ele>145.412231</ele>
<time>2010-07-17T11:45:15Z</time>
<desc>lat.=55.731335, lon.=26.231516, Alt.=145.412231m. Speed=0.072000m/h.</desc>
<speed>0.020000</speed>
</trkpt>
<trkpt lat="55.731335" lon="26.231516">
<ele>145.400513</ele>
<time>2010-07-17T11:45:16Z</time>
<desc>lat.=55.731335, lon.=26.231516, Alt.=145.400513m. Speed=0.036000m/h.</desc>
<speed>0.010000</speed>
</trkpt>
<trkpt lat="55.731335" lon="26.231516">
<ele>145.400513</ele>
<time>2010-07-17T11:45:17Z</time>
<desc>lat.=55.731335, lon.=26.231516, Alt.=145.400513m. Speed=0.000000m/h.</desc>
<speed>0.000000</speed>
</trkpt>
<trkpt lat="55.731335" lon="26.231516">
<ele>145.400513</ele>
<time>2010-07-17T11:45:18Z</time>
<desc>lat.=55.731335, lon.=26.231516, Alt.=145.400513m. Speed=0.000000m/h.</desc>
<speed>0.000000</speed>
</trkpt>
<trkpt lat="55.731335" lon="26.231516">
<ele>145.408325</ele>
<time>2010-07-17T11:45:19Z</time>
<desc>lat.=55.731335, lon.=26.231516, Alt.=145.408325m. Speed=0.036000m/h.</desc>
<speed>0.010000</speed>
</trkpt>
<trkpt lat="55.731335" lon="26.231516">
<ele>145.412231</ele>
<time>2010-07-17T11:45:20Z</time>
<desc>lat.=55.731335, lon.=26.231516, Alt.=145.412231m. Speed=0.000000m/h.</desc>
<speed>0.000000</speed>
</trkpt>
<trkpt lat="55.731335" lon="26.231516">
<ele>145.416138</ele>
<time>2010-07-17T11:45:21Z</time>
<desc>lat.=55.731335, lon.=26.231516, Alt.=145.416138m. Speed=0.000000m/h.</desc>
<speed>0.000000</speed>
</trkpt>
<trkpt lat="55.731335" lon="26.231516">
<ele>145.420044</ele>
<time>2010-07-17T11:45:22Z</time>
<desc>lat.=55.731335, lon.=26.231516, Alt.=145.420044m. Speed=0.036000m/h.</desc>
<speed>0.010000</speed>
</trkpt>
<trkpt lat="55.731335" lon="26.231516">
<ele>145.423950</ele>
<time>2010-07-17T11:45:23Z</time>
<desc>lat.=55.731335, lon.=26.231516, Alt.=145.423950m. Speed=0.036000m/h.</desc>
<speed>0.010000</speed>
</trkpt>
<trkpt lat="55.731335" lon="26.231516">
<ele>145.427856</ele>
<time>2010-07-17T11:45:24Z</time>
<desc>lat.=55.731335, lon.=26.231516, Alt.=145.427856m. Speed=0.036000m/h.</desc>
<speed>0.010000</speed>
</trkpt>
<trkpt lat="55.731335" lon="26.231516">
<ele>145.431763</ele>
<time>2010-07-17T11:45:25Z</time>
<desc>lat.=55.731335, lon.=26.231516, Alt.=145.431763m. Speed=0.036000m/h.</desc>
<speed>0.010000</speed>
</trkpt>
<trkpt lat="55.731335" lon="26.231516">
<ele>145.431763</ele>
<time>2010-07-17T11:45:26Z</time>
<desc>lat.=55.731335, lon.=26.231516, Alt.=145.431763m. Speed=0.108000m/h.</desc>
<speed>0.030000</speed>
</trkpt>
<trkpt lat="55.731335" lon="26.231516">
<ele>145.431763</ele>
<time>2010-07-17T11:45:27Z</time>
<desc>lat.=55.731335, lon.=26.231516, Alt.=145.431763m. Speed=0.072000m/h.</desc>
<speed>0.020000</speed>
</trkpt>
<trkpt lat="55.731335" lon="26.231516">
<ele>145.427856</ele>
<time>2010-07-17T11:45:28Z</time>
<desc>lat.=55.731335, lon.=26.231516, Alt.=145.427856m. Speed=0.072000m/h.</desc>
<speed>0.020000</speed>
</trkpt>
<trkpt lat="55.731335" lon="26.231516">
<ele>145.431763</ele>
<time>2010-07-17T11:45:29Z</time>
<desc>lat.=55.731335, lon.=26.231516, Alt.=145.431763m. Speed=0.036000m/h.</desc>
<speed>0.010000</speed>
</trkpt>
<trkpt lat="55.731335" lon="26.231516">
<ele>145.435669</ele>
<time>2010-07-17T11:45:30Z</time>
<desc>lat.=55.731335, lon.=26.231516, Alt.=145.435669m. Speed=0.108000m/h.</desc>
<speed>0.030000</speed>
</trkpt>
<trkpt lat="55.731335" lon="26.231516">
<ele>145.439575</ele>
<time>2010-07-17T11:45:31Z</time>
<desc>lat.=55.731335, lon.=26.231516, Alt.=145.439575m. Speed=0.072000m/h.</desc>
<speed>0.020000</speed>
</trkpt>
<trkpt lat="55.731335" lon="26.231516">
<ele>145.455200</ele>
<time>2010-07-17T11:45:32Z</time>
<desc>lat.=55.731335, lon.=26.231516, Alt.=145.455200m. Speed=0.036000m/h.</desc>
<speed>0.010000</speed>
</trkpt>
<trkpt lat="55.731335" lon="26.231516">
<ele>145.455200</ele>
<time>2010-07-17T11:45:33Z</time>
<desc>lat.=55.731335, lon.=26.231516, Alt.=145.455200m. Speed=0.072000m/h.</desc>
<speed>0.020000</speed>
</trkpt>
<trkpt lat="55.731335" lon="26.231516">
<ele>145.463013</ele>
<time>2010-07-17T11:45:34Z</time>
<desc>lat.=55.731335, lon.=26.231516, Alt.=145.463013m. Speed=0.036000m/h.</desc>
<speed>0.010000</speed>
</trkpt>
<trkpt lat="55.731335" lon="26.231516">
<ele>145.474731</ele>
<time>2010-07-17T11:45:35Z</time>
<desc>lat.=55.731335, lon.=26.231516, Alt.=145.474731m. Speed=0.180000m/h.</desc>
<speed>0.050000</speed>
</trkpt>
<trkpt lat="55.731335" lon="26.231516">
<ele>145.478638</ele>
<time>2010-07-17T11:45:36Z</time>
<desc>lat.=55.731335, lon.=26.231516, Alt.=145.478638m. Speed=0.072000m/h.</desc>
<speed>0.020000</speed>
</trkpt>
<trkpt lat="55.731335" lon="26.231518">
<ele>145.486450</ele>
<time>2010-07-17T11:45:37Z</time>
<desc>lat.=55.731335, lon.=26.231518, Alt.=145.486450m. Speed=0.144000m/h.</desc>
<speed>0.040000</speed>
</trkpt>
<trkpt lat="55.731335" lon="26.231518">
<ele>145.502075</ele>
<time>2010-07-17T11:45:38Z</time>
<desc>lat.=55.731335, lon.=26.231518, Alt.=145.502075m. Speed=0.108000m/h.</desc>
<speed>0.030000</speed>
</trkpt>
<trkpt lat="55.731335" lon="26.231518">
<ele>145.505981</ele>
<time>2010-07-17T11:45:39Z</time>
<desc>lat.=55.731335, lon.=26.231518, Alt.=145.505981m. Speed=0.036000m/h.</desc>
<speed>0.010000</speed>
</trkpt>
<trkpt lat="55.731335" lon="26.231518">
<ele>145.505981</ele>
<time>2010-07-17T11:45:40Z</time>
<desc>lat.=55.731335, lon.=26.231518, Alt.=145.505981m. Speed=0.072000m/h.</desc>
<speed>0.020000</speed>
</trkpt>
<trkpt lat="55.731335" lon="26.231518">
<ele>145.502075</ele>
<time>2010-07-17T11:45:41Z</time>
<desc>lat.=55.731335, lon.=26.231518, Alt.=145.502075m. Speed=0.144000m/h.</desc>
<speed>0.040000</speed>
</trkpt>
<trkpt lat="55.731335" lon="26.231518">
<ele>145.498169</ele>
<time>2010-07-17T11:45:42Z</time>
<desc>lat.=55.731335, lon.=26.231518, Alt.=145.498169m. Speed=0.072000m/h.</desc>
<speed>0.020000</speed>
</trkpt>
<trkpt lat="55.731335" lon="26.231518">
<ele>145.494263</ele>
<time>2010-07-17T11:45:43Z</time>
<desc>lat.=55.731335, lon.=26.231518, Alt.=145.494263m. Speed=0.072000m/h.</desc>
<speed>0.020000</speed>
</trkpt>
<trkpt lat="55.731335" lon="26.231518">
<ele>145.494263</ele>
<time>2010-07-17T11:45:44Z</time>
<desc>lat.=55.731335, lon.=26.231518, Alt.=145.494263m. Speed=0.072000m/h.</desc>
<speed>0.020000</speed>
</trkpt>
<trkpt lat="55.731335" lon="26.231518">
<ele>145.490356</ele>
<time>2010-07-17T11:45:45Z</time>
<desc>lat.=55.731335, lon.=26.231518, Alt.=145.490356m. Speed=0.072000m/h.</desc>
<speed>0.020000</speed>
</trkpt>
<trkpt lat="55.731335" lon="26.231518">
<ele>145.486450</ele>
<time>2010-07-17T11:45:46Z</time>
<desc>lat.=55.731335, lon.=26.231518, Alt.=145.486450m. Speed=0.000000m/h.</desc>
<speed>0.000000</speed>
</trkpt>
<trkpt lat="55.731335" lon="26.231518">
<ele>145.474731</ele>
<time>2010-07-17T11:45:47Z</time>
<desc>lat.=55.731335, lon.=26.231518, Alt.=145.474731m. Speed=0.108000m/h.</desc>
<speed>0.030000</speed>
</trkpt>
<trkpt lat="55.731335" lon="26.231518">
<ele>145.463013</ele>
<time>2010-07-17T11:45:48Z</time>
<desc>lat.=55.731335, lon.=26.231518, Alt.=145.463013m. Speed=0.144000m/h.</desc>
<speed>0.040000</speed>
</trkpt>
<trkpt lat="55.731339" lon="26.231518">
<ele>145.459106</ele>
<time>2010-07-17T11:45:49Z</time>
<desc>lat.=55.731339, lon.=26.231518, Alt.=145.459106m. Speed=0.108000m/h.</desc>
<speed>0.030000</speed>
</trkpt>
<trkpt lat="55.731339" lon="26.231518">
<ele>145.459106</ele>
<time>2010-07-17T11:45:50Z</time>
<desc>lat.=55.731339, lon.=26.231518, Alt.=145.459106m. Speed=0.072000m/h.</desc>
<speed>0.020000</speed>
</trkpt>
<trkpt lat="55.731339" lon="26.231518">
<ele>145.447388</ele>
<time>2010-07-17T11:45:51Z</time>
<desc>lat.=55.731339, lon.=26.231518, Alt.=145.447388m. Speed=0.072000m/h.</desc>
<speed>0.020000</speed>
</trkpt>
<trkpt lat="55.731339" lon="26.231518">
<ele>145.443481</ele>
<time>2010-07-17T11:45:52Z</time>
<desc>lat.=55.731339, lon.=26.231518, Alt.=145.443481m. Speed=0.108000m/h.</desc>
<speed>0.030000</speed>
</trkpt>
<trkpt lat="55.731339" lon="26.231518">
<ele>145.435669</ele>
<time>2010-07-17T11:45:53Z</time>
<desc>lat.=55.731339, lon.=26.231518, Alt.=145.435669m. Speed=0.036000m/h.</desc>
<speed>0.010000</speed>
</trkpt>
<trkpt lat="55.731339" lon="26.231518">
<ele>145.435669</ele>
<time>2010-07-17T11:45:54Z</time>
<desc>lat.=55.731339, lon.=26.231518, Alt.=145.435669m. Speed=0.036000m/h.</desc>
<speed>0.010000</speed>
</trkpt>
<trkpt lat="55.731339" lon="26.231518">
<ele>145.435669</ele>
<time>2010-07-17T11:45:55Z</time>
<desc>lat.=55.731339, lon.=26.231518, Alt.=145.435669m. Speed=0.108000m/h.</desc>
<speed>0.030000</speed>
</trkpt>
<trkpt lat="55.731339" lon="26.231518">
<ele>145.427856</ele>
<time>2010-07-17T11:45:56Z</time>
<desc>lat.=55.731339, lon.=26.231518, Alt.=145.427856m. Speed=0.000000m/h.</desc>
<speed>0.000000</speed>
</trkpt>
<trkpt lat="55.731339" lon="26.231518">
<ele>145.427856</ele>
<time>2010-07-17T11:45:57Z</time>
<desc>lat.=55.731339, lon.=26.231518, Alt.=145.427856m. Speed=0.000000m/h.</desc>
<speed>0.000000</speed>
</trkpt>
<trkpt lat="55.731339" lon="26.231518">
<ele>145.420044</ele>
<time>2010-07-17T11:45:58Z</time>
<desc>lat.=55.731339, lon.=26.231518, Alt.=145.420044m. Speed=0.036000m/h.</desc>
<speed>0.010000</speed>
</trkpt>
<trkpt lat="55.731339" lon="26.231518">
<ele>145.412231</ele>
<time>2010-07-17T11:45:59Z</time>
<desc>lat.=55.731339, lon.=26.231518, Alt.=145.412231m. Speed=0.000000m/h.</desc>
<speed>0.000000</speed>
</trkpt>
<trkpt lat="55.731339" lon="26.231518">
<ele>145.408325</ele>
<time>2010-07-17T11:46:00Z</time>
<desc>lat.=55.731339, lon.=26.231518, Alt.=145.408325m. Speed=0.036000m/h.</desc>
<speed>0.010000</speed>
</trkpt>
<trkpt lat="55.731339" lon="26.231518">
<ele>145.400513</ele>
<time>2010-07-17T11:46:01Z</time>
<desc>lat.=55.731339, lon.=26.231518, Alt.=145.400513m. Speed=0.036000m/h.</desc>
<speed>0.010000</speed>
</trkpt>
<trkpt lat="55.731339" lon="26.231518">
<ele>145.400513</ele>
<time>2010-07-17T11:46:02Z</time>
<desc>lat.=55.731339, lon.=26.231518, Alt.=145.400513m. Speed=0.000000m/h.</desc>
<speed>0.000000</speed>
</trkpt>
<trkpt lat="55.731339" lon="26.231518">
<ele>145.400513</ele>
<time>2010-07-17T11:46:03Z</time>
<desc>lat.=55.731339, lon.=26.231518, Alt.=145.400513m. Speed=0.036000m/h.</desc>
<speed>0.010000</speed>
</trkpt>
<trkpt lat="55.731339" lon="26.231518">
<ele>145.400513</ele>
<time>2010-07-17T11:46:04Z</time>
<desc>lat.=55.731339, lon.=26.231518, Alt.=145.400513m. Speed=0.000000m/h.</desc>
<speed>0.000000</speed>
</trkpt>
<trkpt lat="55.731339" lon="26.231518">
<ele>145.396606</ele>
<time>2010-07-17T11:46:05Z</time>
<desc>lat.=55.731339, lon.=26.231518, Alt.=145.396606m. Speed=0.036000m/h.</desc>
<speed>0.010000</speed>
</trkpt>
<trkpt lat="55.731339" lon="26.231518">
<ele>145.392700</ele>
<time>2010-07-17T11:46:06Z</time>
<desc>lat.=55.731339, lon.=26.231518, Alt.=145.392700m. Speed=0.000000m/h.</desc>
<speed>0.000000</speed>
</trkpt>
<trkpt lat="55.731339" lon="26.231518">
<ele>145.392700</ele>
<time>2010-07-17T11:46:07Z</time>
<desc>lat.=55.731339, lon.=26.231518, Alt.=145.392700m. Speed=0.000000m/h.</desc>
<speed>0.000000</speed>
</trkpt>
<trkpt lat="55.731339" lon="26.231518">
<ele>145.392700</ele>
<time>2010-07-17T11:46:08Z</time>
<desc>lat.=55.731339, lon.=26.231518, Alt.=145.392700m. Speed=0.000000m/h.</desc>
<speed>0.000000</speed>
</trkpt>
<trkpt lat="55.731339" lon="26.231518">
<ele>145.380981</ele>
<time>2010-07-17T11:46:09Z</time>
<desc>lat.=55.731339, lon.=26.231518, Alt.=145.380981m. Speed=0.000000m/h.</desc>
<speed>0.000000</speed>
</trkpt>
<trkpt lat="55.731339" lon="26.231518">
<ele>145.373169</ele>
<time>2010-07-17T11:46:10Z</time>
<desc>lat.=55.731339, lon.=26.231518, Alt.=145.373169m. Speed=0.036000m/h.</desc>
<speed>0.010000</speed>
</trkpt>
<trkpt lat="55.731339" lon="26.231518">
<ele>145.369263</ele>
<time>2010-07-17T11:46:11Z</time>
<desc>lat.=55.731339, lon.=26.231518, Alt.=145.369263m. Speed=0.036000m/h.</desc>
<speed>0.010000</speed>
</trkpt>
<trkpt lat="55.731339" lon="26.231518">
<ele>145.369263</ele>
<time>2010-07-17T11:46:12Z</time>
<desc>lat.=55.731339, lon.=26.231518, Alt.=145.369263m. Speed=0.036000m/h.</desc>
<speed>0.010000</speed>
</trkpt>
<trkpt lat="55.731339" lon="26.231518">
<ele>145.365356</ele>
<time>2010-07-17T11:46:13Z</time>
<desc>lat.=55.731339, lon.=26.231518, Alt.=145.365356m. Speed=0.000000m/h.</desc>
<speed>0.000000</speed>
</trkpt>
<trkpt lat="55.731339" lon="26.231518">
<ele>145.373169</ele>
<time>2010-07-17T11:46:14Z</time>
<desc>lat.=55.731339, lon.=26.231518, Alt.=145.373169m. Speed=0.036000m/h.</desc>
<speed>0.010000</speed>
</trkpt>
<trkpt lat="55.731339" lon="26.231518">
<ele>145.377075</ele>
<time>2010-07-17T11:46:15Z</time>
<desc>lat.=55.731339, lon.=26.231518, Alt.=145.377075m. Speed=0.036000m/h.</desc>
<speed>0.010000</speed>
</trkpt>
<trkpt lat="55.731339" lon="26.231518">
<ele>145.380981</ele>
<time>2010-07-17T11:46:16Z</time>
<desc>lat.=55.731339, lon.=26.231518, Alt.=145.380981m. Speed=0.000000m/h.</desc>
<speed>0.000000</speed>
</trkpt>
<trkpt lat="55.731339" lon="26.231518">
<ele>145.388794</ele>
<time>2010-07-17T11:46:17Z</time>
<desc>lat.=55.731339, lon.=26.231518, Alt.=145.388794m. Speed=0.072000m/h.</desc>
<speed>0.020000</speed>
</trkpt>
<trkpt lat="55.731339" lon="26.231518">
<ele>145.392700</ele>
<time>2010-07-17T11:46:18Z</time>
<desc>lat.=55.731339, lon.=26.231518, Alt.=145.392700m. Speed=0.036000m/h.</desc>
<speed>0.010000</speed>
</trkpt>
<trkpt lat="55.731339" lon="26.231518">
<ele>145.396606</ele>
<time>2010-07-17T11:46:19Z</time>
<desc>lat.=55.731339, lon.=26.231518, Alt.=145.396606m. Speed=0.000000m/h.</desc>
<speed>0.000000</speed>
</trkpt>
<trkpt lat="55.731339" lon="26.231518">
<ele>145.400513</ele>
<time>2010-07-17T11:46:20Z</time>
<desc>lat.=55.731339, lon.=26.231518, Alt.=145.400513m. Speed=0.072000m/h.</desc>
<speed>0.020000</speed>
</trkpt>
<trkpt lat="55.731339" lon="26.231518">
<ele>145.404419</ele>
<time>2010-07-17T11:46:21Z</time>
<desc>lat.=55.731339, lon.=26.231518, Alt.=145.404419m. Speed=0.036000m/h.</desc>
<speed>0.010000</speed>
</trkpt>
<trkpt lat="55.731339" lon="26.231518">
<ele>145.412231</ele>
<time>2010-07-17T11:46:22Z</time>
<desc>lat.=55.731339, lon.=26.231518, Alt.=145.412231m. Speed=0.108000m/h.</desc>
<speed>0.030000</speed>
</trkpt>
<trkpt lat="55.731339" lon="26.231518">
<ele>145.420044</ele>
<time>2010-07-17T11:46:23Z</time>
<desc>lat.=55.731339, lon.=26.231518, Alt.=145.420044m. Speed=0.036000m/h.</desc>
<speed>0.010000</speed>
</trkpt>
<trkpt lat="55.731339" lon="26.231518">
<ele>145.423950</ele>
<time>2010-07-17T11:46:24Z</time>
<desc>lat.=55.731339, lon.=26.231518, Alt.=145.423950m. Speed=0.072000m/h.</desc>
<speed>0.020000</speed>
</trkpt>
<trkpt lat="55.731339" lon="26.231518">
<ele>145.420044</ele>
<time>2010-07-17T11:46:25Z</time>
<desc>lat.=55.731339, lon.=26.231518, Alt.=145.420044m. Speed=0.108000m/h.</desc>
<speed>0.030000</speed>
</trkpt>
<trkpt lat="55.731339" lon="26.231518">
<ele>145.412231</ele>
<time>2010-07-17T11:46:26Z</time>
<desc>lat.=55.731339, lon.=26.231518, Alt.=145.412231m. Speed=0.144000m/h.</desc>
<speed>0.040000</speed>
</trkpt>
<trkpt lat="55.731339" lon="26.231518">
<ele>145.416138</ele>
<time>2010-07-17T11:46:27Z</time>
<desc>lat.=55.731339, lon.=26.231518, Alt.=145.416138m. Speed=0.036000m/h.</desc>
<speed>0.010000</speed>
</trkpt>
<trkpt lat="55.731339" lon="26.231518">
<ele>145.416138</ele>
<time>2010-07-17T11:46:28Z</time>
<desc>lat.=55.731339, lon.=26.231518, Alt.=145.416138m. Speed=0.000000m/h.</desc>
<speed>0.000000</speed>
</trkpt>
<trkpt lat="55.731339" lon="26.231518">
<ele>145.416138</ele>
<time>2010-07-17T11:46:29Z</time>
<desc>lat.=55.731339, lon.=26.231518, Alt.=145.416138m. Speed=0.036000m/h.</desc>
<speed>0.010000</speed>
</trkpt>
<trkpt lat="55.731339" lon="26.231518">
<ele>145.412231</ele>
<time>2010-07-17T11:46:30Z</time>
<desc>lat.=55.731339, lon.=26.231518, Alt.=145.412231m. Speed=0.072000m/h.</desc>
<speed>0.020000</speed>
</trkpt>
<trkpt lat="55.731335" lon="26.231518">
<ele>145.408325</ele>
<time>2010-07-17T11:46:31Z</time>
<desc>lat.=55.731335, lon.=26.231518, Alt.=145.408325m. Speed=0.108000m/h.</desc>
<speed>0.030000</speed>
</trkpt>
<trkpt lat="55.731335" lon="26.231518">
<ele>145.404419</ele>
<time>2010-07-17T11:46:32Z</time>
<desc>lat.=55.731335, lon.=26.231518, Alt.=145.404419m. Speed=0.000000m/h.</desc>
<speed>0.000000</speed>
</trkpt>
<trkpt lat="55.731335" lon="26.231518">
<ele>145.396606</ele>
<time>2010-07-17T11:46:33Z</time>
<desc>lat.=55.731335, lon.=26.231518, Alt.=145.396606m. Speed=0.108000m/h.</desc>
<speed>0.030000</speed>
</trkpt>
<trkpt lat="55.731335" lon="26.231518">
<ele>145.392700</ele>
<time>2010-07-17T11:46:34Z</time>
<desc>lat.=55.731335, lon.=26.231518, Alt.=145.392700m. Speed=0.072000m/h.</desc>
<speed>0.020000</speed>
</trkpt>
<trkpt lat="55.731335" lon="26.231518">
<ele>145.388794</ele>
<time>2010-07-17T11:46:35Z</time>
<desc>lat.=55.731335, lon.=26.231518, Alt.=145.388794m. Speed=0.180000m/h.</desc>
<speed>0.050000</speed>
</trkpt>
<trkpt lat="55.731335" lon="26.231518">
<ele>145.384888</ele>
<time>2010-07-17T11:46:36Z</time>
<desc>lat.=55.731335, lon.=26.231518, Alt.=145.384888m. Speed=0.072000m/h.</desc>
<speed>0.020000</speed>
</trkpt>
<trkpt lat="55.731335" lon="26.231518">
<ele>145.380981</ele>
<time>2010-07-17T11:46:37Z</time>
<desc>lat.=55.731335, lon.=26.231518, Alt.=145.380981m. Speed=0.144000m/h.</desc>
<speed>0.040000</speed>
</trkpt>
<trkpt lat="55.731335" lon="26.231518">
<ele>145.373169</ele>
<time>2010-07-17T11:46:38Z</time>
<desc>lat.=55.731335, lon.=26.231518, Alt.=145.373169m. Speed=0.072000m/h.</desc>
<speed>0.020000</speed>
</trkpt>
<trkpt lat="55.731335" lon="26.231516">
<ele>145.361450</ele>
<time>2010-07-17T11:46:39Z</time>
<desc>lat.=55.731335, lon.=26.231516, Alt.=145.361450m. Speed=0.144000m/h.</desc>
<speed>0.040000</speed>
</trkpt>
<trkpt lat="55.731335" lon="26.231516">
<ele>145.357544</ele>
<time>2010-07-17T11:46:40Z</time>
<desc>lat.=55.731335, lon.=26.231516, Alt.=145.357544m. Speed=0.180000m/h.</desc>
<speed>0.050000</speed>
</trkpt>
<trkpt lat="55.731335" lon="26.231516">
<ele>145.353638</ele>
<time>2010-07-17T11:46:41Z</time>
<desc>lat.=55.731335, lon.=26.231516, Alt.=145.353638m. Speed=0.072000m/h.</desc>
<speed>0.020000</speed>
</trkpt>
<trkpt lat="55.731335" lon="26.231516">
<ele>145.349731</ele>
<time>2010-07-17T11:46:42Z</time>
<desc>lat.=55.731335, lon.=26.231516, Alt.=145.349731m. Speed=0.036000m/h.</desc>
<speed>0.010000</speed>
</trkpt>
<trkpt lat="55.731335" lon="26.231516">
<ele>145.345825</ele>
<time>2010-07-17T11:46:43Z</time>
<desc>lat.=55.731335, lon.=26.231516, Alt.=145.345825m. Speed=0.036000m/h.</desc>
<speed>0.010000</speed>
</trkpt>
<trkpt lat="55.731335" lon="26.231516">
<ele>145.338013</ele>
<time>2010-07-17T11:46:44Z</time>
<desc>lat.=55.731335, lon.=26.231516, Alt.=145.338013m. Speed=0.108000m/h.</desc>
<speed>0.030000</speed>
</trkpt>
<trkpt lat="55.731335" lon="26.231516">
<ele>145.322388</ele>
<time>2010-07-17T11:46:45Z</time>
<desc>lat.=55.731335, lon.=26.231516, Alt.=145.322388m. Speed=0.180000m/h.</desc>
<speed>0.050000</speed>
</trkpt>
<trkpt lat="55.731335" lon="26.231516">
<ele>145.314575</ele>
<time>2010-07-17T11:46:46Z</time>
<desc>lat.=55.731335, lon.=26.231516, Alt.=145.314575m. Speed=0.000000m/h.</desc>
<speed>0.000000</speed>
</trkpt>
<trkpt lat="55.731335" lon="26.231516">
<ele>145.298950</ele>
<time>2010-07-17T11:46:47Z</time>
<desc>lat.=55.731335, lon.=26.231516, Alt.=145.298950m. Speed=0.000000m/h.</desc>
<speed>0.000000</speed>
</trkpt>
<trkpt lat="55.731335" lon="26.231516">
<ele>145.279419</ele>
<time>2010-07-17T11:46:48Z</time>
<desc>lat.=55.731335, lon.=26.231516, Alt.=145.279419m. Speed=0.144000m/h.</desc>
<speed>0.040000</speed>
</trkpt>
<trkpt lat="55.731335" lon="26.231516">
<ele>145.259888</ele>
<time>2010-07-17T11:46:49Z</time>
<desc>lat.=55.731335, lon.=26.231516, Alt.=145.259888m. Speed=0.036000m/h.</desc>
<speed>0.010000</speed>
</trkpt>
<trkpt lat="55.731335" lon="26.231516">
<ele>145.244263</ele>
<time>2010-07-17T11:46:50Z</time>
<desc>lat.=55.731335, lon.=26.231516, Alt.=145.244263m. Speed=0.072000m/h.</desc>
<speed>0.020000</speed>
</trkpt>
<trkpt lat="55.731335" lon="26.231516">
<ele>145.232544</ele>
<time>2010-07-17T11:46:51Z</time>
<desc>lat.=55.731335, lon.=26.231516, Alt.=145.232544m. Speed=0.108000m/h.</desc>
<speed>0.030000</speed>
</trkpt>
<trkpt lat="55.731335" lon="26.231516">
<ele>145.213013</ele>
<time>2010-07-17T11:46:52Z</time>
<desc>lat.=55.731335, lon.=26.231516, Alt.=145.213013m. Speed=0.108000m/h.</desc>
<speed>0.030000</speed>
</trkpt>
<trkpt lat="55.731335" lon="26.231516">
<ele>145.201294</ele>
<time>2010-07-17T11:46:53Z</time>
<desc>lat.=55.731335, lon.=26.231516, Alt.=145.201294m. Speed=0.072000m/h.</desc>
<speed>0.020000</speed>
</trkpt>
<trkpt lat="55.731335" lon="26.231516">
<ele>145.193481</ele>
<time>2010-07-17T11:46:54Z</time>
<desc>lat.=55.731335, lon.=26.231516, Alt.=145.193481m. Speed=0.036000m/h.</desc>
<speed>0.010000</speed>
</trkpt>
<trkpt lat="55.731335" lon="26.231516">
<ele>145.177856</ele>
<time>2010-07-17T11:46:55Z</time>
<desc>lat.=55.731335, lon.=26.231516, Alt.=145.177856m. Speed=0.000000m/h.</desc>
<speed>0.000000</speed>
</trkpt>
<trkpt lat="55.731335" lon="26.231516">
<ele>145.173950</ele>
<time>2010-07-17T11:46:56Z</time>
<desc>lat.=55.731335, lon.=26.231516, Alt.=145.173950m. Speed=0.000000m/h.</desc>
<speed>0.000000</speed>
</trkpt>
<trkpt lat="55.731335" lon="26.231516">
<ele>145.166138</ele>
<time>2010-07-17T11:46:57Z</time>
<desc>lat.=55.731335, lon.=26.231516, Alt.=145.166138m. Speed=0.036000m/h.</desc>
<speed>0.010000</speed>
</trkpt>
<trkpt lat="55.731335" lon="26.231516">
<ele>145.158325</ele>
<time>2010-07-17T11:46:58Z</time>
<desc>lat.=55.731335, lon.=26.231516, Alt.=145.158325m. Speed=0.036000m/h.</desc>
<speed>0.010000</speed>
</trkpt>
<trkpt lat="55.731335" lon="26.231516">
<ele>145.154419</ele>
<time>2010-07-17T11:46:59Z</time>
<desc>lat.=55.731335, lon.=26.231516, Alt.=145.154419m. Speed=0.000000m/h.</desc>
<speed>0.000000</speed>
</trkpt>
<trkpt lat="55.731335" lon="26.231516">
<ele>145.150513</ele>
<time>2010-07-17T11:47:00Z</time>
<desc>lat.=55.731335, lon.=26.231516, Alt.=145.150513m. Speed=0.072000m/h.</desc>
<speed>0.020000</speed>
</trkpt>
<trkpt lat="55.731335" lon="26.231516">
<ele>145.142700</ele>
<time>2010-07-17T11:47:01Z</time>
<desc>lat.=55.731335, lon.=26.231516, Alt.=145.142700m. Speed=0.036000m/h.</desc>
<speed>0.010000</speed>
</trkpt>
<trkpt lat="55.731335" lon="26.231516">
<ele>145.134888</ele>
<time>2010-07-17T11:47:02Z</time>
<desc>lat.=55.731335, lon.=26.231516, Alt.=145.134888m. Speed=0.108000m/h.</desc>
<speed>0.030000</speed>
</trkpt>
<trkpt lat="55.731335" lon="26.231516">
<ele>145.130981</ele>
<time>2010-07-17T11:47:03Z</time>
<desc>lat.=55.731335, lon.=26.231516, Alt.=145.130981m. Speed=0.000000m/h.</desc>
<speed>0.000000</speed>
</trkpt>
<trkpt lat="55.731335" lon="26.231516">
<ele>145.115356</ele>
<time>2010-07-17T11:47:04Z</time>
<desc>lat.=55.731335, lon.=26.231516, Alt.=145.115356m. Speed=0.036000m/h.</desc>
<speed>0.010000</speed>
</trkpt>
<trkpt lat="55.731335" lon="26.231516">
<ele>145.099731</ele>
<time>2010-07-17T11:47:05Z</time>
<desc>lat.=55.731335, lon.=26.231516, Alt.=145.099731m. Speed=0.036000m/h.</desc>
<speed>0.010000</speed>
</trkpt>
<trkpt lat="55.731335" lon="26.231514">
<ele>145.080200</ele>
<time>2010-07-17T11:47:06Z</time>
<desc>lat.=55.731335, lon.=26.231514, Alt.=145.080200m. Speed=0.036000m/h.</desc>
<speed>0.010000</speed>
</trkpt>
<trkpt lat="55.731335" lon="26.231516">
<ele>145.072388</ele>
<time>2010-07-17T11:47:07Z</time>
<desc>lat.=55.731335, lon.=26.231516, Alt.=145.072388m. Speed=0.000000m/h.</desc>
<speed>0.000000</speed>
</trkpt>
<trkpt lat="55.731335" lon="26.231516">
<ele>145.068481</ele>
<time>2010-07-17T11:47:08Z</time>
<desc>lat.=55.731335, lon.=26.231516, Alt.=145.068481m. Speed=0.036000m/h.</desc>
<speed>0.010000</speed>
</trkpt>
<trkpt lat="55.731335" lon="26.231514">
<ele>145.064575</ele>
<time>2010-07-17T11:47:09Z</time>
<desc>lat.=55.731335, lon.=26.231514, Alt.=145.064575m. Speed=0.072000m/h.</desc>
<speed>0.020000</speed>
</trkpt>
<trkpt lat="55.731335" lon="26.231514">
<ele>145.052856</ele>
<time>2010-07-17T11:47:10Z</time>
<desc>lat.=55.731335, lon.=26.231514, Alt.=145.052856m. Speed=0.108000m/h.</desc>
<speed>0.030000</speed>
</trkpt>
<trkpt lat="55.731335" lon="26.231514">
<ele>145.048950</ele>
<time>2010-07-17T11:47:11Z</time>
<desc>lat.=55.731335, lon.=26.231514, Alt.=145.048950m. Speed=0.072000m/h.</desc>
<speed>0.020000</speed>
</trkpt>
<trkpt lat="55.731335" lon="26.231514">
<ele>145.041138</ele>
<time>2010-07-17T11:47:12Z</time>
<desc>lat.=55.731335, lon.=26.231514, Alt.=145.041138m. Speed=0.324000m/h.</desc>
<speed>0.090000</speed>
</trkpt>
<trkpt lat="55.731335" lon="26.231514">
<ele>145.033325</ele>
<time>2010-07-17T11:47:13Z</time>
<desc>lat.=55.731335, lon.=26.231514, Alt.=145.033325m. Speed=0.216000m/h.</desc>
<speed>0.060000</speed>
</trkpt>
<trkpt lat="55.731335" lon="26.231514">
<ele>145.025513</ele>
<time>2010-07-17T11:47:14Z</time>
<desc>lat.=55.731335, lon.=26.231514, Alt.=145.025513m. Speed=0.144000m/h.</desc>
<speed>0.040000</speed>
</trkpt>
<trkpt lat="55.731335" lon="26.231514">
<ele>145.025513</ele>
<time>2010-07-17T11:47:15Z</time>
<desc>lat.=55.731335, lon.=26.231514, Alt.=145.025513m. Speed=0.072000m/h.</desc>
<speed>0.020000</speed>
</trkpt>
<trkpt lat="55.731335" lon="26.231514">
<ele>145.017700</ele>
<time>2010-07-17T11:47:16Z</time>
<desc>lat.=55.731335, lon.=26.231514, Alt.=145.017700m. Speed=0.288000m/h.</desc>
<speed>0.080000</speed>
</trkpt>
<trkpt lat="55.731335" lon="26.231514">
<ele>145.013794</ele>
<time>2010-07-17T11:47:17Z</time>
<desc>lat.=55.731335, lon.=26.231514, Alt.=145.013794m. Speed=0.144000m/h.</desc>
<speed>0.040000</speed>
</trkpt>
<trkpt lat="55.731335" lon="26.231514">
<ele>144.998169</ele>
<time>2010-07-17T11:47:18Z</time>
<desc>lat.=55.731335, lon.=26.231514, Alt.=144.998169m. Speed=0.180000m/h.</desc>
<speed>0.050000</speed>
</trkpt>
<trkpt lat="55.731335" lon="26.231514">
<ele>144.970825</ele>
<time>2010-07-17T11:47:19Z</time>
<desc>lat.=55.731335, lon.=26.231514, Alt.=144.970825m. Speed=0.036000m/h.</desc>
<speed>0.010000</speed>
</trkpt>
<trkpt lat="55.731335" lon="26.231514">
<ele>144.963013</ele>
<time>2010-07-17T11:47:20Z</time>
<desc>lat.=55.731335, lon.=26.231514, Alt.=144.963013m. Speed=0.036000m/h.</desc>
<speed>0.010000</speed>
</trkpt>
<trkpt lat="55.731335" lon="26.231514">
<ele>144.951294</ele>
<time>2010-07-17T11:47:21Z</time>
<desc>lat.=55.731335, lon.=26.231514, Alt.=144.951294m. Speed=0.000000m/h.</desc>
<speed>0.000000</speed>
</trkpt>
<trkpt lat="55.731335" lon="26.231512">
<ele>144.943481</ele>
<time>2010-07-17T11:47:22Z</time>
<desc>lat.=55.731335, lon.=26.231512, Alt.=144.943481m. Speed=0.108000m/h.</desc>
<speed>0.030000</speed>
</trkpt>
<trkpt lat="55.731335" lon="26.231512">
<ele>144.939575</ele>
<time>2010-07-17T11:47:23Z</time>
<desc>lat.=55.731335, lon.=26.231512, Alt.=144.939575m. Speed=0.144000m/h.</desc>
<speed>0.040000</speed>
</trkpt>
<trkpt lat="55.731335" lon="26.231512">
<ele>144.927856</ele>
<time>2010-07-17T11:47:24Z</time>
<desc>lat.=55.731335, lon.=26.231512, Alt.=144.927856m. Speed=0.108000m/h.</desc>
<speed>0.030000</speed>
</trkpt>
<trkpt lat="55.731335" lon="26.231512">
<ele>144.923950</ele>
<time>2010-07-17T11:47:25Z</time>
<desc>lat.=55.731335, lon.=26.231512, Alt.=144.923950m. Speed=0.108000m/h.</desc>
<speed>0.030000</speed>
</trkpt>
<trkpt lat="55.731335" lon="26.231512">
<ele>144.916138</ele>
<time>2010-07-17T11:47:26Z</time>
<desc>lat.=55.731335, lon.=26.231512, Alt.=144.916138m. Speed=0.144000m/h.</desc>
<speed>0.040000</speed>
</trkpt>
<trkpt lat="55.731335" lon="26.231512">
<ele>144.912231</ele>
<time>2010-07-17T11:47:27Z</time>
<desc>lat.=55.731335, lon.=26.231512, Alt.=144.912231m. Speed=0.216000m/h.</desc>
<speed>0.060000</speed>
</trkpt>
<trkpt lat="55.731335" lon="26.231512">
<ele>144.908325</ele>
<time>2010-07-17T11:47:28Z</time>
<desc>lat.=55.731335, lon.=26.231512, Alt.=144.908325m. Speed=0.072000m/h.</desc>
<speed>0.020000</speed>
</trkpt>
<trkpt lat="55.731335" lon="26.231512">
<ele>144.912231</ele>
<time>2010-07-17T11:47:29Z</time>
<desc>lat.=55.731335, lon.=26.231512, Alt.=144.912231m. Speed=0.360000m/h.</desc>
<speed>0.100000</speed>
</trkpt>
<trkpt lat="55.731335" lon="26.231510">
<ele>144.912231</ele>
<time>2010-07-17T11:47:30Z</time>
<desc>lat.=55.731335, lon.=26.231510, Alt.=144.912231m. Speed=0.432000m/h.</desc>
<speed>0.120000</speed>
</trkpt>
<trkpt lat="55.731335" lon="26.231510">
<ele>144.916138</ele>
<time>2010-07-17T11:47:31Z</time>
<desc>lat.=55.731335, lon.=26.231510, Alt.=144.916138m. Speed=0.396000m/h.</desc>
<speed>0.110000</speed>
</trkpt>
<trkpt lat="55.731335" lon="26.231508">
<ele>144.916138</ele>
<time>2010-07-17T11:47:32Z</time>
<desc>lat.=55.731335, lon.=26.231508, Alt.=144.916138m. Speed=2.340000m/h.</desc>
<speed>0.650000</speed>
</trkpt>
<trkpt lat="55.731335" lon="26.231478">
<ele>144.697388</ele>
<time>2010-07-17T11:47:33Z</time>
<desc>lat.=55.731335, lon.=26.231478, Alt.=144.697388m. Speed=3.816000m/h.</desc>
<speed>1.060000</speed>
</trkpt>
<trkpt lat="55.731335" lon="26.231430">
<ele>144.236450</ele>
<time>2010-07-17T11:47:34Z</time>
<desc>lat.=55.731335, lon.=26.231430, Alt.=144.236450m. Speed=5.220000m/h.</desc>
<speed>1.450000</speed>
</trkpt>
<trkpt lat="55.731339" lon="26.231405">
<ele>144.130981</ele>
<time>2010-07-17T11:47:35Z</time>
<desc>lat.=55.731339, lon.=26.231405, Alt.=144.130981m. Speed=4.968000m/h.</desc>
<speed>1.380000</speed>
</trkpt>
<trkpt lat="55.731346" lon="26.231369">
<ele>143.970825</ele>
<time>2010-07-17T11:47:36Z</time>
<desc>lat.=55.731346, lon.=26.231369, Alt.=143.970825m. Speed=6.588000m/h.</desc>
<speed>1.830000</speed>
</trkpt>
<trkpt lat="55.731354" lon="26.231327">
<ele>143.650513</ele>
<time>2010-07-17T11:47:37Z</time>
<desc>lat.=55.731354, lon.=26.231327, Alt.=143.650513m. Speed=7.488000m/h.</desc>
<speed>2.080000</speed>
</trkpt>
<trkpt lat="55.731358" lon="26.231285">
<ele>143.990356</ele>
<time>2010-07-17T11:47:38Z</time>
<desc>lat.=55.731358, lon.=26.231285, Alt.=143.990356m. Speed=6.156000m/h.</desc>
<speed>1.710000</speed>
</trkpt>
<trkpt lat="55.731358" lon="26.231249">
<ele>144.627075</ele>
<time>2010-07-17T11:47:39Z</time>
<desc>lat.=55.731358, lon.=26.231249, Alt.=144.627075m. Speed=6.264000m/h.</desc>
<speed>1.740000</speed>
</trkpt>
<trkpt lat="55.731365" lon="26.231211">
<ele>144.908325</ele>
<time>2010-07-17T11:47:40Z</time>
<desc>lat.=55.731365, lon.=26.231211, Alt.=144.908325m. Speed=7.164000m/h.</desc>
<speed>1.990000</speed>
</trkpt>
<trkpt lat="55.731369" lon="26.231167">
<ele>145.572388</ele>
<time>2010-07-17T11:47:41Z</time>
<desc>lat.=55.731369, lon.=26.231167, Alt.=145.572388m. Speed=7.776000m/h.</desc>
<speed>2.160000</speed>
</trkpt>
<trkpt lat="55.731384" lon="26.231125">
<ele>145.943481</ele>
<time>2010-07-17T11:47:42Z</time>
<desc>lat.=55.731384, lon.=26.231125, Alt.=145.943481m. Speed=7.920000m/h.</desc>
<speed>2.200000</speed>
</trkpt>
<trkpt lat="55.731388" lon="26.231081">
<ele>146.494263</ele>
<time>2010-07-17T11:47:43Z</time>
<desc>lat.=55.731388, lon.=26.231081, Alt.=146.494263m. Speed=8.568000m/h.</desc>
<speed>2.380000</speed>
</trkpt>
<trkpt lat="55.731411" lon="26.231026">
<ele>146.611450</ele>
<time>2010-07-17T11:47:44Z</time>
<desc>lat.=55.731411, lon.=26.231026, Alt.=146.611450m. Speed=9.072000m/h.</desc>
<speed>2.520000</speed>
</trkpt>
<trkpt lat="55.731415" lon="26.230986">
<ele>147.080200</ele>
<time>2010-07-17T11:47:45Z</time>
<desc>lat.=55.731415, lon.=26.230986, Alt.=147.080200m. Speed=8.964000m/h.</desc>
<speed>2.490000</speed>
</trkpt>
<trkpt lat="55.731419" lon="26.230944">
<ele>147.463013</ele>
<time>2010-07-17T11:47:46Z</time>
<desc>lat.=55.731419, lon.=26.230944, Alt.=147.463013m. Speed=6.768000m/h.</desc>
<speed>1.880000</speed>
</trkpt>
<trkpt lat="55.731422" lon="26.230904">
<ele>148.048950</ele>
<time>2010-07-17T11:47:47Z</time>
<desc>lat.=55.731422, lon.=26.230904, Alt.=148.048950m. Speed=6.264000m/h.</desc>
<speed>1.740000</speed>
</trkpt>
<trkpt lat="55.731426" lon="26.230867">
<ele>149.005981</ele>
<time>2010-07-17T11:47:48Z</time>
<desc>lat.=55.731426, lon.=26.230867, Alt.=149.005981m. Speed=7.056000m/h.</desc>
<speed>1.960000</speed>
</trkpt>
<trkpt lat="55.731434" lon="26.230827">
<ele>149.611450</ele>
<time>2010-07-17T11:47:49Z</time>
<desc>lat.=55.731434, lon.=26.230827, Alt.=149.611450m. Speed=6.156000m/h.</desc>
<speed>1.710000</speed>
</trkpt>
<trkpt lat="55.731438" lon="26.230780">
<ele>150.052856</ele>
<time>2010-07-17T11:47:50Z</time>
<desc>lat.=55.731438, lon.=26.230780, Alt.=150.052856m. Speed=6.408000m/h.</desc>
<speed>1.780000</speed>
</trkpt>
<trkpt lat="55.731434" lon="26.230742">
<ele>150.670044</ele>
<time>2010-07-17T11:47:51Z</time>
<desc>lat.=55.731434, lon.=26.230742, Alt.=150.670044m. Speed=5.688000m/h.</desc>
<speed>1.580000</speed>
</trkpt>
<trkpt lat="55.731441" lon="26.230705">
<ele>151.287231</ele>
<time>2010-07-17T11:47:52Z</time>
<desc>lat.=55.731441, lon.=26.230705, Alt.=151.287231m. Speed=6.408000m/h.</desc>
<speed>1.780000</speed>
</trkpt>
<trkpt lat="55.731457" lon="26.230669">
<ele>151.689575</ele>
<time>2010-07-17T11:47:53Z</time>
<desc>lat.=55.731457, lon.=26.230669, Alt.=151.689575m. Speed=6.588000m/h.</desc>
<speed>1.830000</speed>
</trkpt>
<trkpt lat="55.731499" lon="26.230623">
<ele>153.291138</ele>
<time>2010-07-17T11:47:54Z</time>
<desc>lat.=55.731499, lon.=26.230623, Alt.=153.291138m. Speed=7.920000m/h.</desc>
<speed>2.200000</speed>
</trkpt>
<trkpt lat="55.731533" lon="26.230577">
<ele>152.740356</ele>
<time>2010-07-17T11:47:55Z</time>
<desc>lat.=55.731533, lon.=26.230577, Alt.=152.740356m. Speed=10.620000m/h.</desc>
<speed>2.950000</speed>
</trkpt>
<trkpt lat="55.731571" lon="26.230536">
<ele>151.798950</ele>
<time>2010-07-17T11:47:56Z</time>
<desc>lat.=55.731571, lon.=26.230536, Alt.=151.798950m. Speed=11.340000m/h.</desc>
<speed>3.150000</speed>
</trkpt>
<trkpt lat="55.731609" lon="26.230499">
<ele>150.963013</ele>
<time>2010-07-17T11:47:57Z</time>
<desc>lat.=55.731609, lon.=26.230499, Alt.=150.963013m. Speed=12.564000m/h.</desc>
<speed>3.490000</speed>
</trkpt>
<trkpt lat="55.731647" lon="26.230474">
<ele>150.216919</ele>
<time>2010-07-17T11:47:58Z</time>
<desc>lat.=55.731647, lon.=26.230474, Alt.=150.216919m. Speed=13.644000m/h.</desc>
<speed>3.790000</speed>
</trkpt>
<trkpt lat="55.731705" lon="26.230444">
<ele>148.982544</ele>
<time>2010-07-17T11:47:59Z</time>
<desc>lat.=55.731705, lon.=26.230444, Alt.=148.982544m. Speed=17.351999m/h.</desc>
<speed>4.820000</speed>
</trkpt>
<trkpt lat="55.731758" lon="26.230398">
<ele>148.240356</ele>
<time>2010-07-17T11:48:00Z</time>
<desc>lat.=55.731758, lon.=26.230398, Alt.=148.240356m. Speed=18.468000m/h.</desc>
<speed>5.130000</speed>
</trkpt>
<trkpt lat="55.731804" lon="26.230341">
<ele>147.451294</ele>
<time>2010-07-17T11:48:01Z</time>
<desc>lat.=55.731804, lon.=26.230341, Alt.=147.451294m. Speed=22.608000m/h.</desc>
<speed>6.280000</speed>
</trkpt>
<trkpt lat="55.731865" lon="26.230268">
<ele>147.162231</ele>
<time>2010-07-17T11:48:02Z</time>
<desc>lat.=55.731865, lon.=26.230268, Alt.=147.162231m. Speed=25.524000m/h.</desc>
<speed>7.090000</speed>
</trkpt>
<trkpt lat="55.731915" lon="26.230194">
<ele>147.091919</ele>
<time>2010-07-17T11:48:03Z</time>
<desc>lat.=55.731915, lon.=26.230194, Alt.=147.091919m. Speed=22.931999m/h.</desc>
<speed>6.370000</speed>
</trkpt>
<trkpt lat="55.731968" lon="26.230114">
<ele>145.951294</ele>
<time>2010-07-17T11:48:04Z</time>
<desc>lat.=55.731968, lon.=26.230114, Alt.=145.951294m. Speed=24.624001m/h.</desc>
<speed>6.840000</speed>
</trkpt>
<trkpt lat="55.732021" lon="26.230028">
<ele>146.713013</ele>
<time>2010-07-17T11:48:05Z</time>
<desc>lat.=55.732021, lon.=26.230028, Alt.=146.713013m. Speed=23.292000m/h.</desc>
<speed>6.470000</speed>
</trkpt>
<trkpt lat="55.732075" lon="26.229961">
<ele>147.611450</ele>
<time>2010-07-17T11:48:06Z</time>
<desc>lat.=55.732075, lon.=26.229961, Alt.=147.611450m. Speed=24.048000m/h.</desc>
<speed>6.680000</speed>
</trkpt>
<trkpt lat="55.732132" lon="26.229904">
<ele>148.213013</ele>
<time>2010-07-17T11:48:07Z</time>
<desc>lat.=55.732132, lon.=26.229904, Alt.=148.213013m. Speed=20.520000m/h.</desc>
<speed>5.700000</speed>
</trkpt>
<trkpt lat="55.732185" lon="26.229841">
<ele>146.287231</ele>
<time>2010-07-17T11:48:08Z</time>
<desc>lat.=55.732185, lon.=26.229841, Alt.=146.287231m. Speed=19.007999m/h.</desc>
<speed>5.280000</speed>
</trkpt>
<trkpt lat="55.732227" lon="26.229801">
<ele>146.525513</ele>
<time>2010-07-17T11:48:09Z</time>
<desc>lat.=55.732227, lon.=26.229801, Alt.=146.525513m. Speed=18.360001m/h.</desc>
<speed>5.100000</speed>
</trkpt>
<trkpt lat="55.732285" lon="26.229761">
<ele>145.978638</ele>
<time>2010-07-17T11:48:10Z</time>
<desc>lat.=55.732285, lon.=26.229761, Alt.=145.978638m. Speed=17.063999m/h.</desc>
<speed>4.740000</speed>
</trkpt>
<trkpt lat="55.732342" lon="26.229727">
<ele>145.494263</ele>
<time>2010-07-17T11:48:11Z</time>
<desc>lat.=55.732342, lon.=26.229727, Alt.=145.494263m. Speed=17.604000m/h.</desc>
<speed>4.890000</speed>
</trkpt>
<trkpt lat="55.732391" lon="26.229713">
<ele>145.693481</ele>
<time>2010-07-17T11:48:12Z</time>
<desc>lat.=55.732391, lon.=26.229713, Alt.=145.693481m. Speed=15.516000m/h.</desc>
<speed>4.310000</speed>
</trkpt>
<trkpt lat="55.732441" lon="26.229702">
<ele>145.107544</ele>
<time>2010-07-17T11:48:13Z</time>
<desc>lat.=55.732441, lon.=26.229702, Alt.=145.107544m. Speed=16.524000m/h.</desc>
<speed>4.590000</speed>
</trkpt>
<trkpt lat="55.732487" lon="26.229689">
<ele>144.849731</ele>
<time>2010-07-17T11:48:14Z</time>
<desc>lat.=55.732487, lon.=26.229689, Alt.=144.849731m. Speed=17.604000m/h.</desc>
<speed>4.890000</speed>
</trkpt>
<trkpt lat="55.732540" lon="26.229683">
<ele>145.142700</ele>
<time>2010-07-17T11:48:15Z</time>
<desc>lat.=55.732540, lon.=26.229683, Alt.=145.142700m. Speed=18.216000m/h.</desc>
<speed>5.060000</speed>
</trkpt>
<trkpt lat="55.732601" lon="26.229664">
<ele>144.310669</ele>
<time>2010-07-17T11:48:16Z</time>
<desc>lat.=55.732601, lon.=26.229664, Alt.=144.310669m. Speed=18.540001m/h.</desc>
<speed>5.150000</speed>
</trkpt>
<trkpt lat="55.732666" lon="26.229643">
<ele>143.400513</ele>
<time>2010-07-17T11:48:17Z</time>
<desc>lat.=55.732666, lon.=26.229643, Alt.=143.400513m. Speed=20.736000m/h.</desc>
<speed>5.760000</speed>
</trkpt>
<trkpt lat="55.732727" lon="26.229633">
<ele>142.959106</ele>
<time>2010-07-17T11:48:18Z</time>
<desc>lat.=55.732727, lon.=26.229633, Alt.=142.959106m. Speed=21.096001m/h.</desc>
<speed>5.860000</speed>
</trkpt>
<trkpt lat="55.732788" lon="26.229624">
<ele>141.146606</ele>
<time>2010-07-17T11:48:19Z</time>
<desc>lat.=55.732788, lon.=26.229624, Alt.=141.146606m. Speed=21.096001m/h.</desc>
<speed>5.860000</speed>
</trkpt>
<trkpt lat="55.732857" lon="26.229618">
<ele>139.920044</ele>
<time>2010-07-17T11:48:20Z</time>
<desc>lat.=55.732857, lon.=26.229618, Alt.=139.920044m. Speed=24.299999m/h.</desc>
<speed>6.750000</speed>
</trkpt>
<trkpt lat="55.732922" lon="26.229614">
<ele>139.896606</ele>
<time>2010-07-17T11:48:21Z</time>
<desc>lat.=55.732922, lon.=26.229614, Alt.=139.896606m. Speed=24.011999m/h.</desc>
<speed>6.670000</speed>
</trkpt>
<trkpt lat="55.732986" lon="26.229618">
<ele>139.709106</ele>
<time>2010-07-17T11:48:22Z</time>
<desc>lat.=55.732986, lon.=26.229618, Alt.=139.709106m. Speed=24.624001m/h.</desc>
<speed>6.840000</speed>
</trkpt>
<trkpt lat="55.733059" lon="26.229622">
<ele>140.111450</ele>
<time>2010-07-17T11:48:23Z</time>
<desc>lat.=55.733059, lon.=26.229622, Alt.=140.111450m. Speed=24.228001m/h.</desc>
<speed>6.730000</speed>
</trkpt>
<trkpt lat="55.733124" lon="26.229628">
<ele>139.845825</ele>
<time>2010-07-17T11:48:24Z</time>
<desc>lat.=55.733124, lon.=26.229628, Alt.=139.845825m. Speed=24.191999m/h.</desc>
<speed>6.720000</speed>
</trkpt>
<trkpt lat="55.733189" lon="26.229630">
<ele>140.267700</ele>
<time>2010-07-17T11:48:25Z</time>
<desc>lat.=55.733189, lon.=26.229630, Alt.=140.267700m. Speed=24.444000m/h.</desc>
<speed>6.790000</speed>
</trkpt>
<trkpt lat="55.733257" lon="26.229633">
<ele>140.521606</ele>
<time>2010-07-17T11:48:26Z</time>
<desc>lat.=55.733257, lon.=26.229633, Alt.=140.521606m. Speed=23.688000m/h.</desc>
<speed>6.580000</speed>
</trkpt>
<trkpt lat="55.733326" lon="26.229631">
<ele>141.146606</ele>
<time>2010-07-17T11:48:27Z</time>
<desc>lat.=55.733326, lon.=26.229631, Alt.=141.146606m. Speed=20.483999m/h.</desc>
<speed>5.690000</speed>
</trkpt>
<trkpt lat="55.733379" lon="26.229612">
<ele>141.228638</ele>
<time>2010-07-17T11:48:28Z</time>
<desc>lat.=55.733379, lon.=26.229612, Alt.=141.228638m. Speed=19.620001m/h.</desc>
<speed>5.450000</speed>
</trkpt>
<trkpt lat="55.733421" lon="26.229588">
<ele>140.982544</ele>
<time>2010-07-17T11:48:29Z</time>
<desc>lat.=55.733421, lon.=26.229588, Alt.=140.982544m. Speed=17.208000m/h.</desc>
<speed>4.780000</speed>
</trkpt>
<trkpt lat="55.733459" lon="26.229574">
<ele>141.744263</ele>
<time>2010-07-17T11:48:30Z</time>
<desc>lat.=55.733459, lon.=26.229574, Alt.=141.744263m. Speed=15.696000m/h.</desc>
<speed>4.360000</speed>
</trkpt>
<trkpt lat="55.733498" lon="26.229559">
<ele>142.166138</ele>
<time>2010-07-17T11:48:31Z</time>
<desc>lat.=55.733498, lon.=26.229559, Alt.=142.166138m. Speed=12.312000m/h.</desc>
<speed>3.420000</speed>
</trkpt>
<trkpt lat="55.733528" lon="26.229549">
<ele>142.271606</ele>
<time>2010-07-17T11:48:32Z</time>
<desc>lat.=55.733528, lon.=26.229549, Alt.=142.271606m. Speed=13.860000m/h.</desc>
<speed>3.850000</speed>
</trkpt>
<trkpt lat="55.733566" lon="26.229544">
<ele>142.349731</ele>
<time>2010-07-17T11:48:33Z</time>
<desc>lat.=55.733566, lon.=26.229544, Alt.=142.349731m. Speed=14.544000m/h.</desc>
<speed>4.040000</speed>
</trkpt>
<trkpt lat="55.733608" lon="26.229536">
<ele>142.021606</ele>
<time>2010-07-17T11:48:34Z</time>
<desc>lat.=55.733608, lon.=26.229536, Alt.=142.021606m. Speed=15.768000m/h.</desc>
<speed>4.380000</speed>
</trkpt>
<trkpt lat="55.733658" lon="26.229523">
<ele>141.435669</ele>
<time>2010-07-17T11:48:35Z</time>
<desc>lat.=55.733658, lon.=26.229523, Alt.=141.435669m. Speed=19.440001m/h.</desc>
<speed>5.400000</speed>
</trkpt>
<trkpt lat="55.733711" lon="26.229502">
<ele>141.205200</ele>
<time>2010-07-17T11:48:36Z</time>
<desc>lat.=55.733711, lon.=26.229502, Alt.=141.205200m. Speed=21.384001m/h.</desc>
<speed>5.940000</speed>
</trkpt>
<trkpt lat="55.733761" lon="26.229475">
<ele>141.224731</ele>
<time>2010-07-17T11:48:37Z</time>
<desc>lat.=55.733761, lon.=26.229475, Alt.=141.224731m. Speed=22.823999m/h.</desc>
<speed>6.340000</speed>
</trkpt>
<trkpt lat="55.733814" lon="26.229445">
<ele>141.068481</ele>
<time>2010-07-17T11:48:38Z</time>
<desc>lat.=55.733814, lon.=26.229445, Alt.=141.068481m. Speed=22.608000m/h.</desc>
<speed>6.280000</speed>
</trkpt>
<trkpt lat="55.733860" lon="26.229416">
<ele>140.670044</ele>
<time>2010-07-17T11:48:39Z</time>
<desc>lat.=55.733860, lon.=26.229416, Alt.=140.670044m. Speed=21.312000m/h.</desc>
<speed>5.920000</speed>
</trkpt>
<trkpt lat="55.733910" lon="26.229397">
<ele>141.123169</ele>
<time>2010-07-17T11:48:40Z</time>
<desc>lat.=55.733910, lon.=26.229397, Alt.=141.123169m. Speed=18.216000m/h.</desc>
<speed>5.060000</speed>
</trkpt>
<trkpt lat="55.733948" lon="26.229382">
<ele>141.213013</ele>
<time>2010-07-17T11:48:41Z</time>
<desc>lat.=55.733948, lon.=26.229382, Alt.=141.213013m. Speed=15.048000m/h.</desc>
<speed>4.180000</speed>
</trkpt>
<trkpt lat="55.733982" lon="26.229370">
<ele>140.986450</ele>
<time>2010-07-17T11:48:42Z</time>
<desc>lat.=55.733982, lon.=26.229370, Alt.=140.986450m. Speed=12.816000m/h.</desc>
<speed>3.560000</speed>
</trkpt>
<trkpt lat="55.734016" lon="26.229359">
<ele>140.963013</ele>
<time>2010-07-17T11:48:43Z</time>
<desc>lat.=55.734016, lon.=26.229359, Alt.=140.963013m. Speed=10.116000m/h.</desc>
<speed>2.810000</speed>
</trkpt>
<trkpt lat="55.734039" lon="26.229351">
<ele>141.173950</ele>
<time>2010-07-17T11:48:44Z</time>
<desc>lat.=55.734039, lon.=26.229351, Alt.=141.173950m. Speed=9.252000m/h.</desc>
<speed>2.570000</speed>
</trkpt>
<trkpt lat="55.734066" lon="26.229342">
<ele>140.963013</ele>
<time>2010-07-17T11:48:45Z</time>
<desc>lat.=55.734066, lon.=26.229342, Alt.=140.963013m. Speed=10.548000m/h.</desc>
<speed>2.930000</speed>
</trkpt>
<trkpt lat="55.734093" lon="26.229332">
<ele>140.896606</ele>
<time>2010-07-17T11:48:46Z</time>
<desc>lat.=55.734093, lon.=26.229332, Alt.=140.896606m. Speed=10.476000m/h.</desc>
<speed>2.910000</speed>
</trkpt>
<trkpt lat="55.734112" lon="26.229319">
<ele>140.709106</ele>
<time>2010-07-17T11:48:47Z</time>
<desc>lat.=55.734112, lon.=26.229319, Alt.=140.709106m. Speed=10.152000m/h.</desc>
<speed>2.820000</speed>
</trkpt>
<trkpt lat="55.734135" lon="26.229307">
<ele>140.279419</ele>
<time>2010-07-17T11:48:48Z</time>
<desc>lat.=55.734135, lon.=26.229307, Alt.=140.279419m. Speed=10.620000m/h.</desc>
<speed>2.950000</speed>
</trkpt>
<trkpt lat="55.734161" lon="26.229301">
<ele>140.521606</ele>
<time>2010-07-17T11:48:49Z</time>
<desc>lat.=55.734161, lon.=26.229301, Alt.=140.521606m. Speed=11.196000m/h.</desc>
<speed>3.110000</speed>
</trkpt>
<trkpt lat="55.734192" lon="26.229288">
<ele>140.306763</ele>
<time>2010-07-17T11:48:50Z</time>
<desc>lat.=55.734192, lon.=26.229288, Alt.=140.306763m. Speed=12.024000m/h.</desc>
<speed>3.340000</speed>
</trkpt>
<trkpt lat="55.734222" lon="26.229275">
<ele>140.517700</ele>
<time>2010-07-17T11:48:51Z</time>
<desc>lat.=55.734222, lon.=26.229275, Alt.=140.517700m. Speed=13.392000m/h.</desc>
<speed>3.720000</speed>
</trkpt>
<trkpt lat="55.734257" lon="26.229261">
<ele>140.377075</ele>
<time>2010-07-17T11:48:52Z</time>
<desc>lat.=55.734257, lon.=26.229261, Alt.=140.377075m. Speed=14.760000m/h.</desc>
<speed>4.100000</speed>
</trkpt>
<trkpt lat="55.734299" lon="26.229248">
<ele>140.127075</ele>
<time>2010-07-17T11:48:53Z</time>
<desc>lat.=55.734299, lon.=26.229248, Alt.=140.127075m. Speed=16.632000m/h.</desc>
<speed>4.620000</speed>
</trkpt>
<trkpt lat="55.734341" lon="26.229229">
<ele>139.814575</ele>
<time>2010-07-17T11:48:54Z</time>
<desc>lat.=55.734341, lon.=26.229229, Alt.=139.814575m. Speed=15.840000m/h.</desc>
<speed>4.400000</speed>
</trkpt>
<trkpt lat="55.734383" lon="26.229206">
<ele>139.822388</ele>
<time>2010-07-17T11:48:55Z</time>
<desc>lat.=55.734383, lon.=26.229206, Alt.=139.822388m. Speed=17.316000m/h.</desc>
<speed>4.810000</speed>
</trkpt>
<trkpt lat="55.734428" lon="26.229179">
<ele>139.486450</ele>
<time>2010-07-17T11:48:56Z</time>
<desc>lat.=55.734428, lon.=26.229179, Alt.=139.486450m. Speed=18.792000m/h.</desc>
<speed>5.220000</speed>
</trkpt>
<trkpt lat="55.734474" lon="26.229156">
<ele>138.970825</ele>
<time>2010-07-17T11:48:57Z</time>
<desc>lat.=55.734474, lon.=26.229156, Alt.=138.970825m. Speed=19.368000m/h.</desc>
<speed>5.380000</speed>
</trkpt>
<trkpt lat="55.734524" lon="26.229134">
<ele>138.365356</ele>
<time>2010-07-17T11:48:58Z</time>
<desc>lat.=55.734524, lon.=26.229134, Alt.=138.365356m. Speed=19.799999m/h.</desc>
<speed>5.500000</speed>
</trkpt>
<trkpt lat="55.734570" lon="26.229120">
<ele>138.349731</ele>
<time>2010-07-17T11:48:59Z</time>
<desc>lat.=55.734570, lon.=26.229120, Alt.=138.349731m. Speed=19.296000m/h.</desc>
<speed>5.360000</speed>
</trkpt>
<trkpt lat="55.734615" lon="26.229105">
<ele>137.869263</ele>
<time>2010-07-17T11:49:00Z</time>
<desc>lat.=55.734615, lon.=26.229105, Alt.=137.869263m. Speed=18.143999m/h.</desc>
<speed>5.040000</speed>
</trkpt>
<trkpt lat="55.734665" lon="26.229101">
<ele>137.584106</ele>
<time>2010-07-17T11:49:01Z</time>
<desc>lat.=55.734665, lon.=26.229101, Alt.=137.584106m. Speed=19.691999m/h.</desc>
<speed>5.470000</speed>
</trkpt>
<trkpt lat="55.734715" lon="26.229107">
<ele>136.994263</ele>
<time>2010-07-17T11:49:02Z</time>
<desc>lat.=55.734715, lon.=26.229107, Alt.=136.994263m. Speed=18.792000m/h.</desc>
<speed>5.220000</speed>
</trkpt>
<trkpt lat="55.734764" lon="26.229122">
<ele>136.701294</ele>
<time>2010-07-17T11:49:03Z</time>
<desc>lat.=55.734764, lon.=26.229122, Alt.=136.701294m. Speed=19.368000m/h.</desc>
<speed>5.380000</speed>
</trkpt>
<trkpt lat="55.734814" lon="26.229139">
<ele>136.111450</ele>
<time>2010-07-17T11:49:04Z</time>
<desc>lat.=55.734814, lon.=26.229139, Alt.=136.111450m. Speed=20.232000m/h.</desc>
<speed>5.620000</speed>
</trkpt>
<trkpt lat="55.734867" lon="26.229158">
<ele>135.752075</ele>
<time>2010-07-17T11:49:05Z</time>
<desc>lat.=55.734867, lon.=26.229158, Alt.=135.752075m. Speed=20.879999m/h.</desc>
<speed>5.800000</speed>
</trkpt>
<trkpt lat="55.734924" lon="26.229185">
<ele>135.705200</ele>
<time>2010-07-17T11:49:06Z</time>
<desc>lat.=55.734924, lon.=26.229185, Alt.=135.705200m. Speed=21.743999m/h.</desc>
<speed>6.040000</speed>
</trkpt>
<trkpt lat="55.734974" lon="26.229233">
<ele>135.720825</ele>
<time>2010-07-17T11:49:07Z</time>
<desc>lat.=55.734974, lon.=26.229233, Alt.=135.720825m. Speed=19.224001m/h.</desc>
<speed>5.340000</speed>
</trkpt>
<trkpt lat="55.735012" lon="26.229284">
<ele>135.783325</ele>
<time>2010-07-17T11:49:08Z</time>
<desc>lat.=55.735012, lon.=26.229284, Alt.=135.783325m. Speed=18.864000m/h.</desc>
<speed>5.240000</speed>
</trkpt>
<trkpt lat="55.735043" lon="26.229324">
<ele>135.775513</ele>
<time>2010-07-17T11:49:09Z</time>
<desc>lat.=55.735043, lon.=26.229324, Alt.=135.775513m. Speed=17.784000m/h.</desc>
<speed>4.940000</speed>
</trkpt>
<trkpt lat="55.735073" lon="26.229372">
<ele>135.943481</ele>
<time>2010-07-17T11:49:10Z</time>
<desc>lat.=55.735073, lon.=26.229372, Alt.=135.943481m. Speed=17.639999m/h.</desc>
<speed>4.900000</speed>
</trkpt>
<trkpt lat="55.735096" lon="26.229416">
<ele>136.388794</ele>
<time>2010-07-17T11:49:11Z</time>
<desc>lat.=55.735096, lon.=26.229416, Alt.=136.388794m. Speed=17.532000m/h.</desc>
<speed>4.870000</speed>
</trkpt>
<trkpt lat="55.735115" lon="26.229465">
<ele>136.330200</ele>
<time>2010-07-17T11:49:12Z</time>
<desc>lat.=55.735115, lon.=26.229465, Alt.=136.330200m. Speed=17.351999m/h.</desc>
<speed>4.820000</speed>
</trkpt>
<trkpt lat="55.735142" lon="26.229532">
<ele>136.955200</ele>
<time>2010-07-17T11:49:13Z</time>
<desc>lat.=55.735142, lon.=26.229532, Alt.=136.955200m. Speed=17.316000m/h.</desc>
<speed>4.810000</speed>
</trkpt>
<trkpt lat="55.735172" lon="26.229588">
<ele>137.431763</ele>
<time>2010-07-17T11:49:14Z</time>
<desc>lat.=55.735172, lon.=26.229588, Alt.=137.431763m. Speed=16.236000m/h.</desc>
<speed>4.510000</speed>
</trkpt>
<trkpt lat="55.735199" lon="26.229650">
<ele>137.525513</ele>
<time>2010-07-17T11:49:15Z</time>
<desc>lat.=55.735199, lon.=26.229650, Alt.=137.525513m. Speed=15.984000m/h.</desc>
<speed>4.440000</speed>
</trkpt>
<trkpt lat="55.735226" lon="26.229710">
<ele>137.345825</ele>
<time>2010-07-17T11:49:16Z</time>
<desc>lat.=55.735226, lon.=26.229710, Alt.=137.345825m. Speed=15.732000m/h.</desc>
<speed>4.370000</speed>
</trkpt>
<trkpt lat="55.735252" lon="26.229773">
<ele>137.494263</ele>
<time>2010-07-17T11:49:17Z</time>
<desc>lat.=55.735252, lon.=26.229773, Alt.=137.494263m. Speed=16.452000m/h.</desc>
<speed>4.570000</speed>
</trkpt>
<trkpt lat="55.735279" lon="26.229843">
<ele>137.298950</ele>
<time>2010-07-17T11:49:18Z</time>
<desc>lat.=55.735279, lon.=26.229843, Alt.=137.298950m. Speed=18.035999m/h.</desc>
<speed>5.010000</speed>
</trkpt>
<trkpt lat="55.735313" lon="26.229916">
<ele>137.189575</ele>
<time>2010-07-17T11:49:19Z</time>
<desc>lat.=55.735313, lon.=26.229916, Alt.=137.189575m. Speed=16.379999m/h.</desc>
<speed>4.550000</speed>
</trkpt>
<trkpt lat="55.735336" lon="26.229979">
<ele>137.502075</ele>
<time>2010-07-17T11:49:20Z</time>
<desc>lat.=55.735336, lon.=26.229979, Alt.=137.502075m. Speed=16.740000m/h.</desc>
<speed>4.650000</speed>
</trkpt>
<trkpt lat="55.735352" lon="26.230042">
<ele>137.877075</ele>
<time>2010-07-17T11:49:21Z</time>
<desc>lat.=55.735352, lon.=26.230042, Alt.=137.877075m. Speed=17.028000m/h.</desc>
<speed>4.730000</speed>
</trkpt>
<trkpt lat="55.735374" lon="26.230101">
<ele>138.459106</ele>
<time>2010-07-17T11:49:22Z</time>
<desc>lat.=55.735374, lon.=26.230101, Alt.=138.459106m. Speed=15.804000m/h.</desc>
<speed>4.390000</speed>
</trkpt>
<trkpt lat="55.735397" lon="26.230156">
<ele>138.869263</ele>
<time>2010-07-17T11:49:23Z</time>
<desc>lat.=55.735397, lon.=26.230156, Alt.=138.869263m. Speed=15.948000m/h.</desc>
<speed>4.430000</speed>
</trkpt>
<trkpt lat="55.735420" lon="26.230215">
<ele>138.463013</ele>
<time>2010-07-17T11:49:24Z</time>
<desc>lat.=55.735420, lon.=26.230215, Alt.=138.463013m. Speed=15.840000m/h.</desc>
<speed>4.400000</speed>
</trkpt>
<trkpt lat="55.735443" lon="26.230276">
<ele>138.572388</ele>
<time>2010-07-17T11:49:25Z</time>
<desc>lat.=55.735443, lon.=26.230276, Alt.=138.572388m. Speed=16.128000m/h.</desc>
<speed>4.480000</speed>
</trkpt>
<trkpt lat="55.735462" lon="26.230335">
<ele>138.810669</ele>
<time>2010-07-17T11:49:26Z</time>
<desc>lat.=55.735462, lon.=26.230335, Alt.=138.810669m. Speed=15.336000m/h.</desc>
<speed>4.260000</speed>
</trkpt>
<trkpt lat="55.735485" lon="26.230400">
<ele>138.783325</ele>
<time>2010-07-17T11:49:27Z</time>
<desc>lat.=55.735485, lon.=26.230400, Alt.=138.783325m. Speed=16.632000m/h.</desc>
<speed>4.620000</speed>
</trkpt>
<trkpt lat="55.735504" lon="26.230465">
<ele>139.150513</ele>
<time>2010-07-17T11:49:28Z</time>
<desc>lat.=55.735504, lon.=26.230465, Alt.=139.150513m. Speed=17.459999m/h.</desc>
<speed>4.850000</speed>
</trkpt>
<trkpt lat="55.735531" lon="26.230532">
<ele>138.775513</ele>
<time>2010-07-17T11:49:29Z</time>
<desc>lat.=55.735531, lon.=26.230532, Alt.=138.775513m. Speed=18.396000m/h.</desc>
<speed>5.110000</speed>
</trkpt>
<trkpt lat="55.735558" lon="26.230598">
<ele>139.470825</ele>
<time>2010-07-17T11:49:30Z</time>
<desc>lat.=55.735558, lon.=26.230598, Alt.=139.470825m. Speed=15.408000m/h.</desc>
<speed>4.280000</speed>
</trkpt>
<trkpt lat="55.735584" lon="26.230652">
<ele>139.310669</ele>
<time>2010-07-17T11:49:31Z</time>
<desc>lat.=55.735584, lon.=26.230652, Alt.=139.310669m. Speed=15.228000m/h.</desc>
<speed>4.230000</speed>
</trkpt>
<trkpt lat="55.735611" lon="26.230707">
<ele>139.279419</ele>
<time>2010-07-17T11:49:32Z</time>
<desc>lat.=55.735611, lon.=26.230707, Alt.=139.279419m. Speed=16.271999m/h.</desc>
<speed>4.520000</speed>
</trkpt>
<trkpt lat="55.735641" lon="26.230768">
<ele>139.084106</ele>
<time>2010-07-17T11:49:33Z</time>
<desc>lat.=55.735641, lon.=26.230768, Alt.=139.084106m. Speed=15.876000m/h.</desc>
<speed>4.410000</speed>
</trkpt>
<trkpt lat="55.735676" lon="26.230825">
<ele>138.810669</ele>
<time>2010-07-17T11:49:34Z</time>
<desc>lat.=55.735676, lon.=26.230825, Alt.=138.810669m. Speed=15.516000m/h.</desc>
<speed>4.310000</speed>
</trkpt>
<trkpt lat="55.735714" lon="26.230886">
<ele>138.673950</ele>
<time>2010-07-17T11:49:35Z</time>
<desc>lat.=55.735714, lon.=26.230886, Alt.=138.673950m. Speed=15.444000m/h.</desc>
<speed>4.290000</speed>
</trkpt>
<trkpt lat="55.735737" lon="26.230938">
<ele>138.709106</ele>
<time>2010-07-17T11:49:36Z</time>
<desc>lat.=55.735737, lon.=26.230938, Alt.=138.709106m. Speed=13.644000m/h.</desc>
<speed>3.790000</speed>
</trkpt>
<trkpt lat="55.735760" lon="26.230995">
<ele>138.412231</ele>
<time>2010-07-17T11:49:37Z</time>
<desc>lat.=55.735760, lon.=26.230995, Alt.=138.412231m. Speed=16.236000m/h.</desc>
<speed>4.510000</speed>
</trkpt>
<trkpt lat="55.735783" lon="26.231064">
<ele>138.021606</ele>
<time>2010-07-17T11:49:38Z</time>
<desc>lat.=55.735783, lon.=26.231064, Alt.=138.021606m. Speed=17.243999m/h.</desc>
<speed>4.790000</speed>
</trkpt>
<trkpt lat="55.735809" lon="26.231133">
<ele>137.709106</ele>
<time>2010-07-17T11:49:39Z</time>
<desc>lat.=55.735809, lon.=26.231133, Alt.=137.709106m. Speed=18.504000m/h.</desc>
<speed>5.140000</speed>
</trkpt>
<trkpt lat="55.735836" lon="26.231201">
<ele>137.853638</ele>
<time>2010-07-17T11:49:40Z</time>
<desc>lat.=55.735836, lon.=26.231201, Alt.=137.853638m. Speed=18.576000m/h.</desc>
<speed>5.160000</speed>
</trkpt>
<trkpt lat="55.735870" lon="26.231272">
<ele>138.611450</ele>
<time>2010-07-17T11:49:41Z</time>
<desc>lat.=55.735870, lon.=26.231272, Alt.=138.611450m. Speed=18.143999m/h.</desc>
<speed>5.040000</speed>
</trkpt>
<trkpt lat="55.735901" lon="26.231354">
<ele>139.259888</ele>
<time>2010-07-17T11:49:42Z</time>
<desc>lat.=55.735901, lon.=26.231354, Alt.=139.259888m. Speed=23.364000m/h.</desc>
<speed>6.490000</speed>
</trkpt>
<trkpt lat="55.735939" lon="26.231453">
<ele>139.908325</ele>
<time>2010-07-17T11:49:43Z</time>
<desc>lat.=55.735939, lon.=26.231453, Alt.=139.908325m. Speed=24.695999m/h.</desc>
<speed>6.860000</speed>
</trkpt>
<trkpt lat="55.735970" lon="26.231558">
<ele>140.334106</ele>
<time>2010-07-17T11:49:44Z</time>
<desc>lat.=55.735970, lon.=26.231558, Alt.=140.334106m. Speed=24.299999m/h.</desc>
<speed>6.750000</speed>
</trkpt>
<trkpt lat="55.735996" lon="26.231653">
<ele>142.923950</ele>
<time>2010-07-17T11:49:45Z</time>
<desc>lat.=55.735996, lon.=26.231653, Alt.=142.923950m. Speed=21.492001m/h.</desc>
<speed>5.970000</speed>
</trkpt>
<trkpt lat="55.736012" lon="26.231747">
<ele>143.755981</ele>
<time>2010-07-17T11:49:46Z</time>
<desc>lat.=55.736012, lon.=26.231747, Alt.=143.755981m. Speed=20.124001m/h.</desc>
<speed>5.590000</speed>
</trkpt>
<trkpt lat="55.736004" lon="26.231836">
<ele>142.459106</ele>
<time>2010-07-17T11:49:47Z</time>
<desc>lat.=55.736004, lon.=26.231836, Alt.=142.459106m. Speed=18.864000m/h.</desc>
<speed>5.240000</speed>
</trkpt>
<trkpt lat="55.736000" lon="26.231928">
<ele>141.435669</ele>
<time>2010-07-17T11:49:48Z</time>
<desc>lat.=55.736000, lon.=26.231928, Alt.=141.435669m. Speed=18.180000m/h.</desc>
<speed>5.050000</speed>
</trkpt>
<trkpt lat="55.736000" lon="26.232016">
<ele>140.173950</ele>
<time>2010-07-17T11:49:49Z</time>
<desc>lat.=55.736000, lon.=26.232016, Alt.=140.173950m. Speed=17.243999m/h.</desc>
<speed>4.790000</speed>
</trkpt>
<trkpt lat="55.735996" lon="26.232098">
<ele>139.681763</ele>
<time>2010-07-17T11:49:50Z</time>
<desc>lat.=55.735996, lon.=26.232098, Alt.=139.681763m. Speed=16.632000m/h.</desc>
<speed>4.620000</speed>
</trkpt>
<trkpt lat="55.735992" lon="26.232180">
<ele>139.232544</ele>
<time>2010-07-17T11:49:51Z</time>
<desc>lat.=55.735992, lon.=26.232180, Alt.=139.232544m. Speed=15.984000m/h.</desc>
<speed>4.440000</speed>
</trkpt>
<trkpt lat="55.735985" lon="26.232252">
<ele>138.814575</ele>
<time>2010-07-17T11:49:52Z</time>
<desc>lat.=55.735985, lon.=26.232252, Alt.=138.814575m. Speed=16.379999m/h.</desc>
<speed>4.550000</speed>
</trkpt>
<trkpt lat="55.735973" lon="26.232327">
<ele>138.502075</ele>
<time>2010-07-17T11:49:53Z</time>
<desc>lat.=55.735973, lon.=26.232327, Alt.=138.502075m. Speed=17.351999m/h.</desc>
<speed>4.820000</speed>
</trkpt>
<trkpt lat="55.735966" lon="26.232403">
<ele>137.841919</ele>
<time>2010-07-17T11:49:54Z</time>
<desc>lat.=55.735966, lon.=26.232403, Alt.=137.841919m. Speed=17.712000m/h.</desc>
<speed>4.920000</speed>
</trkpt>
<trkpt lat="55.735954" lon="26.232489">
<ele>138.802856</ele>
<time>2010-07-17T11:49:55Z</time>
<desc>lat.=55.735954, lon.=26.232489, Alt.=138.802856m. Speed=17.280001m/h.</desc>
<speed>4.800000</speed>
</trkpt>
<trkpt lat="55.735939" lon="26.232567">
<ele>139.334106</ele>
<time>2010-07-17T11:49:56Z</time>
<desc>lat.=55.735939, lon.=26.232567, Alt.=139.334106m. Speed=16.884001m/h.</desc>
<speed>4.690000</speed>
</trkpt>
<trkpt lat="55.735928" lon="26.232647">
<ele>138.658325</ele>
<time>2010-07-17T11:49:57Z</time>
<desc>lat.=55.735928, lon.=26.232647, Alt.=138.658325m. Speed=16.488001m/h.</desc>
<speed>4.580000</speed>
</trkpt>
<trkpt lat="55.735920" lon="26.232718">
<ele>138.865356</ele>
<time>2010-07-17T11:49:58Z</time>
<desc>lat.=55.735920, lon.=26.232718, Alt.=138.865356m. Speed=17.496000m/h.</desc>
<speed>4.860000</speed>
</trkpt>
<trkpt lat="55.735909" lon="26.232800">
<ele>138.654419</ele>
<time>2010-07-17T11:49:59Z</time>
<desc>lat.=55.735909, lon.=26.232800, Alt.=138.654419m. Speed=17.856001m/h.</desc>
<speed>4.960000</speed>
</trkpt>
<trkpt lat="55.735897" lon="26.232870">
<ele>138.045044</ele>
<time>2010-07-17T11:50:00Z</time>
<desc>lat.=55.735897, lon.=26.232870, Alt.=138.045044m. Speed=18.035999m/h.</desc>
<speed>5.010000</speed>
</trkpt>
<trkpt lat="55.735878" lon="26.232954">
<ele>137.525513</ele>
<time>2010-07-17T11:50:01Z</time>
<desc>lat.=55.735878, lon.=26.232954, Alt.=137.525513m. Speed=19.511999m/h.</desc>
<speed>5.420000</speed>
</trkpt>
<trkpt lat="55.735867" lon="26.233038">
<ele>137.408325</ele>
<time>2010-07-17T11:50:02Z</time>
<desc>lat.=55.735867, lon.=26.233038, Alt.=137.408325m. Speed=19.944000m/h.</desc>
<speed>5.540000</speed>
</trkpt>
<trkpt lat="55.735855" lon="26.233128">
<ele>137.662231</ele>
<time>2010-07-17T11:50:03Z</time>
<desc>lat.=55.735855, lon.=26.233128, Alt.=137.662231m. Speed=21.024000m/h.</desc>
<speed>5.840000</speed>
</trkpt>
<trkpt lat="55.735840" lon="26.233215">
<ele>137.845825</ele>
<time>2010-07-17T11:50:04Z</time>
<desc>lat.=55.735840, lon.=26.233215, Alt.=137.845825m. Speed=20.448000m/h.</desc>
<speed>5.680000</speed>
</trkpt>
<trkpt lat="55.735821" lon="26.233315">
<ele>136.431763</ele>
<time>2010-07-17T11:50:05Z</time>
<desc>lat.=55.735821, lon.=26.233315, Alt.=136.431763m. Speed=20.844000m/h.</desc>
<speed>5.790000</speed>
</trkpt>
<trkpt lat="55.735802" lon="26.233398">
<ele>135.877075</ele>
<time>2010-07-17T11:50:06Z</time>
<desc>lat.=55.735802, lon.=26.233398, Alt.=135.877075m. Speed=19.368000m/h.</desc>
<speed>5.380000</speed>
</trkpt>
<trkpt lat="55.735786" lon="26.233484">
<ele>135.283325</ele>
<time>2010-07-17T11:50:07Z</time>
<desc>lat.=55.735786, lon.=26.233484, Alt.=135.283325m. Speed=18.827999m/h.</desc>
<speed>5.230000</speed>
</trkpt>
<trkpt lat="55.735779" lon="26.233574">
<ele>135.248169</ele>
<time>2010-07-17T11:50:08Z</time>
<desc>lat.=55.735779, lon.=26.233574, Alt.=135.248169m. Speed=18.360001m/h.</desc>
<speed>5.100000</speed>
</trkpt>
<trkpt lat="55.735775" lon="26.233658">
<ele>135.213013</ele>
<time>2010-07-17T11:50:09Z</time>
<desc>lat.=55.735775, lon.=26.233658, Alt.=135.213013m. Speed=16.992001m/h.</desc>
<speed>4.720000</speed>
</trkpt>
<trkpt lat="55.735775" lon="26.233744">
<ele>135.045044</ele>
<time>2010-07-17T11:50:10Z</time>
<desc>lat.=55.735775, lon.=26.233744, Alt.=135.045044m. Speed=15.660000m/h.</desc>
<speed>4.350000</speed>
</trkpt>
<trkpt lat="55.735771" lon="26.233822">
<ele>134.787231</ele>
<time>2010-07-17T11:50:11Z</time>
<desc>lat.=55.735771, lon.=26.233822, Alt.=134.787231m. Speed=15.912000m/h.</desc>
<speed>4.420000</speed>
</trkpt>
<trkpt lat="55.735764" lon="26.233891">
<ele>134.591919</ele>
<time>2010-07-17T11:50:12Z</time>
<desc>lat.=55.735764, lon.=26.233891, Alt.=134.591919m. Speed=14.868000m/h.</desc>
<speed>4.130000</speed>
</trkpt>
<trkpt lat="55.735760" lon="26.233955">
<ele>134.427856</ele>
<time>2010-07-17T11:50:13Z</time>
<desc>lat.=55.735760, lon.=26.233955, Alt.=134.427856m. Speed=14.688000m/h.</desc>
<speed>4.080000</speed>
</trkpt>
<trkpt lat="55.735760" lon="26.234022">
<ele>134.611450</ele>
<time>2010-07-17T11:50:14Z</time>
<desc>lat.=55.735760, lon.=26.234022, Alt.=134.611450m. Speed=14.292000m/h.</desc>
<speed>3.970000</speed>
</trkpt>
<trkpt lat="55.735756" lon="26.234089">
<ele>134.091919</ele>
<time>2010-07-17T11:50:15Z</time>
<desc>lat.=55.735756, lon.=26.234089, Alt.=134.091919m. Speed=15.228000m/h.</desc>
<speed>4.230000</speed>
</trkpt>
<trkpt lat="55.735756" lon="26.234161">
<ele>134.138794</ele>
<time>2010-07-17T11:50:16Z</time>
<desc>lat.=55.735756, lon.=26.234161, Alt.=134.138794m. Speed=15.732000m/h.</desc>
<speed>4.370000</speed>
</trkpt>
<trkpt lat="55.735756" lon="26.234236">
<ele>133.920044</ele>
<time>2010-07-17T11:50:17Z</time>
<desc>lat.=55.735756, lon.=26.234236, Alt.=133.920044m. Speed=16.128000m/h.</desc>
<speed>4.480000</speed>
</trkpt>
<trkpt lat="55.735760" lon="26.234314">
<ele>133.615356</ele>
<time>2010-07-17T11:50:18Z</time>
<desc>lat.=55.735760, lon.=26.234314, Alt.=133.615356m. Speed=17.208000m/h.</desc>
<speed>4.780000</speed>
</trkpt>
<trkpt lat="55.735756" lon="26.234400">
<ele>133.166138</ele>
<time>2010-07-17T11:50:19Z</time>
<desc>lat.=55.735756, lon.=26.234400, Alt.=133.166138m. Speed=18.000000m/h.</desc>
<speed>5.000000</speed>
</trkpt>
<trkpt lat="55.735748" lon="26.234486">
<ele>132.017700</ele>
<time>2010-07-17T11:50:20Z</time>
<desc>lat.=55.735748, lon.=26.234486, Alt.=132.017700m. Speed=18.143999m/h.</desc>
<speed>5.040000</speed>
</trkpt>
<trkpt lat="55.735748" lon="26.234564">
<ele>131.802856</ele>
<time>2010-07-17T11:50:21Z</time>
<desc>lat.=55.735748, lon.=26.234564, Alt.=131.802856m. Speed=19.152000m/h.</desc>
<speed>5.320000</speed>
</trkpt>
<trkpt lat="55.735752" lon="26.234648">
<ele>132.173950</ele>
<time>2010-07-17T11:50:22Z</time>
<desc>lat.=55.735752, lon.=26.234648, Alt.=132.173950m. Speed=19.728001m/h.</desc>
<speed>5.480000</speed>
</trkpt>
<trkpt lat="55.735752" lon="26.234734">
<ele>132.173950</ele>
<time>2010-07-17T11:50:23Z</time>
<desc>lat.=55.735752, lon.=26.234734, Alt.=132.173950m. Speed=19.764000m/h.</desc>
<speed>5.490000</speed>
</trkpt>
<trkpt lat="55.735744" lon="26.234821">
<ele>131.986450</ele>
<time>2010-07-17T11:50:24Z</time>
<desc>lat.=55.735744, lon.=26.234821, Alt.=131.986450m. Speed=19.584000m/h.</desc>
<speed>5.440000</speed>
</trkpt>
<trkpt lat="55.735748" lon="26.234909">
<ele>132.314575</ele>
<time>2010-07-17T11:50:25Z</time>
<desc>lat.=55.735748, lon.=26.234909, Alt.=132.314575m. Speed=19.260000m/h.</desc>
<speed>5.350000</speed>
</trkpt>
<trkpt lat="55.735744" lon="26.234999">
<ele>132.263794</ele>
<time>2010-07-17T11:50:26Z</time>
<desc>lat.=55.735744, lon.=26.234999, Alt.=132.263794m. Speed=20.232000m/h.</desc>
<speed>5.620000</speed>
</trkpt>
<trkpt lat="55.735741" lon="26.235090">
<ele>132.056763</ele>
<time>2010-07-17T11:50:27Z</time>
<desc>lat.=55.735741, lon.=26.235090, Alt.=132.056763m. Speed=20.412001m/h.</desc>
<speed>5.670000</speed>
</trkpt>
<trkpt lat="55.735741" lon="26.235180">
<ele>131.861450</ele>
<time>2010-07-17T11:50:28Z</time>
<desc>lat.=55.735741, lon.=26.235180, Alt.=131.861450m. Speed=20.268000m/h.</desc>
<speed>5.630000</speed>
</trkpt>
<trkpt lat="55.735741" lon="26.235273">
<ele>132.142700</ele>
<time>2010-07-17T11:50:29Z</time>
<desc>lat.=55.735741, lon.=26.235273, Alt.=132.142700m. Speed=20.016001m/h.</desc>
<speed>5.560000</speed>
</trkpt>
<trkpt lat="55.735741" lon="26.235367">
<ele>132.377075</ele>
<time>2010-07-17T11:50:30Z</time>
<desc>lat.=55.735741, lon.=26.235367, Alt.=132.377075m. Speed=20.340000m/h.</desc>
<speed>5.650000</speed>
</trkpt>
<trkpt lat="55.735741" lon="26.235462">
<ele>131.841919</ele>
<time>2010-07-17T11:50:31Z</time>
<desc>lat.=55.735741, lon.=26.235462, Alt.=131.841919m. Speed=21.240000m/h.</desc>
<speed>5.900000</speed>
</trkpt>
<trkpt lat="55.735741" lon="26.235567">
<ele>130.970825</ele>
<time>2010-07-17T11:50:32Z</time>
<desc>lat.=55.735741, lon.=26.235567, Alt.=130.970825m. Speed=23.004000m/h.</desc>
<speed>6.390000</speed>
</trkpt>
<trkpt lat="55.735744" lon="26.235670">
<ele>129.759888</ele>
<time>2010-07-17T11:50:33Z</time>
<desc>lat.=55.735744, lon.=26.235670, Alt.=129.759888m. Speed=21.600000m/h.</desc>
<speed>6.000000</speed>
</trkpt>
<trkpt lat="55.735748" lon="26.235773">
<ele>128.611450</ele>
<time>2010-07-17T11:50:34Z</time>
<desc>lat.=55.735748, lon.=26.235773, Alt.=128.611450m. Speed=22.284000m/h.</desc>
<speed>6.190000</speed>
</trkpt>
<trkpt lat="55.735748" lon="26.235882">
<ele>128.138794</ele>
<time>2010-07-17T11:50:35Z</time>
<desc>lat.=55.735748, lon.=26.235882, Alt.=128.138794m. Speed=22.320000m/h.</desc>
<speed>6.200000</speed>
</trkpt>
<trkpt lat="55.735748" lon="26.235985">
<ele>128.076294</ele>
<time>2010-07-17T11:50:36Z</time>
<desc>lat.=55.735748, lon.=26.235985, Alt.=128.076294m. Speed=22.643999m/h.</desc>
<speed>6.290000</speed>
</trkpt>
<trkpt lat="55.735752" lon="26.236082">
<ele>127.924866</ele>
<time>2010-07-17T11:50:37Z</time>
<desc>lat.=55.735752, lon.=26.236082, Alt.=127.924866m. Speed=21.743999m/h.</desc>
<speed>6.040000</speed>
</trkpt>
<trkpt lat="55.735748" lon="26.236191">
<ele>127.161194</ele>
<time>2010-07-17T11:50:38Z</time>
<desc>lat.=55.735748, lon.=26.236191, Alt.=127.161194m. Speed=22.464001m/h.</desc>
<speed>6.240000</speed>
</trkpt>
<trkpt lat="55.735744" lon="26.236284">
<ele>126.016663</ele>
<time>2010-07-17T11:50:39Z</time>
<desc>lat.=55.735744, lon.=26.236284, Alt.=126.016663m. Speed=20.591999m/h.</desc>
<speed>5.720000</speed>
</trkpt>
<trkpt lat="55.735744" lon="26.236378">
<ele>124.797913</ele>
<time>2010-07-17T11:50:40Z</time>
<desc>lat.=55.735744, lon.=26.236378, Alt.=124.797913m. Speed=21.240000m/h.</desc>
<speed>5.900000</speed>
</trkpt>
<trkpt lat="55.735756" lon="26.236471">
<ele>125.827209</ele>
<time>2010-07-17T11:50:41Z</time>
<desc>lat.=55.735756, lon.=26.236471, Alt.=125.827209m. Speed=21.096001m/h.</desc>
<speed>5.860000</speed>
</trkpt>
<trkpt lat="55.735760" lon="26.236565">
<ele>125.518616</ele>
<time>2010-07-17T11:50:42Z</time>
<desc>lat.=55.735760, lon.=26.236565, Alt.=125.518616m. Speed=21.528000m/h.</desc>
<speed>5.980000</speed>
</trkpt>
<trkpt lat="55.735764" lon="26.236660">
<ele>126.120178</ele>
<time>2010-07-17T11:50:43Z</time>
<desc>lat.=55.735764, lon.=26.236660, Alt.=126.120178m. Speed=20.052000m/h.</desc>
<speed>5.570000</speed>
</trkpt>
<trkpt lat="55.735767" lon="26.236746">
<ele>127.188538</ele>
<time>2010-07-17T11:50:44Z</time>
<desc>lat.=55.735767, lon.=26.236746, Alt.=127.188538m. Speed=18.864000m/h.</desc>
<speed>5.240000</speed>
</trkpt>
<trkpt lat="55.735771" lon="26.236826">
<ele>129.091919</ele>
<time>2010-07-17T11:50:45Z</time>
<desc>lat.=55.735771, lon.=26.236826, Alt.=129.091919m. Speed=18.576000m/h.</desc>
<speed>5.160000</speed>
</trkpt>
<trkpt lat="55.735779" lon="26.236917">
<ele>129.798950</ele>
<time>2010-07-17T11:50:46Z</time>
<desc>lat.=55.735779, lon.=26.236917, Alt.=129.798950m. Speed=18.864000m/h.</desc>
<speed>5.240000</speed>
</trkpt>
<trkpt lat="55.735779" lon="26.237015">
<ele>129.869263</ele>
<time>2010-07-17T11:50:47Z</time>
<desc>lat.=55.735779, lon.=26.237015, Alt.=129.869263m. Speed=20.412001m/h.</desc>
<speed>5.670000</speed>
</trkpt>
<trkpt lat="55.735779" lon="26.237110">
<ele>129.115356</ele>
<time>2010-07-17T11:50:48Z</time>
<desc>lat.=55.735779, lon.=26.237110, Alt.=129.115356m. Speed=19.944000m/h.</desc>
<speed>5.540000</speed>
</trkpt>
<trkpt lat="55.735779" lon="26.237200">
<ele>128.513794</ele>
<time>2010-07-17T11:50:49Z</time>
<desc>lat.=55.735779, lon.=26.237200, Alt.=128.513794m. Speed=20.375999m/h.</desc>
<speed>5.660000</speed>
</trkpt>
<trkpt lat="55.735783" lon="26.237301">
<ele>128.341919</ele>
<time>2010-07-17T11:50:50Z</time>
<desc>lat.=55.735783, lon.=26.237301, Alt.=128.341919m. Speed=21.672001m/h.</desc>
<speed>6.020000</speed>
</trkpt>
<trkpt lat="55.735779" lon="26.237402">
<ele>126.950256</ele>
<time>2010-07-17T11:50:51Z</time>
<desc>lat.=55.735779, lon.=26.237402, Alt.=126.950256m. Speed=20.268000m/h.</desc>
<speed>5.630000</speed>
</trkpt>
<trkpt lat="55.735783" lon="26.237497">
<ele>126.497131</ele>
<time>2010-07-17T11:50:52Z</time>
<desc>lat.=55.735783, lon.=26.237497, Alt.=126.497131m. Speed=20.016001m/h.</desc>
<speed>5.560000</speed>
</trkpt>
<trkpt lat="55.735783" lon="26.237595">
<ele>125.083069</ele>
<time>2010-07-17T11:50:53Z</time>
<desc>lat.=55.735783, lon.=26.237595, Alt.=125.083069m. Speed=20.664000m/h.</desc>
<speed>5.740000</speed>
</trkpt>
<trkpt lat="55.735786" lon="26.237686">
<ele>125.518616</ele>
<time>2010-07-17T11:50:54Z</time>
<desc>lat.=55.735786, lon.=26.237686, Alt.=125.518616m. Speed=20.844000m/h.</desc>
<speed>5.790000</speed>
</trkpt>
<trkpt lat="55.735783" lon="26.237778">
<ele>125.102600</ele>
<time>2010-07-17T11:50:55Z</time>
<desc>lat.=55.735783, lon.=26.237778, Alt.=125.102600m. Speed=21.167999m/h.</desc>
<speed>5.880000</speed>
</trkpt>
<trkpt lat="55.735783" lon="26.237869">
<ele>124.999084</ele>
<time>2010-07-17T11:50:56Z</time>
<desc>lat.=55.735783, lon.=26.237869, Alt.=124.999084m. Speed=21.384001m/h.</desc>
<speed>5.940000</speed>
</trkpt>
<trkpt lat="55.735779" lon="26.237963">
<ele>125.807678</ele>
<time>2010-07-17T11:50:57Z</time>
<desc>lat.=55.735779, lon.=26.237963, Alt.=125.807678m. Speed=21.024000m/h.</desc>
<speed>5.840000</speed>
</trkpt>
<trkpt lat="55.735775" lon="26.238056">
<ele>125.807678</ele>
<time>2010-07-17T11:50:58Z</time>
<desc>lat.=55.735775, lon.=26.238056, Alt.=125.807678m. Speed=20.304001m/h.</desc>
<speed>5.640000</speed>
</trkpt>
<trkpt lat="55.735775" lon="26.238146">
<ele>126.803772</ele>
<time>2010-07-17T11:50:59Z</time>
<desc>lat.=55.735775, lon.=26.238146, Alt.=126.803772m. Speed=20.879999m/h.</desc>
<speed>5.800000</speed>
</trkpt>
<trkpt lat="55.735764" lon="26.238237">
<ele>127.379944</ele>
<time>2010-07-17T11:51:00Z</time>
<desc>lat.=55.735764, lon.=26.238237, Alt.=127.379944m. Speed=20.232000m/h.</desc>
<speed>5.620000</speed>
</trkpt>
<trkpt lat="55.735752" lon="26.238327">
<ele>127.952209</ele>
<time>2010-07-17T11:51:01Z</time>
<desc>lat.=55.735752, lon.=26.238327, Alt.=127.952209m. Speed=20.232000m/h.</desc>
<speed>5.620000</speed>
</trkpt>
<trkpt lat="55.735741" lon="26.238413">
<ele>129.068481</ele>
<time>2010-07-17T11:51:02Z</time>
<desc>lat.=55.735741, lon.=26.238413, Alt.=129.068481m. Speed=19.368000m/h.</desc>
<speed>5.380000</speed>
</trkpt>
<trkpt lat="55.735737" lon="26.238503">
<ele>129.392700</ele>
<time>2010-07-17T11:51:03Z</time>
<desc>lat.=55.735737, lon.=26.238503, Alt.=129.392700m. Speed=18.936001m/h.</desc>
<speed>5.260000</speed>
</trkpt>
<trkpt lat="55.735733" lon="26.238600">
<ele>128.736450</ele>
<time>2010-07-17T11:51:04Z</time>
<desc>lat.=55.735733, lon.=26.238600, Alt.=128.736450m. Speed=19.548000m/h.</desc>
<speed>5.430000</speed>
</trkpt>
<trkpt lat="55.735748" lon="26.238697">
<ele>129.334106</ele>
<time>2010-07-17T11:51:05Z</time>
<desc>lat.=55.735748, lon.=26.238697, Alt.=129.334106m. Speed=19.115999m/h.</desc>
<speed>5.310000</speed>
</trkpt>
<trkpt lat="55.735756" lon="26.238785">
<ele>130.263794</ele>
<time>2010-07-17T11:51:06Z</time>
<desc>lat.=55.735756, lon.=26.238785, Alt.=130.263794m. Speed=18.576000m/h.</desc>
<speed>5.160000</speed>
</trkpt>
<trkpt lat="55.735767" lon="26.238874">
<ele>132.392700</ele>
<time>2010-07-17T11:51:07Z</time>
<desc>lat.=55.735767, lon.=26.238874, Alt.=132.392700m. Speed=19.044001m/h.</desc>
<speed>5.290000</speed>
</trkpt>
<trkpt lat="55.735779" lon="26.238964">
<ele>132.482544</ele>
<time>2010-07-17T11:51:08Z</time>
<desc>lat.=55.735779, lon.=26.238964, Alt.=132.482544m. Speed=18.864000m/h.</desc>
<speed>5.240000</speed>
</trkpt>
<trkpt lat="55.735786" lon="26.239059">
<ele>133.134888</ele>
<time>2010-07-17T11:51:09Z</time>
<desc>lat.=55.735786, lon.=26.239059, Alt.=133.134888m. Speed=19.584000m/h.</desc>
<speed>5.440000</speed>
</trkpt>
<trkpt lat="55.735786" lon="26.239153">
<ele>133.271606</ele>
<time>2010-07-17T11:51:10Z</time>
<desc>lat.=55.735786, lon.=26.239153, Alt.=133.271606m. Speed=18.864000m/h.</desc>
<speed>5.240000</speed>
</trkpt>
<trkpt lat="55.735783" lon="26.239241">
<ele>133.334106</ele>
<time>2010-07-17T11:51:11Z</time>
<desc>lat.=55.735783, lon.=26.239241, Alt.=133.334106m. Speed=18.323999m/h.</desc>
<speed>5.090000</speed>
</trkpt>
<trkpt lat="55.735783" lon="26.239315">
<ele>134.935669</ele>
<time>2010-07-17T11:51:12Z</time>
<desc>lat.=55.735783, lon.=26.239315, Alt.=134.935669m. Speed=17.280001m/h.</desc>
<speed>4.800000</speed>
</trkpt>
<trkpt lat="55.735786" lon="26.239386">
<ele>135.791138</ele>
<time>2010-07-17T11:51:13Z</time>
<desc>lat.=55.735786, lon.=26.239386, Alt.=135.791138m. Speed=16.236000m/h.</desc>
<speed>4.510000</speed>
</trkpt>
<trkpt lat="55.735794" lon="26.239460">
<ele>136.779419</ele>
<time>2010-07-17T11:51:14Z</time>
<desc>lat.=55.735794, lon.=26.239460, Alt.=136.779419m. Speed=16.379999m/h.</desc>
<speed>4.550000</speed>
</trkpt>
<trkpt lat="55.735802" lon="26.239534">
<ele>137.115356</ele>
<time>2010-07-17T11:51:15Z</time>
<desc>lat.=55.735802, lon.=26.239534, Alt.=137.115356m. Speed=17.063999m/h.</desc>
<speed>4.740000</speed>
</trkpt>
<trkpt lat="55.735809" lon="26.239626">
<ele>135.959106</ele>
<time>2010-07-17T11:51:16Z</time>
<desc>lat.=55.735809, lon.=26.239626, Alt.=135.959106m. Speed=18.612000m/h.</desc>
<speed>5.170000</speed>
</trkpt>
<trkpt lat="55.735813" lon="26.239731">
<ele>135.314575</ele>
<time>2010-07-17T11:51:17Z</time>
<desc>lat.=55.735813, lon.=26.239731, Alt.=135.314575m. Speed=19.224001m/h.</desc>
<speed>5.340000</speed>
</trkpt>
<trkpt lat="55.735813" lon="26.239830">
<ele>134.490356</ele>
<time>2010-07-17T11:51:18Z</time>
<desc>lat.=55.735813, lon.=26.239830, Alt.=134.490356m. Speed=19.403999m/h.</desc>
<speed>5.390000</speed>
</trkpt>
<trkpt lat="55.735817" lon="26.239923">
<ele>134.513794</ele>
<time>2010-07-17T11:51:19Z</time>
<desc>lat.=55.735817, lon.=26.239923, Alt.=134.513794m. Speed=19.476000m/h.</desc>
<speed>5.410000</speed>
</trkpt>
<trkpt lat="55.735821" lon="26.240015">
<ele>134.681763</ele>
<time>2010-07-17T11:51:20Z</time>
<desc>lat.=55.735821, lon.=26.240015, Alt.=134.681763m. Speed=18.504000m/h.</desc>
<speed>5.140000</speed>
</trkpt>
<trkpt lat="55.735836" lon="26.240097">
<ele>135.611450</ele>
<time>2010-07-17T11:51:21Z</time>
<desc>lat.=55.735836, lon.=26.240097, Alt.=135.611450m. Speed=17.496000m/h.</desc>
<speed>4.860000</speed>
</trkpt>
<trkpt lat="55.735859" lon="26.240170">
<ele>135.939575</ele>
<time>2010-07-17T11:51:22Z</time>
<desc>lat.=55.735859, lon.=26.240170, Alt.=135.939575m. Speed=16.740000m/h.</desc>
<speed>4.650000</speed>
</trkpt>
<trkpt lat="55.735874" lon="26.240240">
<ele>136.076294</ele>
<time>2010-07-17T11:51:23Z</time>
<desc>lat.=55.735874, lon.=26.240240, Alt.=136.076294m. Speed=15.552000m/h.</desc>
<speed>4.320000</speed>
</trkpt>
<trkpt lat="55.735893" lon="26.240297">
<ele>136.509888</ele>
<time>2010-07-17T11:51:24Z</time>
<desc>lat.=55.735893, lon.=26.240297, Alt.=136.509888m. Speed=14.328000m/h.</desc>
<speed>3.980000</speed>
</trkpt>
<trkpt lat="55.735909" lon="26.240353">
<ele>136.744263</ele>
<time>2010-07-17T11:51:25Z</time>
<desc>lat.=55.735909, lon.=26.240353, Alt.=136.744263m. Speed=12.132000m/h.</desc>
<speed>3.370000</speed>
</trkpt>
<trkpt lat="55.735924" lon="26.240396">
<ele>136.630981</ele>
<time>2010-07-17T11:51:26Z</time>
<desc>lat.=55.735924, lon.=26.240396, Alt.=136.630981m. Speed=11.376000m/h.</desc>
<speed>3.160000</speed>
</trkpt>
<trkpt lat="55.735939" lon="26.240435">
<ele>136.658325</ele>
<time>2010-07-17T11:51:27Z</time>
<desc>lat.=55.735939, lon.=26.240435, Alt.=136.658325m. Speed=10.584000m/h.</desc>
<speed>2.940000</speed>
</trkpt>
<trkpt lat="55.735954" lon="26.240475">
<ele>136.974731</ele>
<time>2010-07-17T11:51:28Z</time>
<desc>lat.=55.735954, lon.=26.240475, Alt.=136.974731m. Speed=12.060000m/h.</desc>
<speed>3.350000</speed>
</trkpt>
<trkpt lat="55.735973" lon="26.240511">
<ele>136.779419</ele>
<time>2010-07-17T11:51:29Z</time>
<desc>lat.=55.735973, lon.=26.240511, Alt.=136.779419m. Speed=11.268000m/h.</desc>
<speed>3.130000</speed>
</trkpt>
<trkpt lat="55.735989" lon="26.240543">
<ele>136.486450</ele>
<time>2010-07-17T11:51:30Z</time>
<desc>lat.=55.735989, lon.=26.240543, Alt.=136.486450m. Speed=11.016000m/h.</desc>
<speed>3.060000</speed>
</trkpt>
<trkpt lat="55.736008" lon="26.240574">
<ele>136.482544</ele>
<time>2010-07-17T11:51:31Z</time>
<desc>lat.=55.736008, lon.=26.240574, Alt.=136.482544m. Speed=10.188000m/h.</desc>
<speed>2.830000</speed>
</trkpt>
<trkpt lat="55.736027" lon="26.240610">
<ele>136.845825</ele>
<time>2010-07-17T11:51:32Z</time>
<desc>lat.=55.736027, lon.=26.240610, Alt.=136.845825m. Speed=10.728000m/h.</desc>
<speed>2.980000</speed>
</trkpt>
<trkpt lat="55.736046" lon="26.240646">
<ele>137.353638</ele>
<time>2010-07-17T11:51:33Z</time>
<desc>lat.=55.736046, lon.=26.240646, Alt.=137.353638m. Speed=9.252000m/h.</desc>
<speed>2.570000</speed>
</trkpt>
<trkpt lat="55.736057" lon="26.240677">
<ele>137.037231</ele>
<time>2010-07-17T11:51:34Z</time>
<desc>lat.=55.736057, lon.=26.240677, Alt.=137.037231m. Speed=8.064000m/h.</desc>
<speed>2.240000</speed>
</trkpt>
<trkpt lat="55.736065" lon="26.240704">
<ele>135.267700</ele>
<time>2010-07-17T11:51:35Z</time>
<desc>lat.=55.736065, lon.=26.240704, Alt.=135.267700m. Speed=4.068000m/h.</desc>
<speed>1.130000</speed>
</trkpt>
<trkpt lat="55.736076" lon="26.240719">
<ele>135.099731</ele>
<time>2010-07-17T11:51:36Z</time>
<desc>lat.=55.736076, lon.=26.240719, Alt.=135.099731m. Speed=6.192000m/h.</desc>
<speed>1.720000</speed>
</trkpt>
<trkpt lat="55.736088" lon="26.240744">
<ele>135.119263</ele>
<time>2010-07-17T11:51:37Z</time>
<desc>lat.=55.736088, lon.=26.240744, Alt.=135.119263m. Speed=9.000000m/h.</desc>
<speed>2.500000</speed>
</trkpt>
<trkpt lat="55.736099" lon="26.240765">
<ele>135.357544</ele>
<time>2010-07-17T11:51:38Z</time>
<desc>lat.=55.736099, lon.=26.240765, Alt.=135.357544m. Speed=7.308000m/h.</desc>
<speed>2.030000</speed>
</trkpt>
<trkpt lat="55.736111" lon="26.240789">
<ele>135.455200</ele>
<time>2010-07-17T11:51:39Z</time>
<desc>lat.=55.736111, lon.=26.240789, Alt.=135.455200m. Speed=7.380000m/h.</desc>
<speed>2.050000</speed>
</trkpt>
<trkpt lat="55.736126" lon="26.240820">
<ele>135.654419</ele>
<time>2010-07-17T11:51:40Z</time>
<desc>lat.=55.736126, lon.=26.240820, Alt.=135.654419m. Speed=5.868000m/h.</desc>
<speed>1.630000</speed>
</trkpt>
<trkpt lat="55.736134" lon="26.240858">
<ele>137.045044</ele>
<time>2010-07-17T11:51:41Z</time>
<desc>lat.=55.736134, lon.=26.240858, Alt.=137.045044m. Speed=5.832000m/h.</desc>
<speed>1.620000</speed>
</trkpt>
<trkpt lat="55.736141" lon="26.240891">
<ele>137.822388</ele>
<time>2010-07-17T11:51:42Z</time>
<desc>lat.=55.736141, lon.=26.240891, Alt.=137.822388m. Speed=5.940000m/h.</desc>
<speed>1.650000</speed>
</trkpt>
<trkpt lat="55.736153" lon="26.240915">
<ele>138.072388</ele>
<time>2010-07-17T11:51:43Z</time>
<desc>lat.=55.736153, lon.=26.240915, Alt.=138.072388m. Speed=5.904000m/h.</desc>
<speed>1.640000</speed>
</trkpt>
<trkpt lat="55.736168" lon="26.240946">
<ele>138.142700</ele>
<time>2010-07-17T11:51:44Z</time>
<desc>lat.=55.736168, lon.=26.240946, Alt.=138.142700m. Speed=7.992000m/h.</desc>
<speed>2.220000</speed>
</trkpt>
<trkpt lat="55.736179" lon="26.240976">
<ele>138.595825</ele>
<time>2010-07-17T11:51:45Z</time>
<desc>lat.=55.736179, lon.=26.240976, Alt.=138.595825m. Speed=6.120000m/h.</desc>
<speed>1.700000</speed>
</trkpt>
<trkpt lat="55.736221" lon="26.240999">
<ele>140.076294</ele>
<time>2010-07-17T11:51:46Z</time>
<desc>lat.=55.736221, lon.=26.240999, Alt.=140.076294m. Speed=7.020000m/h.</desc>
<speed>1.950000</speed>
</trkpt>
<trkpt lat="55.736233" lon="26.241024">
<ele>140.209106</ele>
<time>2010-07-17T11:51:47Z</time>
<desc>lat.=55.736233, lon.=26.241024, Alt.=140.209106m. Speed=6.984000m/h.</desc>
<speed>1.940000</speed>
</trkpt>
<trkpt lat="55.736252" lon="26.241051">
<ele>140.377075</ele>
<time>2010-07-17T11:51:48Z</time>
<desc>lat.=55.736252, lon.=26.241051, Alt.=140.377075m. Speed=6.948000m/h.</desc>
<speed>1.930000</speed>
</trkpt>
<trkpt lat="55.736263" lon="26.241079">
<ele>139.974731</ele>
<time>2010-07-17T11:51:49Z</time>
<desc>lat.=55.736263, lon.=26.241079, Alt.=139.974731m. Speed=9.000000m/h.</desc>
<speed>2.500000</speed>
</trkpt>
<trkpt lat="55.736279" lon="26.241106">
<ele>140.185669</ele>
<time>2010-07-17T11:51:50Z</time>
<desc>lat.=55.736279, lon.=26.241106, Alt.=140.185669m. Speed=6.696000m/h.</desc>
<speed>1.860000</speed>
</trkpt>
<trkpt lat="55.736286" lon="26.241133">
<ele>140.423950</ele>
<time>2010-07-17T11:51:51Z</time>
<desc>lat.=55.736286, lon.=26.241133, Alt.=140.423950m. Speed=6.588000m/h.</desc>
<speed>1.830000</speed>
</trkpt>
<trkpt lat="55.736294" lon="26.241161">
<ele>140.166138</ele>
<time>2010-07-17T11:51:52Z</time>
<desc>lat.=55.736294, lon.=26.241161, Alt.=140.166138m. Speed=5.616000m/h.</desc>
<speed>1.560000</speed>
</trkpt>
<trkpt lat="55.736301" lon="26.241182">
<ele>140.298950</ele>
<time>2010-07-17T11:51:53Z</time>
<desc>lat.=55.736301, lon.=26.241182, Alt.=140.298950m. Speed=4.788000m/h.</desc>
<speed>1.330000</speed>
</trkpt>
<trkpt lat="55.736317" lon="26.241201">
<ele>140.927856</ele>
<time>2010-07-17T11:51:54Z</time>
<desc>lat.=55.736317, lon.=26.241201, Alt.=140.927856m. Speed=5.364000m/h.</desc>
<speed>1.490000</speed>
</trkpt>
<trkpt lat="55.736324" lon="26.241226">
<ele>141.041138</ele>
<time>2010-07-17T11:51:55Z</time>
<desc>lat.=55.736324, lon.=26.241226, Alt.=141.041138m. Speed=5.760000m/h.</desc>
<speed>1.600000</speed>
</trkpt>
<trkpt lat="55.736332" lon="26.241253">
<ele>141.552856</ele>
<time>2010-07-17T11:51:56Z</time>
<desc>lat.=55.736332, lon.=26.241253, Alt.=141.552856m. Speed=6.660000m/h.</desc>
<speed>1.850000</speed>
</trkpt>
<trkpt lat="55.736336" lon="26.241285">
<ele>142.076294</ele>
<time>2010-07-17T11:51:57Z</time>
<desc>lat.=55.736336, lon.=26.241285, Alt.=142.076294m. Speed=5.688000m/h.</desc>
<speed>1.580000</speed>
</trkpt>
<trkpt lat="55.736343" lon="26.241320">
<ele>142.474731</ele>
<time>2010-07-17T11:51:58Z</time>
<desc>lat.=55.736343, lon.=26.241320, Alt.=142.474731m. Speed=6.372000m/h.</desc>
<speed>1.770000</speed>
</trkpt>
<trkpt lat="55.736351" lon="26.241358">
<ele>142.228638</ele>
<time>2010-07-17T11:51:59Z</time>
<desc>lat.=55.736351, lon.=26.241358, Alt.=142.228638m. Speed=7.704000m/h.</desc>
<speed>2.140000</speed>
</trkpt>
<trkpt lat="55.736359" lon="26.241392">
<ele>142.076294</ele>
<time>2010-07-17T11:52:00Z</time>
<desc>lat.=55.736359, lon.=26.241392, Alt.=142.076294m. Speed=7.452000m/h.</desc>
<speed>2.070000</speed>
</trkpt>
<trkpt lat="55.736362" lon="26.241425">
<ele>142.064575</ele>
<time>2010-07-17T11:52:01Z</time>
<desc>lat.=55.736362, lon.=26.241425, Alt.=142.064575m. Speed=7.272000m/h.</desc>
<speed>2.020000</speed>
</trkpt>
<trkpt lat="55.736370" lon="26.241455">
<ele>142.318481</ele>
<time>2010-07-17T11:52:02Z</time>
<desc>lat.=55.736370, lon.=26.241455, Alt.=142.318481m. Speed=7.056000m/h.</desc>
<speed>1.960000</speed>
</trkpt>
<trkpt lat="55.736382" lon="26.241489">
<ele>142.502075</ele>
<time>2010-07-17T11:52:03Z</time>
<desc>lat.=55.736382, lon.=26.241489, Alt.=142.502075m. Speed=7.020000m/h.</desc>
<speed>1.950000</speed>
</trkpt>
<trkpt lat="55.736393" lon="26.241528">
<ele>143.162231</ele>
<time>2010-07-17T11:52:04Z</time>
<desc>lat.=55.736393, lon.=26.241528, Alt.=143.162231m. Speed=7.668000m/h.</desc>
<speed>2.130000</speed>
</trkpt>
<trkpt lat="55.736404" lon="26.241552">
<ele>143.166138</ele>
<time>2010-07-17T11:52:05Z</time>
<desc>lat.=55.736404, lon.=26.241552, Alt.=143.166138m. Speed=6.372000m/h.</desc>
<speed>1.770000</speed>
</trkpt>
<trkpt lat="55.736416" lon="26.241575">
<ele>143.365356</ele>
<time>2010-07-17T11:52:06Z</time>
<desc>lat.=55.736416, lon.=26.241575, Alt.=143.365356m. Speed=6.984000m/h.</desc>
<speed>1.940000</speed>
</trkpt>
<trkpt lat="55.736435" lon="26.241611">
<ele>143.927856</ele>
<time>2010-07-17T11:52:07Z</time>
<desc>lat.=55.736435, lon.=26.241611, Alt.=143.927856m. Speed=8.460000m/h.</desc>
<speed>2.350000</speed>
</trkpt>
<trkpt lat="55.736450" lon="26.241648">
<ele>144.646606</ele>
<time>2010-07-17T11:52:08Z</time>
<desc>lat.=55.736450, lon.=26.241648, Alt.=144.646606m. Speed=8.352000m/h.</desc>
<speed>2.320000</speed>
</trkpt>
<trkpt lat="55.736458" lon="26.241703">
<ele>144.529419</ele>
<time>2010-07-17T11:52:09Z</time>
<desc>lat.=55.736458, lon.=26.241703, Alt.=144.529419m. Speed=9.540000m/h.</desc>
<speed>2.650000</speed>
</trkpt>
<trkpt lat="55.736465" lon="26.241760">
<ele>143.779419</ele>
<time>2010-07-17T11:52:10Z</time>
<desc>lat.=55.736465, lon.=26.241760, Alt.=143.779419m. Speed=8.784000m/h.</desc>
<speed>2.440000</speed>
</trkpt>
<trkpt lat="55.736465" lon="26.241810">
<ele>144.466919</ele>
<time>2010-07-17T11:52:11Z</time>
<desc>lat.=55.736465, lon.=26.241810, Alt.=144.466919m. Speed=9.648000m/h.</desc>
<speed>2.680000</speed>
</trkpt>
<trkpt lat="55.736469" lon="26.241854">
<ele>144.338013</ele>
<time>2010-07-17T11:52:12Z</time>
<desc>lat.=55.736469, lon.=26.241854, Alt.=144.338013m. Speed=9.324000m/h.</desc>
<speed>2.590000</speed>
</trkpt>
<trkpt lat="55.736473" lon="26.241890">
<ele>144.779419</ele>
<time>2010-07-17T11:52:13Z</time>
<desc>lat.=55.736473, lon.=26.241890, Alt.=144.779419m. Speed=9.504000m/h.</desc>
<speed>2.640000</speed>
</trkpt>
<trkpt lat="55.736473" lon="26.241947">
<ele>144.931763</ele>
<time>2010-07-17T11:52:14Z</time>
<desc>lat.=55.736473, lon.=26.241947, Alt.=144.931763m. Speed=10.836000m/h.</desc>
<speed>3.010000</speed>
</trkpt>
<trkpt lat="55.736481" lon="26.242004">
<ele>144.603638</ele>
<time>2010-07-17T11:52:15Z</time>
<desc>lat.=55.736481, lon.=26.242004, Alt.=144.603638m. Speed=10.548000m/h.</desc>
<speed>2.930000</speed>
</trkpt>
<trkpt lat="55.736485" lon="26.242056">
<ele>144.420044</ele>
<time>2010-07-17T11:52:16Z</time>
<desc>lat.=55.736485, lon.=26.242056, Alt.=144.420044m. Speed=9.684000m/h.</desc>
<speed>2.690000</speed>
</trkpt>
<trkpt lat="55.736488" lon="26.242104">
<ele>144.314575</ele>
<time>2010-07-17T11:52:17Z</time>
<desc>lat.=55.736488, lon.=26.242104, Alt.=144.314575m. Speed=9.756000m/h.</desc>
<speed>2.710000</speed>
</trkpt>
<trkpt lat="55.736488" lon="26.242147">
<ele>144.838013</ele>
<time>2010-07-17T11:52:18Z</time>
<desc>lat.=55.736488, lon.=26.242147, Alt.=144.838013m. Speed=9.432000m/h.</desc>
<speed>2.620000</speed>
</trkpt>
<trkpt lat="55.736496" lon="26.242197">
<ele>145.533325</ele>
<time>2010-07-17T11:52:19Z</time>
<desc>lat.=55.736496, lon.=26.242197, Alt.=145.533325m. Speed=9.540000m/h.</desc>
<speed>2.650000</speed>
</trkpt>
<trkpt lat="55.736496" lon="26.242243">
<ele>146.744263</ele>
<time>2010-07-17T11:52:20Z</time>
<desc>lat.=55.736496, lon.=26.242243, Alt.=146.744263m. Speed=9.972000m/h.</desc>
<speed>2.770000</speed>
</trkpt>
<trkpt lat="55.736507" lon="26.242287">
<ele>146.685669</ele>
<time>2010-07-17T11:52:21Z</time>
<desc>lat.=55.736507, lon.=26.242287, Alt.=146.685669m. Speed=10.368000m/h.</desc>
<speed>2.880000</speed>
</trkpt>
<trkpt lat="55.736511" lon="26.242338">
<ele>147.064575</ele>
<time>2010-07-17T11:52:22Z</time>
<desc>lat.=55.736511, lon.=26.242338, Alt.=147.064575m. Speed=10.404000m/h.</desc>
<speed>2.890000</speed>
</trkpt>
<trkpt lat="55.736511" lon="26.242393">
<ele>146.529419</ele>
<time>2010-07-17T11:52:23Z</time>
<desc>lat.=55.736511, lon.=26.242393, Alt.=146.529419m. Speed=11.268000m/h.</desc>
<speed>3.130000</speed>
</trkpt>
<trkpt lat="55.736511" lon="26.242443">
<ele>146.209106</ele>
<time>2010-07-17T11:52:24Z</time>
<desc>lat.=55.736511, lon.=26.242443, Alt.=146.209106m. Speed=10.332000m/h.</desc>
<speed>2.870000</speed>
</trkpt>
<trkpt lat="55.736515" lon="26.242489">
<ele>146.189575</ele>
<time>2010-07-17T11:52:25Z</time>
<desc>lat.=55.736515, lon.=26.242489, Alt.=146.189575m. Speed=10.584000m/h.</desc>
<speed>2.940000</speed>
</trkpt>
<trkpt lat="55.736523" lon="26.242537">
<ele>146.627075</ele>
<time>2010-07-17T11:52:26Z</time>
<desc>lat.=55.736523, lon.=26.242537, Alt.=146.627075m. Speed=9.504000m/h.</desc>
<speed>2.640000</speed>
</trkpt>
<trkpt lat="55.736530" lon="26.242584">
<ele>146.150513</ele>
<time>2010-07-17T11:52:27Z</time>
<desc>lat.=55.736530, lon.=26.242584, Alt.=146.150513m. Speed=9.720000m/h.</desc>
<speed>2.700000</speed>
</trkpt>
<trkpt lat="55.736530" lon="26.242640">
<ele>146.236450</ele>
<time>2010-07-17T11:52:28Z</time>
<desc>lat.=55.736530, lon.=26.242640, Alt.=146.236450m. Speed=10.404000m/h.</desc>
<speed>2.890000</speed>
</trkpt>
<trkpt lat="55.736538" lon="26.242689">
<ele>146.439575</ele>
<time>2010-07-17T11:52:29Z</time>
<desc>lat.=55.736538, lon.=26.242689, Alt.=146.439575m. Speed=9.360000m/h.</desc>
<speed>2.600000</speed>
</trkpt>
<trkpt lat="55.736534" lon="26.242731">
<ele>146.115356</ele>
<time>2010-07-17T11:52:30Z</time>
<desc>lat.=55.736534, lon.=26.242731, Alt.=146.115356m. Speed=9.756000m/h.</desc>
<speed>2.710000</speed>
</trkpt>
<trkpt lat="55.736534" lon="26.242771">
<ele>146.302856</ele>
<time>2010-07-17T11:52:31Z</time>
<desc>lat.=55.736534, lon.=26.242771, Alt.=146.302856m. Speed=8.280000m/h.</desc>
<speed>2.300000</speed>
</trkpt>
<trkpt lat="55.736534" lon="26.242807">
<ele>146.220825</ele>
<time>2010-07-17T11:52:32Z</time>
<desc>lat.=55.736534, lon.=26.242807, Alt.=146.220825m. Speed=7.992000m/h.</desc>
<speed>2.220000</speed>
</trkpt>
<trkpt lat="55.736538" lon="26.242847">
<ele>146.634888</ele>
<time>2010-07-17T11:52:33Z</time>
<desc>lat.=55.736538, lon.=26.242847, Alt.=146.634888m. Speed=8.460000m/h.</desc>
<speed>2.350000</speed>
</trkpt>
<trkpt lat="55.736542" lon="26.242880">
<ele>147.111450</ele>
<time>2010-07-17T11:52:34Z</time>
<desc>lat.=55.736542, lon.=26.242880, Alt.=147.111450m. Speed=8.748000m/h.</desc>
<speed>2.430000</speed>
</trkpt>
<trkpt lat="55.736557" lon="26.242914">
<ele>148.123169</ele>
<time>2010-07-17T11:52:35Z</time>
<desc>lat.=55.736557, lon.=26.242914, Alt.=148.123169m. Speed=8.640000m/h.</desc>
<speed>2.400000</speed>
</trkpt>
<trkpt lat="55.736561" lon="26.242958">
<ele>148.427856</ele>
<time>2010-07-17T11:52:36Z</time>
<desc>lat.=55.736561, lon.=26.242958, Alt.=148.427856m. Speed=9.864000m/h.</desc>
<speed>2.740000</speed>
</trkpt>
<trkpt lat="55.736561" lon="26.242994">
<ele>148.338013</ele>
<time>2010-07-17T11:52:37Z</time>
<desc>lat.=55.736561, lon.=26.242994, Alt.=148.338013m. Speed=7.704000m/h.</desc>
<speed>2.140000</speed>
</trkpt>
<trkpt lat="55.736557" lon="26.243031">
<ele>147.673950</ele>
<time>2010-07-17T11:52:38Z</time>
<desc>lat.=55.736557, lon.=26.243031, Alt.=147.673950m. Speed=7.812000m/h.</desc>
<speed>2.170000</speed>
</trkpt>
<trkpt lat="55.736561" lon="26.243078">
<ele>146.775513</ele>
<time>2010-07-17T11:52:39Z</time>
<desc>lat.=55.736561, lon.=26.243078, Alt.=146.775513m. Speed=8.784000m/h.</desc>
<speed>2.440000</speed>
</trkpt>
<trkpt lat="55.736568" lon="26.243122">
<ele>147.302856</ele>
<time>2010-07-17T11:52:40Z</time>
<desc>lat.=55.736568, lon.=26.243122, Alt.=147.302856m. Speed=9.432000m/h.</desc>
<speed>2.620000</speed>
</trkpt>
<trkpt lat="55.736568" lon="26.243168">
<ele>148.568481</ele>
<time>2010-07-17T11:52:41Z</time>
<desc>lat.=55.736568, lon.=26.243168, Alt.=148.568481m. Speed=9.864000m/h.</desc>
<speed>2.740000</speed>
</trkpt>
<trkpt lat="55.736568" lon="26.243208">
<ele>148.552856</ele>
<time>2010-07-17T11:52:42Z</time>
<desc>lat.=55.736568, lon.=26.243208, Alt.=148.552856m. Speed=9.360000m/h.</desc>
<speed>2.600000</speed>
</trkpt>
<trkpt lat="55.736565" lon="26.243252">
<ele>148.451294</ele>
<time>2010-07-17T11:52:43Z</time>
<desc>lat.=55.736565, lon.=26.243252, Alt.=148.451294m. Speed=9.324000m/h.</desc>
<speed>2.590000</speed>
</trkpt>
<trkpt lat="55.736572" lon="26.243296">
<ele>148.623169</ele>
<time>2010-07-17T11:52:44Z</time>
<desc>lat.=55.736572, lon.=26.243296, Alt.=148.623169m. Speed=9.072000m/h.</desc>
<speed>2.520000</speed>
</trkpt>
<trkpt lat="55.736576" lon="26.243347">
<ele>148.861450</ele>
<time>2010-07-17T11:52:45Z</time>
<desc>lat.=55.736576, lon.=26.243347, Alt.=148.861450m. Speed=9.468000m/h.</desc>
<speed>2.630000</speed>
</trkpt>
<trkpt lat="55.736576" lon="26.243395">
<ele>148.959106</ele>
<time>2010-07-17T11:52:46Z</time>
<desc>lat.=55.736576, lon.=26.243395, Alt.=148.959106m. Speed=8.964000m/h.</desc>
<speed>2.490000</speed>
</trkpt>
<trkpt lat="55.736561" lon="26.243444">
<ele>148.771606</ele>
<time>2010-07-17T11:52:47Z</time>
<desc>lat.=55.736561, lon.=26.243444, Alt.=148.771606m. Speed=8.172000m/h.</desc>
<speed>2.270000</speed>
</trkpt>
<trkpt lat="55.736557" lon="26.243486">
<ele>148.732544</ele>
<time>2010-07-17T11:52:48Z</time>
<desc>lat.=55.736557, lon.=26.243486, Alt.=148.732544m. Speed=8.928000m/h.</desc>
<speed>2.480000</speed>
</trkpt>
<trkpt lat="55.736557" lon="26.243530">
<ele>148.931763</ele>
<time>2010-07-17T11:52:49Z</time>
<desc>lat.=55.736557, lon.=26.243530, Alt.=148.931763m. Speed=8.028000m/h.</desc>
<speed>2.230000</speed>
</trkpt>
<trkpt lat="55.736557" lon="26.243567">
<ele>149.138794</ele>
<time>2010-07-17T11:52:50Z</time>
<desc>lat.=55.736557, lon.=26.243567, Alt.=149.138794m. Speed=7.776000m/h.</desc>
<speed>2.160000</speed>
</trkpt>
<trkpt lat="55.736557" lon="26.243597">
<ele>149.213013</ele>
<time>2010-07-17T11:52:51Z</time>
<desc>lat.=55.736557, lon.=26.243597, Alt.=149.213013m. Speed=9.180000m/h.</desc>
<speed>2.550000</speed>
</trkpt>
<trkpt lat="55.736557" lon="26.243641">
<ele>149.130981</ele>
<time>2010-07-17T11:52:52Z</time>
<desc>lat.=55.736557, lon.=26.243641, Alt.=149.130981m. Speed=9.432000m/h.</desc>
<speed>2.620000</speed>
</trkpt>
<trkpt lat="55.736568" lon="26.243685">
<ele>149.072388</ele>
<time>2010-07-17T11:52:53Z</time>
<desc>lat.=55.736568, lon.=26.243685, Alt.=149.072388m. Speed=10.188000m/h.</desc>
<speed>2.830000</speed>
</trkpt>
<trkpt lat="55.736572" lon="26.243729">
<ele>149.072388</ele>
<time>2010-07-17T11:52:54Z</time>
<desc>lat.=55.736572, lon.=26.243729, Alt.=149.072388m. Speed=9.756000m/h.</desc>
<speed>2.710000</speed>
</trkpt>
<trkpt lat="55.736584" lon="26.243771">
<ele>149.095825</ele>
<time>2010-07-17T11:52:55Z</time>
<desc>lat.=55.736584, lon.=26.243771, Alt.=149.095825m. Speed=9.288000m/h.</desc>
<speed>2.580000</speed>
</trkpt>
<trkpt lat="55.736584" lon="26.243814">
<ele>149.259888</ele>
<time>2010-07-17T11:52:56Z</time>
<desc>lat.=55.736584, lon.=26.243814, Alt.=149.259888m. Speed=8.892000m/h.</desc>
<speed>2.470000</speed>
</trkpt>
<trkpt lat="55.736599" lon="26.243853">
<ele>150.298950</ele>
<time>2010-07-17T11:52:57Z</time>
<desc>lat.=55.736599, lon.=26.243853, Alt.=150.298950m. Speed=10.044000m/h.</desc>
<speed>2.790000</speed>
</trkpt>
<trkpt lat="55.736595" lon="26.243891">
<ele>152.447388</ele>
<time>2010-07-17T11:52:58Z</time>
<desc>lat.=55.736595, lon.=26.243891, Alt.=152.447388m. Speed=9.792000m/h.</desc>
<speed>2.720000</speed>
</trkpt>
<trkpt lat="55.736599" lon="26.243925">
<ele>154.209106</ele>
<time>2010-07-17T11:52:59Z</time>
<desc>lat.=55.736599, lon.=26.243925, Alt.=154.209106m. Speed=8.676000m/h.</desc>
<speed>2.410000</speed>
</trkpt>
<trkpt lat="55.736603" lon="26.243967">
<ele>154.310669</ele>
<time>2010-07-17T11:53:00Z</time>
<desc>lat.=55.736603, lon.=26.243967, Alt.=154.310669m. Speed=9.216000m/h.</desc>
<speed>2.560000</speed>
</trkpt>
<trkpt lat="55.736610" lon="26.244007">
<ele>154.935669</ele>
<time>2010-07-17T11:53:01Z</time>
<desc>lat.=55.736610, lon.=26.244007, Alt.=154.935669m. Speed=9.468000m/h.</desc>
<speed>2.630000</speed>
</trkpt>
<trkpt lat="55.736614" lon="26.244053">
<ele>155.420044</ele>
<time>2010-07-17T11:53:02Z</time>
<desc>lat.=55.736614, lon.=26.244053, Alt.=155.420044m. Speed=8.244000m/h.</desc>
<speed>2.290000</speed>
</trkpt>
<trkpt lat="55.736618" lon="26.244099">
<ele>156.298950</ele>
<time>2010-07-17T11:53:03Z</time>
<desc>lat.=55.736618, lon.=26.244099, Alt.=156.298950m. Speed=7.920000m/h.</desc>
<speed>2.200000</speed>
</trkpt>
<trkpt lat="55.736618" lon="26.244137">
<ele>156.076294</ele>
<time>2010-07-17T11:53:04Z</time>
<desc>lat.=55.736618, lon.=26.244137, Alt.=156.076294m. Speed=7.236000m/h.</desc>
<speed>2.010000</speed>
</trkpt>
<trkpt lat="55.736618" lon="26.244179">
<ele>156.216919</ele>
<time>2010-07-17T11:53:05Z</time>
<desc>lat.=55.736618, lon.=26.244179, Alt.=156.216919m. Speed=7.992000m/h.</desc>
<speed>2.220000</speed>
</trkpt>
<trkpt lat="55.736610" lon="26.244219">
<ele>156.072388</ele>
<time>2010-07-17T11:53:06Z</time>
<desc>lat.=55.736610, lon.=26.244219, Alt.=156.072388m. Speed=6.624000m/h.</desc>
<speed>1.840000</speed>
</trkpt>
<trkpt lat="55.736610" lon="26.244247">
<ele>156.404419</ele>
<time>2010-07-17T11:53:07Z</time>
<desc>lat.=55.736610, lon.=26.244247, Alt.=156.404419m. Speed=5.868000m/h.</desc>
<speed>1.630000</speed>
</trkpt>
<trkpt lat="55.736614" lon="26.244268">
<ele>156.849731</ele>
<time>2010-07-17T11:53:08Z</time>
<desc>lat.=55.736614, lon.=26.244268, Alt.=156.849731m. Speed=4.896000m/h.</desc>
<speed>1.360000</speed>
</trkpt>
<trkpt lat="55.736618" lon="26.244295">
<ele>156.080200</ele>
<time>2010-07-17T11:53:09Z</time>
<desc>lat.=55.736618, lon.=26.244295, Alt.=156.080200m. Speed=5.544000m/h.</desc>
<speed>1.540000</speed>
</trkpt>
<trkpt lat="55.736626" lon="26.244318">
<ele>156.396606</ele>
<time>2010-07-17T11:53:10Z</time>
<desc>lat.=55.736626, lon.=26.244318, Alt.=156.396606m. Speed=5.832000m/h.</desc>
<speed>1.620000</speed>
</trkpt>
<trkpt lat="55.736629" lon="26.244352">
<ele>157.134888</ele>
<time>2010-07-17T11:53:11Z</time>
<desc>lat.=55.736629, lon.=26.244352, Alt.=157.134888m. Speed=4.716000m/h.</desc>
<speed>1.310000</speed>
</trkpt>
<trkpt lat="55.736633" lon="26.244381">
<ele>157.162231</ele>
<time>2010-07-17T11:53:12Z</time>
<desc>lat.=55.736633, lon.=26.244381, Alt.=157.162231m. Speed=4.968000m/h.</desc>
<speed>1.380000</speed>
</trkpt>
<trkpt lat="55.736633" lon="26.244406">
<ele>156.951294</ele>
<time>2010-07-17T11:53:13Z</time>
<desc>lat.=55.736633, lon.=26.244406, Alt.=156.951294m. Speed=4.824000m/h.</desc>
<speed>1.340000</speed>
</trkpt>
<trkpt lat="55.736629" lon="26.244438">
<ele>155.232544</ele>
<time>2010-07-17T11:53:14Z</time>
<desc>lat.=55.736629, lon.=26.244438, Alt.=155.232544m. Speed=6.228000m/h.</desc>
<speed>1.730000</speed>
</trkpt>
<trkpt lat="55.736633" lon="26.244473">
<ele>154.763794</ele>
<time>2010-07-17T11:53:15Z</time>
<desc>lat.=55.736633, lon.=26.244473, Alt.=154.763794m. Speed=6.804000m/h.</desc>
<speed>1.890000</speed>
</trkpt>
<trkpt lat="55.736641" lon="26.244501">
<ele>154.568481</ele>
<time>2010-07-17T11:53:16Z</time>
<desc>lat.=55.736641, lon.=26.244501, Alt.=154.568481m. Speed=5.796000m/h.</desc>
<speed>1.610000</speed>
</trkpt>
<trkpt lat="55.736645" lon="26.244532">
<ele>153.486450</ele>
<time>2010-07-17T11:53:17Z</time>
<desc>lat.=55.736645, lon.=26.244532, Alt.=153.486450m. Speed=4.896000m/h.</desc>
<speed>1.360000</speed>
</trkpt>
<trkpt lat="55.736637" lon="26.244572">
<ele>152.685669</ele>
<time>2010-07-17T11:53:18Z</time>
<desc>lat.=55.736637, lon.=26.244572, Alt.=152.685669m. Speed=6.192000m/h.</desc>
<speed>1.720000</speed>
</trkpt>
<trkpt lat="55.736626" lon="26.244602">
<ele>152.048950</ele>
<time>2010-07-17T11:53:19Z</time>
<desc>lat.=55.736626, lon.=26.244602, Alt.=152.048950m. Speed=3.852000m/h.</desc>
<speed>1.070000</speed>
</trkpt>
<trkpt lat="55.736626" lon="26.244619">
<ele>151.630981</ele>
<time>2010-07-17T11:53:20Z</time>
<desc>lat.=55.736626, lon.=26.244619, Alt.=151.630981m. Speed=2.736000m/h.</desc>
<speed>0.760000</speed>
</trkpt>
<trkpt lat="55.736626" lon="26.244627">
<ele>151.373169</ele>
<time>2010-07-17T11:53:21Z</time>
<desc>lat.=55.736626, lon.=26.244627, Alt.=151.373169m. Speed=0.972000m/h.</desc>
<speed>0.270000</speed>
</trkpt>
<trkpt lat="55.736626" lon="26.244621">
<ele>151.591919</ele>
<time>2010-07-17T11:53:22Z</time>
<desc>lat.=55.736626, lon.=26.244621, Alt.=151.591919m. Speed=0.468000m/h.</desc>
<speed>0.130000</speed>
</trkpt>
<trkpt lat="55.736622" lon="26.244621">
<ele>151.459106</ele>
<time>2010-07-17T11:53:23Z</time>
<desc>lat.=55.736622, lon.=26.244621, Alt.=151.459106m. Speed=0.432000m/h.</desc>
<speed>0.120000</speed>
</trkpt>
<trkpt lat="55.736626" lon="26.244619">
<ele>151.455200</ele>
<time>2010-07-17T11:53:24Z</time>
<desc>lat.=55.736626, lon.=26.244619, Alt.=151.455200m. Speed=0.180000m/h.</desc>
<speed>0.050000</speed>
</trkpt>
<trkpt lat="55.736626" lon="26.244619">
<ele>151.459106</ele>
<time>2010-07-17T11:53:25Z</time>
<desc>lat.=55.736626, lon.=26.244619, Alt.=151.459106m. Speed=0.216000m/h.</desc>
<speed>0.060000</speed>
</trkpt>
<trkpt lat="55.736626" lon="26.244619">
<ele>151.470825</ele>
<time>2010-07-17T11:53:26Z</time>
<desc>lat.=55.736626, lon.=26.244619, Alt.=151.470825m. Speed=0.036000m/h.</desc>
<speed>0.010000</speed>
</trkpt>
<trkpt lat="55.736626" lon="26.244619">
<ele>151.470825</ele>
<time>2010-07-17T11:53:27Z</time>
<desc>lat.=55.736626, lon.=26.244619, Alt.=151.470825m. Speed=0.216000m/h.</desc>
<speed>0.060000</speed>
</trkpt>
<trkpt lat="55.736626" lon="26.244621">
<ele>151.466919</ele>
<time>2010-07-17T11:53:28Z</time>
<desc>lat.=55.736626, lon.=26.244621, Alt.=151.466919m. Speed=0.144000m/h.</desc>
<speed>0.040000</speed>
</trkpt>
<trkpt lat="55.736626" lon="26.244621">
<ele>151.463013</ele>
<time>2010-07-17T11:53:29Z</time>
<desc>lat.=55.736626, lon.=26.244621, Alt.=151.463013m. Speed=1.116000m/h.</desc>
<speed>0.310000</speed>
</trkpt>
<trkpt lat="55.736626" lon="26.244627">
<ele>151.463013</ele>
<time>2010-07-17T11:53:30Z</time>
<desc>lat.=55.736626, lon.=26.244627, Alt.=151.463013m. Speed=1.080000m/h.</desc>
<speed>0.300000</speed>
</trkpt>
<trkpt lat="55.736626" lon="26.244631">
<ele>151.482544</ele>
<time>2010-07-17T11:53:31Z</time>
<desc>lat.=55.736626, lon.=26.244631, Alt.=151.482544m. Speed=0.900000m/h.</desc>
<speed>0.250000</speed>
</trkpt>
<trkpt lat="55.736626" lon="26.244635">
<ele>151.498169</ele>
<time>2010-07-17T11:53:32Z</time>
<desc>lat.=55.736626, lon.=26.244635, Alt.=151.498169m. Speed=1.656000m/h.</desc>
<speed>0.460000</speed>
</trkpt>
<trkpt lat="55.736626" lon="26.244642">
<ele>151.502075</ele>
<time>2010-07-17T11:53:33Z</time>
<desc>lat.=55.736626, lon.=26.244642, Alt.=151.502075m. Speed=2.052000m/h.</desc>
<speed>0.570000</speed>
</trkpt>
<trkpt lat="55.736629" lon="26.244648">
<ele>151.513794</ele>
<time>2010-07-17T11:53:34Z</time>
<desc>lat.=55.736629, lon.=26.244648, Alt.=151.513794m. Speed=2.592000m/h.</desc>
<speed>0.720000</speed>
</trkpt>
<trkpt lat="55.736637" lon="26.244648">
<ele>151.521606</ele>
<time>2010-07-17T11:53:35Z</time>
<desc>lat.=55.736637, lon.=26.244648, Alt.=151.521606m. Speed=3.492000m/h.</desc>
<speed>0.970000</speed>
</trkpt>
<trkpt lat="55.736645" lon="26.244644">
<ele>151.541138</ele>
<time>2010-07-17T11:53:36Z</time>
<desc>lat.=55.736645, lon.=26.244644, Alt.=151.541138m. Speed=5.976000m/h.</desc>
<speed>1.660000</speed>
</trkpt>
<trkpt lat="55.736664" lon="26.244625">
<ele>151.525513</ele>
<time>2010-07-17T11:53:37Z</time>
<desc>lat.=55.736664, lon.=26.244625, Alt.=151.525513m. Speed=8.424000m/h.</desc>
<speed>2.340000</speed>
</trkpt>
<trkpt lat="55.736687" lon="26.244602">
<ele>151.685669</ele>
<time>2010-07-17T11:53:38Z</time>
<desc>lat.=55.736687, lon.=26.244602, Alt.=151.685669m. Speed=10.800000m/h.</desc>
<speed>3.000000</speed>
</trkpt>
<trkpt lat="55.736713" lon="26.244585">
<ele>151.623169</ele>
<time>2010-07-17T11:53:39Z</time>
<desc>lat.=55.736713, lon.=26.244585, Alt.=151.623169m. Speed=11.700000m/h.</desc>
<speed>3.250000</speed>
</trkpt>
<trkpt lat="55.736744" lon="26.244572">
<ele>151.572388</ele>
<time>2010-07-17T11:53:40Z</time>
<desc>lat.=55.736744, lon.=26.244572, Alt.=151.572388m. Speed=13.572000m/h.</desc>
<speed>3.770000</speed>
</trkpt>
<trkpt lat="55.736782" lon="26.244560">
<ele>151.166138</ele>
<time>2010-07-17T11:53:41Z</time>
<desc>lat.=55.736782, lon.=26.244560, Alt.=151.166138m. Speed=14.220000m/h.</desc>
<speed>3.950000</speed>
</trkpt>
<trkpt lat="55.736820" lon="26.244551">
<ele>150.732544</ele>
<time>2010-07-17T11:53:42Z</time>
<desc>lat.=55.736820, lon.=26.244551, Alt.=150.732544m. Speed=15.768000m/h.</desc>
<speed>4.380000</speed>
</trkpt>
<trkpt lat="55.736862" lon="26.244541">
<ele>150.341919</ele>
<time>2010-07-17T11:53:43Z</time>
<desc>lat.=55.736862, lon.=26.244541, Alt.=150.341919m. Speed=16.164000m/h.</desc>
<speed>4.490000</speed>
</trkpt>
<trkpt lat="55.736904" lon="26.244528">
<ele>149.986450</ele>
<time>2010-07-17T11:53:44Z</time>
<desc>lat.=55.736904, lon.=26.244528, Alt.=149.986450m. Speed=15.588000m/h.</desc>
<speed>4.330000</speed>
</trkpt>
<trkpt lat="55.736942" lon="26.244520">
<ele>149.775513</ele>
<time>2010-07-17T11:53:45Z</time>
<desc>lat.=55.736942, lon.=26.244520, Alt.=149.775513m. Speed=15.300000m/h.</desc>
<speed>4.250000</speed>
</trkpt>
<trkpt lat="55.736977" lon="26.244509">
<ele>149.689575</ele>
<time>2010-07-17T11:53:46Z</time>
<desc>lat.=55.736977, lon.=26.244509, Alt.=149.689575m. Speed=14.112000m/h.</desc>
<speed>3.920000</speed>
</trkpt>
<trkpt lat="55.737019" lon="26.244495">
<ele>149.365356</ele>
<time>2010-07-17T11:53:47Z</time>
<desc>lat.=55.737019, lon.=26.244495, Alt.=149.365356m. Speed=15.372000m/h.</desc>
<speed>4.270000</speed>
</trkpt>
<trkpt lat="55.737053" lon="26.244482">
<ele>148.783325</ele>
<time>2010-07-17T11:53:48Z</time>
<desc>lat.=55.737053, lon.=26.244482, Alt.=148.783325m. Speed=13.320000m/h.</desc>
<speed>3.700000</speed>
</trkpt>
<trkpt lat="55.737087" lon="26.244474">
<ele>148.244263</ele>
<time>2010-07-17T11:53:49Z</time>
<desc>lat.=55.737087, lon.=26.244474, Alt.=148.244263m. Speed=12.996000m/h.</desc>
<speed>3.610000</speed>
</trkpt>
<trkpt lat="55.737114" lon="26.244467">
<ele>147.787231</ele>
<time>2010-07-17T11:53:50Z</time>
<desc>lat.=55.737114, lon.=26.244467, Alt.=147.787231m. Speed=11.736000m/h.</desc>
<speed>3.260000</speed>
</trkpt>
<trkpt lat="55.737144" lon="26.244457">
<ele>147.338013</ele>
<time>2010-07-17T11:53:51Z</time>
<desc>lat.=55.737144, lon.=26.244457, Alt.=147.338013m. Speed=12.492000m/h.</desc>
<speed>3.470000</speed>
</trkpt>
<trkpt lat="55.737171" lon="26.244450">
<ele>147.252075</ele>
<time>2010-07-17T11:53:52Z</time>
<desc>lat.=55.737171, lon.=26.244450, Alt.=147.252075m. Speed=11.844000m/h.</desc>
<speed>3.290000</speed>
</trkpt>
<trkpt lat="55.737202" lon="26.244442">
<ele>146.994263</ele>
<time>2010-07-17T11:53:53Z</time>
<desc>lat.=55.737202, lon.=26.244442, Alt.=146.994263m. Speed=12.672000m/h.</desc>
<speed>3.520000</speed>
</trkpt>
<trkpt lat="55.737240" lon="26.244438">
<ele>146.502075</ele>
<time>2010-07-17T11:53:54Z</time>
<desc>lat.=55.737240, lon.=26.244438, Alt.=146.502075m. Speed=14.796000m/h.</desc>
<speed>4.110000</speed>
</trkpt>
<trkpt lat="55.737282" lon="26.244436">
<ele>146.017700</ele>
<time>2010-07-17T11:53:55Z</time>
<desc>lat.=55.737282, lon.=26.244436, Alt.=146.017700m. Speed=12.888000m/h.</desc>
<speed>3.580000</speed>
</trkpt>
<trkpt lat="55.737320" lon="26.244436">
<ele>145.517700</ele>
<time>2010-07-17T11:53:56Z</time>
<desc>lat.=55.737320, lon.=26.244436, Alt.=145.517700m. Speed=12.636000m/h.</desc>
<speed>3.510000</speed>
</trkpt>
<trkpt lat="55.737350" lon="26.244432">
<ele>145.115356</ele>
<time>2010-07-17T11:53:57Z</time>
<desc>lat.=55.737350, lon.=26.244432, Alt.=145.115356m. Speed=11.880000m/h.</desc>
<speed>3.300000</speed>
</trkpt>
<trkpt lat="55.737385" lon="26.244423">
<ele>145.123169</ele>
<time>2010-07-17T11:53:58Z</time>
<desc>lat.=55.737385, lon.=26.244423, Alt.=145.123169m. Speed=13.140000m/h.</desc>
<speed>3.650000</speed>
</trkpt>
<trkpt lat="55.737423" lon="26.244415">
<ele>144.263794</ele>
<time>2010-07-17T11:53:59Z</time>
<desc>lat.=55.737423, lon.=26.244415, Alt.=144.263794m. Speed=15.048000m/h.</desc>
<speed>4.180000</speed>
</trkpt>
<trkpt lat="55.737461" lon="26.244415">
<ele>144.060669</ele>
<time>2010-07-17T11:54:00Z</time>
<desc>lat.=55.737461, lon.=26.244415, Alt.=144.060669m. Speed=14.580000m/h.</desc>
<speed>4.050000</speed>
</trkpt>
<trkpt lat="55.737503" lon="26.244406">
<ele>143.677856</ele>
<time>2010-07-17T11:54:01Z</time>
<desc>lat.=55.737503, lon.=26.244406, Alt.=143.677856m. Speed=15.516000m/h.</desc>
<speed>4.310000</speed>
</trkpt>
<trkpt lat="55.737553" lon="26.244396">
<ele>144.025513</ele>
<time>2010-07-17T11:54:02Z</time>
<desc>lat.=55.737553, lon.=26.244396, Alt.=144.025513m. Speed=17.316000m/h.</desc>
<speed>4.810000</speed>
</trkpt>
<trkpt lat="55.737598" lon="26.244396">
<ele>144.076294</ele>
<time>2010-07-17T11:54:03Z</time>
<desc>lat.=55.737598, lon.=26.244396, Alt.=144.076294m. Speed=17.388000m/h.</desc>
<speed>4.830000</speed>
</trkpt>
<trkpt lat="55.737644" lon="26.244389">
<ele>144.111450</ele>
<time>2010-07-17T11:54:04Z</time>
<desc>lat.=55.737644, lon.=26.244389, Alt.=144.111450m. Speed=15.084000m/h.</desc>
<speed>4.190000</speed>
</trkpt>
<trkpt lat="55.737686" lon="26.244381">
<ele>144.248169</ele>
<time>2010-07-17T11:54:05Z</time>
<desc>lat.=55.737686, lon.=26.244381, Alt.=144.248169m. Speed=16.740000m/h.</desc>
<speed>4.650000</speed>
</trkpt>
<trkpt lat="55.737751" lon="26.244389">
<ele>146.365356</ele>
<time>2010-07-17T11:54:06Z</time>
<desc>lat.=55.737751, lon.=26.244389, Alt.=146.365356m. Speed=16.632000m/h.</desc>
<speed>4.620000</speed>
</trkpt>
<trkpt lat="55.737808" lon="26.244375">
<ele>145.373169</ele>
<time>2010-07-17T11:54:07Z</time>
<desc>lat.=55.737808, lon.=26.244375, Alt.=145.373169m. Speed=20.268000m/h.</desc>
<speed>5.630000</speed>
</trkpt>
<trkpt lat="55.737869" lon="26.244362">
<ele>145.736450</ele>
<time>2010-07-17T11:54:08Z</time>
<desc>lat.=55.737869, lon.=26.244362, Alt.=145.736450m. Speed=18.864000m/h.</desc>
<speed>5.240000</speed>
</trkpt>
<trkpt lat="55.737923" lon="26.244362">
<ele>147.162231</ele>
<time>2010-07-17T11:54:09Z</time>
<desc>lat.=55.737923, lon.=26.244362, Alt.=147.162231m. Speed=17.820000m/h.</desc>
<speed>4.950000</speed>
</trkpt>
<trkpt lat="55.737965" lon="26.244350">
<ele>146.814575</ele>
<time>2010-07-17T11:54:10Z</time>
<desc>lat.=55.737965, lon.=26.244350, Alt.=146.814575m. Speed=18.396000m/h.</desc>
<speed>5.110000</speed>
</trkpt>
<trkpt lat="55.738010" lon="26.244349">
<ele>146.779419</ele>
<time>2010-07-17T11:54:11Z</time>
<desc>lat.=55.738010, lon.=26.244349, Alt.=146.779419m. Speed=18.684000m/h.</desc>
<speed>5.190000</speed>
</trkpt>
<trkpt lat="55.738052" lon="26.244349">
<ele>145.275513</ele>
<time>2010-07-17T11:54:12Z</time>
<desc>lat.=55.738052, lon.=26.244349, Alt.=145.275513m. Speed=19.799999m/h.</desc>
<speed>5.500000</speed>
</trkpt>
<trkpt lat="55.738106" lon="26.244337">
<ele>144.818481</ele>
<time>2010-07-17T11:54:13Z</time>
<desc>lat.=55.738106, lon.=26.244337, Alt.=144.818481m. Speed=20.771999m/h.</desc>
<speed>5.770000</speed>
</trkpt>
<trkpt lat="55.738155" lon="26.244320">
<ele>144.330200</ele>
<time>2010-07-17T11:54:14Z</time>
<desc>lat.=55.738155, lon.=26.244320, Alt.=144.330200m. Speed=22.068001m/h.</desc>
<speed>6.130000</speed>
</trkpt>
<trkpt lat="55.738209" lon="26.244293">
<ele>144.052856</ele>
<time>2010-07-17T11:54:15Z</time>
<desc>lat.=55.738209, lon.=26.244293, Alt.=144.052856m. Speed=22.788000m/h.</desc>
<speed>6.330000</speed>
</trkpt>
<trkpt lat="55.738258" lon="26.244249">
<ele>143.896606</ele>
<time>2010-07-17T11:54:16Z</time>
<desc>lat.=55.738258, lon.=26.244249, Alt.=143.896606m. Speed=22.535999m/h.</desc>
<speed>6.260000</speed>
</trkpt>
<trkpt lat="55.738304" lon="26.244205">
<ele>144.521606</ele>
<time>2010-07-17T11:54:17Z</time>
<desc>lat.=55.738304, lon.=26.244205, Alt.=144.521606m. Speed=20.736000m/h.</desc>
<speed>5.760000</speed>
</trkpt>
<trkpt lat="55.738358" lon="26.244165">
<ele>144.627075</ele>
<time>2010-07-17T11:54:18Z</time>
<desc>lat.=55.738358, lon.=26.244165, Alt.=144.627075m. Speed=21.167999m/h.</desc>
<speed>5.880000</speed>
</trkpt>
<trkpt lat="55.738407" lon="26.244116">
<ele>144.310669</ele>
<time>2010-07-17T11:54:19Z</time>
<desc>lat.=55.738407, lon.=26.244116, Alt.=144.310669m. Speed=23.976000m/h.</desc>
<speed>6.660000</speed>
</trkpt>
<trkpt lat="55.738468" lon="26.244053">
<ele>144.271606</ele>
<time>2010-07-17T11:54:20Z</time>
<desc>lat.=55.738468, lon.=26.244053, Alt.=144.271606m. Speed=25.308001m/h.</desc>
<speed>7.030000</speed>
</trkpt>
<trkpt lat="55.738525" lon="26.243996">
<ele>144.295044</ele>
<time>2010-07-17T11:54:21Z</time>
<desc>lat.=55.738525, lon.=26.243996, Alt.=144.295044m. Speed=25.164000m/h.</desc>
<speed>6.990000</speed>
</trkpt>
<trkpt lat="55.738590" lon="26.243933">
<ele>144.509888</ele>
<time>2010-07-17T11:54:22Z</time>
<desc>lat.=55.738590, lon.=26.243933, Alt.=144.509888m. Speed=27.180000m/h.</desc>
<speed>7.550000</speed>
</trkpt>
<trkpt lat="55.738663" lon="26.243866">
<ele>144.838013</ele>
<time>2010-07-17T11:54:23Z</time>
<desc>lat.=55.738663, lon.=26.243866, Alt.=144.838013m. Speed=27.396000m/h.</desc>
<speed>7.610000</speed>
</trkpt>
<trkpt lat="55.738728" lon="26.243801">
<ele>145.181763</ele>
<time>2010-07-17T11:54:24Z</time>
<desc>lat.=55.738728, lon.=26.243801, Alt.=145.181763m. Speed=27.719999m/h.</desc>
<speed>7.700000</speed>
</trkpt>
<trkpt lat="55.738792" lon="26.243736">
<ele>145.396606</ele>
<time>2010-07-17T11:54:25Z</time>
<desc>lat.=55.738792, lon.=26.243736, Alt.=145.396606m. Speed=28.620001m/h.</desc>
<speed>7.950000</speed>
</trkpt>
<trkpt lat="55.738857" lon="26.243668">
<ele>145.146606</ele>
<time>2010-07-17T11:54:26Z</time>
<desc>lat.=55.738857, lon.=26.243668, Alt.=145.146606m. Speed=28.944000m/h.</desc>
<speed>8.040000</speed>
</trkpt>
<trkpt lat="55.738922" lon="26.243601">
<ele>144.959106</ele>
<time>2010-07-17T11:54:27Z</time>
<desc>lat.=55.738922, lon.=26.243601, Alt.=144.959106m. Speed=28.115999m/h.</desc>
<speed>7.810000</speed>
</trkpt>
<trkpt lat="55.738987" lon="26.243532">
<ele>144.857544</ele>
<time>2010-07-17T11:54:28Z</time>
<desc>lat.=55.738987, lon.=26.243532, Alt.=144.857544m. Speed=28.799999m/h.</desc>
<speed>8.000000</speed>
</trkpt>
<trkpt lat="55.739052" lon="26.243460">
<ele>145.099731</ele>
<time>2010-07-17T11:54:29Z</time>
<desc>lat.=55.739052, lon.=26.243460, Alt.=145.099731m. Speed=28.620001m/h.</desc>
<speed>7.950000</speed>
</trkpt>
<trkpt lat="55.739117" lon="26.243391">
<ele>144.982544</ele>
<time>2010-07-17T11:54:30Z</time>
<desc>lat.=55.739117, lon.=26.243391, Alt.=144.982544m. Speed=29.879999m/h.</desc>
<speed>8.300000</speed>
</trkpt>
<trkpt lat="55.739185" lon="26.243317">
<ele>145.189575</ele>
<time>2010-07-17T11:54:31Z</time>
<desc>lat.=55.739185, lon.=26.243317, Alt.=145.189575m. Speed=30.384001m/h.</desc>
<speed>8.440000</speed>
</trkpt>
<trkpt lat="55.739254" lon="26.243244">
<ele>144.759888</ele>
<time>2010-07-17T11:54:32Z</time>
<desc>lat.=55.739254, lon.=26.243244, Alt.=144.759888m. Speed=30.636000m/h.</desc>
<speed>8.510000</speed>
</trkpt>
<trkpt lat="55.739323" lon="26.243172">
<ele>144.420044</ele>
<time>2010-07-17T11:54:33Z</time>
<desc>lat.=55.739323, lon.=26.243172, Alt.=144.420044m. Speed=30.924000m/h.</desc>
<speed>8.590000</speed>
</trkpt>
<trkpt lat="55.739391" lon="26.243099">
<ele>144.228638</ele>
<time>2010-07-17T11:54:34Z</time>
<desc>lat.=55.739391, lon.=26.243099, Alt.=144.228638m. Speed=31.320000m/h.</desc>
<speed>8.700000</speed>
</trkpt>
<trkpt lat="55.739456" lon="26.243017">
<ele>144.041138</ele>
<time>2010-07-17T11:54:35Z</time>
<desc>lat.=55.739456, lon.=26.243017, Alt.=144.041138m. Speed=31.104000m/h.</desc>
<speed>8.640000</speed>
</trkpt>
<trkpt lat="55.739521" lon="26.242950">
<ele>143.966919</ele>
<time>2010-07-17T11:54:36Z</time>
<desc>lat.=55.739521, lon.=26.242950, Alt.=143.966919m. Speed=29.340000m/h.</desc>
<speed>8.150000</speed>
</trkpt>
<trkpt lat="55.739586" lon="26.242882">
<ele>143.912231</ele>
<time>2010-07-17T11:54:37Z</time>
<desc>lat.=55.739586, lon.=26.242882, Alt.=143.912231m. Speed=31.427999m/h.</desc>
<speed>8.730000</speed>
</trkpt>
<trkpt lat="55.739655" lon="26.242805">
<ele>143.658325</ele>
<time>2010-07-17T11:54:38Z</time>
<desc>lat.=55.739655, lon.=26.242805, Alt.=143.658325m. Speed=32.040001m/h.</desc>
<speed>8.900000</speed>
</trkpt>
<trkpt lat="55.739719" lon="26.242733">
<ele>143.490356</ele>
<time>2010-07-17T11:54:39Z</time>
<desc>lat.=55.739719, lon.=26.242733, Alt.=143.490356m. Speed=31.032000m/h.</desc>
<speed>8.620000</speed>
</trkpt>
<trkpt lat="55.739792" lon="26.242670">
<ele>142.677856</ele>
<time>2010-07-17T11:54:40Z</time>
<desc>lat.=55.739792, lon.=26.242670, Alt.=142.677856m. Speed=33.335999m/h.</desc>
<speed>9.260000</speed>
</trkpt>
<trkpt lat="55.739868" lon="26.242603">
<ele>142.111450</ele>
<time>2010-07-17T11:54:41Z</time>
<desc>lat.=55.739868, lon.=26.242603, Alt.=142.111450m. Speed=33.660000m/h.</desc>
<speed>9.350000</speed>
</trkpt>
<trkpt lat="55.739941" lon="26.242533">
<ele>141.900513</ele>
<time>2010-07-17T11:54:42Z</time>
<desc>lat.=55.739941, lon.=26.242533, Alt.=141.900513m. Speed=33.192001m/h.</desc>
<speed>9.220000</speed>
</trkpt>
<trkpt lat="55.740005" lon="26.242468">
<ele>141.232544</ele>
<time>2010-07-17T11:54:43Z</time>
<desc>lat.=55.740005, lon.=26.242468, Alt.=141.232544m. Speed=32.939999m/h.</desc>
<speed>9.150000</speed>
</trkpt>
<trkpt lat="55.740078" lon="26.242392">
<ele>141.048950</ele>
<time>2010-07-17T11:54:44Z</time>
<desc>lat.=55.740078, lon.=26.242392, Alt.=141.048950m. Speed=33.119999m/h.</desc>
<speed>9.200000</speed>
</trkpt>
<trkpt lat="55.740150" lon="26.242327">
<ele>140.162231</ele>
<time>2010-07-17T11:54:45Z</time>
<desc>lat.=55.740150, lon.=26.242327, Alt.=140.162231m. Speed=33.875999m/h.</desc>
<speed>9.410000</speed>
</trkpt>
<trkpt lat="55.740227" lon="26.242258">
<ele>139.830200</ele>
<time>2010-07-17T11:54:46Z</time>
<desc>lat.=55.740227, lon.=26.242258, Alt.=139.830200m. Speed=33.551998m/h.</desc>
<speed>9.319999</speed>
</trkpt>
<trkpt lat="55.740299" lon="26.242191">
<ele>139.646606</ele>
<time>2010-07-17T11:54:47Z</time>
<desc>lat.=55.740299, lon.=26.242191, Alt.=139.646606m. Speed=33.048000m/h.</desc>
<speed>9.180000</speed>
</trkpt>
<trkpt lat="55.740376" lon="26.242132">
<ele>139.427856</ele>
<time>2010-07-17T11:54:48Z</time>
<desc>lat.=55.740376, lon.=26.242132, Alt.=139.427856m. Speed=33.048000m/h.</desc>
<speed>9.180000</speed>
</trkpt>
<trkpt lat="55.740448" lon="26.242075">
<ele>140.080200</ele>
<time>2010-07-17T11:54:49Z</time>
<desc>lat.=55.740448, lon.=26.242075, Alt.=140.080200m. Speed=32.796001m/h.</desc>
<speed>9.110000</speed>
</trkpt>
<trkpt lat="55.740517" lon="26.242010">
<ele>139.521606</ele>
<time>2010-07-17T11:54:50Z</time>
<desc>lat.=55.740517, lon.=26.242010, Alt.=139.521606m. Speed=31.608000m/h.</desc>
<speed>8.780000</speed>
</trkpt>
<trkpt lat="55.740582" lon="26.241938">
<ele>138.728638</ele>
<time>2010-07-17T11:54:51Z</time>
<desc>lat.=55.740582, lon.=26.241938, Alt.=138.728638m. Speed=29.448000m/h.</desc>
<speed>8.180000</speed>
</trkpt>
<trkpt lat="55.740643" lon="26.241869">
<ele>138.533325</ele>
<time>2010-07-17T11:54:52Z</time>
<desc>lat.=55.740643, lon.=26.241869, Alt.=138.533325m. Speed=29.591999m/h.</desc>
<speed>8.220000</speed>
</trkpt>
<trkpt lat="55.740707" lon="26.241795">
<ele>138.338013</ele>
<time>2010-07-17T11:54:53Z</time>
<desc>lat.=55.740707, lon.=26.241795, Alt.=138.338013m. Speed=29.879999m/h.</desc>
<speed>8.300000</speed>
</trkpt>
<trkpt lat="55.740768" lon="26.241711">
<ele>138.736450</ele>
<time>2010-07-17T11:54:54Z</time>
<desc>lat.=55.740768, lon.=26.241711, Alt.=138.736450m. Speed=29.771999m/h.</desc>
<speed>8.270000</speed>
</trkpt>
<trkpt lat="55.740818" lon="26.241613">
<ele>138.388794</ele>
<time>2010-07-17T11:54:55Z</time>
<desc>lat.=55.740818, lon.=26.241613, Alt.=138.388794m. Speed=29.412001m/h.</desc>
<speed>8.170000</speed>
</trkpt>
<trkpt lat="55.740860" lon="26.241514">
<ele>138.599731</ele>
<time>2010-07-17T11:54:56Z</time>
<desc>lat.=55.740860, lon.=26.241514, Alt.=138.599731m. Speed=27.719999m/h.</desc>
<speed>7.700000</speed>
</trkpt>
<trkpt lat="55.740906" lon="26.241409">
<ele>139.537231</ele>
<time>2010-07-17T11:54:57Z</time>
<desc>lat.=55.740906, lon.=26.241409, Alt.=139.537231m. Speed=28.511999m/h.</desc>
<speed>7.920000</speed>
</trkpt>
<trkpt lat="55.740944" lon="26.241301">
<ele>139.701294</ele>
<time>2010-07-17T11:54:58Z</time>
<desc>lat.=55.740944, lon.=26.241301, Alt.=139.701294m. Speed=27.719999m/h.</desc>
<speed>7.700000</speed>
</trkpt>
<trkpt lat="55.740978" lon="26.241199">
<ele>139.982544</ele>
<time>2010-07-17T11:54:59Z</time>
<desc>lat.=55.740978, lon.=26.241199, Alt.=139.982544m. Speed=26.964001m/h.</desc>
<speed>7.490000</speed>
</trkpt>
<trkpt lat="55.741009" lon="26.241093">
<ele>140.513794</ele>
<time>2010-07-17T11:55:00Z</time>
<desc>lat.=55.741009, lon.=26.241093, Alt.=140.513794m. Speed=26.280001m/h.</desc>
<speed>7.300000</speed>
</trkpt>
<trkpt lat="55.741043" lon="26.240993">
<ele>140.775513</ele>
<time>2010-07-17T11:55:01Z</time>
<desc>lat.=55.741043, lon.=26.240993, Alt.=140.775513m. Speed=25.559999m/h.</desc>
<speed>7.100000</speed>
</trkpt>
<trkpt lat="55.741070" lon="26.240894">
<ele>140.904419</ele>
<time>2010-07-17T11:55:02Z</time>
<desc>lat.=55.741070, lon.=26.240894, Alt.=140.904419m. Speed=25.559999m/h.</desc>
<speed>7.100000</speed>
</trkpt>
<trkpt lat="55.741100" lon="26.240799">
<ele>140.767700</ele>
<time>2010-07-17T11:55:03Z</time>
<desc>lat.=55.741100, lon.=26.240799, Alt.=140.767700m. Speed=24.948000m/h.</desc>
<speed>6.930000</speed>
</trkpt>
<trkpt lat="55.741131" lon="26.240700">
<ele>140.931763</ele>
<time>2010-07-17T11:55:04Z</time>
<desc>lat.=55.741131, lon.=26.240700, Alt.=140.931763m. Speed=25.128000m/h.</desc>
<speed>6.980000</speed>
</trkpt>
<trkpt lat="55.741161" lon="26.240604">
<ele>140.771606</ele>
<time>2010-07-17T11:55:05Z</time>
<desc>lat.=55.741161, lon.=26.240604, Alt.=140.771606m. Speed=24.156000m/h.</desc>
<speed>6.710000</speed>
</trkpt>
<trkpt lat="55.741196" lon="26.240513">
<ele>140.263794</ele>
<time>2010-07-17T11:55:06Z</time>
<desc>lat.=55.741196, lon.=26.240513, Alt.=140.263794m. Speed=24.264000m/h.</desc>
<speed>6.740000</speed>
</trkpt>
<trkpt lat="55.741222" lon="26.240417">
<ele>140.373169</ele>
<time>2010-07-17T11:55:07Z</time>
<desc>lat.=55.741222, lon.=26.240417, Alt.=140.373169m. Speed=24.048000m/h.</desc>
<speed>6.680000</speed>
</trkpt>
<trkpt lat="55.741249" lon="26.240320">
<ele>141.080200</ele>
<time>2010-07-17T11:55:08Z</time>
<desc>lat.=55.741249, lon.=26.240320, Alt.=141.080200m. Speed=23.544001m/h.</desc>
<speed>6.540000</speed>
</trkpt>
<trkpt lat="55.741276" lon="26.240225">
<ele>141.486450</ele>
<time>2010-07-17T11:55:09Z</time>
<desc>lat.=55.741276, lon.=26.240225, Alt.=141.486450m. Speed=24.120001m/h.</desc>
<speed>6.700000</speed>
</trkpt>
<trkpt lat="55.741306" lon="26.240158">
<ele>140.099731</ele>
<time>2010-07-17T11:55:10Z</time>
<desc>lat.=55.741306, lon.=26.240158, Alt.=140.099731m. Speed=22.068001m/h.</desc>
<speed>6.130000</speed>
</trkpt>
<trkpt lat="55.741337" lon="26.240070">
<ele>140.459106</ele>
<time>2010-07-17T11:55:11Z</time>
<desc>lat.=55.741337, lon.=26.240070, Alt.=140.459106m. Speed=22.284000m/h.</desc>
<speed>6.190000</speed>
</trkpt>
<trkpt lat="55.741364" lon="26.239988">
<ele>140.732544</ele>
<time>2010-07-17T11:55:12Z</time>
<desc>lat.=55.741364, lon.=26.239988, Alt.=140.732544m. Speed=21.204000m/h.</desc>
<speed>5.890000</speed>
</trkpt>
<trkpt lat="55.741390" lon="26.239902">
<ele>141.084106</ele>
<time>2010-07-17T11:55:13Z</time>
<desc>lat.=55.741390, lon.=26.239902, Alt.=141.084106m. Speed=22.068001m/h.</desc>
<speed>6.130000</speed>
</trkpt>
<trkpt lat="55.741421" lon="26.239820">
<ele>140.978638</ele>
<time>2010-07-17T11:55:14Z</time>
<desc>lat.=55.741421, lon.=26.239820, Alt.=140.978638m. Speed=21.348000m/h.</desc>
<speed>5.930000</speed>
</trkpt>
<trkpt lat="55.741451" lon="26.239735">
<ele>140.525513</ele>
<time>2010-07-17T11:55:15Z</time>
<desc>lat.=55.741451, lon.=26.239735, Alt.=140.525513m. Speed=22.535999m/h.</desc>
<speed>6.260000</speed>
</trkpt>
<trkpt lat="55.741482" lon="26.239647">
<ele>140.509888</ele>
<time>2010-07-17T11:55:16Z</time>
<desc>lat.=55.741482, lon.=26.239647, Alt.=140.509888m. Speed=21.924000m/h.</desc>
<speed>6.090000</speed>
</trkpt>
<trkpt lat="55.741508" lon="26.239559">
<ele>140.880981</ele>
<time>2010-07-17T11:55:17Z</time>
<desc>lat.=55.741508, lon.=26.239559, Alt.=140.880981m. Speed=22.284000m/h.</desc>
<speed>6.190000</speed>
</trkpt>
<trkpt lat="55.741539" lon="26.239473">
<ele>141.119263</ele>
<time>2010-07-17T11:55:18Z</time>
<desc>lat.=55.741539, lon.=26.239473, Alt.=141.119263m. Speed=21.851999m/h.</desc>
<speed>6.070000</speed>
</trkpt>
<trkpt lat="55.741566" lon="26.239386">
<ele>141.009888</ele>
<time>2010-07-17T11:55:19Z</time>
<desc>lat.=55.741566, lon.=26.239386, Alt.=141.009888m. Speed=22.464001m/h.</desc>
<speed>6.240000</speed>
</trkpt>
<trkpt lat="55.741596" lon="26.239298">
<ele>141.123169</ele>
<time>2010-07-17T11:55:20Z</time>
<desc>lat.=55.741596, lon.=26.239298, Alt.=141.123169m. Speed=22.823999m/h.</desc>
<speed>6.340000</speed>
</trkpt>
<trkpt lat="55.741627" lon="26.239216">
<ele>141.330200</ele>
<time>2010-07-17T11:55:21Z</time>
<desc>lat.=55.741627, lon.=26.239216, Alt.=141.330200m. Speed=22.680000m/h.</desc>
<speed>6.300000</speed>
</trkpt>
<trkpt lat="55.741653" lon="26.239126">
<ele>141.642700</ele>
<time>2010-07-17T11:55:22Z</time>
<desc>lat.=55.741653, lon.=26.239126, Alt.=141.642700m. Speed=22.176001m/h.</desc>
<speed>6.160000</speed>
</trkpt>
<trkpt lat="55.741680" lon="26.239044">
<ele>141.502075</ele>
<time>2010-07-17T11:55:23Z</time>
<desc>lat.=55.741680, lon.=26.239044, Alt.=141.502075m. Speed=21.672001m/h.</desc>
<speed>6.020000</speed>
</trkpt>
<trkpt lat="55.741711" lon="26.238974">
<ele>141.568481</ele>
<time>2010-07-17T11:55:24Z</time>
<desc>lat.=55.741711, lon.=26.238974, Alt.=141.568481m. Speed=21.384001m/h.</desc>
<speed>5.940000</speed>
</trkpt>
<trkpt lat="55.741737" lon="26.238892">
<ele>141.420044</ele>
<time>2010-07-17T11:55:25Z</time>
<desc>lat.=55.741737, lon.=26.238892, Alt.=141.420044m. Speed=23.292000m/h.</desc>
<speed>6.470000</speed>
</trkpt>
<trkpt lat="55.741772" lon="26.238806">
<ele>140.908325</ele>
<time>2010-07-17T11:55:26Z</time>
<desc>lat.=55.741772, lon.=26.238806, Alt.=140.908325m. Speed=23.256001m/h.</desc>
<speed>6.460000</speed>
</trkpt>
<trkpt lat="55.741798" lon="26.238720">
<ele>140.783325</ele>
<time>2010-07-17T11:55:27Z</time>
<desc>lat.=55.741798, lon.=26.238720, Alt.=140.783325m. Speed=22.427999m/h.</desc>
<speed>6.230000</speed>
</trkpt>
<trkpt lat="55.741829" lon="26.238625">
<ele>140.830200</ele>
<time>2010-07-17T11:55:28Z</time>
<desc>lat.=55.741829, lon.=26.238625, Alt.=140.830200m. Speed=23.652000m/h.</desc>
<speed>6.570000</speed>
</trkpt>
<trkpt lat="55.741863" lon="26.238537">
<ele>140.642700</ele>
<time>2010-07-17T11:55:29Z</time>
<desc>lat.=55.741863, lon.=26.238537, Alt.=140.642700m. Speed=23.472000m/h.</desc>
<speed>6.520000</speed>
</trkpt>
<trkpt lat="55.741894" lon="26.238443">
<ele>141.021606</ele>
<time>2010-07-17T11:55:30Z</time>
<desc>lat.=55.741894, lon.=26.238443, Alt.=141.021606m. Speed=23.436001m/h.</desc>
<speed>6.510000</speed>
</trkpt>
<trkpt lat="55.741924" lon="26.238354">
<ele>140.990356</ele>
<time>2010-07-17T11:55:31Z</time>
<desc>lat.=55.741924, lon.=26.238354, Alt.=140.990356m. Speed=23.436001m/h.</desc>
<speed>6.510000</speed>
</trkpt>
<trkpt lat="55.741955" lon="26.238264">
<ele>140.951294</ele>
<time>2010-07-17T11:55:32Z</time>
<desc>lat.=55.741955, lon.=26.238264, Alt.=140.951294m. Speed=23.472000m/h.</desc>
<speed>6.520000</speed>
</trkpt>
<trkpt lat="55.741982" lon="26.238169">
<ele>141.298950</ele>
<time>2010-07-17T11:55:33Z</time>
<desc>lat.=55.741982, lon.=26.238169, Alt.=141.298950m. Speed=23.400000m/h.</desc>
<speed>6.500000</speed>
</trkpt>
<trkpt lat="55.742020" lon="26.238070">
<ele>142.388794</ele>
<time>2010-07-17T11:55:34Z</time>
<desc>lat.=55.742020, lon.=26.238070, Alt.=142.388794m. Speed=23.832001m/h.</desc>
<speed>6.620000</speed>
</trkpt>
<trkpt lat="55.742050" lon="26.237986">
<ele>142.170044</ele>
<time>2010-07-17T11:55:35Z</time>
<desc>lat.=55.742050, lon.=26.237986, Alt.=142.170044m. Speed=24.336000m/h.</desc>
<speed>6.760000</speed>
</trkpt>
<trkpt lat="55.742081" lon="26.237886">
<ele>142.380981</ele>
<time>2010-07-17T11:55:36Z</time>
<desc>lat.=55.742081, lon.=26.237886, Alt.=142.380981m. Speed=25.452000m/h.</desc>
<speed>7.070000</speed>
</trkpt>
<trkpt lat="55.742111" lon="26.237791">
<ele>142.584106</ele>
<time>2010-07-17T11:55:37Z</time>
<desc>lat.=55.742111, lon.=26.237791, Alt.=142.584106m. Speed=26.496000m/h.</desc>
<speed>7.360000</speed>
</trkpt>
<trkpt lat="55.742149" lon="26.237690">
<ele>142.666138</ele>
<time>2010-07-17T11:55:38Z</time>
<desc>lat.=55.742149, lon.=26.237690, Alt.=142.666138m. Speed=27.972000m/h.</desc>
<speed>7.770000</speed>
</trkpt>
<trkpt lat="55.742191" lon="26.237591">
<ele>142.982544</ele>
<time>2010-07-17T11:55:39Z</time>
<desc>lat.=55.742191, lon.=26.237591, Alt.=142.982544m. Speed=26.316000m/h.</desc>
<speed>7.310000</speed>
</trkpt>
<trkpt lat="55.742226" lon="26.237497">
<ele>142.900513</ele>
<time>2010-07-17T11:55:40Z</time>
<desc>lat.=55.742226, lon.=26.237497, Alt.=142.900513m. Speed=26.459999m/h.</desc>
<speed>7.350000</speed>
</trkpt>
<trkpt lat="55.742260" lon="26.237394">
<ele>142.935669</ele>
<time>2010-07-17T11:55:41Z</time>
<desc>lat.=55.742260, lon.=26.237394, Alt.=142.935669m. Speed=26.927999m/h.</desc>
<speed>7.480000</speed>
</trkpt>
<trkpt lat="55.742294" lon="26.237286">
<ele>142.521606</ele>
<time>2010-07-17T11:55:42Z</time>
<desc>lat.=55.742294, lon.=26.237286, Alt.=142.521606m. Speed=28.368000m/h.</desc>
<speed>7.880000</speed>
</trkpt>
<trkpt lat="55.742329" lon="26.237186">
<ele>142.111450</ele>
<time>2010-07-17T11:55:43Z</time>
<desc>lat.=55.742329, lon.=26.237186, Alt.=142.111450m. Speed=26.639999m/h.</desc>
<speed>7.400000</speed>
</trkpt>
<trkpt lat="55.742363" lon="26.237089">
<ele>141.947388</ele>
<time>2010-07-17T11:55:44Z</time>
<desc>lat.=55.742363, lon.=26.237089, Alt.=141.947388m. Speed=26.676001m/h.</desc>
<speed>7.410000</speed>
</trkpt>
<trkpt lat="55.742397" lon="26.236994">
<ele>142.611450</ele>
<time>2010-07-17T11:55:45Z</time>
<desc>lat.=55.742397, lon.=26.236994, Alt.=142.611450m. Speed=24.336000m/h.</desc>
<speed>6.760000</speed>
</trkpt>
<trkpt lat="55.742432" lon="26.236900">
<ele>142.896606</ele>
<time>2010-07-17T11:55:46Z</time>
<desc>lat.=55.742432, lon.=26.236900, Alt.=142.896606m. Speed=25.416000m/h.</desc>
<speed>7.060000</speed>
</trkpt>
<trkpt lat="55.742466" lon="26.236807">
<ele>142.951294</ele>
<time>2010-07-17T11:55:47Z</time>
<desc>lat.=55.742466, lon.=26.236807, Alt.=142.951294m. Speed=25.056000m/h.</desc>
<speed>6.960000</speed>
</trkpt>
<trkpt lat="55.742500" lon="26.236712">
<ele>142.982544</ele>
<time>2010-07-17T11:55:48Z</time>
<desc>lat.=55.742500, lon.=26.236712, Alt.=142.982544m. Speed=25.884001m/h.</desc>
<speed>7.190000</speed>
</trkpt>
<trkpt lat="55.742531" lon="26.236618">
<ele>142.947388</ele>
<time>2010-07-17T11:55:49Z</time>
<desc>lat.=55.742531, lon.=26.236618, Alt.=142.947388m. Speed=24.156000m/h.</desc>
<speed>6.710000</speed>
</trkpt>
<trkpt lat="55.742558" lon="26.236525">
<ele>142.103638</ele>
<time>2010-07-17T11:55:50Z</time>
<desc>lat.=55.742558, lon.=26.236525, Alt.=142.103638m. Speed=26.063999m/h.</desc>
<speed>7.240000</speed>
</trkpt>
<trkpt lat="55.742599" lon="26.236435">
<ele>142.240356</ele>
<time>2010-07-17T11:55:51Z</time>
<desc>lat.=55.742599, lon.=26.236435, Alt.=142.240356m. Speed=24.264000m/h.</desc>
<speed>6.740000</speed>
</trkpt>
<trkpt lat="55.742634" lon="26.236345">
<ele>142.529419</ele>
<time>2010-07-17T11:55:52Z</time>
<desc>lat.=55.742634, lon.=26.236345, Alt.=142.529419m. Speed=24.516001m/h.</desc>
<speed>6.810000</speed>
</trkpt>
<trkpt lat="55.742672" lon="26.236252">
<ele>142.705200</ele>
<time>2010-07-17T11:55:53Z</time>
<desc>lat.=55.742672, lon.=26.236252, Alt.=142.705200m. Speed=24.948000m/h.</desc>
<speed>6.930000</speed>
</trkpt>
<trkpt lat="55.742710" lon="26.236156">
<ele>142.548950</ele>
<time>2010-07-17T11:55:54Z</time>
<desc>lat.=55.742710, lon.=26.236156, Alt.=142.548950m. Speed=26.639999m/h.</desc>
<speed>7.400000</speed>
</trkpt>
<trkpt lat="55.742748" lon="26.236063">
<ele>142.834106</ele>
<time>2010-07-17T11:55:55Z</time>
<desc>lat.=55.742748, lon.=26.236063, Alt.=142.834106m. Speed=24.660000m/h.</desc>
<speed>6.850000</speed>
</trkpt>
<trkpt lat="55.742786" lon="26.235971">
<ele>142.912231</ele>
<time>2010-07-17T11:55:56Z</time>
<desc>lat.=55.742786, lon.=26.235971, Alt.=142.912231m. Speed=23.652000m/h.</desc>
<speed>6.570000</speed>
</trkpt>
<trkpt lat="55.742821" lon="26.235882">
<ele>143.384888</ele>
<time>2010-07-17T11:55:57Z</time>
<desc>lat.=55.742821, lon.=26.235882, Alt.=143.384888m. Speed=24.660000m/h.</desc>
<speed>6.850000</speed>
</trkpt>
<trkpt lat="55.742851" lon="26.235796">
<ele>143.259888</ele>
<time>2010-07-17T11:55:58Z</time>
<desc>lat.=55.742851, lon.=26.235796, Alt.=143.259888m. Speed=23.219999m/h.</desc>
<speed>6.450000</speed>
</trkpt>
<trkpt lat="55.742882" lon="26.235714">
<ele>142.759888</ele>
<time>2010-07-17T11:55:59Z</time>
<desc>lat.=55.742882, lon.=26.235714, Alt.=142.759888m. Speed=23.184000m/h.</desc>
<speed>6.440000</speed>
</trkpt>
<trkpt lat="55.742916" lon="26.235636">
<ele>142.404419</ele>
<time>2010-07-17T11:56:00Z</time>
<desc>lat.=55.742916, lon.=26.235636, Alt.=142.404419m. Speed=23.219999m/h.</desc>
<speed>6.450000</speed>
</trkpt>
<trkpt lat="55.742950" lon="26.235561">
<ele>141.892700</ele>
<time>2010-07-17T11:56:01Z</time>
<desc>lat.=55.742950, lon.=26.235561, Alt.=141.892700m. Speed=22.500000m/h.</desc>
<speed>6.250000</speed>
</trkpt>
<trkpt lat="55.742989" lon="26.235481">
<ele>141.931763</ele>
<time>2010-07-17T11:56:02Z</time>
<desc>lat.=55.742989, lon.=26.235481, Alt.=141.931763m. Speed=23.472000m/h.</desc>
<speed>6.520000</speed>
</trkpt>
<trkpt lat="55.743031" lon="26.235397">
<ele>142.326294</ele>
<time>2010-07-17T11:56:03Z</time>
<desc>lat.=55.743031, lon.=26.235397, Alt.=142.326294m. Speed=23.940001m/h.</desc>
<speed>6.650000</speed>
</trkpt>
<trkpt lat="55.743065" lon="26.235310">
<ele>142.443481</ele>
<time>2010-07-17T11:56:04Z</time>
<desc>lat.=55.743065, lon.=26.235310, Alt.=142.443481m. Speed=24.264000m/h.</desc>
<speed>6.740000</speed>
</trkpt>
<trkpt lat="55.743107" lon="26.235218">
<ele>142.314575</ele>
<time>2010-07-17T11:56:05Z</time>
<desc>lat.=55.743107, lon.=26.235218, Alt.=142.314575m. Speed=24.336000m/h.</desc>
<speed>6.760000</speed>
</trkpt>
<trkpt lat="55.743149" lon="26.235132">
<ele>142.345825</ele>
<time>2010-07-17T11:56:06Z</time>
<desc>lat.=55.743149, lon.=26.235132, Alt.=142.345825m. Speed=24.587999m/h.</desc>
<speed>6.830000</speed>
</trkpt>
<trkpt lat="55.743183" lon="26.235044">
<ele>142.431763</ele>
<time>2010-07-17T11:56:07Z</time>
<desc>lat.=55.743183, lon.=26.235044, Alt.=142.431763m. Speed=24.983999m/h.</desc>
<speed>6.940000</speed>
</trkpt>
<trkpt lat="55.743217" lon="26.234955">
<ele>142.627075</ele>
<time>2010-07-17T11:56:08Z</time>
<desc>lat.=55.743217, lon.=26.234955, Alt.=142.627075m. Speed=24.587999m/h.</desc>
<speed>6.830000</speed>
</trkpt>
<trkpt lat="55.743256" lon="26.234867">
<ele>142.822388</ele>
<time>2010-07-17T11:56:09Z</time>
<desc>lat.=55.743256, lon.=26.234867, Alt.=142.822388m. Speed=23.940001m/h.</desc>
<speed>6.650000</speed>
</trkpt>
<trkpt lat="55.743290" lon="26.234781">
<ele>142.759888</ele>
<time>2010-07-17T11:56:10Z</time>
<desc>lat.=55.743290, lon.=26.234781, Alt.=142.759888m. Speed=24.480000m/h.</desc>
<speed>6.800000</speed>
</trkpt>
<trkpt lat="55.743328" lon="26.234697">
<ele>142.982544</ele>
<time>2010-07-17T11:56:11Z</time>
<desc>lat.=55.743328, lon.=26.234697, Alt.=142.982544m. Speed=24.048000m/h.</desc>
<speed>6.680000</speed>
</trkpt>
<trkpt lat="55.743366" lon="26.234612">
<ele>143.130981</ele>
<time>2010-07-17T11:56:12Z</time>
<desc>lat.=55.743366, lon.=26.234612, Alt.=143.130981m. Speed=24.552000m/h.</desc>
<speed>6.820000</speed>
</trkpt>
<trkpt lat="55.743412" lon="26.234539">
<ele>143.103638</ele>
<time>2010-07-17T11:56:13Z</time>
<desc>lat.=55.743412, lon.=26.234539, Alt.=143.103638m. Speed=24.336000m/h.</desc>
<speed>6.760000</speed>
</trkpt>
<trkpt lat="55.743450" lon="26.234467">
<ele>143.048950</ele>
<time>2010-07-17T11:56:14Z</time>
<desc>lat.=55.743450, lon.=26.234467, Alt.=143.048950m. Speed=21.528000m/h.</desc>
<speed>5.980000</speed>
</trkpt>
<trkpt lat="55.743488" lon="26.234392">
<ele>142.658325</ele>
<time>2010-07-17T11:56:15Z</time>
<desc>lat.=55.743488, lon.=26.234392, Alt.=142.658325m. Speed=21.240000m/h.</desc>
<speed>5.900000</speed>
</trkpt>
<trkpt lat="55.743526" lon="26.234331">
<ele>142.627075</ele>
<time>2010-07-17T11:56:16Z</time>
<desc>lat.=55.743526, lon.=26.234331, Alt.=142.627075m. Speed=19.476000m/h.</desc>
<speed>5.410000</speed>
</trkpt>
<trkpt lat="55.743557" lon="26.234276">
<ele>142.755981</ele>
<time>2010-07-17T11:56:17Z</time>
<desc>lat.=55.743557, lon.=26.234276, Alt.=142.755981m. Speed=17.639999m/h.</desc>
<speed>4.900000</speed>
</trkpt>
<trkpt lat="55.743580" lon="26.234222">
<ele>141.986450</ele>
<time>2010-07-17T11:56:18Z</time>
<desc>lat.=55.743580, lon.=26.234222, Alt.=141.986450m. Speed=16.848000m/h.</desc>
<speed>4.680000</speed>
</trkpt>
<trkpt lat="55.743607" lon="26.234169">
<ele>141.509888</ele>
<time>2010-07-17T11:56:19Z</time>
<desc>lat.=55.743607, lon.=26.234169, Alt.=141.509888m. Speed=16.632000m/h.</desc>
<speed>4.620000</speed>
</trkpt>
<trkpt lat="55.743633" lon="26.234119">
<ele>141.068481</ele>
<time>2010-07-17T11:56:20Z</time>
<desc>lat.=55.743633, lon.=26.234119, Alt.=141.068481m. Speed=16.416000m/h.</desc>
<speed>4.560000</speed>
</trkpt>
<trkpt lat="55.743671" lon="26.234076">
<ele>140.806763</ele>
<time>2010-07-17T11:56:21Z</time>
<desc>lat.=55.743671, lon.=26.234076, Alt.=140.806763m. Speed=15.660000m/h.</desc>
<speed>4.350000</speed>
</trkpt>
<trkpt lat="55.743702" lon="26.234037">
<ele>140.869263</ele>
<time>2010-07-17T11:56:22Z</time>
<desc>lat.=55.743702, lon.=26.234037, Alt.=140.869263m. Speed=15.012000m/h.</desc>
<speed>4.170000</speed>
</trkpt>
<trkpt lat="55.743736" lon="26.234003">
<ele>140.771606</ele>
<time>2010-07-17T11:56:23Z</time>
<desc>lat.=55.743736, lon.=26.234003, Alt.=140.771606m. Speed=16.020000m/h.</desc>
<speed>4.450000</speed>
</trkpt>
<trkpt lat="55.743774" lon="26.233969">
<ele>140.634888</ele>
<time>2010-07-17T11:56:24Z</time>
<desc>lat.=55.743774, lon.=26.233969, Alt.=140.634888m. Speed=15.768000m/h.</desc>
<speed>4.380000</speed>
</trkpt>
<trkpt lat="55.743805" lon="26.233936">
<ele>140.705200</ele>
<time>2010-07-17T11:56:25Z</time>
<desc>lat.=55.743805, lon.=26.233936, Alt.=140.705200m. Speed=16.488001m/h.</desc>
<speed>4.580000</speed>
</trkpt>
<trkpt lat="55.743839" lon="26.233898">
<ele>140.724731</ele>
<time>2010-07-17T11:56:26Z</time>
<desc>lat.=55.743839, lon.=26.233898, Alt.=140.724731m. Speed=17.243999m/h.</desc>
<speed>4.790000</speed>
</trkpt>
<trkpt lat="55.743877" lon="26.233864">
<ele>140.576294</ele>
<time>2010-07-17T11:56:27Z</time>
<desc>lat.=55.743877, lon.=26.233864, Alt.=140.576294m. Speed=17.424000m/h.</desc>
<speed>4.840000</speed>
</trkpt>
<trkpt lat="55.743916" lon="26.233833">
<ele>140.658325</ele>
<time>2010-07-17T11:56:28Z</time>
<desc>lat.=55.743916, lon.=26.233833, Alt.=140.658325m. Speed=17.459999m/h.</desc>
<speed>4.850000</speed>
</trkpt>
<trkpt lat="55.743958" lon="26.233793">
<ele>140.533325</ele>
<time>2010-07-17T11:56:29Z</time>
<desc>lat.=55.743958, lon.=26.233793, Alt.=140.533325m. Speed=18.504000m/h.</desc>
<speed>5.140000</speed>
</trkpt>
<trkpt lat="55.743999" lon="26.233751">
<ele>140.713013</ele>
<time>2010-07-17T11:56:30Z</time>
<desc>lat.=55.743999, lon.=26.233751, Alt.=140.713013m. Speed=19.368000m/h.</desc>
<speed>5.380000</speed>
</trkpt>
<trkpt lat="55.744045" lon="26.233706">
<ele>140.584106</ele>
<time>2010-07-17T11:56:31Z</time>
<desc>lat.=55.744045, lon.=26.233706, Alt.=140.584106m. Speed=20.268000m/h.</desc>
<speed>5.630000</speed>
</trkpt>
<trkpt lat="55.744083" lon="26.233660">
<ele>139.857544</ele>
<time>2010-07-17T11:56:32Z</time>
<desc>lat.=55.744083, lon.=26.233660, Alt.=139.857544m. Speed=20.556000m/h.</desc>
<speed>5.710000</speed>
</trkpt>
<trkpt lat="55.744129" lon="26.233622">
<ele>139.822388</ele>
<time>2010-07-17T11:56:33Z</time>
<desc>lat.=55.744129, lon.=26.233622, Alt.=139.822388m. Speed=21.167999m/h.</desc>
<speed>5.880000</speed>
</trkpt>
<trkpt lat="55.744179" lon="26.233576">
<ele>139.880981</ele>
<time>2010-07-17T11:56:34Z</time>
<desc>lat.=55.744179, lon.=26.233576, Alt.=139.880981m. Speed=22.068001m/h.</desc>
<speed>6.130000</speed>
</trkpt>
<trkpt lat="55.744228" lon="26.233522">
<ele>140.103638</ele>
<time>2010-07-17T11:56:35Z</time>
<desc>lat.=55.744228, lon.=26.233522, Alt.=140.103638m. Speed=21.888000m/h.</desc>
<speed>6.080000</speed>
</trkpt>
<trkpt lat="55.744274" lon="26.233471">
<ele>140.240356</ele>
<time>2010-07-17T11:56:36Z</time>
<desc>lat.=55.744274, lon.=26.233471, Alt.=140.240356m. Speed=23.507999m/h.</desc>
<speed>6.530000</speed>
</trkpt>
<trkpt lat="55.744331" lon="26.233423">
<ele>140.185669</ele>
<time>2010-07-17T11:56:37Z</time>
<desc>lat.=55.744331, lon.=26.233423, Alt.=140.185669m. Speed=24.552000m/h.</desc>
<speed>6.820000</speed>
</trkpt>
<trkpt lat="55.744385" lon="26.233374">
<ele>139.912231</ele>
<time>2010-07-17T11:56:38Z</time>
<desc>lat.=55.744385, lon.=26.233374, Alt.=139.912231m. Speed=25.164000m/h.</desc>
<speed>6.990000</speed>
</trkpt>
<trkpt lat="55.744434" lon="26.233318">
<ele>139.869263</ele>
<time>2010-07-17T11:56:39Z</time>
<desc>lat.=55.744434, lon.=26.233318, Alt.=139.869263m. Speed=26.028000m/h.</desc>
<speed>7.230000</speed>
</trkpt>
<trkpt lat="55.744499" lon="26.233261">
<ele>139.775513</ele>
<time>2010-07-17T11:56:40Z</time>
<desc>lat.=55.744499, lon.=26.233261, Alt.=139.775513m. Speed=26.568001m/h.</desc>
<speed>7.380000</speed>
</trkpt>
<trkpt lat="55.744556" lon="26.233208">
<ele>139.677856</ele>
<time>2010-07-17T11:56:41Z</time>
<desc>lat.=55.744556, lon.=26.233208, Alt.=139.677856m. Speed=26.639999m/h.</desc>
<speed>7.400000</speed>
</trkpt>
<trkpt lat="55.744617" lon="26.233154">
<ele>139.533325</ele>
<time>2010-07-17T11:56:42Z</time>
<desc>lat.=55.744617, lon.=26.233154, Alt.=139.533325m. Speed=26.424000m/h.</desc>
<speed>7.340000</speed>
</trkpt>
<trkpt lat="55.744678" lon="26.233101">
<ele>139.252075</ele>
<time>2010-07-17T11:56:43Z</time>
<desc>lat.=55.744678, lon.=26.233101, Alt.=139.252075m. Speed=26.568001m/h.</desc>
<speed>7.380000</speed>
</trkpt>
<trkpt lat="55.744736" lon="26.233047">
<ele>139.263794</ele>
<time>2010-07-17T11:56:44Z</time>
<desc>lat.=55.744736, lon.=26.233047, Alt.=139.263794m. Speed=26.172001m/h.</desc>
<speed>7.270000</speed>
</trkpt>
<trkpt lat="55.744793" lon="26.232992">
<ele>139.162231</ele>
<time>2010-07-17T11:56:45Z</time>
<desc>lat.=55.744793, lon.=26.232992, Alt.=139.162231m. Speed=25.992001m/h.</desc>
<speed>7.220000</speed>
</trkpt>
<trkpt lat="55.744850" lon="26.232937">
<ele>139.173950</ele>
<time>2010-07-17T11:56:46Z</time>
<desc>lat.=55.744850, lon.=26.232937, Alt.=139.173950m. Speed=25.775999m/h.</desc>
<speed>7.160000</speed>
</trkpt>
<trkpt lat="55.744907" lon="26.232883">
<ele>139.021606</ele>
<time>2010-07-17T11:56:47Z</time>
<desc>lat.=55.744907, lon.=26.232883, Alt.=139.021606m. Speed=25.164000m/h.</desc>
<speed>6.990000</speed>
</trkpt>
<trkpt lat="55.744961" lon="26.232832">
<ele>139.021606</ele>
<time>2010-07-17T11:56:48Z</time>
<desc>lat.=55.744961, lon.=26.232832, Alt.=139.021606m. Speed=24.732000m/h.</desc>
<speed>6.870000</speed>
</trkpt>
<trkpt lat="55.745014" lon="26.232784">
<ele>139.009888</ele>
<time>2010-07-17T11:56:49Z</time>
<desc>lat.=55.745014, lon.=26.232784, Alt.=139.009888m. Speed=24.372000m/h.</desc>
<speed>6.770000</speed>
</trkpt>
<trkpt lat="55.745071" lon="26.232738">
<ele>139.455200</ele>
<time>2010-07-17T11:56:50Z</time>
<desc>lat.=55.745071, lon.=26.232738, Alt.=139.455200m. Speed=25.452000m/h.</desc>
<speed>7.070000</speed>
</trkpt>
<trkpt lat="55.745129" lon="26.232679">
<ele>139.845825</ele>
<time>2010-07-17T11:56:51Z</time>
<desc>lat.=55.745129, lon.=26.232679, Alt.=139.845825m. Speed=24.768000m/h.</desc>
<speed>6.880000</speed>
</trkpt>
<trkpt lat="55.745182" lon="26.232624">
<ele>140.084106</ele>
<time>2010-07-17T11:56:52Z</time>
<desc>lat.=55.745182, lon.=26.232624, Alt.=140.084106m. Speed=24.804001m/h.</desc>
<speed>6.890000</speed>
</trkpt>
<trkpt lat="55.745239" lon="26.232567">
<ele>140.310669</ele>
<time>2010-07-17T11:56:53Z</time>
<desc>lat.=55.745239, lon.=26.232567, Alt.=140.310669m. Speed=25.236000m/h.</desc>
<speed>7.010000</speed>
</trkpt>
<trkpt lat="55.745293" lon="26.232513">
<ele>140.443481</ele>
<time>2010-07-17T11:56:54Z</time>
<desc>lat.=55.745293, lon.=26.232513, Alt.=140.443481m. Speed=25.848000m/h.</desc>
<speed>7.180000</speed>
</trkpt>
<trkpt lat="55.745350" lon="26.232458">
<ele>140.388794</ele>
<time>2010-07-17T11:56:55Z</time>
<desc>lat.=55.745350, lon.=26.232458, Alt.=140.388794m. Speed=26.100000m/h.</desc>
<speed>7.250000</speed>
</trkpt>
<trkpt lat="55.745411" lon="26.232405">
<ele>140.533325</ele>
<time>2010-07-17T11:56:56Z</time>
<desc>lat.=55.745411, lon.=26.232405, Alt.=140.533325m. Speed=26.280001m/h.</desc>
<speed>7.300000</speed>
</trkpt>
<trkpt lat="55.745464" lon="26.232353">
<ele>140.537231</ele>
<time>2010-07-17T11:56:57Z</time>
<desc>lat.=55.745464, lon.=26.232353, Alt.=140.537231m. Speed=26.351999m/h.</desc>
<speed>7.320000</speed>
</trkpt>
<trkpt lat="55.745525" lon="26.232298">
<ele>140.478638</ele>
<time>2010-07-17T11:56:58Z</time>
<desc>lat.=55.745525, lon.=26.232298, Alt.=140.478638m. Speed=26.136000m/h.</desc>
<speed>7.260000</speed>
</trkpt>
<trkpt lat="55.745583" lon="26.232241">
<ele>140.435669</ele>
<time>2010-07-17T11:56:59Z</time>
<desc>lat.=55.745583, lon.=26.232241, Alt.=140.435669m. Speed=26.136000m/h.</desc>
<speed>7.260000</speed>
</trkpt>
<trkpt lat="55.745640" lon="26.232187">
<ele>140.267700</ele>
<time>2010-07-17T11:57:00Z</time>
<desc>lat.=55.745640, lon.=26.232187, Alt.=140.267700m. Speed=26.532000m/h.</desc>
<speed>7.370000</speed>
</trkpt>
<trkpt lat="55.745701" lon="26.232132">
<ele>140.170044</ele>
<time>2010-07-17T11:57:01Z</time>
<desc>lat.=55.745701, lon.=26.232132, Alt.=140.170044m. Speed=26.568001m/h.</desc>
<speed>7.380000</speed>
</trkpt>
<trkpt lat="55.745758" lon="26.232077">
<ele>140.107544</ele>
<time>2010-07-17T11:57:02Z</time>
<desc>lat.=55.745758, lon.=26.232077, Alt.=140.107544m. Speed=26.532000m/h.</desc>
<speed>7.370000</speed>
</trkpt>
<trkpt lat="55.745815" lon="26.232023">
<ele>139.884888</ele>
<time>2010-07-17T11:57:03Z</time>
<desc>lat.=55.745815, lon.=26.232023, Alt.=139.884888m. Speed=26.208000m/h.</desc>
<speed>7.280000</speed>
</trkpt>
<trkpt lat="55.745876" lon="26.231970">
<ele>139.666138</ele>
<time>2010-07-17T11:57:04Z</time>
<desc>lat.=55.745876, lon.=26.231970, Alt.=139.666138m. Speed=26.351999m/h.</desc>
<speed>7.320000</speed>
</trkpt>
<trkpt lat="55.745937" lon="26.231915">
<ele>139.463013</ele>
<time>2010-07-17T11:57:05Z</time>
<desc>lat.=55.745937, lon.=26.231915, Alt.=139.463013m. Speed=26.676001m/h.</desc>
<speed>7.410000</speed>
</trkpt>
<trkpt lat="55.745998" lon="26.231857">
<ele>139.474731</ele>
<time>2010-07-17T11:57:06Z</time>
<desc>lat.=55.745998, lon.=26.231857, Alt.=139.474731m. Speed=27.000000m/h.</desc>
<speed>7.500000</speed>
</trkpt>
<trkpt lat="55.746056" lon="26.231804">
<ele>139.513794</ele>
<time>2010-07-17T11:57:07Z</time>
<desc>lat.=55.746056, lon.=26.231804, Alt.=139.513794m. Speed=27.072001m/h.</desc>
<speed>7.520000</speed>
</trkpt>
<trkpt lat="55.746117" lon="26.231747">
<ele>139.517700</ele>
<time>2010-07-17T11:57:08Z</time>
<desc>lat.=55.746117, lon.=26.231747, Alt.=139.517700m. Speed=27.143999m/h.</desc>
<speed>7.540000</speed>
</trkpt>
<trkpt lat="55.746178" lon="26.231689">
<ele>139.451294</ele>
<time>2010-07-17T11:57:09Z</time>
<desc>lat.=55.746178, lon.=26.231689, Alt.=139.451294m. Speed=27.360001m/h.</desc>
<speed>7.600000</speed>
</trkpt>
<trkpt lat="55.746235" lon="26.231630">
<ele>139.334106</ele>
<time>2010-07-17T11:57:10Z</time>
<desc>lat.=55.746235, lon.=26.231630, Alt.=139.334106m. Speed=27.540001m/h.</desc>
<speed>7.650000</speed>
</trkpt>
<trkpt lat="55.746296" lon="26.231575">
<ele>139.353638</ele>
<time>2010-07-17T11:57:11Z</time>
<desc>lat.=55.746296, lon.=26.231575, Alt.=139.353638m. Speed=27.684000m/h.</desc>
<speed>7.690000</speed>
</trkpt>
<trkpt lat="55.746361" lon="26.231522">
<ele>139.291138</ele>
<time>2010-07-17T11:57:12Z</time>
<desc>lat.=55.746361, lon.=26.231522, Alt.=139.291138m. Speed=27.900000m/h.</desc>
<speed>7.750000</speed>
</trkpt>
<trkpt lat="55.746422" lon="26.231462">
<ele>139.361450</ele>
<time>2010-07-17T11:57:13Z</time>
<desc>lat.=55.746422, lon.=26.231462, Alt.=139.361450m. Speed=28.115999m/h.</desc>
<speed>7.810000</speed>
</trkpt>
<trkpt lat="55.746483" lon="26.231405">
<ele>139.478638</ele>
<time>2010-07-17T11:57:14Z</time>
<desc>lat.=55.746483, lon.=26.231405, Alt.=139.478638m. Speed=28.044001m/h.</desc>
<speed>7.790000</speed>
</trkpt>
<trkpt lat="55.746548" lon="26.231342">
<ele>139.345825</ele>
<time>2010-07-17T11:57:15Z</time>
<desc>lat.=55.746548, lon.=26.231342, Alt.=139.345825m. Speed=28.115999m/h.</desc>
<speed>7.810000</speed>
</trkpt>
<trkpt lat="55.746609" lon="26.231285">
<ele>139.306763</ele>
<time>2010-07-17T11:57:16Z</time>
<desc>lat.=55.746609, lon.=26.231285, Alt.=139.306763m. Speed=28.007999m/h.</desc>
<speed>7.780000</speed>
</trkpt>
<trkpt lat="55.746670" lon="26.231228">
<ele>139.201294</ele>
<time>2010-07-17T11:57:17Z</time>
<desc>lat.=55.746670, lon.=26.231228, Alt.=139.201294m. Speed=27.756001m/h.</desc>
<speed>7.710000</speed>
</trkpt>
<trkpt lat="55.746731" lon="26.231167">
<ele>139.314575</ele>
<time>2010-07-17T11:57:18Z</time>
<desc>lat.=55.746731, lon.=26.231167, Alt.=139.314575m. Speed=27.827999m/h.</desc>
<speed>7.730000</speed>
</trkpt>
<trkpt lat="55.746792" lon="26.231108">
<ele>139.275513</ele>
<time>2010-07-17T11:57:19Z</time>
<desc>lat.=55.746792, lon.=26.231108, Alt.=139.275513m. Speed=27.756001m/h.</desc>
<speed>7.710000</speed>
</trkpt>
<trkpt lat="55.746853" lon="26.231050">
<ele>139.451294</ele>
<time>2010-07-17T11:57:20Z</time>
<desc>lat.=55.746853, lon.=26.231050, Alt.=139.451294m. Speed=27.900000m/h.</desc>
<speed>7.750000</speed>
</trkpt>
<trkpt lat="55.746914" lon="26.230995">
<ele>139.255981</ele>
<time>2010-07-17T11:57:21Z</time>
<desc>lat.=55.746914, lon.=26.230995, Alt.=139.255981m. Speed=28.440001m/h.</desc>
<speed>7.900000</speed>
</trkpt>
<trkpt lat="55.746975" lon="26.230936">
<ele>138.986450</ele>
<time>2010-07-17T11:57:22Z</time>
<desc>lat.=55.746975, lon.=26.230936, Alt.=138.986450m. Speed=28.980000m/h.</desc>
<speed>8.050000</speed>
</trkpt>
<trkpt lat="55.747040" lon="26.230873">
<ele>139.310669</ele>
<time>2010-07-17T11:57:23Z</time>
<desc>lat.=55.747040, lon.=26.230873, Alt.=139.310669m. Speed=29.700001m/h.</desc>
<speed>8.250000</speed>
</trkpt>
<trkpt lat="55.747105" lon="26.230812">
<ele>138.963013</ele>
<time>2010-07-17T11:57:24Z</time>
<desc>lat.=55.747105, lon.=26.230812, Alt.=138.963013m. Speed=29.628000m/h.</desc>
<speed>8.230000</speed>
</trkpt>
<trkpt lat="55.747169" lon="26.230749">
<ele>138.978638</ele>
<time>2010-07-17T11:57:25Z</time>
<desc>lat.=55.747169, lon.=26.230749, Alt.=138.978638m. Speed=29.556000m/h.</desc>
<speed>8.210000</speed>
</trkpt>
<trkpt lat="55.747234" lon="26.230686">
<ele>139.088013</ele>
<time>2010-07-17T11:57:26Z</time>
<desc>lat.=55.747234, lon.=26.230686, Alt.=139.088013m. Speed=29.412001m/h.</desc>
<speed>8.170000</speed>
</trkpt>
<trkpt lat="55.747299" lon="26.230625">
<ele>139.154419</ele>
<time>2010-07-17T11:57:27Z</time>
<desc>lat.=55.747299, lon.=26.230625, Alt.=139.154419m. Speed=28.944000m/h.</desc>
<speed>8.040000</speed>
</trkpt>
<trkpt lat="55.747364" lon="26.230568">
<ele>139.111450</ele>
<time>2010-07-17T11:57:28Z</time>
<desc>lat.=55.747364, lon.=26.230568, Alt.=139.111450m. Speed=27.792000m/h.</desc>
<speed>7.720000</speed>
</trkpt>
<trkpt lat="55.747421" lon="26.230513">
<ele>138.880981</ele>
<time>2010-07-17T11:57:29Z</time>
<desc>lat.=55.747421, lon.=26.230513, Alt.=138.880981m. Speed=26.856001m/h.</desc>
<speed>7.460000</speed>
</trkpt>
<trkpt lat="55.747482" lon="26.230453">
<ele>139.041138</ele>
<time>2010-07-17T11:57:30Z</time>
<desc>lat.=55.747482, lon.=26.230453, Alt.=139.041138m. Speed=27.035999m/h.</desc>
<speed>7.510000</speed>
</trkpt>
<trkpt lat="55.747540" lon="26.230400">
<ele>138.939575</ele>
<time>2010-07-17T11:57:31Z</time>
<desc>lat.=55.747540, lon.=26.230400, Alt.=138.939575m. Speed=27.323999m/h.</desc>
<speed>7.590000</speed>
</trkpt>
<trkpt lat="55.747601" lon="26.230339">
<ele>139.002075</ele>
<time>2010-07-17T11:57:32Z</time>
<desc>lat.=55.747601, lon.=26.230339, Alt.=139.002075m. Speed=27.576000m/h.</desc>
<speed>7.660000</speed>
</trkpt>
<trkpt lat="55.747662" lon="26.230284">
<ele>138.845825</ele>
<time>2010-07-17T11:57:33Z</time>
<desc>lat.=55.747662, lon.=26.230284, Alt.=138.845825m. Speed=28.080000m/h.</desc>
<speed>7.800000</speed>
</trkpt>
<trkpt lat="55.747723" lon="26.230225">
<ele>139.076294</ele>
<time>2010-07-17T11:57:34Z</time>
<desc>lat.=55.747723, lon.=26.230225, Alt.=139.076294m. Speed=27.504000m/h.</desc>
<speed>7.640000</speed>
</trkpt>
<trkpt lat="55.747784" lon="26.230167">
<ele>139.267700</ele>
<time>2010-07-17T11:57:35Z</time>
<desc>lat.=55.747784, lon.=26.230167, Alt.=139.267700m. Speed=28.080000m/h.</desc>
<speed>7.800000</speed>
</trkpt>
<trkpt lat="55.747845" lon="26.230112">
<ele>139.248169</ele>
<time>2010-07-17T11:57:36Z</time>
<desc>lat.=55.747845, lon.=26.230112, Alt.=139.248169m. Speed=28.872000m/h.</desc>
<speed>8.020000</speed>
</trkpt>
<trkpt lat="55.747910" lon="26.230055">
<ele>139.173950</ele>
<time>2010-07-17T11:57:37Z</time>
<desc>lat.=55.747910, lon.=26.230055, Alt.=139.173950m. Speed=28.799999m/h.</desc>
<speed>8.000000</speed>
</trkpt>
<trkpt lat="55.747974" lon="26.230000">
<ele>139.556763</ele>
<time>2010-07-17T11:57:38Z</time>
<desc>lat.=55.747974, lon.=26.230000, Alt.=139.556763m. Speed=29.628000m/h.</desc>
<speed>8.230000</speed>
</trkpt>
<trkpt lat="55.748039" lon="26.229942">
<ele>139.470825</ele>
<time>2010-07-17T11:57:39Z</time>
<desc>lat.=55.748039, lon.=26.229942, Alt.=139.470825m. Speed=29.195999m/h.</desc>
<speed>8.110000</speed>
</trkpt>
<trkpt lat="55.748104" lon="26.229887">
<ele>139.228638</ele>
<time>2010-07-17T11:57:40Z</time>
<desc>lat.=55.748104, lon.=26.229887, Alt.=139.228638m. Speed=29.016001m/h.</desc>
<speed>8.060000</speed>
</trkpt>
<trkpt lat="55.748169" lon="26.229826">
<ele>139.244263</ele>
<time>2010-07-17T11:57:41Z</time>
<desc>lat.=55.748169, lon.=26.229826, Alt.=139.244263m. Speed=29.340000m/h.</desc>
<speed>8.150000</speed>
</trkpt>
<trkpt lat="55.748234" lon="26.229767">
<ele>139.123169</ele>
<time>2010-07-17T11:57:42Z</time>
<desc>lat.=55.748234, lon.=26.229767, Alt.=139.123169m. Speed=29.879999m/h.</desc>
<speed>8.300000</speed>
</trkpt>
<trkpt lat="55.748302" lon="26.229704">
<ele>139.146606</ele>
<time>2010-07-17T11:57:43Z</time>
<desc>lat.=55.748302, lon.=26.229704, Alt.=139.146606m. Speed=30.096001m/h.</desc>
<speed>8.360000</speed>
</trkpt>
<trkpt lat="55.748367" lon="26.229643">
<ele>138.959106</ele>
<time>2010-07-17T11:57:44Z</time>
<desc>lat.=55.748367, lon.=26.229643, Alt.=138.959106m. Speed=29.736000m/h.</desc>
<speed>8.260000</speed>
</trkpt>
<trkpt lat="55.748432" lon="26.229580">
<ele>138.923950</ele>
<time>2010-07-17T11:57:45Z</time>
<desc>lat.=55.748432, lon.=26.229580, Alt.=138.923950m. Speed=29.916000m/h.</desc>
<speed>8.310000</speed>
</trkpt>
<trkpt lat="55.748497" lon="26.229517">
<ele>138.783325</ele>
<time>2010-07-17T11:57:46Z</time>
<desc>lat.=55.748497, lon.=26.229517, Alt.=138.783325m. Speed=29.808001m/h.</desc>
<speed>8.280000</speed>
</trkpt>
<trkpt lat="55.748562" lon="26.229456">
<ele>138.685669</ele>
<time>2010-07-17T11:57:47Z</time>
<desc>lat.=55.748562, lon.=26.229456, Alt.=138.685669m. Speed=29.771999m/h.</desc>
<speed>8.270000</speed>
</trkpt>
<trkpt lat="55.748627" lon="26.229391">
<ele>138.744263</ele>
<time>2010-07-17T11:57:48Z</time>
<desc>lat.=55.748627, lon.=26.229391, Alt.=138.744263m. Speed=29.916000m/h.</desc>
<speed>8.310000</speed>
</trkpt>
<trkpt lat="55.748692" lon="26.229330">
<ele>138.576294</ele>
<time>2010-07-17T11:57:49Z</time>
<desc>lat.=55.748692, lon.=26.229330, Alt.=138.576294m. Speed=29.879999m/h.</desc>
<speed>8.300000</speed>
</trkpt>
<trkpt lat="55.748756" lon="26.229269">
<ele>138.552856</ele>
<time>2010-07-17T11:57:50Z</time>
<desc>lat.=55.748756, lon.=26.229269, Alt.=138.552856m. Speed=29.448000m/h.</desc>
<speed>8.180000</speed>
</trkpt>
<trkpt lat="55.748817" lon="26.229208">
<ele>138.181763</ele>
<time>2010-07-17T11:57:51Z</time>
<desc>lat.=55.748817, lon.=26.229208, Alt.=138.181763m. Speed=29.016001m/h.</desc>
<speed>8.060000</speed>
</trkpt>
<trkpt lat="55.748882" lon="26.229145">
<ele>138.228638</ele>
<time>2010-07-17T11:57:52Z</time>
<desc>lat.=55.748882, lon.=26.229145, Alt.=138.228638m. Speed=28.728001m/h.</desc>
<speed>7.980000</speed>
</trkpt>
<trkpt lat="55.748947" lon="26.229088">
<ele>138.638794</ele>
<time>2010-07-17T11:57:53Z</time>
<desc>lat.=55.748947, lon.=26.229088, Alt.=138.638794m. Speed=28.764000m/h.</desc>
<speed>7.990000</speed>
</trkpt>
<trkpt lat="55.749012" lon="26.229029">
<ele>139.134888</ele>
<time>2010-07-17T11:57:54Z</time>
<desc>lat.=55.749012, lon.=26.229029, Alt.=139.134888m. Speed=28.403999m/h.</desc>
<speed>7.890000</speed>
</trkpt>
<trkpt lat="55.749073" lon="26.228970">
<ele>139.365356</ele>
<time>2010-07-17T11:57:55Z</time>
<desc>lat.=55.749073, lon.=26.228970, Alt.=139.365356m. Speed=27.827999m/h.</desc>
<speed>7.730000</speed>
</trkpt>
<trkpt lat="55.749138" lon="26.228914">
<ele>139.662231</ele>
<time>2010-07-17T11:57:56Z</time>
<desc>lat.=55.749138, lon.=26.228914, Alt.=139.662231m. Speed=27.756001m/h.</desc>
<speed>7.710000</speed>
</trkpt>
<trkpt lat="55.749195" lon="26.228863">
<ele>139.931763</ele>
<time>2010-07-17T11:57:57Z</time>
<desc>lat.=55.749195, lon.=26.228863, Alt.=139.931763m. Speed=27.216000m/h.</desc>
<speed>7.560000</speed>
</trkpt>
<trkpt lat="55.749252" lon="26.228804">
<ele>140.267700</ele>
<time>2010-07-17T11:57:58Z</time>
<desc>lat.=55.749252, lon.=26.228804, Alt.=140.267700m. Speed=27.000000m/h.</desc>
<speed>7.500000</speed>
</trkpt>
<trkpt lat="55.749310" lon="26.228745">
<ele>140.357544</ele>
<time>2010-07-17T11:57:59Z</time>
<desc>lat.=55.749310, lon.=26.228745, Alt.=140.357544m. Speed=26.424000m/h.</desc>
<speed>7.340000</speed>
</trkpt>
<trkpt lat="55.749367" lon="26.228691">
<ele>140.521606</ele>
<time>2010-07-17T11:58:00Z</time>
<desc>lat.=55.749367, lon.=26.228691, Alt.=140.521606m. Speed=26.063999m/h.</desc>
<speed>7.240000</speed>
</trkpt>
<trkpt lat="55.749424" lon="26.228634">
<ele>140.677856</ele>
<time>2010-07-17T11:58:01Z</time>
<desc>lat.=55.749424, lon.=26.228634, Alt.=140.677856m. Speed=26.063999m/h.</desc>
<speed>7.240000</speed>
</trkpt>
<trkpt lat="55.749481" lon="26.228579">
<ele>140.693481</ele>
<time>2010-07-17T11:58:02Z</time>
<desc>lat.=55.749481, lon.=26.228579, Alt.=140.693481m. Speed=25.775999m/h.</desc>
<speed>7.160000</speed>
</trkpt>
<trkpt lat="55.749538" lon="26.228529">
<ele>140.939575</ele>
<time>2010-07-17T11:58:03Z</time>
<desc>lat.=55.749538, lon.=26.228529, Alt.=140.939575m. Speed=25.379999m/h.</desc>
<speed>7.050000</speed>
</trkpt>
<trkpt lat="55.749596" lon="26.228476">
<ele>141.177856</ele>
<time>2010-07-17T11:58:04Z</time>
<desc>lat.=55.749596, lon.=26.228476, Alt.=141.177856m. Speed=25.416000m/h.</desc>
<speed>7.060000</speed>
</trkpt>
<trkpt lat="55.749649" lon="26.228424">
<ele>141.224731</ele>
<time>2010-07-17T11:58:05Z</time>
<desc>lat.=55.749649, lon.=26.228424, Alt.=141.224731m. Speed=25.056000m/h.</desc>
<speed>6.960000</speed>
</trkpt>
<trkpt lat="55.749706" lon="26.228367">
<ele>141.205200</ele>
<time>2010-07-17T11:58:06Z</time>
<desc>lat.=55.749706, lon.=26.228367, Alt.=141.205200m. Speed=25.091999m/h.</desc>
<speed>6.970000</speed>
</trkpt>
<trkpt lat="55.749760" lon="26.228312">
<ele>141.295044</ele>
<time>2010-07-17T11:58:07Z</time>
<desc>lat.=55.749760, lon.=26.228312, Alt.=141.295044m. Speed=25.056000m/h.</desc>
<speed>6.960000</speed>
</trkpt>
<trkpt lat="55.749817" lon="26.228264">
<ele>141.408325</ele>
<time>2010-07-17T11:58:08Z</time>
<desc>lat.=55.749817, lon.=26.228264, Alt.=141.408325m. Speed=24.804001m/h.</desc>
<speed>6.890000</speed>
</trkpt>
<trkpt lat="55.749874" lon="26.228214">
<ele>141.584106</ele>
<time>2010-07-17T11:58:09Z</time>
<desc>lat.=55.749874, lon.=26.228214, Alt.=141.584106m. Speed=24.156000m/h.</desc>
<speed>6.710000</speed>
</trkpt>
<trkpt lat="55.749928" lon="26.228167">
<ele>141.720825</ele>
<time>2010-07-17T11:58:10Z</time>
<desc>lat.=55.749928, lon.=26.228167, Alt.=141.720825m. Speed=23.004000m/h.</desc>
<speed>6.390000</speed>
</trkpt>
<trkpt lat="55.749977" lon="26.228115">
<ele>141.646606</ele>
<time>2010-07-17T11:58:11Z</time>
<desc>lat.=55.749977, lon.=26.228115, Alt.=141.646606m. Speed=22.896000m/h.</desc>
<speed>6.360000</speed>
</trkpt>
<trkpt lat="55.750027" lon="26.228067">
<ele>141.541138</ele>
<time>2010-07-17T11:58:12Z</time>
<desc>lat.=55.750027, lon.=26.228067, Alt.=141.541138m. Speed=22.643999m/h.</desc>
<speed>6.290000</speed>
</trkpt>
<trkpt lat="55.750080" lon="26.228024">
<ele>141.947388</ele>
<time>2010-07-17T11:58:13Z</time>
<desc>lat.=55.750080, lon.=26.228024, Alt.=141.947388m. Speed=23.040001m/h.</desc>
<speed>6.400000</speed>
</trkpt>
<trkpt lat="55.750130" lon="26.227978">
<ele>142.009888</ele>
<time>2010-07-17T11:58:14Z</time>
<desc>lat.=55.750130, lon.=26.227978, Alt.=142.009888m. Speed=23.256001m/h.</desc>
<speed>6.460000</speed>
</trkpt>
<trkpt lat="55.750183" lon="26.227930">
<ele>142.064575</ele>
<time>2010-07-17T11:58:15Z</time>
<desc>lat.=55.750183, lon.=26.227930, Alt.=142.064575m. Speed=23.400000m/h.</desc>
<speed>6.500000</speed>
</trkpt>
<trkpt lat="55.750233" lon="26.227879">
<ele>142.154419</ele>
<time>2010-07-17T11:58:16Z</time>
<desc>lat.=55.750233, lon.=26.227879, Alt.=142.154419m. Speed=23.688000m/h.</desc>
<speed>6.580000</speed>
</trkpt>
<trkpt lat="55.750286" lon="26.227827">
<ele>142.107544</ele>
<time>2010-07-17T11:58:17Z</time>
<desc>lat.=55.750286, lon.=26.227827, Alt.=142.107544m. Speed=24.011999m/h.</desc>
<speed>6.670000</speed>
</trkpt>
<trkpt lat="55.750340" lon="26.227777">
<ele>142.373169</ele>
<time>2010-07-17T11:58:18Z</time>
<desc>lat.=55.750340, lon.=26.227777, Alt.=142.373169m. Speed=24.191999m/h.</desc>
<speed>6.720000</speed>
</trkpt>
<trkpt lat="55.750393" lon="26.227730">
<ele>142.505981</ele>
<time>2010-07-17T11:58:19Z</time>
<desc>lat.=55.750393, lon.=26.227730, Alt.=142.505981m. Speed=24.408001m/h.</desc>
<speed>6.780000</speed>
</trkpt>
<trkpt lat="55.750450" lon="26.227680">
<ele>142.447388</ele>
<time>2010-07-17T11:58:20Z</time>
<desc>lat.=55.750450, lon.=26.227680, Alt.=142.447388m. Speed=24.552000m/h.</desc>
<speed>6.820000</speed>
</trkpt>
<trkpt lat="55.750507" lon="26.227633">
<ele>142.396606</ele>
<time>2010-07-17T11:58:21Z</time>
<desc>lat.=55.750507, lon.=26.227633, Alt.=142.396606m. Speed=24.840000m/h.</desc>
<speed>6.900000</speed>
</trkpt>
<trkpt lat="55.750565" lon="26.227579">
<ele>142.595825</ele>
<time>2010-07-17T11:58:22Z</time>
<desc>lat.=55.750565, lon.=26.227579, Alt.=142.595825m. Speed=24.732000m/h.</desc>
<speed>6.870000</speed>
</trkpt>
<trkpt lat="55.750614" lon="26.227531">
<ele>142.509888</ele>
<time>2010-07-17T11:58:23Z</time>
<desc>lat.=55.750614, lon.=26.227531, Alt.=142.509888m. Speed=24.299999m/h.</desc>
<speed>6.750000</speed>
</trkpt>
<trkpt lat="55.750668" lon="26.227482">
<ele>142.630981</ele>
<time>2010-07-17T11:58:24Z</time>
<desc>lat.=55.750668, lon.=26.227482, Alt.=142.630981m. Speed=23.292000m/h.</desc>
<speed>6.470000</speed>
</trkpt>
<trkpt lat="55.750717" lon="26.227440">
<ele>142.697388</ele>
<time>2010-07-17T11:58:25Z</time>
<desc>lat.=55.750717, lon.=26.227440, Alt.=142.697388m. Speed=22.572001m/h.</desc>
<speed>6.270000</speed>
</trkpt>
<trkpt lat="55.750771" lon="26.227396">
<ele>142.896606</ele>
<time>2010-07-17T11:58:26Z</time>
<desc>lat.=55.750771, lon.=26.227396, Alt.=142.896606m. Speed=22.068001m/h.</desc>
<speed>6.130000</speed>
</trkpt>
<trkpt lat="55.750820" lon="26.227354">
<ele>143.025513</ele>
<time>2010-07-17T11:58:27Z</time>
<desc>lat.=55.750820, lon.=26.227354, Alt.=143.025513m. Speed=21.996000m/h.</desc>
<speed>6.110000</speed>
</trkpt>
<trkpt lat="55.750870" lon="26.227308">
<ele>143.154419</ele>
<time>2010-07-17T11:58:28Z</time>
<desc>lat.=55.750870, lon.=26.227308, Alt.=143.154419m. Speed=22.139999m/h.</desc>
<speed>6.150000</speed>
</trkpt>
<trkpt lat="55.750916" lon="26.227259">
<ele>143.267700</ele>
<time>2010-07-17T11:58:29Z</time>
<desc>lat.=55.750916, lon.=26.227259, Alt.=143.267700m. Speed=20.988001m/h.</desc>
<speed>5.830000</speed>
</trkpt>
<trkpt lat="55.750961" lon="26.227215">
<ele>143.447388</ele>
<time>2010-07-17T11:58:30Z</time>
<desc>lat.=55.750961, lon.=26.227215, Alt.=143.447388m. Speed=20.664000m/h.</desc>
<speed>5.740000</speed>
</trkpt>
<trkpt lat="55.751003" lon="26.227175">
<ele>143.806763</ele>
<time>2010-07-17T11:58:31Z</time>
<desc>lat.=55.751003, lon.=26.227175, Alt.=143.806763m. Speed=18.576000m/h.</desc>
<speed>5.160000</speed>
</trkpt>
<trkpt lat="55.751041" lon="26.227139">
<ele>143.935669</ele>
<time>2010-07-17T11:58:32Z</time>
<desc>lat.=55.751041, lon.=26.227139, Alt.=143.935669m. Speed=19.224001m/h.</desc>
<speed>5.340000</speed>
</trkpt>
<trkpt lat="55.751087" lon="26.227097">
<ele>144.283325</ele>
<time>2010-07-17T11:58:33Z</time>
<desc>lat.=55.751087, lon.=26.227097, Alt.=144.283325m. Speed=18.864000m/h.</desc>
<speed>5.240000</speed>
</trkpt>
<trkpt lat="55.751125" lon="26.227062">
<ele>144.279419</ele>
<time>2010-07-17T11:58:34Z</time>
<desc>lat.=55.751125, lon.=26.227062, Alt.=144.279419m. Speed=18.288000m/h.</desc>
<speed>5.080000</speed>
</trkpt>
<trkpt lat="55.751163" lon="26.227024">
<ele>144.017700</ele>
<time>2010-07-17T11:58:35Z</time>
<desc>lat.=55.751163, lon.=26.227024, Alt.=144.017700m. Speed=17.892000m/h.</desc>
<speed>4.970000</speed>
</trkpt>
<trkpt lat="55.751205" lon="26.226988">
<ele>144.045044</ele>
<time>2010-07-17T11:58:36Z</time>
<desc>lat.=55.751205, lon.=26.226988, Alt.=144.045044m. Speed=17.568001m/h.</desc>
<speed>4.880000</speed>
</trkpt>
<trkpt lat="55.751244" lon="26.226950">
<ele>144.396606</ele>
<time>2010-07-17T11:58:37Z</time>
<desc>lat.=55.751244, lon.=26.226950, Alt.=144.396606m. Speed=17.568001m/h.</desc>
<speed>4.880000</speed>
</trkpt>
<trkpt lat="55.751282" lon="26.226912">
<ele>144.709106</ele>
<time>2010-07-17T11:58:38Z</time>
<desc>lat.=55.751282, lon.=26.226912, Alt.=144.709106m. Speed=17.388000m/h.</desc>
<speed>4.830000</speed>
</trkpt>
<trkpt lat="55.751316" lon="26.226873">
<ele>144.736450</ele>
<time>2010-07-17T11:58:39Z</time>
<desc>lat.=55.751316, lon.=26.226873, Alt.=144.736450m. Speed=17.100000m/h.</desc>
<speed>4.750000</speed>
</trkpt>
<trkpt lat="55.751358" lon="26.226841">
<ele>145.357544</ele>
<time>2010-07-17T11:58:40Z</time>
<desc>lat.=55.751358, lon.=26.226841, Alt.=145.357544m. Speed=17.063999m/h.</desc>
<speed>4.740000</speed>
</trkpt>
<trkpt lat="55.751392" lon="26.226807">
<ele>145.513794</ele>
<time>2010-07-17T11:58:41Z</time>
<desc>lat.=55.751392, lon.=26.226807, Alt.=145.513794m. Speed=16.271999m/h.</desc>
<speed>4.520000</speed>
</trkpt>
<trkpt lat="55.751431" lon="26.226778">
<ele>145.791138</ele>
<time>2010-07-17T11:58:42Z</time>
<desc>lat.=55.751431, lon.=26.226778, Alt.=145.791138m. Speed=16.308001m/h.</desc>
<speed>4.530000</speed>
</trkpt>
<trkpt lat="55.751469" lon="26.226746">
<ele>145.767700</ele>
<time>2010-07-17T11:58:43Z</time>
<desc>lat.=55.751469, lon.=26.226746, Alt.=145.767700m. Speed=16.992001m/h.</desc>
<speed>4.720000</speed>
</trkpt>
<trkpt lat="55.751503" lon="26.226711">
<ele>145.580200</ele>
<time>2010-07-17T11:58:44Z</time>
<desc>lat.=55.751503, lon.=26.226711, Alt.=145.580200m. Speed=16.992001m/h.</desc>
<speed>4.720000</speed>
</trkpt>
<trkpt lat="55.751537" lon="26.226673">
<ele>145.724731</ele>
<time>2010-07-17T11:58:45Z</time>
<desc>lat.=55.751537, lon.=26.226673, Alt.=145.724731m. Speed=16.596001m/h.</desc>
<speed>4.610000</speed>
</trkpt>
<trkpt lat="55.751568" lon="26.226643">
<ele>145.341919</ele>
<time>2010-07-17T11:58:46Z</time>
<desc>lat.=55.751568, lon.=26.226643, Alt.=145.341919m. Speed=16.775999m/h.</desc>
<speed>4.660000</speed>
</trkpt>
<trkpt lat="55.751602" lon="26.226606">
<ele>145.209106</ele>
<time>2010-07-17T11:58:47Z</time>
<desc>lat.=55.751602, lon.=26.226606, Alt.=145.209106m. Speed=16.667999m/h.</desc>
<speed>4.630000</speed>
</trkpt>
<trkpt lat="55.751640" lon="26.226574">
<ele>145.365356</ele>
<time>2010-07-17T11:58:48Z</time>
<desc>lat.=55.751640, lon.=26.226574, Alt.=145.365356m. Speed=16.308001m/h.</desc>
<speed>4.530000</speed>
</trkpt>
<trkpt lat="55.751675" lon="26.226538">
<ele>145.580200</ele>
<time>2010-07-17T11:58:49Z</time>
<desc>lat.=55.751675, lon.=26.226538, Alt.=145.580200m. Speed=17.388000m/h.</desc>
<speed>4.830000</speed>
</trkpt>
<trkpt lat="55.751713" lon="26.226501">
<ele>145.701294</ele>
<time>2010-07-17T11:58:50Z</time>
<desc>lat.=55.751713, lon.=26.226501, Alt.=145.701294m. Speed=16.379999m/h.</desc>
<speed>4.550000</speed>
</trkpt>
<trkpt lat="55.751751" lon="26.226467">
<ele>145.595825</ele>
<time>2010-07-17T11:58:51Z</time>
<desc>lat.=55.751751, lon.=26.226467, Alt.=145.595825m. Speed=16.488001m/h.</desc>
<speed>4.580000</speed>
</trkpt>
<trkpt lat="55.751785" lon="26.226435">
<ele>145.646606</ele>
<time>2010-07-17T11:58:52Z</time>
<desc>lat.=55.751785, lon.=26.226435, Alt.=145.646606m. Speed=16.271999m/h.</desc>
<speed>4.520000</speed>
</trkpt>
<trkpt lat="55.751823" lon="26.226400">
<ele>145.548950</ele>
<time>2010-07-17T11:58:53Z</time>
<desc>lat.=55.751823, lon.=26.226400, Alt.=145.548950m. Speed=16.524000m/h.</desc>
<speed>4.590000</speed>
</trkpt>
<trkpt lat="55.751862" lon="26.226366">
<ele>145.373169</ele>
<time>2010-07-17T11:58:54Z</time>
<desc>lat.=55.751862, lon.=26.226366, Alt.=145.373169m. Speed=16.704000m/h.</desc>
<speed>4.640000</speed>
</trkpt>
<trkpt lat="55.751900" lon="26.226334">
<ele>145.638794</ele>
<time>2010-07-17T11:58:55Z</time>
<desc>lat.=55.751900, lon.=26.226334, Alt.=145.638794m. Speed=17.100000m/h.</desc>
<speed>4.750000</speed>
</trkpt>
<trkpt lat="55.751938" lon="26.226299">
<ele>145.865356</ele>
<time>2010-07-17T11:58:56Z</time>
<desc>lat.=55.751938, lon.=26.226299, Alt.=145.865356m. Speed=16.884001m/h.</desc>
<speed>4.690000</speed>
</trkpt>
<trkpt lat="55.751976" lon="26.226261">
<ele>145.880981</ele>
<time>2010-07-17T11:58:57Z</time>
<desc>lat.=55.751976, lon.=26.226261, Alt.=145.880981m. Speed=17.100000m/h.</desc>
<speed>4.750000</speed>
</trkpt>
<trkpt lat="55.752010" lon="26.226225">
<ele>145.935669</ele>
<time>2010-07-17T11:58:58Z</time>
<desc>lat.=55.752010, lon.=26.226225, Alt.=145.935669m. Speed=16.667999m/h.</desc>
<speed>4.630000</speed>
</trkpt>
<trkpt lat="55.752048" lon="26.226191">
<ele>146.130981</ele>
<time>2010-07-17T11:58:59Z</time>
<desc>lat.=55.752048, lon.=26.226191, Alt.=146.130981m. Speed=16.812000m/h.</desc>
<speed>4.670000</speed>
</trkpt>
<trkpt lat="55.752087" lon="26.226156">
<ele>146.646606</ele>
<time>2010-07-17T11:59:00Z</time>
<desc>lat.=55.752087, lon.=26.226156, Alt.=146.646606m. Speed=16.236000m/h.</desc>
<speed>4.510000</speed>
</trkpt>
<trkpt lat="55.752121" lon="26.226124">
<ele>146.705200</ele>
<time>2010-07-17T11:59:01Z</time>
<desc>lat.=55.752121, lon.=26.226124, Alt.=146.705200m. Speed=16.704000m/h.</desc>
<speed>4.640000</speed>
</trkpt>
<trkpt lat="55.752159" lon="26.226088">
<ele>146.783325</ele>
<time>2010-07-17T11:59:02Z</time>
<desc>lat.=55.752159, lon.=26.226088, Alt.=146.783325m. Speed=16.740000m/h.</desc>
<speed>4.650000</speed>
</trkpt>
<trkpt lat="55.752197" lon="26.226051">
<ele>146.888794</ele>
<time>2010-07-17T11:59:03Z</time>
<desc>lat.=55.752197, lon.=26.226051, Alt.=146.888794m. Speed=17.100000m/h.</desc>
<speed>4.750000</speed>
</trkpt>
<trkpt lat="55.752224" lon="26.226013">
<ele>145.369263</ele>
<time>2010-07-17T11:59:04Z</time>
<desc>lat.=55.752224, lon.=26.226013, Alt.=145.369263m. Speed=16.955999m/h.</desc>
<speed>4.710000</speed>
</trkpt>
<trkpt lat="55.752266" lon="26.225979">
<ele>145.689575</ele>
<time>2010-07-17T11:59:05Z</time>
<desc>lat.=55.752266, lon.=26.225979, Alt.=145.689575m. Speed=17.496000m/h.</desc>
<speed>4.860000</speed>
</trkpt>
<trkpt lat="55.752304" lon="26.225943">
<ele>145.798950</ele>
<time>2010-07-17T11:59:06Z</time>
<desc>lat.=55.752304, lon.=26.225943, Alt.=145.798950m. Speed=17.351999m/h.</desc>
<speed>4.820000</speed>
</trkpt>
<trkpt lat="55.752342" lon="26.225908">
<ele>145.908325</ele>
<time>2010-07-17T11:59:07Z</time>
<desc>lat.=55.752342, lon.=26.225908, Alt.=145.908325m. Speed=16.128000m/h.</desc>
<speed>4.480000</speed>
</trkpt>
<trkpt lat="55.752377" lon="26.225880">
<ele>146.095825</ele>
<time>2010-07-17T11:59:08Z</time>
<desc>lat.=55.752377, lon.=26.225880, Alt.=146.095825m. Speed=17.351999m/h.</desc>
<speed>4.820000</speed>
</trkpt>
<trkpt lat="55.752419" lon="26.225847">
<ele>146.396606</ele>
<time>2010-07-17T11:59:09Z</time>
<desc>lat.=55.752419, lon.=26.225847, Alt.=146.396606m. Speed=16.920000m/h.</desc>
<speed>4.700000</speed>
</trkpt>
<trkpt lat="55.752457" lon="26.225817">
<ele>146.568481</ele>
<time>2010-07-17T11:59:10Z</time>
<desc>lat.=55.752457, lon.=26.225817, Alt.=146.568481m. Speed=17.424000m/h.</desc>
<speed>4.840000</speed>
</trkpt>
<trkpt lat="55.752495" lon="26.225784">
<ele>146.845825</ele>
<time>2010-07-17T11:59:11Z</time>
<desc>lat.=55.752495, lon.=26.225784, Alt.=146.845825m. Speed=16.920000m/h.</desc>
<speed>4.700000</speed>
</trkpt>
<trkpt lat="55.752533" lon="26.225748">
<ele>147.068481</ele>
<time>2010-07-17T11:59:12Z</time>
<desc>lat.=55.752533, lon.=26.225748, Alt.=147.068481m. Speed=17.604000m/h.</desc>
<speed>4.890000</speed>
</trkpt>
<trkpt lat="55.752571" lon="26.225706">
<ele>147.275513</ele>
<time>2010-07-17T11:59:13Z</time>
<desc>lat.=55.752571, lon.=26.225706, Alt.=147.275513m. Speed=17.424000m/h.</desc>
<speed>4.840000</speed>
</trkpt>
<trkpt lat="55.752605" lon="26.225668">
<ele>147.591919</ele>
<time>2010-07-17T11:59:14Z</time>
<desc>lat.=55.752605, lon.=26.225668, Alt.=147.591919m. Speed=17.459999m/h.</desc>
<speed>4.850000</speed>
</trkpt>
<trkpt lat="55.752647" lon="26.225626">
<ele>147.681763</ele>
<time>2010-07-17T11:59:15Z</time>
<desc>lat.=55.752647, lon.=26.225626, Alt.=147.681763m. Speed=18.792000m/h.</desc>
<speed>5.220000</speed>
</trkpt>
<trkpt lat="55.752686" lon="26.225586">
<ele>147.752075</ele>
<time>2010-07-17T11:59:16Z</time>
<desc>lat.=55.752686, lon.=26.225586, Alt.=147.752075m. Speed=17.532000m/h.</desc>
<speed>4.870000</speed>
</trkpt>
<trkpt lat="55.752720" lon="26.225550">
<ele>147.880981</ele>
<time>2010-07-17T11:59:17Z</time>
<desc>lat.=55.752720, lon.=26.225550, Alt.=147.880981m. Speed=17.568001m/h.</desc>
<speed>4.880000</speed>
</trkpt>
<trkpt lat="55.752758" lon="26.225513">
<ele>147.912231</ele>
<time>2010-07-17T11:59:18Z</time>
<desc>lat.=55.752758, lon.=26.225513, Alt.=147.912231m. Speed=18.143999m/h.</desc>
<speed>5.040000</speed>
</trkpt>
<trkpt lat="55.752800" lon="26.225477">
<ele>148.009888</ele>
<time>2010-07-17T11:59:19Z</time>
<desc>lat.=55.752800, lon.=26.225477, Alt.=148.009888m. Speed=17.712000m/h.</desc>
<speed>4.920000</speed>
</trkpt>
<trkpt lat="55.752838" lon="26.225443">
<ele>148.134888</ele>
<time>2010-07-17T11:59:20Z</time>
<desc>lat.=55.752838, lon.=26.225443, Alt.=148.134888m. Speed=17.892000m/h.</desc>
<speed>4.970000</speed>
</trkpt>
<trkpt lat="55.752880" lon="26.225407">
<ele>148.166138</ele>
<time>2010-07-17T11:59:21Z</time>
<desc>lat.=55.752880, lon.=26.225407, Alt.=148.166138m. Speed=17.820000m/h.</desc>
<speed>4.950000</speed>
</trkpt>
<trkpt lat="55.752918" lon="26.225372">
<ele>148.181763</ele>
<time>2010-07-17T11:59:22Z</time>
<desc>lat.=55.752918, lon.=26.225372, Alt.=148.181763m. Speed=18.180000m/h.</desc>
<speed>5.050000</speed>
</trkpt>
<trkpt lat="55.752956" lon="26.225338">
<ele>148.369263</ele>
<time>2010-07-17T11:59:23Z</time>
<desc>lat.=55.752956, lon.=26.225338, Alt.=148.369263m. Speed=16.632000m/h.</desc>
<speed>4.620000</speed>
</trkpt>
<trkpt lat="55.752995" lon="26.225311">
<ele>148.865356</ele>
<time>2010-07-17T11:59:24Z</time>
<desc>lat.=55.752995, lon.=26.225311, Alt.=148.865356m. Speed=16.271999m/h.</desc>
<speed>4.520000</speed>
</trkpt>
<trkpt lat="55.753033" lon="26.225285">
<ele>149.150513</ele>
<time>2010-07-17T11:59:25Z</time>
<desc>lat.=55.753033, lon.=26.225285, Alt.=149.150513m. Speed=16.488001m/h.</desc>
<speed>4.580000</speed>
</trkpt>
<trkpt lat="55.753067" lon="26.225250">
<ele>148.861450</ele>
<time>2010-07-17T11:59:26Z</time>
<desc>lat.=55.753067, lon.=26.225250, Alt.=148.861450m. Speed=16.344000m/h.</desc>
<speed>4.540000</speed>
</trkpt>
<trkpt lat="55.753113" lon="26.225216">
<ele>151.400513</ele>
<time>2010-07-17T11:59:27Z</time>
<desc>lat.=55.753113, lon.=26.225216, Alt.=151.400513m. Speed=16.740000m/h.</desc>
<speed>4.650000</speed>
</trkpt>
<trkpt lat="55.753147" lon="26.225185">
<ele>151.248169</ele>
<time>2010-07-17T11:59:28Z</time>
<desc>lat.=55.753147, lon.=26.225185, Alt.=151.248169m. Speed=17.459999m/h.</desc>
<speed>4.850000</speed>
</trkpt>
<trkpt lat="55.753181" lon="26.225149">
<ele>151.123169</ele>
<time>2010-07-17T11:59:29Z</time>
<desc>lat.=55.753181, lon.=26.225149, Alt.=151.123169m. Speed=17.316000m/h.</desc>
<speed>4.810000</speed>
</trkpt>
<trkpt lat="55.753216" lon="26.225115">
<ele>151.189575</ele>
<time>2010-07-17T11:59:30Z</time>
<desc>lat.=55.753216, lon.=26.225115, Alt.=151.189575m. Speed=17.100000m/h.</desc>
<speed>4.750000</speed>
</trkpt>
<trkpt lat="55.753250" lon="26.225082">
<ele>151.396606</ele>
<time>2010-07-17T11:59:31Z</time>
<desc>lat.=55.753250, lon.=26.225082, Alt.=151.396606m. Speed=16.955999m/h.</desc>
<speed>4.710000</speed>
</trkpt>
<trkpt lat="55.753288" lon="26.225046">
<ele>151.474731</ele>
<time>2010-07-17T11:59:32Z</time>
<desc>lat.=55.753288, lon.=26.225046, Alt.=151.474731m. Speed=17.496000m/h.</desc>
<speed>4.860000</speed>
</trkpt>
<trkpt lat="55.753326" lon="26.225006">
<ele>151.455200</ele>
<time>2010-07-17T11:59:33Z</time>
<desc>lat.=55.753326, lon.=26.225006, Alt.=151.455200m. Speed=17.676001m/h.</desc>
<speed>4.910000</speed>
</trkpt>
<trkpt lat="55.753368" lon="26.224970">
<ele>151.873169</ele>
<time>2010-07-17T11:59:34Z</time>
<desc>lat.=55.753368, lon.=26.224970, Alt.=151.873169m. Speed=18.648001m/h.</desc>
<speed>5.180000</speed>
</trkpt>
<trkpt lat="55.753410" lon="26.224932">
<ele>152.072388</ele>
<time>2010-07-17T11:59:35Z</time>
<desc>lat.=55.753410, lon.=26.224932, Alt.=152.072388m. Speed=18.108000m/h.</desc>
<speed>5.030000</speed>
</trkpt>
<trkpt lat="55.753448" lon="26.224897">
<ele>152.119263</ele>
<time>2010-07-17T11:59:36Z</time>
<desc>lat.=55.753448, lon.=26.224897, Alt.=152.119263m. Speed=17.856001m/h.</desc>
<speed>4.960000</speed>
</trkpt>
<trkpt lat="55.753483" lon="26.224859">
<ele>152.259888</ele>
<time>2010-07-17T11:59:37Z</time>
<desc>lat.=55.753483, lon.=26.224859, Alt.=152.259888m. Speed=16.344000m/h.</desc>
<speed>4.540000</speed>
</trkpt>
<trkpt lat="55.753517" lon="26.224815">
<ele>152.185669</ele>
<time>2010-07-17T11:59:38Z</time>
<desc>lat.=55.753517, lon.=26.224815, Alt.=152.185669m. Speed=16.308001m/h.</desc>
<speed>4.530000</speed>
</trkpt>
<trkpt lat="55.753551" lon="26.224779">
<ele>152.404419</ele>
<time>2010-07-17T11:59:39Z</time>
<desc>lat.=55.753551, lon.=26.224779, Alt.=152.404419m. Speed=16.812000m/h.</desc>
<speed>4.670000</speed>
</trkpt>
<trkpt lat="55.753590" lon="26.224747">
<ele>152.736450</ele>
<time>2010-07-17T11:59:40Z</time>
<desc>lat.=55.753590, lon.=26.224747, Alt.=152.736450m. Speed=16.920000m/h.</desc>
<speed>4.700000</speed>
</trkpt>
<trkpt lat="55.753628" lon="26.224714">
<ele>152.634888</ele>
<time>2010-07-17T11:59:41Z</time>
<desc>lat.=55.753628, lon.=26.224714, Alt.=152.634888m. Speed=17.351999m/h.</desc>
<speed>4.820000</speed>
</trkpt>
<trkpt lat="55.753662" lon="26.224682">
<ele>152.412231</ele>
<time>2010-07-17T11:59:42Z</time>
<desc>lat.=55.753662, lon.=26.224682, Alt.=152.412231m. Speed=16.667999m/h.</desc>
<speed>4.630000</speed>
</trkpt>
<trkpt lat="55.753700" lon="26.224648">
<ele>152.369263</ele>
<time>2010-07-17T11:59:43Z</time>
<desc>lat.=55.753700, lon.=26.224648, Alt.=152.369263m. Speed=16.848000m/h.</desc>
<speed>4.680000</speed>
</trkpt>
<trkpt lat="55.753738" lon="26.224611">
<ele>152.408325</ele>
<time>2010-07-17T11:59:44Z</time>
<desc>lat.=55.753738, lon.=26.224611, Alt.=152.408325m. Speed=17.100000m/h.</desc>
<speed>4.750000</speed>
</trkpt>
<trkpt lat="55.753777" lon="26.224573">
<ele>152.420044</ele>
<time>2010-07-17T11:59:45Z</time>
<desc>lat.=55.753777, lon.=26.224573, Alt.=152.420044m. Speed=17.747999m/h.</desc>
<speed>4.930000</speed>
</trkpt>
<trkpt lat="55.753819" lon="26.224531">
<ele>152.494263</ele>
<time>2010-07-17T11:59:46Z</time>
<desc>lat.=55.753819, lon.=26.224531, Alt.=152.494263m. Speed=17.424000m/h.</desc>
<speed>4.840000</speed>
</trkpt>
<trkpt lat="55.753857" lon="26.224493">
<ele>152.564575</ele>
<time>2010-07-17T11:59:47Z</time>
<desc>lat.=55.753857, lon.=26.224493, Alt.=152.564575m. Speed=17.496000m/h.</desc>
<speed>4.860000</speed>
</trkpt>
<trkpt lat="55.753895" lon="26.224463">
<ele>152.369263</ele>
<time>2010-07-17T11:59:48Z</time>
<desc>lat.=55.753895, lon.=26.224463, Alt.=152.369263m. Speed=16.559999m/h.</desc>
<speed>4.600000</speed>
</trkpt>
<trkpt lat="55.753937" lon="26.224426">
<ele>152.435669</ele>
<time>2010-07-17T11:59:49Z</time>
<desc>lat.=55.753937, lon.=26.224426, Alt.=152.435669m. Speed=16.775999m/h.</desc>
<speed>4.660000</speed>
</trkpt>
<trkpt lat="55.753975" lon="26.224388">
<ele>152.537231</ele>
<time>2010-07-17T11:59:50Z</time>
<desc>lat.=55.753975, lon.=26.224388, Alt.=152.537231m. Speed=16.884001m/h.</desc>
<speed>4.690000</speed>
</trkpt>
<trkpt lat="55.754009" lon="26.224354">
<ele>152.396606</ele>
<time>2010-07-17T11:59:51Z</time>
<desc>lat.=55.754009, lon.=26.224354, Alt.=152.396606m. Speed=16.812000m/h.</desc>
<speed>4.670000</speed>
</trkpt>
<trkpt lat="55.754047" lon="26.224318">
<ele>152.486450</ele>
<time>2010-07-17T11:59:52Z</time>
<desc>lat.=55.754047, lon.=26.224318, Alt.=152.486450m. Speed=17.892000m/h.</desc>
<speed>4.970000</speed>
</trkpt>
<trkpt lat="55.754089" lon="26.224276">
<ele>152.748169</ele>
<time>2010-07-17T11:59:53Z</time>
<desc>lat.=55.754089, lon.=26.224276, Alt.=152.748169m. Speed=18.216000m/h.</desc>
<speed>5.060000</speed>
</trkpt>
<trkpt lat="55.754128" lon="26.224237">
<ele>152.884888</ele>
<time>2010-07-17T11:59:54Z</time>
<desc>lat.=55.754128, lon.=26.224237, Alt.=152.884888m. Speed=18.396000m/h.</desc>
<speed>5.110000</speed>
</trkpt>
<trkpt lat="55.754169" lon="26.224197">
<ele>153.041138</ele>
<time>2010-07-17T11:59:55Z</time>
<desc>lat.=55.754169, lon.=26.224197, Alt.=153.041138m. Speed=18.684000m/h.</desc>
<speed>5.190000</speed>
</trkpt>
<trkpt lat="55.754211" lon="26.224154">
<ele>153.314575</ele>
<time>2010-07-17T11:59:56Z</time>
<desc>lat.=55.754211, lon.=26.224154, Alt.=153.314575m. Speed=18.612000m/h.</desc>
<speed>5.170000</speed>
</trkpt>
<trkpt lat="55.754253" lon="26.224113">
<ele>153.443481</ele>
<time>2010-07-17T11:59:57Z</time>
<desc>lat.=55.754253, lon.=26.224113, Alt.=153.443481m. Speed=19.224001m/h.</desc>
<speed>5.340000</speed>
</trkpt>
<trkpt lat="55.754295" lon="26.224073">
<ele>153.502075</ele>
<time>2010-07-17T11:59:58Z</time>
<desc>lat.=55.754295, lon.=26.224073, Alt.=153.502075m. Speed=19.007999m/h.</desc>
<speed>5.280000</speed>
</trkpt>
<trkpt lat="55.754333" lon="26.224031">
<ele>153.548950</ele>
<time>2010-07-17T11:59:59Z</time>
<desc>lat.=55.754333, lon.=26.224031, Alt.=153.548950m. Speed=19.440001m/h.</desc>
<speed>5.400000</speed>
</trkpt>
<trkpt lat="55.754375" lon="26.223995">
<ele>153.584106</ele>
<time>2010-07-17T12:00:00Z</time>
<desc>lat.=55.754375, lon.=26.223995, Alt.=153.584106m. Speed=19.980000m/h.</desc>
<speed>5.550000</speed>
</trkpt>
<trkpt lat="55.754421" lon="26.223959">
<ele>153.408325</ele>
<time>2010-07-17T12:00:01Z</time>
<desc>lat.=55.754421, lon.=26.223959, Alt.=153.408325m. Speed=20.556000m/h.</desc>
<speed>5.710000</speed>
</trkpt>
<trkpt lat="55.754467" lon="26.223919">
<ele>153.470825</ele>
<time>2010-07-17T12:00:02Z</time>
<desc>lat.=55.754467, lon.=26.223919, Alt.=153.470825m. Speed=20.124001m/h.</desc>
<speed>5.590000</speed>
</trkpt>
<trkpt lat="55.754509" lon="26.223881">
<ele>153.041138</ele>
<time>2010-07-17T12:00:03Z</time>
<desc>lat.=55.754509, lon.=26.223881, Alt.=153.041138m. Speed=19.476000m/h.</desc>
<speed>5.410000</speed>
</trkpt>
<trkpt lat="55.754551" lon="26.223843">
<ele>152.853638</ele>
<time>2010-07-17T12:00:04Z</time>
<desc>lat.=55.754551, lon.=26.223843, Alt.=152.853638m. Speed=19.440001m/h.</desc>
<speed>5.400000</speed>
</trkpt>
<trkpt lat="55.754593" lon="26.223804">
<ele>152.880981</ele>
<time>2010-07-17T12:00:05Z</time>
<desc>lat.=55.754593, lon.=26.223804, Alt.=152.880981m. Speed=19.403999m/h.</desc>
<speed>5.390000</speed>
</trkpt>
<trkpt lat="55.754639" lon="26.223759">
<ele>153.107544</ele>
<time>2010-07-17T12:00:06Z</time>
<desc>lat.=55.754639, lon.=26.223759, Alt.=153.107544m. Speed=19.620001m/h.</desc>
<speed>5.450000</speed>
</trkpt>
<trkpt lat="55.754681" lon="26.223719">
<ele>153.146606</ele>
<time>2010-07-17T12:00:07Z</time>
<desc>lat.=55.754681, lon.=26.223719, Alt.=153.146606m. Speed=19.368000m/h.</desc>
<speed>5.380000</speed>
</trkpt>
<trkpt lat="55.754726" lon="26.223677">
<ele>153.134888</ele>
<time>2010-07-17T12:00:08Z</time>
<desc>lat.=55.754726, lon.=26.223677, Alt.=153.134888m. Speed=19.728001m/h.</desc>
<speed>5.480000</speed>
</trkpt>
<trkpt lat="55.754772" lon="26.223633">
<ele>153.431763</ele>
<time>2010-07-17T12:00:09Z</time>
<desc>lat.=55.754772, lon.=26.223633, Alt.=153.431763m. Speed=20.160000m/h.</desc>
<speed>5.600000</speed>
</trkpt>
<trkpt lat="55.754818" lon="26.223595">
<ele>153.697388</ele>
<time>2010-07-17T12:00:10Z</time>
<desc>lat.=55.754818, lon.=26.223595, Alt.=153.697388m. Speed=20.087999m/h.</desc>
<speed>5.580000</speed>
</trkpt>
<trkpt lat="55.754860" lon="26.223555">
<ele>153.658325</ele>
<time>2010-07-17T12:00:11Z</time>
<desc>lat.=55.754860, lon.=26.223555, Alt.=153.658325m. Speed=20.016001m/h.</desc>
<speed>5.560000</speed>
</trkpt>
<trkpt lat="55.754906" lon="26.223511">
<ele>153.920044</ele>
<time>2010-07-17T12:00:12Z</time>
<desc>lat.=55.754906, lon.=26.223511, Alt.=153.920044m. Speed=20.268000m/h.</desc>
<speed>5.630000</speed>
</trkpt>
<trkpt lat="55.754951" lon="26.223469">
<ele>153.627075</ele>
<time>2010-07-17T12:00:13Z</time>
<desc>lat.=55.754951, lon.=26.223469, Alt.=153.627075m. Speed=20.340000m/h.</desc>
<speed>5.650000</speed>
</trkpt>
<trkpt lat="55.754997" lon="26.223433">
<ele>153.853638</ele>
<time>2010-07-17T12:00:14Z</time>
<desc>lat.=55.754997, lon.=26.223433, Alt.=153.853638m. Speed=20.771999m/h.</desc>
<speed>5.770000</speed>
</trkpt>
<trkpt lat="55.755043" lon="26.223385">
<ele>153.810669</ele>
<time>2010-07-17T12:00:15Z</time>
<desc>lat.=55.755043, lon.=26.223385, Alt.=153.810669m. Speed=20.879999m/h.</desc>
<speed>5.800000</speed>
</trkpt>
<trkpt lat="55.755089" lon="26.223341">
<ele>153.974731</ele>
<time>2010-07-17T12:00:16Z</time>
<desc>lat.=55.755089, lon.=26.223341, Alt.=153.974731m. Speed=20.483999m/h.</desc>
<speed>5.690000</speed>
</trkpt>
<trkpt lat="55.755142" lon="26.223305">
<ele>155.455200</ele>
<time>2010-07-17T12:00:17Z</time>
<desc>lat.=55.755142, lon.=26.223305, Alt.=155.455200m. Speed=20.520000m/h.</desc>
<speed>5.700000</speed>
</trkpt>
<trkpt lat="55.755188" lon="26.223259">
<ele>155.880981</ele>
<time>2010-07-17T12:00:18Z</time>
<desc>lat.=55.755188, lon.=26.223259, Alt.=155.880981m. Speed=21.600000m/h.</desc>
<speed>6.000000</speed>
</trkpt>
<trkpt lat="55.755241" lon="26.223217">
<ele>156.670044</ele>
<time>2010-07-17T12:00:19Z</time>
<desc>lat.=55.755241, lon.=26.223217, Alt.=156.670044m. Speed=21.348000m/h.</desc>
<speed>5.930000</speed>
</trkpt>
<trkpt lat="55.755287" lon="26.223179">
<ele>157.099731</ele>
<time>2010-07-17T12:00:20Z</time>
<desc>lat.=55.755287, lon.=26.223179, Alt.=157.099731m. Speed=20.087999m/h.</desc>
<speed>5.580000</speed>
</trkpt>
<trkpt lat="55.755329" lon="26.223141">
<ele>157.052856</ele>
<time>2010-07-17T12:00:21Z</time>
<desc>lat.=55.755329, lon.=26.223141, Alt.=157.052856m. Speed=20.448000m/h.</desc>
<speed>5.680000</speed>
</trkpt>
<trkpt lat="55.755375" lon="26.223099">
<ele>157.263794</ele>
<time>2010-07-17T12:00:22Z</time>
<desc>lat.=55.755375, lon.=26.223099, Alt.=157.263794m. Speed=20.268000m/h.</desc>
<speed>5.630000</speed>
</trkpt>
<trkpt lat="55.755417" lon="26.223055">
<ele>157.002075</ele>
<time>2010-07-17T12:00:23Z</time>
<desc>lat.=55.755417, lon.=26.223055, Alt.=157.002075m. Speed=19.799999m/h.</desc>
<speed>5.500000</speed>
</trkpt>
<trkpt lat="55.755459" lon="26.223015">
<ele>156.986450</ele>
<time>2010-07-17T12:00:24Z</time>
<desc>lat.=55.755459, lon.=26.223015, Alt.=156.986450m. Speed=20.016001m/h.</desc>
<speed>5.560000</speed>
</trkpt>
<trkpt lat="55.755501" lon="26.222975">
<ele>156.724731</ele>
<time>2010-07-17T12:00:25Z</time>
<desc>lat.=55.755501, lon.=26.222975, Alt.=156.724731m. Speed=19.656000m/h.</desc>
<speed>5.460000</speed>
</trkpt>
<trkpt lat="55.755543" lon="26.222933">
<ele>156.755981</ele>
<time>2010-07-17T12:00:26Z</time>
<desc>lat.=55.755543, lon.=26.222933, Alt.=156.755981m. Speed=19.511999m/h.</desc>
<speed>5.420000</speed>
</trkpt>
<trkpt lat="55.755589" lon="26.222893">
<ele>156.959106</ele>
<time>2010-07-17T12:00:27Z</time>
<desc>lat.=55.755589, lon.=26.222893, Alt.=156.959106m. Speed=19.044001m/h.</desc>
<speed>5.290000</speed>
</trkpt>
<trkpt lat="55.755627" lon="26.222858">
<ele>157.373169</ele>
<time>2010-07-17T12:00:28Z</time>
<desc>lat.=55.755627, lon.=26.222858, Alt.=157.373169m. Speed=19.548000m/h.</desc>
<speed>5.430000</speed>
</trkpt>
<trkpt lat="55.755669" lon="26.222815">
<ele>157.205200</ele>
<time>2010-07-17T12:00:29Z</time>
<desc>lat.=55.755669, lon.=26.222815, Alt.=157.205200m. Speed=19.332001m/h.</desc>
<speed>5.370000</speed>
</trkpt>
<trkpt lat="55.755711" lon="26.222767">
<ele>157.580200</ele>
<time>2010-07-17T12:00:30Z</time>
<desc>lat.=55.755711, lon.=26.222767, Alt.=157.580200m. Speed=19.403999m/h.</desc>
<speed>5.390000</speed>
</trkpt>
<trkpt lat="55.755753" lon="26.222721">
<ele>157.646606</ele>
<time>2010-07-17T12:00:31Z</time>
<desc>lat.=55.755753, lon.=26.222721, Alt.=157.646606m. Speed=19.620001m/h.</desc>
<speed>5.450000</speed>
</trkpt>
<trkpt lat="55.755795" lon="26.222677">
<ele>157.677856</ele>
<time>2010-07-17T12:00:32Z</time>
<desc>lat.=55.755795, lon.=26.222677, Alt.=157.677856m. Speed=19.836000m/h.</desc>
<speed>5.510000</speed>
</trkpt>
<trkpt lat="55.755833" lon="26.222624">
<ele>157.588013</ele>
<time>2010-07-17T12:00:33Z</time>
<desc>lat.=55.755833, lon.=26.222624, Alt.=157.588013m. Speed=20.195999m/h.</desc>
<speed>5.610000</speed>
</trkpt>
<trkpt lat="55.755875" lon="26.222569">
<ele>157.494263</ele>
<time>2010-07-17T12:00:34Z</time>
<desc>lat.=55.755875, lon.=26.222569, Alt.=157.494263m. Speed=20.195999m/h.</desc>
<speed>5.610000</speed>
</trkpt>
<trkpt lat="55.755920" lon="26.222519">
<ele>157.650513</ele>
<time>2010-07-17T12:00:35Z</time>
<desc>lat.=55.755920, lon.=26.222519, Alt.=157.650513m. Speed=20.771999m/h.</desc>
<speed>5.770000</speed>
</trkpt>
<trkpt lat="55.755962" lon="26.222467">
<ele>157.955200</ele>
<time>2010-07-17T12:00:36Z</time>
<desc>lat.=55.755962, lon.=26.222467, Alt.=157.955200m. Speed=20.879999m/h.</desc>
<speed>5.800000</speed>
</trkpt>
<trkpt lat="55.756004" lon="26.222408">
<ele>158.025513</ele>
<time>2010-07-17T12:00:37Z</time>
<desc>lat.=55.756004, lon.=26.222408, Alt.=158.025513m. Speed=20.952000m/h.</desc>
<speed>5.820000</speed>
</trkpt>
<trkpt lat="55.756046" lon="26.222347">
<ele>157.959106</ele>
<time>2010-07-17T12:00:38Z</time>
<desc>lat.=55.756046, lon.=26.222347, Alt.=157.959106m. Speed=21.240000m/h.</desc>
<speed>5.900000</speed>
</trkpt>
<trkpt lat="55.756088" lon="26.222288">
<ele>158.095825</ele>
<time>2010-07-17T12:00:39Z</time>
<desc>lat.=55.756088, lon.=26.222288, Alt.=158.095825m. Speed=21.167999m/h.</desc>
<speed>5.880000</speed>
</trkpt>
<trkpt lat="55.756123" lon="26.222223">
<ele>158.002075</ele>
<time>2010-07-17T12:00:40Z</time>
<desc>lat.=55.756123, lon.=26.222223, Alt.=158.002075m. Speed=20.664000m/h.</desc>
<speed>5.740000</speed>
</trkpt>
<trkpt lat="55.756157" lon="26.222155">
<ele>157.939575</ele>
<time>2010-07-17T12:00:41Z</time>
<desc>lat.=55.756157, lon.=26.222155, Alt.=157.939575m. Speed=20.844000m/h.</desc>
<speed>5.790000</speed>
</trkpt>
<trkpt lat="55.756195" lon="26.222094">
<ele>158.345825</ele>
<time>2010-07-17T12:00:42Z</time>
<desc>lat.=55.756195, lon.=26.222094, Alt.=158.345825m. Speed=20.340000m/h.</desc>
<speed>5.650000</speed>
</trkpt>
<trkpt lat="55.756229" lon="26.222027">
<ele>158.513794</ele>
<time>2010-07-17T12:00:43Z</time>
<desc>lat.=55.756229, lon.=26.222027, Alt.=158.513794m. Speed=20.268000m/h.</desc>
<speed>5.630000</speed>
</trkpt>
<trkpt lat="55.756264" lon="26.221962">
<ele>158.435669</ele>
<time>2010-07-17T12:00:44Z</time>
<desc>lat.=55.756264, lon.=26.221962, Alt.=158.435669m. Speed=20.916000m/h.</desc>
<speed>5.810000</speed>
</trkpt>
<trkpt lat="55.756302" lon="26.221886">
<ele>158.322388</ele>
<time>2010-07-17T12:00:45Z</time>
<desc>lat.=55.756302, lon.=26.221886, Alt.=158.322388m. Speed=21.204000m/h.</desc>
<speed>5.890000</speed>
</trkpt>
<trkpt lat="55.756332" lon="26.221811">
<ele>158.189575</ele>
<time>2010-07-17T12:00:46Z</time>
<desc>lat.=55.756332, lon.=26.221811, Alt.=158.189575m. Speed=20.375999m/h.</desc>
<speed>5.660000</speed>
</trkpt>
<trkpt lat="55.756367" lon="26.221746">
<ele>158.545044</ele>
<time>2010-07-17T12:00:47Z</time>
<desc>lat.=55.756367, lon.=26.221746, Alt.=158.545044m. Speed=19.584000m/h.</desc>
<speed>5.440000</speed>
</trkpt>
<trkpt lat="55.756397" lon="26.221684">
<ele>158.658325</ele>
<time>2010-07-17T12:00:48Z</time>
<desc>lat.=55.756397, lon.=26.221684, Alt.=158.658325m. Speed=19.115999m/h.</desc>
<speed>5.310000</speed>
</trkpt>
<trkpt lat="55.756432" lon="26.221615">
<ele>158.767700</ele>
<time>2010-07-17T12:00:49Z</time>
<desc>lat.=55.756432, lon.=26.221615, Alt.=158.767700m. Speed=19.115999m/h.</desc>
<speed>5.310000</speed>
</trkpt>
<trkpt lat="55.756458" lon="26.221548">
<ele>158.486450</ele>
<time>2010-07-17T12:00:50Z</time>
<desc>lat.=55.756458, lon.=26.221548, Alt.=158.486450m. Speed=18.612000m/h.</desc>
<speed>5.170000</speed>
</trkpt>
<trkpt lat="55.756485" lon="26.221483">
<ele>158.709106</ele>
<time>2010-07-17T12:00:51Z</time>
<desc>lat.=55.756485, lon.=26.221483, Alt.=158.709106m. Speed=19.188000m/h.</desc>
<speed>5.330000</speed>
</trkpt>
<trkpt lat="55.756516" lon="26.221415">
<ele>158.990356</ele>
<time>2010-07-17T12:00:52Z</time>
<desc>lat.=55.756516, lon.=26.221415, Alt.=158.990356m. Speed=19.115999m/h.</desc>
<speed>5.310000</speed>
</trkpt>
<trkpt lat="55.756546" lon="26.221346">
<ele>159.025513</ele>
<time>2010-07-17T12:00:53Z</time>
<desc>lat.=55.756546, lon.=26.221346, Alt.=159.025513m. Speed=19.007999m/h.</desc>
<speed>5.280000</speed>
</trkpt>
<trkpt lat="55.756577" lon="26.221272">
<ele>158.947388</ele>
<time>2010-07-17T12:00:54Z</time>
<desc>lat.=55.756577, lon.=26.221272, Alt.=158.947388m. Speed=20.988001m/h.</desc>
<speed>5.830000</speed>
</trkpt>
<trkpt lat="55.756607" lon="26.221199">
<ele>158.982544</ele>
<time>2010-07-17T12:00:55Z</time>
<desc>lat.=55.756607, lon.=26.221199, Alt.=158.982544m. Speed=20.124001m/h.</desc>
<speed>5.590000</speed>
</trkpt>
<trkpt lat="55.756638" lon="26.221130">
<ele>158.974731</ele>
<time>2010-07-17T12:00:56Z</time>
<desc>lat.=55.756638, lon.=26.221130, Alt.=158.974731m. Speed=20.736000m/h.</desc>
<speed>5.760000</speed>
</trkpt>
<trkpt lat="55.756672" lon="26.221062">
<ele>159.025513</ele>
<time>2010-07-17T12:00:57Z</time>
<desc>lat.=55.756672, lon.=26.221062, Alt.=159.025513m. Speed=20.844000m/h.</desc>
<speed>5.790000</speed>
</trkpt>
<trkpt lat="55.756706" lon="26.220985">
<ele>158.673950</ele>
<time>2010-07-17T12:00:58Z</time>
<desc>lat.=55.756706, lon.=26.220985, Alt.=158.673950m. Speed=21.672001m/h.</desc>
<speed>6.020000</speed>
</trkpt>
<trkpt lat="55.756733" lon="26.220903">
<ele>158.502075</ele>
<time>2010-07-17T12:00:59Z</time>
<desc>lat.=55.756733, lon.=26.220903, Alt.=158.502075m. Speed=22.247999m/h.</desc>
<speed>6.180000</speed>
</trkpt>
<trkpt lat="55.756763" lon="26.220819">
<ele>158.338013</ele>
<time>2010-07-17T12:01:00Z</time>
<desc>lat.=55.756763, lon.=26.220819, Alt.=158.338013m. Speed=21.924000m/h.</desc>
<speed>6.090000</speed>
</trkpt>
<trkpt lat="55.756798" lon="26.220739">
<ele>158.181763</ele>
<time>2010-07-17T12:01:01Z</time>
<desc>lat.=55.756798, lon.=26.220739, Alt.=158.181763m. Speed=21.924000m/h.</desc>
<speed>6.090000</speed>
</trkpt>
<trkpt lat="55.756832" lon="26.220657">
<ele>158.060669</ele>
<time>2010-07-17T12:01:02Z</time>
<desc>lat.=55.756832, lon.=26.220657, Alt.=158.060669m. Speed=21.816000m/h.</desc>
<speed>6.060000</speed>
</trkpt>
<trkpt lat="55.756866" lon="26.220583">
<ele>157.908325</ele>
<time>2010-07-17T12:01:03Z</time>
<desc>lat.=55.756866, lon.=26.220583, Alt.=157.908325m. Speed=21.204000m/h.</desc>
<speed>5.890000</speed>
</trkpt>
<trkpt lat="55.756897" lon="26.220509">
<ele>157.791138</ele>
<time>2010-07-17T12:01:04Z</time>
<desc>lat.=55.756897, lon.=26.220509, Alt.=157.791138m. Speed=21.132000m/h.</desc>
<speed>5.870000</speed>
</trkpt>
<trkpt lat="55.756927" lon="26.220436">
<ele>157.677856</ele>
<time>2010-07-17T12:01:05Z</time>
<desc>lat.=55.756927, lon.=26.220436, Alt.=157.677856m. Speed=20.664000m/h.</desc>
<speed>5.740000</speed>
</trkpt>
<trkpt lat="55.756958" lon="26.220364">
<ele>157.591919</ele>
<time>2010-07-17T12:01:06Z</time>
<desc>lat.=55.756958, lon.=26.220364, Alt.=157.591919m. Speed=20.952000m/h.</desc>
<speed>5.820000</speed>
</trkpt>
<trkpt lat="55.756989" lon="26.220284">
<ele>157.619263</ele>
<time>2010-07-17T12:01:07Z</time>
<desc>lat.=55.756989, lon.=26.220284, Alt.=157.619263m. Speed=21.240000m/h.</desc>
<speed>5.900000</speed>
</trkpt>
<trkpt lat="55.757019" lon="26.220205">
<ele>157.638794</ele>
<time>2010-07-17T12:01:08Z</time>
<desc>lat.=55.757019, lon.=26.220205, Alt.=157.638794m. Speed=22.068001m/h.</desc>
<speed>6.130000</speed>
</trkpt>
<trkpt lat="55.757053" lon="26.220123">
<ele>157.568481</ele>
<time>2010-07-17T12:01:09Z</time>
<desc>lat.=55.757053, lon.=26.220123, Alt.=157.568481m. Speed=22.716000m/h.</desc>
<speed>6.310000</speed>
</trkpt>
<trkpt lat="55.757088" lon="26.220041">
<ele>157.494263</ele>
<time>2010-07-17T12:01:10Z</time>
<desc>lat.=55.757088, lon.=26.220041, Alt.=157.494263m. Speed=22.608000m/h.</desc>
<speed>6.280000</speed>
</trkpt>
<trkpt lat="55.757118" lon="26.219957">
<ele>157.677856</ele>
<time>2010-07-17T12:01:11Z</time>
<desc>lat.=55.757118, lon.=26.219957, Alt.=157.677856m. Speed=23.256001m/h.</desc>
<speed>6.460000</speed>
</trkpt>
<trkpt lat="55.757149" lon="26.219872">
<ele>157.681763</ele>
<time>2010-07-17T12:01:12Z</time>
<desc>lat.=55.757149, lon.=26.219872, Alt.=157.681763m. Speed=22.643999m/h.</desc>
<speed>6.290000</speed>
</trkpt>
<trkpt lat="55.757175" lon="26.219790">
<ele>157.677856</ele>
<time>2010-07-17T12:01:13Z</time>
<desc>lat.=55.757175, lon.=26.219790, Alt.=157.677856m. Speed=21.996000m/h.</desc>
<speed>6.110000</speed>
</trkpt>
<trkpt lat="55.757206" lon="26.219709">
<ele>157.630981</ele>
<time>2010-07-17T12:01:14Z</time>
<desc>lat.=55.757206, lon.=26.219709, Alt.=157.630981m. Speed=22.823999m/h.</desc>
<speed>6.340000</speed>
</trkpt>
<trkpt lat="55.757240" lon="26.219629">
<ele>157.494263</ele>
<time>2010-07-17T12:01:15Z</time>
<desc>lat.=55.757240, lon.=26.219629, Alt.=157.494263m. Speed=22.212000m/h.</desc>
<speed>6.170000</speed>
</trkpt>
<trkpt lat="55.757271" lon="26.219545">
<ele>157.404419</ele>
<time>2010-07-17T12:01:16Z</time>
<desc>lat.=55.757271, lon.=26.219545, Alt.=157.404419m. Speed=21.996000m/h.</desc>
<speed>6.110000</speed>
</trkpt>
<trkpt lat="55.757301" lon="26.219465">
<ele>157.361450</ele>
<time>2010-07-17T12:01:17Z</time>
<desc>lat.=55.757301, lon.=26.219465, Alt.=157.361450m. Speed=21.563999m/h.</desc>
<speed>5.990000</speed>
</trkpt>
<trkpt lat="55.757332" lon="26.219395">
<ele>157.236450</ele>
<time>2010-07-17T12:01:18Z</time>
<desc>lat.=55.757332, lon.=26.219395, Alt.=157.236450m. Speed=20.771999m/h.</desc>
<speed>5.770000</speed>
</trkpt>
<trkpt lat="55.757362" lon="26.219328">
<ele>157.107544</ele>
<time>2010-07-17T12:01:19Z</time>
<desc>lat.=55.757362, lon.=26.219328, Alt.=157.107544m. Speed=20.771999m/h.</desc>
<speed>5.770000</speed>
</trkpt>
<trkpt lat="55.757393" lon="26.219259">
<ele>157.005981</ele>
<time>2010-07-17T12:01:20Z</time>
<desc>lat.=55.757393, lon.=26.219259, Alt.=157.005981m. Speed=20.808001m/h.</desc>
<speed>5.780000</speed>
</trkpt>
<trkpt lat="55.757427" lon="26.219183">
<ele>156.814575</ele>
<time>2010-07-17T12:01:21Z</time>
<desc>lat.=55.757427, lon.=26.219183, Alt.=156.814575m. Speed=20.520000m/h.</desc>
<speed>5.700000</speed>
</trkpt>
<trkpt lat="55.757458" lon="26.219112">
<ele>156.662231</ele>
<time>2010-07-17T12:01:22Z</time>
<desc>lat.=55.757458, lon.=26.219112, Alt.=156.662231m. Speed=20.483999m/h.</desc>
<speed>5.690000</speed>
</trkpt>
<trkpt lat="55.757484" lon="26.219046">
<ele>156.502075</ele>
<time>2010-07-17T12:01:23Z</time>
<desc>lat.=55.757484, lon.=26.219046, Alt.=156.502075m. Speed=20.087999m/h.</desc>
<speed>5.580000</speed>
</trkpt>
<trkpt lat="55.757511" lon="26.218975">
<ele>156.283325</ele>
<time>2010-07-17T12:01:24Z</time>
<desc>lat.=55.757511, lon.=26.218975, Alt.=156.283325m. Speed=19.548000m/h.</desc>
<speed>5.430000</speed>
</trkpt>
<trkpt lat="55.757538" lon="26.218906">
<ele>155.974731</ele>
<time>2010-07-17T12:01:25Z</time>
<desc>lat.=55.757538, lon.=26.218906, Alt.=155.974731m. Speed=19.115999m/h.</desc>
<speed>5.310000</speed>
</trkpt>
<trkpt lat="55.757565" lon="26.218838">
<ele>155.732544</ele>
<time>2010-07-17T12:01:26Z</time>
<desc>lat.=55.757565, lon.=26.218838, Alt.=155.732544m. Speed=18.288000m/h.</desc>
<speed>5.080000</speed>
</trkpt>
<trkpt lat="55.757595" lon="26.218769">
<ele>155.537231</ele>
<time>2010-07-17T12:01:27Z</time>
<desc>lat.=55.757595, lon.=26.218769, Alt.=155.537231m. Speed=18.792000m/h.</desc>
<speed>5.220000</speed>
</trkpt>
<trkpt lat="55.757622" lon="26.218706">
<ele>155.252075</ele>
<time>2010-07-17T12:01:28Z</time>
<desc>lat.=55.757622, lon.=26.218706, Alt.=155.252075m. Speed=17.927999m/h.</desc>
<speed>4.980000</speed>
</trkpt>
<trkpt lat="55.757648" lon="26.218641">
<ele>154.923950</ele>
<time>2010-07-17T12:01:29Z</time>
<desc>lat.=55.757648, lon.=26.218641, Alt.=154.923950m. Speed=17.892000m/h.</desc>
<speed>4.970000</speed>
</trkpt>
<trkpt lat="55.757671" lon="26.218578">
<ele>154.677856</ele>
<time>2010-07-17T12:01:30Z</time>
<desc>lat.=55.757671, lon.=26.218578, Alt.=154.677856m. Speed=17.532000m/h.</desc>
<speed>4.870000</speed>
</trkpt>
<trkpt lat="55.757702" lon="26.218496">
<ele>154.412231</ele>
<time>2010-07-17T12:01:31Z</time>
<desc>lat.=55.757702, lon.=26.218496, Alt.=154.412231m. Speed=18.000000m/h.</desc>
<speed>5.000000</speed>
</trkpt>
<trkpt lat="55.757725" lon="26.218420">
<ele>154.279419</ele>
<time>2010-07-17T12:01:32Z</time>
<desc>lat.=55.757725, lon.=26.218420, Alt.=154.279419m. Speed=16.632000m/h.</desc>
<speed>4.620000</speed>
</trkpt>
<trkpt lat="55.757751" lon="26.218353">
<ele>153.970825</ele>
<time>2010-07-17T12:01:33Z</time>
<desc>lat.=55.757751, lon.=26.218353, Alt.=153.970825m. Speed=16.884001m/h.</desc>
<speed>4.690000</speed>
</trkpt>
<trkpt lat="55.757774" lon="26.218296">
<ele>153.615356</ele>
<time>2010-07-17T12:01:34Z</time>
<desc>lat.=55.757774, lon.=26.218296, Alt.=153.615356m. Speed=16.344000m/h.</desc>
<speed>4.540000</speed>
</trkpt>
<trkpt lat="55.757790" lon="26.218248">
<ele>153.361450</ele>
<time>2010-07-17T12:01:35Z</time>
<desc>lat.=55.757790, lon.=26.218248, Alt.=153.361450m. Speed=15.840000m/h.</desc>
<speed>4.400000</speed>
</trkpt>
<trkpt lat="55.757813" lon="26.218201">
<ele>153.084106</ele>
<time>2010-07-17T12:01:36Z</time>
<desc>lat.=55.757813, lon.=26.218201, Alt.=153.084106m. Speed=15.912000m/h.</desc>
<speed>4.420000</speed>
</trkpt>
<trkpt lat="55.757832" lon="26.218142">
<ele>152.853638</ele>
<time>2010-07-17T12:01:37Z</time>
<desc>lat.=55.757832, lon.=26.218142, Alt.=152.853638m. Speed=16.236000m/h.</desc>
<speed>4.510000</speed>
</trkpt>
<trkpt lat="55.757858" lon="26.218084">
<ele>152.642700</ele>
<time>2010-07-17T12:01:38Z</time>
<desc>lat.=55.757858, lon.=26.218084, Alt.=152.642700m. Speed=15.336000m/h.</desc>
<speed>4.260000</speed>
</trkpt>
<trkpt lat="55.757889" lon="26.218012">
<ele>152.486450</ele>
<time>2010-07-17T12:01:39Z</time>
<desc>lat.=55.757889, lon.=26.218012, Alt.=152.486450m. Speed=17.712000m/h.</desc>
<speed>4.920000</speed>
</trkpt>
<trkpt lat="55.757923" lon="26.217943">
<ele>152.259888</ele>
<time>2010-07-17T12:01:40Z</time>
<desc>lat.=55.757923, lon.=26.217943, Alt.=152.259888m. Speed=18.684000m/h.</desc>
<speed>5.190000</speed>
</trkpt>
<trkpt lat="55.757954" lon="26.217878">
<ele>152.045044</ele>
<time>2010-07-17T12:01:41Z</time>
<desc>lat.=55.757954, lon.=26.217878, Alt.=152.045044m. Speed=18.827999m/h.</desc>
<speed>5.230000</speed>
</trkpt>
<trkpt lat="55.757984" lon="26.217817">
<ele>151.802856</ele>
<time>2010-07-17T12:01:42Z</time>
<desc>lat.=55.757984, lon.=26.217817, Alt.=151.802856m. Speed=20.016001m/h.</desc>
<speed>5.560000</speed>
</trkpt>
<trkpt lat="55.758018" lon="26.217751">
<ele>151.646606</ele>
<time>2010-07-17T12:01:43Z</time>
<desc>lat.=55.758018, lon.=26.217751, Alt.=151.646606m. Speed=20.700001m/h.</desc>
<speed>5.750000</speed>
</trkpt>
<trkpt lat="55.758049" lon="26.217667">
<ele>151.552856</ele>
<time>2010-07-17T12:01:44Z</time>
<desc>lat.=55.758049, lon.=26.217667, Alt.=151.552856m. Speed=21.455999m/h.</desc>
<speed>5.960000</speed>
</trkpt>
<trkpt lat="55.758083" lon="26.217587">
<ele>151.431763</ele>
<time>2010-07-17T12:01:45Z</time>
<desc>lat.=55.758083, lon.=26.217587, Alt.=151.431763m. Speed=21.420000m/h.</desc>
<speed>5.950000</speed>
</trkpt>
<trkpt lat="55.758110" lon="26.217497">
<ele>151.088013</ele>
<time>2010-07-17T12:01:46Z</time>
<desc>lat.=55.758110, lon.=26.217497, Alt.=151.088013m. Speed=22.139999m/h.</desc>
<speed>6.150000</speed>
</trkpt>
<trkpt lat="55.758141" lon="26.217413">
<ele>150.853638</ele>
<time>2010-07-17T12:01:47Z</time>
<desc>lat.=55.758141, lon.=26.217413, Alt.=150.853638m. Speed=23.004000m/h.</desc>
<speed>6.390000</speed>
</trkpt>
<trkpt lat="55.758171" lon="26.217331">
<ele>150.709106</ele>
<time>2010-07-17T12:01:48Z</time>
<desc>lat.=55.758171, lon.=26.217331, Alt.=150.709106m. Speed=23.184000m/h.</desc>
<speed>6.440000</speed>
</trkpt>
<trkpt lat="55.758202" lon="26.217247">
<ele>150.451294</ele>
<time>2010-07-17T12:01:49Z</time>
<desc>lat.=55.758202, lon.=26.217247, Alt.=150.451294m. Speed=23.040001m/h.</desc>
<speed>6.400000</speed>
</trkpt>
<trkpt lat="55.758236" lon="26.217167">
<ele>150.205200</ele>
<time>2010-07-17T12:01:50Z</time>
<desc>lat.=55.758236, lon.=26.217167, Alt.=150.205200m. Speed=22.788000m/h.</desc>
<speed>6.330000</speed>
</trkpt>
<trkpt lat="55.758270" lon="26.217085">
<ele>149.927856</ele>
<time>2010-07-17T12:01:51Z</time>
<desc>lat.=55.758270, lon.=26.217085, Alt.=149.927856m. Speed=22.752001m/h.</desc>
<speed>6.320000</speed>
</trkpt>
<trkpt lat="55.758305" lon="26.216995">
<ele>149.724731</ele>
<time>2010-07-17T12:01:52Z</time>
<desc>lat.=55.758305, lon.=26.216995, Alt.=149.724731m. Speed=22.716000m/h.</desc>
<speed>6.310000</speed>
</trkpt>
<trkpt lat="55.758331" lon="26.216909">
<ele>149.486450</ele>
<time>2010-07-17T12:01:53Z</time>
<desc>lat.=55.758331, lon.=26.216909, Alt.=149.486450m. Speed=23.004000m/h.</desc>
<speed>6.390000</speed>
</trkpt>
<trkpt lat="55.758366" lon="26.216829">
<ele>149.173950</ele>
<time>2010-07-17T12:01:54Z</time>
<desc>lat.=55.758366, lon.=26.216829, Alt.=149.173950m. Speed=22.860001m/h.</desc>
<speed>6.350000</speed>
</trkpt>
<trkpt lat="55.758400" lon="26.216757">
<ele>148.783325</ele>
<time>2010-07-17T12:01:55Z</time>
<desc>lat.=55.758400, lon.=26.216757, Alt.=148.783325m. Speed=22.284000m/h.</desc>
<speed>6.190000</speed>
</trkpt>
<trkpt lat="55.758430" lon="26.216679">
<ele>148.525513</ele>
<time>2010-07-17T12:01:56Z</time>
<desc>lat.=55.758430, lon.=26.216679, Alt.=148.525513m. Speed=21.959999m/h.</desc>
<speed>6.100000</speed>
</trkpt>
<trkpt lat="55.758465" lon="26.216600">
<ele>148.244263</ele>
<time>2010-07-17T12:01:57Z</time>
<desc>lat.=55.758465, lon.=26.216600, Alt.=148.244263m. Speed=22.752001m/h.</desc>
<speed>6.320000</speed>
</trkpt>
<trkpt lat="55.758484" lon="26.216528">
<ele>147.912231</ele>
<time>2010-07-17T12:01:58Z</time>
<desc>lat.=55.758484, lon.=26.216528, Alt.=147.912231m. Speed=15.048000m/h.</desc>
<speed>4.180000</speed>
</trkpt>
<trkpt lat="55.758511" lon="26.216452">
<ele>147.595825</ele>
<time>2010-07-17T12:01:59Z</time>
<desc>lat.=55.758511, lon.=26.216452, Alt.=147.595825m. Speed=22.284000m/h.</desc>
<speed>6.190000</speed>
</trkpt>
<trkpt lat="55.758545" lon="26.216370">
<ele>147.267700</ele>
<time>2010-07-17T12:02:00Z</time>
<desc>lat.=55.758545, lon.=26.216370, Alt.=147.267700m. Speed=22.716000m/h.</desc>
<speed>6.310000</speed>
</trkpt>
<trkpt lat="55.758579" lon="26.216280">
<ele>146.892700</ele>
<time>2010-07-17T12:02:01Z</time>
<desc>lat.=55.758579, lon.=26.216280, Alt.=146.892700m. Speed=24.299999m/h.</desc>
<speed>6.750000</speed>
</trkpt>
<trkpt lat="55.758614" lon="26.216187">
<ele>146.548950</ele>
<time>2010-07-17T12:02:02Z</time>
<desc>lat.=55.758614, lon.=26.216187, Alt.=146.548950m. Speed=25.128000m/h.</desc>
<speed>6.980000</speed>
</trkpt>
<trkpt lat="55.758652" lon="26.216091">
<ele>146.267700</ele>
<time>2010-07-17T12:02:03Z</time>
<desc>lat.=55.758652, lon.=26.216091, Alt.=146.267700m. Speed=25.091999m/h.</desc>
<speed>6.970000</speed>
</trkpt>
<trkpt lat="55.758690" lon="26.216005">
<ele>145.896606</ele>
<time>2010-07-17T12:02:04Z</time>
<desc>lat.=55.758690, lon.=26.216005, Alt.=145.896606m. Speed=24.732000m/h.</desc>
<speed>6.870000</speed>
</trkpt>
<trkpt lat="55.758724" lon="26.215912">
<ele>145.580200</ele>
<time>2010-07-17T12:02:05Z</time>
<desc>lat.=55.758724, lon.=26.215912, Alt.=145.580200m. Speed=24.480000m/h.</desc>
<speed>6.800000</speed>
</trkpt>
<trkpt lat="55.758759" lon="26.215811">
<ele>145.338013</ele>
<time>2010-07-17T12:02:06Z</time>
<desc>lat.=55.758759, lon.=26.215811, Alt.=145.338013m. Speed=23.652000m/h.</desc>
<speed>6.570000</speed>
</trkpt>
<trkpt lat="55.758793" lon="26.215712">
<ele>145.115356</ele>
<time>2010-07-17T12:02:07Z</time>
<desc>lat.=55.758793, lon.=26.215712, Alt.=145.115356m. Speed=24.444000m/h.</desc>
<speed>6.790000</speed>
</trkpt>
<trkpt lat="55.758823" lon="26.215612">
<ele>144.849731</ele>
<time>2010-07-17T12:02:08Z</time>
<desc>lat.=55.758823, lon.=26.215612, Alt.=144.849731m. Speed=24.840000m/h.</desc>
<speed>6.900000</speed>
</trkpt>
<trkpt lat="55.758858" lon="26.215523">
<ele>144.502075</ele>
<time>2010-07-17T12:02:09Z</time>
<desc>lat.=55.758858, lon.=26.215523, Alt.=144.502075m. Speed=24.695999m/h.</desc>
<speed>6.860000</speed>
</trkpt>
<trkpt lat="55.758896" lon="26.215443">
<ele>144.107544</ele>
<time>2010-07-17T12:02:10Z</time>
<desc>lat.=55.758896, lon.=26.215443, Alt.=144.107544m. Speed=24.084000m/h.</desc>
<speed>6.690000</speed>
</trkpt>
<trkpt lat="55.758930" lon="26.215366">
<ele>143.724731</ele>
<time>2010-07-17T12:02:11Z</time>
<desc>lat.=55.758930, lon.=26.215366, Alt.=143.724731m. Speed=24.156000m/h.</desc>
<speed>6.710000</speed>
</trkpt>
<trkpt lat="55.758968" lon="26.215277">
<ele>143.517700</ele>
<time>2010-07-17T12:02:12Z</time>
<desc>lat.=55.758968, lon.=26.215277, Alt.=143.517700m. Speed=24.011999m/h.</desc>
<speed>6.670000</speed>
</trkpt>
<trkpt lat="55.759007" lon="26.215187">
<ele>143.490356</ele>
<time>2010-07-17T12:02:13Z</time>
<desc>lat.=55.759007, lon.=26.215187, Alt.=143.490356m. Speed=23.724001m/h.</desc>
<speed>6.590000</speed>
</trkpt>
<trkpt lat="55.759045" lon="26.215096">
<ele>143.142700</ele>
<time>2010-07-17T12:02:14Z</time>
<desc>lat.=55.759045, lon.=26.215096, Alt.=143.142700m. Speed=23.652000m/h.</desc>
<speed>6.570000</speed>
</trkpt>
<trkpt lat="55.759079" lon="26.214994">
<ele>143.056763</ele>
<time>2010-07-17T12:02:15Z</time>
<desc>lat.=55.759079, lon.=26.214994, Alt.=143.056763m. Speed=23.868000m/h.</desc>
<speed>6.630000</speed>
</trkpt>
<trkpt lat="55.759117" lon="26.214903">
<ele>143.095825</ele>
<time>2010-07-17T12:02:16Z</time>
<desc>lat.=55.759117, lon.=26.214903, Alt.=143.095825m. Speed=24.048000m/h.</desc>
<speed>6.680000</speed>
</trkpt>
<trkpt lat="55.759151" lon="26.214811">
<ele>142.810669</ele>
<time>2010-07-17T12:02:17Z</time>
<desc>lat.=55.759151, lon.=26.214811, Alt.=142.810669m. Speed=23.796000m/h.</desc>
<speed>6.610000</speed>
</trkpt>
<trkpt lat="55.759186" lon="26.214729">
<ele>142.502075</ele>
<time>2010-07-17T12:02:18Z</time>
<desc>lat.=55.759186, lon.=26.214729, Alt.=142.502075m. Speed=23.112000m/h.</desc>
<speed>6.420000</speed>
</trkpt>
<trkpt lat="55.759216" lon="26.214651">
<ele>142.193481</ele>
<time>2010-07-17T12:02:19Z</time>
<desc>lat.=55.759216, lon.=26.214651, Alt.=142.193481m. Speed=23.615999m/h.</desc>
<speed>6.560000</speed>
</trkpt>
<trkpt lat="55.759251" lon="26.214575">
<ele>141.666138</ele>
<time>2010-07-17T12:02:20Z</time>
<desc>lat.=55.759251, lon.=26.214575, Alt.=141.666138m. Speed=23.580000m/h.</desc>
<speed>6.550000</speed>
</trkpt>
<trkpt lat="55.759285" lon="26.214487">
<ele>141.220825</ele>
<time>2010-07-17T12:02:21Z</time>
<desc>lat.=55.759285, lon.=26.214487, Alt.=141.220825m. Speed=23.219999m/h.</desc>
<speed>6.450000</speed>
</trkpt>
<trkpt lat="55.759315" lon="26.214401">
<ele>141.173950</ele>
<time>2010-07-17T12:02:22Z</time>
<desc>lat.=55.759315, lon.=26.214401, Alt.=141.173950m. Speed=22.032000m/h.</desc>
<speed>6.120000</speed>
</trkpt>
<trkpt lat="55.759350" lon="26.214317">
<ele>141.302856</ele>
<time>2010-07-17T12:02:23Z</time>
<desc>lat.=55.759350, lon.=26.214317, Alt.=141.302856m. Speed=21.348000m/h.</desc>
<speed>5.930000</speed>
</trkpt>
<trkpt lat="55.759384" lon="26.214233">
<ele>141.248169</ele>
<time>2010-07-17T12:02:24Z</time>
<desc>lat.=55.759384, lon.=26.214233, Alt.=141.248169m. Speed=21.672001m/h.</desc>
<speed>6.020000</speed>
</trkpt>
<trkpt lat="55.759418" lon="26.214151">
<ele>141.423950</ele>
<time>2010-07-17T12:02:25Z</time>
<desc>lat.=55.759418, lon.=26.214151, Alt.=141.423950m. Speed=21.528000m/h.</desc>
<speed>5.980000</speed>
</trkpt>
<trkpt lat="55.759453" lon="26.214066">
<ele>141.560669</ele>
<time>2010-07-17T12:02:26Z</time>
<desc>lat.=55.759453, lon.=26.214066, Alt.=141.560669m. Speed=22.535999m/h.</desc>
<speed>6.260000</speed>
</trkpt>
<trkpt lat="55.759491" lon="26.213980">
<ele>141.970825</ele>
<time>2010-07-17T12:02:27Z</time>
<desc>lat.=55.759491, lon.=26.213980, Alt.=141.970825m. Speed=22.608000m/h.</desc>
<speed>6.280000</speed>
</trkpt>
<trkpt lat="55.759529" lon="26.213896">
<ele>142.072388</ele>
<time>2010-07-17T12:02:28Z</time>
<desc>lat.=55.759529, lon.=26.213896, Alt.=142.072388m. Speed=23.040001m/h.</desc>
<speed>6.400000</speed>
</trkpt>
<trkpt lat="55.759560" lon="26.213814">
<ele>141.982544</ele>
<time>2010-07-17T12:02:29Z</time>
<desc>lat.=55.759560, lon.=26.213814, Alt.=141.982544m. Speed=22.320000m/h.</desc>
<speed>6.200000</speed>
</trkpt>
<trkpt lat="55.759594" lon="26.213737">
<ele>141.767700</ele>
<time>2010-07-17T12:02:30Z</time>
<desc>lat.=55.759594, lon.=26.213737, Alt.=141.767700m. Speed=22.896000m/h.</desc>
<speed>6.360000</speed>
</trkpt>
<trkpt lat="55.759621" lon="26.213661">
<ele>141.095825</ele>
<time>2010-07-17T12:02:31Z</time>
<desc>lat.=55.759621, lon.=26.213661, Alt.=141.095825m. Speed=23.256001m/h.</desc>
<speed>6.460000</speed>
</trkpt>
<trkpt lat="55.759651" lon="26.213585">
<ele>140.427856</ele>
<time>2010-07-17T12:02:32Z</time>
<desc>lat.=55.759651, lon.=26.213585, Alt.=140.427856m. Speed=22.212000m/h.</desc>
<speed>6.170000</speed>
</trkpt>
<trkpt lat="55.759682" lon="26.213507">
<ele>139.896606</ele>
<time>2010-07-17T12:02:33Z</time>
<desc>lat.=55.759682, lon.=26.213507, Alt.=139.896606m. Speed=21.888000m/h.</desc>
<speed>6.080000</speed>
</trkpt>
<trkpt lat="55.759716" lon="26.213423">
<ele>139.853638</ele>
<time>2010-07-17T12:02:34Z</time>
<desc>lat.=55.759716, lon.=26.213423, Alt.=139.853638m. Speed=21.600000m/h.</desc>
<speed>6.000000</speed>
</trkpt>
<trkpt lat="55.759750" lon="26.213335">
<ele>140.189575</ele>
<time>2010-07-17T12:02:35Z</time>
<desc>lat.=55.759750, lon.=26.213335, Alt.=140.189575m. Speed=22.139999m/h.</desc>
<speed>6.150000</speed>
</trkpt>
<trkpt lat="55.759781" lon="26.213253">
<ele>140.466919</ele>
<time>2010-07-17T12:02:36Z</time>
<desc>lat.=55.759781, lon.=26.213253, Alt.=140.466919m. Speed=22.535999m/h.</desc>
<speed>6.260000</speed>
</trkpt>
<trkpt lat="55.759819" lon="26.213160">
<ele>140.861450</ele>
<time>2010-07-17T12:02:37Z</time>
<desc>lat.=55.759819, lon.=26.213160, Alt.=140.861450m. Speed=23.148001m/h.</desc>
<speed>6.430000</speed>
</trkpt>
<trkpt lat="55.759857" lon="26.213068">
<ele>141.576294</ele>
<time>2010-07-17T12:02:38Z</time>
<desc>lat.=55.759857, lon.=26.213068, Alt.=141.576294m. Speed=22.176001m/h.</desc>
<speed>6.160000</speed>
</trkpt>
<trkpt lat="55.759895" lon="26.212978">
<ele>142.220825</ele>
<time>2010-07-17T12:02:39Z</time>
<desc>lat.=55.759895, lon.=26.212978, Alt.=142.220825m. Speed=21.959999m/h.</desc>
<speed>6.100000</speed>
</trkpt>
<trkpt lat="55.759933" lon="26.212896">
<ele>142.505981</ele>
<time>2010-07-17T12:02:40Z</time>
<desc>lat.=55.759933, lon.=26.212896, Alt.=142.505981m. Speed=21.240000m/h.</desc>
<speed>5.900000</speed>
</trkpt>
<trkpt lat="55.759968" lon="26.212818">
<ele>142.642700</ele>
<time>2010-07-17T12:02:41Z</time>
<desc>lat.=55.759968, lon.=26.212818, Alt.=142.642700m. Speed=20.520000m/h.</desc>
<speed>5.700000</speed>
</trkpt>
<trkpt lat="55.759995" lon="26.212744">
<ele>142.685669</ele>
<time>2010-07-17T12:02:42Z</time>
<desc>lat.=55.759995, lon.=26.212744, Alt.=142.685669m. Speed=19.944000m/h.</desc>
<speed>5.540000</speed>
</trkpt>
<trkpt lat="55.760025" lon="26.212671">
<ele>142.787231</ele>
<time>2010-07-17T12:02:43Z</time>
<desc>lat.=55.760025, lon.=26.212671, Alt.=142.787231m. Speed=20.879999m/h.</desc>
<speed>5.800000</speed>
</trkpt>
<trkpt lat="55.760056" lon="26.212605">
<ele>142.568481</ele>
<time>2010-07-17T12:02:44Z</time>
<desc>lat.=55.760056, lon.=26.212605, Alt.=142.568481m. Speed=20.771999m/h.</desc>
<speed>5.770000</speed>
</trkpt>
<trkpt lat="55.760082" lon="26.212532">
<ele>142.482544</ele>
<time>2010-07-17T12:02:45Z</time>
<desc>lat.=55.760082, lon.=26.212532, Alt.=142.482544m. Speed=21.096001m/h.</desc>
<speed>5.860000</speed>
</trkpt>
<trkpt lat="55.760113" lon="26.212461">
<ele>142.045044</ele>
<time>2010-07-17T12:02:46Z</time>
<desc>lat.=55.760113, lon.=26.212461, Alt.=142.045044m. Speed=20.916000m/h.</desc>
<speed>5.810000</speed>
</trkpt>
<trkpt lat="55.760139" lon="26.212395">
<ele>141.689575</ele>
<time>2010-07-17T12:02:47Z</time>
<desc>lat.=55.760139, lon.=26.212395, Alt.=141.689575m. Speed=20.375999m/h.</desc>
<speed>5.660000</speed>
</trkpt>
<trkpt lat="55.760166" lon="26.212322">
<ele>141.455200</ele>
<time>2010-07-17T12:02:48Z</time>
<desc>lat.=55.760166, lon.=26.212322, Alt.=141.455200m. Speed=20.232000m/h.</desc>
<speed>5.620000</speed>
</trkpt>
<trkpt lat="55.760197" lon="26.212250">
<ele>141.548950</ele>
<time>2010-07-17T12:02:49Z</time>
<desc>lat.=55.760197, lon.=26.212250, Alt.=141.548950m. Speed=20.195999m/h.</desc>
<speed>5.610000</speed>
</trkpt>
<trkpt lat="55.760227" lon="26.212183">
<ele>141.056763</ele>
<time>2010-07-17T12:02:50Z</time>
<desc>lat.=55.760227, lon.=26.212183, Alt.=141.056763m. Speed=19.799999m/h.</desc>
<speed>5.500000</speed>
</trkpt>
<trkpt lat="55.760258" lon="26.212109">
<ele>140.560669</ele>
<time>2010-07-17T12:02:51Z</time>
<desc>lat.=55.760258, lon.=26.212109, Alt.=140.560669m. Speed=19.944000m/h.</desc>
<speed>5.540000</speed>
</trkpt>
<trkpt lat="55.760284" lon="26.212042">
<ele>140.041138</ele>
<time>2010-07-17T12:02:52Z</time>
<desc>lat.=55.760284, lon.=26.212042, Alt.=140.041138m. Speed=19.368000m/h.</desc>
<speed>5.380000</speed>
</trkpt>
<trkpt lat="55.760311" lon="26.211973">
<ele>139.869263</ele>
<time>2010-07-17T12:02:53Z</time>
<desc>lat.=55.760311, lon.=26.211973, Alt.=139.869263m. Speed=19.188000m/h.</desc>
<speed>5.330000</speed>
</trkpt>
<trkpt lat="55.760342" lon="26.211906">
<ele>140.056763</ele>
<time>2010-07-17T12:02:54Z</time>
<desc>lat.=55.760342, lon.=26.211906, Alt.=140.056763m. Speed=18.756001m/h.</desc>
<speed>5.210000</speed>
</trkpt>
<trkpt lat="55.760376" lon="26.211840">
<ele>140.505981</ele>
<time>2010-07-17T12:02:55Z</time>
<desc>lat.=55.760376, lon.=26.211840, Alt.=140.505981m. Speed=18.900000m/h.</desc>
<speed>5.250000</speed>
</trkpt>
<trkpt lat="55.760403" lon="26.211779">
<ele>140.150513</ele>
<time>2010-07-17T12:02:56Z</time>
<desc>lat.=55.760403, lon.=26.211779, Alt.=140.150513m. Speed=18.108000m/h.</desc>
<speed>5.030000</speed>
</trkpt>
<trkpt lat="55.760429" lon="26.211712">
<ele>140.470825</ele>
<time>2010-07-17T12:02:57Z</time>
<desc>lat.=55.760429, lon.=26.211712, Alt.=140.470825m. Speed=16.955999m/h.</desc>
<speed>4.710000</speed>
</trkpt>
<trkpt lat="55.760456" lon="26.211651">
<ele>140.568481</ele>
<time>2010-07-17T12:02:58Z</time>
<desc>lat.=55.760456, lon.=26.211651, Alt.=140.568481m. Speed=16.992001m/h.</desc>
<speed>4.720000</speed>
</trkpt>
<trkpt lat="55.760487" lon="26.211584">
<ele>141.095825</ele>
<time>2010-07-17T12:02:59Z</time>
<desc>lat.=55.760487, lon.=26.211584, Alt.=141.095825m. Speed=16.236000m/h.</desc>
<speed>4.510000</speed>
</trkpt>
<trkpt lat="55.760513" lon="26.211525">
<ele>141.670044</ele>
<time>2010-07-17T12:03:00Z</time>
<desc>lat.=55.760513, lon.=26.211525, Alt.=141.670044m. Speed=15.876000m/h.</desc>
<speed>4.410000</speed>
</trkpt>
<trkpt lat="55.760536" lon="26.211464">
<ele>141.677856</ele>
<time>2010-07-17T12:03:01Z</time>
<desc>lat.=55.760536, lon.=26.211464, Alt.=141.677856m. Speed=15.840000m/h.</desc>
<speed>4.400000</speed>
</trkpt>
<trkpt lat="55.760578" lon="26.211391">
<ele>145.068481</ele>
<time>2010-07-17T12:03:02Z</time>
<desc>lat.=55.760578, lon.=26.211391, Alt.=145.068481m. Speed=15.228000m/h.</desc>
<speed>4.230000</speed>
</trkpt>
<trkpt lat="55.760609" lon="26.211327">
<ele>146.548950</ele>
<time>2010-07-17T12:03:03Z</time>
<desc>lat.=55.760609, lon.=26.211327, Alt.=146.548950m. Speed=14.976000m/h.</desc>
<speed>4.160000</speed>
</trkpt>
<trkpt lat="55.760639" lon="26.211273">
<ele>147.970825</ele>
<time>2010-07-17T12:03:04Z</time>
<desc>lat.=55.760639, lon.=26.211273, Alt.=147.970825m. Speed=14.076000m/h.</desc>
<speed>3.910000</speed>
</trkpt>
<trkpt lat="55.760666" lon="26.211227">
<ele>148.806763</ele>
<time>2010-07-17T12:03:05Z</time>
<desc>lat.=55.760666, lon.=26.211227, Alt.=148.806763m. Speed=13.608000m/h.</desc>
<speed>3.780000</speed>
</trkpt>
<trkpt lat="55.760700" lon="26.211201">
<ele>150.400513</ele>
<time>2010-07-17T12:03:06Z</time>
<desc>lat.=55.760700, lon.=26.211201, Alt.=150.400513m. Speed=13.860000m/h.</desc>
<speed>3.850000</speed>
</trkpt>
<trkpt lat="55.760738" lon="26.211180">
<ele>151.248169</ele>
<time>2010-07-17T12:03:07Z</time>
<desc>lat.=55.760738, lon.=26.211180, Alt.=151.248169m. Speed=14.796000m/h.</desc>
<speed>4.110000</speed>
</trkpt>
<trkpt lat="55.760773" lon="26.211163">
<ele>151.986450</ele>
<time>2010-07-17T12:03:08Z</time>
<desc>lat.=55.760773, lon.=26.211163, Alt.=151.986450m. Speed=14.904000m/h.</desc>
<speed>4.140000</speed>
</trkpt>
<trkpt lat="55.760815" lon="26.211155">
<ele>153.021606</ele>
<time>2010-07-17T12:03:09Z</time>
<desc>lat.=55.760815, lon.=26.211155, Alt.=153.021606m. Speed=14.364000m/h.</desc>
<speed>3.990000</speed>
</trkpt>
<trkpt lat="55.760849" lon="26.211159">
<ele>153.060669</ele>
<time>2010-07-17T12:03:10Z</time>
<desc>lat.=55.760849, lon.=26.211159, Alt.=153.060669m. Speed=13.932000m/h.</desc>
<speed>3.870000</speed>
</trkpt>
<trkpt lat="55.760883" lon="26.211174">
<ele>153.271606</ele>
<time>2010-07-17T12:03:11Z</time>
<desc>lat.=55.760883, lon.=26.211174, Alt.=153.271606m. Speed=14.076000m/h.</desc>
<speed>3.910000</speed>
</trkpt>
<trkpt lat="55.760914" lon="26.211197">
<ele>153.787231</ele>
<time>2010-07-17T12:03:12Z</time>
<desc>lat.=55.760914, lon.=26.211197, Alt.=153.787231m. Speed=13.392000m/h.</desc>
<speed>3.720000</speed>
</trkpt>
<trkpt lat="55.760948" lon="26.211220">
<ele>154.322388</ele>
<time>2010-07-17T12:03:13Z</time>
<desc>lat.=55.760948, lon.=26.211220, Alt.=154.322388m. Speed=12.960000m/h.</desc>
<speed>3.600000</speed>
</trkpt>
<trkpt lat="55.760975" lon="26.211243">
<ele>154.423950</ele>
<time>2010-07-17T12:03:14Z</time>
<desc>lat.=55.760975, lon.=26.211243, Alt.=154.423950m. Speed=12.312000m/h.</desc>
<speed>3.420000</speed>
</trkpt>
<trkpt lat="55.761005" lon="26.211264">
<ele>154.896606</ele>
<time>2010-07-17T12:03:15Z</time>
<desc>lat.=55.761005, lon.=26.211264, Alt.=154.896606m. Speed=11.952000m/h.</desc>
<speed>3.320000</speed>
</trkpt>
<trkpt lat="55.761028" lon="26.211294">
<ele>154.767700</ele>
<time>2010-07-17T12:03:16Z</time>
<desc>lat.=55.761028, lon.=26.211294, Alt.=154.767700m. Speed=11.664000m/h.</desc>
<speed>3.240000</speed>
</trkpt>
<trkpt lat="55.761055" lon="26.211321">
<ele>154.896606</ele>
<time>2010-07-17T12:03:17Z</time>
<desc>lat.=55.761055, lon.=26.211321, Alt.=154.896606m. Speed=11.448000m/h.</desc>
<speed>3.180000</speed>
</trkpt>
<trkpt lat="55.761082" lon="26.211346">
<ele>154.955200</ele>
<time>2010-07-17T12:03:18Z</time>
<desc>lat.=55.761082, lon.=26.211346, Alt.=154.955200m. Speed=11.232000m/h.</desc>
<speed>3.120000</speed>
</trkpt>
<trkpt lat="55.761105" lon="26.211367">
<ele>154.959106</ele>
<time>2010-07-17T12:03:19Z</time>
<desc>lat.=55.761105, lon.=26.211367, Alt.=154.959106m. Speed=10.080000m/h.</desc>
<speed>2.800000</speed>
</trkpt>
<trkpt lat="55.761127" lon="26.211388">
<ele>155.088013</ele>
<time>2010-07-17T12:03:20Z</time>
<desc>lat.=55.761127, lon.=26.211388, Alt.=155.088013m. Speed=9.612000m/h.</desc>
<speed>2.670000</speed>
</trkpt>
<trkpt lat="55.761150" lon="26.211407">
<ele>155.162231</ele>
<time>2010-07-17T12:03:21Z</time>
<desc>lat.=55.761150, lon.=26.211407, Alt.=155.162231m. Speed=8.820000m/h.</desc>
<speed>2.450000</speed>
</trkpt>
<trkpt lat="55.761169" lon="26.211422">
<ele>155.259888</ele>
<time>2010-07-17T12:03:22Z</time>
<desc>lat.=55.761169, lon.=26.211422, Alt.=155.259888m. Speed=7.848000m/h.</desc>
<speed>2.180000</speed>
</trkpt>
<trkpt lat="55.761189" lon="26.211435">
<ele>155.345825</ele>
<time>2010-07-17T12:03:23Z</time>
<desc>lat.=55.761189, lon.=26.211435, Alt.=155.345825m. Speed=7.560000m/h.</desc>
<speed>2.100000</speed>
</trkpt>
<trkpt lat="55.761204" lon="26.211449">
<ele>155.490356</ele>
<time>2010-07-17T12:03:24Z</time>
<desc>lat.=55.761204, lon.=26.211449, Alt.=155.490356m. Speed=6.984000m/h.</desc>
<speed>1.940000</speed>
</trkpt>
<trkpt lat="55.761219" lon="26.211464">
<ele>155.556763</ele>
<time>2010-07-17T12:03:25Z</time>
<desc>lat.=55.761219, lon.=26.211464, Alt.=155.556763m. Speed=6.228000m/h.</desc>
<speed>1.730000</speed>
</trkpt>
<trkpt lat="55.761230" lon="26.211472">
<ele>155.634888</ele>
<time>2010-07-17T12:03:26Z</time>
<desc>lat.=55.761230, lon.=26.211472, Alt.=155.634888m. Speed=6.408000m/h.</desc>
<speed>1.780000</speed>
</trkpt>
<trkpt lat="55.761246" lon="26.211481">
<ele>155.650513</ele>
<time>2010-07-17T12:03:27Z</time>
<desc>lat.=55.761246, lon.=26.211481, Alt.=155.650513m. Speed=5.616000m/h.</desc>
<speed>1.560000</speed>
</trkpt>
<trkpt lat="55.761257" lon="26.211489">
<ele>155.681763</ele>
<time>2010-07-17T12:03:28Z</time>
<desc>lat.=55.761257, lon.=26.211489, Alt.=155.681763m. Speed=4.968000m/h.</desc>
<speed>1.380000</speed>
</trkpt>
<trkpt lat="55.761269" lon="26.211496">
<ele>155.736450</ele>
<time>2010-07-17T12:03:29Z</time>
<desc>lat.=55.761269, lon.=26.211496, Alt.=155.736450m. Speed=6.372000m/h.</desc>
<speed>1.770000</speed>
</trkpt>
<trkpt lat="55.761284" lon="26.211506">
<ele>155.865356</ele>
<time>2010-07-17T12:03:30Z</time>
<desc>lat.=55.761284, lon.=26.211506, Alt.=155.865356m. Speed=5.652000m/h.</desc>
<speed>1.570000</speed>
</trkpt>
<trkpt lat="55.761295" lon="26.211521">
<ele>155.994263</ele>
<time>2010-07-17T12:03:31Z</time>
<desc>lat.=55.761295, lon.=26.211521, Alt.=155.994263m. Speed=5.904000m/h.</desc>
<speed>1.640000</speed>
</trkpt>
<trkpt lat="55.761314" lon="26.211527">
<ele>156.072388</ele>
<time>2010-07-17T12:03:32Z</time>
<desc>lat.=55.761314, lon.=26.211527, Alt.=156.072388m. Speed=6.516000m/h.</desc>
<speed>1.810000</speed>
</trkpt>
<trkpt lat="55.761333" lon="26.211531">
<ele>156.099731</ele>
<time>2010-07-17T12:03:33Z</time>
<desc>lat.=55.761333, lon.=26.211531, Alt.=156.099731m. Speed=5.040000m/h.</desc>
<speed>1.400000</speed>
</trkpt>
<trkpt lat="55.761349" lon="26.211531">
<ele>156.166138</ele>
<time>2010-07-17T12:03:34Z</time>
<desc>lat.=55.761349, lon.=26.211531, Alt.=156.166138m. Speed=6.408000m/h.</desc>
<speed>1.780000</speed>
</trkpt>
<trkpt lat="55.761360" lon="26.211546">
<ele>156.259888</ele>
<time>2010-07-17T12:03:35Z</time>
<desc>lat.=55.761360, lon.=26.211546, Alt.=156.259888m. Speed=5.184000m/h.</desc>
<speed>1.440000</speed>
</trkpt>
<trkpt lat="55.761372" lon="26.211561">
<ele>156.298950</ele>
<time>2010-07-17T12:03:36Z</time>
<desc>lat.=55.761372, lon.=26.211561, Alt.=156.298950m. Speed=5.184000m/h.</desc>
<speed>1.440000</speed>
</trkpt>
<trkpt lat="55.761375" lon="26.211575">
<ele>156.310669</ele>
<time>2010-07-17T12:03:37Z</time>
<desc>lat.=55.761375, lon.=26.211575, Alt.=156.310669m. Speed=4.140000m/h.</desc>
<speed>1.150000</speed>
</trkpt>
<trkpt lat="55.761383" lon="26.211582">
<ele>156.357544</ele>
<time>2010-07-17T12:03:38Z</time>
<desc>lat.=55.761383, lon.=26.211582, Alt.=156.357544m. Speed=4.428000m/h.</desc>
<speed>1.230000</speed>
</trkpt>
<trkpt lat="55.761387" lon="26.211597">
<ele>156.361450</ele>
<time>2010-07-17T12:03:39Z</time>
<desc>lat.=55.761387, lon.=26.211597, Alt.=156.361450m. Speed=3.960000m/h.</desc>
<speed>1.100000</speed>
</trkpt>
<trkpt lat="55.761395" lon="26.211607">
<ele>156.408325</ele>
<time>2010-07-17T12:03:40Z</time>
<desc>lat.=55.761395, lon.=26.211607, Alt.=156.408325m. Speed=4.500000m/h.</desc>
<speed>1.250000</speed>
</trkpt>
<trkpt lat="55.761406" lon="26.211618">
<ele>156.353638</ele>
<time>2010-07-17T12:03:41Z</time>
<desc>lat.=55.761406, lon.=26.211618, Alt.=156.353638m. Speed=5.256000m/h.</desc>
<speed>1.460000</speed>
</trkpt>
<trkpt lat="55.761421" lon="26.211636">
<ele>156.365356</ele>
<time>2010-07-17T12:03:42Z</time>
<desc>lat.=55.761421, lon.=26.211636, Alt.=156.365356m. Speed=7.704000m/h.</desc>
<speed>2.140000</speed>
</trkpt>
<trkpt lat="55.761436" lon="26.211653">
<ele>156.400513</ele>
<time>2010-07-17T12:03:43Z</time>
<desc>lat.=55.761436, lon.=26.211653, Alt.=156.400513m. Speed=7.632000m/h.</desc>
<speed>2.120000</speed>
</trkpt>
<trkpt lat="55.761444" lon="26.211670">
<ele>156.170044</ele>
<time>2010-07-17T12:03:44Z</time>
<desc>lat.=55.761444, lon.=26.211670, Alt.=156.170044m. Speed=7.920000m/h.</desc>
<speed>2.200000</speed>
</trkpt>
<trkpt lat="55.761456" lon="26.211685">
<ele>156.228638</ele>
<time>2010-07-17T12:03:45Z</time>
<desc>lat.=55.761456, lon.=26.211685, Alt.=156.228638m. Speed=6.012000m/h.</desc>
<speed>1.670000</speed>
</trkpt>
<trkpt lat="55.761471" lon="26.211693">
<ele>156.240356</ele>
<time>2010-07-17T12:03:46Z</time>
<desc>lat.=55.761471, lon.=26.211693, Alt.=156.240356m. Speed=6.948000m/h.</desc>
<speed>1.930000</speed>
</trkpt>
<trkpt lat="55.761482" lon="26.211714">
<ele>156.459106</ele>
<time>2010-07-17T12:03:47Z</time>
<desc>lat.=55.761482, lon.=26.211714, Alt.=156.459106m. Speed=7.488000m/h.</desc>
<speed>2.080000</speed>
</trkpt>
<trkpt lat="55.761497" lon="26.211737">
<ele>156.466919</ele>
<time>2010-07-17T12:03:48Z</time>
<desc>lat.=55.761497, lon.=26.211737, Alt.=156.466919m. Speed=7.668000m/h.</desc>
<speed>2.130000</speed>
</trkpt>
<trkpt lat="55.761513" lon="26.211765">
<ele>156.658325</ele>
<time>2010-07-17T12:03:49Z</time>
<desc>lat.=55.761513, lon.=26.211765, Alt.=156.658325m. Speed=7.776000m/h.</desc>
<speed>2.160000</speed>
</trkpt>
<trkpt lat="55.761532" lon="26.211779">
<ele>156.771606</ele>
<time>2010-07-17T12:03:50Z</time>
<desc>lat.=55.761532, lon.=26.211779, Alt.=156.771606m. Speed=7.884000m/h.</desc>
<speed>2.190000</speed>
</trkpt>
<trkpt lat="55.761559" lon="26.211805">
<ele>157.084106</ele>
<time>2010-07-17T12:03:51Z</time>
<desc>lat.=55.761559, lon.=26.211805, Alt.=157.084106m. Speed=9.288000m/h.</desc>
<speed>2.580000</speed>
</trkpt>
<trkpt lat="55.761585" lon="26.211830">
<ele>156.603638</ele>
<time>2010-07-17T12:03:52Z</time>
<desc>lat.=55.761585, lon.=26.211830, Alt.=156.603638m. Speed=10.116000m/h.</desc>
<speed>2.810000</speed>
</trkpt>
<trkpt lat="55.761612" lon="26.211853">
<ele>156.607544</ele>
<time>2010-07-17T12:03:53Z</time>
<desc>lat.=55.761612, lon.=26.211853, Alt.=156.607544m. Speed=11.268000m/h.</desc>
<speed>3.130000</speed>
</trkpt>
<trkpt lat="55.761635" lon="26.211882">
<ele>156.505981</ele>
<time>2010-07-17T12:03:54Z</time>
<desc>lat.=55.761635, lon.=26.211882, Alt.=156.505981m. Speed=12.276000m/h.</desc>
<speed>3.410000</speed>
</trkpt>
<trkpt lat="55.761662" lon="26.211910">
<ele>156.775513</ele>
<time>2010-07-17T12:03:55Z</time>
<desc>lat.=55.761662, lon.=26.211910, Alt.=156.775513m. Speed=13.140000m/h.</desc>
<speed>3.650000</speed>
</trkpt>
<trkpt lat="55.761692" lon="26.211933">
<ele>156.607544</ele>
<time>2010-07-17T12:03:56Z</time>
<desc>lat.=55.761692, lon.=26.211933, Alt.=156.607544m. Speed=13.860000m/h.</desc>
<speed>3.850000</speed>
</trkpt>
<trkpt lat="55.761723" lon="26.211960">
<ele>156.548950</ele>
<time>2010-07-17T12:03:57Z</time>
<desc>lat.=55.761723, lon.=26.211960, Alt.=156.548950m. Speed=14.616000m/h.</desc>
<speed>4.060000</speed>
</trkpt>
<trkpt lat="55.761753" lon="26.211996">
<ele>156.380981</ele>
<time>2010-07-17T12:03:58Z</time>
<desc>lat.=55.761753, lon.=26.211996, Alt.=156.380981m. Speed=15.516000m/h.</desc>
<speed>4.310000</speed>
</trkpt>
<trkpt lat="55.761787" lon="26.212027">
<ele>156.306763</ele>
<time>2010-07-17T12:03:59Z</time>
<desc>lat.=55.761787, lon.=26.212027, Alt.=156.306763m. Speed=14.256000m/h.</desc>
<speed>3.960000</speed>
</trkpt>
<trkpt lat="55.761822" lon="26.212053">
<ele>156.271606</ele>
<time>2010-07-17T12:04:00Z</time>
<desc>lat.=55.761822, lon.=26.212053, Alt.=156.271606m. Speed=14.652000m/h.</desc>
<speed>4.070000</speed>
</trkpt>
<trkpt lat="55.761848" lon="26.212090">
<ele>156.193481</ele>
<time>2010-07-17T12:04:01Z</time>
<desc>lat.=55.761848, lon.=26.212090, Alt.=156.193481m. Speed=13.752000m/h.</desc>
<speed>3.820000</speed>
</trkpt>
<trkpt lat="55.761879" lon="26.212124">
<ele>156.181763</ele>
<time>2010-07-17T12:04:02Z</time>
<desc>lat.=55.761879, lon.=26.212124, Alt.=156.181763m. Speed=13.644000m/h.</desc>
<speed>3.790000</speed>
</trkpt>
<trkpt lat="55.761906" lon="26.212158">
<ele>156.173950</ele>
<time>2010-07-17T12:04:03Z</time>
<desc>lat.=55.761906, lon.=26.212158, Alt.=156.173950m. Speed=13.896000m/h.</desc>
<speed>3.860000</speed>
</trkpt>
<trkpt lat="55.761932" lon="26.212194">
<ele>156.177856</ele>
<time>2010-07-17T12:04:04Z</time>
<desc>lat.=55.761932, lon.=26.212194, Alt.=156.177856m. Speed=13.788000m/h.</desc>
<speed>3.830000</speed>
</trkpt>
<trkpt lat="55.761959" lon="26.212234">
<ele>156.330200</ele>
<time>2010-07-17T12:04:05Z</time>
<desc>lat.=55.761959, lon.=26.212234, Alt.=156.330200m. Speed=13.644000m/h.</desc>
<speed>3.790000</speed>
</trkpt>
<trkpt lat="55.761990" lon="26.212265">
<ele>156.658325</ele>
<time>2010-07-17T12:04:06Z</time>
<desc>lat.=55.761990, lon.=26.212265, Alt.=156.658325m. Speed=12.672000m/h.</desc>
<speed>3.520000</speed>
</trkpt>
<trkpt lat="55.762009" lon="26.212307">
<ele>156.611450</ele>
<time>2010-07-17T12:04:07Z</time>
<desc>lat.=55.762009, lon.=26.212307, Alt.=156.611450m. Speed=12.924000m/h.</desc>
<speed>3.590000</speed>
</trkpt>
<trkpt lat="55.762028" lon="26.212349">
<ele>156.607544</ele>
<time>2010-07-17T12:04:08Z</time>
<desc>lat.=55.762028, lon.=26.212349, Alt.=156.607544m. Speed=12.312000m/h.</desc>
<speed>3.420000</speed>
</trkpt>
<trkpt lat="55.762058" lon="26.212395">
<ele>156.959106</ele>
<time>2010-07-17T12:04:09Z</time>
<desc>lat.=55.762058, lon.=26.212395, Alt.=156.959106m. Speed=13.140000m/h.</desc>
<speed>3.650000</speed>
</trkpt>
<trkpt lat="55.762081" lon="26.212439">
<ele>156.986450</ele>
<time>2010-07-17T12:04:10Z</time>
<desc>lat.=55.762081, lon.=26.212439, Alt.=156.986450m. Speed=13.428000m/h.</desc>
<speed>3.730000</speed>
</trkpt>
<trkpt lat="55.762104" lon="26.212490">
<ele>157.072388</ele>
<time>2010-07-17T12:04:11Z</time>
<desc>lat.=55.762104, lon.=26.212490, Alt.=157.072388m. Speed=14.040000m/h.</desc>
<speed>3.900000</speed>
</trkpt>
<trkpt lat="55.762135" lon="26.212540">
<ele>157.380981</ele>
<time>2010-07-17T12:04:12Z</time>
<desc>lat.=55.762135, lon.=26.212540, Alt.=157.380981m. Speed=14.976000m/h.</desc>
<speed>4.160000</speed>
</trkpt>
<trkpt lat="55.762165" lon="26.212591">
<ele>157.724731</ele>
<time>2010-07-17T12:04:13Z</time>
<desc>lat.=55.762165, lon.=26.212591, Alt.=157.724731m. Speed=14.976000m/h.</desc>
<speed>4.160000</speed>
</trkpt>
<trkpt lat="55.762196" lon="26.212641">
<ele>157.857544</ele>
<time>2010-07-17T12:04:14Z</time>
<desc>lat.=55.762196, lon.=26.212641, Alt.=157.857544m. Speed=15.696000m/h.</desc>
<speed>4.360000</speed>
</trkpt>
<trkpt lat="55.762222" lon="26.212690">
<ele>157.912231</ele>
<time>2010-07-17T12:04:15Z</time>
<desc>lat.=55.762222, lon.=26.212690, Alt.=157.912231m. Speed=15.588000m/h.</desc>
<speed>4.330000</speed>
</trkpt>
<trkpt lat="55.762249" lon="26.212749">
<ele>157.818481</ele>
<time>2010-07-17T12:04:16Z</time>
<desc>lat.=55.762249, lon.=26.212749, Alt.=157.818481m. Speed=16.559999m/h.</desc>
<speed>4.600000</speed>
</trkpt>
<trkpt lat="55.762283" lon="26.212809">
<ele>157.838013</ele>
<time>2010-07-17T12:04:17Z</time>
<desc>lat.=55.762283, lon.=26.212809, Alt.=157.838013m. Speed=16.920000m/h.</desc>
<speed>4.700000</speed>
</trkpt>
<trkpt lat="55.762314" lon="26.212872">
<ele>157.849731</ele>
<time>2010-07-17T12:04:18Z</time>
<desc>lat.=55.762314, lon.=26.212872, Alt.=157.849731m. Speed=17.028000m/h.</desc>
<speed>4.730000</speed>
</trkpt>
<trkpt lat="55.762341" lon="26.212938">
<ele>157.802856</ele>
<time>2010-07-17T12:04:19Z</time>
<desc>lat.=55.762341, lon.=26.212938, Alt.=157.802856m. Speed=17.280001m/h.</desc>
<speed>4.800000</speed>
</trkpt>
<trkpt lat="55.762383" lon="26.213032">
<ele>157.728638</ele>
<time>2010-07-17T12:04:20Z</time>
<desc>lat.=55.762383, lon.=26.213032, Alt.=157.728638m. Speed=33.695999m/h.</desc>
<speed>9.360000</speed>
</trkpt>
<trkpt lat="55.762417" lon="26.213108">
<ele>157.423950</ele>
<time>2010-07-17T12:04:21Z</time>
<desc>lat.=55.762417, lon.=26.213108, Alt.=157.423950m. Speed=18.396000m/h.</desc>
<speed>5.110000</speed>
</trkpt>
<trkpt lat="55.762440" lon="26.213177">
<ele>157.213013</ele>
<time>2010-07-17T12:04:22Z</time>
<desc>lat.=55.762440, lon.=26.213177, Alt.=157.213013m. Speed=18.252001m/h.</desc>
<speed>5.070000</speed>
</trkpt>
<trkpt lat="55.762466" lon="26.213240">
<ele>156.994263</ele>
<time>2010-07-17T12:04:23Z</time>
<desc>lat.=55.762466, lon.=26.213240, Alt.=156.994263m. Speed=17.784000m/h.</desc>
<speed>4.940000</speed>
</trkpt>
<trkpt lat="55.762493" lon="26.213306">
<ele>156.880981</ele>
<time>2010-07-17T12:04:24Z</time>
<desc>lat.=55.762493, lon.=26.213306, Alt.=156.880981m. Speed=17.388000m/h.</desc>
<speed>4.830000</speed>
</trkpt>
<trkpt lat="55.762524" lon="26.213373">
<ele>156.802856</ele>
<time>2010-07-17T12:04:25Z</time>
<desc>lat.=55.762524, lon.=26.213373, Alt.=156.802856m. Speed=19.044001m/h.</desc>
<speed>5.290000</speed>
</trkpt>
<trkpt lat="55.762547" lon="26.213430">
<ele>157.033325</ele>
<time>2010-07-17T12:04:26Z</time>
<desc>lat.=55.762547, lon.=26.213430, Alt.=157.033325m. Speed=19.440001m/h.</desc>
<speed>5.400000</speed>
</trkpt>
<trkpt lat="55.762581" lon="26.213495">
<ele>157.064575</ele>
<time>2010-07-17T12:04:27Z</time>
<desc>lat.=55.762581, lon.=26.213495, Alt.=157.064575m. Speed=21.384001m/h.</desc>
<speed>5.940000</speed>
</trkpt>
<trkpt lat="55.762615" lon="26.213562">
<ele>157.045044</ele>
<time>2010-07-17T12:04:28Z</time>
<desc>lat.=55.762615, lon.=26.213562, Alt.=157.045044m. Speed=22.931999m/h.</desc>
<speed>6.370000</speed>
</trkpt>
<trkpt lat="55.762653" lon="26.213631">
<ele>157.080200</ele>
<time>2010-07-17T12:04:29Z</time>
<desc>lat.=55.762653, lon.=26.213631, Alt.=157.080200m. Speed=24.048000m/h.</desc>
<speed>6.680000</speed>
</trkpt>
<trkpt lat="55.762699" lon="26.213705">
<ele>156.978638</ele>
<time>2010-07-17T12:04:30Z</time>
<desc>lat.=55.762699, lon.=26.213705, Alt.=156.978638m. Speed=24.336000m/h.</desc>
<speed>6.760000</speed>
</trkpt>
<trkpt lat="55.762741" lon="26.213776">
<ele>156.923950</ele>
<time>2010-07-17T12:04:31Z</time>
<desc>lat.=55.762741, lon.=26.213776, Alt.=156.923950m. Speed=24.875999m/h.</desc>
<speed>6.910000</speed>
</trkpt>
<trkpt lat="55.762783" lon="26.213842">
<ele>156.841919</ele>
<time>2010-07-17T12:04:32Z</time>
<desc>lat.=55.762783, lon.=26.213842, Alt.=156.841919m. Speed=24.228001m/h.</desc>
<speed>6.730000</speed>
</trkpt>
<trkpt lat="55.762829" lon="26.213903">
<ele>156.474731</ele>
<time>2010-07-17T12:04:33Z</time>
<desc>lat.=55.762829, lon.=26.213903, Alt.=156.474731m. Speed=23.903999m/h.</desc>
<speed>6.640000</speed>
</trkpt>
<trkpt lat="55.762878" lon="26.213959">
<ele>156.482544</ele>
<time>2010-07-17T12:04:34Z</time>
<desc>lat.=55.762878, lon.=26.213959, Alt.=156.482544m. Speed=24.191999m/h.</desc>
<speed>6.720000</speed>
</trkpt>
<trkpt lat="55.762936" lon="26.214024">
<ele>157.236450</ele>
<time>2010-07-17T12:04:35Z</time>
<desc>lat.=55.762936, lon.=26.214024, Alt.=157.236450m. Speed=23.903999m/h.</desc>
<speed>6.640000</speed>
</trkpt>
<trkpt lat="55.762989" lon="26.214079">
<ele>157.439575</ele>
<time>2010-07-17T12:04:36Z</time>
<desc>lat.=55.762989, lon.=26.214079, Alt.=157.439575m. Speed=23.832001m/h.</desc>
<speed>6.620000</speed>
</trkpt>
<trkpt lat="55.763039" lon="26.214128">
<ele>157.502075</ele>
<time>2010-07-17T12:04:37Z</time>
<desc>lat.=55.763039, lon.=26.214128, Alt.=157.502075m. Speed=23.580000m/h.</desc>
<speed>6.550000</speed>
</trkpt>
<trkpt lat="55.763088" lon="26.214167">
<ele>157.619263</ele>
<time>2010-07-17T12:04:38Z</time>
<desc>lat.=55.763088, lon.=26.214167, Alt.=157.619263m. Speed=23.724001m/h.</desc>
<speed>6.590000</speed>
</trkpt>
<trkpt lat="55.763142" lon="26.214218">
<ele>157.955200</ele>
<time>2010-07-17T12:04:39Z</time>
<desc>lat.=55.763142, lon.=26.214218, Alt.=157.955200m. Speed=24.156000m/h.</desc>
<speed>6.710000</speed>
</trkpt>
<trkpt lat="55.763203" lon="26.214270">
<ele>158.185669</ele>
<time>2010-07-17T12:04:40Z</time>
<desc>lat.=55.763203, lon.=26.214270, Alt.=158.185669m. Speed=24.120001m/h.</desc>
<speed>6.700000</speed>
</trkpt>
<trkpt lat="55.763252" lon="26.214321">
<ele>158.025513</ele>
<time>2010-07-17T12:04:41Z</time>
<desc>lat.=55.763252, lon.=26.214321, Alt.=158.025513m. Speed=24.084000m/h.</desc>
<speed>6.690000</speed>
</trkpt>
<trkpt lat="55.763302" lon="26.214371">
<ele>158.244263</ele>
<time>2010-07-17T12:04:42Z</time>
<desc>lat.=55.763302, lon.=26.214371, Alt.=158.244263m. Speed=23.688000m/h.</desc>
<speed>6.580000</speed>
</trkpt>
<trkpt lat="55.763355" lon="26.214418">
<ele>158.548950</ele>
<time>2010-07-17T12:04:43Z</time>
<desc>lat.=55.763355, lon.=26.214418, Alt.=158.548950m. Speed=23.580000m/h.</desc>
<speed>6.550000</speed>
</trkpt>
<trkpt lat="55.763405" lon="26.214460">
<ele>158.205200</ele>
<time>2010-07-17T12:04:44Z</time>
<desc>lat.=55.763405, lon.=26.214460, Alt.=158.205200m. Speed=22.535999m/h.</desc>
<speed>6.260000</speed>
</trkpt>
<trkpt lat="55.763454" lon="26.214502">
<ele>158.314575</ele>
<time>2010-07-17T12:04:45Z</time>
<desc>lat.=55.763454, lon.=26.214502, Alt.=158.314575m. Speed=21.204000m/h.</desc>
<speed>5.890000</speed>
</trkpt>
<trkpt lat="55.763500" lon="26.214544">
<ele>157.806763</ele>
<time>2010-07-17T12:04:46Z</time>
<desc>lat.=55.763500, lon.=26.214544, Alt.=157.806763m. Speed=21.708000m/h.</desc>
<speed>6.030000</speed>
</trkpt>
<trkpt lat="55.763550" lon="26.214588">
<ele>157.408325</ele>
<time>2010-07-17T12:04:47Z</time>
<desc>lat.=55.763550, lon.=26.214588, Alt.=157.408325m. Speed=22.392000m/h.</desc>
<speed>6.220000</speed>
</trkpt>
<trkpt lat="55.763607" lon="26.214630">
<ele>157.146606</ele>
<time>2010-07-17T12:04:48Z</time>
<desc>lat.=55.763607, lon.=26.214630, Alt.=157.146606m. Speed=22.860001m/h.</desc>
<speed>6.350000</speed>
</trkpt>
<trkpt lat="55.763657" lon="26.214670">
<ele>156.841919</ele>
<time>2010-07-17T12:04:49Z</time>
<desc>lat.=55.763657, lon.=26.214670, Alt.=156.841919m. Speed=22.500000m/h.</desc>
<speed>6.250000</speed>
</trkpt>
<trkpt lat="55.763706" lon="26.214710">
<ele>157.013794</ele>
<time>2010-07-17T12:04:50Z</time>
<desc>lat.=55.763706, lon.=26.214710, Alt.=157.013794m. Speed=22.176001m/h.</desc>
<speed>6.160000</speed>
</trkpt>
<trkpt lat="55.763760" lon="26.214746">
<ele>157.271606</ele>
<time>2010-07-17T12:04:51Z</time>
<desc>lat.=55.763760, lon.=26.214746, Alt.=157.271606m. Speed=21.816000m/h.</desc>
<speed>6.060000</speed>
</trkpt>
<trkpt lat="55.763817" lon="26.214775">
<ele>157.607544</ele>
<time>2010-07-17T12:04:52Z</time>
<desc>lat.=55.763817, lon.=26.214775, Alt.=157.607544m. Speed=22.823999m/h.</desc>
<speed>6.340000</speed>
</trkpt>
<trkpt lat="55.763870" lon="26.214808">
<ele>158.072388</ele>
<time>2010-07-17T12:04:53Z</time>
<desc>lat.=55.763870, lon.=26.214808, Alt.=158.072388m. Speed=21.996000m/h.</desc>
<speed>6.110000</speed>
</trkpt>
<trkpt lat="55.763908" lon="26.214863">
<ele>157.345825</ele>
<time>2010-07-17T12:04:54Z</time>
<desc>lat.=55.763908, lon.=26.214863, Alt.=157.345825m. Speed=23.112000m/h.</desc>
<speed>6.420000</speed>
</trkpt>
<trkpt lat="55.763962" lon="26.214903">
<ele>157.029419</ele>
<time>2010-07-17T12:04:55Z</time>
<desc>lat.=55.763962, lon.=26.214903, Alt.=157.029419m. Speed=22.968000m/h.</desc>
<speed>6.380000</speed>
</trkpt>
<trkpt lat="55.764023" lon="26.214926">
<ele>157.478638</ele>
<time>2010-07-17T12:04:56Z</time>
<desc>lat.=55.764023, lon.=26.214926, Alt.=157.478638m. Speed=24.444000m/h.</desc>
<speed>6.790000</speed>
</trkpt>
<trkpt lat="55.764084" lon="26.214951">
<ele>157.810669</ele>
<time>2010-07-17T12:04:57Z</time>
<desc>lat.=55.764084, lon.=26.214951, Alt.=157.810669m. Speed=24.336000m/h.</desc>
<speed>6.760000</speed>
</trkpt>
<trkpt lat="55.764145" lon="26.214979">
<ele>157.463013</ele>
<time>2010-07-17T12:04:58Z</time>
<desc>lat.=55.764145, lon.=26.214979, Alt.=157.463013m. Speed=24.372000m/h.</desc>
<speed>6.770000</speed>
</trkpt>
<trkpt lat="55.764202" lon="26.215008">
<ele>157.033325</ele>
<time>2010-07-17T12:04:59Z</time>
<desc>lat.=55.764202, lon.=26.215008, Alt.=157.033325m. Speed=21.600000m/h.</desc>
<speed>6.000000</speed>
</trkpt>
<trkpt lat="55.764259" lon="26.215025">
<ele>157.943481</ele>
<time>2010-07-17T12:05:00Z</time>
<desc>lat.=55.764259, lon.=26.215025, Alt.=157.943481m. Speed=21.959999m/h.</desc>
<speed>6.100000</speed>
</trkpt>
<trkpt lat="55.764313" lon="26.215040">
<ele>157.982544</ele>
<time>2010-07-17T12:05:01Z</time>
<desc>lat.=55.764313, lon.=26.215040, Alt.=157.982544m. Speed=22.032000m/h.</desc>
<speed>6.120000</speed>
</trkpt>
<trkpt lat="55.764366" lon="26.215057">
<ele>157.287231</ele>
<time>2010-07-17T12:05:02Z</time>
<desc>lat.=55.764366, lon.=26.215057, Alt.=157.287231m. Speed=24.264000m/h.</desc>
<speed>6.740000</speed>
</trkpt>
<trkpt lat="55.764423" lon="26.215078">
<ele>156.912231</ele>
<time>2010-07-17T12:05:03Z</time>
<desc>lat.=55.764423, lon.=26.215078, Alt.=156.912231m. Speed=23.544001m/h.</desc>
<speed>6.540000</speed>
</trkpt>
<trkpt lat="55.764481" lon="26.215099">
<ele>156.763794</ele>
<time>2010-07-17T12:05:04Z</time>
<desc>lat.=55.764481, lon.=26.215099, Alt.=156.763794m. Speed=23.544001m/h.</desc>
<speed>6.540000</speed>
</trkpt>
<trkpt lat="55.764534" lon="26.215120">
<ele>156.380981</ele>
<time>2010-07-17T12:05:05Z</time>
<desc>lat.=55.764534, lon.=26.215120, Alt.=156.380981m. Speed=24.084000m/h.</desc>
<speed>6.690000</speed>
</trkpt>
<trkpt lat="55.764595" lon="26.215136">
<ele>156.084106</ele>
<time>2010-07-17T12:05:06Z</time>
<desc>lat.=55.764595, lon.=26.215136, Alt.=156.084106m. Speed=22.356001m/h.</desc>
<speed>6.210000</speed>
</trkpt>
<trkpt lat="55.764645" lon="26.215155">
<ele>155.814575</ele>
<time>2010-07-17T12:05:07Z</time>
<desc>lat.=55.764645, lon.=26.215155, Alt.=155.814575m. Speed=21.743999m/h.</desc>
<speed>6.040000</speed>
</trkpt>
<trkpt lat="55.764690" lon="26.215181">
<ele>154.771606</ele>
<time>2010-07-17T12:05:08Z</time>
<desc>lat.=55.764690, lon.=26.215181, Alt.=154.771606m. Speed=21.384001m/h.</desc>
<speed>5.940000</speed>
</trkpt>
<trkpt lat="55.764740" lon="26.215199">
<ele>154.310669</ele>
<time>2010-07-17T12:05:09Z</time>
<desc>lat.=55.764740, lon.=26.215199, Alt.=154.310669m. Speed=19.836000m/h.</desc>
<speed>5.510000</speed>
</trkpt>
<trkpt lat="55.764786" lon="26.215216">
<ele>153.779419</ele>
<time>2010-07-17T12:05:10Z</time>
<desc>lat.=55.764786, lon.=26.215216, Alt.=153.779419m. Speed=19.007999m/h.</desc>
<speed>5.280000</speed>
</trkpt>
<trkpt lat="55.764835" lon="26.215233">
<ele>153.509888</ele>
<time>2010-07-17T12:05:11Z</time>
<desc>lat.=55.764835, lon.=26.215233, Alt.=153.509888m. Speed=20.412001m/h.</desc>
<speed>5.670000</speed>
</trkpt>
<trkpt lat="55.764889" lon="26.215250">
<ele>153.599731</ele>
<time>2010-07-17T12:05:12Z</time>
<desc>lat.=55.764889, lon.=26.215250, Alt.=153.599731m. Speed=20.879999m/h.</desc>
<speed>5.800000</speed>
</trkpt>
<trkpt lat="55.764935" lon="26.215267">
<ele>153.365356</ele>
<time>2010-07-17T12:05:13Z</time>
<desc>lat.=55.764935, lon.=26.215267, Alt.=153.365356m. Speed=19.080000m/h.</desc>
<speed>5.300000</speed>
</trkpt>
<trkpt lat="55.764977" lon="26.215292">
<ele>152.939575</ele>
<time>2010-07-17T12:05:14Z</time>
<desc>lat.=55.764977, lon.=26.215292, Alt.=152.939575m. Speed=18.396000m/h.</desc>
<speed>5.110000</speed>
</trkpt>
<trkpt lat="55.765022" lon="26.215315">
<ele>151.673950</ele>
<time>2010-07-17T12:05:15Z</time>
<desc>lat.=55.765022, lon.=26.215315, Alt.=151.673950m. Speed=16.704000m/h.</desc>
<speed>4.640000</speed>
</trkpt>
<trkpt lat="55.765068" lon="26.215336">
<ele>152.177856</ele>
<time>2010-07-17T12:05:16Z</time>
<desc>lat.=55.765068, lon.=26.215336, Alt.=152.177856m. Speed=18.035999m/h.</desc>
<speed>5.010000</speed>
</trkpt>
<trkpt lat="55.765125" lon="26.215363">
<ele>152.005981</ele>
<time>2010-07-17T12:05:17Z</time>
<desc>lat.=55.765125, lon.=26.215363, Alt.=152.005981m. Speed=20.160000m/h.</desc>
<speed>5.600000</speed>
</trkpt>
<trkpt lat="55.765186" lon="26.215384">
<ele>151.838013</ele>
<time>2010-07-17T12:05:18Z</time>
<desc>lat.=55.765186, lon.=26.215384, Alt.=151.838013m. Speed=20.844000m/h.</desc>
<speed>5.790000</speed>
</trkpt>
<trkpt lat="55.765247" lon="26.215401">
<ele>152.177856</ele>
<time>2010-07-17T12:05:19Z</time>
<desc>lat.=55.765247, lon.=26.215401, Alt.=152.177856m. Speed=20.988001m/h.</desc>
<speed>5.830000</speed>
</trkpt>
<trkpt lat="55.765308" lon="26.215418">
<ele>152.408325</ele>
<time>2010-07-17T12:05:20Z</time>
<desc>lat.=55.765308, lon.=26.215418, Alt.=152.408325m. Speed=21.096001m/h.</desc>
<speed>5.860000</speed>
</trkpt>
<trkpt lat="55.765369" lon="26.215427">
<ele>152.521606</ele>
<time>2010-07-17T12:05:21Z</time>
<desc>lat.=55.765369, lon.=26.215427, Alt.=152.521606m. Speed=21.492001m/h.</desc>
<speed>5.970000</speed>
</trkpt>
<trkpt lat="55.765423" lon="26.215439">
<ele>152.416138</ele>
<time>2010-07-17T12:05:22Z</time>
<desc>lat.=55.765423, lon.=26.215439, Alt.=152.416138m. Speed=20.916000m/h.</desc>
<speed>5.810000</speed>
</trkpt>
<trkpt lat="55.765476" lon="26.215450">
<ele>152.584106</ele>
<time>2010-07-17T12:05:23Z</time>
<desc>lat.=55.765476, lon.=26.215450, Alt.=152.584106m. Speed=19.799999m/h.</desc>
<speed>5.500000</speed>
</trkpt>
<trkpt lat="55.765530" lon="26.215467">
<ele>152.466919</ele>
<time>2010-07-17T12:05:24Z</time>
<desc>lat.=55.765530, lon.=26.215467, Alt.=152.466919m. Speed=21.492001m/h.</desc>
<speed>5.970000</speed>
</trkpt>
<trkpt lat="55.765591" lon="26.215479">
<ele>152.521606</ele>
<time>2010-07-17T12:05:25Z</time>
<desc>lat.=55.765591, lon.=26.215479, Alt.=152.521606m. Speed=22.392000m/h.</desc>
<speed>6.220000</speed>
</trkpt>
<trkpt lat="55.765652" lon="26.215490">
<ele>152.767700</ele>
<time>2010-07-17T12:05:26Z</time>
<desc>lat.=55.765652, lon.=26.215490, Alt.=152.767700m. Speed=22.427999m/h.</desc>
<speed>6.230000</speed>
</trkpt>
<trkpt lat="55.765713" lon="26.215508">
<ele>152.615356</ele>
<time>2010-07-17T12:05:27Z</time>
<desc>lat.=55.765713, lon.=26.215508, Alt.=152.615356m. Speed=22.896000m/h.</desc>
<speed>6.360000</speed>
</trkpt>
<trkpt lat="55.765778" lon="26.215519">
<ele>152.752075</ele>
<time>2010-07-17T12:05:28Z</time>
<desc>lat.=55.765778, lon.=26.215519, Alt.=152.752075m. Speed=23.040001m/h.</desc>
<speed>6.400000</speed>
</trkpt>
<trkpt lat="55.765839" lon="26.215540">
<ele>152.834106</ele>
<time>2010-07-17T12:05:29Z</time>
<desc>lat.=55.765839, lon.=26.215540, Alt.=152.834106m. Speed=22.032000m/h.</desc>
<speed>6.120000</speed>
</trkpt>
<trkpt lat="55.765896" lon="26.215561">
<ele>153.045044</ele>
<time>2010-07-17T12:05:30Z</time>
<desc>lat.=55.765896, lon.=26.215561, Alt.=153.045044m. Speed=21.924000m/h.</desc>
<speed>6.090000</speed>
</trkpt>
<trkpt lat="55.765957" lon="26.215580">
<ele>153.478638</ele>
<time>2010-07-17T12:05:31Z</time>
<desc>lat.=55.765957, lon.=26.215580, Alt.=153.478638m. Speed=22.392000m/h.</desc>
<speed>6.220000</speed>
</trkpt>
<trkpt lat="55.766018" lon="26.215599">
<ele>153.295044</ele>
<time>2010-07-17T12:05:32Z</time>
<desc>lat.=55.766018, lon.=26.215599, Alt.=153.295044m. Speed=23.544001m/h.</desc>
<speed>6.540000</speed>
</trkpt>
<trkpt lat="55.766071" lon="26.215614">
<ele>153.259888</ele>
<time>2010-07-17T12:05:33Z</time>
<desc>lat.=55.766071, lon.=26.215614, Alt.=153.259888m. Speed=22.752001m/h.</desc>
<speed>6.320000</speed>
</trkpt>
<trkpt lat="55.766125" lon="26.215633">
<ele>153.240356</ele>
<time>2010-07-17T12:05:34Z</time>
<desc>lat.=55.766125, lon.=26.215633, Alt.=153.240356m. Speed=22.464001m/h.</desc>
<speed>6.240000</speed>
</trkpt>
<trkpt lat="55.766190" lon="26.215649">
<ele>153.431763</ele>
<time>2010-07-17T12:05:35Z</time>
<desc>lat.=55.766190, lon.=26.215649, Alt.=153.431763m. Speed=23.615999m/h.</desc>
<speed>6.560000</speed>
</trkpt>
<trkpt lat="55.766243" lon="26.215670">
<ele>153.525513</ele>
<time>2010-07-17T12:05:36Z</time>
<desc>lat.=55.766243, lon.=26.215670, Alt.=153.525513m. Speed=21.996000m/h.</desc>
<speed>6.110000</speed>
</trkpt>
<trkpt lat="55.766300" lon="26.215689">
<ele>153.521606</ele>
<time>2010-07-17T12:05:37Z</time>
<desc>lat.=55.766300, lon.=26.215689, Alt.=153.521606m. Speed=22.608000m/h.</desc>
<speed>6.280000</speed>
</trkpt>
<trkpt lat="55.766357" lon="26.215708">
<ele>153.455200</ele>
<time>2010-07-17T12:05:38Z</time>
<desc>lat.=55.766357, lon.=26.215708, Alt.=153.455200m. Speed=23.760000m/h.</desc>
<speed>6.600000</speed>
</trkpt>
<trkpt lat="55.766407" lon="26.215725">
<ele>153.775513</ele>
<time>2010-07-17T12:05:39Z</time>
<desc>lat.=55.766407, lon.=26.215725, Alt.=153.775513m. Speed=21.420000m/h.</desc>
<speed>5.950000</speed>
</trkpt>
<trkpt lat="55.766457" lon="26.215744">
<ele>154.064575</ele>
<time>2010-07-17T12:05:40Z</time>
<desc>lat.=55.766457, lon.=26.215744, Alt.=154.064575m. Speed=20.916000m/h.</desc>
<speed>5.810000</speed>
</trkpt>
<trkpt lat="55.766506" lon="26.215761">
<ele>156.541138</ele>
<time>2010-07-17T12:05:41Z</time>
<desc>lat.=55.766506, lon.=26.215761, Alt.=156.541138m. Speed=21.672001m/h.</desc>
<speed>6.020000</speed>
</trkpt>
<trkpt lat="55.766579" lon="26.215786">
<ele>158.892700</ele>
<time>2010-07-17T12:05:42Z</time>
<desc>lat.=55.766579, lon.=26.215786, Alt.=158.892700m. Speed=21.888000m/h.</desc>
<speed>6.080000</speed>
</trkpt>
<trkpt lat="55.766644" lon="26.215809">
<ele>160.181763</ele>
<time>2010-07-17T12:05:43Z</time>
<desc>lat.=55.766644, lon.=26.215809, Alt.=160.181763m. Speed=22.139999m/h.</desc>
<speed>6.150000</speed>
</trkpt>
<trkpt lat="55.766712" lon="26.215828">
<ele>161.252075</ele>
<time>2010-07-17T12:05:44Z</time>
<desc>lat.=55.766712, lon.=26.215828, Alt.=161.252075m. Speed=21.600000m/h.</desc>
<speed>6.000000</speed>
</trkpt>
<trkpt lat="55.766762" lon="26.215851">
<ele>160.662231</ele>
<time>2010-07-17T12:05:45Z</time>
<desc>lat.=55.766762, lon.=26.215851, Alt.=160.662231m. Speed=20.916000m/h.</desc>
<speed>5.810000</speed>
</trkpt>
<trkpt lat="55.766808" lon="26.215864">
<ele>160.478638</ele>
<time>2010-07-17T12:05:46Z</time>
<desc>lat.=55.766808, lon.=26.215864, Alt.=160.478638m. Speed=21.132000m/h.</desc>
<speed>5.870000</speed>
</trkpt>
<trkpt lat="55.766861" lon="26.215874">
<ele>160.740356</ele>
<time>2010-07-17T12:05:47Z</time>
<desc>lat.=55.766861, lon.=26.215874, Alt.=160.740356m. Speed=20.412001m/h.</desc>
<speed>5.670000</speed>
</trkpt>
<trkpt lat="55.766911" lon="26.215887">
<ele>160.713013</ele>
<time>2010-07-17T12:05:48Z</time>
<desc>lat.=55.766911, lon.=26.215887, Alt.=160.713013m. Speed=19.656000m/h.</desc>
<speed>5.460000</speed>
</trkpt>
<trkpt lat="55.766960" lon="26.215899">
<ele>160.728638</ele>
<time>2010-07-17T12:05:49Z</time>
<desc>lat.=55.766960, lon.=26.215899, Alt.=160.728638m. Speed=19.080000m/h.</desc>
<speed>5.300000</speed>
</trkpt>
<trkpt lat="55.767006" lon="26.215908">
<ele>160.685669</ele>
<time>2010-07-17T12:05:50Z</time>
<desc>lat.=55.767006, lon.=26.215908, Alt.=160.685669m. Speed=18.576000m/h.</desc>
<speed>5.160000</speed>
</trkpt>
<trkpt lat="55.767052" lon="26.215918">
<ele>160.611450</ele>
<time>2010-07-17T12:05:51Z</time>
<desc>lat.=55.767052, lon.=26.215918, Alt.=160.611450m. Speed=18.756001m/h.</desc>
<speed>5.210000</speed>
</trkpt>
<trkpt lat="55.767101" lon="26.215929">
<ele>160.517700</ele>
<time>2010-07-17T12:05:52Z</time>
<desc>lat.=55.767101, lon.=26.215929, Alt.=160.517700m. Speed=19.296000m/h.</desc>
<speed>5.360000</speed>
</trkpt>
<trkpt lat="55.767155" lon="26.215937">
<ele>160.443481</ele>
<time>2010-07-17T12:05:53Z</time>
<desc>lat.=55.767155, lon.=26.215937, Alt.=160.443481m. Speed=21.348000m/h.</desc>
<speed>5.930000</speed>
</trkpt>
<trkpt lat="55.767216" lon="26.215939">
<ele>160.392700</ele>
<time>2010-07-17T12:05:54Z</time>
<desc>lat.=55.767216, lon.=26.215939, Alt.=160.392700m. Speed=23.364000m/h.</desc>
<speed>6.490000</speed>
</trkpt>
<trkpt lat="55.767277" lon="26.215939">
<ele>160.384888</ele>
<time>2010-07-17T12:05:55Z</time>
<desc>lat.=55.767277, lon.=26.215939, Alt.=160.384888m. Speed=24.732000m/h.</desc>
<speed>6.870000</speed>
</trkpt>
<trkpt lat="55.767338" lon="26.215944">
<ele>160.302856</ele>
<time>2010-07-17T12:05:56Z</time>
<desc>lat.=55.767338, lon.=26.215944, Alt.=160.302856m. Speed=24.408001m/h.</desc>
<speed>6.780000</speed>
</trkpt>
<trkpt lat="55.767399" lon="26.215946">
<ele>160.279419</ele>
<time>2010-07-17T12:05:57Z</time>
<desc>lat.=55.767399, lon.=26.215946, Alt.=160.279419m. Speed=23.615999m/h.</desc>
<speed>6.560000</speed>
</trkpt>
<trkpt lat="55.767464" lon="26.215948">
<ele>159.966919</ele>
<time>2010-07-17T12:05:58Z</time>
<desc>lat.=55.767464, lon.=26.215948, Alt.=159.966919m. Speed=24.768000m/h.</desc>
<speed>6.880000</speed>
</trkpt>
<trkpt lat="55.767521" lon="26.215946">
<ele>159.857544</ele>
<time>2010-07-17T12:05:59Z</time>
<desc>lat.=55.767521, lon.=26.215946, Alt.=159.857544m. Speed=24.660000m/h.</desc>
<speed>6.850000</speed>
</trkpt>
<trkpt lat="55.767590" lon="26.215950">
<ele>159.595825</ele>
<time>2010-07-17T12:06:00Z</time>
<desc>lat.=55.767590, lon.=26.215950, Alt.=159.595825m. Speed=26.712000m/h.</desc>
<speed>7.420000</speed>
</trkpt>
<trkpt lat="55.767654" lon="26.215960">
<ele>159.349731</ele>
<time>2010-07-17T12:06:01Z</time>
<desc>lat.=55.767654, lon.=26.215960, Alt.=159.349731m. Speed=27.072001m/h.</desc>
<speed>7.520000</speed>
</trkpt>
<trkpt lat="55.767723" lon="26.215969">
<ele>159.220825</ele>
<time>2010-07-17T12:06:02Z</time>
<desc>lat.=55.767723, lon.=26.215969, Alt.=159.220825m. Speed=28.044001m/h.</desc>
<speed>7.790000</speed>
</trkpt>
<trkpt lat="55.767796" lon="26.215979">
<ele>159.345825</ele>
<time>2010-07-17T12:06:03Z</time>
<desc>lat.=55.767796, lon.=26.215979, Alt.=159.345825m. Speed=28.403999m/h.</desc>
<speed>7.890000</speed>
</trkpt>
<trkpt lat="55.767868" lon="26.215994">
<ele>159.185669</ele>
<time>2010-07-17T12:06:04Z</time>
<desc>lat.=55.767868, lon.=26.215994, Alt.=159.185669m. Speed=28.584000m/h.</desc>
<speed>7.940000</speed>
</trkpt>
<trkpt lat="55.767937" lon="26.216000">
<ele>159.130981</ele>
<time>2010-07-17T12:06:05Z</time>
<desc>lat.=55.767937, lon.=26.216000, Alt.=159.130981m. Speed=27.684000m/h.</desc>
<speed>7.690000</speed>
</trkpt>
<trkpt lat="55.768005" lon="26.216013">
<ele>159.130981</ele>
<time>2010-07-17T12:06:06Z</time>
<desc>lat.=55.768005, lon.=26.216013, Alt.=159.130981m. Speed=27.035999m/h.</desc>
<speed>7.510000</speed>
</trkpt>
<trkpt lat="55.768074" lon="26.216024">
<ele>158.963013</ele>
<time>2010-07-17T12:06:07Z</time>
<desc>lat.=55.768074, lon.=26.216024, Alt.=158.963013m. Speed=28.368000m/h.</desc>
<speed>7.880000</speed>
</trkpt>
<trkpt lat="55.768143" lon="26.216045">
<ele>158.873169</ele>
<time>2010-07-17T12:06:08Z</time>
<desc>lat.=55.768143, lon.=26.216045, Alt.=158.873169m. Speed=27.792000m/h.</desc>
<speed>7.720000</speed>
</trkpt>
<trkpt lat="55.768208" lon="26.216076">
<ele>158.970825</ele>
<time>2010-07-17T12:06:09Z</time>
<desc>lat.=55.768208, lon.=26.216076, Alt.=158.970825m. Speed=29.591999m/h.</desc>
<speed>8.220000</speed>
</trkpt>
<trkpt lat="55.768284" lon="26.216095">
<ele>158.463013</ele>
<time>2010-07-17T12:06:10Z</time>
<desc>lat.=55.768284, lon.=26.216095, Alt.=158.463013m. Speed=29.268000m/h.</desc>
<speed>8.130000</speed>
</trkpt>
<trkpt lat="55.768360" lon="26.216120">
<ele>158.330200</ele>
<time>2010-07-17T12:06:11Z</time>
<desc>lat.=55.768360, lon.=26.216120, Alt.=158.330200m. Speed=27.719999m/h.</desc>
<speed>7.700000</speed>
</trkpt>
<trkpt lat="55.768433" lon="26.216135">
<ele>158.197388</ele>
<time>2010-07-17T12:06:12Z</time>
<desc>lat.=55.768433, lon.=26.216135, Alt.=158.197388m. Speed=27.431999m/h.</desc>
<speed>7.620000</speed>
</trkpt>
<trkpt lat="55.768497" lon="26.216164">
<ele>157.623169</ele>
<time>2010-07-17T12:06:13Z</time>
<desc>lat.=55.768497, lon.=26.216164, Alt.=157.623169m. Speed=25.667999m/h.</desc>
<speed>7.130000</speed>
</trkpt>
<trkpt lat="55.768559" lon="26.216188">
<ele>157.744263</ele>
<time>2010-07-17T12:06:14Z</time>
<desc>lat.=55.768559, lon.=26.216188, Alt.=157.744263m. Speed=25.596001m/h.</desc>
<speed>7.110000</speed>
</trkpt>
<trkpt lat="55.768631" lon="26.216206">
<ele>157.361450</ele>
<time>2010-07-17T12:06:15Z</time>
<desc>lat.=55.768631, lon.=26.216206, Alt.=157.361450m. Speed=27.972000m/h.</desc>
<speed>7.770000</speed>
</trkpt>
<trkpt lat="55.768692" lon="26.216221">
<ele>156.892700</ele>
<time>2010-07-17T12:06:16Z</time>
<desc>lat.=55.768692, lon.=26.216221, Alt.=156.892700m. Speed=26.100000m/h.</desc>
<speed>7.250000</speed>
</trkpt>
<trkpt lat="55.768757" lon="26.216234">
<ele>156.412231</ele>
<time>2010-07-17T12:06:17Z</time>
<desc>lat.=55.768757, lon.=26.216234, Alt.=156.412231m. Speed=25.559999m/h.</desc>
<speed>7.100000</speed>
</trkpt>
<trkpt lat="55.768814" lon="26.216255">
<ele>154.279419</ele>
<time>2010-07-17T12:06:18Z</time>
<desc>lat.=55.768814, lon.=26.216255, Alt.=154.279419m. Speed=25.452000m/h.</desc>
<speed>7.070000</speed>
</trkpt>
<trkpt lat="55.768879" lon="26.216261">
<ele>153.615356</ele>
<time>2010-07-17T12:06:19Z</time>
<desc>lat.=55.768879, lon.=26.216261, Alt.=153.615356m. Speed=25.128000m/h.</desc>
<speed>6.980000</speed>
</trkpt>
<trkpt lat="55.768944" lon="26.216259">
<ele>153.158325</ele>
<time>2010-07-17T12:06:20Z</time>
<desc>lat.=55.768944, lon.=26.216259, Alt.=153.158325m. Speed=25.632000m/h.</desc>
<speed>7.120000</speed>
</trkpt>
<trkpt lat="55.769005" lon="26.216249">
<ele>152.857544</ele>
<time>2010-07-17T12:06:21Z</time>
<desc>lat.=55.769005, lon.=26.216249, Alt.=152.857544m. Speed=25.308001m/h.</desc>
<speed>7.030000</speed>
</trkpt>
<trkpt lat="55.769062" lon="26.216234">
<ele>153.302856</ele>
<time>2010-07-17T12:06:22Z</time>
<desc>lat.=55.769062, lon.=26.216234, Alt.=153.302856m. Speed=23.219999m/h.</desc>
<speed>6.450000</speed>
</trkpt>
<trkpt lat="55.769119" lon="26.216215">
<ele>152.576294</ele>
<time>2010-07-17T12:06:23Z</time>
<desc>lat.=55.769119, lon.=26.216215, Alt.=152.576294m. Speed=23.688000m/h.</desc>
<speed>6.580000</speed>
</trkpt>
<trkpt lat="55.769184" lon="26.216179">
<ele>152.947388</ele>
<time>2010-07-17T12:06:24Z</time>
<desc>lat.=55.769184, lon.=26.216179, Alt.=152.947388m. Speed=24.840000m/h.</desc>
<speed>6.900000</speed>
</trkpt>
<trkpt lat="55.769253" lon="26.216135">
<ele>154.443481</ele>
<time>2010-07-17T12:06:25Z</time>
<desc>lat.=55.769253, lon.=26.216135, Alt.=154.443481m. Speed=25.559999m/h.</desc>
<speed>7.100000</speed>
</trkpt>
<trkpt lat="55.769310" lon="26.216108">
<ele>153.783325</ele>
<time>2010-07-17T12:06:26Z</time>
<desc>lat.=55.769310, lon.=26.216108, Alt.=153.783325m. Speed=25.992001m/h.</desc>
<speed>7.220000</speed>
</trkpt>
<trkpt lat="55.769382" lon="26.216072">
<ele>154.505981</ele>
<time>2010-07-17T12:06:27Z</time>
<desc>lat.=55.769382, lon.=26.216072, Alt.=154.505981m. Speed=25.596001m/h.</desc>
<speed>7.110000</speed>
</trkpt>
<trkpt lat="55.769459" lon="26.216042">
<ele>155.263794</ele>
<time>2010-07-17T12:06:28Z</time>
<desc>lat.=55.769459, lon.=26.216042, Alt.=155.263794m. Speed=26.388000m/h.</desc>
<speed>7.330000</speed>
</trkpt>
<trkpt lat="55.769520" lon="26.216026">
<ele>154.720825</ele>
<time>2010-07-17T12:06:29Z</time>
<desc>lat.=55.769520, lon.=26.216026, Alt.=154.720825m. Speed=25.992001m/h.</desc>
<speed>7.220000</speed>
</trkpt>
<trkpt lat="55.769585" lon="26.216021">
<ele>154.056763</ele>
<time>2010-07-17T12:06:30Z</time>
<desc>lat.=55.769585, lon.=26.216021, Alt.=154.056763m. Speed=26.964001m/h.</desc>
<speed>7.490000</speed>
</trkpt>
<trkpt lat="55.769653" lon="26.216024">
<ele>153.720825</ele>
<time>2010-07-17T12:06:31Z</time>
<desc>lat.=55.769653, lon.=26.216024, Alt.=153.720825m. Speed=26.712000m/h.</desc>
<speed>7.420000</speed>
</trkpt>
<trkpt lat="55.769714" lon="26.216034">
<ele>153.209106</ele>
<time>2010-07-17T12:06:32Z</time>
<desc>lat.=55.769714, lon.=26.216034, Alt.=153.209106m. Speed=25.812000m/h.</desc>
<speed>7.170000</speed>
</trkpt>
<trkpt lat="55.769775" lon="26.216043">
<ele>152.330200</ele>
<time>2010-07-17T12:06:33Z</time>
<desc>lat.=55.769775, lon.=26.216043, Alt.=152.330200m. Speed=25.308001m/h.</desc>
<speed>7.030000</speed>
</trkpt>
<trkpt lat="55.769836" lon="26.216055">
<ele>152.095825</ele>
<time>2010-07-17T12:06:34Z</time>
<desc>lat.=55.769836, lon.=26.216055, Alt.=152.095825m. Speed=24.840000m/h.</desc>
<speed>6.900000</speed>
</trkpt>
<trkpt lat="55.769894" lon="26.216074">
<ele>151.947388</ele>
<time>2010-07-17T12:06:35Z</time>
<desc>lat.=55.769894, lon.=26.216074, Alt.=151.947388m. Speed=24.011999m/h.</desc>
<speed>6.670000</speed>
</trkpt>
<trkpt lat="55.769939" lon="26.216087">
<ele>151.959106</ele>
<time>2010-07-17T12:06:36Z</time>
<desc>lat.=55.769939, lon.=26.216087, Alt.=151.959106m. Speed=19.548000m/h.</desc>
<speed>5.430000</speed>
</trkpt>
<trkpt lat="55.769978" lon="26.216103">
<ele>151.845825</ele>
<time>2010-07-17T12:06:37Z</time>
<desc>lat.=55.769978, lon.=26.216103, Alt.=151.845825m. Speed=16.632000m/h.</desc>
<speed>4.620000</speed>
</trkpt>
<trkpt lat="55.770004" lon="26.216125">
<ele>151.267700</ele>
<time>2010-07-17T12:06:38Z</time>
<desc>lat.=55.770004, lon.=26.216125, Alt.=151.267700m. Speed=12.276000m/h.</desc>
<speed>3.410000</speed>
</trkpt>
<trkpt lat="55.770039" lon="26.216154">
<ele>150.791138</ele>
<time>2010-07-17T12:06:39Z</time>
<desc>lat.=55.770039, lon.=26.216154, Alt.=150.791138m. Speed=13.104000m/h.</desc>
<speed>3.640000</speed>
</trkpt>
<trkpt lat="55.770077" lon="26.216166">
<ele>150.298950</ele>
<time>2010-07-17T12:06:40Z</time>
<desc>lat.=55.770077, lon.=26.216166, Alt.=150.298950m. Speed=14.220000m/h.</desc>
<speed>3.950000</speed>
</trkpt>
<trkpt lat="55.770115" lon="26.216175">
<ele>149.791138</ele>
<time>2010-07-17T12:06:41Z</time>
<desc>lat.=55.770115, lon.=26.216175, Alt.=149.791138m. Speed=15.444000m/h.</desc>
<speed>4.290000</speed>
</trkpt>
<trkpt lat="55.770153" lon="26.216188">
<ele>149.529419</ele>
<time>2010-07-17T12:06:42Z</time>
<desc>lat.=55.770153, lon.=26.216188, Alt.=149.529419m. Speed=13.140000m/h.</desc>
<speed>3.650000</speed>
</trkpt>
<trkpt lat="55.770191" lon="26.216196">
<ele>146.974731</ele>
<time>2010-07-17T12:06:43Z</time>
<desc>lat.=55.770191, lon.=26.216196, Alt.=146.974731m. Speed=14.472000m/h.</desc>
<speed>4.020000</speed>
</trkpt>
<trkpt lat="55.770237" lon="26.216217">
<ele>145.177856</ele>
<time>2010-07-17T12:06:44Z</time>
<desc>lat.=55.770237, lon.=26.216217, Alt.=145.177856m. Speed=15.804000m/h.</desc>
<speed>4.390000</speed>
</trkpt>
<trkpt lat="55.770287" lon="26.216228">
<ele>144.013794</ele>
<time>2010-07-17T12:06:45Z</time>
<desc>lat.=55.770287, lon.=26.216228, Alt.=144.013794m. Speed=17.351999m/h.</desc>
<speed>4.820000</speed>
</trkpt>
<trkpt lat="55.770355" lon="26.216227">
<ele>143.326294</ele>
<time>2010-07-17T12:06:46Z</time>
<desc>lat.=55.770355, lon.=26.216227, Alt.=143.326294m. Speed=18.504000m/h.</desc>
<speed>5.140000</speed>
</trkpt>
<trkpt lat="55.770420" lon="26.216209">
<ele>144.130981</ele>
<time>2010-07-17T12:06:47Z</time>
<desc>lat.=55.770420, lon.=26.216209, Alt.=144.130981m. Speed=19.296000m/h.</desc>
<speed>5.360000</speed>
</trkpt>
<trkpt lat="55.770496" lon="26.216160">
<ele>147.681763</ele>
<time>2010-07-17T12:06:48Z</time>
<desc>lat.=55.770496, lon.=26.216160, Alt.=147.681763m. Speed=22.247999m/h.</desc>
<speed>6.180000</speed>
</trkpt>
<trkpt lat="55.770550" lon="26.216129">
<ele>146.630981</ele>
<time>2010-07-17T12:06:49Z</time>
<desc>lat.=55.770550, lon.=26.216129, Alt.=146.630981m. Speed=21.672001m/h.</desc>
<speed>6.020000</speed>
</trkpt>
<trkpt lat="55.770611" lon="26.216097">
<ele>146.888794</ele>
<time>2010-07-17T12:06:50Z</time>
<desc>lat.=55.770611, lon.=26.216097, Alt.=146.888794m. Speed=21.636000m/h.</desc>
<speed>6.010000</speed>
</trkpt>
<trkpt lat="55.770672" lon="26.216059">
<ele>147.869263</ele>
<time>2010-07-17T12:06:51Z</time>
<desc>lat.=55.770672, lon.=26.216059, Alt.=147.869263m. Speed=22.356001m/h.</desc>
<speed>6.210000</speed>
</trkpt>
<trkpt lat="55.770729" lon="26.216021">
<ele>146.888794</ele>
<time>2010-07-17T12:06:52Z</time>
<desc>lat.=55.770729, lon.=26.216021, Alt.=146.888794m. Speed=23.256001m/h.</desc>
<speed>6.460000</speed>
</trkpt>
<trkpt lat="55.770790" lon="26.215977">
<ele>147.193481</ele>
<time>2010-07-17T12:06:53Z</time>
<desc>lat.=55.770790, lon.=26.215977, Alt.=147.193481m. Speed=23.292000m/h.</desc>
<speed>6.470000</speed>
</trkpt>
<trkpt lat="55.770851" lon="26.215937">
<ele>147.255981</ele>
<time>2010-07-17T12:06:54Z</time>
<desc>lat.=55.770851, lon.=26.215937, Alt.=147.255981m. Speed=23.148001m/h.</desc>
<speed>6.430000</speed>
</trkpt>
<trkpt lat="55.770905" lon="26.215900">
<ele>147.478638</ele>
<time>2010-07-17T12:06:55Z</time>
<desc>lat.=55.770905, lon.=26.215900, Alt.=147.478638m. Speed=23.219999m/h.</desc>
<speed>6.450000</speed>
</trkpt>
<trkpt lat="55.770962" lon="26.215858">
<ele>147.357544</ele>
<time>2010-07-17T12:06:56Z</time>
<desc>lat.=55.770962, lon.=26.215858, Alt.=147.357544m. Speed=22.968000m/h.</desc>
<speed>6.380000</speed>
</trkpt>
<trkpt lat="55.771027" lon="26.215818">
<ele>148.041138</ele>
<time>2010-07-17T12:06:57Z</time>
<desc>lat.=55.771027, lon.=26.215818, Alt.=148.041138m. Speed=23.507999m/h.</desc>
<speed>6.530000</speed>
</trkpt>
<trkpt lat="55.771084" lon="26.215782">
<ele>147.877075</ele>
<time>2010-07-17T12:06:58Z</time>
<desc>lat.=55.771084, lon.=26.215782, Alt.=147.877075m. Speed=24.011999m/h.</desc>
<speed>6.670000</speed>
</trkpt>
<trkpt lat="55.771141" lon="26.215738">
<ele>147.771606</ele>
<time>2010-07-17T12:06:59Z</time>
<desc>lat.=55.771141, lon.=26.215738, Alt.=147.771606m. Speed=24.912001m/h.</desc>
<speed>6.920000</speed>
</trkpt>
<trkpt lat="55.771206" lon="26.215696">
<ele>148.416138</ele>
<time>2010-07-17T12:07:00Z</time>
<desc>lat.=55.771206, lon.=26.215696, Alt.=148.416138m. Speed=25.236000m/h.</desc>
<speed>7.010000</speed>
</trkpt>
<trkpt lat="55.771267" lon="26.215651">
<ele>148.545044</ele>
<time>2010-07-17T12:07:01Z</time>
<desc>lat.=55.771267, lon.=26.215651, Alt.=148.545044m. Speed=26.459999m/h.</desc>
<speed>7.350000</speed>
</trkpt>
<trkpt lat="55.771328" lon="26.215593">
<ele>148.646606</ele>
<time>2010-07-17T12:07:02Z</time>
<desc>lat.=55.771328, lon.=26.215593, Alt.=148.646606m. Speed=26.136000m/h.</desc>
<speed>7.260000</speed>
</trkpt>
<trkpt lat="55.771389" lon="26.215542">
<ele>149.029419</ele>
<time>2010-07-17T12:07:03Z</time>
<desc>lat.=55.771389, lon.=26.215542, Alt.=149.029419m. Speed=24.948000m/h.</desc>
<speed>6.930000</speed>
</trkpt>
<trkpt lat="55.771442" lon="26.215494">
<ele>148.775513</ele>
<time>2010-07-17T12:07:04Z</time>
<desc>lat.=55.771442, lon.=26.215494, Alt.=148.775513m. Speed=23.868000m/h.</desc>
<speed>6.630000</speed>
</trkpt>
<trkpt lat="55.771496" lon="26.215439">
<ele>148.970825</ele>
<time>2010-07-17T12:07:05Z</time>
<desc>lat.=55.771496, lon.=26.215439, Alt.=148.970825m. Speed=23.615999m/h.</desc>
<speed>6.560000</speed>
</trkpt>
<trkpt lat="55.771549" lon="26.215382">
<ele>149.427856</ele>
<time>2010-07-17T12:07:06Z</time>
<desc>lat.=55.771549, lon.=26.215382, Alt.=149.427856m. Speed=22.931999m/h.</desc>
<speed>6.370000</speed>
</trkpt>
<trkpt lat="55.771599" lon="26.215328">
<ele>149.560669</ele>
<time>2010-07-17T12:07:07Z</time>
<desc>lat.=55.771599, lon.=26.215328, Alt.=149.560669m. Speed=22.896000m/h.</desc>
<speed>6.360000</speed>
</trkpt>
<trkpt lat="55.771648" lon="26.215267">
<ele>149.537231</ele>
<time>2010-07-17T12:07:08Z</time>
<desc>lat.=55.771648, lon.=26.215267, Alt.=149.537231m. Speed=22.464001m/h.</desc>
<speed>6.240000</speed>
</trkpt>
<trkpt lat="55.771698" lon="26.215216">
<ele>149.775513</ele>
<time>2010-07-17T12:07:09Z</time>
<desc>lat.=55.771698, lon.=26.215216, Alt.=149.775513m. Speed=22.068001m/h.</desc>
<speed>6.130000</speed>
</trkpt>
<trkpt lat="55.771748" lon="26.215170">
<ele>150.119263</ele>
<time>2010-07-17T12:07:10Z</time>
<desc>lat.=55.771748, lon.=26.215170, Alt.=150.119263m. Speed=21.059999m/h.</desc>
<speed>5.850000</speed>
</trkpt>
<trkpt lat="55.771797" lon="26.215124">
<ele>150.591919</ele>
<time>2010-07-17T12:07:11Z</time>
<desc>lat.=55.771797, lon.=26.215124, Alt.=150.591919m. Speed=21.204000m/h.</desc>
<speed>5.890000</speed>
</trkpt>
<trkpt lat="55.771847" lon="26.215086">
<ele>150.666138</ele>
<time>2010-07-17T12:07:12Z</time>
<desc>lat.=55.771847, lon.=26.215086, Alt.=150.666138m. Speed=20.808001m/h.</desc>
<speed>5.780000</speed>
</trkpt>
<trkpt lat="55.771900" lon="26.215048">
<ele>150.966919</ele>
<time>2010-07-17T12:07:13Z</time>
<desc>lat.=55.771900, lon.=26.215048, Alt.=150.966919m. Speed=21.420000m/h.</desc>
<speed>5.950000</speed>
</trkpt>
<trkpt lat="55.771957" lon="26.215021">
<ele>151.353638</ele>
<time>2010-07-17T12:07:14Z</time>
<desc>lat.=55.771957, lon.=26.215021, Alt.=151.353638m. Speed=24.191999m/h.</desc>
<speed>6.720000</speed>
</trkpt>
<trkpt lat="55.772015" lon="26.214991">
<ele>151.377075</ele>
<time>2010-07-17T12:07:15Z</time>
<desc>lat.=55.772015, lon.=26.214991, Alt.=151.377075m. Speed=25.164000m/h.</desc>
<speed>6.990000</speed>
</trkpt>
<trkpt lat="55.772079" lon="26.214960">
<ele>151.755981</ele>
<time>2010-07-17T12:07:16Z</time>
<desc>lat.=55.772079, lon.=26.214960, Alt.=151.755981m. Speed=26.028000m/h.</desc>
<speed>7.230000</speed>
</trkpt>
<trkpt lat="55.772141" lon="26.214928">
<ele>151.193481</ele>
<time>2010-07-17T12:07:17Z</time>
<desc>lat.=55.772141, lon.=26.214928, Alt.=151.193481m. Speed=25.920000m/h.</desc>
<speed>7.200000</speed>
</trkpt>
<trkpt lat="55.772202" lon="26.214893">
<ele>150.970825</ele>
<time>2010-07-17T12:07:18Z</time>
<desc>lat.=55.772202, lon.=26.214893, Alt.=150.970825m. Speed=26.028000m/h.</desc>
<speed>7.230000</speed>
</trkpt>
<trkpt lat="55.772263" lon="26.214867">
<ele>151.287231</ele>
<time>2010-07-17T12:07:19Z</time>
<desc>lat.=55.772263, lon.=26.214867, Alt.=151.287231m. Speed=26.676001m/h.</desc>
<speed>7.410000</speed>
</trkpt>
<trkpt lat="55.772331" lon="26.214836">
<ele>150.904419</ele>
<time>2010-07-17T12:07:20Z</time>
<desc>lat.=55.772331, lon.=26.214836, Alt.=150.904419m. Speed=26.892000m/h.</desc>
<speed>7.470000</speed>
</trkpt>
<trkpt lat="55.772400" lon="26.214804">
<ele>150.982544</ele>
<time>2010-07-17T12:07:21Z</time>
<desc>lat.=55.772400, lon.=26.214804, Alt.=150.982544m. Speed=26.639999m/h.</desc>
<speed>7.400000</speed>
</trkpt>
<trkpt lat="55.772465" lon="26.214771">
<ele>151.607544</ele>
<time>2010-07-17T12:07:22Z</time>
<desc>lat.=55.772465, lon.=26.214771, Alt.=151.607544m. Speed=27.143999m/h.</desc>
<speed>7.540000</speed>
</trkpt>
<trkpt lat="55.772533" lon="26.214737">
<ele>151.326294</ele>
<time>2010-07-17T12:07:23Z</time>
<desc>lat.=55.772533, lon.=26.214737, Alt.=151.326294m. Speed=27.252001m/h.</desc>
<speed>7.570000</speed>
</trkpt>
<trkpt lat="55.772602" lon="26.214712">
<ele>151.185669</ele>
<time>2010-07-17T12:07:24Z</time>
<desc>lat.=55.772602, lon.=26.214712, Alt.=151.185669m. Speed=27.756001m/h.</desc>
<speed>7.710000</speed>
</trkpt>
<trkpt lat="55.772675" lon="26.214691">
<ele>151.236450</ele>
<time>2010-07-17T12:07:25Z</time>
<desc>lat.=55.772675, lon.=26.214691, Alt.=151.236450m. Speed=29.340000m/h.</desc>
<speed>8.150000</speed>
</trkpt>
<trkpt lat="55.772747" lon="26.214670">
<ele>151.283325</ele>
<time>2010-07-17T12:07:26Z</time>
<desc>lat.=55.772747, lon.=26.214670, Alt.=151.283325m. Speed=29.375999m/h.</desc>
<speed>8.160000</speed>
</trkpt>
<trkpt lat="55.772820" lon="26.214659">
<ele>151.353638</ele>
<time>2010-07-17T12:07:27Z</time>
<desc>lat.=55.772820, lon.=26.214659, Alt.=151.353638m. Speed=29.016001m/h.</desc>
<speed>8.060000</speed>
</trkpt>
<trkpt lat="55.772888" lon="26.214657">
<ele>151.357544</ele>
<time>2010-07-17T12:07:28Z</time>
<desc>lat.=55.772888, lon.=26.214657, Alt.=151.357544m. Speed=27.143999m/h.</desc>
<speed>7.540000</speed>
</trkpt>
<trkpt lat="55.772957" lon="26.214663">
<ele>151.384888</ele>
<time>2010-07-17T12:07:29Z</time>
<desc>lat.=55.772957, lon.=26.214663, Alt.=151.384888m. Speed=27.216000m/h.</desc>
<speed>7.560000</speed>
</trkpt>
<trkpt lat="55.773018" lon="26.214666">
<ele>151.474731</ele>
<time>2010-07-17T12:07:30Z</time>
<desc>lat.=55.773018, lon.=26.214666, Alt.=151.474731m. Speed=25.091999m/h.</desc>
<speed>6.970000</speed>
</trkpt>
<trkpt lat="55.773079" lon="26.214674">
<ele>151.431763</ele>
<time>2010-07-17T12:07:31Z</time>
<desc>lat.=55.773079, lon.=26.214674, Alt.=151.431763m. Speed=24.875999m/h.</desc>
<speed>6.910000</speed>
</trkpt>
<trkpt lat="55.773140" lon="26.214680">
<ele>151.443481</ele>
<time>2010-07-17T12:07:32Z</time>
<desc>lat.=55.773140, lon.=26.214680, Alt.=151.443481m. Speed=24.372000m/h.</desc>
<speed>6.770000</speed>
</trkpt>
<trkpt lat="55.773197" lon="26.214687">
<ele>151.412231</ele>
<time>2010-07-17T12:07:33Z</time>
<desc>lat.=55.773197, lon.=26.214687, Alt.=151.412231m. Speed=24.120001m/h.</desc>
<speed>6.700000</speed>
</trkpt>
<trkpt lat="55.773254" lon="26.214697">
<ele>151.400513</ele>
<time>2010-07-17T12:07:34Z</time>
<desc>lat.=55.773254, lon.=26.214697, Alt.=151.400513m. Speed=21.996000m/h.</desc>
<speed>6.110000</speed>
</trkpt>
<trkpt lat="55.773312" lon="26.214703">
<ele>151.959106</ele>
<time>2010-07-17T12:07:35Z</time>
<desc>lat.=55.773312, lon.=26.214703, Alt.=151.959106m. Speed=23.364000m/h.</desc>
<speed>6.490000</speed>
</trkpt>
<trkpt lat="55.773365" lon="26.214712">
<ele>152.107544</ele>
<time>2010-07-17T12:07:36Z</time>
<desc>lat.=55.773365, lon.=26.214712, Alt.=152.107544m. Speed=23.292000m/h.</desc>
<speed>6.470000</speed>
</trkpt>
<trkpt lat="55.773426" lon="26.214718">
<ele>152.146606</ele>
<time>2010-07-17T12:07:37Z</time>
<desc>lat.=55.773426, lon.=26.214718, Alt.=152.146606m. Speed=23.580000m/h.</desc>
<speed>6.550000</speed>
</trkpt>
<trkpt lat="55.773479" lon="26.214722">
<ele>152.177856</ele>
<time>2010-07-17T12:07:38Z</time>
<desc>lat.=55.773479, lon.=26.214722, Alt.=152.177856m. Speed=22.212000m/h.</desc>
<speed>6.170000</speed>
</trkpt>
<trkpt lat="55.773544" lon="26.214720">
<ele>152.088013</ele>
<time>2010-07-17T12:07:39Z</time>
<desc>lat.=55.773544, lon.=26.214720, Alt.=152.088013m. Speed=23.688000m/h.</desc>
<speed>6.580000</speed>
</trkpt>
<trkpt lat="55.773598" lon="26.214710">
<ele>150.966919</ele>
<time>2010-07-17T12:07:40Z</time>
<desc>lat.=55.773598, lon.=26.214710, Alt.=150.966919m. Speed=23.292000m/h.</desc>
<speed>6.470000</speed>
</trkpt>
<trkpt lat="55.773663" lon="26.214693">
<ele>151.173950</ele>
<time>2010-07-17T12:07:41Z</time>
<desc>lat.=55.773663, lon.=26.214693, Alt.=151.173950m. Speed=23.760000m/h.</desc>
<speed>6.600000</speed>
</trkpt>
<trkpt lat="55.773716" lon="26.214676">
<ele>151.095825</ele>
<time>2010-07-17T12:07:42Z</time>
<desc>lat.=55.773716, lon.=26.214676, Alt.=151.095825m. Speed=24.048000m/h.</desc>
<speed>6.680000</speed>
</trkpt>
<trkpt lat="55.773777" lon="26.214651">
<ele>151.138794</ele>
<time>2010-07-17T12:07:43Z</time>
<desc>lat.=55.773777, lon.=26.214651, Alt.=151.138794m. Speed=23.507999m/h.</desc>
<speed>6.530000</speed>
</trkpt>
<trkpt lat="55.773838" lon="26.214621">
<ele>151.088013</ele>
<time>2010-07-17T12:07:44Z</time>
<desc>lat.=55.773838, lon.=26.214621, Alt.=151.088013m. Speed=24.084000m/h.</desc>
<speed>6.690000</speed>
</trkpt>
<trkpt lat="55.773891" lon="26.214594">
<ele>150.548950</ele>
<time>2010-07-17T12:07:45Z</time>
<desc>lat.=55.773891, lon.=26.214594, Alt.=150.548950m. Speed=23.507999m/h.</desc>
<speed>6.530000</speed>
</trkpt>
<trkpt lat="55.773949" lon="26.214552">
<ele>150.931763</ele>
<time>2010-07-17T12:07:46Z</time>
<desc>lat.=55.773949, lon.=26.214552, Alt.=150.931763m. Speed=22.716000m/h.</desc>
<speed>6.310000</speed>
</trkpt>
<trkpt lat="55.774006" lon="26.214512">
<ele>151.318481</ele>
<time>2010-07-17T12:07:47Z</time>
<desc>lat.=55.774006, lon.=26.214512, Alt.=151.318481m. Speed=22.427999m/h.</desc>
<speed>6.230000</speed>
</trkpt>
<trkpt lat="55.774063" lon="26.214476">
<ele>151.884888</ele>
<time>2010-07-17T12:07:48Z</time>
<desc>lat.=55.774063, lon.=26.214476, Alt.=151.884888m. Speed=23.076000m/h.</desc>
<speed>6.410000</speed>
</trkpt>
<trkpt lat="55.774124" lon="26.214434">
<ele>151.970825</ele>
<time>2010-07-17T12:07:49Z</time>
<desc>lat.=55.774124, lon.=26.214434, Alt.=151.970825m. Speed=23.292000m/h.</desc>
<speed>6.470000</speed>
</trkpt>
<trkpt lat="55.774181" lon="26.214399">
<ele>151.955200</ele>
<time>2010-07-17T12:07:50Z</time>
<desc>lat.=55.774181, lon.=26.214399, Alt.=151.955200m. Speed=23.796000m/h.</desc>
<speed>6.610000</speed>
</trkpt>
<trkpt lat="55.774235" lon="26.214365">
<ele>152.115356</ele>
<time>2010-07-17T12:07:51Z</time>
<desc>lat.=55.774235, lon.=26.214365, Alt.=152.115356m. Speed=23.112000m/h.</desc>
<speed>6.420000</speed>
</trkpt>
<trkpt lat="55.774292" lon="26.214327">
<ele>152.525513</ele>
<time>2010-07-17T12:07:52Z</time>
<desc>lat.=55.774292, lon.=26.214327, Alt.=152.525513m. Speed=22.860001m/h.</desc>
<speed>6.350000</speed>
</trkpt>
<trkpt lat="55.774345" lon="26.214293">
<ele>152.322388</ele>
<time>2010-07-17T12:07:53Z</time>
<desc>lat.=55.774345, lon.=26.214293, Alt.=152.322388m. Speed=22.572001m/h.</desc>
<speed>6.270000</speed>
</trkpt>
<trkpt lat="55.774403" lon="26.214260">
<ele>152.994263</ele>
<time>2010-07-17T12:07:54Z</time>
<desc>lat.=55.774403, lon.=26.214260, Alt.=152.994263m. Speed=22.608000m/h.</desc>
<speed>6.280000</speed>
</trkpt>
<trkpt lat="55.774460" lon="26.214224">
<ele>153.490356</ele>
<time>2010-07-17T12:07:55Z</time>
<desc>lat.=55.774460, lon.=26.214224, Alt.=153.490356m. Speed=21.888000m/h.</desc>
<speed>6.080000</speed>
</trkpt>
<trkpt lat="55.774509" lon="26.214190">
<ele>153.545044</ele>
<time>2010-07-17T12:07:56Z</time>
<desc>lat.=55.774509, lon.=26.214190, Alt.=153.545044m. Speed=21.348000m/h.</desc>
<speed>5.930000</speed>
</trkpt>
<trkpt lat="55.774567" lon="26.214157">
<ele>153.994263</ele>
<time>2010-07-17T12:07:57Z</time>
<desc>lat.=55.774567, lon.=26.214157, Alt.=153.994263m. Speed=20.124001m/h.</desc>
<speed>5.590000</speed>
</trkpt>
<trkpt lat="55.774612" lon="26.214127">
<ele>153.861450</ele>
<time>2010-07-17T12:07:58Z</time>
<desc>lat.=55.774612, lon.=26.214127, Alt.=153.861450m. Speed=19.296000m/h.</desc>
<speed>5.360000</speed>
</trkpt>
<trkpt lat="55.774658" lon="26.214100">
<ele>153.693481</ele>
<time>2010-07-17T12:07:59Z</time>
<desc>lat.=55.774658, lon.=26.214100, Alt.=153.693481m. Speed=18.972000m/h.</desc>
<speed>5.270000</speed>
</trkpt>
<trkpt lat="55.774708" lon="26.214066">
<ele>153.517700</ele>
<time>2010-07-17T12:08:00Z</time>
<desc>lat.=55.774708, lon.=26.214066, Alt.=153.517700m. Speed=21.528000m/h.</desc>
<speed>5.980000</speed>
</trkpt>
<trkpt lat="55.774757" lon="26.214025">
<ele>153.502075</ele>
<time>2010-07-17T12:08:01Z</time>
<desc>lat.=55.774757, lon.=26.214025, Alt.=153.502075m. Speed=21.455999m/h.</desc>
<speed>5.960000</speed>
</trkpt>
<trkpt lat="55.774815" lon="26.213985">
<ele>153.420044</ele>
<time>2010-07-17T12:08:02Z</time>
<desc>lat.=55.774815, lon.=26.213985, Alt.=153.420044m. Speed=22.896000m/h.</desc>
<speed>6.360000</speed>
</trkpt>
<trkpt lat="55.774872" lon="26.213945">
<ele>153.884888</ele>
<time>2010-07-17T12:08:03Z</time>
<desc>lat.=55.774872, lon.=26.213945, Alt.=153.884888m. Speed=24.011999m/h.</desc>
<speed>6.670000</speed>
</trkpt>
<trkpt lat="55.774929" lon="26.213902">
<ele>154.384888</ele>
<time>2010-07-17T12:08:04Z</time>
<desc>lat.=55.774929, lon.=26.213902, Alt.=154.384888m. Speed=24.156000m/h.</desc>
<speed>6.710000</speed>
</trkpt>
<trkpt lat="55.774982" lon="26.213856">
<ele>154.283325</ele>
<time>2010-07-17T12:08:05Z</time>
<desc>lat.=55.774982, lon.=26.213856, Alt.=154.283325m. Speed=25.559999m/h.</desc>
<speed>7.100000</speed>
</trkpt>
<trkpt lat="55.775047" lon="26.213818">
<ele>155.107544</ele>
<time>2010-07-17T12:08:06Z</time>
<desc>lat.=55.775047, lon.=26.213818, Alt.=155.107544m. Speed=25.992001m/h.</desc>
<speed>7.220000</speed>
</trkpt>
<trkpt lat="55.775112" lon="26.213778">
<ele>155.279419</ele>
<time>2010-07-17T12:08:07Z</time>
<desc>lat.=55.775112, lon.=26.213778, Alt.=155.279419m. Speed=26.351999m/h.</desc>
<speed>7.320000</speed>
</trkpt>
<trkpt lat="55.775173" lon="26.213732">
<ele>155.646606</ele>
<time>2010-07-17T12:08:08Z</time>
<desc>lat.=55.775173, lon.=26.213732, Alt.=155.646606m. Speed=26.712000m/h.</desc>
<speed>7.420000</speed>
</trkpt>
<trkpt lat="55.775238" lon="26.213688">
<ele>156.209106</ele>
<time>2010-07-17T12:08:09Z</time>
<desc>lat.=55.775238, lon.=26.213688, Alt.=156.209106m. Speed=26.496000m/h.</desc>
<speed>7.360000</speed>
</trkpt>
<trkpt lat="55.775307" lon="26.213640">
<ele>157.068481</ele>
<time>2010-07-17T12:08:10Z</time>
<desc>lat.=55.775307, lon.=26.213640, Alt.=157.068481m. Speed=26.784000m/h.</desc>
<speed>7.440000</speed>
</trkpt>
<trkpt lat="55.775372" lon="26.213596">
<ele>157.630981</ele>
<time>2010-07-17T12:08:11Z</time>
<desc>lat.=55.775372, lon.=26.213596, Alt.=157.630981m. Speed=26.712000m/h.</desc>
<speed>7.420000</speed>
</trkpt>
<trkpt lat="55.775436" lon="26.213554">
<ele>157.880981</ele>
<time>2010-07-17T12:08:12Z</time>
<desc>lat.=55.775436, lon.=26.213554, Alt.=157.880981m. Speed=26.927999m/h.</desc>
<speed>7.480000</speed>
</trkpt>
<trkpt lat="55.775501" lon="26.213512">
<ele>158.123169</ele>
<time>2010-07-17T12:08:13Z</time>
<desc>lat.=55.775501, lon.=26.213512, Alt.=158.123169m. Speed=26.784000m/h.</desc>
<speed>7.440000</speed>
</trkpt>
<trkpt lat="55.775566" lon="26.213470">
<ele>158.326294</ele>
<time>2010-07-17T12:08:14Z</time>
<desc>lat.=55.775566, lon.=26.213470, Alt.=158.326294m. Speed=26.784000m/h.</desc>
<speed>7.440000</speed>
</trkpt>
<trkpt lat="55.775635" lon="26.213427">
<ele>158.213013</ele>
<time>2010-07-17T12:08:15Z</time>
<desc>lat.=55.775635, lon.=26.213427, Alt.=158.213013m. Speed=27.143999m/h.</desc>
<speed>7.540000</speed>
</trkpt>
<trkpt lat="55.775696" lon="26.213377">
<ele>157.959106</ele>
<time>2010-07-17T12:08:16Z</time>
<desc>lat.=55.775696, lon.=26.213377, Alt.=157.959106m. Speed=27.288000m/h.</desc>
<speed>7.580000</speed>
</trkpt>
<trkpt lat="55.775757" lon="26.213326">
<ele>157.990356</ele>
<time>2010-07-17T12:08:17Z</time>
<desc>lat.=55.775757, lon.=26.213326, Alt.=157.990356m. Speed=27.684000m/h.</desc>
<speed>7.690000</speed>
</trkpt>
<trkpt lat="55.775822" lon="26.213278">
<ele>157.779419</ele>
<time>2010-07-17T12:08:18Z</time>
<desc>lat.=55.775822, lon.=26.213278, Alt.=157.779419m. Speed=28.296000m/h.</desc>
<speed>7.860000</speed>
</trkpt>
<trkpt lat="55.775890" lon="26.213230">
<ele>157.423950</ele>
<time>2010-07-17T12:08:19Z</time>
<desc>lat.=55.775890, lon.=26.213230, Alt.=157.423950m. Speed=29.412001m/h.</desc>
<speed>8.170000</speed>
</trkpt>
<trkpt lat="55.775959" lon="26.213182">
<ele>156.986450</ele>
<time>2010-07-17T12:08:20Z</time>
<desc>lat.=55.775959, lon.=26.213182, Alt.=156.986450m. Speed=30.240000m/h.</desc>
<speed>8.400000</speed>
</trkpt>
<trkpt lat="55.776028" lon="26.213137">
<ele>156.666138</ele>
<time>2010-07-17T12:08:21Z</time>
<desc>lat.=55.776028, lon.=26.213137, Alt.=156.666138m. Speed=30.780001m/h.</desc>
<speed>8.550000</speed>
</trkpt>
<trkpt lat="55.776100" lon="26.213089">
<ele>156.423950</ele>
<time>2010-07-17T12:08:22Z</time>
<desc>lat.=55.776100, lon.=26.213089, Alt.=156.423950m. Speed=31.392000m/h.</desc>
<speed>8.720000</speed>
</trkpt>
<trkpt lat="55.776173" lon="26.213041">
<ele>156.127075</ele>
<time>2010-07-17T12:08:23Z</time>
<desc>lat.=55.776173, lon.=26.213041, Alt.=156.127075m. Speed=31.680000m/h.</desc>
<speed>8.800000</speed>
</trkpt>
<trkpt lat="55.776245" lon="26.212997">
<ele>155.537231</ele>
<time>2010-07-17T12:08:24Z</time>
<desc>lat.=55.776245, lon.=26.212997, Alt.=155.537231m. Speed=29.952000m/h.</desc>
<speed>8.320000</speed>
</trkpt>
<trkpt lat="55.776318" lon="26.212952">
<ele>155.298950</ele>
<time>2010-07-17T12:08:25Z</time>
<desc>lat.=55.776318, lon.=26.212952, Alt.=155.298950m. Speed=30.492001m/h.</desc>
<speed>8.470000</speed>
</trkpt>
<trkpt lat="55.776390" lon="26.212900">
<ele>155.209106</ele>
<time>2010-07-17T12:08:26Z</time>
<desc>lat.=55.776390, lon.=26.212900, Alt.=155.209106m. Speed=31.104000m/h.</desc>
<speed>8.640000</speed>
</trkpt>
<trkpt lat="55.776459" lon="26.212849">
<ele>155.173950</ele>
<time>2010-07-17T12:08:27Z</time>
<desc>lat.=55.776459, lon.=26.212849, Alt.=155.173950m. Speed=30.059999m/h.</desc>
<speed>8.350000</speed>
</trkpt>
<trkpt lat="55.776531" lon="26.212782">
<ele>156.084106</ele>
<time>2010-07-17T12:08:28Z</time>
<desc>lat.=55.776531, lon.=26.212782, Alt.=156.084106m. Speed=29.520000m/h.</desc>
<speed>8.200000</speed>
</trkpt>
<trkpt lat="55.776596" lon="26.212719">
<ele>156.365356</ele>
<time>2010-07-17T12:08:29Z</time>
<desc>lat.=55.776596, lon.=26.212719, Alt.=156.365356m. Speed=28.403999m/h.</desc>
<speed>7.890000</speed>
</trkpt>
<trkpt lat="55.776657" lon="26.212658">
<ele>156.630981</ele>
<time>2010-07-17T12:08:30Z</time>
<desc>lat.=55.776657, lon.=26.212658, Alt.=156.630981m. Speed=28.548000m/h.</desc>
<speed>7.930000</speed>
</trkpt>
<trkpt lat="55.776699" lon="26.212591">
<ele>156.279419</ele>
<time>2010-07-17T12:08:31Z</time>
<desc>lat.=55.776699, lon.=26.212591, Alt.=156.279419m. Speed=22.464001m/h.</desc>
<speed>6.240000</speed>
</trkpt>
<trkpt lat="55.776741" lon="26.212532">
<ele>156.173950</ele>
<time>2010-07-17T12:08:32Z</time>
<desc>lat.=55.776741, lon.=26.212532, Alt.=156.173950m. Speed=21.563999m/h.</desc>
<speed>5.990000</speed>
</trkpt>
<trkpt lat="55.776787" lon="26.212473">
<ele>156.810669</ele>
<time>2010-07-17T12:08:33Z</time>
<desc>lat.=55.776787, lon.=26.212473, Alt.=156.810669m. Speed=21.600000m/h.</desc>
<speed>6.000000</speed>
</trkpt>
<trkpt lat="55.776833" lon="26.212408">
<ele>157.463013</ele>
<time>2010-07-17T12:08:34Z</time>
<desc>lat.=55.776833, lon.=26.212408, Alt.=157.463013m. Speed=20.736000m/h.</desc>
<speed>5.760000</speed>
</trkpt>
<trkpt lat="55.776875" lon="26.212345">
<ele>157.494263</ele>
<time>2010-07-17T12:08:35Z</time>
<desc>lat.=55.776875, lon.=26.212345, Alt.=157.494263m. Speed=21.384001m/h.</desc>
<speed>5.940000</speed>
</trkpt>
<trkpt lat="55.776905" lon="26.212284">
<ele>157.880981</ele>
<time>2010-07-17T12:08:36Z</time>
<desc>lat.=55.776905, lon.=26.212284, Alt.=157.880981m. Speed=16.236000m/h.</desc>
<speed>4.510000</speed>
</trkpt>
<trkpt lat="55.776936" lon="26.212229">
<ele>157.912231</ele>
<time>2010-07-17T12:08:37Z</time>
<desc>lat.=55.776936, lon.=26.212229, Alt.=157.912231m. Speed=17.927999m/h.</desc>
<speed>4.980000</speed>
</trkpt>
<trkpt lat="55.776966" lon="26.212164">
<ele>158.201294</ele>
<time>2010-07-17T12:08:38Z</time>
<desc>lat.=55.776966, lon.=26.212164, Alt.=158.201294m. Speed=17.747999m/h.</desc>
<speed>4.930000</speed>
</trkpt>
<trkpt lat="55.776993" lon="26.212099">
<ele>158.068481</ele>
<time>2010-07-17T12:08:39Z</time>
<desc>lat.=55.776993, lon.=26.212099, Alt.=158.068481m. Speed=17.316000m/h.</desc>
<speed>4.810000</speed>
</trkpt>
<trkpt lat="55.777031" lon="26.212036">
<ele>157.822388</ele>
<time>2010-07-17T12:08:40Z</time>
<desc>lat.=55.777031, lon.=26.212036, Alt.=157.822388m. Speed=19.691999m/h.</desc>
<speed>5.470000</speed>
</trkpt>
<trkpt lat="55.777069" lon="26.211967">
<ele>157.533325</ele>
<time>2010-07-17T12:08:41Z</time>
<desc>lat.=55.777069, lon.=26.211967, Alt.=157.533325m. Speed=20.952000m/h.</desc>
<speed>5.820000</speed>
</trkpt>
<trkpt lat="55.777107" lon="26.211893">
<ele>157.525513</ele>
<time>2010-07-17T12:08:42Z</time>
<desc>lat.=55.777107, lon.=26.211893, Alt.=157.525513m. Speed=22.284000m/h.</desc>
<speed>6.190000</speed>
</trkpt>
<trkpt lat="55.777145" lon="26.211821">
<ele>157.650513</ele>
<time>2010-07-17T12:08:43Z</time>
<desc>lat.=55.777145, lon.=26.211821, Alt.=157.650513m. Speed=19.476000m/h.</desc>
<speed>5.410000</speed>
</trkpt>
<trkpt lat="55.777184" lon="26.211742">
<ele>157.673950</ele>
<time>2010-07-17T12:08:44Z</time>
<desc>lat.=55.777184, lon.=26.211742, Alt.=157.673950m. Speed=23.148001m/h.</desc>
<speed>6.430000</speed>
</trkpt>
<trkpt lat="55.777225" lon="26.211664">
<ele>157.838013</ele>
<time>2010-07-17T12:08:45Z</time>
<desc>lat.=55.777225, lon.=26.211664, Alt.=157.838013m. Speed=23.615999m/h.</desc>
<speed>6.560000</speed>
</trkpt>
<trkpt lat="55.777267" lon="26.211580">
<ele>157.576294</ele>
<time>2010-07-17T12:08:46Z</time>
<desc>lat.=55.777267, lon.=26.211580, Alt.=157.576294m. Speed=26.028000m/h.</desc>
<speed>7.230000</speed>
</trkpt>
<trkpt lat="55.777317" lon="26.211496">
<ele>157.490356</ele>
<time>2010-07-17T12:08:47Z</time>
<desc>lat.=55.777317, lon.=26.211496, Alt.=157.490356m. Speed=26.604000m/h.</desc>
<speed>7.390000</speed>
</trkpt>
<trkpt lat="55.777359" lon="26.211412">
<ele>157.591919</ele>
<time>2010-07-17T12:08:48Z</time>
<desc>lat.=55.777359, lon.=26.211412, Alt.=157.591919m. Speed=25.920000m/h.</desc>
<speed>7.200000</speed>
</trkpt>
<trkpt lat="55.777405" lon="26.211327">
<ele>157.517700</ele>
<time>2010-07-17T12:08:49Z</time>
<desc>lat.=55.777405, lon.=26.211327, Alt.=157.517700m. Speed=26.280001m/h.</desc>
<speed>7.300000</speed>
</trkpt>
<trkpt lat="55.777454" lon="26.211241">
<ele>157.701294</ele>
<time>2010-07-17T12:08:50Z</time>
<desc>lat.=55.777454, lon.=26.211241, Alt.=157.701294m. Speed=26.028000m/h.</desc>
<speed>7.230000</speed>
</trkpt>
<trkpt lat="55.777500" lon="26.211159">
<ele>157.802856</ele>
<time>2010-07-17T12:08:51Z</time>
<desc>lat.=55.777500, lon.=26.211159, Alt.=157.802856m. Speed=25.344000m/h.</desc>
<speed>7.040000</speed>
</trkpt>
<trkpt lat="55.777546" lon="26.211079">
<ele>157.802856</ele>
<time>2010-07-17T12:08:52Z</time>
<desc>lat.=55.777546, lon.=26.211079, Alt.=157.802856m. Speed=24.732000m/h.</desc>
<speed>6.870000</speed>
</trkpt>
<trkpt lat="55.777592" lon="26.211000">
<ele>157.806763</ele>
<time>2010-07-17T12:08:53Z</time>
<desc>lat.=55.777592, lon.=26.211000, Alt.=157.806763m. Speed=23.615999m/h.</desc>
<speed>6.560000</speed>
</trkpt>
<trkpt lat="55.777634" lon="26.210922">
<ele>157.927856</ele>
<time>2010-07-17T12:08:54Z</time>
<desc>lat.=55.777634, lon.=26.210922, Alt.=157.927856m. Speed=22.139999m/h.</desc>
<speed>6.150000</speed>
</trkpt>
<trkpt lat="55.777672" lon="26.210854">
<ele>157.966919</ele>
<time>2010-07-17T12:08:55Z</time>
<desc>lat.=55.777672, lon.=26.210854, Alt.=157.966919m. Speed=20.483999m/h.</desc>
<speed>5.690000</speed>
</trkpt>
<trkpt lat="55.777706" lon="26.210791">
<ele>158.002075</ele>
<time>2010-07-17T12:08:56Z</time>
<desc>lat.=55.777706, lon.=26.210791, Alt.=158.002075m. Speed=19.440001m/h.</desc>
<speed>5.400000</speed>
</trkpt>
<trkpt lat="55.777740" lon="26.210732">
<ele>158.060669</ele>
<time>2010-07-17T12:08:57Z</time>
<desc>lat.=55.777740, lon.=26.210732, Alt.=158.060669m. Speed=18.396000m/h.</desc>
<speed>5.110000</speed>
</trkpt>
<trkpt lat="55.777771" lon="26.210670">
<ele>157.931763</ele>
<time>2010-07-17T12:08:58Z</time>
<desc>lat.=55.777771, lon.=26.210670, Alt.=157.931763m. Speed=19.260000m/h.</desc>
<speed>5.350000</speed>
</trkpt>
<trkpt lat="55.777802" lon="26.210604">
<ele>157.752075</ele>
<time>2010-07-17T12:08:59Z</time>
<desc>lat.=55.777802, lon.=26.210604, Alt.=157.752075m. Speed=19.548000m/h.</desc>
<speed>5.430000</speed>
</trkpt>
<trkpt lat="55.777836" lon="26.210541">
<ele>157.830200</ele>
<time>2010-07-17T12:09:00Z</time>
<desc>lat.=55.777836, lon.=26.210541, Alt.=157.830200m. Speed=20.232000m/h.</desc>
<speed>5.620000</speed>
</trkpt>
<trkpt lat="55.777870" lon="26.210474">
<ele>157.810669</ele>
<time>2010-07-17T12:09:01Z</time>
<desc>lat.=55.777870, lon.=26.210474, Alt.=157.810669m. Speed=21.132000m/h.</desc>
<speed>5.870000</speed>
</trkpt>
<trkpt lat="55.777908" lon="26.210396">
<ele>158.103638</ele>
<time>2010-07-17T12:09:02Z</time>
<desc>lat.=55.777908, lon.=26.210396, Alt.=158.103638m. Speed=21.420000m/h.</desc>
<speed>5.950000</speed>
</trkpt>
<trkpt lat="55.777946" lon="26.210327">
<ele>157.943481</ele>
<time>2010-07-17T12:09:03Z</time>
<desc>lat.=55.777946, lon.=26.210327, Alt.=157.943481m. Speed=22.572001m/h.</desc>
<speed>6.270000</speed>
</trkpt>
<trkpt lat="55.777992" lon="26.210257">
<ele>157.959106</ele>
<time>2010-07-17T12:09:04Z</time>
<desc>lat.=55.777992, lon.=26.210257, Alt.=157.959106m. Speed=24.768000m/h.</desc>
<speed>6.880000</speed>
</trkpt>
<trkpt lat="55.778038" lon="26.210175">
<ele>157.947388</ele>
<time>2010-07-17T12:09:05Z</time>
<desc>lat.=55.778038, lon.=26.210175, Alt.=157.947388m. Speed=27.035999m/h.</desc>
<speed>7.510000</speed>
</trkpt>
<trkpt lat="55.778088" lon="26.210085">
<ele>158.150513</ele>
<time>2010-07-17T12:09:06Z</time>
<desc>lat.=55.778088, lon.=26.210085, Alt.=158.150513m. Speed=28.152000m/h.</desc>
<speed>7.820000</speed>
</trkpt>
<trkpt lat="55.778141" lon="26.209993">
<ele>158.134888</ele>
<time>2010-07-17T12:09:07Z</time>
<desc>lat.=55.778141, lon.=26.209993, Alt.=158.134888m. Speed=28.908001m/h.</desc>
<speed>8.030000</speed>
</trkpt>
<trkpt lat="55.778194" lon="26.209904">
<ele>157.779419</ele>
<time>2010-07-17T12:09:08Z</time>
<desc>lat.=55.778194, lon.=26.209904, Alt.=157.779419m. Speed=29.375999m/h.</desc>
<speed>8.160000</speed>
</trkpt>
<trkpt lat="55.778248" lon="26.209810">
<ele>157.748169</ele>
<time>2010-07-17T12:09:09Z</time>
<desc>lat.=55.778248, lon.=26.209810, Alt.=157.748169m. Speed=29.232000m/h.</desc>
<speed>8.120000</speed>
</trkpt>
<trkpt lat="55.778305" lon="26.209721">
<ele>157.588013</ele>
<time>2010-07-17T12:09:10Z</time>
<desc>lat.=55.778305, lon.=26.209721, Alt.=157.588013m. Speed=29.340000m/h.</desc>
<speed>8.150000</speed>
</trkpt>
<trkpt lat="55.778358" lon="26.209629">
<ele>157.634888</ele>
<time>2010-07-17T12:09:11Z</time>
<desc>lat.=55.778358, lon.=26.209629, Alt.=157.634888m. Speed=28.728001m/h.</desc>
<speed>7.980000</speed>
</trkpt>
<trkpt lat="55.778412" lon="26.209541">
<ele>157.509888</ele>
<time>2010-07-17T12:09:12Z</time>
<desc>lat.=55.778412, lon.=26.209541, Alt.=157.509888m. Speed=28.728001m/h.</desc>
<speed>7.980000</speed>
</trkpt>
<trkpt lat="55.778469" lon="26.209457">
<ele>157.463013</ele>
<time>2010-07-17T12:09:13Z</time>
<desc>lat.=55.778469, lon.=26.209457, Alt.=157.463013m. Speed=29.016001m/h.</desc>
<speed>8.060000</speed>
</trkpt>
<trkpt lat="55.778522" lon="26.209375">
<ele>157.529419</ele>
<time>2010-07-17T12:09:14Z</time>
<desc>lat.=55.778522, lon.=26.209375, Alt.=157.529419m. Speed=28.080000m/h.</desc>
<speed>7.800000</speed>
</trkpt>
<trkpt lat="55.778580" lon="26.209293">
<ele>157.388794</ele>
<time>2010-07-17T12:09:15Z</time>
<desc>lat.=55.778580, lon.=26.209293, Alt.=157.388794m. Speed=28.296000m/h.</desc>
<speed>7.860000</speed>
</trkpt>
<trkpt lat="55.778633" lon="26.209215">
<ele>156.970825</ele>
<time>2010-07-17T12:09:16Z</time>
<desc>lat.=55.778633, lon.=26.209215, Alt.=156.970825m. Speed=27.827999m/h.</desc>
<speed>7.730000</speed>
</trkpt>
<trkpt lat="55.778690" lon="26.209139">
<ele>156.740356</ele>
<time>2010-07-17T12:09:17Z</time>
<desc>lat.=55.778690, lon.=26.209139, Alt.=156.740356m. Speed=27.827999m/h.</desc>
<speed>7.730000</speed>
</trkpt>
<trkpt lat="55.778748" lon="26.209066">
<ele>156.693481</ele>
<time>2010-07-17T12:09:18Z</time>
<desc>lat.=55.778748, lon.=26.209066, Alt.=156.693481m. Speed=27.936001m/h.</desc>
<speed>7.760000</speed>
</trkpt>
<trkpt lat="55.778805" lon="26.208996">
<ele>156.502075</ele>
<time>2010-07-17T12:09:19Z</time>
<desc>lat.=55.778805, lon.=26.208996, Alt.=156.502075m. Speed=28.440001m/h.</desc>
<speed>7.900000</speed>
</trkpt>
<trkpt lat="55.778862" lon="26.208925">
<ele>156.353638</ele>
<time>2010-07-17T12:09:20Z</time>
<desc>lat.=55.778862, lon.=26.208925, Alt.=156.353638m. Speed=28.260000m/h.</desc>
<speed>7.850000</speed>
</trkpt>
<trkpt lat="55.778923" lon="26.208858">
<ele>156.025513</ele>
<time>2010-07-17T12:09:21Z</time>
<desc>lat.=55.778923, lon.=26.208858, Alt.=156.025513m. Speed=28.044001m/h.</desc>
<speed>7.790000</speed>
</trkpt>
<trkpt lat="55.778980" lon="26.208794">
<ele>155.369263</ele>
<time>2010-07-17T12:09:22Z</time>
<desc>lat.=55.778980, lon.=26.208794, Alt.=155.369263m. Speed=27.288000m/h.</desc>
<speed>7.580000</speed>
</trkpt>
<trkpt lat="55.779034" lon="26.208729">
<ele>154.779419</ele>
<time>2010-07-17T12:09:23Z</time>
<desc>lat.=55.779034, lon.=26.208729, Alt.=154.779419m. Speed=27.719999m/h.</desc>
<speed>7.700000</speed>
</trkpt>
<trkpt lat="55.779091" lon="26.208658">
<ele>154.806763</ele>
<time>2010-07-17T12:09:24Z</time>
<desc>lat.=55.779091, lon.=26.208658, Alt.=154.806763m. Speed=27.468000m/h.</desc>
<speed>7.630000</speed>
</trkpt>
<trkpt lat="55.779144" lon="26.208584">
<ele>154.830200</ele>
<time>2010-07-17T12:09:25Z</time>
<desc>lat.=55.779144, lon.=26.208584, Alt.=154.830200m. Speed=27.323999m/h.</desc>
<speed>7.590000</speed>
</trkpt>
<trkpt lat="55.779198" lon="26.208517">
<ele>154.763794</ele>
<time>2010-07-17T12:09:26Z</time>
<desc>lat.=55.779198, lon.=26.208517, Alt.=154.763794m. Speed=26.568001m/h.</desc>
<speed>7.380000</speed>
</trkpt>
<trkpt lat="55.779251" lon="26.208456">
<ele>154.849731</ele>
<time>2010-07-17T12:09:27Z</time>
<desc>lat.=55.779251, lon.=26.208456, Alt.=154.849731m. Speed=25.379999m/h.</desc>
<speed>7.050000</speed>
</trkpt>
<trkpt lat="55.779305" lon="26.208399">
<ele>155.244263</ele>
<time>2010-07-17T12:09:28Z</time>
<desc>lat.=55.779305, lon.=26.208399, Alt.=155.244263m. Speed=24.480000m/h.</desc>
<speed>6.800000</speed>
</trkpt>
<trkpt lat="55.779354" lon="26.208347">
<ele>155.380981</ele>
<time>2010-07-17T12:09:29Z</time>
<desc>lat.=55.779354, lon.=26.208347, Alt.=155.380981m. Speed=23.364000m/h.</desc>
<speed>6.490000</speed>
</trkpt>
<trkpt lat="55.779404" lon="26.208296">
<ele>155.302856</ele>
<time>2010-07-17T12:09:30Z</time>
<desc>lat.=55.779404, lon.=26.208296, Alt.=155.302856m. Speed=22.931999m/h.</desc>
<speed>6.370000</speed>
</trkpt>
<trkpt lat="55.779449" lon="26.208250">
<ele>155.423950</ele>
<time>2010-07-17T12:09:31Z</time>
<desc>lat.=55.779449, lon.=26.208250, Alt.=155.423950m. Speed=20.736000m/h.</desc>
<speed>5.760000</speed>
</trkpt>
<trkpt lat="55.779495" lon="26.208210">
<ele>155.595825</ele>
<time>2010-07-17T12:09:32Z</time>
<desc>lat.=55.779495, lon.=26.208210, Alt.=155.595825m. Speed=19.620001m/h.</desc>
<speed>5.450000</speed>
</trkpt>
<trkpt lat="55.779541" lon="26.208174">
<ele>155.951294</ele>
<time>2010-07-17T12:09:33Z</time>
<desc>lat.=55.779541, lon.=26.208174, Alt.=155.951294m. Speed=19.296000m/h.</desc>
<speed>5.360000</speed>
</trkpt>
<trkpt lat="55.779583" lon="26.208130">
<ele>156.283325</ele>
<time>2010-07-17T12:09:34Z</time>
<desc>lat.=55.779583, lon.=26.208130, Alt.=156.283325m. Speed=18.540001m/h.</desc>
<speed>5.150000</speed>
</trkpt>
<trkpt lat="55.779633" lon="26.208109">
<ele>157.748169</ele>
<time>2010-07-17T12:09:35Z</time>
<desc>lat.=55.779633, lon.=26.208109, Alt.=157.748169m. Speed=18.468000m/h.</desc>
<speed>5.130000</speed>
</trkpt>
<trkpt lat="55.779675" lon="26.208080">
<ele>158.357544</ele>
<time>2010-07-17T12:09:36Z</time>
<desc>lat.=55.779675, lon.=26.208080, Alt.=158.357544m. Speed=16.992001m/h.</desc>
<speed>4.720000</speed>
</trkpt>
<trkpt lat="55.779720" lon="26.208055">
<ele>158.970825</ele>
<time>2010-07-17T12:09:37Z</time>
<desc>lat.=55.779720, lon.=26.208055, Alt.=158.970825m. Speed=16.488001m/h.</desc>
<speed>4.580000</speed>
</trkpt>
<trkpt lat="55.779758" lon="26.208033">
<ele>159.123169</ele>
<time>2010-07-17T12:09:38Z</time>
<desc>lat.=55.779758, lon.=26.208033, Alt.=159.123169m. Speed=15.840000m/h.</desc>
<speed>4.400000</speed>
</trkpt>
<trkpt lat="55.779797" lon="26.208008">
<ele>158.978638</ele>
<time>2010-07-17T12:09:39Z</time>
<desc>lat.=55.779797, lon.=26.208008, Alt.=158.978638m. Speed=15.696000m/h.</desc>
<speed>4.360000</speed>
</trkpt>
<trkpt lat="55.779831" lon="26.207983">
<ele>159.189575</ele>
<time>2010-07-17T12:09:40Z</time>
<desc>lat.=55.779831, lon.=26.207983, Alt.=159.189575m. Speed=15.912000m/h.</desc>
<speed>4.420000</speed>
</trkpt>
<trkpt lat="55.779869" lon="26.207962">
<ele>159.377075</ele>
<time>2010-07-17T12:09:41Z</time>
<desc>lat.=55.779869, lon.=26.207962, Alt.=159.377075m. Speed=16.200001m/h.</desc>
<speed>4.500000</speed>
</trkpt>
<trkpt lat="55.779907" lon="26.207939">
<ele>160.025513</ele>
<time>2010-07-17T12:09:42Z</time>
<desc>lat.=55.779907, lon.=26.207939, Alt.=160.025513m. Speed=17.063999m/h.</desc>
<speed>4.740000</speed>
</trkpt>
<trkpt lat="55.779945" lon="26.207912">
<ele>160.201294</ele>
<time>2010-07-17T12:09:43Z</time>
<desc>lat.=55.779945, lon.=26.207912, Alt.=160.201294m. Speed=17.496000m/h.</desc>
<speed>4.860000</speed>
</trkpt>
<trkpt lat="55.779987" lon="26.207882">
<ele>160.170044</ele>
<time>2010-07-17T12:09:44Z</time>
<desc>lat.=55.779987, lon.=26.207882, Alt.=160.170044m. Speed=17.676001m/h.</desc>
<speed>4.910000</speed>
</trkpt>
<trkpt lat="55.780033" lon="26.207853">
<ele>160.060669</ele>
<time>2010-07-17T12:09:45Z</time>
<desc>lat.=55.780033, lon.=26.207853, Alt.=160.060669m. Speed=18.000000m/h.</desc>
<speed>5.000000</speed>
</trkpt>
<trkpt lat="55.780071" lon="26.207819">
<ele>159.728638</ele>
<time>2010-07-17T12:09:46Z</time>
<desc>lat.=55.780071, lon.=26.207819, Alt.=159.728638m. Speed=18.936001m/h.</desc>
<speed>5.260000</speed>
</trkpt>
<trkpt lat="55.780113" lon="26.207781">
<ele>159.591919</ele>
<time>2010-07-17T12:09:47Z</time>
<desc>lat.=55.780113, lon.=26.207781, Alt.=159.591919m. Speed=18.468000m/h.</desc>
<speed>5.130000</speed>
</trkpt>
<trkpt lat="55.780151" lon="26.207743">
<ele>159.634888</ele>
<time>2010-07-17T12:09:48Z</time>
<desc>lat.=55.780151, lon.=26.207743, Alt.=159.634888m. Speed=19.044001m/h.</desc>
<speed>5.290000</speed>
</trkpt>
<trkpt lat="55.780193" lon="26.207706">
<ele>159.537231</ele>
<time>2010-07-17T12:09:49Z</time>
<desc>lat.=55.780193, lon.=26.207706, Alt.=159.537231m. Speed=18.827999m/h.</desc>
<speed>5.230000</speed>
</trkpt>
<trkpt lat="55.780235" lon="26.207668">
<ele>159.478638</ele>
<time>2010-07-17T12:09:50Z</time>
<desc>lat.=55.780235, lon.=26.207668, Alt.=159.478638m. Speed=19.799999m/h.</desc>
<speed>5.500000</speed>
</trkpt>
<trkpt lat="55.780277" lon="26.207623">
<ele>159.334106</ele>
<time>2010-07-17T12:09:51Z</time>
<desc>lat.=55.780277, lon.=26.207623, Alt.=159.334106m. Speed=20.988001m/h.</desc>
<speed>5.830000</speed>
</trkpt>
<trkpt lat="55.780323" lon="26.207575">
<ele>159.052856</ele>
<time>2010-07-17T12:09:52Z</time>
<desc>lat.=55.780323, lon.=26.207575, Alt.=159.052856m. Speed=21.959999m/h.</desc>
<speed>6.100000</speed>
</trkpt>
<trkpt lat="55.780369" lon="26.207520">
<ele>158.720825</ele>
<time>2010-07-17T12:09:53Z</time>
<desc>lat.=55.780369, lon.=26.207520, Alt.=158.720825m. Speed=23.004000m/h.</desc>
<speed>6.390000</speed>
</trkpt>
<trkpt lat="55.780418" lon="26.207464">
<ele>158.326294</ele>
<time>2010-07-17T12:09:54Z</time>
<desc>lat.=55.780418, lon.=26.207464, Alt.=158.326294m. Speed=24.084000m/h.</desc>
<speed>6.690000</speed>
</trkpt>
<trkpt lat="55.780472" lon="26.207401">
<ele>158.298950</ele>
<time>2010-07-17T12:09:55Z</time>
<desc>lat.=55.780472, lon.=26.207401, Alt.=158.298950m. Speed=24.948000m/h.</desc>
<speed>6.930000</speed>
</trkpt>
<trkpt lat="55.780529" lon="26.207340">
<ele>158.146606</ele>
<time>2010-07-17T12:09:56Z</time>
<desc>lat.=55.780529, lon.=26.207340, Alt.=158.146606m. Speed=25.955999m/h.</desc>
<speed>7.210000</speed>
</trkpt>
<trkpt lat="55.780586" lon="26.207285">
<ele>158.060669</ele>
<time>2010-07-17T12:09:57Z</time>
<desc>lat.=55.780586, lon.=26.207285, Alt.=158.060669m. Speed=25.308001m/h.</desc>
<speed>7.030000</speed>
</trkpt>
<trkpt lat="55.780640" lon="26.207224">
<ele>157.744263</ele>
<time>2010-07-17T12:09:58Z</time>
<desc>lat.=55.780640, lon.=26.207224, Alt.=157.744263m. Speed=25.020000m/h.</desc>
<speed>6.950000</speed>
</trkpt>
<trkpt lat="55.780693" lon="26.207167">
<ele>157.623169</ele>
<time>2010-07-17T12:09:59Z</time>
<desc>lat.=55.780693, lon.=26.207167, Alt.=157.623169m. Speed=24.768000m/h.</desc>
<speed>6.880000</speed>
</trkpt>
<trkpt lat="55.780746" lon="26.207109">
<ele>157.654419</ele>
<time>2010-07-17T12:10:00Z</time>
<desc>lat.=55.780746, lon.=26.207109, Alt.=157.654419m. Speed=25.344000m/h.</desc>
<speed>7.040000</speed>
</trkpt>
<trkpt lat="55.780804" lon="26.207050">
<ele>157.447388</ele>
<time>2010-07-17T12:10:01Z</time>
<desc>lat.=55.780804, lon.=26.207050, Alt.=157.447388m. Speed=26.964001m/h.</desc>
<speed>7.490000</speed>
</trkpt>
<trkpt lat="55.780865" lon="26.206989">
<ele>157.439575</ele>
<time>2010-07-17T12:10:02Z</time>
<desc>lat.=55.780865, lon.=26.206989, Alt.=157.439575m. Speed=28.224001m/h.</desc>
<speed>7.840000</speed>
</trkpt>
<trkpt lat="55.780922" lon="26.206923">
<ele>157.255981</ele>
<time>2010-07-17T12:10:03Z</time>
<desc>lat.=55.780922, lon.=26.206923, Alt.=157.255981m. Speed=28.656000m/h.</desc>
<speed>7.960000</speed>
</trkpt>
<trkpt lat="55.780983" lon="26.206856">
<ele>156.904419</ele>
<time>2010-07-17T12:10:04Z</time>
<desc>lat.=55.780983, lon.=26.206856, Alt.=156.904419m. Speed=29.087999m/h.</desc>
<speed>8.080000</speed>
</trkpt>
<trkpt lat="55.781048" lon="26.206789">
<ele>157.037231</ele>
<time>2010-07-17T12:10:05Z</time>
<desc>lat.=55.781048, lon.=26.206789, Alt.=157.037231m. Speed=28.332001m/h.</desc>
<speed>7.870000</speed>
</trkpt>
<trkpt lat="55.781105" lon="26.206724">
<ele>156.869263</ele>
<time>2010-07-17T12:10:06Z</time>
<desc>lat.=55.781105, lon.=26.206724, Alt.=156.869263m. Speed=28.044001m/h.</desc>
<speed>7.790000</speed>
</trkpt>
<trkpt lat="55.781166" lon="26.206659">
<ele>156.826294</ele>
<time>2010-07-17T12:10:07Z</time>
<desc>lat.=55.781166, lon.=26.206659, Alt.=156.826294m. Speed=27.035999m/h.</desc>
<speed>7.510000</speed>
</trkpt>
<trkpt lat="55.781223" lon="26.206598">
<ele>156.841919</ele>
<time>2010-07-17T12:10:08Z</time>
<desc>lat.=55.781223, lon.=26.206598, Alt.=156.841919m. Speed=26.712000m/h.</desc>
<speed>7.420000</speed>
</trkpt>
<trkpt lat="55.781281" lon="26.206535">
<ele>156.697388</ele>
<time>2010-07-17T12:10:09Z</time>
<desc>lat.=55.781281, lon.=26.206535, Alt.=156.697388m. Speed=27.108000m/h.</desc>
<speed>7.530000</speed>
</trkpt>
<trkpt lat="55.781338" lon="26.206474">
<ele>156.759888</ele>
<time>2010-07-17T12:10:10Z</time>
<desc>lat.=55.781338, lon.=26.206474, Alt.=156.759888m. Speed=26.459999m/h.</desc>
<speed>7.350000</speed>
</trkpt>
<trkpt lat="55.781395" lon="26.206411">
<ele>156.755981</ele>
<time>2010-07-17T12:10:11Z</time>
<desc>lat.=55.781395, lon.=26.206411, Alt.=156.755981m. Speed=26.712000m/h.</desc>
<speed>7.420000</speed>
</trkpt>
<trkpt lat="55.781452" lon="26.206352">
<ele>156.896606</ele>
<time>2010-07-17T12:10:12Z</time>
<desc>lat.=55.781452, lon.=26.206352, Alt.=156.896606m. Speed=26.568001m/h.</desc>
<speed>7.380000</speed>
</trkpt>
<trkpt lat="55.781513" lon="26.206293">
<ele>157.005981</ele>
<time>2010-07-17T12:10:13Z</time>
<desc>lat.=55.781513, lon.=26.206293, Alt.=157.005981m. Speed=27.108000m/h.</desc>
<speed>7.530000</speed>
</trkpt>
<trkpt lat="55.781570" lon="26.206234">
<ele>157.080200</ele>
<time>2010-07-17T12:10:14Z</time>
<desc>lat.=55.781570, lon.=26.206234, Alt.=157.080200m. Speed=27.000000m/h.</desc>
<speed>7.500000</speed>
</trkpt>
<trkpt lat="55.781628" lon="26.206169">
<ele>157.193481</ele>
<time>2010-07-17T12:10:15Z</time>
<desc>lat.=55.781628, lon.=26.206169, Alt.=157.193481m. Speed=27.504000m/h.</desc>
<speed>7.640000</speed>
</trkpt>
<trkpt lat="55.781685" lon="26.206104">
<ele>157.205200</ele>
<time>2010-07-17T12:10:16Z</time>
<desc>lat.=55.781685, lon.=26.206104, Alt.=157.205200m. Speed=27.323999m/h.</desc>
<speed>7.590000</speed>
</trkpt>
<trkpt lat="55.781746" lon="26.206041">
<ele>157.404419</ele>
<time>2010-07-17T12:10:17Z</time>
<desc>lat.=55.781746, lon.=26.206041, Alt.=157.404419m. Speed=26.820000m/h.</desc>
<speed>7.450000</speed>
</trkpt>
<trkpt lat="55.781799" lon="26.205976">
<ele>157.607544</ele>
<time>2010-07-17T12:10:18Z</time>
<desc>lat.=55.781799, lon.=26.205976, Alt.=157.607544m. Speed=26.172001m/h.</desc>
<speed>7.270000</speed>
</trkpt>
<trkpt lat="55.781853" lon="26.205910">
<ele>158.197388</ele>
<time>2010-07-17T12:10:19Z</time>
<desc>lat.=55.781853, lon.=26.205910, Alt.=158.197388m. Speed=25.236000m/h.</desc>
<speed>7.010000</speed>
</trkpt>
<trkpt lat="55.781902" lon="26.205841">
<ele>158.466919</ele>
<time>2010-07-17T12:10:20Z</time>
<desc>lat.=55.781902, lon.=26.205841, Alt.=158.466919m. Speed=25.596001m/h.</desc>
<speed>7.110000</speed>
</trkpt>
<trkpt lat="55.781952" lon="26.205770">
<ele>158.853638</ele>
<time>2010-07-17T12:10:21Z</time>
<desc>lat.=55.781952, lon.=26.205770, Alt.=158.853638m. Speed=25.559999m/h.</desc>
<speed>7.100000</speed>
</trkpt>
<trkpt lat="55.782005" lon="26.205702">
<ele>159.630981</ele>
<time>2010-07-17T12:10:22Z</time>
<desc>lat.=55.782005, lon.=26.205702, Alt.=159.630981m. Speed=25.667999m/h.</desc>
<speed>7.130000</speed>
</trkpt>
<trkpt lat="55.782051" lon="26.205626">
<ele>159.798950</ele>
<time>2010-07-17T12:10:23Z</time>
<desc>lat.=55.782051, lon.=26.205626, Alt.=159.798950m. Speed=25.488001m/h.</desc>
<speed>7.080000</speed>
</trkpt>
<trkpt lat="55.782101" lon="26.205549">
<ele>159.880981</ele>
<time>2010-07-17T12:10:24Z</time>
<desc>lat.=55.782101, lon.=26.205549, Alt.=159.880981m. Speed=24.624001m/h.</desc>
<speed>6.840000</speed>
</trkpt>
<trkpt lat="55.782143" lon="26.205473">
<ele>160.103638</ele>
<time>2010-07-17T12:10:25Z</time>
<desc>lat.=55.782143, lon.=26.205473, Alt.=160.103638m. Speed=24.191999m/h.</desc>
<speed>6.720000</speed>
</trkpt>
<trkpt lat="55.782185" lon="26.205399">
<ele>160.197388</ele>
<time>2010-07-17T12:10:26Z</time>
<desc>lat.=55.782185, lon.=26.205399, Alt.=160.197388m. Speed=23.327999m/h.</desc>
<speed>6.480000</speed>
</trkpt>
<trkpt lat="55.782227" lon="26.205332">
<ele>160.459106</ele>
<time>2010-07-17T12:10:27Z</time>
<desc>lat.=55.782227, lon.=26.205332, Alt.=160.459106m. Speed=21.816000m/h.</desc>
<speed>6.060000</speed>
</trkpt>
<trkpt lat="55.782265" lon="26.205265">
<ele>160.670044</ele>
<time>2010-07-17T12:10:28Z</time>
<desc>lat.=55.782265, lon.=26.205265, Alt.=160.670044m. Speed=20.771999m/h.</desc>
<speed>5.770000</speed>
</trkpt>
<trkpt lat="55.782303" lon="26.205200">
<ele>161.045044</ele>
<time>2010-07-17T12:10:29Z</time>
<desc>lat.=55.782303, lon.=26.205200, Alt.=161.045044m. Speed=20.664000m/h.</desc>
<speed>5.740000</speed>
</trkpt>
<trkpt lat="55.782337" lon="26.205135">
<ele>161.111450</ele>
<time>2010-07-17T12:10:30Z</time>
<desc>lat.=55.782337, lon.=26.205135, Alt.=161.111450m. Speed=20.375999m/h.</desc>
<speed>5.660000</speed>
</trkpt>
<trkpt lat="55.782375" lon="26.205074">
<ele>161.248169</ele>
<time>2010-07-17T12:10:31Z</time>
<desc>lat.=55.782375, lon.=26.205074, Alt.=161.248169m. Speed=20.520000m/h.</desc>
<speed>5.700000</speed>
</trkpt>
<trkpt lat="55.782413" lon="26.205011">
<ele>161.423950</ele>
<time>2010-07-17T12:10:32Z</time>
<desc>lat.=55.782413, lon.=26.205011, Alt.=161.423950m. Speed=20.340000m/h.</desc>
<speed>5.650000</speed>
</trkpt>
<trkpt lat="55.782448" lon="26.204947">
<ele>161.713013</ele>
<time>2010-07-17T12:10:33Z</time>
<desc>lat.=55.782448, lon.=26.204947, Alt.=161.713013m. Speed=20.016001m/h.</desc>
<speed>5.560000</speed>
</trkpt>
<trkpt lat="55.782482" lon="26.204889">
<ele>161.826294</ele>
<time>2010-07-17T12:10:34Z</time>
<desc>lat.=55.782482, lon.=26.204889, Alt.=161.826294m. Speed=20.232000m/h.</desc>
<speed>5.620000</speed>
</trkpt>
<trkpt lat="55.782520" lon="26.204826">
<ele>161.908325</ele>
<time>2010-07-17T12:10:35Z</time>
<desc>lat.=55.782520, lon.=26.204826, Alt.=161.908325m. Speed=20.087999m/h.</desc>
<speed>5.580000</speed>
</trkpt>
<trkpt lat="55.782558" lon="26.204762">
<ele>161.888794</ele>
<time>2010-07-17T12:10:36Z</time>
<desc>lat.=55.782558, lon.=26.204762, Alt.=161.888794m. Speed=19.944000m/h.</desc>
<speed>5.540000</speed>
</trkpt>
<trkpt lat="55.782593" lon="26.204700">
<ele>161.607544</ele>
<time>2010-07-17T12:10:37Z</time>
<desc>lat.=55.782593, lon.=26.204700, Alt.=161.607544m. Speed=20.124001m/h.</desc>
<speed>5.590000</speed>
</trkpt>
<trkpt lat="55.782631" lon="26.204647">
<ele>160.818481</ele>
<time>2010-07-17T12:10:38Z</time>
<desc>lat.=55.782631, lon.=26.204647, Alt.=160.818481m. Speed=20.052000m/h.</desc>
<speed>5.570000</speed>
</trkpt>
<trkpt lat="55.782669" lon="26.204590">
<ele>160.845825</ele>
<time>2010-07-17T12:10:39Z</time>
<desc>lat.=55.782669, lon.=26.204590, Alt.=160.845825m. Speed=19.620001m/h.</desc>
<speed>5.450000</speed>
</trkpt>
<trkpt lat="55.782707" lon="26.204531">
<ele>161.017700</ele>
<time>2010-07-17T12:10:40Z</time>
<desc>lat.=55.782707, lon.=26.204531, Alt.=161.017700m. Speed=19.368000m/h.</desc>
<speed>5.380000</speed>
</trkpt>
<trkpt lat="55.782738" lon="26.204475">
<ele>160.767700</ele>
<time>2010-07-17T12:10:41Z</time>
<desc>lat.=55.782738, lon.=26.204475, Alt.=160.767700m. Speed=18.756001m/h.</desc>
<speed>5.210000</speed>
</trkpt>
<trkpt lat="55.782772" lon="26.204422">
<ele>160.400513</ele>
<time>2010-07-17T12:10:42Z</time>
<desc>lat.=55.782772, lon.=26.204422, Alt.=160.400513m. Speed=17.784000m/h.</desc>
<speed>4.940000</speed>
</trkpt>
<trkpt lat="55.782803" lon="26.204372">
<ele>160.427856</ele>
<time>2010-07-17T12:10:43Z</time>
<desc>lat.=55.782803, lon.=26.204372, Alt.=160.427856m. Speed=16.992001m/h.</desc>
<speed>4.720000</speed>
</trkpt>
<trkpt lat="55.782837" lon="26.204325">
<ele>159.998169</ele>
<time>2010-07-17T12:10:44Z</time>
<desc>lat.=55.782837, lon.=26.204325, Alt.=159.998169m. Speed=16.164000m/h.</desc>
<speed>4.490000</speed>
</trkpt>
<trkpt lat="55.782864" lon="26.204281">
<ele>159.951294</ele>
<time>2010-07-17T12:10:45Z</time>
<desc>lat.=55.782864, lon.=26.204281, Alt.=159.951294m. Speed=15.444000m/h.</desc>
<speed>4.290000</speed>
</trkpt>
<trkpt lat="55.782890" lon="26.204237">
<ele>159.927856</ele>
<time>2010-07-17T12:10:46Z</time>
<desc>lat.=55.782890, lon.=26.204237, Alt.=159.927856m. Speed=14.940000m/h.</desc>
<speed>4.150000</speed>
</trkpt>
<trkpt lat="55.782917" lon="26.204199">
<ele>159.943481</ele>
<time>2010-07-17T12:10:47Z</time>
<desc>lat.=55.782917, lon.=26.204199, Alt.=159.943481m. Speed=13.824000m/h.</desc>
<speed>3.840000</speed>
</trkpt>
<trkpt lat="55.782948" lon="26.204165">
<ele>160.107544</ele>
<time>2010-07-17T12:10:48Z</time>
<desc>lat.=55.782948, lon.=26.204165, Alt.=160.107544m. Speed=14.184000m/h.</desc>
<speed>3.940000</speed>
</trkpt>
<trkpt lat="55.782982" lon="26.204123">
<ele>160.591919</ele>
<time>2010-07-17T12:10:49Z</time>
<desc>lat.=55.782982, lon.=26.204123, Alt.=160.591919m. Speed=16.344000m/h.</desc>
<speed>4.540000</speed>
</trkpt>
<trkpt lat="55.783016" lon="26.204073">
<ele>160.970825</ele>
<time>2010-07-17T12:10:50Z</time>
<desc>lat.=55.783016, lon.=26.204073, Alt.=160.970825m. Speed=15.840000m/h.</desc>
<speed>4.400000</speed>
</trkpt>
<trkpt lat="55.783051" lon="26.204033">
<ele>161.232544</ele>
<time>2010-07-17T12:10:51Z</time>
<desc>lat.=55.783051, lon.=26.204033, Alt.=161.232544m. Speed=15.588000m/h.</desc>
<speed>4.330000</speed>
</trkpt>
<trkpt lat="55.783085" lon="26.203993">
<ele>161.611450</ele>
<time>2010-07-17T12:10:52Z</time>
<desc>lat.=55.783085, lon.=26.203993, Alt.=161.611450m. Speed=15.840000m/h.</desc>
<speed>4.400000</speed>
</trkpt>
<trkpt lat="55.783123" lon="26.203959">
<ele>161.802856</ele>
<time>2010-07-17T12:10:53Z</time>
<desc>lat.=55.783123, lon.=26.203959, Alt.=161.802856m. Speed=16.416000m/h.</desc>
<speed>4.560000</speed>
</trkpt>
<trkpt lat="55.783161" lon="26.203926">
<ele>162.150513</ele>
<time>2010-07-17T12:10:54Z</time>
<desc>lat.=55.783161, lon.=26.203926, Alt.=162.150513m. Speed=16.020000m/h.</desc>
<speed>4.450000</speed>
</trkpt>
<trkpt lat="55.783195" lon="26.203896">
<ele>161.791138</ele>
<time>2010-07-17T12:10:55Z</time>
<desc>lat.=55.783195, lon.=26.203896, Alt.=161.791138m. Speed=16.596001m/h.</desc>
<speed>4.610000</speed>
</trkpt>
<trkpt lat="55.783237" lon="26.203867">
<ele>161.759888</ele>
<time>2010-07-17T12:10:56Z</time>
<desc>lat.=55.783237, lon.=26.203867, Alt.=161.759888m. Speed=16.596001m/h.</desc>
<speed>4.610000</speed>
</trkpt>
<trkpt lat="55.783279" lon="26.203854">
<ele>161.435669</ele>
<time>2010-07-17T12:10:57Z</time>
<desc>lat.=55.783279, lon.=26.203854, Alt.=161.435669m. Speed=17.604000m/h.</desc>
<speed>4.890000</speed>
</trkpt>
<trkpt lat="55.783321" lon="26.203836">
<ele>161.302856</ele>
<time>2010-07-17T12:10:58Z</time>
<desc>lat.=55.783321, lon.=26.203836, Alt.=161.302856m. Speed=15.912000m/h.</desc>
<speed>4.420000</speed>
</trkpt>
<trkpt lat="55.783360" lon="26.203821">
<ele>161.466919</ele>
<time>2010-07-17T12:10:59Z</time>
<desc>lat.=55.783360, lon.=26.203821, Alt.=161.466919m. Speed=14.184000m/h.</desc>
<speed>3.940000</speed>
</trkpt>
<trkpt lat="55.783394" lon="26.203802">
<ele>162.060669</ele>
<time>2010-07-17T12:11:00Z</time>
<desc>lat.=55.783394, lon.=26.203802, Alt.=162.060669m. Speed=14.580000m/h.</desc>
<speed>4.050000</speed>
</trkpt>
<trkpt lat="55.783428" lon="26.203785">
<ele>161.978638</ele>
<time>2010-07-17T12:11:01Z</time>
<desc>lat.=55.783428, lon.=26.203785, Alt.=161.978638m. Speed=14.184000m/h.</desc>
<speed>3.940000</speed>
</trkpt>
<trkpt lat="55.783459" lon="26.203770">
<ele>162.064575</ele>
<time>2010-07-17T12:11:02Z</time>
<desc>lat.=55.783459, lon.=26.203770, Alt.=162.064575m. Speed=14.724000m/h.</desc>
<speed>4.090000</speed>
</trkpt>
<trkpt lat="55.783493" lon="26.203758">
<ele>162.127075</ele>
<time>2010-07-17T12:11:03Z</time>
<desc>lat.=55.783493, lon.=26.203758, Alt.=162.127075m. Speed=16.740000m/h.</desc>
<speed>4.650000</speed>
</trkpt>
<trkpt lat="55.783535" lon="26.203747">
<ele>161.853638</ele>
<time>2010-07-17T12:11:04Z</time>
<desc>lat.=55.783535, lon.=26.203747, Alt.=161.853638m. Speed=18.612000m/h.</desc>
<speed>5.170000</speed>
</trkpt>
<trkpt lat="55.783585" lon="26.203732">
<ele>161.623169</ele>
<time>2010-07-17T12:11:05Z</time>
<desc>lat.=55.783585, lon.=26.203732, Alt.=161.623169m. Speed=19.332001m/h.</desc>
<speed>5.370000</speed>
</trkpt>
<trkpt lat="55.783630" lon="26.203716">
<ele>161.072388</ele>
<time>2010-07-17T12:11:06Z</time>
<desc>lat.=55.783630, lon.=26.203716, Alt.=161.072388m. Speed=19.764000m/h.</desc>
<speed>5.490000</speed>
</trkpt>
<trkpt lat="55.783680" lon="26.203701">
<ele>160.795044</ele>
<time>2010-07-17T12:11:07Z</time>
<desc>lat.=55.783680, lon.=26.203701, Alt.=160.795044m. Speed=20.304001m/h.</desc>
<speed>5.640000</speed>
</trkpt>
<trkpt lat="55.783733" lon="26.203688">
<ele>160.470825</ele>
<time>2010-07-17T12:11:08Z</time>
<desc>lat.=55.783733, lon.=26.203688, Alt.=160.470825m. Speed=22.032000m/h.</desc>
<speed>6.120000</speed>
</trkpt>
<trkpt lat="55.783791" lon="26.203674">
<ele>160.341919</ele>
<time>2010-07-17T12:11:09Z</time>
<desc>lat.=55.783791, lon.=26.203674, Alt.=160.341919m. Speed=23.724001m/h.</desc>
<speed>6.590000</speed>
</trkpt>
<trkpt lat="55.783848" lon="26.203657">
<ele>159.982544</ele>
<time>2010-07-17T12:11:10Z</time>
<desc>lat.=55.783848, lon.=26.203657, Alt.=159.982544m. Speed=24.264000m/h.</desc>
<speed>6.740000</speed>
</trkpt>
<trkpt lat="55.783905" lon="26.203644">
<ele>159.505981</ele>
<time>2010-07-17T12:11:11Z</time>
<desc>lat.=55.783905, lon.=26.203644, Alt.=159.505981m. Speed=24.299999m/h.</desc>
<speed>6.750000</speed>
</trkpt>
<trkpt lat="55.783962" lon="26.203629">
<ele>159.259888</ele>
<time>2010-07-17T12:11:12Z</time>
<desc>lat.=55.783962, lon.=26.203629, Alt.=159.259888m. Speed=24.983999m/h.</desc>
<speed>6.940000</speed>
</trkpt>
<trkpt lat="55.784027" lon="26.203615">
<ele>158.630981</ele>
<time>2010-07-17T12:11:13Z</time>
<desc>lat.=55.784027, lon.=26.203615, Alt.=158.630981m. Speed=26.280001m/h.</desc>
<speed>7.300000</speed>
</trkpt>
<trkpt lat="55.784092" lon="26.203602">
<ele>158.404419</ele>
<time>2010-07-17T12:11:14Z</time>
<desc>lat.=55.784092, lon.=26.203602, Alt.=158.404419m. Speed=26.351999m/h.</desc>
<speed>7.320000</speed>
</trkpt>
<trkpt lat="55.784157" lon="26.203588">
<ele>157.970825</ele>
<time>2010-07-17T12:11:15Z</time>
<desc>lat.=55.784157, lon.=26.203588, Alt.=157.970825m. Speed=26.927999m/h.</desc>
<speed>7.480000</speed>
</trkpt>
<trkpt lat="55.784225" lon="26.203575">
<ele>157.670044</ele>
<time>2010-07-17T12:11:16Z</time>
<desc>lat.=55.784225, lon.=26.203575, Alt.=157.670044m. Speed=25.164000m/h.</desc>
<speed>6.990000</speed>
</trkpt>
<trkpt lat="55.784286" lon="26.203562">
<ele>157.435669</ele>
<time>2010-07-17T12:11:17Z</time>
<desc>lat.=55.784286, lon.=26.203562, Alt.=157.435669m. Speed=24.875999m/h.</desc>
<speed>6.910000</speed>
</trkpt>
<trkpt lat="55.784344" lon="26.203552">
<ele>157.224731</ele>
<time>2010-07-17T12:11:18Z</time>
<desc>lat.=55.784344, lon.=26.203552, Alt.=157.224731m. Speed=24.912001m/h.</desc>
<speed>6.920000</speed>
</trkpt>
<trkpt lat="55.784397" lon="26.203541">
<ele>157.572388</ele>
<time>2010-07-17T12:11:19Z</time>
<desc>lat.=55.784397, lon.=26.203541, Alt.=157.572388m. Speed=23.868000m/h.</desc>
<speed>6.630000</speed>
</trkpt>
<trkpt lat="55.784454" lon="26.203524">
<ele>158.088013</ele>
<time>2010-07-17T12:11:20Z</time>
<desc>lat.=55.784454, lon.=26.203524, Alt.=158.088013m. Speed=24.516001m/h.</desc>
<speed>6.810000</speed>
</trkpt>
<trkpt lat="55.784512" lon="26.203505">
<ele>157.650513</ele>
<time>2010-07-17T12:11:21Z</time>
<desc>lat.=55.784512, lon.=26.203505, Alt.=157.650513m. Speed=24.372000m/h.</desc>
<speed>6.770000</speed>
</trkpt>
<trkpt lat="55.784569" lon="26.203480">
<ele>157.447388</ele>
<time>2010-07-17T12:11:22Z</time>
<desc>lat.=55.784569, lon.=26.203480, Alt.=157.447388m. Speed=24.516001m/h.</desc>
<speed>6.810000</speed>
</trkpt>
<trkpt lat="55.784630" lon="26.203457">
<ele>157.802856</ele>
<time>2010-07-17T12:11:23Z</time>
<desc>lat.=55.784630, lon.=26.203457, Alt.=157.802856m. Speed=24.695999m/h.</desc>
<speed>6.860000</speed>
</trkpt>
<trkpt lat="55.784691" lon="26.203428">
<ele>158.017700</ele>
<time>2010-07-17T12:11:24Z</time>
<desc>lat.=55.784691, lon.=26.203428, Alt.=158.017700m. Speed=24.552000m/h.</desc>
<speed>6.820000</speed>
</trkpt>
<trkpt lat="55.784748" lon="26.203405">
<ele>157.759888</ele>
<time>2010-07-17T12:11:25Z</time>
<desc>lat.=55.784748, lon.=26.203405, Alt.=157.759888m. Speed=24.120001m/h.</desc>
<speed>6.700000</speed>
</trkpt>
<trkpt lat="55.784809" lon="26.203384">
<ele>158.295044</ele>
<time>2010-07-17T12:11:26Z</time>
<desc>lat.=55.784809, lon.=26.203384, Alt.=158.295044m. Speed=24.048000m/h.</desc>
<speed>6.680000</speed>
</trkpt>
<trkpt lat="55.784870" lon="26.203363">
<ele>158.033325</ele>
<time>2010-07-17T12:11:27Z</time>
<desc>lat.=55.784870, lon.=26.203363, Alt.=158.033325m. Speed=24.587999m/h.</desc>
<speed>6.830000</speed>
</trkpt>
<trkpt lat="55.784935" lon="26.203335">
<ele>159.267700</ele>
<time>2010-07-17T12:11:28Z</time>
<desc>lat.=55.784935, lon.=26.203335, Alt.=159.267700m. Speed=23.832001m/h.</desc>
<speed>6.620000</speed>
</trkpt>
<trkpt lat="55.784992" lon="26.203310">
<ele>159.939575</ele>
<time>2010-07-17T12:11:29Z</time>
<desc>lat.=55.784992, lon.=26.203310, Alt.=159.939575m. Speed=22.572001m/h.</desc>
<speed>6.270000</speed>
</trkpt>
<trkpt lat="55.785049" lon="26.203291">
<ele>160.224731</ele>
<time>2010-07-17T12:11:30Z</time>
<desc>lat.=55.785049, lon.=26.203291, Alt.=160.224731m. Speed=21.780001m/h.</desc>
<speed>6.050000</speed>
</trkpt>
<trkpt lat="55.785103" lon="26.203270">
<ele>160.509888</ele>
<time>2010-07-17T12:11:31Z</time>
<desc>lat.=55.785103, lon.=26.203270, Alt.=160.509888m. Speed=20.879999m/h.</desc>
<speed>5.800000</speed>
</trkpt>
<trkpt lat="55.785160" lon="26.203251">
<ele>160.986450</ele>
<time>2010-07-17T12:11:32Z</time>
<desc>lat.=55.785160, lon.=26.203251, Alt.=160.986450m. Speed=21.816000m/h.</desc>
<speed>6.060000</speed>
</trkpt>
<trkpt lat="55.785225" lon="26.203234">
<ele>161.279419</ele>
<time>2010-07-17T12:11:33Z</time>
<desc>lat.=55.785225, lon.=26.203234, Alt.=161.279419m. Speed=23.256001m/h.</desc>
<speed>6.460000</speed>
</trkpt>
<trkpt lat="55.785286" lon="26.203217">
<ele>161.252075</ele>
<time>2010-07-17T12:11:34Z</time>
<desc>lat.=55.785286, lon.=26.203217, Alt.=161.252075m. Speed=23.903999m/h.</desc>
<speed>6.640000</speed>
</trkpt>
<trkpt lat="55.785343" lon="26.203199">
<ele>160.603638</ele>
<time>2010-07-17T12:11:35Z</time>
<desc>lat.=55.785343, lon.=26.203199, Alt.=160.603638m. Speed=24.156000m/h.</desc>
<speed>6.710000</speed>
</trkpt>
<trkpt lat="55.785404" lon="26.203190">
<ele>160.556763</ele>
<time>2010-07-17T12:11:36Z</time>
<desc>lat.=55.785404, lon.=26.203190, Alt.=160.556763m. Speed=25.020000m/h.</desc>
<speed>6.950000</speed>
</trkpt>
<trkpt lat="55.785477" lon="26.203186">
<ele>160.619263</ele>
<time>2010-07-17T12:11:37Z</time>
<desc>lat.=55.785477, lon.=26.203186, Alt.=160.619263m. Speed=27.792000m/h.</desc>
<speed>7.720000</speed>
</trkpt>
<trkpt lat="55.785545" lon="26.203194">
<ele>160.662231</ele>
<time>2010-07-17T12:11:38Z</time>
<desc>lat.=55.785545, lon.=26.203194, Alt.=160.662231m. Speed=27.288000m/h.</desc>
<speed>7.580000</speed>
</trkpt>
<trkpt lat="55.785610" lon="26.203217">
<ele>160.482544</ele>
<time>2010-07-17T12:11:39Z</time>
<desc>lat.=55.785610, lon.=26.203217, Alt.=160.482544m. Speed=26.568001m/h.</desc>
<speed>7.380000</speed>
</trkpt>
<trkpt lat="55.785675" lon="26.203239">
<ele>160.787231</ele>
<time>2010-07-17T12:11:40Z</time>
<desc>lat.=55.785675, lon.=26.203239, Alt.=160.787231m. Speed=25.740000m/h.</desc>
<speed>7.150000</speed>
</trkpt>
<trkpt lat="55.785732" lon="26.203260">
<ele>160.521606</ele>
<time>2010-07-17T12:11:41Z</time>
<desc>lat.=55.785732, lon.=26.203260, Alt.=160.521606m. Speed=26.172001m/h.</desc>
<speed>7.270000</speed>
</trkpt>
<trkpt lat="55.785789" lon="26.203293">
<ele>160.537231</ele>
<time>2010-07-17T12:11:42Z</time>
<desc>lat.=55.785789, lon.=26.203293, Alt.=160.537231m. Speed=23.256001m/h.</desc>
<speed>6.460000</speed>
</trkpt>
<trkpt lat="55.785851" lon="26.203323">
<ele>161.029419</ele>
<time>2010-07-17T12:11:43Z</time>
<desc>lat.=55.785851, lon.=26.203323, Alt.=161.029419m. Speed=23.472000m/h.</desc>
<speed>6.520000</speed>
</trkpt>
<trkpt lat="55.785908" lon="26.203362">
<ele>161.517700</ele>
<time>2010-07-17T12:11:44Z</time>
<desc>lat.=55.785908, lon.=26.203362, Alt.=161.517700m. Speed=22.500000m/h.</desc>
<speed>6.250000</speed>
</trkpt>
<trkpt lat="55.785976" lon="26.203409">
<ele>162.939575</ele>
<time>2010-07-17T12:11:45Z</time>
<desc>lat.=55.785976, lon.=26.203409, Alt.=162.939575m. Speed=21.743999m/h.</desc>
<speed>6.040000</speed>
</trkpt>
<trkpt lat="55.786018" lon="26.203466">
<ele>163.302856</ele>
<time>2010-07-17T12:11:46Z</time>
<desc>lat.=55.786018, lon.=26.203466, Alt.=163.302856m. Speed=20.952000m/h.</desc>
<speed>5.820000</speed>
</trkpt>
<trkpt lat="55.786060" lon="26.203501">
<ele>162.552856</ele>
<time>2010-07-17T12:11:47Z</time>
<desc>lat.=55.786060, lon.=26.203501, Alt.=162.552856m. Speed=19.511999m/h.</desc>
<speed>5.420000</speed>
</trkpt>
<trkpt lat="55.786106" lon="26.203526">
<ele>162.259888</ele>
<time>2010-07-17T12:11:48Z</time>
<desc>lat.=55.786106, lon.=26.203526, Alt.=162.259888m. Speed=18.252001m/h.</desc>
<speed>5.070000</speed>
</trkpt>
<trkpt lat="55.786148" lon="26.203548">
<ele>161.892700</ele>
<time>2010-07-17T12:11:49Z</time>
<desc>lat.=55.786148, lon.=26.203548, Alt.=161.892700m. Speed=18.143999m/h.</desc>
<speed>5.040000</speed>
</trkpt>
<trkpt lat="55.786190" lon="26.203562">
<ele>161.861450</ele>
<time>2010-07-17T12:11:50Z</time>
<desc>lat.=55.786190, lon.=26.203562, Alt.=161.861450m. Speed=16.488001m/h.</desc>
<speed>4.580000</speed>
</trkpt>
<trkpt lat="55.786228" lon="26.203592">
<ele>162.146606</ele>
<time>2010-07-17T12:11:51Z</time>
<desc>lat.=55.786228, lon.=26.203592, Alt.=162.146606m. Speed=17.100000m/h.</desc>
<speed>4.750000</speed>
</trkpt>
<trkpt lat="55.786263" lon="26.203621">
<ele>162.158325</ele>
<time>2010-07-17T12:11:52Z</time>
<desc>lat.=55.786263, lon.=26.203621, Alt.=162.158325m. Speed=17.136000m/h.</desc>
<speed>4.760000</speed>
</trkpt>
<trkpt lat="55.786297" lon="26.203665">
<ele>162.427856</ele>
<time>2010-07-17T12:11:53Z</time>
<desc>lat.=55.786297, lon.=26.203665, Alt.=162.427856m. Speed=16.020000m/h.</desc>
<speed>4.450000</speed>
</trkpt>
<trkpt lat="55.786335" lon="26.203697">
<ele>162.056763</ele>
<time>2010-07-17T12:11:54Z</time>
<desc>lat.=55.786335, lon.=26.203697, Alt.=162.056763m. Speed=16.596001m/h.</desc>
<speed>4.610000</speed>
</trkpt>
<trkpt lat="55.786369" lon="26.203732">
<ele>161.931763</ele>
<time>2010-07-17T12:11:55Z</time>
<desc>lat.=55.786369, lon.=26.203732, Alt.=161.931763m. Speed=16.775999m/h.</desc>
<speed>4.660000</speed>
</trkpt>
<trkpt lat="55.786404" lon="26.203781">
<ele>162.170044</ele>
<time>2010-07-17T12:11:56Z</time>
<desc>lat.=55.786404, lon.=26.203781, Alt.=162.170044m. Speed=16.056000m/h.</desc>
<speed>4.460000</speed>
</trkpt>
<trkpt lat="55.786442" lon="26.203829">
<ele>162.283325</ele>
<time>2010-07-17T12:11:57Z</time>
<desc>lat.=55.786442, lon.=26.203829, Alt.=162.283325m. Speed=16.920000m/h.</desc>
<speed>4.700000</speed>
</trkpt>
<trkpt lat="55.786469" lon="26.203873">
<ele>161.920044</ele>
<time>2010-07-17T12:11:58Z</time>
<desc>lat.=55.786469, lon.=26.203873, Alt.=161.920044m. Speed=16.740000m/h.</desc>
<speed>4.650000</speed>
</trkpt>
<trkpt lat="55.786503" lon="26.203930">
<ele>162.154419</ele>
<time>2010-07-17T12:11:59Z</time>
<desc>lat.=55.786503, lon.=26.203930, Alt.=162.154419m. Speed=17.316000m/h.</desc>
<speed>4.810000</speed>
</trkpt>
<trkpt lat="55.786537" lon="26.203972">
<ele>162.306763</ele>
<time>2010-07-17T12:12:00Z</time>
<desc>lat.=55.786537, lon.=26.203972, Alt.=162.306763m. Speed=16.812000m/h.</desc>
<speed>4.670000</speed>
</trkpt>
<trkpt lat="55.786572" lon="26.204008">
<ele>162.584106</ele>
<time>2010-07-17T12:12:01Z</time>
<desc>lat.=55.786572, lon.=26.204008, Alt.=162.584106m. Speed=16.236000m/h.</desc>
<speed>4.510000</speed>
</trkpt>
<trkpt lat="55.786613" lon="26.204042">
<ele>163.744263</ele>
<time>2010-07-17T12:12:02Z</time>
<desc>lat.=55.786613, lon.=26.204042, Alt.=163.744263m. Speed=16.884001m/h.</desc>
<speed>4.690000</speed>
</trkpt>
<trkpt lat="55.786652" lon="26.204071">
<ele>163.787231</ele>
<time>2010-07-17T12:12:03Z</time>
<desc>lat.=55.786652, lon.=26.204071, Alt.=163.787231m. Speed=18.108000m/h.</desc>
<speed>5.030000</speed>
</trkpt>
<trkpt lat="55.786694" lon="26.204107">
<ele>163.459106</ele>
<time>2010-07-17T12:12:04Z</time>
<desc>lat.=55.786694, lon.=26.204107, Alt.=163.459106m. Speed=19.656000m/h.</desc>
<speed>5.460000</speed>
</trkpt>
<trkpt lat="55.786739" lon="26.204145">
<ele>162.619263</ele>
<time>2010-07-17T12:12:05Z</time>
<desc>lat.=55.786739, lon.=26.204145, Alt.=162.619263m. Speed=20.700001m/h.</desc>
<speed>5.750000</speed>
</trkpt>
<trkpt lat="55.786785" lon="26.204182">
<ele>162.427856</ele>
<time>2010-07-17T12:12:06Z</time>
<desc>lat.=55.786785, lon.=26.204182, Alt.=162.427856m. Speed=20.052000m/h.</desc>
<speed>5.570000</speed>
</trkpt>
<trkpt lat="55.786831" lon="26.204216">
<ele>162.892700</ele>
<time>2010-07-17T12:12:07Z</time>
<desc>lat.=55.786831, lon.=26.204216, Alt.=162.892700m. Speed=19.584000m/h.</desc>
<speed>5.440000</speed>
</trkpt>
<trkpt lat="55.786877" lon="26.204248">
<ele>162.841919</ele>
<time>2010-07-17T12:12:08Z</time>
<desc>lat.=55.786877, lon.=26.204248, Alt.=162.841919m. Speed=19.260000m/h.</desc>
<speed>5.350000</speed>
</trkpt>
<trkpt lat="55.786922" lon="26.204281">
<ele>162.802856</ele>
<time>2010-07-17T12:12:09Z</time>
<desc>lat.=55.786922, lon.=26.204281, Alt.=162.802856m. Speed=20.124001m/h.</desc>
<speed>5.590000</speed>
</trkpt>
<trkpt lat="55.786972" lon="26.204317">
<ele>162.377075</ele>
<time>2010-07-17T12:12:10Z</time>
<desc>lat.=55.786972, lon.=26.204317, Alt.=162.377075m. Speed=20.268000m/h.</desc>
<speed>5.630000</speed>
</trkpt>
<trkpt lat="55.787018" lon="26.204351">
<ele>162.654419</ele>
<time>2010-07-17T12:12:11Z</time>
<desc>lat.=55.787018, lon.=26.204351, Alt.=162.654419m. Speed=19.115999m/h.</desc>
<speed>5.310000</speed>
</trkpt>
<trkpt lat="55.787060" lon="26.204390">
<ele>162.287231</ele>
<time>2010-07-17T12:12:12Z</time>
<desc>lat.=55.787060, lon.=26.204390, Alt.=162.287231m. Speed=18.504000m/h.</desc>
<speed>5.140000</speed>
</trkpt>
<trkpt lat="55.787106" lon="26.204426">
<ele>161.693481</ele>
<time>2010-07-17T12:12:13Z</time>
<desc>lat.=55.787106, lon.=26.204426, Alt.=161.693481m. Speed=18.719999m/h.</desc>
<speed>5.200000</speed>
</trkpt>
<trkpt lat="55.787144" lon="26.204460">
<ele>160.974731</ele>
<time>2010-07-17T12:12:14Z</time>
<desc>lat.=55.787144, lon.=26.204460, Alt.=160.974731m. Speed=17.424000m/h.</desc>
<speed>4.840000</speed>
</trkpt>
<trkpt lat="55.787186" lon="26.204485">
<ele>159.990356</ele>
<time>2010-07-17T12:12:15Z</time>
<desc>lat.=55.787186, lon.=26.204485, Alt.=159.990356m. Speed=17.964001m/h.</desc>
<speed>4.990000</speed>
</trkpt>
<trkpt lat="55.787228" lon="26.204506">
<ele>159.572388</ele>
<time>2010-07-17T12:12:16Z</time>
<desc>lat.=55.787228, lon.=26.204506, Alt.=159.572388m. Speed=16.812000m/h.</desc>
<speed>4.670000</speed>
</trkpt>
<trkpt lat="55.787266" lon="26.204529">
<ele>159.537231</ele>
<time>2010-07-17T12:12:17Z</time>
<desc>lat.=55.787266, lon.=26.204529, Alt.=159.537231m. Speed=15.912000m/h.</desc>
<speed>4.420000</speed>
</trkpt>
<trkpt lat="55.787300" lon="26.204552">
<ele>159.935669</ele>
<time>2010-07-17T12:12:18Z</time>
<desc>lat.=55.787300, lon.=26.204552, Alt.=159.935669m. Speed=17.459999m/h.</desc>
<speed>4.850000</speed>
</trkpt>
<trkpt lat="55.787346" lon="26.204573">
<ele>159.900513</ele>
<time>2010-07-17T12:12:19Z</time>
<desc>lat.=55.787346, lon.=26.204573, Alt.=159.900513m. Speed=18.288000m/h.</desc>
<speed>5.080000</speed>
</trkpt>
<trkpt lat="55.787392" lon="26.204597">
<ele>160.017700</ele>
<time>2010-07-17T12:12:20Z</time>
<desc>lat.=55.787392, lon.=26.204597, Alt.=160.017700m. Speed=19.944000m/h.</desc>
<speed>5.540000</speed>
</trkpt>
<trkpt lat="55.787445" lon="26.204624">
<ele>159.728638</ele>
<time>2010-07-17T12:12:21Z</time>
<desc>lat.=55.787445, lon.=26.204624, Alt.=159.728638m. Speed=23.256001m/h.</desc>
<speed>6.460000</speed>
</trkpt>
<trkpt lat="55.787502" lon="26.204659">
<ele>159.607544</ele>
<time>2010-07-17T12:12:22Z</time>
<desc>lat.=55.787502, lon.=26.204659, Alt.=159.607544m. Speed=24.732000m/h.</desc>
<speed>6.870000</speed>
</trkpt>
<trkpt lat="55.787567" lon="26.204702">
<ele>159.607544</ele>
<time>2010-07-17T12:12:23Z</time>
<desc>lat.=55.787567, lon.=26.204702, Alt.=159.607544m. Speed=27.431999m/h.</desc>
<speed>7.620000</speed>
</trkpt>
<trkpt lat="55.787636" lon="26.204756">
<ele>159.255981</ele>
<time>2010-07-17T12:12:24Z</time>
<desc>lat.=55.787636, lon.=26.204756, Alt.=159.255981m. Speed=30.959999m/h.</desc>
<speed>8.600000</speed>
</trkpt>
<trkpt lat="55.787716" lon="26.204823">
<ele>159.177856</ele>
<time>2010-07-17T12:12:25Z</time>
<desc>lat.=55.787716, lon.=26.204823, Alt.=159.177856m. Speed=34.523998m/h.</desc>
<speed>9.590000</speed>
</trkpt>
<trkpt lat="55.787834" lon="26.204878">
<ele>162.209106</ele>
<time>2010-07-17T12:12:26Z</time>
<desc>lat.=55.787834, lon.=26.204878, Alt.=162.209106m. Speed=37.043999m/h.</desc>
<speed>10.290000</speed>
</trkpt>
<trkpt lat="55.787907" lon="26.204962">
<ele>160.591919</ele>
<time>2010-07-17T12:12:27Z</time>
<desc>lat.=55.787907, lon.=26.204962, Alt.=160.591919m. Speed=37.764000m/h.</desc>
<speed>10.490000</speed>
</trkpt>
<trkpt lat="55.787987" lon="26.205048">
<ele>159.752075</ele>
<time>2010-07-17T12:12:28Z</time>
<desc>lat.=55.787987, lon.=26.205048, Alt.=159.752075m. Speed=38.231998m/h.</desc>
<speed>10.620000</speed>
</trkpt>
<trkpt lat="55.788059" lon="26.205137">
<ele>159.095825</ele>
<time>2010-07-17T12:12:29Z</time>
<desc>lat.=55.788059, lon.=26.205137, Alt.=159.095825m. Speed=36.216000m/h.</desc>
<speed>10.060000</speed>
</trkpt>
<trkpt lat="55.788136" lon="26.205227">
<ele>158.763794</ele>
<time>2010-07-17T12:12:30Z</time>
<desc>lat.=55.788136, lon.=26.205227, Alt.=158.763794m. Speed=35.352001m/h.</desc>
<speed>9.820000</speed>
</trkpt>
<trkpt lat="55.788193" lon="26.205317">
<ele>157.943481</ele>
<time>2010-07-17T12:12:31Z</time>
<desc>lat.=55.788193, lon.=26.205317, Alt.=157.943481m. Speed=32.472000m/h.</desc>
<speed>9.020000</speed>
</trkpt>
<trkpt lat="55.788258" lon="26.205400">
<ele>157.931763</ele>
<time>2010-07-17T12:12:32Z</time>
<desc>lat.=55.788258, lon.=26.205400, Alt.=157.931763m. Speed=32.076000m/h.</desc>
<speed>8.910000</speed>
</trkpt>
<trkpt lat="55.788326" lon="26.205484">
<ele>157.982544</ele>
<time>2010-07-17T12:12:33Z</time>
<desc>lat.=55.788326, lon.=26.205484, Alt.=157.982544m. Speed=32.472000m/h.</desc>
<speed>9.020000</speed>
</trkpt>
<trkpt lat="55.788391" lon="26.205578">
<ele>157.619263</ele>
<time>2010-07-17T12:12:34Z</time>
<desc>lat.=55.788391, lon.=26.205578, Alt.=157.619263m. Speed=33.875999m/h.</desc>
<speed>9.410000</speed>
</trkpt>
<trkpt lat="55.788456" lon="26.205683">
<ele>157.474731</ele>
<time>2010-07-17T12:12:35Z</time>
<desc>lat.=55.788456, lon.=26.205683, Alt.=157.474731m. Speed=35.172001m/h.</desc>
<speed>9.770000</speed>
</trkpt>
<trkpt lat="55.788513" lon="26.205799">
<ele>156.759888</ele>
<time>2010-07-17T12:12:36Z</time>
<desc>lat.=55.788513, lon.=26.205799, Alt.=156.759888m. Speed=36.576000m/h.</desc>
<speed>10.160000</speed>
</trkpt>
<trkpt lat="55.788570" lon="26.205921">
<ele>156.177856</ele>
<time>2010-07-17T12:12:37Z</time>
<desc>lat.=55.788570, lon.=26.205921, Alt.=156.177856m. Speed=35.136002m/h.</desc>
<speed>9.760000</speed>
</trkpt>
<trkpt lat="55.788628" lon="26.206041">
<ele>155.912231</ele>
<time>2010-07-17T12:12:38Z</time>
<desc>lat.=55.788628, lon.=26.206041, Alt.=155.912231m. Speed=34.416000m/h.</desc>
<speed>9.560000</speed>
</trkpt>
<trkpt lat="55.788677" lon="26.206150">
<ele>155.572388</ele>
<time>2010-07-17T12:12:39Z</time>
<desc>lat.=55.788677, lon.=26.206150, Alt.=155.572388m. Speed=31.716000m/h.</desc>
<speed>8.810000</speed>
</trkpt>
<trkpt lat="55.788727" lon="26.206253">
<ele>155.638794</ele>
<time>2010-07-17T12:12:40Z</time>
<desc>lat.=55.788727, lon.=26.206253, Alt.=155.638794m. Speed=30.167999m/h.</desc>
<speed>8.380000</speed>
</trkpt>
<trkpt lat="55.788780" lon="26.206348">
<ele>155.818481</ele>
<time>2010-07-17T12:12:41Z</time>
<desc>lat.=55.788780, lon.=26.206348, Alt.=155.818481m. Speed=28.332001m/h.</desc>
<speed>7.870000</speed>
</trkpt>
<trkpt lat="55.788822" lon="26.206429">
<ele>156.068481</ele>
<time>2010-07-17T12:12:42Z</time>
<desc>lat.=55.788822, lon.=26.206429, Alt.=156.068481m. Speed=23.615999m/h.</desc>
<speed>6.560000</speed>
</trkpt>
<trkpt lat="55.788864" lon="26.206497">
<ele>156.345825</ele>
<time>2010-07-17T12:12:43Z</time>
<desc>lat.=55.788864, lon.=26.206497, Alt.=156.345825m. Speed=21.492001m/h.</desc>
<speed>5.970000</speed>
</trkpt>
<trkpt lat="55.788902" lon="26.206572">
<ele>156.779419</ele>
<time>2010-07-17T12:12:44Z</time>
<desc>lat.=55.788902, lon.=26.206572, Alt.=156.779419m. Speed=20.340000m/h.</desc>
<speed>5.650000</speed>
</trkpt>
<trkpt lat="55.788929" lon="26.206631">
<ele>157.041138</ele>
<time>2010-07-17T12:12:45Z</time>
<desc>lat.=55.788929, lon.=26.206631, Alt.=157.041138m. Speed=17.243999m/h.</desc>
<speed>4.790000</speed>
</trkpt>
<trkpt lat="55.788952" lon="26.206688">
<ele>157.431763</ele>
<time>2010-07-17T12:12:46Z</time>
<desc>lat.=55.788952, lon.=26.206688, Alt.=157.431763m. Speed=15.408000m/h.</desc>
<speed>4.280000</speed>
</trkpt>
<trkpt lat="55.788982" lon="26.206720">
<ele>155.720825</ele>
<time>2010-07-17T12:12:47Z</time>
<desc>lat.=55.788982, lon.=26.206720, Alt.=155.720825m. Speed=15.336000m/h.</desc>
<speed>4.260000</speed>
</trkpt>
<trkpt lat="55.789009" lon="26.206764">
<ele>155.224731</ele>
<time>2010-07-17T12:12:48Z</time>
<desc>lat.=55.789009, lon.=26.206764, Alt.=155.224731m. Speed=15.156000m/h.</desc>
<speed>4.210000</speed>
</trkpt>
<trkpt lat="55.789040" lon="26.206799">
<ele>156.107544</ele>
<time>2010-07-17T12:12:49Z</time>
<desc>lat.=55.789040, lon.=26.206799, Alt.=156.107544m. Speed=16.308001m/h.</desc>
<speed>4.530000</speed>
</trkpt>
<trkpt lat="55.789070" lon="26.206848">
<ele>156.380981</ele>
<time>2010-07-17T12:12:50Z</time>
<desc>lat.=55.789070, lon.=26.206848, Alt.=156.380981m. Speed=17.388000m/h.</desc>
<speed>4.830000</speed>
</trkpt>
<trkpt lat="55.789120" lon="26.206890">
<ele>157.447388</ele>
<time>2010-07-17T12:12:51Z</time>
<desc>lat.=55.789120, lon.=26.206890, Alt.=157.447388m. Speed=18.468000m/h.</desc>
<speed>5.130000</speed>
</trkpt>
<trkpt lat="55.789165" lon="26.206934">
<ele>157.533325</ele>
<time>2010-07-17T12:12:52Z</time>
<desc>lat.=55.789165, lon.=26.206934, Alt.=157.533325m. Speed=19.980000m/h.</desc>
<speed>5.550000</speed>
</trkpt>
<trkpt lat="55.789211" lon="26.206964">
<ele>157.435669</ele>
<time>2010-07-17T12:12:53Z</time>
<desc>lat.=55.789211, lon.=26.206964, Alt.=157.435669m. Speed=21.132000m/h.</desc>
<speed>5.870000</speed>
</trkpt>
<trkpt lat="55.789261" lon="26.206995">
<ele>157.443481</ele>
<time>2010-07-17T12:12:54Z</time>
<desc>lat.=55.789261, lon.=26.206995, Alt.=157.443481m. Speed=21.096001m/h.</desc>
<speed>5.860000</speed>
</trkpt>
<trkpt lat="55.789314" lon="26.207020">
<ele>157.537231</ele>
<time>2010-07-17T12:12:55Z</time>
<desc>lat.=55.789314, lon.=26.207020, Alt.=157.537231m. Speed=21.959999m/h.</desc>
<speed>6.100000</speed>
</trkpt>
<trkpt lat="55.789364" lon="26.207039">
<ele>157.396606</ele>
<time>2010-07-17T12:12:56Z</time>
<desc>lat.=55.789364, lon.=26.207039, Alt.=157.396606m. Speed=21.384001m/h.</desc>
<speed>5.940000</speed>
</trkpt>
<trkpt lat="55.789413" lon="26.207047">
<ele>156.748169</ele>
<time>2010-07-17T12:12:57Z</time>
<desc>lat.=55.789413, lon.=26.207047, Alt.=156.748169m. Speed=21.059999m/h.</desc>
<speed>5.850000</speed>
</trkpt>
<trkpt lat="55.789463" lon="26.207035">
<ele>156.759888</ele>
<time>2010-07-17T12:12:58Z</time>
<desc>lat.=55.789463, lon.=26.207035, Alt.=156.759888m. Speed=20.952000m/h.</desc>
<speed>5.820000</speed>
</trkpt>
<trkpt lat="55.789513" lon="26.207018">
<ele>156.873169</ele>
<time>2010-07-17T12:12:59Z</time>
<desc>lat.=55.789513, lon.=26.207018, Alt.=156.873169m. Speed=21.059999m/h.</desc>
<speed>5.850000</speed>
</trkpt>
<trkpt lat="55.789566" lon="26.206997">
<ele>156.791138</ele>
<time>2010-07-17T12:13:00Z</time>
<desc>lat.=55.789566, lon.=26.206997, Alt.=156.791138m. Speed=21.492001m/h.</desc>
<speed>5.970000</speed>
</trkpt>
<trkpt lat="55.789619" lon="26.206972">
<ele>157.283325</ele>
<time>2010-07-17T12:13:01Z</time>
<desc>lat.=55.789619, lon.=26.206972, Alt.=157.283325m. Speed=21.851999m/h.</desc>
<speed>6.070000</speed>
</trkpt>
<trkpt lat="55.789669" lon="26.206944">
<ele>157.646606</ele>
<time>2010-07-17T12:13:02Z</time>
<desc>lat.=55.789669, lon.=26.206944, Alt.=157.646606m. Speed=20.916000m/h.</desc>
<speed>5.810000</speed>
</trkpt>
<trkpt lat="55.789726" lon="26.206911">
<ele>157.818481</ele>
<time>2010-07-17T12:13:03Z</time>
<desc>lat.=55.789726, lon.=26.206911, Alt.=157.818481m. Speed=22.392000m/h.</desc>
<speed>6.220000</speed>
</trkpt>
<trkpt lat="55.789780" lon="26.206881">
<ele>157.638794</ele>
<time>2010-07-17T12:13:04Z</time>
<desc>lat.=55.789780, lon.=26.206881, Alt.=157.638794m. Speed=20.700001m/h.</desc>
<speed>5.750000</speed>
</trkpt>
<trkpt lat="55.789833" lon="26.206850">
<ele>157.517700</ele>
<time>2010-07-17T12:13:05Z</time>
<desc>lat.=55.789833, lon.=26.206850, Alt.=157.517700m. Speed=23.868000m/h.</desc>
<speed>6.630000</speed>
</trkpt>
<trkpt lat="55.789894" lon="26.206820">
<ele>158.005981</ele>
<time>2010-07-17T12:13:06Z</time>
<desc>lat.=55.789894, lon.=26.206820, Alt.=158.005981m. Speed=23.903999m/h.</desc>
<speed>6.640000</speed>
</trkpt>
<trkpt lat="55.789955" lon="26.206791">
<ele>158.017700</ele>
<time>2010-07-17T12:13:07Z</time>
<desc>lat.=55.789955, lon.=26.206791, Alt.=158.017700m. Speed=23.580000m/h.</desc>
<speed>6.550000</speed>
</trkpt>
<trkpt lat="55.790012" lon="26.206758">
<ele>158.009888</ele>
<time>2010-07-17T12:13:08Z</time>
<desc>lat.=55.790012, lon.=26.206758, Alt.=158.009888m. Speed=22.608000m/h.</desc>
<speed>6.280000</speed>
</trkpt>
<trkpt lat="55.790066" lon="26.206726">
<ele>158.045044</ele>
<time>2010-07-17T12:13:09Z</time>
<desc>lat.=55.790066, lon.=26.206726, Alt.=158.045044m. Speed=21.420000m/h.</desc>
<speed>5.950000</speed>
</trkpt>
<trkpt lat="55.790115" lon="26.206699">
<ele>158.115356</ele>
<time>2010-07-17T12:13:10Z</time>
<desc>lat.=55.790115, lon.=26.206699, Alt.=158.115356m. Speed=20.808001m/h.</desc>
<speed>5.780000</speed>
</trkpt>
<trkpt lat="55.790165" lon="26.206676">
<ele>158.213013</ele>
<time>2010-07-17T12:13:11Z</time>
<desc>lat.=55.790165, lon.=26.206676, Alt.=158.213013m. Speed=20.304001m/h.</desc>
<speed>5.640000</speed>
</trkpt>
<trkpt lat="55.790215" lon="26.206657">
<ele>158.041138</ele>
<time>2010-07-17T12:13:12Z</time>
<desc>lat.=55.790215, lon.=26.206657, Alt.=158.041138m. Speed=19.872000m/h.</desc>
<speed>5.520000</speed>
</trkpt>
<trkpt lat="55.790264" lon="26.206635">
<ele>157.951294</ele>
<time>2010-07-17T12:13:13Z</time>
<desc>lat.=55.790264, lon.=26.206635, Alt.=157.951294m. Speed=20.052000m/h.</desc>
<speed>5.570000</speed>
</trkpt>
<trkpt lat="55.790314" lon="26.206608">
<ele>157.873169</ele>
<time>2010-07-17T12:13:14Z</time>
<desc>lat.=55.790314, lon.=26.206608, Alt.=157.873169m. Speed=21.420000m/h.</desc>
<speed>5.950000</speed>
</trkpt>
<trkpt lat="55.790367" lon="26.206581">
<ele>157.791138</ele>
<time>2010-07-17T12:13:15Z</time>
<desc>lat.=55.790367, lon.=26.206581, Alt.=157.791138m. Speed=21.528000m/h.</desc>
<speed>5.980000</speed>
</trkpt>
<trkpt lat="55.790417" lon="26.206564">
<ele>157.412231</ele>
<time>2010-07-17T12:13:16Z</time>
<desc>lat.=55.790417, lon.=26.206564, Alt.=157.412231m. Speed=21.275999m/h.</desc>
<speed>5.910000</speed>
</trkpt>
<trkpt lat="55.790470" lon="26.206543">
<ele>157.166138</ele>
<time>2010-07-17T12:13:17Z</time>
<desc>lat.=55.790470, lon.=26.206543, Alt.=157.166138m. Speed=21.528000m/h.</desc>
<speed>5.980000</speed>
</trkpt>
<trkpt lat="55.790524" lon="26.206524">
<ele>156.920044</ele>
<time>2010-07-17T12:13:18Z</time>
<desc>lat.=55.790524, lon.=26.206524, Alt.=156.920044m. Speed=21.708000m/h.</desc>
<speed>6.030000</speed>
</trkpt>
<trkpt lat="55.790573" lon="26.206499">
<ele>156.838013</ele>
<time>2010-07-17T12:13:19Z</time>
<desc>lat.=55.790573, lon.=26.206499, Alt.=156.838013m. Speed=21.743999m/h.</desc>
<speed>6.040000</speed>
</trkpt>
<trkpt lat="55.790627" lon="26.206474">
<ele>156.759888</ele>
<time>2010-07-17T12:13:20Z</time>
<desc>lat.=55.790627, lon.=26.206474, Alt.=156.759888m. Speed=21.563999m/h.</desc>
<speed>5.990000</speed>
</trkpt>
<trkpt lat="55.790680" lon="26.206444">
<ele>156.689575</ele>
<time>2010-07-17T12:13:21Z</time>
<desc>lat.=55.790680, lon.=26.206444, Alt.=156.689575m. Speed=21.132000m/h.</desc>
<speed>5.870000</speed>
</trkpt>
<trkpt lat="55.790730" lon="26.206417">
<ele>156.572388</ele>
<time>2010-07-17T12:13:22Z</time>
<desc>lat.=55.790730, lon.=26.206417, Alt.=156.572388m. Speed=21.167999m/h.</desc>
<speed>5.880000</speed>
</trkpt>
<trkpt lat="55.790775" lon="26.206398">
<ele>156.404419</ele>
<time>2010-07-17T12:13:23Z</time>
<desc>lat.=55.790775, lon.=26.206398, Alt.=156.404419m. Speed=18.756001m/h.</desc>
<speed>5.210000</speed>
</trkpt>
<trkpt lat="55.790817" lon="26.206381">
<ele>156.052856</ele>
<time>2010-07-17T12:13:24Z</time>
<desc>lat.=55.790817, lon.=26.206381, Alt.=156.052856m. Speed=15.480000m/h.</desc>
<speed>4.300000</speed>
</trkpt>
<trkpt lat="55.790859" lon="26.206369">
<ele>155.724731</ele>
<time>2010-07-17T12:13:25Z</time>
<desc>lat.=55.790859, lon.=26.206369, Alt.=155.724731m. Speed=17.927999m/h.</desc>
<speed>4.980000</speed>
</trkpt>
<trkpt lat="55.790901" lon="26.206356">
<ele>155.490356</ele>
<time>2010-07-17T12:13:26Z</time>
<desc>lat.=55.790901, lon.=26.206356, Alt.=155.490356m. Speed=16.524000m/h.</desc>
<speed>4.590000</speed>
</trkpt>
<trkpt lat="55.790947" lon="26.206339">
<ele>155.474731</ele>
<time>2010-07-17T12:13:27Z</time>
<desc>lat.=55.790947, lon.=26.206339, Alt.=155.474731m. Speed=18.035999m/h.</desc>
<speed>5.010000</speed>
</trkpt>
<trkpt lat="55.790993" lon="26.206316">
<ele>155.423950</ele>
<time>2010-07-17T12:13:28Z</time>
<desc>lat.=55.790993, lon.=26.206316, Alt.=155.423950m. Speed=18.719999m/h.</desc>
<speed>5.200000</speed>
</trkpt>
<trkpt lat="55.791046" lon="26.206293">
<ele>155.388794</ele>
<time>2010-07-17T12:13:29Z</time>
<desc>lat.=55.791046, lon.=26.206293, Alt.=155.388794m. Speed=21.563999m/h.</desc>
<speed>5.990000</speed>
</trkpt>
<trkpt lat="55.791100" lon="26.206268">
<ele>154.955200</ele>
<time>2010-07-17T12:13:30Z</time>
<desc>lat.=55.791100, lon.=26.206268, Alt.=154.955200m. Speed=19.620001m/h.</desc>
<speed>5.450000</speed>
</trkpt>
<trkpt lat="55.791145" lon="26.206245">
<ele>154.818481</ele>
<time>2010-07-17T12:13:31Z</time>
<desc>lat.=55.791145, lon.=26.206245, Alt.=154.818481m. Speed=19.764000m/h.</desc>
<speed>5.490000</speed>
</trkpt>
<trkpt lat="55.791191" lon="26.206221">
<ele>154.599731</ele>
<time>2010-07-17T12:13:32Z</time>
<desc>lat.=55.791191, lon.=26.206221, Alt.=154.599731m. Speed=18.504000m/h.</desc>
<speed>5.140000</speed>
</trkpt>
<trkpt lat="55.791245" lon="26.206184">
<ele>154.607544</ele>
<time>2010-07-17T12:13:33Z</time>
<desc>lat.=55.791245, lon.=26.206184, Alt.=154.607544m. Speed=20.591999m/h.</desc>
<speed>5.720000</speed>
</trkpt>
<trkpt lat="55.791286" lon="26.206152">
<ele>154.420044</ele>
<time>2010-07-17T12:13:34Z</time>
<desc>lat.=55.791286, lon.=26.206152, Alt.=154.420044m. Speed=20.771999m/h.</desc>
<speed>5.770000</speed>
</trkpt>
<trkpt lat="55.791336" lon="26.206123">
<ele>154.220825</ele>
<time>2010-07-17T12:13:35Z</time>
<desc>lat.=55.791336, lon.=26.206123, Alt.=154.220825m. Speed=21.204000m/h.</desc>
<speed>5.890000</speed>
</trkpt>
<trkpt lat="55.791382" lon="26.206100">
<ele>154.021606</ele>
<time>2010-07-17T12:13:36Z</time>
<desc>lat.=55.791382, lon.=26.206100, Alt.=154.021606m. Speed=19.511999m/h.</desc>
<speed>5.420000</speed>
</trkpt>
<trkpt lat="55.791431" lon="26.206070">
<ele>153.888794</ele>
<time>2010-07-17T12:13:37Z</time>
<desc>lat.=55.791431, lon.=26.206070, Alt.=153.888794m. Speed=20.160000m/h.</desc>
<speed>5.600000</speed>
</trkpt>
<trkpt lat="55.791481" lon="26.206041">
<ele>153.720825</ele>
<time>2010-07-17T12:13:38Z</time>
<desc>lat.=55.791481, lon.=26.206041, Alt.=153.720825m. Speed=20.556000m/h.</desc>
<speed>5.710000</speed>
</trkpt>
<trkpt lat="55.791534" lon="26.206003">
<ele>153.838013</ele>
<time>2010-07-17T12:13:39Z</time>
<desc>lat.=55.791534, lon.=26.206003, Alt.=153.838013m. Speed=21.204000m/h.</desc>
<speed>5.890000</speed>
</trkpt>
<trkpt lat="55.791584" lon="26.205975">
<ele>153.677856</ele>
<time>2010-07-17T12:13:40Z</time>
<desc>lat.=55.791584, lon.=26.205975, Alt.=153.677856m. Speed=21.384001m/h.</desc>
<speed>5.940000</speed>
</trkpt>
<trkpt lat="55.791637" lon="26.205944">
<ele>153.420044</ele>
<time>2010-07-17T12:13:41Z</time>
<desc>lat.=55.791637, lon.=26.205944, Alt.=153.420044m. Speed=21.312000m/h.</desc>
<speed>5.920000</speed>
</trkpt>
<trkpt lat="55.791698" lon="26.205927">
<ele>153.252075</ele>
<time>2010-07-17T12:13:42Z</time>
<desc>lat.=55.791698, lon.=26.205927, Alt.=153.252075m. Speed=24.983999m/h.</desc>
<speed>6.940000</speed>
</trkpt>
<trkpt lat="55.791767" lon="26.205923">
<ele>153.107544</ele>
<time>2010-07-17T12:13:43Z</time>
<desc>lat.=55.791767, lon.=26.205923, Alt.=153.107544m. Speed=25.236000m/h.</desc>
<speed>7.010000</speed>
</trkpt>
<trkpt lat="55.791832" lon="26.205923">
<ele>153.013794</ele>
<time>2010-07-17T12:13:44Z</time>
<desc>lat.=55.791832, lon.=26.205923, Alt.=153.013794m. Speed=26.172001m/h.</desc>
<speed>7.270000</speed>
</trkpt>
<trkpt lat="55.791897" lon="26.205935">
<ele>152.916138</ele>
<time>2010-07-17T12:13:45Z</time>
<desc>lat.=55.791897, lon.=26.205935, Alt.=152.916138m. Speed=26.280001m/h.</desc>
<speed>7.300000</speed>
</trkpt>
<trkpt lat="55.791965" lon="26.205956">
<ele>152.896606</ele>
<time>2010-07-17T12:13:46Z</time>
<desc>lat.=55.791965, lon.=26.205956, Alt.=152.896606m. Speed=25.524000m/h.</desc>
<speed>7.090000</speed>
</trkpt>
<trkpt lat="55.792027" lon="26.205980">
<ele>152.740356</ele>
<time>2010-07-17T12:13:47Z</time>
<desc>lat.=55.792027, lon.=26.205980, Alt.=152.740356m. Speed=24.480000m/h.</desc>
<speed>6.800000</speed>
</trkpt>
<trkpt lat="55.792091" lon="26.206007">
<ele>153.107544</ele>
<time>2010-07-17T12:13:48Z</time>
<desc>lat.=55.792091, lon.=26.206007, Alt.=153.107544m. Speed=24.444000m/h.</desc>
<speed>6.790000</speed>
</trkpt>
<trkpt lat="55.792149" lon="26.206034">
<ele>153.127075</ele>
<time>2010-07-17T12:13:49Z</time>
<desc>lat.=55.792149, lon.=26.206034, Alt.=153.127075m. Speed=24.695999m/h.</desc>
<speed>6.860000</speed>
</trkpt>
<trkpt lat="55.792210" lon="26.206066">
<ele>153.127075</ele>
<time>2010-07-17T12:13:50Z</time>
<desc>lat.=55.792210, lon.=26.206066, Alt.=153.127075m. Speed=24.084000m/h.</desc>
<speed>6.690000</speed>
</trkpt>
<trkpt lat="55.792263" lon="26.206102">
<ele>153.162231</ele>
<time>2010-07-17T12:13:51Z</time>
<desc>lat.=55.792263, lon.=26.206102, Alt.=153.162231m. Speed=24.264000m/h.</desc>
<speed>6.740000</speed>
</trkpt>
<trkpt lat="55.792324" lon="26.206141">
<ele>153.275513</ele>
<time>2010-07-17T12:13:52Z</time>
<desc>lat.=55.792324, lon.=26.206141, Alt.=153.275513m. Speed=24.587999m/h.</desc>
<speed>6.830000</speed>
</trkpt>
<trkpt lat="55.792381" lon="26.206175">
<ele>153.591919</ele>
<time>2010-07-17T12:13:53Z</time>
<desc>lat.=55.792381, lon.=26.206175, Alt.=153.591919m. Speed=22.500000m/h.</desc>
<speed>6.250000</speed>
</trkpt>
<trkpt lat="55.792427" lon="26.206207">
<ele>153.716919</ele>
<time>2010-07-17T12:13:54Z</time>
<desc>lat.=55.792427, lon.=26.206207, Alt.=153.716919m. Speed=22.212000m/h.</desc>
<speed>6.170000</speed>
</trkpt>
<trkpt lat="55.792480" lon="26.206240">
<ele>153.759888</ele>
<time>2010-07-17T12:13:55Z</time>
<desc>lat.=55.792480, lon.=26.206240, Alt.=153.759888m. Speed=22.427999m/h.</desc>
<speed>6.230000</speed>
</trkpt>
<trkpt lat="55.792530" lon="26.206276">
<ele>153.744263</ele>
<time>2010-07-17T12:13:56Z</time>
<desc>lat.=55.792530, lon.=26.206276, Alt.=153.744263m. Speed=21.600000m/h.</desc>
<speed>6.000000</speed>
</trkpt>
<trkpt lat="55.792580" lon="26.206308">
<ele>153.779419</ele>
<time>2010-07-17T12:13:57Z</time>
<desc>lat.=55.792580, lon.=26.206308, Alt.=153.779419m. Speed=20.771999m/h.</desc>
<speed>5.770000</speed>
</trkpt>
<trkpt lat="55.792633" lon="26.206333">
<ele>153.748169</ele>
<time>2010-07-17T12:13:58Z</time>
<desc>lat.=55.792633, lon.=26.206333, Alt.=153.748169m. Speed=21.563999m/h.</desc>
<speed>5.990000</speed>
</trkpt>
<trkpt lat="55.792679" lon="26.206362">
<ele>153.716919</ele>
<time>2010-07-17T12:13:59Z</time>
<desc>lat.=55.792679, lon.=26.206362, Alt.=153.716919m. Speed=19.836000m/h.</desc>
<speed>5.510000</speed>
</trkpt>
<trkpt lat="55.792721" lon="26.206392">
<ele>153.701294</ele>
<time>2010-07-17T12:14:00Z</time>
<desc>lat.=55.792721, lon.=26.206392, Alt.=153.701294m. Speed=18.648001m/h.</desc>
<speed>5.180000</speed>
</trkpt>
<trkpt lat="55.792770" lon="26.206413">
<ele>153.701294</ele>
<time>2010-07-17T12:14:01Z</time>
<desc>lat.=55.792770, lon.=26.206413, Alt.=153.701294m. Speed=17.676001m/h.</desc>
<speed>4.910000</speed>
</trkpt>
<trkpt lat="55.792812" lon="26.206436">
<ele>153.775513</ele>
<time>2010-07-17T12:14:02Z</time>
<desc>lat.=55.792812, lon.=26.206436, Alt.=153.775513m. Speed=17.964001m/h.</desc>
<speed>4.990000</speed>
</trkpt>
<trkpt lat="55.792850" lon="26.206457">
<ele>153.841919</ele>
<time>2010-07-17T12:14:03Z</time>
<desc>lat.=55.792850, lon.=26.206457, Alt.=153.841919m. Speed=17.532000m/h.</desc>
<speed>4.870000</speed>
</trkpt>
<trkpt lat="55.792885" lon="26.206476">
<ele>153.994263</ele>
<time>2010-07-17T12:14:04Z</time>
<desc>lat.=55.792885, lon.=26.206476, Alt.=153.994263m. Speed=17.784000m/h.</desc>
<speed>4.940000</speed>
</trkpt>
<trkpt lat="55.792931" lon="26.206488">
<ele>154.107544</ele>
<time>2010-07-17T12:14:05Z</time>
<desc>lat.=55.792931, lon.=26.206488, Alt.=154.107544m. Speed=16.920000m/h.</desc>
<speed>4.700000</speed>
</trkpt>
<trkpt lat="55.792976" lon="26.206497">
<ele>154.220825</ele>
<time>2010-07-17T12:14:06Z</time>
<desc>lat.=55.792976, lon.=26.206497, Alt.=154.220825m. Speed=16.559999m/h.</desc>
<speed>4.600000</speed>
</trkpt>
<trkpt lat="55.793022" lon="26.206512">
<ele>154.166138</ele>
<time>2010-07-17T12:14:07Z</time>
<desc>lat.=55.793022, lon.=26.206512, Alt.=154.166138m. Speed=17.280001m/h.</desc>
<speed>4.800000</speed>
</trkpt>
<trkpt lat="55.793064" lon="26.206532">
<ele>154.107544</ele>
<time>2010-07-17T12:14:08Z</time>
<desc>lat.=55.793064, lon.=26.206532, Alt.=154.107544m. Speed=17.532000m/h.</desc>
<speed>4.870000</speed>
</trkpt>
<trkpt lat="55.793106" lon="26.206553">
<ele>153.943481</ele>
<time>2010-07-17T12:14:09Z</time>
<desc>lat.=55.793106, lon.=26.206553, Alt.=153.943481m. Speed=16.740000m/h.</desc>
<speed>4.650000</speed>
</trkpt>
<trkpt lat="55.793148" lon="26.206566">
<ele>153.990356</ele>
<time>2010-07-17T12:14:10Z</time>
<desc>lat.=55.793148, lon.=26.206566, Alt.=153.990356m. Speed=17.208000m/h.</desc>
<speed>4.780000</speed>
</trkpt>
<trkpt lat="55.793190" lon="26.206572">
<ele>154.021606</ele>
<time>2010-07-17T12:14:11Z</time>
<desc>lat.=55.793190, lon.=26.206572, Alt.=154.021606m. Speed=16.271999m/h.</desc>
<speed>4.520000</speed>
</trkpt>
<trkpt lat="55.793228" lon="26.206583">
<ele>153.935669</ele>
<time>2010-07-17T12:14:12Z</time>
<desc>lat.=55.793228, lon.=26.206583, Alt.=153.935669m. Speed=16.308001m/h.</desc>
<speed>4.530000</speed>
</trkpt>
<trkpt lat="55.793270" lon="26.206589">
<ele>154.154419</ele>
<time>2010-07-17T12:14:13Z</time>
<desc>lat.=55.793270, lon.=26.206589, Alt.=154.154419m. Speed=15.084000m/h.</desc>
<speed>4.190000</speed>
</trkpt>
<trkpt lat="55.793308" lon="26.206598">
<ele>154.127075</ele>
<time>2010-07-17T12:14:14Z</time>
<desc>lat.=55.793308, lon.=26.206598, Alt.=154.127075m. Speed=15.012000m/h.</desc>
<speed>4.170000</speed>
</trkpt>
<trkpt lat="55.793343" lon="26.206614">
<ele>153.806763</ele>
<time>2010-07-17T12:14:15Z</time>
<desc>lat.=55.793343, lon.=26.206614, Alt.=153.806763m. Speed=16.704000m/h.</desc>
<speed>4.640000</speed>
</trkpt>
<trkpt lat="55.793388" lon="26.206631">
<ele>154.283325</ele>
<time>2010-07-17T12:14:16Z</time>
<desc>lat.=55.793388, lon.=26.206631, Alt.=154.283325m. Speed=16.056000m/h.</desc>
<speed>4.460000</speed>
</trkpt>
<trkpt lat="55.793427" lon="26.206648">
<ele>154.634888</ele>
<time>2010-07-17T12:14:17Z</time>
<desc>lat.=55.793427, lon.=26.206648, Alt.=154.634888m. Speed=14.904000m/h.</desc>
<speed>4.140000</speed>
</trkpt>
<trkpt lat="55.793461" lon="26.206661">
<ele>154.771606</ele>
<time>2010-07-17T12:14:18Z</time>
<desc>lat.=55.793461, lon.=26.206661, Alt.=154.771606m. Speed=14.076000m/h.</desc>
<speed>3.910000</speed>
</trkpt>
<trkpt lat="55.793499" lon="26.206671">
<ele>154.892700</ele>
<time>2010-07-17T12:14:19Z</time>
<desc>lat.=55.793499, lon.=26.206671, Alt.=154.892700m. Speed=15.768000m/h.</desc>
<speed>4.380000</speed>
</trkpt>
<trkpt lat="55.793537" lon="26.206684">
<ele>154.943481</ele>
<time>2010-07-17T12:14:20Z</time>
<desc>lat.=55.793537, lon.=26.206684, Alt.=154.943481m. Speed=15.444000m/h.</desc>
<speed>4.290000</speed>
</trkpt>
<trkpt lat="55.793579" lon="26.206696">
<ele>154.904419</ele>
<time>2010-07-17T12:14:21Z</time>
<desc>lat.=55.793579, lon.=26.206696, Alt.=154.904419m. Speed=16.308001m/h.</desc>
<speed>4.530000</speed>
</trkpt>
<trkpt lat="55.793617" lon="26.206705">
<ele>154.982544</ele>
<time>2010-07-17T12:14:22Z</time>
<desc>lat.=55.793617, lon.=26.206705, Alt.=154.982544m. Speed=15.912000m/h.</desc>
<speed>4.420000</speed>
</trkpt>
<trkpt lat="55.793655" lon="26.206720">
<ele>154.951294</ele>
<time>2010-07-17T12:14:23Z</time>
<desc>lat.=55.793655, lon.=26.206720, Alt.=154.951294m. Speed=16.559999m/h.</desc>
<speed>4.600000</speed>
</trkpt>
<trkpt lat="55.793697" lon="26.206739">
<ele>154.865356</ele>
<time>2010-07-17T12:14:24Z</time>
<desc>lat.=55.793697, lon.=26.206739, Alt.=154.865356m. Speed=18.035999m/h.</desc>
<speed>5.010000</speed>
</trkpt>
<trkpt lat="55.793743" lon="26.206755">
<ele>154.838013</ele>
<time>2010-07-17T12:14:25Z</time>
<desc>lat.=55.793743, lon.=26.206755, Alt.=154.838013m. Speed=17.459999m/h.</desc>
<speed>4.850000</speed>
</trkpt>
<trkpt lat="55.793789" lon="26.206764">
<ele>154.740356</ele>
<time>2010-07-17T12:14:26Z</time>
<desc>lat.=55.793789, lon.=26.206764, Alt.=154.740356m. Speed=18.288000m/h.</desc>
<speed>5.080000</speed>
</trkpt>
<trkpt lat="55.793839" lon="26.206758">
<ele>154.935669</ele>
<time>2010-07-17T12:14:27Z</time>
<desc>lat.=55.793839, lon.=26.206758, Alt.=154.935669m. Speed=17.136000m/h.</desc>
<speed>4.760000</speed>
</trkpt>
<trkpt lat="55.793888" lon="26.206753">
<ele>155.283325</ele>
<time>2010-07-17T12:14:28Z</time>
<desc>lat.=55.793888, lon.=26.206753, Alt.=155.283325m. Speed=14.076000m/h.</desc>
<speed>3.910000</speed>
</trkpt>
<trkpt lat="55.793934" lon="26.206745">
<ele>154.908325</ele>
<time>2010-07-17T12:14:29Z</time>
<desc>lat.=55.793934, lon.=26.206745, Alt.=154.908325m. Speed=15.516000m/h.</desc>
<speed>4.310000</speed>
</trkpt>
<trkpt lat="55.793980" lon="26.206715">
<ele>154.970825</ele>
<time>2010-07-17T12:14:30Z</time>
<desc>lat.=55.793980, lon.=26.206715, Alt.=154.970825m. Speed=17.856001m/h.</desc>
<speed>4.960000</speed>
</trkpt>
<trkpt lat="55.794018" lon="26.206688">
<ele>153.994263</ele>
<time>2010-07-17T12:14:31Z</time>
<desc>lat.=55.794018, lon.=26.206688, Alt.=153.994263m. Speed=15.120000m/h.</desc>
<speed>4.200000</speed>
</trkpt>
<trkpt lat="55.794048" lon="26.206656">
<ele>153.455200</ele>
<time>2010-07-17T12:14:32Z</time>
<desc>lat.=55.794048, lon.=26.206656, Alt.=153.455200m. Speed=13.320000m/h.</desc>
<speed>3.700000</speed>
</trkpt>
<trkpt lat="55.794075" lon="26.206627">
<ele>153.291138</ele>
<time>2010-07-17T12:14:33Z</time>
<desc>lat.=55.794075, lon.=26.206627, Alt.=153.291138m. Speed=13.464000m/h.</desc>
<speed>3.740000</speed>
</trkpt>
<trkpt lat="55.794102" lon="26.206591">
<ele>152.900513</ele>
<time>2010-07-17T12:14:34Z</time>
<desc>lat.=55.794102, lon.=26.206591, Alt.=152.900513m. Speed=13.788000m/h.</desc>
<speed>3.830000</speed>
</trkpt>
<trkpt lat="55.794128" lon="26.206556">
<ele>152.744263</ele>
<time>2010-07-17T12:14:35Z</time>
<desc>lat.=55.794128, lon.=26.206556, Alt.=152.744263m. Speed=10.476000m/h.</desc>
<speed>2.910000</speed>
</trkpt>
<trkpt lat="55.794155" lon="26.206532">
<ele>153.267700</ele>
<time>2010-07-17T12:14:36Z</time>
<desc>lat.=55.794155, lon.=26.206532, Alt.=153.267700m. Speed=11.376000m/h.</desc>
<speed>3.160000</speed>
</trkpt>
<trkpt lat="55.794178" lon="26.206505">
<ele>153.263794</ele>
<time>2010-07-17T12:14:37Z</time>
<desc>lat.=55.794178, lon.=26.206505, Alt.=153.263794m. Speed=10.044000m/h.</desc>
<speed>2.790000</speed>
</trkpt>
<trkpt lat="55.794205" lon="26.206476">
<ele>153.373169</ele>
<time>2010-07-17T12:14:38Z</time>
<desc>lat.=55.794205, lon.=26.206476, Alt.=153.373169m. Speed=11.880000m/h.</desc>
<speed>3.300000</speed>
</trkpt>
<trkpt lat="55.794247" lon="26.206429">
<ele>153.666138</ele>
<time>2010-07-17T12:14:39Z</time>
<desc>lat.=55.794247, lon.=26.206429, Alt.=153.666138m. Speed=13.716000m/h.</desc>
<speed>3.810000</speed>
</trkpt>
<trkpt lat="55.794281" lon="26.206390">
<ele>154.076294</ele>
<time>2010-07-17T12:14:40Z</time>
<desc>lat.=55.794281, lon.=26.206390, Alt.=154.076294m. Speed=14.220000m/h.</desc>
<speed>3.950000</speed>
</trkpt>
<trkpt lat="55.794308" lon="26.206356">
<ele>154.755981</ele>
<time>2010-07-17T12:14:41Z</time>
<desc>lat.=55.794308, lon.=26.206356, Alt.=154.755981m. Speed=13.356000m/h.</desc>
<speed>3.710000</speed>
</trkpt>
<trkpt lat="55.794338" lon="26.206322">
<ele>154.963013</ele>
<time>2010-07-17T12:14:42Z</time>
<desc>lat.=55.794338, lon.=26.206322, Alt.=154.963013m. Speed=12.816000m/h.</desc>
<speed>3.560000</speed>
</trkpt>
<trkpt lat="55.794380" lon="26.206289">
<ele>155.150513</ele>
<time>2010-07-17T12:14:43Z</time>
<desc>lat.=55.794380, lon.=26.206289, Alt.=155.150513m. Speed=13.068000m/h.</desc>
<speed>3.630000</speed>
</trkpt>
<trkpt lat="55.794430" lon="26.206249">
<ele>155.955200</ele>
<time>2010-07-17T12:14:44Z</time>
<desc>lat.=55.794430, lon.=26.206249, Alt.=155.955200m. Speed=13.572000m/h.</desc>
<speed>3.770000</speed>
</trkpt>
<trkpt lat="55.794476" lon="26.206209">
<ele>156.412231</ele>
<time>2010-07-17T12:14:45Z</time>
<desc>lat.=55.794476, lon.=26.206209, Alt.=156.412231m. Speed=14.796000m/h.</desc>
<speed>4.110000</speed>
</trkpt>
<trkpt lat="55.794525" lon="26.206169">
<ele>157.513794</ele>
<time>2010-07-17T12:14:46Z</time>
<desc>lat.=55.794525, lon.=26.206169, Alt.=157.513794m. Speed=16.632000m/h.</desc>
<speed>4.620000</speed>
</trkpt>
<trkpt lat="55.794571" lon="26.206102">
<ele>156.502075</ele>
<time>2010-07-17T12:14:47Z</time>
<desc>lat.=55.794571, lon.=26.206102, Alt.=156.502075m. Speed=17.136000m/h.</desc>
<speed>4.760000</speed>
</trkpt>
<trkpt lat="55.794613" lon="26.206024">
<ele>155.806763</ele>
<time>2010-07-17T12:14:48Z</time>
<desc>lat.=55.794613, lon.=26.206024, Alt.=155.806763m. Speed=17.856001m/h.</desc>
<speed>4.960000</speed>
</trkpt>
<trkpt lat="55.794659" lon="26.205956">
<ele>155.615356</ele>
<time>2010-07-17T12:14:49Z</time>
<desc>lat.=55.794659, lon.=26.205956, Alt.=155.615356m. Speed=18.360001m/h.</desc>
<speed>5.100000</speed>
</trkpt>
<trkpt lat="55.794704" lon="26.205894">
<ele>156.033325</ele>
<time>2010-07-17T12:14:50Z</time>
<desc>lat.=55.794704, lon.=26.205894, Alt.=156.033325m. Speed=18.576000m/h.</desc>
<speed>5.160000</speed>
</trkpt>
<trkpt lat="55.794746" lon="26.205845">
<ele>156.338013</ele>
<time>2010-07-17T12:14:51Z</time>
<desc>lat.=55.794746, lon.=26.205845, Alt.=156.338013m. Speed=18.936001m/h.</desc>
<speed>5.260000</speed>
</trkpt>
<trkpt lat="55.794785" lon="26.205791">
<ele>155.599731</ele>
<time>2010-07-17T12:14:52Z</time>
<desc>lat.=55.794785, lon.=26.205791, Alt.=155.599731m. Speed=18.288000m/h.</desc>
<speed>5.080000</speed>
</trkpt>
<trkpt lat="55.794819" lon="26.205727">
<ele>154.318481</ele>
<time>2010-07-17T12:14:53Z</time>
<desc>lat.=55.794819, lon.=26.205727, Alt.=154.318481m. Speed=18.323999m/h.</desc>
<speed>5.090000</speed>
</trkpt>
<trkpt lat="55.794865" lon="26.205669">
<ele>154.607544</ele>
<time>2010-07-17T12:14:54Z</time>
<desc>lat.=55.794865, lon.=26.205669, Alt.=154.607544m. Speed=19.403999m/h.</desc>
<speed>5.390000</speed>
</trkpt>
<trkpt lat="55.794914" lon="26.205610">
<ele>154.252075</ele>
<time>2010-07-17T12:14:55Z</time>
<desc>lat.=55.794914, lon.=26.205610, Alt.=154.252075m. Speed=20.124001m/h.</desc>
<speed>5.590000</speed>
</trkpt>
<trkpt lat="55.794960" lon="26.205557">
<ele>154.615356</ele>
<time>2010-07-17T12:14:56Z</time>
<desc>lat.=55.794960, lon.=26.205557, Alt.=154.615356m. Speed=20.483999m/h.</desc>
<speed>5.690000</speed>
</trkpt>
<trkpt lat="55.795006" lon="26.205498">
<ele>155.189575</ele>
<time>2010-07-17T12:14:57Z</time>
<desc>lat.=55.795006, lon.=26.205498, Alt.=155.189575m. Speed=20.483999m/h.</desc>
<speed>5.690000</speed>
</trkpt>
<trkpt lat="55.795048" lon="26.205439">
<ele>155.271606</ele>
<time>2010-07-17T12:14:58Z</time>
<desc>lat.=55.795048, lon.=26.205439, Alt.=155.271606m. Speed=19.799999m/h.</desc>
<speed>5.500000</speed>
</trkpt>
<trkpt lat="55.795090" lon="26.205376">
<ele>155.709106</ele>
<time>2010-07-17T12:14:59Z</time>
<desc>lat.=55.795090, lon.=26.205376, Alt.=155.709106m. Speed=20.124001m/h.</desc>
<speed>5.590000</speed>
</trkpt>
<trkpt lat="55.795132" lon="26.205324">
<ele>155.783325</ele>
<time>2010-07-17T12:15:00Z</time>
<desc>lat.=55.795132, lon.=26.205324, Alt.=155.783325m. Speed=20.124001m/h.</desc>
<speed>5.590000</speed>
</trkpt>
<trkpt lat="55.795170" lon="26.205271">
<ele>155.986450</ele>
<time>2010-07-17T12:15:01Z</time>
<desc>lat.=55.795170, lon.=26.205271, Alt.=155.986450m. Speed=19.332001m/h.</desc>
<speed>5.370000</speed>
</trkpt>
<trkpt lat="55.795208" lon="26.205217">
<ele>156.123169</ele>
<time>2010-07-17T12:15:02Z</time>
<desc>lat.=55.795208, lon.=26.205217, Alt.=156.123169m. Speed=18.972000m/h.</desc>
<speed>5.270000</speed>
</trkpt>
<trkpt lat="55.795246" lon="26.205160">
<ele>156.259888</ele>
<time>2010-07-17T12:15:03Z</time>
<desc>lat.=55.795246, lon.=26.205160, Alt.=156.259888m. Speed=20.520000m/h.</desc>
<speed>5.700000</speed>
</trkpt>
<trkpt lat="55.795288" lon="26.205103">
<ele>156.392700</ele>
<time>2010-07-17T12:15:04Z</time>
<desc>lat.=55.795288, lon.=26.205103, Alt.=156.392700m. Speed=21.563999m/h.</desc>
<speed>5.990000</speed>
</trkpt>
<trkpt lat="55.795334" lon="26.205040">
<ele>156.447388</ele>
<time>2010-07-17T12:15:05Z</time>
<desc>lat.=55.795334, lon.=26.205040, Alt.=156.447388m. Speed=24.084000m/h.</desc>
<speed>6.690000</speed>
</trkpt>
<trkpt lat="55.795387" lon="26.204962">
<ele>156.658325</ele>
<time>2010-07-17T12:15:06Z</time>
<desc>lat.=55.795387, lon.=26.204962, Alt.=156.658325m. Speed=27.504000m/h.</desc>
<speed>7.640000</speed>
</trkpt>
<trkpt lat="55.795441" lon="26.204868">
<ele>156.666138</ele>
<time>2010-07-17T12:15:07Z</time>
<desc>lat.=55.795441, lon.=26.204868, Alt.=156.666138m. Speed=30.959999m/h.</desc>
<speed>8.600000</speed>
</trkpt>
<trkpt lat="55.795498" lon="26.204760">
<ele>156.412231</ele>
<time>2010-07-17T12:15:08Z</time>
<desc>lat.=55.795498, lon.=26.204760, Alt.=156.412231m. Speed=33.695999m/h.</desc>
<speed>9.360000</speed>
</trkpt>
<trkpt lat="55.795559" lon="26.204645">
<ele>156.517700</ele>
<time>2010-07-17T12:15:09Z</time>
<desc>lat.=55.795559, lon.=26.204645, Alt.=156.517700m. Speed=35.352001m/h.</desc>
<speed>9.820000</speed>
</trkpt>
<trkpt lat="55.795624" lon="26.204529">
<ele>156.560669</ele>
<time>2010-07-17T12:15:10Z</time>
<desc>lat.=55.795624, lon.=26.204529, Alt.=156.560669m. Speed=35.459999m/h.</desc>
<speed>9.850000</speed>
</trkpt>
<trkpt lat="55.795689" lon="26.204414">
<ele>156.814575</ele>
<time>2010-07-17T12:15:11Z</time>
<desc>lat.=55.795689, lon.=26.204414, Alt.=156.814575m. Speed=34.667999m/h.</desc>
<speed>9.630000</speed>
</trkpt>
<trkpt lat="55.795753" lon="26.204319">
<ele>156.959106</ele>
<time>2010-07-17T12:15:12Z</time>
<desc>lat.=55.795753, lon.=26.204319, Alt.=156.959106m. Speed=32.580002m/h.</desc>
<speed>9.050001</speed>
</trkpt>
<trkpt lat="55.795822" lon="26.204231">
<ele>157.185669</ele>
<time>2010-07-17T12:15:13Z</time>
<desc>lat.=55.795822, lon.=26.204231, Alt.=157.185669m. Speed=32.147999m/h.</desc>
<speed>8.930000</speed>
</trkpt>
<trkpt lat="55.795895" lon="26.204153">
<ele>157.420044</ele>
<time>2010-07-17T12:15:14Z</time>
<desc>lat.=55.795895, lon.=26.204153, Alt.=157.420044m. Speed=34.164001m/h.</desc>
<speed>9.490000</speed>
</trkpt>
<trkpt lat="55.795982" lon="26.204094">
<ele>157.345825</ele>
<time>2010-07-17T12:15:15Z</time>
<desc>lat.=55.795982, lon.=26.204094, Alt.=157.345825m. Speed=37.764000m/h.</desc>
<speed>10.490000</speed>
</trkpt>
<trkpt lat="55.796070" lon="26.204039">
<ele>157.361450</ele>
<time>2010-07-17T12:15:16Z</time>
<desc>lat.=55.796070, lon.=26.204039, Alt.=157.361450m. Speed=38.844002m/h.</desc>
<speed>10.790000</speed>
</trkpt>
<trkpt lat="55.796169" lon="26.204025">
<ele>157.205200</ele>
<time>2010-07-17T12:15:17Z</time>
<desc>lat.=55.796169, lon.=26.204025, Alt.=157.205200m. Speed=39.672001m/h.</desc>
<speed>11.020000</speed>
</trkpt>
<trkpt lat="55.796268" lon="26.204020">
<ele>157.130981</ele>
<time>2010-07-17T12:15:18Z</time>
<desc>lat.=55.796268, lon.=26.204020, Alt.=157.130981m. Speed=38.304001m/h.</desc>
<speed>10.640000</speed>
</trkpt>
<trkpt lat="55.796364" lon="26.204006">
<ele>156.939575</ele>
<time>2010-07-17T12:15:19Z</time>
<desc>lat.=55.796364, lon.=26.204006, Alt.=156.939575m. Speed=38.124001m/h.</desc>
<speed>10.590000</speed>
</trkpt>
<trkpt lat="55.796459" lon="26.203991">
<ele>156.798950</ele>
<time>2010-07-17T12:15:20Z</time>
<desc>lat.=55.796459, lon.=26.203991, Alt.=156.798950m. Speed=37.944000m/h.</desc>
<speed>10.540000</speed>
</trkpt>
<trkpt lat="55.796551" lon="26.203970">
<ele>156.498169</ele>
<time>2010-07-17T12:15:21Z</time>
<desc>lat.=55.796551, lon.=26.203970, Alt.=156.498169m. Speed=36.576000m/h.</desc>
<speed>10.160000</speed>
</trkpt>
<trkpt lat="55.796631" lon="26.203955">
<ele>155.521606</ele>
<time>2010-07-17T12:15:22Z</time>
<desc>lat.=55.796631, lon.=26.203955, Alt.=155.521606m. Speed=32.004002m/h.</desc>
<speed>8.890000</speed>
</trkpt>
<trkpt lat="55.796707" lon="26.203926">
<ele>155.365356</ele>
<time>2010-07-17T12:15:23Z</time>
<desc>lat.=55.796707, lon.=26.203926, Alt.=155.365356m. Speed=30.708000m/h.</desc>
<speed>8.530000</speed>
</trkpt>
<trkpt lat="55.796787" lon="26.203890">
<ele>154.767700</ele>
<time>2010-07-17T12:15:24Z</time>
<desc>lat.=55.796787, lon.=26.203890, Alt.=154.767700m. Speed=30.851999m/h.</desc>
<speed>8.570000</speed>
</trkpt>
<trkpt lat="55.796860" lon="26.203854">
<ele>154.263794</ele>
<time>2010-07-17T12:15:25Z</time>
<desc>lat.=55.796860, lon.=26.203854, Alt.=154.263794m. Speed=32.183998m/h.</desc>
<speed>8.939999</speed>
</trkpt>
<trkpt lat="55.796944" lon="26.203810">
<ele>153.037231</ele>
<time>2010-07-17T12:15:26Z</time>
<desc>lat.=55.796944, lon.=26.203810, Alt.=153.037231m. Speed=35.532001m/h.</desc>
<speed>9.870000</speed>
</trkpt>
<trkpt lat="55.797031" lon="26.203762">
<ele>152.119263</ele>
<time>2010-07-17T12:15:27Z</time>
<desc>lat.=55.797031, lon.=26.203762, Alt.=152.119263m. Speed=37.152000m/h.</desc>
<speed>10.320000</speed>
</trkpt>
<trkpt lat="55.797131" lon="26.203711">
<ele>151.670044</ele>
<time>2010-07-17T12:15:28Z</time>
<desc>lat.=55.797131, lon.=26.203711, Alt.=151.670044m. Speed=39.240002m/h.</desc>
<speed>10.900000</speed>
</trkpt>
<trkpt lat="55.797226" lon="26.203665">
<ele>151.564575</ele>
<time>2010-07-17T12:15:29Z</time>
<desc>lat.=55.797226, lon.=26.203665, Alt.=151.564575m. Speed=38.520000m/h.</desc>
<speed>10.700000</speed>
</trkpt>
<trkpt lat="55.797321" lon="26.203617">
<ele>151.236450</ele>
<time>2010-07-17T12:15:30Z</time>
<desc>lat.=55.797321, lon.=26.203617, Alt.=151.236450m. Speed=39.096001m/h.</desc>
<speed>10.860000</speed>
</trkpt>
<trkpt lat="55.797413" lon="26.203566">
<ele>150.912231</ele>
<time>2010-07-17T12:15:31Z</time>
<desc>lat.=55.797413, lon.=26.203566, Alt.=150.912231m. Speed=39.312000m/h.</desc>
<speed>10.920000</speed>
</trkpt>
<trkpt lat="55.797516" lon="26.203524">
<ele>150.838013</ele>
<time>2010-07-17T12:15:32Z</time>
<desc>lat.=55.797516, lon.=26.203524, Alt.=150.838013m. Speed=40.175999m/h.</desc>
<speed>11.160000</speed>
</trkpt>
<trkpt lat="55.797611" lon="26.203472">
<ele>150.857544</ele>
<time>2010-07-17T12:15:33Z</time>
<desc>lat.=55.797611, lon.=26.203472, Alt.=150.857544m. Speed=40.068001m/h.</desc>
<speed>11.130000</speed>
</trkpt>
<trkpt lat="55.797707" lon="26.203413">
<ele>150.560669</ele>
<time>2010-07-17T12:15:34Z</time>
<desc>lat.=55.797707, lon.=26.203413, Alt.=150.560669m. Speed=40.248001m/h.</desc>
<speed>11.180000</speed>
</trkpt>
<trkpt lat="55.797802" lon="26.203344">
<ele>150.017700</ele>
<time>2010-07-17T12:15:35Z</time>
<desc>lat.=55.797802, lon.=26.203344, Alt.=150.017700m. Speed=40.608002m/h.</desc>
<speed>11.280000</speed>
</trkpt>
<trkpt lat="55.797897" lon="26.203279">
<ele>149.435669</ele>
<time>2010-07-17T12:15:36Z</time>
<desc>lat.=55.797897, lon.=26.203279, Alt.=149.435669m. Speed=39.959999m/h.</desc>
<speed>11.100000</speed>
</trkpt>
<trkpt lat="55.797993" lon="26.203224">
<ele>149.779419</ele>
<time>2010-07-17T12:15:37Z</time>
<desc>lat.=55.797993, lon.=26.203224, Alt.=149.779419m. Speed=39.203999m/h.</desc>
<speed>10.890000</speed>
</trkpt>
<trkpt lat="55.798088" lon="26.203169">
<ele>149.767700</ele>
<time>2010-07-17T12:15:38Z</time>
<desc>lat.=55.798088, lon.=26.203169, Alt.=149.767700m. Speed=38.448002m/h.</desc>
<speed>10.680001</speed>
</trkpt>
<trkpt lat="55.798180" lon="26.203108">
<ele>149.861450</ele>
<time>2010-07-17T12:15:39Z</time>
<desc>lat.=55.798180, lon.=26.203108, Alt.=149.861450m. Speed=38.051998m/h.</desc>
<speed>10.569999</speed>
</trkpt>
<trkpt lat="55.798271" lon="26.203054">
<ele>149.748169</ele>
<time>2010-07-17T12:15:40Z</time>
<desc>lat.=55.798271, lon.=26.203054, Alt.=149.748169m. Speed=37.548000m/h.</desc>
<speed>10.430000</speed>
</trkpt>
<trkpt lat="55.798359" lon="26.202995">
<ele>150.572388</ele>
<time>2010-07-17T12:15:41Z</time>
<desc>lat.=55.798359, lon.=26.202995, Alt.=150.572388m. Speed=36.720001m/h.</desc>
<speed>10.200000</speed>
</trkpt>
<trkpt lat="55.798443" lon="26.202942">
<ele>149.998169</ele>
<time>2010-07-17T12:15:42Z</time>
<desc>lat.=55.798443, lon.=26.202942, Alt.=149.998169m. Speed=34.271999m/h.</desc>
<speed>9.520000</speed>
</trkpt>
<trkpt lat="55.798523" lon="26.202888">
<ele>150.759888</ele>
<time>2010-07-17T12:15:43Z</time>
<desc>lat.=55.798523, lon.=26.202888, Alt.=150.759888m. Speed=33.155998m/h.</desc>
<speed>9.210000</speed>
</trkpt>
<trkpt lat="55.798595" lon="26.202837">
<ele>150.525513</ele>
<time>2010-07-17T12:15:44Z</time>
<desc>lat.=55.798595, lon.=26.202837, Alt.=150.525513m. Speed=29.844000m/h.</desc>
<speed>8.290000</speed>
</trkpt>
<trkpt lat="55.798668" lon="26.202793">
<ele>150.912231</ele>
<time>2010-07-17T12:15:45Z</time>
<desc>lat.=55.798668, lon.=26.202793, Alt.=150.912231m. Speed=28.476000m/h.</desc>
<speed>7.910000</speed>
</trkpt>
<trkpt lat="55.798733" lon="26.202761">
<ele>151.630981</ele>
<time>2010-07-17T12:15:46Z</time>
<desc>lat.=55.798733, lon.=26.202761, Alt.=151.630981m. Speed=24.408001m/h.</desc>
<speed>6.780000</speed>
</trkpt>
<trkpt lat="55.798786" lon="26.202736">
<ele>151.931763</ele>
<time>2010-07-17T12:15:47Z</time>
<desc>lat.=55.798786, lon.=26.202736, Alt.=151.931763m. Speed=20.736000m/h.</desc>
<speed>5.760000</speed>
</trkpt>
<trkpt lat="55.798847" lon="26.202700">
<ele>151.880981</ele>
<time>2010-07-17T12:15:48Z</time>
<desc>lat.=55.798847, lon.=26.202700, Alt.=151.880981m. Speed=23.760000m/h.</desc>
<speed>6.600000</speed>
</trkpt>
<trkpt lat="55.798897" lon="26.202673">
<ele>152.166138</ele>
<time>2010-07-17T12:15:49Z</time>
<desc>lat.=55.798897, lon.=26.202673, Alt.=152.166138m. Speed=20.304001m/h.</desc>
<speed>5.640000</speed>
</trkpt>
<trkpt lat="55.798954" lon="26.202642">
<ele>151.990356</ele>
<time>2010-07-17T12:15:50Z</time>
<desc>lat.=55.798954, lon.=26.202642, Alt.=151.990356m. Speed=23.436001m/h.</desc>
<speed>6.510000</speed>
</trkpt>
<trkpt lat="55.799004" lon="26.202608">
<ele>151.509888</ele>
<time>2010-07-17T12:15:51Z</time>
<desc>lat.=55.799004, lon.=26.202608, Alt.=151.509888m. Speed=27.396000m/h.</desc>
<speed>7.610000</speed>
</trkpt>
<trkpt lat="55.799061" lon="26.202566">
<ele>150.513794</ele>
<time>2010-07-17T12:15:52Z</time>
<desc>lat.=55.799061, lon.=26.202566, Alt.=150.513794m. Speed=26.028000m/h.</desc>
<speed>7.230000</speed>
</trkpt>
<trkpt lat="55.799118" lon="26.202526">
<ele>150.201294</ele>
<time>2010-07-17T12:15:53Z</time>
<desc>lat.=55.799118, lon.=26.202526, Alt.=150.201294m. Speed=26.459999m/h.</desc>
<speed>7.350000</speed>
</trkpt>
<trkpt lat="55.799187" lon="26.202484">
<ele>150.130981</ele>
<time>2010-07-17T12:15:54Z</time>
<desc>lat.=55.799187, lon.=26.202484, Alt.=150.130981m. Speed=28.836000m/h.</desc>
<speed>8.010000</speed>
</trkpt>
<trkpt lat="55.799255" lon="26.202435">
<ele>150.838013</ele>
<time>2010-07-17T12:15:55Z</time>
<desc>lat.=55.799255, lon.=26.202435, Alt.=150.838013m. Speed=28.115999m/h.</desc>
<speed>7.810000</speed>
</trkpt>
<trkpt lat="55.799320" lon="26.202383">
<ele>150.787231</ele>
<time>2010-07-17T12:15:56Z</time>
<desc>lat.=55.799320, lon.=26.202383, Alt.=150.787231m. Speed=28.691999m/h.</desc>
<speed>7.970000</speed>
</trkpt>
<trkpt lat="55.799385" lon="26.202324">
<ele>150.541138</ele>
<time>2010-07-17T12:15:57Z</time>
<desc>lat.=55.799385, lon.=26.202324, Alt.=150.541138m. Speed=29.591999m/h.</desc>
<speed>8.220000</speed>
</trkpt>
<trkpt lat="55.799450" lon="26.202269">
<ele>150.509888</ele>
<time>2010-07-17T12:15:58Z</time>
<desc>lat.=55.799450, lon.=26.202269, Alt.=150.509888m. Speed=28.332001m/h.</desc>
<speed>7.870000</speed>
</trkpt>
<trkpt lat="55.799511" lon="26.202211">
<ele>150.795044</ele>
<time>2010-07-17T12:15:59Z</time>
<desc>lat.=55.799511, lon.=26.202211, Alt.=150.795044m. Speed=25.704000m/h.</desc>
<speed>7.140000</speed>
</trkpt>
<trkpt lat="55.799568" lon="26.202156">
<ele>151.107544</ele>
<time>2010-07-17T12:16:00Z</time>
<desc>lat.=55.799568, lon.=26.202156, Alt.=151.107544m. Speed=25.812000m/h.</desc>
<speed>7.170000</speed>
</trkpt>
<trkpt lat="55.799622" lon="26.202103">
<ele>151.150513</ele>
<time>2010-07-17T12:16:01Z</time>
<desc>lat.=55.799622, lon.=26.202103, Alt.=151.150513m. Speed=25.091999m/h.</desc>
<speed>6.970000</speed>
</trkpt>
<trkpt lat="55.799675" lon="26.202051">
<ele>151.271606</ele>
<time>2010-07-17T12:16:02Z</time>
<desc>lat.=55.799675, lon.=26.202051, Alt.=151.271606m. Speed=21.312000m/h.</desc>
<speed>5.920000</speed>
</trkpt>
<trkpt lat="55.799721" lon="26.201994">
<ele>151.646606</ele>
<time>2010-07-17T12:16:03Z</time>
<desc>lat.=55.799721, lon.=26.201994, Alt.=151.646606m. Speed=21.167999m/h.</desc>
<speed>5.880000</speed>
</trkpt>
<trkpt lat="55.799770" lon="26.201929">
<ele>151.931763</ele>
<time>2010-07-17T12:16:04Z</time>
<desc>lat.=55.799770, lon.=26.201929, Alt.=151.931763m. Speed=21.204000m/h.</desc>
<speed>5.890000</speed>
</trkpt>
<trkpt lat="55.799820" lon="26.201870">
<ele>152.033325</ele>
<time>2010-07-17T12:16:05Z</time>
<desc>lat.=55.799820, lon.=26.201870, Alt.=152.033325m. Speed=19.908001m/h.</desc>
<speed>5.530000</speed>
</trkpt>
<trkpt lat="55.799858" lon="26.201817">
<ele>152.392700</ele>
<time>2010-07-17T12:16:06Z</time>
<desc>lat.=55.799858, lon.=26.201817, Alt.=152.392700m. Speed=20.232000m/h.</desc>
<speed>5.620000</speed>
</trkpt>
<trkpt lat="55.799896" lon="26.201754">
<ele>152.236450</ele>
<time>2010-07-17T12:16:07Z</time>
<desc>lat.=55.799896, lon.=26.201754, Alt.=152.236450m. Speed=19.799999m/h.</desc>
<speed>5.500000</speed>
</trkpt>
<trkpt lat="55.799934" lon="26.201691">
<ele>152.271606</ele>
<time>2010-07-17T12:16:08Z</time>
<desc>lat.=55.799934, lon.=26.201691, Alt.=152.271606m. Speed=20.052000m/h.</desc>
<speed>5.570000</speed>
</trkpt>
<trkpt lat="55.799973" lon="26.201626">
<ele>152.537231</ele>
<time>2010-07-17T12:16:09Z</time>
<desc>lat.=55.799973, lon.=26.201626, Alt.=152.537231m. Speed=19.691999m/h.</desc>
<speed>5.470000</speed>
</trkpt>
<trkpt lat="55.800007" lon="26.201563">
<ele>152.888794</ele>
<time>2010-07-17T12:16:10Z</time>
<desc>lat.=55.800007, lon.=26.201563, Alt.=152.888794m. Speed=19.115999m/h.</desc>
<speed>5.310000</speed>
</trkpt>
<trkpt lat="55.800041" lon="26.201500">
<ele>152.982544</ele>
<time>2010-07-17T12:16:11Z</time>
<desc>lat.=55.800041, lon.=26.201500, Alt.=152.982544m. Speed=19.188000m/h.</desc>
<speed>5.330000</speed>
</trkpt>
<trkpt lat="55.800076" lon="26.201435">
<ele>153.267700</ele>
<time>2010-07-17T12:16:12Z</time>
<desc>lat.=55.800076, lon.=26.201435, Alt.=153.267700m. Speed=18.431999m/h.</desc>
<speed>5.120000</speed>
</trkpt>
<trkpt lat="55.800106" lon="26.201374">
<ele>153.728638</ele>
<time>2010-07-17T12:16:13Z</time>
<desc>lat.=55.800106, lon.=26.201374, Alt.=153.728638m. Speed=17.496000m/h.</desc>
<speed>4.860000</speed>
</trkpt>
<trkpt lat="55.800133" lon="26.201317">
<ele>153.681763</ele>
<time>2010-07-17T12:16:14Z</time>
<desc>lat.=55.800133, lon.=26.201317, Alt.=153.681763m. Speed=16.848000m/h.</desc>
<speed>4.680000</speed>
</trkpt>
<trkpt lat="55.800163" lon="26.201263">
<ele>153.920044</ele>
<time>2010-07-17T12:16:15Z</time>
<desc>lat.=55.800163, lon.=26.201263, Alt.=153.920044m. Speed=15.840000m/h.</desc>
<speed>4.400000</speed>
</trkpt>
<trkpt lat="55.800190" lon="26.201204">
<ele>153.959106</ele>
<time>2010-07-17T12:16:16Z</time>
<desc>lat.=55.800190, lon.=26.201204, Alt.=153.959106m. Speed=14.544000m/h.</desc>
<speed>4.040000</speed>
</trkpt>
<trkpt lat="55.800209" lon="26.201155">
<ele>154.302856</ele>
<time>2010-07-17T12:16:17Z</time>
<desc>lat.=55.800209, lon.=26.201155, Alt.=154.302856m. Speed=12.924000m/h.</desc>
<speed>3.590000</speed>
</trkpt>
<trkpt lat="55.800228" lon="26.201109">
<ele>154.459106</ele>
<time>2010-07-17T12:16:18Z</time>
<desc>lat.=55.800228, lon.=26.201109, Alt.=154.459106m. Speed=12.024000m/h.</desc>
<speed>3.340000</speed>
</trkpt>
<trkpt lat="55.800243" lon="26.201069">
<ele>154.920044</ele>
<time>2010-07-17T12:16:19Z</time>
<desc>lat.=55.800243, lon.=26.201069, Alt.=154.920044m. Speed=10.152000m/h.</desc>
<speed>2.820000</speed>
</trkpt>
<trkpt lat="55.800255" lon="26.201040">
<ele>154.853638</ele>
<time>2010-07-17T12:16:20Z</time>
<desc>lat.=55.800255, lon.=26.201040, Alt.=154.853638m. Speed=6.156000m/h.</desc>
<speed>1.710000</speed>
</trkpt>
<trkpt lat="55.800255" lon="26.201031">
<ele>155.263794</ele>
<time>2010-07-17T12:16:21Z</time>
<desc>lat.=55.800255, lon.=26.201031, Alt.=155.263794m. Speed=0.576000m/h.</desc>
<speed>0.160000</speed>
</trkpt>
<trkpt lat="55.800251" lon="26.201029">
<ele>154.880981</ele>
<time>2010-07-17T12:16:22Z</time>
<desc>lat.=55.800251, lon.=26.201029, Alt.=154.880981m. Speed=0.576000m/h.</desc>
<speed>0.160000</speed>
</trkpt>
<trkpt lat="55.800251" lon="26.201029">
<ele>154.865356</ele>
<time>2010-07-17T12:16:23Z</time>
<desc>lat.=55.800251, lon.=26.201029, Alt.=154.865356m. Speed=0.540000m/h.</desc>
<speed>0.150000</speed>
</trkpt>
<trkpt lat="55.800255" lon="26.201038">
<ele>155.130981</ele>
<time>2010-07-17T12:16:24Z</time>
<desc>lat.=55.800255, lon.=26.201038, Alt.=155.130981m. Speed=0.144000m/h.</desc>
<speed>0.040000</speed>
</trkpt>
<trkpt lat="55.800255" lon="26.201038">
<ele>155.173950</ele>
<time>2010-07-17T12:16:25Z</time>
<desc>lat.=55.800255, lon.=26.201038, Alt.=155.173950m. Speed=0.288000m/h.</desc>
<speed>0.080000</speed>
</trkpt>
<trkpt lat="55.800255" lon="26.201038">
<ele>155.209106</ele>
<time>2010-07-17T12:16:26Z</time>
<desc>lat.=55.800255, lon.=26.201038, Alt.=155.209106m. Speed=0.180000m/h.</desc>
<speed>0.050000</speed>
</trkpt>
<trkpt lat="55.800255" lon="26.201038">
<ele>155.240356</ele>
<time>2010-07-17T12:16:27Z</time>
<desc>lat.=55.800255, lon.=26.201038, Alt.=155.240356m. Speed=0.324000m/h.</desc>
<speed>0.090000</speed>
</trkpt>
<trkpt lat="55.800255" lon="26.201040">
<ele>155.263794</ele>
<time>2010-07-17T12:16:28Z</time>
<desc>lat.=55.800255, lon.=26.201040, Alt.=155.263794m. Speed=0.144000m/h.</desc>
<speed>0.040000</speed>
</trkpt>
<trkpt lat="55.800255" lon="26.201040">
<ele>155.279419</ele>
<time>2010-07-17T12:16:29Z</time>
<desc>lat.=55.800255, lon.=26.201040, Alt.=155.279419m. Speed=0.252000m/h.</desc>
<speed>0.070000</speed>
</trkpt>
<trkpt lat="55.800259" lon="26.201042">
<ele>155.291138</ele>
<time>2010-07-17T12:16:30Z</time>
<desc>lat.=55.800259, lon.=26.201042, Alt.=155.291138m. Speed=0.396000m/h.</desc>
<speed>0.110000</speed>
</trkpt>
<trkpt lat="55.800259" lon="26.201044">
<ele>155.298950</ele>
<time>2010-07-17T12:16:31Z</time>
<desc>lat.=55.800259, lon.=26.201044, Alt.=155.298950m. Speed=0.324000m/h.</desc>
<speed>0.090000</speed>
</trkpt>
<trkpt lat="55.800259" lon="26.201046">
<ele>155.310669</ele>
<time>2010-07-17T12:16:32Z</time>
<desc>lat.=55.800259, lon.=26.201046, Alt.=155.310669m. Speed=0.036000m/h.</desc>
<speed>0.010000</speed>
</trkpt>
<trkpt lat="55.800259" lon="26.201046">
<ele>155.314575</ele>
<time>2010-07-17T12:16:33Z</time>
<desc>lat.=55.800259, lon.=26.201046, Alt.=155.314575m. Speed=0.360000m/h.</desc>
<speed>0.100000</speed>
</trkpt>
<trkpt lat="55.800259" lon="26.201048">
<ele>155.322388</ele>
<time>2010-07-17T12:16:34Z</time>
<desc>lat.=55.800259, lon.=26.201048, Alt.=155.322388m. Speed=0.216000m/h.</desc>
<speed>0.060000</speed>
</trkpt>
<trkpt lat="55.800259" lon="26.201048">
<ele>155.326294</ele>
<time>2010-07-17T12:16:35Z</time>
<desc>lat.=55.800259, lon.=26.201048, Alt.=155.326294m. Speed=0.288000m/h.</desc>
<speed>0.080000</speed>
</trkpt>
<trkpt lat="55.800259" lon="26.201046">
<ele>155.326294</ele>
<time>2010-07-17T12:16:36Z</time>
<desc>lat.=55.800259, lon.=26.201046, Alt.=155.326294m. Speed=0.288000m/h.</desc>
<speed>0.080000</speed>
</trkpt>
<trkpt lat="55.800259" lon="26.201046">
<ele>155.326294</ele>
<time>2010-07-17T12:16:37Z</time>
<desc>lat.=55.800259, lon.=26.201046, Alt.=155.326294m. Speed=0.180000m/h.</desc>
<speed>0.050000</speed>
</trkpt>
<trkpt lat="55.800259" lon="26.201048">
<ele>155.330200</ele>
<time>2010-07-17T12:16:38Z</time>
<desc>lat.=55.800259, lon.=26.201048, Alt.=155.330200m. Speed=0.072000m/h.</desc>
<speed>0.020000</speed>
</trkpt>
<trkpt lat="55.800259" lon="26.201048">
<ele>155.330200</ele>
<time>2010-07-17T12:16:39Z</time>
<desc>lat.=55.800259, lon.=26.201048, Alt.=155.330200m. Speed=0.288000m/h.</desc>
<speed>0.080000</speed>
</trkpt>
<trkpt lat="55.800259" lon="26.201050">
<ele>155.341919</ele>
<time>2010-07-17T12:16:40Z</time>
<desc>lat.=55.800259, lon.=26.201050, Alt.=155.341919m. Speed=0.360000m/h.</desc>
<speed>0.100000</speed>
</trkpt>
<trkpt lat="55.800259" lon="26.201048">
<ele>155.345825</ele>
<time>2010-07-17T12:16:41Z</time>
<desc>lat.=55.800259, lon.=26.201048, Alt.=155.345825m. Speed=0.000000m/h.</desc>
<speed>0.000000</speed>
</trkpt>
<trkpt lat="55.800259" lon="26.201048">
<ele>155.353638</ele>
<time>2010-07-17T12:16:42Z</time>
<desc>lat.=55.800259, lon.=26.201048, Alt.=155.353638m. Speed=0.252000m/h.</desc>
<speed>0.070000</speed>
</trkpt>
<trkpt lat="55.800259" lon="26.201048">
<ele>155.357544</ele>
<time>2010-07-17T12:16:43Z</time>
<desc>lat.=55.800259, lon.=26.201048, Alt.=155.357544m. Speed=0.252000m/h.</desc>
<speed>0.070000</speed>
</trkpt>
<trkpt lat="55.800259" lon="26.201050">
<ele>155.349731</ele>
<time>2010-07-17T12:16:44Z</time>
<desc>lat.=55.800259, lon.=26.201050, Alt.=155.349731m. Speed=0.180000m/h.</desc>
<speed>0.050000</speed>
</trkpt>
<trkpt lat="55.800259" lon="26.201048">
<ele>155.341919</ele>
<time>2010-07-17T12:16:45Z</time>
<desc>lat.=55.800259, lon.=26.201048, Alt.=155.341919m. Speed=0.036000m/h.</desc>
<speed>0.010000</speed>
</trkpt>
<trkpt lat="55.800259" lon="26.201048">
<ele>155.341919</ele>
<time>2010-07-17T12:16:46Z</time>
<desc>lat.=55.800259, lon.=26.201048, Alt.=155.341919m. Speed=0.072000m/h.</desc>
<speed>0.020000</speed>
</trkpt>
<trkpt lat="55.800259" lon="26.201050">
<ele>155.334106</ele>
<time>2010-07-17T12:16:47Z</time>
<desc>lat.=55.800259, lon.=26.201050, Alt.=155.334106m. Speed=0.036000m/h.</desc>
<speed>0.010000</speed>
</trkpt>
<trkpt lat="55.800259" lon="26.201050">
<ele>155.326294</ele>
<time>2010-07-17T12:16:48Z</time>
<desc>lat.=55.800259, lon.=26.201050, Alt.=155.326294m. Speed=0.072000m/h.</desc>
<speed>0.020000</speed>
</trkpt>
<trkpt lat="55.800259" lon="26.201048">
<ele>155.330200</ele>
<time>2010-07-17T12:16:49Z</time>
<desc>lat.=55.800259, lon.=26.201048, Alt.=155.330200m. Speed=0.144000m/h.</desc>
<speed>0.040000</speed>
</trkpt>
<trkpt lat="55.800259" lon="26.201050">
<ele>155.318481</ele>
<time>2010-07-17T12:16:50Z</time>
<desc>lat.=55.800259, lon.=26.201050, Alt.=155.318481m. Speed=0.000000m/h.</desc>
<speed>0.000000</speed>
</trkpt>
<trkpt lat="55.800259" lon="26.201050">
<ele>155.310669</ele>
<time>2010-07-17T12:16:51Z</time>
<desc>lat.=55.800259, lon.=26.201050, Alt.=155.310669m. Speed=0.036000m/h.</desc>
<speed>0.010000</speed>
</trkpt>
<trkpt lat="55.800259" lon="26.201050">
<ele>155.295044</ele>
<time>2010-07-17T12:16:52Z</time>
<desc>lat.=55.800259, lon.=26.201050, Alt.=155.295044m. Speed=0.036000m/h.</desc>
<speed>0.010000</speed>
</trkpt>
<trkpt lat="55.800259" lon="26.201050">
<ele>155.283325</ele>
<time>2010-07-17T12:16:53Z</time>
<desc>lat.=55.800259, lon.=26.201050, Alt.=155.283325m. Speed=0.036000m/h.</desc>
<speed>0.010000</speed>
</trkpt>
<trkpt lat="55.800259" lon="26.201050">
<ele>155.279419</ele>
<time>2010-07-17T12:16:54Z</time>
<desc>lat.=55.800259, lon.=26.201050, Alt.=155.279419m. Speed=0.108000m/h.</desc>
<speed>0.030000</speed>
</trkpt>
<trkpt lat="55.800259" lon="26.201050">
<ele>155.259888</ele>
<time>2010-07-17T12:16:55Z</time>
<desc>lat.=55.800259, lon.=26.201050, Alt.=155.259888m. Speed=0.072000m/h.</desc>
<speed>0.020000</speed>
</trkpt>
<trkpt lat="55.800259" lon="26.201050">
<ele>155.255981</ele>
<time>2010-07-17T12:16:56Z</time>
<desc>lat.=55.800259, lon.=26.201050, Alt.=155.255981m. Speed=0.000000m/h.</desc>
<speed>0.000000</speed>
</trkpt>
<trkpt lat="55.800259" lon="26.201050">
<ele>155.259888</ele>
<time>2010-07-17T12:16:57Z</time>
<desc>lat.=55.800259, lon.=26.201050, Alt.=155.259888m. Speed=0.000000m/h.</desc>
<speed>0.000000</speed>
</trkpt>
<trkpt lat="55.800259" lon="26.201050">
<ele>155.263794</ele>
<time>2010-07-17T12:16:58Z</time>
<desc>lat.=55.800259, lon.=26.201050, Alt.=155.263794m. Speed=0.000000m/h.</desc>
<speed>0.000000</speed>
</trkpt>
<trkpt lat="55.800259" lon="26.201050">
<ele>155.267700</ele>
<time>2010-07-17T12:16:59Z</time>
<desc>lat.=55.800259, lon.=26.201050, Alt.=155.267700m. Speed=0.036000m/h.</desc>
<speed>0.010000</speed>
</trkpt>
<trkpt lat="55.800259" lon="26.201050">
<ele>155.267700</ele>
<time>2010-07-17T12:17:00Z</time>
<desc>lat.=55.800259, lon.=26.201050, Alt.=155.267700m. Speed=0.000000m/h.</desc>
<speed>0.000000</speed>
</trkpt>
<trkpt lat="55.800259" lon="26.201050">
<ele>155.275513</ele>
<time>2010-07-17T12:17:01Z</time>
<desc>lat.=55.800259, lon.=26.201050, Alt.=155.275513m. Speed=0.036000m/h.</desc>
<speed>0.010000</speed>
</trkpt>
<trkpt lat="55.800259" lon="26.201050">
<ele>155.271606</ele>
<time>2010-07-17T12:17:02Z</time>
<desc>lat.=55.800259, lon.=26.201050, Alt.=155.271606m. Speed=0.000000m/h.</desc>
<speed>0.000000</speed>
</trkpt>
<trkpt lat="55.800259" lon="26.201050">
<ele>155.271606</ele>
<time>2010-07-17T12:17:03Z</time>
<desc>lat.=55.800259, lon.=26.201050, Alt.=155.271606m. Speed=0.036000m/h.</desc>
<speed>0.010000</speed>
</trkpt>
<trkpt lat="55.800259" lon="26.201050">
<ele>155.275513</ele>
<time>2010-07-17T12:17:04Z</time>
<desc>lat.=55.800259, lon.=26.201050, Alt.=155.275513m. Speed=0.000000m/h.</desc>
<speed>0.000000</speed>
</trkpt>
<trkpt lat="55.800259" lon="26.201050">
<ele>155.275513</ele>
<time>2010-07-17T12:17:05Z</time>
<desc>lat.=55.800259, lon.=26.201050, Alt.=155.275513m. Speed=0.144000m/h.</desc>
<speed>0.040000</speed>
</trkpt>
<trkpt lat="55.800259" lon="26.201050">
<ele>155.287231</ele>
<time>2010-07-17T12:17:06Z</time>
<desc>lat.=55.800259, lon.=26.201050, Alt.=155.287231m. Speed=0.108000m/h.</desc>
<speed>0.030000</speed>
</trkpt>
<trkpt lat="55.800259" lon="26.201050">
<ele>155.283325</ele>
<time>2010-07-17T12:17:07Z</time>
<desc>lat.=55.800259, lon.=26.201050, Alt.=155.283325m. Speed=0.108000m/h.</desc>
<speed>0.030000</speed>
</trkpt>
<trkpt lat="55.800259" lon="26.201050">
<ele>155.279419</ele>
<time>2010-07-17T12:17:08Z</time>
<desc>lat.=55.800259, lon.=26.201050, Alt.=155.279419m. Speed=0.036000m/h.</desc>
<speed>0.010000</speed>
</trkpt>
<trkpt lat="55.800259" lon="26.201050">
<ele>155.275513</ele>
<time>2010-07-17T12:17:09Z</time>
<desc>lat.=55.800259, lon.=26.201050, Alt.=155.275513m. Speed=0.108000m/h.</desc>
<speed>0.030000</speed>
</trkpt>
<trkpt lat="55.800259" lon="26.201050">
<ele>155.267700</ele>
<time>2010-07-17T12:17:10Z</time>
<desc>lat.=55.800259, lon.=26.201050, Alt.=155.267700m. Speed=0.180000m/h.</desc>
<speed>0.050000</speed>
</trkpt>
<trkpt lat="55.800259" lon="26.201050">
<ele>155.259888</ele>
<time>2010-07-17T12:17:11Z</time>
<desc>lat.=55.800259, lon.=26.201050, Alt.=155.259888m. Speed=0.432000m/h.</desc>
<speed>0.120000</speed>
</trkpt>
<trkpt lat="55.800259" lon="26.201048">
<ele>155.248169</ele>
<time>2010-07-17T12:17:12Z</time>
<desc>lat.=55.800259, lon.=26.201048, Alt.=155.248169m. Speed=2.412000m/h.</desc>
<speed>0.670000</speed>
</trkpt>
<trkpt lat="55.800259" lon="26.201038">
<ele>155.220825</ele>
<time>2010-07-17T12:17:13Z</time>
<desc>lat.=55.800259, lon.=26.201038, Alt.=155.220825m. Speed=14.220000m/h.</desc>
<speed>3.950000</speed>
</trkpt>
<trkpt lat="55.800289" lon="26.200970">
<ele>155.185669</ele>
<time>2010-07-17T12:17:14Z</time>
<desc>lat.=55.800289, lon.=26.200970, Alt.=155.185669m. Speed=20.520000m/h.</desc>
<speed>5.700000</speed>
</trkpt>
<trkpt lat="55.800335" lon="26.200884">
<ele>155.189575</ele>
<time>2010-07-17T12:17:15Z</time>
<desc>lat.=55.800335, lon.=26.200884, Alt.=155.189575m. Speed=24.840000m/h.</desc>
<speed>6.900000</speed>
</trkpt>
<trkpt lat="55.800377" lon="26.200788">
<ele>154.826294</ele>
<time>2010-07-17T12:17:16Z</time>
<desc>lat.=55.800377, lon.=26.200788, Alt.=154.826294m. Speed=25.308001m/h.</desc>
<speed>7.030000</speed>
</trkpt>
<trkpt lat="55.800423" lon="26.200693">
<ele>154.818481</ele>
<time>2010-07-17T12:17:17Z</time>
<desc>lat.=55.800423, lon.=26.200693, Alt.=154.818481m. Speed=27.072001m/h.</desc>
<speed>7.520000</speed>
</trkpt>
<trkpt lat="55.800472" lon="26.200590">
<ele>154.880981</ele>
<time>2010-07-17T12:17:18Z</time>
<desc>lat.=55.800472, lon.=26.200590, Alt.=154.880981m. Speed=28.188000m/h.</desc>
<speed>7.830000</speed>
</trkpt>
<trkpt lat="55.800526" lon="26.200487">
<ele>154.728638</ele>
<time>2010-07-17T12:17:19Z</time>
<desc>lat.=55.800526, lon.=26.200487, Alt.=154.728638m. Speed=29.052000m/h.</desc>
<speed>8.070000</speed>
</trkpt>
<trkpt lat="55.800583" lon="26.200386">
<ele>154.685669</ele>
<time>2010-07-17T12:17:20Z</time>
<desc>lat.=55.800583, lon.=26.200386, Alt.=154.685669m. Speed=29.160000m/h.</desc>
<speed>8.100000</speed>
</trkpt>
<trkpt lat="55.800632" lon="26.200285">
<ele>154.728638</ele>
<time>2010-07-17T12:17:21Z</time>
<desc>lat.=55.800632, lon.=26.200285, Alt.=154.728638m. Speed=28.440001m/h.</desc>
<speed>7.900000</speed>
</trkpt>
<trkpt lat="55.800682" lon="26.200188">
<ele>154.607544</ele>
<time>2010-07-17T12:17:22Z</time>
<desc>lat.=55.800682, lon.=26.200188, Alt.=154.607544m. Speed=28.188000m/h.</desc>
<speed>7.830000</speed>
</trkpt>
<trkpt lat="55.800732" lon="26.200092">
<ele>154.529419</ele>
<time>2010-07-17T12:17:23Z</time>
<desc>lat.=55.800732, lon.=26.200092, Alt.=154.529419m. Speed=27.468000m/h.</desc>
<speed>7.630000</speed>
</trkpt>
<trkpt lat="55.800777" lon="26.199997">
<ele>154.521606</ele>
<time>2010-07-17T12:17:24Z</time>
<desc>lat.=55.800777, lon.=26.199997, Alt.=154.521606m. Speed=27.468000m/h.</desc>
<speed>7.630000</speed>
</trkpt>
<trkpt lat="55.800827" lon="26.199905">
<ele>154.611450</ele>
<time>2010-07-17T12:17:25Z</time>
<desc>lat.=55.800827, lon.=26.199905, Alt.=154.611450m. Speed=27.900000m/h.</desc>
<speed>7.750000</speed>
</trkpt>
<trkpt lat="55.800877" lon="26.199812">
<ele>153.775513</ele>
<time>2010-07-17T12:17:26Z</time>
<desc>lat.=55.800877, lon.=26.199812, Alt.=153.775513m. Speed=27.648001m/h.</desc>
<speed>7.680000</speed>
</trkpt>
<trkpt lat="55.800930" lon="26.199717">
<ele>153.982544</ele>
<time>2010-07-17T12:17:27Z</time>
<desc>lat.=55.800930, lon.=26.199717, Alt.=153.982544m. Speed=27.252001m/h.</desc>
<speed>7.570000</speed>
</trkpt>
<trkpt lat="55.800976" lon="26.199623">
<ele>154.416138</ele>
<time>2010-07-17T12:17:28Z</time>
<desc>lat.=55.800976, lon.=26.199623, Alt.=154.416138m. Speed=25.020000m/h.</desc>
<speed>6.950000</speed>
</trkpt>
<trkpt lat="55.801018" lon="26.199539">
<ele>154.670044</ele>
<time>2010-07-17T12:17:29Z</time>
<desc>lat.=55.801018, lon.=26.199539, Alt.=154.670044m. Speed=22.788000m/h.</desc>
<speed>6.330000</speed>
</trkpt>
<trkpt lat="55.801060" lon="26.199461">
<ele>154.900513</ele>
<time>2010-07-17T12:17:30Z</time>
<desc>lat.=55.801060, lon.=26.199461, Alt.=154.900513m. Speed=21.851999m/h.</desc>
<speed>6.070000</speed>
</trkpt>
<trkpt lat="55.801098" lon="26.199385">
<ele>154.963013</ele>
<time>2010-07-17T12:17:31Z</time>
<desc>lat.=55.801098, lon.=26.199385, Alt.=154.963013m. Speed=22.212000m/h.</desc>
<speed>6.170000</speed>
</trkpt>
<trkpt lat="55.801136" lon="26.199310">
<ele>155.295044</ele>
<time>2010-07-17T12:17:32Z</time>
<desc>lat.=55.801136, lon.=26.199310, Alt.=155.295044m. Speed=22.247999m/h.</desc>
<speed>6.180000</speed>
</trkpt>
<trkpt lat="55.801182" lon="26.199230">
<ele>155.240356</ele>
<time>2010-07-17T12:17:33Z</time>
<desc>lat.=55.801182, lon.=26.199230, Alt.=155.240356m. Speed=25.775999m/h.</desc>
<speed>7.160000</speed>
</trkpt>
<trkpt lat="55.801228" lon="26.199139">
<ele>154.986450</ele>
<time>2010-07-17T12:17:34Z</time>
<desc>lat.=55.801228, lon.=26.199139, Alt.=154.986450m. Speed=28.548000m/h.</desc>
<speed>7.930000</speed>
</trkpt>
<trkpt lat="55.801289" lon="26.199034">
<ele>155.009888</ele>
<time>2010-07-17T12:17:34Z</time>
<desc>lat.=55.801289, lon.=26.199034, Alt.=155.009888m. Speed=31.032000m/h.</desc>
<speed>8.620000</speed>
</trkpt>
<trkpt lat="55.801353" lon="26.198919">
<ele>154.994263</ele>
<time>2010-07-17T12:17:36Z</time>
<desc>lat.=55.801353, lon.=26.198919, Alt.=154.994263m. Speed=33.695999m/h.</desc>
<speed>9.360000</speed>
</trkpt>
<trkpt lat="55.801422" lon="26.198807">
<ele>155.197388</ele>
<time>2010-07-17T12:17:37Z</time>
<desc>lat.=55.801422, lon.=26.198807, Alt.=155.197388m. Speed=34.632000m/h.</desc>
<speed>9.620000</speed>
</trkpt>
<trkpt lat="55.801491" lon="26.198694">
<ele>154.943481</ele>
<time>2010-07-17T12:17:38Z</time>
<desc>lat.=55.801491, lon.=26.198694, Alt.=154.943481m. Speed=34.416000m/h.</desc>
<speed>9.560000</speed>
</trkpt>
<trkpt lat="55.801552" lon="26.198589">
<ele>152.970825</ele>
<time>2010-07-17T12:17:39Z</time>
<desc>lat.=55.801552, lon.=26.198589, Alt.=152.970825m. Speed=32.112000m/h.</desc>
<speed>8.920000</speed>
</trkpt>
<trkpt lat="55.801609" lon="26.198490">
<ele>152.470825</ele>
<time>2010-07-17T12:17:40Z</time>
<desc>lat.=55.801609, lon.=26.198490, Alt.=152.470825m. Speed=26.747999m/h.</desc>
<speed>7.430000</speed>
</trkpt>
<trkpt lat="55.801662" lon="26.198399">
<ele>152.494263</ele>
<time>2010-07-17T12:17:41Z</time>
<desc>lat.=55.801662, lon.=26.198399, Alt.=152.494263m. Speed=29.268000m/h.</desc>
<speed>8.130000</speed>
</trkpt>
<trkpt lat="55.801720" lon="26.198313">
<ele>152.681763</ele>
<time>2010-07-17T12:17:42Z</time>
<desc>lat.=55.801720, lon.=26.198313, Alt.=152.681763m. Speed=27.143999m/h.</desc>
<speed>7.540000</speed>
</trkpt>
<trkpt lat="55.801773" lon="26.198204">
<ele>152.505981</ele>
<time>2010-07-17T12:17:43Z</time>
<desc>lat.=55.801773, lon.=26.198204, Alt.=152.505981m. Speed=31.247999m/h.</desc>
<speed>8.680000</speed>
</trkpt>
<trkpt lat="55.801830" lon="26.198095">
<ele>151.904419</ele>
<time>2010-07-17T12:17:44Z</time>
<desc>lat.=55.801830, lon.=26.198095, Alt.=151.904419m. Speed=32.472000m/h.</desc>
<speed>9.020000</speed>
</trkpt>
<trkpt lat="55.801888" lon="26.197983">
<ele>151.693481</ele>
<time>2010-07-17T12:17:45Z</time>
<desc>lat.=55.801888, lon.=26.197983, Alt.=151.693481m. Speed=33.408001m/h.</desc>
<speed>9.280000</speed>
</trkpt>
<trkpt lat="55.801952" lon="26.197866">
<ele>151.877075</ele>
<time>2010-07-17T12:17:46Z</time>
<desc>lat.=55.801952, lon.=26.197866, Alt.=151.877075m. Speed=33.875999m/h.</desc>
<speed>9.410000</speed>
</trkpt>
<trkpt lat="55.802010" lon="26.197754">
<ele>151.658325</ele>
<time>2010-07-17T12:17:47Z</time>
<desc>lat.=55.802010, lon.=26.197754, Alt.=151.658325m. Speed=32.939999m/h.</desc>
<speed>9.150000</speed>
</trkpt>
<trkpt lat="55.802071" lon="26.197636">
<ele>151.607544</ele>
<time>2010-07-17T12:17:48Z</time>
<desc>lat.=55.802071, lon.=26.197636, Alt.=151.607544m. Speed=33.804001m/h.</desc>
<speed>9.390000</speed>
</trkpt>
<trkpt lat="55.802128" lon="26.197525">
<ele>151.869263</ele>
<time>2010-07-17T12:17:49Z</time>
<desc>lat.=55.802128, lon.=26.197525, Alt.=151.869263m. Speed=31.931999m/h.</desc>
<speed>8.870000</speed>
</trkpt>
<trkpt lat="55.802177" lon="26.197411">
<ele>151.966919</ele>
<time>2010-07-17T12:17:50Z</time>
<desc>lat.=55.802177, lon.=26.197411, Alt.=151.966919m. Speed=31.247999m/h.</desc>
<speed>8.680000</speed>
</trkpt>
<trkpt lat="55.802227" lon="26.197302">
<ele>151.857544</ele>
<time>2010-07-17T12:17:51Z</time>
<desc>lat.=55.802227, lon.=26.197302, Alt.=151.857544m. Speed=31.032000m/h.</desc>
<speed>8.620000</speed>
</trkpt>
<trkpt lat="55.802280" lon="26.197191">
<ele>151.541138</ele>
<time>2010-07-17T12:17:52Z</time>
<desc>lat.=55.802280, lon.=26.197191, Alt.=151.541138m. Speed=31.896000m/h.</desc>
<speed>8.860000</speed>
</trkpt>
<trkpt lat="55.802326" lon="26.197083">
<ele>151.341919</ele>
<time>2010-07-17T12:17:53Z</time>
<desc>lat.=55.802326, lon.=26.197083, Alt.=151.341919m. Speed=32.004002m/h.</desc>
<speed>8.890000</speed>
</trkpt>
<trkpt lat="55.802376" lon="26.196972">
<ele>151.181763</ele>
<time>2010-07-17T12:17:54Z</time>
<desc>lat.=55.802376, lon.=26.196972, Alt.=151.181763m. Speed=30.743999m/h.</desc>
<speed>8.540000</speed>
</trkpt>
<trkpt lat="55.802429" lon="26.196856">
<ele>150.966919</ele>
<time>2010-07-17T12:17:55Z</time>
<desc>lat.=55.802429, lon.=26.196856, Alt.=150.966919m. Speed=31.320000m/h.</desc>
<speed>8.700000</speed>
</trkpt>
<trkpt lat="55.802479" lon="26.196741">
<ele>150.849731</ele>
<time>2010-07-17T12:17:56Z</time>
<desc>lat.=55.802479, lon.=26.196741, Alt.=150.849731m. Speed=30.851999m/h.</desc>
<speed>8.570000</speed>
</trkpt>
<trkpt lat="55.802532" lon="26.196632">
<ele>150.607544</ele>
<time>2010-07-17T12:17:57Z</time>
<desc>lat.=55.802532, lon.=26.196632, Alt.=150.607544m. Speed=31.139999m/h.</desc>
<speed>8.650000</speed>
</trkpt>
<trkpt lat="55.802578" lon="26.196520">
<ele>151.002075</ele>
<time>2010-07-17T12:17:58Z</time>
<desc>lat.=55.802578, lon.=26.196520, Alt.=151.002075m. Speed=30.348000m/h.</desc>
<speed>8.430000</speed>
</trkpt>
<trkpt lat="55.802628" lon="26.196415">
<ele>151.259888</ele>
<time>2010-07-17T12:17:59Z</time>
<desc>lat.=55.802628, lon.=26.196415, Alt.=151.259888m. Speed=29.483999m/h.</desc>
<speed>8.190000</speed>
</trkpt>
<trkpt lat="55.802677" lon="26.196310">
<ele>150.978638</ele>
<time>2010-07-17T12:18:00Z</time>
<desc>lat.=55.802677, lon.=26.196310, Alt.=150.978638m. Speed=28.980000m/h.</desc>
<speed>8.050000</speed>
</trkpt>
<trkpt lat="55.802723" lon="26.196209">
<ele>151.041138</ele>
<time>2010-07-17T12:18:01Z</time>
<desc>lat.=55.802723, lon.=26.196209, Alt.=151.041138m. Speed=27.360001m/h.</desc>
<speed>7.600000</speed>
</trkpt>
<trkpt lat="55.802769" lon="26.196115">
<ele>151.197388</ele>
<time>2010-07-17T12:18:02Z</time>
<desc>lat.=55.802769, lon.=26.196115, Alt.=151.197388m. Speed=26.784000m/h.</desc>
<speed>7.440000</speed>
</trkpt>
<trkpt lat="55.802814" lon="26.196032">
<ele>151.091919</ele>
<time>2010-07-17T12:18:03Z</time>
<desc>lat.=55.802814, lon.=26.196032, Alt.=151.091919m. Speed=26.639999m/h.</desc>
<speed>7.400000</speed>
</trkpt>
<trkpt lat="55.802856" lon="26.195944">
<ele>151.177856</ele>
<time>2010-07-17T12:18:04Z</time>
<desc>lat.=55.802856, lon.=26.195944, Alt.=151.177856m. Speed=25.128000m/h.</desc>
<speed>6.980000</speed>
</trkpt>
<trkpt lat="55.802895" lon="26.195864">
<ele>151.306763</ele>
<time>2010-07-17T12:18:05Z</time>
<desc>lat.=55.802895, lon.=26.195864, Alt.=151.306763m. Speed=21.924000m/h.</desc>
<speed>6.090000</speed>
</trkpt>
<trkpt lat="55.802929" lon="26.195784">
<ele>151.396606</ele>
<time>2010-07-17T12:18:06Z</time>
<desc>lat.=55.802929, lon.=26.195784, Alt.=151.396606m. Speed=21.420000m/h.</desc>
<speed>5.950000</speed>
</trkpt>
<trkpt lat="55.802959" lon="26.195705">
<ele>151.509888</ele>
<time>2010-07-17T12:18:07Z</time>
<desc>lat.=55.802959, lon.=26.195705, Alt.=151.509888m. Speed=21.959999m/h.</desc>
<speed>6.100000</speed>
</trkpt>
<trkpt lat="55.802990" lon="26.195631">
<ele>151.552856</ele>
<time>2010-07-17T12:18:08Z</time>
<desc>lat.=55.802990, lon.=26.195631, Alt.=151.552856m. Speed=20.448000m/h.</desc>
<speed>5.680000</speed>
</trkpt>
<trkpt lat="55.803013" lon="26.195549">
<ele>151.611450</ele>
<time>2010-07-17T12:18:09Z</time>
<desc>lat.=55.803013, lon.=26.195549, Alt.=151.611450m. Speed=20.340000m/h.</desc>
<speed>5.650000</speed>
</trkpt>
<trkpt lat="55.803040" lon="26.195465">
<ele>151.775513</ele>
<time>2010-07-17T12:18:10Z</time>
<desc>lat.=55.803040, lon.=26.195465, Alt.=151.775513m. Speed=20.771999m/h.</desc>
<speed>5.770000</speed>
</trkpt>
<trkpt lat="55.803055" lon="26.195389">
<ele>151.611450</ele>
<time>2010-07-17T12:18:11Z</time>
<desc>lat.=55.803055, lon.=26.195389, Alt.=151.611450m. Speed=21.600000m/h.</desc>
<speed>6.000000</speed>
</trkpt>
<trkpt lat="55.803082" lon="26.195276">
<ele>151.845825</ele>
<time>2010-07-17T12:18:12Z</time>
<desc>lat.=55.803082, lon.=26.195276, Alt.=151.845825m. Speed=20.952000m/h.</desc>
<speed>5.820000</speed>
</trkpt>
<trkpt lat="55.803104" lon="26.195177">
<ele>152.060669</ele>
<time>2010-07-17T12:18:13Z</time>
<desc>lat.=55.803104, lon.=26.195177, Alt.=152.060669m. Speed=20.052000m/h.</desc>
<speed>5.570000</speed>
</trkpt>
<trkpt lat="55.803116" lon="26.195091">
<ele>152.213013</ele>
<time>2010-07-17T12:18:14Z</time>
<desc>lat.=55.803116, lon.=26.195091, Alt.=152.213013m. Speed=18.504000m/h.</desc>
<speed>5.140000</speed>
</trkpt>
<trkpt lat="55.803123" lon="26.194998">
<ele>152.318481</ele>
<time>2010-07-17T12:18:15Z</time>
<desc>lat.=55.803123, lon.=26.194998, Alt.=152.318481m. Speed=18.540001m/h.</desc>
<speed>5.150000</speed>
</trkpt>
<trkpt lat="55.803127" lon="26.194921">
<ele>152.302856</ele>
<time>2010-07-17T12:18:16Z</time>
<desc>lat.=55.803127, lon.=26.194921, Alt.=152.302856m. Speed=16.920000m/h.</desc>
<speed>4.700000</speed>
</trkpt>
<trkpt lat="55.803135" lon="26.194841">
<ele>152.560669</ele>
<time>2010-07-17T12:18:17Z</time>
<desc>lat.=55.803135, lon.=26.194841, Alt.=152.560669m. Speed=17.028000m/h.</desc>
<speed>4.730000</speed>
</trkpt>
<trkpt lat="55.803139" lon="26.194765">
<ele>152.670044</ele>
<time>2010-07-17T12:18:18Z</time>
<desc>lat.=55.803139, lon.=26.194765, Alt.=152.670044m. Speed=16.271999m/h.</desc>
<speed>4.520000</speed>
</trkpt>
<trkpt lat="55.803135" lon="26.194696">
<ele>152.533325</ele>
<time>2010-07-17T12:18:19Z</time>
<desc>lat.=55.803135, lon.=26.194696, Alt.=152.533325m. Speed=14.796000m/h.</desc>
<speed>4.110000</speed>
</trkpt>
<trkpt lat="55.803127" lon="26.194628">
<ele>152.298950</ele>
<time>2010-07-17T12:18:20Z</time>
<desc>lat.=55.803127, lon.=26.194628, Alt.=152.298950m. Speed=14.328000m/h.</desc>
<speed>3.980000</speed>
</trkpt>
<trkpt lat="55.803116" lon="26.194546">
<ele>152.365356</ele>
<time>2010-07-17T12:18:21Z</time>
<desc>lat.=55.803116, lon.=26.194546, Alt.=152.365356m. Speed=15.372000m/h.</desc>
<speed>4.270000</speed>
</trkpt>
<trkpt lat="55.803112" lon="26.194471">
<ele>152.361450</ele>
<time>2010-07-17T12:18:22Z</time>
<desc>lat.=55.803112, lon.=26.194471, Alt.=152.361450m. Speed=16.667999m/h.</desc>
<speed>4.630000</speed>
</trkpt>
<trkpt lat="55.803112" lon="26.194397">
<ele>152.201294</ele>
<time>2010-07-17T12:18:23Z</time>
<desc>lat.=55.803112, lon.=26.194397, Alt.=152.201294m. Speed=16.488001m/h.</desc>
<speed>4.580000</speed>
</trkpt>
<trkpt lat="55.803112" lon="26.194328">
<ele>152.170044</ele>
<time>2010-07-17T12:18:24Z</time>
<desc>lat.=55.803112, lon.=26.194328, Alt.=152.170044m. Speed=15.732000m/h.</desc>
<speed>4.370000</speed>
</trkpt>
<trkpt lat="55.803112" lon="26.194262">
<ele>151.853638</ele>
<time>2010-07-17T12:18:25Z</time>
<desc>lat.=55.803112, lon.=26.194262, Alt.=151.853638m. Speed=16.128000m/h.</desc>
<speed>4.480000</speed>
</trkpt>
<trkpt lat="55.803108" lon="26.194189">
<ele>151.853638</ele>
<time>2010-07-17T12:18:26Z</time>
<desc>lat.=55.803108, lon.=26.194189, Alt.=151.853638m. Speed=16.308001m/h.</desc>
<speed>4.530000</speed>
</trkpt>
<trkpt lat="55.803112" lon="26.194109">
<ele>152.119263</ele>
<time>2010-07-17T12:18:27Z</time>
<desc>lat.=55.803112, lon.=26.194109, Alt.=152.119263m. Speed=16.236000m/h.</desc>
<speed>4.510000</speed>
</trkpt>
<trkpt lat="55.803108" lon="26.194035">
<ele>151.951294</ele>
<time>2010-07-17T12:18:28Z</time>
<desc>lat.=55.803108, lon.=26.194035, Alt.=151.951294m. Speed=15.876000m/h.</desc>
<speed>4.410000</speed>
</trkpt>
<trkpt lat="55.803112" lon="26.193958">
<ele>152.298950</ele>
<time>2010-07-17T12:18:29Z</time>
<desc>lat.=55.803112, lon.=26.193958, Alt.=152.298950m. Speed=15.948000m/h.</desc>
<speed>4.430000</speed>
</trkpt>
<trkpt lat="55.803120" lon="26.193888">
<ele>152.689575</ele>
<time>2010-07-17T12:18:30Z</time>
<desc>lat.=55.803120, lon.=26.193888, Alt.=152.689575m. Speed=14.796000m/h.</desc>
<speed>4.110000</speed>
</trkpt>
<trkpt lat="55.803131" lon="26.193821">
<ele>152.857544</ele>
<time>2010-07-17T12:18:31Z</time>
<desc>lat.=55.803131, lon.=26.193821, Alt.=152.857544m. Speed=14.508000m/h.</desc>
<speed>4.030000</speed>
</trkpt>
<trkpt lat="55.803139" lon="26.193762">
<ele>152.884888</ele>
<time>2010-07-17T12:18:32Z</time>
<desc>lat.=55.803139, lon.=26.193762, Alt.=152.884888m. Speed=14.328000m/h.</desc>
<speed>3.980000</speed>
</trkpt>
<trkpt lat="55.803154" lon="26.193697">
<ele>153.076294</ele>
<time>2010-07-17T12:18:33Z</time>
<desc>lat.=55.803154, lon.=26.193697, Alt.=153.076294m. Speed=13.140000m/h.</desc>
<speed>3.650000</speed>
</trkpt>
<trkpt lat="55.803169" lon="26.193638">
<ele>153.373169</ele>
<time>2010-07-17T12:18:34Z</time>
<desc>lat.=55.803169, lon.=26.193638, Alt.=153.373169m. Speed=12.492000m/h.</desc>
<speed>3.470000</speed>
</trkpt>
<trkpt lat="55.803173" lon="26.193590">
<ele>153.052856</ele>
<time>2010-07-17T12:18:35Z</time>
<desc>lat.=55.803173, lon.=26.193590, Alt.=153.052856m. Speed=12.744000m/h.</desc>
<speed>3.540000</speed>
</trkpt>
<trkpt lat="55.803173" lon="26.193535">
<ele>152.377075</ele>
<time>2010-07-17T12:18:36Z</time>
<desc>lat.=55.803173, lon.=26.193535, Alt.=152.377075m. Speed=12.132000m/h.</desc>
<speed>3.370000</speed>
</trkpt>
<trkpt lat="55.803188" lon="26.193487">
<ele>150.904419</ele>
<time>2010-07-17T12:18:37Z</time>
<desc>lat.=55.803188, lon.=26.193487, Alt.=150.904419m. Speed=12.060000m/h.</desc>
<speed>3.350000</speed>
</trkpt>
<trkpt lat="55.803207" lon="26.193441">
<ele>151.595825</ele>
<time>2010-07-17T12:18:38Z</time>
<desc>lat.=55.803207, lon.=26.193441, Alt.=151.595825m. Speed=12.852000m/h.</desc>
<speed>3.570000</speed>
</trkpt>
<trkpt lat="55.803226" lon="26.193394">
<ele>151.759888</ele>
<time>2010-07-17T12:18:39Z</time>
<desc>lat.=55.803226, lon.=26.193394, Alt.=151.759888m. Speed=11.952000m/h.</desc>
<speed>3.320000</speed>
</trkpt>
<trkpt lat="55.803242" lon="26.193348">
<ele>151.912231</ele>
<time>2010-07-17T12:18:40Z</time>
<desc>lat.=55.803242, lon.=26.193348, Alt.=151.912231m. Speed=13.104000m/h.</desc>
<speed>3.640000</speed>
</trkpt>
<trkpt lat="55.803261" lon="26.193296">
<ele>152.002075</ele>
<time>2010-07-17T12:18:41Z</time>
<desc>lat.=55.803261, lon.=26.193296, Alt.=152.002075m. Speed=12.960000m/h.</desc>
<speed>3.600000</speed>
</trkpt>
<trkpt lat="55.803280" lon="26.193249">
<ele>151.963013</ele>
<time>2010-07-17T12:18:42Z</time>
<desc>lat.=55.803280, lon.=26.193249, Alt.=151.963013m. Speed=13.068000m/h.</desc>
<speed>3.630000</speed>
</trkpt>
<trkpt lat="55.803299" lon="26.193201">
<ele>151.959106</ele>
<time>2010-07-17T12:18:43Z</time>
<desc>lat.=55.803299, lon.=26.193201, Alt.=151.959106m. Speed=13.320000m/h.</desc>
<speed>3.700000</speed>
</trkpt>
<trkpt lat="55.803322" lon="26.193151">
<ele>151.912231</ele>
<time>2010-07-17T12:18:44Z</time>
<desc>lat.=55.803322, lon.=26.193151, Alt.=151.912231m. Speed=14.652000m/h.</desc>
<speed>4.070000</speed>
</trkpt>
<trkpt lat="55.803345" lon="26.193104">
<ele>151.853638</ele>
<time>2010-07-17T12:18:45Z</time>
<desc>lat.=55.803345, lon.=26.193104, Alt.=151.853638m. Speed=14.004000m/h.</desc>
<speed>3.890000</speed>
</trkpt>
<trkpt lat="55.803364" lon="26.193054">
<ele>151.892700</ele>
<time>2010-07-17T12:18:46Z</time>
<desc>lat.=55.803364, lon.=26.193054, Alt.=151.892700m. Speed=14.292000m/h.</desc>
<speed>3.970000</speed>
</trkpt>
<trkpt lat="55.803387" lon="26.193010">
<ele>151.951294</ele>
<time>2010-07-17T12:18:47Z</time>
<desc>lat.=55.803387, lon.=26.193010, Alt.=151.951294m. Speed=15.120000m/h.</desc>
<speed>4.200000</speed>
</trkpt>
<trkpt lat="55.803413" lon="26.192963">
<ele>152.115356</ele>
<time>2010-07-17T12:18:48Z</time>
<desc>lat.=55.803413, lon.=26.192963, Alt.=152.115356m. Speed=15.012000m/h.</desc>
<speed>4.170000</speed>
</trkpt>
<trkpt lat="55.803436" lon="26.192917">
<ele>152.076294</ele>
<time>2010-07-17T12:18:49Z</time>
<desc>lat.=55.803436, lon.=26.192917, Alt.=152.076294m. Speed=14.904000m/h.</desc>
<speed>4.140000</speed>
</trkpt>
<trkpt lat="55.803463" lon="26.192869">
<ele>151.966919</ele>
<time>2010-07-17T12:18:50Z</time>
<desc>lat.=55.803463, lon.=26.192869, Alt.=151.966919m. Speed=15.948000m/h.</desc>
<speed>4.430000</speed>
</trkpt>
<trkpt lat="55.803497" lon="26.192810">
<ele>151.861450</ele>
<time>2010-07-17T12:18:51Z</time>
<desc>lat.=55.803497, lon.=26.192810, Alt.=151.861450m. Speed=18.756001m/h.</desc>
<speed>5.210000</speed>
</trkpt>
<trkpt lat="55.803535" lon="26.192753">
<ele>151.759888</ele>
<time>2010-07-17T12:18:52Z</time>
<desc>lat.=55.803535, lon.=26.192753, Alt.=151.759888m. Speed=20.016001m/h.</desc>
<speed>5.560000</speed>
</trkpt>
<trkpt lat="55.803570" lon="26.192696">
<ele>151.834106</ele>
<time>2010-07-17T12:18:53Z</time>
<desc>lat.=55.803570, lon.=26.192696, Alt.=151.834106m. Speed=19.764000m/h.</desc>
<speed>5.490000</speed>
</trkpt>
<trkpt lat="55.803608" lon="26.192635">
<ele>151.931763</ele>
<time>2010-07-17T12:18:54Z</time>
<desc>lat.=55.803608, lon.=26.192635, Alt.=151.931763m. Speed=21.312000m/h.</desc>
<speed>5.920000</speed>
</trkpt>
<trkpt lat="55.803646" lon="26.192579">
<ele>151.888794</ele>
<time>2010-07-17T12:18:55Z</time>
<desc>lat.=55.803646, lon.=26.192579, Alt.=151.888794m. Speed=20.304001m/h.</desc>
<speed>5.640000</speed>
</trkpt>
<trkpt lat="55.803688" lon="26.192518">
<ele>151.869263</ele>
<time>2010-07-17T12:18:56Z</time>
<desc>lat.=55.803688, lon.=26.192518, Alt.=151.869263m. Speed=21.132000m/h.</desc>
<speed>5.870000</speed>
</trkpt>
<trkpt lat="55.803730" lon="26.192451">
<ele>151.834106</ele>
<time>2010-07-17T12:18:57Z</time>
<desc>lat.=55.803730, lon.=26.192451, Alt.=151.834106m. Speed=21.924000m/h.</desc>
<speed>6.090000</speed>
</trkpt>
<trkpt lat="55.803776" lon="26.192394">
<ele>151.939575</ele>
<time>2010-07-17T12:18:58Z</time>
<desc>lat.=55.803776, lon.=26.192394, Alt.=151.939575m. Speed=22.500000m/h.</desc>
<speed>6.250000</speed>
</trkpt>
<trkpt lat="55.803825" lon="26.192341">
<ele>152.076294</ele>
<time>2010-07-17T12:18:59Z</time>
<desc>lat.=55.803825, lon.=26.192341, Alt.=152.076294m. Speed=22.896000m/h.</desc>
<speed>6.360000</speed>
</trkpt>
<trkpt lat="55.803875" lon="26.192297">
<ele>152.095825</ele>
<time>2010-07-17T12:19:00Z</time>
<desc>lat.=55.803875, lon.=26.192297, Alt.=152.095825m. Speed=23.148001m/h.</desc>
<speed>6.430000</speed>
</trkpt>
<trkpt lat="55.803925" lon="26.192255">
<ele>152.064575</ele>
<time>2010-07-17T12:19:01Z</time>
<desc>lat.=55.803925, lon.=26.192255, Alt.=152.064575m. Speed=23.112000m/h.</desc>
<speed>6.420000</speed>
</trkpt>
<trkpt lat="55.803978" lon="26.192215">
<ele>152.099731</ele>
<time>2010-07-17T12:19:02Z</time>
<desc>lat.=55.803978, lon.=26.192215, Alt.=152.099731m. Speed=22.931999m/h.</desc>
<speed>6.370000</speed>
</trkpt>
<trkpt lat="55.804031" lon="26.192184">
<ele>152.127075</ele>
<time>2010-07-17T12:19:03Z</time>
<desc>lat.=55.804031, lon.=26.192184, Alt.=152.127075m. Speed=22.535999m/h.</desc>
<speed>6.260000</speed>
</trkpt>
<trkpt lat="55.804089" lon="26.192162">
<ele>152.154419</ele>
<time>2010-07-17T12:19:04Z</time>
<desc>lat.=55.804089, lon.=26.192162, Alt.=152.154419m. Speed=22.068001m/h.</desc>
<speed>6.130000</speed>
</trkpt>
<trkpt lat="55.804142" lon="26.192137">
<ele>152.271606</ele>
<time>2010-07-17T12:19:05Z</time>
<desc>lat.=55.804142, lon.=26.192137, Alt.=152.271606m. Speed=21.708000m/h.</desc>
<speed>6.030000</speed>
</trkpt>
<trkpt lat="55.804192" lon="26.192112">
<ele>152.279419</ele>
<time>2010-07-17T12:19:06Z</time>
<desc>lat.=55.804192, lon.=26.192112, Alt.=152.279419m. Speed=20.988001m/h.</desc>
<speed>5.830000</speed>
</trkpt>
<trkpt lat="55.804241" lon="26.192087">
<ele>152.259888</ele>
<time>2010-07-17T12:19:07Z</time>
<desc>lat.=55.804241, lon.=26.192087, Alt.=152.259888m. Speed=20.304001m/h.</desc>
<speed>5.640000</speed>
</trkpt>
<trkpt lat="55.804291" lon="26.192066">
<ele>152.240356</ele>
<time>2010-07-17T12:19:08Z</time>
<desc>lat.=55.804291, lon.=26.192066, Alt.=152.240356m. Speed=19.584000m/h.</desc>
<speed>5.440000</speed>
</trkpt>
<trkpt lat="55.804337" lon="26.192041">
<ele>152.228638</ele>
<time>2010-07-17T12:19:09Z</time>
<desc>lat.=55.804337, lon.=26.192041, Alt.=152.228638m. Speed=19.044001m/h.</desc>
<speed>5.290000</speed>
</trkpt>
<trkpt lat="55.804382" lon="26.192015">
<ele>152.271606</ele>
<time>2010-07-17T12:19:10Z</time>
<desc>lat.=55.804382, lon.=26.192015, Alt.=152.271606m. Speed=18.864000m/h.</desc>
<speed>5.240000</speed>
</trkpt>
<trkpt lat="55.804428" lon="26.191988">
<ele>152.537231</ele>
<time>2010-07-17T12:19:11Z</time>
<desc>lat.=55.804428, lon.=26.191988, Alt.=152.537231m. Speed=18.504000m/h.</desc>
<speed>5.140000</speed>
</trkpt>
<trkpt lat="55.804474" lon="26.191957">
<ele>152.677856</ele>
<time>2010-07-17T12:19:12Z</time>
<desc>lat.=55.804474, lon.=26.191957, Alt.=152.677856m. Speed=18.612000m/h.</desc>
<speed>5.170000</speed>
</trkpt>
<trkpt lat="55.804516" lon="26.191935">
<ele>152.576294</ele>
<time>2010-07-17T12:19:13Z</time>
<desc>lat.=55.804516, lon.=26.191935, Alt.=152.576294m. Speed=17.532000m/h.</desc>
<speed>4.870000</speed>
</trkpt>
<trkpt lat="55.804554" lon="26.191912">
<ele>152.646606</ele>
<time>2010-07-17T12:19:14Z</time>
<desc>lat.=55.804554, lon.=26.191912, Alt.=152.646606m. Speed=16.704000m/h.</desc>
<speed>4.640000</speed>
</trkpt>
<trkpt lat="55.804588" lon="26.191885">
<ele>152.701294</ele>
<time>2010-07-17T12:19:15Z</time>
<desc>lat.=55.804588, lon.=26.191885, Alt.=152.701294m. Speed=14.472000m/h.</desc>
<speed>4.020000</speed>
</trkpt>
<trkpt lat="55.804623" lon="26.191856">
<ele>152.818481</ele>
<time>2010-07-17T12:19:16Z</time>
<desc>lat.=55.804623, lon.=26.191856, Alt.=152.818481m. Speed=14.832000m/h.</desc>
<speed>4.120000</speed>
</trkpt>
<trkpt lat="55.804661" lon="26.191830">
<ele>152.974731</ele>
<time>2010-07-17T12:19:17Z</time>
<desc>lat.=55.804661, lon.=26.191830, Alt.=152.974731m. Speed=16.704000m/h.</desc>
<speed>4.640000</speed>
</trkpt>
<trkpt lat="55.804703" lon="26.191805">
<ele>153.181763</ele>
<time>2010-07-17T12:19:18Z</time>
<desc>lat.=55.804703, lon.=26.191805, Alt.=153.181763m. Speed=16.704000m/h.</desc>
<speed>4.640000</speed>
</trkpt>
<trkpt lat="55.804741" lon="26.191776">
<ele>153.259888</ele>
<time>2010-07-17T12:19:19Z</time>
<desc>lat.=55.804741, lon.=26.191776, Alt.=153.259888m. Speed=17.100000m/h.</desc>
<speed>4.750000</speed>
</trkpt>
<trkpt lat="55.804779" lon="26.191748">
<ele>153.240356</ele>
<time>2010-07-17T12:19:20Z</time>
<desc>lat.=55.804779, lon.=26.191748, Alt.=153.240356m. Speed=16.667999m/h.</desc>
<speed>4.630000</speed>
</trkpt>
<trkpt lat="55.804813" lon="26.191723">
<ele>153.052856</ele>
<time>2010-07-17T12:19:21Z</time>
<desc>lat.=55.804813, lon.=26.191723, Alt.=153.052856m. Speed=17.028000m/h.</desc>
<speed>4.730000</speed>
</trkpt>
<trkpt lat="55.804848" lon="26.191690">
<ele>153.103638</ele>
<time>2010-07-17T12:19:22Z</time>
<desc>lat.=55.804848, lon.=26.191690, Alt.=153.103638m. Speed=16.992001m/h.</desc>
<speed>4.720000</speed>
</trkpt>
<trkpt lat="55.804882" lon="26.191652">
<ele>153.341919</ele>
<time>2010-07-17T12:19:23Z</time>
<desc>lat.=55.804882, lon.=26.191652, Alt.=153.341919m. Speed=16.848000m/h.</desc>
<speed>4.680000</speed>
</trkpt>
<trkpt lat="55.804920" lon="26.191620">
<ele>153.638794</ele>
<time>2010-07-17T12:19:24Z</time>
<desc>lat.=55.804920, lon.=26.191620, Alt.=153.638794m. Speed=16.308001m/h.</desc>
<speed>4.530000</speed>
</trkpt>
<trkpt lat="55.804958" lon="26.191589">
<ele>153.990356</ele>
<time>2010-07-17T12:19:25Z</time>
<desc>lat.=55.804958, lon.=26.191589, Alt.=153.990356m. Speed=18.035999m/h.</desc>
<speed>5.010000</speed>
</trkpt>
<trkpt lat="55.805004" lon="26.191559">
<ele>154.091919</ele>
<time>2010-07-17T12:19:26Z</time>
<desc>lat.=55.805004, lon.=26.191559, Alt.=154.091919m. Speed=19.332001m/h.</desc>
<speed>5.370000</speed>
</trkpt>
<trkpt lat="55.805054" lon="26.191525">
<ele>153.990356</ele>
<time>2010-07-17T12:19:27Z</time>
<desc>lat.=55.805054, lon.=26.191525, Alt.=153.990356m. Speed=20.232000m/h.</desc>
<speed>5.620000</speed>
</trkpt>
<trkpt lat="55.805096" lon="26.191492">
<ele>153.990356</ele>
<time>2010-07-17T12:19:28Z</time>
<desc>lat.=55.805096, lon.=26.191492, Alt.=153.990356m. Speed=18.360001m/h.</desc>
<speed>5.100000</speed>
</trkpt>
<trkpt lat="55.805134" lon="26.191463">
<ele>153.986450</ele>
<time>2010-07-17T12:19:29Z</time>
<desc>lat.=55.805134, lon.=26.191463, Alt.=153.986450m. Speed=17.964001m/h.</desc>
<speed>4.990000</speed>
</trkpt>
<trkpt lat="55.805172" lon="26.191441">
<ele>153.943481</ele>
<time>2010-07-17T12:19:30Z</time>
<desc>lat.=55.805172, lon.=26.191441, Alt.=153.943481m. Speed=16.524000m/h.</desc>
<speed>4.590000</speed>
</trkpt>
<trkpt lat="55.805206" lon="26.191418">
<ele>153.974731</ele>
<time>2010-07-17T12:19:31Z</time>
<desc>lat.=55.805206, lon.=26.191418, Alt.=153.974731m. Speed=16.308001m/h.</desc>
<speed>4.530000</speed>
</trkpt>
<trkpt lat="55.805241" lon="26.191404">
<ele>154.146606</ele>
<time>2010-07-17T12:19:32Z</time>
<desc>lat.=55.805241, lon.=26.191404, Alt.=154.146606m. Speed=14.580000m/h.</desc>
<speed>4.050000</speed>
</trkpt>
<trkpt lat="55.805275" lon="26.191385">
<ele>154.259888</ele>
<time>2010-07-17T12:19:33Z</time>
<desc>lat.=55.805275, lon.=26.191385, Alt.=154.259888m. Speed=13.356000m/h.</desc>
<speed>3.710000</speed>
</trkpt>
<trkpt lat="55.805313" lon="26.191368">
<ele>154.365356</ele>
<time>2010-07-17T12:19:34Z</time>
<desc>lat.=55.805313, lon.=26.191368, Alt.=154.365356m. Speed=15.588000m/h.</desc>
<speed>4.330000</speed>
</trkpt>
<trkpt lat="55.805351" lon="26.191347">
<ele>154.431763</ele>
<time>2010-07-17T12:19:35Z</time>
<desc>lat.=55.805351, lon.=26.191347, Alt.=154.431763m. Speed=15.588000m/h.</desc>
<speed>4.330000</speed>
</trkpt>
<trkpt lat="55.805389" lon="26.191332">
<ele>154.521606</ele>
<time>2010-07-17T12:19:36Z</time>
<desc>lat.=55.805389, lon.=26.191332, Alt.=154.521606m. Speed=15.480000m/h.</desc>
<speed>4.300000</speed>
</trkpt>
<trkpt lat="55.805431" lon="26.191317">
<ele>154.623169</ele>
<time>2010-07-17T12:19:37Z</time>
<desc>lat.=55.805431, lon.=26.191317, Alt.=154.623169m. Speed=16.020000m/h.</desc>
<speed>4.450000</speed>
</trkpt>
<trkpt lat="55.805473" lon="26.191303">
<ele>154.767700</ele>
<time>2010-07-17T12:19:38Z</time>
<desc>lat.=55.805473, lon.=26.191303, Alt.=154.767700m. Speed=17.136000m/h.</desc>
<speed>4.760000</speed>
</trkpt>
<trkpt lat="55.805519" lon="26.191288">
<ele>154.959106</ele>
<time>2010-07-17T12:19:39Z</time>
<desc>lat.=55.805519, lon.=26.191288, Alt.=154.959106m. Speed=17.243999m/h.</desc>
<speed>4.790000</speed>
</trkpt>
<trkpt lat="55.805565" lon="26.191277">
<ele>155.068481</ele>
<time>2010-07-17T12:19:40Z</time>
<desc>lat.=55.805565, lon.=26.191277, Alt.=155.068481m. Speed=17.496000m/h.</desc>
<speed>4.860000</speed>
</trkpt>
<trkpt lat="55.805611" lon="26.191261">
<ele>155.154419</ele>
<time>2010-07-17T12:19:41Z</time>
<desc>lat.=55.805611, lon.=26.191261, Alt.=155.154419m. Speed=19.224001m/h.</desc>
<speed>5.340000</speed>
</trkpt>
<trkpt lat="55.805653" lon="26.191246">
<ele>155.185669</ele>
<time>2010-07-17T12:19:42Z</time>
<desc>lat.=55.805653, lon.=26.191246, Alt.=155.185669m. Speed=18.468000m/h.</desc>
<speed>5.130000</speed>
</trkpt>
<trkpt lat="55.805698" lon="26.191236">
<ele>155.193481</ele>
<time>2010-07-17T12:19:43Z</time>
<desc>lat.=55.805698, lon.=26.191236, Alt.=155.193481m. Speed=17.927999m/h.</desc>
<speed>4.980000</speed>
</trkpt>
<trkpt lat="55.805748" lon="26.191231">
<ele>155.123169</ele>
<time>2010-07-17T12:19:44Z</time>
<desc>lat.=55.805748, lon.=26.191231, Alt.=155.123169m. Speed=20.844000m/h.</desc>
<speed>5.790000</speed>
</trkpt>
<trkpt lat="55.805798" lon="26.191223">
<ele>155.259888</ele>
<time>2010-07-17T12:19:45Z</time>
<desc>lat.=55.805798, lon.=26.191223, Alt.=155.259888m. Speed=20.304001m/h.</desc>
<speed>5.640000</speed>
</trkpt>
<trkpt lat="55.805847" lon="26.191216">
<ele>155.838013</ele>
<time>2010-07-17T12:19:46Z</time>
<desc>lat.=55.805847, lon.=26.191216, Alt.=155.838013m. Speed=22.464001m/h.</desc>
<speed>6.240000</speed>
</trkpt>
<trkpt lat="55.805912" lon="26.191198">
<ele>156.662231</ele>
<time>2010-07-17T12:19:47Z</time>
<desc>lat.=55.805912, lon.=26.191198, Alt.=156.662231m. Speed=24.372000m/h.</desc>
<speed>6.770000</speed>
</trkpt>
<trkpt lat="55.805977" lon="26.191177">
<ele>157.377075</ele>
<time>2010-07-17T12:19:48Z</time>
<desc>lat.=55.805977, lon.=26.191177, Alt.=157.377075m. Speed=26.424000m/h.</desc>
<speed>7.340000</speed>
</trkpt>
<trkpt lat="55.806046" lon="26.191151">
<ele>157.767700</ele>
<time>2010-07-17T12:19:49Z</time>
<desc>lat.=55.806046, lon.=26.191151, Alt.=157.767700m. Speed=27.612000m/h.</desc>
<speed>7.670000</speed>
</trkpt>
<trkpt lat="55.806118" lon="26.191124">
<ele>157.955200</ele>
<time>2010-07-17T12:19:50Z</time>
<desc>lat.=55.806118, lon.=26.191124, Alt.=157.955200m. Speed=28.691999m/h.</desc>
<speed>7.970000</speed>
</trkpt>
<trkpt lat="55.806190" lon="26.191097">
<ele>157.849731</ele>
<time>2010-07-17T12:19:51Z</time>
<desc>lat.=55.806190, lon.=26.191097, Alt.=157.849731m. Speed=29.591999m/h.</desc>
<speed>8.220000</speed>
</trkpt>
<trkpt lat="55.806263" lon="26.191069">
<ele>156.673950</ele>
<time>2010-07-17T12:19:52Z</time>
<desc>lat.=55.806263, lon.=26.191069, Alt.=156.673950m. Speed=30.384001m/h.</desc>
<speed>8.440000</speed>
</trkpt>
<trkpt lat="55.806339" lon="26.191032">
<ele>155.447388</ele>
<time>2010-07-17T12:19:53Z</time>
<desc>lat.=55.806339, lon.=26.191032, Alt.=155.447388m. Speed=30.420000m/h.</desc>
<speed>8.450000</speed>
</trkpt>
<trkpt lat="55.806412" lon="26.190996">
<ele>154.603638</ele>
<time>2010-07-17T12:19:54Z</time>
<desc>lat.=55.806412, lon.=26.190996, Alt.=154.603638m. Speed=30.996000m/h.</desc>
<speed>8.610000</speed>
</trkpt>
<trkpt lat="55.806484" lon="26.190952">
<ele>154.017700</ele>
<time>2010-07-17T12:19:55Z</time>
<desc>lat.=55.806484, lon.=26.190952, Alt.=154.017700m. Speed=31.716000m/h.</desc>
<speed>8.810000</speed>
</trkpt>
<trkpt lat="55.806561" lon="26.190908">
<ele>153.033325</ele>
<time>2010-07-17T12:19:56Z</time>
<desc>lat.=55.806561, lon.=26.190908, Alt.=153.033325m. Speed=32.688000m/h.</desc>
<speed>9.080000</speed>
</trkpt>
<trkpt lat="55.806641" lon="26.190865">
<ele>152.845825</ele>
<time>2010-07-17T12:19:57Z</time>
<desc>lat.=55.806641, lon.=26.190865, Alt.=152.845825m. Speed=34.919998m/h.</desc>
<speed>9.699999</speed>
</trkpt>
<trkpt lat="55.806728" lon="26.190817">
<ele>152.599731</ele>
<time>2010-07-17T12:19:58Z</time>
<desc>lat.=55.806728, lon.=26.190817, Alt.=152.599731m. Speed=36.972000m/h.</desc>
<speed>10.270000</speed>
</trkpt>
<trkpt lat="55.806816" lon="26.190771">
<ele>152.396606</ele>
<time>2010-07-17T12:19:59Z</time>
<desc>lat.=55.806816, lon.=26.190771, Alt.=152.396606m. Speed=36.827999m/h.</desc>
<speed>10.230000</speed>
</trkpt>
<trkpt lat="55.806896" lon="26.190722">
<ele>152.505981</ele>
<time>2010-07-17T12:20:00Z</time>
<desc>lat.=55.806896, lon.=26.190722, Alt.=152.505981m. Speed=31.535999m/h.</desc>
<speed>8.760000</speed>
</trkpt>
<trkpt lat="55.806965" lon="26.190683">
<ele>152.201294</ele>
<time>2010-07-17T12:20:01Z</time>
<desc>lat.=55.806965, lon.=26.190683, Alt.=152.201294m. Speed=28.728001m/h.</desc>
<speed>7.980000</speed>
</trkpt>
<trkpt lat="55.807034" lon="26.190645">
<ele>152.021606</ele>
<time>2010-07-17T12:20:02Z</time>
<desc>lat.=55.807034, lon.=26.190645, Alt.=152.021606m. Speed=28.799999m/h.</desc>
<speed>8.000000</speed>
</trkpt>
<trkpt lat="55.807095" lon="26.190617">
<ele>151.931763</ele>
<time>2010-07-17T12:20:03Z</time>
<desc>lat.=55.807095, lon.=26.190617, Alt.=151.931763m. Speed=25.740000m/h.</desc>
<speed>7.150000</speed>
</trkpt>
<trkpt lat="55.807167" lon="26.190586">
<ele>151.802856</ele>
<time>2010-07-17T12:20:04Z</time>
<desc>lat.=55.807167, lon.=26.190586, Alt.=151.802856m. Speed=27.756001m/h.</desc>
<speed>7.710000</speed>
</trkpt>
<trkpt lat="55.807240" lon="26.190571">
<ele>151.802856</ele>
<time>2010-07-17T12:20:05Z</time>
<desc>lat.=55.807240, lon.=26.190571, Alt.=151.802856m. Speed=28.332001m/h.</desc>
<speed>7.870000</speed>
</trkpt>
<trkpt lat="55.807320" lon="26.190559">
<ele>151.029419</ele>
<time>2010-07-17T12:20:06Z</time>
<desc>lat.=55.807320, lon.=26.190559, Alt.=151.029419m. Speed=30.851999m/h.</desc>
<speed>8.570000</speed>
</trkpt>
<trkpt lat="55.807426" lon="26.190514">
<ele>150.505981</ele>
<time>2010-07-17T12:20:07Z</time>
<desc>lat.=55.807426, lon.=26.190514, Alt.=150.505981m. Speed=29.448000m/h.</desc>
<speed>8.180000</speed>
</trkpt>
<trkpt lat="55.807518" lon="26.190491">
<ele>150.666138</ele>
<time>2010-07-17T12:20:08Z</time>
<desc>lat.=55.807518, lon.=26.190491, Alt.=150.666138m. Speed=30.312000m/h.</desc>
<speed>8.420000</speed>
</trkpt>
<trkpt lat="55.807594" lon="26.190472">
<ele>151.017700</ele>
<time>2010-07-17T12:20:09Z</time>
<desc>lat.=55.807594, lon.=26.190472, Alt.=151.017700m. Speed=28.224001m/h.</desc>
<speed>7.840000</speed>
</trkpt>
<trkpt lat="55.807663" lon="26.190441">
<ele>150.748169</ele>
<time>2010-07-17T12:20:10Z</time>
<desc>lat.=55.807663, lon.=26.190441, Alt.=150.748169m. Speed=26.856001m/h.</desc>
<speed>7.460000</speed>
</trkpt>
<trkpt lat="55.807747" lon="26.190407">
<ele>150.302856</ele>
<time>2010-07-17T12:20:11Z</time>
<desc>lat.=55.807747, lon.=26.190407, Alt.=150.302856m. Speed=30.996000m/h.</desc>
<speed>8.610000</speed>
</trkpt>
<trkpt lat="55.807819" lon="26.190374">
<ele>149.896606</ele>
<time>2010-07-17T12:20:12Z</time>
<desc>lat.=55.807819, lon.=26.190374, Alt.=149.896606m. Speed=29.736000m/h.</desc>
<speed>8.260000</speed>
</trkpt>
<trkpt lat="55.807896" lon="26.190342">
<ele>149.795044</ele>
<time>2010-07-17T12:20:13Z</time>
<desc>lat.=55.807896, lon.=26.190342, Alt.=149.795044m. Speed=29.375999m/h.</desc>
<speed>8.160000</speed>
</trkpt>
<trkpt lat="55.807976" lon="26.190319">
<ele>150.177856</ele>
<time>2010-07-17T12:20:14Z</time>
<desc>lat.=55.807976, lon.=26.190319, Alt.=150.177856m. Speed=30.096001m/h.</desc>
<speed>8.360000</speed>
</trkpt>
<trkpt lat="55.808037" lon="26.190310">
<ele>150.560669</ele>
<time>2010-07-17T12:20:15Z</time>
<desc>lat.=55.808037, lon.=26.190310, Alt.=150.560669m. Speed=23.940001m/h.</desc>
<speed>6.650000</speed>
</trkpt>
<trkpt lat="55.808109" lon="26.190289">
<ele>150.724731</ele>
<time>2010-07-17T12:20:16Z</time>
<desc>lat.=55.808109, lon.=26.190289, Alt.=150.724731m. Speed=26.388000m/h.</desc>
<speed>7.330000</speed>
</trkpt>
<trkpt lat="55.808178" lon="26.190250">
<ele>150.896606</ele>
<time>2010-07-17T12:20:17Z</time>
<desc>lat.=55.808178, lon.=26.190250, Alt.=150.896606m. Speed=24.804001m/h.</desc>
<speed>6.890000</speed>
</trkpt>
<trkpt lat="55.808243" lon="26.190237">
<ele>151.255981</ele>
<time>2010-07-17T12:20:18Z</time>
<desc>lat.=55.808243, lon.=26.190237, Alt.=151.255981m. Speed=23.040001m/h.</desc>
<speed>6.400000</speed>
</trkpt>
<trkpt lat="55.808300" lon="26.190233">
<ele>151.752075</ele>
<time>2010-07-17T12:20:19Z</time>
<desc>lat.=55.808300, lon.=26.190233, Alt.=151.752075m. Speed=18.900000m/h.</desc>
<speed>5.250000</speed>
</trkpt>
<trkpt lat="55.808365" lon="26.190222">
<ele>152.318481</ele>
<time>2010-07-17T12:20:20Z</time>
<desc>lat.=55.808365, lon.=26.190222, Alt.=152.318481m. Speed=21.851999m/h.</desc>
<speed>6.070000</speed>
</trkpt>
<trkpt lat="55.808437" lon="26.190191">
<ele>152.377075</ele>
<time>2010-07-17T12:20:21Z</time>
<desc>lat.=55.808437, lon.=26.190191, Alt.=152.377075m. Speed=24.912001m/h.</desc>
<speed>6.920000</speed>
</trkpt>
<trkpt lat="55.808502" lon="26.190165">
<ele>152.541138</ele>
<time>2010-07-17T12:20:22Z</time>
<desc>lat.=55.808502, lon.=26.190165, Alt.=152.541138m. Speed=22.068001m/h.</desc>
<speed>6.130000</speed>
</trkpt>
<trkpt lat="55.808559" lon="26.190153">
<ele>152.857544</ele>
<time>2010-07-17T12:20:23Z</time>
<desc>lat.=55.808559, lon.=26.190153, Alt.=152.857544m. Speed=18.000000m/h.</desc>
<speed>5.000000</speed>
</trkpt>
<trkpt lat="55.808601" lon="26.190147">
<ele>152.666138</ele>
<time>2010-07-17T12:20:24Z</time>
<desc>lat.=55.808601, lon.=26.190147, Alt.=152.666138m. Speed=15.912000m/h.</desc>
<speed>4.420000</speed>
</trkpt>
<trkpt lat="55.808643" lon="26.190144">
<ele>152.560669</ele>
<time>2010-07-17T12:20:25Z</time>
<desc>lat.=55.808643, lon.=26.190144, Alt.=152.560669m. Speed=16.812000m/h.</desc>
<speed>4.670000</speed>
</trkpt>
<trkpt lat="55.808704" lon="26.190126">
<ele>152.220825</ele>
<time>2010-07-17T12:20:26Z</time>
<desc>lat.=55.808704, lon.=26.190126, Alt.=152.220825m. Speed=15.156000m/h.</desc>
<speed>4.210000</speed>
</trkpt>
<trkpt lat="55.808769" lon="26.190115">
<ele>151.673950</ele>
<time>2010-07-17T12:20:27Z</time>
<desc>lat.=55.808769, lon.=26.190115, Alt.=151.673950m. Speed=18.288000m/h.</desc>
<speed>5.080000</speed>
</trkpt>
<trkpt lat="55.808826" lon="26.190092">
<ele>151.361450</ele>
<time>2010-07-17T12:20:28Z</time>
<desc>lat.=55.808826, lon.=26.190092, Alt.=151.361450m. Speed=18.684000m/h.</desc>
<speed>5.190000</speed>
</trkpt>
<trkpt lat="55.808899" lon="26.190063">
<ele>150.189575</ele>
<time>2010-07-17T12:20:29Z</time>
<desc>lat.=55.808899, lon.=26.190063, Alt.=150.189575m. Speed=20.160000m/h.</desc>
<speed>5.600000</speed>
</trkpt>
<trkpt lat="55.808964" lon="26.190025">
<ele>149.423950</ele>
<time>2010-07-17T12:20:30Z</time>
<desc>lat.=55.808964, lon.=26.190025, Alt.=149.423950m. Speed=24.480000m/h.</desc>
<speed>6.800000</speed>
</trkpt>
<trkpt lat="55.809025" lon="26.190008">
<ele>148.658325</ele>
<time>2010-07-17T12:20:31Z</time>
<desc>lat.=55.809025, lon.=26.190008, Alt.=148.658325m. Speed=19.476000m/h.</desc>
<speed>5.410000</speed>
</trkpt>
<trkpt lat="55.809116" lon="26.189945">
<ele>148.255981</ele>
<time>2010-07-17T12:20:32Z</time>
<desc>lat.=55.809116, lon.=26.189945, Alt.=148.255981m. Speed=21.024000m/h.</desc>
<speed>5.840000</speed>
</trkpt>
<trkpt lat="55.809181" lon="26.189922">
<ele>147.548950</ele>
<time>2010-07-17T12:20:33Z</time>
<desc>lat.=55.809181, lon.=26.189922, Alt.=147.548950m. Speed=21.096001m/h.</desc>
<speed>5.860000</speed>
</trkpt>
<trkpt lat="55.809261" lon="26.189882">
<ele>147.795044</ele>
<time>2010-07-17T12:20:34Z</time>
<desc>lat.=55.809261, lon.=26.189882, Alt.=147.795044m. Speed=23.184000m/h.</desc>
<speed>6.440000</speed>
</trkpt>
<trkpt lat="55.809334" lon="26.189846">
<ele>147.404419</ele>
<time>2010-07-17T12:20:35Z</time>
<desc>lat.=55.809334, lon.=26.189846, Alt.=147.404419m. Speed=21.492001m/h.</desc>
<speed>5.970000</speed>
</trkpt>
<trkpt lat="55.809425" lon="26.189802">
<ele>147.892700</ele>
<time>2010-07-17T12:20:36Z</time>
<desc>lat.=55.809425, lon.=26.189802, Alt.=147.892700m. Speed=20.808001m/h.</desc>
<speed>5.780000</speed>
</trkpt>
<trkpt lat="55.809479" lon="26.189781">
<ele>147.572388</ele>
<time>2010-07-17T12:20:37Z</time>
<desc>lat.=55.809479, lon.=26.189781, Alt.=147.572388m. Speed=21.672001m/h.</desc>
<speed>6.020000</speed>
</trkpt>
<trkpt lat="55.809544" lon="26.189749">
<ele>148.005981</ele>
<time>2010-07-17T12:20:38Z</time>
<desc>lat.=55.809544, lon.=26.189749, Alt.=148.005981m. Speed=19.799999m/h.</desc>
<speed>5.500000</speed>
</trkpt>
<trkpt lat="55.809616" lon="26.189726">
<ele>148.060669</ele>
<time>2010-07-17T12:20:39Z</time>
<desc>lat.=55.809616, lon.=26.189726, Alt.=148.060669m. Speed=19.368000m/h.</desc>
<speed>5.380000</speed>
</trkpt>
<trkpt lat="55.809685" lon="26.189701">
<ele>148.716919</ele>
<time>2010-07-17T12:20:40Z</time>
<desc>lat.=55.809685, lon.=26.189701, Alt.=148.716919m. Speed=17.100000m/h.</desc>
<speed>4.750000</speed>
</trkpt>
<trkpt lat="55.809750" lon="26.189680">
<ele>149.127075</ele>
<time>2010-07-17T12:20:41Z</time>
<desc>lat.=55.809750, lon.=26.189680, Alt.=149.127075m. Speed=17.136000m/h.</desc>
<speed>4.760000</speed>
</trkpt>
<trkpt lat="55.809818" lon="26.189665">
<ele>149.720825</ele>
<time>2010-07-17T12:20:42Z</time>
<desc>lat.=55.809818, lon.=26.189665, Alt.=149.720825m. Speed=17.964001m/h.</desc>
<speed>4.990000</speed>
</trkpt>
<trkpt lat="55.809883" lon="26.189651">
<ele>150.052856</ele>
<time>2010-07-17T12:20:43Z</time>
<desc>lat.=55.809883, lon.=26.189651, Alt.=150.052856m. Speed=19.332001m/h.</desc>
<speed>5.370000</speed>
</trkpt>
<trkpt lat="55.809952" lon="26.189636">
<ele>150.584106</ele>
<time>2010-07-17T12:20:44Z</time>
<desc>lat.=55.809952, lon.=26.189636, Alt.=150.584106m. Speed=18.648001m/h.</desc>
<speed>5.180000</speed>
</trkpt>
<trkpt lat="55.810020" lon="26.189613">
<ele>150.861450</ele>
<time>2010-07-17T12:20:45Z</time>
<desc>lat.=55.810020, lon.=26.189613, Alt.=150.861450m. Speed=19.224001m/h.</desc>
<speed>5.340000</speed>
</trkpt>
<trkpt lat="55.810085" lon="26.189589">
<ele>150.830200</ele>
<time>2010-07-17T12:20:46Z</time>
<desc>lat.=55.810085, lon.=26.189589, Alt.=150.830200m. Speed=19.403999m/h.</desc>
<speed>5.390000</speed>
</trkpt>
<trkpt lat="55.810143" lon="26.189577">
<ele>150.658325</ele>
<time>2010-07-17T12:20:47Z</time>
<desc>lat.=55.810143, lon.=26.189577, Alt.=150.658325m. Speed=20.808001m/h.</desc>
<speed>5.780000</speed>
</trkpt>
<trkpt lat="55.810200" lon="26.189579">
<ele>150.334106</ele>
<time>2010-07-17T12:20:48Z</time>
<desc>lat.=55.810200, lon.=26.189579, Alt.=150.334106m. Speed=20.736000m/h.</desc>
<speed>5.760000</speed>
</trkpt>
<trkpt lat="55.810268" lon="26.189562">
<ele>149.701294</ele>
<time>2010-07-17T12:20:49Z</time>
<desc>lat.=55.810268, lon.=26.189562, Alt.=149.701294m. Speed=20.700001m/h.</desc>
<speed>5.750000</speed>
</trkpt>
<trkpt lat="55.810341" lon="26.189577">
<ele>150.162231</ele>
<time>2010-07-17T12:20:50Z</time>
<desc>lat.=55.810341, lon.=26.189577, Alt.=150.162231m. Speed=19.440001m/h.</desc>
<speed>5.400000</speed>
</trkpt>
<trkpt lat="55.810390" lon="26.189598">
<ele>149.974731</ele>
<time>2010-07-17T12:20:51Z</time>
<desc>lat.=55.810390, lon.=26.189598, Alt.=149.974731m. Speed=19.656000m/h.</desc>
<speed>5.460000</speed>
</trkpt>
<trkpt lat="55.810493" lon="26.189600">
<ele>149.920044</ele>
<time>2010-07-17T12:20:52Z</time>
<desc>lat.=55.810493, lon.=26.189600, Alt.=149.920044m. Speed=19.728001m/h.</desc>
<speed>5.480000</speed>
</trkpt>
<trkpt lat="55.810555" lon="26.189669">
<ele>153.170044</ele>
<time>2010-07-17T12:20:53Z</time>
<desc>lat.=55.810555, lon.=26.189669, Alt.=153.170044m. Speed=18.288000m/h.</desc>
<speed>5.080000</speed>
</trkpt>
<trkpt lat="55.810616" lon="26.189682">
<ele>153.920044</ele>
<time>2010-07-17T12:20:54Z</time>
<desc>lat.=55.810616, lon.=26.189682, Alt.=153.920044m. Speed=16.812000m/h.</desc>
<speed>4.670000</speed>
</trkpt>
<trkpt lat="55.810665" lon="26.189692">
<ele>154.955200</ele>
<time>2010-07-17T12:20:55Z</time>
<desc>lat.=55.810665, lon.=26.189692, Alt.=154.955200m. Speed=15.372000m/h.</desc>
<speed>4.270000</speed>
</trkpt>
<trkpt lat="55.810711" lon="26.189699">
<ele>155.314575</ele>
<time>2010-07-17T12:20:56Z</time>
<desc>lat.=55.810711, lon.=26.189699, Alt.=155.314575m. Speed=15.120000m/h.</desc>
<speed>4.200000</speed>
</trkpt>
<trkpt lat="55.810757" lon="26.189709">
<ele>155.849731</ele>
<time>2010-07-17T12:20:57Z</time>
<desc>lat.=55.810757, lon.=26.189709, Alt.=155.849731m. Speed=14.616000m/h.</desc>
<speed>4.060000</speed>
</trkpt>
<trkpt lat="55.810791" lon="26.189724">
<ele>155.845825</ele>
<time>2010-07-17T12:20:58Z</time>
<desc>lat.=55.810791, lon.=26.189724, Alt.=155.845825m. Speed=15.660000m/h.</desc>
<speed>4.350000</speed>
</trkpt>
<trkpt lat="55.810844" lon="26.189724">
<ele>155.978638</ele>
<time>2010-07-17T12:20:59Z</time>
<desc>lat.=55.810844, lon.=26.189724, Alt.=155.978638m. Speed=13.464000m/h.</desc>
<speed>3.740000</speed>
</trkpt>
<trkpt lat="55.810890" lon="26.189726">
<ele>156.595825</ele>
<time>2010-07-17T12:21:00Z</time>
<desc>lat.=55.810890, lon.=26.189726, Alt.=156.595825m. Speed=12.528000m/h.</desc>
<speed>3.480000</speed>
</trkpt>
<trkpt lat="55.810940" lon="26.189728">
<ele>157.349731</ele>
<time>2010-07-17T12:21:01Z</time>
<desc>lat.=55.810940, lon.=26.189728, Alt.=157.349731m. Speed=15.048000m/h.</desc>
<speed>4.180000</speed>
</trkpt>
<trkpt lat="55.810978" lon="26.189737">
<ele>157.287231</ele>
<time>2010-07-17T12:21:02Z</time>
<desc>lat.=55.810978, lon.=26.189737, Alt.=157.287231m. Speed=14.004000m/h.</desc>
<speed>3.890000</speed>
</trkpt>
<trkpt lat="55.811012" lon="26.189751">
<ele>157.302856</ele>
<time>2010-07-17T12:21:03Z</time>
<desc>lat.=55.811012, lon.=26.189751, Alt.=157.302856m. Speed=16.200001m/h.</desc>
<speed>4.500000</speed>
</trkpt>
<trkpt lat="55.811050" lon="26.189775">
<ele>157.349731</ele>
<time>2010-07-17T12:21:04Z</time>
<desc>lat.=55.811050, lon.=26.189775, Alt.=157.349731m. Speed=16.596001m/h.</desc>
<speed>4.610000</speed>
</trkpt>
<trkpt lat="55.811119" lon="26.189779">
<ele>158.166138</ele>
<time>2010-07-17T12:21:05Z</time>
<desc>lat.=55.811119, lon.=26.189779, Alt.=158.166138m. Speed=19.224001m/h.</desc>
<speed>5.340000</speed>
</trkpt>
<trkpt lat="55.811184" lon="26.189796">
<ele>158.498169</ele>
<time>2010-07-17T12:21:06Z</time>
<desc>lat.=55.811184, lon.=26.189796, Alt.=158.498169m. Speed=20.556000m/h.</desc>
<speed>5.710000</speed>
</trkpt>
<trkpt lat="55.811241" lon="26.189821">
<ele>158.662231</ele>
<time>2010-07-17T12:21:07Z</time>
<desc>lat.=55.811241, lon.=26.189821, Alt.=158.662231m. Speed=23.076000m/h.</desc>
<speed>6.410000</speed>
</trkpt>
<trkpt lat="55.811306" lon="26.189857">
<ele>158.838013</ele>
<time>2010-07-17T12:21:08Z</time>
<desc>lat.=55.811306, lon.=26.189857, Alt.=158.838013m. Speed=26.784000m/h.</desc>
<speed>7.440000</speed>
</trkpt>
<trkpt lat="55.811378" lon="26.189907">
<ele>158.966919</ele>
<time>2010-07-17T12:21:09Z</time>
<desc>lat.=55.811378, lon.=26.189907, Alt.=158.966919m. Speed=30.420000m/h.</desc>
<speed>8.450000</speed>
</trkpt>
<trkpt lat="55.811474" lon="26.189959">
<ele>158.998169</ele>
<time>2010-07-17T12:21:10Z</time>
<desc>lat.=55.811474, lon.=26.189959, Alt.=158.998169m. Speed=32.759998m/h.</desc>
<speed>9.100000</speed>
</trkpt>
<trkpt lat="55.811562" lon="26.190010">
<ele>159.451294</ele>
<time>2010-07-17T12:21:11Z</time>
<desc>lat.=55.811562, lon.=26.190010, Alt.=159.451294m. Speed=34.380001m/h.</desc>
<speed>9.550000</speed>
</trkpt>
<trkpt lat="55.811661" lon="26.190065">
<ele>159.502075</ele>
<time>2010-07-17T12:21:12Z</time>
<desc>lat.=55.811661, lon.=26.190065, Alt.=159.502075m. Speed=32.616001m/h.</desc>
<speed>9.060000</speed>
</trkpt>
<trkpt lat="55.811764" lon="26.190111">
<ele>159.349731</ele>
<time>2010-07-17T12:21:13Z</time>
<desc>lat.=55.811764, lon.=26.190111, Alt.=159.349731m. Speed=30.708000m/h.</desc>
<speed>8.530000</speed>
</trkpt>
<trkpt lat="55.811852" lon="26.190153">
<ele>159.443481</ele>
<time>2010-07-17T12:21:14Z</time>
<desc>lat.=55.811852, lon.=26.190153, Alt.=159.443481m. Speed=29.304001m/h.</desc>
<speed>8.140000</speed>
</trkpt>
<trkpt lat="55.811935" lon="26.190195">
<ele>159.529419</ele>
<time>2010-07-17T12:21:15Z</time>
<desc>lat.=55.811935, lon.=26.190195, Alt.=159.529419m. Speed=27.684000m/h.</desc>
<speed>7.690000</speed>
</trkpt>
<trkpt lat="55.812008" lon="26.190233">
<ele>159.888794</ele>
<time>2010-07-17T12:21:16Z</time>
<desc>lat.=55.812008, lon.=26.190233, Alt.=159.888794m. Speed=26.388000m/h.</desc>
<speed>7.330000</speed>
</trkpt>
<trkpt lat="55.812084" lon="26.190264">
<ele>160.627075</ele>
<time>2010-07-17T12:21:17Z</time>
<desc>lat.=55.812084, lon.=26.190264, Alt.=160.627075m. Speed=27.792000m/h.</desc>
<speed>7.720000</speed>
</trkpt>
<trkpt lat="55.812153" lon="26.190281">
<ele>161.396606</ele>
<time>2010-07-17T12:21:18Z</time>
<desc>lat.=55.812153, lon.=26.190281, Alt.=161.396606m. Speed=26.784000m/h.</desc>
<speed>7.440000</speed>
</trkpt>
<trkpt lat="55.812222" lon="26.190298">
<ele>162.103638</ele>
<time>2010-07-17T12:21:19Z</time>
<desc>lat.=55.812222, lon.=26.190298, Alt.=162.103638m. Speed=25.775999m/h.</desc>
<speed>7.160000</speed>
</trkpt>
<trkpt lat="55.812286" lon="26.190313">
<ele>162.380981</ele>
<time>2010-07-17T12:21:20Z</time>
<desc>lat.=55.812286, lon.=26.190313, Alt.=162.380981m. Speed=24.875999m/h.</desc>
<speed>6.910000</speed>
</trkpt>
<trkpt lat="55.812347" lon="26.190331">
<ele>162.236450</ele>
<time>2010-07-17T12:21:21Z</time>
<desc>lat.=55.812347, lon.=26.190331, Alt.=162.236450m. Speed=23.976000m/h.</desc>
<speed>6.660000</speed>
</trkpt>
<trkpt lat="55.812408" lon="26.190350">
<ele>162.459106</ele>
<time>2010-07-17T12:21:22Z</time>
<desc>lat.=55.812408, lon.=26.190350, Alt.=162.459106m. Speed=23.832001m/h.</desc>
<speed>6.620000</speed>
</trkpt>
<trkpt lat="55.812473" lon="26.190369">
<ele>162.826294</ele>
<time>2010-07-17T12:21:23Z</time>
<desc>lat.=55.812473, lon.=26.190369, Alt.=162.826294m. Speed=25.524000m/h.</desc>
<speed>7.090000</speed>
</trkpt>
<trkpt lat="55.812534" lon="26.190386">
<ele>163.412231</ele>
<time>2010-07-17T12:21:24Z</time>
<desc>lat.=55.812534, lon.=26.190386, Alt.=163.412231m. Speed=24.768000m/h.</desc>
<speed>6.880000</speed>
</trkpt>
<trkpt lat="55.812599" lon="26.190413">
<ele>163.369263</ele>
<time>2010-07-17T12:21:25Z</time>
<desc>lat.=55.812599, lon.=26.190413, Alt.=163.369263m. Speed=23.472000m/h.</desc>
<speed>6.520000</speed>
</trkpt>
<trkpt lat="55.812660" lon="26.190441">
<ele>163.443481</ele>
<time>2010-07-17T12:21:26Z</time>
<desc>lat.=55.812660, lon.=26.190441, Alt.=163.443481m. Speed=22.968000m/h.</desc>
<speed>6.380000</speed>
</trkpt>
<trkpt lat="55.812717" lon="26.190474">
<ele>163.830200</ele>
<time>2010-07-17T12:21:27Z</time>
<desc>lat.=55.812717, lon.=26.190474, Alt.=163.830200m. Speed=23.832001m/h.</desc>
<speed>6.620000</speed>
</trkpt>
<trkpt lat="55.812778" lon="26.190516">
<ele>164.111450</ele>
<time>2010-07-17T12:21:28Z</time>
<desc>lat.=55.812778, lon.=26.190516, Alt.=164.111450m. Speed=25.596001m/h.</desc>
<speed>7.110000</speed>
</trkpt>
<trkpt lat="55.812847" lon="26.190554">
<ele>164.384888</ele>
<time>2010-07-17T12:21:29Z</time>
<desc>lat.=55.812847, lon.=26.190554, Alt.=164.384888m. Speed=28.224001m/h.</desc>
<speed>7.840000</speed>
</trkpt>
<trkpt lat="55.812927" lon="26.190588">
<ele>164.431763</ele>
<time>2010-07-17T12:21:30Z</time>
<desc>lat.=55.812927, lon.=26.190588, Alt.=164.431763m. Speed=32.976002m/h.</desc>
<speed>9.160000</speed>
</trkpt>
<trkpt lat="55.813023" lon="26.190620">
<ele>164.369263</ele>
<time>2010-07-17T12:21:31Z</time>
<desc>lat.=55.813023, lon.=26.190620, Alt.=164.369263m. Speed=37.332001m/h.</desc>
<speed>10.370000</speed>
</trkpt>
<trkpt lat="55.813114" lon="26.190662">
<ele>162.353638</ele>
<time>2010-07-17T12:21:32Z</time>
<desc>lat.=55.813114, lon.=26.190662, Alt.=162.353638m. Speed=39.348000m/h.</desc>
<speed>10.930000</speed>
</trkpt>
<trkpt lat="55.813210" lon="26.190702">
<ele>161.865356</ele>
<time>2010-07-17T12:21:33Z</time>
<desc>lat.=55.813210, lon.=26.190702, Alt.=161.865356m. Speed=40.104000m/h.</desc>
<speed>11.140000</speed>
</trkpt>
<trkpt lat="55.813309" lon="26.190737">
<ele>161.209106</ele>
<time>2010-07-17T12:21:34Z</time>
<desc>lat.=55.813309, lon.=26.190737, Alt.=161.209106m. Speed=40.500000m/h.</desc>
<speed>11.250000</speed>
</trkpt>
<trkpt lat="55.813419" lon="26.190769">
<ele>160.775513</ele>
<time>2010-07-17T12:21:35Z</time>
<desc>lat.=55.813419, lon.=26.190769, Alt.=160.775513m. Speed=42.084000m/h.</desc>
<speed>11.690000</speed>
</trkpt>
<trkpt lat="55.813522" lon="26.190807">
<ele>160.271606</ele>
<time>2010-07-17T12:21:36Z</time>
<desc>lat.=55.813522, lon.=26.190807, Alt.=160.271606m. Speed=42.588001m/h.</desc>
<speed>11.830000</speed>
</trkpt>
<trkpt lat="55.813625" lon="26.190849">
<ele>159.759888</ele>
<time>2010-07-17T12:21:37Z</time>
<desc>lat.=55.813625, lon.=26.190849, Alt.=159.759888m. Speed=42.480000m/h.</desc>
<speed>11.800000</speed>
</trkpt>
<trkpt lat="55.813725" lon="26.190908">
<ele>159.181763</ele>
<time>2010-07-17T12:21:38Z</time>
<desc>lat.=55.813725, lon.=26.190908, Alt.=159.181763m. Speed=41.796001m/h.</desc>
<speed>11.610000</speed>
</trkpt>
<trkpt lat="55.813820" lon="26.190977">
<ele>158.900513</ele>
<time>2010-07-17T12:21:39Z</time>
<desc>lat.=55.813820, lon.=26.190977, Alt.=158.900513m. Speed=41.688000m/h.</desc>
<speed>11.580000</speed>
</trkpt>
<trkpt lat="55.813915" lon="26.191071">
<ele>159.209106</ele>
<time>2010-07-17T12:21:40Z</time>
<desc>lat.=55.813915, lon.=26.191071, Alt.=159.209106m. Speed=41.688000m/h.</desc>
<speed>11.580000</speed>
</trkpt>
<trkpt lat="55.814007" lon="26.191166">
<ele>159.056763</ele>
<time>2010-07-17T12:21:41Z</time>
<desc>lat.=55.814007, lon.=26.191166, Alt.=159.056763m. Speed=42.948002m/h.</desc>
<speed>11.930001</speed>
</trkpt>
<trkpt lat="55.814095" lon="26.191267">
<ele>158.853638</ele>
<time>2010-07-17T12:21:42Z</time>
<desc>lat.=55.814095, lon.=26.191267, Alt.=158.853638m. Speed=42.084000m/h.</desc>
<speed>11.690000</speed>
</trkpt>
<trkpt lat="55.814175" lon="26.191374">
<ele>158.627075</ele>
<time>2010-07-17T12:21:43Z</time>
<desc>lat.=55.814175, lon.=26.191374, Alt.=158.627075m. Speed=41.472000m/h.</desc>
<speed>11.520000</speed>
</trkpt>
<trkpt lat="55.814270" lon="26.191475">
<ele>158.474731</ele>
<time>2010-07-17T12:21:44Z</time>
<desc>lat.=55.814270, lon.=26.191475, Alt.=158.474731m. Speed=40.500000m/h.</desc>
<speed>11.250000</speed>
</trkpt>
<trkpt lat="55.814358" lon="26.191586">
<ele>158.748169</ele>
<time>2010-07-17T12:21:45Z</time>
<desc>lat.=55.814358, lon.=26.191586, Alt.=158.748169m. Speed=38.844002m/h.</desc>
<speed>10.790000</speed>
</trkpt>
<trkpt lat="55.814434" lon="26.191694">
<ele>158.822388</ele>
<time>2010-07-17T12:21:46Z</time>
<desc>lat.=55.814434, lon.=26.191694, Alt.=158.822388m. Speed=35.532001m/h.</desc>
<speed>9.870000</speed>
</trkpt>
<trkpt lat="55.814499" lon="26.191784">
<ele>158.826294</ele>
<time>2010-07-17T12:21:47Z</time>
<desc>lat.=55.814499, lon.=26.191784, Alt.=158.826294m. Speed=31.968000m/h.</desc>
<speed>8.880000</speed>
</trkpt>
<trkpt lat="55.814568" lon="26.191864">
<ele>159.029419</ele>
<time>2010-07-17T12:21:48Z</time>
<desc>lat.=55.814568, lon.=26.191864, Alt.=159.029419m. Speed=31.356001m/h.</desc>
<speed>8.710000</speed>
</trkpt>
<trkpt lat="55.814629" lon="26.191936">
<ele>159.232544</ele>
<time>2010-07-17T12:21:49Z</time>
<desc>lat.=55.814629, lon.=26.191936, Alt.=159.232544m. Speed=30.204000m/h.</desc>
<speed>8.390000</speed>
</trkpt>
<trkpt lat="55.814686" lon="26.192007">
<ele>159.037231</ele>
<time>2010-07-17T12:21:50Z</time>
<desc>lat.=55.814686, lon.=26.192007, Alt.=159.037231m. Speed=30.204000m/h.</desc>
<speed>8.390000</speed>
</trkpt>
<trkpt lat="55.814743" lon="26.192072">
<ele>159.107544</ele>
<time>2010-07-17T12:21:51Z</time>
<desc>lat.=55.814743, lon.=26.192072, Alt.=159.107544m. Speed=28.188000m/h.</desc>
<speed>7.830000</speed>
</trkpt>
<trkpt lat="55.814804" lon="26.192127">
<ele>159.150513</ele>
<time>2010-07-17T12:21:52Z</time>
<desc>lat.=55.814804, lon.=26.192127, Alt.=159.150513m. Speed=25.271999m/h.</desc>
<speed>7.020000</speed>
</trkpt>
<trkpt lat="55.814857" lon="26.192177">
<ele>159.228638</ele>
<time>2010-07-17T12:21:53Z</time>
<desc>lat.=55.814857, lon.=26.192177, Alt.=159.228638m. Speed=23.724001m/h.</desc>
<speed>6.590000</speed>
</trkpt>
<trkpt lat="55.814911" lon="26.192200">
<ele>157.373169</ele>
<time>2010-07-17T12:21:54Z</time>
<desc>lat.=55.814911, lon.=26.192200, Alt.=157.373169m. Speed=22.572001m/h.</desc>
<speed>6.270000</speed>
</trkpt>
<trkpt lat="55.814964" lon="26.192238">
<ele>157.353638</ele>
<time>2010-07-17T12:21:55Z</time>
<desc>lat.=55.814964, lon.=26.192238, Alt.=157.353638m. Speed=22.284000m/h.</desc>
<speed>6.190000</speed>
</trkpt>
<trkpt lat="55.815014" lon="26.192276">
<ele>157.412231</ele>
<time>2010-07-17T12:21:56Z</time>
<desc>lat.=55.815014, lon.=26.192276, Alt.=157.412231m. Speed=21.275999m/h.</desc>
<speed>5.910000</speed>
</trkpt>
<trkpt lat="55.815067" lon="26.192318">
<ele>156.986450</ele>
<time>2010-07-17T12:21:57Z</time>
<desc>lat.=55.815067, lon.=26.192318, Alt.=156.986450m. Speed=24.695999m/h.</desc>
<speed>6.860000</speed>
</trkpt>
<trkpt lat="55.815125" lon="26.192373">
<ele>156.728638</ele>
<time>2010-07-17T12:21:58Z</time>
<desc>lat.=55.815125, lon.=26.192373, Alt.=156.728638m. Speed=27.792000m/h.</desc>
<speed>7.720000</speed>
</trkpt>
<trkpt lat="55.815182" lon="26.192457">
<ele>156.306763</ele>
<time>2010-07-17T12:21:59Z</time>
<desc>lat.=55.815182, lon.=26.192457, Alt.=156.306763m. Speed=29.916000m/h.</desc>
<speed>8.310000</speed>
</trkpt>
<trkpt lat="55.815239" lon="26.192551">
<ele>155.955200</ele>
<time>2010-07-17T12:22:00Z</time>
<desc>lat.=55.815239, lon.=26.192551, Alt.=155.955200m. Speed=30.384001m/h.</desc>
<speed>8.440000</speed>
</trkpt>
<trkpt lat="55.815296" lon="26.192648">
<ele>155.877075</ele>
<time>2010-07-17T12:22:01Z</time>
<desc>lat.=55.815296, lon.=26.192648, Alt.=155.877075m. Speed=31.464001m/h.</desc>
<speed>8.740000</speed>
</trkpt>
<trkpt lat="55.815353" lon="26.192732">
<ele>155.920044</ele>
<time>2010-07-17T12:22:02Z</time>
<desc>lat.=55.815353, lon.=26.192732, Alt.=155.920044m. Speed=29.771999m/h.</desc>
<speed>8.270000</speed>
</trkpt>
<trkpt lat="55.815407" lon="26.192820">
<ele>156.130981</ele>
<time>2010-07-17T12:22:03Z</time>
<desc>lat.=55.815407, lon.=26.192820, Alt.=156.130981m. Speed=28.476000m/h.</desc>
<speed>7.910000</speed>
</trkpt>
<trkpt lat="55.815460" lon="26.192896">
<ele>155.994263</ele>
<time>2010-07-17T12:22:04Z</time>
<desc>lat.=55.815460, lon.=26.192896, Alt.=155.994263m. Speed=26.280001m/h.</desc>
<speed>7.300000</speed>
</trkpt>
<trkpt lat="55.815506" lon="26.192974">
<ele>155.990356</ele>
<time>2010-07-17T12:22:05Z</time>
<desc>lat.=55.815506, lon.=26.192974, Alt.=155.990356m. Speed=25.271999m/h.</desc>
<speed>7.020000</speed>
</trkpt>
<trkpt lat="55.815552" lon="26.193037">
<ele>156.017700</ele>
<time>2010-07-17T12:22:06Z</time>
<desc>lat.=55.815552, lon.=26.193037, Alt.=156.017700m. Speed=21.636000m/h.</desc>
<speed>6.010000</speed>
</trkpt>
<trkpt lat="55.815598" lon="26.193089">
<ele>156.076294</ele>
<time>2010-07-17T12:22:07Z</time>
<desc>lat.=55.815598, lon.=26.193089, Alt.=156.076294m. Speed=20.160000m/h.</desc>
<speed>5.600000</speed>
</trkpt>
<trkpt lat="55.815636" lon="26.193140">
<ele>156.154419</ele>
<time>2010-07-17T12:22:08Z</time>
<desc>lat.=55.815636, lon.=26.193140, Alt.=156.154419m. Speed=18.827999m/h.</desc>
<speed>5.230000</speed>
</trkpt>
<trkpt lat="55.815659" lon="26.193199">
<ele>156.345825</ele>
<time>2010-07-17T12:22:09Z</time>
<desc>lat.=55.815659, lon.=26.193199, Alt.=156.345825m. Speed=15.660000m/h.</desc>
<speed>4.350000</speed>
</trkpt>
<trkpt lat="55.815681" lon="26.193258">
<ele>156.595825</ele>
<time>2010-07-17T12:22:10Z</time>
<desc>lat.=55.815681, lon.=26.193258, Alt.=156.595825m. Speed=14.688000m/h.</desc>
<speed>4.080000</speed>
</trkpt>
<trkpt lat="55.815704" lon="26.193304">
<ele>156.838013</ele>
<time>2010-07-17T12:22:11Z</time>
<desc>lat.=55.815704, lon.=26.193304, Alt.=156.838013m. Speed=13.320000m/h.</desc>
<speed>3.700000</speed>
</trkpt>
<trkpt lat="55.815723" lon="26.193354">
<ele>156.857544</ele>
<time>2010-07-17T12:22:12Z</time>
<desc>lat.=55.815723, lon.=26.193354, Alt.=156.857544m. Speed=10.368000m/h.</desc>
<speed>2.880000</speed>
</trkpt>
<trkpt lat="55.815735" lon="26.193384">
<ele>156.509888</ele>
<time>2010-07-17T12:22:13Z</time>
<desc>lat.=55.815735, lon.=26.193384, Alt.=156.509888m. Speed=7.344000m/h.</desc>
<speed>2.040000</speed>
</trkpt>
<trkpt lat="55.815746" lon="26.193415">
<ele>156.502075</ele>
<time>2010-07-17T12:22:14Z</time>
<desc>lat.=55.815746, lon.=26.193415, Alt.=156.502075m. Speed=6.768000m/h.</desc>
<speed>1.880000</speed>
</trkpt>
<trkpt lat="55.815742" lon="26.193474">
<ele>156.982544</ele>
<time>2010-07-17T12:22:15Z</time>
<desc>lat.=55.815742, lon.=26.193474, Alt.=156.982544m. Speed=8.316000m/h.</desc>
<speed>2.310000</speed>
</trkpt>
<trkpt lat="55.815750" lon="26.193527">
<ele>159.181763</ele>
<time>2010-07-17T12:22:16Z</time>
<desc>lat.=55.815750, lon.=26.193527, Alt.=159.181763m. Speed=7.920000m/h.</desc>
<speed>2.200000</speed>
</trkpt>
<trkpt lat="55.815758" lon="26.193563">
<ele>158.963013</ele>
<time>2010-07-17T12:22:17Z</time>
<desc>lat.=55.815758, lon.=26.193563, Alt.=158.963013m. Speed=8.352000m/h.</desc>
<speed>2.320000</speed>
</trkpt>
<trkpt lat="55.815769" lon="26.193609">
<ele>158.603638</ele>
<time>2010-07-17T12:22:18Z</time>
<desc>lat.=55.815769, lon.=26.193609, Alt.=158.603638m. Speed=9.288000m/h.</desc>
<speed>2.580000</speed>
</trkpt>
<trkpt lat="55.815781" lon="26.193655">
<ele>158.607544</ele>
<time>2010-07-17T12:22:19Z</time>
<desc>lat.=55.815781, lon.=26.193655, Alt.=158.607544m. Speed=9.396000m/h.</desc>
<speed>2.610000</speed>
</trkpt>
<trkpt lat="55.815788" lon="26.193699">
<ele>159.466919</ele>
<time>2010-07-17T12:22:20Z</time>
<desc>lat.=55.815788, lon.=26.193699, Alt.=159.466919m. Speed=8.892000m/h.</desc>
<speed>2.470000</speed>
</trkpt>
<trkpt lat="55.815800" lon="26.193735">
<ele>159.509888</ele>
<time>2010-07-17T12:22:21Z</time>
<desc>lat.=55.815800, lon.=26.193735, Alt.=159.509888m. Speed=8.820000m/h.</desc>
<speed>2.450000</speed>
</trkpt>
<trkpt lat="55.815811" lon="26.193771">
<ele>159.525513</ele>
<time>2010-07-17T12:22:22Z</time>
<desc>lat.=55.815811, lon.=26.193771, Alt.=159.525513m. Speed=9.144000m/h.</desc>
<speed>2.540000</speed>
</trkpt>
<trkpt lat="55.815826" lon="26.193804">
<ele>159.611450</ele>
<time>2010-07-17T12:22:23Z</time>
<desc>lat.=55.815826, lon.=26.193804, Alt.=159.611450m. Speed=8.856000m/h.</desc>
<speed>2.460000</speed>
</trkpt>
<trkpt lat="55.815842" lon="26.193842">
<ele>159.627075</ele>
<time>2010-07-17T12:22:24Z</time>
<desc>lat.=55.815842, lon.=26.193842, Alt.=159.627075m. Speed=11.664000m/h.</desc>
<speed>3.240000</speed>
</trkpt>
<trkpt lat="55.815861" lon="26.193909">
<ele>159.611450</ele>
<time>2010-07-17T12:22:25Z</time>
<desc>lat.=55.815861, lon.=26.193909, Alt.=159.611450m. Speed=16.920000m/h.</desc>
<speed>4.700000</speed>
</trkpt>
<trkpt lat="55.815884" lon="26.193993">
<ele>159.517700</ele>
<time>2010-07-17T12:22:26Z</time>
<desc>lat.=55.815884, lon.=26.193993, Alt.=159.517700m. Speed=20.448000m/h.</desc>
<speed>5.680000</speed>
</trkpt>
<trkpt lat="55.815907" lon="26.194082">
<ele>159.451294</ele>
<time>2010-07-17T12:22:27Z</time>
<desc>lat.=55.815907, lon.=26.194082, Alt.=159.451294m. Speed=21.600000m/h.</desc>
<speed>6.000000</speed>
</trkpt>
<trkpt lat="55.815941" lon="26.194195">
<ele>159.349731</ele>
<time>2010-07-17T12:22:28Z</time>
<desc>lat.=55.815941, lon.=26.194195, Alt.=159.349731m. Speed=23.256001m/h.</desc>
<speed>6.460000</speed>
</trkpt>
<trkpt lat="55.815964" lon="26.194292">
<ele>159.334106</ele>
<time>2010-07-17T12:22:29Z</time>
<desc>lat.=55.815964, lon.=26.194292, Alt.=159.334106m. Speed=24.408001m/h.</desc>
<speed>6.780000</speed>
</trkpt>
<trkpt lat="55.815987" lon="26.194393">
<ele>159.216919</ele>
<time>2010-07-17T12:22:30Z</time>
<desc>lat.=55.815987, lon.=26.194393, Alt.=159.216919m. Speed=23.760000m/h.</desc>
<speed>6.600000</speed>
</trkpt>
<trkpt lat="55.816010" lon="26.194490">
<ele>159.150513</ele>
<time>2010-07-17T12:22:31Z</time>
<desc>lat.=55.816010, lon.=26.194490, Alt.=159.150513m. Speed=23.472000m/h.</desc>
<speed>6.520000</speed>
</trkpt>
<trkpt lat="55.816029" lon="26.194584">
<ele>159.060669</ele>
<time>2010-07-17T12:22:32Z</time>
<desc>lat.=55.816029, lon.=26.194584, Alt.=159.060669m. Speed=22.464001m/h.</desc>
<speed>6.240000</speed>
</trkpt>
<trkpt lat="55.816048" lon="26.194674">
<ele>158.970825</ele>
<time>2010-07-17T12:22:33Z</time>
<desc>lat.=55.816048, lon.=26.194674, Alt.=158.970825m. Speed=20.988001m/h.</desc>
<speed>5.830000</speed>
</trkpt>
<trkpt lat="55.816071" lon="26.194757">
<ele>158.888794</ele>
<time>2010-07-17T12:22:34Z</time>
<desc>lat.=55.816071, lon.=26.194757, Alt.=158.888794m. Speed=19.368000m/h.</desc>
<speed>5.380000</speed>
</trkpt>
<trkpt lat="55.816090" lon="26.194836">
<ele>158.779419</ele>
<time>2010-07-17T12:22:35Z</time>
<desc>lat.=55.816090, lon.=26.194836, Alt.=158.779419m. Speed=17.927999m/h.</desc>
<speed>4.980000</speed>
</trkpt>
<trkpt lat="55.816109" lon="26.194906">
<ele>158.779419</ele>
<time>2010-07-17T12:22:36Z</time>
<desc>lat.=55.816109, lon.=26.194906, Alt.=158.779419m. Speed=16.379999m/h.</desc>
<speed>4.550000</speed>
</trkpt>
<trkpt lat="55.816132" lon="26.194984">
<ele>158.755981</ele>
<time>2010-07-17T12:22:37Z</time>
<desc>lat.=55.816132, lon.=26.194984, Alt.=158.755981m. Speed=15.192000m/h.</desc>
<speed>4.220000</speed>
</trkpt>
<trkpt lat="55.816147" lon="26.195042">
<ele>158.713013</ele>
<time>2010-07-17T12:22:38Z</time>
<desc>lat.=55.816147, lon.=26.195042, Alt.=158.713013m. Speed=13.464000m/h.</desc>
<speed>3.740000</speed>
</trkpt>
<trkpt lat="55.816162" lon="26.195101">
<ele>158.693481</ele>
<time>2010-07-17T12:22:39Z</time>
<desc>lat.=55.816162, lon.=26.195101, Alt.=158.693481m. Speed=13.788000m/h.</desc>
<speed>3.830000</speed>
</trkpt>
<trkpt lat="55.816174" lon="26.195156">
<ele>158.966919</ele>
<time>2010-07-17T12:22:40Z</time>
<desc>lat.=55.816174, lon.=26.195156, Alt.=158.966919m. Speed=13.356000m/h.</desc>
<speed>3.710000</speed>
</trkpt>
<trkpt lat="55.816185" lon="26.195211">
<ele>158.951294</ele>
<time>2010-07-17T12:22:41Z</time>
<desc>lat.=55.816185, lon.=26.195211, Alt.=158.951294m. Speed=12.096000m/h.</desc>
<speed>3.360000</speed>
</trkpt>
<trkpt lat="55.816200" lon="26.195269">
<ele>158.904419</ele>
<time>2010-07-17T12:22:42Z</time>
<desc>lat.=55.816200, lon.=26.195269, Alt.=158.904419m. Speed=12.600000m/h.</desc>
<speed>3.500000</speed>
</trkpt>
<trkpt lat="55.816219" lon="26.195330">
<ele>158.802856</ele>
<time>2010-07-17T12:22:43Z</time>
<desc>lat.=55.816219, lon.=26.195330, Alt.=158.802856m. Speed=13.284000m/h.</desc>
<speed>3.690000</speed>
</trkpt>
<trkpt lat="55.816227" lon="26.195387">
<ele>158.658325</ele>
<time>2010-07-17T12:22:44Z</time>
<desc>lat.=55.816227, lon.=26.195387, Alt.=158.658325m. Speed=13.536000m/h.</desc>
<speed>3.760000</speed>
</trkpt>
<trkpt lat="55.816238" lon="26.195452">
<ele>158.658325</ele>
<time>2010-07-17T12:22:45Z</time>
<desc>lat.=55.816238, lon.=26.195452, Alt.=158.658325m. Speed=13.788000m/h.</desc>
<speed>3.830000</speed>
</trkpt>
<trkpt lat="55.816242" lon="26.195520">
<ele>158.658325</ele>
<time>2010-07-17T12:22:46Z</time>
<desc>lat.=55.816242, lon.=26.195520, Alt.=158.658325m. Speed=14.832000m/h.</desc>
<speed>4.120000</speed>
</trkpt>
<trkpt lat="55.816257" lon="26.195572">
<ele>158.619263</ele>
<time>2010-07-17T12:22:47Z</time>
<desc>lat.=55.816257, lon.=26.195572, Alt.=158.619263m. Speed=14.832000m/h.</desc>
<speed>4.120000</speed>
</trkpt>
<trkpt lat="55.816261" lon="26.195642">
<ele>158.541138</ele>
<time>2010-07-17T12:22:48Z</time>
<desc>lat.=55.816261, lon.=26.195642, Alt.=158.541138m. Speed=16.200001m/h.</desc>
<speed>4.500000</speed>
</trkpt>
<trkpt lat="55.816265" lon="26.195726">
<ele>158.134888</ele>
<time>2010-07-17T12:22:49Z</time>
<desc>lat.=55.816265, lon.=26.195726, Alt.=158.134888m. Speed=18.035999m/h.</desc>
<speed>5.010000</speed>
</trkpt>
<trkpt lat="55.816265" lon="26.195816">
<ele>157.607544</ele>
<time>2010-07-17T12:22:50Z</time>
<desc>lat.=55.816265, lon.=26.195816, Alt.=157.607544m. Speed=18.612000m/h.</desc>
<speed>5.170000</speed>
</trkpt>
<trkpt lat="55.816265" lon="26.195898">
<ele>157.685669</ele>
<time>2010-07-17T12:22:51Z</time>
<desc>lat.=55.816265, lon.=26.195898, Alt.=157.685669m. Speed=19.115999m/h.</desc>
<speed>5.310000</speed>
</trkpt>
<trkpt lat="55.816265" lon="26.195974">
<ele>157.588013</ele>
<time>2010-07-17T12:22:52Z</time>
<desc>lat.=55.816265, lon.=26.195974, Alt.=157.588013m. Speed=18.719999m/h.</desc>
<speed>5.200000</speed>
</trkpt>
<trkpt lat="55.816265" lon="26.196056">
<ele>157.361450</ele>
<time>2010-07-17T12:22:53Z</time>
<desc>lat.=55.816265, lon.=26.196056, Alt.=157.361450m. Speed=18.972000m/h.</desc>
<speed>5.270000</speed>
</trkpt>
<trkpt lat="55.816265" lon="26.196152">
<ele>156.923950</ele>
<time>2010-07-17T12:22:54Z</time>
<desc>lat.=55.816265, lon.=26.196152, Alt.=156.923950m. Speed=23.544001m/h.</desc>
<speed>6.540000</speed>
</trkpt>
<trkpt lat="55.816265" lon="26.196257">
<ele>156.361450</ele>
<time>2010-07-17T12:22:55Z</time>
<desc>lat.=55.816265, lon.=26.196257, Alt.=156.361450m. Speed=22.643999m/h.</desc>
<speed>6.290000</speed>
</trkpt>
<trkpt lat="55.816273" lon="26.196356">
<ele>156.099731</ele>
<time>2010-07-17T12:22:56Z</time>
<desc>lat.=55.816273, lon.=26.196356, Alt.=156.099731m. Speed=22.500000m/h.</desc>
<speed>6.250000</speed>
</trkpt>
<trkpt lat="55.816284" lon="26.196478">
<ele>155.689575</ele>
<time>2010-07-17T12:22:57Z</time>
<desc>lat.=55.816284, lon.=26.196478, Alt.=155.689575m. Speed=28.764000m/h.</desc>
<speed>7.990000</speed>
</trkpt>
<trkpt lat="55.816307" lon="26.196619">
<ele>155.322388</ele>
<time>2010-07-17T12:22:58Z</time>
<desc>lat.=55.816307, lon.=26.196619, Alt.=155.322388m. Speed=32.939999m/h.</desc>
<speed>9.150000</speed>
</trkpt>
<trkpt lat="55.816330" lon="26.196768">
<ele>155.181763</ele>
<time>2010-07-17T12:22:59Z</time>
<desc>lat.=55.816330, lon.=26.196768, Alt.=155.181763m. Speed=34.776001m/h.</desc>
<speed>9.660000</speed>
</trkpt>
<trkpt lat="55.816372" lon="26.196949">
<ele>155.146606</ele>
<time>2010-07-17T12:23:00Z</time>
<desc>lat.=55.816372, lon.=26.196949, Alt.=155.146606m. Speed=39.060001m/h.</desc>
<speed>10.850000</speed>
</trkpt>
<trkpt lat="55.816414" lon="26.197124">
<ele>154.705200</ele>
<time>2010-07-17T12:23:01Z</time>
<desc>lat.=55.816414, lon.=26.197124, Alt.=154.705200m. Speed=38.627998m/h.</desc>
<speed>10.730000</speed>
</trkpt>
<trkpt lat="55.816452" lon="26.197279">
<ele>154.705200</ele>
<time>2010-07-17T12:23:02Z</time>
<desc>lat.=55.816452, lon.=26.197279, Alt.=154.705200m. Speed=37.043999m/h.</desc>
<speed>10.290000</speed>
</trkpt>
<trkpt lat="55.816486" lon="26.197430">
<ele>154.900513</ele>
<time>2010-07-17T12:23:03Z</time>
<desc>lat.=55.816486, lon.=26.197430, Alt.=154.900513m. Speed=36.576000m/h.</desc>
<speed>10.160000</speed>
</trkpt>
<trkpt lat="55.816505" lon="26.197578">
<ele>155.037231</ele>
<time>2010-07-17T12:23:04Z</time>
<desc>lat.=55.816505, lon.=26.197578, Alt.=155.037231m. Speed=34.632000m/h.</desc>
<speed>9.620000</speed>
</trkpt>
<trkpt lat="55.816521" lon="26.197716">
<ele>154.752075</ele>
<time>2010-07-17T12:23:05Z</time>
<desc>lat.=55.816521, lon.=26.197716, Alt.=154.752075m. Speed=30.743999m/h.</desc>
<speed>8.540000</speed>
</trkpt>
<trkpt lat="55.816536" lon="26.197844">
<ele>154.670044</ele>
<time>2010-07-17T12:23:06Z</time>
<desc>lat.=55.816536, lon.=26.197844, Alt.=154.670044m. Speed=28.799999m/h.</desc>
<speed>8.000000</speed>
</trkpt>
<trkpt lat="55.816559" lon="26.197968">
<ele>154.466919</ele>
<time>2010-07-17T12:23:07Z</time>
<desc>lat.=55.816559, lon.=26.197968, Alt.=154.466919m. Speed=30.888000m/h.</desc>
<speed>8.580000</speed>
</trkpt>
<trkpt lat="55.816582" lon="26.198084">
<ele>154.568481</ele>
<time>2010-07-17T12:23:08Z</time>
<desc>lat.=55.816582, lon.=26.198084, Alt.=154.568481m. Speed=28.836000m/h.</desc>
<speed>8.010000</speed>
</trkpt>
<trkpt lat="55.816616" lon="26.198175">
<ele>154.486450</ele>
<time>2010-07-17T12:23:09Z</time>
<desc>lat.=55.816616, lon.=26.198175, Alt.=154.486450m. Speed=24.804001m/h.</desc>
<speed>6.890000</speed>
</trkpt>
<trkpt lat="55.816662" lon="26.198254">
<ele>154.189575</ele>
<time>2010-07-17T12:23:10Z</time>
<desc>lat.=55.816662, lon.=26.198254, Alt.=154.189575m. Speed=25.128000m/h.</desc>
<speed>6.980000</speed>
</trkpt>
<trkpt lat="55.816708" lon="26.198328">
<ele>154.130981</ele>
<time>2010-07-17T12:23:11Z</time>
<desc>lat.=55.816708, lon.=26.198328, Alt.=154.130981m. Speed=27.216000m/h.</desc>
<speed>7.560000</speed>
</trkpt>
<trkpt lat="55.816761" lon="26.198425">
<ele>154.205200</ele>
<time>2010-07-17T12:23:12Z</time>
<desc>lat.=55.816761, lon.=26.198425, Alt.=154.205200m. Speed=24.156000m/h.</desc>
<speed>6.710000</speed>
</trkpt>
<trkpt lat="55.816822" lon="26.198483">
<ele>154.052856</ele>
<time>2010-07-17T12:23:13Z</time>
<desc>lat.=55.816822, lon.=26.198483, Alt.=154.052856m. Speed=26.028000m/h.</desc>
<speed>7.230000</speed>
</trkpt>
<trkpt lat="55.816898" lon="26.198568">
<ele>155.244263</ele>
<time>2010-07-17T12:23:14Z</time>
<desc>lat.=55.816898, lon.=26.198568, Alt.=155.244263m. Speed=30.204000m/h.</desc>
<speed>8.390000</speed>
</trkpt>
<trkpt lat="55.816986" lon="26.198660">
<ele>154.482544</ele>
<time>2010-07-17T12:23:15Z</time>
<desc>lat.=55.816986, lon.=26.198660, Alt.=154.482544m. Speed=33.875999m/h.</desc>
<speed>9.410000</speed>
</trkpt>
<trkpt lat="55.817070" lon="26.198769">
<ele>153.845825</ele>
<time>2010-07-17T12:23:16Z</time>
<desc>lat.=55.817070, lon.=26.198769, Alt.=153.845825m. Speed=35.459999m/h.</desc>
<speed>9.850000</speed>
</trkpt>
<trkpt lat="55.817150" lon="26.198851">
<ele>153.486450</ele>
<time>2010-07-17T12:23:17Z</time>
<desc>lat.=55.817150, lon.=26.198851, Alt.=153.486450m. Speed=35.028000m/h.</desc>
<speed>9.730000</speed>
</trkpt>
<trkpt lat="55.817234" lon="26.198933">
<ele>153.345825</ele>
<time>2010-07-17T12:23:18Z</time>
<desc>lat.=55.817234, lon.=26.198933, Alt.=153.345825m. Speed=36.756001m/h.</desc>
<speed>10.210000</speed>
</trkpt>
<trkpt lat="55.817307" lon="26.199022">
<ele>153.150513</ele>
<time>2010-07-17T12:23:19Z</time>
<desc>lat.=55.817307, lon.=26.199022, Alt.=153.150513m. Speed=34.416000m/h.</desc>
<speed>9.560000</speed>
</trkpt>
<trkpt lat="55.817368" lon="26.199116">
<ele>152.927856</ele>
<time>2010-07-17T12:23:20Z</time>
<desc>lat.=55.817368, lon.=26.199116, Alt.=152.927856m. Speed=31.680000m/h.</desc>
<speed>8.800000</speed>
</trkpt>
<trkpt lat="55.817444" lon="26.199215">
<ele>152.857544</ele>
<time>2010-07-17T12:23:21Z</time>
<desc>lat.=55.817444, lon.=26.199215, Alt.=152.857544m. Speed=32.652000m/h.</desc>
<speed>9.070000</speed>
</trkpt>
<trkpt lat="55.817520" lon="26.199335">
<ele>153.107544</ele>
<time>2010-07-17T12:23:22Z</time>
<desc>lat.=55.817520, lon.=26.199335, Alt.=153.107544m. Speed=32.580002m/h.</desc>
<speed>9.050001</speed>
</trkpt>
<trkpt lat="55.817577" lon="26.199450">
<ele>152.884888</ele>
<time>2010-07-17T12:23:23Z</time>
<desc>lat.=55.817577, lon.=26.199450, Alt.=152.884888m. Speed=31.968000m/h.</desc>
<speed>8.880000</speed>
</trkpt>
<trkpt lat="55.817635" lon="26.199549">
<ele>152.646606</ele>
<time>2010-07-17T12:23:24Z</time>
<desc>lat.=55.817635, lon.=26.199549, Alt.=152.646606m. Speed=29.052000m/h.</desc>
<speed>8.070000</speed>
</trkpt>
<trkpt lat="55.817684" lon="26.199633">
<ele>152.412231</ele>
<time>2010-07-17T12:23:25Z</time>
<desc>lat.=55.817684, lon.=26.199633, Alt.=152.412231m. Speed=25.344000m/h.</desc>
<speed>7.040000</speed>
</trkpt>
<trkpt lat="55.817730" lon="26.199711">
<ele>152.119263</ele>
<time>2010-07-17T12:23:26Z</time>
<desc>lat.=55.817730, lon.=26.199711, Alt.=152.119263m. Speed=23.688000m/h.</desc>
<speed>6.580000</speed>
</trkpt>
<trkpt lat="55.817783" lon="26.199787">
<ele>151.564575</ele>
<time>2010-07-17T12:23:27Z</time>
<desc>lat.=55.817783, lon.=26.199787, Alt.=151.564575m. Speed=21.959999m/h.</desc>
<speed>6.100000</speed>
</trkpt>
<trkpt lat="55.817837" lon="26.199862">
<ele>151.080200</ele>
<time>2010-07-17T12:23:28Z</time>
<desc>lat.=55.817837, lon.=26.199862, Alt.=151.080200m. Speed=21.888000m/h.</desc>
<speed>6.080000</speed>
</trkpt>
<trkpt lat="55.817879" lon="26.199953">
<ele>150.857544</ele>
<time>2010-07-17T12:23:29Z</time>
<desc>lat.=55.817879, lon.=26.199953, Alt.=150.857544m. Speed=20.988001m/h.</desc>
<speed>5.830000</speed>
</trkpt>
<trkpt lat="55.817909" lon="26.200048">
<ele>150.713013</ele>
<time>2010-07-17T12:23:30Z</time>
<desc>lat.=55.817909, lon.=26.200048, Alt.=150.713013m. Speed=20.448000m/h.</desc>
<speed>5.680000</speed>
</trkpt>
<trkpt lat="55.817944" lon="26.200132">
<ele>150.423950</ele>
<time>2010-07-17T12:23:31Z</time>
<desc>lat.=55.817944, lon.=26.200132, Alt.=150.423950m. Speed=19.872000m/h.</desc>
<speed>5.520000</speed>
</trkpt>
<trkpt lat="55.817986" lon="26.200218">
<ele>150.150513</ele>
<time>2010-07-17T12:23:32Z</time>
<desc>lat.=55.817986, lon.=26.200218, Alt.=150.150513m. Speed=20.556000m/h.</desc>
<speed>5.710000</speed>
</trkpt>
<trkpt lat="55.818012" lon="26.200304">
<ele>150.103638</ele>
<time>2010-07-17T12:23:33Z</time>
<desc>lat.=55.818012, lon.=26.200304, Alt.=150.103638m. Speed=17.388000m/h.</desc>
<speed>4.830000</speed>
</trkpt>
<trkpt lat="55.818027" lon="26.200378">
<ele>149.990356</ele>
<time>2010-07-17T12:23:34Z</time>
<desc>lat.=55.818027, lon.=26.200378, Alt.=149.990356m. Speed=15.084000m/h.</desc>
<speed>4.190000</speed>
</trkpt>
<trkpt lat="55.818054" lon="26.200438">
<ele>149.822388</ele>
<time>2010-07-17T12:23:35Z</time>
<desc>lat.=55.818054, lon.=26.200438, Alt.=149.822388m. Speed=14.544000m/h.</desc>
<speed>4.040000</speed>
</trkpt>
<trkpt lat="55.818089" lon="26.200499">
<ele>149.611450</ele>
<time>2010-07-17T12:23:36Z</time>
<desc>lat.=55.818089, lon.=26.200499, Alt.=149.611450m. Speed=17.136000m/h.</desc>
<speed>4.760000</speed>
</trkpt>
<trkpt lat="55.818138" lon="26.200571">
<ele>149.423950</ele>
<time>2010-07-17T12:23:37Z</time>
<desc>lat.=55.818138, lon.=26.200571, Alt.=149.423950m. Speed=21.132000m/h.</desc>
<speed>5.870000</speed>
</trkpt>
<trkpt lat="55.818218" lon="26.200655">
<ele>149.170044</ele>
<time>2010-07-17T12:23:38Z</time>
<desc>lat.=55.818218, lon.=26.200655, Alt.=149.170044m. Speed=25.596001m/h.</desc>
<speed>7.110000</speed>
</trkpt>
<trkpt lat="55.818291" lon="26.200731">
<ele>148.798950</ele>
<time>2010-07-17T12:23:39Z</time>
<desc>lat.=55.818291, lon.=26.200731, Alt.=148.798950m. Speed=25.236000m/h.</desc>
<speed>7.010000</speed>
</trkpt>
<trkpt lat="55.818367" lon="26.200794">
<ele>148.451294</ele>
<time>2010-07-17T12:23:40Z</time>
<desc>lat.=55.818367, lon.=26.200794, Alt.=148.451294m. Speed=26.351999m/h.</desc>
<speed>7.320000</speed>
</trkpt>
<trkpt lat="55.818443" lon="26.200855">
<ele>147.884888</ele>
<time>2010-07-17T12:23:41Z</time>
<desc>lat.=55.818443, lon.=26.200855, Alt.=147.884888m. Speed=25.128000m/h.</desc>
<speed>6.980000</speed>
</trkpt>
<trkpt lat="55.818516" lon="26.200916">
<ele>147.548950</ele>
<time>2010-07-17T12:23:42Z</time>
<desc>lat.=55.818516, lon.=26.200916, Alt.=147.548950m. Speed=23.184000m/h.</desc>
<speed>6.440000</speed>
</trkpt>
<trkpt lat="55.818577" lon="26.200962">
<ele>147.205200</ele>
<time>2010-07-17T12:23:43Z</time>
<desc>lat.=55.818577, lon.=26.200962, Alt.=147.205200m. Speed=21.059999m/h.</desc>
<speed>5.850000</speed>
</trkpt>
<trkpt lat="55.818642" lon="26.201008">
<ele>146.740356</ele>
<time>2010-07-17T12:23:44Z</time>
<desc>lat.=55.818642, lon.=26.201008, Alt.=146.740356m. Speed=21.708000m/h.</desc>
<speed>6.030000</speed>
</trkpt>
<trkpt lat="55.818695" lon="26.201046">
<ele>146.189575</ele>
<time>2010-07-17T12:23:45Z</time>
<desc>lat.=55.818695, lon.=26.201046, Alt.=146.189575m. Speed=20.340000m/h.</desc>
<speed>5.650000</speed>
</trkpt>
<trkpt lat="55.818745" lon="26.201088">
<ele>146.638794</ele>
<time>2010-07-17T12:23:46Z</time>
<desc>lat.=55.818745, lon.=26.201088, Alt.=146.638794m. Speed=19.584000m/h.</desc>
<speed>5.440000</speed>
</trkpt>
<trkpt lat="55.818794" lon="26.201117">
<ele>146.670044</ele>
<time>2010-07-17T12:23:47Z</time>
<desc>lat.=55.818794, lon.=26.201117, Alt.=146.670044m. Speed=18.180000m/h.</desc>
<speed>5.050000</speed>
</trkpt>
<trkpt lat="55.818836" lon="26.201143">
<ele>146.435669</ele>
<time>2010-07-17T12:23:48Z</time>
<desc>lat.=55.818836, lon.=26.201143, Alt.=146.435669m. Speed=17.100000m/h.</desc>
<speed>4.750000</speed>
</trkpt>
<trkpt lat="55.818878" lon="26.201174">
<ele>146.505981</ele>
<time>2010-07-17T12:23:49Z</time>
<desc>lat.=55.818878, lon.=26.201174, Alt.=146.505981m. Speed=15.516000m/h.</desc>
<speed>4.310000</speed>
</trkpt>
<trkpt lat="55.818920" lon="26.201202">
<ele>147.130981</ele>
<time>2010-07-17T12:23:50Z</time>
<desc>lat.=55.818920, lon.=26.201202, Alt.=147.130981m. Speed=14.580000m/h.</desc>
<speed>4.050000</speed>
</trkpt>
<trkpt lat="55.818954" lon="26.201227">
<ele>147.138794</ele>
<time>2010-07-17T12:23:51Z</time>
<desc>lat.=55.818954, lon.=26.201227, Alt.=147.138794m. Speed=12.924000m/h.</desc>
<speed>3.590000</speed>
</trkpt>
<trkpt lat="55.818985" lon="26.201250">
<ele>147.009888</ele>
<time>2010-07-17T12:23:52Z</time>
<desc>lat.=55.818985, lon.=26.201250, Alt.=147.009888m. Speed=11.052000m/h.</desc>
<speed>3.070000</speed>
</trkpt>
<trkpt lat="55.819012" lon="26.201275">
<ele>147.103638</ele>
<time>2010-07-17T12:23:53Z</time>
<desc>lat.=55.819012, lon.=26.201275, Alt.=147.103638m. Speed=10.944000m/h.</desc>
<speed>3.040000</speed>
</trkpt>
<trkpt lat="55.819038" lon="26.201298">
<ele>148.060669</ele>
<time>2010-07-17T12:23:54Z</time>
<desc>lat.=55.819038, lon.=26.201298, Alt.=148.060669m. Speed=11.196000m/h.</desc>
<speed>3.110000</speed>
</trkpt>
<trkpt lat="55.819069" lon="26.201317">
<ele>148.041138</ele>
<time>2010-07-17T12:23:55Z</time>
<desc>lat.=55.819069, lon.=26.201317, Alt.=148.041138m. Speed=9.720000m/h.</desc>
<speed>2.700000</speed>
</trkpt>
<trkpt lat="55.819096" lon="26.201338">
<ele>148.060669</ele>
<time>2010-07-17T12:23:56Z</time>
<desc>lat.=55.819096, lon.=26.201338, Alt.=148.060669m. Speed=7.884000m/h.</desc>
<speed>2.190000</speed>
</trkpt>
<trkpt lat="55.819115" lon="26.201353">
<ele>148.283325</ele>
<time>2010-07-17T12:23:57Z</time>
<desc>lat.=55.819115, lon.=26.201353, Alt.=148.283325m. Speed=7.200000m/h.</desc>
<speed>2.000000</speed>
</trkpt>
<trkpt lat="55.819134" lon="26.201357">
<ele>148.568481</ele>
<time>2010-07-17T12:23:58Z</time>
<desc>lat.=55.819134, lon.=26.201357, Alt.=148.568481m. Speed=6.804000m/h.</desc>
<speed>1.890000</speed>
</trkpt>
<trkpt lat="55.819153" lon="26.201368">
<ele>148.966919</ele>
<time>2010-07-17T12:23:59Z</time>
<desc>lat.=55.819153, lon.=26.201368, Alt.=148.966919m. Speed=5.256000m/h.</desc>
<speed>1.460000</speed>
</trkpt>
<trkpt lat="55.819168" lon="26.201378">
<ele>149.236450</ele>
<time>2010-07-17T12:24:00Z</time>
<desc>lat.=55.819168, lon.=26.201378, Alt.=149.236450m. Speed=5.580000m/h.</desc>
<speed>1.550000</speed>
</trkpt>
<trkpt lat="55.819183" lon="26.201391">
<ele>149.423950</ele>
<time>2010-07-17T12:24:01Z</time>
<desc>lat.=55.819183, lon.=26.201391, Alt.=149.423950m. Speed=6.192000m/h.</desc>
<speed>1.720000</speed>
</trkpt>
<trkpt lat="55.819202" lon="26.201408">
<ele>149.349731</ele>
<time>2010-07-17T12:24:02Z</time>
<desc>lat.=55.819202, lon.=26.201408, Alt.=149.349731m. Speed=7.200000m/h.</desc>
<speed>2.000000</speed>
</trkpt>
<trkpt lat="55.819214" lon="26.201420">
<ele>149.685669</ele>
<time>2010-07-17T12:24:03Z</time>
<desc>lat.=55.819214, lon.=26.201420, Alt.=149.685669m. Speed=6.264000m/h.</desc>
<speed>1.740000</speed>
</trkpt>
<trkpt lat="55.819225" lon="26.201435">
<ele>149.767700</ele>
<time>2010-07-17T12:24:04Z</time>
<desc>lat.=55.819225, lon.=26.201435, Alt.=149.767700m. Speed=5.364000m/h.</desc>
<speed>1.490000</speed>
</trkpt>
<trkpt lat="55.819241" lon="26.201452">
<ele>149.955200</ele>
<time>2010-07-17T12:24:05Z</time>
<desc>lat.=55.819241, lon.=26.201452, Alt.=149.955200m. Speed=6.660000m/h.</desc>
<speed>1.850000</speed>
</trkpt>
<trkpt lat="55.819260" lon="26.201473">
<ele>150.244263</ele>
<time>2010-07-17T12:24:06Z</time>
<desc>lat.=55.819260, lon.=26.201473, Alt.=150.244263m. Speed=6.660000m/h.</desc>
<speed>1.850000</speed>
</trkpt>
<trkpt lat="55.819279" lon="26.201496">
<ele>150.263794</ele>
<time>2010-07-17T12:24:07Z</time>
<desc>lat.=55.819279, lon.=26.201496, Alt.=150.263794m. Speed=6.624000m/h.</desc>
<speed>1.840000</speed>
</trkpt>
<trkpt lat="55.819302" lon="26.201506">
<ele>149.673950</ele>
<time>2010-07-17T12:24:08Z</time>
<desc>lat.=55.819302, lon.=26.201506, Alt.=149.673950m. Speed=7.416000m/h.</desc>
<speed>2.060000</speed>
</trkpt>
<trkpt lat="55.819321" lon="26.201511">
<ele>149.607544</ele>
<time>2010-07-17T12:24:09Z</time>
<desc>lat.=55.819321, lon.=26.201511, Alt.=149.607544m. Speed=5.976000m/h.</desc>
<speed>1.660000</speed>
</trkpt>
<trkpt lat="55.819336" lon="26.201521">
<ele>149.693481</ele>
<time>2010-07-17T12:24:10Z</time>
<desc>lat.=55.819336, lon.=26.201521, Alt.=149.693481m. Speed=6.192000m/h.</desc>
<speed>1.720000</speed>
</trkpt>
<trkpt lat="55.819351" lon="26.201527">
<ele>149.505981</ele>
<time>2010-07-17T12:24:11Z</time>
<desc>lat.=55.819351, lon.=26.201527, Alt.=149.505981m. Speed=6.660000m/h.</desc>
<speed>1.850000</speed>
</trkpt>
<trkpt lat="55.819366" lon="26.201534">
<ele>149.630981</ele>
<time>2010-07-17T12:24:12Z</time>
<desc>lat.=55.819366, lon.=26.201534, Alt.=149.630981m. Speed=6.840000m/h.</desc>
<speed>1.900000</speed>
</trkpt>
<trkpt lat="55.819382" lon="26.201548">
<ele>149.861450</ele>
<time>2010-07-17T12:24:13Z</time>
<desc>lat.=55.819382, lon.=26.201548, Alt.=149.861450m. Speed=6.012000m/h.</desc>
<speed>1.670000</speed>
</trkpt>
<trkpt lat="55.819393" lon="26.201561">
<ele>149.588013</ele>
<time>2010-07-17T12:24:14Z</time>
<desc>lat.=55.819393, lon.=26.201561, Alt.=149.588013m. Speed=6.444000m/h.</desc>
<speed>1.790000</speed>
</trkpt>
<trkpt lat="55.819408" lon="26.201576">
<ele>149.654419</ele>
<time>2010-07-17T12:24:15Z</time>
<desc>lat.=55.819408, lon.=26.201576, Alt.=149.654419m. Speed=6.552000m/h.</desc>
<speed>1.820000</speed>
</trkpt>
<trkpt lat="55.819427" lon="26.201588">
<ele>149.666138</ele>
<time>2010-07-17T12:24:16Z</time>
<desc>lat.=55.819427, lon.=26.201588, Alt.=149.666138m. Speed=6.480000m/h.</desc>
<speed>1.800000</speed>
</trkpt>
<trkpt lat="55.819443" lon="26.201597">
<ele>149.763794</ele>
<time>2010-07-17T12:24:17Z</time>
<desc>lat.=55.819443, lon.=26.201597, Alt.=149.763794m. Speed=7.092000m/h.</desc>
<speed>1.970000</speed>
</trkpt>
<trkpt lat="55.819462" lon="26.201614">
<ele>149.838013</ele>
<time>2010-07-17T12:24:18Z</time>
<desc>lat.=55.819462, lon.=26.201614, Alt.=149.838013m. Speed=6.408000m/h.</desc>
<speed>1.780000</speed>
</trkpt>
<trkpt lat="55.819489" lon="26.201626">
<ele>150.158325</ele>
<time>2010-07-17T12:24:19Z</time>
<desc>lat.=55.819489, lon.=26.201626, Alt.=150.158325m. Speed=7.812000m/h.</desc>
<speed>2.170000</speed>
</trkpt>
<trkpt lat="55.819508" lon="26.201637">
<ele>150.240356</ele>
<time>2010-07-17T12:24:20Z</time>
<desc>lat.=55.819508, lon.=26.201637, Alt.=150.240356m. Speed=6.696000m/h.</desc>
<speed>1.860000</speed>
</trkpt>
<trkpt lat="55.819523" lon="26.201649">
<ele>150.474731</ele>
<time>2010-07-17T12:24:21Z</time>
<desc>lat.=55.819523, lon.=26.201649, Alt.=150.474731m. Speed=6.480000m/h.</desc>
<speed>1.800000</speed>
</trkpt>
<trkpt lat="55.819538" lon="26.201666">
<ele>150.525513</ele>
<time>2010-07-17T12:24:22Z</time>
<desc>lat.=55.819538, lon.=26.201666, Alt.=150.525513m. Speed=6.120000m/h.</desc>
<speed>1.700000</speed>
</trkpt>
<trkpt lat="55.819550" lon="26.201679">
<ele>150.627075</ele>
<time>2010-07-17T12:24:23Z</time>
<desc>lat.=55.819550, lon.=26.201679, Alt.=150.627075m. Speed=5.796000m/h.</desc>
<speed>1.610000</speed>
</trkpt>
<trkpt lat="55.819565" lon="26.201698">
<ele>150.709106</ele>
<time>2010-07-17T12:24:24Z</time>
<desc>lat.=55.819565, lon.=26.201698, Alt.=150.709106m. Speed=6.192000m/h.</desc>
<speed>1.720000</speed>
</trkpt>
<trkpt lat="55.819580" lon="26.201717">
<ele>150.845825</ele>
<time>2010-07-17T12:24:25Z</time>
<desc>lat.=55.819580, lon.=26.201717, Alt.=150.845825m. Speed=6.372000m/h.</desc>
<speed>1.770000</speed>
</trkpt>
<trkpt lat="55.819592" lon="26.201725">
<ele>151.091919</ele>
<time>2010-07-17T12:24:26Z</time>
<desc>lat.=55.819592, lon.=26.201725, Alt.=151.091919m. Speed=5.616000m/h.</desc>
<speed>1.560000</speed>
</trkpt>
<trkpt lat="55.819607" lon="26.201727">
<ele>151.408325</ele>
<time>2010-07-17T12:24:27Z</time>
<desc>lat.=55.819607, lon.=26.201727, Alt.=151.408325m. Speed=5.436000m/h.</desc>
<speed>1.510000</speed>
</trkpt>
<trkpt lat="55.819630" lon="26.201733">
<ele>151.740356</ele>
<time>2010-07-17T12:24:28Z</time>
<desc>lat.=55.819630, lon.=26.201733, Alt.=151.740356m. Speed=7.884000m/h.</desc>
<speed>2.190000</speed>
</trkpt>
<trkpt lat="55.819645" lon="26.201744">
<ele>152.021606</ele>
<time>2010-07-17T12:24:29Z</time>
<desc>lat.=55.819645, lon.=26.201744, Alt.=152.021606m. Speed=7.092000m/h.</desc>
<speed>1.970000</speed>
</trkpt>
<trkpt lat="55.819664" lon="26.201761">
<ele>152.365356</ele>
<time>2010-07-17T12:24:30Z</time>
<desc>lat.=55.819664, lon.=26.201761, Alt.=152.365356m. Speed=6.588000m/h.</desc>
<speed>1.830000</speed>
</trkpt>
<trkpt lat="55.819695" lon="26.201773">
<ele>152.880981</ele>
<time>2010-07-17T12:24:31Z</time>
<desc>lat.=55.819695, lon.=26.201773, Alt.=152.880981m. Speed=7.344000m/h.</desc>
<speed>2.040000</speed>
</trkpt>
<trkpt lat="55.819710" lon="26.201788">
<ele>153.095825</ele>
<time>2010-07-17T12:24:32Z</time>
<desc>lat.=55.819710, lon.=26.201788, Alt.=153.095825m. Speed=6.660000m/h.</desc>
<speed>1.850000</speed>
</trkpt>
<trkpt lat="55.819725" lon="26.201803">
<ele>153.498169</ele>
<time>2010-07-17T12:24:33Z</time>
<desc>lat.=55.819725, lon.=26.201803, Alt.=153.498169m. Speed=7.812000m/h.</desc>
<speed>2.170000</speed>
</trkpt>
<trkpt lat="55.819744" lon="26.201811">
<ele>153.853638</ele>
<time>2010-07-17T12:24:34Z</time>
<desc>lat.=55.819744, lon.=26.201811, Alt.=153.853638m. Speed=9.180000m/h.</desc>
<speed>2.550000</speed>
</trkpt>
<trkpt lat="55.819763" lon="26.201826">
<ele>154.205200</ele>
<time>2010-07-17T12:24:35Z</time>
<desc>lat.=55.819763, lon.=26.201826, Alt.=154.205200m. Speed=9.432000m/h.</desc>
<speed>2.620000</speed>
</trkpt>
<trkpt lat="55.819786" lon="26.201839">
<ele>154.525513</ele>
<time>2010-07-17T12:24:36Z</time>
<desc>lat.=55.819786, lon.=26.201839, Alt.=154.525513m. Speed=8.712000m/h.</desc>
<speed>2.420000</speed>
</trkpt>
<trkpt lat="55.819824" lon="26.201849">
<ele>155.185669</ele>
<time>2010-07-17T12:24:37Z</time>
<desc>lat.=55.819824, lon.=26.201849, Alt.=155.185669m. Speed=7.812000m/h.</desc>
<speed>2.170000</speed>
</trkpt>
<trkpt lat="55.819843" lon="26.201874">
<ele>155.685669</ele>
<time>2010-07-17T12:24:38Z</time>
<desc>lat.=55.819843, lon.=26.201874, Alt.=155.685669m. Speed=8.928000m/h.</desc>
<speed>2.480000</speed>
</trkpt>
<trkpt lat="55.819859" lon="26.201891">
<ele>155.955200</ele>
<time>2010-07-17T12:24:39Z</time>
<desc>lat.=55.819859, lon.=26.201891, Alt.=155.955200m. Speed=8.352000m/h.</desc>
<speed>2.320000</speed>
</trkpt>
<trkpt lat="55.819870" lon="26.201906">
<ele>156.072388</ele>
<time>2010-07-17T12:24:40Z</time>
<desc>lat.=55.819870, lon.=26.201906, Alt.=156.072388m. Speed=6.804000m/h.</desc>
<speed>1.890000</speed>
</trkpt>
<trkpt lat="55.819874" lon="26.201923">
<ele>155.912231</ele>
<time>2010-07-17T12:24:41Z</time>
<desc>lat.=55.819874, lon.=26.201923, Alt.=155.912231m. Speed=5.040000m/h.</desc>
<speed>1.400000</speed>
</trkpt>
<trkpt lat="55.819893" lon="26.201937">
<ele>156.291138</ele>
<time>2010-07-17T12:24:42Z</time>
<desc>lat.=55.819893, lon.=26.201937, Alt.=156.291138m. Speed=6.912000m/h.</desc>
<speed>1.920000</speed>
</trkpt>
<trkpt lat="55.819904" lon="26.201952">
<ele>155.814575</ele>
<time>2010-07-17T12:24:43Z</time>
<desc>lat.=55.819904, lon.=26.201952, Alt.=155.814575m. Speed=8.892000m/h.</desc>
<speed>2.470000</speed>
</trkpt>
<trkpt lat="55.819923" lon="26.201965">
<ele>156.220825</ele>
<time>2010-07-17T12:24:44Z</time>
<desc>lat.=55.819923, lon.=26.201965, Alt.=156.220825m. Speed=9.252000m/h.</desc>
<speed>2.570000</speed>
</trkpt>
<trkpt lat="55.819942" lon="26.201998">
<ele>156.580200</ele>
<time>2010-07-17T12:24:45Z</time>
<desc>lat.=55.819942, lon.=26.201998, Alt.=156.580200m. Speed=8.316000m/h.</desc>
<speed>2.310000</speed>
</trkpt>
<trkpt lat="55.819958" lon="26.202026">
<ele>156.857544</ele>
<time>2010-07-17T12:24:46Z</time>
<desc>lat.=55.819958, lon.=26.202026, Alt.=156.857544m. Speed=8.712000m/h.</desc>
<speed>2.420000</speed>
</trkpt>
<trkpt lat="55.819973" lon="26.202051">
<ele>157.572388</ele>
<time>2010-07-17T12:24:47Z</time>
<desc>lat.=55.819973, lon.=26.202051, Alt.=157.572388m. Speed=7.272000m/h.</desc>
<speed>2.020000</speed>
</trkpt>
<trkpt lat="55.819981" lon="26.202080">
<ele>158.041138</ele>
<time>2010-07-17T12:24:48Z</time>
<desc>lat.=55.819981, lon.=26.202080, Alt.=158.041138m. Speed=7.128000m/h.</desc>
<speed>1.980000</speed>
</trkpt>
<trkpt lat="55.819988" lon="26.202099">
<ele>157.963013</ele>
<time>2010-07-17T12:24:49Z</time>
<desc>lat.=55.819988, lon.=26.202099, Alt.=157.963013m. Speed=6.552000m/h.</desc>
<speed>1.820000</speed>
</trkpt>
<trkpt lat="55.819988" lon="26.202118">
<ele>158.166138</ele>
<time>2010-07-17T12:24:50Z</time>
<desc>lat.=55.819988, lon.=26.202118, Alt.=158.166138m. Speed=5.868000m/h.</desc>
<speed>1.630000</speed>
</trkpt>
<trkpt lat="55.819996" lon="26.202139">
<ele>158.423950</ele>
<time>2010-07-17T12:24:51Z</time>
<desc>lat.=55.819996, lon.=26.202139, Alt.=158.423950m. Speed=5.436000m/h.</desc>
<speed>1.510000</speed>
</trkpt>
<trkpt lat="55.820004" lon="26.202154">
<ele>158.338013</ele>
<time>2010-07-17T12:24:52Z</time>
<desc>lat.=55.820004, lon.=26.202154, Alt.=158.338013m. Speed=4.644000m/h.</desc>
<speed>1.290000</speed>
</trkpt>
<trkpt lat="55.820011" lon="26.202173">
<ele>158.455200</ele>
<time>2010-07-17T12:24:53Z</time>
<desc>lat.=55.820011, lon.=26.202173, Alt.=158.455200m. Speed=4.176000m/h.</desc>
<speed>1.160000</speed>
</trkpt>
<trkpt lat="55.820015" lon="26.202185">
<ele>158.588013</ele>
<time>2010-07-17T12:24:54Z</time>
<desc>lat.=55.820015, lon.=26.202185, Alt.=158.588013m. Speed=1.512000m/h.</desc>
<speed>0.420000</speed>
</trkpt>
<trkpt lat="55.820015" lon="26.202194">
<ele>158.599731</ele>
<time>2010-07-17T12:24:55Z</time>
<desc>lat.=55.820015, lon.=26.202194, Alt.=158.599731m. Speed=0.936000m/h.</desc>
<speed>0.260000</speed>
</trkpt>
<trkpt lat="55.820019" lon="26.202196">
<ele>158.552856</ele>
<time>2010-07-17T12:24:56Z</time>
<desc>lat.=55.820019, lon.=26.202196, Alt.=158.552856m. Speed=0.504000m/h.</desc>
<speed>0.140000</speed>
</trkpt>
<trkpt lat="55.820015" lon="26.202200">
<ele>158.498169</ele>
<time>2010-07-17T12:24:57Z</time>
<desc>lat.=55.820015, lon.=26.202200, Alt.=158.498169m. Speed=0.468000m/h.</desc>
<speed>0.130000</speed>
</trkpt>
<trkpt lat="55.820015" lon="26.202200">
<ele>158.521606</ele>
<time>2010-07-17T12:24:58Z</time>
<desc>lat.=55.820015, lon.=26.202200, Alt.=158.521606m. Speed=0.648000m/h.</desc>
<speed>0.180000</speed>
</trkpt>
<trkpt lat="55.820015" lon="26.202200">
<ele>158.537231</ele>
<time>2010-07-17T12:24:59Z</time>
<desc>lat.=55.820015, lon.=26.202200, Alt.=158.537231m. Speed=0.972000m/h.</desc>
<speed>0.270000</speed>
</trkpt>
<trkpt lat="55.820015" lon="26.202196">
<ele>158.552856</ele>
<time>2010-07-17T12:25:00Z</time>
<desc>lat.=55.820015, lon.=26.202196, Alt.=158.552856m. Speed=0.612000m/h.</desc>
<speed>0.170000</speed>
</trkpt>
<trkpt lat="55.820011" lon="26.202194">
<ele>158.564575</ele>
<time>2010-07-17T12:25:01Z</time>
<desc>lat.=55.820011, lon.=26.202194, Alt.=158.564575m. Speed=0.756000m/h.</desc>
<speed>0.210000</speed>
</trkpt>
<trkpt lat="55.820011" lon="26.202192">
<ele>158.576294</ele>
<time>2010-07-17T12:25:02Z</time>
<desc>lat.=55.820011, lon.=26.202192, Alt.=158.576294m. Speed=0.540000m/h.</desc>
<speed>0.150000</speed>
</trkpt>
<trkpt lat="55.820011" lon="26.202192">
<ele>158.607544</ele>
<time>2010-07-17T12:25:03Z</time>
<desc>lat.=55.820011, lon.=26.202192, Alt.=158.607544m. Speed=0.468000m/h.</desc>
<speed>0.130000</speed>
</trkpt>
<trkpt lat="55.820007" lon="26.202192">
<ele>158.634888</ele>
<time>2010-07-17T12:25:04Z</time>
<desc>lat.=55.820007, lon.=26.202192, Alt.=158.634888m. Speed=0.144000m/h.</desc>
<speed>0.040000</speed>
</trkpt>
<trkpt lat="55.820007" lon="26.202192">
<ele>158.654419</ele>
<time>2010-07-17T12:25:05Z</time>
<desc>lat.=55.820007, lon.=26.202192, Alt.=158.654419m. Speed=0.252000m/h.</desc>
<speed>0.070000</speed>
</trkpt>
<trkpt lat="55.820007" lon="26.202192">
<ele>158.666138</ele>
<time>2010-07-17T12:25:06Z</time>
<desc>lat.=55.820007, lon.=26.202192, Alt.=158.666138m. Speed=0.180000m/h.</desc>
<speed>0.050000</speed>
</trkpt>
<trkpt lat="55.820007" lon="26.202192">
<ele>158.685669</ele>
<time>2010-07-17T12:25:07Z</time>
<desc>lat.=55.820007, lon.=26.202192, Alt.=158.685669m. Speed=0.072000m/h.</desc>
<speed>0.020000</speed>
</trkpt>
<trkpt lat="55.820007" lon="26.202192">
<ele>158.701294</ele>
<time>2010-07-17T12:25:08Z</time>
<desc>lat.=55.820007, lon.=26.202192, Alt.=158.701294m. Speed=0.432000m/h.</desc>
<speed>0.120000</speed>
</trkpt>
<trkpt lat="55.820007" lon="26.202190">
<ele>158.709106</ele>
<time>2010-07-17T12:25:09Z</time>
<desc>lat.=55.820007, lon.=26.202190, Alt.=158.709106m. Speed=0.324000m/h.</desc>
<speed>0.090000</speed>
</trkpt>
<trkpt lat="55.820011" lon="26.202190">
<ele>158.709106</ele>
<time>2010-07-17T12:25:10Z</time>
<desc>lat.=55.820011, lon.=26.202190, Alt.=158.709106m. Speed=0.576000m/h.</desc>
<speed>0.160000</speed>
</trkpt>
<trkpt lat="55.820011" lon="26.202188">
<ele>158.728638</ele>
<time>2010-07-17T12:25:11Z</time>
<desc>lat.=55.820011, lon.=26.202188, Alt.=158.728638m. Speed=0.324000m/h.</desc>
<speed>0.090000</speed>
</trkpt>
<trkpt lat="55.820011" lon="26.202187">
<ele>158.744263</ele>
<time>2010-07-17T12:25:12Z</time>
<desc>lat.=55.820011, lon.=26.202187, Alt.=158.744263m. Speed=0.468000m/h.</desc>
<speed>0.130000</speed>
</trkpt>
<trkpt lat="55.820011" lon="26.202187">
<ele>158.748169</ele>
<time>2010-07-17T12:25:13Z</time>
<desc>lat.=55.820011, lon.=26.202187, Alt.=158.748169m. Speed=0.540000m/h.</desc>
<speed>0.150000</speed>
</trkpt>
<trkpt lat="55.820015" lon="26.202187">
<ele>158.748169</ele>
<time>2010-07-17T12:25:14Z</time>
<desc>lat.=55.820015, lon.=26.202187, Alt.=158.748169m. Speed=0.576000m/h.</desc>
<speed>0.160000</speed>
</trkpt>
<trkpt lat="55.820015" lon="26.202185">
<ele>158.755981</ele>
<time>2010-07-17T12:25:15Z</time>
<desc>lat.=55.820015, lon.=26.202185, Alt.=158.755981m. Speed=0.360000m/h.</desc>
<speed>0.100000</speed>
</trkpt>
<trkpt lat="55.820015" lon="26.202183">
<ele>158.755981</ele>
<time>2010-07-17T12:25:16Z</time>
<desc>lat.=55.820015, lon.=26.202183, Alt.=158.755981m. Speed=0.216000m/h.</desc>
<speed>0.060000</speed>
</trkpt>
<trkpt lat="55.820015" lon="26.202183">
<ele>158.759888</ele>
<time>2010-07-17T12:25:17Z</time>
<desc>lat.=55.820015, lon.=26.202183, Alt.=158.759888m. Speed=0.216000m/h.</desc>
<speed>0.060000</speed>
</trkpt>
<trkpt lat="55.820015" lon="26.202183">
<ele>158.763794</ele>
<time>2010-07-17T12:25:18Z</time>
<desc>lat.=55.820015, lon.=26.202183, Alt.=158.763794m. Speed=0.288000m/h.</desc>
<speed>0.080000</speed>
</trkpt>
<trkpt lat="55.820015" lon="26.202185">
<ele>158.767700</ele>
<time>2010-07-17T12:25:19Z</time>
<desc>lat.=55.820015, lon.=26.202185, Alt.=158.767700m. Speed=0.360000m/h.</desc>
<speed>0.100000</speed>
</trkpt>
<trkpt lat="55.820019" lon="26.202185">
<ele>158.767700</ele>
<time>2010-07-17T12:25:20Z</time>
<desc>lat.=55.820019, lon.=26.202185, Alt.=158.767700m. Speed=0.792000m/h.</desc>
<speed>0.220000</speed>
</trkpt>
<trkpt lat="55.820019" lon="26.202181">
<ele>158.771606</ele>
<time>2010-07-17T12:25:21Z</time>
<desc>lat.=55.820019, lon.=26.202181, Alt.=158.771606m. Speed=0.180000m/h.</desc>
<speed>0.050000</speed>
</trkpt>
<trkpt lat="55.820019" lon="26.202181">
<ele>158.775513</ele>
<time>2010-07-17T12:25:22Z</time>
<desc>lat.=55.820019, lon.=26.202181, Alt.=158.775513m. Speed=0.108000m/h.</desc>
<speed>0.030000</speed>
</trkpt>
<trkpt lat="55.820019" lon="26.202181">
<ele>158.779419</ele>
<time>2010-07-17T12:25:23Z</time>
<desc>lat.=55.820019, lon.=26.202181, Alt.=158.779419m. Speed=0.468000m/h.</desc>
<speed>0.130000</speed>
</trkpt>
<trkpt lat="55.820015" lon="26.202181">
<ele>158.783325</ele>
<time>2010-07-17T12:25:24Z</time>
<desc>lat.=55.820015, lon.=26.202181, Alt.=158.783325m. Speed=0.360000m/h.</desc>
<speed>0.100000</speed>
</trkpt>
<trkpt lat="55.820015" lon="26.202181">
<ele>158.783325</ele>
<time>2010-07-17T12:25:25Z</time>
<desc>lat.=55.820015, lon.=26.202181, Alt.=158.783325m. Speed=0.576000m/h.</desc>
<speed>0.160000</speed>
</trkpt>
<trkpt lat="55.820015" lon="26.202185">
<ele>158.783325</ele>
<time>2010-07-17T12:25:26Z</time>
<desc>lat.=55.820015, lon.=26.202185, Alt.=158.783325m. Speed=0.468000m/h.</desc>
<speed>0.130000</speed>
</trkpt>
<trkpt lat="55.820015" lon="26.202185">
<ele>158.783325</ele>
<time>2010-07-17T12:25:27Z</time>
<desc>lat.=55.820015, lon.=26.202185, Alt.=158.783325m. Speed=0.288000m/h.</desc>
<speed>0.080000</speed>
</trkpt>
<trkpt lat="55.820011" lon="26.202187">
<ele>158.779419</ele>
<time>2010-07-17T12:25:28Z</time>
<desc>lat.=55.820011, lon.=26.202187, Alt.=158.779419m. Speed=0.396000m/h.</desc>
<speed>0.110000</speed>
</trkpt>
<trkpt lat="55.820011" lon="26.202185">
<ele>158.775513</ele>
<time>2010-07-17T12:25:29Z</time>
<desc>lat.=55.820011, lon.=26.202185, Alt.=158.775513m. Speed=0.144000m/h.</desc>
<speed>0.040000</speed>
</trkpt>
<trkpt lat="55.820011" lon="26.202185">
<ele>158.775513</ele>
<time>2010-07-17T12:25:30Z</time>
<desc>lat.=55.820011, lon.=26.202185, Alt.=158.775513m. Speed=0.072000m/h.</desc>
<speed>0.020000</speed>
</trkpt>
<trkpt lat="55.820011" lon="26.202187">
<ele>158.775513</ele>
<time>2010-07-17T12:25:31Z</time>
<desc>lat.=55.820011, lon.=26.202187, Alt.=158.775513m. Speed=0.828000m/h.</desc>
<speed>0.230000</speed>
</trkpt>
<trkpt lat="55.820007" lon="26.202188">
<ele>158.779419</ele>
<time>2010-07-17T12:25:32Z</time>
<desc>lat.=55.820007, lon.=26.202188, Alt.=158.779419m. Speed=1.512000m/h.</desc>
<speed>0.420000</speed>
</trkpt>
<trkpt lat="55.820007" lon="26.202192">
<ele>158.787231</ele>
<time>2010-07-17T12:25:33Z</time>
<desc>lat.=55.820007, lon.=26.202192, Alt.=158.787231m. Speed=1.584000m/h.</desc>
<speed>0.440000</speed>
</trkpt>
<trkpt lat="55.820007" lon="26.202200">
<ele>158.795044</ele>
<time>2010-07-17T12:25:34Z</time>
<desc>lat.=55.820007, lon.=26.202200, Alt.=158.795044m. Speed=1.152000m/h.</desc>
<speed>0.320000</speed>
</trkpt>
<trkpt lat="55.820004" lon="26.202206">
<ele>158.802856</ele>
<time>2010-07-17T12:25:35Z</time>
<desc>lat.=55.820004, lon.=26.202206, Alt.=158.802856m. Speed=0.828000m/h.</desc>
<speed>0.230000</speed>
</trkpt>
<trkpt lat="55.820004" lon="26.202208">
<ele>158.810669</ele>
<time>2010-07-17T12:25:36Z</time>
<desc>lat.=55.820004, lon.=26.202208, Alt.=158.810669m. Speed=0.648000m/h.</desc>
<speed>0.180000</speed>
</trkpt>
<trkpt lat="55.820004" lon="26.202209">
<ele>158.818481</ele>
<time>2010-07-17T12:25:37Z</time>
<desc>lat.=55.820004, lon.=26.202209, Alt.=158.818481m. Speed=0.612000m/h.</desc>
<speed>0.170000</speed>
</trkpt>
<trkpt lat="55.820004" lon="26.202213">
<ele>158.826294</ele>
<time>2010-07-17T12:25:38Z</time>
<desc>lat.=55.820004, lon.=26.202213, Alt.=158.826294m. Speed=1.044000m/h.</desc>
<speed>0.290000</speed>
</trkpt>
<trkpt lat="55.820000" lon="26.202217">
<ele>158.830200</ele>
<time>2010-07-17T12:25:39Z</time>
<desc>lat.=55.820000, lon.=26.202217, Alt.=158.830200m. Speed=0.648000m/h.</desc>
<speed>0.180000</speed>
</trkpt>
<trkpt lat="55.820000" lon="26.202219">
<ele>158.838013</ele>
<time>2010-07-17T12:25:40Z</time>
<desc>lat.=55.820000, lon.=26.202219, Alt.=158.838013m. Speed=0.576000m/h.</desc>
<speed>0.160000</speed>
</trkpt>
<trkpt lat="55.820004" lon="26.202223">
<ele>158.841919</ele>
<time>2010-07-17T12:25:41Z</time>
<desc>lat.=55.820004, lon.=26.202223, Alt.=158.841919m. Speed=0.252000m/h.</desc>
<speed>0.070000</speed>
</trkpt>
<trkpt lat="55.820004" lon="26.202223">
<ele>158.845825</ele>
<time>2010-07-17T12:25:42Z</time>
<desc>lat.=55.820004, lon.=26.202223, Alt.=158.845825m. Speed=0.576000m/h.</desc>
<speed>0.160000</speed>
</trkpt>
<trkpt lat="55.820004" lon="26.202221">
<ele>158.845825</ele>
<time>2010-07-17T12:25:43Z</time>
<desc>lat.=55.820004, lon.=26.202221, Alt.=158.845825m. Speed=0.324000m/h.</desc>
<speed>0.090000</speed>
</trkpt>
<trkpt lat="55.820004" lon="26.202221">
<ele>158.845825</ele>
<time>2010-07-17T12:25:44Z</time>
<desc>lat.=55.820004, lon.=26.202221, Alt.=158.845825m. Speed=0.612000m/h.</desc>
<speed>0.170000</speed>
</trkpt>
<trkpt lat="55.820004" lon="26.202221">
<ele>158.845825</ele>
<time>2010-07-17T12:25:45Z</time>
<desc>lat.=55.820004, lon.=26.202221, Alt.=158.845825m. Speed=0.612000m/h.</desc>
<speed>0.170000</speed>
</trkpt>
<trkpt lat="55.820007" lon="26.202217">
<ele>158.845825</ele>
<time>2010-07-17T12:25:46Z</time>
<desc>lat.=55.820007, lon.=26.202217, Alt.=158.845825m. Speed=0.360000m/h.</desc>
<speed>0.100000</speed>
</trkpt>
<trkpt lat="55.820007" lon="26.202217">
<ele>158.841919</ele>
<time>2010-07-17T12:25:47Z</time>
<desc>lat.=55.820007, lon.=26.202217, Alt.=158.841919m. Speed=0.324000m/h.</desc>
<speed>0.090000</speed>
</trkpt>
<trkpt lat="55.820007" lon="26.202219">
<ele>158.838013</ele>
<time>2010-07-17T12:25:48Z</time>
<desc>lat.=55.820007, lon.=26.202219, Alt.=158.838013m. Speed=0.324000m/h.</desc>
<speed>0.090000</speed>
</trkpt>
<trkpt lat="55.820007" lon="26.202217">
<ele>158.834106</ele>
<time>2010-07-17T12:25:49Z</time>
<desc>lat.=55.820007, lon.=26.202217, Alt.=158.834106m. Speed=0.216000m/h.</desc>
<speed>0.060000</speed>
</trkpt>
<trkpt lat="55.820007" lon="26.202217">
<ele>158.830200</ele>
<time>2010-07-17T12:25:50Z</time>
<desc>lat.=55.820007, lon.=26.202217, Alt.=158.830200m. Speed=0.288000m/h.</desc>
<speed>0.080000</speed>
</trkpt>
<trkpt lat="55.820007" lon="26.202219">
<ele>158.826294</ele>
<time>2010-07-17T12:25:51Z</time>
<desc>lat.=55.820007, lon.=26.202219, Alt.=158.826294m. Speed=1.008000m/h.</desc>
<speed>0.280000</speed>
</trkpt>
<trkpt lat="55.820007" lon="26.202223">
<ele>158.826294</ele>
<time>2010-07-17T12:25:52Z</time>
<desc>lat.=55.820007, lon.=26.202223, Alt.=158.826294m. Speed=0.108000m/h.</desc>
<speed>0.030000</speed>
</trkpt>
<trkpt lat="55.820007" lon="26.202223">
<ele>158.826294</ele>
<time>2010-07-17T12:25:53Z</time>
<desc>lat.=55.820007, lon.=26.202223, Alt.=158.826294m. Speed=0.396000m/h.</desc>
<speed>0.110000</speed>
</trkpt>
<trkpt lat="55.820007" lon="26.202221">
<ele>158.822388</ele>
<time>2010-07-17T12:25:54Z</time>
<desc>lat.=55.820007, lon.=26.202221, Alt.=158.822388m. Speed=0.972000m/h.</desc>
<speed>0.270000</speed>
</trkpt>
<trkpt lat="55.820007" lon="26.202217">
<ele>158.822388</ele>
<time>2010-07-17T12:25:55Z</time>
<desc>lat.=55.820007, lon.=26.202217, Alt.=158.822388m. Speed=0.648000m/h.</desc>
<speed>0.180000</speed>
</trkpt>
<trkpt lat="55.820007" lon="26.202215">
<ele>158.818481</ele>
<time>2010-07-17T12:25:56Z</time>
<desc>lat.=55.820007, lon.=26.202215, Alt.=158.818481m. Speed=0.324000m/h.</desc>
<speed>0.090000</speed>
</trkpt>
<trkpt lat="55.820007" lon="26.202215">
<ele>158.818481</ele>
<time>2010-07-17T12:25:57Z</time>
<desc>lat.=55.820007, lon.=26.202215, Alt.=158.818481m. Speed=0.756000m/h.</desc>
<speed>0.210000</speed>
</trkpt>
<trkpt lat="55.820004" lon="26.202215">
<ele>158.818481</ele>
<time>2010-07-17T12:25:58Z</time>
<desc>lat.=55.820004, lon.=26.202215, Alt.=158.818481m. Speed=0.828000m/h.</desc>
<speed>0.230000</speed>
</trkpt>
<trkpt lat="55.820004" lon="26.202217">
<ele>158.818481</ele>
<time>2010-07-17T12:25:59Z</time>
<desc>lat.=55.820004, lon.=26.202217, Alt.=158.818481m. Speed=1.368000m/h.</desc>
<speed>0.380000</speed>
</trkpt>
<trkpt lat="55.820000" lon="26.202221">
<ele>158.822388</ele>
<time>2010-07-17T12:26:00Z</time>
<desc>lat.=55.820000, lon.=26.202221, Alt.=158.822388m. Speed=0.936000m/h.</desc>
<speed>0.260000</speed>
</trkpt>
<trkpt lat="55.820000" lon="26.202225">
<ele>158.826294</ele>
<time>2010-07-17T12:26:01Z</time>
<desc>lat.=55.820000, lon.=26.202225, Alt.=158.826294m. Speed=0.936000m/h.</desc>
<speed>0.260000</speed>
</trkpt>
<trkpt lat="55.819996" lon="26.202229">
<ele>158.826294</ele>
<time>2010-07-17T12:26:02Z</time>
<desc>lat.=55.819996, lon.=26.202229, Alt.=158.826294m. Speed=1.080000m/h.</desc>
<speed>0.300000</speed>
</trkpt>
<trkpt lat="55.819996" lon="26.202232">
<ele>158.830200</ele>
<time>2010-07-17T12:26:03Z</time>
<desc>lat.=55.819996, lon.=26.202232, Alt.=158.830200m. Speed=0.720000m/h.</desc>
<speed>0.200000</speed>
</trkpt>
<trkpt lat="55.819996" lon="26.202234">
<ele>158.834106</ele>
<time>2010-07-17T12:26:04Z</time>
<desc>lat.=55.819996, lon.=26.202234, Alt.=158.834106m. Speed=0.396000m/h.</desc>
<speed>0.110000</speed>
</trkpt>
<trkpt lat="55.819992" lon="26.202234">
<ele>158.838013</ele>
<time>2010-07-17T12:26:05Z</time>
<desc>lat.=55.819992, lon.=26.202234, Alt.=158.838013m. Speed=0.252000m/h.</desc>
<speed>0.070000</speed>
</trkpt>
<trkpt lat="55.819992" lon="26.202234">
<ele>158.838013</ele>
<time>2010-07-17T12:26:06Z</time>
<desc>lat.=55.819992, lon.=26.202234, Alt.=158.838013m. Speed=0.036000m/h.</desc>
<speed>0.010000</speed>
</trkpt>
<trkpt lat="55.819992" lon="26.202234">
<ele>158.841919</ele>
<time>2010-07-17T12:26:07Z</time>
<desc>lat.=55.819992, lon.=26.202234, Alt.=158.841919m. Speed=0.072000m/h.</desc>
<speed>0.020000</speed>
</trkpt>
<trkpt lat="55.819992" lon="26.202234">
<ele>158.849731</ele>
<time>2010-07-17T12:26:08Z</time>
<desc>lat.=55.819992, lon.=26.202234, Alt.=158.849731m. Speed=0.828000m/h.</desc>
<speed>0.230000</speed>
</trkpt>
<trkpt lat="55.819992" lon="26.202238">
<ele>158.853638</ele>
<time>2010-07-17T12:26:09Z</time>
<desc>lat.=55.819992, lon.=26.202238, Alt.=158.853638m. Speed=1.116000m/h.</desc>
<speed>0.310000</speed>
</trkpt>
<trkpt lat="55.819992" lon="26.202242">
<ele>158.857544</ele>
<time>2010-07-17T12:26:10Z</time>
<desc>lat.=55.819992, lon.=26.202242, Alt.=158.857544m. Speed=1.188000m/h.</desc>
<speed>0.330000</speed>
</trkpt>
<trkpt lat="55.819988" lon="26.202248">
<ele>158.861450</ele>
<time>2010-07-17T12:26:11Z</time>
<desc>lat.=55.819988, lon.=26.202248, Alt.=158.861450m. Speed=1.044000m/h.</desc>
<speed>0.290000</speed>
</trkpt>
<trkpt lat="55.819992" lon="26.202251">
<ele>158.865356</ele>
<time>2010-07-17T12:26:12Z</time>
<desc>lat.=55.819992, lon.=26.202251, Alt.=158.865356m. Speed=1.080000m/h.</desc>
<speed>0.300000</speed>
</trkpt>
<trkpt lat="55.819992" lon="26.202255">
<ele>158.873169</ele>
<time>2010-07-17T12:26:13Z</time>
<desc>lat.=55.819992, lon.=26.202255, Alt.=158.873169m. Speed=0.252000m/h.</desc>
<speed>0.070000</speed>
</trkpt>
<trkpt lat="55.819992" lon="26.202257">
<ele>158.877075</ele>
<time>2010-07-17T12:26:14Z</time>
<desc>lat.=55.819992, lon.=26.202257, Alt.=158.877075m. Speed=0.360000m/h.</desc>
<speed>0.100000</speed>
</trkpt>
<trkpt lat="55.819992" lon="26.202259">
<ele>158.884888</ele>
<time>2010-07-17T12:26:15Z</time>
<desc>lat.=55.819992, lon.=26.202259, Alt.=158.884888m. Speed=0.504000m/h.</desc>
<speed>0.140000</speed>
</trkpt>
<trkpt lat="55.819992" lon="26.202261">
<ele>158.892700</ele>
<time>2010-07-17T12:26:16Z</time>
<desc>lat.=55.819992, lon.=26.202261, Alt.=158.892700m. Speed=0.756000m/h.</desc>
<speed>0.210000</speed>
</trkpt>
<trkpt lat="55.819988" lon="26.202263">
<ele>158.900513</ele>
<time>2010-07-17T12:26:17Z</time>
<desc>lat.=55.819988, lon.=26.202263, Alt.=158.900513m. Speed=1.152000m/h.</desc>
<speed>0.320000</speed>
</trkpt>
<trkpt lat="55.819988" lon="26.202267">
<ele>158.908325</ele>
<time>2010-07-17T12:26:18Z</time>
<desc>lat.=55.819988, lon.=26.202267, Alt.=158.908325m. Speed=0.612000m/h.</desc>
<speed>0.170000</speed>
</trkpt>
<trkpt lat="55.819988" lon="26.202269">
<ele>158.916138</ele>
<time>2010-07-17T12:26:19Z</time>
<desc>lat.=55.819988, lon.=26.202269, Alt.=158.916138m. Speed=0.900000m/h.</desc>
<speed>0.250000</speed>
</trkpt>
<trkpt lat="55.819984" lon="26.202272">
<ele>158.923950</ele>
<time>2010-07-17T12:26:20Z</time>
<desc>lat.=55.819984, lon.=26.202272, Alt.=158.923950m. Speed=1.260000m/h.</desc>
<speed>0.350000</speed>
</trkpt>
<trkpt lat="55.819984" lon="26.202278">
<ele>158.931763</ele>
<time>2010-07-17T12:26:21Z</time>
<desc>lat.=55.819984, lon.=26.202278, Alt.=158.931763m. Speed=0.936000m/h.</desc>
<speed>0.260000</speed>
</trkpt>
<trkpt lat="55.819984" lon="26.202282">
<ele>158.939575</ele>
<time>2010-07-17T12:26:22Z</time>
<desc>lat.=55.819984, lon.=26.202282, Alt.=158.939575m. Speed=0.792000m/h.</desc>
<speed>0.220000</speed>
</trkpt>
<trkpt lat="55.819981" lon="26.202284">
<ele>158.943481</ele>
<time>2010-07-17T12:26:23Z</time>
<desc>lat.=55.819981, lon.=26.202284, Alt.=158.943481m. Speed=0.612000m/h.</desc>
<speed>0.170000</speed>
</trkpt>
<trkpt lat="55.819981" lon="26.202286">
<ele>158.951294</ele>
<time>2010-07-17T12:26:24Z</time>
<desc>lat.=55.819981, lon.=26.202286, Alt.=158.951294m. Speed=0.432000m/h.</desc>
<speed>0.120000</speed>
</trkpt>
<trkpt lat="55.819981" lon="26.202288">
<ele>158.955200</ele>
<time>2010-07-17T12:26:25Z</time>
<desc>lat.=55.819981, lon.=26.202288, Alt.=158.955200m. Speed=0.108000m/h.</desc>
<speed>0.030000</speed>
</trkpt>
<trkpt lat="55.819981" lon="26.202288">
<ele>158.959106</ele>
<time>2010-07-17T12:26:26Z</time>
<desc>lat.=55.819981, lon.=26.202288, Alt.=158.959106m. Speed=0.432000m/h.</desc>
<speed>0.120000</speed>
</trkpt>
<trkpt lat="55.819981" lon="26.202288">
<ele>158.959106</ele>
<time>2010-07-17T12:26:27Z</time>
<desc>lat.=55.819981, lon.=26.202288, Alt.=158.959106m. Speed=1.116000m/h.</desc>
<speed>0.310000</speed>
</trkpt>
<trkpt lat="55.819984" lon="26.202284">
<ele>158.959106</ele>
<time>2010-07-17T12:26:28Z</time>
<desc>lat.=55.819984, lon.=26.202284, Alt.=158.959106m. Speed=1.872000m/h.</desc>
<speed>0.520000</speed>
</trkpt>
<trkpt lat="55.819988" lon="26.202278">
<ele>158.963013</ele>
<time>2010-07-17T12:26:29Z</time>
<desc>lat.=55.819988, lon.=26.202278, Alt.=158.963013m. Speed=0.972000m/h.</desc>
<speed>0.270000</speed>
</trkpt>
<trkpt lat="55.819992" lon="26.202276">
<ele>158.963013</ele>
<time>2010-07-17T12:26:30Z</time>
<desc>lat.=55.819992, lon.=26.202276, Alt.=158.963013m. Speed=0.900000m/h.</desc>
<speed>0.250000</speed>
</trkpt>
<trkpt lat="55.819992" lon="26.202276">
<ele>158.963013</ele>
<time>2010-07-17T12:26:31Z</time>
<desc>lat.=55.819992, lon.=26.202276, Alt.=158.963013m. Speed=0.936000m/h.</desc>
<speed>0.260000</speed>
</trkpt>
<trkpt lat="55.819996" lon="26.202272">
<ele>158.966919</ele>
<time>2010-07-17T12:26:32Z</time>
<desc>lat.=55.819996, lon.=26.202272, Alt.=158.966919m. Speed=0.792000m/h.</desc>
<speed>0.220000</speed>
</trkpt>
<trkpt lat="55.819996" lon="26.202272">
<ele>158.970825</ele>
<time>2010-07-17T12:26:33Z</time>
<desc>lat.=55.819996, lon.=26.202272, Alt.=158.970825m. Speed=1.008000m/h.</desc>
<speed>0.280000</speed>
</trkpt>
<trkpt lat="55.820000" lon="26.202272">
<ele>158.966919</ele>
<time>2010-07-17T12:26:34Z</time>
<desc>lat.=55.820000, lon.=26.202272, Alt.=158.966919m. Speed=0.612000m/h.</desc>
<speed>0.170000</speed>
</trkpt>
<trkpt lat="55.820000" lon="26.202271">
<ele>158.966919</ele>
<time>2010-07-17T12:26:35Z</time>
<desc>lat.=55.820000, lon.=26.202271, Alt.=158.966919m. Speed=0.540000m/h.</desc>
<speed>0.150000</speed>
</trkpt>
<trkpt lat="55.820000" lon="26.202269">
<ele>158.966919</ele>
<time>2010-07-17T12:26:36Z</time>
<desc>lat.=55.820000, lon.=26.202269, Alt.=158.966919m. Speed=0.180000m/h.</desc>
<speed>0.050000</speed>
</trkpt>
<trkpt lat="55.820004" lon="26.202269">
<ele>158.970825</ele>
<time>2010-07-17T12:26:37Z</time>
<desc>lat.=55.820004, lon.=26.202269, Alt.=158.970825m. Speed=0.108000m/h.</desc>
<speed>0.030000</speed>
</trkpt>
<trkpt lat="55.820004" lon="26.202271">
<ele>158.970825</ele>
<time>2010-07-17T12:26:38Z</time>
<desc>lat.=55.820004, lon.=26.202271, Alt.=158.970825m. Speed=0.144000m/h.</desc>
<speed>0.040000</speed>
</trkpt>
<trkpt lat="55.820000" lon="26.202269">
<ele>158.966919</ele>
<time>2010-07-17T12:26:39Z</time>
<desc>lat.=55.820000, lon.=26.202269, Alt.=158.966919m. Speed=0.504000m/h.</desc>
<speed>0.140000</speed>
</trkpt>
<trkpt lat="55.820004" lon="26.202269">
<ele>158.966919</ele>
<time>2010-07-17T12:26:40Z</time>
<desc>lat.=55.820004, lon.=26.202269, Alt.=158.966919m. Speed=0.108000m/h.</desc>
<speed>0.030000</speed>
</trkpt>
<trkpt lat="55.820004" lon="26.202269">
<ele>158.963013</ele>
<time>2010-07-17T12:26:41Z</time>
<desc>lat.=55.820004, lon.=26.202269, Alt.=158.963013m. Speed=0.072000m/h.</desc>
<speed>0.020000</speed>
</trkpt>
<trkpt lat="55.820004" lon="26.202269">
<ele>158.963013</ele>
<time>2010-07-17T12:26:42Z</time>
<desc>lat.=55.820004, lon.=26.202269, Alt.=158.963013m. Speed=0.180000m/h.</desc>
<speed>0.050000</speed>
</trkpt>
<trkpt lat="55.820004" lon="26.202267">
<ele>158.963013</ele>
<time>2010-07-17T12:26:43Z</time>
<desc>lat.=55.820004, lon.=26.202267, Alt.=158.963013m. Speed=0.216000m/h.</desc>
<speed>0.060000</speed>
</trkpt>
<trkpt lat="55.820004" lon="26.202267">
<ele>158.966919</ele>
<time>2010-07-17T12:26:44Z</time>
<desc>lat.=55.820004, lon.=26.202267, Alt.=158.966919m. Speed=0.612000m/h.</desc>
<speed>0.170000</speed>
</trkpt>
<trkpt lat="55.820000" lon="26.202265">
<ele>158.970825</ele>
<time>2010-07-17T12:26:45Z</time>
<desc>lat.=55.820000, lon.=26.202265, Alt.=158.970825m. Speed=1.188000m/h.</desc>
<speed>0.330000</speed>
</trkpt>
<trkpt lat="55.820000" lon="26.202261">
<ele>158.978638</ele>
<time>2010-07-17T12:26:46Z</time>
<desc>lat.=55.820000, lon.=26.202261, Alt.=158.978638m. Speed=0.936000m/h.</desc>
<speed>0.260000</speed>
</trkpt>
<trkpt lat="55.820000" lon="26.202257">
<ele>158.986450</ele>
<time>2010-07-17T12:26:47Z</time>
<desc>lat.=55.820000, lon.=26.202257, Alt.=158.986450m. Speed=0.684000m/h.</desc>
<speed>0.190000</speed>
</trkpt>
<trkpt lat="55.820000" lon="26.202253">
<ele>158.982544</ele>
<time>2010-07-17T12:26:48Z</time>
<desc>lat.=55.820000, lon.=26.202253, Alt.=158.982544m. Speed=0.288000m/h.</desc>
<speed>0.080000</speed>
</trkpt>
<trkpt lat="55.820000" lon="26.202253">
<ele>158.986450</ele>
<time>2010-07-17T12:26:49Z</time>
<desc>lat.=55.820000, lon.=26.202253, Alt.=158.986450m. Speed=0.360000m/h.</desc>
<speed>0.100000</speed>
</trkpt>
<trkpt lat="55.820000" lon="26.202251">
<ele>158.986450</ele>
<time>2010-07-17T12:26:50Z</time>
<desc>lat.=55.820000, lon.=26.202251, Alt.=158.986450m. Speed=0.180000m/h.</desc>
<speed>0.050000</speed>
</trkpt>
<trkpt lat="55.820000" lon="26.202251">
<ele>158.986450</ele>
<time>2010-07-17T12:26:51Z</time>
<desc>lat.=55.820000, lon.=26.202251, Alt.=158.986450m. Speed=0.432000m/h.</desc>
<speed>0.120000</speed>
</trkpt>
<trkpt lat="55.820004" lon="26.202250">
<ele>158.986450</ele>
<time>2010-07-17T12:26:52Z</time>
<desc>lat.=55.820004, lon.=26.202250, Alt.=158.986450m. Speed=0.324000m/h.</desc>
<speed>0.090000</speed>
</trkpt>
<trkpt lat="55.820004" lon="26.202250">
<ele>158.986450</ele>
<time>2010-07-17T12:26:53Z</time>
<desc>lat.=55.820004, lon.=26.202250, Alt.=158.986450m. Speed=0.144000m/h.</desc>
<speed>0.040000</speed>
</trkpt>
<trkpt lat="55.820004" lon="26.202250">
<ele>158.986450</ele>
<time>2010-07-17T12:26:54Z</time>
<desc>lat.=55.820004, lon.=26.202250, Alt.=158.986450m. Speed=0.072000m/h.</desc>
<speed>0.020000</speed>
</trkpt>
<trkpt lat="55.820004" lon="26.202251">
<ele>158.986450</ele>
<time>2010-07-17T12:26:55Z</time>
<desc>lat.=55.820004, lon.=26.202251, Alt.=158.986450m. Speed=0.396000m/h.</desc>
<speed>0.110000</speed>
</trkpt>
<trkpt lat="55.820004" lon="26.202251">
<ele>158.982544</ele>
<time>2010-07-17T12:26:56Z</time>
<desc>lat.=55.820004, lon.=26.202251, Alt.=158.982544m. Speed=0.324000m/h.</desc>
<speed>0.090000</speed>
</trkpt>
<trkpt lat="55.820004" lon="26.202253">
<ele>158.986450</ele>
<time>2010-07-17T12:26:57Z</time>
<desc>lat.=55.820004, lon.=26.202253, Alt.=158.986450m. Speed=0.252000m/h.</desc>
<speed>0.070000</speed>
</trkpt>
<trkpt lat="55.820004" lon="26.202253">
<ele>158.982544</ele>
<time>2010-07-17T12:26:58Z</time>
<desc>lat.=55.820004, lon.=26.202253, Alt.=158.982544m. Speed=0.180000m/h.</desc>
<speed>0.050000</speed>
</trkpt>
<trkpt lat="55.820004" lon="26.202253">
<ele>158.986450</ele>
<time>2010-07-17T12:26:59Z</time>
<desc>lat.=55.820004, lon.=26.202253, Alt.=158.986450m. Speed=0.108000m/h.</desc>
<speed>0.030000</speed>
</trkpt>
<trkpt lat="55.820004" lon="26.202253">
<ele>158.990356</ele>
<time>2010-07-17T12:27:00Z</time>
<desc>lat.=55.820004, lon.=26.202253, Alt.=158.990356m. Speed=0.180000m/h.</desc>
<speed>0.050000</speed>
</trkpt>
<trkpt lat="55.820004" lon="26.202253">
<ele>158.998169</ele>
<time>2010-07-17T12:27:01Z</time>
<desc>lat.=55.820004, lon.=26.202253, Alt.=158.998169m. Speed=0.216000m/h.</desc>
<speed>0.060000</speed>
</trkpt>
<trkpt lat="55.820004" lon="26.202255">
<ele>159.002075</ele>
<time>2010-07-17T12:27:02Z</time>
<desc>lat.=55.820004, lon.=26.202255, Alt.=159.002075m. Speed=0.324000m/h.</desc>
<speed>0.090000</speed>
</trkpt>
<trkpt lat="55.820004" lon="26.202257">
<ele>159.005981</ele>
<time>2010-07-17T12:27:03Z</time>
<desc>lat.=55.820004, lon.=26.202257, Alt.=159.005981m. Speed=0.144000m/h.</desc>
<speed>0.040000</speed>
</trkpt>
<trkpt lat="55.820004" lon="26.202257">
<ele>159.009888</ele>
<time>2010-07-17T12:27:04Z</time>
<desc>lat.=55.820004, lon.=26.202257, Alt.=159.009888m. Speed=0.180000m/h.</desc>
<speed>0.050000</speed>
</trkpt>
<trkpt lat="55.820004" lon="26.202259">
<ele>159.017700</ele>
<time>2010-07-17T12:27:05Z</time>
<desc>lat.=55.820004, lon.=26.202259, Alt.=159.017700m. Speed=0.288000m/h.</desc>
<speed>0.080000</speed>
</trkpt>
<trkpt lat="55.820004" lon="26.202259">
<ele>159.021606</ele>
<time>2010-07-17T12:27:06Z</time>
<desc>lat.=55.820004, lon.=26.202259, Alt.=159.021606m. Speed=0.072000m/h.</desc>
<speed>0.020000</speed>
</trkpt>
<trkpt lat="55.820004" lon="26.202259">
<ele>159.025513</ele>
<time>2010-07-17T12:27:07Z</time>
<desc>lat.=55.820004, lon.=26.202259, Alt.=159.025513m. Speed=0.792000m/h.</desc>
<speed>0.220000</speed>
</trkpt>
<trkpt lat="55.820004" lon="26.202255">
<ele>159.033325</ele>
<time>2010-07-17T12:27:08Z</time>
<desc>lat.=55.820004, lon.=26.202255, Alt.=159.033325m. Speed=1.116000m/h.</desc>
<speed>0.310000</speed>
</trkpt>
<trkpt lat="55.820007" lon="26.202253">
<ele>159.041138</ele>
<time>2010-07-17T12:27:09Z</time>
<desc>lat.=55.820007, lon.=26.202253, Alt.=159.041138m. Speed=0.540000m/h.</desc>
<speed>0.150000</speed>
</trkpt>
<trkpt lat="55.820007" lon="26.202251">
<ele>159.045044</ele>
<time>2010-07-17T12:27:10Z</time>
<desc>lat.=55.820007, lon.=26.202251, Alt.=159.045044m. Speed=0.144000m/h.</desc>
<speed>0.040000</speed>
</trkpt>
<trkpt lat="55.820007" lon="26.202250">
<ele>159.056763</ele>
<time>2010-07-17T12:27:11Z</time>
<desc>lat.=55.820007, lon.=26.202250, Alt.=159.056763m. Speed=0.360000m/h.</desc>
<speed>0.100000</speed>
</trkpt>
<trkpt lat="55.820007" lon="26.202250">
<ele>159.060669</ele>
<time>2010-07-17T12:27:12Z</time>
<desc>lat.=55.820007, lon.=26.202250, Alt.=159.060669m. Speed=0.108000m/h.</desc>
<speed>0.030000</speed>
</trkpt>
<trkpt lat="55.820007" lon="26.202248">
<ele>159.064575</ele>
<time>2010-07-17T12:27:13Z</time>
<desc>lat.=55.820007, lon.=26.202248, Alt.=159.064575m. Speed=0.324000m/h.</desc>
<speed>0.090000</speed>
</trkpt>
<trkpt lat="55.820004" lon="26.202248">
<ele>159.064575</ele>
<time>2010-07-17T12:27:14Z</time>
<desc>lat.=55.820004, lon.=26.202248, Alt.=159.064575m. Speed=0.072000m/h.</desc>
<speed>0.020000</speed>
</trkpt>
<trkpt lat="55.820004" lon="26.202248">
<ele>159.064575</ele>
<time>2010-07-17T12:27:15Z</time>
<desc>lat.=55.820004, lon.=26.202248, Alt.=159.064575m. Speed=0.216000m/h.</desc>
<speed>0.060000</speed>
</trkpt>
<trkpt lat="55.820007" lon="26.202248">
<ele>159.068481</ele>
<time>2010-07-17T12:27:16Z</time>
<desc>lat.=55.820007, lon.=26.202248, Alt.=159.068481m. Speed=0.360000m/h.</desc>
<speed>0.100000</speed>
</trkpt>
<trkpt lat="55.820007" lon="26.202246">
<ele>159.072388</ele>
<time>2010-07-17T12:27:17Z</time>
<desc>lat.=55.820007, lon.=26.202246, Alt.=159.072388m. Speed=0.288000m/h.</desc>
<speed>0.080000</speed>
</trkpt>
<trkpt lat="55.820007" lon="26.202246">
<ele>159.076294</ele>
<time>2010-07-17T12:27:18Z</time>
<desc>lat.=55.820007, lon.=26.202246, Alt.=159.076294m. Speed=0.324000m/h.</desc>
<speed>0.090000</speed>
</trkpt>
<trkpt lat="55.820007" lon="26.202244">
<ele>159.084106</ele>
<time>2010-07-17T12:27:19Z</time>
<desc>lat.=55.820007, lon.=26.202244, Alt.=159.084106m. Speed=0.684000m/h.</desc>
<speed>0.190000</speed>
</trkpt>
<trkpt lat="55.820011" lon="26.202242">
<ele>159.088013</ele>
<time>2010-07-17T12:27:20Z</time>
<desc>lat.=55.820011, lon.=26.202242, Alt.=159.088013m. Speed=0.648000m/h.</desc>
<speed>0.180000</speed>
</trkpt>
<trkpt lat="55.820011" lon="26.202240">
<ele>159.095825</ele>
<time>2010-07-17T12:27:21Z</time>
<desc>lat.=55.820011, lon.=26.202240, Alt.=159.095825m. Speed=0.936000m/h.</desc>
<speed>0.260000</speed>
</trkpt>
<trkpt lat="55.820011" lon="26.202238">
<ele>159.103638</ele>
<time>2010-07-17T12:27:22Z</time>
<desc>lat.=55.820011, lon.=26.202238, Alt.=159.103638m. Speed=1.080000m/h.</desc>
<speed>0.300000</speed>
</trkpt>
<trkpt lat="55.820015" lon="26.202234">
<ele>159.107544</ele>
<time>2010-07-17T12:27:23Z</time>
<desc>lat.=55.820015, lon.=26.202234, Alt.=159.107544m. Speed=1.188000m/h.</desc>
<speed>0.330000</speed>
</trkpt>
<trkpt lat="55.820015" lon="26.202229">
<ele>159.111450</ele>
<time>2010-07-17T12:27:24Z</time>
<desc>lat.=55.820015, lon.=26.202229, Alt.=159.111450m. Speed=0.720000m/h.</desc>
<speed>0.200000</speed>
</trkpt>
<trkpt lat="55.820015" lon="26.202227">
<ele>159.119263</ele>
<time>2010-07-17T12:27:25Z</time>
<desc>lat.=55.820015, lon.=26.202227, Alt.=159.119263m. Speed=0.180000m/h.</desc>
<speed>0.050000</speed>
</trkpt>
<trkpt lat="55.820015" lon="26.202227">
<ele>159.123169</ele>
<time>2010-07-17T12:27:26Z</time>
<desc>lat.=55.820015, lon.=26.202227, Alt.=159.123169m. Speed=0.324000m/h.</desc>
<speed>0.090000</speed>
</trkpt>
<trkpt lat="55.820015" lon="26.202225">
<ele>159.127075</ele>
<time>2010-07-17T12:27:27Z</time>
<desc>lat.=55.820015, lon.=26.202225, Alt.=159.127075m. Speed=0.720000m/h.</desc>
<speed>0.200000</speed>
</trkpt>
<trkpt lat="55.820015" lon="26.202221">
<ele>159.127075</ele>
<time>2010-07-17T12:27:28Z</time>
<desc>lat.=55.820015, lon.=26.202221, Alt.=159.127075m. Speed=0.720000m/h.</desc>
<speed>0.200000</speed>
</trkpt>
<trkpt lat="55.820019" lon="26.202219">
<ele>159.130981</ele>
<time>2010-07-17T12:27:29Z</time>
<desc>lat.=55.820019, lon.=26.202219, Alt.=159.130981m. Speed=0.972000m/h.</desc>
<speed>0.270000</speed>
</trkpt>
<trkpt lat="55.820019" lon="26.202219">
<ele>159.138794</ele>
<time>2010-07-17T12:27:30Z</time>
<desc>lat.=55.820019, lon.=26.202219, Alt.=159.138794m. Speed=0.648000m/h.</desc>
<speed>0.180000</speed>
</trkpt>
<trkpt lat="55.820023" lon="26.202217">
<ele>159.146606</ele>
<time>2010-07-17T12:27:31Z</time>
<desc>lat.=55.820023, lon.=26.202217, Alt.=159.146606m. Speed=0.432000m/h.</desc>
<speed>0.120000</speed>
</trkpt>
<trkpt lat="55.820023" lon="26.202217">
<ele>159.146606</ele>
<time>2010-07-17T12:27:32Z</time>
<desc>lat.=55.820023, lon.=26.202217, Alt.=159.146606m. Speed=0.216000m/h.</desc>
<speed>0.060000</speed>
</trkpt>
<trkpt lat="55.820023" lon="26.202217">
<ele>159.150513</ele>
<time>2010-07-17T12:27:33Z</time>
<desc>lat.=55.820023, lon.=26.202217, Alt.=159.150513m. Speed=0.648000m/h.</desc>
<speed>0.180000</speed>
</trkpt>
<trkpt lat="55.820023" lon="26.202217">
<ele>159.146606</ele>
<time>2010-07-17T12:27:34Z</time>
<desc>lat.=55.820023, lon.=26.202217, Alt.=159.146606m. Speed=0.432000m/h.</desc>
<speed>0.120000</speed>
</trkpt>
<trkpt lat="55.820026" lon="26.202217">
<ele>159.154419</ele>
<time>2010-07-17T12:27:35Z</time>
<desc>lat.=55.820026, lon.=26.202217, Alt.=159.154419m. Speed=0.108000m/h.</desc>
<speed>0.030000</speed>
</trkpt>
<trkpt lat="55.820026" lon="26.202217">
<ele>159.162231</ele>
<time>2010-07-17T12:27:36Z</time>
<desc>lat.=55.820026, lon.=26.202217, Alt.=159.162231m. Speed=0.432000m/h.</desc>
<speed>0.120000</speed>
</trkpt>
<trkpt lat="55.820023" lon="26.202215">
<ele>159.173950</ele>
<time>2010-07-17T12:27:37Z</time>
<desc>lat.=55.820023, lon.=26.202215, Alt.=159.173950m. Speed=0.288000m/h.</desc>
<speed>0.080000</speed>
</trkpt>
<trkpt lat="55.820023" lon="26.202215">
<ele>159.181763</ele>
<time>2010-07-17T12:27:38Z</time>
<desc>lat.=55.820023, lon.=26.202215, Alt.=159.181763m. Speed=0.252000m/h.</desc>
<speed>0.070000</speed>
</trkpt>
<trkpt lat="55.820023" lon="26.202213">
<ele>159.189575</ele>
<time>2010-07-17T12:27:39Z</time>
<desc>lat.=55.820023, lon.=26.202213, Alt.=159.189575m. Speed=0.324000m/h.</desc>
<speed>0.090000</speed>
</trkpt>
<trkpt lat="55.820023" lon="26.202211">
<ele>159.197388</ele>
<time>2010-07-17T12:27:40Z</time>
<desc>lat.=55.820023, lon.=26.202211, Alt.=159.197388m. Speed=0.072000m/h.</desc>
<speed>0.020000</speed>
</trkpt>
<trkpt lat="55.820023" lon="26.202211">
<ele>159.201294</ele>
<time>2010-07-17T12:27:41Z</time>
<desc>lat.=55.820023, lon.=26.202211, Alt.=159.201294m. Speed=0.324000m/h.</desc>
<speed>0.090000</speed>
</trkpt>
<trkpt lat="55.820023" lon="26.202213">
<ele>159.205200</ele>
<time>2010-07-17T12:27:42Z</time>
<desc>lat.=55.820023, lon.=26.202213, Alt.=159.205200m. Speed=0.540000m/h.</desc>
<speed>0.150000</speed>
</trkpt>
<trkpt lat="55.820023" lon="26.202215">
<ele>159.209106</ele>
<time>2010-07-17T12:27:43Z</time>
<desc>lat.=55.820023, lon.=26.202215, Alt.=159.209106m. Speed=0.756000m/h.</desc>
<speed>0.210000</speed>
</trkpt>
<trkpt lat="55.820023" lon="26.202219">
<ele>159.209106</ele>
<time>2010-07-17T12:27:44Z</time>
<desc>lat.=55.820023, lon.=26.202219, Alt.=159.209106m. Speed=0.612000m/h.</desc>
<speed>0.170000</speed>
</trkpt>
<trkpt lat="55.820023" lon="26.202221">
<ele>159.209106</ele>
<time>2010-07-17T12:27:45Z</time>
<desc>lat.=55.820023, lon.=26.202221, Alt.=159.209106m. Speed=0.288000m/h.</desc>
<speed>0.080000</speed>
</trkpt>
<trkpt lat="55.820023" lon="26.202223">
<ele>159.213013</ele>
<time>2010-07-17T12:27:46Z</time>
<desc>lat.=55.820023, lon.=26.202223, Alt.=159.213013m. Speed=0.216000m/h.</desc>
<speed>0.060000</speed>
</trkpt>
<trkpt lat="55.820023" lon="26.202223">
<ele>159.213013</ele>
<time>2010-07-17T12:27:47Z</time>
<desc>lat.=55.820023, lon.=26.202223, Alt.=159.213013m. Speed=0.216000m/h.</desc>
<speed>0.060000</speed>
</trkpt>
<trkpt lat="55.820023" lon="26.202223">
<ele>159.216919</ele>
<time>2010-07-17T12:27:48Z</time>
<desc>lat.=55.820023, lon.=26.202223, Alt.=159.216919m. Speed=0.396000m/h.</desc>
<speed>0.110000</speed>
</trkpt>
<trkpt lat="55.820019" lon="26.202223">
<ele>159.220825</ele>
<time>2010-07-17T12:27:49Z</time>
<desc>lat.=55.820019, lon.=26.202223, Alt.=159.220825m. Speed=0.108000m/h.</desc>
<speed>0.030000</speed>
</trkpt>
<trkpt lat="55.820019" lon="26.202223">
<ele>159.224731</ele>
<time>2010-07-17T12:27:50Z</time>
<desc>lat.=55.820019, lon.=26.202223, Alt.=159.224731m. Speed=0.072000m/h.</desc>
<speed>0.020000</speed>
</trkpt>
<trkpt lat="55.820019" lon="26.202223">
<ele>159.228638</ele>
<time>2010-07-17T12:27:51Z</time>
<desc>lat.=55.820019, lon.=26.202223, Alt.=159.228638m. Speed=0.432000m/h.</desc>
<speed>0.120000</speed>
</trkpt>
<trkpt lat="55.820019" lon="26.202225">
<ele>159.232544</ele>
<time>2010-07-17T12:27:52Z</time>
<desc>lat.=55.820019, lon.=26.202225, Alt.=159.232544m. Speed=0.576000m/h.</desc>
<speed>0.160000</speed>
</trkpt>
<trkpt lat="55.820019" lon="26.202227">
<ele>159.236450</ele>
<time>2010-07-17T12:27:53Z</time>
<desc>lat.=55.820019, lon.=26.202227, Alt.=159.236450m. Speed=0.468000m/h.</desc>
<speed>0.130000</speed>
</trkpt>
<trkpt lat="55.820015" lon="26.202227">
<ele>159.240356</ele>
<time>2010-07-17T12:27:54Z</time>
<desc>lat.=55.820015, lon.=26.202227, Alt.=159.240356m. Speed=0.504000m/h.</desc>
<speed>0.140000</speed>
</trkpt>
<trkpt lat="55.820015" lon="26.202229">
<ele>159.248169</ele>
<time>2010-07-17T12:27:55Z</time>
<desc>lat.=55.820015, lon.=26.202229, Alt.=159.248169m. Speed=0.756000m/h.</desc>
<speed>0.210000</speed>
</trkpt>
<trkpt lat="55.820015" lon="26.202230">
<ele>159.252075</ele>
<time>2010-07-17T12:27:56Z</time>
<desc>lat.=55.820015, lon.=26.202230, Alt.=159.252075m. Speed=0.792000m/h.</desc>
<speed>0.220000</speed>
</trkpt>
<trkpt lat="55.820011" lon="26.202230">
<ele>159.255981</ele>
<time>2010-07-17T12:27:57Z</time>
<desc>lat.=55.820011, lon.=26.202230, Alt.=159.255981m. Speed=0.432000m/h.</desc>
<speed>0.120000</speed>
</trkpt>
<trkpt lat="55.820011" lon="26.202229">
<ele>159.259888</ele>
<time>2010-07-17T12:27:58Z</time>
<desc>lat.=55.820011, lon.=26.202229, Alt.=159.259888m. Speed=0.504000m/h.</desc>
<speed>0.140000</speed>
</trkpt>
<trkpt lat="55.820011" lon="26.202232">
<ele>159.263794</ele>
<time>2010-07-17T12:27:59Z</time>
<desc>lat.=55.820011, lon.=26.202232, Alt.=159.263794m. Speed=0.504000m/h.</desc>
<speed>0.140000</speed>
</trkpt>
<trkpt lat="55.820011" lon="26.202232">
<ele>159.267700</ele>
<time>2010-07-17T12:28:00Z</time>
<desc>lat.=55.820011, lon.=26.202232, Alt.=159.267700m. Speed=0.756000m/h.</desc>
<speed>0.210000</speed>
</trkpt>
<trkpt lat="55.820007" lon="26.202232">
<ele>159.271606</ele>
<time>2010-07-17T12:28:01Z</time>
<desc>lat.=55.820007, lon.=26.202232, Alt.=159.271606m. Speed=0.396000m/h.</desc>
<speed>0.110000</speed>
</trkpt>
<trkpt lat="55.820007" lon="26.202234">
<ele>159.271606</ele>
<time>2010-07-17T12:28:02Z</time>
<desc>lat.=55.820007, lon.=26.202234, Alt.=159.271606m. Speed=0.648000m/h.</desc>
<speed>0.180000</speed>
</trkpt>
<trkpt lat="55.820007" lon="26.202236">
<ele>159.275513</ele>
<time>2010-07-17T12:28:03Z</time>
<desc>lat.=55.820007, lon.=26.202236, Alt.=159.275513m. Speed=1.404000m/h.</desc>
<speed>0.390000</speed>
</trkpt>
<trkpt lat="55.820004" lon="26.202246">
<ele>159.259888</ele>
<time>2010-07-17T12:28:04Z</time>
<desc>lat.=55.820004, lon.=26.202246, Alt.=159.259888m. Speed=1.728000m/h.</desc>
<speed>0.480000</speed>
</trkpt>
<trkpt lat="55.819996" lon="26.202259">
<ele>159.236450</ele>
<time>2010-07-17T12:28:05Z</time>
<desc>lat.=55.819996, lon.=26.202259, Alt.=159.236450m. Speed=2.124000m/h.</desc>
<speed>0.590000</speed>
</trkpt>
<trkpt lat="55.819988" lon="26.202267">
<ele>159.267700</ele>
<time>2010-07-17T12:28:06Z</time>
<desc>lat.=55.819988, lon.=26.202267, Alt.=159.267700m. Speed=2.016000m/h.</desc>
<speed>0.560000</speed>
</trkpt>
<trkpt lat="55.819984" lon="26.202272">
<ele>159.302856</ele>
<time>2010-07-17T12:28:07Z</time>
<desc>lat.=55.819984, lon.=26.202272, Alt.=159.302856m. Speed=1.512000m/h.</desc>
<speed>0.420000</speed>
</trkpt>
<trkpt lat="55.819988" lon="26.202274">
<ele>159.338013</ele>
<time>2010-07-17T12:28:08Z</time>
<desc>lat.=55.819988, lon.=26.202274, Alt.=159.338013m. Speed=1.152000m/h.</desc>
<speed>0.320000</speed>
</trkpt>
<trkpt lat="55.819988" lon="26.202265">
<ele>159.427856</ele>
<time>2010-07-17T12:28:09Z</time>
<desc>lat.=55.819988, lon.=26.202265, Alt.=159.427856m. Speed=0.252000m/h.</desc>
<speed>0.070000</speed>
</trkpt>
<trkpt lat="55.819988" lon="26.202257">
<ele>159.482544</ele>
<time>2010-07-17T12:28:10Z</time>
<desc>lat.=55.819988, lon.=26.202257, Alt.=159.482544m. Speed=0.288000m/h.</desc>
<speed>0.080000</speed>
</trkpt>
<trkpt lat="55.819988" lon="26.202251">
<ele>159.529419</ele>
<time>2010-07-17T12:28:11Z</time>
<desc>lat.=55.819988, lon.=26.202251, Alt.=159.529419m. Speed=0.288000m/h.</desc>
<speed>0.080000</speed>
</trkpt>
<trkpt lat="55.819988" lon="26.202255">
<ele>159.533325</ele>
<time>2010-07-17T12:28:12Z</time>
<desc>lat.=55.819988, lon.=26.202255, Alt.=159.533325m. Speed=0.360000m/h.</desc>
<speed>0.100000</speed>
</trkpt>
<trkpt lat="55.819984" lon="26.202255">
<ele>159.533325</ele>
<time>2010-07-17T12:28:13Z</time>
<desc>lat.=55.819984, lon.=26.202255, Alt.=159.533325m. Speed=0.432000m/h.</desc>
<speed>0.120000</speed>
</trkpt>
<trkpt lat="55.819984" lon="26.202257">
<ele>159.533325</ele>
<time>2010-07-17T12:28:14Z</time>
<desc>lat.=55.819984, lon.=26.202257, Alt.=159.533325m. Speed=0.504000m/h.</desc>
<speed>0.140000</speed>
</trkpt>
<trkpt lat="55.819984" lon="26.202259">
<ele>159.537231</ele>
<time>2010-07-17T12:28:15Z</time>
<desc>lat.=55.819984, lon.=26.202259, Alt.=159.537231m. Speed=0.216000m/h.</desc>
<speed>0.060000</speed>
</trkpt>
<trkpt lat="55.819984" lon="26.202259">
<ele>159.541138</ele>
<time>2010-07-17T12:28:16Z</time>
<desc>lat.=55.819984, lon.=26.202259, Alt.=159.541138m. Speed=0.576000m/h.</desc>
<speed>0.160000</speed>
</trkpt>
<trkpt lat="55.819984" lon="26.202261">
<ele>159.541138</ele>
<time>2010-07-17T12:28:17Z</time>
<desc>lat.=55.819984, lon.=26.202261, Alt.=159.541138m. Speed=0.756000m/h.</desc>
<speed>0.210000</speed>
</trkpt>
<trkpt lat="55.819981" lon="26.202261">
<ele>159.545044</ele>
<time>2010-07-17T12:28:18Z</time>
<desc>lat.=55.819981, lon.=26.202261, Alt.=159.545044m. Speed=0.540000m/h.</desc>
<speed>0.150000</speed>
</trkpt>
<trkpt lat="55.819981" lon="26.202261">
<ele>159.545044</ele>
<time>2010-07-17T12:28:19Z</time>
<desc>lat.=55.819981, lon.=26.202261, Alt.=159.545044m. Speed=0.216000m/h.</desc>
<speed>0.060000</speed>
</trkpt>
<trkpt lat="55.819981" lon="26.202261">
<ele>159.545044</ele>
<time>2010-07-17T12:28:20Z</time>
<desc>lat.=55.819981, lon.=26.202261, Alt.=159.545044m. Speed=0.756000m/h.</desc>
<speed>0.210000</speed>
</trkpt>
<trkpt lat="55.819977" lon="26.202263">
<ele>159.545044</ele>
<time>2010-07-17T12:28:21Z</time>
<desc>lat.=55.819977, lon.=26.202263, Alt.=159.545044m. Speed=0.504000m/h.</desc>
<speed>0.140000</speed>
</trkpt>
<trkpt lat="55.819977" lon="26.202265">
<ele>159.545044</ele>
<time>2010-07-17T12:28:22Z</time>
<desc>lat.=55.819977, lon.=26.202265, Alt.=159.545044m. Speed=0.972000m/h.</desc>
<speed>0.270000</speed>
</trkpt>
<trkpt lat="55.819977" lon="26.202267">
<ele>159.545044</ele>
<time>2010-07-17T12:28:23Z</time>
<desc>lat.=55.819977, lon.=26.202267, Alt.=159.545044m. Speed=0.612000m/h.</desc>
<speed>0.170000</speed>
</trkpt>
<trkpt lat="55.819973" lon="26.202271">
<ele>159.545044</ele>
<time>2010-07-17T12:28:24Z</time>
<desc>lat.=55.819973, lon.=26.202271, Alt.=159.545044m. Speed=0.144000m/h.</desc>
<speed>0.040000</speed>
</trkpt>
<trkpt lat="55.819973" lon="26.202269">
<ele>159.548950</ele>
<time>2010-07-17T12:28:25Z</time>
<desc>lat.=55.819973, lon.=26.202269, Alt.=159.548950m. Speed=0.036000m/h.</desc>
<speed>0.010000</speed>
</trkpt>
<trkpt lat="55.819973" lon="26.202269">
<ele>159.548950</ele>
<time>2010-07-17T12:28:26Z</time>
<desc>lat.=55.819973, lon.=26.202269, Alt.=159.548950m. Speed=0.072000m/h.</desc>
<speed>0.020000</speed>
</trkpt>
<trkpt lat="55.819973" lon="26.202269">
<ele>159.548950</ele>
<time>2010-07-17T12:28:27Z</time>
<desc>lat.=55.819973, lon.=26.202269, Alt.=159.548950m. Speed=0.468000m/h.</desc>
<speed>0.130000</speed>
</trkpt>
<trkpt lat="55.819973" lon="26.202267">
<ele>159.548950</ele>
<time>2010-07-17T12:28:28Z</time>
<desc>lat.=55.819973, lon.=26.202267, Alt.=159.548950m. Speed=0.468000m/h.</desc>
<speed>0.130000</speed>
</trkpt>
<trkpt lat="55.819973" lon="26.202269">
<ele>159.548950</ele>
<time>2010-07-17T12:28:29Z</time>
<desc>lat.=55.819973, lon.=26.202269, Alt.=159.548950m. Speed=0.144000m/h.</desc>
<speed>0.040000</speed>
</trkpt>
<trkpt lat="55.819973" lon="26.202269">
<ele>159.548950</ele>
<time>2010-07-17T12:28:30Z</time>
<desc>lat.=55.819973, lon.=26.202269, Alt.=159.548950m. Speed=0.504000m/h.</desc>
<speed>0.140000</speed>
</trkpt>
<trkpt lat="55.819969" lon="26.202269">
<ele>159.548950</ele>
<time>2010-07-17T12:28:31Z</time>
<desc>lat.=55.819969, lon.=26.202269, Alt.=159.548950m. Speed=0.396000m/h.</desc>
<speed>0.110000</speed>
</trkpt>
<trkpt lat="55.819969" lon="26.202269">
<ele>159.545044</ele>
<time>2010-07-17T12:28:32Z</time>
<desc>lat.=55.819969, lon.=26.202269, Alt.=159.545044m. Speed=0.072000m/h.</desc>
<speed>0.020000</speed>
</trkpt>
<trkpt lat="55.819969" lon="26.202269">
<ele>159.545044</ele>
<time>2010-07-17T12:28:33Z</time>
<desc>lat.=55.819969, lon.=26.202269, Alt.=159.545044m. Speed=0.288000m/h.</desc>
<speed>0.080000</speed>
</trkpt>
<trkpt lat="55.819969" lon="26.202269">
<ele>159.545044</ele>
<time>2010-07-17T12:28:34Z</time>
<desc>lat.=55.819969, lon.=26.202269, Alt.=159.545044m. Speed=0.468000m/h.</desc>
<speed>0.130000</speed>
</trkpt>
<trkpt lat="55.819973" lon="26.202267">
<ele>159.545044</ele>
<time>2010-07-17T12:28:35Z</time>
<desc>lat.=55.819973, lon.=26.202267, Alt.=159.545044m. Speed=0.504000m/h.</desc>
<speed>0.140000</speed>
</trkpt>
<trkpt lat="55.819973" lon="26.202265">
<ele>159.548950</ele>
<time>2010-07-17T12:28:36Z</time>
<desc>lat.=55.819973, lon.=26.202265, Alt.=159.548950m. Speed=0.288000m/h.</desc>
<speed>0.080000</speed>
</trkpt>
<trkpt lat="55.819973" lon="26.202265">
<ele>159.552856</ele>
<time>2010-07-17T12:28:37Z</time>
<desc>lat.=55.819973, lon.=26.202265, Alt.=159.552856m. Speed=0.432000m/h.</desc>
<speed>0.120000</speed>
</trkpt>
<trkpt lat="55.819973" lon="26.202263">
<ele>159.552856</ele>
<time>2010-07-17T12:28:38Z</time>
<desc>lat.=55.819973, lon.=26.202263, Alt.=159.552856m. Speed=0.144000m/h.</desc>
<speed>0.040000</speed>
</trkpt>
<trkpt lat="55.819973" lon="26.202263">
<ele>159.548950</ele>
<time>2010-07-17T12:28:39Z</time>
<desc>lat.=55.819973, lon.=26.202263, Alt.=159.548950m. Speed=0.324000m/h.</desc>
<speed>0.090000</speed>
</trkpt>
<trkpt lat="55.819973" lon="26.202265">
<ele>159.548950</ele>
<time>2010-07-17T12:28:40Z</time>
<desc>lat.=55.819973, lon.=26.202265, Alt.=159.548950m. Speed=0.576000m/h.</desc>
<speed>0.160000</speed>
</trkpt>
<trkpt lat="55.819977" lon="26.202265">
<ele>159.545044</ele>
<time>2010-07-17T12:28:41Z</time>
<desc>lat.=55.819977, lon.=26.202265, Alt.=159.545044m. Speed=0.396000m/h.</desc>
<speed>0.110000</speed>
</trkpt>
<trkpt lat="55.819977" lon="26.202265">
<ele>159.545044</ele>
<time>2010-07-17T12:28:42Z</time>
<desc>lat.=55.819977, lon.=26.202265, Alt.=159.545044m. Speed=0.540000m/h.</desc>
<speed>0.150000</speed>
</trkpt>
<trkpt lat="55.819977" lon="26.202265">
<ele>159.545044</ele>
<time>2010-07-17T12:28:43Z</time>
<desc>lat.=55.819977, lon.=26.202265, Alt.=159.545044m. Speed=0.468000m/h.</desc>
<speed>0.130000</speed>
</trkpt>
<trkpt lat="55.819981" lon="26.202267">
<ele>159.545044</ele>
<time>2010-07-17T12:28:44Z</time>
<desc>lat.=55.819981, lon.=26.202267, Alt.=159.545044m. Speed=0.108000m/h.</desc>
<speed>0.030000</speed>
</trkpt>
<trkpt lat="55.819981" lon="26.202265">
<ele>159.541138</ele>
<time>2010-07-17T12:28:45Z</time>
<desc>lat.=55.819981, lon.=26.202265, Alt.=159.541138m. Speed=0.180000m/h.</desc>
<speed>0.050000</speed>
</trkpt>
<trkpt lat="55.819981" lon="26.202265">
<ele>159.545044</ele>
<time>2010-07-17T12:28:46Z</time>
<desc>lat.=55.819981, lon.=26.202265, Alt.=159.545044m. Speed=0.252000m/h.</desc>
<speed>0.070000</speed>
</trkpt>
<trkpt lat="55.819981" lon="26.202265">
<ele>159.545044</ele>
<time>2010-07-17T12:28:47Z</time>
<desc>lat.=55.819981, lon.=26.202265, Alt.=159.545044m. Speed=0.180000m/h.</desc>
<speed>0.050000</speed>
</trkpt>
<trkpt lat="55.819981" lon="26.202265">
<ele>159.548950</ele>
<time>2010-07-17T12:28:48Z</time>
<desc>lat.=55.819981, lon.=26.202265, Alt.=159.548950m. Speed=0.504000m/h.</desc>
<speed>0.140000</speed>
</trkpt>
<trkpt lat="55.819981" lon="26.202265">
<ele>159.560669</ele>
<time>2010-07-17T12:28:49Z</time>
<desc>lat.=55.819981, lon.=26.202265, Alt.=159.560669m. Speed=0.576000m/h.</desc>
<speed>0.160000</speed>
</trkpt>
<trkpt lat="55.819984" lon="26.202263">
<ele>159.568481</ele>
<time>2010-07-17T12:28:50Z</time>
<desc>lat.=55.819984, lon.=26.202263, Alt.=159.568481m. Speed=0.288000m/h.</desc>
<speed>0.080000</speed>
</trkpt>
<trkpt lat="55.819984" lon="26.202263">
<ele>159.580200</ele>
<time>2010-07-17T12:28:51Z</time>
<desc>lat.=55.819984, lon.=26.202263, Alt.=159.580200m. Speed=0.720000m/h.</desc>
<speed>0.200000</speed>
</trkpt>
<trkpt lat="55.819988" lon="26.202265">
<ele>159.591919</ele>
<time>2010-07-17T12:28:52Z</time>
<desc>lat.=55.819988, lon.=26.202265, Alt.=159.591919m. Speed=0.540000m/h.</desc>
<speed>0.150000</speed>
</trkpt>
<trkpt lat="55.819988" lon="26.202265">
<ele>159.595825</ele>
<time>2010-07-17T12:28:53Z</time>
<desc>lat.=55.819988, lon.=26.202265, Alt.=159.595825m. Speed=0.180000m/h.</desc>
<speed>0.050000</speed>
</trkpt>
<trkpt lat="55.819988" lon="26.202267">
<ele>159.599731</ele>
<time>2010-07-17T12:28:54Z</time>
<desc>lat.=55.819988, lon.=26.202267, Alt.=159.599731m. Speed=0.108000m/h.</desc>
<speed>0.030000</speed>
</trkpt>
<trkpt lat="55.819988" lon="26.202265">
<ele>159.603638</ele>
<time>2010-07-17T12:28:55Z</time>
<desc>lat.=55.819988, lon.=26.202265, Alt.=159.603638m. Speed=0.504000m/h.</desc>
<speed>0.140000</speed>
</trkpt>
<trkpt lat="55.819988" lon="26.202265">
<ele>159.607544</ele>
<time>2010-07-17T12:28:56Z</time>
<desc>lat.=55.819988, lon.=26.202265, Alt.=159.607544m. Speed=0.432000m/h.</desc>
<speed>0.120000</speed>
</trkpt>
<trkpt lat="55.819992" lon="26.202265">
<ele>159.607544</ele>
<time>2010-07-17T12:28:57Z</time>
<desc>lat.=55.819992, lon.=26.202265, Alt.=159.607544m. Speed=0.180000m/h.</desc>
<speed>0.050000</speed>
</trkpt>
<trkpt lat="55.819988" lon="26.202265">
<ele>159.611450</ele>
<time>2010-07-17T12:28:58Z</time>
<desc>lat.=55.819988, lon.=26.202265, Alt.=159.611450m. Speed=1.044000m/h.</desc>
<speed>0.290000</speed>
</trkpt>
<trkpt lat="55.819988" lon="26.202269">
<ele>159.611450</ele>
<time>2010-07-17T12:28:59Z</time>
<desc>lat.=55.819988, lon.=26.202269, Alt.=159.611450m. Speed=0.720000m/h.</desc>
<speed>0.200000</speed>
</trkpt>
<trkpt lat="55.819988" lon="26.202272">
<ele>159.611450</ele>
<time>2010-07-17T12:29:00Z</time>
<desc>lat.=55.819988, lon.=26.202272, Alt.=159.611450m. Speed=0.756000m/h.</desc>
<speed>0.210000</speed>
</trkpt>
<trkpt lat="55.819988" lon="26.202274">
<ele>159.607544</ele>
<time>2010-07-17T12:29:01Z</time>
<desc>lat.=55.819988, lon.=26.202274, Alt.=159.607544m. Speed=0.756000m/h.</desc>
<speed>0.210000</speed>
</trkpt>
<trkpt lat="55.819988" lon="26.202278">
<ele>159.607544</ele>
<time>2010-07-17T12:29:02Z</time>
<desc>lat.=55.819988, lon.=26.202278, Alt.=159.607544m. Speed=0.108000m/h.</desc>
<speed>0.030000</speed>
</trkpt>
<trkpt lat="55.819988" lon="26.202278">
<ele>159.607544</ele>
<time>2010-07-17T12:29:03Z</time>
<desc>lat.=55.819988, lon.=26.202278, Alt.=159.607544m. Speed=0.216000m/h.</desc>
<speed>0.060000</speed>
</trkpt>
<trkpt lat="55.819988" lon="26.202276">
<ele>159.603638</ele>
<time>2010-07-17T12:29:04Z</time>
<desc>lat.=55.819988, lon.=26.202276, Alt.=159.603638m. Speed=0.468000m/h.</desc>
<speed>0.130000</speed>
</trkpt>
<trkpt lat="55.819984" lon="26.202276">
<ele>159.607544</ele>
<time>2010-07-17T12:29:05Z</time>
<desc>lat.=55.819984, lon.=26.202276, Alt.=159.607544m. Speed=0.612000m/h.</desc>
<speed>0.170000</speed>
</trkpt>
<trkpt lat="55.819984" lon="26.202274">
<ele>159.607544</ele>
<time>2010-07-17T12:29:06Z</time>
<desc>lat.=55.819984, lon.=26.202274, Alt.=159.607544m. Speed=0.720000m/h.</desc>
<speed>0.200000</speed>
</trkpt>
<trkpt lat="55.819984" lon="26.202271">
<ele>159.607544</ele>
<time>2010-07-17T12:29:07Z</time>
<desc>lat.=55.819984, lon.=26.202271, Alt.=159.607544m. Speed=0.864000m/h.</desc>
<speed>0.240000</speed>
</trkpt>
<trkpt lat="55.819988" lon="26.202269">
<ele>159.611450</ele>
<time>2010-07-17T12:29:08Z</time>
<desc>lat.=55.819988, lon.=26.202269, Alt.=159.611450m. Speed=0.360000m/h.</desc>
<speed>0.100000</speed>
</trkpt>
<trkpt lat="55.819984" lon="26.202269">
<ele>159.615356</ele>
<time>2010-07-17T12:29:09Z</time>
<desc>lat.=55.819984, lon.=26.202269, Alt.=159.615356m. Speed=1.224000m/h.</desc>
<speed>0.340000</speed>
</trkpt>
<trkpt lat="55.819981" lon="26.202272">
<ele>159.744263</ele>
<time>2010-07-17T12:29:10Z</time>
<desc>lat.=55.819981, lon.=26.202272, Alt.=159.744263m. Speed=1.440000m/h.</desc>
<speed>0.400000</speed>
</trkpt>
<trkpt lat="55.819977" lon="26.202286">
<ele>160.052856</ele>
<time>2010-07-17T12:29:11Z</time>
<desc>lat.=55.819977, lon.=26.202286, Alt.=160.052856m. Speed=2.448000m/h.</desc>
<speed>0.680000</speed>
</trkpt>
<trkpt lat="55.819973" lon="26.202293">
<ele>160.060669</ele>
<time>2010-07-17T12:29:12Z</time>
<desc>lat.=55.819973, lon.=26.202293, Alt.=160.060669m. Speed=1.872000m/h.</desc>
<speed>0.520000</speed>
</trkpt>
<trkpt lat="55.819969" lon="26.202297">
<ele>160.115356</ele>
<time>2010-07-17T12:29:13Z</time>
<desc>lat.=55.819969, lon.=26.202297, Alt.=160.115356m. Speed=1.584000m/h.</desc>
<speed>0.440000</speed>
</trkpt>
<trkpt lat="55.819969" lon="26.202305">
<ele>160.357544</ele>
<time>2010-07-17T12:29:14Z</time>
<desc>lat.=55.819969, lon.=26.202305, Alt.=160.357544m. Speed=1.512000m/h.</desc>
<speed>0.420000</speed>
</trkpt>
<trkpt lat="55.819969" lon="26.202314">
<ele>160.400513</ele>
<time>2010-07-17T12:29:15Z</time>
<desc>lat.=55.819969, lon.=26.202314, Alt.=160.400513m. Speed=1.440000m/h.</desc>
<speed>0.400000</speed>
</trkpt>
<trkpt lat="55.819965" lon="26.202320">
<ele>160.502075</ele>
<time>2010-07-17T12:29:16Z</time>
<desc>lat.=55.819965, lon.=26.202320, Alt.=160.502075m. Speed=1.728000m/h.</desc>
<speed>0.480000</speed>
</trkpt>
<trkpt lat="55.819962" lon="26.202322">
<ele>160.584106</ele>
<time>2010-07-17T12:29:17Z</time>
<desc>lat.=55.819962, lon.=26.202322, Alt.=160.584106m. Speed=1.692000m/h.</desc>
<speed>0.470000</speed>
</trkpt>
<trkpt lat="55.819962" lon="26.202316">
<ele>160.673950</ele>
<time>2010-07-17T12:29:18Z</time>
<desc>lat.=55.819962, lon.=26.202316, Alt.=160.673950m. Speed=1.548000m/h.</desc>
<speed>0.430000</speed>
</trkpt>
<trkpt lat="55.819958" lon="26.202314">
<ele>160.767700</ele>
<time>2010-07-17T12:29:19Z</time>
<desc>lat.=55.819958, lon.=26.202314, Alt.=160.767700m. Speed=1.728000m/h.</desc>
<speed>0.480000</speed>
</trkpt>
<trkpt lat="55.819954" lon="26.202312">
<ele>160.908325</ele>
<time>2010-07-17T12:29:20Z</time>
<desc>lat.=55.819954, lon.=26.202312, Alt.=160.908325m. Speed=1.332000m/h.</desc>
<speed>0.370000</speed>
</trkpt>
<trkpt lat="55.819958" lon="26.202316">
<ele>160.861450</ele>
<time>2010-07-17T12:29:21Z</time>
<desc>lat.=55.819958, lon.=26.202316, Alt.=160.861450m. Speed=1.008000m/h.</desc>
<speed>0.280000</speed>
</trkpt>
<trkpt lat="55.819958" lon="26.202322">
<ele>160.755981</ele>
<time>2010-07-17T12:29:22Z</time>
<desc>lat.=55.819958, lon.=26.202322, Alt.=160.755981m. Speed=1.116000m/h.</desc>
<speed>0.310000</speed>
</trkpt>
<trkpt lat="55.819962" lon="26.202318">
<ele>160.795044</ele>
<time>2010-07-17T12:29:23Z</time>
<desc>lat.=55.819962, lon.=26.202318, Alt.=160.795044m. Speed=0.576000m/h.</desc>
<speed>0.160000</speed>
</trkpt>
<trkpt lat="55.819962" lon="26.202312">
<ele>160.994263</ele>
<time>2010-07-17T12:29:24Z</time>
<desc>lat.=55.819962, lon.=26.202312, Alt.=160.994263m. Speed=0.000000m/h.</desc>
<speed>0.000000</speed>
</trkpt>
<trkpt lat="55.819962" lon="26.202305">
<ele>161.216919</ele>
<time>2010-07-17T12:29:25Z</time>
<desc>lat.=55.819962, lon.=26.202305, Alt.=161.216919m. Speed=0.144000m/h.</desc>
<speed>0.040000</speed>
</trkpt>
<trkpt lat="55.819969" lon="26.202299">
<ele>161.423950</ele>
<time>2010-07-17T12:29:26Z</time>
<desc>lat.=55.819969, lon.=26.202299, Alt.=161.423950m. Speed=0.504000m/h.</desc>
<speed>0.140000</speed>
</trkpt>
<trkpt lat="55.819969" lon="26.202295">
<ele>161.431763</ele>
<time>2010-07-17T12:29:27Z</time>
<desc>lat.=55.819969, lon.=26.202295, Alt.=161.431763m. Speed=0.396000m/h.</desc>
<speed>0.110000</speed>
</trkpt>
<trkpt lat="55.819969" lon="26.202293">
<ele>161.439575</ele>
<time>2010-07-17T12:29:28Z</time>
<desc>lat.=55.819969, lon.=26.202293, Alt.=161.439575m. Speed=0.324000m/h.</desc>
<speed>0.090000</speed>
</trkpt>
<trkpt lat="55.819969" lon="26.202293">
<ele>161.447388</ele>
<time>2010-07-17T12:29:29Z</time>
<desc>lat.=55.819969, lon.=26.202293, Alt.=161.447388m. Speed=0.252000m/h.</desc>
<speed>0.070000</speed>
</trkpt>
<trkpt lat="55.819969" lon="26.202291">
<ele>161.451294</ele>
<time>2010-07-17T12:29:30Z</time>
<desc>lat.=55.819969, lon.=26.202291, Alt.=161.451294m. Speed=0.360000m/h.</desc>
<speed>0.100000</speed>
</trkpt>
<trkpt lat="55.819969" lon="26.202290">
<ele>161.455200</ele>
<time>2010-07-17T12:29:31Z</time>
<desc>lat.=55.819969, lon.=26.202290, Alt.=161.455200m. Speed=0.612000m/h.</desc>
<speed>0.170000</speed>
</trkpt>
<trkpt lat="55.819969" lon="26.202288">
<ele>161.463013</ele>
<time>2010-07-17T12:29:32Z</time>
<desc>lat.=55.819969, lon.=26.202288, Alt.=161.463013m. Speed=0.288000m/h.</desc>
<speed>0.080000</speed>
</trkpt>
<trkpt lat="55.819969" lon="26.202286">
<ele>161.466919</ele>
<time>2010-07-17T12:29:33Z</time>
<desc>lat.=55.819969, lon.=26.202286, Alt.=161.466919m. Speed=0.540000m/h.</desc>
<speed>0.150000</speed>
</trkpt>
<trkpt lat="55.819969" lon="26.202284">
<ele>161.470825</ele>
<time>2010-07-17T12:29:34Z</time>
<desc>lat.=55.819969, lon.=26.202284, Alt.=161.470825m. Speed=0.540000m/h.</desc>
<speed>0.150000</speed>
</trkpt>
<trkpt lat="55.819969" lon="26.202282">
<ele>161.482544</ele>
<time>2010-07-17T12:29:35Z</time>
<desc>lat.=55.819969, lon.=26.202282, Alt.=161.482544m. Speed=0.900000m/h.</desc>
<speed>0.250000</speed>
</trkpt>
<trkpt lat="55.819973" lon="26.202280">
<ele>161.490356</ele>
<time>2010-07-17T12:29:36Z</time>
<desc>lat.=55.819973, lon.=26.202280, Alt.=161.490356m. Speed=0.720000m/h.</desc>
<speed>0.200000</speed>
</trkpt>
<trkpt lat="55.819973" lon="26.202278">
<ele>161.502075</ele>
<time>2010-07-17T12:29:37Z</time>
<desc>lat.=55.819973, lon.=26.202278, Alt.=161.502075m. Speed=0.432000m/h.</desc>
<speed>0.120000</speed>
</trkpt>
<trkpt lat="55.819973" lon="26.202276">
<ele>161.509888</ele>
<time>2010-07-17T12:29:38Z</time>
<desc>lat.=55.819973, lon.=26.202276, Alt.=161.509888m. Speed=0.432000m/h.</desc>
<speed>0.120000</speed>
</trkpt>
<trkpt lat="55.819973" lon="26.202274">
<ele>161.521606</ele>
<time>2010-07-17T12:29:39Z</time>
<desc>lat.=55.819973, lon.=26.202274, Alt.=161.521606m. Speed=0.072000m/h.</desc>
<speed>0.020000</speed>
</trkpt>
<trkpt lat="55.819973" lon="26.202274">
<ele>161.529419</ele>
<time>2010-07-17T12:29:40Z</time>
<desc>lat.=55.819973, lon.=26.202274, Alt.=161.529419m. Speed=0.036000m/h.</desc>
<speed>0.010000</speed>
</trkpt>
<trkpt lat="55.819973" lon="26.202274">
<ele>161.541138</ele>
<time>2010-07-17T12:29:41Z</time>
<desc>lat.=55.819973, lon.=26.202274, Alt.=161.541138m. Speed=0.180000m/h.</desc>
<speed>0.050000</speed>
</trkpt>
<trkpt lat="55.819973" lon="26.202274">
<ele>161.548950</ele>
<time>2010-07-17T12:29:42Z</time>
<desc>lat.=55.819973, lon.=26.202274, Alt.=161.548950m. Speed=0.252000m/h.</desc>
<speed>0.070000</speed>
</trkpt>
<trkpt lat="55.819973" lon="26.202274">
<ele>161.556763</ele>
<time>2010-07-17T12:29:43Z</time>
<desc>lat.=55.819973, lon.=26.202274, Alt.=161.556763m. Speed=0.432000m/h.</desc>
<speed>0.120000</speed>
</trkpt>
<trkpt lat="55.819977" lon="26.202274">
<ele>161.560669</ele>
<time>2010-07-17T12:29:44Z</time>
<desc>lat.=55.819977, lon.=26.202274, Alt.=161.560669m. Speed=0.216000m/h.</desc>
<speed>0.060000</speed>
</trkpt>
<trkpt lat="55.819977" lon="26.202274">
<ele>161.564575</ele>
<time>2010-07-17T12:29:45Z</time>
<desc>lat.=55.819977, lon.=26.202274, Alt.=161.564575m. Speed=0.180000m/h.</desc>
<speed>0.050000</speed>
</trkpt>
<trkpt lat="55.819977" lon="26.202274">
<ele>161.572388</ele>
<time>2010-07-17T12:29:46Z</time>
<desc>lat.=55.819977, lon.=26.202274, Alt.=161.572388m. Speed=0.432000m/h.</desc>
<speed>0.120000</speed>
</trkpt>
<trkpt lat="55.819977" lon="26.202276">
<ele>161.572388</ele>
<time>2010-07-17T12:29:47Z</time>
<desc>lat.=55.819977, lon.=26.202276, Alt.=161.572388m. Speed=0.144000m/h.</desc>
<speed>0.040000</speed>
</trkpt>
<trkpt lat="55.819977" lon="26.202276">
<ele>161.568481</ele>
<time>2010-07-17T12:29:48Z</time>
<desc>lat.=55.819977, lon.=26.202276, Alt.=161.568481m. Speed=0.468000m/h.</desc>
<speed>0.130000</speed>
</trkpt>
<trkpt lat="55.819973" lon="26.202276">
<ele>161.568481</ele>
<time>2010-07-17T12:29:49Z</time>
<desc>lat.=55.819973, lon.=26.202276, Alt.=161.568481m. Speed=0.504000m/h.</desc>
<speed>0.140000</speed>
</trkpt>
<trkpt lat="55.819973" lon="26.202272">
<ele>161.572388</ele>
<time>2010-07-17T12:29:50Z</time>
<desc>lat.=55.819973, lon.=26.202272, Alt.=161.572388m. Speed=0.720000m/h.</desc>
<speed>0.200000</speed>
</trkpt>
<trkpt lat="55.819977" lon="26.202271">
<ele>161.576294</ele>
<time>2010-07-17T12:29:51Z</time>
<desc>lat.=55.819977, lon.=26.202271, Alt.=161.576294m. Speed=1.440000m/h.</desc>
<speed>0.400000</speed>
</trkpt>
<trkpt lat="55.819984" lon="26.202267">
<ele>161.646606</ele>
<time>2010-07-17T12:29:52Z</time>
<desc>lat.=55.819984, lon.=26.202267, Alt.=161.646606m. Speed=1.872000m/h.</desc>
<speed>0.520000</speed>
</trkpt>
<trkpt lat="55.819996" lon="26.202272">
<ele>161.646606</ele>
<time>2010-07-17T12:29:53Z</time>
<desc>lat.=55.819996, lon.=26.202272, Alt.=161.646606m. Speed=2.304000m/h.</desc>
<speed>0.640000</speed>
</trkpt>
<trkpt lat="55.820004" lon="26.202284">
<ele>161.564575</ele>
<time>2010-07-17T12:29:54Z</time>
<desc>lat.=55.820004, lon.=26.202284, Alt.=161.564575m. Speed=3.636000m/h.</desc>
<speed>1.010000</speed>
</trkpt>
<trkpt lat="55.820023" lon="26.202309">
<ele>161.630981</ele>
<time>2010-07-17T12:29:55Z</time>
<desc>lat.=55.820023, lon.=26.202309, Alt.=161.630981m. Speed=7.020000m/h.</desc>
<speed>1.950000</speed>
</trkpt>
<trkpt lat="55.820042" lon="26.202343">
<ele>161.752075</ele>
<time>2010-07-17T12:29:56Z</time>
<desc>lat.=55.820042, lon.=26.202343, Alt.=161.752075m. Speed=12.924000m/h.</desc>
<speed>3.590000</speed>
</trkpt>
<trkpt lat="55.820061" lon="26.202404">
<ele>161.736450</ele>
<time>2010-07-17T12:29:57Z</time>
<desc>lat.=55.820061, lon.=26.202404, Alt.=161.736450m. Speed=14.760000m/h.</desc>
<speed>4.100000</speed>
</trkpt>
<trkpt lat="55.820084" lon="26.202467">
<ele>161.806763</ele>
<time>2010-07-17T12:29:58Z</time>
<desc>lat.=55.820084, lon.=26.202467, Alt.=161.806763m. Speed=16.632000m/h.</desc>
<speed>4.620000</speed>
</trkpt>
<trkpt lat="55.820107" lon="26.202543">
<ele>161.752075</ele>
<time>2010-07-17T12:29:59Z</time>
<desc>lat.=55.820107, lon.=26.202543, Alt.=161.752075m. Speed=18.252001m/h.</desc>
<speed>5.070000</speed>
</trkpt>
<trkpt lat="55.820129" lon="26.202623">
<ele>161.619263</ele>
<time>2010-07-17T12:30:00Z</time>
<desc>lat.=55.820129, lon.=26.202623, Alt.=161.619263m. Speed=19.368000m/h.</desc>
<speed>5.380000</speed>
</trkpt>
<trkpt lat="55.820148" lon="26.202709">
<ele>161.584106</ele>
<time>2010-07-17T12:30:01Z</time>
<desc>lat.=55.820148, lon.=26.202709, Alt.=161.584106m. Speed=22.284000m/h.</desc>
<speed>6.190000</speed>
</trkpt>
<trkpt lat="55.820171" lon="26.202808">
<ele>161.724731</ele>
<time>2010-07-17T12:30:02Z</time>
<desc>lat.=55.820171, lon.=26.202808, Alt.=161.724731m. Speed=24.624001m/h.</desc>
<speed>6.840000</speed>
</trkpt>
<trkpt lat="55.820190" lon="26.202919">
<ele>161.779419</ele>
<time>2010-07-17T12:30:03Z</time>
<desc>lat.=55.820190, lon.=26.202919, Alt.=161.779419m. Speed=27.072001m/h.</desc>
<speed>7.520000</speed>
</trkpt>
<trkpt lat="55.820213" lon="26.203043">
<ele>161.752075</ele>
<time>2010-07-17T12:30:04Z</time>
<desc>lat.=55.820213, lon.=26.203043, Alt.=161.752075m. Speed=30.420000m/h.</desc>
<speed>8.450000</speed>
</trkpt>
<trkpt lat="55.820244" lon="26.203173">
<ele>161.830200</ele>
<time>2010-07-17T12:30:05Z</time>
<desc>lat.=55.820244, lon.=26.203173, Alt.=161.830200m. Speed=32.796001m/h.</desc>
<speed>9.110000</speed>
</trkpt>
<trkpt lat="55.820271" lon="26.203318">
<ele>162.009888</ele>
<time>2010-07-17T12:30:06Z</time>
<desc>lat.=55.820271, lon.=26.203318, Alt.=162.009888m. Speed=34.848000m/h.</desc>
<speed>9.680000</speed>
</trkpt>
<trkpt lat="55.820297" lon="26.203472">
<ele>162.045044</ele>
<time>2010-07-17T12:30:07Z</time>
<desc>lat.=55.820297, lon.=26.203472, Alt.=162.045044m. Speed=37.692001m/h.</desc>
<speed>10.470000</speed>
</trkpt>
<trkpt lat="55.820328" lon="26.203640">
<ele>161.892700</ele>
<time>2010-07-17T12:30:08Z</time>
<desc>lat.=55.820328, lon.=26.203640, Alt.=161.892700m. Speed=40.391998m/h.</desc>
<speed>11.220000</speed>
</trkpt>
<trkpt lat="55.820362" lon="26.203821">
<ele>161.838013</ele>
<time>2010-07-17T12:30:09Z</time>
<desc>lat.=55.820362, lon.=26.203821, Alt.=161.838013m. Speed=41.040001m/h.</desc>
<speed>11.400000</speed>
</trkpt>
<trkpt lat="55.820400" lon="26.204004">
<ele>161.857544</ele>
<time>2010-07-17T12:30:10Z</time>
<desc>lat.=55.820400, lon.=26.204004, Alt.=161.857544m. Speed=41.400002m/h.</desc>
<speed>11.500000</speed>
</trkpt>
<trkpt lat="55.820431" lon="26.204178">
<ele>161.935669</ele>
<time>2010-07-17T12:30:11Z</time>
<desc>lat.=55.820431, lon.=26.204178, Alt.=161.935669m. Speed=40.680000m/h.</desc>
<speed>11.300000</speed>
</trkpt>
<trkpt lat="55.820457" lon="26.204348">
<ele>162.002075</ele>
<time>2010-07-17T12:30:12Z</time>
<desc>lat.=55.820457, lon.=26.204348, Alt.=162.002075m. Speed=39.203999m/h.</desc>
<speed>10.890000</speed>
</trkpt>
<trkpt lat="55.820484" lon="26.204525">
<ele>161.869263</ele>
<time>2010-07-17T12:30:13Z</time>
<desc>lat.=55.820484, lon.=26.204525, Alt.=161.869263m. Speed=39.672001m/h.</desc>
<speed>11.020000</speed>
</trkpt>
<trkpt lat="55.820507" lon="26.204697">
<ele>161.826294</ele>
<time>2010-07-17T12:30:14Z</time>
<desc>lat.=55.820507, lon.=26.204697, Alt.=161.826294m. Speed=39.096001m/h.</desc>
<speed>10.860000</speed>
</trkpt>
<trkpt lat="55.820530" lon="26.204866">
<ele>161.818481</ele>
<time>2010-07-17T12:30:15Z</time>
<desc>lat.=55.820530, lon.=26.204866, Alt.=161.818481m. Speed=40.500000m/h.</desc>
<speed>11.250000</speed>
</trkpt>
<trkpt lat="55.820557" lon="26.205044">
<ele>161.830200</ele>
<time>2010-07-17T12:30:16Z</time>
<desc>lat.=55.820557, lon.=26.205044, Alt.=161.830200m. Speed=41.076000m/h.</desc>
<speed>11.410000</speed>
</trkpt>
<trkpt lat="55.820580" lon="26.205212">
<ele>161.853638</ele>
<time>2010-07-17T12:30:17Z</time>
<desc>lat.=55.820580, lon.=26.205212, Alt.=161.853638m. Speed=39.203999m/h.</desc>
<speed>10.890000</speed>
</trkpt>
<trkpt lat="55.820599" lon="26.205385">
<ele>161.912231</ele>
<time>2010-07-17T12:30:18Z</time>
<desc>lat.=55.820599, lon.=26.205385, Alt.=161.912231m. Speed=37.476002m/h.</desc>
<speed>10.410000</speed>
</trkpt>
<trkpt lat="55.820614" lon="26.205544">
<ele>161.904419</ele>
<time>2010-07-17T12:30:19Z</time>
<desc>lat.=55.820614, lon.=26.205544, Alt.=161.904419m. Speed=36.324001m/h.</desc>
<speed>10.090000</speed>
</trkpt>
<trkpt lat="55.820625" lon="26.205696">
<ele>161.873169</ele>
<time>2010-07-17T12:30:20Z</time>
<desc>lat.=55.820625, lon.=26.205696, Alt.=161.873169m. Speed=35.639999m/h.</desc>
<speed>9.900000</speed>
</trkpt>
<trkpt lat="55.820644" lon="26.205856">
<ele>161.146606</ele>
<time>2010-07-17T12:30:21Z</time>
<desc>lat.=55.820644, lon.=26.205856, Alt.=161.146606m. Speed=36.792000m/h.</desc>
<speed>10.220000</speed>
</trkpt>
<trkpt lat="55.820660" lon="26.206030">
<ele>161.185669</ele>
<time>2010-07-17T12:30:22Z</time>
<desc>lat.=55.820660, lon.=26.206030, Alt.=161.185669m. Speed=38.088001m/h.</desc>
<speed>10.580000</speed>
</trkpt>
<trkpt lat="55.820679" lon="26.206203">
<ele>161.392700</ele>
<time>2010-07-17T12:30:23Z</time>
<desc>lat.=55.820679, lon.=26.206203, Alt.=161.392700m. Speed=38.771999m/h.</desc>
<speed>10.770000</speed>
</trkpt>
<trkpt lat="55.820694" lon="26.206371">
<ele>161.127075</ele>
<time>2010-07-17T12:30:24Z</time>
<desc>lat.=55.820694, lon.=26.206371, Alt.=161.127075m. Speed=38.088001m/h.</desc>
<speed>10.580000</speed>
</trkpt>
<trkpt lat="55.820713" lon="26.206545">
<ele>160.673950</ele>
<time>2010-07-17T12:30:25Z</time>
<desc>lat.=55.820713, lon.=26.206545, Alt.=160.673950m. Speed=39.708000m/h.</desc>
<speed>11.030000</speed>
</trkpt>
<trkpt lat="55.820732" lon="26.206713">
<ele>160.283325</ele>
<time>2010-07-17T12:30:26Z</time>
<desc>lat.=55.820732, lon.=26.206713, Alt.=160.283325m. Speed=37.908001m/h.</desc>
<speed>10.530000</speed>
</trkpt>
<trkpt lat="55.820751" lon="26.206877">
<ele>160.205200</ele>
<time>2010-07-17T12:30:27Z</time>
<desc>lat.=55.820751, lon.=26.206877, Alt.=160.205200m. Speed=38.051998m/h.</desc>
<speed>10.569999</speed>
</trkpt>
<trkpt lat="55.820770" lon="26.207039">
<ele>159.970825</ele>
<time>2010-07-17T12:30:28Z</time>
<desc>lat.=55.820770, lon.=26.207039, Alt.=159.970825m. Speed=37.476002m/h.</desc>
<speed>10.410000</speed>
</trkpt>
<trkpt lat="55.820793" lon="26.207203">
<ele>159.767700</ele>
<time>2010-07-17T12:30:29Z</time>
<desc>lat.=55.820793, lon.=26.207203, Alt.=159.767700m. Speed=37.439999m/h.</desc>
<speed>10.400000</speed>
</trkpt>
<trkpt lat="55.820812" lon="26.207369">
<ele>159.193481</ele>
<time>2010-07-17T12:30:30Z</time>
<desc>lat.=55.820812, lon.=26.207369, Alt.=159.193481m. Speed=38.880001m/h.</desc>
<speed>10.800000</speed>
</trkpt>
<trkpt lat="55.820839" lon="26.207535">
<ele>158.963013</ele>
<time>2010-07-17T12:30:31Z</time>
<desc>lat.=55.820839, lon.=26.207535, Alt.=158.963013m. Speed=39.959999m/h.</desc>
<speed>11.100000</speed>
</trkpt>
<trkpt lat="55.820869" lon="26.207701">
<ele>158.541138</ele>
<time>2010-07-17T12:30:32Z</time>
<desc>lat.=55.820869, lon.=26.207701, Alt.=158.541138m. Speed=40.104000m/h.</desc>
<speed>11.140000</speed>
</trkpt>
<trkpt lat="55.820904" lon="26.207867">
<ele>158.127075</ele>
<time>2010-07-17T12:30:33Z</time>
<desc>lat.=55.820904, lon.=26.207867, Alt.=158.127075m. Speed=39.779999m/h.</desc>
<speed>11.050000</speed>
</trkpt>
<trkpt lat="55.820942" lon="26.208014">
<ele>157.822388</ele>
<time>2010-07-17T12:30:34Z</time>
<desc>lat.=55.820942, lon.=26.208014, Alt.=157.822388m. Speed=37.619999m/h.</desc>
<speed>10.450000</speed>
</trkpt>
<trkpt lat="55.820984" lon="26.208162">
<ele>157.716919</ele>
<time>2010-07-17T12:30:35Z</time>
<desc>lat.=55.820984, lon.=26.208162, Alt.=157.716919m. Speed=37.584000m/h.</desc>
<speed>10.440000</speed>
</trkpt>
<trkpt lat="55.821026" lon="26.208311">
<ele>157.623169</ele>
<time>2010-07-17T12:30:36Z</time>
<desc>lat.=55.821026, lon.=26.208311, Alt.=157.623169m. Speed=37.512001m/h.</desc>
<speed>10.420000</speed>
</trkpt>
<trkpt lat="55.821068" lon="26.208456">
<ele>157.427856</ele>
<time>2010-07-17T12:30:37Z</time>
<desc>lat.=55.821068, lon.=26.208456, Alt.=157.427856m. Speed=36.647999m/h.</desc>
<speed>10.180000</speed>
</trkpt>
<trkpt lat="55.821110" lon="26.208597">
<ele>157.170044</ele>
<time>2010-07-17T12:30:38Z</time>
<desc>lat.=55.821110, lon.=26.208597, Alt.=157.170044m. Speed=35.568001m/h.</desc>
<speed>9.880000</speed>
</trkpt>
<trkpt lat="55.821152" lon="26.208721">
<ele>157.099731</ele>
<time>2010-07-17T12:30:39Z</time>
<desc>lat.=55.821152, lon.=26.208721, Alt.=157.099731m. Speed=32.292000m/h.</desc>
<speed>8.970000</speed>
</trkpt>
<trkpt lat="55.821190" lon="26.208853">
<ele>156.884888</ele>
<time>2010-07-17T12:30:40Z</time>
<desc>lat.=55.821190, lon.=26.208853, Alt.=156.884888m. Speed=33.012001m/h.</desc>
<speed>9.170000</speed>
</trkpt>
<trkpt lat="55.821224" lon="26.208998">
<ele>156.572388</ele>
<time>2010-07-17T12:30:41Z</time>
<desc>lat.=55.821224, lon.=26.208998, Alt.=156.572388m. Speed=34.956001m/h.</desc>
<speed>9.710000</speed>
</trkpt>
<trkpt lat="55.821262" lon="26.209152">
<ele>156.052856</ele>
<time>2010-07-17T12:30:42Z</time>
<desc>lat.=55.821262, lon.=26.209152, Alt.=156.052856m. Speed=32.472000m/h.</desc>
<speed>9.020000</speed>
</trkpt>
<trkpt lat="55.821289" lon="26.209282">
<ele>155.810669</ele>
<time>2010-07-17T12:30:43Z</time>
<desc>lat.=55.821289, lon.=26.209282, Alt.=155.810669m. Speed=29.520000m/h.</desc>
<speed>8.200000</speed>
</trkpt>
<trkpt lat="55.821316" lon="26.209412">
<ele>155.119263</ele>
<time>2010-07-17T12:30:44Z</time>
<desc>lat.=55.821316, lon.=26.209412, Alt.=155.119263m. Speed=27.900000m/h.</desc>
<speed>7.750000</speed>
</trkpt>
<trkpt lat="55.821350" lon="26.209515">
<ele>154.490356</ele>
<time>2010-07-17T12:30:45Z</time>
<desc>lat.=55.821350, lon.=26.209515, Alt.=154.490356m. Speed=25.596001m/h.</desc>
<speed>7.110000</speed>
</trkpt>
<trkpt lat="55.821377" lon="26.209610">
<ele>153.877075</ele>
<time>2010-07-17T12:30:46Z</time>
<desc>lat.=55.821377, lon.=26.209610, Alt.=153.877075m. Speed=22.572001m/h.</desc>
<speed>6.270000</speed>
</trkpt>
<trkpt lat="55.821415" lon="26.209688">
<ele>153.654419</ele>
<time>2010-07-17T12:30:47Z</time>
<desc>lat.=55.821415, lon.=26.209688, Alt.=153.654419m. Speed=21.851999m/h.</desc>
<speed>6.070000</speed>
</trkpt>
<trkpt lat="55.821442" lon="26.209784">
<ele>152.912231</ele>
<time>2010-07-17T12:30:48Z</time>
<desc>lat.=55.821442, lon.=26.209784, Alt.=152.912231m. Speed=21.455999m/h.</desc>
<speed>5.960000</speed>
</trkpt>
<trkpt lat="55.821472" lon="26.209864">
<ele>152.314575</ele>
<time>2010-07-17T12:30:49Z</time>
<desc>lat.=55.821472, lon.=26.209864, Alt.=152.314575m. Speed=18.108000m/h.</desc>
<speed>5.030000</speed>
</trkpt>
<trkpt lat="55.821491" lon="26.209936">
<ele>151.591919</ele>
<time>2010-07-17T12:30:50Z</time>
<desc>lat.=55.821491, lon.=26.209936, Alt.=151.591919m. Speed=16.271999m/h.</desc>
<speed>4.520000</speed>
</trkpt>
<trkpt lat="55.821510" lon="26.210005">
<ele>151.142700</ele>
<time>2010-07-17T12:30:51Z</time>
<desc>lat.=55.821510, lon.=26.210005, Alt.=151.142700m. Speed=15.300000m/h.</desc>
<speed>4.250000</speed>
</trkpt>
<trkpt lat="55.821526" lon="26.210066">
<ele>150.974731</ele>
<time>2010-07-17T12:30:52Z</time>
<desc>lat.=55.821526, lon.=26.210066, Alt.=150.974731m. Speed=12.708000m/h.</desc>
<speed>3.530000</speed>
</trkpt>
<trkpt lat="55.821541" lon="26.210115">
<ele>150.744263</ele>
<time>2010-07-17T12:30:53Z</time>
<desc>lat.=55.821541, lon.=26.210115, Alt.=150.744263m. Speed=12.024000m/h.</desc>
<speed>3.340000</speed>
</trkpt>
<trkpt lat="55.821552" lon="26.210169">
<ele>151.064575</ele>
<time>2010-07-17T12:30:54Z</time>
<desc>lat.=55.821552, lon.=26.210169, Alt.=151.064575m. Speed=12.492000m/h.</desc>
<speed>3.470000</speed>
</trkpt>
<trkpt lat="55.821571" lon="26.210220">
<ele>150.650513</ele>
<time>2010-07-17T12:30:55Z</time>
<desc>lat.=55.821571, lon.=26.210220, Alt.=150.650513m. Speed=11.844000m/h.</desc>
<speed>3.290000</speed>
</trkpt>
<trkpt lat="55.821587" lon="26.210279">
<ele>150.384888</ele>
<time>2010-07-17T12:30:56Z</time>
<desc>lat.=55.821587, lon.=26.210279, Alt.=150.384888m. Speed=14.004000m/h.</desc>
<speed>3.890000</speed>
</trkpt>
<trkpt lat="55.821606" lon="26.210340">
<ele>150.306763</ele>
<time>2010-07-17T12:30:57Z</time>
<desc>lat.=55.821606, lon.=26.210340, Alt.=150.306763m. Speed=13.824000m/h.</desc>
<speed>3.840000</speed>
</trkpt>
<trkpt lat="55.821629" lon="26.210413">
<ele>149.982544</ele>
<time>2010-07-17T12:30:58Z</time>
<desc>lat.=55.821629, lon.=26.210413, Alt.=149.982544m. Speed=15.660000m/h.</desc>
<speed>4.350000</speed>
</trkpt>
<trkpt lat="55.821651" lon="26.210480">
<ele>149.892700</ele>
<time>2010-07-17T12:30:59Z</time>
<desc>lat.=55.821651, lon.=26.210480, Alt.=149.892700m. Speed=16.452000m/h.</desc>
<speed>4.570000</speed>
</trkpt>
<trkpt lat="55.821678" lon="26.210554">
<ele>149.736450</ele>
<time>2010-07-17T12:31:00Z</time>
<desc>lat.=55.821678, lon.=26.210554, Alt.=149.736450m. Speed=19.584000m/h.</desc>
<speed>5.440000</speed>
</trkpt>
<trkpt lat="55.821712" lon="26.210627">
<ele>149.806763</ele>
<time>2010-07-17T12:31:01Z</time>
<desc>lat.=55.821712, lon.=26.210627, Alt.=149.806763m. Speed=19.368000m/h.</desc>
<speed>5.380000</speed>
</trkpt>
<trkpt lat="55.821751" lon="26.210716">
<ele>149.802856</ele>
<time>2010-07-17T12:31:02Z</time>
<desc>lat.=55.821751, lon.=26.210716, Alt.=149.802856m. Speed=19.511999m/h.</desc>
<speed>5.420000</speed>
</trkpt>
<trkpt lat="55.821785" lon="26.210773">
<ele>150.228638</ele>
<time>2010-07-17T12:31:03Z</time>
<desc>lat.=55.821785, lon.=26.210773, Alt.=150.228638m. Speed=16.128000m/h.</desc>
<speed>4.480000</speed>
</trkpt>
<trkpt lat="55.821808" lon="26.210833">
<ele>149.900513</ele>
<time>2010-07-17T12:31:04Z</time>
<desc>lat.=55.821808, lon.=26.210833, Alt.=149.900513m. Speed=15.696000m/h.</desc>
<speed>4.360000</speed>
</trkpt>
<trkpt lat="55.821835" lon="26.210897">
<ele>150.025513</ele>
<time>2010-07-17T12:31:05Z</time>
<desc>lat.=55.821835, lon.=26.210897, Alt.=150.025513m. Speed=15.624000m/h.</desc>
<speed>4.340000</speed>
</trkpt>
<trkpt lat="55.821861" lon="26.210957">
<ele>149.654419</ele>
<time>2010-07-17T12:31:06Z</time>
<desc>lat.=55.821861, lon.=26.210957, Alt.=149.654419m. Speed=14.904000m/h.</desc>
<speed>4.140000</speed>
</trkpt>
<trkpt lat="55.821888" lon="26.211012">
<ele>149.380981</ele>
<time>2010-07-17T12:31:07Z</time>
<desc>lat.=55.821888, lon.=26.211012, Alt.=149.380981m. Speed=15.156000m/h.</desc>
<speed>4.210000</speed>
</trkpt>
<trkpt lat="55.821922" lon="26.211069">
<ele>149.107544</ele>
<time>2010-07-17T12:31:08Z</time>
<desc>lat.=55.821922, lon.=26.211069, Alt.=149.107544m. Speed=15.444000m/h.</desc>
<speed>4.290000</speed>
</trkpt>
<trkpt lat="55.821957" lon="26.211124">
<ele>148.775513</ele>
<time>2010-07-17T12:31:09Z</time>
<desc>lat.=55.821957, lon.=26.211124, Alt.=148.775513m. Speed=15.444000m/h.</desc>
<speed>4.290000</speed>
</trkpt>
<trkpt lat="55.821991" lon="26.211176">
<ele>148.795044</ele>
<time>2010-07-17T12:31:10Z</time>
<desc>lat.=55.821991, lon.=26.211176, Alt.=148.795044m. Speed=14.868000m/h.</desc>
<speed>4.130000</speed>
</trkpt>
<trkpt lat="55.822021" lon="26.211206">
<ele>148.681763</ele>
<time>2010-07-17T12:31:11Z</time>
<desc>lat.=55.822021, lon.=26.211206, Alt.=148.681763m. Speed=12.888000m/h.</desc>
<speed>3.580000</speed>
</trkpt>
<trkpt lat="55.822048" lon="26.211248">
<ele>148.814575</ele>
<time>2010-07-17T12:31:12Z</time>
<desc>lat.=55.822048, lon.=26.211248, Alt.=148.814575m. Speed=12.924000m/h.</desc>
<speed>3.590000</speed>
</trkpt>
<trkpt lat="55.822075" lon="26.211294">
<ele>148.802856</ele>
<time>2010-07-17T12:31:13Z</time>
<desc>lat.=55.822075, lon.=26.211294, Alt.=148.802856m. Speed=12.780000m/h.</desc>
<speed>3.550000</speed>
</trkpt>
<trkpt lat="55.822102" lon="26.211329">
<ele>148.642700</ele>
<time>2010-07-17T12:31:14Z</time>
<desc>lat.=55.822102, lon.=26.211329, Alt.=148.642700m. Speed=12.240000m/h.</desc>
<speed>3.400000</speed>
</trkpt>
<trkpt lat="55.822132" lon="26.211359">
<ele>148.279419</ele>
<time>2010-07-17T12:31:15Z</time>
<desc>lat.=55.822132, lon.=26.211359, Alt.=148.279419m. Speed=13.212000m/h.</desc>
<speed>3.670000</speed>
</trkpt>
<trkpt lat="55.822166" lon="26.211388">
<ele>148.248169</ele>
<time>2010-07-17T12:31:16Z</time>
<desc>lat.=55.822166, lon.=26.211388, Alt.=148.248169m. Speed=14.076000m/h.</desc>
<speed>3.910000</speed>
</trkpt>
<trkpt lat="55.822205" lon="26.211409">
<ele>148.431763</ele>
<time>2010-07-17T12:31:17Z</time>
<desc>lat.=55.822205, lon.=26.211409, Alt.=148.431763m. Speed=15.048000m/h.</desc>
<speed>4.180000</speed>
</trkpt>
<trkpt lat="55.822243" lon="26.211432">
<ele>148.920044</ele>
<time>2010-07-17T12:31:18Z</time>
<desc>lat.=55.822243, lon.=26.211432, Alt.=148.920044m. Speed=15.408000m/h.</desc>
<speed>4.280000</speed>
</trkpt>
<trkpt lat="55.822281" lon="26.211473">
<ele>149.802856</ele>
<time>2010-07-17T12:31:19Z</time>
<desc>lat.=55.822281, lon.=26.211473, Alt.=149.802856m. Speed=15.912000m/h.</desc>
<speed>4.420000</speed>
</trkpt>
<trkpt lat="55.822315" lon="26.211504">
<ele>149.810669</ele>
<time>2010-07-17T12:31:20Z</time>
<desc>lat.=55.822315, lon.=26.211504, Alt.=149.810669m. Speed=16.164000m/h.</desc>
<speed>4.490000</speed>
</trkpt>
<trkpt lat="55.822350" lon="26.211536">
<ele>149.732544</ele>
<time>2010-07-17T12:31:21Z</time>
<desc>lat.=55.822350, lon.=26.211536, Alt.=149.732544m. Speed=14.976000m/h.</desc>
<speed>4.160000</speed>
</trkpt>
<trkpt lat="55.822384" lon="26.211567">
<ele>149.505981</ele>
<time>2010-07-17T12:31:22Z</time>
<desc>lat.=55.822384, lon.=26.211567, Alt.=149.505981m. Speed=14.148000m/h.</desc>
<speed>3.930000</speed>
</trkpt>
<trkpt lat="55.822418" lon="26.211586">
<ele>149.466919</ele>
<time>2010-07-17T12:31:23Z</time>
<desc>lat.=55.822418, lon.=26.211586, Alt.=149.466919m. Speed=13.968000m/h.</desc>
<speed>3.880000</speed>
</trkpt>
<trkpt lat="55.822464" lon="26.211592">
<ele>149.201294</ele>
<time>2010-07-17T12:31:24Z</time>
<desc>lat.=55.822464, lon.=26.211592, Alt.=149.201294m. Speed=13.644000m/h.</desc>
<speed>3.790000</speed>
</trkpt>
<trkpt lat="55.822491" lon="26.211605">
<ele>149.502075</ele>
<time>2010-07-17T12:31:25Z</time>
<desc>lat.=55.822491, lon.=26.211605, Alt.=149.502075m. Speed=11.052000m/h.</desc>
<speed>3.070000</speed>
</trkpt>
<trkpt lat="55.822529" lon="26.211617">
<ele>149.111450</ele>
<time>2010-07-17T12:31:26Z</time>
<desc>lat.=55.822529, lon.=26.211617, Alt.=149.111450m. Speed=12.996000m/h.</desc>
<speed>3.610000</speed>
</trkpt>
<trkpt lat="55.822567" lon="26.211628">
<ele>149.076294</ele>
<time>2010-07-17T12:31:27Z</time>
<desc>lat.=55.822567, lon.=26.211628, Alt.=149.076294m. Speed=13.320000m/h.</desc>
<speed>3.700000</speed>
</trkpt>
<trkpt lat="55.822601" lon="26.211649">
<ele>148.892700</ele>
<time>2010-07-17T12:31:28Z</time>
<desc>lat.=55.822601, lon.=26.211649, Alt.=148.892700m. Speed=15.300000m/h.</desc>
<speed>4.250000</speed>
</trkpt>
<trkpt lat="55.822639" lon="26.211678">
<ele>148.720825</ele>
<time>2010-07-17T12:31:29Z</time>
<desc>lat.=55.822639, lon.=26.211678, Alt.=148.720825m. Speed=16.271999m/h.</desc>
<speed>4.520000</speed>
</trkpt>
<trkpt lat="55.822681" lon="26.211700">
<ele>148.298950</ele>
<time>2010-07-17T12:31:30Z</time>
<desc>lat.=55.822681, lon.=26.211700, Alt.=148.298950m. Speed=17.856001m/h.</desc>
<speed>4.960000</speed>
</trkpt>
<trkpt lat="55.822727" lon="26.211723">
<ele>147.630981</ele>
<time>2010-07-17T12:31:31Z</time>
<desc>lat.=55.822727, lon.=26.211723, Alt.=147.630981m. Speed=20.736000m/h.</desc>
<speed>5.760000</speed>
</trkpt>
<trkpt lat="55.822781" lon="26.211752">
<ele>147.822388</ele>
<time>2010-07-17T12:31:32Z</time>
<desc>lat.=55.822781, lon.=26.211752, Alt.=147.822388m. Speed=21.059999m/h.</desc>
<speed>5.850000</speed>
</trkpt>
<trkpt lat="55.822842" lon="26.211786">
<ele>148.248169</ele>
<time>2010-07-17T12:31:33Z</time>
<desc>lat.=55.822842, lon.=26.211786, Alt.=148.248169m. Speed=21.708000m/h.</desc>
<speed>6.030000</speed>
</trkpt>
<trkpt lat="55.822906" lon="26.211824">
<ele>149.451294</ele>
<time>2010-07-17T12:31:34Z</time>
<desc>lat.=55.822906, lon.=26.211824, Alt.=149.451294m. Speed=22.716000m/h.</desc>
<speed>6.310000</speed>
</trkpt>
<trkpt lat="55.822971" lon="26.211861">
<ele>150.263794</ele>
<time>2010-07-17T12:31:35Z</time>
<desc>lat.=55.822971, lon.=26.211861, Alt.=150.263794m. Speed=23.040001m/h.</desc>
<speed>6.400000</speed>
</trkpt>
<trkpt lat="55.823025" lon="26.211901">
<ele>151.041138</ele>
<time>2010-07-17T12:31:36Z</time>
<desc>lat.=55.823025, lon.=26.211901, Alt.=151.041138m. Speed=23.112000m/h.</desc>
<speed>6.420000</speed>
</trkpt>
<trkpt lat="55.823082" lon="26.211937">
<ele>151.119263</ele>
<time>2010-07-17T12:31:37Z</time>
<desc>lat.=55.823082, lon.=26.211937, Alt.=151.119263m. Speed=23.868000m/h.</desc>
<speed>6.630000</speed>
</trkpt>
<trkpt lat="55.823143" lon="26.211969">
<ele>151.060669</ele>
<time>2010-07-17T12:31:38Z</time>
<desc>lat.=55.823143, lon.=26.211969, Alt.=151.060669m. Speed=25.056000m/h.</desc>
<speed>6.960000</speed>
</trkpt>
<trkpt lat="55.823200" lon="26.212000">
<ele>150.916138</ele>
<time>2010-07-17T12:31:39Z</time>
<desc>lat.=55.823200, lon.=26.212000, Alt.=150.916138m. Speed=24.480000m/h.</desc>
<speed>6.800000</speed>
</trkpt>
<trkpt lat="55.823257" lon="26.212030">
<ele>150.916138</ele>
<time>2010-07-17T12:31:40Z</time>
<desc>lat.=55.823257, lon.=26.212030, Alt.=150.916138m. Speed=23.796000m/h.</desc>
<speed>6.610000</speed>
</trkpt>
<trkpt lat="55.823307" lon="26.212063">
<ele>151.150513</ele>
<time>2010-07-17T12:31:41Z</time>
<desc>lat.=55.823307, lon.=26.212063, Alt.=151.150513m. Speed=23.544001m/h.</desc>
<speed>6.540000</speed>
</trkpt>
<trkpt lat="55.823353" lon="26.212109">
<ele>151.220825</ele>
<time>2010-07-17T12:31:42Z</time>
<desc>lat.=55.823353, lon.=26.212109, Alt.=151.220825m. Speed=20.952000m/h.</desc>
<speed>5.820000</speed>
</trkpt>
<trkpt lat="55.823395" lon="26.212166">
<ele>151.314575</ele>
<time>2010-07-17T12:31:43Z</time>
<desc>lat.=55.823395, lon.=26.212166, Alt.=151.314575m. Speed=19.944000m/h.</desc>
<speed>5.540000</speed>
</trkpt>
<trkpt lat="55.823433" lon="26.212221">
<ele>151.361450</ele>
<time>2010-07-17T12:31:44Z</time>
<desc>lat.=55.823433, lon.=26.212221, Alt.=151.361450m. Speed=20.052000m/h.</desc>
<speed>5.570000</speed>
</trkpt>
<trkpt lat="55.823475" lon="26.212280">
<ele>151.197388</ele>
<time>2010-07-17T12:31:45Z</time>
<desc>lat.=55.823475, lon.=26.212280, Alt.=151.197388m. Speed=20.591999m/h.</desc>
<speed>5.720000</speed>
</trkpt>
<trkpt lat="55.823517" lon="26.212347">
<ele>151.103638</ele>
<time>2010-07-17T12:31:46Z</time>
<desc>lat.=55.823517, lon.=26.212347, Alt.=151.103638m. Speed=20.556000m/h.</desc>
<speed>5.710000</speed>
</trkpt>
<trkpt lat="55.823547" lon="26.212423">
<ele>151.423950</ele>
<time>2010-07-17T12:31:47Z</time>
<desc>lat.=55.823547, lon.=26.212423, Alt.=151.423950m. Speed=20.052000m/h.</desc>
<speed>5.570000</speed>
</trkpt>
<trkpt lat="55.823566" lon="26.212513">
<ele>151.259888</ele>
<time>2010-07-17T12:31:48Z</time>
<desc>lat.=55.823566, lon.=26.212513, Alt.=151.259888m. Speed=21.708000m/h.</desc>
<speed>6.030000</speed>
</trkpt>
<trkpt lat="55.823578" lon="26.212599">
<ele>151.213013</ele>
<time>2010-07-17T12:31:49Z</time>
<desc>lat.=55.823578, lon.=26.212599, Alt.=151.213013m. Speed=19.260000m/h.</desc>
<speed>5.350000</speed>
</trkpt>
<trkpt lat="55.823582" lon="26.212694">
<ele>150.861450</ele>
<time>2010-07-17T12:31:50Z</time>
<desc>lat.=55.823582, lon.=26.212694, Alt.=150.861450m. Speed=20.736000m/h.</desc>
<speed>5.760000</speed>
</trkpt>
<trkpt lat="55.823574" lon="26.212767">
<ele>151.056763</ele>
<time>2010-07-17T12:31:51Z</time>
<desc>lat.=55.823574, lon.=26.212767, Alt.=151.056763m. Speed=18.864000m/h.</desc>
<speed>5.240000</speed>
</trkpt>
<trkpt lat="55.823563" lon="26.212835">
<ele>151.416138</ele>
<time>2010-07-17T12:31:52Z</time>
<desc>lat.=55.823563, lon.=26.212835, Alt.=151.416138m. Speed=19.188000m/h.</desc>
<speed>5.330000</speed>
</trkpt>
<trkpt lat="55.823551" lon="26.212914">
<ele>151.834106</ele>
<time>2010-07-17T12:31:53Z</time>
<desc>lat.=55.823551, lon.=26.212914, Alt.=151.834106m. Speed=17.712000m/h.</desc>
<speed>4.920000</speed>
</trkpt>
<trkpt lat="55.823540" lon="26.212986">
<ele>151.259888</ele>
<time>2010-07-17T12:31:54Z</time>
<desc>lat.=55.823540, lon.=26.212986, Alt.=151.259888m. Speed=16.632000m/h.</desc>
<speed>4.620000</speed>
</trkpt>
<trkpt lat="55.823524" lon="26.213058">
<ele>150.548950</ele>
<time>2010-07-17T12:31:55Z</time>
<desc>lat.=55.823524, lon.=26.213058, Alt.=150.548950m. Speed=15.876000m/h.</desc>
<speed>4.410000</speed>
</trkpt>
<trkpt lat="55.823513" lon="26.213118">
<ele>149.564575</ele>
<time>2010-07-17T12:31:56Z</time>
<desc>lat.=55.823513, lon.=26.213118, Alt.=149.564575m. Speed=15.444000m/h.</desc>
<speed>4.290000</speed>
</trkpt>
<trkpt lat="55.823509" lon="26.213181">
<ele>148.689575</ele>
<time>2010-07-17T12:31:57Z</time>
<desc>lat.=55.823509, lon.=26.213181, Alt.=148.689575m. Speed=15.084000m/h.</desc>
<speed>4.190000</speed>
</trkpt>
<trkpt lat="55.823502" lon="26.213236">
<ele>148.826294</ele>
<time>2010-07-17T12:31:58Z</time>
<desc>lat.=55.823502, lon.=26.213236, Alt.=148.826294m. Speed=14.148000m/h.</desc>
<speed>3.930000</speed>
</trkpt>
<trkpt lat="55.823498" lon="26.213291">
<ele>148.322388</ele>
<time>2010-07-17T12:31:59Z</time>
<desc>lat.=55.823498, lon.=26.213291, Alt.=148.322388m. Speed=14.220000m/h.</desc>
<speed>3.950000</speed>
</trkpt>
<trkpt lat="55.823494" lon="26.213352">
<ele>147.838013</ele>
<time>2010-07-17T12:32:00Z</time>
<desc>lat.=55.823494, lon.=26.213352, Alt.=147.838013m. Speed=14.472000m/h.</desc>
<speed>4.020000</speed>
</trkpt>
<trkpt lat="55.823494" lon="26.213423">
<ele>147.423950</ele>
<time>2010-07-17T12:32:01Z</time>
<desc>lat.=55.823494, lon.=26.213423, Alt.=147.423950m. Speed=16.632000m/h.</desc>
<speed>4.620000</speed>
</trkpt>
<trkpt lat="55.823490" lon="26.213499">
<ele>147.322388</ele>
<time>2010-07-17T12:32:02Z</time>
<desc>lat.=55.823490, lon.=26.213499, Alt.=147.322388m. Speed=18.576000m/h.</desc>
<speed>5.160000</speed>
</trkpt>
<trkpt lat="55.823486" lon="26.213583">
<ele>146.548950</ele>
<time>2010-07-17T12:32:03Z</time>
<desc>lat.=55.823486, lon.=26.213583, Alt.=146.548950m. Speed=20.736000m/h.</desc>
<speed>5.760000</speed>
</trkpt>
<trkpt lat="55.823483" lon="26.213673">
<ele>146.509888</ele>
<time>2010-07-17T12:32:04Z</time>
<desc>lat.=55.823483, lon.=26.213673, Alt.=146.509888m. Speed=21.924000m/h.</desc>
<speed>6.090000</speed>
</trkpt>
<trkpt lat="55.823471" lon="26.213768">
<ele>145.943481</ele>
<time>2010-07-17T12:32:05Z</time>
<desc>lat.=55.823471, lon.=26.213768, Alt.=145.943481m. Speed=22.139999m/h.</desc>
<speed>6.150000</speed>
</trkpt>
<trkpt lat="55.823456" lon="26.213848">
<ele>145.709106</ele>
<time>2010-07-17T12:32:06Z</time>
<desc>lat.=55.823456, lon.=26.213848, Alt.=145.709106m. Speed=19.332001m/h.</desc>
<speed>5.370000</speed>
</trkpt>
<trkpt lat="55.823433" lon="26.213913">
<ele>145.361450</ele>
<time>2010-07-17T12:32:07Z</time>
<desc>lat.=55.823433, lon.=26.213913, Alt.=145.361450m. Speed=17.459999m/h.</desc>
<speed>4.850000</speed>
</trkpt>
<trkpt lat="55.823410" lon="26.213982">
<ele>144.580200</ele>
<time>2010-07-17T12:32:08Z</time>
<desc>lat.=55.823410, lon.=26.213982, Alt.=144.580200m. Speed=17.136000m/h.</desc>
<speed>4.760000</speed>
</trkpt>
<trkpt lat="55.823383" lon="26.214050">
<ele>143.822388</ele>
<time>2010-07-17T12:32:09Z</time>
<desc>lat.=55.823383, lon.=26.214050, Alt.=143.822388m. Speed=17.496000m/h.</desc>
<speed>4.860000</speed>
</trkpt>
<trkpt lat="55.823357" lon="26.214134">
<ele>143.252075</ele>
<time>2010-07-17T12:32:10Z</time>
<desc>lat.=55.823357, lon.=26.214134, Alt.=143.252075m. Speed=18.756001m/h.</desc>
<speed>5.210000</speed>
</trkpt>
<trkpt lat="55.823330" lon="26.214220">
<ele>143.095825</ele>
<time>2010-07-17T12:32:11Z</time>
<desc>lat.=55.823330, lon.=26.214220, Alt.=143.095825m. Speed=17.568001m/h.</desc>
<speed>4.880000</speed>
</trkpt>
<trkpt lat="55.823307" lon="26.214287">
<ele>142.646606</ele>
<time>2010-07-17T12:32:12Z</time>
<desc>lat.=55.823307, lon.=26.214287, Alt.=142.646606m. Speed=16.344000m/h.</desc>
<speed>4.540000</speed>
</trkpt>
<trkpt lat="55.823284" lon="26.214352">
<ele>142.334106</ele>
<time>2010-07-17T12:32:13Z</time>
<desc>lat.=55.823284, lon.=26.214352, Alt.=142.334106m. Speed=14.508000m/h.</desc>
<speed>4.030000</speed>
</trkpt>
<trkpt lat="55.823265" lon="26.214411">
<ele>142.213013</ele>
<time>2010-07-17T12:32:14Z</time>
<desc>lat.=55.823265, lon.=26.214411, Alt.=142.213013m. Speed=14.004000m/h.</desc>
<speed>3.890000</speed>
</trkpt>
<trkpt lat="55.823238" lon="26.214464">
<ele>142.783325</ele>
<time>2010-07-17T12:32:15Z</time>
<desc>lat.=55.823238, lon.=26.214464, Alt.=142.783325m. Speed=13.248000m/h.</desc>
<speed>3.680000</speed>
</trkpt>
<trkpt lat="55.823215" lon="26.214514">
<ele>143.588013</ele>
<time>2010-07-17T12:32:16Z</time>
<desc>lat.=55.823215, lon.=26.214514, Alt.=143.588013m. Speed=12.744000m/h.</desc>
<speed>3.540000</speed>
</trkpt>
<trkpt lat="55.823196" lon="26.214561">
<ele>143.912231</ele>
<time>2010-07-17T12:32:17Z</time>
<desc>lat.=55.823196, lon.=26.214561, Alt.=143.912231m. Speed=11.952000m/h.</desc>
<speed>3.320000</speed>
</trkpt>
<trkpt lat="55.823181" lon="26.214613">
<ele>144.560669</ele>
<time>2010-07-17T12:32:18Z</time>
<desc>lat.=55.823181, lon.=26.214613, Alt.=144.560669m. Speed=11.376000m/h.</desc>
<speed>3.160000</speed>
</trkpt>
<trkpt lat="55.823162" lon="26.214659">
<ele>144.740356</ele>
<time>2010-07-17T12:32:19Z</time>
<desc>lat.=55.823162, lon.=26.214659, Alt.=144.740356m. Speed=10.728000m/h.</desc>
<speed>2.980000</speed>
</trkpt>
<trkpt lat="55.823147" lon="26.214703">
<ele>144.888794</ele>
<time>2010-07-17T12:32:20Z</time>
<desc>lat.=55.823147, lon.=26.214703, Alt.=144.888794m. Speed=10.584000m/h.</desc>
<speed>2.940000</speed>
</trkpt>
<trkpt lat="55.823128" lon="26.214739">
<ele>144.861450</ele>
<time>2010-07-17T12:32:21Z</time>
<desc>lat.=55.823128, lon.=26.214739, Alt.=144.861450m. Speed=10.116000m/h.</desc>
<speed>2.810000</speed>
</trkpt>
<trkpt lat="55.823112" lon="26.214771">
<ele>144.502075</ele>
<time>2010-07-17T12:32:22Z</time>
<desc>lat.=55.823112, lon.=26.214771, Alt.=144.502075m. Speed=10.008000m/h.</desc>
<speed>2.780000</speed>
</trkpt>
<trkpt lat="55.823097" lon="26.214813">
<ele>144.248169</ele>
<time>2010-07-17T12:32:23Z</time>
<desc>lat.=55.823097, lon.=26.214813, Alt.=144.248169m. Speed=10.872000m/h.</desc>
<speed>3.020000</speed>
</trkpt>
<trkpt lat="55.823078" lon="26.214855">
<ele>144.634888</ele>
<time>2010-07-17T12:32:24Z</time>
<desc>lat.=55.823078, lon.=26.214855, Alt.=144.634888m. Speed=11.016000m/h.</desc>
<speed>3.060000</speed>
</trkpt>
<trkpt lat="55.823063" lon="26.214899">
<ele>144.502075</ele>
<time>2010-07-17T12:32:25Z</time>
<desc>lat.=55.823063, lon.=26.214899, Alt.=144.502075m. Speed=12.060000m/h.</desc>
<speed>3.350000</speed>
</trkpt>
<trkpt lat="55.823040" lon="26.214937">
<ele>144.377075</ele>
<time>2010-07-17T12:32:26Z</time>
<desc>lat.=55.823040, lon.=26.214937, Alt.=144.377075m. Speed=13.032000m/h.</desc>
<speed>3.620000</speed>
</trkpt>
<trkpt lat="55.823021" lon="26.214987">
<ele>144.275513</ele>
<time>2010-07-17T12:32:27Z</time>
<desc>lat.=55.823021, lon.=26.214987, Alt.=144.275513m. Speed=13.464000m/h.</desc>
<speed>3.740000</speed>
</trkpt>
<trkpt lat="55.823002" lon="26.215040">
<ele>143.998169</ele>
<time>2010-07-17T12:32:28Z</time>
<desc>lat.=55.823002, lon.=26.215040, Alt.=143.998169m. Speed=14.292000m/h.</desc>
<speed>3.970000</speed>
</trkpt>
<trkpt lat="55.822987" lon="26.215107">
<ele>143.959106</ele>
<time>2010-07-17T12:32:29Z</time>
<desc>lat.=55.822987, lon.=26.215107, Alt.=143.959106m. Speed=16.416000m/h.</desc>
<speed>4.560000</speed>
</trkpt>
<trkpt lat="55.822971" lon="26.215178">
<ele>143.802856</ele>
<time>2010-07-17T12:32:30Z</time>
<desc>lat.=55.822971, lon.=26.215178, Alt.=143.802856m. Speed=18.180000m/h.</desc>
<speed>5.050000</speed>
</trkpt>
<trkpt lat="55.822952" lon="26.215256">
<ele>143.380981</ele>
<time>2010-07-17T12:32:31Z</time>
<desc>lat.=55.822952, lon.=26.215256, Alt.=143.380981m. Speed=19.656000m/h.</desc>
<speed>5.460000</speed>
</trkpt>
<trkpt lat="55.822941" lon="26.215342">
<ele>142.627075</ele>
<time>2010-07-17T12:32:32Z</time>
<desc>lat.=55.822941, lon.=26.215342, Alt.=142.627075m. Speed=20.591999m/h.</desc>
<speed>5.720000</speed>
</trkpt>
<trkpt lat="55.822933" lon="26.215439">
<ele>142.076294</ele>
<time>2010-07-17T12:32:33Z</time>
<desc>lat.=55.822933, lon.=26.215439, Alt.=142.076294m. Speed=22.392000m/h.</desc>
<speed>6.220000</speed>
</trkpt>
<trkpt lat="55.822933" lon="26.215544">
<ele>141.744263</ele>
<time>2010-07-17T12:32:34Z</time>
<desc>lat.=55.822933, lon.=26.215544, Alt.=141.744263m. Speed=23.940001m/h.</desc>
<speed>6.650000</speed>
</trkpt>
<trkpt lat="55.822937" lon="26.215651">
<ele>141.369263</ele>
<time>2010-07-17T12:32:35Z</time>
<desc>lat.=55.822937, lon.=26.215651, Alt.=141.369263m. Speed=25.271999m/h.</desc>
<speed>7.020000</speed>
</trkpt>
<trkpt lat="55.822948" lon="26.215759">
<ele>140.900513</ele>
<time>2010-07-17T12:32:36Z</time>
<desc>lat.=55.822948, lon.=26.215759, Alt.=140.900513m. Speed=24.048000m/h.</desc>
<speed>6.680000</speed>
</trkpt>
<trkpt lat="55.822956" lon="26.215858">
<ele>140.205200</ele>
<time>2010-07-17T12:32:37Z</time>
<desc>lat.=55.822956, lon.=26.215858, Alt.=140.205200m. Speed=24.048000m/h.</desc>
<speed>6.680000</speed>
</trkpt>
<trkpt lat="55.822994" lon="26.215990">
<ele>140.064575</ele>
<time>2010-07-17T12:32:38Z</time>
<desc>lat.=55.822994, lon.=26.215990, Alt.=140.064575m. Speed=24.120001m/h.</desc>
<speed>6.700000</speed>
</trkpt>
<trkpt lat="55.823021" lon="26.216099">
<ele>139.420044</ele>
<time>2010-07-17T12:32:39Z</time>
<desc>lat.=55.823021, lon.=26.216099, Alt.=139.420044m. Speed=23.688000m/h.</desc>
<speed>6.580000</speed>
</trkpt>
<trkpt lat="55.823059" lon="26.216215">
<ele>139.115356</ele>
<time>2010-07-17T12:32:40Z</time>
<desc>lat.=55.823059, lon.=26.216215, Alt.=139.115356m. Speed=24.120001m/h.</desc>
<speed>6.700000</speed>
</trkpt>
<trkpt lat="55.823086" lon="26.216312">
<ele>138.662231</ele>
<time>2010-07-17T12:32:41Z</time>
<desc>lat.=55.823086, lon.=26.216312, Alt.=138.662231m. Speed=23.472000m/h.</desc>
<speed>6.520000</speed>
</trkpt>
<trkpt lat="55.823105" lon="26.216415">
<ele>138.048950</ele>
<time>2010-07-17T12:32:42Z</time>
<desc>lat.=55.823105, lon.=26.216415, Alt.=138.048950m. Speed=23.436001m/h.</desc>
<speed>6.510000</speed>
</trkpt>
<trkpt lat="55.823120" lon="26.216507">
<ele>137.810669</ele>
<time>2010-07-17T12:32:43Z</time>
<desc>lat.=55.823120, lon.=26.216507, Alt.=137.810669m. Speed=19.368000m/h.</desc>
<speed>5.380000</speed>
</trkpt>
<trkpt lat="55.823147" lon="26.216587">
<ele>137.377075</ele>
<time>2010-07-17T12:32:44Z</time>
<desc>lat.=55.823147, lon.=26.216587, Alt.=137.377075m. Speed=19.584000m/h.</desc>
<speed>5.440000</speed>
</trkpt>
<trkpt lat="55.823158" lon="26.216658">
<ele>137.416138</ele>
<time>2010-07-17T12:32:45Z</time>
<desc>lat.=55.823158, lon.=26.216658, Alt.=137.416138m. Speed=14.832000m/h.</desc>
<speed>4.120000</speed>
</trkpt>
<trkpt lat="55.823166" lon="26.216713">
<ele>137.666138</ele>
<time>2010-07-17T12:32:46Z</time>
<desc>lat.=55.823166, lon.=26.216713, Alt.=137.666138m. Speed=13.032000m/h.</desc>
<speed>3.620000</speed>
</trkpt>
<trkpt lat="55.823174" lon="26.216768">
<ele>138.228638</ele>
<time>2010-07-17T12:32:47Z</time>
<desc>lat.=55.823174, lon.=26.216768, Alt.=138.228638m. Speed=11.520000m/h.</desc>
<speed>3.200000</speed>
</trkpt>
<trkpt lat="55.823185" lon="26.216822">
<ele>137.955200</ele>
<time>2010-07-17T12:32:48Z</time>
<desc>lat.=55.823185, lon.=26.216822, Alt.=137.955200m. Speed=11.448000m/h.</desc>
<speed>3.180000</speed>
</trkpt>
<trkpt lat="55.823200" lon="26.216881">
<ele>137.810669</ele>
<time>2010-07-17T12:32:49Z</time>
<desc>lat.=55.823200, lon.=26.216881, Alt.=137.810669m. Speed=12.384000m/h.</desc>
<speed>3.440000</speed>
</trkpt>
<trkpt lat="55.823200" lon="26.216898">
<ele>137.810669</ele>
<time>2010-07-17T12:32:50Z</time>
<desc>lat.=55.823200, lon.=26.216898, Alt.=137.810669m. Speed=5.328000m/h.</desc>
<speed>1.480000</speed>
</trkpt>
<trkpt lat="55.823212" lon="26.216946">
<ele>137.724731</ele>
<time>2010-07-17T12:32:51Z</time>
<desc>lat.=55.823212, lon.=26.216946, Alt.=137.724731m. Speed=9.360000m/h.</desc>
<speed>2.600000</speed>
</trkpt>
<trkpt lat="55.823215" lon="26.216972">
<ele>137.990356</ele>
<time>2010-07-17T12:32:52Z</time>
<desc>lat.=55.823215, lon.=26.216972, Alt.=137.990356m. Speed=6.552000m/h.</desc>
<speed>1.820000</speed>
</trkpt>
<trkpt lat="55.823219" lon="26.217005">
<ele>138.369263</ele>
<time>2010-07-17T12:32:53Z</time>
<desc>lat.=55.823219, lon.=26.217005, Alt.=138.369263m. Speed=6.228000m/h.</desc>
<speed>1.730000</speed>
</trkpt>
<trkpt lat="55.823242" lon="26.217075">
<ele>138.388794</ele>
<time>2010-07-17T12:32:54Z</time>
<desc>lat.=55.823242, lon.=26.217075, Alt.=138.388794m. Speed=8.028000m/h.</desc>
<speed>2.230000</speed>
</trkpt>
<trkpt lat="55.823257" lon="26.217117">
<ele>138.728638</ele>
<time>2010-07-17T12:32:55Z</time>
<desc>lat.=55.823257, lon.=26.217117, Alt.=138.728638m. Speed=6.048000m/h.</desc>
<speed>1.680000</speed>
</trkpt>
<trkpt lat="55.823261" lon="26.217159">
<ele>138.713013</ele>
<time>2010-07-17T12:32:56Z</time>
<desc>lat.=55.823261, lon.=26.217159, Alt.=138.713013m. Speed=5.832000m/h.</desc>
<speed>1.620000</speed>
</trkpt>
<trkpt lat="55.823273" lon="26.217226">
<ele>138.041138</ele>
<time>2010-07-17T12:32:57Z</time>
<desc>lat.=55.823273, lon.=26.217226, Alt.=138.041138m. Speed=7.452000m/h.</desc>
<speed>2.070000</speed>
</trkpt>
<trkpt lat="55.823288" lon="26.217287">
<ele>137.689575</ele>
<time>2010-07-17T12:32:58Z</time>
<desc>lat.=55.823288, lon.=26.217287, Alt.=137.689575m. Speed=9.576000m/h.</desc>
<speed>2.660000</speed>
</trkpt>
<trkpt lat="55.823303" lon="26.217323">
<ele>137.810669</ele>
<time>2010-07-17T12:32:59Z</time>
<desc>lat.=55.823303, lon.=26.217323, Alt.=137.810669m. Speed=7.812000m/h.</desc>
<speed>2.170000</speed>
</trkpt>
<trkpt lat="55.823322" lon="26.217360">
<ele>137.545044</ele>
<time>2010-07-17T12:33:00Z</time>
<desc>lat.=55.823322, lon.=26.217360, Alt.=137.545044m. Speed=9.468000m/h.</desc>
<speed>2.630000</speed>
</trkpt>
<trkpt lat="55.823341" lon="26.217405">
<ele>137.232544</ele>
<time>2010-07-17T12:33:01Z</time>
<desc>lat.=55.823341, lon.=26.217405, Alt.=137.232544m. Speed=10.800000m/h.</desc>
<speed>3.000000</speed>
</trkpt>
<trkpt lat="55.823357" lon="26.217455">
<ele>137.263794</ele>
<time>2010-07-17T12:33:02Z</time>
<desc>lat.=55.823357, lon.=26.217455, Alt.=137.263794m. Speed=11.844000m/h.</desc>
<speed>3.290000</speed>
</trkpt>
<trkpt lat="55.823380" lon="26.217514">
<ele>137.224731</ele>
<time>2010-07-17T12:33:03Z</time>
<desc>lat.=55.823380, lon.=26.217514, Alt.=137.224731m. Speed=11.052000m/h.</desc>
<speed>3.070000</speed>
</trkpt>
<trkpt lat="55.823391" lon="26.217564">
<ele>137.732544</ele>
<time>2010-07-17T12:33:04Z</time>
<desc>lat.=55.823391, lon.=26.217564, Alt.=137.732544m. Speed=11.556000m/h.</desc>
<speed>3.210000</speed>
</trkpt>
<trkpt lat="55.823406" lon="26.217621">
<ele>137.603638</ele>
<time>2010-07-17T12:33:05Z</time>
<desc>lat.=55.823406, lon.=26.217621, Alt.=137.603638m. Speed=11.664000m/h.</desc>
<speed>3.240000</speed>
</trkpt>
<trkpt lat="55.823429" lon="26.217669">
<ele>138.021606</ele>
<time>2010-07-17T12:33:06Z</time>
<desc>lat.=55.823429, lon.=26.217669, Alt.=138.021606m. Speed=12.780000m/h.</desc>
<speed>3.550000</speed>
</trkpt>
<trkpt lat="55.823448" lon="26.217709">
<ele>138.154419</ele>
<time>2010-07-17T12:33:07Z</time>
<desc>lat.=55.823448, lon.=26.217709, Alt.=138.154419m. Speed=11.880000m/h.</desc>
<speed>3.300000</speed>
</trkpt>
<trkpt lat="55.823471" lon="26.217754">
<ele>138.443481</ele>
<time>2010-07-17T12:33:08Z</time>
<desc>lat.=55.823471, lon.=26.217754, Alt.=138.443481m. Speed=12.348000m/h.</desc>
<speed>3.430000</speed>
</trkpt>
<trkpt lat="55.823509" lon="26.217808">
<ele>139.119263</ele>
<time>2010-07-17T12:33:09Z</time>
<desc>lat.=55.823509, lon.=26.217808, Alt.=139.119263m. Speed=16.020000m/h.</desc>
<speed>4.450000</speed>
</trkpt>
<trkpt lat="55.823566" lon="26.217865">
<ele>139.787231</ele>
<time>2010-07-17T12:33:10Z</time>
<desc>lat.=55.823566, lon.=26.217865, Alt.=139.787231m. Speed=20.268000m/h.</desc>
<speed>5.630000</speed>
</trkpt>
<trkpt lat="55.823631" lon="26.217915">
<ele>140.248169</ele>
<time>2010-07-17T12:33:11Z</time>
<desc>lat.=55.823631, lon.=26.217915, Alt.=140.248169m. Speed=20.988001m/h.</desc>
<speed>5.830000</speed>
</trkpt>
<trkpt lat="55.823689" lon="26.217953">
<ele>140.533325</ele>
<time>2010-07-17T12:33:12Z</time>
<desc>lat.=55.823689, lon.=26.217953, Alt.=140.533325m. Speed=22.572001m/h.</desc>
<speed>6.270000</speed>
</trkpt>
<trkpt lat="55.823746" lon="26.217972">
<ele>140.912231</ele>
<time>2010-07-17T12:33:13Z</time>
<desc>lat.=55.823746, lon.=26.217972, Alt.=140.912231m. Speed=24.732000m/h.</desc>
<speed>6.870000</speed>
</trkpt>
<trkpt lat="55.823803" lon="26.217979">
<ele>141.666138</ele>
<time>2010-07-17T12:33:14Z</time>
<desc>lat.=55.823803, lon.=26.217979, Alt.=141.666138m. Speed=24.624001m/h.</desc>
<speed>6.840000</speed>
</trkpt>
<trkpt lat="55.823875" lon="26.217966">
<ele>141.275513</ele>
<time>2010-07-17T12:33:15Z</time>
<desc>lat.=55.823875, lon.=26.217966, Alt.=141.275513m. Speed=24.264000m/h.</desc>
<speed>6.740000</speed>
</trkpt>
<trkpt lat="55.823944" lon="26.217934">
<ele>140.845825</ele>
<time>2010-07-17T12:33:16Z</time>
<desc>lat.=55.823944, lon.=26.217934, Alt.=140.845825m. Speed=24.912001m/h.</desc>
<speed>6.920000</speed>
</trkpt>
<trkpt lat="55.824009" lon="26.217899">
<ele>140.728638</ele>
<time>2010-07-17T12:33:17Z</time>
<desc>lat.=55.824009, lon.=26.217899, Alt.=140.728638m. Speed=23.688000m/h.</desc>
<speed>6.580000</speed>
</trkpt>
<trkpt lat="55.824066" lon="26.217854">
<ele>140.189575</ele>
<time>2010-07-17T12:33:18Z</time>
<desc>lat.=55.824066, lon.=26.217854, Alt.=140.189575m. Speed=22.176001m/h.</desc>
<speed>6.160000</speed>
</trkpt>
<trkpt lat="55.824112" lon="26.217813">
<ele>139.994263</ele>
<time>2010-07-17T12:33:19Z</time>
<desc>lat.=55.824112, lon.=26.217813, Alt.=139.994263m. Speed=20.375999m/h.</desc>
<speed>5.660000</speed>
</trkpt>
<trkpt lat="55.824162" lon="26.217775">
<ele>140.810669</ele>
<time>2010-07-17T12:33:20Z</time>
<desc>lat.=55.824162, lon.=26.217775, Alt.=140.810669m. Speed=19.548000m/h.</desc>
<speed>5.430000</speed>
</trkpt>
<trkpt lat="55.824207" lon="26.217745">
<ele>141.295044</ele>
<time>2010-07-17T12:33:21Z</time>
<desc>lat.=55.824207, lon.=26.217745, Alt.=141.295044m. Speed=18.827999m/h.</desc>
<speed>5.230000</speed>
</trkpt>
<trkpt lat="55.824249" lon="26.217701">
<ele>141.572388</ele>
<time>2010-07-17T12:33:22Z</time>
<desc>lat.=55.824249, lon.=26.217701, Alt.=141.572388m. Speed=18.108000m/h.</desc>
<speed>5.030000</speed>
</trkpt>
<trkpt lat="55.824287" lon="26.217657">
<ele>141.576294</ele>
<time>2010-07-17T12:33:23Z</time>
<desc>lat.=55.824287, lon.=26.217657, Alt.=141.576294m. Speed=16.812000m/h.</desc>
<speed>4.670000</speed>
</trkpt>
<trkpt lat="55.824318" lon="26.217611">
<ele>140.923950</ele>
<time>2010-07-17T12:33:24Z</time>
<desc>lat.=55.824318, lon.=26.217611, Alt.=140.923950m. Speed=15.480000m/h.</desc>
<speed>4.300000</speed>
</trkpt>
<trkpt lat="55.824356" lon="26.217567">
<ele>140.529419</ele>
<time>2010-07-17T12:33:25Z</time>
<desc>lat.=55.824356, lon.=26.217567, Alt.=140.529419m. Speed=15.552000m/h.</desc>
<speed>4.320000</speed>
</trkpt>
<trkpt lat="55.824390" lon="26.217535">
<ele>140.416138</ele>
<time>2010-07-17T12:33:26Z</time>
<desc>lat.=55.824390, lon.=26.217535, Alt.=140.416138m. Speed=15.696000m/h.</desc>
<speed>4.360000</speed>
</trkpt>
<trkpt lat="55.824425" lon="26.217505">
<ele>140.498169</ele>
<time>2010-07-17T12:33:27Z</time>
<desc>lat.=55.824425, lon.=26.217505, Alt.=140.498169m. Speed=16.020000m/h.</desc>
<speed>4.450000</speed>
</trkpt>
<trkpt lat="55.824459" lon="26.217476">
<ele>140.670044</ele>
<time>2010-07-17T12:33:28Z</time>
<desc>lat.=55.824459, lon.=26.217476, Alt.=140.670044m. Speed=15.084000m/h.</desc>
<speed>4.190000</speed>
</trkpt>
<trkpt lat="55.824497" lon="26.217438">
<ele>140.923950</ele>
<time>2010-07-17T12:33:29Z</time>
<desc>lat.=55.824497, lon.=26.217438, Alt.=140.923950m. Speed=16.236000m/h.</desc>
<speed>4.510000</speed>
</trkpt>
<trkpt lat="55.824532" lon="26.217407">
<ele>141.037231</ele>
<time>2010-07-17T12:33:30Z</time>
<desc>lat.=55.824532, lon.=26.217407, Alt.=141.037231m. Speed=14.796000m/h.</desc>
<speed>4.110000</speed>
</trkpt>
<trkpt lat="55.824570" lon="26.217379">
<ele>141.447388</ele>
<time>2010-07-17T12:33:31Z</time>
<desc>lat.=55.824570, lon.=26.217379, Alt.=141.447388m. Speed=14.976000m/h.</desc>
<speed>4.160000</speed>
</trkpt>
<trkpt lat="55.824604" lon="26.217344">
<ele>141.642700</ele>
<time>2010-07-17T12:33:32Z</time>
<desc>lat.=55.824604, lon.=26.217344, Alt.=141.642700m. Speed=15.840000m/h.</desc>
<speed>4.400000</speed>
</trkpt>
<trkpt lat="55.824646" lon="26.217316">
<ele>142.033325</ele>
<time>2010-07-17T12:33:33Z</time>
<desc>lat.=55.824646, lon.=26.217316, Alt.=142.033325m. Speed=17.243999m/h.</desc>
<speed>4.790000</speed>
</trkpt>
<trkpt lat="55.824684" lon="26.217281">
<ele>142.298950</ele>
<time>2010-07-17T12:33:34Z</time>
<desc>lat.=55.824684, lon.=26.217281, Alt.=142.298950m. Speed=15.444000m/h.</desc>
<speed>4.290000</speed>
</trkpt>
<trkpt lat="55.824718" lon="26.217239">
<ele>142.810669</ele>
<time>2010-07-17T12:33:35Z</time>
<desc>lat.=55.824718, lon.=26.217239, Alt.=142.810669m. Speed=16.667999m/h.</desc>
<speed>4.630000</speed>
</trkpt>
<trkpt lat="55.824760" lon="26.217196">
<ele>143.142700</ele>
<time>2010-07-17T12:33:36Z</time>
<desc>lat.=55.824760, lon.=26.217196, Alt.=143.142700m. Speed=18.000000m/h.</desc>
<speed>5.000000</speed>
</trkpt>
<trkpt lat="55.824799" lon="26.217155">
<ele>143.416138</ele>
<time>2010-07-17T12:33:37Z</time>
<desc>lat.=55.824799, lon.=26.217155, Alt.=143.416138m. Speed=16.667999m/h.</desc>
<speed>4.630000</speed>
</trkpt>
<trkpt lat="55.824833" lon="26.217115">
<ele>143.502075</ele>
<time>2010-07-17T12:33:38Z</time>
<desc>lat.=55.824833, lon.=26.217115, Alt.=143.502075m. Speed=15.696000m/h.</desc>
<speed>4.360000</speed>
</trkpt>
<trkpt lat="55.824867" lon="26.217079">
<ele>143.459106</ele>
<time>2010-07-17T12:33:39Z</time>
<desc>lat.=55.824867, lon.=26.217079, Alt.=143.459106m. Speed=15.480000m/h.</desc>
<speed>4.300000</speed>
</trkpt>
<trkpt lat="55.824902" lon="26.217037">
<ele>143.509888</ele>
<time>2010-07-17T12:33:40Z</time>
<desc>lat.=55.824902, lon.=26.217037, Alt.=143.509888m. Speed=15.372000m/h.</desc>
<speed>4.270000</speed>
</trkpt>
<trkpt lat="55.824936" lon="26.217003">
<ele>143.529419</ele>
<time>2010-07-17T12:33:41Z</time>
<desc>lat.=55.824936, lon.=26.217003, Alt.=143.529419m. Speed=13.284000m/h.</desc>
<speed>3.690000</speed>
</trkpt>
<trkpt lat="55.824966" lon="26.216976">
<ele>143.541138</ele>
<time>2010-07-17T12:33:42Z</time>
<desc>lat.=55.824966, lon.=26.216976, Alt.=143.541138m. Speed=13.788000m/h.</desc>
<speed>3.830000</speed>
</trkpt>
<trkpt lat="55.825001" lon="26.216948">
<ele>143.728638</ele>
<time>2010-07-17T12:33:43Z</time>
<desc>lat.=55.825001, lon.=26.216948, Alt.=143.728638m. Speed=14.040000m/h.</desc>
<speed>3.900000</speed>
</trkpt>
<trkpt lat="55.825035" lon="26.216921">
<ele>143.896606</ele>
<time>2010-07-17T12:33:44Z</time>
<desc>lat.=55.825035, lon.=26.216921, Alt.=143.896606m. Speed=14.076000m/h.</desc>
<speed>3.910000</speed>
</trkpt>
<trkpt lat="55.825066" lon="26.216892">
<ele>143.927856</ele>
<time>2010-07-17T12:33:45Z</time>
<desc>lat.=55.825066, lon.=26.216892, Alt.=143.927856m. Speed=12.204000m/h.</desc>
<speed>3.390000</speed>
</trkpt>
<trkpt lat="55.825089" lon="26.216866">
<ele>144.048950</ele>
<time>2010-07-17T12:33:46Z</time>
<desc>lat.=55.825089, lon.=26.216866, Alt.=144.048950m. Speed=9.324000m/h.</desc>
<speed>2.590000</speed>
</trkpt>
<trkpt lat="55.825108" lon="26.216843">
<ele>143.990356</ele>
<time>2010-07-17T12:33:47Z</time>
<desc>lat.=55.825108, lon.=26.216843, Alt.=143.990356m. Speed=8.388000m/h.</desc>
<speed>2.330000</speed>
</trkpt>
<trkpt lat="55.825127" lon="26.216829">
<ele>144.150513</ele>
<time>2010-07-17T12:33:48Z</time>
<desc>lat.=55.825127, lon.=26.216829, Alt.=144.150513m. Speed=7.884000m/h.</desc>
<speed>2.190000</speed>
</trkpt>
<trkpt lat="55.825146" lon="26.216814">
<ele>144.197388</ele>
<time>2010-07-17T12:33:49Z</time>
<desc>lat.=55.825146, lon.=26.216814, Alt.=144.197388m. Speed=8.244000m/h.</desc>
<speed>2.290000</speed>
</trkpt>
<trkpt lat="55.825161" lon="26.216805">
<ele>144.380981</ele>
<time>2010-07-17T12:33:50Z</time>
<desc>lat.=55.825161, lon.=26.216805, Alt.=144.380981m. Speed=6.444000m/h.</desc>
<speed>1.790000</speed>
</trkpt>
<trkpt lat="55.825180" lon="26.216799">
<ele>144.654419</ele>
<time>2010-07-17T12:33:51Z</time>
<desc>lat.=55.825180, lon.=26.216799, Alt.=144.654419m. Speed=6.732000m/h.</desc>
<speed>1.870000</speed>
</trkpt>
<trkpt lat="55.825195" lon="26.216797">
<ele>144.650513</ele>
<time>2010-07-17T12:33:52Z</time>
<desc>lat.=55.825195, lon.=26.216797, Alt.=144.650513m. Speed=6.552000m/h.</desc>
<speed>1.820000</speed>
</trkpt>
<trkpt lat="55.825211" lon="26.216795">
<ele>144.923950</ele>
<time>2010-07-17T12:33:53Z</time>
<desc>lat.=55.825211, lon.=26.216795, Alt.=144.923950m. Speed=6.912000m/h.</desc>
<speed>1.920000</speed>
</trkpt>
<trkpt lat="55.825233" lon="26.216787">
<ele>145.420044</ele>
<time>2010-07-17T12:33:54Z</time>
<desc>lat.=55.825233, lon.=26.216787, Alt.=145.420044m. Speed=8.892000m/h.</desc>
<speed>2.470000</speed>
</trkpt>
<trkpt lat="55.825256" lon="26.216784">
<ele>145.216919</ele>
<time>2010-07-17T12:33:55Z</time>
<desc>lat.=55.825256, lon.=26.216784, Alt.=145.216919m. Speed=9.072000m/h.</desc>
<speed>2.520000</speed>
</trkpt>
<trkpt lat="55.825287" lon="26.216782">
<ele>145.595825</ele>
<time>2010-07-17T12:33:56Z</time>
<desc>lat.=55.825287, lon.=26.216782, Alt.=145.595825m. Speed=10.008000m/h.</desc>
<speed>2.780000</speed>
</trkpt>
<trkpt lat="55.825321" lon="26.216778">
<ele>145.638794</ele>
<time>2010-07-17T12:33:57Z</time>
<desc>lat.=55.825321, lon.=26.216778, Alt.=145.638794m. Speed=8.748000m/h.</desc>
<speed>2.430000</speed>
</trkpt>
<trkpt lat="55.825348" lon="26.216780">
<ele>145.591919</ele>
<time>2010-07-17T12:33:58Z</time>
<desc>lat.=55.825348, lon.=26.216780, Alt.=145.591919m. Speed=10.404000m/h.</desc>
<speed>2.890000</speed>
</trkpt>
<trkpt lat="55.825375" lon="26.216787">
<ele>145.552856</ele>
<time>2010-07-17T12:33:59Z</time>
<desc>lat.=55.825375, lon.=26.216787, Alt.=145.552856m. Speed=9.756000m/h.</desc>
<speed>2.710000</speed>
</trkpt>
<trkpt lat="55.825401" lon="26.216795">
<ele>145.474731</ele>
<time>2010-07-17T12:34:00Z</time>
<desc>lat.=55.825401, lon.=26.216795, Alt.=145.474731m. Speed=10.368000m/h.</desc>
<speed>2.880000</speed>
</trkpt>
<trkpt lat="55.825432" lon="26.216795">
<ele>145.498169</ele>
<time>2010-07-17T12:34:01Z</time>
<desc>lat.=55.825432, lon.=26.216795, Alt.=145.498169m. Speed=11.088000m/h.</desc>
<speed>3.080000</speed>
</trkpt>
<trkpt lat="55.825466" lon="26.216801">
<ele>145.720825</ele>
<time>2010-07-17T12:34:02Z</time>
<desc>lat.=55.825466, lon.=26.216801, Alt.=145.720825m. Speed=12.096000m/h.</desc>
<speed>3.360000</speed>
</trkpt>
<trkpt lat="55.825497" lon="26.216805">
<ele>145.966919</ele>
<time>2010-07-17T12:34:03Z</time>
<desc>lat.=55.825497, lon.=26.216805, Alt.=145.966919m. Speed=11.340000m/h.</desc>
<speed>3.150000</speed>
</trkpt>
<trkpt lat="55.825527" lon="26.216822">
<ele>146.170044</ele>
<time>2010-07-17T12:34:04Z</time>
<desc>lat.=55.825527, lon.=26.216822, Alt.=146.170044m. Speed=13.176000m/h.</desc>
<speed>3.660000</speed>
</trkpt>
<trkpt lat="55.825562" lon="26.216845">
<ele>146.193481</ele>
<time>2010-07-17T12:34:05Z</time>
<desc>lat.=55.825562, lon.=26.216845, Alt.=146.193481m. Speed=16.308001m/h.</desc>
<speed>4.530000</speed>
</trkpt>
<trkpt lat="55.825600" lon="26.216875">
<ele>146.416138</ele>
<time>2010-07-17T12:34:06Z</time>
<desc>lat.=55.825600, lon.=26.216875, Alt.=146.416138m. Speed=16.848000m/h.</desc>
<speed>4.680000</speed>
</trkpt>
<trkpt lat="55.825634" lon="26.216917">
<ele>146.439575</ele>
<time>2010-07-17T12:34:07Z</time>
<desc>lat.=55.825634, lon.=26.216917, Alt.=146.439575m. Speed=16.164000m/h.</desc>
<speed>4.490000</speed>
</trkpt>
<trkpt lat="55.825665" lon="26.216970">
<ele>146.505981</ele>
<time>2010-07-17T12:34:08Z</time>
<desc>lat.=55.825665, lon.=26.216970, Alt.=146.505981m. Speed=15.732000m/h.</desc>
<speed>4.370000</speed>
</trkpt>
<trkpt lat="55.825680" lon="26.217033">
<ele>146.533325</ele>
<time>2010-07-17T12:34:09Z</time>
<desc>lat.=55.825680, lon.=26.217033, Alt.=146.533325m. Speed=17.028000m/h.</desc>
<speed>4.730000</speed>
</trkpt>
<trkpt lat="55.825699" lon="26.217110">
<ele>146.580200</ele>
<time>2010-07-17T12:34:10Z</time>
<desc>lat.=55.825699, lon.=26.217110, Alt.=146.580200m. Speed=17.712000m/h.</desc>
<speed>4.920000</speed>
</trkpt>
<trkpt lat="55.825718" lon="26.217180">
<ele>146.572388</ele>
<time>2010-07-17T12:34:11Z</time>
<desc>lat.=55.825718, lon.=26.217180, Alt.=146.572388m. Speed=18.468000m/h.</desc>
<speed>5.130000</speed>
</trkpt>
<trkpt lat="55.825741" lon="26.217253">
<ele>146.650513</ele>
<time>2010-07-17T12:34:12Z</time>
<desc>lat.=55.825741, lon.=26.217253, Alt.=146.650513m. Speed=17.604000m/h.</desc>
<speed>4.890000</speed>
</trkpt>
<trkpt lat="55.825760" lon="26.217321">
<ele>146.650513</ele>
<time>2010-07-17T12:34:13Z</time>
<desc>lat.=55.825760, lon.=26.217321, Alt.=146.650513m. Speed=17.063999m/h.</desc>
<speed>4.740000</speed>
</trkpt>
<trkpt lat="55.825783" lon="26.217400">
<ele>146.693481</ele>
<time>2010-07-17T12:34:14Z</time>
<desc>lat.=55.825783, lon.=26.217400, Alt.=146.693481m. Speed=18.180000m/h.</desc>
<speed>5.050000</speed>
</trkpt>
<trkpt lat="55.825806" lon="26.217466">
<ele>146.740356</ele>
<time>2010-07-17T12:34:15Z</time>
<desc>lat.=55.825806, lon.=26.217466, Alt.=146.740356m. Speed=17.424000m/h.</desc>
<speed>4.840000</speed>
</trkpt>
<trkpt lat="55.825821" lon="26.217537">
<ele>147.197388</ele>
<time>2010-07-17T12:34:16Z</time>
<desc>lat.=55.825821, lon.=26.217537, Alt.=147.197388m. Speed=17.388000m/h.</desc>
<speed>4.830000</speed>
</trkpt>
<trkpt lat="55.825840" lon="26.217604">
<ele>147.470825</ele>
<time>2010-07-17T12:34:17Z</time>
<desc>lat.=55.825840, lon.=26.217604, Alt.=147.470825m. Speed=17.496000m/h.</desc>
<speed>4.860000</speed>
</trkpt>
<trkpt lat="55.825855" lon="26.217667">
<ele>147.447388</ele>
<time>2010-07-17T12:34:18Z</time>
<desc>lat.=55.825855, lon.=26.217667, Alt.=147.447388m. Speed=16.812000m/h.</desc>
<speed>4.670000</speed>
</trkpt>
<trkpt lat="55.825878" lon="26.217735">
<ele>147.552856</ele>
<time>2010-07-17T12:34:19Z</time>
<desc>lat.=55.825878, lon.=26.217735, Alt.=147.552856m. Speed=17.388000m/h.</desc>
<speed>4.830000</speed>
</trkpt>
<trkpt lat="55.825901" lon="26.217812">
<ele>147.642700</ele>
<time>2010-07-17T12:34:20Z</time>
<desc>lat.=55.825901, lon.=26.217812, Alt.=147.642700m. Speed=19.764000m/h.</desc>
<speed>5.490000</speed>
</trkpt>
<trkpt lat="55.825932" lon="26.217905">
<ele>147.638794</ele>
<time>2010-07-17T12:34:21Z</time>
<desc>lat.=55.825932, lon.=26.217905, Alt.=147.638794m. Speed=21.384001m/h.</desc>
<speed>5.940000</speed>
</trkpt>
<trkpt lat="55.825962" lon="26.218012">
<ele>147.588013</ele>
<time>2010-07-17T12:34:22Z</time>
<desc>lat.=55.825962, lon.=26.218012, Alt.=147.588013m. Speed=21.780001m/h.</desc>
<speed>6.050000</speed>
</trkpt>
<trkpt lat="55.825985" lon="26.218105">
<ele>147.548950</ele>
<time>2010-07-17T12:34:23Z</time>
<desc>lat.=55.825985, lon.=26.218105, Alt.=147.548950m. Speed=23.112000m/h.</desc>
<speed>6.420000</speed>
</trkpt>
<trkpt lat="55.826008" lon="26.218187">
<ele>147.662231</ele>
<time>2010-07-17T12:34:24Z</time>
<desc>lat.=55.826008, lon.=26.218187, Alt.=147.662231m. Speed=20.664000m/h.</desc>
<speed>5.740000</speed>
</trkpt>
<trkpt lat="55.826038" lon="26.218285">
<ele>147.564575</ele>
<time>2010-07-17T12:34:25Z</time>
<desc>lat.=55.826038, lon.=26.218285, Alt.=147.564575m. Speed=20.052000m/h.</desc>
<speed>5.570000</speed>
</trkpt>
<trkpt lat="55.826065" lon="26.218349">
<ele>147.408325</ele>
<time>2010-07-17T12:34:26Z</time>
<desc>lat.=55.826065, lon.=26.218349, Alt.=147.408325m. Speed=18.252001m/h.</desc>
<speed>5.070000</speed>
</trkpt>
<trkpt lat="55.826096" lon="26.218414">
<ele>147.209106</ele>
<time>2010-07-17T12:34:27Z</time>
<desc>lat.=55.826096, lon.=26.218414, Alt.=147.209106m. Speed=17.351999m/h.</desc>
<speed>4.820000</speed>
</trkpt>
<trkpt lat="55.826126" lon="26.218468">
<ele>147.193481</ele>
<time>2010-07-17T12:34:28Z</time>
<desc>lat.=55.826126, lon.=26.218468, Alt.=147.193481m. Speed=17.388000m/h.</desc>
<speed>4.830000</speed>
</trkpt>
<trkpt lat="55.826149" lon="26.218508">
<ele>147.470825</ele>
<time>2010-07-17T12:34:29Z</time>
<desc>lat.=55.826149, lon.=26.218508, Alt.=147.470825m. Speed=14.508000m/h.</desc>
<speed>4.030000</speed>
</trkpt>
<trkpt lat="55.826180" lon="26.218525">
<ele>147.736450</ele>
<time>2010-07-17T12:34:30Z</time>
<desc>lat.=55.826180, lon.=26.218525, Alt.=147.736450m. Speed=12.276000m/h.</desc>
<speed>3.410000</speed>
</trkpt>
<trkpt lat="55.826199" lon="26.218548">
<ele>148.099731</ele>
<time>2010-07-17T12:34:31Z</time>
<desc>lat.=55.826199, lon.=26.218548, Alt.=148.099731m. Speed=9.468000m/h.</desc>
<speed>2.630000</speed>
</trkpt>
<trkpt lat="55.826210" lon="26.218573">
<ele>148.400513</ele>
<time>2010-07-17T12:34:32Z</time>
<desc>lat.=55.826210, lon.=26.218573, Alt.=148.400513m. Speed=8.676000m/h.</desc>
<speed>2.410000</speed>
</trkpt>
<trkpt lat="55.826221" lon="26.218605">
<ele>148.634888</ele>
<time>2010-07-17T12:34:33Z</time>
<desc>lat.=55.826221, lon.=26.218605, Alt.=148.634888m. Speed=10.080000m/h.</desc>
<speed>2.800000</speed>
</trkpt>
<trkpt lat="55.826248" lon="26.218655">
<ele>148.779419</ele>
<time>2010-07-17T12:34:34Z</time>
<desc>lat.=55.826248, lon.=26.218655, Alt.=148.779419m. Speed=10.440000m/h.</desc>
<speed>2.900000</speed>
</trkpt>
<trkpt lat="55.826271" lon="26.218710">
<ele>149.080200</ele>
<time>2010-07-17T12:34:35Z</time>
<desc>lat.=55.826271, lon.=26.218710, Alt.=149.080200m. Speed=10.728000m/h.</desc>
<speed>2.980000</speed>
</trkpt>
<trkpt lat="55.826294" lon="26.218744">
<ele>149.302856</ele>
<time>2010-07-17T12:34:36Z</time>
<desc>lat.=55.826294, lon.=26.218744, Alt.=149.302856m. Speed=10.764000m/h.</desc>
<speed>2.990000</speed>
</trkpt>
<trkpt lat="55.826321" lon="26.218782">
<ele>149.298950</ele>
<time>2010-07-17T12:34:37Z</time>
<desc>lat.=55.826321, lon.=26.218782, Alt.=149.298950m. Speed=11.628000m/h.</desc>
<speed>3.230000</speed>
</trkpt>
<trkpt lat="55.826347" lon="26.218824">
<ele>149.033325</ele>
<time>2010-07-17T12:34:38Z</time>
<desc>lat.=55.826347, lon.=26.218824, Alt.=149.033325m. Speed=13.428000m/h.</desc>
<speed>3.730000</speed>
</trkpt>
<trkpt lat="55.826374" lon="26.218868">
<ele>149.088013</ele>
<time>2010-07-17T12:34:39Z</time>
<desc>lat.=55.826374, lon.=26.218868, Alt.=149.088013m. Speed=14.364000m/h.</desc>
<speed>3.990000</speed>
</trkpt>
<trkpt lat="55.826408" lon="26.218920">
<ele>149.064575</ele>
<time>2010-07-17T12:34:40Z</time>
<desc>lat.=55.826408, lon.=26.218920, Alt.=149.064575m. Speed=17.388000m/h.</desc>
<speed>4.830000</speed>
</trkpt>
<trkpt lat="55.826447" lon="26.218981">
<ele>148.814575</ele>
<time>2010-07-17T12:34:41Z</time>
<desc>lat.=55.826447, lon.=26.218981, Alt.=148.814575m. Speed=18.827999m/h.</desc>
<speed>5.230000</speed>
</trkpt>
<trkpt lat="55.826492" lon="26.219038">
<ele>148.869263</ele>
<time>2010-07-17T12:34:42Z</time>
<desc>lat.=55.826492, lon.=26.219038, Alt.=148.869263m. Speed=21.924000m/h.</desc>
<speed>6.090000</speed>
</trkpt>
<trkpt lat="55.826550" lon="26.219101">
<ele>148.505981</ele>
<time>2010-07-17T12:34:43Z</time>
<desc>lat.=55.826550, lon.=26.219101, Alt.=148.505981m. Speed=24.480000m/h.</desc>
<speed>6.800000</speed>
</trkpt>
<trkpt lat="55.826603" lon="26.219160">
<ele>148.345825</ele>
<time>2010-07-17T12:34:44Z</time>
<desc>lat.=55.826603, lon.=26.219160, Alt.=148.345825m. Speed=24.948000m/h.</desc>
<speed>6.930000</speed>
</trkpt>
<trkpt lat="55.826656" lon="26.219227">
<ele>148.408325</ele>
<time>2010-07-17T12:34:45Z</time>
<desc>lat.=55.826656, lon.=26.219227, Alt.=148.408325m. Speed=26.604000m/h.</desc>
<speed>7.390000</speed>
</trkpt>
<trkpt lat="55.826710" lon="26.219288">
<ele>148.291138</ele>
<time>2010-07-17T12:34:46Z</time>
<desc>lat.=55.826710, lon.=26.219288, Alt.=148.291138m. Speed=26.100000m/h.</desc>
<speed>7.250000</speed>
</trkpt>
<trkpt lat="55.826767" lon="26.219337">
<ele>148.013794</ele>
<time>2010-07-17T12:34:47Z</time>
<desc>lat.=55.826767, lon.=26.219337, Alt.=148.013794m. Speed=24.840000m/h.</desc>
<speed>6.900000</speed>
</trkpt>
<trkpt lat="55.826828" lon="26.219385">
<ele>147.767700</ele>
<time>2010-07-17T12:34:48Z</time>
<desc>lat.=55.826828, lon.=26.219385, Alt.=147.767700m. Speed=23.976000m/h.</desc>
<speed>6.660000</speed>
</trkpt>
<trkpt lat="55.826885" lon="26.219425">
<ele>147.439575</ele>
<time>2010-07-17T12:34:49Z</time>
<desc>lat.=55.826885, lon.=26.219425, Alt.=147.439575m. Speed=24.840000m/h.</desc>
<speed>6.900000</speed>
</trkpt>
<trkpt lat="55.826939" lon="26.219442">
<ele>147.345825</ele>
<time>2010-07-17T12:34:50Z</time>
<desc>lat.=55.826939, lon.=26.219442, Alt.=147.345825m. Speed=21.636000m/h.</desc>
<speed>6.010000</speed>
</trkpt>
<trkpt lat="55.826984" lon="26.219454">
<ele>147.556763</ele>
<time>2010-07-17T12:34:51Z</time>
<desc>lat.=55.826984, lon.=26.219454, Alt.=147.556763m. Speed=17.747999m/h.</desc>
<speed>4.930000</speed>
</trkpt>
<trkpt lat="55.827023" lon="26.219479">
<ele>147.685669</ele>
<time>2010-07-17T12:34:52Z</time>
<desc>lat.=55.827023, lon.=26.219479, Alt.=147.685669m. Speed=15.804000m/h.</desc>
<speed>4.390000</speed>
</trkpt>
<trkpt lat="55.827065" lon="26.219482">
<ele>147.603638</ele>
<time>2010-07-17T12:34:53Z</time>
<desc>lat.=55.827065, lon.=26.219482, Alt.=147.603638m. Speed=16.164000m/h.</desc>
<speed>4.490000</speed>
</trkpt>
<trkpt lat="55.827106" lon="26.219496">
<ele>147.505981</ele>
<time>2010-07-17T12:34:54Z</time>
<desc>lat.=55.827106, lon.=26.219496, Alt.=147.505981m. Speed=14.472000m/h.</desc>
<speed>4.020000</speed>
</trkpt>
<trkpt lat="55.827141" lon="26.219494">
<ele>147.416138</ele>
<time>2010-07-17T12:34:55Z</time>
<desc>lat.=55.827141, lon.=26.219494, Alt.=147.416138m. Speed=13.320000m/h.</desc>
<speed>3.700000</speed>
</trkpt>
<trkpt lat="55.827175" lon="26.219492">
<ele>148.025513</ele>
<time>2010-07-17T12:34:56Z</time>
<desc>lat.=55.827175, lon.=26.219492, Alt.=148.025513m. Speed=11.772000m/h.</desc>
<speed>3.270000</speed>
</trkpt>
<trkpt lat="55.827206" lon="26.219486">
<ele>148.486450</ele>
<time>2010-07-17T12:34:57Z</time>
<desc>lat.=55.827206, lon.=26.219486, Alt.=148.486450m. Speed=10.332000m/h.</desc>
<speed>2.870000</speed>
</trkpt>
<trkpt lat="55.827232" lon="26.219484">
<ele>148.908325</ele>
<time>2010-07-17T12:34:58Z</time>
<desc>lat.=55.827232, lon.=26.219484, Alt.=148.908325m. Speed=9.576000m/h.</desc>
<speed>2.660000</speed>
</trkpt>
<trkpt lat="55.827259" lon="26.219475">
<ele>148.841919</ele>
<time>2010-07-17T12:34:59Z</time>
<desc>lat.=55.827259, lon.=26.219475, Alt.=148.841919m. Speed=10.512000m/h.</desc>
<speed>2.920000</speed>
</trkpt>
<trkpt lat="55.827301" lon="26.219448">
<ele>148.291138</ele>
<time>2010-07-17T12:35:00Z</time>
<desc>lat.=55.827301, lon.=26.219448, Alt.=148.291138m. Speed=11.772000m/h.</desc>
<speed>3.270000</speed>
</trkpt>
<trkpt lat="55.827343" lon="26.219412">
<ele>147.564575</ele>
<time>2010-07-17T12:35:01Z</time>
<desc>lat.=55.827343, lon.=26.219412, Alt.=147.564575m. Speed=11.700000m/h.</desc>
<speed>3.250000</speed>
</trkpt>
<trkpt lat="55.827381" lon="26.219381">
<ele>147.068481</ele>
<time>2010-07-17T12:35:02Z</time>
<desc>lat.=55.827381, lon.=26.219381, Alt.=147.068481m. Speed=13.068000m/h.</desc>
<speed>3.630000</speed>
</trkpt>
<trkpt lat="55.827412" lon="26.219355">
<ele>147.482544</ele>
<time>2010-07-17T12:35:03Z</time>
<desc>lat.=55.827412, lon.=26.219355, Alt.=147.482544m. Speed=13.104000m/h.</desc>
<speed>3.640000</speed>
</trkpt>
<trkpt lat="55.827438" lon="26.219326">
<ele>147.443481</ele>
<time>2010-07-17T12:35:04Z</time>
<desc>lat.=55.827438, lon.=26.219326, Alt.=147.443481m. Speed=12.204000m/h.</desc>
<speed>3.390000</speed>
</trkpt>
<trkpt lat="55.827465" lon="26.219297">
<ele>148.088013</ele>
<time>2010-07-17T12:35:05Z</time>
<desc>lat.=55.827465, lon.=26.219297, Alt.=148.088013m. Speed=10.260000m/h.</desc>
<speed>2.850000</speed>
</trkpt>
<trkpt lat="55.827496" lon="26.219265">
<ele>147.740356</ele>
<time>2010-07-17T12:35:06Z</time>
<desc>lat.=55.827496, lon.=26.219265, Alt.=147.740356m. Speed=14.292000m/h.</desc>
<speed>3.970000</speed>
</trkpt>
<trkpt lat="55.827530" lon="26.219231">
<ele>147.435669</ele>
<time>2010-07-17T12:35:07Z</time>
<desc>lat.=55.827530, lon.=26.219231, Alt.=147.435669m. Speed=14.580000m/h.</desc>
<speed>4.050000</speed>
</trkpt>
<trkpt lat="55.827560" lon="26.219194">
<ele>146.966919</ele>
<time>2010-07-17T12:35:08Z</time>
<desc>lat.=55.827560, lon.=26.219194, Alt.=146.966919m. Speed=14.040000m/h.</desc>
<speed>3.900000</speed>
</trkpt>
<trkpt lat="55.827595" lon="26.219160">
<ele>146.818481</ele>
<time>2010-07-17T12:35:09Z</time>
<desc>lat.=55.827595, lon.=26.219160, Alt.=146.818481m. Speed=13.212000m/h.</desc>
<speed>3.670000</speed>
</trkpt>
<trkpt lat="55.827629" lon="26.219128">
<ele>146.818481</ele>
<time>2010-07-17T12:35:10Z</time>
<desc>lat.=55.827629, lon.=26.219128, Alt.=146.818481m. Speed=12.744000m/h.</desc>
<speed>3.540000</speed>
</trkpt>
<trkpt lat="55.827660" lon="26.219103">
<ele>146.927856</ele>
<time>2010-07-17T12:35:11Z</time>
<desc>lat.=55.827660, lon.=26.219103, Alt.=146.927856m. Speed=12.240000m/h.</desc>
<speed>3.400000</speed>
</trkpt>
<trkpt lat="55.827694" lon="26.219082">
<ele>146.920044</ele>
<time>2010-07-17T12:35:12Z</time>
<desc>lat.=55.827694, lon.=26.219082, Alt.=146.920044m. Speed=12.492000m/h.</desc>
<speed>3.470000</speed>
</trkpt>
<trkpt lat="55.827724" lon="26.219061">
<ele>147.283325</ele>
<time>2010-07-17T12:35:13Z</time>
<desc>lat.=55.827724, lon.=26.219061, Alt.=147.283325m. Speed=13.320000m/h.</desc>
<speed>3.700000</speed>
</trkpt>
<trkpt lat="55.827759" lon="26.219030">
<ele>147.427856</ele>
<time>2010-07-17T12:35:14Z</time>
<desc>lat.=55.827759, lon.=26.219030, Alt.=147.427856m. Speed=12.996000m/h.</desc>
<speed>3.610000</speed>
</trkpt>
<trkpt lat="55.827793" lon="26.219006">
<ele>147.302856</ele>
<time>2010-07-17T12:35:15Z</time>
<desc>lat.=55.827793, lon.=26.219006, Alt.=147.302856m. Speed=14.004000m/h.</desc>
<speed>3.890000</speed>
</trkpt>
<trkpt lat="55.827827" lon="26.218973">
<ele>147.365356</ele>
<time>2010-07-17T12:35:16Z</time>
<desc>lat.=55.827827, lon.=26.218973, Alt.=147.365356m. Speed=13.248000m/h.</desc>
<speed>3.680000</speed>
</trkpt>
<trkpt lat="55.827862" lon="26.218954">
<ele>147.470825</ele>
<time>2010-07-17T12:35:17Z</time>
<desc>lat.=55.827862, lon.=26.218954, Alt.=147.470825m. Speed=12.852000m/h.</desc>
<speed>3.570000</speed>
</trkpt>
<trkpt lat="55.827892" lon="26.218933">
<ele>147.423950</ele>
<time>2010-07-17T12:35:18Z</time>
<desc>lat.=55.827892, lon.=26.218933, Alt.=147.423950m. Speed=12.528000m/h.</desc>
<speed>3.480000</speed>
</trkpt>
<trkpt lat="55.827923" lon="26.218922">
<ele>147.580200</ele>
<time>2010-07-17T12:35:19Z</time>
<desc>lat.=55.827923, lon.=26.218922, Alt.=147.580200m. Speed=11.232000m/h.</desc>
<speed>3.120000</speed>
</trkpt>
<trkpt lat="55.827950" lon="26.218904">
<ele>147.404419</ele>
<time>2010-07-17T12:35:20Z</time>
<desc>lat.=55.827950, lon.=26.218904, Alt.=147.404419m. Speed=10.620000m/h.</desc>
<speed>2.950000</speed>
</trkpt>
<trkpt lat="55.827972" lon="26.218882">
<ele>147.576294</ele>
<time>2010-07-17T12:35:21Z</time>
<desc>lat.=55.827972, lon.=26.218882, Alt.=147.576294m. Speed=8.676000m/h.</desc>
<speed>2.410000</speed>
</trkpt>
<trkpt lat="55.827995" lon="26.218859">
<ele>147.447388</ele>
<time>2010-07-17T12:35:22Z</time>
<desc>lat.=55.827995, lon.=26.218859, Alt.=147.447388m. Speed=8.676000m/h.</desc>
<speed>2.410000</speed>
</trkpt>
<trkpt lat="55.828007" lon="26.218845">
<ele>147.416138</ele>
<time>2010-07-17T12:35:23Z</time>
<desc>lat.=55.828007, lon.=26.218845, Alt.=147.416138m. Speed=2.988000m/h.</desc>
<speed>0.830000</speed>
</trkpt>
<trkpt lat="55.828018" lon="26.218842">
<ele>147.349731</ele>
<time>2010-07-17T12:35:24Z</time>
<desc>lat.=55.828018, lon.=26.218842, Alt.=147.349731m. Speed=4.788000m/h.</desc>
<speed>1.330000</speed>
</trkpt>
<trkpt lat="55.828030" lon="26.218838">
<ele>147.365356</ele>
<time>2010-07-17T12:35:25Z</time>
<desc>lat.=55.828030, lon.=26.218838, Alt.=147.365356m. Speed=4.428000m/h.</desc>
<speed>1.230000</speed>
</trkpt>
<trkpt lat="55.828045" lon="26.218826">
<ele>147.232544</ele>
<time>2010-07-17T12:35:26Z</time>
<desc>lat.=55.828045, lon.=26.218826, Alt.=147.232544m. Speed=2.664000m/h.</desc>
<speed>0.740000</speed>
</trkpt>
<trkpt lat="55.828053" lon="26.218826">
<ele>147.287231</ele>
<time>2010-07-17T12:35:27Z</time>
<desc>lat.=55.828053, lon.=26.218826, Alt.=147.287231m. Speed=2.520000m/h.</desc>
<speed>0.700000</speed>
</trkpt>
<trkpt lat="55.828064" lon="26.218815">
<ele>147.416138</ele>
<time>2010-07-17T12:35:28Z</time>
<desc>lat.=55.828064, lon.=26.218815, Alt.=147.416138m. Speed=2.592000m/h.</desc>
<speed>0.720000</speed>
</trkpt>
<trkpt lat="55.828072" lon="26.218811">
<ele>147.427856</ele>
<time>2010-07-17T12:35:29Z</time>
<desc>lat.=55.828072, lon.=26.218811, Alt.=147.427856m. Speed=2.556000m/h.</desc>
<speed>0.710000</speed>
</trkpt>
<trkpt lat="55.828075" lon="26.218805">
<ele>147.404419</ele>
<time>2010-07-17T12:35:30Z</time>
<desc>lat.=55.828075, lon.=26.218805, Alt.=147.404419m. Speed=2.124000m/h.</desc>
<speed>0.590000</speed>
</trkpt>
<trkpt lat="55.828079" lon="26.218801">
<ele>147.380981</ele>
<time>2010-07-17T12:35:31Z</time>
<desc>lat.=55.828079, lon.=26.218801, Alt.=147.380981m. Speed=1.584000m/h.</desc>
<speed>0.440000</speed>
</trkpt>
<trkpt lat="55.828083" lon="26.218800">
<ele>147.357544</ele>
<time>2010-07-17T12:35:32Z</time>
<desc>lat.=55.828083, lon.=26.218800, Alt.=147.357544m. Speed=1.332000m/h.</desc>
<speed>0.370000</speed>
</trkpt>
<trkpt lat="55.828087" lon="26.218801">
<ele>147.330200</ele>
<time>2010-07-17T12:35:33Z</time>
<desc>lat.=55.828087, lon.=26.218801, Alt.=147.330200m. Speed=1.260000m/h.</desc>
<speed>0.350000</speed>
</trkpt>
<trkpt lat="55.828091" lon="26.218803">
<ele>147.302856</ele>
<time>2010-07-17T12:35:34Z</time>
<desc>lat.=55.828091, lon.=26.218803, Alt.=147.302856m. Speed=1.116000m/h.</desc>
<speed>0.310000</speed>
</trkpt>
<trkpt lat="55.828094" lon="26.218803">
<ele>147.275513</ele>
<time>2010-07-17T12:35:35Z</time>
<desc>lat.=55.828094, lon.=26.218803, Alt.=147.275513m. Speed=1.152000m/h.</desc>
<speed>0.320000</speed>
</trkpt>
<trkpt lat="55.828098" lon="26.218803">
<ele>147.244263</ele>
<time>2010-07-17T12:35:36Z</time>
<desc>lat.=55.828098, lon.=26.218803, Alt.=147.244263m. Speed=1.188000m/h.</desc>
<speed>0.330000</speed>
</trkpt>
<trkpt lat="55.828098" lon="26.218803">
<ele>147.213013</ele>
<time>2010-07-17T12:35:37Z</time>
<desc>lat.=55.828098, lon.=26.218803, Alt.=147.213013m. Speed=0.540000m/h.</desc>
<speed>0.150000</speed>
</trkpt>
<trkpt lat="55.828102" lon="26.218805">
<ele>147.189575</ele>
<time>2010-07-17T12:35:38Z</time>
<desc>lat.=55.828102, lon.=26.218805, Alt.=147.189575m. Speed=0.504000m/h.</desc>
<speed>0.140000</speed>
</trkpt>
<trkpt lat="55.828102" lon="26.218805">
<ele>147.173950</ele>
<time>2010-07-17T12:35:39Z</time>
<desc>lat.=55.828102, lon.=26.218805, Alt.=147.173950m. Speed=0.828000m/h.</desc>
<speed>0.230000</speed>
</trkpt>
<trkpt lat="55.828106" lon="26.218807">
<ele>147.154419</ele>
<time>2010-07-17T12:35:40Z</time>
<desc>lat.=55.828106, lon.=26.218807, Alt.=147.154419m. Speed=1.692000m/h.</desc>
<speed>0.470000</speed>
</trkpt>
<trkpt lat="55.828110" lon="26.218807">
<ele>147.134888</ele>
<time>2010-07-17T12:35:41Z</time>
<desc>lat.=55.828110, lon.=26.218807, Alt.=147.134888m. Speed=2.592000m/h.</desc>
<speed>0.720000</speed>
</trkpt>
<trkpt lat="55.828114" lon="26.218809">
<ele>147.119263</ele>
<time>2010-07-17T12:35:42Z</time>
<desc>lat.=55.828114, lon.=26.218809, Alt.=147.119263m. Speed=3.312000m/h.</desc>
<speed>0.920000</speed>
</trkpt>
<trkpt lat="55.828125" lon="26.218809">
<ele>147.107544</ele>
<time>2010-07-17T12:35:43Z</time>
<desc>lat.=55.828125, lon.=26.218809, Alt.=147.107544m. Speed=5.580000m/h.</desc>
<speed>1.550000</speed>
</trkpt>
<trkpt lat="55.828152" lon="26.218811">
<ele>147.029419</ele>
<time>2010-07-17T12:35:44Z</time>
<desc>lat.=55.828152, lon.=26.218811, Alt.=147.029419m. Speed=8.064000m/h.</desc>
<speed>2.240000</speed>
</trkpt>
<trkpt lat="55.828171" lon="26.218815">
<ele>146.974731</ele>
<time>2010-07-17T12:35:45Z</time>
<desc>lat.=55.828171, lon.=26.218815, Alt.=146.974731m. Speed=6.660000m/h.</desc>
<speed>1.850000</speed>
</trkpt>
<trkpt lat="55.828182" lon="26.218821">
<ele>146.943481</ele>
<time>2010-07-17T12:35:46Z</time>
<desc>lat.=55.828182, lon.=26.218821, Alt.=146.943481m. Speed=5.328000m/h.</desc>
<speed>1.480000</speed>
</trkpt>
<trkpt lat="55.828201" lon="26.218826">
<ele>146.877075</ele>
<time>2010-07-17T12:35:47Z</time>
<desc>lat.=55.828201, lon.=26.218826, Alt.=146.877075m. Speed=5.508000m/h.</desc>
<speed>1.530000</speed>
</trkpt>
<trkpt lat="55.828217" lon="26.218840">
<ele>146.841919</ele>
<time>2010-07-17T12:35:48Z</time>
<desc>lat.=55.828217, lon.=26.218840, Alt.=146.841919m. Speed=7.560000m/h.</desc>
<speed>2.100000</speed>
</trkpt>
<trkpt lat="55.828266" lon="26.218832">
<ele>146.736450</ele>
<time>2010-07-17T12:35:49Z</time>
<desc>lat.=55.828266, lon.=26.218832, Alt.=146.736450m. Speed=12.924000m/h.</desc>
<speed>3.590000</speed>
</trkpt>
<trkpt lat="55.828320" lon="26.218821">
<ele>146.568481</ele>
<time>2010-07-17T12:35:50Z</time>
<desc>lat.=55.828320, lon.=26.218821, Alt.=146.568481m. Speed=15.588000m/h.</desc>
<speed>4.330000</speed>
</trkpt>
<trkpt lat="55.828358" lon="26.218821">
<ele>146.494263</ele>
<time>2010-07-17T12:35:51Z</time>
<desc>lat.=55.828358, lon.=26.218821, Alt.=146.494263m. Speed=15.768000m/h.</desc>
<speed>4.380000</speed>
</trkpt>
<trkpt lat="55.828400" lon="26.218817">
<ele>146.404419</ele>
<time>2010-07-17T12:35:52Z</time>
<desc>lat.=55.828400, lon.=26.218817, Alt.=146.404419m. Speed=16.236000m/h.</desc>
<speed>4.510000</speed>
</trkpt>
<trkpt lat="55.828438" lon="26.218807">
<ele>146.322388</ele>
<time>2010-07-17T12:35:53Z</time>
<desc>lat.=55.828438, lon.=26.218807, Alt.=146.322388m. Speed=15.264000m/h.</desc>
<speed>4.240000</speed>
</trkpt>
<trkpt lat="55.828476" lon="26.218794">
<ele>146.193481</ele>
<time>2010-07-17T12:35:54Z</time>
<desc>lat.=55.828476, lon.=26.218794, Alt.=146.193481m. Speed=14.112000m/h.</desc>
<speed>3.920000</speed>
</trkpt>
<trkpt lat="55.828510" lon="26.218788">
<ele>145.959106</ele>
<time>2010-07-17T12:35:55Z</time>
<desc>lat.=55.828510, lon.=26.218788, Alt.=145.959106m. Speed=12.672000m/h.</desc>
<speed>3.520000</speed>
</trkpt>
<trkpt lat="55.828541" lon="26.218784">
<ele>145.806763</ele>
<time>2010-07-17T12:35:56Z</time>
<desc>lat.=55.828541, lon.=26.218784, Alt.=145.806763m. Speed=10.872000m/h.</desc>
<speed>3.020000</speed>
</trkpt>
<trkpt lat="55.828571" lon="26.218777">
<ele>145.736450</ele>
<time>2010-07-17T12:35:57Z</time>
<desc>lat.=55.828571, lon.=26.218777, Alt.=145.736450m. Speed=11.016000m/h.</desc>
<speed>3.060000</speed>
</trkpt>
<trkpt lat="55.828587" lon="26.218767">
<ele>145.263794</ele>
<time>2010-07-17T12:35:58Z</time>
<desc>lat.=55.828587, lon.=26.218767, Alt.=145.263794m. Speed=6.840000m/h.</desc>
<speed>1.900000</speed>
</trkpt>
<trkpt lat="55.828606" lon="26.218758">
<ele>145.158325</ele>
<time>2010-07-17T12:35:59Z</time>
<desc>lat.=55.828606, lon.=26.218758, Alt.=145.158325m. Speed=6.552000m/h.</desc>
<speed>1.820000</speed>
</trkpt>
<trkpt lat="55.828625" lon="26.218750">
<ele>145.459106</ele>
<time>2010-07-17T12:36:00Z</time>
<desc>lat.=55.828625, lon.=26.218750, Alt.=145.459106m. Speed=5.652000m/h.</desc>
<speed>1.570000</speed>
</trkpt>
<trkpt lat="55.828651" lon="26.218742">
<ele>145.685669</ele>
<time>2010-07-17T12:36:01Z</time>
<desc>lat.=55.828651, lon.=26.218742, Alt.=145.685669m. Speed=6.156000m/h.</desc>
<speed>1.710000</speed>
</trkpt>
<trkpt lat="55.828671" lon="26.218723">
<ele>145.263794</ele>
<time>2010-07-17T12:36:02Z</time>
<desc>lat.=55.828671, lon.=26.218723, Alt.=145.263794m. Speed=6.516000m/h.</desc>
<speed>1.810000</speed>
</trkpt>
<trkpt lat="55.828690" lon="26.218700">
<ele>144.994263</ele>
<time>2010-07-17T12:36:03Z</time>
<desc>lat.=55.828690, lon.=26.218700, Alt.=144.994263m. Speed=6.660000m/h.</desc>
<speed>1.850000</speed>
</trkpt>
<trkpt lat="55.828743" lon="26.218643">
<ele>143.998169</ele>
<time>2010-07-17T12:36:04Z</time>
<desc>lat.=55.828743, lon.=26.218643, Alt.=143.998169m. Speed=8.172000m/h.</desc>
<speed>2.270000</speed>
</trkpt>
<trkpt lat="55.828785" lon="26.218607">
<ele>143.560669</ele>
<time>2010-07-17T12:36:05Z</time>
<desc>lat.=55.828785, lon.=26.218607, Alt.=143.560669m. Speed=9.720000m/h.</desc>
<speed>2.700000</speed>
</trkpt>
<trkpt lat="55.828812" lon="26.218594">
<ele>143.494263</ele>
<time>2010-07-17T12:36:06Z</time>
<desc>lat.=55.828812, lon.=26.218594, Alt.=143.494263m. Speed=9.900000m/h.</desc>
<speed>2.750000</speed>
</trkpt>
<trkpt lat="55.828854" lon="26.218569">
<ele>144.072388</ele>
<time>2010-07-17T12:36:07Z</time>
<desc>lat.=55.828854, lon.=26.218569, Alt.=144.072388m. Speed=10.800000m/h.</desc>
<speed>3.000000</speed>
</trkpt>
<trkpt lat="55.828880" lon="26.218552">
<ele>143.841919</ele>
<time>2010-07-17T12:36:08Z</time>
<desc>lat.=55.828880, lon.=26.218552, Alt.=143.841919m. Speed=11.340000m/h.</desc>
<speed>3.150000</speed>
</trkpt>
<trkpt lat="55.828915" lon="26.218536">
<ele>144.334106</ele>
<time>2010-07-17T12:36:09Z</time>
<desc>lat.=55.828915, lon.=26.218536, Alt.=144.334106m. Speed=10.512000m/h.</desc>
<speed>2.920000</speed>
</trkpt>
<trkpt lat="55.828945" lon="26.218521">
<ele>143.814575</ele>
<time>2010-07-17T12:36:10Z</time>
<desc>lat.=55.828945, lon.=26.218521, Alt.=143.814575m. Speed=8.604000m/h.</desc>
<speed>2.390000</speed>
</trkpt>
<trkpt lat="55.828976" lon="26.218506">
<ele>143.400513</ele>
<time>2010-07-17T12:36:11Z</time>
<desc>lat.=55.828976, lon.=26.218506, Alt.=143.400513m. Speed=9.540000m/h.</desc>
<speed>2.650000</speed>
</trkpt>
<trkpt lat="55.829002" lon="26.218523">
<ele>143.431763</ele>
<time>2010-07-17T12:36:12Z</time>
<desc>lat.=55.829002, lon.=26.218523, Alt.=143.431763m. Speed=7.236000m/h.</desc>
<speed>2.010000</speed>
</trkpt>
<trkpt lat="55.829025" lon="26.218544">
<ele>143.392700</ele>
<time>2010-07-17T12:36:13Z</time>
<desc>lat.=55.829025, lon.=26.218544, Alt.=143.392700m. Speed=9.468000m/h.</desc>
<speed>2.630000</speed>
</trkpt>
<trkpt lat="55.829052" lon="26.218557">
<ele>143.310669</ele>
<time>2010-07-17T12:36:14Z</time>
<desc>lat.=55.829052, lon.=26.218557, Alt.=143.310669m. Speed=9.612000m/h.</desc>
<speed>2.670000</speed>
</trkpt>
<trkpt lat="55.829075" lon="26.218571">
<ele>143.158325</ele>
<time>2010-07-17T12:36:15Z</time>
<desc>lat.=55.829075, lon.=26.218571, Alt.=143.158325m. Speed=8.316000m/h.</desc>
<speed>2.310000</speed>
</trkpt>
<trkpt lat="55.829098" lon="26.218590">
<ele>143.091919</ele>
<time>2010-07-17T12:36:16Z</time>
<desc>lat.=55.829098, lon.=26.218590, Alt.=143.091919m. Speed=8.820000m/h.</desc>
<speed>2.450000</speed>
</trkpt>
<trkpt lat="55.829124" lon="26.218599">
<ele>143.130981</ele>
<time>2010-07-17T12:36:17Z</time>
<desc>lat.=55.829124, lon.=26.218599, Alt.=143.130981m. Speed=8.100000m/h.</desc>
<speed>2.250000</speed>
</trkpt>
<trkpt lat="55.829155" lon="26.218597">
<ele>143.127075</ele>
<time>2010-07-17T12:36:18Z</time>
<desc>lat.=55.829155, lon.=26.218597, Alt.=143.127075m. Speed=8.136000m/h.</desc>
<speed>2.260000</speed>
</trkpt>
<trkpt lat="55.829205" lon="26.218580">
<ele>143.466919</ele>
<time>2010-07-17T12:36:19Z</time>
<desc>lat.=55.829205, lon.=26.218580, Alt.=143.466919m. Speed=11.556000m/h.</desc>
<speed>3.210000</speed>
</trkpt>
<trkpt lat="55.829247" lon="26.218563">
<ele>144.498169</ele>
<time>2010-07-17T12:36:20Z</time>
<desc>lat.=55.829247, lon.=26.218563, Alt.=144.498169m. Speed=9.828000m/h.</desc>
<speed>2.730000</speed>
</trkpt>
<trkpt lat="55.829288" lon="26.218555">
<ele>145.181763</ele>
<time>2010-07-17T12:36:21Z</time>
<desc>lat.=55.829288, lon.=26.218555, Alt.=145.181763m. Speed=10.764000m/h.</desc>
<speed>2.990000</speed>
</trkpt>
<trkpt lat="55.829330" lon="26.218542">
<ele>145.431763</ele>
<time>2010-07-17T12:36:22Z</time>
<desc>lat.=55.829330, lon.=26.218542, Alt.=145.431763m. Speed=11.340000m/h.</desc>
<speed>3.150000</speed>
</trkpt>
<trkpt lat="55.829361" lon="26.218544">
<ele>145.560669</ele>
<time>2010-07-17T12:36:23Z</time>
<desc>lat.=55.829361, lon.=26.218544, Alt.=145.560669m. Speed=10.440000m/h.</desc>
<speed>2.900000</speed>
</trkpt>
<trkpt lat="55.829376" lon="26.218540">
<ele>145.295044</ele>
<time>2010-07-17T12:36:24Z</time>
<desc>lat.=55.829376, lon.=26.218540, Alt.=145.295044m. Speed=6.768000m/h.</desc>
<speed>1.880000</speed>
</trkpt>
<trkpt lat="55.829395" lon="26.218534">
<ele>144.759888</ele>
<time>2010-07-17T12:36:25Z</time>
<desc>lat.=55.829395, lon.=26.218534, Alt.=144.759888m. Speed=7.488000m/h.</desc>
<speed>2.080000</speed>
</trkpt>
<trkpt lat="55.829403" lon="26.218557">
<ele>145.431763</ele>
<time>2010-07-17T12:36:26Z</time>
<desc>lat.=55.829403, lon.=26.218557, Alt.=145.431763m. Speed=8.496000m/h.</desc>
<speed>2.360000</speed>
</trkpt>
<trkpt lat="55.829422" lon="26.218555">
<ele>145.259888</ele>
<time>2010-07-17T12:36:27Z</time>
<desc>lat.=55.829422, lon.=26.218555, Alt.=145.259888m. Speed=7.164000m/h.</desc>
<speed>1.990000</speed>
</trkpt>
<trkpt lat="55.829445" lon="26.218548">
<ele>145.529419</ele>
<time>2010-07-17T12:36:28Z</time>
<desc>lat.=55.829445, lon.=26.218548, Alt.=145.529419m. Speed=7.956000m/h.</desc>
<speed>2.210000</speed>
</trkpt>
<trkpt lat="55.829479" lon="26.218540">
<ele>146.197388</ele>
<time>2010-07-17T12:36:29Z</time>
<desc>lat.=55.829479, lon.=26.218540, Alt.=146.197388m. Speed=11.340000m/h.</desc>
<speed>3.150000</speed>
</trkpt>
<trkpt lat="55.829510" lon="26.218529">
<ele>146.670044</ele>
<time>2010-07-17T12:36:30Z</time>
<desc>lat.=55.829510, lon.=26.218529, Alt.=146.670044m. Speed=9.720000m/h.</desc>
<speed>2.700000</speed>
</trkpt>
<trkpt lat="55.829544" lon="26.218515">
<ele>147.670044</ele>
<time>2010-07-17T12:36:31Z</time>
<desc>lat.=55.829544, lon.=26.218515, Alt.=147.670044m. Speed=10.656000m/h.</desc>
<speed>2.960000</speed>
</trkpt>
<trkpt lat="55.829571" lon="26.218500">
<ele>147.529419</ele>
<time>2010-07-17T12:36:32Z</time>
<desc>lat.=55.829571, lon.=26.218500, Alt.=147.529419m. Speed=9.648000m/h.</desc>
<speed>2.680000</speed>
</trkpt>
<trkpt lat="55.829590" lon="26.218512">
<ele>147.170044</ele>
<time>2010-07-17T12:36:33Z</time>
<desc>lat.=55.829590, lon.=26.218512, Alt.=147.170044m. Speed=6.408000m/h.</desc>
<speed>1.780000</speed>
</trkpt>
<trkpt lat="55.829613" lon="26.218527">
<ele>147.041138</ele>
<time>2010-07-17T12:36:34Z</time>
<desc>lat.=55.829613, lon.=26.218527, Alt.=147.041138m. Speed=7.164000m/h.</desc>
<speed>1.990000</speed>
</trkpt>
<trkpt lat="55.829628" lon="26.218534">
<ele>147.091919</ele>
<time>2010-07-17T12:36:35Z</time>
<desc>lat.=55.829628, lon.=26.218534, Alt.=147.091919m. Speed=7.632000m/h.</desc>
<speed>2.120000</speed>
</trkpt>
<trkpt lat="55.829651" lon="26.218542">
<ele>147.084106</ele>
<time>2010-07-17T12:36:36Z</time>
<desc>lat.=55.829651, lon.=26.218542, Alt.=147.084106m. Speed=7.956000m/h.</desc>
<speed>2.210000</speed>
</trkpt>
<trkpt lat="55.829685" lon="26.218536">
<ele>146.548950</ele>
<time>2010-07-17T12:36:37Z</time>
<desc>lat.=55.829685, lon.=26.218536, Alt.=146.548950m. Speed=10.692000m/h.</desc>
<speed>2.970000</speed>
</trkpt>
<trkpt lat="55.829765" lon="26.218426">
<ele>143.068481</ele>
<time>2010-07-17T12:36:38Z</time>
<desc>lat.=55.829765, lon.=26.218426, Alt.=143.068481m. Speed=15.696000m/h.</desc>
<speed>4.360000</speed>
</trkpt>
<trkpt lat="55.829788" lon="26.218382">
<ele>142.463013</ele>
<time>2010-07-17T12:36:39Z</time>
<desc>lat.=55.829788, lon.=26.218382, Alt.=142.463013m. Speed=10.260000m/h.</desc>
<speed>2.850000</speed>
</trkpt>
<trkpt lat="55.829807" lon="26.218330">
<ele>141.732544</ele>
<time>2010-07-17T12:36:40Z</time>
<desc>lat.=55.829807, lon.=26.218330, Alt.=141.732544m. Speed=12.060000m/h.</desc>
<speed>3.350000</speed>
</trkpt>
<trkpt lat="55.829823" lon="26.218298">
<ele>141.576294</ele>
<time>2010-07-17T12:36:41Z</time>
<desc>lat.=55.829823, lon.=26.218298, Alt.=141.576294m. Speed=10.152000m/h.</desc>
<speed>2.820000</speed>
</trkpt>
<trkpt lat="55.829834" lon="26.218260">
<ele>141.150513</ele>
<time>2010-07-17T12:36:42Z</time>
<desc>lat.=55.829834, lon.=26.218260, Alt.=141.150513m. Speed=10.584000m/h.</desc>
<speed>2.940000</speed>
</trkpt>
<trkpt lat="55.829849" lon="26.218214">
<ele>140.841919</ele>
<time>2010-07-17T12:36:43Z</time>
<desc>lat.=55.829849, lon.=26.218214, Alt.=140.841919m. Speed=11.736000m/h.</desc>
<speed>3.260000</speed>
</trkpt>
<trkpt lat="55.829861" lon="26.218164">
<ele>140.400513</ele>
<time>2010-07-17T12:36:44Z</time>
<desc>lat.=55.829861, lon.=26.218164, Alt.=140.400513m. Speed=11.124000m/h.</desc>
<speed>3.090000</speed>
</trkpt>
<trkpt lat="55.829876" lon="26.218121">
<ele>139.959106</ele>
<time>2010-07-17T12:36:45Z</time>
<desc>lat.=55.829876, lon.=26.218121, Alt.=139.959106m. Speed=11.124000m/h.</desc>
<speed>3.090000</speed>
</trkpt>
<trkpt lat="55.829887" lon="26.218082">
<ele>139.689575</ele>
<time>2010-07-17T12:36:46Z</time>
<desc>lat.=55.829887, lon.=26.218082, Alt.=139.689575m. Speed=10.332000m/h.</desc>
<speed>2.870000</speed>
</trkpt>
<trkpt lat="55.829899" lon="26.218042">
<ele>139.431763</ele>
<time>2010-07-17T12:36:47Z</time>
<desc>lat.=55.829899, lon.=26.218042, Alt.=139.431763m. Speed=9.540000m/h.</desc>
<speed>2.650000</speed>
</trkpt>
<trkpt lat="55.829910" lon="26.217995">
<ele>139.111450</ele>
<time>2010-07-17T12:36:48Z</time>
<desc>lat.=55.829910, lon.=26.217995, Alt.=139.111450m. Speed=9.720000m/h.</desc>
<speed>2.700000</speed>
</trkpt>
<trkpt lat="55.829926" lon="26.217926">
<ele>138.568481</ele>
<time>2010-07-17T12:36:49Z</time>
<desc>lat.=55.829926, lon.=26.217926, Alt.=138.568481m. Speed=9.360000m/h.</desc>
<speed>2.600000</speed>
</trkpt>
<trkpt lat="55.829926" lon="26.217869">
<ele>138.326294</ele>
<time>2010-07-17T12:36:50Z</time>
<desc>lat.=55.829926, lon.=26.217869, Alt.=138.326294m. Speed=9.540000m/h.</desc>
<speed>2.650000</speed>
</trkpt>
<trkpt lat="55.829929" lon="26.217821">
<ele>138.146606</ele>
<time>2010-07-17T12:36:51Z</time>
<desc>lat.=55.829929, lon.=26.217821, Alt.=138.146606m. Speed=9.396000m/h.</desc>
<speed>2.610000</speed>
</trkpt>
<trkpt lat="55.829933" lon="26.217779">
<ele>137.838013</ele>
<time>2010-07-17T12:36:52Z</time>
<desc>lat.=55.829933, lon.=26.217779, Alt.=137.838013m. Speed=8.604000m/h.</desc>
<speed>2.390000</speed>
</trkpt>
<trkpt lat="55.829933" lon="26.217741">
<ele>137.646606</ele>
<time>2010-07-17T12:36:53Z</time>
<desc>lat.=55.829933, lon.=26.217741, Alt.=137.646606m. Speed=8.784000m/h.</desc>
<speed>2.440000</speed>
</trkpt>
<trkpt lat="55.829941" lon="26.217705">
<ele>137.505981</ele>
<time>2010-07-17T12:36:54Z</time>
<desc>lat.=55.829941, lon.=26.217705, Alt.=137.505981m. Speed=7.848000m/h.</desc>
<speed>2.180000</speed>
</trkpt>
<trkpt lat="55.829945" lon="26.217682">
<ele>137.463013</ele>
<time>2010-07-17T12:36:55Z</time>
<desc>lat.=55.829945, lon.=26.217682, Alt.=137.463013m. Speed=4.212000m/h.</desc>
<speed>1.170000</speed>
</trkpt>
<trkpt lat="55.829956" lon="26.217670">
<ele>137.408325</ele>
<time>2010-07-17T12:36:56Z</time>
<desc>lat.=55.829956, lon.=26.217670, Alt.=137.408325m. Speed=2.772000m/h.</desc>
<speed>0.770000</speed>
</trkpt>
<trkpt lat="55.829964" lon="26.217670">
<ele>137.291138</ele>
<time>2010-07-17T12:36:57Z</time>
<desc>lat.=55.829964, lon.=26.217670, Alt.=137.291138m. Speed=0.468000m/h.</desc>
<speed>0.130000</speed>
</trkpt>
<trkpt lat="55.829971" lon="26.217670">
<ele>137.505981</ele>
<time>2010-07-17T12:36:58Z</time>
<desc>lat.=55.829971, lon.=26.217670, Alt.=137.505981m. Speed=0.432000m/h.</desc>
<speed>0.120000</speed>
</trkpt>
<trkpt lat="55.829971" lon="26.217667">
<ele>137.505981</ele>
<time>2010-07-17T12:36:59Z</time>
<desc>lat.=55.829971, lon.=26.217667, Alt.=137.505981m. Speed=0.288000m/h.</desc>
<speed>0.080000</speed>
</trkpt>
<trkpt lat="55.829975" lon="26.217665">
<ele>137.427856</ele>
<time>2010-07-17T12:37:00Z</time>
<desc>lat.=55.829975, lon.=26.217665, Alt.=137.427856m. Speed=0.468000m/h.</desc>
<speed>0.130000</speed>
</trkpt>
<trkpt lat="55.829975" lon="26.217665">
<ele>137.377075</ele>
<time>2010-07-17T12:37:01Z</time>
<desc>lat.=55.829975, lon.=26.217665, Alt.=137.377075m. Speed=0.540000m/h.</desc>
<speed>0.150000</speed>
</trkpt>
<trkpt lat="55.829975" lon="26.217663">
<ele>137.338013</ele>
<time>2010-07-17T12:37:02Z</time>
<desc>lat.=55.829975, lon.=26.217663, Alt.=137.338013m. Speed=0.720000m/h.</desc>
<speed>0.200000</speed>
</trkpt>
<trkpt lat="55.829979" lon="26.217659">
<ele>137.310669</ele>
<time>2010-07-17T12:37:03Z</time>
<desc>lat.=55.829979, lon.=26.217659, Alt.=137.310669m. Speed=0.864000m/h.</desc>
<speed>0.240000</speed>
</trkpt>
<trkpt lat="55.829979" lon="26.217655">
<ele>137.295044</ele>
<time>2010-07-17T12:37:04Z</time>
<desc>lat.=55.829979, lon.=26.217655, Alt.=137.295044m. Speed=1.008000m/h.</desc>
<speed>0.280000</speed>
</trkpt>
<trkpt lat="55.829975" lon="26.217651">
<ele>137.279419</ele>
<time>2010-07-17T12:37:05Z</time>
<desc>lat.=55.829975, lon.=26.217651, Alt.=137.279419m. Speed=0.720000m/h.</desc>
<speed>0.200000</speed>
</trkpt>
<trkpt lat="55.829975" lon="26.217648">
<ele>137.267700</ele>
<time>2010-07-17T12:37:06Z</time>
<desc>lat.=55.829975, lon.=26.217648, Alt.=137.267700m. Speed=0.756000m/h.</desc>
<speed>0.210000</speed>
</trkpt>
<trkpt lat="55.829975" lon="26.217646">
<ele>137.259888</ele>
<time>2010-07-17T12:37:07Z</time>
<desc>lat.=55.829975, lon.=26.217646, Alt.=137.259888m. Speed=0.540000m/h.</desc>
<speed>0.150000</speed>
</trkpt>
<trkpt lat="55.829975" lon="26.217642">
<ele>137.252075</ele>
<time>2010-07-17T12:37:08Z</time>
<desc>lat.=55.829975, lon.=26.217642, Alt.=137.252075m. Speed=0.936000m/h.</desc>
<speed>0.260000</speed>
</trkpt>
<trkpt lat="55.829975" lon="26.217638">
<ele>137.248169</ele>
<time>2010-07-17T12:37:09Z</time>
<desc>lat.=55.829975, lon.=26.217638, Alt.=137.248169m. Speed=1.224000m/h.</desc>
<speed>0.340000</speed>
</trkpt>
<trkpt lat="55.829975" lon="26.217632">
<ele>137.244263</ele>
<time>2010-07-17T12:37:10Z</time>
<desc>lat.=55.829975, lon.=26.217632, Alt.=137.244263m. Speed=1.080000m/h.</desc>
<speed>0.300000</speed>
</trkpt>
<trkpt lat="55.829971" lon="26.217628">
<ele>137.240356</ele>
<time>2010-07-17T12:37:11Z</time>
<desc>lat.=55.829971, lon.=26.217628, Alt.=137.240356m. Speed=1.116000m/h.</desc>
<speed>0.310000</speed>
</trkpt>
<trkpt lat="55.829971" lon="26.217623">
<ele>137.240356</ele>
<time>2010-07-17T12:37:12Z</time>
<desc>lat.=55.829971, lon.=26.217623, Alt.=137.240356m. Speed=1.152000m/h.</desc>
<speed>0.320000</speed>
</trkpt>
<trkpt lat="55.829971" lon="26.217619">
<ele>137.240356</ele>
<time>2010-07-17T12:37:13Z</time>
<desc>lat.=55.829971, lon.=26.217619, Alt.=137.240356m. Speed=0.900000m/h.</desc>
<speed>0.250000</speed>
</trkpt>
<trkpt lat="55.829971" lon="26.217615">
<ele>137.232544</ele>
<time>2010-07-17T12:37:14Z</time>
<desc>lat.=55.829971, lon.=26.217615, Alt.=137.232544m. Speed=0.900000m/h.</desc>
<speed>0.250000</speed>
</trkpt>
<trkpt lat="55.829971" lon="26.217611">
<ele>137.232544</ele>
<time>2010-07-17T12:37:15Z</time>
<desc>lat.=55.829971, lon.=26.217611, Alt.=137.232544m. Speed=0.756000m/h.</desc>
<speed>0.210000</speed>
</trkpt>
<trkpt lat="55.829967" lon="26.217607">
<ele>137.228638</ele>
<time>2010-07-17T12:37:16Z</time>
<desc>lat.=55.829967, lon.=26.217607, Alt.=137.228638m. Speed=0.216000m/h.</desc>
<speed>0.060000</speed>
</trkpt>
<trkpt lat="55.829967" lon="26.217607">
<ele>137.224731</ele>
<time>2010-07-17T12:37:17Z</time>
<desc>lat.=55.829967, lon.=26.217607, Alt.=137.224731m. Speed=0.180000m/h.</desc>
<speed>0.050000</speed>
</trkpt>
<trkpt lat="55.829967" lon="26.217606">
<ele>137.220825</ele>
<time>2010-07-17T12:37:18Z</time>
<desc>lat.=55.829967, lon.=26.217606, Alt.=137.220825m. Speed=0.612000m/h.</desc>
<speed>0.170000</speed>
</trkpt>
<trkpt lat="55.829971" lon="26.217604">
<ele>137.216919</ele>
<time>2010-07-17T12:37:19Z</time>
<desc>lat.=55.829971, lon.=26.217604, Alt.=137.216919m. Speed=0.432000m/h.</desc>
<speed>0.120000</speed>
</trkpt>
<trkpt lat="55.829971" lon="26.217602">
<ele>137.216919</ele>
<time>2010-07-17T12:37:20Z</time>
<desc>lat.=55.829971, lon.=26.217602, Alt.=137.216919m. Speed=0.396000m/h.</desc>
<speed>0.110000</speed>
</trkpt>
<trkpt lat="55.829971" lon="26.217600">
<ele>137.213013</ele>
<time>2010-07-17T12:37:21Z</time>
<desc>lat.=55.829971, lon.=26.217600, Alt.=137.213013m. Speed=0.828000m/h.</desc>
<speed>0.230000</speed>
</trkpt>
<trkpt lat="55.829971" lon="26.217596">
<ele>137.213013</ele>
<time>2010-07-17T12:37:22Z</time>
<desc>lat.=55.829971, lon.=26.217596, Alt.=137.213013m. Speed=1.548000m/h.</desc>
<speed>0.430000</speed>
</trkpt>
<trkpt lat="55.829971" lon="26.217590">
<ele>137.209106</ele>
<time>2010-07-17T12:37:23Z</time>
<desc>lat.=55.829971, lon.=26.217590, Alt.=137.209106m. Speed=1.512000m/h.</desc>
<speed>0.420000</speed>
</trkpt>
<trkpt lat="55.829975" lon="26.217583">
<ele>137.209106</ele>
<time>2010-07-17T12:37:24Z</time>
<desc>lat.=55.829975, lon.=26.217583, Alt.=137.209106m. Speed=1.548000m/h.</desc>
<speed>0.430000</speed>
</trkpt>
<trkpt lat="55.829975" lon="26.217577">
<ele>137.209106</ele>
<time>2010-07-17T12:37:25Z</time>
<desc>lat.=55.829975, lon.=26.217577, Alt.=137.209106m. Speed=1.224000m/h.</desc>
<speed>0.340000</speed>
</trkpt>
<trkpt lat="55.829975" lon="26.217571">
<ele>137.209106</ele>
<time>2010-07-17T12:37:26Z</time>
<desc>lat.=55.829975, lon.=26.217571, Alt.=137.209106m. Speed=1.872000m/h.</desc>
<speed>0.520000</speed>
</trkpt>
<trkpt lat="55.829975" lon="26.217562">
<ele>137.209106</ele>
<time>2010-07-17T12:37:27Z</time>
<desc>lat.=55.829975, lon.=26.217562, Alt.=137.209106m. Speed=1.944000m/h.</desc>
<speed>0.540000</speed>
</trkpt>
<trkpt lat="55.829975" lon="26.217552">
<ele>137.209106</ele>
<time>2010-07-17T12:37:28Z</time>
<desc>lat.=55.829975, lon.=26.217552, Alt.=137.209106m. Speed=1.512000m/h.</desc>
<speed>0.420000</speed>
</trkpt>
<trkpt lat="55.829975" lon="26.217546">
<ele>137.205200</ele>
<time>2010-07-17T12:37:29Z</time>
<desc>lat.=55.829975, lon.=26.217546, Alt.=137.205200m. Speed=1.296000m/h.</desc>
<speed>0.360000</speed>
</trkpt>
<trkpt lat="55.829979" lon="26.217539">
<ele>137.205200</ele>
<time>2010-07-17T12:37:30Z</time>
<desc>lat.=55.829979, lon.=26.217539, Alt.=137.205200m. Speed=1.368000m/h.</desc>
<speed>0.380000</speed>
</trkpt>
<trkpt lat="55.829979" lon="26.217533">
<ele>137.209106</ele>
<time>2010-07-17T12:37:31Z</time>
<desc>lat.=55.829979, lon.=26.217533, Alt.=137.209106m. Speed=1.368000m/h.</desc>
<speed>0.380000</speed>
</trkpt>
<trkpt lat="55.829979" lon="26.217527">
<ele>137.213013</ele>
<time>2010-07-17T12:37:32Z</time>
<desc>lat.=55.829979, lon.=26.217527, Alt.=137.213013m. Speed=1.224000m/h.</desc>
<speed>0.340000</speed>
</trkpt>
<trkpt lat="55.829979" lon="26.217524">
<ele>137.216919</ele>
<time>2010-07-17T12:37:33Z</time>
<desc>lat.=55.829979, lon.=26.217524, Alt.=137.216919m. Speed=0.648000m/h.</desc>
<speed>0.180000</speed>
</trkpt>
<trkpt lat="55.829979" lon="26.217520">
<ele>137.228638</ele>
<time>2010-07-17T12:37:34Z</time>
<desc>lat.=55.829979, lon.=26.217520, Alt.=137.228638m. Speed=1.224000m/h.</desc>
<speed>0.340000</speed>
</trkpt>
<trkpt lat="55.829979" lon="26.217516">
<ele>137.252075</ele>
<time>2010-07-17T12:37:35Z</time>
<desc>lat.=55.829979, lon.=26.217516, Alt.=137.252075m. Speed=1.908000m/h.</desc>
<speed>0.530000</speed>
</trkpt>
<trkpt lat="55.829979" lon="26.217506">
<ele>137.255981</ele>
<time>2010-07-17T12:37:36Z</time>
<desc>lat.=55.829979, lon.=26.217506, Alt.=137.255981m. Speed=2.448000m/h.</desc>
<speed>0.680000</speed>
</trkpt>
<trkpt lat="55.829979" lon="26.217497">
<ele>137.259888</ele>
<time>2010-07-17T12:37:37Z</time>
<desc>lat.=55.829979, lon.=26.217497, Alt.=137.259888m. Speed=2.520000m/h.</desc>
<speed>0.700000</speed>
</trkpt>
<trkpt lat="55.829975" lon="26.217485">
<ele>137.259888</ele>
<time>2010-07-17T12:37:38Z</time>
<desc>lat.=55.829975, lon.=26.217485, Alt.=137.259888m. Speed=2.592000m/h.</desc>
<speed>0.720000</speed>
</trkpt>
<trkpt lat="55.829975" lon="26.217474">
<ele>137.259888</ele>
<time>2010-07-17T12:37:39Z</time>
<desc>lat.=55.829975, lon.=26.217474, Alt.=137.259888m. Speed=2.700000m/h.</desc>
<speed>0.750000</speed>
</trkpt>
<trkpt lat="55.829975" lon="26.217463">
<ele>137.263794</ele>
<time>2010-07-17T12:37:40Z</time>
<desc>lat.=55.829975, lon.=26.217463, Alt.=137.263794m. Speed=2.916000m/h.</desc>
<speed>0.810000</speed>
</trkpt>
<trkpt lat="55.829975" lon="26.217449">
<ele>137.267700</ele>
<time>2010-07-17T12:37:41Z</time>
<desc>lat.=55.829975, lon.=26.217449, Alt.=137.267700m. Speed=3.060000m/h.</desc>
<speed>0.850000</speed>
</trkpt>
<trkpt lat="55.829971" lon="26.217436">
<ele>137.275513</ele>
<time>2010-07-17T12:37:42Z</time>
<desc>lat.=55.829971, lon.=26.217436, Alt.=137.275513m. Speed=2.988000m/h.</desc>
<speed>0.830000</speed>
</trkpt>
<trkpt lat="55.829971" lon="26.217422">
<ele>137.279419</ele>
<time>2010-07-17T12:37:43Z</time>
<desc>lat.=55.829971, lon.=26.217422, Alt.=137.279419m. Speed=2.376000m/h.</desc>
<speed>0.660000</speed>
</trkpt>
<trkpt lat="55.829971" lon="26.217413">
<ele>137.283325</ele>
<time>2010-07-17T12:37:44Z</time>
<desc>lat.=55.829971, lon.=26.217413, Alt.=137.283325m. Speed=1.836000m/h.</desc>
<speed>0.510000</speed>
</trkpt>
<trkpt lat="55.829967" lon="26.217405">
<ele>137.310669</ele>
<time>2010-07-17T12:37:45Z</time>
<desc>lat.=55.829967, lon.=26.217405, Alt.=137.310669m. Speed=1.584000m/h.</desc>
<speed>0.440000</speed>
</trkpt>
<trkpt lat="55.829964" lon="26.217400">
<ele>137.330200</ele>
<time>2010-07-17T12:37:46Z</time>
<desc>lat.=55.829964, lon.=26.217400, Alt.=137.330200m. Speed=1.476000m/h.</desc>
<speed>0.410000</speed>
</trkpt>
<trkpt lat="55.829964" lon="26.217394">
<ele>137.349731</ele>
<time>2010-07-17T12:37:47Z</time>
<desc>lat.=55.829964, lon.=26.217394, Alt.=137.349731m. Speed=0.540000m/h.</desc>
<speed>0.150000</speed>
</trkpt>
<trkpt lat="55.829964" lon="26.217392">
<ele>137.369263</ele>
<time>2010-07-17T12:37:48Z</time>
<desc>lat.=55.829964, lon.=26.217392, Alt.=137.369263m. Speed=0.036000m/h.</desc>
<speed>0.010000</speed>
</trkpt>
<trkpt lat="55.829964" lon="26.217392">
<ele>137.388794</ele>
<time>2010-07-17T12:37:49Z</time>
<desc>lat.=55.829964, lon.=26.217392, Alt.=137.388794m. Speed=0.324000m/h.</desc>
<speed>0.090000</speed>
</trkpt>
<trkpt lat="55.829964" lon="26.217392">
<ele>137.404419</ele>
<time>2010-07-17T12:37:50Z</time>
<desc>lat.=55.829964, lon.=26.217392, Alt.=137.404419m. Speed=1.044000m/h.</desc>
<speed>0.290000</speed>
</trkpt>
<trkpt lat="55.829967" lon="26.217394">
<ele>137.423950</ele>
<time>2010-07-17T12:37:51Z</time>
<desc>lat.=55.829967, lon.=26.217394, Alt.=137.423950m. Speed=1.260000m/h.</desc>
<speed>0.350000</speed>
</trkpt>
<trkpt lat="55.829971" lon="26.217396">
<ele>137.435669</ele>
<time>2010-07-17T12:37:52Z</time>
<desc>lat.=55.829971, lon.=26.217396, Alt.=137.435669m. Speed=1.332000m/h.</desc>
<speed>0.370000</speed>
</trkpt>
<trkpt lat="55.829971" lon="26.217402">
<ele>137.451294</ele>
<time>2010-07-17T12:37:53Z</time>
<desc>lat.=55.829971, lon.=26.217402, Alt.=137.451294m. Speed=0.828000m/h.</desc>
<speed>0.230000</speed>
</trkpt>
<trkpt lat="55.829975" lon="26.217403">
<ele>137.463013</ele>
<time>2010-07-17T12:37:54Z</time>
<desc>lat.=55.829975, lon.=26.217403, Alt.=137.463013m. Speed=1.044000m/h.</desc>
<speed>0.290000</speed>
</trkpt>
<trkpt lat="55.829975" lon="26.217409">
<ele>137.478638</ele>
<time>2010-07-17T12:37:55Z</time>
<desc>lat.=55.829975, lon.=26.217409, Alt.=137.478638m. Speed=1.008000m/h.</desc>
<speed>0.280000</speed>
</trkpt>
<trkpt lat="55.829975" lon="26.217413">
<ele>137.490356</ele>
<time>2010-07-17T12:37:56Z</time>
<desc>lat.=55.829975, lon.=26.217413, Alt.=137.490356m. Speed=1.296000m/h.</desc>
<speed>0.360000</speed>
</trkpt>
<trkpt lat="55.829975" lon="26.217419">
<ele>137.505981</ele>
<time>2010-07-17T12:37:57Z</time>
<desc>lat.=55.829975, lon.=26.217419, Alt.=137.505981m. Speed=1.224000m/h.</desc>
<speed>0.340000</speed>
</trkpt>
<trkpt lat="55.829979" lon="26.217424">
<ele>137.517700</ele>
<time>2010-07-17T12:37:58Z</time>
<desc>lat.=55.829979, lon.=26.217424, Alt.=137.517700m. Speed=1.152000m/h.</desc>
<speed>0.320000</speed>
</trkpt>
<trkpt lat="55.829979" lon="26.217428">
<ele>137.529419</ele>
<time>2010-07-17T12:37:59Z</time>
<desc>lat.=55.829979, lon.=26.217428, Alt.=137.529419m. Speed=1.008000m/h.</desc>
<speed>0.280000</speed>
</trkpt>
<trkpt lat="55.829979" lon="26.217434">
<ele>137.548950</ele>
<time>2010-07-17T12:38:00Z</time>
<desc>lat.=55.829979, lon.=26.217434, Alt.=137.548950m. Speed=1.368000m/h.</desc>
<speed>0.380000</speed>
</trkpt>
<trkpt lat="55.829979" lon="26.217440">
<ele>137.568481</ele>
<time>2010-07-17T12:38:01Z</time>
<desc>lat.=55.829979, lon.=26.217440, Alt.=137.568481m. Speed=1.188000m/h.</desc>
<speed>0.330000</speed>
</trkpt>
<trkpt lat="55.829979" lon="26.217445">
<ele>137.584106</ele>
<time>2010-07-17T12:38:02Z</time>
<desc>lat.=55.829979, lon.=26.217445, Alt.=137.584106m. Speed=0.972000m/h.</desc>
<speed>0.270000</speed>
</trkpt>
<trkpt lat="55.829975" lon="26.217449">
<ele>137.603638</ele>
<time>2010-07-17T12:38:03Z</time>
<desc>lat.=55.829975, lon.=26.217449, Alt.=137.603638m. Speed=0.936000m/h.</desc>
<speed>0.260000</speed>
</trkpt>
<trkpt lat="55.829975" lon="26.217453">
<ele>137.623169</ele>
<time>2010-07-17T12:38:04Z</time>
<desc>lat.=55.829975, lon.=26.217453, Alt.=137.623169m. Speed=0.684000m/h.</desc>
<speed>0.190000</speed>
</trkpt>
<trkpt lat="55.829975" lon="26.217455">
<ele>137.642700</ele>
<time>2010-07-17T12:38:05Z</time>
<desc>lat.=55.829975, lon.=26.217455, Alt.=137.642700m. Speed=0.504000m/h.</desc>
<speed>0.140000</speed>
</trkpt>
<trkpt lat="55.829971" lon="26.217457">
<ele>137.666138</ele>
<time>2010-07-17T12:38:06Z</time>
<desc>lat.=55.829971, lon.=26.217457, Alt.=137.666138m. Speed=0.360000m/h.</desc>
<speed>0.100000</speed>
</trkpt>
<trkpt lat="55.829971" lon="26.217457">
<ele>137.681763</ele>
<time>2010-07-17T12:38:07Z</time>
<desc>lat.=55.829971, lon.=26.217457, Alt.=137.681763m. Speed=0.612000m/h.</desc>
<speed>0.170000</speed>
</trkpt>
<trkpt lat="55.829971" lon="26.217459">
<ele>137.697388</ele>
<time>2010-07-17T12:38:08Z</time>
<desc>lat.=55.829971, lon.=26.217459, Alt.=137.697388m. Speed=0.612000m/h.</desc>
<speed>0.170000</speed>
</trkpt>
<trkpt lat="55.829967" lon="26.217461">
<ele>137.713013</ele>
<time>2010-07-17T12:38:09Z</time>
<desc>lat.=55.829967, lon.=26.217461, Alt.=137.713013m. Speed=0.612000m/h.</desc>
<speed>0.170000</speed>
</trkpt>
<trkpt lat="55.829967" lon="26.217463">
<ele>137.724731</ele>
<time>2010-07-17T12:38:10Z</time>
<desc>lat.=55.829967, lon.=26.217463, Alt.=137.724731m. Speed=0.432000m/h.</desc>
<speed>0.120000</speed>
</trkpt>
<trkpt lat="55.829967" lon="26.217463">
<ele>137.740356</ele>
<time>2010-07-17T12:38:11Z</time>
<desc>lat.=55.829967, lon.=26.217463, Alt.=137.740356m. Speed=0.072000m/h.</desc>
<speed>0.020000</speed>
</trkpt>
<trkpt lat="55.829967" lon="26.217463">
<ele>137.755981</ele>
<time>2010-07-17T12:38:12Z</time>
<desc>lat.=55.829967, lon.=26.217463, Alt.=137.755981m. Speed=0.432000m/h.</desc>
<speed>0.120000</speed>
</trkpt>
<trkpt lat="55.829964" lon="26.217463">
<ele>137.775513</ele>
<time>2010-07-17T12:38:13Z</time>
<desc>lat.=55.829964, lon.=26.217463, Alt.=137.775513m. Speed=0.108000m/h.</desc>
<speed>0.030000</speed>
</trkpt>
<trkpt lat="55.829964" lon="26.217463">
<ele>137.787231</ele>
<time>2010-07-17T12:38:14Z</time>
<desc>lat.=55.829964, lon.=26.217463, Alt.=137.787231m. Speed=0.324000m/h.</desc>
<speed>0.090000</speed>
</trkpt>
<trkpt lat="55.829964" lon="26.217463">
<ele>137.798950</ele>
<time>2010-07-17T12:38:15Z</time>
<desc>lat.=55.829964, lon.=26.217463, Alt.=137.798950m. Speed=0.180000m/h.</desc>
<speed>0.050000</speed>
</trkpt>
<trkpt lat="55.829964" lon="26.217463">
<ele>137.814575</ele>
<time>2010-07-17T12:38:16Z</time>
<desc>lat.=55.829964, lon.=26.217463, Alt.=137.814575m. Speed=0.468000m/h.</desc>
<speed>0.130000</speed>
</trkpt>
<trkpt lat="55.829964" lon="26.217464">
<ele>137.826294</ele>
<time>2010-07-17T12:38:17Z</time>
<desc>lat.=55.829964, lon.=26.217464, Alt.=137.826294m. Speed=0.648000m/h.</desc>
<speed>0.180000</speed>
</trkpt>
<trkpt lat="55.829960" lon="26.217464">
<ele>137.841919</ele>
<time>2010-07-17T12:38:18Z</time>
<desc>lat.=55.829960, lon.=26.217464, Alt.=137.841919m. Speed=0.972000m/h.</desc>
<speed>0.270000</speed>
</trkpt>
<trkpt lat="55.829960" lon="26.217464">
<ele>137.853638</ele>
<time>2010-07-17T12:38:19Z</time>
<desc>lat.=55.829960, lon.=26.217464, Alt.=137.853638m. Speed=1.116000m/h.</desc>
<speed>0.310000</speed>
</trkpt>
<trkpt lat="55.829956" lon="26.217464">
<ele>137.865356</ele>
<time>2010-07-17T12:38:20Z</time>
<desc>lat.=55.829956, lon.=26.217464, Alt.=137.865356m. Speed=1.260000m/h.</desc>
<speed>0.350000</speed>
</trkpt>
<trkpt lat="55.829952" lon="26.217464">
<ele>137.880981</ele>
<time>2010-07-17T12:38:21Z</time>
<desc>lat.=55.829952, lon.=26.217464, Alt.=137.880981m. Speed=0.972000m/h.</desc>
<speed>0.270000</speed>
</trkpt>
<trkpt lat="55.829948" lon="26.217464">
<ele>137.896606</ele>
<time>2010-07-17T12:38:22Z</time>
<desc>lat.=55.829948, lon.=26.217464, Alt.=137.896606m. Speed=0.720000m/h.</desc>
<speed>0.200000</speed>
</trkpt>
<trkpt lat="55.829948" lon="26.217464">
<ele>137.912231</ele>
<time>2010-07-17T12:38:23Z</time>
<desc>lat.=55.829948, lon.=26.217464, Alt.=137.912231m. Speed=0.576000m/h.</desc>
<speed>0.160000</speed>
</trkpt>
<trkpt lat="55.829948" lon="26.217464">
<ele>137.923950</ele>
<time>2010-07-17T12:38:24Z</time>
<desc>lat.=55.829948, lon.=26.217464, Alt.=137.923950m. Speed=0.504000m/h.</desc>
<speed>0.140000</speed>
</trkpt>
<trkpt lat="55.829945" lon="26.217466">
<ele>137.931763</ele>
<time>2010-07-17T12:38:25Z</time>
<desc>lat.=55.829945, lon.=26.217466, Alt.=137.931763m. Speed=0.324000m/h.</desc>
<speed>0.090000</speed>
</trkpt>
<trkpt lat="55.829945" lon="26.217466">
<ele>137.943481</ele>
<time>2010-07-17T12:38:26Z</time>
<desc>lat.=55.829945, lon.=26.217466, Alt.=137.943481m. Speed=0.180000m/h.</desc>
<speed>0.050000</speed>
</trkpt>
<trkpt lat="55.829945" lon="26.217468">
<ele>137.959106</ele>
<time>2010-07-17T12:38:27Z</time>
<desc>lat.=55.829945, lon.=26.217468, Alt.=137.959106m. Speed=0.144000m/h.</desc>
<speed>0.040000</speed>
</trkpt>
<trkpt lat="55.829945" lon="26.217468">
<ele>137.966919</ele>
<time>2010-07-17T12:38:28Z</time>
<desc>lat.=55.829945, lon.=26.217468, Alt.=137.966919m. Speed=0.612000m/h.</desc>
<speed>0.170000</speed>
</trkpt>
<trkpt lat="55.829948" lon="26.217468">
<ele>137.974731</ele>
<time>2010-07-17T12:38:29Z</time>
<desc>lat.=55.829948, lon.=26.217468, Alt.=137.974731m. Speed=0.936000m/h.</desc>
<speed>0.260000</speed>
</trkpt>
<trkpt lat="55.829948" lon="26.217470">
<ele>137.986450</ele>
<time>2010-07-17T12:38:30Z</time>
<desc>lat.=55.829948, lon.=26.217470, Alt.=137.986450m. Speed=0.504000m/h.</desc>
<speed>0.140000</speed>
</trkpt>
<trkpt lat="55.829948" lon="26.217472">
<ele>137.994263</ele>
<time>2010-07-17T12:38:31Z</time>
<desc>lat.=55.829948, lon.=26.217472, Alt.=137.994263m. Speed=0.576000m/h.</desc>
<speed>0.160000</speed>
</trkpt>
<trkpt lat="55.829948" lon="26.217476">
<ele>138.005981</ele>
<time>2010-07-17T12:38:32Z</time>
<desc>lat.=55.829948, lon.=26.217476, Alt.=138.005981m. Speed=0.432000m/h.</desc>
<speed>0.120000</speed>
</trkpt>
<trkpt lat="55.829948" lon="26.217478">
<ele>138.013794</ele>
<time>2010-07-17T12:38:33Z</time>
<desc>lat.=55.829948, lon.=26.217478, Alt.=138.013794m. Speed=1.440000m/h.</desc>
<speed>0.400000</speed>
</trkpt>
<trkpt lat="55.829948" lon="26.217484">
<ele>138.021606</ele>
<time>2010-07-17T12:38:34Z</time>
<desc>lat.=55.829948, lon.=26.217484, Alt.=138.021606m. Speed=1.584000m/h.</desc>
<speed>0.440000</speed>
</trkpt>
<trkpt lat="55.829948" lon="26.217489">
<ele>138.025513</ele>
<time>2010-07-17T12:38:35Z</time>
<desc>lat.=55.829948, lon.=26.217489, Alt.=138.025513m. Speed=1.080000m/h.</desc>
<speed>0.300000</speed>
</trkpt>
<trkpt lat="55.829945" lon="26.217495">
<ele>138.033325</ele>
<time>2010-07-17T12:38:36Z</time>
<desc>lat.=55.829945, lon.=26.217495, Alt.=138.033325m. Speed=1.260000m/h.</desc>
<speed>0.350000</speed>
</trkpt>
<trkpt lat="55.829945" lon="26.217501">
<ele>138.045044</ele>
<time>2010-07-17T12:38:37Z</time>
<desc>lat.=55.829945, lon.=26.217501, Alt.=138.045044m. Speed=0.972000m/h.</desc>
<speed>0.270000</speed>
</trkpt>
<trkpt lat="55.829945" lon="26.217505">
<ele>138.052856</ele>
<time>2010-07-17T12:38:38Z</time>
<desc>lat.=55.829945, lon.=26.217505, Alt.=138.052856m. Speed=1.116000m/h.</desc>
<speed>0.310000</speed>
</trkpt>
<trkpt lat="55.829945" lon="26.217510">
<ele>138.060669</ele>
<time>2010-07-17T12:38:39Z</time>
<desc>lat.=55.829945, lon.=26.217510, Alt.=138.060669m. Speed=1.008000m/h.</desc>
<speed>0.280000</speed>
</trkpt>
<trkpt lat="55.829945" lon="26.217514">
<ele>138.072388</ele>
<time>2010-07-17T12:38:40Z</time>
<desc>lat.=55.829945, lon.=26.217514, Alt.=138.072388m. Speed=1.224000m/h.</desc>
<speed>0.340000</speed>
</trkpt>
<trkpt lat="55.829945" lon="26.217520">
<ele>138.080200</ele>
<time>2010-07-17T12:38:41Z</time>
<desc>lat.=55.829945, lon.=26.217520, Alt.=138.080200m. Speed=0.720000m/h.</desc>
<speed>0.200000</speed>
</trkpt>
<trkpt lat="55.829945" lon="26.217522">
<ele>138.091919</ele>
<time>2010-07-17T12:38:42Z</time>
<desc>lat.=55.829945, lon.=26.217522, Alt.=138.091919m. Speed=0.108000m/h.</desc>
<speed>0.030000</speed>
</trkpt>
<trkpt lat="55.829945" lon="26.217522">
<ele>138.107544</ele>
<time>2010-07-17T12:38:43Z</time>
<desc>lat.=55.829945, lon.=26.217522, Alt.=138.107544m. Speed=0.396000m/h.</desc>
<speed>0.110000</speed>
</trkpt>
<trkpt lat="55.829945" lon="26.217520">
<ele>138.119263</ele>
<time>2010-07-17T12:38:44Z</time>
<desc>lat.=55.829945, lon.=26.217520, Alt.=138.119263m. Speed=0.504000m/h.</desc>
<speed>0.140000</speed>
</trkpt>
<trkpt lat="55.829948" lon="26.217518">
<ele>138.127075</ele>
<time>2010-07-17T12:38:45Z</time>
<desc>lat.=55.829948, lon.=26.217518, Alt.=138.127075m. Speed=0.360000m/h.</desc>
<speed>0.100000</speed>
</trkpt>
<trkpt lat="55.829948" lon="26.217516">
<ele>138.138794</ele>
<time>2010-07-17T12:38:46Z</time>
<desc>lat.=55.829948, lon.=26.217516, Alt.=138.138794m. Speed=0.720000m/h.</desc>
<speed>0.200000</speed>
</trkpt>
<trkpt lat="55.829948" lon="26.217514">
<ele>138.150513</ele>
<time>2010-07-17T12:38:47Z</time>
<desc>lat.=55.829948, lon.=26.217514, Alt.=138.150513m. Speed=0.612000m/h.</desc>
<speed>0.170000</speed>
</trkpt>
<trkpt lat="55.829948" lon="26.217510">
<ele>138.162231</ele>
<time>2010-07-17T12:38:48Z</time>
<desc>lat.=55.829948, lon.=26.217510, Alt.=138.162231m. Speed=0.756000m/h.</desc>
<speed>0.210000</speed>
</trkpt>
<trkpt lat="55.829948" lon="26.217506">
<ele>138.173950</ele>
<time>2010-07-17T12:38:49Z</time>
<desc>lat.=55.829948, lon.=26.217506, Alt.=138.173950m. Speed=0.756000m/h.</desc>
<speed>0.210000</speed>
</trkpt>
<trkpt lat="55.829948" lon="26.217505">
<ele>138.181763</ele>
<time>2010-07-17T12:38:50Z</time>
<desc>lat.=55.829948, lon.=26.217505, Alt.=138.181763m. Speed=0.936000m/h.</desc>
<speed>0.260000</speed>
</trkpt>
<trkpt lat="55.829945" lon="26.217501">
<ele>138.193481</ele>
<time>2010-07-17T12:38:51Z</time>
<desc>lat.=55.829945, lon.=26.217501, Alt.=138.193481m. Speed=0.864000m/h.</desc>
<speed>0.240000</speed>
</trkpt>
<trkpt lat="55.829945" lon="26.217497">
<ele>138.201294</ele>
<time>2010-07-17T12:38:52Z</time>
<desc>lat.=55.829945, lon.=26.217497, Alt.=138.201294m. Speed=0.792000m/h.</desc>
<speed>0.220000</speed>
</trkpt>
<trkpt lat="55.829945" lon="26.217493">
<ele>138.205200</ele>
<time>2010-07-17T12:38:53Z</time>
<desc>lat.=55.829945, lon.=26.217493, Alt.=138.205200m. Speed=0.720000m/h.</desc>
<speed>0.200000</speed>
</trkpt>
<trkpt lat="55.829945" lon="26.217489">
<ele>138.213013</ele>
<time>2010-07-17T12:38:54Z</time>
<desc>lat.=55.829945, lon.=26.217489, Alt.=138.213013m. Speed=0.684000m/h.</desc>
<speed>0.190000</speed>
</trkpt>
<trkpt lat="55.829945" lon="26.217487">
<ele>138.216919</ele>
<time>2010-07-17T12:38:55Z</time>
<desc>lat.=55.829945, lon.=26.217487, Alt.=138.216919m. Speed=0.396000m/h.</desc>
<speed>0.110000</speed>
</trkpt>
<trkpt lat="55.829945" lon="26.217487">
<ele>138.224731</ele>
<time>2010-07-17T12:38:56Z</time>
<desc>lat.=55.829945, lon.=26.217487, Alt.=138.224731m. Speed=0.612000m/h.</desc>
<speed>0.170000</speed>
</trkpt>
<trkpt lat="55.829941" lon="26.217487">
<ele>138.228638</ele>
<time>2010-07-17T12:38:57Z</time>
<desc>lat.=55.829941, lon.=26.217487, Alt.=138.228638m. Speed=0.432000m/h.</desc>
<speed>0.120000</speed>
</trkpt>
<trkpt lat="55.829941" lon="26.217487">
<ele>138.236450</ele>
<time>2010-07-17T12:38:58Z</time>
<desc>lat.=55.829941, lon.=26.217487, Alt.=138.236450m. Speed=0.576000m/h.</desc>
<speed>0.160000</speed>
</trkpt>
<trkpt lat="55.829941" lon="26.217485">
<ele>138.240356</ele>
<time>2010-07-17T12:38:59Z</time>
<desc>lat.=55.829941, lon.=26.217485, Alt.=138.240356m. Speed=0.612000m/h.</desc>
<speed>0.170000</speed>
</trkpt>
<trkpt lat="55.829937" lon="26.217485">
<ele>138.244263</ele>
<time>2010-07-17T12:39:00Z</time>
<desc>lat.=55.829937, lon.=26.217485, Alt.=138.244263m. Speed=0.252000m/h.</desc>
<speed>0.070000</speed>
</trkpt>
<trkpt lat="55.829937" lon="26.217485">
<ele>138.252075</ele>
<time>2010-07-17T12:39:01Z</time>
<desc>lat.=55.829937, lon.=26.217485, Alt.=138.252075m. Speed=0.216000m/h.</desc>
<speed>0.060000</speed>
</trkpt>
<trkpt lat="55.829937" lon="26.217485">
<ele>138.255981</ele>
<time>2010-07-17T12:39:02Z</time>
<desc>lat.=55.829937, lon.=26.217485, Alt.=138.255981m. Speed=0.576000m/h.</desc>
<speed>0.160000</speed>
</trkpt>
<trkpt lat="55.829937" lon="26.217487">
<ele>138.259888</ele>
<time>2010-07-17T12:39:03Z</time>
<desc>lat.=55.829937, lon.=26.217487, Alt.=138.259888m. Speed=0.180000m/h.</desc>
<speed>0.050000</speed>
</trkpt>
<trkpt lat="55.829937" lon="26.217487">
<ele>138.263794</ele>
<time>2010-07-17T12:39:04Z</time>
<desc>lat.=55.829937, lon.=26.217487, Alt.=138.263794m. Speed=0.180000m/h.</desc>
<speed>0.050000</speed>
</trkpt>
<trkpt lat="55.829937" lon="26.217485">
<ele>138.267700</ele>
<time>2010-07-17T12:39:05Z</time>
<desc>lat.=55.829937, lon.=26.217485, Alt.=138.267700m. Speed=0.432000m/h.</desc>
<speed>0.120000</speed>
</trkpt>
<trkpt lat="55.829937" lon="26.217484">
<ele>138.275513</ele>
<time>2010-07-17T12:39:06Z</time>
<desc>lat.=55.829937, lon.=26.217484, Alt.=138.275513m. Speed=0.576000m/h.</desc>
<speed>0.160000</speed>
</trkpt>
<trkpt lat="55.829937" lon="26.217482">
<ele>138.279419</ele>
<time>2010-07-17T12:39:07Z</time>
<desc>lat.=55.829937, lon.=26.217482, Alt.=138.279419m. Speed=0.360000m/h.</desc>
<speed>0.100000</speed>
</trkpt>
<trkpt lat="55.829937" lon="26.217480">
<ele>138.283325</ele>
<time>2010-07-17T12:39:08Z</time>
<desc>lat.=55.829937, lon.=26.217480, Alt.=138.283325m. Speed=0.216000m/h.</desc>
<speed>0.060000</speed>
</trkpt>
<trkpt lat="55.829937" lon="26.217478">
<ele>138.291138</ele>
<time>2010-07-17T12:39:09Z</time>
<desc>lat.=55.829937, lon.=26.217478, Alt.=138.291138m. Speed=0.108000m/h.</desc>
<speed>0.030000</speed>
</trkpt>
<trkpt lat="55.829937" lon="26.217478">
<ele>138.295044</ele>
<time>2010-07-17T12:39:10Z</time>
<desc>lat.=55.829937, lon.=26.217478, Alt.=138.295044m. Speed=0.288000m/h.</desc>
<speed>0.080000</speed>
</trkpt>
<trkpt lat="55.829937" lon="26.217480">
<ele>138.302856</ele>
<time>2010-07-17T12:39:11Z</time>
<desc>lat.=55.829937, lon.=26.217480, Alt.=138.302856m. Speed=0.144000m/h.</desc>
<speed>0.040000</speed>
</trkpt>
<trkpt lat="55.829937" lon="26.217480">
<ele>138.310669</ele>
<time>2010-07-17T12:39:12Z</time>
<desc>lat.=55.829937, lon.=26.217480, Alt.=138.310669m. Speed=0.180000m/h.</desc>
<speed>0.050000</speed>
</trkpt>
<trkpt lat="55.829937" lon="26.217478">
<ele>138.314575</ele>
<time>2010-07-17T12:39:13Z</time>
<desc>lat.=55.829937, lon.=26.217478, Alt.=138.314575m. Speed=0.144000m/h.</desc>
<speed>0.040000</speed>
</trkpt>
<trkpt lat="55.829937" lon="26.217480">
<ele>138.326294</ele>
<time>2010-07-17T12:39:14Z</time>
<desc>lat.=55.829937, lon.=26.217480, Alt.=138.326294m. Speed=0.324000m/h.</desc>
<speed>0.090000</speed>
</trkpt>
<trkpt lat="55.829937" lon="26.217480">
<ele>138.334106</ele>
<time>2010-07-17T12:39:15Z</time>
<desc>lat.=55.829937, lon.=26.217480, Alt.=138.334106m. Speed=0.324000m/h.</desc>
<speed>0.090000</speed>
</trkpt>
<trkpt lat="55.829937" lon="26.217478">
<ele>138.341919</ele>
<time>2010-07-17T12:39:16Z</time>
<desc>lat.=55.829937, lon.=26.217478, Alt.=138.341919m. Speed=0.864000m/h.</desc>
<speed>0.240000</speed>
</trkpt>
<trkpt lat="55.829937" lon="26.217474">
<ele>138.349731</ele>
<time>2010-07-17T12:39:17Z</time>
<desc>lat.=55.829937, lon.=26.217474, Alt.=138.349731m. Speed=0.396000m/h.</desc>
<speed>0.110000</speed>
</trkpt>
<trkpt lat="55.829937" lon="26.217472">
<ele>138.361450</ele>
<time>2010-07-17T12:39:18Z</time>
<desc>lat.=55.829937, lon.=26.217472, Alt.=138.361450m. Speed=0.936000m/h.</desc>
<speed>0.260000</speed>
</trkpt>
<trkpt lat="55.829937" lon="26.217468">
<ele>138.369263</ele>
<time>2010-07-17T12:39:19Z</time>
<desc>lat.=55.829937, lon.=26.217468, Alt.=138.369263m. Speed=0.756000m/h.</desc>
<speed>0.210000</speed>
</trkpt>
<trkpt lat="55.829941" lon="26.217466">
<ele>138.380981</ele>
<time>2010-07-17T12:39:20Z</time>
<desc>lat.=55.829941, lon.=26.217466, Alt.=138.380981m. Speed=0.864000m/h.</desc>
<speed>0.240000</speed>
</trkpt>
<trkpt lat="55.829941" lon="26.217464">
<ele>138.392700</ele>
<time>2010-07-17T12:39:21Z</time>
<desc>lat.=55.829941, lon.=26.217464, Alt.=138.392700m. Speed=0.396000m/h.</desc>
<speed>0.110000</speed>
</trkpt>
<trkpt lat="55.829941" lon="26.217464">
<ele>138.400513</ele>
<time>2010-07-17T12:39:22Z</time>
<desc>lat.=55.829941, lon.=26.217464, Alt.=138.400513m. Speed=0.288000m/h.</desc>
<speed>0.080000</speed>
</trkpt>
<trkpt lat="55.829945" lon="26.217464">
<ele>138.408325</ele>
<time>2010-07-17T12:39:23Z</time>
<desc>lat.=55.829945, lon.=26.217464, Alt.=138.408325m. Speed=0.036000m/h.</desc>
<speed>0.010000</speed>
</trkpt>
<trkpt lat="55.829945" lon="26.217464">
<ele>138.420044</ele>
<time>2010-07-17T12:39:24Z</time>
<desc>lat.=55.829945, lon.=26.217464, Alt.=138.420044m. Speed=0.360000m/h.</desc>
<speed>0.100000</speed>
</trkpt>
<trkpt lat="55.829941" lon="26.217466">
<ele>138.431763</ele>
<time>2010-07-17T12:39:25Z</time>
<desc>lat.=55.829941, lon.=26.217466, Alt.=138.431763m. Speed=0.072000m/h.</desc>
<speed>0.020000</speed>
</trkpt>
<trkpt lat="55.829941" lon="26.217466">
<ele>138.443481</ele>
<time>2010-07-17T12:39:26Z</time>
<desc>lat.=55.829941, lon.=26.217466, Alt.=138.443481m. Speed=0.324000m/h.</desc>
<speed>0.090000</speed>
</trkpt>
<trkpt lat="55.829941" lon="26.217468">
<ele>138.451294</ele>
<time>2010-07-17T12:39:27Z</time>
<desc>lat.=55.829941, lon.=26.217468, Alt.=138.451294m. Speed=1.080000m/h.</desc>
<speed>0.300000</speed>
</trkpt>
<trkpt lat="55.829941" lon="26.217472">
<ele>138.463013</ele>
<time>2010-07-17T12:39:28Z</time>
<desc>lat.=55.829941, lon.=26.217472, Alt.=138.463013m. Speed=0.504000m/h.</desc>
<speed>0.140000</speed>
</trkpt>
<trkpt lat="55.829941" lon="26.217476">
<ele>138.474731</ele>
<time>2010-07-17T12:39:29Z</time>
<desc>lat.=55.829941, lon.=26.217476, Alt.=138.474731m. Speed=0.864000m/h.</desc>
<speed>0.240000</speed>
</trkpt>
<trkpt lat="55.829941" lon="26.217478">
<ele>138.486450</ele>
<time>2010-07-17T12:39:30Z</time>
<desc>lat.=55.829941, lon.=26.217478, Alt.=138.486450m. Speed=0.648000m/h.</desc>
<speed>0.180000</speed>
</trkpt>
<trkpt lat="55.829941" lon="26.217482">
<ele>138.494263</ele>
<time>2010-07-17T12:39:31Z</time>
<desc>lat.=55.829941, lon.=26.217482, Alt.=138.494263m. Speed=0.540000m/h.</desc>
<speed>0.150000</speed>
</trkpt>
<trkpt lat="55.829941" lon="26.217484">
<ele>138.505981</ele>
<time>2010-07-17T12:39:32Z</time>
<desc>lat.=55.829941, lon.=26.217484, Alt.=138.505981m. Speed=0.432000m/h.</desc>
<speed>0.120000</speed>
</trkpt>
<trkpt lat="55.829941" lon="26.217484">
<ele>138.513794</ele>
<time>2010-07-17T12:39:33Z</time>
<desc>lat.=55.829941, lon.=26.217484, Alt.=138.513794m. Speed=0.324000m/h.</desc>
<speed>0.090000</speed>
</trkpt>
<trkpt lat="55.829941" lon="26.217485">
<ele>138.521606</ele>
<time>2010-07-17T12:39:34Z</time>
<desc>lat.=55.829941, lon.=26.217485, Alt.=138.521606m. Speed=0.504000m/h.</desc>
<speed>0.140000</speed>
</trkpt>
<trkpt lat="55.829941" lon="26.217487">
<ele>138.529419</ele>
<time>2010-07-17T12:39:35Z</time>
<desc>lat.=55.829941, lon.=26.217487, Alt.=138.529419m. Speed=0.504000m/h.</desc>
<speed>0.140000</speed>
</trkpt>
<trkpt lat="55.829945" lon="26.217489">
<ele>138.541138</ele>
<time>2010-07-17T12:39:36Z</time>
<desc>lat.=55.829945, lon.=26.217489, Alt.=138.541138m. Speed=0.648000m/h.</desc>
<speed>0.180000</speed>
</trkpt>
<trkpt lat="55.829945" lon="26.217491">
<ele>138.548950</ele>
<time>2010-07-17T12:39:37Z</time>
<desc>lat.=55.829945, lon.=26.217491, Alt.=138.548950m. Speed=0.684000m/h.</desc>
<speed>0.190000</speed>
</trkpt>
<trkpt lat="55.829948" lon="26.217489">
<ele>138.560669</ele>
<time>2010-07-17T12:39:38Z</time>
<desc>lat.=55.829948, lon.=26.217489, Alt.=138.560669m. Speed=0.288000m/h.</desc>
<speed>0.080000</speed>
</trkpt>
<trkpt lat="55.829948" lon="26.217489">
<ele>138.572388</ele>
<time>2010-07-17T12:39:39Z</time>
<desc>lat.=55.829948, lon.=26.217489, Alt.=138.572388m. Speed=0.180000m/h.</desc>
<speed>0.050000</speed>
</trkpt>
<trkpt lat="55.829948" lon="26.217491">
<ele>138.584106</ele>
<time>2010-07-17T12:39:40Z</time>
<desc>lat.=55.829948, lon.=26.217491, Alt.=138.584106m. Speed=0.324000m/h.</desc>
<speed>0.090000</speed>
</trkpt>
<trkpt lat="55.829948" lon="26.217491">
<ele>138.591919</ele>
<time>2010-07-17T12:39:41Z</time>
<desc>lat.=55.829948, lon.=26.217491, Alt.=138.591919m. Speed=1.044000m/h.</desc>
<speed>0.290000</speed>
</trkpt>
<trkpt lat="55.829945" lon="26.217497">
<ele>138.599731</ele>
<time>2010-07-17T12:39:42Z</time>
<desc>lat.=55.829945, lon.=26.217497, Alt.=138.599731m. Speed=1.548000m/h.</desc>
<speed>0.430000</speed>
</trkpt>
<trkpt lat="55.829945" lon="26.217501">
<ele>138.603638</ele>
<time>2010-07-17T12:39:43Z</time>
<desc>lat.=55.829945, lon.=26.217501, Alt.=138.603638m. Speed=2.016000m/h.</desc>
<speed>0.560000</speed>
</trkpt>
<trkpt lat="55.829941" lon="26.217506">
<ele>138.603638</ele>
<time>2010-07-17T12:39:44Z</time>
<desc>lat.=55.829941, lon.=26.217506, Alt.=138.603638m. Speed=2.088000m/h.</desc>
<speed>0.580000</speed>
</trkpt>
<trkpt lat="55.829933" lon="26.217510">
<ele>138.603638</ele>
<time>2010-07-17T12:39:45Z</time>
<desc>lat.=55.829933, lon.=26.217510, Alt.=138.603638m. Speed=2.628000m/h.</desc>
<speed>0.730000</speed>
</trkpt>
<trkpt lat="55.829929" lon="26.217516">
<ele>138.599731</ele>
<time>2010-07-17T12:39:46Z</time>
<desc>lat.=55.829929, lon.=26.217516, Alt.=138.599731m. Speed=2.808000m/h.</desc>
<speed>0.780000</speed>
</trkpt>
<trkpt lat="55.829922" lon="26.217524">
<ele>138.599731</ele>
<time>2010-07-17T12:39:47Z</time>
<desc>lat.=55.829922, lon.=26.217524, Alt.=138.599731m. Speed=2.628000m/h.</desc>
<speed>0.730000</speed>
</trkpt>
<trkpt lat="55.829918" lon="26.217527">
<ele>138.599731</ele>
<time>2010-07-17T12:39:48Z</time>
<desc>lat.=55.829918, lon.=26.217527, Alt.=138.599731m. Speed=2.520000m/h.</desc>
<speed>0.700000</speed>
</trkpt>
<trkpt lat="55.829910" lon="26.217533">
<ele>138.595825</ele>
<time>2010-07-17T12:39:49Z</time>
<desc>lat.=55.829910, lon.=26.217533, Alt.=138.595825m. Speed=2.232000m/h.</desc>
<speed>0.620000</speed>
</trkpt>
<trkpt lat="55.829906" lon="26.217535">
<ele>138.591919</ele>
<time>2010-07-17T12:39:50Z</time>
<desc>lat.=55.829906, lon.=26.217535, Alt.=138.591919m. Speed=2.196000m/h.</desc>
<speed>0.610000</speed>
</trkpt>
<trkpt lat="55.829899" lon="26.217539">
<ele>138.591919</ele>
<time>2010-07-17T12:39:51Z</time>
<desc>lat.=55.829899, lon.=26.217539, Alt.=138.591919m. Speed=1.764000m/h.</desc>
<speed>0.490000</speed>
</trkpt>
<trkpt lat="55.829895" lon="26.217541">
<ele>138.588013</ele>
<time>2010-07-17T12:39:52Z</time>
<desc>lat.=55.829895, lon.=26.217541, Alt.=138.588013m. Speed=1.584000m/h.</desc>
<speed>0.440000</speed>
</trkpt>
<trkpt lat="55.829891" lon="26.217545">
<ele>138.588013</ele>
<time>2010-07-17T12:39:53Z</time>
<desc>lat.=55.829891, lon.=26.217545, Alt.=138.588013m. Speed=1.512000m/h.</desc>
<speed>0.420000</speed>
</trkpt>
<trkpt lat="55.829891" lon="26.217548">
<ele>138.584106</ele>
<time>2010-07-17T12:39:54Z</time>
<desc>lat.=55.829891, lon.=26.217548, Alt.=138.584106m. Speed=1.080000m/h.</desc>
<speed>0.300000</speed>
</trkpt>
<trkpt lat="55.829887" lon="26.217552">
<ele>138.584106</ele>
<time>2010-07-17T12:39:55Z</time>
<desc>lat.=55.829887, lon.=26.217552, Alt.=138.584106m. Speed=0.756000m/h.</desc>
<speed>0.210000</speed>
</trkpt>
<trkpt lat="55.829887" lon="26.217552">
<ele>138.584106</ele>
<time>2010-07-17T12:39:56Z</time>
<desc>lat.=55.829887, lon.=26.217552, Alt.=138.584106m. Speed=0.360000m/h.</desc>
<speed>0.100000</speed>
</trkpt>
<trkpt lat="55.829887" lon="26.217550">
<ele>138.580200</ele>
<time>2010-07-17T12:39:57Z</time>
<desc>lat.=55.829887, lon.=26.217550, Alt.=138.580200m. Speed=0.252000m/h.</desc>
<speed>0.070000</speed>
</trkpt>
<trkpt lat="55.829884" lon="26.217550">
<ele>138.580200</ele>
<time>2010-07-17T12:39:58Z</time>
<desc>lat.=55.829884, lon.=26.217550, Alt.=138.580200m. Speed=0.180000m/h.</desc>
<speed>0.050000</speed>
</trkpt>
<trkpt lat="55.829884" lon="26.217550">
<ele>138.580200</ele>
<time>2010-07-17T12:39:59Z</time>
<desc>lat.=55.829884, lon.=26.217550, Alt.=138.580200m. Speed=0.396000m/h.</desc>
<speed>0.110000</speed>
</trkpt>
<trkpt lat="55.829887" lon="26.217548">
<ele>138.580200</ele>
<time>2010-07-17T12:40:00Z</time>
<desc>lat.=55.829887, lon.=26.217548, Alt.=138.580200m. Speed=0.612000m/h.</desc>
<speed>0.170000</speed>
</trkpt>
<trkpt lat="55.829887" lon="26.217546">
<ele>138.580200</ele>
<time>2010-07-17T12:40:01Z</time>
<desc>lat.=55.829887, lon.=26.217546, Alt.=138.580200m. Speed=0.396000m/h.</desc>
<speed>0.110000</speed>
</trkpt>
<trkpt lat="55.829887" lon="26.217545">
<ele>138.584106</ele>
<time>2010-07-17T12:40:02Z</time>
<desc>lat.=55.829887, lon.=26.217545, Alt.=138.584106m. Speed=0.324000m/h.</desc>
<speed>0.090000</speed>
</trkpt>
<trkpt lat="55.829887" lon="26.217545">
<ele>138.588013</ele>
<time>2010-07-17T12:40:03Z</time>
<desc>lat.=55.829887, lon.=26.217545, Alt.=138.588013m. Speed=0.324000m/h.</desc>
<speed>0.090000</speed>
</trkpt>
<trkpt lat="55.829884" lon="26.217543">
<ele>138.595825</ele>
<time>2010-07-17T12:40:04Z</time>
<desc>lat.=55.829884, lon.=26.217543, Alt.=138.595825m. Speed=0.216000m/h.</desc>
<speed>0.060000</speed>
</trkpt>
<trkpt lat="55.829884" lon="26.217543">
<ele>138.599731</ele>
<time>2010-07-17T12:40:05Z</time>
<desc>lat.=55.829884, lon.=26.217543, Alt.=138.599731m. Speed=0.504000m/h.</desc>
<speed>0.140000</speed>
</trkpt>
<trkpt lat="55.829887" lon="26.217541">
<ele>138.607544</ele>
<time>2010-07-17T12:40:06Z</time>
<desc>lat.=55.829887, lon.=26.217541, Alt.=138.607544m. Speed=0.900000m/h.</desc>
<speed>0.250000</speed>
</trkpt>
<trkpt lat="55.829887" lon="26.217537">
<ele>138.615356</ele>
<time>2010-07-17T12:40:07Z</time>
<desc>lat.=55.829887, lon.=26.217537, Alt.=138.615356m. Speed=0.972000m/h.</desc>
<speed>0.270000</speed>
</trkpt>
<trkpt lat="55.829891" lon="26.217537">
<ele>138.623169</ele>
<time>2010-07-17T12:40:08Z</time>
<desc>lat.=55.829891, lon.=26.217537, Alt.=138.623169m. Speed=1.260000m/h.</desc>
<speed>0.350000</speed>
</trkpt>
<trkpt lat="55.829895" lon="26.217537">
<ele>138.634888</ele>
<time>2010-07-17T12:40:09Z</time>
<desc>lat.=55.829895, lon.=26.217537, Alt.=138.634888m. Speed=1.368000m/h.</desc>
<speed>0.380000</speed>
</trkpt>
<trkpt lat="55.829899" lon="26.217539">
<ele>138.650513</ele>
<time>2010-07-17T12:40:10Z</time>
<desc>lat.=55.829899, lon.=26.217539, Alt.=138.650513m. Speed=1.296000m/h.</desc>
<speed>0.360000</speed>
</trkpt>
<trkpt lat="55.829903" lon="26.217541">
<ele>138.666138</ele>
<time>2010-07-17T12:40:11Z</time>
<desc>lat.=55.829903, lon.=26.217541, Alt.=138.666138m. Speed=1.188000m/h.</desc>
<speed>0.330000</speed>
</trkpt>
<trkpt lat="55.829903" lon="26.217541">
<ele>138.689575</ele>
<time>2010-07-17T12:40:12Z</time>
<desc>lat.=55.829903, lon.=26.217541, Alt.=138.689575m. Speed=1.728000m/h.</desc>
<speed>0.480000</speed>
</trkpt>
<trkpt lat="55.829910" lon="26.217541">
<ele>138.716919</ele>
<time>2010-07-17T12:40:13Z</time>
<desc>lat.=55.829910, lon.=26.217541, Alt.=138.716919m. Speed=1.512000m/h.</desc>
<speed>0.420000</speed>
</trkpt>
<trkpt lat="55.829914" lon="26.217541">
<ele>138.748169</ele>
<time>2010-07-17T12:40:14Z</time>
<desc>lat.=55.829914, lon.=26.217541, Alt.=138.748169m. Speed=1.008000m/h.</desc>
<speed>0.280000</speed>
</trkpt>
<trkpt lat="55.829914" lon="26.217539">
<ele>138.775513</ele>
<time>2010-07-17T12:40:15Z</time>
<desc>lat.=55.829914, lon.=26.217539, Alt.=138.775513m. Speed=0.936000m/h.</desc>
<speed>0.260000</speed>
</trkpt>
<trkpt lat="55.829918" lon="26.217539">
<ele>138.814575</ele>
<time>2010-07-17T12:40:16Z</time>
<desc>lat.=55.829918, lon.=26.217539, Alt.=138.814575m. Speed=1.404000m/h.</desc>
<speed>0.390000</speed>
</trkpt>
<trkpt lat="55.829922" lon="26.217537">
<ele>138.853638</ele>
<time>2010-07-17T12:40:17Z</time>
<desc>lat.=55.829922, lon.=26.217537, Alt.=138.853638m. Speed=1.512000m/h.</desc>
<speed>0.420000</speed>
</trkpt>
<trkpt lat="55.829926" lon="26.217535">
<ele>138.908325</ele>
<time>2010-07-17T12:40:18Z</time>
<desc>lat.=55.829926, lon.=26.217535, Alt.=138.908325m. Speed=1.476000m/h.</desc>
<speed>0.410000</speed>
</trkpt>
<trkpt lat="55.829929" lon="26.217531">
<ele>138.963013</ele>
<time>2010-07-17T12:40:19Z</time>
<desc>lat.=55.829929, lon.=26.217531, Alt.=138.963013m. Speed=1.116000m/h.</desc>
<speed>0.310000</speed>
</trkpt>
<trkpt lat="55.829929" lon="26.217529">
<ele>139.025513</ele>
<time>2010-07-17T12:40:20Z</time>
<desc>lat.=55.829929, lon.=26.217529, Alt.=139.025513m. Speed=1.404000m/h.</desc>
<speed>0.390000</speed>
</trkpt>
<trkpt lat="55.829933" lon="26.217525">
<ele>139.088013</ele>
<time>2010-07-17T12:40:21Z</time>
<desc>lat.=55.829933, lon.=26.217525, Alt.=139.088013m. Speed=0.540000m/h.</desc>
<speed>0.150000</speed>
</trkpt>
<trkpt lat="55.829933" lon="26.217522">
<ele>139.158325</ele>
<time>2010-07-17T12:40:22Z</time>
<desc>lat.=55.829933, lon.=26.217522, Alt.=139.158325m. Speed=0.468000m/h.</desc>
<speed>0.130000</speed>
</trkpt>
<trkpt lat="55.829933" lon="26.217522">
<ele>139.209106</ele>
<time>2010-07-17T12:40:23Z</time>
<desc>lat.=55.829933, lon.=26.217522, Alt.=139.209106m. Speed=0.468000m/h.</desc>
<speed>0.130000</speed>
</trkpt>
<trkpt lat="55.829933" lon="26.217520">
<ele>139.259888</ele>
<time>2010-07-17T12:40:24Z</time>
<desc>lat.=55.829933, lon.=26.217520, Alt.=139.259888m. Speed=0.504000m/h.</desc>
<speed>0.140000</speed>
</trkpt>
<trkpt lat="55.829929" lon="26.217518">
<ele>139.298950</ele>
<time>2010-07-17T12:40:25Z</time>
<desc>lat.=55.829929, lon.=26.217518, Alt.=139.298950m. Speed=0.324000m/h.</desc>
<speed>0.090000</speed>
</trkpt>
<trkpt lat="55.829929" lon="26.217516">
<ele>139.341919</ele>
<time>2010-07-17T12:40:26Z</time>
<desc>lat.=55.829929, lon.=26.217516, Alt.=139.341919m. Speed=0.756000m/h.</desc>
<speed>0.210000</speed>
</trkpt>
<trkpt lat="55.829933" lon="26.217514">
<ele>139.373169</ele>
<time>2010-07-17T12:40:27Z</time>
<desc>lat.=55.829933, lon.=26.217514, Alt.=139.373169m. Speed=0.396000m/h.</desc>
<speed>0.110000</speed>
</trkpt>
<trkpt lat="55.829933" lon="26.217512">
<ele>139.408325</ele>
<time>2010-07-17T12:40:28Z</time>
<desc>lat.=55.829933, lon.=26.217512, Alt.=139.408325m. Speed=0.396000m/h.</desc>
<speed>0.110000</speed>
</trkpt>
<trkpt lat="55.829933" lon="26.217512">
<ele>139.435669</ele>
<time>2010-07-17T12:40:29Z</time>
<desc>lat.=55.829933, lon.=26.217512, Alt.=139.435669m. Speed=0.684000m/h.</desc>
<speed>0.190000</speed>
</trkpt>
<trkpt lat="55.829933" lon="26.217514">
<ele>139.474731</ele>
<time>2010-07-17T12:40:30Z</time>
<desc>lat.=55.829933, lon.=26.217514, Alt.=139.474731m. Speed=0.864000m/h.</desc>
<speed>0.240000</speed>
</trkpt>
<trkpt lat="55.829937" lon="26.217512">
<ele>139.502075</ele>
<time>2010-07-17T12:40:31Z</time>
<desc>lat.=55.829937, lon.=26.217512, Alt.=139.502075m. Speed=0.288000m/h.</desc>
<speed>0.080000</speed>
</trkpt>
<trkpt lat="55.829937" lon="26.217512">
<ele>139.537231</ele>
<time>2010-07-17T12:40:32Z</time>
<desc>lat.=55.829937, lon.=26.217512, Alt.=139.537231m. Speed=0.468000m/h.</desc>
<speed>0.130000</speed>
</trkpt>
<trkpt lat="55.829941" lon="26.217514">
<ele>139.572388</ele>
<time>2010-07-17T12:40:33Z</time>
<desc>lat.=55.829941, lon.=26.217514, Alt.=139.572388m. Speed=0.072000m/h.</desc>
<speed>0.020000</speed>
</trkpt>
<trkpt lat="55.829941" lon="26.217514">
<ele>139.607544</ele>
<time>2010-07-17T12:40:34Z</time>
<desc>lat.=55.829941, lon.=26.217514, Alt.=139.607544m. Speed=0.180000m/h.</desc>
<speed>0.050000</speed>
</trkpt>
<trkpt lat="55.829937" lon="26.217514">
<ele>139.638794</ele>
<time>2010-07-17T12:40:35Z</time>
<desc>lat.=55.829937, lon.=26.217514, Alt.=139.638794m. Speed=0.324000m/h.</desc>
<speed>0.090000</speed>
</trkpt>
<trkpt lat="55.829937" lon="26.217514">
<ele>139.673950</ele>
<time>2010-07-17T12:40:36Z</time>
<desc>lat.=55.829937, lon.=26.217514, Alt.=139.673950m. Speed=0.252000m/h.</desc>
<speed>0.070000</speed>
</trkpt>
<trkpt lat="55.829937" lon="26.217514">
<ele>139.709106</ele>
<time>2010-07-17T12:40:37Z</time>
<desc>lat.=55.829937, lon.=26.217514, Alt.=139.709106m. Speed=0.180000m/h.</desc>
<speed>0.050000</speed>
</trkpt>
<trkpt lat="55.829937" lon="26.217514">
<ele>139.748169</ele>
<time>2010-07-17T12:40:38Z</time>
<desc>lat.=55.829937, lon.=26.217514, Alt.=139.748169m. Speed=1.044000m/h.</desc>
<speed>0.290000</speed>
</trkpt>
<trkpt lat="55.829941" lon="26.217512">
<ele>139.791138</ele>
<time>2010-07-17T12:40:39Z</time>
<desc>lat.=55.829941, lon.=26.217512, Alt.=139.791138m. Speed=1.188000m/h.</desc>
<speed>0.330000</speed>
</trkpt>
<trkpt lat="55.829945" lon="26.217510">
<ele>139.834106</ele>
<time>2010-07-17T12:40:40Z</time>
<desc>lat.=55.829945, lon.=26.217510, Alt.=139.834106m. Speed=1.296000m/h.</desc>
<speed>0.360000</speed>
</trkpt>
<trkpt lat="55.829948" lon="26.217508">
<ele>139.880981</ele>
<time>2010-07-17T12:40:41Z</time>
<desc>lat.=55.829948, lon.=26.217508, Alt.=139.880981m. Speed=1.044000m/h.</desc>
<speed>0.290000</speed>
</trkpt>
<trkpt lat="55.829948" lon="26.217508">
<ele>139.939575</ele>
<time>2010-07-17T12:40:42Z</time>
<desc>lat.=55.829948, lon.=26.217508, Alt.=139.939575m. Speed=1.116000m/h.</desc>
<speed>0.310000</speed>
</trkpt>
<trkpt lat="55.829952" lon="26.217506">
<ele>139.998169</ele>
<time>2010-07-17T12:40:43Z</time>
<desc>lat.=55.829952, lon.=26.217506, Alt.=139.998169m. Speed=1.260000m/h.</desc>
<speed>0.350000</speed>
</trkpt>
<trkpt lat="55.829956" lon="26.217506">
<ele>140.068481</ele>
<time>2010-07-17T12:40:44Z</time>
<desc>lat.=55.829956, lon.=26.217506, Alt.=140.068481m. Speed=1.080000m/h.</desc>
<speed>0.300000</speed>
</trkpt>
<trkpt lat="55.829960" lon="26.217505">
<ele>140.150513</ele>
<time>2010-07-17T12:40:45Z</time>
<desc>lat.=55.829960, lon.=26.217505, Alt.=140.150513m. Speed=1.296000m/h.</desc>
<speed>0.360000</speed>
</trkpt>
<trkpt lat="55.829964" lon="26.217503">
<ele>140.236450</ele>
<time>2010-07-17T12:40:46Z</time>
<desc>lat.=55.829964, lon.=26.217503, Alt.=140.236450m. Speed=1.296000m/h.</desc>
<speed>0.360000</speed>
</trkpt>
<trkpt lat="55.829964" lon="26.217503">
<ele>140.334106</ele>
<time>2010-07-17T12:40:47Z</time>
<desc>lat.=55.829964, lon.=26.217503, Alt.=140.334106m. Speed=1.332000m/h.</desc>
<speed>0.370000</speed>
</trkpt>
<trkpt lat="55.829967" lon="26.217499">
<ele>140.439575</ele>
<time>2010-07-17T12:40:48Z</time>
<desc>lat.=55.829967, lon.=26.217499, Alt.=140.439575m. Speed=1.368000m/h.</desc>
<speed>0.380000</speed>
</trkpt>
<trkpt lat="55.829971" lon="26.217497">
<ele>140.548950</ele>
<time>2010-07-17T12:40:49Z</time>
<desc>lat.=55.829971, lon.=26.217497, Alt.=140.548950m. Speed=1.188000m/h.</desc>
<speed>0.330000</speed>
</trkpt>
<trkpt lat="55.829975" lon="26.217495">
<ele>140.666138</ele>
<time>2010-07-17T12:40:50Z</time>
<desc>lat.=55.829975, lon.=26.217495, Alt.=140.666138m. Speed=0.540000m/h.</desc>
<speed>0.150000</speed>
</trkpt>
<trkpt lat="55.829975" lon="26.217495">
<ele>140.787231</ele>
<time>2010-07-17T12:40:51Z</time>
<desc>lat.=55.829975, lon.=26.217495, Alt.=140.787231m. Speed=0.144000m/h.</desc>
<speed>0.040000</speed>
</trkpt>
<trkpt lat="55.829975" lon="26.217493">
<ele>140.908325</ele>
<time>2010-07-17T12:40:52Z</time>
<desc>lat.=55.829975, lon.=26.217493, Alt.=140.908325m. Speed=0.684000m/h.</desc>
<speed>0.190000</speed>
</trkpt>
<trkpt lat="55.829979" lon="26.217491">
<ele>141.009888</ele>
<time>2010-07-17T12:40:53Z</time>
<desc>lat.=55.829979, lon.=26.217491, Alt.=141.009888m. Speed=0.756000m/h.</desc>
<speed>0.210000</speed>
</trkpt>
<trkpt lat="55.829979" lon="26.217489">
<ele>141.099731</ele>
<time>2010-07-17T12:40:54Z</time>
<desc>lat.=55.829979, lon.=26.217489, Alt.=141.099731m. Speed=0.612000m/h.</desc>
<speed>0.170000</speed>
</trkpt>
<trkpt lat="55.829979" lon="26.217485">
<ele>141.177856</ele>
<time>2010-07-17T12:40:55Z</time>
<desc>lat.=55.829979, lon.=26.217485, Alt.=141.177856m. Speed=0.396000m/h.</desc>
<speed>0.110000</speed>
</trkpt>
<trkpt lat="55.829979" lon="26.217484">
<ele>141.248169</ele>
<time>2010-07-17T12:40:56Z</time>
<desc>lat.=55.829979, lon.=26.217484, Alt.=141.248169m. Speed=0.252000m/h.</desc>
<speed>0.070000</speed>
</trkpt>
<trkpt lat="55.829979" lon="26.217484">
<ele>141.306763</ele>
<time>2010-07-17T12:40:57Z</time>
<desc>lat.=55.829979, lon.=26.217484, Alt.=141.306763m. Speed=0.648000m/h.</desc>
<speed>0.180000</speed>
</trkpt>
<trkpt lat="55.829979" lon="26.217482">
<ele>141.357544</ele>
<time>2010-07-17T12:40:58Z</time>
<desc>lat.=55.829979, lon.=26.217482, Alt.=141.357544m. Speed=0.360000m/h.</desc>
<speed>0.100000</speed>
</trkpt>
<trkpt lat="55.829983" lon="26.217480">
<ele>141.400513</ele>
<time>2010-07-17T12:40:59Z</time>
<desc>lat.=55.829983, lon.=26.217480, Alt.=141.400513m. Speed=0.576000m/h.</desc>
<speed>0.160000</speed>
</trkpt>
<trkpt lat="55.829983" lon="26.217478">
<ele>141.447388</ele>
<time>2010-07-17T12:41:00Z</time>
<desc>lat.=55.829983, lon.=26.217478, Alt.=141.447388m. Speed=1.044000m/h.</desc>
<speed>0.290000</speed>
</trkpt>
<trkpt lat="55.829983" lon="26.217474">
<ele>141.482544</ele>
<time>2010-07-17T12:41:01Z</time>
<desc>lat.=55.829983, lon.=26.217474, Alt.=141.482544m. Speed=0.756000m/h.</desc>
<speed>0.210000</speed>
</trkpt>
<trkpt lat="55.829983" lon="26.217470">
<ele>141.525513</ele>
<time>2010-07-17T12:41:02Z</time>
<desc>lat.=55.829983, lon.=26.217470, Alt.=141.525513m. Speed=0.864000m/h.</desc>
<speed>0.240000</speed>
</trkpt>
<trkpt lat="55.829987" lon="26.217466">
<ele>141.564575</ele>
<time>2010-07-17T12:41:03Z</time>
<desc>lat.=55.829987, lon.=26.217466, Alt.=141.564575m. Speed=0.864000m/h.</desc>
<speed>0.240000</speed>
</trkpt>
<trkpt lat="55.829987" lon="26.217464">
<ele>141.599731</ele>
<time>2010-07-17T12:41:04Z</time>
<desc>lat.=55.829987, lon.=26.217464, Alt.=141.599731m. Speed=0.252000m/h.</desc>
<speed>0.070000</speed>
</trkpt>
<trkpt lat="55.829987" lon="26.217463">
<ele>141.630981</ele>
<time>2010-07-17T12:41:05Z</time>
<desc>lat.=55.829987, lon.=26.217463, Alt.=141.630981m. Speed=0.648000m/h.</desc>
<speed>0.180000</speed>
</trkpt>
<trkpt lat="55.829987" lon="26.217464">
<ele>141.662231</ele>
<time>2010-07-17T12:41:06Z</time>
<desc>lat.=55.829987, lon.=26.217464, Alt.=141.662231m. Speed=0.324000m/h.</desc>
<speed>0.090000</speed>
</trkpt>
<trkpt lat="55.829987" lon="26.217466">
<ele>141.697388</ele>
<time>2010-07-17T12:41:07Z</time>
<desc>lat.=55.829987, lon.=26.217466, Alt.=141.697388m. Speed=0.036000m/h.</desc>
<speed>0.010000</speed>
</trkpt>
<trkpt lat="55.829987" lon="26.217466">
<ele>141.724731</ele>
<time>2010-07-17T12:41:08Z</time>
<desc>lat.=55.829987, lon.=26.217466, Alt.=141.724731m. Speed=0.108000m/h.</desc>
<speed>0.030000</speed>
</trkpt>
<trkpt lat="55.829987" lon="26.217464">
<ele>141.759888</ele>
<time>2010-07-17T12:41:09Z</time>
<desc>lat.=55.829987, lon.=26.217464, Alt.=141.759888m. Speed=0.756000m/h.</desc>
<speed>0.210000</speed>
</trkpt>
<trkpt lat="55.829987" lon="26.217463">
<ele>141.787231</ele>
<time>2010-07-17T12:41:10Z</time>
<desc>lat.=55.829987, lon.=26.217463, Alt.=141.787231m. Speed=0.540000m/h.</desc>
<speed>0.150000</speed>
</trkpt>
<trkpt lat="55.829987" lon="26.217459">
<ele>141.814575</ele>
<time>2010-07-17T12:41:11Z</time>
<desc>lat.=55.829987, lon.=26.217459, Alt.=141.814575m. Speed=0.360000m/h.</desc>
<speed>0.100000</speed>
</trkpt>
<trkpt lat="55.829987" lon="26.217459">
<ele>141.845825</ele>
<time>2010-07-17T12:41:12Z</time>
<desc>lat.=55.829987, lon.=26.217459, Alt.=141.845825m. Speed=0.432000m/h.</desc>
<speed>0.120000</speed>
</trkpt>
<trkpt lat="55.829990" lon="26.217457">
<ele>141.873169</ele>
<time>2010-07-17T12:41:13Z</time>
<desc>lat.=55.829990, lon.=26.217457, Alt.=141.873169m. Speed=1.044000m/h.</desc>
<speed>0.290000</speed>
</trkpt>
<trkpt lat="55.829990" lon="26.217453">
<ele>141.904419</ele>
<time>2010-07-17T12:41:14Z</time>
<desc>lat.=55.829990, lon.=26.217453, Alt.=141.904419m. Speed=0.612000m/h.</desc>
<speed>0.170000</speed>
</trkpt>
<trkpt lat="55.829990" lon="26.217451">
<ele>141.935669</ele>
<time>2010-07-17T12:41:15Z</time>
<desc>lat.=55.829990, lon.=26.217451, Alt.=141.935669m. Speed=0.144000m/h.</desc>
<speed>0.040000</speed>
</trkpt>
<trkpt lat="55.829990" lon="26.217449">
<ele>141.959106</ele>
<time>2010-07-17T12:41:16Z</time>
<desc>lat.=55.829990, lon.=26.217449, Alt.=141.959106m. Speed=0.648000m/h.</desc>
<speed>0.180000</speed>
</trkpt>
<trkpt lat="55.829994" lon="26.217451">
<ele>141.986450</ele>
<time>2010-07-17T12:41:17Z</time>
<desc>lat.=55.829994, lon.=26.217451, Alt.=141.986450m. Speed=0.504000m/h.</desc>
<speed>0.140000</speed>
</trkpt>
<trkpt lat="55.829994" lon="26.217451">
<ele>142.021606</ele>
<time>2010-07-17T12:41:18Z</time>
<desc>lat.=55.829994, lon.=26.217451, Alt.=142.021606m. Speed=0.360000m/h.</desc>
<speed>0.100000</speed>
</trkpt>
<trkpt lat="55.829994" lon="26.217453">
<ele>142.060669</ele>
<time>2010-07-17T12:41:19Z</time>
<desc>lat.=55.829994, lon.=26.217453, Alt.=142.060669m. Speed=0.468000m/h.</desc>
<speed>0.130000</speed>
</trkpt>
<trkpt lat="55.829994" lon="26.217455">
<ele>142.103638</ele>
<time>2010-07-17T12:41:20Z</time>
<desc>lat.=55.829994, lon.=26.217455, Alt.=142.103638m. Speed=0.612000m/h.</desc>
<speed>0.170000</speed>
</trkpt>
<trkpt lat="55.829994" lon="26.217457">
<ele>142.146606</ele>
<time>2010-07-17T12:41:21Z</time>
<desc>lat.=55.829994, lon.=26.217457, Alt.=142.146606m. Speed=0.468000m/h.</desc>
<speed>0.130000</speed>
</trkpt>
<trkpt lat="55.829994" lon="26.217457">
<ele>142.185669</ele>
<time>2010-07-17T12:41:22Z</time>
<desc>lat.=55.829994, lon.=26.217457, Alt.=142.185669m. Speed=0.612000m/h.</desc>
<speed>0.170000</speed>
</trkpt>
<trkpt lat="55.829998" lon="26.217459">
<ele>142.236450</ele>
<time>2010-07-17T12:41:23Z</time>
<desc>lat.=55.829998, lon.=26.217459, Alt.=142.236450m. Speed=0.360000m/h.</desc>
<speed>0.100000</speed>
</trkpt>
<trkpt lat="55.829998" lon="26.217459">
<ele>142.287231</ele>
<time>2010-07-17T12:41:24Z</time>
<desc>lat.=55.829998, lon.=26.217459, Alt.=142.287231m. Speed=0.576000m/h.</desc>
<speed>0.160000</speed>
</trkpt>
<trkpt lat="55.829998" lon="26.217461">
<ele>142.345825</ele>
<time>2010-07-17T12:41:25Z</time>
<desc>lat.=55.829998, lon.=26.217461, Alt.=142.345825m. Speed=0.612000m/h.</desc>
<speed>0.170000</speed>
</trkpt>
<trkpt lat="55.829998" lon="26.217463">
<ele>142.404419</ele>
<time>2010-07-17T12:41:26Z</time>
<desc>lat.=55.829998, lon.=26.217463, Alt.=142.404419m. Speed=0.432000m/h.</desc>
<speed>0.120000</speed>
</trkpt>
<trkpt lat="55.829998" lon="26.217464">
<ele>142.463013</ele>
<time>2010-07-17T12:41:27Z</time>
<desc>lat.=55.829998, lon.=26.217464, Alt.=142.463013m. Speed=0.144000m/h.</desc>
<speed>0.040000</speed>
</trkpt>
<trkpt lat="55.829998" lon="26.217466">
<ele>142.521606</ele>
<time>2010-07-17T12:41:28Z</time>
<desc>lat.=55.829998, lon.=26.217466, Alt.=142.521606m. Speed=0.252000m/h.</desc>
<speed>0.070000</speed>
</trkpt>
<trkpt lat="55.829998" lon="26.217466">
<ele>142.572388</ele>
<time>2010-07-17T12:41:29Z</time>
<desc>lat.=55.829998, lon.=26.217466, Alt.=142.572388m. Speed=0.504000m/h.</desc>
<speed>0.140000</speed>
</trkpt>
<trkpt lat="55.829998" lon="26.217468">
<ele>142.627075</ele>
<time>2010-07-17T12:41:30Z</time>
<desc>lat.=55.829998, lon.=26.217468, Alt.=142.627075m. Speed=0.360000m/h.</desc>
<speed>0.100000</speed>
</trkpt>
<trkpt lat="55.829998" lon="26.217470">
<ele>142.677856</ele>
<time>2010-07-17T12:41:31Z</time>
<desc>lat.=55.829998, lon.=26.217470, Alt.=142.677856m. Speed=0.612000m/h.</desc>
<speed>0.170000</speed>
</trkpt>
<trkpt lat="55.830002" lon="26.217470">
<ele>142.720825</ele>
<time>2010-07-17T12:41:32Z</time>
<desc>lat.=55.830002, lon.=26.217470, Alt.=142.720825m. Speed=0.936000m/h.</desc>
<speed>0.260000</speed>
</trkpt>
<trkpt lat="55.830002" lon="26.217472">
<ele>142.767700</ele>
<time>2010-07-17T12:41:33Z</time>
<desc>lat.=55.830002, lon.=26.217472, Alt.=142.767700m. Speed=0.576000m/h.</desc>
<speed>0.160000</speed>
</trkpt>
<trkpt lat="55.830006" lon="26.217472">
<ele>142.818481</ele>
<time>2010-07-17T12:41:34Z</time>
<desc>lat.=55.830006, lon.=26.217472, Alt.=142.818481m. Speed=0.576000m/h.</desc>
<speed>0.160000</speed>
</trkpt>
<trkpt lat="55.830006" lon="26.217472">
<ele>142.880981</ele>
<time>2010-07-17T12:41:35Z</time>
<desc>lat.=55.830006, lon.=26.217472, Alt.=142.880981m. Speed=0.756000m/h.</desc>
<speed>0.210000</speed>
</trkpt>
<trkpt lat="55.830009" lon="26.217472">
<ele>142.939575</ele>
<time>2010-07-17T12:41:36Z</time>
<desc>lat.=55.830009, lon.=26.217472, Alt.=142.939575m. Speed=0.720000m/h.</desc>
<speed>0.200000</speed>
</trkpt>
<trkpt lat="55.830009" lon="26.217470">
<ele>142.998169</ele>
<time>2010-07-17T12:41:37Z</time>
<desc>lat.=55.830009, lon.=26.217470, Alt.=142.998169m. Speed=0.684000m/h.</desc>
<speed>0.190000</speed>
</trkpt>
<trkpt lat="55.830013" lon="26.217472">
<ele>143.056763</ele>
<time>2010-07-17T12:41:38Z</time>
<desc>lat.=55.830013, lon.=26.217472, Alt.=143.056763m. Speed=1.188000m/h.</desc>
<speed>0.330000</speed>
</trkpt>
<trkpt lat="55.830013" lon="26.217478">
<ele>143.709106</ele>
<time>2010-07-17T12:41:39Z</time>
<desc>lat.=55.830013, lon.=26.217478, Alt.=143.709106m. Speed=1.116000m/h.</desc>
<speed>0.310000</speed>
</trkpt>
<trkpt lat="55.830009" lon="26.217491">
<ele>144.154419</ele>
<time>2010-07-17T12:41:40Z</time>
<desc>lat.=55.830009, lon.=26.217491, Alt.=144.154419m. Speed=0.936000m/h.</desc>
<speed>0.260000</speed>
</trkpt>
<trkpt lat="55.830009" lon="26.217499">
<ele>144.646606</ele>
<time>2010-07-17T12:41:41Z</time>
<desc>lat.=55.830009, lon.=26.217499, Alt.=144.646606m. Speed=0.720000m/h.</desc>
<speed>0.200000</speed>
</trkpt>
<trkpt lat="55.830009" lon="26.217503">
<ele>145.052856</ele>
<time>2010-07-17T12:41:42Z</time>
<desc>lat.=55.830009, lon.=26.217503, Alt.=145.052856m. Speed=0.792000m/h.</desc>
<speed>0.220000</speed>
</trkpt>
<trkpt lat="55.830006" lon="26.217505">
<ele>145.447388</ele>
<time>2010-07-17T12:41:43Z</time>
<desc>lat.=55.830006, lon.=26.217505, Alt.=145.447388m. Speed=0.720000m/h.</desc>
<speed>0.200000</speed>
</trkpt>
<trkpt lat="55.830009" lon="26.217506">
<ele>145.509888</ele>
<time>2010-07-17T12:41:44Z</time>
<desc>lat.=55.830009, lon.=26.217506, Alt.=145.509888m. Speed=0.756000m/h.</desc>
<speed>0.210000</speed>
</trkpt>
<trkpt lat="55.830009" lon="26.217510">
<ele>145.568481</ele>
<time>2010-07-17T12:41:45Z</time>
<desc>lat.=55.830009, lon.=26.217510, Alt.=145.568481m. Speed=0.756000m/h.</desc>
<speed>0.210000</speed>
</trkpt>
<trkpt lat="55.830009" lon="26.217514">
<ele>145.619263</ele>
<time>2010-07-17T12:41:46Z</time>
<desc>lat.=55.830009, lon.=26.217514, Alt.=145.619263m. Speed=1.080000m/h.</desc>
<speed>0.300000</speed>
</trkpt>
<trkpt lat="55.830006" lon="26.217512">
<ele>146.248169</ele>
<time>2010-07-17T12:41:47Z</time>
<desc>lat.=55.830006, lon.=26.217512, Alt.=146.248169m. Speed=0.936000m/h.</desc>
<speed>0.260000</speed>
</trkpt>
<trkpt lat="55.830006" lon="26.217516">
<ele>146.466919</ele>
<time>2010-07-17T12:41:48Z</time>
<desc>lat.=55.830006, lon.=26.217516, Alt.=146.466919m. Speed=0.504000m/h.</desc>
<speed>0.140000</speed>
</trkpt>
<trkpt lat="55.830002" lon="26.217510">
<ele>147.064575</ele>
<time>2010-07-17T12:41:49Z</time>
<desc>lat.=55.830002, lon.=26.217510, Alt.=147.064575m. Speed=0.396000m/h.</desc>
<speed>0.110000</speed>
</trkpt>
<trkpt lat="55.830002" lon="26.217512">
<ele>147.568481</ele>
<time>2010-07-17T12:41:50Z</time>
<desc>lat.=55.830002, lon.=26.217512, Alt.=147.568481m. Speed=0.180000m/h.</desc>
<speed>0.050000</speed>
</trkpt>
<trkpt lat="55.830002" lon="26.217510">
<ele>147.615356</ele>
<time>2010-07-17T12:41:51Z</time>
<desc>lat.=55.830002, lon.=26.217510, Alt.=147.615356m. Speed=0.504000m/h.</desc>
<speed>0.140000</speed>
</trkpt>
<trkpt lat="55.830002" lon="26.217510">
<ele>147.662231</ele>
<time>2010-07-17T12:41:52Z</time>
<desc>lat.=55.830002, lon.=26.217510, Alt.=147.662231m. Speed=0.684000m/h.</desc>
<speed>0.190000</speed>
</trkpt>
<trkpt lat="55.830006" lon="26.217510">
<ele>147.713013</ele>
<time>2010-07-17T12:41:53Z</time>
<desc>lat.=55.830006, lon.=26.217510, Alt.=147.713013m. Speed=0.864000m/h.</desc>
<speed>0.240000</speed>
</trkpt>
<trkpt lat="55.830006" lon="26.217508">
<ele>147.763794</ele>
<time>2010-07-17T12:41:54Z</time>
<desc>lat.=55.830006, lon.=26.217508, Alt.=147.763794m. Speed=0.720000m/h.</desc>
<speed>0.200000</speed>
</trkpt>
<trkpt lat="55.830009" lon="26.217506">
<ele>147.810669</ele>
<time>2010-07-17T12:41:55Z</time>
<desc>lat.=55.830009, lon.=26.217506, Alt.=147.810669m. Speed=1.224000m/h.</desc>
<speed>0.340000</speed>
</trkpt>
<trkpt lat="55.830013" lon="26.217512">
<ele>148.240356</ele>
<time>2010-07-17T12:41:56Z</time>
<desc>lat.=55.830013, lon.=26.217512, Alt.=148.240356m. Speed=1.080000m/h.</desc>
<speed>0.300000</speed>
</trkpt>
<trkpt lat="55.830009" lon="26.217510">
<ele>148.521606</ele>
<time>2010-07-17T12:41:57Z</time>
<desc>lat.=55.830009, lon.=26.217510, Alt.=148.521606m. Speed=1.008000m/h.</desc>
<speed>0.280000</speed>
</trkpt>
<trkpt lat="55.830009" lon="26.217514">
<ele>148.713013</ele>
<time>2010-07-17T12:41:58Z</time>
<desc>lat.=55.830009, lon.=26.217514, Alt.=148.713013m. Speed=0.576000m/h.</desc>
<speed>0.160000</speed>
</trkpt>
<trkpt lat="55.830006" lon="26.217512">
<ele>148.826294</ele>
<time>2010-07-17T12:41:59Z</time>
<desc>lat.=55.830006, lon.=26.217512, Alt.=148.826294m. Speed=0.180000m/h.</desc>
<speed>0.050000</speed>
</trkpt>
<trkpt lat="55.830009" lon="26.217510">
<ele>149.037231</ele>
<time>2010-07-17T12:42:00Z</time>
<desc>lat.=55.830009, lon.=26.217510, Alt.=149.037231m. Speed=1.152000m/h.</desc>
<speed>0.320000</speed>
</trkpt>
<trkpt lat="55.830013" lon="26.217512">
<ele>149.232544</ele>
<time>2010-07-17T12:42:01Z</time>
<desc>lat.=55.830013, lon.=26.217512, Alt.=149.232544m. Speed=1.440000m/h.</desc>
<speed>0.400000</speed>
</trkpt>
<trkpt lat="55.830017" lon="26.217514">
<ele>149.455200</ele>
<time>2010-07-17T12:42:02Z</time>
<desc>lat.=55.830017, lon.=26.217514, Alt.=149.455200m. Speed=1.620000m/h.</desc>
<speed>0.450000</speed>
</trkpt>
<trkpt lat="55.830017" lon="26.217520">
<ele>149.713013</ele>
<time>2010-07-17T12:42:03Z</time>
<desc>lat.=55.830017, lon.=26.217520, Alt.=149.713013m. Speed=0.900000m/h.</desc>
<speed>0.250000</speed>
</trkpt>
<trkpt lat="55.830013" lon="26.217527">
<ele>149.966919</ele>
<time>2010-07-17T12:42:04Z</time>
<desc>lat.=55.830013, lon.=26.217527, Alt.=149.966919m. Speed=0.576000m/h.</desc>
<speed>0.160000</speed>
</trkpt>
<trkpt lat="55.830009" lon="26.217531">
<ele>150.213013</ele>
<time>2010-07-17T12:42:05Z</time>
<desc>lat.=55.830009, lon.=26.217531, Alt.=150.213013m. Speed=0.576000m/h.</desc>
<speed>0.160000</speed>
</trkpt>
<trkpt lat="55.830009" lon="26.217533">
<ele>150.392700</ele>
<time>2010-07-17T12:42:06Z</time>
<desc>lat.=55.830009, lon.=26.217533, Alt.=150.392700m. Speed=0.468000m/h.</desc>
<speed>0.130000</speed>
</trkpt>
<trkpt lat="55.830006" lon="26.217533">
<ele>150.435669</ele>
<time>2010-07-17T12:42:07Z</time>
<desc>lat.=55.830006, lon.=26.217533, Alt.=150.435669m. Speed=0.360000m/h.</desc>
<speed>0.100000</speed>
</trkpt>
<trkpt lat="55.830006" lon="26.217535">
<ele>150.466919</ele>
<time>2010-07-17T12:42:08Z</time>
<desc>lat.=55.830006, lon.=26.217535, Alt.=150.466919m. Speed=0.792000m/h.</desc>
<speed>0.220000</speed>
</trkpt>
<trkpt lat="55.830006" lon="26.217537">
<ele>150.494263</ele>
<time>2010-07-17T12:42:09Z</time>
<desc>lat.=55.830006, lon.=26.217537, Alt.=150.494263m. Speed=0.432000m/h.</desc>
<speed>0.120000</speed>
</trkpt>
<trkpt lat="55.830002" lon="26.217537">
<ele>150.517700</ele>
<time>2010-07-17T12:42:10Z</time>
<desc>lat.=55.830002, lon.=26.217537, Alt.=150.517700m. Speed=0.432000m/h.</desc>
<speed>0.120000</speed>
</trkpt>
<trkpt lat="55.830002" lon="26.217539">
<ele>150.541138</ele>
<time>2010-07-17T12:42:11Z</time>
<desc>lat.=55.830002, lon.=26.217539, Alt.=150.541138m. Speed=0.684000m/h.</desc>
<speed>0.190000</speed>
</trkpt>
<trkpt lat="55.830002" lon="26.217541">
<ele>150.564575</ele>
<time>2010-07-17T12:42:12Z</time>
<desc>lat.=55.830002, lon.=26.217541, Alt.=150.564575m. Speed=0.720000m/h.</desc>
<speed>0.200000</speed>
</trkpt>
<trkpt lat="55.829998" lon="26.217543">
<ele>150.591919</ele>
<time>2010-07-17T12:42:13Z</time>
<desc>lat.=55.829998, lon.=26.217543, Alt.=150.591919m. Speed=0.432000m/h.</desc>
<speed>0.120000</speed>
</trkpt>
<trkpt lat="55.829998" lon="26.217543">
<ele>150.619263</ele>
<time>2010-07-17T12:42:14Z</time>
<desc>lat.=55.829998, lon.=26.217543, Alt.=150.619263m. Speed=0.360000m/h.</desc>
<speed>0.100000</speed>
</trkpt>
<trkpt lat="55.829998" lon="26.217543">
<ele>150.646606</ele>
<time>2010-07-17T12:42:15Z</time>
<desc>lat.=55.829998, lon.=26.217543, Alt.=150.646606m. Speed=0.216000m/h.</desc>
<speed>0.060000</speed>
</trkpt>
<trkpt lat="55.829998" lon="26.217541">
<ele>150.673950</ele>
<time>2010-07-17T12:42:16Z</time>
<desc>lat.=55.829998, lon.=26.217541, Alt.=150.673950m. Speed=0.252000m/h.</desc>
<speed>0.070000</speed>
</trkpt>
<trkpt lat="55.829998" lon="26.217541">
<ele>150.701294</ele>
<time>2010-07-17T12:42:17Z</time>
<desc>lat.=55.829998, lon.=26.217541, Alt.=150.701294m. Speed=0.684000m/h.</desc>
<speed>0.190000</speed>
</trkpt>
<trkpt lat="55.829994" lon="26.217539">
<ele>150.720825</ele>
<time>2010-07-17T12:42:18Z</time>
<desc>lat.=55.829994, lon.=26.217539, Alt.=150.720825m. Speed=1.404000m/h.</desc>
<speed>0.390000</speed>
</trkpt>
<trkpt lat="55.829994" lon="26.217529">
<ele>150.927856</ele>
<time>2010-07-17T12:42:19Z</time>
<desc>lat.=55.829994, lon.=26.217529, Alt.=150.927856m. Speed=1.008000m/h.</desc>
<speed>0.280000</speed>
</trkpt>
<trkpt lat="55.829998" lon="26.217520">
<ele>151.150513</ele>
<time>2010-07-17T12:42:20Z</time>
<desc>lat.=55.829998, lon.=26.217520, Alt.=151.150513m. Speed=0.972000m/h.</desc>
<speed>0.270000</speed>
</trkpt>
<trkpt lat="55.829998" lon="26.217514">
<ele>151.377075</ele>
<time>2010-07-17T12:42:21Z</time>
<desc>lat.=55.829998, lon.=26.217514, Alt.=151.377075m. Speed=0.720000m/h.</desc>
<speed>0.200000</speed>
</trkpt>
<trkpt lat="55.830002" lon="26.217510">
<ele>151.619263</ele>
<time>2010-07-17T12:42:22Z</time>
<desc>lat.=55.830002, lon.=26.217510, Alt.=151.619263m. Speed=0.612000m/h.</desc>
<speed>0.170000</speed>
</trkpt>
<trkpt lat="55.830002" lon="26.217508">
<ele>151.638794</ele>
<time>2010-07-17T12:42:23Z</time>
<desc>lat.=55.830002, lon.=26.217508, Alt.=151.638794m. Speed=0.180000m/h.</desc>
<speed>0.050000</speed>
</trkpt>
<trkpt lat="55.830002" lon="26.217510">
<ele>151.658325</ele>
<time>2010-07-17T12:42:24Z</time>
<desc>lat.=55.830002, lon.=26.217510, Alt.=151.658325m. Speed=0.216000m/h.</desc>
<speed>0.060000</speed>
</trkpt>
<trkpt lat="55.830002" lon="26.217510">
<ele>151.670044</ele>
<time>2010-07-17T12:42:25Z</time>
<desc>lat.=55.830002, lon.=26.217510, Alt.=151.670044m. Speed=0.396000m/h.</desc>
<speed>0.110000</speed>
</trkpt>
<trkpt lat="55.830002" lon="26.217508">
<ele>151.685669</ele>
<time>2010-07-17T12:42:26Z</time>
<desc>lat.=55.830002, lon.=26.217508, Alt.=151.685669m. Speed=0.504000m/h.</desc>
<speed>0.140000</speed>
</trkpt>
<trkpt lat="55.829998" lon="26.217506">
<ele>151.697388</ele>
<time>2010-07-17T12:42:27Z</time>
<desc>lat.=55.829998, lon.=26.217506, Alt.=151.697388m. Speed=0.540000m/h.</desc>
<speed>0.150000</speed>
</trkpt>
<trkpt lat="55.829998" lon="26.217508">
<ele>151.709106</ele>
<time>2010-07-17T12:42:28Z</time>
<desc>lat.=55.829998, lon.=26.217508, Alt.=151.709106m. Speed=0.504000m/h.</desc>
<speed>0.140000</speed>
</trkpt>
<trkpt lat="55.829998" lon="26.217510">
<ele>151.716919</ele>
<time>2010-07-17T12:42:29Z</time>
<desc>lat.=55.829998, lon.=26.217510, Alt.=151.716919m. Speed=1.152000m/h.</desc>
<speed>0.320000</speed>
</trkpt>
<trkpt lat="55.829994" lon="26.217503">
<ele>151.802856</ele>
<time>2010-07-17T12:42:30Z</time>
<desc>lat.=55.829994, lon.=26.217503, Alt.=151.802856m. Speed=1.116000m/h.</desc>
<speed>0.310000</speed>
</trkpt>
<trkpt lat="55.829990" lon="26.217489">
<ele>151.892700</ele>
<time>2010-07-17T12:42:31Z</time>
<desc>lat.=55.829990, lon.=26.217489, Alt.=151.892700m. Speed=1.116000m/h.</desc>
<speed>0.310000</speed>
</trkpt>
<trkpt lat="55.829994" lon="26.217487">
<ele>151.927856</ele>
<time>2010-07-17T12:42:32Z</time>
<desc>lat.=55.829994, lon.=26.217487, Alt.=151.927856m. Speed=0.576000m/h.</desc>
<speed>0.160000</speed>
</trkpt>
<trkpt lat="55.829990" lon="26.217485">
<ele>152.005981</ele>
<time>2010-07-17T12:42:33Z</time>
<desc>lat.=55.829990, lon.=26.217485, Alt.=152.005981m. Speed=0.360000m/h.</desc>
<speed>0.100000</speed>
</trkpt>
<trkpt lat="55.829994" lon="26.217480">
<ele>152.103638</ele>
<time>2010-07-17T12:42:34Z</time>
<desc>lat.=55.829994, lon.=26.217480, Alt.=152.103638m. Speed=0.756000m/h.</desc>
<speed>0.210000</speed>
</trkpt>
<trkpt lat="55.829998" lon="26.217478">
<ele>152.177856</ele>
<time>2010-07-17T12:42:35Z</time>
<desc>lat.=55.829998, lon.=26.217478, Alt.=152.177856m. Speed=1.296000m/h.</desc>
<speed>0.360000</speed>
</trkpt>
<trkpt lat="55.830002" lon="26.217474">
<ele>152.255981</ele>
<time>2010-07-17T12:42:36Z</time>
<desc>lat.=55.830002, lon.=26.217474, Alt.=152.255981m. Speed=1.116000m/h.</desc>
<speed>0.310000</speed>
</trkpt>
<trkpt lat="55.830002" lon="26.217470">
<ele>152.423950</ele>
<time>2010-07-17T12:42:37Z</time>
<desc>lat.=55.830002, lon.=26.217470, Alt.=152.423950m. Speed=0.504000m/h.</desc>
<speed>0.140000</speed>
</trkpt>
<trkpt lat="55.830002" lon="26.217472">
<ele>152.529419</ele>
<time>2010-07-17T12:42:38Z</time>
<desc>lat.=55.830002, lon.=26.217472, Alt.=152.529419m. Speed=0.108000m/h.</desc>
<speed>0.030000</speed>
</trkpt>
<trkpt lat="55.830009" lon="26.217476">
<ele>152.588013</ele>
<time>2010-07-17T12:42:39Z</time>
<desc>lat.=55.830009, lon.=26.217476, Alt.=152.588013m. Speed=0.468000m/h.</desc>
<speed>0.130000</speed>
</trkpt>
<trkpt lat="55.830009" lon="26.217478">
<ele>152.670044</ele>
<time>2010-07-17T12:42:40Z</time>
<desc>lat.=55.830009, lon.=26.217478, Alt.=152.670044m. Speed=0.288000m/h.</desc>
<speed>0.080000</speed>
</trkpt>
<trkpt lat="55.830006" lon="26.217478">
<ele>152.685669</ele>
<time>2010-07-17T12:42:41Z</time>
<desc>lat.=55.830006, lon.=26.217478, Alt.=152.685669m. Speed=0.468000m/h.</desc>
<speed>0.130000</speed>
</trkpt>
<trkpt lat="55.830006" lon="26.217476">
<ele>152.697388</ele>
<time>2010-07-17T12:42:42Z</time>
<desc>lat.=55.830006, lon.=26.217476, Alt.=152.697388m. Speed=0.576000m/h.</desc>
<speed>0.160000</speed>
</trkpt>
<trkpt lat="55.830006" lon="26.217476">
<ele>152.709106</ele>
<time>2010-07-17T12:42:43Z</time>
<desc>lat.=55.830006, lon.=26.217476, Alt.=152.709106m. Speed=0.252000m/h.</desc>
<speed>0.070000</speed>
</trkpt>
<trkpt lat="55.830006" lon="26.217474">
<ele>152.720825</ele>
<time>2010-07-17T12:42:44Z</time>
<desc>lat.=55.830006, lon.=26.217474, Alt.=152.720825m. Speed=0.576000m/h.</desc>
<speed>0.160000</speed>
</trkpt>
<trkpt lat="55.830006" lon="26.217476">
<ele>152.728638</ele>
<time>2010-07-17T12:42:45Z</time>
<desc>lat.=55.830006, lon.=26.217476, Alt.=152.728638m. Speed=0.432000m/h.</desc>
<speed>0.120000</speed>
</trkpt>
<trkpt lat="55.830006" lon="26.217478">
<ele>152.736450</ele>
<time>2010-07-17T12:42:46Z</time>
<desc>lat.=55.830006, lon.=26.217478, Alt.=152.736450m. Speed=0.324000m/h.</desc>
<speed>0.090000</speed>
</trkpt>
<trkpt lat="55.830006" lon="26.217480">
<ele>152.744263</ele>
<time>2010-07-17T12:42:47Z</time>
<desc>lat.=55.830006, lon.=26.217480, Alt.=152.744263m. Speed=0.540000m/h.</desc>
<speed>0.150000</speed>
</trkpt>
<trkpt lat="55.830009" lon="26.217482">
<ele>152.752075</ele>
<time>2010-07-17T12:42:48Z</time>
<desc>lat.=55.830009, lon.=26.217482, Alt.=152.752075m. Speed=0.360000m/h.</desc>
<speed>0.100000</speed>
</trkpt>
<trkpt lat="55.830009" lon="26.217480">
<ele>152.763794</ele>
<time>2010-07-17T12:42:49Z</time>
<desc>lat.=55.830009, lon.=26.217480, Alt.=152.763794m. Speed=0.540000m/h.</desc>
<speed>0.150000</speed>
</trkpt>
<trkpt lat="55.830009" lon="26.217480">
<ele>152.771606</ele>
<time>2010-07-17T12:42:50Z</time>
<desc>lat.=55.830009, lon.=26.217480, Alt.=152.771606m. Speed=0.684000m/h.</desc>
<speed>0.190000</speed>
</trkpt>
<trkpt lat="55.830013" lon="26.217480">
<ele>152.779419</ele>
<time>2010-07-17T12:42:51Z</time>
<desc>lat.=55.830013, lon.=26.217480, Alt.=152.779419m. Speed=1.116000m/h.</desc>
<speed>0.310000</speed>
</trkpt>
<trkpt lat="55.830009" lon="26.217478">
<ele>152.931763</ele>
<time>2010-07-17T12:42:52Z</time>
<desc>lat.=55.830009, lon.=26.217478, Alt.=152.931763m. Speed=0.828000m/h.</desc>
<speed>0.230000</speed>
</trkpt>
<trkpt lat="55.830009" lon="26.217478">
<ele>153.041138</ele>
<time>2010-07-17T12:42:53Z</time>
<desc>lat.=55.830009, lon.=26.217478, Alt.=153.041138m. Speed=0.936000m/h.</desc>
<speed>0.260000</speed>
</trkpt>
<trkpt lat="55.830006" lon="26.217484">
<ele>153.025513</ele>
<time>2010-07-17T12:42:54Z</time>
<desc>lat.=55.830006, lon.=26.217484, Alt.=153.025513m. Speed=0.792000m/h.</desc>
<speed>0.220000</speed>
</trkpt>
<trkpt lat="55.830006" lon="26.217480">
<ele>153.080200</ele>
<time>2010-07-17T12:42:55Z</time>
<desc>lat.=55.830006, lon.=26.217480, Alt.=153.080200m. Speed=0.252000m/h.</desc>
<speed>0.070000</speed>
</trkpt>
<trkpt lat="55.830006" lon="26.217482">
<ele>153.084106</ele>
<time>2010-07-17T12:42:56Z</time>
<desc>lat.=55.830006, lon.=26.217482, Alt.=153.084106m. Speed=0.252000m/h.</desc>
<speed>0.070000</speed>
</trkpt>
<trkpt lat="55.830006" lon="26.217482">
<ele>153.088013</ele>
<time>2010-07-17T12:42:57Z</time>
<desc>lat.=55.830006, lon.=26.217482, Alt.=153.088013m. Speed=0.828000m/h.</desc>
<speed>0.230000</speed>
</trkpt>
<trkpt lat="55.830002" lon="26.217484">
<ele>153.088013</ele>
<time>2010-07-17T12:42:58Z</time>
<desc>lat.=55.830002, lon.=26.217484, Alt.=153.088013m. Speed=0.468000m/h.</desc>
<speed>0.130000</speed>
</trkpt>
<trkpt lat="55.830002" lon="26.217485">
<ele>153.095825</ele>
<time>2010-07-17T12:42:59Z</time>
<desc>lat.=55.830002, lon.=26.217485, Alt.=153.095825m. Speed=0.792000m/h.</desc>
<speed>0.220000</speed>
</trkpt>
<trkpt lat="55.830002" lon="26.217487">
<ele>153.099731</ele>
<time>2010-07-17T12:43:00Z</time>
<desc>lat.=55.830002, lon.=26.217487, Alt.=153.099731m. Speed=0.576000m/h.</desc>
<speed>0.160000</speed>
</trkpt>
<trkpt lat="55.829998" lon="26.217489">
<ele>153.107544</ele>
<time>2010-07-17T12:43:01Z</time>
<desc>lat.=55.829998, lon.=26.217489, Alt.=153.107544m. Speed=0.396000m/h.</desc>
<speed>0.110000</speed>
</trkpt>
<trkpt lat="55.829998" lon="26.217491">
<ele>153.111450</ele>
<time>2010-07-17T12:43:02Z</time>
<desc>lat.=55.829998, lon.=26.217491, Alt.=153.111450m. Speed=0.612000m/h.</desc>
<speed>0.170000</speed>
</trkpt>
<trkpt lat="55.829998" lon="26.217487">
<ele>153.119263</ele>
<time>2010-07-17T12:43:03Z</time>
<desc>lat.=55.829998, lon.=26.217487, Alt.=153.119263m. Speed=0.972000m/h.</desc>
<speed>0.270000</speed>
</trkpt>
<trkpt lat="55.829998" lon="26.217484">
<ele>153.127075</ele>
<time>2010-07-17T12:43:04Z</time>
<desc>lat.=55.829998, lon.=26.217484, Alt.=153.127075m. Speed=0.216000m/h.</desc>
<speed>0.060000</speed>
</trkpt>
<trkpt lat="55.829998" lon="26.217484">
<ele>153.134888</ele>
<time>2010-07-17T12:43:05Z</time>
<desc>lat.=55.829998, lon.=26.217484, Alt.=153.134888m. Speed=0.396000m/h.</desc>
<speed>0.110000</speed>
</trkpt>
<trkpt lat="55.829998" lon="26.217484">
<ele>153.142700</ele>
<time>2010-07-17T12:43:06Z</time>
<desc>lat.=55.829998, lon.=26.217484, Alt.=153.142700m. Speed=0.540000m/h.</desc>
<speed>0.150000</speed>
</trkpt>
<trkpt lat="55.829998" lon="26.217487">
<ele>153.150513</ele>
<time>2010-07-17T12:43:07Z</time>
<desc>lat.=55.829998, lon.=26.217487, Alt.=153.150513m. Speed=0.540000m/h.</desc>
<speed>0.150000</speed>
</trkpt>
<trkpt lat="55.829998" lon="26.217487">
<ele>153.154419</ele>
<time>2010-07-17T12:43:08Z</time>
<desc>lat.=55.829998, lon.=26.217487, Alt.=153.154419m. Speed=1.116000m/h.</desc>
<speed>0.310000</speed>
</trkpt>
<trkpt lat="55.829998" lon="26.217489">
<ele>153.127075</ele>
<time>2010-07-17T12:43:09Z</time>
<desc>lat.=55.829998, lon.=26.217489, Alt.=153.127075m. Speed=0.792000m/h.</desc>
<speed>0.220000</speed>
</trkpt>
<trkpt lat="55.829998" lon="26.217489">
<ele>153.076294</ele>
<time>2010-07-17T12:43:10Z</time>
<desc>lat.=55.829998, lon.=26.217489, Alt.=153.076294m. Speed=0.684000m/h.</desc>
<speed>0.190000</speed>
</trkpt>
<trkpt lat="55.830002" lon="26.217495">
<ele>152.916138</ele>
<time>2010-07-17T12:43:11Z</time>
<desc>lat.=55.830002, lon.=26.217495, Alt.=152.916138m. Speed=0.756000m/h.</desc>
<speed>0.210000</speed>
</trkpt>
<trkpt lat="55.830006" lon="26.217487">
<ele>152.689575</ele>
<time>2010-07-17T12:43:12Z</time>
<desc>lat.=55.830006, lon.=26.217487, Alt.=152.689575m. Speed=0.432000m/h.</desc>
<speed>0.120000</speed>
</trkpt>
<trkpt lat="55.830006" lon="26.217487">
<ele>152.685669</ele>
<time>2010-07-17T12:43:13Z</time>
<desc>lat.=55.830006, lon.=26.217487, Alt.=152.685669m. Speed=0.252000m/h.</desc>
<speed>0.070000</speed>
</trkpt>
<trkpt lat="55.830006" lon="26.217485">
<ele>152.677856</ele>
<time>2010-07-17T12:43:14Z</time>
<desc>lat.=55.830006, lon.=26.217485, Alt.=152.677856m. Speed=0.288000m/h.</desc>
<speed>0.080000</speed>
</trkpt>
<trkpt lat="55.830006" lon="26.217485">
<ele>152.666138</ele>
<time>2010-07-17T12:43:15Z</time>
<desc>lat.=55.830006, lon.=26.217485, Alt.=152.666138m. Speed=0.504000m/h.</desc>
<speed>0.140000</speed>
</trkpt>
<trkpt lat="55.830006" lon="26.217484">
<ele>152.658325</ele>
<time>2010-07-17T12:43:16Z</time>
<desc>lat.=55.830006, lon.=26.217484, Alt.=152.658325m. Speed=0.396000m/h.</desc>
<speed>0.110000</speed>
</trkpt>
<trkpt lat="55.830006" lon="26.217485">
<ele>152.650513</ele>
<time>2010-07-17T12:43:17Z</time>
<desc>lat.=55.830006, lon.=26.217485, Alt.=152.650513m. Speed=0.216000m/h.</desc>
<speed>0.060000</speed>
</trkpt>
<trkpt lat="55.830006" lon="26.217485">
<ele>152.642700</ele>
<time>2010-07-17T12:43:18Z</time>
<desc>lat.=55.830006, lon.=26.217485, Alt.=152.642700m. Speed=0.432000m/h.</desc>
<speed>0.120000</speed>
</trkpt>
<trkpt lat="55.830006" lon="26.217485">
<ele>152.627075</ele>
<time>2010-07-17T12:43:19Z</time>
<desc>lat.=55.830006, lon.=26.217485, Alt.=152.627075m. Speed=0.684000m/h.</desc>
<speed>0.190000</speed>
</trkpt>
<trkpt lat="55.830006" lon="26.217484">
<ele>152.611450</ele>
<time>2010-07-17T12:43:20Z</time>
<desc>lat.=55.830006, lon.=26.217484, Alt.=152.611450m. Speed=0.576000m/h.</desc>
<speed>0.160000</speed>
</trkpt>
<trkpt lat="55.830002" lon="26.217480">
<ele>152.599731</ele>
<time>2010-07-17T12:43:21Z</time>
<desc>lat.=55.830002, lon.=26.217480, Alt.=152.599731m. Speed=0.612000m/h.</desc>
<speed>0.170000</speed>
</trkpt>
<trkpt lat="55.830002" lon="26.217480">
<ele>152.591919</ele>
<time>2010-07-17T12:43:22Z</time>
<desc>lat.=55.830002, lon.=26.217480, Alt.=152.591919m. Speed=0.396000m/h.</desc>
<speed>0.110000</speed>
</trkpt>
<trkpt lat="55.830002" lon="26.217478">
<ele>152.580200</ele>
<time>2010-07-17T12:43:23Z</time>
<desc>lat.=55.830002, lon.=26.217478, Alt.=152.580200m. Speed=0.252000m/h.</desc>
<speed>0.070000</speed>
</trkpt>
<trkpt lat="55.830002" lon="26.217478">
<ele>152.572388</ele>
<time>2010-07-17T12:43:24Z</time>
<desc>lat.=55.830002, lon.=26.217478, Alt.=152.572388m. Speed=0.792000m/h.</desc>
<speed>0.220000</speed>
</trkpt>
<trkpt lat="55.829998" lon="26.217480">
<ele>152.564575</ele>
<time>2010-07-17T12:43:25Z</time>
<desc>lat.=55.829998, lon.=26.217480, Alt.=152.564575m. Speed=0.540000m/h.</desc>
<speed>0.150000</speed>
</trkpt>
<trkpt lat="55.829998" lon="26.217482">
<ele>152.560669</ele>
<time>2010-07-17T12:43:26Z</time>
<desc>lat.=55.829998, lon.=26.217482, Alt.=152.560669m. Speed=0.684000m/h.</desc>
<speed>0.190000</speed>
</trkpt>
<trkpt lat="55.829998" lon="26.217485">
<ele>152.564575</ele>
<time>2010-07-17T12:43:27Z</time>
<desc>lat.=55.829998, lon.=26.217485, Alt.=152.564575m. Speed=0.504000m/h.</desc>
<speed>0.140000</speed>
</trkpt>
<trkpt lat="55.829998" lon="26.217487">
<ele>152.568481</ele>
<time>2010-07-17T12:43:28Z</time>
<desc>lat.=55.829998, lon.=26.217487, Alt.=152.568481m. Speed=0.684000m/h.</desc>
<speed>0.190000</speed>
</trkpt>
<trkpt lat="55.829998" lon="26.217491">
<ele>152.576294</ele>
<time>2010-07-17T12:43:29Z</time>
<desc>lat.=55.829998, lon.=26.217491, Alt.=152.576294m. Speed=0.900000m/h.</desc>
<speed>0.250000</speed>
</trkpt>
<trkpt lat="55.829998" lon="26.217493">
<ele>152.584106</ele>
<time>2010-07-17T12:43:30Z</time>
<desc>lat.=55.829998, lon.=26.217493, Alt.=152.584106m. Speed=0.432000m/h.</desc>
<speed>0.120000</speed>
</trkpt>
<trkpt lat="55.829998" lon="26.217495">
<ele>152.588013</ele>
<time>2010-07-17T12:43:31Z</time>
<desc>lat.=55.829998, lon.=26.217495, Alt.=152.588013m. Speed=0.216000m/h.</desc>
<speed>0.060000</speed>
</trkpt>
<trkpt lat="55.829998" lon="26.217495">
<ele>152.591919</ele>
<time>2010-07-17T12:43:32Z</time>
<desc>lat.=55.829998, lon.=26.217495, Alt.=152.591919m. Speed=0.396000m/h.</desc>
<speed>0.110000</speed>
</trkpt>
<trkpt lat="55.829998" lon="26.217493">
<ele>152.595825</ele>
<time>2010-07-17T12:43:33Z</time>
<desc>lat.=55.829998, lon.=26.217493, Alt.=152.595825m. Speed=0.756000m/h.</desc>
<speed>0.210000</speed>
</trkpt>
<trkpt lat="55.829998" lon="26.217491">
<ele>152.603638</ele>
<time>2010-07-17T12:43:34Z</time>
<desc>lat.=55.829998, lon.=26.217491, Alt.=152.603638m. Speed=0.792000m/h.</desc>
<speed>0.220000</speed>
</trkpt>
<trkpt lat="55.830002" lon="26.217489">
<ele>152.611450</ele>
<time>2010-07-17T12:43:35Z</time>
<desc>lat.=55.830002, lon.=26.217489, Alt.=152.611450m. Speed=0.180000m/h.</desc>
<speed>0.050000</speed>
</trkpt>
<trkpt lat="55.830002" lon="26.217489">
<ele>152.623169</ele>
<time>2010-07-17T12:43:36Z</time>
<desc>lat.=55.830002, lon.=26.217489, Alt.=152.623169m. Speed=0.144000m/h.</desc>
<speed>0.040000</speed>
</trkpt>
<trkpt lat="55.829998" lon="26.217489">
<ele>152.634888</ele>
<time>2010-07-17T12:43:37Z</time>
<desc>lat.=55.829998, lon.=26.217489, Alt.=152.634888m. Speed=0.504000m/h.</desc>
<speed>0.140000</speed>
</trkpt>
<trkpt lat="55.829998" lon="26.217487">
<ele>152.646606</ele>
<time>2010-07-17T12:43:38Z</time>
<desc>lat.=55.829998, lon.=26.217487, Alt.=152.646606m. Speed=0.144000m/h.</desc>
<speed>0.040000</speed>
</trkpt>
<trkpt lat="55.829998" lon="26.217487">
<ele>152.654419</ele>
<time>2010-07-17T12:43:39Z</time>
<desc>lat.=55.829998, lon.=26.217487, Alt.=152.654419m. Speed=0.576000m/h.</desc>
<speed>0.160000</speed>
</trkpt>
<trkpt lat="55.829998" lon="26.217489">
<ele>152.666138</ele>
<time>2010-07-17T12:43:40Z</time>
<desc>lat.=55.829998, lon.=26.217489, Alt.=152.666138m. Speed=0.180000m/h.</desc>
<speed>0.050000</speed>
</trkpt>
<trkpt lat="55.829998" lon="26.217489">
<ele>152.677856</ele>
<time>2010-07-17T12:43:41Z</time>
<desc>lat.=55.829998, lon.=26.217489, Alt.=152.677856m. Speed=0.180000m/h.</desc>
<speed>0.050000</speed>
</trkpt>
<trkpt lat="55.829998" lon="26.217489">
<ele>152.689575</ele>
<time>2010-07-17T12:43:42Z</time>
<desc>lat.=55.829998, lon.=26.217489, Alt.=152.689575m. Speed=0.540000m/h.</desc>
<speed>0.150000</speed>
</trkpt>
<trkpt lat="55.829994" lon="26.217491">
<ele>152.705200</ele>
<time>2010-07-17T12:43:43Z</time>
<desc>lat.=55.829994, lon.=26.217491, Alt.=152.705200m. Speed=0.396000m/h.</desc>
<speed>0.110000</speed>
</trkpt>
<trkpt lat="55.829994" lon="26.217491">
<ele>152.716919</ele>
<time>2010-07-17T12:43:44Z</time>
<desc>lat.=55.829994, lon.=26.217491, Alt.=152.716919m. Speed=0.828000m/h.</desc>
<speed>0.230000</speed>
</trkpt>
<trkpt lat="55.829990" lon="26.217493">
<ele>152.736450</ele>
<time>2010-07-17T12:43:45Z</time>
<desc>lat.=55.829990, lon.=26.217493, Alt.=152.736450m. Speed=0.540000m/h.</desc>
<speed>0.150000</speed>
</trkpt>
<trkpt lat="55.829990" lon="26.217493">
<ele>152.752075</ele>
<time>2010-07-17T12:43:46Z</time>
<desc>lat.=55.829990, lon.=26.217493, Alt.=152.752075m. Speed=0.612000m/h.</desc>
<speed>0.170000</speed>
</trkpt>
<trkpt lat="55.829990" lon="26.217491">
<ele>152.771606</ele>
<time>2010-07-17T12:43:47Z</time>
<desc>lat.=55.829990, lon.=26.217491, Alt.=152.771606m. Speed=0.000000m/h.</desc>
<speed>0.000000</speed>
</trkpt>
<trkpt lat="55.829990" lon="26.217491">
<ele>152.791138</ele>
<time>2010-07-17T12:43:48Z</time>
<desc>lat.=55.829990, lon.=26.217491, Alt.=152.791138m. Speed=0.612000m/h.</desc>
<speed>0.170000</speed>
</trkpt>
<trkpt lat="55.829987" lon="26.217489">
<ele>152.818481</ele>
<time>2010-07-17T12:43:49Z</time>
<desc>lat.=55.829987, lon.=26.217489, Alt.=152.818481m. Speed=0.540000m/h.</desc>
<speed>0.150000</speed>
</trkpt>
<trkpt lat="55.829987" lon="26.217487">
<ele>152.841919</ele>
<time>2010-07-17T12:43:50Z</time>
<desc>lat.=55.829987, lon.=26.217487, Alt.=152.841919m. Speed=0.324000m/h.</desc>
<speed>0.090000</speed>
</trkpt>
<trkpt lat="55.829990" lon="26.217487">
<ele>152.873169</ele>
<time>2010-07-17T12:43:51Z</time>
<desc>lat.=55.829990, lon.=26.217487, Alt.=152.873169m. Speed=0.540000m/h.</desc>
<speed>0.150000</speed>
</trkpt>
<trkpt lat="55.829990" lon="26.217489">
<ele>152.904419</ele>
<time>2010-07-17T12:43:52Z</time>
<desc>lat.=55.829990, lon.=26.217489, Alt.=152.904419m. Speed=0.324000m/h.</desc>
<speed>0.090000</speed>
</trkpt>
<trkpt lat="55.829990" lon="26.217491">
<ele>152.939575</ele>
<time>2010-07-17T12:43:53Z</time>
<desc>lat.=55.829990, lon.=26.217491, Alt.=152.939575m. Speed=0.252000m/h.</desc>
<speed>0.070000</speed>
</trkpt>
<trkpt lat="55.829990" lon="26.217489">
<ele>152.970825</ele>
<time>2010-07-17T12:43:54Z</time>
<desc>lat.=55.829990, lon.=26.217489, Alt.=152.970825m. Speed=0.792000m/h.</desc>
<speed>0.220000</speed>
</trkpt>
<trkpt lat="55.829990" lon="26.217493">
<ele>152.998169</ele>
<time>2010-07-17T12:43:55Z</time>
<desc>lat.=55.829990, lon.=26.217493, Alt.=152.998169m. Speed=0.864000m/h.</desc>
<speed>0.240000</speed>
</trkpt>
<trkpt lat="55.829987" lon="26.217495">
<ele>153.021606</ele>
<time>2010-07-17T12:43:56Z</time>
<desc>lat.=55.829987, lon.=26.217495, Alt.=153.021606m. Speed=1.188000m/h.</desc>
<speed>0.330000</speed>
</trkpt>
<trkpt lat="55.829975" lon="26.217506">
<ele>153.185669</ele>
<time>2010-07-17T12:43:57Z</time>
<desc>lat.=55.829975, lon.=26.217506, Alt.=153.185669m. Speed=1.656000m/h.</desc>
<speed>0.460000</speed>
</trkpt>
<trkpt lat="55.829967" lon="26.217520">
<ele>153.345825</ele>
<time>2010-07-17T12:43:58Z</time>
<desc>lat.=55.829967, lon.=26.217520, Alt.=153.345825m. Speed=2.016000m/h.</desc>
<speed>0.560000</speed>
</trkpt>
<trkpt lat="55.829967" lon="26.217518">
<ele>153.537231</ele>
<time>2010-07-17T12:43:59Z</time>
<desc>lat.=55.829967, lon.=26.217518, Alt.=153.537231m. Speed=1.368000m/h.</desc>
<speed>0.380000</speed>
</trkpt>
<trkpt lat="55.829964" lon="26.217510">
<ele>153.709106</ele>
<time>2010-07-17T12:44:00Z</time>
<desc>lat.=55.829964, lon.=26.217510, Alt.=153.709106m. Speed=1.080000m/h.</desc>
<speed>0.300000</speed>
</trkpt>
<trkpt lat="55.829960" lon="26.217506">
<ele>153.791138</ele>
<time>2010-07-17T12:44:01Z</time>
<desc>lat.=55.829960, lon.=26.217506, Alt.=153.791138m. Speed=1.008000m/h.</desc>
<speed>0.280000</speed>
</trkpt>
<trkpt lat="55.829964" lon="26.217499">
<ele>153.795044</ele>
<time>2010-07-17T12:44:02Z</time>
<desc>lat.=55.829964, lon.=26.217499, Alt.=153.795044m. Speed=0.036000m/h.</desc>
<speed>0.010000</speed>
</trkpt>
<trkpt lat="55.829964" lon="26.217501">
<ele>153.951294</ele>
<time>2010-07-17T12:44:03Z</time>
<desc>lat.=55.829964, lon.=26.217501, Alt.=153.951294m. Speed=0.576000m/h.</desc>
<speed>0.160000</speed>
</trkpt>
<trkpt lat="55.829956" lon="26.217508">
<ele>154.009888</ele>
<time>2010-07-17T12:44:04Z</time>
<desc>lat.=55.829956, lon.=26.217508, Alt.=154.009888m. Speed=1.008000m/h.</desc>
<speed>0.280000</speed>
</trkpt>
<trkpt lat="55.829956" lon="26.217512">
<ele>154.037231</ele>
<time>2010-07-17T12:44:05Z</time>
<desc>lat.=55.829956, lon.=26.217512, Alt.=154.037231m. Speed=1.224000m/h.</desc>
<speed>0.340000</speed>
</trkpt>
<trkpt lat="55.829952" lon="26.217508">
<ele>154.201294</ele>
<time>2010-07-17T12:44:06Z</time>
<desc>lat.=55.829952, lon.=26.217508, Alt.=154.201294m. Speed=1.332000m/h.</desc>
<speed>0.370000</speed>
</trkpt>
<trkpt lat="55.829948" lon="26.217501">
<ele>154.302856</ele>
<time>2010-07-17T12:44:07Z</time>
<desc>lat.=55.829948, lon.=26.217501, Alt.=154.302856m. Speed=0.612000m/h.</desc>
<speed>0.170000</speed>
</trkpt>
<trkpt lat="55.829945" lon="26.217491">
<ele>154.416138</ele>
<time>2010-07-17T12:44:08Z</time>
<desc>lat.=55.829945, lon.=26.217491, Alt.=154.416138m. Speed=0.792000m/h.</desc>
<speed>0.220000</speed>
</trkpt>
<trkpt lat="55.829945" lon="26.217476">
<ele>154.220825</ele>
<time>2010-07-17T12:44:09Z</time>
<desc>lat.=55.829945, lon.=26.217476, Alt.=154.220825m. Speed=0.792000m/h.</desc>
<speed>0.220000</speed>
</trkpt>
<trkpt lat="55.829941" lon="26.217468">
<ele>153.939575</ele>
<time>2010-07-17T12:44:10Z</time>
<desc>lat.=55.829941, lon.=26.217468, Alt.=153.939575m. Speed=1.296000m/h.</desc>
<speed>0.360000</speed>
</trkpt>
<trkpt lat="55.829937" lon="26.217470">
<ele>153.943481</ele>
<time>2010-07-17T12:44:11Z</time>
<desc>lat.=55.829937, lon.=26.217470, Alt.=153.943481m. Speed=1.728000m/h.</desc>
<speed>0.480000</speed>
</trkpt>
<trkpt lat="55.829933" lon="26.217476">
<ele>154.048950</ele>
<time>2010-07-17T12:44:12Z</time>
<desc>lat.=55.829933, lon.=26.217476, Alt.=154.048950m. Speed=1.800000m/h.</desc>
<speed>0.500000</speed>
</trkpt>
<trkpt lat="55.829929" lon="26.217476">
<ele>154.181763</ele>
<time>2010-07-17T12:44:13Z</time>
<desc>lat.=55.829929, lon.=26.217476, Alt.=154.181763m. Speed=1.476000m/h.</desc>
<speed>0.410000</speed>
</trkpt>
<trkpt lat="55.829929" lon="26.217484">
<ele>154.017700</ele>
<time>2010-07-17T12:44:14Z</time>
<desc>lat.=55.829929, lon.=26.217484, Alt.=154.017700m. Speed=1.548000m/h.</desc>
<speed>0.430000</speed>
</trkpt>
<trkpt lat="55.829929" lon="26.217491">
<ele>153.916138</ele>
<time>2010-07-17T12:44:15Z</time>
<desc>lat.=55.829929, lon.=26.217491, Alt.=153.916138m. Speed=1.404000m/h.</desc>
<speed>0.390000</speed>
</trkpt>
<trkpt lat="55.829933" lon="26.217491">
<ele>153.873169</ele>
<time>2010-07-17T12:44:16Z</time>
<desc>lat.=55.829933, lon.=26.217491, Alt.=153.873169m. Speed=1.332000m/h.</desc>
<speed>0.370000</speed>
</trkpt>
<trkpt lat="55.829933" lon="26.217482">
<ele>154.037231</ele>
<time>2010-07-17T12:44:17Z</time>
<desc>lat.=55.829933, lon.=26.217482, Alt.=154.037231m. Speed=1.512000m/h.</desc>
<speed>0.420000</speed>
</trkpt>
<trkpt lat="55.829933" lon="26.217480">
<ele>154.228638</ele>
<time>2010-07-17T12:44:18Z</time>
<desc>lat.=55.829933, lon.=26.217480, Alt.=154.228638m. Speed=1.080000m/h.</desc>
<speed>0.300000</speed>
</trkpt>
<trkpt lat="55.829937" lon="26.217470">
<ele>154.267700</ele>
<time>2010-07-17T12:44:19Z</time>
<desc>lat.=55.829937, lon.=26.217470, Alt.=154.267700m. Speed=0.792000m/h.</desc>
<speed>0.220000</speed>
</trkpt>
<trkpt lat="55.829937" lon="26.217470">
<ele>154.408325</ele>
<time>2010-07-17T12:44:20Z</time>
<desc>lat.=55.829937, lon.=26.217470, Alt.=154.408325m. Speed=1.116000m/h.</desc>
<speed>0.310000</speed>
</trkpt>
<trkpt lat="55.829941" lon="26.217464">
<ele>154.330200</ele>
<time>2010-07-17T12:44:21Z</time>
<desc>lat.=55.829941, lon.=26.217464, Alt.=154.330200m. Speed=0.864000m/h.</desc>
<speed>0.240000</speed>
</trkpt>
<trkpt lat="55.829941" lon="26.217466">
<ele>154.451294</ele>
<time>2010-07-17T12:44:22Z</time>
<desc>lat.=55.829941, lon.=26.217466, Alt.=154.451294m. Speed=0.612000m/h.</desc>
<speed>0.170000</speed>
</trkpt>
<trkpt lat="55.829945" lon="26.217459">
<ele>154.513794</ele>
<time>2010-07-17T12:44:23Z</time>
<desc>lat.=55.829945, lon.=26.217459, Alt.=154.513794m. Speed=0.864000m/h.</desc>
<speed>0.240000</speed>
</trkpt>
<trkpt lat="55.829948" lon="26.217451">
<ele>154.443481</ele>
<time>2010-07-17T12:44:24Z</time>
<desc>lat.=55.829948, lon.=26.217451, Alt.=154.443481m. Speed=0.324000m/h.</desc>
<speed>0.090000</speed>
</trkpt>
<trkpt lat="55.829952" lon="26.217451">
<ele>154.474731</ele>
<time>2010-07-17T12:44:25Z</time>
<desc>lat.=55.829952, lon.=26.217451, Alt.=154.474731m. Speed=0.504000m/h.</desc>
<speed>0.140000</speed>
</trkpt>
<trkpt lat="55.829952" lon="26.217451">
<ele>154.498169</ele>
<time>2010-07-17T12:44:26Z</time>
<desc>lat.=55.829952, lon.=26.217451, Alt.=154.498169m. Speed=0.648000m/h.</desc>
<speed>0.180000</speed>
</trkpt>
<trkpt lat="55.829952" lon="26.217449">
<ele>154.525513</ele>
<time>2010-07-17T12:44:27Z</time>
<desc>lat.=55.829952, lon.=26.217449, Alt.=154.525513m. Speed=1.152000m/h.</desc>
<speed>0.320000</speed>
</trkpt>
<trkpt lat="55.829952" lon="26.217447">
<ele>154.662231</ele>
<time>2010-07-17T12:44:28Z</time>
<desc>lat.=55.829952, lon.=26.217447, Alt.=154.662231m. Speed=0.324000m/h.</desc>
<speed>0.090000</speed>
</trkpt>
<trkpt lat="55.829952" lon="26.217447">
<ele>154.720825</ele>
<time>2010-07-17T12:44:29Z</time>
<desc>lat.=55.829952, lon.=26.217447, Alt.=154.720825m. Speed=0.432000m/h.</desc>
<speed>0.120000</speed>
</trkpt>
<trkpt lat="55.829952" lon="26.217442">
<ele>154.955200</ele>
<time>2010-07-17T12:44:30Z</time>
<desc>lat.=55.829952, lon.=26.217442, Alt.=154.955200m. Speed=0.324000m/h.</desc>
<speed>0.090000</speed>
</trkpt>
<trkpt lat="55.829952" lon="26.217442">
<ele>155.048950</ele>
<time>2010-07-17T12:44:31Z</time>
<desc>lat.=55.829952, lon.=26.217442, Alt.=155.048950m. Speed=0.720000m/h.</desc>
<speed>0.200000</speed>
</trkpt>
<trkpt lat="55.829948" lon="26.217443">
<ele>155.072388</ele>
<time>2010-07-17T12:44:32Z</time>
<desc>lat.=55.829948, lon.=26.217443, Alt.=155.072388m. Speed=0.180000m/h.</desc>
<speed>0.050000</speed>
</trkpt>
<trkpt lat="55.829948" lon="26.217443">
<ele>155.088013</ele>
<time>2010-07-17T12:44:33Z</time>
<desc>lat.=55.829948, lon.=26.217443, Alt.=155.088013m. Speed=0.324000m/h.</desc>
<speed>0.090000</speed>
</trkpt>
<trkpt lat="55.829948" lon="26.217445">
<ele>155.103638</ele>
<time>2010-07-17T12:44:34Z</time>
<desc>lat.=55.829948, lon.=26.217445, Alt.=155.103638m. Speed=0.684000m/h.</desc>
<speed>0.190000</speed>
</trkpt>
<trkpt lat="55.829948" lon="26.217445">
<ele>155.127075</ele>
<time>2010-07-17T12:44:35Z</time>
<desc>lat.=55.829948, lon.=26.217445, Alt.=155.127075m. Speed=0.720000m/h.</desc>
<speed>0.200000</speed>
</trkpt>
<trkpt lat="55.829945" lon="26.217447">
<ele>155.146606</ele>
<time>2010-07-17T12:44:36Z</time>
<desc>lat.=55.829945, lon.=26.217447, Alt.=155.146606m. Speed=0.432000m/h.</desc>
<speed>0.120000</speed>
</trkpt>
<trkpt lat="55.829945" lon="26.217449">
<ele>155.162231</ele>
<time>2010-07-17T12:44:37Z</time>
<desc>lat.=55.829945, lon.=26.217449, Alt.=155.162231m. Speed=0.612000m/h.</desc>
<speed>0.170000</speed>
</trkpt>
<trkpt lat="55.829945" lon="26.217451">
<ele>155.173950</ele>
<time>2010-07-17T12:44:38Z</time>
<desc>lat.=55.829945, lon.=26.217451, Alt.=155.173950m. Speed=0.864000m/h.</desc>
<speed>0.240000</speed>
</trkpt>
<trkpt lat="55.829945" lon="26.217455">
<ele>155.185669</ele>
<time>2010-07-17T12:44:39Z</time>
<desc>lat.=55.829945, lon.=26.217455, Alt.=155.185669m. Speed=0.612000m/h.</desc>
<speed>0.170000</speed>
</trkpt>
<trkpt lat="55.829941" lon="26.217457">
<ele>155.189575</ele>
<time>2010-07-17T12:44:40Z</time>
<desc>lat.=55.829941, lon.=26.217457, Alt.=155.189575m. Speed=0.432000m/h.</desc>
<speed>0.120000</speed>
</trkpt>
<trkpt lat="55.829941" lon="26.217459">
<ele>155.193481</ele>
<time>2010-07-17T12:44:41Z</time>
<desc>lat.=55.829941, lon.=26.217459, Alt.=155.193481m. Speed=0.612000m/h.</desc>
<speed>0.170000</speed>
</trkpt>
<trkpt lat="55.829941" lon="26.217463">
<ele>155.193481</ele>
<time>2010-07-17T12:44:42Z</time>
<desc>lat.=55.829941, lon.=26.217463, Alt.=155.193481m. Speed=0.360000m/h.</desc>
<speed>0.100000</speed>
</trkpt>
<trkpt lat="55.829941" lon="26.217464">
<ele>155.189575</ele>
<time>2010-07-17T12:44:43Z</time>
<desc>lat.=55.829941, lon.=26.217464, Alt.=155.189575m. Speed=0.180000m/h.</desc>
<speed>0.050000</speed>
</trkpt>
<trkpt lat="55.829941" lon="26.217464">
<ele>155.181763</ele>
<time>2010-07-17T12:44:44Z</time>
<desc>lat.=55.829941, lon.=26.217464, Alt.=155.181763m. Speed=0.792000m/h.</desc>
<speed>0.220000</speed>
</trkpt>
<trkpt lat="55.829941" lon="26.217468">
<ele>155.177856</ele>
<time>2010-07-17T12:44:45Z</time>
<desc>lat.=55.829941, lon.=26.217468, Alt.=155.177856m. Speed=1.116000m/h.</desc>
<speed>0.310000</speed>
</trkpt>
<trkpt lat="55.829945" lon="26.217464">
<ele>155.095825</ele>
<time>2010-07-17T12:44:46Z</time>
<desc>lat.=55.829945, lon.=26.217464, Alt.=155.095825m. Speed=0.540000m/h.</desc>
<speed>0.150000</speed>
</trkpt>
<trkpt lat="55.829945" lon="26.217468">
<ele>155.005981</ele>
<time>2010-07-17T12:44:47Z</time>
<desc>lat.=55.829945, lon.=26.217468, Alt.=155.005981m. Speed=0.360000m/h.</desc>
<speed>0.100000</speed>
</trkpt>
<trkpt lat="55.829948" lon="26.217466">
<ele>154.892700</ele>
<time>2010-07-17T12:44:48Z</time>
<desc>lat.=55.829948, lon.=26.217466, Alt.=154.892700m. Speed=0.504000m/h.</desc>
<speed>0.140000</speed>
</trkpt>
<trkpt lat="55.829952" lon="26.217466">
<ele>154.666138</ele>
<time>2010-07-17T12:44:49Z</time>
<desc>lat.=55.829952, lon.=26.217466, Alt.=154.666138m. Speed=1.116000m/h.</desc>
<speed>0.310000</speed>
</trkpt>
<trkpt lat="55.829952" lon="26.217461">
<ele>154.502075</ele>
<time>2010-07-17T12:44:50Z</time>
<desc>lat.=55.829952, lon.=26.217461, Alt.=154.502075m. Speed=0.108000m/h.</desc>
<speed>0.030000</speed>
</trkpt>
<trkpt lat="55.829948" lon="26.217459">
<ele>154.548950</ele>
<time>2010-07-17T12:44:51Z</time>
<desc>lat.=55.829948, lon.=26.217459, Alt.=154.548950m. Speed=0.324000m/h.</desc>
<speed>0.090000</speed>
</trkpt>
<trkpt lat="55.829948" lon="26.217455">
<ele>154.701294</ele>
<time>2010-07-17T12:44:52Z</time>
<desc>lat.=55.829948, lon.=26.217455, Alt.=154.701294m. Speed=0.252000m/h.</desc>
<speed>0.070000</speed>
</trkpt>
<trkpt lat="55.829952" lon="26.217455">
<ele>154.716919</ele>
<time>2010-07-17T12:44:53Z</time>
<desc>lat.=55.829952, lon.=26.217455, Alt.=154.716919m. Speed=0.504000m/h.</desc>
<speed>0.140000</speed>
</trkpt>
<trkpt lat="55.829952" lon="26.217453">
<ele>154.713013</ele>
<time>2010-07-17T12:44:54Z</time>
<desc>lat.=55.829952, lon.=26.217453, Alt.=154.713013m. Speed=1.044000m/h.</desc>
<speed>0.290000</speed>
</trkpt>
<trkpt lat="55.829952" lon="26.217449">
<ele>154.709106</ele>
<time>2010-07-17T12:44:55Z</time>
<desc>lat.=55.829952, lon.=26.217449, Alt.=154.709106m. Speed=0.612000m/h.</desc>
<speed>0.170000</speed>
</trkpt>
<trkpt lat="55.829952" lon="26.217445">
<ele>154.705200</ele>
<time>2010-07-17T12:44:56Z</time>
<desc>lat.=55.829952, lon.=26.217445, Alt.=154.705200m. Speed=0.288000m/h.</desc>
<speed>0.080000</speed>
</trkpt>
<trkpt lat="55.829948" lon="26.217445">
<ele>154.705200</ele>
<time>2010-07-17T12:44:57Z</time>
<desc>lat.=55.829948, lon.=26.217445, Alt.=154.705200m. Speed=0.972000m/h.</desc>
<speed>0.270000</speed>
</trkpt>
<trkpt lat="55.829952" lon="26.217442">
<ele>154.705200</ele>
<time>2010-07-17T12:44:58Z</time>
<desc>lat.=55.829952, lon.=26.217442, Alt.=154.705200m. Speed=1.620000m/h.</desc>
<speed>0.450000</speed>
</trkpt>
<trkpt lat="55.829948" lon="26.217447">
<ele>154.724731</ele>
<time>2010-07-17T12:44:59Z</time>
<desc>lat.=55.829948, lon.=26.217447, Alt.=154.724731m. Speed=1.332000m/h.</desc>
<speed>0.370000</speed>
</trkpt>
<trkpt lat="55.829952" lon="26.217445">
<ele>154.748169</ele>
<time>2010-07-17T12:45:00Z</time>
<desc>lat.=55.829952, lon.=26.217445, Alt.=154.748169m. Speed=1.404000m/h.</desc>
<speed>0.390000</speed>
</trkpt>
<trkpt lat="55.829952" lon="26.217442">
<ele>154.595825</ele>
<time>2010-07-17T12:45:01Z</time>
<desc>lat.=55.829952, lon.=26.217442, Alt.=154.595825m. Speed=1.152000m/h.</desc>
<speed>0.320000</speed>
</trkpt>
<trkpt lat="55.829948" lon="26.217434">
<ele>154.486450</ele>
<time>2010-07-17T12:45:02Z</time>
<desc>lat.=55.829948, lon.=26.217434, Alt.=154.486450m. Speed=1.080000m/h.</desc>
<speed>0.300000</speed>
</trkpt>
<trkpt lat="55.829948" lon="26.217434">
<ele>154.275513</ele>
<time>2010-07-17T12:45:03Z</time>
<desc>lat.=55.829948, lon.=26.217434, Alt.=154.275513m. Speed=0.468000m/h.</desc>
<speed>0.130000</speed>
</trkpt>
<trkpt lat="55.829941" lon="26.217442">
<ele>154.318481</ele>
<time>2010-07-17T12:45:04Z</time>
<desc>lat.=55.829941, lon.=26.217442, Alt.=154.318481m. Speed=0.576000m/h.</desc>
<speed>0.160000</speed>
</trkpt>
<trkpt lat="55.829933" lon="26.217438">
<ele>154.361450</ele>
<time>2010-07-17T12:45:05Z</time>
<desc>lat.=55.829933, lon.=26.217438, Alt.=154.361450m. Speed=0.576000m/h.</desc>
<speed>0.160000</speed>
</trkpt>
<trkpt lat="55.829929" lon="26.217438">
<ele>154.486450</ele>
<time>2010-07-17T12:45:06Z</time>
<desc>lat.=55.829929, lon.=26.217438, Alt.=154.486450m. Speed=0.828000m/h.</desc>
<speed>0.230000</speed>
</trkpt>
<trkpt lat="55.829926" lon="26.217436">
<ele>154.498169</ele>
<time>2010-07-17T12:45:07Z</time>
<desc>lat.=55.829926, lon.=26.217436, Alt.=154.498169m. Speed=0.792000m/h.</desc>
<speed>0.220000</speed>
</trkpt>
<trkpt lat="55.829926" lon="26.217432">
<ele>154.502075</ele>
<time>2010-07-17T12:45:08Z</time>
<desc>lat.=55.829926, lon.=26.217432, Alt.=154.502075m. Speed=0.540000m/h.</desc>
<speed>0.150000</speed>
</trkpt>
<trkpt lat="55.829926" lon="26.217432">
<ele>154.505981</ele>
<time>2010-07-17T12:45:09Z</time>
<desc>lat.=55.829926, lon.=26.217432, Alt.=154.505981m. Speed=0.180000m/h.</desc>
<speed>0.050000</speed>
</trkpt>
<trkpt lat="55.829922" lon="26.217430">
<ele>154.509888</ele>
<time>2010-07-17T12:45:10Z</time>
<desc>lat.=55.829922, lon.=26.217430, Alt.=154.509888m. Speed=0.720000m/h.</desc>
<speed>0.200000</speed>
</trkpt>
<trkpt lat="55.829926" lon="26.217432">
<ele>154.513794</ele>
<time>2010-07-17T12:45:11Z</time>
<desc>lat.=55.829926, lon.=26.217432, Alt.=154.513794m. Speed=0.936000m/h.</desc>
<speed>0.260000</speed>
</trkpt>
<trkpt lat="55.829926" lon="26.217432">
<ele>154.517700</ele>
<time>2010-07-17T12:45:12Z</time>
<desc>lat.=55.829926, lon.=26.217432, Alt.=154.517700m. Speed=0.792000m/h.</desc>
<speed>0.220000</speed>
</trkpt>
<trkpt lat="55.829929" lon="26.217432">
<ele>154.521606</ele>
<time>2010-07-17T12:45:13Z</time>
<desc>lat.=55.829929, lon.=26.217432, Alt.=154.521606m. Speed=0.756000m/h.</desc>
<speed>0.210000</speed>
</trkpt>
<trkpt lat="55.829929" lon="26.217434">
<ele>154.525513</ele>
<time>2010-07-17T12:45:14Z</time>
<desc>lat.=55.829929, lon.=26.217434, Alt.=154.525513m. Speed=0.864000m/h.</desc>
<speed>0.240000</speed>
</trkpt>
<trkpt lat="55.829933" lon="26.217436">
<ele>154.537231</ele>
<time>2010-07-17T12:45:15Z</time>
<desc>lat.=55.829933, lon.=26.217436, Alt.=154.537231m. Speed=0.684000m/h.</desc>
<speed>0.190000</speed>
</trkpt>
<trkpt lat="55.829933" lon="26.217434">
<ele>154.552856</ele>
<time>2010-07-17T12:45:16Z</time>
<desc>lat.=55.829933, lon.=26.217434, Alt.=154.552856m. Speed=0.648000m/h.</desc>
<speed>0.180000</speed>
</trkpt>
<trkpt lat="55.829937" lon="26.217434">
<ele>154.568481</ele>
<time>2010-07-17T12:45:17Z</time>
<desc>lat.=55.829937, lon.=26.217434, Alt.=154.568481m. Speed=0.396000m/h.</desc>
<speed>0.110000</speed>
</trkpt>
<trkpt lat="55.829937" lon="26.217432">
<ele>154.584106</ele>
<time>2010-07-17T12:45:18Z</time>
<desc>lat.=55.829937, lon.=26.217432, Alt.=154.584106m. Speed=0.180000m/h.</desc>
<speed>0.050000</speed>
</trkpt>
<trkpt lat="55.829933" lon="26.217432">
<ele>154.599731</ele>
<time>2010-07-17T12:45:19Z</time>
<desc>lat.=55.829933, lon.=26.217432, Alt.=154.599731m. Speed=0.288000m/h.</desc>
<speed>0.080000</speed>
</trkpt>
<trkpt lat="55.829933" lon="26.217432">
<ele>154.619263</ele>
<time>2010-07-17T12:45:20Z</time>
<desc>lat.=55.829933, lon.=26.217432, Alt.=154.619263m. Speed=0.540000m/h.</desc>
<speed>0.150000</speed>
</trkpt>
<trkpt lat="55.829933" lon="26.217430">
<ele>154.638794</ele>
<time>2010-07-17T12:45:21Z</time>
<desc>lat.=55.829933, lon.=26.217430, Alt.=154.638794m. Speed=0.756000m/h.</desc>
<speed>0.210000</speed>
</trkpt>
<trkpt lat="55.829933" lon="26.217428">
<ele>154.654419</ele>
<time>2010-07-17T12:45:22Z</time>
<desc>lat.=55.829933, lon.=26.217428, Alt.=154.654419m. Speed=0.576000m/h.</desc>
<speed>0.160000</speed>
</trkpt>
<trkpt lat="55.829929" lon="26.217426">
<ele>154.673950</ele>
<time>2010-07-17T12:45:23Z</time>
<desc>lat.=55.829929, lon.=26.217426, Alt.=154.673950m. Speed=0.252000m/h.</desc>
<speed>0.070000</speed>
</trkpt>
<trkpt lat="55.829929" lon="26.217426">
<ele>154.701294</ele>
<time>2010-07-17T12:45:24Z</time>
<desc>lat.=55.829929, lon.=26.217426, Alt.=154.701294m. Speed=0.540000m/h.</desc>
<speed>0.150000</speed>
</trkpt>
<trkpt lat="55.829929" lon="26.217424">
<ele>154.728638</ele>
<time>2010-07-17T12:45:25Z</time>
<desc>lat.=55.829929, lon.=26.217424, Alt.=154.728638m. Speed=0.396000m/h.</desc>
<speed>0.110000</speed>
</trkpt>
<trkpt lat="55.829933" lon="26.217422">
<ele>154.752075</ele>
<time>2010-07-17T12:45:26Z</time>
<desc>lat.=55.829933, lon.=26.217422, Alt.=154.752075m. Speed=0.324000m/h.</desc>
<speed>0.090000</speed>
</trkpt>
<trkpt lat="55.829933" lon="26.217421">
<ele>154.779419</ele>
<time>2010-07-17T12:45:27Z</time>
<desc>lat.=55.829933, lon.=26.217421, Alt.=154.779419m. Speed=0.576000m/h.</desc>
<speed>0.160000</speed>
</trkpt>
<trkpt lat="55.829933" lon="26.217419">
<ele>154.806763</ele>
<time>2010-07-17T12:45:28Z</time>
<desc>lat.=55.829933, lon.=26.217419, Alt.=154.806763m. Speed=0.936000m/h.</desc>
<speed>0.260000</speed>
</trkpt>
<trkpt lat="55.829933" lon="26.217415">
<ele>154.830200</ele>
<time>2010-07-17T12:45:29Z</time>
<desc>lat.=55.829933, lon.=26.217415, Alt.=154.830200m. Speed=0.324000m/h.</desc>
<speed>0.090000</speed>
</trkpt>
<trkpt lat="55.829933" lon="26.217415">
<ele>154.853638</ele>
<time>2010-07-17T12:45:30Z</time>
<desc>lat.=55.829933, lon.=26.217415, Alt.=154.853638m. Speed=0.612000m/h.</desc>
<speed>0.170000</speed>
</trkpt>
<trkpt lat="55.829933" lon="26.217411">
<ele>154.873169</ele>
<time>2010-07-17T12:45:31Z</time>
<desc>lat.=55.829933, lon.=26.217411, Alt.=154.873169m. Speed=0.684000m/h.</desc>
<speed>0.190000</speed>
</trkpt>
<trkpt lat="55.829937" lon="26.217411">
<ele>154.888794</ele>
<time>2010-07-17T12:45:32Z</time>
<desc>lat.=55.829937, lon.=26.217411, Alt.=154.888794m. Speed=1.080000m/h.</desc>
<speed>0.300000</speed>
</trkpt>
<trkpt lat="55.829941" lon="26.217409">
<ele>155.259888</ele>
<time>2010-07-17T12:45:33Z</time>
<desc>lat.=55.829941, lon.=26.217409, Alt.=155.259888m. Speed=1.260000m/h.</desc>
<speed>0.350000</speed>
</trkpt>
<trkpt lat="55.829952" lon="26.217403">
<ele>155.380981</ele>
<time>2010-07-17T12:45:34Z</time>
<desc>lat.=55.829952, lon.=26.217403, Alt.=155.380981m. Speed=1.296000m/h.</desc>
<speed>0.360000</speed>
</trkpt>
<trkpt lat="55.829952" lon="26.217398">
<ele>155.396606</ele>
<time>2010-07-17T12:45:35Z</time>
<desc>lat.=55.829952, lon.=26.217398, Alt.=155.396606m. Speed=0.936000m/h.</desc>
<speed>0.260000</speed>
</trkpt>
<trkpt lat="55.829952" lon="26.217400">
<ele>155.525513</ele>
<time>2010-07-17T12:45:36Z</time>
<desc>lat.=55.829952, lon.=26.217400, Alt.=155.525513m. Speed=0.396000m/h.</desc>
<speed>0.110000</speed>
</trkpt>
<trkpt lat="55.829956" lon="26.217407">
<ele>155.666138</ele>
<time>2010-07-17T12:45:37Z</time>
<desc>lat.=55.829956, lon.=26.217407, Alt.=155.666138m. Speed=0.648000m/h.</desc>
<speed>0.180000</speed>
</trkpt>
<trkpt lat="55.829960" lon="26.217407">
<ele>155.677856</ele>
<time>2010-07-17T12:45:38Z</time>
<desc>lat.=55.829960, lon.=26.217407, Alt.=155.677856m. Speed=0.360000m/h.</desc>
<speed>0.100000</speed>
</trkpt>
<trkpt lat="55.829960" lon="26.217409">
<ele>155.697388</ele>
<time>2010-07-17T12:45:39Z</time>
<desc>lat.=55.829960, lon.=26.217409, Alt.=155.697388m. Speed=0.540000m/h.</desc>
<speed>0.150000</speed>
</trkpt>
<trkpt lat="55.829960" lon="26.217409">
<ele>155.713013</ele>
<time>2010-07-17T12:45:40Z</time>
<desc>lat.=55.829960, lon.=26.217409, Alt.=155.713013m. Speed=0.396000m/h.</desc>
<speed>0.110000</speed>
</trkpt>
<trkpt lat="55.829960" lon="26.217409">
<ele>155.736450</ele>
<time>2010-07-17T12:45:41Z</time>
<desc>lat.=55.829960, lon.=26.217409, Alt.=155.736450m. Speed=0.360000m/h.</desc>
<speed>0.100000</speed>
</trkpt>
<trkpt lat="55.829964" lon="26.217409">
<ele>155.748169</ele>
<time>2010-07-17T12:45:42Z</time>
<desc>lat.=55.829964, lon.=26.217409, Alt.=155.748169m. Speed=0.576000m/h.</desc>
<speed>0.160000</speed>
</trkpt>
<trkpt lat="55.829964" lon="26.217407">
<ele>155.763794</ele>
<time>2010-07-17T12:45:43Z</time>
<desc>lat.=55.829964, lon.=26.217407, Alt.=155.763794m. Speed=0.900000m/h.</desc>
<speed>0.250000</speed>
</trkpt>
<trkpt lat="55.829967" lon="26.217407">
<ele>155.779419</ele>
<time>2010-07-17T12:45:44Z</time>
<desc>lat.=55.829967, lon.=26.217407, Alt.=155.779419m. Speed=0.396000m/h.</desc>
<speed>0.110000</speed>
</trkpt>
<trkpt lat="55.829967" lon="26.217405">
<ele>155.798950</ele>
<time>2010-07-17T12:45:45Z</time>
<desc>lat.=55.829967, lon.=26.217405, Alt.=155.798950m. Speed=0.396000m/h.</desc>
<speed>0.110000</speed>
</trkpt>
<trkpt lat="55.829967" lon="26.217405">
<ele>155.822388</ele>
<time>2010-07-17T12:45:46Z</time>
<desc>lat.=55.829967, lon.=26.217405, Alt.=155.822388m. Speed=0.864000m/h.</desc>
<speed>0.240000</speed>
</trkpt>
<trkpt lat="55.829971" lon="26.217405">
<ele>155.849731</ele>
<time>2010-07-17T12:45:47Z</time>
<desc>lat.=55.829971, lon.=26.217405, Alt.=155.849731m. Speed=1.080000m/h.</desc>
<speed>0.300000</speed>
</trkpt>
<trkpt lat="55.829975" lon="26.217402">
<ele>156.095825</ele>
<time>2010-07-17T12:45:48Z</time>
<desc>lat.=55.829975, lon.=26.217402, Alt.=156.095825m. Speed=0.864000m/h.</desc>
<speed>0.240000</speed>
</trkpt>
<trkpt lat="55.829979" lon="26.217394">
<ele>156.459106</ele>
<time>2010-07-17T12:45:49Z</time>
<desc>lat.=55.829979, lon.=26.217394, Alt.=156.459106m. Speed=0.864000m/h.</desc>
<speed>0.240000</speed>
</trkpt>
<trkpt lat="55.829983" lon="26.217386">
<ele>156.595825</ele>
<time>2010-07-17T12:45:50Z</time>
<desc>lat.=55.829983, lon.=26.217386, Alt.=156.595825m. Speed=0.792000m/h.</desc>
<speed>0.220000</speed>
</trkpt>
<trkpt lat="55.829979" lon="26.217375">
<ele>156.705200</ele>
<time>2010-07-17T12:45:51Z</time>
<desc>lat.=55.829979, lon.=26.217375, Alt.=156.705200m. Speed=0.288000m/h.</desc>
<speed>0.080000</speed>
</trkpt>
<trkpt lat="55.829979" lon="26.217373">
<ele>156.740356</ele>
<time>2010-07-17T12:45:52Z</time>
<desc>lat.=55.829979, lon.=26.217373, Alt.=156.740356m. Speed=0.576000m/h.</desc>
<speed>0.160000</speed>
</trkpt>
<trkpt lat="55.829979" lon="26.217375">
<ele>156.779419</ele>
<time>2010-07-17T12:45:53Z</time>
<desc>lat.=55.829979, lon.=26.217375, Alt.=156.779419m. Speed=0.792000m/h.</desc>
<speed>0.220000</speed>
</trkpt>
<trkpt lat="55.829983" lon="26.217377">
<ele>156.818481</ele>
<time>2010-07-17T12:45:54Z</time>
<desc>lat.=55.829983, lon.=26.217377, Alt.=156.818481m. Speed=0.792000m/h.</desc>
<speed>0.220000</speed>
</trkpt>
<trkpt lat="55.829983" lon="26.217377">
<ele>156.845825</ele>
<time>2010-07-17T12:45:55Z</time>
<desc>lat.=55.829983, lon.=26.217377, Alt.=156.845825m. Speed=1.188000m/h.</desc>
<speed>0.330000</speed>
</trkpt>
<trkpt lat="55.829983" lon="26.217363">
<ele>156.923950</ele>
<time>2010-07-17T12:45:56Z</time>
<desc>lat.=55.829983, lon.=26.217363, Alt.=156.923950m. Speed=0.720000m/h.</desc>
<speed>0.200000</speed>
</trkpt>
<trkpt lat="55.829987" lon="26.217348">
<ele>156.853638</ele>
<time>2010-07-17T12:45:57Z</time>
<desc>lat.=55.829987, lon.=26.217348, Alt.=156.853638m. Speed=1.440000m/h.</desc>
<speed>0.400000</speed>
</trkpt>
<trkpt lat="55.829987" lon="26.217339">
<ele>156.951294</ele>
<time>2010-07-17T12:45:58Z</time>
<desc>lat.=55.829987, lon.=26.217339, Alt.=156.951294m. Speed=1.008000m/h.</desc>
<speed>0.280000</speed>
</trkpt>
<trkpt lat="55.829983" lon="26.217342">
<ele>157.060669</ele>
<time>2010-07-17T12:45:59Z</time>
<desc>lat.=55.829983, lon.=26.217342, Alt.=157.060669m. Speed=0.072000m/h.</desc>
<speed>0.020000</speed>
</trkpt>
<trkpt lat="55.829979" lon="26.217342">
<ele>157.259888</ele>
<time>2010-07-17T12:46:00Z</time>
<desc>lat.=55.829979, lon.=26.217342, Alt.=157.259888m. Speed=0.576000m/h.</desc>
<speed>0.160000</speed>
</trkpt>
<trkpt lat="55.829983" lon="26.217344">
<ele>157.388794</ele>
<time>2010-07-17T12:46:01Z</time>
<desc>lat.=55.829983, lon.=26.217344, Alt.=157.388794m. Speed=0.360000m/h.</desc>
<speed>0.100000</speed>
</trkpt>
<trkpt lat="55.829979" lon="26.217346">
<ele>157.412231</ele>
<time>2010-07-17T12:46:02Z</time>
<desc>lat.=55.829979, lon.=26.217346, Alt.=157.412231m. Speed=0.180000m/h.</desc>
<speed>0.050000</speed>
</trkpt>
<trkpt lat="55.829979" lon="26.217346">
<ele>157.435669</ele>
<time>2010-07-17T12:46:03Z</time>
<desc>lat.=55.829979, lon.=26.217346, Alt.=157.435669m. Speed=0.288000m/h.</desc>
<speed>0.080000</speed>
</trkpt>
<trkpt lat="55.829983" lon="26.217346">
<ele>157.455200</ele>
<time>2010-07-17T12:46:04Z</time>
<desc>lat.=55.829983, lon.=26.217346, Alt.=157.455200m. Speed=1.476000m/h.</desc>
<speed>0.410000</speed>
</trkpt>
<trkpt lat="55.829990" lon="26.217350">
<ele>157.341919</ele>
<time>2010-07-17T12:46:05Z</time>
<desc>lat.=55.829990, lon.=26.217350, Alt.=157.341919m. Speed=1.944000m/h.</desc>
<speed>0.540000</speed>
</trkpt>
<trkpt lat="55.829994" lon="26.217356">
<ele>157.330200</ele>
<time>2010-07-17T12:46:06Z</time>
<desc>lat.=55.829994, lon.=26.217356, Alt.=157.330200m. Speed=1.260000m/h.</desc>
<speed>0.350000</speed>
</trkpt>
<trkpt lat="55.829998" lon="26.217354">
<ele>157.377075</ele>
<time>2010-07-17T12:46:07Z</time>
<desc>lat.=55.829998, lon.=26.217354, Alt.=157.377075m. Speed=1.296000m/h.</desc>
<speed>0.360000</speed>
</trkpt>
<trkpt lat="55.830002" lon="26.217356">
<ele>157.384888</ele>
<time>2010-07-17T12:46:08Z</time>
<desc>lat.=55.830002, lon.=26.217356, Alt.=157.384888m. Speed=1.260000m/h.</desc>
<speed>0.350000</speed>
</trkpt>
<trkpt lat="55.830013" lon="26.217361">
<ele>157.255981</ele>
<time>2010-07-17T12:46:09Z</time>
<desc>lat.=55.830013, lon.=26.217361, Alt.=157.255981m. Speed=1.404000m/h.</desc>
<speed>0.390000</speed>
</trkpt>
<trkpt lat="55.830021" lon="26.217365">
<ele>157.228638</ele>
<time>2010-07-17T12:46:10Z</time>
<desc>lat.=55.830021, lon.=26.217365, Alt.=157.228638m. Speed=1.728000m/h.</desc>
<speed>0.480000</speed>
</trkpt>
<trkpt lat="55.830029" lon="26.217375">
<ele>157.103638</ele>
<time>2010-07-17T12:46:11Z</time>
<desc>lat.=55.830029, lon.=26.217375, Alt.=157.103638m. Speed=0.936000m/h.</desc>
<speed>0.260000</speed>
</trkpt>
<trkpt lat="55.830025" lon="26.217381">
<ele>157.134888</ele>
<time>2010-07-17T12:46:12Z</time>
<desc>lat.=55.830025, lon.=26.217381, Alt.=157.134888m. Speed=0.504000m/h.</desc>
<speed>0.140000</speed>
</trkpt>
<trkpt lat="55.830029" lon="26.217384">
<ele>157.099731</ele>
<time>2010-07-17T12:46:13Z</time>
<desc>lat.=55.830029, lon.=26.217384, Alt.=157.099731m. Speed=0.540000m/h.</desc>
<speed>0.150000</speed>
</trkpt>
<trkpt lat="55.830032" lon="26.217388">
<ele>156.943481</ele>
<time>2010-07-17T12:46:14Z</time>
<desc>lat.=55.830032, lon.=26.217388, Alt.=156.943481m. Speed=0.612000m/h.</desc>
<speed>0.170000</speed>
</trkpt>
<trkpt lat="55.830036" lon="26.217386">
<ele>156.970825</ele>
<time>2010-07-17T12:46:15Z</time>
<desc>lat.=55.830036, lon.=26.217386, Alt.=156.970825m. Speed=0.864000m/h.</desc>
<speed>0.240000</speed>
</trkpt>
<trkpt lat="55.830036" lon="26.217390">
<ele>156.994263</ele>
<time>2010-07-17T12:46:16Z</time>
<desc>lat.=55.830036, lon.=26.217390, Alt.=156.994263m. Speed=0.864000m/h.</desc>
<speed>0.240000</speed>
</trkpt>
<trkpt lat="55.830036" lon="26.217394">
<ele>157.017700</ele>
<time>2010-07-17T12:46:17Z</time>
<desc>lat.=55.830036, lon.=26.217394, Alt.=157.017700m. Speed=0.396000m/h.</desc>
<speed>0.110000</speed>
</trkpt>
<trkpt lat="55.830040" lon="26.217396">
<ele>157.033325</ele>
<time>2010-07-17T12:46:18Z</time>
<desc>lat.=55.830040, lon.=26.217396, Alt.=157.033325m. Speed=0.864000m/h.</desc>
<speed>0.240000</speed>
</trkpt>
<trkpt lat="55.830040" lon="26.217398">
<ele>157.041138</ele>
<time>2010-07-17T12:46:19Z</time>
<desc>lat.=55.830040, lon.=26.217398, Alt.=157.041138m. Speed=0.756000m/h.</desc>
<speed>0.210000</speed>
</trkpt>
<trkpt lat="55.830040" lon="26.217400">
<ele>157.048950</ele>
<time>2010-07-17T12:46:20Z</time>
<desc>lat.=55.830040, lon.=26.217400, Alt.=157.048950m. Speed=0.900000m/h.</desc>
<speed>0.250000</speed>
</trkpt>
<trkpt lat="55.830044" lon="26.217400">
<ele>157.064575</ele>
<time>2010-07-17T12:46:21Z</time>
<desc>lat.=55.830044, lon.=26.217400, Alt.=157.064575m. Speed=1.044000m/h.</desc>
<speed>0.290000</speed>
</trkpt>
<trkpt lat="55.830048" lon="26.217403">
<ele>157.076294</ele>
<time>2010-07-17T12:46:22Z</time>
<desc>lat.=55.830048, lon.=26.217403, Alt.=157.076294m. Speed=0.540000m/h.</desc>
<speed>0.150000</speed>
</trkpt>
<trkpt lat="55.830048" lon="26.217403">
<ele>157.091919</ele>
<time>2010-07-17T12:46:23Z</time>
<desc>lat.=55.830048, lon.=26.217403, Alt.=157.091919m. Speed=0.432000m/h.</desc>
<speed>0.120000</speed>
</trkpt>
<trkpt lat="55.830048" lon="26.217405">
<ele>157.095825</ele>
<time>2010-07-17T12:46:24Z</time>
<desc>lat.=55.830048, lon.=26.217405, Alt.=157.095825m. Speed=0.792000m/h.</desc>
<speed>0.220000</speed>
</trkpt>
<trkpt lat="55.830048" lon="26.217407">
<ele>157.099731</ele>
<time>2010-07-17T12:46:25Z</time>
<desc>lat.=55.830048, lon.=26.217407, Alt.=157.099731m. Speed=0.108000m/h.</desc>
<speed>0.030000</speed>
</trkpt>
<trkpt lat="55.830048" lon="26.217407">
<ele>157.107544</ele>
<time>2010-07-17T12:46:26Z</time>
<desc>lat.=55.830048, lon.=26.217407, Alt.=157.107544m. Speed=0.540000m/h.</desc>
<speed>0.150000</speed>
</trkpt>
<trkpt lat="55.830048" lon="26.217409">
<ele>157.103638</ele>
<time>2010-07-17T12:46:27Z</time>
<desc>lat.=55.830048, lon.=26.217409, Alt.=157.103638m. Speed=0.252000m/h.</desc>
<speed>0.070000</speed>
</trkpt>
<trkpt lat="55.830048" lon="26.217409">
<ele>157.099731</ele>
<time>2010-07-17T12:46:28Z</time>
<desc>lat.=55.830048, lon.=26.217409, Alt.=157.099731m. Speed=0.180000m/h.</desc>
<speed>0.050000</speed>
</trkpt>
<trkpt lat="55.830048" lon="26.217409">
<ele>157.088013</ele>
<time>2010-07-17T12:46:29Z</time>
<desc>lat.=55.830048, lon.=26.217409, Alt.=157.088013m. Speed=0.360000m/h.</desc>
<speed>0.100000</speed>
</trkpt>
<trkpt lat="55.830048" lon="26.217407">
<ele>157.080200</ele>
<time>2010-07-17T12:46:30Z</time>
<desc>lat.=55.830048, lon.=26.217407, Alt.=157.080200m. Speed=0.504000m/h.</desc>
<speed>0.140000</speed>
</trkpt>
<trkpt lat="55.830048" lon="26.217405">
<ele>157.068481</ele>
<time>2010-07-17T12:46:31Z</time>
<desc>lat.=55.830048, lon.=26.217405, Alt.=157.068481m. Speed=0.144000m/h.</desc>
<speed>0.040000</speed>
</trkpt>
<trkpt lat="55.830048" lon="26.217405">
<ele>157.060669</ele>
<time>2010-07-17T12:46:32Z</time>
<desc>lat.=55.830048, lon.=26.217405, Alt.=157.060669m. Speed=0.108000m/h.</desc>
<speed>0.030000</speed>
</trkpt>
<trkpt lat="55.830048" lon="26.217403">
<ele>157.048950</ele>
<time>2010-07-17T12:46:33Z</time>
<desc>lat.=55.830048, lon.=26.217403, Alt.=157.048950m. Speed=0.648000m/h.</desc>
<speed>0.180000</speed>
</trkpt>
<trkpt lat="55.830048" lon="26.217402">
<ele>157.045044</ele>
<time>2010-07-17T12:46:34Z</time>
<desc>lat.=55.830048, lon.=26.217402, Alt.=157.045044m. Speed=0.900000m/h.</desc>
<speed>0.250000</speed>
</trkpt>
<trkpt lat="55.830051" lon="26.217400">
<ele>157.041138</ele>
<time>2010-07-17T12:46:35Z</time>
<desc>lat.=55.830051, lon.=26.217400, Alt.=157.041138m. Speed=1.440000m/h.</desc>
<speed>0.400000</speed>
</trkpt>
<trkpt lat="55.830059" lon="26.217392">
<ele>157.033325</ele>
<time>2010-07-17T12:46:36Z</time>
<desc>lat.=55.830059, lon.=26.217392, Alt.=157.033325m. Speed=1.836000m/h.</desc>
<speed>0.510000</speed>
</trkpt>
<trkpt lat="55.830059" lon="26.217392">
<ele>156.943481</ele>
<time>2010-07-17T12:46:37Z</time>
<desc>lat.=55.830059, lon.=26.217392, Alt.=156.943481m. Speed=0.720000m/h.</desc>
<speed>0.200000</speed>
</trkpt>
<trkpt lat="55.830055" lon="26.217407">
<ele>156.525513</ele>
<time>2010-07-17T12:46:38Z</time>
<desc>lat.=55.830055, lon.=26.217407, Alt.=156.525513m. Speed=1.368000m/h.</desc>
<speed>0.380000</speed>
</trkpt>
<trkpt lat="55.830048" lon="26.217424">
<ele>156.423950</ele>
<time>2010-07-17T12:46:39Z</time>
<desc>lat.=55.830048, lon.=26.217424, Alt.=156.423950m. Speed=2.448000m/h.</desc>
<speed>0.680000</speed>
</trkpt>
<trkpt lat="55.830040" lon="26.217442">
<ele>156.369263</ele>
<time>2010-07-17T12:46:40Z</time>
<desc>lat.=55.830040, lon.=26.217442, Alt.=156.369263m. Speed=3.780000m/h.</desc>
<speed>1.050000</speed>
</trkpt>
<trkpt lat="55.830036" lon="26.217451">
<ele>156.345825</ele>
<time>2010-07-17T12:46:41Z</time>
<desc>lat.=55.830036, lon.=26.217451, Alt.=156.345825m. Speed=3.600000m/h.</desc>
<speed>1.000000</speed>
</trkpt>
<trkpt lat="55.830032" lon="26.217464">
<ele>156.353638</ele>
<time>2010-07-17T12:46:42Z</time>
<desc>lat.=55.830032, lon.=26.217464, Alt.=156.353638m. Speed=2.556000m/h.</desc>
<speed>0.710000</speed>
</trkpt>
<trkpt lat="55.830032" lon="26.217451">
<ele>156.283325</ele>
<time>2010-07-17T12:46:43Z</time>
<desc>lat.=55.830032, lon.=26.217451, Alt.=156.283325m. Speed=1.548000m/h.</desc>
<speed>0.430000</speed>
</trkpt>
<trkpt lat="55.830036" lon="26.217438">
<ele>156.213013</ele>
<time>2010-07-17T12:46:44Z</time>
<desc>lat.=55.830036, lon.=26.217438, Alt.=156.213013m. Speed=0.828000m/h.</desc>
<speed>0.230000</speed>
</trkpt>
<trkpt lat="55.830040" lon="26.217424">
<ele>156.263794</ele>
<time>2010-07-17T12:46:45Z</time>
<desc>lat.=55.830040, lon.=26.217424, Alt.=156.263794m. Speed=0.612000m/h.</desc>
<speed>0.170000</speed>
</trkpt>
<trkpt lat="55.830036" lon="26.217409">
<ele>156.291138</ele>
<time>2010-07-17T12:46:46Z</time>
<desc>lat.=55.830036, lon.=26.217409, Alt.=156.291138m. Speed=1.368000m/h.</desc>
<speed>0.380000</speed>
</trkpt>
<trkpt lat="55.830040" lon="26.217398">
<ele>156.209106</ele>
<time>2010-07-17T12:46:47Z</time>
<desc>lat.=55.830040, lon.=26.217398, Alt.=156.209106m. Speed=0.864000m/h.</desc>
<speed>0.240000</speed>
</trkpt>
<trkpt lat="55.830040" lon="26.217396">
<ele>156.111450</ele>
<time>2010-07-17T12:46:48Z</time>
<desc>lat.=55.830040, lon.=26.217396, Alt.=156.111450m. Speed=0.180000m/h.</desc>
<speed>0.050000</speed>
</trkpt>
<trkpt lat="55.830036" lon="26.217398">
<ele>156.088013</ele>
<time>2010-07-17T12:46:49Z</time>
<desc>lat.=55.830036, lon.=26.217398, Alt.=156.088013m. Speed=0.612000m/h.</desc>
<speed>0.170000</speed>
</trkpt>
<trkpt lat="55.830032" lon="26.217394">
<ele>156.185669</ele>
<time>2010-07-17T12:46:50Z</time>
<desc>lat.=55.830032, lon.=26.217394, Alt.=156.185669m. Speed=0.720000m/h.</desc>
<speed>0.200000</speed>
</trkpt>
<trkpt lat="55.830032" lon="26.217396">
<ele>156.185669</ele>
<time>2010-07-17T12:46:51Z</time>
<desc>lat.=55.830032, lon.=26.217396, Alt.=156.185669m. Speed=0.648000m/h.</desc>
<speed>0.180000</speed>
</trkpt>
<trkpt lat="55.830032" lon="26.217398">
<ele>156.185669</ele>
<time>2010-07-17T12:46:52Z</time>
<desc>lat.=55.830032, lon.=26.217398, Alt.=156.185669m. Speed=0.072000m/h.</desc>
<speed>0.020000</speed>
</trkpt>
<trkpt lat="55.830032" lon="26.217398">
<ele>156.185669</ele>
<time>2010-07-17T12:46:53Z</time>
<desc>lat.=55.830032, lon.=26.217398, Alt.=156.185669m. Speed=0.108000m/h.</desc>
<speed>0.030000</speed>
</trkpt>
<trkpt lat="55.830032" lon="26.217398">
<ele>156.189575</ele>
<time>2010-07-17T12:46:54Z</time>
<desc>lat.=55.830032, lon.=26.217398, Alt.=156.189575m. Speed=0.360000m/h.</desc>
<speed>0.100000</speed>
</trkpt>
<trkpt lat="55.830032" lon="26.217398">
<ele>156.193481</ele>
<time>2010-07-17T12:46:55Z</time>
<desc>lat.=55.830032, lon.=26.217398, Alt.=156.193481m. Speed=0.180000m/h.</desc>
<speed>0.050000</speed>
</trkpt>
<trkpt lat="55.830032" lon="26.217400">
<ele>156.189575</ele>
<time>2010-07-17T12:46:56Z</time>
<desc>lat.=55.830032, lon.=26.217400, Alt.=156.189575m. Speed=0.216000m/h.</desc>
<speed>0.060000</speed>
</trkpt>
<trkpt lat="55.830032" lon="26.217398">
<ele>156.185669</ele>
<time>2010-07-17T12:46:57Z</time>
<desc>lat.=55.830032, lon.=26.217398, Alt.=156.185669m. Speed=0.504000m/h.</desc>
<speed>0.140000</speed>
</trkpt>
<trkpt lat="55.830032" lon="26.217396">
<ele>156.189575</ele>
<time>2010-07-17T12:46:58Z</time>
<desc>lat.=55.830032, lon.=26.217396, Alt.=156.189575m. Speed=1.476000m/h.</desc>
<speed>0.410000</speed>
</trkpt>
<trkpt lat="55.830025" lon="26.217402">
<ele>156.310669</ele>
<time>2010-07-17T12:46:59Z</time>
<desc>lat.=55.830025, lon.=26.217402, Alt.=156.310669m. Speed=1.080000m/h.</desc>
<speed>0.300000</speed>
</trkpt>
<trkpt lat="55.830021" lon="26.217407">
<ele>156.357544</ele>
<time>2010-07-17T12:47:00Z</time>
<desc>lat.=55.830021, lon.=26.217407, Alt.=156.357544m. Speed=0.792000m/h.</desc>
<speed>0.220000</speed>
</trkpt>
<trkpt lat="55.830025" lon="26.217409">
<ele>156.318481</ele>
<time>2010-07-17T12:47:01Z</time>
<desc>lat.=55.830025, lon.=26.217409, Alt.=156.318481m. Speed=0.900000m/h.</desc>
<speed>0.250000</speed>
</trkpt>
<trkpt lat="55.830025" lon="26.217405">
<ele>156.322388</ele>
<time>2010-07-17T12:47:02Z</time>
<desc>lat.=55.830025, lon.=26.217405, Alt.=156.322388m. Speed=1.044000m/h.</desc>
<speed>0.290000</speed>
</trkpt>
<trkpt lat="55.830025" lon="26.217407">
<ele>156.232544</ele>
<time>2010-07-17T12:47:03Z</time>
<desc>lat.=55.830025, lon.=26.217407, Alt.=156.232544m. Speed=0.756000m/h.</desc>
<speed>0.210000</speed>
</trkpt>
<trkpt lat="55.830021" lon="26.217403">
<ele>156.244263</ele>
<time>2010-07-17T12:47:04Z</time>
<desc>lat.=55.830021, lon.=26.217403, Alt.=156.244263m. Speed=0.288000m/h.</desc>
<speed>0.080000</speed>
</trkpt>
<trkpt lat="55.830021" lon="26.217403">
<ele>156.255981</ele>
<time>2010-07-17T12:47:05Z</time>
<desc>lat.=55.830021, lon.=26.217403, Alt.=156.255981m. Speed=0.432000m/h.</desc>
<speed>0.120000</speed>
</trkpt>
<trkpt lat="55.830021" lon="26.217403">
<ele>156.259888</ele>
<time>2010-07-17T12:47:06Z</time>
<desc>lat.=55.830021, lon.=26.217403, Alt.=156.259888m. Speed=0.468000m/h.</desc>
<speed>0.130000</speed>
</trkpt>
<trkpt lat="55.830021" lon="26.217405">
<ele>156.263794</ele>
<time>2010-07-17T12:47:07Z</time>
<desc>lat.=55.830021, lon.=26.217405, Alt.=156.263794m. Speed=0.396000m/h.</desc>
<speed>0.110000</speed>
</trkpt>
<trkpt lat="55.830021" lon="26.217407">
<ele>156.271606</ele>
<time>2010-07-17T12:47:08Z</time>
<desc>lat.=55.830021, lon.=26.217407, Alt.=156.271606m. Speed=0.252000m/h.</desc>
<speed>0.070000</speed>
</trkpt>
<trkpt lat="55.830021" lon="26.217405">
<ele>156.275513</ele>
<time>2010-07-17T12:47:09Z</time>
<desc>lat.=55.830021, lon.=26.217405, Alt.=156.275513m. Speed=0.468000m/h.</desc>
<speed>0.130000</speed>
</trkpt>
<trkpt lat="55.830017" lon="26.217405">
<ele>156.275513</ele>
<time>2010-07-17T12:47:10Z</time>
<desc>lat.=55.830017, lon.=26.217405, Alt.=156.275513m. Speed=0.756000m/h.</desc>
<speed>0.210000</speed>
</trkpt>
<trkpt lat="55.830017" lon="26.217402">
<ele>156.267700</ele>
<time>2010-07-17T12:47:11Z</time>
<desc>lat.=55.830017, lon.=26.217402, Alt.=156.267700m. Speed=1.440000m/h.</desc>
<speed>0.400000</speed>
</trkpt>
<trkpt lat="55.830009" lon="26.217409">
<ele>156.220825</ele>
<time>2010-07-17T12:47:12Z</time>
<desc>lat.=55.830009, lon.=26.217409, Alt.=156.220825m. Speed=1.872000m/h.</desc>
<speed>0.520000</speed>
</trkpt>
<trkpt lat="55.830006" lon="26.217426">
<ele>156.228638</ele>
<time>2010-07-17T12:47:13Z</time>
<desc>lat.=55.830006, lon.=26.217426, Alt.=156.228638m. Speed=1.080000m/h.</desc>
<speed>0.300000</speed>
</trkpt>
<trkpt lat="55.830006" lon="26.217438">
<ele>156.267700</ele>
<time>2010-07-17T12:47:14Z</time>
<desc>lat.=55.830006, lon.=26.217438, Alt.=156.267700m. Speed=0.612000m/h.</desc>
<speed>0.170000</speed>
</trkpt>
<trkpt lat="55.830006" lon="26.217443">
<ele>156.232544</ele>
<time>2010-07-17T12:47:15Z</time>
<desc>lat.=55.830006, lon.=26.217443, Alt.=156.232544m. Speed=0.684000m/h.</desc>
<speed>0.190000</speed>
</trkpt>
<trkpt lat="55.830009" lon="26.217447">
<ele>156.170044</ele>
<time>2010-07-17T12:47:16Z</time>
<desc>lat.=55.830009, lon.=26.217447, Alt.=156.170044m. Speed=0.504000m/h.</desc>
<speed>0.140000</speed>
</trkpt>
<trkpt lat="55.830013" lon="26.217447">
<ele>156.107544</ele>
<time>2010-07-17T12:47:17Z</time>
<desc>lat.=55.830013, lon.=26.217447, Alt.=156.107544m. Speed=0.432000m/h.</desc>
<speed>0.120000</speed>
</trkpt>
<trkpt lat="55.830013" lon="26.217449">
<ele>156.099731</ele>
<time>2010-07-17T12:47:18Z</time>
<desc>lat.=55.830013, lon.=26.217449, Alt.=156.099731m. Speed=0.756000m/h.</desc>
<speed>0.210000</speed>
</trkpt>
<trkpt lat="55.830013" lon="26.217449">
<ele>156.091919</ele>
<time>2010-07-17T12:47:19Z</time>
<desc>lat.=55.830013, lon.=26.217449, Alt.=156.091919m. Speed=0.936000m/h.</desc>
<speed>0.260000</speed>
</trkpt>
<trkpt lat="55.830013" lon="26.217453">
<ele>156.080200</ele>
<time>2010-07-17T12:47:20Z</time>
<desc>lat.=55.830013, lon.=26.217453, Alt.=156.080200m. Speed=1.008000m/h.</desc>
<speed>0.280000</speed>
</trkpt>
<trkpt lat="55.830009" lon="26.217457">
<ele>156.076294</ele>
<time>2010-07-17T12:47:21Z</time>
<desc>lat.=55.830009, lon.=26.217457, Alt.=156.076294m. Speed=0.864000m/h.</desc>
<speed>0.240000</speed>
</trkpt>
<trkpt lat="55.830009" lon="26.217459">
<ele>156.072388</ele>
<time>2010-07-17T12:47:22Z</time>
<desc>lat.=55.830009, lon.=26.217459, Alt.=156.072388m. Speed=0.360000m/h.</desc>
<speed>0.100000</speed>
</trkpt>
<trkpt lat="55.830009" lon="26.217461">
<ele>156.072388</ele>
<time>2010-07-17T12:47:23Z</time>
<desc>lat.=55.830009, lon.=26.217461, Alt.=156.072388m. Speed=0.252000m/h.</desc>
<speed>0.070000</speed>
</trkpt>
<trkpt lat="55.830009" lon="26.217461">
<ele>156.072388</ele>
<time>2010-07-17T12:47:24Z</time>
<desc>lat.=55.830009, lon.=26.217461, Alt.=156.072388m. Speed=0.360000m/h.</desc>
<speed>0.100000</speed>
</trkpt>
<trkpt lat="55.830009" lon="26.217459">
<ele>156.072388</ele>
<time>2010-07-17T12:47:25Z</time>
<desc>lat.=55.830009, lon.=26.217459, Alt.=156.072388m. Speed=0.792000m/h.</desc>
<speed>0.220000</speed>
</trkpt>
<trkpt lat="55.830009" lon="26.217457">
<ele>156.080200</ele>
<time>2010-07-17T12:47:26Z</time>
<desc>lat.=55.830009, lon.=26.217457, Alt.=156.080200m. Speed=1.188000m/h.</desc>
<speed>0.330000</speed>
</trkpt>
<trkpt lat="55.830017" lon="26.217447">
<ele>156.209106</ele>
<time>2010-07-17T12:47:27Z</time>
<desc>lat.=55.830017, lon.=26.217447, Alt.=156.209106m. Speed=1.188000m/h.</desc>
<speed>0.330000</speed>
</trkpt>
<trkpt lat="55.830021" lon="26.217447">
<ele>156.310669</ele>
<time>2010-07-17T12:47:28Z</time>
<desc>lat.=55.830021, lon.=26.217447, Alt.=156.310669m. Speed=0.756000m/h.</desc>
<speed>0.210000</speed>
</trkpt>
<trkpt lat="55.830021" lon="26.217443">
<ele>156.384888</ele>
<time>2010-07-17T12:47:29Z</time>
<desc>lat.=55.830021, lon.=26.217443, Alt.=156.384888m. Speed=0.792000m/h.</desc>
<speed>0.220000</speed>
</trkpt>
<trkpt lat="55.830021" lon="26.217438">
<ele>156.482544</ele>
<time>2010-07-17T12:47:30Z</time>
<desc>lat.=55.830021, lon.=26.217438, Alt.=156.482544m. Speed=0.180000m/h.</desc>
<speed>0.050000</speed>
</trkpt>
<trkpt lat="55.830025" lon="26.217432">
<ele>156.591919</ele>
<time>2010-07-17T12:47:31Z</time>
<desc>lat.=55.830025, lon.=26.217432, Alt.=156.591919m. Speed=0.432000m/h.</desc>
<speed>0.120000</speed>
</trkpt>
<trkpt lat="55.830025" lon="26.217430">
<ele>156.603638</ele>
<time>2010-07-17T12:47:32Z</time>
<desc>lat.=55.830025, lon.=26.217430, Alt.=156.603638m. Speed=0.432000m/h.</desc>
<speed>0.120000</speed>
</trkpt>
<trkpt lat="55.830025" lon="26.217428">
<ele>156.619263</ele>
<time>2010-07-17T12:47:33Z</time>
<desc>lat.=55.830025, lon.=26.217428, Alt.=156.619263m. Speed=0.504000m/h.</desc>
<speed>0.140000</speed>
</trkpt>
<trkpt lat="55.830025" lon="26.217426">
<ele>156.630981</ele>
<time>2010-07-17T12:47:34Z</time>
<desc>lat.=55.830025, lon.=26.217426, Alt.=156.630981m. Speed=0.360000m/h.</desc>
<speed>0.100000</speed>
</trkpt>
<trkpt lat="55.830025" lon="26.217424">
<ele>156.642700</ele>
<time>2010-07-17T12:47:35Z</time>
<desc>lat.=55.830025, lon.=26.217424, Alt.=156.642700m. Speed=0.756000m/h.</desc>
<speed>0.210000</speed>
</trkpt>
<trkpt lat="55.830025" lon="26.217422">
<ele>156.658325</ele>
<time>2010-07-17T12:47:36Z</time>
<desc>lat.=55.830025, lon.=26.217422, Alt.=156.658325m. Speed=0.900000m/h.</desc>
<speed>0.250000</speed>
</trkpt>
<trkpt lat="55.830021" lon="26.217421">
<ele>156.666138</ele>
<time>2010-07-17T12:47:37Z</time>
<desc>lat.=55.830021, lon.=26.217421, Alt.=156.666138m. Speed=0.864000m/h.</desc>
<speed>0.240000</speed>
</trkpt>
<trkpt lat="55.830021" lon="26.217421">
<ele>156.670044</ele>
<time>2010-07-17T12:47:38Z</time>
<desc>lat.=55.830021, lon.=26.217421, Alt.=156.670044m. Speed=0.396000m/h.</desc>
<speed>0.110000</speed>
</trkpt>
<trkpt lat="55.830017" lon="26.217421">
<ele>156.670044</ele>
<time>2010-07-17T12:47:39Z</time>
<desc>lat.=55.830017, lon.=26.217421, Alt.=156.670044m. Speed=0.108000m/h.</desc>
<speed>0.030000</speed>
</trkpt>
<trkpt lat="55.830017" lon="26.217421">
<ele>156.666138</ele>
<time>2010-07-17T12:47:40Z</time>
<desc>lat.=55.830017, lon.=26.217421, Alt.=156.666138m. Speed=0.216000m/h.</desc>
<speed>0.060000</speed>
</trkpt>
<trkpt lat="55.830017" lon="26.217422">
<ele>156.662231</ele>
<time>2010-07-17T12:47:41Z</time>
<desc>lat.=55.830017, lon.=26.217422, Alt.=156.662231m. Speed=0.684000m/h.</desc>
<speed>0.190000</speed>
</trkpt>
<trkpt lat="55.830021" lon="26.217422">
<ele>156.658325</ele>
<time>2010-07-17T12:47:42Z</time>
<desc>lat.=55.830021, lon.=26.217422, Alt.=156.658325m. Speed=0.288000m/h.</desc>
<speed>0.080000</speed>
</trkpt>
<trkpt lat="55.830021" lon="26.217421">
<ele>156.658325</ele>
<time>2010-07-17T12:47:43Z</time>
<desc>lat.=55.830021, lon.=26.217421, Alt.=156.658325m. Speed=0.432000m/h.</desc>
<speed>0.120000</speed>
</trkpt>
<trkpt lat="55.830021" lon="26.217422">
<ele>156.658325</ele>
<time>2010-07-17T12:47:44Z</time>
<desc>lat.=55.830021, lon.=26.217422, Alt.=156.658325m. Speed=0.288000m/h.</desc>
<speed>0.080000</speed>
</trkpt>
<trkpt lat="55.830021" lon="26.217422">
<ele>156.654419</ele>
<time>2010-07-17T12:47:45Z</time>
<desc>lat.=55.830021, lon.=26.217422, Alt.=156.654419m. Speed=0.468000m/h.</desc>
<speed>0.130000</speed>
</trkpt>
<trkpt lat="55.830021" lon="26.217421">
<ele>156.658325</ele>
<time>2010-07-17T12:47:46Z</time>
<desc>lat.=55.830021, lon.=26.217421, Alt.=156.658325m. Speed=1.008000m/h.</desc>
<speed>0.280000</speed>
</trkpt>
<trkpt lat="55.830021" lon="26.217417">
<ele>156.666138</ele>
<time>2010-07-17T12:47:47Z</time>
<desc>lat.=55.830021, lon.=26.217417, Alt.=156.666138m. Speed=0.648000m/h.</desc>
<speed>0.180000</speed>
</trkpt>
<trkpt lat="55.830021" lon="26.217415">
<ele>156.666138</ele>
<time>2010-07-17T12:47:48Z</time>
<desc>lat.=55.830021, lon.=26.217415, Alt.=156.666138m. Speed=1.080000m/h.</desc>
<speed>0.300000</speed>
</trkpt>
<trkpt lat="55.830017" lon="26.217415">
<ele>156.474731</ele>
<time>2010-07-17T12:47:49Z</time>
<desc>lat.=55.830017, lon.=26.217415, Alt.=156.474731m. Speed=1.044000m/h.</desc>
<speed>0.290000</speed>
</trkpt>
<trkpt lat="55.830017" lon="26.217413">
<ele>156.306763</ele>
<time>2010-07-17T12:47:50Z</time>
<desc>lat.=55.830017, lon.=26.217413, Alt.=156.306763m. Speed=0.360000m/h.</desc>
<speed>0.100000</speed>
</trkpt>
<trkpt lat="55.830017" lon="26.217403">
<ele>156.119263</ele>
<time>2010-07-17T12:47:51Z</time>
<desc>lat.=55.830017, lon.=26.217403, Alt.=156.119263m. Speed=0.684000m/h.</desc>
<speed>0.190000</speed>
</trkpt>
<trkpt lat="55.830017" lon="26.217398">
<ele>155.959106</ele>
<time>2010-07-17T12:47:52Z</time>
<desc>lat.=55.830017, lon.=26.217398, Alt.=155.959106m. Speed=0.504000m/h.</desc>
<speed>0.140000</speed>
</trkpt>
<trkpt lat="55.830017" lon="26.217396">
<ele>155.955200</ele>
<time>2010-07-17T12:47:53Z</time>
<desc>lat.=55.830017, lon.=26.217396, Alt.=155.955200m. Speed=0.432000m/h.</desc>
<speed>0.120000</speed>
</trkpt>
<trkpt lat="55.830017" lon="26.217394">
<ele>155.951294</ele>
<time>2010-07-17T12:47:54Z</time>
<desc>lat.=55.830017, lon.=26.217394, Alt.=155.951294m. Speed=0.504000m/h.</desc>
<speed>0.140000</speed>
</trkpt>
<trkpt lat="55.830017" lon="26.217392">
<ele>155.943481</ele>
<time>2010-07-17T12:47:55Z</time>
<desc>lat.=55.830017, lon.=26.217392, Alt.=155.943481m. Speed=0.144000m/h.</desc>
<speed>0.040000</speed>
</trkpt>
<trkpt lat="55.830017" lon="26.217390">
<ele>155.947388</ele>
<time>2010-07-17T12:47:56Z</time>
<desc>lat.=55.830017, lon.=26.217390, Alt.=155.947388m. Speed=0.648000m/h.</desc>
<speed>0.180000</speed>
</trkpt>
<trkpt lat="55.830017" lon="26.217388">
<ele>155.947388</ele>
<time>2010-07-17T12:47:57Z</time>
<desc>lat.=55.830017, lon.=26.217388, Alt.=155.947388m. Speed=0.900000m/h.</desc>
<speed>0.250000</speed>
</trkpt>
<trkpt lat="55.830017" lon="26.217386">
<ele>155.955200</ele>
<time>2010-07-17T12:47:58Z</time>
<desc>lat.=55.830017, lon.=26.217386, Alt.=155.955200m. Speed=1.512000m/h.</desc>
<speed>0.420000</speed>
</trkpt>
<trkpt lat="55.830017" lon="26.217371">
<ele>155.986450</ele>
<time>2010-07-17T12:47:59Z</time>
<desc>lat.=55.830017, lon.=26.217371, Alt.=155.986450m. Speed=1.260000m/h.</desc>
<speed>0.350000</speed>
</trkpt>
<trkpt lat="55.830013" lon="26.217363">
<ele>156.068481</ele>
<time>2010-07-17T12:48:00Z</time>
<desc>lat.=55.830013, lon.=26.217363, Alt.=156.068481m. Speed=0.756000m/h.</desc>
<speed>0.210000</speed>
</trkpt>
<trkpt lat="55.830009" lon="26.217363">
<ele>156.084106</ele>
<time>2010-07-17T12:48:01Z</time>
<desc>lat.=55.830009, lon.=26.217363, Alt.=156.084106m. Speed=0.576000m/h.</desc>
<speed>0.160000</speed>
</trkpt>
<trkpt lat="55.830006" lon="26.217367">
<ele>156.076294</ele>
<time>2010-07-17T12:48:02Z</time>
<desc>lat.=55.830006, lon.=26.217367, Alt.=156.076294m. Speed=0.720000m/h.</desc>
<speed>0.200000</speed>
</trkpt>
<trkpt lat="55.830002" lon="26.217367">
<ele>156.216919</ele>
<time>2010-07-17T12:48:03Z</time>
<desc>lat.=55.830002, lon.=26.217367, Alt.=156.216919m. Speed=0.648000m/h.</desc>
<speed>0.180000</speed>
</trkpt>
<trkpt lat="55.830002" lon="26.217369">
<ele>156.236450</ele>
<time>2010-07-17T12:48:04Z</time>
<desc>lat.=55.830002, lon.=26.217369, Alt.=156.236450m. Speed=0.576000m/h.</desc>
<speed>0.160000</speed>
</trkpt>
<trkpt lat="55.830002" lon="26.217371">
<ele>156.255981</ele>
<time>2010-07-17T12:48:05Z</time>
<desc>lat.=55.830002, lon.=26.217371, Alt.=156.255981m. Speed=0.792000m/h.</desc>
<speed>0.220000</speed>
</trkpt>
<trkpt lat="55.830002" lon="26.217375">
<ele>156.275513</ele>
<time>2010-07-17T12:48:06Z</time>
<desc>lat.=55.830002, lon.=26.217375, Alt.=156.275513m. Speed=1.260000m/h.</desc>
<speed>0.350000</speed>
</trkpt>
<trkpt lat="55.830006" lon="26.217386">
<ele>156.357544</ele>
<time>2010-07-17T12:48:07Z</time>
<desc>lat.=55.830006, lon.=26.217386, Alt.=156.357544m. Speed=1.440000m/h.</desc>
<speed>0.400000</speed>
</trkpt>
<trkpt lat="55.830006" lon="26.217382">
<ele>156.517700</ele>
<time>2010-07-17T12:48:08Z</time>
<desc>lat.=55.830006, lon.=26.217382, Alt.=156.517700m. Speed=0.432000m/h.</desc>
<speed>0.120000</speed>
</trkpt>
<trkpt lat="55.830002" lon="26.217390">
<ele>156.630981</ele>
<time>2010-07-17T12:48:09Z</time>
<desc>lat.=55.830002, lon.=26.217390, Alt.=156.630981m. Speed=1.008000m/h.</desc>
<speed>0.280000</speed>
</trkpt>
<trkpt lat="55.829994" lon="26.217390">
<ele>156.755981</ele>
<time>2010-07-17T12:48:10Z</time>
<desc>lat.=55.829994, lon.=26.217390, Alt.=156.755981m. Speed=1.044000m/h.</desc>
<speed>0.290000</speed>
</trkpt>
<trkpt lat="55.829990" lon="26.217384">
<ele>157.009888</ele>
<time>2010-07-17T12:48:11Z</time>
<desc>lat.=55.829990, lon.=26.217384, Alt.=157.009888m. Speed=0.648000m/h.</desc>
<speed>0.180000</speed>
</trkpt>
<trkpt lat="55.829990" lon="26.217386">
<ele>157.033325</ele>
<time>2010-07-17T12:48:12Z</time>
<desc>lat.=55.829990, lon.=26.217386, Alt.=157.033325m. Speed=0.108000m/h.</desc>
<speed>0.030000</speed>
</trkpt>
<trkpt lat="55.829990" lon="26.217386">
<ele>157.052856</ele>
<time>2010-07-17T12:48:13Z</time>
<desc>lat.=55.829990, lon.=26.217386, Alt.=157.052856m. Speed=0.216000m/h.</desc>
<speed>0.060000</speed>
</trkpt>
<trkpt lat="55.829990" lon="26.217386">
<ele>157.076294</ele>
<time>2010-07-17T12:48:14Z</time>
<desc>lat.=55.829990, lon.=26.217386, Alt.=157.076294m. Speed=0.576000m/h.</desc>
<speed>0.160000</speed>
</trkpt>
<trkpt lat="55.829990" lon="26.217386">
<ele>157.099731</ele>
<time>2010-07-17T12:48:15Z</time>
<desc>lat.=55.829990, lon.=26.217386, Alt.=157.099731m. Speed=1.476000m/h.</desc>
<speed>0.410000</speed>
</trkpt>
<trkpt lat="55.829994" lon="26.217394">
<ele>157.255981</ele>
<time>2010-07-17T12:48:16Z</time>
<desc>lat.=55.829994, lon.=26.217394, Alt.=157.255981m. Speed=1.332000m/h.</desc>
<speed>0.370000</speed>
</trkpt>
<trkpt lat="55.829998" lon="26.217403">
<ele>157.353638</ele>
<time>2010-07-17T12:48:17Z</time>
<desc>lat.=55.829998, lon.=26.217403, Alt.=157.353638m. Speed=0.864000m/h.</desc>
<speed>0.240000</speed>
</trkpt>
<trkpt lat="55.830006" lon="26.217422">
<ele>157.552856</ele>
<time>2010-07-17T12:48:18Z</time>
<desc>lat.=55.830006, lon.=26.217422, Alt.=157.552856m. Speed=1.116000m/h.</desc>
<speed>0.310000</speed>
</trkpt>
<trkpt lat="55.830013" lon="26.217443">
<ele>157.955200</ele>
<time>2010-07-17T12:48:19Z</time>
<desc>lat.=55.830013, lon.=26.217443, Alt.=157.955200m. Speed=0.720000m/h.</desc>
<speed>0.200000</speed>
</trkpt>
<trkpt lat="55.830025" lon="26.217451">
<ele>158.138794</ele>
<time>2010-07-17T12:48:20Z</time>
<desc>lat.=55.830025, lon.=26.217451, Alt.=158.138794m. Speed=1.008000m/h.</desc>
<speed>0.280000</speed>
</trkpt>
<trkpt lat="55.830040" lon="26.217457">
<ele>158.513794</ele>
<time>2010-07-17T12:48:21Z</time>
<desc>lat.=55.830040, lon.=26.217457, Alt.=158.513794m. Speed=2.088000m/h.</desc>
<speed>0.580000</speed>
</trkpt>
<trkpt lat="55.830051" lon="26.217463">
<ele>158.923950</ele>
<time>2010-07-17T12:48:22Z</time>
<desc>lat.=55.830051, lon.=26.217463, Alt.=158.923950m. Speed=2.628000m/h.</desc>
<speed>0.730000</speed>
</trkpt>
<trkpt lat="55.830059" lon="26.217470">
<ele>159.185669</ele>
<time>2010-07-17T12:48:23Z</time>
<desc>lat.=55.830059, lon.=26.217470, Alt.=159.185669m. Speed=2.016000m/h.</desc>
<speed>0.560000</speed>
</trkpt>
<trkpt lat="55.830070" lon="26.217484">
<ele>159.404419</ele>
<time>2010-07-17T12:48:24Z</time>
<desc>lat.=55.830070, lon.=26.217484, Alt.=159.404419m. Speed=2.052000m/h.</desc>
<speed>0.570000</speed>
</trkpt>
<trkpt lat="55.830074" lon="26.217493">
<ele>159.849731</ele>
<time>2010-07-17T12:48:25Z</time>
<desc>lat.=55.830074, lon.=26.217493, Alt.=159.849731m. Speed=1.296000m/h.</desc>
<speed>0.360000</speed>
</trkpt>
<trkpt lat="55.830074" lon="26.217501">
<ele>160.162231</ele>
<time>2010-07-17T12:48:26Z</time>
<desc>lat.=55.830074, lon.=26.217501, Alt.=160.162231m. Speed=0.900000m/h.</desc>
<speed>0.250000</speed>
</trkpt>
<trkpt lat="55.830078" lon="26.217514">
<ele>160.318481</ele>
<time>2010-07-17T12:48:27Z</time>
<desc>lat.=55.830078, lon.=26.217514, Alt.=160.318481m. Speed=0.684000m/h.</desc>
<speed>0.190000</speed>
</trkpt>
<trkpt lat="55.830078" lon="26.217527">
<ele>160.357544</ele>
<time>2010-07-17T12:48:28Z</time>
<desc>lat.=55.830078, lon.=26.217527, Alt.=160.357544m. Speed=1.116000m/h.</desc>
<speed>0.310000</speed>
</trkpt>
<trkpt lat="55.830078" lon="26.217545">
<ele>160.697388</ele>
<time>2010-07-17T12:48:29Z</time>
<desc>lat.=55.830078, lon.=26.217545, Alt.=160.697388m. Speed=1.080000m/h.</desc>
<speed>0.300000</speed>
</trkpt>
<trkpt lat="55.830086" lon="26.217554">
<ele>160.888794</ele>
<time>2010-07-17T12:48:30Z</time>
<desc>lat.=55.830086, lon.=26.217554, Alt.=160.888794m. Speed=0.720000m/h.</desc>
<speed>0.200000</speed>
</trkpt>
<trkpt lat="55.830090" lon="26.217560">
<ele>160.927856</ele>
<time>2010-07-17T12:48:31Z</time>
<desc>lat.=55.830090, lon.=26.217560, Alt.=160.927856m. Speed=0.648000m/h.</desc>
<speed>0.180000</speed>
</trkpt>
<trkpt lat="55.830082" lon="26.217552">
<ele>161.009888</ele>
<time>2010-07-17T12:48:32Z</time>
<desc>lat.=55.830082, lon.=26.217552, Alt.=161.009888m. Speed=1.080000m/h.</desc>
<speed>0.300000</speed>
</trkpt>
<trkpt lat="55.830086" lon="26.217558">
<ele>161.228638</ele>
<time>2010-07-17T12:48:33Z</time>
<desc>lat.=55.830086, lon.=26.217558, Alt.=161.228638m. Speed=0.972000m/h.</desc>
<speed>0.270000</speed>
</trkpt>
<trkpt lat="55.830086" lon="26.217560">
<ele>161.427856</ele>
<time>2010-07-17T12:48:34Z</time>
<desc>lat.=55.830086, lon.=26.217560, Alt.=161.427856m. Speed=0.792000m/h.</desc>
<speed>0.220000</speed>
</trkpt>
<trkpt lat="55.830086" lon="26.217560">
<ele>161.763794</ele>
<time>2010-07-17T12:48:35Z</time>
<desc>lat.=55.830086, lon.=26.217560, Alt.=161.763794m. Speed=0.396000m/h.</desc>
<speed>0.110000</speed>
</trkpt>
<trkpt lat="55.830086" lon="26.217558">
<ele>162.002075</ele>
<time>2010-07-17T12:48:36Z</time>
<desc>lat.=55.830086, lon.=26.217558, Alt.=162.002075m. Speed=0.144000m/h.</desc>
<speed>0.040000</speed>
</trkpt>
<trkpt lat="55.830086" lon="26.217560">
<ele>162.045044</ele>
<time>2010-07-17T12:48:37Z</time>
<desc>lat.=55.830086, lon.=26.217560, Alt.=162.045044m. Speed=0.288000m/h.</desc>
<speed>0.080000</speed>
</trkpt>
<trkpt lat="55.830086" lon="26.217560">
<ele>162.080200</ele>
<time>2010-07-17T12:48:38Z</time>
<desc>lat.=55.830086, lon.=26.217560, Alt.=162.080200m. Speed=0.252000m/h.</desc>
<speed>0.070000</speed>
</trkpt>
<trkpt lat="55.830086" lon="26.217558">
<ele>162.119263</ele>
<time>2010-07-17T12:48:39Z</time>
<desc>lat.=55.830086, lon.=26.217558, Alt.=162.119263m. Speed=0.684000m/h.</desc>
<speed>0.190000</speed>
</trkpt>
<trkpt lat="55.830086" lon="26.217558">
<ele>162.150513</ele>
<time>2010-07-17T12:48:40Z</time>
<desc>lat.=55.830086, lon.=26.217558, Alt.=162.150513m. Speed=0.720000m/h.</desc>
<speed>0.200000</speed>
</trkpt>
<trkpt lat="55.830082" lon="26.217554">
<ele>162.181763</ele>
<time>2010-07-17T12:48:41Z</time>
<desc>lat.=55.830082, lon.=26.217554, Alt.=162.181763m. Speed=0.720000m/h.</desc>
<speed>0.200000</speed>
</trkpt>
<trkpt lat="55.830082" lon="26.217554">
<ele>162.209106</ele>
<time>2010-07-17T12:48:42Z</time>
<desc>lat.=55.830082, lon.=26.217554, Alt.=162.209106m. Speed=0.756000m/h.</desc>
<speed>0.210000</speed>
</trkpt>
<trkpt lat="55.830082" lon="26.217552">
<ele>162.228638</ele>
<time>2010-07-17T12:48:43Z</time>
<desc>lat.=55.830082, lon.=26.217552, Alt.=162.228638m. Speed=1.008000m/h.</desc>
<speed>0.280000</speed>
</trkpt>
<trkpt lat="55.830082" lon="26.217546">
<ele>162.252075</ele>
<time>2010-07-17T12:48:44Z</time>
<desc>lat.=55.830082, lon.=26.217546, Alt.=162.252075m. Speed=0.576000m/h.</desc>
<speed>0.160000</speed>
</trkpt>
<trkpt lat="55.830082" lon="26.217545">
<ele>162.267700</ele>
<time>2010-07-17T12:48:45Z</time>
<desc>lat.=55.830082, lon.=26.217545, Alt.=162.267700m. Speed=0.792000m/h.</desc>
<speed>0.220000</speed>
</trkpt>
<trkpt lat="55.830082" lon="26.217541">
<ele>162.291138</ele>
<time>2010-07-17T12:48:46Z</time>
<desc>lat.=55.830082, lon.=26.217541, Alt.=162.291138m. Speed=0.756000m/h.</desc>
<speed>0.210000</speed>
</trkpt>
<trkpt lat="55.830082" lon="26.217537">
<ele>162.318481</ele>
<time>2010-07-17T12:48:47Z</time>
<desc>lat.=55.830082, lon.=26.217537, Alt.=162.318481m. Speed=0.864000m/h.</desc>
<speed>0.240000</speed>
</trkpt>
<trkpt lat="55.830082" lon="26.217535">
<ele>162.353638</ele>
<time>2010-07-17T12:48:48Z</time>
<desc>lat.=55.830082, lon.=26.217535, Alt.=162.353638m. Speed=0.684000m/h.</desc>
<speed>0.190000</speed>
</trkpt>
<trkpt lat="55.830078" lon="26.217533">
<ele>162.384888</ele>
<time>2010-07-17T12:48:49Z</time>
<desc>lat.=55.830078, lon.=26.217533, Alt.=162.384888m. Speed=0.936000m/h.</desc>
<speed>0.260000</speed>
</trkpt>
<trkpt lat="55.830078" lon="26.217529">
<ele>162.412231</ele>
<time>2010-07-17T12:48:50Z</time>
<desc>lat.=55.830078, lon.=26.217529, Alt.=162.412231m. Speed=0.108000m/h.</desc>
<speed>0.030000</speed>
</trkpt>
<trkpt lat="55.830078" lon="26.217529">
<ele>162.435669</ele>
<time>2010-07-17T12:48:51Z</time>
<desc>lat.=55.830078, lon.=26.217529, Alt.=162.435669m. Speed=0.864000m/h.</desc>
<speed>0.240000</speed>
</trkpt>
<trkpt lat="55.830074" lon="26.217533">
<ele>162.455200</ele>
<time>2010-07-17T12:48:52Z</time>
<desc>lat.=55.830074, lon.=26.217533, Alt.=162.455200m. Speed=0.648000m/h.</desc>
<speed>0.180000</speed>
</trkpt>
<trkpt lat="55.830074" lon="26.217533">
<ele>162.474731</ele>
<time>2010-07-17T12:48:53Z</time>
<desc>lat.=55.830074, lon.=26.217533, Alt.=162.474731m. Speed=0.288000m/h.</desc>
<speed>0.080000</speed>
</trkpt>
<trkpt lat="55.830074" lon="26.217531">
<ele>162.490356</ele>
<time>2010-07-17T12:48:54Z</time>
<desc>lat.=55.830074, lon.=26.217531, Alt.=162.490356m. Speed=0.612000m/h.</desc>
<speed>0.170000</speed>
</trkpt>
<trkpt lat="55.830070" lon="26.217533">
<ele>162.494263</ele>
<time>2010-07-17T12:48:55Z</time>
<desc>lat.=55.830070, lon.=26.217533, Alt.=162.494263m. Speed=0.468000m/h.</desc>
<speed>0.130000</speed>
</trkpt>
<trkpt lat="55.830070" lon="26.217531">
<ele>162.498169</ele>
<time>2010-07-17T12:48:56Z</time>
<desc>lat.=55.830070, lon.=26.217531, Alt.=162.498169m. Speed=0.324000m/h.</desc>
<speed>0.090000</speed>
</trkpt>
<trkpt lat="55.830070" lon="26.217529">
<ele>162.505981</ele>
<time>2010-07-17T12:48:57Z</time>
<desc>lat.=55.830070, lon.=26.217529, Alt.=162.505981m. Speed=0.828000m/h.</desc>
<speed>0.230000</speed>
</trkpt>
<trkpt lat="55.830070" lon="26.217529">
<ele>162.509888</ele>
<time>2010-07-17T12:48:58Z</time>
<desc>lat.=55.830070, lon.=26.217529, Alt.=162.509888m. Speed=0.180000m/h.</desc>
<speed>0.050000</speed>
</trkpt>
<trkpt lat="55.830067" lon="26.217529">
<ele>162.517700</ele>
<time>2010-07-17T12:48:59Z</time>
<desc>lat.=55.830067, lon.=26.217529, Alt.=162.517700m. Speed=0.180000m/h.</desc>
<speed>0.050000</speed>
</trkpt>
<trkpt lat="55.830067" lon="26.217529">
<ele>162.521606</ele>
<time>2010-07-17T12:49:00Z</time>
<desc>lat.=55.830067, lon.=26.217529, Alt.=162.521606m. Speed=0.396000m/h.</desc>
<speed>0.110000</speed>
</trkpt>
<trkpt lat="55.830067" lon="26.217529">
<ele>162.537231</ele>
<time>2010-07-17T12:49:01Z</time>
<desc>lat.=55.830067, lon.=26.217529, Alt.=162.537231m. Speed=0.540000m/h.</desc>
<speed>0.150000</speed>
</trkpt>
<trkpt lat="55.830063" lon="26.217527">
<ele>162.552856</ele>
<time>2010-07-17T12:49:02Z</time>
<desc>lat.=55.830063, lon.=26.217527, Alt.=162.552856m. Speed=0.396000m/h.</desc>
<speed>0.110000</speed>
</trkpt>
<trkpt lat="55.830063" lon="26.217525">
<ele>162.572388</ele>
<time>2010-07-17T12:49:03Z</time>
<desc>lat.=55.830063, lon.=26.217525, Alt.=162.572388m. Speed=0.756000m/h.</desc>
<speed>0.210000</speed>
</trkpt>
<trkpt lat="55.830063" lon="26.217522">
<ele>162.588013</ele>
<time>2010-07-17T12:49:04Z</time>
<desc>lat.=55.830063, lon.=26.217522, Alt.=162.588013m. Speed=0.360000m/h.</desc>
<speed>0.100000</speed>
</trkpt>
<trkpt lat="55.830063" lon="26.217522">
<ele>162.607544</ele>
<time>2010-07-17T12:49:05Z</time>
<desc>lat.=55.830063, lon.=26.217522, Alt.=162.607544m. Speed=0.612000m/h.</desc>
<speed>0.170000</speed>
</trkpt>
<trkpt lat="55.830067" lon="26.217522">
<ele>162.630981</ele>
<time>2010-07-17T12:49:06Z</time>
<desc>lat.=55.830067, lon.=26.217522, Alt.=162.630981m. Speed=0.756000m/h.</desc>
<speed>0.210000</speed>
</trkpt>
<trkpt lat="55.830067" lon="26.217525">
<ele>162.658325</ele>
<time>2010-07-17T12:49:07Z</time>
<desc>lat.=55.830067, lon.=26.217525, Alt.=162.658325m. Speed=0.792000m/h.</desc>
<speed>0.220000</speed>
</trkpt>
<trkpt lat="55.830063" lon="26.217527">
<ele>162.673950</ele>
<time>2010-07-17T12:49:08Z</time>
<desc>lat.=55.830063, lon.=26.217527, Alt.=162.673950m. Speed=0.324000m/h.</desc>
<speed>0.090000</speed>
</trkpt>
<trkpt lat="55.830063" lon="26.217527">
<ele>162.685669</ele>
<time>2010-07-17T12:49:09Z</time>
<desc>lat.=55.830063, lon.=26.217527, Alt.=162.685669m. Speed=0.576000m/h.</desc>
<speed>0.160000</speed>
</trkpt>
<trkpt lat="55.830063" lon="26.217527">
<ele>162.693481</ele>
<time>2010-07-17T12:49:10Z</time>
<desc>lat.=55.830063, lon.=26.217527, Alt.=162.693481m. Speed=0.396000m/h.</desc>
<speed>0.110000</speed>
</trkpt>
<trkpt lat="55.830059" lon="26.217527">
<ele>162.701294</ele>
<time>2010-07-17T12:49:11Z</time>
<desc>lat.=55.830059, lon.=26.217527, Alt.=162.701294m. Speed=0.720000m/h.</desc>
<speed>0.200000</speed>
</trkpt>
<trkpt lat="55.830059" lon="26.217529">
<ele>162.697388</ele>
<time>2010-07-17T12:49:12Z</time>
<desc>lat.=55.830059, lon.=26.217529, Alt.=162.697388m. Speed=1.044000m/h.</desc>
<speed>0.290000</speed>
</trkpt>
<trkpt lat="55.830055" lon="26.217531">
<ele>162.693481</ele>
<time>2010-07-17T12:49:13Z</time>
<desc>lat.=55.830055, lon.=26.217531, Alt.=162.693481m. Speed=0.756000m/h.</desc>
<speed>0.210000</speed>
</trkpt>
<trkpt lat="55.830055" lon="26.217533">
<ele>162.685669</ele>
<time>2010-07-17T12:49:14Z</time>
<desc>lat.=55.830055, lon.=26.217533, Alt.=162.685669m. Speed=1.008000m/h.</desc>
<speed>0.280000</speed>
</trkpt>
<trkpt lat="55.830051" lon="26.217535">
<ele>162.677856</ele>
<time>2010-07-17T12:49:15Z</time>
<desc>lat.=55.830051, lon.=26.217535, Alt.=162.677856m. Speed=0.828000m/h.</desc>
<speed>0.230000</speed>
</trkpt>
<trkpt lat="55.830051" lon="26.217539">
<ele>162.670044</ele>
<time>2010-07-17T12:49:16Z</time>
<desc>lat.=55.830051, lon.=26.217539, Alt.=162.670044m. Speed=0.756000m/h.</desc>
<speed>0.210000</speed>
</trkpt>
<trkpt lat="55.830048" lon="26.217537">
<ele>162.662231</ele>
<time>2010-07-17T12:49:17Z</time>
<desc>lat.=55.830048, lon.=26.217537, Alt.=162.662231m. Speed=0.828000m/h.</desc>
<speed>0.230000</speed>
</trkpt>
<trkpt lat="55.830048" lon="26.217535">
<ele>162.650513</ele>
<time>2010-07-17T12:49:18Z</time>
<desc>lat.=55.830048, lon.=26.217535, Alt.=162.650513m. Speed=0.684000m/h.</desc>
<speed>0.190000</speed>
</trkpt>
<trkpt lat="55.830048" lon="26.217531">
<ele>162.638794</ele>
<time>2010-07-17T12:49:19Z</time>
<desc>lat.=55.830048, lon.=26.217531, Alt.=162.638794m. Speed=0.360000m/h.</desc>
<speed>0.100000</speed>
</trkpt>
<trkpt lat="55.830048" lon="26.217529">
<ele>162.627075</ele>
<time>2010-07-17T12:49:20Z</time>
<desc>lat.=55.830048, lon.=26.217529, Alt.=162.627075m. Speed=0.396000m/h.</desc>
<speed>0.110000</speed>
</trkpt>
<trkpt lat="55.830048" lon="26.217527">
<ele>162.619263</ele>
<time>2010-07-17T12:49:21Z</time>
<desc>lat.=55.830048, lon.=26.217527, Alt.=162.619263m. Speed=0.792000m/h.</desc>
<speed>0.220000</speed>
</trkpt>
<trkpt lat="55.830048" lon="26.217524">
<ele>162.615356</ele>
<time>2010-07-17T12:49:22Z</time>
<desc>lat.=55.830048, lon.=26.217524, Alt.=162.615356m. Speed=0.576000m/h.</desc>
<speed>0.160000</speed>
</trkpt>
<trkpt lat="55.830048" lon="26.217522">
<ele>162.611450</ele>
<time>2010-07-17T12:49:23Z</time>
<desc>lat.=55.830048, lon.=26.217522, Alt.=162.611450m. Speed=0.576000m/h.</desc>
<speed>0.160000</speed>
</trkpt>
<trkpt lat="55.830051" lon="26.217520">
<ele>162.611450</ele>
<time>2010-07-17T12:49:24Z</time>
<desc>lat.=55.830051, lon.=26.217520, Alt.=162.611450m. Speed=0.252000m/h.</desc>
<speed>0.070000</speed>
</trkpt>
<trkpt lat="55.830051" lon="26.217520">
<ele>162.615356</ele>
<time>2010-07-17T12:49:25Z</time>
<desc>lat.=55.830051, lon.=26.217520, Alt.=162.615356m. Speed=0.648000m/h.</desc>
<speed>0.180000</speed>
</trkpt>
<trkpt lat="55.830048" lon="26.217518">
<ele>162.623169</ele>
<time>2010-07-17T12:49:26Z</time>
<desc>lat.=55.830048, lon.=26.217518, Alt.=162.623169m. Speed=1.008000m/h.</desc>
<speed>0.280000</speed>
</trkpt>
<trkpt lat="55.830048" lon="26.217516">
<ele>162.630981</ele>
<time>2010-07-17T12:49:27Z</time>
<desc>lat.=55.830048, lon.=26.217516, Alt.=162.630981m. Speed=0.576000m/h.</desc>
<speed>0.160000</speed>
</trkpt>
<trkpt lat="55.830048" lon="26.217512">
<ele>162.642700</ele>
<time>2010-07-17T12:49:28Z</time>
<desc>lat.=55.830048, lon.=26.217512, Alt.=162.642700m. Speed=0.432000m/h.</desc>
<speed>0.120000</speed>
</trkpt>
<trkpt lat="55.830048" lon="26.217510">
<ele>162.646606</ele>
<time>2010-07-17T12:49:29Z</time>
<desc>lat.=55.830048, lon.=26.217510, Alt.=162.646606m. Speed=0.180000m/h.</desc>
<speed>0.050000</speed>
</trkpt>
<trkpt lat="55.830048" lon="26.217512">
<ele>162.650513</ele>
<time>2010-07-17T12:49:30Z</time>
<desc>lat.=55.830048, lon.=26.217512, Alt.=162.650513m. Speed=0.720000m/h.</desc>
<speed>0.200000</speed>
</trkpt>
<trkpt lat="55.830048" lon="26.217512">
<ele>162.662231</ele>
<time>2010-07-17T12:49:31Z</time>
<desc>lat.=55.830048, lon.=26.217512, Alt.=162.662231m. Speed=0.648000m/h.</desc>
<speed>0.180000</speed>
</trkpt>
<trkpt lat="55.830051" lon="26.217512">
<ele>162.681763</ele>
<time>2010-07-17T12:49:32Z</time>
<desc>lat.=55.830051, lon.=26.217512, Alt.=162.681763m. Speed=0.072000m/h.</desc>
<speed>0.020000</speed>
</trkpt>
<trkpt lat="55.830051" lon="26.217510">
<ele>162.701294</ele>
<time>2010-07-17T12:49:33Z</time>
<desc>lat.=55.830051, lon.=26.217510, Alt.=162.701294m. Speed=0.108000m/h.</desc>
<speed>0.030000</speed>
</trkpt>
<trkpt lat="55.830051" lon="26.217510">
<ele>162.716919</ele>
<time>2010-07-17T12:49:34Z</time>
<desc>lat.=55.830051, lon.=26.217510, Alt.=162.716919m. Speed=0.144000m/h.</desc>
<speed>0.040000</speed>
</trkpt>
<trkpt lat="55.830048" lon="26.217510">
<ele>162.732544</ele>
<time>2010-07-17T12:49:35Z</time>
<desc>lat.=55.830048, lon.=26.217510, Alt.=162.732544m. Speed=0.612000m/h.</desc>
<speed>0.170000</speed>
</trkpt>
<trkpt lat="55.830048" lon="26.217508">
<ele>162.744263</ele>
<time>2010-07-17T12:49:36Z</time>
<desc>lat.=55.830048, lon.=26.217508, Alt.=162.744263m. Speed=0.612000m/h.</desc>
<speed>0.170000</speed>
</trkpt>
<trkpt lat="55.830048" lon="26.217506">
<ele>162.759888</ele>
<time>2010-07-17T12:49:37Z</time>
<desc>lat.=55.830048, lon.=26.217506, Alt.=162.759888m. Speed=0.576000m/h.</desc>
<speed>0.160000</speed>
</trkpt>
<trkpt lat="55.830044" lon="26.217506">
<ele>162.771606</ele>
<time>2010-07-17T12:49:38Z</time>
<desc>lat.=55.830044, lon.=26.217506, Alt.=162.771606m. Speed=0.720000m/h.</desc>
<speed>0.200000</speed>
</trkpt>
<trkpt lat="55.830044" lon="26.217505">
<ele>162.779419</ele>
<time>2010-07-17T12:49:39Z</time>
<desc>lat.=55.830044, lon.=26.217505, Alt.=162.779419m. Speed=0.252000m/h.</desc>
<speed>0.070000</speed>
</trkpt>
<trkpt lat="55.830044" lon="26.217505">
<ele>162.783325</ele>
<time>2010-07-17T12:49:40Z</time>
<desc>lat.=55.830044, lon.=26.217505, Alt.=162.783325m. Speed=0.468000m/h.</desc>
<speed>0.130000</speed>
</trkpt>
<trkpt lat="55.830044" lon="26.217503">
<ele>162.791138</ele>
<time>2010-07-17T12:49:41Z</time>
<desc>lat.=55.830044, lon.=26.217503, Alt.=162.791138m. Speed=0.432000m/h.</desc>
<speed>0.120000</speed>
</trkpt>
<trkpt lat="55.830044" lon="26.217501">
<ele>162.798950</ele>
<time>2010-07-17T12:49:42Z</time>
<desc>lat.=55.830044, lon.=26.217501, Alt.=162.798950m. Speed=0.720000m/h.</desc>
<speed>0.200000</speed>
</trkpt>
<trkpt lat="55.830044" lon="26.217499">
<ele>162.795044</ele>
<time>2010-07-17T12:49:43Z</time>
<desc>lat.=55.830044, lon.=26.217499, Alt.=162.795044m. Speed=0.612000m/h.</desc>
<speed>0.170000</speed>
</trkpt>
<trkpt lat="55.830048" lon="26.217495">
<ele>162.795044</ele>
<time>2010-07-17T12:49:44Z</time>
<desc>lat.=55.830048, lon.=26.217495, Alt.=162.795044m. Speed=0.972000m/h.</desc>
<speed>0.270000</speed>
</trkpt>
<trkpt lat="55.830048" lon="26.217493">
<ele>162.795044</ele>
<time>2010-07-17T12:49:45Z</time>
<desc>lat.=55.830048, lon.=26.217493, Alt.=162.795044m. Speed=0.936000m/h.</desc>
<speed>0.260000</speed>
</trkpt>
<trkpt lat="55.830051" lon="26.217491">
<ele>162.798950</ele>
<time>2010-07-17T12:49:46Z</time>
<desc>lat.=55.830051, lon.=26.217491, Alt.=162.798950m. Speed=1.188000m/h.</desc>
<speed>0.330000</speed>
</trkpt>
<trkpt lat="55.830051" lon="26.217495">
<ele>162.802856</ele>
<time>2010-07-17T12:49:47Z</time>
<desc>lat.=55.830051, lon.=26.217495, Alt.=162.802856m. Speed=0.900000m/h.</desc>
<speed>0.250000</speed>
</trkpt>
<trkpt lat="55.830055" lon="26.217497">
<ele>162.904419</ele>
<time>2010-07-17T12:49:48Z</time>
<desc>lat.=55.830055, lon.=26.217497, Alt.=162.904419m. Speed=0.756000m/h.</desc>
<speed>0.210000</speed>
</trkpt>
<trkpt lat="55.830055" lon="26.217508">
<ele>162.884888</ele>
<time>2010-07-17T12:49:49Z</time>
<desc>lat.=55.830055, lon.=26.217508, Alt.=162.884888m. Speed=0.756000m/h.</desc>
<speed>0.210000</speed>
</trkpt>
<trkpt lat="55.830059" lon="26.217508">
<ele>162.896606</ele>
<time>2010-07-17T12:49:50Z</time>
<desc>lat.=55.830059, lon.=26.217508, Alt.=162.896606m. Speed=1.008000m/h.</desc>
<speed>0.280000</speed>
</trkpt>
<trkpt lat="55.830059" lon="26.217512">
<ele>162.900513</ele>
<time>2010-07-17T12:49:51Z</time>
<desc>lat.=55.830059, lon.=26.217512, Alt.=162.900513m. Speed=0.792000m/h.</desc>
<speed>0.220000</speed>
</trkpt>
<trkpt lat="55.830063" lon="26.217512">
<ele>162.912231</ele>
<time>2010-07-17T12:49:52Z</time>
<desc>lat.=55.830063, lon.=26.217512, Alt.=162.912231m. Speed=0.756000m/h.</desc>
<speed>0.210000</speed>
</trkpt>
<trkpt lat="55.830067" lon="26.217512">
<ele>162.927856</ele>
<time>2010-07-17T12:49:53Z</time>
<desc>lat.=55.830067, lon.=26.217512, Alt.=162.927856m. Speed=0.396000m/h.</desc>
<speed>0.110000</speed>
</trkpt>
<trkpt lat="55.830067" lon="26.217512">
<ele>162.947388</ele>
<time>2010-07-17T12:49:54Z</time>
<desc>lat.=55.830067, lon.=26.217512, Alt.=162.947388m. Speed=0.324000m/h.</desc>
<speed>0.090000</speed>
</trkpt>
<trkpt lat="55.830067" lon="26.217514">
<ele>162.966919</ele>
<time>2010-07-17T12:49:55Z</time>
<desc>lat.=55.830067, lon.=26.217514, Alt.=162.966919m. Speed=0.504000m/h.</desc>
<speed>0.140000</speed>
</trkpt>
<trkpt lat="55.830067" lon="26.217516">
<ele>162.986450</ele>
<time>2010-07-17T12:49:56Z</time>
<desc>lat.=55.830067, lon.=26.217516, Alt.=162.986450m. Speed=0.396000m/h.</desc>
<speed>0.110000</speed>
</trkpt>
<trkpt lat="55.830067" lon="26.217518">
<ele>162.998169</ele>
<time>2010-07-17T12:49:57Z</time>
<desc>lat.=55.830067, lon.=26.217518, Alt.=162.998169m. Speed=0.360000m/h.</desc>
<speed>0.100000</speed>
</trkpt>
<trkpt lat="55.830063" lon="26.217518">
<ele>163.009888</ele>
<time>2010-07-17T12:49:58Z</time>
<desc>lat.=55.830063, lon.=26.217518, Alt.=163.009888m. Speed=0.396000m/h.</desc>
<speed>0.110000</speed>
</trkpt>
<trkpt lat="55.830063" lon="26.217520">
<ele>163.021606</ele>
<time>2010-07-17T12:49:59Z</time>
<desc>lat.=55.830063, lon.=26.217520, Alt.=163.021606m. Speed=0.360000m/h.</desc>
<speed>0.100000</speed>
</trkpt>
<trkpt lat="55.830063" lon="26.217522">
<ele>163.029419</ele>
<time>2010-07-17T12:50:00Z</time>
<desc>lat.=55.830063, lon.=26.217522, Alt.=163.029419m. Speed=0.648000m/h.</desc>
<speed>0.180000</speed>
</trkpt>
<trkpt lat="55.830063" lon="26.217524">
<ele>163.037231</ele>
<time>2010-07-17T12:50:01Z</time>
<desc>lat.=55.830063, lon.=26.217524, Alt.=163.037231m. Speed=0.396000m/h.</desc>
<speed>0.110000</speed>
</trkpt>
<trkpt lat="55.830063" lon="26.217524">
<ele>163.041138</ele>
<time>2010-07-17T12:50:02Z</time>
<desc>lat.=55.830063, lon.=26.217524, Alt.=163.041138m. Speed=0.684000m/h.</desc>
<speed>0.190000</speed>
</trkpt>
<trkpt lat="55.830063" lon="26.217522">
<ele>163.045044</ele>
<time>2010-07-17T12:50:03Z</time>
<desc>lat.=55.830063, lon.=26.217522, Alt.=163.045044m. Speed=0.756000m/h.</desc>
<speed>0.210000</speed>
</trkpt>
<trkpt lat="55.830059" lon="26.217518">
<ele>163.048950</ele>
<time>2010-07-17T12:50:04Z</time>
<desc>lat.=55.830059, lon.=26.217518, Alt.=163.048950m. Speed=0.648000m/h.</desc>
<speed>0.180000</speed>
</trkpt>
<trkpt lat="55.830059" lon="26.217518">
<ele>163.052856</ele>
<time>2010-07-17T12:50:05Z</time>
<desc>lat.=55.830059, lon.=26.217518, Alt.=163.052856m. Speed=0.720000m/h.</desc>
<speed>0.200000</speed>
</trkpt>
<trkpt lat="55.830059" lon="26.217520">
<ele>163.052856</ele>
<time>2010-07-17T12:50:06Z</time>
<desc>lat.=55.830059, lon.=26.217520, Alt.=163.052856m. Speed=0.324000m/h.</desc>
<speed>0.090000</speed>
</trkpt>
<trkpt lat="55.830059" lon="26.217522">
<ele>163.056763</ele>
<time>2010-07-17T12:50:07Z</time>
<desc>lat.=55.830059, lon.=26.217522, Alt.=163.056763m. Speed=0.180000m/h.</desc>
<speed>0.050000</speed>
</trkpt>
<trkpt lat="55.830059" lon="26.217522">
<ele>163.056763</ele>
<time>2010-07-17T12:50:08Z</time>
<desc>lat.=55.830059, lon.=26.217522, Alt.=163.056763m. Speed=0.144000m/h.</desc>
<speed>0.040000</speed>
</trkpt>
<trkpt lat="55.830055" lon="26.217522">
<ele>163.056763</ele>
<time>2010-07-17T12:50:09Z</time>
<desc>lat.=55.830055, lon.=26.217522, Alt.=163.056763m. Speed=0.756000m/h.</desc>
<speed>0.210000</speed>
</trkpt>
<trkpt lat="55.830055" lon="26.217520">
<ele>163.060669</ele>
<time>2010-07-17T12:50:10Z</time>
<desc>lat.=55.830055, lon.=26.217520, Alt.=163.060669m. Speed=0.216000m/h.</desc>
<speed>0.060000</speed>
</trkpt>
<trkpt lat="55.830055" lon="26.217520">
<ele>163.064575</ele>
<time>2010-07-17T12:50:11Z</time>
<desc>lat.=55.830055, lon.=26.217520, Alt.=163.064575m. Speed=0.252000m/h.</desc>
<speed>0.070000</speed>
</trkpt>
<trkpt lat="55.830055" lon="26.217520">
<ele>163.072388</ele>
<time>2010-07-17T12:50:12Z</time>
<desc>lat.=55.830055, lon.=26.217520, Alt.=163.072388m. Speed=0.576000m/h.</desc>
<speed>0.160000</speed>
</trkpt>
<trkpt lat="55.830051" lon="26.217518">
<ele>163.080200</ele>
<time>2010-07-17T12:50:13Z</time>
<desc>lat.=55.830051, lon.=26.217518, Alt.=163.080200m. Speed=0.468000m/h.</desc>
<speed>0.130000</speed>
</trkpt>
<trkpt lat="55.830051" lon="26.217514">
<ele>163.084106</ele>
<time>2010-07-17T12:50:14Z</time>
<desc>lat.=55.830051, lon.=26.217514, Alt.=163.084106m. Speed=0.432000m/h.</desc>
<speed>0.120000</speed>
</trkpt>
<trkpt lat="55.830051" lon="26.217512">
<ele>163.084106</ele>
<time>2010-07-17T12:50:15Z</time>
<desc>lat.=55.830051, lon.=26.217512, Alt.=163.084106m. Speed=1.548000m/h.</desc>
<speed>0.430000</speed>
</trkpt>
<trkpt lat="55.830040" lon="26.217503">
<ele>163.084106</ele>
<time>2010-07-17T12:50:16Z</time>
<desc>lat.=55.830040, lon.=26.217503, Alt.=163.084106m. Speed=1.908000m/h.</desc>
<speed>0.530000</speed>
</trkpt>
<trkpt lat="55.830032" lon="26.217497">
<ele>163.009888</ele>
<time>2010-07-17T12:50:17Z</time>
<desc>lat.=55.830032, lon.=26.217497, Alt.=163.009888m. Speed=1.008000m/h.</desc>
<speed>0.280000</speed>
</trkpt>
<trkpt lat="55.830025" lon="26.217499">
<ele>163.154419</ele>
<time>2010-07-17T12:50:18Z</time>
<desc>lat.=55.830025, lon.=26.217499, Alt.=163.154419m. Speed=0.648000m/h.</desc>
<speed>0.180000</speed>
</trkpt>
<trkpt lat="55.830021" lon="26.217499">
<ele>163.338013</ele>
<time>2010-07-17T12:50:19Z</time>
<desc>lat.=55.830021, lon.=26.217499, Alt.=163.338013m. Speed=0.288000m/h.</desc>
<speed>0.080000</speed>
</trkpt>
<trkpt lat="55.830017" lon="26.217503">
<ele>163.584106</ele>
<time>2010-07-17T12:50:20Z</time>
<desc>lat.=55.830017, lon.=26.217503, Alt.=163.584106m. Speed=0.252000m/h.</desc>
<speed>0.070000</speed>
</trkpt>
<trkpt lat="55.830017" lon="26.217503">
<ele>163.595825</ele>
<time>2010-07-17T12:50:21Z</time>
<desc>lat.=55.830017, lon.=26.217503, Alt.=163.595825m. Speed=0.216000m/h.</desc>
<speed>0.060000</speed>
</trkpt>
<trkpt lat="55.830017" lon="26.217503">
<ele>163.611450</ele>
<time>2010-07-17T12:50:22Z</time>
<desc>lat.=55.830017, lon.=26.217503, Alt.=163.611450m. Speed=0.144000m/h.</desc>
<speed>0.040000</speed>
</trkpt>
<trkpt lat="55.830017" lon="26.217505">
<ele>163.615356</ele>
<time>2010-07-17T12:50:23Z</time>
<desc>lat.=55.830017, lon.=26.217505, Alt.=163.615356m. Speed=0.468000m/h.</desc>
<speed>0.130000</speed>
</trkpt>
<trkpt lat="55.830013" lon="26.217503">
<ele>163.623169</ele>
<time>2010-07-17T12:50:24Z</time>
<desc>lat.=55.830013, lon.=26.217503, Alt.=163.623169m. Speed=0.756000m/h.</desc>
<speed>0.210000</speed>
</trkpt>
<trkpt lat="55.830013" lon="26.217505">
<ele>163.630981</ele>
<time>2010-07-17T12:50:25Z</time>
<desc>lat.=55.830013, lon.=26.217505, Alt.=163.630981m. Speed=0.648000m/h.</desc>
<speed>0.180000</speed>
</trkpt>
<trkpt lat="55.830009" lon="26.217505">
<ele>163.634888</ele>
<time>2010-07-17T12:50:26Z</time>
<desc>lat.=55.830009, lon.=26.217505, Alt.=163.634888m. Speed=1.188000m/h.</desc>
<speed>0.330000</speed>
</trkpt>
<trkpt lat="55.830006" lon="26.217499">
<ele>163.650513</ele>
<time>2010-07-17T12:50:27Z</time>
<desc>lat.=55.830006, lon.=26.217499, Alt.=163.650513m. Speed=1.008000m/h.</desc>
<speed>0.280000</speed>
</trkpt>
<trkpt lat="55.830002" lon="26.217491">
<ele>163.564575</ele>
<time>2010-07-17T12:50:28Z</time>
<desc>lat.=55.830002, lon.=26.217491, Alt.=163.564575m. Speed=0.756000m/h.</desc>
<speed>0.210000</speed>
</trkpt>
<trkpt lat="55.830002" lon="26.217487">
<ele>163.611450</ele>
<time>2010-07-17T12:50:29Z</time>
<desc>lat.=55.830002, lon.=26.217487, Alt.=163.611450m. Speed=0.432000m/h.</desc>
<speed>0.120000</speed>
</trkpt>
<trkpt lat="55.829998" lon="26.217484">
<ele>163.486450</ele>
<time>2010-07-17T12:50:30Z</time>
<desc>lat.=55.829998, lon.=26.217484, Alt.=163.486450m. Speed=0.540000m/h.</desc>
<speed>0.150000</speed>
</trkpt>
<trkpt lat="55.829998" lon="26.217482">
<ele>163.478638</ele>
<time>2010-07-17T12:50:31Z</time>
<desc>lat.=55.829998, lon.=26.217482, Alt.=163.478638m. Speed=0.576000m/h.</desc>
<speed>0.160000</speed>
</trkpt>
<trkpt lat="55.829998" lon="26.217480">
<ele>163.470825</ele>
<time>2010-07-17T12:50:32Z</time>
<desc>lat.=55.829998, lon.=26.217480, Alt.=163.470825m. Speed=0.612000m/h.</desc>
<speed>0.170000</speed>
</trkpt>
<trkpt lat="55.829998" lon="26.217478">
<ele>163.459106</ele>
<time>2010-07-17T12:50:33Z</time>
<desc>lat.=55.829998, lon.=26.217478, Alt.=163.459106m. Speed=0.432000m/h.</desc>
<speed>0.120000</speed>
</trkpt>
<trkpt lat="55.829998" lon="26.217476">
<ele>163.455200</ele>
<time>2010-07-17T12:50:34Z</time>
<desc>lat.=55.829998, lon.=26.217476, Alt.=163.455200m. Speed=0.360000m/h.</desc>
<speed>0.100000</speed>
</trkpt>
<trkpt lat="55.829998" lon="26.217476">
<ele>163.459106</ele>
<time>2010-07-17T12:50:35Z</time>
<desc>lat.=55.829998, lon.=26.217476, Alt.=163.459106m. Speed=0.648000m/h.</desc>
<speed>0.180000</speed>
</trkpt>
<trkpt lat="55.830002" lon="26.217474">
<ele>163.455200</ele>
<time>2010-07-17T12:50:36Z</time>
<desc>lat.=55.830002, lon.=26.217474, Alt.=163.455200m. Speed=0.792000m/h.</desc>
<speed>0.220000</speed>
</trkpt>
<trkpt lat="55.830002" lon="26.217470">
<ele>163.455200</ele>
<time>2010-07-17T12:50:37Z</time>
<desc>lat.=55.830002, lon.=26.217470, Alt.=163.455200m. Speed=0.720000m/h.</desc>
<speed>0.200000</speed>
</trkpt>
<trkpt lat="55.830002" lon="26.217466">
<ele>163.451294</ele>
<time>2010-07-17T12:50:38Z</time>
<desc>lat.=55.830002, lon.=26.217466, Alt.=163.451294m. Speed=0.576000m/h.</desc>
<speed>0.160000</speed>
</trkpt>
<trkpt lat="55.830006" lon="26.217464">
<ele>163.447388</ele>
<time>2010-07-17T12:50:39Z</time>
<desc>lat.=55.830006, lon.=26.217464, Alt.=163.447388m. Speed=0.540000m/h.</desc>
<speed>0.150000</speed>
</trkpt>
<trkpt lat="55.830006" lon="26.217461">
<ele>163.447388</ele>
<time>2010-07-17T12:50:40Z</time>
<desc>lat.=55.830006, lon.=26.217461, Alt.=163.447388m. Speed=0.252000m/h.</desc>
<speed>0.070000</speed>
</trkpt>
<trkpt lat="55.830006" lon="26.217461">
<ele>163.443481</ele>
<time>2010-07-17T12:50:41Z</time>
<desc>lat.=55.830006, lon.=26.217461, Alt.=163.443481m. Speed=0.756000m/h.</desc>
<speed>0.210000</speed>
</trkpt>
<trkpt lat="55.830006" lon="26.217457">
<ele>163.439575</ele>
<time>2010-07-17T12:50:42Z</time>
<desc>lat.=55.830006, lon.=26.217457, Alt.=163.439575m. Speed=0.648000m/h.</desc>
<speed>0.180000</speed>
</trkpt>
<trkpt lat="55.830006" lon="26.217455">
<ele>163.439575</ele>
<time>2010-07-17T12:50:43Z</time>
<desc>lat.=55.830006, lon.=26.217455, Alt.=163.439575m. Speed=0.504000m/h.</desc>
<speed>0.140000</speed>
</trkpt>
<trkpt lat="55.830006" lon="26.217451">
<ele>163.439575</ele>
<time>2010-07-17T12:50:44Z</time>
<desc>lat.=55.830006, lon.=26.217451, Alt.=163.439575m. Speed=0.684000m/h.</desc>
<speed>0.190000</speed>
</trkpt>
<trkpt lat="55.830009" lon="26.217451">
<ele>163.439575</ele>
<time>2010-07-17T12:50:45Z</time>
<desc>lat.=55.830009, lon.=26.217451, Alt.=163.439575m. Speed=0.720000m/h.</desc>
<speed>0.200000</speed>
</trkpt>
<trkpt lat="55.830009" lon="26.217449">
<ele>163.439575</ele>
<time>2010-07-17T12:50:46Z</time>
<desc>lat.=55.830009, lon.=26.217449, Alt.=163.439575m. Speed=0.828000m/h.</desc>
<speed>0.230000</speed>
</trkpt>
<trkpt lat="55.830009" lon="26.217445">
<ele>163.447388</ele>
<time>2010-07-17T12:50:47Z</time>
<desc>lat.=55.830009, lon.=26.217445, Alt.=163.447388m. Speed=0.612000m/h.</desc>
<speed>0.170000</speed>
</trkpt>
<trkpt lat="55.830009" lon="26.217443">
<ele>163.451294</ele>
<time>2010-07-17T12:50:48Z</time>
<desc>lat.=55.830009, lon.=26.217443, Alt.=163.451294m. Speed=0.324000m/h.</desc>
<speed>0.090000</speed>
</trkpt>
<trkpt lat="55.830009" lon="26.217442">
<ele>163.455200</ele>
<time>2010-07-17T12:50:49Z</time>
<desc>lat.=55.830009, lon.=26.217442, Alt.=163.455200m. Speed=0.180000m/h.</desc>
<speed>0.050000</speed>
</trkpt>
<trkpt lat="55.830009" lon="26.217442">
<ele>163.463013</ele>
<time>2010-07-17T12:50:50Z</time>
<desc>lat.=55.830009, lon.=26.217442, Alt.=163.463013m. Speed=0.504000m/h.</desc>
<speed>0.140000</speed>
</trkpt>
<trkpt lat="55.830009" lon="26.217440">
<ele>163.470825</ele>
<time>2010-07-17T12:50:51Z</time>
<desc>lat.=55.830009, lon.=26.217440, Alt.=163.470825m. Speed=0.216000m/h.</desc>
<speed>0.060000</speed>
</trkpt>
<trkpt lat="55.830009" lon="26.217440">
<ele>163.478638</ele>
<time>2010-07-17T12:50:52Z</time>
<desc>lat.=55.830009, lon.=26.217440, Alt.=163.478638m. Speed=0.432000m/h.</desc>
<speed>0.120000</speed>
</trkpt>
<trkpt lat="55.830013" lon="26.217438">
<ele>163.490356</ele>
<time>2010-07-17T12:50:53Z</time>
<desc>lat.=55.830013, lon.=26.217438, Alt.=163.490356m. Speed=0.540000m/h.</desc>
<speed>0.150000</speed>
</trkpt>
<trkpt lat="55.830013" lon="26.217436">
<ele>163.498169</ele>
<time>2010-07-17T12:50:54Z</time>
<desc>lat.=55.830013, lon.=26.217436, Alt.=163.498169m. Speed=0.432000m/h.</desc>
<speed>0.120000</speed>
</trkpt>
<trkpt lat="55.830013" lon="26.217438">
<ele>163.505981</ele>
<time>2010-07-17T12:50:55Z</time>
<desc>lat.=55.830013, lon.=26.217438, Alt.=163.505981m. Speed=0.468000m/h.</desc>
<speed>0.130000</speed>
</trkpt>
<trkpt lat="55.830013" lon="26.217440">
<ele>163.513794</ele>
<time>2010-07-17T12:50:56Z</time>
<desc>lat.=55.830013, lon.=26.217440, Alt.=163.513794m. Speed=0.792000m/h.</desc>
<speed>0.220000</speed>
</trkpt>
<trkpt lat="55.830009" lon="26.217440">
<ele>163.525513</ele>
<time>2010-07-17T12:50:57Z</time>
<desc>lat.=55.830009, lon.=26.217440, Alt.=163.525513m. Speed=1.152000m/h.</desc>
<speed>0.320000</speed>
</trkpt>
<trkpt lat="55.830006" lon="26.217445">
<ele>163.548950</ele>
<time>2010-07-17T12:50:58Z</time>
<desc>lat.=55.830006, lon.=26.217445, Alt.=163.548950m. Speed=0.720000m/h.</desc>
<speed>0.200000</speed>
</trkpt>
<trkpt lat="55.829998" lon="26.217443">
<ele>163.548950</ele>
<time>2010-07-17T12:50:59Z</time>
<desc>lat.=55.829998, lon.=26.217443, Alt.=163.548950m. Speed=0.756000m/h.</desc>
<speed>0.210000</speed>
</trkpt>
<trkpt lat="55.829990" lon="26.217449">
<ele>163.552856</ele>
<time>2010-07-17T12:51:00Z</time>
<desc>lat.=55.829990, lon.=26.217449, Alt.=163.552856m. Speed=1.044000m/h.</desc>
<speed>0.290000</speed>
</trkpt>
<trkpt lat="55.829987" lon="26.217453">
<ele>163.591919</ele>
<time>2010-07-17T12:51:01Z</time>
<desc>lat.=55.829987, lon.=26.217453, Alt.=163.591919m. Speed=1.044000m/h.</desc>
<speed>0.290000</speed>
</trkpt>
<trkpt lat="55.829987" lon="26.217453">
<ele>163.595825</ele>
<time>2010-07-17T12:51:02Z</time>
<desc>lat.=55.829987, lon.=26.217453, Alt.=163.595825m. Speed=0.504000m/h.</desc>
<speed>0.140000</speed>
</trkpt>
<trkpt lat="55.829983" lon="26.217453">
<ele>163.599731</ele>
<time>2010-07-17T12:51:03Z</time>
<desc>lat.=55.829983, lon.=26.217453, Alt.=163.599731m. Speed=0.648000m/h.</desc>
<speed>0.180000</speed>
</trkpt>
<trkpt lat="55.829983" lon="26.217453">
<ele>163.599731</ele>
<time>2010-07-17T12:51:04Z</time>
<desc>lat.=55.829983, lon.=26.217453, Alt.=163.599731m. Speed=0.180000m/h.</desc>
<speed>0.050000</speed>
</trkpt>
<trkpt lat="55.829983" lon="26.217453">
<ele>163.595825</ele>
<time>2010-07-17T12:51:05Z</time>
<desc>lat.=55.829983, lon.=26.217453, Alt.=163.595825m. Speed=0.324000m/h.</desc>
<speed>0.090000</speed>
</trkpt>
<trkpt lat="55.829983" lon="26.217451">
<ele>163.595825</ele>
<time>2010-07-17T12:51:06Z</time>
<desc>lat.=55.829983, lon.=26.217451, Alt.=163.595825m. Speed=0.432000m/h.</desc>
<speed>0.120000</speed>
</trkpt>
<trkpt lat="55.829983" lon="26.217451">
<ele>163.591919</ele>
<time>2010-07-17T12:51:07Z</time>
<desc>lat.=55.829983, lon.=26.217451, Alt.=163.591919m. Speed=0.720000m/h.</desc>
<speed>0.200000</speed>
</trkpt>
<trkpt lat="55.829983" lon="26.217449">
<ele>163.591919</ele>
<time>2010-07-17T12:51:08Z</time>
<desc>lat.=55.829983, lon.=26.217449, Alt.=163.591919m. Speed=0.180000m/h.</desc>
<speed>0.050000</speed>
</trkpt>
<trkpt lat="55.829983" lon="26.217449">
<ele>163.591919</ele>
<time>2010-07-17T12:51:09Z</time>
<desc>lat.=55.829983, lon.=26.217449, Alt.=163.591919m. Speed=0.324000m/h.</desc>
<speed>0.090000</speed>
</trkpt>
<trkpt lat="55.829979" lon="26.217449">
<ele>163.591919</ele>
<time>2010-07-17T12:51:10Z</time>
<desc>lat.=55.829979, lon.=26.217449, Alt.=163.591919m. Speed=0.360000m/h.</desc>
<speed>0.100000</speed>
</trkpt>
<trkpt lat="55.829979" lon="26.217447">
<ele>163.595825</ele>
<time>2010-07-17T12:51:11Z</time>
<desc>lat.=55.829979, lon.=26.217447, Alt.=163.595825m. Speed=1.044000m/h.</desc>
<speed>0.290000</speed>
</trkpt>
<trkpt lat="55.829979" lon="26.217447">
<ele>163.599731</ele>
<time>2010-07-17T12:51:12Z</time>
<desc>lat.=55.829979, lon.=26.217447, Alt.=163.599731m. Speed=0.972000m/h.</desc>
<speed>0.270000</speed>
</trkpt>
<trkpt lat="55.829975" lon="26.217445">
<ele>163.607544</ele>
<time>2010-07-17T12:51:13Z</time>
<desc>lat.=55.829975, lon.=26.217445, Alt.=163.607544m. Speed=0.540000m/h.</desc>
<speed>0.150000</speed>
</trkpt>
<trkpt lat="55.829975" lon="26.217443">
<ele>163.611450</ele>
<time>2010-07-17T12:51:14Z</time>
<desc>lat.=55.829975, lon.=26.217443, Alt.=163.611450m. Speed=0.324000m/h.</desc>
<speed>0.090000</speed>
</trkpt>
<trkpt lat="55.829975" lon="26.217443">
<ele>163.615356</ele>
<time>2010-07-17T12:51:15Z</time>
<desc>lat.=55.829975, lon.=26.217443, Alt.=163.615356m. Speed=0.468000m/h.</desc>
<speed>0.130000</speed>
</trkpt>
<trkpt lat="55.829975" lon="26.217442">
<ele>163.615356</ele>
<time>2010-07-17T12:51:16Z</time>
<desc>lat.=55.829975, lon.=26.217442, Alt.=163.615356m. Speed=0.468000m/h.</desc>
<speed>0.130000</speed>
</trkpt>
<trkpt lat="55.829975" lon="26.217442">
<ele>163.619263</ele>
<time>2010-07-17T12:51:17Z</time>
<desc>lat.=55.829975, lon.=26.217442, Alt.=163.619263m. Speed=0.144000m/h.</desc>
<speed>0.040000</speed>
</trkpt>
<trkpt lat="55.829975" lon="26.217442">
<ele>163.619263</ele>
<time>2010-07-17T12:51:18Z</time>
<desc>lat.=55.829975, lon.=26.217442, Alt.=163.619263m. Speed=0.288000m/h.</desc>
<speed>0.080000</speed>
</trkpt>
<trkpt lat="55.829975" lon="26.217443">
<ele>163.611450</ele>
<time>2010-07-17T12:51:19Z</time>
<desc>lat.=55.829975, lon.=26.217443, Alt.=163.611450m. Speed=0.000000m/h.</desc>
<speed>0.000000</speed>
</trkpt>
<trkpt lat="55.829975" lon="26.217443">
<ele>163.603638</ele>
<time>2010-07-17T12:51:20Z</time>
<desc>lat.=55.829975, lon.=26.217443, Alt.=163.603638m. Speed=0.828000m/h.</desc>
<speed>0.230000</speed>
</trkpt>
<trkpt lat="55.829979" lon="26.217442">
<ele>163.603638</ele>
<time>2010-07-17T12:51:21Z</time>
<desc>lat.=55.829979, lon.=26.217442, Alt.=163.603638m. Speed=0.360000m/h.</desc>
<speed>0.100000</speed>
</trkpt>
<trkpt lat="55.829979" lon="26.217443">
<ele>163.603638</ele>
<time>2010-07-17T12:51:22Z</time>
<desc>lat.=55.829979, lon.=26.217443, Alt.=163.603638m. Speed=0.288000m/h.</desc>
<speed>0.080000</speed>
</trkpt>
<trkpt lat="55.829979" lon="26.217443">
<ele>163.603638</ele>
<time>2010-07-17T12:51:23Z</time>
<desc>lat.=55.829979, lon.=26.217443, Alt.=163.603638m. Speed=0.144000m/h.</desc>
<speed>0.040000</speed>
</trkpt>
<trkpt lat="55.829979" lon="26.217442">
<ele>163.599731</ele>
<time>2010-07-17T12:51:24Z</time>
<desc>lat.=55.829979, lon.=26.217442, Alt.=163.599731m. Speed=0.540000m/h.</desc>
<speed>0.150000</speed>
</trkpt>
<trkpt lat="55.829979" lon="26.217443">
<ele>163.595825</ele>
<time>2010-07-17T12:51:25Z</time>
<desc>lat.=55.829979, lon.=26.217443, Alt.=163.595825m. Speed=0.828000m/h.</desc>
<speed>0.230000</speed>
</trkpt>
<trkpt lat="55.829983" lon="26.217445">
<ele>163.591919</ele>
<time>2010-07-17T12:51:26Z</time>
<desc>lat.=55.829983, lon.=26.217445, Alt.=163.591919m. Speed=0.504000m/h.</desc>
<speed>0.140000</speed>
</trkpt>
<trkpt lat="55.829983" lon="26.217447">
<ele>163.591919</ele>
<time>2010-07-17T12:51:27Z</time>
<desc>lat.=55.829983, lon.=26.217447, Alt.=163.591919m. Speed=0.576000m/h.</desc>
<speed>0.160000</speed>
</trkpt>
<trkpt lat="55.829983" lon="26.217445">
<ele>163.599731</ele>
<time>2010-07-17T12:51:28Z</time>
<desc>lat.=55.829983, lon.=26.217445, Alt.=163.599731m. Speed=0.180000m/h.</desc>
<speed>0.050000</speed>
</trkpt>
<trkpt lat="55.829979" lon="26.217445">
<ele>163.603638</ele>
<time>2010-07-17T12:51:29Z</time>
<desc>lat.=55.829979, lon.=26.217445, Alt.=163.603638m. Speed=0.036000m/h.</desc>
<speed>0.010000</speed>
</trkpt>
<trkpt lat="55.829979" lon="26.217447">
<ele>163.611450</ele>
<time>2010-07-17T12:51:30Z</time>
<desc>lat.=55.829979, lon.=26.217447, Alt.=163.611450m. Speed=0.108000m/h.</desc>
<speed>0.030000</speed>
</trkpt>
<trkpt lat="55.829979" lon="26.217447">
<ele>163.619263</ele>
<time>2010-07-17T12:51:31Z</time>
<desc>lat.=55.829979, lon.=26.217447, Alt.=163.619263m. Speed=0.108000m/h.</desc>
<speed>0.030000</speed>
</trkpt>
<trkpt lat="55.829979" lon="26.217447">
<ele>163.623169</ele>
<time>2010-07-17T12:51:32Z</time>
<desc>lat.=55.829979, lon.=26.217447, Alt.=163.623169m. Speed=0.180000m/h.</desc>
<speed>0.050000</speed>
</trkpt>
<trkpt lat="55.829979" lon="26.217445">
<ele>163.630981</ele>
<time>2010-07-17T12:51:33Z</time>
<desc>lat.=55.829979, lon.=26.217445, Alt.=163.630981m. Speed=0.252000m/h.</desc>
<speed>0.070000</speed>
</trkpt>
<trkpt lat="55.829979" lon="26.217447">
<ele>163.634888</ele>
<time>2010-07-17T12:51:34Z</time>
<desc>lat.=55.829979, lon.=26.217447, Alt.=163.634888m. Speed=0.288000m/h.</desc>
<speed>0.080000</speed>
</trkpt>
<trkpt lat="55.829979" lon="26.217449">
<ele>163.646606</ele>
<time>2010-07-17T12:51:35Z</time>
<desc>lat.=55.829979, lon.=26.217449, Alt.=163.646606m. Speed=0.504000m/h.</desc>
<speed>0.140000</speed>
</trkpt>
<trkpt lat="55.829979" lon="26.217451">
<ele>163.658325</ele>
<time>2010-07-17T12:51:36Z</time>
<desc>lat.=55.829979, lon.=26.217451, Alt.=163.658325m. Speed=0.900000m/h.</desc>
<speed>0.250000</speed>
</trkpt>
<trkpt lat="55.829979" lon="26.217455">
<ele>163.670044</ele>
<time>2010-07-17T12:51:37Z</time>
<desc>lat.=55.829979, lon.=26.217455, Alt.=163.670044m. Speed=0.720000m/h.</desc>
<speed>0.200000</speed>
</trkpt>
<trkpt lat="55.829979" lon="26.217459">
<ele>163.685669</ele>
<time>2010-07-17T12:51:38Z</time>
<desc>lat.=55.829979, lon.=26.217459, Alt.=163.685669m. Speed=0.684000m/h.</desc>
<speed>0.190000</speed>
</trkpt>
<trkpt lat="55.829983" lon="26.217461">
<ele>163.693481</ele>
<time>2010-07-17T12:51:39Z</time>
<desc>lat.=55.829983, lon.=26.217461, Alt.=163.693481m. Speed=1.080000m/h.</desc>
<speed>0.300000</speed>
</trkpt>
<trkpt lat="55.829979" lon="26.217466">
<ele>163.603638</ele>
<time>2010-07-17T12:51:40Z</time>
<desc>lat.=55.829979, lon.=26.217466, Alt.=163.603638m. Speed=0.792000m/h.</desc>
<speed>0.220000</speed>
</trkpt>
<trkpt lat="55.829983" lon="26.217476">
<ele>163.658325</ele>
<time>2010-07-17T12:51:41Z</time>
<desc>lat.=55.829983, lon.=26.217476, Alt.=163.658325m. Speed=0.972000m/h.</desc>
<speed>0.270000</speed>
</trkpt>
<trkpt lat="55.829979" lon="26.217478">
<ele>163.713013</ele>
<time>2010-07-17T12:51:42Z</time>
<desc>lat.=55.829979, lon.=26.217478, Alt.=163.713013m. Speed=0.432000m/h.</desc>
<speed>0.120000</speed>
</trkpt>
<trkpt lat="55.829979" lon="26.217489">
<ele>163.818481</ele>
<time>2010-07-17T12:51:43Z</time>
<desc>lat.=55.829979, lon.=26.217489, Alt.=163.818481m. Speed=0.792000m/h.</desc>
<speed>0.220000</speed>
</trkpt>
<trkpt lat="55.829983" lon="26.217491">
<ele>163.826294</ele>
<time>2010-07-17T12:51:44Z</time>
<desc>lat.=55.829983, lon.=26.217491, Alt.=163.826294m. Speed=0.576000m/h.</desc>
<speed>0.160000</speed>
</trkpt>
<trkpt lat="55.829983" lon="26.217493">
<ele>163.838013</ele>
<time>2010-07-17T12:51:45Z</time>
<desc>lat.=55.829983, lon.=26.217493, Alt.=163.838013m. Speed=0.972000m/h.</desc>
<speed>0.270000</speed>
</trkpt>
<trkpt lat="55.829983" lon="26.217497">
<ele>163.857544</ele>
<time>2010-07-17T12:51:46Z</time>
<desc>lat.=55.829983, lon.=26.217497, Alt.=163.857544m. Speed=0.072000m/h.</desc>
<speed>0.020000</speed>
</trkpt>
<trkpt lat="55.829983" lon="26.217499">
<ele>163.873169</ele>
<time>2010-07-17T12:51:47Z</time>
<desc>lat.=55.829983, lon.=26.217499, Alt.=163.873169m. Speed=0.648000m/h.</desc>
<speed>0.180000</speed>
</trkpt>
<trkpt lat="55.829987" lon="26.217499">
<ele>163.888794</ele>
<time>2010-07-17T12:51:48Z</time>
<desc>lat.=55.829987, lon.=26.217499, Alt.=163.888794m. Speed=0.936000m/h.</desc>
<speed>0.260000</speed>
</trkpt>
<trkpt lat="55.829987" lon="26.217503">
<ele>163.904419</ele>
<time>2010-07-17T12:51:49Z</time>
<desc>lat.=55.829987, lon.=26.217503, Alt.=163.904419m. Speed=0.720000m/h.</desc>
<speed>0.200000</speed>
</trkpt>
<trkpt lat="55.829987" lon="26.217506">
<ele>163.920044</ele>
<time>2010-07-17T12:51:50Z</time>
<desc>lat.=55.829987, lon.=26.217506, Alt.=163.920044m. Speed=0.144000m/h.</desc>
<speed>0.040000</speed>
</trkpt>
<trkpt lat="55.829987" lon="26.217506">
<ele>163.935669</ele>
<time>2010-07-17T12:51:51Z</time>
<desc>lat.=55.829987, lon.=26.217506, Alt.=163.935669m. Speed=0.216000m/h.</desc>
<speed>0.060000</speed>
</trkpt>
<trkpt lat="55.829987" lon="26.217506">
<ele>163.951294</ele>
<time>2010-07-17T12:51:52Z</time>
<desc>lat.=55.829987, lon.=26.217506, Alt.=163.951294m. Speed=0.684000m/h.</desc>
<speed>0.190000</speed>
</trkpt>
<trkpt lat="55.829987" lon="26.217503">
<ele>163.966919</ele>
<time>2010-07-17T12:51:53Z</time>
<desc>lat.=55.829987, lon.=26.217503, Alt.=163.966919m. Speed=1.008000m/h.</desc>
<speed>0.280000</speed>
</trkpt>
<trkpt lat="55.829987" lon="26.217501">
<ele>163.986450</ele>
<time>2010-07-17T12:51:54Z</time>
<desc>lat.=55.829987, lon.=26.217501, Alt.=163.986450m. Speed=1.692000m/h.</desc>
<speed>0.470000</speed>
</trkpt>
<trkpt lat="55.829994" lon="26.217506">
<ele>164.013794</ele>
<time>2010-07-17T12:51:55Z</time>
<desc>lat.=55.829994, lon.=26.217506, Alt.=164.013794m. Speed=1.728000m/h.</desc>
<speed>0.480000</speed>
</trkpt>
<trkpt lat="55.830002" lon="26.217512">
<ele>164.037231</ele>
<time>2010-07-17T12:51:56Z</time>
<desc>lat.=55.830002, lon.=26.217512, Alt.=164.037231m. Speed=1.008000m/h.</desc>
<speed>0.280000</speed>
</trkpt>
<trkpt lat="55.830002" lon="26.217510">
<ele>164.185669</ele>
<time>2010-07-17T12:51:57Z</time>
<desc>lat.=55.830002, lon.=26.217510, Alt.=164.185669m. Speed=1.512000m/h.</desc>
<speed>0.420000</speed>
</trkpt>
<trkpt lat="55.830002" lon="26.217506">
<ele>164.373169</ele>
<time>2010-07-17T12:51:58Z</time>
<desc>lat.=55.830002, lon.=26.217506, Alt.=164.373169m. Speed=1.332000m/h.</desc>
<speed>0.370000</speed>
</trkpt>
<trkpt lat="55.830006" lon="26.217518">
<ele>164.306763</ele>
<time>2010-07-17T12:51:59Z</time>
<desc>lat.=55.830006, lon.=26.217518, Alt.=164.306763m. Speed=0.864000m/h.</desc>
<speed>0.240000</speed>
</trkpt>
<trkpt lat="55.830009" lon="26.217518">
<ele>164.353638</ele>
<time>2010-07-17T12:52:00Z</time>
<desc>lat.=55.830009, lon.=26.217518, Alt.=164.353638m. Speed=0.900000m/h.</desc>
<speed>0.250000</speed>
</trkpt>
<trkpt lat="55.830009" lon="26.217514">
<ele>164.537231</ele>
<time>2010-07-17T12:52:01Z</time>
<desc>lat.=55.830009, lon.=26.217514, Alt.=164.537231m. Speed=0.756000m/h.</desc>
<speed>0.210000</speed>
</trkpt>
<trkpt lat="55.830009" lon="26.217522">
<ele>164.455200</ele>
<time>2010-07-17T12:52:02Z</time>
<desc>lat.=55.830009, lon.=26.217522, Alt.=164.455200m. Speed=0.432000m/h.</desc>
<speed>0.120000</speed>
</trkpt>
<trkpt lat="55.830009" lon="26.217522">
<ele>164.494263</ele>
<time>2010-07-17T12:52:03Z</time>
<desc>lat.=55.830009, lon.=26.217522, Alt.=164.494263m. Speed=0.756000m/h.</desc>
<speed>0.210000</speed>
</trkpt>
<trkpt lat="55.830009" lon="26.217522">
<ele>164.525513</ele>
<time>2010-07-17T12:52:04Z</time>
<desc>lat.=55.830009, lon.=26.217522, Alt.=164.525513m. Speed=0.432000m/h.</desc>
<speed>0.120000</speed>
</trkpt>
<trkpt lat="55.830009" lon="26.217524">
<ele>164.548950</ele>
<time>2010-07-17T12:52:05Z</time>
<desc>lat.=55.830009, lon.=26.217524, Alt.=164.548950m. Speed=0.792000m/h.</desc>
<speed>0.220000</speed>
</trkpt>
<trkpt lat="55.830009" lon="26.217525">
<ele>164.576294</ele>
<time>2010-07-17T12:52:06Z</time>
<desc>lat.=55.830009, lon.=26.217525, Alt.=164.576294m. Speed=1.080000m/h.</desc>
<speed>0.300000</speed>
</trkpt>
<trkpt lat="55.830009" lon="26.217527">
<ele>164.630981</ele>
<time>2010-07-17T12:52:07Z</time>
<desc>lat.=55.830009, lon.=26.217527, Alt.=164.630981m. Speed=0.720000m/h.</desc>
<speed>0.200000</speed>
</trkpt>
<trkpt lat="55.830009" lon="26.217520">
<ele>164.548950</ele>
<time>2010-07-17T12:52:08Z</time>
<desc>lat.=55.830009, lon.=26.217520, Alt.=164.548950m. Speed=0.684000m/h.</desc>
<speed>0.190000</speed>
</trkpt>
<trkpt lat="55.830006" lon="26.217522">
<ele>164.568481</ele>
<time>2010-07-17T12:52:09Z</time>
<desc>lat.=55.830006, lon.=26.217522, Alt.=164.568481m. Speed=0.288000m/h.</desc>
<speed>0.080000</speed>
</trkpt>
<trkpt lat="55.830006" lon="26.217518">
<ele>164.576294</ele>
<time>2010-07-17T12:52:10Z</time>
<desc>lat.=55.830006, lon.=26.217518, Alt.=164.576294m. Speed=0.900000m/h.</desc>
<speed>0.250000</speed>
</trkpt>
<trkpt lat="55.830002" lon="26.217516">
<ele>164.595825</ele>
<time>2010-07-17T12:52:11Z</time>
<desc>lat.=55.830002, lon.=26.217516, Alt.=164.595825m. Speed=0.540000m/h.</desc>
<speed>0.150000</speed>
</trkpt>
<trkpt lat="55.830002" lon="26.217516">
<ele>164.619263</ele>
<time>2010-07-17T12:52:12Z</time>
<desc>lat.=55.830002, lon.=26.217516, Alt.=164.619263m. Speed=0.324000m/h.</desc>
<speed>0.090000</speed>
</trkpt>
<trkpt lat="55.830002" lon="26.217516">
<ele>164.638794</ele>
<time>2010-07-17T12:52:13Z</time>
<desc>lat.=55.830002, lon.=26.217516, Alt.=164.638794m. Speed=0.756000m/h.</desc>
<speed>0.210000</speed>
</trkpt>
<trkpt lat="55.829998" lon="26.217518">
<ele>164.658325</ele>
<time>2010-07-17T12:52:14Z</time>
<desc>lat.=55.829998, lon.=26.217518, Alt.=164.658325m. Speed=0.936000m/h.</desc>
<speed>0.260000</speed>
</trkpt>
<trkpt lat="55.829998" lon="26.217522">
<ele>164.673950</ele>
<time>2010-07-17T12:52:15Z</time>
<desc>lat.=55.829998, lon.=26.217522, Alt.=164.673950m. Speed=0.792000m/h.</desc>
<speed>0.220000</speed>
</trkpt>
<trkpt lat="55.829994" lon="26.217524">
<ele>164.685669</ele>
<time>2010-07-17T12:52:16Z</time>
<desc>lat.=55.829994, lon.=26.217524, Alt.=164.685669m. Speed=1.476000m/h.</desc>
<speed>0.410000</speed>
</trkpt>
<trkpt lat="55.829987" lon="26.217522">
<ele>164.759888</ele>
<time>2010-07-17T12:52:17Z</time>
<desc>lat.=55.829987, lon.=26.217522, Alt.=164.759888m. Speed=2.052000m/h.</desc>
<speed>0.570000</speed>
</trkpt>
<trkpt lat="55.829987" lon="26.217520">
<ele>164.920044</ele>
<time>2010-07-17T12:52:18Z</time>
<desc>lat.=55.829987, lon.=26.217520, Alt.=164.920044m. Speed=1.296000m/h.</desc>
<speed>0.360000</speed>
</trkpt>
<trkpt lat="55.829987" lon="26.217510">
<ele>165.091919</ele>
<time>2010-07-17T12:52:19Z</time>
<desc>lat.=55.829987, lon.=26.217510, Alt.=165.091919m. Speed=0.648000m/h.</desc>
<speed>0.180000</speed>
</trkpt>
<trkpt lat="55.829994" lon="26.217505">
<ele>165.240356</ele>
<time>2010-07-17T12:52:20Z</time>
<desc>lat.=55.829994, lon.=26.217505, Alt.=165.240356m. Speed=0.900000m/h.</desc>
<speed>0.250000</speed>
</trkpt>
<trkpt lat="55.830002" lon="26.217497">
<ele>165.306763</ele>
<time>2010-07-17T12:52:21Z</time>
<desc>lat.=55.830002, lon.=26.217497, Alt.=165.306763m. Speed=1.476000m/h.</desc>
<speed>0.410000</speed>
</trkpt>
<trkpt lat="55.830002" lon="26.217484">
<ele>165.244263</ele>
<time>2010-07-17T12:52:22Z</time>
<desc>lat.=55.830002, lon.=26.217484, Alt.=165.244263m. Speed=0.828000m/h.</desc>
<speed>0.230000</speed>
</trkpt>
<trkpt lat="55.830006" lon="26.217472">
<ele>165.166138</ele>
<time>2010-07-17T12:52:23Z</time>
<desc>lat.=55.830006, lon.=26.217472, Alt.=165.166138m. Speed=0.972000m/h.</desc>
<speed>0.270000</speed>
</trkpt>
<trkpt lat="55.830009" lon="26.217463">
<ele>165.091919</ele>
<time>2010-07-17T12:52:24Z</time>
<desc>lat.=55.830009, lon.=26.217463, Alt.=165.091919m. Speed=1.296000m/h.</desc>
<speed>0.360000</speed>
</trkpt>
<trkpt lat="55.830013" lon="26.217463">
<ele>165.150513</ele>
<time>2010-07-17T12:52:25Z</time>
<desc>lat.=55.830013, lon.=26.217463, Alt.=165.150513m. Speed=1.224000m/h.</desc>
<speed>0.340000</speed>
</trkpt>
<trkpt lat="55.830009" lon="26.217470">
<ele>165.209106</ele>
<time>2010-07-17T12:52:26Z</time>
<desc>lat.=55.830009, lon.=26.217470, Alt.=165.209106m. Speed=0.468000m/h.</desc>
<speed>0.130000</speed>
</trkpt>
<trkpt lat="55.830013" lon="26.217485">
<ele>165.259888</ele>
<time>2010-07-17T12:52:27Z</time>
<desc>lat.=55.830013, lon.=26.217485, Alt.=165.259888m. Speed=0.972000m/h.</desc>
<speed>0.270000</speed>
</trkpt>
<trkpt lat="55.830021" lon="26.217491">
<ele>165.369263</ele>
<time>2010-07-17T12:52:28Z</time>
<desc>lat.=55.830021, lon.=26.217491, Alt.=165.369263m. Speed=1.872000m/h.</desc>
<speed>0.520000</speed>
</trkpt>
<trkpt lat="55.830017" lon="26.217491">
<ele>165.380981</ele>
<time>2010-07-17T12:52:29Z</time>
<desc>lat.=55.830017, lon.=26.217491, Alt.=165.380981m. Speed=1.224000m/h.</desc>
<speed>0.340000</speed>
</trkpt>
<trkpt lat="55.830025" lon="26.217497">
<ele>165.267700</ele>
<time>2010-07-17T12:52:30Z</time>
<desc>lat.=55.830025, lon.=26.217497, Alt.=165.267700m. Speed=1.332000m/h.</desc>
<speed>0.370000</speed>
</trkpt>
<trkpt lat="55.830017" lon="26.217497">
<ele>165.029419</ele>
<time>2010-07-17T12:52:31Z</time>
<desc>lat.=55.830017, lon.=26.217497, Alt.=165.029419m. Speed=0.864000m/h.</desc>
<speed>0.240000</speed>
</trkpt>
<trkpt lat="55.830017" lon="26.217491">
<ele>164.845825</ele>
<time>2010-07-17T12:52:32Z</time>
<desc>lat.=55.830017, lon.=26.217491, Alt.=164.845825m. Speed=0.324000m/h.</desc>
<speed>0.090000</speed>
</trkpt>
<trkpt lat="55.830013" lon="26.217491">
<ele>164.646606</ele>
<time>2010-07-17T12:52:33Z</time>
<desc>lat.=55.830013, lon.=26.217491, Alt.=164.646606m. Speed=0.180000m/h.</desc>
<speed>0.050000</speed>
</trkpt>
<trkpt lat="55.830009" lon="26.217487">
<ele>164.568481</ele>
<time>2010-07-17T12:52:34Z</time>
<desc>lat.=55.830009, lon.=26.217487, Alt.=164.568481m. Speed=0.540000m/h.</desc>
<speed>0.150000</speed>
</trkpt>
<trkpt lat="55.830009" lon="26.217485">
<ele>164.560669</ele>
<time>2010-07-17T12:52:35Z</time>
<desc>lat.=55.830009, lon.=26.217485, Alt.=164.560669m. Speed=0.468000m/h.</desc>
<speed>0.130000</speed>
</trkpt>
<trkpt lat="55.830009" lon="26.217485">
<ele>164.545044</ele>
<time>2010-07-17T12:52:36Z</time>
<desc>lat.=55.830009, lon.=26.217485, Alt.=164.545044m. Speed=0.684000m/h.</desc>
<speed>0.190000</speed>
</trkpt>
<trkpt lat="55.830009" lon="26.217482">
<ele>164.541138</ele>
<time>2010-07-17T12:52:37Z</time>
<desc>lat.=55.830009, lon.=26.217482, Alt.=164.541138m. Speed=0.324000m/h.</desc>
<speed>0.090000</speed>
</trkpt>
<trkpt lat="55.830009" lon="26.217480">
<ele>164.537231</ele>
<time>2010-07-17T12:52:38Z</time>
<desc>lat.=55.830009, lon.=26.217480, Alt.=164.537231m. Speed=0.324000m/h.</desc>
<speed>0.090000</speed>
</trkpt>
<trkpt lat="55.830009" lon="26.217478">
<ele>164.525513</ele>
<time>2010-07-17T12:52:39Z</time>
<desc>lat.=55.830009, lon.=26.217478, Alt.=164.525513m. Speed=0.216000m/h.</desc>
<speed>0.060000</speed>
</trkpt>
<trkpt lat="55.830009" lon="26.217478">
<ele>164.521606</ele>
<time>2010-07-17T12:52:40Z</time>
<desc>lat.=55.830009, lon.=26.217478, Alt.=164.521606m. Speed=0.288000m/h.</desc>
<speed>0.080000</speed>
</trkpt>
<trkpt lat="55.830009" lon="26.217476">
<ele>164.517700</ele>
<time>2010-07-17T12:52:41Z</time>
<desc>lat.=55.830009, lon.=26.217476, Alt.=164.517700m. Speed=0.180000m/h.</desc>
<speed>0.050000</speed>
</trkpt>
<trkpt lat="55.830009" lon="26.217476">
<ele>164.509888</ele>
<time>2010-07-17T12:52:42Z</time>
<desc>lat.=55.830009, lon.=26.217476, Alt.=164.509888m. Speed=0.144000m/h.</desc>
<speed>0.040000</speed>
</trkpt>
<trkpt lat="55.830009" lon="26.217476">
<ele>164.502075</ele>
<time>2010-07-17T12:52:43Z</time>
<desc>lat.=55.830009, lon.=26.217476, Alt.=164.502075m. Speed=0.072000m/h.</desc>
<speed>0.020000</speed>
</trkpt>
<trkpt lat="55.830009" lon="26.217474">
<ele>164.494263</ele>
<time>2010-07-17T12:52:44Z</time>
<desc>lat.=55.830009, lon.=26.217474, Alt.=164.494263m. Speed=0.468000m/h.</desc>
<speed>0.130000</speed>
</trkpt>
<trkpt lat="55.830009" lon="26.217474">
<ele>164.490356</ele>
<time>2010-07-17T12:52:45Z</time>
<desc>lat.=55.830009, lon.=26.217474, Alt.=164.490356m. Speed=0.252000m/h.</desc>
<speed>0.070000</speed>
</trkpt>
<trkpt lat="55.830009" lon="26.217474">
<ele>164.486450</ele>
<time>2010-07-17T12:52:46Z</time>
<desc>lat.=55.830009, lon.=26.217474, Alt.=164.486450m. Speed=0.252000m/h.</desc>
<speed>0.070000</speed>
</trkpt>
<trkpt lat="55.830009" lon="26.217474">
<ele>164.482544</ele>
<time>2010-07-17T12:52:47Z</time>
<desc>lat.=55.830009, lon.=26.217474, Alt.=164.482544m. Speed=0.432000m/h.</desc>
<speed>0.120000</speed>
</trkpt>
<trkpt lat="55.830009" lon="26.217476">
<ele>164.478638</ele>
<time>2010-07-17T12:52:48Z</time>
<desc>lat.=55.830009, lon.=26.217476, Alt.=164.478638m. Speed=0.432000m/h.</desc>
<speed>0.120000</speed>
</trkpt>
<trkpt lat="55.830009" lon="26.217474">
<ele>164.482544</ele>
<time>2010-07-17T12:52:49Z</time>
<desc>lat.=55.830009, lon.=26.217474, Alt.=164.482544m. Speed=0.324000m/h.</desc>
<speed>0.090000</speed>
</trkpt>
<trkpt lat="55.830009" lon="26.217472">
<ele>164.482544</ele>
<time>2010-07-17T12:52:50Z</time>
<desc>lat.=55.830009, lon.=26.217472, Alt.=164.482544m. Speed=0.684000m/h.</desc>
<speed>0.190000</speed>
</trkpt>
<trkpt lat="55.830013" lon="26.217472">
<ele>164.482544</ele>
<time>2010-07-17T12:52:51Z</time>
<desc>lat.=55.830013, lon.=26.217472, Alt.=164.482544m. Speed=0.468000m/h.</desc>
<speed>0.130000</speed>
</trkpt>
<trkpt lat="55.830013" lon="26.217470">
<ele>164.486450</ele>
<time>2010-07-17T12:52:52Z</time>
<desc>lat.=55.830013, lon.=26.217470, Alt.=164.486450m. Speed=0.144000m/h.</desc>
<speed>0.040000</speed>
</trkpt>
<trkpt lat="55.830013" lon="26.217472">
<ele>164.490356</ele>
<time>2010-07-17T12:52:53Z</time>
<desc>lat.=55.830013, lon.=26.217472, Alt.=164.490356m. Speed=0.396000m/h.</desc>
<speed>0.110000</speed>
</trkpt>
<trkpt lat="55.830013" lon="26.217472">
<ele>164.494263</ele>
<time>2010-07-17T12:52:54Z</time>
<desc>lat.=55.830013, lon.=26.217472, Alt.=164.494263m. Speed=0.324000m/h.</desc>
<speed>0.090000</speed>
</trkpt>
<trkpt lat="55.830013" lon="26.217474">
<ele>164.494263</ele>
<time>2010-07-17T12:52:55Z</time>
<desc>lat.=55.830013, lon.=26.217474, Alt.=164.494263m. Speed=0.432000m/h.</desc>
<speed>0.120000</speed>
</trkpt>
<trkpt lat="55.830013" lon="26.217474">
<ele>164.498169</ele>
<time>2010-07-17T12:52:56Z</time>
<desc>lat.=55.830013, lon.=26.217474, Alt.=164.498169m. Speed=0.684000m/h.</desc>
<speed>0.190000</speed>
</trkpt>
<trkpt lat="55.830017" lon="26.217474">
<ele>164.505981</ele>
<time>2010-07-17T12:52:57Z</time>
<desc>lat.=55.830017, lon.=26.217474, Alt.=164.505981m. Speed=0.612000m/h.</desc>
<speed>0.170000</speed>
</trkpt>
<trkpt lat="55.830017" lon="26.217472">
<ele>164.513794</ele>
<time>2010-07-17T12:52:58Z</time>
<desc>lat.=55.830017, lon.=26.217472, Alt.=164.513794m. Speed=0.504000m/h.</desc>
<speed>0.140000</speed>
</trkpt>
<trkpt lat="55.830021" lon="26.217472">
<ele>164.513794</ele>
<time>2010-07-17T12:52:59Z</time>
<desc>lat.=55.830021, lon.=26.217472, Alt.=164.513794m. Speed=0.684000m/h.</desc>
<speed>0.190000</speed>
</trkpt>
<trkpt lat="55.830017" lon="26.217474">
<ele>164.513794</ele>
<time>2010-07-17T12:53:00Z</time>
<desc>lat.=55.830017, lon.=26.217474, Alt.=164.513794m. Speed=0.900000m/h.</desc>
<speed>0.250000</speed>
</trkpt>
<trkpt lat="55.830017" lon="26.217478">
<ele>164.509888</ele>
<time>2010-07-17T12:53:01Z</time>
<desc>lat.=55.830017, lon.=26.217478, Alt.=164.509888m. Speed=1.044000m/h.</desc>
<speed>0.290000</speed>
</trkpt>
<trkpt lat="55.830013" lon="26.217482">
<ele>164.509888</ele>
<time>2010-07-17T12:53:02Z</time>
<desc>lat.=55.830013, lon.=26.217482, Alt.=164.509888m. Speed=1.008000m/h.</desc>
<speed>0.280000</speed>
</trkpt>
<trkpt lat="55.830013" lon="26.217485">
<ele>164.509888</ele>
<time>2010-07-17T12:53:03Z</time>
<desc>lat.=55.830013, lon.=26.217485, Alt.=164.509888m. Speed=1.188000m/h.</desc>
<speed>0.330000</speed>
</trkpt>
<trkpt lat="55.830006" lon="26.217468">
<ele>164.634888</ele>
<time>2010-07-17T12:53:04Z</time>
<desc>lat.=55.830006, lon.=26.217468, Alt.=164.634888m. Speed=0.648000m/h.</desc>
<speed>0.180000</speed>
</trkpt>
<trkpt lat="55.829998" lon="26.217459">
<ele>164.693481</ele>
<time>2010-07-17T12:53:05Z</time>
<desc>lat.=55.829998, lon.=26.217459, Alt.=164.693481m. Speed=0.612000m/h.</desc>
<speed>0.170000</speed>
</trkpt>
<trkpt lat="55.829990" lon="26.217447">
<ele>164.884888</ele>
<time>2010-07-17T12:53:06Z</time>
<desc>lat.=55.829990, lon.=26.217447, Alt.=164.884888m. Speed=0.792000m/h.</desc>
<speed>0.220000</speed>
</trkpt>
<trkpt lat="55.829987" lon="26.217451">
<ele>165.025513</ele>
<time>2010-07-17T12:53:07Z</time>
<desc>lat.=55.829987, lon.=26.217451, Alt.=165.025513m. Speed=0.324000m/h.</desc>
<speed>0.090000</speed>
</trkpt>
<trkpt lat="55.829987" lon="26.217451">
<ele>165.041138</ele>
<time>2010-07-17T12:53:08Z</time>
<desc>lat.=55.829987, lon.=26.217451, Alt.=165.041138m. Speed=0.396000m/h.</desc>
<speed>0.110000</speed>
</trkpt>
<trkpt lat="55.829987" lon="26.217451">
<ele>165.052856</ele>
<time>2010-07-17T12:53:09Z</time>
<desc>lat.=55.829987, lon.=26.217451, Alt.=165.052856m. Speed=0.684000m/h.</desc>
<speed>0.190000</speed>
</trkpt>
<trkpt lat="55.829987" lon="26.217451">
<ele>165.060669</ele>
<time>2010-07-17T12:53:10Z</time>
<desc>lat.=55.829987, lon.=26.217451, Alt.=165.060669m. Speed=0.180000m/h.</desc>
<speed>0.050000</speed>
</trkpt>
<trkpt lat="55.829983" lon="26.217451">
<ele>165.068481</ele>
<time>2010-07-17T12:53:11Z</time>
<desc>lat.=55.829983, lon.=26.217451, Alt.=165.068481m. Speed=0.900000m/h.</desc>
<speed>0.250000</speed>
</trkpt>
<trkpt lat="55.829983" lon="26.217455">
<ele>165.072388</ele>
<time>2010-07-17T12:53:12Z</time>
<desc>lat.=55.829983, lon.=26.217455, Alt.=165.072388m. Speed=1.152000m/h.</desc>
<speed>0.320000</speed>
</trkpt>
<trkpt lat="55.829975" lon="26.217449">
<ele>164.990356</ele>
<time>2010-07-17T12:53:13Z</time>
<desc>lat.=55.829975, lon.=26.217449, Alt.=164.990356m. Speed=1.044000m/h.</desc>
<speed>0.290000</speed>
</trkpt>
<trkpt lat="55.829971" lon="26.217443">
<ele>164.931763</ele>
<time>2010-07-17T12:53:14Z</time>
<desc>lat.=55.829971, lon.=26.217443, Alt.=164.931763m. Speed=0.936000m/h.</desc>
<speed>0.260000</speed>
</trkpt>
<trkpt lat="55.829964" lon="26.217445">
<ele>164.990356</ele>
<time>2010-07-17T12:53:15Z</time>
<desc>lat.=55.829964, lon.=26.217445, Alt.=164.990356m. Speed=1.044000m/h.</desc>
<speed>0.290000</speed>
</trkpt>
<trkpt lat="55.829960" lon="26.217449">
<ele>165.146606</ele>
<time>2010-07-17T12:53:16Z</time>
<desc>lat.=55.829960, lon.=26.217449, Alt.=165.146606m. Speed=1.080000m/h.</desc>
<speed>0.300000</speed>
</trkpt>
<trkpt lat="55.829960" lon="26.217442">
<ele>165.248169</ele>
<time>2010-07-17T12:53:17Z</time>
<desc>lat.=55.829960, lon.=26.217442, Alt.=165.248169m. Speed=0.468000m/h.</desc>
<speed>0.130000</speed>
</trkpt>
<trkpt lat="55.829960" lon="26.217438">
<ele>165.177856</ele>
<time>2010-07-17T12:53:18Z</time>
<desc>lat.=55.829960, lon.=26.217438, Alt.=165.177856m. Speed=0.396000m/h.</desc>
<speed>0.110000</speed>
</trkpt>
<trkpt lat="55.829960" lon="26.217428">
<ele>165.224731</ele>
<time>2010-07-17T12:53:19Z</time>
<desc>lat.=55.829960, lon.=26.217428, Alt.=165.224731m. Speed=0.288000m/h.</desc>
<speed>0.080000</speed>
</trkpt>
<trkpt lat="55.829960" lon="26.217426">
<ele>165.213013</ele>
<time>2010-07-17T12:53:20Z</time>
<desc>lat.=55.829960, lon.=26.217426, Alt.=165.213013m. Speed=0.612000m/h.</desc>
<speed>0.170000</speed>
</trkpt>
<trkpt lat="55.829964" lon="26.217426">
<ele>165.220825</ele>
<time>2010-07-17T12:53:21Z</time>
<desc>lat.=55.829964, lon.=26.217426, Alt.=165.220825m. Speed=0.648000m/h.</desc>
<speed>0.180000</speed>
</trkpt>
<trkpt lat="55.829964" lon="26.217424">
<ele>165.228638</ele>
<time>2010-07-17T12:53:22Z</time>
<desc>lat.=55.829964, lon.=26.217424, Alt.=165.228638m. Speed=0.828000m/h.</desc>
<speed>0.230000</speed>
</trkpt>
<trkpt lat="55.829967" lon="26.217422">
<ele>165.232544</ele>
<time>2010-07-17T12:53:23Z</time>
<desc>lat.=55.829967, lon.=26.217422, Alt.=165.232544m. Speed=0.252000m/h.</desc>
<speed>0.070000</speed>
</trkpt>
<trkpt lat="55.829967" lon="26.217422">
<ele>165.240356</ele>
<time>2010-07-17T12:53:24Z</time>
<desc>lat.=55.829967, lon.=26.217422, Alt.=165.240356m. Speed=0.324000m/h.</desc>
<speed>0.090000</speed>
</trkpt>
<trkpt lat="55.829967" lon="26.217421">
<ele>165.248169</ele>
<time>2010-07-17T12:53:25Z</time>
<desc>lat.=55.829967, lon.=26.217421, Alt.=165.248169m. Speed=0.900000m/h.</desc>
<speed>0.250000</speed>
</trkpt>
<trkpt lat="55.829967" lon="26.217419">
<ele>165.255981</ele>
<time>2010-07-17T12:53:26Z</time>
<desc>lat.=55.829967, lon.=26.217419, Alt.=165.255981m. Speed=0.576000m/h.</desc>
<speed>0.160000</speed>
</trkpt>
<trkpt lat="55.829971" lon="26.217417">
<ele>165.267700</ele>
<time>2010-07-17T12:53:27Z</time>
<desc>lat.=55.829971, lon.=26.217417, Alt.=165.267700m. Speed=0.180000m/h.</desc>
<speed>0.050000</speed>
</trkpt>
<trkpt lat="55.829971" lon="26.217417">
<ele>165.271606</ele>
<time>2010-07-17T12:53:28Z</time>
<desc>lat.=55.829971, lon.=26.217417, Alt.=165.271606m. Speed=0.792000m/h.</desc>
<speed>0.220000</speed>
</trkpt>
<trkpt lat="55.829971" lon="26.217415">
<ele>165.279419</ele>
<time>2010-07-17T12:53:29Z</time>
<desc>lat.=55.829971, lon.=26.217415, Alt.=165.279419m. Speed=0.504000m/h.</desc>
<speed>0.140000</speed>
</trkpt>
<trkpt lat="55.829971" lon="26.217413">
<ele>165.283325</ele>
<time>2010-07-17T12:53:30Z</time>
<desc>lat.=55.829971, lon.=26.217413, Alt.=165.283325m. Speed=0.720000m/h.</desc>
<speed>0.200000</speed>
</trkpt>
<trkpt lat="55.829971" lon="26.217409">
<ele>165.291138</ele>
<time>2010-07-17T12:53:31Z</time>
<desc>lat.=55.829971, lon.=26.217409, Alt.=165.291138m. Speed=0.828000m/h.</desc>
<speed>0.230000</speed>
</trkpt>
<trkpt lat="55.829975" lon="26.217407">
<ele>165.291138</ele>
<time>2010-07-17T12:53:32Z</time>
<desc>lat.=55.829975, lon.=26.217407, Alt.=165.291138m. Speed=0.720000m/h.</desc>
<speed>0.200000</speed>
</trkpt>
<trkpt lat="55.829975" lon="26.217407">
<ele>165.295044</ele>
<time>2010-07-17T12:53:33Z</time>
<desc>lat.=55.829975, lon.=26.217407, Alt.=165.295044m. Speed=0.612000m/h.</desc>
<speed>0.170000</speed>
</trkpt>
<trkpt lat="55.829979" lon="26.217405">
<ele>165.298950</ele>
<time>2010-07-17T12:53:34Z</time>
<desc>lat.=55.829979, lon.=26.217405, Alt.=165.298950m. Speed=0.864000m/h.</desc>
<speed>0.240000</speed>
</trkpt>
<trkpt lat="55.829979" lon="26.217403">
<ele>165.298950</ele>
<time>2010-07-17T12:53:35Z</time>
<desc>lat.=55.829979, lon.=26.217403, Alt.=165.298950m. Speed=0.468000m/h.</desc>
<speed>0.130000</speed>
</trkpt>
<trkpt lat="55.829979" lon="26.217403">
<ele>165.287231</ele>
<time>2010-07-17T12:53:36Z</time>
<desc>lat.=55.829979, lon.=26.217403, Alt.=165.287231m. Speed=0.324000m/h.</desc>
<speed>0.090000</speed>
</trkpt>
<trkpt lat="55.829983" lon="26.217403">
<ele>165.271606</ele>
<time>2010-07-17T12:53:37Z</time>
<desc>lat.=55.829983, lon.=26.217403, Alt.=165.271606m. Speed=0.792000m/h.</desc>
<speed>0.220000</speed>
</trkpt>
<trkpt lat="55.829983" lon="26.217403">
<ele>165.255981</ele>
<time>2010-07-17T12:53:38Z</time>
<desc>lat.=55.829983, lon.=26.217403, Alt.=165.255981m. Speed=1.476000m/h.</desc>
<speed>0.410000</speed>
</trkpt>
<trkpt lat="55.829994" lon="26.217417">
<ele>164.908325</ele>
<time>2010-07-17T12:53:39Z</time>
<desc>lat.=55.829994, lon.=26.217417, Alt.=164.908325m. Speed=1.944000m/h.</desc>
<speed>0.540000</speed>
</trkpt>
<trkpt lat="55.829998" lon="26.217421">
<ele>164.677856</ele>
<time>2010-07-17T12:53:40Z</time>
<desc>lat.=55.829998, lon.=26.217421, Alt.=164.677856m. Speed=1.764000m/h.</desc>
<speed>0.490000</speed>
</trkpt>
<trkpt lat="55.830002" lon="26.217426">
<ele>164.474731</ele>
<time>2010-07-17T12:53:41Z</time>
<desc>lat.=55.830002, lon.=26.217426, Alt.=164.474731m. Speed=1.152000m/h.</desc>
<speed>0.320000</speed>
</trkpt>
<trkpt lat="55.830009" lon="26.217424">
<ele>164.283325</ele>
<time>2010-07-17T12:53:42Z</time>
<desc>lat.=55.830009, lon.=26.217424, Alt.=164.283325m. Speed=1.728000m/h.</desc>
<speed>0.480000</speed>
</trkpt>
<trkpt lat="55.830002" lon="26.217422">
<ele>164.005981</ele>
<time>2010-07-17T12:53:43Z</time>
<desc>lat.=55.830002, lon.=26.217422, Alt.=164.005981m. Speed=0.360000m/h.</desc>
<speed>0.100000</speed>
</trkpt>
<trkpt lat="55.830002" lon="26.217419">
<ele>163.990356</ele>
<time>2010-07-17T12:53:44Z</time>
<desc>lat.=55.830002, lon.=26.217419, Alt.=163.990356m. Speed=0.648000m/h.</desc>
<speed>0.180000</speed>
</trkpt>
<trkpt lat="55.829994" lon="26.217430">
<ele>163.943481</ele>
<time>2010-07-17T12:53:45Z</time>
<desc>lat.=55.829994, lon.=26.217430, Alt.=163.943481m. Speed=0.972000m/h.</desc>
<speed>0.270000</speed>
</trkpt>
<trkpt lat="55.829994" lon="26.217442">
<ele>163.834106</ele>
<time>2010-07-17T12:53:46Z</time>
<desc>lat.=55.829994, lon.=26.217442, Alt.=163.834106m. Speed=1.224000m/h.</desc>
<speed>0.340000</speed>
</trkpt>
<trkpt lat="55.829990" lon="26.217449">
<ele>163.767700</ele>
<time>2010-07-17T12:53:47Z</time>
<desc>lat.=55.829990, lon.=26.217449, Alt.=163.767700m. Speed=1.188000m/h.</desc>
<speed>0.330000</speed>
</trkpt>
<trkpt lat="55.829994" lon="26.217453">
<ele>163.642700</ele>
<time>2010-07-17T12:53:48Z</time>
<desc>lat.=55.829994, lon.=26.217453, Alt.=163.642700m. Speed=0.864000m/h.</desc>
<speed>0.240000</speed>
</trkpt>
<trkpt lat="55.829994" lon="26.217440">
<ele>163.591919</ele>
<time>2010-07-17T12:53:49Z</time>
<desc>lat.=55.829994, lon.=26.217440, Alt.=163.591919m. Speed=0.504000m/h.</desc>
<speed>0.140000</speed>
</trkpt>
<trkpt lat="55.829998" lon="26.217432">
<ele>163.502075</ele>
<time>2010-07-17T12:53:50Z</time>
<desc>lat.=55.829998, lon.=26.217432, Alt.=163.502075m. Speed=1.260000m/h.</desc>
<speed>0.350000</speed>
</trkpt>
<trkpt lat="55.829998" lon="26.217426">
<ele>163.435669</ele>
<time>2010-07-17T12:53:51Z</time>
<desc>lat.=55.829998, lon.=26.217426, Alt.=163.435669m. Speed=0.792000m/h.</desc>
<speed>0.220000</speed>
</trkpt>
<trkpt lat="55.829994" lon="26.217417">
<ele>163.338013</ele>
<time>2010-07-17T12:53:52Z</time>
<desc>lat.=55.829994, lon.=26.217417, Alt.=163.338013m. Speed=1.080000m/h.</desc>
<speed>0.300000</speed>
</trkpt>
<trkpt lat="55.829990" lon="26.217421">
<ele>163.302856</ele>
<time>2010-07-17T12:53:53Z</time>
<desc>lat.=55.829990, lon.=26.217421, Alt.=163.302856m. Speed=0.864000m/h.</desc>
<speed>0.240000</speed>
</trkpt>
<trkpt lat="55.829987" lon="26.217411">
<ele>163.240356</ele>
<time>2010-07-17T12:53:54Z</time>
<desc>lat.=55.829987, lon.=26.217411, Alt.=163.240356m. Speed=0.864000m/h.</desc>
<speed>0.240000</speed>
</trkpt>
<trkpt lat="55.829983" lon="26.217403">
<ele>163.150513</ele>
<time>2010-07-17T12:53:55Z</time>
<desc>lat.=55.829983, lon.=26.217403, Alt.=163.150513m. Speed=0.612000m/h.</desc>
<speed>0.170000</speed>
</trkpt>
<trkpt lat="55.829987" lon="26.217402">
<ele>163.041138</ele>
<time>2010-07-17T12:53:56Z</time>
<desc>lat.=55.829987, lon.=26.217402, Alt.=163.041138m. Speed=0.360000m/h.</desc>
<speed>0.100000</speed>
</trkpt>
<trkpt lat="55.829987" lon="26.217403">
<ele>163.037231</ele>
<time>2010-07-17T12:53:57Z</time>
<desc>lat.=55.829987, lon.=26.217403, Alt.=163.037231m. Speed=0.828000m/h.</desc>
<speed>0.230000</speed>
</trkpt>
<trkpt lat="55.829983" lon="26.217407">
<ele>163.033325</ele>
<time>2010-07-17T12:53:58Z</time>
<desc>lat.=55.829983, lon.=26.217407, Alt.=163.033325m. Speed=0.432000m/h.</desc>
<speed>0.120000</speed>
</trkpt>
<trkpt lat="55.829983" lon="26.217409">
<ele>163.021606</ele>
<time>2010-07-17T12:53:59Z</time>
<desc>lat.=55.829983, lon.=26.217409, Alt.=163.021606m. Speed=0.504000m/h.</desc>
<speed>0.140000</speed>
</trkpt>
<trkpt lat="55.829983" lon="26.217411">
<ele>163.013794</ele>
<time>2010-07-17T12:54:00Z</time>
<desc>lat.=55.829983, lon.=26.217411, Alt.=163.013794m. Speed=0.144000m/h.</desc>
<speed>0.040000</speed>
</trkpt>
<trkpt lat="55.829983" lon="26.217411">
<ele>163.002075</ele>
<time>2010-07-17T12:54:01Z</time>
<desc>lat.=55.829983, lon.=26.217411, Alt.=163.002075m. Speed=0.288000m/h.</desc>
<speed>0.080000</speed>
</trkpt>
<trkpt lat="55.829983" lon="26.217411">
<ele>162.986450</ele>
<time>2010-07-17T12:54:02Z</time>
<desc>lat.=55.829983, lon.=26.217411, Alt.=162.986450m. Speed=0.756000m/h.</desc>
<speed>0.210000</speed>
</trkpt>
<trkpt lat="55.829983" lon="26.217413">
<ele>162.974731</ele>
<time>2010-07-17T12:54:03Z</time>
<desc>lat.=55.829983, lon.=26.217413, Alt.=162.974731m. Speed=0.504000m/h.</desc>
<speed>0.140000</speed>
</trkpt>
<trkpt lat="55.829983" lon="26.217415">
<ele>162.966919</ele>
<time>2010-07-17T12:54:04Z</time>
<desc>lat.=55.829983, lon.=26.217415, Alt.=162.966919m. Speed=0.828000m/h.</desc>
<speed>0.230000</speed>
</trkpt>
<trkpt lat="55.829983" lon="26.217417">
<ele>162.959106</ele>
<time>2010-07-17T12:54:05Z</time>
<desc>lat.=55.829983, lon.=26.217417, Alt.=162.959106m. Speed=0.900000m/h.</desc>
<speed>0.250000</speed>
</trkpt>
<trkpt lat="55.829987" lon="26.217417">
<ele>162.955200</ele>
<time>2010-07-17T12:54:06Z</time>
<desc>lat.=55.829987, lon.=26.217417, Alt.=162.955200m. Speed=0.828000m/h.</desc>
<speed>0.230000</speed>
</trkpt>
<trkpt lat="55.829987" lon="26.217417">
<ele>162.943481</ele>
<time>2010-07-17T12:54:07Z</time>
<desc>lat.=55.829987, lon.=26.217417, Alt.=162.943481m. Speed=0.324000m/h.</desc>
<speed>0.090000</speed>
</trkpt>
<trkpt lat="55.829990" lon="26.217417">
<ele>162.927856</ele>
<time>2010-07-17T12:54:08Z</time>
<desc>lat.=55.829990, lon.=26.217417, Alt.=162.927856m. Speed=0.432000m/h.</desc>
<speed>0.120000</speed>
</trkpt>
<trkpt lat="55.829990" lon="26.217419">
<ele>162.908325</ele>
<time>2010-07-17T12:54:09Z</time>
<desc>lat.=55.829990, lon.=26.217419, Alt.=162.908325m. Speed=0.432000m/h.</desc>
<speed>0.120000</speed>
</trkpt>
<trkpt lat="55.829990" lon="26.217421">
<ele>162.892700</ele>
<time>2010-07-17T12:54:10Z</time>
<desc>lat.=55.829990, lon.=26.217421, Alt.=162.892700m. Speed=1.008000m/h.</desc>
<speed>0.280000</speed>
</trkpt>
<trkpt lat="55.829994" lon="26.217421">
<ele>162.877075</ele>
<time>2010-07-17T12:54:11Z</time>
<desc>lat.=55.829994, lon.=26.217421, Alt.=162.877075m. Speed=0.720000m/h.</desc>
<speed>0.200000</speed>
</trkpt>
<trkpt lat="55.829994" lon="26.217421">
<ele>162.865356</ele>
<time>2010-07-17T12:54:12Z</time>
<desc>lat.=55.829994, lon.=26.217421, Alt.=162.865356m. Speed=1.656000m/h.</desc>
<speed>0.460000</speed>
</trkpt>
<trkpt lat="55.830002" lon="26.217426">
<ele>162.779419</ele>
<time>2010-07-17T12:54:13Z</time>
<desc>lat.=55.830002, lon.=26.217426, Alt.=162.779419m. Speed=1.512000m/h.</desc>
<speed>0.420000</speed>
</trkpt>
<trkpt lat="55.830009" lon="26.217426">
<ele>162.838013</ele>
<time>2010-07-17T12:54:14Z</time>
<desc>lat.=55.830009, lon.=26.217426, Alt.=162.838013m. Speed=1.512000m/h.</desc>
<speed>0.420000</speed>
</trkpt>
<trkpt lat="55.830013" lon="26.217426">
<ele>162.599731</ele>
<time>2010-07-17T12:54:15Z</time>
<desc>lat.=55.830013, lon.=26.217426, Alt.=162.599731m. Speed=1.116000m/h.</desc>
<speed>0.310000</speed>
</trkpt>
<trkpt lat="55.830021" lon="26.217430">
<ele>162.384888</ele>
<time>2010-07-17T12:54:16Z</time>
<desc>lat.=55.830021, lon.=26.217430, Alt.=162.384888m. Speed=1.008000m/h.</desc>
<speed>0.280000</speed>
</trkpt>
<trkpt lat="55.830017" lon="26.217424">
<ele>162.017700</ele>
<time>2010-07-17T12:54:17Z</time>
<desc>lat.=55.830017, lon.=26.217424, Alt.=162.017700m. Speed=0.252000m/h.</desc>
<speed>0.070000</speed>
</trkpt>
<trkpt lat="55.830025" lon="26.217430">
<ele>161.838013</ele>
<time>2010-07-17T12:54:18Z</time>
<desc>lat.=55.830025, lon.=26.217430, Alt.=161.838013m. Speed=0.468000m/h.</desc>
<speed>0.130000</speed>
</trkpt>
<trkpt lat="55.830029" lon="26.217434">
<ele>161.623169</ele>
<time>2010-07-17T12:54:19Z</time>
<desc>lat.=55.830029, lon.=26.217434, Alt.=161.623169m. Speed=1.008000m/h.</desc>
<speed>0.280000</speed>
</trkpt>
<trkpt lat="55.830032" lon="26.217430">
<ele>161.599731</ele>
<time>2010-07-17T12:54:20Z</time>
<desc>lat.=55.830032, lon.=26.217430, Alt.=161.599731m. Speed=0.504000m/h.</desc>
<speed>0.140000</speed>
</trkpt>
<trkpt lat="55.830032" lon="26.217430">
<ele>161.580200</ele>
<time>2010-07-17T12:54:21Z</time>
<desc>lat.=55.830032, lon.=26.217430, Alt.=161.580200m. Speed=0.792000m/h.</desc>
<speed>0.220000</speed>
</trkpt>
<trkpt lat="55.830036" lon="26.217430">
<ele>161.560669</ele>
<time>2010-07-17T12:54:22Z</time>
<desc>lat.=55.830036, lon.=26.217430, Alt.=161.560669m. Speed=0.828000m/h.</desc>
<speed>0.230000</speed>
</trkpt>
<trkpt lat="55.830036" lon="26.217432">
<ele>161.548950</ele>
<time>2010-07-17T12:54:23Z</time>
<desc>lat.=55.830036, lon.=26.217432, Alt.=161.548950m. Speed=0.468000m/h.</desc>
<speed>0.130000</speed>
</trkpt>
<trkpt lat="55.830036" lon="26.217434">
<ele>161.541138</ele>
<time>2010-07-17T12:54:24Z</time>
<desc>lat.=55.830036, lon.=26.217434, Alt.=161.541138m. Speed=0.540000m/h.</desc>
<speed>0.150000</speed>
</trkpt>
<trkpt lat="55.830040" lon="26.217436">
<ele>161.533325</ele>
<time>2010-07-17T12:54:25Z</time>
<desc>lat.=55.830040, lon.=26.217436, Alt.=161.533325m. Speed=0.324000m/h.</desc>
<speed>0.090000</speed>
</trkpt>
<trkpt lat="55.830040" lon="26.217434">
<ele>161.529419</ele>
<time>2010-07-17T12:54:26Z</time>
<desc>lat.=55.830040, lon.=26.217434, Alt.=161.529419m. Speed=0.612000m/h.</desc>
<speed>0.170000</speed>
</trkpt>
<trkpt lat="55.830036" lon="26.217434">
<ele>161.517700</ele>
<time>2010-07-17T12:54:27Z</time>
<desc>lat.=55.830036, lon.=26.217434, Alt.=161.517700m. Speed=0.648000m/h.</desc>
<speed>0.180000</speed>
</trkpt>
<trkpt lat="55.830036" lon="26.217434">
<ele>161.513794</ele>
<time>2010-07-17T12:54:28Z</time>
<desc>lat.=55.830036, lon.=26.217434, Alt.=161.513794m. Speed=0.324000m/h.</desc>
<speed>0.090000</speed>
</trkpt>
<trkpt lat="55.830036" lon="26.217432">
<ele>161.513794</ele>
<time>2010-07-17T12:54:29Z</time>
<desc>lat.=55.830036, lon.=26.217432, Alt.=161.513794m. Speed=0.612000m/h.</desc>
<speed>0.170000</speed>
</trkpt>
<trkpt lat="55.830036" lon="26.217430">
<ele>161.513794</ele>
<time>2010-07-17T12:54:30Z</time>
<desc>lat.=55.830036, lon.=26.217430, Alt.=161.513794m. Speed=0.756000m/h.</desc>
<speed>0.210000</speed>
</trkpt>
<trkpt lat="55.830036" lon="26.217426">
<ele>161.513794</ele>
<time>2010-07-17T12:54:31Z</time>
<desc>lat.=55.830036, lon.=26.217426, Alt.=161.513794m. Speed=0.900000m/h.</desc>
<speed>0.250000</speed>
</trkpt>
<trkpt lat="55.830032" lon="26.217424">
<ele>161.513794</ele>
<time>2010-07-17T12:54:32Z</time>
<desc>lat.=55.830032, lon.=26.217424, Alt.=161.513794m. Speed=0.900000m/h.</desc>
<speed>0.250000</speed>
</trkpt>
<trkpt lat="55.830032" lon="26.217424">
<ele>161.505981</ele>
<time>2010-07-17T12:54:33Z</time>
<desc>lat.=55.830032, lon.=26.217424, Alt.=161.505981m. Speed=0.936000m/h.</desc>
<speed>0.260000</speed>
</trkpt>
<trkpt lat="55.830029" lon="26.217424">
<ele>161.498169</ele>
<time>2010-07-17T12:54:34Z</time>
<desc>lat.=55.830029, lon.=26.217424, Alt.=161.498169m. Speed=0.792000m/h.</desc>
<speed>0.220000</speed>
</trkpt>
<trkpt lat="55.830029" lon="26.217426">
<ele>161.490356</ele>
<time>2010-07-17T12:54:35Z</time>
<desc>lat.=55.830029, lon.=26.217426, Alt.=161.490356m. Speed=1.332000m/h.</desc>
<speed>0.370000</speed>
</trkpt>
<trkpt lat="55.830025" lon="26.217426">
<ele>161.400513</ele>
<time>2010-07-17T12:54:36Z</time>
<desc>lat.=55.830025, lon.=26.217426, Alt.=161.400513m. Speed=1.044000m/h.</desc>
<speed>0.290000</speed>
</trkpt>
<trkpt lat="55.830017" lon="26.217426">
<ele>161.283325</ele>
<time>2010-07-17T12:54:37Z</time>
<desc>lat.=55.830017, lon.=26.217426, Alt.=161.283325m. Speed=0.900000m/h.</desc>
<speed>0.250000</speed>
</trkpt>
<trkpt lat="55.830006" lon="26.217426">
<ele>161.224731</ele>
<time>2010-07-17T12:54:38Z</time>
<desc>lat.=55.830006, lon.=26.217426, Alt.=161.224731m. Speed=1.476000m/h.</desc>
<speed>0.410000</speed>
</trkpt>
<trkpt lat="55.829994" lon="26.217424">
<ele>161.263794</ele>
<time>2010-07-17T12:54:39Z</time>
<desc>lat.=55.829994, lon.=26.217424, Alt.=161.263794m. Speed=1.584000m/h.</desc>
<speed>0.440000</speed>
</trkpt>
<trkpt lat="55.829987" lon="26.217419">
<ele>161.220825</ele>
<time>2010-07-17T12:54:40Z</time>
<desc>lat.=55.829987, lon.=26.217419, Alt.=161.220825m. Speed=1.260000m/h.</desc>
<speed>0.350000</speed>
</trkpt>
<trkpt lat="55.829975" lon="26.217415">
<ele>161.166138</ele>
<time>2010-07-17T12:54:41Z</time>
<desc>lat.=55.829975, lon.=26.217415, Alt.=161.166138m. Speed=1.656000m/h.</desc>
<speed>0.460000</speed>
</trkpt>
<trkpt lat="55.829967" lon="26.217411">
<ele>161.127075</ele>
<time>2010-07-17T12:54:42Z</time>
<desc>lat.=55.829967, lon.=26.217411, Alt.=161.127075m. Speed=1.080000m/h.</desc>
<speed>0.300000</speed>
</trkpt>
<trkpt lat="55.829960" lon="26.217394">
<ele>161.177856</ele>
<time>2010-07-17T12:54:43Z</time>
<desc>lat.=55.829960, lon.=26.217394, Alt.=161.177856m. Speed=1.692000m/h.</desc>
<speed>0.470000</speed>
</trkpt>
<trkpt lat="55.829956" lon="26.217388">
<ele>161.306763</ele>
<time>2010-07-17T12:54:44Z</time>
<desc>lat.=55.829956, lon.=26.217388, Alt.=161.306763m. Speed=1.476000m/h.</desc>
<speed>0.410000</speed>
</trkpt>
<trkpt lat="55.829956" lon="26.217392">
<ele>161.556763</ele>
<time>2010-07-17T12:54:45Z</time>
<desc>lat.=55.829956, lon.=26.217392, Alt.=161.556763m. Speed=1.188000m/h.</desc>
<speed>0.330000</speed>
</trkpt>
<trkpt lat="55.829956" lon="26.217392">
<ele>161.724731</ele>
<time>2010-07-17T12:54:46Z</time>
<desc>lat.=55.829956, lon.=26.217392, Alt.=161.724731m. Speed=0.792000m/h.</desc>
<speed>0.220000</speed>
</trkpt>
<trkpt lat="55.829952" lon="26.217388">
<ele>161.896606</ele>
<time>2010-07-17T12:54:47Z</time>
<desc>lat.=55.829952, lon.=26.217388, Alt.=161.896606m. Speed=0.792000m/h.</desc>
<speed>0.220000</speed>
</trkpt>
<trkpt lat="55.829945" lon="26.217392">
<ele>162.021606</ele>
<time>2010-07-17T12:54:48Z</time>
<desc>lat.=55.829945, lon.=26.217392, Alt.=162.021606m. Speed=1.260000m/h.</desc>
<speed>0.350000</speed>
</trkpt>
<trkpt lat="55.829956" lon="26.217398">
<ele>162.252075</ele>
<time>2010-07-17T12:54:49Z</time>
<desc>lat.=55.829956, lon.=26.217398, Alt.=162.252075m. Speed=0.648000m/h.</desc>
<speed>0.180000</speed>
</trkpt>
<trkpt lat="55.829960" lon="26.217396">
<ele>162.361450</ele>
<time>2010-07-17T12:54:50Z</time>
<desc>lat.=55.829960, lon.=26.217396, Alt.=162.361450m. Speed=0.216000m/h.</desc>
<speed>0.060000</speed>
</trkpt>
<trkpt lat="55.829971" lon="26.217403">
<ele>162.498169</ele>
<time>2010-07-17T12:54:51Z</time>
<desc>lat.=55.829971, lon.=26.217403, Alt.=162.498169m. Speed=0.648000m/h.</desc>
<speed>0.180000</speed>
</trkpt>
<trkpt lat="55.829979" lon="26.217409">
<ele>162.627075</ele>
<time>2010-07-17T12:54:52Z</time>
<desc>lat.=55.829979, lon.=26.217409, Alt.=162.627075m. Speed=0.432000m/h.</desc>
<speed>0.120000</speed>
</trkpt>
<trkpt lat="55.829979" lon="26.217409">
<ele>162.638794</ele>
<time>2010-07-17T12:54:53Z</time>
<desc>lat.=55.829979, lon.=26.217409, Alt.=162.638794m. Speed=0.504000m/h.</desc>
<speed>0.140000</speed>
</trkpt>
<trkpt lat="55.829979" lon="26.217409">
<ele>162.646606</ele>
<time>2010-07-17T12:54:54Z</time>
<desc>lat.=55.829979, lon.=26.217409, Alt.=162.646606m. Speed=1.116000m/h.</desc>
<speed>0.310000</speed>
</trkpt>
<trkpt lat="55.829987" lon="26.217422">
<ele>162.724731</ele>
<time>2010-07-17T12:54:55Z</time>
<desc>lat.=55.829987, lon.=26.217422, Alt.=162.724731m. Speed=0.864000m/h.</desc>
<speed>0.240000</speed>
</trkpt>
<trkpt lat="55.829994" lon="26.217436">
<ele>162.517700</ele>
<time>2010-07-17T12:54:56Z</time>
<desc>lat.=55.829994, lon.=26.217436, Alt.=162.517700m. Speed=0.936000m/h.</desc>
<speed>0.260000</speed>
</trkpt>
<trkpt lat="55.830002" lon="26.217442">
<ele>162.252075</ele>
<time>2010-07-17T12:54:57Z</time>
<desc>lat.=55.830002, lon.=26.217442, Alt.=162.252075m. Speed=0.864000m/h.</desc>
<speed>0.240000</speed>
</trkpt>
<trkpt lat="55.830009" lon="26.217443">
<ele>162.021606</ele>
<time>2010-07-17T12:54:58Z</time>
<desc>lat.=55.830009, lon.=26.217443, Alt.=162.021606m. Speed=1.044000m/h.</desc>
<speed>0.290000</speed>
</trkpt>
<trkpt lat="55.830013" lon="26.217447">
<ele>162.017700</ele>
<time>2010-07-17T12:54:59Z</time>
<desc>lat.=55.830013, lon.=26.217447, Alt.=162.017700m. Speed=0.576000m/h.</desc>
<speed>0.160000</speed>
</trkpt>
<trkpt lat="55.830013" lon="26.217447">
<ele>162.005981</ele>
<time>2010-07-17T12:55:00Z</time>
<desc>lat.=55.830013, lon.=26.217447, Alt.=162.005981m. Speed=0.432000m/h.</desc>
<speed>0.120000</speed>
</trkpt>
<trkpt lat="55.830017" lon="26.217447">
<ele>161.994263</ele>
<time>2010-07-17T12:55:01Z</time>
<desc>lat.=55.830017, lon.=26.217447, Alt.=161.994263m. Speed=0.072000m/h.</desc>
<speed>0.020000</speed>
</trkpt>
<trkpt lat="55.830017" lon="26.217447">
<ele>161.986450</ele>
<time>2010-07-17T12:55:02Z</time>
<desc>lat.=55.830017, lon.=26.217447, Alt.=161.986450m. Speed=0.396000m/h.</desc>
<speed>0.110000</speed>
</trkpt>
<trkpt lat="55.830017" lon="26.217447">
<ele>161.974731</ele>
<time>2010-07-17T12:55:03Z</time>
<desc>lat.=55.830017, lon.=26.217447, Alt.=161.974731m. Speed=0.648000m/h.</desc>
<speed>0.180000</speed>
</trkpt>
<trkpt lat="55.830013" lon="26.217447">
<ele>161.966919</ele>
<time>2010-07-17T12:55:04Z</time>
<desc>lat.=55.830013, lon.=26.217447, Alt.=161.966919m. Speed=1.476000m/h.</desc>
<speed>0.410000</speed>
</trkpt>
<trkpt lat="55.830013" lon="26.217432">
<ele>161.849731</ele>
<time>2010-07-17T12:55:05Z</time>
<desc>lat.=55.830013, lon.=26.217432, Alt.=161.849731m. Speed=1.188000m/h.</desc>
<speed>0.330000</speed>
</trkpt>
<trkpt lat="55.830013" lon="26.217430">
<ele>161.705200</ele>
<time>2010-07-17T12:55:06Z</time>
<desc>lat.=55.830013, lon.=26.217430, Alt.=161.705200m. Speed=1.368000m/h.</desc>
<speed>0.380000</speed>
</trkpt>
<trkpt lat="55.830013" lon="26.217428">
<ele>161.545044</ele>
<time>2010-07-17T12:55:07Z</time>
<desc>lat.=55.830013, lon.=26.217428, Alt.=161.545044m. Speed=0.936000m/h.</desc>
<speed>0.260000</speed>
</trkpt>
<trkpt lat="55.830013" lon="26.217424">
<ele>161.400513</ele>
<time>2010-07-17T12:55:08Z</time>
<desc>lat.=55.830013, lon.=26.217424, Alt.=161.400513m. Speed=0.576000m/h.</desc>
<speed>0.160000</speed>
</trkpt>
<trkpt lat="55.830017" lon="26.217422">
<ele>161.091919</ele>
<time>2010-07-17T12:55:09Z</time>
<desc>lat.=55.830017, lon.=26.217422, Alt.=161.091919m. Speed=0.360000m/h.</desc>
<speed>0.100000</speed>
</trkpt>
<trkpt lat="55.830021" lon="26.217419">
<ele>160.970825</ele>
<time>2010-07-17T12:55:10Z</time>
<desc>lat.=55.830021, lon.=26.217419, Alt.=160.970825m. Speed=0.216000m/h.</desc>
<speed>0.060000</speed>
</trkpt>
<trkpt lat="55.830021" lon="26.217417">
<ele>160.955200</ele>
<time>2010-07-17T12:55:11Z</time>
<desc>lat.=55.830021, lon.=26.217417, Alt.=160.955200m. Speed=0.720000m/h.</desc>
<speed>0.200000</speed>
</trkpt>
<trkpt lat="55.830017" lon="26.217417">
<ele>160.943481</ele>
<time>2010-07-17T12:55:12Z</time>
<desc>lat.=55.830017, lon.=26.217417, Alt.=160.943481m. Speed=0.936000m/h.</desc>
<speed>0.260000</speed>
</trkpt>
<trkpt lat="55.830017" lon="26.217415">
<ele>160.935669</ele>
<time>2010-07-17T12:55:13Z</time>
<desc>lat.=55.830017, lon.=26.217415, Alt.=160.935669m. Speed=0.396000m/h.</desc>
<speed>0.110000</speed>
</trkpt>
<trkpt lat="55.830017" lon="26.217417">
<ele>160.923950</ele>
<time>2010-07-17T12:55:14Z</time>
<desc>lat.=55.830017, lon.=26.217417, Alt.=160.923950m. Speed=1.224000m/h.</desc>
<speed>0.340000</speed>
</trkpt>
<trkpt lat="55.830032" lon="26.217432">
<ele>160.841919</ele>
<time>2010-07-17T12:55:15Z</time>
<desc>lat.=55.830032, lon.=26.217432, Alt.=160.841919m. Speed=2.520000m/h.</desc>
<speed>0.700000</speed>
</trkpt>
<trkpt lat="55.830040" lon="26.217449">
<ele>160.814575</ele>
<time>2010-07-17T12:55:16Z</time>
<desc>lat.=55.830040, lon.=26.217449, Alt.=160.814575m. Speed=2.772000m/h.</desc>
<speed>0.770000</speed>
</trkpt>
<trkpt lat="55.830048" lon="26.217466">
<ele>160.795044</ele>
<time>2010-07-17T12:55:17Z</time>
<desc>lat.=55.830048, lon.=26.217466, Alt.=160.795044m. Speed=2.664000m/h.</desc>
<speed>0.740000</speed>
</trkpt>
<trkpt lat="55.830044" lon="26.217478">
<ele>160.802856</ele>
<time>2010-07-17T12:55:18Z</time>
<desc>lat.=55.830044, lon.=26.217478, Alt.=160.802856m. Speed=2.016000m/h.</desc>
<speed>0.560000</speed>
</trkpt>
<trkpt lat="55.830044" lon="26.217478">
<ele>160.857544</ele>
<time>2010-07-17T12:55:19Z</time>
<desc>lat.=55.830044, lon.=26.217478, Alt.=160.857544m. Speed=1.296000m/h.</desc>
<speed>0.360000</speed>
</trkpt>
<trkpt lat="55.830040" lon="26.217487">
<ele>160.982544</ele>
<time>2010-07-17T12:55:20Z</time>
<desc>lat.=55.830040, lon.=26.217487, Alt.=160.982544m. Speed=1.656000m/h.</desc>
<speed>0.460000</speed>
</trkpt>
<trkpt lat="55.830032" lon="26.217493">
<ele>161.021606</ele>
<time>2010-07-17T12:55:21Z</time>
<desc>lat.=55.830032, lon.=26.217493, Alt.=161.021606m. Speed=1.872000m/h.</desc>
<speed>0.520000</speed>
</trkpt>
<trkpt lat="55.830029" lon="26.217491">
<ele>161.154419</ele>
<time>2010-07-17T12:55:22Z</time>
<desc>lat.=55.830029, lon.=26.217491, Alt.=161.154419m. Speed=1.224000m/h.</desc>
<speed>0.340000</speed>
</trkpt>
<trkpt lat="55.830025" lon="26.217491">
<ele>161.388794</ele>
<time>2010-07-17T12:55:23Z</time>
<desc>lat.=55.830025, lon.=26.217491, Alt.=161.388794m. Speed=1.044000m/h.</desc>
<speed>0.290000</speed>
</trkpt>
<trkpt lat="55.830017" lon="26.217491">
<ele>161.451294</ele>
<time>2010-07-17T12:55:24Z</time>
<desc>lat.=55.830017, lon.=26.217491, Alt.=161.451294m. Speed=1.080000m/h.</desc>
<speed>0.300000</speed>
</trkpt>
<trkpt lat="55.830017" lon="26.217499">
<ele>161.650513</ele>
<time>2010-07-17T12:55:25Z</time>
<desc>lat.=55.830017, lon.=26.217499, Alt.=161.650513m. Speed=0.720000m/h.</desc>
<speed>0.200000</speed>
</trkpt>
<trkpt lat="55.830013" lon="26.217499">
<ele>161.822388</ele>
<time>2010-07-17T12:55:26Z</time>
<desc>lat.=55.830013, lon.=26.217499, Alt.=161.822388m. Speed=0.612000m/h.</desc>
<speed>0.170000</speed>
</trkpt>
<trkpt lat="55.830009" lon="26.217482">
<ele>161.834106</ele>
<time>2010-07-17T12:55:27Z</time>
<desc>lat.=55.830009, lon.=26.217482, Alt.=161.834106m. Speed=0.288000m/h.</desc>
<speed>0.080000</speed>
</trkpt>
<trkpt lat="55.830009" lon="26.217470">
<ele>161.767700</ele>
<time>2010-07-17T12:55:28Z</time>
<desc>lat.=55.830009, lon.=26.217470, Alt.=161.767700m. Speed=0.036000m/h.</desc>
<speed>0.010000</speed>
</trkpt>
<trkpt lat="55.830009" lon="26.217470">
<ele>161.783325</ele>
<time>2010-07-17T12:55:29Z</time>
<desc>lat.=55.830009, lon.=26.217470, Alt.=161.783325m. Speed=0.180000m/h.</desc>
<speed>0.050000</speed>
</trkpt>
<trkpt lat="55.830009" lon="26.217470">
<ele>161.802856</ele>
<time>2010-07-17T12:55:30Z</time>
<desc>lat.=55.830009, lon.=26.217470, Alt.=161.802856m. Speed=0.756000m/h.</desc>
<speed>0.210000</speed>
</trkpt>
<trkpt lat="55.830009" lon="26.217466">
<ele>161.822388</ele>
<time>2010-07-17T12:55:31Z</time>
<desc>lat.=55.830009, lon.=26.217466, Alt.=161.822388m. Speed=0.936000m/h.</desc>
<speed>0.260000</speed>
</trkpt>
<trkpt lat="55.830013" lon="26.217463">
<ele>161.841919</ele>
<time>2010-07-17T12:55:32Z</time>
<desc>lat.=55.830013, lon.=26.217463, Alt.=161.841919m. Speed=1.008000m/h.</desc>
<speed>0.280000</speed>
</trkpt>
<trkpt lat="55.830013" lon="26.217463">
<ele>161.853638</ele>
<time>2010-07-17T12:55:33Z</time>
<desc>lat.=55.830013, lon.=26.217463, Alt.=161.853638m. Speed=1.008000m/h.</desc>
<speed>0.280000</speed>
</trkpt>
<trkpt lat="55.830017" lon="26.217464">
<ele>161.865356</ele>
<time>2010-07-17T12:55:34Z</time>
<desc>lat.=55.830017, lon.=26.217464, Alt.=161.865356m. Speed=1.260000m/h.</desc>
<speed>0.350000</speed>
</trkpt>
<trkpt lat="55.830006" lon="26.217457">
<ele>162.080200</ele>
<time>2010-07-17T12:55:35Z</time>
<desc>lat.=55.830006, lon.=26.217457, Alt.=162.080200m. Speed=0.576000m/h.</desc>
<speed>0.160000</speed>
</trkpt>
<trkpt lat="55.830009" lon="26.217453">
<ele>162.630981</ele>
<time>2010-07-17T12:55:36Z</time>
<desc>lat.=55.830009, lon.=26.217453, Alt.=162.630981m. Speed=0.432000m/h.</desc>
<speed>0.120000</speed>
</trkpt>
<trkpt lat="55.830013" lon="26.217455">
<ele>162.588013</ele>
<time>2010-07-17T12:55:37Z</time>
<desc>lat.=55.830013, lon.=26.217455, Alt.=162.588013m. Speed=0.756000m/h.</desc>
<speed>0.210000</speed>
</trkpt>
<trkpt lat="55.830013" lon="26.217453">
<ele>162.818481</ele>
<time>2010-07-17T12:55:38Z</time>
<desc>lat.=55.830013, lon.=26.217453, Alt.=162.818481m. Speed=0.684000m/h.</desc>
<speed>0.190000</speed>
</trkpt>
<trkpt lat="55.830013" lon="26.217451">
<ele>162.845825</ele>
<time>2010-07-17T12:55:39Z</time>
<desc>lat.=55.830013, lon.=26.217451, Alt.=162.845825m. Speed=0.000000m/h.</desc>
<speed>0.000000</speed>
</trkpt>
<trkpt lat="55.830013" lon="26.217451">
<ele>162.865356</ele>
<time>2010-07-17T12:55:40Z</time>
<desc>lat.=55.830013, lon.=26.217451, Alt.=162.865356m. Speed=0.504000m/h.</desc>
<speed>0.140000</speed>
</trkpt>
<trkpt lat="55.830013" lon="26.217453">
<ele>162.884888</ele>
<time>2010-07-17T12:55:41Z</time>
<desc>lat.=55.830013, lon.=26.217453, Alt.=162.884888m. Speed=0.756000m/h.</desc>
<speed>0.210000</speed>
</trkpt>
<trkpt lat="55.830009" lon="26.217455">
<ele>162.896606</ele>
<time>2010-07-17T12:55:42Z</time>
<desc>lat.=55.830009, lon.=26.217455, Alt.=162.896606m. Speed=0.792000m/h.</desc>
<speed>0.220000</speed>
</trkpt>
<trkpt lat="55.830009" lon="26.217457">
<ele>162.908325</ele>
<time>2010-07-17T12:55:43Z</time>
<desc>lat.=55.830009, lon.=26.217457, Alt.=162.908325m. Speed=1.044000m/h.</desc>
<speed>0.290000</speed>
</trkpt>
<trkpt lat="55.830006" lon="26.217461">
<ele>162.920044</ele>
<time>2010-07-17T12:55:44Z</time>
<desc>lat.=55.830006, lon.=26.217461, Alt.=162.920044m. Speed=1.620000m/h.</desc>
<speed>0.450000</speed>
</trkpt>
<trkpt lat="55.830002" lon="26.217461">
<ele>162.869263</ele>
<time>2010-07-17T12:55:45Z</time>
<desc>lat.=55.830002, lon.=26.217461, Alt.=162.869263m. Speed=1.620000m/h.</desc>
<speed>0.450000</speed>
</trkpt>
<trkpt lat="55.829990" lon="26.217468">
<ele>163.209106</ele>
<time>2010-07-17T12:55:46Z</time>
<desc>lat.=55.829990, lon.=26.217468, Alt.=163.209106m. Speed=1.656000m/h.</desc>
<speed>0.460000</speed>
</trkpt>
<trkpt lat="55.829983" lon="26.217489">
<ele>163.423950</ele>
<time>2010-07-17T12:55:47Z</time>
<desc>lat.=55.829983, lon.=26.217489, Alt.=163.423950m. Speed=2.484000m/h.</desc>
<speed>0.690000</speed>
</trkpt>
<trkpt lat="55.829979" lon="26.217495">
<ele>163.404419</ele>
<time>2010-07-17T12:55:48Z</time>
<desc>lat.=55.829979, lon.=26.217495, Alt.=163.404419m. Speed=2.088000m/h.</desc>
<speed>0.580000</speed>
</trkpt>
<trkpt lat="55.829967" lon="26.217493">
<ele>163.384888</ele>
<time>2010-07-17T12:55:49Z</time>
<desc>lat.=55.829967, lon.=26.217493, Alt.=163.384888m. Speed=1.440000m/h.</desc>
<speed>0.400000</speed>
</trkpt>
<trkpt lat="55.829956" lon="26.217503">
<ele>163.537231</ele>
<time>2010-07-17T12:55:50Z</time>
<desc>lat.=55.829956, lon.=26.217503, Alt.=163.537231m. Speed=0.720000m/h.</desc>
<speed>0.200000</speed>
</trkpt>
<trkpt lat="55.829956" lon="26.217512">
<ele>163.603638</ele>
<time>2010-07-17T12:55:51Z</time>
<desc>lat.=55.829956, lon.=26.217512, Alt.=163.603638m. Speed=0.648000m/h.</desc>
<speed>0.180000</speed>
</trkpt>
<trkpt lat="55.829952" lon="26.217516">
<ele>163.443481</ele>
<time>2010-07-17T12:55:52Z</time>
<desc>lat.=55.829952, lon.=26.217516, Alt.=163.443481m. Speed=0.576000m/h.</desc>
<speed>0.160000</speed>
</trkpt>
<trkpt lat="55.829945" lon="26.217516">
<ele>163.517700</ele>
<time>2010-07-17T12:55:53Z</time>
<desc>lat.=55.829945, lon.=26.217516, Alt.=163.517700m. Speed=0.036000m/h.</desc>
<speed>0.010000</speed>
</trkpt>
<trkpt lat="55.829945" lon="26.217516">
<ele>163.545044</ele>
<time>2010-07-17T12:55:54Z</time>
<desc>lat.=55.829945, lon.=26.217516, Alt.=163.545044m. Speed=0.324000m/h.</desc>
<speed>0.090000</speed>
</trkpt>
<trkpt lat="55.829945" lon="26.217518">
<ele>163.556763</ele>
<time>2010-07-17T12:55:55Z</time>
<desc>lat.=55.829945, lon.=26.217518, Alt.=163.556763m. Speed=0.936000m/h.</desc>
<speed>0.260000</speed>
</trkpt>
<trkpt lat="55.829941" lon="26.217522">
<ele>163.564575</ele>
<time>2010-07-17T12:55:56Z</time>
<desc>lat.=55.829941, lon.=26.217522, Alt.=163.564575m. Speed=1.728000m/h.</desc>
<speed>0.480000</speed>
</trkpt>
<trkpt lat="55.829926" lon="26.217543">
<ele>163.541138</ele>
<time>2010-07-17T12:55:57Z</time>
<desc>lat.=55.829926, lon.=26.217543, Alt.=163.541138m. Speed=1.728000m/h.</desc>
<speed>0.480000</speed>
</trkpt>
<trkpt lat="55.829914" lon="26.217548">
<ele>163.451294</ele>
<time>2010-07-17T12:55:58Z</time>
<desc>lat.=55.829914, lon.=26.217548, Alt.=163.451294m. Speed=2.124000m/h.</desc>
<speed>0.590000</speed>
</trkpt>
<trkpt lat="55.829903" lon="26.217558">
<ele>163.291138</ele>
<time>2010-07-17T12:55:59Z</time>
<desc>lat.=55.829903, lon.=26.217558, Alt.=163.291138m. Speed=2.088000m/h.</desc>
<speed>0.580000</speed>
</trkpt>
<trkpt lat="55.829895" lon="26.217566">
<ele>163.209106</ele>
<time>2010-07-17T12:56:00Z</time>
<desc>lat.=55.829895, lon.=26.217566, Alt.=163.209106m. Speed=1.440000m/h.</desc>
<speed>0.400000</speed>
</trkpt>
<trkpt lat="55.829880" lon="26.217569">
<ele>163.373169</ele>
<time>2010-07-17T12:56:01Z</time>
<desc>lat.=55.829880, lon.=26.217569, Alt.=163.373169m. Speed=1.620000m/h.</desc>
<speed>0.450000</speed>
</trkpt>
<trkpt lat="55.829868" lon="26.217579">
<ele>163.564575</ele>
<time>2010-07-17T12:56:02Z</time>
<desc>lat.=55.829868, lon.=26.217579, Alt.=163.564575m. Speed=1.080000m/h.</desc>
<speed>0.300000</speed>
</trkpt>
<trkpt lat="55.829868" lon="26.217585">
<ele>163.580200</ele>
<time>2010-07-17T12:56:03Z</time>
<desc>lat.=55.829868, lon.=26.217585, Alt.=163.580200m. Speed=0.828000m/h.</desc>
<speed>0.230000</speed>
</trkpt>
<trkpt lat="55.829865" lon="26.217596">
<ele>163.588013</ele>
<time>2010-07-17T12:56:04Z</time>
<desc>lat.=55.829865, lon.=26.217596, Alt.=163.588013m. Speed=1.152000m/h.</desc>
<speed>0.320000</speed>
</trkpt>
<trkpt lat="55.829868" lon="26.217606">
<ele>163.505981</ele>
<time>2010-07-17T12:56:05Z</time>
<desc>lat.=55.829868, lon.=26.217606, Alt.=163.505981m. Speed=0.972000m/h.</desc>
<speed>0.270000</speed>
</trkpt>
<trkpt lat="55.829868" lon="26.217606">
<ele>163.392700</ele>
<time>2010-07-17T12:56:06Z</time>
<desc>lat.=55.829868, lon.=26.217606, Alt.=163.392700m. Speed=0.576000m/h.</desc>
<speed>0.160000</speed>
</trkpt>
<trkpt lat="55.829861" lon="26.217592">
<ele>163.576294</ele>
<time>2010-07-17T12:56:07Z</time>
<desc>lat.=55.829861, lon.=26.217592, Alt.=163.576294m. Speed=0.396000m/h.</desc>
<speed>0.110000</speed>
</trkpt>
<trkpt lat="55.829857" lon="26.217571">
<ele>163.349731</ele>
<time>2010-07-17T12:56:08Z</time>
<desc>lat.=55.829857, lon.=26.217571, Alt.=163.349731m. Speed=0.684000m/h.</desc>
<speed>0.190000</speed>
</trkpt>
<trkpt lat="55.829853" lon="26.217569">
<ele>163.365356</ele>
<time>2010-07-17T12:56:09Z</time>
<desc>lat.=55.829853, lon.=26.217569, Alt.=163.365356m. Speed=0.792000m/h.</desc>
<speed>0.220000</speed>
</trkpt>
<trkpt lat="55.829853" lon="26.217567">
<ele>163.380981</ele>
<time>2010-07-17T12:56:10Z</time>
<desc>lat.=55.829853, lon.=26.217567, Alt.=163.380981m. Speed=0.468000m/h.</desc>
<speed>0.130000</speed>
</trkpt>
<trkpt lat="55.829853" lon="26.217566">
<ele>163.369263</ele>
<time>2010-07-17T12:56:11Z</time>
<desc>lat.=55.829853, lon.=26.217566, Alt.=163.369263m. Speed=0.144000m/h.</desc>
<speed>0.040000</speed>
</trkpt>
<trkpt lat="55.829853" lon="26.217566">
<ele>163.380981</ele>
<time>2010-07-17T12:56:12Z</time>
<desc>lat.=55.829853, lon.=26.217566, Alt.=163.380981m. Speed=0.612000m/h.</desc>
<speed>0.170000</speed>
</trkpt>
<trkpt lat="55.829857" lon="26.217567">
<ele>163.388794</ele>
<time>2010-07-17T12:56:13Z</time>
<desc>lat.=55.829857, lon.=26.217567, Alt.=163.388794m. Speed=0.756000m/h.</desc>
<speed>0.210000</speed>
</trkpt>
<trkpt lat="55.829857" lon="26.217569">
<ele>163.373169</ele>
<time>2010-07-17T12:56:14Z</time>
<desc>lat.=55.829857, lon.=26.217569, Alt.=163.373169m. Speed=0.180000m/h.</desc>
<speed>0.050000</speed>
</trkpt>
<trkpt lat="55.829857" lon="26.217569">
<ele>163.357544</ele>
<time>2010-07-17T12:56:15Z</time>
<desc>lat.=55.829857, lon.=26.217569, Alt.=163.357544m. Speed=0.432000m/h.</desc>
<speed>0.120000</speed>
</trkpt>
<trkpt lat="55.829857" lon="26.217567">
<ele>163.341919</ele>
<time>2010-07-17T12:56:16Z</time>
<desc>lat.=55.829857, lon.=26.217567, Alt.=163.341919m. Speed=0.396000m/h.</desc>
<speed>0.110000</speed>
</trkpt>
<trkpt lat="55.829857" lon="26.217566">
<ele>163.330200</ele>
<time>2010-07-17T12:56:17Z</time>
<desc>lat.=55.829857, lon.=26.217566, Alt.=163.330200m. Speed=0.396000m/h.</desc>
<speed>0.110000</speed>
</trkpt>
<trkpt lat="55.829857" lon="26.217566">
<ele>163.314575</ele>
<time>2010-07-17T12:56:18Z</time>
<desc>lat.=55.829857, lon.=26.217566, Alt.=163.314575m. Speed=0.324000m/h.</desc>
<speed>0.090000</speed>
</trkpt>
<trkpt lat="55.829857" lon="26.217566">
<ele>163.302856</ele>
<time>2010-07-17T12:56:19Z</time>
<desc>lat.=55.829857, lon.=26.217566, Alt.=163.302856m. Speed=0.216000m/h.</desc>
<speed>0.060000</speed>
</trkpt>
<trkpt lat="55.829861" lon="26.217566">
<ele>163.283325</ele>
<time>2010-07-17T12:56:20Z</time>
<desc>lat.=55.829861, lon.=26.217566, Alt.=163.283325m. Speed=0.648000m/h.</desc>
<speed>0.180000</speed>
</trkpt>
<trkpt lat="55.829861" lon="26.217566">
<ele>163.259888</ele>
<time>2010-07-17T12:56:21Z</time>
<desc>lat.=55.829861, lon.=26.217566, Alt.=163.259888m. Speed=0.972000m/h.</desc>
<speed>0.270000</speed>
</trkpt>
<trkpt lat="55.829861" lon="26.217569">
<ele>163.244263</ele>
<time>2010-07-17T12:56:22Z</time>
<desc>lat.=55.829861, lon.=26.217569, Alt.=163.244263m. Speed=1.188000m/h.</desc>
<speed>0.330000</speed>
</trkpt>
<trkpt lat="55.829865" lon="26.217569">
<ele>163.287231</ele>
<time>2010-07-17T12:56:23Z</time>
<desc>lat.=55.829865, lon.=26.217569, Alt.=163.287231m. Speed=0.612000m/h.</desc>
<speed>0.170000</speed>
</trkpt>
<trkpt lat="55.829861" lon="26.217579">
<ele>163.377075</ele>
<time>2010-07-17T12:56:24Z</time>
<desc>lat.=55.829861, lon.=26.217579, Alt.=163.377075m. Speed=1.008000m/h.</desc>
<speed>0.280000</speed>
</trkpt>
<trkpt lat="55.829868" lon="26.217587">
<ele>163.392700</ele>
<time>2010-07-17T12:56:25Z</time>
<desc>lat.=55.829868, lon.=26.217587, Alt.=163.392700m. Speed=1.440000m/h.</desc>
<speed>0.400000</speed>
</trkpt>
<trkpt lat="55.829868" lon="26.217604">
<ele>163.525513</ele>
<time>2010-07-17T12:56:26Z</time>
<desc>lat.=55.829868, lon.=26.217604, Alt.=163.525513m. Speed=2.052000m/h.</desc>
<speed>0.570000</speed>
</trkpt>
<trkpt lat="55.829868" lon="26.217606">
<ele>163.513794</ele>
<time>2010-07-17T12:56:27Z</time>
<desc>lat.=55.829868, lon.=26.217606, Alt.=163.513794m. Speed=1.548000m/h.</desc>
<speed>0.430000</speed>
</trkpt>
<trkpt lat="55.829861" lon="26.217609">
<ele>163.638794</ele>
<time>2010-07-17T12:56:28Z</time>
<desc>lat.=55.829861, lon.=26.217609, Alt.=163.638794m. Speed=1.152000m/h.</desc>
<speed>0.320000</speed>
</trkpt>
<trkpt lat="55.829861" lon="26.217607">
<ele>163.716919</ele>
<time>2010-07-17T12:56:29Z</time>
<desc>lat.=55.829861, lon.=26.217607, Alt.=163.716919m. Speed=0.252000m/h.</desc>
<speed>0.070000</speed>
</trkpt>
<trkpt lat="55.829861" lon="26.217613">
<ele>163.818481</ele>
<time>2010-07-17T12:56:30Z</time>
<desc>lat.=55.829861, lon.=26.217613, Alt.=163.818481m. Speed=0.432000m/h.</desc>
<speed>0.120000</speed>
</trkpt>
<trkpt lat="55.829865" lon="26.217619">
<ele>164.056763</ele>
<time>2010-07-17T12:56:31Z</time>
<desc>lat.=55.829865, lon.=26.217619, Alt.=164.056763m. Speed=0.108000m/h.</desc>
<speed>0.030000</speed>
</trkpt>
<trkpt lat="55.829872" lon="26.217623">
<ele>164.513794</ele>
<time>2010-07-17T12:56:32Z</time>
<desc>lat.=55.829872, lon.=26.217623, Alt.=164.513794m. Speed=2.304000m/h.</desc>
<speed>0.640000</speed>
</trkpt>
<trkpt lat="55.829876" lon="26.217623">
<ele>164.670044</ele>
<time>2010-07-17T12:56:33Z</time>
<desc>lat.=55.829876, lon.=26.217623, Alt.=164.670044m. Speed=2.736000m/h.</desc>
<speed>0.760000</speed>
</trkpt>
<trkpt lat="55.829876" lon="26.217609">
<ele>164.732544</ele>
<time>2010-07-17T12:56:34Z</time>
<desc>lat.=55.829876, lon.=26.217609, Alt.=164.732544m. Speed=2.736000m/h.</desc>
<speed>0.760000</speed>
</trkpt>
<trkpt lat="55.829880" lon="26.217594">
<ele>164.779419</ele>
<time>2010-07-17T12:56:35Z</time>
<desc>lat.=55.829880, lon.=26.217594, Alt.=164.779419m. Speed=3.096000m/h.</desc>
<speed>0.860000</speed>
</trkpt>
<trkpt lat="55.829884" lon="26.217577">
<ele>164.849731</ele>
<time>2010-07-17T12:56:36Z</time>
<desc>lat.=55.829884, lon.=26.217577, Alt.=164.849731m. Speed=3.420000m/h.</desc>
<speed>0.950000</speed>
</trkpt>
<trkpt lat="55.829884" lon="26.217569">
<ele>164.963013</ele>
<time>2010-07-17T12:56:37Z</time>
<desc>lat.=55.829884, lon.=26.217569, Alt.=164.963013m. Speed=2.880000m/h.</desc>
<speed>0.800000</speed>
</trkpt>
<trkpt lat="55.829891" lon="26.217558">
<ele>165.017700</ele>
<time>2010-07-17T12:56:38Z</time>
<desc>lat.=55.829891, lon.=26.217558, Alt.=165.017700m. Speed=2.448000m/h.</desc>
<speed>0.680000</speed>
</trkpt>
<trkpt lat="55.829899" lon="26.217548">
<ele>165.037231</ele>
<time>2010-07-17T12:56:39Z</time>
<desc>lat.=55.829899, lon.=26.217548, Alt.=165.037231m. Speed=2.196000m/h.</desc>
<speed>0.610000</speed>
</trkpt>
<trkpt lat="55.829903" lon="26.217529">
<ele>165.115356</ele>
<time>2010-07-17T12:56:40Z</time>
<desc>lat.=55.829903, lon.=26.217529, Alt.=165.115356m. Speed=3.060000m/h.</desc>
<speed>0.850000</speed>
</trkpt>
<trkpt lat="55.829903" lon="26.217516">
<ele>165.193481</ele>
<time>2010-07-17T12:56:41Z</time>
<desc>lat.=55.829903, lon.=26.217516, Alt.=165.193481m. Speed=2.880000m/h.</desc>
<speed>0.800000</speed>
</trkpt>
<trkpt lat="55.829906" lon="26.217497">
<ele>165.275513</ele>
<time>2010-07-17T12:56:42Z</time>
<desc>lat.=55.829906, lon.=26.217497, Alt.=165.275513m. Speed=3.276000m/h.</desc>
<speed>0.910000</speed>
</trkpt>
<trkpt lat="55.829906" lon="26.217472">
<ele>165.373169</ele>
<time>2010-07-17T12:56:43Z</time>
<desc>lat.=55.829906, lon.=26.217472, Alt.=165.373169m. Speed=3.528000m/h.</desc>
<speed>0.980000</speed>
</trkpt>
<trkpt lat="55.829906" lon="26.217440">
<ele>165.455200</ele>
<time>2010-07-17T12:56:44Z</time>
<desc>lat.=55.829906, lon.=26.217440, Alt.=165.455200m. Speed=4.572000m/h.</desc>
<speed>1.270000</speed>
</trkpt>
<trkpt lat="55.829906" lon="26.217415">
<ele>165.529419</ele>
<time>2010-07-17T12:56:45Z</time>
<desc>lat.=55.829906, lon.=26.217415, Alt.=165.529419m. Speed=4.608000m/h.</desc>
<speed>1.280000</speed>
</trkpt>
<trkpt lat="55.829945" lon="26.217363">
<ele>165.240356</ele>
<time>2010-07-17T12:56:46Z</time>
<desc>lat.=55.829945, lon.=26.217363, Alt.=165.240356m. Speed=4.896000m/h.</desc>
<speed>1.360000</speed>
</trkpt>
<trkpt lat="55.829956" lon="26.217318">
<ele>165.166138</ele>
<time>2010-07-17T12:56:47Z</time>
<desc>lat.=55.829956, lon.=26.217318, Alt.=165.166138m. Speed=5.724000m/h.</desc>
<speed>1.590000</speed>
</trkpt>
<trkpt lat="55.829967" lon="26.217264">
<ele>165.072388</ele>
<time>2010-07-17T12:56:48Z</time>
<desc>lat.=55.829967, lon.=26.217264, Alt.=165.072388m. Speed=7.956000m/h.</desc>
<speed>2.210000</speed>
</trkpt>
<trkpt lat="55.829971" lon="26.217218">
<ele>165.037231</ele>
<time>2010-07-17T12:56:49Z</time>
<desc>lat.=55.829971, lon.=26.217218, Alt.=165.037231m. Speed=6.228000m/h.</desc>
<speed>1.730000</speed>
</trkpt>
<trkpt lat="55.829971" lon="26.217173">
<ele>164.927856</ele>
<time>2010-07-17T12:56:50Z</time>
<desc>lat.=55.829971, lon.=26.217173, Alt.=164.927856m. Speed=6.300000m/h.</desc>
<speed>1.750000</speed>
</trkpt>
<trkpt lat="55.829964" lon="26.217134">
<ele>164.845825</ele>
<time>2010-07-17T12:56:51Z</time>
<desc>lat.=55.829964, lon.=26.217134, Alt.=164.845825m. Speed=6.120000m/h.</desc>
<speed>1.700000</speed>
</trkpt>
<trkpt lat="55.829967" lon="26.217108">
<ele>164.771606</ele>
<time>2010-07-17T12:56:52Z</time>
<desc>lat.=55.829967, lon.=26.217108, Alt.=164.771606m. Speed=2.412000m/h.</desc>
<speed>0.670000</speed>
</trkpt>
<trkpt lat="55.829971" lon="26.217054">
<ele>164.541138</ele>
<time>2010-07-17T12:56:53Z</time>
<desc>lat.=55.829971, lon.=26.217054, Alt.=164.541138m. Speed=5.076000m/h.</desc>
<speed>1.410000</speed>
</trkpt>
<trkpt lat="55.829975" lon="26.217016">
<ele>164.392700</ele>
<time>2010-07-17T12:56:54Z</time>
<desc>lat.=55.829975, lon.=26.217016, Alt.=164.392700m. Speed=5.076000m/h.</desc>
<speed>1.410000</speed>
</trkpt>
<trkpt lat="55.829975" lon="26.216986">
<ele>164.205200</ele>
<time>2010-07-17T12:56:55Z</time>
<desc>lat.=55.829975, lon.=26.216986, Alt.=164.205200m. Speed=2.844000m/h.</desc>
<speed>0.790000</speed>
</trkpt>
<trkpt lat="55.829975" lon="26.216948">
<ele>164.025513</ele>
<time>2010-07-17T12:56:56Z</time>
<desc>lat.=55.829975, lon.=26.216948, Alt.=164.025513m. Speed=4.788000m/h.</desc>
<speed>1.330000</speed>
</trkpt>
<trkpt lat="55.829979" lon="26.216883">
<ele>163.638794</ele>
<time>2010-07-17T12:56:57Z</time>
<desc>lat.=55.829979, lon.=26.216883, Alt.=163.638794m. Speed=7.128000m/h.</desc>
<speed>1.980000</speed>
</trkpt>
<trkpt lat="55.829983" lon="26.216835">
<ele>163.388794</ele>
<time>2010-07-17T12:56:58Z</time>
<desc>lat.=55.829983, lon.=26.216835, Alt.=163.388794m. Speed=6.624000m/h.</desc>
<speed>1.840000</speed>
</trkpt>
<trkpt lat="55.829987" lon="26.216782">
<ele>163.134888</ele>
<time>2010-07-17T12:56:59Z</time>
<desc>lat.=55.829987, lon.=26.216782, Alt.=163.134888m. Speed=7.560000m/h.</desc>
<speed>2.100000</speed>
</trkpt>
<trkpt lat="55.829979" lon="26.216684">
<ele>163.791138</ele>
<time>2010-07-17T12:57:00Z</time>
<desc>lat.=55.829979, lon.=26.216684, Alt.=163.791138m. Speed=13.032000m/h.</desc>
<speed>3.620000</speed>
</trkpt>
<trkpt lat="55.829975" lon="26.216625">
<ele>163.853638</ele>
<time>2010-07-17T12:57:01Z</time>
<desc>lat.=55.829975, lon.=26.216625, Alt.=163.853638m. Speed=9.936000m/h.</desc>
<speed>2.760000</speed>
</trkpt>
<trkpt lat="55.829975" lon="26.216579">
<ele>163.802856</ele>
<time>2010-07-17T12:57:02Z</time>
<desc>lat.=55.829975, lon.=26.216579, Alt.=163.802856m. Speed=8.712000m/h.</desc>
<speed>2.420000</speed>
</trkpt>
<trkpt lat="55.829983" lon="26.216524">
<ele>163.650513</ele>
<time>2010-07-17T12:57:03Z</time>
<desc>lat.=55.829983, lon.=26.216524, Alt.=163.650513m. Speed=12.816000m/h.</desc>
<speed>3.560000</speed>
</trkpt>
<trkpt lat="55.829994" lon="26.216452">
<ele>163.431763</ele>
<time>2010-07-17T12:57:04Z</time>
<desc>lat.=55.829994, lon.=26.216452, Alt.=163.431763m. Speed=14.688000m/h.</desc>
<speed>4.080000</speed>
</trkpt>
<trkpt lat="55.830002" lon="26.216364">
<ele>163.935669</ele>
<time>2010-07-17T12:57:05Z</time>
<desc>lat.=55.830002, lon.=26.216364, Alt.=163.935669m. Speed=15.804000m/h.</desc>
<speed>4.390000</speed>
</trkpt>
<trkpt lat="55.830013" lon="26.216291">
<ele>164.443481</ele>
<time>2010-07-17T12:57:06Z</time>
<desc>lat.=55.830013, lon.=26.216291, Alt.=164.443481m. Speed=14.616000m/h.</desc>
<speed>4.060000</speed>
</trkpt>
<trkpt lat="55.830017" lon="26.216200">
<ele>164.755981</ele>
<time>2010-07-17T12:57:07Z</time>
<desc>lat.=55.830017, lon.=26.216200, Alt.=164.755981m. Speed=14.760000m/h.</desc>
<speed>4.100000</speed>
</trkpt>
<trkpt lat="55.830017" lon="26.216084">
<ele>165.498169</ele>
<time>2010-07-17T12:57:08Z</time>
<desc>lat.=55.830017, lon.=26.216084, Alt.=165.498169m. Speed=18.180000m/h.</desc>
<speed>5.050000</speed>
</trkpt>
<trkpt lat="55.830013" lon="26.215992">
<ele>165.693481</ele>
<time>2010-07-17T12:57:09Z</time>
<desc>lat.=55.830013, lon.=26.215992, Alt.=165.693481m. Speed=17.063999m/h.</desc>
<speed>4.740000</speed>
</trkpt>
<trkpt lat="55.830009" lon="26.215916">
<ele>165.908325</ele>
<time>2010-07-17T12:57:10Z</time>
<desc>lat.=55.830009, lon.=26.215916, Alt.=165.908325m. Speed=17.676001m/h.</desc>
<speed>4.910000</speed>
</trkpt>
<trkpt lat="55.830002" lon="26.215816">
<ele>165.752075</ele>
<time>2010-07-17T12:57:11Z</time>
<desc>lat.=55.830002, lon.=26.215816, Alt.=165.752075m. Speed=15.984000m/h.</desc>
<speed>4.440000</speed>
</trkpt>
<trkpt lat="55.829983" lon="26.215704">
<ele>164.705200</ele>
<time>2010-07-17T12:57:12Z</time>
<desc>lat.=55.829983, lon.=26.215704, Alt.=164.705200m. Speed=17.243999m/h.</desc>
<speed>4.790000</speed>
</trkpt>
<trkpt lat="55.829979" lon="26.215601">
<ele>164.115356</ele>
<time>2010-07-17T12:57:13Z</time>
<desc>lat.=55.829979, lon.=26.215601, Alt.=164.115356m. Speed=17.280001m/h.</desc>
<speed>4.800000</speed>
</trkpt>
<trkpt lat="55.829983" lon="26.215511">
<ele>163.681763</ele>
<time>2010-07-17T12:57:14Z</time>
<desc>lat.=55.829983, lon.=26.215511, Alt.=163.681763m. Speed=16.308001m/h.</desc>
<speed>4.530000</speed>
</trkpt>
<trkpt lat="55.829956" lon="26.215403">
<ele>162.681763</ele>
<time>2010-07-17T12:57:15Z</time>
<desc>lat.=55.829956, lon.=26.215403, Alt.=162.681763m. Speed=16.164000m/h.</desc>
<speed>4.490000</speed>
</trkpt>
<trkpt lat="55.829948" lon="26.215313">
<ele>162.630981</ele>
<time>2010-07-17T12:57:16Z</time>
<desc>lat.=55.829948, lon.=26.215313, Alt.=162.630981m. Speed=14.868000m/h.</desc>
<speed>4.130000</speed>
</trkpt>
<trkpt lat="55.829941" lon="26.215221">
<ele>162.670044</ele>
<time>2010-07-17T12:57:17Z</time>
<desc>lat.=55.829941, lon.=26.215221, Alt.=162.670044m. Speed=14.148000m/h.</desc>
<speed>3.930000</speed>
</trkpt>
<trkpt lat="55.829933" lon="26.215120">
<ele>162.548950</ele>
<time>2010-07-17T12:57:18Z</time>
<desc>lat.=55.829933, lon.=26.215120, Alt.=162.548950m. Speed=15.912000m/h.</desc>
<speed>4.420000</speed>
</trkpt>
<trkpt lat="55.829929" lon="26.215015">
<ele>162.365356</ele>
<time>2010-07-17T12:57:19Z</time>
<desc>lat.=55.829929, lon.=26.215015, Alt.=162.365356m. Speed=14.976000m/h.</desc>
<speed>4.160000</speed>
</trkpt>
<trkpt lat="55.829926" lon="26.214933">
<ele>161.759888</ele>
<time>2010-07-17T12:57:20Z</time>
<desc>lat.=55.829926, lon.=26.214933, Alt.=161.759888m. Speed=13.428000m/h.</desc>
<speed>3.730000</speed>
</trkpt>
<trkpt lat="55.829922" lon="26.214832">
<ele>161.478638</ele>
<time>2010-07-17T12:57:21Z</time>
<desc>lat.=55.829922, lon.=26.214832, Alt.=161.478638m. Speed=13.176000m/h.</desc>
<speed>3.660000</speed>
</trkpt>
<trkpt lat="55.829918" lon="26.214743">
<ele>161.287231</ele>
<time>2010-07-17T12:57:22Z</time>
<desc>lat.=55.829918, lon.=26.214743, Alt.=161.287231m. Speed=11.448000m/h.</desc>
<speed>3.180000</speed>
</trkpt>
<trkpt lat="55.829918" lon="26.214691">
<ele>161.263794</ele>
<time>2010-07-17T12:57:23Z</time>
<desc>lat.=55.829918, lon.=26.214691, Alt.=161.263794m. Speed=12.492000m/h.</desc>
<speed>3.470000</speed>
</trkpt>
<trkpt lat="55.829918" lon="26.214588">
<ele>161.564575</ele>
<time>2010-07-17T12:57:24Z</time>
<desc>lat.=55.829918, lon.=26.214588, Alt.=161.564575m. Speed=17.532000m/h.</desc>
<speed>4.870000</speed>
</trkpt>
<trkpt lat="55.829926" lon="26.214466">
<ele>162.154419</ele>
<time>2010-07-17T12:57:25Z</time>
<desc>lat.=55.829926, lon.=26.214466, Alt.=162.154419m. Speed=21.096001m/h.</desc>
<speed>5.860000</speed>
</trkpt>
<trkpt lat="55.829929" lon="26.214346">
<ele>162.181763</ele>
<time>2010-07-17T12:57:26Z</time>
<desc>lat.=55.829929, lon.=26.214346, Alt.=162.181763m. Speed=20.844000m/h.</desc>
<speed>5.790000</speed>
</trkpt>
<trkpt lat="55.829922" lon="26.214228">
<ele>162.193481</ele>
<time>2010-07-17T12:57:27Z</time>
<desc>lat.=55.829922, lon.=26.214228, Alt.=162.193481m. Speed=18.827999m/h.</desc>
<speed>5.230000</speed>
</trkpt>
<trkpt lat="55.829914" lon="26.214111">
<ele>162.056763</ele>
<time>2010-07-17T12:57:28Z</time>
<desc>lat.=55.829914, lon.=26.214111, Alt.=162.056763m. Speed=16.271999m/h.</desc>
<speed>4.520000</speed>
</trkpt>
<trkpt lat="55.829910" lon="26.213997">
<ele>162.271606</ele>
<time>2010-07-17T12:57:29Z</time>
<desc>lat.=55.829910, lon.=26.213997, Alt.=162.271606m. Speed=15.408000m/h.</desc>
<speed>4.280000</speed>
</trkpt>
<trkpt lat="55.829906" lon="26.213892">
<ele>162.505981</ele>
<time>2010-07-17T12:57:30Z</time>
<desc>lat.=55.829906, lon.=26.213892, Alt.=162.505981m. Speed=14.472000m/h.</desc>
<speed>4.020000</speed>
</trkpt>
<trkpt lat="55.829895" lon="26.213800">
<ele>163.056763</ele>
<time>2010-07-17T12:57:31Z</time>
<desc>lat.=55.829895, lon.=26.213800, Alt.=163.056763m. Speed=13.428000m/h.</desc>
<speed>3.730000</speed>
</trkpt>
<trkpt lat="55.829887" lon="26.213694">
<ele>163.677856</ele>
<time>2010-07-17T12:57:32Z</time>
<desc>lat.=55.829887, lon.=26.213694, Alt.=163.677856m. Speed=13.392000m/h.</desc>
<speed>3.720000</speed>
</trkpt>
<trkpt lat="55.829872" lon="26.213610">
<ele>163.736450</ele>
<time>2010-07-17T12:57:33Z</time>
<desc>lat.=55.829872, lon.=26.213610, Alt.=163.736450m. Speed=12.240000m/h.</desc>
<speed>3.400000</speed>
</trkpt>
<trkpt lat="55.829865" lon="26.213524">
<ele>163.744263</ele>
<time>2010-07-17T12:57:34Z</time>
<desc>lat.=55.829865, lon.=26.213524, Alt.=163.744263m. Speed=11.232000m/h.</desc>
<speed>3.120000</speed>
</trkpt>
<trkpt lat="55.829865" lon="26.213446">
<ele>164.318481</ele>
<time>2010-07-17T12:57:35Z</time>
<desc>lat.=55.829865, lon.=26.213446, Alt.=164.318481m. Speed=10.584000m/h.</desc>
<speed>2.940000</speed>
</trkpt>
<trkpt lat="55.829876" lon="26.213350">
<ele>164.838013</ele>
<time>2010-07-17T12:57:36Z</time>
<desc>lat.=55.829876, lon.=26.213350, Alt.=164.838013m. Speed=12.312000m/h.</desc>
<speed>3.420000</speed>
</trkpt>
<trkpt lat="55.829880" lon="26.213263">
<ele>165.420044</ele>
<time>2010-07-17T12:57:37Z</time>
<desc>lat.=55.829880, lon.=26.213263, Alt.=165.420044m. Speed=15.120000m/h.</desc>
<speed>4.200000</speed>
</trkpt>
<trkpt lat="55.829891" lon="26.213175">
<ele>165.638794</ele>
<time>2010-07-17T12:57:38Z</time>
<desc>lat.=55.829891, lon.=26.213175, Alt.=165.638794m. Speed=14.724000m/h.</desc>
<speed>4.090000</speed>
</trkpt>
<trkpt lat="55.829887" lon="26.213095">
<ele>165.576294</ele>
<time>2010-07-17T12:57:39Z</time>
<desc>lat.=55.829887, lon.=26.213095, Alt.=165.576294m. Speed=10.080000m/h.</desc>
<speed>2.800000</speed>
</trkpt>
<trkpt lat="55.829876" lon="26.213049">
<ele>165.798950</ele>
<time>2010-07-17T12:57:40Z</time>
<desc>lat.=55.829876, lon.=26.213049, Alt.=165.798950m. Speed=6.876000m/h.</desc>
<speed>1.910000</speed>
</trkpt>
<trkpt lat="55.829861" lon="26.212988">
<ele>166.037231</ele>
<time>2010-07-17T12:57:41Z</time>
<desc>lat.=55.829861, lon.=26.212988, Alt.=166.037231m. Speed=8.316000m/h.</desc>
<speed>2.310000</speed>
</trkpt>
<trkpt lat="55.829865" lon="26.212919">
<ele>165.291138</ele>
<time>2010-07-17T12:57:42Z</time>
<desc>lat.=55.829865, lon.=26.212919, Alt.=165.291138m. Speed=7.164000m/h.</desc>
<speed>1.990000</speed>
</trkpt>
<trkpt lat="55.829853" lon="26.212868">
<ele>164.908325</ele>
<time>2010-07-17T12:57:43Z</time>
<desc>lat.=55.829853, lon.=26.212868, Alt.=164.908325m. Speed=5.616000m/h.</desc>
<speed>1.560000</speed>
</trkpt>
<trkpt lat="55.829849" lon="26.212828">
<ele>164.763794</ele>
<time>2010-07-17T12:57:44Z</time>
<desc>lat.=55.829849, lon.=26.212828, Alt.=164.763794m. Speed=5.040000m/h.</desc>
<speed>1.400000</speed>
</trkpt>
<trkpt lat="55.829853" lon="26.212761">
<ele>164.064575</ele>
<time>2010-07-17T12:57:45Z</time>
<desc>lat.=55.829853, lon.=26.212761, Alt.=164.064575m. Speed=5.184000m/h.</desc>
<speed>1.440000</speed>
</trkpt>
<trkpt lat="55.829842" lon="26.212708">
<ele>163.978638</ele>
<time>2010-07-17T12:57:46Z</time>
<desc>lat.=55.829842, lon.=26.212708, Alt.=163.978638m. Speed=5.256000m/h.</desc>
<speed>1.460000</speed>
</trkpt>
<trkpt lat="55.829838" lon="26.212646">
<ele>163.990356</ele>
<time>2010-07-17T12:57:47Z</time>
<desc>lat.=55.829838, lon.=26.212646, Alt.=163.990356m. Speed=5.508000m/h.</desc>
<speed>1.530000</speed>
</trkpt>
<trkpt lat="55.829838" lon="26.212584">
<ele>164.459106</ele>
<time>2010-07-17T12:57:48Z</time>
<desc>lat.=55.829838, lon.=26.212584, Alt.=164.459106m. Speed=5.148000m/h.</desc>
<speed>1.430000</speed>
</trkpt>
<trkpt lat="55.829826" lon="26.212547">
<ele>165.552856</ele>
<time>2010-07-17T12:57:49Z</time>
<desc>lat.=55.829826, lon.=26.212547, Alt.=165.552856m. Speed=5.796000m/h.</desc>
<speed>1.610000</speed>
</trkpt>
<trkpt lat="55.829823" lon="26.212481">
<ele>165.279419</ele>
<time>2010-07-17T12:57:50Z</time>
<desc>lat.=55.829823, lon.=26.212481, Alt.=165.279419m. Speed=5.688000m/h.</desc>
<speed>1.580000</speed>
</trkpt>
<trkpt lat="55.829815" lon="26.212414">
<ele>165.060669</ele>
<time>2010-07-17T12:57:51Z</time>
<desc>lat.=55.829815, lon.=26.212414, Alt.=165.060669m. Speed=6.804000m/h.</desc>
<speed>1.890000</speed>
</trkpt>
<trkpt lat="55.829815" lon="26.212337">
<ele>164.365356</ele>
<time>2010-07-17T12:57:52Z</time>
<desc>lat.=55.829815, lon.=26.212337, Alt.=164.365356m. Speed=6.552000m/h.</desc>
<speed>1.820000</speed>
</trkpt>
<trkpt lat="55.829815" lon="26.212290">
<ele>164.369263</ele>
<time>2010-07-17T12:57:53Z</time>
<desc>lat.=55.829815, lon.=26.212290, Alt.=164.369263m. Speed=4.932000m/h.</desc>
<speed>1.370000</speed>
</trkpt>
<trkpt lat="55.829807" lon="26.212231">
<ele>164.416138</ele>
<time>2010-07-17T12:57:54Z</time>
<desc>lat.=55.829807, lon.=26.212231, Alt.=164.416138m. Speed=6.408000m/h.</desc>
<speed>1.780000</speed>
</trkpt>
<trkpt lat="55.829803" lon="26.212175">
<ele>164.338013</ele>
<time>2010-07-17T12:57:55Z</time>
<desc>lat.=55.829803, lon.=26.212175, Alt.=164.338013m. Speed=5.004000m/h.</desc>
<speed>1.390000</speed>
</trkpt>
<trkpt lat="55.829792" lon="26.212139">
<ele>164.619263</ele>
<time>2010-07-17T12:57:56Z</time>
<desc>lat.=55.829792, lon.=26.212139, Alt.=164.619263m. Speed=4.968000m/h.</desc>
<speed>1.380000</speed>
</trkpt>
<trkpt lat="55.829784" lon="26.212105">
<ele>164.673950</ele>
<time>2010-07-17T12:57:57Z</time>
<desc>lat.=55.829784, lon.=26.212105, Alt.=164.673950m. Speed=3.600000m/h.</desc>
<speed>1.000000</speed>
</trkpt>
<trkpt lat="55.829784" lon="26.212067">
<ele>164.634888</ele>
<time>2010-07-17T12:57:58Z</time>
<desc>lat.=55.829784, lon.=26.212067, Alt.=164.634888m. Speed=3.996000m/h.</desc>
<speed>1.110000</speed>
</trkpt>
<trkpt lat="55.829777" lon="26.212025">
<ele>164.310669</ele>
<time>2010-07-17T12:57:59Z</time>
<desc>lat.=55.829777, lon.=26.212025, Alt.=164.310669m. Speed=3.420000m/h.</desc>
<speed>0.950000</speed>
</trkpt>
<trkpt lat="55.829769" lon="26.211996">
<ele>164.638794</ele>
<time>2010-07-17T12:58:00Z</time>
<desc>lat.=55.829769, lon.=26.211996, Alt.=164.638794m. Speed=4.752000m/h.</desc>
<speed>1.320000</speed>
</trkpt>
<trkpt lat="55.829769" lon="26.211964">
<ele>164.783325</ele>
<time>2010-07-17T12:58:01Z</time>
<desc>lat.=55.829769, lon.=26.211964, Alt.=164.783325m. Speed=3.060000m/h.</desc>
<speed>0.850000</speed>
</trkpt>
<trkpt lat="55.829769" lon="26.211935">
<ele>164.888794</ele>
<time>2010-07-17T12:58:02Z</time>
<desc>lat.=55.829769, lon.=26.211935, Alt.=164.888794m. Speed=4.068000m/h.</desc>
<speed>1.130000</speed>
</trkpt>
<trkpt lat="55.829777" lon="26.211897">
<ele>165.076294</ele>
<time>2010-07-17T12:58:03Z</time>
<desc>lat.=55.829777, lon.=26.211897, Alt.=165.076294m. Speed=3.456000m/h.</desc>
<speed>0.960000</speed>
</trkpt>
<trkpt lat="55.829777" lon="26.211864">
<ele>165.259888</ele>
<time>2010-07-17T12:58:04Z</time>
<desc>lat.=55.829777, lon.=26.211864, Alt.=165.259888m. Speed=4.104000m/h.</desc>
<speed>1.140000</speed>
</trkpt>
<trkpt lat="55.829773" lon="26.211828">
<ele>165.572388</ele>
<time>2010-07-17T12:58:05Z</time>
<desc>lat.=55.829773, lon.=26.211828, Alt.=165.572388m. Speed=3.492000m/h.</desc>
<speed>0.970000</speed>
</trkpt>
<trkpt lat="55.829765" lon="26.211798">
<ele>165.392700</ele>
<time>2010-07-17T12:58:06Z</time>
<desc>lat.=55.829765, lon.=26.211798, Alt.=165.392700m. Speed=2.988000m/h.</desc>
<speed>0.830000</speed>
</trkpt>
<trkpt lat="55.829754" lon="26.211765">
<ele>165.431763</ele>
<time>2010-07-17T12:58:07Z</time>
<desc>lat.=55.829754, lon.=26.211765, Alt.=165.431763m. Speed=1.764000m/h.</desc>
<speed>0.490000</speed>
</trkpt>
<trkpt lat="55.829746" lon="26.211737">
<ele>165.115356</ele>
<time>2010-07-17T12:58:08Z</time>
<desc>lat.=55.829746, lon.=26.211737, Alt.=165.115356m. Speed=3.384000m/h.</desc>
<speed>0.940000</speed>
</trkpt>
<trkpt lat="55.829746" lon="26.211721">
<ele>165.373169</ele>
<time>2010-07-17T12:58:09Z</time>
<desc>lat.=55.829746, lon.=26.211721, Alt.=165.373169m. Speed=2.664000m/h.</desc>
<speed>0.740000</speed>
</trkpt>
<trkpt lat="55.829746" lon="26.211710">
<ele>165.658325</ele>
<time>2010-07-17T12:58:10Z</time>
<desc>lat.=55.829746, lon.=26.211710, Alt.=165.658325m. Speed=3.492000m/h.</desc>
<speed>0.970000</speed>
</trkpt>
<trkpt lat="55.829746" lon="26.211695">
<ele>165.931763</ele>
<time>2010-07-17T12:58:11Z</time>
<desc>lat.=55.829746, lon.=26.211695, Alt.=165.931763m. Speed=3.564000m/h.</desc>
<speed>0.990000</speed>
</trkpt>
<trkpt lat="55.829742" lon="26.211678">
<ele>166.209106</ele>
<time>2010-07-17T12:58:12Z</time>
<desc>lat.=55.829742, lon.=26.211678, Alt.=166.209106m. Speed=4.536000m/h.</desc>
<speed>1.260000</speed>
</trkpt>
<trkpt lat="55.829735" lon="26.211651">
<ele>166.298950</ele>
<time>2010-07-17T12:58:13Z</time>
<desc>lat.=55.829735, lon.=26.211651, Alt.=166.298950m. Speed=3.996000m/h.</desc>
<speed>1.110000</speed>
</trkpt>
<trkpt lat="55.829723" lon="26.211605">
<ele>166.322388</ele>
<time>2010-07-17T12:58:14Z</time>
<desc>lat.=55.829723, lon.=26.211605, Alt.=166.322388m. Speed=4.212000m/h.</desc>
<speed>1.170000</speed>
</trkpt>
<trkpt lat="55.829723" lon="26.211565">
<ele>166.287231</ele>
<time>2010-07-17T12:58:15Z</time>
<desc>lat.=55.829723, lon.=26.211565, Alt.=166.287231m. Speed=4.104000m/h.</desc>
<speed>1.140000</speed>
</trkpt>
<trkpt lat="55.829708" lon="26.211525">
<ele>166.459106</ele>
<time>2010-07-17T12:58:16Z</time>
<desc>lat.=55.829708, lon.=26.211525, Alt.=166.459106m. Speed=4.212000m/h.</desc>
<speed>1.170000</speed>
</trkpt>
<trkpt lat="55.829704" lon="26.211493">
<ele>166.451294</ele>
<time>2010-07-17T12:58:17Z</time>
<desc>lat.=55.829704, lon.=26.211493, Alt.=166.451294m. Speed=3.924000m/h.</desc>
<speed>1.090000</speed>
</trkpt>
<trkpt lat="55.829697" lon="26.211452">
<ele>166.693481</ele>
<time>2010-07-17T12:58:18Z</time>
<desc>lat.=55.829697, lon.=26.211452, Alt.=166.693481m. Speed=4.248000m/h.</desc>
<speed>1.180000</speed>
</trkpt>
<trkpt lat="55.829693" lon="26.211403">
<ele>167.170044</ele>
<time>2010-07-17T12:58:19Z</time>
<desc>lat.=55.829693, lon.=26.211403, Alt.=167.170044m. Speed=4.248000m/h.</desc>
<speed>1.180000</speed>
</trkpt>
<trkpt lat="55.829689" lon="26.211374">
<ele>167.517700</ele>
<time>2010-07-17T12:58:20Z</time>
<desc>lat.=55.829689, lon.=26.211374, Alt.=167.517700m. Speed=3.672000m/h.</desc>
<speed>1.020000</speed>
</trkpt>
<trkpt lat="55.829685" lon="26.211346">
<ele>167.787231</ele>
<time>2010-07-17T12:58:21Z</time>
<desc>lat.=55.829685, lon.=26.211346, Alt.=167.787231m. Speed=3.708000m/h.</desc>
<speed>1.030000</speed>
</trkpt>
<trkpt lat="55.829685" lon="26.211327">
<ele>168.240356</ele>
<time>2010-07-17T12:58:22Z</time>
<desc>lat.=55.829685, lon.=26.211327, Alt.=168.240356m. Speed=3.276000m/h.</desc>
<speed>0.910000</speed>
</trkpt>
<trkpt lat="55.829689" lon="26.211292">
<ele>168.412231</ele>
<time>2010-07-17T12:58:23Z</time>
<desc>lat.=55.829689, lon.=26.211292, Alt.=168.412231m. Speed=3.528000m/h.</desc>
<speed>0.980000</speed>
</trkpt>
<trkpt lat="55.829685" lon="26.211260">
<ele>168.670044</ele>
<time>2010-07-17T12:58:24Z</time>
<desc>lat.=55.829685, lon.=26.211260, Alt.=168.670044m. Speed=3.780000m/h.</desc>
<speed>1.050000</speed>
</trkpt>
<trkpt lat="55.829678" lon="26.211226">
<ele>168.724731</ele>
<time>2010-07-17T12:58:25Z</time>
<desc>lat.=55.829678, lon.=26.211226, Alt.=168.724731m. Speed=3.744000m/h.</desc>
<speed>1.040000</speed>
</trkpt>
<trkpt lat="55.829678" lon="26.211180">
<ele>168.877075</ele>
<time>2010-07-17T12:58:26Z</time>
<desc>lat.=55.829678, lon.=26.211180, Alt.=168.877075m. Speed=3.708000m/h.</desc>
<speed>1.030000</speed>
</trkpt>
<trkpt lat="55.829678" lon="26.211130">
<ele>169.111450</ele>
<time>2010-07-17T12:58:27Z</time>
<desc>lat.=55.829678, lon.=26.211130, Alt.=169.111450m. Speed=4.104000m/h.</desc>
<speed>1.140000</speed>
</trkpt>
<trkpt lat="55.829666" lon="26.211065">
<ele>169.334106</ele>
<time>2010-07-17T12:58:28Z</time>
<desc>lat.=55.829666, lon.=26.211065, Alt.=169.334106m. Speed=4.500000m/h.</desc>
<speed>1.250000</speed>
</trkpt>
<trkpt lat="55.829655" lon="26.211006">
<ele>169.513794</ele>
<time>2010-07-17T12:58:29Z</time>
<desc>lat.=55.829655, lon.=26.211006, Alt.=169.513794m. Speed=4.464000m/h.</desc>
<speed>1.240000</speed>
</trkpt>
<trkpt lat="55.829651" lon="26.210974">
<ele>169.650513</ele>
<time>2010-07-17T12:58:30Z</time>
<desc>lat.=55.829651, lon.=26.210974, Alt.=169.650513m. Speed=4.032000m/h.</desc>
<speed>1.120000</speed>
</trkpt>
<trkpt lat="55.829636" lon="26.210894">
<ele>170.037231</ele>
<time>2010-07-17T12:58:31Z</time>
<desc>lat.=55.829636, lon.=26.210894, Alt.=170.037231m. Speed=4.500000m/h.</desc>
<speed>1.250000</speed>
</trkpt>
<trkpt lat="55.829636" lon="26.210861">
<ele>169.849731</ele>
<time>2010-07-17T12:58:32Z</time>
<desc>lat.=55.829636, lon.=26.210861, Alt.=169.849731m. Speed=3.960000m/h.</desc>
<speed>1.100000</speed>
</trkpt>
<trkpt lat="55.829643" lon="26.210831">
<ele>169.755981</ele>
<time>2010-07-17T12:58:33Z</time>
<desc>lat.=55.829643, lon.=26.210831, Alt.=169.755981m. Speed=3.492000m/h.</desc>
<speed>0.970000</speed>
</trkpt>
<trkpt lat="55.829647" lon="26.210777">
<ele>169.459106</ele>
<time>2010-07-17T12:58:34Z</time>
<desc>lat.=55.829647, lon.=26.210777, Alt.=169.459106m. Speed=3.744000m/h.</desc>
<speed>1.040000</speed>
</trkpt>
<trkpt lat="55.829647" lon="26.210752">
<ele>169.595825</ele>
<time>2010-07-17T12:58:35Z</time>
<desc>lat.=55.829647, lon.=26.210752, Alt.=169.595825m. Speed=3.240000m/h.</desc>
<speed>0.900000</speed>
</trkpt>
<trkpt lat="55.829643" lon="26.210724">
<ele>169.521606</ele>
<time>2010-07-17T12:58:36Z</time>
<desc>lat.=55.829643, lon.=26.210724, Alt.=169.521606m. Speed=2.880000m/h.</desc>
<speed>0.800000</speed>
</trkpt>
<trkpt lat="55.829639" lon="26.210678">
<ele>169.802856</ele>
<time>2010-07-17T12:58:37Z</time>
<desc>lat.=55.829639, lon.=26.210678, Alt.=169.802856m. Speed=2.124000m/h.</desc>
<speed>0.590000</speed>
</trkpt>
<trkpt lat="55.829647" lon="26.210634">
<ele>169.888794</ele>
<time>2010-07-17T12:58:38Z</time>
<desc>lat.=55.829647, lon.=26.210634, Alt.=169.888794m. Speed=2.016000m/h.</desc>
<speed>0.560000</speed>
</trkpt>
<trkpt lat="55.829651" lon="26.210611">
<ele>170.099731</ele>
<time>2010-07-17T12:58:39Z</time>
<desc>lat.=55.829651, lon.=26.210611, Alt.=170.099731m. Speed=1.800000m/h.</desc>
<speed>0.500000</speed>
</trkpt>
<trkpt lat="55.829662" lon="26.210604">
<ele>170.463013</ele>
<time>2010-07-17T12:58:40Z</time>
<desc>lat.=55.829662, lon.=26.210604, Alt.=170.463013m. Speed=1.836000m/h.</desc>
<speed>0.510000</speed>
</trkpt>
<trkpt lat="55.829670" lon="26.210592">
<ele>170.568481</ele>
<time>2010-07-17T12:58:41Z</time>
<desc>lat.=55.829670, lon.=26.210592, Alt.=170.568481m. Speed=1.764000m/h.</desc>
<speed>0.490000</speed>
</trkpt>
<trkpt lat="55.829678" lon="26.210583">
<ele>170.689575</ele>
<time>2010-07-17T12:58:42Z</time>
<desc>lat.=55.829678, lon.=26.210583, Alt.=170.689575m. Speed=1.512000m/h.</desc>
<speed>0.420000</speed>
</trkpt>
<trkpt lat="55.829681" lon="26.210579">
<ele>170.857544</ele>
<time>2010-07-17T12:58:43Z</time>
<desc>lat.=55.829681, lon.=26.210579, Alt.=170.857544m. Speed=1.368000m/h.</desc>
<speed>0.380000</speed>
</trkpt>
<trkpt lat="55.829681" lon="26.210588">
<ele>171.021606</ele>
<time>2010-07-17T12:58:44Z</time>
<desc>lat.=55.829681, lon.=26.210588, Alt.=171.021606m. Speed=0.684000m/h.</desc>
<speed>0.190000</speed>
</trkpt>
<trkpt lat="55.829674" lon="26.210598">
<ele>171.017700</ele>
<time>2010-07-17T12:58:45Z</time>
<desc>lat.=55.829674, lon.=26.210598, Alt.=171.017700m. Speed=0.612000m/h.</desc>
<speed>0.170000</speed>
</trkpt>
<trkpt lat="55.829674" lon="26.210600">
<ele>170.998169</ele>
<time>2010-07-17T12:58:46Z</time>
<desc>lat.=55.829674, lon.=26.210600, Alt.=170.998169m. Speed=0.540000m/h.</desc>
<speed>0.150000</speed>
</trkpt>
<trkpt lat="55.829678" lon="26.210596">
<ele>170.951294</ele>
<time>2010-07-17T12:58:47Z</time>
<desc>lat.=55.829678, lon.=26.210596, Alt.=170.951294m. Speed=0.360000m/h.</desc>
<speed>0.100000</speed>
</trkpt>
<trkpt lat="55.829674" lon="26.210594">
<ele>171.076294</ele>
<time>2010-07-17T12:58:48Z</time>
<desc>lat.=55.829674, lon.=26.210594, Alt.=171.076294m. Speed=0.288000m/h.</desc>
<speed>0.080000</speed>
</trkpt>
<trkpt lat="55.829674" lon="26.210594">
<ele>171.177856</ele>
<time>2010-07-17T12:58:49Z</time>
<desc>lat.=55.829674, lon.=26.210594, Alt.=171.177856m. Speed=0.180000m/h.</desc>
<speed>0.050000</speed>
</trkpt>
<trkpt lat="55.829674" lon="26.210592">
<ele>171.255981</ele>
<time>2010-07-17T12:58:50Z</time>
<desc>lat.=55.829674, lon.=26.210592, Alt.=171.255981m. Speed=0.720000m/h.</desc>
<speed>0.200000</speed>
</trkpt>
<trkpt lat="55.829674" lon="26.210592">
<ele>171.322388</ele>
<time>2010-07-17T12:58:51Z</time>
<desc>lat.=55.829674, lon.=26.210592, Alt.=171.322388m. Speed=0.540000m/h.</desc>
<speed>0.150000</speed>
</trkpt>
<trkpt lat="55.829674" lon="26.210588">
<ele>171.361450</ele>
<time>2010-07-17T12:58:52Z</time>
<desc>lat.=55.829674, lon.=26.210588, Alt.=171.361450m. Speed=1.116000m/h.</desc>
<speed>0.310000</speed>
</trkpt>
<trkpt lat="55.829685" lon="26.210562">
<ele>170.533325</ele>
<time>2010-07-17T12:58:53Z</time>
<desc>lat.=55.829685, lon.=26.210562, Alt.=170.533325m. Speed=1.224000m/h.</desc>
<speed>0.340000</speed>
</trkpt>
<trkpt lat="55.829700" lon="26.210543">
<ele>170.166138</ele>
<time>2010-07-17T12:58:54Z</time>
<desc>lat.=55.829700, lon.=26.210543, Alt.=170.166138m. Speed=1.368000m/h.</desc>
<speed>0.380000</speed>
</trkpt>
<trkpt lat="55.829704" lon="26.210527">
<ele>169.752075</ele>
<time>2010-07-17T12:58:55Z</time>
<desc>lat.=55.829704, lon.=26.210527, Alt.=169.752075m. Speed=0.864000m/h.</desc>
<speed>0.240000</speed>
</trkpt>
<trkpt lat="55.829712" lon="26.210512">
<ele>169.197388</ele>
<time>2010-07-17T12:58:56Z</time>
<desc>lat.=55.829712, lon.=26.210512, Alt.=169.197388m. Speed=0.684000m/h.</desc>
<speed>0.190000</speed>
</trkpt>
<trkpt lat="55.829716" lon="26.210499">
<ele>169.318481</ele>
<time>2010-07-17T12:58:57Z</time>
<desc>lat.=55.829716, lon.=26.210499, Alt.=169.318481m. Speed=0.720000m/h.</desc>
<speed>0.200000</speed>
</trkpt>
<trkpt lat="55.829716" lon="26.210487">
<ele>168.865356</ele>
<time>2010-07-17T12:58:58Z</time>
<desc>lat.=55.829716, lon.=26.210487, Alt.=168.865356m. Speed=0.936000m/h.</desc>
<speed>0.260000</speed>
</trkpt>
<trkpt lat="55.829720" lon="26.210484">
<ele>168.888794</ele>
<time>2010-07-17T12:58:59Z</time>
<desc>lat.=55.829720, lon.=26.210484, Alt.=168.888794m. Speed=0.792000m/h.</desc>
<speed>0.220000</speed>
</trkpt>
<trkpt lat="55.829716" lon="26.210480">
<ele>168.912231</ele>
<time>2010-07-17T12:59:00Z</time>
<desc>lat.=55.829716, lon.=26.210480, Alt.=168.912231m. Speed=0.900000m/h.</desc>
<speed>0.250000</speed>
</trkpt>
<trkpt lat="55.829716" lon="26.210474">
<ele>168.931763</ele>
<time>2010-07-17T12:59:01Z</time>
<desc>lat.=55.829716, lon.=26.210474, Alt.=168.931763m. Speed=0.936000m/h.</desc>
<speed>0.260000</speed>
</trkpt>
<trkpt lat="55.829716" lon="26.210470">
<ele>168.947388</ele>
<time>2010-07-17T12:59:02Z</time>
<desc>lat.=55.829716, lon.=26.210470, Alt.=168.947388m. Speed=1.152000m/h.</desc>
<speed>0.320000</speed>
</trkpt>
<trkpt lat="55.829716" lon="26.210449">
<ele>168.966919</ele>
<time>2010-07-17T12:59:03Z</time>
<desc>lat.=55.829716, lon.=26.210449, Alt.=168.966919m. Speed=1.152000m/h.</desc>
<speed>0.320000</speed>
</trkpt>
<trkpt lat="55.829712" lon="26.210436">
<ele>169.111450</ele>
<time>2010-07-17T12:59:04Z</time>
<desc>lat.=55.829712, lon.=26.210436, Alt.=169.111450m. Speed=0.936000m/h.</desc>
<speed>0.260000</speed>
</trkpt>
<trkpt lat="55.829704" lon="26.210424">
<ele>169.220825</ele>
<time>2010-07-17T12:59:05Z</time>
<desc>lat.=55.829704, lon.=26.210424, Alt.=169.220825m. Speed=1.872000m/h.</desc>
<speed>0.520000</speed>
</trkpt>
<trkpt lat="55.829712" lon="26.210417">
<ele>169.263794</ele>
<time>2010-07-17T12:59:06Z</time>
<desc>lat.=55.829712, lon.=26.210417, Alt.=169.263794m. Speed=0.828000m/h.</desc>
<speed>0.230000</speed>
</trkpt>
<trkpt lat="55.829704" lon="26.210411">
<ele>169.310669</ele>
<time>2010-07-17T12:59:07Z</time>
<desc>lat.=55.829704, lon.=26.210411, Alt.=169.310669m. Speed=1.044000m/h.</desc>
<speed>0.290000</speed>
</trkpt>
<trkpt lat="55.829697" lon="26.210403">
<ele>169.380981</ele>
<time>2010-07-17T12:59:08Z</time>
<desc>lat.=55.829697, lon.=26.210403, Alt.=169.380981m. Speed=1.440000m/h.</desc>
<speed>0.400000</speed>
</trkpt>
<trkpt lat="55.829697" lon="26.210394">
<ele>169.400513</ele>
<time>2010-07-17T12:59:09Z</time>
<desc>lat.=55.829697, lon.=26.210394, Alt.=169.400513m. Speed=0.576000m/h.</desc>
<speed>0.160000</speed>
</trkpt>
<trkpt lat="55.829685" lon="26.210386">
<ele>169.193481</ele>
<time>2010-07-17T12:59:10Z</time>
<desc>lat.=55.829685, lon.=26.210386, Alt.=169.193481m. Speed=1.260000m/h.</desc>
<speed>0.350000</speed>
</trkpt>
<trkpt lat="55.829689" lon="26.210367">
<ele>168.845825</ele>
<time>2010-07-17T12:59:11Z</time>
<desc>lat.=55.829689, lon.=26.210367, Alt.=168.845825m. Speed=2.052000m/h.</desc>
<speed>0.570000</speed>
</trkpt>
<trkpt lat="55.829681" lon="26.210350">
<ele>168.490356</ele>
<time>2010-07-17T12:59:12Z</time>
<desc>lat.=55.829681, lon.=26.210350, Alt.=168.490356m. Speed=2.592000m/h.</desc>
<speed>0.720000</speed>
</trkpt>
<trkpt lat="55.829678" lon="26.210339">
<ele>168.509888</ele>
<time>2010-07-17T12:59:13Z</time>
<desc>lat.=55.829678, lon.=26.210339, Alt.=168.509888m. Speed=2.736000m/h.</desc>
<speed>0.760000</speed>
</trkpt>
<trkpt lat="55.829670" lon="26.210323">
<ele>168.463013</ele>
<time>2010-07-17T12:59:14Z</time>
<desc>lat.=55.829670, lon.=26.210323, Alt.=168.463013m. Speed=3.312000m/h.</desc>
<speed>0.920000</speed>
</trkpt>
<trkpt lat="55.829655" lon="26.210299">
<ele>168.306763</ele>
<time>2010-07-17T12:59:15Z</time>
<desc>lat.=55.829655, lon.=26.210299, Alt.=168.306763m. Speed=4.320000m/h.</desc>
<speed>1.200000</speed>
</trkpt>
<trkpt lat="55.829655" lon="26.210289">
<ele>168.486450</ele>
<time>2010-07-17T12:59:16Z</time>
<desc>lat.=55.829655, lon.=26.210289, Alt.=168.486450m. Speed=3.708000m/h.</desc>
<speed>1.030000</speed>
</trkpt>
<trkpt lat="55.829662" lon="26.210255">
<ele>168.033325</ele>
<time>2010-07-17T12:59:17Z</time>
<desc>lat.=55.829662, lon.=26.210255, Alt.=168.033325m. Speed=5.004000m/h.</desc>
<speed>1.390000</speed>
</trkpt>
<trkpt lat="55.829659" lon="26.210222">
<ele>167.990356</ele>
<time>2010-07-17T12:59:18Z</time>
<desc>lat.=55.829659, lon.=26.210222, Alt.=167.990356m. Speed=5.796000m/h.</desc>
<speed>1.610000</speed>
</trkpt>
<trkpt lat="55.829655" lon="26.210188">
<ele>167.728638</ele>
<time>2010-07-17T12:59:19Z</time>
<desc>lat.=55.829655, lon.=26.210188, Alt.=167.728638m. Speed=8.532000m/h.</desc>
<speed>2.370000</speed>
</trkpt>
<trkpt lat="55.829643" lon="26.210155">
<ele>167.088013</ele>
<time>2010-07-17T12:59:20Z</time>
<desc>lat.=55.829643, lon.=26.210155, Alt.=167.088013m. Speed=6.876000m/h.</desc>
<speed>1.910000</speed>
</trkpt>
<trkpt lat="55.829643" lon="26.210131">
<ele>166.923950</ele>
<time>2010-07-17T12:59:21Z</time>
<desc>lat.=55.829643, lon.=26.210131, Alt.=166.923950m. Speed=4.752000m/h.</desc>
<speed>1.320000</speed>
</trkpt>
<trkpt lat="55.829636" lon="26.210089">
<ele>166.521606</ele>
<time>2010-07-17T12:59:22Z</time>
<desc>lat.=55.829636, lon.=26.210089, Alt.=166.521606m. Speed=6.660000m/h.</desc>
<speed>1.850000</speed>
</trkpt>
<trkpt lat="55.829632" lon="26.210041">
<ele>166.248169</ele>
<time>2010-07-17T12:59:23Z</time>
<desc>lat.=55.829632, lon.=26.210041, Alt.=166.248169m. Speed=6.300000m/h.</desc>
<speed>1.750000</speed>
</trkpt>
<trkpt lat="55.829632" lon="26.210009">
<ele>166.255981</ele>
<time>2010-07-17T12:59:24Z</time>
<desc>lat.=55.829632, lon.=26.210009, Alt.=166.255981m. Speed=5.832000m/h.</desc>
<speed>1.620000</speed>
</trkpt>
<trkpt lat="55.829632" lon="26.209969">
<ele>166.427856</ele>
<time>2010-07-17T12:59:25Z</time>
<desc>lat.=55.829632, lon.=26.209969, Alt.=166.427856m. Speed=7.380000m/h.</desc>
<speed>2.050000</speed>
</trkpt>
<trkpt lat="55.829628" lon="26.209932">
<ele>166.298950</ele>
<time>2010-07-17T12:59:26Z</time>
<desc>lat.=55.829628, lon.=26.209932, Alt.=166.298950m. Speed=5.688000m/h.</desc>
<speed>1.580000</speed>
</trkpt>
<trkpt lat="55.829620" lon="26.209913">
<ele>166.318481</ele>
<time>2010-07-17T12:59:27Z</time>
<desc>lat.=55.829620, lon.=26.209913, Alt.=166.318481m. Speed=3.888000m/h.</desc>
<speed>1.080000</speed>
</trkpt>
<trkpt lat="55.829605" lon="26.209867">
<ele>166.302856</ele>
<time>2010-07-17T12:59:28Z</time>
<desc>lat.=55.829605, lon.=26.209867, Alt.=166.302856m. Speed=8.928000m/h.</desc>
<speed>2.480000</speed>
</trkpt>
<trkpt lat="55.829594" lon="26.209795">
<ele>166.498169</ele>
<time>2010-07-17T12:59:29Z</time>
<desc>lat.=55.829594, lon.=26.209795, Alt.=166.498169m. Speed=9.540000m/h.</desc>
<speed>2.650000</speed>
</trkpt>
<trkpt lat="55.829586" lon="26.209749">
<ele>166.591919</ele>
<time>2010-07-17T12:59:30Z</time>
<desc>lat.=55.829586, lon.=26.209749, Alt.=166.591919m. Speed=7.524000m/h.</desc>
<speed>2.090000</speed>
</trkpt>
<trkpt lat="55.829575" lon="26.209675">
<ele>166.240356</ele>
<time>2010-07-17T12:59:31Z</time>
<desc>lat.=55.829575, lon.=26.209675, Alt.=166.240356m. Speed=11.448000m/h.</desc>
<speed>3.180000</speed>
</trkpt>
<trkpt lat="55.829575" lon="26.209620">
<ele>165.662231</ele>
<time>2010-07-17T12:59:32Z</time>
<desc>lat.=55.829575, lon.=26.209620, Alt.=165.662231m. Speed=11.196000m/h.</desc>
<speed>3.110000</speed>
</trkpt>
<trkpt lat="55.829567" lon="26.209568">
<ele>165.451294</ele>
<time>2010-07-17T12:59:33Z</time>
<desc>lat.=55.829567, lon.=26.209568, Alt.=165.451294m. Speed=10.692000m/h.</desc>
<speed>2.970000</speed>
</trkpt>
<trkpt lat="55.829563" lon="26.209530">
<ele>165.095825</ele>
<time>2010-07-17T12:59:34Z</time>
<desc>lat.=55.829563, lon.=26.209530, Alt.=165.095825m. Speed=8.352000m/h.</desc>
<speed>2.320000</speed>
</trkpt>
<trkpt lat="55.829559" lon="26.209496">
<ele>164.873169</ele>
<time>2010-07-17T12:59:35Z</time>
<desc>lat.=55.829559, lon.=26.209496, Alt.=164.873169m. Speed=7.380000m/h.</desc>
<speed>2.050000</speed>
</trkpt>
<trkpt lat="55.829552" lon="26.209459">
<ele>164.306763</ele>
<time>2010-07-17T12:59:36Z</time>
<desc>lat.=55.829552, lon.=26.209459, Alt.=164.306763m. Speed=8.388000m/h.</desc>
<speed>2.330000</speed>
</trkpt>
<trkpt lat="55.829536" lon="26.209421">
<ele>163.748169</ele>
<time>2010-07-17T12:59:37Z</time>
<desc>lat.=55.829536, lon.=26.209421, Alt.=163.748169m. Speed=7.992000m/h.</desc>
<speed>2.220000</speed>
</trkpt>
<trkpt lat="55.829510" lon="26.209377">
<ele>162.896606</ele>
<time>2010-07-17T12:59:38Z</time>
<desc>lat.=55.829510, lon.=26.209377, Alt.=162.896606m. Speed=8.100000m/h.</desc>
<speed>2.250000</speed>
</trkpt>
<trkpt lat="55.829498" lon="26.209318">
<ele>162.252075</ele>
<time>2010-07-17T12:59:39Z</time>
<desc>lat.=55.829498, lon.=26.209318, Alt.=162.252075m. Speed=11.268000m/h.</desc>
<speed>3.130000</speed>
</trkpt>
<trkpt lat="55.829487" lon="26.209267">
<ele>161.576294</ele>
<time>2010-07-17T12:59:40Z</time>
<desc>lat.=55.829487, lon.=26.209267, Alt.=161.576294m. Speed=9.468000m/h.</desc>
<speed>2.630000</speed>
</trkpt>
<trkpt lat="55.829468" lon="26.209194">
<ele>161.404419</ele>
<time>2010-07-17T12:59:41Z</time>
<desc>lat.=55.829468, lon.=26.209194, Alt.=161.404419m. Speed=11.844000m/h.</desc>
<speed>3.290000</speed>
</trkpt>
<trkpt lat="55.829456" lon="26.209146">
<ele>161.603638</ele>
<time>2010-07-17T12:59:42Z</time>
<desc>lat.=55.829456, lon.=26.209146, Alt.=161.603638m. Speed=9.252000m/h.</desc>
<speed>2.570000</speed>
</trkpt>
<trkpt lat="55.829449" lon="26.209085">
<ele>161.775513</ele>
<time>2010-07-17T12:59:43Z</time>
<desc>lat.=55.829449, lon.=26.209085, Alt.=161.775513m. Speed=8.244000m/h.</desc>
<speed>2.290000</speed>
</trkpt>
<trkpt lat="55.829445" lon="26.209011">
<ele>161.724731</ele>
<time>2010-07-17T12:59:44Z</time>
<desc>lat.=55.829445, lon.=26.209011, Alt.=161.724731m. Speed=11.052000m/h.</desc>
<speed>3.070000</speed>
</trkpt>
<trkpt lat="55.829456" lon="26.208941">
<ele>161.084106</ele>
<time>2010-07-17T12:59:45Z</time>
<desc>lat.=55.829456, lon.=26.208941, Alt.=161.084106m. Speed=10.188000m/h.</desc>
<speed>2.830000</speed>
</trkpt>
<trkpt lat="55.829460" lon="26.208872">
<ele>160.177856</ele>
<time>2010-07-17T12:59:46Z</time>
<desc>lat.=55.829460, lon.=26.208872, Alt.=160.177856m. Speed=10.728000m/h.</desc>
<speed>2.980000</speed>
</trkpt>
<trkpt lat="55.829449" lon="26.208818">
<ele>159.607544</ele>
<time>2010-07-17T12:59:47Z</time>
<desc>lat.=55.829449, lon.=26.208818, Alt.=159.607544m. Speed=5.436000m/h.</desc>
<speed>1.510000</speed>
</trkpt>
<trkpt lat="55.829445" lon="26.208784">
<ele>159.638794</ele>
<time>2010-07-17T12:59:48Z</time>
<desc>lat.=55.829445, lon.=26.208784, Alt.=159.638794m. Speed=3.672000m/h.</desc>
<speed>1.020000</speed>
</trkpt>
<trkpt lat="55.829445" lon="26.208742">
<ele>159.716919</ele>
<time>2010-07-17T12:59:49Z</time>
<desc>lat.=55.829445, lon.=26.208742, Alt.=159.716919m. Speed=5.652000m/h.</desc>
<speed>1.570000</speed>
</trkpt>
<trkpt lat="55.829453" lon="26.208691">
<ele>159.908325</ele>
<time>2010-07-17T12:59:50Z</time>
<desc>lat.=55.829453, lon.=26.208691, Alt.=159.908325m. Speed=5.688000m/h.</desc>
<speed>1.580000</speed>
</trkpt>
<trkpt lat="55.829464" lon="26.208622">
<ele>159.724731</ele>
<time>2010-07-17T12:59:51Z</time>
<desc>lat.=55.829464, lon.=26.208622, Alt.=159.724731m. Speed=7.848000m/h.</desc>
<speed>2.180000</speed>
</trkpt>
<trkpt lat="55.829468" lon="26.208569">
<ele>159.509888</ele>
<time>2010-07-17T12:59:52Z</time>
<desc>lat.=55.829468, lon.=26.208569, Alt.=159.509888m. Speed=6.516000m/h.</desc>
<speed>1.810000</speed>
</trkpt>
<trkpt lat="55.829475" lon="26.208508">
<ele>159.322388</ele>
<time>2010-07-17T12:59:53Z</time>
<desc>lat.=55.829475, lon.=26.208508, Alt.=159.322388m. Speed=8.928000m/h.</desc>
<speed>2.480000</speed>
</trkpt>
<trkpt lat="55.829479" lon="26.208437">
<ele>159.834106</ele>
<time>2010-07-17T12:59:54Z</time>
<desc>lat.=55.829479, lon.=26.208437, Alt.=159.834106m. Speed=9.792000m/h.</desc>
<speed>2.720000</speed>
</trkpt>
<trkpt lat="55.829487" lon="26.208366">
<ele>160.545044</ele>
<time>2010-07-17T12:59:55Z</time>
<desc>lat.=55.829487, lon.=26.208366, Alt.=160.545044m. Speed=9.216000m/h.</desc>
<speed>2.560000</speed>
</trkpt>
<trkpt lat="55.829491" lon="26.208279">
<ele>160.888794</ele>
<time>2010-07-17T12:59:56Z</time>
<desc>lat.=55.829491, lon.=26.208279, Alt.=160.888794m. Speed=12.780000m/h.</desc>
<speed>3.550000</speed>
</trkpt>
<trkpt lat="55.829494" lon="26.208185">
<ele>161.474731</ele>
<time>2010-07-17T12:59:57Z</time>
<desc>lat.=55.829494, lon.=26.208185, Alt.=161.474731m. Speed=12.636000m/h.</desc>
<speed>3.510000</speed>
</trkpt>
<trkpt lat="55.829502" lon="26.208109">
<ele>161.791138</ele>
<time>2010-07-17T12:59:58Z</time>
<desc>lat.=55.829502, lon.=26.208109, Alt.=161.791138m. Speed=7.452000m/h.</desc>
<speed>2.070000</speed>
</trkpt>
<trkpt lat="55.829510" lon="26.208052">
<ele>161.763794</ele>
<time>2010-07-17T12:59:59Z</time>
<desc>lat.=55.829510, lon.=26.208052, Alt.=161.763794m. Speed=7.056000m/h.</desc>
<speed>1.960000</speed>
</trkpt>
<trkpt lat="55.829506" lon="26.207987">
<ele>161.959106</ele>
<time>2010-07-17T13:00:00Z</time>
<desc>lat.=55.829506, lon.=26.207987, Alt.=161.959106m. Speed=7.560000m/h.</desc>
<speed>2.100000</speed>
</trkpt>
<trkpt lat="55.829510" lon="26.207920">
<ele>161.826294</ele>
<time>2010-07-17T13:00:01Z</time>
<desc>lat.=55.829510, lon.=26.207920, Alt.=161.826294m. Speed=8.676000m/h.</desc>
<speed>2.410000</speed>
</trkpt>
<trkpt lat="55.829514" lon="26.207878">
<ele>161.619263</ele>
<time>2010-07-17T13:00:02Z</time>
<desc>lat.=55.829514, lon.=26.207878, Alt.=161.619263m. Speed=8.172000m/h.</desc>
<speed>2.270000</speed>
</trkpt>
<trkpt lat="55.829525" lon="26.207825">
<ele>159.353638</ele>
<time>2010-07-17T13:00:03Z</time>
<desc>lat.=55.829525, lon.=26.207825, Alt.=159.353638m. Speed=11.232000m/h.</desc>
<speed>3.120000</speed>
</trkpt>
<trkpt lat="55.829525" lon="26.207767">
<ele>158.119263</ele>
<time>2010-07-17T13:00:04Z</time>
<desc>lat.=55.829525, lon.=26.207767, Alt.=158.119263m. Speed=9.036000m/h.</desc>
<speed>2.510000</speed>
</trkpt>
<trkpt lat="55.829536" lon="26.207697">
<ele>156.767700</ele>
<time>2010-07-17T13:00:05Z</time>
<desc>lat.=55.829536, lon.=26.207697, Alt.=156.767700m. Speed=11.592000m/h.</desc>
<speed>3.220000</speed>
</trkpt>
<trkpt lat="55.829548" lon="26.207632">
<ele>157.455200</ele>
<time>2010-07-17T13:00:06Z</time>
<desc>lat.=55.829548, lon.=26.207632, Alt.=157.455200m. Speed=13.068000m/h.</desc>
<speed>3.630000</speed>
</trkpt>
<trkpt lat="55.829567" lon="26.207537">
<ele>155.795044</ele>
<time>2010-07-17T13:00:07Z</time>
<desc>lat.=55.829567, lon.=26.207537, Alt.=155.795044m. Speed=12.708000m/h.</desc>
<speed>3.530000</speed>
</trkpt>
<trkpt lat="55.829586" lon="26.207445">
<ele>154.947388</ele>
<time>2010-07-17T13:00:08Z</time>
<desc>lat.=55.829586, lon.=26.207445, Alt.=154.947388m. Speed=14.724000m/h.</desc>
<speed>4.090000</speed>
</trkpt>
<trkpt lat="55.829601" lon="26.207386">
<ele>155.595825</ele>
<time>2010-07-17T13:00:09Z</time>
<desc>lat.=55.829601, lon.=26.207386, Alt.=155.595825m. Speed=10.296000m/h.</desc>
<speed>2.860000</speed>
</trkpt>
<trkpt lat="55.829609" lon="26.207335">
<ele>155.775513</ele>
<time>2010-07-17T13:00:10Z</time>
<desc>lat.=55.829609, lon.=26.207335, Alt.=155.775513m. Speed=10.944000m/h.</desc>
<speed>3.040000</speed>
</trkpt>
<trkpt lat="55.829609" lon="26.207291">
<ele>155.599731</ele>
<time>2010-07-17T13:00:11Z</time>
<desc>lat.=55.829609, lon.=26.207291, Alt.=155.599731m. Speed=7.812000m/h.</desc>
<speed>2.170000</speed>
</trkpt>
<trkpt lat="55.829597" lon="26.207241">
<ele>155.252075</ele>
<time>2010-07-17T13:00:12Z</time>
<desc>lat.=55.829597, lon.=26.207241, Alt.=155.252075m. Speed=6.444000m/h.</desc>
<speed>1.790000</speed>
</trkpt>
<trkpt lat="55.829597" lon="26.207186">
<ele>155.392700</ele>
<time>2010-07-17T13:00:13Z</time>
<desc>lat.=55.829597, lon.=26.207186, Alt.=155.392700m. Speed=7.776000m/h.</desc>
<speed>2.160000</speed>
</trkpt>
<trkpt lat="55.829594" lon="26.207096">
<ele>154.130981</ele>
<time>2010-07-17T13:00:14Z</time>
<desc>lat.=55.829594, lon.=26.207096, Alt.=154.130981m. Speed=8.496000m/h.</desc>
<speed>2.360000</speed>
</trkpt>
<trkpt lat="55.829594" lon="26.207045">
<ele>153.802856</ele>
<time>2010-07-17T13:00:15Z</time>
<desc>lat.=55.829594, lon.=26.207045, Alt.=153.802856m. Speed=8.028000m/h.</desc>
<speed>2.230000</speed>
</trkpt>
<trkpt lat="55.829601" lon="26.206968">
<ele>152.877075</ele>
<time>2010-07-17T13:00:16Z</time>
<desc>lat.=55.829601, lon.=26.206968, Alt.=152.877075m. Speed=9.324000m/h.</desc>
<speed>2.590000</speed>
</trkpt>
<trkpt lat="55.829601" lon="26.206919">
<ele>153.216919</ele>
<time>2010-07-17T13:00:17Z</time>
<desc>lat.=55.829601, lon.=26.206919, Alt.=153.216919m. Speed=5.112000m/h.</desc>
<speed>1.420000</speed>
</trkpt>
<trkpt lat="55.829605" lon="26.206896">
<ele>153.537231</ele>
<time>2010-07-17T13:00:18Z</time>
<desc>lat.=55.829605, lon.=26.206896, Alt.=153.537231m. Speed=12.024000m/h.</desc>
<speed>3.340000</speed>
</trkpt>
<trkpt lat="55.829613" lon="26.206837">
<ele>153.654419</ele>
<time>2010-07-17T13:00:19Z</time>
<desc>lat.=55.829613, lon.=26.206837, Alt.=153.654419m. Speed=8.208000m/h.</desc>
<speed>2.280000</speed>
</trkpt>
<trkpt lat="55.829613" lon="26.206768">
<ele>153.802856</ele>
<time>2010-07-17T13:00:20Z</time>
<desc>lat.=55.829613, lon.=26.206768, Alt.=153.802856m. Speed=11.160000m/h.</desc>
<speed>3.100000</speed>
</trkpt>
<trkpt lat="55.829609" lon="26.206673">
<ele>153.607544</ele>
<time>2010-07-17T13:00:21Z</time>
<desc>lat.=55.829609, lon.=26.206673, Alt.=153.607544m. Speed=11.628000m/h.</desc>
<speed>3.230000</speed>
</trkpt>
<trkpt lat="55.829613" lon="26.206621">
<ele>153.252075</ele>
<time>2010-07-17T13:00:22Z</time>
<desc>lat.=55.829613, lon.=26.206621, Alt.=153.252075m. Speed=9.252000m/h.</desc>
<speed>2.570000</speed>
</trkpt>
<trkpt lat="55.829620" lon="26.206553">
<ele>152.904419</ele>
<time>2010-07-17T13:00:23Z</time>
<desc>lat.=55.829620, lon.=26.206553, Alt.=152.904419m. Speed=12.384000m/h.</desc>
<speed>3.440000</speed>
</trkpt>
<trkpt lat="55.829624" lon="26.206486">
<ele>152.931763</ele>
<time>2010-07-17T13:00:24Z</time>
<desc>lat.=55.829624, lon.=26.206486, Alt.=152.931763m. Speed=11.304000m/h.</desc>
<speed>3.140000</speed>
</trkpt>
<trkpt lat="55.829628" lon="26.206411">
<ele>152.275513</ele>
<time>2010-07-17T13:00:25Z</time>
<desc>lat.=55.829628, lon.=26.206411, Alt.=152.275513m. Speed=12.672000m/h.</desc>
<speed>3.520000</speed>
</trkpt>
<trkpt lat="55.829639" lon="26.206345">
<ele>151.775513</ele>
<time>2010-07-17T13:00:26Z</time>
<desc>lat.=55.829639, lon.=26.206345, Alt.=151.775513m. Speed=11.844000m/h.</desc>
<speed>3.290000</speed>
</trkpt>
<trkpt lat="55.829643" lon="26.206282">
<ele>151.084106</ele>
<time>2010-07-17T13:00:27Z</time>
<desc>lat.=55.829643, lon.=26.206282, Alt.=151.084106m. Speed=10.332000m/h.</desc>
<speed>2.870000</speed>
</trkpt>
<trkpt lat="55.829636" lon="26.206219">
<ele>150.685669</ele>
<time>2010-07-17T13:00:28Z</time>
<desc>lat.=55.829636, lon.=26.206219, Alt.=150.685669m. Speed=8.532000m/h.</desc>
<speed>2.370000</speed>
</trkpt>
<trkpt lat="55.829613" lon="26.206163">
<ele>149.002075</ele>
<time>2010-07-17T13:00:29Z</time>
<desc>lat.=55.829613, lon.=26.206163, Alt.=149.002075m. Speed=7.272000m/h.</desc>
<speed>2.020000</speed>
</trkpt>
<trkpt lat="55.829586" lon="26.206089">
<ele>147.806763</ele>
<time>2010-07-17T13:00:30Z</time>
<desc>lat.=55.829586, lon.=26.206089, Alt.=147.806763m. Speed=5.328000m/h.</desc>
<speed>1.480000</speed>
</trkpt>
<trkpt lat="55.829571" lon="26.206036">
<ele>146.709106</ele>
<time>2010-07-17T13:00:31Z</time>
<desc>lat.=55.829571, lon.=26.206036, Alt.=146.709106m. Speed=5.292000m/h.</desc>
<speed>1.470000</speed>
</trkpt>
<trkpt lat="55.829559" lon="26.205976">
<ele>146.310669</ele>
<time>2010-07-17T13:00:32Z</time>
<desc>lat.=55.829559, lon.=26.205976, Alt.=146.310669m. Speed=5.184000m/h.</desc>
<speed>1.440000</speed>
</trkpt>
<trkpt lat="55.829548" lon="26.205902">
<ele>145.459106</ele>
<time>2010-07-17T13:00:33Z</time>
<desc>lat.=55.829548, lon.=26.205902, Alt.=145.459106m. Speed=7.668000m/h.</desc>
<speed>2.130000</speed>
</trkpt>
<trkpt lat="55.829540" lon="26.205826">
<ele>145.826294</ele>
<time>2010-07-17T13:00:34Z</time>
<desc>lat.=55.829540, lon.=26.205826, Alt.=145.826294m. Speed=9.972000m/h.</desc>
<speed>2.770000</speed>
</trkpt>
<trkpt lat="55.829533" lon="26.205727">
<ele>145.783325</ele>
<time>2010-07-17T13:00:35Z</time>
<desc>lat.=55.829533, lon.=26.205727, Alt.=145.783325m. Speed=13.644000m/h.</desc>
<speed>3.790000</speed>
</trkpt>
<trkpt lat="55.829540" lon="26.205635">
<ele>146.111450</ele>
<time>2010-07-17T13:00:36Z</time>
<desc>lat.=55.829540, lon.=26.205635, Alt.=146.111450m. Speed=15.696000m/h.</desc>
<speed>4.360000</speed>
</trkpt>
<trkpt lat="55.829540" lon="26.205519">
<ele>145.509888</ele>
<time>2010-07-17T13:00:37Z</time>
<desc>lat.=55.829540, lon.=26.205519, Alt.=145.509888m. Speed=16.020000m/h.</desc>
<speed>4.450000</speed>
</trkpt>
<trkpt lat="55.829544" lon="26.205429">
<ele>145.334106</ele>
<time>2010-07-17T13:00:38Z</time>
<desc>lat.=55.829544, lon.=26.205429, Alt.=145.334106m. Speed=15.012000m/h.</desc>
<speed>4.170000</speed>
</trkpt>
<trkpt lat="55.829544" lon="26.205351">
<ele>144.677856</ele>
<time>2010-07-17T13:00:39Z</time>
<desc>lat.=55.829544, lon.=26.205351, Alt.=144.677856m. Speed=12.816000m/h.</desc>
<speed>3.560000</speed>
</trkpt>
<trkpt lat="55.829540" lon="26.205256">
<ele>144.271606</ele>
<time>2010-07-17T13:00:40Z</time>
<desc>lat.=55.829540, lon.=26.205256, Alt.=144.271606m. Speed=13.392000m/h.</desc>
<speed>3.720000</speed>
</trkpt>
<trkpt lat="55.829540" lon="26.205196">
<ele>144.048950</ele>
<time>2010-07-17T13:00:41Z</time>
<desc>lat.=55.829540, lon.=26.205196, Alt.=144.048950m. Speed=11.664000m/h.</desc>
<speed>3.240000</speed>
</trkpt>
<trkpt lat="55.829548" lon="26.205116">
<ele>144.119263</ele>
<time>2010-07-17T13:00:42Z</time>
<desc>lat.=55.829548, lon.=26.205116, Alt.=144.119263m. Speed=13.536000m/h.</desc>
<speed>3.760000</speed>
</trkpt>
<trkpt lat="55.829563" lon="26.205038">
<ele>144.474731</ele>
<time>2010-07-17T13:00:43Z</time>
<desc>lat.=55.829563, lon.=26.205038, Alt.=144.474731m. Speed=8.712000m/h.</desc>
<speed>2.420000</speed>
</trkpt>
<trkpt lat="55.829571" lon="26.204964">
<ele>144.759888</ele>
<time>2010-07-17T13:00:44Z</time>
<desc>lat.=55.829571, lon.=26.204964, Alt.=144.759888m. Speed=8.676000m/h.</desc>
<speed>2.410000</speed>
</trkpt>
<trkpt lat="55.829578" lon="26.204920">
<ele>144.834106</ele>
<time>2010-07-17T13:00:45Z</time>
<desc>lat.=55.829578, lon.=26.204920, Alt.=144.834106m. Speed=7.128000m/h.</desc>
<speed>1.980000</speed>
</trkpt>
<trkpt lat="55.829590" lon="26.204874">
<ele>144.869263</ele>
<time>2010-07-17T13:00:46Z</time>
<desc>lat.=55.829590, lon.=26.204874, Alt.=144.869263m. Speed=7.416000m/h.</desc>
<speed>2.060000</speed>
</trkpt>
<trkpt lat="55.829601" lon="26.204842">
<ele>145.033325</ele>
<time>2010-07-17T13:00:47Z</time>
<desc>lat.=55.829601, lon.=26.204842, Alt.=145.033325m. Speed=4.860000m/h.</desc>
<speed>1.350000</speed>
</trkpt>
<trkpt lat="55.829609" lon="26.204777">
<ele>145.127075</ele>
<time>2010-07-17T13:00:48Z</time>
<desc>lat.=55.829609, lon.=26.204777, Alt.=145.127075m. Speed=7.920000m/h.</desc>
<speed>2.200000</speed>
</trkpt>
<trkpt lat="55.829617" lon="26.204712">
<ele>145.357544</ele>
<time>2010-07-17T13:00:49Z</time>
<desc>lat.=55.829617, lon.=26.204712, Alt.=145.357544m. Speed=2.520000m/h.</desc>
<speed>0.700000</speed>
</trkpt>
<trkpt lat="55.829624" lon="26.204687">
<ele>145.763794</ele>
<time>2010-07-17T13:00:50Z</time>
<desc>lat.=55.829624, lon.=26.204687, Alt.=145.763794m. Speed=6.084000m/h.</desc>
<speed>1.690000</speed>
</trkpt>
<trkpt lat="55.829624" lon="26.204638">
<ele>146.353638</ele>
<time>2010-07-17T13:00:51Z</time>
<desc>lat.=55.829624, lon.=26.204638, Alt.=146.353638m. Speed=5.148000m/h.</desc>
<speed>1.430000</speed>
</trkpt>
<trkpt lat="55.829620" lon="26.204575">
<ele>146.783325</ele>
<time>2010-07-17T13:00:52Z</time>
<desc>lat.=55.829620, lon.=26.204575, Alt.=146.783325m. Speed=8.136000m/h.</desc>
<speed>2.260000</speed>
</trkpt>
<trkpt lat="55.829617" lon="26.204521">
<ele>147.150513</ele>
<time>2010-07-17T13:00:53Z</time>
<desc>lat.=55.829617, lon.=26.204521, Alt.=147.150513m. Speed=7.092000m/h.</desc>
<speed>1.970000</speed>
</trkpt>
<trkpt lat="55.829620" lon="26.204493">
<ele>147.697388</ele>
<time>2010-07-17T13:00:54Z</time>
<desc>lat.=55.829620, lon.=26.204493, Alt.=147.697388m. Speed=6.228000m/h.</desc>
<speed>1.730000</speed>
</trkpt>
<trkpt lat="55.829613" lon="26.204449">
<ele>148.162231</ele>
<time>2010-07-17T13:00:55Z</time>
<desc>lat.=55.829613, lon.=26.204449, Alt.=148.162231m. Speed=7.920000m/h.</desc>
<speed>2.200000</speed>
</trkpt>
<trkpt lat="55.829601" lon="26.204411">
<ele>148.533325</ele>
<time>2010-07-17T13:00:56Z</time>
<desc>lat.=55.829601, lon.=26.204411, Alt.=148.533325m. Speed=7.416000m/h.</desc>
<speed>2.060000</speed>
</trkpt>
<trkpt lat="55.829597" lon="26.204391">
<ele>149.189575</ele>
<time>2010-07-17T13:00:57Z</time>
<desc>lat.=55.829597, lon.=26.204391, Alt.=149.189575m. Speed=3.744000m/h.</desc>
<speed>1.040000</speed>
</trkpt>
<trkpt lat="55.829597" lon="26.204367">
<ele>149.755981</ele>
<time>2010-07-17T13:00:58Z</time>
<desc>lat.=55.829597, lon.=26.204367, Alt.=149.755981m. Speed=4.608000m/h.</desc>
<speed>1.280000</speed>
</trkpt>
<trkpt lat="55.829586" lon="26.204268">
<ele>150.716919</ele>
<time>2010-07-17T13:00:59Z</time>
<desc>lat.=55.829586, lon.=26.204268, Alt.=150.716919m. Speed=3.960000m/h.</desc>
<speed>1.100000</speed>
</trkpt>
<trkpt lat="55.829582" lon="26.204252">
<ele>151.056763</ele>
<time>2010-07-17T13:01:00Z</time>
<desc>lat.=55.829582, lon.=26.204252, Alt.=151.056763m. Speed=4.032000m/h.</desc>
<speed>1.120000</speed>
</trkpt>
<trkpt lat="55.829575" lon="26.204239">
<ele>151.361450</ele>
<time>2010-07-17T13:01:01Z</time>
<desc>lat.=55.829575, lon.=26.204239, Alt.=151.361450m. Speed=4.356000m/h.</desc>
<speed>1.210000</speed>
</trkpt>
<trkpt lat="55.829002" lon="26.202312">
<ele>150.439575</ele>
<time>2010-07-17T13:01:03Z</time>
<desc>lat.=55.829002, lon.=26.202312, Alt.=150.439575m. Speed=4.500000m/h.</desc>
<speed>1.250000</speed>
</trkpt>
<trkpt lat="55.829033" lon="26.202269">
<ele>153.513794</ele>
<time>2010-07-17T13:01:04Z</time>
<desc>lat.=55.829033, lon.=26.202269, Alt.=153.513794m. Speed=3.024000m/h.</desc>
<speed>0.840000</speed>
</trkpt>
<trkpt lat="55.829033" lon="26.202272">
<ele>153.865356</ele>
<time>2010-07-17T13:01:05Z</time>
<desc>lat.=55.829033, lon.=26.202272, Alt.=153.865356m. Speed=1.872000m/h.</desc>
<speed>0.520000</speed>
</trkpt>
<trkpt lat="55.829021" lon="26.202280">
<ele>153.990356</ele>
<time>2010-07-17T13:01:06Z</time>
<desc>lat.=55.829021, lon.=26.202280, Alt.=153.990356m. Speed=2.484000m/h.</desc>
<speed>0.690000</speed>
</trkpt>
<trkpt lat="55.829018" lon="26.202272">
<ele>154.255981</ele>
<time>2010-07-17T13:01:07Z</time>
<desc>lat.=55.829018, lon.=26.202272, Alt.=154.255981m. Speed=3.204000m/h.</desc>
<speed>0.890000</speed>
</trkpt>
<trkpt lat="55.829010" lon="26.202261">
<ele>154.556763</ele>
<time>2010-07-17T13:01:08Z</time>
<desc>lat.=55.829010, lon.=26.202261, Alt.=154.556763m. Speed=3.204000m/h.</desc>
<speed>0.890000</speed>
</trkpt>
<trkpt lat="55.829006" lon="26.202248">
<ele>154.857544</ele>
<time>2010-07-17T13:01:09Z</time>
<desc>lat.=55.829006, lon.=26.202248, Alt.=154.857544m. Speed=3.420000m/h.</desc>
<speed>0.950000</speed>
</trkpt>
<trkpt lat="55.829002" lon="26.202234">
<ele>155.130981</ele>
<time>2010-07-17T13:01:10Z</time>
<desc>lat.=55.829002, lon.=26.202234, Alt.=155.130981m. Speed=3.168000m/h.</desc>
<speed>0.880000</speed>
</trkpt>
<trkpt lat="55.828999" lon="26.202221">
<ele>155.431763</ele>
<time>2010-07-17T13:01:11Z</time>
<desc>lat.=55.828999, lon.=26.202221, Alt.=155.431763m. Speed=4.176000m/h.</desc>
<speed>1.160000</speed>
</trkpt>
<trkpt lat="55.828991" lon="26.202177">
<ele>154.849731</ele>
<time>2010-07-17T13:01:12Z</time>
<desc>lat.=55.828991, lon.=26.202177, Alt.=154.849731m. Speed=4.608000m/h.</desc>
<speed>1.280000</speed>
</trkpt>
<trkpt lat="55.828983" lon="26.202162">
<ele>153.861450</ele>
<time>2010-07-17T13:01:13Z</time>
<desc>lat.=55.828983, lon.=26.202162, Alt.=153.861450m. Speed=3.960000m/h.</desc>
<speed>1.100000</speed>
</trkpt>
<trkpt lat="55.828968" lon="26.202141">
<ele>154.013794</ele>
<time>2010-07-17T13:01:14Z</time>
<desc>lat.=55.828968, lon.=26.202141, Alt.=154.013794m. Speed=3.636000m/h.</desc>
<speed>1.010000</speed>
</trkpt>
<trkpt lat="55.828968" lon="26.202108">
<ele>153.525513</ele>
<time>2010-07-17T13:01:15Z</time>
<desc>lat.=55.828968, lon.=26.202108, Alt.=153.525513m. Speed=3.348000m/h.</desc>
<speed>0.930000</speed>
</trkpt>
<trkpt lat="55.828987" lon="26.202091">
<ele>154.369263</ele>
<time>2010-07-17T13:01:16Z</time>
<desc>lat.=55.828987, lon.=26.202091, Alt.=154.369263m. Speed=3.672000m/h.</desc>
<speed>1.020000</speed>
</trkpt>
<trkpt lat="55.828999" lon="26.202076">
<ele>155.615356</ele>
<time>2010-07-17T13:01:17Z</time>
<desc>lat.=55.828999, lon.=26.202076, Alt.=155.615356m. Speed=3.492000m/h.</desc>
<speed>0.970000</speed>
</trkpt>
<trkpt lat="55.829018" lon="26.202057">
<ele>156.416138</ele>
<time>2010-07-17T13:01:18Z</time>
<desc>lat.=55.829018, lon.=26.202057, Alt.=156.416138m. Speed=3.384000m/h.</desc>
<speed>0.940000</speed>
</trkpt>
<trkpt lat="55.829029" lon="26.202040">
<ele>157.791138</ele>
<time>2010-07-17T13:01:19Z</time>
<desc>lat.=55.829029, lon.=26.202040, Alt.=157.791138m. Speed=3.456000m/h.</desc>
<speed>0.960000</speed>
</trkpt>
<trkpt lat="55.829033" lon="26.202023">
<ele>158.088013</ele>
<time>2010-07-17T13:01:20Z</time>
<desc>lat.=55.829033, lon.=26.202023, Alt.=158.088013m. Speed=2.088000m/h.</desc>
<speed>0.580000</speed>
</trkpt>
<trkpt lat="55.829041" lon="26.202013">
<ele>159.705200</ele>
<time>2010-07-17T13:01:21Z</time>
<desc>lat.=55.829041, lon.=26.202013, Alt.=159.705200m. Speed=2.448000m/h.</desc>
<speed>0.680000</speed>
</trkpt>
<trkpt lat="55.829044" lon="26.201990">
<ele>159.232544</ele>
<time>2010-07-17T13:01:22Z</time>
<desc>lat.=55.829044, lon.=26.201990, Alt.=159.232544m. Speed=2.772000m/h.</desc>
<speed>0.770000</speed>
</trkpt>
<trkpt lat="55.829056" lon="26.201981">
<ele>160.009888</ele>
<time>2010-07-17T13:01:23Z</time>
<desc>lat.=55.829056, lon.=26.201981, Alt.=160.009888m. Speed=3.492000m/h.</desc>
<speed>0.970000</speed>
</trkpt>
<trkpt lat="55.829060" lon="26.201965">
<ele>160.338013</ele>
<time>2010-07-17T13:01:24Z</time>
<desc>lat.=55.829060, lon.=26.201965, Alt.=160.338013m. Speed=3.348000m/h.</desc>
<speed>0.930000</speed>
</trkpt>
<trkpt lat="55.829056" lon="26.201925">
<ele>160.154419</ele>
<time>2010-07-17T13:01:25Z</time>
<desc>lat.=55.829056, lon.=26.201925, Alt.=160.154419m. Speed=4.788000m/h.</desc>
<speed>1.330000</speed>
</trkpt>
<trkpt lat="55.829052" lon="26.201895">
<ele>161.013794</ele>
<time>2010-07-17T13:01:26Z</time>
<desc>lat.=55.829052, lon.=26.201895, Alt.=161.013794m. Speed=7.452000m/h.</desc>
<speed>2.070000</speed>
</trkpt>
<trkpt lat="55.829052" lon="26.201866">
<ele>160.955200</ele>
<time>2010-07-17T13:01:27Z</time>
<desc>lat.=55.829052, lon.=26.201866, Alt.=160.955200m. Speed=7.164000m/h.</desc>
<speed>1.990000</speed>
</trkpt>
<trkpt lat="55.829056" lon="26.201845">
<ele>161.314575</ele>
<time>2010-07-17T13:01:28Z</time>
<desc>lat.=55.829056, lon.=26.201845, Alt.=161.314575m. Speed=4.572000m/h.</desc>
<speed>1.270000</speed>
</trkpt>
<trkpt lat="55.829048" lon="26.201811">
<ele>161.134888</ele>
<time>2010-07-17T13:01:29Z</time>
<desc>lat.=55.829048, lon.=26.201811, Alt.=161.134888m. Speed=6.300000m/h.</desc>
<speed>1.750000</speed>
</trkpt>
<trkpt lat="55.829052" lon="26.201786">
<ele>161.033325</ele>
<time>2010-07-17T13:01:30Z</time>
<desc>lat.=55.829052, lon.=26.201786, Alt.=161.033325m. Speed=5.364000m/h.</desc>
<speed>1.490000</speed>
</trkpt>
<trkpt lat="55.829060" lon="26.201771">
<ele>161.775513</ele>
<time>2010-07-17T13:01:31Z</time>
<desc>lat.=55.829060, lon.=26.201771, Alt.=161.775513m. Speed=3.492000m/h.</desc>
<speed>0.970000</speed>
</trkpt>
<trkpt lat="55.829060" lon="26.201750">
<ele>162.404419</ele>
<time>2010-07-17T13:01:32Z</time>
<desc>lat.=55.829060, lon.=26.201750, Alt.=162.404419m. Speed=4.284000m/h.</desc>
<speed>1.190000</speed>
</trkpt>
<trkpt lat="55.829056" lon="26.201712">
<ele>162.517700</ele>
<time>2010-07-17T13:01:33Z</time>
<desc>lat.=55.829056, lon.=26.201712, Alt.=162.517700m. Speed=3.312000m/h.</desc>
<speed>0.920000</speed>
</trkpt>
<trkpt lat="55.829060" lon="26.201700">
<ele>163.396606</ele>
<time>2010-07-17T13:01:34Z</time>
<desc>lat.=55.829060, lon.=26.201700, Alt.=163.396606m. Speed=2.448000m/h.</desc>
<speed>0.680000</speed>
</trkpt>
<trkpt lat="55.829056" lon="26.201681">
<ele>163.798950</ele>
<time>2010-07-17T13:01:35Z</time>
<desc>lat.=55.829056, lon.=26.201681, Alt.=163.798950m. Speed=3.060000m/h.</desc>
<speed>0.850000</speed>
</trkpt>
<trkpt lat="55.829056" lon="26.201662">
<ele>164.150513</ele>
<time>2010-07-17T13:01:36Z</time>
<desc>lat.=55.829056, lon.=26.201662, Alt.=164.150513m. Speed=3.132000m/h.</desc>
<speed>0.870000</speed>
</trkpt>
<trkpt lat="55.829056" lon="26.201641">
<ele>164.416138</ele>
<time>2010-07-17T13:01:37Z</time>
<desc>lat.=55.829056, lon.=26.201641, Alt.=164.416138m. Speed=3.276000m/h.</desc>
<speed>0.910000</speed>
</trkpt>
<trkpt lat="55.829056" lon="26.201624">
<ele>164.787231</ele>
<time>2010-07-17T13:01:38Z</time>
<desc>lat.=55.829056, lon.=26.201624, Alt.=164.787231m. Speed=3.060000m/h.</desc>
<speed>0.850000</speed>
</trkpt>
<trkpt lat="55.829060" lon="26.201607">
<ele>165.041138</ele>
<time>2010-07-17T13:01:39Z</time>
<desc>lat.=55.829060, lon.=26.201607, Alt.=165.041138m. Speed=3.276000m/h.</desc>
<speed>0.910000</speed>
</trkpt>
<trkpt lat="55.829056" lon="26.201578">
<ele>164.935669</ele>
<time>2010-07-17T13:01:40Z</time>
<desc>lat.=55.829056, lon.=26.201578, Alt.=164.935669m. Speed=4.248000m/h.</desc>
<speed>1.180000</speed>
</trkpt>
<trkpt lat="55.829063" lon="26.201553">
<ele>165.384888</ele>
<time>2010-07-17T13:01:41Z</time>
<desc>lat.=55.829063, lon.=26.201553, Alt.=165.384888m. Speed=4.428000m/h.</desc>
<speed>1.230000</speed>
</trkpt>
<trkpt lat="55.829018" lon="26.201456">
<ele>165.033325</ele>
<time>2010-07-17T13:01:42Z</time>
<desc>lat.=55.829018, lon.=26.201456, Alt.=165.033325m. Speed=5.760000m/h.</desc>
<speed>1.600000</speed>
</trkpt>
<trkpt lat="55.829018" lon="26.201426">
<ele>164.990356</ele>
<time>2010-07-17T13:01:43Z</time>
<desc>lat.=55.829018, lon.=26.201426, Alt.=164.990356m. Speed=5.040000m/h.</desc>
<speed>1.400000</speed>
</trkpt>
<trkpt lat="55.829021" lon="26.201393">
<ele>165.611450</ele>
<time>2010-07-17T13:01:44Z</time>
<desc>lat.=55.829021, lon.=26.201393, Alt.=165.611450m. Speed=5.076000m/h.</desc>
<speed>1.410000</speed>
</trkpt>
<trkpt lat="55.829018" lon="26.201359">
<ele>165.517700</ele>
<time>2010-07-17T13:01:45Z</time>
<desc>lat.=55.829018, lon.=26.201359, Alt.=165.517700m. Speed=5.184000m/h.</desc>
<speed>1.440000</speed>
</trkpt>
<trkpt lat="55.829018" lon="26.201326">
<ele>165.959106</ele>
<time>2010-07-17T13:01:46Z</time>
<desc>lat.=55.829018, lon.=26.201326, Alt.=165.959106m. Speed=6.480000m/h.</desc>
<speed>1.800000</speed>
</trkpt>
<trkpt lat="55.829021" lon="26.201286">
<ele>166.314575</ele>
<time>2010-07-17T13:01:47Z</time>
<desc>lat.=55.829021, lon.=26.201286, Alt.=166.314575m. Speed=6.372000m/h.</desc>
<speed>1.770000</speed>
</trkpt>
<trkpt lat="55.829025" lon="26.201256">
<ele>166.705200</ele>
<time>2010-07-17T13:01:48Z</time>
<desc>lat.=55.829025, lon.=26.201256, Alt.=166.705200m. Speed=5.724000m/h.</desc>
<speed>1.590000</speed>
</trkpt>
<trkpt lat="55.829029" lon="26.201227">
<ele>167.447388</ele>
<time>2010-07-17T13:01:49Z</time>
<desc>lat.=55.829029, lon.=26.201227, Alt.=167.447388m. Speed=4.968000m/h.</desc>
<speed>1.380000</speed>
</trkpt>
<trkpt lat="55.829033" lon="26.201200">
<ele>167.439575</ele>
<time>2010-07-17T13:01:50Z</time>
<desc>lat.=55.829033, lon.=26.201200, Alt.=167.439575m. Speed=5.760000m/h.</desc>
<speed>1.600000</speed>
</trkpt>
<trkpt lat="55.829037" lon="26.201183">
<ele>167.474731</ele>
<time>2010-07-17T13:01:51Z</time>
<desc>lat.=55.829037, lon.=26.201183, Alt.=167.474731m. Speed=4.572000m/h.</desc>
<speed>1.270000</speed>
</trkpt>
<trkpt lat="55.829041" lon="26.201159">
<ele>168.455200</ele>
<time>2010-07-17T13:01:52Z</time>
<desc>lat.=55.829041, lon.=26.201159, Alt.=168.455200m. Speed=5.112000m/h.</desc>
<speed>1.420000</speed>
</trkpt>
<trkpt lat="55.829041" lon="26.201134">
<ele>168.580200</ele>
<time>2010-07-17T13:01:53Z</time>
<desc>lat.=55.829041, lon.=26.201134, Alt.=168.580200m. Speed=5.220000m/h.</desc>
<speed>1.450000</speed>
</trkpt>
<trkpt lat="55.829044" lon="26.201107">
<ele>168.959106</ele>
<time>2010-07-17T13:01:54Z</time>
<desc>lat.=55.829044, lon.=26.201107, Alt.=168.959106m. Speed=5.832000m/h.</desc>
<speed>1.620000</speed>
</trkpt>
<trkpt lat="55.829029" lon="26.201035">
<ele>169.416138</ele>
<time>2010-07-17T13:01:55Z</time>
<desc>lat.=55.829029, lon.=26.201035, Alt.=169.416138m. Speed=6.228000m/h.</desc>
<speed>1.730000</speed>
</trkpt>
<trkpt lat="55.829029" lon="26.201019">
<ele>169.353638</ele>
<time>2010-07-17T13:01:56Z</time>
<desc>lat.=55.829029, lon.=26.201019, Alt.=169.353638m. Speed=2.556000m/h.</desc>
<speed>0.710000</speed>
</trkpt>
<trkpt lat="55.829033" lon="26.201008">
<ele>169.916138</ele>
<time>2010-07-17T13:01:57Z</time>
<desc>lat.=55.829033, lon.=26.201008, Alt.=169.916138m. Speed=2.952000m/h.</desc>
<speed>0.820000</speed>
</trkpt>
<trkpt lat="55.829033" lon="26.200987">
<ele>170.505981</ele>
<time>2010-07-17T13:01:58Z</time>
<desc>lat.=55.829033, lon.=26.200987, Alt.=170.505981m. Speed=3.924000m/h.</desc>
<speed>1.090000</speed>
</trkpt>
<trkpt lat="55.829033" lon="26.200966">
<ele>170.853638</ele>
<time>2010-07-17T13:01:59Z</time>
<desc>lat.=55.829033, lon.=26.200966, Alt.=170.853638m. Speed=4.608000m/h.</desc>
<speed>1.280000</speed>
</trkpt>
<trkpt lat="55.829025" lon="26.200922">
<ele>171.146606</ele>
<time>2010-07-17T13:02:00Z</time>
<desc>lat.=55.829025, lon.=26.200922, Alt.=171.146606m. Speed=6.480000m/h.</desc>
<speed>1.800000</speed>
</trkpt>
<trkpt lat="55.829021" lon="26.200888">
<ele>171.240356</ele>
<time>2010-07-17T13:02:01Z</time>
<desc>lat.=55.829021, lon.=26.200888, Alt.=171.240356m. Speed=5.904000m/h.</desc>
<speed>1.640000</speed>
</trkpt>
<trkpt lat="55.829021" lon="26.200851">
<ele>171.244263</ele>
<time>2010-07-17T13:02:02Z</time>
<desc>lat.=55.829021, lon.=26.200851, Alt.=171.244263m. Speed=5.580000m/h.</desc>
<speed>1.550000</speed>
</trkpt>
<trkpt lat="55.829025" lon="26.200825">
<ele>172.181763</ele>
<time>2010-07-17T13:02:03Z</time>
<desc>lat.=55.829025, lon.=26.200825, Alt.=172.181763m. Speed=5.724000m/h.</desc>
<speed>1.590000</speed>
</trkpt>
<trkpt lat="55.829029" lon="26.200811">
<ele>172.177856</ele>
<time>2010-07-17T13:02:04Z</time>
<desc>lat.=55.829029, lon.=26.200811, Alt.=172.177856m. Speed=3.096000m/h.</desc>
<speed>0.860000</speed>
</trkpt>
<trkpt lat="55.829033" lon="26.200794">
<ele>172.810669</ele>
<time>2010-07-17T13:02:05Z</time>
<desc>lat.=55.829033, lon.=26.200794, Alt.=172.810669m. Speed=6.120000m/h.</desc>
<speed>1.700000</speed>
</trkpt>
<trkpt lat="55.829025" lon="26.200756">
<ele>173.056763</ele>
<time>2010-07-17T13:02:06Z</time>
<desc>lat.=55.829025, lon.=26.200756, Alt.=173.056763m. Speed=5.760000m/h.</desc>
<speed>1.600000</speed>
</trkpt>
<trkpt lat="55.829018" lon="26.200718">
<ele>172.986450</ele>
<time>2010-07-17T13:02:07Z</time>
<desc>lat.=55.829018, lon.=26.200718, Alt.=172.986450m. Speed=7.884000m/h.</desc>
<speed>2.190000</speed>
</trkpt>
<trkpt lat="55.829014" lon="26.200686">
<ele>172.951294</ele>
<time>2010-07-17T13:02:08Z</time>
<desc>lat.=55.829014, lon.=26.200686, Alt.=172.951294m. Speed=6.480000m/h.</desc>
<speed>1.800000</speed>
</trkpt>
<trkpt lat="55.829014" lon="26.200663">
<ele>173.384888</ele>
<time>2010-07-17T13:02:09Z</time>
<desc>lat.=55.829014, lon.=26.200663, Alt.=173.384888m. Speed=6.876000m/h.</desc>
<speed>1.910000</speed>
</trkpt>
<trkpt lat="55.829010" lon="26.200630">
<ele>173.693481</ele>
<time>2010-07-17T13:02:10Z</time>
<desc>lat.=55.829010, lon.=26.200630, Alt.=173.693481m. Speed=6.264000m/h.</desc>
<speed>1.740000</speed>
</trkpt>
<trkpt lat="55.829006" lon="26.200600">
<ele>173.248169</ele>
<time>2010-07-17T13:02:11Z</time>
<desc>lat.=55.829006, lon.=26.200600, Alt.=173.248169m. Speed=5.328000m/h.</desc>
<speed>1.480000</speed>
</trkpt>
<trkpt lat="55.829006" lon="26.200575">
<ele>173.888794</ele>
<time>2010-07-17T13:02:12Z</time>
<desc>lat.=55.829006, lon.=26.200575, Alt.=173.888794m. Speed=6.660000m/h.</desc>
<speed>1.850000</speed>
</trkpt>
<trkpt lat="55.829002" lon="26.200552">
<ele>173.666138</ele>
<time>2010-07-17T13:02:13Z</time>
<desc>lat.=55.829002, lon.=26.200552, Alt.=173.666138m. Speed=5.472000m/h.</desc>
<speed>1.520000</speed>
</trkpt>
<trkpt lat="55.829002" lon="26.200525">
<ele>173.591919</ele>
<time>2010-07-17T13:02:14Z</time>
<desc>lat.=55.829002, lon.=26.200525, Alt.=173.591919m. Speed=6.192000m/h.</desc>
<speed>1.720000</speed>
</trkpt>
<trkpt lat="55.829002" lon="26.200502">
<ele>174.033325</ele>
<time>2010-07-17T13:02:15Z</time>
<desc>lat.=55.829002, lon.=26.200502, Alt.=174.033325m. Speed=5.148000m/h.</desc>
<speed>1.430000</speed>
</trkpt>
<trkpt lat="55.829002" lon="26.200480">
<ele>174.369263</ele>
<time>2010-07-17T13:02:16Z</time>
<desc>lat.=55.829002, lon.=26.200480, Alt.=174.369263m. Speed=7.200000m/h.</desc>
<speed>2.000000</speed>
</trkpt>
<trkpt lat="55.829002" lon="26.200457">
<ele>174.396606</ele>
<time>2010-07-17T13:02:17Z</time>
<desc>lat.=55.829002, lon.=26.200457, Alt.=174.396606m. Speed=5.364000m/h.</desc>
<speed>1.490000</speed>
</trkpt>
<trkpt lat="55.828999" lon="26.200420">
<ele>174.392700</ele>
<time>2010-07-17T13:02:18Z</time>
<desc>lat.=55.828999, lon.=26.200420, Alt.=174.392700m. Speed=2.484000m/h.</desc>
<speed>0.690000</speed>
</trkpt>
<trkpt lat="55.828995" lon="26.200388">
<ele>174.724731</ele>
<time>2010-07-17T13:02:19Z</time>
<desc>lat.=55.828995, lon.=26.200388, Alt.=174.724731m. Speed=6.696000m/h.</desc>
<speed>1.860000</speed>
</trkpt>
<trkpt lat="55.828991" lon="26.200356">
<ele>174.880981</ele>
<time>2010-07-17T13:02:20Z</time>
<desc>lat.=55.828991, lon.=26.200356, Alt.=174.880981m. Speed=6.588000m/h.</desc>
<speed>1.830000</speed>
</trkpt>
<trkpt lat="55.828991" lon="26.200335">
<ele>174.920044</ele>
<time>2010-07-17T13:02:21Z</time>
<desc>lat.=55.828991, lon.=26.200335, Alt.=174.920044m. Speed=3.276000m/h.</desc>
<speed>0.910000</speed>
</trkpt>
<trkpt lat="55.828995" lon="26.200327">
<ele>174.818481</ele>
<time>2010-07-17T13:02:22Z</time>
<desc>lat.=55.828995, lon.=26.200327, Alt.=174.818481m. Speed=1.584000m/h.</desc>
<speed>0.440000</speed>
</trkpt>
<trkpt lat="55.828987" lon="26.200298">
<ele>174.095825</ele>
<time>2010-07-17T13:02:23Z</time>
<desc>lat.=55.828987, lon.=26.200298, Alt.=174.095825m. Speed=3.600000m/h.</desc>
<speed>1.000000</speed>
</trkpt>
<trkpt lat="55.828987" lon="26.200279">
<ele>174.412231</ele>
<time>2010-07-17T13:02:24Z</time>
<desc>lat.=55.828987, lon.=26.200279, Alt.=174.412231m. Speed=4.536000m/h.</desc>
<speed>1.260000</speed>
</trkpt>
<trkpt lat="55.828987" lon="26.200260">
<ele>174.709106</ele>
<time>2010-07-17T13:02:25Z</time>
<desc>lat.=55.828987, lon.=26.200260, Alt.=174.709106m. Speed=3.888000m/h.</desc>
<speed>1.080000</speed>
</trkpt>
<trkpt lat="55.828987" lon="26.200239">
<ele>174.588013</ele>
<time>2010-07-17T13:02:26Z</time>
<desc>lat.=55.828987, lon.=26.200239, Alt.=174.588013m. Speed=5.040000m/h.</desc>
<speed>1.400000</speed>
</trkpt>
<trkpt lat="55.828987" lon="26.200203">
<ele>175.045044</ele>
<time>2010-07-17T13:02:27Z</time>
<desc>lat.=55.828987, lon.=26.200203, Alt.=175.045044m. Speed=9.360000m/h.</desc>
<speed>2.600000</speed>
</trkpt>
<trkpt lat="55.828987" lon="26.200163">
<ele>175.849731</ele>
<time>2010-07-17T13:02:28Z</time>
<desc>lat.=55.828987, lon.=26.200163, Alt.=175.849731m. Speed=6.804000m/h.</desc>
<speed>1.890000</speed>
</trkpt>
<trkpt lat="55.828983" lon="26.200127">
<ele>175.935669</ele>
<time>2010-07-17T13:02:29Z</time>
<desc>lat.=55.828983, lon.=26.200127, Alt.=175.935669m. Speed=7.812000m/h.</desc>
<speed>2.170000</speed>
</trkpt>
<trkpt lat="55.828972" lon="26.200083">
<ele>175.216919</ele>
<time>2010-07-17T13:02:30Z</time>
<desc>lat.=55.828972, lon.=26.200083, Alt.=175.216919m. Speed=6.840000m/h.</desc>
<speed>1.900000</speed>
</trkpt>
<trkpt lat="55.828972" lon="26.200056">
<ele>175.494263</ele>
<time>2010-07-17T13:02:31Z</time>
<desc>lat.=55.828972, lon.=26.200056, Alt.=175.494263m. Speed=5.832000m/h.</desc>
<speed>1.620000</speed>
</trkpt>
<trkpt lat="55.828968" lon="26.200026">
<ele>175.584106</ele>
<time>2010-07-17T13:02:32Z</time>
<desc>lat.=55.828968, lon.=26.200026, Alt.=175.584106m. Speed=7.164000m/h.</desc>
<speed>1.990000</speed>
</trkpt>
<trkpt lat="55.828960" lon="26.199980">
<ele>174.920044</ele>
<time>2010-07-17T13:02:33Z</time>
<desc>lat.=55.828960, lon.=26.199980, Alt.=174.920044m. Speed=8.532000m/h.</desc>
<speed>2.370000</speed>
</trkpt>
<trkpt lat="55.828957" lon="26.199949">
<ele>174.744263</ele>
<time>2010-07-17T13:02:34Z</time>
<desc>lat.=55.828957, lon.=26.199949, Alt.=174.744263m. Speed=2.160000m/h.</desc>
<speed>0.600000</speed>
</trkpt>
<trkpt lat="55.828945" lon="26.199900">
<ele>174.232544</ele>
<time>2010-07-17T13:02:35Z</time>
<desc>lat.=55.828945, lon.=26.199900, Alt.=174.232544m. Speed=8.568000m/h.</desc>
<speed>2.380000</speed>
</trkpt>
<trkpt lat="55.828938" lon="26.199848">
<ele>173.767700</ele>
<time>2010-07-17T13:02:36Z</time>
<desc>lat.=55.828938, lon.=26.199848, Alt.=173.767700m. Speed=12.312000m/h.</desc>
<speed>3.420000</speed>
</trkpt>
<trkpt lat="55.828922" lon="26.199766">
<ele>172.650513</ele>
<time>2010-07-17T13:02:37Z</time>
<desc>lat.=55.828922, lon.=26.199766, Alt.=172.650513m. Speed=13.320000m/h.</desc>
<speed>3.700000</speed>
</trkpt>
<trkpt lat="55.828911" lon="26.199694">
<ele>172.259888</ele>
<time>2010-07-17T13:02:38Z</time>
<desc>lat.=55.828911, lon.=26.199694, Alt.=172.259888m. Speed=12.564000m/h.</desc>
<speed>3.490000</speed>
</trkpt>
<trkpt lat="55.828903" lon="26.199623">
<ele>171.271606</ele>
<time>2010-07-17T13:02:39Z</time>
<desc>lat.=55.828903, lon.=26.199623, Alt.=171.271606m. Speed=12.420000m/h.</desc>
<speed>3.450000</speed>
</trkpt>
<trkpt lat="55.828892" lon="26.199556">
<ele>170.021606</ele>
<time>2010-07-17T13:02:40Z</time>
<desc>lat.=55.828892, lon.=26.199556, Alt.=170.021606m. Speed=12.312000m/h.</desc>
<speed>3.420000</speed>
</trkpt>
<trkpt lat="55.828884" lon="26.199497">
<ele>169.470825</ele>
<time>2010-07-17T13:02:41Z</time>
<desc>lat.=55.828884, lon.=26.199497, Alt.=169.470825m. Speed=12.672000m/h.</desc>
<speed>3.520000</speed>
</trkpt>
<trkpt lat="55.828880" lon="26.199436">
<ele>169.740356</ele>
<time>2010-07-17T13:02:42Z</time>
<desc>lat.=55.828880, lon.=26.199436, Alt.=169.740356m. Speed=12.204000m/h.</desc>
<speed>3.390000</speed>
</trkpt>
<trkpt lat="55.828873" lon="26.199379">
<ele>168.787231</ele>
<time>2010-07-17T13:02:43Z</time>
<desc>lat.=55.828873, lon.=26.199379, Alt.=168.787231m. Speed=10.944000m/h.</desc>
<speed>3.040000</speed>
</trkpt>
<trkpt lat="55.828865" lon="26.199322">
<ele>168.041138</ele>
<time>2010-07-17T13:02:44Z</time>
<desc>lat.=55.828865, lon.=26.199322, Alt.=168.041138m. Speed=11.268000m/h.</desc>
<speed>3.130000</speed>
</trkpt>
<trkpt lat="55.828861" lon="26.199263">
<ele>167.990356</ele>
<time>2010-07-17T13:02:45Z</time>
<desc>lat.=55.828861, lon.=26.199263, Alt.=167.990356m. Speed=13.140000m/h.</desc>
<speed>3.650000</speed>
</trkpt>
<trkpt lat="55.828857" lon="26.199213">
<ele>167.798950</ele>
<time>2010-07-17T13:02:46Z</time>
<desc>lat.=55.828857, lon.=26.199213, Alt.=167.798950m. Speed=10.152000m/h.</desc>
<speed>2.820000</speed>
</trkpt>
<trkpt lat="55.828854" lon="26.199167">
<ele>167.318481</ele>
<time>2010-07-17T13:02:47Z</time>
<desc>lat.=55.828854, lon.=26.199167, Alt.=167.318481m. Speed=10.044000m/h.</desc>
<speed>2.790000</speed>
</trkpt>
<trkpt lat="55.828854" lon="26.199133">
<ele>167.041138</ele>
<time>2010-07-17T13:02:48Z</time>
<desc>lat.=55.828854, lon.=26.199133, Alt.=167.041138m. Speed=8.172000m/h.</desc>
<speed>2.270000</speed>
</trkpt>
<trkpt lat="55.828854" lon="26.199100">
<ele>166.959106</ele>
<time>2010-07-17T13:02:49Z</time>
<desc>lat.=55.828854, lon.=26.199100, Alt.=166.959106m. Speed=7.632000m/h.</desc>
<speed>2.120000</speed>
</trkpt>
<trkpt lat="55.828857" lon="26.199060">
<ele>166.814575</ele>
<time>2010-07-17T13:02:50Z</time>
<desc>lat.=55.828857, lon.=26.199060, Alt.=166.814575m. Speed=8.892000m/h.</desc>
<speed>2.470000</speed>
</trkpt>
<trkpt lat="55.828857" lon="26.199003">
<ele>166.392700</ele>
<time>2010-07-17T13:02:51Z</time>
<desc>lat.=55.828857, lon.=26.199003, Alt.=166.392700m. Speed=11.088000m/h.</desc>
<speed>3.080000</speed>
</trkpt>
<trkpt lat="55.828857" lon="26.198954">
<ele>166.134888</ele>
<time>2010-07-17T13:02:52Z</time>
<desc>lat.=55.828857, lon.=26.198954, Alt.=166.134888m. Speed=11.664000m/h.</desc>
<speed>3.240000</speed>
</trkpt>
<trkpt lat="55.828857" lon="26.198895">
<ele>166.213013</ele>
<time>2010-07-17T13:02:53Z</time>
<desc>lat.=55.828857, lon.=26.198895, Alt.=166.213013m. Speed=12.636000m/h.</desc>
<speed>3.510000</speed>
</trkpt>
<trkpt lat="55.828857" lon="26.198849">
<ele>165.880981</ele>
<time>2010-07-17T13:02:54Z</time>
<desc>lat.=55.828857, lon.=26.198849, Alt.=165.880981m. Speed=10.368000m/h.</desc>
<speed>2.880000</speed>
</trkpt>
<trkpt lat="55.828854" lon="26.198801">
<ele>165.252075</ele>
<time>2010-07-17T13:02:55Z</time>
<desc>lat.=55.828854, lon.=26.198801, Alt.=165.252075m. Speed=9.288000m/h.</desc>
<speed>2.580000</speed>
</trkpt>
<trkpt lat="55.828854" lon="26.198748">
<ele>164.888794</ele>
<time>2010-07-17T13:02:56Z</time>
<desc>lat.=55.828854, lon.=26.198748, Alt.=164.888794m. Speed=10.116000m/h.</desc>
<speed>2.810000</speed>
</trkpt>
<trkpt lat="55.828854" lon="26.198696">
<ele>165.095825</ele>
<time>2010-07-17T13:02:57Z</time>
<desc>lat.=55.828854, lon.=26.198696, Alt.=165.095825m. Speed=9.432000m/h.</desc>
<speed>2.620000</speed>
</trkpt>
<trkpt lat="55.828854" lon="26.198654">
<ele>164.900513</ele>
<time>2010-07-17T13:02:58Z</time>
<desc>lat.=55.828854, lon.=26.198654, Alt.=164.900513m. Speed=7.596000m/h.</desc>
<speed>2.110000</speed>
</trkpt>
<trkpt lat="55.828850" lon="26.198612">
<ele>164.759888</ele>
<time>2010-07-17T13:02:59Z</time>
<desc>lat.=55.828850, lon.=26.198612, Alt.=164.759888m. Speed=5.256000m/h.</desc>
<speed>1.460000</speed>
</trkpt>
<trkpt lat="55.828869" lon="26.198534">
<ele>164.677856</ele>
<time>2010-07-17T13:03:00Z</time>
<desc>lat.=55.828869, lon.=26.198534, Alt.=164.677856m. Speed=16.559999m/h.</desc>
<speed>4.600000</speed>
</trkpt>
<trkpt lat="55.828880" lon="26.198458">
<ele>164.568481</ele>
<time>2010-07-17T13:03:01Z</time>
<desc>lat.=55.828880, lon.=26.198458, Alt.=164.568481m. Speed=12.636000m/h.</desc>
<speed>3.510000</speed>
</trkpt>
<trkpt lat="55.828884" lon="26.198408">
<ele>164.365356</ele>
<time>2010-07-17T13:03:02Z</time>
<desc>lat.=55.828884, lon.=26.198408, Alt.=164.365356m. Speed=8.568000m/h.</desc>
<speed>2.380000</speed>
</trkpt>
<trkpt lat="55.828873" lon="26.198328">
<ele>163.884888</ele>
<time>2010-07-17T13:03:03Z</time>
<desc>lat.=55.828873, lon.=26.198328, Alt.=163.884888m. Speed=13.968000m/h.</desc>
<speed>3.880000</speed>
</trkpt>
<trkpt lat="55.828869" lon="26.198235">
<ele>163.470825</ele>
<time>2010-07-17T13:03:04Z</time>
<desc>lat.=55.828869, lon.=26.198235, Alt.=163.470825m. Speed=18.431999m/h.</desc>
<speed>5.120000</speed>
</trkpt>
<trkpt lat="55.828865" lon="26.198122">
<ele>163.439575</ele>
<time>2010-07-17T13:03:05Z</time>
<desc>lat.=55.828865, lon.=26.198122, Alt.=163.439575m. Speed=23.652000m/h.</desc>
<speed>6.570000</speed>
</trkpt>
<trkpt lat="55.828869" lon="26.198013">
<ele>162.990356</ele>
<time>2010-07-17T13:03:06Z</time>
<desc>lat.=55.828869, lon.=26.198013, Alt.=162.990356m. Speed=22.680000m/h.</desc>
<speed>6.300000</speed>
</trkpt>
<trkpt lat="55.828873" lon="26.197914">
<ele>162.302856</ele>
<time>2010-07-17T13:03:07Z</time>
<desc>lat.=55.828873, lon.=26.197914, Alt.=162.302856m. Speed=20.232000m/h.</desc>
<speed>5.620000</speed>
</trkpt>
<trkpt lat="55.828865" lon="26.197809">
<ele>161.541138</ele>
<time>2010-07-17T13:03:08Z</time>
<desc>lat.=55.828865, lon.=26.197809, Alt.=161.541138m. Speed=20.736000m/h.</desc>
<speed>5.760000</speed>
</trkpt>
<trkpt lat="55.828850" lon="26.197731">
<ele>162.052856</ele>
<time>2010-07-17T13:03:09Z</time>
<desc>lat.=55.828850, lon.=26.197731, Alt.=162.052856m. Speed=15.804000m/h.</desc>
<speed>4.390000</speed>
</trkpt>
<trkpt lat="55.828850" lon="26.197668">
<ele>161.740356</ele>
<time>2010-07-17T13:03:10Z</time>
<desc>lat.=55.828850, lon.=26.197668, Alt.=161.740356m. Speed=10.260000m/h.</desc>
<speed>2.850000</speed>
</trkpt>
<trkpt lat="55.828857" lon="26.197639">
<ele>161.068481</ele>
<time>2010-07-17T13:03:11Z</time>
<desc>lat.=55.828857, lon.=26.197639, Alt.=161.068481m. Speed=5.004000m/h.</desc>
<speed>1.390000</speed>
</trkpt>
<trkpt lat="55.828854" lon="26.197615">
<ele>160.029419</ele>
<time>2010-07-17T13:03:12Z</time>
<desc>lat.=55.828854, lon.=26.197615, Alt.=160.029419m. Speed=2.124000m/h.</desc>
<speed>0.590000</speed>
</trkpt>
<trkpt lat="55.828850" lon="26.197590">
<ele>159.127075</ele>
<time>2010-07-17T13:03:13Z</time>
<desc>lat.=55.828850, lon.=26.197590, Alt.=159.127075m. Speed=1.692000m/h.</desc>
<speed>0.470000</speed>
</trkpt>
<trkpt lat="55.828842" lon="26.197569">
<ele>158.283325</ele>
<time>2010-07-17T13:03:14Z</time>
<desc>lat.=55.828842, lon.=26.197569, Alt.=158.283325m. Speed=2.088000m/h.</desc>
<speed>0.580000</speed>
</trkpt>
<trkpt lat="55.828835" lon="26.197556">
<ele>157.748169</ele>
<time>2010-07-17T13:03:15Z</time>
<desc>lat.=55.828835, lon.=26.197556, Alt.=157.748169m. Speed=1.548000m/h.</desc>
<speed>0.430000</speed>
</trkpt>
<trkpt lat="55.828838" lon="26.197550">
<ele>157.392700</ele>
<time>2010-07-17T13:03:16Z</time>
<desc>lat.=55.828838, lon.=26.197550, Alt.=157.392700m. Speed=1.944000m/h.</desc>
<speed>0.540000</speed>
</trkpt>
<trkpt lat="55.828838" lon="26.197540">
<ele>157.048950</ele>
<time>2010-07-17T13:03:17Z</time>
<desc>lat.=55.828838, lon.=26.197540, Alt.=157.048950m. Speed=2.016000m/h.</desc>
<speed>0.560000</speed>
</trkpt>
<trkpt lat="55.828838" lon="26.197533">
<ele>156.709106</ele>
<time>2010-07-17T13:03:18Z</time>
<desc>lat.=55.828838, lon.=26.197533, Alt.=156.709106m. Speed=1.872000m/h.</desc>
<speed>0.520000</speed>
</trkpt>
<trkpt lat="55.828838" lon="26.197523">
<ele>156.373169</ele>
<time>2010-07-17T13:03:19Z</time>
<desc>lat.=55.828838, lon.=26.197523, Alt.=156.373169m. Speed=1.152000m/h.</desc>
<speed>0.320000</speed>
</trkpt>
<trkpt lat="55.828838" lon="26.197519">
<ele>156.041138</ele>
<time>2010-07-17T13:03:20Z</time>
<desc>lat.=55.828838, lon.=26.197519, Alt.=156.041138m. Speed=0.684000m/h.</desc>
<speed>0.190000</speed>
</trkpt>
<trkpt lat="55.828842" lon="26.197515">
<ele>155.724731</ele>
<time>2010-07-17T13:03:21Z</time>
<desc>lat.=55.828842, lon.=26.197515, Alt.=155.724731m. Speed=0.900000m/h.</desc>
<speed>0.250000</speed>
</trkpt>
<trkpt lat="55.828842" lon="26.197512">
<ele>155.466919</ele>
<time>2010-07-17T13:03:22Z</time>
<desc>lat.=55.828842, lon.=26.197512, Alt.=155.466919m. Speed=0.792000m/h.</desc>
<speed>0.220000</speed>
</trkpt>
<trkpt lat="55.828842" lon="26.197508">
<ele>155.263794</ele>
<time>2010-07-17T13:03:23Z</time>
<desc>lat.=55.828842, lon.=26.197508, Alt.=155.263794m. Speed=0.756000m/h.</desc>
<speed>0.210000</speed>
</trkpt>
<trkpt lat="55.828842" lon="26.197506">
<ele>155.099731</ele>
<time>2010-07-17T13:03:24Z</time>
<desc>lat.=55.828842, lon.=26.197506, Alt.=155.099731m. Speed=0.540000m/h.</desc>
<speed>0.150000</speed>
</trkpt>
<trkpt lat="55.828842" lon="26.197502">
<ele>154.974731</ele>
<time>2010-07-17T13:03:25Z</time>
<desc>lat.=55.828842, lon.=26.197502, Alt.=154.974731m. Speed=0.936000m/h.</desc>
<speed>0.260000</speed>
</trkpt>
<trkpt lat="55.828842" lon="26.197498">
<ele>154.865356</ele>
<time>2010-07-17T13:03:26Z</time>
<desc>lat.=55.828842, lon.=26.197498, Alt.=154.865356m. Speed=1.116000m/h.</desc>
<speed>0.310000</speed>
</trkpt>
<trkpt lat="55.828838" lon="26.197496">
<ele>154.779419</ele>
<time>2010-07-17T13:03:27Z</time>
<desc>lat.=55.828838, lon.=26.197496, Alt.=154.779419m. Speed=1.080000m/h.</desc>
<speed>0.300000</speed>
</trkpt>
<trkpt lat="55.828835" lon="26.197493">
<ele>154.693481</ele>
<time>2010-07-17T13:03:28Z</time>
<desc>lat.=55.828835, lon.=26.197493, Alt.=154.693481m. Speed=1.332000m/h.</desc>
<speed>0.370000</speed>
</trkpt>
<trkpt lat="55.828835" lon="26.197487">
<ele>154.607544</ele>
<time>2010-07-17T13:03:29Z</time>
<desc>lat.=55.828835, lon.=26.197487, Alt.=154.607544m. Speed=1.332000m/h.</desc>
<speed>0.370000</speed>
</trkpt>
<trkpt lat="55.828831" lon="26.197483">
<ele>154.517700</ele>
<time>2010-07-17T13:03:30Z</time>
<desc>lat.=55.828831, lon.=26.197483, Alt.=154.517700m. Speed=1.224000m/h.</desc>
<speed>0.340000</speed>
</trkpt>
<trkpt lat="55.828827" lon="26.197481">
<ele>154.431763</ele>
<time>2010-07-17T13:03:31Z</time>
<desc>lat.=55.828827, lon.=26.197481, Alt.=154.431763m. Speed=0.900000m/h.</desc>
<speed>0.250000</speed>
</trkpt>
<trkpt lat="55.828827" lon="26.197477">
<ele>154.349731</ele>
<time>2010-07-17T13:03:32Z</time>
<desc>lat.=55.828827, lon.=26.197477, Alt.=154.349731m. Speed=0.720000m/h.</desc>
<speed>0.200000</speed>
</trkpt>
<trkpt lat="55.828827" lon="26.197474">
<ele>154.287231</ele>
<time>2010-07-17T13:03:33Z</time>
<desc>lat.=55.828827, lon.=26.197474, Alt.=154.287231m. Speed=1.692000m/h.</desc>
<speed>0.470000</speed>
</trkpt>
<trkpt lat="55.828823" lon="26.197468">
<ele>154.232544</ele>
<time>2010-07-17T13:03:34Z</time>
<desc>lat.=55.828823, lon.=26.197468, Alt.=154.232544m. Speed=1.260000m/h.</desc>
<speed>0.350000</speed>
</trkpt>
<trkpt lat="55.828823" lon="26.197462">
<ele>154.181763</ele>
<time>2010-07-17T13:03:35Z</time>
<desc>lat.=55.828823, lon.=26.197462, Alt.=154.181763m. Speed=0.936000m/h.</desc>
<speed>0.260000</speed>
</trkpt>
<trkpt lat="55.828823" lon="26.197458">
<ele>154.134888</ele>
<time>2010-07-17T13:03:36Z</time>
<desc>lat.=55.828823, lon.=26.197458, Alt.=154.134888m. Speed=1.080000m/h.</desc>
<speed>0.300000</speed>
</trkpt>
<trkpt lat="55.828819" lon="26.197453">
<ele>154.099731</ele>
<time>2010-07-17T13:03:37Z</time>
<desc>lat.=55.828819, lon.=26.197453, Alt.=154.099731m. Speed=0.936000m/h.</desc>
<speed>0.260000</speed>
</trkpt>
<trkpt lat="55.828819" lon="26.197449">
<ele>154.068481</ele>
<time>2010-07-17T13:03:38Z</time>
<desc>lat.=55.828819, lon.=26.197449, Alt.=154.068481m. Speed=0.864000m/h.</desc>
<speed>0.240000</speed>
</trkpt>
<trkpt lat="55.828819" lon="26.197445">
<ele>154.041138</ele>
<time>2010-07-17T13:03:39Z</time>
<desc>lat.=55.828819, lon.=26.197445, Alt.=154.041138m. Speed=0.792000m/h.</desc>
<speed>0.220000</speed>
</trkpt>
<trkpt lat="55.828815" lon="26.197441">
<ele>154.029419</ele>
<time>2010-07-17T13:03:40Z</time>
<desc>lat.=55.828815, lon.=26.197441, Alt.=154.029419m. Speed=0.864000m/h.</desc>
<speed>0.240000</speed>
</trkpt>
<trkpt lat="55.828815" lon="26.197439">
<ele>154.025513</ele>
<time>2010-07-17T13:03:41Z</time>
<desc>lat.=55.828815, lon.=26.197439, Alt.=154.025513m. Speed=0.864000m/h.</desc>
<speed>0.240000</speed>
</trkpt>
<trkpt lat="55.828812" lon="26.197437">
<ele>154.017700</ele>
<time>2010-07-17T13:03:42Z</time>
<desc>lat.=55.828812, lon.=26.197437, Alt.=154.017700m. Speed=0.936000m/h.</desc>
<speed>0.260000</speed>
</trkpt>
<trkpt lat="55.828808" lon="26.197435">
<ele>154.013794</ele>
<time>2010-07-17T13:03:43Z</time>
<desc>lat.=55.828808, lon.=26.197435, Alt.=154.013794m. Speed=0.648000m/h.</desc>
<speed>0.180000</speed>
</trkpt>
<trkpt lat="55.828808" lon="26.197435">
<ele>154.021606</ele>
<time>2010-07-17T13:03:44Z</time>
<desc>lat.=55.828808, lon.=26.197435, Alt.=154.021606m. Speed=0.864000m/h.</desc>
<speed>0.240000</speed>
</trkpt>
<trkpt lat="55.828804" lon="26.197433">
<ele>154.033325</ele>
<time>2010-07-17T13:03:45Z</time>
<desc>lat.=55.828804, lon.=26.197433, Alt.=154.033325m. Speed=0.720000m/h.</desc>
<speed>0.200000</speed>
</trkpt>
<trkpt lat="55.828804" lon="26.197433">
<ele>154.045044</ele>
<time>2010-07-17T13:03:46Z</time>
<desc>lat.=55.828804, lon.=26.197433, Alt.=154.045044m. Speed=0.504000m/h.</desc>
<speed>0.140000</speed>
</trkpt>
<trkpt lat="55.828800" lon="26.197432">
<ele>154.056763</ele>
<time>2010-07-17T13:03:47Z</time>
<desc>lat.=55.828800, lon.=26.197432, Alt.=154.056763m. Speed=0.360000m/h.</desc>
<speed>0.100000</speed>
</trkpt>
<trkpt lat="55.828800" lon="26.197432">
<ele>154.076294</ele>
<time>2010-07-17T13:03:48Z</time>
<desc>lat.=55.828800, lon.=26.197432, Alt.=154.076294m. Speed=0.936000m/h.</desc>
<speed>0.260000</speed>
</trkpt>
<trkpt lat="55.828796" lon="26.197432">
<ele>154.095825</ele>
<time>2010-07-17T13:03:49Z</time>
<desc>lat.=55.828796, lon.=26.197432, Alt.=154.095825m. Speed=0.684000m/h.</desc>
<speed>0.190000</speed>
</trkpt>
<trkpt lat="55.828796" lon="26.197432">
<ele>154.111450</ele>
<time>2010-07-17T13:03:50Z</time>
<desc>lat.=55.828796, lon.=26.197432, Alt.=154.111450m. Speed=0.468000m/h.</desc>
<speed>0.130000</speed>
</trkpt>
<trkpt lat="55.828796" lon="26.197432">
<ele>154.123169</ele>
<time>2010-07-17T13:03:51Z</time>
<desc>lat.=55.828796, lon.=26.197432, Alt.=154.123169m. Speed=0.504000m/h.</desc>
<speed>0.140000</speed>
</trkpt>
<trkpt lat="55.828796" lon="26.197428">
<ele>154.134888</ele>
<time>2010-07-17T13:03:52Z</time>
<desc>lat.=55.828796, lon.=26.197428, Alt.=154.134888m. Speed=0.540000m/h.</desc>
<speed>0.150000</speed>
</trkpt>
<trkpt lat="55.828796" lon="26.197426">
<ele>154.146606</ele>
<time>2010-07-17T13:03:53Z</time>
<desc>lat.=55.828796, lon.=26.197426, Alt.=154.146606m. Speed=0.540000m/h.</desc>
<speed>0.150000</speed>
</trkpt>
<trkpt lat="55.828793" lon="26.197424">
<ele>154.154419</ele>
<time>2010-07-17T13:03:54Z</time>
<desc>lat.=55.828793, lon.=26.197424, Alt.=154.154419m. Speed=0.396000m/h.</desc>
<speed>0.110000</speed>
</trkpt>
<trkpt lat="55.828793" lon="26.197422">
<ele>154.166138</ele>
<time>2010-07-17T13:03:55Z</time>
<desc>lat.=55.828793, lon.=26.197422, Alt.=154.166138m. Speed=0.108000m/h.</desc>
<speed>0.030000</speed>
</trkpt>
<trkpt lat="55.828793" lon="26.197420">
<ele>154.177856</ele>
<time>2010-07-17T13:03:56Z</time>
<desc>lat.=55.828793, lon.=26.197420, Alt.=154.177856m. Speed=0.288000m/h.</desc>
<speed>0.080000</speed>
</trkpt>
<trkpt lat="55.828796" lon="26.197418">
<ele>154.193481</ele>
<time>2010-07-17T13:03:57Z</time>
<desc>lat.=55.828796, lon.=26.197418, Alt.=154.193481m. Speed=0.828000m/h.</desc>
<speed>0.230000</speed>
</trkpt>
<trkpt lat="55.828796" lon="26.197416">
<ele>154.209106</ele>
<time>2010-07-17T13:03:58Z</time>
<desc>lat.=55.828796, lon.=26.197416, Alt.=154.209106m. Speed=1.728000m/h.</desc>
<speed>0.480000</speed>
</trkpt>
<trkpt lat="55.828800" lon="26.197420">
<ele>154.224731</ele>
<time>2010-07-17T13:03:59Z</time>
<desc>lat.=55.828800, lon.=26.197420, Alt.=154.224731m. Speed=1.800000m/h.</desc>
<speed>0.500000</speed>
</trkpt>
<trkpt lat="55.828804" lon="26.197422">
<ele>154.240356</ele>
<time>2010-07-17T13:04:00Z</time>
<desc>lat.=55.828804, lon.=26.197422, Alt.=154.240356m. Speed=2.808000m/h.</desc>
<speed>0.780000</speed>
</trkpt>
<trkpt lat="55.828812" lon="26.197426">
<ele>154.259888</ele>
<time>2010-07-17T13:04:01Z</time>
<desc>lat.=55.828812, lon.=26.197426, Alt.=154.259888m. Speed=2.880000m/h.</desc>
<speed>0.800000</speed>
</trkpt>
<trkpt lat="55.828815" lon="26.197433">
<ele>154.283325</ele>
<time>2010-07-17T13:04:02Z</time>
<desc>lat.=55.828815, lon.=26.197433, Alt.=154.283325m. Speed=4.860000m/h.</desc>
<speed>1.350000</speed>
</trkpt>
<trkpt lat="55.828827" lon="26.197424">
<ele>154.849731</ele>
<time>2010-07-17T13:04:03Z</time>
<desc>lat.=55.828827, lon.=26.197424, Alt.=154.849731m. Speed=4.572000m/h.</desc>
<speed>1.270000</speed>
</trkpt>
<trkpt lat="55.828842" lon="26.197428">
<ele>155.236450</ele>
<time>2010-07-17T13:04:04Z</time>
<desc>lat.=55.828842, lon.=26.197428, Alt.=155.236450m. Speed=5.004000m/h.</desc>
<speed>1.390000</speed>
</trkpt>
<trkpt lat="55.828869" lon="26.197416">
<ele>155.642700</ele>
<time>2010-07-17T13:04:05Z</time>
<desc>lat.=55.828869, lon.=26.197416, Alt.=155.642700m. Speed=6.372000m/h.</desc>
<speed>1.770000</speed>
</trkpt>
<trkpt lat="55.828896" lon="26.197397">
<ele>156.037231</ele>
<time>2010-07-17T13:04:06Z</time>
<desc>lat.=55.828896, lon.=26.197397, Alt.=156.037231m. Speed=5.904000m/h.</desc>
<speed>1.640000</speed>
</trkpt>
<trkpt lat="55.828918" lon="26.197382">
<ele>156.216919</ele>
<time>2010-07-17T13:04:07Z</time>
<desc>lat.=55.828918, lon.=26.197382, Alt.=156.216919m. Speed=8.712000m/h.</desc>
<speed>2.420000</speed>
</trkpt>
<trkpt lat="55.828953" lon="26.197346">
<ele>156.724731</ele>
<time>2010-07-17T13:04:08Z</time>
<desc>lat.=55.828953, lon.=26.197346, Alt.=156.724731m. Speed=6.264000m/h.</desc>
<speed>1.740000</speed>
</trkpt>
<trkpt lat="55.828991" lon="26.197296">
<ele>157.310669</ele>
<time>2010-07-17T13:04:09Z</time>
<desc>lat.=55.828991, lon.=26.197296, Alt.=157.310669m. Speed=6.480000m/h.</desc>
<speed>1.800000</speed>
</trkpt>
<trkpt lat="55.829029" lon="26.197237">
<ele>158.134888</ele>
<time>2010-07-17T13:04:10Z</time>
<desc>lat.=55.829029, lon.=26.197237, Alt.=158.134888m. Speed=7.452000m/h.</desc>
<speed>2.070000</speed>
</trkpt>
<trkpt lat="55.829056" lon="26.197222">
<ele>158.404419</ele>
<time>2010-07-17T13:04:11Z</time>
<desc>lat.=55.829056, lon.=26.197222, Alt.=158.404419m. Speed=7.488000m/h.</desc>
<speed>2.080000</speed>
</trkpt>
<trkpt lat="55.829079" lon="26.197227">
<ele>158.298950</ele>
<time>2010-07-17T13:04:12Z</time>
<desc>lat.=55.829079, lon.=26.197227, Alt.=158.298950m. Speed=7.272000m/h.</desc>
<speed>2.020000</speed>
</trkpt>
<trkpt lat="55.829094" lon="26.197233">
<ele>158.396606</ele>
<time>2010-07-17T13:04:13Z</time>
<desc>lat.=55.829094, lon.=26.197233, Alt.=158.396606m. Speed=3.240000m/h.</desc>
<speed>0.900000</speed>
</trkpt>
<trkpt lat="55.829113" lon="26.197218">
<ele>158.904419</ele>
<time>2010-07-17T13:04:14Z</time>
<desc>lat.=55.829113, lon.=26.197218, Alt.=158.904419m. Speed=4.968000m/h.</desc>
<speed>1.380000</speed>
</trkpt>
<trkpt lat="55.829132" lon="26.197199">
<ele>159.197388</ele>
<time>2010-07-17T13:04:15Z</time>
<desc>lat.=55.829132, lon.=26.197199, Alt.=159.197388m. Speed=6.984000m/h.</desc>
<speed>1.940000</speed>
</trkpt>
<trkpt lat="55.829151" lon="26.197166">
<ele>159.666138</ele>
<time>2010-07-17T13:04:16Z</time>
<desc>lat.=55.829151, lon.=26.197166, Alt.=159.666138m. Speed=5.652000m/h.</desc>
<speed>1.570000</speed>
</trkpt>
<trkpt lat="55.829185" lon="26.197142">
<ele>160.009888</ele>
<time>2010-07-17T13:04:17Z</time>
<desc>lat.=55.829185, lon.=26.197142, Alt.=160.009888m. Speed=5.904000m/h.</desc>
<speed>1.640000</speed>
</trkpt>
<trkpt lat="55.829208" lon="26.197132">
<ele>159.955200</ele>
<time>2010-07-17T13:04:18Z</time>
<desc>lat.=55.829208, lon.=26.197132, Alt.=159.955200m. Speed=6.192000m/h.</desc>
<speed>1.720000</speed>
</trkpt>
<trkpt lat="55.829235" lon="26.197102">
<ele>160.349731</ele>
<time>2010-07-17T13:04:19Z</time>
<desc>lat.=55.829235, lon.=26.197102, Alt.=160.349731m. Speed=8.604000m/h.</desc>
<speed>2.390000</speed>
</trkpt>
<trkpt lat="55.829273" lon="26.197104">
<ele>160.779419</ele>
<time>2010-07-17T13:04:20Z</time>
<desc>lat.=55.829273, lon.=26.197104, Alt.=160.779419m. Speed=7.740000m/h.</desc>
<speed>2.150000</speed>
</trkpt>
<trkpt lat="55.829296" lon="26.197096">
<ele>160.787231</ele>
<time>2010-07-17T13:04:21Z</time>
<desc>lat.=55.829296, lon.=26.197096, Alt.=160.787231m. Speed=6.048000m/h.</desc>
<speed>1.680000</speed>
</trkpt>
<trkpt lat="55.829327" lon="26.197084">
<ele>160.720825</ele>
<time>2010-07-17T13:04:22Z</time>
<desc>lat.=55.829327, lon.=26.197084, Alt.=160.720825m. Speed=7.704000m/h.</desc>
<speed>2.140000</speed>
</trkpt>
<trkpt lat="55.829357" lon="26.197065">
<ele>160.994263</ele>
<time>2010-07-17T13:04:23Z</time>
<desc>lat.=55.829357, lon.=26.197065, Alt.=160.994263m. Speed=6.264000m/h.</desc>
<speed>1.740000</speed>
</trkpt>
<trkpt lat="55.829380" lon="26.197056">
<ele>160.951294</ele>
<time>2010-07-17T13:04:24Z</time>
<desc>lat.=55.829380, lon.=26.197056, Alt.=160.951294m. Speed=3.960000m/h.</desc>
<speed>1.100000</speed>
</trkpt>
<trkpt lat="55.829411" lon="26.197067">
<ele>161.154419</ele>
<time>2010-07-17T13:04:25Z</time>
<desc>lat.=55.829411, lon.=26.197067, Alt.=161.154419m. Speed=7.308000m/h.</desc>
<speed>2.030000</speed>
</trkpt>
<trkpt lat="55.829437" lon="26.197060">
<ele>161.896606</ele>
<time>2010-07-17T13:04:26Z</time>
<desc>lat.=55.829437, lon.=26.197060, Alt.=161.896606m. Speed=7.632000m/h.</desc>
<speed>2.120000</speed>
</trkpt>
<trkpt lat="55.829460" lon="26.197063">
<ele>162.068481</ele>
<time>2010-07-17T13:04:27Z</time>
<desc>lat.=55.829460, lon.=26.197063, Alt.=162.068481m. Speed=5.076000m/h.</desc>
<speed>1.410000</speed>
</trkpt>
<trkpt lat="55.829494" lon="26.197052">
<ele>162.595825</ele>
<time>2010-07-17T13:04:28Z</time>
<desc>lat.=55.829494, lon.=26.197052, Alt.=162.595825m. Speed=6.624000m/h.</desc>
<speed>1.840000</speed>
</trkpt>
<trkpt lat="55.829517" lon="26.197054">
<ele>162.533325</ele>
<time>2010-07-17T13:04:29Z</time>
<desc>lat.=55.829517, lon.=26.197054, Alt.=162.533325m. Speed=6.876000m/h.</desc>
<speed>1.910000</speed>
</trkpt>
<trkpt lat="55.829544" lon="26.197052">
<ele>162.271606</ele>
<time>2010-07-17T13:04:30Z</time>
<desc>lat.=55.829544, lon.=26.197052, Alt.=162.271606m. Speed=6.084000m/h.</desc>
<speed>1.690000</speed>
</trkpt>
<trkpt lat="55.829594" lon="26.197021">
<ele>163.150513</ele>
<time>2010-07-17T13:04:31Z</time>
<desc>lat.=55.829594, lon.=26.197021, Alt.=163.150513m. Speed=9.720000m/h.</desc>
<speed>2.700000</speed>
</trkpt>
<trkpt lat="55.829636" lon="26.197021">
<ele>162.892700</ele>
<time>2010-07-17T13:04:32Z</time>
<desc>lat.=55.829636, lon.=26.197021, Alt.=162.892700m. Speed=11.340000m/h.</desc>
<speed>3.150000</speed>
</trkpt>
<trkpt lat="55.829693" lon="26.197004">
<ele>163.943481</ele>
<time>2010-07-17T13:04:33Z</time>
<desc>lat.=55.829693, lon.=26.197004, Alt.=163.943481m. Speed=13.176000m/h.</desc>
<speed>3.660000</speed>
</trkpt>
<trkpt lat="55.829788" lon="26.196995">
<ele>167.056763</ele>
<time>2010-07-17T13:04:34Z</time>
<desc>lat.=55.829788, lon.=26.196995, Alt.=167.056763m. Speed=19.007999m/h.</desc>
<speed>5.280000</speed>
</trkpt>
<trkpt lat="55.829845" lon="26.196999">
<ele>168.185669</ele>
<time>2010-07-17T13:04:35Z</time>
<desc>lat.=55.829845, lon.=26.196999, Alt.=168.185669m. Speed=13.968000m/h.</desc>
<speed>3.880000</speed>
</trkpt>
<trkpt lat="55.829884" lon="26.196989">
<ele>168.951294</ele>
<time>2010-07-17T13:04:36Z</time>
<desc>lat.=55.829884, lon.=26.196989, Alt.=168.951294m. Speed=11.052000m/h.</desc>
<speed>3.070000</speed>
</trkpt>
<trkpt lat="55.829914" lon="26.196978">
<ele>169.779419</ele>
<time>2010-07-17T13:04:37Z</time>
<desc>lat.=55.829914, lon.=26.196978, Alt.=169.779419m. Speed=9.180000m/h.</desc>
<speed>2.550000</speed>
</trkpt>
<trkpt lat="55.829941" lon="26.196981">
<ele>170.279419</ele>
<time>2010-07-17T13:04:38Z</time>
<desc>lat.=55.829941, lon.=26.196981, Alt.=170.279419m. Speed=7.776000m/h.</desc>
<speed>2.160000</speed>
</trkpt>
<trkpt lat="55.829960" lon="26.196995">
<ele>170.849731</ele>
<time>2010-07-17T13:04:39Z</time>
<desc>lat.=55.829960, lon.=26.196995, Alt.=170.849731m. Speed=6.516000m/h.</desc>
<speed>1.810000</speed>
</trkpt>
<trkpt lat="55.830013" lon="26.197008">
<ele>172.748169</ele>
<time>2010-07-17T13:04:40Z</time>
<desc>lat.=55.830013, lon.=26.197008, Alt.=172.748169m. Speed=7.812000m/h.</desc>
<speed>2.170000</speed>
</trkpt>
<trkpt lat="55.830040" lon="26.197010">
<ele>173.189575</ele>
<time>2010-07-17T13:04:41Z</time>
<desc>lat.=55.830040, lon.=26.197010, Alt.=173.189575m. Speed=6.732000m/h.</desc>
<speed>1.870000</speed>
</trkpt>
<trkpt lat="55.830070" lon="26.197012">
<ele>174.017700</ele>
<time>2010-07-17T13:04:42Z</time>
<desc>lat.=55.830070, lon.=26.197012, Alt.=174.017700m. Speed=7.992000m/h.</desc>
<speed>2.220000</speed>
</trkpt>
<trkpt lat="55.830101" lon="26.197016">
<ele>174.369263</ele>
<time>2010-07-17T13:04:43Z</time>
<desc>lat.=55.830101, lon.=26.197016, Alt.=174.369263m. Speed=6.300000m/h.</desc>
<speed>1.750000</speed>
</trkpt>
<trkpt lat="55.830135" lon="26.197027">
<ele>175.166138</ele>
<time>2010-07-17T13:04:44Z</time>
<desc>lat.=55.830135, lon.=26.197027, Alt.=175.166138m. Speed=3.816000m/h.</desc>
<speed>1.060000</speed>
</trkpt>
<trkpt lat="55.830154" lon="26.197031">
<ele>174.173950</ele>
<time>2010-07-17T13:04:45Z</time>
<desc>lat.=55.830154, lon.=26.197031, Alt.=174.173950m. Speed=6.192000m/h.</desc>
<speed>1.720000</speed>
</trkpt>
<trkpt lat="55.830193" lon="26.197021">
<ele>174.728638</ele>
<time>2010-07-17T13:04:46Z</time>
<desc>lat.=55.830193, lon.=26.197021, Alt.=174.728638m. Speed=9.576000m/h.</desc>
<speed>2.660000</speed>
</trkpt>
<trkpt lat="55.830235" lon="26.197020">
<ele>174.568481</ele>
<time>2010-07-17T13:04:47Z</time>
<desc>lat.=55.830235, lon.=26.197020, Alt.=174.568481m. Speed=9.324000m/h.</desc>
<speed>2.590000</speed>
</trkpt>
<trkpt lat="55.830265" lon="26.197027">
<ele>173.529419</ele>
<time>2010-07-17T13:04:48Z</time>
<desc>lat.=55.830265, lon.=26.197027, Alt.=173.529419m. Speed=8.316000m/h.</desc>
<speed>2.310000</speed>
</trkpt>
<trkpt lat="55.830292" lon="26.197041">
<ele>173.693481</ele>
<time>2010-07-17T13:04:49Z</time>
<desc>lat.=55.830292, lon.=26.197041, Alt.=173.693481m. Speed=6.840000m/h.</desc>
<speed>1.900000</speed>
</trkpt>
<trkpt lat="55.830330" lon="26.197044">
<ele>173.302856</ele>
<time>2010-07-17T13:04:50Z</time>
<desc>lat.=55.830330, lon.=26.197044, Alt.=173.302856m. Speed=5.040000m/h.</desc>
<speed>1.400000</speed>
</trkpt>
<trkpt lat="55.830349" lon="26.197039">
<ele>173.298950</ele>
<time>2010-07-17T13:04:51Z</time>
<desc>lat.=55.830349, lon.=26.197039, Alt.=173.298950m. Speed=3.132000m/h.</desc>
<speed>0.870000</speed>
</trkpt>
<trkpt lat="55.830391" lon="26.197063">
<ele>173.287231</ele>
<time>2010-07-17T13:04:52Z</time>
<desc>lat.=55.830391, lon.=26.197063, Alt.=173.287231m. Speed=6.480000m/h.</desc>
<speed>1.800000</speed>
</trkpt>
<trkpt lat="55.830418" lon="26.197077">
<ele>173.310669</ele>
<time>2010-07-17T13:04:53Z</time>
<desc>lat.=55.830418, lon.=26.197077, Alt.=173.310669m. Speed=4.572000m/h.</desc>
<speed>1.270000</speed>
</trkpt>
<trkpt lat="55.830448" lon="26.197077">
<ele>173.709106</ele>
<time>2010-07-17T13:04:54Z</time>
<desc>lat.=55.830448, lon.=26.197077, Alt.=173.709106m. Speed=3.420000m/h.</desc>
<speed>0.950000</speed>
</trkpt>
<trkpt lat="55.830471" lon="26.197065">
<ele>174.064575</ele>
<time>2010-07-17T13:04:55Z</time>
<desc>lat.=55.830471, lon.=26.197065, Alt.=174.064575m. Speed=2.520000m/h.</desc>
<speed>0.700000</speed>
</trkpt>
<trkpt lat="55.830494" lon="26.197067">
<ele>173.689575</ele>
<time>2010-07-17T13:04:56Z</time>
<desc>lat.=55.830494, lon.=26.197067, Alt.=173.689575m. Speed=4.392000m/h.</desc>
<speed>1.220000</speed>
</trkpt>
<trkpt lat="55.830528" lon="26.197056">
<ele>172.412231</ele>
<time>2010-07-17T13:04:57Z</time>
<desc>lat.=55.830528, lon.=26.197056, Alt.=172.412231m. Speed=3.888000m/h.</desc>
<speed>1.080000</speed>
</trkpt>
<trkpt lat="55.830551" lon="26.197062">
<ele>172.076294</ele>
<time>2010-07-17T13:04:58Z</time>
<desc>lat.=55.830551, lon.=26.197062, Alt.=172.076294m. Speed=2.592000m/h.</desc>
<speed>0.720000</speed>
</trkpt>
<trkpt lat="55.830582" lon="26.197067">
<ele>171.498169</ele>
<time>2010-07-17T13:04:59Z</time>
<desc>lat.=55.830582, lon.=26.197067, Alt.=171.498169m. Speed=3.852000m/h.</desc>
<speed>1.070000</speed>
</trkpt>
<trkpt lat="55.830608" lon="26.197073">
<ele>171.529419</ele>
<time>2010-07-17T13:05:00Z</time>
<desc>lat.=55.830608, lon.=26.197073, Alt.=171.529419m. Speed=3.960000m/h.</desc>
<speed>1.100000</speed>
</trkpt>
<trkpt lat="55.830627" lon="26.197084">
<ele>171.349731</ele>
<time>2010-07-17T13:05:01Z</time>
<desc>lat.=55.830627, lon.=26.197084, Alt.=171.349731m. Speed=3.672000m/h.</desc>
<speed>1.020000</speed>
</trkpt>
<trkpt lat="55.830666" lon="26.197077">
<ele>168.517700</ele>
<time>2010-07-17T13:05:02Z</time>
<desc>lat.=55.830666, lon.=26.197077, Alt.=168.517700m. Speed=3.420000m/h.</desc>
<speed>0.950000</speed>
</trkpt>
<trkpt lat="55.830700" lon="26.197096">
<ele>169.373169</ele>
<time>2010-07-17T13:05:03Z</time>
<desc>lat.=55.830700, lon.=26.197096, Alt.=169.373169m. Speed=3.528000m/h.</desc>
<speed>0.980000</speed>
</trkpt>
<trkpt lat="55.830746" lon="26.197115">
<ele>170.513794</ele>
<time>2010-07-17T13:05:04Z</time>
<desc>lat.=55.830746, lon.=26.197115, Alt.=170.513794m. Speed=4.320000m/h.</desc>
<speed>1.200000</speed>
</trkpt>
<trkpt lat="55.830765" lon="26.197123">
<ele>170.447388</ele>
<time>2010-07-17T13:05:05Z</time>
<desc>lat.=55.830765, lon.=26.197123, Alt.=170.447388m. Speed=3.924000m/h.</desc>
<speed>1.090000</speed>
</trkpt>
<trkpt lat="55.830795" lon="26.197151">
<ele>170.525513</ele>
<time>2010-07-17T13:05:06Z</time>
<desc>lat.=55.830795, lon.=26.197151, Alt.=170.525513m. Speed=4.284000m/h.</desc>
<speed>1.190000</speed>
</trkpt>
<trkpt lat="55.830814" lon="26.197178">
<ele>170.990356</ele>
<time>2010-07-17T13:05:07Z</time>
<desc>lat.=55.830814, lon.=26.197178, Alt.=170.990356m. Speed=4.644000m/h.</desc>
<speed>1.290000</speed>
</trkpt>
<trkpt lat="55.830856" lon="26.197210">
<ele>171.904419</ele>
<time>2010-07-17T13:05:08Z</time>
<desc>lat.=55.830856, lon.=26.197210, Alt.=171.904419m. Speed=5.184000m/h.</desc>
<speed>1.440000</speed>
</trkpt>
<trkpt lat="55.830875" lon="26.197245">
<ele>172.041138</ele>
<time>2010-07-17T13:05:09Z</time>
<desc>lat.=55.830875, lon.=26.197245, Alt.=172.041138m. Speed=5.220000m/h.</desc>
<speed>1.450000</speed>
</trkpt>
<trkpt lat="55.830887" lon="26.197273">
<ele>172.255981</ele>
<time>2010-07-17T13:05:10Z</time>
<desc>lat.=55.830887, lon.=26.197273, Alt.=172.255981m. Speed=6.480000m/h.</desc>
<speed>1.800000</speed>
</trkpt>
<trkpt lat="55.830910" lon="26.197304">
<ele>171.814575</ele>
<time>2010-07-17T13:05:11Z</time>
<desc>lat.=55.830910, lon.=26.197304, Alt.=171.814575m. Speed=7.092000m/h.</desc>
<speed>1.970000</speed>
</trkpt>
<trkpt lat="55.830940" lon="26.197357">
<ele>171.525513</ele>
<time>2010-07-17T13:05:12Z</time>
<desc>lat.=55.830940, lon.=26.197357, Alt.=171.525513m. Speed=8.244000m/h.</desc>
<speed>2.290000</speed>
</trkpt>
<trkpt lat="55.830971" lon="26.197390">
<ele>170.150513</ele>
<time>2010-07-17T13:05:13Z</time>
<desc>lat.=55.830971, lon.=26.197390, Alt.=170.150513m. Speed=10.152000m/h.</desc>
<speed>2.820000</speed>
</trkpt>
<trkpt lat="55.830994" lon="26.197412">
<ele>169.568481</ele>
<time>2010-07-17T13:05:14Z</time>
<desc>lat.=55.830994, lon.=26.197412, Alt.=169.568481m. Speed=5.796000m/h.</desc>
<speed>1.610000</speed>
</trkpt>
<trkpt lat="55.831013" lon="26.197445">
<ele>169.240356</ele>
<time>2010-07-17T13:05:15Z</time>
<desc>lat.=55.831013, lon.=26.197445, Alt.=169.240356m. Speed=5.112000m/h.</desc>
<speed>1.420000</speed>
</trkpt>
<trkpt lat="55.831036" lon="26.197491">
<ele>168.658325</ele>
<time>2010-07-17T13:05:16Z</time>
<desc>lat.=55.831036, lon.=26.197491, Alt.=168.658325m. Speed=5.508000m/h.</desc>
<speed>1.530000</speed>
</trkpt>
<trkpt lat="55.831055" lon="26.197510">
<ele>168.533325</ele>
<time>2010-07-17T13:05:17Z</time>
<desc>lat.=55.831055, lon.=26.197510, Alt.=168.533325m. Speed=3.852000m/h.</desc>
<speed>1.070000</speed>
</trkpt>
<trkpt lat="55.831085" lon="26.197536">
<ele>167.146606</ele>
<time>2010-07-17T13:05:18Z</time>
<desc>lat.=55.831085, lon.=26.197536, Alt.=167.146606m. Speed=8.172000m/h.</desc>
<speed>2.270000</speed>
</trkpt>
<trkpt lat="55.831112" lon="26.197538">
<ele>167.287231</ele>
<time>2010-07-17T13:05:19Z</time>
<desc>lat.=55.831112, lon.=26.197538, Alt.=167.287231m. Speed=8.820000m/h.</desc>
<speed>2.450000</speed>
</trkpt>
<trkpt lat="55.831135" lon="26.197546">
<ele>167.853638</ele>
<time>2010-07-17T13:05:20Z</time>
<desc>lat.=55.831135, lon.=26.197546, Alt.=167.853638m. Speed=6.804000m/h.</desc>
<speed>1.890000</speed>
</trkpt>
<trkpt lat="55.831150" lon="26.197552">
<ele>168.189575</ele>
<time>2010-07-17T13:05:21Z</time>
<desc>lat.=55.831150, lon.=26.197552, Alt.=168.189575m. Speed=3.888000m/h.</desc>
<speed>1.080000</speed>
</trkpt>
<trkpt lat="55.831173" lon="26.197552">
<ele>168.248169</ele>
<time>2010-07-17T13:05:22Z</time>
<desc>lat.=55.831173, lon.=26.197552, Alt.=168.248169m. Speed=6.228000m/h.</desc>
<speed>1.730000</speed>
</trkpt>
<trkpt lat="55.831192" lon="26.197561">
<ele>168.279419</ele>
<time>2010-07-17T13:05:23Z</time>
<desc>lat.=55.831192, lon.=26.197561, Alt.=168.279419m. Speed=5.040000m/h.</desc>
<speed>1.400000</speed>
</trkpt>
<trkpt lat="55.831207" lon="26.197554">
<ele>168.271606</ele>
<time>2010-07-17T13:05:24Z</time>
<desc>lat.=55.831207, lon.=26.197554, Alt.=168.271606m. Speed=5.436000m/h.</desc>
<speed>1.510000</speed>
</trkpt>
<trkpt lat="55.831238" lon="26.197527">
<ele>167.564575</ele>
<time>2010-07-17T13:05:25Z</time>
<desc>lat.=55.831238, lon.=26.197527, Alt.=167.564575m. Speed=5.328000m/h.</desc>
<speed>1.480000</speed>
</trkpt>
<trkpt lat="55.831261" lon="26.197519">
<ele>167.580200</ele>
<time>2010-07-17T13:05:26Z</time>
<desc>lat.=55.831261, lon.=26.197519, Alt.=167.580200m. Speed=8.460000m/h.</desc>
<speed>2.350000</speed>
</trkpt>
<trkpt lat="55.831295" lon="26.197533">
<ele>167.740356</ele>
<time>2010-07-17T13:05:27Z</time>
<desc>lat.=55.831295, lon.=26.197533, Alt.=167.740356m. Speed=6.588000m/h.</desc>
<speed>1.830000</speed>
</trkpt>
<trkpt lat="55.831322" lon="26.197535">
<ele>168.072388</ele>
<time>2010-07-17T13:05:28Z</time>
<desc>lat.=55.831322, lon.=26.197535, Alt.=168.072388m. Speed=6.912000m/h.</desc>
<speed>1.920000</speed>
</trkpt>
<trkpt lat="55.831352" lon="26.197544">
<ele>168.392700</ele>
<time>2010-07-17T13:05:29Z</time>
<desc>lat.=55.831352, lon.=26.197544, Alt.=168.392700m. Speed=4.572000m/h.</desc>
<speed>1.270000</speed>
</trkpt>
<trkpt lat="55.831379" lon="26.197548">
<ele>168.759888</ele>
<time>2010-07-17T13:05:30Z</time>
<desc>lat.=55.831379, lon.=26.197548, Alt.=168.759888m. Speed=7.956000m/h.</desc>
<speed>2.210000</speed>
</trkpt>
<trkpt lat="55.831398" lon="26.197548">
<ele>169.002075</ele>
<time>2010-07-17T13:05:31Z</time>
<desc>lat.=55.831398, lon.=26.197548, Alt.=169.002075m. Speed=5.724000m/h.</desc>
<speed>1.590000</speed>
</trkpt>
<trkpt lat="55.831421" lon="26.197565">
<ele>169.509888</ele>
<time>2010-07-17T13:05:32Z</time>
<desc>lat.=55.831421, lon.=26.197565, Alt.=169.509888m. Speed=2.664000m/h.</desc>
<speed>0.740000</speed>
</trkpt>
<trkpt lat="55.831440" lon="26.197565">
<ele>169.818481</ele>
<time>2010-07-17T13:05:33Z</time>
<desc>lat.=55.831440, lon.=26.197565, Alt.=169.818481m. Speed=2.592000m/h.</desc>
<speed>0.720000</speed>
</trkpt>
<trkpt lat="55.831459" lon="26.197563">
<ele>168.486450</ele>
<time>2010-07-17T13:05:34Z</time>
<desc>lat.=55.831459, lon.=26.197563, Alt.=168.486450m. Speed=2.124000m/h.</desc>
<speed>0.590000</speed>
</trkpt>
<trkpt lat="55.831463" lon="26.197573">
<ele>168.611450</ele>
<time>2010-07-17T13:05:35Z</time>
<desc>lat.=55.831463, lon.=26.197573, Alt.=168.611450m. Speed=1.296000m/h.</desc>
<speed>0.360000</speed>
</trkpt>
<trkpt lat="55.831482" lon="26.197590">
<ele>167.439575</ele>
<time>2010-07-17T13:05:36Z</time>
<desc>lat.=55.831482, lon.=26.197590, Alt.=167.439575m. Speed=3.888000m/h.</desc>
<speed>1.080000</speed>
</trkpt>
<trkpt lat="55.831501" lon="26.197603">
<ele>166.611450</ele>
<time>2010-07-17T13:05:37Z</time>
<desc>lat.=55.831501, lon.=26.197603, Alt.=166.611450m. Speed=3.060000m/h.</desc>
<speed>0.850000</speed>
</trkpt>
<trkpt lat="55.831501" lon="26.197598">
<ele>166.013794</ele>
<time>2010-07-17T13:05:38Z</time>
<desc>lat.=55.831501, lon.=26.197598, Alt.=166.013794m. Speed=1.008000m/h.</desc>
<speed>0.280000</speed>
</trkpt>
<trkpt lat="55.831509" lon="26.197598">
<ele>165.982544</ele>
<time>2010-07-17T13:05:39Z</time>
<desc>lat.=55.831509, lon.=26.197598, Alt.=165.982544m. Speed=1.548000m/h.</desc>
<speed>0.430000</speed>
</trkpt>
<trkpt lat="55.831509" lon="26.197584">
<ele>165.404419</ele>
<time>2010-07-17T13:05:40Z</time>
<desc>lat.=55.831509, lon.=26.197584, Alt.=165.404419m. Speed=0.576000m/h.</desc>
<speed>0.160000</speed>
</trkpt>
<trkpt lat="55.831512" lon="26.197580">
<ele>164.830200</ele>
<time>2010-07-17T13:05:41Z</time>
<desc>lat.=55.831512, lon.=26.197580, Alt.=164.830200m. Speed=0.180000m/h.</desc>
<speed>0.050000</speed>
</trkpt>
<trkpt lat="55.831524" lon="26.197580">
<ele>164.779419</ele>
<time>2010-07-17T13:05:42Z</time>
<desc>lat.=55.831524, lon.=26.197580, Alt.=164.779419m. Speed=0.396000m/h.</desc>
<speed>0.110000</speed>
</trkpt>
<trkpt lat="55.831528" lon="26.197580">
<ele>164.818481</ele>
<time>2010-07-17T13:05:43Z</time>
<desc>lat.=55.831528, lon.=26.197580, Alt.=164.818481m. Speed=0.252000m/h.</desc>
<speed>0.070000</speed>
</trkpt>
<trkpt lat="55.831524" lon="26.197578">
<ele>164.818481</ele>
<time>2010-07-17T13:05:44Z</time>
<desc>lat.=55.831524, lon.=26.197578, Alt.=164.818481m. Speed=0.288000m/h.</desc>
<speed>0.080000</speed>
</trkpt>
<trkpt lat="55.831524" lon="26.197578">
<ele>164.822388</ele>
<time>2010-07-17T13:05:45Z</time>
<desc>lat.=55.831524, lon.=26.197578, Alt.=164.822388m. Speed=0.540000m/h.</desc>
<speed>0.150000</speed>
</trkpt>
<trkpt lat="55.831524" lon="26.197577">
<ele>164.826294</ele>
<time>2010-07-17T13:05:46Z</time>
<desc>lat.=55.831524, lon.=26.197577, Alt.=164.826294m. Speed=0.540000m/h.</desc>
<speed>0.150000</speed>
</trkpt>
<trkpt lat="55.831524" lon="26.197578">
<ele>164.830200</ele>
<time>2010-07-17T13:05:47Z</time>
<desc>lat.=55.831524, lon.=26.197578, Alt.=164.830200m. Speed=0.504000m/h.</desc>
<speed>0.140000</speed>
</trkpt>
<trkpt lat="55.831520" lon="26.197577">
<ele>164.838013</ele>
<time>2010-07-17T13:05:48Z</time>
<desc>lat.=55.831520, lon.=26.197577, Alt.=164.838013m. Speed=1.044000m/h.</desc>
<speed>0.290000</speed>
</trkpt>
<trkpt lat="55.831520" lon="26.197573">
<ele>164.845825</ele>
<time>2010-07-17T13:05:49Z</time>
<desc>lat.=55.831520, lon.=26.197573, Alt.=164.845825m. Speed=1.332000m/h.</desc>
<speed>0.370000</speed>
</trkpt>
<trkpt lat="55.831520" lon="26.197569">
<ele>164.826294</ele>
<time>2010-07-17T13:05:50Z</time>
<desc>lat.=55.831520, lon.=26.197569, Alt.=164.826294m. Speed=1.044000m/h.</desc>
<speed>0.290000</speed>
</trkpt>
<trkpt lat="55.831520" lon="26.197565">
<ele>164.865356</ele>
<time>2010-07-17T13:05:51Z</time>
<desc>lat.=55.831520, lon.=26.197565, Alt.=164.865356m. Speed=1.044000m/h.</desc>
<speed>0.290000</speed>
</trkpt>
<trkpt lat="55.831520" lon="26.197565">
<ele>164.880981</ele>
<time>2010-07-17T13:05:52Z</time>
<desc>lat.=55.831520, lon.=26.197565, Alt.=164.880981m. Speed=0.684000m/h.</desc>
<speed>0.190000</speed>
</trkpt>
<trkpt lat="55.831524" lon="26.197567">
<ele>164.873169</ele>
<time>2010-07-17T13:05:53Z</time>
<desc>lat.=55.831524, lon.=26.197567, Alt.=164.873169m. Speed=0.288000m/h.</desc>
<speed>0.080000</speed>
</trkpt>
<trkpt lat="55.831524" lon="26.197567">
<ele>164.880981</ele>
<time>2010-07-17T13:05:54Z</time>
<desc>lat.=55.831524, lon.=26.197567, Alt.=164.880981m. Speed=0.216000m/h.</desc>
<speed>0.060000</speed>
</trkpt>
<trkpt lat="55.831524" lon="26.197567">
<ele>164.880981</ele>
<time>2010-07-17T13:05:55Z</time>
<desc>lat.=55.831524, lon.=26.197567, Alt.=164.880981m. Speed=0.540000m/h.</desc>
<speed>0.150000</speed>
</trkpt>
<trkpt lat="55.831524" lon="26.197571">
<ele>164.888794</ele>
<time>2010-07-17T13:05:56Z</time>
<desc>lat.=55.831524, lon.=26.197571, Alt.=164.888794m. Speed=0.612000m/h.</desc>
<speed>0.170000</speed>
</trkpt>
<trkpt lat="55.831524" lon="26.197573">
<ele>164.892700</ele>
<time>2010-07-17T13:05:57Z</time>
<desc>lat.=55.831524, lon.=26.197573, Alt.=164.892700m. Speed=0.648000m/h.</desc>
<speed>0.180000</speed>
</trkpt>
<trkpt lat="55.831520" lon="26.197575">
<ele>164.900513</ele>
<time>2010-07-17T13:05:58Z</time>
<desc>lat.=55.831520, lon.=26.197575, Alt.=164.900513m. Speed=0.684000m/h.</desc>
<speed>0.190000</speed>
</trkpt>
<trkpt lat="55.831520" lon="26.197578">
<ele>164.916138</ele>
<time>2010-07-17T13:05:59Z</time>
<desc>lat.=55.831520, lon.=26.197578, Alt.=164.916138m. Speed=0.540000m/h.</desc>
<speed>0.150000</speed>
</trkpt>
<trkpt lat="55.831520" lon="26.197580">
<ele>164.927856</ele>
<time>2010-07-17T13:06:00Z</time>
<desc>lat.=55.831520, lon.=26.197580, Alt.=164.927856m. Speed=0.432000m/h.</desc>
<speed>0.120000</speed>
</trkpt>
<trkpt lat="55.831520" lon="26.197582">
<ele>164.935669</ele>
<time>2010-07-17T13:06:01Z</time>
<desc>lat.=55.831520, lon.=26.197582, Alt.=164.935669m. Speed=0.864000m/h.</desc>
<speed>0.240000</speed>
</trkpt>
<trkpt lat="55.831520" lon="26.197586">
<ele>164.943481</ele>
<time>2010-07-17T13:06:02Z</time>
<desc>lat.=55.831520, lon.=26.197586, Alt.=164.943481m. Speed=1.188000m/h.</desc>
<speed>0.330000</speed>
</trkpt>
<trkpt lat="55.831532" lon="26.197598">
<ele>165.095825</ele>
<time>2010-07-17T13:06:03Z</time>
<desc>lat.=55.831532, lon.=26.197598, Alt.=165.095825m. Speed=1.008000m/h.</desc>
<speed>0.280000</speed>
</trkpt>
<trkpt lat="55.831539" lon="26.197617">
<ele>165.255981</ele>
<time>2010-07-17T13:06:04Z</time>
<desc>lat.=55.831539, lon.=26.197617, Alt.=165.255981m. Speed=1.224000m/h.</desc>
<speed>0.340000</speed>
</trkpt>
<trkpt lat="55.831539" lon="26.197636">
<ele>165.197388</ele>
<time>2010-07-17T13:06:05Z</time>
<desc>lat.=55.831539, lon.=26.197636, Alt.=165.197388m. Speed=1.224000m/h.</desc>
<speed>0.340000</speed>
</trkpt>
<trkpt lat="55.831558" lon="26.197666">
<ele>165.470825</ele>
<time>2010-07-17T13:06:06Z</time>
<desc>lat.=55.831558, lon.=26.197666, Alt.=165.470825m. Speed=1.620000m/h.</desc>
<speed>0.450000</speed>
</trkpt>
<trkpt lat="55.831573" lon="26.197683">
<ele>165.693481</ele>
<time>2010-07-17T13:06:07Z</time>
<desc>lat.=55.831573, lon.=26.197683, Alt.=165.693481m. Speed=1.476000m/h.</desc>
<speed>0.410000</speed>
</trkpt>
<trkpt lat="55.831581" lon="26.197708">
<ele>165.920044</ele>
<time>2010-07-17T13:06:08Z</time>
<desc>lat.=55.831581, lon.=26.197708, Alt.=165.920044m. Speed=1.728000m/h.</desc>
<speed>0.480000</speed>
</trkpt>
<trkpt lat="55.831589" lon="26.197733">
<ele>166.154419</ele>
<time>2010-07-17T13:06:09Z</time>
<desc>lat.=55.831589, lon.=26.197733, Alt.=166.154419m. Speed=1.800000m/h.</desc>
<speed>0.500000</speed>
</trkpt>
<trkpt lat="55.831604" lon="26.197752">
<ele>166.474731</ele>
<time>2010-07-17T13:06:10Z</time>
<desc>lat.=55.831604, lon.=26.197752, Alt.=166.474731m. Speed=1.764000m/h.</desc>
<speed>0.490000</speed>
</trkpt>
<trkpt lat="55.831615" lon="26.197767">
<ele>166.752075</ele>
<time>2010-07-17T13:06:11Z</time>
<desc>lat.=55.831615, lon.=26.197767, Alt.=166.752075m. Speed=1.872000m/h.</desc>
<speed>0.520000</speed>
</trkpt>
<trkpt lat="55.831623" lon="26.197777">
<ele>167.068481</ele>
<time>2010-07-17T13:06:12Z</time>
<desc>lat.=55.831623, lon.=26.197777, Alt.=167.068481m. Speed=1.656000m/h.</desc>
<speed>0.460000</speed>
</trkpt>
<trkpt lat="55.831631" lon="26.197794">
<ele>167.283325</ele>
<time>2010-07-17T13:06:13Z</time>
<desc>lat.=55.831631, lon.=26.197794, Alt.=167.283325m. Speed=1.548000m/h.</desc>
<speed>0.430000</speed>
</trkpt>
<trkpt lat="55.831642" lon="26.197807">
<ele>167.478638</ele>
<time>2010-07-17T13:06:14Z</time>
<desc>lat.=55.831642, lon.=26.197807, Alt.=167.478638m. Speed=1.476000m/h.</desc>
<speed>0.410000</speed>
</trkpt>
<trkpt lat="55.831650" lon="26.197819">
<ele>167.623169</ele>
<time>2010-07-17T13:06:15Z</time>
<desc>lat.=55.831650, lon.=26.197819, Alt.=167.623169m. Speed=1.620000m/h.</desc>
<speed>0.450000</speed>
</trkpt>
<trkpt lat="55.831657" lon="26.197824">
<ele>167.728638</ele>
<time>2010-07-17T13:06:16Z</time>
<desc>lat.=55.831657, lon.=26.197824, Alt.=167.728638m. Speed=1.368000m/h.</desc>
<speed>0.380000</speed>
</trkpt>
<trkpt lat="55.831665" lon="26.197823">
<ele>167.931763</ele>
<time>2010-07-17T13:06:17Z</time>
<desc>lat.=55.831665, lon.=26.197823, Alt.=167.931763m. Speed=1.296000m/h.</desc>
<speed>0.360000</speed>
</trkpt>
<trkpt lat="55.831669" lon="26.197826">
<ele>168.150513</ele>
<time>2010-07-17T13:06:18Z</time>
<desc>lat.=55.831669, lon.=26.197826, Alt.=168.150513m. Speed=1.008000m/h.</desc>
<speed>0.280000</speed>
</trkpt>
<trkpt lat="55.831676" lon="26.197838">
<ele>168.263794</ele>
<time>2010-07-17T13:06:19Z</time>
<desc>lat.=55.831676, lon.=26.197838, Alt.=168.263794m. Speed=1.044000m/h.</desc>
<speed>0.290000</speed>
</trkpt>
<trkpt lat="55.831688" lon="26.197845">
<ele>168.380981</ele>
<time>2010-07-17T13:06:20Z</time>
<desc>lat.=55.831688, lon.=26.197845, Alt.=168.380981m. Speed=1.440000m/h.</desc>
<speed>0.400000</speed>
</trkpt>
<trkpt lat="55.831699" lon="26.197845">
<ele>168.552856</ele>
<time>2010-07-17T13:06:21Z</time>
<desc>lat.=55.831699, lon.=26.197845, Alt.=168.552856m. Speed=0.936000m/h.</desc>
<speed>0.260000</speed>
</trkpt>
<trkpt lat="55.831707" lon="26.197844">
<ele>168.693481</ele>
<time>2010-07-17T13:06:22Z</time>
<desc>lat.=55.831707, lon.=26.197844, Alt.=168.693481m. Speed=0.972000m/h.</desc>
<speed>0.270000</speed>
</trkpt>
<trkpt lat="55.831711" lon="26.197853">
<ele>168.802856</ele>
<time>2010-07-17T13:06:23Z</time>
<desc>lat.=55.831711, lon.=26.197853, Alt.=168.802856m. Speed=1.116000m/h.</desc>
<speed>0.310000</speed>
</trkpt>
<trkpt lat="55.831711" lon="26.197853">
<ele>168.982544</ele>
<time>2010-07-17T13:06:24Z</time>
<desc>lat.=55.831711, lon.=26.197853, Alt.=168.982544m. Speed=0.612000m/h.</desc>
<speed>0.170000</speed>
</trkpt>
<trkpt lat="55.831711" lon="26.197851">
<ele>169.127075</ele>
<time>2010-07-17T13:06:25Z</time>
<desc>lat.=55.831711, lon.=26.197851, Alt.=169.127075m. Speed=0.504000m/h.</desc>
<speed>0.140000</speed>
</trkpt>
<trkpt lat="55.831718" lon="26.197847">
<ele>169.291138</ele>
<time>2010-07-17T13:06:26Z</time>
<desc>lat.=55.831718, lon.=26.197847, Alt.=169.291138m. Speed=0.504000m/h.</desc>
<speed>0.140000</speed>
</trkpt>
<trkpt lat="55.831718" lon="26.197855">
<ele>169.404419</ele>
<time>2010-07-17T13:06:27Z</time>
<desc>lat.=55.831718, lon.=26.197855, Alt.=169.404419m. Speed=0.216000m/h.</desc>
<speed>0.060000</speed>
</trkpt>
<trkpt lat="55.831722" lon="26.197855">
<ele>169.431763</ele>
<time>2010-07-17T13:06:28Z</time>
<desc>lat.=55.831722, lon.=26.197855, Alt.=169.431763m. Speed=0.360000m/h.</desc>
<speed>0.100000</speed>
</trkpt>
<trkpt lat="55.831722" lon="26.197857">
<ele>169.451294</ele>
<time>2010-07-17T13:06:29Z</time>
<desc>lat.=55.831722, lon.=26.197857, Alt.=169.451294m. Speed=0.288000m/h.</desc>
<speed>0.080000</speed>
</trkpt>
<trkpt lat="55.831722" lon="26.197857">
<ele>169.470825</ele>
<time>2010-07-17T13:06:30Z</time>
<desc>lat.=55.831722, lon.=26.197857, Alt.=169.470825m. Speed=0.324000m/h.</desc>
<speed>0.090000</speed>
</trkpt>
<trkpt lat="55.831722" lon="26.197859">
<ele>169.494263</ele>
<time>2010-07-17T13:06:31Z</time>
<desc>lat.=55.831722, lon.=26.197859, Alt.=169.494263m. Speed=0.720000m/h.</desc>
<speed>0.200000</speed>
</trkpt>
<trkpt lat="55.831726" lon="26.197859">
<ele>169.513794</ele>
<time>2010-07-17T13:06:32Z</time>
<desc>lat.=55.831726, lon.=26.197859, Alt.=169.513794m. Speed=0.828000m/h.</desc>
<speed>0.230000</speed>
</trkpt>
<trkpt lat="55.831726" lon="26.197861">
<ele>169.525513</ele>
<time>2010-07-17T13:06:33Z</time>
<desc>lat.=55.831726, lon.=26.197861, Alt.=169.525513m. Speed=0.972000m/h.</desc>
<speed>0.270000</speed>
</trkpt>
<trkpt lat="55.831730" lon="26.197861">
<ele>169.537231</ele>
<time>2010-07-17T13:06:34Z</time>
<desc>lat.=55.831730, lon.=26.197861, Alt.=169.537231m. Speed=1.080000m/h.</desc>
<speed>0.300000</speed>
</trkpt>
<trkpt lat="55.831741" lon="26.197865">
<ele>169.685669</ele>
<time>2010-07-17T13:06:35Z</time>
<desc>lat.=55.831741, lon.=26.197865, Alt.=169.685669m. Speed=1.044000m/h.</desc>
<speed>0.290000</speed>
</trkpt>
<trkpt lat="55.831753" lon="26.197870">
<ele>169.806763</ele>
<time>2010-07-17T13:06:36Z</time>
<desc>lat.=55.831753, lon.=26.197870, Alt.=169.806763m. Speed=1.152000m/h.</desc>
<speed>0.320000</speed>
</trkpt>
<trkpt lat="55.831760" lon="26.197882">
<ele>169.888794</ele>
<time>2010-07-17T13:06:37Z</time>
<desc>lat.=55.831760, lon.=26.197882, Alt.=169.888794m. Speed=0.972000m/h.</desc>
<speed>0.270000</speed>
</trkpt>
<trkpt lat="55.831764" lon="26.197884">
<ele>169.943481</ele>
<time>2010-07-17T13:06:38Z</time>
<desc>lat.=55.831764, lon.=26.197884, Alt.=169.943481m. Speed=0.576000m/h.</desc>
<speed>0.160000</speed>
</trkpt>
<trkpt lat="55.831772" lon="26.197889">
<ele>170.080200</ele>
<time>2010-07-17T13:06:39Z</time>
<desc>lat.=55.831772, lon.=26.197889, Alt.=170.080200m. Speed=0.720000m/h.</desc>
<speed>0.200000</speed>
</trkpt>
<trkpt lat="55.831776" lon="26.197895">
<ele>170.244263</ele>
<time>2010-07-17T13:06:40Z</time>
<desc>lat.=55.831776, lon.=26.197895, Alt.=170.244263m. Speed=0.936000m/h.</desc>
<speed>0.260000</speed>
</trkpt>
<trkpt lat="55.831776" lon="26.197895">
<ele>170.259888</ele>
<time>2010-07-17T13:06:41Z</time>
<desc>lat.=55.831776, lon.=26.197895, Alt.=170.259888m. Speed=0.684000m/h.</desc>
<speed>0.190000</speed>
</trkpt>
<trkpt lat="55.831779" lon="26.197895">
<ele>170.279419</ele>
<time>2010-07-17T13:06:42Z</time>
<desc>lat.=55.831779, lon.=26.197895, Alt.=170.279419m. Speed=0.396000m/h.</desc>
<speed>0.110000</speed>
</trkpt>
<trkpt lat="55.831779" lon="26.197895">
<ele>170.298950</ele>
<time>2010-07-17T13:06:43Z</time>
<desc>lat.=55.831779, lon.=26.197895, Alt.=170.298950m. Speed=0.540000m/h.</desc>
<speed>0.150000</speed>
</trkpt>
<trkpt lat="55.831783" lon="26.197893">
<ele>170.314575</ele>
<time>2010-07-17T13:06:44Z</time>
<desc>lat.=55.831783, lon.=26.197893, Alt.=170.314575m. Speed=0.576000m/h.</desc>
<speed>0.160000</speed>
</trkpt>
<trkpt lat="55.831783" lon="26.197891">
<ele>170.330200</ele>
<time>2010-07-17T13:06:45Z</time>
<desc>lat.=55.831783, lon.=26.197891, Alt.=170.330200m. Speed=0.396000m/h.</desc>
<speed>0.110000</speed>
</trkpt>
<trkpt lat="55.831783" lon="26.197889">
<ele>170.341919</ele>
<time>2010-07-17T13:06:46Z</time>
<desc>lat.=55.831783, lon.=26.197889, Alt.=170.341919m. Speed=0.288000m/h.</desc>
<speed>0.080000</speed>
</trkpt>
<trkpt lat="55.831783" lon="26.197887">
<ele>170.349731</ele>
<time>2010-07-17T13:06:47Z</time>
<desc>lat.=55.831783, lon.=26.197887, Alt.=170.349731m. Speed=0.252000m/h.</desc>
<speed>0.070000</speed>
</trkpt>
<trkpt lat="55.831783" lon="26.197887">
<ele>170.357544</ele>
<time>2010-07-17T13:06:48Z</time>
<desc>lat.=55.831783, lon.=26.197887, Alt.=170.357544m. Speed=0.324000m/h.</desc>
<speed>0.090000</speed>
</trkpt>
<trkpt lat="55.831783" lon="26.197886">
<ele>170.365356</ele>
<time>2010-07-17T13:06:49Z</time>
<desc>lat.=55.831783, lon.=26.197886, Alt.=170.365356m. Speed=0.360000m/h.</desc>
<speed>0.100000</speed>
</trkpt>
<trkpt lat="55.831783" lon="26.197887">
<ele>170.369263</ele>
<time>2010-07-17T13:06:50Z</time>
<desc>lat.=55.831783, lon.=26.197887, Alt.=170.369263m. Speed=0.324000m/h.</desc>
<speed>0.090000</speed>
</trkpt>
<trkpt lat="55.831787" lon="26.197887">
<ele>170.373169</ele>
<time>2010-07-17T13:06:51Z</time>
<desc>lat.=55.831787, lon.=26.197887, Alt.=170.373169m. Speed=0.252000m/h.</desc>
<speed>0.070000</speed>
</trkpt>
<trkpt lat="55.831787" lon="26.197887">
<ele>170.377075</ele>
<time>2010-07-17T13:06:52Z</time>
<desc>lat.=55.831787, lon.=26.197887, Alt.=170.377075m. Speed=0.144000m/h.</desc>
<speed>0.040000</speed>
</trkpt>
<trkpt lat="55.831787" lon="26.197886">
<ele>170.384888</ele>
<time>2010-07-17T13:06:53Z</time>
<desc>lat.=55.831787, lon.=26.197886, Alt.=170.384888m. Speed=0.180000m/h.</desc>
<speed>0.050000</speed>
</trkpt>
<trkpt lat="55.831787" lon="26.197886">
<ele>170.388794</ele>
<time>2010-07-17T13:06:54Z</time>
<desc>lat.=55.831787, lon.=26.197886, Alt.=170.388794m. Speed=0.252000m/h.</desc>
<speed>0.070000</speed>
</trkpt>
<trkpt lat="55.831787" lon="26.197884">
<ele>170.388794</ele>
<time>2010-07-17T13:06:55Z</time>
<desc>lat.=55.831787, lon.=26.197884, Alt.=170.388794m. Speed=0.360000m/h.</desc>
<speed>0.100000</speed>
</trkpt>
<trkpt lat="55.831787" lon="26.197884">
<ele>170.392700</ele>
<time>2010-07-17T13:06:56Z</time>
<desc>lat.=55.831787, lon.=26.197884, Alt.=170.392700m. Speed=0.576000m/h.</desc>
<speed>0.160000</speed>
</trkpt>
<trkpt lat="55.831791" lon="26.197884">
<ele>170.392700</ele>
<time>2010-07-17T13:06:57Z</time>
<desc>lat.=55.831791, lon.=26.197884, Alt.=170.392700m. Speed=0.360000m/h.</desc>
<speed>0.100000</speed>
</trkpt>
<trkpt lat="55.831791" lon="26.197884">
<ele>170.388794</ele>
<time>2010-07-17T13:06:58Z</time>
<desc>lat.=55.831791, lon.=26.197884, Alt.=170.388794m. Speed=0.468000m/h.</desc>
<speed>0.130000</speed>
</trkpt>
<trkpt lat="55.831791" lon="26.197884">
<ele>170.388794</ele>
<time>2010-07-17T13:06:59Z</time>
<desc>lat.=55.831791, lon.=26.197884, Alt.=170.388794m. Speed=0.180000m/h.</desc>
<speed>0.050000</speed>
</trkpt>
<trkpt lat="55.831791" lon="26.197884">
<ele>170.388794</ele>
<time>2010-07-17T13:07:00Z</time>
<desc>lat.=55.831791, lon.=26.197884, Alt.=170.388794m. Speed=0.072000m/h.</desc>
<speed>0.020000</speed>
</trkpt>
<trkpt lat="55.831791" lon="26.197884">
<ele>170.380981</ele>
<time>2010-07-17T13:07:01Z</time>
<desc>lat.=55.831791, lon.=26.197884, Alt.=170.380981m. Speed=0.360000m/h.</desc>
<speed>0.100000</speed>
</trkpt>
<trkpt lat="55.831791" lon="26.197882">
<ele>170.377075</ele>
<time>2010-07-17T13:07:02Z</time>
<desc>lat.=55.831791, lon.=26.197882, Alt.=170.377075m. Speed=0.432000m/h.</desc>
<speed>0.120000</speed>
</trkpt>
<trkpt lat="55.831791" lon="26.197880">
<ele>170.373169</ele>
<time>2010-07-17T13:07:03Z</time>
<desc>lat.=55.831791, lon.=26.197880, Alt.=170.373169m. Speed=0.468000m/h.</desc>
<speed>0.130000</speed>
</trkpt>
<trkpt lat="55.831791" lon="26.197876">
<ele>170.369263</ele>
<time>2010-07-17T13:07:04Z</time>
<desc>lat.=55.831791, lon.=26.197876, Alt.=170.369263m. Speed=0.396000m/h.</desc>
<speed>0.110000</speed>
</trkpt>
<trkpt lat="55.831791" lon="26.197874">
<ele>170.361450</ele>
<time>2010-07-17T13:07:05Z</time>
<desc>lat.=55.831791, lon.=26.197874, Alt.=170.361450m. Speed=0.216000m/h.</desc>
<speed>0.060000</speed>
</trkpt>
<trkpt lat="55.831791" lon="26.197874">
<ele>170.353638</ele>
<time>2010-07-17T13:07:06Z</time>
<desc>lat.=55.831791, lon.=26.197874, Alt.=170.353638m. Speed=0.108000m/h.</desc>
<speed>0.030000</speed>
</trkpt>
<trkpt lat="55.831791" lon="26.197874">
<ele>170.349731</ele>
<time>2010-07-17T13:07:07Z</time>
<desc>lat.=55.831791, lon.=26.197874, Alt.=170.349731m. Speed=0.000000m/h.</desc>
<speed>0.000000</speed>
</trkpt>
<trkpt lat="55.831791" lon="26.197874">
<ele>170.338013</ele>
<time>2010-07-17T13:07:08Z</time>
<desc>lat.=55.831791, lon.=26.197874, Alt.=170.338013m. Speed=0.072000m/h.</desc>
<speed>0.020000</speed>
</trkpt>
<trkpt lat="55.831791" lon="26.197872">
<ele>170.330200</ele>
<time>2010-07-17T13:07:09Z</time>
<desc>lat.=55.831791, lon.=26.197872, Alt.=170.330200m. Speed=0.216000m/h.</desc>
<speed>0.060000</speed>
</trkpt>
<trkpt lat="55.831791" lon="26.197872">
<ele>170.322388</ele>
<time>2010-07-17T13:07:10Z</time>
<desc>lat.=55.831791, lon.=26.197872, Alt.=170.322388m. Speed=0.216000m/h.</desc>
<speed>0.060000</speed>
</trkpt>
<trkpt lat="55.831791" lon="26.197870">
<ele>170.314575</ele>
<time>2010-07-17T13:07:11Z</time>
<desc>lat.=55.831791, lon.=26.197870, Alt.=170.314575m. Speed=0.288000m/h.</desc>
<speed>0.080000</speed>
</trkpt>
<trkpt lat="55.831791" lon="26.197870">
<ele>170.314575</ele>
<time>2010-07-17T13:07:12Z</time>
<desc>lat.=55.831791, lon.=26.197870, Alt.=170.314575m. Speed=0.144000m/h.</desc>
<speed>0.040000</speed>
</trkpt>
<trkpt lat="55.831791" lon="26.197870">
<ele>170.310669</ele>
<time>2010-07-17T13:07:13Z</time>
<desc>lat.=55.831791, lon.=26.197870, Alt.=170.310669m. Speed=0.180000m/h.</desc>
<speed>0.050000</speed>
</trkpt>
<trkpt lat="55.831791" lon="26.197872">
<ele>170.306763</ele>
<time>2010-07-17T13:07:14Z</time>
<desc>lat.=55.831791, lon.=26.197872, Alt.=170.306763m. Speed=0.324000m/h.</desc>
<speed>0.090000</speed>
</trkpt>
<trkpt lat="55.831791" lon="26.197872">
<ele>170.302856</ele>
<time>2010-07-17T13:07:15Z</time>
<desc>lat.=55.831791, lon.=26.197872, Alt.=170.302856m. Speed=0.396000m/h.</desc>
<speed>0.110000</speed>
</trkpt>
<trkpt lat="55.831791" lon="26.197874">
<ele>170.298950</ele>
<time>2010-07-17T13:07:16Z</time>
<desc>lat.=55.831791, lon.=26.197874, Alt.=170.298950m. Speed=0.540000m/h.</desc>
<speed>0.150000</speed>
</trkpt>
<trkpt lat="55.831791" lon="26.197876">
<ele>170.298950</ele>
<time>2010-07-17T13:07:17Z</time>
<desc>lat.=55.831791, lon.=26.197876, Alt.=170.298950m. Speed=0.216000m/h.</desc>
<speed>0.060000</speed>
</trkpt>
<trkpt lat="55.831791" lon="26.197876">
<ele>170.295044</ele>
<time>2010-07-17T13:07:18Z</time>
<desc>lat.=55.831791, lon.=26.197876, Alt.=170.295044m. Speed=0.576000m/h.</desc>
<speed>0.160000</speed>
</trkpt>
<trkpt lat="55.831791" lon="26.197878">
<ele>170.295044</ele>
<time>2010-07-17T13:07:19Z</time>
<desc>lat.=55.831791, lon.=26.197878, Alt.=170.295044m. Speed=0.828000m/h.</desc>
<speed>0.230000</speed>
</trkpt>
<trkpt lat="55.831791" lon="26.197882">
<ele>170.295044</ele>
<time>2010-07-17T13:07:20Z</time>
<desc>lat.=55.831791, lon.=26.197882, Alt.=170.295044m. Speed=1.008000m/h.</desc>
<speed>0.280000</speed>
</trkpt>
<trkpt lat="55.831787" lon="26.197886">
<ele>170.295044</ele>
<time>2010-07-17T13:07:21Z</time>
<desc>lat.=55.831787, lon.=26.197886, Alt.=170.295044m. Speed=0.648000m/h.</desc>
<speed>0.180000</speed>
</trkpt>
<trkpt lat="55.831787" lon="26.197887">
<ele>170.291138</ele>
<time>2010-07-17T13:07:22Z</time>
<desc>lat.=55.831787, lon.=26.197887, Alt.=170.291138m. Speed=0.504000m/h.</desc>
<speed>0.140000</speed>
</trkpt>
<trkpt lat="55.831787" lon="26.197886">
<ele>170.287231</ele>
<time>2010-07-17T13:07:23Z</time>
<desc>lat.=55.831787, lon.=26.197886, Alt.=170.287231m. Speed=0.576000m/h.</desc>
<speed>0.160000</speed>
</trkpt>
<trkpt lat="55.831783" lon="26.197884">
<ele>170.283325</ele>
<time>2010-07-17T13:07:24Z</time>
<desc>lat.=55.831783, lon.=26.197884, Alt.=170.283325m. Speed=0.684000m/h.</desc>
<speed>0.190000</speed>
</trkpt>
<trkpt lat="55.831783" lon="26.197884">
<ele>170.279419</ele>
<time>2010-07-17T13:07:25Z</time>
<desc>lat.=55.831783, lon.=26.197884, Alt.=170.279419m. Speed=0.648000m/h.</desc>
<speed>0.180000</speed>
</trkpt>
<trkpt lat="55.831779" lon="26.197884">
<ele>170.275513</ele>
<time>2010-07-17T13:07:26Z</time>
<desc>lat.=55.831779, lon.=26.197884, Alt.=170.275513m. Speed=0.396000m/h.</desc>
<speed>0.110000</speed>
</trkpt>
<trkpt lat="55.831779" lon="26.197882">
<ele>170.267700</ele>
<time>2010-07-17T13:07:27Z</time>
<desc>lat.=55.831779, lon.=26.197882, Alt.=170.267700m. Speed=0.252000m/h.</desc>
<speed>0.070000</speed>
</trkpt>
<trkpt lat="55.831779" lon="26.197882">
<ele>170.263794</ele>
<time>2010-07-17T13:07:28Z</time>
<desc>lat.=55.831779, lon.=26.197882, Alt.=170.263794m. Speed=0.252000m/h.</desc>
<speed>0.070000</speed>
</trkpt>
<trkpt lat="55.831779" lon="26.197880">
<ele>170.259888</ele>
<time>2010-07-17T13:07:29Z</time>
<desc>lat.=55.831779, lon.=26.197880, Alt.=170.259888m. Speed=0.324000m/h.</desc>
<speed>0.090000</speed>
</trkpt>
<trkpt lat="55.831779" lon="26.197880">
<ele>170.252075</ele>
<time>2010-07-17T13:07:30Z</time>
<desc>lat.=55.831779, lon.=26.197880, Alt.=170.252075m. Speed=0.252000m/h.</desc>
<speed>0.070000</speed>
</trkpt>
<trkpt lat="55.831779" lon="26.197880">
<ele>170.244263</ele>
<time>2010-07-17T13:07:31Z</time>
<desc>lat.=55.831779, lon.=26.197880, Alt.=170.244263m. Speed=0.540000m/h.</desc>
<speed>0.150000</speed>
</trkpt>
<trkpt lat="55.831776" lon="26.197880">
<ele>170.236450</ele>
<time>2010-07-17T13:07:32Z</time>
<desc>lat.=55.831776, lon.=26.197880, Alt.=170.236450m. Speed=0.540000m/h.</desc>
<speed>0.150000</speed>
</trkpt>
<trkpt lat="55.831776" lon="26.197880">
<ele>170.224731</ele>
<time>2010-07-17T13:07:33Z</time>
<desc>lat.=55.831776, lon.=26.197880, Alt.=170.224731m. Speed=0.072000m/h.</desc>
<speed>0.020000</speed>
</trkpt>
<trkpt lat="55.831776" lon="26.197880">
<ele>170.213013</ele>
<time>2010-07-17T13:07:34Z</time>
<desc>lat.=55.831776, lon.=26.197880, Alt.=170.213013m. Speed=0.108000m/h.</desc>
<speed>0.030000</speed>
</trkpt>
<trkpt lat="55.831776" lon="26.197880">
<ele>170.209106</ele>
<time>2010-07-17T13:07:35Z</time>
<desc>lat.=55.831776, lon.=26.197880, Alt.=170.209106m. Speed=0.144000m/h.</desc>
<speed>0.040000</speed>
</trkpt>
<trkpt lat="55.831776" lon="26.197878">
<ele>170.209106</ele>
<time>2010-07-17T13:07:36Z</time>
<desc>lat.=55.831776, lon.=26.197878, Alt.=170.209106m. Speed=0.324000m/h.</desc>
<speed>0.090000</speed>
</trkpt>
<trkpt lat="55.831776" lon="26.197878">
<ele>170.209106</ele>
<time>2010-07-17T13:07:37Z</time>
<desc>lat.=55.831776, lon.=26.197878, Alt.=170.209106m. Speed=0.000000m/h.</desc>
<speed>0.000000</speed>
</trkpt>
<trkpt lat="55.831776" lon="26.197878">
<ele>170.205200</ele>
<time>2010-07-17T13:07:38Z</time>
<desc>lat.=55.831776, lon.=26.197878, Alt.=170.205200m. Speed=0.180000m/h.</desc>
<speed>0.050000</speed>
</trkpt>
<trkpt lat="55.831776" lon="26.197878">
<ele>170.201294</ele>
<time>2010-07-17T13:07:39Z</time>
<desc>lat.=55.831776, lon.=26.197878, Alt.=170.201294m. Speed=0.216000m/h.</desc>
<speed>0.060000</speed>
</trkpt>
<trkpt lat="55.831776" lon="26.197876">
<ele>170.201294</ele>
<time>2010-07-17T13:07:40Z</time>
<desc>lat.=55.831776, lon.=26.197876, Alt.=170.201294m. Speed=0.432000m/h.</desc>
<speed>0.120000</speed>
</trkpt>
<trkpt lat="55.831776" lon="26.197876">
<ele>170.205200</ele>
<time>2010-07-17T13:07:41Z</time>
<desc>lat.=55.831776, lon.=26.197876, Alt.=170.205200m. Speed=0.396000m/h.</desc>
<speed>0.110000</speed>
</trkpt>
<trkpt lat="55.831776" lon="26.197876">
<ele>170.209106</ele>
<time>2010-07-17T13:07:42Z</time>
<desc>lat.=55.831776, lon.=26.197876, Alt.=170.209106m. Speed=0.468000m/h.</desc>
<speed>0.130000</speed>
</trkpt>
<trkpt lat="55.831779" lon="26.197874">
<ele>170.213013</ele>
<time>2010-07-17T13:07:43Z</time>
<desc>lat.=55.831779, lon.=26.197874, Alt.=170.213013m. Speed=0.900000m/h.</desc>
<speed>0.250000</speed>
</trkpt>
<trkpt lat="55.831779" lon="26.197872">
<ele>170.220825</ele>
<time>2010-07-17T13:07:44Z</time>
<desc>lat.=55.831779, lon.=26.197872, Alt.=170.220825m. Speed=0.360000m/h.</desc>
<speed>0.100000</speed>
</trkpt>
<trkpt lat="55.831783" lon="26.197872">
<ele>170.224731</ele>
<time>2010-07-17T13:07:45Z</time>
<desc>lat.=55.831783, lon.=26.197872, Alt.=170.224731m. Speed=0.396000m/h.</desc>
<speed>0.110000</speed>
</trkpt>
<trkpt lat="55.831783" lon="26.197870">
<ele>170.224731</ele>
<time>2010-07-17T13:07:46Z</time>
<desc>lat.=55.831783, lon.=26.197870, Alt.=170.224731m. Speed=0.612000m/h.</desc>
<speed>0.170000</speed>
</trkpt>
<trkpt lat="55.831783" lon="26.197868">
<ele>170.228638</ele>
<time>2010-07-17T13:07:47Z</time>
<desc>lat.=55.831783, lon.=26.197868, Alt.=170.228638m. Speed=0.432000m/h.</desc>
<speed>0.120000</speed>
</trkpt>
<trkpt lat="55.831783" lon="26.197868">
<ele>170.236450</ele>
<time>2010-07-17T13:07:48Z</time>
<desc>lat.=55.831783, lon.=26.197868, Alt.=170.236450m. Speed=0.252000m/h.</desc>
<speed>0.070000</speed>
</trkpt>
<trkpt lat="55.831783" lon="26.197868">
<ele>170.240356</ele>
<time>2010-07-17T13:07:49Z</time>
<desc>lat.=55.831783, lon.=26.197868, Alt.=170.240356m. Speed=0.252000m/h.</desc>
<speed>0.070000</speed>
</trkpt>
<trkpt lat="55.831787" lon="26.197868">
<ele>170.244263</ele>
<time>2010-07-17T13:07:50Z</time>
<desc>lat.=55.831787, lon.=26.197868, Alt.=170.244263m. Speed=0.396000m/h.</desc>
<speed>0.110000</speed>
</trkpt>
<trkpt lat="55.831783" lon="26.197870">
<ele>170.248169</ele>
<time>2010-07-17T13:07:51Z</time>
<desc>lat.=55.831783, lon.=26.197870, Alt.=170.248169m. Speed=0.360000m/h.</desc>
<speed>0.100000</speed>
</trkpt>
<trkpt lat="55.831787" lon="26.197872">
<ele>170.252075</ele>
<time>2010-07-17T13:07:52Z</time>
<desc>lat.=55.831787, lon.=26.197872, Alt.=170.252075m. Speed=0.288000m/h.</desc>
<speed>0.080000</speed>
</trkpt>
<trkpt lat="55.831787" lon="26.197872">
<ele>170.259888</ele>
<time>2010-07-17T13:07:53Z</time>
<desc>lat.=55.831787, lon.=26.197872, Alt.=170.259888m. Speed=0.288000m/h.</desc>
<speed>0.080000</speed>
</trkpt>
<trkpt lat="55.831787" lon="26.197872">
<ele>170.263794</ele>
<time>2010-07-17T13:07:54Z</time>
<desc>lat.=55.831787, lon.=26.197872, Alt.=170.263794m. Speed=0.324000m/h.</desc>
<speed>0.090000</speed>
</trkpt>
<trkpt lat="55.831787" lon="26.197874">
<ele>170.271606</ele>
<time>2010-07-17T13:07:55Z</time>
<desc>lat.=55.831787, lon.=26.197874, Alt.=170.271606m. Speed=0.720000m/h.</desc>
<speed>0.200000</speed>
</trkpt>
<trkpt lat="55.831787" lon="26.197876">
<ele>170.283325</ele>
<time>2010-07-17T13:07:56Z</time>
<desc>lat.=55.831787, lon.=26.197876, Alt.=170.283325m. Speed=0.720000m/h.</desc>
<speed>0.200000</speed>
</trkpt>
<trkpt lat="55.831791" lon="26.197876">
<ele>170.295044</ele>
<time>2010-07-17T13:07:57Z</time>
<desc>lat.=55.831791, lon.=26.197876, Alt.=170.295044m. Speed=0.864000m/h.</desc>
<speed>0.240000</speed>
</trkpt>
<trkpt lat="55.831791" lon="26.197876">
<ele>170.306763</ele>
<time>2010-07-17T13:07:58Z</time>
<desc>lat.=55.831791, lon.=26.197876, Alt.=170.306763m. Speed=0.864000m/h.</desc>
<speed>0.240000</speed>
</trkpt>
<trkpt lat="55.831795" lon="26.197878">
<ele>170.318481</ele>
<time>2010-07-17T13:07:59Z</time>
<desc>lat.=55.831795, lon.=26.197878, Alt.=170.318481m. Speed=0.576000m/h.</desc>
<speed>0.160000</speed>
</trkpt>
<trkpt lat="55.831795" lon="26.197880">
<ele>170.330200</ele>
<time>2010-07-17T13:08:00Z</time>
<desc>lat.=55.831795, lon.=26.197880, Alt.=170.330200m. Speed=0.684000m/h.</desc>
<speed>0.190000</speed>
</trkpt>
<trkpt lat="55.831795" lon="26.197884">
<ele>170.341919</ele>
<time>2010-07-17T13:08:01Z</time>
<desc>lat.=55.831795, lon.=26.197884, Alt.=170.341919m. Speed=0.756000m/h.</desc>
<speed>0.210000</speed>
</trkpt>
<trkpt lat="55.831799" lon="26.197886">
<ele>170.349731</ele>
<time>2010-07-17T13:08:02Z</time>
<desc>lat.=55.831799, lon.=26.197886, Alt.=170.349731m. Speed=0.612000m/h.</desc>
<speed>0.170000</speed>
</trkpt>
<trkpt lat="55.831799" lon="26.197887">
<ele>170.361450</ele>
<time>2010-07-17T13:08:03Z</time>
<desc>lat.=55.831799, lon.=26.197887, Alt.=170.361450m. Speed=0.720000m/h.</desc>
<speed>0.200000</speed>
</trkpt>
<trkpt lat="55.831802" lon="26.197887">
<ele>170.373169</ele>
<time>2010-07-17T13:08:04Z</time>
<desc>lat.=55.831802, lon.=26.197887, Alt.=170.373169m. Speed=0.540000m/h.</desc>
<speed>0.150000</speed>
</trkpt>
<trkpt lat="55.831802" lon="26.197887">
<ele>170.384888</ele>
<time>2010-07-17T13:08:05Z</time>
<desc>lat.=55.831802, lon.=26.197887, Alt.=170.384888m. Speed=0.504000m/h.</desc>
<speed>0.140000</speed>
</trkpt>
<trkpt lat="55.831802" lon="26.197889">
<ele>170.396606</ele>
<time>2010-07-17T13:08:06Z</time>
<desc>lat.=55.831802, lon.=26.197889, Alt.=170.396606m. Speed=0.504000m/h.</desc>
<speed>0.140000</speed>
</trkpt>
<trkpt lat="55.831802" lon="26.197893">
<ele>170.408325</ele>
<time>2010-07-17T13:08:07Z</time>
<desc>lat.=55.831802, lon.=26.197893, Alt.=170.408325m. Speed=0.900000m/h.</desc>
<speed>0.250000</speed>
</trkpt>
<trkpt lat="55.831806" lon="26.197895">
<ele>170.420044</ele>
<time>2010-07-17T13:08:08Z</time>
<desc>lat.=55.831806, lon.=26.197895, Alt.=170.420044m. Speed=0.720000m/h.</desc>
<speed>0.200000</speed>
</trkpt>
<trkpt lat="55.831806" lon="26.197899">
<ele>170.435669</ele>
<time>2010-07-17T13:08:09Z</time>
<desc>lat.=55.831806, lon.=26.197899, Alt.=170.435669m. Speed=0.468000m/h.</desc>
<speed>0.130000</speed>
</trkpt>
<trkpt lat="55.831806" lon="26.197899">
<ele>170.447388</ele>
<time>2010-07-17T13:08:10Z</time>
<desc>lat.=55.831806, lon.=26.197899, Alt.=170.447388m. Speed=0.756000m/h.</desc>
<speed>0.210000</speed>
</trkpt>
<trkpt lat="55.831806" lon="26.197903">
<ele>170.455200</ele>
<time>2010-07-17T13:08:11Z</time>
<desc>lat.=55.831806, lon.=26.197903, Alt.=170.455200m. Speed=0.756000m/h.</desc>
<speed>0.210000</speed>
</trkpt>
<trkpt lat="55.831810" lon="26.197905">
<ele>170.466919</ele>
<time>2010-07-17T13:08:12Z</time>
<desc>lat.=55.831810, lon.=26.197905, Alt.=170.466919m. Speed=0.612000m/h.</desc>
<speed>0.170000</speed>
</trkpt>
<trkpt lat="55.831810" lon="26.197906">
<ele>170.478638</ele>
<time>2010-07-17T13:08:13Z</time>
<desc>lat.=55.831810, lon.=26.197906, Alt.=170.478638m. Speed=0.360000m/h.</desc>
<speed>0.100000</speed>
</trkpt>
<trkpt lat="55.831810" lon="26.197908">
<ele>170.494263</ele>
<time>2010-07-17T13:08:14Z</time>
<desc>lat.=55.831810, lon.=26.197908, Alt.=170.494263m. Speed=0.648000m/h.</desc>
<speed>0.180000</speed>
</trkpt>
<trkpt lat="55.831810" lon="26.197910">
<ele>170.509888</ele>
<time>2010-07-17T13:08:15Z</time>
<desc>lat.=55.831810, lon.=26.197910, Alt.=170.509888m. Speed=0.072000m/h.</desc>
<speed>0.020000</speed>
</trkpt>
<trkpt lat="55.831810" lon="26.197910">
<ele>170.525513</ele>
<time>2010-07-17T13:08:16Z</time>
<desc>lat.=55.831810, lon.=26.197910, Alt.=170.525513m. Speed=0.432000m/h.</desc>
<speed>0.120000</speed>
</trkpt>
<trkpt lat="55.831810" lon="26.197908">
<ele>170.545044</ele>
<time>2010-07-17T13:08:17Z</time>
<desc>lat.=55.831810, lon.=26.197908, Alt.=170.545044m. Speed=0.288000m/h.</desc>
<speed>0.080000</speed>
</trkpt>
<trkpt lat="55.831810" lon="26.197908">
<ele>170.564575</ele>
<time>2010-07-17T13:08:18Z</time>
<desc>lat.=55.831810, lon.=26.197908, Alt.=170.564575m. Speed=0.144000m/h.</desc>
<speed>0.040000</speed>
</trkpt>
<trkpt lat="55.831810" lon="26.197906">
<ele>170.580200</ele>
<time>2010-07-17T13:08:19Z</time>
<desc>lat.=55.831810, lon.=26.197906, Alt.=170.580200m. Speed=0.396000m/h.</desc>
<speed>0.110000</speed>
</trkpt>
<trkpt lat="55.831810" lon="26.197905">
<ele>170.595825</ele>
<time>2010-07-17T13:08:20Z</time>
<desc>lat.=55.831810, lon.=26.197905, Alt.=170.595825m. Speed=0.648000m/h.</desc>
<speed>0.180000</speed>
</trkpt>
<trkpt lat="55.831810" lon="26.197901">
<ele>170.611450</ele>
<time>2010-07-17T13:08:21Z</time>
<desc>lat.=55.831810, lon.=26.197901, Alt.=170.611450m. Speed=0.612000m/h.</desc>
<speed>0.170000</speed>
</trkpt>
<trkpt lat="55.831810" lon="26.197899">
<ele>170.623169</ele>
<time>2010-07-17T13:08:22Z</time>
<desc>lat.=55.831810, lon.=26.197899, Alt.=170.623169m. Speed=0.828000m/h.</desc>
<speed>0.230000</speed>
</trkpt>
<trkpt lat="55.831814" lon="26.197895">
<ele>170.634888</ele>
<time>2010-07-17T13:08:23Z</time>
<desc>lat.=55.831814, lon.=26.197895, Alt.=170.634888m. Speed=0.684000m/h.</desc>
<speed>0.190000</speed>
</trkpt>
<trkpt lat="55.831814" lon="26.197891">
<ele>170.642700</ele>
<time>2010-07-17T13:08:24Z</time>
<desc>lat.=55.831814, lon.=26.197891, Alt.=170.642700m. Speed=0.720000m/h.</desc>
<speed>0.200000</speed>
</trkpt>
<trkpt lat="55.831814" lon="26.197889">
<ele>170.654419</ele>
<time>2010-07-17T13:08:25Z</time>
<desc>lat.=55.831814, lon.=26.197889, Alt.=170.654419m. Speed=0.612000m/h.</desc>
<speed>0.170000</speed>
</trkpt>
<trkpt lat="55.831814" lon="26.197886">
<ele>170.658325</ele>
<time>2010-07-17T13:08:26Z</time>
<desc>lat.=55.831814, lon.=26.197886, Alt.=170.658325m. Speed=0.504000m/h.</desc>
<speed>0.140000</speed>
</trkpt>
<trkpt lat="55.831814" lon="26.197884">
<ele>170.658325</ele>
<time>2010-07-17T13:08:27Z</time>
<desc>lat.=55.831814, lon.=26.197884, Alt.=170.658325m. Speed=0.612000m/h.</desc>
<speed>0.170000</speed>
</trkpt>
<trkpt lat="55.831814" lon="26.197882">
<ele>170.662231</ele>
<time>2010-07-17T13:08:28Z</time>
<desc>lat.=55.831814, lon.=26.197882, Alt.=170.662231m. Speed=0.288000m/h.</desc>
<speed>0.080000</speed>
</trkpt>
<trkpt lat="55.831814" lon="26.197880">
<ele>170.662231</ele>
<time>2010-07-17T13:08:29Z</time>
<desc>lat.=55.831814, lon.=26.197880, Alt.=170.662231m. Speed=0.504000m/h.</desc>
<speed>0.140000</speed>
</trkpt>
<trkpt lat="55.831814" lon="26.197878">
<ele>170.662231</ele>
<time>2010-07-17T13:08:30Z</time>
<desc>lat.=55.831814, lon.=26.197878, Alt.=170.662231m. Speed=0.144000m/h.</desc>
<speed>0.040000</speed>
</trkpt>
<trkpt lat="55.831814" lon="26.197878">
<ele>170.658325</ele>
<time>2010-07-17T13:08:31Z</time>
<desc>lat.=55.831814, lon.=26.197878, Alt.=170.658325m. Speed=0.180000m/h.</desc>
<speed>0.050000</speed>
</trkpt>
<trkpt lat="55.831814" lon="26.197880">
<ele>170.654419</ele>
<time>2010-07-17T13:08:32Z</time>
<desc>lat.=55.831814, lon.=26.197880, Alt.=170.654419m. Speed=0.432000m/h.</desc>
<speed>0.120000</speed>
</trkpt>
<trkpt lat="55.831814" lon="26.197882">
<ele>170.650513</ele>
<time>2010-07-17T13:08:33Z</time>
<desc>lat.=55.831814, lon.=26.197882, Alt.=170.650513m. Speed=0.432000m/h.</desc>
<speed>0.120000</speed>
</trkpt>
<trkpt lat="55.831814" lon="26.197884">
<ele>170.646606</ele>
<time>2010-07-17T13:08:34Z</time>
<desc>lat.=55.831814, lon.=26.197884, Alt.=170.646606m. Speed=0.684000m/h.</desc>
<speed>0.190000</speed>
</trkpt>
<trkpt lat="55.831814" lon="26.197886">
<ele>170.650513</ele>
<time>2010-07-17T13:08:35Z</time>
<desc>lat.=55.831814, lon.=26.197886, Alt.=170.650513m. Speed=0.468000m/h.</desc>
<speed>0.130000</speed>
</trkpt>
<trkpt lat="55.831810" lon="26.197887">
<ele>170.677856</ele>
<time>2010-07-17T13:08:36Z</time>
<desc>lat.=55.831810, lon.=26.197887, Alt.=170.677856m. Speed=0.828000m/h.</desc>
<speed>0.230000</speed>
</trkpt>
<trkpt lat="55.831810" lon="26.197889">
<ele>170.701294</ele>
<time>2010-07-17T13:08:37Z</time>
<desc>lat.=55.831810, lon.=26.197889, Alt.=170.701294m. Speed=0.324000m/h.</desc>
<speed>0.090000</speed>
</trkpt>
<trkpt lat="55.831810" lon="26.197891">
<ele>170.701294</ele>
<time>2010-07-17T13:08:38Z</time>
<desc>lat.=55.831810, lon.=26.197891, Alt.=170.701294m. Speed=0.720000m/h.</desc>
<speed>0.200000</speed>
</trkpt>
<trkpt lat="55.831814" lon="26.197889">
<ele>170.693481</ele>
<time>2010-07-17T13:08:39Z</time>
<desc>lat.=55.831814, lon.=26.197889, Alt.=170.693481m. Speed=1.116000m/h.</desc>
<speed>0.310000</speed>
</trkpt>
<trkpt lat="55.831814" lon="26.197876">
<ele>171.224731</ele>
<time>2010-07-17T13:08:40Z</time>
<desc>lat.=55.831814, lon.=26.197876, Alt.=171.224731m. Speed=0.648000m/h.</desc>
<speed>0.180000</speed>
</trkpt>
<trkpt lat="55.831818" lon="26.197870">
<ele>171.470825</ele>
<time>2010-07-17T13:08:41Z</time>
<desc>lat.=55.831818, lon.=26.197870, Alt.=171.470825m. Speed=0.468000m/h.</desc>
<speed>0.130000</speed>
</trkpt>
<trkpt lat="55.831821" lon="26.197861">
<ele>171.545044</ele>
<time>2010-07-17T13:08:42Z</time>
<desc>lat.=55.831821, lon.=26.197861, Alt.=171.545044m. Speed=0.576000m/h.</desc>
<speed>0.160000</speed>
</trkpt>
<trkpt lat="55.831825" lon="26.197847">
<ele>171.681763</ele>
<time>2010-07-17T13:08:43Z</time>
<desc>lat.=55.831825, lon.=26.197847, Alt.=171.681763m. Speed=0.216000m/h.</desc>
<speed>0.060000</speed>
</trkpt>
<trkpt lat="55.831825" lon="26.197847">
<ele>171.634888</ele>
<time>2010-07-17T13:08:44Z</time>
<desc>lat.=55.831825, lon.=26.197847, Alt.=171.634888m. Speed=0.072000m/h.</desc>
<speed>0.020000</speed>
</trkpt>
<trkpt lat="55.831825" lon="26.197847">
<ele>171.603638</ele>
<time>2010-07-17T13:08:45Z</time>
<desc>lat.=55.831825, lon.=26.197847, Alt.=171.603638m. Speed=0.144000m/h.</desc>
<speed>0.040000</speed>
</trkpt>
<trkpt lat="55.831829" lon="26.197847">
<ele>171.584106</ele>
<time>2010-07-17T13:08:46Z</time>
<desc>lat.=55.831829, lon.=26.197847, Alt.=171.584106m. Speed=0.072000m/h.</desc>
<speed>0.020000</speed>
</trkpt>
<trkpt lat="55.831825" lon="26.197847">
<ele>171.568481</ele>
<time>2010-07-17T13:08:47Z</time>
<desc>lat.=55.831825, lon.=26.197847, Alt.=171.568481m. Speed=0.288000m/h.</desc>
<speed>0.080000</speed>
</trkpt>
<trkpt lat="55.831825" lon="26.197847">
<ele>171.552856</ele>
<time>2010-07-17T13:08:48Z</time>
<desc>lat.=55.831825, lon.=26.197847, Alt.=171.552856m. Speed=0.180000m/h.</desc>
<speed>0.050000</speed>
</trkpt>
<trkpt lat="55.831825" lon="26.197847">
<ele>171.529419</ele>
<time>2010-07-17T13:08:49Z</time>
<desc>lat.=55.831825, lon.=26.197847, Alt.=171.529419m. Speed=0.432000m/h.</desc>
<speed>0.120000</speed>
</trkpt>
<trkpt lat="55.831825" lon="26.197847">
<ele>171.509888</ele>
<time>2010-07-17T13:08:50Z</time>
<desc>lat.=55.831825, lon.=26.197847, Alt.=171.509888m. Speed=0.468000m/h.</desc>
<speed>0.130000</speed>
</trkpt>
<trkpt lat="55.831821" lon="26.197847">
<ele>171.486450</ele>
<time>2010-07-17T13:08:51Z</time>
<desc>lat.=55.831821, lon.=26.197847, Alt.=171.486450m. Speed=0.792000m/h.</desc>
<speed>0.220000</speed>
</trkpt>
<trkpt lat="55.831821" lon="26.197847">
<ele>171.474731</ele>
<time>2010-07-17T13:08:52Z</time>
<desc>lat.=55.831821, lon.=26.197847, Alt.=171.474731m. Speed=1.044000m/h.</desc>
<speed>0.290000</speed>
</trkpt>
<trkpt lat="55.831818" lon="26.197847">
<ele>171.474731</ele>
<time>2010-07-17T13:08:53Z</time>
<desc>lat.=55.831818, lon.=26.197847, Alt.=171.474731m. Speed=1.080000m/h.</desc>
<speed>0.300000</speed>
</trkpt>
<trkpt lat="55.831818" lon="26.197845">
<ele>171.509888</ele>
<time>2010-07-17T13:08:54Z</time>
<desc>lat.=55.831818, lon.=26.197845, Alt.=171.509888m. Speed=1.584000m/h.</desc>
<speed>0.440000</speed>
</trkpt>
<trkpt lat="55.831814" lon="26.197844">
<ele>171.681763</ele>
<time>2010-07-17T13:08:55Z</time>
<desc>lat.=55.831814, lon.=26.197844, Alt.=171.681763m. Speed=1.368000m/h.</desc>
<speed>0.380000</speed>
</trkpt>
<trkpt lat="55.831806" lon="26.197842">
<ele>171.857544</ele>
<time>2010-07-17T13:08:56Z</time>
<desc>lat.=55.831806, lon.=26.197842, Alt.=171.857544m. Speed=1.656000m/h.</desc>
<speed>0.460000</speed>
</trkpt>
<trkpt lat="55.831802" lon="26.197840">
<ele>171.630981</ele>
<time>2010-07-17T13:08:57Z</time>
<desc>lat.=55.831802, lon.=26.197840, Alt.=171.630981m. Speed=1.512000m/h.</desc>
<speed>0.420000</speed>
</trkpt>
<trkpt lat="55.831806" lon="26.197840">
<ele>171.713013</ele>
<time>2010-07-17T13:08:58Z</time>
<desc>lat.=55.831806, lon.=26.197840, Alt.=171.713013m. Speed=1.152000m/h.</desc>
<speed>0.320000</speed>
</trkpt>
<trkpt lat="55.831806" lon="26.197842">
<ele>171.771606</ele>
<time>2010-07-17T13:08:59Z</time>
<desc>lat.=55.831806, lon.=26.197842, Alt.=171.771606m. Speed=0.972000m/h.</desc>
<speed>0.270000</speed>
</trkpt>
<trkpt lat="55.831810" lon="26.197840">
<ele>171.935669</ele>
<time>2010-07-17T13:09:00Z</time>
<desc>lat.=55.831810, lon.=26.197840, Alt.=171.935669m. Speed=0.756000m/h.</desc>
<speed>0.210000</speed>
</trkpt>
<trkpt lat="55.831810" lon="26.197838">
<ele>172.037231</ele>
<time>2010-07-17T13:09:01Z</time>
<desc>lat.=55.831810, lon.=26.197838, Alt.=172.037231m. Speed=0.648000m/h.</desc>
<speed>0.180000</speed>
</trkpt>
<trkpt lat="55.831810" lon="26.197836">
<ele>172.185669</ele>
<time>2010-07-17T13:09:02Z</time>
<desc>lat.=55.831810, lon.=26.197836, Alt.=172.185669m. Speed=0.648000m/h.</desc>
<speed>0.180000</speed>
</trkpt>
<trkpt lat="55.831810" lon="26.197836">
<ele>172.201294</ele>
<time>2010-07-17T13:09:03Z</time>
<desc>lat.=55.831810, lon.=26.197836, Alt.=172.201294m. Speed=0.504000m/h.</desc>
<speed>0.140000</speed>
</trkpt>
<trkpt lat="55.831806" lon="26.197836">
<ele>172.216919</ele>
<time>2010-07-17T13:09:04Z</time>
<desc>lat.=55.831806, lon.=26.197836, Alt.=172.216919m. Speed=0.576000m/h.</desc>
<speed>0.160000</speed>
</trkpt>
<trkpt lat="55.831806" lon="26.197836">
<ele>172.232544</ele>
<time>2010-07-17T13:09:05Z</time>
<desc>lat.=55.831806, lon.=26.197836, Alt.=172.232544m. Speed=0.432000m/h.</desc>
<speed>0.120000</speed>
</trkpt>
<trkpt lat="55.831806" lon="26.197836">
<ele>172.248169</ele>
<time>2010-07-17T13:09:06Z</time>
<desc>lat.=55.831806, lon.=26.197836, Alt.=172.248169m. Speed=0.432000m/h.</desc>
<speed>0.120000</speed>
</trkpt>
<trkpt lat="55.831802" lon="26.197834">
<ele>172.263794</ele>
<time>2010-07-17T13:09:07Z</time>
<desc>lat.=55.831802, lon.=26.197834, Alt.=172.263794m. Speed=0.396000m/h.</desc>
<speed>0.110000</speed>
</trkpt>
<trkpt lat="55.831802" lon="26.197834">
<ele>172.283325</ele>
<time>2010-07-17T13:09:08Z</time>
<desc>lat.=55.831802, lon.=26.197834, Alt.=172.283325m. Speed=0.216000m/h.</desc>
<speed>0.060000</speed>
</trkpt>
<trkpt lat="55.831802" lon="26.197834">
<ele>172.306763</ele>
<time>2010-07-17T13:09:09Z</time>
<desc>lat.=55.831802, lon.=26.197834, Alt.=172.306763m. Speed=0.432000m/h.</desc>
<speed>0.120000</speed>
</trkpt>
<trkpt lat="55.831802" lon="26.197832">
<ele>172.318481</ele>
<time>2010-07-17T13:09:10Z</time>
<desc>lat.=55.831802, lon.=26.197832, Alt.=172.318481m. Speed=0.144000m/h.</desc>
<speed>0.040000</speed>
</trkpt>
<trkpt lat="55.831799" lon="26.197828">
<ele>172.338013</ele>
<time>2010-07-17T13:09:11Z</time>
<desc>lat.=55.831799, lon.=26.197828, Alt.=172.338013m. Speed=0.180000m/h.</desc>
<speed>0.050000</speed>
</trkpt>
<trkpt lat="55.831799" lon="26.197826">
<ele>172.357544</ele>
<time>2010-07-17T13:09:12Z</time>
<desc>lat.=55.831799, lon.=26.197826, Alt.=172.357544m. Speed=0.324000m/h.</desc>
<speed>0.090000</speed>
</trkpt>
<trkpt lat="55.831799" lon="26.197824">
<ele>172.380981</ele>
<time>2010-07-17T13:09:13Z</time>
<desc>lat.=55.831799, lon.=26.197824, Alt.=172.380981m. Speed=0.180000m/h.</desc>
<speed>0.050000</speed>
</trkpt>
<trkpt lat="55.831799" lon="26.197823">
<ele>172.408325</ele>
<time>2010-07-17T13:09:14Z</time>
<desc>lat.=55.831799, lon.=26.197823, Alt.=172.408325m. Speed=0.288000m/h.</desc>
<speed>0.080000</speed>
</trkpt>
<trkpt lat="55.831799" lon="26.197819">
<ele>172.439575</ele>
<time>2010-07-17T13:09:15Z</time>
<desc>lat.=55.831799, lon.=26.197819, Alt.=172.439575m. Speed=0.072000m/h.</desc>
<speed>0.020000</speed>
</trkpt>
<trkpt lat="55.831799" lon="26.197817">
<ele>172.470825</ele>
<time>2010-07-17T13:09:16Z</time>
<desc>lat.=55.831799, lon.=26.197817, Alt.=172.470825m. Speed=0.108000m/h.</desc>
<speed>0.030000</speed>
</trkpt>
<trkpt lat="55.831799" lon="26.197815">
<ele>172.502075</ele>
<time>2010-07-17T13:09:17Z</time>
<desc>lat.=55.831799, lon.=26.197815, Alt.=172.502075m. Speed=0.072000m/h.</desc>
<speed>0.020000</speed>
</trkpt>
<trkpt lat="55.831799" lon="26.197813">
<ele>172.537231</ele>
<time>2010-07-17T13:09:18Z</time>
<desc>lat.=55.831799, lon.=26.197813, Alt.=172.537231m. Speed=0.288000m/h.</desc>
<speed>0.080000</speed>
</trkpt>
<trkpt lat="55.831795" lon="26.197811">
<ele>172.564575</ele>
<time>2010-07-17T13:09:19Z</time>
<desc>lat.=55.831795, lon.=26.197811, Alt.=172.564575m. Speed=0.216000m/h.</desc>
<speed>0.060000</speed>
</trkpt>
<trkpt lat="55.831795" lon="26.197813">
<ele>172.595825</ele>
<time>2010-07-17T13:09:20Z</time>
<desc>lat.=55.831795, lon.=26.197813, Alt.=172.595825m. Speed=0.108000m/h.</desc>
<speed>0.030000</speed>
</trkpt>
<trkpt lat="55.831795" lon="26.197811">
<ele>172.627075</ele>
<time>2010-07-17T13:09:21Z</time>
<desc>lat.=55.831795, lon.=26.197811, Alt.=172.627075m. Speed=0.072000m/h.</desc>
<speed>0.020000</speed>
</trkpt>
<trkpt lat="55.831795" lon="26.197809">
<ele>172.662231</ele>
<time>2010-07-17T13:09:22Z</time>
<desc>lat.=55.831795, lon.=26.197809, Alt.=172.662231m. Speed=0.108000m/h.</desc>
<speed>0.030000</speed>
</trkpt>
<trkpt lat="55.831795" lon="26.197809">
<ele>172.697388</ele>
<time>2010-07-17T13:09:23Z</time>
<desc>lat.=55.831795, lon.=26.197809, Alt.=172.697388m. Speed=0.252000m/h.</desc>
<speed>0.070000</speed>
</trkpt>
<trkpt lat="55.831795" lon="26.197807">
<ele>172.740356</ele>
<time>2010-07-17T13:09:24Z</time>
<desc>lat.=55.831795, lon.=26.197807, Alt.=172.740356m. Speed=0.396000m/h.</desc>
<speed>0.110000</speed>
</trkpt>
<trkpt lat="55.831791" lon="26.197805">
<ele>172.783325</ele>
<time>2010-07-17T13:09:25Z</time>
<desc>lat.=55.831791, lon.=26.197805, Alt.=172.783325m. Speed=0.000000m/h.</desc>
<speed>0.000000</speed>
</trkpt>
<trkpt lat="55.831791" lon="26.197805">
<ele>172.806763</ele>
<time>2010-07-17T13:09:26Z</time>
<desc>lat.=55.831791, lon.=26.197805, Alt.=172.806763m. Speed=0.000000m/h.</desc>
<speed>0.000000</speed>
</trkpt>
<trkpt lat="55.831791" lon="26.197805">
<ele>172.810669</ele>
<time>2010-07-17T13:09:27Z</time>
<desc>lat.=55.831791, lon.=26.197805, Alt.=172.810669m. Speed=0.036000m/h.</desc>
<speed>0.010000</speed>
</trkpt>
<trkpt lat="55.831791" lon="26.197803">
<ele>172.810669</ele>
<time>2010-07-17T13:09:28Z</time>
<desc>lat.=55.831791, lon.=26.197803, Alt.=172.810669m. Speed=0.000000m/h.</desc>
<speed>0.000000</speed>
</trkpt>
<trkpt lat="55.831791" lon="26.197802">
<ele>172.814575</ele>
<time>2010-07-17T13:09:29Z</time>
<desc>lat.=55.831791, lon.=26.197802, Alt.=172.814575m. Speed=0.000000m/h.</desc>
<speed>0.000000</speed>
</trkpt>
<trkpt lat="55.831787" lon="26.197800">
<ele>172.814575</ele>
<time>2010-07-17T13:09:30Z</time>
<desc>lat.=55.831787, lon.=26.197800, Alt.=172.814575m. Speed=0.000000m/h.</desc>
<speed>0.000000</speed>
</trkpt>
<trkpt lat="55.831787" lon="26.197800">
<ele>172.818481</ele>
<time>2010-07-17T13:09:31Z</time>
<desc>lat.=55.831787, lon.=26.197800, Alt.=172.818481m. Speed=0.000000m/h.</desc>
<speed>0.000000</speed>
</trkpt>
<trkpt lat="55.831787" lon="26.197798">
<ele>172.818481</ele>
<time>2010-07-17T13:09:32Z</time>
<desc>lat.=55.831787, lon.=26.197798, Alt.=172.818481m. Speed=0.000000m/h.</desc>
<speed>0.000000</speed>
</trkpt>
<trkpt lat="55.831787" lon="26.197798">
<ele>172.822388</ele>
<time>2010-07-17T13:09:33Z</time>
<desc>lat.=55.831787, lon.=26.197798, Alt.=172.822388m. Speed=0.000000m/h.</desc>
<speed>0.000000</speed>
</trkpt>
<trkpt lat="55.831787" lon="26.197796">
<ele>172.822388</ele>
<time>2010-07-17T13:09:34Z</time>
<desc>lat.=55.831787, lon.=26.197796, Alt.=172.822388m. Speed=0.036000m/h.</desc>
<speed>0.010000</speed>
</trkpt>
<trkpt lat="55.831787" lon="26.197796">
<ele>172.826294</ele>
<time>2010-07-17T13:09:35Z</time>
<desc>lat.=55.831787, lon.=26.197796, Alt.=172.826294m. Speed=0.000000m/h.</desc>
<speed>0.000000</speed>
</trkpt>
<trkpt lat="55.831787" lon="26.197796">
<ele>172.826294</ele>
<time>2010-07-17T13:09:36Z</time>
<desc>lat.=55.831787, lon.=26.197796, Alt.=172.826294m. Speed=0.036000m/h.</desc>
<speed>0.010000</speed>
</trkpt>
<trkpt lat="55.831787" lon="26.197796">
<ele>172.822388</ele>
<time>2010-07-17T13:09:37Z</time>
<desc>lat.=55.831787, lon.=26.197796, Alt.=172.822388m. Speed=0.036000m/h.</desc>
<speed>0.010000</speed>
</trkpt>
<trkpt lat="55.831787" lon="26.197796">
<ele>172.818481</ele>
<time>2010-07-17T13:09:38Z</time>
<desc>lat.=55.831787, lon.=26.197796, Alt.=172.818481m. Speed=0.036000m/h.</desc>
<speed>0.010000</speed>
</trkpt>
<trkpt lat="55.831787" lon="26.197796">
<ele>172.810669</ele>
<time>2010-07-17T13:09:39Z</time>
<desc>lat.=55.831787, lon.=26.197796, Alt.=172.810669m. Speed=0.036000m/h.</desc>
<speed>0.010000</speed>
</trkpt>
<trkpt lat="55.831787" lon="26.197796">
<ele>172.802856</ele>
<time>2010-07-17T13:09:40Z</time>
<desc>lat.=55.831787, lon.=26.197796, Alt.=172.802856m. Speed=0.000000m/h.</desc>
<speed>0.000000</speed>
</trkpt>
<trkpt lat="55.831787" lon="26.197794">
<ele>172.798950</ele>
<time>2010-07-17T13:09:41Z</time>
<desc>lat.=55.831787, lon.=26.197794, Alt.=172.798950m. Speed=0.000000m/h.</desc>
<speed>0.000000</speed>
</trkpt>
<trkpt lat="55.831787" lon="26.197794">
<ele>172.791138</ele>
<time>2010-07-17T13:09:42Z</time>
<desc>lat.=55.831787, lon.=26.197794, Alt.=172.791138m. Speed=0.036000m/h.</desc>
<speed>0.010000</speed>
</trkpt>
<trkpt lat="55.831787" lon="26.197794">
<ele>172.787231</ele>
<time>2010-07-17T13:09:43Z</time>
<desc>lat.=55.831787, lon.=26.197794, Alt.=172.787231m. Speed=0.036000m/h.</desc>
<speed>0.010000</speed>
</trkpt>
<trkpt lat="55.831787" lon="26.197794">
<ele>172.783325</ele>
<time>2010-07-17T13:09:44Z</time>
<desc>lat.=55.831787, lon.=26.197794, Alt.=172.783325m. Speed=0.072000m/h.</desc>
<speed>0.020000</speed>
</trkpt>
<trkpt lat="55.831787" lon="26.197794">
<ele>172.779419</ele>
<time>2010-07-17T13:09:45Z</time>
<desc>lat.=55.831787, lon.=26.197794, Alt.=172.779419m. Speed=0.144000m/h.</desc>
<speed>0.040000</speed>
</trkpt>
<trkpt lat="55.831787" lon="26.197794">
<ele>172.775513</ele>
<time>2010-07-17T13:09:46Z</time>
<desc>lat.=55.831787, lon.=26.197794, Alt.=172.775513m. Speed=0.180000m/h.</desc>
<speed>0.050000</speed>
</trkpt>
<trkpt lat="55.831787" lon="26.197794">
<ele>172.771606</ele>
<time>2010-07-17T13:09:47Z</time>
<desc>lat.=55.831787, lon.=26.197794, Alt.=172.771606m. Speed=0.036000m/h.</desc>
<speed>0.010000</speed>
</trkpt>
<trkpt lat="55.831787" lon="26.197794">
<ele>172.767700</ele>
<time>2010-07-17T13:09:48Z</time>
<desc>lat.=55.831787, lon.=26.197794, Alt.=172.767700m. Speed=0.000000m/h.</desc>
<speed>0.000000</speed>
</trkpt>
<trkpt lat="55.831787" lon="26.197794">
<ele>172.759888</ele>
<time>2010-07-17T13:09:49Z</time>
<desc>lat.=55.831787, lon.=26.197794, Alt.=172.759888m. Speed=0.072000m/h.</desc>
<speed>0.020000</speed>
</trkpt>
<trkpt lat="55.831787" lon="26.197794">
<ele>172.755981</ele>
<time>2010-07-17T13:09:50Z</time>
<desc>lat.=55.831787, lon.=26.197794, Alt.=172.755981m. Speed=0.144000m/h.</desc>
<speed>0.040000</speed>
</trkpt>
<trkpt lat="55.831787" lon="26.197794">
<ele>172.748169</ele>
<time>2010-07-17T13:09:51Z</time>
<desc>lat.=55.831787, lon.=26.197794, Alt.=172.748169m. Speed=0.108000m/h.</desc>
<speed>0.030000</speed>
</trkpt>
<trkpt lat="55.831787" lon="26.197794">
<ele>172.744263</ele>
<time>2010-07-17T13:09:52Z</time>
<desc>lat.=55.831787, lon.=26.197794, Alt.=172.744263m. Speed=0.108000m/h.</desc>
<speed>0.030000</speed>
</trkpt>
<trkpt lat="55.831787" lon="26.197794">
<ele>172.736450</ele>
<time>2010-07-17T13:09:53Z</time>
<desc>lat.=55.831787, lon.=26.197794, Alt.=172.736450m. Speed=0.144000m/h.</desc>
<speed>0.040000</speed>
</trkpt>
<trkpt lat="55.831787" lon="26.197794">
<ele>172.732544</ele>
<time>2010-07-17T13:09:54Z</time>
<desc>lat.=55.831787, lon.=26.197794, Alt.=172.732544m. Speed=0.108000m/h.</desc>
<speed>0.030000</speed>
</trkpt>
<trkpt lat="55.831783" lon="26.197794">
<ele>172.728638</ele>
<time>2010-07-17T13:09:55Z</time>
<desc>lat.=55.831783, lon.=26.197794, Alt.=172.728638m. Speed=0.108000m/h.</desc>
<speed>0.030000</speed>
</trkpt>
<trkpt lat="55.831783" lon="26.197792">
<ele>172.724731</ele>
<time>2010-07-17T13:09:56Z</time>
<desc>lat.=55.831783, lon.=26.197792, Alt.=172.724731m. Speed=0.072000m/h.</desc>
<speed>0.020000</speed>
</trkpt>
<trkpt lat="55.831783" lon="26.197792">
<ele>172.720825</ele>
<time>2010-07-17T13:09:57Z</time>
<desc>lat.=55.831783, lon.=26.197792, Alt.=172.720825m. Speed=0.108000m/h.</desc>
<speed>0.030000</speed>
</trkpt>
<trkpt lat="55.831783" lon="26.197792">
<ele>172.716919</ele>
<time>2010-07-17T13:09:58Z</time>
<desc>lat.=55.831783, lon.=26.197792, Alt.=172.716919m. Speed=0.036000m/h.</desc>
<speed>0.010000</speed>
</trkpt>
<trkpt lat="55.831783" lon="26.197792">
<ele>172.713013</ele>
<time>2010-07-17T13:09:59Z</time>
<desc>lat.=55.831783, lon.=26.197792, Alt.=172.713013m. Speed=0.108000m/h.</desc>
<speed>0.030000</speed>
</trkpt>
<trkpt lat="55.831783" lon="26.197792">
<ele>172.709106</ele>
<time>2010-07-17T13:10:00Z</time>
<desc>lat.=55.831783, lon.=26.197792, Alt.=172.709106m. Speed=0.072000m/h.</desc>
<speed>0.020000</speed>
</trkpt>
<trkpt lat="55.831783" lon="26.197792">
<ele>172.709106</ele>
<time>2010-07-17T13:10:01Z</time>
<desc>lat.=55.831783, lon.=26.197792, Alt.=172.709106m. Speed=0.036000m/h.</desc>
<speed>0.010000</speed>
</trkpt>
<trkpt lat="55.831783" lon="26.197792">
<ele>172.705200</ele>
<time>2010-07-17T13:10:02Z</time>
<desc>lat.=55.831783, lon.=26.197792, Alt.=172.705200m. Speed=0.000000m/h.</desc>
<speed>0.000000</speed>
</trkpt>
<trkpt lat="55.831783" lon="26.197792">
<ele>172.697388</ele>
<time>2010-07-17T13:10:03Z</time>
<desc>lat.=55.831783, lon.=26.197792, Alt.=172.697388m. Speed=0.000000m/h.</desc>
<speed>0.000000</speed>
</trkpt>
<trkpt lat="55.831783" lon="26.197792">
<ele>172.689575</ele>
<time>2010-07-17T13:10:04Z</time>
<desc>lat.=55.831783, lon.=26.197792, Alt.=172.689575m. Speed=0.036000m/h.</desc>
<speed>0.010000</speed>
</trkpt>
<trkpt lat="55.831783" lon="26.197792">
<ele>172.685669</ele>
<time>2010-07-17T13:10:05Z</time>
<desc>lat.=55.831783, lon.=26.197792, Alt.=172.685669m. Speed=0.036000m/h.</desc>
<speed>0.010000</speed>
</trkpt>
<trkpt lat="55.831783" lon="26.197792">
<ele>172.677856</ele>
<time>2010-07-17T13:10:06Z</time>
<desc>lat.=55.831783, lon.=26.197792, Alt.=172.677856m. Speed=0.036000m/h.</desc>
<speed>0.010000</speed>
</trkpt>
<trkpt lat="55.831783" lon="26.197792">
<ele>172.670044</ele>
<time>2010-07-17T13:10:07Z</time>
<desc>lat.=55.831783, lon.=26.197792, Alt.=172.670044m. Speed=0.000000m/h.</desc>
<speed>0.000000</speed>
</trkpt>
<trkpt lat="55.831783" lon="26.197792">
<ele>172.662231</ele>
<time>2010-07-17T13:10:08Z</time>
<desc>lat.=55.831783, lon.=26.197792, Alt.=172.662231m. Speed=0.000000m/h.</desc>
<speed>0.000000</speed>
</trkpt>
<trkpt lat="55.831783" lon="26.197792">
<ele>172.654419</ele>
<time>2010-07-17T13:10:09Z</time>
<desc>lat.=55.831783, lon.=26.197792, Alt.=172.654419m. Speed=0.000000m/h.</desc>
<speed>0.000000</speed>
</trkpt>
<trkpt lat="55.831783" lon="26.197792">
<ele>172.642700</ele>
<time>2010-07-17T13:10:10Z</time>
<desc>lat.=55.831783, lon.=26.197792, Alt.=172.642700m. Speed=0.000000m/h.</desc>
<speed>0.000000</speed>
</trkpt>
<trkpt lat="55.831783" lon="26.197790">
<ele>172.627075</ele>
<time>2010-07-17T13:10:11Z</time>
<desc>lat.=55.831783, lon.=26.197790, Alt.=172.627075m. Speed=0.000000m/h.</desc>
<speed>0.000000</speed>
</trkpt>
<trkpt lat="55.831783" lon="26.197790">
<ele>172.619263</ele>
<time>2010-07-17T13:10:12Z</time>
<desc>lat.=55.831783, lon.=26.197790, Alt.=172.619263m. Speed=0.000000m/h.</desc>
<speed>0.000000</speed>
</trkpt>
<trkpt lat="55.831783" lon="26.197790">
<ele>172.607544</ele>
<time>2010-07-17T13:10:13Z</time>
<desc>lat.=55.831783, lon.=26.197790, Alt.=172.607544m. Speed=0.036000m/h.</desc>
<speed>0.010000</speed>
</trkpt>
<trkpt lat="55.831783" lon="26.197790">
<ele>172.595825</ele>
<time>2010-07-17T13:10:14Z</time>
<desc>lat.=55.831783, lon.=26.197790, Alt.=172.595825m. Speed=0.036000m/h.</desc>
<speed>0.010000</speed>
</trkpt>
<trkpt lat="55.831783" lon="26.197790">
<ele>172.584106</ele>
<time>2010-07-17T13:10:15Z</time>
<desc>lat.=55.831783, lon.=26.197790, Alt.=172.584106m. Speed=0.108000m/h.</desc>
<speed>0.030000</speed>
</trkpt>
<trkpt lat="55.831783" lon="26.197790">
<ele>172.572388</ele>
<time>2010-07-17T13:10:16Z</time>
<desc>lat.=55.831783, lon.=26.197790, Alt.=172.572388m. Speed=0.072000m/h.</desc>
<speed>0.020000</speed>
</trkpt>
<trkpt lat="55.831783" lon="26.197790">
<ele>172.556763</ele>
<time>2010-07-17T13:10:17Z</time>
<desc>lat.=55.831783, lon.=26.197790, Alt.=172.556763m. Speed=0.036000m/h.</desc>
<speed>0.010000</speed>
</trkpt>
<trkpt lat="55.831783" lon="26.197790">
<ele>172.545044</ele>
<time>2010-07-17T13:10:18Z</time>
<desc>lat.=55.831783, lon.=26.197790, Alt.=172.545044m. Speed=0.036000m/h.</desc>
<speed>0.010000</speed>
</trkpt>
<trkpt lat="55.831783" lon="26.197790">
<ele>172.533325</ele>
<time>2010-07-17T13:10:19Z</time>
<desc>lat.=55.831783, lon.=26.197790, Alt.=172.533325m. Speed=0.036000m/h.</desc>
<speed>0.010000</speed>
</trkpt>
<trkpt lat="55.831783" lon="26.197790">
<ele>172.517700</ele>
<time>2010-07-17T13:10:20Z</time>
<desc>lat.=55.831783, lon.=26.197790, Alt.=172.517700m. Speed=0.036000m/h.</desc>
<speed>0.010000</speed>
</trkpt>
<trkpt lat="55.831783" lon="26.197790">
<ele>172.505981</ele>
<time>2010-07-17T13:10:21Z</time>
<desc>lat.=55.831783, lon.=26.197790, Alt.=172.505981m. Speed=0.036000m/h.</desc>
<speed>0.010000</speed>
</trkpt>
<trkpt lat="55.831783" lon="26.197790">
<ele>172.502075</ele>
<time>2010-07-17T13:10:22Z</time>
<desc>lat.=55.831783, lon.=26.197790, Alt.=172.502075m. Speed=0.036000m/h.</desc>
<speed>0.010000</speed>
</trkpt>
<trkpt lat="55.831783" lon="26.197790">
<ele>172.494263</ele>
<time>2010-07-17T13:10:23Z</time>
<desc>lat.=55.831783, lon.=26.197790, Alt.=172.494263m. Speed=0.036000m/h.</desc>
<speed>0.010000</speed>
</trkpt>
<trkpt lat="55.831783" lon="26.197790">
<ele>172.490356</ele>
<time>2010-07-17T13:10:24Z</time>
<desc>lat.=55.831783, lon.=26.197790, Alt.=172.490356m. Speed=0.036000m/h.</desc>
<speed>0.010000</speed>
</trkpt>
<trkpt lat="55.831783" lon="26.197788">
<ele>172.490356</ele>
<time>2010-07-17T13:10:25Z</time>
<desc>lat.=55.831783, lon.=26.197788, Alt.=172.490356m. Speed=0.072000m/h.</desc>
<speed>0.020000</speed>
</trkpt>
<trkpt lat="55.831783" lon="26.197788">
<ele>172.490356</ele>
<time>2010-07-17T13:10:26Z</time>
<desc>lat.=55.831783, lon.=26.197788, Alt.=172.490356m. Speed=0.036000m/h.</desc>
<speed>0.010000</speed>
</trkpt>
<trkpt lat="55.831779" lon="26.197788">
<ele>172.482544</ele>
<time>2010-07-17T13:10:27Z</time>
<desc>lat.=55.831779, lon.=26.197788, Alt.=172.482544m. Speed=0.072000m/h.</desc>
<speed>0.020000</speed>
</trkpt>
<trkpt lat="55.831779" lon="26.197788">
<ele>172.482544</ele>
<time>2010-07-17T13:10:28Z</time>
<desc>lat.=55.831779, lon.=26.197788, Alt.=172.482544m. Speed=0.036000m/h.</desc>
<speed>0.010000</speed>
</trkpt>
<trkpt lat="55.831779" lon="26.197788">
<ele>172.486450</ele>
<time>2010-07-17T13:10:29Z</time>
<desc>lat.=55.831779, lon.=26.197788, Alt.=172.486450m. Speed=0.108000m/h.</desc>
<speed>0.030000</speed>
</trkpt>
<trkpt lat="55.831779" lon="26.197788">
<ele>172.486450</ele>
<time>2010-07-17T13:10:30Z</time>
<desc>lat.=55.831779, lon.=26.197788, Alt.=172.486450m. Speed=0.036000m/h.</desc>
<speed>0.010000</speed>
</trkpt>
<trkpt lat="55.831779" lon="26.197788">
<ele>172.486450</ele>
<time>2010-07-17T13:10:31Z</time>
<desc>lat.=55.831779, lon.=26.197788, Alt.=172.486450m. Speed=0.072000m/h.</desc>
<speed>0.020000</speed>
</trkpt>
<trkpt lat="55.831779" lon="26.197788">
<ele>172.486450</ele>
<time>2010-07-17T13:10:32Z</time>
<desc>lat.=55.831779, lon.=26.197788, Alt.=172.486450m. Speed=0.072000m/h.</desc>
<speed>0.020000</speed>
</trkpt>
<trkpt lat="55.831779" lon="26.197788">
<ele>172.490356</ele>
<time>2010-07-17T13:10:33Z</time>
<desc>lat.=55.831779, lon.=26.197788, Alt.=172.490356m. Speed=0.072000m/h.</desc>
<speed>0.020000</speed>
</trkpt>
<trkpt lat="55.831779" lon="26.197788">
<ele>172.490356</ele>
<time>2010-07-17T13:10:34Z</time>
<desc>lat.=55.831779, lon.=26.197788, Alt.=172.490356m. Speed=0.036000m/h.</desc>
<speed>0.010000</speed>
</trkpt>
<trkpt lat="55.831779" lon="26.197788">
<ele>172.494263</ele>
<time>2010-07-17T13:10:35Z</time>
<desc>lat.=55.831779, lon.=26.197788, Alt.=172.494263m. Speed=0.072000m/h.</desc>
<speed>0.020000</speed>
</trkpt>
<trkpt lat="55.831779" lon="26.197786">
<ele>172.498169</ele>
<time>2010-07-17T13:10:36Z</time>
<desc>lat.=55.831779, lon.=26.197786, Alt.=172.498169m. Speed=0.036000m/h.</desc>
<speed>0.010000</speed>
</trkpt>
<trkpt lat="55.831779" lon="26.197786">
<ele>172.498169</ele>
<time>2010-07-17T13:10:37Z</time>
<desc>lat.=55.831779, lon.=26.197786, Alt.=172.498169m. Speed=0.000000m/h.</desc>
<speed>0.000000</speed>
</trkpt>
<trkpt lat="55.831779" lon="26.197786">
<ele>172.502075</ele>
<time>2010-07-17T13:10:38Z</time>
<desc>lat.=55.831779, lon.=26.197786, Alt.=172.502075m. Speed=0.036000m/h.</desc>
<speed>0.010000</speed>
</trkpt>
<trkpt lat="55.831779" lon="26.197786">
<ele>172.505981</ele>
<time>2010-07-17T13:10:39Z</time>
<desc>lat.=55.831779, lon.=26.197786, Alt.=172.505981m. Speed=0.000000m/h.</desc>
<speed>0.000000</speed>
</trkpt>
<trkpt lat="55.831779" lon="26.197786">
<ele>172.513794</ele>
<time>2010-07-17T13:10:40Z</time>
<desc>lat.=55.831779, lon.=26.197786, Alt.=172.513794m. Speed=0.000000m/h.</desc>
<speed>0.000000</speed>
</trkpt>
<trkpt lat="55.831779" lon="26.197786">
<ele>172.521606</ele>
<time>2010-07-17T13:10:41Z</time>
<desc>lat.=55.831779, lon.=26.197786, Alt.=172.521606m. Speed=0.000000m/h.</desc>
<speed>0.000000</speed>
</trkpt>
<trkpt lat="55.831779" lon="26.197786">
<ele>172.529419</ele>
<time>2010-07-17T13:10:42Z</time>
<desc>lat.=55.831779, lon.=26.197786, Alt.=172.529419m. Speed=0.036000m/h.</desc>
<speed>0.010000</speed>
</trkpt>
<trkpt lat="55.831779" lon="26.197786">
<ele>172.537231</ele>
<time>2010-07-17T13:10:43Z</time>
<desc>lat.=55.831779, lon.=26.197786, Alt.=172.537231m. Speed=0.072000m/h.</desc>
<speed>0.020000</speed>
</trkpt>
<trkpt lat="55.831779" lon="26.197786">
<ele>172.548950</ele>
<time>2010-07-17T13:10:44Z</time>
<desc>lat.=55.831779, lon.=26.197786, Alt.=172.548950m. Speed=0.000000m/h.</desc>
<speed>0.000000</speed>
</trkpt>
<trkpt lat="55.831779" lon="26.197786">
<ele>172.560669</ele>
<time>2010-07-17T13:10:45Z</time>
<desc>lat.=55.831779, lon.=26.197786, Alt.=172.560669m. Speed=0.000000m/h.</desc>
<speed>0.000000</speed>
</trkpt>
<trkpt lat="55.831779" lon="26.197784">
<ele>172.576294</ele>
<time>2010-07-17T13:10:46Z</time>
<desc>lat.=55.831779, lon.=26.197784, Alt.=172.576294m. Speed=0.036000m/h.</desc>
<speed>0.010000</speed>
</trkpt>
<trkpt lat="55.831779" lon="26.197784">
<ele>172.591919</ele>
<time>2010-07-17T13:10:47Z</time>
<desc>lat.=55.831779, lon.=26.197784, Alt.=172.591919m. Speed=0.072000m/h.</desc>
<speed>0.020000</speed>
</trkpt>
<trkpt lat="55.831779" lon="26.197784">
<ele>172.607544</ele>
<time>2010-07-17T13:10:48Z</time>
<desc>lat.=55.831779, lon.=26.197784, Alt.=172.607544m. Speed=0.000000m/h.</desc>
<speed>0.000000</speed>
</trkpt>
<trkpt lat="55.831779" lon="26.197784">
<ele>172.627075</ele>
<time>2010-07-17T13:10:49Z</time>
<desc>lat.=55.831779, lon.=26.197784, Alt.=172.627075m. Speed=0.036000m/h.</desc>
<speed>0.010000</speed>
</trkpt>
<trkpt lat="55.831779" lon="26.197784">
<ele>172.646606</ele>
<time>2010-07-17T13:10:50Z</time>
<desc>lat.=55.831779, lon.=26.197784, Alt.=172.646606m. Speed=0.036000m/h.</desc>
<speed>0.010000</speed>
</trkpt>
<trkpt lat="55.831779" lon="26.197784">
<ele>172.670044</ele>
<time>2010-07-17T13:10:51Z</time>
<desc>lat.=55.831779, lon.=26.197784, Alt.=172.670044m. Speed=0.036000m/h.</desc>
<speed>0.010000</speed>
</trkpt>
<trkpt lat="55.831779" lon="26.197784">
<ele>172.697388</ele>
<time>2010-07-17T13:10:52Z</time>
<desc>lat.=55.831779, lon.=26.197784, Alt.=172.697388m. Speed=0.072000m/h.</desc>
<speed>0.020000</speed>
</trkpt>
<trkpt lat="55.831779" lon="26.197783">
<ele>172.720825</ele>
<time>2010-07-17T13:10:53Z</time>
<desc>lat.=55.831779, lon.=26.197783, Alt.=172.720825m. Speed=0.144000m/h.</desc>
<speed>0.040000</speed>
</trkpt>
<trkpt lat="55.831779" lon="26.197783">
<ele>172.740356</ele>
<time>2010-07-17T13:10:54Z</time>
<desc>lat.=55.831779, lon.=26.197783, Alt.=172.740356m. Speed=0.108000m/h.</desc>
<speed>0.030000</speed>
</trkpt>
<trkpt lat="55.831779" lon="26.197783">
<ele>172.767700</ele>
<time>2010-07-17T13:10:55Z</time>
<desc>lat.=55.831779, lon.=26.197783, Alt.=172.767700m. Speed=0.036000m/h.</desc>
<speed>0.010000</speed>
</trkpt>
<trkpt lat="55.831779" lon="26.197783">
<ele>172.791138</ele>
<time>2010-07-17T13:10:56Z</time>
<desc>lat.=55.831779, lon.=26.197783, Alt.=172.791138m. Speed=0.072000m/h.</desc>
<speed>0.020000</speed>
</trkpt>
<trkpt lat="55.831779" lon="26.197783">
<ele>172.814575</ele>
<time>2010-07-17T13:10:57Z</time>
<desc>lat.=55.831779, lon.=26.197783, Alt.=172.814575m. Speed=0.396000m/h.</desc>
<speed>0.110000</speed>
</trkpt>
<trkpt lat="55.831779" lon="26.197781">
<ele>172.841919</ele>
<time>2010-07-17T13:10:58Z</time>
<desc>lat.=55.831779, lon.=26.197781, Alt.=172.841919m. Speed=0.396000m/h.</desc>
<speed>0.110000</speed>
</trkpt>
<trkpt lat="55.831779" lon="26.197779">
<ele>172.873169</ele>
<time>2010-07-17T13:10:59Z</time>
<desc>lat.=55.831779, lon.=26.197779, Alt.=172.873169m. Speed=0.576000m/h.</desc>
<speed>0.160000</speed>
</trkpt>
<trkpt lat="55.831779" lon="26.197775">
<ele>172.896606</ele>
<time>2010-07-17T13:11:00Z</time>
<desc>lat.=55.831779, lon.=26.197775, Alt.=172.896606m. Speed=0.432000m/h.</desc>
<speed>0.120000</speed>
</trkpt>
<trkpt lat="55.831776" lon="26.197773">
<ele>172.927856</ele>
<time>2010-07-17T13:11:01Z</time>
<desc>lat.=55.831776, lon.=26.197773, Alt.=172.927856m. Speed=0.468000m/h.</desc>
<speed>0.130000</speed>
</trkpt>
<trkpt lat="55.831776" lon="26.197773">
<ele>172.959106</ele>
<time>2010-07-17T13:11:02Z</time>
<desc>lat.=55.831776, lon.=26.197773, Alt.=172.959106m. Speed=0.540000m/h.</desc>
<speed>0.150000</speed>
</trkpt>
<trkpt lat="55.831776" lon="26.197771">
<ele>172.990356</ele>
<time>2010-07-17T13:11:03Z</time>
<desc>lat.=55.831776, lon.=26.197771, Alt.=172.990356m. Speed=1.764000m/h.</desc>
<speed>0.490000</speed>
</trkpt>
<trkpt lat="55.831768" lon="26.197767">
<ele>173.072388</ele>
<time>2010-07-17T13:11:04Z</time>
<desc>lat.=55.831768, lon.=26.197767, Alt.=173.072388m. Speed=3.528000m/h.</desc>
<speed>0.980000</speed>
</trkpt>
<trkpt lat="55.831760" lon="26.197769">
<ele>173.115356</ele>
<time>2010-07-17T13:11:05Z</time>
<desc>lat.=55.831760, lon.=26.197769, Alt.=173.115356m. Speed=3.564000m/h.</desc>
<speed>0.990000</speed>
</trkpt>
<trkpt lat="55.831749" lon="26.197769">
<ele>173.158325</ele>
<time>2010-07-17T13:11:06Z</time>
<desc>lat.=55.831749, lon.=26.197769, Alt.=173.158325m. Speed=3.132000m/h.</desc>
<speed>0.870000</speed>
</trkpt>
<trkpt lat="55.831741" lon="26.197763">
<ele>173.533325</ele>
<time>2010-07-17T13:11:07Z</time>
<desc>lat.=55.831741, lon.=26.197763, Alt.=173.533325m. Speed=3.132000m/h.</desc>
<speed>0.870000</speed>
</trkpt>
<trkpt lat="55.831730" lon="26.197760">
<ele>173.713013</ele>
<time>2010-07-17T13:11:08Z</time>
<desc>lat.=55.831730, lon.=26.197760, Alt.=173.713013m. Speed=2.988000m/h.</desc>
<speed>0.830000</speed>
</trkpt>
<trkpt lat="55.831711" lon="26.197731">
<ele>174.173950</ele>
<time>2010-07-17T13:11:09Z</time>
<desc>lat.=55.831711, lon.=26.197731, Alt.=174.173950m. Speed=3.384000m/h.</desc>
<speed>0.940000</speed>
</trkpt>
<trkpt lat="55.831696" lon="26.197725">
<ele>174.158325</ele>
<time>2010-07-17T13:11:10Z</time>
<desc>lat.=55.831696, lon.=26.197725, Alt.=174.158325m. Speed=3.960000m/h.</desc>
<speed>1.100000</speed>
</trkpt>
<trkpt lat="55.831688" lon="26.197718">
<ele>174.295044</ele>
<time>2010-07-17T13:11:11Z</time>
<desc>lat.=55.831688, lon.=26.197718, Alt.=174.295044m. Speed=3.960000m/h.</desc>
<speed>1.100000</speed>
</trkpt>
<trkpt lat="55.831680" lon="26.197721">
<ele>174.373169</ele>
<time>2010-07-17T13:11:12Z</time>
<desc>lat.=55.831680, lon.=26.197721, Alt.=174.373169m. Speed=3.168000m/h.</desc>
<speed>0.880000</speed>
</trkpt>
<trkpt lat="55.831657" lon="26.197737">
<ele>174.521606</ele>
<time>2010-07-17T13:11:13Z</time>
<desc>lat.=55.831657, lon.=26.197737, Alt.=174.521606m. Speed=4.896000m/h.</desc>
<speed>1.360000</speed>
</trkpt>
<trkpt lat="55.831650" lon="26.197739">
<ele>174.670044</ele>
<time>2010-07-17T13:11:14Z</time>
<desc>lat.=55.831650, lon.=26.197739, Alt.=174.670044m. Speed=4.644000m/h.</desc>
<speed>1.290000</speed>
</trkpt>
<trkpt lat="55.831642" lon="26.197741">
<ele>174.752075</ele>
<time>2010-07-17T13:11:15Z</time>
<desc>lat.=55.831642, lon.=26.197741, Alt.=174.752075m. Speed=4.428000m/h.</desc>
<speed>1.230000</speed>
</trkpt>
<trkpt lat="55.831623" lon="26.197737">
<ele>174.908325</ele>
<time>2010-07-17T13:11:16Z</time>
<desc>lat.=55.831623, lon.=26.197737, Alt.=174.908325m. Speed=4.680000m/h.</desc>
<speed>1.300000</speed>
</trkpt>
<trkpt lat="55.831581" lon="26.197771">
<ele>174.931763</ele>
<time>2010-07-17T13:11:17Z</time>
<desc>lat.=55.831581, lon.=26.197771, Alt.=174.931763m. Speed=9.828000m/h.</desc>
<speed>2.730000</speed>
</trkpt>
<trkpt lat="55.831558" lon="26.197783">
<ele>175.021606</ele>
<time>2010-07-17T13:11:18Z</time>
<desc>lat.=55.831558, lon.=26.197783, Alt.=175.021606m. Speed=10.260000m/h.</desc>
<speed>2.850000</speed>
</trkpt>
<trkpt lat="55.831524" lon="26.197758">
<ele>175.384888</ele>
<time>2010-07-17T13:11:19Z</time>
<desc>lat.=55.831524, lon.=26.197758, Alt.=175.384888m. Speed=14.256000m/h.</desc>
<speed>3.960000</speed>
</trkpt>
<trkpt lat="55.831493" lon="26.197756">
<ele>175.658325</ele>
<time>2010-07-17T13:11:20Z</time>
<desc>lat.=55.831493, lon.=26.197756, Alt.=175.658325m. Speed=9.612000m/h.</desc>
<speed>2.670000</speed>
</trkpt>
<trkpt lat="55.831474" lon="26.197739">
<ele>175.904419</ele>
<time>2010-07-17T13:11:21Z</time>
<desc>lat.=55.831474, lon.=26.197739, Alt.=175.904419m. Speed=10.800000m/h.</desc>
<speed>3.000000</speed>
</trkpt>
<trkpt lat="55.831448" lon="26.197727">
<ele>176.275513</ele>
<time>2010-07-17T13:11:22Z</time>
<desc>lat.=55.831448, lon.=26.197727, Alt.=176.275513m. Speed=9.540000m/h.</desc>
<speed>2.650000</speed>
</trkpt>
<trkpt lat="55.831429" lon="26.197712">
<ele>176.935669</ele>
<time>2010-07-17T13:11:23Z</time>
<desc>lat.=55.831429, lon.=26.197712, Alt.=176.935669m. Speed=9.396000m/h.</desc>
<speed>2.610000</speed>
</trkpt>
<trkpt lat="55.831417" lon="26.197699">
<ele>177.638794</ele>
<time>2010-07-17T13:11:24Z</time>
<desc>lat.=55.831417, lon.=26.197699, Alt.=177.638794m. Speed=5.796000m/h.</desc>
<speed>1.610000</speed>
</trkpt>
<trkpt lat="55.831409" lon="26.197685">
<ele>178.341919</ele>
<time>2010-07-17T13:11:25Z</time>
<desc>lat.=55.831409, lon.=26.197685, Alt.=178.341919m. Speed=3.204000m/h.</desc>
<speed>0.890000</speed>
</trkpt>
<trkpt lat="55.831406" lon="26.197670">
<ele>179.002075</ele>
<time>2010-07-17T13:11:26Z</time>
<desc>lat.=55.831406, lon.=26.197670, Alt.=179.002075m. Speed=3.348000m/h.</desc>
<speed>0.930000</speed>
</trkpt>
<trkpt lat="55.831398" lon="26.197649">
<ele>179.646606</ele>
<time>2010-07-17T13:11:27Z</time>
<desc>lat.=55.831398, lon.=26.197649, Alt.=179.646606m. Speed=4.068000m/h.</desc>
<speed>1.130000</speed>
</trkpt>
<trkpt lat="55.831387" lon="26.197613">
<ele>180.279419</ele>
<time>2010-07-17T13:11:28Z</time>
<desc>lat.=55.831387, lon.=26.197613, Alt.=180.279419m. Speed=6.840000m/h.</desc>
<speed>1.900000</speed>
</trkpt>
<trkpt lat="55.831394" lon="26.197578">
<ele>180.869263</ele>
<time>2010-07-17T13:11:29Z</time>
<desc>lat.=55.831394, lon.=26.197578, Alt.=180.869263m. Speed=5.148000m/h.</desc>
<speed>1.430000</speed>
</trkpt>
<trkpt lat="55.831394" lon="26.197546">
<ele>180.970825</ele>
<time>2010-07-17T13:11:30Z</time>
<desc>lat.=55.831394, lon.=26.197546, Alt.=180.970825m. Speed=4.428000m/h.</desc>
<speed>1.230000</speed>
</trkpt>
<trkpt lat="55.831387" lon="26.197514">
<ele>181.482544</ele>
<time>2010-07-17T13:11:31Z</time>
<desc>lat.=55.831387, lon.=26.197514, Alt.=181.482544m. Speed=5.472000m/h.</desc>
<speed>1.520000</speed>
</trkpt>
<trkpt lat="55.831383" lon="26.197485">
<ele>181.970825</ele>
<time>2010-07-17T13:11:32Z</time>
<desc>lat.=55.831383, lon.=26.197485, Alt.=181.970825m. Speed=4.608000m/h.</desc>
<speed>1.280000</speed>
</trkpt>
<trkpt lat="55.831375" lon="26.197445">
<ele>182.435669</ele>
<time>2010-07-17T13:11:33Z</time>
<desc>lat.=55.831375, lon.=26.197445, Alt.=182.435669m. Speed=6.300000m/h.</desc>
<speed>1.750000</speed>
</trkpt>
<trkpt lat="55.831375" lon="26.197407">
<ele>182.880981</ele>
<time>2010-07-17T13:11:34Z</time>
<desc>lat.=55.831375, lon.=26.197407, Alt.=182.880981m. Speed=4.896000m/h.</desc>
<speed>1.360000</speed>
</trkpt>
<trkpt lat="55.831360" lon="26.197369">
<ele>183.384888</ele>
<time>2010-07-17T13:11:35Z</time>
<desc>lat.=55.831360, lon.=26.197369, Alt.=183.384888m. Speed=5.364000m/h.</desc>
<speed>1.490000</speed>
</trkpt>
<trkpt lat="55.831341" lon="26.197346">
<ele>183.826294</ele>
<time>2010-07-17T13:11:36Z</time>
<desc>lat.=55.831341, lon.=26.197346, Alt.=183.826294m. Speed=6.732000m/h.</desc>
<speed>1.870000</speed>
</trkpt>
<trkpt lat="55.831318" lon="26.197313">
<ele>184.431763</ele>
<time>2010-07-17T13:11:37Z</time>
<desc>lat.=55.831318, lon.=26.197313, Alt.=184.431763m. Speed=6.156000m/h.</desc>
<speed>1.710000</speed>
</trkpt>
<trkpt lat="55.831287" lon="26.197269">
<ele>185.365356</ele>
<time>2010-07-17T13:11:38Z</time>
<desc>lat.=55.831287, lon.=26.197269, Alt.=185.365356m. Speed=7.848000m/h.</desc>
<speed>2.180000</speed>
</trkpt>
<trkpt lat="55.831249" lon="26.197210">
<ele>185.802856</ele>
<time>2010-07-17T13:11:39Z</time>
<desc>lat.=55.831249, lon.=26.197210, Alt.=185.802856m. Speed=8.604000m/h.</desc>
<speed>2.390000</speed>
</trkpt>
<trkpt lat="55.831219" lon="26.197170">
<ele>186.361450</ele>
<time>2010-07-17T13:11:40Z</time>
<desc>lat.=55.831219, lon.=26.197170, Alt.=186.361450m. Speed=9.180000m/h.</desc>
<speed>2.550000</speed>
</trkpt>
<trkpt lat="55.831188" lon="26.197155">
<ele>186.834106</ele>
<time>2010-07-17T13:11:41Z</time>
<desc>lat.=55.831188, lon.=26.197155, Alt.=186.834106m. Speed=8.532000m/h.</desc>
<speed>2.370000</speed>
</trkpt>
<trkpt lat="55.831161" lon="26.197121">
<ele>187.525513</ele>
<time>2010-07-17T13:11:42Z</time>
<desc>lat.=55.831161, lon.=26.197121, Alt.=187.525513m. Speed=9.072000m/h.</desc>
<speed>2.520000</speed>
</trkpt>
<trkpt lat="55.831123" lon="26.197027">
<ele>188.505981</ele>
<time>2010-07-17T13:11:43Z</time>
<desc>lat.=55.831123, lon.=26.197027, Alt.=188.505981m. Speed=8.280000m/h.</desc>
<speed>2.300000</speed>
</trkpt>
<trkpt lat="55.831100" lon="26.197016">
<ele>189.259888</ele>
<time>2010-07-17T13:11:44Z</time>
<desc>lat.=55.831100, lon.=26.197016, Alt.=189.259888m. Speed=8.928000m/h.</desc>
<speed>2.480000</speed>
</trkpt>
<trkpt lat="55.831078" lon="26.197006">
<ele>190.048950</ele>
<time>2010-07-17T13:11:45Z</time>
<desc>lat.=55.831078, lon.=26.197006, Alt.=190.048950m. Speed=8.352000m/h.</desc>
<speed>2.320000</speed>
</trkpt>
<trkpt lat="55.831055" lon="26.196980">
<ele>190.685669</ele>
<time>2010-07-17T13:11:46Z</time>
<desc>lat.=55.831055, lon.=26.196980, Alt.=190.685669m. Speed=7.164000m/h.</desc>
<speed>1.990000</speed>
</trkpt>
<trkpt lat="55.831005" lon="26.196901">
<ele>191.611450</ele>
<time>2010-07-17T13:11:47Z</time>
<desc>lat.=55.831005, lon.=26.196901, Alt.=191.611450m. Speed=6.372000m/h.</desc>
<speed>1.770000</speed>
</trkpt>
<trkpt lat="55.830975" lon="26.196884">
<ele>192.236450</ele>
<time>2010-07-17T13:11:48Z</time>
<desc>lat.=55.830975, lon.=26.196884, Alt.=192.236450m. Speed=5.652000m/h.</desc>
<speed>1.570000</speed>
</trkpt>
<trkpt lat="55.830933" lon="26.196888">
<ele>192.994263</ele>
<time>2010-07-17T13:11:49Z</time>
<desc>lat.=55.830933, lon.=26.196888, Alt.=192.994263m. Speed=10.584000m/h.</desc>
<speed>2.940000</speed>
</trkpt>
<trkpt lat="55.830887" lon="26.196869">
<ele>193.150513</ele>
<time>2010-07-17T13:11:50Z</time>
<desc>lat.=55.830887, lon.=26.196869, Alt.=193.150513m. Speed=10.116000m/h.</desc>
<speed>2.810000</speed>
</trkpt>
<trkpt lat="55.830837" lon="26.196869">
<ele>193.283325</ele>
<time>2010-07-17T13:11:51Z</time>
<desc>lat.=55.830837, lon.=26.196869, Alt.=193.283325m. Speed=10.440000m/h.</desc>
<speed>2.900000</speed>
</trkpt>
<trkpt lat="55.830784" lon="26.196850">
<ele>194.334106</ele>
<time>2010-07-17T13:11:52Z</time>
<desc>lat.=55.830784, lon.=26.196850, Alt.=194.334106m. Speed=11.628000m/h.</desc>
<speed>3.230000</speed>
</trkpt>
<trkpt lat="55.830692" lon="26.196836">
<ele>194.021606</ele>
<time>2010-07-17T13:11:53Z</time>
<desc>lat.=55.830692, lon.=26.196836, Alt.=194.021606m. Speed=18.648001m/h.</desc>
<speed>5.180000</speed>
</trkpt>
<trkpt lat="55.830631" lon="26.196819">
<ele>194.318481</ele>
<time>2010-07-17T13:11:54Z</time>
<desc>lat.=55.830631, lon.=26.196819, Alt.=194.318481m. Speed=19.799999m/h.</desc>
<speed>5.500000</speed>
</trkpt>
<trkpt lat="55.830585" lon="26.196810">
<ele>194.783325</ele>
<time>2010-07-17T13:11:55Z</time>
<desc>lat.=55.830585, lon.=26.196810, Alt.=194.783325m. Speed=14.148000m/h.</desc>
<speed>3.930000</speed>
</trkpt>
<trkpt lat="55.830555" lon="26.196798">
<ele>195.326294</ele>
<time>2010-07-17T13:11:56Z</time>
<desc>lat.=55.830555, lon.=26.196798, Alt.=195.326294m. Speed=7.884000m/h.</desc>
<speed>2.190000</speed>
</trkpt>
<trkpt lat="55.830532" lon="26.196783">
<ele>195.591919</ele>
<time>2010-07-17T13:11:57Z</time>
<desc>lat.=55.830532, lon.=26.196783, Alt.=195.591919m. Speed=6.264000m/h.</desc>
<speed>1.740000</speed>
</trkpt>
<trkpt lat="55.830513" lon="26.196774">
<ele>196.115356</ele>
<time>2010-07-17T13:11:58Z</time>
<desc>lat.=55.830513, lon.=26.196774, Alt.=196.115356m. Speed=5.940000m/h.</desc>
<speed>1.650000</speed>
</trkpt>
<trkpt lat="55.830482" lon="26.196756">
<ele>196.498169</ele>
<time>2010-07-17T13:11:59Z</time>
<desc>lat.=55.830482, lon.=26.196756, Alt.=196.498169m. Speed=8.532000m/h.</desc>
<speed>2.370000</speed>
</trkpt>
<trkpt lat="55.830452" lon="26.196751">
<ele>197.068481</ele>
<time>2010-07-17T13:12:00Z</time>
<desc>lat.=55.830452, lon.=26.196751, Alt.=197.068481m. Speed=8.100000m/h.</desc>
<speed>2.250000</speed>
</trkpt>
<trkpt lat="55.830418" lon="26.196745">
<ele>197.681763</ele>
<time>2010-07-17T13:12:01Z</time>
<desc>lat.=55.830418, lon.=26.196745, Alt.=197.681763m. Speed=7.632000m/h.</desc>
<speed>2.120000</speed>
</trkpt>
<trkpt lat="55.830379" lon="26.196747">
<ele>198.244263</ele>
<time>2010-07-17T13:12:02Z</time>
<desc>lat.=55.830379, lon.=26.196747, Alt.=198.244263m. Speed=12.384000m/h.</desc>
<speed>3.440000</speed>
</trkpt>
<trkpt lat="55.830349" lon="26.196760">
<ele>198.759888</ele>
<time>2010-07-17T13:12:03Z</time>
<desc>lat.=55.830349, lon.=26.196760, Alt.=198.759888m. Speed=9.540000m/h.</desc>
<speed>2.650000</speed>
</trkpt>
<trkpt lat="55.830296" lon="26.196756">
<ele>199.080200</ele>
<time>2010-07-17T13:12:04Z</time>
<desc>lat.=55.830296, lon.=26.196756, Alt.=199.080200m. Speed=10.260000m/h.</desc>
<speed>2.850000</speed>
</trkpt>
<trkpt lat="55.830265" lon="26.196756">
<ele>199.322388</ele>
<time>2010-07-17T13:12:05Z</time>
<desc>lat.=55.830265, lon.=26.196756, Alt.=199.322388m. Speed=9.648000m/h.</desc>
<speed>2.680000</speed>
</trkpt>
<trkpt lat="55.830212" lon="26.196733">
<ele>199.701294</ele>
<time>2010-07-17T13:12:06Z</time>
<desc>lat.=55.830212, lon.=26.196733, Alt.=199.701294m. Speed=7.344000m/h.</desc>
<speed>2.040000</speed>
</trkpt>
<trkpt lat="55.830170" lon="26.196730">
<ele>200.396606</ele>
<time>2010-07-17T13:12:07Z</time>
<desc>lat.=55.830170, lon.=26.196730, Alt.=200.396606m. Speed=7.272000m/h.</desc>
<speed>2.020000</speed>
</trkpt>
<trkpt lat="55.830135" lon="26.196724">
<ele>201.146606</ele>
<time>2010-07-17T13:12:08Z</time>
<desc>lat.=55.830135, lon.=26.196724, Alt.=201.146606m. Speed=8.748000m/h.</desc>
<speed>2.430000</speed>
</trkpt>
<trkpt lat="55.830101" lon="26.196711">
<ele>201.334106</ele>
<time>2010-07-17T13:12:09Z</time>
<desc>lat.=55.830101, lon.=26.196711, Alt.=201.334106m. Speed=8.280000m/h.</desc>
<speed>2.300000</speed>
</trkpt>
<trkpt lat="55.830063" lon="26.196699">
<ele>201.982544</ele>
<time>2010-07-17T13:12:10Z</time>
<desc>lat.=55.830063, lon.=26.196699, Alt.=201.982544m. Speed=8.100000m/h.</desc>
<speed>2.250000</speed>
</trkpt>
<trkpt lat="55.830032" lon="26.196701">
<ele>202.490356</ele>
<time>2010-07-17T13:12:11Z</time>
<desc>lat.=55.830032, lon.=26.196701, Alt.=202.490356m. Speed=7.092000m/h.</desc>
<speed>1.970000</speed>
</trkpt>
<trkpt lat="55.829990" lon="26.196701">
<ele>203.142700</ele>
<time>2010-07-17T13:12:12Z</time>
<desc>lat.=55.829990, lon.=26.196701, Alt.=203.142700m. Speed=6.372000m/h.</desc>
<speed>1.770000</speed>
</trkpt>
<trkpt lat="55.829956" lon="26.196692">
<ele>203.498169</ele>
<time>2010-07-17T13:12:13Z</time>
<desc>lat.=55.829956, lon.=26.196692, Alt.=203.498169m. Speed=7.524000m/h.</desc>
<speed>2.090000</speed>
</trkpt>
<trkpt lat="55.829922" lon="26.196676">
<ele>204.463013</ele>
<time>2010-07-17T13:12:14Z</time>
<desc>lat.=55.829922, lon.=26.196676, Alt.=204.463013m. Speed=6.264000m/h.</desc>
<speed>1.740000</speed>
</trkpt>
<trkpt lat="55.829884" lon="26.196684">
<ele>204.740356</ele>
<time>2010-07-17T13:12:15Z</time>
<desc>lat.=55.829884, lon.=26.196684, Alt.=204.740356m. Speed=10.944000m/h.</desc>
<speed>3.040000</speed>
</trkpt>
<trkpt lat="55.829819" lon="26.196680">
<ele>204.814575</ele>
<time>2010-07-17T13:12:16Z</time>
<desc>lat.=55.829819, lon.=26.196680, Alt.=204.814575m. Speed=7.848000m/h.</desc>
<speed>2.180000</speed>
</trkpt>
<trkpt lat="55.829777" lon="26.196686">
<ele>204.392700</ele>
<time>2010-07-17T13:12:17Z</time>
<desc>lat.=55.829777, lon.=26.196686, Alt.=204.392700m. Speed=5.832000m/h.</desc>
<speed>1.620000</speed>
</trkpt>
<trkpt lat="55.829746" lon="26.196692">
<ele>205.392700</ele>
<time>2010-07-17T13:12:18Z</time>
<desc>lat.=55.829746, lon.=26.196692, Alt.=205.392700m. Speed=8.676000m/h.</desc>
<speed>2.410000</speed>
</trkpt>
<trkpt lat="55.829704" lon="26.196693">
<ele>206.158325</ele>
<time>2010-07-17T13:12:19Z</time>
<desc>lat.=55.829704, lon.=26.196693, Alt.=206.158325m. Speed=10.044000m/h.</desc>
<speed>2.790000</speed>
</trkpt>
<trkpt lat="55.829662" lon="26.196709">
<ele>206.474731</ele>
<time>2010-07-17T13:12:20Z</time>
<desc>lat.=55.829662, lon.=26.196709, Alt.=206.474731m. Speed=12.168000m/h.</desc>
<speed>3.380000</speed>
</trkpt>
<trkpt lat="55.829605" lon="26.196712">
<ele>207.283325</ele>
<time>2010-07-17T13:12:21Z</time>
<desc>lat.=55.829605, lon.=26.196712, Alt.=207.283325m. Speed=13.284000m/h.</desc>
<speed>3.690000</speed>
</trkpt>
<trkpt lat="55.829548" lon="26.196722">
<ele>208.697388</ele>
<time>2010-07-17T13:12:22Z</time>
<desc>lat.=55.829548, lon.=26.196722, Alt.=208.697388m. Speed=12.816000m/h.</desc>
<speed>3.560000</speed>
</trkpt>
<trkpt lat="55.829498" lon="26.196720">
<ele>209.107544</ele>
<time>2010-07-17T13:12:23Z</time>
<desc>lat.=55.829498, lon.=26.196720, Alt.=209.107544m. Speed=14.580000m/h.</desc>
<speed>4.050000</speed>
</trkpt>
<trkpt lat="55.829449" lon="26.196722">
<ele>209.580200</ele>
<time>2010-07-17T13:12:24Z</time>
<desc>lat.=55.829449, lon.=26.196722, Alt.=209.580200m. Speed=14.112000m/h.</desc>
<speed>3.920000</speed>
</trkpt>
<trkpt lat="55.829399" lon="26.196720">
<ele>210.267700</ele>
<time>2010-07-17T13:12:25Z</time>
<desc>lat.=55.829399, lon.=26.196720, Alt.=210.267700m. Speed=13.032000m/h.</desc>
<speed>3.620000</speed>
</trkpt>
<trkpt lat="55.829350" lon="26.196711">
<ele>210.927856</ele>
<time>2010-07-17T13:12:26Z</time>
<desc>lat.=55.829350, lon.=26.196711, Alt.=210.927856m. Speed=7.956000m/h.</desc>
<speed>2.210000</speed>
</trkpt>
<trkpt lat="55.829304" lon="26.196697">
<ele>211.529419</ele>
<time>2010-07-17T13:12:27Z</time>
<desc>lat.=55.829304, lon.=26.196697, Alt.=211.529419m. Speed=7.992000m/h.</desc>
<speed>2.220000</speed>
</trkpt>
<trkpt lat="55.829269" lon="26.196693">
<ele>212.134888</ele>
<time>2010-07-17T13:12:28Z</time>
<desc>lat.=55.829269, lon.=26.196693, Alt.=212.134888m. Speed=12.024000m/h.</desc>
<speed>3.340000</speed>
</trkpt>
<trkpt lat="55.829243" lon="26.196688">
<ele>212.685669</ele>
<time>2010-07-17T13:12:29Z</time>
<desc>lat.=55.829243, lon.=26.196688, Alt.=212.685669m. Speed=7.992000m/h.</desc>
<speed>2.220000</speed>
</trkpt>
<trkpt lat="55.829220" lon="26.196671">
<ele>213.287231</ele>
<time>2010-07-17T13:12:30Z</time>
<desc>lat.=55.829220, lon.=26.196671, Alt.=213.287231m. Speed=4.968000m/h.</desc>
<speed>1.380000</speed>
</trkpt>
<trkpt lat="55.829205" lon="26.196653">
<ele>212.353638</ele>
<time>2010-07-17T13:12:31Z</time>
<desc>lat.=55.829205, lon.=26.196653, Alt.=212.353638m. Speed=4.140000m/h.</desc>
<speed>1.150000</speed>
</trkpt>
<trkpt lat="55.829189" lon="26.196629">
<ele>212.853638</ele>
<time>2010-07-17T13:12:32Z</time>
<desc>lat.=55.829189, lon.=26.196629, Alt.=212.853638m. Speed=6.444000m/h.</desc>
<speed>1.790000</speed>
</trkpt>
<trkpt lat="55.829185" lon="26.196602">
<ele>213.505981</ele>
<time>2010-07-17T13:12:33Z</time>
<desc>lat.=55.829185, lon.=26.196602, Alt.=213.505981m. Speed=15.660000m/h.</desc>
<speed>4.350000</speed>
</trkpt>
<trkpt lat="55.829170" lon="26.196535">
<ele>213.638794</ele>
<time>2010-07-17T13:12:34Z</time>
<desc>lat.=55.829170, lon.=26.196535, Alt.=213.638794m. Speed=11.628000m/h.</desc>
<speed>3.230000</speed>
</trkpt>
<trkpt lat="55.829159" lon="26.196487">
<ele>213.732544</ele>
<time>2010-07-17T13:12:35Z</time>
<desc>lat.=55.829159, lon.=26.196487, Alt.=213.732544m. Speed=10.476000m/h.</desc>
<speed>2.910000</speed>
</trkpt>
<trkpt lat="55.829147" lon="26.196426">
<ele>213.677856</ele>
<time>2010-07-17T13:12:36Z</time>
<desc>lat.=55.829147, lon.=26.196426, Alt.=213.677856m. Speed=11.988000m/h.</desc>
<speed>3.330000</speed>
</trkpt>
<trkpt lat="55.829136" lon="26.196369">
<ele>213.666138</ele>
<time>2010-07-17T13:12:37Z</time>
<desc>lat.=55.829136, lon.=26.196369, Alt.=213.666138m. Speed=13.716000m/h.</desc>
<speed>3.810000</speed>
</trkpt>
<trkpt lat="55.829128" lon="26.196308">
<ele>214.068481</ele>
<time>2010-07-17T13:12:38Z</time>
<desc>lat.=55.829128, lon.=26.196308, Alt.=214.068481m. Speed=15.372000m/h.</desc>
<speed>4.270000</speed>
</trkpt>
<trkpt lat="55.829121" lon="26.196247">
<ele>214.572388</ele>
<time>2010-07-17T13:12:39Z</time>
<desc>lat.=55.829121, lon.=26.196247, Alt.=214.572388m. Speed=11.628000m/h.</desc>
<speed>3.230000</speed>
</trkpt>
<trkpt lat="55.829113" lon="26.196184">
<ele>214.689575</ele>
<time>2010-07-17T13:12:40Z</time>
<desc>lat.=55.829113, lon.=26.196184, Alt.=214.689575m. Speed=13.608000m/h.</desc>
<speed>3.780000</speed>
</trkpt>
<trkpt lat="55.829098" lon="26.196110">
<ele>215.162231</ele>
<time>2010-07-17T13:12:41Z</time>
<desc>lat.=55.829098, lon.=26.196110, Alt.=215.162231m. Speed=13.860000m/h.</desc>
<speed>3.850000</speed>
</trkpt>
<trkpt lat="55.829086" lon="26.196041">
<ele>214.818481</ele>
<time>2010-07-17T13:12:42Z</time>
<desc>lat.=55.829086, lon.=26.196041, Alt.=214.818481m. Speed=11.016000m/h.</desc>
<speed>3.060000</speed>
</trkpt>
<trkpt lat="55.829079" lon="26.196020">
<ele>214.545044</ele>
<time>2010-07-17T13:12:43Z</time>
<desc>lat.=55.829079, lon.=26.196020, Alt.=214.545044m. Speed=5.472000m/h.</desc>
<speed>1.520000</speed>
</trkpt>
<trkpt lat="55.829052" lon="26.195986">
<ele>213.205200</ele>
<time>2010-07-17T13:12:44Z</time>
<desc>lat.=55.829052, lon.=26.195986, Alt.=213.205200m. Speed=4.752000m/h.</desc>
<speed>1.320000</speed>
</trkpt>
<trkpt lat="55.829029" lon="26.195950">
<ele>213.787231</ele>
<time>2010-07-17T13:12:45Z</time>
<desc>lat.=55.829029, lon.=26.195950, Alt.=213.787231m. Speed=5.616000m/h.</desc>
<speed>1.560000</speed>
</trkpt>
<trkpt lat="55.829010" lon="26.195917">
<ele>214.052856</ele>
<time>2010-07-17T13:12:46Z</time>
<desc>lat.=55.829010, lon.=26.195917, Alt.=214.052856m. Speed=6.588000m/h.</desc>
<speed>1.830000</speed>
</trkpt>
<trkpt lat="55.828995" lon="26.195862">
<ele>214.396606</ele>
<time>2010-07-17T13:12:47Z</time>
<desc>lat.=55.828995, lon.=26.195862, Alt.=214.396606m. Speed=9.288000m/h.</desc>
<speed>2.580000</speed>
</trkpt>
<trkpt lat="55.828991" lon="26.195812">
<ele>214.826294</ele>
<time>2010-07-17T13:12:48Z</time>
<desc>lat.=55.828991, lon.=26.195812, Alt.=214.826294m. Speed=8.532000m/h.</desc>
<speed>2.370000</speed>
</trkpt>
<trkpt lat="55.828968" lon="26.195766">
<ele>214.720825</ele>
<time>2010-07-17T13:12:49Z</time>
<desc>lat.=55.828968, lon.=26.195766, Alt.=214.720825m. Speed=5.004000m/h.</desc>
<speed>1.390000</speed>
</trkpt>
<trkpt lat="55.828926" lon="26.195692">
<ele>213.666138</ele>
<time>2010-07-17T13:12:50Z</time>
<desc>lat.=55.828926, lon.=26.195692, Alt.=213.666138m. Speed=5.580000m/h.</desc>
<speed>1.550000</speed>
</trkpt>
<trkpt lat="55.828918" lon="26.195644">
<ele>213.966919</ele>
<time>2010-07-17T13:12:51Z</time>
<desc>lat.=55.828918, lon.=26.195644, Alt.=213.966919m. Speed=9.756000m/h.</desc>
<speed>2.710000</speed>
</trkpt>
<trkpt lat="55.828911" lon="26.195589">
<ele>214.048950</ele>
<time>2010-07-17T13:12:52Z</time>
<desc>lat.=55.828911, lon.=26.195589, Alt.=214.048950m. Speed=10.404000m/h.</desc>
<speed>2.890000</speed>
</trkpt>
<trkpt lat="55.828907" lon="26.195526">
<ele>213.869263</ele>
<time>2010-07-17T13:12:53Z</time>
<desc>lat.=55.828907, lon.=26.195526, Alt.=213.869263m. Speed=10.800000m/h.</desc>
<speed>3.000000</speed>
</trkpt>
<trkpt lat="55.828915" lon="26.195480">
<ele>213.029419</ele>
<time>2010-07-17T13:12:54Z</time>
<desc>lat.=55.828915, lon.=26.195480, Alt.=213.029419m. Speed=8.244000m/h.</desc>
<speed>2.290000</speed>
</trkpt>
<trkpt lat="55.828918" lon="26.195438">
<ele>212.642700</ele>
<time>2010-07-17T13:12:55Z</time>
<desc>lat.=55.828918, lon.=26.195438, Alt.=212.642700m. Speed=9.936000m/h.</desc>
<speed>2.760000</speed>
</trkpt>
<trkpt lat="55.828922" lon="26.195366">
<ele>211.341919</ele>
<time>2010-07-17T13:12:56Z</time>
<desc>lat.=55.828922, lon.=26.195366, Alt.=211.341919m. Speed=7.560000m/h.</desc>
<speed>2.100000</speed>
</trkpt>
<trkpt lat="55.828918" lon="26.195292">
<ele>210.509888</ele>
<time>2010-07-17T13:12:57Z</time>
<desc>lat.=55.828918, lon.=26.195292, Alt.=210.509888m. Speed=10.260000m/h.</desc>
<speed>2.850000</speed>
</trkpt>
<trkpt lat="55.828922" lon="26.195215">
<ele>210.552856</ele>
<time>2010-07-17T13:12:58Z</time>
<desc>lat.=55.828922, lon.=26.195215, Alt.=210.552856m. Speed=9.864000m/h.</desc>
<speed>2.740000</speed>
</trkpt>
<trkpt lat="55.828918" lon="26.195164">
<ele>209.181763</ele>
<time>2010-07-17T13:12:59Z</time>
<desc>lat.=55.828918, lon.=26.195164, Alt.=209.181763m. Speed=10.476000m/h.</desc>
<speed>2.910000</speed>
</trkpt>
<trkpt lat="55.828915" lon="26.195095">
<ele>208.455200</ele>
<time>2010-07-17T13:13:00Z</time>
<desc>lat.=55.828915, lon.=26.195095, Alt.=208.455200m. Speed=10.116000m/h.</desc>
<speed>2.810000</speed>
</trkpt>
<trkpt lat="55.828911" lon="26.195045">
<ele>208.365356</ele>
<time>2010-07-17T13:13:01Z</time>
<desc>lat.=55.828911, lon.=26.195045, Alt.=208.365356m. Speed=7.920000m/h.</desc>
<speed>2.200000</speed>
</trkpt>
<trkpt lat="55.828926" lon="26.195004">
<ele>208.416138</ele>
<time>2010-07-17T13:13:02Z</time>
<desc>lat.=55.828926, lon.=26.195004, Alt.=208.416138m. Speed=10.512000m/h.</desc>
<speed>2.920000</speed>
</trkpt>
<trkpt lat="55.828835" lon="26.194841">
<ele>204.388794</ele>
<time>2010-07-17T13:13:03Z</time>
<desc>lat.=55.828835, lon.=26.194841, Alt.=204.388794m. Speed=9.108000m/h.</desc>
<speed>2.530000</speed>
</trkpt>
<trkpt lat="55.828827" lon="26.194784">
<ele>203.326294</ele>
<time>2010-07-17T13:13:04Z</time>
<desc>lat.=55.828827, lon.=26.194784, Alt.=203.326294m. Speed=6.804000m/h.</desc>
<speed>1.890000</speed>
</trkpt>
<trkpt lat="55.828850" lon="26.194731">
<ele>201.892700</ele>
<time>2010-07-17T13:13:05Z</time>
<desc>lat.=55.828850, lon.=26.194731, Alt.=201.892700m. Speed=8.136000m/h.</desc>
<speed>2.260000</speed>
</trkpt>
<trkpt lat="55.828850" lon="26.194670">
<ele>201.068481</ele>
<time>2010-07-17T13:13:06Z</time>
<desc>lat.=55.828850, lon.=26.194670, Alt.=201.068481m. Speed=9.936000m/h.</desc>
<speed>2.760000</speed>
</trkpt>
<trkpt lat="55.828857" lon="26.194626">
<ele>200.119263</ele>
<time>2010-07-17T13:13:07Z</time>
<desc>lat.=55.828857, lon.=26.194626, Alt.=200.119263m. Speed=6.876000m/h.</desc>
<speed>1.910000</speed>
</trkpt>
<trkpt lat="55.828854" lon="26.194580">
<ele>199.306763</ele>
<time>2010-07-17T13:13:08Z</time>
<desc>lat.=55.828854, lon.=26.194580, Alt.=199.306763m. Speed=4.032000m/h.</desc>
<speed>1.120000</speed>
</trkpt>
<trkpt lat="55.828838" lon="26.194551">
<ele>197.017700</ele>
<time>2010-07-17T13:13:09Z</time>
<desc>lat.=55.828838, lon.=26.194551, Alt.=197.017700m. Speed=3.456000m/h.</desc>
<speed>0.960000</speed>
</trkpt>
<trkpt lat="55.828838" lon="26.194521">
<ele>196.615356</ele>
<time>2010-07-17T13:13:10Z</time>
<desc>lat.=55.828838, lon.=26.194521, Alt.=196.615356m. Speed=5.004000m/h.</desc>
<speed>1.390000</speed>
</trkpt>
<trkpt lat="55.828846" lon="26.194483">
<ele>196.736450</ele>
<time>2010-07-17T13:13:11Z</time>
<desc>lat.=55.828846, lon.=26.194483, Alt.=196.736450m. Speed=5.184000m/h.</desc>
<speed>1.440000</speed>
</trkpt>
<trkpt lat="55.828838" lon="26.194414">
<ele>197.017700</ele>
<time>2010-07-17T13:13:12Z</time>
<desc>lat.=55.828838, lon.=26.194414, Alt.=197.017700m. Speed=8.388000m/h.</desc>
<speed>2.330000</speed>
</trkpt>
<trkpt lat="55.828846" lon="26.194359">
<ele>196.818481</ele>
<time>2010-07-17T13:13:13Z</time>
<desc>lat.=55.828846, lon.=26.194359, Alt.=196.818481m. Speed=6.804000m/h.</desc>
<speed>1.890000</speed>
</trkpt>
<trkpt lat="55.828861" lon="26.194296">
<ele>196.517700</ele>
<time>2010-07-17T13:13:14Z</time>
<desc>lat.=55.828861, lon.=26.194296, Alt.=196.517700m. Speed=6.012000m/h.</desc>
<speed>1.670000</speed>
</trkpt>
<trkpt lat="55.828869" lon="26.194235">
<ele>196.806763</ele>
<time>2010-07-17T13:13:15Z</time>
<desc>lat.=55.828869, lon.=26.194235, Alt.=196.806763m. Speed=9.072000m/h.</desc>
<speed>2.520000</speed>
</trkpt>
<trkpt lat="55.828888" lon="26.194160">
<ele>196.373169</ele>
<time>2010-07-17T13:13:16Z</time>
<desc>lat.=55.828888, lon.=26.194160, Alt.=196.373169m. Speed=10.332000m/h.</desc>
<speed>2.870000</speed>
</trkpt>
<trkpt lat="55.828911" lon="26.194077">
<ele>196.099731</ele>
<time>2010-07-17T13:13:17Z</time>
<desc>lat.=55.828911, lon.=26.194077, Alt.=196.099731m. Speed=10.800000m/h.</desc>
<speed>3.000000</speed>
</trkpt>
<trkpt lat="55.828915" lon="26.194008">
<ele>196.963013</ele>
<time>2010-07-17T13:13:18Z</time>
<desc>lat.=55.828915, lon.=26.194008, Alt.=196.963013m. Speed=12.816000m/h.</desc>
<speed>3.560000</speed>
</trkpt>
<trkpt lat="55.828930" lon="26.193943">
<ele>196.990356</ele>
<time>2010-07-17T13:13:19Z</time>
<desc>lat.=55.828930, lon.=26.193943, Alt.=196.990356m. Speed=7.560000m/h.</desc>
<speed>2.100000</speed>
</trkpt>
<trkpt lat="55.828938" lon="26.193916">
<ele>197.880981</ele>
<time>2010-07-17T13:13:20Z</time>
<desc>lat.=55.828938, lon.=26.193916, Alt.=197.880981m. Speed=3.816000m/h.</desc>
<speed>1.060000</speed>
</trkpt>
<trkpt lat="55.828941" lon="26.193897">
<ele>197.978638</ele>
<time>2010-07-17T13:13:21Z</time>
<desc>lat.=55.828941, lon.=26.193897, Alt.=197.978638m. Speed=1.836000m/h.</desc>
<speed>0.510000</speed>
</trkpt>
<trkpt lat="55.828945" lon="26.193890">
<ele>197.963013</ele>
<time>2010-07-17T13:13:22Z</time>
<desc>lat.=55.828945, lon.=26.193890, Alt.=197.963013m. Speed=1.332000m/h.</desc>
<speed>0.370000</speed>
</trkpt>
<trkpt lat="55.828945" lon="26.193882">
<ele>198.232544</ele>
<time>2010-07-17T13:13:23Z</time>
<desc>lat.=55.828945, lon.=26.193882, Alt.=198.232544m. Speed=1.152000m/h.</desc>
<speed>0.320000</speed>
</trkpt>
<trkpt lat="55.828945" lon="26.193863">
<ele>198.521606</ele>
<time>2010-07-17T13:13:24Z</time>
<desc>lat.=55.828945, lon.=26.193863, Alt.=198.521606m. Speed=1.116000m/h.</desc>
<speed>0.310000</speed>
</trkpt>
<trkpt lat="55.828949" lon="26.193857">
<ele>198.963013</ele>
<time>2010-07-17T13:13:25Z</time>
<desc>lat.=55.828949, lon.=26.193857, Alt.=198.963013m. Speed=1.728000m/h.</desc>
<speed>0.480000</speed>
</trkpt>
<trkpt lat="55.828949" lon="26.193850">
<ele>199.384888</ele>
<time>2010-07-17T13:13:26Z</time>
<desc>lat.=55.828949, lon.=26.193850, Alt.=199.384888m. Speed=2.484000m/h.</desc>
<speed>0.690000</speed>
</trkpt>
<trkpt lat="55.828949" lon="26.193838">
<ele>199.728638</ele>
<time>2010-07-17T13:13:27Z</time>
<desc>lat.=55.828949, lon.=26.193838, Alt.=199.728638m. Speed=7.236000m/h.</desc>
<speed>2.010000</speed>
</trkpt>
<trkpt lat="55.828953" lon="26.193790">
<ele>200.435669</ele>
<time>2010-07-17T13:13:28Z</time>
<desc>lat.=55.828953, lon.=26.193790, Alt.=200.435669m. Speed=6.624000m/h.</desc>
<speed>1.840000</speed>
</trkpt>
<trkpt lat="55.828964" lon="26.193735">
<ele>200.814575</ele>
<time>2010-07-17T13:13:29Z</time>
<desc>lat.=55.828964, lon.=26.193735, Alt.=200.814575m. Speed=9.684000m/h.</desc>
<speed>2.690000</speed>
</trkpt>
<trkpt lat="55.828957" lon="26.193636">
<ele>201.611450</ele>
<time>2010-07-17T13:13:30Z</time>
<desc>lat.=55.828957, lon.=26.193636, Alt.=201.611450m. Speed=13.536000m/h.</desc>
<speed>3.760000</speed>
</trkpt>
<trkpt lat="55.828964" lon="26.193529">
<ele>201.181763</ele>
<time>2010-07-17T13:13:31Z</time>
<desc>lat.=55.828964, lon.=26.193529, Alt.=201.181763m. Speed=17.604000m/h.</desc>
<speed>4.890000</speed>
</trkpt>
<trkpt lat="55.828968" lon="26.193447">
<ele>200.798950</ele>
<time>2010-07-17T13:13:32Z</time>
<desc>lat.=55.828968, lon.=26.193447, Alt.=200.798950m. Speed=17.351999m/h.</desc>
<speed>4.820000</speed>
</trkpt>
<trkpt lat="55.828964" lon="26.193359">
<ele>200.267700</ele>
<time>2010-07-17T13:13:33Z</time>
<desc>lat.=55.828964, lon.=26.193359, Alt.=200.267700m. Speed=18.143999m/h.</desc>
<speed>5.040000</speed>
</trkpt>
<trkpt lat="55.828964" lon="26.193266">
<ele>199.841919</ele>
<time>2010-07-17T13:13:34Z</time>
<desc>lat.=55.828964, lon.=26.193266, Alt.=199.841919m. Speed=19.260000m/h.</desc>
<speed>5.350000</speed>
</trkpt>
<trkpt lat="55.828960" lon="26.193171">
<ele>199.541138</ele>
<time>2010-07-17T13:13:35Z</time>
<desc>lat.=55.828960, lon.=26.193171, Alt.=199.541138m. Speed=17.747999m/h.</desc>
<speed>4.930000</speed>
</trkpt>
<trkpt lat="55.828957" lon="26.193083">
<ele>199.224731</ele>
<time>2010-07-17T13:13:36Z</time>
<desc>lat.=55.828957, lon.=26.193083, Alt.=199.224731m. Speed=18.035999m/h.</desc>
<speed>5.010000</speed>
</trkpt>
<trkpt lat="55.828953" lon="26.192978">
<ele>198.963013</ele>
<time>2010-07-17T13:13:37Z</time>
<desc>lat.=55.828953, lon.=26.192978, Alt.=198.963013m. Speed=18.108000m/h.</desc>
<speed>5.030000</speed>
</trkpt>
<trkpt lat="55.828945" lon="26.192896">
<ele>198.459106</ele>
<time>2010-07-17T13:13:38Z</time>
<desc>lat.=55.828945, lon.=26.192896, Alt.=198.459106m. Speed=15.480000m/h.</desc>
<speed>4.300000</speed>
</trkpt>
<trkpt lat="55.828934" lon="26.192820">
<ele>197.748169</ele>
<time>2010-07-17T13:13:39Z</time>
<desc>lat.=55.828934, lon.=26.192820, Alt.=197.748169m. Speed=13.572000m/h.</desc>
<speed>3.770000</speed>
</trkpt>
<trkpt lat="55.828930" lon="26.192734">
<ele>197.998169</ele>
<time>2010-07-17T13:13:40Z</time>
<desc>lat.=55.828930, lon.=26.192734, Alt.=197.998169m. Speed=16.200001m/h.</desc>
<speed>4.500000</speed>
</trkpt>
<trkpt lat="55.828922" lon="26.192657">
<ele>197.349731</ele>
<time>2010-07-17T13:13:41Z</time>
<desc>lat.=55.828922, lon.=26.192657, Alt.=197.349731m. Speed=12.780000m/h.</desc>
<speed>3.550000</speed>
</trkpt>
<trkpt lat="55.828918" lon="26.192598">
<ele>197.423950</ele>
<time>2010-07-17T13:13:42Z</time>
<desc>lat.=55.828918, lon.=26.192598, Alt.=197.423950m. Speed=10.332000m/h.</desc>
<speed>2.870000</speed>
</trkpt>
<trkpt lat="55.828915" lon="26.192547">
<ele>197.338013</ele>
<time>2010-07-17T13:13:43Z</time>
<desc>lat.=55.828915, lon.=26.192547, Alt.=197.338013m. Speed=9.720000m/h.</desc>
<speed>2.700000</speed>
</trkpt>
<trkpt lat="55.828911" lon="26.192490">
<ele>197.334106</ele>
<time>2010-07-17T13:13:44Z</time>
<desc>lat.=55.828911, lon.=26.192490, Alt.=197.334106m. Speed=9.144000m/h.</desc>
<speed>2.540000</speed>
</trkpt>
<trkpt lat="55.828907" lon="26.192436">
<ele>197.384888</ele>
<time>2010-07-17T13:13:45Z</time>
<desc>lat.=55.828907, lon.=26.192436, Alt.=197.384888m. Speed=7.596000m/h.</desc>
<speed>2.110000</speed>
</trkpt>
<trkpt lat="55.828907" lon="26.192383">
<ele>196.896606</ele>
<time>2010-07-17T13:13:46Z</time>
<desc>lat.=55.828907, lon.=26.192383, Alt.=196.896606m. Speed=5.400000m/h.</desc>
<speed>1.500000</speed>
</trkpt>
<trkpt lat="55.828907" lon="26.192354">
<ele>196.041138</ele>
<time>2010-07-17T13:13:47Z</time>
<desc>lat.=55.828907, lon.=26.192354, Alt.=196.041138m. Speed=3.420000m/h.</desc>
<speed>0.950000</speed>
</trkpt>
<trkpt lat="55.828907" lon="26.192318">
<ele>196.724731</ele>
<time>2010-07-17T13:13:48Z</time>
<desc>lat.=55.828907, lon.=26.192318, Alt.=196.724731m. Speed=9.720000m/h.</desc>
<speed>2.700000</speed>
</trkpt>
<trkpt lat="55.828903" lon="26.192263">
<ele>196.545044</ele>
<time>2010-07-17T13:13:49Z</time>
<desc>lat.=55.828903, lon.=26.192263, Alt.=196.545044m. Speed=10.332000m/h.</desc>
<speed>2.870000</speed>
</trkpt>
<trkpt lat="55.828896" lon="26.192169">
<ele>194.951294</ele>
<time>2010-07-17T13:13:50Z</time>
<desc>lat.=55.828896, lon.=26.192169, Alt.=194.951294m. Speed=10.584000m/h.</desc>
<speed>2.940000</speed>
</trkpt>
<trkpt lat="55.828888" lon="26.192087">
<ele>194.111450</ele>
<time>2010-07-17T13:13:51Z</time>
<desc>lat.=55.828888, lon.=26.192087, Alt.=194.111450m. Speed=12.420000m/h.</desc>
<speed>3.450000</speed>
</trkpt>
<trkpt lat="55.828876" lon="26.192020">
<ele>193.377075</ele>
<time>2010-07-17T13:13:52Z</time>
<desc>lat.=55.828876, lon.=26.192020, Alt.=193.377075m. Speed=12.456000m/h.</desc>
<speed>3.460000</speed>
</trkpt>
<trkpt lat="55.828865" lon="26.191971">
<ele>193.318481</ele>
<time>2010-07-17T13:13:53Z</time>
<desc>lat.=55.828865, lon.=26.191971, Alt.=193.318481m. Speed=13.536000m/h.</desc>
<speed>3.760000</speed>
</trkpt>
<trkpt lat="55.828850" lon="26.191898">
<ele>192.517700</ele>
<time>2010-07-17T13:13:54Z</time>
<desc>lat.=55.828850, lon.=26.191898, Alt.=192.517700m. Speed=15.264000m/h.</desc>
<speed>4.240000</speed>
</trkpt>
<trkpt lat="55.828831" lon="26.191835">
<ele>192.013794</ele>
<time>2010-07-17T13:13:55Z</time>
<desc>lat.=55.828831, lon.=26.191835, Alt.=192.013794m. Speed=14.868000m/h.</desc>
<speed>4.130000</speed>
</trkpt>
<trkpt lat="55.828812" lon="26.191776">
<ele>191.818481</ele>
<time>2010-07-17T13:13:56Z</time>
<desc>lat.=55.828812, lon.=26.191776, Alt.=191.818481m. Speed=14.328000m/h.</desc>
<speed>3.980000</speed>
</trkpt>
<trkpt lat="55.828781" lon="26.191696">
<ele>190.490356</ele>
<time>2010-07-17T13:13:57Z</time>
<desc>lat.=55.828781, lon.=26.191696, Alt.=190.490356m. Speed=17.459999m/h.</desc>
<speed>4.850000</speed>
</trkpt>
<trkpt lat="55.828754" lon="26.191610">
<ele>189.505981</ele>
<time>2010-07-17T13:13:58Z</time>
<desc>lat.=55.828754, lon.=26.191610, Alt.=189.505981m. Speed=16.559999m/h.</desc>
<speed>4.600000</speed>
</trkpt>
<trkpt lat="55.828728" lon="26.191530">
<ele>188.670044</ele>
<time>2010-07-17T13:13:59Z</time>
<desc>lat.=55.828728, lon.=26.191530, Alt.=188.670044m. Speed=14.184000m/h.</desc>
<speed>3.940000</speed>
</trkpt>
<trkpt lat="55.828693" lon="26.191450">
<ele>187.572388</ele>
<time>2010-07-17T13:14:00Z</time>
<desc>lat.=55.828693, lon.=26.191450, Alt.=187.572388m. Speed=13.788000m/h.</desc>
<speed>3.830000</speed>
</trkpt>
<trkpt lat="55.828678" lon="26.191395">
<ele>187.517700</ele>
<time>2010-07-17T13:14:01Z</time>
<desc>lat.=55.828678, lon.=26.191395, Alt.=187.517700m. Speed=14.148000m/h.</desc>
<speed>3.930000</speed>
</trkpt>
<trkpt lat="55.828648" lon="26.191320">
<ele>186.138794</ele>
<time>2010-07-17T13:14:02Z</time>
<desc>lat.=55.828648, lon.=26.191320, Alt.=186.138794m. Speed=12.672000m/h.</desc>
<speed>3.520000</speed>
</trkpt>
<trkpt lat="55.828609" lon="26.191233">
<ele>183.963013</ele>
<time>2010-07-17T13:14:03Z</time>
<desc>lat.=55.828609, lon.=26.191233, Alt.=183.963013m. Speed=14.148000m/h.</desc>
<speed>3.930000</speed>
</trkpt>
<trkpt lat="55.828579" lon="26.191160">
<ele>183.056763</ele>
<time>2010-07-17T13:14:04Z</time>
<desc>lat.=55.828579, lon.=26.191160, Alt.=183.056763m. Speed=13.068000m/h.</desc>
<speed>3.630000</speed>
</trkpt>
<trkpt lat="55.828552" lon="26.191065">
<ele>181.951294</ele>
<time>2010-07-17T13:14:05Z</time>
<desc>lat.=55.828552, lon.=26.191065, Alt.=181.951294m. Speed=9.972000m/h.</desc>
<speed>2.770000</speed>
</trkpt>
<trkpt lat="55.828537" lon="26.191031">
<ele>181.486450</ele>
<time>2010-07-17T13:14:06Z</time>
<desc>lat.=55.828537, lon.=26.191031, Alt.=181.486450m. Speed=8.748000m/h.</desc>
<speed>2.430000</speed>
</trkpt>
<trkpt lat="55.828526" lon="26.190998">
<ele>180.869263</ele>
<time>2010-07-17T13:14:07Z</time>
<desc>lat.=55.828526, lon.=26.190998, Alt.=180.869263m. Speed=6.192000m/h.</desc>
<speed>1.720000</speed>
</trkpt>
<trkpt lat="55.828522" lon="26.190979">
<ele>179.912231</ele>
<time>2010-07-17T13:14:08Z</time>
<desc>lat.=55.828522, lon.=26.190979, Alt.=179.912231m. Speed=3.240000m/h.</desc>
<speed>0.900000</speed>
</trkpt>
<trkpt lat="55.828522" lon="26.190975">
<ele>179.455200</ele>
<time>2010-07-17T13:14:09Z</time>
<desc>lat.=55.828522, lon.=26.190975, Alt.=179.455200m. Speed=0.864000m/h.</desc>
<speed>0.240000</speed>
</trkpt>
<trkpt lat="55.828526" lon="26.190968">
<ele>179.240356</ele>
<time>2010-07-17T13:14:10Z</time>
<desc>lat.=55.828526, lon.=26.190968, Alt.=179.240356m. Speed=0.396000m/h.</desc>
<speed>0.110000</speed>
</trkpt>
<trkpt lat="55.828529" lon="26.190969">
<ele>179.127075</ele>
<time>2010-07-17T13:14:11Z</time>
<desc>lat.=55.828529, lon.=26.190969, Alt.=179.127075m. Speed=0.180000m/h.</desc>
<speed>0.050000</speed>
</trkpt>
<trkpt lat="55.828529" lon="26.190969">
<ele>179.052856</ele>
<time>2010-07-17T13:14:12Z</time>
<desc>lat.=55.828529, lon.=26.190969, Alt.=179.052856m. Speed=0.288000m/h.</desc>
<speed>0.080000</speed>
</trkpt>
<trkpt lat="55.828526" lon="26.190968">
<ele>179.017700</ele>
<time>2010-07-17T13:14:13Z</time>
<desc>lat.=55.828526, lon.=26.190968, Alt.=179.017700m. Speed=0.000000m/h.</desc>
<speed>0.000000</speed>
</trkpt>
<trkpt lat="55.828526" lon="26.190968">
<ele>178.998169</ele>
<time>2010-07-17T13:14:14Z</time>
<desc>lat.=55.828526, lon.=26.190968, Alt.=178.998169m. Speed=0.000000m/h.</desc>
<speed>0.000000</speed>
</trkpt>
<trkpt lat="55.828526" lon="26.190968">
<ele>178.970825</ele>
<time>2010-07-17T13:14:15Z</time>
<desc>lat.=55.828526, lon.=26.190968, Alt.=178.970825m. Speed=0.036000m/h.</desc>
<speed>0.010000</speed>
</trkpt>
<trkpt lat="55.828529" lon="26.190966">
<ele>178.806763</ele>
<time>2010-07-17T13:14:16Z</time>
<desc>lat.=55.828529, lon.=26.190966, Alt.=178.806763m. Speed=0.072000m/h.</desc>
<speed>0.020000</speed>
</trkpt>
<trkpt lat="55.828529" lon="26.190966">
<ele>178.689575</ele>
<time>2010-07-17T13:14:17Z</time>
<desc>lat.=55.828529, lon.=26.190966, Alt.=178.689575m. Speed=0.108000m/h.</desc>
<speed>0.030000</speed>
</trkpt>
<trkpt lat="55.828529" lon="26.190964">
<ele>178.619263</ele>
<time>2010-07-17T13:14:18Z</time>
<desc>lat.=55.828529, lon.=26.190964, Alt.=178.619263m. Speed=0.036000m/h.</desc>
<speed>0.010000</speed>
</trkpt>
<trkpt lat="55.828529" lon="26.190962">
<ele>178.588013</ele>
<time>2010-07-17T13:14:19Z</time>
<desc>lat.=55.828529, lon.=26.190962, Alt.=178.588013m. Speed=0.648000m/h.</desc>
<speed>0.180000</speed>
</trkpt>
<trkpt lat="55.828533" lon="26.190964">
<ele>178.533325</ele>
<time>2010-07-17T13:14:20Z</time>
<desc>lat.=55.828533, lon.=26.190964, Alt.=178.533325m. Speed=0.360000m/h.</desc>
<speed>0.100000</speed>
</trkpt>
<trkpt lat="55.828533" lon="26.190964">
<ele>178.486450</ele>
<time>2010-07-17T13:14:21Z</time>
<desc>lat.=55.828533, lon.=26.190964, Alt.=178.486450m. Speed=0.216000m/h.</desc>
<speed>0.060000</speed>
</trkpt>
<trkpt lat="55.828533" lon="26.190964">
<ele>178.447388</ele>
<time>2010-07-17T13:14:22Z</time>
<desc>lat.=55.828533, lon.=26.190964, Alt.=178.447388m. Speed=0.180000m/h.</desc>
<speed>0.050000</speed>
</trkpt>
<trkpt lat="55.828533" lon="26.190964">
<ele>178.412231</ele>
<time>2010-07-17T13:14:23Z</time>
<desc>lat.=55.828533, lon.=26.190964, Alt.=178.412231m. Speed=0.108000m/h.</desc>
<speed>0.030000</speed>
</trkpt>
<trkpt lat="55.828533" lon="26.190964">
<ele>178.384888</ele>
<time>2010-07-17T13:14:24Z</time>
<desc>lat.=55.828533, lon.=26.190964, Alt.=178.384888m. Speed=0.000000m/h.</desc>
<speed>0.000000</speed>
</trkpt>
<trkpt lat="55.828533" lon="26.190962">
<ele>178.377075</ele>
<time>2010-07-17T13:14:25Z</time>
<desc>lat.=55.828533, lon.=26.190962, Alt.=178.377075m. Speed=0.000000m/h.</desc>
<speed>0.000000</speed>
</trkpt>
<trkpt lat="55.828533" lon="26.190962">
<ele>178.373169</ele>
<time>2010-07-17T13:14:26Z</time>
<desc>lat.=55.828533, lon.=26.190962, Alt.=178.373169m. Speed=0.000000m/h.</desc>
<speed>0.000000</speed>
</trkpt>
<trkpt lat="55.828533" lon="26.190962">
<ele>178.369263</ele>
<time>2010-07-17T13:14:27Z</time>
<desc>lat.=55.828533, lon.=26.190962, Alt.=178.369263m. Speed=0.000000m/h.</desc>
<speed>0.000000</speed>
</trkpt>
<trkpt lat="55.828533" lon="26.190960">
<ele>178.380981</ele>
<time>2010-07-17T13:14:28Z</time>
<desc>lat.=55.828533, lon.=26.190960, Alt.=178.380981m. Speed=0.036000m/h.</desc>
<speed>0.010000</speed>
</trkpt>
<trkpt lat="55.828533" lon="26.190960">
<ele>178.380981</ele>
<time>2010-07-17T13:14:29Z</time>
<desc>lat.=55.828533, lon.=26.190960, Alt.=178.380981m. Speed=0.036000m/h.</desc>
<speed>0.010000</speed>
</trkpt>
<trkpt lat="55.828533" lon="26.190960">
<ele>178.384888</ele>
<time>2010-07-17T13:14:30Z</time>
<desc>lat.=55.828533, lon.=26.190960, Alt.=178.384888m. Speed=0.000000m/h.</desc>
<speed>0.000000</speed>
</trkpt>
<trkpt lat="55.828533" lon="26.190960">
<ele>178.361450</ele>
<time>2010-07-17T13:14:31Z</time>
<desc>lat.=55.828533, lon.=26.190960, Alt.=178.361450m. Speed=0.144000m/h.</desc>
<speed>0.040000</speed>
</trkpt>
<trkpt lat="55.828533" lon="26.190960">
<ele>178.345825</ele>
<time>2010-07-17T13:14:32Z</time>
<desc>lat.=55.828533, lon.=26.190960, Alt.=178.345825m. Speed=1.368000m/h.</desc>
<speed>0.380000</speed>
</trkpt>
<trkpt lat="55.828533" lon="26.190954">
<ele>178.357544</ele>
<time>2010-07-17T13:14:33Z</time>
<desc>lat.=55.828533, lon.=26.190954, Alt.=178.357544m. Speed=1.548000m/h.</desc>
<speed>0.430000</speed>
</trkpt>
<trkpt lat="55.828529" lon="26.190948">
<ele>178.369263</ele>
<time>2010-07-17T13:14:34Z</time>
<desc>lat.=55.828529, lon.=26.190948, Alt.=178.369263m. Speed=3.420000m/h.</desc>
<speed>0.950000</speed>
</trkpt>
<trkpt lat="55.828526" lon="26.190935">
<ele>178.341919</ele>
<time>2010-07-17T13:14:35Z</time>
<desc>lat.=55.828526, lon.=26.190935, Alt.=178.341919m. Speed=7.020000m/h.</desc>
<speed>1.950000</speed>
</trkpt>
<trkpt lat="55.828518" lon="26.190901">
<ele>177.900513</ele>
<time>2010-07-17T13:14:36Z</time>
<desc>lat.=55.828518, lon.=26.190901, Alt.=177.900513m. Speed=8.604000m/h.</desc>
<speed>2.390000</speed>
</trkpt>
<trkpt lat="55.828506" lon="26.190847">
<ele>176.966919</ele>
<time>2010-07-17T13:14:37Z</time>
<desc>lat.=55.828506, lon.=26.190847, Alt.=176.966919m. Speed=12.888000m/h.</desc>
<speed>3.580000</speed>
</trkpt>
<trkpt lat="55.828495" lon="26.190788">
<ele>176.537231</ele>
<time>2010-07-17T13:14:38Z</time>
<desc>lat.=55.828495, lon.=26.190788, Alt.=176.537231m. Speed=15.012000m/h.</desc>
<speed>4.170000</speed>
</trkpt>
<trkpt lat="55.828487" lon="26.190731">
<ele>175.963013</ele>
<time>2010-07-17T13:14:39Z</time>
<desc>lat.=55.828487, lon.=26.190731, Alt.=175.963013m. Speed=14.652000m/h.</desc>
<speed>4.070000</speed>
</trkpt>
<trkpt lat="55.828461" lon="26.190653">
<ele>174.802856</ele>
<time>2010-07-17T13:14:40Z</time>
<desc>lat.=55.828461, lon.=26.190653, Alt.=174.802856m. Speed=21.888000m/h.</desc>
<speed>6.080000</speed>
</trkpt>
<trkpt lat="55.828434" lon="26.190563">
<ele>173.986450</ele>
<time>2010-07-17T13:14:41Z</time>
<desc>lat.=55.828434, lon.=26.190563, Alt.=173.986450m. Speed=22.931999m/h.</desc>
<speed>6.370000</speed>
</trkpt>
<trkpt lat="55.828400" lon="26.190470">
<ele>172.935669</ele>
<time>2010-07-17T13:14:42Z</time>
<desc>lat.=55.828400, lon.=26.190470, Alt.=172.935669m. Speed=24.732000m/h.</desc>
<speed>6.870000</speed>
</trkpt>
<trkpt lat="55.828365" lon="26.190371">
<ele>172.185669</ele>
<time>2010-07-17T13:14:43Z</time>
<desc>lat.=55.828365, lon.=26.190371, Alt.=172.185669m. Speed=26.351999m/h.</desc>
<speed>7.320000</speed>
</trkpt>
<trkpt lat="55.828331" lon="26.190269">
<ele>171.459106</ele>
<time>2010-07-17T13:14:44Z</time>
<desc>lat.=55.828331, lon.=26.190269, Alt.=171.459106m. Speed=26.208000m/h.</desc>
<speed>7.280000</speed>
</trkpt>
<trkpt lat="55.828300" lon="26.190157">
<ele>170.673950</ele>
<time>2010-07-17T13:14:45Z</time>
<desc>lat.=55.828300, lon.=26.190157, Alt.=170.673950m. Speed=25.488001m/h.</desc>
<speed>7.080000</speed>
</trkpt>
<trkpt lat="55.828274" lon="26.190054">
<ele>170.037231</ele>
<time>2010-07-17T13:14:46Z</time>
<desc>lat.=55.828274, lon.=26.190054, Alt.=170.037231m. Speed=23.507999m/h.</desc>
<speed>6.530000</speed>
</trkpt>
<trkpt lat="55.828251" lon="26.189943">
<ele>169.244263</ele>
<time>2010-07-17T13:14:47Z</time>
<desc>lat.=55.828251, lon.=26.189943, Alt.=169.244263m. Speed=23.507999m/h.</desc>
<speed>6.530000</speed>
</trkpt>
<trkpt lat="55.828236" lon="26.189838">
<ele>168.408325</ele>
<time>2010-07-17T13:14:48Z</time>
<desc>lat.=55.828236, lon.=26.189838, Alt.=168.408325m. Speed=23.076000m/h.</desc>
<speed>6.410000</speed>
</trkpt>
<trkpt lat="55.828224" lon="26.189732">
<ele>167.763794</ele>
<time>2010-07-17T13:14:49Z</time>
<desc>lat.=55.828224, lon.=26.189732, Alt.=167.763794m. Speed=22.643999m/h.</desc>
<speed>6.290000</speed>
</trkpt>
<trkpt lat="55.828217" lon="26.189623">
<ele>167.322388</ele>
<time>2010-07-17T13:14:50Z</time>
<desc>lat.=55.828217, lon.=26.189623, Alt.=167.322388m. Speed=22.572001m/h.</desc>
<speed>6.270000</speed>
</trkpt>
<trkpt lat="55.828217" lon="26.189522">
<ele>166.748169</ele>
<time>2010-07-17T13:14:51Z</time>
<desc>lat.=55.828217, lon.=26.189522, Alt.=166.748169m. Speed=21.455999m/h.</desc>
<speed>5.960000</speed>
</trkpt>
<trkpt lat="55.828220" lon="26.189423">
<ele>166.150513</ele>
<time>2010-07-17T13:14:52Z</time>
<desc>lat.=55.828220, lon.=26.189423, Alt.=166.150513m. Speed=22.139999m/h.</desc>
<speed>6.150000</speed>
</trkpt>
<trkpt lat="55.828232" lon="26.189325">
<ele>165.685669</ele>
<time>2010-07-17T13:14:53Z</time>
<desc>lat.=55.828232, lon.=26.189325, Alt.=165.685669m. Speed=22.176001m/h.</desc>
<speed>6.160000</speed>
</trkpt>
<trkpt lat="55.828247" lon="26.189232">
<ele>165.021606</ele>
<time>2010-07-17T13:14:54Z</time>
<desc>lat.=55.828247, lon.=26.189232, Alt.=165.021606m. Speed=21.312000m/h.</desc>
<speed>5.920000</speed>
</trkpt>
<trkpt lat="55.828266" lon="26.189137">
<ele>164.537231</ele>
<time>2010-07-17T13:14:55Z</time>
<desc>lat.=55.828266, lon.=26.189137, Alt.=164.537231m. Speed=20.483999m/h.</desc>
<speed>5.690000</speed>
</trkpt>
<trkpt lat="55.828285" lon="26.189043">
<ele>163.970825</ele>
<time>2010-07-17T13:14:56Z</time>
<desc>lat.=55.828285, lon.=26.189043, Alt.=163.970825m. Speed=21.275999m/h.</desc>
<speed>5.910000</speed>
</trkpt>
<trkpt lat="55.828300" lon="26.188946">
<ele>163.490356</ele>
<time>2010-07-17T13:14:57Z</time>
<desc>lat.=55.828300, lon.=26.188946, Alt.=163.490356m. Speed=21.492001m/h.</desc>
<speed>5.970000</speed>
</trkpt>
<trkpt lat="55.828312" lon="26.188845">
<ele>163.252075</ele>
<time>2010-07-17T13:14:58Z</time>
<desc>lat.=55.828312, lon.=26.188845, Alt.=163.252075m. Speed=20.808001m/h.</desc>
<speed>5.780000</speed>
</trkpt>
<trkpt lat="55.828335" lon="26.188755">
<ele>162.744263</ele>
<time>2010-07-17T13:14:59Z</time>
<desc>lat.=55.828335, lon.=26.188755, Alt.=162.744263m. Speed=21.888000m/h.</desc>
<speed>6.080000</speed>
</trkpt>
<trkpt lat="55.828358" lon="26.188663">
<ele>162.420044</ele>
<time>2010-07-17T13:15:00Z</time>
<desc>lat.=55.828358, lon.=26.188663, Alt.=162.420044m. Speed=21.959999m/h.</desc>
<speed>6.100000</speed>
</trkpt>
<trkpt lat="55.828384" lon="26.188560">
<ele>162.068481</ele>
<time>2010-07-17T13:15:01Z</time>
<desc>lat.=55.828384, lon.=26.188560, Alt.=162.068481m. Speed=24.948000m/h.</desc>
<speed>6.930000</speed>
</trkpt>
<trkpt lat="55.828407" lon="26.188456">
<ele>161.627075</ele>
<time>2010-07-17T13:15:02Z</time>
<desc>lat.=55.828407, lon.=26.188456, Alt.=161.627075m. Speed=24.120001m/h.</desc>
<speed>6.700000</speed>
</trkpt>
<trkpt lat="55.828426" lon="26.188351">
<ele>161.103638</ele>
<time>2010-07-17T13:15:03Z</time>
<desc>lat.=55.828426, lon.=26.188351, Alt.=161.103638m. Speed=23.940001m/h.</desc>
<speed>6.650000</speed>
</trkpt>
<trkpt lat="55.828445" lon="26.188240">
<ele>160.716919</ele>
<time>2010-07-17T13:15:04Z</time>
<desc>lat.=55.828445, lon.=26.188240, Alt.=160.716919m. Speed=25.200001m/h.</desc>
<speed>7.000000</speed>
</trkpt>
<trkpt lat="55.828461" lon="26.188139">
<ele>159.974731</ele>
<time>2010-07-17T13:15:05Z</time>
<desc>lat.=55.828461, lon.=26.188139, Alt.=159.974731m. Speed=20.520000m/h.</desc>
<speed>5.700000</speed>
</trkpt>
<trkpt lat="55.828480" lon="26.188042">
<ele>159.416138</ele>
<time>2010-07-17T13:15:06Z</time>
<desc>lat.=55.828480, lon.=26.188042, Alt.=159.416138m. Speed=22.968000m/h.</desc>
<speed>6.380000</speed>
</trkpt>
<trkpt lat="55.828503" lon="26.187933">
<ele>159.021606</ele>
<time>2010-07-17T13:15:07Z</time>
<desc>lat.=55.828503, lon.=26.187933, Alt.=159.021606m. Speed=25.452000m/h.</desc>
<speed>7.070000</speed>
</trkpt>
<trkpt lat="55.828522" lon="26.187815">
<ele>158.404419</ele>
<time>2010-07-17T13:15:08Z</time>
<desc>lat.=55.828522, lon.=26.187815, Alt.=158.404419m. Speed=25.488001m/h.</desc>
<speed>7.080000</speed>
</trkpt>
<trkpt lat="55.828537" lon="26.187689">
<ele>157.736450</ele>
<time>2010-07-17T13:15:09Z</time>
<desc>lat.=55.828537, lon.=26.187689, Alt.=157.736450m. Speed=25.452000m/h.</desc>
<speed>7.070000</speed>
</trkpt>
<trkpt lat="55.828548" lon="26.187561">
<ele>157.017700</ele>
<time>2010-07-17T13:15:10Z</time>
<desc>lat.=55.828548, lon.=26.187561, Alt.=157.017700m. Speed=25.524000m/h.</desc>
<speed>7.090000</speed>
</trkpt>
<trkpt lat="55.828548" lon="26.187445">
<ele>156.474731</ele>
<time>2010-07-17T13:15:11Z</time>
<desc>lat.=55.828548, lon.=26.187445, Alt.=156.474731m. Speed=24.444000m/h.</desc>
<speed>6.790000</speed>
</trkpt>
<trkpt lat="55.828552" lon="26.187336">
<ele>156.048950</ele>
<time>2010-07-17T13:15:12Z</time>
<desc>lat.=55.828552, lon.=26.187336, Alt.=156.048950m. Speed=23.256001m/h.</desc>
<speed>6.460000</speed>
</trkpt>
<trkpt lat="55.828556" lon="26.187233">
<ele>155.595825</ele>
<time>2010-07-17T13:15:13Z</time>
<desc>lat.=55.828556, lon.=26.187233, Alt.=155.595825m. Speed=23.364000m/h.</desc>
<speed>6.490000</speed>
</trkpt>
<trkpt lat="55.828552" lon="26.187134">
<ele>155.271606</ele>
<time>2010-07-17T13:15:14Z</time>
<desc>lat.=55.828552, lon.=26.187134, Alt.=155.271606m. Speed=21.816000m/h.</desc>
<speed>6.060000</speed>
</trkpt>
<trkpt lat="55.828564" lon="26.187031">
<ele>154.959106</ele>
<time>2010-07-17T13:15:15Z</time>
<desc>lat.=55.828564, lon.=26.187031, Alt.=154.959106m. Speed=21.492001m/h.</desc>
<speed>5.970000</speed>
</trkpt>
<trkpt lat="55.828571" lon="26.186932">
<ele>154.744263</ele>
<time>2010-07-17T13:15:16Z</time>
<desc>lat.=55.828571, lon.=26.186932, Alt.=154.744263m. Speed=21.240000m/h.</desc>
<speed>5.900000</speed>
</trkpt>
<trkpt lat="55.828579" lon="26.186838">
<ele>154.314575</ele>
<time>2010-07-17T13:15:17Z</time>
<desc>lat.=55.828579, lon.=26.186838, Alt.=154.314575m. Speed=20.016001m/h.</desc>
<speed>5.560000</speed>
</trkpt>
<trkpt lat="55.828579" lon="26.186754">
<ele>154.154419</ele>
<time>2010-07-17T13:15:18Z</time>
<desc>lat.=55.828579, lon.=26.186754, Alt.=154.154419m. Speed=17.243999m/h.</desc>
<speed>4.790000</speed>
</trkpt>
<trkpt lat="55.828583" lon="26.186678">
<ele>153.771606</ele>
<time>2010-07-17T13:15:19Z</time>
<desc>lat.=55.828583, lon.=26.186678, Alt.=153.771606m. Speed=16.164000m/h.</desc>
<speed>4.490000</speed>
</trkpt>
<trkpt lat="55.828579" lon="26.186605">
<ele>153.404419</ele>
<time>2010-07-17T13:15:20Z</time>
<desc>lat.=55.828579, lon.=26.186605, Alt.=153.404419m. Speed=15.120000m/h.</desc>
<speed>4.200000</speed>
</trkpt>
<trkpt lat="55.828564" lon="26.186525">
<ele>153.021606</ele>
<time>2010-07-17T13:15:21Z</time>
<desc>lat.=55.828564, lon.=26.186525, Alt.=153.021606m. Speed=16.236000m/h.</desc>
<speed>4.510000</speed>
</trkpt>
<trkpt lat="55.828552" lon="26.186462">
<ele>152.599731</ele>
<time>2010-07-17T13:15:22Z</time>
<desc>lat.=55.828552, lon.=26.186462, Alt.=152.599731m. Speed=12.744000m/h.</desc>
<speed>3.540000</speed>
</trkpt>
<trkpt lat="55.828537" lon="26.186411">
<ele>152.236450</ele>
<time>2010-07-17T13:15:23Z</time>
<desc>lat.=55.828537, lon.=26.186411, Alt.=152.236450m. Speed=11.052000m/h.</desc>
<speed>3.070000</speed>
</trkpt>
<trkpt lat="55.828514" lon="26.186354">
<ele>151.931763</ele>
<time>2010-07-17T13:15:24Z</time>
<desc>lat.=55.828514, lon.=26.186354, Alt.=151.931763m. Speed=12.600000m/h.</desc>
<speed>3.500000</speed>
</trkpt>
<trkpt lat="55.828495" lon="26.186289">
<ele>151.431763</ele>
<time>2010-07-17T13:15:25Z</time>
<desc>lat.=55.828495, lon.=26.186289, Alt.=151.431763m. Speed=12.636000m/h.</desc>
<speed>3.510000</speed>
</trkpt>
<trkpt lat="55.828480" lon="26.186251">
<ele>151.310669</ele>
<time>2010-07-17T13:15:26Z</time>
<desc>lat.=55.828480, lon.=26.186251, Alt.=151.310669m. Speed=8.676000m/h.</desc>
<speed>2.410000</speed>
</trkpt>
<trkpt lat="55.828472" lon="26.186201">
<ele>151.572388</ele>
<time>2010-07-17T13:15:27Z</time>
<desc>lat.=55.828472, lon.=26.186201, Alt.=151.572388m. Speed=7.704000m/h.</desc>
<speed>2.140000</speed>
</trkpt>
<trkpt lat="55.828457" lon="26.186155">
<ele>151.533325</ele>
<time>2010-07-17T13:15:28Z</time>
<desc>lat.=55.828457, lon.=26.186155, Alt.=151.533325m. Speed=8.496000m/h.</desc>
<speed>2.360000</speed>
</trkpt>
<trkpt lat="55.828453" lon="26.186113">
<ele>151.611450</ele>
<time>2010-07-17T13:15:29Z</time>
<desc>lat.=55.828453, lon.=26.186113, Alt.=151.611450m. Speed=8.100000m/h.</desc>
<speed>2.250000</speed>
</trkpt>
<trkpt lat="55.828453" lon="26.186079">
<ele>151.713013</ele>
<time>2010-07-17T13:15:30Z</time>
<desc>lat.=55.828453, lon.=26.186079, Alt.=151.713013m. Speed=6.120000m/h.</desc>
<speed>1.700000</speed>
</trkpt>
<trkpt lat="55.828457" lon="26.186043">
<ele>151.634888</ele>
<time>2010-07-17T13:15:31Z</time>
<desc>lat.=55.828457, lon.=26.186043, Alt.=151.634888m. Speed=5.112000m/h.</desc>
<speed>1.420000</speed>
</trkpt>
<trkpt lat="55.828453" lon="26.186001">
<ele>151.588013</ele>
<time>2010-07-17T13:15:32Z</time>
<desc>lat.=55.828453, lon.=26.186001, Alt.=151.588013m. Speed=6.768000m/h.</desc>
<speed>1.880000</speed>
</trkpt>
<trkpt lat="55.828461" lon="26.185957">
<ele>152.072388</ele>
<time>2010-07-17T13:15:33Z</time>
<desc>lat.=55.828461, lon.=26.185957, Alt.=152.072388m. Speed=5.616000m/h.</desc>
<speed>1.560000</speed>
</trkpt>
<trkpt lat="55.828514" lon="26.185787">
<ele>152.193481</ele>
<time>2010-07-17T13:15:34Z</time>
<desc>lat.=55.828514, lon.=26.185787, Alt.=152.193481m. Speed=13.968000m/h.</desc>
<speed>3.880000</speed>
</trkpt>
<trkpt lat="55.828522" lon="26.185724">
<ele>151.857544</ele>
<time>2010-07-17T13:15:35Z</time>
<desc>lat.=55.828522, lon.=26.185724, Alt.=151.857544m. Speed=16.020000m/h.</desc>
<speed>4.450000</speed>
</trkpt>
<trkpt lat="55.828510" lon="26.185661">
<ele>151.798950</ele>
<time>2010-07-17T13:15:36Z</time>
<desc>lat.=55.828510, lon.=26.185661, Alt.=151.798950m. Speed=10.404000m/h.</desc>
<speed>2.890000</speed>
</trkpt>
<trkpt lat="55.828487" lon="26.185596">
<ele>151.170044</ele>
<time>2010-07-17T13:15:37Z</time>
<desc>lat.=55.828487, lon.=26.185596, Alt.=151.170044m. Speed=13.644000m/h.</desc>
<speed>3.790000</speed>
</trkpt>
<trkpt lat="55.828495" lon="26.185539">
<ele>151.240356</ele>
<time>2010-07-17T13:15:38Z</time>
<desc>lat.=55.828495, lon.=26.185539, Alt.=151.240356m. Speed=8.892000m/h.</desc>
<speed>2.470000</speed>
</trkpt>
<trkpt lat="55.828499" lon="26.185478">
<ele>151.377075</ele>
<time>2010-07-17T13:15:39Z</time>
<desc>lat.=55.828499, lon.=26.185478, Alt.=151.377075m. Speed=13.104000m/h.</desc>
<speed>3.640000</speed>
</trkpt>
<trkpt lat="55.828499" lon="26.185423">
<ele>151.521606</ele>
<time>2010-07-17T13:15:40Z</time>
<desc>lat.=55.828499, lon.=26.185423, Alt.=151.521606m. Speed=10.908000m/h.</desc>
<speed>3.030000</speed>
</trkpt>
<trkpt lat="55.828503" lon="26.185377">
<ele>151.548950</ele>
<time>2010-07-17T13:15:41Z</time>
<desc>lat.=55.828503, lon.=26.185377, Alt.=151.548950m. Speed=7.344000m/h.</desc>
<speed>2.040000</speed>
</trkpt>
<trkpt lat="55.828510" lon="26.185339">
<ele>151.615356</ele>
<time>2010-07-17T13:15:42Z</time>
<desc>lat.=55.828510, lon.=26.185339, Alt.=151.615356m. Speed=7.776000m/h.</desc>
<speed>2.160000</speed>
</trkpt>
<trkpt lat="55.828518" lon="26.185299">
<ele>151.841919</ele>
<time>2010-07-17T13:15:43Z</time>
<desc>lat.=55.828518, lon.=26.185299, Alt.=151.841919m. Speed=6.624000m/h.</desc>
<speed>1.840000</speed>
</trkpt>
<trkpt lat="55.828522" lon="26.185259">
<ele>151.963013</ele>
<time>2010-07-17T13:15:44Z</time>
<desc>lat.=55.828522, lon.=26.185259, Alt.=151.963013m. Speed=5.688000m/h.</desc>
<speed>1.580000</speed>
</trkpt>
<trkpt lat="55.828541" lon="26.185173">
<ele>151.916138</ele>
<time>2010-07-17T13:15:45Z</time>
<desc>lat.=55.828541, lon.=26.185173, Alt.=151.916138m. Speed=11.592000m/h.</desc>
<speed>3.220000</speed>
</trkpt>
<trkpt lat="55.828552" lon="26.185125">
<ele>152.037231</ele>
<time>2010-07-17T13:15:46Z</time>
<desc>lat.=55.828552, lon.=26.185125, Alt.=152.037231m. Speed=7.776000m/h.</desc>
<speed>2.160000</speed>
</trkpt>
<trkpt lat="55.828564" lon="26.185085">
<ele>152.177856</ele>
<time>2010-07-17T13:15:47Z</time>
<desc>lat.=55.828564, lon.=26.185085, Alt.=152.177856m. Speed=5.544000m/h.</desc>
<speed>1.540000</speed>
</trkpt>
<trkpt lat="55.828575" lon="26.185036">
<ele>152.013794</ele>
<time>2010-07-17T13:15:48Z</time>
<desc>lat.=55.828575, lon.=26.185036, Alt.=152.013794m. Speed=7.380000m/h.</desc>
<speed>2.050000</speed>
</trkpt>
<trkpt lat="55.828587" lon="26.184982">
<ele>152.170044</ele>
<time>2010-07-17T13:15:49Z</time>
<desc>lat.=55.828587, lon.=26.184982, Alt.=152.170044m. Speed=9.900000m/h.</desc>
<speed>2.750000</speed>
</trkpt>
<trkpt lat="55.828609" lon="26.184898">
<ele>152.255981</ele>
<time>2010-07-17T13:15:50Z</time>
<desc>lat.=55.828609, lon.=26.184898, Alt.=152.255981m. Speed=11.268000m/h.</desc>
<speed>3.130000</speed>
</trkpt>
<trkpt lat="55.828617" lon="26.184807">
<ele>152.158325</ele>
<time>2010-07-17T13:15:51Z</time>
<desc>lat.=55.828617, lon.=26.184807, Alt.=152.158325m. Speed=10.368000m/h.</desc>
<speed>2.880000</speed>
</trkpt>
<trkpt lat="55.828629" lon="26.184734">
<ele>151.451294</ele>
<time>2010-07-17T13:15:52Z</time>
<desc>lat.=55.828629, lon.=26.184734, Alt.=151.451294m. Speed=9.072000m/h.</desc>
<speed>2.520000</speed>
</trkpt>
<trkpt lat="55.828636" lon="26.184650">
<ele>150.798950</ele>
<time>2010-07-17T13:15:53Z</time>
<desc>lat.=55.828636, lon.=26.184650, Alt.=150.798950m. Speed=9.684000m/h.</desc>
<speed>2.690000</speed>
</trkpt>
<trkpt lat="55.828625" lon="26.184568">
<ele>149.377075</ele>
<time>2010-07-17T13:15:54Z</time>
<desc>lat.=55.828625, lon.=26.184568, Alt.=149.377075m. Speed=10.656000m/h.</desc>
<speed>2.960000</speed>
</trkpt>
<trkpt lat="55.828632" lon="26.184511">
<ele>149.283325</ele>
<time>2010-07-17T13:15:55Z</time>
<desc>lat.=55.828632, lon.=26.184511, Alt.=149.283325m. Speed=9.900000m/h.</desc>
<speed>2.750000</speed>
</trkpt>
<trkpt lat="55.828648" lon="26.184454">
<ele>149.353638</ele>
<time>2010-07-17T13:15:56Z</time>
<desc>lat.=55.828648, lon.=26.184454, Alt.=149.353638m. Speed=10.872000m/h.</desc>
<speed>3.020000</speed>
</trkpt>
<trkpt lat="55.828644" lon="26.184374">
<ele>148.759888</ele>
<time>2010-07-17T13:15:57Z</time>
<desc>lat.=55.828644, lon.=26.184374, Alt.=148.759888m. Speed=10.692000m/h.</desc>
<speed>2.970000</speed>
</trkpt>
<trkpt lat="55.828636" lon="26.184292">
<ele>148.443481</ele>
<time>2010-07-17T13:15:58Z</time>
<desc>lat.=55.828636, lon.=26.184292, Alt.=148.443481m. Speed=13.392000m/h.</desc>
<speed>3.720000</speed>
</trkpt>
<trkpt lat="55.828617" lon="26.184193">
<ele>147.568481</ele>
<time>2010-07-17T13:15:59Z</time>
<desc>lat.=55.828617, lon.=26.184193, Alt.=147.568481m. Speed=15.480000m/h.</desc>
<speed>4.300000</speed>
</trkpt>
<trkpt lat="55.828602" lon="26.184101">
<ele>147.041138</ele>
<time>2010-07-17T13:16:00Z</time>
<desc>lat.=55.828602, lon.=26.184101, Alt.=147.041138m. Speed=15.264000m/h.</desc>
<speed>4.240000</speed>
</trkpt>
<trkpt lat="55.828590" lon="26.184027">
<ele>147.209106</ele>
<time>2010-07-17T13:16:01Z</time>
<desc>lat.=55.828590, lon.=26.184027, Alt.=147.209106m. Speed=15.048000m/h.</desc>
<speed>4.180000</speed>
</trkpt>
<trkpt lat="55.828575" lon="26.183950">
<ele>147.455200</ele>
<time>2010-07-17T13:16:02Z</time>
<desc>lat.=55.828575, lon.=26.183950, Alt.=147.455200m. Speed=14.796000m/h.</desc>
<speed>4.110000</speed>
</trkpt>
<trkpt lat="55.828560" lon="26.183886">
<ele>147.595825</ele>
<time>2010-07-17T13:16:03Z</time>
<desc>lat.=55.828560, lon.=26.183886, Alt.=147.595825m. Speed=12.636000m/h.</desc>
<speed>3.510000</speed>
</trkpt>
<trkpt lat="55.828545" lon="26.183821">
<ele>148.103638</ele>
<time>2010-07-17T13:16:04Z</time>
<desc>lat.=55.828545, lon.=26.183821, Alt.=148.103638m. Speed=13.068000m/h.</desc>
<speed>3.630000</speed>
</trkpt>
<trkpt lat="55.828537" lon="26.183752">
<ele>149.142700</ele>
<time>2010-07-17T13:16:05Z</time>
<desc>lat.=55.828537, lon.=26.183752, Alt.=149.142700m. Speed=12.348000m/h.</desc>
<speed>3.430000</speed>
</trkpt>
<trkpt lat="55.828522" lon="26.183687">
<ele>150.029419</ele>
<time>2010-07-17T13:16:06Z</time>
<desc>lat.=55.828522, lon.=26.183687, Alt.=150.029419m. Speed=12.924000m/h.</desc>
<speed>3.590000</speed>
</trkpt>
<trkpt lat="55.828514" lon="26.183628">
<ele>150.861450</ele>
<time>2010-07-17T13:16:07Z</time>
<desc>lat.=55.828514, lon.=26.183628, Alt.=150.861450m. Speed=11.520000m/h.</desc>
<speed>3.200000</speed>
</trkpt>
<trkpt lat="55.828503" lon="26.183531">
<ele>152.838013</ele>
<time>2010-07-17T13:16:08Z</time>
<desc>lat.=55.828503, lon.=26.183531, Alt.=152.838013m. Speed=11.844000m/h.</desc>
<speed>3.290000</speed>
</trkpt>
<trkpt lat="55.828499" lon="26.183464">
<ele>153.455200</ele>
<time>2010-07-17T13:16:09Z</time>
<desc>lat.=55.828499, lon.=26.183464, Alt.=153.455200m. Speed=11.196000m/h.</desc>
<speed>3.110000</speed>
</trkpt>
<trkpt lat="55.828495" lon="26.183393">
<ele>154.408325</ele>
<time>2010-07-17T13:16:10Z</time>
<desc>lat.=55.828495, lon.=26.183393, Alt.=154.408325m. Speed=12.816000m/h.</desc>
<speed>3.560000</speed>
</trkpt>
<trkpt lat="55.828487" lon="26.183319">
<ele>154.736450</ele>
<time>2010-07-17T13:16:11Z</time>
<desc>lat.=55.828487, lon.=26.183319, Alt.=154.736450m. Speed=12.312000m/h.</desc>
<speed>3.420000</speed>
</trkpt>
<trkpt lat="55.828484" lon="26.183250">
<ele>154.966919</ele>
<time>2010-07-17T13:16:12Z</time>
<desc>lat.=55.828484, lon.=26.183250, Alt.=154.966919m. Speed=13.680000m/h.</desc>
<speed>3.800000</speed>
</trkpt>
<trkpt lat="55.828484" lon="26.183172">
<ele>155.470825</ele>
<time>2010-07-17T13:16:13Z</time>
<desc>lat.=55.828484, lon.=26.183172, Alt.=155.470825m. Speed=13.068000m/h.</desc>
<speed>3.630000</speed>
</trkpt>
<trkpt lat="55.828487" lon="26.183119">
<ele>155.373169</ele>
<time>2010-07-17T13:16:14Z</time>
<desc>lat.=55.828487, lon.=26.183119, Alt.=155.373169m. Speed=11.592000m/h.</desc>
<speed>3.220000</speed>
</trkpt>
<trkpt lat="55.828495" lon="26.183056">
<ele>155.498169</ele>
<time>2010-07-17T13:16:15Z</time>
<desc>lat.=55.828495, lon.=26.183056, Alt.=155.498169m. Speed=12.636000m/h.</desc>
<speed>3.510000</speed>
</trkpt>
<trkpt lat="55.828506" lon="26.183002">
<ele>155.701294</ele>
<time>2010-07-17T13:16:16Z</time>
<desc>lat.=55.828506, lon.=26.183002, Alt.=155.701294m. Speed=10.836000m/h.</desc>
<speed>3.010000</speed>
</trkpt>
<trkpt lat="55.828514" lon="26.182947">
<ele>155.998169</ele>
<time>2010-07-17T13:16:17Z</time>
<desc>lat.=55.828514, lon.=26.182947, Alt.=155.998169m. Speed=9.468000m/h.</desc>
<speed>2.630000</speed>
</trkpt>
<trkpt lat="55.828506" lon="26.182863">
<ele>156.670044</ele>
<time>2010-07-17T13:16:18Z</time>
<desc>lat.=55.828506, lon.=26.182863, Alt.=156.670044m. Speed=10.692000m/h.</desc>
<speed>2.970000</speed>
</trkpt>
<trkpt lat="55.828503" lon="26.182787">
<ele>157.244263</ele>
<time>2010-07-17T13:16:19Z</time>
<desc>lat.=55.828503, lon.=26.182787, Alt.=157.244263m. Speed=10.116000m/h.</desc>
<speed>2.810000</speed>
</trkpt>
<trkpt lat="55.828503" lon="26.182749">
<ele>157.318481</ele>
<time>2010-07-17T13:16:20Z</time>
<desc>lat.=55.828503, lon.=26.182749, Alt.=157.318481m. Speed=7.632000m/h.</desc>
<speed>2.120000</speed>
</trkpt>
<trkpt lat="55.828499" lon="26.182713">
<ele>157.509888</ele>
<time>2010-07-17T13:16:21Z</time>
<desc>lat.=55.828499, lon.=26.182713, Alt.=157.509888m. Speed=7.308000m/h.</desc>
<speed>2.030000</speed>
</trkpt>
<trkpt lat="55.828503" lon="26.182669">
<ele>157.459106</ele>
<time>2010-07-17T13:16:22Z</time>
<desc>lat.=55.828503, lon.=26.182669, Alt.=157.459106m. Speed=7.524000m/h.</desc>
<speed>2.090000</speed>
</trkpt>
<trkpt lat="55.828514" lon="26.182611">
<ele>157.545044</ele>
<time>2010-07-17T13:16:23Z</time>
<desc>lat.=55.828514, lon.=26.182611, Alt.=157.545044m. Speed=10.836000m/h.</desc>
<speed>3.010000</speed>
</trkpt>
<trkpt lat="55.828529" lon="26.182554">
<ele>157.545044</ele>
<time>2010-07-17T13:16:24Z</time>
<desc>lat.=55.828529, lon.=26.182554, Alt.=157.545044m. Speed=11.988000m/h.</desc>
<speed>3.330000</speed>
</trkpt>
<trkpt lat="55.828541" lon="26.182505">
<ele>157.630981</ele>
<time>2010-07-17T13:16:25Z</time>
<desc>lat.=55.828541, lon.=26.182505, Alt.=157.630981m. Speed=10.764000m/h.</desc>
<speed>2.990000</speed>
</trkpt>
<trkpt lat="55.828548" lon="26.182465">
<ele>157.584106</ele>
<time>2010-07-17T13:16:26Z</time>
<desc>lat.=55.828548, lon.=26.182465, Alt.=157.584106m. Speed=7.776000m/h.</desc>
<speed>2.160000</speed>
</trkpt>
<trkpt lat="55.828560" lon="26.182419">
<ele>157.802856</ele>
<time>2010-07-17T13:16:27Z</time>
<desc>lat.=55.828560, lon.=26.182419, Alt.=157.802856m. Speed=8.352000m/h.</desc>
<speed>2.320000</speed>
</trkpt>
<trkpt lat="55.828571" lon="26.182369">
<ele>158.052856</ele>
<time>2010-07-17T13:16:28Z</time>
<desc>lat.=55.828571, lon.=26.182369, Alt.=158.052856m. Speed=8.460000m/h.</desc>
<speed>2.350000</speed>
</trkpt>
<trkpt lat="55.828587" lon="26.182329">
<ele>158.177856</ele>
<time>2010-07-17T13:16:29Z</time>
<desc>lat.=55.828587, lon.=26.182329, Alt.=158.177856m. Speed=8.424000m/h.</desc>
<speed>2.340000</speed>
</trkpt>
<trkpt lat="55.828598" lon="26.182280">
<ele>157.998169</ele>
<time>2010-07-17T13:16:30Z</time>
<desc>lat.=55.828598, lon.=26.182280, Alt.=157.998169m. Speed=8.820000m/h.</desc>
<speed>2.450000</speed>
</trkpt>
<trkpt lat="55.828640" lon="26.182222">
<ele>159.482544</ele>
<time>2010-07-17T13:16:31Z</time>
<desc>lat.=55.828640, lon.=26.182222, Alt.=159.482544m. Speed=12.564000m/h.</desc>
<speed>3.490000</speed>
</trkpt>
<trkpt lat="55.828663" lon="26.182158">
<ele>159.474731</ele>
<time>2010-07-17T13:16:32Z</time>
<desc>lat.=55.828663, lon.=26.182158, Alt.=159.474731m. Speed=10.476000m/h.</desc>
<speed>2.910000</speed>
</trkpt>
<trkpt lat="55.828686" lon="26.182116">
<ele>159.451294</ele>
<time>2010-07-17T13:16:33Z</time>
<desc>lat.=55.828686, lon.=26.182116, Alt.=159.451294m. Speed=9.324000m/h.</desc>
<speed>2.590000</speed>
</trkpt>
<trkpt lat="55.828705" lon="26.182072">
<ele>159.252075</ele>
<time>2010-07-17T13:16:34Z</time>
<desc>lat.=55.828705, lon.=26.182072, Alt.=159.252075m. Speed=9.072000m/h.</desc>
<speed>2.520000</speed>
</trkpt>
<trkpt lat="55.828735" lon="26.182026">
<ele>160.162231</ele>
<time>2010-07-17T13:16:35Z</time>
<desc>lat.=55.828735, lon.=26.182026, Alt.=160.162231m. Speed=7.056000m/h.</desc>
<speed>1.960000</speed>
</trkpt>
<trkpt lat="55.828747" lon="26.181978">
<ele>159.931763</ele>
<time>2010-07-17T13:16:36Z</time>
<desc>lat.=55.828747, lon.=26.181978, Alt.=159.931763m. Speed=9.144000m/h.</desc>
<speed>2.540000</speed>
</trkpt>
<trkpt lat="55.828762" lon="26.181940">
<ele>159.943481</ele>
<time>2010-07-17T13:16:37Z</time>
<desc>lat.=55.828762, lon.=26.181940, Alt.=159.943481m. Speed=7.848000m/h.</desc>
<speed>2.180000</speed>
</trkpt>
<trkpt lat="55.828773" lon="26.181911">
<ele>159.724731</ele>
<time>2010-07-17T13:16:38Z</time>
<desc>lat.=55.828773, lon.=26.181911, Alt.=159.724731m. Speed=11.664000m/h.</desc>
<speed>3.240000</speed>
</trkpt>
<trkpt lat="55.828800" lon="26.181864">
<ele>159.974731</ele>
<time>2010-07-17T13:16:39Z</time>
<desc>lat.=55.828800, lon.=26.181864, Alt.=159.974731m. Speed=9.072000m/h.</desc>
<speed>2.520000</speed>
</trkpt>
<trkpt lat="55.828812" lon="26.181810">
<ele>160.220825</ele>
<time>2010-07-17T13:16:40Z</time>
<desc>lat.=55.828812, lon.=26.181810, Alt.=160.220825m. Speed=8.244000m/h.</desc>
<speed>2.290000</speed>
</trkpt>
<trkpt lat="55.828835" lon="26.181759">
<ele>160.154419</ele>
<time>2010-07-17T13:16:41Z</time>
<desc>lat.=55.828835, lon.=26.181759, Alt.=160.154419m. Speed=8.028000m/h.</desc>
<speed>2.230000</speed>
</trkpt>
<trkpt lat="55.828850" lon="26.181705">
<ele>159.814575</ele>
<time>2010-07-17T13:16:42Z</time>
<desc>lat.=55.828850, lon.=26.181705, Alt.=159.814575m. Speed=7.812000m/h.</desc>
<speed>2.170000</speed>
</trkpt>
<trkpt lat="55.828861" lon="26.181667">
<ele>159.564575</ele>
<time>2010-07-17T13:16:43Z</time>
<desc>lat.=55.828861, lon.=26.181667, Alt.=159.564575m. Speed=7.884000m/h.</desc>
<speed>2.190000</speed>
</trkpt>
<trkpt lat="55.828907" lon="26.181572">
<ele>159.252075</ele>
<time>2010-07-17T13:16:44Z</time>
<desc>lat.=55.828907, lon.=26.181572, Alt.=159.252075m. Speed=9.252000m/h.</desc>
<speed>2.570000</speed>
</trkpt>
<trkpt lat="55.828938" lon="26.181524">
<ele>159.404419</ele>
<time>2010-07-17T13:16:45Z</time>
<desc>lat.=55.828938, lon.=26.181524, Alt.=159.404419m. Speed=9.324000m/h.</desc>
<speed>2.590000</speed>
</trkpt>
<trkpt lat="55.828964" lon="26.181469">
<ele>159.431763</ele>
<time>2010-07-17T13:16:46Z</time>
<desc>lat.=55.828964, lon.=26.181469, Alt.=159.431763m. Speed=8.208000m/h.</desc>
<speed>2.280000</speed>
</trkpt>
<trkpt lat="55.828983" lon="26.181435">
<ele>159.244263</ele>
<time>2010-07-17T13:16:47Z</time>
<desc>lat.=55.828983, lon.=26.181435, Alt.=159.244263m. Speed=8.712000m/h.</desc>
<speed>2.420000</speed>
</trkpt>
<trkpt lat="55.829002" lon="26.181406">
<ele>159.123169</ele>
<time>2010-07-17T13:16:48Z</time>
<desc>lat.=55.829002, lon.=26.181406, Alt.=159.123169m. Speed=6.984000m/h.</desc>
<speed>1.940000</speed>
</trkpt>
<trkpt lat="55.829018" lon="26.181389">
<ele>159.115356</ele>
<time>2010-07-17T13:16:49Z</time>
<desc>lat.=55.829018, lon.=26.181389, Alt.=159.115356m. Speed=5.364000m/h.</desc>
<speed>1.490000</speed>
</trkpt>
<trkpt lat="55.829033" lon="26.181345">
<ele>158.986450</ele>
<time>2010-07-17T13:16:50Z</time>
<desc>lat.=55.829033, lon.=26.181345, Alt.=158.986450m. Speed=8.208000m/h.</desc>
<speed>2.280000</speed>
</trkpt>
<trkpt lat="55.829056" lon="26.181322">
<ele>158.857544</ele>
<time>2010-07-17T13:16:51Z</time>
<desc>lat.=55.829056, lon.=26.181322, Alt.=158.857544m. Speed=5.472000m/h.</desc>
<speed>1.520000</speed>
</trkpt>
<trkpt lat="55.829071" lon="26.181303">
<ele>158.798950</ele>
<time>2010-07-17T13:16:52Z</time>
<desc>lat.=55.829071, lon.=26.181303, Alt.=158.798950m. Speed=4.968000m/h.</desc>
<speed>1.380000</speed>
</trkpt>
<trkpt lat="55.829086" lon="26.181274">
<ele>158.713013</ele>
<time>2010-07-17T13:16:53Z</time>
<desc>lat.=55.829086, lon.=26.181274, Alt.=158.713013m. Speed=5.112000m/h.</desc>
<speed>1.420000</speed>
</trkpt>
<trkpt lat="55.829102" lon="26.181246">
<ele>158.599731</ele>
<time>2010-07-17T13:16:54Z</time>
<desc>lat.=55.829102, lon.=26.181246, Alt.=158.599731m. Speed=5.184000m/h.</desc>
<speed>1.440000</speed>
</trkpt>
<trkpt lat="55.829124" lon="26.181210">
<ele>158.517700</ele>
<time>2010-07-17T13:16:55Z</time>
<desc>lat.=55.829124, lon.=26.181210, Alt.=158.517700m. Speed=7.020000m/h.</desc>
<speed>1.950000</speed>
</trkpt>
<trkpt lat="55.829155" lon="26.181154">
<ele>158.494263</ele>
<time>2010-07-17T13:16:56Z</time>
<desc>lat.=55.829155, lon.=26.181154, Alt.=158.494263m. Speed=8.604000m/h.</desc>
<speed>2.390000</speed>
</trkpt>
<trkpt lat="55.829185" lon="26.181118">
<ele>158.173950</ele>
<time>2010-07-17T13:16:57Z</time>
<desc>lat.=55.829185, lon.=26.181118, Alt.=158.173950m. Speed=8.532000m/h.</desc>
<speed>2.370000</speed>
</trkpt>
<trkpt lat="55.829216" lon="26.181068">
<ele>157.935669</ele>
<time>2010-07-17T13:16:58Z</time>
<desc>lat.=55.829216, lon.=26.181068, Alt.=157.935669m. Speed=9.396000m/h.</desc>
<speed>2.610000</speed>
</trkpt>
<trkpt lat="55.829254" lon="26.180988">
<ele>157.279419</ele>
<time>2010-07-17T13:16:59Z</time>
<desc>lat.=55.829254, lon.=26.180988, Alt.=157.279419m. Speed=5.076000m/h.</desc>
<speed>1.410000</speed>
</trkpt>
<trkpt lat="55.829281" lon="26.180944">
<ele>156.959106</ele>
<time>2010-07-17T13:17:00Z</time>
<desc>lat.=55.829281, lon.=26.180944, Alt.=156.959106m. Speed=7.272000m/h.</desc>
<speed>2.020000</speed>
</trkpt>
<trkpt lat="55.829311" lon="26.180891">
<ele>156.759888</ele>
<time>2010-07-17T13:17:01Z</time>
<desc>lat.=55.829311, lon.=26.180891, Alt.=156.759888m. Speed=9.468000m/h.</desc>
<speed>2.630000</speed>
</trkpt>
<trkpt lat="55.829338" lon="26.180849">
<ele>156.548950</ele>
<time>2010-07-17T13:17:02Z</time>
<desc>lat.=55.829338, lon.=26.180849, Alt.=156.548950m. Speed=9.288000m/h.</desc>
<speed>2.580000</speed>
</trkpt>
<trkpt lat="55.829376" lon="26.180792">
<ele>156.392700</ele>
<time>2010-07-17T13:17:03Z</time>
<desc>lat.=55.829376, lon.=26.180792, Alt.=156.392700m. Speed=8.856000m/h.</desc>
<speed>2.460000</speed>
</trkpt>
<trkpt lat="55.829391" lon="26.180765">
<ele>156.134888</ele>
<time>2010-07-17T13:17:04Z</time>
<desc>lat.=55.829391, lon.=26.180765, Alt.=156.134888m. Speed=12.600000m/h.</desc>
<speed>3.500000</speed>
</trkpt>
<trkpt lat="55.829411" lon="26.180723">
<ele>155.861450</ele>
<time>2010-07-17T13:17:05Z</time>
<desc>lat.=55.829411, lon.=26.180723, Alt.=155.861450m. Speed=8.532000m/h.</desc>
<speed>2.370000</speed>
</trkpt>
<trkpt lat="55.829449" lon="26.180660">
<ele>156.420044</ele>
<time>2010-07-17T13:17:06Z</time>
<desc>lat.=55.829449, lon.=26.180660, Alt.=156.420044m. Speed=7.992000m/h.</desc>
<speed>2.220000</speed>
</trkpt>
<trkpt lat="55.829498" lon="26.180609">
<ele>156.740356</ele>
<time>2010-07-17T13:17:07Z</time>
<desc>lat.=55.829498, lon.=26.180609, Alt.=156.740356m. Speed=8.928000m/h.</desc>
<speed>2.480000</speed>
</trkpt>
<trkpt lat="55.829529" lon="26.180563">
<ele>156.779419</ele>
<time>2010-07-17T13:17:08Z</time>
<desc>lat.=55.829529, lon.=26.180563, Alt.=156.779419m. Speed=9.216000m/h.</desc>
<speed>2.560000</speed>
</trkpt>
<trkpt lat="55.829594" lon="26.180504">
<ele>157.673950</ele>
<time>2010-07-17T13:17:09Z</time>
<desc>lat.=55.829594, lon.=26.180504, Alt.=157.673950m. Speed=8.784000m/h.</desc>
<speed>2.440000</speed>
</trkpt>
<trkpt lat="55.829643" lon="26.180456">
<ele>158.404419</ele>
<time>2010-07-17T13:17:10Z</time>
<desc>lat.=55.829643, lon.=26.180456, Alt.=158.404419m. Speed=10.656000m/h.</desc>
<speed>2.960000</speed>
</trkpt>
<trkpt lat="55.829674" lon="26.180412">
<ele>158.400513</ele>
<time>2010-07-17T13:17:11Z</time>
<desc>lat.=55.829674, lon.=26.180412, Alt.=158.400513m. Speed=9.144000m/h.</desc>
<speed>2.540000</speed>
</trkpt>
<trkpt lat="55.829704" lon="26.180372">
<ele>157.873169</ele>
<time>2010-07-17T13:17:12Z</time>
<desc>lat.=55.829704, lon.=26.180372, Alt.=157.873169m. Speed=10.584000m/h.</desc>
<speed>2.940000</speed>
</trkpt>
<trkpt lat="55.829735" lon="26.180319">
<ele>157.666138</ele>
<time>2010-07-17T13:17:13Z</time>
<desc>lat.=55.829735, lon.=26.180319, Alt.=157.666138m. Speed=11.016000m/h.</desc>
<speed>3.060000</speed>
</trkpt>
<trkpt lat="55.829765" lon="26.180264">
<ele>158.447388</ele>
<time>2010-07-17T13:17:14Z</time>
<desc>lat.=55.829765, lon.=26.180264, Alt.=158.447388m. Speed=12.960000m/h.</desc>
<speed>3.600000</speed>
</trkpt>
<trkpt lat="55.829796" lon="26.180210">
<ele>159.298950</ele>
<time>2010-07-17T13:17:15Z</time>
<desc>lat.=55.829796, lon.=26.180210, Alt.=159.298950m. Speed=15.912000m/h.</desc>
<speed>4.420000</speed>
</trkpt>
<trkpt lat="55.829830" lon="26.180162">
<ele>159.646606</ele>
<time>2010-07-17T13:17:16Z</time>
<desc>lat.=55.829830, lon.=26.180162, Alt.=159.646606m. Speed=14.364000m/h.</desc>
<speed>3.990000</speed>
</trkpt>
<trkpt lat="55.829868" lon="26.180113">
<ele>159.630981</ele>
<time>2010-07-17T13:17:17Z</time>
<desc>lat.=55.829868, lon.=26.180113, Alt.=159.630981m. Speed=16.128000m/h.</desc>
<speed>4.480000</speed>
</trkpt>
<trkpt lat="55.829899" lon="26.180058">
<ele>159.420044</ele>
<time>2010-07-17T13:17:18Z</time>
<desc>lat.=55.829899, lon.=26.180058, Alt.=159.420044m. Speed=15.120000m/h.</desc>
<speed>4.200000</speed>
</trkpt>
<trkpt lat="55.829926" lon="26.180016">
<ele>159.388794</ele>
<time>2010-07-17T13:17:19Z</time>
<desc>lat.=55.829926, lon.=26.180016, Alt.=159.388794m. Speed=13.248000m/h.</desc>
<speed>3.680000</speed>
</trkpt>
<trkpt lat="55.829960" lon="26.179956">
<ele>159.025513</ele>
<time>2010-07-17T13:17:20Z</time>
<desc>lat.=55.829960, lon.=26.179956, Alt.=159.025513m. Speed=16.236000m/h.</desc>
<speed>4.510000</speed>
</trkpt>
<trkpt lat="55.829994" lon="26.179897">
<ele>159.595825</ele>
<time>2010-07-17T13:17:21Z</time>
<desc>lat.=55.829994, lon.=26.179897, Alt.=159.595825m. Speed=13.824000m/h.</desc>
<speed>3.840000</speed>
</trkpt>
<trkpt lat="55.830025" lon="26.179844">
<ele>159.420044</ele>
<time>2010-07-17T13:17:22Z</time>
<desc>lat.=55.830025, lon.=26.179844, Alt.=159.420044m. Speed=14.796000m/h.</desc>
<speed>4.110000</speed>
</trkpt>
<trkpt lat="55.830067" lon="26.179790">
<ele>158.990356</ele>
<time>2010-07-17T13:17:23Z</time>
<desc>lat.=55.830067, lon.=26.179790, Alt.=158.990356m. Speed=15.948000m/h.</desc>
<speed>4.430000</speed>
</trkpt>
<trkpt lat="55.830105" lon="26.179745">
<ele>158.959106</ele>
<time>2010-07-17T13:17:24Z</time>
<desc>lat.=55.830105, lon.=26.179745, Alt.=158.959106m. Speed=14.796000m/h.</desc>
<speed>4.110000</speed>
</trkpt>
<trkpt lat="55.830151" lon="26.179697">
<ele>158.713013</ele>
<time>2010-07-17T13:17:25Z</time>
<desc>lat.=55.830151, lon.=26.179697, Alt.=158.713013m. Speed=18.504000m/h.</desc>
<speed>5.140000</speed>
</trkpt>
<trkpt lat="55.830196" lon="26.179647">
<ele>158.384888</ele>
<time>2010-07-17T13:17:26Z</time>
<desc>lat.=55.830196, lon.=26.179647, Alt.=158.384888m. Speed=17.604000m/h.</desc>
<speed>4.890000</speed>
</trkpt>
<trkpt lat="55.830227" lon="26.179598">
<ele>158.271606</ele>
<time>2010-07-17T13:17:27Z</time>
<desc>lat.=55.830227, lon.=26.179598, Alt.=158.271606m. Speed=16.200001m/h.</desc>
<speed>4.500000</speed>
</trkpt>
<trkpt lat="55.830257" lon="26.179546">
<ele>158.068481</ele>
<time>2010-07-17T13:17:28Z</time>
<desc>lat.=55.830257, lon.=26.179546, Alt.=158.068481m. Speed=14.580000m/h.</desc>
<speed>4.050000</speed>
</trkpt>
<trkpt lat="55.830288" lon="26.179495">
<ele>158.181763</ele>
<time>2010-07-17T13:17:29Z</time>
<desc>lat.=55.830288, lon.=26.179495, Alt.=158.181763m. Speed=15.408000m/h.</desc>
<speed>4.280000</speed>
</trkpt>
<trkpt lat="55.830326" lon="26.179449">
<ele>158.420044</ele>
<time>2010-07-17T13:17:30Z</time>
<desc>lat.=55.830326, lon.=26.179449, Alt.=158.420044m. Speed=13.716000m/h.</desc>
<speed>3.810000</speed>
</trkpt>
<trkpt lat="55.830349" lon="26.179409">
<ele>158.310669</ele>
<time>2010-07-17T13:17:31Z</time>
<desc>lat.=55.830349, lon.=26.179409, Alt.=158.310669m. Speed=10.836000m/h.</desc>
<speed>3.010000</speed>
</trkpt>
<trkpt lat="55.830372" lon="26.179379">
<ele>158.154419</ele>
<time>2010-07-17T13:17:32Z</time>
<desc>lat.=55.830372, lon.=26.179379, Alt.=158.154419m. Speed=12.744000m/h.</desc>
<speed>3.540000</speed>
</trkpt>
<trkpt lat="55.830406" lon="26.179335">
<ele>158.224731</ele>
<time>2010-07-17T13:17:33Z</time>
<desc>lat.=55.830406, lon.=26.179335, Alt.=158.224731m. Speed=14.472000m/h.</desc>
<speed>4.020000</speed>
</trkpt>
<trkpt lat="55.830437" lon="26.179291">
<ele>158.529419</ele>
<time>2010-07-17T13:17:34Z</time>
<desc>lat.=55.830437, lon.=26.179291, Alt.=158.529419m. Speed=14.004000m/h.</desc>
<speed>3.890000</speed>
</trkpt>
<trkpt lat="55.830467" lon="26.179232">
<ele>159.255981</ele>
<time>2010-07-17T13:17:35Z</time>
<desc>lat.=55.830467, lon.=26.179232, Alt.=159.255981m. Speed=12.168000m/h.</desc>
<speed>3.380000</speed>
</trkpt>
<trkpt lat="55.830482" lon="26.179182">
<ele>159.060669</ele>
<time>2010-07-17T13:17:36Z</time>
<desc>lat.=55.830482, lon.=26.179182, Alt.=159.060669m. Speed=9.288000m/h.</desc>
<speed>2.580000</speed>
</trkpt>
<trkpt lat="55.830513" lon="26.179136">
<ele>159.068481</ele>
<time>2010-07-17T13:17:37Z</time>
<desc>lat.=55.830513, lon.=26.179136, Alt.=159.068481m. Speed=12.816000m/h.</desc>
<speed>3.560000</speed>
</trkpt>
<trkpt lat="55.830540" lon="26.179108">
<ele>158.822388</ele>
<time>2010-07-17T13:17:38Z</time>
<desc>lat.=55.830540, lon.=26.179108, Alt.=158.822388m. Speed=9.504000m/h.</desc>
<speed>2.640000</speed>
</trkpt>
<trkpt lat="55.830559" lon="26.179073">
<ele>158.470825</ele>
<time>2010-07-17T13:17:39Z</time>
<desc>lat.=55.830559, lon.=26.179073, Alt.=158.470825m. Speed=9.972000m/h.</desc>
<speed>2.770000</speed>
</trkpt>
<trkpt lat="55.830589" lon="26.179039">
<ele>158.052856</ele>
<time>2010-07-17T13:17:40Z</time>
<desc>lat.=55.830589, lon.=26.179039, Alt.=158.052856m. Speed=11.052000m/h.</desc>
<speed>3.070000</speed>
</trkpt>
<trkpt lat="55.830620" lon="26.179007">
<ele>157.740356</ele>
<time>2010-07-17T13:17:41Z</time>
<desc>lat.=55.830620, lon.=26.179007, Alt.=157.740356m. Speed=9.288000m/h.</desc>
<speed>2.580000</speed>
</trkpt>
<trkpt lat="55.830647" lon="26.178976">
<ele>157.470825</ele>
<time>2010-07-17T13:17:42Z</time>
<desc>lat.=55.830647, lon.=26.178976, Alt.=157.470825m. Speed=11.052000m/h.</desc>
<speed>3.070000</speed>
</trkpt>
<trkpt lat="55.830681" lon="26.178968">
<ele>157.146606</ele>
<time>2010-07-17T13:17:43Z</time>
<desc>lat.=55.830681, lon.=26.178968, Alt.=157.146606m. Speed=10.188000m/h.</desc>
<speed>2.830000</speed>
</trkpt>
<trkpt lat="55.830730" lon="26.178978">
<ele>156.798950</ele>
<time>2010-07-17T13:17:44Z</time>
<desc>lat.=55.830730, lon.=26.178978, Alt.=156.798950m. Speed=9.504000m/h.</desc>
<speed>2.640000</speed>
</trkpt>
<trkpt lat="55.830750" lon="26.178959">
<ele>156.533325</ele>
<time>2010-07-17T13:17:45Z</time>
<desc>lat.=55.830750, lon.=26.178959, Alt.=156.533325m. Speed=6.660000m/h.</desc>
<speed>1.850000</speed>
</trkpt>
<trkpt lat="55.830772" lon="26.178936">
<ele>156.568481</ele>
<time>2010-07-17T13:17:46Z</time>
<desc>lat.=55.830772, lon.=26.178936, Alt.=156.568481m. Speed=5.832000m/h.</desc>
<speed>1.620000</speed>
</trkpt>
<trkpt lat="55.830795" lon="26.178913">
<ele>156.486450</ele>
<time>2010-07-17T13:17:47Z</time>
<desc>lat.=55.830795, lon.=26.178913, Alt.=156.486450m. Speed=6.300000m/h.</desc>
<speed>1.750000</speed>
</trkpt>
<trkpt lat="55.830814" lon="26.178888">
<ele>156.244263</ele>
<time>2010-07-17T13:17:48Z</time>
<desc>lat.=55.830814, lon.=26.178888, Alt.=156.244263m. Speed=5.724000m/h.</desc>
<speed>1.590000</speed>
</trkpt>
<trkpt lat="55.830833" lon="26.178867">
<ele>156.162231</ele>
<time>2010-07-17T13:17:49Z</time>
<desc>lat.=55.830833, lon.=26.178867, Alt.=156.162231m. Speed=5.976000m/h.</desc>
<speed>1.660000</speed>
</trkpt>
<trkpt lat="55.830856" lon="26.178858">
<ele>156.064575</ele>
<time>2010-07-17T13:17:50Z</time>
<desc>lat.=55.830856, lon.=26.178858, Alt.=156.064575m. Speed=4.644000m/h.</desc>
<speed>1.290000</speed>
</trkpt>
<trkpt lat="55.830883" lon="26.178839">
<ele>155.904419</ele>
<time>2010-07-17T13:17:51Z</time>
<desc>lat.=55.830883, lon.=26.178839, Alt.=155.904419m. Speed=7.740000m/h.</desc>
<speed>2.150000</speed>
</trkpt>
<trkpt lat="55.830914" lon="26.178822">
<ele>155.830200</ele>
<time>2010-07-17T13:17:52Z</time>
<desc>lat.=55.830914, lon.=26.178822, Alt.=155.830200m. Speed=6.732000m/h.</desc>
<speed>1.870000</speed>
</trkpt>
<trkpt lat="55.830944" lon="26.178810">
<ele>155.834106</ele>
<time>2010-07-17T13:17:53Z</time>
<desc>lat.=55.830944, lon.=26.178810, Alt.=155.834106m. Speed=4.536000m/h.</desc>
<speed>1.260000</speed>
</trkpt>
<trkpt lat="55.830971" lon="26.178789">
<ele>156.107544</ele>
<time>2010-07-17T13:17:54Z</time>
<desc>lat.=55.830971, lon.=26.178789, Alt.=156.107544m. Speed=3.600000m/h.</desc>
<speed>1.000000</speed>
</trkpt>
<trkpt lat="55.831001" lon="26.178768">
<ele>156.564575</ele>
<time>2010-07-17T13:17:55Z</time>
<desc>lat.=55.831001, lon.=26.178768, Alt.=156.564575m. Speed=4.608000m/h.</desc>
<speed>1.280000</speed>
</trkpt>
<trkpt lat="55.831024" lon="26.178762">
<ele>156.439575</ele>
<time>2010-07-17T13:17:56Z</time>
<desc>lat.=55.831024, lon.=26.178762, Alt.=156.439575m. Speed=6.984000m/h.</desc>
<speed>1.940000</speed>
</trkpt>
<trkpt lat="55.831055" lon="26.178701">
<ele>158.443481</ele>
<time>2010-07-17T13:17:57Z</time>
<desc>lat.=55.831055, lon.=26.178701, Alt.=158.443481m. Speed=8.496000m/h.</desc>
<speed>2.360000</speed>
</trkpt>
<trkpt lat="55.831089" lon="26.178675">
<ele>158.490356</ele>
<time>2010-07-17T13:17:58Z</time>
<desc>lat.=55.831089, lon.=26.178675, Alt.=158.490356m. Speed=8.388000m/h.</desc>
<speed>2.330000</speed>
</trkpt>
<trkpt lat="55.831116" lon="26.178667">
<ele>158.252075</ele>
<time>2010-07-17T13:17:59Z</time>
<desc>lat.=55.831116, lon.=26.178667, Alt.=158.252075m. Speed=8.496000m/h.</desc>
<speed>2.360000</speed>
</trkpt>
<trkpt lat="55.831173" lon="26.178648">
<ele>158.677856</ele>
<time>2010-07-17T13:18:00Z</time>
<desc>lat.=55.831173, lon.=26.178648, Alt.=158.677856m. Speed=10.224000m/h.</desc>
<speed>2.840000</speed>
</trkpt>
<trkpt lat="55.831226" lon="26.178612">
<ele>158.552856</ele>
<time>2010-07-17T13:18:01Z</time>
<desc>lat.=55.831226, lon.=26.178612, Alt.=158.552856m. Speed=15.084000m/h.</desc>
<speed>4.190000</speed>
</trkpt>
<trkpt lat="55.831268" lon="26.178587">
<ele>158.193481</ele>
<time>2010-07-17T13:18:02Z</time>
<desc>lat.=55.831268, lon.=26.178587, Alt.=158.193481m. Speed=14.976000m/h.</desc>
<speed>4.160000</speed>
</trkpt>
<trkpt lat="55.831310" lon="26.178556">
<ele>157.951294</ele>
<time>2010-07-17T13:18:03Z</time>
<desc>lat.=55.831310, lon.=26.178556, Alt.=157.951294m. Speed=14.364000m/h.</desc>
<speed>3.990000</speed>
</trkpt>
<trkpt lat="55.831360" lon="26.178516">
<ele>158.224731</ele>
<time>2010-07-17T13:18:04Z</time>
<desc>lat.=55.831360, lon.=26.178516, Alt.=158.224731m. Speed=12.996000m/h.</desc>
<speed>3.610000</speed>
</trkpt>
<trkpt lat="55.831406" lon="26.178473">
<ele>157.955200</ele>
<time>2010-07-17T13:18:05Z</time>
<desc>lat.=55.831406, lon.=26.178473, Alt.=157.955200m. Speed=14.832000m/h.</desc>
<speed>4.120000</speed>
</trkpt>
<trkpt lat="55.831451" lon="26.178432">
<ele>158.056763</ele>
<time>2010-07-17T13:18:06Z</time>
<desc>lat.=55.831451, lon.=26.178432, Alt.=158.056763m. Speed=14.112000m/h.</desc>
<speed>3.920000</speed>
</trkpt>
<trkpt lat="55.831501" lon="26.178368">
<ele>159.029419</ele>
<time>2010-07-17T13:18:07Z</time>
<desc>lat.=55.831501, lon.=26.178368, Alt.=159.029419m. Speed=19.620001m/h.</desc>
<speed>5.450000</speed>
</trkpt>
<trkpt lat="55.831554" lon="26.178329">
<ele>159.357544</ele>
<time>2010-07-17T13:18:08Z</time>
<desc>lat.=55.831554, lon.=26.178329, Alt.=159.357544m. Speed=23.148001m/h.</desc>
<speed>6.430000</speed>
</trkpt>
<trkpt lat="55.831596" lon="26.178291">
<ele>159.759888</ele>
<time>2010-07-17T13:18:09Z</time>
<desc>lat.=55.831596, lon.=26.178291, Alt.=159.759888m. Speed=17.388000m/h.</desc>
<speed>4.830000</speed>
</trkpt>
<trkpt lat="55.831646" lon="26.178246">
<ele>159.966919</ele>
<time>2010-07-17T13:18:10Z</time>
<desc>lat.=55.831646, lon.=26.178246, Alt.=159.966919m. Speed=20.304001m/h.</desc>
<speed>5.640000</speed>
</trkpt>
<trkpt lat="55.831707" lon="26.178194">
<ele>160.142700</ele>
<time>2010-07-17T13:18:11Z</time>
<desc>lat.=55.831707, lon.=26.178194, Alt.=160.142700m. Speed=20.736000m/h.</desc>
<speed>5.760000</speed>
</trkpt>
<trkpt lat="55.831776" lon="26.178137">
<ele>160.677856</ele>
<time>2010-07-17T13:18:12Z</time>
<desc>lat.=55.831776, lon.=26.178137, Alt.=160.677856m. Speed=19.548000m/h.</desc>
<speed>5.430000</speed>
</trkpt>
<trkpt lat="55.831837" lon="26.178091">
<ele>161.017700</ele>
<time>2010-07-17T13:18:13Z</time>
<desc>lat.=55.831837, lon.=26.178091, Alt.=161.017700m. Speed=20.052000m/h.</desc>
<speed>5.570000</speed>
</trkpt>
<trkpt lat="55.831898" lon="26.178041">
<ele>161.380981</ele>
<time>2010-07-17T13:18:14Z</time>
<desc>lat.=55.831898, lon.=26.178041, Alt.=161.380981m. Speed=19.368000m/h.</desc>
<speed>5.380000</speed>
</trkpt>
<trkpt lat="55.831951" lon="26.177980">
<ele>161.412231</ele>
<time>2010-07-17T13:18:15Z</time>
<desc>lat.=55.831951, lon.=26.177980, Alt.=161.412231m. Speed=16.416000m/h.</desc>
<speed>4.560000</speed>
</trkpt>
<trkpt lat="55.832001" lon="26.177950">
<ele>161.076294</ele>
<time>2010-07-17T13:18:16Z</time>
<desc>lat.=55.832001, lon.=26.177950, Alt.=161.076294m. Speed=16.704000m/h.</desc>
<speed>4.640000</speed>
</trkpt>
<trkpt lat="55.832050" lon="26.177923">
<ele>161.209106</ele>
<time>2010-07-17T13:18:17Z</time>
<desc>lat.=55.832050, lon.=26.177923, Alt.=161.209106m. Speed=18.972000m/h.</desc>
<speed>5.270000</speed>
</trkpt>
<trkpt lat="55.832104" lon="26.177902">
<ele>161.088013</ele>
<time>2010-07-17T13:18:18Z</time>
<desc>lat.=55.832104, lon.=26.177902, Alt.=161.088013m. Speed=19.620001m/h.</desc>
<speed>5.450000</speed>
</trkpt>
<trkpt lat="55.832169" lon="26.177889">
<ele>161.041138</ele>
<time>2010-07-17T13:18:19Z</time>
<desc>lat.=55.832169, lon.=26.177889, Alt.=161.041138m. Speed=19.368000m/h.</desc>
<speed>5.380000</speed>
</trkpt>
<trkpt lat="55.832226" lon="26.177864">
<ele>160.736450</ele>
<time>2010-07-17T13:18:20Z</time>
<desc>lat.=55.832226, lon.=26.177864, Alt.=160.736450m. Speed=20.087999m/h.</desc>
<speed>5.580000</speed>
</trkpt>
<trkpt lat="55.832279" lon="26.177837">
<ele>160.548950</ele>
<time>2010-07-17T13:18:21Z</time>
<desc>lat.=55.832279, lon.=26.177837, Alt.=160.548950m. Speed=20.304001m/h.</desc>
<speed>5.640000</speed>
</trkpt>
<trkpt lat="55.832336" lon="26.177807">
<ele>160.916138</ele>
<time>2010-07-17T13:18:22Z</time>
<desc>lat.=55.832336, lon.=26.177807, Alt.=160.916138m. Speed=20.520000m/h.</desc>
<speed>5.700000</speed>
</trkpt>
<trkpt lat="55.832394" lon="26.177788">
<ele>162.005981</ele>
<time>2010-07-17T13:18:23Z</time>
<desc>lat.=55.832394, lon.=26.177788, Alt.=162.005981m. Speed=21.312000m/h.</desc>
<speed>5.920000</speed>
</trkpt>
<trkpt lat="55.832462" lon="26.177759">
<ele>162.584106</ele>
<time>2010-07-17T13:18:24Z</time>
<desc>lat.=55.832462, lon.=26.177759, Alt.=162.584106m. Speed=21.240000m/h.</desc>
<speed>5.900000</speed>
</trkpt>
<trkpt lat="55.832523" lon="26.177732">
<ele>163.369263</ele>
<time>2010-07-17T13:18:25Z</time>
<desc>lat.=55.832523, lon.=26.177732, Alt.=163.369263m. Speed=20.412001m/h.</desc>
<speed>5.670000</speed>
</trkpt>
<trkpt lat="55.832581" lon="26.177710">
<ele>163.127075</ele>
<time>2010-07-17T13:18:26Z</time>
<desc>lat.=55.832581, lon.=26.177710, Alt.=163.127075m. Speed=21.888000m/h.</desc>
<speed>6.080000</speed>
</trkpt>
<trkpt lat="55.832649" lon="26.177683">
<ele>162.705200</ele>
<time>2010-07-17T13:18:27Z</time>
<desc>lat.=55.832649, lon.=26.177683, Alt.=162.705200m. Speed=21.132000m/h.</desc>
<speed>5.870000</speed>
</trkpt>
<trkpt lat="55.832718" lon="26.177652">
<ele>163.513794</ele>
<time>2010-07-17T13:18:28Z</time>
<desc>lat.=55.832718, lon.=26.177652, Alt.=163.513794m. Speed=19.224001m/h.</desc>
<speed>5.340000</speed>
</trkpt>
<trkpt lat="55.832787" lon="26.177643">
<ele>164.392700</ele>
<time>2010-07-17T13:18:29Z</time>
<desc>lat.=55.832787, lon.=26.177643, Alt.=164.392700m. Speed=20.664000m/h.</desc>
<speed>5.740000</speed>
</trkpt>
<trkpt lat="55.832848" lon="26.177633">
<ele>164.994263</ele>
<time>2010-07-17T13:18:30Z</time>
<desc>lat.=55.832848, lon.=26.177633, Alt.=164.994263m. Speed=20.628000m/h.</desc>
<speed>5.730000</speed>
</trkpt>
<trkpt lat="55.832905" lon="26.177624">
<ele>164.791138</ele>
<time>2010-07-17T13:18:31Z</time>
<desc>lat.=55.832905, lon.=26.177624, Alt.=164.791138m. Speed=20.016001m/h.</desc>
<speed>5.560000</speed>
</trkpt>
<trkpt lat="55.832954" lon="26.177620">
<ele>164.759888</ele>
<time>2010-07-17T13:18:32Z</time>
<desc>lat.=55.832954, lon.=26.177620, Alt.=164.759888m. Speed=18.000000m/h.</desc>
<speed>5.000000</speed>
</trkpt>
<trkpt lat="55.833012" lon="26.177614">
<ele>165.447388</ele>
<time>2010-07-17T13:18:33Z</time>
<desc>lat.=55.833012, lon.=26.177614, Alt.=165.447388m. Speed=19.188000m/h.</desc>
<speed>5.330000</speed>
</trkpt>
<trkpt lat="55.833065" lon="26.177605">
<ele>166.107544</ele>
<time>2010-07-17T13:18:34Z</time>
<desc>lat.=55.833065, lon.=26.177605, Alt.=166.107544m. Speed=18.143999m/h.</desc>
<speed>5.040000</speed>
</trkpt>
<trkpt lat="55.833164" lon="26.177553">
<ele>169.213013</ele>
<time>2010-07-17T13:18:35Z</time>
<desc>lat.=55.833164, lon.=26.177553, Alt.=169.213013m. Speed=17.172001m/h.</desc>
<speed>4.770000</speed>
</trkpt>
<trkpt lat="55.833225" lon="26.177538">
<ele>170.439575</ele>
<time>2010-07-17T13:18:36Z</time>
<desc>lat.=55.833225, lon.=26.177538, Alt.=170.439575m. Speed=17.243999m/h.</desc>
<speed>4.790000</speed>
</trkpt>
<trkpt lat="55.833286" lon="26.177526">
<ele>172.388794</ele>
<time>2010-07-17T13:18:37Z</time>
<desc>lat.=55.833286, lon.=26.177526, Alt.=172.388794m. Speed=17.459999m/h.</desc>
<speed>4.850000</speed>
</trkpt>
<trkpt lat="55.833344" lon="26.177523">
<ele>174.295044</ele>
<time>2010-07-17T13:18:38Z</time>
<desc>lat.=55.833344, lon.=26.177523, Alt.=174.295044m. Speed=16.488001m/h.</desc>
<speed>4.580000</speed>
</trkpt>
<trkpt lat="55.833389" lon="26.177528">
<ele>176.146606</ele>
<time>2010-07-17T13:18:39Z</time>
<desc>lat.=55.833389, lon.=26.177528, Alt.=176.146606m. Speed=12.456000m/h.</desc>
<speed>3.460000</speed>
</trkpt>
<trkpt lat="55.833427" lon="26.177534">
<ele>177.498169</ele>
<time>2010-07-17T13:18:40Z</time>
<desc>lat.=55.833427, lon.=26.177534, Alt.=177.498169m. Speed=11.808000m/h.</desc>
<speed>3.280000</speed>
</trkpt>
<trkpt lat="55.833450" lon="26.177534">
<ele>177.377075</ele>
<time>2010-07-17T13:18:41Z</time>
<desc>lat.=55.833450, lon.=26.177534, Alt.=177.377075m. Speed=6.012000m/h.</desc>
<speed>1.670000</speed>
</trkpt>
<trkpt lat="55.833481" lon="26.177534">
<ele>177.537231</ele>
<time>2010-07-17T13:18:42Z</time>
<desc>lat.=55.833481, lon.=26.177534, Alt.=177.537231m. Speed=10.440000m/h.</desc>
<speed>2.900000</speed>
</trkpt>
<trkpt lat="55.833527" lon="26.177536">
<ele>177.666138</ele>
<time>2010-07-17T13:18:43Z</time>
<desc>lat.=55.833527, lon.=26.177536, Alt.=177.666138m. Speed=15.624000m/h.</desc>
<speed>4.340000</speed>
</trkpt>
<trkpt lat="55.833588" lon="26.177511">
<ele>179.072388</ele>
<time>2010-07-17T13:18:44Z</time>
<desc>lat.=55.833588, lon.=26.177511, Alt.=179.072388m. Speed=20.412001m/h.</desc>
<speed>5.670000</speed>
</trkpt>
<trkpt lat="55.833645" lon="26.177475">
<ele>179.490356</ele>
<time>2010-07-17T13:18:45Z</time>
<desc>lat.=55.833645, lon.=26.177475, Alt.=179.490356m. Speed=21.240000m/h.</desc>
<speed>5.900000</speed>
</trkpt>
<trkpt lat="55.833702" lon="26.177427">
<ele>179.802856</ele>
<time>2010-07-17T13:18:46Z</time>
<desc>lat.=55.833702, lon.=26.177427, Alt.=179.802856m. Speed=21.959999m/h.</desc>
<speed>6.100000</speed>
</trkpt>
<trkpt lat="55.833775" lon="26.177357">
<ele>178.021606</ele>
<time>2010-07-17T13:18:47Z</time>
<desc>lat.=55.833775, lon.=26.177357, Alt.=178.021606m. Speed=23.868000m/h.</desc>
<speed>6.630000</speed>
</trkpt>
<trkpt lat="55.833824" lon="26.177307">
<ele>178.533325</ele>
<time>2010-07-17T13:18:48Z</time>
<desc>lat.=55.833824, lon.=26.177307, Alt.=178.533325m. Speed=19.691999m/h.</desc>
<speed>5.470000</speed>
</trkpt>
<trkpt lat="55.833881" lon="26.177250">
<ele>176.873169</ele>
<time>2010-07-17T13:18:49Z</time>
<desc>lat.=55.833881, lon.=26.177250, Alt.=176.873169m. Speed=19.656000m/h.</desc>
<speed>5.460000</speed>
</trkpt>
<trkpt lat="55.833927" lon="26.177197">
<ele>175.787231</ele>
<time>2010-07-17T13:18:50Z</time>
<desc>lat.=55.833927, lon.=26.177197, Alt.=175.787231m. Speed=18.576000m/h.</desc>
<speed>5.160000</speed>
</trkpt>
<trkpt lat="55.833977" lon="26.177145">
<ele>175.908325</ele>
<time>2010-07-17T13:18:51Z</time>
<desc>lat.=55.833977, lon.=26.177145, Alt.=175.908325m. Speed=18.576000m/h.</desc>
<speed>5.160000</speed>
</trkpt>
<trkpt lat="55.834023" lon="26.177097">
<ele>176.408325</ele>
<time>2010-07-17T13:18:52Z</time>
<desc>lat.=55.834023, lon.=26.177097, Alt.=176.408325m. Speed=17.639999m/h.</desc>
<speed>4.900000</speed>
</trkpt>
<trkpt lat="55.834068" lon="26.177061">
<ele>175.990356</ele>
<time>2010-07-17T13:18:53Z</time>
<desc>lat.=55.834068, lon.=26.177061, Alt.=175.990356m. Speed=17.136000m/h.</desc>
<speed>4.760000</speed>
</trkpt>
<trkpt lat="55.834110" lon="26.177031">
<ele>175.451294</ele>
<time>2010-07-17T13:18:54Z</time>
<desc>lat.=55.834110, lon.=26.177031, Alt.=175.451294m. Speed=15.840000m/h.</desc>
<speed>4.400000</speed>
</trkpt>
<trkpt lat="55.834152" lon="26.176996">
<ele>175.228638</ele>
<time>2010-07-17T13:18:55Z</time>
<desc>lat.=55.834152, lon.=26.176996, Alt.=175.228638m. Speed=15.912000m/h.</desc>
<speed>4.420000</speed>
</trkpt>
<trkpt lat="55.834190" lon="26.176962">
<ele>175.775513</ele>
<time>2010-07-17T13:18:56Z</time>
<desc>lat.=55.834190, lon.=26.176962, Alt.=175.775513m. Speed=16.308001m/h.</desc>
<speed>4.530000</speed>
</trkpt>
<trkpt lat="55.834232" lon="26.176928">
<ele>176.943481</ele>
<time>2010-07-17T13:18:57Z</time>
<desc>lat.=55.834232, lon.=26.176928, Alt.=176.943481m. Speed=16.920000m/h.</desc>
<speed>4.700000</speed>
</trkpt>
<trkpt lat="55.834270" lon="26.176882">
<ele>176.697388</ele>
<time>2010-07-17T13:18:58Z</time>
<desc>lat.=55.834270, lon.=26.176882, Alt.=176.697388m. Speed=18.576000m/h.</desc>
<speed>5.160000</speed>
</trkpt>
<trkpt lat="55.834316" lon="26.176830">
<ele>176.068481</ele>
<time>2010-07-17T13:18:59Z</time>
<desc>lat.=55.834316, lon.=26.176830, Alt.=176.068481m. Speed=19.656000m/h.</desc>
<speed>5.460000</speed>
</trkpt>
<trkpt lat="55.834358" lon="26.176767">
<ele>175.224731</ele>
<time>2010-07-17T13:19:00Z</time>
<desc>lat.=55.834358, lon.=26.176767, Alt.=175.224731m. Speed=22.392000m/h.</desc>
<speed>6.220000</speed>
</trkpt>
<trkpt lat="55.834404" lon="26.176693">
<ele>175.005981</ele>
<time>2010-07-17T13:19:01Z</time>
<desc>lat.=55.834404, lon.=26.176693, Alt.=175.005981m. Speed=24.875999m/h.</desc>
<speed>6.910000</speed>
</trkpt>
<trkpt lat="55.834446" lon="26.176607">
<ele>174.408325</ele>
<time>2010-07-17T13:19:02Z</time>
<desc>lat.=55.834446, lon.=26.176607, Alt.=174.408325m. Speed=26.063999m/h.</desc>
<speed>7.240000</speed>
</trkpt>
<trkpt lat="55.834492" lon="26.176517">
<ele>174.029419</ele>
<time>2010-07-17T13:19:03Z</time>
<desc>lat.=55.834492, lon.=26.176517, Alt.=174.029419m. Speed=26.927999m/h.</desc>
<speed>7.480000</speed>
</trkpt>
<trkpt lat="55.834538" lon="26.176418">
<ele>173.373169</ele>
<time>2010-07-17T13:19:04Z</time>
<desc>lat.=55.834538, lon.=26.176418, Alt.=173.373169m. Speed=28.548000m/h.</desc>
<speed>7.930000</speed>
</trkpt>
<trkpt lat="55.834587" lon="26.176315">
<ele>172.771606</ele>
<time>2010-07-17T13:19:05Z</time>
<desc>lat.=55.834587, lon.=26.176315, Alt.=172.771606m. Speed=28.296000m/h.</desc>
<speed>7.860000</speed>
</trkpt>
<trkpt lat="55.834644" lon="26.176216">
<ele>172.353638</ele>
<time>2010-07-17T13:19:06Z</time>
<desc>lat.=55.834644, lon.=26.176216, Alt.=172.353638m. Speed=27.540001m/h.</desc>
<speed>7.650000</speed>
</trkpt>
<trkpt lat="55.834686" lon="26.176130">
<ele>172.130981</ele>
<time>2010-07-17T13:19:07Z</time>
<desc>lat.=55.834686, lon.=26.176130, Alt.=172.130981m. Speed=24.120001m/h.</desc>
<speed>6.700000</speed>
</trkpt>
<trkpt lat="55.834728" lon="26.176048">
<ele>171.923950</ele>
<time>2010-07-17T13:19:08Z</time>
<desc>lat.=55.834728, lon.=26.176048, Alt.=171.923950m. Speed=24.191999m/h.</desc>
<speed>6.720000</speed>
</trkpt>
<trkpt lat="55.834763" lon="26.175972">
<ele>171.740356</ele>
<time>2010-07-17T13:19:09Z</time>
<desc>lat.=55.834763, lon.=26.175972, Alt.=171.740356m. Speed=21.132000m/h.</desc>
<speed>5.870000</speed>
</trkpt>
<trkpt lat="55.834789" lon="26.175898">
<ele>171.548950</ele>
<time>2010-07-17T13:19:10Z</time>
<desc>lat.=55.834789, lon.=26.175898, Alt.=171.548950m. Speed=19.332001m/h.</desc>
<speed>5.370000</speed>
</trkpt>
<trkpt lat="55.834808" lon="26.175823">
<ele>171.584106</ele>
<time>2010-07-17T13:19:11Z</time>
<desc>lat.=55.834808, lon.=26.175823, Alt.=171.584106m. Speed=18.576000m/h.</desc>
<speed>5.160000</speed>
</trkpt>
<trkpt lat="55.834824" lon="26.175732">
<ele>171.255981</ele>
<time>2010-07-17T13:19:12Z</time>
<desc>lat.=55.834824, lon.=26.175732, Alt.=171.255981m. Speed=21.959999m/h.</desc>
<speed>6.100000</speed>
</trkpt>
<trkpt lat="55.834835" lon="26.175640">
<ele>170.252075</ele>
<time>2010-07-17T13:19:13Z</time>
<desc>lat.=55.834835, lon.=26.175640, Alt.=170.252075m. Speed=18.900000m/h.</desc>
<speed>5.250000</speed>
</trkpt>
<trkpt lat="55.834835" lon="26.175552">
<ele>167.642700</ele>
<time>2010-07-17T13:19:14Z</time>
<desc>lat.=55.834835, lon.=26.175552, Alt.=167.642700m. Speed=18.540001m/h.</desc>
<speed>5.150000</speed>
</trkpt>
<trkpt lat="55.834812" lon="26.175467">
<ele>167.935669</ele>
<time>2010-07-17T13:19:15Z</time>
<desc>lat.=55.834812, lon.=26.175467, Alt.=167.935669m. Speed=20.952000m/h.</desc>
<speed>5.820000</speed>
</trkpt>
<trkpt lat="55.834797" lon="26.175385">
<ele>165.845825</ele>
<time>2010-07-17T13:19:16Z</time>
<desc>lat.=55.834797, lon.=26.175385, Alt.=165.845825m. Speed=21.816000m/h.</desc>
<speed>6.060000</speed>
</trkpt>
<trkpt lat="55.834778" lon="26.175303">
<ele>165.607544</ele>
<time>2010-07-17T13:19:17Z</time>
<desc>lat.=55.834778, lon.=26.175303, Alt.=165.607544m. Speed=18.468000m/h.</desc>
<speed>5.130000</speed>
</trkpt>
<trkpt lat="55.834766" lon="26.175245">
<ele>165.541138</ele>
<time>2010-07-17T13:19:18Z</time>
<desc>lat.=55.834766, lon.=26.175245, Alt.=165.541138m. Speed=15.444000m/h.</desc>
<speed>4.290000</speed>
</trkpt>
<trkpt lat="55.834755" lon="26.175196">
<ele>165.892700</ele>
<time>2010-07-17T13:19:19Z</time>
<desc>lat.=55.834755, lon.=26.175196, Alt.=165.892700m. Speed=11.124000m/h.</desc>
<speed>3.090000</speed>
</trkpt>
<trkpt lat="55.834740" lon="26.175144">
<ele>166.416138</ele>
<time>2010-07-17T13:19:20Z</time>
<desc>lat.=55.834740, lon.=26.175144, Alt.=166.416138m. Speed=12.132000m/h.</desc>
<speed>3.370000</speed>
</trkpt>
<trkpt lat="55.834747" lon="26.175076">
<ele>165.982544</ele>
<time>2010-07-17T13:19:21Z</time>
<desc>lat.=55.834747, lon.=26.175076, Alt.=165.982544m. Speed=13.608000m/h.</desc>
<speed>3.780000</speed>
</trkpt>
<trkpt lat="55.834736" lon="26.175018">
<ele>166.365356</ele>
<time>2010-07-17T13:19:22Z</time>
<desc>lat.=55.834736, lon.=26.175018, Alt.=166.365356m. Speed=10.188000m/h.</desc>
<speed>2.830000</speed>
</trkpt>
<trkpt lat="55.834717" lon="26.174963">
<ele>166.931763</ele>
<time>2010-07-17T13:19:23Z</time>
<desc>lat.=55.834717, lon.=26.174963, Alt.=166.931763m. Speed=12.456000m/h.</desc>
<speed>3.460000</speed>
</trkpt>
<trkpt lat="55.834705" lon="26.174896">
<ele>167.599731</ele>
<time>2010-07-17T13:19:24Z</time>
<desc>lat.=55.834705, lon.=26.174896, Alt.=167.599731m. Speed=14.940000m/h.</desc>
<speed>4.150000</speed>
</trkpt>
<trkpt lat="55.834702" lon="26.174833">
<ele>168.302856</ele>
<time>2010-07-17T13:19:25Z</time>
<desc>lat.=55.834702, lon.=26.174833, Alt.=168.302856m. Speed=14.364000m/h.</desc>
<speed>3.990000</speed>
</trkpt>
<trkpt lat="55.834702" lon="26.174757">
<ele>169.209106</ele>
<time>2010-07-17T13:19:26Z</time>
<desc>lat.=55.834702, lon.=26.174757, Alt.=169.209106m. Speed=14.940000m/h.</desc>
<speed>4.150000</speed>
</trkpt>
<trkpt lat="55.834709" lon="26.174685">
<ele>169.877075</ele>
<time>2010-07-17T13:19:27Z</time>
<desc>lat.=55.834709, lon.=26.174685, Alt.=169.877075m. Speed=15.012000m/h.</desc>
<speed>4.170000</speed>
</trkpt>
<trkpt lat="55.834721" lon="26.174616">
<ele>170.431763</ele>
<time>2010-07-17T13:19:28Z</time>
<desc>lat.=55.834721, lon.=26.174616, Alt.=170.431763m. Speed=13.752000m/h.</desc>
<speed>3.820000</speed>
</trkpt>
<trkpt lat="55.834740" lon="26.174553">
<ele>170.880981</ele>
<time>2010-07-17T13:19:29Z</time>
<desc>lat.=55.834740, lon.=26.174553, Alt.=170.880981m. Speed=15.552000m/h.</desc>
<speed>4.320000</speed>
</trkpt>
<trkpt lat="55.834755" lon="26.174503">
<ele>171.248169</ele>
<time>2010-07-17T13:19:30Z</time>
<desc>lat.=55.834755, lon.=26.174503, Alt.=171.248169m. Speed=10.476000m/h.</desc>
<speed>2.910000</speed>
</trkpt>
<trkpt lat="55.834755" lon="26.174431">
<ele>171.752075</ele>
<time>2010-07-17T13:19:31Z</time>
<desc>lat.=55.834755, lon.=26.174431, Alt.=171.752075m. Speed=13.176000m/h.</desc>
<speed>3.660000</speed>
</trkpt>
<trkpt lat="55.834751" lon="26.174366">
<ele>172.209106</ele>
<time>2010-07-17T13:19:32Z</time>
<desc>lat.=55.834751, lon.=26.174366, Alt.=172.209106m. Speed=13.248000m/h.</desc>
<speed>3.680000</speed>
</trkpt>
<trkpt lat="55.834755" lon="26.174299">
<ele>172.552856</ele>
<time>2010-07-17T13:19:33Z</time>
<desc>lat.=55.834755, lon.=26.174299, Alt.=172.552856m. Speed=12.168000m/h.</desc>
<speed>3.380000</speed>
</trkpt>
<trkpt lat="55.834782" lon="26.174202">
<ele>172.959106</ele>
<time>2010-07-17T13:19:34Z</time>
<desc>lat.=55.834782, lon.=26.174202, Alt.=172.959106m. Speed=19.691999m/h.</desc>
<speed>5.470000</speed>
</trkpt>
<trkpt lat="55.834797" lon="26.174118">
<ele>173.271606</ele>
<time>2010-07-17T13:19:35Z</time>
<desc>lat.=55.834797, lon.=26.174118, Alt.=173.271606m. Speed=15.804000m/h.</desc>
<speed>4.390000</speed>
</trkpt>
<trkpt lat="55.834827" lon="26.174078">
<ele>173.545044</ele>
<time>2010-07-17T13:19:36Z</time>
<desc>lat.=55.834827, lon.=26.174078, Alt.=173.545044m. Speed=13.392000m/h.</desc>
<speed>3.720000</speed>
</trkpt>
<trkpt lat="55.834854" lon="26.174026">
<ele>173.787231</ele>
<time>2010-07-17T13:19:37Z</time>
<desc>lat.=55.834854, lon.=26.174026, Alt.=173.787231m. Speed=13.788000m/h.</desc>
<speed>3.830000</speed>
</trkpt>
<trkpt lat="55.834873" lon="26.173964">
<ele>174.084106</ele>
<time>2010-07-17T13:19:38Z</time>
<desc>lat.=55.834873, lon.=26.173964, Alt.=174.084106m. Speed=13.284000m/h.</desc>
<speed>3.690000</speed>
</trkpt>
<trkpt lat="55.834885" lon="26.173908">
<ele>174.423950</ele>
<time>2010-07-17T13:19:39Z</time>
<desc>lat.=55.834885, lon.=26.173908, Alt.=174.423950m. Speed=9.072000m/h.</desc>
<speed>2.520000</speed>
</trkpt>
<trkpt lat="55.834900" lon="26.173857">
<ele>174.752075</ele>
<time>2010-07-17T13:19:40Z</time>
<desc>lat.=55.834900, lon.=26.173857, Alt.=174.752075m. Speed=10.692000m/h.</desc>
<speed>2.970000</speed>
</trkpt>
<trkpt lat="55.834908" lon="26.173805">
<ele>175.166138</ele>
<time>2010-07-17T13:19:41Z</time>
<desc>lat.=55.834908, lon.=26.173805, Alt.=175.166138m. Speed=7.344000m/h.</desc>
<speed>2.040000</speed>
</trkpt>
<trkpt lat="55.834930" lon="26.173731">
<ele>175.619263</ele>
<time>2010-07-17T13:19:42Z</time>
<desc>lat.=55.834930, lon.=26.173731, Alt.=175.619263m. Speed=12.744000m/h.</desc>
<speed>3.540000</speed>
</trkpt>
<trkpt lat="55.834969" lon="26.173647">
<ele>176.134888</ele>
<time>2010-07-17T13:19:43Z</time>
<desc>lat.=55.834969, lon.=26.173647, Alt.=176.134888m. Speed=17.424000m/h.</desc>
<speed>4.840000</speed>
</trkpt>
<trkpt lat="55.834957" lon="26.173449">
<ele>176.685669</ele>
<time>2010-07-17T13:19:44Z</time>
<desc>lat.=55.834957, lon.=26.173449, Alt.=176.685669m. Speed=15.372000m/h.</desc>
<speed>4.270000</speed>
</trkpt>
<trkpt lat="55.834991" lon="26.173359">
<ele>177.091919</ele>
<time>2010-07-17T13:19:45Z</time>
<desc>lat.=55.834991, lon.=26.173359, Alt.=177.091919m. Speed=14.004000m/h.</desc>
<speed>3.890000</speed>
</trkpt>
<trkpt lat="55.835022" lon="26.173281">
<ele>177.513794</ele>
<time>2010-07-17T13:19:46Z</time>
<desc>lat.=55.835022, lon.=26.173281, Alt.=177.513794m. Speed=19.980000m/h.</desc>
<speed>5.550000</speed>
</trkpt>
<trkpt lat="55.835052" lon="26.173187">
<ele>177.923950</ele>
<time>2010-07-17T13:19:47Z</time>
<desc>lat.=55.835052, lon.=26.173187, Alt.=177.923950m. Speed=19.799999m/h.</desc>
<speed>5.500000</speed>
</trkpt>
<trkpt lat="55.835102" lon="26.173120">
<ele>178.713013</ele>
<time>2010-07-17T13:19:48Z</time>
<desc>lat.=55.835102, lon.=26.173120, Alt.=178.713013m. Speed=17.964001m/h.</desc>
<speed>4.990000</speed>
</trkpt>
<trkpt lat="55.835125" lon="26.173079">
<ele>179.142700</ele>
<time>2010-07-17T13:19:49Z</time>
<desc>lat.=55.835125, lon.=26.173079, Alt.=179.142700m. Speed=13.860000m/h.</desc>
<speed>3.850000</speed>
</trkpt>
<trkpt lat="55.835155" lon="26.173027">
<ele>179.642700</ele>
<time>2010-07-17T13:19:50Z</time>
<desc>lat.=55.835155, lon.=26.173027, Alt.=179.642700m. Speed=10.332000m/h.</desc>
<speed>2.870000</speed>
</trkpt>
<trkpt lat="55.835178" lon="26.172991">
<ele>180.009888</ele>
<time>2010-07-17T13:19:51Z</time>
<desc>lat.=55.835178, lon.=26.172991, Alt.=180.009888m. Speed=8.676000m/h.</desc>
<speed>2.410000</speed>
</trkpt>
<trkpt lat="55.835201" lon="26.172937">
<ele>180.353638</ele>
<time>2010-07-17T13:19:52Z</time>
<desc>lat.=55.835201, lon.=26.172937, Alt.=180.353638m. Speed=7.344000m/h.</desc>
<speed>2.040000</speed>
</trkpt>
<trkpt lat="55.835220" lon="26.172882">
<ele>180.826294</ele>
<time>2010-07-17T13:19:53Z</time>
<desc>lat.=55.835220, lon.=26.172882, Alt.=180.826294m. Speed=11.556000m/h.</desc>
<speed>3.210000</speed>
</trkpt>
<trkpt lat="55.835243" lon="26.172817">
<ele>181.080200</ele>
<time>2010-07-17T13:19:54Z</time>
<desc>lat.=55.835243, lon.=26.172817, Alt.=181.080200m. Speed=13.968000m/h.</desc>
<speed>3.880000</speed>
</trkpt>
<trkpt lat="55.835274" lon="26.172745">
<ele>181.252075</ele>
<time>2010-07-17T13:19:55Z</time>
<desc>lat.=55.835274, lon.=26.172745, Alt.=181.252075m. Speed=12.780000m/h.</desc>
<speed>3.550000</speed>
</trkpt>
<trkpt lat="55.835297" lon="26.172693">
<ele>181.521606</ele>
<time>2010-07-17T13:19:56Z</time>
<desc>lat.=55.835297, lon.=26.172693, Alt.=181.521606m. Speed=9.648000m/h.</desc>
<speed>2.680000</speed>
</trkpt>
<trkpt lat="55.835331" lon="26.172647">
<ele>181.709106</ele>
<time>2010-07-17T13:19:57Z</time>
<desc>lat.=55.835331, lon.=26.172647, Alt.=181.709106m. Speed=7.200000m/h.</desc>
<speed>2.000000</speed>
</trkpt>
<trkpt lat="55.835354" lon="26.172611">
<ele>182.091919</ele>
<time>2010-07-17T13:19:58Z</time>
<desc>lat.=55.835354, lon.=26.172611, Alt.=182.091919m. Speed=6.480000m/h.</desc>
<speed>1.800000</speed>
</trkpt>
<trkpt lat="55.835369" lon="26.172579">
<ele>182.240356</ele>
<time>2010-07-17T13:19:59Z</time>
<desc>lat.=55.835369, lon.=26.172579, Alt.=182.240356m. Speed=4.644000m/h.</desc>
<speed>1.290000</speed>
</trkpt>
<trkpt lat="55.835400" lon="26.172529">
<ele>182.412231</ele>
<time>2010-07-17T13:20:00Z</time>
<desc>lat.=55.835400, lon.=26.172529, Alt.=182.412231m. Speed=6.480000m/h.</desc>
<speed>1.800000</speed>
</trkpt>
<trkpt lat="55.835438" lon="26.172470">
<ele>182.787231</ele>
<time>2010-07-17T13:20:01Z</time>
<desc>lat.=55.835438, lon.=26.172470, Alt.=182.787231m. Speed=5.112000m/h.</desc>
<speed>1.420000</speed>
</trkpt>
<trkpt lat="55.835453" lon="26.172440">
<ele>183.037231</ele>
<time>2010-07-17T13:20:02Z</time>
<desc>lat.=55.835453, lon.=26.172440, Alt.=183.037231m. Speed=4.464000m/h.</desc>
<speed>1.240000</speed>
</trkpt>
<trkpt lat="55.835476" lon="26.172398">
<ele>183.455200</ele>
<time>2010-07-17T13:20:03Z</time>
<desc>lat.=55.835476, lon.=26.172398, Alt.=183.455200m. Speed=5.184000m/h.</desc>
<speed>1.440000</speed>
</trkpt>
<trkpt lat="55.835495" lon="26.172371">
<ele>183.459106</ele>
<time>2010-07-17T13:20:04Z</time>
<desc>lat.=55.835495, lon.=26.172371, Alt.=183.459106m. Speed=5.796000m/h.</desc>
<speed>1.610000</speed>
</trkpt>
<trkpt lat="55.835506" lon="26.172335">
<ele>183.548950</ele>
<time>2010-07-17T13:20:05Z</time>
<desc>lat.=55.835506, lon.=26.172335, Alt.=183.548950m. Speed=4.680000m/h.</desc>
<speed>1.300000</speed>
</trkpt>
<trkpt lat="55.835526" lon="26.172306">
<ele>183.619263</ele>
<time>2010-07-17T13:20:06Z</time>
<desc>lat.=55.835526, lon.=26.172306, Alt.=183.619263m. Speed=6.012000m/h.</desc>
<speed>1.670000</speed>
</trkpt>
<trkpt lat="55.835552" lon="26.172270">
<ele>183.634888</ele>
<time>2010-07-17T13:20:07Z</time>
<desc>lat.=55.835552, lon.=26.172270, Alt.=183.634888m. Speed=6.840000m/h.</desc>
<speed>1.900000</speed>
</trkpt>
<trkpt lat="55.835571" lon="26.172237">
<ele>183.709106</ele>
<time>2010-07-17T13:20:08Z</time>
<desc>lat.=55.835571, lon.=26.172237, Alt.=183.709106m. Speed=5.544000m/h.</desc>
<speed>1.540000</speed>
</trkpt>
<trkpt lat="55.835594" lon="26.172211">
<ele>183.935669</ele>
<time>2010-07-17T13:20:09Z</time>
<desc>lat.=55.835594, lon.=26.172211, Alt.=183.935669m. Speed=6.516000m/h.</desc>
<speed>1.810000</speed>
</trkpt>
<trkpt lat="55.835617" lon="26.172186">
<ele>184.177856</ele>
<time>2010-07-17T13:20:10Z</time>
<desc>lat.=55.835617, lon.=26.172186, Alt.=184.177856m. Speed=5.976000m/h.</desc>
<speed>1.660000</speed>
</trkpt>
<trkpt lat="55.835636" lon="26.172159">
<ele>184.213013</ele>
<time>2010-07-17T13:20:11Z</time>
<desc>lat.=55.835636, lon.=26.172159, Alt.=184.213013m. Speed=7.128000m/h.</desc>
<speed>1.980000</speed>
</trkpt>
<trkpt lat="55.835651" lon="26.172121">
<ele>183.853638</ele>
<time>2010-07-17T13:20:12Z</time>
<desc>lat.=55.835651, lon.=26.172121, Alt.=183.853638m. Speed=6.372000m/h.</desc>
<speed>1.770000</speed>
</trkpt>
<trkpt lat="55.835670" lon="26.172100">
<ele>183.400513</ele>
<time>2010-07-17T13:20:13Z</time>
<desc>lat.=55.835670, lon.=26.172100, Alt.=183.400513m. Speed=4.428000m/h.</desc>
<speed>1.230000</speed>
</trkpt>
<trkpt lat="55.835686" lon="26.172094">
<ele>183.279419</ele>
<time>2010-07-17T13:20:14Z</time>
<desc>lat.=55.835686, lon.=26.172094, Alt.=183.279419m. Speed=5.364000m/h.</desc>
<speed>1.490000</speed>
</trkpt>
<trkpt lat="55.835705" lon="26.172075">
<ele>183.431763</ele>
<time>2010-07-17T13:20:15Z</time>
<desc>lat.=55.835705, lon.=26.172075, Alt.=183.431763m. Speed=6.444000m/h.</desc>
<speed>1.790000</speed>
</trkpt>
<trkpt lat="55.835728" lon="26.172056">
<ele>183.599731</ele>
<time>2010-07-17T13:20:16Z</time>
<desc>lat.=55.835728, lon.=26.172056, Alt.=183.599731m. Speed=8.208000m/h.</desc>
<speed>2.280000</speed>
</trkpt>
<trkpt lat="55.835754" lon="26.172022">
<ele>183.693481</ele>
<time>2010-07-17T13:20:17Z</time>
<desc>lat.=55.835754, lon.=26.172022, Alt.=183.693481m. Speed=7.416000m/h.</desc>
<speed>2.060000</speed>
</trkpt>
<trkpt lat="55.835789" lon="26.171959">
<ele>183.502075</ele>
<time>2010-07-17T13:20:18Z</time>
<desc>lat.=55.835789, lon.=26.171959, Alt.=183.502075m. Speed=7.164000m/h.</desc>
<speed>1.990000</speed>
</trkpt>
<trkpt lat="55.835823" lon="26.171911">
<ele>184.009888</ele>
<time>2010-07-17T13:20:19Z</time>
<desc>lat.=55.835823, lon.=26.171911, Alt.=184.009888m. Speed=10.080000m/h.</desc>
<speed>2.800000</speed>
</trkpt>
<trkpt lat="55.835861" lon="26.171844">
<ele>181.568481</ele>
<time>2010-07-17T13:20:20Z</time>
<desc>lat.=55.835861, lon.=26.171844, Alt.=181.568481m. Speed=10.728000m/h.</desc>
<speed>2.980000</speed>
</trkpt>
<trkpt lat="55.835892" lon="26.171783">
<ele>179.830200</ele>
<time>2010-07-17T13:20:21Z</time>
<desc>lat.=55.835892, lon.=26.171783, Alt.=179.830200m. Speed=8.136000m/h.</desc>
<speed>2.260000</speed>
</trkpt>
<trkpt lat="55.835922" lon="26.171741">
<ele>179.357544</ele>
<time>2010-07-17T13:20:22Z</time>
<desc>lat.=55.835922, lon.=26.171741, Alt.=179.357544m. Speed=8.532000m/h.</desc>
<speed>2.370000</speed>
</trkpt>
<trkpt lat="55.835941" lon="26.171709">
<ele>179.400513</ele>
<time>2010-07-17T13:20:23Z</time>
<desc>lat.=55.835941, lon.=26.171709, Alt.=179.400513m. Speed=7.704000m/h.</desc>
<speed>2.140000</speed>
</trkpt>
<trkpt lat="55.835960" lon="26.171684">
<ele>179.154419</ele>
<time>2010-07-17T13:20:24Z</time>
<desc>lat.=55.835960, lon.=26.171684, Alt.=179.154419m. Speed=5.904000m/h.</desc>
<speed>1.640000</speed>
</trkpt>
<trkpt lat="55.835972" lon="26.171659">
<ele>178.826294</ele>
<time>2010-07-17T13:20:25Z</time>
<desc>lat.=55.835972, lon.=26.171659, Alt.=178.826294m. Speed=6.948000m/h.</desc>
<speed>1.930000</speed>
</trkpt>
<trkpt lat="55.835983" lon="26.171631">
<ele>179.009888</ele>
<time>2010-07-17T13:20:26Z</time>
<desc>lat.=55.835983, lon.=26.171631, Alt.=179.009888m. Speed=7.344000m/h.</desc>
<speed>2.040000</speed>
</trkpt>
<trkpt lat="55.835999" lon="26.171598">
<ele>178.529419</ele>
<time>2010-07-17T13:20:27Z</time>
<desc>lat.=55.835999, lon.=26.171598, Alt.=178.529419m. Speed=8.532000m/h.</desc>
<speed>2.370000</speed>
</trkpt>
<trkpt lat="55.836006" lon="26.171558">
<ele>177.955200</ele>
<time>2010-07-17T13:20:28Z</time>
<desc>lat.=55.836006, lon.=26.171558, Alt.=177.955200m. Speed=9.144000m/h.</desc>
<speed>2.540000</speed>
</trkpt>
<trkpt lat="55.836014" lon="26.171518">
<ele>178.146606</ele>
<time>2010-07-17T13:20:29Z</time>
<desc>lat.=55.836014, lon.=26.171518, Alt.=178.146606m. Speed=9.576000m/h.</desc>
<speed>2.660000</speed>
</trkpt>
<trkpt lat="55.836018" lon="26.171474">
<ele>178.295044</ele>
<time>2010-07-17T13:20:30Z</time>
<desc>lat.=55.836018, lon.=26.171474, Alt.=178.295044m. Speed=9.036000m/h.</desc>
<speed>2.510000</speed>
</trkpt>
<trkpt lat="55.836025" lon="26.171432">
<ele>178.338013</ele>
<time>2010-07-17T13:20:31Z</time>
<desc>lat.=55.836025, lon.=26.171432, Alt.=178.338013m. Speed=8.172000m/h.</desc>
<speed>2.270000</speed>
</trkpt>
<trkpt lat="55.836029" lon="26.171400">
<ele>178.330200</ele>
<time>2010-07-17T13:20:32Z</time>
<desc>lat.=55.836029, lon.=26.171400, Alt.=178.330200m. Speed=5.436000m/h.</desc>
<speed>1.510000</speed>
</trkpt>
<trkpt lat="55.836033" lon="26.171370">
<ele>178.427856</ele>
<time>2010-07-17T13:20:33Z</time>
<desc>lat.=55.836033, lon.=26.171370, Alt.=178.427856m. Speed=6.948000m/h.</desc>
<speed>1.930000</speed>
</trkpt>
<trkpt lat="55.836033" lon="26.171331">
<ele>178.713013</ele>
<time>2010-07-17T13:20:34Z</time>
<desc>lat.=55.836033, lon.=26.171331, Alt.=178.713013m. Speed=8.532000m/h.</desc>
<speed>2.370000</speed>
</trkpt>
<trkpt lat="55.836037" lon="26.171293">
<ele>178.959106</ele>
<time>2010-07-17T13:20:35Z</time>
<desc>lat.=55.836037, lon.=26.171293, Alt.=178.959106m. Speed=7.344000m/h.</desc>
<speed>2.040000</speed>
</trkpt>
<trkpt lat="55.836044" lon="26.171257">
<ele>179.146606</ele>
<time>2010-07-17T13:20:36Z</time>
<desc>lat.=55.836044, lon.=26.171257, Alt.=179.146606m. Speed=7.272000m/h.</desc>
<speed>2.020000</speed>
</trkpt>
<trkpt lat="55.836048" lon="26.171230">
<ele>179.353638</ele>
<time>2010-07-17T13:20:37Z</time>
<desc>lat.=55.836048, lon.=26.171230, Alt.=179.353638m. Speed=4.212000m/h.</desc>
<speed>1.170000</speed>
</trkpt>
<trkpt lat="55.836060" lon="26.171206">
<ele>179.552856</ele>
<time>2010-07-17T13:20:38Z</time>
<desc>lat.=55.836060, lon.=26.171206, Alt.=179.552856m. Speed=4.140000m/h.</desc>
<speed>1.150000</speed>
</trkpt>
<trkpt lat="55.836060" lon="26.171177">
<ele>179.841919</ele>
<time>2010-07-17T13:20:39Z</time>
<desc>lat.=55.836060, lon.=26.171177, Alt.=179.841919m. Speed=4.284000m/h.</desc>
<speed>1.190000</speed>
</trkpt>
<trkpt lat="55.836075" lon="26.171146">
<ele>180.064575</ele>
<time>2010-07-17T13:20:40Z</time>
<desc>lat.=55.836075, lon.=26.171146, Alt.=180.064575m. Speed=5.508000m/h.</desc>
<speed>1.530000</speed>
</trkpt>
<trkpt lat="55.836082" lon="26.171118">
<ele>180.041138</ele>
<time>2010-07-17T13:20:41Z</time>
<desc>lat.=55.836082, lon.=26.171118, Alt.=180.041138m. Speed=4.176000m/h.</desc>
<speed>1.160000</speed>
</trkpt>
<trkpt lat="55.836090" lon="26.171089">
<ele>179.951294</ele>
<time>2010-07-17T13:20:42Z</time>
<desc>lat.=55.836090, lon.=26.171089, Alt.=179.951294m. Speed=5.112000m/h.</desc>
<speed>1.420000</speed>
</trkpt>
<trkpt lat="55.836094" lon="26.171045">
<ele>179.826294</ele>
<time>2010-07-17T13:20:43Z</time>
<desc>lat.=55.836094, lon.=26.171045, Alt.=179.826294m. Speed=8.316000m/h.</desc>
<speed>2.310000</speed>
</trkpt>
<trkpt lat="55.836098" lon="26.171000">
<ele>180.045044</ele>
<time>2010-07-17T13:20:44Z</time>
<desc>lat.=55.836098, lon.=26.171000, Alt.=180.045044m. Speed=7.848000m/h.</desc>
<speed>2.180000</speed>
</trkpt>
<trkpt lat="55.836105" lon="26.170950">
<ele>179.935669</ele>
<time>2010-07-17T13:20:45Z</time>
<desc>lat.=55.836105, lon.=26.170950, Alt.=179.935669m. Speed=7.488000m/h.</desc>
<speed>2.080000</speed>
</trkpt>
<trkpt lat="55.836121" lon="26.170889">
<ele>179.826294</ele>
<time>2010-07-17T13:20:46Z</time>
<desc>lat.=55.836121, lon.=26.170889, Alt.=179.826294m. Speed=6.840000m/h.</desc>
<speed>1.900000</speed>
</trkpt>
<trkpt lat="55.836132" lon="26.170853">
<ele>179.673950</ele>
<time>2010-07-17T13:20:47Z</time>
<desc>lat.=55.836132, lon.=26.170853, Alt.=179.673950m. Speed=5.544000m/h.</desc>
<speed>1.540000</speed>
</trkpt>
<trkpt lat="55.836140" lon="26.170824">
<ele>179.560669</ele>
<time>2010-07-17T13:20:48Z</time>
<desc>lat.=55.836140, lon.=26.170824, Alt.=179.560669m. Speed=3.636000m/h.</desc>
<speed>1.010000</speed>
</trkpt>
<trkpt lat="55.836151" lon="26.170784">
<ele>179.642700</ele>
<time>2010-07-17T13:20:49Z</time>
<desc>lat.=55.836151, lon.=26.170784, Alt.=179.642700m. Speed=5.580000m/h.</desc>
<speed>1.550000</speed>
</trkpt>
<trkpt lat="55.836155" lon="26.170738">
<ele>179.880981</ele>
<time>2010-07-17T13:20:50Z</time>
<desc>lat.=55.836155, lon.=26.170738, Alt.=179.880981m. Speed=6.048000m/h.</desc>
<speed>1.680000</speed>
</trkpt>
<trkpt lat="55.836163" lon="26.170673">
<ele>179.666138</ele>
<time>2010-07-17T13:20:51Z</time>
<desc>lat.=55.836163, lon.=26.170673, Alt.=179.666138m. Speed=9.324000m/h.</desc>
<speed>2.590000</speed>
</trkpt>
<trkpt lat="55.836174" lon="26.170616">
<ele>178.959106</ele>
<time>2010-07-17T13:20:52Z</time>
<desc>lat.=55.836174, lon.=26.170616, Alt.=178.959106m. Speed=9.828000m/h.</desc>
<speed>2.730000</speed>
</trkpt>
<trkpt lat="55.836185" lon="26.170567">
<ele>178.966919</ele>
<time>2010-07-17T13:20:53Z</time>
<desc>lat.=55.836185, lon.=26.170567, Alt.=178.966919m. Speed=6.480000m/h.</desc>
<speed>1.800000</speed>
</trkpt>
<trkpt lat="55.836189" lon="26.170511">
<ele>178.716919</ele>
<time>2010-07-17T13:20:54Z</time>
<desc>lat.=55.836189, lon.=26.170511, Alt.=178.716919m. Speed=5.724000m/h.</desc>
<speed>1.590000</speed>
</trkpt>
<trkpt lat="55.836197" lon="26.170467">
<ele>178.619263</ele>
<time>2010-07-17T13:20:55Z</time>
<desc>lat.=55.836197, lon.=26.170467, Alt.=178.619263m. Speed=6.372000m/h.</desc>
<speed>1.770000</speed>
</trkpt>
<trkpt lat="55.836208" lon="26.170397">
<ele>177.939575</ele>
<time>2010-07-17T13:20:56Z</time>
<desc>lat.=55.836208, lon.=26.170397, Alt.=177.939575m. Speed=7.524000m/h.</desc>
<speed>2.090000</speed>
</trkpt>
<trkpt lat="55.836216" lon="26.170338">
<ele>177.603638</ele>
<time>2010-07-17T13:20:57Z</time>
<desc>lat.=55.836216, lon.=26.170338, Alt.=177.603638m. Speed=7.956000m/h.</desc>
<speed>2.210000</speed>
</trkpt>
<trkpt lat="55.836227" lon="26.170292">
<ele>177.568481</ele>
<time>2010-07-17T13:20:58Z</time>
<desc>lat.=55.836227, lon.=26.170292, Alt.=177.568481m. Speed=6.696000m/h.</desc>
<speed>1.860000</speed>
</trkpt>
<trkpt lat="55.836243" lon="26.170248">
<ele>177.642700</ele>
<time>2010-07-17T13:20:59Z</time>
<desc>lat.=55.836243, lon.=26.170248, Alt.=177.642700m. Speed=7.056000m/h.</desc>
<speed>1.960000</speed>
</trkpt>
<trkpt lat="55.836250" lon="26.170191">
<ele>177.552856</ele>
<time>2010-07-17T13:21:00Z</time>
<desc>lat.=55.836250, lon.=26.170191, Alt.=177.552856m. Speed=10.584000m/h.</desc>
<speed>2.940000</speed>
</trkpt>
<trkpt lat="55.836269" lon="26.170128">
<ele>177.314575</ele>
<time>2010-07-17T13:21:01Z</time>
<desc>lat.=55.836269, lon.=26.170128, Alt.=177.314575m. Speed=11.700000m/h.</desc>
<speed>3.250000</speed>
</trkpt>
<trkpt lat="55.836285" lon="26.170057">
<ele>177.373169</ele>
<time>2010-07-17T13:21:02Z</time>
<desc>lat.=55.836285, lon.=26.170057, Alt.=177.373169m. Speed=10.008000m/h.</desc>
<speed>2.780000</speed>
</trkpt>
<trkpt lat="55.836304" lon="26.169998">
<ele>177.474731</ele>
<time>2010-07-17T13:21:03Z</time>
<desc>lat.=55.836304, lon.=26.169998, Alt.=177.474731m. Speed=8.388000m/h.</desc>
<speed>2.330000</speed>
</trkpt>
<trkpt lat="55.836315" lon="26.169928">
<ele>177.646606</ele>
<time>2010-07-17T13:21:04Z</time>
<desc>lat.=55.836315, lon.=26.169928, Alt.=177.646606m. Speed=10.836000m/h.</desc>
<speed>3.010000</speed>
</trkpt>
<trkpt lat="55.836323" lon="26.169859">
<ele>177.810669</ele>
<time>2010-07-17T13:21:05Z</time>
<desc>lat.=55.836323, lon.=26.169859, Alt.=177.810669m. Speed=9.828000m/h.</desc>
<speed>2.730000</speed>
</trkpt>
<trkpt lat="55.836342" lon="26.169754">
<ele>178.689575</ele>
<time>2010-07-17T13:21:06Z</time>
<desc>lat.=55.836342, lon.=26.169754, Alt.=178.689575m. Speed=13.824000m/h.</desc>
<speed>3.840000</speed>
</trkpt>
<trkpt lat="55.836361" lon="26.169670">
<ele>178.978638</ele>
<time>2010-07-17T13:21:07Z</time>
<desc>lat.=55.836361, lon.=26.169670, Alt.=178.978638m. Speed=16.596001m/h.</desc>
<speed>4.610000</speed>
</trkpt>
<trkpt lat="55.836372" lon="26.169600">
<ele>179.103638</ele>
<time>2010-07-17T13:21:08Z</time>
<desc>lat.=55.836372, lon.=26.169600, Alt.=179.103638m. Speed=17.676001m/h.</desc>
<speed>4.910000</speed>
</trkpt>
<trkpt lat="55.836403" lon="26.169485">
<ele>178.963013</ele>
<time>2010-07-17T13:21:09Z</time>
<desc>lat.=55.836403, lon.=26.169485, Alt.=178.963013m. Speed=18.396000m/h.</desc>
<speed>5.110000</speed>
</trkpt>
<trkpt lat="55.836422" lon="26.169392">
<ele>179.380981</ele>
<time>2010-07-17T13:21:10Z</time>
<desc>lat.=55.836422, lon.=26.169392, Alt.=179.380981m. Speed=18.252001m/h.</desc>
<speed>5.070000</speed>
</trkpt>
<trkpt lat="55.836437" lon="26.169298">
<ele>179.537231</ele>
<time>2010-07-17T13:21:11Z</time>
<desc>lat.=55.836437, lon.=26.169298, Alt.=179.537231m. Speed=20.412001m/h.</desc>
<speed>5.670000</speed>
</trkpt>
<trkpt lat="55.836460" lon="26.169201">
<ele>179.259888</ele>
<time>2010-07-17T13:21:12Z</time>
<desc>lat.=55.836460, lon.=26.169201, Alt.=179.259888m. Speed=19.403999m/h.</desc>
<speed>5.390000</speed>
</trkpt>
<trkpt lat="55.836483" lon="26.169119">
<ele>179.416138</ele>
<time>2010-07-17T13:21:13Z</time>
<desc>lat.=55.836483, lon.=26.169119, Alt.=179.416138m. Speed=18.035999m/h.</desc>
<speed>5.010000</speed>
</trkpt>
<trkpt lat="55.836502" lon="26.169046">
<ele>179.541138</ele>
<time>2010-07-17T13:21:14Z</time>
<desc>lat.=55.836502, lon.=26.169046, Alt.=179.541138m. Speed=19.440001m/h.</desc>
<speed>5.400000</speed>
</trkpt>
<trkpt lat="55.836521" lon="26.168945">
<ele>179.240356</ele>
<time>2010-07-17T13:21:15Z</time>
<desc>lat.=55.836521, lon.=26.168945, Alt.=179.240356m. Speed=18.468000m/h.</desc>
<speed>5.130000</speed>
</trkpt>
<trkpt lat="55.836540" lon="26.168819">
<ele>179.263794</ele>
<time>2010-07-17T13:21:16Z</time>
<desc>lat.=55.836540, lon.=26.168819, Alt.=179.263794m. Speed=20.664000m/h.</desc>
<speed>5.740000</speed>
</trkpt>
<trkpt lat="55.836555" lon="26.168711">
<ele>179.205200</ele>
<time>2010-07-17T13:21:17Z</time>
<desc>lat.=55.836555, lon.=26.168711, Alt.=179.205200m. Speed=19.368000m/h.</desc>
<speed>5.380000</speed>
</trkpt>
<trkpt lat="55.836575" lon="26.168613">
<ele>179.064575</ele>
<time>2010-07-17T13:21:18Z</time>
<desc>lat.=55.836575, lon.=26.168613, Alt.=179.064575m. Speed=19.332001m/h.</desc>
<speed>5.370000</speed>
</trkpt>
<trkpt lat="55.836586" lon="26.168516">
<ele>179.291138</ele>
<time>2010-07-17T13:21:19Z</time>
<desc>lat.=55.836586, lon.=26.168516, Alt.=179.291138m. Speed=19.872000m/h.</desc>
<speed>5.520000</speed>
</trkpt>
<trkpt lat="55.836609" lon="26.168430">
<ele>179.162231</ele>
<time>2010-07-17T13:21:20Z</time>
<desc>lat.=55.836609, lon.=26.168430, Alt.=179.162231m. Speed=17.927999m/h.</desc>
<speed>4.980000</speed>
</trkpt>
<trkpt lat="55.836632" lon="26.168356">
<ele>179.306763</ele>
<time>2010-07-17T13:21:21Z</time>
<desc>lat.=55.836632, lon.=26.168356, Alt.=179.306763m. Speed=14.940000m/h.</desc>
<speed>4.150000</speed>
</trkpt>
<trkpt lat="55.836662" lon="26.168285">
<ele>178.779419</ele>
<time>2010-07-17T13:21:22Z</time>
<desc>lat.=55.836662, lon.=26.168285, Alt.=178.779419m. Speed=14.364000m/h.</desc>
<speed>3.990000</speed>
</trkpt>
<trkpt lat="55.836674" lon="26.168226">
<ele>178.623169</ele>
<time>2010-07-17T13:21:23Z</time>
<desc>lat.=55.836674, lon.=26.168226, Alt.=178.623169m. Speed=16.271999m/h.</desc>
<speed>4.520000</speed>
</trkpt>
<trkpt lat="55.836693" lon="26.168123">
<ele>178.318481</ele>
<time>2010-07-17T13:21:24Z</time>
<desc>lat.=55.836693, lon.=26.168123, Alt.=178.318481m. Speed=17.172001m/h.</desc>
<speed>4.770000</speed>
</trkpt>
<trkpt lat="55.836712" lon="26.168036">
<ele>178.177856</ele>
<time>2010-07-17T13:21:25Z</time>
<desc>lat.=55.836712, lon.=26.168036, Alt.=178.177856m. Speed=16.667999m/h.</desc>
<speed>4.630000</speed>
</trkpt>
<trkpt lat="55.836723" lon="26.167961">
<ele>178.185669</ele>
<time>2010-07-17T13:21:26Z</time>
<desc>lat.=55.836723, lon.=26.167961, Alt.=178.185669m. Speed=14.832000m/h.</desc>
<speed>4.120000</speed>
</trkpt>
<trkpt lat="55.836735" lon="26.167889">
<ele>178.650513</ele>
<time>2010-07-17T13:21:27Z</time>
<desc>lat.=55.836735, lon.=26.167889, Alt.=178.650513m. Speed=14.760000m/h.</desc>
<speed>4.100000</speed>
</trkpt>
<trkpt lat="55.836750" lon="26.167809">
<ele>179.466919</ele>
<time>2010-07-17T13:21:28Z</time>
<desc>lat.=55.836750, lon.=26.167809, Alt.=179.466919m. Speed=16.164000m/h.</desc>
<speed>4.490000</speed>
</trkpt>
<trkpt lat="55.836769" lon="26.167719">
<ele>180.334106</ele>
<time>2010-07-17T13:21:29Z</time>
<desc>lat.=55.836769, lon.=26.167719, Alt.=180.334106m. Speed=18.540001m/h.</desc>
<speed>5.150000</speed>
</trkpt>
<trkpt lat="55.836792" lon="26.167629">
<ele>180.576294</ele>
<time>2010-07-17T13:21:30Z</time>
<desc>lat.=55.836792, lon.=26.167629, Alt.=180.576294m. Speed=17.639999m/h.</desc>
<speed>4.900000</speed>
</trkpt>
<trkpt lat="55.836811" lon="26.167540">
<ele>180.533325</ele>
<time>2010-07-17T13:21:31Z</time>
<desc>lat.=55.836811, lon.=26.167540, Alt.=180.533325m. Speed=18.431999m/h.</desc>
<speed>5.120000</speed>
</trkpt>
<trkpt lat="55.836830" lon="26.167446">
<ele>180.748169</ele>
<time>2010-07-17T13:21:32Z</time>
<desc>lat.=55.836830, lon.=26.167446, Alt.=180.748169m. Speed=19.476000m/h.</desc>
<speed>5.410000</speed>
</trkpt>
<trkpt lat="55.836853" lon="26.167358">
<ele>181.384888</ele>
<time>2010-07-17T13:21:33Z</time>
<desc>lat.=55.836853, lon.=26.167358, Alt.=181.384888m. Speed=18.972000m/h.</desc>
<speed>5.270000</speed>
</trkpt>
<trkpt lat="55.836880" lon="26.167257">
<ele>181.646606</ele>
<time>2010-07-17T13:21:34Z</time>
<desc>lat.=55.836880, lon.=26.167257, Alt.=181.646606m. Speed=19.332001m/h.</desc>
<speed>5.370000</speed>
</trkpt>
<trkpt lat="55.836903" lon="26.167154">
<ele>181.287231</ele>
<time>2010-07-17T13:21:35Z</time>
<desc>lat.=55.836903, lon.=26.167154, Alt.=181.287231m. Speed=17.568001m/h.</desc>
<speed>4.880000</speed>
</trkpt>
<trkpt lat="55.836933" lon="26.167055">
<ele>181.513794</ele>
<time>2010-07-17T13:21:36Z</time>
<desc>lat.=55.836933, lon.=26.167055, Alt.=181.513794m. Speed=18.684000m/h.</desc>
<speed>5.190000</speed>
</trkpt>
<trkpt lat="55.836964" lon="26.166956">
<ele>182.056763</ele>
<time>2010-07-17T13:21:37Z</time>
<desc>lat.=55.836964, lon.=26.166956, Alt.=182.056763m. Speed=18.684000m/h.</desc>
<speed>5.190000</speed>
</trkpt>
<trkpt lat="55.836987" lon="26.166868">
<ele>182.755981</ele>
<time>2010-07-17T13:21:38Z</time>
<desc>lat.=55.836987, lon.=26.166868, Alt.=182.755981m. Speed=19.476000m/h.</desc>
<speed>5.410000</speed>
</trkpt>
<trkpt lat="55.837009" lon="26.166754">
<ele>181.826294</ele>
<time>2010-07-17T13:21:39Z</time>
<desc>lat.=55.837009, lon.=26.166754, Alt.=181.826294m. Speed=19.188000m/h.</desc>
<speed>5.330000</speed>
</trkpt>
<trkpt lat="55.837044" lon="26.166643">
<ele>182.076294</ele>
<time>2010-07-17T13:21:40Z</time>
<desc>lat.=55.837044, lon.=26.166643, Alt.=182.076294m. Speed=19.044001m/h.</desc>
<speed>5.290000</speed>
</trkpt>
<trkpt lat="55.837067" lon="26.166552">
<ele>182.060669</ele>
<time>2010-07-17T13:21:41Z</time>
<desc>lat.=55.837067, lon.=26.166552, Alt.=182.060669m. Speed=18.216000m/h.</desc>
<speed>5.060000</speed>
</trkpt>
<trkpt lat="55.837086" lon="26.166458">
<ele>182.838013</ele>
<time>2010-07-17T13:21:42Z</time>
<desc>lat.=55.837086, lon.=26.166458, Alt.=182.838013m. Speed=19.872000m/h.</desc>
<speed>5.520000</speed>
</trkpt>
<trkpt lat="55.837105" lon="26.166359">
<ele>182.873169</ele>
<time>2010-07-17T13:21:43Z</time>
<desc>lat.=55.837105, lon.=26.166359, Alt.=182.873169m. Speed=19.836000m/h.</desc>
<speed>5.510000</speed>
</trkpt>
<trkpt lat="55.837120" lon="26.166256">
<ele>182.861450</ele>
<time>2010-07-17T13:21:44Z</time>
<desc>lat.=55.837120, lon.=26.166256, Alt.=182.861450m. Speed=21.059999m/h.</desc>
<speed>5.850000</speed>
</trkpt>
<trkpt lat="55.837132" lon="26.166157">
<ele>182.927856</ele>
<time>2010-07-17T13:21:45Z</time>
<desc>lat.=55.837132, lon.=26.166157, Alt.=182.927856m. Speed=20.304001m/h.</desc>
<speed>5.640000</speed>
</trkpt>
<trkpt lat="55.837143" lon="26.166063">
<ele>183.103638</ele>
<time>2010-07-17T13:21:46Z</time>
<desc>lat.=55.837143, lon.=26.166063, Alt.=183.103638m. Speed=19.584000m/h.</desc>
<speed>5.440000</speed>
</trkpt>
<trkpt lat="55.837147" lon="26.165976">
<ele>183.334106</ele>
<time>2010-07-17T13:21:47Z</time>
<desc>lat.=55.837147, lon.=26.165976, Alt.=183.334106m. Speed=20.016001m/h.</desc>
<speed>5.560000</speed>
</trkpt>
<trkpt lat="55.837147" lon="26.165884">
<ele>182.943481</ele>
<time>2010-07-17T13:21:48Z</time>
<desc>lat.=55.837147, lon.=26.165884, Alt.=182.943481m. Speed=23.256001m/h.</desc>
<speed>6.460000</speed>
</trkpt>
<trkpt lat="55.837139" lon="26.165796">
<ele>183.271606</ele>
<time>2010-07-17T13:21:49Z</time>
<desc>lat.=55.837139, lon.=26.165796, Alt.=183.271606m. Speed=19.548000m/h.</desc>
<speed>5.430000</speed>
</trkpt>
<trkpt lat="55.837132" lon="26.165716">
<ele>183.877075</ele>
<time>2010-07-17T13:21:50Z</time>
<desc>lat.=55.837132, lon.=26.165716, Alt.=183.877075m. Speed=21.528000m/h.</desc>
<speed>5.980000</speed>
</trkpt>
<trkpt lat="55.837116" lon="26.165640">
<ele>184.572388</ele>
<time>2010-07-17T13:21:51Z</time>
<desc>lat.=55.837116, lon.=26.165640, Alt.=184.572388m. Speed=19.691999m/h.</desc>
<speed>5.470000</speed>
</trkpt>
<trkpt lat="55.837101" lon="26.165581">
<ele>185.287231</ele>
<time>2010-07-17T13:21:52Z</time>
<desc>lat.=55.837101, lon.=26.165581, Alt.=185.287231m. Speed=14.256000m/h.</desc>
<speed>3.960000</speed>
</trkpt>
<trkpt lat="55.837090" lon="26.165541">
<ele>185.994263</ele>
<time>2010-07-17T13:21:53Z</time>
<desc>lat.=55.837090, lon.=26.165541, Alt.=185.994263m. Speed=9.108000m/h.</desc>
<speed>2.530000</speed>
</trkpt>
<trkpt lat="55.837078" lon="26.165503">
<ele>186.466919</ele>
<time>2010-07-17T13:21:54Z</time>
<desc>lat.=55.837078, lon.=26.165503, Alt.=186.466919m. Speed=6.660000m/h.</desc>
<speed>1.850000</speed>
</trkpt>
<trkpt lat="55.837074" lon="26.165464">
<ele>187.201294</ele>
<time>2010-07-17T13:21:55Z</time>
<desc>lat.=55.837074, lon.=26.165464, Alt.=187.201294m. Speed=4.248000m/h.</desc>
<speed>1.180000</speed>
</trkpt>
<trkpt lat="55.837048" lon="26.165371">
<ele>189.150513</ele>
<time>2010-07-17T13:21:56Z</time>
<desc>lat.=55.837048, lon.=26.165371, Alt.=189.150513m. Speed=16.596001m/h.</desc>
<speed>4.610000</speed>
</trkpt>
<trkpt lat="55.837021" lon="26.165300">
<ele>190.248169</ele>
<time>2010-07-17T13:21:57Z</time>
<desc>lat.=55.837021, lon.=26.165300, Alt.=190.248169m. Speed=15.192000m/h.</desc>
<speed>4.220000</speed>
</trkpt>
<trkpt lat="55.837002" lon="26.165249">
<ele>190.884888</ele>
<time>2010-07-17T13:21:58Z</time>
<desc>lat.=55.837002, lon.=26.165249, Alt.=190.884888m. Speed=10.836000m/h.</desc>
<speed>3.010000</speed>
</trkpt>
<trkpt lat="55.836983" lon="26.165203">
<ele>191.713013</ele>
<time>2010-07-17T13:21:59Z</time>
<desc>lat.=55.836983, lon.=26.165203, Alt.=191.713013m. Speed=10.224000m/h.</desc>
<speed>2.840000</speed>
</trkpt>
<trkpt lat="55.836964" lon="26.165140">
<ele>192.228638</ele>
<time>2010-07-17T13:22:00Z</time>
<desc>lat.=55.836964, lon.=26.165140, Alt.=192.228638m. Speed=12.672000m/h.</desc>
<speed>3.520000</speed>
</trkpt>
<trkpt lat="55.836956" lon="26.165077">
<ele>193.162231</ele>
<time>2010-07-17T13:22:01Z</time>
<desc>lat.=55.836956, lon.=26.165077, Alt.=193.162231m. Speed=15.264000m/h.</desc>
<speed>4.240000</speed>
</trkpt>
<trkpt lat="55.836926" lon="26.164995">
<ele>193.127075</ele>
<time>2010-07-17T13:22:02Z</time>
<desc>lat.=55.836926, lon.=26.164995, Alt.=193.127075m. Speed=13.824000m/h.</desc>
<speed>3.840000</speed>
</trkpt>
<trkpt lat="55.836906" lon="26.164940">
<ele>193.779419</ele>
<time>2010-07-17T13:22:03Z</time>
<desc>lat.=55.836906, lon.=26.164940, Alt.=193.779419m. Speed=14.148000m/h.</desc>
<speed>3.930000</speed>
</trkpt>
<trkpt lat="55.836887" lon="26.164881">
<ele>194.607544</ele>
<time>2010-07-17T13:22:04Z</time>
<desc>lat.=55.836887, lon.=26.164881, Alt.=194.607544m. Speed=13.176000m/h.</desc>
<speed>3.660000</speed>
</trkpt>
<trkpt lat="55.836868" lon="26.164816">
<ele>195.068481</ele>
<time>2010-07-17T13:22:05Z</time>
<desc>lat.=55.836868, lon.=26.164816, Alt.=195.068481m. Speed=12.672000m/h.</desc>
<speed>3.520000</speed>
</trkpt>
<trkpt lat="55.836842" lon="26.164749">
<ele>195.900513</ele>
<time>2010-07-17T13:22:06Z</time>
<desc>lat.=55.836842, lon.=26.164749, Alt.=195.900513m. Speed=14.832000m/h.</desc>
<speed>4.120000</speed>
</trkpt>
<trkpt lat="55.836815" lon="26.164660">
<ele>196.900513</ele>
<time>2010-07-17T13:22:07Z</time>
<desc>lat.=55.836815, lon.=26.164660, Alt.=196.900513m. Speed=17.820000m/h.</desc>
<speed>4.950000</speed>
</trkpt>
<trkpt lat="55.836792" lon="26.164577">
<ele>197.802856</ele>
<time>2010-07-17T13:22:08Z</time>
<desc>lat.=55.836792, lon.=26.164577, Alt.=197.802856m. Speed=16.236000m/h.</desc>
<speed>4.510000</speed>
</trkpt>
<trkpt lat="55.836765" lon="26.164515">
<ele>198.591919</ele>
<time>2010-07-17T13:22:09Z</time>
<desc>lat.=55.836765, lon.=26.164515, Alt.=198.591919m. Speed=13.140000m/h.</desc>
<speed>3.650000</speed>
</trkpt>
<trkpt lat="55.836735" lon="26.164463">
<ele>199.459106</ele>
<time>2010-07-17T13:22:10Z</time>
<desc>lat.=55.836735, lon.=26.164463, Alt.=199.459106m. Speed=12.312000m/h.</desc>
<speed>3.420000</speed>
</trkpt>
<trkpt lat="55.836712" lon="26.164396">
<ele>199.541138</ele>
<time>2010-07-17T13:22:11Z</time>
<desc>lat.=55.836712, lon.=26.164396, Alt.=199.541138m. Speed=14.364000m/h.</desc>
<speed>3.990000</speed>
</trkpt>
<trkpt lat="55.836689" lon="26.164330">
<ele>200.439575</ele>
<time>2010-07-17T13:22:12Z</time>
<desc>lat.=55.836689, lon.=26.164330, Alt.=200.439575m. Speed=13.860000m/h.</desc>
<speed>3.850000</speed>
</trkpt>
<trkpt lat="55.836666" lon="26.164276">
<ele>201.400513</ele>
<time>2010-07-17T13:22:13Z</time>
<desc>lat.=55.836666, lon.=26.164276, Alt.=201.400513m. Speed=12.960000m/h.</desc>
<speed>3.600000</speed>
</trkpt>
<trkpt lat="55.836639" lon="26.164225">
<ele>202.291138</ele>
<time>2010-07-17T13:22:14Z</time>
<desc>lat.=55.836639, lon.=26.164225, Alt.=202.291138m. Speed=12.744000m/h.</desc>
<speed>3.540000</speed>
</trkpt>
<trkpt lat="55.836613" lon="26.164179">
<ele>203.373169</ele>
<time>2010-07-17T13:22:15Z</time>
<desc>lat.=55.836613, lon.=26.164179, Alt.=203.373169m. Speed=11.808000m/h.</desc>
<speed>3.280000</speed>
</trkpt>
<trkpt lat="55.836594" lon="26.164133">
<ele>204.115356</ele>
<time>2010-07-17T13:22:16Z</time>
<desc>lat.=55.836594, lon.=26.164133, Alt.=204.115356m. Speed=12.528000m/h.</desc>
<speed>3.480000</speed>
</trkpt>
<trkpt lat="55.836559" lon="26.164072">
<ele>204.334106</ele>
<time>2010-07-17T13:22:17Z</time>
<desc>lat.=55.836559, lon.=26.164072, Alt.=204.334106m. Speed=14.616000m/h.</desc>
<speed>4.060000</speed>
</trkpt>
<trkpt lat="55.836540" lon="26.164017">
<ele>204.865356</ele>
<time>2010-07-17T13:22:18Z</time>
<desc>lat.=55.836540, lon.=26.164017, Alt.=204.865356m. Speed=10.296000m/h.</desc>
<speed>2.860000</speed>
</trkpt>
<trkpt lat="55.836525" lon="26.163963">
<ele>205.603638</ele>
<time>2010-07-17T13:22:19Z</time>
<desc>lat.=55.836525, lon.=26.163963, Alt.=205.603638m. Speed=8.460000m/h.</desc>
<speed>2.350000</speed>
</trkpt>
<trkpt lat="55.836502" lon="26.163912">
<ele>206.158325</ele>
<time>2010-07-17T13:22:20Z</time>
<desc>lat.=55.836502, lon.=26.163912, Alt.=206.158325m. Speed=6.156000m/h.</desc>
<speed>1.710000</speed>
</trkpt>
<trkpt lat="55.836494" lon="26.163885">
<ele>206.857544</ele>
<time>2010-07-17T13:22:21Z</time>
<desc>lat.=55.836494, lon.=26.163885, Alt.=206.857544m. Speed=4.932000m/h.</desc>
<speed>1.370000</speed>
</trkpt>
<trkpt lat="55.836483" lon="26.163855">
<ele>207.599731</ele>
<time>2010-07-17T13:22:22Z</time>
<desc>lat.=55.836483, lon.=26.163855, Alt.=207.599731m. Speed=4.392000m/h.</desc>
<speed>1.220000</speed>
</trkpt>
<trkpt lat="55.836468" lon="26.163811">
<ele>208.213013</ele>
<time>2010-07-17T13:22:23Z</time>
<desc>lat.=55.836468, lon.=26.163811, Alt.=208.213013m. Speed=4.824000m/h.</desc>
<speed>1.340000</speed>
</trkpt>
<trkpt lat="55.836456" lon="26.163778">
<ele>208.888794</ele>
<time>2010-07-17T13:22:24Z</time>
<desc>lat.=55.836456, lon.=26.163778, Alt.=208.888794m. Speed=4.320000m/h.</desc>
<speed>1.200000</speed>
</trkpt>
<trkpt lat="55.836441" lon="26.163742">
<ele>209.670044</ele>
<time>2010-07-17T13:22:25Z</time>
<desc>lat.=55.836441, lon.=26.163742, Alt.=209.670044m. Speed=5.472000m/h.</desc>
<speed>1.520000</speed>
</trkpt>
<trkpt lat="55.836422" lon="26.163698">
<ele>210.275513</ele>
<time>2010-07-17T13:22:26Z</time>
<desc>lat.=55.836422, lon.=26.163698, Alt.=210.275513m. Speed=6.912000m/h.</desc>
<speed>1.920000</speed>
</trkpt>
<trkpt lat="55.836407" lon="26.163660">
<ele>210.986450</ele>
<time>2010-07-17T13:22:27Z</time>
<desc>lat.=55.836407, lon.=26.163660, Alt.=210.986450m. Speed=7.236000m/h.</desc>
<speed>2.010000</speed>
</trkpt>
<trkpt lat="55.836380" lon="26.163624">
<ele>211.888794</ele>
<time>2010-07-17T13:22:28Z</time>
<desc>lat.=55.836380, lon.=26.163624, Alt.=211.888794m. Speed=5.688000m/h.</desc>
<speed>1.580000</speed>
</trkpt>
<trkpt lat="55.836361" lon="26.163582">
<ele>212.763794</ele>
<time>2010-07-17T13:22:29Z</time>
<desc>lat.=55.836361, lon.=26.163582, Alt.=212.763794m. Speed=3.672000m/h.</desc>
<speed>1.020000</speed>
</trkpt>
<trkpt lat="55.836349" lon="26.163540">
<ele>213.455200</ele>
<time>2010-07-17T13:22:30Z</time>
<desc>lat.=55.836349, lon.=26.163540, Alt.=213.455200m. Speed=3.564000m/h.</desc>
<speed>0.990000</speed>
</trkpt>
<trkpt lat="55.836334" lon="26.163507">
<ele>213.795044</ele>
<time>2010-07-17T13:22:31Z</time>
<desc>lat.=55.836334, lon.=26.163507, Alt.=213.795044m. Speed=6.516000m/h.</desc>
<speed>1.810000</speed>
</trkpt>
<trkpt lat="55.836315" lon="26.163445">
<ele>214.463013</ele>
<time>2010-07-17T13:22:32Z</time>
<desc>lat.=55.836315, lon.=26.163445, Alt.=214.463013m. Speed=6.264000m/h.</desc>
<speed>1.740000</speed>
</trkpt>
<trkpt lat="55.836285" lon="26.163347">
<ele>215.295044</ele>
<time>2010-07-17T13:22:33Z</time>
<desc>lat.=55.836285, lon.=26.163347, Alt.=215.295044m. Speed=6.552000m/h.</desc>
<speed>1.820000</speed>
</trkpt>
<trkpt lat="55.836269" lon="26.163301">
<ele>215.642700</ele>
<time>2010-07-17T13:22:34Z</time>
<desc>lat.=55.836269, lon.=26.163301, Alt.=215.642700m. Speed=5.940000m/h.</desc>
<speed>1.650000</speed>
</trkpt>
<trkpt lat="55.836246" lon="26.163252">
<ele>216.115356</ele>
<time>2010-07-17T13:22:35Z</time>
<desc>lat.=55.836246, lon.=26.163252, Alt.=216.115356m. Speed=4.644000m/h.</desc>
<speed>1.290000</speed>
</trkpt>
<trkpt lat="55.836227" lon="26.163202">
<ele>216.357544</ele>
<time>2010-07-17T13:22:36Z</time>
<desc>lat.=55.836227, lon.=26.163202, Alt.=216.357544m. Speed=7.236000m/h.</desc>
<speed>2.010000</speed>
</trkpt>
<trkpt lat="55.836212" lon="26.163147">
<ele>216.521606</ele>
<time>2010-07-17T13:22:37Z</time>
<desc>lat.=55.836212, lon.=26.163147, Alt.=216.521606m. Speed=8.028000m/h.</desc>
<speed>2.230000</speed>
</trkpt>
<trkpt lat="55.836193" lon="26.163082">
<ele>216.638794</ele>
<time>2010-07-17T13:22:38Z</time>
<desc>lat.=55.836193, lon.=26.163082, Alt.=216.638794m. Speed=8.532000m/h.</desc>
<speed>2.370000</speed>
</trkpt>
<trkpt lat="55.836178" lon="26.163021">
<ele>216.920044</ele>
<time>2010-07-17T13:22:39Z</time>
<desc>lat.=55.836178, lon.=26.163021, Alt.=216.920044m. Speed=10.188000m/h.</desc>
<speed>2.830000</speed>
</trkpt>
<trkpt lat="55.836163" lon="26.162951">
<ele>217.209106</ele>
<time>2010-07-17T13:22:40Z</time>
<desc>lat.=55.836163, lon.=26.162951, Alt.=217.209106m. Speed=10.044000m/h.</desc>
<speed>2.790000</speed>
</trkpt>
<trkpt lat="55.836136" lon="26.162867">
<ele>217.220825</ele>
<time>2010-07-17T13:22:41Z</time>
<desc>lat.=55.836136, lon.=26.162867, Alt.=217.220825m. Speed=11.448000m/h.</desc>
<speed>3.180000</speed>
</trkpt>
<trkpt lat="55.836128" lon="26.162821">
<ele>217.904419</ele>
<time>2010-07-17T13:22:42Z</time>
<desc>lat.=55.836128, lon.=26.162821, Alt.=217.904419m. Speed=6.876000m/h.</desc>
<speed>1.910000</speed>
</trkpt>
<trkpt lat="55.836140" lon="26.162775">
<ele>218.533325</ele>
<time>2010-07-17T13:22:43Z</time>
<desc>lat.=55.836140, lon.=26.162775, Alt.=218.533325m. Speed=4.608000m/h.</desc>
<speed>1.280000</speed>
</trkpt>
<trkpt lat="55.836147" lon="26.162743">
<ele>219.084106</ele>
<time>2010-07-17T13:22:44Z</time>
<desc>lat.=55.836147, lon.=26.162743, Alt.=219.084106m. Speed=3.204000m/h.</desc>
<speed>0.890000</speed>
</trkpt>
<trkpt lat="55.836163" lon="26.162720">
<ele>220.017700</ele>
<time>2010-07-17T13:22:45Z</time>
<desc>lat.=55.836163, lon.=26.162720, Alt.=220.017700m. Speed=9.144000m/h.</desc>
<speed>2.540000</speed>
</trkpt>
<trkpt lat="55.836166" lon="26.162655">
<ele>220.677856</ele>
<time>2010-07-17T13:22:46Z</time>
<desc>lat.=55.836166, lon.=26.162655, Alt.=220.677856m. Speed=11.556000m/h.</desc>
<speed>3.210000</speed>
</trkpt>
<trkpt lat="55.836166" lon="26.162584">
<ele>221.255981</ele>
<time>2010-07-17T13:22:47Z</time>
<desc>lat.=55.836166, lon.=26.162584, Alt.=221.255981m. Speed=12.780000m/h.</desc>
<speed>3.550000</speed>
</trkpt>
<trkpt lat="55.836163" lon="26.162506">
<ele>221.994263</ele>
<time>2010-07-17T13:22:48Z</time>
<desc>lat.=55.836163, lon.=26.162506, Alt.=221.994263m. Speed=14.652000m/h.</desc>
<speed>4.070000</speed>
</trkpt>
<trkpt lat="55.836159" lon="26.162428">
<ele>222.552856</ele>
<time>2010-07-17T13:22:49Z</time>
<desc>lat.=55.836159, lon.=26.162428, Alt.=222.552856m. Speed=15.084000m/h.</desc>
<speed>4.190000</speed>
</trkpt>
<trkpt lat="55.836159" lon="26.162361">
<ele>222.705200</ele>
<time>2010-07-17T13:22:50Z</time>
<desc>lat.=55.836159, lon.=26.162361, Alt.=222.705200m. Speed=13.572000m/h.</desc>
<speed>3.770000</speed>
</trkpt>
<trkpt lat="55.836159" lon="26.162277">
<ele>223.197388</ele>
<time>2010-07-17T13:22:51Z</time>
<desc>lat.=55.836159, lon.=26.162277, Alt.=223.197388m. Speed=16.559999m/h.</desc>
<speed>4.600000</speed>
</trkpt>
<trkpt lat="55.836147" lon="26.162184">
<ele>223.580200</ele>
<time>2010-07-17T13:22:52Z</time>
<desc>lat.=55.836147, lon.=26.162184, Alt.=223.580200m. Speed=15.732000m/h.</desc>
<speed>4.370000</speed>
</trkpt>
<trkpt lat="55.836136" lon="26.162102">
<ele>224.357544</ele>
<time>2010-07-17T13:22:53Z</time>
<desc>lat.=55.836136, lon.=26.162102, Alt.=224.357544m. Speed=15.804000m/h.</desc>
<speed>4.390000</speed>
</trkpt>
<trkpt lat="55.836132" lon="26.162039">
<ele>224.599731</ele>
<time>2010-07-17T13:22:54Z</time>
<desc>lat.=55.836132, lon.=26.162039, Alt.=224.599731m. Speed=10.944000m/h.</desc>
<speed>3.040000</speed>
</trkpt>
<trkpt lat="55.836124" lon="26.161983">
<ele>225.931763</ele>
<time>2010-07-17T13:22:55Z</time>
<desc>lat.=55.836124, lon.=26.161983, Alt.=225.931763m. Speed=14.112000m/h.</desc>
<speed>3.920000</speed>
</trkpt>
<trkpt lat="55.836071" lon="26.161755">
<ele>228.334106</ele>
<time>2010-07-17T13:22:56Z</time>
<desc>lat.=55.836071, lon.=26.161755, Alt.=228.334106m. Speed=7.740000m/h.</desc>
<speed>2.150000</speed>
</trkpt>
<trkpt lat="55.836067" lon="26.161720">
<ele>228.959106</ele>
<time>2010-07-17T13:22:57Z</time>
<desc>lat.=55.836067, lon.=26.161720, Alt.=228.959106m. Speed=11.412000m/h.</desc>
<speed>3.170000</speed>
</trkpt>
<trkpt lat="55.836048" lon="26.161629">
<ele>229.982544</ele>
<time>2010-07-17T13:22:58Z</time>
<desc>lat.=55.836048, lon.=26.161629, Alt.=229.982544m. Speed=10.332000m/h.</desc>
<speed>2.870000</speed>
</trkpt>
<trkpt lat="55.836033" lon="26.161541">
<ele>230.146606</ele>
<time>2010-07-17T13:22:59Z</time>
<desc>lat.=55.836033, lon.=26.161541, Alt.=230.146606m. Speed=8.460000m/h.</desc>
<speed>2.350000</speed>
</trkpt>
<trkpt lat="55.836018" lon="26.161474">
<ele>230.541138</ele>
<time>2010-07-17T13:23:00Z</time>
<desc>lat.=55.836018, lon.=26.161474, Alt.=230.541138m. Speed=8.604000m/h.</desc>
<speed>2.390000</speed>
</trkpt>
<trkpt lat="55.836006" lon="26.161423">
<ele>229.623169</ele>
<time>2010-07-17T13:23:01Z</time>
<desc>lat.=55.836006, lon.=26.161423, Alt.=229.623169m. Speed=5.904000m/h.</desc>
<speed>1.640000</speed>
</trkpt>
<trkpt lat="55.836002" lon="26.161392">
<ele>229.470825</ele>
<time>2010-07-17T13:23:02Z</time>
<desc>lat.=55.836002, lon.=26.161392, Alt.=229.470825m. Speed=6.840000m/h.</desc>
<speed>1.900000</speed>
</trkpt>
<trkpt lat="55.835987" lon="26.161350">
<ele>229.232544</ele>
<time>2010-07-17T13:23:03Z</time>
<desc>lat.=55.835987, lon.=26.161350, Alt.=229.232544m. Speed=6.012000m/h.</desc>
<speed>1.670000</speed>
</trkpt>
<trkpt lat="55.835979" lon="26.161324">
<ele>229.142700</ele>
<time>2010-07-17T13:23:04Z</time>
<desc>lat.=55.835979, lon.=26.161324, Alt.=229.142700m. Speed=4.104000m/h.</desc>
<speed>1.140000</speed>
</trkpt>
<trkpt lat="55.835972" lon="26.161299">
<ele>228.959106</ele>
<time>2010-07-17T13:23:05Z</time>
<desc>lat.=55.835972, lon.=26.161299, Alt.=228.959106m. Speed=5.868000m/h.</desc>
<speed>1.630000</speed>
</trkpt>
<trkpt lat="55.835960" lon="26.161264">
<ele>228.873169</ele>
<time>2010-07-17T13:23:06Z</time>
<desc>lat.=55.835960, lon.=26.161264, Alt.=228.873169m. Speed=7.956000m/h.</desc>
<speed>2.210000</speed>
</trkpt>
<trkpt lat="55.835949" lon="26.161222">
<ele>228.845825</ele>
<time>2010-07-17T13:23:07Z</time>
<desc>lat.=55.835949, lon.=26.161222, Alt.=228.845825m. Speed=7.416000m/h.</desc>
<speed>2.060000</speed>
</trkpt>
<trkpt lat="55.835941" lon="26.161180">
<ele>228.880981</ele>
<time>2010-07-17T13:23:08Z</time>
<desc>lat.=55.835941, lon.=26.161180, Alt.=228.880981m. Speed=8.352000m/h.</desc>
<speed>2.320000</speed>
</trkpt>
<trkpt lat="55.835922" lon="26.161118">
<ele>229.060669</ele>
<time>2010-07-17T13:23:09Z</time>
<desc>lat.=55.835922, lon.=26.161118, Alt.=229.060669m. Speed=9.576000m/h.</desc>
<speed>2.660000</speed>
</trkpt>
<trkpt lat="55.835911" lon="26.161066">
<ele>228.673950</ele>
<time>2010-07-17T13:23:10Z</time>
<desc>lat.=55.835911, lon.=26.161066, Alt.=228.673950m. Speed=9.576000m/h.</desc>
<speed>2.660000</speed>
</trkpt>
<trkpt lat="55.835899" lon="26.161024">
<ele>228.713013</ele>
<time>2010-07-17T13:23:11Z</time>
<desc>lat.=55.835899, lon.=26.161024, Alt.=228.713013m. Speed=8.676000m/h.</desc>
<speed>2.410000</speed>
</trkpt>
<trkpt lat="55.835892" lon="26.160984">
<ele>228.814575</ele>
<time>2010-07-17T13:23:12Z</time>
<desc>lat.=55.835892, lon.=26.160984, Alt.=228.814575m. Speed=9.864000m/h.</desc>
<speed>2.740000</speed>
</trkpt>
<trkpt lat="55.835880" lon="26.160934">
<ele>228.654419</ele>
<time>2010-07-17T13:23:13Z</time>
<desc>lat.=55.835880, lon.=26.160934, Alt.=228.654419m. Speed=9.540000m/h.</desc>
<speed>2.650000</speed>
</trkpt>
<trkpt lat="55.835861" lon="26.160872">
<ele>228.009888</ele>
<time>2010-07-17T13:23:14Z</time>
<desc>lat.=55.835861, lon.=26.160872, Alt.=228.009888m. Speed=8.568000m/h.</desc>
<speed>2.380000</speed>
</trkpt>
<trkpt lat="55.835850" lon="26.160828">
<ele>227.838013</ele>
<time>2010-07-17T13:23:15Z</time>
<desc>lat.=55.835850, lon.=26.160828, Alt.=227.838013m. Speed=10.620000m/h.</desc>
<speed>2.950000</speed>
</trkpt>
<trkpt lat="55.835838" lon="26.160776">
<ele>227.423950</ele>
<time>2010-07-17T13:23:16Z</time>
<desc>lat.=55.835838, lon.=26.160776, Alt.=227.423950m. Speed=7.524000m/h.</desc>
<speed>2.090000</speed>
</trkpt>
<trkpt lat="55.835823" lon="26.160719">
<ele>227.400513</ele>
<time>2010-07-17T13:23:17Z</time>
<desc>lat.=55.835823, lon.=26.160719, Alt.=227.400513m. Speed=11.376000m/h.</desc>
<speed>3.160000</speed>
</trkpt>
<trkpt lat="55.835812" lon="26.160666">
<ele>227.068481</ele>
<time>2010-07-17T13:23:18Z</time>
<desc>lat.=55.835812, lon.=26.160666, Alt.=227.068481m. Speed=10.548000m/h.</desc>
<speed>2.930000</speed>
</trkpt>
<trkpt lat="55.835796" lon="26.160616">
<ele>226.752075</ele>
<time>2010-07-17T13:23:19Z</time>
<desc>lat.=55.835796, lon.=26.160616, Alt.=226.752075m. Speed=12.024000m/h.</desc>
<speed>3.340000</speed>
</trkpt>
<trkpt lat="55.835785" lon="26.160553">
<ele>226.283325</ele>
<time>2010-07-17T13:23:20Z</time>
<desc>lat.=55.835785, lon.=26.160553, Alt.=226.283325m. Speed=11.448000m/h.</desc>
<speed>3.180000</speed>
</trkpt>
<trkpt lat="55.835777" lon="26.160501">
<ele>226.170044</ele>
<time>2010-07-17T13:23:21Z</time>
<desc>lat.=55.835777, lon.=26.160501, Alt.=226.170044m. Speed=11.808000m/h.</desc>
<speed>3.280000</speed>
</trkpt>
<trkpt lat="55.835766" lon="26.160452">
<ele>226.490356</ele>
<time>2010-07-17T13:23:22Z</time>
<desc>lat.=55.835766, lon.=26.160452, Alt.=226.490356m. Speed=11.664000m/h.</desc>
<speed>3.240000</speed>
</trkpt>
<trkpt lat="55.835739" lon="26.160391">
<ele>226.017700</ele>
<time>2010-07-17T13:23:23Z</time>
<desc>lat.=55.835739, lon.=26.160391, Alt.=226.017700m. Speed=12.384000m/h.</desc>
<speed>3.440000</speed>
</trkpt>
<trkpt lat="55.835716" lon="26.160330">
<ele>225.627075</ele>
<time>2010-07-17T13:23:24Z</time>
<desc>lat.=55.835716, lon.=26.160330, Alt.=225.627075m. Speed=13.140000m/h.</desc>
<speed>3.650000</speed>
</trkpt>
<trkpt lat="55.835705" lon="26.160275">
<ele>225.705200</ele>
<time>2010-07-17T13:23:25Z</time>
<desc>lat.=55.835705, lon.=26.160275, Alt.=225.705200m. Speed=12.204000m/h.</desc>
<speed>3.390000</speed>
</trkpt>
<trkpt lat="55.835690" lon="26.160213">
<ele>225.642700</ele>
<time>2010-07-17T13:23:26Z</time>
<desc>lat.=55.835690, lon.=26.160213, Alt.=225.642700m. Speed=13.968000m/h.</desc>
<speed>3.880000</speed>
</trkpt>
<trkpt lat="55.835518" lon="26.159946">
<ele>235.404419</ele>
<time>2010-07-17T13:23:27Z</time>
<desc>lat.=55.835518, lon.=26.159946, Alt.=235.404419m. Speed=15.588000m/h.</desc>
<speed>4.330000</speed>
</trkpt>
<trkpt lat="55.835499" lon="26.159777">
<ele>222.213013</ele>
<time>2010-07-17T13:23:28Z</time>
<desc>lat.=55.835499, lon.=26.159777, Alt.=222.213013m. Speed=14.508000m/h.</desc>
<speed>4.030000</speed>
</trkpt>
<trkpt lat="55.835480" lon="26.159714">
<ele>219.822388</ele>
<time>2010-07-17T13:23:29Z</time>
<desc>lat.=55.835480, lon.=26.159714, Alt.=219.822388m. Speed=13.500000m/h.</desc>
<speed>3.750000</speed>
</trkpt>
<trkpt lat="55.835457" lon="26.159636">
<ele>217.591919</ele>
<time>2010-07-17T13:23:30Z</time>
<desc>lat.=55.835457, lon.=26.159636, Alt.=217.591919m. Speed=14.220000m/h.</desc>
<speed>3.950000</speed>
</trkpt>
<trkpt lat="55.835426" lon="26.159559">
<ele>214.845825</ele>
<time>2010-07-17T13:23:31Z</time>
<desc>lat.=55.835426, lon.=26.159559, Alt.=214.845825m. Speed=16.308001m/h.</desc>
<speed>4.530000</speed>
</trkpt>
<trkpt lat="55.835411" lon="26.159491">
<ele>213.521606</ele>
<time>2010-07-17T13:23:32Z</time>
<desc>lat.=55.835411, lon.=26.159491, Alt.=213.521606m. Speed=15.336000m/h.</desc>
<speed>4.260000</speed>
</trkpt>
<trkpt lat="55.835396" lon="26.159445">
<ele>211.978638</ele>
<time>2010-07-17T13:23:33Z</time>
<desc>lat.=55.835396, lon.=26.159445, Alt.=211.978638m. Speed=14.652000m/h.</desc>
<speed>4.070000</speed>
</trkpt>
<trkpt lat="55.835377" lon="26.159388">
<ele>210.099731</ele>
<time>2010-07-17T13:23:34Z</time>
<desc>lat.=55.835377, lon.=26.159388, Alt.=210.099731m. Speed=13.500000m/h.</desc>
<speed>3.750000</speed>
</trkpt>
<trkpt lat="55.835350" lon="26.159321">
<ele>209.080200</ele>
<time>2010-07-17T13:23:35Z</time>
<desc>lat.=55.835350, lon.=26.159321, Alt.=209.080200m. Speed=13.032000m/h.</desc>
<speed>3.620000</speed>
</trkpt>
<trkpt lat="55.835335" lon="26.159256">
<ele>208.142700</ele>
<time>2010-07-17T13:23:36Z</time>
<desc>lat.=55.835335, lon.=26.159256, Alt.=208.142700m. Speed=14.292000m/h.</desc>
<speed>3.970000</speed>
</trkpt>
<trkpt lat="55.835320" lon="26.159195">
<ele>207.990356</ele>
<time>2010-07-17T13:23:37Z</time>
<desc>lat.=55.835320, lon.=26.159195, Alt.=207.990356m. Speed=13.932000m/h.</desc>
<speed>3.870000</speed>
</trkpt>
<trkpt lat="55.835308" lon="26.159136">
<ele>207.076294</ele>
<time>2010-07-17T13:23:38Z</time>
<desc>lat.=55.835308, lon.=26.159136, Alt.=207.076294m. Speed=13.464000m/h.</desc>
<speed>3.740000</speed>
</trkpt>
<trkpt lat="55.835289" lon="26.159067">
<ele>206.068481</ele>
<time>2010-07-17T13:23:39Z</time>
<desc>lat.=55.835289, lon.=26.159067, Alt.=206.068481m. Speed=12.636000m/h.</desc>
<speed>3.510000</speed>
</trkpt>
<trkpt lat="55.835278" lon="26.159014">
<ele>206.045044</ele>
<time>2010-07-17T13:23:40Z</time>
<desc>lat.=55.835278, lon.=26.159014, Alt.=206.045044m. Speed=11.484000m/h.</desc>
<speed>3.190000</speed>
</trkpt>
<trkpt lat="55.835270" lon="26.158964">
<ele>205.744263</ele>
<time>2010-07-17T13:23:41Z</time>
<desc>lat.=55.835270, lon.=26.158964, Alt.=205.744263m. Speed=9.720000m/h.</desc>
<speed>2.700000</speed>
</trkpt>
<trkpt lat="55.835262" lon="26.158926">
<ele>205.341919</ele>
<time>2010-07-17T13:23:42Z</time>
<desc>lat.=55.835262, lon.=26.158926, Alt.=205.341919m. Speed=4.104000m/h.</desc>
<speed>1.140000</speed>
</trkpt>
<trkpt lat="55.835258" lon="26.158915">
<ele>205.228638</ele>
<time>2010-07-17T13:23:43Z</time>
<desc>lat.=55.835258, lon.=26.158915, Alt.=205.228638m. Speed=1.620000m/h.</desc>
<speed>0.450000</speed>
</trkpt>
<trkpt lat="55.835258" lon="26.158903">
<ele>204.947388</ele>
<time>2010-07-17T13:23:44Z</time>
<desc>lat.=55.835258, lon.=26.158903, Alt.=204.947388m. Speed=0.972000m/h.</desc>
<speed>0.270000</speed>
</trkpt>
<trkpt lat="55.835255" lon="26.158897">
<ele>204.685669</ele>
<time>2010-07-17T13:23:45Z</time>
<desc>lat.=55.835255, lon.=26.158897, Alt.=204.685669m. Speed=0.432000m/h.</desc>
<speed>0.120000</speed>
</trkpt>
<trkpt lat="55.835243" lon="26.158875">
<ele>204.134888</ele>
<time>2010-07-17T13:23:46Z</time>
<desc>lat.=55.835243, lon.=26.158875, Alt.=204.134888m. Speed=0.216000m/h.</desc>
<speed>0.060000</speed>
</trkpt>
<trkpt lat="55.835243" lon="26.158873">
<ele>204.111450</ele>
<time>2010-07-17T13:23:47Z</time>
<desc>lat.=55.835243, lon.=26.158873, Alt.=204.111450m. Speed=0.468000m/h.</desc>
<speed>0.130000</speed>
</trkpt>
<trkpt lat="55.835243" lon="26.158871">
<ele>204.088013</ele>
<time>2010-07-17T13:23:48Z</time>
<desc>lat.=55.835243, lon.=26.158871, Alt.=204.088013m. Speed=0.252000m/h.</desc>
<speed>0.070000</speed>
</trkpt>
<trkpt lat="55.835243" lon="26.158869">
<ele>204.060669</ele>
<time>2010-07-17T13:23:49Z</time>
<desc>lat.=55.835243, lon.=26.158869, Alt.=204.060669m. Speed=0.036000m/h.</desc>
<speed>0.010000</speed>
</trkpt>
<trkpt lat="55.835243" lon="26.158867">
<ele>204.029419</ele>
<time>2010-07-17T13:23:50Z</time>
<desc>lat.=55.835243, lon.=26.158867, Alt.=204.029419m. Speed=0.144000m/h.</desc>
<speed>0.040000</speed>
</trkpt>
<trkpt lat="55.835243" lon="26.158867">
<ele>203.986450</ele>
<time>2010-07-17T13:23:51Z</time>
<desc>lat.=55.835243, lon.=26.158867, Alt.=203.986450m. Speed=0.072000m/h.</desc>
<speed>0.020000</speed>
</trkpt>
<trkpt lat="55.835243" lon="26.158865">
<ele>203.947388</ele>
<time>2010-07-17T13:23:52Z</time>
<desc>lat.=55.835243, lon.=26.158865, Alt.=203.947388m. Speed=0.180000m/h.</desc>
<speed>0.050000</speed>
</trkpt>
<trkpt lat="55.835239" lon="26.158863">
<ele>203.916138</ele>
<time>2010-07-17T13:23:53Z</time>
<desc>lat.=55.835239, lon.=26.158863, Alt.=203.916138m. Speed=0.036000m/h.</desc>
<speed>0.010000</speed>
</trkpt>
<trkpt lat="55.835239" lon="26.158861">
<ele>203.888794</ele>
<time>2010-07-17T13:23:54Z</time>
<desc>lat.=55.835239, lon.=26.158861, Alt.=203.888794m. Speed=0.000000m/h.</desc>
<speed>0.000000</speed>
</trkpt>
<trkpt lat="55.835239" lon="26.158861">
<ele>203.869263</ele>
<time>2010-07-17T13:23:55Z</time>
<desc>lat.=55.835239, lon.=26.158861, Alt.=203.869263m. Speed=0.216000m/h.</desc>
<speed>0.060000</speed>
</trkpt>
<trkpt lat="55.835236" lon="26.158861">
<ele>203.849731</ele>
<time>2010-07-17T13:23:56Z</time>
<desc>lat.=55.835236, lon.=26.158861, Alt.=203.849731m. Speed=0.108000m/h.</desc>
<speed>0.030000</speed>
</trkpt>
<trkpt lat="55.835236" lon="26.158859">
<ele>203.838013</ele>
<time>2010-07-17T13:23:57Z</time>
<desc>lat.=55.835236, lon.=26.158859, Alt.=203.838013m. Speed=0.036000m/h.</desc>
<speed>0.010000</speed>
</trkpt>
<trkpt lat="55.835236" lon="26.158859">
<ele>203.826294</ele>
<time>2010-07-17T13:23:58Z</time>
<desc>lat.=55.835236, lon.=26.158859, Alt.=203.826294m. Speed=0.036000m/h.</desc>
<speed>0.010000</speed>
</trkpt>
<trkpt lat="55.835236" lon="26.158859">
<ele>203.818481</ele>
<time>2010-07-17T13:23:59Z</time>
<desc>lat.=55.835236, lon.=26.158859, Alt.=203.818481m. Speed=0.108000m/h.</desc>
<speed>0.030000</speed>
</trkpt>
<trkpt lat="55.835236" lon="26.158859">
<ele>203.795044</ele>
<time>2010-07-17T13:24:00Z</time>
<desc>lat.=55.835236, lon.=26.158859, Alt.=203.795044m. Speed=0.036000m/h.</desc>
<speed>0.010000</speed>
</trkpt>
<trkpt lat="55.835236" lon="26.158859">
<ele>203.791138</ele>
<time>2010-07-17T13:24:01Z</time>
<desc>lat.=55.835236, lon.=26.158859, Alt.=203.791138m. Speed=0.000000m/h.</desc>
<speed>0.000000</speed>
</trkpt>
<trkpt lat="55.835236" lon="26.158859">
<ele>203.779419</ele>
<time>2010-07-17T13:24:02Z</time>
<desc>lat.=55.835236, lon.=26.158859, Alt.=203.779419m. Speed=0.108000m/h.</desc>
<speed>0.030000</speed>
</trkpt>
<trkpt lat="55.835232" lon="26.158857">
<ele>203.779419</ele>
<time>2010-07-17T13:24:03Z</time>
<desc>lat.=55.835232, lon.=26.158857, Alt.=203.779419m. Speed=1.368000m/h.</desc>
<speed>0.380000</speed>
</trkpt>
<trkpt lat="55.835232" lon="26.158854">
<ele>203.795044</ele>
<time>2010-07-17T13:24:04Z</time>
<desc>lat.=55.835232, lon.=26.158854, Alt.=203.795044m. Speed=0.180000m/h.</desc>
<speed>0.050000</speed>
</trkpt>
<trkpt lat="55.835228" lon="26.158854">
<ele>203.814575</ele>
<time>2010-07-17T13:24:05Z</time>
<desc>lat.=55.835228, lon.=26.158854, Alt.=203.814575m. Speed=0.108000m/h.</desc>
<speed>0.030000</speed>
</trkpt>
<trkpt lat="55.835228" lon="26.158854">
<ele>203.759888</ele>
<time>2010-07-17T13:24:06Z</time>
<desc>lat.=55.835228, lon.=26.158854, Alt.=203.759888m. Speed=0.108000m/h.</desc>
<speed>0.030000</speed>
</trkpt>
<trkpt lat="55.835228" lon="26.158854">
<ele>203.709106</ele>
<time>2010-07-17T13:24:07Z</time>
<desc>lat.=55.835228, lon.=26.158854, Alt.=203.709106m. Speed=0.144000m/h.</desc>
<speed>0.040000</speed>
</trkpt>
<trkpt lat="55.835228" lon="26.158852">
<ele>203.666138</ele>
<time>2010-07-17T13:24:08Z</time>
<desc>lat.=55.835228, lon.=26.158852, Alt.=203.666138m. Speed=0.144000m/h.</desc>
<speed>0.040000</speed>
</trkpt>
<trkpt lat="55.835228" lon="26.158852">
<ele>203.623169</ele>
<time>2010-07-17T13:24:09Z</time>
<desc>lat.=55.835228, lon.=26.158852, Alt.=203.623169m. Speed=0.180000m/h.</desc>
<speed>0.050000</speed>
</trkpt>
<trkpt lat="55.835228" lon="26.158852">
<ele>203.591919</ele>
<time>2010-07-17T13:24:10Z</time>
<desc>lat.=55.835228, lon.=26.158852, Alt.=203.591919m. Speed=0.576000m/h.</desc>
<speed>0.160000</speed>
</trkpt>
<trkpt lat="55.835232" lon="26.158848">
<ele>203.509888</ele>
<time>2010-07-17T13:24:11Z</time>
<desc>lat.=55.835232, lon.=26.158848, Alt.=203.509888m. Speed=0.936000m/h.</desc>
<speed>0.260000</speed>
</trkpt>
<trkpt lat="55.835232" lon="26.158844">
<ele>203.486450</ele>
<time>2010-07-17T13:24:12Z</time>
<desc>lat.=55.835232, lon.=26.158844, Alt.=203.486450m. Speed=1.692000m/h.</desc>
<speed>0.470000</speed>
</trkpt>
<trkpt lat="55.835228" lon="26.158836">
<ele>203.482544</ele>
<time>2010-07-17T13:24:13Z</time>
<desc>lat.=55.835228, lon.=26.158836, Alt.=203.482544m. Speed=3.780000m/h.</desc>
<speed>1.050000</speed>
</trkpt>
<trkpt lat="55.835209" lon="26.158804">
<ele>203.248169</ele>
<time>2010-07-17T13:24:14Z</time>
<desc>lat.=55.835209, lon.=26.158804, Alt.=203.248169m. Speed=3.888000m/h.</desc>
<speed>1.080000</speed>
</trkpt>
<trkpt lat="55.835194" lon="26.158766">
<ele>203.099731</ele>
<time>2010-07-17T13:24:15Z</time>
<desc>lat.=55.835194, lon.=26.158766, Alt.=203.099731m. Speed=8.568000m/h.</desc>
<speed>2.380000</speed>
</trkpt>
<trkpt lat="55.835167" lon="26.158699">
<ele>202.841919</ele>
<time>2010-07-17T13:24:16Z</time>
<desc>lat.=55.835167, lon.=26.158699, Alt.=202.841919m. Speed=10.800000m/h.</desc>
<speed>3.000000</speed>
</trkpt>
<trkpt lat="55.835140" lon="26.158640">
<ele>202.502075</ele>
<time>2010-07-17T13:24:17Z</time>
<desc>lat.=55.835140, lon.=26.158640, Alt.=202.502075m. Speed=12.276000m/h.</desc>
<speed>3.410000</speed>
</trkpt>
<trkpt lat="55.835125" lon="26.158573">
<ele>202.236450</ele>
<time>2010-07-17T13:24:18Z</time>
<desc>lat.=55.835125, lon.=26.158573, Alt.=202.236450m. Speed=15.192000m/h.</desc>
<speed>4.220000</speed>
</trkpt>
<trkpt lat="55.835110" lon="26.158491">
<ele>202.103638</ele>
<time>2010-07-17T13:24:19Z</time>
<desc>lat.=55.835110, lon.=26.158491, Alt.=202.103638m. Speed=16.308001m/h.</desc>
<speed>4.530000</speed>
</trkpt>
<trkpt lat="55.835083" lon="26.158403">
<ele>201.814575</ele>
<time>2010-07-17T13:24:20Z</time>
<desc>lat.=55.835083, lon.=26.158403, Alt.=201.814575m. Speed=17.136000m/h.</desc>
<speed>4.760000</speed>
</trkpt>
<trkpt lat="55.835064" lon="26.158312">
<ele>201.591919</ele>
<time>2010-07-17T13:24:21Z</time>
<desc>lat.=55.835064, lon.=26.158312, Alt.=201.591919m. Speed=19.080000m/h.</desc>
<speed>5.300000</speed>
</trkpt>
<trkpt lat="55.835041" lon="26.158211">
<ele>201.416138</ele>
<time>2010-07-17T13:24:22Z</time>
<desc>lat.=55.835041, lon.=26.158211, Alt.=201.416138m. Speed=19.620001m/h.</desc>
<speed>5.450000</speed>
</trkpt>
<trkpt lat="55.835022" lon="26.158125">
<ele>201.287231</ele>
<time>2010-07-17T13:24:23Z</time>
<desc>lat.=55.835022, lon.=26.158125, Alt.=201.287231m. Speed=18.972000m/h.</desc>
<speed>5.270000</speed>
</trkpt>
<trkpt lat="55.834999" lon="26.158035">
<ele>200.955200</ele>
<time>2010-07-17T13:24:24Z</time>
<desc>lat.=55.834999, lon.=26.158035, Alt.=200.955200m. Speed=18.180000m/h.</desc>
<speed>5.050000</speed>
</trkpt>
<trkpt lat="55.834976" lon="26.157932">
<ele>200.826294</ele>
<time>2010-07-17T13:24:25Z</time>
<desc>lat.=55.834976, lon.=26.157932, Alt.=200.826294m. Speed=19.368000m/h.</desc>
<speed>5.380000</speed>
</trkpt>
<trkpt lat="55.834957" lon="26.157845">
<ele>200.595825</ele>
<time>2010-07-17T13:24:26Z</time>
<desc>lat.=55.834957, lon.=26.157845, Alt.=200.595825m. Speed=18.864000m/h.</desc>
<speed>5.240000</speed>
</trkpt>
<trkpt lat="55.834946" lon="26.157761">
<ele>200.298950</ele>
<time>2010-07-17T13:24:27Z</time>
<desc>lat.=55.834946, lon.=26.157761, Alt.=200.298950m. Speed=17.747999m/h.</desc>
<speed>4.930000</speed>
</trkpt>
<trkpt lat="55.834934" lon="26.157682">
<ele>200.076294</ele>
<time>2010-07-17T13:24:28Z</time>
<desc>lat.=55.834934, lon.=26.157682, Alt.=200.076294m. Speed=18.180000m/h.</desc>
<speed>5.050000</speed>
</trkpt>
<trkpt lat="55.834923" lon="26.157600">
<ele>199.431763</ele>
<time>2010-07-17T13:24:29Z</time>
<desc>lat.=55.834923, lon.=26.157600, Alt.=199.431763m. Speed=16.992001m/h.</desc>
<speed>4.720000</speed>
</trkpt>
<trkpt lat="55.834911" lon="26.157503">
<ele>198.810669</ele>
<time>2010-07-17T13:24:30Z</time>
<desc>lat.=55.834911, lon.=26.157503, Alt.=198.810669m. Speed=18.504000m/h.</desc>
<speed>5.140000</speed>
</trkpt>
<trkpt lat="55.834904" lon="26.157413">
<ele>198.388794</ele>
<time>2010-07-17T13:24:31Z</time>
<desc>lat.=55.834904, lon.=26.157413, Alt.=198.388794m. Speed=18.900000m/h.</desc>
<speed>5.250000</speed>
</trkpt>
<trkpt lat="55.834904" lon="26.157324">
<ele>196.748169</ele>
<time>2010-07-17T13:24:32Z</time>
<desc>lat.=55.834904, lon.=26.157324, Alt.=196.748169m. Speed=20.520000m/h.</desc>
<speed>5.700000</speed>
</trkpt>
<trkpt lat="55.834900" lon="26.157238">
<ele>195.830200</ele>
<time>2010-07-17T13:24:33Z</time>
<desc>lat.=55.834900, lon.=26.157238, Alt.=195.830200m. Speed=19.115999m/h.</desc>
<speed>5.310000</speed>
</trkpt>
<trkpt lat="55.834896" lon="26.157154">
<ele>194.677856</ele>
<time>2010-07-17T13:24:34Z</time>
<desc>lat.=55.834896, lon.=26.157154, Alt.=194.677856m. Speed=19.224001m/h.</desc>
<speed>5.340000</speed>
</trkpt>
<trkpt lat="55.834892" lon="26.157057">
<ele>193.927856</ele>
<time>2010-07-17T13:24:35Z</time>
<desc>lat.=55.834892, lon.=26.157057, Alt.=193.927856m. Speed=20.736000m/h.</desc>
<speed>5.760000</speed>
</trkpt>
<trkpt lat="55.834892" lon="26.156969">
<ele>193.166138</ele>
<time>2010-07-17T13:24:36Z</time>
<desc>lat.=55.834892, lon.=26.156969, Alt.=193.166138m. Speed=18.827999m/h.</desc>
<speed>5.230000</speed>
</trkpt>
<trkpt lat="55.834892" lon="26.156881">
<ele>192.478638</ele>
<time>2010-07-17T13:24:37Z</time>
<desc>lat.=55.834892, lon.=26.156881, Alt.=192.478638m. Speed=20.412001m/h.</desc>
<speed>5.670000</speed>
</trkpt>
<trkpt lat="55.834900" lon="26.156784">
<ele>191.588013</ele>
<time>2010-07-17T13:24:38Z</time>
<desc>lat.=55.834900, lon.=26.156784, Alt.=191.588013m. Speed=21.240000m/h.</desc>
<speed>5.900000</speed>
</trkpt>
<trkpt lat="55.834904" lon="26.156689">
<ele>190.255981</ele>
<time>2010-07-17T13:24:39Z</time>
<desc>lat.=55.834904, lon.=26.156689, Alt.=190.255981m. Speed=21.708000m/h.</desc>
<speed>6.030000</speed>
</trkpt>
<trkpt lat="55.834923" lon="26.156591">
<ele>189.498169</ele>
<time>2010-07-17T13:24:40Z</time>
<desc>lat.=55.834923, lon.=26.156591, Alt.=189.498169m. Speed=21.563999m/h.</desc>
<speed>5.990000</speed>
</trkpt>
<trkpt lat="55.834938" lon="26.156502">
<ele>188.744263</ele>
<time>2010-07-17T13:24:41Z</time>
<desc>lat.=55.834938, lon.=26.156502, Alt.=188.744263m. Speed=19.656000m/h.</desc>
<speed>5.460000</speed>
</trkpt>
<trkpt lat="55.834953" lon="26.156406">
<ele>188.185669</ele>
<time>2010-07-17T13:24:42Z</time>
<desc>lat.=55.834953, lon.=26.156406, Alt.=188.185669m. Speed=20.016001m/h.</desc>
<speed>5.560000</speed>
</trkpt>
<trkpt lat="55.834976" lon="26.156322">
<ele>187.689575</ele>
<time>2010-07-17T13:24:43Z</time>
<desc>lat.=55.834976, lon.=26.156322, Alt.=187.689575m. Speed=21.743999m/h.</desc>
<speed>6.040000</speed>
</trkpt>
<trkpt lat="55.835003" lon="26.156242">
<ele>187.220825</ele>
<time>2010-07-17T13:24:44Z</time>
<desc>lat.=55.835003, lon.=26.156242, Alt.=187.220825m. Speed=20.412001m/h.</desc>
<speed>5.670000</speed>
</trkpt>
<trkpt lat="55.835030" lon="26.156170">
<ele>186.654419</ele>
<time>2010-07-17T13:24:45Z</time>
<desc>lat.=55.835030, lon.=26.156170, Alt.=186.654419m. Speed=20.700001m/h.</desc>
<speed>5.750000</speed>
</trkpt>
<trkpt lat="55.835060" lon="26.156109">
<ele>186.181763</ele>
<time>2010-07-17T13:24:46Z</time>
<desc>lat.=55.835060, lon.=26.156109, Alt.=186.181763m. Speed=19.836000m/h.</desc>
<speed>5.510000</speed>
</trkpt>
<trkpt lat="55.835091" lon="26.156033">
<ele>185.580200</ele>
<time>2010-07-17T13:24:47Z</time>
<desc>lat.=55.835091, lon.=26.156033, Alt.=185.580200m. Speed=18.252001m/h.</desc>
<speed>5.070000</speed>
</trkpt>
<trkpt lat="55.835121" lon="26.155970">
<ele>184.908325</ele>
<time>2010-07-17T13:24:48Z</time>
<desc>lat.=55.835121, lon.=26.155970, Alt.=184.908325m. Speed=18.612000m/h.</desc>
<speed>5.170000</speed>
</trkpt>
<trkpt lat="55.835155" lon="26.155901">
<ele>184.369263</ele>
<time>2010-07-17T13:24:49Z</time>
<desc>lat.=55.835155, lon.=26.155901, Alt.=184.369263m. Speed=20.160000m/h.</desc>
<speed>5.600000</speed>
</trkpt>
<trkpt lat="55.835186" lon="26.155834">
<ele>183.728638</ele>
<time>2010-07-17T13:24:50Z</time>
<desc>lat.=55.835186, lon.=26.155834, Alt.=183.728638m. Speed=19.296000m/h.</desc>
<speed>5.360000</speed>
</trkpt>
<trkpt lat="55.835217" lon="26.155773">
<ele>183.322388</ele>
<time>2010-07-17T13:24:51Z</time>
<desc>lat.=55.835217, lon.=26.155773, Alt.=183.322388m. Speed=17.676001m/h.</desc>
<speed>4.910000</speed>
</trkpt>
<trkpt lat="55.835247" lon="26.155714">
<ele>182.873169</ele>
<time>2010-07-17T13:24:52Z</time>
<desc>lat.=55.835247, lon.=26.155714, Alt.=182.873169m. Speed=18.035999m/h.</desc>
<speed>5.010000</speed>
</trkpt>
<trkpt lat="55.835278" lon="26.155643">
<ele>182.431763</ele>
<time>2010-07-17T13:24:53Z</time>
<desc>lat.=55.835278, lon.=26.155643, Alt.=182.431763m. Speed=20.016001m/h.</desc>
<speed>5.560000</speed>
</trkpt>
<trkpt lat="55.835312" lon="26.155575">
<ele>181.912231</ele>
<time>2010-07-17T13:24:54Z</time>
<desc>lat.=55.835312, lon.=26.155575, Alt.=181.912231m. Speed=19.440001m/h.</desc>
<speed>5.400000</speed>
</trkpt>
<trkpt lat="55.835342" lon="26.155506">
<ele>181.455200</ele>
<time>2010-07-17T13:24:55Z</time>
<desc>lat.=55.835342, lon.=26.155506, Alt.=181.455200m. Speed=20.916000m/h.</desc>
<speed>5.810000</speed>
</trkpt>
<trkpt lat="55.835377" lon="26.155437">
<ele>181.091919</ele>
<time>2010-07-17T13:24:56Z</time>
<desc>lat.=55.835377, lon.=26.155437, Alt.=181.091919m. Speed=20.268000m/h.</desc>
<speed>5.630000</speed>
</trkpt>
<trkpt lat="55.835407" lon="26.155369">
<ele>180.576294</ele>
<time>2010-07-17T13:24:57Z</time>
<desc>lat.=55.835407, lon.=26.155369, Alt.=180.576294m. Speed=20.304001m/h.</desc>
<speed>5.640000</speed>
</trkpt>
<trkpt lat="55.835442" lon="26.155298">
<ele>180.033325</ele>
<time>2010-07-17T13:24:58Z</time>
<desc>lat.=55.835442, lon.=26.155298, Alt.=180.033325m. Speed=21.240000m/h.</desc>
<speed>5.900000</speed>
</trkpt>
<trkpt lat="55.835480" lon="26.155231">
<ele>179.548950</ele>
<time>2010-07-17T13:24:59Z</time>
<desc>lat.=55.835480, lon.=26.155231, Alt.=179.548950m. Speed=19.944000m/h.</desc>
<speed>5.540000</speed>
</trkpt>
<trkpt lat="55.835518" lon="26.155161">
<ele>179.068481</ele>
<time>2010-07-17T13:25:00Z</time>
<desc>lat.=55.835518, lon.=26.155161, Alt.=179.068481m. Speed=21.096001m/h.</desc>
<speed>5.860000</speed>
</trkpt>
<trkpt lat="55.835567" lon="26.155085">
<ele>178.736450</ele>
<time>2010-07-17T13:25:01Z</time>
<desc>lat.=55.835567, lon.=26.155085, Alt.=178.736450m. Speed=21.959999m/h.</desc>
<speed>6.100000</speed>
</trkpt>
<trkpt lat="55.835602" lon="26.155010">
<ele>178.134888</ele>
<time>2010-07-17T13:25:02Z</time>
<desc>lat.=55.835602, lon.=26.155010, Alt.=178.134888m. Speed=21.096001m/h.</desc>
<speed>5.860000</speed>
</trkpt>
<trkpt lat="55.835640" lon="26.154938">
<ele>177.677856</ele>
<time>2010-07-17T13:25:03Z</time>
<desc>lat.=55.835640, lon.=26.154938, Alt.=177.677856m. Speed=20.268000m/h.</desc>
<speed>5.630000</speed>
</trkpt>
<trkpt lat="55.835674" lon="26.154875">
<ele>177.127075</ele>
<time>2010-07-17T13:25:04Z</time>
<desc>lat.=55.835674, lon.=26.154875, Alt.=177.127075m. Speed=18.504000m/h.</desc>
<speed>5.140000</speed>
</trkpt>
<trkpt lat="55.835705" lon="26.154808">
<ele>176.584106</ele>
<time>2010-07-17T13:25:05Z</time>
<desc>lat.=55.835705, lon.=26.154808, Alt.=176.584106m. Speed=19.476000m/h.</desc>
<speed>5.410000</speed>
</trkpt>
<trkpt lat="55.835732" lon="26.154736">
<ele>176.107544</ele>
<time>2010-07-17T13:25:06Z</time>
<desc>lat.=55.835732, lon.=26.154736, Alt.=176.107544m. Speed=19.296000m/h.</desc>
<speed>5.360000</speed>
</trkpt>
<trkpt lat="55.835751" lon="26.154650">
<ele>175.474731</ele>
<time>2010-07-17T13:25:07Z</time>
<desc>lat.=55.835751, lon.=26.154650, Alt.=175.474731m. Speed=21.455999m/h.</desc>
<speed>5.960000</speed>
</trkpt>
<trkpt lat="55.835773" lon="26.154552">
<ele>174.978638</ele>
<time>2010-07-17T13:25:08Z</time>
<desc>lat.=55.835773, lon.=26.154552, Alt.=174.978638m. Speed=22.356001m/h.</desc>
<speed>6.210000</speed>
</trkpt>
<trkpt lat="55.835800" lon="26.154448">
<ele>174.240356</ele>
<time>2010-07-17T13:25:09Z</time>
<desc>lat.=55.835800, lon.=26.154448, Alt.=174.240356m. Speed=22.968000m/h.</desc>
<speed>6.380000</speed>
</trkpt>
<trkpt lat="55.835815" lon="26.154346">
<ele>173.759888</ele>
<time>2010-07-17T13:25:10Z</time>
<desc>lat.=55.835815, lon.=26.154346, Alt.=173.759888m. Speed=23.327999m/h.</desc>
<speed>6.480000</speed>
</trkpt>
<trkpt lat="55.835831" lon="26.154232">
<ele>173.170044</ele>
<time>2010-07-17T13:25:11Z</time>
<desc>lat.=55.835831, lon.=26.154232, Alt.=173.170044m. Speed=24.912001m/h.</desc>
<speed>6.920000</speed>
</trkpt>
<trkpt lat="55.835846" lon="26.154121">
<ele>172.517700</ele>
<time>2010-07-17T13:25:12Z</time>
<desc>lat.=55.835846, lon.=26.154121, Alt.=172.517700m. Speed=25.632000m/h.</desc>
<speed>7.120000</speed>
</trkpt>
<trkpt lat="55.835857" lon="26.154007">
<ele>171.912231</ele>
<time>2010-07-17T13:25:13Z</time>
<desc>lat.=55.835857, lon.=26.154007, Alt.=171.912231m. Speed=26.820000m/h.</desc>
<speed>7.450000</speed>
</trkpt>
<trkpt lat="55.835865" lon="26.153898">
<ele>171.275513</ele>
<time>2010-07-17T13:25:14Z</time>
<desc>lat.=55.835865, lon.=26.153898, Alt.=171.275513m. Speed=24.011999m/h.</desc>
<speed>6.670000</speed>
</trkpt>
<trkpt lat="55.835869" lon="26.153803">
<ele>170.713013</ele>
<time>2010-07-17T13:25:15Z</time>
<desc>lat.=55.835869, lon.=26.153803, Alt.=170.713013m. Speed=20.195999m/h.</desc>
<speed>5.610000</speed>
</trkpt>
<trkpt lat="55.835857" lon="26.153744">
<ele>171.177856</ele>
<time>2010-07-17T13:25:16Z</time>
<desc>lat.=55.835857, lon.=26.153744, Alt.=171.177856m. Speed=15.228000m/h.</desc>
<speed>4.230000</speed>
</trkpt>
<trkpt lat="55.835861" lon="26.153687">
<ele>171.021606</ele>
<time>2010-07-17T13:25:17Z</time>
<desc>lat.=55.835861, lon.=26.153687, Alt.=171.021606m. Speed=11.052000m/h.</desc>
<speed>3.070000</speed>
</trkpt>
<trkpt lat="55.835865" lon="26.153646">
<ele>170.810669</ele>
<time>2010-07-17T13:25:18Z</time>
<desc>lat.=55.835865, lon.=26.153646, Alt.=170.810669m. Speed=6.192000m/h.</desc>
<speed>1.720000</speed>
</trkpt>
<trkpt lat="55.835865" lon="26.153620">
<ele>170.537231</ele>
<time>2010-07-17T13:25:19Z</time>
<desc>lat.=55.835865, lon.=26.153620, Alt.=170.537231m. Speed=5.688000m/h.</desc>
<speed>1.580000</speed>
</trkpt>
<trkpt lat="55.835873" lon="26.153597">
<ele>170.834106</ele>
<time>2010-07-17T13:25:20Z</time>
<desc>lat.=55.835873, lon.=26.153597, Alt.=170.834106m. Speed=4.680000m/h.</desc>
<speed>1.300000</speed>
</trkpt>
<trkpt lat="55.835873" lon="26.153566">
<ele>170.146606</ele>
<time>2010-07-17T13:25:21Z</time>
<desc>lat.=55.835873, lon.=26.153566, Alt.=170.146606m. Speed=5.616000m/h.</desc>
<speed>1.560000</speed>
</trkpt>
<trkpt lat="55.835873" lon="26.153540">
<ele>169.134888</ele>
<time>2010-07-17T13:25:22Z</time>
<desc>lat.=55.835873, lon.=26.153540, Alt.=169.134888m. Speed=6.768000m/h.</desc>
<speed>1.880000</speed>
</trkpt>
<trkpt lat="55.835869" lon="26.153509">
<ele>169.037231</ele>
<time>2010-07-17T13:25:23Z</time>
<desc>lat.=55.835869, lon.=26.153509, Alt.=169.037231m. Speed=7.200000m/h.</desc>
<speed>2.000000</speed>
</trkpt>
<trkpt lat="55.835869" lon="26.153475">
<ele>169.021606</ele>
<time>2010-07-17T13:25:24Z</time>
<desc>lat.=55.835869, lon.=26.153475, Alt.=169.021606m. Speed=7.524000m/h.</desc>
<speed>2.090000</speed>
</trkpt>
<trkpt lat="55.835873" lon="26.153446">
<ele>169.259888</ele>
<time>2010-07-17T13:25:25Z</time>
<desc>lat.=55.835873, lon.=26.153446, Alt.=169.259888m. Speed=7.632000m/h.</desc>
<speed>2.120000</speed>
</trkpt>
<trkpt lat="55.835873" lon="26.153412">
<ele>169.080200</ele>
<time>2010-07-17T13:25:26Z</time>
<desc>lat.=55.835873, lon.=26.153412, Alt.=169.080200m. Speed=8.028000m/h.</desc>
<speed>2.230000</speed>
</trkpt>
<trkpt lat="55.835873" lon="26.153378">
<ele>168.966919</ele>
<time>2010-07-17T13:25:27Z</time>
<desc>lat.=55.835873, lon.=26.153378, Alt.=168.966919m. Speed=6.876000m/h.</desc>
<speed>1.910000</speed>
</trkpt>
<trkpt lat="55.835873" lon="26.153349">
<ele>168.834106</ele>
<time>2010-07-17T13:25:28Z</time>
<desc>lat.=55.835873, lon.=26.153349, Alt.=168.834106m. Speed=4.932000m/h.</desc>
<speed>1.370000</speed>
</trkpt>
<trkpt lat="55.835873" lon="26.153332">
<ele>168.701294</ele>
<time>2010-07-17T13:25:29Z</time>
<desc>lat.=55.835873, lon.=26.153332, Alt.=168.701294m. Speed=4.104000m/h.</desc>
<speed>1.140000</speed>
</trkpt>
<trkpt lat="55.835873" lon="26.153303">
<ele>168.439575</ele>
<time>2010-07-17T13:25:30Z</time>
<desc>lat.=55.835873, lon.=26.153303, Alt.=168.439575m. Speed=5.688000m/h.</desc>
<speed>1.580000</speed>
</trkpt>
<trkpt lat="55.835869" lon="26.153275">
<ele>168.252075</ele>
<time>2010-07-17T13:25:31Z</time>
<desc>lat.=55.835869, lon.=26.153275, Alt.=168.252075m. Speed=5.688000m/h.</desc>
<speed>1.580000</speed>
</trkpt>
<trkpt lat="55.835873" lon="26.153244">
<ele>168.310669</ele>
<time>2010-07-17T13:25:32Z</time>
<desc>lat.=55.835873, lon.=26.153244, Alt.=168.310669m. Speed=6.444000m/h.</desc>
<speed>1.790000</speed>
</trkpt>
<trkpt lat="55.835869" lon="26.153212">
<ele>167.834106</ele>
<time>2010-07-17T13:25:33Z</time>
<desc>lat.=55.835869, lon.=26.153212, Alt.=167.834106m. Speed=6.876000m/h.</desc>
<speed>1.910000</speed>
</trkpt>
<trkpt lat="55.835869" lon="26.153181">
<ele>167.572388</ele>
<time>2010-07-17T13:25:34Z</time>
<desc>lat.=55.835869, lon.=26.153181, Alt.=167.572388m. Speed=6.804000m/h.</desc>
<speed>1.890000</speed>
</trkpt>
<trkpt lat="55.835880" lon="26.153152">
<ele>167.361450</ele>
<time>2010-07-17T13:25:35Z</time>
<desc>lat.=55.835880, lon.=26.153152, Alt.=167.361450m. Speed=6.876000m/h.</desc>
<speed>1.910000</speed>
</trkpt>
<trkpt lat="55.835888" lon="26.153120">
<ele>167.193481</ele>
<time>2010-07-17T13:25:36Z</time>
<desc>lat.=55.835888, lon.=26.153120, Alt.=167.193481m. Speed=7.740000m/h.</desc>
<speed>2.150000</speed>
</trkpt>
<trkpt lat="55.835888" lon="26.153078">
<ele>166.849731</ele>
<time>2010-07-17T13:25:37Z</time>
<desc>lat.=55.835888, lon.=26.153078, Alt.=166.849731m. Speed=7.776000m/h.</desc>
<speed>2.160000</speed>
</trkpt>
<trkpt lat="55.835884" lon="26.153046">
<ele>166.478638</ele>
<time>2010-07-17T13:25:38Z</time>
<desc>lat.=55.835884, lon.=26.153046, Alt.=166.478638m. Speed=6.948000m/h.</desc>
<speed>1.930000</speed>
</trkpt>
<trkpt lat="55.835884" lon="26.153009">
<ele>166.177856</ele>
<time>2010-07-17T13:25:39Z</time>
<desc>lat.=55.835884, lon.=26.153009, Alt.=166.177856m. Speed=8.676000m/h.</desc>
<speed>2.410000</speed>
</trkpt>
<trkpt lat="55.835884" lon="26.152966">
<ele>165.841919</ele>
<time>2010-07-17T13:25:40Z</time>
<desc>lat.=55.835884, lon.=26.152966, Alt.=165.841919m. Speed=11.160000m/h.</desc>
<speed>3.100000</speed>
</trkpt>
<trkpt lat="55.835884" lon="26.152908">
<ele>165.685669</ele>
<time>2010-07-17T13:25:41Z</time>
<desc>lat.=55.835884, lon.=26.152908, Alt.=165.685669m. Speed=11.952000m/h.</desc>
<speed>3.320000</speed>
</trkpt>
<trkpt lat="55.835884" lon="26.152855">
<ele>165.369263</ele>
<time>2010-07-17T13:25:42Z</time>
<desc>lat.=55.835884, lon.=26.152855, Alt.=165.369263m. Speed=12.384000m/h.</desc>
<speed>3.440000</speed>
</trkpt>
<trkpt lat="55.835888" lon="26.152786">
<ele>164.943481</ele>
<time>2010-07-17T13:25:43Z</time>
<desc>lat.=55.835888, lon.=26.152786, Alt.=164.943481m. Speed=16.667999m/h.</desc>
<speed>4.630000</speed>
</trkpt>
<trkpt lat="55.835892" lon="26.152706">
<ele>164.494263</ele>
<time>2010-07-17T13:25:44Z</time>
<desc>lat.=55.835892, lon.=26.152706, Alt.=164.494263m. Speed=18.396000m/h.</desc>
<speed>5.110000</speed>
</trkpt>
<trkpt lat="55.835892" lon="26.152615">
<ele>163.810669</ele>
<time>2010-07-17T13:25:45Z</time>
<desc>lat.=55.835892, lon.=26.152615, Alt.=163.810669m. Speed=16.955999m/h.</desc>
<speed>4.710000</speed>
</trkpt>
<trkpt lat="55.835892" lon="26.152534">
<ele>163.162231</ele>
<time>2010-07-17T13:25:46Z</time>
<desc>lat.=55.835892, lon.=26.152534, Alt.=163.162231m. Speed=15.948000m/h.</desc>
<speed>4.430000</speed>
</trkpt>
<trkpt lat="55.835888" lon="26.152452">
<ele>162.701294</ele>
<time>2010-07-17T13:25:47Z</time>
<desc>lat.=55.835888, lon.=26.152452, Alt.=162.701294m. Speed=16.848000m/h.</desc>
<speed>4.680000</speed>
</trkpt>
<trkpt lat="55.835892" lon="26.152374">
<ele>162.111450</ele>
<time>2010-07-17T13:25:48Z</time>
<desc>lat.=55.835892, lon.=26.152374, Alt.=162.111450m. Speed=16.128000m/h.</desc>
<speed>4.480000</speed>
</trkpt>
<trkpt lat="55.835911" lon="26.152277">
<ele>161.435669</ele>
<time>2010-07-17T13:25:49Z</time>
<desc>lat.=55.835911, lon.=26.152277, Alt.=161.435669m. Speed=19.691999m/h.</desc>
<speed>5.470000</speed>
</trkpt>
<trkpt lat="55.835922" lon="26.152195">
<ele>161.033325</ele>
<time>2010-07-17T13:25:50Z</time>
<desc>lat.=55.835922, lon.=26.152195, Alt.=161.033325m. Speed=17.604000m/h.</desc>
<speed>4.890000</speed>
</trkpt>
<trkpt lat="55.835938" lon="26.152102">
<ele>160.435669</ele>
<time>2010-07-17T13:25:51Z</time>
<desc>lat.=55.835938, lon.=26.152102, Alt.=160.435669m. Speed=19.332001m/h.</desc>
<speed>5.370000</speed>
</trkpt>
<trkpt lat="55.835945" lon="26.152020">
<ele>159.990356</ele>
<time>2010-07-17T13:25:52Z</time>
<desc>lat.=55.835945, lon.=26.152020, Alt.=159.990356m. Speed=17.604000m/h.</desc>
<speed>4.890000</speed>
</trkpt>
<trkpt lat="55.835953" lon="26.151928">
<ele>159.470825</ele>
<time>2010-07-17T13:25:53Z</time>
<desc>lat.=55.835953, lon.=26.151928, Alt.=159.470825m. Speed=18.360001m/h.</desc>
<speed>5.100000</speed>
</trkpt>
<trkpt lat="55.835953" lon="26.151836">
<ele>158.892700</ele>
<time>2010-07-17T13:25:54Z</time>
<desc>lat.=55.835953, lon.=26.151836, Alt.=158.892700m. Speed=18.360001m/h.</desc>
<speed>5.100000</speed>
</trkpt>
<trkpt lat="55.835945" lon="26.151752">
<ele>158.244263</ele>
<time>2010-07-17T13:25:55Z</time>
<desc>lat.=55.835945, lon.=26.151752, Alt.=158.244263m. Speed=17.063999m/h.</desc>
<speed>4.740000</speed>
</trkpt>
<trkpt lat="55.835945" lon="26.151667">
<ele>157.650513</ele>
<time>2010-07-17T13:25:56Z</time>
<desc>lat.=55.835945, lon.=26.151667, Alt.=157.650513m. Speed=17.351999m/h.</desc>
<speed>4.820000</speed>
</trkpt>
<trkpt lat="55.835945" lon="26.151587">
<ele>157.091919</ele>
<time>2010-07-17T13:25:57Z</time>
<desc>lat.=55.835945, lon.=26.151587, Alt.=157.091919m. Speed=15.228000m/h.</desc>
<speed>4.230000</speed>
</trkpt>
<trkpt lat="55.835949" lon="26.151506">
<ele>156.463013</ele>
<time>2010-07-17T13:25:58Z</time>
<desc>lat.=55.835949, lon.=26.151506, Alt.=156.463013m. Speed=15.516000m/h.</desc>
<speed>4.310000</speed>
</trkpt>
<trkpt lat="55.835953" lon="26.151428">
<ele>155.955200</ele>
<time>2010-07-17T13:25:59Z</time>
<desc>lat.=55.835953, lon.=26.151428, Alt.=155.955200m. Speed=16.704000m/h.</desc>
<speed>4.640000</speed>
</trkpt>
<trkpt lat="55.835957" lon="26.151352">
<ele>155.572388</ele>
<time>2010-07-17T13:26:00Z</time>
<desc>lat.=55.835957, lon.=26.151352, Alt.=155.572388m. Speed=16.704000m/h.</desc>
<speed>4.640000</speed>
</trkpt>
<trkpt lat="55.835960" lon="26.151268">
<ele>155.064575</ele>
<time>2010-07-17T13:26:01Z</time>
<desc>lat.=55.835960, lon.=26.151268, Alt.=155.064575m. Speed=18.360001m/h.</desc>
<speed>5.100000</speed>
</trkpt>
<trkpt lat="55.835945" lon="26.151148">
<ele>154.619263</ele>
<time>2010-07-17T13:26:02Z</time>
<desc>lat.=55.835945, lon.=26.151148, Alt.=154.619263m. Speed=25.379999m/h.</desc>
<speed>7.050000</speed>
</trkpt>
<trkpt lat="55.835934" lon="26.151028">
<ele>154.091919</ele>
<time>2010-07-17T13:26:03Z</time>
<desc>lat.=55.835934, lon.=26.151028, Alt.=154.091919m. Speed=24.624001m/h.</desc>
<speed>6.840000</speed>
</trkpt>
<trkpt lat="55.835930" lon="26.150871">
<ele>153.177856</ele>
<time>2010-07-17T13:26:04Z</time>
<desc>lat.=55.835930, lon.=26.150871, Alt.=153.177856m. Speed=32.543999m/h.</desc>
<speed>9.040000</speed>
</trkpt>
<trkpt lat="55.835922" lon="26.150730">
<ele>152.752075</ele>
<time>2010-07-17T13:26:05Z</time>
<desc>lat.=55.835922, lon.=26.150730, Alt.=152.752075m. Speed=29.483999m/h.</desc>
<speed>8.190000</speed>
</trkpt>
<trkpt lat="55.835915" lon="26.150597">
<ele>152.338013</ele>
<time>2010-07-17T13:26:06Z</time>
<desc>lat.=55.835915, lon.=26.150597, Alt.=152.338013m. Speed=30.708000m/h.</desc>
<speed>8.530000</speed>
</trkpt>
<trkpt lat="55.835835" lon="26.150356">
<ele>153.271606</ele>
<time>2010-07-17T13:26:07Z</time>
<desc>lat.=55.835835, lon.=26.150356, Alt.=153.271606m. Speed=31.392000m/h.</desc>
<speed>8.720000</speed>
</trkpt>
<trkpt lat="55.835815" lon="26.150181">
<ele>152.689575</ele>
<time>2010-07-17T13:26:08Z</time>
<desc>lat.=55.835815, lon.=26.150181, Alt.=152.689575m. Speed=29.844000m/h.</desc>
<speed>8.290000</speed>
</trkpt>
<trkpt lat="55.835800" lon="26.150047">
<ele>152.435669</ele>
<time>2010-07-17T13:26:09Z</time>
<desc>lat.=55.835800, lon.=26.150047, Alt.=152.435669m. Speed=29.556000m/h.</desc>
<speed>8.210000</speed>
</trkpt>
<trkpt lat="55.835781" lon="26.149914">
<ele>152.677856</ele>
<time>2010-07-17T13:26:10Z</time>
<desc>lat.=55.835781, lon.=26.149914, Alt.=152.677856m. Speed=28.548000m/h.</desc>
<speed>7.930000</speed>
</trkpt>
<trkpt lat="55.835773" lon="26.149796">
<ele>153.189575</ele>
<time>2010-07-17T13:26:11Z</time>
<desc>lat.=55.835773, lon.=26.149796, Alt.=153.189575m. Speed=27.648001m/h.</desc>
<speed>7.680000</speed>
</trkpt>
<trkpt lat="55.835758" lon="26.149673">
<ele>153.244263</ele>
<time>2010-07-17T13:26:12Z</time>
<desc>lat.=55.835758, lon.=26.149673, Alt.=153.244263m. Speed=27.360001m/h.</desc>
<speed>7.600000</speed>
</trkpt>
<trkpt lat="55.835754" lon="26.149551">
<ele>153.439575</ele>
<time>2010-07-17T13:26:13Z</time>
<desc>lat.=55.835754, lon.=26.149551, Alt.=153.439575m. Speed=27.360001m/h.</desc>
<speed>7.600000</speed>
</trkpt>
<trkpt lat="55.835747" lon="26.149427">
<ele>153.498169</ele>
<time>2010-07-17T13:26:14Z</time>
<desc>lat.=55.835747, lon.=26.149427, Alt.=153.498169m. Speed=24.660000m/h.</desc>
<speed>6.850000</speed>
</trkpt>
<trkpt lat="55.835724" lon="26.149319">
<ele>152.951294</ele>
<time>2010-07-17T13:26:15Z</time>
<desc>lat.=55.835724, lon.=26.149319, Alt.=152.951294m. Speed=26.100000m/h.</desc>
<speed>7.250000</speed>
</trkpt>
<trkpt lat="55.835716" lon="26.149193">
<ele>152.548950</ele>
<time>2010-07-17T13:26:16Z</time>
<desc>lat.=55.835716, lon.=26.149193, Alt.=152.548950m. Speed=25.704000m/h.</desc>
<speed>7.140000</speed>
</trkpt>
<trkpt lat="55.835716" lon="26.149080">
<ele>152.451294</ele>
<time>2010-07-17T13:26:17Z</time>
<desc>lat.=55.835716, lon.=26.149080, Alt.=152.451294m. Speed=24.011999m/h.</desc>
<speed>6.670000</speed>
</trkpt>
<trkpt lat="55.835709" lon="26.148972">
<ele>152.552856</ele>
<time>2010-07-17T13:26:18Z</time>
<desc>lat.=55.835709, lon.=26.148972, Alt.=152.552856m. Speed=24.299999m/h.</desc>
<speed>6.750000</speed>
</trkpt>
<trkpt lat="55.835701" lon="26.148872">
<ele>152.892700</ele>
<time>2010-07-17T13:26:19Z</time>
<desc>lat.=55.835701, lon.=26.148872, Alt.=152.892700m. Speed=23.652000m/h.</desc>
<speed>6.570000</speed>
</trkpt>
<trkpt lat="55.835693" lon="26.148785">
<ele>152.736450</ele>
<time>2010-07-17T13:26:20Z</time>
<desc>lat.=55.835693, lon.=26.148785, Alt.=152.736450m. Speed=22.535999m/h.</desc>
<speed>6.260000</speed>
</trkpt>
<trkpt lat="55.835682" lon="26.148687">
<ele>153.095825</ele>
<time>2010-07-17T13:26:21Z</time>
<desc>lat.=55.835682, lon.=26.148687, Alt.=153.095825m. Speed=20.879999m/h.</desc>
<speed>5.800000</speed>
</trkpt>
<trkpt lat="55.835667" lon="26.148600">
<ele>153.537231</ele>
<time>2010-07-17T13:26:22Z</time>
<desc>lat.=55.835667, lon.=26.148600, Alt.=153.537231m. Speed=19.728001m/h.</desc>
<speed>5.480000</speed>
</trkpt>
<trkpt lat="55.835655" lon="26.148520">
<ele>154.150513</ele>
<time>2010-07-17T13:26:23Z</time>
<desc>lat.=55.835655, lon.=26.148520, Alt.=154.150513m. Speed=17.496000m/h.</desc>
<speed>4.860000</speed>
</trkpt>
<trkpt lat="55.835644" lon="26.148447">
<ele>154.420044</ele>
<time>2010-07-17T13:26:24Z</time>
<desc>lat.=55.835644, lon.=26.148447, Alt.=154.420044m. Speed=16.200001m/h.</desc>
<speed>4.500000</speed>
</trkpt>
<trkpt lat="55.835632" lon="26.148392">
<ele>154.662231</ele>
<time>2010-07-17T13:26:25Z</time>
<desc>lat.=55.835632, lon.=26.148392, Alt.=154.662231m. Speed=15.120000m/h.</desc>
<speed>4.200000</speed>
</trkpt>
<trkpt lat="55.835621" lon="26.148323">
<ele>154.642700</ele>
<time>2010-07-17T13:26:26Z</time>
<desc>lat.=55.835621, lon.=26.148323, Alt.=154.642700m. Speed=15.876000m/h.</desc>
<speed>4.410000</speed>
</trkpt>
<trkpt lat="55.835598" lon="26.148247">
<ele>154.588013</ele>
<time>2010-07-17T13:26:27Z</time>
<desc>lat.=55.835598, lon.=26.148247, Alt.=154.588013m. Speed=17.100000m/h.</desc>
<speed>4.750000</speed>
</trkpt>
<trkpt lat="55.835575" lon="26.148170">
<ele>154.537231</ele>
<time>2010-07-17T13:26:28Z</time>
<desc>lat.=55.835575, lon.=26.148170, Alt.=154.537231m. Speed=16.775999m/h.</desc>
<speed>4.660000</speed>
</trkpt>
<trkpt lat="55.835548" lon="26.148096">
<ele>154.224731</ele>
<time>2010-07-17T13:26:29Z</time>
<desc>lat.=55.835548, lon.=26.148096, Alt.=154.224731m. Speed=17.459999m/h.</desc>
<speed>4.850000</speed>
</trkpt>
<trkpt lat="55.835526" lon="26.148026">
<ele>154.736450</ele>
<time>2010-07-17T13:26:30Z</time>
<desc>lat.=55.835526, lon.=26.148026, Alt.=154.736450m. Speed=17.496000m/h.</desc>
<speed>4.860000</speed>
</trkpt>
<trkpt lat="55.835506" lon="26.147955">
<ele>154.830200</ele>
<time>2010-07-17T13:26:31Z</time>
<desc>lat.=55.835506, lon.=26.147955, Alt.=154.830200m. Speed=17.459999m/h.</desc>
<speed>4.850000</speed>
</trkpt>
<trkpt lat="55.835484" lon="26.147888">
<ele>154.998169</ele>
<time>2010-07-17T13:26:32Z</time>
<desc>lat.=55.835484, lon.=26.147888, Alt.=154.998169m. Speed=18.360001m/h.</desc>
<speed>5.100000</speed>
</trkpt>
<trkpt lat="55.835457" lon="26.147825">
<ele>155.205200</ele>
<time>2010-07-17T13:26:33Z</time>
<desc>lat.=55.835457, lon.=26.147825, Alt.=155.205200m. Speed=17.100000m/h.</desc>
<speed>4.750000</speed>
</trkpt>
<trkpt lat="55.835434" lon="26.147766">
<ele>155.416138</ele>
<time>2010-07-17T13:26:34Z</time>
<desc>lat.=55.835434, lon.=26.147766, Alt.=155.416138m. Speed=15.408000m/h.</desc>
<speed>4.280000</speed>
</trkpt>
<trkpt lat="55.835400" lon="26.147703">
<ele>154.845825</ele>
<time>2010-07-17T13:26:35Z</time>
<desc>lat.=55.835400, lon.=26.147703, Alt.=154.845825m. Speed=19.332001m/h.</desc>
<speed>5.370000</speed>
</trkpt>
<trkpt lat="55.835369" lon="26.147635">
<ele>154.584106</ele>
<time>2010-07-17T13:26:36Z</time>
<desc>lat.=55.835369, lon.=26.147635, Alt.=154.584106m. Speed=19.260000m/h.</desc>
<speed>5.350000</speed>
</trkpt>
<trkpt lat="55.835335" lon="26.147562">
<ele>154.334106</ele>
<time>2010-07-17T13:26:37Z</time>
<desc>lat.=55.835335, lon.=26.147562, Alt.=154.334106m. Speed=19.224001m/h.</desc>
<speed>5.340000</speed>
</trkpt>
<trkpt lat="55.835304" lon="26.147501">
<ele>154.045044</ele>
<time>2010-07-17T13:26:38Z</time>
<desc>lat.=55.835304, lon.=26.147501, Alt.=154.045044m. Speed=19.799999m/h.</desc>
<speed>5.500000</speed>
</trkpt>
<trkpt lat="55.835274" lon="26.147436">
<ele>154.205200</ele>
<time>2010-07-17T13:26:39Z</time>
<desc>lat.=55.835274, lon.=26.147436, Alt.=154.205200m. Speed=17.927999m/h.</desc>
<speed>4.980000</speed>
</trkpt>
<trkpt lat="55.835243" lon="26.147379">
<ele>154.064575</ele>
<time>2010-07-17T13:26:40Z</time>
<desc>lat.=55.835243, lon.=26.147379, Alt.=154.064575m. Speed=16.704000m/h.</desc>
<speed>4.640000</speed>
</trkpt>
<trkpt lat="55.835213" lon="26.147314">
<ele>154.541138</ele>
<time>2010-07-17T13:26:41Z</time>
<desc>lat.=55.835213, lon.=26.147314, Alt.=154.541138m. Speed=16.992001m/h.</desc>
<speed>4.720000</speed>
</trkpt>
<trkpt lat="55.835182" lon="26.147243">
<ele>154.740356</ele>
<time>2010-07-17T13:26:42Z</time>
<desc>lat.=55.835182, lon.=26.147243, Alt.=154.740356m. Speed=16.091999m/h.</desc>
<speed>4.470000</speed>
</trkpt>
<trkpt lat="55.835155" lon="26.147184">
<ele>154.654419</ele>
<time>2010-07-17T13:26:43Z</time>
<desc>lat.=55.835155, lon.=26.147184, Alt.=154.654419m. Speed=15.660000m/h.</desc>
<speed>4.350000</speed>
</trkpt>
<trkpt lat="55.835129" lon="26.147121">
<ele>154.966919</ele>
<time>2010-07-17T13:26:44Z</time>
<desc>lat.=55.835129, lon.=26.147121, Alt.=154.966919m. Speed=14.472000m/h.</desc>
<speed>4.020000</speed>
</trkpt>
<trkpt lat="55.835106" lon="26.147070">
<ele>155.181763</ele>
<time>2010-07-17T13:26:45Z</time>
<desc>lat.=55.835106, lon.=26.147070, Alt.=155.181763m. Speed=13.392000m/h.</desc>
<speed>3.720000</speed>
</trkpt>
<trkpt lat="55.835083" lon="26.147018">
<ele>155.064575</ele>
<time>2010-07-17T13:26:46Z</time>
<desc>lat.=55.835083, lon.=26.147018, Alt.=155.064575m. Speed=13.320000m/h.</desc>
<speed>3.700000</speed>
</trkpt>
<trkpt lat="55.835060" lon="26.146971">
<ele>155.134888</ele>
<time>2010-07-17T13:26:47Z</time>
<desc>lat.=55.835060, lon.=26.146971, Alt.=155.134888m. Speed=12.348000m/h.</desc>
<speed>3.430000</speed>
</trkpt>
<trkpt lat="55.835037" lon="26.146923">
<ele>155.134888</ele>
<time>2010-07-17T13:26:48Z</time>
<desc>lat.=55.835037, lon.=26.146923, Alt.=155.134888m. Speed=12.348000m/h.</desc>
<speed>3.430000</speed>
</trkpt>
<trkpt lat="55.835018" lon="26.146883">
<ele>155.298950</ele>
<time>2010-07-17T13:26:49Z</time>
<desc>lat.=55.835018, lon.=26.146883, Alt.=155.298950m. Speed=13.176000m/h.</desc>
<speed>3.660000</speed>
</trkpt>
<trkpt lat="55.834995" lon="26.146837">
<ele>155.154419</ele>
<time>2010-07-17T13:26:50Z</time>
<desc>lat.=55.834995, lon.=26.146837, Alt.=155.154419m. Speed=13.032000m/h.</desc>
<speed>3.620000</speed>
</trkpt>
<trkpt lat="55.834972" lon="26.146784">
<ele>155.209106</ele>
<time>2010-07-17T13:26:51Z</time>
<desc>lat.=55.834972, lon.=26.146784, Alt.=155.209106m. Speed=14.652000m/h.</desc>
<speed>4.070000</speed>
</trkpt>
<trkpt lat="55.834949" lon="26.146729">
<ele>155.111450</ele>
<time>2010-07-17T13:26:52Z</time>
<desc>lat.=55.834949, lon.=26.146729, Alt.=155.111450m. Speed=14.148000m/h.</desc>
<speed>3.930000</speed>
</trkpt>
<trkpt lat="55.834927" lon="26.146683">
<ele>155.095825</ele>
<time>2010-07-17T13:26:53Z</time>
<desc>lat.=55.834927, lon.=26.146683, Alt.=155.095825m. Speed=15.696000m/h.</desc>
<speed>4.360000</speed>
</trkpt>
<trkpt lat="55.834900" lon="26.146624">
<ele>154.865356</ele>
<time>2010-07-17T13:26:54Z</time>
<desc>lat.=55.834900, lon.=26.146624, Alt.=154.865356m. Speed=16.884001m/h.</desc>
<speed>4.690000</speed>
</trkpt>
<trkpt lat="55.834873" lon="26.146564">
<ele>155.267700</ele>
<time>2010-07-17T13:26:55Z</time>
<desc>lat.=55.834873, lon.=26.146564, Alt.=155.267700m. Speed=15.624000m/h.</desc>
<speed>4.340000</speed>
</trkpt>
<trkpt lat="55.834846" lon="26.146515">
<ele>154.939575</ele>
<time>2010-07-17T13:26:56Z</time>
<desc>lat.=55.834846, lon.=26.146515, Alt.=154.939575m. Speed=15.120000m/h.</desc>
<speed>4.200000</speed>
</trkpt>
<trkpt lat="55.834824" lon="26.146460">
<ele>155.185669</ele>
<time>2010-07-17T13:26:57Z</time>
<desc>lat.=55.834824, lon.=26.146460, Alt.=155.185669m. Speed=15.264000m/h.</desc>
<speed>4.240000</speed>
</trkpt>
<trkpt lat="55.834797" lon="26.146410">
<ele>155.080200</ele>
<time>2010-07-17T13:26:58Z</time>
<desc>lat.=55.834797, lon.=26.146410, Alt.=155.080200m. Speed=14.328000m/h.</desc>
<speed>3.980000</speed>
</trkpt>
<trkpt lat="55.834770" lon="26.146372">
<ele>154.892700</ele>
<time>2010-07-17T13:26:59Z</time>
<desc>lat.=55.834770, lon.=26.146372, Alt.=154.892700m. Speed=15.516000m/h.</desc>
<speed>4.310000</speed>
</trkpt>
<trkpt lat="55.834743" lon="26.146318">
<ele>154.779419</ele>
<time>2010-07-17T13:27:00Z</time>
<desc>lat.=55.834743, lon.=26.146318, Alt.=154.779419m. Speed=16.128000m/h.</desc>
<speed>4.480000</speed>
</trkpt>
<trkpt lat="55.834717" lon="26.146261">
<ele>154.705200</ele>
<time>2010-07-17T13:27:01Z</time>
<desc>lat.=55.834717, lon.=26.146261, Alt.=154.705200m. Speed=17.208000m/h.</desc>
<speed>4.780000</speed>
</trkpt>
<trkpt lat="55.834686" lon="26.146196">
<ele>154.213013</ele>
<time>2010-07-17T13:27:02Z</time>
<desc>lat.=55.834686, lon.=26.146196, Alt.=154.213013m. Speed=20.520000m/h.</desc>
<speed>5.700000</speed>
</trkpt>
<trkpt lat="55.834656" lon="26.146128">
<ele>153.880981</ele>
<time>2010-07-17T13:27:03Z</time>
<desc>lat.=55.834656, lon.=26.146128, Alt.=153.880981m. Speed=19.476000m/h.</desc>
<speed>5.410000</speed>
</trkpt>
<trkpt lat="55.834621" lon="26.146063">
<ele>153.447388</ele>
<time>2010-07-17T13:27:04Z</time>
<desc>lat.=55.834621, lon.=26.146063, Alt.=153.447388m. Speed=20.628000m/h.</desc>
<speed>5.730000</speed>
</trkpt>
<trkpt lat="55.834587" lon="26.145987">
<ele>152.857544</ele>
<time>2010-07-17T13:27:05Z</time>
<desc>lat.=55.834587, lon.=26.145987, Alt.=152.857544m. Speed=22.896000m/h.</desc>
<speed>6.360000</speed>
</trkpt>
<trkpt lat="55.834541" lon="26.145901">
<ele>152.056763</ele>
<time>2010-07-17T13:27:06Z</time>
<desc>lat.=55.834541, lon.=26.145901, Alt.=152.056763m. Speed=25.632000m/h.</desc>
<speed>7.120000</speed>
</trkpt>
<trkpt lat="55.834499" lon="26.145811">
<ele>151.502075</ele>
<time>2010-07-17T13:27:07Z</time>
<desc>lat.=55.834499, lon.=26.145811, Alt.=151.502075m. Speed=27.396000m/h.</desc>
<speed>7.610000</speed>
</trkpt>
<trkpt lat="55.834454" lon="26.145716">
<ele>150.689575</ele>
<time>2010-07-17T13:27:08Z</time>
<desc>lat.=55.834454, lon.=26.145716, Alt.=150.689575m. Speed=28.836000m/h.</desc>
<speed>8.010000</speed>
</trkpt>
<trkpt lat="55.834404" lon="26.145611">
<ele>150.314575</ele>
<time>2010-07-17T13:27:09Z</time>
<desc>lat.=55.834404, lon.=26.145611, Alt.=150.314575m. Speed=31.320000m/h.</desc>
<speed>8.700000</speed>
</trkpt>
<trkpt lat="55.834354" lon="26.145502">
<ele>149.892700</ele>
<time>2010-07-17T13:27:10Z</time>
<desc>lat.=55.834354, lon.=26.145502, Alt.=149.892700m. Speed=31.968000m/h.</desc>
<speed>8.880000</speed>
</trkpt>
<trkpt lat="55.834301" lon="26.145386">
<ele>149.603638</ele>
<time>2010-07-17T13:27:11Z</time>
<desc>lat.=55.834301, lon.=26.145386, Alt.=149.603638m. Speed=32.723999m/h.</desc>
<speed>9.090000</speed>
</trkpt>
<trkpt lat="55.834251" lon="26.145271">
<ele>149.380981</ele>
<time>2010-07-17T13:27:12Z</time>
<desc>lat.=55.834251, lon.=26.145271, Alt.=149.380981m. Speed=32.580002m/h.</desc>
<speed>9.050001</speed>
</trkpt>
<trkpt lat="55.834198" lon="26.145153">
<ele>149.173950</ele>
<time>2010-07-17T13:27:13Z</time>
<desc>lat.=55.834198, lon.=26.145153, Alt.=149.173950m. Speed=33.515999m/h.</desc>
<speed>9.310000</speed>
</trkpt>
<trkpt lat="55.834148" lon="26.145035">
<ele>148.869263</ele>
<time>2010-07-17T13:27:14Z</time>
<desc>lat.=55.834148, lon.=26.145035, Alt.=148.869263m. Speed=33.335999m/h.</desc>
<speed>9.260000</speed>
</trkpt>
<trkpt lat="55.834099" lon="26.144918">
<ele>148.705200</ele>
<time>2010-07-17T13:27:15Z</time>
<desc>lat.=55.834099, lon.=26.144918, Alt.=148.705200m. Speed=33.551998m/h.</desc>
<speed>9.319999</speed>
</trkpt>
<trkpt lat="55.834049" lon="26.144802">
<ele>148.830200</ele>
<time>2010-07-17T13:27:16Z</time>
<desc>lat.=55.834049, lon.=26.144802, Alt.=148.830200m. Speed=32.363998m/h.</desc>
<speed>8.990000</speed>
</trkpt>
<trkpt lat="55.834003" lon="26.144690">
<ele>148.916138</ele>
<time>2010-07-17T13:27:17Z</time>
<desc>lat.=55.834003, lon.=26.144690, Alt.=148.916138m. Speed=30.492001m/h.</desc>
<speed>8.470000</speed>
</trkpt>
<trkpt lat="55.833965" lon="26.144598">
<ele>149.177856</ele>
<time>2010-07-17T13:27:18Z</time>
<desc>lat.=55.833965, lon.=26.144598, Alt.=149.177856m. Speed=25.236000m/h.</desc>
<speed>7.010000</speed>
</trkpt>
<trkpt lat="55.833931" lon="26.144508">
<ele>149.736450</ele>
<time>2010-07-17T13:27:19Z</time>
<desc>lat.=55.833931, lon.=26.144508, Alt.=149.736450m. Speed=24.084000m/h.</desc>
<speed>6.690000</speed>
</trkpt>
<trkpt lat="55.833893" lon="26.144415">
<ele>150.572388</ele>
<time>2010-07-17T13:27:20Z</time>
<desc>lat.=55.833893, lon.=26.144415, Alt.=150.572388m. Speed=23.184000m/h.</desc>
<speed>6.440000</speed>
</trkpt>
<trkpt lat="55.833866" lon="26.144339">
<ele>151.099731</ele>
<time>2010-07-17T13:27:21Z</time>
<desc>lat.=55.833866, lon.=26.144339, Alt.=151.099731m. Speed=20.591999m/h.</desc>
<speed>5.720000</speed>
</trkpt>
<trkpt lat="55.833836" lon="26.144257">
<ele>151.478638</ele>
<time>2010-07-17T13:27:22Z</time>
<desc>lat.=55.833836, lon.=26.144257, Alt.=151.478638m. Speed=20.483999m/h.</desc>
<speed>5.690000</speed>
</trkpt>
<trkpt lat="55.833805" lon="26.144169">
<ele>151.865356</ele>
<time>2010-07-17T13:27:23Z</time>
<desc>lat.=55.833805, lon.=26.144169, Alt.=151.865356m. Speed=22.500000m/h.</desc>
<speed>6.250000</speed>
</trkpt>
<trkpt lat="55.833767" lon="26.144072">
<ele>152.783325</ele>
<time>2010-07-17T13:27:24Z</time>
<desc>lat.=55.833767, lon.=26.144072, Alt.=152.783325m. Speed=23.219999m/h.</desc>
<speed>6.450000</speed>
</trkpt>
<trkpt lat="55.833729" lon="26.143974">
<ele>153.220825</ele>
<time>2010-07-17T13:27:25Z</time>
<desc>lat.=55.833729, lon.=26.143974, Alt.=153.220825m. Speed=24.624001m/h.</desc>
<speed>6.840000</speed>
</trkpt>
<trkpt lat="55.833694" lon="26.143879">
<ele>153.420044</ele>
<time>2010-07-17T13:27:26Z</time>
<desc>lat.=55.833694, lon.=26.143879, Alt.=153.420044m. Speed=25.020000m/h.</desc>
<speed>6.950000</speed>
</trkpt>
<trkpt lat="55.833664" lon="26.143789">
<ele>154.052856</ele>
<time>2010-07-17T13:27:27Z</time>
<desc>lat.=55.833664, lon.=26.143789, Alt.=154.052856m. Speed=22.139999m/h.</desc>
<speed>6.150000</speed>
</trkpt>
<trkpt lat="55.833633" lon="26.143709">
<ele>154.603638</ele>
<time>2010-07-17T13:27:28Z</time>
<desc>lat.=55.833633, lon.=26.143709, Alt.=154.603638m. Speed=20.591999m/h.</desc>
<speed>5.720000</speed>
</trkpt>
<trkpt lat="55.833607" lon="26.143639">
<ele>155.447388</ele>
<time>2010-07-17T13:27:29Z</time>
<desc>lat.=55.833607, lon.=26.143639, Alt.=155.447388m. Speed=16.452000m/h.</desc>
<speed>4.570000</speed>
</trkpt>
<trkpt lat="55.833580" lon="26.143562">
<ele>156.142700</ele>
<time>2010-07-17T13:27:30Z</time>
<desc>lat.=55.833580, lon.=26.143562, Alt.=156.142700m. Speed=16.344000m/h.</desc>
<speed>4.540000</speed>
</trkpt>
<trkpt lat="55.833557" lon="26.143490">
<ele>156.423950</ele>
<time>2010-07-17T13:27:31Z</time>
<desc>lat.=55.833557, lon.=26.143490, Alt.=156.423950m. Speed=15.696000m/h.</desc>
<speed>4.360000</speed>
</trkpt>
<trkpt lat="55.833527" lon="26.143391">
<ele>157.724731</ele>
<time>2010-07-17T13:27:32Z</time>
<desc>lat.=55.833527, lon.=26.143391, Alt.=157.724731m. Speed=21.059999m/h.</desc>
<speed>5.850000</speed>
</trkpt>
<trkpt lat="55.833492" lon="26.143295">
<ele>158.377075</ele>
<time>2010-07-17T13:27:33Z</time>
<desc>lat.=55.833492, lon.=26.143295, Alt.=158.377075m. Speed=19.224001m/h.</desc>
<speed>5.340000</speed>
</trkpt>
<trkpt lat="55.833454" lon="26.143204">
<ele>159.068481</ele>
<time>2010-07-17T13:27:34Z</time>
<desc>lat.=55.833454, lon.=26.143204, Alt.=159.068481m. Speed=17.568001m/h.</desc>
<speed>4.880000</speed>
</trkpt>
<trkpt lat="55.833427" lon="26.143150">
<ele>159.130981</ele>
<time>2010-07-17T13:27:35Z</time>
<desc>lat.=55.833427, lon.=26.143150, Alt.=159.130981m. Speed=5.544000m/h.</desc>
<speed>1.540000</speed>
</trkpt>
<trkpt lat="55.833408" lon="26.143103">
<ele>159.361450</ele>
<time>2010-07-17T13:27:36Z</time>
<desc>lat.=55.833408, lon.=26.143103, Alt.=159.361450m. Speed=6.912000m/h.</desc>
<speed>1.920000</speed>
</trkpt>
<trkpt lat="55.833389" lon="26.143028">
<ele>160.185669</ele>
<time>2010-07-17T13:27:37Z</time>
<desc>lat.=55.833389, lon.=26.143028, Alt.=160.185669m. Speed=17.927999m/h.</desc>
<speed>4.980000</speed>
</trkpt>
<trkpt lat="55.833370" lon="26.142956">
<ele>161.009888</ele>
<time>2010-07-17T13:27:38Z</time>
<desc>lat.=55.833370, lon.=26.142956, Alt.=161.009888m. Speed=15.876000m/h.</desc>
<speed>4.410000</speed>
</trkpt>
<trkpt lat="55.833351" lon="26.142889">
<ele>162.771606</ele>
<time>2010-07-17T13:27:39Z</time>
<desc>lat.=55.833351, lon.=26.142889, Alt.=162.771606m. Speed=13.572000m/h.</desc>
<speed>3.770000</speed>
</trkpt>
<trkpt lat="55.833332" lon="26.142834">
<ele>163.220825</ele>
<time>2010-07-17T13:27:40Z</time>
<desc>lat.=55.833332, lon.=26.142834, Alt.=163.220825m. Speed=11.844000m/h.</desc>
<speed>3.290000</speed>
</trkpt>
<trkpt lat="55.833305" lon="26.142759">
<ele>163.431763</ele>
<time>2010-07-17T13:27:41Z</time>
<desc>lat.=55.833305, lon.=26.142759, Alt.=163.431763m. Speed=14.040000m/h.</desc>
<speed>3.900000</speed>
</trkpt>
<trkpt lat="55.833282" lon="26.142681">
<ele>164.080200</ele>
<time>2010-07-17T13:27:42Z</time>
<desc>lat.=55.833282, lon.=26.142681, Alt.=164.080200m. Speed=14.940000m/h.</desc>
<speed>4.150000</speed>
</trkpt>
<trkpt lat="55.833256" lon="26.142593">
<ele>164.298950</ele>
<time>2010-07-17T13:27:43Z</time>
<desc>lat.=55.833256, lon.=26.142593, Alt.=164.298950m. Speed=18.216000m/h.</desc>
<speed>5.060000</speed>
</trkpt>
<trkpt lat="55.833225" lon="26.142506">
<ele>164.584106</ele>
<time>2010-07-17T13:27:44Z</time>
<desc>lat.=55.833225, lon.=26.142506, Alt.=164.584106m. Speed=18.252001m/h.</desc>
<speed>5.070000</speed>
</trkpt>
<trkpt lat="55.833202" lon="26.142426">
<ele>165.080200</ele>
<time>2010-07-17T13:27:45Z</time>
<desc>lat.=55.833202, lon.=26.142426, Alt.=165.080200m. Speed=16.704000m/h.</desc>
<speed>4.640000</speed>
</trkpt>
<trkpt lat="55.833172" lon="26.142336">
<ele>165.306763</ele>
<time>2010-07-17T13:27:46Z</time>
<desc>lat.=55.833172, lon.=26.142336, Alt.=165.306763m. Speed=18.143999m/h.</desc>
<speed>5.040000</speed>
</trkpt>
<trkpt lat="55.833141" lon="26.142258">
<ele>165.310669</ele>
<time>2010-07-17T13:27:47Z</time>
<desc>lat.=55.833141, lon.=26.142258, Alt.=165.310669m. Speed=12.528000m/h.</desc>
<speed>3.480000</speed>
</trkpt>
<trkpt lat="55.833118" lon="26.142193">
<ele>165.912231</ele>
<time>2010-07-17T13:27:48Z</time>
<desc>lat.=55.833118, lon.=26.142193, Alt.=165.912231m. Speed=16.559999m/h.</desc>
<speed>4.600000</speed>
</trkpt>
<trkpt lat="55.833099" lon="26.142130">
<ele>166.505981</ele>
<time>2010-07-17T13:27:49Z</time>
<desc>lat.=55.833099, lon.=26.142130, Alt.=166.505981m. Speed=14.040000m/h.</desc>
<speed>3.900000</speed>
</trkpt>
<trkpt lat="55.833084" lon="26.142076">
<ele>167.173950</ele>
<time>2010-07-17T13:27:50Z</time>
<desc>lat.=55.833084, lon.=26.142076, Alt.=167.173950m. Speed=10.656000m/h.</desc>
<speed>2.960000</speed>
</trkpt>
<trkpt lat="55.833069" lon="26.142029">
<ele>167.759888</ele>
<time>2010-07-17T13:27:51Z</time>
<desc>lat.=55.833069, lon.=26.142029, Alt.=167.759888m. Speed=8.820000m/h.</desc>
<speed>2.450000</speed>
</trkpt>
<trkpt lat="55.833061" lon="26.141983">
<ele>168.732544</ele>
<time>2010-07-17T13:27:52Z</time>
<desc>lat.=55.833061, lon.=26.141983, Alt.=168.732544m. Speed=9.216000m/h.</desc>
<speed>2.560000</speed>
</trkpt>
<trkpt lat="55.833050" lon="26.141937">
<ele>169.755981</ele>
<time>2010-07-17T13:27:53Z</time>
<desc>lat.=55.833050, lon.=26.141937, Alt.=169.755981m. Speed=9.972000m/h.</desc>
<speed>2.770000</speed>
</trkpt>
<trkpt lat="55.833027" lon="26.141886">
<ele>169.920044</ele>
<time>2010-07-17T13:27:54Z</time>
<desc>lat.=55.833027, lon.=26.141886, Alt.=169.920044m. Speed=9.864000m/h.</desc>
<speed>2.740000</speed>
</trkpt>
<trkpt lat="55.833004" lon="26.141825">
<ele>171.228638</ele>
<time>2010-07-17T13:27:55Z</time>
<desc>lat.=55.833004, lon.=26.141825, Alt.=171.228638m. Speed=11.412000m/h.</desc>
<speed>3.170000</speed>
</trkpt>
<trkpt lat="55.832981" lon="26.141768">
<ele>171.900513</ele>
<time>2010-07-17T13:27:56Z</time>
<desc>lat.=55.832981, lon.=26.141768, Alt.=171.900513m. Speed=11.952000m/h.</desc>
<speed>3.320000</speed>
</trkpt>
<trkpt lat="55.832958" lon="26.141718">
<ele>172.810669</ele>
<time>2010-07-17T13:27:57Z</time>
<desc>lat.=55.832958, lon.=26.141718, Alt.=172.810669m. Speed=12.924000m/h.</desc>
<speed>3.590000</speed>
</trkpt>
<trkpt lat="55.832935" lon="26.141647">
<ele>174.697388</ele>
<time>2010-07-17T13:27:58Z</time>
<desc>lat.=55.832935, lon.=26.141647, Alt.=174.697388m. Speed=15.768000m/h.</desc>
<speed>4.380000</speed>
</trkpt>
<trkpt lat="55.832912" lon="26.141581">
<ele>175.525513</ele>
<time>2010-07-17T13:27:59Z</time>
<desc>lat.=55.832912, lon.=26.141581, Alt.=175.525513m. Speed=12.924000m/h.</desc>
<speed>3.590000</speed>
</trkpt>
<trkpt lat="55.832893" lon="26.141535">
<ele>176.541138</ele>
<time>2010-07-17T13:28:00Z</time>
<desc>lat.=55.832893, lon.=26.141535, Alt.=176.541138m. Speed=13.248000m/h.</desc>
<speed>3.680000</speed>
</trkpt>
<trkpt lat="55.832859" lon="26.141459">
<ele>176.869263</ele>
<time>2010-07-17T13:28:01Z</time>
<desc>lat.=55.832859, lon.=26.141459, Alt.=176.869263m. Speed=12.420000m/h.</desc>
<speed>3.450000</speed>
</trkpt>
<trkpt lat="55.832821" lon="26.141382">
<ele>177.787231</ele>
<time>2010-07-17T13:28:02Z</time>
<desc>lat.=55.832821, lon.=26.141382, Alt.=177.787231m. Speed=11.700000m/h.</desc>
<speed>3.250000</speed>
</trkpt>
<trkpt lat="55.832806" lon="26.141340">
<ele>178.806763</ele>
<time>2010-07-17T13:28:03Z</time>
<desc>lat.=55.832806, lon.=26.141340, Alt.=178.806763m. Speed=14.688000m/h.</desc>
<speed>4.080000</speed>
</trkpt>
<trkpt lat="55.832783" lon="26.141287">
<ele>179.580200</ele>
<time>2010-07-17T13:28:04Z</time>
<desc>lat.=55.832783, lon.=26.141287, Alt.=179.580200m. Speed=13.752000m/h.</desc>
<speed>3.820000</speed>
</trkpt>
<trkpt lat="55.832760" lon="26.141216">
<ele>181.103638</ele>
<time>2010-07-17T13:28:05Z</time>
<desc>lat.=55.832760, lon.=26.141216, Alt.=181.103638m. Speed=14.796000m/h.</desc>
<speed>4.110000</speed>
</trkpt>
<trkpt lat="55.832745" lon="26.141167">
<ele>182.763794</ele>
<time>2010-07-17T13:28:06Z</time>
<desc>lat.=55.832745, lon.=26.141167, Alt.=182.763794m. Speed=10.440000m/h.</desc>
<speed>2.900000</speed>
</trkpt>
<trkpt lat="55.832722" lon="26.141096">
<ele>184.193481</ele>
<time>2010-07-17T13:28:07Z</time>
<desc>lat.=55.832722, lon.=26.141096, Alt.=184.193481m. Speed=10.476000m/h.</desc>
<speed>2.910000</speed>
</trkpt>
<trkpt lat="55.832699" lon="26.141041">
<ele>184.701294</ele>
<time>2010-07-17T13:28:08Z</time>
<desc>lat.=55.832699, lon.=26.141041, Alt.=184.701294m. Speed=12.240000m/h.</desc>
<speed>3.400000</speed>
</trkpt>
<trkpt lat="55.832672" lon="26.140965">
<ele>182.201294</ele>
<time>2010-07-17T13:28:09Z</time>
<desc>lat.=55.832672, lon.=26.140965, Alt.=182.201294m. Speed=10.584000m/h.</desc>
<speed>2.940000</speed>
</trkpt>
<trkpt lat="55.832645" lon="26.140905">
<ele>182.416138</ele>
<time>2010-07-17T13:28:10Z</time>
<desc>lat.=55.832645, lon.=26.140905, Alt.=182.416138m. Speed=14.076000m/h.</desc>
<speed>3.910000</speed>
</trkpt>
<trkpt lat="55.832615" lon="26.140825">
<ele>181.904419</ele>
<time>2010-07-17T13:28:11Z</time>
<desc>lat.=55.832615, lon.=26.140825, Alt.=181.904419m. Speed=15.696000m/h.</desc>
<speed>4.360000</speed>
</trkpt>
<trkpt lat="55.832577" lon="26.140738">
<ele>181.412231</ele>
<time>2010-07-17T13:28:12Z</time>
<desc>lat.=55.832577, lon.=26.140738, Alt.=181.412231m. Speed=15.048000m/h.</desc>
<speed>4.180000</speed>
</trkpt>
<trkpt lat="55.832558" lon="26.140684">
<ele>181.826294</ele>
<time>2010-07-17T13:28:13Z</time>
<desc>lat.=55.832558, lon.=26.140684, Alt.=181.826294m. Speed=13.392000m/h.</desc>
<speed>3.720000</speed>
</trkpt>
<trkpt lat="55.832520" lon="26.140600">
<ele>181.638794</ele>
<time>2010-07-17T13:28:14Z</time>
<desc>lat.=55.832520, lon.=26.140600, Alt.=181.638794m. Speed=15.300000m/h.</desc>
<speed>4.250000</speed>
</trkpt>
<trkpt lat="55.832489" lon="26.140514">
<ele>181.681763</ele>
<time>2010-07-17T13:28:15Z</time>
<desc>lat.=55.832489, lon.=26.140514, Alt.=181.681763m. Speed=13.356000m/h.</desc>
<speed>3.710000</speed>
</trkpt>
<trkpt lat="55.832466" lon="26.140442">
<ele>182.123169</ele>
<time>2010-07-17T13:28:16Z</time>
<desc>lat.=55.832466, lon.=26.140442, Alt.=182.123169m. Speed=13.680000m/h.</desc>
<speed>3.800000</speed>
</trkpt>
<trkpt lat="55.832447" lon="26.140375">
<ele>182.677856</ele>
<time>2010-07-17T13:28:17Z</time>
<desc>lat.=55.832447, lon.=26.140375, Alt.=182.677856m. Speed=14.364000m/h.</desc>
<speed>3.990000</speed>
</trkpt>
<trkpt lat="55.832413" lon="26.140289">
<ele>183.767700</ele>
<time>2010-07-17T13:28:18Z</time>
<desc>lat.=55.832413, lon.=26.140289, Alt.=183.767700m. Speed=16.632000m/h.</desc>
<speed>4.620000</speed>
</trkpt>
<trkpt lat="55.832378" lon="26.140194">
<ele>183.865356</ele>
<time>2010-07-17T13:28:19Z</time>
<desc>lat.=55.832378, lon.=26.140194, Alt.=183.865356m. Speed=19.332001m/h.</desc>
<speed>5.370000</speed>
</trkpt>
<trkpt lat="55.832352" lon="26.140106">
<ele>183.470825</ele>
<time>2010-07-17T13:28:20Z</time>
<desc>lat.=55.832352, lon.=26.140106, Alt.=183.470825m. Speed=18.972000m/h.</desc>
<speed>5.270000</speed>
</trkpt>
<trkpt lat="55.832317" lon="26.140009">
<ele>182.334106</ele>
<time>2010-07-17T13:28:21Z</time>
<desc>lat.=55.832317, lon.=26.140009, Alt.=182.334106m. Speed=21.600000m/h.</desc>
<speed>6.000000</speed>
</trkpt>
<trkpt lat="55.832275" lon="26.139898">
<ele>181.091919</ele>
<time>2010-07-17T13:28:22Z</time>
<desc>lat.=55.832275, lon.=26.139898, Alt.=181.091919m. Speed=20.988001m/h.</desc>
<speed>5.830000</speed>
</trkpt>
<trkpt lat="55.832237" lon="26.139797">
<ele>180.361450</ele>
<time>2010-07-17T13:28:23Z</time>
<desc>lat.=55.832237, lon.=26.139797, Alt.=180.361450m. Speed=19.656000m/h.</desc>
<speed>5.460000</speed>
</trkpt>
<trkpt lat="55.832211" lon="26.139713">
<ele>179.654419</ele>
<time>2010-07-17T13:28:24Z</time>
<desc>lat.=55.832211, lon.=26.139713, Alt.=179.654419m. Speed=18.576000m/h.</desc>
<speed>5.160000</speed>
</trkpt>
<trkpt lat="55.832188" lon="26.139631">
<ele>180.201294</ele>
<time>2010-07-17T13:28:25Z</time>
<desc>lat.=55.832188, lon.=26.139631, Alt.=180.201294m. Speed=16.488001m/h.</desc>
<speed>4.580000</speed>
</trkpt>
<trkpt lat="55.832161" lon="26.139551">
<ele>180.353638</ele>
<time>2010-07-17T13:28:26Z</time>
<desc>lat.=55.832161, lon.=26.139551, Alt.=180.353638m. Speed=16.667999m/h.</desc>
<speed>4.630000</speed>
</trkpt>
<trkpt lat="55.832085" lon="26.139387">
<ele>175.603638</ele>
<time>2010-07-17T13:28:27Z</time>
<desc>lat.=55.832085, lon.=26.139387, Alt.=175.603638m. Speed=19.080000m/h.</desc>
<speed>5.300000</speed>
</trkpt>
<trkpt lat="55.832062" lon="26.139292">
<ele>174.904419</ele>
<time>2010-07-17T13:28:28Z</time>
<desc>lat.=55.832062, lon.=26.139292, Alt.=174.904419m. Speed=18.792000m/h.</desc>
<speed>5.220000</speed>
</trkpt>
<trkpt lat="55.832050" lon="26.139210">
<ele>175.158325</ele>
<time>2010-07-17T13:28:29Z</time>
<desc>lat.=55.832050, lon.=26.139210, Alt.=175.158325m. Speed=18.323999m/h.</desc>
<speed>5.090000</speed>
</trkpt>
<trkpt lat="55.832031" lon="26.139103">
<ele>174.146606</ele>
<time>2010-07-17T13:28:30Z</time>
<desc>lat.=55.832031, lon.=26.139103, Alt.=174.146606m. Speed=20.268000m/h.</desc>
<speed>5.630000</speed>
</trkpt>
<trkpt lat="55.832024" lon="26.139013">
<ele>174.330200</ele>
<time>2010-07-17T13:28:31Z</time>
<desc>lat.=55.832024, lon.=26.139013, Alt.=174.330200m. Speed=18.216000m/h.</desc>
<speed>5.060000</speed>
</trkpt>
<trkpt lat="55.832012" lon="26.138912">
<ele>174.111450</ele>
<time>2010-07-17T13:28:32Z</time>
<desc>lat.=55.832012, lon.=26.138912, Alt.=174.111450m. Speed=21.528000m/h.</desc>
<speed>5.980000</speed>
</trkpt>
<trkpt lat="55.831997" lon="26.138811">
<ele>173.884888</ele>
<time>2010-07-17T13:28:33Z</time>
<desc>lat.=55.831997, lon.=26.138811, Alt.=173.884888m. Speed=21.167999m/h.</desc>
<speed>5.880000</speed>
</trkpt>
<trkpt lat="55.831974" lon="26.138695">
<ele>171.822388</ele>
<time>2010-07-17T13:28:34Z</time>
<desc>lat.=55.831974, lon.=26.138695, Alt.=171.822388m. Speed=21.492001m/h.</desc>
<speed>5.970000</speed>
</trkpt>
<trkpt lat="55.831955" lon="26.138596">
<ele>171.088013</ele>
<time>2010-07-17T13:28:35Z</time>
<desc>lat.=55.831955, lon.=26.138596, Alt.=171.088013m. Speed=20.556000m/h.</desc>
<speed>5.710000</speed>
</trkpt>
<trkpt lat="55.831936" lon="26.138491">
<ele>169.588013</ele>
<time>2010-07-17T13:28:36Z</time>
<desc>lat.=55.831936, lon.=26.138491, Alt.=169.588013m. Speed=20.952000m/h.</desc>
<speed>5.820000</speed>
</trkpt>
<trkpt lat="55.831924" lon="26.138391">
<ele>169.193481</ele>
<time>2010-07-17T13:28:37Z</time>
<desc>lat.=55.831924, lon.=26.138391, Alt.=169.193481m. Speed=20.412001m/h.</desc>
<speed>5.670000</speed>
</trkpt>
<trkpt lat="55.831913" lon="26.138290">
<ele>168.720825</ele>
<time>2010-07-17T13:28:38Z</time>
<desc>lat.=55.831913, lon.=26.138290, Alt.=168.720825m. Speed=21.240000m/h.</desc>
<speed>5.900000</speed>
</trkpt>
<trkpt lat="55.831898" lon="26.138189">
<ele>168.791138</ele>
<time>2010-07-17T13:28:39Z</time>
<desc>lat.=55.831898, lon.=26.138189, Alt.=168.791138m. Speed=20.736000m/h.</desc>
<speed>5.760000</speed>
</trkpt>
<trkpt lat="55.831890" lon="26.138096">
<ele>168.955200</ele>
<time>2010-07-17T13:28:40Z</time>
<desc>lat.=55.831890, lon.=26.138096, Alt.=168.955200m. Speed=21.275999m/h.</desc>
<speed>5.910000</speed>
</trkpt>
<trkpt lat="55.831879" lon="26.137981">
<ele>168.048950</ele>
<time>2010-07-17T13:28:41Z</time>
<desc>lat.=55.831879, lon.=26.137981, Alt.=168.048950m. Speed=22.716000m/h.</desc>
<speed>6.310000</speed>
</trkpt>
<trkpt lat="55.831871" lon="26.137875">
<ele>167.455200</ele>
<time>2010-07-17T13:28:42Z</time>
<desc>lat.=55.831871, lon.=26.137875, Alt.=167.455200m. Speed=23.652000m/h.</desc>
<speed>6.570000</speed>
</trkpt>
<trkpt lat="55.831856" lon="26.137764">
<ele>166.486450</ele>
<time>2010-07-17T13:28:43Z</time>
<desc>lat.=55.831856, lon.=26.137764, Alt.=166.486450m. Speed=22.896000m/h.</desc>
<speed>6.360000</speed>
</trkpt>
<trkpt lat="55.831841" lon="26.137655">
<ele>165.697388</ele>
<time>2010-07-17T13:28:44Z</time>
<desc>lat.=55.831841, lon.=26.137655, Alt.=165.697388m. Speed=22.535999m/h.</desc>
<speed>6.260000</speed>
</trkpt>
<trkpt lat="55.831825" lon="26.137560">
<ele>165.041138</ele>
<time>2010-07-17T13:28:45Z</time>
<desc>lat.=55.831825, lon.=26.137560, Alt.=165.041138m. Speed=21.816000m/h.</desc>
<speed>6.060000</speed>
</trkpt>
<trkpt lat="55.831814" lon="26.137470">
<ele>164.896606</ele>
<time>2010-07-17T13:28:46Z</time>
<desc>lat.=55.831814, lon.=26.137470, Alt.=164.896606m. Speed=20.879999m/h.</desc>
<speed>5.800000</speed>
</trkpt>
<trkpt lat="55.831799" lon="26.137371">
<ele>164.248169</ele>
<time>2010-07-17T13:28:47Z</time>
<desc>lat.=55.831799, lon.=26.137371, Alt.=164.248169m. Speed=20.160000m/h.</desc>
<speed>5.600000</speed>
</trkpt>
<trkpt lat="55.831787" lon="26.137281">
<ele>163.482544</ele>
<time>2010-07-17T13:28:48Z</time>
<desc>lat.=55.831787, lon.=26.137281, Alt.=163.482544m. Speed=18.323999m/h.</desc>
<speed>5.090000</speed>
</trkpt>
<trkpt lat="55.831779" lon="26.137197">
<ele>163.423950</ele>
<time>2010-07-17T13:28:49Z</time>
<desc>lat.=55.831779, lon.=26.137197, Alt.=163.423950m. Speed=18.972000m/h.</desc>
<speed>5.270000</speed>
</trkpt>
<trkpt lat="55.831768" lon="26.137119">
<ele>162.724731</ele>
<time>2010-07-17T13:28:50Z</time>
<desc>lat.=55.831768, lon.=26.137119, Alt.=162.724731m. Speed=16.704000m/h.</desc>
<speed>4.640000</speed>
</trkpt>
<trkpt lat="55.831757" lon="26.137054">
<ele>162.463013</ele>
<time>2010-07-17T13:28:51Z</time>
<desc>lat.=55.831757, lon.=26.137054, Alt.=162.463013m. Speed=15.624000m/h.</desc>
<speed>4.340000</speed>
</trkpt>
<trkpt lat="55.831753" lon="26.136990">
<ele>162.275513</ele>
<time>2010-07-17T13:28:52Z</time>
<desc>lat.=55.831753, lon.=26.136990, Alt.=162.275513m. Speed=13.356000m/h.</desc>
<speed>3.710000</speed>
</trkpt>
<trkpt lat="55.831753" lon="26.136915">
<ele>162.416138</ele>
<time>2010-07-17T13:28:53Z</time>
<desc>lat.=55.831753, lon.=26.136915, Alt.=162.416138m. Speed=16.812000m/h.</desc>
<speed>4.670000</speed>
</trkpt>
<trkpt lat="55.831749" lon="26.136847">
<ele>162.744263</ele>
<time>2010-07-17T13:28:54Z</time>
<desc>lat.=55.831749, lon.=26.136847, Alt.=162.744263m. Speed=13.860000m/h.</desc>
<speed>3.850000</speed>
</trkpt>
<trkpt lat="55.831745" lon="26.136778">
<ele>162.677856</ele>
<time>2010-07-17T13:28:55Z</time>
<desc>lat.=55.831745, lon.=26.136778, Alt.=162.677856m. Speed=14.580000m/h.</desc>
<speed>4.050000</speed>
</trkpt>
<trkpt lat="55.831734" lon="26.136711">
<ele>162.013794</ele>
<time>2010-07-17T13:28:56Z</time>
<desc>lat.=55.831734, lon.=26.136711, Alt.=162.013794m. Speed=12.492000m/h.</desc>
<speed>3.470000</speed>
</trkpt>
<trkpt lat="55.831730" lon="26.136652">
<ele>162.189575</ele>
<time>2010-07-17T13:28:57Z</time>
<desc>lat.=55.831730, lon.=26.136652, Alt.=162.189575m. Speed=14.760000m/h.</desc>
<speed>4.100000</speed>
</trkpt>
<trkpt lat="55.831730" lon="26.136593">
<ele>162.224731</ele>
<time>2010-07-17T13:28:58Z</time>
<desc>lat.=55.831730, lon.=26.136593, Alt.=162.224731m. Speed=11.052000m/h.</desc>
<speed>3.070000</speed>
</trkpt>
<trkpt lat="55.831726" lon="26.136541">
<ele>162.673950</ele>
<time>2010-07-17T13:28:59Z</time>
<desc>lat.=55.831726, lon.=26.136541, Alt.=162.673950m. Speed=11.304000m/h.</desc>
<speed>3.140000</speed>
</trkpt>
<trkpt lat="55.831722" lon="26.136473">
<ele>162.568481</ele>
<time>2010-07-17T13:29:00Z</time>
<desc>lat.=55.831722, lon.=26.136473, Alt.=162.568481m. Speed=12.348000m/h.</desc>
<speed>3.430000</speed>
</trkpt>
<trkpt lat="55.831722" lon="26.136414">
<ele>162.599731</ele>
<time>2010-07-17T13:29:01Z</time>
<desc>lat.=55.831722, lon.=26.136414, Alt.=162.599731m. Speed=12.384000m/h.</desc>
<speed>3.440000</speed>
</trkpt>
<trkpt lat="55.831707" lon="26.136301">
<ele>162.810669</ele>
<time>2010-07-17T13:29:02Z</time>
<desc>lat.=55.831707, lon.=26.136301, Alt.=162.810669m. Speed=15.840000m/h.</desc>
<speed>4.400000</speed>
</trkpt>
<trkpt lat="55.831696" lon="26.136221">
<ele>162.927856</ele>
<time>2010-07-17T13:29:03Z</time>
<desc>lat.=55.831696, lon.=26.136221, Alt.=162.927856m. Speed=15.912000m/h.</desc>
<speed>4.420000</speed>
</trkpt>
<trkpt lat="55.831688" lon="26.136143">
<ele>162.439575</ele>
<time>2010-07-17T13:29:04Z</time>
<desc>lat.=55.831688, lon.=26.136143, Alt.=162.439575m. Speed=16.452000m/h.</desc>
<speed>4.570000</speed>
</trkpt>
<trkpt lat="55.831684" lon="26.136065">
<ele>161.959106</ele>
<time>2010-07-17T13:29:05Z</time>
<desc>lat.=55.831684, lon.=26.136065, Alt.=161.959106m. Speed=14.832000m/h.</desc>
<speed>4.120000</speed>
</trkpt>
<trkpt lat="55.831676" lon="26.135990">
<ele>161.505981</ele>
<time>2010-07-17T13:29:06Z</time>
<desc>lat.=55.831676, lon.=26.135990, Alt.=161.505981m. Speed=16.164000m/h.</desc>
<speed>4.490000</speed>
</trkpt>
<trkpt lat="55.831669" lon="26.135910">
<ele>161.263794</ele>
<time>2010-07-17T13:29:07Z</time>
<desc>lat.=55.831669, lon.=26.135910, Alt.=161.263794m. Speed=15.588000m/h.</desc>
<speed>4.330000</speed>
</trkpt>
<trkpt lat="55.831661" lon="26.135838">
<ele>160.736450</ele>
<time>2010-07-17T13:29:08Z</time>
<desc>lat.=55.831661, lon.=26.135838, Alt.=160.736450m. Speed=14.868000m/h.</desc>
<speed>4.130000</speed>
</trkpt>
<trkpt lat="55.831650" lon="26.135769">
<ele>160.509888</ele>
<time>2010-07-17T13:29:09Z</time>
<desc>lat.=55.831650, lon.=26.135769, Alt.=160.509888m. Speed=14.580000m/h.</desc>
<speed>4.050000</speed>
</trkpt>
<trkpt lat="55.831642" lon="26.135702">
<ele>160.388794</ele>
<time>2010-07-17T13:29:10Z</time>
<desc>lat.=55.831642, lon.=26.135702, Alt.=160.388794m. Speed=13.788000m/h.</desc>
<speed>3.830000</speed>
</trkpt>
<trkpt lat="55.831635" lon="26.135641">
<ele>159.873169</ele>
<time>2010-07-17T13:29:11Z</time>
<desc>lat.=55.831635, lon.=26.135641, Alt.=159.873169m. Speed=12.960000m/h.</desc>
<speed>3.600000</speed>
</trkpt>
<trkpt lat="55.831627" lon="26.135582">
<ele>159.283325</ele>
<time>2010-07-17T13:29:12Z</time>
<desc>lat.=55.831627, lon.=26.135582, Alt.=159.283325m. Speed=12.204000m/h.</desc>
<speed>3.390000</speed>
</trkpt>
<trkpt lat="55.831619" lon="26.135529">
<ele>158.873169</ele>
<time>2010-07-17T13:29:13Z</time>
<desc>lat.=55.831619, lon.=26.135529, Alt.=158.873169m. Speed=11.628000m/h.</desc>
<speed>3.230000</speed>
</trkpt>
<trkpt lat="55.831608" lon="26.135481">
<ele>158.091919</ele>
<time>2010-07-17T13:29:14Z</time>
<desc>lat.=55.831608, lon.=26.135481, Alt.=158.091919m. Speed=11.052000m/h.</desc>
<speed>3.070000</speed>
</trkpt>
<trkpt lat="55.831596" lon="26.135439">
<ele>157.681763</ele>
<time>2010-07-17T13:29:15Z</time>
<desc>lat.=55.831596, lon.=26.135439, Alt.=157.681763m. Speed=10.692000m/h.</desc>
<speed>2.970000</speed>
</trkpt>
<trkpt lat="55.831570" lon="26.135405">
<ele>157.271606</ele>
<time>2010-07-17T13:29:16Z</time>
<desc>lat.=55.831570, lon.=26.135405, Alt.=157.271606m. Speed=12.204000m/h.</desc>
<speed>3.390000</speed>
</trkpt>
<trkpt lat="55.831543" lon="26.135386">
<ele>157.064575</ele>
<time>2010-07-17T13:29:17Z</time>
<desc>lat.=55.831543, lon.=26.135386, Alt.=157.064575m. Speed=11.412000m/h.</desc>
<speed>3.170000</speed>
</trkpt>
<trkpt lat="55.831509" lon="26.135372">
<ele>156.900513</ele>
<time>2010-07-17T13:29:18Z</time>
<desc>lat.=55.831509, lon.=26.135372, Alt.=156.900513m. Speed=13.212000m/h.</desc>
<speed>3.670000</speed>
</trkpt>
<trkpt lat="55.831474" lon="26.135368">
<ele>156.787231</ele>
<time>2010-07-17T13:29:19Z</time>
<desc>lat.=55.831474, lon.=26.135368, Alt.=156.787231m. Speed=13.356000m/h.</desc>
<speed>3.710000</speed>
</trkpt>
<trkpt lat="55.831444" lon="26.135380">
<ele>156.779419</ele>
<time>2010-07-17T13:29:20Z</time>
<desc>lat.=55.831444, lon.=26.135380, Alt.=156.779419m. Speed=13.644000m/h.</desc>
<speed>3.790000</speed>
</trkpt>
<trkpt lat="55.831409" lon="26.135389">
<ele>156.892700</ele>
<time>2010-07-17T13:29:21Z</time>
<desc>lat.=55.831409, lon.=26.135389, Alt.=156.892700m. Speed=11.916000m/h.</desc>
<speed>3.310000</speed>
</trkpt>
<trkpt lat="55.831375" lon="26.135397">
<ele>156.849731</ele>
<time>2010-07-17T13:29:22Z</time>
<desc>lat.=55.831375, lon.=26.135397, Alt.=156.849731m. Speed=12.672000m/h.</desc>
<speed>3.520000</speed>
</trkpt>
<trkpt lat="55.831345" lon="26.135406">
<ele>156.861450</ele>
<time>2010-07-17T13:29:23Z</time>
<desc>lat.=55.831345, lon.=26.135406, Alt.=156.861450m. Speed=13.356000m/h.</desc>
<speed>3.710000</speed>
</trkpt>
<trkpt lat="55.831306" lon="26.135422">
<ele>156.853638</ele>
<time>2010-07-17T13:29:24Z</time>
<desc>lat.=55.831306, lon.=26.135422, Alt.=156.853638m. Speed=14.040000m/h.</desc>
<speed>3.900000</speed>
</trkpt>
<trkpt lat="55.831264" lon="26.135429">
<ele>156.791138</ele>
<time>2010-07-17T13:29:25Z</time>
<desc>lat.=55.831264, lon.=26.135429, Alt.=156.791138m. Speed=16.632000m/h.</desc>
<speed>4.620000</speed>
</trkpt>
<trkpt lat="55.831223" lon="26.135443">
<ele>156.705200</ele>
<time>2010-07-17T13:29:26Z</time>
<desc>lat.=55.831223, lon.=26.135443, Alt.=156.705200m. Speed=17.136000m/h.</desc>
<speed>4.760000</speed>
</trkpt>
<trkpt lat="55.831181" lon="26.135454">
<ele>156.658325</ele>
<time>2010-07-17T13:29:27Z</time>
<desc>lat.=55.831181, lon.=26.135454, Alt.=156.658325m. Speed=16.488001m/h.</desc>
<speed>4.580000</speed>
</trkpt>
<trkpt lat="55.831139" lon="26.135469">
<ele>156.634888</ele>
<time>2010-07-17T13:29:28Z</time>
<desc>lat.=55.831139, lon.=26.135469, Alt.=156.634888m. Speed=16.559999m/h.</desc>
<speed>4.600000</speed>
</trkpt>
<trkpt lat="55.831097" lon="26.135479">
<ele>156.755981</ele>
<time>2010-07-17T13:29:29Z</time>
<desc>lat.=55.831097, lon.=26.135479, Alt.=156.755981m. Speed=16.308001m/h.</desc>
<speed>4.530000</speed>
</trkpt>
<trkpt lat="55.831059" lon="26.135494">
<ele>156.662231</ele>
<time>2010-07-17T13:29:30Z</time>
<desc>lat.=55.831059, lon.=26.135494, Alt.=156.662231m. Speed=12.312000m/h.</desc>
<speed>3.420000</speed>
</trkpt>
<trkpt lat="55.831020" lon="26.135498">
<ele>157.021606</ele>
<time>2010-07-17T13:29:31Z</time>
<desc>lat.=55.831020, lon.=26.135498, Alt.=157.021606m. Speed=17.388000m/h.</desc>
<speed>4.830000</speed>
</trkpt>
<trkpt lat="55.830975" lon="26.135506">
<ele>157.185669</ele>
<time>2010-07-17T13:29:32Z</time>
<desc>lat.=55.830975, lon.=26.135506, Alt.=157.185669m. Speed=19.296000m/h.</desc>
<speed>5.360000</speed>
</trkpt>
<trkpt lat="55.830929" lon="26.135525">
<ele>156.998169</ele>
<time>2010-07-17T13:29:33Z</time>
<desc>lat.=55.830929, lon.=26.135525, Alt.=156.998169m. Speed=18.719999m/h.</desc>
<speed>5.200000</speed>
</trkpt>
<trkpt lat="55.830883" lon="26.135544">
<ele>156.986450</ele>
<time>2010-07-17T13:29:34Z</time>
<desc>lat.=55.830883, lon.=26.135544, Alt.=156.986450m. Speed=19.224001m/h.</desc>
<speed>5.340000</speed>
</trkpt>
<trkpt lat="55.830833" lon="26.135563">
<ele>157.033325</ele>
<time>2010-07-17T13:29:35Z</time>
<desc>lat.=55.830833, lon.=26.135563, Alt.=157.033325m. Speed=19.548000m/h.</desc>
<speed>5.430000</speed>
</trkpt>
<trkpt lat="55.830788" lon="26.135578">
<ele>156.986450</ele>
<time>2010-07-17T13:29:36Z</time>
<desc>lat.=55.830788, lon.=26.135578, Alt.=156.986450m. Speed=19.115999m/h.</desc>
<speed>5.310000</speed>
</trkpt>
<trkpt lat="55.830738" lon="26.135588">
<ele>157.068481</ele>
<time>2010-07-17T13:29:37Z</time>
<desc>lat.=55.830738, lon.=26.135588, Alt.=157.068481m. Speed=19.980000m/h.</desc>
<speed>5.550000</speed>
</trkpt>
<trkpt lat="55.830688" lon="26.135597">
<ele>157.045044</ele>
<time>2010-07-17T13:29:38Z</time>
<desc>lat.=55.830688, lon.=26.135597, Alt.=157.045044m. Speed=20.124001m/h.</desc>
<speed>5.590000</speed>
</trkpt>
<trkpt lat="55.830639" lon="26.135611">
<ele>157.068481</ele>
<time>2010-07-17T13:29:39Z</time>
<desc>lat.=55.830639, lon.=26.135611, Alt.=157.068481m. Speed=18.180000m/h.</desc>
<speed>5.050000</speed>
</trkpt>
<trkpt lat="55.830597" lon="26.135622">
<ele>157.158325</ele>
<time>2010-07-17T13:29:40Z</time>
<desc>lat.=55.830597, lon.=26.135622, Alt.=157.158325m. Speed=17.856001m/h.</desc>
<speed>4.960000</speed>
</trkpt>
<trkpt lat="55.830544" lon="26.135628">
<ele>157.111450</ele>
<time>2010-07-17T13:29:41Z</time>
<desc>lat.=55.830544, lon.=26.135628, Alt.=157.111450m. Speed=18.684000m/h.</desc>
<speed>5.190000</speed>
</trkpt>
<trkpt lat="55.830490" lon="26.135633">
<ele>157.478638</ele>
<time>2010-07-17T13:29:42Z</time>
<desc>lat.=55.830490, lon.=26.135633, Alt.=157.478638m. Speed=18.648001m/h.</desc>
<speed>5.180000</speed>
</trkpt>
<trkpt lat="55.830444" lon="26.135641">
<ele>157.412231</ele>
<time>2010-07-17T13:29:43Z</time>
<desc>lat.=55.830444, lon.=26.135641, Alt.=157.412231m. Speed=17.100000m/h.</desc>
<speed>4.750000</speed>
</trkpt>
<trkpt lat="55.830402" lon="26.135641">
<ele>157.560669</ele>
<time>2010-07-17T13:29:44Z</time>
<desc>lat.=55.830402, lon.=26.135641, Alt.=157.560669m. Speed=15.264000m/h.</desc>
<speed>4.240000</speed>
</trkpt>
<trkpt lat="55.830364" lon="26.135647">
<ele>157.615356</ele>
<time>2010-07-17T13:29:45Z</time>
<desc>lat.=55.830364, lon.=26.135647, Alt.=157.615356m. Speed=15.336000m/h.</desc>
<speed>4.260000</speed>
</trkpt>
<trkpt lat="55.830330" lon="26.135653">
<ele>157.795044</ele>
<time>2010-07-17T13:29:46Z</time>
<desc>lat.=55.830330, lon.=26.135653, Alt.=157.795044m. Speed=13.788000m/h.</desc>
<speed>3.830000</speed>
</trkpt>
<trkpt lat="55.830292" lon="26.135664">
<ele>157.798950</ele>
<time>2010-07-17T13:29:47Z</time>
<desc>lat.=55.830292, lon.=26.135664, Alt.=157.798950m. Speed=13.608000m/h.</desc>
<speed>3.780000</speed>
</trkpt>
<trkpt lat="55.830261" lon="26.135674">
<ele>157.927856</ele>
<time>2010-07-17T13:29:48Z</time>
<desc>lat.=55.830261, lon.=26.135674, Alt.=157.927856m. Speed=12.564000m/h.</desc>
<speed>3.490000</speed>
</trkpt>
<trkpt lat="55.830227" lon="26.135685">
<ele>157.900513</ele>
<time>2010-07-17T13:29:49Z</time>
<desc>lat.=55.830227, lon.=26.135685, Alt.=157.900513m. Speed=11.772000m/h.</desc>
<speed>3.270000</speed>
</trkpt>
<trkpt lat="55.830193" lon="26.135695">
<ele>158.056763</ele>
<time>2010-07-17T13:29:50Z</time>
<desc>lat.=55.830193, lon.=26.135695, Alt.=158.056763m. Speed=13.392000m/h.</desc>
<speed>3.720000</speed>
</trkpt>
<trkpt lat="55.830154" lon="26.135704">
<ele>158.146606</ele>
<time>2010-07-17T13:29:51Z</time>
<desc>lat.=55.830154, lon.=26.135704, Alt.=158.146606m. Speed=13.824000m/h.</desc>
<speed>3.840000</speed>
</trkpt>
<trkpt lat="55.830124" lon="26.135719">
<ele>158.005981</ele>
<time>2010-07-17T13:29:52Z</time>
<desc>lat.=55.830124, lon.=26.135719, Alt.=158.005981m. Speed=13.608000m/h.</desc>
<speed>3.780000</speed>
</trkpt>
<trkpt lat="55.830090" lon="26.135731">
<ele>158.017700</ele>
<time>2010-07-17T13:29:53Z</time>
<desc>lat.=55.830090, lon.=26.135731, Alt.=158.017700m. Speed=13.032000m/h.</desc>
<speed>3.620000</speed>
</trkpt>
<trkpt lat="55.830059" lon="26.135736">
<ele>158.072388</ele>
<time>2010-07-17T13:29:54Z</time>
<desc>lat.=55.830059, lon.=26.135736, Alt.=158.072388m. Speed=14.364000m/h.</desc>
<speed>3.990000</speed>
</trkpt>
<trkpt lat="55.830021" lon="26.135746">
<ele>158.170044</ele>
<time>2010-07-17T13:29:55Z</time>
<desc>lat.=55.830021, lon.=26.135746, Alt.=158.170044m. Speed=14.220000m/h.</desc>
<speed>3.950000</speed>
</trkpt>
<trkpt lat="55.829987" lon="26.135757">
<ele>158.447388</ele>
<time>2010-07-17T13:29:56Z</time>
<desc>lat.=55.829987, lon.=26.135757, Alt.=158.447388m. Speed=14.508000m/h.</desc>
<speed>4.030000</speed>
</trkpt>
<trkpt lat="55.829948" lon="26.135763">
<ele>158.814575</ele>
<time>2010-07-17T13:29:57Z</time>
<desc>lat.=55.829948, lon.=26.135763, Alt.=158.814575m. Speed=15.012000m/h.</desc>
<speed>4.170000</speed>
</trkpt>
<trkpt lat="55.829910" lon="26.135778">
<ele>158.599731</ele>
<time>2010-07-17T13:29:58Z</time>
<desc>lat.=55.829910, lon.=26.135778, Alt.=158.599731m. Speed=15.840000m/h.</desc>
<speed>4.400000</speed>
</trkpt>
<trkpt lat="55.829872" lon="26.135784">
<ele>158.611450</ele>
<time>2010-07-17T13:29:59Z</time>
<desc>lat.=55.829872, lon.=26.135784, Alt.=158.611450m. Speed=15.192000m/h.</desc>
<speed>4.220000</speed>
</trkpt>
<trkpt lat="55.829834" lon="26.135792">
<ele>158.673950</ele>
<time>2010-07-17T13:30:00Z</time>
<desc>lat.=55.829834, lon.=26.135792, Alt.=158.673950m. Speed=17.424000m/h.</desc>
<speed>4.840000</speed>
</trkpt>
<trkpt lat="55.829788" lon="26.135803">
<ele>158.677856</ele>
<time>2010-07-17T13:30:01Z</time>
<desc>lat.=55.829788, lon.=26.135803, Alt.=158.677856m. Speed=16.164000m/h.</desc>
<speed>4.490000</speed>
</trkpt>
<trkpt lat="55.829746" lon="26.135815">
<ele>158.966919</ele>
<time>2010-07-17T13:30:02Z</time>
<desc>lat.=55.829746, lon.=26.135815, Alt.=158.966919m. Speed=16.128000m/h.</desc>
<speed>4.480000</speed>
</trkpt>
<trkpt lat="55.829708" lon="26.135830">
<ele>158.955200</ele>
<time>2010-07-17T13:30:03Z</time>
<desc>lat.=55.829708, lon.=26.135830, Alt.=158.955200m. Speed=16.667999m/h.</desc>
<speed>4.630000</speed>
</trkpt>
<trkpt lat="55.829666" lon="26.135845">
<ele>158.908325</ele>
<time>2010-07-17T13:30:04Z</time>
<desc>lat.=55.829666, lon.=26.135845, Alt.=158.908325m. Speed=16.596001m/h.</desc>
<speed>4.610000</speed>
</trkpt>
<trkpt lat="55.829624" lon="26.135857">
<ele>159.045044</ele>
<time>2010-07-17T13:30:05Z</time>
<desc>lat.=55.829624, lon.=26.135857, Alt.=159.045044m. Speed=16.667999m/h.</desc>
<speed>4.630000</speed>
</trkpt>
<trkpt lat="55.829586" lon="26.135868">
<ele>159.361450</ele>
<time>2010-07-17T13:30:06Z</time>
<desc>lat.=55.829586, lon.=26.135868, Alt.=159.361450m. Speed=16.488001m/h.</desc>
<speed>4.580000</speed>
</trkpt>
<trkpt lat="55.829544" lon="26.135880">
<ele>159.537231</ele>
<time>2010-07-17T13:30:07Z</time>
<desc>lat.=55.829544, lon.=26.135880, Alt.=159.537231m. Speed=16.379999m/h.</desc>
<speed>4.550000</speed>
</trkpt>
<trkpt lat="55.829502" lon="26.135889">
<ele>159.666138</ele>
<time>2010-07-17T13:30:08Z</time>
<desc>lat.=55.829502, lon.=26.135889, Alt.=159.666138m. Speed=16.632000m/h.</desc>
<speed>4.620000</speed>
</trkpt>
<trkpt lat="55.829460" lon="26.135900">
<ele>159.857544</ele>
<time>2010-07-17T13:30:09Z</time>
<desc>lat.=55.829460, lon.=26.135900, Alt.=159.857544m. Speed=16.020000m/h.</desc>
<speed>4.450000</speed>
</trkpt>
<trkpt lat="55.829418" lon="26.135908">
<ele>160.041138</ele>
<time>2010-07-17T13:30:10Z</time>
<desc>lat.=55.829418, lon.=26.135908, Alt.=160.041138m. Speed=16.236000m/h.</desc>
<speed>4.510000</speed>
</trkpt>
<trkpt lat="55.829380" lon="26.135920">
<ele>160.052856</ele>
<time>2010-07-17T13:30:11Z</time>
<desc>lat.=55.829380, lon.=26.135920, Alt.=160.052856m. Speed=15.480000m/h.</desc>
<speed>4.300000</speed>
</trkpt>
<trkpt lat="55.829342" lon="26.135929">
<ele>160.150513</ele>
<time>2010-07-17T13:30:12Z</time>
<desc>lat.=55.829342, lon.=26.135929, Alt.=160.150513m. Speed=13.608000m/h.</desc>
<speed>3.780000</speed>
</trkpt>
<trkpt lat="55.829308" lon="26.135935">
<ele>160.330200</ele>
<time>2010-07-17T13:30:13Z</time>
<desc>lat.=55.829308, lon.=26.135935, Alt.=160.330200m. Speed=13.212000m/h.</desc>
<speed>3.670000</speed>
</trkpt>
<trkpt lat="55.829273" lon="26.135944">
<ele>160.228638</ele>
<time>2010-07-17T13:30:14Z</time>
<desc>lat.=55.829273, lon.=26.135944, Alt.=160.228638m. Speed=13.392000m/h.</desc>
<speed>3.720000</speed>
</trkpt>
<trkpt lat="55.829239" lon="26.135950">
<ele>160.318481</ele>
<time>2010-07-17T13:30:15Z</time>
<desc>lat.=55.829239, lon.=26.135950, Alt.=160.318481m. Speed=13.428000m/h.</desc>
<speed>3.730000</speed>
</trkpt>
<trkpt lat="55.829205" lon="26.135958">
<ele>160.775513</ele>
<time>2010-07-17T13:30:16Z</time>
<desc>lat.=55.829205, lon.=26.135958, Alt.=160.775513m. Speed=14.328000m/h.</desc>
<speed>3.980000</speed>
</trkpt>
<trkpt lat="55.829170" lon="26.135967">
<ele>161.002075</ele>
<time>2010-07-17T13:30:17Z</time>
<desc>lat.=55.829170, lon.=26.135967, Alt.=161.002075m. Speed=13.284000m/h.</desc>
<speed>3.690000</speed>
</trkpt>
<trkpt lat="55.829136" lon="26.135975">
<ele>160.970825</ele>
<time>2010-07-17T13:30:18Z</time>
<desc>lat.=55.829136, lon.=26.135975, Alt.=160.970825m. Speed=13.428000m/h.</desc>
<speed>3.730000</speed>
</trkpt>
<trkpt lat="55.829098" lon="26.135988">
<ele>160.670044</ele>
<time>2010-07-17T13:30:19Z</time>
<desc>lat.=55.829098, lon.=26.135988, Alt.=160.670044m. Speed=12.564000m/h.</desc>
<speed>3.490000</speed>
</trkpt>
<trkpt lat="55.829063" lon="26.136002">
<ele>160.541138</ele>
<time>2010-07-17T13:30:20Z</time>
<desc>lat.=55.829063, lon.=26.136002, Alt.=160.541138m. Speed=12.996000m/h.</desc>
<speed>3.610000</speed>
</trkpt>
<trkpt lat="55.829033" lon="26.136009">
<ele>160.662231</ele>
<time>2010-07-17T13:30:21Z</time>
<desc>lat.=55.829033, lon.=26.136009, Alt.=160.662231m. Speed=12.420000m/h.</desc>
<speed>3.450000</speed>
</trkpt>
<trkpt lat="55.828999" lon="26.136019">
<ele>160.642700</ele>
<time>2010-07-17T13:30:22Z</time>
<desc>lat.=55.828999, lon.=26.136019, Alt.=160.642700m. Speed=11.988000m/h.</desc>
<speed>3.330000</speed>
</trkpt>
<trkpt lat="55.828968" lon="26.136028">
<ele>160.759888</ele>
<time>2010-07-17T13:30:23Z</time>
<desc>lat.=55.828968, lon.=26.136028, Alt.=160.759888m. Speed=12.240000m/h.</desc>
<speed>3.400000</speed>
</trkpt>
<trkpt lat="55.828938" lon="26.136028">
<ele>161.029419</ele>
<time>2010-07-17T13:30:24Z</time>
<desc>lat.=55.828938, lon.=26.136028, Alt.=161.029419m. Speed=11.916000m/h.</desc>
<speed>3.310000</speed>
</trkpt>
<trkpt lat="55.828907" lon="26.136038">
<ele>161.236450</ele>
<time>2010-07-17T13:30:25Z</time>
<desc>lat.=55.828907, lon.=26.136038, Alt.=161.236450m. Speed=11.736000m/h.</desc>
<speed>3.260000</speed>
</trkpt>
<trkpt lat="55.828880" lon="26.136049">
<ele>160.959106</ele>
<time>2010-07-17T13:30:26Z</time>
<desc>lat.=55.828880, lon.=26.136049, Alt.=160.959106m. Speed=10.620000m/h.</desc>
<speed>2.950000</speed>
</trkpt>
<trkpt lat="55.828857" lon="26.136055">
<ele>161.056763</ele>
<time>2010-07-17T13:30:27Z</time>
<desc>lat.=55.828857, lon.=26.136055, Alt.=161.056763m. Speed=10.980000m/h.</desc>
<speed>3.050000</speed>
</trkpt>
<trkpt lat="55.828827" lon="26.136059">
<ele>160.978638</ele>
<time>2010-07-17T13:30:28Z</time>
<desc>lat.=55.828827, lon.=26.136059, Alt.=160.978638m. Speed=12.348000m/h.</desc>
<speed>3.430000</speed>
</trkpt>
<trkpt lat="55.828796" lon="26.136061">
<ele>161.107544</ele>
<time>2010-07-17T13:30:29Z</time>
<desc>lat.=55.828796, lon.=26.136061, Alt.=161.107544m. Speed=9.612000m/h.</desc>
<speed>2.670000</speed>
</trkpt>
<trkpt lat="55.828777" lon="26.136068">
<ele>161.283325</ele>
<time>2010-07-17T13:30:30Z</time>
<desc>lat.=55.828777, lon.=26.136068, Alt.=161.283325m. Speed=8.244000m/h.</desc>
<speed>2.290000</speed>
</trkpt>
<trkpt lat="55.828751" lon="26.136080">
<ele>161.267700</ele>
<time>2010-07-17T13:30:31Z</time>
<desc>lat.=55.828751, lon.=26.136080, Alt.=161.267700m. Speed=8.676000m/h.</desc>
<speed>2.410000</speed>
</trkpt>
<trkpt lat="55.828728" lon="26.136080">
<ele>161.576294</ele>
<time>2010-07-17T13:30:32Z</time>
<desc>lat.=55.828728, lon.=26.136080, Alt.=161.576294m. Speed=8.928000m/h.</desc>
<speed>2.480000</speed>
</trkpt>
<trkpt lat="55.828701" lon="26.136066">
<ele>162.591919</ele>
<time>2010-07-17T13:30:33Z</time>
<desc>lat.=55.828701, lon.=26.136066, Alt.=162.591919m. Speed=11.304000m/h.</desc>
<speed>3.140000</speed>
</trkpt>
<trkpt lat="55.828674" lon="26.136066">
<ele>162.673950</ele>
<time>2010-07-17T13:30:34Z</time>
<desc>lat.=55.828674, lon.=26.136066, Alt.=162.673950m. Speed=9.000000m/h.</desc>
<speed>2.500000</speed>
</trkpt>
<trkpt lat="55.828648" lon="26.136066">
<ele>162.869263</ele>
<time>2010-07-17T13:30:35Z</time>
<desc>lat.=55.828648, lon.=26.136066, Alt.=162.869263m. Speed=10.476000m/h.</desc>
<speed>2.910000</speed>
</trkpt>
<trkpt lat="55.828625" lon="26.136074">
<ele>162.963013</ele>
<time>2010-07-17T13:30:36Z</time>
<desc>lat.=55.828625, lon.=26.136074, Alt.=162.963013m. Speed=8.892000m/h.</desc>
<speed>2.470000</speed>
</trkpt>
<trkpt lat="55.828606" lon="26.136072">
<ele>163.423950</ele>
<time>2010-07-17T13:30:37Z</time>
<desc>lat.=55.828606, lon.=26.136072, Alt.=163.423950m. Speed=7.704000m/h.</desc>
<speed>2.140000</speed>
</trkpt>
<trkpt lat="55.828583" lon="26.136078">
<ele>163.529419</ele>
<time>2010-07-17T13:30:38Z</time>
<desc>lat.=55.828583, lon.=26.136078, Alt.=163.529419m. Speed=10.296000m/h.</desc>
<speed>2.860000</speed>
</trkpt>
<trkpt lat="55.828552" lon="26.136082">
<ele>163.630981</ele>
<time>2010-07-17T13:30:39Z</time>
<desc>lat.=55.828552, lon.=26.136082, Alt.=163.630981m. Speed=12.528000m/h.</desc>
<speed>3.480000</speed>
</trkpt>
<trkpt lat="55.828522" lon="26.136089">
<ele>163.623169</ele>
<time>2010-07-17T13:30:40Z</time>
<desc>lat.=55.828522, lon.=26.136089, Alt.=163.623169m. Speed=10.872000m/h.</desc>
<speed>3.020000</speed>
</trkpt>
<trkpt lat="55.828487" lon="26.136095">
<ele>163.787231</ele>
<time>2010-07-17T13:30:41Z</time>
<desc>lat.=55.828487, lon.=26.136095, Alt.=163.787231m. Speed=10.908000m/h.</desc>
<speed>3.030000</speed>
</trkpt>
<trkpt lat="55.828457" lon="26.136097">
<ele>163.767700</ele>
<time>2010-07-17T13:30:42Z</time>
<desc>lat.=55.828457, lon.=26.136097, Alt.=163.767700m. Speed=11.844000m/h.</desc>
<speed>3.290000</speed>
</trkpt>
<trkpt lat="55.828430" lon="26.136099">
<ele>163.771606</ele>
<time>2010-07-17T13:30:43Z</time>
<desc>lat.=55.828430, lon.=26.136099, Alt.=163.771606m. Speed=11.736000m/h.</desc>
<speed>3.260000</speed>
</trkpt>
<trkpt lat="55.828400" lon="26.136099">
<ele>163.818481</ele>
<time>2010-07-17T13:30:44Z</time>
<desc>lat.=55.828400, lon.=26.136099, Alt.=163.818481m. Speed=12.348000m/h.</desc>
<speed>3.430000</speed>
</trkpt>
<trkpt lat="55.828369" lon="26.136103">
<ele>163.810669</ele>
<time>2010-07-17T13:30:45Z</time>
<desc>lat.=55.828369, lon.=26.136103, Alt.=163.810669m. Speed=12.060000m/h.</desc>
<speed>3.350000</speed>
</trkpt>
<trkpt lat="55.828339" lon="26.136106">
<ele>163.877075</ele>
<time>2010-07-17T13:30:46Z</time>
<desc>lat.=55.828339, lon.=26.136106, Alt.=163.877075m. Speed=12.528000m/h.</desc>
<speed>3.480000</speed>
</trkpt>
<trkpt lat="55.828312" lon="26.136114">
<ele>163.861450</ele>
<time>2010-07-17T13:30:47Z</time>
<desc>lat.=55.828312, lon.=26.136114, Alt.=163.861450m. Speed=11.556000m/h.</desc>
<speed>3.210000</speed>
</trkpt>
<trkpt lat="55.828281" lon="26.136124">
<ele>163.978638</ele>
<time>2010-07-17T13:30:48Z</time>
<desc>lat.=55.828281, lon.=26.136124, Alt.=163.978638m. Speed=12.564000m/h.</desc>
<speed>3.490000</speed>
</trkpt>
<trkpt lat="55.828247" lon="26.136126">
<ele>164.068481</ele>
<time>2010-07-17T13:30:49Z</time>
<desc>lat.=55.828247, lon.=26.136126, Alt.=164.068481m. Speed=13.104000m/h.</desc>
<speed>3.640000</speed>
</trkpt>
<trkpt lat="55.828217" lon="26.136131">
<ele>164.033325</ele>
<time>2010-07-17T13:30:50Z</time>
<desc>lat.=55.828217, lon.=26.136131, Alt.=164.033325m. Speed=12.744000m/h.</desc>
<speed>3.540000</speed>
</trkpt>
<trkpt lat="55.828186" lon="26.136131">
<ele>164.259888</ele>
<time>2010-07-17T13:30:51Z</time>
<desc>lat.=55.828186, lon.=26.136131, Alt.=164.259888m. Speed=11.844000m/h.</desc>
<speed>3.290000</speed>
</trkpt>
<trkpt lat="55.828156" lon="26.136137">
<ele>164.310669</ele>
<time>2010-07-17T13:30:52Z</time>
<desc>lat.=55.828156, lon.=26.136137, Alt.=164.310669m. Speed=12.204000m/h.</desc>
<speed>3.390000</speed>
</trkpt>
<trkpt lat="55.828125" lon="26.136137">
<ele>164.388794</ele>
<time>2010-07-17T13:30:53Z</time>
<desc>lat.=55.828125, lon.=26.136137, Alt.=164.388794m. Speed=12.888000m/h.</desc>
<speed>3.580000</speed>
</trkpt>
<trkpt lat="55.828094" lon="26.136141">
<ele>164.435669</ele>
<time>2010-07-17T13:30:54Z</time>
<desc>lat.=55.828094, lon.=26.136141, Alt.=164.435669m. Speed=12.240000m/h.</desc>
<speed>3.400000</speed>
</trkpt>
<trkpt lat="55.828064" lon="26.136148">
<ele>164.474731</ele>
<time>2010-07-17T13:30:55Z</time>
<desc>lat.=55.828064, lon.=26.136148, Alt.=164.474731m. Speed=13.464000m/h.</desc>
<speed>3.740000</speed>
</trkpt>
<trkpt lat="55.828026" lon="26.136156">
<ele>164.486450</ele>
<time>2010-07-17T13:30:56Z</time>
<desc>lat.=55.828026, lon.=26.136156, Alt.=164.486450m. Speed=14.076000m/h.</desc>
<speed>3.910000</speed>
</trkpt>
<trkpt lat="55.827995" lon="26.136158">
<ele>164.533325</ele>
<time>2010-07-17T13:30:57Z</time>
<desc>lat.=55.827995, lon.=26.136158, Alt.=164.533325m. Speed=14.688000m/h.</desc>
<speed>4.080000</speed>
</trkpt>
<trkpt lat="55.827957" lon="26.136166">
<ele>164.595825</ele>
<time>2010-07-17T13:30:58Z</time>
<desc>lat.=55.827957, lon.=26.136166, Alt.=164.595825m. Speed=13.824000m/h.</desc>
<speed>3.840000</speed>
</trkpt>
<trkpt lat="55.827923" lon="26.136175">
<ele>164.689575</ele>
<time>2010-07-17T13:30:59Z</time>
<desc>lat.=55.827923, lon.=26.136175, Alt.=164.689575m. Speed=14.508000m/h.</desc>
<speed>4.030000</speed>
</trkpt>
<trkpt lat="55.827885" lon="26.136175">
<ele>164.759888</ele>
<time>2010-07-17T13:31:00Z</time>
<desc>lat.=55.827885, lon.=26.136175, Alt.=164.759888m. Speed=15.948000m/h.</desc>
<speed>4.430000</speed>
</trkpt>
<trkpt lat="55.827843" lon="26.136177">
<ele>164.838013</ele>
<time>2010-07-17T13:31:01Z</time>
<desc>lat.=55.827843, lon.=26.136177, Alt.=164.838013m. Speed=15.048000m/h.</desc>
<speed>4.180000</speed>
</trkpt>
<trkpt lat="55.827808" lon="26.136181">
<ele>164.892700</ele>
<time>2010-07-17T13:31:02Z</time>
<desc>lat.=55.827808, lon.=26.136181, Alt.=164.892700m. Speed=13.860000m/h.</desc>
<speed>3.850000</speed>
</trkpt>
<trkpt lat="55.827774" lon="26.136189">
<ele>164.912231</ele>
<time>2010-07-17T13:31:03Z</time>
<desc>lat.=55.827774, lon.=26.136189, Alt.=164.912231m. Speed=13.356000m/h.</desc>
<speed>3.710000</speed>
</trkpt>
<trkpt lat="55.827744" lon="26.136198">
<ele>164.873169</ele>
<time>2010-07-17T13:31:04Z</time>
<desc>lat.=55.827744, lon.=26.136198, Alt.=164.873169m. Speed=12.024000m/h.</desc>
<speed>3.340000</speed>
</trkpt>
<trkpt lat="55.827702" lon="26.136192">
<ele>165.142700</ele>
<time>2010-07-17T13:31:05Z</time>
<desc>lat.=55.827702, lon.=26.136192, Alt.=165.142700m. Speed=12.996000m/h.</desc>
<speed>3.610000</speed>
</trkpt>
<trkpt lat="55.827675" lon="26.136196">
<ele>165.170044</ele>
<time>2010-07-17T13:31:06Z</time>
<desc>lat.=55.827675, lon.=26.136196, Alt.=165.170044m. Speed=13.068000m/h.</desc>
<speed>3.630000</speed>
</trkpt>
<trkpt lat="55.827637" lon="26.136200">
<ele>165.158325</ele>
<time>2010-07-17T13:31:07Z</time>
<desc>lat.=55.827637, lon.=26.136200, Alt.=165.158325m. Speed=16.488001m/h.</desc>
<speed>4.580000</speed>
</trkpt>
<trkpt lat="55.827599" lon="26.136208">
<ele>164.869263</ele>
<time>2010-07-17T13:31:08Z</time>
<desc>lat.=55.827599, lon.=26.136208, Alt.=164.869263m. Speed=16.775999m/h.</desc>
<speed>4.660000</speed>
</trkpt>
<trkpt lat="55.827560" lon="26.136213">
<ele>164.767700</ele>
<time>2010-07-17T13:31:09Z</time>
<desc>lat.=55.827560, lon.=26.136213, Alt.=164.767700m. Speed=15.120000m/h.</desc>
<speed>4.200000</speed>
</trkpt>
<trkpt lat="55.827515" lon="26.136221">
<ele>164.673950</ele>
<time>2010-07-17T13:31:10Z</time>
<desc>lat.=55.827515, lon.=26.136221, Alt.=164.673950m. Speed=17.208000m/h.</desc>
<speed>4.780000</speed>
</trkpt>
<trkpt lat="55.827465" lon="26.136227">
<ele>164.736450</ele>
<time>2010-07-17T13:31:11Z</time>
<desc>lat.=55.827465, lon.=26.136227, Alt.=164.736450m. Speed=17.028000m/h.</desc>
<speed>4.730000</speed>
</trkpt>
<trkpt lat="55.827415" lon="26.136232">
<ele>164.713013</ele>
<time>2010-07-17T13:31:12Z</time>
<desc>lat.=55.827415, lon.=26.136232, Alt.=164.713013m. Speed=19.224001m/h.</desc>
<speed>5.340000</speed>
</trkpt>
<trkpt lat="55.827370" lon="26.136230">
<ele>164.736450</ele>
<time>2010-07-17T13:31:13Z</time>
<desc>lat.=55.827370, lon.=26.136230, Alt.=164.736450m. Speed=18.360001m/h.</desc>
<speed>5.100000</speed>
</trkpt>
<trkpt lat="55.827328" lon="26.136230">
<ele>164.759888</ele>
<time>2010-07-17T13:31:14Z</time>
<desc>lat.=55.827328, lon.=26.136230, Alt.=164.759888m. Speed=17.496000m/h.</desc>
<speed>4.860000</speed>
</trkpt>
<trkpt lat="55.827290" lon="26.136236">
<ele>164.798950</ele>
<time>2010-07-17T13:31:15Z</time>
<desc>lat.=55.827290, lon.=26.136236, Alt.=164.798950m. Speed=16.740000m/h.</desc>
<speed>4.650000</speed>
</trkpt>
<trkpt lat="55.827248" lon="26.136242">
<ele>164.787231</ele>
<time>2010-07-17T13:31:16Z</time>
<desc>lat.=55.827248, lon.=26.136242, Alt.=164.787231m. Speed=16.020000m/h.</desc>
<speed>4.450000</speed>
</trkpt>
<trkpt lat="55.827217" lon="26.136248">
<ele>164.697388</ele>
<time>2010-07-17T13:31:17Z</time>
<desc>lat.=55.827217, lon.=26.136248, Alt.=164.697388m. Speed=10.620000m/h.</desc>
<speed>2.950000</speed>
</trkpt>
<trkpt lat="55.827187" lon="26.136251">
<ele>164.658325</ele>
<time>2010-07-17T13:31:18Z</time>
<desc>lat.=55.827187, lon.=26.136251, Alt.=164.658325m. Speed=13.140000m/h.</desc>
<speed>3.650000</speed>
</trkpt>
<trkpt lat="55.827164" lon="26.136253">
<ele>164.591919</ele>
<time>2010-07-17T13:31:19Z</time>
<desc>lat.=55.827164, lon.=26.136253, Alt.=164.591919m. Speed=11.952000m/h.</desc>
<speed>3.320000</speed>
</trkpt>
<trkpt lat="55.827126" lon="26.136259">
<ele>164.552856</ele>
<time>2010-07-17T13:31:20Z</time>
<desc>lat.=55.827126, lon.=26.136259, Alt.=164.552856m. Speed=17.856001m/h.</desc>
<speed>4.960000</speed>
</trkpt>
<trkpt lat="55.827087" lon="26.136259">
<ele>164.427856</ele>
<time>2010-07-17T13:31:21Z</time>
<desc>lat.=55.827087, lon.=26.136259, Alt.=164.427856m. Speed=14.436000m/h.</desc>
<speed>4.010000</speed>
</trkpt>
<trkpt lat="55.827057" lon="26.136253">
<ele>164.295044</ele>
<time>2010-07-17T13:31:22Z</time>
<desc>lat.=55.827057, lon.=26.136253, Alt.=164.295044m. Speed=12.960000m/h.</desc>
<speed>3.600000</speed>
</trkpt>
<trkpt lat="55.827023" lon="26.136257">
<ele>164.295044</ele>
<time>2010-07-17T13:31:23Z</time>
<desc>lat.=55.827023, lon.=26.136257, Alt.=164.295044m. Speed=13.860000m/h.</desc>
<speed>3.850000</speed>
</trkpt>
<trkpt lat="55.826973" lon="26.136261">
<ele>164.173950</ele>
<time>2010-07-17T13:31:24Z</time>
<desc>lat.=55.826973, lon.=26.136261, Alt.=164.173950m. Speed=16.740000m/h.</desc>
<speed>4.650000</speed>
</trkpt>
<trkpt lat="55.826931" lon="26.136265">
<ele>164.146606</ele>
<time>2010-07-17T13:31:25Z</time>
<desc>lat.=55.826931, lon.=26.136265, Alt.=164.146606m. Speed=13.032000m/h.</desc>
<speed>3.620000</speed>
</trkpt>
<trkpt lat="55.826885" lon="26.136269">
<ele>164.088013</ele>
<time>2010-07-17T13:31:26Z</time>
<desc>lat.=55.826885, lon.=26.136269, Alt.=164.088013m. Speed=16.955999m/h.</desc>
<speed>4.710000</speed>
</trkpt>
<trkpt lat="55.826847" lon="26.136274">
<ele>164.201294</ele>
<time>2010-07-17T13:31:27Z</time>
<desc>lat.=55.826847, lon.=26.136274, Alt.=164.201294m. Speed=9.144000m/h.</desc>
<speed>2.540000</speed>
</trkpt>
<trkpt lat="55.826797" lon="26.136271">
<ele>164.197388</ele>
<time>2010-07-17T13:31:28Z</time>
<desc>lat.=55.826797, lon.=26.136271, Alt.=164.197388m. Speed=15.264000m/h.</desc>
<speed>4.240000</speed>
</trkpt>
<trkpt lat="55.826752" lon="26.136274">
<ele>164.150513</ele>
<time>2010-07-17T13:31:29Z</time>
<desc>lat.=55.826752, lon.=26.136274, Alt.=164.150513m. Speed=15.948000m/h.</desc>
<speed>4.430000</speed>
</trkpt>
<trkpt lat="55.826706" lon="26.136282">
<ele>164.017700</ele>
<time>2010-07-17T13:31:30Z</time>
<desc>lat.=55.826706, lon.=26.136282, Alt.=164.017700m. Speed=16.740000m/h.</desc>
<speed>4.650000</speed>
</trkpt>
<trkpt lat="55.826653" lon="26.136292">
<ele>163.978638</ele>
<time>2010-07-17T13:31:31Z</time>
<desc>lat.=55.826653, lon.=26.136292, Alt.=163.978638m. Speed=19.584000m/h.</desc>
<speed>5.440000</speed>
</trkpt>
<trkpt lat="55.826595" lon="26.136293">
<ele>163.779419</ele>
<time>2010-07-17T13:31:32Z</time>
<desc>lat.=55.826595, lon.=26.136293, Alt.=163.779419m. Speed=19.152000m/h.</desc>
<speed>5.320000</speed>
</trkpt>
<trkpt lat="55.826546" lon="26.136295">
<ele>163.716919</ele>
<time>2010-07-17T13:31:33Z</time>
<desc>lat.=55.826546, lon.=26.136295, Alt.=163.716919m. Speed=19.980000m/h.</desc>
<speed>5.550000</speed>
</trkpt>
<trkpt lat="55.826492" lon="26.136299">
<ele>163.771606</ele>
<time>2010-07-17T13:31:34Z</time>
<desc>lat.=55.826492, lon.=26.136299, Alt.=163.771606m. Speed=21.708000m/h.</desc>
<speed>6.030000</speed>
</trkpt>
<trkpt lat="55.826427" lon="26.136292">
<ele>163.619263</ele>
<time>2010-07-17T13:31:35Z</time>
<desc>lat.=55.826427, lon.=26.136292, Alt.=163.619263m. Speed=18.756001m/h.</desc>
<speed>5.210000</speed>
</trkpt>
<trkpt lat="55.826370" lon="26.136286">
<ele>163.599731</ele>
<time>2010-07-17T13:31:36Z</time>
<desc>lat.=55.826370, lon.=26.136286, Alt.=163.599731m. Speed=20.016001m/h.</desc>
<speed>5.560000</speed>
</trkpt>
<trkpt lat="55.826317" lon="26.136286">
<ele>163.545044</ele>
<time>2010-07-17T13:31:37Z</time>
<desc>lat.=55.826317, lon.=26.136286, Alt.=163.545044m. Speed=21.492001m/h.</desc>
<speed>5.970000</speed>
</trkpt>
<trkpt lat="55.826263" lon="26.136288">
<ele>163.361450</ele>
<time>2010-07-17T13:31:38Z</time>
<desc>lat.=55.826263, lon.=26.136288, Alt.=163.361450m. Speed=21.708000m/h.</desc>
<speed>6.030000</speed>
</trkpt>
<trkpt lat="55.826210" lon="26.136293">
<ele>163.166138</ele>
<time>2010-07-17T13:31:39Z</time>
<desc>lat.=55.826210, lon.=26.136293, Alt.=163.166138m. Speed=21.204000m/h.</desc>
<speed>5.890000</speed>
</trkpt>
<trkpt lat="55.826160" lon="26.136295">
<ele>163.095825</ele>
<time>2010-07-17T13:31:40Z</time>
<desc>lat.=55.826160, lon.=26.136295, Alt.=163.095825m. Speed=16.488001m/h.</desc>
<speed>4.580000</speed>
</trkpt>
<trkpt lat="55.826115" lon="26.136290">
<ele>163.088013</ele>
<time>2010-07-17T13:31:41Z</time>
<desc>lat.=55.826115, lon.=26.136290, Alt.=163.088013m. Speed=20.268000m/h.</desc>
<speed>5.630000</speed>
</trkpt>
<trkpt lat="55.826061" lon="26.136290">
<ele>162.982544</ele>
<time>2010-07-17T13:31:42Z</time>
<desc>lat.=55.826061, lon.=26.136290, Alt.=162.982544m. Speed=20.016001m/h.</desc>
<speed>5.560000</speed>
</trkpt>
<trkpt lat="55.826015" lon="26.136290">
<ele>163.068481</ele>
<time>2010-07-17T13:31:43Z</time>
<desc>lat.=55.826015, lon.=26.136290, Alt.=163.068481m. Speed=16.775999m/h.</desc>
<speed>4.660000</speed>
</trkpt>
<trkpt lat="55.825970" lon="26.136290">
<ele>162.865356</ele>
<time>2010-07-17T13:31:44Z</time>
<desc>lat.=55.825970, lon.=26.136290, Alt.=162.865356m. Speed=15.372000m/h.</desc>
<speed>4.270000</speed>
</trkpt>
<trkpt lat="55.825924" lon="26.136290">
<ele>162.377075</ele>
<time>2010-07-17T13:31:45Z</time>
<desc>lat.=55.825924, lon.=26.136290, Alt.=162.377075m. Speed=21.455999m/h.</desc>
<speed>5.960000</speed>
</trkpt>
<trkpt lat="55.825886" lon="26.136293">
<ele>161.845825</ele>
<time>2010-07-17T13:31:46Z</time>
<desc>lat.=55.825886, lon.=26.136293, Alt.=161.845825m. Speed=9.936000m/h.</desc>
<speed>2.760000</speed>
</trkpt>
<trkpt lat="55.825836" lon="26.136301">
<ele>161.369263</ele>
<time>2010-07-17T13:31:47Z</time>
<desc>lat.=55.825836, lon.=26.136301, Alt.=161.369263m. Speed=20.591999m/h.</desc>
<speed>5.720000</speed>
</trkpt>
<trkpt lat="55.825771" lon="26.136309">
<ele>160.947388</ele>
<time>2010-07-17T13:31:48Z</time>
<desc>lat.=55.825771, lon.=26.136309, Alt.=160.947388m. Speed=23.184000m/h.</desc>
<speed>6.440000</speed>
</trkpt>
<trkpt lat="55.825718" lon="26.136309">
<ele>160.978638</ele>
<time>2010-07-17T13:31:49Z</time>
<desc>lat.=55.825718, lon.=26.136309, Alt.=160.978638m. Speed=19.691999m/h.</desc>
<speed>5.470000</speed>
</trkpt>
<trkpt lat="55.825657" lon="26.136309">
<ele>160.818481</ele>
<time>2010-07-17T13:31:50Z</time>
<desc>lat.=55.825657, lon.=26.136309, Alt.=160.818481m. Speed=18.576000m/h.</desc>
<speed>5.160000</speed>
</trkpt>
<trkpt lat="55.825611" lon="26.136307">
<ele>160.564575</ele>
<time>2010-07-17T13:31:51Z</time>
<desc>lat.=55.825611, lon.=26.136307, Alt.=160.564575m. Speed=18.648001m/h.</desc>
<speed>5.180000</speed>
</trkpt>
<trkpt lat="55.825565" lon="26.136303">
<ele>160.611450</ele>
<time>2010-07-17T13:31:52Z</time>
<desc>lat.=55.825565, lon.=26.136303, Alt.=160.611450m. Speed=14.580000m/h.</desc>
<speed>4.050000</speed>
</trkpt>
<trkpt lat="55.825508" lon="26.136303">
<ele>160.744263</ele>
<time>2010-07-17T13:31:53Z</time>
<desc>lat.=55.825508, lon.=26.136303, Alt.=160.744263m. Speed=17.927999m/h.</desc>
<speed>4.980000</speed>
</trkpt>
<trkpt lat="55.825462" lon="26.136305">
<ele>160.689575</ele>
<time>2010-07-17T13:31:54Z</time>
<desc>lat.=55.825462, lon.=26.136305, Alt.=160.689575m. Speed=19.152000m/h.</desc>
<speed>5.320000</speed>
</trkpt>
<trkpt lat="55.825409" lon="26.136307">
<ele>160.677856</ele>
<time>2010-07-17T13:31:55Z</time>
<desc>lat.=55.825409, lon.=26.136307, Alt.=160.677856m. Speed=18.827999m/h.</desc>
<speed>5.230000</speed>
</trkpt>
<trkpt lat="55.825367" lon="26.136312">
<ele>160.755981</ele>
<time>2010-07-17T13:31:56Z</time>
<desc>lat.=55.825367, lon.=26.136312, Alt.=160.755981m. Speed=17.136000m/h.</desc>
<speed>4.760000</speed>
</trkpt>
<trkpt lat="55.825325" lon="26.136318">
<ele>160.771606</ele>
<time>2010-07-17T13:31:57Z</time>
<desc>lat.=55.825325, lon.=26.136318, Alt.=160.771606m. Speed=16.020000m/h.</desc>
<speed>4.450000</speed>
</trkpt>
<trkpt lat="55.825275" lon="26.136326">
<ele>160.845825</ele>
<time>2010-07-17T13:31:58Z</time>
<desc>lat.=55.825275, lon.=26.136326, Alt.=160.845825m. Speed=16.271999m/h.</desc>
<speed>4.520000</speed>
</trkpt>
<trkpt lat="55.825233" lon="26.136343">
<ele>160.650513</ele>
<time>2010-07-17T13:31:59Z</time>
<desc>lat.=55.825233, lon.=26.136343, Alt.=160.650513m. Speed=15.444000m/h.</desc>
<speed>4.290000</speed>
</trkpt>
<trkpt lat="55.825191" lon="26.136345">
<ele>160.752075</ele>
<time>2010-07-17T13:32:00Z</time>
<desc>lat.=55.825191, lon.=26.136345, Alt.=160.752075m. Speed=13.464000m/h.</desc>
<speed>3.740000</speed>
</trkpt>
<trkpt lat="55.825142" lon="26.136332">
<ele>160.818481</ele>
<time>2010-07-17T13:32:01Z</time>
<desc>lat.=55.825142, lon.=26.136332, Alt.=160.818481m. Speed=15.480000m/h.</desc>
<speed>4.300000</speed>
</trkpt>
<trkpt lat="55.825096" lon="26.136324">
<ele>160.970825</ele>
<time>2010-07-17T13:32:02Z</time>
<desc>lat.=55.825096, lon.=26.136324, Alt.=160.970825m. Speed=13.572000m/h.</desc>
<speed>3.770000</speed>
</trkpt>
<trkpt lat="55.824993" lon="26.136318">
<ele>161.267700</ele>
<time>2010-07-17T13:32:03Z</time>
<desc>lat.=55.824993, lon.=26.136318, Alt.=161.267700m. Speed=21.240000m/h.</desc>
<speed>5.900000</speed>
</trkpt>
<trkpt lat="55.824940" lon="26.136316">
<ele>161.201294</ele>
<time>2010-07-17T13:32:04Z</time>
<desc>lat.=55.824940, lon.=26.136316, Alt.=161.201294m. Speed=22.212000m/h.</desc>
<speed>6.170000</speed>
</trkpt>
<trkpt lat="55.824875" lon="26.136318">
<ele>161.494263</ele>
<time>2010-07-17T13:32:05Z</time>
<desc>lat.=55.824875, lon.=26.136318, Alt.=161.494263m. Speed=21.275999m/h.</desc>
<speed>5.910000</speed>
</trkpt>
<trkpt lat="55.824821" lon="26.136324">
<ele>161.619263</ele>
<time>2010-07-17T13:32:06Z</time>
<desc>lat.=55.824821, lon.=26.136324, Alt.=161.619263m. Speed=19.764000m/h.</desc>
<speed>5.490000</speed>
</trkpt>
<trkpt lat="55.824768" lon="26.136320">
<ele>162.709106</ele>
<time>2010-07-17T13:32:07Z</time>
<desc>lat.=55.824768, lon.=26.136320, Alt.=162.709106m. Speed=20.520000m/h.</desc>
<speed>5.700000</speed>
</trkpt>
<trkpt lat="55.824699" lon="26.136318">
<ele>163.353638</ele>
<time>2010-07-17T13:32:08Z</time>
<desc>lat.=55.824699, lon.=26.136318, Alt.=163.353638m. Speed=18.972000m/h.</desc>
<speed>5.270000</speed>
</trkpt>
<trkpt lat="55.824638" lon="26.136299">
<ele>164.170044</ele>
<time>2010-07-17T13:32:09Z</time>
<desc>lat.=55.824638, lon.=26.136299, Alt.=164.170044m. Speed=20.304001m/h.</desc>
<speed>5.640000</speed>
</trkpt>
<trkpt lat="55.824585" lon="26.136284">
<ele>164.935669</ele>
<time>2010-07-17T13:32:10Z</time>
<desc>lat.=55.824585, lon.=26.136284, Alt.=164.935669m. Speed=19.584000m/h.</desc>
<speed>5.440000</speed>
</trkpt>
<trkpt lat="55.824535" lon="26.136257">
<ele>165.849731</ele>
<time>2010-07-17T13:32:11Z</time>
<desc>lat.=55.824535, lon.=26.136257, Alt.=165.849731m. Speed=20.304001m/h.</desc>
<speed>5.640000</speed>
</trkpt>
<trkpt lat="55.824493" lon="26.136246">
<ele>165.998169</ele>
<time>2010-07-17T13:32:12Z</time>
<desc>lat.=55.824493, lon.=26.136246, Alt.=165.998169m. Speed=16.164000m/h.</desc>
<speed>4.490000</speed>
</trkpt>
<trkpt lat="55.824455" lon="26.136244">
<ele>166.916138</ele>
<time>2010-07-17T13:32:13Z</time>
<desc>lat.=55.824455, lon.=26.136244, Alt.=166.916138m. Speed=15.228000m/h.</desc>
<speed>4.230000</speed>
</trkpt>
<trkpt lat="55.824406" lon="26.136240">
<ele>167.705200</ele>
<time>2010-07-17T13:32:14Z</time>
<desc>lat.=55.824406, lon.=26.136240, Alt.=167.705200m. Speed=14.940000m/h.</desc>
<speed>4.150000</speed>
</trkpt>
<trkpt lat="55.824360" lon="26.136232">
<ele>168.095825</ele>
<time>2010-07-17T13:32:15Z</time>
<desc>lat.=55.824360, lon.=26.136232, Alt.=168.095825m. Speed=15.444000m/h.</desc>
<speed>4.290000</speed>
</trkpt>
<trkpt lat="55.824299" lon="26.136223">
<ele>168.525513</ele>
<time>2010-07-17T13:32:16Z</time>
<desc>lat.=55.824299, lon.=26.136223, Alt.=168.525513m. Speed=18.252001m/h.</desc>
<speed>5.070000</speed>
</trkpt>
<trkpt lat="55.824253" lon="26.136213">
<ele>168.853638</ele>
<time>2010-07-17T13:32:17Z</time>
<desc>lat.=55.824253, lon.=26.136213, Alt.=168.853638m. Speed=15.876000m/h.</desc>
<speed>4.410000</speed>
</trkpt>
<trkpt lat="55.824215" lon="26.136204">
<ele>169.095825</ele>
<time>2010-07-17T13:32:18Z</time>
<desc>lat.=55.824215, lon.=26.136204, Alt.=169.095825m. Speed=17.532000m/h.</desc>
<speed>4.870000</speed>
</trkpt>
<trkpt lat="55.824158" lon="26.136192">
<ele>169.697388</ele>
<time>2010-07-17T13:32:19Z</time>
<desc>lat.=55.824158, lon.=26.136192, Alt.=169.697388m. Speed=15.264000m/h.</desc>
<speed>4.240000</speed>
</trkpt>
<trkpt lat="55.824120" lon="26.136181">
<ele>170.423950</ele>
<time>2010-07-17T13:32:20Z</time>
<desc>lat.=55.824120, lon.=26.136181, Alt.=170.423950m. Speed=14.112000m/h.</desc>
<speed>3.920000</speed>
</trkpt>
<trkpt lat="55.824081" lon="26.136175">
<ele>170.806763</ele>
<time>2010-07-17T13:32:21Z</time>
<desc>lat.=55.824081, lon.=26.136175, Alt.=170.806763m. Speed=14.832000m/h.</desc>
<speed>4.120000</speed>
</trkpt>
<trkpt lat="55.824009" lon="26.136213">
<ele>168.959106</ele>
<time>2010-07-17T13:32:22Z</time>
<desc>lat.=55.824009, lon.=26.136213, Alt.=168.959106m. Speed=19.332001m/h.</desc>
<speed>5.370000</speed>
</trkpt>
<trkpt lat="55.823956" lon="26.136217">
<ele>169.134888</ele>
<time>2010-07-17T13:32:23Z</time>
<desc>lat.=55.823956, lon.=26.136217, Alt.=169.134888m. Speed=12.924000m/h.</desc>
<speed>3.590000</speed>
</trkpt>
<trkpt lat="55.823906" lon="26.136221">
<ele>169.177856</ele>
<time>2010-07-17T13:32:24Z</time>
<desc>lat.=55.823906, lon.=26.136221, Alt.=169.177856m. Speed=16.704000m/h.</desc>
<speed>4.640000</speed>
</trkpt>
<trkpt lat="55.823860" lon="26.136236">
<ele>168.521606</ele>
<time>2010-07-17T13:32:25Z</time>
<desc>lat.=55.823860, lon.=26.136236, Alt.=168.521606m. Speed=17.388000m/h.</desc>
<speed>4.830000</speed>
</trkpt>
<trkpt lat="55.823811" lon="26.136259">
<ele>167.556763</ele>
<time>2010-07-17T13:32:26Z</time>
<desc>lat.=55.823811, lon.=26.136259, Alt.=167.556763m. Speed=17.028000m/h.</desc>
<speed>4.730000</speed>
</trkpt>
<trkpt lat="55.823750" lon="26.136276">
<ele>166.420044</ele>
<time>2010-07-17T13:32:27Z</time>
<desc>lat.=55.823750, lon.=26.136276, Alt.=166.420044m. Speed=16.955999m/h.</desc>
<speed>4.710000</speed>
</trkpt>
<trkpt lat="55.823696" lon="26.136292">
<ele>165.849731</ele>
<time>2010-07-17T13:32:28Z</time>
<desc>lat.=55.823696, lon.=26.136292, Alt.=165.849731m. Speed=16.488001m/h.</desc>
<speed>4.580000</speed>
</trkpt>
<trkpt lat="55.823647" lon="26.136299">
<ele>165.525513</ele>
<time>2010-07-17T13:32:29Z</time>
<desc>lat.=55.823647, lon.=26.136299, Alt.=165.525513m. Speed=16.884001m/h.</desc>
<speed>4.690000</speed>
</trkpt>
<trkpt lat="55.823601" lon="26.136299">
<ele>165.748169</ele>
<time>2010-07-17T13:32:30Z</time>
<desc>lat.=55.823601, lon.=26.136299, Alt.=165.748169m. Speed=15.084000m/h.</desc>
<speed>4.190000</speed>
</trkpt>
<trkpt lat="55.823563" lon="26.136303">
<ele>165.908325</ele>
<time>2010-07-17T13:32:31Z</time>
<desc>lat.=55.823563, lon.=26.136303, Alt.=165.908325m. Speed=16.740000m/h.</desc>
<speed>4.650000</speed>
</trkpt>
<trkpt lat="55.823521" lon="26.136311">
<ele>166.240356</ele>
<time>2010-07-17T13:32:32Z</time>
<desc>lat.=55.823521, lon.=26.136311, Alt.=166.240356m. Speed=15.696000m/h.</desc>
<speed>4.360000</speed>
</trkpt>
<trkpt lat="55.823483" lon="26.136309">
<ele>166.478638</ele>
<time>2010-07-17T13:32:33Z</time>
<desc>lat.=55.823483, lon.=26.136309, Alt.=166.478638m. Speed=14.616000m/h.</desc>
<speed>4.060000</speed>
</trkpt>
<trkpt lat="55.823441" lon="26.136305">
<ele>166.505981</ele>
<time>2010-07-17T13:32:34Z</time>
<desc>lat.=55.823441, lon.=26.136305, Alt.=166.505981m. Speed=15.084000m/h.</desc>
<speed>4.190000</speed>
</trkpt>
<trkpt lat="55.823406" lon="26.136307">
<ele>166.623169</ele>
<time>2010-07-17T13:32:35Z</time>
<desc>lat.=55.823406, lon.=26.136307, Alt.=166.623169m. Speed=12.996000m/h.</desc>
<speed>3.610000</speed>
</trkpt>
<trkpt lat="55.823368" lon="26.136299">
<ele>166.431763</ele>
<time>2010-07-17T13:32:36Z</time>
<desc>lat.=55.823368, lon.=26.136299, Alt.=166.431763m. Speed=13.608000m/h.</desc>
<speed>3.780000</speed>
</trkpt>
<trkpt lat="55.823326" lon="26.136297">
<ele>166.427856</ele>
<time>2010-07-17T13:32:37Z</time>
<desc>lat.=55.823326, lon.=26.136297, Alt.=166.427856m. Speed=15.552000m/h.</desc>
<speed>4.320000</speed>
</trkpt>
<trkpt lat="55.823280" lon="26.136297">
<ele>166.263794</ele>
<time>2010-07-17T13:32:38Z</time>
<desc>lat.=55.823280, lon.=26.136297, Alt.=166.263794m. Speed=16.020000m/h.</desc>
<speed>4.450000</speed>
</trkpt>
<trkpt lat="55.823238" lon="26.136303">
<ele>166.064575</ele>
<time>2010-07-17T13:32:39Z</time>
<desc>lat.=55.823238, lon.=26.136303, Alt.=166.064575m. Speed=15.516000m/h.</desc>
<speed>4.310000</speed>
</trkpt>
<trkpt lat="55.823196" lon="26.136305">
<ele>165.588013</ele>
<time>2010-07-17T13:32:40Z</time>
<desc>lat.=55.823196, lon.=26.136305, Alt.=165.588013m. Speed=14.760000m/h.</desc>
<speed>4.100000</speed>
</trkpt>
<trkpt lat="55.823154" lon="26.136309">
<ele>165.494263</ele>
<time>2010-07-17T13:32:41Z</time>
<desc>lat.=55.823154, lon.=26.136309, Alt.=165.494263m. Speed=16.524000m/h.</desc>
<speed>4.590000</speed>
</trkpt>
<trkpt lat="55.823112" lon="26.136311">
<ele>165.595825</ele>
<time>2010-07-17T13:32:42Z</time>
<desc>lat.=55.823112, lon.=26.136311, Alt.=165.595825m. Speed=14.976000m/h.</desc>
<speed>4.160000</speed>
</trkpt>
<trkpt lat="55.823063" lon="26.136305">
<ele>165.443481</ele>
<time>2010-07-17T13:32:43Z</time>
<desc>lat.=55.823063, lon.=26.136305, Alt.=165.443481m. Speed=16.091999m/h.</desc>
<speed>4.470000</speed>
</trkpt>
<trkpt lat="55.823025" lon="26.136301">
<ele>165.576294</ele>
<time>2010-07-17T13:32:44Z</time>
<desc>lat.=55.823025, lon.=26.136301, Alt.=165.576294m. Speed=14.940000m/h.</desc>
<speed>4.150000</speed>
</trkpt>
<trkpt lat="55.822987" lon="26.136301">
<ele>165.966919</ele>
<time>2010-07-17T13:32:45Z</time>
<desc>lat.=55.822987, lon.=26.136301, Alt.=165.966919m. Speed=13.212000m/h.</desc>
<speed>3.670000</speed>
</trkpt>
<trkpt lat="55.822952" lon="26.136305">
<ele>165.998169</ele>
<time>2010-07-17T13:32:46Z</time>
<desc>lat.=55.822952, lon.=26.136305, Alt.=165.998169m. Speed=11.880000m/h.</desc>
<speed>3.300000</speed>
</trkpt>
<trkpt lat="55.822922" lon="26.136305">
<ele>166.439575</ele>
<time>2010-07-17T13:32:47Z</time>
<desc>lat.=55.822922, lon.=26.136305, Alt.=166.439575m. Speed=10.800000m/h.</desc>
<speed>3.000000</speed>
</trkpt>
<trkpt lat="55.822895" lon="26.136299">
<ele>166.693481</ele>
<time>2010-07-17T13:32:48Z</time>
<desc>lat.=55.822895, lon.=26.136299, Alt.=166.693481m. Speed=10.332000m/h.</desc>
<speed>2.870000</speed>
</trkpt>
<trkpt lat="55.822868" lon="26.136299">
<ele>166.802856</ele>
<time>2010-07-17T13:32:49Z</time>
<desc>lat.=55.822868, lon.=26.136299, Alt.=166.802856m. Speed=9.108000m/h.</desc>
<speed>2.530000</speed>
</trkpt>
<trkpt lat="55.822838" lon="26.136299">
<ele>166.943481</ele>
<time>2010-07-17T13:32:50Z</time>
<desc>lat.=55.822838, lon.=26.136299, Alt.=166.943481m. Speed=9.540000m/h.</desc>
<speed>2.650000</speed>
</trkpt>
<trkpt lat="55.822807" lon="26.136303">
<ele>167.209106</ele>
<time>2010-07-17T13:32:51Z</time>
<desc>lat.=55.822807, lon.=26.136303, Alt.=167.209106m. Speed=11.232000m/h.</desc>
<speed>3.120000</speed>
</trkpt>
<trkpt lat="55.822777" lon="26.136297">
<ele>167.228638</ele>
<time>2010-07-17T13:32:52Z</time>
<desc>lat.=55.822777, lon.=26.136297, Alt.=167.228638m. Speed=11.628000m/h.</desc>
<speed>3.230000</speed>
</trkpt>
<trkpt lat="55.822746" lon="26.136295">
<ele>167.361450</ele>
<time>2010-07-17T13:32:53Z</time>
<desc>lat.=55.822746, lon.=26.136295, Alt.=167.361450m. Speed=11.700000m/h.</desc>
<speed>3.250000</speed>
</trkpt>
<trkpt lat="55.822712" lon="26.136299">
<ele>167.134888</ele>
<time>2010-07-17T13:32:54Z</time>
<desc>lat.=55.822712, lon.=26.136299, Alt.=167.134888m. Speed=11.952000m/h.</desc>
<speed>3.320000</speed>
</trkpt>
<trkpt lat="55.822681" lon="26.136303">
<ele>166.943481</ele>
<time>2010-07-17T13:32:55Z</time>
<desc>lat.=55.822681, lon.=26.136303, Alt.=166.943481m. Speed=11.988000m/h.</desc>
<speed>3.330000</speed>
</trkpt>
<trkpt lat="55.822647" lon="26.136303">
<ele>166.345825</ele>
<time>2010-07-17T13:32:56Z</time>
<desc>lat.=55.822647, lon.=26.136303, Alt.=166.345825m. Speed=11.988000m/h.</desc>
<speed>3.330000</speed>
</trkpt>
<trkpt lat="55.822620" lon="26.136301">
<ele>166.431763</ele>
<time>2010-07-17T13:32:57Z</time>
<desc>lat.=55.822620, lon.=26.136301, Alt.=166.431763m. Speed=10.692000m/h.</desc>
<speed>2.970000</speed>
</trkpt>
<trkpt lat="55.822594" lon="26.136297">
<ele>166.400513</ele>
<time>2010-07-17T13:32:58Z</time>
<desc>lat.=55.822594, lon.=26.136297, Alt.=166.400513m. Speed=9.936000m/h.</desc>
<speed>2.760000</speed>
</trkpt>
<trkpt lat="55.822571" lon="26.136297">
<ele>166.291138</ele>
<time>2010-07-17T13:32:59Z</time>
<desc>lat.=55.822571, lon.=26.136297, Alt.=166.291138m. Speed=10.044000m/h.</desc>
<speed>2.790000</speed>
</trkpt>
<trkpt lat="55.822548" lon="26.136305">
<ele>166.298950</ele>
<time>2010-07-17T13:33:00Z</time>
<desc>lat.=55.822548, lon.=26.136305, Alt.=166.298950m. Speed=7.632000m/h.</desc>
<speed>2.120000</speed>
</trkpt>
<trkpt lat="55.822525" lon="26.136309">
<ele>166.341919</ele>
<time>2010-07-17T13:33:01Z</time>
<desc>lat.=55.822525, lon.=26.136309, Alt.=166.341919m. Speed=6.372000m/h.</desc>
<speed>1.770000</speed>
</trkpt>
<trkpt lat="55.822510" lon="26.136307">
<ele>166.537231</ele>
<time>2010-07-17T13:33:02Z</time>
<desc>lat.=55.822510, lon.=26.136307, Alt.=166.537231m. Speed=5.724000m/h.</desc>
<speed>1.590000</speed>
</trkpt>
<trkpt lat="55.822502" lon="26.136307">
<ele>166.834106</ele>
<time>2010-07-17T13:33:03Z</time>
<desc>lat.=55.822502, lon.=26.136307, Alt.=166.834106m. Speed=2.052000m/h.</desc>
<speed>0.570000</speed>
</trkpt>
<trkpt lat="55.822502" lon="26.136309">
<ele>166.990356</ele>
<time>2010-07-17T13:33:04Z</time>
<desc>lat.=55.822502, lon.=26.136309, Alt.=166.990356m. Speed=1.116000m/h.</desc>
<speed>0.310000</speed>
</trkpt>
<trkpt lat="55.822498" lon="26.136307">
<ele>167.216919</ele>
<time>2010-07-17T13:33:05Z</time>
<desc>lat.=55.822498, lon.=26.136307, Alt.=167.216919m. Speed=0.432000m/h.</desc>
<speed>0.120000</speed>
</trkpt>
<trkpt lat="55.822498" lon="26.136305">
<ele>167.271606</ele>
<time>2010-07-17T13:33:06Z</time>
<desc>lat.=55.822498, lon.=26.136305, Alt.=167.271606m. Speed=0.072000m/h.</desc>
<speed>0.020000</speed>
</trkpt>
<trkpt lat="55.822495" lon="26.136305">
<ele>167.396606</ele>
<time>2010-07-17T13:33:07Z</time>
<desc>lat.=55.822495, lon.=26.136305, Alt.=167.396606m. Speed=0.072000m/h.</desc>
<speed>0.020000</speed>
</trkpt>
<trkpt lat="55.822498" lon="26.136305">
<ele>167.470825</ele>
<time>2010-07-17T13:33:08Z</time>
<desc>lat.=55.822498, lon.=26.136305, Alt.=167.470825m. Speed=0.144000m/h.</desc>
<speed>0.040000</speed>
</trkpt>
<trkpt lat="55.822498" lon="26.136305">
<ele>167.525513</ele>
<time>2010-07-17T13:33:09Z</time>
<desc>lat.=55.822498, lon.=26.136305, Alt.=167.525513m. Speed=0.144000m/h.</desc>
<speed>0.040000</speed>
</trkpt>
<trkpt lat="55.822498" lon="26.136305">
<ele>167.572388</ele>
<time>2010-07-17T13:33:10Z</time>
<desc>lat.=55.822498, lon.=26.136305, Alt.=167.572388m. Speed=0.072000m/h.</desc>
<speed>0.020000</speed>
</trkpt>
<trkpt lat="55.822498" lon="26.136305">
<ele>167.603638</ele>
<time>2010-07-17T13:33:11Z</time>
<desc>lat.=55.822498, lon.=26.136305, Alt.=167.603638m. Speed=0.036000m/h.</desc>
<speed>0.010000</speed>
</trkpt>
<trkpt lat="55.822498" lon="26.136305">
<ele>167.607544</ele>
<time>2010-07-17T13:33:12Z</time>
<desc>lat.=55.822498, lon.=26.136305, Alt.=167.607544m. Speed=0.000000m/h.</desc>
<speed>0.000000</speed>
</trkpt>
<trkpt lat="55.822498" lon="26.136305">
<ele>167.603638</ele>
<time>2010-07-17T13:33:13Z</time>
<desc>lat.=55.822498, lon.=26.136305, Alt.=167.603638m. Speed=0.000000m/h.</desc>
<speed>0.000000</speed>
</trkpt>
<trkpt lat="55.822498" lon="26.136305">
<ele>167.591919</ele>
<time>2010-07-17T13:33:14Z</time>
<desc>lat.=55.822498, lon.=26.136305, Alt.=167.591919m. Speed=0.000000m/h.</desc>
<speed>0.000000</speed>
</trkpt>
<trkpt lat="55.822498" lon="26.136305">
<ele>167.591919</ele>
<time>2010-07-17T13:33:15Z</time>
<desc>lat.=55.822498, lon.=26.136305, Alt.=167.591919m. Speed=0.108000m/h.</desc>
<speed>0.030000</speed>
</trkpt>
<trkpt lat="55.822498" lon="26.136305">
<ele>167.603638</ele>
<time>2010-07-17T13:33:16Z</time>
<desc>lat.=55.822498, lon.=26.136305, Alt.=167.603638m. Speed=0.972000m/h.</desc>
<speed>0.270000</speed>
</trkpt>
<trkpt lat="55.822495" lon="26.136305">
<ele>167.591919</ele>
<time>2010-07-17T13:33:17Z</time>
<desc>lat.=55.822495, lon.=26.136305, Alt.=167.591919m. Speed=0.684000m/h.</desc>
<speed>0.190000</speed>
</trkpt>
<trkpt lat="55.822495" lon="26.136303">
<ele>167.525513</ele>
<time>2010-07-17T13:33:18Z</time>
<desc>lat.=55.822495, lon.=26.136303, Alt.=167.525513m. Speed=0.108000m/h.</desc>
<speed>0.030000</speed>
</trkpt>
<trkpt lat="55.822491" lon="26.136305">
<ele>167.470825</ele>
<time>2010-07-17T13:33:19Z</time>
<desc>lat.=55.822491, lon.=26.136305, Alt.=167.470825m. Speed=0.036000m/h.</desc>
<speed>0.010000</speed>
</trkpt>
<trkpt lat="55.822491" lon="26.136305">
<ele>167.482544</ele>
<time>2010-07-17T13:33:20Z</time>
<desc>lat.=55.822491, lon.=26.136305, Alt.=167.482544m. Speed=0.144000m/h.</desc>
<speed>0.040000</speed>
</trkpt>
<trkpt lat="55.822491" lon="26.136303">
<ele>167.490356</ele>
<time>2010-07-17T13:33:21Z</time>
<desc>lat.=55.822491, lon.=26.136303, Alt.=167.490356m. Speed=0.072000m/h.</desc>
<speed>0.020000</speed>
</trkpt>
<trkpt lat="55.822491" lon="26.136303">
<ele>167.494263</ele>
<time>2010-07-17T13:33:22Z</time>
<desc>lat.=55.822491, lon.=26.136303, Alt.=167.494263m. Speed=0.000000m/h.</desc>
<speed>0.000000</speed>
</trkpt>
<trkpt lat="55.822491" lon="26.136303">
<ele>167.498169</ele>
<time>2010-07-17T13:33:23Z</time>
<desc>lat.=55.822491, lon.=26.136303, Alt.=167.498169m. Speed=0.036000m/h.</desc>
<speed>0.010000</speed>
</trkpt>
<trkpt lat="55.822491" lon="26.136303">
<ele>167.502075</ele>
<time>2010-07-17T13:33:24Z</time>
<desc>lat.=55.822491, lon.=26.136303, Alt.=167.502075m. Speed=0.144000m/h.</desc>
<speed>0.040000</speed>
</trkpt>
<trkpt lat="55.822491" lon="26.136303">
<ele>167.502075</ele>
<time>2010-07-17T13:33:25Z</time>
<desc>lat.=55.822491, lon.=26.136303, Alt.=167.502075m. Speed=0.036000m/h.</desc>
<speed>0.010000</speed>
</trkpt>
<trkpt lat="55.822491" lon="26.136303">
<ele>167.494263</ele>
<time>2010-07-17T13:33:26Z</time>
<desc>lat.=55.822491, lon.=26.136303, Alt.=167.494263m. Speed=0.000000m/h.</desc>
<speed>0.000000</speed>
</trkpt>
<trkpt lat="55.822491" lon="26.136303">
<ele>167.490356</ele>
<time>2010-07-17T13:33:27Z</time>
<desc>lat.=55.822491, lon.=26.136303, Alt.=167.490356m. Speed=0.000000m/h.</desc>
<speed>0.000000</speed>
</trkpt>
<trkpt lat="55.822491" lon="26.136303">
<ele>167.498169</ele>
<time>2010-07-17T13:33:28Z</time>
<desc>lat.=55.822491, lon.=26.136303, Alt.=167.498169m. Speed=0.000000m/h.</desc>
<speed>0.000000</speed>
</trkpt>
<trkpt lat="55.822491" lon="26.136303">
<ele>167.494263</ele>
<time>2010-07-17T13:33:29Z</time>
<desc>lat.=55.822491, lon.=26.136303, Alt.=167.494263m. Speed=0.000000m/h.</desc>
<speed>0.000000</speed>
</trkpt>
<trkpt lat="55.822491" lon="26.136303">
<ele>167.498169</ele>
<time>2010-07-17T13:33:30Z</time>
<desc>lat.=55.822491, lon.=26.136303, Alt.=167.498169m. Speed=0.036000m/h.</desc>
<speed>0.010000</speed>
</trkpt>
<trkpt lat="55.822491" lon="26.136303">
<ele>167.486450</ele>
<time>2010-07-17T13:33:31Z</time>
<desc>lat.=55.822491, lon.=26.136303, Alt.=167.486450m. Speed=0.000000m/h.</desc>
<speed>0.000000</speed>
</trkpt>
<trkpt lat="55.822491" lon="26.136303">
<ele>167.482544</ele>
<time>2010-07-17T13:33:32Z</time>
<desc>lat.=55.822491, lon.=26.136303, Alt.=167.482544m. Speed=0.036000m/h.</desc>
<speed>0.010000</speed>
</trkpt>
<trkpt lat="55.822491" lon="26.136303">
<ele>167.443481</ele>
<time>2010-07-17T13:33:33Z</time>
<desc>lat.=55.822491, lon.=26.136303, Alt.=167.443481m. Speed=0.216000m/h.</desc>
<speed>0.060000</speed>
</trkpt>
<trkpt lat="55.822491" lon="26.136301">
<ele>167.443481</ele>
<time>2010-07-17T13:33:34Z</time>
<desc>lat.=55.822491, lon.=26.136301, Alt.=167.443481m. Speed=0.108000m/h.</desc>
<speed>0.030000</speed>
</trkpt>
<trkpt lat="55.822491" lon="26.136303">
<ele>167.443481</ele>
<time>2010-07-17T13:33:35Z</time>
<desc>lat.=55.822491, lon.=26.136303, Alt.=167.443481m. Speed=0.036000m/h.</desc>
<speed>0.010000</speed>
</trkpt>
<trkpt lat="55.822491" lon="26.136303">
<ele>167.435669</ele>
<time>2010-07-17T13:33:36Z</time>
<desc>lat.=55.822491, lon.=26.136303, Alt.=167.435669m. Speed=0.036000m/h.</desc>
<speed>0.010000</speed>
</trkpt>
<trkpt lat="55.822491" lon="26.136303">
<ele>167.427856</ele>
<time>2010-07-17T13:33:37Z</time>
<desc>lat.=55.822491, lon.=26.136303, Alt.=167.427856m. Speed=0.000000m/h.</desc>
<speed>0.000000</speed>
</trkpt>
<trkpt lat="55.822491" lon="26.136303">
<ele>167.416138</ele>
<time>2010-07-17T13:33:38Z</time>
<desc>lat.=55.822491, lon.=26.136303, Alt.=167.416138m. Speed=0.036000m/h.</desc>
<speed>0.010000</speed>
</trkpt>
<trkpt lat="55.822491" lon="26.136303">
<ele>167.416138</ele>
<time>2010-07-17T13:33:39Z</time>
<desc>lat.=55.822491, lon.=26.136303, Alt.=167.416138m. Speed=0.108000m/h.</desc>
<speed>0.030000</speed>
</trkpt>
<trkpt lat="55.822491" lon="26.136303">
<ele>167.416138</ele>
<time>2010-07-17T13:33:40Z</time>
<desc>lat.=55.822491, lon.=26.136303, Alt.=167.416138m. Speed=0.036000m/h.</desc>
<speed>0.010000</speed>
</trkpt>
<trkpt lat="55.822491" lon="26.136303">
<ele>167.416138</ele>
<time>2010-07-17T13:33:41Z</time>
<desc>lat.=55.822491, lon.=26.136303, Alt.=167.416138m. Speed=0.000000m/h.</desc>
<speed>0.000000</speed>
</trkpt>
<trkpt lat="55.822491" lon="26.136303">
<ele>167.416138</ele>
<time>2010-07-17T13:33:42Z</time>
<desc>lat.=55.822491, lon.=26.136303, Alt.=167.416138m. Speed=0.000000m/h.</desc>
<speed>0.000000</speed>
</trkpt>
<trkpt lat="55.822491" lon="26.136303">
<ele>167.416138</ele>
<time>2010-07-17T13:33:43Z</time>
<desc>lat.=55.822491, lon.=26.136303, Alt.=167.416138m. Speed=0.036000m/h.</desc>
<speed>0.010000</speed>
</trkpt>
<trkpt lat="55.822491" lon="26.136303">
<ele>167.416138</ele>
<time>2010-07-17T13:33:44Z</time>
<desc>lat.=55.822491, lon.=26.136303, Alt.=167.416138m. Speed=0.036000m/h.</desc>
<speed>0.010000</speed>
</trkpt>
<trkpt lat="55.822491" lon="26.136303">
<ele>167.412231</ele>
<time>2010-07-17T13:33:45Z</time>
<desc>lat.=55.822491, lon.=26.136303, Alt.=167.412231m. Speed=0.036000m/h.</desc>
<speed>0.010000</speed>
</trkpt>
<trkpt lat="55.822491" lon="26.136303">
<ele>167.412231</ele>
<time>2010-07-17T13:33:46Z</time>
<desc>lat.=55.822491, lon.=26.136303, Alt.=167.412231m. Speed=0.072000m/h.</desc>
<speed>0.020000</speed>
</trkpt>
<trkpt lat="55.822491" lon="26.136303">
<ele>167.416138</ele>
<time>2010-07-17T13:33:47Z</time>
<desc>lat.=55.822491, lon.=26.136303, Alt.=167.416138m. Speed=0.036000m/h.</desc>
<speed>0.010000</speed>
</trkpt>
<trkpt lat="55.822491" lon="26.136303">
<ele>167.420044</ele>
<time>2010-07-17T13:33:48Z</time>
<desc>lat.=55.822491, lon.=26.136303, Alt.=167.420044m. Speed=0.000000m/h.</desc>
<speed>0.000000</speed>
</trkpt>
<trkpt lat="55.822491" lon="26.136303">
<ele>167.416138</ele>
<time>2010-07-17T13:33:49Z</time>
<desc>lat.=55.822491, lon.=26.136303, Alt.=167.416138m. Speed=0.036000m/h.</desc>
<speed>0.010000</speed>
</trkpt>
<trkpt lat="55.822491" lon="26.136303">
<ele>167.420044</ele>
<time>2010-07-17T13:33:50Z</time>
<desc>lat.=55.822491, lon.=26.136303, Alt.=167.420044m. Speed=0.144000m/h.</desc>
<speed>0.040000</speed>
</trkpt>
<trkpt lat="55.822491" lon="26.136303">
<ele>167.416138</ele>
<time>2010-07-17T13:33:51Z</time>
<desc>lat.=55.822491, lon.=26.136303, Alt.=167.416138m. Speed=0.036000m/h.</desc>
<speed>0.010000</speed>
</trkpt>
<trkpt lat="55.822491" lon="26.136301">
<ele>167.416138</ele>
<time>2010-07-17T13:33:52Z</time>
<desc>lat.=55.822491, lon.=26.136301, Alt.=167.416138m. Speed=0.036000m/h.</desc>
<speed>0.010000</speed>
</trkpt>
<trkpt lat="55.822491" lon="26.136301">
<ele>167.416138</ele>
<time>2010-07-17T13:33:53Z</time>
<desc>lat.=55.822491, lon.=26.136301, Alt.=167.416138m. Speed=0.072000m/h.</desc>
<speed>0.020000</speed>
</trkpt>
<trkpt lat="55.822491" lon="26.136301">
<ele>167.416138</ele>
<time>2010-07-17T13:33:54Z</time>
<desc>lat.=55.822491, lon.=26.136301, Alt.=167.416138m. Speed=0.072000m/h.</desc>
<speed>0.020000</speed>
</trkpt>
<trkpt lat="55.822491" lon="26.136301">
<ele>167.416138</ele>
<time>2010-07-17T13:33:55Z</time>
<desc>lat.=55.822491, lon.=26.136301, Alt.=167.416138m. Speed=0.036000m/h.</desc>
<speed>0.010000</speed>
</trkpt>
<trkpt lat="55.822491" lon="26.136301">
<ele>167.416138</ele>
<time>2010-07-17T13:33:56Z</time>
<desc>lat.=55.822491, lon.=26.136301, Alt.=167.416138m. Speed=0.036000m/h.</desc>
<speed>0.010000</speed>
</trkpt>
<trkpt lat="55.822491" lon="26.136301">
<ele>167.416138</ele>
<time>2010-07-17T13:33:57Z</time>
<desc>lat.=55.822491, lon.=26.136301, Alt.=167.416138m. Speed=0.000000m/h.</desc>
<speed>0.000000</speed>
</trkpt>
<trkpt lat="55.822491" lon="26.136301">
<ele>167.416138</ele>
<time>2010-07-17T13:33:58Z</time>
<desc>lat.=55.822491, lon.=26.136301, Alt.=167.416138m. Speed=0.000000m/h.</desc>
<speed>0.000000</speed>
</trkpt>
<trkpt lat="55.822491" lon="26.136301">
<ele>167.420044</ele>
<time>2010-07-17T13:33:59Z</time>
<desc>lat.=55.822491, lon.=26.136301, Alt.=167.420044m. Speed=0.000000m/h.</desc>
<speed>0.000000</speed>
</trkpt>
<trkpt lat="55.822491" lon="26.136301">
<ele>167.420044</ele>
<time>2010-07-17T13:34:00Z</time>
<desc>lat.=55.822491, lon.=26.136301, Alt.=167.420044m. Speed=0.036000m/h.</desc>
<speed>0.010000</speed>
</trkpt>
<trkpt lat="55.822491" lon="26.136301">
<ele>167.423950</ele>
<time>2010-07-17T13:34:01Z</time>
<desc>lat.=55.822491, lon.=26.136301, Alt.=167.423950m. Speed=0.072000m/h.</desc>
<speed>0.020000</speed>
</trkpt>
<trkpt lat="55.822491" lon="26.136301">
<ele>167.427856</ele>
<time>2010-07-17T13:34:02Z</time>
<desc>lat.=55.822491, lon.=26.136301, Alt.=167.427856m. Speed=0.072000m/h.</desc>
<speed>0.020000</speed>
</trkpt>
<trkpt lat="55.822491" lon="26.136301">
<ele>167.431763</ele>
<time>2010-07-17T13:34:03Z</time>
<desc>lat.=55.822491, lon.=26.136301, Alt.=167.431763m. Speed=0.000000m/h.</desc>
<speed>0.000000</speed>
</trkpt>
<trkpt lat="55.822491" lon="26.136301">
<ele>167.431763</ele>
<time>2010-07-17T13:34:04Z</time>
<desc>lat.=55.822491, lon.=26.136301, Alt.=167.431763m. Speed=0.000000m/h.</desc>
<speed>0.000000</speed>
</trkpt>
<trkpt lat="55.822491" lon="26.136301">
<ele>167.435669</ele>
<time>2010-07-17T13:34:05Z</time>
<desc>lat.=55.822491, lon.=26.136301, Alt.=167.435669m. Speed=0.000000m/h.</desc>
<speed>0.000000</speed>
</trkpt>
<trkpt lat="55.822491" lon="26.136301">
<ele>167.435669</ele>
<time>2010-07-17T13:34:06Z</time>
<desc>lat.=55.822491, lon.=26.136301, Alt.=167.435669m. Speed=0.360000m/h.</desc>
<speed>0.100000</speed>
</trkpt>
<trkpt lat="55.822491" lon="26.136303">
<ele>167.431763</ele>
<time>2010-07-17T13:34:07Z</time>
<desc>lat.=55.822491, lon.=26.136303, Alt.=167.431763m. Speed=0.900000m/h.</desc>
<speed>0.250000</speed>
</trkpt>
<trkpt lat="55.822491" lon="26.136303">
<ele>167.431763</ele>
<time>2010-07-17T13:34:08Z</time>
<desc>lat.=55.822491, lon.=26.136303, Alt.=167.431763m. Speed=0.072000m/h.</desc>
<speed>0.020000</speed>
</trkpt>
<trkpt lat="55.822491" lon="26.136303">
<ele>167.431763</ele>
<time>2010-07-17T13:34:09Z</time>
<desc>lat.=55.822491, lon.=26.136303, Alt.=167.431763m. Speed=0.036000m/h.</desc>
<speed>0.010000</speed>
</trkpt>
<trkpt lat="55.822491" lon="26.136303">
<ele>167.431763</ele>
<time>2010-07-17T13:34:10Z</time>
<desc>lat.=55.822491, lon.=26.136303, Alt.=167.431763m. Speed=0.036000m/h.</desc>
<speed>0.010000</speed>
</trkpt>
<trkpt lat="55.822491" lon="26.136303">
<ele>167.431763</ele>
<time>2010-07-17T13:34:11Z</time>
<desc>lat.=55.822491, lon.=26.136303, Alt.=167.431763m. Speed=0.036000m/h.</desc>
<speed>0.010000</speed>
</trkpt>
<trkpt lat="55.822491" lon="26.136303">
<ele>167.431763</ele>
<time>2010-07-17T13:34:12Z</time>
<desc>lat.=55.822491, lon.=26.136303, Alt.=167.431763m. Speed=0.000000m/h.</desc>
<speed>0.000000</speed>
</trkpt>
<trkpt lat="55.822491" lon="26.136303">
<ele>167.431763</ele>
<time>2010-07-17T13:34:13Z</time>
<desc>lat.=55.822491, lon.=26.136303, Alt.=167.431763m. Speed=0.000000m/h.</desc>
<speed>0.000000</speed>
</trkpt>
<trkpt lat="55.822491" lon="26.136303">
<ele>167.431763</ele>
<time>2010-07-17T13:34:14Z</time>
<desc>lat.=55.822491, lon.=26.136303, Alt.=167.431763m. Speed=0.000000m/h.</desc>
<speed>0.000000</speed>
</trkpt>
<trkpt lat="55.822491" lon="26.136303">
<ele>167.431763</ele>
<time>2010-07-17T13:34:15Z</time>
<desc>lat.=55.822491, lon.=26.136303, Alt.=167.431763m. Speed=0.000000m/h.</desc>
<speed>0.000000</speed>
</trkpt>
<trkpt lat="55.822491" lon="26.136303">
<ele>167.435669</ele>
<time>2010-07-17T13:34:16Z</time>
<desc>lat.=55.822491, lon.=26.136303, Alt.=167.435669m. Speed=0.000000m/h.</desc>
<speed>0.000000</speed>
</trkpt>
<trkpt lat="55.822491" lon="26.136303">
<ele>167.435669</ele>
<time>2010-07-17T13:34:17Z</time>
<desc>lat.=55.822491, lon.=26.136303, Alt.=167.435669m. Speed=0.000000m/h.</desc>
<speed>0.000000</speed>
</trkpt>
<trkpt lat="55.822491" lon="26.136303">
<ele>167.435669</ele>
<time>2010-07-17T13:34:18Z</time>
<desc>lat.=55.822491, lon.=26.136303, Alt.=167.435669m. Speed=0.000000m/h.</desc>
<speed>0.000000</speed>
</trkpt>
<trkpt lat="55.822491" lon="26.136303">
<ele>167.439575</ele>
<time>2010-07-17T13:34:19Z</time>
<desc>lat.=55.822491, lon.=26.136303, Alt.=167.439575m. Speed=0.036000m/h.</desc>
<speed>0.010000</speed>
</trkpt>
<trkpt lat="55.822491" lon="26.136303">
<ele>167.439575</ele>
<time>2010-07-17T13:34:20Z</time>
<desc>lat.=55.822491, lon.=26.136303, Alt.=167.439575m. Speed=0.000000m/h.</desc>
<speed>0.000000</speed>
</trkpt>
<trkpt lat="55.822491" lon="26.136303">
<ele>167.439575</ele>
<time>2010-07-17T13:34:21Z</time>
<desc>lat.=55.822491, lon.=26.136303, Alt.=167.439575m. Speed=0.000000m/h.</desc>
<speed>0.000000</speed>
</trkpt>
<trkpt lat="55.822491" lon="26.136303">
<ele>167.439575</ele>
<time>2010-07-17T13:34:22Z</time>
<desc>lat.=55.822491, lon.=26.136303, Alt.=167.439575m. Speed=0.000000m/h.</desc>
<speed>0.000000</speed>
</trkpt>
<trkpt lat="55.822491" lon="26.136303">
<ele>167.443481</ele>
<time>2010-07-17T13:34:23Z</time>
<desc>lat.=55.822491, lon.=26.136303, Alt.=167.443481m. Speed=0.000000m/h.</desc>
<speed>0.000000</speed>
</trkpt>
<trkpt lat="55.822491" lon="26.136303">
<ele>167.443481</ele>
<time>2010-07-17T13:34:24Z</time>
<desc>lat.=55.822491, lon.=26.136303, Alt.=167.443481m. Speed=0.000000m/h.</desc>
<speed>0.000000</speed>
</trkpt>
<trkpt lat="55.822491" lon="26.136303">
<ele>167.443481</ele>
<time>2010-07-17T13:34:25Z</time>
<desc>lat.=55.822491, lon.=26.136303, Alt.=167.443481m. Speed=0.000000m/h.</desc>
<speed>0.000000</speed>
</trkpt>
<trkpt lat="55.822491" lon="26.136303">
<ele>167.443481</ele>
<time>2010-07-17T13:34:26Z</time>
<desc>lat.=55.822491, lon.=26.136303, Alt.=167.443481m. Speed=0.000000m/h.</desc>
<speed>0.000000</speed>
</trkpt>
<trkpt lat="55.822491" lon="26.136303">
<ele>167.443481</ele>
<time>2010-07-17T13:34:27Z</time>
<desc>lat.=55.822491, lon.=26.136303, Alt.=167.443481m. Speed=0.000000m/h.</desc>
<speed>0.000000</speed>
</trkpt>
<trkpt lat="55.822491" lon="26.136303">
<ele>167.443481</ele>
<time>2010-07-17T13:34:28Z</time>
<desc>lat.=55.822491, lon.=26.136303, Alt.=167.443481m. Speed=0.000000m/h.</desc>
<speed>0.000000</speed>
</trkpt>
<trkpt lat="55.822491" lon="26.136303">
<ele>167.443481</ele>
<time>2010-07-17T13:34:29Z</time>
<desc>lat.=55.822491, lon.=26.136303, Alt.=167.443481m. Speed=0.000000m/h.</desc>
<speed>0.000000</speed>
</trkpt>
<trkpt lat="55.822491" lon="26.136303">
<ele>167.443481</ele>
<time>2010-07-17T13:34:30Z</time>
<desc>lat.=55.822491, lon.=26.136303, Alt.=167.443481m. Speed=0.036000m/h.</desc>
<speed>0.010000</speed>
</trkpt>
<trkpt lat="55.822491" lon="26.136303">
<ele>167.443481</ele>
<time>2010-07-17T13:34:31Z</time>
<desc>lat.=55.822491, lon.=26.136303, Alt.=167.443481m. Speed=0.000000m/h.</desc>
<speed>0.000000</speed>
</trkpt>
<trkpt lat="55.822491" lon="26.136303">
<ele>167.443481</ele>
<time>2010-07-17T13:34:32Z</time>
<desc>lat.=55.822491, lon.=26.136303, Alt.=167.443481m. Speed=0.000000m/h.</desc>
<speed>0.000000</speed>
</trkpt>
<trkpt lat="55.822491" lon="26.136305">
<ele>167.443481</ele>
<time>2010-07-17T13:34:33Z</time>
<desc>lat.=55.822491, lon.=26.136305, Alt.=167.443481m. Speed=0.036000m/h.</desc>
<speed>0.010000</speed>
</trkpt>
<trkpt lat="55.822491" lon="26.136305">
<ele>167.439575</ele>
<time>2010-07-17T13:34:34Z</time>
<desc>lat.=55.822491, lon.=26.136305, Alt.=167.439575m. Speed=0.036000m/h.</desc>
<speed>0.010000</speed>
</trkpt>
<trkpt lat="55.822491" lon="26.136305">
<ele>167.439575</ele>
<time>2010-07-17T13:34:35Z</time>
<desc>lat.=55.822491, lon.=26.136305, Alt.=167.439575m. Speed=0.036000m/h.</desc>
<speed>0.010000</speed>
</trkpt>
<trkpt lat="55.822491" lon="26.136305">
<ele>167.439575</ele>
<time>2010-07-17T13:34:36Z</time>
<desc>lat.=55.822491, lon.=26.136305, Alt.=167.439575m. Speed=0.072000m/h.</desc>
<speed>0.020000</speed>
</trkpt>
<trkpt lat="55.822491" lon="26.136305">
<ele>167.443481</ele>
<time>2010-07-17T13:34:37Z</time>
<desc>lat.=55.822491, lon.=26.136305, Alt.=167.443481m. Speed=0.612000m/h.</desc>
<speed>0.170000</speed>
</trkpt>
<trkpt lat="55.822491" lon="26.136305">
<ele>167.443481</ele>
<time>2010-07-17T13:34:38Z</time>
<desc>lat.=55.822491, lon.=26.136305, Alt.=167.443481m. Speed=0.900000m/h.</desc>
<speed>0.250000</speed>
</trkpt>
<trkpt lat="55.822491" lon="26.136305">
<ele>167.439575</ele>
<time>2010-07-17T13:34:39Z</time>
<desc>lat.=55.822491, lon.=26.136305, Alt.=167.439575m. Speed=0.180000m/h.</desc>
<speed>0.050000</speed>
</trkpt>
<trkpt lat="55.822495" lon="26.136305">
<ele>167.427856</ele>
<time>2010-07-17T13:34:40Z</time>
<desc>lat.=55.822495, lon.=26.136305, Alt.=167.427856m. Speed=0.000000m/h.</desc>
<speed>0.000000</speed>
</trkpt>
<trkpt lat="55.822491" lon="26.136305">
<ele>167.420044</ele>
<time>2010-07-17T13:34:41Z</time>
<desc>lat.=55.822491, lon.=26.136305, Alt.=167.420044m. Speed=0.072000m/h.</desc>
<speed>0.020000</speed>
</trkpt>
<trkpt lat="55.822491" lon="26.136305">
<ele>167.404419</ele>
<time>2010-07-17T13:34:42Z</time>
<desc>lat.=55.822491, lon.=26.136305, Alt.=167.404419m. Speed=0.000000m/h.</desc>
<speed>0.000000</speed>
</trkpt>
<trkpt lat="55.822491" lon="26.136305">
<ele>167.396606</ele>
<time>2010-07-17T13:34:43Z</time>
<desc>lat.=55.822491, lon.=26.136305, Alt.=167.396606m. Speed=0.000000m/h.</desc>
<speed>0.000000</speed>
</trkpt>
<trkpt lat="55.822491" lon="26.136305">
<ele>167.400513</ele>
<time>2010-07-17T13:34:44Z</time>
<desc>lat.=55.822491, lon.=26.136305, Alt.=167.400513m. Speed=0.000000m/h.</desc>
<speed>0.000000</speed>
</trkpt>
<trkpt lat="55.822491" lon="26.136305">
<ele>167.392700</ele>
<time>2010-07-17T13:34:45Z</time>
<desc>lat.=55.822491, lon.=26.136305, Alt.=167.392700m. Speed=0.000000m/h.</desc>
<speed>0.000000</speed>
</trkpt>
<trkpt lat="55.822491" lon="26.136305">
<ele>167.388794</ele>
<time>2010-07-17T13:34:46Z</time>
<desc>lat.=55.822491, lon.=26.136305, Alt.=167.388794m. Speed=0.036000m/h.</desc>
<speed>0.010000</speed>
</trkpt>
<trkpt lat="55.822491" lon="26.136305">
<ele>167.377075</ele>
<time>2010-07-17T13:34:47Z</time>
<desc>lat.=55.822491, lon.=26.136305, Alt.=167.377075m. Speed=0.000000m/h.</desc>
<speed>0.000000</speed>
</trkpt>
<trkpt lat="55.822491" lon="26.136303">
<ele>167.365356</ele>
<time>2010-07-17T13:34:48Z</time>
<desc>lat.=55.822491, lon.=26.136303, Alt.=167.365356m. Speed=0.000000m/h.</desc>
<speed>0.000000</speed>
</trkpt>
<trkpt lat="55.822491" lon="26.136303">
<ele>167.377075</ele>
<time>2010-07-17T13:34:49Z</time>
<desc>lat.=55.822491, lon.=26.136303, Alt.=167.377075m. Speed=0.000000m/h.</desc>
<speed>0.000000</speed>
</trkpt>
<trkpt lat="55.822491" lon="26.136303">
<ele>167.373169</ele>
<time>2010-07-17T13:34:50Z</time>
<desc>lat.=55.822491, lon.=26.136303, Alt.=167.373169m. Speed=0.000000m/h.</desc>
<speed>0.000000</speed>
</trkpt>
<trkpt lat="55.822491" lon="26.136303">
<ele>167.369263</ele>
<time>2010-07-17T13:34:51Z</time>
<desc>lat.=55.822491, lon.=26.136303, Alt.=167.369263m. Speed=0.000000m/h.</desc>
<speed>0.000000</speed>
</trkpt>
<trkpt lat="55.822491" lon="26.136303">
<ele>167.369263</ele>
<time>2010-07-17T13:34:52Z</time>
<desc>lat.=55.822491, lon.=26.136303, Alt.=167.369263m. Speed=0.000000m/h.</desc>
<speed>0.000000</speed>
</trkpt>
<trkpt lat="55.822491" lon="26.136303">
<ele>167.365356</ele>
<time>2010-07-17T13:34:53Z</time>
<desc>lat.=55.822491, lon.=26.136303, Alt.=167.365356m. Speed=0.000000m/h.</desc>
<speed>0.000000</speed>
</trkpt>
<trkpt lat="55.822491" lon="26.136303">
<ele>167.365356</ele>
<time>2010-07-17T13:34:54Z</time>
<desc>lat.=55.822491, lon.=26.136303, Alt.=167.365356m. Speed=0.000000m/h.</desc>
<speed>0.000000</speed>
</trkpt>
<trkpt lat="55.822491" lon="26.136303">
<ele>167.365356</ele>
<time>2010-07-17T13:34:55Z</time>
<desc>lat.=55.822491, lon.=26.136303, Alt.=167.365356m. Speed=0.000000m/h.</desc>
<speed>0.000000</speed>
</trkpt>
<trkpt lat="55.822491" lon="26.136303">
<ele>167.365356</ele>
<time>2010-07-17T13:34:56Z</time>
<desc>lat.=55.822491, lon.=26.136303, Alt.=167.365356m. Speed=0.000000m/h.</desc>
<speed>0.000000</speed>
</trkpt>
<trkpt lat="55.822491" lon="26.136303">
<ele>167.365356</ele>
<time>2010-07-17T13:34:57Z</time>
<desc>lat.=55.822491, lon.=26.136303, Alt.=167.365356m. Speed=0.000000m/h.</desc>
<speed>0.000000</speed>
</trkpt>
<trkpt lat="55.822491" lon="26.136303">
<ele>167.365356</ele>
<time>2010-07-17T13:34:58Z</time>
<desc>lat.=55.822491, lon.=26.136303, Alt.=167.365356m. Speed=0.000000m/h.</desc>
<speed>0.000000</speed>
</trkpt>
<trkpt lat="55.822491" lon="26.136303">
<ele>167.365356</ele>
<time>2010-07-17T13:34:59Z</time>
<desc>lat.=55.822491, lon.=26.136303, Alt.=167.365356m. Speed=0.000000m/h.</desc>
<speed>0.000000</speed>
</trkpt>
<trkpt lat="55.822491" lon="26.136303">
<ele>167.365356</ele>
<time>2010-07-17T13:35:00Z</time>
<desc>lat.=55.822491, lon.=26.136303, Alt.=167.365356m. Speed=0.000000m/h.</desc>
<speed>0.000000</speed>
</trkpt>
<trkpt lat="55.822491" lon="26.136303">
<ele>167.361450</ele>
<time>2010-07-17T13:35:01Z</time>
<desc>lat.=55.822491, lon.=26.136303, Alt.=167.361450m. Speed=0.000000m/h.</desc>
<speed>0.000000</speed>
</trkpt>
<trkpt lat="55.822491" lon="26.136303">
<ele>167.361450</ele>
<time>2010-07-17T13:35:02Z</time>
<desc>lat.=55.822491, lon.=26.136303, Alt.=167.361450m. Speed=0.000000m/h.</desc>
<speed>0.000000</speed>
</trkpt>
<trkpt lat="55.822491" lon="26.136303">
<ele>167.361450</ele>
<time>2010-07-17T13:35:03Z</time>
<desc>lat.=55.822491, lon.=26.136303, Alt.=167.361450m. Speed=0.000000m/h.</desc>
<speed>0.000000</speed>
</trkpt>
<trkpt lat="55.822491" lon="26.136303">
<ele>167.361450</ele>
<time>2010-07-17T13:35:04Z</time>
<desc>lat.=55.822491, lon.=26.136303, Alt.=167.361450m. Speed=0.000000m/h.</desc>
<speed>0.000000</speed>
</trkpt>
<trkpt lat="55.822491" lon="26.136303">
<ele>167.361450</ele>
<time>2010-07-17T13:35:05Z</time>
<desc>lat.=55.822491, lon.=26.136303, Alt.=167.361450m. Speed=0.036000m/h.</desc>
<speed>0.010000</speed>
</trkpt>
<trkpt lat="55.822491" lon="26.136301">
<ele>167.361450</ele>
<time>2010-07-17T13:35:06Z</time>
<desc>lat.=55.822491, lon.=26.136301, Alt.=167.361450m. Speed=0.000000m/h.</desc>
<speed>0.000000</speed>
</trkpt>
<trkpt lat="55.822491" lon="26.136301">
<ele>167.357544</ele>
<time>2010-07-17T13:35:07Z</time>
<desc>lat.=55.822491, lon.=26.136301, Alt.=167.357544m. Speed=0.000000m/h.</desc>
<speed>0.000000</speed>
</trkpt>
<trkpt lat="55.822491" lon="26.136301">
<ele>167.357544</ele>
<time>2010-07-17T13:35:08Z</time>
<desc>lat.=55.822491, lon.=26.136301, Alt.=167.357544m. Speed=0.000000m/h.</desc>
<speed>0.000000</speed>
</trkpt>
<trkpt lat="55.822491" lon="26.136301">
<ele>167.353638</ele>
<time>2010-07-17T13:35:09Z</time>
<desc>lat.=55.822491, lon.=26.136301, Alt.=167.353638m. Speed=0.000000m/h.</desc>
<speed>0.000000</speed>
</trkpt>
<trkpt lat="55.822491" lon="26.136301">
<ele>167.349731</ele>
<time>2010-07-17T13:35:10Z</time>
<desc>lat.=55.822491, lon.=26.136301, Alt.=167.349731m. Speed=0.000000m/h.</desc>
<speed>0.000000</speed>
</trkpt>
<trkpt lat="55.822491" lon="26.136301">
<ele>167.349731</ele>
<time>2010-07-17T13:35:11Z</time>
<desc>lat.=55.822491, lon.=26.136301, Alt.=167.349731m. Speed=0.000000m/h.</desc>
<speed>0.000000</speed>
</trkpt>
<trkpt lat="55.822491" lon="26.136301">
<ele>167.345825</ele>
<time>2010-07-17T13:35:12Z</time>
<desc>lat.=55.822491, lon.=26.136301, Alt.=167.345825m. Speed=0.000000m/h.</desc>
<speed>0.000000</speed>
</trkpt>
<trkpt lat="55.822491" lon="26.136301">
<ele>167.345825</ele>
<time>2010-07-17T13:35:13Z</time>
<desc>lat.=55.822491, lon.=26.136301, Alt.=167.345825m. Speed=0.000000m/h.</desc>
<speed>0.000000</speed>
</trkpt>
<trkpt lat="55.822491" lon="26.136301">
<ele>167.345825</ele>
<time>2010-07-17T13:35:14Z</time>
<desc>lat.=55.822491, lon.=26.136301, Alt.=167.345825m. Speed=0.000000m/h.</desc>
<speed>0.000000</speed>
</trkpt>
<trkpt lat="55.822491" lon="26.136301">
<ele>167.345825</ele>
<time>2010-07-17T13:35:15Z</time>
<desc>lat.=55.822491, lon.=26.136301, Alt.=167.345825m. Speed=0.000000m/h.</desc>
<speed>0.000000</speed>
</trkpt>
<trkpt lat="55.822491" lon="26.136301">
<ele>167.345825</ele>
<time>2010-07-17T13:35:16Z</time>
<desc>lat.=55.822491, lon.=26.136301, Alt.=167.345825m. Speed=0.000000m/h.</desc>
<speed>0.000000</speed>
</trkpt>
<trkpt lat="55.822491" lon="26.136301">
<ele>167.341919</ele>
<time>2010-07-17T13:35:17Z</time>
<desc>lat.=55.822491, lon.=26.136301, Alt.=167.341919m. Speed=0.000000m/h.</desc>
<speed>0.000000</speed>
</trkpt>
<trkpt lat="55.822491" lon="26.136301">
<ele>167.341919</ele>
<time>2010-07-17T13:35:18Z</time>
<desc>lat.=55.822491, lon.=26.136301, Alt.=167.341919m. Speed=0.036000m/h.</desc>
<speed>0.010000</speed>
</trkpt>
<trkpt lat="55.822491" lon="26.136301">
<ele>167.341919</ele>
<time>2010-07-17T13:35:19Z</time>
<desc>lat.=55.822491, lon.=26.136301, Alt.=167.341919m. Speed=0.000000m/h.</desc>
<speed>0.000000</speed>
</trkpt>
<trkpt lat="55.822491" lon="26.136301">
<ele>167.341919</ele>
<time>2010-07-17T13:35:20Z</time>
<desc>lat.=55.822491, lon.=26.136301, Alt.=167.341919m. Speed=0.000000m/h.</desc>
<speed>0.000000</speed>
</trkpt>
<trkpt lat="55.822491" lon="26.136301">
<ele>167.341919</ele>
<time>2010-07-17T13:35:21Z</time>
<desc>lat.=55.822491, lon.=26.136301, Alt.=167.341919m. Speed=0.000000m/h.</desc>
<speed>0.000000</speed>
</trkpt>
<trkpt lat="55.822491" lon="26.136301">
<ele>167.341919</ele>
<time>2010-07-17T13:35:22Z</time>
<desc>lat.=55.822491, lon.=26.136301, Alt.=167.341919m. Speed=0.000000m/h.</desc>
<speed>0.000000</speed>
</trkpt>
<trkpt lat="55.822491" lon="26.136301">
<ele>167.341919</ele>
<time>2010-07-17T13:35:23Z</time>
<desc>lat.=55.822491, lon.=26.136301, Alt.=167.341919m. Speed=0.000000m/h.</desc>
<speed>0.000000</speed>
</trkpt>
<trkpt lat="55.822491" lon="26.136301">
<ele>167.338013</ele>
<time>2010-07-17T13:35:24Z</time>
<desc>lat.=55.822491, lon.=26.136301, Alt.=167.338013m. Speed=0.000000m/h.</desc>
<speed>0.000000</speed>
</trkpt>
<trkpt lat="55.822491" lon="26.136301">
<ele>167.338013</ele>
<time>2010-07-17T13:35:25Z</time>
<desc>lat.=55.822491, lon.=26.136301, Alt.=167.338013m. Speed=0.000000m/h.</desc>
<speed>0.000000</speed>
</trkpt>
<trkpt lat="55.822491" lon="26.136301">
<ele>167.334106</ele>
<time>2010-07-17T13:35:26Z</time>
<desc>lat.=55.822491, lon.=26.136301, Alt.=167.334106m. Speed=0.000000m/h.</desc>
<speed>0.000000</speed>
</trkpt>
<trkpt lat="55.822491" lon="26.136301">
<ele>167.330200</ele>
<time>2010-07-17T13:35:27Z</time>
<desc>lat.=55.822491, lon.=26.136301, Alt.=167.330200m. Speed=0.000000m/h.</desc>
<speed>0.000000</speed>
</trkpt>
<trkpt lat="55.822491" lon="26.136301">
<ele>167.330200</ele>
<time>2010-07-17T13:35:28Z</time>
<desc>lat.=55.822491, lon.=26.136301, Alt.=167.330200m. Speed=0.000000m/h.</desc>
<speed>0.000000</speed>
</trkpt>
<trkpt lat="55.822491" lon="26.136301">
<ele>167.330200</ele>
<time>2010-07-17T13:35:29Z</time>
<desc>lat.=55.822491, lon.=26.136301, Alt.=167.330200m. Speed=0.000000m/h.</desc>
<speed>0.000000</speed>
</trkpt>
<trkpt lat="55.822491" lon="26.136301">
<ele>167.326294</ele>
<time>2010-07-17T13:35:30Z</time>
<desc>lat.=55.822491, lon.=26.136301, Alt.=167.326294m. Speed=0.036000m/h.</desc>
<speed>0.010000</speed>
</trkpt>
<trkpt lat="55.822491" lon="26.136301">
<ele>167.326294</ele>
<time>2010-07-17T13:35:31Z</time>
<desc>lat.=55.822491, lon.=26.136301, Alt.=167.326294m. Speed=0.000000m/h.</desc>
<speed>0.000000</speed>
</trkpt>
<trkpt lat="55.822487" lon="26.136301">
<ele>167.322388</ele>
<time>2010-07-17T13:35:32Z</time>
<desc>lat.=55.822487, lon.=26.136301, Alt.=167.322388m. Speed=0.000000m/h.</desc>
<speed>0.000000</speed>
</trkpt>
<trkpt lat="55.822491" lon="26.136301">
<ele>167.314575</ele>
<time>2010-07-17T13:35:33Z</time>
<desc>lat.=55.822491, lon.=26.136301, Alt.=167.314575m. Speed=0.000000m/h.</desc>
<speed>0.000000</speed>
</trkpt>
<trkpt lat="55.822487" lon="26.136301">
<ele>167.310669</ele>
<time>2010-07-17T13:35:34Z</time>
<desc>lat.=55.822487, lon.=26.136301, Alt.=167.310669m. Speed=0.000000m/h.</desc>
<speed>0.000000</speed>
</trkpt>
<trkpt lat="55.822487" lon="26.136301">
<ele>167.310669</ele>
<time>2010-07-17T13:35:35Z</time>
<desc>lat.=55.822487, lon.=26.136301, Alt.=167.310669m. Speed=0.000000m/h.</desc>
<speed>0.000000</speed>
</trkpt>
<trkpt lat="55.822487" lon="26.136301">
<ele>167.306763</ele>
<time>2010-07-17T13:35:36Z</time>
<desc>lat.=55.822487, lon.=26.136301, Alt.=167.306763m. Speed=0.000000m/h.</desc>
<speed>0.000000</speed>
</trkpt>
<trkpt lat="55.822487" lon="26.136301">
<ele>167.306763</ele>
<time>2010-07-17T13:35:37Z</time>
<desc>lat.=55.822487, lon.=26.136301, Alt.=167.306763m. Speed=0.036000m/h.</desc>
<speed>0.010000</speed>
</trkpt>
<trkpt lat="55.822487" lon="26.136301">
<ele>167.302856</ele>
<time>2010-07-17T13:35:38Z</time>
<desc>lat.=55.822487, lon.=26.136301, Alt.=167.302856m. Speed=0.036000m/h.</desc>
<speed>0.010000</speed>
</trkpt>
<trkpt lat="55.822487" lon="26.136301">
<ele>167.302856</ele>
<time>2010-07-17T13:35:39Z</time>
<desc>lat.=55.822487, lon.=26.136301, Alt.=167.302856m. Speed=0.072000m/h.</desc>
<speed>0.020000</speed>
</trkpt>
<trkpt lat="55.822487" lon="26.136301">
<ele>167.298950</ele>
<time>2010-07-17T13:35:40Z</time>
<desc>lat.=55.822487, lon.=26.136301, Alt.=167.298950m. Speed=0.000000m/h.</desc>
<speed>0.000000</speed>
</trkpt>
<trkpt lat="55.822487" lon="26.136301">
<ele>167.298950</ele>
<time>2010-07-17T13:35:41Z</time>
<desc>lat.=55.822487, lon.=26.136301, Alt.=167.298950m. Speed=0.324000m/h.</desc>
<speed>0.090000</speed>
</trkpt>
<trkpt lat="55.822487" lon="26.136301">
<ele>167.298950</ele>
<time>2010-07-17T13:35:42Z</time>
<desc>lat.=55.822487, lon.=26.136301, Alt.=167.298950m. Speed=0.072000m/h.</desc>
<speed>0.020000</speed>
</trkpt>
<trkpt lat="55.822487" lon="26.136301">
<ele>167.298950</ele>
<time>2010-07-17T13:35:43Z</time>
<desc>lat.=55.822487, lon.=26.136301, Alt.=167.298950m. Speed=0.180000m/h.</desc>
<speed>0.050000</speed>
</trkpt>
<trkpt lat="55.822487" lon="26.136301">
<ele>167.298950</ele>
<time>2010-07-17T13:35:44Z</time>
<desc>lat.=55.822487, lon.=26.136301, Alt.=167.298950m. Speed=1.584000m/h.</desc>
<speed>0.440000</speed>
</trkpt>
<trkpt lat="55.822483" lon="26.136303">
<ele>167.298950</ele>
<time>2010-07-17T13:35:45Z</time>
<desc>lat.=55.822483, lon.=26.136303, Alt.=167.298950m. Speed=5.328000m/h.</desc>
<speed>1.480000</speed>
</trkpt>
<trkpt lat="55.822464" lon="26.136305">
<ele>167.474731</ele>
<time>2010-07-17T13:35:46Z</time>
<desc>lat.=55.822464, lon.=26.136305, Alt.=167.474731m. Speed=10.188000m/h.</desc>
<speed>2.830000</speed>
</trkpt>
<trkpt lat="55.822430" lon="26.136305">
<ele>167.509888</ele>
<time>2010-07-17T13:35:47Z</time>
<desc>lat.=55.822430, lon.=26.136305, Alt.=167.509888m. Speed=12.816000m/h.</desc>
<speed>3.560000</speed>
</trkpt>
<trkpt lat="55.822395" lon="26.136305">
<ele>167.380981</ele>
<time>2010-07-17T13:35:48Z</time>
<desc>lat.=55.822395, lon.=26.136305, Alt.=167.380981m. Speed=14.616000m/h.</desc>
<speed>4.060000</speed>
</trkpt>
<trkpt lat="55.822350" lon="26.136297">
<ele>167.263794</ele>
<time>2010-07-17T13:35:49Z</time>
<desc>lat.=55.822350, lon.=26.136297, Alt.=167.263794m. Speed=15.804000m/h.</desc>
<speed>4.390000</speed>
</trkpt>
<trkpt lat="55.822308" lon="26.136293">
<ele>167.228638</ele>
<time>2010-07-17T13:35:50Z</time>
<desc>lat.=55.822308, lon.=26.136293, Alt.=167.228638m. Speed=16.056000m/h.</desc>
<speed>4.460000</speed>
</trkpt>
<trkpt lat="55.822262" lon="26.136288">
<ele>167.384888</ele>
<time>2010-07-17T13:35:51Z</time>
<desc>lat.=55.822262, lon.=26.136288, Alt.=167.384888m. Speed=18.431999m/h.</desc>
<speed>5.120000</speed>
</trkpt>
<trkpt lat="55.822216" lon="26.136280">
<ele>167.572388</ele>
<time>2010-07-17T13:35:52Z</time>
<desc>lat.=55.822216, lon.=26.136280, Alt.=167.572388m. Speed=19.368000m/h.</desc>
<speed>5.380000</speed>
</trkpt>
<trkpt lat="55.822166" lon="26.136272">
<ele>167.670044</ele>
<time>2010-07-17T13:35:53Z</time>
<desc>lat.=55.822166, lon.=26.136272, Alt.=167.670044m. Speed=17.424000m/h.</desc>
<speed>4.840000</speed>
</trkpt>
<trkpt lat="55.822132" lon="26.136271">
<ele>167.818481</ele>
<time>2010-07-17T13:35:54Z</time>
<desc>lat.=55.822132, lon.=26.136271, Alt.=167.818481m. Speed=14.364000m/h.</desc>
<speed>3.990000</speed>
</trkpt>
<trkpt lat="55.822094" lon="26.136269">
<ele>168.130981</ele>
<time>2010-07-17T13:35:55Z</time>
<desc>lat.=55.822094, lon.=26.136269, Alt.=168.130981m. Speed=13.824000m/h.</desc>
<speed>3.840000</speed>
</trkpt>
<trkpt lat="55.822056" lon="26.136265">
<ele>168.545044</ele>
<time>2010-07-17T13:35:56Z</time>
<desc>lat.=55.822056, lon.=26.136265, Alt.=168.545044m. Speed=13.212000m/h.</desc>
<speed>3.670000</speed>
</trkpt>
<trkpt lat="55.822018" lon="26.136259">
<ele>169.076294</ele>
<time>2010-07-17T13:35:57Z</time>
<desc>lat.=55.822018, lon.=26.136259, Alt.=169.076294m. Speed=16.955999m/h.</desc>
<speed>4.710000</speed>
</trkpt>
<trkpt lat="55.821983" lon="26.136255">
<ele>169.490356</ele>
<time>2010-07-17T13:35:58Z</time>
<desc>lat.=55.821983, lon.=26.136255, Alt.=169.490356m. Speed=9.036000m/h.</desc>
<speed>2.510000</speed>
</trkpt>
<trkpt lat="55.821949" lon="26.136248">
<ele>169.834106</ele>
<time>2010-07-17T13:35:59Z</time>
<desc>lat.=55.821949, lon.=26.136248, Alt.=169.834106m. Speed=15.948000m/h.</desc>
<speed>4.430000</speed>
</trkpt>
<trkpt lat="55.821907" lon="26.136246">
<ele>170.177856</ele>
<time>2010-07-17T13:36:00Z</time>
<desc>lat.=55.821907, lon.=26.136246, Alt.=170.177856m. Speed=16.559999m/h.</desc>
<speed>4.600000</speed>
</trkpt>
<trkpt lat="55.821865" lon="26.136244">
<ele>171.295044</ele>
<time>2010-07-17T13:36:01Z</time>
<desc>lat.=55.821865, lon.=26.136244, Alt.=171.295044m. Speed=16.524000m/h.</desc>
<speed>4.590000</speed>
</trkpt>
<trkpt lat="55.821812" lon="26.136280">
<ele>171.951294</ele>
<time>2010-07-17T13:36:02Z</time>
<desc>lat.=55.821812, lon.=26.136280, Alt.=171.951294m. Speed=16.308001m/h.</desc>
<speed>4.530000</speed>
</trkpt>
<trkpt lat="55.821774" lon="26.136278">
<ele>172.349731</ele>
<time>2010-07-17T13:36:03Z</time>
<desc>lat.=55.821774, lon.=26.136278, Alt.=172.349731m. Speed=12.708000m/h.</desc>
<speed>3.530000</speed>
</trkpt>
<trkpt lat="55.821732" lon="26.136265">
<ele>172.728638</ele>
<time>2010-07-17T13:36:04Z</time>
<desc>lat.=55.821732, lon.=26.136265, Alt.=172.728638m. Speed=14.904000m/h.</desc>
<speed>4.140000</speed>
</trkpt>
<trkpt lat="55.821705" lon="26.136263">
<ele>173.302856</ele>
<time>2010-07-17T13:36:05Z</time>
<desc>lat.=55.821705, lon.=26.136263, Alt.=173.302856m. Speed=7.956000m/h.</desc>
<speed>2.210000</speed>
</trkpt>
<trkpt lat="55.821682" lon="26.136272">
<ele>173.869263</ele>
<time>2010-07-17T13:36:06Z</time>
<desc>lat.=55.821682, lon.=26.136272, Alt.=173.869263m. Speed=7.596000m/h.</desc>
<speed>2.110000</speed>
</trkpt>
<trkpt lat="55.821667" lon="26.136276">
<ele>174.830200</ele>
<time>2010-07-17T13:36:07Z</time>
<desc>lat.=55.821667, lon.=26.136276, Alt.=174.830200m. Speed=6.372000m/h.</desc>
<speed>1.770000</speed>
</trkpt>
<trkpt lat="55.821640" lon="26.136295">
<ele>175.482544</ele>
<time>2010-07-17T13:36:08Z</time>
<desc>lat.=55.821640, lon.=26.136295, Alt.=175.482544m. Speed=7.560000m/h.</desc>
<speed>2.100000</speed>
</trkpt>
<trkpt lat="55.821606" lon="26.136303">
<ele>176.877075</ele>
<time>2010-07-17T13:36:09Z</time>
<desc>lat.=55.821606, lon.=26.136303, Alt.=176.877075m. Speed=9.612000m/h.</desc>
<speed>2.670000</speed>
</trkpt>
<trkpt lat="55.821568" lon="26.136295">
<ele>177.400513</ele>
<time>2010-07-17T13:36:10Z</time>
<desc>lat.=55.821568, lon.=26.136295, Alt.=177.400513m. Speed=10.044000m/h.</desc>
<speed>2.790000</speed>
</trkpt>
<trkpt lat="55.821518" lon="26.136290">
<ele>178.259888</ele>
<time>2010-07-17T13:36:11Z</time>
<desc>lat.=55.821518, lon.=26.136290, Alt.=178.259888m. Speed=14.364000m/h.</desc>
<speed>3.990000</speed>
</trkpt>
<trkpt lat="55.821369" lon="26.136265">
<ele>176.951294</ele>
<time>2010-07-17T13:36:12Z</time>
<desc>lat.=55.821369, lon.=26.136265, Alt.=176.951294m. Speed=16.452000m/h.</desc>
<speed>4.570000</speed>
</trkpt>
<trkpt lat="55.821304" lon="26.136280">
<ele>178.142700</ele>
<time>2010-07-17T13:36:13Z</time>
<desc>lat.=55.821304, lon.=26.136280, Alt.=178.142700m. Speed=16.091999m/h.</desc>
<speed>4.470000</speed>
</trkpt>
<trkpt lat="55.821247" lon="26.136276">
<ele>177.463013</ele>
<time>2010-07-17T13:36:14Z</time>
<desc>lat.=55.821247, lon.=26.136276, Alt.=177.463013m. Speed=16.524000m/h.</desc>
<speed>4.590000</speed>
</trkpt>
<trkpt lat="55.821198" lon="26.136263">
<ele>176.795044</ele>
<time>2010-07-17T13:36:15Z</time>
<desc>lat.=55.821198, lon.=26.136263, Alt.=176.795044m. Speed=14.832000m/h.</desc>
<speed>4.120000</speed>
</trkpt>
<trkpt lat="55.821159" lon="26.136257">
<ele>175.994263</ele>
<time>2010-07-17T13:36:16Z</time>
<desc>lat.=55.821159, lon.=26.136257, Alt.=175.994263m. Speed=11.340000m/h.</desc>
<speed>3.150000</speed>
</trkpt>
<trkpt lat="55.821140" lon="26.136257">
<ele>175.041138</ele>
<time>2010-07-17T13:36:17Z</time>
<desc>lat.=55.821140, lon.=26.136257, Alt.=175.041138m. Speed=4.968000m/h.</desc>
<speed>1.380000</speed>
</trkpt>
<trkpt lat="55.821136" lon="26.136255">
<ele>175.142700</ele>
<time>2010-07-17T13:36:18Z</time>
<desc>lat.=55.821136, lon.=26.136255, Alt.=175.142700m. Speed=0.468000m/h.</desc>
<speed>0.130000</speed>
</trkpt>
<trkpt lat="55.821133" lon="26.136257">
<ele>174.576294</ele>
<time>2010-07-17T13:36:19Z</time>
<desc>lat.=55.821133, lon.=26.136257, Alt.=174.576294m. Speed=0.432000m/h.</desc>
<speed>0.120000</speed>
</trkpt>
<trkpt lat="55.821133" lon="26.136255">
<ele>174.588013</ele>
<time>2010-07-17T13:36:20Z</time>
<desc>lat.=55.821133, lon.=26.136255, Alt.=174.588013m. Speed=0.432000m/h.</desc>
<speed>0.120000</speed>
</trkpt>
<trkpt lat="55.821129" lon="26.136255">
<ele>174.443481</ele>
<time>2010-07-17T13:36:21Z</time>
<desc>lat.=55.821129, lon.=26.136255, Alt.=174.443481m. Speed=0.144000m/h.</desc>
<speed>0.040000</speed>
</trkpt>
<trkpt lat="55.821129" lon="26.136253">
<ele>174.396606</ele>
<time>2010-07-17T13:36:22Z</time>
<desc>lat.=55.821129, lon.=26.136253, Alt.=174.396606m. Speed=0.504000m/h.</desc>
<speed>0.140000</speed>
</trkpt>
<trkpt lat="55.821129" lon="26.136251">
<ele>174.365356</ele>
<time>2010-07-17T13:36:23Z</time>
<desc>lat.=55.821129, lon.=26.136251, Alt.=174.365356m. Speed=0.684000m/h.</desc>
<speed>0.190000</speed>
</trkpt>
<trkpt lat="55.821129" lon="26.136251">
<ele>174.338013</ele>
<time>2010-07-17T13:36:24Z</time>
<desc>lat.=55.821129, lon.=26.136251, Alt.=174.338013m. Speed=0.612000m/h.</desc>
<speed>0.170000</speed>
</trkpt>
<trkpt lat="55.821125" lon="26.136250">
<ele>174.318481</ele>
<time>2010-07-17T13:36:25Z</time>
<desc>lat.=55.821125, lon.=26.136250, Alt.=174.318481m. Speed=0.576000m/h.</desc>
<speed>0.160000</speed>
</trkpt>
<trkpt lat="55.821125" lon="26.136250">
<ele>174.291138</ele>
<time>2010-07-17T13:36:26Z</time>
<desc>lat.=55.821125, lon.=26.136250, Alt.=174.291138m. Speed=0.756000m/h.</desc>
<speed>0.210000</speed>
</trkpt>
<trkpt lat="55.821121" lon="26.136248">
<ele>174.267700</ele>
<time>2010-07-17T13:36:27Z</time>
<desc>lat.=55.821121, lon.=26.136248, Alt.=174.267700m. Speed=0.756000m/h.</desc>
<speed>0.210000</speed>
</trkpt>
<trkpt lat="55.821121" lon="26.136248">
<ele>174.252075</ele>
<time>2010-07-17T13:36:28Z</time>
<desc>lat.=55.821121, lon.=26.136248, Alt.=174.252075m. Speed=0.828000m/h.</desc>
<speed>0.230000</speed>
</trkpt>
<trkpt lat="55.821117" lon="26.136246">
<ele>174.236450</ele>
<time>2010-07-17T13:36:29Z</time>
<desc>lat.=55.821117, lon.=26.136246, Alt.=174.236450m. Speed=0.324000m/h.</desc>
<speed>0.090000</speed>
</trkpt>
<trkpt lat="55.821117" lon="26.136246">
<ele>174.228638</ele>
<time>2010-07-17T13:36:30Z</time>
<desc>lat.=55.821117, lon.=26.136246, Alt.=174.228638m. Speed=0.252000m/h.</desc>
<speed>0.070000</speed>
</trkpt>
<trkpt lat="55.821117" lon="26.136246">
<ele>174.216919</ele>
<time>2010-07-17T13:36:31Z</time>
<desc>lat.=55.821117, lon.=26.136246, Alt.=174.216919m. Speed=0.504000m/h.</desc>
<speed>0.140000</speed>
</trkpt>
<trkpt lat="55.821117" lon="26.136244">
<ele>174.213013</ele>
<time>2010-07-17T13:36:32Z</time>
<desc>lat.=55.821117, lon.=26.136244, Alt.=174.213013m. Speed=0.900000m/h.</desc>
<speed>0.250000</speed>
</trkpt>
<trkpt lat="55.821114" lon="26.136244">
<ele>174.205200</ele>
<time>2010-07-17T13:36:33Z</time>
<desc>lat.=55.821114, lon.=26.136244, Alt.=174.205200m. Speed=0.756000m/h.</desc>
<speed>0.210000</speed>
</trkpt>
<trkpt lat="55.821114" lon="26.136242">
<ele>174.201294</ele>
<time>2010-07-17T13:36:34Z</time>
<desc>lat.=55.821114, lon.=26.136242, Alt.=174.201294m. Speed=0.648000m/h.</desc>
<speed>0.180000</speed>
</trkpt>
<trkpt lat="55.821110" lon="26.136242">
<ele>174.197388</ele>
<time>2010-07-17T13:36:35Z</time>
<desc>lat.=55.821110, lon.=26.136242, Alt.=174.197388m. Speed=0.288000m/h.</desc>
<speed>0.080000</speed>
</trkpt>
<trkpt lat="55.821110" lon="26.136240">
<ele>174.193481</ele>
<time>2010-07-17T13:36:36Z</time>
<desc>lat.=55.821110, lon.=26.136240, Alt.=174.193481m. Speed=0.252000m/h.</desc>
<speed>0.070000</speed>
</trkpt>
<trkpt lat="55.821110" lon="26.136240">
<ele>174.189575</ele>
<time>2010-07-17T13:36:37Z</time>
<desc>lat.=55.821110, lon.=26.136240, Alt.=174.189575m. Speed=0.360000m/h.</desc>
<speed>0.100000</speed>
</trkpt>
<trkpt lat="55.821110" lon="26.136240">
<ele>174.185669</ele>
<time>2010-07-17T13:36:38Z</time>
<desc>lat.=55.821110, lon.=26.136240, Alt.=174.185669m. Speed=0.180000m/h.</desc>
<speed>0.050000</speed>
</trkpt>
<trkpt lat="55.821110" lon="26.136240">
<ele>174.181763</ele>
<time>2010-07-17T13:36:39Z</time>
<desc>lat.=55.821110, lon.=26.136240, Alt.=174.181763m. Speed=0.216000m/h.</desc>
<speed>0.060000</speed>
</trkpt>
<trkpt lat="55.821110" lon="26.136240">
<ele>174.173950</ele>
<time>2010-07-17T13:36:40Z</time>
<desc>lat.=55.821110, lon.=26.136240, Alt.=174.173950m. Speed=0.504000m/h.</desc>
<speed>0.140000</speed>
</trkpt>
<trkpt lat="55.821106" lon="26.136238">
<ele>174.170044</ele>
<time>2010-07-17T13:36:41Z</time>
<desc>lat.=55.821106, lon.=26.136238, Alt.=174.170044m. Speed=0.216000m/h.</desc>
<speed>0.060000</speed>
</trkpt>
<trkpt lat="55.821106" lon="26.136238">
<ele>174.162231</ele>
<time>2010-07-17T13:36:42Z</time>
<desc>lat.=55.821106, lon.=26.136238, Alt.=174.162231m. Speed=0.612000m/h.</desc>
<speed>0.170000</speed>
</trkpt>
<trkpt lat="55.821106" lon="26.136236">
<ele>174.150513</ele>
<time>2010-07-17T13:36:43Z</time>
<desc>lat.=55.821106, lon.=26.136236, Alt.=174.150513m. Speed=0.540000m/h.</desc>
<speed>0.150000</speed>
</trkpt>
<trkpt lat="55.821106" lon="26.136234">
<ele>174.154419</ele>
<time>2010-07-17T13:36:44Z</time>
<desc>lat.=55.821106, lon.=26.136234, Alt.=174.154419m. Speed=0.252000m/h.</desc>
<speed>0.070000</speed>
</trkpt>
<trkpt lat="55.821102" lon="26.136234">
<ele>174.158325</ele>
<time>2010-07-17T13:36:45Z</time>
<desc>lat.=55.821102, lon.=26.136234, Alt.=174.158325m. Speed=0.180000m/h.</desc>
<speed>0.050000</speed>
</trkpt>
<trkpt lat="55.821102" lon="26.136234">
<ele>174.162231</ele>
<time>2010-07-17T13:36:46Z</time>
<desc>lat.=55.821102, lon.=26.136234, Alt.=174.162231m. Speed=0.360000m/h.</desc>
<speed>0.100000</speed>
</trkpt>
<trkpt lat="55.821102" lon="26.136234">
<ele>174.166138</ele>
<time>2010-07-17T13:36:47Z</time>
<desc>lat.=55.821102, lon.=26.136234, Alt.=174.166138m. Speed=0.288000m/h.</desc>
<speed>0.080000</speed>
</trkpt>
<trkpt lat="55.821102" lon="26.136236">
<ele>174.166138</ele>
<time>2010-07-17T13:36:48Z</time>
<desc>lat.=55.821102, lon.=26.136236, Alt.=174.166138m. Speed=0.360000m/h.</desc>
<speed>0.100000</speed>
</trkpt>
<trkpt lat="55.821102" lon="26.136236">
<ele>174.162231</ele>
<time>2010-07-17T13:36:49Z</time>
<desc>lat.=55.821102, lon.=26.136236, Alt.=174.162231m. Speed=0.324000m/h.</desc>
<speed>0.090000</speed>
</trkpt>
<trkpt lat="55.821102" lon="26.136236">
<ele>174.162231</ele>
<time>2010-07-17T13:36:50Z</time>
<desc>lat.=55.821102, lon.=26.136236, Alt.=174.162231m. Speed=0.180000m/h.</desc>
<speed>0.050000</speed>
</trkpt>
<trkpt lat="55.821102" lon="26.136238">
<ele>174.170044</ele>
<time>2010-07-17T13:36:51Z</time>
<desc>lat.=55.821102, lon.=26.136238, Alt.=174.170044m. Speed=0.216000m/h.</desc>
<speed>0.060000</speed>
</trkpt>
<trkpt lat="55.821102" lon="26.136238">
<ele>174.173950</ele>
<time>2010-07-17T13:36:52Z</time>
<desc>lat.=55.821102, lon.=26.136238, Alt.=174.173950m. Speed=0.072000m/h.</desc>
<speed>0.020000</speed>
</trkpt>
<trkpt lat="55.821102" lon="26.136238">
<ele>174.181763</ele>
<time>2010-07-17T13:36:53Z</time>
<desc>lat.=55.821102, lon.=26.136238, Alt.=174.181763m. Speed=0.612000m/h.</desc>
<speed>0.170000</speed>
</trkpt>
<trkpt lat="55.821102" lon="26.136238">
<ele>174.193481</ele>
<time>2010-07-17T13:36:54Z</time>
<desc>lat.=55.821102, lon.=26.136238, Alt.=174.193481m. Speed=0.612000m/h.</desc>
<speed>0.170000</speed>
</trkpt>
<trkpt lat="55.821102" lon="26.136238">
<ele>174.201294</ele>
<time>2010-07-17T13:36:55Z</time>
<desc>lat.=55.821102, lon.=26.136238, Alt.=174.201294m. Speed=0.432000m/h.</desc>
<speed>0.120000</speed>
</trkpt>
<trkpt lat="55.821106" lon="26.136238">
<ele>174.185669</ele>
<time>2010-07-17T13:36:56Z</time>
<desc>lat.=55.821106, lon.=26.136238, Alt.=174.185669m. Speed=0.072000m/h.</desc>
<speed>0.020000</speed>
</trkpt>
<trkpt lat="55.821106" lon="26.136238">
<ele>174.177856</ele>
<time>2010-07-17T13:36:57Z</time>
<desc>lat.=55.821106, lon.=26.136238, Alt.=174.177856m. Speed=0.180000m/h.</desc>
<speed>0.050000</speed>
</trkpt>
<trkpt lat="55.821102" lon="26.136238">
<ele>174.170044</ele>
<time>2010-07-17T13:36:58Z</time>
<desc>lat.=55.821102, lon.=26.136238, Alt.=174.170044m. Speed=0.288000m/h.</desc>
<speed>0.080000</speed>
</trkpt>
<trkpt lat="55.821102" lon="26.136236">
<ele>174.162231</ele>
<time>2010-07-17T13:36:59Z</time>
<desc>lat.=55.821102, lon.=26.136236, Alt.=174.162231m. Speed=0.360000m/h.</desc>
<speed>0.100000</speed>
</trkpt>
<trkpt lat="55.821102" lon="26.136238">
<ele>174.158325</ele>
<time>2010-07-17T13:37:00Z</time>
<desc>lat.=55.821102, lon.=26.136238, Alt.=174.158325m. Speed=0.324000m/h.</desc>
<speed>0.090000</speed>
</trkpt>
<trkpt lat="55.821102" lon="26.136238">
<ele>174.158325</ele>
<time>2010-07-17T13:37:01Z</time>
<desc>lat.=55.821102, lon.=26.136238, Alt.=174.158325m. Speed=0.000000m/h.</desc>
<speed>0.000000</speed>
</trkpt>
<trkpt lat="55.821102" lon="26.136238">
<ele>174.154419</ele>
<time>2010-07-17T13:37:02Z</time>
<desc>lat.=55.821102, lon.=26.136238, Alt.=174.154419m. Speed=0.396000m/h.</desc>
<speed>0.110000</speed>
</trkpt>
<trkpt lat="55.821098" lon="26.136238">
<ele>174.146606</ele>
<time>2010-07-17T13:37:03Z</time>
<desc>lat.=55.821098, lon.=26.136238, Alt.=174.146606m. Speed=0.036000m/h.</desc>
<speed>0.010000</speed>
</trkpt>
<trkpt lat="55.821098" lon="26.136238">
<ele>174.142700</ele>
<time>2010-07-17T13:37:04Z</time>
<desc>lat.=55.821098, lon.=26.136238, Alt.=174.142700m. Speed=0.180000m/h.</desc>
<speed>0.050000</speed>
</trkpt>
<trkpt lat="55.821098" lon="26.136238">
<ele>174.154419</ele>
<time>2010-07-17T13:37:05Z</time>
<desc>lat.=55.821098, lon.=26.136238, Alt.=174.154419m. Speed=0.180000m/h.</desc>
<speed>0.050000</speed>
</trkpt>
<trkpt lat="55.821098" lon="26.136236">
<ele>174.173950</ele>
<time>2010-07-17T13:37:06Z</time>
<desc>lat.=55.821098, lon.=26.136236, Alt.=174.173950m. Speed=0.180000m/h.</desc>
<speed>0.050000</speed>
</trkpt>
<trkpt lat="55.821098" lon="26.136236">
<ele>174.185669</ele>
<time>2010-07-17T13:37:07Z</time>
<desc>lat.=55.821098, lon.=26.136236, Alt.=174.185669m. Speed=0.288000m/h.</desc>
<speed>0.080000</speed>
</trkpt>
<trkpt lat="55.821098" lon="26.136236">
<ele>174.185669</ele>
<time>2010-07-17T13:37:08Z</time>
<desc>lat.=55.821098, lon.=26.136236, Alt.=174.185669m. Speed=0.288000m/h.</desc>
<speed>0.080000</speed>
</trkpt>
<trkpt lat="55.821098" lon="26.136236">
<ele>174.189575</ele>
<time>2010-07-17T13:37:09Z</time>
<desc>lat.=55.821098, lon.=26.136236, Alt.=174.189575m. Speed=0.216000m/h.</desc>
<speed>0.060000</speed>
</trkpt>
<trkpt lat="55.821098" lon="26.136234">
<ele>174.193481</ele>
<time>2010-07-17T13:37:10Z</time>
<desc>lat.=55.821098, lon.=26.136234, Alt.=174.193481m. Speed=0.036000m/h.</desc>
<speed>0.010000</speed>
</trkpt>
<trkpt lat="55.821098" lon="26.136234">
<ele>174.189575</ele>
<time>2010-07-17T13:37:11Z</time>
<desc>lat.=55.821098, lon.=26.136234, Alt.=174.189575m. Speed=0.324000m/h.</desc>
<speed>0.090000</speed>
</trkpt>
<trkpt lat="55.821098" lon="26.136234">
<ele>174.193481</ele>
<time>2010-07-17T13:37:12Z</time>
<desc>lat.=55.821098, lon.=26.136234, Alt.=174.193481m. Speed=0.180000m/h.</desc>
<speed>0.050000</speed>
</trkpt>
<trkpt lat="55.821098" lon="26.136234">
<ele>174.201294</ele>
<time>2010-07-17T13:37:13Z</time>
<desc>lat.=55.821098, lon.=26.136234, Alt.=174.201294m. Speed=0.468000m/h.</desc>
<speed>0.130000</speed>
</trkpt>
<trkpt lat="55.821095" lon="26.136232">
<ele>174.213013</ele>
<time>2010-07-17T13:37:14Z</time>
<desc>lat.=55.821095, lon.=26.136232, Alt.=174.213013m. Speed=0.720000m/h.</desc>
<speed>0.200000</speed>
</trkpt>
<trkpt lat="55.821095" lon="26.136232">
<ele>174.224731</ele>
<time>2010-07-17T13:37:15Z</time>
<desc>lat.=55.821095, lon.=26.136232, Alt.=174.224731m. Speed=0.828000m/h.</desc>
<speed>0.230000</speed>
</trkpt>
<trkpt lat="55.821091" lon="26.136232">
<ele>174.236450</ele>
<time>2010-07-17T13:37:16Z</time>
<desc>lat.=55.821091, lon.=26.136232, Alt.=174.236450m. Speed=0.540000m/h.</desc>
<speed>0.150000</speed>
</trkpt>
<trkpt lat="55.821091" lon="26.136232">
<ele>174.240356</ele>
<time>2010-07-17T13:37:17Z</time>
<desc>lat.=55.821091, lon.=26.136232, Alt.=174.240356m. Speed=0.684000m/h.</desc>
<speed>0.190000</speed>
</trkpt>
<trkpt lat="55.821087" lon="26.136230">
<ele>174.259888</ele>
<time>2010-07-17T13:37:18Z</time>
<desc>lat.=55.821087, lon.=26.136230, Alt.=174.259888m. Speed=0.396000m/h.</desc>
<speed>0.110000</speed>
</trkpt>
<trkpt lat="55.821087" lon="26.136230">
<ele>174.283325</ele>
<time>2010-07-17T13:37:19Z</time>
<desc>lat.=55.821087, lon.=26.136230, Alt.=174.283325m. Speed=0.108000m/h.</desc>
<speed>0.030000</speed>
</trkpt>
<trkpt lat="55.821087" lon="26.136230">
<ele>174.298950</ele>
<time>2010-07-17T13:37:20Z</time>
<desc>lat.=55.821087, lon.=26.136230, Alt.=174.298950m. Speed=0.180000m/h.</desc>
<speed>0.050000</speed>
</trkpt>
<trkpt lat="55.821087" lon="26.136230">
<ele>174.314575</ele>
<time>2010-07-17T13:37:21Z</time>
<desc>lat.=55.821087, lon.=26.136230, Alt.=174.314575m. Speed=0.396000m/h.</desc>
<speed>0.110000</speed>
</trkpt>
<trkpt lat="55.821087" lon="26.136230">
<ele>174.326294</ele>
<time>2010-07-17T13:37:22Z</time>
<desc>lat.=55.821087, lon.=26.136230, Alt.=174.326294m. Speed=0.468000m/h.</desc>
<speed>0.130000</speed>
</trkpt>
<trkpt lat="55.821083" lon="26.136229">
<ele>174.349731</ele>
<time>2010-07-17T13:37:23Z</time>
<desc>lat.=55.821083, lon.=26.136229, Alt.=174.349731m. Speed=0.396000m/h.</desc>
<speed>0.110000</speed>
</trkpt>
<trkpt lat="55.821083" lon="26.136230">
<ele>174.353638</ele>
<time>2010-07-17T13:37:24Z</time>
<desc>lat.=55.821083, lon.=26.136230, Alt.=174.353638m. Speed=0.324000m/h.</desc>
<speed>0.090000</speed>
</trkpt>
<trkpt lat="55.821083" lon="26.136229">
<ele>174.353638</ele>
<time>2010-07-17T13:37:25Z</time>
<desc>lat.=55.821083, lon.=26.136229, Alt.=174.353638m. Speed=0.360000m/h.</desc>
<speed>0.100000</speed>
</trkpt>
<trkpt lat="55.821079" lon="26.136229">
<ele>174.365356</ele>
<time>2010-07-17T13:37:26Z</time>
<desc>lat.=55.821079, lon.=26.136229, Alt.=174.365356m. Speed=0.432000m/h.</desc>
<speed>0.120000</speed>
</trkpt>
<trkpt lat="55.821079" lon="26.136229">
<ele>174.377075</ele>
<time>2010-07-17T13:37:27Z</time>
<desc>lat.=55.821079, lon.=26.136229, Alt.=174.377075m. Speed=0.288000m/h.</desc>
<speed>0.080000</speed>
</trkpt>
<trkpt lat="55.821079" lon="26.136229">
<ele>174.392700</ele>
<time>2010-07-17T13:37:28Z</time>
<desc>lat.=55.821079, lon.=26.136229, Alt.=174.392700m. Speed=0.216000m/h.</desc>
<speed>0.060000</speed>
</trkpt>
<trkpt lat="55.821079" lon="26.136229">
<ele>174.412231</ele>
<time>2010-07-17T13:37:29Z</time>
<desc>lat.=55.821079, lon.=26.136229, Alt.=174.412231m. Speed=0.216000m/h.</desc>
<speed>0.060000</speed>
</trkpt>
<trkpt lat="55.821079" lon="26.136229">
<ele>174.416138</ele>
<time>2010-07-17T13:37:30Z</time>
<desc>lat.=55.821079, lon.=26.136229, Alt.=174.416138m. Speed=0.144000m/h.</desc>
<speed>0.040000</speed>
</trkpt>
<trkpt lat="55.821079" lon="26.136229">
<ele>174.423950</ele>
<time>2010-07-17T13:37:31Z</time>
<desc>lat.=55.821079, lon.=26.136229, Alt.=174.423950m. Speed=0.324000m/h.</desc>
<speed>0.090000</speed>
</trkpt>
<trkpt lat="55.821075" lon="26.136229">
<ele>174.423950</ele>
<time>2010-07-17T13:37:32Z</time>
<desc>lat.=55.821075, lon.=26.136229, Alt.=174.423950m. Speed=0.324000m/h.</desc>
<speed>0.090000</speed>
</trkpt>
<trkpt lat="55.821075" lon="26.136229">
<ele>174.451294</ele>
<time>2010-07-17T13:37:33Z</time>
<desc>lat.=55.821075, lon.=26.136229, Alt.=174.451294m. Speed=0.288000m/h.</desc>
<speed>0.080000</speed>
</trkpt>
<trkpt lat="55.821075" lon="26.136227">
<ele>174.474731</ele>
<time>2010-07-17T13:37:34Z</time>
<desc>lat.=55.821075, lon.=26.136227, Alt.=174.474731m. Speed=0.144000m/h.</desc>
<speed>0.040000</speed>
</trkpt>
<trkpt lat="55.821075" lon="26.136227">
<ele>174.502075</ele>
<time>2010-07-17T13:37:35Z</time>
<desc>lat.=55.821075, lon.=26.136227, Alt.=174.502075m. Speed=0.180000m/h.</desc>
<speed>0.050000</speed>
</trkpt>
<trkpt lat="55.821075" lon="26.136227">
<ele>174.509888</ele>
<time>2010-07-17T13:37:36Z</time>
<desc>lat.=55.821075, lon.=26.136227, Alt.=174.509888m. Speed=0.360000m/h.</desc>
<speed>0.100000</speed>
</trkpt>
<trkpt lat="55.821072" lon="26.136227">
<ele>174.525513</ele>
<time>2010-07-17T13:37:37Z</time>
<desc>lat.=55.821072, lon.=26.136227, Alt.=174.525513m. Speed=0.360000m/h.</desc>
<speed>0.100000</speed>
</trkpt>
<trkpt lat="55.821072" lon="26.136227">
<ele>174.541138</ele>
<time>2010-07-17T13:37:38Z</time>
<desc>lat.=55.821072, lon.=26.136227, Alt.=174.541138m. Speed=0.216000m/h.</desc>
<speed>0.060000</speed>
</trkpt>
<trkpt lat="55.821072" lon="26.136227">
<ele>174.548950</ele>
<time>2010-07-17T13:37:39Z</time>
<desc>lat.=55.821072, lon.=26.136227, Alt.=174.548950m. Speed=0.180000m/h.</desc>
<speed>0.050000</speed>
</trkpt>
<trkpt lat="55.821072" lon="26.136227">
<ele>174.560669</ele>
<time>2010-07-17T13:37:40Z</time>
<desc>lat.=55.821072, lon.=26.136227, Alt.=174.560669m. Speed=0.072000m/h.</desc>
<speed>0.020000</speed>
</trkpt>
<trkpt lat="55.821072" lon="26.136227">
<ele>174.564575</ele>
<time>2010-07-17T13:37:41Z</time>
<desc>lat.=55.821072, lon.=26.136227, Alt.=174.564575m. Speed=0.252000m/h.</desc>
<speed>0.070000</speed>
</trkpt>
<trkpt lat="55.821072" lon="26.136225">
<ele>174.552856</ele>
<time>2010-07-17T13:37:42Z</time>
<desc>lat.=55.821072, lon.=26.136225, Alt.=174.552856m. Speed=0.108000m/h.</desc>
<speed>0.030000</speed>
</trkpt>
<trkpt lat="55.821072" lon="26.136225">
<ele>174.548950</ele>
<time>2010-07-17T13:37:43Z</time>
<desc>lat.=55.821072, lon.=26.136225, Alt.=174.548950m. Speed=0.216000m/h.</desc>
<speed>0.060000</speed>
</trkpt>
<trkpt lat="55.821072" lon="26.136227">
<ele>174.541138</ele>
<time>2010-07-17T13:37:44Z</time>
<desc>lat.=55.821072, lon.=26.136227, Alt.=174.541138m. Speed=0.216000m/h.</desc>
<speed>0.060000</speed>
</trkpt>
<trkpt lat="55.821072" lon="26.136227">
<ele>174.533325</ele>
<time>2010-07-17T13:37:45Z</time>
<desc>lat.=55.821072, lon.=26.136227, Alt.=174.533325m. Speed=0.432000m/h.</desc>
<speed>0.120000</speed>
</trkpt>
<trkpt lat="55.821072" lon="26.136227">
<ele>174.521606</ele>
<time>2010-07-17T13:37:46Z</time>
<desc>lat.=55.821072, lon.=26.136227, Alt.=174.521606m. Speed=0.288000m/h.</desc>
<speed>0.080000</speed>
</trkpt>
<trkpt lat="55.821072" lon="26.136227">
<ele>174.513794</ele>
<time>2010-07-17T13:37:47Z</time>
<desc>lat.=55.821072, lon.=26.136227, Alt.=174.513794m. Speed=0.540000m/h.</desc>
<speed>0.150000</speed>
</trkpt>
<trkpt lat="55.821068" lon="26.136227">
<ele>174.521606</ele>
<time>2010-07-17T13:37:48Z</time>
<desc>lat.=55.821068, lon.=26.136227, Alt.=174.521606m. Speed=0.612000m/h.</desc>
<speed>0.170000</speed>
</trkpt>
<trkpt lat="55.821068" lon="26.136227">
<ele>174.517700</ele>
<time>2010-07-17T13:37:49Z</time>
<desc>lat.=55.821068, lon.=26.136227, Alt.=174.517700m. Speed=0.540000m/h.</desc>
<speed>0.150000</speed>
</trkpt>
<trkpt lat="55.821064" lon="26.136227">
<ele>174.517700</ele>
<time>2010-07-17T13:37:50Z</time>
<desc>lat.=55.821064, lon.=26.136227, Alt.=174.517700m. Speed=0.396000m/h.</desc>
<speed>0.110000</speed>
</trkpt>
<trkpt lat="55.821064" lon="26.136227">
<ele>174.517700</ele>
<time>2010-07-17T13:37:51Z</time>
<desc>lat.=55.821064, lon.=26.136227, Alt.=174.517700m. Speed=0.144000m/h.</desc>
<speed>0.040000</speed>
</trkpt>
<trkpt lat="55.821064" lon="26.136227">
<ele>174.521606</ele>
<time>2010-07-17T13:37:52Z</time>
<desc>lat.=55.821064, lon.=26.136227, Alt.=174.521606m. Speed=0.108000m/h.</desc>
<speed>0.030000</speed>
</trkpt>
<trkpt lat="55.821064" lon="26.136227">
<ele>174.525513</ele>
<time>2010-07-17T13:37:53Z</time>
<desc>lat.=55.821064, lon.=26.136227, Alt.=174.525513m. Speed=0.072000m/h.</desc>
<speed>0.020000</speed>
</trkpt>
<trkpt lat="55.821064" lon="26.136227">
<ele>174.533325</ele>
<time>2010-07-17T13:37:54Z</time>
<desc>lat.=55.821064, lon.=26.136227, Alt.=174.533325m. Speed=0.360000m/h.</desc>
<speed>0.100000</speed>
</trkpt>
<trkpt lat="55.821064" lon="26.136227">
<ele>174.517700</ele>
<time>2010-07-17T13:37:55Z</time>
<desc>lat.=55.821064, lon.=26.136227, Alt.=174.517700m. Speed=0.576000m/h.</desc>
<speed>0.160000</speed>
</trkpt>
<trkpt lat="55.821060" lon="26.136227">
<ele>174.498169</ele>
<time>2010-07-17T13:37:56Z</time>
<desc>lat.=55.821060, lon.=26.136227, Alt.=174.498169m. Speed=0.288000m/h.</desc>
<speed>0.080000</speed>
</trkpt>
<trkpt lat="55.821060" lon="26.136227">
<ele>174.478638</ele>
<time>2010-07-17T13:37:57Z</time>
<desc>lat.=55.821060, lon.=26.136227, Alt.=174.478638m. Speed=0.360000m/h.</desc>
<speed>0.100000</speed>
</trkpt>
<trkpt lat="55.821060" lon="26.136229">
<ele>174.447388</ele>
<time>2010-07-17T13:37:58Z</time>
<desc>lat.=55.821060, lon.=26.136229, Alt.=174.447388m. Speed=1.080000m/h.</desc>
<speed>0.300000</speed>
</trkpt>
<trkpt lat="55.821056" lon="26.136229">
<ele>174.420044</ele>
<time>2010-07-17T13:37:59Z</time>
<desc>lat.=55.821056, lon.=26.136229, Alt.=174.420044m. Speed=1.476000m/h.</desc>
<speed>0.410000</speed>
</trkpt>
<trkpt lat="55.821053" lon="26.136229">
<ele>174.380981</ele>
<time>2010-07-17T13:38:00Z</time>
<desc>lat.=55.821053, lon.=26.136229, Alt.=174.380981m. Speed=1.296000m/h.</desc>
<speed>0.360000</speed>
</trkpt>
<trkpt lat="55.821049" lon="26.136229">
<ele>174.353638</ele>
<time>2010-07-17T13:38:01Z</time>
<desc>lat.=55.821049, lon.=26.136229, Alt.=174.353638m. Speed=1.008000m/h.</desc>
<speed>0.280000</speed>
</trkpt>
<trkpt lat="55.821049" lon="26.136229">
<ele>174.326294</ele>
<time>2010-07-17T13:38:02Z</time>
<desc>lat.=55.821049, lon.=26.136229, Alt.=174.326294m. Speed=0.828000m/h.</desc>
<speed>0.230000</speed>
</trkpt>
<trkpt lat="55.821045" lon="26.136229">
<ele>174.295044</ele>
<time>2010-07-17T13:38:03Z</time>
<desc>lat.=55.821045, lon.=26.136229, Alt.=174.295044m. Speed=0.684000m/h.</desc>
<speed>0.190000</speed>
</trkpt>
<trkpt lat="55.821045" lon="26.136230">
<ele>174.263794</ele>
<time>2010-07-17T13:38:04Z</time>
<desc>lat.=55.821045, lon.=26.136230, Alt.=174.263794m. Speed=0.504000m/h.</desc>
<speed>0.140000</speed>
</trkpt>
<trkpt lat="55.821041" lon="26.136230">
<ele>174.224731</ele>
<time>2010-07-17T13:38:05Z</time>
<desc>lat.=55.821041, lon.=26.136230, Alt.=174.224731m. Speed=0.468000m/h.</desc>
<speed>0.130000</speed>
</trkpt>
<trkpt lat="55.821041" lon="26.136230">
<ele>174.181763</ele>
<time>2010-07-17T13:38:06Z</time>
<desc>lat.=55.821041, lon.=26.136230, Alt.=174.181763m. Speed=0.540000m/h.</desc>
<speed>0.150000</speed>
</trkpt>
<trkpt lat="55.821041" lon="26.136230">
<ele>174.134888</ele>
<time>2010-07-17T13:38:07Z</time>
<desc>lat.=55.821041, lon.=26.136230, Alt.=174.134888m. Speed=0.504000m/h.</desc>
<speed>0.140000</speed>
</trkpt>
<trkpt lat="55.821037" lon="26.136232">
<ele>174.084106</ele>
<time>2010-07-17T13:38:08Z</time>
<desc>lat.=55.821037, lon.=26.136232, Alt.=174.084106m. Speed=0.468000m/h.</desc>
<speed>0.130000</speed>
</trkpt>
<trkpt lat="55.821037" lon="26.136232">
<ele>174.045044</ele>
<time>2010-07-17T13:38:09Z</time>
<desc>lat.=55.821037, lon.=26.136232, Alt.=174.045044m. Speed=0.504000m/h.</desc>
<speed>0.140000</speed>
</trkpt>
<trkpt lat="55.821037" lon="26.136232">
<ele>174.002075</ele>
<time>2010-07-17T13:38:10Z</time>
<desc>lat.=55.821037, lon.=26.136232, Alt.=174.002075m. Speed=0.504000m/h.</desc>
<speed>0.140000</speed>
</trkpt>
<trkpt lat="55.821033" lon="26.136234">
<ele>173.959106</ele>
<time>2010-07-17T13:38:11Z</time>
<desc>lat.=55.821033, lon.=26.136234, Alt.=173.959106m. Speed=0.504000m/h.</desc>
<speed>0.140000</speed>
</trkpt>
<trkpt lat="55.821033" lon="26.136234">
<ele>173.912231</ele>
<time>2010-07-17T13:38:12Z</time>
<desc>lat.=55.821033, lon.=26.136234, Alt.=173.912231m. Speed=0.612000m/h.</desc>
<speed>0.170000</speed>
</trkpt>
<trkpt lat="55.821033" lon="26.136234">
<ele>173.869263</ele>
<time>2010-07-17T13:38:13Z</time>
<desc>lat.=55.821033, lon.=26.136234, Alt.=173.869263m. Speed=0.540000m/h.</desc>
<speed>0.150000</speed>
</trkpt>
<trkpt lat="55.821030" lon="26.136236">
<ele>173.822388</ele>
<time>2010-07-17T13:38:14Z</time>
<desc>lat.=55.821030, lon.=26.136236, Alt.=173.822388m. Speed=0.432000m/h.</desc>
<speed>0.120000</speed>
</trkpt>
<trkpt lat="55.821030" lon="26.136236">
<ele>173.771606</ele>
<time>2010-07-17T13:38:15Z</time>
<desc>lat.=55.821030, lon.=26.136236, Alt.=173.771606m. Speed=0.360000m/h.</desc>
<speed>0.100000</speed>
</trkpt>
<trkpt lat="55.821030" lon="26.136238">
<ele>173.713013</ele>
<time>2010-07-17T13:38:16Z</time>
<desc>lat.=55.821030, lon.=26.136238, Alt.=173.713013m. Speed=0.504000m/h.</desc>
<speed>0.140000</speed>
</trkpt>
<trkpt lat="55.821026" lon="26.136238">
<ele>173.650513</ele>
<time>2010-07-17T13:38:17Z</time>
<desc>lat.=55.821026, lon.=26.136238, Alt.=173.650513m. Speed=0.540000m/h.</desc>
<speed>0.150000</speed>
</trkpt>
<trkpt lat="55.821026" lon="26.136240">
<ele>173.584106</ele>
<time>2010-07-17T13:38:18Z</time>
<desc>lat.=55.821026, lon.=26.136240, Alt.=173.584106m. Speed=0.540000m/h.</desc>
<speed>0.150000</speed>
</trkpt>
<trkpt lat="55.821026" lon="26.136242">
<ele>173.509888</ele>
<time>2010-07-17T13:38:19Z</time>
<desc>lat.=55.821026, lon.=26.136242, Alt.=173.509888m. Speed=0.396000m/h.</desc>
<speed>0.110000</speed>
</trkpt>
<trkpt lat="55.821022" lon="26.136240">
<ele>173.447388</ele>
<time>2010-07-17T13:38:20Z</time>
<desc>lat.=55.821022, lon.=26.136240, Alt.=173.447388m. Speed=0.324000m/h.</desc>
<speed>0.090000</speed>
</trkpt>
<trkpt lat="55.821022" lon="26.136242">
<ele>173.400513</ele>
<time>2010-07-17T13:38:21Z</time>
<desc>lat.=55.821022, lon.=26.136242, Alt.=173.400513m. Speed=0.468000m/h.</desc>
<speed>0.130000</speed>
</trkpt>
<trkpt lat="55.821022" lon="26.136242">
<ele>173.357544</ele>
<time>2010-07-17T13:38:22Z</time>
<desc>lat.=55.821022, lon.=26.136242, Alt.=173.357544m. Speed=0.504000m/h.</desc>
<speed>0.140000</speed>
</trkpt>
<trkpt lat="55.821022" lon="26.136244">
<ele>173.318481</ele>
<time>2010-07-17T13:38:23Z</time>
<desc>lat.=55.821022, lon.=26.136244, Alt.=173.318481m. Speed=0.396000m/h.</desc>
<speed>0.110000</speed>
</trkpt>
<trkpt lat="55.821018" lon="26.136244">
<ele>173.291138</ele>
<time>2010-07-17T13:38:24Z</time>
<desc>lat.=55.821018, lon.=26.136244, Alt.=173.291138m. Speed=0.216000m/h.</desc>
<speed>0.060000</speed>
</trkpt>
<trkpt lat="55.821018" lon="26.136244">
<ele>173.263794</ele>
<time>2010-07-17T13:38:25Z</time>
<desc>lat.=55.821018, lon.=26.136244, Alt.=173.263794m. Speed=0.144000m/h.</desc>
<speed>0.040000</speed>
</trkpt>
<trkpt lat="55.821018" lon="26.136244">
<ele>173.252075</ele>
<time>2010-07-17T13:38:26Z</time>
<desc>lat.=55.821018, lon.=26.136244, Alt.=173.252075m. Speed=0.036000m/h.</desc>
<speed>0.010000</speed>
</trkpt>
<trkpt lat="55.821018" lon="26.136244">
<ele>173.244263</ele>
<time>2010-07-17T13:38:27Z</time>
<desc>lat.=55.821018, lon.=26.136244, Alt.=173.244263m. Speed=0.072000m/h.</desc>
<speed>0.020000</speed>
</trkpt>
<trkpt lat="55.821018" lon="26.136244">
<ele>173.255981</ele>
<time>2010-07-17T13:38:28Z</time>
<desc>lat.=55.821018, lon.=26.136244, Alt.=173.255981m. Speed=0.144000m/h.</desc>
<speed>0.040000</speed>
</trkpt>
<trkpt lat="55.821018" lon="26.136244">
<ele>173.263794</ele>
<time>2010-07-17T13:38:29Z</time>
<desc>lat.=55.821018, lon.=26.136244, Alt.=173.263794m. Speed=0.108000m/h.</desc>
<speed>0.030000</speed>
</trkpt>
<trkpt lat="55.821018" lon="26.136244">
<ele>173.267700</ele>
<time>2010-07-17T13:38:30Z</time>
<desc>lat.=55.821018, lon.=26.136244, Alt.=173.267700m. Speed=0.108000m/h.</desc>
<speed>0.030000</speed>
</trkpt>
<trkpt lat="55.821018" lon="26.136242">
<ele>173.271606</ele>
<time>2010-07-17T13:38:31Z</time>
<desc>lat.=55.821018, lon.=26.136242, Alt.=173.271606m. Speed=0.108000m/h.</desc>
<speed>0.030000</speed>
</trkpt>
<trkpt lat="55.821018" lon="26.136242">
<ele>173.267700</ele>
<time>2010-07-17T13:38:32Z</time>
<desc>lat.=55.821018, lon.=26.136242, Alt.=173.267700m. Speed=0.036000m/h.</desc>
<speed>0.010000</speed>
</trkpt>
<trkpt lat="55.821018" lon="26.136242">
<ele>173.263794</ele>
<time>2010-07-17T13:38:33Z</time>
<desc>lat.=55.821018, lon.=26.136242, Alt.=173.263794m. Speed=0.072000m/h.</desc>
<speed>0.020000</speed>
</trkpt>
<trkpt lat="55.821018" lon="26.136242">
<ele>173.263794</ele>
<time>2010-07-17T13:38:34Z</time>
<desc>lat.=55.821018, lon.=26.136242, Alt.=173.263794m. Speed=0.000000m/h.</desc>
<speed>0.000000</speed>
</trkpt>
<trkpt lat="55.821018" lon="26.136242">
<ele>173.267700</ele>
<time>2010-07-17T13:38:35Z</time>
<desc>lat.=55.821018, lon.=26.136242, Alt.=173.267700m. Speed=0.180000m/h.</desc>
<speed>0.050000</speed>
</trkpt>
<trkpt lat="55.821014" lon="26.136242">
<ele>173.271606</ele>
<time>2010-07-17T13:38:36Z</time>
<desc>lat.=55.821014, lon.=26.136242, Alt.=173.271606m. Speed=0.108000m/h.</desc>
<speed>0.030000</speed>
</trkpt>
<trkpt lat="55.821014" lon="26.136242">
<ele>173.267700</ele>
<time>2010-07-17T13:38:37Z</time>
<desc>lat.=55.821014, lon.=26.136242, Alt.=173.267700m. Speed=0.360000m/h.</desc>
<speed>0.100000</speed>
</trkpt>
<trkpt lat="55.821014" lon="26.136242">
<ele>173.267700</ele>
<time>2010-07-17T13:38:38Z</time>
<desc>lat.=55.821014, lon.=26.136242, Alt.=173.267700m. Speed=0.108000m/h.</desc>
<speed>0.030000</speed>
</trkpt>
<trkpt lat="55.821014" lon="26.136242">
<ele>173.267700</ele>
<time>2010-07-17T13:38:39Z</time>
<desc>lat.=55.821014, lon.=26.136242, Alt.=173.267700m. Speed=0.036000m/h.</desc>
<speed>0.010000</speed>
</trkpt>
<trkpt lat="55.821018" lon="26.136242">
<ele>173.271606</ele>
<time>2010-07-17T13:38:40Z</time>
<desc>lat.=55.821018, lon.=26.136242, Alt.=173.271606m. Speed=0.144000m/h.</desc>
<speed>0.040000</speed>
</trkpt>
<trkpt lat="55.821018" lon="26.136242">
<ele>173.271606</ele>
<time>2010-07-17T13:38:41Z</time>
<desc>lat.=55.821018, lon.=26.136242, Alt.=173.271606m. Speed=0.108000m/h.</desc>
<speed>0.030000</speed>
</trkpt>
<trkpt lat="55.821018" lon="26.136242">
<ele>173.271606</ele>
<time>2010-07-17T13:38:42Z</time>
<desc>lat.=55.821018, lon.=26.136242, Alt.=173.271606m. Speed=0.072000m/h.</desc>
<speed>0.020000</speed>
</trkpt>
<trkpt lat="55.821018" lon="26.136242">
<ele>173.271606</ele>
<time>2010-07-17T13:38:43Z</time>
<desc>lat.=55.821018, lon.=26.136242, Alt.=173.271606m. Speed=0.036000m/h.</desc>
<speed>0.010000</speed>
</trkpt>
<trkpt lat="55.821018" lon="26.136242">
<ele>173.271606</ele>
<time>2010-07-17T13:38:44Z</time>
<desc>lat.=55.821018, lon.=26.136242, Alt.=173.271606m. Speed=0.144000m/h.</desc>
<speed>0.040000</speed>
</trkpt>
<trkpt lat="55.821018" lon="26.136242">
<ele>173.267700</ele>
<time>2010-07-17T13:38:45Z</time>
<desc>lat.=55.821018, lon.=26.136242, Alt.=173.267700m. Speed=0.036000m/h.</desc>
<speed>0.010000</speed>
</trkpt>
<trkpt lat="55.821018" lon="26.136242">
<ele>173.267700</ele>
<time>2010-07-17T13:38:46Z</time>
<desc>lat.=55.821018, lon.=26.136242, Alt.=173.267700m. Speed=0.000000m/h.</desc>
<speed>0.000000</speed>
</trkpt>
<trkpt lat="55.821018" lon="26.136242">
<ele>173.263794</ele>
<time>2010-07-17T13:38:47Z</time>
<desc>lat.=55.821018, lon.=26.136242, Alt.=173.263794m. Speed=0.108000m/h.</desc>
<speed>0.030000</speed>
</trkpt>
<trkpt lat="55.821018" lon="26.136242">
<ele>173.255981</ele>
<time>2010-07-17T13:38:48Z</time>
<desc>lat.=55.821018, lon.=26.136242, Alt.=173.255981m. Speed=0.072000m/h.</desc>
<speed>0.020000</speed>
</trkpt>
<trkpt lat="55.821018" lon="26.136242">
<ele>173.255981</ele>
<time>2010-07-17T13:38:49Z</time>
<desc>lat.=55.821018, lon.=26.136242, Alt.=173.255981m. Speed=0.036000m/h.</desc>
<speed>0.010000</speed>
</trkpt>
<trkpt lat="55.821018" lon="26.136242">
<ele>173.255981</ele>
<time>2010-07-17T13:38:50Z</time>
<desc>lat.=55.821018, lon.=26.136242, Alt.=173.255981m. Speed=0.000000m/h.</desc>
<speed>0.000000</speed>
</trkpt>
<trkpt lat="55.821018" lon="26.136242">
<ele>173.255981</ele>
<time>2010-07-17T13:38:51Z</time>
<desc>lat.=55.821018, lon.=26.136242, Alt.=173.255981m. Speed=0.072000m/h.</desc>
<speed>0.020000</speed>
</trkpt>
<trkpt lat="55.821018" lon="26.136242">
<ele>173.255981</ele>
<time>2010-07-17T13:38:52Z</time>
<desc>lat.=55.821018, lon.=26.136242, Alt.=173.255981m. Speed=0.000000m/h.</desc>
<speed>0.000000</speed>
</trkpt>
<trkpt lat="55.821018" lon="26.136242">
<ele>173.252075</ele>
<time>2010-07-17T13:38:53Z</time>
<desc>lat.=55.821018, lon.=26.136242, Alt.=173.252075m. Speed=0.072000m/h.</desc>
<speed>0.020000</speed>
</trkpt>
<trkpt lat="55.821018" lon="26.136242">
<ele>173.252075</ele>
<time>2010-07-17T13:38:54Z</time>
<desc>lat.=55.821018, lon.=26.136242, Alt.=173.252075m. Speed=0.036000m/h.</desc>
<speed>0.010000</speed>
</trkpt>
<trkpt lat="55.821018" lon="26.136242">
<ele>173.248169</ele>
<time>2010-07-17T13:38:55Z</time>
<desc>lat.=55.821018, lon.=26.136242, Alt.=173.248169m. Speed=0.036000m/h.</desc>
<speed>0.010000</speed>
</trkpt>
<trkpt lat="55.821018" lon="26.136242">
<ele>173.244263</ele>
<time>2010-07-17T13:38:56Z</time>
<desc>lat.=55.821018, lon.=26.136242, Alt.=173.244263m. Speed=0.108000m/h.</desc>
<speed>0.030000</speed>
</trkpt>
<trkpt lat="55.821018" lon="26.136242">
<ele>173.244263</ele>
<time>2010-07-17T13:38:57Z</time>
<desc>lat.=55.821018, lon.=26.136242, Alt.=173.244263m. Speed=0.000000m/h.</desc>
<speed>0.000000</speed>
</trkpt>
<trkpt lat="55.821018" lon="26.136242">
<ele>173.248169</ele>
<time>2010-07-17T13:38:58Z</time>
<desc>lat.=55.821018, lon.=26.136242, Alt.=173.248169m. Speed=0.000000m/h.</desc>
<speed>0.000000</speed>
</trkpt>
<trkpt lat="55.821018" lon="26.136242">
<ele>173.248169</ele>
<time>2010-07-17T13:38:59Z</time>
<desc>lat.=55.821018, lon.=26.136242, Alt.=173.248169m. Speed=0.000000m/h.</desc>
<speed>0.000000</speed>
</trkpt>
<trkpt lat="55.821018" lon="26.136242">
<ele>173.248169</ele>
<time>2010-07-17T13:39:00Z</time>
<desc>lat.=55.821018, lon.=26.136242, Alt.=173.248169m. Speed=0.072000m/h.</desc>
<speed>0.020000</speed>
</trkpt>
<trkpt lat="55.821018" lon="26.136242">
<ele>173.248169</ele>
<time>2010-07-17T13:39:01Z</time>
<desc>lat.=55.821018, lon.=26.136242, Alt.=173.248169m. Speed=0.036000m/h.</desc>
<speed>0.010000</speed>
</trkpt>
<trkpt lat="55.821018" lon="26.136242">
<ele>173.248169</ele>
<time>2010-07-17T13:39:02Z</time>
<desc>lat.=55.821018, lon.=26.136242, Alt.=173.248169m. Speed=0.000000m/h.</desc>
<speed>0.000000</speed>
</trkpt>
<trkpt lat="55.821018" lon="26.136242">
<ele>173.252075</ele>
<time>2010-07-17T13:39:03Z</time>
<desc>lat.=55.821018, lon.=26.136242, Alt.=173.252075m. Speed=0.000000m/h.</desc>
<speed>0.000000</speed>
</trkpt>
<trkpt lat="55.821018" lon="26.136242">
<ele>173.252075</ele>
<time>2010-07-17T13:39:04Z</time>
<desc>lat.=55.821018, lon.=26.136242, Alt.=173.252075m. Speed=0.000000m/h.</desc>
<speed>0.000000</speed>
</trkpt>
<trkpt lat="55.821018" lon="26.136242">
<ele>173.248169</ele>
<time>2010-07-17T13:39:05Z</time>
<desc>lat.=55.821018, lon.=26.136242, Alt.=173.248169m. Speed=0.036000m/h.</desc>
<speed>0.010000</speed>
</trkpt>
<trkpt lat="55.821018" lon="26.136242">
<ele>173.244263</ele>
<time>2010-07-17T13:39:06Z</time>
<desc>lat.=55.821018, lon.=26.136242, Alt.=173.244263m. Speed=0.072000m/h.</desc>
<speed>0.020000</speed>
</trkpt>
<trkpt lat="55.821018" lon="26.136242">
<ele>173.236450</ele>
<time>2010-07-17T13:39:07Z</time>
<desc>lat.=55.821018, lon.=26.136242, Alt.=173.236450m. Speed=0.000000m/h.</desc>
<speed>0.000000</speed>
</trkpt>
<trkpt lat="55.821018" lon="26.136242">
<ele>173.224731</ele>
<time>2010-07-17T13:39:08Z</time>
<desc>lat.=55.821018, lon.=26.136242, Alt.=173.224731m. Speed=0.036000m/h.</desc>
<speed>0.010000</speed>
</trkpt>
<trkpt lat="55.821018" lon="26.136242">
<ele>173.209106</ele>
<time>2010-07-17T13:39:09Z</time>
<desc>lat.=55.821018, lon.=26.136242, Alt.=173.209106m. Speed=0.000000m/h.</desc>
<speed>0.000000</speed>
</trkpt>
<trkpt lat="55.821018" lon="26.136242">
<ele>173.201294</ele>
<time>2010-07-17T13:39:10Z</time>
<desc>lat.=55.821018, lon.=26.136242, Alt.=173.201294m. Speed=0.144000m/h.</desc>
<speed>0.040000</speed>
</trkpt>
<trkpt lat="55.821018" lon="26.136242">
<ele>173.201294</ele>
<time>2010-07-17T13:39:11Z</time>
<desc>lat.=55.821018, lon.=26.136242, Alt.=173.201294m. Speed=0.000000m/h.</desc>
<speed>0.000000</speed>
</trkpt>
<trkpt lat="55.821018" lon="26.136242">
<ele>173.197388</ele>
<time>2010-07-17T13:39:12Z</time>
<desc>lat.=55.821018, lon.=26.136242, Alt.=173.197388m. Speed=0.036000m/h.</desc>
<speed>0.010000</speed>
</trkpt>
<trkpt lat="55.821018" lon="26.136242">
<ele>173.189575</ele>
<time>2010-07-17T13:39:13Z</time>
<desc>lat.=55.821018, lon.=26.136242, Alt.=173.189575m. Speed=0.000000m/h.</desc>
<speed>0.000000</speed>
</trkpt>
<trkpt lat="55.821018" lon="26.136242">
<ele>173.189575</ele>
<time>2010-07-17T13:39:14Z</time>
<desc>lat.=55.821018, lon.=26.136242, Alt.=173.189575m. Speed=0.072000m/h.</desc>
<speed>0.020000</speed>
</trkpt>
<trkpt lat="55.821018" lon="26.136242">
<ele>173.189575</ele>
<time>2010-07-17T13:39:15Z</time>
<desc>lat.=55.821018, lon.=26.136242, Alt.=173.189575m. Speed=0.036000m/h.</desc>
<speed>0.010000</speed>
</trkpt>
<trkpt lat="55.821018" lon="26.136242">
<ele>173.185669</ele>
<time>2010-07-17T13:39:16Z</time>
<desc>lat.=55.821018, lon.=26.136242, Alt.=173.185669m. Speed=0.036000m/h.</desc>
<speed>0.010000</speed>
</trkpt>
<trkpt lat="55.821018" lon="26.136242">
<ele>173.185669</ele>
<time>2010-07-17T13:39:17Z</time>
<desc>lat.=55.821018, lon.=26.136242, Alt.=173.185669m. Speed=0.036000m/h.</desc>
<speed>0.010000</speed>
</trkpt>
<trkpt lat="55.821018" lon="26.136242">
<ele>173.189575</ele>
<time>2010-07-17T13:39:18Z</time>
<desc>lat.=55.821018, lon.=26.136242, Alt.=173.189575m. Speed=0.108000m/h.</desc>
<speed>0.030000</speed>
</trkpt>
<trkpt lat="55.821018" lon="26.136242">
<ele>173.193481</ele>
<time>2010-07-17T13:39:19Z</time>
<desc>lat.=55.821018, lon.=26.136242, Alt.=173.193481m. Speed=0.072000m/h.</desc>
<speed>0.020000</speed>
</trkpt>
<trkpt lat="55.821018" lon="26.136242">
<ele>173.193481</ele>
<time>2010-07-17T13:39:20Z</time>
<desc>lat.=55.821018, lon.=26.136242, Alt.=173.193481m. Speed=0.000000m/h.</desc>
<speed>0.000000</speed>
</trkpt>
<trkpt lat="55.821018" lon="26.136242">
<ele>173.193481</ele>
<time>2010-07-17T13:39:21Z</time>
<desc>lat.=55.821018, lon.=26.136242, Alt.=173.193481m. Speed=0.000000m/h.</desc>
<speed>0.000000</speed>
</trkpt>
<trkpt lat="55.821018" lon="26.136242">
<ele>173.197388</ele>
<time>2010-07-17T13:39:22Z</time>
<desc>lat.=55.821018, lon.=26.136242, Alt.=173.197388m. Speed=0.036000m/h.</desc>
<speed>0.010000</speed>
</trkpt>
<trkpt lat="55.821018" lon="26.136242">
<ele>173.201294</ele>
<time>2010-07-17T13:39:23Z</time>
<desc>lat.=55.821018, lon.=26.136242, Alt.=173.201294m. Speed=0.108000m/h.</desc>
<speed>0.030000</speed>
</trkpt>
<trkpt lat="55.821018" lon="26.136242">
<ele>173.201294</ele>
<time>2010-07-17T13:39:24Z</time>
<desc>lat.=55.821018, lon.=26.136242, Alt.=173.201294m. Speed=0.036000m/h.</desc>
<speed>0.010000</speed>
</trkpt>
<trkpt lat="55.821018" lon="26.136242">
<ele>173.205200</ele>
<time>2010-07-17T13:39:25Z</time>
<desc>lat.=55.821018, lon.=26.136242, Alt.=173.205200m. Speed=0.036000m/h.</desc>
<speed>0.010000</speed>
</trkpt>
<trkpt lat="55.821018" lon="26.136242">
<ele>173.205200</ele>
<time>2010-07-17T13:39:26Z</time>
<desc>lat.=55.821018, lon.=26.136242, Alt.=173.205200m. Speed=0.072000m/h.</desc>
<speed>0.020000</speed>
</trkpt>
<trkpt lat="55.821018" lon="26.136242">
<ele>173.205200</ele>
<time>2010-07-17T13:39:27Z</time>
<desc>lat.=55.821018, lon.=26.136242, Alt.=173.205200m. Speed=0.000000m/h.</desc>
<speed>0.000000</speed>
</trkpt>
<trkpt lat="55.821018" lon="26.136242">
<ele>173.205200</ele>
<time>2010-07-17T13:39:28Z</time>
<desc>lat.=55.821018, lon.=26.136242, Alt.=173.205200m. Speed=0.036000m/h.</desc>
<speed>0.010000</speed>
</trkpt>
<trkpt lat="55.821018" lon="26.136242">
<ele>173.197388</ele>
<time>2010-07-17T13:39:29Z</time>
<desc>lat.=55.821018, lon.=26.136242, Alt.=173.197388m. Speed=0.072000m/h.</desc>
<speed>0.020000</speed>
</trkpt>
<trkpt lat="55.821018" lon="26.136242">
<ele>173.197388</ele>
<time>2010-07-17T13:39:30Z</time>
<desc>lat.=55.821018, lon.=26.136242, Alt.=173.197388m. Speed=0.072000m/h.</desc>
<speed>0.020000</speed>
</trkpt>
<trkpt lat="55.821018" lon="26.136242">
<ele>173.193481</ele>
<time>2010-07-17T13:39:31Z</time>
<desc>lat.=55.821018, lon.=26.136242, Alt.=173.193481m. Speed=0.036000m/h.</desc>
<speed>0.010000</speed>
</trkpt>
<trkpt lat="55.821018" lon="26.136242">
<ele>173.193481</ele>
<time>2010-07-17T13:39:32Z</time>
<desc>lat.=55.821018, lon.=26.136242, Alt.=173.193481m. Speed=0.000000m/h.</desc>
<speed>0.000000</speed>
</trkpt>
<trkpt lat="55.821018" lon="26.136242">
<ele>173.189575</ele>
<time>2010-07-17T13:39:33Z</time>
<desc>lat.=55.821018, lon.=26.136242, Alt.=173.189575m. Speed=0.036000m/h.</desc>
<speed>0.010000</speed>
</trkpt>
<trkpt lat="55.821018" lon="26.136242">
<ele>173.185669</ele>
<time>2010-07-17T13:39:34Z</time>
<desc>lat.=55.821018, lon.=26.136242, Alt.=173.185669m. Speed=0.000000m/h.</desc>
<speed>0.000000</speed>
</trkpt>
<trkpt lat="55.821018" lon="26.136242">
<ele>173.185669</ele>
<time>2010-07-17T13:39:35Z</time>
<desc>lat.=55.821018, lon.=26.136242, Alt.=173.185669m. Speed=0.036000m/h.</desc>
<speed>0.010000</speed>
</trkpt>
<trkpt lat="55.821018" lon="26.136242">
<ele>173.185669</ele>
<time>2010-07-17T13:39:36Z</time>
<desc>lat.=55.821018, lon.=26.136242, Alt.=173.185669m. Speed=0.036000m/h.</desc>
<speed>0.010000</speed>
</trkpt>
<trkpt lat="55.821018" lon="26.136242">
<ele>173.189575</ele>
<time>2010-07-17T13:39:37Z</time>
<desc>lat.=55.821018, lon.=26.136242, Alt.=173.189575m. Speed=0.000000m/h.</desc>
<speed>0.000000</speed>
</trkpt>
<trkpt lat="55.821018" lon="26.136242">
<ele>173.189575</ele>
<time>2010-07-17T13:39:38Z</time>
<desc>lat.=55.821018, lon.=26.136242, Alt.=173.189575m. Speed=0.180000m/h.</desc>
<speed>0.050000</speed>
</trkpt>
<trkpt lat="55.821018" lon="26.136242">
<ele>173.193481</ele>
<time>2010-07-17T13:39:39Z</time>
<desc>lat.=55.821018, lon.=26.136242, Alt.=173.193481m. Speed=0.000000m/h.</desc>
<speed>0.000000</speed>
</trkpt>
<trkpt lat="55.821018" lon="26.136242">
<ele>173.193481</ele>
<time>2010-07-17T13:39:40Z</time>
<desc>lat.=55.821018, lon.=26.136242, Alt.=173.193481m. Speed=0.036000m/h.</desc>
<speed>0.010000</speed>
</trkpt>
<trkpt lat="55.821018" lon="26.136242">
<ele>173.193481</ele>
<time>2010-07-17T13:39:41Z</time>
<desc>lat.=55.821018, lon.=26.136242, Alt.=173.193481m. Speed=0.036000m/h.</desc>
<speed>0.010000</speed>
</trkpt>
<trkpt lat="55.821018" lon="26.136242">
<ele>173.189575</ele>
<time>2010-07-17T13:39:42Z</time>
<desc>lat.=55.821018, lon.=26.136242, Alt.=173.189575m. Speed=0.072000m/h.</desc>
<speed>0.020000</speed>
</trkpt>
<trkpt lat="55.821018" lon="26.136242">
<ele>173.189575</ele>
<time>2010-07-17T13:39:43Z</time>
<desc>lat.=55.821018, lon.=26.136242, Alt.=173.189575m. Speed=0.036000m/h.</desc>
<speed>0.010000</speed>
</trkpt>
<trkpt lat="55.821018" lon="26.136242">
<ele>173.189575</ele>
<time>2010-07-17T13:39:44Z</time>
<desc>lat.=55.821018, lon.=26.136242, Alt.=173.189575m. Speed=0.036000m/h.</desc>
<speed>0.010000</speed>
</trkpt>
<trkpt lat="55.821018" lon="26.136242">
<ele>173.189575</ele>
<time>2010-07-17T13:39:45Z</time>
<desc>lat.=55.821018, lon.=26.136242, Alt.=173.189575m. Speed=0.108000m/h.</desc>
<speed>0.030000</speed>
</trkpt>
<trkpt lat="55.821018" lon="26.136242">
<ele>173.189575</ele>
<time>2010-07-17T13:39:46Z</time>
<desc>lat.=55.821018, lon.=26.136242, Alt.=173.189575m. Speed=0.072000m/h.</desc>
<speed>0.020000</speed>
</trkpt>
<trkpt lat="55.821018" lon="26.136242">
<ele>173.189575</ele>
<time>2010-07-17T13:39:47Z</time>
<desc>lat.=55.821018, lon.=26.136242, Alt.=173.189575m. Speed=0.072000m/h.</desc>
<speed>0.020000</speed>
</trkpt>
<trkpt lat="55.821018" lon="26.136242">
<ele>173.189575</ele>
<time>2010-07-17T13:39:48Z</time>
<desc>lat.=55.821018, lon.=26.136242, Alt.=173.189575m. Speed=0.000000m/h.</desc>
<speed>0.000000</speed>
</trkpt>
<trkpt lat="55.821018" lon="26.136242">
<ele>173.189575</ele>
<time>2010-07-17T13:39:49Z</time>
<desc>lat.=55.821018, lon.=26.136242, Alt.=173.189575m. Speed=0.036000m/h.</desc>
<speed>0.010000</speed>
</trkpt>
<trkpt lat="55.821018" lon="26.136242">
<ele>173.189575</ele>
<time>2010-07-17T13:39:50Z</time>
<desc>lat.=55.821018, lon.=26.136242, Alt.=173.189575m. Speed=0.000000m/h.</desc>
<speed>0.000000</speed>
</trkpt>
<trkpt lat="55.821018" lon="26.136242">
<ele>173.189575</ele>
<time>2010-07-17T13:39:51Z</time>
<desc>lat.=55.821018, lon.=26.136242, Alt.=173.189575m. Speed=0.036000m/h.</desc>
<speed>0.010000</speed>
</trkpt>
<trkpt lat="55.821018" lon="26.136242">
<ele>173.189575</ele>
<time>2010-07-17T13:39:52Z</time>
<desc>lat.=55.821018, lon.=26.136242, Alt.=173.189575m. Speed=0.000000m/h.</desc>
<speed>0.000000</speed>
</trkpt>
<trkpt lat="55.821018" lon="26.136242">
<ele>173.189575</ele>
<time>2010-07-17T13:39:53Z</time>
<desc>lat.=55.821018, lon.=26.136242, Alt.=173.189575m. Speed=0.000000m/h.</desc>
<speed>0.000000</speed>
</trkpt>
<trkpt lat="55.821018" lon="26.136242">
<ele>173.185669</ele>
<time>2010-07-17T13:39:54Z</time>
<desc>lat.=55.821018, lon.=26.136242, Alt.=173.185669m. Speed=0.000000m/h.</desc>
<speed>0.000000</speed>
</trkpt>
<trkpt lat="55.821018" lon="26.136242">
<ele>173.185669</ele>
<time>2010-07-17T13:39:55Z</time>
<desc>lat.=55.821018, lon.=26.136242, Alt.=173.185669m. Speed=0.000000m/h.</desc>
<speed>0.000000</speed>
</trkpt>
<trkpt lat="55.821018" lon="26.136242">
<ele>173.185669</ele>
<time>2010-07-17T13:39:56Z</time>
<desc>lat.=55.821018, lon.=26.136242, Alt.=173.185669m. Speed=0.036000m/h.</desc>
<speed>0.010000</speed>
</trkpt>
<trkpt lat="55.821018" lon="26.136242">
<ele>173.185669</ele>
<time>2010-07-17T13:39:57Z</time>
<desc>lat.=55.821018, lon.=26.136242, Alt.=173.185669m. Speed=0.072000m/h.</desc>
<speed>0.020000</speed>
</trkpt>
<trkpt lat="55.821018" lon="26.136242">
<ele>173.185669</ele>
<time>2010-07-17T13:39:58Z</time>
<desc>lat.=55.821018, lon.=26.136242, Alt.=173.185669m. Speed=0.036000m/h.</desc>
<speed>0.010000</speed>
</trkpt>
<trkpt lat="55.821018" lon="26.136242">
<ele>173.185669</ele>
<time>2010-07-17T13:39:59Z</time>
<desc>lat.=55.821018, lon.=26.136242, Alt.=173.185669m. Speed=0.072000m/h.</desc>
<speed>0.020000</speed>
</trkpt>
<trkpt lat="55.821018" lon="26.136242">
<ele>173.185669</ele>
<time>2010-07-17T13:40:00Z</time>
<desc>lat.=55.821018, lon.=26.136242, Alt.=173.185669m. Speed=0.036000m/h.</desc>
<speed>0.010000</speed>
</trkpt>
<trkpt lat="55.821018" lon="26.136242">
<ele>173.185669</ele>
<time>2010-07-17T13:40:01Z</time>
<desc>lat.=55.821018, lon.=26.136242, Alt.=173.185669m. Speed=0.036000m/h.</desc>
<speed>0.010000</speed>
</trkpt>
<trkpt lat="55.821018" lon="26.136242">
<ele>173.185669</ele>
<time>2010-07-17T13:40:02Z</time>
<desc>lat.=55.821018, lon.=26.136242, Alt.=173.185669m. Speed=0.036000m/h.</desc>
<speed>0.010000</speed>
</trkpt>
<trkpt lat="55.821018" lon="26.136242">
<ele>173.185669</ele>
<time>2010-07-17T13:40:03Z</time>
<desc>lat.=55.821018, lon.=26.136242, Alt.=173.185669m. Speed=0.036000m/h.</desc>
<speed>0.010000</speed>
</trkpt>
<trkpt lat="55.821018" lon="26.136242">
<ele>173.181763</ele>
<time>2010-07-17T13:40:04Z</time>
<desc>lat.=55.821018, lon.=26.136242, Alt.=173.181763m. Speed=0.036000m/h.</desc>
<speed>0.010000</speed>
</trkpt>
<trkpt lat="55.821018" lon="26.136242">
<ele>173.181763</ele>
<time>2010-07-17T13:40:05Z</time>
<desc>lat.=55.821018, lon.=26.136242, Alt.=173.181763m. Speed=0.000000m/h.</desc>
<speed>0.000000</speed>
</trkpt>
<trkpt lat="55.821018" lon="26.136242">
<ele>173.181763</ele>
<time>2010-07-17T13:40:06Z</time>
<desc>lat.=55.821018, lon.=26.136242, Alt.=173.181763m. Speed=0.072000m/h.</desc>
<speed>0.020000</speed>
</trkpt>
<trkpt lat="55.821018" lon="26.136242">
<ele>173.181763</ele>
<time>2010-07-17T13:40:07Z</time>
<desc>lat.=55.821018, lon.=26.136242, Alt.=173.181763m. Speed=0.072000m/h.</desc>
<speed>0.020000</speed>
</trkpt>
<trkpt lat="55.821018" lon="26.136242">
<ele>173.173950</ele>
<time>2010-07-17T13:40:08Z</time>
<desc>lat.=55.821018, lon.=26.136242, Alt.=173.173950m. Speed=0.000000m/h.</desc>
<speed>0.000000</speed>
</trkpt>
<trkpt lat="55.821018" lon="26.136242">
<ele>173.170044</ele>
<time>2010-07-17T13:40:09Z</time>
<desc>lat.=55.821018, lon.=26.136242, Alt.=173.170044m. Speed=0.000000m/h.</desc>
<speed>0.000000</speed>
</trkpt>
<trkpt lat="55.821018" lon="26.136242">
<ele>173.166138</ele>
<time>2010-07-17T13:40:10Z</time>
<desc>lat.=55.821018, lon.=26.136242, Alt.=173.166138m. Speed=0.000000m/h.</desc>
<speed>0.000000</speed>
</trkpt>
<trkpt lat="55.821018" lon="26.136242">
<ele>173.162231</ele>
<time>2010-07-17T13:40:11Z</time>
<desc>lat.=55.821018, lon.=26.136242, Alt.=173.162231m. Speed=0.036000m/h.</desc>
<speed>0.010000</speed>
</trkpt>
<trkpt lat="55.821018" lon="26.136242">
<ele>173.158325</ele>
<time>2010-07-17T13:40:12Z</time>
<desc>lat.=55.821018, lon.=26.136242, Alt.=173.158325m. Speed=0.000000m/h.</desc>
<speed>0.000000</speed>
</trkpt>
<trkpt lat="55.821018" lon="26.136242">
<ele>173.150513</ele>
<time>2010-07-17T13:40:13Z</time>
<desc>lat.=55.821018, lon.=26.136242, Alt.=173.150513m. Speed=0.000000m/h.</desc>
<speed>0.000000</speed>
</trkpt>
<trkpt lat="55.821018" lon="26.136242">
<ele>173.146606</ele>
<time>2010-07-17T13:40:14Z</time>
<desc>lat.=55.821018, lon.=26.136242, Alt.=173.146606m. Speed=0.000000m/h.</desc>
<speed>0.000000</speed>
</trkpt>
<trkpt lat="55.821018" lon="26.136242">
<ele>173.150513</ele>
<time>2010-07-17T13:40:15Z</time>
<desc>lat.=55.821018, lon.=26.136242, Alt.=173.150513m. Speed=0.036000m/h.</desc>
<speed>0.010000</speed>
</trkpt>
<trkpt lat="55.821018" lon="26.136240">
<ele>173.142700</ele>
<time>2010-07-17T13:40:16Z</time>
<desc>lat.=55.821018, lon.=26.136240, Alt.=173.142700m. Speed=0.036000m/h.</desc>
<speed>0.010000</speed>
</trkpt>
<trkpt lat="55.821018" lon="26.136240">
<ele>173.142700</ele>
<time>2010-07-17T13:40:17Z</time>
<desc>lat.=55.821018, lon.=26.136240, Alt.=173.142700m. Speed=0.000000m/h.</desc>
<speed>0.000000</speed>
</trkpt>
<trkpt lat="55.821018" lon="26.136240">
<ele>173.134888</ele>
<time>2010-07-17T13:40:18Z</time>
<desc>lat.=55.821018, lon.=26.136240, Alt.=173.134888m. Speed=0.036000m/h.</desc>
<speed>0.010000</speed>
</trkpt>
<trkpt lat="55.821018" lon="26.136240">
<ele>173.134888</ele>
<time>2010-07-17T13:40:19Z</time>
<desc>lat.=55.821018, lon.=26.136240, Alt.=173.134888m. Speed=0.036000m/h.</desc>
<speed>0.010000</speed>
</trkpt>
<trkpt lat="55.821018" lon="26.136240">
<ele>173.146606</ele>
<time>2010-07-17T13:40:20Z</time>
<desc>lat.=55.821018, lon.=26.136240, Alt.=173.146606m. Speed=0.432000m/h.</desc>
<speed>0.120000</speed>
</trkpt>
<trkpt lat="55.821018" lon="26.136240">
<ele>173.146606</ele>
<time>2010-07-17T13:40:21Z</time>
<desc>lat.=55.821018, lon.=26.136240, Alt.=173.146606m. Speed=0.036000m/h.</desc>
<speed>0.010000</speed>
</trkpt>
<trkpt lat="55.821018" lon="26.136242">
<ele>173.142700</ele>
<time>2010-07-17T13:40:22Z</time>
<desc>lat.=55.821018, lon.=26.136242, Alt.=173.142700m. Speed=0.036000m/h.</desc>
<speed>0.010000</speed>
</trkpt>
<trkpt lat="55.821018" lon="26.136242">
<ele>173.138794</ele>
<time>2010-07-17T13:40:23Z</time>
<desc>lat.=55.821018, lon.=26.136242, Alt.=173.138794m. Speed=0.036000m/h.</desc>
<speed>0.010000</speed>
</trkpt>
<trkpt lat="55.821018" lon="26.136242">
<ele>173.130981</ele>
<time>2010-07-17T13:40:24Z</time>
<desc>lat.=55.821018, lon.=26.136242, Alt.=173.130981m. Speed=0.036000m/h.</desc>
<speed>0.010000</speed>
</trkpt>
<trkpt lat="55.821018" lon="26.136242">
<ele>173.127075</ele>
<time>2010-07-17T13:40:25Z</time>
<desc>lat.=55.821018, lon.=26.136242, Alt.=173.127075m. Speed=0.072000m/h.</desc>
<speed>0.020000</speed>
</trkpt>
<trkpt lat="55.821018" lon="26.136242">
<ele>173.123169</ele>
<time>2010-07-17T13:40:26Z</time>
<desc>lat.=55.821018, lon.=26.136242, Alt.=173.123169m. Speed=0.036000m/h.</desc>
<speed>0.010000</speed>
</trkpt>
<trkpt lat="55.821018" lon="26.136240">
<ele>173.119263</ele>
<time>2010-07-17T13:40:27Z</time>
<desc>lat.=55.821018, lon.=26.136240, Alt.=173.119263m. Speed=0.036000m/h.</desc>
<speed>0.010000</speed>
</trkpt>
<trkpt lat="55.821018" lon="26.136240">
<ele>173.115356</ele>
<time>2010-07-17T13:40:28Z</time>
<desc>lat.=55.821018, lon.=26.136240, Alt.=173.115356m. Speed=0.072000m/h.</desc>
<speed>0.020000</speed>
</trkpt>
<trkpt lat="55.821018" lon="26.136240">
<ele>173.107544</ele>
<time>2010-07-17T13:40:29Z</time>
<desc>lat.=55.821018, lon.=26.136240, Alt.=173.107544m. Speed=0.180000m/h.</desc>
<speed>0.050000</speed>
</trkpt>
<trkpt lat="55.821018" lon="26.136240">
<ele>173.103638</ele>
<time>2010-07-17T13:40:30Z</time>
<desc>lat.=55.821018, lon.=26.136240, Alt.=173.103638m. Speed=0.072000m/h.</desc>
<speed>0.020000</speed>
</trkpt>
<trkpt lat="55.821018" lon="26.136240">
<ele>173.095825</ele>
<time>2010-07-17T13:40:31Z</time>
<desc>lat.=55.821018, lon.=26.136240, Alt.=173.095825m. Speed=0.072000m/h.</desc>
<speed>0.020000</speed>
</trkpt>
<trkpt lat="55.821018" lon="26.136240">
<ele>173.091919</ele>
<time>2010-07-17T13:40:32Z</time>
<desc>lat.=55.821018, lon.=26.136240, Alt.=173.091919m. Speed=0.036000m/h.</desc>
<speed>0.010000</speed>
</trkpt>
<trkpt lat="55.821018" lon="26.136240">
<ele>173.091919</ele>
<time>2010-07-17T13:40:33Z</time>
<desc>lat.=55.821018, lon.=26.136240, Alt.=173.091919m. Speed=0.000000m/h.</desc>
<speed>0.000000</speed>
</trkpt>
<trkpt lat="55.821018" lon="26.136240">
<ele>173.091919</ele>
<time>2010-07-17T13:40:34Z</time>
<desc>lat.=55.821018, lon.=26.136240, Alt.=173.091919m. Speed=0.036000m/h.</desc>
<speed>0.010000</speed>
</trkpt>
<trkpt lat="55.821018" lon="26.136240">
<ele>173.084106</ele>
<time>2010-07-17T13:40:35Z</time>
<desc>lat.=55.821018, lon.=26.136240, Alt.=173.084106m. Speed=0.072000m/h.</desc>
<speed>0.020000</speed>
</trkpt>
<trkpt lat="55.821018" lon="26.136240">
<ele>173.080200</ele>
<time>2010-07-17T13:40:36Z</time>
<desc>lat.=55.821018, lon.=26.136240, Alt.=173.080200m. Speed=0.036000m/h.</desc>
<speed>0.010000</speed>
</trkpt>
<trkpt lat="55.821018" lon="26.136240">
<ele>173.088013</ele>
<time>2010-07-17T13:40:37Z</time>
<desc>lat.=55.821018, lon.=26.136240, Alt.=173.088013m. Speed=0.144000m/h.</desc>
<speed>0.040000</speed>
</trkpt>
<trkpt lat="55.821018" lon="26.136240">
<ele>173.095825</ele>
<time>2010-07-17T13:40:38Z</time>
<desc>lat.=55.821018, lon.=26.136240, Alt.=173.095825m. Speed=0.000000m/h.</desc>
<speed>0.000000</speed>
</trkpt>
<trkpt lat="55.821018" lon="26.136240">
<ele>173.099731</ele>
<time>2010-07-17T13:40:39Z</time>
<desc>lat.=55.821018, lon.=26.136240, Alt.=173.099731m. Speed=0.036000m/h.</desc>
<speed>0.010000</speed>
</trkpt>
<trkpt lat="55.821018" lon="26.136240">
<ele>173.107544</ele>
<time>2010-07-17T13:40:40Z</time>
<desc>lat.=55.821018, lon.=26.136240, Alt.=173.107544m. Speed=0.144000m/h.</desc>
<speed>0.040000</speed>
</trkpt>
<trkpt lat="55.821018" lon="26.136240">
<ele>173.107544</ele>
<time>2010-07-17T13:40:41Z</time>
<desc>lat.=55.821018, lon.=26.136240, Alt.=173.107544m. Speed=0.000000m/h.</desc>
<speed>0.000000</speed>
</trkpt>
<trkpt lat="55.821018" lon="26.136240">
<ele>173.111450</ele>
<time>2010-07-17T13:40:42Z</time>
<desc>lat.=55.821018, lon.=26.136240, Alt.=173.111450m. Speed=0.072000m/h.</desc>
<speed>0.020000</speed>
</trkpt>
<trkpt lat="55.821018" lon="26.136240">
<ele>173.119263</ele>
<time>2010-07-17T13:40:43Z</time>
<desc>lat.=55.821018, lon.=26.136240, Alt.=173.119263m. Speed=0.036000m/h.</desc>
<speed>0.010000</speed>
</trkpt>
<trkpt lat="55.821018" lon="26.136240">
<ele>173.119263</ele>
<time>2010-07-17T13:40:44Z</time>
<desc>lat.=55.821018, lon.=26.136240, Alt.=173.119263m. Speed=0.072000m/h.</desc>
<speed>0.020000</speed>
</trkpt>
<trkpt lat="55.821018" lon="26.136240">
<ele>173.119263</ele>
<time>2010-07-17T13:40:45Z</time>
<desc>lat.=55.821018, lon.=26.136240, Alt.=173.119263m. Speed=0.036000m/h.</desc>
<speed>0.010000</speed>
</trkpt>
<trkpt lat="55.821018" lon="26.136240">
<ele>173.115356</ele>
<time>2010-07-17T13:40:46Z</time>
<desc>lat.=55.821018, lon.=26.136240, Alt.=173.115356m. Speed=0.036000m/h.</desc>
<speed>0.010000</speed>
</trkpt>
<trkpt lat="55.821018" lon="26.136242">
<ele>173.115356</ele>
<time>2010-07-17T13:40:47Z</time>
<desc>lat.=55.821018, lon.=26.136242, Alt.=173.115356m. Speed=0.540000m/h.</desc>
<speed>0.150000</speed>
</trkpt>
<trkpt lat="55.821018" lon="26.136244">
<ele>173.115356</ele>
<time>2010-07-17T13:40:48Z</time>
<desc>lat.=55.821018, lon.=26.136244, Alt.=173.115356m. Speed=2.232000m/h.</desc>
<speed>0.620000</speed>
</trkpt>
<trkpt lat="55.821014" lon="26.136259">
<ele>173.048950</ele>
<time>2010-07-17T13:40:49Z</time>
<desc>lat.=55.821014, lon.=26.136259, Alt.=173.048950m. Speed=2.916000m/h.</desc>
<speed>0.810000</speed>
</trkpt>
<trkpt lat="55.821018" lon="26.136280">
<ele>172.838013</ele>
<time>2010-07-17T13:40:50Z</time>
<desc>lat.=55.821018, lon.=26.136280, Alt.=172.838013m. Speed=3.492000m/h.</desc>
<speed>0.970000</speed>
</trkpt>
<trkpt lat="55.821022" lon="26.136301">
<ele>172.498169</ele>
<time>2010-07-17T13:40:51Z</time>
<desc>lat.=55.821022, lon.=26.136301, Alt.=172.498169m. Speed=4.608000m/h.</desc>
<speed>1.280000</speed>
</trkpt>
<trkpt lat="55.821033" lon="26.136318">
<ele>172.334106</ele>
<time>2010-07-17T13:40:52Z</time>
<desc>lat.=55.821033, lon.=26.136318, Alt.=172.334106m. Speed=8.388000m/h.</desc>
<speed>2.330000</speed>
</trkpt>
<trkpt lat="55.821060" lon="26.136335">
<ele>172.224731</ele>
<time>2010-07-17T13:40:53Z</time>
<desc>lat.=55.821060, lon.=26.136335, Alt.=172.224731m. Speed=10.008000m/h.</desc>
<speed>2.780000</speed>
</trkpt>
<trkpt lat="55.821087" lon="26.136345">
<ele>172.314575</ele>
<time>2010-07-17T13:40:54Z</time>
<desc>lat.=55.821087, lon.=26.136345, Alt.=172.314575m. Speed=11.700000m/h.</desc>
<speed>3.250000</speed>
</trkpt>
<trkpt lat="55.821117" lon="26.136347">
<ele>172.326294</ele>
<time>2010-07-17T13:40:55Z</time>
<desc>lat.=55.821117, lon.=26.136347, Alt.=172.326294m. Speed=14.436000m/h.</desc>
<speed>4.010000</speed>
</trkpt>
<trkpt lat="55.821156" lon="26.136343">
<ele>172.470825</ele>
<time>2010-07-17T13:40:56Z</time>
<desc>lat.=55.821156, lon.=26.136343, Alt.=172.470825m. Speed=13.140000m/h.</desc>
<speed>3.650000</speed>
</trkpt>
<trkpt lat="55.821190" lon="26.136345">
<ele>172.564575</ele>
<time>2010-07-17T13:40:57Z</time>
<desc>lat.=55.821190, lon.=26.136345, Alt.=172.564575m. Speed=14.472000m/h.</desc>
<speed>4.020000</speed>
</trkpt>
<trkpt lat="55.821228" lon="26.136351">
<ele>172.658325</ele>
<time>2010-07-17T13:40:58Z</time>
<desc>lat.=55.821228, lon.=26.136351, Alt.=172.658325m. Speed=16.452000m/h.</desc>
<speed>4.570000</speed>
</trkpt>
<trkpt lat="55.821262" lon="26.136358">
<ele>172.576294</ele>
<time>2010-07-17T13:40:59Z</time>
<desc>lat.=55.821262, lon.=26.136358, Alt.=172.576294m. Speed=16.236000m/h.</desc>
<speed>4.510000</speed>
</trkpt>
<trkpt lat="55.821304" lon="26.136366">
<ele>172.736450</ele>
<time>2010-07-17T13:41:00Z</time>
<desc>lat.=55.821304, lon.=26.136366, Alt.=172.736450m. Speed=16.884001m/h.</desc>
<speed>4.690000</speed>
</trkpt>
<trkpt lat="55.821342" lon="26.136370">
<ele>172.619263</ele>
<time>2010-07-17T13:41:01Z</time>
<desc>lat.=55.821342, lon.=26.136370, Alt.=172.619263m. Speed=13.752000m/h.</desc>
<speed>3.820000</speed>
</trkpt>
<trkpt lat="55.821373" lon="26.136366">
<ele>172.752075</ele>
<time>2010-07-17T13:41:02Z</time>
<desc>lat.=55.821373, lon.=26.136366, Alt.=172.752075m. Speed=14.868000m/h.</desc>
<speed>4.130000</speed>
</trkpt>
<trkpt lat="55.821411" lon="26.136372">
<ele>172.818481</ele>
<time>2010-07-17T13:41:03Z</time>
<desc>lat.=55.821411, lon.=26.136372, Alt.=172.818481m. Speed=15.300000m/h.</desc>
<speed>4.250000</speed>
</trkpt>
<trkpt lat="55.821453" lon="26.136379">
<ele>172.986450</ele>
<time>2010-07-17T13:41:04Z</time>
<desc>lat.=55.821453, lon.=26.136379, Alt.=172.986450m. Speed=18.612000m/h.</desc>
<speed>5.170000</speed>
</trkpt>
<trkpt lat="55.821503" lon="26.136381">
<ele>173.283325</ele>
<time>2010-07-17T13:41:05Z</time>
<desc>lat.=55.821503, lon.=26.136381, Alt.=173.283325m. Speed=18.072001m/h.</desc>
<speed>5.020000</speed>
</trkpt>
<trkpt lat="55.821548" lon="26.136385">
<ele>173.263794</ele>
<time>2010-07-17T13:41:06Z</time>
<desc>lat.=55.821548, lon.=26.136385, Alt.=173.263794m. Speed=16.200001m/h.</desc>
<speed>4.500000</speed>
</trkpt>
<trkpt lat="55.821594" lon="26.136391">
<ele>172.923950</ele>
<time>2010-07-17T13:41:07Z</time>
<desc>lat.=55.821594, lon.=26.136391, Alt.=172.923950m. Speed=18.288000m/h.</desc>
<speed>5.080000</speed>
</trkpt>
<trkpt lat="55.821663" lon="26.136395">
<ele>172.877075</ele>
<time>2010-07-17T13:41:08Z</time>
<desc>lat.=55.821663, lon.=26.136395, Alt.=172.877075m. Speed=21.384001m/h.</desc>
<speed>5.940000</speed>
</trkpt>
<trkpt lat="55.821732" lon="26.136396">
<ele>172.681763</ele>
<time>2010-07-17T13:41:09Z</time>
<desc>lat.=55.821732, lon.=26.136396, Alt.=172.681763m. Speed=20.412001m/h.</desc>
<speed>5.670000</speed>
</trkpt>
<trkpt lat="55.821781" lon="26.136393">
<ele>172.170044</ele>
<time>2010-07-17T13:41:10Z</time>
<desc>lat.=55.821781, lon.=26.136393, Alt.=172.170044m. Speed=18.936001m/h.</desc>
<speed>5.260000</speed>
</trkpt>
<trkpt lat="55.821846" lon="26.136398">
<ele>171.951294</ele>
<time>2010-07-17T13:41:11Z</time>
<desc>lat.=55.821846, lon.=26.136398, Alt.=171.951294m. Speed=21.455999m/h.</desc>
<speed>5.960000</speed>
</trkpt>
<trkpt lat="55.821907" lon="26.136389">
<ele>170.709106</ele>
<time>2010-07-17T13:41:12Z</time>
<desc>lat.=55.821907, lon.=26.136389, Alt.=170.709106m. Speed=20.375999m/h.</desc>
<speed>5.660000</speed>
</trkpt>
<trkpt lat="55.821964" lon="26.136379">
<ele>171.130981</ele>
<time>2010-07-17T13:41:13Z</time>
<desc>lat.=55.821964, lon.=26.136379, Alt.=171.130981m. Speed=23.076000m/h.</desc>
<speed>6.410000</speed>
</trkpt>
<trkpt lat="55.822025" lon="26.136379">
<ele>171.380981</ele>
<time>2010-07-17T13:41:14Z</time>
<desc>lat.=55.822025, lon.=26.136379, Alt.=171.380981m. Speed=21.384001m/h.</desc>
<speed>5.940000</speed>
</trkpt>
<trkpt lat="55.822075" lon="26.136379">
<ele>169.248169</ele>
<time>2010-07-17T13:41:15Z</time>
<desc>lat.=55.822075, lon.=26.136379, Alt.=169.248169m. Speed=20.700001m/h.</desc>
<speed>5.750000</speed>
</trkpt>
<trkpt lat="55.822132" lon="26.136379">
<ele>169.119263</ele>
<time>2010-07-17T13:41:16Z</time>
<desc>lat.=55.822132, lon.=26.136379, Alt.=169.119263m. Speed=20.375999m/h.</desc>
<speed>5.660000</speed>
</trkpt>
<trkpt lat="55.822193" lon="26.136375">
<ele>168.970825</ele>
<time>2010-07-17T13:41:17Z</time>
<desc>lat.=55.822193, lon.=26.136375, Alt.=168.970825m. Speed=20.988001m/h.</desc>
<speed>5.830000</speed>
</trkpt>
<trkpt lat="55.822250" lon="26.136370">
<ele>168.588013</ele>
<time>2010-07-17T13:41:18Z</time>
<desc>lat.=55.822250, lon.=26.136370, Alt.=168.588013m. Speed=21.636000m/h.</desc>
<speed>6.010000</speed>
</trkpt>
<trkpt lat="55.822308" lon="26.136368">
<ele>168.373169</ele>
<time>2010-07-17T13:41:19Z</time>
<desc>lat.=55.822308, lon.=26.136368, Alt.=168.373169m. Speed=20.988001m/h.</desc>
<speed>5.830000</speed>
</trkpt>
<trkpt lat="55.822369" lon="26.136366">
<ele>168.420044</ele>
<time>2010-07-17T13:41:20Z</time>
<desc>lat.=55.822369, lon.=26.136366, Alt.=168.420044m. Speed=20.700001m/h.</desc>
<speed>5.750000</speed>
</trkpt>
<trkpt lat="55.822422" lon="26.136366">
<ele>168.244263</ele>
<time>2010-07-17T13:41:21Z</time>
<desc>lat.=55.822422, lon.=26.136366, Alt.=168.244263m. Speed=20.412001m/h.</desc>
<speed>5.670000</speed>
</trkpt>
<trkpt lat="55.822472" lon="26.136354">
<ele>168.138794</ele>
<time>2010-07-17T13:41:22Z</time>
<desc>lat.=55.822472, lon.=26.136354, Alt.=168.138794m. Speed=19.764000m/h.</desc>
<speed>5.490000</speed>
</trkpt>
<trkpt lat="55.822521" lon="26.136353">
<ele>168.213013</ele>
<time>2010-07-17T13:41:23Z</time>
<desc>lat.=55.822521, lon.=26.136353, Alt.=168.213013m. Speed=19.115999m/h.</desc>
<speed>5.310000</speed>
</trkpt>
<trkpt lat="55.822575" lon="26.136347">
<ele>168.388794</ele>
<time>2010-07-17T13:41:24Z</time>
<desc>lat.=55.822575, lon.=26.136347, Alt.=168.388794m. Speed=19.080000m/h.</desc>
<speed>5.300000</speed>
</trkpt>
<trkpt lat="55.822620" lon="26.136347">
<ele>168.482544</ele>
<time>2010-07-17T13:41:25Z</time>
<desc>lat.=55.822620, lon.=26.136347, Alt.=168.482544m. Speed=18.684000m/h.</desc>
<speed>5.190000</speed>
</trkpt>
<trkpt lat="55.822670" lon="26.136345">
<ele>168.318481</ele>
<time>2010-07-17T13:41:26Z</time>
<desc>lat.=55.822670, lon.=26.136345, Alt.=168.318481m. Speed=18.648001m/h.</desc>
<speed>5.180000</speed>
</trkpt>
<trkpt lat="55.822716" lon="26.136341">
<ele>168.490356</ele>
<time>2010-07-17T13:41:27Z</time>
<desc>lat.=55.822716, lon.=26.136341, Alt.=168.490356m. Speed=17.532000m/h.</desc>
<speed>4.870000</speed>
</trkpt>
<trkpt lat="55.822762" lon="26.136339">
<ele>168.209106</ele>
<time>2010-07-17T13:41:28Z</time>
<desc>lat.=55.822762, lon.=26.136339, Alt.=168.209106m. Speed=18.216000m/h.</desc>
<speed>5.060000</speed>
</trkpt>
<trkpt lat="55.822807" lon="26.136339">
<ele>168.240356</ele>
<time>2010-07-17T13:41:29Z</time>
<desc>lat.=55.822807, lon.=26.136339, Alt.=168.240356m. Speed=18.288000m/h.</desc>
<speed>5.080000</speed>
</trkpt>
<trkpt lat="55.822853" lon="26.136337">
<ele>168.463013</ele>
<time>2010-07-17T13:41:30Z</time>
<desc>lat.=55.822853, lon.=26.136337, Alt.=168.463013m. Speed=18.000000m/h.</desc>
<speed>5.000000</speed>
</trkpt>
<trkpt lat="55.822899" lon="26.136332">
<ele>168.271606</ele>
<time>2010-07-17T13:41:31Z</time>
<desc>lat.=55.822899, lon.=26.136332, Alt.=168.271606m. Speed=18.288000m/h.</desc>
<speed>5.080000</speed>
</trkpt>
<trkpt lat="55.822945" lon="26.136333">
<ele>168.170044</ele>
<time>2010-07-17T13:41:32Z</time>
<desc>lat.=55.822945, lon.=26.136333, Alt.=168.170044m. Speed=18.576000m/h.</desc>
<speed>5.160000</speed>
</trkpt>
<trkpt lat="55.822994" lon="26.136337">
<ele>167.966919</ele>
<time>2010-07-17T13:41:33Z</time>
<desc>lat.=55.822994, lon.=26.136337, Alt.=167.966919m. Speed=18.827999m/h.</desc>
<speed>5.230000</speed>
</trkpt>
<trkpt lat="55.823040" lon="26.136343">
<ele>168.013794</ele>
<time>2010-07-17T13:41:34Z</time>
<desc>lat.=55.823040, lon.=26.136343, Alt.=168.013794m. Speed=18.792000m/h.</desc>
<speed>5.220000</speed>
</trkpt>
<trkpt lat="55.823086" lon="26.136349">
<ele>167.861450</ele>
<time>2010-07-17T13:41:35Z</time>
<desc>lat.=55.823086, lon.=26.136349, Alt.=167.861450m. Speed=18.864000m/h.</desc>
<speed>5.240000</speed>
</trkpt>
<trkpt lat="55.823135" lon="26.136353">
<ele>167.826294</ele>
<time>2010-07-17T13:41:36Z</time>
<desc>lat.=55.823135, lon.=26.136353, Alt.=167.826294m. Speed=18.972000m/h.</desc>
<speed>5.270000</speed>
</trkpt>
<trkpt lat="55.823185" lon="26.136351">
<ele>167.920044</ele>
<time>2010-07-17T13:41:37Z</time>
<desc>lat.=55.823185, lon.=26.136351, Alt.=167.920044m. Speed=19.080000m/h.</desc>
<speed>5.300000</speed>
</trkpt>
<trkpt lat="55.823235" lon="26.136345">
<ele>168.005981</ele>
<time>2010-07-17T13:41:38Z</time>
<desc>lat.=55.823235, lon.=26.136345, Alt.=168.005981m. Speed=19.007999m/h.</desc>
<speed>5.280000</speed>
</trkpt>
<trkpt lat="55.823284" lon="26.136339">
<ele>168.002075</ele>
<time>2010-07-17T13:41:39Z</time>
<desc>lat.=55.823284, lon.=26.136339, Alt.=168.002075m. Speed=19.224001m/h.</desc>
<speed>5.340000</speed>
</trkpt>
<trkpt lat="55.823334" lon="26.136339">
<ele>168.084106</ele>
<time>2010-07-17T13:41:40Z</time>
<desc>lat.=55.823334, lon.=26.136339, Alt.=168.084106m. Speed=19.511999m/h.</desc>
<speed>5.420000</speed>
</trkpt>
<trkpt lat="55.823383" lon="26.136339">
<ele>168.166138</ele>
<time>2010-07-17T13:41:41Z</time>
<desc>lat.=55.823383, lon.=26.136339, Alt.=168.166138m. Speed=19.728001m/h.</desc>
<speed>5.480000</speed>
</trkpt>
<trkpt lat="55.823433" lon="26.136345">
<ele>168.205200</ele>
<time>2010-07-17T13:41:42Z</time>
<desc>lat.=55.823433, lon.=26.136345, Alt.=168.205200m. Speed=19.728001m/h.</desc>
<speed>5.480000</speed>
</trkpt>
<trkpt lat="55.823483" lon="26.136349">
<ele>168.252075</ele>
<time>2010-07-17T13:41:43Z</time>
<desc>lat.=55.823483, lon.=26.136349, Alt.=168.252075m. Speed=20.375999m/h.</desc>
<speed>5.660000</speed>
</trkpt>
<trkpt lat="55.823536" lon="26.136351">
<ele>168.181763</ele>
<time>2010-07-17T13:41:44Z</time>
<desc>lat.=55.823536, lon.=26.136351, Alt.=168.181763m. Speed=20.916000m/h.</desc>
<speed>5.810000</speed>
</trkpt>
<trkpt lat="55.823589" lon="26.136356">
<ele>168.240356</ele>
<time>2010-07-17T13:41:45Z</time>
<desc>lat.=55.823589, lon.=26.136356, Alt.=168.240356m. Speed=21.455999m/h.</desc>
<speed>5.960000</speed>
</trkpt>
<trkpt lat="55.823647" lon="26.136358">
<ele>168.041138</ele>
<time>2010-07-17T13:41:46Z</time>
<desc>lat.=55.823647, lon.=26.136358, Alt.=168.041138m. Speed=21.996000m/h.</desc>
<speed>6.110000</speed>
</trkpt>
<trkpt lat="55.823696" lon="26.136356">
<ele>167.896606</ele>
<time>2010-07-17T13:41:47Z</time>
<desc>lat.=55.823696, lon.=26.136356, Alt.=167.896606m. Speed=19.799999m/h.</desc>
<speed>5.500000</speed>
</trkpt>
<trkpt lat="55.823753" lon="26.136353">
<ele>167.209106</ele>
<time>2010-07-17T13:41:48Z</time>
<desc>lat.=55.823753, lon.=26.136353, Alt.=167.209106m. Speed=22.139999m/h.</desc>
<speed>6.150000</speed>
</trkpt>
<trkpt lat="55.823803" lon="26.136354">
<ele>167.088013</ele>
<time>2010-07-17T13:41:49Z</time>
<desc>lat.=55.823803, lon.=26.136354, Alt.=167.088013m. Speed=21.959999m/h.</desc>
<speed>6.100000</speed>
</trkpt>
<trkpt lat="55.823853" lon="26.136358">
<ele>166.713013</ele>
<time>2010-07-17T13:41:50Z</time>
<desc>lat.=55.823853, lon.=26.136358, Alt.=166.713013m. Speed=20.375999m/h.</desc>
<speed>5.660000</speed>
</trkpt>
<trkpt lat="55.823910" lon="26.136358">
<ele>166.384888</ele>
<time>2010-07-17T13:41:51Z</time>
<desc>lat.=55.823910, lon.=26.136358, Alt.=166.384888m. Speed=22.788000m/h.</desc>
<speed>6.330000</speed>
</trkpt>
<trkpt lat="55.823959" lon="26.136360">
<ele>166.287231</ele>
<time>2010-07-17T13:41:52Z</time>
<desc>lat.=55.823959, lon.=26.136360, Alt.=166.287231m. Speed=19.440001m/h.</desc>
<speed>5.400000</speed>
</trkpt>
<trkpt lat="55.824013" lon="26.136364">
<ele>165.709106</ele>
<time>2010-07-17T13:41:53Z</time>
<desc>lat.=55.824013, lon.=26.136364, Alt.=165.709106m. Speed=19.691999m/h.</desc>
<speed>5.470000</speed>
</trkpt>
<trkpt lat="55.824062" lon="26.136368">
<ele>165.748169</ele>
<time>2010-07-17T13:41:54Z</time>
<desc>lat.=55.824062, lon.=26.136368, Alt.=165.748169m. Speed=18.540001m/h.</desc>
<speed>5.150000</speed>
</trkpt>
<trkpt lat="55.824116" lon="26.136370">
<ele>165.713013</ele>
<time>2010-07-17T13:41:55Z</time>
<desc>lat.=55.824116, lon.=26.136370, Alt.=165.713013m. Speed=21.024000m/h.</desc>
<speed>5.840000</speed>
</trkpt>
<trkpt lat="55.824177" lon="26.136370">
<ele>165.623169</ele>
<time>2010-07-17T13:41:56Z</time>
<desc>lat.=55.824177, lon.=26.136370, Alt.=165.623169m. Speed=24.552000m/h.</desc>
<speed>6.820000</speed>
</trkpt>
<trkpt lat="55.824238" lon="26.136368">
<ele>165.439575</ele>
<time>2010-07-17T13:41:57Z</time>
<desc>lat.=55.824238, lon.=26.136368, Alt.=165.439575m. Speed=23.580000m/h.</desc>
<speed>6.550000</speed>
</trkpt>
<trkpt lat="55.824303" lon="26.136374">
<ele>165.505981</ele>
<time>2010-07-17T13:41:58Z</time>
<desc>lat.=55.824303, lon.=26.136374, Alt.=165.505981m. Speed=21.384001m/h.</desc>
<speed>5.940000</speed>
</trkpt>
<trkpt lat="55.824356" lon="26.136374">
<ele>165.396606</ele>
<time>2010-07-17T13:41:59Z</time>
<desc>lat.=55.824356, lon.=26.136374, Alt.=165.396606m. Speed=20.591999m/h.</desc>
<speed>5.720000</speed>
</trkpt>
<trkpt lat="55.824413" lon="26.136374">
<ele>165.193481</ele>
<time>2010-07-17T13:42:00Z</time>
<desc>lat.=55.824413, lon.=26.136374, Alt.=165.193481m. Speed=20.808001m/h.</desc>
<speed>5.780000</speed>
</trkpt>
<trkpt lat="55.824471" lon="26.136372">
<ele>165.048950</ele>
<time>2010-07-17T13:42:01Z</time>
<desc>lat.=55.824471, lon.=26.136372, Alt.=165.048950m. Speed=22.068001m/h.</desc>
<speed>6.130000</speed>
</trkpt>
<trkpt lat="55.824532" lon="26.136358">
<ele>165.185669</ele>
<time>2010-07-17T13:42:02Z</time>
<desc>lat.=55.824532, lon.=26.136358, Alt.=165.185669m. Speed=25.128000m/h.</desc>
<speed>6.980000</speed>
</trkpt>
<trkpt lat="55.824619" lon="26.136351">
<ele>164.869263</ele>
<time>2010-07-17T13:42:03Z</time>
<desc>lat.=55.824619, lon.=26.136351, Alt.=164.869263m. Speed=27.035999m/h.</desc>
<speed>7.510000</speed>
</trkpt>
<trkpt lat="55.824688" lon="26.136345">
<ele>164.322388</ele>
<time>2010-07-17T13:42:04Z</time>
<desc>lat.=55.824688, lon.=26.136345, Alt.=164.322388m. Speed=24.875999m/h.</desc>
<speed>6.910000</speed>
</trkpt>
<trkpt lat="55.824768" lon="26.136358">
<ele>165.338013</ele>
<time>2010-07-17T13:42:05Z</time>
<desc>lat.=55.824768, lon.=26.136358, Alt.=165.338013m. Speed=26.496000m/h.</desc>
<speed>7.360000</speed>
</trkpt>
<trkpt lat="55.824833" lon="26.136368">
<ele>165.306763</ele>
<time>2010-07-17T13:42:06Z</time>
<desc>lat.=55.824833, lon.=26.136368, Alt.=165.306763m. Speed=24.695999m/h.</desc>
<speed>6.860000</speed>
</trkpt>
<trkpt lat="55.824905" lon="26.136368">
<ele>165.466919</ele>
<time>2010-07-17T13:42:07Z</time>
<desc>lat.=55.824905, lon.=26.136368, Alt.=165.466919m. Speed=25.812000m/h.</desc>
<speed>7.170000</speed>
</trkpt>
<trkpt lat="55.824974" lon="26.136368">
<ele>165.130981</ele>
<time>2010-07-17T13:42:08Z</time>
<desc>lat.=55.824974, lon.=26.136368, Alt.=165.130981m. Speed=22.392000m/h.</desc>
<speed>6.220000</speed>
</trkpt>
<trkpt lat="55.825043" lon="26.136381">
<ele>164.595825</ele>
<time>2010-07-17T13:42:09Z</time>
<desc>lat.=55.825043, lon.=26.136381, Alt.=164.595825m. Speed=24.444000m/h.</desc>
<speed>6.790000</speed>
</trkpt>
<trkpt lat="55.825119" lon="26.136389">
<ele>164.588013</ele>
<time>2010-07-17T13:42:10Z</time>
<desc>lat.=55.825119, lon.=26.136389, Alt.=164.588013m. Speed=25.667999m/h.</desc>
<speed>7.130000</speed>
</trkpt>
<trkpt lat="55.825188" lon="26.136391">
<ele>165.267700</ele>
<time>2010-07-17T13:42:11Z</time>
<desc>lat.=55.825188, lon.=26.136391, Alt.=165.267700m. Speed=25.488001m/h.</desc>
<speed>7.080000</speed>
</trkpt>
<trkpt lat="55.825260" lon="26.136393">
<ele>165.830200</ele>
<time>2010-07-17T13:42:12Z</time>
<desc>lat.=55.825260, lon.=26.136393, Alt.=165.830200m. Speed=26.100000m/h.</desc>
<speed>7.250000</speed>
</trkpt>
<trkpt lat="55.825336" lon="26.136377">
<ele>166.447388</ele>
<time>2010-07-17T13:42:13Z</time>
<desc>lat.=55.825336, lon.=26.136377, Alt.=166.447388m. Speed=25.775999m/h.</desc>
<speed>7.160000</speed>
</trkpt>
<trkpt lat="55.825413" lon="26.136374">
<ele>166.025513</ele>
<time>2010-07-17T13:42:14Z</time>
<desc>lat.=55.825413, lon.=26.136374, Alt.=166.025513m. Speed=26.136000m/h.</desc>
<speed>7.260000</speed>
</trkpt>
<trkpt lat="55.825481" lon="26.136374">
<ele>165.849731</ele>
<time>2010-07-17T13:42:15Z</time>
<desc>lat.=55.825481, lon.=26.136374, Alt.=165.849731m. Speed=26.136000m/h.</desc>
<speed>7.260000</speed>
</trkpt>
<trkpt lat="55.825546" lon="26.136375">
<ele>163.724731</ele>
<time>2010-07-17T13:42:16Z</time>
<desc>lat.=55.825546, lon.=26.136375, Alt.=163.724731m. Speed=25.812000m/h.</desc>
<speed>7.170000</speed>
</trkpt>
<trkpt lat="55.825611" lon="26.136377">
<ele>164.302856</ele>
<time>2010-07-17T13:42:17Z</time>
<desc>lat.=55.825611, lon.=26.136377, Alt.=164.302856m. Speed=25.812000m/h.</desc>
<speed>7.170000</speed>
</trkpt>
<trkpt lat="55.825680" lon="26.136379">
<ele>164.334106</ele>
<time>2010-07-17T13:42:18Z</time>
<desc>lat.=55.825680, lon.=26.136379, Alt.=164.334106m. Speed=25.740000m/h.</desc>
<speed>7.150000</speed>
</trkpt>
<trkpt lat="55.825745" lon="26.136381">
<ele>164.466919</ele>
<time>2010-07-17T13:42:19Z</time>
<desc>lat.=55.825745, lon.=26.136381, Alt.=164.466919m. Speed=24.804001m/h.</desc>
<speed>6.890000</speed>
</trkpt>
<trkpt lat="55.825809" lon="26.136379">
<ele>165.224731</ele>
<time>2010-07-17T13:42:20Z</time>
<desc>lat.=55.825809, lon.=26.136379, Alt.=165.224731m. Speed=24.120001m/h.</desc>
<speed>6.700000</speed>
</trkpt>
<trkpt lat="55.825867" lon="26.136377">
<ele>165.380981</ele>
<time>2010-07-17T13:42:21Z</time>
<desc>lat.=55.825867, lon.=26.136377, Alt.=165.380981m. Speed=22.896000m/h.</desc>
<speed>6.360000</speed>
</trkpt>
<trkpt lat="55.825928" lon="26.136375">
<ele>165.939575</ele>
<time>2010-07-17T13:42:22Z</time>
<desc>lat.=55.825928, lon.=26.136375, Alt.=165.939575m. Speed=22.032000m/h.</desc>
<speed>6.120000</speed>
</trkpt>
<trkpt lat="55.825981" lon="26.136375">
<ele>166.166138</ele>
<time>2010-07-17T13:42:23Z</time>
<desc>lat.=55.825981, lon.=26.136375, Alt.=166.166138m. Speed=21.096001m/h.</desc>
<speed>5.860000</speed>
</trkpt>
<trkpt lat="55.826038" lon="26.136383">
<ele>166.384888</ele>
<time>2010-07-17T13:42:24Z</time>
<desc>lat.=55.826038, lon.=26.136383, Alt.=166.384888m. Speed=20.195999m/h.</desc>
<speed>5.610000</speed>
</trkpt>
<trkpt lat="55.826088" lon="26.136377">
<ele>166.513794</ele>
<time>2010-07-17T13:42:25Z</time>
<desc>lat.=55.826088, lon.=26.136377, Alt.=166.513794m. Speed=19.332001m/h.</desc>
<speed>5.370000</speed>
</trkpt>
<trkpt lat="55.826134" lon="26.136372">
<ele>166.505981</ele>
<time>2010-07-17T13:42:26Z</time>
<desc>lat.=55.826134, lon.=26.136372, Alt.=166.505981m. Speed=19.224001m/h.</desc>
<speed>5.340000</speed>
</trkpt>
<trkpt lat="55.826187" lon="26.136368">
<ele>166.064575</ele>
<time>2010-07-17T13:42:27Z</time>
<desc>lat.=55.826187, lon.=26.136368, Alt.=166.064575m. Speed=19.440001m/h.</desc>
<speed>5.400000</speed>
</trkpt>
<trkpt lat="55.826237" lon="26.136362">
<ele>165.814575</ele>
<time>2010-07-17T13:42:28Z</time>
<desc>lat.=55.826237, lon.=26.136362, Alt.=165.814575m. Speed=19.908001m/h.</desc>
<speed>5.530000</speed>
</trkpt>
<trkpt lat="55.826286" lon="26.136356">
<ele>165.697388</ele>
<time>2010-07-17T13:42:29Z</time>
<desc>lat.=55.826286, lon.=26.136356, Alt.=165.697388m. Speed=20.124001m/h.</desc>
<speed>5.590000</speed>
</trkpt>
<trkpt lat="55.826340" lon="26.136349">
<ele>165.681763</ele>
<time>2010-07-17T13:42:30Z</time>
<desc>lat.=55.826340, lon.=26.136349, Alt.=165.681763m. Speed=20.412001m/h.</desc>
<speed>5.670000</speed>
</trkpt>
<trkpt lat="55.826393" lon="26.136345">
<ele>165.630981</ele>
<time>2010-07-17T13:42:31Z</time>
<desc>lat.=55.826393, lon.=26.136345, Alt.=165.630981m. Speed=20.916000m/h.</desc>
<speed>5.810000</speed>
</trkpt>
<trkpt lat="55.826447" lon="26.136345">
<ele>165.705200</ele>
<time>2010-07-17T13:42:32Z</time>
<desc>lat.=55.826447, lon.=26.136345, Alt.=165.705200m. Speed=21.132000m/h.</desc>
<speed>5.870000</speed>
</trkpt>
<trkpt lat="55.826496" lon="26.136343">
<ele>165.767700</ele>
<time>2010-07-17T13:42:33Z</time>
<desc>lat.=55.826496, lon.=26.136343, Alt.=165.767700m. Speed=21.312000m/h.</desc>
<speed>5.920000</speed>
</trkpt>
<trkpt lat="55.826553" lon="26.136343">
<ele>165.763794</ele>
<time>2010-07-17T13:42:34Z</time>
<desc>lat.=55.826553, lon.=26.136343, Alt.=165.763794m. Speed=21.708000m/h.</desc>
<speed>6.030000</speed>
</trkpt>
<trkpt lat="55.826607" lon="26.136341">
<ele>166.056763</ele>
<time>2010-07-17T13:42:35Z</time>
<desc>lat.=55.826607, lon.=26.136341, Alt.=166.056763m. Speed=21.780001m/h.</desc>
<speed>6.050000</speed>
</trkpt>
<trkpt lat="55.826664" lon="26.136335">
<ele>166.127075</ele>
<time>2010-07-17T13:42:36Z</time>
<desc>lat.=55.826664, lon.=26.136335, Alt.=166.127075m. Speed=21.996000m/h.</desc>
<speed>6.110000</speed>
</trkpt>
<trkpt lat="55.826717" lon="26.136332">
<ele>166.173950</ele>
<time>2010-07-17T13:42:37Z</time>
<desc>lat.=55.826717, lon.=26.136332, Alt.=166.173950m. Speed=21.959999m/h.</desc>
<speed>6.100000</speed>
</trkpt>
<trkpt lat="55.826778" lon="26.136330">
<ele>166.423950</ele>
<time>2010-07-17T13:42:38Z</time>
<desc>lat.=55.826778, lon.=26.136330, Alt.=166.423950m. Speed=22.247999m/h.</desc>
<speed>6.180000</speed>
</trkpt>
<trkpt lat="55.826836" lon="26.136333">
<ele>166.611450</ele>
<time>2010-07-17T13:42:39Z</time>
<desc>lat.=55.826836, lon.=26.136333, Alt.=166.611450m. Speed=22.608000m/h.</desc>
<speed>6.280000</speed>
</trkpt>
<trkpt lat="55.826889" lon="26.136335">
<ele>166.556763</ele>
<time>2010-07-17T13:42:40Z</time>
<desc>lat.=55.826889, lon.=26.136335, Alt.=166.556763m. Speed=22.139999m/h.</desc>
<speed>6.150000</speed>
</trkpt>
<trkpt lat="55.826946" lon="26.136333">
<ele>166.798950</ele>
<time>2010-07-17T13:42:41Z</time>
<desc>lat.=55.826946, lon.=26.136333, Alt.=166.798950m. Speed=20.952000m/h.</desc>
<speed>5.820000</speed>
</trkpt>
<trkpt lat="55.826996" lon="26.136330">
<ele>166.931763</ele>
<time>2010-07-17T13:42:42Z</time>
<desc>lat.=55.826996, lon.=26.136330, Alt.=166.931763m. Speed=19.980000m/h.</desc>
<speed>5.550000</speed>
</trkpt>
<trkpt lat="55.827045" lon="26.136328">
<ele>167.623169</ele>
<time>2010-07-17T13:42:43Z</time>
<desc>lat.=55.827045, lon.=26.136328, Alt.=167.623169m. Speed=19.656000m/h.</desc>
<speed>5.460000</speed>
</trkpt>
<trkpt lat="55.827095" lon="26.136333">
<ele>167.642700</ele>
<time>2010-07-17T13:42:44Z</time>
<desc>lat.=55.827095, lon.=26.136333, Alt.=167.642700m. Speed=19.691999m/h.</desc>
<speed>5.470000</speed>
</trkpt>
<trkpt lat="55.827145" lon="26.136335">
<ele>167.767700</ele>
<time>2010-07-17T13:42:45Z</time>
<desc>lat.=55.827145, lon.=26.136335, Alt.=167.767700m. Speed=19.656000m/h.</desc>
<speed>5.460000</speed>
</trkpt>
<trkpt lat="55.827190" lon="26.136330">
<ele>167.845825</ele>
<time>2010-07-17T13:42:46Z</time>
<desc>lat.=55.827190, lon.=26.136330, Alt.=167.845825m. Speed=19.691999m/h.</desc>
<speed>5.470000</speed>
</trkpt>
<trkpt lat="55.827240" lon="26.136324">
<ele>167.900513</ele>
<time>2010-07-17T13:42:47Z</time>
<desc>lat.=55.827240, lon.=26.136324, Alt.=167.900513m. Speed=19.799999m/h.</desc>
<speed>5.500000</speed>
</trkpt>
<trkpt lat="55.827290" lon="26.136322">
<ele>167.724731</ele>
<time>2010-07-17T13:42:48Z</time>
<desc>lat.=55.827290, lon.=26.136322, Alt.=167.724731m. Speed=20.232000m/h.</desc>
<speed>5.620000</speed>
</trkpt>
<trkpt lat="55.827339" lon="26.136316">
<ele>167.341919</ele>
<time>2010-07-17T13:42:49Z</time>
<desc>lat.=55.827339, lon.=26.136316, Alt.=167.341919m. Speed=20.879999m/h.</desc>
<speed>5.800000</speed>
</trkpt>
<trkpt lat="55.827393" lon="26.136314">
<ele>167.396606</ele>
<time>2010-07-17T13:42:50Z</time>
<desc>lat.=55.827393, lon.=26.136314, Alt.=167.396606m. Speed=21.204000m/h.</desc>
<speed>5.890000</speed>
</trkpt>
<trkpt lat="55.827446" lon="26.136307">
<ele>167.021606</ele>
<time>2010-07-17T13:42:51Z</time>
<desc>lat.=55.827446, lon.=26.136307, Alt.=167.021606m. Speed=21.959999m/h.</desc>
<speed>6.100000</speed>
</trkpt>
<trkpt lat="55.827503" lon="26.136301">
<ele>167.041138</ele>
<time>2010-07-17T13:42:52Z</time>
<desc>lat.=55.827503, lon.=26.136301, Alt.=167.041138m. Speed=22.427999m/h.</desc>
<speed>6.230000</speed>
</trkpt>
<trkpt lat="55.827557" lon="26.136295">
<ele>167.255981</ele>
<time>2010-07-17T13:42:53Z</time>
<desc>lat.=55.827557, lon.=26.136295, Alt.=167.255981m. Speed=22.608000m/h.</desc>
<speed>6.280000</speed>
</trkpt>
<trkpt lat="55.827614" lon="26.136288">
<ele>167.173950</ele>
<time>2010-07-17T13:42:54Z</time>
<desc>lat.=55.827614, lon.=26.136288, Alt.=167.173950m. Speed=23.327999m/h.</desc>
<speed>6.480000</speed>
</trkpt>
<trkpt lat="55.827675" lon="26.136282">
<ele>167.205200</ele>
<time>2010-07-17T13:42:55Z</time>
<desc>lat.=55.827675, lon.=26.136282, Alt.=167.205200m. Speed=24.372000m/h.</desc>
<speed>6.770000</speed>
</trkpt>
<trkpt lat="55.827732" lon="26.136276">
<ele>167.193481</ele>
<time>2010-07-17T13:42:56Z</time>
<desc>lat.=55.827732, lon.=26.136276, Alt.=167.193481m. Speed=23.544001m/h.</desc>
<speed>6.540000</speed>
</trkpt>
<trkpt lat="55.827789" lon="26.136269">
<ele>167.150513</ele>
<time>2010-07-17T13:42:57Z</time>
<desc>lat.=55.827789, lon.=26.136269, Alt.=167.150513m. Speed=23.219999m/h.</desc>
<speed>6.450000</speed>
</trkpt>
<trkpt lat="55.827847" lon="26.136257">
<ele>166.880981</ele>
<time>2010-07-17T13:42:58Z</time>
<desc>lat.=55.827847, lon.=26.136257, Alt.=166.880981m. Speed=23.112000m/h.</desc>
<speed>6.420000</speed>
</trkpt>
<trkpt lat="55.827904" lon="26.136250">
<ele>166.771606</ele>
<time>2010-07-17T13:42:59Z</time>
<desc>lat.=55.827904, lon.=26.136250, Alt.=166.771606m. Speed=22.860001m/h.</desc>
<speed>6.350000</speed>
</trkpt>
<trkpt lat="55.827961" lon="26.136240">
<ele>166.763794</ele>
<time>2010-07-17T13:43:00Z</time>
<desc>lat.=55.827961, lon.=26.136240, Alt.=166.763794m. Speed=22.823999m/h.</desc>
<speed>6.340000</speed>
</trkpt>
<trkpt lat="55.828014" lon="26.136230">
<ele>166.591919</ele>
<time>2010-07-17T13:43:01Z</time>
<desc>lat.=55.828014, lon.=26.136230, Alt.=166.591919m. Speed=22.931999m/h.</desc>
<speed>6.370000</speed>
</trkpt>
<trkpt lat="55.828072" lon="26.136221">
<ele>166.306763</ele>
<time>2010-07-17T13:43:02Z</time>
<desc>lat.=55.828072, lon.=26.136221, Alt.=166.306763m. Speed=22.931999m/h.</desc>
<speed>6.370000</speed>
</trkpt>
<trkpt lat="55.828129" lon="26.136209">
<ele>166.041138</ele>
<time>2010-07-17T13:43:03Z</time>
<desc>lat.=55.828129, lon.=26.136209, Alt.=166.041138m. Speed=23.148001m/h.</desc>
<speed>6.430000</speed>
</trkpt>
<trkpt lat="55.828186" lon="26.136202">
<ele>166.013794</ele>
<time>2010-07-17T13:43:04Z</time>
<desc>lat.=55.828186, lon.=26.136202, Alt.=166.013794m. Speed=23.256001m/h.</desc>
<speed>6.460000</speed>
</trkpt>
<trkpt lat="55.828247" lon="26.136194">
<ele>165.845825</ele>
<time>2010-07-17T13:43:05Z</time>
<desc>lat.=55.828247, lon.=26.136194, Alt.=165.845825m. Speed=23.472000m/h.</desc>
<speed>6.520000</speed>
</trkpt>
<trkpt lat="55.828304" lon="26.136187">
<ele>165.564575</ele>
<time>2010-07-17T13:43:06Z</time>
<desc>lat.=55.828304, lon.=26.136187, Alt.=165.564575m. Speed=24.048000m/h.</desc>
<speed>6.680000</speed>
</trkpt>
<trkpt lat="55.828365" lon="26.136179">
<ele>165.361450</ele>
<time>2010-07-17T13:43:07Z</time>
<desc>lat.=55.828365, lon.=26.136179, Alt.=165.361450m. Speed=24.660000m/h.</desc>
<speed>6.850000</speed>
</trkpt>
<trkpt lat="55.828430" lon="26.136175">
<ele>164.923950</ele>
<time>2010-07-17T13:43:08Z</time>
<desc>lat.=55.828430, lon.=26.136175, Alt.=164.923950m. Speed=25.524000m/h.</desc>
<speed>7.090000</speed>
</trkpt>
<trkpt lat="55.828495" lon="26.136166">
<ele>164.783325</ele>
<time>2010-07-17T13:43:09Z</time>
<desc>lat.=55.828495, lon.=26.136166, Alt.=164.783325m. Speed=26.316000m/h.</desc>
<speed>7.310000</speed>
</trkpt>
<trkpt lat="55.828564" lon="26.136154">
<ele>164.443481</ele>
<time>2010-07-17T13:43:10Z</time>
<desc>lat.=55.828564, lon.=26.136154, Alt.=164.443481m. Speed=27.072001m/h.</desc>
<speed>7.520000</speed>
</trkpt>
<trkpt lat="55.828632" lon="26.136141">
<ele>164.084106</ele>
<time>2010-07-17T13:43:11Z</time>
<desc>lat.=55.828632, lon.=26.136141, Alt.=164.084106m. Speed=28.188000m/h.</desc>
<speed>7.830000</speed>
</trkpt>
<trkpt lat="55.828701" lon="26.136126">
<ele>163.615356</ele>
<time>2010-07-17T13:43:12Z</time>
<desc>lat.=55.828701, lon.=26.136126, Alt.=163.615356m. Speed=29.304001m/h.</desc>
<speed>8.140000</speed>
</trkpt>
<trkpt lat="55.828777" lon="26.136114">
<ele>163.255981</ele>
<time>2010-07-17T13:43:13Z</time>
<desc>lat.=55.828777, lon.=26.136114, Alt.=163.255981m. Speed=30.888000m/h.</desc>
<speed>8.580000</speed>
</trkpt>
<trkpt lat="55.828854" lon="26.136099">
<ele>162.681763</ele>
<time>2010-07-17T13:43:14Z</time>
<desc>lat.=55.828854, lon.=26.136099, Alt.=162.681763m. Speed=32.472000m/h.</desc>
<speed>9.020000</speed>
</trkpt>
<trkpt lat="55.828938" lon="26.136087">
<ele>162.123169</ele>
<time>2010-07-17T13:43:15Z</time>
<desc>lat.=55.828938, lon.=26.136087, Alt.=162.123169m. Speed=34.560001m/h.</desc>
<speed>9.600000</speed>
</trkpt>
<trkpt lat="55.829029" lon="26.136076">
<ele>161.162231</ele>
<time>2010-07-17T13:43:16Z</time>
<desc>lat.=55.829029, lon.=26.136076, Alt.=161.162231m. Speed=36.504002m/h.</desc>
<speed>10.140000</speed>
</trkpt>
<trkpt lat="55.829121" lon="26.136061">
<ele>160.478638</ele>
<time>2010-07-17T13:43:17Z</time>
<desc>lat.=55.829121, lon.=26.136061, Alt.=160.478638m. Speed=38.015999m/h.</desc>
<speed>10.560000</speed>
</trkpt>
<trkpt lat="55.829220" lon="26.136044">
<ele>159.838013</ele>
<time>2010-07-17T13:43:18Z</time>
<desc>lat.=55.829220, lon.=26.136044, Alt.=159.838013m. Speed=38.916000m/h.</desc>
<speed>10.810000</speed>
</trkpt>
<trkpt lat="55.829315" lon="26.136026">
<ele>159.369263</ele>
<time>2010-07-17T13:43:19Z</time>
<desc>lat.=55.829315, lon.=26.136026, Alt.=159.369263m. Speed=39.240002m/h.</desc>
<speed>10.900000</speed>
</trkpt>
<trkpt lat="55.829414" lon="26.136005">
<ele>158.255981</ele>
<time>2010-07-17T13:43:20Z</time>
<desc>lat.=55.829414, lon.=26.136005, Alt.=158.255981m. Speed=39.419998m/h.</desc>
<speed>10.949999</speed>
</trkpt>
<trkpt lat="55.829514" lon="26.135984">
<ele>157.728638</ele>
<time>2010-07-17T13:43:21Z</time>
<desc>lat.=55.829514, lon.=26.135984, Alt.=157.728638m. Speed=39.708000m/h.</desc>
<speed>11.030000</speed>
</trkpt>
<trkpt lat="55.829613" lon="26.135965">
<ele>157.591919</ele>
<time>2010-07-17T13:43:22Z</time>
<desc>lat.=55.829613, lon.=26.135965, Alt.=157.591919m. Speed=39.456001m/h.</desc>
<speed>10.960000</speed>
</trkpt>
<trkpt lat="55.829712" lon="26.135942">
<ele>157.166138</ele>
<time>2010-07-17T13:43:23Z</time>
<desc>lat.=55.829712, lon.=26.135942, Alt.=157.166138m. Speed=39.312000m/h.</desc>
<speed>10.920000</speed>
</trkpt>
<trkpt lat="55.829807" lon="26.135916">
<ele>156.865356</ele>
<time>2010-07-17T13:43:24Z</time>
<desc>lat.=55.829807, lon.=26.135916, Alt.=156.865356m. Speed=39.096001m/h.</desc>
<speed>10.860000</speed>
</trkpt>
<trkpt lat="55.829903" lon="26.135893">
<ele>156.783325</ele>
<time>2010-07-17T13:43:25Z</time>
<desc>lat.=55.829903, lon.=26.135893, Alt.=156.783325m. Speed=38.484001m/h.</desc>
<speed>10.690000</speed>
</trkpt>
<trkpt lat="55.829998" lon="26.135866">
<ele>156.611450</ele>
<time>2010-07-17T13:43:26Z</time>
<desc>lat.=55.829998, lon.=26.135866, Alt.=156.611450m. Speed=38.051998m/h.</desc>
<speed>10.569999</speed>
</trkpt>
<trkpt lat="55.830093" lon="26.135838">
<ele>156.427856</ele>
<time>2010-07-17T13:43:27Z</time>
<desc>lat.=55.830093, lon.=26.135838, Alt.=156.427856m. Speed=37.728001m/h.</desc>
<speed>10.480000</speed>
</trkpt>
<trkpt lat="55.830185" lon="26.135813">
<ele>156.517700</ele>
<time>2010-07-17T13:43:28Z</time>
<desc>lat.=55.830185, lon.=26.135813, Alt.=156.517700m. Speed=37.188000m/h.</desc>
<speed>10.330000</speed>
</trkpt>
<trkpt lat="55.830276" lon="26.135790">
<ele>156.384888</ele>
<time>2010-07-17T13:43:29Z</time>
<desc>lat.=55.830276, lon.=26.135790, Alt.=156.384888m. Speed=36.972000m/h.</desc>
<speed>10.270000</speed>
</trkpt>
<trkpt lat="55.830368" lon="26.135765">
<ele>156.173950</ele>
<time>2010-07-17T13:43:30Z</time>
<desc>lat.=55.830368, lon.=26.135765, Alt.=156.173950m. Speed=36.647999m/h.</desc>
<speed>10.180000</speed>
</trkpt>
<trkpt lat="55.830456" lon="26.135740">
<ele>155.591919</ele>
<time>2010-07-17T13:43:31Z</time>
<desc>lat.=55.830456, lon.=26.135740, Alt.=155.591919m. Speed=36.071999m/h.</desc>
<speed>10.020000</speed>
</trkpt>
<trkpt lat="55.830544" lon="26.135715">
<ele>155.494263</ele>
<time>2010-07-17T13:43:32Z</time>
<desc>lat.=55.830544, lon.=26.135715, Alt.=155.494263m. Speed=35.459999m/h.</desc>
<speed>9.850000</speed>
</trkpt>
<trkpt lat="55.830631" lon="26.135695">
<ele>155.213013</ele>
<time>2010-07-17T13:43:33Z</time>
<desc>lat.=55.830631, lon.=26.135695, Alt.=155.213013m. Speed=34.703999m/h.</desc>
<speed>9.640000</speed>
</trkpt>
<trkpt lat="55.830715" lon="26.135674">
<ele>155.213013</ele>
<time>2010-07-17T13:43:34Z</time>
<desc>lat.=55.830715, lon.=26.135674, Alt.=155.213013m. Speed=33.444000m/h.</desc>
<speed>9.290000</speed>
</trkpt>
<trkpt lat="55.830799" lon="26.135649">
<ele>154.978638</ele>
<time>2010-07-17T13:43:35Z</time>
<desc>lat.=55.830799, lon.=26.135649, Alt.=154.978638m. Speed=33.192001m/h.</desc>
<speed>9.220000</speed>
</trkpt>
<trkpt lat="55.830879" lon="26.135624">
<ele>154.888794</ele>
<time>2010-07-17T13:43:36Z</time>
<desc>lat.=55.830879, lon.=26.135624, Alt.=154.888794m. Speed=33.119999m/h.</desc>
<speed>9.200000</speed>
</trkpt>
<trkpt lat="55.830963" lon="26.135597">
<ele>154.877075</ele>
<time>2010-07-17T13:43:37Z</time>
<desc>lat.=55.830963, lon.=26.135597, Alt.=154.877075m. Speed=33.299999m/h.</desc>
<speed>9.250000</speed>
</trkpt>
<trkpt lat="55.831043" lon="26.135576">
<ele>154.966919</ele>
<time>2010-07-17T13:43:38Z</time>
<desc>lat.=55.831043, lon.=26.135576, Alt.=154.966919m. Speed=32.292000m/h.</desc>
<speed>8.970000</speed>
</trkpt>
<trkpt lat="55.831123" lon="26.135555">
<ele>154.998169</ele>
<time>2010-07-17T13:43:39Z</time>
<desc>lat.=55.831123, lon.=26.135555, Alt.=154.998169m. Speed=31.139999m/h.</desc>
<speed>8.650000</speed>
</trkpt>
<trkpt lat="55.831200" lon="26.135536">
<ele>154.943481</ele>
<time>2010-07-17T13:43:40Z</time>
<desc>lat.=55.831200, lon.=26.135536, Alt.=154.943481m. Speed=30.851999m/h.</desc>
<speed>8.570000</speed>
</trkpt>
<trkpt lat="55.831272" lon="26.135513">
<ele>154.869263</ele>
<time>2010-07-17T13:43:41Z</time>
<desc>lat.=55.831272, lon.=26.135513, Alt.=154.869263m. Speed=30.024000m/h.</desc>
<speed>8.340000</speed>
</trkpt>
<trkpt lat="55.831348" lon="26.135492">
<ele>154.701294</ele>
<time>2010-07-17T13:43:42Z</time>
<desc>lat.=55.831348, lon.=26.135492, Alt.=154.701294m. Speed=30.240000m/h.</desc>
<speed>8.400000</speed>
</trkpt>
<trkpt lat="55.831421" lon="26.135466">
<ele>154.505981</ele>
<time>2010-07-17T13:43:43Z</time>
<desc>lat.=55.831421, lon.=26.135466, Alt.=154.505981m. Speed=30.672001m/h.</desc>
<speed>8.520000</speed>
</trkpt>
<trkpt lat="55.831497" lon="26.135439">
<ele>154.783325</ele>
<time>2010-07-17T13:43:44Z</time>
<desc>lat.=55.831497, lon.=26.135439, Alt.=154.783325m. Speed=30.563999m/h.</desc>
<speed>8.490000</speed>
</trkpt>
<trkpt lat="55.831573" lon="26.135416">
<ele>154.560669</ele>
<time>2010-07-17T13:43:45Z</time>
<desc>lat.=55.831573, lon.=26.135416, Alt.=154.560669m. Speed=31.284000m/h.</desc>
<speed>8.690000</speed>
</trkpt>
<trkpt lat="55.831650" lon="26.135389">
<ele>154.720825</ele>
<time>2010-07-17T13:43:46Z</time>
<desc>lat.=55.831650, lon.=26.135389, Alt.=154.720825m. Speed=31.212000m/h.</desc>
<speed>8.670000</speed>
</trkpt>
<trkpt lat="55.831726" lon="26.135366">
<ele>154.904419</ele>
<time>2010-07-17T13:43:47Z</time>
<desc>lat.=55.831726, lon.=26.135366, Alt.=154.904419m. Speed=31.608000m/h.</desc>
<speed>8.780000</speed>
</trkpt>
<trkpt lat="55.831802" lon="26.135345">
<ele>154.912231</ele>
<time>2010-07-17T13:43:48Z</time>
<desc>lat.=55.831802, lon.=26.135345, Alt.=154.912231m. Speed=31.212000m/h.</desc>
<speed>8.670000</speed>
</trkpt>
<trkpt lat="55.831882" lon="26.135326">
<ele>154.158325</ele>
<time>2010-07-17T13:43:49Z</time>
<desc>lat.=55.831882, lon.=26.135326, Alt.=154.158325m. Speed=31.104000m/h.</desc>
<speed>8.640000</speed>
</trkpt>
<trkpt lat="55.831955" lon="26.135307">
<ele>153.892700</ele>
<time>2010-07-17T13:43:50Z</time>
<desc>lat.=55.831955, lon.=26.135307, Alt.=153.892700m. Speed=31.032000m/h.</desc>
<speed>8.620000</speed>
</trkpt>
<trkpt lat="55.832031" lon="26.135290">
<ele>153.611450</ele>
<time>2010-07-17T13:43:51Z</time>
<desc>lat.=55.832031, lon.=26.135290, Alt.=153.611450m. Speed=31.320000m/h.</desc>
<speed>8.700000</speed>
</trkpt>
<trkpt lat="55.832108" lon="26.135269">
<ele>153.423950</ele>
<time>2010-07-17T13:43:52Z</time>
<desc>lat.=55.832108, lon.=26.135269, Alt.=153.423950m. Speed=30.384001m/h.</desc>
<speed>8.440000</speed>
</trkpt>
<trkpt lat="55.832184" lon="26.135248">
<ele>153.162231</ele>
<time>2010-07-17T13:43:53Z</time>
<desc>lat.=55.832184, lon.=26.135248, Alt.=153.162231m. Speed=30.240000m/h.</desc>
<speed>8.400000</speed>
</trkpt>
<trkpt lat="55.832256" lon="26.135227">
<ele>153.185669</ele>
<time>2010-07-17T13:43:54Z</time>
<desc>lat.=55.832256, lon.=26.135227, Alt.=153.185669m. Speed=30.240000m/h.</desc>
<speed>8.400000</speed>
</trkpt>
<trkpt lat="55.832333" lon="26.135210">
<ele>152.974731</ele>
<time>2010-07-17T13:43:55Z</time>
<desc>lat.=55.832333, lon.=26.135210, Alt.=152.974731m. Speed=29.700001m/h.</desc>
<speed>8.250000</speed>
</trkpt>
<trkpt lat="55.832405" lon="26.135193">
<ele>153.064575</ele>
<time>2010-07-17T13:43:56Z</time>
<desc>lat.=55.832405, lon.=26.135193, Alt.=153.064575m. Speed=29.556000m/h.</desc>
<speed>8.210000</speed>
</trkpt>
<trkpt lat="55.832481" lon="26.135172">
<ele>153.021606</ele>
<time>2010-07-17T13:43:57Z</time>
<desc>lat.=55.832481, lon.=26.135172, Alt.=153.021606m. Speed=30.059999m/h.</desc>
<speed>8.350000</speed>
</trkpt>
<trkpt lat="55.832554" lon="26.135149">
<ele>152.916138</ele>
<time>2010-07-17T13:43:58Z</time>
<desc>lat.=55.832554, lon.=26.135149, Alt.=152.916138m. Speed=30.420000m/h.</desc>
<speed>8.450000</speed>
</trkpt>
<trkpt lat="55.832630" lon="26.135128">
<ele>153.080200</ele>
<time>2010-07-17T13:43:59Z</time>
<desc>lat.=55.832630, lon.=26.135128, Alt.=153.080200m. Speed=30.455999m/h.</desc>
<speed>8.460000</speed>
</trkpt>
<trkpt lat="55.832706" lon="26.135105">
<ele>153.123169</ele>
<time>2010-07-17T13:44:00Z</time>
<desc>lat.=55.832706, lon.=26.135105, Alt.=153.123169m. Speed=30.348000m/h.</desc>
<speed>8.430000</speed>
</trkpt>
<trkpt lat="55.832779" lon="26.135084">
<ele>153.330200</ele>
<time>2010-07-17T13:44:01Z</time>
<desc>lat.=55.832779, lon.=26.135084, Alt.=153.330200m. Speed=30.492001m/h.</desc>
<speed>8.470000</speed>
</trkpt>
<trkpt lat="55.832855" lon="26.135069">
<ele>153.529419</ele>
<time>2010-07-17T13:44:02Z</time>
<desc>lat.=55.832855, lon.=26.135069, Alt.=153.529419m. Speed=30.132000m/h.</desc>
<speed>8.370000</speed>
</trkpt>
<trkpt lat="55.832928" lon="26.135048">
<ele>153.814575</ele>
<time>2010-07-17T13:44:03Z</time>
<desc>lat.=55.832928, lon.=26.135048, Alt.=153.814575m. Speed=29.556000m/h.</desc>
<speed>8.210000</speed>
</trkpt>
<trkpt lat="55.833000" lon="26.135031">
<ele>153.892700</ele>
<time>2010-07-17T13:44:04Z</time>
<desc>lat.=55.833000, lon.=26.135031, Alt.=153.892700m. Speed=29.052000m/h.</desc>
<speed>8.070000</speed>
</trkpt>
<trkpt lat="55.833069" lon="26.135014">
<ele>153.931763</ele>
<time>2010-07-17T13:44:05Z</time>
<desc>lat.=55.833069, lon.=26.135014, Alt.=153.931763m. Speed=28.764000m/h.</desc>
<speed>7.990000</speed>
</trkpt>
<trkpt lat="55.833141" lon="26.134995">
<ele>153.970825</ele>
<time>2010-07-17T13:44:06Z</time>
<desc>lat.=55.833141, lon.=26.134995, Alt.=153.970825m. Speed=28.080000m/h.</desc>
<speed>7.800000</speed>
</trkpt>
<trkpt lat="55.833210" lon="26.134975">
<ele>154.048950</ele>
<time>2010-07-17T13:44:07Z</time>
<desc>lat.=55.833210, lon.=26.134975, Alt.=154.048950m. Speed=27.431999m/h.</desc>
<speed>7.620000</speed>
</trkpt>
<trkpt lat="55.833279" lon="26.134956">
<ele>153.943481</ele>
<time>2010-07-17T13:44:08Z</time>
<desc>lat.=55.833279, lon.=26.134956, Alt.=153.943481m. Speed=27.000000m/h.</desc>
<speed>7.500000</speed>
</trkpt>
<trkpt lat="55.833344" lon="26.134937">
<ele>153.630981</ele>
<time>2010-07-17T13:44:09Z</time>
<desc>lat.=55.833344, lon.=26.134937, Alt.=153.630981m. Speed=26.747999m/h.</desc>
<speed>7.430000</speed>
</trkpt>
<trkpt lat="55.833412" lon="26.134920">
<ele>153.201294</ele>
<time>2010-07-17T13:44:10Z</time>
<desc>lat.=55.833412, lon.=26.134920, Alt.=153.201294m. Speed=26.712000m/h.</desc>
<speed>7.420000</speed>
</trkpt>
<trkpt lat="55.833477" lon="26.134907">
<ele>153.279419</ele>
<time>2010-07-17T13:44:11Z</time>
<desc>lat.=55.833477, lon.=26.134907, Alt.=153.279419m. Speed=26.424000m/h.</desc>
<speed>7.340000</speed>
</trkpt>
<trkpt lat="55.833542" lon="26.134892">
<ele>153.193481</ele>
<time>2010-07-17T13:44:12Z</time>
<desc>lat.=55.833542, lon.=26.134892, Alt.=153.193481m. Speed=26.280001m/h.</desc>
<speed>7.300000</speed>
</trkpt>
<trkpt lat="55.833607" lon="26.134874">
<ele>153.130981</ele>
<time>2010-07-17T13:44:13Z</time>
<desc>lat.=55.833607, lon.=26.134874, Alt.=153.130981m. Speed=25.848000m/h.</desc>
<speed>7.180000</speed>
</trkpt>
<trkpt lat="55.833668" lon="26.134855">
<ele>152.720825</ele>
<time>2010-07-17T13:44:14Z</time>
<desc>lat.=55.833668, lon.=26.134855, Alt.=152.720825m. Speed=25.056000m/h.</desc>
<speed>6.960000</speed>
</trkpt>
<trkpt lat="55.833729" lon="26.134838">
<ele>153.048950</ele>
<time>2010-07-17T13:44:15Z</time>
<desc>lat.=55.833729, lon.=26.134838, Alt.=153.048950m. Speed=24.587999m/h.</desc>
<speed>6.830000</speed>
</trkpt>
<trkpt lat="55.833790" lon="26.134819">
<ele>152.900513</ele>
<time>2010-07-17T13:44:16Z</time>
<desc>lat.=55.833790, lon.=26.134819, Alt.=152.900513m. Speed=24.299999m/h.</desc>
<speed>6.750000</speed>
</trkpt>
<trkpt lat="55.833847" lon="26.134802">
<ele>153.158325</ele>
<time>2010-07-17T13:44:17Z</time>
<desc>lat.=55.833847, lon.=26.134802, Alt.=153.158325m. Speed=23.868000m/h.</desc>
<speed>6.630000</speed>
</trkpt>
<trkpt lat="55.833908" lon="26.134787">
<ele>152.998169</ele>
<time>2010-07-17T13:44:18Z</time>
<desc>lat.=55.833908, lon.=26.134787, Alt.=152.998169m. Speed=23.903999m/h.</desc>
<speed>6.640000</speed>
</trkpt>
<trkpt lat="55.833965" lon="26.134769">
<ele>152.838013</ele>
<time>2010-07-17T13:44:19Z</time>
<desc>lat.=55.833965, lon.=26.134769, Alt.=152.838013m. Speed=23.615999m/h.</desc>
<speed>6.560000</speed>
</trkpt>
<trkpt lat="55.834026" lon="26.134750">
<ele>152.779419</ele>
<time>2010-07-17T13:44:20Z</time>
<desc>lat.=55.834026, lon.=26.134750, Alt.=152.779419m. Speed=23.400000m/h.</desc>
<speed>6.500000</speed>
</trkpt>
<trkpt lat="55.834084" lon="26.134729">
<ele>152.517700</ele>
<time>2010-07-17T13:44:21Z</time>
<desc>lat.=55.834084, lon.=26.134729, Alt.=152.517700m. Speed=23.544001m/h.</desc>
<speed>6.540000</speed>
</trkpt>
<trkpt lat="55.834141" lon="26.134712">
<ele>152.232544</ele>
<time>2010-07-17T13:44:22Z</time>
<desc>lat.=55.834141, lon.=26.134712, Alt.=152.232544m. Speed=23.580000m/h.</desc>
<speed>6.550000</speed>
</trkpt>
<trkpt lat="55.834198" lon="26.134695">
<ele>152.259888</ele>
<time>2010-07-17T13:44:23Z</time>
<desc>lat.=55.834198, lon.=26.134695, Alt.=152.259888m. Speed=23.400000m/h.</desc>
<speed>6.500000</speed>
</trkpt>
<trkpt lat="55.834259" lon="26.134674">
<ele>152.279419</ele>
<time>2010-07-17T13:44:24Z</time>
<desc>lat.=55.834259, lon.=26.134674, Alt.=152.279419m. Speed=23.327999m/h.</desc>
<speed>6.480000</speed>
</trkpt>
<trkpt lat="55.834312" lon="26.134663">
<ele>152.076294</ele>
<time>2010-07-17T13:44:25Z</time>
<desc>lat.=55.834312, lon.=26.134663, Alt.=152.076294m. Speed=24.084000m/h.</desc>
<speed>6.690000</speed>
</trkpt>
<trkpt lat="55.834373" lon="26.134649">
<ele>152.095825</ele>
<time>2010-07-17T13:44:26Z</time>
<desc>lat.=55.834373, lon.=26.134649, Alt.=152.095825m. Speed=25.164000m/h.</desc>
<speed>6.990000</speed>
</trkpt>
<trkpt lat="55.834435" lon="26.134636">
<ele>152.033325</ele>
<time>2010-07-17T13:44:27Z</time>
<desc>lat.=55.834435, lon.=26.134636, Alt.=152.033325m. Speed=25.452000m/h.</desc>
<speed>7.070000</speed>
</trkpt>
<trkpt lat="55.834499" lon="26.134621">
<ele>151.974731</ele>
<time>2010-07-17T13:44:28Z</time>
<desc>lat.=55.834499, lon.=26.134621, Alt.=151.974731m. Speed=26.243999m/h.</desc>
<speed>7.290000</speed>
</trkpt>
<trkpt lat="55.834564" lon="26.134602">
<ele>152.138794</ele>
<time>2010-07-17T13:44:29Z</time>
<desc>lat.=55.834564, lon.=26.134602, Alt.=152.138794m. Speed=26.568001m/h.</desc>
<speed>7.380000</speed>
</trkpt>
<trkpt lat="55.834629" lon="26.134583">
<ele>152.791138</ele>
<time>2010-07-17T13:44:30Z</time>
<desc>lat.=55.834629, lon.=26.134583, Alt.=152.791138m. Speed=26.459999m/h.</desc>
<speed>7.350000</speed>
</trkpt>
<trkpt lat="55.834698" lon="26.134563">
<ele>152.732544</ele>
<time>2010-07-17T13:44:31Z</time>
<desc>lat.=55.834698, lon.=26.134563, Alt.=152.732544m. Speed=27.323999m/h.</desc>
<speed>7.590000</speed>
</trkpt>
<trkpt lat="55.834763" lon="26.134546">
<ele>152.880981</ele>
<time>2010-07-17T13:44:32Z</time>
<desc>lat.=55.834763, lon.=26.134546, Alt.=152.880981m. Speed=26.568001m/h.</desc>
<speed>7.380000</speed>
</trkpt>
<trkpt lat="55.834827" lon="26.134533">
<ele>152.838013</ele>
<time>2010-07-17T13:44:33Z</time>
<desc>lat.=55.834827, lon.=26.134533, Alt.=152.838013m. Speed=26.316000m/h.</desc>
<speed>7.310000</speed>
</trkpt>
<trkpt lat="55.834892" lon="26.134518">
<ele>153.033325</ele>
<time>2010-07-17T13:44:34Z</time>
<desc>lat.=55.834892, lon.=26.134518, Alt.=153.033325m. Speed=25.740000m/h.</desc>
<speed>7.150000</speed>
</trkpt>
<trkpt lat="55.834957" lon="26.134499">
<ele>153.099731</ele>
<time>2010-07-17T13:44:35Z</time>
<desc>lat.=55.834957, lon.=26.134499, Alt.=153.099731m. Speed=25.344000m/h.</desc>
<speed>7.040000</speed>
</trkpt>
<trkpt lat="55.835018" lon="26.134483">
<ele>153.275513</ele>
<time>2010-07-17T13:44:36Z</time>
<desc>lat.=55.835018, lon.=26.134483, Alt.=153.275513m. Speed=25.164000m/h.</desc>
<speed>6.990000</speed>
</trkpt>
<trkpt lat="55.835079" lon="26.134468">
<ele>153.720825</ele>
<time>2010-07-17T13:44:37Z</time>
<desc>lat.=55.835079, lon.=26.134468, Alt.=153.720825m. Speed=24.624001m/h.</desc>
<speed>6.840000</speed>
</trkpt>
<trkpt lat="55.835140" lon="26.134455">
<ele>151.974731</ele>
<time>2010-07-17T13:44:38Z</time>
<desc>lat.=55.835140, lon.=26.134455, Alt.=151.974731m. Speed=24.264000m/h.</desc>
<speed>6.740000</speed>
</trkpt>
<trkpt lat="55.835197" lon="26.134441">
<ele>151.931763</ele>
<time>2010-07-17T13:44:39Z</time>
<desc>lat.=55.835197, lon.=26.134441, Alt.=151.931763m. Speed=23.760000m/h.</desc>
<speed>6.600000</speed>
</trkpt>
<trkpt lat="55.835255" lon="26.134428">
<ele>151.880981</ele>
<time>2010-07-17T13:44:40Z</time>
<desc>lat.=55.835255, lon.=26.134428, Alt.=151.880981m. Speed=23.580000m/h.</desc>
<speed>6.550000</speed>
</trkpt>
<trkpt lat="55.835316" lon="26.134413">
<ele>151.912231</ele>
<time>2010-07-17T13:44:41Z</time>
<desc>lat.=55.835316, lon.=26.134413, Alt.=151.912231m. Speed=24.516001m/h.</desc>
<speed>6.810000</speed>
</trkpt>
<trkpt lat="55.835373" lon="26.134396">
<ele>151.408325</ele>
<time>2010-07-17T13:44:42Z</time>
<desc>lat.=55.835373, lon.=26.134396, Alt.=151.408325m. Speed=25.020000m/h.</desc>
<speed>6.950000</speed>
</trkpt>
<trkpt lat="55.835438" lon="26.134380">
<ele>151.197388</ele>
<time>2010-07-17T13:44:43Z</time>
<desc>lat.=55.835438, lon.=26.134380, Alt.=151.197388m. Speed=25.596001m/h.</desc>
<speed>7.110000</speed>
</trkpt>
<trkpt lat="55.835503" lon="26.134359">
<ele>151.201294</ele>
<time>2010-07-17T13:44:44Z</time>
<desc>lat.=55.835503, lon.=26.134359, Alt.=151.201294m. Speed=26.316000m/h.</desc>
<speed>7.310000</speed>
</trkpt>
<trkpt lat="55.835564" lon="26.134342">
<ele>150.498169</ele>
<time>2010-07-17T13:44:45Z</time>
<desc>lat.=55.835564, lon.=26.134342, Alt.=150.498169m. Speed=27.000000m/h.</desc>
<speed>7.500000</speed>
</trkpt>
<trkpt lat="55.835629" lon="26.134327">
<ele>149.884888</ele>
<time>2010-07-17T13:44:46Z</time>
<desc>lat.=55.835629, lon.=26.134327, Alt.=149.884888m. Speed=27.792000m/h.</desc>
<speed>7.720000</speed>
</trkpt>
<trkpt lat="55.835701" lon="26.134308">
<ele>149.795044</ele>
<time>2010-07-17T13:44:47Z</time>
<desc>lat.=55.835701, lon.=26.134308, Alt.=149.795044m. Speed=28.656000m/h.</desc>
<speed>7.960000</speed>
</trkpt>
<trkpt lat="55.835770" lon="26.134289">
<ele>149.646606</ele>
<time>2010-07-17T13:44:48Z</time>
<desc>lat.=55.835770, lon.=26.134289, Alt.=149.646606m. Speed=28.584000m/h.</desc>
<speed>7.940000</speed>
</trkpt>
<trkpt lat="55.835842" lon="26.134268">
<ele>149.580200</ele>
<time>2010-07-17T13:44:49Z</time>
<desc>lat.=55.835842, lon.=26.134268, Alt.=149.580200m. Speed=28.584000m/h.</desc>
<speed>7.940000</speed>
</trkpt>
<trkpt lat="55.835915" lon="26.134243">
<ele>149.271606</ele>
<time>2010-07-17T13:44:50Z</time>
<desc>lat.=55.835915, lon.=26.134243, Alt.=149.271606m. Speed=28.332001m/h.</desc>
<speed>7.870000</speed>
</trkpt>
<trkpt lat="55.835983" lon="26.134218">
<ele>149.216919</ele>
<time>2010-07-17T13:44:51Z</time>
<desc>lat.=55.835983, lon.=26.134218, Alt.=149.216919m. Speed=28.080000m/h.</desc>
<speed>7.800000</speed>
</trkpt>
<trkpt lat="55.836056" lon="26.134193">
<ele>149.427856</ele>
<time>2010-07-17T13:44:52Z</time>
<desc>lat.=55.836056, lon.=26.134193, Alt.=149.427856m. Speed=27.864000m/h.</desc>
<speed>7.740000</speed>
</trkpt>
<trkpt lat="55.836124" lon="26.134171">
<ele>149.560669</ele>
<time>2010-07-17T13:44:53Z</time>
<desc>lat.=55.836124, lon.=26.134171, Alt.=149.560669m. Speed=28.224001m/h.</desc>
<speed>7.840000</speed>
</trkpt>
<trkpt lat="55.836193" lon="26.134151">
<ele>149.713013</ele>
<time>2010-07-17T13:44:54Z</time>
<desc>lat.=55.836193, lon.=26.134151, Alt.=149.713013m. Speed=28.332001m/h.</desc>
<speed>7.870000</speed>
</trkpt>
<trkpt lat="55.836262" lon="26.134130">
<ele>149.662231</ele>
<time>2010-07-17T13:44:55Z</time>
<desc>lat.=55.836262, lon.=26.134130, Alt.=149.662231m. Speed=28.296000m/h.</desc>
<speed>7.860000</speed>
</trkpt>
<trkpt lat="55.836330" lon="26.134113">
<ele>149.920044</ele>
<time>2010-07-17T13:44:56Z</time>
<desc>lat.=55.836330, lon.=26.134113, Alt.=149.920044m. Speed=28.152000m/h.</desc>
<speed>7.820000</speed>
</trkpt>
<trkpt lat="55.836403" lon="26.134094">
<ele>149.923950</ele>
<time>2010-07-17T13:44:57Z</time>
<desc>lat.=55.836403, lon.=26.134094, Alt.=149.923950m. Speed=29.340000m/h.</desc>
<speed>8.150000</speed>
</trkpt>
<trkpt lat="55.836479" lon="26.134075">
<ele>150.005981</ele>
<time>2010-07-17T13:44:58Z</time>
<desc>lat.=55.836479, lon.=26.134075, Alt.=150.005981m. Speed=29.916000m/h.</desc>
<speed>8.310000</speed>
</trkpt>
<trkpt lat="55.836552" lon="26.134058">
<ele>150.209106</ele>
<time>2010-07-17T13:44:59Z</time>
<desc>lat.=55.836552, lon.=26.134058, Alt.=150.209106m. Speed=28.908001m/h.</desc>
<speed>8.030000</speed>
</trkpt>
<trkpt lat="55.836624" lon="26.134043">
<ele>150.517700</ele>
<time>2010-07-17T13:45:00Z</time>
<desc>lat.=55.836624, lon.=26.134043, Alt.=150.517700m. Speed=28.691999m/h.</desc>
<speed>7.970000</speed>
</trkpt>
<trkpt lat="55.836693" lon="26.134026">
<ele>150.412231</ele>
<time>2010-07-17T13:45:01Z</time>
<desc>lat.=55.836693, lon.=26.134026, Alt.=150.412231m. Speed=29.591999m/h.</desc>
<speed>8.220000</speed>
</trkpt>
<trkpt lat="55.836765" lon="26.134008">
<ele>150.673950</ele>
<time>2010-07-17T13:45:02Z</time>
<desc>lat.=55.836765, lon.=26.134008, Alt.=150.673950m. Speed=29.304001m/h.</desc>
<speed>8.140000</speed>
</trkpt>
<trkpt lat="55.836834" lon="26.133993">
<ele>151.099731</ele>
<time>2010-07-17T13:45:03Z</time>
<desc>lat.=55.836834, lon.=26.133993, Alt.=151.099731m. Speed=26.136000m/h.</desc>
<speed>7.260000</speed>
</trkpt>
<trkpt lat="55.836895" lon="26.133972">
<ele>151.353638</ele>
<time>2010-07-17T13:45:04Z</time>
<desc>lat.=55.836895, lon.=26.133972, Alt.=151.353638m. Speed=25.308001m/h.</desc>
<speed>7.030000</speed>
</trkpt>
<trkpt lat="55.836952" lon="26.133949">
<ele>151.591919</ele>
<time>2010-07-17T13:45:05Z</time>
<desc>lat.=55.836952, lon.=26.133949, Alt.=151.591919m. Speed=23.868000m/h.</desc>
<speed>6.630000</speed>
</trkpt>
<trkpt lat="55.837002" lon="26.133930">
<ele>151.865356</ele>
<time>2010-07-17T13:45:06Z</time>
<desc>lat.=55.837002, lon.=26.133930, Alt.=151.865356m. Speed=20.879999m/h.</desc>
<speed>5.800000</speed>
</trkpt>
<trkpt lat="55.837055" lon="26.133915">
<ele>152.123169</ele>
<time>2010-07-17T13:45:07Z</time>
<desc>lat.=55.837055, lon.=26.133915, Alt.=152.123169m. Speed=21.455999m/h.</desc>
<speed>5.960000</speed>
</trkpt>
<trkpt lat="55.837109" lon="26.133905">
<ele>152.306763</ele>
<time>2010-07-17T13:45:08Z</time>
<desc>lat.=55.837109, lon.=26.133905, Alt.=152.306763m. Speed=20.879999m/h.</desc>
<speed>5.800000</speed>
</trkpt>
<trkpt lat="55.837154" lon="26.133902">
<ele>152.509888</ele>
<time>2010-07-17T13:45:09Z</time>
<desc>lat.=55.837154, lon.=26.133902, Alt.=152.509888m. Speed=17.100000m/h.</desc>
<speed>4.750000</speed>
</trkpt>
<trkpt lat="55.837189" lon="26.133896">
<ele>152.728638</ele>
<time>2010-07-17T13:45:10Z</time>
<desc>lat.=55.837189, lon.=26.133896, Alt.=152.728638m. Speed=15.048000m/h.</desc>
<speed>4.180000</speed>
</trkpt>
<trkpt lat="55.837234" lon="26.133881">
<ele>152.908325</ele>
<time>2010-07-17T13:45:11Z</time>
<desc>lat.=55.837234, lon.=26.133881, Alt.=152.908325m. Speed=18.035999m/h.</desc>
<speed>5.010000</speed>
</trkpt>
<trkpt lat="55.837284" lon="26.133869">
<ele>153.076294</ele>
<time>2010-07-17T13:45:12Z</time>
<desc>lat.=55.837284, lon.=26.133869, Alt.=153.076294m. Speed=18.000000m/h.</desc>
<speed>5.000000</speed>
</trkpt>
<trkpt lat="55.837337" lon="26.133858">
<ele>153.236450</ele>
<time>2010-07-17T13:45:13Z</time>
<desc>lat.=55.837337, lon.=26.133858, Alt.=153.236450m. Speed=19.044001m/h.</desc>
<speed>5.290000</speed>
</trkpt>
<trkpt lat="55.837387" lon="26.133842">
<ele>153.295044</ele>
<time>2010-07-17T13:45:14Z</time>
<desc>lat.=55.837387, lon.=26.133842, Alt.=153.295044m. Speed=18.936001m/h.</desc>
<speed>5.260000</speed>
</trkpt>
<trkpt lat="55.837437" lon="26.133823">
<ele>153.588013</ele>
<time>2010-07-17T13:45:15Z</time>
<desc>lat.=55.837437, lon.=26.133823, Alt.=153.588013m. Speed=18.323999m/h.</desc>
<speed>5.090000</speed>
</trkpt>
<trkpt lat="55.837490" lon="26.133795">
<ele>153.841919</ele>
<time>2010-07-17T13:45:16Z</time>
<desc>lat.=55.837490, lon.=26.133795, Alt.=153.841919m. Speed=18.396000m/h.</desc>
<speed>5.110000</speed>
</trkpt>
<trkpt lat="55.837543" lon="26.133783">
<ele>154.291138</ele>
<time>2010-07-17T13:45:17Z</time>
<desc>lat.=55.837543, lon.=26.133783, Alt.=154.291138m. Speed=20.087999m/h.</desc>
<speed>5.580000</speed>
</trkpt>
<trkpt lat="55.837696" lon="26.133759">
<ele>155.080200</ele>
<time>2010-07-17T13:45:18Z</time>
<desc>lat.=55.837696, lon.=26.133759, Alt.=155.080200m. Speed=22.212000m/h.</desc>
<speed>6.170000</speed>
</trkpt>
<trkpt lat="55.837757" lon="26.133739">
<ele>155.369263</ele>
<time>2010-07-17T13:45:19Z</time>
<desc>lat.=55.837757, lon.=26.133739, Alt.=155.369263m. Speed=21.024000m/h.</desc>
<speed>5.840000</speed>
</trkpt>
<trkpt lat="55.837818" lon="26.133722">
<ele>155.377075</ele>
<time>2010-07-17T13:45:20Z</time>
<desc>lat.=55.837818, lon.=26.133722, Alt.=155.377075m. Speed=19.440001m/h.</desc>
<speed>5.400000</speed>
</trkpt>
<trkpt lat="55.837868" lon="26.133713">
<ele>155.755981</ele>
<time>2010-07-17T13:45:21Z</time>
<desc>lat.=55.837868, lon.=26.133713, Alt.=155.755981m. Speed=21.492001m/h.</desc>
<speed>5.970000</speed>
</trkpt>
<trkpt lat="55.837921" lon="26.133698">
<ele>156.064575</ele>
<time>2010-07-17T13:45:22Z</time>
<desc>lat.=55.837921, lon.=26.133698, Alt.=156.064575m. Speed=22.896000m/h.</desc>
<speed>6.360000</speed>
</trkpt>
<trkpt lat="55.838001" lon="26.133667">
<ele>155.865356</ele>
<time>2010-07-17T13:45:23Z</time>
<desc>lat.=55.838001, lon.=26.133667, Alt.=155.865356m. Speed=23.760000m/h.</desc>
<speed>6.600000</speed>
</trkpt>
<trkpt lat="55.838081" lon="26.133640">
<ele>155.615356</ele>
<time>2010-07-17T13:45:24Z</time>
<desc>lat.=55.838081, lon.=26.133640, Alt.=155.615356m. Speed=24.948000m/h.</desc>
<speed>6.930000</speed>
</trkpt>
<trkpt lat="55.838158" lon="26.133617">
<ele>155.189575</ele>
<time>2010-07-17T13:45:25Z</time>
<desc>lat.=55.838158, lon.=26.133617, Alt.=155.189575m. Speed=26.172001m/h.</desc>
<speed>7.270000</speed>
</trkpt>
<trkpt lat="55.838230" lon="26.133595">
<ele>155.173950</ele>
<time>2010-07-17T13:45:26Z</time>
<desc>lat.=55.838230, lon.=26.133595, Alt.=155.173950m. Speed=26.280001m/h.</desc>
<speed>7.300000</speed>
</trkpt>
<trkpt lat="55.838303" lon="26.133570">
<ele>155.048950</ele>
<time>2010-07-17T13:45:27Z</time>
<desc>lat.=55.838303, lon.=26.133570, Alt.=155.048950m. Speed=26.532000m/h.</desc>
<speed>7.370000</speed>
</trkpt>
<trkpt lat="55.838371" lon="26.133554">
<ele>153.533325</ele>
<time>2010-07-17T13:45:28Z</time>
<desc>lat.=55.838371, lon.=26.133554, Alt.=153.533325m. Speed=26.676001m/h.</desc>
<speed>7.410000</speed>
</trkpt>
<trkpt lat="55.838444" lon="26.133535">
<ele>153.115356</ele>
<time>2010-07-17T13:45:29Z</time>
<desc>lat.=55.838444, lon.=26.133535, Alt.=153.115356m. Speed=27.216000m/h.</desc>
<speed>7.560000</speed>
</trkpt>
<trkpt lat="55.838512" lon="26.133518">
<ele>153.236450</ele>
<time>2010-07-17T13:45:30Z</time>
<desc>lat.=55.838512, lon.=26.133518, Alt.=153.236450m. Speed=26.927999m/h.</desc>
<speed>7.480000</speed>
</trkpt>
<trkpt lat="55.838585" lon="26.133499">
<ele>153.302856</ele>
<time>2010-07-17T13:45:31Z</time>
<desc>lat.=55.838585, lon.=26.133499, Alt.=153.302856m. Speed=27.108000m/h.</desc>
<speed>7.530000</speed>
</trkpt>
<trkpt lat="55.838654" lon="26.133478">
<ele>153.548950</ele>
<time>2010-07-17T13:45:32Z</time>
<desc>lat.=55.838654, lon.=26.133478, Alt.=153.548950m. Speed=27.396000m/h.</desc>
<speed>7.610000</speed>
</trkpt>
<trkpt lat="55.838730" lon="26.133461">
<ele>153.322388</ele>
<time>2010-07-17T13:45:33Z</time>
<desc>lat.=55.838730, lon.=26.133461, Alt.=153.322388m. Speed=28.188000m/h.</desc>
<speed>7.830000</speed>
</trkpt>
<trkpt lat="55.838799" lon="26.133444">
<ele>152.998169</ele>
<time>2010-07-17T13:45:34Z</time>
<desc>lat.=55.838799, lon.=26.133444, Alt.=152.998169m. Speed=28.332001m/h.</desc>
<speed>7.870000</speed>
</trkpt>
<trkpt lat="55.838867" lon="26.133429">
<ele>153.759888</ele>
<time>2010-07-17T13:45:35Z</time>
<desc>lat.=55.838867, lon.=26.133429, Alt.=153.759888m. Speed=27.396000m/h.</desc>
<speed>7.610000</speed>
</trkpt>
<trkpt lat="55.838936" lon="26.133410">
<ele>153.377075</ele>
<time>2010-07-17T13:45:36Z</time>
<desc>lat.=55.838936, lon.=26.133410, Alt.=153.377075m. Speed=28.980000m/h.</desc>
<speed>8.050000</speed>
</trkpt>
<trkpt lat="55.839001" lon="26.133394">
<ele>153.834106</ele>
<time>2010-07-17T13:45:37Z</time>
<desc>lat.=55.839001, lon.=26.133394, Alt.=153.834106m. Speed=25.344000m/h.</desc>
<speed>7.040000</speed>
</trkpt>
<trkpt lat="55.839069" lon="26.133381">
<ele>153.724731</ele>
<time>2010-07-17T13:45:38Z</time>
<desc>lat.=55.839069, lon.=26.133381, Alt.=153.724731m. Speed=26.459999m/h.</desc>
<speed>7.350000</speed>
</trkpt>
<trkpt lat="55.839134" lon="26.133356">
<ele>152.732544</ele>
<time>2010-07-17T13:45:39Z</time>
<desc>lat.=55.839134, lon.=26.133356, Alt.=152.732544m. Speed=28.115999m/h.</desc>
<speed>7.810000</speed>
</trkpt>
<trkpt lat="55.839199" lon="26.133335">
<ele>153.427856</ele>
<time>2010-07-17T13:45:40Z</time>
<desc>lat.=55.839199, lon.=26.133335, Alt.=153.427856m. Speed=26.280001m/h.</desc>
<speed>7.300000</speed>
</trkpt>
<trkpt lat="55.839268" lon="26.133308">
<ele>153.533325</ele>
<time>2010-07-17T13:45:41Z</time>
<desc>lat.=55.839268, lon.=26.133308, Alt.=153.533325m. Speed=28.115999m/h.</desc>
<speed>7.810000</speed>
</trkpt>
<trkpt lat="55.839348" lon="26.133299">
<ele>154.619263</ele>
<time>2010-07-17T13:45:42Z</time>
<desc>lat.=55.839348, lon.=26.133299, Alt.=154.619263m. Speed=29.844000m/h.</desc>
<speed>8.290000</speed>
</trkpt>
<trkpt lat="55.839424" lon="26.133276">
<ele>154.431763</ele>
<time>2010-07-17T13:45:43Z</time>
<desc>lat.=55.839424, lon.=26.133276, Alt.=154.431763m. Speed=31.392000m/h.</desc>
<speed>8.720000</speed>
</trkpt>
<trkpt lat="55.839500" lon="26.133245">
<ele>154.193481</ele>
<time>2010-07-17T13:45:44Z</time>
<desc>lat.=55.839500, lon.=26.133245, Alt.=154.193481m. Speed=31.716000m/h.</desc>
<speed>8.810000</speed>
</trkpt>
<trkpt lat="55.839581" lon="26.133205">
<ele>153.213013</ele>
<time>2010-07-17T13:45:45Z</time>
<desc>lat.=55.839581, lon.=26.133205, Alt.=153.213013m. Speed=32.220001m/h.</desc>
<speed>8.950000</speed>
</trkpt>
<trkpt lat="55.839672" lon="26.133179">
<ele>152.388794</ele>
<time>2010-07-17T13:45:46Z</time>
<desc>lat.=55.839672, lon.=26.133179, Alt.=152.388794m. Speed=33.768002m/h.</desc>
<speed>9.380000</speed>
</trkpt>
<trkpt lat="55.839764" lon="26.133152">
<ele>151.865356</ele>
<time>2010-07-17T13:45:47Z</time>
<desc>lat.=55.839764, lon.=26.133152, Alt.=151.865356m. Speed=31.572001m/h.</desc>
<speed>8.770000</speed>
</trkpt>
<trkpt lat="55.839851" lon="26.133127">
<ele>151.412231</ele>
<time>2010-07-17T13:45:48Z</time>
<desc>lat.=55.839851, lon.=26.133127, Alt.=151.412231m. Speed=33.264000m/h.</desc>
<speed>9.240000</speed>
</trkpt>
<trkpt lat="55.839931" lon="26.133104">
<ele>151.068481</ele>
<time>2010-07-17T13:45:49Z</time>
<desc>lat.=55.839931, lon.=26.133104, Alt.=151.068481m. Speed=31.788000m/h.</desc>
<speed>8.830000</speed>
</trkpt>
<trkpt lat="55.840065" lon="26.133110">
<ele>151.271606</ele>
<time>2010-07-17T13:45:50Z</time>
<desc>lat.=55.840065, lon.=26.133110, Alt.=151.271606m. Speed=33.480000m/h.</desc>
<speed>9.300000</speed>
</trkpt>
<trkpt lat="55.840153" lon="26.133089">
<ele>151.459106</ele>
<time>2010-07-17T13:45:51Z</time>
<desc>lat.=55.840153, lon.=26.133089, Alt.=151.459106m. Speed=35.712002m/h.</desc>
<speed>9.920001</speed>
</trkpt>
<trkpt lat="55.840248" lon="26.133053">
<ele>151.474731</ele>
<time>2010-07-17T13:45:52Z</time>
<desc>lat.=55.840248, lon.=26.133053, Alt.=151.474731m. Speed=34.703999m/h.</desc>
<speed>9.640000</speed>
</trkpt>
<trkpt lat="55.840359" lon="26.133009">
<ele>151.959106</ele>
<time>2010-07-17T13:45:53Z</time>
<desc>lat.=55.840359, lon.=26.133009, Alt.=151.959106m. Speed=35.316002m/h.</desc>
<speed>9.810001</speed>
</trkpt>
<trkpt lat="55.840466" lon="26.132959">
<ele>152.732544</ele>
<time>2010-07-17T13:45:54Z</time>
<desc>lat.=55.840466, lon.=26.132959, Alt.=152.732544m. Speed=37.980000m/h.</desc>
<speed>10.550000</speed>
</trkpt>
<trkpt lat="55.840557" lon="26.132914">
<ele>153.162231</ele>
<time>2010-07-17T13:45:55Z</time>
<desc>lat.=55.840557, lon.=26.132914, Alt.=153.162231m. Speed=33.840000m/h.</desc>
<speed>9.400000</speed>
</trkpt>
<trkpt lat="55.840652" lon="26.132866">
<ele>152.240356</ele>
<time>2010-07-17T13:45:56Z</time>
<desc>lat.=55.840652, lon.=26.132866, Alt.=152.240356m. Speed=32.759998m/h.</desc>
<speed>9.100000</speed>
</trkpt>
<trkpt lat="55.840729" lon="26.132811">
<ele>151.314575</ele>
<time>2010-07-17T13:45:57Z</time>
<desc>lat.=55.840729, lon.=26.132811, Alt.=151.314575m. Speed=27.180000m/h.</desc>
<speed>7.550000</speed>
</trkpt>
<trkpt lat="55.840801" lon="26.132755">
<ele>150.423950</ele>
<time>2010-07-17T13:45:58Z</time>
<desc>lat.=55.840801, lon.=26.132755, Alt.=150.423950m. Speed=29.052000m/h.</desc>
<speed>8.070000</speed>
</trkpt>
<trkpt lat="55.840874" lon="26.132690">
<ele>150.154419</ele>
<time>2010-07-17T13:45:59Z</time>
<desc>lat.=55.840874, lon.=26.132690, Alt.=150.154419m. Speed=30.672001m/h.</desc>
<speed>8.520000</speed>
</trkpt>
<trkpt lat="55.840942" lon="26.132616">
<ele>149.189575</ele>
<time>2010-07-17T13:46:00Z</time>
<desc>lat.=55.840942, lon.=26.132616, Alt.=149.189575m. Speed=30.312000m/h.</desc>
<speed>8.420000</speed>
</trkpt>
<trkpt lat="55.841007" lon="26.132542">
<ele>148.896606</ele>
<time>2010-07-17T13:46:01Z</time>
<desc>lat.=55.841007, lon.=26.132542, Alt.=148.896606m. Speed=30.924000m/h.</desc>
<speed>8.590000</speed>
</trkpt>
<trkpt lat="55.841072" lon="26.132458">
<ele>148.537231</ele>
<time>2010-07-17T13:46:02Z</time>
<desc>lat.=55.841072, lon.=26.132458, Alt.=148.537231m. Speed=31.104000m/h.</desc>
<speed>8.640000</speed>
</trkpt>
<trkpt lat="55.841137" lon="26.132372">
<ele>148.447388</ele>
<time>2010-07-17T13:46:03Z</time>
<desc>lat.=55.841137, lon.=26.132372, Alt.=148.447388m. Speed=31.320000m/h.</desc>
<speed>8.700000</speed>
</trkpt>
<trkpt lat="55.841198" lon="26.132278">
<ele>148.353638</ele>
<time>2010-07-17T13:46:04Z</time>
<desc>lat.=55.841198, lon.=26.132278, Alt.=148.353638m. Speed=30.924000m/h.</desc>
<speed>8.590000</speed>
</trkpt>
<trkpt lat="55.841251" lon="26.132172">
<ele>147.384888</ele>
<time>2010-07-17T13:46:05Z</time>
<desc>lat.=55.841251, lon.=26.132172, Alt.=147.384888m. Speed=30.636000m/h.</desc>
<speed>8.510000</speed>
</trkpt>
<trkpt lat="55.841309" lon="26.132074">
<ele>146.908325</ele>
<time>2010-07-17T13:46:06Z</time>
<desc>lat.=55.841309, lon.=26.132074, Alt.=146.908325m. Speed=30.816000m/h.</desc>
<speed>8.560000</speed>
</trkpt>
<trkpt lat="55.841366" lon="26.131981">
<ele>146.904419</ele>
<time>2010-07-17T13:46:07Z</time>
<desc>lat.=55.841366, lon.=26.131981, Alt.=146.904419m. Speed=30.492001m/h.</desc>
<speed>8.470000</speed>
</trkpt>
<trkpt lat="55.841423" lon="26.131887">
<ele>147.107544</ele>
<time>2010-07-17T13:46:08Z</time>
<desc>lat.=55.841423, lon.=26.131887, Alt.=147.107544m. Speed=30.528000m/h.</desc>
<speed>8.480000</speed>
</trkpt>
<trkpt lat="55.841473" lon="26.131790">
<ele>147.306763</ele>
<time>2010-07-17T13:46:09Z</time>
<desc>lat.=55.841473, lon.=26.131790, Alt.=147.306763m. Speed=30.132000m/h.</desc>
<speed>8.370000</speed>
</trkpt>
<trkpt lat="55.841526" lon="26.131695">
<ele>147.689575</ele>
<time>2010-07-17T13:46:10Z</time>
<desc>lat.=55.841526, lon.=26.131695, Alt.=147.689575m. Speed=29.952000m/h.</desc>
<speed>8.320000</speed>
</trkpt>
<trkpt lat="55.841576" lon="26.131599">
<ele>148.431763</ele>
<time>2010-07-17T13:46:11Z</time>
<desc>lat.=55.841576, lon.=26.131599, Alt.=148.431763m. Speed=29.700001m/h.</desc>
<speed>8.250000</speed>
</trkpt>
<trkpt lat="55.841625" lon="26.131500">
<ele>148.482544</ele>
<time>2010-07-17T13:46:12Z</time>
<desc>lat.=55.841625, lon.=26.131500, Alt.=148.482544m. Speed=28.980000m/h.</desc>
<speed>8.050000</speed>
</trkpt>
<trkpt lat="55.841675" lon="26.131401">
<ele>148.170044</ele>
<time>2010-07-17T13:46:13Z</time>
<desc>lat.=55.841675, lon.=26.131401, Alt.=148.170044m. Speed=28.691999m/h.</desc>
<speed>7.970000</speed>
</trkpt>
<trkpt lat="55.841721" lon="26.131306">
<ele>147.810669</ele>
<time>2010-07-17T13:46:14Z</time>
<desc>lat.=55.841721, lon.=26.131306, Alt.=147.810669m. Speed=27.576000m/h.</desc>
<speed>7.660000</speed>
</trkpt>
<trkpt lat="55.841763" lon="26.131212">
<ele>147.705200</ele>
<time>2010-07-17T13:46:15Z</time>
<desc>lat.=55.841763, lon.=26.131212, Alt.=147.705200m. Speed=27.684000m/h.</desc>
<speed>7.690000</speed>
</trkpt>
<trkpt lat="55.841805" lon="26.131111">
<ele>147.338013</ele>
<time>2010-07-17T13:46:16Z</time>
<desc>lat.=55.841805, lon.=26.131111, Alt.=147.338013m. Speed=27.576000m/h.</desc>
<speed>7.660000</speed>
</trkpt>
<trkpt lat="55.841843" lon="26.131012">
<ele>147.045044</ele>
<time>2010-07-17T13:46:17Z</time>
<desc>lat.=55.841843, lon.=26.131012, Alt.=147.045044m. Speed=27.468000m/h.</desc>
<speed>7.630000</speed>
</trkpt>
<trkpt lat="55.841881" lon="26.130909">
<ele>146.517700</ele>
<time>2010-07-17T13:46:18Z</time>
<desc>lat.=55.841881, lon.=26.130909, Alt.=146.517700m. Speed=27.431999m/h.</desc>
<speed>7.620000</speed>
</trkpt>
<trkpt lat="55.841919" lon="26.130808">
<ele>146.146606</ele>
<time>2010-07-17T13:46:19Z</time>
<desc>lat.=55.841919, lon.=26.130808, Alt.=146.146606m. Speed=26.892000m/h.</desc>
<speed>7.470000</speed>
</trkpt>
<trkpt lat="55.841953" lon="26.130707">
<ele>145.990356</ele>
<time>2010-07-17T13:46:20Z</time>
<desc>lat.=55.841953, lon.=26.130707, Alt.=145.990356m. Speed=26.568001m/h.</desc>
<speed>7.380000</speed>
</trkpt>
<trkpt lat="55.841988" lon="26.130608">
<ele>145.463013</ele>
<time>2010-07-17T13:46:21Z</time>
<desc>lat.=55.841988, lon.=26.130608, Alt.=145.463013m. Speed=26.136000m/h.</desc>
<speed>7.260000</speed>
</trkpt>
<trkpt lat="55.842022" lon="26.130512">
<ele>145.134888</ele>
<time>2010-07-17T13:46:22Z</time>
<desc>lat.=55.842022, lon.=26.130512, Alt.=145.134888m. Speed=25.848000m/h.</desc>
<speed>7.180000</speed>
</trkpt>
<trkpt lat="55.842060" lon="26.130415">
<ele>145.463013</ele>
<time>2010-07-17T13:46:23Z</time>
<desc>lat.=55.842060, lon.=26.130415, Alt.=145.463013m. Speed=26.280001m/h.</desc>
<speed>7.300000</speed>
</trkpt>
<trkpt lat="55.842094" lon="26.130320">
<ele>145.611450</ele>
<time>2010-07-17T13:46:24Z</time>
<desc>lat.=55.842094, lon.=26.130320, Alt.=145.611450m. Speed=26.063999m/h.</desc>
<speed>7.240000</speed>
</trkpt>
<trkpt lat="55.842133" lon="26.130215">
<ele>145.841919</ele>
<time>2010-07-17T13:46:25Z</time>
<desc>lat.=55.842133, lon.=26.130215, Alt.=145.841919m. Speed=26.676001m/h.</desc>
<speed>7.410000</speed>
</trkpt>
<trkpt lat="55.842163" lon="26.130117">
<ele>145.748169</ele>
<time>2010-07-17T13:46:26Z</time>
<desc>lat.=55.842163, lon.=26.130117, Alt.=145.748169m. Speed=25.416000m/h.</desc>
<speed>7.060000</speed>
</trkpt>
<trkpt lat="55.842194" lon="26.130026">
<ele>145.252075</ele>
<time>2010-07-17T13:46:27Z</time>
<desc>lat.=55.842194, lon.=26.130026, Alt.=145.252075m. Speed=24.912001m/h.</desc>
<speed>6.920000</speed>
</trkpt>
<trkpt lat="55.842224" lon="26.129930">
<ele>145.213013</ele>
<time>2010-07-17T13:46:28Z</time>
<desc>lat.=55.842224, lon.=26.129930, Alt.=145.213013m. Speed=24.299999m/h.</desc>
<speed>6.750000</speed>
</trkpt>
<trkpt lat="55.842258" lon="26.129843">
<ele>145.076294</ele>
<time>2010-07-17T13:46:29Z</time>
<desc>lat.=55.842258, lon.=26.129843, Alt.=145.076294m. Speed=23.652000m/h.</desc>
<speed>6.570000</speed>
</trkpt>
<trkpt lat="55.842289" lon="26.129753">
<ele>144.998169</ele>
<time>2010-07-17T13:46:30Z</time>
<desc>lat.=55.842289, lon.=26.129753, Alt.=144.998169m. Speed=23.472000m/h.</desc>
<speed>6.520000</speed>
</trkpt>
<trkpt lat="55.842319" lon="26.129665">
<ele>144.951294</ele>
<time>2010-07-17T13:46:31Z</time>
<desc>lat.=55.842319, lon.=26.129665, Alt.=144.951294m. Speed=23.327999m/h.</desc>
<speed>6.480000</speed>
</trkpt>
<trkpt lat="55.842346" lon="26.129578">
<ele>145.025513</ele>
<time>2010-07-17T13:46:32Z</time>
<desc>lat.=55.842346, lon.=26.129578, Alt.=145.025513m. Speed=23.292000m/h.</desc>
<speed>6.470000</speed>
</trkpt>
<trkpt lat="55.842373" lon="26.129486">
<ele>144.767700</ele>
<time>2010-07-17T13:46:33Z</time>
<desc>lat.=55.842373, lon.=26.129486, Alt.=144.767700m. Speed=22.968000m/h.</desc>
<speed>6.380000</speed>
</trkpt>
<trkpt lat="55.842396" lon="26.129398">
<ele>144.642700</ele>
<time>2010-07-17T13:46:34Z</time>
<desc>lat.=55.842396, lon.=26.129398, Alt.=144.642700m. Speed=22.284000m/h.</desc>
<speed>6.190000</speed>
</trkpt>
<trkpt lat="55.842419" lon="26.129305">
<ele>144.408325</ele>
<time>2010-07-17T13:46:35Z</time>
<desc>lat.=55.842419, lon.=26.129305, Alt.=144.408325m. Speed=24.372000m/h.</desc>
<speed>6.770000</speed>
</trkpt>
<trkpt lat="55.842445" lon="26.129206">
<ele>144.318481</ele>
<time>2010-07-17T13:46:36Z</time>
<desc>lat.=55.842445, lon.=26.129206, Alt.=144.318481m. Speed=24.084000m/h.</desc>
<speed>6.690000</speed>
</trkpt>
<trkpt lat="55.842468" lon="26.129110">
<ele>144.283325</ele>
<time>2010-07-17T13:46:37Z</time>
<desc>lat.=55.842468, lon.=26.129110, Alt.=144.283325m. Speed=22.392000m/h.</desc>
<speed>6.220000</speed>
</trkpt>
<trkpt lat="55.842487" lon="26.129011">
<ele>144.322388</ele>
<time>2010-07-17T13:46:38Z</time>
<desc>lat.=55.842487, lon.=26.129011, Alt.=144.322388m. Speed=23.940001m/h.</desc>
<speed>6.650000</speed>
</trkpt>
<trkpt lat="55.842506" lon="26.128910">
<ele>144.298950</ele>
<time>2010-07-17T13:46:39Z</time>
<desc>lat.=55.842506, lon.=26.128910, Alt.=144.298950m. Speed=23.652000m/h.</desc>
<speed>6.570000</speed>
</trkpt>
<trkpt lat="55.842522" lon="26.128811">
<ele>144.431763</ele>
<time>2010-07-17T13:46:40Z</time>
<desc>lat.=55.842522, lon.=26.128811, Alt.=144.431763m. Speed=23.184000m/h.</desc>
<speed>6.440000</speed>
</trkpt>
<trkpt lat="55.842537" lon="26.128714">
<ele>144.470825</ele>
<time>2010-07-17T13:46:41Z</time>
<desc>lat.=55.842537, lon.=26.128714, Alt.=144.470825m. Speed=22.392000m/h.</desc>
<speed>6.220000</speed>
</trkpt>
<trkpt lat="55.842548" lon="26.128616">
<ele>144.513794</ele>
<time>2010-07-17T13:46:42Z</time>
<desc>lat.=55.842548, lon.=26.128616, Alt.=144.513794m. Speed=21.672001m/h.</desc>
<speed>6.020000</speed>
</trkpt>
<trkpt lat="55.842548" lon="26.128510">
<ele>145.201294</ele>
<time>2010-07-17T13:46:43Z</time>
<desc>lat.=55.842548, lon.=26.128510, Alt.=145.201294m. Speed=21.240000m/h.</desc>
<speed>5.900000</speed>
</trkpt>
<trkpt lat="55.842552" lon="26.128420">
<ele>145.814575</ele>
<time>2010-07-17T13:46:44Z</time>
<desc>lat.=55.842552, lon.=26.128420, Alt.=145.814575m. Speed=21.420000m/h.</desc>
<speed>5.950000</speed>
</trkpt>
<trkpt lat="55.842545" lon="26.128321">
<ele>145.295044</ele>
<time>2010-07-17T13:46:45Z</time>
<desc>lat.=55.842545, lon.=26.128321, Alt.=145.295044m. Speed=21.528000m/h.</desc>
<speed>5.980000</speed>
</trkpt>
<trkpt lat="55.842541" lon="26.128223">
<ele>145.138794</ele>
<time>2010-07-17T13:46:46Z</time>
<desc>lat.=55.842541, lon.=26.128223, Alt.=145.138794m. Speed=22.032000m/h.</desc>
<speed>6.120000</speed>
</trkpt>
<trkpt lat="55.842529" lon="26.128120">
<ele>144.810669</ele>
<time>2010-07-17T13:46:47Z</time>
<desc>lat.=55.842529, lon.=26.128120, Alt.=144.810669m. Speed=22.752001m/h.</desc>
<speed>6.320000</speed>
</trkpt>
<trkpt lat="55.842525" lon="26.128017">
<ele>144.490356</ele>
<time>2010-07-17T13:46:48Z</time>
<desc>lat.=55.842525, lon.=26.128017, Alt.=144.490356m. Speed=22.716000m/h.</desc>
<speed>6.310000</speed>
</trkpt>
<trkpt lat="55.842518" lon="26.127920">
<ele>145.244263</ele>
<time>2010-07-17T13:46:49Z</time>
<desc>lat.=55.842518, lon.=26.127920, Alt.=145.244263m. Speed=22.572001m/h.</desc>
<speed>6.270000</speed>
</trkpt>
<trkpt lat="55.842506" lon="26.127819">
<ele>144.752075</ele>
<time>2010-07-17T13:46:50Z</time>
<desc>lat.=55.842506, lon.=26.127819, Alt.=144.752075m. Speed=23.040001m/h.</desc>
<speed>6.400000</speed>
</trkpt>
<trkpt lat="55.842499" lon="26.127716">
<ele>144.822388</ele>
<time>2010-07-17T13:46:51Z</time>
<desc>lat.=55.842499, lon.=26.127716, Alt.=144.822388m. Speed=23.364000m/h.</desc>
<speed>6.490000</speed>
</trkpt>
<trkpt lat="55.842480" lon="26.127617">
<ele>144.377075</ele>
<time>2010-07-17T13:46:52Z</time>
<desc>lat.=55.842480, lon.=26.127617, Alt.=144.377075m. Speed=23.256001m/h.</desc>
<speed>6.460000</speed>
</trkpt>
<trkpt lat="55.842468" lon="26.127516">
<ele>144.162231</ele>
<time>2010-07-17T13:46:53Z</time>
<desc>lat.=55.842468, lon.=26.127516, Alt.=144.162231m. Speed=22.752001m/h.</desc>
<speed>6.320000</speed>
</trkpt>
<trkpt lat="55.842457" lon="26.127417">
<ele>143.978638</ele>
<time>2010-07-17T13:46:54Z</time>
<desc>lat.=55.842457, lon.=26.127417, Alt.=143.978638m. Speed=22.572001m/h.</desc>
<speed>6.270000</speed>
</trkpt>
<trkpt lat="55.842445" lon="26.127319">
<ele>143.611450</ele>
<time>2010-07-17T13:46:55Z</time>
<desc>lat.=55.842445, lon.=26.127319, Alt.=143.611450m. Speed=22.247999m/h.</desc>
<speed>6.180000</speed>
</trkpt>
<trkpt lat="55.842434" lon="26.127222">
<ele>143.267700</ele>
<time>2010-07-17T13:46:56Z</time>
<desc>lat.=55.842434, lon.=26.127222, Alt.=143.267700m. Speed=21.816000m/h.</desc>
<speed>6.060000</speed>
</trkpt>
<trkpt lat="55.842422" lon="26.127127">
<ele>143.119263</ele>
<time>2010-07-17T13:46:57Z</time>
<desc>lat.=55.842422, lon.=26.127127, Alt.=143.119263m. Speed=21.348000m/h.</desc>
<speed>5.930000</speed>
</trkpt>
<trkpt lat="55.842415" lon="26.127031">
<ele>143.048950</ele>
<time>2010-07-17T13:46:58Z</time>
<desc>lat.=55.842415, lon.=26.127031, Alt.=143.048950m. Speed=20.988001m/h.</desc>
<speed>5.830000</speed>
</trkpt>
<trkpt lat="55.842403" lon="26.126938">
<ele>142.755981</ele>
<time>2010-07-17T13:46:59Z</time>
<desc>lat.=55.842403, lon.=26.126938, Alt.=142.755981m. Speed=20.808001m/h.</desc>
<speed>5.780000</speed>
</trkpt>
<trkpt lat="55.842392" lon="26.126848">
<ele>142.724731</ele>
<time>2010-07-17T13:47:00Z</time>
<desc>lat.=55.842392, lon.=26.126848, Alt.=142.724731m. Speed=20.232000m/h.</desc>
<speed>5.620000</speed>
</trkpt>
<trkpt lat="55.842384" lon="26.126760">
<ele>142.806763</ele>
<time>2010-07-17T13:47:01Z</time>
<desc>lat.=55.842384, lon.=26.126760, Alt.=142.806763m. Speed=19.908001m/h.</desc>
<speed>5.530000</speed>
</trkpt>
<trkpt lat="55.842377" lon="26.126675">
<ele>142.795044</ele>
<time>2010-07-17T13:47:02Z</time>
<desc>lat.=55.842377, lon.=26.126675, Alt.=142.795044m. Speed=19.296000m/h.</desc>
<speed>5.360000</speed>
</trkpt>
<trkpt lat="55.842365" lon="26.126593">
<ele>142.615356</ele>
<time>2010-07-17T13:47:03Z</time>
<desc>lat.=55.842365, lon.=26.126593, Alt.=142.615356m. Speed=18.936001m/h.</desc>
<speed>5.260000</speed>
</trkpt>
<trkpt lat="55.842346" lon="26.126513">
<ele>142.603638</ele>
<time>2010-07-17T13:47:04Z</time>
<desc>lat.=55.842346, lon.=26.126513, Alt.=142.603638m. Speed=19.368000m/h.</desc>
<speed>5.380000</speed>
</trkpt>
<trkpt lat="55.842331" lon="26.126432">
<ele>142.607544</ele>
<time>2010-07-17T13:47:05Z</time>
<desc>lat.=55.842331, lon.=26.126432, Alt.=142.607544m. Speed=19.332001m/h.</desc>
<speed>5.370000</speed>
</trkpt>
<trkpt lat="55.842312" lon="26.126345">
<ele>142.220825</ele>
<time>2010-07-17T13:47:06Z</time>
<desc>lat.=55.842312, lon.=26.126345, Alt.=142.220825m. Speed=20.304001m/h.</desc>
<speed>5.640000</speed>
</trkpt>
<trkpt lat="55.842297" lon="26.126257">
<ele>142.088013</ele>
<time>2010-07-17T13:47:07Z</time>
<desc>lat.=55.842297, lon.=26.126257, Alt.=142.088013m. Speed=20.988001m/h.</desc>
<speed>5.830000</speed>
</trkpt>
<trkpt lat="55.842278" lon="26.126173">
<ele>141.947388</ele>
<time>2010-07-17T13:47:08Z</time>
<desc>lat.=55.842278, lon.=26.126173, Alt.=141.947388m. Speed=20.520000m/h.</desc>
<speed>5.700000</speed>
</trkpt>
<trkpt lat="55.842251" lon="26.126097">
<ele>141.830200</ele>
<time>2010-07-17T13:47:09Z</time>
<desc>lat.=55.842251, lon.=26.126097, Alt.=141.830200m. Speed=18.252001m/h.</desc>
<speed>5.070000</speed>
</trkpt>
<trkpt lat="55.842220" lon="26.126009">
<ele>141.533325</ele>
<time>2010-07-17T13:47:10Z</time>
<desc>lat.=55.842220, lon.=26.126009, Alt.=141.533325m. Speed=21.996000m/h.</desc>
<speed>6.110000</speed>
</trkpt>
<trkpt lat="55.842190" lon="26.125923">
<ele>141.345825</ele>
<time>2010-07-17T13:47:11Z</time>
<desc>lat.=55.842190, lon.=26.125923, Alt.=141.345825m. Speed=22.176001m/h.</desc>
<speed>6.160000</speed>
</trkpt>
<trkpt lat="55.842159" lon="26.125832">
<ele>141.650513</ele>
<time>2010-07-17T13:47:12Z</time>
<desc>lat.=55.842159, lon.=26.125832, Alt.=141.650513m. Speed=24.516001m/h.</desc>
<speed>6.810000</speed>
</trkpt>
<trkpt lat="55.842125" lon="26.125742">
<ele>141.505981</ele>
<time>2010-07-17T13:47:13Z</time>
<desc>lat.=55.842125, lon.=26.125742, Alt.=141.505981m. Speed=21.455999m/h.</desc>
<speed>5.960000</speed>
</trkpt>
<trkpt lat="55.842094" lon="26.125669">
<ele>141.486450</ele>
<time>2010-07-17T13:47:14Z</time>
<desc>lat.=55.842094, lon.=26.125669, Alt.=141.486450m. Speed=21.996000m/h.</desc>
<speed>6.110000</speed>
</trkpt>
<trkpt lat="55.842056" lon="26.125593">
<ele>141.564575</ele>
<time>2010-07-17T13:47:15Z</time>
<desc>lat.=55.842056, lon.=26.125593, Alt.=141.564575m. Speed=21.563999m/h.</desc>
<speed>5.990000</speed>
</trkpt>
<trkpt lat="55.842022" lon="26.125519">
<ele>141.638794</ele>
<time>2010-07-17T13:47:16Z</time>
<desc>lat.=55.842022, lon.=26.125519, Alt.=141.638794m. Speed=20.412001m/h.</desc>
<speed>5.670000</speed>
</trkpt>
<trkpt lat="55.841991" lon="26.125460">
<ele>141.951294</ele>
<time>2010-07-17T13:47:17Z</time>
<desc>lat.=55.841991, lon.=26.125460, Alt.=141.951294m. Speed=17.712000m/h.</desc>
<speed>4.920000</speed>
</trkpt>
<trkpt lat="55.841961" lon="26.125391">
<ele>142.115356</ele>
<time>2010-07-17T13:47:18Z</time>
<desc>lat.=55.841961, lon.=26.125391, Alt.=142.115356m. Speed=19.440001m/h.</desc>
<speed>5.400000</speed>
</trkpt>
<trkpt lat="55.841923" lon="26.125311">
<ele>142.052856</ele>
<time>2010-07-17T13:47:19Z</time>
<desc>lat.=55.841923, lon.=26.125311, Alt.=142.052856m. Speed=20.160000m/h.</desc>
<speed>5.600000</speed>
</trkpt>
<trkpt lat="55.841888" lon="26.125244">
<ele>142.248169</ele>
<time>2010-07-17T13:47:20Z</time>
<desc>lat.=55.841888, lon.=26.125244, Alt.=142.248169m. Speed=19.872000m/h.</desc>
<speed>5.520000</speed>
</trkpt>
<trkpt lat="55.841854" lon="26.125183">
<ele>142.427856</ele>
<time>2010-07-17T13:47:21Z</time>
<desc>lat.=55.841854, lon.=26.125183, Alt.=142.427856m. Speed=18.648001m/h.</desc>
<speed>5.180000</speed>
</trkpt>
<trkpt lat="55.841827" lon="26.125124">
<ele>142.705200</ele>
<time>2010-07-17T13:47:22Z</time>
<desc>lat.=55.841827, lon.=26.125124, Alt.=142.705200m. Speed=17.172001m/h.</desc>
<speed>4.770000</speed>
</trkpt>
<trkpt lat="55.841801" lon="26.125069">
<ele>142.970825</ele>
<time>2010-07-17T13:47:23Z</time>
<desc>lat.=55.841801, lon.=26.125069, Alt.=142.970825m. Speed=15.660000m/h.</desc>
<speed>4.350000</speed>
</trkpt>
<trkpt lat="55.841763" lon="26.125015">
<ele>143.170044</ele>
<time>2010-07-17T13:47:24Z</time>
<desc>lat.=55.841763, lon.=26.125015, Alt.=143.170044m. Speed=19.152000m/h.</desc>
<speed>5.320000</speed>
</trkpt>
<trkpt lat="55.841721" lon="26.124960">
<ele>143.287231</ele>
<time>2010-07-17T13:47:25Z</time>
<desc>lat.=55.841721, lon.=26.124960, Alt.=143.287231m. Speed=18.576000m/h.</desc>
<speed>5.160000</speed>
</trkpt>
<trkpt lat="55.841686" lon="26.124910">
<ele>143.396606</ele>
<time>2010-07-17T13:47:26Z</time>
<desc>lat.=55.841686, lon.=26.124910, Alt.=143.396606m. Speed=16.740000m/h.</desc>
<speed>4.650000</speed>
</trkpt>
<trkpt lat="55.841648" lon="26.124857">
<ele>143.502075</ele>
<time>2010-07-17T13:47:27Z</time>
<desc>lat.=55.841648, lon.=26.124857, Alt.=143.502075m. Speed=17.784000m/h.</desc>
<speed>4.940000</speed>
</trkpt>
<trkpt lat="55.841614" lon="26.124796">
<ele>143.705200</ele>
<time>2010-07-17T13:47:28Z</time>
<desc>lat.=55.841614, lon.=26.124796, Alt.=143.705200m. Speed=17.172001m/h.</desc>
<speed>4.770000</speed>
</trkpt>
<trkpt lat="55.841579" lon="26.124733">
<ele>144.045044</ele>
<time>2010-07-17T13:47:29Z</time>
<desc>lat.=55.841579, lon.=26.124733, Alt.=144.045044m. Speed=18.323999m/h.</desc>
<speed>5.090000</speed>
</trkpt>
<trkpt lat="55.841541" lon="26.124676">
<ele>144.349731</ele>
<time>2010-07-17T13:47:30Z</time>
<desc>lat.=55.841541, lon.=26.124676, Alt.=144.349731m. Speed=17.459999m/h.</desc>
<speed>4.850000</speed>
</trkpt>
<trkpt lat="55.841507" lon="26.124619">
<ele>144.670044</ele>
<time>2010-07-17T13:47:31Z</time>
<desc>lat.=55.841507, lon.=26.124619, Alt.=144.670044m. Speed=18.864000m/h.</desc>
<speed>5.240000</speed>
</trkpt>
<trkpt lat="55.841465" lon="26.124531">
<ele>144.834106</ele>
<time>2010-07-17T13:47:32Z</time>
<desc>lat.=55.841465, lon.=26.124531, Alt.=144.834106m. Speed=16.091999m/h.</desc>
<speed>4.470000</speed>
</trkpt>
<trkpt lat="55.841415" lon="26.124432">
<ele>144.966919</ele>
<time>2010-07-17T13:47:33Z</time>
<desc>lat.=55.841415, lon.=26.124432, Alt.=144.966919m. Speed=20.952000m/h.</desc>
<speed>5.820000</speed>
</trkpt>
<trkpt lat="55.841366" lon="26.124355">
<ele>145.037231</ele>
<time>2010-07-17T13:47:34Z</time>
<desc>lat.=55.841366, lon.=26.124355, Alt.=145.037231m. Speed=21.420000m/h.</desc>
<speed>5.950000</speed>
</trkpt>
<trkpt lat="55.841316" lon="26.124285">
<ele>145.095825</ele>
<time>2010-07-17T13:47:35Z</time>
<desc>lat.=55.841316, lon.=26.124285, Alt.=145.095825m. Speed=20.988001m/h.</desc>
<speed>5.830000</speed>
</trkpt>
<trkpt lat="55.841267" lon="26.124205">
<ele>145.408325</ele>
<time>2010-07-17T13:47:36Z</time>
<desc>lat.=55.841267, lon.=26.124205, Alt.=145.408325m. Speed=22.968000m/h.</desc>
<speed>6.380000</speed>
</trkpt>
<trkpt lat="55.841221" lon="26.124126">
<ele>145.482544</ele>
<time>2010-07-17T13:47:37Z</time>
<desc>lat.=55.841221, lon.=26.124126, Alt.=145.482544m. Speed=22.823999m/h.</desc>
<speed>6.340000</speed>
</trkpt>
<trkpt lat="55.841179" lon="26.124046">
<ele>145.615356</ele>
<time>2010-07-17T13:47:38Z</time>
<desc>lat.=55.841179, lon.=26.124046, Alt.=145.615356m. Speed=23.580000m/h.</desc>
<speed>6.550000</speed>
</trkpt>
<trkpt lat="55.841133" lon="26.123974">
<ele>145.193481</ele>
<time>2010-07-17T13:47:39Z</time>
<desc>lat.=55.841133, lon.=26.123974, Alt.=145.193481m. Speed=24.768000m/h.</desc>
<speed>6.880000</speed>
</trkpt>
<trkpt lat="55.841076" lon="26.123890">
<ele>144.509888</ele>
<time>2010-07-17T13:47:40Z</time>
<desc>lat.=55.841076, lon.=26.123890, Alt.=144.509888m. Speed=24.552000m/h.</desc>
<speed>6.820000</speed>
</trkpt>
<trkpt lat="55.841034" lon="26.123829">
<ele>144.490356</ele>
<time>2010-07-17T13:47:41Z</time>
<desc>lat.=55.841034, lon.=26.123829, Alt.=144.490356m. Speed=23.364000m/h.</desc>
<speed>6.490000</speed>
</trkpt>
<trkpt lat="55.840984" lon="26.123749">
<ele>144.318481</ele>
<time>2010-07-17T13:47:42Z</time>
<desc>lat.=55.840984, lon.=26.123749, Alt.=144.318481m. Speed=25.271999m/h.</desc>
<speed>7.020000</speed>
</trkpt>
<trkpt lat="55.840935" lon="26.123665">
<ele>144.127075</ele>
<time>2010-07-17T13:47:43Z</time>
<desc>lat.=55.840935, lon.=26.123665, Alt.=144.127075m. Speed=25.992001m/h.</desc>
<speed>7.220000</speed>
</trkpt>
<trkpt lat="55.840881" lon="26.123585">
<ele>144.150513</ele>
<time>2010-07-17T13:47:44Z</time>
<desc>lat.=55.840881, lon.=26.123585, Alt.=144.150513m. Speed=27.288000m/h.</desc>
<speed>7.580000</speed>
</trkpt>
<trkpt lat="55.840824" lon="26.123507">
<ele>143.896606</ele>
<time>2010-07-17T13:47:45Z</time>
<desc>lat.=55.840824, lon.=26.123507, Alt.=143.896606m. Speed=25.955999m/h.</desc>
<speed>7.210000</speed>
</trkpt>
<trkpt lat="55.840771" lon="26.123434">
<ele>143.787231</ele>
<time>2010-07-17T13:47:46Z</time>
<desc>lat.=55.840771, lon.=26.123434, Alt.=143.787231m. Speed=25.775999m/h.</desc>
<speed>7.160000</speed>
</trkpt>
<trkpt lat="55.840717" lon="26.123365">
<ele>143.892700</ele>
<time>2010-07-17T13:47:47Z</time>
<desc>lat.=55.840717, lon.=26.123365, Alt.=143.892700m. Speed=24.948000m/h.</desc>
<speed>6.930000</speed>
</trkpt>
<trkpt lat="55.840668" lon="26.123297">
<ele>143.607544</ele>
<time>2010-07-17T13:47:48Z</time>
<desc>lat.=55.840668, lon.=26.123297, Alt.=143.607544m. Speed=24.660000m/h.</desc>
<speed>6.850000</speed>
</trkpt>
<trkpt lat="55.840618" lon="26.123228">
<ele>143.572388</ele>
<time>2010-07-17T13:47:49Z</time>
<desc>lat.=55.840618, lon.=26.123228, Alt.=143.572388m. Speed=24.444000m/h.</desc>
<speed>6.790000</speed>
</trkpt>
<trkpt lat="55.840569" lon="26.123161">
<ele>143.697388</ele>
<time>2010-07-17T13:47:50Z</time>
<desc>lat.=55.840569, lon.=26.123161, Alt.=143.697388m. Speed=24.299999m/h.</desc>
<speed>6.750000</speed>
</trkpt>
<trkpt lat="55.840523" lon="26.123091">
<ele>143.326294</ele>
<time>2010-07-17T13:47:51Z</time>
<desc>lat.=55.840523, lon.=26.123091, Alt.=143.326294m. Speed=24.264000m/h.</desc>
<speed>6.740000</speed>
</trkpt>
<trkpt lat="55.840477" lon="26.123022">
<ele>143.005981</ele>
<time>2010-07-17T13:47:52Z</time>
<desc>lat.=55.840477, lon.=26.123022, Alt.=143.005981m. Speed=24.587999m/h.</desc>
<speed>6.830000</speed>
</trkpt>
<trkpt lat="55.840427" lon="26.122950">
<ele>142.380981</ele>
<time>2010-07-17T13:47:53Z</time>
<desc>lat.=55.840427, lon.=26.122950, Alt.=142.380981m. Speed=24.840000m/h.</desc>
<speed>6.900000</speed>
</trkpt>
<trkpt lat="55.840374" lon="26.122883">
<ele>141.951294</ele>
<time>2010-07-17T13:47:54Z</time>
<desc>lat.=55.840374, lon.=26.122883, Alt.=141.951294m. Speed=25.164000m/h.</desc>
<speed>6.990000</speed>
</trkpt>
<trkpt lat="55.840324" lon="26.122816">
<ele>141.963013</ele>
<time>2010-07-17T13:47:55Z</time>
<desc>lat.=55.840324, lon.=26.122816, Alt.=141.963013m. Speed=24.840000m/h.</desc>
<speed>6.900000</speed>
</trkpt>
<trkpt lat="55.840271" lon="26.122749">
<ele>141.834106</ele>
<time>2010-07-17T13:47:56Z</time>
<desc>lat.=55.840271, lon.=26.122749, Alt.=141.834106m. Speed=24.695999m/h.</desc>
<speed>6.860000</speed>
</trkpt>
<trkpt lat="55.840218" lon="26.122684">
<ele>141.955200</ele>
<time>2010-07-17T13:47:57Z</time>
<desc>lat.=55.840218, lon.=26.122684, Alt.=141.955200m. Speed=24.048000m/h.</desc>
<speed>6.680000</speed>
</trkpt>
<trkpt lat="55.840168" lon="26.122623">
<ele>141.834106</ele>
<time>2010-07-17T13:47:58Z</time>
<desc>lat.=55.840168, lon.=26.122623, Alt.=141.834106m. Speed=23.940001m/h.</desc>
<speed>6.650000</speed>
</trkpt>
<trkpt lat="55.840118" lon="26.122561">
<ele>141.459106</ele>
<time>2010-07-17T13:47:59Z</time>
<desc>lat.=55.840118, lon.=26.122561, Alt.=141.459106m. Speed=23.940001m/h.</desc>
<speed>6.650000</speed>
</trkpt>
<trkpt lat="55.840069" lon="26.122496">
<ele>143.416138</ele>
<time>2010-07-17T13:48:00Z</time>
<desc>lat.=55.840069, lon.=26.122496, Alt.=143.416138m. Speed=23.796000m/h.</desc>
<speed>6.610000</speed>
</trkpt>
<trkpt lat="55.840023" lon="26.122429">
<ele>143.259888</ele>
<time>2010-07-17T13:48:01Z</time>
<desc>lat.=55.840023, lon.=26.122429, Alt.=143.259888m. Speed=23.724001m/h.</desc>
<speed>6.590000</speed>
</trkpt>
<trkpt lat="55.839973" lon="26.122364">
<ele>143.963013</ele>
<time>2010-07-17T13:48:02Z</time>
<desc>lat.=55.839973, lon.=26.122364, Alt.=143.963013m. Speed=23.615999m/h.</desc>
<speed>6.560000</speed>
</trkpt>
<trkpt lat="55.839924" lon="26.122303">
<ele>143.963013</ele>
<time>2010-07-17T13:48:03Z</time>
<desc>lat.=55.839924, lon.=26.122303, Alt.=143.963013m. Speed=23.219999m/h.</desc>
<speed>6.450000</speed>
</trkpt>
<trkpt lat="55.839882" lon="26.122246">
<ele>143.037231</ele>
<time>2010-07-17T13:48:04Z</time>
<desc>lat.=55.839882, lon.=26.122246, Alt.=143.037231m. Speed=22.284000m/h.</desc>
<speed>6.190000</speed>
</trkpt>
<trkpt lat="55.839836" lon="26.122189">
<ele>142.627075</ele>
<time>2010-07-17T13:48:05Z</time>
<desc>lat.=55.839836, lon.=26.122189, Alt.=142.627075m. Speed=21.924000m/h.</desc>
<speed>6.090000</speed>
</trkpt>
<trkpt lat="55.839794" lon="26.122131">
<ele>141.959106</ele>
<time>2010-07-17T13:48:06Z</time>
<desc>lat.=55.839794, lon.=26.122131, Alt.=141.959106m. Speed=21.924000m/h.</desc>
<speed>6.090000</speed>
</trkpt>
<trkpt lat="55.839748" lon="26.122068">
<ele>141.685669</ele>
<time>2010-07-17T13:48:07Z</time>
<desc>lat.=55.839748, lon.=26.122068, Alt.=141.685669m. Speed=21.167999m/h.</desc>
<speed>5.880000</speed>
</trkpt>
<trkpt lat="55.839706" lon="26.122013">
<ele>141.603638</ele>
<time>2010-07-17T13:48:08Z</time>
<desc>lat.=55.839706, lon.=26.122013, Alt.=141.603638m. Speed=21.096001m/h.</desc>
<speed>5.860000</speed>
</trkpt>
<trkpt lat="55.839664" lon="26.121954">
<ele>141.275513</ele>
<time>2010-07-17T13:48:09Z</time>
<desc>lat.=55.839664, lon.=26.121954, Alt.=141.275513m. Speed=20.952000m/h.</desc>
<speed>5.820000</speed>
</trkpt>
<trkpt lat="55.839622" lon="26.121897">
<ele>141.002075</ele>
<time>2010-07-17T13:48:10Z</time>
<desc>lat.=55.839622, lon.=26.121897, Alt.=141.002075m. Speed=20.700001m/h.</desc>
<speed>5.750000</speed>
</trkpt>
<trkpt lat="55.839581" lon="26.121841">
<ele>141.048950</ele>
<time>2010-07-17T13:48:11Z</time>
<desc>lat.=55.839581, lon.=26.121841, Alt.=141.048950m. Speed=20.124001m/h.</desc>
<speed>5.590000</speed>
</trkpt>
<trkpt lat="55.839539" lon="26.121788">
<ele>141.052856</ele>
<time>2010-07-17T13:48:12Z</time>
<desc>lat.=55.839539, lon.=26.121788, Alt.=141.052856m. Speed=20.520000m/h.</desc>
<speed>5.700000</speed>
</trkpt>
<trkpt lat="55.839497" lon="26.121735">
<ele>140.736450</ele>
<time>2010-07-17T13:48:13Z</time>
<desc>lat.=55.839497, lon.=26.121735, Alt.=140.736450m. Speed=20.375999m/h.</desc>
<speed>5.660000</speed>
</trkpt>
<trkpt lat="55.839455" lon="26.121677">
<ele>140.627075</ele>
<time>2010-07-17T13:48:14Z</time>
<desc>lat.=55.839455, lon.=26.121677, Alt.=140.627075m. Speed=20.556000m/h.</desc>
<speed>5.710000</speed>
</trkpt>
<trkpt lat="55.839413" lon="26.121624">
<ele>140.568481</ele>
<time>2010-07-17T13:48:15Z</time>
<desc>lat.=55.839413, lon.=26.121624, Alt.=140.568481m. Speed=20.520000m/h.</desc>
<speed>5.700000</speed>
</trkpt>
<trkpt lat="55.839371" lon="26.121569">
<ele>140.392700</ele>
<time>2010-07-17T13:48:16Z</time>
<desc>lat.=55.839371, lon.=26.121569, Alt.=140.392700m. Speed=20.628000m/h.</desc>
<speed>5.730000</speed>
</trkpt>
<trkpt lat="55.839329" lon="26.121510">
<ele>140.201294</ele>
<time>2010-07-17T13:48:17Z</time>
<desc>lat.=55.839329, lon.=26.121510, Alt.=140.201294m. Speed=20.879999m/h.</desc>
<speed>5.800000</speed>
</trkpt>
<trkpt lat="55.839287" lon="26.121456">
<ele>140.205200</ele>
<time>2010-07-17T13:48:18Z</time>
<desc>lat.=55.839287, lon.=26.121456, Alt.=140.205200m. Speed=21.275999m/h.</desc>
<speed>5.910000</speed>
</trkpt>
<trkpt lat="55.839241" lon="26.121407">
<ele>140.255981</ele>
<time>2010-07-17T13:48:19Z</time>
<desc>lat.=55.839241, lon.=26.121407, Alt.=140.255981m. Speed=21.275999m/h.</desc>
<speed>5.910000</speed>
</trkpt>
<trkpt lat="55.839199" lon="26.121359">
<ele>140.189575</ele>
<time>2010-07-17T13:48:20Z</time>
<desc>lat.=55.839199, lon.=26.121359, Alt.=140.189575m. Speed=21.348000m/h.</desc>
<speed>5.930000</speed>
</trkpt>
<trkpt lat="55.839161" lon="26.121307">
<ele>140.205200</ele>
<time>2010-07-17T13:48:21Z</time>
<desc>lat.=55.839161, lon.=26.121307, Alt.=140.205200m. Speed=21.600000m/h.</desc>
<speed>6.000000</speed>
</trkpt>
<trkpt lat="55.839115" lon="26.121250">
<ele>140.236450</ele>
<time>2010-07-17T13:48:22Z</time>
<desc>lat.=55.839115, lon.=26.121250, Alt.=140.236450m. Speed=21.959999m/h.</desc>
<speed>6.100000</speed>
</trkpt>
<trkpt lat="55.839069" lon="26.121195">
<ele>140.232544</ele>
<time>2010-07-17T13:48:23Z</time>
<desc>lat.=55.839069, lon.=26.121195, Alt.=140.232544m. Speed=21.959999m/h.</desc>
<speed>6.100000</speed>
</trkpt>
<trkpt lat="55.839027" lon="26.121140">
<ele>139.865356</ele>
<time>2010-07-17T13:48:24Z</time>
<desc>lat.=55.839027, lon.=26.121140, Alt.=139.865356m. Speed=22.068001m/h.</desc>
<speed>6.130000</speed>
</trkpt>
<trkpt lat="55.838982" lon="26.121080">
<ele>139.701294</ele>
<time>2010-07-17T13:48:25Z</time>
<desc>lat.=55.838982, lon.=26.121080, Alt.=139.701294m. Speed=22.032000m/h.</desc>
<speed>6.120000</speed>
</trkpt>
<trkpt lat="55.838936" lon="26.121021">
<ele>139.615356</ele>
<time>2010-07-17T13:48:26Z</time>
<desc>lat.=55.838936, lon.=26.121021, Alt.=139.615356m. Speed=21.851999m/h.</desc>
<speed>6.070000</speed>
</trkpt>
<trkpt lat="55.838890" lon="26.120966">
<ele>139.681763</ele>
<time>2010-07-17T13:48:27Z</time>
<desc>lat.=55.838890, lon.=26.120966, Alt.=139.681763m. Speed=21.600000m/h.</desc>
<speed>6.000000</speed>
</trkpt>
<trkpt lat="55.838844" lon="26.120911">
<ele>139.474731</ele>
<time>2010-07-17T13:48:28Z</time>
<desc>lat.=55.838844, lon.=26.120911, Alt.=139.474731m. Speed=21.924000m/h.</desc>
<speed>6.090000</speed>
</trkpt>
<trkpt lat="55.838799" lon="26.120855">
<ele>139.556763</ele>
<time>2010-07-17T13:48:29Z</time>
<desc>lat.=55.838799, lon.=26.120855, Alt.=139.556763m. Speed=21.528000m/h.</desc>
<speed>5.980000</speed>
</trkpt>
<trkpt lat="55.838757" lon="26.120800">
<ele>139.849731</ele>
<time>2010-07-17T13:48:30Z</time>
<desc>lat.=55.838757, lon.=26.120800, Alt.=139.849731m. Speed=21.275999m/h.</desc>
<speed>5.910000</speed>
</trkpt>
<trkpt lat="55.838715" lon="26.120745">
<ele>139.584106</ele>
<time>2010-07-17T13:48:31Z</time>
<desc>lat.=55.838715, lon.=26.120745, Alt.=139.584106m. Speed=21.420000m/h.</desc>
<speed>5.950000</speed>
</trkpt>
<trkpt lat="55.838673" lon="26.120687">
<ele>139.228638</ele>
<time>2010-07-17T13:48:32Z</time>
<desc>lat.=55.838673, lon.=26.120687, Alt.=139.228638m. Speed=21.348000m/h.</desc>
<speed>5.930000</speed>
</trkpt>
<trkpt lat="55.838631" lon="26.120632">
<ele>138.916138</ele>
<time>2010-07-17T13:48:33Z</time>
<desc>lat.=55.838631, lon.=26.120632, Alt.=138.916138m. Speed=20.124001m/h.</desc>
<speed>5.590000</speed>
</trkpt>
<trkpt lat="55.838596" lon="26.120579">
<ele>138.693481</ele>
<time>2010-07-17T13:48:34Z</time>
<desc>lat.=55.838596, lon.=26.120579, Alt.=138.693481m. Speed=17.424000m/h.</desc>
<speed>4.840000</speed>
</trkpt>
<trkpt lat="55.838558" lon="26.120522">
<ele>138.099731</ele>
<time>2010-07-17T13:48:35Z</time>
<desc>lat.=55.838558, lon.=26.120522, Alt.=138.099731m. Speed=20.304001m/h.</desc>
<speed>5.640000</speed>
</trkpt>
<trkpt lat="55.838516" lon="26.120457">
<ele>137.459106</ele>
<time>2010-07-17T13:48:36Z</time>
<desc>lat.=55.838516, lon.=26.120457, Alt.=137.459106m. Speed=21.563999m/h.</desc>
<speed>5.990000</speed>
</trkpt>
<trkpt lat="55.838478" lon="26.120401">
<ele>137.002075</ele>
<time>2010-07-17T13:48:37Z</time>
<desc>lat.=55.838478, lon.=26.120401, Alt.=137.002075m. Speed=21.492001m/h.</desc>
<speed>5.970000</speed>
</trkpt>
<trkpt lat="55.838436" lon="26.120352">
<ele>136.877075</ele>
<time>2010-07-17T13:48:38Z</time>
<desc>lat.=55.838436, lon.=26.120352, Alt.=136.877075m. Speed=19.152000m/h.</desc>
<speed>5.320000</speed>
</trkpt>
<trkpt lat="55.838394" lon="26.120298">
<ele>136.947388</ele>
<time>2010-07-17T13:48:39Z</time>
<desc>lat.=55.838394, lon.=26.120298, Alt.=136.947388m. Speed=21.024000m/h.</desc>
<speed>5.840000</speed>
</trkpt>
<trkpt lat="55.838348" lon="26.120249">
<ele>136.681763</ele>
<time>2010-07-17T13:48:40Z</time>
<desc>lat.=55.838348, lon.=26.120249, Alt.=136.681763m. Speed=20.232000m/h.</desc>
<speed>5.620000</speed>
</trkpt>
<trkpt lat="55.838310" lon="26.120205">
<ele>137.017700</ele>
<time>2010-07-17T13:48:41Z</time>
<desc>lat.=55.838310, lon.=26.120205, Alt.=137.017700m. Speed=18.252001m/h.</desc>
<speed>5.070000</speed>
</trkpt>
<trkpt lat="55.838284" lon="26.120159">
<ele>138.541138</ele>
<time>2010-07-17T13:48:42Z</time>
<desc>lat.=55.838284, lon.=26.120159, Alt.=138.541138m. Speed=18.035999m/h.</desc>
<speed>5.010000</speed>
</trkpt>
<trkpt lat="55.838272" lon="26.120113">
<ele>142.666138</ele>
<time>2010-07-17T13:48:43Z</time>
<desc>lat.=55.838272, lon.=26.120113, Alt.=142.666138m. Speed=16.596001m/h.</desc>
<speed>4.610000</speed>
</trkpt>
<trkpt lat="55.838253" lon="26.120047">
<ele>143.099731</ele>
<time>2010-07-17T13:48:44Z</time>
<desc>lat.=55.838253, lon.=26.120047, Alt.=143.099731m. Speed=14.868000m/h.</desc>
<speed>4.130000</speed>
</trkpt>
<trkpt lat="55.838223" lon="26.120008">
<ele>143.494263</ele>
<time>2010-07-17T13:48:45Z</time>
<desc>lat.=55.838223, lon.=26.120008, Alt.=143.494263m. Speed=12.276000m/h.</desc>
<speed>3.410000</speed>
</trkpt>
<trkpt lat="55.838196" lon="26.119965">
<ele>144.412231</ele>
<time>2010-07-17T13:48:46Z</time>
<desc>lat.=55.838196, lon.=26.119965, Alt.=144.412231m. Speed=14.076000m/h.</desc>
<speed>3.910000</speed>
</trkpt>
<trkpt lat="55.838165" lon="26.119913">
<ele>145.201294</ele>
<time>2010-07-17T13:48:47Z</time>
<desc>lat.=55.838165, lon.=26.119913, Alt.=145.201294m. Speed=14.688000m/h.</desc>
<speed>4.080000</speed>
</trkpt>
<trkpt lat="55.838142" lon="26.119860">
<ele>145.947388</ele>
<time>2010-07-17T13:48:48Z</time>
<desc>lat.=55.838142, lon.=26.119860, Alt.=145.947388m. Speed=13.392000m/h.</desc>
<speed>3.720000</speed>
</trkpt>
<trkpt lat="55.838120" lon="26.119806">
<ele>146.716919</ele>
<time>2010-07-17T13:48:49Z</time>
<desc>lat.=55.838120, lon.=26.119806, Alt.=146.716919m. Speed=12.708000m/h.</desc>
<speed>3.530000</speed>
</trkpt>
<trkpt lat="55.838097" lon="26.119759">
<ele>147.463013</ele>
<time>2010-07-17T13:48:50Z</time>
<desc>lat.=55.838097, lon.=26.119759, Alt.=147.463013m. Speed=12.312000m/h.</desc>
<speed>3.420000</speed>
</trkpt>
<trkpt lat="55.838055" lon="26.119698">
<ele>147.685669</ele>
<time>2010-07-17T13:48:51Z</time>
<desc>lat.=55.838055, lon.=26.119698, Alt.=147.685669m. Speed=14.868000m/h.</desc>
<speed>4.130000</speed>
</trkpt>
<trkpt lat="55.838032" lon="26.119644">
<ele>148.423950</ele>
<time>2010-07-17T13:48:52Z</time>
<desc>lat.=55.838032, lon.=26.119644, Alt.=148.423950m. Speed=11.808000m/h.</desc>
<speed>3.280000</speed>
</trkpt>
<trkpt lat="55.838001" lon="26.119583">
<ele>149.119263</ele>
<time>2010-07-17T13:48:53Z</time>
<desc>lat.=55.838001, lon.=26.119583, Alt.=149.119263m. Speed=12.312000m/h.</desc>
<speed>3.420000</speed>
</trkpt>
<trkpt lat="55.837986" lon="26.119539">
<ele>149.810669</ele>
<time>2010-07-17T13:48:54Z</time>
<desc>lat.=55.837986, lon.=26.119539, Alt.=149.810669m. Speed=9.108000m/h.</desc>
<speed>2.530000</speed>
</trkpt>
<trkpt lat="55.837978" lon="26.119499">
<ele>150.533325</ele>
<time>2010-07-17T13:48:55Z</time>
<desc>lat.=55.837978, lon.=26.119499, Alt.=150.533325m. Speed=9.576000m/h.</desc>
<speed>2.660000</speed>
</trkpt>
<trkpt lat="55.837967" lon="26.119450">
<ele>151.130981</ele>
<time>2010-07-17T13:48:56Z</time>
<desc>lat.=55.837967, lon.=26.119450, Alt.=151.130981m. Speed=11.232000m/h.</desc>
<speed>3.120000</speed>
</trkpt>
<trkpt lat="55.837955" lon="26.119404">
<ele>151.908325</ele>
<time>2010-07-17T13:48:57Z</time>
<desc>lat.=55.837955, lon.=26.119404, Alt.=151.908325m. Speed=11.844000m/h.</desc>
<speed>3.290000</speed>
</trkpt>
<trkpt lat="55.837936" lon="26.119345">
<ele>152.986450</ele>
<time>2010-07-17T13:48:58Z</time>
<desc>lat.=55.837936, lon.=26.119345, Alt.=152.986450m. Speed=10.260000m/h.</desc>
<speed>2.850000</speed>
</trkpt>
<trkpt lat="55.837914" lon="26.119278">
<ele>153.552856</ele>
<time>2010-07-17T13:48:59Z</time>
<desc>lat.=55.837914, lon.=26.119278, Alt.=153.552856m. Speed=10.944000m/h.</desc>
<speed>3.040000</speed>
</trkpt>
<trkpt lat="55.837891" lon="26.119225">
<ele>154.197388</ele>
<time>2010-07-17T13:49:00Z</time>
<desc>lat.=55.837891, lon.=26.119225, Alt.=154.197388m. Speed=8.856000m/h.</desc>
<speed>2.460000</speed>
</trkpt>
<trkpt lat="55.837883" lon="26.119186">
<ele>154.627075</ele>
<time>2010-07-17T13:49:01Z</time>
<desc>lat.=55.837883, lon.=26.119186, Alt.=154.627075m. Speed=8.748000m/h.</desc>
<speed>2.430000</speed>
</trkpt>
<trkpt lat="55.837868" lon="26.119146">
<ele>155.420044</ele>
<time>2010-07-17T13:49:02Z</time>
<desc>lat.=55.837868, lon.=26.119146, Alt.=155.420044m. Speed=7.488000m/h.</desc>
<speed>2.080000</speed>
</trkpt>
<trkpt lat="55.837864" lon="26.119104">
<ele>156.142700</ele>
<time>2010-07-17T13:49:03Z</time>
<desc>lat.=55.837864, lon.=26.119104, Alt.=156.142700m. Speed=8.208000m/h.</desc>
<speed>2.280000</speed>
</trkpt>
<trkpt lat="55.837852" lon="26.119064">
<ele>156.818481</ele>
<time>2010-07-17T13:49:04Z</time>
<desc>lat.=55.837852, lon.=26.119064, Alt.=156.818481m. Speed=8.424000m/h.</desc>
<speed>2.340000</speed>
</trkpt>
<trkpt lat="55.837841" lon="26.119032">
<ele>157.478638</ele>
<time>2010-07-17T13:49:05Z</time>
<desc>lat.=55.837841, lon.=26.119032, Alt.=157.478638m. Speed=9.576000m/h.</desc>
<speed>2.660000</speed>
</trkpt>
<trkpt lat="55.837811" lon="26.118979">
<ele>157.322388</ele>
<time>2010-07-17T13:49:06Z</time>
<desc>lat.=55.837811, lon.=26.118979, Alt.=157.322388m. Speed=10.260000m/h.</desc>
<speed>2.850000</speed>
</trkpt>
<trkpt lat="55.837795" lon="26.118933">
<ele>157.517700</ele>
<time>2010-07-17T13:49:07Z</time>
<desc>lat.=55.837795, lon.=26.118933, Alt.=157.517700m. Speed=6.984000m/h.</desc>
<speed>1.940000</speed>
</trkpt>
<trkpt lat="55.837791" lon="26.118896">
<ele>158.377075</ele>
<time>2010-07-17T13:49:08Z</time>
<desc>lat.=55.837791, lon.=26.118896, Alt.=158.377075m. Speed=6.768000m/h.</desc>
<speed>1.880000</speed>
</trkpt>
<trkpt lat="55.837780" lon="26.118855">
<ele>159.166138</ele>
<time>2010-07-17T13:49:09Z</time>
<desc>lat.=55.837780, lon.=26.118855, Alt.=159.166138m. Speed=9.252000m/h.</desc>
<speed>2.570000</speed>
</trkpt>
<trkpt lat="55.837769" lon="26.118816">
<ele>160.048950</ele>
<time>2010-07-17T13:49:10Z</time>
<desc>lat.=55.837769, lon.=26.118816, Alt.=160.048950m. Speed=8.928000m/h.</desc>
<speed>2.480000</speed>
</trkpt>
<trkpt lat="55.837765" lon="26.118778">
<ele>161.033325</ele>
<time>2010-07-17T13:49:11Z</time>
<desc>lat.=55.837765, lon.=26.118778, Alt.=161.033325m. Speed=9.468000m/h.</desc>
<speed>2.630000</speed>
</trkpt>
<trkpt lat="55.837753" lon="26.118738">
<ele>161.900513</ele>
<time>2010-07-17T13:49:12Z</time>
<desc>lat.=55.837753, lon.=26.118738, Alt.=161.900513m. Speed=8.388000m/h.</desc>
<speed>2.330000</speed>
</trkpt>
<trkpt lat="55.837746" lon="26.118702">
<ele>162.638794</ele>
<time>2010-07-17T13:49:13Z</time>
<desc>lat.=55.837746, lon.=26.118702, Alt.=162.638794m. Speed=9.180000m/h.</desc>
<speed>2.550000</speed>
</trkpt>
<trkpt lat="55.837734" lon="26.118658">
<ele>163.416138</ele>
<time>2010-07-17T13:49:14Z</time>
<desc>lat.=55.837734, lon.=26.118658, Alt.=163.416138m. Speed=10.800000m/h.</desc>
<speed>3.000000</speed>
</trkpt>
<trkpt lat="55.837719" lon="26.118603">
<ele>163.795044</ele>
<time>2010-07-17T13:49:15Z</time>
<desc>lat.=55.837719, lon.=26.118603, Alt.=163.795044m. Speed=10.764000m/h.</desc>
<speed>2.990000</speed>
</trkpt>
<trkpt lat="55.837708" lon="26.118557">
<ele>164.310669</ele>
<time>2010-07-17T13:49:16Z</time>
<desc>lat.=55.837708, lon.=26.118557, Alt.=164.310669m. Speed=10.548000m/h.</desc>
<speed>2.930000</speed>
</trkpt>
<trkpt lat="55.837696" lon="26.118513">
<ele>164.888794</ele>
<time>2010-07-17T13:49:17Z</time>
<desc>lat.=55.837696, lon.=26.118513, Alt.=164.888794m. Speed=10.728000m/h.</desc>
<speed>2.980000</speed>
</trkpt>
<trkpt lat="55.837673" lon="26.118465">
<ele>165.099731</ele>
<time>2010-07-17T13:49:18Z</time>
<desc>lat.=55.837673, lon.=26.118465, Alt.=165.099731m. Speed=11.124000m/h.</desc>
<speed>3.090000</speed>
</trkpt>
<trkpt lat="55.837654" lon="26.118418">
<ele>165.541138</ele>
<time>2010-07-17T13:49:19Z</time>
<desc>lat.=55.837654, lon.=26.118418, Alt.=165.541138m. Speed=11.628000m/h.</desc>
<speed>3.230000</speed>
</trkpt>
<trkpt lat="55.837620" lon="26.118385">
<ele>165.365356</ele>
<time>2010-07-17T13:49:20Z</time>
<desc>lat.=55.837620, lon.=26.118385, Alt.=165.365356m. Speed=10.692000m/h.</desc>
<speed>2.970000</speed>
</trkpt>
<trkpt lat="55.837605" lon="26.118345">
<ele>165.900513</ele>
<time>2010-07-17T13:49:21Z</time>
<desc>lat.=55.837605, lon.=26.118345, Alt.=165.900513m. Speed=9.648000m/h.</desc>
<speed>2.680000</speed>
</trkpt>
<trkpt lat="55.837597" lon="26.118307">
<ele>165.920044</ele>
<time>2010-07-17T13:49:22Z</time>
<desc>lat.=55.837597, lon.=26.118307, Alt.=165.920044m. Speed=8.604000m/h.</desc>
<speed>2.390000</speed>
</trkpt>
<trkpt lat="55.837612" lon="26.118261">
<ele>164.998169</ele>
<time>2010-07-17T13:49:23Z</time>
<desc>lat.=55.837612, lon.=26.118261, Alt.=164.998169m. Speed=8.352000m/h.</desc>
<speed>2.320000</speed>
</trkpt>
<trkpt lat="55.837612" lon="26.118237">
<ele>165.478638</ele>
<time>2010-07-17T13:49:24Z</time>
<desc>lat.=55.837612, lon.=26.118237, Alt.=165.478638m. Speed=6.660000m/h.</desc>
<speed>1.850000</speed>
</trkpt>
<trkpt lat="55.837601" lon="26.118208">
<ele>165.576294</ele>
<time>2010-07-17T13:49:25Z</time>
<desc>lat.=55.837601, lon.=26.118208, Alt.=165.576294m. Speed=5.976000m/h.</desc>
<speed>1.660000</speed>
</trkpt>
<trkpt lat="55.837593" lon="26.118185">
<ele>165.603638</ele>
<time>2010-07-17T13:49:26Z</time>
<desc>lat.=55.837593, lon.=26.118185, Alt.=165.603638m. Speed=3.492000m/h.</desc>
<speed>0.970000</speed>
</trkpt>
<trkpt lat="55.837589" lon="26.118174">
<ele>165.513794</ele>
<time>2010-07-17T13:49:27Z</time>
<desc>lat.=55.837589, lon.=26.118174, Alt.=165.513794m. Speed=4.248000m/h.</desc>
<speed>1.180000</speed>
</trkpt>
<trkpt lat="55.837585" lon="26.118155">
<ele>165.705200</ele>
<time>2010-07-17T13:49:28Z</time>
<desc>lat.=55.837585, lon.=26.118155, Alt.=165.705200m. Speed=4.572000m/h.</desc>
<speed>1.270000</speed>
</trkpt>
<trkpt lat="55.837578" lon="26.118118">
<ele>165.908325</ele>
<time>2010-07-17T13:49:29Z</time>
<desc>lat.=55.837578, lon.=26.118118, Alt.=165.908325m. Speed=7.704000m/h.</desc>
<speed>2.140000</speed>
</trkpt>
<trkpt lat="55.837563" lon="26.118078">
<ele>165.834106</ele>
<time>2010-07-17T13:49:30Z</time>
<desc>lat.=55.837563, lon.=26.118078, Alt.=165.834106m. Speed=8.676000m/h.</desc>
<speed>2.410000</speed>
</trkpt>
<trkpt lat="55.837555" lon="26.118044">
<ele>165.865356</ele>
<time>2010-07-17T13:49:31Z</time>
<desc>lat.=55.837555, lon.=26.118044, Alt.=165.865356m. Speed=8.856000m/h.</desc>
<speed>2.460000</speed>
</trkpt>
<trkpt lat="55.837547" lon="26.118008">
<ele>166.080200</ele>
<time>2010-07-17T13:49:32Z</time>
<desc>lat.=55.837547, lon.=26.118008, Alt.=166.080200m. Speed=7.704000m/h.</desc>
<speed>2.140000</speed>
</trkpt>
<trkpt lat="55.837543" lon="26.117970">
<ele>166.185669</ele>
<time>2010-07-17T13:49:33Z</time>
<desc>lat.=55.837543, lon.=26.117970, Alt.=166.185669m. Speed=8.604000m/h.</desc>
<speed>2.390000</speed>
</trkpt>
<trkpt lat="55.837528" lon="26.117918">
<ele>163.822388</ele>
<time>2010-07-17T13:49:34Z</time>
<desc>lat.=55.837528, lon.=26.117918, Alt.=163.822388m. Speed=10.836000m/h.</desc>
<speed>3.010000</speed>
</trkpt>
<trkpt lat="55.837521" lon="26.117878">
<ele>163.966919</ele>
<time>2010-07-17T13:49:35Z</time>
<desc>lat.=55.837521, lon.=26.117878, Alt.=163.966919m. Speed=8.640000m/h.</desc>
<speed>2.400000</speed>
</trkpt>
<trkpt lat="55.837505" lon="26.117830">
<ele>163.548950</ele>
<time>2010-07-17T13:49:36Z</time>
<desc>lat.=55.837505, lon.=26.117830, Alt.=163.548950m. Speed=10.260000m/h.</desc>
<speed>2.850000</speed>
</trkpt>
<trkpt lat="55.837494" lon="26.117775">
<ele>162.673950</ele>
<time>2010-07-17T13:49:37Z</time>
<desc>lat.=55.837494, lon.=26.117775, Alt.=162.673950m. Speed=10.800000m/h.</desc>
<speed>3.000000</speed>
</trkpt>
<trkpt lat="55.837490" lon="26.117727">
<ele>162.494263</ele>
<time>2010-07-17T13:49:38Z</time>
<desc>lat.=55.837490, lon.=26.117727, Alt.=162.494263m. Speed=9.360000m/h.</desc>
<speed>2.600000</speed>
</trkpt>
<trkpt lat="55.837482" lon="26.117682">
<ele>162.224731</ele>
<time>2010-07-17T13:49:39Z</time>
<desc>lat.=55.837482, lon.=26.117682, Alt.=162.224731m. Speed=8.784000m/h.</desc>
<speed>2.440000</speed>
</trkpt>
<trkpt lat="55.837482" lon="26.117645">
<ele>162.509888</ele>
<time>2010-07-17T13:49:40Z</time>
<desc>lat.=55.837482, lon.=26.117645, Alt.=162.509888m. Speed=7.992000m/h.</desc>
<speed>2.220000</speed>
</trkpt>
<trkpt lat="55.837479" lon="26.117609">
<ele>162.709106</ele>
<time>2010-07-17T13:49:41Z</time>
<desc>lat.=55.837479, lon.=26.117609, Alt.=162.709106m. Speed=8.028000m/h.</desc>
<speed>2.230000</speed>
</trkpt>
<trkpt lat="55.837475" lon="26.117579">
<ele>162.857544</ele>
<time>2010-07-17T13:49:42Z</time>
<desc>lat.=55.837475, lon.=26.117579, Alt.=162.857544m. Speed=6.552000m/h.</desc>
<speed>1.820000</speed>
</trkpt>
<trkpt lat="55.837463" lon="26.117552">
<ele>162.998169</ele>
<time>2010-07-17T13:49:43Z</time>
<desc>lat.=55.837463, lon.=26.117552, Alt.=162.998169m. Speed=6.012000m/h.</desc>
<speed>1.670000</speed>
</trkpt>
<trkpt lat="55.837448" lon="26.117525">
<ele>161.486450</ele>
<time>2010-07-17T13:49:44Z</time>
<desc>lat.=55.837448, lon.=26.117525, Alt.=161.486450m. Speed=5.616000m/h.</desc>
<speed>1.560000</speed>
</trkpt>
<trkpt lat="55.837444" lon="26.117504">
<ele>160.689575</ele>
<time>2010-07-17T13:49:45Z</time>
<desc>lat.=55.837444, lon.=26.117504, Alt.=160.689575m. Speed=6.336000m/h.</desc>
<speed>1.760000</speed>
</trkpt>
<trkpt lat="55.837433" lon="26.117477">
<ele>159.884888</ele>
<time>2010-07-17T13:49:46Z</time>
<desc>lat.=55.837433, lon.=26.117477, Alt.=159.884888m. Speed=5.832000m/h.</desc>
<speed>1.620000</speed>
</trkpt>
<trkpt lat="55.837433" lon="26.117456">
<ele>159.748169</ele>
<time>2010-07-17T13:49:47Z</time>
<desc>lat.=55.837433, lon.=26.117456, Alt.=159.748169m. Speed=2.880000m/h.</desc>
<speed>0.800000</speed>
</trkpt>
<trkpt lat="55.837433" lon="26.117453">
<ele>159.650513</ele>
<time>2010-07-17T13:49:48Z</time>
<desc>lat.=55.837433, lon.=26.117453, Alt.=159.650513m. Speed=0.324000m/h.</desc>
<speed>0.090000</speed>
</trkpt>
<trkpt lat="55.837437" lon="26.117447">
<ele>159.170044</ele>
<time>2010-07-17T13:49:49Z</time>
<desc>lat.=55.837437, lon.=26.117447, Alt.=159.170044m. Speed=0.540000m/h.</desc>
<speed>0.150000</speed>
</trkpt>
<trkpt lat="55.837437" lon="26.117441">
<ele>159.181763</ele>
<time>2010-07-17T13:49:50Z</time>
<desc>lat.=55.837437, lon.=26.117441, Alt.=159.181763m. Speed=0.288000m/h.</desc>
<speed>0.080000</speed>
</trkpt>
<trkpt lat="55.837437" lon="26.117439">
<ele>159.279419</ele>
<time>2010-07-17T13:49:51Z</time>
<desc>lat.=55.837437, lon.=26.117439, Alt.=159.279419m. Speed=0.324000m/h.</desc>
<speed>0.090000</speed>
</trkpt>
<trkpt lat="55.837437" lon="26.117437">
<ele>159.349731</ele>
<time>2010-07-17T13:49:52Z</time>
<desc>lat.=55.837437, lon.=26.117437, Alt.=159.349731m. Speed=0.216000m/h.</desc>
<speed>0.060000</speed>
</trkpt>
<trkpt lat="55.837437" lon="26.117437">
<ele>159.404419</ele>
<time>2010-07-17T13:49:53Z</time>
<desc>lat.=55.837437, lon.=26.117437, Alt.=159.404419m. Speed=0.396000m/h.</desc>
<speed>0.110000</speed>
</trkpt>
<trkpt lat="55.837437" lon="26.117435">
<ele>159.451294</ele>
<time>2010-07-17T13:49:54Z</time>
<desc>lat.=55.837437, lon.=26.117435, Alt.=159.451294m. Speed=0.360000m/h.</desc>
<speed>0.100000</speed>
</trkpt>
<trkpt lat="55.837437" lon="26.117434">
<ele>159.478638</ele>
<time>2010-07-17T13:49:55Z</time>
<desc>lat.=55.837437, lon.=26.117434, Alt.=159.478638m. Speed=0.540000m/h.</desc>
<speed>0.150000</speed>
</trkpt>
<trkpt lat="55.837437" lon="26.117432">
<ele>159.502075</ele>
<time>2010-07-17T13:49:56Z</time>
<desc>lat.=55.837437, lon.=26.117432, Alt.=159.502075m. Speed=0.432000m/h.</desc>
<speed>0.120000</speed>
</trkpt>
<trkpt lat="55.837437" lon="26.117430">
<ele>159.525513</ele>
<time>2010-07-17T13:49:57Z</time>
<desc>lat.=55.837437, lon.=26.117430, Alt.=159.525513m. Speed=0.216000m/h.</desc>
<speed>0.060000</speed>
</trkpt>
<trkpt lat="55.837437" lon="26.117430">
<ele>159.548950</ele>
<time>2010-07-17T13:49:58Z</time>
<desc>lat.=55.837437, lon.=26.117430, Alt.=159.548950m. Speed=0.324000m/h.</desc>
<speed>0.090000</speed>
</trkpt>
<trkpt lat="55.837433" lon="26.117428">
<ele>159.560669</ele>
<time>2010-07-17T13:49:59Z</time>
<desc>lat.=55.837433, lon.=26.117428, Alt.=159.560669m. Speed=0.216000m/h.</desc>
<speed>0.060000</speed>
</trkpt>
<trkpt lat="55.837433" lon="26.117428">
<ele>159.572388</ele>
<time>2010-07-17T13:50:00Z</time>
<desc>lat.=55.837433, lon.=26.117428, Alt.=159.572388m. Speed=0.072000m/h.</desc>
<speed>0.020000</speed>
</trkpt>
<trkpt lat="55.837433" lon="26.117426">
<ele>159.572388</ele>
<time>2010-07-17T13:50:01Z</time>
<desc>lat.=55.837433, lon.=26.117426, Alt.=159.572388m. Speed=0.072000m/h.</desc>
<speed>0.020000</speed>
</trkpt>
<trkpt lat="55.837433" lon="26.117428">
<ele>159.564575</ele>
<time>2010-07-17T13:50:02Z</time>
<desc>lat.=55.837433, lon.=26.117428, Alt.=159.564575m. Speed=0.396000m/h.</desc>
<speed>0.110000</speed>
</trkpt>
<trkpt lat="55.837433" lon="26.117426">
<ele>159.568481</ele>
<time>2010-07-17T13:50:03Z</time>
<desc>lat.=55.837433, lon.=26.117426, Alt.=159.568481m. Speed=0.288000m/h.</desc>
<speed>0.080000</speed>
</trkpt>
<trkpt lat="55.837437" lon="26.117424">
<ele>159.568481</ele>
<time>2010-07-17T13:50:04Z</time>
<desc>lat.=55.837437, lon.=26.117424, Alt.=159.568481m. Speed=0.180000m/h.</desc>
<speed>0.050000</speed>
</trkpt>
<trkpt lat="55.837437" lon="26.117426">
<ele>159.564575</ele>
<time>2010-07-17T13:50:05Z</time>
<desc>lat.=55.837437, lon.=26.117426, Alt.=159.564575m. Speed=0.216000m/h.</desc>
<speed>0.060000</speed>
</trkpt>
<trkpt lat="55.837437" lon="26.117426">
<ele>159.552856</ele>
<time>2010-07-17T13:50:06Z</time>
<desc>lat.=55.837437, lon.=26.117426, Alt.=159.552856m. Speed=0.252000m/h.</desc>
<speed>0.070000</speed>
</trkpt>
<trkpt lat="55.837437" lon="26.117426">
<ele>159.541138</ele>
<time>2010-07-17T13:50:07Z</time>
<desc>lat.=55.837437, lon.=26.117426, Alt.=159.541138m. Speed=0.288000m/h.</desc>
<speed>0.080000</speed>
</trkpt>
<trkpt lat="55.837437" lon="26.117426">
<ele>159.529419</ele>
<time>2010-07-17T13:50:08Z</time>
<desc>lat.=55.837437, lon.=26.117426, Alt.=159.529419m. Speed=0.288000m/h.</desc>
<speed>0.080000</speed>
</trkpt>
<trkpt lat="55.837437" lon="26.117426">
<ele>159.517700</ele>
<time>2010-07-17T13:50:09Z</time>
<desc>lat.=55.837437, lon.=26.117426, Alt.=159.517700m. Speed=0.216000m/h.</desc>
<speed>0.060000</speed>
</trkpt>
<trkpt lat="55.837437" lon="26.117426">
<ele>159.505981</ele>
<time>2010-07-17T13:50:10Z</time>
<desc>lat.=55.837437, lon.=26.117426, Alt.=159.505981m. Speed=0.072000m/h.</desc>
<speed>0.020000</speed>
</trkpt>
<trkpt lat="55.837437" lon="26.117426">
<ele>159.494263</ele>
<time>2010-07-17T13:50:11Z</time>
<desc>lat.=55.837437, lon.=26.117426, Alt.=159.494263m. Speed=0.216000m/h.</desc>
<speed>0.060000</speed>
</trkpt>
<trkpt lat="55.837437" lon="26.117426">
<ele>159.482544</ele>
<time>2010-07-17T13:50:12Z</time>
<desc>lat.=55.837437, lon.=26.117426, Alt.=159.482544m. Speed=0.108000m/h.</desc>
<speed>0.030000</speed>
</trkpt>
<trkpt lat="55.837437" lon="26.117426">
<ele>159.463013</ele>
<time>2010-07-17T13:50:13Z</time>
<desc>lat.=55.837437, lon.=26.117426, Alt.=159.463013m. Speed=0.612000m/h.</desc>
<speed>0.170000</speed>
</trkpt>
<trkpt lat="55.837437" lon="26.117422">
<ele>159.443481</ele>
<time>2010-07-17T13:50:14Z</time>
<desc>lat.=55.837437, lon.=26.117422, Alt.=159.443481m. Speed=0.864000m/h.</desc>
<speed>0.240000</speed>
</trkpt>
<trkpt lat="55.837437" lon="26.117420">
<ele>159.420044</ele>
<time>2010-07-17T13:50:15Z</time>
<desc>lat.=55.837437, lon.=26.117420, Alt.=159.420044m. Speed=1.332000m/h.</desc>
<speed>0.370000</speed>
</trkpt>
<trkpt lat="55.837433" lon="26.117418">
<ele>159.396606</ele>
<time>2010-07-17T13:50:16Z</time>
<desc>lat.=55.837433, lon.=26.117418, Alt.=159.396606m. Speed=2.340000m/h.</desc>
<speed>0.650000</speed>
</trkpt>
<trkpt lat="55.837425" lon="26.117418">
<ele>159.369263</ele>
<time>2010-07-17T13:50:17Z</time>
<desc>lat.=55.837425, lon.=26.117418, Alt.=159.369263m. Speed=2.700000m/h.</desc>
<speed>0.750000</speed>
</trkpt>
<trkpt lat="55.837421" lon="26.117422">
<ele>159.345825</ele>
<time>2010-07-17T13:50:18Z</time>
<desc>lat.=55.837421, lon.=26.117422, Alt.=159.345825m. Speed=4.032000m/h.</desc>
<speed>1.120000</speed>
</trkpt>
<trkpt lat="55.837402" lon="26.117428">
<ele>158.466919</ele>
<time>2010-07-17T13:50:19Z</time>
<desc>lat.=55.837402, lon.=26.117428, Alt.=158.466919m. Speed=7.884000m/h.</desc>
<speed>2.190000</speed>
</trkpt>
<trkpt lat="55.837383" lon="26.117443">
<ele>158.205200</ele>
<time>2010-07-17T13:50:20Z</time>
<desc>lat.=55.837383, lon.=26.117443, Alt.=158.205200m. Speed=9.288000m/h.</desc>
<speed>2.580000</speed>
</trkpt>
<trkpt lat="55.837353" lon="26.117455">
<ele>157.423950</ele>
<time>2010-07-17T13:50:21Z</time>
<desc>lat.=55.837353, lon.=26.117455, Alt.=157.423950m. Speed=10.332000m/h.</desc>
<speed>2.870000</speed>
</trkpt>
<trkpt lat="55.837318" lon="26.117460">
<ele>157.033325</ele>
<time>2010-07-17T13:50:22Z</time>
<desc>lat.=55.837318, lon.=26.117460, Alt.=157.033325m. Speed=12.924000m/h.</desc>
<speed>3.590000</speed>
</trkpt>
<trkpt lat="55.837276" lon="26.117464">
<ele>156.158325</ele>
<time>2010-07-17T13:50:23Z</time>
<desc>lat.=55.837276, lon.=26.117464, Alt.=156.158325m. Speed=14.256000m/h.</desc>
<speed>3.960000</speed>
</trkpt>
<trkpt lat="55.837231" lon="26.117462">
<ele>155.013794</ele>
<time>2010-07-17T13:50:24Z</time>
<desc>lat.=55.837231, lon.=26.117462, Alt.=155.013794m. Speed=15.876000m/h.</desc>
<speed>4.410000</speed>
</trkpt>
<trkpt lat="55.837193" lon="26.117451">
<ele>154.361450</ele>
<time>2010-07-17T13:50:25Z</time>
<desc>lat.=55.837193, lon.=26.117451, Alt.=154.361450m. Speed=13.284000m/h.</desc>
<speed>3.690000</speed>
</trkpt>
<trkpt lat="55.837162" lon="26.117432">
<ele>153.490356</ele>
<time>2010-07-17T13:50:26Z</time>
<desc>lat.=55.837162, lon.=26.117432, Alt.=153.490356m. Speed=11.736000m/h.</desc>
<speed>3.260000</speed>
</trkpt>
<trkpt lat="55.837132" lon="26.117409">
<ele>153.185669</ele>
<time>2010-07-17T13:50:27Z</time>
<desc>lat.=55.837132, lon.=26.117409, Alt.=153.185669m. Speed=11.052000m/h.</desc>
<speed>3.070000</speed>
</trkpt>
<trkpt lat="55.837105" lon="26.117384">
<ele>153.213013</ele>
<time>2010-07-17T13:50:28Z</time>
<desc>lat.=55.837105, lon.=26.117384, Alt.=153.213013m. Speed=9.972000m/h.</desc>
<speed>2.770000</speed>
</trkpt>
<trkpt lat="55.837082" lon="26.117367">
<ele>152.982544</ele>
<time>2010-07-17T13:50:29Z</time>
<desc>lat.=55.837082, lon.=26.117367, Alt.=152.982544m. Speed=8.604000m/h.</desc>
<speed>2.390000</speed>
</trkpt>
<trkpt lat="55.837067" lon="26.117359">
<ele>153.427856</ele>
<time>2010-07-17T13:50:30Z</time>
<desc>lat.=55.837067, lon.=26.117359, Alt.=153.427856m. Speed=7.092000m/h.</desc>
<speed>1.970000</speed>
</trkpt>
<trkpt lat="55.837048" lon="26.117352">
<ele>153.380981</ele>
<time>2010-07-17T13:50:31Z</time>
<desc>lat.=55.837048, lon.=26.117352, Alt.=153.380981m. Speed=7.560000m/h.</desc>
<speed>2.100000</speed>
</trkpt>
<trkpt lat="55.837021" lon="26.117348">
<ele>152.982544</ele>
<time>2010-07-17T13:50:32Z</time>
<desc>lat.=55.837021, lon.=26.117348, Alt.=152.982544m. Speed=10.836000m/h.</desc>
<speed>3.010000</speed>
</trkpt>
<trkpt lat="55.836994" lon="26.117336">
<ele>153.189575</ele>
<time>2010-07-17T13:50:33Z</time>
<desc>lat.=55.836994, lon.=26.117336, Alt.=153.189575m. Speed=8.316000m/h.</desc>
<speed>2.310000</speed>
</trkpt>
<trkpt lat="55.836975" lon="26.117319">
<ele>153.209106</ele>
<time>2010-07-17T13:50:34Z</time>
<desc>lat.=55.836975, lon.=26.117319, Alt.=153.209106m. Speed=7.128000m/h.</desc>
<speed>1.980000</speed>
</trkpt>
<trkpt lat="55.836956" lon="26.117308">
<ele>152.822388</ele>
<time>2010-07-17T13:50:35Z</time>
<desc>lat.=55.836956, lon.=26.117308, Alt.=152.822388m. Speed=5.364000m/h.</desc>
<speed>1.490000</speed>
</trkpt>
<trkpt lat="55.836945" lon="26.117298">
<ele>152.306763</ele>
<time>2010-07-17T13:50:36Z</time>
<desc>lat.=55.836945, lon.=26.117298, Alt.=152.306763m. Speed=3.168000m/h.</desc>
<speed>0.880000</speed>
</trkpt>
<trkpt lat="55.836937" lon="26.117292">
<ele>152.138794</ele>
<time>2010-07-17T13:50:37Z</time>
<desc>lat.=55.836937, lon.=26.117292, Alt.=152.138794m. Speed=1.548000m/h.</desc>
<speed>0.430000</speed>
</trkpt>
<trkpt lat="55.836937" lon="26.117289">
<ele>151.994263</ele>
<time>2010-07-17T13:50:38Z</time>
<desc>lat.=55.836937, lon.=26.117289, Alt.=151.994263m. Speed=1.080000m/h.</desc>
<speed>0.300000</speed>
</trkpt>
<trkpt lat="55.836929" lon="26.117289">
<ele>151.787231</ele>
<time>2010-07-17T13:50:39Z</time>
<desc>lat.=55.836929, lon.=26.117289, Alt.=151.787231m. Speed=0.900000m/h.</desc>
<speed>0.250000</speed>
</trkpt>
<trkpt lat="55.836929" lon="26.117289">
<ele>151.658325</ele>
<time>2010-07-17T13:50:40Z</time>
<desc>lat.=55.836929, lon.=26.117289, Alt.=151.658325m. Speed=0.468000m/h.</desc>
<speed>0.130000</speed>
</trkpt>
<trkpt lat="55.836926" lon="26.117287">
<ele>151.568481</ele>
<time>2010-07-17T13:50:41Z</time>
<desc>lat.=55.836926, lon.=26.117287, Alt.=151.568481m. Speed=0.504000m/h.</desc>
<speed>0.140000</speed>
</trkpt>
<trkpt lat="55.836926" lon="26.117285">
<ele>151.502075</ele>
<time>2010-07-17T13:50:42Z</time>
<desc>lat.=55.836926, lon.=26.117285, Alt.=151.502075m. Speed=0.288000m/h.</desc>
<speed>0.080000</speed>
</trkpt>
<trkpt lat="55.836926" lon="26.117287">
<ele>151.447388</ele>
<time>2010-07-17T13:50:43Z</time>
<desc>lat.=55.836926, lon.=26.117287, Alt.=151.447388m. Speed=0.072000m/h.</desc>
<speed>0.020000</speed>
</trkpt>
<trkpt lat="55.836926" lon="26.117285">
<ele>151.404419</ele>
<time>2010-07-17T13:50:44Z</time>
<desc>lat.=55.836926, lon.=26.117285, Alt.=151.404419m. Speed=0.216000m/h.</desc>
<speed>0.060000</speed>
</trkpt>
<trkpt lat="55.836926" lon="26.117287">
<ele>151.369263</ele>
<time>2010-07-17T13:50:45Z</time>
<desc>lat.=55.836926, lon.=26.117287, Alt.=151.369263m. Speed=0.324000m/h.</desc>
<speed>0.090000</speed>
</trkpt>
<trkpt lat="55.836926" lon="26.117287">
<ele>151.345825</ele>
<time>2010-07-17T13:50:46Z</time>
<desc>lat.=55.836926, lon.=26.117287, Alt.=151.345825m. Speed=0.108000m/h.</desc>
<speed>0.030000</speed>
</trkpt>
<trkpt lat="55.836926" lon="26.117287">
<ele>151.298950</ele>
<time>2010-07-17T13:50:47Z</time>
<desc>lat.=55.836926, lon.=26.117287, Alt.=151.298950m. Speed=0.036000m/h.</desc>
<speed>0.010000</speed>
</trkpt>
<trkpt lat="55.836926" lon="26.117287">
<ele>151.252075</ele>
<time>2010-07-17T13:50:48Z</time>
<desc>lat.=55.836926, lon.=26.117287, Alt.=151.252075m. Speed=0.108000m/h.</desc>
<speed>0.030000</speed>
</trkpt>
<trkpt lat="55.836926" lon="26.117287">
<ele>151.205200</ele>
<time>2010-07-17T13:50:49Z</time>
<desc>lat.=55.836926, lon.=26.117287, Alt.=151.205200m. Speed=0.144000m/h.</desc>
<speed>0.040000</speed>
</trkpt>
<trkpt lat="55.836926" lon="26.117287">
<ele>151.181763</ele>
<time>2010-07-17T13:50:50Z</time>
<desc>lat.=55.836926, lon.=26.117287, Alt.=151.181763m. Speed=0.288000m/h.</desc>
<speed>0.080000</speed>
</trkpt>
<trkpt lat="55.836926" lon="26.117289">
<ele>151.146606</ele>
<time>2010-07-17T13:50:51Z</time>
<desc>lat.=55.836926, lon.=26.117289, Alt.=151.146606m. Speed=0.180000m/h.</desc>
<speed>0.050000</speed>
</trkpt>
<trkpt lat="55.836929" lon="26.117289">
<ele>151.123169</ele>
<time>2010-07-17T13:50:52Z</time>
<desc>lat.=55.836929, lon.=26.117289, Alt.=151.123169m. Speed=0.504000m/h.</desc>
<speed>0.140000</speed>
</trkpt>
<trkpt lat="55.836929" lon="26.117289">
<ele>151.095825</ele>
<time>2010-07-17T13:50:53Z</time>
<desc>lat.=55.836929, lon.=26.117289, Alt.=151.095825m. Speed=0.180000m/h.</desc>
<speed>0.050000</speed>
</trkpt>
<trkpt lat="55.836929" lon="26.117289">
<ele>151.072388</ele>
<time>2010-07-17T13:50:54Z</time>
<desc>lat.=55.836929, lon.=26.117289, Alt.=151.072388m. Speed=0.036000m/h.</desc>
<speed>0.010000</speed>
</trkpt>
<trkpt lat="55.836929" lon="26.117289">
<ele>151.045044</ele>
<time>2010-07-17T13:50:55Z</time>
<desc>lat.=55.836929, lon.=26.117289, Alt.=151.045044m. Speed=0.216000m/h.</desc>
<speed>0.060000</speed>
</trkpt>
<trkpt lat="55.836929" lon="26.117289">
<ele>151.025513</ele>
<time>2010-07-17T13:50:56Z</time>
<desc>lat.=55.836929, lon.=26.117289, Alt.=151.025513m. Speed=0.036000m/h.</desc>
<speed>0.010000</speed>
</trkpt>
<trkpt lat="55.836929" lon="26.117289">
<ele>151.002075</ele>
<time>2010-07-17T13:50:57Z</time>
<desc>lat.=55.836929, lon.=26.117289, Alt.=151.002075m. Speed=0.072000m/h.</desc>
<speed>0.020000</speed>
</trkpt>
<trkpt lat="55.836929" lon="26.117289">
<ele>150.986450</ele>
<time>2010-07-17T13:50:58Z</time>
<desc>lat.=55.836929, lon.=26.117289, Alt.=150.986450m. Speed=0.108000m/h.</desc>
<speed>0.030000</speed>
</trkpt>
<trkpt lat="55.836929" lon="26.117289">
<ele>150.978638</ele>
<time>2010-07-17T13:50:59Z</time>
<desc>lat.=55.836929, lon.=26.117289, Alt.=150.978638m. Speed=0.072000m/h.</desc>
<speed>0.020000</speed>
</trkpt>
<trkpt lat="55.836929" lon="26.117289">
<ele>150.974731</ele>
<time>2010-07-17T13:51:00Z</time>
<desc>lat.=55.836929, lon.=26.117289, Alt.=150.974731m. Speed=0.324000m/h.</desc>
<speed>0.090000</speed>
</trkpt>
<trkpt lat="55.836933" lon="26.117289">
<ele>150.974731</ele>
<time>2010-07-17T13:51:01Z</time>
<desc>lat.=55.836933, lon.=26.117289, Alt.=150.974731m. Speed=0.036000m/h.</desc>
<speed>0.010000</speed>
</trkpt>
<trkpt lat="55.836933" lon="26.117289">
<ele>150.970825</ele>
<time>2010-07-17T13:51:02Z</time>
<desc>lat.=55.836933, lon.=26.117289, Alt.=150.970825m. Speed=0.540000m/h.</desc>
<speed>0.150000</speed>
</trkpt>
<trkpt lat="55.836933" lon="26.117290">
<ele>150.966919</ele>
<time>2010-07-17T13:51:03Z</time>
<desc>lat.=55.836933, lon.=26.117290, Alt.=150.966919m. Speed=0.576000m/h.</desc>
<speed>0.160000</speed>
</trkpt>
<trkpt lat="55.836933" lon="26.117290">
<ele>150.963013</ele>
<time>2010-07-17T13:51:04Z</time>
<desc>lat.=55.836933, lon.=26.117290, Alt.=150.963013m. Speed=0.540000m/h.</desc>
<speed>0.150000</speed>
</trkpt>
<trkpt lat="55.836937" lon="26.117290">
<ele>150.963013</ele>
<time>2010-07-17T13:51:05Z</time>
<desc>lat.=55.836937, lon.=26.117290, Alt.=150.963013m. Speed=0.432000m/h.</desc>
<speed>0.120000</speed>
</trkpt>
<trkpt lat="55.836937" lon="26.117292">
<ele>150.963013</ele>
<time>2010-07-17T13:51:06Z</time>
<desc>lat.=55.836937, lon.=26.117292, Alt.=150.963013m. Speed=0.144000m/h.</desc>
<speed>0.040000</speed>
</trkpt>
<trkpt lat="55.836937" lon="26.117290">
<ele>150.963013</ele>
<time>2010-07-17T13:51:07Z</time>
<desc>lat.=55.836937, lon.=26.117290, Alt.=150.963013m. Speed=0.108000m/h.</desc>
<speed>0.030000</speed>
</trkpt>
<trkpt lat="55.836937" lon="26.117292">
<ele>150.970825</ele>
<time>2010-07-17T13:51:08Z</time>
<desc>lat.=55.836937, lon.=26.117292, Alt.=150.970825m. Speed=0.180000m/h.</desc>
<speed>0.050000</speed>
</trkpt>
<trkpt lat="55.836937" lon="26.117290">
<ele>150.974731</ele>
<time>2010-07-17T13:51:09Z</time>
<desc>lat.=55.836937, lon.=26.117290, Alt.=150.974731m. Speed=0.324000m/h.</desc>
<speed>0.090000</speed>
</trkpt>
<trkpt lat="55.836937" lon="26.117290">
<ele>150.978638</ele>
<time>2010-07-17T13:51:10Z</time>
<desc>lat.=55.836937, lon.=26.117290, Alt.=150.978638m. Speed=0.360000m/h.</desc>
<speed>0.100000</speed>
</trkpt>
<trkpt lat="55.836937" lon="26.117292">
<ele>150.982544</ele>
<time>2010-07-17T13:51:11Z</time>
<desc>lat.=55.836937, lon.=26.117292, Alt.=150.982544m. Speed=0.288000m/h.</desc>
<speed>0.080000</speed>
</trkpt>
<trkpt lat="55.836937" lon="26.117294">
<ele>150.986450</ele>
<time>2010-07-17T13:51:12Z</time>
<desc>lat.=55.836937, lon.=26.117294, Alt.=150.986450m. Speed=0.072000m/h.</desc>
<speed>0.020000</speed>
</trkpt>
<trkpt lat="55.836937" lon="26.117294">
<ele>150.986450</ele>
<time>2010-07-17T13:51:13Z</time>
<desc>lat.=55.836937, lon.=26.117294, Alt.=150.986450m. Speed=0.144000m/h.</desc>
<speed>0.040000</speed>
</trkpt>
<trkpt lat="55.836937" lon="26.117294">
<ele>150.982544</ele>
<time>2010-07-17T13:51:14Z</time>
<desc>lat.=55.836937, lon.=26.117294, Alt.=150.982544m. Speed=0.252000m/h.</desc>
<speed>0.070000</speed>
</trkpt>
<trkpt lat="55.836937" lon="26.117294">
<ele>150.982544</ele>
<time>2010-07-17T13:51:15Z</time>
<desc>lat.=55.836937, lon.=26.117294, Alt.=150.982544m. Speed=0.036000m/h.</desc>
<speed>0.010000</speed>
</trkpt>
<trkpt lat="55.836937" lon="26.117294">
<ele>150.986450</ele>
<time>2010-07-17T13:51:16Z</time>
<desc>lat.=55.836937, lon.=26.117294, Alt.=150.986450m. Speed=0.252000m/h.</desc>
<speed>0.070000</speed>
</trkpt>
<trkpt lat="55.836941" lon="26.117296">
<ele>150.978638</ele>
<time>2010-07-17T13:51:17Z</time>
<desc>lat.=55.836941, lon.=26.117296, Alt.=150.978638m. Speed=0.252000m/h.</desc>
<speed>0.070000</speed>
</trkpt>
<trkpt lat="55.836941" lon="26.117296">
<ele>150.982544</ele>
<time>2010-07-17T13:51:18Z</time>
<desc>lat.=55.836941, lon.=26.117296, Alt.=150.982544m. Speed=0.036000m/h.</desc>
<speed>0.010000</speed>
</trkpt>
<trkpt lat="55.836941" lon="26.117296">
<ele>150.982544</ele>
<time>2010-07-17T13:51:19Z</time>
<desc>lat.=55.836941, lon.=26.117296, Alt.=150.982544m. Speed=0.144000m/h.</desc>
<speed>0.040000</speed>
</trkpt>
<trkpt lat="55.836941" lon="26.117296">
<ele>150.986450</ele>
<time>2010-07-17T13:51:20Z</time>
<desc>lat.=55.836941, lon.=26.117296, Alt.=150.986450m. Speed=0.000000m/h.</desc>
<speed>0.000000</speed>
</trkpt>
<trkpt lat="55.836941" lon="26.117296">
<ele>150.986450</ele>
<time>2010-07-17T13:51:21Z</time>
<desc>lat.=55.836941, lon.=26.117296, Alt.=150.986450m. Speed=0.000000m/h.</desc>
<speed>0.000000</speed>
</trkpt>
<trkpt lat="55.836941" lon="26.117296">
<ele>150.986450</ele>
<time>2010-07-17T13:51:22Z</time>
<desc>lat.=55.836941, lon.=26.117296, Alt.=150.986450m. Speed=0.468000m/h.</desc>
<speed>0.130000</speed>
</trkpt>
<trkpt lat="55.836941" lon="26.117296">
<ele>150.986450</ele>
<time>2010-07-17T13:51:23Z</time>
<desc>lat.=55.836941, lon.=26.117296, Alt.=150.986450m. Speed=0.036000m/h.</desc>
<speed>0.010000</speed>
</trkpt>
<trkpt lat="55.836941" lon="26.117296">
<ele>150.986450</ele>
<time>2010-07-17T13:51:24Z</time>
<desc>lat.=55.836941, lon.=26.117296, Alt.=150.986450m. Speed=0.036000m/h.</desc>
<speed>0.010000</speed>
</trkpt>
<trkpt lat="55.836941" lon="26.117296">
<ele>150.986450</ele>
<time>2010-07-17T13:51:25Z</time>
<desc>lat.=55.836941, lon.=26.117296, Alt.=150.986450m. Speed=0.072000m/h.</desc>
<speed>0.020000</speed>
</trkpt>
<trkpt lat="55.836941" lon="26.117296">
<ele>150.986450</ele>
<time>2010-07-17T13:51:26Z</time>
<desc>lat.=55.836941, lon.=26.117296, Alt.=150.986450m. Speed=0.180000m/h.</desc>
<speed>0.050000</speed>
</trkpt>
<trkpt lat="55.836941" lon="26.117296">
<ele>150.986450</ele>
<time>2010-07-17T13:51:27Z</time>
<desc>lat.=55.836941, lon.=26.117296, Alt.=150.986450m. Speed=0.072000m/h.</desc>
<speed>0.020000</speed>
</trkpt>
<trkpt lat="55.836941" lon="26.117294">
<ele>150.986450</ele>
<time>2010-07-17T13:51:28Z</time>
<desc>lat.=55.836941, lon.=26.117294, Alt.=150.986450m. Speed=0.000000m/h.</desc>
<speed>0.000000</speed>
</trkpt>
<trkpt lat="55.836941" lon="26.117296">
<ele>150.986450</ele>
<time>2010-07-17T13:51:29Z</time>
<desc>lat.=55.836941, lon.=26.117296, Alt.=150.986450m. Speed=0.000000m/h.</desc>
<speed>0.000000</speed>
</trkpt>
<trkpt lat="55.836941" lon="26.117296">
<ele>150.986450</ele>
<time>2010-07-17T13:51:30Z</time>
<desc>lat.=55.836941, lon.=26.117296, Alt.=150.986450m. Speed=0.000000m/h.</desc>
<speed>0.000000</speed>
</trkpt>
<trkpt lat="55.836941" lon="26.117296">
<ele>150.986450</ele>
<time>2010-07-17T13:51:31Z</time>
<desc>lat.=55.836941, lon.=26.117296, Alt.=150.986450m. Speed=0.000000m/h.</desc>
<speed>0.000000</speed>
</trkpt>
<trkpt lat="55.836941" lon="26.117296">
<ele>150.986450</ele>
<time>2010-07-17T13:51:32Z</time>
<desc>lat.=55.836941, lon.=26.117296, Alt.=150.986450m. Speed=0.000000m/h.</desc>
<speed>0.000000</speed>
</trkpt>
<trkpt lat="55.836941" lon="26.117296">
<ele>150.982544</ele>
<time>2010-07-17T13:51:33Z</time>
<desc>lat.=55.836941, lon.=26.117296, Alt.=150.982544m. Speed=0.036000m/h.</desc>
<speed>0.010000</speed>
</trkpt>
<trkpt lat="55.836941" lon="26.117296">
<ele>150.982544</ele>
<time>2010-07-17T13:51:34Z</time>
<desc>lat.=55.836941, lon.=26.117296, Alt.=150.982544m. Speed=0.000000m/h.</desc>
<speed>0.000000</speed>
</trkpt>
<trkpt lat="55.836941" lon="26.117296">
<ele>150.978638</ele>
<time>2010-07-17T13:51:35Z</time>
<desc>lat.=55.836941, lon.=26.117296, Alt.=150.978638m. Speed=0.036000m/h.</desc>
<speed>0.010000</speed>
</trkpt>
<trkpt lat="55.836941" lon="26.117296">
<ele>150.978638</ele>
<time>2010-07-17T13:51:36Z</time>
<desc>lat.=55.836941, lon.=26.117296, Alt.=150.978638m. Speed=0.000000m/h.</desc>
<speed>0.000000</speed>
</trkpt>
<trkpt lat="55.836941" lon="26.117296">
<ele>150.978638</ele>
<time>2010-07-17T13:51:37Z</time>
<desc>lat.=55.836941, lon.=26.117296, Alt.=150.978638m. Speed=0.036000m/h.</desc>
<speed>0.010000</speed>
</trkpt>
<trkpt lat="55.836941" lon="26.117294">
<ele>150.974731</ele>
<time>2010-07-17T13:51:38Z</time>
<desc>lat.=55.836941, lon.=26.117294, Alt.=150.974731m. Speed=0.108000m/h.</desc>
<speed>0.030000</speed>
</trkpt>
<trkpt lat="55.836941" lon="26.117294">
<ele>150.970825</ele>
<time>2010-07-17T13:51:39Z</time>
<desc>lat.=55.836941, lon.=26.117294, Alt.=150.970825m. Speed=0.000000m/h.</desc>
<speed>0.000000</speed>
</trkpt>
<trkpt lat="55.836941" lon="26.117294">
<ele>150.970825</ele>
<time>2010-07-17T13:51:40Z</time>
<desc>lat.=55.836941, lon.=26.117294, Alt.=150.970825m. Speed=0.000000m/h.</desc>
<speed>0.000000</speed>
</trkpt>
<trkpt lat="55.836941" lon="26.117294">
<ele>150.966919</ele>
<time>2010-07-17T13:51:41Z</time>
<desc>lat.=55.836941, lon.=26.117294, Alt.=150.966919m. Speed=0.036000m/h.</desc>
<speed>0.010000</speed>
</trkpt>
<trkpt lat="55.836941" lon="26.117294">
<ele>150.966919</ele>
<time>2010-07-17T13:51:42Z</time>
<desc>lat.=55.836941, lon.=26.117294, Alt.=150.966919m. Speed=0.000000m/h.</desc>
<speed>0.000000</speed>
</trkpt>
<trkpt lat="55.836937" lon="26.117294">
<ele>150.963013</ele>
<time>2010-07-17T13:51:43Z</time>
<desc>lat.=55.836937, lon.=26.117294, Alt.=150.963013m. Speed=0.072000m/h.</desc>
<speed>0.020000</speed>
</trkpt>
<trkpt lat="55.836937" lon="26.117294">
<ele>150.963013</ele>
<time>2010-07-17T13:51:44Z</time>
<desc>lat.=55.836937, lon.=26.117294, Alt.=150.963013m. Speed=0.324000m/h.</desc>
<speed>0.090000</speed>
</trkpt>
<trkpt lat="55.836937" lon="26.117294">
<ele>150.959106</ele>
<time>2010-07-17T13:51:45Z</time>
<desc>lat.=55.836937, lon.=26.117294, Alt.=150.959106m. Speed=0.216000m/h.</desc>
<speed>0.060000</speed>
</trkpt>
<trkpt lat="55.836937" lon="26.117294">
<ele>150.951294</ele>
<time>2010-07-17T13:51:46Z</time>
<desc>lat.=55.836937, lon.=26.117294, Alt.=150.951294m. Speed=0.108000m/h.</desc>
<speed>0.030000</speed>
</trkpt>
<trkpt lat="55.836937" lon="26.117294">
<ele>150.947388</ele>
<time>2010-07-17T13:51:47Z</time>
<desc>lat.=55.836937, lon.=26.117294, Alt.=150.947388m. Speed=0.072000m/h.</desc>
<speed>0.020000</speed>
</trkpt>
<trkpt lat="55.836937" lon="26.117294">
<ele>150.947388</ele>
<time>2010-07-17T13:51:48Z</time>
<desc>lat.=55.836937, lon.=26.117294, Alt.=150.947388m. Speed=0.072000m/h.</desc>
<speed>0.020000</speed>
</trkpt>
<trkpt lat="55.836937" lon="26.117294">
<ele>150.947388</ele>
<time>2010-07-17T13:51:49Z</time>
<desc>lat.=55.836937, lon.=26.117294, Alt.=150.947388m. Speed=0.252000m/h.</desc>
<speed>0.070000</speed>
</trkpt>
<trkpt lat="55.836937" lon="26.117294">
<ele>150.947388</ele>
<time>2010-07-17T13:51:50Z</time>
<desc>lat.=55.836937, lon.=26.117294, Alt.=150.947388m. Speed=0.756000m/h.</desc>
<speed>0.210000</speed>
</trkpt>
<trkpt lat="55.836941" lon="26.117296">
<ele>150.947388</ele>
<time>2010-07-17T13:51:51Z</time>
<desc>lat.=55.836941, lon.=26.117296, Alt.=150.947388m. Speed=1.296000m/h.</desc>
<speed>0.360000</speed>
</trkpt>
<trkpt lat="55.836945" lon="26.117298">
<ele>150.951294</ele>
<time>2010-07-17T13:51:52Z</time>
<desc>lat.=55.836945, lon.=26.117298, Alt.=150.951294m. Speed=3.096000m/h.</desc>
<speed>0.860000</speed>
</trkpt>
<trkpt lat="55.836952" lon="26.117298">
<ele>150.955200</ele>
<time>2010-07-17T13:51:53Z</time>
<desc>lat.=55.836952, lon.=26.117298, Alt.=150.955200m. Speed=5.256000m/h.</desc>
<speed>1.460000</speed>
</trkpt>
<trkpt lat="55.836971" lon="26.117304">
<ele>149.564575</ele>
<time>2010-07-17T13:51:54Z</time>
<desc>lat.=55.836971, lon.=26.117304, Alt.=149.564575m. Speed=8.568000m/h.</desc>
<speed>2.380000</speed>
</trkpt>
<trkpt lat="55.836994" lon="26.117319">
<ele>149.330200</ele>
<time>2010-07-17T13:51:55Z</time>
<desc>lat.=55.836994, lon.=26.117319, Alt.=149.330200m. Speed=11.016000m/h.</desc>
<speed>3.060000</speed>
</trkpt>
<trkpt lat="55.837021" lon="26.117340">
<ele>149.236450</ele>
<time>2010-07-17T13:51:56Z</time>
<desc>lat.=55.837021, lon.=26.117340, Alt.=149.236450m. Speed=12.924000m/h.</desc>
<speed>3.590000</speed>
</trkpt>
<trkpt lat="55.837051" lon="26.117361">
<ele>149.162231</ele>
<time>2010-07-17T13:51:57Z</time>
<desc>lat.=55.837051, lon.=26.117361, Alt.=149.162231m. Speed=14.616000m/h.</desc>
<speed>4.060000</speed>
</trkpt>
<trkpt lat="55.837086" lon="26.117380">
<ele>149.088013</ele>
<time>2010-07-17T13:51:58Z</time>
<desc>lat.=55.837086, lon.=26.117380, Alt.=149.088013m. Speed=16.416000m/h.</desc>
<speed>4.560000</speed>
</trkpt>
<trkpt lat="55.837124" lon="26.117405">
<ele>149.091919</ele>
<time>2010-07-17T13:51:59Z</time>
<desc>lat.=55.837124, lon.=26.117405, Alt.=149.091919m. Speed=16.308001m/h.</desc>
<speed>4.530000</speed>
</trkpt>
<trkpt lat="55.837162" lon="26.117424">
<ele>149.111450</ele>
<time>2010-07-17T13:52:00Z</time>
<desc>lat.=55.837162, lon.=26.117424, Alt.=149.111450m. Speed=14.904000m/h.</desc>
<speed>4.140000</speed>
</trkpt>
<trkpt lat="55.837200" lon="26.117430">
<ele>149.127075</ele>
<time>2010-07-17T13:52:01Z</time>
<desc>lat.=55.837200, lon.=26.117430, Alt.=149.127075m. Speed=14.004000m/h.</desc>
<speed>3.890000</speed>
</trkpt>
<trkpt lat="55.837238" lon="26.117428">
<ele>149.213013</ele>
<time>2010-07-17T13:52:02Z</time>
<desc>lat.=55.837238, lon.=26.117428, Alt.=149.213013m. Speed=13.932000m/h.</desc>
<speed>3.870000</speed>
</trkpt>
<trkpt lat="55.837273" lon="26.117413">
<ele>149.623169</ele>
<time>2010-07-17T13:52:03Z</time>
<desc>lat.=55.837273, lon.=26.117413, Alt.=149.623169m. Speed=13.356000m/h.</desc>
<speed>3.710000</speed>
</trkpt>
<trkpt lat="55.837303" lon="26.117388">
<ele>149.884888</ele>
<time>2010-07-17T13:52:04Z</time>
<desc>lat.=55.837303, lon.=26.117388, Alt.=149.884888m. Speed=12.636000m/h.</desc>
<speed>3.510000</speed>
</trkpt>
<trkpt lat="55.837322" lon="26.117353">
<ele>150.435669</ele>
<time>2010-07-17T13:52:05Z</time>
<desc>lat.=55.837322, lon.=26.117353, Alt.=150.435669m. Speed=12.240000m/h.</desc>
<speed>3.400000</speed>
</trkpt>
<trkpt lat="55.837334" lon="26.117300">
<ele>150.939575</ele>
<time>2010-07-17T13:52:06Z</time>
<desc>lat.=55.837334, lon.=26.117300, Alt.=150.939575m. Speed=13.068000m/h.</desc>
<speed>3.630000</speed>
</trkpt>
<trkpt lat="55.837337" lon="26.117237">
<ele>151.193481</ele>
<time>2010-07-17T13:52:07Z</time>
<desc>lat.=55.837337, lon.=26.117237, Alt.=151.193481m. Speed=15.552000m/h.</desc>
<speed>4.320000</speed>
</trkpt>
<trkpt lat="55.837334" lon="26.117163">
<ele>151.228638</ele>
<time>2010-07-17T13:52:08Z</time>
<desc>lat.=55.837334, lon.=26.117163, Alt.=151.228638m. Speed=17.424000m/h.</desc>
<speed>4.840000</speed>
</trkpt>
<trkpt lat="55.837326" lon="26.117079">
<ele>151.541138</ele>
<time>2010-07-17T13:52:09Z</time>
<desc>lat.=55.837326, lon.=26.117079, Alt.=151.541138m. Speed=18.972000m/h.</desc>
<speed>5.270000</speed>
</trkpt>
<trkpt lat="55.837322" lon="26.116997">
<ele>151.693481</ele>
<time>2010-07-17T13:52:10Z</time>
<desc>lat.=55.837322, lon.=26.116997, Alt.=151.693481m. Speed=18.072001m/h.</desc>
<speed>5.020000</speed>
</trkpt>
<trkpt lat="55.837318" lon="26.116911">
<ele>151.978638</ele>
<time>2010-07-17T13:52:11Z</time>
<desc>lat.=55.837318, lon.=26.116911, Alt.=151.978638m. Speed=19.691999m/h.</desc>
<speed>5.470000</speed>
</trkpt>
<trkpt lat="55.837307" lon="26.116817">
<ele>151.798950</ele>
<time>2010-07-17T13:52:12Z</time>
<desc>lat.=55.837307, lon.=26.116817, Alt.=151.798950m. Speed=21.275999m/h.</desc>
<speed>5.910000</speed>
</trkpt>
<trkpt lat="55.837303" lon="26.116714">
<ele>151.486450</ele>
<time>2010-07-17T13:52:13Z</time>
<desc>lat.=55.837303, lon.=26.116714, Alt.=151.486450m. Speed=22.752001m/h.</desc>
<speed>6.320000</speed>
</trkpt>
<trkpt lat="55.837299" lon="26.116613">
<ele>151.197388</ele>
<time>2010-07-17T13:52:14Z</time>
<desc>lat.=55.837299, lon.=26.116613, Alt.=151.197388m. Speed=23.219999m/h.</desc>
<speed>6.450000</speed>
</trkpt>
<trkpt lat="55.837292" lon="26.116510">
<ele>151.048950</ele>
<time>2010-07-17T13:52:15Z</time>
<desc>lat.=55.837292, lon.=26.116510, Alt.=151.048950m. Speed=23.076000m/h.</desc>
<speed>6.410000</speed>
</trkpt>
<trkpt lat="55.837280" lon="26.116402">
<ele>151.041138</ele>
<time>2010-07-17T13:52:16Z</time>
<desc>lat.=55.837280, lon.=26.116402, Alt.=151.041138m. Speed=24.048000m/h.</desc>
<speed>6.680000</speed>
</trkpt>
<trkpt lat="55.837273" lon="26.116285">
<ele>150.943481</ele>
<time>2010-07-17T13:52:17Z</time>
<desc>lat.=55.837273, lon.=26.116285, Alt.=150.943481m. Speed=25.920000m/h.</desc>
<speed>7.200000</speed>
</trkpt>
<trkpt lat="55.837265" lon="26.116173">
<ele>150.880981</ele>
<time>2010-07-17T13:52:18Z</time>
<desc>lat.=55.837265, lon.=26.116173, Alt.=150.880981m. Speed=25.128000m/h.</desc>
<speed>6.980000</speed>
</trkpt>
<trkpt lat="55.837257" lon="26.116062">
<ele>150.787231</ele>
<time>2010-07-17T13:52:19Z</time>
<desc>lat.=55.837257, lon.=26.116062, Alt.=150.787231m. Speed=24.875999m/h.</desc>
<speed>6.910000</speed>
</trkpt>
<trkpt lat="55.837250" lon="26.115952">
<ele>150.705200</ele>
<time>2010-07-17T13:52:20Z</time>
<desc>lat.=55.837250, lon.=26.115952, Alt.=150.705200m. Speed=23.903999m/h.</desc>
<speed>6.640000</speed>
</trkpt>
<trkpt lat="55.837246" lon="26.115845">
<ele>150.591919</ele>
<time>2010-07-17T13:52:21Z</time>
<desc>lat.=55.837246, lon.=26.115845, Alt.=150.591919m. Speed=24.156000m/h.</desc>
<speed>6.710000</speed>
</trkpt>
<trkpt lat="55.837242" lon="26.115734">
<ele>150.654419</ele>
<time>2010-07-17T13:52:22Z</time>
<desc>lat.=55.837242, lon.=26.115734, Alt.=150.654419m. Speed=24.552000m/h.</desc>
<speed>6.820000</speed>
</trkpt>
<trkpt lat="55.837231" lon="26.115618">
<ele>150.322388</ele>
<time>2010-07-17T13:52:23Z</time>
<desc>lat.=55.837231, lon.=26.115618, Alt.=150.322388m. Speed=25.379999m/h.</desc>
<speed>7.050000</speed>
</trkpt>
<trkpt lat="55.837223" lon="26.115499">
<ele>150.095825</ele>
<time>2010-07-17T13:52:24Z</time>
<desc>lat.=55.837223, lon.=26.115499, Alt.=150.095825m. Speed=26.316000m/h.</desc>
<speed>7.310000</speed>
</trkpt>
<trkpt lat="55.837212" lon="26.115383">
<ele>149.771606</ele>
<time>2010-07-17T13:52:25Z</time>
<desc>lat.=55.837212, lon.=26.115383, Alt.=149.771606m. Speed=26.496000m/h.</desc>
<speed>7.360000</speed>
</trkpt>
<trkpt lat="55.837208" lon="26.115261">
<ele>149.439575</ele>
<time>2010-07-17T13:52:26Z</time>
<desc>lat.=55.837208, lon.=26.115261, Alt.=149.439575m. Speed=27.000000m/h.</desc>
<speed>7.500000</speed>
</trkpt>
<trkpt lat="55.837200" lon="26.115143">
<ele>149.134888</ele>
<time>2010-07-17T13:52:27Z</time>
<desc>lat.=55.837200, lon.=26.115143, Alt.=149.134888m. Speed=26.604000m/h.</desc>
<speed>7.390000</speed>
</trkpt>
<trkpt lat="55.837196" lon="26.115030">
<ele>148.986450</ele>
<time>2010-07-17T13:52:28Z</time>
<desc>lat.=55.837196, lon.=26.115030, Alt.=148.986450m. Speed=26.568001m/h.</desc>
<speed>7.380000</speed>
</trkpt>
<trkpt lat="55.837185" lon="26.114914">
<ele>148.771606</ele>
<time>2010-07-17T13:52:29Z</time>
<desc>lat.=55.837185, lon.=26.114914, Alt.=148.771606m. Speed=26.351999m/h.</desc>
<speed>7.320000</speed>
</trkpt>
<trkpt lat="55.837173" lon="26.114796">
<ele>148.423950</ele>
<time>2010-07-17T13:52:30Z</time>
<desc>lat.=55.837173, lon.=26.114796, Alt.=148.423950m. Speed=26.351999m/h.</desc>
<speed>7.320000</speed>
</trkpt>
<trkpt lat="55.837166" lon="26.114679">
<ele>148.275513</ele>
<time>2010-07-17T13:52:31Z</time>
<desc>lat.=55.837166, lon.=26.114679, Alt.=148.275513m. Speed=26.243999m/h.</desc>
<speed>7.290000</speed>
</trkpt>
<trkpt lat="55.837154" lon="26.114557">
<ele>148.084106</ele>
<time>2010-07-17T13:52:32Z</time>
<desc>lat.=55.837154, lon.=26.114557, Alt.=148.084106m. Speed=27.035999m/h.</desc>
<speed>7.510000</speed>
</trkpt>
<trkpt lat="55.837139" lon="26.114433">
<ele>147.771606</ele>
<time>2010-07-17T13:52:33Z</time>
<desc>lat.=55.837139, lon.=26.114433, Alt.=147.771606m. Speed=27.000000m/h.</desc>
<speed>7.500000</speed>
</trkpt>
<trkpt lat="55.837128" lon="26.114315">
<ele>147.486450</ele>
<time>2010-07-17T13:52:34Z</time>
<desc>lat.=55.837128, lon.=26.114315, Alt.=147.486450m. Speed=26.784000m/h.</desc>
<speed>7.440000</speed>
</trkpt>
<trkpt lat="55.837120" lon="26.114193">
<ele>147.216919</ele>
<time>2010-07-17T13:52:35Z</time>
<desc>lat.=55.837120, lon.=26.114193, Alt.=147.216919m. Speed=27.864000m/h.</desc>
<speed>7.740000</speed>
</trkpt>
<trkpt lat="55.837112" lon="26.114069">
<ele>147.002075</ele>
<time>2010-07-17T13:52:36Z</time>
<desc>lat.=55.837112, lon.=26.114069, Alt.=147.002075m. Speed=27.504000m/h.</desc>
<speed>7.640000</speed>
</trkpt>
<trkpt lat="55.837109" lon="26.113943">
<ele>146.849731</ele>
<time>2010-07-17T13:52:37Z</time>
<desc>lat.=55.837109, lon.=26.113943, Alt.=146.849731m. Speed=28.260000m/h.</desc>
<speed>7.850000</speed>
</trkpt>
<trkpt lat="55.837109" lon="26.113789">
<ele>146.783325</ele>
<time>2010-07-17T13:52:38Z</time>
<desc>lat.=55.837109, lon.=26.113789, Alt.=146.783325m. Speed=32.616001m/h.</desc>
<speed>9.060000</speed>
</trkpt>
<trkpt lat="55.837109" lon="26.113642">
<ele>146.423950</ele>
<time>2010-07-17T13:52:39Z</time>
<desc>lat.=55.837109, lon.=26.113642, Alt.=146.423950m. Speed=31.104000m/h.</desc>
<speed>8.640000</speed>
</trkpt>
<trkpt lat="55.837112" lon="26.113503">
<ele>146.002075</ele>
<time>2010-07-17T13:52:40Z</time>
<desc>lat.=55.837112, lon.=26.113503, Alt.=146.002075m. Speed=29.700001m/h.</desc>
<speed>8.250000</speed>
</trkpt>
<trkpt lat="55.837124" lon="26.113356">
<ele>145.310669</ele>
<time>2010-07-17T13:52:41Z</time>
<desc>lat.=55.837124, lon.=26.113356, Alt.=145.310669m. Speed=31.320000m/h.</desc>
<speed>8.700000</speed>
</trkpt>
<trkpt lat="55.837128" lon="26.113213">
<ele>144.498169</ele>
<time>2010-07-17T13:52:42Z</time>
<desc>lat.=55.837128, lon.=26.113213, Alt.=144.498169m. Speed=31.068001m/h.</desc>
<speed>8.630000</speed>
</trkpt>
<trkpt lat="55.837135" lon="26.113071">
<ele>144.279419</ele>
<time>2010-07-17T13:52:43Z</time>
<desc>lat.=55.837135, lon.=26.113071, Alt.=144.279419m. Speed=32.292000m/h.</desc>
<speed>8.970000</speed>
</trkpt>
<trkpt lat="55.837151" lon="26.112930">
<ele>144.787231</ele>
<time>2010-07-17T13:52:44Z</time>
<desc>lat.=55.837151, lon.=26.112930, Alt.=144.787231m. Speed=33.155998m/h.</desc>
<speed>9.210000</speed>
</trkpt>
<trkpt lat="55.837158" lon="26.112795">
<ele>144.420044</ele>
<time>2010-07-17T13:52:45Z</time>
<desc>lat.=55.837158, lon.=26.112795, Alt.=144.420044m. Speed=27.504000m/h.</desc>
<speed>7.640000</speed>
</trkpt>
<trkpt lat="55.837170" lon="26.112665">
<ele>144.138794</ele>
<time>2010-07-17T13:52:46Z</time>
<desc>lat.=55.837170, lon.=26.112665, Alt.=144.138794m. Speed=30.528000m/h.</desc>
<speed>8.480000</speed>
</trkpt>
<trkpt lat="55.837177" lon="26.112532">
<ele>143.822388</ele>
<time>2010-07-17T13:52:47Z</time>
<desc>lat.=55.837177, lon.=26.112532, Alt.=143.822388m. Speed=26.351999m/h.</desc>
<speed>7.320000</speed>
</trkpt>
<trkpt lat="55.837189" lon="26.112408">
<ele>143.681763</ele>
<time>2010-07-17T13:52:48Z</time>
<desc>lat.=55.837189, lon.=26.112408, Alt.=143.681763m. Speed=30.492001m/h.</desc>
<speed>8.470000</speed>
</trkpt>
<trkpt lat="55.837200" lon="26.112268">
<ele>143.935669</ele>
<time>2010-07-17T13:52:49Z</time>
<desc>lat.=55.837200, lon.=26.112268, Alt.=143.935669m. Speed=34.667999m/h.</desc>
<speed>9.630000</speed>
</trkpt>
<trkpt lat="55.837212" lon="26.112135">
<ele>144.033325</ele>
<time>2010-07-17T13:52:50Z</time>
<desc>lat.=55.837212, lon.=26.112135, Alt.=144.033325m. Speed=26.424000m/h.</desc>
<speed>7.340000</speed>
</trkpt>
<trkpt lat="55.837227" lon="26.112020">
<ele>143.521606</ele>
<time>2010-07-17T13:52:51Z</time>
<desc>lat.=55.837227, lon.=26.112020, Alt.=143.521606m. Speed=25.200001m/h.</desc>
<speed>7.000000</speed>
</trkpt>
<trkpt lat="55.837246" lon="26.111904">
<ele>143.513794</ele>
<time>2010-07-17T13:52:52Z</time>
<desc>lat.=55.837246, lon.=26.111904, Alt.=143.513794m. Speed=27.072001m/h.</desc>
<speed>7.520000</speed>
</trkpt>
<trkpt lat="55.837261" lon="26.111786">
<ele>143.439575</ele>
<time>2010-07-17T13:52:53Z</time>
<desc>lat.=55.837261, lon.=26.111786, Alt.=143.439575m. Speed=26.172001m/h.</desc>
<speed>7.270000</speed>
</trkpt>
<trkpt lat="55.837269" lon="26.111673">
<ele>143.146606</ele>
<time>2010-07-17T13:52:54Z</time>
<desc>lat.=55.837269, lon.=26.111673, Alt.=143.146606m. Speed=24.011999m/h.</desc>
<speed>6.670000</speed>
</trkpt>
<trkpt lat="55.837280" lon="26.111559">
<ele>143.084106</ele>
<time>2010-07-17T13:52:55Z</time>
<desc>lat.=55.837280, lon.=26.111559, Alt.=143.084106m. Speed=24.156000m/h.</desc>
<speed>6.710000</speed>
</trkpt>
<trkpt lat="55.837296" lon="26.111448">
<ele>142.744263</ele>
<time>2010-07-17T13:52:56Z</time>
<desc>lat.=55.837296, lon.=26.111448, Alt.=142.744263m. Speed=26.172001m/h.</desc>
<speed>7.270000</speed>
</trkpt>
<trkpt lat="55.837307" lon="26.111332">
<ele>142.689575</ele>
<time>2010-07-17T13:52:57Z</time>
<desc>lat.=55.837307, lon.=26.111332, Alt.=142.689575m. Speed=24.516001m/h.</desc>
<speed>6.810000</speed>
</trkpt>
<trkpt lat="55.837318" lon="26.111223">
<ele>142.713013</ele>
<time>2010-07-17T13:52:58Z</time>
<desc>lat.=55.837318, lon.=26.111223, Alt.=142.713013m. Speed=22.860001m/h.</desc>
<speed>6.350000</speed>
</trkpt>
<trkpt lat="55.837330" lon="26.111116">
<ele>142.728638</ele>
<time>2010-07-17T13:52:59Z</time>
<desc>lat.=55.837330, lon.=26.111116, Alt.=142.728638m. Speed=23.004000m/h.</desc>
<speed>6.390000</speed>
</trkpt>
<trkpt lat="55.837337" lon="26.111015">
<ele>142.818481</ele>
<time>2010-07-17T13:53:00Z</time>
<desc>lat.=55.837337, lon.=26.111015, Alt.=142.818481m. Speed=21.959999m/h.</desc>
<speed>6.100000</speed>
</trkpt>
<trkpt lat="55.837345" lon="26.110910">
<ele>142.744263</ele>
<time>2010-07-17T13:53:01Z</time>
<desc>lat.=55.837345, lon.=26.110910, Alt.=142.744263m. Speed=22.104000m/h.</desc>
<speed>6.140000</speed>
</trkpt>
<trkpt lat="55.837357" lon="26.110821">
<ele>142.990356</ele>
<time>2010-07-17T13:53:02Z</time>
<desc>lat.=55.837357, lon.=26.110821, Alt.=142.990356m. Speed=19.260000m/h.</desc>
<speed>5.350000</speed>
</trkpt>
<trkpt lat="55.837364" lon="26.110783">
<ele>143.255981</ele>
<time>2010-07-17T13:53:03Z</time>
<desc>lat.=55.837364, lon.=26.110783, Alt.=143.255981m. Speed=6.300000m/h.</desc>
<speed>1.750000</speed>
</trkpt>
<trkpt lat="55.837372" lon="26.110716">
<ele>143.013794</ele>
<time>2010-07-17T13:53:04Z</time>
<desc>lat.=55.837372, lon.=26.110716, Alt.=143.013794m. Speed=16.091999m/h.</desc>
<speed>4.470000</speed>
</trkpt>
<trkpt lat="55.837379" lon="26.110611">
<ele>143.295044</ele>
<time>2010-07-17T13:53:05Z</time>
<desc>lat.=55.837379, lon.=26.110611, Alt.=143.295044m. Speed=20.448000m/h.</desc>
<speed>5.680000</speed>
</trkpt>
<trkpt lat="55.837383" lon="26.110512">
<ele>143.224731</ele>
<time>2010-07-17T13:53:06Z</time>
<desc>lat.=55.837383, lon.=26.110512, Alt.=143.224731m. Speed=19.080000m/h.</desc>
<speed>5.300000</speed>
</trkpt>
<trkpt lat="55.837391" lon="26.110395">
<ele>142.529419</ele>
<time>2010-07-17T13:53:07Z</time>
<desc>lat.=55.837391, lon.=26.110395, Alt.=142.529419m. Speed=18.972000m/h.</desc>
<speed>5.270000</speed>
</trkpt>
<trkpt lat="55.837399" lon="26.110294">
<ele>142.716919</ele>
<time>2010-07-17T13:53:08Z</time>
<desc>lat.=55.837399, lon.=26.110294, Alt.=142.716919m. Speed=22.464001m/h.</desc>
<speed>6.240000</speed>
</trkpt>
<trkpt lat="55.837399" lon="26.110186">
<ele>141.998169</ele>
<time>2010-07-17T13:53:09Z</time>
<desc>lat.=55.837399, lon.=26.110186, Alt.=141.998169m. Speed=18.396000m/h.</desc>
<speed>5.110000</speed>
</trkpt>
<trkpt lat="55.837410" lon="26.110086">
<ele>142.623169</ele>
<time>2010-07-17T13:53:10Z</time>
<desc>lat.=55.837410, lon.=26.110086, Alt.=142.623169m. Speed=22.427999m/h.</desc>
<speed>6.230000</speed>
</trkpt>
<trkpt lat="55.837418" lon="26.109980">
<ele>141.974731</ele>
<time>2010-07-17T13:53:11Z</time>
<desc>lat.=55.837418, lon.=26.109980, Alt.=141.974731m. Speed=18.216000m/h.</desc>
<speed>5.060000</speed>
</trkpt>
<trkpt lat="55.837429" lon="26.109873">
<ele>143.845825</ele>
<time>2010-07-17T13:53:12Z</time>
<desc>lat.=55.837429, lon.=26.109873, Alt.=143.845825m. Speed=26.459999m/h.</desc>
<speed>7.350000</speed>
</trkpt>
<trkpt lat="55.837437" lon="26.109776">
<ele>143.888794</ele>
<time>2010-07-17T13:53:13Z</time>
<desc>lat.=55.837437, lon.=26.109776, Alt.=143.888794m. Speed=15.552000m/h.</desc>
<speed>4.320000</speed>
</trkpt>
<trkpt lat="55.837440" lon="26.109697">
<ele>143.912231</ele>
<time>2010-07-17T13:53:14Z</time>
<desc>lat.=55.837440, lon.=26.109697, Alt.=143.912231m. Speed=17.820000m/h.</desc>
<speed>4.950000</speed>
</trkpt>
<trkpt lat="55.837444" lon="26.109598">
<ele>144.459106</ele>
<time>2010-07-17T13:53:15Z</time>
<desc>lat.=55.837444, lon.=26.109598, Alt.=144.459106m. Speed=19.440001m/h.</desc>
<speed>5.400000</speed>
</trkpt>
<trkpt lat="55.837440" lon="26.109470">
<ele>144.123169</ele>
<time>2010-07-17T13:53:16Z</time>
<desc>lat.=55.837440, lon.=26.109470, Alt.=144.123169m. Speed=22.931999m/h.</desc>
<speed>6.370000</speed>
</trkpt>
<trkpt lat="55.837440" lon="26.109360">
<ele>144.552856</ele>
<time>2010-07-17T13:53:17Z</time>
<desc>lat.=55.837440, lon.=26.109360, Alt.=144.552856m. Speed=21.204000m/h.</desc>
<speed>5.890000</speed>
</trkpt>
<trkpt lat="55.837440" lon="26.109264">
<ele>144.849731</ele>
<time>2010-07-17T13:53:18Z</time>
<desc>lat.=55.837440, lon.=26.109264, Alt.=144.849731m. Speed=21.636000m/h.</desc>
<speed>6.010000</speed>
</trkpt>
<trkpt lat="55.837444" lon="26.109163">
<ele>145.185669</ele>
<time>2010-07-17T13:53:19Z</time>
<desc>lat.=55.837444, lon.=26.109163, Alt.=145.185669m. Speed=21.600000m/h.</desc>
<speed>6.000000</speed>
</trkpt>
<trkpt lat="55.837444" lon="26.109064">
<ele>145.603638</ele>
<time>2010-07-17T13:53:20Z</time>
<desc>lat.=55.837444, lon.=26.109064, Alt.=145.603638m. Speed=21.600000m/h.</desc>
<speed>6.000000</speed>
</trkpt>
<trkpt lat="55.837440" lon="26.108965">
<ele>146.209106</ele>
<time>2010-07-17T13:53:21Z</time>
<desc>lat.=55.837440, lon.=26.108965, Alt.=146.209106m. Speed=22.247999m/h.</desc>
<speed>6.180000</speed>
</trkpt>
<trkpt lat="55.837440" lon="26.108864">
<ele>146.771606</ele>
<time>2010-07-17T13:53:22Z</time>
<desc>lat.=55.837440, lon.=26.108864, Alt.=146.771606m. Speed=22.032000m/h.</desc>
<speed>6.120000</speed>
</trkpt>
<trkpt lat="55.837437" lon="26.108763">
<ele>147.486450</ele>
<time>2010-07-17T13:53:23Z</time>
<desc>lat.=55.837437, lon.=26.108763, Alt.=147.486450m. Speed=23.327999m/h.</desc>
<speed>6.480000</speed>
</trkpt>
<trkpt lat="55.837440" lon="26.108658">
<ele>148.498169</ele>
<time>2010-07-17T13:53:24Z</time>
<desc>lat.=55.837440, lon.=26.108658, Alt.=148.498169m. Speed=23.976000m/h.</desc>
<speed>6.660000</speed>
</trkpt>
<trkpt lat="55.837440" lon="26.108549">
<ele>149.380981</ele>
<time>2010-07-17T13:53:25Z</time>
<desc>lat.=55.837440, lon.=26.108549, Alt.=149.380981m. Speed=23.148001m/h.</desc>
<speed>6.430000</speed>
</trkpt>
<trkpt lat="55.837440" lon="26.108450">
<ele>149.963013</ele>
<time>2010-07-17T13:53:26Z</time>
<desc>lat.=55.837440, lon.=26.108450, Alt.=149.963013m. Speed=20.879999m/h.</desc>
<speed>5.800000</speed>
</trkpt>
<trkpt lat="55.837429" lon="26.108347">
<ele>148.197388</ele>
<time>2010-07-17T13:53:27Z</time>
<desc>lat.=55.837429, lon.=26.108347, Alt.=148.197388m. Speed=21.204000m/h.</desc>
<speed>5.890000</speed>
</trkpt>
<trkpt lat="55.837421" lon="26.108234">
<ele>148.463013</ele>
<time>2010-07-17T13:53:28Z</time>
<desc>lat.=55.837421, lon.=26.108234, Alt.=148.463013m. Speed=22.104000m/h.</desc>
<speed>6.140000</speed>
</trkpt>
<trkpt lat="55.837418" lon="26.108139">
<ele>149.670044</ele>
<time>2010-07-17T13:53:29Z</time>
<desc>lat.=55.837418, lon.=26.108139, Alt.=149.670044m. Speed=21.096001m/h.</desc>
<speed>5.860000</speed>
</trkpt>
<trkpt lat="55.837418" lon="26.108044">
<ele>150.107544</ele>
<time>2010-07-17T13:53:30Z</time>
<desc>lat.=55.837418, lon.=26.108044, Alt.=150.107544m. Speed=22.284000m/h.</desc>
<speed>6.190000</speed>
</trkpt>
<trkpt lat="55.837410" lon="26.107943">
<ele>149.955200</ele>
<time>2010-07-17T13:53:31Z</time>
<desc>lat.=55.837410, lon.=26.107943, Alt.=149.955200m. Speed=21.600000m/h.</desc>
<speed>6.000000</speed>
</trkpt>
<trkpt lat="55.837402" lon="26.107841">
<ele>150.193481</ele>
<time>2010-07-17T13:53:32Z</time>
<desc>lat.=55.837402, lon.=26.107841, Alt.=150.193481m. Speed=22.500000m/h.</desc>
<speed>6.250000</speed>
</trkpt>
<trkpt lat="55.837399" lon="26.107742">
<ele>150.755981</ele>
<time>2010-07-17T13:53:33Z</time>
<desc>lat.=55.837399, lon.=26.107742, Alt.=150.755981m. Speed=22.823999m/h.</desc>
<speed>6.340000</speed>
</trkpt>
<trkpt lat="55.837391" lon="26.107641">
<ele>151.224731</ele>
<time>2010-07-17T13:53:34Z</time>
<desc>lat.=55.837391, lon.=26.107641, Alt.=151.224731m. Speed=22.104000m/h.</desc>
<speed>6.140000</speed>
</trkpt>
<trkpt lat="55.837383" lon="26.107548">
<ele>151.826294</ele>
<time>2010-07-17T13:53:35Z</time>
<desc>lat.=55.837383, lon.=26.107548, Alt.=151.826294m. Speed=20.375999m/h.</desc>
<speed>5.660000</speed>
</trkpt>
<trkpt lat="55.837376" lon="26.107450">
<ele>151.759888</ele>
<time>2010-07-17T13:53:36Z</time>
<desc>lat.=55.837376, lon.=26.107450, Alt.=151.759888m. Speed=20.304001m/h.</desc>
<speed>5.640000</speed>
</trkpt>
<trkpt lat="55.837368" lon="26.107357">
<ele>152.033325</ele>
<time>2010-07-17T13:53:37Z</time>
<desc>lat.=55.837368, lon.=26.107357, Alt.=152.033325m. Speed=20.160000m/h.</desc>
<speed>5.600000</speed>
</trkpt>
<trkpt lat="55.837364" lon="26.107267">
<ele>152.373169</ele>
<time>2010-07-17T13:53:38Z</time>
<desc>lat.=55.837364, lon.=26.107267, Alt.=152.373169m. Speed=20.160000m/h.</desc>
<speed>5.600000</speed>
</trkpt>
<trkpt lat="55.837345" lon="26.107174">
<ele>151.791138</ele>
<time>2010-07-17T13:53:39Z</time>
<desc>lat.=55.837345, lon.=26.107174, Alt.=151.791138m. Speed=21.059999m/h.</desc>
<speed>5.850000</speed>
</trkpt>
<trkpt lat="55.837322" lon="26.107075">
<ele>152.338013</ele>
<time>2010-07-17T13:53:40Z</time>
<desc>lat.=55.837322, lon.=26.107075, Alt.=152.338013m. Speed=20.124001m/h.</desc>
<speed>5.590000</speed>
</trkpt>
<trkpt lat="55.837303" lon="26.106983">
<ele>152.869263</ele>
<time>2010-07-17T13:53:41Z</time>
<desc>lat.=55.837303, lon.=26.106983, Alt.=152.869263m. Speed=21.132000m/h.</desc>
<speed>5.870000</speed>
</trkpt>
<trkpt lat="55.837292" lon="26.106890">
<ele>152.521606</ele>
<time>2010-07-17T13:53:42Z</time>
<desc>lat.=55.837292, lon.=26.106890, Alt.=152.521606m. Speed=19.584000m/h.</desc>
<speed>5.440000</speed>
</trkpt>
<trkpt lat="55.837280" lon="26.106796">
<ele>152.240356</ele>
<time>2010-07-17T13:53:43Z</time>
<desc>lat.=55.837280, lon.=26.106796, Alt.=152.240356m. Speed=21.204000m/h.</desc>
<speed>5.890000</speed>
</trkpt>
<trkpt lat="55.837276" lon="26.106707">
<ele>152.189575</ele>
<time>2010-07-17T13:53:44Z</time>
<desc>lat.=55.837276, lon.=26.106707, Alt.=152.189575m. Speed=21.563999m/h.</desc>
<speed>5.990000</speed>
</trkpt>
<trkpt lat="55.837276" lon="26.106607">
<ele>152.650513</ele>
<time>2010-07-17T13:53:45Z</time>
<desc>lat.=55.837276, lon.=26.106607, Alt.=152.650513m. Speed=21.420000m/h.</desc>
<speed>5.950000</speed>
</trkpt>
<trkpt lat="55.837269" lon="26.106516">
<ele>152.740356</ele>
<time>2010-07-17T13:53:46Z</time>
<desc>lat.=55.837269, lon.=26.106516, Alt.=152.740356m. Speed=20.483999m/h.</desc>
<speed>5.690000</speed>
</trkpt>
<trkpt lat="55.837257" lon="26.106428">
<ele>152.716919</ele>
<time>2010-07-17T13:53:47Z</time>
<desc>lat.=55.837257, lon.=26.106428, Alt.=152.716919m. Speed=19.691999m/h.</desc>
<speed>5.470000</speed>
</trkpt>
<trkpt lat="55.837250" lon="26.106346">
<ele>152.728638</ele>
<time>2010-07-17T13:53:48Z</time>
<desc>lat.=55.837250, lon.=26.106346, Alt.=152.728638m. Speed=18.936001m/h.</desc>
<speed>5.260000</speed>
</trkpt>
<trkpt lat="55.837242" lon="26.106264">
<ele>152.966919</ele>
<time>2010-07-17T13:53:49Z</time>
<desc>lat.=55.837242, lon.=26.106264, Alt.=152.966919m. Speed=17.856001m/h.</desc>
<speed>4.960000</speed>
</trkpt>
<trkpt lat="55.837238" lon="26.106186">
<ele>153.338013</ele>
<time>2010-07-17T13:53:50Z</time>
<desc>lat.=55.837238, lon.=26.106186, Alt.=153.338013m. Speed=17.351999m/h.</desc>
<speed>4.820000</speed>
</trkpt>
<trkpt lat="55.837234" lon="26.106110">
<ele>153.771606</ele>
<time>2010-07-17T13:53:51Z</time>
<desc>lat.=55.837234, lon.=26.106110, Alt.=153.771606m. Speed=17.532000m/h.</desc>
<speed>4.870000</speed>
</trkpt>
<trkpt lat="55.837231" lon="26.106031">
<ele>154.552856</ele>
<time>2010-07-17T13:53:52Z</time>
<desc>lat.=55.837231, lon.=26.106031, Alt.=154.552856m. Speed=17.316000m/h.</desc>
<speed>4.810000</speed>
</trkpt>
<trkpt lat="55.837223" lon="26.105955">
<ele>154.920044</ele>
<time>2010-07-17T13:53:53Z</time>
<desc>lat.=55.837223, lon.=26.105955, Alt.=154.920044m. Speed=16.992001m/h.</desc>
<speed>4.720000</speed>
</trkpt>
<trkpt lat="55.837215" lon="26.105881">
<ele>155.392700</ele>
<time>2010-07-17T13:53:54Z</time>
<desc>lat.=55.837215, lon.=26.105881, Alt.=155.392700m. Speed=17.280001m/h.</desc>
<speed>4.800000</speed>
</trkpt>
<trkpt lat="55.837204" lon="26.105804">
<ele>155.584106</ele>
<time>2010-07-17T13:53:55Z</time>
<desc>lat.=55.837204, lon.=26.105804, Alt.=155.584106m. Speed=17.892000m/h.</desc>
<speed>4.970000</speed>
</trkpt>
<trkpt lat="55.837200" lon="26.105730">
<ele>155.884888</ele>
<time>2010-07-17T13:53:56Z</time>
<desc>lat.=55.837200, lon.=26.105730, Alt.=155.884888m. Speed=15.984000m/h.</desc>
<speed>4.440000</speed>
</trkpt>
<trkpt lat="55.837193" lon="26.105658">
<ele>156.088013</ele>
<time>2010-07-17T13:53:57Z</time>
<desc>lat.=55.837193, lon.=26.105658, Alt.=156.088013m. Speed=17.280001m/h.</desc>
<speed>4.800000</speed>
</trkpt>
<trkpt lat="55.837185" lon="26.105577">
<ele>156.318481</ele>
<time>2010-07-17T13:53:58Z</time>
<desc>lat.=55.837185, lon.=26.105577, Alt.=156.318481m. Speed=18.252001m/h.</desc>
<speed>5.070000</speed>
</trkpt>
<trkpt lat="55.837177" lon="26.105495">
<ele>156.220825</ele>
<time>2010-07-17T13:53:59Z</time>
<desc>lat.=55.837177, lon.=26.105495, Alt.=156.220825m. Speed=17.676001m/h.</desc>
<speed>4.910000</speed>
</trkpt>
<trkpt lat="55.837170" lon="26.105419">
<ele>156.295044</ele>
<time>2010-07-17T13:54:00Z</time>
<desc>lat.=55.837170, lon.=26.105419, Alt.=156.295044m. Speed=18.252001m/h.</desc>
<speed>5.070000</speed>
</trkpt>
<trkpt lat="55.837170" lon="26.105343">
<ele>157.119263</ele>
<time>2010-07-17T13:54:01Z</time>
<desc>lat.=55.837170, lon.=26.105343, Alt.=157.119263m. Speed=17.820000m/h.</desc>
<speed>4.950000</speed>
</trkpt>
<trkpt lat="55.837158" lon="26.105267">
<ele>157.423950</ele>
<time>2010-07-17T13:54:02Z</time>
<desc>lat.=55.837158, lon.=26.105267, Alt.=157.423950m. Speed=18.035999m/h.</desc>
<speed>5.010000</speed>
</trkpt>
<trkpt lat="55.837151" lon="26.105190">
<ele>158.017700</ele>
<time>2010-07-17T13:54:03Z</time>
<desc>lat.=55.837151, lon.=26.105190, Alt.=158.017700m. Speed=16.524000m/h.</desc>
<speed>4.590000</speed>
</trkpt>
<trkpt lat="55.837143" lon="26.105116">
<ele>158.767700</ele>
<time>2010-07-17T13:54:04Z</time>
<desc>lat.=55.837143, lon.=26.105116, Alt.=158.767700m. Speed=18.072001m/h.</desc>
<speed>5.020000</speed>
</trkpt>
<trkpt lat="55.837139" lon="26.105038">
<ele>159.201294</ele>
<time>2010-07-17T13:54:05Z</time>
<desc>lat.=55.837139, lon.=26.105038, Alt.=159.201294m. Speed=18.108000m/h.</desc>
<speed>5.030000</speed>
</trkpt>
<trkpt lat="55.837132" lon="26.104961">
<ele>159.213013</ele>
<time>2010-07-17T13:54:06Z</time>
<desc>lat.=55.837132, lon.=26.104961, Alt.=159.213013m. Speed=18.468000m/h.</desc>
<speed>5.130000</speed>
</trkpt>
<trkpt lat="55.837128" lon="26.104877">
<ele>159.763794</ele>
<time>2010-07-17T13:54:07Z</time>
<desc>lat.=55.837128, lon.=26.104877, Alt.=159.763794m. Speed=18.431999m/h.</desc>
<speed>5.120000</speed>
</trkpt>
<trkpt lat="55.837124" lon="26.104799">
<ele>159.806763</ele>
<time>2010-07-17T13:54:08Z</time>
<desc>lat.=55.837124, lon.=26.104799, Alt.=159.806763m. Speed=17.712000m/h.</desc>
<speed>4.920000</speed>
</trkpt>
<trkpt lat="55.837112" lon="26.104729">
<ele>159.857544</ele>
<time>2010-07-17T13:54:09Z</time>
<desc>lat.=55.837112, lon.=26.104729, Alt.=159.857544m. Speed=16.452000m/h.</desc>
<speed>4.570000</speed>
</trkpt>
<trkpt lat="55.837105" lon="26.104660">
<ele>159.974731</ele>
<time>2010-07-17T13:54:10Z</time>
<desc>lat.=55.837105, lon.=26.104660, Alt.=159.974731m. Speed=15.588000m/h.</desc>
<speed>4.330000</speed>
</trkpt>
<trkpt lat="55.837101" lon="26.104595">
<ele>160.088013</ele>
<time>2010-07-17T13:54:11Z</time>
<desc>lat.=55.837101, lon.=26.104595, Alt.=160.088013m. Speed=14.400000m/h.</desc>
<speed>4.000000</speed>
</trkpt>
<trkpt lat="55.837097" lon="26.104536">
<ele>160.228638</ele>
<time>2010-07-17T13:54:12Z</time>
<desc>lat.=55.837097, lon.=26.104536, Alt.=160.228638m. Speed=13.572000m/h.</desc>
<speed>3.770000</speed>
</trkpt>
<trkpt lat="55.837093" lon="26.104479">
<ele>160.240356</ele>
<time>2010-07-17T13:54:13Z</time>
<desc>lat.=55.837093, lon.=26.104479, Alt.=160.240356m. Speed=12.456000m/h.</desc>
<speed>3.460000</speed>
</trkpt>
<trkpt lat="55.837090" lon="26.104416">
<ele>161.142700</ele>
<time>2010-07-17T13:54:14Z</time>
<desc>lat.=55.837090, lon.=26.104416, Alt.=161.142700m. Speed=13.716000m/h.</desc>
<speed>3.810000</speed>
</trkpt>
<trkpt lat="55.837086" lon="26.104361">
<ele>161.525513</ele>
<time>2010-07-17T13:54:15Z</time>
<desc>lat.=55.837086, lon.=26.104361, Alt.=161.525513m. Speed=12.960000m/h.</desc>
<speed>3.600000</speed>
</trkpt>
<trkpt lat="55.837074" lon="26.104303">
<ele>160.494263</ele>
<time>2010-07-17T13:54:16Z</time>
<desc>lat.=55.837074, lon.=26.104303, Alt.=160.494263m. Speed=12.960000m/h.</desc>
<speed>3.600000</speed>
</trkpt>
<trkpt lat="55.837051" lon="26.104248">
<ele>157.744263</ele>
<time>2010-07-17T13:54:17Z</time>
<desc>lat.=55.837051, lon.=26.104248, Alt.=157.744263m. Speed=12.096000m/h.</desc>
<speed>3.360000</speed>
</trkpt>
<trkpt lat="55.837044" lon="26.104191">
<ele>157.314575</ele>
<time>2010-07-17T13:54:18Z</time>
<desc>lat.=55.837044, lon.=26.104191, Alt.=157.314575m. Speed=11.628000m/h.</desc>
<speed>3.230000</speed>
</trkpt>
<trkpt lat="55.837025" lon="26.104136">
<ele>155.498169</ele>
<time>2010-07-17T13:54:19Z</time>
<desc>lat.=55.837025, lon.=26.104136, Alt.=155.498169m. Speed=10.872000m/h.</desc>
<speed>3.020000</speed>
</trkpt>
<trkpt lat="55.837021" lon="26.104088">
<ele>155.545044</ele>
<time>2010-07-17T13:54:20Z</time>
<desc>lat.=55.837021, lon.=26.104088, Alt.=155.545044m. Speed=11.052000m/h.</desc>
<speed>3.070000</speed>
</trkpt>
<trkpt lat="55.837017" lon="26.104038">
<ele>155.341919</ele>
<time>2010-07-17T13:54:21Z</time>
<desc>lat.=55.837017, lon.=26.104038, Alt.=155.341919m. Speed=11.304000m/h.</desc>
<speed>3.140000</speed>
</trkpt>
<trkpt lat="55.837006" lon="26.103989">
<ele>154.537231</ele>
<time>2010-07-17T13:54:22Z</time>
<desc>lat.=55.837006, lon.=26.103989, Alt.=154.537231m. Speed=11.520000m/h.</desc>
<speed>3.200000</speed>
</trkpt>
<trkpt lat="55.836998" lon="26.103935">
<ele>154.236450</ele>
<time>2010-07-17T13:54:23Z</time>
<desc>lat.=55.836998, lon.=26.103935, Alt.=154.236450m. Speed=13.104000m/h.</desc>
<speed>3.640000</speed>
</trkpt>
<trkpt lat="55.836990" lon="26.103874">
<ele>153.853638</ele>
<time>2010-07-17T13:54:24Z</time>
<desc>lat.=55.836990, lon.=26.103874, Alt.=153.853638m. Speed=14.472000m/h.</desc>
<speed>4.020000</speed>
</trkpt>
<trkpt lat="55.836979" lon="26.103806">
<ele>153.373169</ele>
<time>2010-07-17T13:54:25Z</time>
<desc>lat.=55.836979, lon.=26.103806, Alt.=153.373169m. Speed=15.696000m/h.</desc>
<speed>4.360000</speed>
</trkpt>
<trkpt lat="55.836971" lon="26.103737">
<ele>153.818481</ele>
<time>2010-07-17T13:54:26Z</time>
<desc>lat.=55.836971, lon.=26.103737, Alt.=153.818481m. Speed=16.091999m/h.</desc>
<speed>4.470000</speed>
</trkpt>
<trkpt lat="55.836967" lon="26.103666">
<ele>154.529419</ele>
<time>2010-07-17T13:54:27Z</time>
<desc>lat.=55.836967, lon.=26.103666, Alt.=154.529419m. Speed=16.308001m/h.</desc>
<speed>4.530000</speed>
</trkpt>
<trkpt lat="55.836964" lon="26.103592">
<ele>154.779419</ele>
<time>2010-07-17T13:54:28Z</time>
<desc>lat.=55.836964, lon.=26.103592, Alt.=154.779419m. Speed=18.000000m/h.</desc>
<speed>5.000000</speed>
</trkpt>
<trkpt lat="55.836956" lon="26.103512">
<ele>154.966919</ele>
<time>2010-07-17T13:54:29Z</time>
<desc>lat.=55.836956, lon.=26.103512, Alt.=154.966919m. Speed=18.252001m/h.</desc>
<speed>5.070000</speed>
</trkpt>
<trkpt lat="55.836948" lon="26.103432">
<ele>155.154419</ele>
<time>2010-07-17T13:54:30Z</time>
<desc>lat.=55.836948, lon.=26.103432, Alt.=155.154419m. Speed=18.396000m/h.</desc>
<speed>5.110000</speed>
</trkpt>
<trkpt lat="55.836937" lon="26.103350">
<ele>155.189575</ele>
<time>2010-07-17T13:54:31Z</time>
<desc>lat.=55.836937, lon.=26.103350, Alt.=155.189575m. Speed=18.143999m/h.</desc>
<speed>5.040000</speed>
</trkpt>
<trkpt lat="55.836929" lon="26.103264">
<ele>155.259888</ele>
<time>2010-07-17T13:54:32Z</time>
<desc>lat.=55.836929, lon.=26.103264, Alt.=155.259888m. Speed=18.252001m/h.</desc>
<speed>5.070000</speed>
</trkpt>
<trkpt lat="55.836926" lon="26.103186">
<ele>155.240356</ele>
<time>2010-07-17T13:54:33Z</time>
<desc>lat.=55.836926, lon.=26.103186, Alt.=155.240356m. Speed=18.216000m/h.</desc>
<speed>5.060000</speed>
</trkpt>
<trkpt lat="55.836918" lon="26.103107">
<ele>155.416138</ele>
<time>2010-07-17T13:54:34Z</time>
<desc>lat.=55.836918, lon.=26.103107, Alt.=155.416138m. Speed=17.604000m/h.</desc>
<speed>4.890000</speed>
</trkpt>
<trkpt lat="55.836910" lon="26.103037">
<ele>155.884888</ele>
<time>2010-07-17T13:54:35Z</time>
<desc>lat.=55.836910, lon.=26.103037, Alt.=155.884888m. Speed=16.884001m/h.</desc>
<speed>4.690000</speed>
</trkpt>
<trkpt lat="55.836906" lon="26.102961">
<ele>156.295044</ele>
<time>2010-07-17T13:54:36Z</time>
<desc>lat.=55.836906, lon.=26.102961, Alt.=156.295044m. Speed=16.596001m/h.</desc>
<speed>4.610000</speed>
</trkpt>
<trkpt lat="55.836903" lon="26.102888">
<ele>156.947388</ele>
<time>2010-07-17T13:54:37Z</time>
<desc>lat.=55.836903, lon.=26.102888, Alt.=156.947388m. Speed=16.812000m/h.</desc>
<speed>4.670000</speed>
</trkpt>
<trkpt lat="55.836887" lon="26.102789">
<ele>154.838013</ele>
<time>2010-07-17T13:54:38Z</time>
<desc>lat.=55.836887, lon.=26.102789, Alt.=154.838013m. Speed=18.792000m/h.</desc>
<speed>5.220000</speed>
</trkpt>
<trkpt lat="55.836876" lon="26.102705">
<ele>154.505981</ele>
<time>2010-07-17T13:54:39Z</time>
<desc>lat.=55.836876, lon.=26.102705, Alt.=154.505981m. Speed=18.431999m/h.</desc>
<speed>5.120000</speed>
</trkpt>
<trkpt lat="55.836864" lon="26.102621">
<ele>153.920044</ele>
<time>2010-07-17T13:54:40Z</time>
<desc>lat.=55.836864, lon.=26.102621, Alt.=153.920044m. Speed=18.900000m/h.</desc>
<speed>5.250000</speed>
</trkpt>
<trkpt lat="55.836857" lon="26.102539">
<ele>153.505981</ele>
<time>2010-07-17T13:54:41Z</time>
<desc>lat.=55.836857, lon.=26.102539, Alt.=153.505981m. Speed=18.000000m/h.</desc>
<speed>5.000000</speed>
</trkpt>
<trkpt lat="55.836838" lon="26.102436">
<ele>152.931763</ele>
<time>2010-07-17T13:54:42Z</time>
<desc>lat.=55.836838, lon.=26.102436, Alt.=152.931763m. Speed=20.268000m/h.</desc>
<speed>5.630000</speed>
</trkpt>
<trkpt lat="55.836830" lon="26.102343">
<ele>152.556763</ele>
<time>2010-07-17T13:54:43Z</time>
<desc>lat.=55.836830, lon.=26.102343, Alt.=152.556763m. Speed=21.096001m/h.</desc>
<speed>5.860000</speed>
</trkpt>
<trkpt lat="55.836815" lon="26.102245">
<ele>151.931763</ele>
<time>2010-07-17T13:54:44Z</time>
<desc>lat.=55.836815, lon.=26.102245, Alt.=151.931763m. Speed=21.024000m/h.</desc>
<speed>5.840000</speed>
</trkpt>
<trkpt lat="55.836803" lon="26.102152">
<ele>151.896606</ele>
<time>2010-07-17T13:54:45Z</time>
<desc>lat.=55.836803, lon.=26.102152, Alt.=151.896606m. Speed=21.059999m/h.</desc>
<speed>5.850000</speed>
</trkpt>
<trkpt lat="55.836792" lon="26.102060">
<ele>151.728638</ele>
<time>2010-07-17T13:54:46Z</time>
<desc>lat.=55.836792, lon.=26.102060, Alt.=151.728638m. Speed=21.312000m/h.</desc>
<speed>5.920000</speed>
</trkpt>
<trkpt lat="55.836781" lon="26.101971">
<ele>151.595825</ele>
<time>2010-07-17T13:54:47Z</time>
<desc>lat.=55.836781, lon.=26.101971, Alt.=151.595825m. Speed=20.988001m/h.</desc>
<speed>5.830000</speed>
</trkpt>
<trkpt lat="55.836765" lon="26.101881">
<ele>151.388794</ele>
<time>2010-07-17T13:54:48Z</time>
<desc>lat.=55.836765, lon.=26.101881, Alt.=151.388794m. Speed=20.591999m/h.</desc>
<speed>5.720000</speed>
</trkpt>
<trkpt lat="55.836754" lon="26.101795">
<ele>151.420044</ele>
<time>2010-07-17T13:54:49Z</time>
<desc>lat.=55.836754, lon.=26.101795, Alt.=151.420044m. Speed=20.520000m/h.</desc>
<speed>5.700000</speed>
</trkpt>
<trkpt lat="55.836742" lon="26.101717">
<ele>151.548950</ele>
<time>2010-07-17T13:54:50Z</time>
<desc>lat.=55.836742, lon.=26.101717, Alt.=151.548950m. Speed=20.124001m/h.</desc>
<speed>5.590000</speed>
</trkpt>
<trkpt lat="55.836727" lon="26.101629">
<ele>150.517700</ele>
<time>2010-07-17T13:54:51Z</time>
<desc>lat.=55.836727, lon.=26.101629, Alt.=150.517700m. Speed=20.412001m/h.</desc>
<speed>5.670000</speed>
</trkpt>
<trkpt lat="55.836716" lon="26.101542">
<ele>150.779419</ele>
<time>2010-07-17T13:54:52Z</time>
<desc>lat.=55.836716, lon.=26.101542, Alt.=150.779419m. Speed=19.080000m/h.</desc>
<speed>5.300000</speed>
</trkpt>
<trkpt lat="55.836708" lon="26.101458">
<ele>151.005981</ele>
<time>2010-07-17T13:54:53Z</time>
<desc>lat.=55.836708, lon.=26.101458, Alt.=151.005981m. Speed=19.476000m/h.</desc>
<speed>5.410000</speed>
</trkpt>
<trkpt lat="55.836700" lon="26.101374">
<ele>151.150513</ele>
<time>2010-07-17T13:54:54Z</time>
<desc>lat.=55.836700, lon.=26.101374, Alt.=151.150513m. Speed=18.540001m/h.</desc>
<speed>5.150000</speed>
</trkpt>
<trkpt lat="55.836697" lon="26.101307">
<ele>152.142700</ele>
<time>2010-07-17T13:54:55Z</time>
<desc>lat.=55.836697, lon.=26.101307, Alt.=152.142700m. Speed=16.379999m/h.</desc>
<speed>4.550000</speed>
</trkpt>
<trkpt lat="55.836689" lon="26.101240">
<ele>152.451294</ele>
<time>2010-07-17T13:54:56Z</time>
<desc>lat.=55.836689, lon.=26.101240, Alt.=152.451294m. Speed=15.264000m/h.</desc>
<speed>4.240000</speed>
</trkpt>
<trkpt lat="55.836681" lon="26.101175">
<ele>152.556763</ele>
<time>2010-07-17T13:54:57Z</time>
<desc>lat.=55.836681, lon.=26.101175, Alt.=152.556763m. Speed=15.300000m/h.</desc>
<speed>4.250000</speed>
</trkpt>
<trkpt lat="55.836666" lon="26.101110">
<ele>152.138794</ele>
<time>2010-07-17T13:54:58Z</time>
<desc>lat.=55.836666, lon.=26.101110, Alt.=152.138794m. Speed=14.904000m/h.</desc>
<speed>4.140000</speed>
</trkpt>
<trkpt lat="55.836662" lon="26.101051">
<ele>152.291138</ele>
<time>2010-07-17T13:54:59Z</time>
<desc>lat.=55.836662, lon.=26.101051, Alt.=152.291138m. Speed=14.868000m/h.</desc>
<speed>4.130000</speed>
</trkpt>
<trkpt lat="55.836651" lon="26.100990">
<ele>152.330200</ele>
<time>2010-07-17T13:55:00Z</time>
<desc>lat.=55.836651, lon.=26.100990, Alt.=152.330200m. Speed=14.004000m/h.</desc>
<speed>3.890000</speed>
</trkpt>
<trkpt lat="55.836643" lon="26.100925">
<ele>152.349731</ele>
<time>2010-07-17T13:55:01Z</time>
<desc>lat.=55.836643, lon.=26.100925, Alt.=152.349731m. Speed=14.616000m/h.</desc>
<speed>4.060000</speed>
</trkpt>
<trkpt lat="55.836639" lon="26.100859">
<ele>152.552856</ele>
<time>2010-07-17T13:55:02Z</time>
<desc>lat.=55.836639, lon.=26.100859, Alt.=152.552856m. Speed=14.508000m/h.</desc>
<speed>4.030000</speed>
</trkpt>
<trkpt lat="55.836636" lon="26.100792">
<ele>152.732544</ele>
<time>2010-07-17T13:55:03Z</time>
<desc>lat.=55.836636, lon.=26.100792, Alt.=152.732544m. Speed=16.416000m/h.</desc>
<speed>4.560000</speed>
</trkpt>
<trkpt lat="55.836632" lon="26.100718">
<ele>152.853638</ele>
<time>2010-07-17T13:55:04Z</time>
<desc>lat.=55.836632, lon.=26.100718, Alt.=152.853638m. Speed=16.524000m/h.</desc>
<speed>4.590000</speed>
</trkpt>
<trkpt lat="55.836620" lon="26.100643">
<ele>152.955200</ele>
<time>2010-07-17T13:55:05Z</time>
<desc>lat.=55.836620, lon.=26.100643, Alt.=152.955200m. Speed=17.208000m/h.</desc>
<speed>4.780000</speed>
</trkpt>
<trkpt lat="55.836609" lon="26.100569">
<ele>153.033325</ele>
<time>2010-07-17T13:55:06Z</time>
<desc>lat.=55.836609, lon.=26.100569, Alt.=153.033325m. Speed=17.100000m/h.</desc>
<speed>4.750000</speed>
</trkpt>
<trkpt lat="55.836601" lon="26.100500">
<ele>152.923950</ele>
<time>2010-07-17T13:55:07Z</time>
<desc>lat.=55.836601, lon.=26.100500, Alt.=152.923950m. Speed=14.076000m/h.</desc>
<speed>3.910000</speed>
</trkpt>
<trkpt lat="55.836594" lon="26.100428">
<ele>152.595825</ele>
<time>2010-07-17T13:55:08Z</time>
<desc>lat.=55.836594, lon.=26.100428, Alt.=152.595825m. Speed=16.920000m/h.</desc>
<speed>4.700000</speed>
</trkpt>
<trkpt lat="55.836582" lon="26.100355">
<ele>152.584106</ele>
<time>2010-07-17T13:55:09Z</time>
<desc>lat.=55.836582, lon.=26.100355, Alt.=152.584106m. Speed=16.524000m/h.</desc>
<speed>4.590000</speed>
</trkpt>
<trkpt lat="55.836571" lon="26.100273">
<ele>151.892700</ele>
<time>2010-07-17T13:55:10Z</time>
<desc>lat.=55.836571, lon.=26.100273, Alt.=151.892700m. Speed=16.379999m/h.</desc>
<speed>4.550000</speed>
</trkpt>
<trkpt lat="55.836559" lon="26.100204">
<ele>151.728638</ele>
<time>2010-07-17T13:55:11Z</time>
<desc>lat.=55.836559, lon.=26.100204, Alt.=151.728638m. Speed=15.264000m/h.</desc>
<speed>4.240000</speed>
</trkpt>
<trkpt lat="55.836552" lon="26.100136">
<ele>151.877075</ele>
<time>2010-07-17T13:55:12Z</time>
<desc>lat.=55.836552, lon.=26.100136, Alt.=151.877075m. Speed=15.552000m/h.</desc>
<speed>4.320000</speed>
</trkpt>
<trkpt lat="55.836544" lon="26.100058">
<ele>152.209106</ele>
<time>2010-07-17T13:55:13Z</time>
<desc>lat.=55.836544, lon.=26.100058, Alt.=152.209106m. Speed=18.323999m/h.</desc>
<speed>5.090000</speed>
</trkpt>
<trkpt lat="55.836536" lon="26.099977">
<ele>152.029419</ele>
<time>2010-07-17T13:55:14Z</time>
<desc>lat.=55.836536, lon.=26.099977, Alt.=152.029419m. Speed=18.108000m/h.</desc>
<speed>5.030000</speed>
</trkpt>
<trkpt lat="55.836529" lon="26.099895">
<ele>151.884888</ele>
<time>2010-07-17T13:55:15Z</time>
<desc>lat.=55.836529, lon.=26.099895, Alt.=151.884888m. Speed=18.756001m/h.</desc>
<speed>5.210000</speed>
</trkpt>
<trkpt lat="55.836521" lon="26.099812">
<ele>151.841919</ele>
<time>2010-07-17T13:55:16Z</time>
<desc>lat.=55.836521, lon.=26.099812, Alt.=151.841919m. Speed=19.007999m/h.</desc>
<speed>5.280000</speed>
</trkpt>
<trkpt lat="55.836510" lon="26.099718">
<ele>151.638794</ele>
<time>2010-07-17T13:55:17Z</time>
<desc>lat.=55.836510, lon.=26.099718, Alt.=151.638794m. Speed=19.511999m/h.</desc>
<speed>5.420000</speed>
</trkpt>
<trkpt lat="55.836498" lon="26.099627">
<ele>151.271606</ele>
<time>2010-07-17T13:55:18Z</time>
<desc>lat.=55.836498, lon.=26.099627, Alt.=151.271606m. Speed=19.872000m/h.</desc>
<speed>5.520000</speed>
</trkpt>
<trkpt lat="55.836483" lon="26.099537">
<ele>151.166138</ele>
<time>2010-07-17T13:55:19Z</time>
<desc>lat.=55.836483, lon.=26.099537, Alt.=151.166138m. Speed=19.908001m/h.</desc>
<speed>5.530000</speed>
</trkpt>
<trkpt lat="55.836472" lon="26.099438">
<ele>150.666138</ele>
<time>2010-07-17T13:55:20Z</time>
<desc>lat.=55.836472, lon.=26.099438, Alt.=150.666138m. Speed=20.916000m/h.</desc>
<speed>5.810000</speed>
</trkpt>
<trkpt lat="55.836460" lon="26.099340">
<ele>150.439575</ele>
<time>2010-07-17T13:55:21Z</time>
<desc>lat.=55.836460, lon.=26.099340, Alt.=150.439575m. Speed=21.563999m/h.</desc>
<speed>5.990000</speed>
</trkpt>
<trkpt lat="55.836445" lon="26.099243">
<ele>150.177856</ele>
<time>2010-07-17T13:55:22Z</time>
<desc>lat.=55.836445, lon.=26.099243, Alt.=150.177856m. Speed=22.535999m/h.</desc>
<speed>6.260000</speed>
</trkpt>
<trkpt lat="55.836433" lon="26.099140">
<ele>149.947388</ele>
<time>2010-07-17T13:55:23Z</time>
<desc>lat.=55.836433, lon.=26.099140, Alt.=149.947388m. Speed=23.184000m/h.</desc>
<speed>6.440000</speed>
</trkpt>
<trkpt lat="55.836418" lon="26.099031">
<ele>149.670044</ele>
<time>2010-07-17T13:55:24Z</time>
<desc>lat.=55.836418, lon.=26.099031, Alt.=149.670044m. Speed=23.724001m/h.</desc>
<speed>6.590000</speed>
</trkpt>
<trkpt lat="55.836407" lon="26.098923">
<ele>149.404419</ele>
<time>2010-07-17T13:55:25Z</time>
<desc>lat.=55.836407, lon.=26.098923, Alt.=149.404419m. Speed=24.336000m/h.</desc>
<speed>6.760000</speed>
</trkpt>
<trkpt lat="55.836399" lon="26.098812">
<ele>149.154419</ele>
<time>2010-07-17T13:55:26Z</time>
<desc>lat.=55.836399, lon.=26.098812, Alt.=149.154419m. Speed=25.091999m/h.</desc>
<speed>6.970000</speed>
</trkpt>
<trkpt lat="55.836388" lon="26.098701">
<ele>148.818481</ele>
<time>2010-07-17T13:55:27Z</time>
<desc>lat.=55.836388, lon.=26.098701, Alt.=148.818481m. Speed=25.236000m/h.</desc>
<speed>7.010000</speed>
</trkpt>
<trkpt lat="55.836376" lon="26.098587">
<ele>148.517700</ele>
<time>2010-07-17T13:55:28Z</time>
<desc>lat.=55.836376, lon.=26.098587, Alt.=148.517700m. Speed=25.632000m/h.</desc>
<speed>7.120000</speed>
</trkpt>
<trkpt lat="55.836365" lon="26.098473">
<ele>148.197388</ele>
<time>2010-07-17T13:55:29Z</time>
<desc>lat.=55.836365, lon.=26.098473, Alt.=148.197388m. Speed=26.424000m/h.</desc>
<speed>7.340000</speed>
</trkpt>
<trkpt lat="55.836353" lon="26.098354">
<ele>147.873169</ele>
<time>2010-07-17T13:55:30Z</time>
<desc>lat.=55.836353, lon.=26.098354, Alt.=147.873169m. Speed=26.208000m/h.</desc>
<speed>7.280000</speed>
</trkpt>
<trkpt lat="55.836342" lon="26.098238">
<ele>147.533325</ele>
<time>2010-07-17T13:55:31Z</time>
<desc>lat.=55.836342, lon.=26.098238, Alt.=147.533325m. Speed=26.712000m/h.</desc>
<speed>7.420000</speed>
</trkpt>
<trkpt lat="55.836330" lon="26.098122">
<ele>147.244263</ele>
<time>2010-07-17T13:55:32Z</time>
<desc>lat.=55.836330, lon.=26.098122, Alt.=147.244263m. Speed=26.856001m/h.</desc>
<speed>7.460000</speed>
</trkpt>
<trkpt lat="55.836315" lon="26.098003">
<ele>147.052856</ele>
<time>2010-07-17T13:55:33Z</time>
<desc>lat.=55.836315, lon.=26.098003, Alt.=147.052856m. Speed=27.468000m/h.</desc>
<speed>7.630000</speed>
</trkpt>
<trkpt lat="55.836304" lon="26.097891">
<ele>146.939575</ele>
<time>2010-07-17T13:55:34Z</time>
<desc>lat.=55.836304, lon.=26.097891, Alt.=146.939575m. Speed=26.892000m/h.</desc>
<speed>7.470000</speed>
</trkpt>
<trkpt lat="55.836285" lon="26.097775">
<ele>146.517700</ele>
<time>2010-07-17T13:55:35Z</time>
<desc>lat.=55.836285, lon.=26.097775, Alt.=146.517700m. Speed=26.208000m/h.</desc>
<speed>7.280000</speed>
</trkpt>
<trkpt lat="55.836273" lon="26.097662">
<ele>146.369263</ele>
<time>2010-07-17T13:55:36Z</time>
<desc>lat.=55.836273, lon.=26.097662, Alt.=146.369263m. Speed=28.691999m/h.</desc>
<speed>7.970000</speed>
</trkpt>
<trkpt lat="55.836258" lon="26.097544">
<ele>146.236450</ele>
<time>2010-07-17T13:55:37Z</time>
<desc>lat.=55.836258, lon.=26.097544, Alt.=146.236450m. Speed=26.028000m/h.</desc>
<speed>7.230000</speed>
</trkpt>
<trkpt lat="55.836246" lon="26.097433">
<ele>146.287231</ele>
<time>2010-07-17T13:55:38Z</time>
<desc>lat.=55.836246, lon.=26.097433, Alt.=146.287231m. Speed=25.236000m/h.</desc>
<speed>7.010000</speed>
</trkpt>
<trkpt lat="55.836235" lon="26.097322">
<ele>146.259888</ele>
<time>2010-07-17T13:55:39Z</time>
<desc>lat.=55.836235, lon.=26.097322, Alt.=146.259888m. Speed=24.912001m/h.</desc>
<speed>6.920000</speed>
</trkpt>
<trkpt lat="55.836224" lon="26.097221">
<ele>146.388794</ele>
<time>2010-07-17T13:55:40Z</time>
<desc>lat.=55.836224, lon.=26.097221, Alt.=146.388794m. Speed=23.760000m/h.</desc>
<speed>6.600000</speed>
</trkpt>
<trkpt lat="55.836216" lon="26.097122">
<ele>146.595825</ele>
<time>2010-07-17T13:55:41Z</time>
<desc>lat.=55.836216, lon.=26.097122, Alt.=146.595825m. Speed=22.608000m/h.</desc>
<speed>6.280000</speed>
</trkpt>
<trkpt lat="55.836208" lon="26.097019">
<ele>146.369263</ele>
<time>2010-07-17T13:55:42Z</time>
<desc>lat.=55.836208, lon.=26.097019, Alt.=146.369263m. Speed=22.247999m/h.</desc>
<speed>6.180000</speed>
</trkpt>
<trkpt lat="55.836201" lon="26.096918">
<ele>146.599731</ele>
<time>2010-07-17T13:55:43Z</time>
<desc>lat.=55.836201, lon.=26.096918, Alt.=146.599731m. Speed=22.572001m/h.</desc>
<speed>6.270000</speed>
</trkpt>
<trkpt lat="55.836193" lon="26.096827">
<ele>146.427856</ele>
<time>2010-07-17T13:55:44Z</time>
<desc>lat.=55.836193, lon.=26.096827, Alt.=146.427856m. Speed=19.224001m/h.</desc>
<speed>5.340000</speed>
</trkpt>
<trkpt lat="55.836182" lon="26.096731">
<ele>145.759888</ele>
<time>2010-07-17T13:55:45Z</time>
<desc>lat.=55.836182, lon.=26.096731, Alt.=145.759888m. Speed=22.680000m/h.</desc>
<speed>6.300000</speed>
</trkpt>
<trkpt lat="55.836166" lon="26.096624">
<ele>145.158325</ele>
<time>2010-07-17T13:55:46Z</time>
<desc>lat.=55.836166, lon.=26.096624, Alt.=145.158325m. Speed=23.148001m/h.</desc>
<speed>6.430000</speed>
</trkpt>
<trkpt lat="55.836155" lon="26.096521">
<ele>145.064575</ele>
<time>2010-07-17T13:55:47Z</time>
<desc>lat.=55.836155, lon.=26.096521, Alt.=145.064575m. Speed=22.788000m/h.</desc>
<speed>6.330000</speed>
</trkpt>
<trkpt lat="55.836147" lon="26.096422">
<ele>144.763794</ele>
<time>2010-07-17T13:55:48Z</time>
<desc>lat.=55.836147, lon.=26.096422, Alt.=144.763794m. Speed=23.507999m/h.</desc>
<speed>6.530000</speed>
</trkpt>
<trkpt lat="55.836140" lon="26.096329">
<ele>144.838013</ele>
<time>2010-07-17T13:55:49Z</time>
<desc>lat.=55.836140, lon.=26.096329, Alt.=144.838013m. Speed=22.212000m/h.</desc>
<speed>6.170000</speed>
</trkpt>
<trkpt lat="55.836124" lon="26.096233">
<ele>144.884888</ele>
<time>2010-07-17T13:55:50Z</time>
<desc>lat.=55.836124, lon.=26.096233, Alt.=144.884888m. Speed=21.851999m/h.</desc>
<speed>6.070000</speed>
</trkpt>
<trkpt lat="55.836113" lon="26.096140">
<ele>145.045044</ele>
<time>2010-07-17T13:55:51Z</time>
<desc>lat.=55.836113, lon.=26.096140, Alt.=145.045044m. Speed=20.664000m/h.</desc>
<speed>5.740000</speed>
</trkpt>
<trkpt lat="55.836102" lon="26.096052">
<ele>144.998169</ele>
<time>2010-07-17T13:55:52Z</time>
<desc>lat.=55.836102, lon.=26.096052, Alt.=144.998169m. Speed=19.440001m/h.</desc>
<speed>5.400000</speed>
</trkpt>
<trkpt lat="55.836090" lon="26.095968">
<ele>145.080200</ele>
<time>2010-07-17T13:55:53Z</time>
<desc>lat.=55.836090, lon.=26.095968, Alt.=145.080200m. Speed=18.719999m/h.</desc>
<speed>5.200000</speed>
</trkpt>
<trkpt lat="55.836082" lon="26.095890">
<ele>144.869263</ele>
<time>2010-07-17T13:55:54Z</time>
<desc>lat.=55.836082, lon.=26.095890, Alt.=144.869263m. Speed=17.927999m/h.</desc>
<speed>4.980000</speed>
</trkpt>
<trkpt lat="55.836079" lon="26.095814">
<ele>144.935669</ele>
<time>2010-07-17T13:55:55Z</time>
<desc>lat.=55.836079, lon.=26.095814, Alt.=144.935669m. Speed=17.028000m/h.</desc>
<speed>4.730000</speed>
</trkpt>
<trkpt lat="55.836071" lon="26.095741">
<ele>144.798950</ele>
<time>2010-07-17T13:55:56Z</time>
<desc>lat.=55.836071, lon.=26.095741, Alt.=144.798950m. Speed=15.840000m/h.</desc>
<speed>4.400000</speed>
</trkpt>
<trkpt lat="55.836063" lon="26.095676">
<ele>144.806763</ele>
<time>2010-07-17T13:55:57Z</time>
<desc>lat.=55.836063, lon.=26.095676, Alt.=144.806763m. Speed=14.544000m/h.</desc>
<speed>4.040000</speed>
</trkpt>
<trkpt lat="55.836056" lon="26.095612">
<ele>144.818481</ele>
<time>2010-07-17T13:55:58Z</time>
<desc>lat.=55.836056, lon.=26.095612, Alt.=144.818481m. Speed=14.436000m/h.</desc>
<speed>4.010000</speed>
</trkpt>
<trkpt lat="55.836048" lon="26.095552">
<ele>145.013794</ele>
<time>2010-07-17T13:55:59Z</time>
<desc>lat.=55.836048, lon.=26.095552, Alt.=145.013794m. Speed=14.040000m/h.</desc>
<speed>3.900000</speed>
</trkpt>
<trkpt lat="55.836048" lon="26.095495">
<ele>145.408325</ele>
<time>2010-07-17T13:56:00Z</time>
<desc>lat.=55.836048, lon.=26.095495, Alt.=145.408325m. Speed=13.068000m/h.</desc>
<speed>3.630000</speed>
</trkpt>
<trkpt lat="55.836040" lon="26.095438">
<ele>145.310669</ele>
<time>2010-07-17T13:56:01Z</time>
<desc>lat.=55.836040, lon.=26.095438, Alt.=145.310669m. Speed=13.572000m/h.</desc>
<speed>3.770000</speed>
</trkpt>
<trkpt lat="55.836033" lon="26.095379">
<ele>144.931763</ele>
<time>2010-07-17T13:56:02Z</time>
<desc>lat.=55.836033, lon.=26.095379, Alt.=144.931763m. Speed=14.472000m/h.</desc>
<speed>4.020000</speed>
</trkpt>
<trkpt lat="55.836025" lon="26.095314">
<ele>144.638794</ele>
<time>2010-07-17T13:56:03Z</time>
<desc>lat.=55.836025, lon.=26.095314, Alt.=144.638794m. Speed=14.148000m/h.</desc>
<speed>3.930000</speed>
</trkpt>
<trkpt lat="55.836018" lon="26.095253">
<ele>144.365356</ele>
<time>2010-07-17T13:56:04Z</time>
<desc>lat.=55.836018, lon.=26.095253, Alt.=144.365356m. Speed=14.436000m/h.</desc>
<speed>4.010000</speed>
</trkpt>
<trkpt lat="55.836018" lon="26.095184">
<ele>144.205200</ele>
<time>2010-07-17T13:56:05Z</time>
<desc>lat.=55.836018, lon.=26.095184, Alt.=144.205200m. Speed=14.832000m/h.</desc>
<speed>4.120000</speed>
</trkpt>
<trkpt lat="55.836018" lon="26.095114">
<ele>143.810669</ele>
<time>2010-07-17T13:56:06Z</time>
<desc>lat.=55.836018, lon.=26.095114, Alt.=143.810669m. Speed=16.344000m/h.</desc>
<speed>4.540000</speed>
</trkpt>
<trkpt lat="55.836014" lon="26.095041">
<ele>143.345825</ele>
<time>2010-07-17T13:56:07Z</time>
<desc>lat.=55.836014, lon.=26.095041, Alt.=143.345825m. Speed=15.984000m/h.</desc>
<speed>4.440000</speed>
</trkpt>
<trkpt lat="55.836018" lon="26.094969">
<ele>143.877075</ele>
<time>2010-07-17T13:56:08Z</time>
<desc>lat.=55.836018, lon.=26.094969, Alt.=143.877075m. Speed=16.416000m/h.</desc>
<speed>4.560000</speed>
</trkpt>
<trkpt lat="55.836018" lon="26.094900">
<ele>143.920044</ele>
<time>2010-07-17T13:56:09Z</time>
<desc>lat.=55.836018, lon.=26.094900, Alt.=143.920044m. Speed=15.048000m/h.</desc>
<speed>4.180000</speed>
</trkpt>
<trkpt lat="55.836021" lon="26.094833">
<ele>143.869263</ele>
<time>2010-07-17T13:56:10Z</time>
<desc>lat.=55.836021, lon.=26.094833, Alt.=143.869263m. Speed=14.688000m/h.</desc>
<speed>4.080000</speed>
</trkpt>
<trkpt lat="55.836025" lon="26.094772">
<ele>143.845825</ele>
<time>2010-07-17T13:56:11Z</time>
<desc>lat.=55.836025, lon.=26.094772, Alt.=143.845825m. Speed=14.328000m/h.</desc>
<speed>3.980000</speed>
</trkpt>
<trkpt lat="55.836029" lon="26.094713">
<ele>144.130981</ele>
<time>2010-07-17T13:56:12Z</time>
<desc>lat.=55.836029, lon.=26.094713, Alt.=144.130981m. Speed=13.824000m/h.</desc>
<speed>3.840000</speed>
</trkpt>
<trkpt lat="55.836037" lon="26.094650">
<ele>144.056763</ele>
<time>2010-07-17T13:56:13Z</time>
<desc>lat.=55.836037, lon.=26.094650, Alt.=144.056763m. Speed=15.012000m/h.</desc>
<speed>4.170000</speed>
</trkpt>
<trkpt lat="55.836052" lon="26.094589">
<ele>144.318481</ele>
<time>2010-07-17T13:56:14Z</time>
<desc>lat.=55.836052, lon.=26.094589, Alt.=144.318481m. Speed=15.660000m/h.</desc>
<speed>4.350000</speed>
</trkpt>
<trkpt lat="55.836060" lon="26.094524">
<ele>144.380981</ele>
<time>2010-07-17T13:56:15Z</time>
<desc>lat.=55.836060, lon.=26.094524, Alt.=144.380981m. Speed=15.732000m/h.</desc>
<speed>4.370000</speed>
</trkpt>
<trkpt lat="55.836071" lon="26.094463">
<ele>144.423950</ele>
<time>2010-07-17T13:56:16Z</time>
<desc>lat.=55.836071, lon.=26.094463, Alt.=144.423950m. Speed=14.544000m/h.</desc>
<speed>4.040000</speed>
</trkpt>
<trkpt lat="55.836082" lon="26.094404">
<ele>144.377075</ele>
<time>2010-07-17T13:56:17Z</time>
<desc>lat.=55.836082, lon.=26.094404, Alt.=144.377075m. Speed=14.040000m/h.</desc>
<speed>3.900000</speed>
</trkpt>
<trkpt lat="55.836094" lon="26.094351">
<ele>144.463013</ele>
<time>2010-07-17T13:56:18Z</time>
<desc>lat.=55.836094, lon.=26.094351, Alt.=144.463013m. Speed=13.680000m/h.</desc>
<speed>3.800000</speed>
</trkpt>
<trkpt lat="55.836109" lon="26.094296">
<ele>144.482544</ele>
<time>2010-07-17T13:56:19Z</time>
<desc>lat.=55.836109, lon.=26.094296, Alt.=144.482544m. Speed=13.680000m/h.</desc>
<speed>3.800000</speed>
</trkpt>
<trkpt lat="55.836124" lon="26.094244">
<ele>144.584106</ele>
<time>2010-07-17T13:56:20Z</time>
<desc>lat.=55.836124, lon.=26.094244, Alt.=144.584106m. Speed=12.780000m/h.</desc>
<speed>3.550000</speed>
</trkpt>
<trkpt lat="55.836136" lon="26.094198">
<ele>144.939575</ele>
<time>2010-07-17T13:56:21Z</time>
<desc>lat.=55.836136, lon.=26.094198, Alt.=144.939575m. Speed=11.664000m/h.</desc>
<speed>3.240000</speed>
</trkpt>
<trkpt lat="55.836147" lon="26.094152">
<ele>145.037231</ele>
<time>2010-07-17T13:56:22Z</time>
<desc>lat.=55.836147, lon.=26.094152, Alt.=145.037231m. Speed=11.160000m/h.</desc>
<speed>3.100000</speed>
</trkpt>
<trkpt lat="55.836159" lon="26.094110">
<ele>145.041138</ele>
<time>2010-07-17T13:56:23Z</time>
<desc>lat.=55.836159, lon.=26.094110, Alt.=145.041138m. Speed=10.296000m/h.</desc>
<speed>2.860000</speed>
</trkpt>
<trkpt lat="55.836174" lon="26.094072">
<ele>145.357544</ele>
<time>2010-07-17T13:56:24Z</time>
<desc>lat.=55.836174, lon.=26.094072, Alt.=145.357544m. Speed=10.764000m/h.</desc>
<speed>2.990000</speed>
</trkpt>
<trkpt lat="55.836189" lon="26.094036">
<ele>145.744263</ele>
<time>2010-07-17T13:56:25Z</time>
<desc>lat.=55.836189, lon.=26.094036, Alt.=145.744263m. Speed=10.656000m/h.</desc>
<speed>2.960000</speed>
</trkpt>
<trkpt lat="55.836208" lon="26.093998">
<ele>146.037231</ele>
<time>2010-07-17T13:56:26Z</time>
<desc>lat.=55.836208, lon.=26.093998, Alt.=146.037231m. Speed=10.944000m/h.</desc>
<speed>3.040000</speed>
</trkpt>
<trkpt lat="55.836224" lon="26.093964">
<ele>146.392700</ele>
<time>2010-07-17T13:56:27Z</time>
<desc>lat.=55.836224, lon.=26.093964, Alt.=146.392700m. Speed=10.656000m/h.</desc>
<speed>2.960000</speed>
</trkpt>
<trkpt lat="55.836239" lon="26.093914">
<ele>146.123169</ele>
<time>2010-07-17T13:56:28Z</time>
<desc>lat.=55.836239, lon.=26.093914, Alt.=146.123169m. Speed=11.196000m/h.</desc>
<speed>3.110000</speed>
</trkpt>
<trkpt lat="55.836250" lon="26.093859">
<ele>145.994263</ele>
<time>2010-07-17T13:56:29Z</time>
<desc>lat.=55.836250, lon.=26.093859, Alt.=145.994263m. Speed=10.476000m/h.</desc>
<speed>2.910000</speed>
</trkpt>
<trkpt lat="55.836262" lon="26.093817">
<ele>145.970825</ele>
<time>2010-07-17T13:56:30Z</time>
<desc>lat.=55.836262, lon.=26.093817, Alt.=145.970825m. Speed=10.116000m/h.</desc>
<speed>2.810000</speed>
</trkpt>
<trkpt lat="55.836281" lon="26.093771">
<ele>146.408325</ele>
<time>2010-07-17T13:56:31Z</time>
<desc>lat.=55.836281, lon.=26.093771, Alt.=146.408325m. Speed=10.656000m/h.</desc>
<speed>2.960000</speed>
</trkpt>
<trkpt lat="55.836288" lon="26.093725">
<ele>146.377075</ele>
<time>2010-07-17T13:56:32Z</time>
<desc>lat.=55.836288, lon.=26.093725, Alt.=146.377075m. Speed=10.476000m/h.</desc>
<speed>2.910000</speed>
</trkpt>
<trkpt lat="55.836308" lon="26.093678">
<ele>146.529419</ele>
<time>2010-07-17T13:56:33Z</time>
<desc>lat.=55.836308, lon.=26.093678, Alt.=146.529419m. Speed=12.708000m/h.</desc>
<speed>3.530000</speed>
</trkpt>
<trkpt lat="55.836327" lon="26.093634">
<ele>147.045044</ele>
<time>2010-07-17T13:56:34Z</time>
<desc>lat.=55.836327, lon.=26.093634, Alt.=147.045044m. Speed=12.456000m/h.</desc>
<speed>3.460000</speed>
</trkpt>
<trkpt lat="55.836349" lon="26.093588">
<ele>147.927856</ele>
<time>2010-07-17T13:56:35Z</time>
<desc>lat.=55.836349, lon.=26.093588, Alt.=147.927856m. Speed=14.220000m/h.</desc>
<speed>3.950000</speed>
</trkpt>
<trkpt lat="55.836372" lon="26.093529">
<ele>148.060669</ele>
<time>2010-07-17T13:56:36Z</time>
<desc>lat.=55.836372, lon.=26.093529, Alt.=148.060669m. Speed=15.264000m/h.</desc>
<speed>4.240000</speed>
</trkpt>
<trkpt lat="55.836395" lon="26.093472">
<ele>148.955200</ele>
<time>2010-07-17T13:56:37Z</time>
<desc>lat.=55.836395, lon.=26.093472, Alt.=148.955200m. Speed=15.696000m/h.</desc>
<speed>4.360000</speed>
</trkpt>
<trkpt lat="55.836418" lon="26.093422">
<ele>150.896606</ele>
<time>2010-07-17T13:56:38Z</time>
<desc>lat.=55.836418, lon.=26.093422, Alt.=150.896606m. Speed=13.860000m/h.</desc>
<speed>3.850000</speed>
</trkpt>
<trkpt lat="55.836433" lon="26.093365">
<ele>151.029419</ele>
<time>2010-07-17T13:56:39Z</time>
<desc>lat.=55.836433, lon.=26.093365, Alt.=151.029419m. Speed=15.588000m/h.</desc>
<speed>4.330000</speed>
</trkpt>
<trkpt lat="55.836456" lon="26.093311">
<ele>151.673950</ele>
<time>2010-07-17T13:56:40Z</time>
<desc>lat.=55.836456, lon.=26.093311, Alt.=151.673950m. Speed=15.516000m/h.</desc>
<speed>4.310000</speed>
</trkpt>
<trkpt lat="55.836479" lon="26.093254">
<ele>151.947388</ele>
<time>2010-07-17T13:56:41Z</time>
<desc>lat.=55.836479, lon.=26.093254, Alt.=151.947388m. Speed=15.336000m/h.</desc>
<speed>4.260000</speed>
</trkpt>
<trkpt lat="55.836506" lon="26.093203">
<ele>152.404419</ele>
<time>2010-07-17T13:56:42Z</time>
<desc>lat.=55.836506, lon.=26.093203, Alt.=152.404419m. Speed=15.372000m/h.</desc>
<speed>4.270000</speed>
</trkpt>
<trkpt lat="55.836533" lon="26.093145">
<ele>153.127075</ele>
<time>2010-07-17T13:56:43Z</time>
<desc>lat.=55.836533, lon.=26.093145, Alt.=153.127075m. Speed=14.616000m/h.</desc>
<speed>4.060000</speed>
</trkpt>
<trkpt lat="55.836563" lon="26.093088">
<ele>153.412231</ele>
<time>2010-07-17T13:56:44Z</time>
<desc>lat.=55.836563, lon.=26.093088, Alt.=153.412231m. Speed=15.948000m/h.</desc>
<speed>4.430000</speed>
</trkpt>
<trkpt lat="55.836597" lon="26.093027">
<ele>153.576294</ele>
<time>2010-07-17T13:56:45Z</time>
<desc>lat.=55.836597, lon.=26.093027, Alt.=153.576294m. Speed=17.784000m/h.</desc>
<speed>4.940000</speed>
</trkpt>
<trkpt lat="55.836624" lon="26.092953">
<ele>153.310669</ele>
<time>2010-07-17T13:56:46Z</time>
<desc>lat.=55.836624, lon.=26.092953, Alt.=153.310669m. Speed=16.884001m/h.</desc>
<speed>4.690000</speed>
</trkpt>
<trkpt lat="55.836647" lon="26.092890">
<ele>153.482544</ele>
<time>2010-07-17T13:56:47Z</time>
<desc>lat.=55.836647, lon.=26.092890, Alt.=153.482544m. Speed=15.372000m/h.</desc>
<speed>4.270000</speed>
</trkpt>
<trkpt lat="55.836674" lon="26.092852">
<ele>155.216919</ele>
<time>2010-07-17T13:56:48Z</time>
<desc>lat.=55.836674, lon.=26.092852, Alt.=155.216919m. Speed=11.952000m/h.</desc>
<speed>3.320000</speed>
</trkpt>
<trkpt lat="55.836697" lon="26.092802">
<ele>155.392700</ele>
<time>2010-07-17T13:56:49Z</time>
<desc>lat.=55.836697, lon.=26.092802, Alt.=155.392700m. Speed=13.104000m/h.</desc>
<speed>3.640000</speed>
</trkpt>
<trkpt lat="55.836720" lon="26.092747">
<ele>155.474731</ele>
<time>2010-07-17T13:56:50Z</time>
<desc>lat.=55.836720, lon.=26.092747, Alt.=155.474731m. Speed=14.076000m/h.</desc>
<speed>3.910000</speed>
</trkpt>
<trkpt lat="55.836746" lon="26.092697">
<ele>156.205200</ele>
<time>2010-07-17T13:56:51Z</time>
<desc>lat.=55.836746, lon.=26.092697, Alt.=156.205200m. Speed=12.852000m/h.</desc>
<speed>3.570000</speed>
</trkpt>
<trkpt lat="55.836777" lon="26.092621">
<ele>154.685669</ele>
<time>2010-07-17T13:56:52Z</time>
<desc>lat.=55.836777, lon.=26.092621, Alt.=154.685669m. Speed=16.308001m/h.</desc>
<speed>4.530000</speed>
</trkpt>
<trkpt lat="55.836815" lon="26.092562">
<ele>154.845825</ele>
<time>2010-07-17T13:56:53Z</time>
<desc>lat.=55.836815, lon.=26.092562, Alt.=154.845825m. Speed=17.820000m/h.</desc>
<speed>4.950000</speed>
</trkpt>
<trkpt lat="55.836842" lon="26.092506">
<ele>154.869263</ele>
<time>2010-07-17T13:56:54Z</time>
<desc>lat.=55.836842, lon.=26.092506, Alt.=154.869263m. Speed=15.984000m/h.</desc>
<speed>4.440000</speed>
</trkpt>
<trkpt lat="55.836876" lon="26.092440">
<ele>154.580200</ele>
<time>2010-07-17T13:56:55Z</time>
<desc>lat.=55.836876, lon.=26.092440, Alt.=154.580200m. Speed=18.143999m/h.</desc>
<speed>5.040000</speed>
</trkpt>
<trkpt lat="55.836918" lon="26.092367">
<ele>154.326294</ele>
<time>2010-07-17T13:56:56Z</time>
<desc>lat.=55.836918, lon.=26.092367, Alt.=154.326294m. Speed=17.280001m/h.</desc>
<speed>4.800000</speed>
</trkpt>
<trkpt lat="55.836945" lon="26.092304">
<ele>154.576294</ele>
<time>2010-07-17T13:56:57Z</time>
<desc>lat.=55.836945, lon.=26.092304, Alt.=154.576294m. Speed=16.091999m/h.</desc>
<speed>4.470000</speed>
</trkpt>
<trkpt lat="55.836971" lon="26.092237">
<ele>154.201294</ele>
<time>2010-07-17T13:56:58Z</time>
<desc>lat.=55.836971, lon.=26.092237, Alt.=154.201294m. Speed=15.984000m/h.</desc>
<speed>4.440000</speed>
</trkpt>
<trkpt lat="55.836994" lon="26.092167">
<ele>151.896606</ele>
<time>2010-07-17T13:56:59Z</time>
<desc>lat.=55.836994, lon.=26.092167, Alt.=151.896606m. Speed=16.920000m/h.</desc>
<speed>4.700000</speed>
</trkpt>
<trkpt lat="55.837021" lon="26.092110">
<ele>151.752075</ele>
<time>2010-07-17T13:57:00Z</time>
<desc>lat.=55.837021, lon.=26.092110, Alt.=151.752075m. Speed=16.559999m/h.</desc>
<speed>4.600000</speed>
</trkpt>
<trkpt lat="55.837051" lon="26.092052">
<ele>151.912231</ele>
<time>2010-07-17T13:57:01Z</time>
<desc>lat.=55.837051, lon.=26.092052, Alt.=151.912231m. Speed=14.472000m/h.</desc>
<speed>4.020000</speed>
</trkpt>
<trkpt lat="55.837078" lon="26.092007">
<ele>151.923950</ele>
<time>2010-07-17T13:57:02Z</time>
<desc>lat.=55.837078, lon.=26.092007, Alt.=151.923950m. Speed=10.440000m/h.</desc>
<speed>2.900000</speed>
</trkpt>
<trkpt lat="55.837105" lon="26.091978">
<ele>152.459106</ele>
<time>2010-07-17T13:57:03Z</time>
<desc>lat.=55.837105, lon.=26.091978, Alt.=152.459106m. Speed=8.208000m/h.</desc>
<speed>2.280000</speed>
</trkpt>
<trkpt lat="55.837128" lon="26.091934">
<ele>152.365356</ele>
<time>2010-07-17T13:57:04Z</time>
<desc>lat.=55.837128, lon.=26.091934, Alt.=152.365356m. Speed=7.596000m/h.</desc>
<speed>2.110000</speed>
</trkpt>
<trkpt lat="55.837139" lon="26.091921">
<ele>152.384888</ele>
<time>2010-07-17T13:57:05Z</time>
<desc>lat.=55.837139, lon.=26.091921, Alt.=152.384888m. Speed=5.040000m/h.</desc>
<speed>1.400000</speed>
</trkpt>
<trkpt lat="55.837151" lon="26.091919">
<ele>152.748169</ele>
<time>2010-07-17T13:57:06Z</time>
<desc>lat.=55.837151, lon.=26.091919, Alt.=152.748169m. Speed=0.396000m/h.</desc>
<speed>0.110000</speed>
</trkpt>
<trkpt lat="55.837154" lon="26.091915">
<ele>152.427856</ele>
<time>2010-07-17T13:57:07Z</time>
<desc>lat.=55.837154, lon.=26.091915, Alt.=152.427856m. Speed=0.288000m/h.</desc>
<speed>0.080000</speed>
</trkpt>
<trkpt lat="55.837170" lon="26.091909">
<ele>152.509888</ele>
<time>2010-07-17T13:57:08Z</time>
<desc>lat.=55.837170, lon.=26.091909, Alt.=152.509888m. Speed=0.504000m/h.</desc>
<speed>0.140000</speed>
</trkpt>
<trkpt lat="55.837181" lon="26.091911">
<ele>152.728638</ele>
<time>2010-07-17T13:57:09Z</time>
<desc>lat.=55.837181, lon.=26.091911, Alt.=152.728638m. Speed=0.108000m/h.</desc>
<speed>0.030000</speed>
</trkpt>
<trkpt lat="55.837181" lon="26.091911">
<ele>152.732544</ele>
<time>2010-07-17T13:57:10Z</time>
<desc>lat.=55.837181, lon.=26.091911, Alt.=152.732544m. Speed=0.000000m/h.</desc>
<speed>0.000000</speed>
</trkpt>
<trkpt lat="55.837181" lon="26.091911">
<ele>152.740356</ele>
<time>2010-07-17T13:57:11Z</time>
<desc>lat.=55.837181, lon.=26.091911, Alt.=152.740356m. Speed=0.000000m/h.</desc>
<speed>0.000000</speed>
</trkpt>
<trkpt lat="55.837181" lon="26.091911">
<ele>152.740356</ele>
<time>2010-07-17T13:57:12Z</time>
<desc>lat.=55.837181, lon.=26.091911, Alt.=152.740356m. Speed=0.072000m/h.</desc>
<speed>0.020000</speed>
</trkpt>
<trkpt lat="55.837181" lon="26.091911">
<ele>152.748169</ele>
<time>2010-07-17T13:57:13Z</time>
<desc>lat.=55.837181, lon.=26.091911, Alt.=152.748169m. Speed=0.036000m/h.</desc>
<speed>0.010000</speed>
</trkpt>
<trkpt lat="55.837181" lon="26.091911">
<ele>152.759888</ele>
<time>2010-07-17T13:57:14Z</time>
<desc>lat.=55.837181, lon.=26.091911, Alt.=152.759888m. Speed=0.036000m/h.</desc>
<speed>0.010000</speed>
</trkpt>
<trkpt lat="55.837181" lon="26.091911">
<ele>152.763794</ele>
<time>2010-07-17T13:57:15Z</time>
<desc>lat.=55.837181, lon.=26.091911, Alt.=152.763794m. Speed=0.036000m/h.</desc>
<speed>0.010000</speed>
</trkpt>
<trkpt lat="55.837181" lon="26.091911">
<ele>152.759888</ele>
<time>2010-07-17T13:57:16Z</time>
<desc>lat.=55.837181, lon.=26.091911, Alt.=152.759888m. Speed=0.036000m/h.</desc>
<speed>0.010000</speed>
</trkpt>
<trkpt lat="55.837181" lon="26.091911">
<ele>152.767700</ele>
<time>2010-07-17T13:57:17Z</time>
<desc>lat.=55.837181, lon.=26.091911, Alt.=152.767700m. Speed=0.000000m/h.</desc>
<speed>0.000000</speed>
</trkpt>
<trkpt lat="55.837181" lon="26.091911">
<ele>152.783325</ele>
<time>2010-07-17T13:57:18Z</time>
<desc>lat.=55.837181, lon.=26.091911, Alt.=152.783325m. Speed=0.108000m/h.</desc>
<speed>0.030000</speed>
</trkpt>
<trkpt lat="55.837181" lon="26.091913">
<ele>152.787231</ele>
<time>2010-07-17T13:57:19Z</time>
<desc>lat.=55.837181, lon.=26.091913, Alt.=152.787231m. Speed=0.360000m/h.</desc>
<speed>0.100000</speed>
</trkpt>
<trkpt lat="55.837181" lon="26.091913">
<ele>152.795044</ele>
<time>2010-07-17T13:57:20Z</time>
<desc>lat.=55.837181, lon.=26.091913, Alt.=152.795044m. Speed=0.108000m/h.</desc>
<speed>0.030000</speed>
</trkpt>
<trkpt lat="55.837181" lon="26.091913">
<ele>152.795044</ele>
<time>2010-07-17T13:57:21Z</time>
<desc>lat.=55.837181, lon.=26.091913, Alt.=152.795044m. Speed=1.368000m/h.</desc>
<speed>0.380000</speed>
</trkpt>
<trkpt lat="55.837185" lon="26.091919">
<ele>152.798950</ele>
<time>2010-07-17T13:57:22Z</time>
<desc>lat.=55.837185, lon.=26.091919, Alt.=152.798950m. Speed=3.096000m/h.</desc>
<speed>0.860000</speed>
</trkpt>
<trkpt lat="55.837189" lon="26.091928">
<ele>152.802856</ele>
<time>2010-07-17T13:57:23Z</time>
<desc>lat.=55.837189, lon.=26.091928, Alt.=152.802856m. Speed=3.276000m/h.</desc>
<speed>0.910000</speed>
</trkpt>
<trkpt lat="55.837193" lon="26.091942">
<ele>152.798950</ele>
<time>2010-07-17T13:57:24Z</time>
<desc>lat.=55.837193, lon.=26.091942, Alt.=152.798950m. Speed=6.840000m/h.</desc>
<speed>1.900000</speed>
</trkpt>
<trkpt lat="55.837204" lon="26.091976">
<ele>152.877075</ele>
<time>2010-07-17T13:57:25Z</time>
<desc>lat.=55.837204, lon.=26.091976, Alt.=152.877075m. Speed=8.028000m/h.</desc>
<speed>2.230000</speed>
</trkpt>
<trkpt lat="55.837212" lon="26.092009">
<ele>152.865356</ele>
<time>2010-07-17T13:57:26Z</time>
<desc>lat.=55.837212, lon.=26.092009, Alt.=152.865356m. Speed=9.036000m/h.</desc>
<speed>2.510000</speed>
</trkpt>
<trkpt lat="55.837227" lon="26.092031">
<ele>152.892700</ele>
<time>2010-07-17T13:57:27Z</time>
<desc>lat.=55.837227, lon.=26.092031, Alt.=152.892700m. Speed=7.200000m/h.</desc>
<speed>2.000000</speed>
</trkpt>
<trkpt lat="55.837246" lon="26.092054">
<ele>152.513794</ele>
<time>2010-07-17T13:57:28Z</time>
<desc>lat.=55.837246, lon.=26.092054, Alt.=152.513794m. Speed=7.164000m/h.</desc>
<speed>1.990000</speed>
</trkpt>
<trkpt lat="55.837257" lon="26.092087">
<ele>152.580200</ele>
<time>2010-07-17T13:57:29Z</time>
<desc>lat.=55.837257, lon.=26.092087, Alt.=152.580200m. Speed=8.172000m/h.</desc>
<speed>2.270000</speed>
</trkpt>
<trkpt lat="55.837265" lon="26.092106">
<ele>152.595825</ele>
<time>2010-07-17T13:57:30Z</time>
<desc>lat.=55.837265, lon.=26.092106, Alt.=152.595825m. Speed=2.808000m/h.</desc>
<speed>0.780000</speed>
</trkpt>
<trkpt lat="55.837269" lon="26.092123">
<ele>152.420044</ele>
<time>2010-07-17T13:57:31Z</time>
<desc>lat.=55.837269, lon.=26.092123, Alt.=152.420044m. Speed=3.924000m/h.</desc>
<speed>1.090000</speed>
</trkpt>
<trkpt lat="55.837276" lon="26.092150">
<ele>152.435669</ele>
<time>2010-07-17T13:57:32Z</time>
<desc>lat.=55.837276, lon.=26.092150, Alt.=152.435669m. Speed=7.200000m/h.</desc>
<speed>2.000000</speed>
</trkpt>
<trkpt lat="55.837288" lon="26.092197">
<ele>152.384888</ele>
<time>2010-07-17T13:57:33Z</time>
<desc>lat.=55.837288, lon.=26.092197, Alt.=152.384888m. Speed=7.992000m/h.</desc>
<speed>2.220000</speed>
</trkpt>
<trkpt lat="55.837299" lon="26.092236">
<ele>152.279419</ele>
<time>2010-07-17T13:57:34Z</time>
<desc>lat.=55.837299, lon.=26.092236, Alt.=152.279419m. Speed=9.324000m/h.</desc>
<speed>2.590000</speed>
</trkpt>
<trkpt lat="55.837311" lon="26.092270">
<ele>152.330200</ele>
<time>2010-07-17T13:57:35Z</time>
<desc>lat.=55.837311, lon.=26.092270, Alt.=152.330200m. Speed=8.388000m/h.</desc>
<speed>2.330000</speed>
</trkpt>
<trkpt lat="55.837322" lon="26.092316">
<ele>152.287231</ele>
<time>2010-07-17T13:57:36Z</time>
<desc>lat.=55.837322, lon.=26.092316, Alt.=152.287231m. Speed=10.692000m/h.</desc>
<speed>2.970000</speed>
</trkpt>
<trkpt lat="55.837337" lon="26.092352">
<ele>152.029419</ele>
<time>2010-07-17T13:57:37Z</time>
<desc>lat.=55.837337, lon.=26.092352, Alt.=152.029419m. Speed=10.044000m/h.</desc>
<speed>2.790000</speed>
</trkpt>
<trkpt lat="55.837345" lon="26.092375">
<ele>150.974731</ele>
<time>2010-07-17T13:57:38Z</time>
<desc>lat.=55.837345, lon.=26.092375, Alt.=150.974731m. Speed=8.280000m/h.</desc>
<speed>2.300000</speed>
</trkpt>
<trkpt lat="55.837360" lon="26.092409">
<ele>150.318481</ele>
<time>2010-07-17T13:57:39Z</time>
<desc>lat.=55.837360, lon.=26.092409, Alt.=150.318481m. Speed=9.900000m/h.</desc>
<speed>2.750000</speed>
</trkpt>
<trkpt lat="55.837368" lon="26.092443">
<ele>149.900513</ele>
<time>2010-07-17T13:57:40Z</time>
<desc>lat.=55.837368, lon.=26.092443, Alt.=149.900513m. Speed=9.792000m/h.</desc>
<speed>2.720000</speed>
</trkpt>
<trkpt lat="55.837376" lon="26.092478">
<ele>149.107544</ele>
<time>2010-07-17T13:57:41Z</time>
<desc>lat.=55.837376, lon.=26.092478, Alt.=149.107544m. Speed=8.280000m/h.</desc>
<speed>2.300000</speed>
</trkpt>
<trkpt lat="55.837387" lon="26.092514">
<ele>148.193481</ele>
<time>2010-07-17T13:57:42Z</time>
<desc>lat.=55.837387, lon.=26.092514, Alt.=148.193481m. Speed=6.840000m/h.</desc>
<speed>1.900000</speed>
</trkpt>
<trkpt lat="55.837402" lon="26.092543">
<ele>147.705200</ele>
<time>2010-07-17T13:57:43Z</time>
<desc>lat.=55.837402, lon.=26.092543, Alt.=147.705200m. Speed=8.568000m/h.</desc>
<speed>2.380000</speed>
</trkpt>
<trkpt lat="55.837414" lon="26.092571">
<ele>147.060669</ele>
<time>2010-07-17T13:57:44Z</time>
<desc>lat.=55.837414, lon.=26.092571, Alt.=147.060669m. Speed=7.092000m/h.</desc>
<speed>1.970000</speed>
</trkpt>
<trkpt lat="55.837425" lon="26.092604">
<ele>145.728638</ele>
<time>2010-07-17T13:57:45Z</time>
<desc>lat.=55.837425, lon.=26.092604, Alt.=145.728638m. Speed=7.200000m/h.</desc>
<speed>2.000000</speed>
</trkpt>
<trkpt lat="55.837440" lon="26.092644">
<ele>145.463013</ele>
<time>2010-07-17T13:57:46Z</time>
<desc>lat.=55.837440, lon.=26.092644, Alt.=145.463013m. Speed=8.208000m/h.</desc>
<speed>2.280000</speed>
</trkpt>
<trkpt lat="55.837456" lon="26.092669">
<ele>144.763794</ele>
<time>2010-07-17T13:57:47Z</time>
<desc>lat.=55.837456, lon.=26.092669, Alt.=144.763794m. Speed=7.092000m/h.</desc>
<speed>1.970000</speed>
</trkpt>
<trkpt lat="55.837475" lon="26.092695">
<ele>144.463013</ele>
<time>2010-07-17T13:57:48Z</time>
<desc>lat.=55.837475, lon.=26.092695, Alt.=144.463013m. Speed=6.228000m/h.</desc>
<speed>1.730000</speed>
</trkpt>
<trkpt lat="55.837490" lon="26.092716">
<ele>144.088013</ele>
<time>2010-07-17T13:57:49Z</time>
<desc>lat.=55.837490, lon.=26.092716, Alt.=144.088013m. Speed=3.996000m/h.</desc>
<speed>1.110000</speed>
</trkpt>
<trkpt lat="55.837505" lon="26.092730">
<ele>142.775513</ele>
<time>2010-07-17T13:57:50Z</time>
<desc>lat.=55.837505, lon.=26.092730, Alt.=142.775513m. Speed=2.952000m/h.</desc>
<speed>0.820000</speed>
</trkpt>
<trkpt lat="55.837521" lon="26.092743">
<ele>141.591919</ele>
<time>2010-07-17T13:57:51Z</time>
<desc>lat.=55.837521, lon.=26.092743, Alt.=141.591919m. Speed=1.332000m/h.</desc>
<speed>0.370000</speed>
</trkpt>
<trkpt lat="55.837521" lon="26.092749">
<ele>141.447388</ele>
<time>2010-07-17T13:57:52Z</time>
<desc>lat.=55.837521, lon.=26.092749, Alt.=141.447388m. Speed=0.720000m/h.</desc>
<speed>0.200000</speed>
</trkpt>
<trkpt lat="55.837521" lon="26.092752">
<ele>141.552856</ele>
<time>2010-07-17T13:57:53Z</time>
<desc>lat.=55.837521, lon.=26.092752, Alt.=141.552856m. Speed=0.792000m/h.</desc>
<speed>0.220000</speed>
</trkpt>
<trkpt lat="55.837524" lon="26.092756">
<ele>141.392700</ele>
<time>2010-07-17T13:57:54Z</time>
<desc>lat.=55.837524, lon.=26.092756, Alt.=141.392700m. Speed=0.792000m/h.</desc>
<speed>0.220000</speed>
</trkpt>
<trkpt lat="55.837528" lon="26.092760">
<ele>141.447388</ele>
<time>2010-07-17T13:57:55Z</time>
<desc>lat.=55.837528, lon.=26.092760, Alt.=141.447388m. Speed=0.756000m/h.</desc>
<speed>0.210000</speed>
</trkpt>
<trkpt lat="55.837528" lon="26.092762">
<ele>141.353638</ele>
<time>2010-07-17T13:57:56Z</time>
<desc>lat.=55.837528, lon.=26.092762, Alt.=141.353638m. Speed=0.684000m/h.</desc>
<speed>0.190000</speed>
</trkpt>
<trkpt lat="55.837528" lon="26.092764">
<ele>141.279419</ele>
<time>2010-07-17T13:57:57Z</time>
<desc>lat.=55.837528, lon.=26.092764, Alt.=141.279419m. Speed=0.576000m/h.</desc>
<speed>0.160000</speed>
</trkpt>
<trkpt lat="55.837532" lon="26.092766">
<ele>141.216919</ele>
<time>2010-07-17T13:57:58Z</time>
<desc>lat.=55.837532, lon.=26.092766, Alt.=141.216919m. Speed=0.504000m/h.</desc>
<speed>0.140000</speed>
</trkpt>
<trkpt lat="55.837532" lon="26.092768">
<ele>141.162231</ele>
<time>2010-07-17T13:57:59Z</time>
<desc>lat.=55.837532, lon.=26.092768, Alt.=141.162231m. Speed=0.504000m/h.</desc>
<speed>0.140000</speed>
</trkpt>
<trkpt lat="55.837532" lon="26.092770">
<ele>141.123169</ele>
<time>2010-07-17T13:58:00Z</time>
<desc>lat.=55.837532, lon.=26.092770, Alt.=141.123169m. Speed=0.252000m/h.</desc>
<speed>0.070000</speed>
</trkpt>
<trkpt lat="55.837532" lon="26.092770">
<ele>141.084106</ele>
<time>2010-07-17T13:58:01Z</time>
<desc>lat.=55.837532, lon.=26.092770, Alt.=141.084106m. Speed=0.216000m/h.</desc>
<speed>0.060000</speed>
</trkpt>
<trkpt lat="55.837532" lon="26.092770">
<ele>141.048950</ele>
<time>2010-07-17T13:58:02Z</time>
<desc>lat.=55.837532, lon.=26.092770, Alt.=141.048950m. Speed=0.108000m/h.</desc>
<speed>0.030000</speed>
</trkpt>
<trkpt lat="55.837532" lon="26.092770">
<ele>141.017700</ele>
<time>2010-07-17T13:58:03Z</time>
<desc>lat.=55.837532, lon.=26.092770, Alt.=141.017700m. Speed=0.252000m/h.</desc>
<speed>0.070000</speed>
</trkpt>
<trkpt lat="55.837532" lon="26.092770">
<ele>140.990356</ele>
<time>2010-07-17T13:58:04Z</time>
<desc>lat.=55.837532, lon.=26.092770, Alt.=140.990356m. Speed=0.288000m/h.</desc>
<speed>0.080000</speed>
</trkpt>
<trkpt lat="55.837532" lon="26.092770">
<ele>140.970825</ele>
<time>2010-07-17T13:58:05Z</time>
<desc>lat.=55.837532, lon.=26.092770, Alt.=140.970825m. Speed=0.252000m/h.</desc>
<speed>0.070000</speed>
</trkpt>
<trkpt lat="55.837532" lon="26.092770">
<ele>140.955200</ele>
<time>2010-07-17T13:58:06Z</time>
<desc>lat.=55.837532, lon.=26.092770, Alt.=140.955200m. Speed=0.288000m/h.</desc>
<speed>0.080000</speed>
</trkpt>
<trkpt lat="55.837532" lon="26.092770">
<ele>140.939575</ele>
<time>2010-07-17T13:58:07Z</time>
<desc>lat.=55.837532, lon.=26.092770, Alt.=140.939575m. Speed=0.144000m/h.</desc>
<speed>0.040000</speed>
</trkpt>
<trkpt lat="55.837532" lon="26.092772">
<ele>140.912231</ele>
<time>2010-07-17T13:58:08Z</time>
<desc>lat.=55.837532, lon.=26.092772, Alt.=140.912231m. Speed=0.720000m/h.</desc>
<speed>0.200000</speed>
</trkpt>
<trkpt lat="55.837532" lon="26.092773">
<ele>140.900513</ele>
<time>2010-07-17T13:58:09Z</time>
<desc>lat.=55.837532, lon.=26.092773, Alt.=140.900513m. Speed=0.900000m/h.</desc>
<speed>0.250000</speed>
</trkpt>
<trkpt lat="55.837532" lon="26.092777">
<ele>140.888794</ele>
<time>2010-07-17T13:58:10Z</time>
<desc>lat.=55.837532, lon.=26.092777, Alt.=140.888794m. Speed=1.440000m/h.</desc>
<speed>0.400000</speed>
</trkpt>
<trkpt lat="55.837536" lon="26.092793">
<ele>140.795044</ele>
<time>2010-07-17T13:58:11Z</time>
<desc>lat.=55.837536, lon.=26.092793, Alt.=140.795044m. Speed=1.764000m/h.</desc>
<speed>0.490000</speed>
</trkpt>
<trkpt lat="55.837532" lon="26.092794">
<ele>140.619263</ele>
<time>2010-07-17T13:58:12Z</time>
<desc>lat.=55.837532, lon.=26.092794, Alt.=140.619263m. Speed=1.692000m/h.</desc>
<speed>0.470000</speed>
</trkpt>
<trkpt lat="55.837532" lon="26.092798">
<ele>140.896606</ele>
<time>2010-07-17T13:58:13Z</time>
<desc>lat.=55.837532, lon.=26.092798, Alt.=140.896606m. Speed=1.548000m/h.</desc>
<speed>0.430000</speed>
</trkpt>
<trkpt lat="55.837532" lon="26.092806">
<ele>140.877075</ele>
<time>2010-07-17T13:58:14Z</time>
<desc>lat.=55.837532, lon.=26.092806, Alt.=140.877075m. Speed=1.404000m/h.</desc>
<speed>0.390000</speed>
</trkpt>
<trkpt lat="55.837524" lon="26.092823">
<ele>140.505981</ele>
<time>2010-07-17T13:58:15Z</time>
<desc>lat.=55.837524, lon.=26.092823, Alt.=140.505981m. Speed=1.800000m/h.</desc>
<speed>0.500000</speed>
</trkpt>
<trkpt lat="55.837524" lon="26.092833">
<ele>140.416138</ele>
<time>2010-07-17T13:58:16Z</time>
<desc>lat.=55.837524, lon.=26.092833, Alt.=140.416138m. Speed=1.908000m/h.</desc>
<speed>0.530000</speed>
</trkpt>
<trkpt lat="55.837524" lon="26.092846">
<ele>140.423950</ele>
<time>2010-07-17T13:58:17Z</time>
<desc>lat.=55.837524, lon.=26.092846, Alt.=140.423950m. Speed=2.088000m/h.</desc>
<speed>0.580000</speed>
</trkpt>
<trkpt lat="55.837517" lon="26.092863">
<ele>140.029419</ele>
<time>2010-07-17T13:58:18Z</time>
<desc>lat.=55.837517, lon.=26.092863, Alt.=140.029419m. Speed=2.520000m/h.</desc>
<speed>0.700000</speed>
</trkpt>
<trkpt lat="55.837524" lon="26.092880">
<ele>139.744263</ele>
<time>2010-07-17T13:58:19Z</time>
<desc>lat.=55.837524, lon.=26.092880, Alt.=139.744263m. Speed=3.240000m/h.</desc>
<speed>0.900000</speed>
</trkpt>
<trkpt lat="55.837528" lon="26.092897">
<ele>139.634888</ele>
<time>2010-07-17T13:58:20Z</time>
<desc>lat.=55.837528, lon.=26.092897, Alt.=139.634888m. Speed=3.456000m/h.</desc>
<speed>0.960000</speed>
</trkpt>
<trkpt lat="55.837528" lon="26.092905">
<ele>139.615356</ele>
<time>2010-07-17T13:58:21Z</time>
<desc>lat.=55.837528, lon.=26.092905, Alt.=139.615356m. Speed=2.988000m/h.</desc>
<speed>0.830000</speed>
</trkpt>
<trkpt lat="55.837536" lon="26.092920">
<ele>139.541138</ele>
<time>2010-07-17T13:58:22Z</time>
<desc>lat.=55.837536, lon.=26.092920, Alt.=139.541138m. Speed=3.384000m/h.</desc>
<speed>0.940000</speed>
</trkpt>
<trkpt lat="55.837547" lon="26.092936">
<ele>139.431763</ele>
<time>2010-07-17T13:58:23Z</time>
<desc>lat.=55.837547, lon.=26.092936, Alt.=139.431763m. Speed=3.888000m/h.</desc>
<speed>1.080000</speed>
</trkpt>
<trkpt lat="55.837570" lon="26.092983">
<ele>139.416138</ele>
<time>2010-07-17T13:58:24Z</time>
<desc>lat.=55.837570, lon.=26.092983, Alt.=139.416138m. Speed=5.904000m/h.</desc>
<speed>1.640000</speed>
</trkpt>
<trkpt lat="55.837582" lon="26.093002">
<ele>138.970825</ele>
<time>2010-07-17T13:58:25Z</time>
<desc>lat.=55.837582, lon.=26.093002, Alt.=138.970825m. Speed=7.704000m/h.</desc>
<speed>2.140000</speed>
</trkpt>
<trkpt lat="55.837597" lon="26.093031">
<ele>138.494263</ele>
<time>2010-07-17T13:58:26Z</time>
<desc>lat.=55.837597, lon.=26.093031, Alt.=138.494263m. Speed=8.280000m/h.</desc>
<speed>2.300000</speed>
</trkpt>
<trkpt lat="55.837612" lon="26.093050">
<ele>138.076294</ele>
<time>2010-07-17T13:58:27Z</time>
<desc>lat.=55.837612, lon.=26.093050, Alt.=138.076294m. Speed=8.604000m/h.</desc>
<speed>2.390000</speed>
</trkpt>
<trkpt lat="55.837631" lon="26.093069">
<ele>137.482544</ele>
<time>2010-07-17T13:58:28Z</time>
<desc>lat.=55.837631, lon.=26.093069, Alt.=137.482544m. Speed=8.352000m/h.</desc>
<speed>2.320000</speed>
</trkpt>
<trkpt lat="55.837650" lon="26.093105">
<ele>136.982544</ele>
<time>2010-07-17T13:58:29Z</time>
<desc>lat.=55.837650, lon.=26.093105, Alt.=136.982544m. Speed=8.460000m/h.</desc>
<speed>2.350000</speed>
</trkpt>
<trkpt lat="55.837673" lon="26.093153">
<ele>136.537231</ele>
<time>2010-07-17T13:58:30Z</time>
<desc>lat.=55.837673, lon.=26.093153, Alt.=136.537231m. Speed=7.776000m/h.</desc>
<speed>2.160000</speed>
</trkpt>
<trkpt lat="55.837685" lon="26.093180">
<ele>135.474731</ele>
<time>2010-07-17T13:58:31Z</time>
<desc>lat.=55.837685, lon.=26.093180, Alt.=135.474731m. Speed=5.652000m/h.</desc>
<speed>1.570000</speed>
</trkpt>
<trkpt lat="55.837708" lon="26.093214">
<ele>135.572388</ele>
<time>2010-07-17T13:58:32Z</time>
<desc>lat.=55.837708, lon.=26.093214, Alt.=135.572388m. Speed=5.508000m/h.</desc>
<speed>1.530000</speed>
</trkpt>
<trkpt lat="55.837719" lon="26.093225">
<ele>135.666138</ele>
<time>2010-07-17T13:58:33Z</time>
<desc>lat.=55.837719, lon.=26.093225, Alt.=135.666138m. Speed=3.960000m/h.</desc>
<speed>1.100000</speed>
</trkpt>
<trkpt lat="55.837730" lon="26.093246">
<ele>135.213013</ele>
<time>2010-07-17T13:58:34Z</time>
<desc>lat.=55.837730, lon.=26.093246, Alt.=135.213013m. Speed=4.428000m/h.</desc>
<speed>1.230000</speed>
</trkpt>
<trkpt lat="55.837746" lon="26.093275">
<ele>135.420044</ele>
<time>2010-07-17T13:58:35Z</time>
<desc>lat.=55.837746, lon.=26.093275, Alt.=135.420044m. Speed=1.872000m/h.</desc>
<speed>0.520000</speed>
</trkpt>
<trkpt lat="55.837757" lon="26.093296">
<ele>135.763794</ele>
<time>2010-07-17T13:58:36Z</time>
<desc>lat.=55.837757, lon.=26.093296, Alt.=135.763794m. Speed=2.484000m/h.</desc>
<speed>0.690000</speed>
</trkpt>
<trkpt lat="55.837772" lon="26.093311">
<ele>135.298950</ele>
<time>2010-07-17T13:58:37Z</time>
<desc>lat.=55.837772, lon.=26.093311, Alt.=135.298950m. Speed=4.284000m/h.</desc>
<speed>1.190000</speed>
</trkpt>
<trkpt lat="55.837784" lon="26.093328">
<ele>134.947388</ele>
<time>2010-07-17T13:58:38Z</time>
<desc>lat.=55.837784, lon.=26.093328, Alt.=134.947388m. Speed=3.708000m/h.</desc>
<speed>1.030000</speed>
</trkpt>
<trkpt lat="55.837791" lon="26.093353">
<ele>135.158325</ele>
<time>2010-07-17T13:58:39Z</time>
<desc>lat.=55.837791, lon.=26.093353, Alt.=135.158325m. Speed=3.348000m/h.</desc>
<speed>0.930000</speed>
</trkpt>
<trkpt lat="55.837799" lon="26.093372">
<ele>134.908325</ele>
<time>2010-07-17T13:58:40Z</time>
<desc>lat.=55.837799, lon.=26.093372, Alt.=134.908325m. Speed=3.276000m/h.</desc>
<speed>0.910000</speed>
</trkpt>
<trkpt lat="55.837811" lon="26.093399">
<ele>134.529419</ele>
<time>2010-07-17T13:58:41Z</time>
<desc>lat.=55.837811, lon.=26.093399, Alt.=134.529419m. Speed=4.320000m/h.</desc>
<speed>1.200000</speed>
</trkpt>
<trkpt lat="55.837814" lon="26.093422">
<ele>134.646606</ele>
<time>2010-07-17T13:58:42Z</time>
<desc>lat.=55.837814, lon.=26.093422, Alt.=134.646606m. Speed=2.700000m/h.</desc>
<speed>0.750000</speed>
</trkpt>
<trkpt lat="55.837814" lon="26.093433">
<ele>134.279419</ele>
<time>2010-07-17T13:58:43Z</time>
<desc>lat.=55.837814, lon.=26.093433, Alt.=134.279419m. Speed=0.216000m/h.</desc>
<speed>0.060000</speed>
</trkpt>
<trkpt lat="55.837818" lon="26.093451">
<ele>133.966919</ele>
<time>2010-07-17T13:58:44Z</time>
<desc>lat.=55.837818, lon.=26.093451, Alt.=133.966919m. Speed=0.144000m/h.</desc>
<speed>0.040000</speed>
</trkpt>
<trkpt lat="55.837818" lon="26.093454">
<ele>133.545044</ele>
<time>2010-07-17T13:58:45Z</time>
<desc>lat.=55.837818, lon.=26.093454, Alt.=133.545044m. Speed=0.720000m/h.</desc>
<speed>0.200000</speed>
</trkpt>
<trkpt lat="55.837822" lon="26.093468">
<ele>134.459106</ele>
<time>2010-07-17T13:58:46Z</time>
<desc>lat.=55.837822, lon.=26.093468, Alt.=134.459106m. Speed=0.216000m/h.</desc>
<speed>0.060000</speed>
</trkpt>
<trkpt lat="55.837822" lon="26.093468">
<ele>134.463013</ele>
<time>2010-07-17T13:58:47Z</time>
<desc>lat.=55.837822, lon.=26.093468, Alt.=134.463013m. Speed=0.792000m/h.</desc>
<speed>0.220000</speed>
</trkpt>
<trkpt lat="55.837822" lon="26.093472">
<ele>134.463013</ele>
<time>2010-07-17T13:58:48Z</time>
<desc>lat.=55.837822, lon.=26.093472, Alt.=134.463013m. Speed=1.008000m/h.</desc>
<speed>0.280000</speed>
</trkpt>
<trkpt lat="55.837822" lon="26.093475">
<ele>134.463013</ele>
<time>2010-07-17T13:58:49Z</time>
<desc>lat.=55.837822, lon.=26.093475, Alt.=134.463013m. Speed=0.792000m/h.</desc>
<speed>0.220000</speed>
</trkpt>
<trkpt lat="55.837822" lon="26.093479">
<ele>134.478638</ele>
<time>2010-07-17T13:58:50Z</time>
<desc>lat.=55.837822, lon.=26.093479, Alt.=134.478638m. Speed=1.584000m/h.</desc>
<speed>0.440000</speed>
</trkpt>
<trkpt lat="55.837822" lon="26.093493">
<ele>134.724731</ele>
<time>2010-07-17T13:58:51Z</time>
<desc>lat.=55.837822, lon.=26.093493, Alt.=134.724731m. Speed=2.772000m/h.</desc>
<speed>0.770000</speed>
</trkpt>
<trkpt lat="55.837822" lon="26.093510">
<ele>134.880981</ele>
<time>2010-07-17T13:58:52Z</time>
<desc>lat.=55.837822, lon.=26.093510, Alt.=134.880981m. Speed=1.620000m/h.</desc>
<speed>0.450000</speed>
</trkpt>
<trkpt lat="55.837822" lon="26.093513">
<ele>134.779419</ele>
<time>2010-07-17T13:58:53Z</time>
<desc>lat.=55.837822, lon.=26.093513, Alt.=134.779419m. Speed=1.260000m/h.</desc>
<speed>0.350000</speed>
</trkpt>
<trkpt lat="55.837818" lon="26.093517">
<ele>134.572388</ele>
<time>2010-07-17T13:58:54Z</time>
<desc>lat.=55.837818, lon.=26.093517, Alt.=134.572388m. Speed=1.116000m/h.</desc>
<speed>0.310000</speed>
</trkpt>
<trkpt lat="55.837818" lon="26.093527">
<ele>134.607544</ele>
<time>2010-07-17T13:58:55Z</time>
<desc>lat.=55.837818, lon.=26.093527, Alt.=134.607544m. Speed=0.684000m/h.</desc>
<speed>0.190000</speed>
</trkpt>
<trkpt lat="55.837822" lon="26.093536">
<ele>134.701294</ele>
<time>2010-07-17T13:58:56Z</time>
<desc>lat.=55.837822, lon.=26.093536, Alt.=134.701294m. Speed=0.828000m/h.</desc>
<speed>0.230000</speed>
</trkpt>
<trkpt lat="55.837822" lon="26.093534">
<ele>134.709106</ele>
<time>2010-07-17T13:58:57Z</time>
<desc>lat.=55.837822, lon.=26.093534, Alt.=134.709106m. Speed=0.396000m/h.</desc>
<speed>0.110000</speed>
</trkpt>
<trkpt lat="55.837822" lon="26.093536">
<ele>134.763794</ele>
<time>2010-07-17T13:58:58Z</time>
<desc>lat.=55.837822, lon.=26.093536, Alt.=134.763794m. Speed=0.504000m/h.</desc>
<speed>0.140000</speed>
</trkpt>
<trkpt lat="55.837822" lon="26.093536">
<ele>134.701294</ele>
<time>2010-07-17T13:58:59Z</time>
<desc>lat.=55.837822, lon.=26.093536, Alt.=134.701294m. Speed=0.108000m/h.</desc>
<speed>0.030000</speed>
</trkpt>
<trkpt lat="55.837822" lon="26.093536">
<ele>134.646606</ele>
<time>2010-07-17T13:59:00Z</time>
<desc>lat.=55.837822, lon.=26.093536, Alt.=134.646606m. Speed=0.288000m/h.</desc>
<speed>0.080000</speed>
</trkpt>
<trkpt lat="55.837818" lon="26.093538">
<ele>134.599731</ele>
<time>2010-07-17T13:59:01Z</time>
<desc>lat.=55.837818, lon.=26.093538, Alt.=134.599731m. Speed=0.288000m/h.</desc>
<speed>0.080000</speed>
</trkpt>
<trkpt lat="55.837818" lon="26.093536">
<ele>134.564575</ele>
<time>2010-07-17T13:59:02Z</time>
<desc>lat.=55.837818, lon.=26.093536, Alt.=134.564575m. Speed=0.288000m/h.</desc>
<speed>0.080000</speed>
</trkpt>
<trkpt lat="55.837818" lon="26.093536">
<ele>134.537231</ele>
<time>2010-07-17T13:59:03Z</time>
<desc>lat.=55.837818, lon.=26.093536, Alt.=134.537231m. Speed=0.252000m/h.</desc>
<speed>0.070000</speed>
</trkpt>
<trkpt lat="55.837818" lon="26.093536">
<ele>134.513794</ele>
<time>2010-07-17T13:59:04Z</time>
<desc>lat.=55.837818, lon.=26.093536, Alt.=134.513794m. Speed=0.216000m/h.</desc>
<speed>0.060000</speed>
</trkpt>
<trkpt lat="55.837818" lon="26.093536">
<ele>134.502075</ele>
<time>2010-07-17T13:59:05Z</time>
<desc>lat.=55.837818, lon.=26.093536, Alt.=134.502075m. Speed=0.396000m/h.</desc>
<speed>0.110000</speed>
</trkpt>
<trkpt lat="55.837814" lon="26.093536">
<ele>134.494263</ele>
<time>2010-07-17T13:59:06Z</time>
<desc>lat.=55.837814, lon.=26.093536, Alt.=134.494263m. Speed=0.180000m/h.</desc>
<speed>0.050000</speed>
</trkpt>
<trkpt lat="55.837814" lon="26.093536">
<ele>134.486450</ele>
<time>2010-07-17T13:59:07Z</time>
<desc>lat.=55.837814, lon.=26.093536, Alt.=134.486450m. Speed=0.036000m/h.</desc>
<speed>0.010000</speed>
</trkpt>
<trkpt lat="55.837814" lon="26.093536">
<ele>134.478638</ele>
<time>2010-07-17T13:59:08Z</time>
<desc>lat.=55.837814, lon.=26.093536, Alt.=134.478638m. Speed=0.072000m/h.</desc>
<speed>0.020000</speed>
</trkpt>
<trkpt lat="55.837814" lon="26.093536">
<ele>134.474731</ele>
<time>2010-07-17T13:59:09Z</time>
<desc>lat.=55.837814, lon.=26.093536, Alt.=134.474731m. Speed=0.144000m/h.</desc>
<speed>0.040000</speed>
</trkpt>
<trkpt lat="55.837814" lon="26.093536">
<ele>134.463013</ele>
<time>2010-07-17T13:59:10Z</time>
<desc>lat.=55.837814, lon.=26.093536, Alt.=134.463013m. Speed=0.216000m/h.</desc>
<speed>0.060000</speed>
</trkpt>
<trkpt lat="55.837814" lon="26.093536">
<ele>134.455200</ele>
<time>2010-07-17T13:59:11Z</time>
<desc>lat.=55.837814, lon.=26.093536, Alt.=134.455200m. Speed=0.180000m/h.</desc>
<speed>0.050000</speed>
</trkpt>
<trkpt lat="55.837814" lon="26.093536">
<ele>134.447388</ele>
<time>2010-07-17T13:59:12Z</time>
<desc>lat.=55.837814, lon.=26.093536, Alt.=134.447388m. Speed=0.252000m/h.</desc>
<speed>0.070000</speed>
</trkpt>
<trkpt lat="55.837814" lon="26.093536">
<ele>134.439575</ele>
<time>2010-07-17T13:59:13Z</time>
<desc>lat.=55.837814, lon.=26.093536, Alt.=134.439575m. Speed=0.108000m/h.</desc>
<speed>0.030000</speed>
</trkpt>
<trkpt lat="55.837814" lon="26.093536">
<ele>134.435669</ele>
<time>2010-07-17T13:59:14Z</time>
<desc>lat.=55.837814, lon.=26.093536, Alt.=134.435669m. Speed=0.144000m/h.</desc>
<speed>0.040000</speed>
</trkpt>
<trkpt lat="55.837814" lon="26.093536">
<ele>134.435669</ele>
<time>2010-07-17T13:59:15Z</time>
<desc>lat.=55.837814, lon.=26.093536, Alt.=134.435669m. Speed=0.360000m/h.</desc>
<speed>0.100000</speed>
</trkpt>
<trkpt lat="55.837814" lon="26.093538">
<ele>134.439575</ele>
<time>2010-07-17T13:59:16Z</time>
<desc>lat.=55.837814, lon.=26.093538, Alt.=134.439575m. Speed=0.360000m/h.</desc>
<speed>0.100000</speed>
</trkpt>
<trkpt lat="55.837811" lon="26.093538">
<ele>134.451294</ele>
<time>2010-07-17T13:59:17Z</time>
<desc>lat.=55.837811, lon.=26.093538, Alt.=134.451294m. Speed=0.144000m/h.</desc>
<speed>0.040000</speed>
</trkpt>
<trkpt lat="55.837811" lon="26.093540">
<ele>134.463013</ele>
<time>2010-07-17T13:59:18Z</time>
<desc>lat.=55.837811, lon.=26.093540, Alt.=134.463013m. Speed=0.144000m/h.</desc>
<speed>0.040000</speed>
</trkpt>
<trkpt lat="55.837811" lon="26.093540">
<ele>134.474731</ele>
<time>2010-07-17T13:59:19Z</time>
<desc>lat.=55.837811, lon.=26.093540, Alt.=134.474731m. Speed=0.036000m/h.</desc>
<speed>0.010000</speed>
</trkpt>
<trkpt lat="55.837811" lon="26.093540">
<ele>134.490356</ele>
<time>2010-07-17T13:59:20Z</time>
<desc>lat.=55.837811, lon.=26.093540, Alt.=134.490356m. Speed=0.000000m/h.</desc>
<speed>0.000000</speed>
</trkpt>
<trkpt lat="55.837811" lon="26.093540">
<ele>134.502075</ele>
<time>2010-07-17T13:59:21Z</time>
<desc>lat.=55.837811, lon.=26.093540, Alt.=134.502075m. Speed=0.108000m/h.</desc>
<speed>0.030000</speed>
</trkpt>
<trkpt lat="55.837811" lon="26.093540">
<ele>134.505981</ele>
<time>2010-07-17T13:59:22Z</time>
<desc>lat.=55.837811, lon.=26.093540, Alt.=134.505981m. Speed=0.072000m/h.</desc>
<speed>0.020000</speed>
</trkpt>
<trkpt lat="55.837811" lon="26.093540">
<ele>134.513794</ele>
<time>2010-07-17T13:59:23Z</time>
<desc>lat.=55.837811, lon.=26.093540, Alt.=134.513794m. Speed=0.216000m/h.</desc>
<speed>0.060000</speed>
</trkpt>
<trkpt lat="55.837811" lon="26.093540">
<ele>134.517700</ele>
<time>2010-07-17T13:59:24Z</time>
<desc>lat.=55.837811, lon.=26.093540, Alt.=134.517700m. Speed=0.216000m/h.</desc>
<speed>0.060000</speed>
</trkpt>
<trkpt lat="55.837811" lon="26.093542">
<ele>134.521606</ele>
<time>2010-07-17T13:59:25Z</time>
<desc>lat.=55.837811, lon.=26.093542, Alt.=134.521606m. Speed=0.252000m/h.</desc>
<speed>0.070000</speed>
</trkpt>
<trkpt lat="55.837811" lon="26.093542">
<ele>134.525513</ele>
<time>2010-07-17T13:59:26Z</time>
<desc>lat.=55.837811, lon.=26.093542, Alt.=134.525513m. Speed=0.180000m/h.</desc>
<speed>0.050000</speed>
</trkpt>
<trkpt lat="55.837811" lon="26.093544">
<ele>134.533325</ele>
<time>2010-07-17T13:59:27Z</time>
<desc>lat.=55.837811, lon.=26.093544, Alt.=134.533325m. Speed=0.108000m/h.</desc>
<speed>0.030000</speed>
</trkpt>
<trkpt lat="55.837811" lon="26.093544">
<ele>134.537231</ele>
<time>2010-07-17T13:59:28Z</time>
<desc>lat.=55.837811, lon.=26.093544, Alt.=134.537231m. Speed=0.432000m/h.</desc>
<speed>0.120000</speed>
</trkpt>
<trkpt lat="55.837811" lon="26.093546">
<ele>134.541138</ele>
<time>2010-07-17T13:59:29Z</time>
<desc>lat.=55.837811, lon.=26.093546, Alt.=134.541138m. Speed=0.396000m/h.</desc>
<speed>0.110000</speed>
</trkpt>
<trkpt lat="55.837814" lon="26.093548">
<ele>134.541138</ele>
<time>2010-07-17T13:59:30Z</time>
<desc>lat.=55.837814, lon.=26.093548, Alt.=134.541138m. Speed=0.324000m/h.</desc>
<speed>0.090000</speed>
</trkpt>
<trkpt lat="55.837814" lon="26.093550">
<ele>134.545044</ele>
<time>2010-07-17T13:59:31Z</time>
<desc>lat.=55.837814, lon.=26.093550, Alt.=134.545044m. Speed=0.108000m/h.</desc>
<speed>0.030000</speed>
</trkpt>
<trkpt lat="55.837811" lon="26.093550">
<ele>134.556763</ele>
<time>2010-07-17T13:59:32Z</time>
<desc>lat.=55.837811, lon.=26.093550, Alt.=134.556763m. Speed=0.036000m/h.</desc>
<speed>0.010000</speed>
</trkpt>
<trkpt lat="55.837814" lon="26.093550">
<ele>134.564575</ele>
<time>2010-07-17T13:59:33Z</time>
<desc>lat.=55.837814, lon.=26.093550, Alt.=134.564575m. Speed=0.108000m/h.</desc>
<speed>0.030000</speed>
</trkpt>
<trkpt lat="55.837814" lon="26.093550">
<ele>134.564575</ele>
<time>2010-07-17T13:59:34Z</time>
<desc>lat.=55.837814, lon.=26.093550, Alt.=134.564575m. Speed=0.036000m/h.</desc>
<speed>0.010000</speed>
</trkpt>
<trkpt lat="55.837814" lon="26.093550">
<ele>134.564575</ele>
<time>2010-07-17T13:59:35Z</time>
<desc>lat.=55.837814, lon.=26.093550, Alt.=134.564575m. Speed=0.036000m/h.</desc>
<speed>0.010000</speed>
</trkpt>
<trkpt lat="55.837814" lon="26.093550">
<ele>134.552856</ele>
<time>2010-07-17T13:59:36Z</time>
<desc>lat.=55.837814, lon.=26.093550, Alt.=134.552856m. Speed=0.036000m/h.</desc>
<speed>0.010000</speed>
</trkpt>
<trkpt lat="55.837814" lon="26.093550">
<ele>134.537231</ele>
<time>2010-07-17T13:59:37Z</time>
<desc>lat.=55.837814, lon.=26.093550, Alt.=134.537231m. Speed=0.144000m/h.</desc>
<speed>0.040000</speed>
</trkpt>
<trkpt lat="55.837811" lon="26.093550">
<ele>134.529419</ele>
<time>2010-07-17T13:59:38Z</time>
<desc>lat.=55.837811, lon.=26.093550, Alt.=134.529419m. Speed=0.144000m/h.</desc>
<speed>0.040000</speed>
</trkpt>
<trkpt lat="55.837811" lon="26.093550">
<ele>134.525513</ele>
<time>2010-07-17T13:59:39Z</time>
<desc>lat.=55.837811, lon.=26.093550, Alt.=134.525513m. Speed=0.144000m/h.</desc>
<speed>0.040000</speed>
</trkpt>
<trkpt lat="55.837814" lon="26.093550">
<ele>134.517700</ele>
<time>2010-07-17T13:59:40Z</time>
<desc>lat.=55.837814, lon.=26.093550, Alt.=134.517700m. Speed=0.216000m/h.</desc>
<speed>0.060000</speed>
</trkpt>
<trkpt lat="55.837814" lon="26.093550">
<ele>134.509888</ele>
<time>2010-07-17T13:59:41Z</time>
<desc>lat.=55.837814, lon.=26.093550, Alt.=134.509888m. Speed=0.324000m/h.</desc>
<speed>0.090000</speed>
</trkpt>
<trkpt lat="55.837814" lon="26.093552">
<ele>134.502075</ele>
<time>2010-07-17T13:59:42Z</time>
<desc>lat.=55.837814, lon.=26.093552, Alt.=134.502075m. Speed=0.288000m/h.</desc>
<speed>0.080000</speed>
</trkpt>
<trkpt lat="55.837814" lon="26.093554">
<ele>134.498169</ele>
<time>2010-07-17T13:59:43Z</time>
<desc>lat.=55.837814, lon.=26.093554, Alt.=134.498169m. Speed=0.216000m/h.</desc>
<speed>0.060000</speed>
</trkpt>
<trkpt lat="55.837814" lon="26.093554">
<ele>134.498169</ele>
<time>2010-07-17T13:59:44Z</time>
<desc>lat.=55.837814, lon.=26.093554, Alt.=134.498169m. Speed=0.180000m/h.</desc>
<speed>0.050000</speed>
</trkpt>
<trkpt lat="55.837814" lon="26.093554">
<ele>134.494263</ele>
<time>2010-07-17T13:59:45Z</time>
<desc>lat.=55.837814, lon.=26.093554, Alt.=134.494263m. Speed=0.108000m/h.</desc>
<speed>0.030000</speed>
</trkpt>
<trkpt lat="55.837814" lon="26.093555">
<ele>134.490356</ele>
<time>2010-07-17T13:59:46Z</time>
<desc>lat.=55.837814, lon.=26.093555, Alt.=134.490356m. Speed=0.108000m/h.</desc>
<speed>0.030000</speed>
</trkpt>
<trkpt lat="55.837814" lon="26.093555">
<ele>134.486450</ele>
<time>2010-07-17T13:59:47Z</time>
<desc>lat.=55.837814, lon.=26.093555, Alt.=134.486450m. Speed=0.252000m/h.</desc>
<speed>0.070000</speed>
</trkpt>
<trkpt lat="55.837814" lon="26.093557">
<ele>134.486450</ele>
<time>2010-07-17T13:59:48Z</time>
<desc>lat.=55.837814, lon.=26.093557, Alt.=134.486450m. Speed=0.324000m/h.</desc>
<speed>0.090000</speed>
</trkpt>
<trkpt lat="55.837814" lon="26.093557">
<ele>134.482544</ele>
<time>2010-07-17T13:59:49Z</time>
<desc>lat.=55.837814, lon.=26.093557, Alt.=134.482544m. Speed=0.324000m/h.</desc>
<speed>0.090000</speed>
</trkpt>
<trkpt lat="55.837814" lon="26.093559">
<ele>134.478638</ele>
<time>2010-07-17T13:59:50Z</time>
<desc>lat.=55.837814, lon.=26.093559, Alt.=134.478638m. Speed=0.216000m/h.</desc>
<speed>0.060000</speed>
</trkpt>
<trkpt lat="55.837814" lon="26.093561">
<ele>134.474731</ele>
<time>2010-07-17T13:59:51Z</time>
<desc>lat.=55.837814, lon.=26.093561, Alt.=134.474731m. Speed=0.360000m/h.</desc>
<speed>0.100000</speed>
</trkpt>
<trkpt lat="55.837814" lon="26.093561">
<ele>134.474731</ele>
<time>2010-07-17T13:59:52Z</time>
<desc>lat.=55.837814, lon.=26.093561, Alt.=134.474731m. Speed=0.612000m/h.</desc>
<speed>0.170000</speed>
</trkpt>
<trkpt lat="55.837814" lon="26.093561">
<ele>134.474731</ele>
<time>2010-07-17T13:59:53Z</time>
<desc>lat.=55.837814, lon.=26.093561, Alt.=134.474731m. Speed=0.180000m/h.</desc>
<speed>0.050000</speed>
</trkpt>
<trkpt lat="55.837811" lon="26.093561">
<ele>134.478638</ele>
<time>2010-07-17T13:59:54Z</time>
<desc>lat.=55.837811, lon.=26.093561, Alt.=134.478638m. Speed=0.396000m/h.</desc>
<speed>0.110000</speed>
</trkpt>
<trkpt lat="55.837814" lon="26.093563">
<ele>134.478638</ele>
<time>2010-07-17T13:59:55Z</time>
<desc>lat.=55.837814, lon.=26.093563, Alt.=134.478638m. Speed=0.324000m/h.</desc>
<speed>0.090000</speed>
</trkpt>
<trkpt lat="55.837814" lon="26.093565">
<ele>134.478638</ele>
<time>2010-07-17T13:59:56Z</time>
<desc>lat.=55.837814, lon.=26.093565, Alt.=134.478638m. Speed=0.504000m/h.</desc>
<speed>0.140000</speed>
</trkpt>
<trkpt lat="55.837814" lon="26.093567">
<ele>134.482544</ele>
<time>2010-07-17T13:59:57Z</time>
<desc>lat.=55.837814, lon.=26.093567, Alt.=134.482544m. Speed=0.396000m/h.</desc>
<speed>0.110000</speed>
</trkpt>
<trkpt lat="55.837814" lon="26.093569">
<ele>134.478638</ele>
<time>2010-07-17T13:59:58Z</time>
<desc>lat.=55.837814, lon.=26.093569, Alt.=134.478638m. Speed=0.360000m/h.</desc>
<speed>0.100000</speed>
</trkpt>
<trkpt lat="55.837814" lon="26.093569">
<ele>134.478638</ele>
<time>2010-07-17T13:59:59Z</time>
<desc>lat.=55.837814, lon.=26.093569, Alt.=134.478638m. Speed=0.216000m/h.</desc>
<speed>0.060000</speed>
</trkpt>
<trkpt lat="55.837814" lon="26.093571">
<ele>134.478638</ele>
<time>2010-07-17T14:00:00Z</time>
<desc>lat.=55.837814, lon.=26.093571, Alt.=134.478638m. Speed=0.396000m/h.</desc>
<speed>0.110000</speed>
</trkpt>
<trkpt lat="55.837814" lon="26.093571">
<ele>134.478638</ele>
<time>2010-07-17T14:00:01Z</time>
<desc>lat.=55.837814, lon.=26.093571, Alt.=134.478638m. Speed=0.288000m/h.</desc>
<speed>0.080000</speed>
</trkpt>
<trkpt lat="55.837814" lon="26.093571">
<ele>134.474731</ele>
<time>2010-07-17T14:00:02Z</time>
<desc>lat.=55.837814, lon.=26.093571, Alt.=134.474731m. Speed=0.252000m/h.</desc>
<speed>0.070000</speed>
</trkpt>
<trkpt lat="55.837811" lon="26.093569">
<ele>134.466919</ele>
<time>2010-07-17T14:00:03Z</time>
<desc>lat.=55.837811, lon.=26.093569, Alt.=134.466919m. Speed=0.288000m/h.</desc>
<speed>0.080000</speed>
</trkpt>
<trkpt lat="55.837811" lon="26.093569">
<ele>134.466919</ele>
<time>2010-07-17T14:00:04Z</time>
<desc>lat.=55.837811, lon.=26.093569, Alt.=134.466919m. Speed=0.144000m/h.</desc>
<speed>0.040000</speed>
</trkpt>
<trkpt lat="55.837811" lon="26.093567">
<ele>134.459106</ele>
<time>2010-07-17T14:00:05Z</time>
<desc>lat.=55.837811, lon.=26.093567, Alt.=134.459106m. Speed=0.396000m/h.</desc>
<speed>0.110000</speed>
</trkpt>
<trkpt lat="55.837811" lon="26.093565">
<ele>134.455200</ele>
<time>2010-07-17T14:00:06Z</time>
<desc>lat.=55.837811, lon.=26.093565, Alt.=134.455200m. Speed=0.504000m/h.</desc>
<speed>0.140000</speed>
</trkpt>
<trkpt lat="55.837811" lon="26.093563">
<ele>134.451294</ele>
<time>2010-07-17T14:00:07Z</time>
<desc>lat.=55.837811, lon.=26.093563, Alt.=134.451294m. Speed=0.288000m/h.</desc>
<speed>0.080000</speed>
</trkpt>
<trkpt lat="55.837811" lon="26.093563">
<ele>134.447388</ele>
<time>2010-07-17T14:00:08Z</time>
<desc>lat.=55.837811, lon.=26.093563, Alt.=134.447388m. Speed=0.216000m/h.</desc>
<speed>0.060000</speed>
</trkpt>
<trkpt lat="55.837811" lon="26.093561">
<ele>134.443481</ele>
<time>2010-07-17T14:00:09Z</time>
<desc>lat.=55.837811, lon.=26.093561, Alt.=134.443481m. Speed=0.036000m/h.</desc>
<speed>0.010000</speed>
</trkpt>
<trkpt lat="55.837811" lon="26.093561">
<ele>134.439575</ele>
<time>2010-07-17T14:00:10Z</time>
<desc>lat.=55.837811, lon.=26.093561, Alt.=134.439575m. Speed=0.072000m/h.</desc>
<speed>0.020000</speed>
</trkpt>
<trkpt lat="55.837811" lon="26.093561">
<ele>134.435669</ele>
<time>2010-07-17T14:00:11Z</time>
<desc>lat.=55.837811, lon.=26.093561, Alt.=134.435669m. Speed=0.072000m/h.</desc>
<speed>0.020000</speed>
</trkpt>
<trkpt lat="55.837811" lon="26.093561">
<ele>134.435669</ele>
<time>2010-07-17T14:00:12Z</time>
<desc>lat.=55.837811, lon.=26.093561, Alt.=134.435669m. Speed=0.036000m/h.</desc>
<speed>0.010000</speed>
</trkpt>
<trkpt lat="55.837811" lon="26.093561">
<ele>134.431763</ele>
<time>2010-07-17T14:00:13Z</time>
<desc>lat.=55.837811, lon.=26.093561, Alt.=134.431763m. Speed=0.180000m/h.</desc>
<speed>0.050000</speed>
</trkpt>
<trkpt lat="55.837811" lon="26.093561">
<ele>134.431763</ele>
<time>2010-07-17T14:00:14Z</time>
<desc>lat.=55.837811, lon.=26.093561, Alt.=134.431763m. Speed=0.324000m/h.</desc>
<speed>0.090000</speed>
</trkpt>
<trkpt lat="55.837811" lon="26.093561">
<ele>134.435669</ele>
<time>2010-07-17T14:00:15Z</time>
<desc>lat.=55.837811, lon.=26.093561, Alt.=134.435669m. Speed=0.108000m/h.</desc>
<speed>0.030000</speed>
</trkpt>
<trkpt lat="55.837811" lon="26.093561">
<ele>134.431763</ele>
<time>2010-07-17T14:00:16Z</time>
<desc>lat.=55.837811, lon.=26.093561, Alt.=134.431763m. Speed=0.324000m/h.</desc>
<speed>0.090000</speed>
</trkpt>
<trkpt lat="55.837811" lon="26.093559">
<ele>134.431763</ele>
<time>2010-07-17T14:00:17Z</time>
<desc>lat.=55.837811, lon.=26.093559, Alt.=134.431763m. Speed=0.216000m/h.</desc>
<speed>0.060000</speed>
</trkpt>
<trkpt lat="55.837811" lon="26.093559">
<ele>134.427856</ele>
<time>2010-07-17T14:00:18Z</time>
<desc>lat.=55.837811, lon.=26.093559, Alt.=134.427856m. Speed=0.108000m/h.</desc>
<speed>0.030000</speed>
</trkpt>
<trkpt lat="55.837814" lon="26.093559">
<ele>134.423950</ele>
<time>2010-07-17T14:00:19Z</time>
<desc>lat.=55.837814, lon.=26.093559, Alt.=134.423950m. Speed=0.072000m/h.</desc>
<speed>0.020000</speed>
</trkpt>
<trkpt lat="55.837814" lon="26.093557">
<ele>134.420044</ele>
<time>2010-07-17T14:00:20Z</time>
<desc>lat.=55.837814, lon.=26.093557, Alt.=134.420044m. Speed=0.324000m/h.</desc>
<speed>0.090000</speed>
</trkpt>
<trkpt lat="55.837814" lon="26.093557">
<ele>134.416138</ele>
<time>2010-07-17T14:00:21Z</time>
<desc>lat.=55.837814, lon.=26.093557, Alt.=134.416138m. Speed=0.324000m/h.</desc>
<speed>0.090000</speed>
</trkpt>
<trkpt lat="55.837814" lon="26.093555">
<ele>134.408325</ele>
<time>2010-07-17T14:00:22Z</time>
<desc>lat.=55.837814, lon.=26.093555, Alt.=134.408325m. Speed=0.396000m/h.</desc>
<speed>0.110000</speed>
</trkpt>
<trkpt lat="55.837814" lon="26.093554">
<ele>134.404419</ele>
<time>2010-07-17T14:00:23Z</time>
<desc>lat.=55.837814, lon.=26.093554, Alt.=134.404419m. Speed=0.360000m/h.</desc>
<speed>0.100000</speed>
</trkpt>
<trkpt lat="55.837814" lon="26.093552">
<ele>134.396606</ele>
<time>2010-07-17T14:00:24Z</time>
<desc>lat.=55.837814, lon.=26.093552, Alt.=134.396606m. Speed=0.648000m/h.</desc>
<speed>0.180000</speed>
</trkpt>
<trkpt lat="55.837814" lon="26.093550">
<ele>134.392700</ele>
<time>2010-07-17T14:00:25Z</time>
<desc>lat.=55.837814, lon.=26.093550, Alt.=134.392700m. Speed=0.180000m/h.</desc>
<speed>0.050000</speed>
</trkpt>
<trkpt lat="55.837814" lon="26.093548">
<ele>134.384888</ele>
<time>2010-07-17T14:00:26Z</time>
<desc>lat.=55.837814, lon.=26.093548, Alt.=134.384888m. Speed=0.108000m/h.</desc>
<speed>0.030000</speed>
</trkpt>
<trkpt lat="55.837814" lon="26.093548">
<ele>134.388794</ele>
<time>2010-07-17T14:00:27Z</time>
<desc>lat.=55.837814, lon.=26.093548, Alt.=134.388794m. Speed=0.036000m/h.</desc>
<speed>0.010000</speed>
</trkpt>
<trkpt lat="55.837814" lon="26.093548">
<ele>134.392700</ele>
<time>2010-07-17T14:00:28Z</time>
<desc>lat.=55.837814, lon.=26.093548, Alt.=134.392700m. Speed=0.324000m/h.</desc>
<speed>0.090000</speed>
</trkpt>
<trkpt lat="55.837814" lon="26.093548">
<ele>134.392700</ele>
<time>2010-07-17T14:00:29Z</time>
<desc>lat.=55.837814, lon.=26.093548, Alt.=134.392700m. Speed=0.288000m/h.</desc>
<speed>0.080000</speed>
</trkpt>
<trkpt lat="55.837814" lon="26.093546">
<ele>134.396606</ele>
<time>2010-07-17T14:00:30Z</time>
<desc>lat.=55.837814, lon.=26.093546, Alt.=134.396606m. Speed=0.216000m/h.</desc>
<speed>0.060000</speed>
</trkpt>
<trkpt lat="55.837814" lon="26.093546">
<ele>134.392700</ele>
<time>2010-07-17T14:00:31Z</time>
<desc>lat.=55.837814, lon.=26.093546, Alt.=134.392700m. Speed=0.180000m/h.</desc>
<speed>0.050000</speed>
</trkpt>
<trkpt lat="55.837814" lon="26.093546">
<ele>134.377075</ele>
<time>2010-07-17T14:00:32Z</time>
<desc>lat.=55.837814, lon.=26.093546, Alt.=134.377075m. Speed=0.072000m/h.</desc>
<speed>0.020000</speed>
</trkpt>
<trkpt lat="55.837814" lon="26.093546">
<ele>134.361450</ele>
<time>2010-07-17T14:00:33Z</time>
<desc>lat.=55.837814, lon.=26.093546, Alt.=134.361450m. Speed=0.180000m/h.</desc>
<speed>0.050000</speed>
</trkpt>
<trkpt lat="55.837814" lon="26.093546">
<ele>134.341919</ele>
<time>2010-07-17T14:00:34Z</time>
<desc>lat.=55.837814, lon.=26.093546, Alt.=134.341919m. Speed=0.360000m/h.</desc>
<speed>0.100000</speed>
</trkpt>
<trkpt lat="55.837814" lon="26.093548">
<ele>134.326294</ele>
<time>2010-07-17T14:00:35Z</time>
<desc>lat.=55.837814, lon.=26.093548, Alt.=134.326294m. Speed=0.072000m/h.</desc>
<speed>0.020000</speed>
</trkpt>
<trkpt lat="55.837818" lon="26.093548">
<ele>134.326294</ele>
<time>2010-07-17T14:00:36Z</time>
<desc>lat.=55.837818, lon.=26.093548, Alt.=134.326294m. Speed=0.036000m/h.</desc>
<speed>0.010000</speed>
</trkpt>
<trkpt lat="55.837818" lon="26.093548">
<ele>134.338013</ele>
<time>2010-07-17T14:00:37Z</time>
<desc>lat.=55.837818, lon.=26.093548, Alt.=134.338013m. Speed=0.036000m/h.</desc>
<speed>0.010000</speed>
</trkpt>
<trkpt lat="55.837818" lon="26.093548">
<ele>134.338013</ele>
<time>2010-07-17T14:00:38Z</time>
<desc>lat.=55.837818, lon.=26.093548, Alt.=134.338013m. Speed=0.000000m/h.</desc>
<speed>0.000000</speed>
</trkpt>
<trkpt lat="55.837818" lon="26.093548">
<ele>134.345825</ele>
<time>2010-07-17T14:00:39Z</time>
<desc>lat.=55.837818, lon.=26.093548, Alt.=134.345825m. Speed=0.000000m/h.</desc>
<speed>0.000000</speed>
</trkpt>
<trkpt lat="55.837818" lon="26.093546">
<ele>134.345825</ele>
<time>2010-07-17T14:00:40Z</time>
<desc>lat.=55.837818, lon.=26.093546, Alt.=134.345825m. Speed=0.000000m/h.</desc>
<speed>0.000000</speed>
</trkpt>
<trkpt lat="55.837818" lon="26.093546">
<ele>134.349731</ele>
<time>2010-07-17T14:00:41Z</time>
<desc>lat.=55.837818, lon.=26.093546, Alt.=134.349731m. Speed=0.000000m/h.</desc>
<speed>0.000000</speed>
</trkpt>
<trkpt lat="55.837818" lon="26.093546">
<ele>134.349731</ele>
<time>2010-07-17T14:00:42Z</time>
<desc>lat.=55.837818, lon.=26.093546, Alt.=134.349731m. Speed=0.072000m/h.</desc>
<speed>0.020000</speed>
</trkpt>
<trkpt lat="55.837818" lon="26.093546">
<ele>134.349731</ele>
<time>2010-07-17T14:00:43Z</time>
<desc>lat.=55.837818, lon.=26.093546, Alt.=134.349731m. Speed=0.000000m/h.</desc>
<speed>0.000000</speed>
</trkpt>
<trkpt lat="55.837818" lon="26.093546">
<ele>134.349731</ele>
<time>2010-07-17T14:00:44Z</time>
<desc>lat.=55.837818, lon.=26.093546, Alt.=134.349731m. Speed=0.000000m/h.</desc>
<speed>0.000000</speed>
</trkpt>
<trkpt lat="55.837818" lon="26.093548">
<ele>134.373169</ele>
<time>2010-07-17T14:00:45Z</time>
<desc>lat.=55.837818, lon.=26.093548, Alt.=134.373169m. Speed=0.000000m/h.</desc>
<speed>0.000000</speed>
</trkpt>
<trkpt lat="55.837818" lon="26.093548">
<ele>134.365356</ele>
<time>2010-07-17T14:00:46Z</time>
<desc>lat.=55.837818, lon.=26.093548, Alt.=134.365356m. Speed=0.036000m/h.</desc>
<speed>0.010000</speed>
</trkpt>
<trkpt lat="55.837818" lon="26.093548">
<ele>134.361450</ele>
<time>2010-07-17T14:00:47Z</time>
<desc>lat.=55.837818, lon.=26.093548, Alt.=134.361450m. Speed=0.036000m/h.</desc>
<speed>0.010000</speed>
</trkpt>
<trkpt lat="55.837818" lon="26.093548">
<ele>134.357544</ele>
<time>2010-07-17T14:00:48Z</time>
<desc>lat.=55.837818, lon.=26.093548, Alt.=134.357544m. Speed=0.144000m/h.</desc>
<speed>0.040000</speed>
</trkpt>
<trkpt lat="55.837818" lon="26.093548">
<ele>134.373169</ele>
<time>2010-07-17T14:00:49Z</time>
<desc>lat.=55.837818, lon.=26.093548, Alt.=134.373169m. Speed=0.432000m/h.</desc>
<speed>0.120000</speed>
</trkpt>
<trkpt lat="55.837818" lon="26.093548">
<ele>134.373169</ele>
<time>2010-07-17T14:00:50Z</time>
<desc>lat.=55.837818, lon.=26.093548, Alt.=134.373169m. Speed=0.108000m/h.</desc>
<speed>0.030000</speed>
</trkpt>
<trkpt lat="55.837818" lon="26.093548">
<ele>134.400513</ele>
<time>2010-07-17T14:00:51Z</time>
<desc>lat.=55.837818, lon.=26.093548, Alt.=134.400513m. Speed=0.180000m/h.</desc>
<speed>0.050000</speed>
</trkpt>
<trkpt lat="55.837818" lon="26.093548">
<ele>134.412231</ele>
<time>2010-07-17T14:00:52Z</time>
<desc>lat.=55.837818, lon.=26.093548, Alt.=134.412231m. Speed=0.000000m/h.</desc>
<speed>0.000000</speed>
</trkpt>
<trkpt lat="55.837818" lon="26.093548">
<ele>134.404419</ele>
<time>2010-07-17T14:00:53Z</time>
<desc>lat.=55.837818, lon.=26.093548, Alt.=134.404419m. Speed=0.036000m/h.</desc>
<speed>0.010000</speed>
</trkpt>
<trkpt lat="55.837818" lon="26.093548">
<ele>134.404419</ele>
<time>2010-07-17T14:00:54Z</time>
<desc>lat.=55.837818, lon.=26.093548, Alt.=134.404419m. Speed=0.036000m/h.</desc>
<speed>0.010000</speed>
</trkpt>
<trkpt lat="55.837818" lon="26.093548">
<ele>134.408325</ele>
<time>2010-07-17T14:00:55Z</time>
<desc>lat.=55.837818, lon.=26.093548, Alt.=134.408325m. Speed=0.108000m/h.</desc>
<speed>0.030000</speed>
</trkpt>
<trkpt lat="55.837818" lon="26.093550">
<ele>134.416138</ele>
<time>2010-07-17T14:00:56Z</time>
<desc>lat.=55.837818, lon.=26.093550, Alt.=134.416138m. Speed=0.072000m/h.</desc>
<speed>0.020000</speed>
</trkpt>
<trkpt lat="55.837818" lon="26.093550">
<ele>134.427856</ele>
<time>2010-07-17T14:00:57Z</time>
<desc>lat.=55.837818, lon.=26.093550, Alt.=134.427856m. Speed=0.396000m/h.</desc>
<speed>0.110000</speed>
</trkpt>
<trkpt lat="55.837818" lon="26.093550">
<ele>134.474731</ele>
<time>2010-07-17T14:00:58Z</time>
<desc>lat.=55.837818, lon.=26.093550, Alt.=134.474731m. Speed=0.504000m/h.</desc>
<speed>0.140000</speed>
</trkpt>
<trkpt lat="55.837818" lon="26.093548">
<ele>134.564575</ele>
<time>2010-07-17T14:00:59Z</time>
<desc>lat.=55.837818, lon.=26.093548, Alt.=134.564575m. Speed=1.620000m/h.</desc>
<speed>0.450000</speed>
</trkpt>
<trkpt lat="55.837826" lon="26.093544">
<ele>134.275513</ele>
<time>2010-07-17T14:01:00Z</time>
<desc>lat.=55.837826, lon.=26.093544, Alt.=134.275513m. Speed=1.872000m/h.</desc>
<speed>0.520000</speed>
</trkpt>
<trkpt lat="55.837833" lon="26.093540">
<ele>133.978638</ele>
<time>2010-07-17T14:01:01Z</time>
<desc>lat.=55.837833, lon.=26.093540, Alt.=133.978638m. Speed=2.736000m/h.</desc>
<speed>0.760000</speed>
</trkpt>
<trkpt lat="55.837830" lon="26.093534">
<ele>134.002075</ele>
<time>2010-07-17T14:01:02Z</time>
<desc>lat.=55.837830, lon.=26.093534, Alt.=134.002075m. Speed=2.772000m/h.</desc>
<speed>0.770000</speed>
</trkpt>
<trkpt lat="55.837826" lon="26.093525">
<ele>133.959106</ele>
<time>2010-07-17T14:01:03Z</time>
<desc>lat.=55.837826, lon.=26.093525, Alt.=133.959106m. Speed=3.636000m/h.</desc>
<speed>1.010000</speed>
</trkpt>
<trkpt lat="55.837826" lon="26.093502">
<ele>134.009888</ele>
<time>2010-07-17T14:01:04Z</time>
<desc>lat.=55.837826, lon.=26.093502, Alt.=134.009888m. Speed=4.428000m/h.</desc>
<speed>1.230000</speed>
</trkpt>
<trkpt lat="55.837826" lon="26.093485">
<ele>133.994263</ele>
<time>2010-07-17T14:01:05Z</time>
<desc>lat.=55.837826, lon.=26.093485, Alt.=133.994263m. Speed=3.276000m/h.</desc>
<speed>0.910000</speed>
</trkpt>
<trkpt lat="55.837822" lon="26.093468">
<ele>134.111450</ele>
<time>2010-07-17T14:01:06Z</time>
<desc>lat.=55.837822, lon.=26.093468, Alt.=134.111450m. Speed=4.104000m/h.</desc>
<speed>1.140000</speed>
</trkpt>
<trkpt lat="55.837818" lon="26.093447">
<ele>134.189575</ele>
<time>2010-07-17T14:01:07Z</time>
<desc>lat.=55.837818, lon.=26.093447, Alt.=134.189575m. Speed=4.500000m/h.</desc>
<speed>1.250000</speed>
</trkpt>
<trkpt lat="55.837814" lon="26.093439">
<ele>134.361450</ele>
<time>2010-07-17T14:01:08Z</time>
<desc>lat.=55.837814, lon.=26.093439, Alt.=134.361450m. Speed=4.464000m/h.</desc>
<speed>1.240000</speed>
</trkpt>
<trkpt lat="55.837811" lon="26.093409">
<ele>134.521606</ele>
<time>2010-07-17T14:01:09Z</time>
<desc>lat.=55.837811, lon.=26.093409, Alt.=134.521606m. Speed=5.148000m/h.</desc>
<speed>1.430000</speed>
</trkpt>
<trkpt lat="55.837811" lon="26.093401">
<ele>134.849731</ele>
<time>2010-07-17T14:01:10Z</time>
<desc>lat.=55.837811, lon.=26.093401, Alt.=134.849731m. Speed=4.860000m/h.</desc>
<speed>1.350000</speed>
</trkpt>
<trkpt lat="55.837807" lon="26.093390">
<ele>135.037231</ele>
<time>2010-07-17T14:01:11Z</time>
<desc>lat.=55.837807, lon.=26.093390, Alt.=135.037231m. Speed=3.564000m/h.</desc>
<speed>0.990000</speed>
</trkpt>
<trkpt lat="55.837799" lon="26.093369">
<ele>135.283325</ele>
<time>2010-07-17T14:01:12Z</time>
<desc>lat.=55.837799, lon.=26.093369, Alt.=135.283325m. Speed=4.608000m/h.</desc>
<speed>1.280000</speed>
</trkpt>
<trkpt lat="55.837795" lon="26.093357">
<ele>135.736450</ele>
<time>2010-07-17T14:01:13Z</time>
<desc>lat.=55.837795, lon.=26.093357, Alt.=135.736450m. Speed=4.896000m/h.</desc>
<speed>1.360000</speed>
</trkpt>
<trkpt lat="55.837791" lon="26.093344">
<ele>135.736450</ele>
<time>2010-07-17T14:01:14Z</time>
<desc>lat.=55.837791, lon.=26.093344, Alt.=135.736450m. Speed=3.744000m/h.</desc>
<speed>1.040000</speed>
</trkpt>
<trkpt lat="55.837784" lon="26.093325">
<ele>135.755981</ele>
<time>2010-07-17T14:01:15Z</time>
<desc>lat.=55.837784, lon.=26.093325, Alt.=135.755981m. Speed=3.996000m/h.</desc>
<speed>1.110000</speed>
</trkpt>
<trkpt lat="55.837772" lon="26.093311">
<ele>135.900513</ele>
<time>2010-07-17T14:01:16Z</time>
<desc>lat.=55.837772, lon.=26.093311, Alt.=135.900513m. Speed=4.536000m/h.</desc>
<speed>1.260000</speed>
</trkpt>
<trkpt lat="55.837761" lon="26.093298">
<ele>135.474731</ele>
<time>2010-07-17T14:01:17Z</time>
<desc>lat.=55.837761, lon.=26.093298, Alt.=135.474731m. Speed=3.636000m/h.</desc>
<speed>1.010000</speed>
</trkpt>
<trkpt lat="55.837749" lon="26.093288">
<ele>135.400513</ele>
<time>2010-07-17T14:01:18Z</time>
<desc>lat.=55.837749, lon.=26.093288, Alt.=135.400513m. Speed=5.256000m/h.</desc>
<speed>1.460000</speed>
</trkpt>
<trkpt lat="55.837738" lon="26.093269">
<ele>135.232544</ele>
<time>2010-07-17T14:01:19Z</time>
<desc>lat.=55.837738, lon.=26.093269, Alt.=135.232544m. Speed=5.040000m/h.</desc>
<speed>1.400000</speed>
</trkpt>
<trkpt lat="55.837727" lon="26.093250">
<ele>135.091919</ele>
<time>2010-07-17T14:01:20Z</time>
<desc>lat.=55.837727, lon.=26.093250, Alt.=135.091919m. Speed=4.212000m/h.</desc>
<speed>1.170000</speed>
</trkpt>
<trkpt lat="55.837723" lon="26.093225">
<ele>135.388794</ele>
<time>2010-07-17T14:01:21Z</time>
<desc>lat.=55.837723, lon.=26.093225, Alt.=135.388794m. Speed=3.096000m/h.</desc>
<speed>0.860000</speed>
</trkpt>
<trkpt lat="55.837715" lon="26.093214">
<ele>135.209106</ele>
<time>2010-07-17T14:01:22Z</time>
<desc>lat.=55.837715, lon.=26.093214, Alt.=135.209106m. Speed=1.692000m/h.</desc>
<speed>0.470000</speed>
</trkpt>
<trkpt lat="55.837715" lon="26.093210">
<ele>135.322388</ele>
<time>2010-07-17T14:01:23Z</time>
<desc>lat.=55.837715, lon.=26.093210, Alt.=135.322388m. Speed=2.160000m/h.</desc>
<speed>0.600000</speed>
</trkpt>
<trkpt lat="55.837715" lon="26.093199">
<ele>135.439575</ele>
<time>2010-07-17T14:01:24Z</time>
<desc>lat.=55.837715, lon.=26.093199, Alt.=135.439575m. Speed=2.700000m/h.</desc>
<speed>0.750000</speed>
</trkpt>
<trkpt lat="55.837711" lon="26.093189">
<ele>135.259888</ele>
<time>2010-07-17T14:01:25Z</time>
<desc>lat.=55.837711, lon.=26.093189, Alt.=135.259888m. Speed=2.124000m/h.</desc>
<speed>0.590000</speed>
</trkpt>
<trkpt lat="55.837708" lon="26.093184">
<ele>135.189575</ele>
<time>2010-07-17T14:01:26Z</time>
<desc>lat.=55.837708, lon.=26.093184, Alt.=135.189575m. Speed=2.160000m/h.</desc>
<speed>0.600000</speed>
</trkpt>
<trkpt lat="55.837692" lon="26.093185">
<ele>134.603638</ele>
<time>2010-07-17T14:01:27Z</time>
<desc>lat.=55.837692, lon.=26.093185, Alt.=134.603638m. Speed=3.132000m/h.</desc>
<speed>0.870000</speed>
</trkpt>
<trkpt lat="55.837688" lon="26.093172">
<ele>134.447388</ele>
<time>2010-07-17T14:01:28Z</time>
<desc>lat.=55.837688, lon.=26.093172, Alt.=134.447388m. Speed=2.952000m/h.</desc>
<speed>0.820000</speed>
</trkpt>
<trkpt lat="55.837681" lon="26.093164">
<ele>134.455200</ele>
<time>2010-07-17T14:01:29Z</time>
<desc>lat.=55.837681, lon.=26.093164, Alt.=134.455200m. Speed=2.592000m/h.</desc>
<speed>0.720000</speed>
</trkpt>
<trkpt lat="55.837673" lon="26.093151">
<ele>134.529419</ele>
<time>2010-07-17T14:01:30Z</time>
<desc>lat.=55.837673, lon.=26.093151, Alt.=134.529419m. Speed=2.304000m/h.</desc>
<speed>0.640000</speed>
</trkpt>
<trkpt lat="55.837654" lon="26.093128">
<ele>134.349731</ele>
<time>2010-07-17T14:01:31Z</time>
<desc>lat.=55.837654, lon.=26.093128, Alt.=134.349731m. Speed=3.852000m/h.</desc>
<speed>1.070000</speed>
</trkpt>
<trkpt lat="55.837643" lon="26.093113">
<ele>134.517700</ele>
<time>2010-07-17T14:01:32Z</time>
<desc>lat.=55.837643, lon.=26.093113, Alt.=134.517700m. Speed=3.492000m/h.</desc>
<speed>0.970000</speed>
</trkpt>
<trkpt lat="55.837635" lon="26.093103">
<ele>134.580200</ele>
<time>2010-07-17T14:01:33Z</time>
<desc>lat.=55.837635, lon.=26.093103, Alt.=134.580200m. Speed=1.692000m/h.</desc>
<speed>0.470000</speed>
</trkpt>
<trkpt lat="55.837631" lon="26.093092">
<ele>134.611450</ele>
<time>2010-07-17T14:01:34Z</time>
<desc>lat.=55.837631, lon.=26.093092, Alt.=134.611450m. Speed=2.556000m/h.</desc>
<speed>0.710000</speed>
</trkpt>
<trkpt lat="55.837624" lon="26.093079">
<ele>134.670044</ele>
<time>2010-07-17T14:01:35Z</time>
<desc>lat.=55.837624, lon.=26.093079, Alt.=134.670044m. Speed=3.564000m/h.</desc>
<speed>0.990000</speed>
</trkpt>
<trkpt lat="55.837616" lon="26.093067">
<ele>134.681763</ele>
<time>2010-07-17T14:01:36Z</time>
<desc>lat.=55.837616, lon.=26.093067, Alt.=134.681763m. Speed=3.636000m/h.</desc>
<speed>1.010000</speed>
</trkpt>
<trkpt lat="55.837608" lon="26.093058">
<ele>134.771606</ele>
<time>2010-07-17T14:01:37Z</time>
<desc>lat.=55.837608, lon.=26.093058, Alt.=134.771606m. Speed=3.348000m/h.</desc>
<speed>0.930000</speed>
</trkpt>
<trkpt lat="55.837601" lon="26.093050">
<ele>134.822388</ele>
<time>2010-07-17T14:01:38Z</time>
<desc>lat.=55.837601, lon.=26.093050, Alt.=134.822388m. Speed=3.456000m/h.</desc>
<speed>0.960000</speed>
</trkpt>
<trkpt lat="55.837589" lon="26.093031">
<ele>134.810669</ele>
<time>2010-07-17T14:01:39Z</time>
<desc>lat.=55.837589, lon.=26.093031, Alt.=134.810669m. Speed=3.672000m/h.</desc>
<speed>1.020000</speed>
</trkpt>
<trkpt lat="55.837585" lon="26.093021">
<ele>134.795044</ele>
<time>2010-07-17T14:01:40Z</time>
<desc>lat.=55.837585, lon.=26.093021, Alt.=134.795044m. Speed=4.392000m/h.</desc>
<speed>1.220000</speed>
</trkpt>
<trkpt lat="55.837585" lon="26.093002">
<ele>134.970825</ele>
<time>2010-07-17T14:01:41Z</time>
<desc>lat.=55.837585, lon.=26.093002, Alt.=134.970825m. Speed=3.312000m/h.</desc>
<speed>0.920000</speed>
</trkpt>
<trkpt lat="55.837578" lon="26.092981">
<ele>135.127075</ele>
<time>2010-07-17T14:01:42Z</time>
<desc>lat.=55.837578, lon.=26.092981, Alt.=135.127075m. Speed=5.760000m/h.</desc>
<speed>1.600000</speed>
</trkpt>
<trkpt lat="55.837574" lon="26.092964">
<ele>135.095825</ele>
<time>2010-07-17T14:01:43Z</time>
<desc>lat.=55.837574, lon.=26.092964, Alt.=135.095825m. Speed=2.376000m/h.</desc>
<speed>0.660000</speed>
</trkpt>
<trkpt lat="55.837574" lon="26.092953">
<ele>135.091919</ele>
<time>2010-07-17T14:01:44Z</time>
<desc>lat.=55.837574, lon.=26.092953, Alt.=135.091919m. Speed=2.448000m/h.</desc>
<speed>0.680000</speed>
</trkpt>
<trkpt lat="55.837570" lon="26.092934">
<ele>135.064575</ele>
<time>2010-07-17T14:01:45Z</time>
<desc>lat.=55.837570, lon.=26.092934, Alt.=135.064575m. Speed=3.240000m/h.</desc>
<speed>0.900000</speed>
</trkpt>
<trkpt lat="55.837574" lon="26.092922">
<ele>135.365356</ele>
<time>2010-07-17T14:01:46Z</time>
<desc>lat.=55.837574, lon.=26.092922, Alt.=135.365356m. Speed=3.456000m/h.</desc>
<speed>0.960000</speed>
</trkpt>
<trkpt lat="55.837574" lon="26.092913">
<ele>135.338013</ele>
<time>2010-07-17T14:01:47Z</time>
<desc>lat.=55.837574, lon.=26.092913, Alt.=135.338013m. Speed=3.204000m/h.</desc>
<speed>0.890000</speed>
</trkpt>
<trkpt lat="55.837570" lon="26.092903">
<ele>135.279419</ele>
<time>2010-07-17T14:01:48Z</time>
<desc>lat.=55.837570, lon.=26.092903, Alt.=135.279419m. Speed=3.060000m/h.</desc>
<speed>0.850000</speed>
</trkpt>
<trkpt lat="55.837566" lon="26.092897">
<ele>135.306763</ele>
<time>2010-07-17T14:01:49Z</time>
<desc>lat.=55.837566, lon.=26.092897, Alt.=135.306763m. Speed=1.980000m/h.</desc>
<speed>0.550000</speed>
</trkpt>
<trkpt lat="55.837563" lon="26.092884">
<ele>135.404419</ele>
<time>2010-07-17T14:01:50Z</time>
<desc>lat.=55.837563, lon.=26.092884, Alt.=135.404419m. Speed=1.620000m/h.</desc>
<speed>0.450000</speed>
</trkpt>
<trkpt lat="55.837559" lon="26.092863">
<ele>135.459106</ele>
<time>2010-07-17T14:01:51Z</time>
<desc>lat.=55.837559, lon.=26.092863, Alt.=135.459106m. Speed=1.728000m/h.</desc>
<speed>0.480000</speed>
</trkpt>
<trkpt lat="55.837555" lon="26.092844">
<ele>135.529419</ele>
<time>2010-07-17T14:01:52Z</time>
<desc>lat.=55.837555, lon.=26.092844, Alt.=135.529419m. Speed=1.944000m/h.</desc>
<speed>0.540000</speed>
</trkpt>
<trkpt lat="55.837543" lon="26.092800">
<ele>137.834106</ele>
<time>2010-07-17T14:01:53Z</time>
<desc>lat.=55.837543, lon.=26.092800, Alt.=137.834106m. Speed=3.060000m/h.</desc>
<speed>0.850000</speed>
</trkpt>
<trkpt lat="55.837540" lon="26.092785">
<ele>138.072388</ele>
<time>2010-07-17T14:01:54Z</time>
<desc>lat.=55.837540, lon.=26.092785, Alt.=138.072388m. Speed=2.844000m/h.</desc>
<speed>0.790000</speed>
</trkpt>
<trkpt lat="55.837540" lon="26.092764">
<ele>138.060669</ele>
<time>2010-07-17T14:01:55Z</time>
<desc>lat.=55.837540, lon.=26.092764, Alt.=138.060669m. Speed=3.528000m/h.</desc>
<speed>0.980000</speed>
</trkpt>
<trkpt lat="55.837540" lon="26.092741">
<ele>138.255981</ele>
<time>2010-07-17T14:01:56Z</time>
<desc>lat.=55.837540, lon.=26.092741, Alt.=138.255981m. Speed=4.104000m/h.</desc>
<speed>1.140000</speed>
</trkpt>
<trkpt lat="55.837536" lon="26.092720">
<ele>138.420044</ele>
<time>2010-07-17T14:01:57Z</time>
<desc>lat.=55.837536, lon.=26.092720, Alt.=138.420044m. Speed=3.564000m/h.</desc>
<speed>0.990000</speed>
</trkpt>
<trkpt lat="55.837536" lon="26.092709">
<ele>138.267700</ele>
<time>2010-07-17T14:01:58Z</time>
<desc>lat.=55.837536, lon.=26.092709, Alt.=138.267700m. Speed=3.204000m/h.</desc>
<speed>0.890000</speed>
</trkpt>
<trkpt lat="55.837536" lon="26.092697">
<ele>138.228638</ele>
<time>2010-07-17T14:01:59Z</time>
<desc>lat.=55.837536, lon.=26.092697, Alt.=138.228638m. Speed=2.412000m/h.</desc>
<speed>0.670000</speed>
</trkpt>
<trkpt lat="55.837532" lon="26.092690">
<ele>138.185669</ele>
<time>2010-07-17T14:02:00Z</time>
<desc>lat.=55.837532, lon.=26.092690, Alt.=138.185669m. Speed=2.232000m/h.</desc>
<speed>0.620000</speed>
</trkpt>
<trkpt lat="55.837524" lon="26.092674">
<ele>138.099731</ele>
<time>2010-07-17T14:02:01Z</time>
<desc>lat.=55.837524, lon.=26.092674, Alt.=138.099731m. Speed=3.132000m/h.</desc>
<speed>0.870000</speed>
</trkpt>
<trkpt lat="55.837517" lon="26.092663">
<ele>138.064575</ele>
<time>2010-07-17T14:02:02Z</time>
<desc>lat.=55.837517, lon.=26.092663, Alt.=138.064575m. Speed=3.564000m/h.</desc>
<speed>0.990000</speed>
</trkpt>
<trkpt lat="55.837505" lon="26.092634">
<ele>138.146606</ele>
<time>2010-07-17T14:02:03Z</time>
<desc>lat.=55.837505, lon.=26.092634, Alt.=138.146606m. Speed=5.400000m/h.</desc>
<speed>1.500000</speed>
</trkpt>
<trkpt lat="55.837498" lon="26.092613">
<ele>138.181763</ele>
<time>2010-07-17T14:02:04Z</time>
<desc>lat.=55.837498, lon.=26.092613, Alt.=138.181763m. Speed=2.988000m/h.</desc>
<speed>0.830000</speed>
</trkpt>
<trkpt lat="55.837490" lon="26.092598">
<ele>138.923950</ele>
<time>2010-07-17T14:02:05Z</time>
<desc>lat.=55.837490, lon.=26.092598, Alt.=138.923950m. Speed=3.888000m/h.</desc>
<speed>1.080000</speed>
</trkpt>
<trkpt lat="55.837479" lon="26.092590">
<ele>138.943481</ele>
<time>2010-07-17T14:02:06Z</time>
<desc>lat.=55.837479, lon.=26.092590, Alt.=138.943481m. Speed=5.364000m/h.</desc>
<speed>1.490000</speed>
</trkpt>
<trkpt lat="55.837471" lon="26.092569">
<ele>139.060669</ele>
<time>2010-07-17T14:02:07Z</time>
<desc>lat.=55.837471, lon.=26.092569, Alt.=139.060669m. Speed=3.276000m/h.</desc>
<speed>0.910000</speed>
</trkpt>
<trkpt lat="55.837456" lon="26.092541">
<ele>139.127075</ele>
<time>2010-07-17T14:02:08Z</time>
<desc>lat.=55.837456, lon.=26.092541, Alt.=139.127075m. Speed=6.336000m/h.</desc>
<speed>1.760000</speed>
</trkpt>
<trkpt lat="55.837440" lon="26.092520">
<ele>139.759888</ele>
<time>2010-07-17T14:02:09Z</time>
<desc>lat.=55.837440, lon.=26.092520, Alt.=139.759888m. Speed=7.344000m/h.</desc>
<speed>2.040000</speed>
</trkpt>
<trkpt lat="55.837425" lon="26.092493">
<ele>139.084106</ele>
<time>2010-07-17T14:02:10Z</time>
<desc>lat.=55.837425, lon.=26.092493, Alt.=139.084106m. Speed=7.380000m/h.</desc>
<speed>2.050000</speed>
</trkpt>
<trkpt lat="55.837414" lon="26.092461">
<ele>138.845825</ele>
<time>2010-07-17T14:02:11Z</time>
<desc>lat.=55.837414, lon.=26.092461, Alt.=138.845825m. Speed=7.560000m/h.</desc>
<speed>2.100000</speed>
</trkpt>
<trkpt lat="55.837402" lon="26.092428">
<ele>138.545044</ele>
<time>2010-07-17T14:02:12Z</time>
<desc>lat.=55.837402, lon.=26.092428, Alt.=138.545044m. Speed=8.280000m/h.</desc>
<speed>2.300000</speed>
</trkpt>
<trkpt lat="55.837391" lon="26.092400">
<ele>138.396606</ele>
<time>2010-07-17T14:02:13Z</time>
<desc>lat.=55.837391, lon.=26.092400, Alt.=138.396606m. Speed=6.876000m/h.</desc>
<speed>1.910000</speed>
</trkpt>
<trkpt lat="55.837379" lon="26.092371">
<ele>138.295044</ele>
<time>2010-07-17T14:02:14Z</time>
<desc>lat.=55.837379, lon.=26.092371, Alt.=138.295044m. Speed=6.660000m/h.</desc>
<speed>1.850000</speed>
</trkpt>
<trkpt lat="55.837376" lon="26.092340">
<ele>138.189575</ele>
<time>2010-07-17T14:02:15Z</time>
<desc>lat.=55.837376, lon.=26.092340, Alt.=138.189575m. Speed=5.616000m/h.</desc>
<speed>1.560000</speed>
</trkpt>
<trkpt lat="55.837364" lon="26.092308">
<ele>137.931763</ele>
<time>2010-07-17T14:02:16Z</time>
<desc>lat.=55.837364, lon.=26.092308, Alt.=137.931763m. Speed=6.948000m/h.</desc>
<speed>1.930000</speed>
</trkpt>
<trkpt lat="55.837357" lon="26.092276">
<ele>137.822388</ele>
<time>2010-07-17T14:02:17Z</time>
<desc>lat.=55.837357, lon.=26.092276, Alt.=137.822388m. Speed=8.388000m/h.</desc>
<speed>2.330000</speed>
</trkpt>
<trkpt lat="55.837341" lon="26.092243">
<ele>137.701294</ele>
<time>2010-07-17T14:02:18Z</time>
<desc>lat.=55.837341, lon.=26.092243, Alt.=137.701294m. Speed=6.948000m/h.</desc>
<speed>1.930000</speed>
</trkpt>
<trkpt lat="55.837334" lon="26.092213">
<ele>137.459106</ele>
<time>2010-07-17T14:02:19Z</time>
<desc>lat.=55.837334, lon.=26.092213, Alt.=137.459106m. Speed=6.948000m/h.</desc>
<speed>1.930000</speed>
</trkpt>
<trkpt lat="55.837326" lon="26.092192">
<ele>137.322388</ele>
<time>2010-07-17T14:02:20Z</time>
<desc>lat.=55.837326, lon.=26.092192, Alt.=137.322388m. Speed=6.084000m/h.</desc>
<speed>1.690000</speed>
</trkpt>
<trkpt lat="55.837315" lon="26.092157">
<ele>137.310669</ele>
<time>2010-07-17T14:02:21Z</time>
<desc>lat.=55.837315, lon.=26.092157, Alt.=137.310669m. Speed=7.560000m/h.</desc>
<speed>2.100000</speed>
</trkpt>
<trkpt lat="55.837307" lon="26.092125">
<ele>137.107544</ele>
<time>2010-07-17T14:02:22Z</time>
<desc>lat.=55.837307, lon.=26.092125, Alt.=137.107544m. Speed=7.740000m/h.</desc>
<speed>2.150000</speed>
</trkpt>
<trkpt lat="55.837292" lon="26.092096">
<ele>137.240356</ele>
<time>2010-07-17T14:02:23Z</time>
<desc>lat.=55.837292, lon.=26.092096, Alt.=137.240356m. Speed=7.452000m/h.</desc>
<speed>2.070000</speed>
</trkpt>
<trkpt lat="55.837280" lon="26.092066">
<ele>137.279419</ele>
<time>2010-07-17T14:02:24Z</time>
<desc>lat.=55.837280, lon.=26.092066, Alt.=137.279419m. Speed=7.488000m/h.</desc>
<speed>2.080000</speed>
</trkpt>
<trkpt lat="55.837269" lon="26.092022">
<ele>137.146606</ele>
<time>2010-07-17T14:02:25Z</time>
<desc>lat.=55.837269, lon.=26.092022, Alt.=137.146606m. Speed=10.908000m/h.</desc>
<speed>3.030000</speed>
</trkpt>
<trkpt lat="55.837257" lon="26.091988">
<ele>137.334106</ele>
<time>2010-07-17T14:02:26Z</time>
<desc>lat.=55.837257, lon.=26.091988, Alt.=137.334106m. Speed=8.496000m/h.</desc>
<speed>2.360000</speed>
</trkpt>
<trkpt lat="55.837242" lon="26.091967">
<ele>137.759888</ele>
<time>2010-07-17T14:02:27Z</time>
<desc>lat.=55.837242, lon.=26.091967, Alt.=137.759888m. Speed=7.632000m/h.</desc>
<speed>2.120000</speed>
</trkpt>
<trkpt lat="55.837231" lon="26.091944">
<ele>137.814575</ele>
<time>2010-07-17T14:02:28Z</time>
<desc>lat.=55.837231, lon.=26.091944, Alt.=137.814575m. Speed=6.768000m/h.</desc>
<speed>1.880000</speed>
</trkpt>
<trkpt lat="55.837219" lon="26.091927">
<ele>137.884888</ele>
<time>2010-07-17T14:02:29Z</time>
<desc>lat.=55.837219, lon.=26.091927, Alt.=137.884888m. Speed=5.976000m/h.</desc>
<speed>1.660000</speed>
</trkpt>
<trkpt lat="55.837212" lon="26.091917">
<ele>138.345825</ele>
<time>2010-07-17T14:02:30Z</time>
<desc>lat.=55.837212, lon.=26.091917, Alt.=138.345825m. Speed=5.796000m/h.</desc>
<speed>1.610000</speed>
</trkpt>
<trkpt lat="55.837204" lon="26.091900">
<ele>138.767700</ele>
<time>2010-07-17T14:02:31Z</time>
<desc>lat.=55.837204, lon.=26.091900, Alt.=138.767700m. Speed=8.460000m/h.</desc>
<speed>2.350000</speed>
</trkpt>
<trkpt lat="55.837185" lon="26.091883">
<ele>139.634888</ele>
<time>2010-07-17T14:02:32Z</time>
<desc>lat.=55.837185, lon.=26.091883, Alt.=139.634888m. Speed=6.372000m/h.</desc>
<speed>1.770000</speed>
</trkpt>
<trkpt lat="55.837181" lon="26.091858">
<ele>140.154419</ele>
<time>2010-07-17T14:02:33Z</time>
<desc>lat.=55.837181, lon.=26.091858, Alt.=140.154419m. Speed=4.680000m/h.</desc>
<speed>1.300000</speed>
</trkpt>
<trkpt lat="55.837185" lon="26.091846">
<ele>141.615356</ele>
<time>2010-07-17T14:02:34Z</time>
<desc>lat.=55.837185, lon.=26.091846, Alt.=141.615356m. Speed=3.420000m/h.</desc>
<speed>0.950000</speed>
</trkpt>
<trkpt lat="55.837193" lon="26.091835">
<ele>141.927856</ele>
<time>2010-07-17T14:02:35Z</time>
<desc>lat.=55.837193, lon.=26.091835, Alt.=141.927856m. Speed=4.932000m/h.</desc>
<speed>1.370000</speed>
</trkpt>
<trkpt lat="55.837200" lon="26.091814">
<ele>142.064575</ele>
<time>2010-07-17T14:02:36Z</time>
<desc>lat.=55.837200, lon.=26.091814, Alt.=142.064575m. Speed=4.248000m/h.</desc>
<speed>1.180000</speed>
</trkpt>
<trkpt lat="55.837208" lon="26.091805">
<ele>143.084106</ele>
<time>2010-07-17T14:02:37Z</time>
<desc>lat.=55.837208, lon.=26.091805, Alt.=143.084106m. Speed=3.168000m/h.</desc>
<speed>0.880000</speed>
</trkpt>
<trkpt lat="55.837215" lon="26.091787">
<ele>143.966919</ele>
<time>2010-07-17T14:02:38Z</time>
<desc>lat.=55.837215, lon.=26.091787, Alt.=143.966919m. Speed=3.744000m/h.</desc>
<speed>1.040000</speed>
</trkpt>
<trkpt lat="55.837223" lon="26.091768">
<ele>144.857544</ele>
<time>2010-07-17T14:02:39Z</time>
<desc>lat.=55.837223, lon.=26.091768, Alt.=144.857544m. Speed=4.608000m/h.</desc>
<speed>1.280000</speed>
</trkpt>
<trkpt lat="55.837238" lon="26.091768">
<ele>145.931763</ele>
<time>2010-07-17T14:02:40Z</time>
<desc>lat.=55.837238, lon.=26.091768, Alt.=145.931763m. Speed=3.636000m/h.</desc>
<speed>1.010000</speed>
</trkpt>
<trkpt lat="55.837242" lon="26.091753">
<ele>145.966919</ele>
<time>2010-07-17T14:02:41Z</time>
<desc>lat.=55.837242, lon.=26.091753, Alt.=145.966919m. Speed=3.564000m/h.</desc>
<speed>0.990000</speed>
</trkpt>
<trkpt lat="55.837254" lon="26.091740">
<ele>146.279419</ele>
<time>2010-07-17T14:02:42Z</time>
<desc>lat.=55.837254, lon.=26.091740, Alt.=146.279419m. Speed=3.528000m/h.</desc>
<speed>0.980000</speed>
</trkpt>
<trkpt lat="55.837269" lon="26.091719">
<ele>146.845825</ele>
<time>2010-07-17T14:02:43Z</time>
<desc>lat.=55.837269, lon.=26.091719, Alt.=146.845825m. Speed=4.824000m/h.</desc>
<speed>1.340000</speed>
</trkpt>
<trkpt lat="55.837273" lon="26.091700">
<ele>147.252075</ele>
<time>2010-07-17T14:02:44Z</time>
<desc>lat.=55.837273, lon.=26.091700, Alt.=147.252075m. Speed=4.644000m/h.</desc>
<speed>1.290000</speed>
</trkpt>
<trkpt lat="55.837276" lon="26.091684">
<ele>147.591919</ele>
<time>2010-07-17T14:02:45Z</time>
<desc>lat.=55.837276, lon.=26.091684, Alt.=147.591919m. Speed=4.644000m/h.</desc>
<speed>1.290000</speed>
</trkpt>
<trkpt lat="55.837292" lon="26.091654">
<ele>147.670044</ele>
<time>2010-07-17T14:02:46Z</time>
<desc>lat.=55.837292, lon.=26.091654, Alt.=147.670044m. Speed=5.004000m/h.</desc>
<speed>1.390000</speed>
</trkpt>
<trkpt lat="55.837307" lon="26.091621">
<ele>147.502075</ele>
<time>2010-07-17T14:02:47Z</time>
<desc>lat.=55.837307, lon.=26.091621, Alt.=147.502075m. Speed=5.436000m/h.</desc>
<speed>1.510000</speed>
</trkpt>
<trkpt lat="55.837318" lon="26.091600">
<ele>147.814575</ele>
<time>2010-07-17T14:02:48Z</time>
<desc>lat.=55.837318, lon.=26.091600, Alt.=147.814575m. Speed=7.704000m/h.</desc>
<speed>2.140000</speed>
</trkpt>
<trkpt lat="55.837334" lon="26.091576">
<ele>148.091919</ele>
<time>2010-07-17T14:02:49Z</time>
<desc>lat.=55.837334, lon.=26.091576, Alt.=148.091919m. Speed=6.408000m/h.</desc>
<speed>1.780000</speed>
</trkpt>
<trkpt lat="55.837345" lon="26.091557">
<ele>148.330200</ele>
<time>2010-07-17T14:02:50Z</time>
<desc>lat.=55.837345, lon.=26.091557, Alt.=148.330200m. Speed=5.832000m/h.</desc>
<speed>1.620000</speed>
</trkpt>
<trkpt lat="55.837353" lon="26.091541">
<ele>148.677856</ele>
<time>2010-07-17T14:02:51Z</time>
<desc>lat.=55.837353, lon.=26.091541, Alt.=148.677856m. Speed=3.960000m/h.</desc>
<speed>1.100000</speed>
</trkpt>
<trkpt lat="55.837379" lon="26.091511">
<ele>149.170044</ele>
<time>2010-07-17T14:02:52Z</time>
<desc>lat.=55.837379, lon.=26.091511, Alt.=149.170044m. Speed=5.832000m/h.</desc>
<speed>1.620000</speed>
</trkpt>
<trkpt lat="55.837387" lon="26.091488">
<ele>149.392700</ele>
<time>2010-07-17T14:02:53Z</time>
<desc>lat.=55.837387, lon.=26.091488, Alt.=149.392700m. Speed=4.788000m/h.</desc>
<speed>1.330000</speed>
</trkpt>
<trkpt lat="55.837399" lon="26.091475">
<ele>149.759888</ele>
<time>2010-07-17T14:02:54Z</time>
<desc>lat.=55.837399, lon.=26.091475, Alt.=149.759888m. Speed=4.536000m/h.</desc>
<speed>1.260000</speed>
</trkpt>
<trkpt lat="55.837410" lon="26.091457">
<ele>149.670044</ele>
<time>2010-07-17T14:02:55Z</time>
<desc>lat.=55.837410, lon.=26.091457, Alt.=149.670044m. Speed=7.884000m/h.</desc>
<speed>2.190000</speed>
</trkpt>
<trkpt lat="55.837425" lon="26.091429">
<ele>149.755981</ele>
<time>2010-07-17T14:02:56Z</time>
<desc>lat.=55.837425, lon.=26.091429, Alt.=149.755981m. Speed=7.236000m/h.</desc>
<speed>2.010000</speed>
</trkpt>
<trkpt lat="55.837440" lon="26.091402">
<ele>150.107544</ele>
<time>2010-07-17T14:02:57Z</time>
<desc>lat.=55.837440, lon.=26.091402, Alt.=150.107544m. Speed=6.948000m/h.</desc>
<speed>1.930000</speed>
</trkpt>
<trkpt lat="55.837460" lon="26.091362">
<ele>150.005981</ele>
<time>2010-07-17T14:02:58Z</time>
<desc>lat.=55.837460, lon.=26.091362, Alt.=150.005981m. Speed=9.108000m/h.</desc>
<speed>2.530000</speed>
</trkpt>
<trkpt lat="55.837475" lon="26.091326">
<ele>150.091919</ele>
<time>2010-07-17T14:02:59Z</time>
<desc>lat.=55.837475, lon.=26.091326, Alt.=150.091919m. Speed=8.748000m/h.</desc>
<speed>2.430000</speed>
</trkpt>
<trkpt lat="55.837486" lon="26.091291">
<ele>150.306763</ele>
<time>2010-07-17T14:03:00Z</time>
<desc>lat.=55.837486, lon.=26.091291, Alt.=150.306763m. Speed=9.684000m/h.</desc>
<speed>2.690000</speed>
</trkpt>
<trkpt lat="55.837502" lon="26.091251">
<ele>150.396606</ele>
<time>2010-07-17T14:03:01Z</time>
<desc>lat.=55.837502, lon.=26.091251, Alt.=150.396606m. Speed=9.360000m/h.</desc>
<speed>2.600000</speed>
</trkpt>
<trkpt lat="55.837532" lon="26.091213">
<ele>151.498169</ele>
<time>2010-07-17T14:03:02Z</time>
<desc>lat.=55.837532, lon.=26.091213, Alt.=151.498169m. Speed=10.980000m/h.</desc>
<speed>3.050000</speed>
</trkpt>
<trkpt lat="55.837551" lon="26.091181">
<ele>152.166138</ele>
<time>2010-07-17T14:03:03Z</time>
<desc>lat.=55.837551, lon.=26.091181, Alt.=152.166138m. Speed=9.468000m/h.</desc>
<speed>2.630000</speed>
</trkpt>
<trkpt lat="55.837570" lon="26.091146">
<ele>153.134888</ele>
<time>2010-07-17T14:03:04Z</time>
<desc>lat.=55.837570, lon.=26.091146, Alt.=153.134888m. Speed=11.088000m/h.</desc>
<speed>3.080000</speed>
</trkpt>
<trkpt lat="55.837593" lon="26.091108">
<ele>153.427856</ele>
<time>2010-07-17T14:03:05Z</time>
<desc>lat.=55.837593, lon.=26.091108, Alt.=153.427856m. Speed=11.160000m/h.</desc>
<speed>3.100000</speed>
</trkpt>
<trkpt lat="55.837605" lon="26.091055">
<ele>153.654419</ele>
<time>2010-07-17T14:03:06Z</time>
<desc>lat.=55.837605, lon.=26.091055, Alt.=153.654419m. Speed=10.692000m/h.</desc>
<speed>2.970000</speed>
</trkpt>
<trkpt lat="55.837616" lon="26.091011">
<ele>154.177856</ele>
<time>2010-07-17T14:03:07Z</time>
<desc>lat.=55.837616, lon.=26.091011, Alt.=154.177856m. Speed=10.656000m/h.</desc>
<speed>2.960000</speed>
</trkpt>
<trkpt lat="55.837631" lon="26.090961">
<ele>153.982544</ele>
<time>2010-07-17T14:03:08Z</time>
<desc>lat.=55.837631, lon.=26.090961, Alt.=153.982544m. Speed=11.088000m/h.</desc>
<speed>3.080000</speed>
</trkpt>
<trkpt lat="55.837658" lon="26.090916">
<ele>153.603638</ele>
<time>2010-07-17T14:03:09Z</time>
<desc>lat.=55.837658, lon.=26.090916, Alt.=153.603638m. Speed=11.160000m/h.</desc>
<speed>3.100000</speed>
</trkpt>
<trkpt lat="55.837681" lon="26.090874">
<ele>153.142700</ele>
<time>2010-07-17T14:03:10Z</time>
<desc>lat.=55.837681, lon.=26.090874, Alt.=153.142700m. Speed=11.916000m/h.</desc>
<speed>3.310000</speed>
</trkpt>
<trkpt lat="55.837704" lon="26.090834">
<ele>153.353638</ele>
<time>2010-07-17T14:03:11Z</time>
<desc>lat.=55.837704, lon.=26.090834, Alt.=153.353638m. Speed=11.304000m/h.</desc>
<speed>3.140000</speed>
</trkpt>
<trkpt lat="55.837727" lon="26.090796">
<ele>153.588013</ele>
<time>2010-07-17T14:03:12Z</time>
<desc>lat.=55.837727, lon.=26.090796, Alt.=153.588013m. Speed=11.412000m/h.</desc>
<speed>3.170000</speed>
</trkpt>
<trkpt lat="55.837749" lon="26.090754">
<ele>153.798950</ele>
<time>2010-07-17T14:03:13Z</time>
<desc>lat.=55.837749, lon.=26.090754, Alt.=153.798950m. Speed=11.952000m/h.</desc>
<speed>3.320000</speed>
</trkpt>
<trkpt lat="55.837772" lon="26.090710">
<ele>154.146606</ele>
<time>2010-07-17T14:03:14Z</time>
<desc>lat.=55.837772, lon.=26.090710, Alt.=154.146606m. Speed=11.664000m/h.</desc>
<speed>3.240000</speed>
</trkpt>
<trkpt lat="55.837799" lon="26.090673">
<ele>154.755981</ele>
<time>2010-07-17T14:03:15Z</time>
<desc>lat.=55.837799, lon.=26.090673, Alt.=154.755981m. Speed=11.052000m/h.</desc>
<speed>3.070000</speed>
</trkpt>
<trkpt lat="55.837826" lon="26.090639">
<ele>155.560669</ele>
<time>2010-07-17T14:03:16Z</time>
<desc>lat.=55.837826, lon.=26.090639, Alt.=155.560669m. Speed=11.124000m/h.</desc>
<speed>3.090000</speed>
</trkpt>
<trkpt lat="55.837841" lon="26.090601">
<ele>156.068481</ele>
<time>2010-07-17T14:03:17Z</time>
<desc>lat.=55.837841, lon.=26.090601, Alt.=156.068481m. Speed=11.088000m/h.</desc>
<speed>3.080000</speed>
</trkpt>
<trkpt lat="55.837868" lon="26.090557">
<ele>156.884888</ele>
<time>2010-07-17T14:03:18Z</time>
<desc>lat.=55.837868, lon.=26.090557, Alt.=156.884888m. Speed=13.860000m/h.</desc>
<speed>3.850000</speed>
</trkpt>
<trkpt lat="55.837902" lon="26.090517">
<ele>156.998169</ele>
<time>2010-07-17T14:03:19Z</time>
<desc>lat.=55.837902, lon.=26.090517, Alt.=156.998169m. Speed=13.428000m/h.</desc>
<speed>3.730000</speed>
</trkpt>
<trkpt lat="55.837933" lon="26.090479">
<ele>157.111450</ele>
<time>2010-07-17T14:03:20Z</time>
<desc>lat.=55.837933, lon.=26.090479, Alt.=157.111450m. Speed=12.852000m/h.</desc>
<speed>3.570000</speed>
</trkpt>
<trkpt lat="55.837967" lon="26.090427">
<ele>156.650513</ele>
<time>2010-07-17T14:03:21Z</time>
<desc>lat.=55.837967, lon.=26.090427, Alt.=156.650513m. Speed=14.328000m/h.</desc>
<speed>3.980000</speed>
</trkpt>
<trkpt lat="55.837990" lon="26.090378">
<ele>156.752075</ele>
<time>2010-07-17T14:03:22Z</time>
<desc>lat.=55.837990, lon.=26.090378, Alt.=156.752075m. Speed=12.528000m/h.</desc>
<speed>3.480000</speed>
</trkpt>
<trkpt lat="55.838009" lon="26.090315">
<ele>156.763794</ele>
<time>2010-07-17T14:03:23Z</time>
<desc>lat.=55.838009, lon.=26.090315, Alt.=156.763794m. Speed=13.608000m/h.</desc>
<speed>3.780000</speed>
</trkpt>
<trkpt lat="55.838032" lon="26.090252">
<ele>156.955200</ele>
<time>2010-07-17T14:03:24Z</time>
<desc>lat.=55.838032, lon.=26.090252, Alt.=156.955200m. Speed=14.616000m/h.</desc>
<speed>4.060000</speed>
</trkpt>
<trkpt lat="55.838055" lon="26.090191">
<ele>157.197388</ele>
<time>2010-07-17T14:03:25Z</time>
<desc>lat.=55.838055, lon.=26.090191, Alt.=157.197388m. Speed=12.240000m/h.</desc>
<speed>3.400000</speed>
</trkpt>
<trkpt lat="55.838074" lon="26.090147">
<ele>157.045044</ele>
<time>2010-07-17T14:03:26Z</time>
<desc>lat.=55.838074, lon.=26.090147, Alt.=157.045044m. Speed=12.492000m/h.</desc>
<speed>3.470000</speed>
</trkpt>
<trkpt lat="55.838097" lon="26.090096">
<ele>157.236450</ele>
<time>2010-07-17T14:03:27Z</time>
<desc>lat.=55.838097, lon.=26.090096, Alt.=157.236450m. Speed=14.076000m/h.</desc>
<speed>3.910000</speed>
</trkpt>
<trkpt lat="55.838120" lon="26.090050">
<ele>158.173950</ele>
<time>2010-07-17T14:03:28Z</time>
<desc>lat.=55.838120, lon.=26.090050, Alt.=158.173950m. Speed=12.384000m/h.</desc>
<speed>3.440000</speed>
</trkpt>
<trkpt lat="55.838142" lon="26.090004">
<ele>158.111450</ele>
<time>2010-07-17T14:03:29Z</time>
<desc>lat.=55.838142, lon.=26.090004, Alt.=158.111450m. Speed=13.824000m/h.</desc>
<speed>3.840000</speed>
</trkpt>
<trkpt lat="55.838165" lon="26.089960">
<ele>158.322388</ele>
<time>2010-07-17T14:03:30Z</time>
<desc>lat.=55.838165, lon.=26.089960, Alt.=158.322388m. Speed=12.744000m/h.</desc>
<speed>3.540000</speed>
</trkpt>
<trkpt lat="55.838188" lon="26.089914">
<ele>158.162231</ele>
<time>2010-07-17T14:03:31Z</time>
<desc>lat.=55.838188, lon.=26.089914, Alt.=158.162231m. Speed=13.392000m/h.</desc>
<speed>3.720000</speed>
</trkpt>
<trkpt lat="55.838215" lon="26.089867">
<ele>158.103638</ele>
<time>2010-07-17T14:03:32Z</time>
<desc>lat.=55.838215, lon.=26.089867, Alt.=158.103638m. Speed=14.076000m/h.</desc>
<speed>3.910000</speed>
</trkpt>
<trkpt lat="55.838242" lon="26.089823">
<ele>157.927856</ele>
<time>2010-07-17T14:03:33Z</time>
<desc>lat.=55.838242, lon.=26.089823, Alt.=157.927856m. Speed=13.248000m/h.</desc>
<speed>3.680000</speed>
</trkpt>
<trkpt lat="55.838264" lon="26.089779">
<ele>158.521606</ele>
<time>2010-07-17T14:03:34Z</time>
<desc>lat.=55.838264, lon.=26.089779, Alt.=158.521606m. Speed=11.448000m/h.</desc>
<speed>3.180000</speed>
</trkpt>
<trkpt lat="55.838287" lon="26.089739">
<ele>158.490356</ele>
<time>2010-07-17T14:03:35Z</time>
<desc>lat.=55.838287, lon.=26.089739, Alt.=158.490356m. Speed=10.836000m/h.</desc>
<speed>3.010000</speed>
</trkpt>
<trkpt lat="55.838306" lon="26.089706">
<ele>158.724731</ele>
<time>2010-07-17T14:03:36Z</time>
<desc>lat.=55.838306, lon.=26.089706, Alt.=158.724731m. Speed=9.612000m/h.</desc>
<speed>2.670000</speed>
</trkpt>
<trkpt lat="55.838326" lon="26.089680">
<ele>158.990356</ele>
<time>2010-07-17T14:03:37Z</time>
<desc>lat.=55.838326, lon.=26.089680, Alt.=158.990356m. Speed=9.036000m/h.</desc>
<speed>2.510000</speed>
</trkpt>
<trkpt lat="55.838341" lon="26.089649">
<ele>158.650513</ele>
<time>2010-07-17T14:03:38Z</time>
<desc>lat.=55.838341, lon.=26.089649, Alt.=158.650513m. Speed=9.432000m/h.</desc>
<speed>2.620000</speed>
</trkpt>
<trkpt lat="55.838360" lon="26.089624">
<ele>158.681763</ele>
<time>2010-07-17T14:03:39Z</time>
<desc>lat.=55.838360, lon.=26.089624, Alt.=158.681763m. Speed=8.532000m/h.</desc>
<speed>2.370000</speed>
</trkpt>
<trkpt lat="55.838375" lon="26.089600">
<ele>157.939575</ele>
<time>2010-07-17T14:03:40Z</time>
<desc>lat.=55.838375, lon.=26.089600, Alt.=157.939575m. Speed=7.848000m/h.</desc>
<speed>2.180000</speed>
</trkpt>
<trkpt lat="55.838390" lon="26.089573">
<ele>157.880981</ele>
<time>2010-07-17T14:03:41Z</time>
<desc>lat.=55.838390, lon.=26.089573, Alt.=157.880981m. Speed=7.020000m/h.</desc>
<speed>1.950000</speed>
</trkpt>
<trkpt lat="55.838406" lon="26.089548">
<ele>157.724731</ele>
<time>2010-07-17T14:03:42Z</time>
<desc>lat.=55.838406, lon.=26.089548, Alt.=157.724731m. Speed=6.408000m/h.</desc>
<speed>1.780000</speed>
</trkpt>
<trkpt lat="55.838417" lon="26.089529">
<ele>157.935669</ele>
<time>2010-07-17T14:03:43Z</time>
<desc>lat.=55.838417, lon.=26.089529, Alt.=157.935669m. Speed=6.660000m/h.</desc>
<speed>1.850000</speed>
</trkpt>
<trkpt lat="55.838432" lon="26.089504">
<ele>157.701294</ele>
<time>2010-07-17T14:03:44Z</time>
<desc>lat.=55.838432, lon.=26.089504, Alt.=157.701294m. Speed=6.480000m/h.</desc>
<speed>1.800000</speed>
</trkpt>
<trkpt lat="55.838444" lon="26.089483">
<ele>157.732544</ele>
<time>2010-07-17T14:03:45Z</time>
<desc>lat.=55.838444, lon.=26.089483, Alt.=157.732544m. Speed=6.984000m/h.</desc>
<speed>1.940000</speed>
</trkpt>
<trkpt lat="55.838459" lon="26.089457">
<ele>157.896606</ele>
<time>2010-07-17T14:03:46Z</time>
<desc>lat.=55.838459, lon.=26.089457, Alt.=157.896606m. Speed=7.776000m/h.</desc>
<speed>2.160000</speed>
</trkpt>
<trkpt lat="55.838474" lon="26.089434">
<ele>158.255981</ele>
<time>2010-07-17T14:03:47Z</time>
<desc>lat.=55.838474, lon.=26.089434, Alt.=158.255981m. Speed=7.596000m/h.</desc>
<speed>2.110000</speed>
</trkpt>
<trkpt lat="55.838482" lon="26.089411">
<ele>157.966919</ele>
<time>2010-07-17T14:03:48Z</time>
<desc>lat.=55.838482, lon.=26.089411, Alt.=157.966919m. Speed=6.444000m/h.</desc>
<speed>1.790000</speed>
</trkpt>
<trkpt lat="55.838493" lon="26.089382">
<ele>157.951294</ele>
<time>2010-07-17T14:03:49Z</time>
<desc>lat.=55.838493, lon.=26.089382, Alt.=157.951294m. Speed=6.084000m/h.</desc>
<speed>1.690000</speed>
</trkpt>
<trkpt lat="55.838505" lon="26.089357">
<ele>157.818481</ele>
<time>2010-07-17T14:03:50Z</time>
<desc>lat.=55.838505, lon.=26.089357, Alt.=157.818481m. Speed=5.760000m/h.</desc>
<speed>1.600000</speed>
</trkpt>
<trkpt lat="55.838516" lon="26.089329">
<ele>157.736450</ele>
<time>2010-07-17T14:03:51Z</time>
<desc>lat.=55.838516, lon.=26.089329, Alt.=157.736450m. Speed=7.668000m/h.</desc>
<speed>2.130000</speed>
</trkpt>
<trkpt lat="55.838531" lon="26.089300">
<ele>157.759888</ele>
<time>2010-07-17T14:03:52Z</time>
<desc>lat.=55.838531, lon.=26.089300, Alt.=157.759888m. Speed=7.416000m/h.</desc>
<speed>2.060000</speed>
</trkpt>
<trkpt lat="55.838547" lon="26.089272">
<ele>157.689575</ele>
<time>2010-07-17T14:03:53Z</time>
<desc>lat.=55.838547, lon.=26.089272, Alt.=157.689575m. Speed=8.424000m/h.</desc>
<speed>2.340000</speed>
</trkpt>
<trkpt lat="55.838558" lon="26.089245">
<ele>157.591919</ele>
<time>2010-07-17T14:03:54Z</time>
<desc>lat.=55.838558, lon.=26.089245, Alt.=157.591919m. Speed=8.424000m/h.</desc>
<speed>2.340000</speed>
</trkpt>
<trkpt lat="55.838570" lon="26.089218">
<ele>157.412231</ele>
<time>2010-07-17T14:03:55Z</time>
<desc>lat.=55.838570, lon.=26.089218, Alt.=157.412231m. Speed=9.072000m/h.</desc>
<speed>2.520000</speed>
</trkpt>
<trkpt lat="55.838589" lon="26.089190">
<ele>157.591919</ele>
<time>2010-07-17T14:03:56Z</time>
<desc>lat.=55.838589, lon.=26.089190, Alt.=157.591919m. Speed=9.216000m/h.</desc>
<speed>2.560000</speed>
</trkpt>
<trkpt lat="55.838608" lon="26.089159">
<ele>157.334106</ele>
<time>2010-07-17T14:03:57Z</time>
<desc>lat.=55.838608, lon.=26.089159, Alt.=157.334106m. Speed=9.720000m/h.</desc>
<speed>2.700000</speed>
</trkpt>
<trkpt lat="55.838623" lon="26.089130">
<ele>157.400513</ele>
<time>2010-07-17T14:03:58Z</time>
<desc>lat.=55.838623, lon.=26.089130, Alt.=157.400513m. Speed=9.396000m/h.</desc>
<speed>2.610000</speed>
</trkpt>
<trkpt lat="55.838638" lon="26.089100">
<ele>157.341919</ele>
<time>2010-07-17T14:03:59Z</time>
<desc>lat.=55.838638, lon.=26.089100, Alt.=157.341919m. Speed=9.612000m/h.</desc>
<speed>2.670000</speed>
</trkpt>
<trkpt lat="55.838654" lon="26.089067">
<ele>157.541138</ele>
<time>2010-07-17T14:04:00Z</time>
<desc>lat.=55.838654, lon.=26.089067, Alt.=157.541138m. Speed=9.360000m/h.</desc>
<speed>2.600000</speed>
</trkpt>
<trkpt lat="55.838665" lon="26.089035">
<ele>156.802856</ele>
<time>2010-07-17T14:04:01Z</time>
<desc>lat.=55.838665, lon.=26.089035, Alt.=156.802856m. Speed=9.648000m/h.</desc>
<speed>2.680000</speed>
</trkpt>
<trkpt lat="55.838684" lon="26.089003">
<ele>157.755981</ele>
<time>2010-07-17T14:04:02Z</time>
<desc>lat.=55.838684, lon.=26.089003, Alt.=157.755981m. Speed=9.576000m/h.</desc>
<speed>2.660000</speed>
</trkpt>
<trkpt lat="55.838699" lon="26.088968">
<ele>157.900513</ele>
<time>2010-07-17T14:04:03Z</time>
<desc>lat.=55.838699, lon.=26.088968, Alt.=157.900513m. Speed=10.080000m/h.</desc>
<speed>2.800000</speed>
</trkpt>
<trkpt lat="55.838718" lon="26.088940">
<ele>158.013794</ele>
<time>2010-07-17T14:04:04Z</time>
<desc>lat.=55.838718, lon.=26.088940, Alt.=158.013794m. Speed=10.800000m/h.</desc>
<speed>3.000000</speed>
</trkpt>
<trkpt lat="55.838737" lon="26.088903">
<ele>157.869263</ele>
<time>2010-07-17T14:04:05Z</time>
<desc>lat.=55.838737, lon.=26.088903, Alt.=157.869263m. Speed=10.692000m/h.</desc>
<speed>2.970000</speed>
</trkpt>
<trkpt lat="55.838757" lon="26.088869">
<ele>158.041138</ele>
<time>2010-07-17T14:04:06Z</time>
<desc>lat.=55.838757, lon.=26.088869, Alt.=158.041138m. Speed=10.152000m/h.</desc>
<speed>2.820000</speed>
</trkpt>
<trkpt lat="55.838779" lon="26.088835">
<ele>158.826294</ele>
<time>2010-07-17T14:04:07Z</time>
<desc>lat.=55.838779, lon.=26.088835, Alt.=158.826294m. Speed=10.368000m/h.</desc>
<speed>2.880000</speed>
</trkpt>
<trkpt lat="55.838795" lon="26.088802">
<ele>159.197388</ele>
<time>2010-07-17T14:04:08Z</time>
<desc>lat.=55.838795, lon.=26.088802, Alt.=159.197388m. Speed=10.692000m/h.</desc>
<speed>2.970000</speed>
</trkpt>
<trkpt lat="55.838814" lon="26.088770">
<ele>159.498169</ele>
<time>2010-07-17T14:04:09Z</time>
<desc>lat.=55.838814, lon.=26.088770, Alt.=159.498169m. Speed=10.512000m/h.</desc>
<speed>2.920000</speed>
</trkpt>
<trkpt lat="55.838833" lon="26.088734">
<ele>159.998169</ele>
<time>2010-07-17T14:04:10Z</time>
<desc>lat.=55.838833, lon.=26.088734, Alt.=159.998169m. Speed=10.440000m/h.</desc>
<speed>2.900000</speed>
</trkpt>
<trkpt lat="55.838852" lon="26.088703">
<ele>160.095825</ele>
<time>2010-07-17T14:04:11Z</time>
<desc>lat.=55.838852, lon.=26.088703, Alt.=160.095825m. Speed=10.152000m/h.</desc>
<speed>2.820000</speed>
</trkpt>
<trkpt lat="55.838867" lon="26.088673">
<ele>159.810669</ele>
<time>2010-07-17T14:04:12Z</time>
<desc>lat.=55.838867, lon.=26.088673, Alt.=159.810669m. Speed=10.296000m/h.</desc>
<speed>2.860000</speed>
</trkpt>
<trkpt lat="55.838882" lon="26.088640">
<ele>159.267700</ele>
<time>2010-07-17T14:04:13Z</time>
<desc>lat.=55.838882, lon.=26.088640, Alt.=159.267700m. Speed=10.224000m/h.</desc>
<speed>2.840000</speed>
</trkpt>
<trkpt lat="55.838902" lon="26.088604">
<ele>159.423950</ele>
<time>2010-07-17T14:04:14Z</time>
<desc>lat.=55.838902, lon.=26.088604, Alt.=159.423950m. Speed=10.296000m/h.</desc>
<speed>2.860000</speed>
</trkpt>
<trkpt lat="55.838917" lon="26.088570">
<ele>159.513794</ele>
<time>2010-07-17T14:04:15Z</time>
<desc>lat.=55.838917, lon.=26.088570, Alt.=159.513794m. Speed=9.324000m/h.</desc>
<speed>2.590000</speed>
</trkpt>
<trkpt lat="55.838932" lon="26.088543">
<ele>159.310669</ele>
<time>2010-07-17T14:04:16Z</time>
<desc>lat.=55.838932, lon.=26.088543, Alt.=159.310669m. Speed=8.460000m/h.</desc>
<speed>2.350000</speed>
</trkpt>
<trkpt lat="55.838947" lon="26.088520">
<ele>159.365356</ele>
<time>2010-07-17T14:04:17Z</time>
<desc>lat.=55.838947, lon.=26.088520, Alt.=159.365356m. Speed=7.200000m/h.</desc>
<speed>2.000000</speed>
</trkpt>
<trkpt lat="55.838963" lon="26.088495">
<ele>159.291138</ele>
<time>2010-07-17T14:04:18Z</time>
<desc>lat.=55.838963, lon.=26.088495, Alt.=159.291138m. Speed=7.740000m/h.</desc>
<speed>2.150000</speed>
</trkpt>
<trkpt lat="55.838974" lon="26.088467">
<ele>159.216919</ele>
<time>2010-07-17T14:04:19Z</time>
<desc>lat.=55.838974, lon.=26.088467, Alt.=159.216919m. Speed=7.776000m/h.</desc>
<speed>2.160000</speed>
</trkpt>
<trkpt lat="55.838985" lon="26.088438">
<ele>158.912231</ele>
<time>2010-07-17T14:04:20Z</time>
<desc>lat.=55.838985, lon.=26.088438, Alt.=158.912231m. Speed=8.064000m/h.</desc>
<speed>2.240000</speed>
</trkpt>
<trkpt lat="55.839001" lon="26.088408">
<ele>159.068481</ele>
<time>2010-07-17T14:04:21Z</time>
<desc>lat.=55.839001, lon.=26.088408, Alt.=159.068481m. Speed=8.244000m/h.</desc>
<speed>2.290000</speed>
</trkpt>
<trkpt lat="55.839016" lon="26.088377">
<ele>159.009888</ele>
<time>2010-07-17T14:04:22Z</time>
<desc>lat.=55.839016, lon.=26.088377, Alt.=159.009888m. Speed=9.468000m/h.</desc>
<speed>2.630000</speed>
</trkpt>
<trkpt lat="55.839031" lon="26.088343">
<ele>159.060669</ele>
<time>2010-07-17T14:04:23Z</time>
<desc>lat.=55.839031, lon.=26.088343, Alt.=159.060669m. Speed=9.648000m/h.</desc>
<speed>2.680000</speed>
</trkpt>
<trkpt lat="55.839046" lon="26.088306">
<ele>158.529419</ele>
<time>2010-07-17T14:04:24Z</time>
<desc>lat.=55.839046, lon.=26.088306, Alt.=158.529419m. Speed=9.828000m/h.</desc>
<speed>2.730000</speed>
</trkpt>
<trkpt lat="55.839062" lon="26.088268">
<ele>158.412231</ele>
<time>2010-07-17T14:04:25Z</time>
<desc>lat.=55.839062, lon.=26.088268, Alt.=158.412231m. Speed=9.504000m/h.</desc>
<speed>2.640000</speed>
</trkpt>
<trkpt lat="55.839077" lon="26.088221">
<ele>158.150513</ele>
<time>2010-07-17T14:04:26Z</time>
<desc>lat.=55.839077, lon.=26.088221, Alt.=158.150513m. Speed=10.512000m/h.</desc>
<speed>2.920000</speed>
</trkpt>
<trkpt lat="55.839092" lon="26.088186">
<ele>158.232544</ele>
<time>2010-07-17T14:04:27Z</time>
<desc>lat.=55.839092, lon.=26.088186, Alt.=158.232544m. Speed=10.620000m/h.</desc>
<speed>2.950000</speed>
</trkpt>
<trkpt lat="55.839111" lon="26.088150">
<ele>157.955200</ele>
<time>2010-07-17T14:04:28Z</time>
<desc>lat.=55.839111, lon.=26.088150, Alt.=157.955200m. Speed=10.548000m/h.</desc>
<speed>2.930000</speed>
</trkpt>
<trkpt lat="55.839127" lon="26.088114">
<ele>158.064575</ele>
<time>2010-07-17T14:04:29Z</time>
<desc>lat.=55.839127, lon.=26.088114, Alt.=158.064575m. Speed=11.088000m/h.</desc>
<speed>3.080000</speed>
</trkpt>
<trkpt lat="55.839149" lon="26.088072">
<ele>157.689575</ele>
<time>2010-07-17T14:04:30Z</time>
<desc>lat.=55.839149, lon.=26.088072, Alt.=157.689575m. Speed=12.096000m/h.</desc>
<speed>3.360000</speed>
</trkpt>
<trkpt lat="55.839172" lon="26.088036">
<ele>156.998169</ele>
<time>2010-07-17T14:04:31Z</time>
<desc>lat.=55.839172, lon.=26.088036, Alt.=156.998169m. Speed=12.348000m/h.</desc>
<speed>3.430000</speed>
</trkpt>
<trkpt lat="55.839199" lon="26.088001">
<ele>156.775513</ele>
<time>2010-07-17T14:04:32Z</time>
<desc>lat.=55.839199, lon.=26.088001, Alt.=156.775513m. Speed=13.140000m/h.</desc>
<speed>3.650000</speed>
</trkpt>
<trkpt lat="55.839207" lon="26.087959">
<ele>157.326294</ele>
<time>2010-07-17T14:04:33Z</time>
<desc>lat.=55.839207, lon.=26.087959, Alt.=157.326294m. Speed=10.584000m/h.</desc>
<speed>2.940000</speed>
</trkpt>
<trkpt lat="55.839211" lon="26.087908">
<ele>154.673950</ele>
<time>2010-07-17T14:04:34Z</time>
<desc>lat.=55.839211, lon.=26.087908, Alt.=154.673950m. Speed=13.680000m/h.</desc>
<speed>3.800000</speed>
</trkpt>
<trkpt lat="55.839226" lon="26.087860">
<ele>154.873169</ele>
<time>2010-07-17T14:04:35Z</time>
<desc>lat.=55.839226, lon.=26.087860, Alt.=154.873169m. Speed=14.112000m/h.</desc>
<speed>3.920000</speed>
</trkpt>
<trkpt lat="55.839252" lon="26.087816">
<ele>154.931763</ele>
<time>2010-07-17T14:04:36Z</time>
<desc>lat.=55.839252, lon.=26.087816, Alt.=154.931763m. Speed=14.364000m/h.</desc>
<speed>3.990000</speed>
</trkpt>
<trkpt lat="55.839275" lon="26.087769">
<ele>155.173950</ele>
<time>2010-07-17T14:04:37Z</time>
<desc>lat.=55.839275, lon.=26.087769, Alt.=155.173950m. Speed=14.904000m/h.</desc>
<speed>4.140000</speed>
</trkpt>
<trkpt lat="55.839306" lon="26.087721">
<ele>155.162231</ele>
<time>2010-07-17T14:04:38Z</time>
<desc>lat.=55.839306, lon.=26.087721, Alt.=155.162231m. Speed=14.796000m/h.</desc>
<speed>4.110000</speed>
</trkpt>
<trkpt lat="55.839333" lon="26.087673">
<ele>155.369263</ele>
<time>2010-07-17T14:04:39Z</time>
<desc>lat.=55.839333, lon.=26.087673, Alt.=155.369263m. Speed=14.904000m/h.</desc>
<speed>4.140000</speed>
</trkpt>
<trkpt lat="55.839359" lon="26.087620">
<ele>155.650513</ele>
<time>2010-07-17T14:04:40Z</time>
<desc>lat.=55.839359, lon.=26.087620, Alt.=155.650513m. Speed=15.300000m/h.</desc>
<speed>4.250000</speed>
</trkpt>
<trkpt lat="55.839382" lon="26.087568">
<ele>155.841919</ele>
<time>2010-07-17T14:04:41Z</time>
<desc>lat.=55.839382, lon.=26.087568, Alt.=155.841919m. Speed=15.552000m/h.</desc>
<speed>4.320000</speed>
</trkpt>
<trkpt lat="55.839417" lon="26.087521">
<ele>156.224731</ele>
<time>2010-07-17T14:04:42Z</time>
<desc>lat.=55.839417, lon.=26.087521, Alt.=156.224731m. Speed=15.912000m/h.</desc>
<speed>4.420000</speed>
</trkpt>
<trkpt lat="55.839447" lon="26.087475">
<ele>156.463013</ele>
<time>2010-07-17T14:04:43Z</time>
<desc>lat.=55.839447, lon.=26.087475, Alt.=156.463013m. Speed=15.840000m/h.</desc>
<speed>4.400000</speed>
</trkpt>
<trkpt lat="55.839478" lon="26.087421">
<ele>156.509888</ele>
<time>2010-07-17T14:04:44Z</time>
<desc>lat.=55.839478, lon.=26.087421, Alt.=156.509888m. Speed=15.768000m/h.</desc>
<speed>4.380000</speed>
</trkpt>
<trkpt lat="55.839508" lon="26.087366">
<ele>156.646606</ele>
<time>2010-07-17T14:04:45Z</time>
<desc>lat.=55.839508, lon.=26.087366, Alt.=156.646606m. Speed=16.128000m/h.</desc>
<speed>4.480000</speed>
</trkpt>
<trkpt lat="55.839535" lon="26.087317">
<ele>156.927856</ele>
<time>2010-07-17T14:04:46Z</time>
<desc>lat.=55.839535, lon.=26.087317, Alt.=156.927856m. Speed=16.128000m/h.</desc>
<speed>4.480000</speed>
</trkpt>
<trkpt lat="55.839561" lon="26.087267">
<ele>157.408325</ele>
<time>2010-07-17T14:04:47Z</time>
<desc>lat.=55.839561, lon.=26.087267, Alt.=157.408325m. Speed=15.588000m/h.</desc>
<speed>4.330000</speed>
</trkpt>
<trkpt lat="55.839588" lon="26.087219">
<ele>157.736450</ele>
<time>2010-07-17T14:04:48Z</time>
<desc>lat.=55.839588, lon.=26.087219, Alt.=157.736450m. Speed=14.292000m/h.</desc>
<speed>3.970000</speed>
</trkpt>
<trkpt lat="55.839611" lon="26.087175">
<ele>157.884888</ele>
<time>2010-07-17T14:04:49Z</time>
<desc>lat.=55.839611, lon.=26.087175, Alt.=157.884888m. Speed=13.320000m/h.</desc>
<speed>3.700000</speed>
</trkpt>
<trkpt lat="55.839630" lon="26.087130">
<ele>158.318481</ele>
<time>2010-07-17T14:04:50Z</time>
<desc>lat.=55.839630, lon.=26.087130, Alt.=158.318481m. Speed=12.636000m/h.</desc>
<speed>3.510000</speed>
</trkpt>
<trkpt lat="55.839645" lon="26.087084">
<ele>158.681763</ele>
<time>2010-07-17T14:04:51Z</time>
<desc>lat.=55.839645, lon.=26.087084, Alt.=158.681763m. Speed=11.736000m/h.</desc>
<speed>3.260000</speed>
</trkpt>
<trkpt lat="55.839661" lon="26.087042">
<ele>159.029419</ele>
<time>2010-07-17T14:04:52Z</time>
<desc>lat.=55.839661, lon.=26.087042, Alt.=159.029419m. Speed=10.908000m/h.</desc>
<speed>3.030000</speed>
</trkpt>
<trkpt lat="55.839676" lon="26.087004">
<ele>159.220825</ele>
<time>2010-07-17T14:04:53Z</time>
<desc>lat.=55.839676, lon.=26.087004, Alt.=159.220825m. Speed=9.936000m/h.</desc>
<speed>2.760000</speed>
</trkpt>
<trkpt lat="55.839691" lon="26.086967">
<ele>159.420044</ele>
<time>2010-07-17T14:04:54Z</time>
<desc>lat.=55.839691, lon.=26.086967, Alt.=159.420044m. Speed=10.368000m/h.</desc>
<speed>2.880000</speed>
</trkpt>
<trkpt lat="55.839706" lon="26.086937">
<ele>159.654419</ele>
<time>2010-07-17T14:04:55Z</time>
<desc>lat.=55.839706, lon.=26.086937, Alt.=159.654419m. Speed=9.612000m/h.</desc>
<speed>2.670000</speed>
</trkpt>
<trkpt lat="55.839725" lon="26.086906">
<ele>159.912231</ele>
<time>2010-07-17T14:04:56Z</time>
<desc>lat.=55.839725, lon.=26.086906, Alt.=159.912231m. Speed=9.108000m/h.</desc>
<speed>2.530000</speed>
</trkpt>
<trkpt lat="55.839737" lon="26.086872">
<ele>160.193481</ele>
<time>2010-07-17T14:04:57Z</time>
<desc>lat.=55.839737, lon.=26.086872, Alt.=160.193481m. Speed=8.028000m/h.</desc>
<speed>2.230000</speed>
</trkpt>
<trkpt lat="55.839748" lon="26.086840">
<ele>160.451294</ele>
<time>2010-07-17T14:04:58Z</time>
<desc>lat.=55.839748, lon.=26.086840, Alt.=160.451294m. Speed=8.064000m/h.</desc>
<speed>2.240000</speed>
</trkpt>
<trkpt lat="55.839756" lon="26.086809">
<ele>160.615356</ele>
<time>2010-07-17T14:04:59Z</time>
<desc>lat.=55.839756, lon.=26.086809, Alt.=160.615356m. Speed=7.776000m/h.</desc>
<speed>2.160000</speed>
</trkpt>
<trkpt lat="55.839760" lon="26.086779">
<ele>160.830200</ele>
<time>2010-07-17T14:05:00Z</time>
<desc>lat.=55.839760, lon.=26.086779, Alt.=160.830200m. Speed=7.488000m/h.</desc>
<speed>2.080000</speed>
</trkpt>
<trkpt lat="55.839764" lon="26.086744">
<ele>160.877075</ele>
<time>2010-07-17T14:05:01Z</time>
<desc>lat.=55.839764, lon.=26.086744, Alt.=160.877075m. Speed=7.308000m/h.</desc>
<speed>2.030000</speed>
</trkpt>
<trkpt lat="55.839748" lon="26.086718">
<ele>160.384888</ele>
<time>2010-07-17T14:05:02Z</time>
<desc>lat.=55.839748, lon.=26.086718, Alt.=160.384888m. Speed=6.336000m/h.</desc>
<speed>1.760000</speed>
</trkpt>
<trkpt lat="55.839741" lon="26.086689">
<ele>160.404419</ele>
<time>2010-07-17T14:05:03Z</time>
<desc>lat.=55.839741, lon.=26.086689, Alt.=160.404419m. Speed=6.588000m/h.</desc>
<speed>1.830000</speed>
</trkpt>
<trkpt lat="55.839737" lon="26.086660">
<ele>160.509888</ele>
<time>2010-07-17T14:05:04Z</time>
<desc>lat.=55.839737, lon.=26.086660, Alt.=160.509888m. Speed=7.416000m/h.</desc>
<speed>2.060000</speed>
</trkpt>
<trkpt lat="55.839729" lon="26.086624">
<ele>160.572388</ele>
<time>2010-07-17T14:05:05Z</time>
<desc>lat.=55.839729, lon.=26.086624, Alt.=160.572388m. Speed=8.784000m/h.</desc>
<speed>2.440000</speed>
</trkpt>
<trkpt lat="55.839714" lon="26.086575">
<ele>160.111450</ele>
<time>2010-07-17T14:05:06Z</time>
<desc>lat.=55.839714, lon.=26.086575, Alt.=160.111450m. Speed=8.604000m/h.</desc>
<speed>2.390000</speed>
</trkpt>
<trkpt lat="55.839703" lon="26.086535">
<ele>159.779419</ele>
<time>2010-07-17T14:05:07Z</time>
<desc>lat.=55.839703, lon.=26.086535, Alt.=159.779419m. Speed=9.612000m/h.</desc>
<speed>2.670000</speed>
</trkpt>
<trkpt lat="55.839684" lon="26.086491">
<ele>159.576294</ele>
<time>2010-07-17T14:05:08Z</time>
<desc>lat.=55.839684, lon.=26.086491, Alt.=159.576294m. Speed=11.520000m/h.</desc>
<speed>3.200000</speed>
</trkpt>
<trkpt lat="55.839664" lon="26.086449">
<ele>159.173950</ele>
<time>2010-07-17T14:05:09Z</time>
<desc>lat.=55.839664, lon.=26.086449, Alt.=159.173950m. Speed=11.700000m/h.</desc>
<speed>3.250000</speed>
</trkpt>
<trkpt lat="55.839645" lon="26.086401">
<ele>158.869263</ele>
<time>2010-07-17T14:05:10Z</time>
<desc>lat.=55.839645, lon.=26.086401, Alt.=158.869263m. Speed=12.204000m/h.</desc>
<speed>3.390000</speed>
</trkpt>
<trkpt lat="55.839626" lon="26.086357">
<ele>158.584106</ele>
<time>2010-07-17T14:05:11Z</time>
<desc>lat.=55.839626, lon.=26.086357, Alt.=158.584106m. Speed=11.736000m/h.</desc>
<speed>3.260000</speed>
</trkpt>
<trkpt lat="55.839611" lon="26.086315">
<ele>158.408325</ele>
<time>2010-07-17T14:05:12Z</time>
<desc>lat.=55.839611, lon.=26.086315, Alt.=158.408325m. Speed=12.024000m/h.</desc>
<speed>3.340000</speed>
</trkpt>
<trkpt lat="55.839588" lon="26.086281">
<ele>158.037231</ele>
<time>2010-07-17T14:05:13Z</time>
<desc>lat.=55.839588, lon.=26.086281, Alt.=158.037231m. Speed=10.260000m/h.</desc>
<speed>2.850000</speed>
</trkpt>
<trkpt lat="55.839561" lon="26.086258">
<ele>157.693481</ele>
<time>2010-07-17T14:05:14Z</time>
<desc>lat.=55.839561, lon.=26.086258, Alt.=157.693481m. Speed=12.492000m/h.</desc>
<speed>3.470000</speed>
</trkpt>
<trkpt lat="55.839531" lon="26.086250">
<ele>157.310669</ele>
<time>2010-07-17T14:05:15Z</time>
<desc>lat.=55.839531, lon.=26.086250, Alt.=157.310669m. Speed=13.176000m/h.</desc>
<speed>3.660000</speed>
</trkpt>
<trkpt lat="55.839497" lon="26.086245">
<ele>157.013794</ele>
<time>2010-07-17T14:05:16Z</time>
<desc>lat.=55.839497, lon.=26.086245, Alt.=157.013794m. Speed=12.348000m/h.</desc>
<speed>3.430000</speed>
</trkpt>
<trkpt lat="55.839470" lon="26.086239">
<ele>156.818481</ele>
<time>2010-07-17T14:05:17Z</time>
<desc>lat.=55.839470, lon.=26.086239, Alt.=156.818481m. Speed=11.232000m/h.</desc>
<speed>3.120000</speed>
</trkpt>
<trkpt lat="55.839443" lon="26.086233">
<ele>156.591919</ele>
<time>2010-07-17T14:05:18Z</time>
<desc>lat.=55.839443, lon.=26.086233, Alt.=156.591919m. Speed=10.440000m/h.</desc>
<speed>2.900000</speed>
</trkpt>
<trkpt lat="55.839424" lon="26.086222">
<ele>156.513794</ele>
<time>2010-07-17T14:05:19Z</time>
<desc>lat.=55.839424, lon.=26.086222, Alt.=156.513794m. Speed=6.264000m/h.</desc>
<speed>1.740000</speed>
</trkpt>
<trkpt lat="55.839413" lon="26.086210">
<ele>156.322388</ele>
<time>2010-07-17T14:05:20Z</time>
<desc>lat.=55.839413, lon.=26.086210, Alt.=156.322388m. Speed=4.356000m/h.</desc>
<speed>1.210000</speed>
</trkpt>
<trkpt lat="55.839401" lon="26.086195">
<ele>156.158325</ele>
<time>2010-07-17T14:05:21Z</time>
<desc>lat.=55.839401, lon.=26.086195, Alt.=156.158325m. Speed=4.824000m/h.</desc>
<speed>1.340000</speed>
</trkpt>
<trkpt lat="55.839390" lon="26.086178">
<ele>156.068481</ele>
<time>2010-07-17T14:05:22Z</time>
<desc>lat.=55.839390, lon.=26.086178, Alt.=156.068481m. Speed=4.104000m/h.</desc>
<speed>1.140000</speed>
</trkpt>
<trkpt lat="55.839382" lon="26.086168">
<ele>155.986450</ele>
<time>2010-07-17T14:05:23Z</time>
<desc>lat.=55.839382, lon.=26.086168, Alt.=155.986450m. Speed=2.376000m/h.</desc>
<speed>0.660000</speed>
</trkpt>
<trkpt lat="55.839382" lon="26.086164">
<ele>155.923950</ele>
<time>2010-07-17T14:05:24Z</time>
<desc>lat.=55.839382, lon.=26.086164, Alt.=155.923950m. Speed=0.396000m/h.</desc>
<speed>0.110000</speed>
</trkpt>
<trkpt lat="55.839382" lon="26.086168">
<ele>156.427856</ele>
<time>2010-07-17T14:05:25Z</time>
<desc>lat.=55.839382, lon.=26.086168, Alt.=156.427856m. Speed=0.252000m/h.</desc>
<speed>0.070000</speed>
</trkpt>
<trkpt lat="55.839382" lon="26.086164">
<ele>156.642700</ele>
<time>2010-07-17T14:05:26Z</time>
<desc>lat.=55.839382, lon.=26.086164, Alt.=156.642700m. Speed=0.540000m/h.</desc>
<speed>0.150000</speed>
</trkpt>
<trkpt lat="55.839382" lon="26.086163">
<ele>156.541138</ele>
<time>2010-07-17T14:05:27Z</time>
<desc>lat.=55.839382, lon.=26.086163, Alt.=156.541138m. Speed=0.468000m/h.</desc>
<speed>0.130000</speed>
</trkpt>
<trkpt lat="55.839378" lon="26.086163">
<ele>156.470825</ele>
<time>2010-07-17T14:05:28Z</time>
<desc>lat.=55.839378, lon.=26.086163, Alt.=156.470825m. Speed=0.468000m/h.</desc>
<speed>0.130000</speed>
</trkpt>
<trkpt lat="55.839378" lon="26.086161">
<ele>156.408325</ele>
<time>2010-07-17T14:05:29Z</time>
<desc>lat.=55.839378, lon.=26.086161, Alt.=156.408325m. Speed=0.684000m/h.</desc>
<speed>0.190000</speed>
</trkpt>
<trkpt lat="55.839378" lon="26.086164">
<ele>156.369263</ele>
<time>2010-07-17T14:05:30Z</time>
<desc>lat.=55.839378, lon.=26.086164, Alt.=156.369263m. Speed=0.828000m/h.</desc>
<speed>0.230000</speed>
</trkpt>
<trkpt lat="55.839375" lon="26.086166">
<ele>156.330200</ele>
<time>2010-07-17T14:05:31Z</time>
<desc>lat.=55.839375, lon.=26.086166, Alt.=156.330200m. Speed=0.864000m/h.</desc>
<speed>0.240000</speed>
</trkpt>
<trkpt lat="55.839375" lon="26.086168">
<ele>156.295044</ele>
<time>2010-07-17T14:05:32Z</time>
<desc>lat.=55.839375, lon.=26.086168, Alt.=156.295044m. Speed=0.324000m/h.</desc>
<speed>0.090000</speed>
</trkpt>
<trkpt lat="55.839375" lon="26.086168">
<ele>156.267700</ele>
<time>2010-07-17T14:05:33Z</time>
<desc>lat.=55.839375, lon.=26.086168, Alt.=156.267700m. Speed=0.360000m/h.</desc>
<speed>0.100000</speed>
</trkpt>
<trkpt lat="55.839371" lon="26.086168">
<ele>156.244263</ele>
<time>2010-07-17T14:05:34Z</time>
<desc>lat.=55.839371, lon.=26.086168, Alt.=156.244263m. Speed=0.036000m/h.</desc>
<speed>0.010000</speed>
</trkpt>
<trkpt lat="55.839371" lon="26.086168">
<ele>156.228638</ele>
<time>2010-07-17T14:05:35Z</time>
<desc>lat.=55.839371, lon.=26.086168, Alt.=156.228638m. Speed=0.360000m/h.</desc>
<speed>0.100000</speed>
</trkpt>
<trkpt lat="55.839371" lon="26.086170">
<ele>156.220825</ele>
<time>2010-07-17T14:05:36Z</time>
<desc>lat.=55.839371, lon.=26.086170, Alt.=156.220825m. Speed=0.144000m/h.</desc>
<speed>0.040000</speed>
</trkpt>
<trkpt lat="55.839371" lon="26.086170">
<ele>156.209106</ele>
<time>2010-07-17T14:05:37Z</time>
<desc>lat.=55.839371, lon.=26.086170, Alt.=156.209106m. Speed=0.144000m/h.</desc>
<speed>0.040000</speed>
</trkpt>
<trkpt lat="55.839371" lon="26.086172">
<ele>156.201294</ele>
<time>2010-07-17T14:05:38Z</time>
<desc>lat.=55.839371, lon.=26.086172, Alt.=156.201294m. Speed=0.216000m/h.</desc>
<speed>0.060000</speed>
</trkpt>
<trkpt lat="55.839371" lon="26.086172">
<ele>156.197388</ele>
<time>2010-07-17T14:05:39Z</time>
<desc>lat.=55.839371, lon.=26.086172, Alt.=156.197388m. Speed=0.216000m/h.</desc>
<speed>0.060000</speed>
</trkpt>
<trkpt lat="55.839371" lon="26.086172">
<ele>156.193481</ele>
<time>2010-07-17T14:05:40Z</time>
<desc>lat.=55.839371, lon.=26.086172, Alt.=156.193481m. Speed=0.144000m/h.</desc>
<speed>0.040000</speed>
</trkpt>
<trkpt lat="55.839371" lon="26.086172">
<ele>156.189575</ele>
<time>2010-07-17T14:05:41Z</time>
<desc>lat.=55.839371, lon.=26.086172, Alt.=156.189575m. Speed=0.000000m/h.</desc>
<speed>0.000000</speed>
</trkpt>
<trkpt lat="55.839371" lon="26.086174">
<ele>156.185669</ele>
<time>2010-07-17T14:05:42Z</time>
<desc>lat.=55.839371, lon.=26.086174, Alt.=156.185669m. Speed=0.180000m/h.</desc>
<speed>0.050000</speed>
</trkpt>
<trkpt lat="55.839371" lon="26.086174">
<ele>156.185669</ele>
<time>2010-07-17T14:05:43Z</time>
<desc>lat.=55.839371, lon.=26.086174, Alt.=156.185669m. Speed=0.036000m/h.</desc>
<speed>0.010000</speed>
</trkpt>
<trkpt lat="55.839371" lon="26.086174">
<ele>156.181763</ele>
<time>2010-07-17T14:05:44Z</time>
<desc>lat.=55.839371, lon.=26.086174, Alt.=156.181763m. Speed=0.144000m/h.</desc>
<speed>0.040000</speed>
</trkpt>
<trkpt lat="55.839371" lon="26.086172">
<ele>156.181763</ele>
<time>2010-07-17T14:05:45Z</time>
<desc>lat.=55.839371, lon.=26.086172, Alt.=156.181763m. Speed=0.216000m/h.</desc>
<speed>0.060000</speed>
</trkpt>
<trkpt lat="55.839371" lon="26.086172">
<ele>156.181763</ele>
<time>2010-07-17T14:05:46Z</time>
<desc>lat.=55.839371, lon.=26.086172, Alt.=156.181763m. Speed=0.360000m/h.</desc>
<speed>0.100000</speed>
</trkpt>
<trkpt lat="55.839371" lon="26.086170">
<ele>156.185669</ele>
<time>2010-07-17T14:05:47Z</time>
<desc>lat.=55.839371, lon.=26.086170, Alt.=156.185669m. Speed=0.468000m/h.</desc>
<speed>0.130000</speed>
</trkpt>
<trkpt lat="55.839367" lon="26.086170">
<ele>156.185669</ele>
<time>2010-07-17T14:05:48Z</time>
<desc>lat.=55.839367, lon.=26.086170, Alt.=156.185669m. Speed=0.180000m/h.</desc>
<speed>0.050000</speed>
</trkpt>
<trkpt lat="55.839367" lon="26.086170">
<ele>156.189575</ele>
<time>2010-07-17T14:05:49Z</time>
<desc>lat.=55.839367, lon.=26.086170, Alt.=156.189575m. Speed=0.252000m/h.</desc>
<speed>0.070000</speed>
</trkpt>
<trkpt lat="55.839367" lon="26.086172">
<ele>156.189575</ele>
<time>2010-07-17T14:05:50Z</time>
<desc>lat.=55.839367, lon.=26.086172, Alt.=156.189575m. Speed=0.144000m/h.</desc>
<speed>0.040000</speed>
</trkpt>
<trkpt lat="55.839367" lon="26.086172">
<ele>156.189575</ele>
<time>2010-07-17T14:05:51Z</time>
<desc>lat.=55.839367, lon.=26.086172, Alt.=156.189575m. Speed=0.108000m/h.</desc>
<speed>0.030000</speed>
</trkpt>
<trkpt lat="55.839367" lon="26.086172">
<ele>156.189575</ele>
<time>2010-07-17T14:05:52Z</time>
<desc>lat.=55.839367, lon.=26.086172, Alt.=156.189575m. Speed=0.180000m/h.</desc>
<speed>0.050000</speed>
</trkpt>
<trkpt lat="55.839367" lon="26.086174">
<ele>156.189575</ele>
<time>2010-07-17T14:05:53Z</time>
<desc>lat.=55.839367, lon.=26.086174, Alt.=156.189575m. Speed=0.108000m/h.</desc>
<speed>0.030000</speed>
</trkpt>
<trkpt lat="55.839367" lon="26.086172">
<ele>156.189575</ele>
<time>2010-07-17T14:05:54Z</time>
<desc>lat.=55.839367, lon.=26.086172, Alt.=156.189575m. Speed=0.180000m/h.</desc>
<speed>0.050000</speed>
</trkpt>
<trkpt lat="55.839367" lon="26.086170">
<ele>156.189575</ele>
<time>2010-07-17T14:05:55Z</time>
<desc>lat.=55.839367, lon.=26.086170, Alt.=156.189575m. Speed=0.108000m/h.</desc>
<speed>0.030000</speed>
</trkpt>
<trkpt lat="55.839367" lon="26.086170">
<ele>156.193481</ele>
<time>2010-07-17T14:05:56Z</time>
<desc>lat.=55.839367, lon.=26.086170, Alt.=156.193481m. Speed=0.144000m/h.</desc>
<speed>0.040000</speed>
</trkpt>
<trkpt lat="55.839367" lon="26.086170">
<ele>156.193481</ele>
<time>2010-07-17T14:05:57Z</time>
<desc>lat.=55.839367, lon.=26.086170, Alt.=156.193481m. Speed=0.108000m/h.</desc>
<speed>0.030000</speed>
</trkpt>
<trkpt lat="55.839367" lon="26.086168">
<ele>156.193481</ele>
<time>2010-07-17T14:05:58Z</time>
<desc>lat.=55.839367, lon.=26.086168, Alt.=156.193481m. Speed=0.108000m/h.</desc>
<speed>0.030000</speed>
</trkpt>
<trkpt lat="55.839367" lon="26.086168">
<ele>156.197388</ele>
<time>2010-07-17T14:05:59Z</time>
<desc>lat.=55.839367, lon.=26.086168, Alt.=156.197388m. Speed=0.360000m/h.</desc>
<speed>0.100000</speed>
</trkpt>
<trkpt lat="55.839367" lon="26.086166">
<ele>156.197388</ele>
<time>2010-07-17T14:06:00Z</time>
<desc>lat.=55.839367, lon.=26.086166, Alt.=156.197388m. Speed=0.360000m/h.</desc>
<speed>0.100000</speed>
</trkpt>
<trkpt lat="55.839367" lon="26.086166">
<ele>156.197388</ele>
<time>2010-07-17T14:06:01Z</time>
<desc>lat.=55.839367, lon.=26.086166, Alt.=156.197388m. Speed=0.360000m/h.</desc>
<speed>0.100000</speed>
</trkpt>
<trkpt lat="55.839363" lon="26.086164">
<ele>156.197388</ele>
<time>2010-07-17T14:06:02Z</time>
<desc>lat.=55.839363, lon.=26.086164, Alt.=156.197388m. Speed=0.288000m/h.</desc>
<speed>0.080000</speed>
</trkpt>
<trkpt lat="55.839363" lon="26.086163">
<ele>156.201294</ele>
<time>2010-07-17T14:06:03Z</time>
<desc>lat.=55.839363, lon.=26.086163, Alt.=156.201294m. Speed=0.108000m/h.</desc>
<speed>0.030000</speed>
</trkpt>
<trkpt lat="55.839363" lon="26.086163">
<ele>156.201294</ele>
<time>2010-07-17T14:06:04Z</time>
<desc>lat.=55.839363, lon.=26.086163, Alt.=156.201294m. Speed=0.108000m/h.</desc>
<speed>0.030000</speed>
</trkpt>
<trkpt lat="55.839363" lon="26.086163">
<ele>156.205200</ele>
<time>2010-07-17T14:06:05Z</time>
<desc>lat.=55.839363, lon.=26.086163, Alt.=156.205200m. Speed=0.036000m/h.</desc>
<speed>0.010000</speed>
</trkpt>
<trkpt lat="55.839363" lon="26.086163">
<ele>156.205200</ele>
<time>2010-07-17T14:06:06Z</time>
<desc>lat.=55.839363, lon.=26.086163, Alt.=156.205200m. Speed=0.468000m/h.</desc>
<speed>0.130000</speed>
</trkpt>
<trkpt lat="55.839363" lon="26.086161">
<ele>156.209106</ele>
<time>2010-07-17T14:06:07Z</time>
<desc>lat.=55.839363, lon.=26.086161, Alt.=156.209106m. Speed=0.216000m/h.</desc>
<speed>0.060000</speed>
</trkpt>
<trkpt lat="55.839363" lon="26.086161">
<ele>156.209106</ele>
<time>2010-07-17T14:06:08Z</time>
<desc>lat.=55.839363, lon.=26.086161, Alt.=156.209106m. Speed=0.360000m/h.</desc>
<speed>0.100000</speed>
</trkpt>
<trkpt lat="55.839363" lon="26.086159">
<ele>156.209106</ele>
<time>2010-07-17T14:06:09Z</time>
<desc>lat.=55.839363, lon.=26.086159, Alt.=156.209106m. Speed=0.144000m/h.</desc>
<speed>0.040000</speed>
</trkpt>
<trkpt lat="55.839359" lon="26.086159">
<ele>156.209106</ele>
<time>2010-07-17T14:06:10Z</time>
<desc>lat.=55.839359, lon.=26.086159, Alt.=156.209106m. Speed=0.000000m/h.</desc>
<speed>0.000000</speed>
</trkpt>
<trkpt lat="55.839359" lon="26.086159">
<ele>156.209106</ele>
<time>2010-07-17T14:06:11Z</time>
<desc>lat.=55.839359, lon.=26.086159, Alt.=156.209106m. Speed=0.000000m/h.</desc>
<speed>0.000000</speed>
</trkpt>
<trkpt lat="55.839359" lon="26.086159">
<ele>156.209106</ele>
<time>2010-07-17T14:06:12Z</time>
<desc>lat.=55.839359, lon.=26.086159, Alt.=156.209106m. Speed=0.072000m/h.</desc>
<speed>0.020000</speed>
</trkpt>
<trkpt lat="55.839359" lon="26.086157">
<ele>156.209106</ele>
<time>2010-07-17T14:06:13Z</time>
<desc>lat.=55.839359, lon.=26.086157, Alt.=156.209106m. Speed=0.108000m/h.</desc>
<speed>0.030000</speed>
</trkpt>
<trkpt lat="55.839359" lon="26.086157">
<ele>156.213013</ele>
<time>2010-07-17T14:06:14Z</time>
<desc>lat.=55.839359, lon.=26.086157, Alt.=156.213013m. Speed=0.144000m/h.</desc>
<speed>0.040000</speed>
</trkpt>
<trkpt lat="55.839359" lon="26.086157">
<ele>156.213013</ele>
<time>2010-07-17T14:06:15Z</time>
<desc>lat.=55.839359, lon.=26.086157, Alt.=156.213013m. Speed=0.324000m/h.</desc>
<speed>0.090000</speed>
</trkpt>
<trkpt lat="55.839359" lon="26.086155">
<ele>156.213013</ele>
<time>2010-07-17T14:06:16Z</time>
<desc>lat.=55.839359, lon.=26.086155, Alt.=156.213013m. Speed=0.288000m/h.</desc>
<speed>0.080000</speed>
</trkpt>
<trkpt lat="55.839359" lon="26.086155">
<ele>156.213013</ele>
<time>2010-07-17T14:06:17Z</time>
<desc>lat.=55.839359, lon.=26.086155, Alt.=156.213013m. Speed=0.108000m/h.</desc>
<speed>0.030000</speed>
</trkpt>
<trkpt lat="55.839359" lon="26.086155">
<ele>156.213013</ele>
<time>2010-07-17T14:06:18Z</time>
<desc>lat.=55.839359, lon.=26.086155, Alt.=156.213013m. Speed=0.108000m/h.</desc>
<speed>0.030000</speed>
</trkpt>
<trkpt lat="55.839359" lon="26.086153">
<ele>156.213013</ele>
<time>2010-07-17T14:06:19Z</time>
<desc>lat.=55.839359, lon.=26.086153, Alt.=156.213013m. Speed=0.252000m/h.</desc>
<speed>0.070000</speed>
</trkpt>
<trkpt lat="55.839359" lon="26.086153">
<ele>156.213013</ele>
<time>2010-07-17T14:06:20Z</time>
<desc>lat.=55.839359, lon.=26.086153, Alt.=156.213013m. Speed=0.180000m/h.</desc>
<speed>0.050000</speed>
</trkpt>
<trkpt lat="55.839359" lon="26.086151">
<ele>156.213013</ele>
<time>2010-07-17T14:06:21Z</time>
<desc>lat.=55.839359, lon.=26.086151, Alt.=156.213013m. Speed=0.036000m/h.</desc>
<speed>0.010000</speed>
</trkpt>
<trkpt lat="55.839359" lon="26.086151">
<ele>156.216919</ele>
<time>2010-07-17T14:06:22Z</time>
<desc>lat.=55.839359, lon.=26.086151, Alt.=156.216919m. Speed=0.252000m/h.</desc>
<speed>0.070000</speed>
</trkpt>
<trkpt lat="55.839359" lon="26.086151">
<ele>156.216919</ele>
<time>2010-07-17T14:06:23Z</time>
<desc>lat.=55.839359, lon.=26.086151, Alt.=156.216919m. Speed=0.288000m/h.</desc>
<speed>0.080000</speed>
</trkpt>
<trkpt lat="55.839359" lon="26.086149">
<ele>156.216919</ele>
<time>2010-07-17T14:06:24Z</time>
<desc>lat.=55.839359, lon.=26.086149, Alt.=156.216919m. Speed=0.360000m/h.</desc>
<speed>0.100000</speed>
</trkpt>
<trkpt lat="55.839355" lon="26.086147">
<ele>156.216919</ele>
<time>2010-07-17T14:06:25Z</time>
<desc>lat.=55.839355, lon.=26.086147, Alt.=156.216919m. Speed=0.216000m/h.</desc>
<speed>0.060000</speed>
</trkpt>
<trkpt lat="55.839355" lon="26.086147">
<ele>156.216919</ele>
<time>2010-07-17T14:06:26Z</time>
<desc>lat.=55.839355, lon.=26.086147, Alt.=156.216919m. Speed=0.072000m/h.</desc>
<speed>0.020000</speed>
</trkpt>
<trkpt lat="55.839355" lon="26.086147">
<ele>156.213013</ele>
<time>2010-07-17T14:06:27Z</time>
<desc>lat.=55.839355, lon.=26.086147, Alt.=156.213013m. Speed=0.180000m/h.</desc>
<speed>0.050000</speed>
</trkpt>
<trkpt lat="55.839355" lon="26.086147">
<ele>156.213013</ele>
<time>2010-07-17T14:06:28Z</time>
<desc>lat.=55.839355, lon.=26.086147, Alt.=156.213013m. Speed=0.216000m/h.</desc>
<speed>0.060000</speed>
</trkpt>
<trkpt lat="55.839355" lon="26.086145">
<ele>156.213013</ele>
<time>2010-07-17T14:06:29Z</time>
<desc>lat.=55.839355, lon.=26.086145, Alt.=156.213013m. Speed=0.144000m/h.</desc>
<speed>0.040000</speed>
</trkpt>
<trkpt lat="55.839355" lon="26.086145">
<ele>156.213013</ele>
<time>2010-07-17T14:06:30Z</time>
<desc>lat.=55.839355, lon.=26.086145, Alt.=156.213013m. Speed=0.000000m/h.</desc>
<speed>0.000000</speed>
</trkpt>
<trkpt lat="55.839355" lon="26.086145">
<ele>156.213013</ele>
<time>2010-07-17T14:06:31Z</time>
<desc>lat.=55.839355, lon.=26.086145, Alt.=156.213013m. Speed=0.000000m/h.</desc>
<speed>0.000000</speed>
</trkpt>
<trkpt lat="55.839355" lon="26.086145">
<ele>156.213013</ele>
<time>2010-07-17T14:06:32Z</time>
<desc>lat.=55.839355, lon.=26.086145, Alt.=156.213013m. Speed=0.000000m/h.</desc>
<speed>0.000000</speed>
</trkpt>
<trkpt lat="55.839355" lon="26.086145">
<ele>156.213013</ele>
<time>2010-07-17T14:06:33Z</time>
<desc>lat.=55.839355, lon.=26.086145, Alt.=156.213013m. Speed=0.000000m/h.</desc>
<speed>0.000000</speed>
</trkpt>
<trkpt lat="55.839355" lon="26.086145">
<ele>156.213013</ele>
<time>2010-07-17T14:06:34Z</time>
<desc>lat.=55.839355, lon.=26.086145, Alt.=156.213013m. Speed=0.108000m/h.</desc>
<speed>0.030000</speed>
</trkpt>
<trkpt lat="55.839355" lon="26.086145">
<ele>156.213013</ele>
<time>2010-07-17T14:06:35Z</time>
<desc>lat.=55.839355, lon.=26.086145, Alt.=156.213013m. Speed=0.072000m/h.</desc>
<speed>0.020000</speed>
</trkpt>
<trkpt lat="55.839355" lon="26.086145">
<ele>156.209106</ele>
<time>2010-07-17T14:06:36Z</time>
<desc>lat.=55.839355, lon.=26.086145, Alt.=156.209106m. Speed=0.000000m/h.</desc>
<speed>0.000000</speed>
</trkpt>
<trkpt lat="55.839355" lon="26.086145">
<ele>156.209106</ele>
<time>2010-07-17T14:06:37Z</time>
<desc>lat.=55.839355, lon.=26.086145, Alt.=156.209106m. Speed=0.108000m/h.</desc>
<speed>0.030000</speed>
</trkpt>
<trkpt lat="55.839355" lon="26.086145">
<ele>156.209106</ele>
<time>2010-07-17T14:06:38Z</time>
<desc>lat.=55.839355, lon.=26.086145, Alt.=156.209106m. Speed=0.000000m/h.</desc>
<speed>0.000000</speed>
</trkpt>
<trkpt lat="55.839355" lon="26.086145">
<ele>156.209106</ele>
<time>2010-07-17T14:06:39Z</time>
<desc>lat.=55.839355, lon.=26.086145, Alt.=156.209106m. Speed=0.000000m/h.</desc>
<speed>0.000000</speed>
</trkpt>
<trkpt lat="55.839355" lon="26.086145">
<ele>156.205200</ele>
<time>2010-07-17T14:06:40Z</time>
<desc>lat.=55.839355, lon.=26.086145, Alt.=156.205200m. Speed=0.036000m/h.</desc>
<speed>0.010000</speed>
</trkpt>
<trkpt lat="55.839355" lon="26.086145">
<ele>156.205200</ele>
<time>2010-07-17T14:06:41Z</time>
<desc>lat.=55.839355, lon.=26.086145, Alt.=156.205200m. Speed=0.036000m/h.</desc>
<speed>0.010000</speed>
</trkpt>
<trkpt lat="55.839355" lon="26.086145">
<ele>156.205200</ele>
<time>2010-07-17T14:06:42Z</time>
<desc>lat.=55.839355, lon.=26.086145, Alt.=156.205200m. Speed=0.000000m/h.</desc>
<speed>0.000000</speed>
</trkpt>
<trkpt lat="55.839355" lon="26.086145">
<ele>156.201294</ele>
<time>2010-07-17T14:06:43Z</time>
<desc>lat.=55.839355, lon.=26.086145, Alt.=156.201294m. Speed=0.000000m/h.</desc>
<speed>0.000000</speed>
</trkpt>
<trkpt lat="55.839355" lon="26.086145">
<ele>156.201294</ele>
<time>2010-07-17T14:06:44Z</time>
<desc>lat.=55.839355, lon.=26.086145, Alt.=156.201294m. Speed=0.000000m/h.</desc>
<speed>0.000000</speed>
</trkpt>
<trkpt lat="55.839355" lon="26.086145">
<ele>156.201294</ele>
<time>2010-07-17T14:06:45Z</time>
<desc>lat.=55.839355, lon.=26.086145, Alt.=156.201294m. Speed=0.000000m/h.</desc>
<speed>0.000000</speed>
</trkpt>
<trkpt lat="55.839355" lon="26.086145">
<ele>156.201294</ele>
<time>2010-07-17T14:06:46Z</time>
<desc>lat.=55.839355, lon.=26.086145, Alt.=156.201294m. Speed=0.000000m/h.</desc>
<speed>0.000000</speed>
</trkpt>
<trkpt lat="55.839355" lon="26.086145">
<ele>156.201294</ele>
<time>2010-07-17T14:06:47Z</time>
<desc>lat.=55.839355, lon.=26.086145, Alt.=156.201294m. Speed=0.072000m/h.</desc>
<speed>0.020000</speed>
</trkpt>
<trkpt lat="55.839355" lon="26.086145">
<ele>156.197388</ele>
<time>2010-07-17T14:06:48Z</time>
<desc>lat.=55.839355, lon.=26.086145, Alt.=156.197388m. Speed=0.108000m/h.</desc>
<speed>0.030000</speed>
</trkpt>
<trkpt lat="55.839355" lon="26.086145">
<ele>156.193481</ele>
<time>2010-07-17T14:06:49Z</time>
<desc>lat.=55.839355, lon.=26.086145, Alt.=156.193481m. Speed=0.144000m/h.</desc>
<speed>0.040000</speed>
</trkpt>
<trkpt lat="55.839355" lon="26.086145">
<ele>156.189575</ele>
<time>2010-07-17T14:06:50Z</time>
<desc>lat.=55.839355, lon.=26.086145, Alt.=156.189575m. Speed=0.216000m/h.</desc>
<speed>0.060000</speed>
</trkpt>
<trkpt lat="55.839355" lon="26.086145">
<ele>156.185669</ele>
<time>2010-07-17T14:06:51Z</time>
<desc>lat.=55.839355, lon.=26.086145, Alt.=156.185669m. Speed=0.072000m/h.</desc>
<speed>0.020000</speed>
</trkpt>
<trkpt lat="55.839355" lon="26.086147">
<ele>156.181763</ele>
<time>2010-07-17T14:06:52Z</time>
<desc>lat.=55.839355, lon.=26.086147, Alt.=156.181763m. Speed=0.000000m/h.</desc>
<speed>0.000000</speed>
</trkpt>
<trkpt lat="55.839355" lon="26.086147">
<ele>156.181763</ele>
<time>2010-07-17T14:06:53Z</time>
<desc>lat.=55.839355, lon.=26.086147, Alt.=156.181763m. Speed=0.108000m/h.</desc>
<speed>0.030000</speed>
</trkpt>
<trkpt lat="55.839355" lon="26.086145">
<ele>156.177856</ele>
<time>2010-07-17T14:06:54Z</time>
<desc>lat.=55.839355, lon.=26.086145, Alt.=156.177856m. Speed=0.036000m/h.</desc>
<speed>0.010000</speed>
</trkpt>
<trkpt lat="55.839355" lon="26.086145">
<ele>156.177856</ele>
<time>2010-07-17T14:06:55Z</time>
<desc>lat.=55.839355, lon.=26.086145, Alt.=156.177856m. Speed=0.252000m/h.</desc>
<speed>0.070000</speed>
</trkpt>
<trkpt lat="55.839355" lon="26.086145">
<ele>156.173950</ele>
<time>2010-07-17T14:06:56Z</time>
<desc>lat.=55.839355, lon.=26.086145, Alt.=156.173950m. Speed=0.216000m/h.</desc>
<speed>0.060000</speed>
</trkpt>
<trkpt lat="55.839355" lon="26.086143">
<ele>156.173950</ele>
<time>2010-07-17T14:06:57Z</time>
<desc>lat.=55.839355, lon.=26.086143, Alt.=156.173950m. Speed=0.288000m/h.</desc>
<speed>0.080000</speed>
</trkpt>
<trkpt lat="55.839352" lon="26.086143">
<ele>156.173950</ele>
<time>2010-07-17T14:06:58Z</time>
<desc>lat.=55.839352, lon.=26.086143, Alt.=156.173950m. Speed=0.144000m/h.</desc>
<speed>0.040000</speed>
</trkpt>
<trkpt lat="55.839352" lon="26.086143">
<ele>156.170044</ele>
<time>2010-07-17T14:06:59Z</time>
<desc>lat.=55.839352, lon.=26.086143, Alt.=156.170044m. Speed=0.000000m/h.</desc>
<speed>0.000000</speed>
</trkpt>
<trkpt lat="55.839352" lon="26.086143">
<ele>156.170044</ele>
<time>2010-07-17T14:07:00Z</time>
<desc>lat.=55.839352, lon.=26.086143, Alt.=156.170044m. Speed=0.108000m/h.</desc>
<speed>0.030000</speed>
</trkpt>
<trkpt lat="55.839352" lon="26.086142">
<ele>156.170044</ele>
<time>2010-07-17T14:07:01Z</time>
<desc>lat.=55.839352, lon.=26.086142, Alt.=156.170044m. Speed=0.252000m/h.</desc>
<speed>0.070000</speed>
</trkpt>
<trkpt lat="55.839352" lon="26.086142">
<ele>156.166138</ele>
<time>2010-07-17T14:07:02Z</time>
<desc>lat.=55.839352, lon.=26.086142, Alt.=156.166138m. Speed=0.288000m/h.</desc>
<speed>0.080000</speed>
</trkpt>
<trkpt lat="55.839352" lon="26.086140">
<ele>156.166138</ele>
<time>2010-07-17T14:07:03Z</time>
<desc>lat.=55.839352, lon.=26.086140, Alt.=156.166138m. Speed=0.324000m/h.</desc>
<speed>0.090000</speed>
</trkpt>
<trkpt lat="55.839352" lon="26.086140">
<ele>156.166138</ele>
<time>2010-07-17T14:07:04Z</time>
<desc>lat.=55.839352, lon.=26.086140, Alt.=156.166138m. Speed=0.216000m/h.</desc>
<speed>0.060000</speed>
</trkpt>
<trkpt lat="55.839352" lon="26.086138">
<ele>156.166138</ele>
<time>2010-07-17T14:07:05Z</time>
<desc>lat.=55.839352, lon.=26.086138, Alt.=156.166138m. Speed=0.252000m/h.</desc>
<speed>0.070000</speed>
</trkpt>
<trkpt lat="55.839348" lon="26.086138">
<ele>156.166138</ele>
<time>2010-07-17T14:07:06Z</time>
<desc>lat.=55.839348, lon.=26.086138, Alt.=156.166138m. Speed=0.288000m/h.</desc>
<speed>0.080000</speed>
</trkpt>
<trkpt lat="55.839348" lon="26.086136">
<ele>156.166138</ele>
<time>2010-07-17T14:07:07Z</time>
<desc>lat.=55.839348, lon.=26.086136, Alt.=156.166138m. Speed=0.216000m/h.</desc>
<speed>0.060000</speed>
</trkpt>
<trkpt lat="55.839348" lon="26.086136">
<ele>156.166138</ele>
<time>2010-07-17T14:07:08Z</time>
<desc>lat.=55.839348, lon.=26.086136, Alt.=156.166138m. Speed=0.180000m/h.</desc>
<speed>0.050000</speed>
</trkpt>
<trkpt lat="55.839348" lon="26.086136">
<ele>156.170044</ele>
<time>2010-07-17T14:07:09Z</time>
<desc>lat.=55.839348, lon.=26.086136, Alt.=156.170044m. Speed=0.072000m/h.</desc>
<speed>0.020000</speed>
</trkpt>
<trkpt lat="55.839348" lon="26.086136">
<ele>156.170044</ele>
<time>2010-07-17T14:07:10Z</time>
<desc>lat.=55.839348, lon.=26.086136, Alt.=156.170044m. Speed=0.000000m/h.</desc>
<speed>0.000000</speed>
</trkpt>
<trkpt lat="55.839348" lon="26.086136">
<ele>156.173950</ele>
<time>2010-07-17T14:07:11Z</time>
<desc>lat.=55.839348, lon.=26.086136, Alt.=156.173950m. Speed=0.000000m/h.</desc>
<speed>0.000000</speed>
</trkpt>
<trkpt lat="55.839348" lon="26.086136">
<ele>156.173950</ele>
<time>2010-07-17T14:07:12Z</time>
<desc>lat.=55.839348, lon.=26.086136, Alt.=156.173950m. Speed=0.144000m/h.</desc>
<speed>0.040000</speed>
</trkpt>
<trkpt lat="55.839348" lon="26.086136">
<ele>156.173950</ele>
<time>2010-07-17T14:07:13Z</time>
<desc>lat.=55.839348, lon.=26.086136, Alt.=156.173950m. Speed=0.144000m/h.</desc>
<speed>0.040000</speed>
</trkpt>
<trkpt lat="55.839348" lon="26.086136">
<ele>156.177856</ele>
<time>2010-07-17T14:07:14Z</time>
<desc>lat.=55.839348, lon.=26.086136, Alt.=156.177856m. Speed=0.000000m/h.</desc>
<speed>0.000000</speed>
</trkpt>
<trkpt lat="55.839348" lon="26.086136">
<ele>156.181763</ele>
<time>2010-07-17T14:07:15Z</time>
<desc>lat.=55.839348, lon.=26.086136, Alt.=156.181763m. Speed=0.036000m/h.</desc>
<speed>0.010000</speed>
</trkpt>
<trkpt lat="55.839348" lon="26.086136">
<ele>156.181763</ele>
<time>2010-07-17T14:07:16Z</time>
<desc>lat.=55.839348, lon.=26.086136, Alt.=156.181763m. Speed=0.108000m/h.</desc>
<speed>0.030000</speed>
</trkpt>
<trkpt lat="55.839348" lon="26.086138">
<ele>156.181763</ele>
<time>2010-07-17T14:07:17Z</time>
<desc>lat.=55.839348, lon.=26.086138, Alt.=156.181763m. Speed=0.108000m/h.</desc>
<speed>0.030000</speed>
</trkpt>
<trkpt lat="55.839348" lon="26.086138">
<ele>156.181763</ele>
<time>2010-07-17T14:07:18Z</time>
<desc>lat.=55.839348, lon.=26.086138, Alt.=156.181763m. Speed=0.252000m/h.</desc>
<speed>0.070000</speed>
</trkpt>
<trkpt lat="55.839348" lon="26.086138">
<ele>156.185669</ele>
<time>2010-07-17T14:07:19Z</time>
<desc>lat.=55.839348, lon.=26.086138, Alt.=156.185669m. Speed=0.072000m/h.</desc>
<speed>0.020000</speed>
</trkpt>
<trkpt lat="55.839348" lon="26.086138">
<ele>156.185669</ele>
<time>2010-07-17T14:07:20Z</time>
<desc>lat.=55.839348, lon.=26.086138, Alt.=156.185669m. Speed=0.036000m/h.</desc>
<speed>0.010000</speed>
</trkpt>
<trkpt lat="55.839352" lon="26.086138">
<ele>156.185669</ele>
<time>2010-07-17T14:07:21Z</time>
<desc>lat.=55.839352, lon.=26.086138, Alt.=156.185669m. Speed=0.072000m/h.</desc>
<speed>0.020000</speed>
</trkpt>
<trkpt lat="55.839352" lon="26.086138">
<ele>156.185669</ele>
<time>2010-07-17T14:07:22Z</time>
<desc>lat.=55.839352, lon.=26.086138, Alt.=156.185669m. Speed=0.072000m/h.</desc>
<speed>0.020000</speed>
</trkpt>
<trkpt lat="55.839352" lon="26.086138">
<ele>156.189575</ele>
<time>2010-07-17T14:07:23Z</time>
<desc>lat.=55.839352, lon.=26.086138, Alt.=156.189575m. Speed=0.216000m/h.</desc>
<speed>0.060000</speed>
</trkpt>
<trkpt lat="55.839352" lon="26.086140">
<ele>156.189575</ele>
<time>2010-07-17T14:07:24Z</time>
<desc>lat.=55.839352, lon.=26.086140, Alt.=156.189575m. Speed=0.036000m/h.</desc>
<speed>0.010000</speed>
</trkpt>
<trkpt lat="55.839352" lon="26.086140">
<ele>156.189575</ele>
<time>2010-07-17T14:07:25Z</time>
<desc>lat.=55.839352, lon.=26.086140, Alt.=156.189575m. Speed=0.000000m/h.</desc>
<speed>0.000000</speed>
</trkpt>
<trkpt lat="55.839352" lon="26.086140">
<ele>156.189575</ele>
<time>2010-07-17T14:07:26Z</time>
<desc>lat.=55.839352, lon.=26.086140, Alt.=156.189575m. Speed=0.072000m/h.</desc>
<speed>0.020000</speed>
</trkpt>
<trkpt lat="55.839352" lon="26.086140">
<ele>156.189575</ele>
<time>2010-07-17T14:07:27Z</time>
<desc>lat.=55.839352, lon.=26.086140, Alt.=156.189575m. Speed=0.000000m/h.</desc>
<speed>0.000000</speed>
</trkpt>
<trkpt lat="55.839352" lon="26.086140">
<ele>156.189575</ele>
<time>2010-07-17T14:07:28Z</time>
<desc>lat.=55.839352, lon.=26.086140, Alt.=156.189575m. Speed=0.000000m/h.</desc>
<speed>0.000000</speed>
</trkpt>
<trkpt lat="55.839352" lon="26.086140">
<ele>156.193481</ele>
<time>2010-07-17T14:07:29Z</time>
<desc>lat.=55.839352, lon.=26.086140, Alt.=156.193481m. Speed=0.000000m/h.</desc>
<speed>0.000000</speed>
</trkpt>
<trkpt lat="55.839352" lon="26.086140">
<ele>156.193481</ele>
<time>2010-07-17T14:07:30Z</time>
<desc>lat.=55.839352, lon.=26.086140, Alt.=156.193481m. Speed=0.000000m/h.</desc>
<speed>0.000000</speed>
</trkpt>
<trkpt lat="55.839352" lon="26.086140">
<ele>156.193481</ele>
<time>2010-07-17T14:07:31Z</time>
<desc>lat.=55.839352, lon.=26.086140, Alt.=156.193481m. Speed=0.000000m/h.</desc>
<speed>0.000000</speed>
</trkpt>
<trkpt lat="55.839352" lon="26.086140">
<ele>156.189575</ele>
<time>2010-07-17T14:07:32Z</time>
<desc>lat.=55.839352, lon.=26.086140, Alt.=156.189575m. Speed=0.072000m/h.</desc>
<speed>0.020000</speed>
</trkpt>
<trkpt lat="55.839352" lon="26.086140">
<ele>156.189575</ele>
<time>2010-07-17T14:07:33Z</time>
<desc>lat.=55.839352, lon.=26.086140, Alt.=156.189575m. Speed=0.180000m/h.</desc>
<speed>0.050000</speed>
</trkpt>
<trkpt lat="55.839352" lon="26.086138">
<ele>156.189575</ele>
<time>2010-07-17T14:07:34Z</time>
<desc>lat.=55.839352, lon.=26.086138, Alt.=156.189575m. Speed=0.180000m/h.</desc>
<speed>0.050000</speed>
</trkpt>
<trkpt lat="55.839348" lon="26.086138">
<ele>156.189575</ele>
<time>2010-07-17T14:07:35Z</time>
<desc>lat.=55.839348, lon.=26.086138, Alt.=156.189575m. Speed=0.180000m/h.</desc>
<speed>0.050000</speed>
</trkpt>
<trkpt lat="55.839348" lon="26.086138">
<ele>156.185669</ele>
<time>2010-07-17T14:07:36Z</time>
<desc>lat.=55.839348, lon.=26.086138, Alt.=156.185669m. Speed=0.216000m/h.</desc>
<speed>0.060000</speed>
</trkpt>
<trkpt lat="55.839348" lon="26.086136">
<ele>156.185669</ele>
<time>2010-07-17T14:07:37Z</time>
<desc>lat.=55.839348, lon.=26.086136, Alt.=156.185669m. Speed=0.000000m/h.</desc>
<speed>0.000000</speed>
</trkpt>
<trkpt lat="55.839348" lon="26.086136">
<ele>156.185669</ele>
<time>2010-07-17T14:07:38Z</time>
<desc>lat.=55.839348, lon.=26.086136, Alt.=156.185669m. Speed=0.108000m/h.</desc>
<speed>0.030000</speed>
</trkpt>
<trkpt lat="55.839348" lon="26.086136">
<ele>156.185669</ele>
<time>2010-07-17T14:07:39Z</time>
<desc>lat.=55.839348, lon.=26.086136, Alt.=156.185669m. Speed=0.036000m/h.</desc>
<speed>0.010000</speed>
</trkpt>
<trkpt lat="55.839348" lon="26.086136">
<ele>156.185669</ele>
<time>2010-07-17T14:07:40Z</time>
<desc>lat.=55.839348, lon.=26.086136, Alt.=156.185669m. Speed=0.036000m/h.</desc>
<speed>0.010000</speed>
</trkpt>
<trkpt lat="55.839348" lon="26.086136">
<ele>156.181763</ele>
<time>2010-07-17T14:07:41Z</time>
<desc>lat.=55.839348, lon.=26.086136, Alt.=156.181763m. Speed=0.072000m/h.</desc>
<speed>0.020000</speed>
</trkpt>
<trkpt lat="55.839348" lon="26.086136">
<ele>156.181763</ele>
<time>2010-07-17T14:07:42Z</time>
<desc>lat.=55.839348, lon.=26.086136, Alt.=156.181763m. Speed=0.036000m/h.</desc>
<speed>0.010000</speed>
</trkpt>
<trkpt lat="55.839348" lon="26.086136">
<ele>156.181763</ele>
<time>2010-07-17T14:07:43Z</time>
<desc>lat.=55.839348, lon.=26.086136, Alt.=156.181763m. Speed=0.216000m/h.</desc>
<speed>0.060000</speed>
</trkpt>
<trkpt lat="55.839348" lon="26.086134">
<ele>156.181763</ele>
<time>2010-07-17T14:07:44Z</time>
<desc>lat.=55.839348, lon.=26.086134, Alt.=156.181763m. Speed=0.324000m/h.</desc>
<speed>0.090000</speed>
</trkpt>
<trkpt lat="55.839348" lon="26.086134">
<ele>156.181763</ele>
<time>2010-07-17T14:07:45Z</time>
<desc>lat.=55.839348, lon.=26.086134, Alt.=156.181763m. Speed=0.180000m/h.</desc>
<speed>0.050000</speed>
</trkpt>
<trkpt lat="55.839348" lon="26.086134">
<ele>156.181763</ele>
<time>2010-07-17T14:07:46Z</time>
<desc>lat.=55.839348, lon.=26.086134, Alt.=156.181763m. Speed=0.144000m/h.</desc>
<speed>0.040000</speed>
</trkpt>
<trkpt lat="55.839344" lon="26.086134">
<ele>156.177856</ele>
<time>2010-07-17T14:07:47Z</time>
<desc>lat.=55.839344, lon.=26.086134, Alt.=156.177856m. Speed=0.252000m/h.</desc>
<speed>0.070000</speed>
</trkpt>
<trkpt lat="55.839344" lon="26.086132">
<ele>156.177856</ele>
<time>2010-07-17T14:07:48Z</time>
<desc>lat.=55.839344, lon.=26.086132, Alt.=156.177856m. Speed=0.468000m/h.</desc>
<speed>0.130000</speed>
</trkpt>
<trkpt lat="55.839344" lon="26.086130">
<ele>156.177856</ele>
<time>2010-07-17T14:07:49Z</time>
<desc>lat.=55.839344, lon.=26.086130, Alt.=156.177856m. Speed=0.540000m/h.</desc>
<speed>0.150000</speed>
</trkpt>
<trkpt lat="55.839344" lon="26.086128">
<ele>156.177856</ele>
<time>2010-07-17T14:07:50Z</time>
<desc>lat.=55.839344, lon.=26.086128, Alt.=156.177856m. Speed=0.216000m/h.</desc>
<speed>0.060000</speed>
</trkpt>
<trkpt lat="55.839344" lon="26.086128">
<ele>156.173950</ele>
<time>2010-07-17T14:07:51Z</time>
<desc>lat.=55.839344, lon.=26.086128, Alt.=156.173950m. Speed=0.000000m/h.</desc>
<speed>0.000000</speed>
</trkpt>
<trkpt lat="55.839344" lon="26.086128">
<ele>156.173950</ele>
<time>2010-07-17T14:07:52Z</time>
<desc>lat.=55.839344, lon.=26.086128, Alt.=156.173950m. Speed=0.108000m/h.</desc>
<speed>0.030000</speed>
</trkpt>
<trkpt lat="55.839344" lon="26.086128">
<ele>156.173950</ele>
<time>2010-07-17T14:07:53Z</time>
<desc>lat.=55.839344, lon.=26.086128, Alt.=156.173950m. Speed=0.000000m/h.</desc>
<speed>0.000000</speed>
</trkpt>
<trkpt lat="55.839344" lon="26.086128">
<ele>156.173950</ele>
<time>2010-07-17T14:07:54Z</time>
<desc>lat.=55.839344, lon.=26.086128, Alt.=156.173950m. Speed=0.072000m/h.</desc>
<speed>0.020000</speed>
</trkpt>
<trkpt lat="55.839344" lon="26.086126">
<ele>156.170044</ele>
<time>2010-07-17T14:07:55Z</time>
<desc>lat.=55.839344, lon.=26.086126, Alt.=156.170044m. Speed=0.000000m/h.</desc>
<speed>0.000000</speed>
</trkpt>
<trkpt lat="55.839344" lon="26.086126">
<ele>156.170044</ele>
<time>2010-07-17T14:07:56Z</time>
<desc>lat.=55.839344, lon.=26.086126, Alt.=156.170044m. Speed=0.000000m/h.</desc>
<speed>0.000000</speed>
</trkpt>
<trkpt lat="55.839344" lon="26.086126">
<ele>156.170044</ele>
<time>2010-07-17T14:07:57Z</time>
<desc>lat.=55.839344, lon.=26.086126, Alt.=156.170044m. Speed=0.000000m/h.</desc>
<speed>0.000000</speed>
</trkpt>
<trkpt lat="55.839344" lon="26.086126">
<ele>156.170044</ele>
<time>2010-07-17T14:07:58Z</time>
<desc>lat.=55.839344, lon.=26.086126, Alt.=156.170044m. Speed=0.072000m/h.</desc>
<speed>0.020000</speed>
</trkpt>
<trkpt lat="55.839344" lon="26.086126">
<ele>156.166138</ele>
<time>2010-07-17T14:07:59Z</time>
<desc>lat.=55.839344, lon.=26.086126, Alt.=156.166138m. Speed=0.036000m/h.</desc>
<speed>0.010000</speed>
</trkpt>
<trkpt lat="55.839344" lon="26.086126">
<ele>156.166138</ele>
<time>2010-07-17T14:08:00Z</time>
<desc>lat.=55.839344, lon.=26.086126, Alt.=156.166138m. Speed=0.000000m/h.</desc>
<speed>0.000000</speed>
</trkpt>
<trkpt lat="55.839344" lon="26.086126">
<ele>156.166138</ele>
<time>2010-07-17T14:08:01Z</time>
<desc>lat.=55.839344, lon.=26.086126, Alt.=156.166138m. Speed=0.000000m/h.</desc>
<speed>0.000000</speed>
</trkpt>
<trkpt lat="55.839344" lon="26.086126">
<ele>156.166138</ele>
<time>2010-07-17T14:08:02Z</time>
<desc>lat.=55.839344, lon.=26.086126, Alt.=156.166138m. Speed=0.144000m/h.</desc>
<speed>0.040000</speed>
</trkpt>
<trkpt lat="55.839344" lon="26.086126">
<ele>156.162231</ele>
<time>2010-07-17T14:08:03Z</time>
<desc>lat.=55.839344, lon.=26.086126, Alt.=156.162231m. Speed=0.072000m/h.</desc>
<speed>0.020000</speed>
</trkpt>
<trkpt lat="55.839344" lon="26.086126">
<ele>156.162231</ele>
<time>2010-07-17T14:08:04Z</time>
<desc>lat.=55.839344, lon.=26.086126, Alt.=156.162231m. Speed=0.108000m/h.</desc>
<speed>0.030000</speed>
</trkpt>
<trkpt lat="55.839344" lon="26.086126">
<ele>156.162231</ele>
<time>2010-07-17T14:08:05Z</time>
<desc>lat.=55.839344, lon.=26.086126, Alt.=156.162231m. Speed=0.180000m/h.</desc>
<speed>0.050000</speed>
</trkpt>
<trkpt lat="55.839344" lon="26.086126">
<ele>156.166138</ele>
<time>2010-07-17T14:08:06Z</time>
<desc>lat.=55.839344, lon.=26.086126, Alt.=156.166138m. Speed=0.612000m/h.</desc>
<speed>0.170000</speed>
</trkpt>
<trkpt lat="55.839344" lon="26.086128">
<ele>156.162231</ele>
<time>2010-07-17T14:08:07Z</time>
<desc>lat.=55.839344, lon.=26.086128, Alt.=156.162231m. Speed=0.216000m/h.</desc>
<speed>0.060000</speed>
</trkpt>
<trkpt lat="55.839344" lon="26.086130">
<ele>156.166138</ele>
<time>2010-07-17T14:08:08Z</time>
<desc>lat.=55.839344, lon.=26.086130, Alt.=156.166138m. Speed=0.000000m/h.</desc>
<speed>0.000000</speed>
</trkpt>
<trkpt lat="55.839344" lon="26.086130">
<ele>156.166138</ele>
<time>2010-07-17T14:08:09Z</time>
<desc>lat.=55.839344, lon.=26.086130, Alt.=156.166138m. Speed=0.180000m/h.</desc>
<speed>0.050000</speed>
</trkpt>
<trkpt lat="55.839344" lon="26.086128">
<ele>156.166138</ele>
<time>2010-07-17T14:08:10Z</time>
<desc>lat.=55.839344, lon.=26.086128, Alt.=156.166138m. Speed=0.108000m/h.</desc>
<speed>0.030000</speed>
</trkpt>
<trkpt lat="55.839344" lon="26.086128">
<ele>156.166138</ele>
<time>2010-07-17T14:08:11Z</time>
<desc>lat.=55.839344, lon.=26.086128, Alt.=156.166138m. Speed=0.540000m/h.</desc>
<speed>0.150000</speed>
</trkpt>
<trkpt lat="55.839344" lon="26.086126">
<ele>156.166138</ele>
<time>2010-07-17T14:08:12Z</time>
<desc>lat.=55.839344, lon.=26.086126, Alt.=156.166138m. Speed=0.396000m/h.</desc>
<speed>0.110000</speed>
</trkpt>
<trkpt lat="55.839340" lon="26.086124">
<ele>156.166138</ele>
<time>2010-07-17T14:08:13Z</time>
<desc>lat.=55.839340, lon.=26.086124, Alt.=156.166138m. Speed=0.324000m/h.</desc>
<speed>0.090000</speed>
</trkpt>
<trkpt lat="55.839340" lon="26.086124">
<ele>156.166138</ele>
<time>2010-07-17T14:08:14Z</time>
<desc>lat.=55.839340, lon.=26.086124, Alt.=156.166138m. Speed=0.540000m/h.</desc>
<speed>0.150000</speed>
</trkpt>
<trkpt lat="55.839340" lon="26.086123">
<ele>156.166138</ele>
<time>2010-07-17T14:08:15Z</time>
<desc>lat.=55.839340, lon.=26.086123, Alt.=156.166138m. Speed=0.396000m/h.</desc>
<speed>0.110000</speed>
</trkpt>
<trkpt lat="55.839340" lon="26.086121">
<ele>156.166138</ele>
<time>2010-07-17T14:08:16Z</time>
<desc>lat.=55.839340, lon.=26.086121, Alt.=156.166138m. Speed=0.180000m/h.</desc>
<speed>0.050000</speed>
</trkpt>
<trkpt lat="55.839340" lon="26.086121">
<ele>156.166138</ele>
<time>2010-07-17T14:08:17Z</time>
<desc>lat.=55.839340, lon.=26.086121, Alt.=156.166138m. Speed=0.108000m/h.</desc>
<speed>0.030000</speed>
</trkpt>
<trkpt lat="55.839340" lon="26.086121">
<ele>156.166138</ele>
<time>2010-07-17T14:08:18Z</time>
<desc>lat.=55.839340, lon.=26.086121, Alt.=156.166138m. Speed=0.108000m/h.</desc>
<speed>0.030000</speed>
</trkpt>
<trkpt lat="55.839340" lon="26.086123">
<ele>156.166138</ele>
<time>2010-07-17T14:08:19Z</time>
<desc>lat.=55.839340, lon.=26.086123, Alt.=156.166138m. Speed=0.108000m/h.</desc>
<speed>0.030000</speed>
</trkpt>
<trkpt lat="55.839340" lon="26.086123">
<ele>156.166138</ele>
<time>2010-07-17T14:08:20Z</time>
<desc>lat.=55.839340, lon.=26.086123, Alt.=156.166138m. Speed=0.144000m/h.</desc>
<speed>0.040000</speed>
</trkpt>
<trkpt lat="55.839340" lon="26.086123">
<ele>156.166138</ele>
<time>2010-07-17T14:08:21Z</time>
<desc>lat.=55.839340, lon.=26.086123, Alt.=156.166138m. Speed=0.468000m/h.</desc>
<speed>0.130000</speed>
</trkpt>
<trkpt lat="55.839340" lon="26.086124">
<ele>156.166138</ele>
<time>2010-07-17T14:08:22Z</time>
<desc>lat.=55.839340, lon.=26.086124, Alt.=156.166138m. Speed=0.396000m/h.</desc>
<speed>0.110000</speed>
</trkpt>
<trkpt lat="55.839340" lon="26.086124">
<ele>156.166138</ele>
<time>2010-07-17T14:08:23Z</time>
<desc>lat.=55.839340, lon.=26.086124, Alt.=156.166138m. Speed=0.216000m/h.</desc>
<speed>0.060000</speed>
</trkpt>
<trkpt lat="55.839340" lon="26.086124">
<ele>156.166138</ele>
<time>2010-07-17T14:08:24Z</time>
<desc>lat.=55.839340, lon.=26.086124, Alt.=156.166138m. Speed=0.108000m/h.</desc>
<speed>0.030000</speed>
</trkpt>
<trkpt lat="55.839340" lon="26.086124">
<ele>156.166138</ele>
<time>2010-07-17T14:08:25Z</time>
<desc>lat.=55.839340, lon.=26.086124, Alt.=156.166138m. Speed=0.108000m/h.</desc>
<speed>0.030000</speed>
</trkpt>
<trkpt lat="55.839340" lon="26.086124">
<ele>156.166138</ele>
<time>2010-07-17T14:08:26Z</time>
<desc>lat.=55.839340, lon.=26.086124, Alt.=156.166138m. Speed=0.072000m/h.</desc>
<speed>0.020000</speed>
</trkpt>
<trkpt lat="55.839340" lon="26.086124">
<ele>156.166138</ele>
<time>2010-07-17T14:08:27Z</time>
<desc>lat.=55.839340, lon.=26.086124, Alt.=156.166138m. Speed=0.036000m/h.</desc>
<speed>0.010000</speed>
</trkpt>
<trkpt lat="55.839340" lon="26.086124">
<ele>156.166138</ele>
<time>2010-07-17T14:08:28Z</time>
<desc>lat.=55.839340, lon.=26.086124, Alt.=156.166138m. Speed=0.072000m/h.</desc>
<speed>0.020000</speed>
</trkpt>
<trkpt lat="55.839340" lon="26.086124">
<ele>156.170044</ele>
<time>2010-07-17T14:08:29Z</time>
<desc>lat.=55.839340, lon.=26.086124, Alt.=156.170044m. Speed=0.180000m/h.</desc>
<speed>0.050000</speed>
</trkpt>
<trkpt lat="55.839340" lon="26.086124">
<ele>156.170044</ele>
<time>2010-07-17T14:08:30Z</time>
<desc>lat.=55.839340, lon.=26.086124, Alt.=156.170044m. Speed=0.180000m/h.</desc>
<speed>0.050000</speed>
</trkpt>
<trkpt lat="55.839340" lon="26.086124">
<ele>156.170044</ele>
<time>2010-07-17T14:08:31Z</time>
<desc>lat.=55.839340, lon.=26.086124, Alt.=156.170044m. Speed=0.288000m/h.</desc>
<speed>0.080000</speed>
</trkpt>
<trkpt lat="55.839340" lon="26.086124">
<ele>156.166138</ele>
<time>2010-07-17T14:08:32Z</time>
<desc>lat.=55.839340, lon.=26.086124, Alt.=156.166138m. Speed=0.036000m/h.</desc>
<speed>0.010000</speed>
</trkpt>
<trkpt lat="55.839340" lon="26.086124">
<ele>156.166138</ele>
<time>2010-07-17T14:08:33Z</time>
<desc>lat.=55.839340, lon.=26.086124, Alt.=156.166138m. Speed=0.000000m/h.</desc>
<speed>0.000000</speed>
</trkpt>
<trkpt lat="55.839340" lon="26.086124">
<ele>156.166138</ele>
<time>2010-07-17T14:08:34Z</time>
<desc>lat.=55.839340, lon.=26.086124, Alt.=156.166138m. Speed=0.000000m/h.</desc>
<speed>0.000000</speed>
</trkpt>
<trkpt lat="55.839340" lon="26.086123">
<ele>156.166138</ele>
<time>2010-07-17T14:08:35Z</time>
<desc>lat.=55.839340, lon.=26.086123, Alt.=156.166138m. Speed=0.000000m/h.</desc>
<speed>0.000000</speed>
</trkpt>
<trkpt lat="55.839340" lon="26.086123">
<ele>156.166138</ele>
<time>2010-07-17T14:08:36Z</time>
<desc>lat.=55.839340, lon.=26.086123, Alt.=156.166138m. Speed=0.000000m/h.</desc>
<speed>0.000000</speed>
</trkpt>
<trkpt lat="55.839340" lon="26.086123">
<ele>156.166138</ele>
<time>2010-07-17T14:08:37Z</time>
<desc>lat.=55.839340, lon.=26.086123, Alt.=156.166138m. Speed=0.000000m/h.</desc>
<speed>0.000000</speed>
</trkpt>
<trkpt lat="55.839340" lon="26.086123">
<ele>156.166138</ele>
<time>2010-07-17T14:08:38Z</time>
<desc>lat.=55.839340, lon.=26.086123, Alt.=156.166138m. Speed=0.000000m/h.</desc>
<speed>0.000000</speed>
</trkpt>
<trkpt lat="55.839340" lon="26.086123">
<ele>156.162231</ele>
<time>2010-07-17T14:08:39Z</time>
<desc>lat.=55.839340, lon.=26.086123, Alt.=156.162231m. Speed=0.000000m/h.</desc>
<speed>0.000000</speed>
</trkpt>
<trkpt lat="55.839340" lon="26.086123">
<ele>156.158325</ele>
<time>2010-07-17T14:08:40Z</time>
<desc>lat.=55.839340, lon.=26.086123, Alt.=156.158325m. Speed=0.036000m/h.</desc>
<speed>0.010000</speed>
</trkpt>
<trkpt lat="55.839340" lon="26.086123">
<ele>156.158325</ele>
<time>2010-07-17T14:08:41Z</time>
<desc>lat.=55.839340, lon.=26.086123, Alt.=156.158325m. Speed=0.036000m/h.</desc>
<speed>0.010000</speed>
</trkpt>
<trkpt lat="55.839340" lon="26.086123">
<ele>156.162231</ele>
<time>2010-07-17T14:08:42Z</time>
<desc>lat.=55.839340, lon.=26.086123, Alt.=156.162231m. Speed=0.000000m/h.</desc>
<speed>0.000000</speed>
</trkpt>
<trkpt lat="55.839340" lon="26.086124">
<ele>156.166138</ele>
<time>2010-07-17T14:08:43Z</time>
<desc>lat.=55.839340, lon.=26.086124, Alt.=156.166138m. Speed=0.000000m/h.</desc>
<speed>0.000000</speed>
</trkpt>
<trkpt lat="55.839340" lon="26.086124">
<ele>156.162231</ele>
<time>2010-07-17T14:08:44Z</time>
<desc>lat.=55.839340, lon.=26.086124, Alt.=156.162231m. Speed=0.000000m/h.</desc>
<speed>0.000000</speed>
</trkpt>
<trkpt lat="55.839340" lon="26.086124">
<ele>156.166138</ele>
<time>2010-07-17T14:08:45Z</time>
<desc>lat.=55.839340, lon.=26.086124, Alt.=156.166138m. Speed=0.000000m/h.</desc>
<speed>0.000000</speed>
</trkpt>
<trkpt lat="55.839340" lon="26.086124">
<ele>156.170044</ele>
<time>2010-07-17T14:08:46Z</time>
<desc>lat.=55.839340, lon.=26.086124, Alt.=156.170044m. Speed=0.036000m/h.</desc>
<speed>0.010000</speed>
</trkpt>
<trkpt lat="55.839340" lon="26.086124">
<ele>156.166138</ele>
<time>2010-07-17T14:08:47Z</time>
<desc>lat.=55.839340, lon.=26.086124, Alt.=156.166138m. Speed=0.000000m/h.</desc>
<speed>0.000000</speed>
</trkpt>
<trkpt lat="55.839340" lon="26.086124">
<ele>156.162231</ele>
<time>2010-07-17T14:08:48Z</time>
<desc>lat.=55.839340, lon.=26.086124, Alt.=156.162231m. Speed=0.036000m/h.</desc>
<speed>0.010000</speed>
</trkpt>
<trkpt lat="55.839340" lon="26.086124">
<ele>156.162231</ele>
<time>2010-07-17T14:08:49Z</time>
<desc>lat.=55.839340, lon.=26.086124, Alt.=156.162231m. Speed=0.000000m/h.</desc>
<speed>0.000000</speed>
</trkpt>
<trkpt lat="55.839340" lon="26.086123">
<ele>156.162231</ele>
<time>2010-07-17T14:08:50Z</time>
<desc>lat.=55.839340, lon.=26.086123, Alt.=156.162231m. Speed=0.036000m/h.</desc>
<speed>0.010000</speed>
</trkpt>
<trkpt lat="55.839340" lon="26.086123">
<ele>156.158325</ele>
<time>2010-07-17T14:08:51Z</time>
<desc>lat.=55.839340, lon.=26.086123, Alt.=156.158325m. Speed=0.000000m/h.</desc>
<speed>0.000000</speed>
</trkpt>
<trkpt lat="55.839340" lon="26.086123">
<ele>156.158325</ele>
<time>2010-07-17T14:08:52Z</time>
<desc>lat.=55.839340, lon.=26.086123, Alt.=156.158325m. Speed=0.036000m/h.</desc>
<speed>0.010000</speed>
</trkpt>
<trkpt lat="55.839340" lon="26.086123">
<ele>156.162231</ele>
<time>2010-07-17T14:08:53Z</time>
<desc>lat.=55.839340, lon.=26.086123, Alt.=156.162231m. Speed=0.000000m/h.</desc>
<speed>0.000000</speed>
</trkpt>
<trkpt lat="55.839340" lon="26.086123">
<ele>156.166138</ele>
<time>2010-07-17T14:08:54Z</time>
<desc>lat.=55.839340, lon.=26.086123, Alt.=156.166138m. Speed=0.036000m/h.</desc>
<speed>0.010000</speed>
</trkpt>
<trkpt lat="55.839340" lon="26.086123">
<ele>156.166138</ele>
<time>2010-07-17T14:08:55Z</time>
<desc>lat.=55.839340, lon.=26.086123, Alt.=156.166138m. Speed=0.000000m/h.</desc>
<speed>0.000000</speed>
</trkpt>
<trkpt lat="55.839340" lon="26.086123">
<ele>156.170044</ele>
<time>2010-07-17T14:08:56Z</time>
<desc>lat.=55.839340, lon.=26.086123, Alt.=156.170044m. Speed=0.000000m/h.</desc>
<speed>0.000000</speed>
</trkpt>
<trkpt lat="55.839340" lon="26.086123">
<ele>156.173950</ele>
<time>2010-07-17T14:08:57Z</time>
<desc>lat.=55.839340, lon.=26.086123, Alt.=156.173950m. Speed=0.036000m/h.</desc>
<speed>0.010000</speed>
</trkpt>
<trkpt lat="55.839340" lon="26.086123">
<ele>156.177856</ele>
<time>2010-07-17T14:08:58Z</time>
<desc>lat.=55.839340, lon.=26.086123, Alt.=156.177856m. Speed=0.000000m/h.</desc>
<speed>0.000000</speed>
</trkpt>
<trkpt lat="55.839340" lon="26.086123">
<ele>156.170044</ele>
<time>2010-07-17T14:08:59Z</time>
<desc>lat.=55.839340, lon.=26.086123, Alt.=156.170044m. Speed=0.000000m/h.</desc>
<speed>0.000000</speed>
</trkpt>
<trkpt lat="55.839340" lon="26.086123">
<ele>156.177856</ele>
<time>2010-07-17T14:09:00Z</time>
<desc>lat.=55.839340, lon.=26.086123, Alt.=156.177856m. Speed=0.036000m/h.</desc>
<speed>0.010000</speed>
</trkpt>
<trkpt lat="55.839340" lon="26.086124">
<ele>156.177856</ele>
<time>2010-07-17T14:09:01Z</time>
<desc>lat.=55.839340, lon.=26.086124, Alt.=156.177856m. Speed=0.036000m/h.</desc>
<speed>0.010000</speed>
</trkpt>
<trkpt lat="55.839340" lon="26.086123">
<ele>156.177856</ele>
<time>2010-07-17T14:09:02Z</time>
<desc>lat.=55.839340, lon.=26.086123, Alt.=156.177856m. Speed=0.000000m/h.</desc>
<speed>0.000000</speed>
</trkpt>
<trkpt lat="55.839340" lon="26.086123">
<ele>156.173950</ele>
<time>2010-07-17T14:09:03Z</time>
<desc>lat.=55.839340, lon.=26.086123, Alt.=156.173950m. Speed=0.036000m/h.</desc>
<speed>0.010000</speed>
</trkpt>
<trkpt lat="55.839340" lon="26.086123">
<ele>156.177856</ele>
<time>2010-07-17T14:09:04Z</time>
<desc>lat.=55.839340, lon.=26.086123, Alt.=156.177856m. Speed=0.000000m/h.</desc>
<speed>0.000000</speed>
</trkpt>
<trkpt lat="55.839340" lon="26.086124">
<ele>156.181763</ele>
<time>2010-07-17T14:09:05Z</time>
<desc>lat.=55.839340, lon.=26.086124, Alt.=156.181763m. Speed=0.036000m/h.</desc>
<speed>0.010000</speed>
</trkpt>
<trkpt lat="55.839340" lon="26.086124">
<ele>156.185669</ele>
<time>2010-07-17T14:09:06Z</time>
<desc>lat.=55.839340, lon.=26.086124, Alt.=156.185669m. Speed=0.108000m/h.</desc>
<speed>0.030000</speed>
</trkpt>
<trkpt lat="55.839340" lon="26.086124">
<ele>156.193481</ele>
<time>2010-07-17T14:09:07Z</time>
<desc>lat.=55.839340, lon.=26.086124, Alt.=156.193481m. Speed=0.144000m/h.</desc>
<speed>0.040000</speed>
</trkpt>
<trkpt lat="55.839340" lon="26.086124">
<ele>156.197388</ele>
<time>2010-07-17T14:09:08Z</time>
<desc>lat.=55.839340, lon.=26.086124, Alt.=156.197388m. Speed=0.036000m/h.</desc>
<speed>0.010000</speed>
</trkpt>
<trkpt lat="55.839340" lon="26.086124">
<ele>156.201294</ele>
<time>2010-07-17T14:09:09Z</time>
<desc>lat.=55.839340, lon.=26.086124, Alt.=156.201294m. Speed=0.072000m/h.</desc>
<speed>0.020000</speed>
</trkpt>
<trkpt lat="55.839340" lon="26.086124">
<ele>156.201294</ele>
<time>2010-07-17T14:09:10Z</time>
<desc>lat.=55.839340, lon.=26.086124, Alt.=156.201294m. Speed=0.000000m/h.</desc>
<speed>0.000000</speed>
</trkpt>
<trkpt lat="55.839340" lon="26.086124">
<ele>156.201294</ele>
<time>2010-07-17T14:09:11Z</time>
<desc>lat.=55.839340, lon.=26.086124, Alt.=156.201294m. Speed=0.036000m/h.</desc>
<speed>0.010000</speed>
</trkpt>
<trkpt lat="55.839340" lon="26.086124">
<ele>156.201294</ele>
<time>2010-07-17T14:09:12Z</time>
<desc>lat.=55.839340, lon.=26.086124, Alt.=156.201294m. Speed=0.036000m/h.</desc>
<speed>0.010000</speed>
</trkpt>
<trkpt lat="55.839340" lon="26.086124">
<ele>156.197388</ele>
<time>2010-07-17T14:09:13Z</time>
<desc>lat.=55.839340, lon.=26.086124, Alt.=156.197388m. Speed=0.000000m/h.</desc>
<speed>0.000000</speed>
</trkpt>
<trkpt lat="55.839340" lon="26.086124">
<ele>156.193481</ele>
<time>2010-07-17T14:09:14Z</time>
<desc>lat.=55.839340, lon.=26.086124, Alt.=156.193481m. Speed=0.036000m/h.</desc>
<speed>0.010000</speed>
</trkpt>
<trkpt lat="55.839340" lon="26.086124">
<ele>156.193481</ele>
<time>2010-07-17T14:09:15Z</time>
<desc>lat.=55.839340, lon.=26.086124, Alt.=156.193481m. Speed=0.000000m/h.</desc>
<speed>0.000000</speed>
</trkpt>
<trkpt lat="55.839340" lon="26.086124">
<ele>156.193481</ele>
<time>2010-07-17T14:09:16Z</time>
<desc>lat.=55.839340, lon.=26.086124, Alt.=156.193481m. Speed=0.000000m/h.</desc>
<speed>0.000000</speed>
</trkpt>
<trkpt lat="55.839340" lon="26.086124">
<ele>156.189575</ele>
<time>2010-07-17T14:09:17Z</time>
<desc>lat.=55.839340, lon.=26.086124, Alt.=156.189575m. Speed=0.072000m/h.</desc>
<speed>0.020000</speed>
</trkpt>
<trkpt lat="55.839340" lon="26.086124">
<ele>156.185669</ele>
<time>2010-07-17T14:09:18Z</time>
<desc>lat.=55.839340, lon.=26.086124, Alt.=156.185669m. Speed=0.000000m/h.</desc>
<speed>0.000000</speed>
</trkpt>
<trkpt lat="55.839340" lon="26.086124">
<ele>156.185669</ele>
<time>2010-07-17T14:09:19Z</time>
<desc>lat.=55.839340, lon.=26.086124, Alt.=156.185669m. Speed=0.036000m/h.</desc>
<speed>0.010000</speed>
</trkpt>
<trkpt lat="55.839340" lon="26.086124">
<ele>156.189575</ele>
<time>2010-07-17T14:09:20Z</time>
<desc>lat.=55.839340, lon.=26.086124, Alt.=156.189575m. Speed=0.000000m/h.</desc>
<speed>0.000000</speed>
</trkpt>
<trkpt lat="55.839340" lon="26.086124">
<ele>156.185669</ele>
<time>2010-07-17T14:09:21Z</time>
<desc>lat.=55.839340, lon.=26.086124, Alt.=156.185669m. Speed=0.000000m/h.</desc>
<speed>0.000000</speed>
</trkpt>
<trkpt lat="55.839340" lon="26.086124">
<ele>156.185669</ele>
<time>2010-07-17T14:09:22Z</time>
<desc>lat.=55.839340, lon.=26.086124, Alt.=156.185669m. Speed=0.000000m/h.</desc>
<speed>0.000000</speed>
</trkpt>
<trkpt lat="55.839340" lon="26.086124">
<ele>156.189575</ele>
<time>2010-07-17T14:09:23Z</time>
<desc>lat.=55.839340, lon.=26.086124, Alt.=156.189575m. Speed=0.144000m/h.</desc>
<speed>0.040000</speed>
</trkpt>
<trkpt lat="55.839340" lon="26.086124">
<ele>156.197388</ele>
<time>2010-07-17T14:09:24Z</time>
<desc>lat.=55.839340, lon.=26.086124, Alt.=156.197388m. Speed=0.000000m/h.</desc>
<speed>0.000000</speed>
</trkpt>
<trkpt lat="55.839340" lon="26.086124">
<ele>156.197388</ele>
<time>2010-07-17T14:09:25Z</time>
<desc>lat.=55.839340, lon.=26.086124, Alt.=156.197388m. Speed=0.108000m/h.</desc>
<speed>0.030000</speed>
</trkpt>
<trkpt lat="55.839340" lon="26.086124">
<ele>156.205200</ele>
<time>2010-07-17T14:09:26Z</time>
<desc>lat.=55.839340, lon.=26.086124, Alt.=156.205200m. Speed=0.036000m/h.</desc>
<speed>0.010000</speed>
</trkpt>
<trkpt lat="55.839340" lon="26.086124">
<ele>156.213013</ele>
<time>2010-07-17T14:09:27Z</time>
<desc>lat.=55.839340, lon.=26.086124, Alt.=156.213013m. Speed=0.000000m/h.</desc>
<speed>0.000000</speed>
</trkpt>
<trkpt lat="55.839340" lon="26.086124">
<ele>156.213013</ele>
<time>2010-07-17T14:09:28Z</time>
<desc>lat.=55.839340, lon.=26.086124, Alt.=156.213013m. Speed=0.000000m/h.</desc>
<speed>0.000000</speed>
</trkpt>
<trkpt lat="55.839340" lon="26.086124">
<ele>156.216919</ele>
<time>2010-07-17T14:09:29Z</time>
<desc>lat.=55.839340, lon.=26.086124, Alt.=156.216919m. Speed=0.000000m/h.</desc>
<speed>0.000000</speed>
</trkpt>
<trkpt lat="55.839340" lon="26.086124">
<ele>156.220825</ele>
<time>2010-07-17T14:09:30Z</time>
<desc>lat.=55.839340, lon.=26.086124, Alt.=156.220825m. Speed=0.000000m/h.</desc>
<speed>0.000000</speed>
</trkpt>
<trkpt lat="55.839340" lon="26.086124">
<ele>156.224731</ele>
<time>2010-07-17T14:09:31Z</time>
<desc>lat.=55.839340, lon.=26.086124, Alt.=156.224731m. Speed=0.036000m/h.</desc>
<speed>0.010000</speed>
</trkpt>
<trkpt lat="55.839340" lon="26.086124">
<ele>156.232544</ele>
<time>2010-07-17T14:09:32Z</time>
<desc>lat.=55.839340, lon.=26.086124, Alt.=156.232544m. Speed=0.000000m/h.</desc>
<speed>0.000000</speed>
</trkpt>
<trkpt lat="55.839340" lon="26.086124">
<ele>156.240356</ele>
<time>2010-07-17T14:09:33Z</time>
<desc>lat.=55.839340, lon.=26.086124, Alt.=156.240356m. Speed=0.000000m/h.</desc>
<speed>0.000000</speed>
</trkpt>
<trkpt lat="55.839340" lon="26.086124">
<ele>156.244263</ele>
<time>2010-07-17T14:09:34Z</time>
<desc>lat.=55.839340, lon.=26.086124, Alt.=156.244263m. Speed=0.000000m/h.</desc>
<speed>0.000000</speed>
</trkpt>
<trkpt lat="55.839340" lon="26.086124">
<ele>156.248169</ele>
<time>2010-07-17T14:09:35Z</time>
<desc>lat.=55.839340, lon.=26.086124, Alt.=156.248169m. Speed=0.036000m/h.</desc>
<speed>0.010000</speed>
</trkpt>
<trkpt lat="55.839340" lon="26.086124">
<ele>156.252075</ele>
<time>2010-07-17T14:09:36Z</time>
<desc>lat.=55.839340, lon.=26.086124, Alt.=156.252075m. Speed=0.000000m/h.</desc>
<speed>0.000000</speed>
</trkpt>
<trkpt lat="55.839340" lon="26.086124">
<ele>156.248169</ele>
<time>2010-07-17T14:09:37Z</time>
<desc>lat.=55.839340, lon.=26.086124, Alt.=156.248169m. Speed=0.072000m/h.</desc>
<speed>0.020000</speed>
</trkpt>
<trkpt lat="55.839340" lon="26.086124">
<ele>156.248169</ele>
<time>2010-07-17T14:09:38Z</time>
<desc>lat.=55.839340, lon.=26.086124, Alt.=156.248169m. Speed=0.036000m/h.</desc>
<speed>0.010000</speed>
</trkpt>
<trkpt lat="55.839340" lon="26.086124">
<ele>156.248169</ele>
<time>2010-07-17T14:09:39Z</time>
<desc>lat.=55.839340, lon.=26.086124, Alt.=156.248169m. Speed=0.000000m/h.</desc>
<speed>0.000000</speed>
</trkpt>
<trkpt lat="55.839340" lon="26.086124">
<ele>156.259888</ele>
<time>2010-07-17T14:09:40Z</time>
<desc>lat.=55.839340, lon.=26.086124, Alt.=156.259888m. Speed=0.036000m/h.</desc>
<speed>0.010000</speed>
</trkpt>
<trkpt lat="55.839340" lon="26.086124">
<ele>156.267700</ele>
<time>2010-07-17T14:09:41Z</time>
<desc>lat.=55.839340, lon.=26.086124, Alt.=156.267700m. Speed=0.036000m/h.</desc>
<speed>0.010000</speed>
</trkpt>
<trkpt lat="55.839340" lon="26.086124">
<ele>156.275513</ele>
<time>2010-07-17T14:09:42Z</time>
<desc>lat.=55.839340, lon.=26.086124, Alt.=156.275513m. Speed=0.036000m/h.</desc>
<speed>0.010000</speed>
</trkpt>
<trkpt lat="55.839340" lon="26.086124">
<ele>156.259888</ele>
<time>2010-07-17T14:09:43Z</time>
<desc>lat.=55.839340, lon.=26.086124, Alt.=156.259888m. Speed=0.036000m/h.</desc>
<speed>0.010000</speed>
</trkpt>
<trkpt lat="55.839340" lon="26.086124">
<ele>156.255981</ele>
<time>2010-07-17T14:09:44Z</time>
<desc>lat.=55.839340, lon.=26.086124, Alt.=156.255981m. Speed=0.000000m/h.</desc>
<speed>0.000000</speed>
</trkpt>
<trkpt lat="55.839340" lon="26.086123">
<ele>156.244263</ele>
<time>2010-07-17T14:09:45Z</time>
<desc>lat.=55.839340, lon.=26.086123, Alt.=156.244263m. Speed=0.000000m/h.</desc>
<speed>0.000000</speed>
</trkpt>
<trkpt lat="55.839340" lon="26.086124">
<ele>156.248169</ele>
<time>2010-07-17T14:09:46Z</time>
<desc>lat.=55.839340, lon.=26.086124, Alt.=156.248169m. Speed=0.036000m/h.</desc>
<speed>0.010000</speed>
</trkpt>
<trkpt lat="55.839340" lon="26.086124">
<ele>156.240356</ele>
<time>2010-07-17T14:09:47Z</time>
<desc>lat.=55.839340, lon.=26.086124, Alt.=156.240356m. Speed=0.036000m/h.</desc>
<speed>0.010000</speed>
</trkpt>
<trkpt lat="55.839340" lon="26.086123">
<ele>156.236450</ele>
<time>2010-07-17T14:09:48Z</time>
<desc>lat.=55.839340, lon.=26.086123, Alt.=156.236450m. Speed=0.000000m/h.</desc>
<speed>0.000000</speed>
</trkpt>
<trkpt lat="55.839340" lon="26.086123">
<ele>156.228638</ele>
<time>2010-07-17T14:09:49Z</time>
<desc>lat.=55.839340, lon.=26.086123, Alt.=156.228638m. Speed=0.000000m/h.</desc>
<speed>0.000000</speed>
</trkpt>
<trkpt lat="55.839340" lon="26.086123">
<ele>156.228638</ele>
<time>2010-07-17T14:09:50Z</time>
<desc>lat.=55.839340, lon.=26.086123, Alt.=156.228638m. Speed=0.000000m/h.</desc>
<speed>0.000000</speed>
</trkpt>
<trkpt lat="55.839340" lon="26.086123">
<ele>156.232544</ele>
<time>2010-07-17T14:09:51Z</time>
<desc>lat.=55.839340, lon.=26.086123, Alt.=156.232544m. Speed=0.000000m/h.</desc>
<speed>0.000000</speed>
</trkpt>
<trkpt lat="55.839340" lon="26.086124">
<ele>156.232544</ele>
<time>2010-07-17T14:09:52Z</time>
<desc>lat.=55.839340, lon.=26.086124, Alt.=156.232544m. Speed=0.000000m/h.</desc>
<speed>0.000000</speed>
</trkpt>
<trkpt lat="55.839340" lon="26.086124">
<ele>156.224731</ele>
<time>2010-07-17T14:09:53Z</time>
<desc>lat.=55.839340, lon.=26.086124, Alt.=156.224731m. Speed=0.036000m/h.</desc>
<speed>0.010000</speed>
</trkpt>
<trkpt lat="55.839340" lon="26.086124">
<ele>156.220825</ele>
<time>2010-07-17T14:09:54Z</time>
<desc>lat.=55.839340, lon.=26.086124, Alt.=156.220825m. Speed=0.000000m/h.</desc>
<speed>0.000000</speed>
</trkpt>
<trkpt lat="55.839340" lon="26.086124">
<ele>156.220825</ele>
<time>2010-07-17T14:09:55Z</time>
<desc>lat.=55.839340, lon.=26.086124, Alt.=156.220825m. Speed=0.000000m/h.</desc>
<speed>0.000000</speed>
</trkpt>
<trkpt lat="55.839340" lon="26.086124">
<ele>156.224731</ele>
<time>2010-07-17T14:09:56Z</time>
<desc>lat.=55.839340, lon.=26.086124, Alt.=156.224731m. Speed=0.036000m/h.</desc>
<speed>0.010000</speed>
</trkpt>
<trkpt lat="55.839340" lon="26.086124">
<ele>156.224731</ele>
<time>2010-07-17T14:09:57Z</time>
<desc>lat.=55.839340, lon.=26.086124, Alt.=156.224731m. Speed=0.000000m/h.</desc>
<speed>0.000000</speed>
</trkpt>
<trkpt lat="55.839340" lon="26.086124">
<ele>156.228638</ele>
<time>2010-07-17T14:09:58Z</time>
<desc>lat.=55.839340, lon.=26.086124, Alt.=156.228638m. Speed=0.036000m/h.</desc>
<speed>0.010000</speed>
</trkpt>
<trkpt lat="55.839340" lon="26.086124">
<ele>156.228638</ele>
<time>2010-07-17T14:09:59Z</time>
<desc>lat.=55.839340, lon.=26.086124, Alt.=156.228638m. Speed=0.000000m/h.</desc>
<speed>0.000000</speed>
</trkpt>
<trkpt lat="55.839340" lon="26.086124">
<ele>156.228638</ele>
<time>2010-07-17T14:10:00Z</time>
<desc>lat.=55.839340, lon.=26.086124, Alt.=156.228638m. Speed=0.000000m/h.</desc>
<speed>0.000000</speed>
</trkpt>
<trkpt lat="55.839340" lon="26.086124">
<ele>156.228638</ele>
<time>2010-07-17T14:10:01Z</time>
<desc>lat.=55.839340, lon.=26.086124, Alt.=156.228638m. Speed=0.000000m/h.</desc>
<speed>0.000000</speed>
</trkpt>
<trkpt lat="55.839340" lon="26.086124">
<ele>156.228638</ele>
<time>2010-07-17T14:10:02Z</time>
<desc>lat.=55.839340, lon.=26.086124, Alt.=156.228638m. Speed=0.000000m/h.</desc>
<speed>0.000000</speed>
</trkpt>
<trkpt lat="55.839340" lon="26.086124">
<ele>156.228638</ele>
<time>2010-07-17T14:10:03Z</time>
<desc>lat.=55.839340, lon.=26.086124, Alt.=156.228638m. Speed=0.000000m/h.</desc>
<speed>0.000000</speed>
</trkpt>
<trkpt lat="55.839340" lon="26.086124">
<ele>156.228638</ele>
<time>2010-07-17T14:10:04Z</time>
<desc>lat.=55.839340, lon.=26.086124, Alt.=156.228638m. Speed=0.000000m/h.</desc>
<speed>0.000000</speed>
</trkpt>
<trkpt lat="55.839340" lon="26.086124">
<ele>156.236450</ele>
<time>2010-07-17T14:10:05Z</time>
<desc>lat.=55.839340, lon.=26.086124, Alt.=156.236450m. Speed=0.000000m/h.</desc>
<speed>0.000000</speed>
</trkpt>
<trkpt lat="55.839340" lon="26.086124">
<ele>156.240356</ele>
<time>2010-07-17T14:10:06Z</time>
<desc>lat.=55.839340, lon.=26.086124, Alt.=156.240356m. Speed=0.000000m/h.</desc>
<speed>0.000000</speed>
</trkpt>
<trkpt lat="55.839340" lon="26.086124">
<ele>156.244263</ele>
<time>2010-07-17T14:10:07Z</time>
<desc>lat.=55.839340, lon.=26.086124, Alt.=156.244263m. Speed=0.000000m/h.</desc>
<speed>0.000000</speed>
</trkpt>
<trkpt lat="55.839340" lon="26.086124">
<ele>156.244263</ele>
<time>2010-07-17T14:10:08Z</time>
<desc>lat.=55.839340, lon.=26.086124, Alt.=156.244263m. Speed=0.000000m/h.</desc>
<speed>0.000000</speed>
</trkpt>
<trkpt lat="55.839340" lon="26.086124">
<ele>156.244263</ele>
<time>2010-07-17T14:10:09Z</time>
<desc>lat.=55.839340, lon.=26.086124, Alt.=156.244263m. Speed=0.000000m/h.</desc>
<speed>0.000000</speed>
</trkpt>
<trkpt lat="55.839340" lon="26.086124">
<ele>156.248169</ele>
<time>2010-07-17T14:10:10Z</time>
<desc>lat.=55.839340, lon.=26.086124, Alt.=156.248169m. Speed=0.000000m/h.</desc>
<speed>0.000000</speed>
</trkpt>
<trkpt lat="55.839340" lon="26.086124">
<ele>156.248169</ele>
<time>2010-07-17T14:10:11Z</time>
<desc>lat.=55.839340, lon.=26.086124, Alt.=156.248169m. Speed=0.000000m/h.</desc>
<speed>0.000000</speed>
</trkpt>
<trkpt lat="55.839340" lon="26.086124">
<ele>156.248169</ele>
<time>2010-07-17T14:10:12Z</time>
<desc>lat.=55.839340, lon.=26.086124, Alt.=156.248169m. Speed=0.000000m/h.</desc>
<speed>0.000000</speed>
</trkpt>
<trkpt lat="55.839340" lon="26.086124">
<ele>156.248169</ele>
<time>2010-07-17T14:10:13Z</time>
<desc>lat.=55.839340, lon.=26.086124, Alt.=156.248169m. Speed=0.000000m/h.</desc>
<speed>0.000000</speed>
</trkpt>
<trkpt lat="55.839340" lon="26.086124">
<ele>156.248169</ele>
<time>2010-07-17T14:10:14Z</time>
<desc>lat.=55.839340, lon.=26.086124, Alt.=156.248169m. Speed=0.000000m/h.</desc>
<speed>0.000000</speed>
</trkpt>
<trkpt lat="55.839340" lon="26.086124">
<ele>156.252075</ele>
<time>2010-07-17T14:10:15Z</time>
<desc>lat.=55.839340, lon.=26.086124, Alt.=156.252075m. Speed=0.000000m/h.</desc>
<speed>0.000000</speed>
</trkpt>
<trkpt lat="55.839340" lon="26.086124">
<ele>156.252075</ele>
<time>2010-07-17T14:10:16Z</time>
<desc>lat.=55.839340, lon.=26.086124, Alt.=156.252075m. Speed=0.000000m/h.</desc>
<speed>0.000000</speed>
</trkpt>
<trkpt lat="55.839340" lon="26.086124">
<ele>156.255981</ele>
<time>2010-07-17T14:10:17Z</time>
<desc>lat.=55.839340, lon.=26.086124, Alt.=156.255981m. Speed=0.000000m/h.</desc>
<speed>0.000000</speed>
</trkpt>
<trkpt lat="55.839340" lon="26.086124">
<ele>156.255981</ele>
<time>2010-07-17T14:10:18Z</time>
<desc>lat.=55.839340, lon.=26.086124, Alt.=156.255981m. Speed=0.000000m/h.</desc>
<speed>0.000000</speed>
</trkpt>
<trkpt lat="55.839340" lon="26.086124">
<ele>156.255981</ele>
<time>2010-07-17T14:10:19Z</time>
<desc>lat.=55.839340, lon.=26.086124, Alt.=156.255981m. Speed=0.036000m/h.</desc>
<speed>0.010000</speed>
</trkpt>
<trkpt lat="55.839340" lon="26.086124">
<ele>156.252075</ele>
<time>2010-07-17T14:10:20Z</time>
<desc>lat.=55.839340, lon.=26.086124, Alt.=156.252075m. Speed=0.000000m/h.</desc>
<speed>0.000000</speed>
</trkpt>
<trkpt lat="55.839340" lon="26.086124">
<ele>156.248169</ele>
<time>2010-07-17T14:10:21Z</time>
<desc>lat.=55.839340, lon.=26.086124, Alt.=156.248169m. Speed=0.000000m/h.</desc>
<speed>0.000000</speed>
</trkpt>
<trkpt lat="55.839340" lon="26.086124">
<ele>156.244263</ele>
<time>2010-07-17T14:10:22Z</time>
<desc>lat.=55.839340, lon.=26.086124, Alt.=156.244263m. Speed=0.000000m/h.</desc>
<speed>0.000000</speed>
</trkpt>
<trkpt lat="55.839340" lon="26.086124">
<ele>156.244263</ele>
<time>2010-07-17T14:10:23Z</time>
<desc>lat.=55.839340, lon.=26.086124, Alt.=156.244263m. Speed=0.000000m/h.</desc>
<speed>0.000000</speed>
</trkpt>
<trkpt lat="55.839340" lon="26.086124">
<ele>156.244263</ele>
<time>2010-07-17T14:10:24Z</time>
<desc>lat.=55.839340, lon.=26.086124, Alt.=156.244263m. Speed=0.000000m/h.</desc>
<speed>0.000000</speed>
</trkpt>
<trkpt lat="55.839340" lon="26.086124">
<ele>156.248169</ele>
<time>2010-07-17T14:10:25Z</time>
<desc>lat.=55.839340, lon.=26.086124, Alt.=156.248169m. Speed=0.000000m/h.</desc>
<speed>0.000000</speed>
</trkpt>
<trkpt lat="55.839340" lon="26.086124">
<ele>156.252075</ele>
<time>2010-07-17T14:10:26Z</time>
<desc>lat.=55.839340, lon.=26.086124, Alt.=156.252075m. Speed=0.000000m/h.</desc>
<speed>0.000000</speed>
</trkpt>
<trkpt lat="55.839340" lon="26.086124">
<ele>156.252075</ele>
<time>2010-07-17T14:10:27Z</time>
<desc>lat.=55.839340, lon.=26.086124, Alt.=156.252075m. Speed=0.000000m/h.</desc>
<speed>0.000000</speed>
</trkpt>
<trkpt lat="55.839340" lon="26.086124">
<ele>156.255981</ele>
<time>2010-07-17T14:10:28Z</time>
<desc>lat.=55.839340, lon.=26.086124, Alt.=156.255981m. Speed=0.000000m/h.</desc>
<speed>0.000000</speed>
</trkpt>
<trkpt lat="55.839340" lon="26.086124">
<ele>156.259888</ele>
<time>2010-07-17T14:10:29Z</time>
<desc>lat.=55.839340, lon.=26.086124, Alt.=156.259888m. Speed=0.000000m/h.</desc>
<speed>0.000000</speed>
</trkpt>
<trkpt lat="55.839340" lon="26.086124">
<ele>156.263794</ele>
<time>2010-07-17T14:10:30Z</time>
<desc>lat.=55.839340, lon.=26.086124, Alt.=156.263794m. Speed=0.000000m/h.</desc>
<speed>0.000000</speed>
</trkpt>
<trkpt lat="55.839340" lon="26.086123">
<ele>156.263794</ele>
<time>2010-07-17T14:10:31Z</time>
<desc>lat.=55.839340, lon.=26.086123, Alt.=156.263794m. Speed=0.000000m/h.</desc>
<speed>0.000000</speed>
</trkpt>
<trkpt lat="55.839340" lon="26.086123">
<ele>156.271606</ele>
<time>2010-07-17T14:10:32Z</time>
<desc>lat.=55.839340, lon.=26.086123, Alt.=156.271606m. Speed=0.000000m/h.</desc>
<speed>0.000000</speed>
</trkpt>
<trkpt lat="55.839340" lon="26.086123">
<ele>156.275513</ele>
<time>2010-07-17T14:10:33Z</time>
<desc>lat.=55.839340, lon.=26.086123, Alt.=156.275513m. Speed=0.000000m/h.</desc>
<speed>0.000000</speed>
</trkpt>
<trkpt lat="55.839340" lon="26.086123">
<ele>156.279419</ele>
<time>2010-07-17T14:10:34Z</time>
<desc>lat.=55.839340, lon.=26.086123, Alt.=156.279419m. Speed=0.000000m/h.</desc>
<speed>0.000000</speed>
</trkpt>
<trkpt lat="55.839340" lon="26.086123">
<ele>156.275513</ele>
<time>2010-07-17T14:10:35Z</time>
<desc>lat.=55.839340, lon.=26.086123, Alt.=156.275513m. Speed=0.000000m/h.</desc>
<speed>0.000000</speed>
</trkpt>
<trkpt lat="55.839340" lon="26.086123">
<ele>156.275513</ele>
<time>2010-07-17T14:10:36Z</time>
<desc>lat.=55.839340, lon.=26.086123, Alt.=156.275513m. Speed=0.000000m/h.</desc>
<speed>0.000000</speed>
</trkpt>
<trkpt lat="55.839340" lon="26.086123">
<ele>156.275513</ele>
<time>2010-07-17T14:10:37Z</time>
<desc>lat.=55.839340, lon.=26.086123, Alt.=156.275513m. Speed=0.000000m/h.</desc>
<speed>0.000000</speed>
</trkpt>
<trkpt lat="55.839340" lon="26.086123">
<ele>156.275513</ele>
<time>2010-07-17T14:10:38Z</time>
<desc>lat.=55.839340, lon.=26.086123, Alt.=156.275513m. Speed=0.036000m/h.</desc>
<speed>0.010000</speed>
</trkpt>
<trkpt lat="55.839340" lon="26.086123">
<ele>156.275513</ele>
<time>2010-07-17T14:10:39Z</time>
<desc>lat.=55.839340, lon.=26.086123, Alt.=156.275513m. Speed=0.000000m/h.</desc>
<speed>0.000000</speed>
</trkpt>
<trkpt lat="55.839340" lon="26.086123">
<ele>156.279419</ele>
<time>2010-07-17T14:10:40Z</time>
<desc>lat.=55.839340, lon.=26.086123, Alt.=156.279419m. Speed=0.036000m/h.</desc>
<speed>0.010000</speed>
</trkpt>
<trkpt lat="55.839340" lon="26.086123">
<ele>156.279419</ele>
<time>2010-07-17T14:10:41Z</time>
<desc>lat.=55.839340, lon.=26.086123, Alt.=156.279419m. Speed=0.000000m/h.</desc>
<speed>0.000000</speed>
</trkpt>
<trkpt lat="55.839340" lon="26.086123">
<ele>156.271606</ele>
<time>2010-07-17T14:10:42Z</time>
<desc>lat.=55.839340, lon.=26.086123, Alt.=156.271606m. Speed=0.000000m/h.</desc>
<speed>0.000000</speed>
</trkpt>
<trkpt lat="55.839340" lon="26.086123">
<ele>156.271606</ele>
<time>2010-07-17T14:10:43Z</time>
<desc>lat.=55.839340, lon.=26.086123, Alt.=156.271606m. Speed=0.072000m/h.</desc>
<speed>0.020000</speed>
</trkpt>
<trkpt lat="55.839340" lon="26.086123">
<ele>156.271606</ele>
<time>2010-07-17T14:10:44Z</time>
<desc>lat.=55.839340, lon.=26.086123, Alt.=156.271606m. Speed=0.000000m/h.</desc>
<speed>0.000000</speed>
</trkpt>
<trkpt lat="55.839340" lon="26.086123">
<ele>156.271606</ele>
<time>2010-07-17T14:10:45Z</time>
<desc>lat.=55.839340, lon.=26.086123, Alt.=156.271606m. Speed=0.036000m/h.</desc>
<speed>0.010000</speed>
</trkpt>
<trkpt lat="55.839340" lon="26.086123">
<ele>156.275513</ele>
<time>2010-07-17T14:10:46Z</time>
<desc>lat.=55.839340, lon.=26.086123, Alt.=156.275513m. Speed=0.000000m/h.</desc>
<speed>0.000000</speed>
</trkpt>
<trkpt lat="55.839340" lon="26.086123">
<ele>156.275513</ele>
<time>2010-07-17T14:10:47Z</time>
<desc>lat.=55.839340, lon.=26.086123, Alt.=156.275513m. Speed=0.000000m/h.</desc>
<speed>0.000000</speed>
</trkpt>
<trkpt lat="55.839340" lon="26.086123">
<ele>156.275513</ele>
<time>2010-07-17T14:10:48Z</time>
<desc>lat.=55.839340, lon.=26.086123, Alt.=156.275513m. Speed=0.000000m/h.</desc>
<speed>0.000000</speed>
</trkpt>
<trkpt lat="55.839340" lon="26.086123">
<ele>156.279419</ele>
<time>2010-07-17T14:10:49Z</time>
<desc>lat.=55.839340, lon.=26.086123, Alt.=156.279419m. Speed=0.000000m/h.</desc>
<speed>0.000000</speed>
</trkpt>
<trkpt lat="55.839340" lon="26.086123">
<ele>156.283325</ele>
<time>2010-07-17T14:10:50Z</time>
<desc>lat.=55.839340, lon.=26.086123, Alt.=156.283325m. Speed=0.000000m/h.</desc>
<speed>0.000000</speed>
</trkpt>
<trkpt lat="55.839340" lon="26.086123">
<ele>156.287231</ele>
<time>2010-07-17T14:10:51Z</time>
<desc>lat.=55.839340, lon.=26.086123, Alt.=156.287231m. Speed=0.000000m/h.</desc>
<speed>0.000000</speed>
</trkpt>
<trkpt lat="55.839340" lon="26.086123">
<ele>156.287231</ele>
<time>2010-07-17T14:10:52Z</time>
<desc>lat.=55.839340, lon.=26.086123, Alt.=156.287231m. Speed=0.000000m/h.</desc>
<speed>0.000000</speed>
</trkpt>
<trkpt lat="55.839340" lon="26.086123">
<ele>156.295044</ele>
<time>2010-07-17T14:10:53Z</time>
<desc>lat.=55.839340, lon.=26.086123, Alt.=156.295044m. Speed=0.000000m/h.</desc>
<speed>0.000000</speed>
</trkpt>
<trkpt lat="55.839340" lon="26.086123">
<ele>156.298950</ele>
<time>2010-07-17T14:10:54Z</time>
<desc>lat.=55.839340, lon.=26.086123, Alt.=156.298950m. Speed=0.000000m/h.</desc>
<speed>0.000000</speed>
</trkpt>
<trkpt lat="55.839340" lon="26.086123">
<ele>156.302856</ele>
<time>2010-07-17T14:10:55Z</time>
<desc>lat.=55.839340, lon.=26.086123, Alt.=156.302856m. Speed=0.000000m/h.</desc>
<speed>0.000000</speed>
</trkpt>
<trkpt lat="55.839340" lon="26.086123">
<ele>156.306763</ele>
<time>2010-07-17T14:10:56Z</time>
<desc>lat.=55.839340, lon.=26.086123, Alt.=156.306763m. Speed=0.000000m/h.</desc>
<speed>0.000000</speed>
</trkpt>
<trkpt lat="55.839340" lon="26.086124">
<ele>156.306763</ele>
<time>2010-07-17T14:10:57Z</time>
<desc>lat.=55.839340, lon.=26.086124, Alt.=156.306763m. Speed=0.000000m/h.</desc>
<speed>0.000000</speed>
</trkpt>
<trkpt lat="55.839340" lon="26.086124">
<ele>156.306763</ele>
<time>2010-07-17T14:10:58Z</time>
<desc>lat.=55.839340, lon.=26.086124, Alt.=156.306763m. Speed=0.000000m/h.</desc>
<speed>0.000000</speed>
</trkpt>
<trkpt lat="55.839340" lon="26.086124">
<ele>156.310669</ele>
<time>2010-07-17T14:10:59Z</time>
<desc>lat.=55.839340, lon.=26.086124, Alt.=156.310669m. Speed=0.000000m/h.</desc>
<speed>0.000000</speed>
</trkpt>
<trkpt lat="55.839340" lon="26.086124">
<ele>156.310669</ele>
<time>2010-07-17T14:11:00Z</time>
<desc>lat.=55.839340, lon.=26.086124, Alt.=156.310669m. Speed=0.000000m/h.</desc>
<speed>0.000000</speed>
</trkpt>
<trkpt lat="55.839340" lon="26.086124">
<ele>156.310669</ele>
<time>2010-07-17T14:11:01Z</time>
<desc>lat.=55.839340, lon.=26.086124, Alt.=156.310669m. Speed=0.000000m/h.</desc>
<speed>0.000000</speed>
</trkpt>
<trkpt lat="55.839340" lon="26.086124">
<ele>156.314575</ele>
<time>2010-07-17T14:11:02Z</time>
<desc>lat.=55.839340, lon.=26.086124, Alt.=156.314575m. Speed=0.000000m/h.</desc>
<speed>0.000000</speed>
</trkpt>
<trkpt lat="55.839340" lon="26.086124">
<ele>156.314575</ele>
<time>2010-07-17T14:11:03Z</time>
<desc>lat.=55.839340, lon.=26.086124, Alt.=156.314575m. Speed=0.000000m/h.</desc>
<speed>0.000000</speed>
</trkpt>
<trkpt lat="55.839340" lon="26.086124">
<ele>156.314575</ele>
<time>2010-07-17T14:11:04Z</time>
<desc>lat.=55.839340, lon.=26.086124, Alt.=156.314575m. Speed=0.000000m/h.</desc>
<speed>0.000000</speed>
</trkpt>
<trkpt lat="55.839340" lon="26.086124">
<ele>156.314575</ele>
<time>2010-07-17T14:11:05Z</time>
<desc>lat.=55.839340, lon.=26.086124, Alt.=156.314575m. Speed=0.000000m/h.</desc>
<speed>0.000000</speed>
</trkpt>
<trkpt lat="55.839340" lon="26.086124">
<ele>156.314575</ele>
<time>2010-07-17T14:11:06Z</time>
<desc>lat.=55.839340, lon.=26.086124, Alt.=156.314575m. Speed=0.000000m/h.</desc>
<speed>0.000000</speed>
</trkpt>
<trkpt lat="55.839340" lon="26.086124">
<ele>156.314575</ele>
<time>2010-07-17T14:11:07Z</time>
<desc>lat.=55.839340, lon.=26.086124, Alt.=156.314575m. Speed=0.000000m/h.</desc>
<speed>0.000000</speed>
</trkpt>
<trkpt lat="55.839340" lon="26.086124">
<ele>156.310669</ele>
<time>2010-07-17T14:11:08Z</time>
<desc>lat.=55.839340, lon.=26.086124, Alt.=156.310669m. Speed=0.000000m/h.</desc>
<speed>0.000000</speed>
</trkpt>
<trkpt lat="55.839340" lon="26.086124">
<ele>156.310669</ele>
<time>2010-07-17T14:11:09Z</time>
<desc>lat.=55.839340, lon.=26.086124, Alt.=156.310669m. Speed=0.000000m/h.</desc>
<speed>0.000000</speed>
</trkpt>
<trkpt lat="55.839340" lon="26.086124">
<ele>156.306763</ele>
<time>2010-07-17T14:11:10Z</time>
<desc>lat.=55.839340, lon.=26.086124, Alt.=156.306763m. Speed=0.000000m/h.</desc>
<speed>0.000000</speed>
</trkpt>
<trkpt lat="55.839340" lon="26.086124">
<ele>156.302856</ele>
<time>2010-07-17T14:11:11Z</time>
<desc>lat.=55.839340, lon.=26.086124, Alt.=156.302856m. Speed=0.036000m/h.</desc>
<speed>0.010000</speed>
</trkpt>
<trkpt lat="55.839340" lon="26.086124">
<ele>156.302856</ele>
<time>2010-07-17T14:11:12Z</time>
<desc>lat.=55.839340, lon.=26.086124, Alt.=156.302856m. Speed=0.000000m/h.</desc>
<speed>0.000000</speed>
</trkpt>
<trkpt lat="55.839340" lon="26.086123">
<ele>156.298950</ele>
<time>2010-07-17T14:11:13Z</time>
<desc>lat.=55.839340, lon.=26.086123, Alt.=156.298950m. Speed=0.000000m/h.</desc>
<speed>0.000000</speed>
</trkpt>
<trkpt lat="55.839340" lon="26.086123">
<ele>156.295044</ele>
<time>2010-07-17T14:11:14Z</time>
<desc>lat.=55.839340, lon.=26.086123, Alt.=156.295044m. Speed=0.072000m/h.</desc>
<speed>0.020000</speed>
</trkpt>
<trkpt lat="55.839340" lon="26.086123">
<ele>156.291138</ele>
<time>2010-07-17T14:11:15Z</time>
<desc>lat.=55.839340, lon.=26.086123, Alt.=156.291138m. Speed=0.036000m/h.</desc>
<speed>0.010000</speed>
</trkpt>
<trkpt lat="55.839340" lon="26.086123">
<ele>156.287231</ele>
<time>2010-07-17T14:11:16Z</time>
<desc>lat.=55.839340, lon.=26.086123, Alt.=156.287231m. Speed=0.000000m/h.</desc>
<speed>0.000000</speed>
</trkpt>
<trkpt lat="55.839340" lon="26.086123">
<ele>156.287231</ele>
<time>2010-07-17T14:11:17Z</time>
<desc>lat.=55.839340, lon.=26.086123, Alt.=156.287231m. Speed=0.036000m/h.</desc>
<speed>0.010000</speed>
</trkpt>
<trkpt lat="55.839340" lon="26.086123">
<ele>156.287231</ele>
<time>2010-07-17T14:11:18Z</time>
<desc>lat.=55.839340, lon.=26.086123, Alt.=156.287231m. Speed=0.072000m/h.</desc>
<speed>0.020000</speed>
</trkpt>
<trkpt lat="55.839340" lon="26.086123">
<ele>156.279419</ele>
<time>2010-07-17T14:11:19Z</time>
<desc>lat.=55.839340, lon.=26.086123, Alt.=156.279419m. Speed=0.000000m/h.</desc>
<speed>0.000000</speed>
</trkpt>
<trkpt lat="55.839340" lon="26.086123">
<ele>156.279419</ele>
<time>2010-07-17T14:11:20Z</time>
<desc>lat.=55.839340, lon.=26.086123, Alt.=156.279419m. Speed=0.000000m/h.</desc>
<speed>0.000000</speed>
</trkpt>
<trkpt lat="55.839340" lon="26.086123">
<ele>156.263794</ele>
<time>2010-07-17T14:11:21Z</time>
<desc>lat.=55.839340, lon.=26.086123, Alt.=156.263794m. Speed=0.000000m/h.</desc>
<speed>0.000000</speed>
</trkpt>
<trkpt lat="55.839340" lon="26.086123">
<ele>156.259888</ele>
<time>2010-07-17T14:11:22Z</time>
<desc>lat.=55.839340, lon.=26.086123, Alt.=156.259888m. Speed=0.000000m/h.</desc>
<speed>0.000000</speed>
</trkpt>
<trkpt lat="55.839340" lon="26.086123">
<ele>156.259888</ele>
<time>2010-07-17T14:11:23Z</time>
<desc>lat.=55.839340, lon.=26.086123, Alt.=156.259888m. Speed=0.000000m/h.</desc>
<speed>0.000000</speed>
</trkpt>
<trkpt lat="55.839340" lon="26.086123">
<ele>156.255981</ele>
<time>2010-07-17T14:11:24Z</time>
<desc>lat.=55.839340, lon.=26.086123, Alt.=156.255981m. Speed=0.000000m/h.</desc>
<speed>0.000000</speed>
</trkpt>
<trkpt lat="55.839340" lon="26.086123">
<ele>156.252075</ele>
<time>2010-07-17T14:11:25Z</time>
<desc>lat.=55.839340, lon.=26.086123, Alt.=156.252075m. Speed=0.000000m/h.</desc>
<speed>0.000000</speed>
</trkpt>
<trkpt lat="55.839340" lon="26.086123">
<ele>156.248169</ele>
<time>2010-07-17T14:11:26Z</time>
<desc>lat.=55.839340, lon.=26.086123, Alt.=156.248169m. Speed=0.000000m/h.</desc>
<speed>0.000000</speed>
</trkpt>
<trkpt lat="55.839340" lon="26.086123">
<ele>156.240356</ele>
<time>2010-07-17T14:11:27Z</time>
<desc>lat.=55.839340, lon.=26.086123, Alt.=156.240356m. Speed=0.000000m/h.</desc>
<speed>0.000000</speed>
</trkpt>
<trkpt lat="55.839340" lon="26.086123">
<ele>156.240356</ele>
<time>2010-07-17T14:11:28Z</time>
<desc>lat.=55.839340, lon.=26.086123, Alt.=156.240356m. Speed=0.000000m/h.</desc>
<speed>0.000000</speed>
</trkpt>
<trkpt lat="55.839340" lon="26.086123">
<ele>156.236450</ele>
<time>2010-07-17T14:11:29Z</time>
<desc>lat.=55.839340, lon.=26.086123, Alt.=156.236450m. Speed=0.000000m/h.</desc>
<speed>0.000000</speed>
</trkpt>
<trkpt lat="55.839340" lon="26.086123">
<ele>156.236450</ele>
<time>2010-07-17T14:11:30Z</time>
<desc>lat.=55.839340, lon.=26.086123, Alt.=156.236450m. Speed=0.000000m/h.</desc>
<speed>0.000000</speed>
</trkpt>
<trkpt lat="55.839340" lon="26.086123">
<ele>156.236450</ele>
<time>2010-07-17T14:11:31Z</time>
<desc>lat.=55.839340, lon.=26.086123, Alt.=156.236450m. Speed=0.036000m/h.</desc>
<speed>0.010000</speed>
</trkpt>
<trkpt lat="55.839340" lon="26.086123">
<ele>156.220825</ele>
<time>2010-07-17T14:11:32Z</time>
<desc>lat.=55.839340, lon.=26.086123, Alt.=156.220825m. Speed=0.036000m/h.</desc>
<speed>0.010000</speed>
</trkpt>
<trkpt lat="55.839340" lon="26.086123">
<ele>156.216919</ele>
<time>2010-07-17T14:11:33Z</time>
<desc>lat.=55.839340, lon.=26.086123, Alt.=156.216919m. Speed=0.000000m/h.</desc>
<speed>0.000000</speed>
</trkpt>
<trkpt lat="55.839340" lon="26.086123">
<ele>156.216919</ele>
<time>2010-07-17T14:11:34Z</time>
<desc>lat.=55.839340, lon.=26.086123, Alt.=156.216919m. Speed=0.000000m/h.</desc>
<speed>0.000000</speed>
</trkpt>
<trkpt lat="55.839340" lon="26.086123">
<ele>156.216919</ele>
<time>2010-07-17T14:11:35Z</time>
<desc>lat.=55.839340, lon.=26.086123, Alt.=156.216919m. Speed=0.000000m/h.</desc>
<speed>0.000000</speed>
</trkpt>
<trkpt lat="55.839340" lon="26.086123">
<ele>156.216919</ele>
<time>2010-07-17T14:11:36Z</time>
<desc>lat.=55.839340, lon.=26.086123, Alt.=156.216919m. Speed=0.000000m/h.</desc>
<speed>0.000000</speed>
</trkpt>
<trkpt lat="55.839340" lon="26.086123">
<ele>156.220825</ele>
<time>2010-07-17T14:11:37Z</time>
<desc>lat.=55.839340, lon.=26.086123, Alt.=156.220825m. Speed=0.000000m/h.</desc>
<speed>0.000000</speed>
</trkpt>
<trkpt lat="55.839340" lon="26.086123">
<ele>156.220825</ele>
<time>2010-07-17T14:11:38Z</time>
<desc>lat.=55.839340, lon.=26.086123, Alt.=156.220825m. Speed=0.036000m/h.</desc>
<speed>0.010000</speed>
</trkpt>
<trkpt lat="55.839340" lon="26.086123">
<ele>156.220825</ele>
<time>2010-07-17T14:11:39Z</time>
<desc>lat.=55.839340, lon.=26.086123, Alt.=156.220825m. Speed=0.000000m/h.</desc>
<speed>0.000000</speed>
</trkpt>
<trkpt lat="55.839340" lon="26.086123">
<ele>156.224731</ele>
<time>2010-07-17T14:11:40Z</time>
<desc>lat.=55.839340, lon.=26.086123, Alt.=156.224731m. Speed=0.000000m/h.</desc>
<speed>0.000000</speed>
</trkpt>
<trkpt lat="55.839340" lon="26.086123">
<ele>156.220825</ele>
<time>2010-07-17T14:11:41Z</time>
<desc>lat.=55.839340, lon.=26.086123, Alt.=156.220825m. Speed=0.000000m/h.</desc>
<speed>0.000000</speed>
</trkpt>
<trkpt lat="55.839340" lon="26.086123">
<ele>156.220825</ele>
<time>2010-07-17T14:11:42Z</time>
<desc>lat.=55.839340, lon.=26.086123, Alt.=156.220825m. Speed=0.000000m/h.</desc>
<speed>0.000000</speed>
</trkpt>
<trkpt lat="55.839340" lon="26.086123">
<ele>156.220825</ele>
<time>2010-07-17T14:11:43Z</time>
<desc>lat.=55.839340, lon.=26.086123, Alt.=156.220825m. Speed=0.000000m/h.</desc>
<speed>0.000000</speed>
</trkpt>
<trkpt lat="55.839340" lon="26.086123">
<ele>156.220825</ele>
<time>2010-07-17T14:11:44Z</time>
<desc>lat.=55.839340, lon.=26.086123, Alt.=156.220825m. Speed=0.000000m/h.</desc>
<speed>0.000000</speed>
</trkpt>
<trkpt lat="55.839340" lon="26.086123">
<ele>156.220825</ele>
<time>2010-07-17T14:11:45Z</time>
<desc>lat.=55.839340, lon.=26.086123, Alt.=156.220825m. Speed=0.072000m/h.</desc>
<speed>0.020000</speed>
</trkpt>
<trkpt lat="55.839340" lon="26.086123">
<ele>156.228638</ele>
<time>2010-07-17T14:11:46Z</time>
<desc>lat.=55.839340, lon.=26.086123, Alt.=156.228638m. Speed=0.072000m/h.</desc>
<speed>0.020000</speed>
</trkpt>
<trkpt lat="55.839340" lon="26.086123">
<ele>156.228638</ele>
<time>2010-07-17T14:11:47Z</time>
<desc>lat.=55.839340, lon.=26.086123, Alt.=156.228638m. Speed=0.036000m/h.</desc>
<speed>0.010000</speed>
</trkpt>
<trkpt lat="55.839340" lon="26.086123">
<ele>156.228638</ele>
<time>2010-07-17T14:11:48Z</time>
<desc>lat.=55.839340, lon.=26.086123, Alt.=156.228638m. Speed=0.252000m/h.</desc>
<speed>0.070000</speed>
</trkpt>
<trkpt lat="55.839340" lon="26.086123">
<ele>156.228638</ele>
<time>2010-07-17T14:11:49Z</time>
<desc>lat.=55.839340, lon.=26.086123, Alt.=156.228638m. Speed=0.324000m/h.</desc>
<speed>0.090000</speed>
</trkpt>
<trkpt lat="55.839340" lon="26.086121">
<ele>156.228638</ele>
<time>2010-07-17T14:11:50Z</time>
<desc>lat.=55.839340, lon.=26.086121, Alt.=156.228638m. Speed=0.288000m/h.</desc>
<speed>0.080000</speed>
</trkpt>
<trkpt lat="55.839340" lon="26.086119">
<ele>156.232544</ele>
<time>2010-07-17T14:11:51Z</time>
<desc>lat.=55.839340, lon.=26.086119, Alt.=156.232544m. Speed=0.180000m/h.</desc>
<speed>0.050000</speed>
</trkpt>
<trkpt lat="55.839340" lon="26.086119">
<ele>156.236450</ele>
<time>2010-07-17T14:11:52Z</time>
<desc>lat.=55.839340, lon.=26.086119, Alt.=156.236450m. Speed=0.324000m/h.</desc>
<speed>0.090000</speed>
</trkpt>
<trkpt lat="55.839340" lon="26.086121">
<ele>156.224731</ele>
<time>2010-07-17T14:11:53Z</time>
<desc>lat.=55.839340, lon.=26.086121, Alt.=156.224731m. Speed=0.108000m/h.</desc>
<speed>0.030000</speed>
</trkpt>
<trkpt lat="55.839340" lon="26.086121">
<ele>156.220825</ele>
<time>2010-07-17T14:11:54Z</time>
<desc>lat.=55.839340, lon.=26.086121, Alt.=156.220825m. Speed=0.108000m/h.</desc>
<speed>0.030000</speed>
</trkpt>
<trkpt lat="55.839340" lon="26.086121">
<ele>156.224731</ele>
<time>2010-07-17T14:11:55Z</time>
<desc>lat.=55.839340, lon.=26.086121, Alt.=156.224731m. Speed=0.072000m/h.</desc>
<speed>0.020000</speed>
</trkpt>
<trkpt lat="55.839340" lon="26.086121">
<ele>156.220825</ele>
<time>2010-07-17T14:11:56Z</time>
<desc>lat.=55.839340, lon.=26.086121, Alt.=156.220825m. Speed=0.252000m/h.</desc>
<speed>0.070000</speed>
</trkpt>
<trkpt lat="55.839340" lon="26.086123">
<ele>156.220825</ele>
<time>2010-07-17T14:11:57Z</time>
<desc>lat.=55.839340, lon.=26.086123, Alt.=156.220825m. Speed=0.324000m/h.</desc>
<speed>0.090000</speed>
</trkpt>
<trkpt lat="55.839340" lon="26.086123">
<ele>156.220825</ele>
<time>2010-07-17T14:11:58Z</time>
<desc>lat.=55.839340, lon.=26.086123, Alt.=156.220825m. Speed=0.396000m/h.</desc>
<speed>0.110000</speed>
</trkpt>
<trkpt lat="55.839340" lon="26.086124">
<ele>156.220825</ele>
<time>2010-07-17T14:11:59Z</time>
<desc>lat.=55.839340, lon.=26.086124, Alt.=156.220825m. Speed=0.396000m/h.</desc>
<speed>0.110000</speed>
</trkpt>
<trkpt lat="55.839340" lon="26.086126">
<ele>156.216919</ele>
<time>2010-07-17T14:12:00Z</time>
<desc>lat.=55.839340, lon.=26.086126, Alt.=156.216919m. Speed=0.072000m/h.</desc>
<speed>0.020000</speed>
</trkpt>
<trkpt lat="55.839340" lon="26.086128">
<ele>156.216919</ele>
<time>2010-07-17T14:12:01Z</time>
<desc>lat.=55.839340, lon.=26.086128, Alt.=156.216919m. Speed=0.216000m/h.</desc>
<speed>0.060000</speed>
</trkpt>
<trkpt lat="55.839340" lon="26.086128">
<ele>156.216919</ele>
<time>2010-07-17T14:12:02Z</time>
<desc>lat.=55.839340, lon.=26.086128, Alt.=156.216919m. Speed=0.108000m/h.</desc>
<speed>0.030000</speed>
</trkpt>
<trkpt lat="55.839340" lon="26.086128">
<ele>156.220825</ele>
<time>2010-07-17T14:12:03Z</time>
<desc>lat.=55.839340, lon.=26.086128, Alt.=156.220825m. Speed=0.288000m/h.</desc>
<speed>0.080000</speed>
</trkpt>
<trkpt lat="55.839340" lon="26.086130">
<ele>156.224731</ele>
<time>2010-07-17T14:12:04Z</time>
<desc>lat.=55.839340, lon.=26.086130, Alt.=156.224731m. Speed=0.036000m/h.</desc>
<speed>0.010000</speed>
</trkpt>
<trkpt lat="55.839340" lon="26.086130">
<ele>156.224731</ele>
<time>2010-07-17T14:12:05Z</time>
<desc>lat.=55.839340, lon.=26.086130, Alt.=156.224731m. Speed=0.432000m/h.</desc>
<speed>0.120000</speed>
</trkpt>
<trkpt lat="55.839340" lon="26.086132">
<ele>156.224731</ele>
<time>2010-07-17T14:12:06Z</time>
<desc>lat.=55.839340, lon.=26.086132, Alt.=156.224731m. Speed=0.396000m/h.</desc>
<speed>0.110000</speed>
</trkpt>
<trkpt lat="55.839340" lon="26.086134">
<ele>156.224731</ele>
<time>2010-07-17T14:12:07Z</time>
<desc>lat.=55.839340, lon.=26.086134, Alt.=156.224731m. Speed=0.144000m/h.</desc>
<speed>0.040000</speed>
</trkpt>
<trkpt lat="55.839340" lon="26.086132">
<ele>156.220825</ele>
<time>2010-07-17T14:12:08Z</time>
<desc>lat.=55.839340, lon.=26.086132, Alt.=156.220825m. Speed=0.072000m/h.</desc>
<speed>0.020000</speed>
</trkpt>
<trkpt lat="55.839340" lon="26.086132">
<ele>156.224731</ele>
<time>2010-07-17T14:12:09Z</time>
<desc>lat.=55.839340, lon.=26.086132, Alt.=156.224731m. Speed=0.360000m/h.</desc>
<speed>0.100000</speed>
</trkpt>
<trkpt lat="55.839340" lon="26.086134">
<ele>156.228638</ele>
<time>2010-07-17T14:12:10Z</time>
<desc>lat.=55.839340, lon.=26.086134, Alt.=156.228638m. Speed=0.216000m/h.</desc>
<speed>0.060000</speed>
</trkpt>
<trkpt lat="55.839340" lon="26.086134">
<ele>156.232544</ele>
<time>2010-07-17T14:12:11Z</time>
<desc>lat.=55.839340, lon.=26.086134, Alt.=156.232544m. Speed=0.144000m/h.</desc>
<speed>0.040000</speed>
</trkpt>
<trkpt lat="55.839340" lon="26.086134">
<ele>156.232544</ele>
<time>2010-07-17T14:12:12Z</time>
<desc>lat.=55.839340, lon.=26.086134, Alt.=156.232544m. Speed=0.216000m/h.</desc>
<speed>0.060000</speed>
</trkpt>
<trkpt lat="55.839340" lon="26.086136">
<ele>156.232544</ele>
<time>2010-07-17T14:12:13Z</time>
<desc>lat.=55.839340, lon.=26.086136, Alt.=156.232544m. Speed=0.036000m/h.</desc>
<speed>0.010000</speed>
</trkpt>
<trkpt lat="55.839340" lon="26.086136">
<ele>156.236450</ele>
<time>2010-07-17T14:12:14Z</time>
<desc>lat.=55.839340, lon.=26.086136, Alt.=156.236450m. Speed=0.072000m/h.</desc>
<speed>0.020000</speed>
</trkpt>
<trkpt lat="55.839340" lon="26.086136">
<ele>156.236450</ele>
<time>2010-07-17T14:12:15Z</time>
<desc>lat.=55.839340, lon.=26.086136, Alt.=156.236450m. Speed=0.216000m/h.</desc>
<speed>0.060000</speed>
</trkpt>
<trkpt lat="55.839340" lon="26.086134">
<ele>156.236450</ele>
<time>2010-07-17T14:12:16Z</time>
<desc>lat.=55.839340, lon.=26.086134, Alt.=156.236450m. Speed=0.036000m/h.</desc>
<speed>0.010000</speed>
</trkpt>
<trkpt lat="55.839340" lon="26.086134">
<ele>156.236450</ele>
<time>2010-07-17T14:12:17Z</time>
<desc>lat.=55.839340, lon.=26.086134, Alt.=156.236450m. Speed=0.072000m/h.</desc>
<speed>0.020000</speed>
</trkpt>
<trkpt lat="55.839340" lon="26.086134">
<ele>156.232544</ele>
<time>2010-07-17T14:12:18Z</time>
<desc>lat.=55.839340, lon.=26.086134, Alt.=156.232544m. Speed=0.072000m/h.</desc>
<speed>0.020000</speed>
</trkpt>
<trkpt lat="55.839340" lon="26.086134">
<ele>156.236450</ele>
<time>2010-07-17T14:12:19Z</time>
<desc>lat.=55.839340, lon.=26.086134, Alt.=156.236450m. Speed=0.072000m/h.</desc>
<speed>0.020000</speed>
</trkpt>
<trkpt lat="55.839340" lon="26.086134">
<ele>156.236450</ele>
<time>2010-07-17T14:12:20Z</time>
<desc>lat.=55.839340, lon.=26.086134, Alt.=156.236450m. Speed=0.108000m/h.</desc>
<speed>0.030000</speed>
</trkpt>
<trkpt lat="55.839340" lon="26.086134">
<ele>156.236450</ele>
<time>2010-07-17T14:12:21Z</time>
<desc>lat.=55.839340, lon.=26.086134, Alt.=156.236450m. Speed=0.036000m/h.</desc>
<speed>0.010000</speed>
</trkpt>
<trkpt lat="55.839340" lon="26.086134">
<ele>156.236450</ele>
<time>2010-07-17T14:12:22Z</time>
<desc>lat.=55.839340, lon.=26.086134, Alt.=156.236450m. Speed=0.000000m/h.</desc>
<speed>0.000000</speed>
</trkpt>
<trkpt lat="55.839340" lon="26.086134">
<ele>156.232544</ele>
<time>2010-07-17T14:12:23Z</time>
<desc>lat.=55.839340, lon.=26.086134, Alt.=156.232544m. Speed=0.072000m/h.</desc>
<speed>0.020000</speed>
</trkpt>
<trkpt lat="55.839340" lon="26.086134">
<ele>156.232544</ele>
<time>2010-07-17T14:12:24Z</time>
<desc>lat.=55.839340, lon.=26.086134, Alt.=156.232544m. Speed=0.000000m/h.</desc>
<speed>0.000000</speed>
</trkpt>
<trkpt lat="55.839340" lon="26.086134">
<ele>156.232544</ele>
<time>2010-07-17T14:12:25Z</time>
<desc>lat.=55.839340, lon.=26.086134, Alt.=156.232544m. Speed=0.000000m/h.</desc>
<speed>0.000000</speed>
</trkpt>
<trkpt lat="55.839340" lon="26.086134">
<ele>156.232544</ele>
<time>2010-07-17T14:12:26Z</time>
<desc>lat.=55.839340, lon.=26.086134, Alt.=156.232544m. Speed=0.000000m/h.</desc>
<speed>0.000000</speed>
</trkpt>
<trkpt lat="55.839340" lon="26.086134">
<ele>156.236450</ele>
<time>2010-07-17T14:12:27Z</time>
<desc>lat.=55.839340, lon.=26.086134, Alt.=156.236450m. Speed=0.000000m/h.</desc>
<speed>0.000000</speed>
</trkpt>
<trkpt lat="55.839340" lon="26.086134">
<ele>156.232544</ele>
<time>2010-07-17T14:12:28Z</time>
<desc>lat.=55.839340, lon.=26.086134, Alt.=156.232544m. Speed=0.036000m/h.</desc>
<speed>0.010000</speed>
</trkpt>
<trkpt lat="55.839340" lon="26.086134">
<ele>156.232544</ele>
<time>2010-07-17T14:12:29Z</time>
<desc>lat.=55.839340, lon.=26.086134, Alt.=156.232544m. Speed=0.072000m/h.</desc>
<speed>0.020000</speed>
</trkpt>
<trkpt lat="55.839340" lon="26.086136">
<ele>156.228638</ele>
<time>2010-07-17T14:12:30Z</time>
<desc>lat.=55.839340, lon.=26.086136, Alt.=156.228638m. Speed=0.180000m/h.</desc>
<speed>0.050000</speed>
</trkpt>
<trkpt lat="55.839340" lon="26.086136">
<ele>156.228638</ele>
<time>2010-07-17T14:12:31Z</time>
<desc>lat.=55.839340, lon.=26.086136, Alt.=156.228638m. Speed=0.144000m/h.</desc>
<speed>0.040000</speed>
</trkpt>
<trkpt lat="55.839340" lon="26.086136">
<ele>156.228638</ele>
<time>2010-07-17T14:12:32Z</time>
<desc>lat.=55.839340, lon.=26.086136, Alt.=156.228638m. Speed=0.180000m/h.</desc>
<speed>0.050000</speed>
</trkpt>
<trkpt lat="55.839340" lon="26.086134">
<ele>156.228638</ele>
<time>2010-07-17T14:12:33Z</time>
<desc>lat.=55.839340, lon.=26.086134, Alt.=156.228638m. Speed=0.072000m/h.</desc>
<speed>0.020000</speed>
</trkpt>
<trkpt lat="55.839340" lon="26.086134">
<ele>156.228638</ele>
<time>2010-07-17T14:12:34Z</time>
<desc>lat.=55.839340, lon.=26.086134, Alt.=156.228638m. Speed=0.036000m/h.</desc>
<speed>0.010000</speed>
</trkpt>
<trkpt lat="55.839340" lon="26.086134">
<ele>156.220825</ele>
<time>2010-07-17T14:12:35Z</time>
<desc>lat.=55.839340, lon.=26.086134, Alt.=156.220825m. Speed=0.036000m/h.</desc>
<speed>0.010000</speed>
</trkpt>
<trkpt lat="55.839340" lon="26.086134">
<ele>156.224731</ele>
<time>2010-07-17T14:12:36Z</time>
<desc>lat.=55.839340, lon.=26.086134, Alt.=156.224731m. Speed=0.036000m/h.</desc>
<speed>0.010000</speed>
</trkpt>
<trkpt lat="55.839340" lon="26.086134">
<ele>156.220825</ele>
<time>2010-07-17T14:12:37Z</time>
<desc>lat.=55.839340, lon.=26.086134, Alt.=156.220825m. Speed=0.000000m/h.</desc>
<speed>0.000000</speed>
</trkpt>
<trkpt lat="55.839340" lon="26.086134">
<ele>156.220825</ele>
<time>2010-07-17T14:12:38Z</time>
<desc>lat.=55.839340, lon.=26.086134, Alt.=156.220825m. Speed=0.072000m/h.</desc>
<speed>0.020000</speed>
</trkpt>
<trkpt lat="55.839340" lon="26.086134">
<ele>156.228638</ele>
<time>2010-07-17T14:12:39Z</time>
<desc>lat.=55.839340, lon.=26.086134, Alt.=156.228638m. Speed=0.000000m/h.</desc>
<speed>0.000000</speed>
</trkpt>
<trkpt lat="55.839340" lon="26.086134">
<ele>156.232544</ele>
<time>2010-07-17T14:12:40Z</time>
<desc>lat.=55.839340, lon.=26.086134, Alt.=156.232544m. Speed=0.000000m/h.</desc>
<speed>0.000000</speed>
</trkpt>
<trkpt lat="55.839340" lon="26.086134">
<ele>156.232544</ele>
<time>2010-07-17T14:12:41Z</time>
<desc>lat.=55.839340, lon.=26.086134, Alt.=156.232544m. Speed=0.000000m/h.</desc>
<speed>0.000000</speed>
</trkpt>
<trkpt lat="55.839340" lon="26.086134">
<ele>156.236450</ele>
<time>2010-07-17T14:12:42Z</time>
<desc>lat.=55.839340, lon.=26.086134, Alt.=156.236450m. Speed=0.072000m/h.</desc>
<speed>0.020000</speed>
</trkpt>
<trkpt lat="55.839340" lon="26.086134">
<ele>156.236450</ele>
<time>2010-07-17T14:12:43Z</time>
<desc>lat.=55.839340, lon.=26.086134, Alt.=156.236450m. Speed=0.000000m/h.</desc>
<speed>0.000000</speed>
</trkpt>
<trkpt lat="55.839340" lon="26.086134">
<ele>156.236450</ele>
<time>2010-07-17T14:12:44Z</time>
<desc>lat.=55.839340, lon.=26.086134, Alt.=156.236450m. Speed=0.036000m/h.</desc>
<speed>0.010000</speed>
</trkpt>
<trkpt lat="55.839340" lon="26.086134">
<ele>156.240356</ele>
<time>2010-07-17T14:12:45Z</time>
<desc>lat.=55.839340, lon.=26.086134, Alt.=156.240356m. Speed=0.000000m/h.</desc>
<speed>0.000000</speed>
</trkpt>
<trkpt lat="55.839340" lon="26.086134">
<ele>156.240356</ele>
<time>2010-07-17T14:12:46Z</time>
<desc>lat.=55.839340, lon.=26.086134, Alt.=156.240356m. Speed=0.072000m/h.</desc>
<speed>0.020000</speed>
</trkpt>
<trkpt lat="55.839340" lon="26.086134">
<ele>156.240356</ele>
<time>2010-07-17T14:12:47Z</time>
<desc>lat.=55.839340, lon.=26.086134, Alt.=156.240356m. Speed=0.036000m/h.</desc>
<speed>0.010000</speed>
</trkpt>
<trkpt lat="55.839340" lon="26.086134">
<ele>156.240356</ele>
<time>2010-07-17T14:12:48Z</time>
<desc>lat.=55.839340, lon.=26.086134, Alt.=156.240356m. Speed=0.072000m/h.</desc>
<speed>0.020000</speed>
</trkpt>
<trkpt lat="55.839340" lon="26.086134">
<ele>156.240356</ele>
<time>2010-07-17T14:12:49Z</time>
<desc>lat.=55.839340, lon.=26.086134, Alt.=156.240356m. Speed=0.072000m/h.</desc>
<speed>0.020000</speed>
</trkpt>
<trkpt lat="55.839340" lon="26.086134">
<ele>156.240356</ele>
<time>2010-07-17T14:12:50Z</time>
<desc>lat.=55.839340, lon.=26.086134, Alt.=156.240356m. Speed=0.036000m/h.</desc>
<speed>0.010000</speed>
</trkpt>
<trkpt lat="55.839340" lon="26.086134">
<ele>156.244263</ele>
<time>2010-07-17T14:12:51Z</time>
<desc>lat.=55.839340, lon.=26.086134, Alt.=156.244263m. Speed=0.072000m/h.</desc>
<speed>0.020000</speed>
</trkpt>
<trkpt lat="55.839340" lon="26.086134">
<ele>156.248169</ele>
<time>2010-07-17T14:12:52Z</time>
<desc>lat.=55.839340, lon.=26.086134, Alt.=156.248169m. Speed=0.000000m/h.</desc>
<speed>0.000000</speed>
</trkpt>
<trkpt lat="55.839340" lon="26.086134">
<ele>156.252075</ele>
<time>2010-07-17T14:12:53Z</time>
<desc>lat.=55.839340, lon.=26.086134, Alt.=156.252075m. Speed=0.036000m/h.</desc>
<speed>0.010000</speed>
</trkpt>
<trkpt lat="55.839340" lon="26.086134">
<ele>156.255981</ele>
<time>2010-07-17T14:12:54Z</time>
<desc>lat.=55.839340, lon.=26.086134, Alt.=156.255981m. Speed=0.036000m/h.</desc>
<speed>0.010000</speed>
</trkpt>
<trkpt lat="55.839340" lon="26.086134">
<ele>156.259888</ele>
<time>2010-07-17T14:12:55Z</time>
<desc>lat.=55.839340, lon.=26.086134, Alt.=156.259888m. Speed=0.036000m/h.</desc>
<speed>0.010000</speed>
</trkpt>
<trkpt lat="55.839340" lon="26.086134">
<ele>156.267700</ele>
<time>2010-07-17T14:12:56Z</time>
<desc>lat.=55.839340, lon.=26.086134, Alt.=156.267700m. Speed=0.036000m/h.</desc>
<speed>0.010000</speed>
</trkpt>
<trkpt lat="55.839340" lon="26.086134">
<ele>156.271606</ele>
<time>2010-07-17T14:12:57Z</time>
<desc>lat.=55.839340, lon.=26.086134, Alt.=156.271606m. Speed=0.036000m/h.</desc>
<speed>0.010000</speed>
</trkpt>
<trkpt lat="55.839340" lon="26.086134">
<ele>156.275513</ele>
<time>2010-07-17T14:12:58Z</time>
<desc>lat.=55.839340, lon.=26.086134, Alt.=156.275513m. Speed=0.036000m/h.</desc>
<speed>0.010000</speed>
</trkpt>
<trkpt lat="55.839340" lon="26.086134">
<ele>156.275513</ele>
<time>2010-07-17T14:12:59Z</time>
<desc>lat.=55.839340, lon.=26.086134, Alt.=156.275513m. Speed=0.072000m/h.</desc>
<speed>0.020000</speed>
</trkpt>
<trkpt lat="55.839340" lon="26.086134">
<ele>156.283325</ele>
<time>2010-07-17T14:13:00Z</time>
<desc>lat.=55.839340, lon.=26.086134, Alt.=156.283325m. Speed=0.324000m/h.</desc>
<speed>0.090000</speed>
</trkpt>
<trkpt lat="55.839340" lon="26.086134">
<ele>156.298950</ele>
<time>2010-07-17T14:13:01Z</time>
<desc>lat.=55.839340, lon.=26.086134, Alt.=156.298950m. Speed=0.000000m/h.</desc>
<speed>0.000000</speed>
</trkpt>
<trkpt lat="55.839340" lon="26.086134">
<ele>156.310669</ele>
<time>2010-07-17T14:13:02Z</time>
<desc>lat.=55.839340, lon.=26.086134, Alt.=156.310669m. Speed=0.000000m/h.</desc>
<speed>0.000000</speed>
</trkpt>
<trkpt lat="55.839340" lon="26.086134">
<ele>156.322388</ele>
<time>2010-07-17T14:13:03Z</time>
<desc>lat.=55.839340, lon.=26.086134, Alt.=156.322388m. Speed=0.000000m/h.</desc>
<speed>0.000000</speed>
</trkpt>
<trkpt lat="55.839340" lon="26.086134">
<ele>156.338013</ele>
<time>2010-07-17T14:13:04Z</time>
<desc>lat.=55.839340, lon.=26.086134, Alt.=156.338013m. Speed=0.000000m/h.</desc>
<speed>0.000000</speed>
</trkpt>
<trkpt lat="55.839340" lon="26.086134">
<ele>156.345825</ele>
<time>2010-07-17T14:13:05Z</time>
<desc>lat.=55.839340, lon.=26.086134, Alt.=156.345825m. Speed=0.036000m/h.</desc>
<speed>0.010000</speed>
</trkpt>
<trkpt lat="55.839340" lon="26.086134">
<ele>156.361450</ele>
<time>2010-07-17T14:13:06Z</time>
<desc>lat.=55.839340, lon.=26.086134, Alt.=156.361450m. Speed=0.036000m/h.</desc>
<speed>0.010000</speed>
</trkpt>
<trkpt lat="55.839340" lon="26.086134">
<ele>156.380981</ele>
<time>2010-07-17T14:13:07Z</time>
<desc>lat.=55.839340, lon.=26.086134, Alt.=156.380981m. Speed=0.036000m/h.</desc>
<speed>0.010000</speed>
</trkpt>
<trkpt lat="55.839340" lon="26.086134">
<ele>156.396606</ele>
<time>2010-07-17T14:13:08Z</time>
<desc>lat.=55.839340, lon.=26.086134, Alt.=156.396606m. Speed=0.036000m/h.</desc>
<speed>0.010000</speed>
</trkpt>
<trkpt lat="55.839340" lon="26.086134">
<ele>156.404419</ele>
<time>2010-07-17T14:13:09Z</time>
<desc>lat.=55.839340, lon.=26.086134, Alt.=156.404419m. Speed=0.000000m/h.</desc>
<speed>0.000000</speed>
</trkpt>
<trkpt lat="55.839340" lon="26.086134">
<ele>156.412231</ele>
<time>2010-07-17T14:13:10Z</time>
<desc>lat.=55.839340, lon.=26.086134, Alt.=156.412231m. Speed=0.000000m/h.</desc>
<speed>0.000000</speed>
</trkpt>
<trkpt lat="55.839340" lon="26.086134">
<ele>156.420044</ele>
<time>2010-07-17T14:13:11Z</time>
<desc>lat.=55.839340, lon.=26.086134, Alt.=156.420044m. Speed=0.000000m/h.</desc>
<speed>0.000000</speed>
</trkpt>
<trkpt lat="55.839340" lon="26.086134">
<ele>156.435669</ele>
<time>2010-07-17T14:13:12Z</time>
<desc>lat.=55.839340, lon.=26.086134, Alt.=156.435669m. Speed=0.000000m/h.</desc>
<speed>0.000000</speed>
</trkpt>
<trkpt lat="55.839340" lon="26.086134">
<ele>156.443481</ele>
<time>2010-07-17T14:13:13Z</time>
<desc>lat.=55.839340, lon.=26.086134, Alt.=156.443481m. Speed=0.000000m/h.</desc>
<speed>0.000000</speed>
</trkpt>
<trkpt lat="55.839340" lon="26.086134">
<ele>156.443481</ele>
<time>2010-07-17T14:13:14Z</time>
<desc>lat.=55.839340, lon.=26.086134, Alt.=156.443481m. Speed=0.000000m/h.</desc>
<speed>0.000000</speed>
</trkpt>
<trkpt lat="55.839340" lon="26.086134">
<ele>156.447388</ele>
<time>2010-07-17T14:13:15Z</time>
<desc>lat.=55.839340, lon.=26.086134, Alt.=156.447388m. Speed=0.000000m/h.</desc>
<speed>0.000000</speed>
</trkpt>
<trkpt lat="55.839340" lon="26.086134">
<ele>156.455200</ele>
<time>2010-07-17T14:13:16Z</time>
<desc>lat.=55.839340, lon.=26.086134, Alt.=156.455200m. Speed=0.000000m/h.</desc>
<speed>0.000000</speed>
</trkpt>
<trkpt lat="55.839340" lon="26.086134">
<ele>156.459106</ele>
<time>2010-07-17T14:13:17Z</time>
<desc>lat.=55.839340, lon.=26.086134, Alt.=156.459106m. Speed=0.036000m/h.</desc>
<speed>0.010000</speed>
</trkpt>
<trkpt lat="55.839340" lon="26.086134">
<ele>156.459106</ele>
<time>2010-07-17T14:13:18Z</time>
<desc>lat.=55.839340, lon.=26.086134, Alt.=156.459106m. Speed=0.036000m/h.</desc>
<speed>0.010000</speed>
</trkpt>
<trkpt lat="55.839340" lon="26.086134">
<ele>156.463013</ele>
<time>2010-07-17T14:13:19Z</time>
<desc>lat.=55.839340, lon.=26.086134, Alt.=156.463013m. Speed=0.000000m/h.</desc>
<speed>0.000000</speed>
</trkpt>
<trkpt lat="55.839340" lon="26.086134">
<ele>156.466919</ele>
<time>2010-07-17T14:13:20Z</time>
<desc>lat.=55.839340, lon.=26.086134, Alt.=156.466919m. Speed=0.036000m/h.</desc>
<speed>0.010000</speed>
</trkpt>
<trkpt lat="55.839340" lon="26.086134">
<ele>156.463013</ele>
<time>2010-07-17T14:13:21Z</time>
<desc>lat.=55.839340, lon.=26.086134, Alt.=156.463013m. Speed=0.000000m/h.</desc>
<speed>0.000000</speed>
</trkpt>
<trkpt lat="55.839340" lon="26.086134">
<ele>156.459106</ele>
<time>2010-07-17T14:13:22Z</time>
<desc>lat.=55.839340, lon.=26.086134, Alt.=156.459106m. Speed=0.072000m/h.</desc>
<speed>0.020000</speed>
</trkpt>
<trkpt lat="55.839340" lon="26.086134">
<ele>156.455200</ele>
<time>2010-07-17T14:13:23Z</time>
<desc>lat.=55.839340, lon.=26.086134, Alt.=156.455200m. Speed=0.036000m/h.</desc>
<speed>0.010000</speed>
</trkpt>
<trkpt lat="55.839340" lon="26.086134">
<ele>156.451294</ele>
<time>2010-07-17T14:13:24Z</time>
<desc>lat.=55.839340, lon.=26.086134, Alt.=156.451294m. Speed=0.036000m/h.</desc>
<speed>0.010000</speed>
</trkpt>
<trkpt lat="55.839340" lon="26.086134">
<ele>156.455200</ele>
<time>2010-07-17T14:13:25Z</time>
<desc>lat.=55.839340, lon.=26.086134, Alt.=156.455200m. Speed=0.072000m/h.</desc>
<speed>0.020000</speed>
</trkpt>
<trkpt lat="55.839340" lon="26.086134">
<ele>156.455200</ele>
<time>2010-07-17T14:13:26Z</time>
<desc>lat.=55.839340, lon.=26.086134, Alt.=156.455200m. Speed=0.036000m/h.</desc>
<speed>0.010000</speed>
</trkpt>
<trkpt lat="55.839340" lon="26.086134">
<ele>156.455200</ele>
<time>2010-07-17T14:13:27Z</time>
<desc>lat.=55.839340, lon.=26.086134, Alt.=156.455200m. Speed=0.000000m/h.</desc>
<speed>0.000000</speed>
</trkpt>
<trkpt lat="55.839340" lon="26.086134">
<ele>156.455200</ele>
<time>2010-07-17T14:13:28Z</time>
<desc>lat.=55.839340, lon.=26.086134, Alt.=156.455200m. Speed=0.036000m/h.</desc>
<speed>0.010000</speed>
</trkpt>
<trkpt lat="55.839340" lon="26.086134">
<ele>156.466919</ele>
<time>2010-07-17T14:13:29Z</time>
<desc>lat.=55.839340, lon.=26.086134, Alt.=156.466919m. Speed=0.000000m/h.</desc>
<speed>0.000000</speed>
</trkpt>
<trkpt lat="55.839340" lon="26.086134">
<ele>156.470825</ele>
<time>2010-07-17T14:13:30Z</time>
<desc>lat.=55.839340, lon.=26.086134, Alt.=156.470825m. Speed=0.144000m/h.</desc>
<speed>0.040000</speed>
</trkpt>
<trkpt lat="55.839340" lon="26.086134">
<ele>156.474731</ele>
<time>2010-07-17T14:13:31Z</time>
<desc>lat.=55.839340, lon.=26.086134, Alt.=156.474731m. Speed=0.036000m/h.</desc>
<speed>0.010000</speed>
</trkpt>
<trkpt lat="55.839344" lon="26.086134">
<ele>156.486450</ele>
<time>2010-07-17T14:13:32Z</time>
<desc>lat.=55.839344, lon.=26.086134, Alt.=156.486450m. Speed=0.108000m/h.</desc>
<speed>0.030000</speed>
</trkpt>
<trkpt lat="55.839344" lon="26.086134">
<ele>156.494263</ele>
<time>2010-07-17T14:13:33Z</time>
<desc>lat.=55.839344, lon.=26.086134, Alt.=156.494263m. Speed=0.072000m/h.</desc>
<speed>0.020000</speed>
</trkpt>
<trkpt lat="55.839344" lon="26.086134">
<ele>156.490356</ele>
<time>2010-07-17T14:13:34Z</time>
<desc>lat.=55.839344, lon.=26.086134, Alt.=156.490356m. Speed=0.036000m/h.</desc>
<speed>0.010000</speed>
</trkpt>
<trkpt lat="55.839344" lon="26.086134">
<ele>156.482544</ele>
<time>2010-07-17T14:13:35Z</time>
<desc>lat.=55.839344, lon.=26.086134, Alt.=156.482544m. Speed=0.000000m/h.</desc>
<speed>0.000000</speed>
</trkpt>
<trkpt lat="55.839344" lon="26.086134">
<ele>156.486450</ele>
<time>2010-07-17T14:13:36Z</time>
<desc>lat.=55.839344, lon.=26.086134, Alt.=156.486450m. Speed=0.036000m/h.</desc>
<speed>0.010000</speed>
</trkpt>
<trkpt lat="55.839344" lon="26.086134">
<ele>156.470825</ele>
<time>2010-07-17T14:13:37Z</time>
<desc>lat.=55.839344, lon.=26.086134, Alt.=156.470825m. Speed=0.036000m/h.</desc>
<speed>0.010000</speed>
</trkpt>
<trkpt lat="55.839344" lon="26.086134">
<ele>156.470825</ele>
<time>2010-07-17T14:13:38Z</time>
<desc>lat.=55.839344, lon.=26.086134, Alt.=156.470825m. Speed=0.000000m/h.</desc>
<speed>0.000000</speed>
</trkpt>
<trkpt lat="55.839344" lon="26.086134">
<ele>156.478638</ele>
<time>2010-07-17T14:13:39Z</time>
<desc>lat.=55.839344, lon.=26.086134, Alt.=156.478638m. Speed=0.000000m/h.</desc>
<speed>0.000000</speed>
</trkpt>
<trkpt lat="55.839344" lon="26.086134">
<ele>156.494263</ele>
<time>2010-07-17T14:13:40Z</time>
<desc>lat.=55.839344, lon.=26.086134, Alt.=156.494263m. Speed=0.000000m/h.</desc>
<speed>0.000000</speed>
</trkpt>
<trkpt lat="55.839344" lon="26.086134">
<ele>156.513794</ele>
<time>2010-07-17T14:13:41Z</time>
<desc>lat.=55.839344, lon.=26.086134, Alt.=156.513794m. Speed=0.000000m/h.</desc>
<speed>0.000000</speed>
</trkpt>
<trkpt lat="55.839344" lon="26.086134">
<ele>156.513794</ele>
<time>2010-07-17T14:13:42Z</time>
<desc>lat.=55.839344, lon.=26.086134, Alt.=156.513794m. Speed=0.000000m/h.</desc>
<speed>0.000000</speed>
</trkpt>
<trkpt lat="55.839344" lon="26.086134">
<ele>156.517700</ele>
<time>2010-07-17T14:13:43Z</time>
<desc>lat.=55.839344, lon.=26.086134, Alt.=156.517700m. Speed=0.000000m/h.</desc>
<speed>0.000000</speed>
</trkpt>
<trkpt lat="55.839344" lon="26.086134">
<ele>156.521606</ele>
<time>2010-07-17T14:13:44Z</time>
<desc>lat.=55.839344, lon.=26.086134, Alt.=156.521606m. Speed=0.000000m/h.</desc>
<speed>0.000000</speed>
</trkpt>
<trkpt lat="55.839344" lon="26.086134">
<ele>156.521606</ele>
<time>2010-07-17T14:13:45Z</time>
<desc>lat.=55.839344, lon.=26.086134, Alt.=156.521606m. Speed=0.000000m/h.</desc>
<speed>0.000000</speed>
</trkpt>
<trkpt lat="55.839344" lon="26.086134">
<ele>156.529419</ele>
<time>2010-07-17T14:13:46Z</time>
<desc>lat.=55.839344, lon.=26.086134, Alt.=156.529419m. Speed=0.000000m/h.</desc>
<speed>0.000000</speed>
</trkpt>
<trkpt lat="55.839344" lon="26.086134">
<ele>156.533325</ele>
<time>2010-07-17T14:13:47Z</time>
<desc>lat.=55.839344, lon.=26.086134, Alt.=156.533325m. Speed=0.000000m/h.</desc>
<speed>0.000000</speed>
</trkpt>
<trkpt lat="55.839344" lon="26.086134">
<ele>156.541138</ele>
<time>2010-07-17T14:13:48Z</time>
<desc>lat.=55.839344, lon.=26.086134, Alt.=156.541138m. Speed=0.000000m/h.</desc>
<speed>0.000000</speed>
</trkpt>
<trkpt lat="55.839344" lon="26.086134">
<ele>156.545044</ele>
<time>2010-07-17T14:13:49Z</time>
<desc>lat.=55.839344, lon.=26.086134, Alt.=156.545044m. Speed=0.000000m/h.</desc>
<speed>0.000000</speed>
</trkpt>
<trkpt lat="55.839344" lon="26.086134">
<ele>156.548950</ele>
<time>2010-07-17T14:13:50Z</time>
<desc>lat.=55.839344, lon.=26.086134, Alt.=156.548950m. Speed=0.036000m/h.</desc>
<speed>0.010000</speed>
</trkpt>
<trkpt lat="55.839344" lon="26.086134">
<ele>156.548950</ele>
<time>2010-07-17T14:13:51Z</time>
<desc>lat.=55.839344, lon.=26.086134, Alt.=156.548950m. Speed=0.000000m/h.</desc>
<speed>0.000000</speed>
</trkpt>
<trkpt lat="55.839344" lon="26.086134">
<ele>156.548950</ele>
<time>2010-07-17T14:13:52Z</time>
<desc>lat.=55.839344, lon.=26.086134, Alt.=156.548950m. Speed=0.000000m/h.</desc>
<speed>0.000000</speed>
</trkpt>
<trkpt lat="55.839344" lon="26.086134">
<ele>156.545044</ele>
<time>2010-07-17T14:13:53Z</time>
<desc>lat.=55.839344, lon.=26.086134, Alt.=156.545044m. Speed=0.000000m/h.</desc>
<speed>0.000000</speed>
</trkpt>
<trkpt lat="55.839344" lon="26.086134">
<ele>156.545044</ele>
<time>2010-07-17T14:13:54Z</time>
<desc>lat.=55.839344, lon.=26.086134, Alt.=156.545044m. Speed=0.000000m/h.</desc>
<speed>0.000000</speed>
</trkpt>
<trkpt lat="55.839344" lon="26.086134">
<ele>156.545044</ele>
<time>2010-07-17T14:13:55Z</time>
<desc>lat.=55.839344, lon.=26.086134, Alt.=156.545044m. Speed=0.000000m/h.</desc>
<speed>0.000000</speed>
</trkpt>
<trkpt lat="55.839344" lon="26.086134">
<ele>156.548950</ele>
<time>2010-07-17T14:13:56Z</time>
<desc>lat.=55.839344, lon.=26.086134, Alt.=156.548950m. Speed=0.000000m/h.</desc>
<speed>0.000000</speed>
</trkpt>
<trkpt lat="55.839344" lon="26.086134">
<ele>156.548950</ele>
<time>2010-07-17T14:13:57Z</time>
<desc>lat.=55.839344, lon.=26.086134, Alt.=156.548950m. Speed=0.000000m/h.</desc>
<speed>0.000000</speed>
</trkpt>
<trkpt lat="55.839344" lon="26.086134">
<ele>156.552856</ele>
<time>2010-07-17T14:13:58Z</time>
<desc>lat.=55.839344, lon.=26.086134, Alt.=156.552856m. Speed=0.000000m/h.</desc>
<speed>0.000000</speed>
</trkpt>
<trkpt lat="55.839344" lon="26.086134">
<ele>156.560669</ele>
<time>2010-07-17T14:13:59Z</time>
<desc>lat.=55.839344, lon.=26.086134, Alt.=156.560669m. Speed=0.000000m/h.</desc>
<speed>0.000000</speed>
</trkpt>
<trkpt lat="55.839344" lon="26.086134">
<ele>156.564575</ele>
<time>2010-07-17T14:14:00Z</time>
<desc>lat.=55.839344, lon.=26.086134, Alt.=156.564575m. Speed=0.036000m/h.</desc>
<speed>0.010000</speed>
</trkpt>
<trkpt lat="55.839344" lon="26.086134">
<ele>156.568481</ele>
<time>2010-07-17T14:14:01Z</time>
<desc>lat.=55.839344, lon.=26.086134, Alt.=156.568481m. Speed=0.000000m/h.</desc>
<speed>0.000000</speed>
</trkpt>
<trkpt lat="55.839344" lon="26.086134">
<ele>156.572388</ele>
<time>2010-07-17T14:14:02Z</time>
<desc>lat.=55.839344, lon.=26.086134, Alt.=156.572388m. Speed=0.000000m/h.</desc>
<speed>0.000000</speed>
</trkpt>
<trkpt lat="55.839344" lon="26.086134">
<ele>156.576294</ele>
<time>2010-07-17T14:14:03Z</time>
<desc>lat.=55.839344, lon.=26.086134, Alt.=156.576294m. Speed=0.036000m/h.</desc>
<speed>0.010000</speed>
</trkpt>
<trkpt lat="55.839344" lon="26.086134">
<ele>156.580200</ele>
<time>2010-07-17T14:14:04Z</time>
<desc>lat.=55.839344, lon.=26.086134, Alt.=156.580200m. Speed=0.000000m/h.</desc>
<speed>0.000000</speed>
</trkpt>
<trkpt lat="55.839344" lon="26.086134">
<ele>156.584106</ele>
<time>2010-07-17T14:14:05Z</time>
<desc>lat.=55.839344, lon.=26.086134, Alt.=156.584106m. Speed=0.000000m/h.</desc>
<speed>0.000000</speed>
</trkpt>
<trkpt lat="55.839344" lon="26.086134">
<ele>156.591919</ele>
<time>2010-07-17T14:14:06Z</time>
<desc>lat.=55.839344, lon.=26.086134, Alt.=156.591919m. Speed=0.036000m/h.</desc>
<speed>0.010000</speed>
</trkpt>
<trkpt lat="55.839344" lon="26.086134">
<ele>156.599731</ele>
<time>2010-07-17T14:14:07Z</time>
<desc>lat.=55.839344, lon.=26.086134, Alt.=156.599731m. Speed=0.000000m/h.</desc>
<speed>0.000000</speed>
</trkpt>
<trkpt lat="55.839344" lon="26.086134">
<ele>156.603638</ele>
<time>2010-07-17T14:14:08Z</time>
<desc>lat.=55.839344, lon.=26.086134, Alt.=156.603638m. Speed=0.000000m/h.</desc>
<speed>0.000000</speed>
</trkpt>
<trkpt lat="55.839344" lon="26.086134">
<ele>156.607544</ele>
<time>2010-07-17T14:14:09Z</time>
<desc>lat.=55.839344, lon.=26.086134, Alt.=156.607544m. Speed=0.000000m/h.</desc>
<speed>0.000000</speed>
</trkpt>
<trkpt lat="55.839344" lon="26.086134">
<ele>156.611450</ele>
<time>2010-07-17T14:14:10Z</time>
<desc>lat.=55.839344, lon.=26.086134, Alt.=156.611450m. Speed=0.000000m/h.</desc>
<speed>0.000000</speed>
</trkpt>
<trkpt lat="55.839344" lon="26.086134">
<ele>156.615356</ele>
<time>2010-07-17T14:14:11Z</time>
<desc>lat.=55.839344, lon.=26.086134, Alt.=156.615356m. Speed=0.000000m/h.</desc>
<speed>0.000000</speed>
</trkpt>
<trkpt lat="55.839344" lon="26.086132">
<ele>156.619263</ele>
<time>2010-07-17T14:14:12Z</time>
<desc>lat.=55.839344, lon.=26.086132, Alt.=156.619263m. Speed=0.000000m/h.</desc>
<speed>0.000000</speed>
</trkpt>
<trkpt lat="55.839344" lon="26.086132">
<ele>156.623169</ele>
<time>2010-07-17T14:14:13Z</time>
<desc>lat.=55.839344, lon.=26.086132, Alt.=156.623169m. Speed=0.000000m/h.</desc>
<speed>0.000000</speed>
</trkpt>
<trkpt lat="55.839344" lon="26.086132">
<ele>156.634888</ele>
<time>2010-07-17T14:14:14Z</time>
<desc>lat.=55.839344, lon.=26.086132, Alt.=156.634888m. Speed=0.000000m/h.</desc>
<speed>0.000000</speed>
</trkpt>
<trkpt lat="55.839344" lon="26.086132">
<ele>156.638794</ele>
<time>2010-07-17T14:14:15Z</time>
<desc>lat.=55.839344, lon.=26.086132, Alt.=156.638794m. Speed=0.000000m/h.</desc>
<speed>0.000000</speed>
</trkpt>
<trkpt lat="55.839344" lon="26.086132">
<ele>156.642700</ele>
<time>2010-07-17T14:14:16Z</time>
<desc>lat.=55.839344, lon.=26.086132, Alt.=156.642700m. Speed=0.000000m/h.</desc>
<speed>0.000000</speed>
</trkpt>
<trkpt lat="55.839344" lon="26.086132">
<ele>156.654419</ele>
<time>2010-07-17T14:14:17Z</time>
<desc>lat.=55.839344, lon.=26.086132, Alt.=156.654419m. Speed=0.036000m/h.</desc>
<speed>0.010000</speed>
</trkpt>
<trkpt lat="55.839344" lon="26.086132">
<ele>156.662231</ele>
<time>2010-07-17T14:14:18Z</time>
<desc>lat.=55.839344, lon.=26.086132, Alt.=156.662231m. Speed=0.000000m/h.</desc>
<speed>0.000000</speed>
</trkpt>
<trkpt lat="55.839344" lon="26.086132">
<ele>156.666138</ele>
<time>2010-07-17T14:14:19Z</time>
<desc>lat.=55.839344, lon.=26.086132, Alt.=156.666138m. Speed=0.000000m/h.</desc>
<speed>0.000000</speed>
</trkpt>
<trkpt lat="55.839344" lon="26.086132">
<ele>156.677856</ele>
<time>2010-07-17T14:14:20Z</time>
<desc>lat.=55.839344, lon.=26.086132, Alt.=156.677856m. Speed=0.000000m/h.</desc>
<speed>0.000000</speed>
</trkpt>
<trkpt lat="55.839344" lon="26.086132">
<ele>156.681763</ele>
<time>2010-07-17T14:14:21Z</time>
<desc>lat.=55.839344, lon.=26.086132, Alt.=156.681763m. Speed=0.000000m/h.</desc>
<speed>0.000000</speed>
</trkpt>
<trkpt lat="55.839344" lon="26.086132">
<ele>156.685669</ele>
<time>2010-07-17T14:14:22Z</time>
<desc>lat.=55.839344, lon.=26.086132, Alt.=156.685669m. Speed=0.000000m/h.</desc>
<speed>0.000000</speed>
</trkpt>
<trkpt lat="55.839344" lon="26.086132">
<ele>156.693481</ele>
<time>2010-07-17T14:14:23Z</time>
<desc>lat.=55.839344, lon.=26.086132, Alt.=156.693481m. Speed=0.000000m/h.</desc>
<speed>0.000000</speed>
</trkpt>
<trkpt lat="55.839344" lon="26.086132">
<ele>156.701294</ele>
<time>2010-07-17T14:14:24Z</time>
<desc>lat.=55.839344, lon.=26.086132, Alt.=156.701294m. Speed=0.000000m/h.</desc>
<speed>0.000000</speed>
</trkpt>
<trkpt lat="55.839344" lon="26.086132">
<ele>156.705200</ele>
<time>2010-07-17T14:14:25Z</time>
<desc>lat.=55.839344, lon.=26.086132, Alt.=156.705200m. Speed=0.000000m/h.</desc>
<speed>0.000000</speed>
</trkpt>
<trkpt lat="55.839344" lon="26.086132">
<ele>156.713013</ele>
<time>2010-07-17T14:14:26Z</time>
<desc>lat.=55.839344, lon.=26.086132, Alt.=156.713013m. Speed=0.000000m/h.</desc>
<speed>0.000000</speed>
</trkpt>
<trkpt lat="55.839344" lon="26.086132">
<ele>156.720825</ele>
<time>2010-07-17T14:14:27Z</time>
<desc>lat.=55.839344, lon.=26.086132, Alt.=156.720825m. Speed=0.000000m/h.</desc>
<speed>0.000000</speed>
</trkpt>
<trkpt lat="55.839344" lon="26.086132">
<ele>156.728638</ele>
<time>2010-07-17T14:14:28Z</time>
<desc>lat.=55.839344, lon.=26.086132, Alt.=156.728638m. Speed=0.000000m/h.</desc>
<speed>0.000000</speed>
</trkpt>
<trkpt lat="55.839344" lon="26.086132">
<ele>156.732544</ele>
<time>2010-07-17T14:14:29Z</time>
<desc>lat.=55.839344, lon.=26.086132, Alt.=156.732544m. Speed=0.036000m/h.</desc>
<speed>0.010000</speed>
</trkpt>
<trkpt lat="55.839344" lon="26.086132">
<ele>156.736450</ele>
<time>2010-07-17T14:14:30Z</time>
<desc>lat.=55.839344, lon.=26.086132, Alt.=156.736450m. Speed=0.000000m/h.</desc>
<speed>0.000000</speed>
</trkpt>
<trkpt lat="55.839344" lon="26.086132">
<ele>156.740356</ele>
<time>2010-07-17T14:14:31Z</time>
<desc>lat.=55.839344, lon.=26.086132, Alt.=156.740356m. Speed=0.000000m/h.</desc>
<speed>0.000000</speed>
</trkpt>
<trkpt lat="55.839344" lon="26.086132">
<ele>156.748169</ele>
<time>2010-07-17T14:14:32Z</time>
<desc>lat.=55.839344, lon.=26.086132, Alt.=156.748169m. Speed=0.000000m/h.</desc>
<speed>0.000000</speed>
</trkpt>
<trkpt lat="55.839344" lon="26.086132">
<ele>156.748169</ele>
<time>2010-07-17T14:14:33Z</time>
<desc>lat.=55.839344, lon.=26.086132, Alt.=156.748169m. Speed=0.036000m/h.</desc>
<speed>0.010000</speed>
</trkpt>
<trkpt lat="55.839344" lon="26.086132">
<ele>156.752075</ele>
<time>2010-07-17T14:14:34Z</time>
<desc>lat.=55.839344, lon.=26.086132, Alt.=156.752075m. Speed=0.000000m/h.</desc>
<speed>0.000000</speed>
</trkpt>
<trkpt lat="55.839344" lon="26.086132">
<ele>156.752075</ele>
<time>2010-07-17T14:14:35Z</time>
<desc>lat.=55.839344, lon.=26.086132, Alt.=156.752075m. Speed=0.036000m/h.</desc>
<speed>0.010000</speed>
</trkpt>
<trkpt lat="55.839344" lon="26.086132">
<ele>156.752075</ele>
<time>2010-07-17T14:14:36Z</time>
<desc>lat.=55.839344, lon.=26.086132, Alt.=156.752075m. Speed=0.000000m/h.</desc>
<speed>0.000000</speed>
</trkpt>
<trkpt lat="55.839344" lon="26.086132">
<ele>156.755981</ele>
<time>2010-07-17T14:14:37Z</time>
<desc>lat.=55.839344, lon.=26.086132, Alt.=156.755981m. Speed=0.000000m/h.</desc>
<speed>0.000000</speed>
</trkpt>
<trkpt lat="55.839344" lon="26.086132">
<ele>156.759888</ele>
<time>2010-07-17T14:14:38Z</time>
<desc>lat.=55.839344, lon.=26.086132, Alt.=156.759888m. Speed=0.036000m/h.</desc>
<speed>0.010000</speed>
</trkpt>
<trkpt lat="55.839344" lon="26.086132">
<ele>156.755981</ele>
<time>2010-07-17T14:14:39Z</time>
<desc>lat.=55.839344, lon.=26.086132, Alt.=156.755981m. Speed=0.036000m/h.</desc>
<speed>0.010000</speed>
</trkpt>
<trkpt lat="55.839344" lon="26.086132">
<ele>156.755981</ele>
<time>2010-07-17T14:14:40Z</time>
<desc>lat.=55.839344, lon.=26.086132, Alt.=156.755981m. Speed=0.036000m/h.</desc>
<speed>0.010000</speed>
</trkpt>
<trkpt lat="55.839344" lon="26.086132">
<ele>156.755981</ele>
<time>2010-07-17T14:14:41Z</time>
<desc>lat.=55.839344, lon.=26.086132, Alt.=156.755981m. Speed=0.036000m/h.</desc>
<speed>0.010000</speed>
</trkpt>
<trkpt lat="55.839344" lon="26.086132">
<ele>156.755981</ele>
<time>2010-07-17T14:14:42Z</time>
<desc>lat.=55.839344, lon.=26.086132, Alt.=156.755981m. Speed=0.000000m/h.</desc>
<speed>0.000000</speed>
</trkpt>
<trkpt lat="55.839344" lon="26.086134">
<ele>156.759888</ele>
<time>2010-07-17T14:14:43Z</time>
<desc>lat.=55.839344, lon.=26.086134, Alt.=156.759888m. Speed=0.000000m/h.</desc>
<speed>0.000000</speed>
</trkpt>
<trkpt lat="55.839344" lon="26.086134">
<ele>156.759888</ele>
<time>2010-07-17T14:14:44Z</time>
<desc>lat.=55.839344, lon.=26.086134, Alt.=156.759888m. Speed=0.036000m/h.</desc>
<speed>0.010000</speed>
</trkpt>
<trkpt lat="55.839344" lon="26.086134">
<ele>156.759888</ele>
<time>2010-07-17T14:14:45Z</time>
<desc>lat.=55.839344, lon.=26.086134, Alt.=156.759888m. Speed=0.000000m/h.</desc>
<speed>0.000000</speed>
</trkpt>
<trkpt lat="55.839344" lon="26.086134">
<ele>156.755981</ele>
<time>2010-07-17T14:14:46Z</time>
<desc>lat.=55.839344, lon.=26.086134, Alt.=156.755981m. Speed=0.036000m/h.</desc>
<speed>0.010000</speed>
</trkpt>
<trkpt lat="55.839344" lon="26.086134">
<ele>156.759888</ele>
<time>2010-07-17T14:14:47Z</time>
<desc>lat.=55.839344, lon.=26.086134, Alt.=156.759888m. Speed=0.000000m/h.</desc>
<speed>0.000000</speed>
</trkpt>
<trkpt lat="55.839344" lon="26.086134">
<ele>156.759888</ele>
<time>2010-07-17T14:14:48Z</time>
<desc>lat.=55.839344, lon.=26.086134, Alt.=156.759888m. Speed=0.000000m/h.</desc>
<speed>0.000000</speed>
</trkpt>
<trkpt lat="55.839344" lon="26.086134">
<ele>156.759888</ele>
<time>2010-07-17T14:14:49Z</time>
<desc>lat.=55.839344, lon.=26.086134, Alt.=156.759888m. Speed=0.036000m/h.</desc>
<speed>0.010000</speed>
</trkpt>
<trkpt lat="55.839344" lon="26.086134">
<ele>156.759888</ele>
<time>2010-07-17T14:14:50Z</time>
<desc>lat.=55.839344, lon.=26.086134, Alt.=156.759888m. Speed=0.036000m/h.</desc>
<speed>0.010000</speed>
</trkpt>
<trkpt lat="55.839344" lon="26.086134">
<ele>156.755981</ele>
<time>2010-07-17T14:14:51Z</time>
<desc>lat.=55.839344, lon.=26.086134, Alt.=156.755981m. Speed=0.000000m/h.</desc>
<speed>0.000000</speed>
</trkpt>
<trkpt lat="55.839344" lon="26.086134">
<ele>156.755981</ele>
<time>2010-07-17T14:14:52Z</time>
<desc>lat.=55.839344, lon.=26.086134, Alt.=156.755981m. Speed=0.036000m/h.</desc>
<speed>0.010000</speed>
</trkpt>
<trkpt lat="55.839344" lon="26.086134">
<ele>156.755981</ele>
<time>2010-07-17T14:14:53Z</time>
<desc>lat.=55.839344, lon.=26.086134, Alt.=156.755981m. Speed=0.000000m/h.</desc>
<speed>0.000000</speed>
</trkpt>
<trkpt lat="55.839344" lon="26.086134">
<ele>156.755981</ele>
<time>2010-07-17T14:14:54Z</time>
<desc>lat.=55.839344, lon.=26.086134, Alt.=156.755981m. Speed=0.072000m/h.</desc>
<speed>0.020000</speed>
</trkpt>
<trkpt lat="55.839344" lon="26.086134">
<ele>156.755981</ele>
<time>2010-07-17T14:14:55Z</time>
<desc>lat.=55.839344, lon.=26.086134, Alt.=156.755981m. Speed=0.036000m/h.</desc>
<speed>0.010000</speed>
</trkpt>
<trkpt lat="55.839344" lon="26.086134">
<ele>156.755981</ele>
<time>2010-07-17T14:14:56Z</time>
<desc>lat.=55.839344, lon.=26.086134, Alt.=156.755981m. Speed=0.036000m/h.</desc>
<speed>0.010000</speed>
</trkpt>
<trkpt lat="55.839344" lon="26.086132">
<ele>156.755981</ele>
<time>2010-07-17T14:14:57Z</time>
<desc>lat.=55.839344, lon.=26.086132, Alt.=156.755981m. Speed=0.072000m/h.</desc>
<speed>0.020000</speed>
</trkpt>
<trkpt lat="55.839344" lon="26.086132">
<ele>156.755981</ele>
<time>2010-07-17T14:14:58Z</time>
<desc>lat.=55.839344, lon.=26.086132, Alt.=156.755981m. Speed=0.000000m/h.</desc>
<speed>0.000000</speed>
</trkpt>
<trkpt lat="55.839344" lon="26.086132">
<ele>156.752075</ele>
<time>2010-07-17T14:14:59Z</time>
<desc>lat.=55.839344, lon.=26.086132, Alt.=156.752075m. Speed=0.072000m/h.</desc>
<speed>0.020000</speed>
</trkpt>
<trkpt lat="55.839344" lon="26.086132">
<ele>156.752075</ele>
<time>2010-07-17T14:15:00Z</time>
<desc>lat.=55.839344, lon.=26.086132, Alt.=156.752075m. Speed=0.000000m/h.</desc>
<speed>0.000000</speed>
</trkpt>
<trkpt lat="55.839344" lon="26.086132">
<ele>156.748169</ele>
<time>2010-07-17T14:15:01Z</time>
<desc>lat.=55.839344, lon.=26.086132, Alt.=156.748169m. Speed=0.036000m/h.</desc>
<speed>0.010000</speed>
</trkpt>
<trkpt lat="55.839344" lon="26.086132">
<ele>156.748169</ele>
<time>2010-07-17T14:15:02Z</time>
<desc>lat.=55.839344, lon.=26.086132, Alt.=156.748169m. Speed=0.000000m/h.</desc>
<speed>0.000000</speed>
</trkpt>
<trkpt lat="55.839344" lon="26.086132">
<ele>156.748169</ele>
<time>2010-07-17T14:15:03Z</time>
<desc>lat.=55.839344, lon.=26.086132, Alt.=156.748169m. Speed=0.000000m/h.</desc>
<speed>0.000000</speed>
</trkpt>
<trkpt lat="55.839344" lon="26.086132">
<ele>156.744263</ele>
<time>2010-07-17T14:15:04Z</time>
<desc>lat.=55.839344, lon.=26.086132, Alt.=156.744263m. Speed=0.000000m/h.</desc>
<speed>0.000000</speed>
</trkpt>
<trkpt lat="55.839344" lon="26.086132">
<ele>156.744263</ele>
<time>2010-07-17T14:15:05Z</time>
<desc>lat.=55.839344, lon.=26.086132, Alt.=156.744263m. Speed=0.000000m/h.</desc>
<speed>0.000000</speed>
</trkpt>
<trkpt lat="55.839344" lon="26.086132">
<ele>156.748169</ele>
<time>2010-07-17T14:15:06Z</time>
<desc>lat.=55.839344, lon.=26.086132, Alt.=156.748169m. Speed=0.000000m/h.</desc>
<speed>0.000000</speed>
</trkpt>
<trkpt lat="55.839344" lon="26.086132">
<ele>156.744263</ele>
<time>2010-07-17T14:15:07Z</time>
<desc>lat.=55.839344, lon.=26.086132, Alt.=156.744263m. Speed=0.000000m/h.</desc>
<speed>0.000000</speed>
</trkpt>
<trkpt lat="55.839344" lon="26.086132">
<ele>156.748169</ele>
<time>2010-07-17T14:15:08Z</time>
<desc>lat.=55.839344, lon.=26.086132, Alt.=156.748169m. Speed=0.036000m/h.</desc>
<speed>0.010000</speed>
</trkpt>
<trkpt lat="55.839344" lon="26.086132">
<ele>156.748169</ele>
<time>2010-07-17T14:15:09Z</time>
<desc>lat.=55.839344, lon.=26.086132, Alt.=156.748169m. Speed=0.000000m/h.</desc>
<speed>0.000000</speed>
</trkpt>
<trkpt lat="55.839344" lon="26.086132">
<ele>156.748169</ele>
<time>2010-07-17T14:15:10Z</time>
<desc>lat.=55.839344, lon.=26.086132, Alt.=156.748169m. Speed=0.000000m/h.</desc>
<speed>0.000000</speed>
</trkpt>
<trkpt lat="55.839344" lon="26.086132">
<ele>156.748169</ele>
<time>2010-07-17T14:15:11Z</time>
<desc>lat.=55.839344, lon.=26.086132, Alt.=156.748169m. Speed=0.000000m/h.</desc>
<speed>0.000000</speed>
</trkpt>
<trkpt lat="55.839348" lon="26.086132">
<ele>156.752075</ele>
<time>2010-07-17T14:15:12Z</time>
<desc>lat.=55.839348, lon.=26.086132, Alt.=156.752075m. Speed=0.000000m/h.</desc>
<speed>0.000000</speed>
</trkpt>
<trkpt lat="55.839348" lon="26.086132">
<ele>156.755981</ele>
<time>2010-07-17T14:15:13Z</time>
<desc>lat.=55.839348, lon.=26.086132, Alt.=156.755981m. Speed=0.000000m/h.</desc>
<speed>0.000000</speed>
</trkpt>
<trkpt lat="55.839348" lon="26.086132">
<ele>156.759888</ele>
<time>2010-07-17T14:15:14Z</time>
<desc>lat.=55.839348, lon.=26.086132, Alt.=156.759888m. Speed=0.000000m/h.</desc>
<speed>0.000000</speed>
</trkpt>
<trkpt lat="55.839348" lon="26.086132">
<ele>156.759888</ele>
<time>2010-07-17T14:15:15Z</time>
<desc>lat.=55.839348, lon.=26.086132, Alt.=156.759888m. Speed=0.000000m/h.</desc>
<speed>0.000000</speed>
</trkpt>
<trkpt lat="55.839348" lon="26.086132">
<ele>156.759888</ele>
<time>2010-07-17T14:15:16Z</time>
<desc>lat.=55.839348, lon.=26.086132, Alt.=156.759888m. Speed=0.000000m/h.</desc>
<speed>0.000000</speed>
</trkpt>
<trkpt lat="55.839348" lon="26.086132">
<ele>156.759888</ele>
<time>2010-07-17T14:15:17Z</time>
<desc>lat.=55.839348, lon.=26.086132, Alt.=156.759888m. Speed=0.000000m/h.</desc>
<speed>0.000000</speed>
</trkpt>
<trkpt lat="55.839348" lon="26.086132">
<ele>156.759888</ele>
<time>2010-07-17T14:15:18Z</time>
<desc>lat.=55.839348, lon.=26.086132, Alt.=156.759888m. Speed=0.036000m/h.</desc>
<speed>0.010000</speed>
</trkpt>
<trkpt lat="55.839348" lon="26.086132">
<ele>156.755981</ele>
<time>2010-07-17T14:15:19Z</time>
<desc>lat.=55.839348, lon.=26.086132, Alt.=156.755981m. Speed=0.000000m/h.</desc>
<speed>0.000000</speed>
</trkpt>
<trkpt lat="55.839348" lon="26.086132">
<ele>156.755981</ele>
<time>2010-07-17T14:15:20Z</time>
<desc>lat.=55.839348, lon.=26.086132, Alt.=156.755981m. Speed=0.000000m/h.</desc>
<speed>0.000000</speed>
</trkpt>
<trkpt lat="55.839348" lon="26.086132">
<ele>156.752075</ele>
<time>2010-07-17T14:15:21Z</time>
<desc>lat.=55.839348, lon.=26.086132, Alt.=156.752075m. Speed=0.108000m/h.</desc>
<speed>0.030000</speed>
</trkpt>
<trkpt lat="55.839348" lon="26.086132">
<ele>156.752075</ele>
<time>2010-07-17T14:15:22Z</time>
<desc>lat.=55.839348, lon.=26.086132, Alt.=156.752075m. Speed=0.072000m/h.</desc>
<speed>0.020000</speed>
</trkpt>
<trkpt lat="55.839348" lon="26.086132">
<ele>156.755981</ele>
<time>2010-07-17T14:15:23Z</time>
<desc>lat.=55.839348, lon.=26.086132, Alt.=156.755981m. Speed=0.000000m/h.</desc>
<speed>0.000000</speed>
</trkpt>
<trkpt lat="55.839348" lon="26.086132">
<ele>156.748169</ele>
<time>2010-07-17T14:15:24Z</time>
<desc>lat.=55.839348, lon.=26.086132, Alt.=156.748169m. Speed=0.000000m/h.</desc>
<speed>0.000000</speed>
</trkpt>
<trkpt lat="55.839348" lon="26.086132">
<ele>156.752075</ele>
<time>2010-07-17T14:15:25Z</time>
<desc>lat.=55.839348, lon.=26.086132, Alt.=156.752075m. Speed=0.000000m/h.</desc>
<speed>0.000000</speed>
</trkpt>
<trkpt lat="55.839348" lon="26.086132">
<ele>156.752075</ele>
<time>2010-07-17T14:15:26Z</time>
<desc>lat.=55.839348, lon.=26.086132, Alt.=156.752075m. Speed=0.000000m/h.</desc>
<speed>0.000000</speed>
</trkpt>
<trkpt lat="55.839348" lon="26.086132">
<ele>156.752075</ele>
<time>2010-07-17T14:15:27Z</time>
<desc>lat.=55.839348, lon.=26.086132, Alt.=156.752075m. Speed=0.036000m/h.</desc>
<speed>0.010000</speed>
</trkpt>
<trkpt lat="55.839348" lon="26.086132">
<ele>156.755981</ele>
<time>2010-07-17T14:15:28Z</time>
<desc>lat.=55.839348, lon.=26.086132, Alt.=156.755981m. Speed=0.000000m/h.</desc>
<speed>0.000000</speed>
</trkpt>
<trkpt lat="55.839348" lon="26.086132">
<ele>156.755981</ele>
<time>2010-07-17T14:15:29Z</time>
<desc>lat.=55.839348, lon.=26.086132, Alt.=156.755981m. Speed=0.036000m/h.</desc>
<speed>0.010000</speed>
</trkpt>
<trkpt lat="55.839348" lon="26.086132">
<ele>156.755981</ele>
<time>2010-07-17T14:15:30Z</time>
<desc>lat.=55.839348, lon.=26.086132, Alt.=156.755981m. Speed=0.000000m/h.</desc>
<speed>0.000000</speed>
</trkpt>
<trkpt lat="55.839348" lon="26.086132">
<ele>156.759888</ele>
<time>2010-07-17T14:15:31Z</time>
<desc>lat.=55.839348, lon.=26.086132, Alt.=156.759888m. Speed=0.036000m/h.</desc>
<speed>0.010000</speed>
</trkpt>
<trkpt lat="55.839348" lon="26.086132">
<ele>156.759888</ele>
<time>2010-07-17T14:15:32Z</time>
<desc>lat.=55.839348, lon.=26.086132, Alt.=156.759888m. Speed=0.036000m/h.</desc>
<speed>0.010000</speed>
</trkpt>
<trkpt lat="55.839348" lon="26.086132">
<ele>156.759888</ele>
<time>2010-07-17T14:15:33Z</time>
<desc>lat.=55.839348, lon.=26.086132, Alt.=156.759888m. Speed=0.000000m/h.</desc>
<speed>0.000000</speed>
</trkpt>
<trkpt lat="55.839348" lon="26.086132">
<ele>156.755981</ele>
<time>2010-07-17T14:15:34Z</time>
<desc>lat.=55.839348, lon.=26.086132, Alt.=156.755981m. Speed=0.000000m/h.</desc>
<speed>0.000000</speed>
</trkpt>
<trkpt lat="55.839348" lon="26.086132">
<ele>156.759888</ele>
<time>2010-07-17T14:15:35Z</time>
<desc>lat.=55.839348, lon.=26.086132, Alt.=156.759888m. Speed=0.000000m/h.</desc>
<speed>0.000000</speed>
</trkpt>
<trkpt lat="55.839348" lon="26.086132">
<ele>156.755981</ele>
<time>2010-07-17T14:15:36Z</time>
<desc>lat.=55.839348, lon.=26.086132, Alt.=156.755981m. Speed=0.000000m/h.</desc>
<speed>0.000000</speed>
</trkpt>
<trkpt lat="55.839348" lon="26.086132">
<ele>156.755981</ele>
<time>2010-07-17T14:15:37Z</time>
<desc>lat.=55.839348, lon.=26.086132, Alt.=156.755981m. Speed=0.000000m/h.</desc>
<speed>0.000000</speed>
</trkpt>
<trkpt lat="55.839348" lon="26.086132">
<ele>156.755981</ele>
<time>2010-07-17T14:15:38Z</time>
<desc>lat.=55.839348, lon.=26.086132, Alt.=156.755981m. Speed=0.036000m/h.</desc>
<speed>0.010000</speed>
</trkpt>
<trkpt lat="55.839348" lon="26.086132">
<ele>156.755981</ele>
<time>2010-07-17T14:15:39Z</time>
<desc>lat.=55.839348, lon.=26.086132, Alt.=156.755981m. Speed=0.036000m/h.</desc>
<speed>0.010000</speed>
</trkpt>
<trkpt lat="55.839348" lon="26.086132">
<ele>156.755981</ele>
<time>2010-07-17T14:15:40Z</time>
<desc>lat.=55.839348, lon.=26.086132, Alt.=156.755981m. Speed=0.000000m/h.</desc>
<speed>0.000000</speed>
</trkpt>
<trkpt lat="55.839348" lon="26.086132">
<ele>156.755981</ele>
<time>2010-07-17T14:15:41Z</time>
<desc>lat.=55.839348, lon.=26.086132, Alt.=156.755981m. Speed=0.036000m/h.</desc>
<speed>0.010000</speed>
</trkpt>
<trkpt lat="55.839348" lon="26.086132">
<ele>156.755981</ele>
<time>2010-07-17T14:15:42Z</time>
<desc>lat.=55.839348, lon.=26.086132, Alt.=156.755981m. Speed=0.036000m/h.</desc>
<speed>0.010000</speed>
</trkpt>
<trkpt lat="55.839348" lon="26.086132">
<ele>156.759888</ele>
<time>2010-07-17T14:15:43Z</time>
<desc>lat.=55.839348, lon.=26.086132, Alt.=156.759888m. Speed=0.036000m/h.</desc>
<speed>0.010000</speed>
</trkpt>
<trkpt lat="55.839348" lon="26.086132">
<ele>156.763794</ele>
<time>2010-07-17T14:15:44Z</time>
<desc>lat.=55.839348, lon.=26.086132, Alt.=156.763794m. Speed=0.000000m/h.</desc>
<speed>0.000000</speed>
</trkpt>
<trkpt lat="55.839348" lon="26.086132">
<ele>156.767700</ele>
<time>2010-07-17T14:15:45Z</time>
<desc>lat.=55.839348, lon.=26.086132, Alt.=156.767700m. Speed=0.036000m/h.</desc>
<speed>0.010000</speed>
</trkpt>
<trkpt lat="55.839348" lon="26.086132">
<ele>156.767700</ele>
<time>2010-07-17T14:15:46Z</time>
<desc>lat.=55.839348, lon.=26.086132, Alt.=156.767700m. Speed=0.036000m/h.</desc>
<speed>0.010000</speed>
</trkpt>
<trkpt lat="55.839348" lon="26.086132">
<ele>156.767700</ele>
<time>2010-07-17T14:15:47Z</time>
<desc>lat.=55.839348, lon.=26.086132, Alt.=156.767700m. Speed=0.036000m/h.</desc>
<speed>0.010000</speed>
</trkpt>
<trkpt lat="55.839348" lon="26.086132">
<ele>156.771606</ele>
<time>2010-07-17T14:15:48Z</time>
<desc>lat.=55.839348, lon.=26.086132, Alt.=156.771606m. Speed=0.000000m/h.</desc>
<speed>0.000000</speed>
</trkpt>
<trkpt lat="55.839348" lon="26.086132">
<ele>156.771606</ele>
<time>2010-07-17T14:15:49Z</time>
<desc>lat.=55.839348, lon.=26.086132, Alt.=156.771606m. Speed=0.036000m/h.</desc>
<speed>0.010000</speed>
</trkpt>
<trkpt lat="55.839348" lon="26.086132">
<ele>156.775513</ele>
<time>2010-07-17T14:15:50Z</time>
<desc>lat.=55.839348, lon.=26.086132, Alt.=156.775513m. Speed=0.036000m/h.</desc>
<speed>0.010000</speed>
</trkpt>
<trkpt lat="55.839348" lon="26.086132">
<ele>156.779419</ele>
<time>2010-07-17T14:15:51Z</time>
<desc>lat.=55.839348, lon.=26.086132, Alt.=156.779419m. Speed=0.000000m/h.</desc>
<speed>0.000000</speed>
</trkpt>
<trkpt lat="55.839348" lon="26.086132">
<ele>156.779419</ele>
<time>2010-07-17T14:15:52Z</time>
<desc>lat.=55.839348, lon.=26.086132, Alt.=156.779419m. Speed=0.036000m/h.</desc>
<speed>0.010000</speed>
</trkpt>
<trkpt lat="55.839348" lon="26.086132">
<ele>156.783325</ele>
<time>2010-07-17T14:15:53Z</time>
<desc>lat.=55.839348, lon.=26.086132, Alt.=156.783325m. Speed=0.000000m/h.</desc>
<speed>0.000000</speed>
</trkpt>
<trkpt lat="55.839348" lon="26.086132">
<ele>156.783325</ele>
<time>2010-07-17T14:15:54Z</time>
<desc>lat.=55.839348, lon.=26.086132, Alt.=156.783325m. Speed=0.000000m/h.</desc>
<speed>0.000000</speed>
</trkpt>
<trkpt lat="55.839348" lon="26.086132">
<ele>156.783325</ele>
<time>2010-07-17T14:15:55Z</time>
<desc>lat.=55.839348, lon.=26.086132, Alt.=156.783325m. Speed=0.000000m/h.</desc>
<speed>0.000000</speed>
</trkpt>
<trkpt lat="55.839348" lon="26.086132">
<ele>156.783325</ele>
<time>2010-07-17T14:15:56Z</time>
<desc>lat.=55.839348, lon.=26.086132, Alt.=156.783325m. Speed=0.036000m/h.</desc>
<speed>0.010000</speed>
</trkpt>
<trkpt lat="55.839348" lon="26.086132">
<ele>156.779419</ele>
<time>2010-07-17T14:15:57Z</time>
<desc>lat.=55.839348, lon.=26.086132, Alt.=156.779419m. Speed=0.000000m/h.</desc>
<speed>0.000000</speed>
</trkpt>
<trkpt lat="55.839348" lon="26.086132">
<ele>156.779419</ele>
<time>2010-07-17T14:15:58Z</time>
<desc>lat.=55.839348, lon.=26.086132, Alt.=156.779419m. Speed=0.000000m/h.</desc>
<speed>0.000000</speed>
</trkpt>
<trkpt lat="55.839348" lon="26.086132">
<ele>156.779419</ele>
<time>2010-07-17T14:15:59Z</time>
<desc>lat.=55.839348, lon.=26.086132, Alt.=156.779419m. Speed=0.000000m/h.</desc>
<speed>0.000000</speed>
</trkpt>
<trkpt lat="55.839348" lon="26.086132">
<ele>156.779419</ele>
<time>2010-07-17T14:16:00Z</time>
<desc>lat.=55.839348, lon.=26.086132, Alt.=156.779419m. Speed=0.000000m/h.</desc>
<speed>0.000000</speed>
</trkpt>
<trkpt lat="55.839348" lon="26.086132">
<ele>156.779419</ele>
<time>2010-07-17T14:16:01Z</time>
<desc>lat.=55.839348, lon.=26.086132, Alt.=156.779419m. Speed=0.000000m/h.</desc>
<speed>0.000000</speed>
</trkpt>
<trkpt lat="55.839348" lon="26.086132">
<ele>156.775513</ele>
<time>2010-07-17T14:16:02Z</time>
<desc>lat.=55.839348, lon.=26.086132, Alt.=156.775513m. Speed=0.000000m/h.</desc>
<speed>0.000000</speed>
</trkpt>
<trkpt lat="55.839348" lon="26.086132">
<ele>156.771606</ele>
<time>2010-07-17T14:16:03Z</time>
<desc>lat.=55.839348, lon.=26.086132, Alt.=156.771606m. Speed=0.000000m/h.</desc>
<speed>0.000000</speed>
</trkpt>
<trkpt lat="55.839348" lon="26.086132">
<ele>156.767700</ele>
<time>2010-07-17T14:16:04Z</time>
<desc>lat.=55.839348, lon.=26.086132, Alt.=156.767700m. Speed=0.036000m/h.</desc>
<speed>0.010000</speed>
</trkpt>
<trkpt lat="55.839348" lon="26.086132">
<ele>156.767700</ele>
<time>2010-07-17T14:16:05Z</time>
<desc>lat.=55.839348, lon.=26.086132, Alt.=156.767700m. Speed=0.036000m/h.</desc>
<speed>0.010000</speed>
</trkpt>
<trkpt lat="55.839348" lon="26.086132">
<ele>156.767700</ele>
<time>2010-07-17T14:16:06Z</time>
<desc>lat.=55.839348, lon.=26.086132, Alt.=156.767700m. Speed=0.000000m/h.</desc>
<speed>0.000000</speed>
</trkpt>
<trkpt lat="55.839348" lon="26.086132">
<ele>156.763794</ele>
<time>2010-07-17T14:16:07Z</time>
<desc>lat.=55.839348, lon.=26.086132, Alt.=156.763794m. Speed=0.036000m/h.</desc>
<speed>0.010000</speed>
</trkpt>
<trkpt lat="55.839348" lon="26.086132">
<ele>156.763794</ele>
<time>2010-07-17T14:16:08Z</time>
<desc>lat.=55.839348, lon.=26.086132, Alt.=156.763794m. Speed=0.000000m/h.</desc>
<speed>0.000000</speed>
</trkpt>
<trkpt lat="55.839348" lon="26.086132">
<ele>156.763794</ele>
<time>2010-07-17T14:16:09Z</time>
<desc>lat.=55.839348, lon.=26.086132, Alt.=156.763794m. Speed=0.036000m/h.</desc>
<speed>0.010000</speed>
</trkpt>
<trkpt lat="55.839348" lon="26.086132">
<ele>156.763794</ele>
<time>2010-07-17T14:16:10Z</time>
<desc>lat.=55.839348, lon.=26.086132, Alt.=156.763794m. Speed=0.000000m/h.</desc>
<speed>0.000000</speed>
</trkpt>
<trkpt lat="55.839348" lon="26.086132">
<ele>156.763794</ele>
<time>2010-07-17T14:16:11Z</time>
<desc>lat.=55.839348, lon.=26.086132, Alt.=156.763794m. Speed=0.036000m/h.</desc>
<speed>0.010000</speed>
</trkpt>
<trkpt lat="55.839348" lon="26.086132">
<ele>156.767700</ele>
<time>2010-07-17T14:16:12Z</time>
<desc>lat.=55.839348, lon.=26.086132, Alt.=156.767700m. Speed=0.216000m/h.</desc>
<speed>0.060000</speed>
</trkpt>
<trkpt lat="55.839348" lon="26.086132">
<ele>156.771606</ele>
<time>2010-07-17T14:16:13Z</time>
<desc>lat.=55.839348, lon.=26.086132, Alt.=156.771606m. Speed=0.036000m/h.</desc>
<speed>0.010000</speed>
</trkpt>
<trkpt lat="55.839348" lon="26.086132">
<ele>156.771606</ele>
<time>2010-07-17T14:16:14Z</time>
<desc>lat.=55.839348, lon.=26.086132, Alt.=156.771606m. Speed=0.036000m/h.</desc>
<speed>0.010000</speed>
</trkpt>
<trkpt lat="55.839348" lon="26.086132">
<ele>156.771606</ele>
<time>2010-07-17T14:16:15Z</time>
<desc>lat.=55.839348, lon.=26.086132, Alt.=156.771606m. Speed=0.000000m/h.</desc>
<speed>0.000000</speed>
</trkpt>
<trkpt lat="55.839348" lon="26.086132">
<ele>156.771606</ele>
<time>2010-07-17T14:16:16Z</time>
<desc>lat.=55.839348, lon.=26.086132, Alt.=156.771606m. Speed=0.072000m/h.</desc>
<speed>0.020000</speed>
</trkpt>
<trkpt lat="55.839348" lon="26.086132">
<ele>156.771606</ele>
<time>2010-07-17T14:16:17Z</time>
<desc>lat.=55.839348, lon.=26.086132, Alt.=156.771606m. Speed=0.036000m/h.</desc>
<speed>0.010000</speed>
</trkpt>
<trkpt lat="55.839348" lon="26.086132">
<ele>156.771606</ele>
<time>2010-07-17T14:16:18Z</time>
<desc>lat.=55.839348, lon.=26.086132, Alt.=156.771606m. Speed=0.000000m/h.</desc>
<speed>0.000000</speed>
</trkpt>
<trkpt lat="55.839348" lon="26.086132">
<ele>156.771606</ele>
<time>2010-07-17T14:16:19Z</time>
<desc>lat.=55.839348, lon.=26.086132, Alt.=156.771606m. Speed=0.036000m/h.</desc>
<speed>0.010000</speed>
</trkpt>
<trkpt lat="55.839348" lon="26.086132">
<ele>156.771606</ele>
<time>2010-07-17T14:16:20Z</time>
<desc>lat.=55.839348, lon.=26.086132, Alt.=156.771606m. Speed=0.000000m/h.</desc>
<speed>0.000000</speed>
</trkpt>
<trkpt lat="55.839348" lon="26.086132">
<ele>156.771606</ele>
<time>2010-07-17T14:16:21Z</time>
<desc>lat.=55.839348, lon.=26.086132, Alt.=156.771606m. Speed=0.036000m/h.</desc>
<speed>0.010000</speed>
</trkpt>
<trkpt lat="55.839348" lon="26.086132">
<ele>156.771606</ele>
<time>2010-07-17T14:16:22Z</time>
<desc>lat.=55.839348, lon.=26.086132, Alt.=156.771606m. Speed=0.036000m/h.</desc>
<speed>0.010000</speed>
</trkpt>
<trkpt lat="55.839348" lon="26.086132">
<ele>156.771606</ele>
<time>2010-07-17T14:16:23Z</time>
<desc>lat.=55.839348, lon.=26.086132, Alt.=156.771606m. Speed=0.072000m/h.</desc>
<speed>0.020000</speed>
</trkpt>
<trkpt lat="55.839348" lon="26.086132">
<ele>156.771606</ele>
<time>2010-07-17T14:16:24Z</time>
<desc>lat.=55.839348, lon.=26.086132, Alt.=156.771606m. Speed=0.000000m/h.</desc>
<speed>0.000000</speed>
</trkpt>
<trkpt lat="55.839348" lon="26.086132">
<ele>156.771606</ele>
<time>2010-07-17T14:16:25Z</time>
<desc>lat.=55.839348, lon.=26.086132, Alt.=156.771606m. Speed=0.036000m/h.</desc>
<speed>0.010000</speed>
</trkpt>
<trkpt lat="55.839348" lon="26.086132">
<ele>156.771606</ele>
<time>2010-07-17T14:16:26Z</time>
<desc>lat.=55.839348, lon.=26.086132, Alt.=156.771606m. Speed=0.072000m/h.</desc>
<speed>0.020000</speed>
</trkpt>
<trkpt lat="55.839348" lon="26.086132">
<ele>156.771606</ele>
<time>2010-07-17T14:16:27Z</time>
<desc>lat.=55.839348, lon.=26.086132, Alt.=156.771606m. Speed=0.036000m/h.</desc>
<speed>0.010000</speed>
</trkpt>
<trkpt lat="55.839348" lon="26.086132">
<ele>156.775513</ele>
<time>2010-07-17T14:16:28Z</time>
<desc>lat.=55.839348, lon.=26.086132, Alt.=156.775513m. Speed=0.000000m/h.</desc>
<speed>0.000000</speed>
</trkpt>
<trkpt lat="55.839348" lon="26.086132">
<ele>156.775513</ele>
<time>2010-07-17T14:16:29Z</time>
<desc>lat.=55.839348, lon.=26.086132, Alt.=156.775513m. Speed=0.036000m/h.</desc>
<speed>0.010000</speed>
</trkpt>
<trkpt lat="55.839348" lon="26.086132">
<ele>156.775513</ele>
<time>2010-07-17T14:16:30Z</time>
<desc>lat.=55.839348, lon.=26.086132, Alt.=156.775513m. Speed=0.180000m/h.</desc>
<speed>0.050000</speed>
</trkpt>
<trkpt lat="55.839348" lon="26.086132">
<ele>156.775513</ele>
<time>2010-07-17T14:16:31Z</time>
<desc>lat.=55.839348, lon.=26.086132, Alt.=156.775513m. Speed=0.072000m/h.</desc>
<speed>0.020000</speed>
</trkpt>
<trkpt lat="55.839348" lon="26.086132">
<ele>156.775513</ele>
<time>2010-07-17T14:16:32Z</time>
<desc>lat.=55.839348, lon.=26.086132, Alt.=156.775513m. Speed=0.036000m/h.</desc>
<speed>0.010000</speed>
</trkpt>
<trkpt lat="55.839348" lon="26.086132">
<ele>156.775513</ele>
<time>2010-07-17T14:16:33Z</time>
<desc>lat.=55.839348, lon.=26.086132, Alt.=156.775513m. Speed=0.072000m/h.</desc>
<speed>0.020000</speed>
</trkpt>
<trkpt lat="55.839348" lon="26.086132">
<ele>156.775513</ele>
<time>2010-07-17T14:16:34Z</time>
<desc>lat.=55.839348, lon.=26.086132, Alt.=156.775513m. Speed=0.072000m/h.</desc>
<speed>0.020000</speed>
</trkpt>
<trkpt lat="55.839348" lon="26.086130">
<ele>156.775513</ele>
<time>2010-07-17T14:16:35Z</time>
<desc>lat.=55.839348, lon.=26.086130, Alt.=156.775513m. Speed=0.108000m/h.</desc>
<speed>0.030000</speed>
</trkpt>
<trkpt lat="55.839348" lon="26.086130">
<ele>156.775513</ele>
<time>2010-07-17T14:16:36Z</time>
<desc>lat.=55.839348, lon.=26.086130, Alt.=156.775513m. Speed=0.036000m/h.</desc>
<speed>0.010000</speed>
</trkpt>
<trkpt lat="55.839348" lon="26.086130">
<ele>156.775513</ele>
<time>2010-07-17T14:16:37Z</time>
<desc>lat.=55.839348, lon.=26.086130, Alt.=156.775513m. Speed=0.036000m/h.</desc>
<speed>0.010000</speed>
</trkpt>
<trkpt lat="55.839348" lon="26.086130">
<ele>156.775513</ele>
<time>2010-07-17T14:16:38Z</time>
<desc>lat.=55.839348, lon.=26.086130, Alt.=156.775513m. Speed=0.072000m/h.</desc>
<speed>0.020000</speed>
</trkpt>
<trkpt lat="55.839344" lon="26.086130">
<ele>156.779419</ele>
<time>2010-07-17T14:16:39Z</time>
<desc>lat.=55.839344, lon.=26.086130, Alt.=156.779419m. Speed=0.072000m/h.</desc>
<speed>0.020000</speed>
</trkpt>
<trkpt lat="55.839344" lon="26.086130">
<ele>156.779419</ele>
<time>2010-07-17T14:16:40Z</time>
<desc>lat.=55.839344, lon.=26.086130, Alt.=156.779419m. Speed=0.180000m/h.</desc>
<speed>0.050000</speed>
</trkpt>
<trkpt lat="55.839344" lon="26.086130">
<ele>156.779419</ele>
<time>2010-07-17T14:16:41Z</time>
<desc>lat.=55.839344, lon.=26.086130, Alt.=156.779419m. Speed=0.000000m/h.</desc>
<speed>0.000000</speed>
</trkpt>
<trkpt lat="55.839344" lon="26.086130">
<ele>156.779419</ele>
<time>2010-07-17T14:16:42Z</time>
<desc>lat.=55.839344, lon.=26.086130, Alt.=156.779419m. Speed=0.072000m/h.</desc>
<speed>0.020000</speed>
</trkpt>
<trkpt lat="55.839344" lon="26.086130">
<ele>156.779419</ele>
<time>2010-07-17T14:16:43Z</time>
<desc>lat.=55.839344, lon.=26.086130, Alt.=156.779419m. Speed=0.000000m/h.</desc>
<speed>0.000000</speed>
</trkpt>
<trkpt lat="55.839344" lon="26.086130">
<ele>156.783325</ele>
<time>2010-07-17T14:16:44Z</time>
<desc>lat.=55.839344, lon.=26.086130, Alt.=156.783325m. Speed=0.108000m/h.</desc>
<speed>0.030000</speed>
</trkpt>
<trkpt lat="55.839344" lon="26.086130">
<ele>156.787231</ele>
<time>2010-07-17T14:16:45Z</time>
<desc>lat.=55.839344, lon.=26.086130, Alt.=156.787231m. Speed=0.036000m/h.</desc>
<speed>0.010000</speed>
</trkpt>
<trkpt lat="55.839344" lon="26.086130">
<ele>156.787231</ele>
<time>2010-07-17T14:16:46Z</time>
<desc>lat.=55.839344, lon.=26.086130, Alt.=156.787231m. Speed=0.000000m/h.</desc>
<speed>0.000000</speed>
</trkpt>
<trkpt lat="55.839344" lon="26.086130">
<ele>156.787231</ele>
<time>2010-07-17T14:16:47Z</time>
<desc>lat.=55.839344, lon.=26.086130, Alt.=156.787231m. Speed=0.036000m/h.</desc>
<speed>0.010000</speed>
</trkpt>
<trkpt lat="55.839344" lon="26.086130">
<ele>156.787231</ele>
<time>2010-07-17T14:16:48Z</time>
<desc>lat.=55.839344, lon.=26.086130, Alt.=156.787231m. Speed=0.000000m/h.</desc>
<speed>0.000000</speed>
</trkpt>
<trkpt lat="55.839344" lon="26.086130">
<ele>156.791138</ele>
<time>2010-07-17T14:16:49Z</time>
<desc>lat.=55.839344, lon.=26.086130, Alt.=156.791138m. Speed=0.540000m/h.</desc>
<speed>0.150000</speed>
</trkpt>
<trkpt lat="55.839344" lon="26.086130">
<ele>156.783325</ele>
<time>2010-07-17T14:16:50Z</time>
<desc>lat.=55.839344, lon.=26.086130, Alt.=156.783325m. Speed=0.252000m/h.</desc>
<speed>0.070000</speed>
</trkpt>
<trkpt lat="55.839348" lon="26.086132">
<ele>156.783325</ele>
<time>2010-07-17T14:16:51Z</time>
<desc>lat.=55.839348, lon.=26.086132, Alt.=156.783325m. Speed=1.908000m/h.</desc>
<speed>0.530000</speed>
</trkpt>
<trkpt lat="55.839348" lon="26.086128">
<ele>156.670044</ele>
<time>2010-07-17T14:16:52Z</time>
<desc>lat.=55.839348, lon.=26.086128, Alt.=156.670044m. Speed=0.864000m/h.</desc>
<speed>0.240000</speed>
</trkpt>
<trkpt lat="55.839344" lon="26.086138">
<ele>156.627075</ele>
<time>2010-07-17T14:16:53Z</time>
<desc>lat.=55.839344, lon.=26.086138, Alt.=156.627075m. Speed=0.324000m/h.</desc>
<speed>0.090000</speed>
</trkpt>
<trkpt lat="55.839348" lon="26.086140">
<ele>156.416138</ele>
<time>2010-07-17T14:16:54Z</time>
<desc>lat.=55.839348, lon.=26.086140, Alt.=156.416138m. Speed=0.144000m/h.</desc>
<speed>0.040000</speed>
</trkpt>
<trkpt lat="55.839348" lon="26.086145">
<ele>156.439575</ele>
<time>2010-07-17T14:16:55Z</time>
<desc>lat.=55.839348, lon.=26.086145, Alt.=156.439575m. Speed=0.216000m/h.</desc>
<speed>0.060000</speed>
</trkpt>
<trkpt lat="55.839352" lon="26.086145">
<ele>156.435669</ele>
<time>2010-07-17T14:16:56Z</time>
<desc>lat.=55.839352, lon.=26.086145, Alt.=156.435669m. Speed=2.304000m/h.</desc>
<speed>0.640000</speed>
</trkpt>
<trkpt lat="55.839359" lon="26.086151">
<ele>156.115356</ele>
<time>2010-07-17T14:16:57Z</time>
<desc>lat.=55.839359, lon.=26.086151, Alt.=156.115356m. Speed=0.792000m/h.</desc>
<speed>0.220000</speed>
</trkpt>
<trkpt lat="55.839359" lon="26.086149">
<ele>155.916138</ele>
<time>2010-07-17T14:16:58Z</time>
<desc>lat.=55.839359, lon.=26.086149, Alt.=155.916138m. Speed=0.720000m/h.</desc>
<speed>0.200000</speed>
</trkpt>
<trkpt lat="55.839363" lon="26.086145">
<ele>155.720825</ele>
<time>2010-07-17T14:16:59Z</time>
<desc>lat.=55.839363, lon.=26.086145, Alt.=155.720825m. Speed=0.468000m/h.</desc>
<speed>0.130000</speed>
</trkpt>
<trkpt lat="55.839367" lon="26.086145">
<ele>155.552856</ele>
<time>2010-07-17T14:17:00Z</time>
<desc>lat.=55.839367, lon.=26.086145, Alt.=155.552856m. Speed=0.684000m/h.</desc>
<speed>0.190000</speed>
</trkpt>
<trkpt lat="55.839367" lon="26.086147">
<ele>155.525513</ele>
<time>2010-07-17T14:17:01Z</time>
<desc>lat.=55.839367, lon.=26.086147, Alt.=155.525513m. Speed=1.728000m/h.</desc>
<speed>0.480000</speed>
</trkpt>
<trkpt lat="55.839375" lon="26.086155">
<ele>155.490356</ele>
<time>2010-07-17T14:17:02Z</time>
<desc>lat.=55.839375, lon.=26.086155, Alt.=155.490356m. Speed=2.376000m/h.</desc>
<speed>0.660000</speed>
</trkpt>
<trkpt lat="55.839382" lon="26.086172">
<ele>155.463013</ele>
<time>2010-07-17T14:17:03Z</time>
<desc>lat.=55.839382, lon.=26.086172, Alt.=155.463013m. Speed=3.528000m/h.</desc>
<speed>0.980000</speed>
</trkpt>
<trkpt lat="55.839397" lon="26.086201">
<ele>155.505981</ele>
<time>2010-07-17T14:17:04Z</time>
<desc>lat.=55.839397, lon.=26.086201, Alt.=155.505981m. Speed=5.616000m/h.</desc>
<speed>1.560000</speed>
</trkpt>
<trkpt lat="55.839413" lon="26.086220">
<ele>155.556763</ele>
<time>2010-07-17T14:17:05Z</time>
<desc>lat.=55.839413, lon.=26.086220, Alt.=155.556763m. Speed=7.956000m/h.</desc>
<speed>2.210000</speed>
</trkpt>
<trkpt lat="55.839436" lon="26.086243">
<ele>155.607544</ele>
<time>2010-07-17T14:17:06Z</time>
<desc>lat.=55.839436, lon.=26.086243, Alt.=155.607544m. Speed=7.308000m/h.</desc>
<speed>2.030000</speed>
</trkpt>
<trkpt lat="55.839451" lon="26.086264">
<ele>155.673950</ele>
<time>2010-07-17T14:17:07Z</time>
<desc>lat.=55.839451, lon.=26.086264, Alt.=155.673950m. Speed=6.012000m/h.</desc>
<speed>1.670000</speed>
</trkpt>
<trkpt lat="55.839466" lon="26.086283">
<ele>155.713013</ele>
<time>2010-07-17T14:17:08Z</time>
<desc>lat.=55.839466, lon.=26.086283, Alt.=155.713013m. Speed=6.660000m/h.</desc>
<speed>1.850000</speed>
</trkpt>
<trkpt lat="55.839481" lon="26.086302">
<ele>156.017700</ele>
<time>2010-07-17T14:17:09Z</time>
<desc>lat.=55.839481, lon.=26.086302, Alt.=156.017700m. Speed=6.372000m/h.</desc>
<speed>1.770000</speed>
</trkpt>
<trkpt lat="55.839500" lon="26.086313">
<ele>156.154419</ele>
<time>2010-07-17T14:17:10Z</time>
<desc>lat.=55.839500, lon.=26.086313, Alt.=156.154419m. Speed=5.652000m/h.</desc>
<speed>1.570000</speed>
</trkpt>
<trkpt lat="55.839520" lon="26.086315">
<ele>156.205200</ele>
<time>2010-07-17T14:17:11Z</time>
<desc>lat.=55.839520, lon.=26.086315, Alt.=156.205200m. Speed=6.228000m/h.</desc>
<speed>1.730000</speed>
</trkpt>
<trkpt lat="55.839539" lon="26.086315">
<ele>156.103638</ele>
<time>2010-07-17T14:17:12Z</time>
<desc>lat.=55.839539, lon.=26.086315, Alt.=156.103638m. Speed=8.100000m/h.</desc>
<speed>2.250000</speed>
</trkpt>
<trkpt lat="55.839565" lon="26.086317">
<ele>155.959106</ele>
<time>2010-07-17T14:17:13Z</time>
<desc>lat.=55.839565, lon.=26.086317, Alt.=155.959106m. Speed=8.676000m/h.</desc>
<speed>2.410000</speed>
</trkpt>
<trkpt lat="55.839588" lon="26.086330">
<ele>155.775513</ele>
<time>2010-07-17T14:17:14Z</time>
<desc>lat.=55.839588, lon.=26.086330, Alt.=155.775513m. Speed=7.668000m/h.</desc>
<speed>2.130000</speed>
</trkpt>
<trkpt lat="55.839607" lon="26.086357">
<ele>155.830200</ele>
<time>2010-07-17T14:17:15Z</time>
<desc>lat.=55.839607, lon.=26.086357, Alt.=155.830200m. Speed=8.172000m/h.</desc>
<speed>2.270000</speed>
</trkpt>
<trkpt lat="55.839622" lon="26.086390">
<ele>155.775513</ele>
<time>2010-07-17T14:17:16Z</time>
<desc>lat.=55.839622, lon.=26.086390, Alt.=155.775513m. Speed=8.568000m/h.</desc>
<speed>2.380000</speed>
</trkpt>
<trkpt lat="55.839638" lon="26.086420">
<ele>155.689575</ele>
<time>2010-07-17T14:17:17Z</time>
<desc>lat.=55.839638, lon.=26.086420, Alt.=155.689575m. Speed=7.668000m/h.</desc>
<speed>2.130000</speed>
</trkpt>
<trkpt lat="55.839649" lon="26.086447">
<ele>155.759888</ele>
<time>2010-07-17T14:17:18Z</time>
<desc>lat.=55.839649, lon.=26.086447, Alt.=155.759888m. Speed=7.416000m/h.</desc>
<speed>2.060000</speed>
</trkpt>
<trkpt lat="55.839664" lon="26.086475">
<ele>155.849731</ele>
<time>2010-07-17T14:17:19Z</time>
<desc>lat.=55.839664, lon.=26.086475, Alt.=155.849731m. Speed=7.632000m/h.</desc>
<speed>2.120000</speed>
</trkpt>
<trkpt lat="55.839676" lon="26.086508">
<ele>155.763794</ele>
<time>2010-07-17T14:17:20Z</time>
<desc>lat.=55.839676, lon.=26.086508, Alt.=155.763794m. Speed=7.812000m/h.</desc>
<speed>2.170000</speed>
</trkpt>
<trkpt lat="55.839687" lon="26.086542">
<ele>155.798950</ele>
<time>2010-07-17T14:17:21Z</time>
<desc>lat.=55.839687, lon.=26.086542, Alt.=155.798950m. Speed=9.540000m/h.</desc>
<speed>2.650000</speed>
</trkpt>
<trkpt lat="55.839699" lon="26.086582">
<ele>156.048950</ele>
<time>2010-07-17T14:17:22Z</time>
<desc>lat.=55.839699, lon.=26.086582, Alt.=156.048950m. Speed=10.908000m/h.</desc>
<speed>3.030000</speed>
</trkpt>
<trkpt lat="55.839722" lon="26.086617">
<ele>155.982544</ele>
<time>2010-07-17T14:17:23Z</time>
<desc>lat.=55.839722, lon.=26.086617, Alt.=155.982544m. Speed=11.052000m/h.</desc>
<speed>3.070000</speed>
</trkpt>
<trkpt lat="55.839741" lon="26.086653">
<ele>155.994263</ele>
<time>2010-07-17T14:17:24Z</time>
<desc>lat.=55.839741, lon.=26.086653, Alt.=155.994263m. Speed=10.944000m/h.</desc>
<speed>3.040000</speed>
</trkpt>
<trkpt lat="55.839764" lon="26.086666">
<ele>155.888794</ele>
<time>2010-07-17T14:17:25Z</time>
<desc>lat.=55.839764, lon.=26.086666, Alt.=155.888794m. Speed=9.720000m/h.</desc>
<speed>2.700000</speed>
</trkpt>
<trkpt lat="55.839794" lon="26.086670">
<ele>155.869263</ele>
<time>2010-07-17T14:17:26Z</time>
<desc>lat.=55.839794, lon.=26.086670, Alt.=155.869263m. Speed=11.232000m/h.</desc>
<speed>3.120000</speed>
</trkpt>
<trkpt lat="55.839825" lon="26.086660">
<ele>155.701294</ele>
<time>2010-07-17T14:17:27Z</time>
<desc>lat.=55.839825, lon.=26.086660, Alt.=155.701294m. Speed=10.656000m/h.</desc>
<speed>2.960000</speed>
</trkpt>
<trkpt lat="55.839851" lon="26.086647">
<ele>156.295044</ele>
<time>2010-07-17T14:17:28Z</time>
<desc>lat.=55.839851, lon.=26.086647, Alt.=156.295044m. Speed=10.728000m/h.</desc>
<speed>2.980000</speed>
</trkpt>
<trkpt lat="55.839874" lon="26.086626">
<ele>156.513794</ele>
<time>2010-07-17T14:17:29Z</time>
<desc>lat.=55.839874, lon.=26.086626, Alt.=156.513794m. Speed=10.872000m/h.</desc>
<speed>3.020000</speed>
</trkpt>
<trkpt lat="55.839901" lon="26.086603">
<ele>156.564575</ele>
<time>2010-07-17T14:17:30Z</time>
<desc>lat.=55.839901, lon.=26.086603, Alt.=156.564575m. Speed=10.440000m/h.</desc>
<speed>2.900000</speed>
</trkpt>
<trkpt lat="55.839924" lon="26.086584">
<ele>156.283325</ele>
<time>2010-07-17T14:17:31Z</time>
<desc>lat.=55.839924, lon.=26.086584, Alt.=156.283325m. Speed=10.116000m/h.</desc>
<speed>2.810000</speed>
</trkpt>
<trkpt lat="55.839947" lon="26.086563">
<ele>156.306763</ele>
<time>2010-07-17T14:17:32Z</time>
<desc>lat.=55.839947, lon.=26.086563, Alt.=156.306763m. Speed=9.720000m/h.</desc>
<speed>2.700000</speed>
</trkpt>
<trkpt lat="55.839966" lon="26.086542">
<ele>156.373169</ele>
<time>2010-07-17T14:17:33Z</time>
<desc>lat.=55.839966, lon.=26.086542, Alt.=156.373169m. Speed=9.036000m/h.</desc>
<speed>2.510000</speed>
</trkpt>
<trkpt lat="55.839981" lon="26.086517">
<ele>156.275513</ele>
<time>2010-07-17T14:17:34Z</time>
<desc>lat.=55.839981, lon.=26.086517, Alt.=156.275513m. Speed=8.964000m/h.</desc>
<speed>2.490000</speed>
</trkpt>
<trkpt lat="55.840000" lon="26.086493">
<ele>156.091919</ele>
<time>2010-07-17T14:17:35Z</time>
<desc>lat.=55.840000, lon.=26.086493, Alt.=156.091919m. Speed=7.776000m/h.</desc>
<speed>2.160000</speed>
</trkpt>
<trkpt lat="55.840012" lon="26.086472">
<ele>155.931763</ele>
<time>2010-07-17T14:17:36Z</time>
<desc>lat.=55.840012, lon.=26.086472, Alt.=155.931763m. Speed=6.156000m/h.</desc>
<speed>1.710000</speed>
</trkpt>
<trkpt lat="55.840031" lon="26.086458">
<ele>156.177856</ele>
<time>2010-07-17T14:17:37Z</time>
<desc>lat.=55.840031, lon.=26.086458, Alt.=156.177856m. Speed=7.884000m/h.</desc>
<speed>2.190000</speed>
</trkpt>
<trkpt lat="55.840050" lon="26.086443">
<ele>156.404419</ele>
<time>2010-07-17T14:17:38Z</time>
<desc>lat.=55.840050, lon.=26.086443, Alt.=156.404419m. Speed=8.892000m/h.</desc>
<speed>2.470000</speed>
</trkpt>
<trkpt lat="55.840069" lon="26.086430">
<ele>156.052856</ele>
<time>2010-07-17T14:17:39Z</time>
<desc>lat.=55.840069, lon.=26.086430, Alt.=156.052856m. Speed=9.468000m/h.</desc>
<speed>2.630000</speed>
</trkpt>
<trkpt lat="55.840092" lon="26.086412">
<ele>156.072388</ele>
<time>2010-07-17T14:17:40Z</time>
<desc>lat.=55.840092, lon.=26.086412, Alt.=156.072388m. Speed=10.152000m/h.</desc>
<speed>2.820000</speed>
</trkpt>
<trkpt lat="55.840118" lon="26.086403">
<ele>156.302856</ele>
<time>2010-07-17T14:17:41Z</time>
<desc>lat.=55.840118, lon.=26.086403, Alt.=156.302856m. Speed=10.404000m/h.</desc>
<speed>2.890000</speed>
</trkpt>
<trkpt lat="55.840145" lon="26.086393">
<ele>156.423950</ele>
<time>2010-07-17T14:17:42Z</time>
<desc>lat.=55.840145, lon.=26.086393, Alt.=156.423950m. Speed=11.628000m/h.</desc>
<speed>3.230000</speed>
</trkpt>
<trkpt lat="55.840176" lon="26.086390">
<ele>156.505981</ele>
<time>2010-07-17T14:17:43Z</time>
<desc>lat.=55.840176, lon.=26.086390, Alt.=156.505981m. Speed=11.340000m/h.</desc>
<speed>3.150000</speed>
</trkpt>
<trkpt lat="55.840202" lon="26.086374">
<ele>156.521606</ele>
<time>2010-07-17T14:17:44Z</time>
<desc>lat.=55.840202, lon.=26.086374, Alt.=156.521606m. Speed=10.116000m/h.</desc>
<speed>2.810000</speed>
</trkpt>
<trkpt lat="55.840229" lon="26.086380">
<ele>156.384888</ele>
<time>2010-07-17T14:17:45Z</time>
<desc>lat.=55.840229, lon.=26.086380, Alt.=156.384888m. Speed=11.340000m/h.</desc>
<speed>3.150000</speed>
</trkpt>
<trkpt lat="55.840256" lon="26.086391">
<ele>156.416138</ele>
<time>2010-07-17T14:17:46Z</time>
<desc>lat.=55.840256, lon.=26.086391, Alt.=156.416138m. Speed=11.664000m/h.</desc>
<speed>3.240000</speed>
</trkpt>
<trkpt lat="55.840282" lon="26.086422">
<ele>156.564575</ele>
<time>2010-07-17T14:17:47Z</time>
<desc>lat.=55.840282, lon.=26.086422, Alt.=156.564575m. Speed=12.204000m/h.</desc>
<speed>3.390000</speed>
</trkpt>
<trkpt lat="55.840309" lon="26.086464">
<ele>156.670044</ele>
<time>2010-07-17T14:17:48Z</time>
<desc>lat.=55.840309, lon.=26.086464, Alt.=156.670044m. Speed=12.420000m/h.</desc>
<speed>3.450000</speed>
</trkpt>
<trkpt lat="55.840328" lon="26.086508">
<ele>156.685669</ele>
<time>2010-07-17T14:17:49Z</time>
<desc>lat.=55.840328, lon.=26.086508, Alt.=156.685669m. Speed=11.664000m/h.</desc>
<speed>3.240000</speed>
</trkpt>
<trkpt lat="55.840355" lon="26.086557">
<ele>159.236450</ele>
<time>2010-07-17T14:17:50Z</time>
<desc>lat.=55.840355, lon.=26.086557, Alt.=159.236450m. Speed=15.120000m/h.</desc>
<speed>4.200000</speed>
</trkpt>
<trkpt lat="55.840378" lon="26.086607">
<ele>159.330200</ele>
<time>2010-07-17T14:17:51Z</time>
<desc>lat.=55.840378, lon.=26.086607, Alt.=159.330200m. Speed=13.212000m/h.</desc>
<speed>3.670000</speed>
</trkpt>
<trkpt lat="55.840397" lon="26.086657">
<ele>159.052856</ele>
<time>2010-07-17T14:17:52Z</time>
<desc>lat.=55.840397, lon.=26.086657, Alt.=159.052856m. Speed=13.428000m/h.</desc>
<speed>3.730000</speed>
</trkpt>
<trkpt lat="55.840424" lon="26.086699">
<ele>159.115356</ele>
<time>2010-07-17T14:17:53Z</time>
<desc>lat.=55.840424, lon.=26.086699, Alt.=159.115356m. Speed=13.608000m/h.</desc>
<speed>3.780000</speed>
</trkpt>
<trkpt lat="55.840450" lon="26.086733">
<ele>159.548950</ele>
<time>2010-07-17T14:17:54Z</time>
<desc>lat.=55.840450, lon.=26.086733, Alt.=159.548950m. Speed=13.032000m/h.</desc>
<speed>3.620000</speed>
</trkpt>
<trkpt lat="55.840481" lon="26.086761">
<ele>159.939575</ele>
<time>2010-07-17T14:17:55Z</time>
<desc>lat.=55.840481, lon.=26.086761, Alt.=159.939575m. Speed=14.544000m/h.</desc>
<speed>4.040000</speed>
</trkpt>
<trkpt lat="55.840515" lon="26.086782">
<ele>159.951294</ele>
<time>2010-07-17T14:17:56Z</time>
<desc>lat.=55.840515, lon.=26.086782, Alt.=159.951294m. Speed=14.040000m/h.</desc>
<speed>3.900000</speed>
</trkpt>
<trkpt lat="55.840549" lon="26.086798">
<ele>159.599731</ele>
<time>2010-07-17T14:17:57Z</time>
<desc>lat.=55.840549, lon.=26.086798, Alt.=159.599731m. Speed=13.716000m/h.</desc>
<speed>3.810000</speed>
</trkpt>
<trkpt lat="55.840584" lon="26.086830">
<ele>159.650513</ele>
<time>2010-07-17T14:17:58Z</time>
<desc>lat.=55.840584, lon.=26.086830, Alt.=159.650513m. Speed=13.680000m/h.</desc>
<speed>3.800000</speed>
</trkpt>
<trkpt lat="55.840614" lon="26.086861">
<ele>159.248169</ele>
<time>2010-07-17T14:17:59Z</time>
<desc>lat.=55.840614, lon.=26.086861, Alt.=159.248169m. Speed=13.608000m/h.</desc>
<speed>3.780000</speed>
</trkpt>
<trkpt lat="55.840645" lon="26.086885">
<ele>158.822388</ele>
<time>2010-07-17T14:18:00Z</time>
<desc>lat.=55.840645, lon.=26.086885, Alt.=158.822388m. Speed=13.212000m/h.</desc>
<speed>3.670000</speed>
</trkpt>
<trkpt lat="55.840672" lon="26.086914">
<ele>158.900513</ele>
<time>2010-07-17T14:18:01Z</time>
<desc>lat.=55.840672, lon.=26.086914, Alt.=158.900513m. Speed=13.536000m/h.</desc>
<speed>3.760000</speed>
</trkpt>
<trkpt lat="55.840702" lon="26.086937">
<ele>158.775513</ele>
<time>2010-07-17T14:18:02Z</time>
<desc>lat.=55.840702, lon.=26.086937, Alt.=158.775513m. Speed=13.284000m/h.</desc>
<speed>3.690000</speed>
</trkpt>
<trkpt lat="55.840733" lon="26.086954">
<ele>158.814575</ele>
<time>2010-07-17T14:18:03Z</time>
<desc>lat.=55.840733, lon.=26.086954, Alt.=158.814575m. Speed=12.816000m/h.</desc>
<speed>3.560000</speed>
</trkpt>
<trkpt lat="55.840763" lon="26.086973">
<ele>158.677856</ele>
<time>2010-07-17T14:18:04Z</time>
<desc>lat.=55.840763, lon.=26.086973, Alt.=158.677856m. Speed=11.664000m/h.</desc>
<speed>3.240000</speed>
</trkpt>
<trkpt lat="55.840790" lon="26.086992">
<ele>158.513794</ele>
<time>2010-07-17T14:18:05Z</time>
<desc>lat.=55.840790, lon.=26.086992, Alt.=158.513794m. Speed=10.476000m/h.</desc>
<speed>2.910000</speed>
</trkpt>
<trkpt lat="55.840813" lon="26.087009">
<ele>158.033325</ele>
<time>2010-07-17T14:18:06Z</time>
<desc>lat.=55.840813, lon.=26.087009, Alt.=158.033325m. Speed=10.008000m/h.</desc>
<speed>2.780000</speed>
</trkpt>
<trkpt lat="55.840836" lon="26.087025">
<ele>157.728638</ele>
<time>2010-07-17T14:18:07Z</time>
<desc>lat.=55.840836, lon.=26.087025, Alt.=157.728638m. Speed=10.224000m/h.</desc>
<speed>2.840000</speed>
</trkpt>
<trkpt lat="55.840858" lon="26.087044">
<ele>157.244263</ele>
<time>2010-07-17T14:18:08Z</time>
<desc>lat.=55.840858, lon.=26.087044, Alt.=157.244263m. Speed=10.008000m/h.</desc>
<speed>2.780000</speed>
</trkpt>
<trkpt lat="55.840885" lon="26.087063">
<ele>156.255981</ele>
<time>2010-07-17T14:18:09Z</time>
<desc>lat.=55.840885, lon.=26.087063, Alt.=156.255981m. Speed=11.412000m/h.</desc>
<speed>3.170000</speed>
</trkpt>
<trkpt lat="55.840912" lon="26.087084">
<ele>155.904419</ele>
<time>2010-07-17T14:18:10Z</time>
<desc>lat.=55.840912, lon.=26.087084, Alt.=155.904419m. Speed=12.600000m/h.</desc>
<speed>3.500000</speed>
</trkpt>
<trkpt lat="55.840942" lon="26.087109">
<ele>155.689575</ele>
<time>2010-07-17T14:18:11Z</time>
<desc>lat.=55.840942, lon.=26.087109, Alt.=155.689575m. Speed=12.600000m/h.</desc>
<speed>3.500000</speed>
</trkpt>
<trkpt lat="55.840969" lon="26.087130">
<ele>155.666138</ele>
<time>2010-07-17T14:18:12Z</time>
<desc>lat.=55.840969, lon.=26.087130, Alt.=155.666138m. Speed=13.032000m/h.</desc>
<speed>3.620000</speed>
</trkpt>
<trkpt lat="55.841000" lon="26.087154">
<ele>155.564575</ele>
<time>2010-07-17T14:18:13Z</time>
<desc>lat.=55.841000, lon.=26.087154, Alt.=155.564575m. Speed=13.320000m/h.</desc>
<speed>3.700000</speed>
</trkpt>
<trkpt lat="55.841030" lon="26.087183">
<ele>155.267700</ele>
<time>2010-07-17T14:18:14Z</time>
<desc>lat.=55.841030, lon.=26.087183, Alt.=155.267700m. Speed=14.040000m/h.</desc>
<speed>3.900000</speed>
</trkpt>
<trkpt lat="55.841064" lon="26.087208">
<ele>154.685669</ele>
<time>2010-07-17T14:18:15Z</time>
<desc>lat.=55.841064, lon.=26.087208, Alt.=154.685669m. Speed=14.400000m/h.</desc>
<speed>4.000000</speed>
</trkpt>
<trkpt lat="55.841095" lon="26.087240">
<ele>154.498169</ele>
<time>2010-07-17T14:18:16Z</time>
<desc>lat.=55.841095, lon.=26.087240, Alt.=154.498169m. Speed=14.184000m/h.</desc>
<speed>3.940000</speed>
</trkpt>
<trkpt lat="55.841133" lon="26.087265">
<ele>153.482544</ele>
<time>2010-07-17T14:18:17Z</time>
<desc>lat.=55.841133, lon.=26.087265, Alt.=153.482544m. Speed=15.084000m/h.</desc>
<speed>4.190000</speed>
</trkpt>
<trkpt lat="55.841167" lon="26.087299">
<ele>152.841919</ele>
<time>2010-07-17T14:18:18Z</time>
<desc>lat.=55.841167, lon.=26.087299, Alt.=152.841919m. Speed=16.920000m/h.</desc>
<speed>4.700000</speed>
</trkpt>
<trkpt lat="55.841209" lon="26.087334">
<ele>152.267700</ele>
<time>2010-07-17T14:18:19Z</time>
<desc>lat.=55.841209, lon.=26.087334, Alt.=152.267700m. Speed=19.044001m/h.</desc>
<speed>5.290000</speed>
</trkpt>
<trkpt lat="55.841259" lon="26.087374">
<ele>151.595825</ele>
<time>2010-07-17T14:18:20Z</time>
<desc>lat.=55.841259, lon.=26.087374, Alt.=151.595825m. Speed=19.476000m/h.</desc>
<speed>5.410000</speed>
</trkpt>
<trkpt lat="55.841305" lon="26.087406">
<ele>150.865356</ele>
<time>2010-07-17T14:18:21Z</time>
<desc>lat.=55.841305, lon.=26.087406, Alt.=150.865356m. Speed=20.879999m/h.</desc>
<speed>5.800000</speed>
</trkpt>
<trkpt lat="55.841358" lon="26.087437">
<ele>150.033325</ele>
<time>2010-07-17T14:18:22Z</time>
<desc>lat.=55.841358, lon.=26.087437, Alt.=150.033325m. Speed=22.572001m/h.</desc>
<speed>6.270000</speed>
</trkpt>
<trkpt lat="55.841415" lon="26.087471">
<ele>149.459106</ele>
<time>2010-07-17T14:18:23Z</time>
<desc>lat.=55.841415, lon.=26.087471, Alt.=149.459106m. Speed=25.848000m/h.</desc>
<speed>7.180000</speed>
</trkpt>
<trkpt lat="55.841484" lon="26.087507">
<ele>147.767700</ele>
<time>2010-07-17T14:18:24Z</time>
<desc>lat.=55.841484, lon.=26.087507, Alt.=147.767700m. Speed=27.648001m/h.</desc>
<speed>7.680000</speed>
</trkpt>
<trkpt lat="55.841553" lon="26.087549">
<ele>146.892700</ele>
<time>2010-07-17T14:18:25Z</time>
<desc>lat.=55.841553, lon.=26.087549, Alt.=146.892700m. Speed=31.931999m/h.</desc>
<speed>8.870000</speed>
</trkpt>
<trkpt lat="55.841633" lon="26.087587">
<ele>145.666138</ele>
<time>2010-07-17T14:18:26Z</time>
<desc>lat.=55.841633, lon.=26.087587, Alt.=145.666138m. Speed=34.127998m/h.</desc>
<speed>9.480000</speed>
</trkpt>
<trkpt lat="55.841721" lon="26.087624">
<ele>144.220825</ele>
<time>2010-07-17T14:18:27Z</time>
<desc>lat.=55.841721, lon.=26.087624, Alt.=144.220825m. Speed=36.071999m/h.</desc>
<speed>10.020000</speed>
</trkpt>
<trkpt lat="55.841812" lon="26.087666">
<ele>143.138794</ele>
<time>2010-07-17T14:18:28Z</time>
<desc>lat.=55.841812, lon.=26.087666, Alt.=143.138794m. Speed=37.908001m/h.</desc>
<speed>10.530000</speed>
</trkpt>
<trkpt lat="55.841904" lon="26.087719">
<ele>142.650513</ele>
<time>2010-07-17T14:18:29Z</time>
<desc>lat.=55.841904, lon.=26.087719, Alt.=142.650513m. Speed=39.456001m/h.</desc>
<speed>10.960000</speed>
</trkpt>
<trkpt lat="55.841999" lon="26.087770">
<ele>141.306763</ele>
<time>2010-07-17T14:18:30Z</time>
<desc>lat.=55.841999, lon.=26.087770, Alt.=141.306763m. Speed=40.608002m/h.</desc>
<speed>11.280000</speed>
</trkpt>
<trkpt lat="55.842098" lon="26.087811">
<ele>140.502075</ele>
<time>2010-07-17T14:18:31Z</time>
<desc>lat.=55.842098, lon.=26.087811, Alt.=140.502075m. Speed=41.040001m/h.</desc>
<speed>11.400000</speed>
</trkpt>
<trkpt lat="55.842194" lon="26.087872">
<ele>140.423950</ele>
<time>2010-07-17T14:18:32Z</time>
<desc>lat.=55.842194, lon.=26.087872, Alt.=140.423950m. Speed=41.040001m/h.</desc>
<speed>11.400000</speed>
</trkpt>
<trkpt lat="55.842293" lon="26.087929">
<ele>139.963013</ele>
<time>2010-07-17T14:18:33Z</time>
<desc>lat.=55.842293, lon.=26.087929, Alt.=139.963013m. Speed=40.824001m/h.</desc>
<speed>11.340000</speed>
</trkpt>
<trkpt lat="55.842388" lon="26.087984">
<ele>139.521606</ele>
<time>2010-07-17T14:18:34Z</time>
<desc>lat.=55.842388, lon.=26.087984, Alt.=139.521606m. Speed=40.391998m/h.</desc>
<speed>11.220000</speed>
</trkpt>
<trkpt lat="55.842484" lon="26.088039">
<ele>139.259888</ele>
<time>2010-07-17T14:18:35Z</time>
<desc>lat.=55.842484, lon.=26.088039, Alt.=139.259888m. Speed=39.348000m/h.</desc>
<speed>10.930000</speed>
</trkpt>
<trkpt lat="55.842575" lon="26.088091">
<ele>138.990356</ele>
<time>2010-07-17T14:18:36Z</time>
<desc>lat.=55.842575, lon.=26.088091, Alt.=138.990356m. Speed=38.556000m/h.</desc>
<speed>10.710000</speed>
</trkpt>
<trkpt lat="55.842667" lon="26.088140">
<ele>138.888794</ele>
<time>2010-07-17T14:18:37Z</time>
<desc>lat.=55.842667, lon.=26.088140, Alt.=138.888794m. Speed=37.152000m/h.</desc>
<speed>10.320000</speed>
</trkpt>
<trkpt lat="55.842758" lon="26.088181">
<ele>138.658325</ele>
<time>2010-07-17T14:18:38Z</time>
<desc>lat.=55.842758, lon.=26.088181, Alt.=138.658325m. Speed=35.891998m/h.</desc>
<speed>9.970000</speed>
</trkpt>
<trkpt lat="55.842842" lon="26.088221">
<ele>139.115356</ele>
<time>2010-07-17T14:18:39Z</time>
<desc>lat.=55.842842, lon.=26.088221, Alt.=139.115356m. Speed=35.243999m/h.</desc>
<speed>9.790000</speed>
</trkpt>
<trkpt lat="55.842922" lon="26.088263">
<ele>139.357544</ele>
<time>2010-07-17T14:18:40Z</time>
<desc>lat.=55.842922, lon.=26.088263, Alt.=139.357544m. Speed=33.155998m/h.</desc>
<speed>9.210000</speed>
</trkpt>
<trkpt lat="55.842995" lon="26.088297">
<ele>140.088013</ele>
<time>2010-07-17T14:18:41Z</time>
<desc>lat.=55.842995, lon.=26.088297, Alt.=140.088013m. Speed=28.007999m/h.</desc>
<speed>7.780000</speed>
</trkpt>
<trkpt lat="55.843060" lon="26.088324">
<ele>140.533325</ele>
<time>2010-07-17T14:18:42Z</time>
<desc>lat.=55.843060, lon.=26.088324, Alt.=140.533325m. Speed=27.000000m/h.</desc>
<speed>7.500000</speed>
</trkpt>
<trkpt lat="55.843121" lon="26.088346">
<ele>141.041138</ele>
<time>2010-07-17T14:18:43Z</time>
<desc>lat.=55.843121, lon.=26.088346, Alt.=141.041138m. Speed=23.940001m/h.</desc>
<speed>6.650000</speed>
</trkpt>
<trkpt lat="55.843174" lon="26.088358">
<ele>141.619263</ele>
<time>2010-07-17T14:18:44Z</time>
<desc>lat.=55.843174, lon.=26.088358, Alt.=141.619263m. Speed=20.016001m/h.</desc>
<speed>5.560000</speed>
</trkpt>
<trkpt lat="55.843224" lon="26.088373">
<ele>142.287231</ele>
<time>2010-07-17T14:18:45Z</time>
<desc>lat.=55.843224, lon.=26.088373, Alt.=142.287231m. Speed=20.412001m/h.</desc>
<speed>5.670000</speed>
</trkpt>
<trkpt lat="55.843273" lon="26.088387">
<ele>142.685669</ele>
<time>2010-07-17T14:18:46Z</time>
<desc>lat.=55.843273, lon.=26.088387, Alt.=142.685669m. Speed=19.764000m/h.</desc>
<speed>5.490000</speed>
</trkpt>
<trkpt lat="55.843319" lon="26.088406">
<ele>143.209106</ele>
<time>2010-07-17T14:18:47Z</time>
<desc>lat.=55.843319, lon.=26.088406, Alt.=143.209106m. Speed=17.639999m/h.</desc>
<speed>4.900000</speed>
</trkpt>
<trkpt lat="55.843357" lon="26.088421">
<ele>143.666138</ele>
<time>2010-07-17T14:18:48Z</time>
<desc>lat.=55.843357, lon.=26.088421, Alt.=143.666138m. Speed=16.164000m/h.</desc>
<speed>4.490000</speed>
</trkpt>
<trkpt lat="55.843399" lon="26.088436">
<ele>143.869263</ele>
<time>2010-07-17T14:18:49Z</time>
<desc>lat.=55.843399, lon.=26.088436, Alt.=143.869263m. Speed=15.516000m/h.</desc>
<speed>4.310000</speed>
</trkpt>
<trkpt lat="55.843430" lon="26.088448">
<ele>144.197388</ele>
<time>2010-07-17T14:18:50Z</time>
<desc>lat.=55.843430, lon.=26.088448, Alt.=144.197388m. Speed=14.472000m/h.</desc>
<speed>4.020000</speed>
</trkpt>
<trkpt lat="55.843464" lon="26.088455">
<ele>144.666138</ele>
<time>2010-07-17T14:18:51Z</time>
<desc>lat.=55.843464, lon.=26.088455, Alt.=144.666138m. Speed=14.004000m/h.</desc>
<speed>3.890000</speed>
</trkpt>
<trkpt lat="55.843498" lon="26.088459">
<ele>145.060669</ele>
<time>2010-07-17T14:18:52Z</time>
<desc>lat.=55.843498, lon.=26.088459, Alt.=145.060669m. Speed=13.536000m/h.</desc>
<speed>3.760000</speed>
</trkpt>
<trkpt lat="55.843529" lon="26.088461">
<ele>145.345825</ele>
<time>2010-07-17T14:18:53Z</time>
<desc>lat.=55.843529, lon.=26.088461, Alt.=145.345825m. Speed=10.584000m/h.</desc>
<speed>2.940000</speed>
</trkpt>
<trkpt lat="55.843559" lon="26.088463">
<ele>145.740356</ele>
<time>2010-07-17T14:18:54Z</time>
<desc>lat.=55.843559, lon.=26.088463, Alt.=145.740356m. Speed=12.960000m/h.</desc>
<speed>3.600000</speed>
</trkpt>
<trkpt lat="55.843597" lon="26.088472">
<ele>145.904419</ele>
<time>2010-07-17T14:18:55Z</time>
<desc>lat.=55.843597, lon.=26.088472, Alt.=145.904419m. Speed=13.176000m/h.</desc>
<speed>3.660000</speed>
</trkpt>
<trkpt lat="55.843624" lon="26.088472">
<ele>146.634888</ele>
<time>2010-07-17T14:18:56Z</time>
<desc>lat.=55.843624, lon.=26.088472, Alt.=146.634888m. Speed=12.996000m/h.</desc>
<speed>3.610000</speed>
</trkpt>
<trkpt lat="55.843655" lon="26.088469">
<ele>147.338013</ele>
<time>2010-07-17T14:18:57Z</time>
<desc>lat.=55.843655, lon.=26.088469, Alt.=147.338013m. Speed=12.744000m/h.</desc>
<speed>3.540000</speed>
</trkpt>
<trkpt lat="55.843685" lon="26.088469">
<ele>147.607544</ele>
<time>2010-07-17T14:18:58Z</time>
<desc>lat.=55.843685, lon.=26.088469, Alt.=147.607544m. Speed=13.248000m/h.</desc>
<speed>3.680000</speed>
</trkpt>
<trkpt lat="55.843723" lon="26.088467">
<ele>147.759888</ele>
<time>2010-07-17T14:18:59Z</time>
<desc>lat.=55.843723, lon.=26.088467, Alt.=147.759888m. Speed=14.400000m/h.</desc>
<speed>4.000000</speed>
</trkpt>
<trkpt lat="55.843758" lon="26.088463">
<ele>148.013794</ele>
<time>2010-07-17T14:19:00Z</time>
<desc>lat.=55.843758, lon.=26.088463, Alt.=148.013794m. Speed=13.968000m/h.</desc>
<speed>3.880000</speed>
</trkpt>
<trkpt lat="55.843796" lon="26.088463">
<ele>149.213013</ele>
<time>2010-07-17T14:19:01Z</time>
<desc>lat.=55.843796, lon.=26.088463, Alt.=149.213013m. Speed=14.508000m/h.</desc>
<speed>4.030000</speed>
</trkpt>
<trkpt lat="55.843834" lon="26.088459">
<ele>149.806763</ele>
<time>2010-07-17T14:19:02Z</time>
<desc>lat.=55.843834, lon.=26.088459, Alt.=149.806763m. Speed=14.004000m/h.</desc>
<speed>3.890000</speed>
</trkpt>
<trkpt lat="55.843864" lon="26.088451">
<ele>149.920044</ele>
<time>2010-07-17T14:19:03Z</time>
<desc>lat.=55.843864, lon.=26.088451, Alt.=149.920044m. Speed=12.996000m/h.</desc>
<speed>3.610000</speed>
</trkpt>
<trkpt lat="55.843899" lon="26.088442">
<ele>150.048950</ele>
<time>2010-07-17T14:19:04Z</time>
<desc>lat.=55.843899, lon.=26.088442, Alt.=150.048950m. Speed=13.644000m/h.</desc>
<speed>3.790000</speed>
</trkpt>
<trkpt lat="55.843933" lon="26.088430">
<ele>150.349731</ele>
<time>2010-07-17T14:19:05Z</time>
<desc>lat.=55.843933, lon.=26.088430, Alt.=150.349731m. Speed=13.572000m/h.</desc>
<speed>3.770000</speed>
</trkpt>
<trkpt lat="55.843967" lon="26.088415">
<ele>150.283325</ele>
<time>2010-07-17T14:19:06Z</time>
<desc>lat.=55.843967, lon.=26.088415, Alt.=150.283325m. Speed=13.032000m/h.</desc>
<speed>3.620000</speed>
</trkpt>
<trkpt lat="55.844006" lon="26.088404">
<ele>150.681763</ele>
<time>2010-07-17T14:19:07Z</time>
<desc>lat.=55.844006, lon.=26.088404, Alt.=150.681763m. Speed=13.716000m/h.</desc>
<speed>3.810000</speed>
</trkpt>
<trkpt lat="55.844040" lon="26.088392">
<ele>150.630981</ele>
<time>2010-07-17T14:19:08Z</time>
<desc>lat.=55.844040, lon.=26.088392, Alt.=150.630981m. Speed=14.436000m/h.</desc>
<speed>4.010000</speed>
</trkpt>
<trkpt lat="55.844082" lon="26.088383">
<ele>150.513794</ele>
<time>2010-07-17T14:19:09Z</time>
<desc>lat.=55.844082, lon.=26.088383, Alt.=150.513794m. Speed=14.976000m/h.</desc>
<speed>4.160000</speed>
</trkpt>
<trkpt lat="55.844120" lon="26.088371">
<ele>151.080200</ele>
<time>2010-07-17T14:19:10Z</time>
<desc>lat.=55.844120, lon.=26.088371, Alt.=151.080200m. Speed=16.164000m/h.</desc>
<speed>4.490000</speed>
</trkpt>
<trkpt lat="55.844162" lon="26.088354">
<ele>151.314575</ele>
<time>2010-07-17T14:19:11Z</time>
<desc>lat.=55.844162, lon.=26.088354, Alt.=151.314575m. Speed=18.468000m/h.</desc>
<speed>5.130000</speed>
</trkpt>
<trkpt lat="55.844204" lon="26.088339">
<ele>151.443481</ele>
<time>2010-07-17T14:19:12Z</time>
<desc>lat.=55.844204, lon.=26.088339, Alt.=151.443481m. Speed=18.972000m/h.</desc>
<speed>5.270000</speed>
</trkpt>
<trkpt lat="55.844257" lon="26.088326">
<ele>151.720825</ele>
<time>2010-07-17T14:19:13Z</time>
<desc>lat.=55.844257, lon.=26.088326, Alt.=151.720825m. Speed=20.556000m/h.</desc>
<speed>5.710000</speed>
</trkpt>
<trkpt lat="55.844307" lon="26.088306">
<ele>151.974731</ele>
<time>2010-07-17T14:19:14Z</time>
<desc>lat.=55.844307, lon.=26.088306, Alt.=151.974731m. Speed=20.124001m/h.</desc>
<speed>5.590000</speed>
</trkpt>
<trkpt lat="55.844360" lon="26.088287">
<ele>151.869263</ele>
<time>2010-07-17T14:19:15Z</time>
<desc>lat.=55.844360, lon.=26.088287, Alt.=151.869263m. Speed=21.384001m/h.</desc>
<speed>5.940000</speed>
</trkpt>
<trkpt lat="55.844418" lon="26.088266">
<ele>151.505981</ele>
<time>2010-07-17T14:19:16Z</time>
<desc>lat.=55.844418, lon.=26.088266, Alt.=151.505981m. Speed=22.608000m/h.</desc>
<speed>6.280000</speed>
</trkpt>
<trkpt lat="55.844479" lon="26.088251">
<ele>151.170044</ele>
<time>2010-07-17T14:19:17Z</time>
<desc>lat.=55.844479, lon.=26.088251, Alt.=151.170044m. Speed=23.796000m/h.</desc>
<speed>6.610000</speed>
</trkpt>
<trkpt lat="55.844547" lon="26.088228">
<ele>151.986450</ele>
<time>2010-07-17T14:19:18Z</time>
<desc>lat.=55.844547, lon.=26.088228, Alt.=151.986450m. Speed=26.063999m/h.</desc>
<speed>7.240000</speed>
</trkpt>
<trkpt lat="55.844612" lon="26.088205">
<ele>151.646606</ele>
<time>2010-07-17T14:19:19Z</time>
<desc>lat.=55.844612, lon.=26.088205, Alt.=151.646606m. Speed=25.740000m/h.</desc>
<speed>7.150000</speed>
</trkpt>
<trkpt lat="55.844681" lon="26.088182">
<ele>150.916138</ele>
<time>2010-07-17T14:19:20Z</time>
<desc>lat.=55.844681, lon.=26.088182, Alt.=150.916138m. Speed=27.540001m/h.</desc>
<speed>7.650000</speed>
</trkpt>
<trkpt lat="55.844746" lon="26.088158">
<ele>150.720825</ele>
<time>2010-07-17T14:19:21Z</time>
<desc>lat.=55.844746, lon.=26.088158, Alt.=150.720825m. Speed=25.596001m/h.</desc>
<speed>7.110000</speed>
</trkpt>
<trkpt lat="55.844810" lon="26.088133">
<ele>150.580200</ele>
<time>2010-07-17T14:19:22Z</time>
<desc>lat.=55.844810, lon.=26.088133, Alt.=150.580200m. Speed=27.684000m/h.</desc>
<speed>7.690000</speed>
</trkpt>
<trkpt lat="55.844875" lon="26.088112">
<ele>150.162231</ele>
<time>2010-07-17T14:19:23Z</time>
<desc>lat.=55.844875, lon.=26.088112, Alt.=150.162231m. Speed=26.208000m/h.</desc>
<speed>7.280000</speed>
</trkpt>
<trkpt lat="55.844940" lon="26.088089">
<ele>149.892700</ele>
<time>2010-07-17T14:19:24Z</time>
<desc>lat.=55.844940, lon.=26.088089, Alt.=149.892700m. Speed=26.532000m/h.</desc>
<speed>7.370000</speed>
</trkpt>
<trkpt lat="55.845001" lon="26.088066">
<ele>149.787231</ele>
<time>2010-07-17T14:19:25Z</time>
<desc>lat.=55.845001, lon.=26.088066, Alt.=149.787231m. Speed=26.172001m/h.</desc>
<speed>7.270000</speed>
</trkpt>
<trkpt lat="55.845062" lon="26.088039">
<ele>149.490356</ele>
<time>2010-07-17T14:19:26Z</time>
<desc>lat.=55.845062, lon.=26.088039, Alt.=149.490356m. Speed=25.920000m/h.</desc>
<speed>7.200000</speed>
</trkpt>
<trkpt lat="55.845135" lon="26.088020">
<ele>150.064575</ele>
<time>2010-07-17T14:19:27Z</time>
<desc>lat.=55.845135, lon.=26.088020, Alt.=150.064575m. Speed=27.900000m/h.</desc>
<speed>7.750000</speed>
</trkpt>
<trkpt lat="55.845207" lon="26.087994">
<ele>149.873169</ele>
<time>2010-07-17T14:19:28Z</time>
<desc>lat.=55.845207, lon.=26.087994, Alt.=149.873169m. Speed=27.000000m/h.</desc>
<speed>7.500000</speed>
</trkpt>
<trkpt lat="55.845276" lon="26.087969">
<ele>149.767700</ele>
<time>2010-07-17T14:19:29Z</time>
<desc>lat.=55.845276, lon.=26.087969, Alt.=149.767700m. Speed=27.504000m/h.</desc>
<speed>7.640000</speed>
</trkpt>
<trkpt lat="55.845341" lon="26.087946">
<ele>149.615356</ele>
<time>2010-07-17T14:19:30Z</time>
<desc>lat.=55.845341, lon.=26.087946, Alt.=149.615356m. Speed=26.424000m/h.</desc>
<speed>7.340000</speed>
</trkpt>
<trkpt lat="55.845406" lon="26.087921">
<ele>150.095825</ele>
<time>2010-07-17T14:19:31Z</time>
<desc>lat.=55.845406, lon.=26.087921, Alt.=150.095825m. Speed=26.136000m/h.</desc>
<speed>7.260000</speed>
</trkpt>
<trkpt lat="55.845470" lon="26.087894">
<ele>149.841919</ele>
<time>2010-07-17T14:19:32Z</time>
<desc>lat.=55.845470, lon.=26.087894, Alt.=149.841919m. Speed=26.856001m/h.</desc>
<speed>7.460000</speed>
</trkpt>
<trkpt lat="55.845535" lon="26.087868">
<ele>149.341919</ele>
<time>2010-07-17T14:19:33Z</time>
<desc>lat.=55.845535, lon.=26.087868, Alt.=149.341919m. Speed=27.143999m/h.</desc>
<speed>7.540000</speed>
</trkpt>
<trkpt lat="55.845600" lon="26.087841">
<ele>149.146606</ele>
<time>2010-07-17T14:19:34Z</time>
<desc>lat.=55.845600, lon.=26.087841, Alt.=149.146606m. Speed=27.252001m/h.</desc>
<speed>7.570000</speed>
</trkpt>
<trkpt lat="55.845665" lon="26.087812">
<ele>148.880981</ele>
<time>2010-07-17T14:19:35Z</time>
<desc>lat.=55.845665, lon.=26.087812, Alt.=148.880981m. Speed=26.964001m/h.</desc>
<speed>7.490000</speed>
</trkpt>
<trkpt lat="55.845730" lon="26.087788">
<ele>148.736450</ele>
<time>2010-07-17T14:19:36Z</time>
<desc>lat.=55.845730, lon.=26.087788, Alt.=148.736450m. Speed=26.639999m/h.</desc>
<speed>7.400000</speed>
</trkpt>
<trkpt lat="55.845795" lon="26.087765">
<ele>148.517700</ele>
<time>2010-07-17T14:19:37Z</time>
<desc>lat.=55.845795, lon.=26.087765, Alt.=148.517700m. Speed=26.568001m/h.</desc>
<speed>7.380000</speed>
</trkpt>
<trkpt lat="55.845860" lon="26.087742">
<ele>148.318481</ele>
<time>2010-07-17T14:19:38Z</time>
<desc>lat.=55.845860, lon.=26.087742, Alt.=148.318481m. Speed=26.351999m/h.</desc>
<speed>7.320000</speed>
</trkpt>
<trkpt lat="55.845921" lon="26.087721">
<ele>148.220825</ele>
<time>2010-07-17T14:19:39Z</time>
<desc>lat.=55.845921, lon.=26.087721, Alt.=148.220825m. Speed=26.172001m/h.</desc>
<speed>7.270000</speed>
</trkpt>
<trkpt lat="55.845985" lon="26.087698">
<ele>147.970825</ele>
<time>2010-07-17T14:19:40Z</time>
<desc>lat.=55.845985, lon.=26.087698, Alt.=147.970825m. Speed=26.172001m/h.</desc>
<speed>7.270000</speed>
</trkpt>
<trkpt lat="55.846046" lon="26.087671">
<ele>147.595825</ele>
<time>2010-07-17T14:19:41Z</time>
<desc>lat.=55.846046, lon.=26.087671, Alt.=147.595825m. Speed=25.056000m/h.</desc>
<speed>6.960000</speed>
</trkpt>
<trkpt lat="55.846107" lon="26.087645">
<ele>147.345825</ele>
<time>2010-07-17T14:19:42Z</time>
<desc>lat.=55.846107, lon.=26.087645, Alt.=147.345825m. Speed=25.164000m/h.</desc>
<speed>6.990000</speed>
</trkpt>
<trkpt lat="55.846169" lon="26.087622">
<ele>147.041138</ele>
<time>2010-07-17T14:19:43Z</time>
<desc>lat.=55.846169, lon.=26.087622, Alt.=147.041138m. Speed=23.796000m/h.</desc>
<speed>6.610000</speed>
</trkpt>
<trkpt lat="55.846226" lon="26.087603">
<ele>146.896606</ele>
<time>2010-07-17T14:19:44Z</time>
<desc>lat.=55.846226, lon.=26.087603, Alt.=146.896606m. Speed=23.760000m/h.</desc>
<speed>6.600000</speed>
</trkpt>
<trkpt lat="55.846283" lon="26.087585">
<ele>146.830200</ele>
<time>2010-07-17T14:19:45Z</time>
<desc>lat.=55.846283, lon.=26.087585, Alt.=146.830200m. Speed=23.472000m/h.</desc>
<speed>6.520000</speed>
</trkpt>
<trkpt lat="55.846340" lon="26.087568">
<ele>146.556763</ele>
<time>2010-07-17T14:19:46Z</time>
<desc>lat.=55.846340, lon.=26.087568, Alt.=146.556763m. Speed=23.184000m/h.</desc>
<speed>6.440000</speed>
</trkpt>
<trkpt lat="55.846397" lon="26.087549">
<ele>146.619263</ele>
<time>2010-07-17T14:19:47Z</time>
<desc>lat.=55.846397, lon.=26.087549, Alt.=146.619263m. Speed=22.896000m/h.</desc>
<speed>6.360000</speed>
</trkpt>
<trkpt lat="55.846451" lon="26.087530">
<ele>147.154419</ele>
<time>2010-07-17T14:19:48Z</time>
<desc>lat.=55.846451, lon.=26.087530, Alt.=147.154419m. Speed=22.931999m/h.</desc>
<speed>6.370000</speed>
</trkpt>
<trkpt lat="55.846508" lon="26.087503">
<ele>147.775513</ele>
<time>2010-07-17T14:19:49Z</time>
<desc>lat.=55.846508, lon.=26.087503, Alt.=147.775513m. Speed=23.256001m/h.</desc>
<speed>6.460000</speed>
</trkpt>
<trkpt lat="55.846565" lon="26.087482">
<ele>147.775513</ele>
<time>2010-07-17T14:19:50Z</time>
<desc>lat.=55.846565, lon.=26.087482, Alt.=147.775513m. Speed=23.256001m/h.</desc>
<speed>6.460000</speed>
</trkpt>
<trkpt lat="55.846622" lon="26.087461">
<ele>147.650513</ele>
<time>2010-07-17T14:19:51Z</time>
<desc>lat.=55.846622, lon.=26.087461, Alt.=147.650513m. Speed=23.040001m/h.</desc>
<speed>6.400000</speed>
</trkpt>
<trkpt lat="55.846680" lon="26.087440">
<ele>147.775513</ele>
<time>2010-07-17T14:19:52Z</time>
<desc>lat.=55.846680, lon.=26.087440, Alt.=147.775513m. Speed=23.364000m/h.</desc>
<speed>6.490000</speed>
</trkpt>
<trkpt lat="55.846741" lon="26.087420">
<ele>147.693481</ele>
<time>2010-07-17T14:19:53Z</time>
<desc>lat.=55.846741, lon.=26.087420, Alt.=147.693481m. Speed=23.040001m/h.</desc>
<speed>6.400000</speed>
</trkpt>
<trkpt lat="55.846794" lon="26.087399">
<ele>147.463013</ele>
<time>2010-07-17T14:19:54Z</time>
<desc>lat.=55.846794, lon.=26.087399, Alt.=147.463013m. Speed=22.680000m/h.</desc>
<speed>6.300000</speed>
</trkpt>
<trkpt lat="55.846851" lon="26.087379">
<ele>147.408325</ele>
<time>2010-07-17T14:19:55Z</time>
<desc>lat.=55.846851, lon.=26.087379, Alt.=147.408325m. Speed=22.535999m/h.</desc>
<speed>6.260000</speed>
</trkpt>
<trkpt lat="55.846905" lon="26.087364">
<ele>147.314575</ele>
<time>2010-07-17T14:19:56Z</time>
<desc>lat.=55.846905, lon.=26.087364, Alt.=147.314575m. Speed=22.284000m/h.</desc>
<speed>6.190000</speed>
</trkpt>
<trkpt lat="55.846958" lon="26.087343">
<ele>146.947388</ele>
<time>2010-07-17T14:19:57Z</time>
<desc>lat.=55.846958, lon.=26.087343, Alt.=146.947388m. Speed=22.032000m/h.</desc>
<speed>6.120000</speed>
</trkpt>
<trkpt lat="55.847008" lon="26.087324">
<ele>146.502075</ele>
<time>2010-07-17T14:19:58Z</time>
<desc>lat.=55.847008, lon.=26.087324, Alt.=146.502075m. Speed=21.996000m/h.</desc>
<speed>6.110000</speed>
</trkpt>
<trkpt lat="55.847065" lon="26.087303">
<ele>146.537231</ele>
<time>2010-07-17T14:19:59Z</time>
<desc>lat.=55.847065, lon.=26.087303, Alt.=146.537231m. Speed=22.104000m/h.</desc>
<speed>6.140000</speed>
</trkpt>
<trkpt lat="55.847122" lon="26.087286">
<ele>146.509888</ele>
<time>2010-07-17T14:20:00Z</time>
<desc>lat.=55.847122, lon.=26.087286, Alt.=146.509888m. Speed=22.500000m/h.</desc>
<speed>6.250000</speed>
</trkpt>
<trkpt lat="55.847176" lon="26.087267">
<ele>146.193481</ele>
<time>2010-07-17T14:20:01Z</time>
<desc>lat.=55.847176, lon.=26.087267, Alt.=146.193481m. Speed=22.896000m/h.</desc>
<speed>6.360000</speed>
</trkpt>
<trkpt lat="55.847233" lon="26.087248">
<ele>146.033325</ele>
<time>2010-07-17T14:20:02Z</time>
<desc>lat.=55.847233, lon.=26.087248, Alt.=146.033325m. Speed=22.500000m/h.</desc>
<speed>6.250000</speed>
</trkpt>
<trkpt lat="55.847286" lon="26.087229">
<ele>145.943481</ele>
<time>2010-07-17T14:20:03Z</time>
<desc>lat.=55.847286, lon.=26.087229, Alt.=145.943481m. Speed=21.851999m/h.</desc>
<speed>6.070000</speed>
</trkpt>
<trkpt lat="55.847340" lon="26.087210">
<ele>145.783325</ele>
<time>2010-07-17T14:20:04Z</time>
<desc>lat.=55.847340, lon.=26.087210, Alt.=145.783325m. Speed=21.888000m/h.</desc>
<speed>6.080000</speed>
</trkpt>
<trkpt lat="55.847389" lon="26.087189">
<ele>145.556763</ele>
<time>2010-07-17T14:20:05Z</time>
<desc>lat.=55.847389, lon.=26.087189, Alt.=145.556763m. Speed=21.563999m/h.</desc>
<speed>5.990000</speed>
</trkpt>
<trkpt lat="55.847443" lon="26.087170">
<ele>145.529419</ele>
<time>2010-07-17T14:20:06Z</time>
<desc>lat.=55.847443, lon.=26.087170, Alt.=145.529419m. Speed=21.240000m/h.</desc>
<speed>5.900000</speed>
</trkpt>
<trkpt lat="55.847496" lon="26.087156">
<ele>145.416138</ele>
<time>2010-07-17T14:20:07Z</time>
<desc>lat.=55.847496, lon.=26.087156, Alt.=145.416138m. Speed=20.988001m/h.</desc>
<speed>5.830000</speed>
</trkpt>
<trkpt lat="55.847546" lon="26.087143">
<ele>145.197388</ele>
<time>2010-07-17T14:20:08Z</time>
<desc>lat.=55.847546, lon.=26.087143, Alt.=145.197388m. Speed=20.556000m/h.</desc>
<speed>5.710000</speed>
</trkpt>
<trkpt lat="55.847595" lon="26.087126">
<ele>144.994263</ele>
<time>2010-07-17T14:20:09Z</time>
<desc>lat.=55.847595, lon.=26.087126, Alt.=144.994263m. Speed=20.160000m/h.</desc>
<speed>5.600000</speed>
</trkpt>
<trkpt lat="55.847649" lon="26.087112">
<ele>144.943481</ele>
<time>2010-07-17T14:20:10Z</time>
<desc>lat.=55.847649, lon.=26.087112, Alt.=144.943481m. Speed=20.412001m/h.</desc>
<speed>5.670000</speed>
</trkpt>
<trkpt lat="55.847694" lon="26.087103">
<ele>144.716919</ele>
<time>2010-07-17T14:20:11Z</time>
<desc>lat.=55.847694, lon.=26.087103, Alt.=144.716919m. Speed=20.304001m/h.</desc>
<speed>5.640000</speed>
</trkpt>
<trkpt lat="55.847740" lon="26.087088">
<ele>143.920044</ele>
<time>2010-07-17T14:20:12Z</time>
<desc>lat.=55.847740, lon.=26.087088, Alt.=143.920044m. Speed=20.304001m/h.</desc>
<speed>5.640000</speed>
</trkpt>
<trkpt lat="55.847790" lon="26.087067">
<ele>143.408325</ele>
<time>2010-07-17T14:20:13Z</time>
<desc>lat.=55.847790, lon.=26.087067, Alt.=143.408325m. Speed=20.268000m/h.</desc>
<speed>5.630000</speed>
</trkpt>
<trkpt lat="55.847839" lon="26.087040">
<ele>142.865356</ele>
<time>2010-07-17T14:20:14Z</time>
<desc>lat.=55.847839, lon.=26.087040, Alt.=142.865356m. Speed=20.736000m/h.</desc>
<speed>5.760000</speed>
</trkpt>
<trkpt lat="55.847889" lon="26.087015">
<ele>142.322388</ele>
<time>2010-07-17T14:20:15Z</time>
<desc>lat.=55.847889, lon.=26.087015, Alt.=142.322388m. Speed=21.240000m/h.</desc>
<speed>5.900000</speed>
</trkpt>
<trkpt lat="55.847942" lon="26.086987">
<ele>141.884888</ele>
<time>2010-07-17T14:20:16Z</time>
<desc>lat.=55.847942, lon.=26.086987, Alt.=141.884888m. Speed=21.059999m/h.</desc>
<speed>5.850000</speed>
</trkpt>
<trkpt lat="55.847996" lon="26.086967">
<ele>141.763794</ele>
<time>2010-07-17T14:20:17Z</time>
<desc>lat.=55.847996, lon.=26.086967, Alt.=141.763794m. Speed=21.059999m/h.</desc>
<speed>5.850000</speed>
</trkpt>
<trkpt lat="55.848045" lon="26.086952">
<ele>141.427856</ele>
<time>2010-07-17T14:20:18Z</time>
<desc>lat.=55.848045, lon.=26.086952, Alt.=141.427856m. Speed=20.952000m/h.</desc>
<speed>5.820000</speed>
</trkpt>
<trkpt lat="55.848099" lon="26.086931">
<ele>141.056763</ele>
<time>2010-07-17T14:20:19Z</time>
<desc>lat.=55.848099, lon.=26.086931, Alt.=141.056763m. Speed=21.492001m/h.</desc>
<speed>5.970000</speed>
</trkpt>
<trkpt lat="55.848152" lon="26.086910">
<ele>140.517700</ele>
<time>2010-07-17T14:20:20Z</time>
<desc>lat.=55.848152, lon.=26.086910, Alt.=140.517700m. Speed=21.600000m/h.</desc>
<speed>6.000000</speed>
</trkpt>
<trkpt lat="55.848213" lon="26.086901">
<ele>141.201294</ele>
<time>2010-07-17T14:20:21Z</time>
<desc>lat.=55.848213, lon.=26.086901, Alt.=141.201294m. Speed=21.636000m/h.</desc>
<speed>6.010000</speed>
</trkpt>
<trkpt lat="55.848263" lon="26.086884">
<ele>140.802856</ele>
<time>2010-07-17T14:20:22Z</time>
<desc>lat.=55.848263, lon.=26.086884, Alt.=140.802856m. Speed=21.743999m/h.</desc>
<speed>6.040000</speed>
</trkpt>
<trkpt lat="55.848316" lon="26.086859">
<ele>140.638794</ele>
<time>2010-07-17T14:20:23Z</time>
<desc>lat.=55.848316, lon.=26.086859, Alt.=140.638794m. Speed=21.492001m/h.</desc>
<speed>5.970000</speed>
</trkpt>
<trkpt lat="55.848370" lon="26.086836">
<ele>140.283325</ele>
<time>2010-07-17T14:20:24Z</time>
<desc>lat.=55.848370, lon.=26.086836, Alt.=140.283325m. Speed=21.492001m/h.</desc>
<speed>5.970000</speed>
</trkpt>
<trkpt lat="55.848423" lon="26.086813">
<ele>140.420044</ele>
<time>2010-07-17T14:20:25Z</time>
<desc>lat.=55.848423, lon.=26.086813, Alt.=140.420044m. Speed=20.988001m/h.</desc>
<speed>5.830000</speed>
</trkpt>
<trkpt lat="55.848476" lon="26.086792">
<ele>140.427856</ele>
<time>2010-07-17T14:20:26Z</time>
<desc>lat.=55.848476, lon.=26.086792, Alt.=140.427856m. Speed=20.483999m/h.</desc>
<speed>5.690000</speed>
</trkpt>
<trkpt lat="55.848518" lon="26.086771">
<ele>138.853638</ele>
<time>2010-07-17T14:20:27Z</time>
<desc>lat.=55.848518, lon.=26.086771, Alt.=138.853638m. Speed=19.511999m/h.</desc>
<speed>5.420000</speed>
</trkpt>
<trkpt lat="55.848564" lon="26.086754">
<ele>138.314575</ele>
<time>2010-07-17T14:20:28Z</time>
<desc>lat.=55.848564, lon.=26.086754, Alt.=138.314575m. Speed=20.124001m/h.</desc>
<speed>5.590000</speed>
</trkpt>
<trkpt lat="55.848621" lon="26.086739">
<ele>138.849731</ele>
<time>2010-07-17T14:20:29Z</time>
<desc>lat.=55.848621, lon.=26.086739, Alt.=138.849731m. Speed=20.520000m/h.</desc>
<speed>5.700000</speed>
</trkpt>
<trkpt lat="55.848671" lon="26.086720">
<ele>138.451294</ele>
<time>2010-07-17T14:20:30Z</time>
<desc>lat.=55.848671, lon.=26.086720, Alt.=138.451294m. Speed=20.879999m/h.</desc>
<speed>5.800000</speed>
</trkpt>
<trkpt lat="55.848724" lon="26.086704">
<ele>138.388794</ele>
<time>2010-07-17T14:20:31Z</time>
<desc>lat.=55.848724, lon.=26.086704, Alt.=138.388794m. Speed=20.952000m/h.</desc>
<speed>5.820000</speed>
</trkpt>
<trkpt lat="55.848778" lon="26.086683">
<ele>138.283325</ele>
<time>2010-07-17T14:20:32Z</time>
<desc>lat.=55.848778, lon.=26.086683, Alt.=138.283325m. Speed=20.664000m/h.</desc>
<speed>5.740000</speed>
</trkpt>
<trkpt lat="55.848827" lon="26.086657">
<ele>138.396606</ele>
<time>2010-07-17T14:20:33Z</time>
<desc>lat.=55.848827, lon.=26.086657, Alt.=138.396606m. Speed=19.872000m/h.</desc>
<speed>5.520000</speed>
</trkpt>
<trkpt lat="55.848877" lon="26.086632">
<ele>138.224731</ele>
<time>2010-07-17T14:20:34Z</time>
<desc>lat.=55.848877, lon.=26.086632, Alt.=138.224731m. Speed=20.664000m/h.</desc>
<speed>5.740000</speed>
</trkpt>
<trkpt lat="55.848930" lon="26.086618">
<ele>138.216919</ele>
<time>2010-07-17T14:20:35Z</time>
<desc>lat.=55.848930, lon.=26.086618, Alt.=138.216919m. Speed=20.736000m/h.</desc>
<speed>5.760000</speed>
</trkpt>
<trkpt lat="55.848991" lon="26.086607">
<ele>139.459106</ele>
<time>2010-07-17T14:20:36Z</time>
<desc>lat.=55.848991, lon.=26.086607, Alt.=139.459106m. Speed=21.384001m/h.</desc>
<speed>5.940000</speed>
</trkpt>
<trkpt lat="55.849045" lon="26.086586">
<ele>139.580200</ele>
<time>2010-07-17T14:20:37Z</time>
<desc>lat.=55.849045, lon.=26.086586, Alt.=139.580200m. Speed=21.708000m/h.</desc>
<speed>6.030000</speed>
</trkpt>
<trkpt lat="55.849113" lon="26.086567">
<ele>142.877075</ele>
<time>2010-07-17T14:20:38Z</time>
<desc>lat.=55.849113, lon.=26.086567, Alt.=142.877075m. Speed=22.968000m/h.</desc>
<speed>6.380000</speed>
</trkpt>
<trkpt lat="55.849163" lon="26.086548">
<ele>142.818481</ele>
<time>2010-07-17T14:20:39Z</time>
<desc>lat.=55.849163, lon.=26.086548, Alt.=142.818481m. Speed=20.412001m/h.</desc>
<speed>5.670000</speed>
</trkpt>
<trkpt lat="55.849209" lon="26.086536">
<ele>143.154419</ele>
<time>2010-07-17T14:20:40Z</time>
<desc>lat.=55.849209, lon.=26.086536, Alt.=143.154419m. Speed=20.375999m/h.</desc>
<speed>5.660000</speed>
</trkpt>
<trkpt lat="55.849258" lon="26.086519">
<ele>144.021606</ele>
<time>2010-07-17T14:20:41Z</time>
<desc>lat.=55.849258, lon.=26.086519, Alt.=144.021606m. Speed=20.160000m/h.</desc>
<speed>5.600000</speed>
</trkpt>
<trkpt lat="55.849308" lon="26.086506">
<ele>144.314575</ele>
<time>2010-07-17T14:20:42Z</time>
<desc>lat.=55.849308, lon.=26.086506, Alt.=144.314575m. Speed=20.412001m/h.</desc>
<speed>5.670000</speed>
</trkpt>
<trkpt lat="55.849354" lon="26.086489">
<ele>144.384888</ele>
<time>2010-07-17T14:20:43Z</time>
<desc>lat.=55.849354, lon.=26.086489, Alt.=144.384888m. Speed=19.440001m/h.</desc>
<speed>5.400000</speed>
</trkpt>
<trkpt lat="55.849396" lon="26.086473">
<ele>143.673950</ele>
<time>2010-07-17T14:20:44Z</time>
<desc>lat.=55.849396, lon.=26.086473, Alt.=143.673950m. Speed=19.368000m/h.</desc>
<speed>5.380000</speed>
</trkpt>
<trkpt lat="55.849442" lon="26.086456">
<ele>143.463013</ele>
<time>2010-07-17T14:20:45Z</time>
<desc>lat.=55.849442, lon.=26.086456, Alt.=143.463013m. Speed=18.864000m/h.</desc>
<speed>5.240000</speed>
</trkpt>
<trkpt lat="55.849483" lon="26.086437">
<ele>143.130981</ele>
<time>2010-07-17T14:20:46Z</time>
<desc>lat.=55.849483, lon.=26.086437, Alt.=143.130981m. Speed=18.648001m/h.</desc>
<speed>5.180000</speed>
</trkpt>
<trkpt lat="55.849529" lon="26.086424">
<ele>143.916138</ele>
<time>2010-07-17T14:20:47Z</time>
<desc>lat.=55.849529, lon.=26.086424, Alt.=143.916138m. Speed=18.288000m/h.</desc>
<speed>5.080000</speed>
</trkpt>
<trkpt lat="55.849575" lon="26.086416">
<ele>144.056763</ele>
<time>2010-07-17T14:20:48Z</time>
<desc>lat.=55.849575, lon.=26.086416, Alt.=144.056763m. Speed=18.288000m/h.</desc>
<speed>5.080000</speed>
</trkpt>
<trkpt lat="55.849621" lon="26.086403">
<ele>144.283325</ele>
<time>2010-07-17T14:20:49Z</time>
<desc>lat.=55.849621, lon.=26.086403, Alt.=144.283325m. Speed=18.288000m/h.</desc>
<speed>5.080000</speed>
</trkpt>
<trkpt lat="55.849655" lon="26.086382">
<ele>142.927856</ele>
<time>2010-07-17T14:20:50Z</time>
<desc>lat.=55.849655, lon.=26.086382, Alt.=142.927856m. Speed=17.856001m/h.</desc>
<speed>4.960000</speed>
</trkpt>
<trkpt lat="55.849693" lon="26.086365">
<ele>143.103638</ele>
<time>2010-07-17T14:20:51Z</time>
<desc>lat.=55.849693, lon.=26.086365, Alt.=143.103638m. Speed=17.028000m/h.</desc>
<speed>4.730000</speed>
</trkpt>
<trkpt lat="55.849735" lon="26.086344">
<ele>143.283325</ele>
<time>2010-07-17T14:20:52Z</time>
<desc>lat.=55.849735, lon.=26.086344, Alt.=143.283325m. Speed=16.920000m/h.</desc>
<speed>4.700000</speed>
</trkpt>
<trkpt lat="55.849777" lon="26.086327">
<ele>143.603638</ele>
<time>2010-07-17T14:20:53Z</time>
<desc>lat.=55.849777, lon.=26.086327, Alt.=143.603638m. Speed=16.955999m/h.</desc>
<speed>4.710000</speed>
</trkpt>
<trkpt lat="55.849819" lon="26.086309">
<ele>143.931763</ele>
<time>2010-07-17T14:20:54Z</time>
<desc>lat.=55.849819, lon.=26.086309, Alt.=143.931763m. Speed=16.812000m/h.</desc>
<speed>4.670000</speed>
</trkpt>
<trkpt lat="55.849861" lon="26.086288">
<ele>143.974731</ele>
<time>2010-07-17T14:20:55Z</time>
<desc>lat.=55.849861, lon.=26.086288, Alt.=143.974731m. Speed=16.884001m/h.</desc>
<speed>4.690000</speed>
</trkpt>
<trkpt lat="55.849899" lon="26.086269">
<ele>143.607544</ele>
<time>2010-07-17T14:20:56Z</time>
<desc>lat.=55.849899, lon.=26.086269, Alt.=143.607544m. Speed=17.496000m/h.</desc>
<speed>4.860000</speed>
</trkpt>
<trkpt lat="55.849941" lon="26.086250">
<ele>142.877075</ele>
<time>2010-07-17T14:20:57Z</time>
<desc>lat.=55.849941, lon.=26.086250, Alt.=142.877075m. Speed=18.000000m/h.</desc>
<speed>5.000000</speed>
</trkpt>
<trkpt lat="55.849976" lon="26.086235">
<ele>140.806763</ele>
<time>2010-07-17T14:20:58Z</time>
<desc>lat.=55.849976, lon.=26.086235, Alt.=140.806763m. Speed=17.496000m/h.</desc>
<speed>4.860000</speed>
</trkpt>
<trkpt lat="55.850014" lon="26.086222">
<ele>140.943481</ele>
<time>2010-07-17T14:20:59Z</time>
<desc>lat.=55.850014, lon.=26.086222, Alt.=140.943481m. Speed=17.028000m/h.</desc>
<speed>4.730000</speed>
</trkpt>
<trkpt lat="55.850052" lon="26.086203">
<ele>140.298950</ele>
<time>2010-07-17T14:21:00Z</time>
<desc>lat.=55.850052, lon.=26.086203, Alt.=140.298950m. Speed=16.632000m/h.</desc>
<speed>4.620000</speed>
</trkpt>
<trkpt lat="55.850090" lon="26.086185">
<ele>139.802856</ele>
<time>2010-07-17T14:21:01Z</time>
<desc>lat.=55.850090, lon.=26.086185, Alt.=139.802856m. Speed=16.488001m/h.</desc>
<speed>4.580000</speed>
</trkpt>
<trkpt lat="55.850136" lon="26.086159">
<ele>140.201294</ele>
<time>2010-07-17T14:21:02Z</time>
<desc>lat.=55.850136, lon.=26.086159, Alt.=140.201294m. Speed=16.308001m/h.</desc>
<speed>4.530000</speed>
</trkpt>
<trkpt lat="55.850174" lon="26.086145">
<ele>140.181763</ele>
<time>2010-07-17T14:21:03Z</time>
<desc>lat.=55.850174, lon.=26.086145, Alt.=140.181763m. Speed=16.344000m/h.</desc>
<speed>4.540000</speed>
</trkpt>
<trkpt lat="55.850220" lon="26.086128">
<ele>141.111450</ele>
<time>2010-07-17T14:21:04Z</time>
<desc>lat.=55.850220, lon.=26.086128, Alt.=141.111450m. Speed=16.667999m/h.</desc>
<speed>4.630000</speed>
</trkpt>
<trkpt lat="55.850262" lon="26.086121">
<ele>141.896606</ele>
<time>2010-07-17T14:21:05Z</time>
<desc>lat.=55.850262, lon.=26.086121, Alt.=141.896606m. Speed=18.180000m/h.</desc>
<speed>5.050000</speed>
</trkpt>
<trkpt lat="55.850315" lon="26.086109">
<ele>144.240356</ele>
<time>2010-07-17T14:21:06Z</time>
<desc>lat.=55.850315, lon.=26.086109, Alt.=144.240356m. Speed=17.424000m/h.</desc>
<speed>4.840000</speed>
</trkpt>
<trkpt lat="55.850368" lon="26.086096">
<ele>145.361450</ele>
<time>2010-07-17T14:21:07Z</time>
<desc>lat.=55.850368, lon.=26.086096, Alt.=145.361450m. Speed=19.440001m/h.</desc>
<speed>5.400000</speed>
</trkpt>
<trkpt lat="55.850414" lon="26.086082">
<ele>145.127075</ele>
<time>2010-07-17T14:21:08Z</time>
<desc>lat.=55.850414, lon.=26.086082, Alt.=145.127075m. Speed=19.980000m/h.</desc>
<speed>5.550000</speed>
</trkpt>
<trkpt lat="55.850468" lon="26.086065">
<ele>145.330200</ele>
<time>2010-07-17T14:21:09Z</time>
<desc>lat.=55.850468, lon.=26.086065, Alt.=145.330200m. Speed=20.412001m/h.</desc>
<speed>5.670000</speed>
</trkpt>
<trkpt lat="55.850513" lon="26.086046">
<ele>144.189575</ele>
<time>2010-07-17T14:21:10Z</time>
<desc>lat.=55.850513, lon.=26.086046, Alt.=144.189575m. Speed=20.628000m/h.</desc>
<speed>5.730000</speed>
</trkpt>
<trkpt lat="55.850567" lon="26.086031">
<ele>144.556763</ele>
<time>2010-07-17T14:21:11Z</time>
<desc>lat.=55.850567, lon.=26.086031, Alt.=144.556763m. Speed=21.024000m/h.</desc>
<speed>5.840000</speed>
</trkpt>
<trkpt lat="55.850624" lon="26.086018">
<ele>145.505981</ele>
<time>2010-07-17T14:21:12Z</time>
<desc>lat.=55.850624, lon.=26.086018, Alt.=145.505981m. Speed=21.455999m/h.</desc>
<speed>5.960000</speed>
</trkpt>
<trkpt lat="55.850677" lon="26.086006">
<ele>145.529419</ele>
<time>2010-07-17T14:21:13Z</time>
<desc>lat.=55.850677, lon.=26.086006, Alt.=145.529419m. Speed=22.212000m/h.</desc>
<speed>6.170000</speed>
</trkpt>
<trkpt lat="55.850731" lon="26.085987">
<ele>145.123169</ele>
<time>2010-07-17T14:21:14Z</time>
<desc>lat.=55.850731, lon.=26.085987, Alt.=145.123169m. Speed=22.247999m/h.</desc>
<speed>6.180000</speed>
</trkpt>
<trkpt lat="55.850784" lon="26.085972">
<ele>144.755981</ele>
<time>2010-07-17T14:21:15Z</time>
<desc>lat.=55.850784, lon.=26.085972, Alt.=144.755981m. Speed=21.743999m/h.</desc>
<speed>6.040000</speed>
</trkpt>
<trkpt lat="55.850834" lon="26.085957">
<ele>144.810669</ele>
<time>2010-07-17T14:21:16Z</time>
<desc>lat.=55.850834, lon.=26.085957, Alt.=144.810669m. Speed=21.888000m/h.</desc>
<speed>6.080000</speed>
</trkpt>
<trkpt lat="55.850891" lon="26.085939">
<ele>144.904419</ele>
<time>2010-07-17T14:21:17Z</time>
<desc>lat.=55.850891, lon.=26.085939, Alt.=144.904419m. Speed=22.535999m/h.</desc>
<speed>6.260000</speed>
</trkpt>
<trkpt lat="55.850945" lon="26.085917">
<ele>145.013794</ele>
<time>2010-07-17T14:21:18Z</time>
<desc>lat.=55.850945, lon.=26.085917, Alt.=145.013794m. Speed=22.680000m/h.</desc>
<speed>6.300000</speed>
</trkpt>
<trkpt lat="55.850998" lon="26.085894">
<ele>145.162231</ele>
<time>2010-07-17T14:21:19Z</time>
<desc>lat.=55.850998, lon.=26.085894, Alt.=145.162231m. Speed=22.752001m/h.</desc>
<speed>6.320000</speed>
</trkpt>
<trkpt lat="55.851059" lon="26.085873">
<ele>146.279419</ele>
<time>2010-07-17T14:21:20Z</time>
<desc>lat.=55.851059, lon.=26.085873, Alt.=146.279419m. Speed=23.436001m/h.</desc>
<speed>6.510000</speed>
</trkpt>
<trkpt lat="55.851116" lon="26.085854">
<ele>146.689575</ele>
<time>2010-07-17T14:21:21Z</time>
<desc>lat.=55.851116, lon.=26.085854, Alt.=146.689575m. Speed=23.615999m/h.</desc>
<speed>6.560000</speed>
</trkpt>
<trkpt lat="55.851177" lon="26.085833">
<ele>147.045044</ele>
<time>2010-07-17T14:21:22Z</time>
<desc>lat.=55.851177, lon.=26.085833, Alt.=147.045044m. Speed=24.048000m/h.</desc>
<speed>6.680000</speed>
</trkpt>
<trkpt lat="55.851238" lon="26.085815">
<ele>147.005981</ele>
<time>2010-07-17T14:21:23Z</time>
<desc>lat.=55.851238, lon.=26.085815, Alt.=147.005981m. Speed=24.264000m/h.</desc>
<speed>6.740000</speed>
</trkpt>
<trkpt lat="55.851295" lon="26.085793">
<ele>146.673950</ele>
<time>2010-07-17T14:21:24Z</time>
<desc>lat.=55.851295, lon.=26.085793, Alt.=146.673950m. Speed=23.796000m/h.</desc>
<speed>6.610000</speed>
</trkpt>
<trkpt lat="55.851357" lon="26.085777">
<ele>146.670044</ele>
<time>2010-07-17T14:21:25Z</time>
<desc>lat.=55.851357, lon.=26.085777, Alt.=146.670044m. Speed=23.796000m/h.</desc>
<speed>6.610000</speed>
</trkpt>
<trkpt lat="55.851414" lon="26.085760">
<ele>146.494263</ele>
<time>2010-07-17T14:21:26Z</time>
<desc>lat.=55.851414, lon.=26.085760, Alt.=146.494263m. Speed=23.796000m/h.</desc>
<speed>6.610000</speed>
</trkpt>
<trkpt lat="55.851471" lon="26.085737">
<ele>146.509888</ele>
<time>2010-07-17T14:21:27Z</time>
<desc>lat.=55.851471, lon.=26.085737, Alt.=146.509888m. Speed=23.868000m/h.</desc>
<speed>6.630000</speed>
</trkpt>
<trkpt lat="55.851532" lon="26.085718">
<ele>146.752075</ele>
<time>2010-07-17T14:21:28Z</time>
<desc>lat.=55.851532, lon.=26.085718, Alt.=146.752075m. Speed=24.120001m/h.</desc>
<speed>6.700000</speed>
</trkpt>
<trkpt lat="55.851593" lon="26.085697">
<ele>147.150513</ele>
<time>2010-07-17T14:21:29Z</time>
<desc>lat.=55.851593, lon.=26.085697, Alt.=147.150513m. Speed=24.299999m/h.</desc>
<speed>6.750000</speed>
</trkpt>
<trkpt lat="55.851650" lon="26.085678">
<ele>147.314575</ele>
<time>2010-07-17T14:21:30Z</time>
<desc>lat.=55.851650, lon.=26.085678, Alt.=147.314575m. Speed=24.048000m/h.</desc>
<speed>6.680000</speed>
</trkpt>
<trkpt lat="55.851707" lon="26.085661">
<ele>146.838013</ele>
<time>2010-07-17T14:21:31Z</time>
<desc>lat.=55.851707, lon.=26.085661, Alt.=146.838013m. Speed=24.191999m/h.</desc>
<speed>6.720000</speed>
</trkpt>
<trkpt lat="55.851765" lon="26.085642">
<ele>146.341919</ele>
<time>2010-07-17T14:21:32Z</time>
<desc>lat.=55.851765, lon.=26.085642, Alt.=146.341919m. Speed=23.724001m/h.</desc>
<speed>6.590000</speed>
</trkpt>
<trkpt lat="55.851826" lon="26.085623">
<ele>146.005981</ele>
<time>2010-07-17T14:21:33Z</time>
<desc>lat.=55.851826, lon.=26.085623, Alt.=146.005981m. Speed=23.507999m/h.</desc>
<speed>6.530000</speed>
</trkpt>
<trkpt lat="55.851883" lon="26.085602">
<ele>146.091919</ele>
<time>2010-07-17T14:21:34Z</time>
<desc>lat.=55.851883, lon.=26.085602, Alt.=146.091919m. Speed=23.112000m/h.</desc>
<speed>6.420000</speed>
</trkpt>
<trkpt lat="55.851936" lon="26.085577">
<ele>146.080200</ele>
<time>2010-07-17T14:21:35Z</time>
<desc>lat.=55.851936, lon.=26.085577, Alt.=146.080200m. Speed=22.608000m/h.</desc>
<speed>6.280000</speed>
</trkpt>
<trkpt lat="55.851990" lon="26.085554">
<ele>146.091919</ele>
<time>2010-07-17T14:21:36Z</time>
<desc>lat.=55.851990, lon.=26.085554, Alt.=146.091919m. Speed=22.500000m/h.</desc>
<speed>6.250000</speed>
</trkpt>
<trkpt lat="55.852043" lon="26.085539">
<ele>146.119263</ele>
<time>2010-07-17T14:21:37Z</time>
<desc>lat.=55.852043, lon.=26.085539, Alt.=146.119263m. Speed=21.996000m/h.</desc>
<speed>6.110000</speed>
</trkpt>
<trkpt lat="55.852100" lon="26.085522">
<ele>146.990356</ele>
<time>2010-07-17T14:21:38Z</time>
<desc>lat.=55.852100, lon.=26.085522, Alt.=146.990356m. Speed=21.743999m/h.</desc>
<speed>6.040000</speed>
</trkpt>
<trkpt lat="55.852154" lon="26.085505">
<ele>147.068481</ele>
<time>2010-07-17T14:21:39Z</time>
<desc>lat.=55.852154, lon.=26.085505, Alt.=147.068481m. Speed=21.780001m/h.</desc>
<speed>6.050000</speed>
</trkpt>
<trkpt lat="55.852207" lon="26.085485">
<ele>146.791138</ele>
<time>2010-07-17T14:21:40Z</time>
<desc>lat.=55.852207, lon.=26.085485, Alt.=146.791138m. Speed=20.844000m/h.</desc>
<speed>5.790000</speed>
</trkpt>
<trkpt lat="55.852257" lon="26.085466">
<ele>146.845825</ele>
<time>2010-07-17T14:21:41Z</time>
<desc>lat.=55.852257, lon.=26.085466, Alt.=146.845825m. Speed=20.556000m/h.</desc>
<speed>5.710000</speed>
</trkpt>
<trkpt lat="55.852306" lon="26.085453">
<ele>147.287231</ele>
<time>2010-07-17T14:21:42Z</time>
<desc>lat.=55.852306, lon.=26.085453, Alt.=147.287231m. Speed=19.980000m/h.</desc>
<speed>5.550000</speed>
</trkpt>
<trkpt lat="55.852356" lon="26.085436">
<ele>147.400513</ele>
<time>2010-07-17T14:21:43Z</time>
<desc>lat.=55.852356, lon.=26.085436, Alt.=147.400513m. Speed=19.188000m/h.</desc>
<speed>5.330000</speed>
</trkpt>
<trkpt lat="55.852402" lon="26.085419">
<ele>147.103638</ele>
<time>2010-07-17T14:21:44Z</time>
<desc>lat.=55.852402, lon.=26.085419, Alt.=147.103638m. Speed=18.648001m/h.</desc>
<speed>5.180000</speed>
</trkpt>
<trkpt lat="55.852444" lon="26.085400">
<ele>146.826294</ele>
<time>2010-07-17T14:21:45Z</time>
<desc>lat.=55.852444, lon.=26.085400, Alt.=146.826294m. Speed=18.431999m/h.</desc>
<speed>5.120000</speed>
</trkpt>
<trkpt lat="55.852486" lon="26.085382">
<ele>146.306763</ele>
<time>2010-07-17T14:21:46Z</time>
<desc>lat.=55.852486, lon.=26.085382, Alt.=146.306763m. Speed=17.927999m/h.</desc>
<speed>4.980000</speed>
</trkpt>
<trkpt lat="55.852528" lon="26.085365">
<ele>146.338013</ele>
<time>2010-07-17T14:21:47Z</time>
<desc>lat.=55.852528, lon.=26.085365, Alt.=146.338013m. Speed=18.108000m/h.</desc>
<speed>5.030000</speed>
</trkpt>
<trkpt lat="55.852570" lon="26.085356">
<ele>145.595825</ele>
<time>2010-07-17T14:21:48Z</time>
<desc>lat.=55.852570, lon.=26.085356, Alt.=145.595825m. Speed=18.360001m/h.</desc>
<speed>5.100000</speed>
</trkpt>
<trkpt lat="55.852623" lon="26.085340">
<ele>146.892700</ele>
<time>2010-07-17T14:21:49Z</time>
<desc>lat.=55.852623, lon.=26.085340, Alt.=146.892700m. Speed=18.360001m/h.</desc>
<speed>5.100000</speed>
</trkpt>
<trkpt lat="55.852665" lon="26.085320">
<ele>146.767700</ele>
<time>2010-07-17T14:21:50Z</time>
<desc>lat.=55.852665, lon.=26.085320, Alt.=146.767700m. Speed=18.431999m/h.</desc>
<speed>5.120000</speed>
</trkpt>
<trkpt lat="55.852707" lon="26.085300">
<ele>146.713013</ele>
<time>2010-07-17T14:21:51Z</time>
<desc>lat.=55.852707, lon.=26.085300, Alt.=146.713013m. Speed=18.648001m/h.</desc>
<speed>5.180000</speed>
</trkpt>
<trkpt lat="55.852757" lon="26.085281">
<ele>147.240356</ele>
<time>2010-07-17T14:21:52Z</time>
<desc>lat.=55.852757, lon.=26.085281, Alt.=147.240356m. Speed=19.115999m/h.</desc>
<speed>5.310000</speed>
</trkpt>
<trkpt lat="55.852802" lon="26.085266">
<ele>147.373169</ele>
<time>2010-07-17T14:21:53Z</time>
<desc>lat.=55.852802, lon.=26.085266, Alt.=147.373169m. Speed=19.620001m/h.</desc>
<speed>5.450000</speed>
</trkpt>
<trkpt lat="55.852856" lon="26.085251">
<ele>147.634888</ele>
<time>2010-07-17T14:21:54Z</time>
<desc>lat.=55.852856, lon.=26.085251, Alt.=147.634888m. Speed=20.268000m/h.</desc>
<speed>5.630000</speed>
</trkpt>
<trkpt lat="55.852905" lon="26.085243">
<ele>147.908325</ele>
<time>2010-07-17T14:21:55Z</time>
<desc>lat.=55.852905, lon.=26.085243, Alt.=147.908325m. Speed=20.375999m/h.</desc>
<speed>5.660000</speed>
</trkpt>
<trkpt lat="55.852955" lon="26.085234">
<ele>148.158325</ele>
<time>2010-07-17T14:21:56Z</time>
<desc>lat.=55.852955, lon.=26.085234, Alt.=148.158325m. Speed=20.844000m/h.</desc>
<speed>5.790000</speed>
</trkpt>
<trkpt lat="55.853008" lon="26.085207">
<ele>148.959106</ele>
<time>2010-07-17T14:21:57Z</time>
<desc>lat.=55.853008, lon.=26.085207, Alt.=148.959106m. Speed=21.455999m/h.</desc>
<speed>5.960000</speed>
</trkpt>
<trkpt lat="55.853062" lon="26.085186">
<ele>148.998169</ele>
<time>2010-07-17T14:21:58Z</time>
<desc>lat.=55.853062, lon.=26.085186, Alt.=148.998169m. Speed=21.743999m/h.</desc>
<speed>6.040000</speed>
</trkpt>
<trkpt lat="55.853111" lon="26.085167">
<ele>149.072388</ele>
<time>2010-07-17T14:21:59Z</time>
<desc>lat.=55.853111, lon.=26.085167, Alt.=149.072388m. Speed=21.024000m/h.</desc>
<speed>5.840000</speed>
</trkpt>
<trkpt lat="55.853165" lon="26.085152">
<ele>149.732544</ele>
<time>2010-07-17T14:22:00Z</time>
<desc>lat.=55.853165, lon.=26.085152, Alt.=149.732544m. Speed=20.520000m/h.</desc>
<speed>5.700000</speed>
</trkpt>
<trkpt lat="55.853218" lon="26.085133">
<ele>150.052856</ele>
<time>2010-07-17T14:22:01Z</time>
<desc>lat.=55.853218, lon.=26.085133, Alt.=150.052856m. Speed=20.844000m/h.</desc>
<speed>5.790000</speed>
</trkpt>
<trkpt lat="55.853271" lon="26.085112">
<ele>150.173950</ele>
<time>2010-07-17T14:22:02Z</time>
<desc>lat.=55.853271, lon.=26.085112, Alt.=150.173950m. Speed=20.879999m/h.</desc>
<speed>5.800000</speed>
</trkpt>
<trkpt lat="55.853321" lon="26.085094">
<ele>150.177856</ele>
<time>2010-07-17T14:22:03Z</time>
<desc>lat.=55.853321, lon.=26.085094, Alt.=150.177856m. Speed=20.628000m/h.</desc>
<speed>5.730000</speed>
</trkpt>
<trkpt lat="55.853363" lon="26.085075">
<ele>149.353638</ele>
<time>2010-07-17T14:22:04Z</time>
<desc>lat.=55.853363, lon.=26.085075, Alt.=149.353638m. Speed=20.195999m/h.</desc>
<speed>5.610000</speed>
</trkpt>
<trkpt lat="55.853409" lon="26.085054">
<ele>148.642700</ele>
<time>2010-07-17T14:22:05Z</time>
<desc>lat.=55.853409, lon.=26.085054, Alt.=148.642700m. Speed=20.160000m/h.</desc>
<speed>5.600000</speed>
</trkpt>
<trkpt lat="55.853458" lon="26.085045">
<ele>148.974731</ele>
<time>2010-07-17T14:22:06Z</time>
<desc>lat.=55.853458, lon.=26.085045, Alt.=148.974731m. Speed=20.591999m/h.</desc>
<speed>5.720000</speed>
</trkpt>
<trkpt lat="55.853527" lon="26.085024">
<ele>151.841919</ele>
<time>2010-07-17T14:22:07Z</time>
<desc>lat.=55.853527, lon.=26.085024, Alt.=151.841919m. Speed=20.483999m/h.</desc>
<speed>5.690000</speed>
</trkpt>
<trkpt lat="55.853577" lon="26.085007">
<ele>151.623169</ele>
<time>2010-07-17T14:22:08Z</time>
<desc>lat.=55.853577, lon.=26.085007, Alt.=151.623169m. Speed=20.340000m/h.</desc>
<speed>5.650000</speed>
</trkpt>
<trkpt lat="55.853619" lon="26.084982">
<ele>151.162231</ele>
<time>2010-07-17T14:22:09Z</time>
<desc>lat.=55.853619, lon.=26.084982, Alt.=151.162231m. Speed=20.268000m/h.</desc>
<speed>5.630000</speed>
</trkpt>
<trkpt lat="55.853668" lon="26.084967">
<ele>151.365356</ele>
<time>2010-07-17T14:22:10Z</time>
<desc>lat.=55.853668, lon.=26.084967, Alt.=151.365356m. Speed=20.052000m/h.</desc>
<speed>5.570000</speed>
</trkpt>
<trkpt lat="55.853722" lon="26.084953">
<ele>151.939575</ele>
<time>2010-07-17T14:22:11Z</time>
<desc>lat.=55.853722, lon.=26.084953, Alt.=151.939575m. Speed=21.132000m/h.</desc>
<speed>5.870000</speed>
</trkpt>
<trkpt lat="55.853779" lon="26.084940">
<ele>153.013794</ele>
<time>2010-07-17T14:22:12Z</time>
<desc>lat.=55.853779, lon.=26.084940, Alt.=153.013794m. Speed=21.204000m/h.</desc>
<speed>5.890000</speed>
</trkpt>
<trkpt lat="55.853832" lon="26.084923">
<ele>153.119263</ele>
<time>2010-07-17T14:22:13Z</time>
<desc>lat.=55.853832, lon.=26.084923, Alt.=153.119263m. Speed=21.132000m/h.</desc>
<speed>5.870000</speed>
</trkpt>
<trkpt lat="55.853882" lon="26.084909">
<ele>153.447388</ele>
<time>2010-07-17T14:22:14Z</time>
<desc>lat.=55.853882, lon.=26.084909, Alt.=153.447388m. Speed=19.872000m/h.</desc>
<speed>5.520000</speed>
</trkpt>
<trkpt lat="55.853931" lon="26.084894">
<ele>153.494263</ele>
<time>2010-07-17T14:22:15Z</time>
<desc>lat.=55.853931, lon.=26.084894, Alt.=153.494263m. Speed=19.007999m/h.</desc>
<speed>5.280000</speed>
</trkpt>
<trkpt lat="55.853977" lon="26.084883">
<ele>153.404419</ele>
<time>2010-07-17T14:22:16Z</time>
<desc>lat.=55.853977, lon.=26.084883, Alt.=153.404419m. Speed=18.792000m/h.</desc>
<speed>5.220000</speed>
</trkpt>
<trkpt lat="55.854023" lon="26.084873">
<ele>153.634888</ele>
<time>2010-07-17T14:22:17Z</time>
<desc>lat.=55.854023, lon.=26.084873, Alt.=153.634888m. Speed=19.044001m/h.</desc>
<speed>5.290000</speed>
</trkpt>
<trkpt lat="55.854073" lon="26.084862">
<ele>154.240356</ele>
<time>2010-07-17T14:22:18Z</time>
<desc>lat.=55.854073, lon.=26.084862, Alt.=154.240356m. Speed=19.188000m/h.</desc>
<speed>5.330000</speed>
</trkpt>
<trkpt lat="55.854122" lon="26.084846">
<ele>154.697388</ele>
<time>2010-07-17T14:22:19Z</time>
<desc>lat.=55.854122, lon.=26.084846, Alt.=154.697388m. Speed=19.403999m/h.</desc>
<speed>5.390000</speed>
</trkpt>
<trkpt lat="55.854172" lon="26.084831">
<ele>155.068481</ele>
<time>2010-07-17T14:22:20Z</time>
<desc>lat.=55.854172, lon.=26.084831, Alt.=155.068481m. Speed=19.728001m/h.</desc>
<speed>5.480000</speed>
</trkpt>
<trkpt lat="55.854221" lon="26.084812">
<ele>155.134888</ele>
<time>2010-07-17T14:22:21Z</time>
<desc>lat.=55.854221, lon.=26.084812, Alt.=155.134888m. Speed=20.448000m/h.</desc>
<speed>5.680000</speed>
</trkpt>
<trkpt lat="55.854271" lon="26.084791">
<ele>155.138794</ele>
<time>2010-07-17T14:22:22Z</time>
<desc>lat.=55.854271, lon.=26.084791, Alt.=155.138794m. Speed=20.591999m/h.</desc>
<speed>5.720000</speed>
</trkpt>
<trkpt lat="55.854324" lon="26.084768">
<ele>154.771606</ele>
<time>2010-07-17T14:22:23Z</time>
<desc>lat.=55.854324, lon.=26.084768, Alt.=154.771606m. Speed=21.312000m/h.</desc>
<speed>5.920000</speed>
</trkpt>
<trkpt lat="55.854378" lon="26.084743">
<ele>154.377075</ele>
<time>2010-07-17T14:22:24Z</time>
<desc>lat.=55.854378, lon.=26.084743, Alt.=154.377075m. Speed=21.384001m/h.</desc>
<speed>5.940000</speed>
</trkpt>
<trkpt lat="55.854431" lon="26.084723">
<ele>154.189575</ele>
<time>2010-07-17T14:22:25Z</time>
<desc>lat.=55.854431, lon.=26.084723, Alt.=154.189575m. Speed=21.996000m/h.</desc>
<speed>6.110000</speed>
</trkpt>
<trkpt lat="55.854488" lon="26.084707">
<ele>154.295044</ele>
<time>2010-07-17T14:22:26Z</time>
<desc>lat.=55.854488, lon.=26.084707, Alt.=154.295044m. Speed=23.219999m/h.</desc>
<speed>6.450000</speed>
</trkpt>
<trkpt lat="55.854546" lon="26.084688">
<ele>154.248169</ele>
<time>2010-07-17T14:22:27Z</time>
<desc>lat.=55.854546, lon.=26.084688, Alt.=154.248169m. Speed=23.292000m/h.</desc>
<speed>6.470000</speed>
</trkpt>
<trkpt lat="55.854599" lon="26.084673">
<ele>154.170044</ele>
<time>2010-07-17T14:22:28Z</time>
<desc>lat.=55.854599, lon.=26.084673, Alt.=154.170044m. Speed=23.076000m/h.</desc>
<speed>6.410000</speed>
</trkpt>
<trkpt lat="55.854652" lon="26.084658">
<ele>154.119263</ele>
<time>2010-07-17T14:22:29Z</time>
<desc>lat.=55.854652, lon.=26.084658, Alt.=154.119263m. Speed=23.112000m/h.</desc>
<speed>6.420000</speed>
</trkpt>
<trkpt lat="55.854710" lon="26.084641">
<ele>153.869263</ele>
<time>2010-07-17T14:22:30Z</time>
<desc>lat.=55.854710, lon.=26.084641, Alt.=153.869263m. Speed=23.256001m/h.</desc>
<speed>6.460000</speed>
</trkpt>
<trkpt lat="55.854767" lon="26.084618">
<ele>153.658325</ele>
<time>2010-07-17T14:22:31Z</time>
<desc>lat.=55.854767, lon.=26.084618, Alt.=153.658325m. Speed=23.507999m/h.</desc>
<speed>6.530000</speed>
</trkpt>
<trkpt lat="55.854820" lon="26.084587">
<ele>152.502075</ele>
<time>2010-07-17T14:22:32Z</time>
<desc>lat.=55.854820, lon.=26.084587, Alt.=152.502075m. Speed=23.436001m/h.</desc>
<speed>6.510000</speed>
</trkpt>
<trkpt lat="55.854877" lon="26.084562">
<ele>151.888794</ele>
<time>2010-07-17T14:22:33Z</time>
<desc>lat.=55.854877, lon.=26.084562, Alt.=151.888794m. Speed=23.796000m/h.</desc>
<speed>6.610000</speed>
</trkpt>
<trkpt lat="55.854931" lon="26.084541">
<ele>151.349731</ele>
<time>2010-07-17T14:22:34Z</time>
<desc>lat.=55.854931, lon.=26.084541, Alt.=151.349731m. Speed=24.695999m/h.</desc>
<speed>6.860000</speed>
</trkpt>
<trkpt lat="55.854988" lon="26.084518">
<ele>150.709106</ele>
<time>2010-07-17T14:22:35Z</time>
<desc>lat.=55.854988, lon.=26.084518, Alt.=150.709106m. Speed=25.452000m/h.</desc>
<speed>7.070000</speed>
</trkpt>
<trkpt lat="55.855053" lon="26.084497">
<ele>150.349731</ele>
<time>2010-07-17T14:22:36Z</time>
<desc>lat.=55.855053, lon.=26.084497, Alt.=150.349731m. Speed=25.920000m/h.</desc>
<speed>7.200000</speed>
</trkpt>
<trkpt lat="55.855114" lon="26.084480">
<ele>150.138794</ele>
<time>2010-07-17T14:22:37Z</time>
<desc>lat.=55.855114, lon.=26.084480, Alt.=150.138794m. Speed=26.028000m/h.</desc>
<speed>7.230000</speed>
</trkpt>
<trkpt lat="55.855175" lon="26.084459">
<ele>150.166138</ele>
<time>2010-07-17T14:22:38Z</time>
<desc>lat.=55.855175, lon.=26.084459, Alt.=150.166138m. Speed=25.379999m/h.</desc>
<speed>7.050000</speed>
</trkpt>
<trkpt lat="55.855236" lon="26.084436">
<ele>150.048950</ele>
<time>2010-07-17T14:22:39Z</time>
<desc>lat.=55.855236, lon.=26.084436, Alt.=150.048950m. Speed=24.983999m/h.</desc>
<speed>6.940000</speed>
</trkpt>
<trkpt lat="55.855301" lon="26.084417">
<ele>150.150513</ele>
<time>2010-07-17T14:22:40Z</time>
<desc>lat.=55.855301, lon.=26.084417, Alt.=150.150513m. Speed=24.516001m/h.</desc>
<speed>6.810000</speed>
</trkpt>
<trkpt lat="55.855358" lon="26.084398">
<ele>150.228638</ele>
<time>2010-07-17T14:22:41Z</time>
<desc>lat.=55.855358, lon.=26.084398, Alt.=150.228638m. Speed=24.084000m/h.</desc>
<speed>6.690000</speed>
</trkpt>
<trkpt lat="55.855419" lon="26.084381">
<ele>150.130981</ele>
<time>2010-07-17T14:22:42Z</time>
<desc>lat.=55.855419, lon.=26.084381, Alt.=150.130981m. Speed=23.796000m/h.</desc>
<speed>6.610000</speed>
</trkpt>
<trkpt lat="55.855476" lon="26.084360">
<ele>149.896606</ele>
<time>2010-07-17T14:22:43Z</time>
<desc>lat.=55.855476, lon.=26.084360, Alt.=149.896606m. Speed=23.832001m/h.</desc>
<speed>6.620000</speed>
</trkpt>
<trkpt lat="55.855534" lon="26.084339">
<ele>149.689575</ele>
<time>2010-07-17T14:22:44Z</time>
<desc>lat.=55.855534, lon.=26.084339, Alt.=149.689575m. Speed=24.480000m/h.</desc>
<speed>6.800000</speed>
</trkpt>
<trkpt lat="55.855598" lon="26.084314">
<ele>149.447388</ele>
<time>2010-07-17T14:22:45Z</time>
<desc>lat.=55.855598, lon.=26.084314, Alt.=149.447388m. Speed=25.020000m/h.</desc>
<speed>6.950000</speed>
</trkpt>
<trkpt lat="55.855663" lon="26.084288">
<ele>149.291138</ele>
<time>2010-07-17T14:22:46Z</time>
<desc>lat.=55.855663, lon.=26.084288, Alt.=149.291138m. Speed=25.596001m/h.</desc>
<speed>7.110000</speed>
</trkpt>
<trkpt lat="55.855724" lon="26.084259">
<ele>149.166138</ele>
<time>2010-07-17T14:22:47Z</time>
<desc>lat.=55.855724, lon.=26.084259, Alt.=149.166138m. Speed=26.100000m/h.</desc>
<speed>7.250000</speed>
</trkpt>
<trkpt lat="55.855793" lon="26.084234">
<ele>149.021606</ele>
<time>2010-07-17T14:22:48Z</time>
<desc>lat.=55.855793, lon.=26.084234, Alt.=149.021606m. Speed=26.028000m/h.</desc>
<speed>7.230000</speed>
</trkpt>
<trkpt lat="55.855854" lon="26.084213">
<ele>149.091919</ele>
<time>2010-07-17T14:22:49Z</time>
<desc>lat.=55.855854, lon.=26.084213, Alt.=149.091919m. Speed=25.164000m/h.</desc>
<speed>6.990000</speed>
</trkpt>
<trkpt lat="55.855911" lon="26.084190">
<ele>148.877075</ele>
<time>2010-07-17T14:22:50Z</time>
<desc>lat.=55.855911, lon.=26.084190, Alt.=148.877075m. Speed=24.516001m/h.</desc>
<speed>6.810000</speed>
</trkpt>
<trkpt lat="55.855972" lon="26.084167">
<ele>148.888794</ele>
<time>2010-07-17T14:22:51Z</time>
<desc>lat.=55.855972, lon.=26.084167, Alt.=148.888794m. Speed=23.580000m/h.</desc>
<speed>6.550000</speed>
</trkpt>
<trkpt lat="55.856030" lon="26.084145">
<ele>148.584106</ele>
<time>2010-07-17T14:22:52Z</time>
<desc>lat.=55.856030, lon.=26.084145, Alt.=148.584106m. Speed=22.968000m/h.</desc>
<speed>6.380000</speed>
</trkpt>
<trkpt lat="55.856087" lon="26.084118">
<ele>148.431763</ele>
<time>2010-07-17T14:22:53Z</time>
<desc>lat.=55.856087, lon.=26.084118, Alt.=148.431763m. Speed=22.212000m/h.</desc>
<speed>6.170000</speed>
</trkpt>
<trkpt lat="55.856148" lon="26.084091">
<ele>149.502075</ele>
<time>2010-07-17T14:22:54Z</time>
<desc>lat.=55.856148, lon.=26.084091, Alt.=149.502075m. Speed=23.148001m/h.</desc>
<speed>6.430000</speed>
</trkpt>
<trkpt lat="55.856213" lon="26.084070">
<ele>150.447388</ele>
<time>2010-07-17T14:22:55Z</time>
<desc>lat.=55.856213, lon.=26.084070, Alt.=150.447388m. Speed=23.940001m/h.</desc>
<speed>6.650000</speed>
</trkpt>
<trkpt lat="55.856270" lon="26.084053">
<ele>150.291138</ele>
<time>2010-07-17T14:22:56Z</time>
<desc>lat.=55.856270, lon.=26.084053, Alt.=150.291138m. Speed=24.299999m/h.</desc>
<speed>6.750000</speed>
</trkpt>
<trkpt lat="55.856327" lon="26.084038">
<ele>149.939575</ele>
<time>2010-07-17T14:22:57Z</time>
<desc>lat.=55.856327, lon.=26.084038, Alt.=149.939575m. Speed=24.516001m/h.</desc>
<speed>6.810000</speed>
</trkpt>
<trkpt lat="55.856384" lon="26.084013">
<ele>149.677856</ele>
<time>2010-07-17T14:22:58Z</time>
<desc>lat.=55.856384, lon.=26.084013, Alt.=149.677856m. Speed=23.940001m/h.</desc>
<speed>6.650000</speed>
</trkpt>
<trkpt lat="55.856434" lon="26.083988">
<ele>148.927856</ele>
<time>2010-07-17T14:22:59Z</time>
<desc>lat.=55.856434, lon.=26.083988, Alt.=148.927856m. Speed=19.656000m/h.</desc>
<speed>5.460000</speed>
</trkpt>
<trkpt lat="55.856476" lon="26.083961">
<ele>148.666138</ele>
<time>2010-07-17T14:23:00Z</time>
<desc>lat.=55.856476, lon.=26.083961, Alt.=148.666138m. Speed=15.840000m/h.</desc>
<speed>4.400000</speed>
</trkpt>
<trkpt lat="55.856506" lon="26.083948">
<ele>148.451294</ele>
<time>2010-07-17T14:23:01Z</time>
<desc>lat.=55.856506, lon.=26.083948, Alt.=148.451294m. Speed=11.700000m/h.</desc>
<speed>3.250000</speed>
</trkpt>
<trkpt lat="55.856525" lon="26.083941">
<ele>147.943481</ele>
<time>2010-07-17T14:23:02Z</time>
<desc>lat.=55.856525, lon.=26.083941, Alt.=147.943481m. Speed=6.696000m/h.</desc>
<speed>1.860000</speed>
</trkpt>
<trkpt lat="55.856537" lon="26.083937">
<ele>147.865356</ele>
<time>2010-07-17T14:23:03Z</time>
<desc>lat.=55.856537, lon.=26.083937, Alt.=147.865356m. Speed=0.504000m/h.</desc>
<speed>0.140000</speed>
</trkpt>
<trkpt lat="55.856537" lon="26.083941">
<ele>147.814575</ele>
<time>2010-07-17T14:23:04Z</time>
<desc>lat.=55.856537, lon.=26.083941, Alt.=147.814575m. Speed=0.144000m/h.</desc>
<speed>0.040000</speed>
</trkpt>
<trkpt lat="55.856533" lon="26.083941">
<ele>147.658325</ele>
<time>2010-07-17T14:23:05Z</time>
<desc>lat.=55.856533, lon.=26.083941, Alt.=147.658325m. Speed=0.000000m/h.</desc>
<speed>0.000000</speed>
</trkpt>
<trkpt lat="55.856533" lon="26.083942">
<ele>147.599731</ele>
<time>2010-07-17T14:23:06Z</time>
<desc>lat.=55.856533, lon.=26.083942, Alt.=147.599731m. Speed=0.108000m/h.</desc>
<speed>0.030000</speed>
</trkpt>
<trkpt lat="55.856533" lon="26.083942">
<ele>147.588013</ele>
<time>2010-07-17T14:23:07Z</time>
<desc>lat.=55.856533, lon.=26.083942, Alt.=147.588013m. Speed=0.000000m/h.</desc>
<speed>0.000000</speed>
</trkpt>
<trkpt lat="55.856533" lon="26.083942">
<ele>147.584106</ele>
<time>2010-07-17T14:23:08Z</time>
<desc>lat.=55.856533, lon.=26.083942, Alt.=147.584106m. Speed=0.036000m/h.</desc>
<speed>0.010000</speed>
</trkpt>
<trkpt lat="55.856533" lon="26.083942">
<ele>147.580200</ele>
<time>2010-07-17T14:23:09Z</time>
<desc>lat.=55.856533, lon.=26.083942, Alt.=147.580200m. Speed=0.036000m/h.</desc>
<speed>0.010000</speed>
</trkpt>
<trkpt lat="55.856533" lon="26.083942">
<ele>147.576294</ele>
<time>2010-07-17T14:23:10Z</time>
<desc>lat.=55.856533, lon.=26.083942, Alt.=147.576294m. Speed=0.000000m/h.</desc>
<speed>0.000000</speed>
</trkpt>
<trkpt lat="55.856533" lon="26.083942">
<ele>147.572388</ele>
<time>2010-07-17T14:23:11Z</time>
<desc>lat.=55.856533, lon.=26.083942, Alt.=147.572388m. Speed=0.000000m/h.</desc>
<speed>0.000000</speed>
</trkpt>
<trkpt lat="55.856533" lon="26.083942">
<ele>147.560669</ele>
<time>2010-07-17T14:23:12Z</time>
<desc>lat.=55.856533, lon.=26.083942, Alt.=147.560669m. Speed=0.036000m/h.</desc>
<speed>0.010000</speed>
</trkpt>
<trkpt lat="55.856533" lon="26.083942">
<ele>147.548950</ele>
<time>2010-07-17T14:23:13Z</time>
<desc>lat.=55.856533, lon.=26.083942, Alt.=147.548950m. Speed=0.000000m/h.</desc>
<speed>0.000000</speed>
</trkpt>
<trkpt lat="55.856533" lon="26.083942">
<ele>147.537231</ele>
<time>2010-07-17T14:23:14Z</time>
<desc>lat.=55.856533, lon.=26.083942, Alt.=147.537231m. Speed=0.000000m/h.</desc>
<speed>0.000000</speed>
</trkpt>
<trkpt lat="55.856533" lon="26.083942">
<ele>147.525513</ele>
<time>2010-07-17T14:23:15Z</time>
<desc>lat.=55.856533, lon.=26.083942, Alt.=147.525513m. Speed=0.036000m/h.</desc>
<speed>0.010000</speed>
</trkpt>
<trkpt lat="55.856533" lon="26.083942">
<ele>147.517700</ele>
<time>2010-07-17T14:23:16Z</time>
<desc>lat.=55.856533, lon.=26.083942, Alt.=147.517700m. Speed=0.036000m/h.</desc>
<speed>0.010000</speed>
</trkpt>
<trkpt lat="55.856533" lon="26.083942">
<ele>147.517700</ele>
<time>2010-07-17T14:23:17Z</time>
<desc>lat.=55.856533, lon.=26.083942, Alt.=147.517700m. Speed=0.036000m/h.</desc>
<speed>0.010000</speed>
</trkpt>
<trkpt lat="55.856533" lon="26.083942">
<ele>147.509888</ele>
<time>2010-07-17T14:23:18Z</time>
<desc>lat.=55.856533, lon.=26.083942, Alt.=147.509888m. Speed=0.036000m/h.</desc>
<speed>0.010000</speed>
</trkpt>
<trkpt lat="55.856533" lon="26.083942">
<ele>147.529419</ele>
<time>2010-07-17T14:23:19Z</time>
<desc>lat.=55.856533, lon.=26.083942, Alt.=147.529419m. Speed=0.072000m/h.</desc>
<speed>0.020000</speed>
</trkpt>
<trkpt lat="55.856533" lon="26.083942">
<ele>147.548950</ele>
<time>2010-07-17T14:23:20Z</time>
<desc>lat.=55.856533, lon.=26.083942, Alt.=147.548950m. Speed=0.180000m/h.</desc>
<speed>0.050000</speed>
</trkpt>
<trkpt lat="55.856533" lon="26.083942">
<ele>147.552856</ele>
<time>2010-07-17T14:23:21Z</time>
<desc>lat.=55.856533, lon.=26.083942, Alt.=147.552856m. Speed=0.108000m/h.</desc>
<speed>0.030000</speed>
</trkpt>
<trkpt lat="55.856533" lon="26.083941">
<ele>147.564575</ele>
<time>2010-07-17T14:23:22Z</time>
<desc>lat.=55.856533, lon.=26.083941, Alt.=147.564575m. Speed=0.072000m/h.</desc>
<speed>0.020000</speed>
</trkpt>
<trkpt lat="55.856533" lon="26.083942">
<ele>147.576294</ele>
<time>2010-07-17T14:23:23Z</time>
<desc>lat.=55.856533, lon.=26.083942, Alt.=147.576294m. Speed=0.252000m/h.</desc>
<speed>0.070000</speed>
</trkpt>
<trkpt lat="55.856533" lon="26.083942">
<ele>147.580200</ele>
<time>2010-07-17T14:23:24Z</time>
<desc>lat.=55.856533, lon.=26.083942, Alt.=147.580200m. Speed=0.288000m/h.</desc>
<speed>0.080000</speed>
</trkpt>
<trkpt lat="55.856533" lon="26.083942">
<ele>147.580200</ele>
<time>2010-07-17T14:23:25Z</time>
<desc>lat.=55.856533, lon.=26.083942, Alt.=147.580200m. Speed=0.396000m/h.</desc>
<speed>0.110000</speed>
</trkpt>
<trkpt lat="55.856533" lon="26.083942">
<ele>147.572388</ele>
<time>2010-07-17T14:23:26Z</time>
<desc>lat.=55.856533, lon.=26.083942, Alt.=147.572388m. Speed=1.152000m/h.</desc>
<speed>0.320000</speed>
</trkpt>
<trkpt lat="55.856533" lon="26.083946">
<ele>147.564575</ele>
<time>2010-07-17T14:23:27Z</time>
<desc>lat.=55.856533, lon.=26.083946, Alt.=147.564575m. Speed=1.332000m/h.</desc>
<speed>0.370000</speed>
</trkpt>
<trkpt lat="55.856533" lon="26.083954">
<ele>147.560669</ele>
<time>2010-07-17T14:23:28Z</time>
<desc>lat.=55.856533, lon.=26.083954, Alt.=147.560669m. Speed=2.124000m/h.</desc>
<speed>0.590000</speed>
</trkpt>
<trkpt lat="55.856529" lon="26.083960">
<ele>147.552856</ele>
<time>2010-07-17T14:23:29Z</time>
<desc>lat.=55.856529, lon.=26.083960, Alt.=147.552856m. Speed=2.268000m/h.</desc>
<speed>0.630000</speed>
</trkpt>
<trkpt lat="55.856522" lon="26.083960">
<ele>147.548950</ele>
<time>2010-07-17T14:23:30Z</time>
<desc>lat.=55.856522, lon.=26.083960, Alt.=147.548950m. Speed=2.484000m/h.</desc>
<speed>0.690000</speed>
</trkpt>
<trkpt lat="55.856518" lon="26.083961">
<ele>147.545044</ele>
<time>2010-07-17T14:23:31Z</time>
<desc>lat.=55.856518, lon.=26.083961, Alt.=147.545044m. Speed=2.592000m/h.</desc>
<speed>0.720000</speed>
</trkpt>
<trkpt lat="55.856510" lon="26.083960">
<ele>147.541138</ele>
<time>2010-07-17T14:23:32Z</time>
<desc>lat.=55.856510, lon.=26.083960, Alt.=147.541138m. Speed=2.808000m/h.</desc>
<speed>0.780000</speed>
</trkpt>
<trkpt lat="55.856503" lon="26.083958">
<ele>147.537231</ele>
<time>2010-07-17T14:23:33Z</time>
<desc>lat.=55.856503, lon.=26.083958, Alt.=147.537231m. Speed=3.996000m/h.</desc>
<speed>1.110000</speed>
</trkpt>
<trkpt lat="55.856483" lon="26.083954">
<ele>147.572388</ele>
<time>2010-07-17T14:23:34Z</time>
<desc>lat.=55.856483, lon.=26.083954, Alt.=147.572388m. Speed=5.184000m/h.</desc>
<speed>1.440000</speed>
</trkpt>
<trkpt lat="55.856461" lon="26.083950">
<ele>147.408325</ele>
<time>2010-07-17T14:23:35Z</time>
<desc>lat.=55.856461, lon.=26.083950, Alt.=147.408325m. Speed=7.092000m/h.</desc>
<speed>1.970000</speed>
</trkpt>
<trkpt lat="55.856441" lon="26.083954">
<ele>147.338013</ele>
<time>2010-07-17T14:23:36Z</time>
<desc>lat.=55.856441, lon.=26.083954, Alt.=147.338013m. Speed=8.388000m/h.</desc>
<speed>2.330000</speed>
</trkpt>
<trkpt lat="55.856419" lon="26.083950">
<ele>147.341919</ele>
<time>2010-07-17T14:23:37Z</time>
<desc>lat.=55.856419, lon.=26.083950, Alt.=147.341919m. Speed=8.604000m/h.</desc>
<speed>2.390000</speed>
</trkpt>
<trkpt lat="55.856392" lon="26.083946">
<ele>147.377075</ele>
<time>2010-07-17T14:23:38Z</time>
<desc>lat.=55.856392, lon.=26.083946, Alt.=147.377075m. Speed=9.504000m/h.</desc>
<speed>2.640000</speed>
</trkpt>
<trkpt lat="55.856365" lon="26.083948">
<ele>147.373169</ele>
<time>2010-07-17T14:23:39Z</time>
<desc>lat.=55.856365, lon.=26.083948, Alt.=147.373169m. Speed=8.244000m/h.</desc>
<speed>2.290000</speed>
</trkpt>
<trkpt lat="55.856346" lon="26.083950">
<ele>147.365356</ele>
<time>2010-07-17T14:23:40Z</time>
<desc>lat.=55.856346, lon.=26.083950, Alt.=147.365356m. Speed=7.596000m/h.</desc>
<speed>2.110000</speed>
</trkpt>
<trkpt lat="55.856327" lon="26.083954">
<ele>147.392700</ele>
<time>2010-07-17T14:23:41Z</time>
<desc>lat.=55.856327, lon.=26.083954, Alt.=147.392700m. Speed=6.660000m/h.</desc>
<speed>1.850000</speed>
</trkpt>
<trkpt lat="55.856304" lon="26.083956">
<ele>147.435669</ele>
<time>2010-07-17T14:23:42Z</time>
<desc>lat.=55.856304, lon.=26.083956, Alt.=147.435669m. Speed=7.848000m/h.</desc>
<speed>2.180000</speed>
</trkpt>
<trkpt lat="55.856285" lon="26.083961">
<ele>147.423950</ele>
<time>2010-07-17T14:23:43Z</time>
<desc>lat.=55.856285, lon.=26.083961, Alt.=147.423950m. Speed=7.632000m/h.</desc>
<speed>2.120000</speed>
</trkpt>
<trkpt lat="55.856262" lon="26.083956">
<ele>147.486450</ele>
<time>2010-07-17T14:23:44Z</time>
<desc>lat.=55.856262, lon.=26.083956, Alt.=147.486450m. Speed=7.200000m/h.</desc>
<speed>2.000000</speed>
</trkpt>
<trkpt lat="55.856239" lon="26.083960">
<ele>147.584106</ele>
<time>2010-07-17T14:23:45Z</time>
<desc>lat.=55.856239, lon.=26.083960, Alt.=147.584106m. Speed=8.064000m/h.</desc>
<speed>2.240000</speed>
</trkpt>
<trkpt lat="55.856209" lon="26.083969">
<ele>147.748169</ele>
<time>2010-07-17T14:23:46Z</time>
<desc>lat.=55.856209, lon.=26.083969, Alt.=147.748169m. Speed=8.316000m/h.</desc>
<speed>2.310000</speed>
</trkpt>
<trkpt lat="55.856186" lon="26.083979">
<ele>147.834106</ele>
<time>2010-07-17T14:23:47Z</time>
<desc>lat.=55.856186, lon.=26.083979, Alt.=147.834106m. Speed=8.280000m/h.</desc>
<speed>2.300000</speed>
</trkpt>
<trkpt lat="55.856159" lon="26.083992">
<ele>147.998169</ele>
<time>2010-07-17T14:23:48Z</time>
<desc>lat.=55.856159, lon.=26.083992, Alt.=147.998169m. Speed=9.684000m/h.</desc>
<speed>2.690000</speed>
</trkpt>
<trkpt lat="55.856136" lon="26.084003">
<ele>148.068481</ele>
<time>2010-07-17T14:23:49Z</time>
<desc>lat.=55.856136, lon.=26.084003, Alt.=148.068481m. Speed=8.892000m/h.</desc>
<speed>2.470000</speed>
</trkpt>
<trkpt lat="55.856110" lon="26.084011">
<ele>148.123169</ele>
<time>2010-07-17T14:23:50Z</time>
<desc>lat.=55.856110, lon.=26.084011, Alt.=148.123169m. Speed=10.476000m/h.</desc>
<speed>2.910000</speed>
</trkpt>
<trkpt lat="55.856083" lon="26.084026">
<ele>148.302856</ele>
<time>2010-07-17T14:23:51Z</time>
<desc>lat.=55.856083, lon.=26.084026, Alt.=148.302856m. Speed=10.440000m/h.</desc>
<speed>2.900000</speed>
</trkpt>
<trkpt lat="55.856045" lon="26.084042">
<ele>148.185669</ele>
<time>2010-07-17T14:23:52Z</time>
<desc>lat.=55.856045, lon.=26.084042, Alt.=148.185669m. Speed=11.124000m/h.</desc>
<speed>3.090000</speed>
</trkpt>
<trkpt lat="55.856014" lon="26.084053">
<ele>148.298950</ele>
<time>2010-07-17T14:23:53Z</time>
<desc>lat.=55.856014, lon.=26.084053, Alt.=148.298950m. Speed=11.268000m/h.</desc>
<speed>3.130000</speed>
</trkpt>
<trkpt lat="55.855984" lon="26.084068">
<ele>148.267700</ele>
<time>2010-07-17T14:23:54Z</time>
<desc>lat.=55.855984, lon.=26.084068, Alt.=148.267700m. Speed=13.284000m/h.</desc>
<speed>3.690000</speed>
</trkpt>
<trkpt lat="55.855946" lon="26.084084">
<ele>148.330200</ele>
<time>2010-07-17T14:23:55Z</time>
<desc>lat.=55.855946, lon.=26.084084, Alt.=148.330200m. Speed=15.048000m/h.</desc>
<speed>4.180000</speed>
</trkpt>
<trkpt lat="55.855904" lon="26.084095">
<ele>148.209106</ele>
<time>2010-07-17T14:23:56Z</time>
<desc>lat.=55.855904, lon.=26.084095, Alt.=148.209106m. Speed=15.948000m/h.</desc>
<speed>4.430000</speed>
</trkpt>
<trkpt lat="55.855858" lon="26.084106">
<ele>148.216919</ele>
<time>2010-07-17T14:23:57Z</time>
<desc>lat.=55.855858, lon.=26.084106, Alt.=148.216919m. Speed=18.612000m/h.</desc>
<speed>5.170000</speed>
</trkpt>
<trkpt lat="55.855804" lon="26.084122">
<ele>148.173950</ele>
<time>2010-07-17T14:23:58Z</time>
<desc>lat.=55.855804, lon.=26.084122, Alt.=148.173950m. Speed=21.167999m/h.</desc>
<speed>5.880000</speed>
</trkpt>
<trkpt lat="55.855743" lon="26.084145">
<ele>148.255981</ele>
<time>2010-07-17T14:23:59Z</time>
<desc>lat.=55.855743, lon.=26.084145, Alt.=148.255981m. Speed=22.535999m/h.</desc>
<speed>6.260000</speed>
</trkpt>
<trkpt lat="55.855690" lon="26.084164">
<ele>148.334106</ele>
<time>2010-07-17T14:24:00Z</time>
<desc>lat.=55.855690, lon.=26.084164, Alt.=148.334106m. Speed=21.851999m/h.</desc>
<speed>6.070000</speed>
</trkpt>
<trkpt lat="55.855637" lon="26.084185">
<ele>148.306763</ele>
<time>2010-07-17T14:24:01Z</time>
<desc>lat.=55.855637, lon.=26.084185, Alt.=148.306763m. Speed=21.563999m/h.</desc>
<speed>5.990000</speed>
</trkpt>
<trkpt lat="55.855583" lon="26.084206">
<ele>148.185669</ele>
<time>2010-07-17T14:24:02Z</time>
<desc>lat.=55.855583, lon.=26.084206, Alt.=148.185669m. Speed=21.455999m/h.</desc>
<speed>5.960000</speed>
</trkpt>
<trkpt lat="55.855522" lon="26.084223">
<ele>148.115356</ele>
<time>2010-07-17T14:24:03Z</time>
<desc>lat.=55.855522, lon.=26.084223, Alt.=148.115356m. Speed=21.996000m/h.</desc>
<speed>6.110000</speed>
</trkpt>
<trkpt lat="55.855461" lon="26.084246">
<ele>147.963013</ele>
<time>2010-07-17T14:24:04Z</time>
<desc>lat.=55.855461, lon.=26.084246, Alt.=147.963013m. Speed=22.427999m/h.</desc>
<speed>6.230000</speed>
</trkpt>
<trkpt lat="55.855412" lon="26.084272">
<ele>148.002075</ele>
<time>2010-07-17T14:24:05Z</time>
<desc>lat.=55.855412, lon.=26.084272, Alt.=148.002075m. Speed=21.600000m/h.</desc>
<speed>6.000000</speed>
</trkpt>
<trkpt lat="55.855358" lon="26.084297">
<ele>147.955200</ele>
<time>2010-07-17T14:24:06Z</time>
<desc>lat.=55.855358, lon.=26.084297, Alt.=147.955200m. Speed=20.844000m/h.</desc>
<speed>5.790000</speed>
</trkpt>
<trkpt lat="55.855305" lon="26.084320">
<ele>147.955200</ele>
<time>2010-07-17T14:24:07Z</time>
<desc>lat.=55.855305, lon.=26.084320, Alt.=147.955200m. Speed=20.844000m/h.</desc>
<speed>5.790000</speed>
</trkpt>
<trkpt lat="55.855251" lon="26.084341">
<ele>148.033325</ele>
<time>2010-07-17T14:24:08Z</time>
<desc>lat.=55.855251, lon.=26.084341, Alt.=148.033325m. Speed=20.124001m/h.</desc>
<speed>5.590000</speed>
</trkpt>
<trkpt lat="55.855198" lon="26.084360">
<ele>148.041138</ele>
<time>2010-07-17T14:24:09Z</time>
<desc>lat.=55.855198, lon.=26.084360, Alt.=148.041138m. Speed=20.340000m/h.</desc>
<speed>5.650000</speed>
</trkpt>
<trkpt lat="55.855145" lon="26.084370">
<ele>147.959106</ele>
<time>2010-07-17T14:24:10Z</time>
<desc>lat.=55.855145, lon.=26.084370, Alt.=147.959106m. Speed=20.988001m/h.</desc>
<speed>5.830000</speed>
</trkpt>
<trkpt lat="55.855091" lon="26.084381">
<ele>147.904419</ele>
<time>2010-07-17T14:24:11Z</time>
<desc>lat.=55.855091, lon.=26.084381, Alt.=147.904419m. Speed=22.104000m/h.</desc>
<speed>6.140000</speed>
</trkpt>
<trkpt lat="55.855034" lon="26.084394">
<ele>148.033325</ele>
<time>2010-07-17T14:24:12Z</time>
<desc>lat.=55.855034, lon.=26.084394, Alt.=148.033325m. Speed=21.924000m/h.</desc>
<speed>6.090000</speed>
</trkpt>
<trkpt lat="55.854980" lon="26.084417">
<ele>148.056763</ele>
<time>2010-07-17T14:24:13Z</time>
<desc>lat.=55.854980, lon.=26.084417, Alt.=148.056763m. Speed=22.356001m/h.</desc>
<speed>6.210000</speed>
</trkpt>
<trkpt lat="55.854919" lon="26.084444">
<ele>148.166138</ele>
<time>2010-07-17T14:24:14Z</time>
<desc>lat.=55.854919, lon.=26.084444, Alt.=148.166138m. Speed=25.344000m/h.</desc>
<speed>7.040000</speed>
</trkpt>
<trkpt lat="55.854862" lon="26.084463">
<ele>148.240356</ele>
<time>2010-07-17T14:24:15Z</time>
<desc>lat.=55.854862, lon.=26.084463, Alt.=148.240356m. Speed=23.724001m/h.</desc>
<speed>6.590000</speed>
</trkpt>
<trkpt lat="55.854805" lon="26.084490">
<ele>148.291138</ele>
<time>2010-07-17T14:24:16Z</time>
<desc>lat.=55.854805, lon.=26.084490, Alt.=148.291138m. Speed=22.752001m/h.</desc>
<speed>6.320000</speed>
</trkpt>
<trkpt lat="55.854748" lon="26.084518">
<ele>148.334106</ele>
<time>2010-07-17T14:24:17Z</time>
<desc>lat.=55.854748, lon.=26.084518, Alt.=148.334106m. Speed=22.752001m/h.</desc>
<speed>6.320000</speed>
</trkpt>
<trkpt lat="55.854694" lon="26.084541">
<ele>148.396606</ele>
<time>2010-07-17T14:24:18Z</time>
<desc>lat.=55.854694, lon.=26.084541, Alt.=148.396606m. Speed=22.176001m/h.</desc>
<speed>6.160000</speed>
</trkpt>
<trkpt lat="55.854641" lon="26.084558">
<ele>148.416138</ele>
<time>2010-07-17T14:24:19Z</time>
<desc>lat.=55.854641, lon.=26.084558, Alt.=148.416138m. Speed=20.808001m/h.</desc>
<speed>5.780000</speed>
</trkpt>
<trkpt lat="55.854591" lon="26.084574">
<ele>148.517700</ele>
<time>2010-07-17T14:24:20Z</time>
<desc>lat.=55.854591, lon.=26.084574, Alt.=148.517700m. Speed=20.448000m/h.</desc>
<speed>5.680000</speed>
</trkpt>
<trkpt lat="55.854542" lon="26.084587">
<ele>148.662231</ele>
<time>2010-07-17T14:24:21Z</time>
<desc>lat.=55.854542, lon.=26.084587, Alt.=148.662231m. Speed=20.520000m/h.</desc>
<speed>5.700000</speed>
</trkpt>
<trkpt lat="55.854496" lon="26.084600">
<ele>148.732544</ele>
<time>2010-07-17T14:24:22Z</time>
<desc>lat.=55.854496, lon.=26.084600, Alt.=148.732544m. Speed=19.403999m/h.</desc>
<speed>5.390000</speed>
</trkpt>
<trkpt lat="55.854450" lon="26.084623">
<ele>149.091919</ele>
<time>2010-07-17T14:24:23Z</time>
<desc>lat.=55.854450, lon.=26.084623, Alt.=149.091919m. Speed=19.260000m/h.</desc>
<speed>5.350000</speed>
</trkpt>
<trkpt lat="55.854401" lon="26.084648">
<ele>149.595825</ele>
<time>2010-07-17T14:24:24Z</time>
<desc>lat.=55.854401, lon.=26.084648, Alt.=149.595825m. Speed=20.952000m/h.</desc>
<speed>5.820000</speed>
</trkpt>
<trkpt lat="55.854347" lon="26.084663">
<ele>149.584106</ele>
<time>2010-07-17T14:24:25Z</time>
<desc>lat.=55.854347, lon.=26.084663, Alt.=149.584106m. Speed=21.312000m/h.</desc>
<speed>5.920000</speed>
</trkpt>
<trkpt lat="55.854294" lon="26.084682">
<ele>149.720825</ele>
<time>2010-07-17T14:24:26Z</time>
<desc>lat.=55.854294, lon.=26.084682, Alt.=149.720825m. Speed=21.420000m/h.</desc>
<speed>5.950000</speed>
</trkpt>
<trkpt lat="55.854244" lon="26.084702">
<ele>149.787231</ele>
<time>2010-07-17T14:24:27Z</time>
<desc>lat.=55.854244, lon.=26.084702, Alt.=149.787231m. Speed=21.204000m/h.</desc>
<speed>5.890000</speed>
</trkpt>
<trkpt lat="55.854191" lon="26.084721">
<ele>149.947388</ele>
<time>2010-07-17T14:24:28Z</time>
<desc>lat.=55.854191, lon.=26.084721, Alt.=149.947388m. Speed=20.844000m/h.</desc>
<speed>5.790000</speed>
</trkpt>
<trkpt lat="55.854145" lon="26.084738">
<ele>149.986450</ele>
<time>2010-07-17T14:24:29Z</time>
<desc>lat.=55.854145, lon.=26.084738, Alt.=149.986450m. Speed=19.944000m/h.</desc>
<speed>5.540000</speed>
</trkpt>
<trkpt lat="55.854099" lon="26.084753">
<ele>150.021606</ele>
<time>2010-07-17T14:24:30Z</time>
<desc>lat.=55.854099, lon.=26.084753, Alt.=150.021606m. Speed=19.368000m/h.</desc>
<speed>5.380000</speed>
</trkpt>
<trkpt lat="55.854053" lon="26.084766">
<ele>150.076294</ele>
<time>2010-07-17T14:24:31Z</time>
<desc>lat.=55.854053, lon.=26.084766, Alt.=150.076294m. Speed=19.115999m/h.</desc>
<speed>5.310000</speed>
</trkpt>
<trkpt lat="55.854008" lon="26.084784">
<ele>150.220825</ele>
<time>2010-07-17T14:24:32Z</time>
<desc>lat.=55.854008, lon.=26.084784, Alt.=150.220825m. Speed=18.864000m/h.</desc>
<speed>5.240000</speed>
</trkpt>
<trkpt lat="55.853966" lon="26.084795">
<ele>150.443481</ele>
<time>2010-07-17T14:24:33Z</time>
<desc>lat.=55.853966, lon.=26.084795, Alt.=150.443481m. Speed=18.396000m/h.</desc>
<speed>5.110000</speed>
</trkpt>
<trkpt lat="55.853924" lon="26.084810">
<ele>150.576294</ele>
<time>2010-07-17T14:24:34Z</time>
<desc>lat.=55.853924, lon.=26.084810, Alt.=150.576294m. Speed=18.756001m/h.</desc>
<speed>5.210000</speed>
</trkpt>
<trkpt lat="55.853874" lon="26.084829">
<ele>150.916138</ele>
<time>2010-07-17T14:24:35Z</time>
<desc>lat.=55.853874, lon.=26.084829, Alt.=150.916138m. Speed=20.412001m/h.</desc>
<speed>5.670000</speed>
</trkpt>
<trkpt lat="55.853817" lon="26.084846">
<ele>150.982544</ele>
<time>2010-07-17T14:24:36Z</time>
<desc>lat.=55.853817, lon.=26.084846, Alt.=150.982544m. Speed=21.924000m/h.</desc>
<speed>6.090000</speed>
</trkpt>
<trkpt lat="55.853756" lon="26.084862">
<ele>150.783325</ele>
<time>2010-07-17T14:24:37Z</time>
<desc>lat.=55.853756, lon.=26.084862, Alt.=150.783325m. Speed=23.507999m/h.</desc>
<speed>6.530000</speed>
</trkpt>
<trkpt lat="55.853695" lon="26.084879">
<ele>150.900513</ele>
<time>2010-07-17T14:24:38Z</time>
<desc>lat.=55.853695, lon.=26.084879, Alt.=150.900513m. Speed=24.228001m/h.</desc>
<speed>6.730000</speed>
</trkpt>
<trkpt lat="55.853634" lon="26.084900">
<ele>150.927856</ele>
<time>2010-07-17T14:24:39Z</time>
<desc>lat.=55.853634, lon.=26.084900, Alt.=150.927856m. Speed=24.408001m/h.</desc>
<speed>6.780000</speed>
</trkpt>
<trkpt lat="55.853573" lon="26.084917">
<ele>151.248169</ele>
<time>2010-07-17T14:24:40Z</time>
<desc>lat.=55.853573, lon.=26.084917, Alt.=151.248169m. Speed=24.264000m/h.</desc>
<speed>6.740000</speed>
</trkpt>
<trkpt lat="55.853516" lon="26.084930">
<ele>151.654419</ele>
<time>2010-07-17T14:24:41Z</time>
<desc>lat.=55.853516, lon.=26.084930, Alt.=151.654419m. Speed=25.344000m/h.</desc>
<speed>7.040000</speed>
</trkpt>
<trkpt lat="55.853455" lon="26.084946">
<ele>151.529419</ele>
<time>2010-07-17T14:24:42Z</time>
<desc>lat.=55.853455, lon.=26.084946, Alt.=151.529419m. Speed=25.236000m/h.</desc>
<speed>7.010000</speed>
</trkpt>
<trkpt lat="55.853394" lon="26.084963">
<ele>151.420044</ele>
<time>2010-07-17T14:24:43Z</time>
<desc>lat.=55.853394, lon.=26.084963, Alt.=151.420044m. Speed=24.912001m/h.</desc>
<speed>6.920000</speed>
</trkpt>
<trkpt lat="55.853333" lon="26.084980">
<ele>151.459106</ele>
<time>2010-07-17T14:24:44Z</time>
<desc>lat.=55.853333, lon.=26.084980, Alt.=151.459106m. Speed=24.695999m/h.</desc>
<speed>6.860000</speed>
</trkpt>
<trkpt lat="55.853268" lon="26.084997">
<ele>151.263794</ele>
<time>2010-07-17T14:24:45Z</time>
<desc>lat.=55.853268, lon.=26.084997, Alt.=151.263794m. Speed=24.804001m/h.</desc>
<speed>6.890000</speed>
</trkpt>
<trkpt lat="55.853207" lon="26.085014">
<ele>151.173950</ele>
<time>2010-07-17T14:24:46Z</time>
<desc>lat.=55.853207, lon.=26.085014, Alt.=151.173950m. Speed=24.768000m/h.</desc>
<speed>6.880000</speed>
</trkpt>
<trkpt lat="55.853146" lon="26.085033">
<ele>151.162231</ele>
<time>2010-07-17T14:24:47Z</time>
<desc>lat.=55.853146, lon.=26.085033, Alt.=151.162231m. Speed=24.444000m/h.</desc>
<speed>6.790000</speed>
</trkpt>
<trkpt lat="55.853088" lon="26.085051">
<ele>151.162231</ele>
<time>2010-07-17T14:24:48Z</time>
<desc>lat.=55.853088, lon.=26.085051, Alt.=151.162231m. Speed=24.804001m/h.</desc>
<speed>6.890000</speed>
</trkpt>
<trkpt lat="55.853020" lon="26.085073">
<ele>151.185669</ele>
<time>2010-07-17T14:24:49Z</time>
<desc>lat.=55.853020, lon.=26.085073, Alt.=151.185669m. Speed=25.524000m/h.</desc>
<speed>7.090000</speed>
</trkpt>
<trkpt lat="55.852959" lon="26.085091">
<ele>151.052856</ele>
<time>2010-07-17T14:24:50Z</time>
<desc>lat.=55.852959, lon.=26.085091, Alt.=151.052856m. Speed=25.271999m/h.</desc>
<speed>7.020000</speed>
</trkpt>
<trkpt lat="55.852894" lon="26.085110">
<ele>151.068481</ele>
<time>2010-07-17T14:24:51Z</time>
<desc>lat.=55.852894, lon.=26.085110, Alt.=151.068481m. Speed=25.056000m/h.</desc>
<speed>6.960000</speed>
</trkpt>
<trkpt lat="55.852829" lon="26.085133">
<ele>151.228638</ele>
<time>2010-07-17T14:24:52Z</time>
<desc>lat.=55.852829, lon.=26.085133, Alt.=151.228638m. Speed=26.712000m/h.</desc>
<speed>7.420000</speed>
</trkpt>
<trkpt lat="55.852768" lon="26.085161">
<ele>151.463013</ele>
<time>2010-07-17T14:24:53Z</time>
<desc>lat.=55.852768, lon.=26.085161, Alt.=151.463013m. Speed=24.587999m/h.</desc>
<speed>6.830000</speed>
</trkpt>
<trkpt lat="55.852711" lon="26.085175">
<ele>151.798950</ele>
<time>2010-07-17T14:24:54Z</time>
<desc>lat.=55.852711, lon.=26.085175, Alt.=151.798950m. Speed=26.243999m/h.</desc>
<speed>7.290000</speed>
</trkpt>
<trkpt lat="55.852646" lon="26.085192">
<ele>152.517700</ele>
<time>2010-07-17T14:24:55Z</time>
<desc>lat.=55.852646, lon.=26.085192, Alt.=152.517700m. Speed=26.424000m/h.</desc>
<speed>7.340000</speed>
</trkpt>
<trkpt lat="55.852581" lon="26.085215">
<ele>152.912231</ele>
<time>2010-07-17T14:24:56Z</time>
<desc>lat.=55.852581, lon.=26.085215, Alt.=152.912231m. Speed=25.632000m/h.</desc>
<speed>7.120000</speed>
</trkpt>
<trkpt lat="55.852516" lon="26.085224">
<ele>153.857544</ele>
<time>2010-07-17T14:24:57Z</time>
<desc>lat.=55.852516, lon.=26.085224, Alt.=153.857544m. Speed=25.920000m/h.</desc>
<speed>7.200000</speed>
</trkpt>
<trkpt lat="55.852448" lon="26.085249">
<ele>154.775513</ele>
<time>2010-07-17T14:24:58Z</time>
<desc>lat.=55.852448, lon.=26.085249, Alt.=154.775513m. Speed=26.604000m/h.</desc>
<speed>7.390000</speed>
</trkpt>
<trkpt lat="55.852379" lon="26.085278">
<ele>155.283325</ele>
<time>2010-07-17T14:24:59Z</time>
<desc>lat.=55.852379, lon.=26.085278, Alt.=155.283325m. Speed=26.532000m/h.</desc>
<speed>7.370000</speed>
</trkpt>
<trkpt lat="55.852314" lon="26.085306">
<ele>154.888794</ele>
<time>2010-07-17T14:25:00Z</time>
<desc>lat.=55.852314, lon.=26.085306, Alt.=154.888794m. Speed=27.431999m/h.</desc>
<speed>7.620000</speed>
</trkpt>
<trkpt lat="55.852245" lon="26.085337">
<ele>154.330200</ele>
<time>2010-07-17T14:25:01Z</time>
<desc>lat.=55.852245, lon.=26.085337, Alt.=154.330200m. Speed=28.007999m/h.</desc>
<speed>7.780000</speed>
</trkpt>
<trkpt lat="55.852177" lon="26.085365">
<ele>154.224731</ele>
<time>2010-07-17T14:25:02Z</time>
<desc>lat.=55.852177, lon.=26.085365, Alt.=154.224731m. Speed=28.620001m/h.</desc>
<speed>7.950000</speed>
</trkpt>
<trkpt lat="55.852104" lon="26.085390">
<ele>154.252075</ele>
<time>2010-07-17T14:25:03Z</time>
<desc>lat.=55.852104, lon.=26.085390, Alt.=154.252075m. Speed=29.700001m/h.</desc>
<speed>8.250000</speed>
</trkpt>
<trkpt lat="55.852036" lon="26.085419">
<ele>153.752075</ele>
<time>2010-07-17T14:25:04Z</time>
<desc>lat.=55.852036, lon.=26.085419, Alt.=153.752075m. Speed=28.980000m/h.</desc>
<speed>8.050000</speed>
</trkpt>
<trkpt lat="55.851963" lon="26.085449">
<ele>153.603638</ele>
<time>2010-07-17T14:25:05Z</time>
<desc>lat.=55.851963, lon.=26.085449, Alt.=153.603638m. Speed=30.275999m/h.</desc>
<speed>8.410000</speed>
</trkpt>
<trkpt lat="55.851894" lon="26.085474">
<ele>153.486450</ele>
<time>2010-07-17T14:25:06Z</time>
<desc>lat.=55.851894, lon.=26.085474, Alt.=153.486450m. Speed=29.232000m/h.</desc>
<speed>8.120000</speed>
</trkpt>
<trkpt lat="55.851822" lon="26.085503">
<ele>153.091919</ele>
<time>2010-07-17T14:25:07Z</time>
<desc>lat.=55.851822, lon.=26.085503, Alt.=153.091919m. Speed=28.908001m/h.</desc>
<speed>8.030000</speed>
</trkpt>
<trkpt lat="55.851749" lon="26.085529">
<ele>152.763794</ele>
<time>2010-07-17T14:25:08Z</time>
<desc>lat.=55.851749, lon.=26.085529, Alt.=152.763794m. Speed=29.160000m/h.</desc>
<speed>8.100000</speed>
</trkpt>
<trkpt lat="55.851677" lon="26.085554">
<ele>151.931763</ele>
<time>2010-07-17T14:25:09Z</time>
<desc>lat.=55.851677, lon.=26.085554, Alt.=151.931763m. Speed=29.591999m/h.</desc>
<speed>8.220000</speed>
</trkpt>
<trkpt lat="55.851608" lon="26.085585">
<ele>151.779419</ele>
<time>2010-07-17T14:25:10Z</time>
<desc>lat.=55.851608, lon.=26.085585, Alt.=151.779419m. Speed=29.268000m/h.</desc>
<speed>8.130000</speed>
</trkpt>
<trkpt lat="55.851536" lon="26.085617">
<ele>151.728638</ele>
<time>2010-07-17T14:25:11Z</time>
<desc>lat.=55.851536, lon.=26.085617, Alt.=151.728638m. Speed=29.052000m/h.</desc>
<speed>8.070000</speed>
</trkpt>
<trkpt lat="55.851467" lon="26.085642">
<ele>152.084106</ele>
<time>2010-07-17T14:25:12Z</time>
<desc>lat.=55.851467, lon.=26.085642, Alt.=152.084106m. Speed=29.195999m/h.</desc>
<speed>8.110000</speed>
</trkpt>
<trkpt lat="55.851398" lon="26.085669">
<ele>152.287231</ele>
<time>2010-07-17T14:25:13Z</time>
<desc>lat.=55.851398, lon.=26.085669, Alt.=152.287231m. Speed=29.124001m/h.</desc>
<speed>8.090000</speed>
</trkpt>
<trkpt lat="55.851326" lon="26.085697">
<ele>152.392700</ele>
<time>2010-07-17T14:25:14Z</time>
<desc>lat.=55.851326, lon.=26.085697, Alt.=152.392700m. Speed=28.620001m/h.</desc>
<speed>7.950000</speed>
</trkpt>
<trkpt lat="55.851257" lon="26.085714">
<ele>152.396606</ele>
<time>2010-07-17T14:25:15Z</time>
<desc>lat.=55.851257, lon.=26.085714, Alt.=152.396606m. Speed=27.900000m/h.</desc>
<speed>7.750000</speed>
</trkpt>
<trkpt lat="55.851189" lon="26.085739">
<ele>152.279419</ele>
<time>2010-07-17T14:25:16Z</time>
<desc>lat.=55.851189, lon.=26.085739, Alt.=152.279419m. Speed=28.152000m/h.</desc>
<speed>7.820000</speed>
</trkpt>
<trkpt lat="55.851124" lon="26.085766">
<ele>152.798950</ele>
<time>2010-07-17T14:25:17Z</time>
<desc>lat.=55.851124, lon.=26.085766, Alt.=152.798950m. Speed=27.792000m/h.</desc>
<speed>7.720000</speed>
</trkpt>
<trkpt lat="55.851063" lon="26.085794">
<ele>153.119263</ele>
<time>2010-07-17T14:25:18Z</time>
<desc>lat.=55.851063, lon.=26.085794, Alt.=153.119263m. Speed=27.936001m/h.</desc>
<speed>7.760000</speed>
</trkpt>
<trkpt lat="55.850990" lon="26.085817">
<ele>153.076294</ele>
<time>2010-07-17T14:25:19Z</time>
<desc>lat.=55.850990, lon.=26.085817, Alt.=153.076294m. Speed=28.836000m/h.</desc>
<speed>8.010000</speed>
</trkpt>
<trkpt lat="55.850918" lon="26.085840">
<ele>152.752075</ele>
<time>2010-07-17T14:25:20Z</time>
<desc>lat.=55.850918, lon.=26.085840, Alt.=152.752075m. Speed=29.448000m/h.</desc>
<speed>8.180000</speed>
</trkpt>
<trkpt lat="55.850849" lon="26.085873">
<ele>153.322388</ele>
<time>2010-07-17T14:25:21Z</time>
<desc>lat.=55.850849, lon.=26.085873, Alt.=153.322388m. Speed=28.656000m/h.</desc>
<speed>7.960000</speed>
</trkpt>
<trkpt lat="55.850777" lon="26.085899">
<ele>153.443481</ele>
<time>2010-07-17T14:25:22Z</time>
<desc>lat.=55.850777, lon.=26.085899, Alt.=153.443481m. Speed=29.736000m/h.</desc>
<speed>8.260000</speed>
</trkpt>
<trkpt lat="55.850700" lon="26.085924">
<ele>153.463013</ele>
<time>2010-07-17T14:25:23Z</time>
<desc>lat.=55.850700, lon.=26.085924, Alt.=153.463013m. Speed=30.275999m/h.</desc>
<speed>8.410000</speed>
</trkpt>
<trkpt lat="55.850628" lon="26.085945">
<ele>153.646606</ele>
<time>2010-07-17T14:25:24Z</time>
<desc>lat.=55.850628, lon.=26.085945, Alt.=153.646606m. Speed=28.511999m/h.</desc>
<speed>7.920000</speed>
</trkpt>
<trkpt lat="55.850559" lon="26.085970">
<ele>153.670044</ele>
<time>2010-07-17T14:25:25Z</time>
<desc>lat.=55.850559, lon.=26.085970, Alt.=153.670044m. Speed=28.080000m/h.</desc>
<speed>7.800000</speed>
</trkpt>
<trkpt lat="55.850491" lon="26.085995">
<ele>153.744263</ele>
<time>2010-07-17T14:25:26Z</time>
<desc>lat.=55.850491, lon.=26.085995, Alt.=153.744263m. Speed=27.180000m/h.</desc>
<speed>7.550000</speed>
</trkpt>
<trkpt lat="55.850426" lon="26.086023">
<ele>153.826294</ele>
<time>2010-07-17T14:25:27Z</time>
<desc>lat.=55.850426, lon.=26.086023, Alt.=153.826294m. Speed=27.827999m/h.</desc>
<speed>7.730000</speed>
</trkpt>
<trkpt lat="55.850365" lon="26.086046">
<ele>154.244263</ele>
<time>2010-07-17T14:25:28Z</time>
<desc>lat.=55.850365, lon.=26.086046, Alt.=154.244263m. Speed=27.396000m/h.</desc>
<speed>7.610000</speed>
</trkpt>
<trkpt lat="55.850296" lon="26.086075">
<ele>154.459106</ele>
<time>2010-07-17T14:25:29Z</time>
<desc>lat.=55.850296, lon.=26.086075, Alt.=154.459106m. Speed=27.792000m/h.</desc>
<speed>7.720000</speed>
</trkpt>
<trkpt lat="55.850227" lon="26.086100">
<ele>154.498169</ele>
<time>2010-07-17T14:25:30Z</time>
<desc>lat.=55.850227, lon.=26.086100, Alt.=154.498169m. Speed=28.115999m/h.</desc>
<speed>7.810000</speed>
</trkpt>
<trkpt lat="55.850159" lon="26.086119">
<ele>154.552856</ele>
<time>2010-07-17T14:25:31Z</time>
<desc>lat.=55.850159, lon.=26.086119, Alt.=154.552856m. Speed=28.188000m/h.</desc>
<speed>7.830000</speed>
</trkpt>
<trkpt lat="55.850090" lon="26.086143">
<ele>154.463013</ele>
<time>2010-07-17T14:25:32Z</time>
<desc>lat.=55.850090, lon.=26.086143, Alt.=154.463013m. Speed=28.224001m/h.</desc>
<speed>7.840000</speed>
</trkpt>
<trkpt lat="55.850021" lon="26.086166">
<ele>154.213013</ele>
<time>2010-07-17T14:25:33Z</time>
<desc>lat.=55.850021, lon.=26.086166, Alt.=154.213013m. Speed=27.216000m/h.</desc>
<speed>7.560000</speed>
</trkpt>
<trkpt lat="55.849953" lon="26.086189">
<ele>154.111450</ele>
<time>2010-07-17T14:25:34Z</time>
<desc>lat.=55.849953, lon.=26.086189, Alt.=154.111450m. Speed=27.143999m/h.</desc>
<speed>7.540000</speed>
</trkpt>
<trkpt lat="55.849884" lon="26.086210">
<ele>153.880981</ele>
<time>2010-07-17T14:25:35Z</time>
<desc>lat.=55.849884, lon.=26.086210, Alt.=153.880981m. Speed=27.035999m/h.</desc>
<speed>7.510000</speed>
</trkpt>
<trkpt lat="55.849812" lon="26.086233">
<ele>153.435669</ele>
<time>2010-07-17T14:25:36Z</time>
<desc>lat.=55.849812, lon.=26.086233, Alt.=153.435669m. Speed=27.072001m/h.</desc>
<speed>7.520000</speed>
</trkpt>
<trkpt lat="55.849743" lon="26.086260">
<ele>152.713013</ele>
<time>2010-07-17T14:25:37Z</time>
<desc>lat.=55.849743, lon.=26.086260, Alt.=152.713013m. Speed=28.296000m/h.</desc>
<speed>7.860000</speed>
</trkpt>
<trkpt lat="55.849674" lon="26.086281">
<ele>152.373169</ele>
<time>2010-07-17T14:25:38Z</time>
<desc>lat.=55.849674, lon.=26.086281, Alt.=152.373169m. Speed=26.604000m/h.</desc>
<speed>7.390000</speed>
</trkpt>
<trkpt lat="55.849606" lon="26.086308">
<ele>152.201294</ele>
<time>2010-07-17T14:25:39Z</time>
<desc>lat.=55.849606, lon.=26.086308, Alt.=152.201294m. Speed=27.612000m/h.</desc>
<speed>7.670000</speed>
</trkpt>
<trkpt lat="55.849541" lon="26.086336">
<ele>152.134888</ele>
<time>2010-07-17T14:25:40Z</time>
<desc>lat.=55.849541, lon.=26.086336, Alt.=152.134888m. Speed=27.936001m/h.</desc>
<speed>7.760000</speed>
</trkpt>
<trkpt lat="55.849476" lon="26.086367">
<ele>152.080200</ele>
<time>2010-07-17T14:25:41Z</time>
<desc>lat.=55.849476, lon.=26.086367, Alt.=152.080200m. Speed=27.360001m/h.</desc>
<speed>7.600000</speed>
</trkpt>
<trkpt lat="55.849411" lon="26.086393">
<ele>151.498169</ele>
<time>2010-07-17T14:25:42Z</time>
<desc>lat.=55.849411, lon.=26.086393, Alt.=151.498169m. Speed=28.620001m/h.</desc>
<speed>7.950000</speed>
</trkpt>
<trkpt lat="55.849346" lon="26.086414">
<ele>151.123169</ele>
<time>2010-07-17T14:25:43Z</time>
<desc>lat.=55.849346, lon.=26.086414, Alt.=151.123169m. Speed=27.180000m/h.</desc>
<speed>7.550000</speed>
</trkpt>
<trkpt lat="55.849281" lon="26.086435">
<ele>150.482544</ele>
<time>2010-07-17T14:25:44Z</time>
<desc>lat.=55.849281, lon.=26.086435, Alt.=150.482544m. Speed=27.000000m/h.</desc>
<speed>7.500000</speed>
</trkpt>
<trkpt lat="55.849213" lon="26.086464">
<ele>150.416138</ele>
<time>2010-07-17T14:25:45Z</time>
<desc>lat.=55.849213, lon.=26.086464, Alt.=150.416138m. Speed=27.576000m/h.</desc>
<speed>7.660000</speed>
</trkpt>
<trkpt lat="55.849144" lon="26.086493">
<ele>150.216919</ele>
<time>2010-07-17T14:25:46Z</time>
<desc>lat.=55.849144, lon.=26.086493, Alt.=150.216919m. Speed=28.440001m/h.</desc>
<speed>7.900000</speed>
</trkpt>
<trkpt lat="55.849072" lon="26.086519">
<ele>150.025513</ele>
<time>2010-07-17T14:25:47Z</time>
<desc>lat.=55.849072, lon.=26.086519, Alt.=150.025513m. Speed=28.944000m/h.</desc>
<speed>8.040000</speed>
</trkpt>
<trkpt lat="55.848999" lon="26.086546">
<ele>149.826294</ele>
<time>2010-07-17T14:25:48Z</time>
<desc>lat.=55.848999, lon.=26.086546, Alt.=149.826294m. Speed=29.483999m/h.</desc>
<speed>8.190000</speed>
</trkpt>
<trkpt lat="55.848923" lon="26.086573">
<ele>149.951294</ele>
<time>2010-07-17T14:25:49Z</time>
<desc>lat.=55.848923, lon.=26.086573, Alt.=149.951294m. Speed=29.844000m/h.</desc>
<speed>8.290000</speed>
</trkpt>
<trkpt lat="55.848846" lon="26.086597">
<ele>149.595825</ele>
<time>2010-07-17T14:25:50Z</time>
<desc>lat.=55.848846, lon.=26.086597, Alt.=149.595825m. Speed=29.016001m/h.</desc>
<speed>8.060000</speed>
</trkpt>
<trkpt lat="55.848774" lon="26.086622">
<ele>149.130981</ele>
<time>2010-07-17T14:25:51Z</time>
<desc>lat.=55.848774, lon.=26.086622, Alt.=149.130981m. Speed=28.764000m/h.</desc>
<speed>7.990000</speed>
</trkpt>
<trkpt lat="55.848701" lon="26.086645">
<ele>149.146606</ele>
<time>2010-07-17T14:25:52Z</time>
<desc>lat.=55.848701, lon.=26.086645, Alt.=149.146606m. Speed=28.548000m/h.</desc>
<speed>7.930000</speed>
</trkpt>
<trkpt lat="55.848633" lon="26.086668">
<ele>148.599731</ele>
<time>2010-07-17T14:25:53Z</time>
<desc>lat.=55.848633, lon.=26.086668, Alt.=148.599731m. Speed=27.108000m/h.</desc>
<speed>7.530000</speed>
</trkpt>
<trkpt lat="55.848568" lon="26.086691">
<ele>148.005981</ele>
<time>2010-07-17T14:25:54Z</time>
<desc>lat.=55.848568, lon.=26.086691, Alt.=148.005981m. Speed=27.000000m/h.</desc>
<speed>7.500000</speed>
</trkpt>
<trkpt lat="55.848503" lon="26.086716">
<ele>147.310669</ele>
<time>2010-07-17T14:25:55Z</time>
<desc>lat.=55.848503, lon.=26.086716, Alt.=147.310669m. Speed=26.496000m/h.</desc>
<speed>7.360000</speed>
</trkpt>
<trkpt lat="55.848438" lon="26.086740">
<ele>146.353638</ele>
<time>2010-07-17T14:25:56Z</time>
<desc>lat.=55.848438, lon.=26.086740, Alt.=146.353638m. Speed=26.136000m/h.</desc>
<speed>7.260000</speed>
</trkpt>
<trkpt lat="55.848377" lon="26.086763">
<ele>146.873169</ele>
<time>2010-07-17T14:25:57Z</time>
<desc>lat.=55.848377, lon.=26.086763, Alt.=146.873169m. Speed=26.316000m/h.</desc>
<speed>7.310000</speed>
</trkpt>
<trkpt lat="55.848316" lon="26.086786">
<ele>147.205200</ele>
<time>2010-07-17T14:25:58Z</time>
<desc>lat.=55.848316, lon.=26.086786, Alt.=147.205200m. Speed=26.172001m/h.</desc>
<speed>7.270000</speed>
</trkpt>
<trkpt lat="55.848251" lon="26.086807">
<ele>147.670044</ele>
<time>2010-07-17T14:25:59Z</time>
<desc>lat.=55.848251, lon.=26.086807, Alt.=147.670044m. Speed=24.120001m/h.</desc>
<speed>6.700000</speed>
</trkpt>
<trkpt lat="55.848194" lon="26.086832">
<ele>147.529419</ele>
<time>2010-07-17T14:26:00Z</time>
<desc>lat.=55.848194, lon.=26.086832, Alt.=147.529419m. Speed=24.011999m/h.</desc>
<speed>6.670000</speed>
</trkpt>
<trkpt lat="55.848133" lon="26.086853">
<ele>147.482544</ele>
<time>2010-07-17T14:26:01Z</time>
<desc>lat.=55.848133, lon.=26.086853, Alt.=147.482544m. Speed=24.840000m/h.</desc>
<speed>6.900000</speed>
</trkpt>
<trkpt lat="55.848068" lon="26.086884">
<ele>146.974731</ele>
<time>2010-07-17T14:26:02Z</time>
<desc>lat.=55.848068, lon.=26.086884, Alt.=146.974731m. Speed=23.652000m/h.</desc>
<speed>6.570000</speed>
</trkpt>
<trkpt lat="55.848011" lon="26.086905">
<ele>146.084106</ele>
<time>2010-07-17T14:26:03Z</time>
<desc>lat.=55.848011, lon.=26.086905, Alt.=146.084106m. Speed=23.976000m/h.</desc>
<speed>6.660000</speed>
</trkpt>
<trkpt lat="55.847950" lon="26.086920">
<ele>145.857544</ele>
<time>2010-07-17T14:26:04Z</time>
<desc>lat.=55.847950, lon.=26.086920, Alt.=145.857544m. Speed=24.120001m/h.</desc>
<speed>6.700000</speed>
</trkpt>
<trkpt lat="55.847885" lon="26.086941">
<ele>145.369263</ele>
<time>2010-07-17T14:26:05Z</time>
<desc>lat.=55.847885, lon.=26.086941, Alt.=145.369263m. Speed=23.796000m/h.</desc>
<speed>6.610000</speed>
</trkpt>
<trkpt lat="55.847820" lon="26.086958">
<ele>145.576294</ele>
<time>2010-07-17T14:26:06Z</time>
<desc>lat.=55.847820, lon.=26.086958, Alt.=145.576294m. Speed=24.587999m/h.</desc>
<speed>6.830000</speed>
</trkpt>
<trkpt lat="55.847759" lon="26.086979">
<ele>146.005981</ele>
<time>2010-07-17T14:26:07Z</time>
<desc>lat.=55.847759, lon.=26.086979, Alt.=146.005981m. Speed=24.912001m/h.</desc>
<speed>6.920000</speed>
</trkpt>
<trkpt lat="55.847694" lon="26.086998">
<ele>145.693481</ele>
<time>2010-07-17T14:26:08Z</time>
<desc>lat.=55.847694, lon.=26.086998, Alt.=145.693481m. Speed=22.968000m/h.</desc>
<speed>6.380000</speed>
</trkpt>
<trkpt lat="55.847641" lon="26.087019">
<ele>145.615356</ele>
<time>2010-07-17T14:26:09Z</time>
<desc>lat.=55.847641, lon.=26.087019, Alt.=145.615356m. Speed=21.204000m/h.</desc>
<speed>5.890000</speed>
</trkpt>
<trkpt lat="55.847584" lon="26.087038">
<ele>144.927856</ele>
<time>2010-07-17T14:26:10Z</time>
<desc>lat.=55.847584, lon.=26.087038, Alt.=144.927856m. Speed=21.455999m/h.</desc>
<speed>5.960000</speed>
</trkpt>
<trkpt lat="55.847530" lon="26.087057">
<ele>145.130981</ele>
<time>2010-07-17T14:26:11Z</time>
<desc>lat.=55.847530, lon.=26.087057, Alt.=145.130981m. Speed=21.384001m/h.</desc>
<speed>5.940000</speed>
</trkpt>
<trkpt lat="55.847477" lon="26.087072">
<ele>144.779419</ele>
<time>2010-07-17T14:26:12Z</time>
<desc>lat.=55.847477, lon.=26.087072, Alt.=144.779419m. Speed=20.844000m/h.</desc>
<speed>5.790000</speed>
</trkpt>
<trkpt lat="55.847420" lon="26.087103">
<ele>144.955200</ele>
<time>2010-07-17T14:26:13Z</time>
<desc>lat.=55.847420, lon.=26.087103, Alt.=144.955200m. Speed=24.228001m/h.</desc>
<speed>6.730000</speed>
</trkpt>
<trkpt lat="55.847363" lon="26.087128">
<ele>146.170044</ele>
<time>2010-07-17T14:26:14Z</time>
<desc>lat.=55.847363, lon.=26.087128, Alt.=146.170044m. Speed=21.384001m/h.</desc>
<speed>5.940000</speed>
</trkpt>
<trkpt lat="55.847309" lon="26.087145">
<ele>146.263794</ele>
<time>2010-07-17T14:26:15Z</time>
<desc>lat.=55.847309, lon.=26.087145, Alt.=146.263794m. Speed=23.256001m/h.</desc>
<speed>6.460000</speed>
</trkpt>
<trkpt lat="55.847252" lon="26.087166">
<ele>146.314575</ele>
<time>2010-07-17T14:26:16Z</time>
<desc>lat.=55.847252, lon.=26.087166, Alt.=146.314575m. Speed=22.500000m/h.</desc>
<speed>6.250000</speed>
</trkpt>
<trkpt lat="55.847198" lon="26.087185">
<ele>146.130981</ele>
<time>2010-07-17T14:26:17Z</time>
<desc>lat.=55.847198, lon.=26.087185, Alt.=146.130981m. Speed=20.771999m/h.</desc>
<speed>5.770000</speed>
</trkpt>
<trkpt lat="55.847141" lon="26.087198">
<ele>145.767700</ele>
<time>2010-07-17T14:26:18Z</time>
<desc>lat.=55.847141, lon.=26.087198, Alt.=145.767700m. Speed=21.204000m/h.</desc>
<speed>5.890000</speed>
</trkpt>
<trkpt lat="55.847092" lon="26.087210">
<ele>145.634888</ele>
<time>2010-07-17T14:26:19Z</time>
<desc>lat.=55.847092, lon.=26.087210, Alt.=145.634888m. Speed=21.024000m/h.</desc>
<speed>5.840000</speed>
</trkpt>
<trkpt lat="55.847038" lon="26.087229">
<ele>146.025513</ele>
<time>2010-07-17T14:26:20Z</time>
<desc>lat.=55.847038, lon.=26.087229, Alt.=146.025513m. Speed=21.816000m/h.</desc>
<speed>6.060000</speed>
</trkpt>
<trkpt lat="55.846989" lon="26.087257">
<ele>147.302856</ele>
<time>2010-07-17T14:26:21Z</time>
<desc>lat.=55.846989, lon.=26.087257, Alt.=147.302856m. Speed=22.535999m/h.</desc>
<speed>6.260000</speed>
</trkpt>
<trkpt lat="55.846931" lon="26.087286">
<ele>147.545044</ele>
<time>2010-07-17T14:26:22Z</time>
<desc>lat.=55.846931, lon.=26.087286, Alt.=147.545044m. Speed=22.392000m/h.</desc>
<speed>6.220000</speed>
</trkpt>
<trkpt lat="55.846874" lon="26.087311">
<ele>147.548950</ele>
<time>2010-07-17T14:26:23Z</time>
<desc>lat.=55.846874, lon.=26.087311, Alt.=147.548950m. Speed=22.247999m/h.</desc>
<speed>6.180000</speed>
</trkpt>
<trkpt lat="55.846821" lon="26.087332">
<ele>147.533325</ele>
<time>2010-07-17T14:26:24Z</time>
<desc>lat.=55.846821, lon.=26.087332, Alt.=147.533325m. Speed=21.851999m/h.</desc>
<speed>6.070000</speed>
</trkpt>
<trkpt lat="55.846764" lon="26.087345">
<ele>147.287231</ele>
<time>2010-07-17T14:26:25Z</time>
<desc>lat.=55.846764, lon.=26.087345, Alt.=147.287231m. Speed=21.204000m/h.</desc>
<speed>5.890000</speed>
</trkpt>
<trkpt lat="55.846706" lon="26.087366">
<ele>147.330200</ele>
<time>2010-07-17T14:26:26Z</time>
<desc>lat.=55.846706, lon.=26.087366, Alt.=147.330200m. Speed=22.608000m/h.</desc>
<speed>6.280000</speed>
</trkpt>
<trkpt lat="55.846649" lon="26.087387">
<ele>148.084106</ele>
<time>2010-07-17T14:26:27Z</time>
<desc>lat.=55.846649, lon.=26.087387, Alt.=148.084106m. Speed=20.879999m/h.</desc>
<speed>5.800000</speed>
</trkpt>
<trkpt lat="55.846596" lon="26.087408">
<ele>148.904419</ele>
<time>2010-07-17T14:26:28Z</time>
<desc>lat.=55.846596, lon.=26.087408, Alt.=148.904419m. Speed=21.167999m/h.</desc>
<speed>5.880000</speed>
</trkpt>
<trkpt lat="55.846546" lon="26.087425">
<ele>149.841919</ele>
<time>2010-07-17T14:26:29Z</time>
<desc>lat.=55.846546, lon.=26.087425, Alt.=149.841919m. Speed=21.636000m/h.</desc>
<speed>6.010000</speed>
</trkpt>
<trkpt lat="55.846493" lon="26.087444">
<ele>151.084106</ele>
<time>2010-07-17T14:26:30Z</time>
<desc>lat.=55.846493, lon.=26.087444, Alt.=151.084106m. Speed=20.591999m/h.</desc>
<speed>5.720000</speed>
</trkpt>
<trkpt lat="55.846439" lon="26.087463">
<ele>151.318481</ele>
<time>2010-07-17T14:26:31Z</time>
<desc>lat.=55.846439, lon.=26.087463, Alt.=151.318481m. Speed=21.636000m/h.</desc>
<speed>6.010000</speed>
</trkpt>
<trkpt lat="55.846378" lon="26.087484">
<ele>150.966919</ele>
<time>2010-07-17T14:26:32Z</time>
<desc>lat.=55.846378, lon.=26.087484, Alt.=150.966919m. Speed=21.924000m/h.</desc>
<speed>6.090000</speed>
</trkpt>
<trkpt lat="55.846325" lon="26.087500">
<ele>151.591919</ele>
<time>2010-07-17T14:26:33Z</time>
<desc>lat.=55.846325, lon.=26.087500, Alt.=151.591919m. Speed=21.636000m/h.</desc>
<speed>6.010000</speed>
</trkpt>
<trkpt lat="55.846268" lon="26.087523">
<ele>151.244263</ele>
<time>2010-07-17T14:26:34Z</time>
<desc>lat.=55.846268, lon.=26.087523, Alt.=151.244263m. Speed=21.780001m/h.</desc>
<speed>6.050000</speed>
</trkpt>
<trkpt lat="55.846210" lon="26.087543">
<ele>150.998169</ele>
<time>2010-07-17T14:26:35Z</time>
<desc>lat.=55.846210, lon.=26.087543, Alt.=150.998169m. Speed=22.464001m/h.</desc>
<speed>6.240000</speed>
</trkpt>
<trkpt lat="55.846153" lon="26.087568">
<ele>151.021606</ele>
<time>2010-07-17T14:26:36Z</time>
<desc>lat.=55.846153, lon.=26.087568, Alt.=151.021606m. Speed=22.247999m/h.</desc>
<speed>6.180000</speed>
</trkpt>
<trkpt lat="55.846096" lon="26.087585">
<ele>151.189575</ele>
<time>2010-07-17T14:26:37Z</time>
<desc>lat.=55.846096, lon.=26.087585, Alt.=151.189575m. Speed=23.076000m/h.</desc>
<speed>6.410000</speed>
</trkpt>
<trkpt lat="55.846043" lon="26.087616">
<ele>151.939575</ele>
<time>2010-07-17T14:26:38Z</time>
<desc>lat.=55.846043, lon.=26.087616, Alt.=151.939575m. Speed=22.788000m/h.</desc>
<speed>6.330000</speed>
</trkpt>
<trkpt lat="55.845985" lon="26.087643">
<ele>152.689575</ele>
<time>2010-07-17T14:26:39Z</time>
<desc>lat.=55.845985, lon.=26.087643, Alt.=152.689575m. Speed=22.860001m/h.</desc>
<speed>6.350000</speed>
</trkpt>
<trkpt lat="55.845936" lon="26.087666">
<ele>152.779419</ele>
<time>2010-07-17T14:26:40Z</time>
<desc>lat.=55.845936, lon.=26.087666, Alt.=152.779419m. Speed=22.896000m/h.</desc>
<speed>6.360000</speed>
</trkpt>
<trkpt lat="55.845879" lon="26.087685">
<ele>152.408325</ele>
<time>2010-07-17T14:26:41Z</time>
<desc>lat.=55.845879, lon.=26.087685, Alt.=152.408325m. Speed=23.256001m/h.</desc>
<speed>6.460000</speed>
</trkpt>
<trkpt lat="55.845821" lon="26.087704">
<ele>152.052856</ele>
<time>2010-07-17T14:26:42Z</time>
<desc>lat.=55.845821, lon.=26.087704, Alt.=152.052856m. Speed=22.896000m/h.</desc>
<speed>6.360000</speed>
</trkpt>
<trkpt lat="55.845764" lon="26.087729">
<ele>152.072388</ele>
<time>2010-07-17T14:26:43Z</time>
<desc>lat.=55.845764, lon.=26.087729, Alt.=152.072388m. Speed=23.976000m/h.</desc>
<speed>6.660000</speed>
</trkpt>
<trkpt lat="55.845703" lon="26.087751">
<ele>152.048950</ele>
<time>2010-07-17T14:26:44Z</time>
<desc>lat.=55.845703, lon.=26.087751, Alt.=152.048950m. Speed=24.156000m/h.</desc>
<speed>6.710000</speed>
</trkpt>
<trkpt lat="55.845646" lon="26.087778">
<ele>151.779419</ele>
<time>2010-07-17T14:26:45Z</time>
<desc>lat.=55.845646, lon.=26.087778, Alt.=151.779419m. Speed=22.931999m/h.</desc>
<speed>6.370000</speed>
</trkpt>
<trkpt lat="55.845592" lon="26.087797">
<ele>151.666138</ele>
<time>2010-07-17T14:26:46Z</time>
<desc>lat.=55.845592, lon.=26.087797, Alt.=151.666138m. Speed=21.959999m/h.</desc>
<speed>6.100000</speed>
</trkpt>
<trkpt lat="55.845535" lon="26.087812">
<ele>151.330200</ele>
<time>2010-07-17T14:26:47Z</time>
<desc>lat.=55.845535, lon.=26.087812, Alt.=151.330200m. Speed=22.320000m/h.</desc>
<speed>6.200000</speed>
</trkpt>
<trkpt lat="55.845478" lon="26.087839">
<ele>151.666138</ele>
<time>2010-07-17T14:26:48Z</time>
<desc>lat.=55.845478, lon.=26.087839, Alt.=151.666138m. Speed=24.011999m/h.</desc>
<speed>6.670000</speed>
</trkpt>
<trkpt lat="55.845421" lon="26.087856">
<ele>150.908325</ele>
<time>2010-07-17T14:26:49Z</time>
<desc>lat.=55.845421, lon.=26.087856, Alt.=150.908325m. Speed=22.068001m/h.</desc>
<speed>6.130000</speed>
</trkpt>
<trkpt lat="55.845367" lon="26.087866">
<ele>150.865356</ele>
<time>2010-07-17T14:26:50Z</time>
<desc>lat.=55.845367, lon.=26.087866, Alt.=150.865356m. Speed=21.384001m/h.</desc>
<speed>5.940000</speed>
</trkpt>
<trkpt lat="55.845318" lon="26.087881">
<ele>150.095825</ele>
<time>2010-07-17T14:26:51Z</time>
<desc>lat.=55.845318, lon.=26.087881, Alt.=150.095825m. Speed=21.780001m/h.</desc>
<speed>6.050000</speed>
</trkpt>
<trkpt lat="55.845257" lon="26.087898">
<ele>149.771606</ele>
<time>2010-07-17T14:26:52Z</time>
<desc>lat.=55.845257, lon.=26.087898, Alt.=149.771606m. Speed=23.004000m/h.</desc>
<speed>6.390000</speed>
</trkpt>
<trkpt lat="55.845200" lon="26.087919">
<ele>149.181763</ele>
<time>2010-07-17T14:26:53Z</time>
<desc>lat.=55.845200, lon.=26.087919, Alt.=149.181763m. Speed=22.752001m/h.</desc>
<speed>6.320000</speed>
</trkpt>
<trkpt lat="55.845142" lon="26.087944">
<ele>149.158325</ele>
<time>2010-07-17T14:26:54Z</time>
<desc>lat.=55.845142, lon.=26.087944, Alt.=149.158325m. Speed=23.148001m/h.</desc>
<speed>6.430000</speed>
</trkpt>
<trkpt lat="55.845085" lon="26.087967">
<ele>149.013794</ele>
<time>2010-07-17T14:26:55Z</time>
<desc>lat.=55.845085, lon.=26.087967, Alt.=149.013794m. Speed=22.716000m/h.</desc>
<speed>6.310000</speed>
</trkpt>
<trkpt lat="55.845028" lon="26.087988">
<ele>148.877075</ele>
<time>2010-07-17T14:26:56Z</time>
<desc>lat.=55.845028, lon.=26.087988, Alt.=148.877075m. Speed=22.104000m/h.</desc>
<speed>6.140000</speed>
</trkpt>
<trkpt lat="55.844971" lon="26.088007">
<ele>148.720825</ele>
<time>2010-07-17T14:26:57Z</time>
<desc>lat.=55.844971, lon.=26.088007, Alt.=148.720825m. Speed=23.724001m/h.</desc>
<speed>6.590000</speed>
</trkpt>
<trkpt lat="55.844910" lon="26.088020">
<ele>149.021606</ele>
<time>2010-07-17T14:26:58Z</time>
<desc>lat.=55.844910, lon.=26.088020, Alt.=149.021606m. Speed=23.615999m/h.</desc>
<speed>6.560000</speed>
</trkpt>
<trkpt lat="55.844856" lon="26.088039">
<ele>149.099731</ele>
<time>2010-07-17T14:26:59Z</time>
<desc>lat.=55.844856, lon.=26.088039, Alt.=149.099731m. Speed=22.356001m/h.</desc>
<speed>6.210000</speed>
</trkpt>
<trkpt lat="55.844795" lon="26.088060">
<ele>148.568481</ele>
<time>2010-07-17T14:27:00Z</time>
<desc>lat.=55.844795, lon.=26.088060, Alt.=148.568481m. Speed=22.427999m/h.</desc>
<speed>6.230000</speed>
</trkpt>
<trkpt lat="55.844738" lon="26.088079">
<ele>148.533325</ele>
<time>2010-07-17T14:27:01Z</time>
<desc>lat.=55.844738, lon.=26.088079, Alt.=148.533325m. Speed=22.931999m/h.</desc>
<speed>6.370000</speed>
</trkpt>
<trkpt lat="55.844677" lon="26.088091">
<ele>147.724731</ele>
<time>2010-07-17T14:27:02Z</time>
<desc>lat.=55.844677, lon.=26.088091, Alt.=147.724731m. Speed=20.664000m/h.</desc>
<speed>5.740000</speed>
</trkpt>
<trkpt lat="55.844627" lon="26.088110">
<ele>148.521606</ele>
<time>2010-07-17T14:27:03Z</time>
<desc>lat.=55.844627, lon.=26.088110, Alt.=148.521606m. Speed=20.556000m/h.</desc>
<speed>5.710000</speed>
</trkpt>
<trkpt lat="55.844574" lon="26.088127">
<ele>148.177856</ele>
<time>2010-07-17T14:27:04Z</time>
<desc>lat.=55.844574, lon.=26.088127, Alt.=148.177856m. Speed=20.052000m/h.</desc>
<speed>5.570000</speed>
</trkpt>
<trkpt lat="55.844528" lon="26.088148">
<ele>148.158325</ele>
<time>2010-07-17T14:27:05Z</time>
<desc>lat.=55.844528, lon.=26.088148, Alt.=148.158325m. Speed=19.188000m/h.</desc>
<speed>5.330000</speed>
</trkpt>
<trkpt lat="55.844486" lon="26.088179">
<ele>148.240356</ele>
<time>2010-07-17T14:27:06Z</time>
<desc>lat.=55.844486, lon.=26.088179, Alt.=148.240356m. Speed=17.459999m/h.</desc>
<speed>4.850000</speed>
</trkpt>
<trkpt lat="55.844440" lon="26.088200">
<ele>147.744263</ele>
<time>2010-07-17T14:27:07Z</time>
<desc>lat.=55.844440, lon.=26.088200, Alt.=147.744263m. Speed=17.028000m/h.</desc>
<speed>4.730000</speed>
</trkpt>
<trkpt lat="55.844402" lon="26.088217">
<ele>147.580200</ele>
<time>2010-07-17T14:27:08Z</time>
<desc>lat.=55.844402, lon.=26.088217, Alt.=147.580200m. Speed=15.876000m/h.</desc>
<speed>4.410000</speed>
</trkpt>
<trkpt lat="55.844357" lon="26.088230">
<ele>147.263794</ele>
<time>2010-07-17T14:27:09Z</time>
<desc>lat.=55.844357, lon.=26.088230, Alt.=147.263794m. Speed=15.876000m/h.</desc>
<speed>4.410000</speed>
</trkpt>
<trkpt lat="55.844318" lon="26.088240">
<ele>146.986450</ele>
<time>2010-07-17T14:27:10Z</time>
<desc>lat.=55.844318, lon.=26.088240, Alt.=146.986450m. Speed=14.832000m/h.</desc>
<speed>4.120000</speed>
</trkpt>
<trkpt lat="55.844284" lon="26.088255">
<ele>146.939575</ele>
<time>2010-07-17T14:27:11Z</time>
<desc>lat.=55.844284, lon.=26.088255, Alt.=146.939575m. Speed=13.500000m/h.</desc>
<speed>3.750000</speed>
</trkpt>
<trkpt lat="55.844242" lon="26.088278">
<ele>146.216919</ele>
<time>2010-07-17T14:27:12Z</time>
<desc>lat.=55.844242, lon.=26.088278, Alt.=146.216919m. Speed=14.148000m/h.</desc>
<speed>3.930000</speed>
</trkpt>
<trkpt lat="55.844200" lon="26.088293">
<ele>146.045044</ele>
<time>2010-07-17T14:27:13Z</time>
<desc>lat.=55.844200, lon.=26.088293, Alt.=146.045044m. Speed=13.824000m/h.</desc>
<speed>3.840000</speed>
</trkpt>
<trkpt lat="55.844170" lon="26.088312">
<ele>146.943481</ele>
<time>2010-07-17T14:27:14Z</time>
<desc>lat.=55.844170, lon.=26.088312, Alt.=146.943481m. Speed=13.248000m/h.</desc>
<speed>3.680000</speed>
</trkpt>
<trkpt lat="55.844139" lon="26.088329">
<ele>147.084106</ele>
<time>2010-07-17T14:27:15Z</time>
<desc>lat.=55.844139, lon.=26.088329, Alt.=147.084106m. Speed=12.204000m/h.</desc>
<speed>3.390000</speed>
</trkpt>
<trkpt lat="55.844109" lon="26.088339">
<ele>147.064575</ele>
<time>2010-07-17T14:27:16Z</time>
<desc>lat.=55.844109, lon.=26.088339, Alt.=147.064575m. Speed=11.520000m/h.</desc>
<speed>3.200000</speed>
</trkpt>
<trkpt lat="55.844074" lon="26.088350">
<ele>147.802856</ele>
<time>2010-07-17T14:27:17Z</time>
<desc>lat.=55.844074, lon.=26.088350, Alt.=147.802856m. Speed=12.492000m/h.</desc>
<speed>3.470000</speed>
</trkpt>
<trkpt lat="55.844044" lon="26.088358">
<ele>147.994263</ele>
<time>2010-07-17T14:27:18Z</time>
<desc>lat.=55.844044, lon.=26.088358, Alt.=147.994263m. Speed=11.376000m/h.</desc>
<speed>3.160000</speed>
</trkpt>
<trkpt lat="55.844013" lon="26.088366">
<ele>147.689575</ele>
<time>2010-07-17T14:27:19Z</time>
<desc>lat.=55.844013, lon.=26.088366, Alt.=147.689575m. Speed=10.152000m/h.</desc>
<speed>2.820000</speed>
</trkpt>
<trkpt lat="55.843990" lon="26.088371">
<ele>147.330200</ele>
<time>2010-07-17T14:27:20Z</time>
<desc>lat.=55.843990, lon.=26.088371, Alt.=147.330200m. Speed=11.052000m/h.</desc>
<speed>3.070000</speed>
</trkpt>
<trkpt lat="55.843956" lon="26.088379">
<ele>148.025513</ele>
<time>2010-07-17T14:27:21Z</time>
<desc>lat.=55.843956, lon.=26.088379, Alt.=148.025513m. Speed=10.080000m/h.</desc>
<speed>2.800000</speed>
</trkpt>
<trkpt lat="55.843925" lon="26.088388">
<ele>148.951294</ele>
<time>2010-07-17T14:27:22Z</time>
<desc>lat.=55.843925, lon.=26.088388, Alt.=148.951294m. Speed=11.952000m/h.</desc>
<speed>3.320000</speed>
</trkpt>
<trkpt lat="55.843891" lon="26.088392">
<ele>149.142700</ele>
<time>2010-07-17T14:27:23Z</time>
<desc>lat.=55.843891, lon.=26.088392, Alt.=149.142700m. Speed=12.672000m/h.</desc>
<speed>3.520000</speed>
</trkpt>
<trkpt lat="55.843861" lon="26.088390">
<ele>148.603638</ele>
<time>2010-07-17T14:27:24Z</time>
<desc>lat.=55.843861, lon.=26.088390, Alt.=148.603638m. Speed=12.348000m/h.</desc>
<speed>3.430000</speed>
</trkpt>
<trkpt lat="55.843834" lon="26.088388">
<ele>148.310669</ele>
<time>2010-07-17T14:27:25Z</time>
<desc>lat.=55.843834, lon.=26.088388, Alt.=148.310669m. Speed=11.124000m/h.</desc>
<speed>3.090000</speed>
</trkpt>
<trkpt lat="55.843800" lon="26.088402">
<ele>148.478638</ele>
<time>2010-07-17T14:27:26Z</time>
<desc>lat.=55.843800, lon.=26.088402, Alt.=148.478638m. Speed=13.212000m/h.</desc>
<speed>3.670000</speed>
</trkpt>
<trkpt lat="55.843765" lon="26.088415">
<ele>148.451294</ele>
<time>2010-07-17T14:27:27Z</time>
<desc>lat.=55.843765, lon.=26.088415, Alt.=148.451294m. Speed=13.752000m/h.</desc>
<speed>3.820000</speed>
</trkpt>
<trkpt lat="55.843719" lon="26.088425">
<ele>149.705200</ele>
<time>2010-07-17T14:27:28Z</time>
<desc>lat.=55.843719, lon.=26.088425, Alt.=149.705200m. Speed=15.840000m/h.</desc>
<speed>4.400000</speed>
</trkpt>
<trkpt lat="55.843678" lon="26.088419">
<ele>149.486450</ele>
<time>2010-07-17T14:27:29Z</time>
<desc>lat.=55.843678, lon.=26.088419, Alt.=149.486450m. Speed=16.992001m/h.</desc>
<speed>4.720000</speed>
</trkpt>
<trkpt lat="55.843628" lon="26.088415">
<ele>150.595825</ele>
<time>2010-07-17T14:27:30Z</time>
<desc>lat.=55.843628, lon.=26.088415, Alt.=150.595825m. Speed=20.016001m/h.</desc>
<speed>5.560000</speed>
</trkpt>
<trkpt lat="55.843578" lon="26.088415">
<ele>150.920044</ele>
<time>2010-07-17T14:27:31Z</time>
<desc>lat.=55.843578, lon.=26.088415, Alt.=150.920044m. Speed=21.059999m/h.</desc>
<speed>5.850000</speed>
</trkpt>
<trkpt lat="55.843521" lon="26.088404">
<ele>150.588013</ele>
<time>2010-07-17T14:27:32Z</time>
<desc>lat.=55.843521, lon.=26.088404, Alt.=150.588013m. Speed=22.104000m/h.</desc>
<speed>6.140000</speed>
</trkpt>
<trkpt lat="55.843468" lon="26.088390">
<ele>150.927856</ele>
<time>2010-07-17T14:27:33Z</time>
<desc>lat.=55.843468, lon.=26.088390, Alt.=150.927856m. Speed=25.884001m/h.</desc>
<speed>7.190000</speed>
</trkpt>
<trkpt lat="55.843399" lon="26.088369">
<ele>150.900513</ele>
<time>2010-07-17T14:27:34Z</time>
<desc>lat.=55.843399, lon.=26.088369, Alt.=150.900513m. Speed=27.252001m/h.</desc>
<speed>7.570000</speed>
</trkpt>
<trkpt lat="55.843327" lon="26.088345">
<ele>151.318481</ele>
<time>2010-07-17T14:27:35Z</time>
<desc>lat.=55.843327, lon.=26.088345, Alt.=151.318481m. Speed=28.152000m/h.</desc>
<speed>7.820000</speed>
</trkpt>
<trkpt lat="55.843250" lon="26.088318">
<ele>151.759888</ele>
<time>2010-07-17T14:27:36Z</time>
<desc>lat.=55.843250, lon.=26.088318, Alt.=151.759888m. Speed=28.296000m/h.</desc>
<speed>7.860000</speed>
</trkpt>
<trkpt lat="55.843178" lon="26.088285">
<ele>152.287231</ele>
<time>2010-07-17T14:27:37Z</time>
<desc>lat.=55.843178, lon.=26.088285, Alt.=152.287231m. Speed=29.736000m/h.</desc>
<speed>8.260000</speed>
</trkpt>
<trkpt lat="55.843105" lon="26.088251">
<ele>152.494263</ele>
<time>2010-07-17T14:27:38Z</time>
<desc>lat.=55.843105, lon.=26.088251, Alt.=152.494263m. Speed=31.464001m/h.</desc>
<speed>8.740000</speed>
</trkpt>
<trkpt lat="55.843025" lon="26.088213">
<ele>152.787231</ele>
<time>2010-07-17T14:27:39Z</time>
<desc>lat.=55.843025, lon.=26.088213, Alt.=152.787231m. Speed=33.984001m/h.</desc>
<speed>9.440000</speed>
</trkpt>
<trkpt lat="55.842934" lon="26.088169">
<ele>153.240356</ele>
<time>2010-07-17T14:27:40Z</time>
<desc>lat.=55.842934, lon.=26.088169, Alt.=153.240356m. Speed=36.972000m/h.</desc>
<speed>10.270000</speed>
</trkpt>
<trkpt lat="55.842846" lon="26.088123">
<ele>153.119263</ele>
<time>2010-07-17T14:27:41Z</time>
<desc>lat.=55.842846, lon.=26.088123, Alt.=153.119263m. Speed=35.675999m/h.</desc>
<speed>9.910000</speed>
</trkpt>
<trkpt lat="55.842754" lon="26.088083">
<ele>153.134888</ele>
<time>2010-07-17T14:27:42Z</time>
<desc>lat.=55.842754, lon.=26.088083, Alt.=153.134888m. Speed=37.799999m/h.</desc>
<speed>10.500000</speed>
</trkpt>
<trkpt lat="55.842663" lon="26.088043">
<ele>152.716919</ele>
<time>2010-07-17T14:27:43Z</time>
<desc>lat.=55.842663, lon.=26.088043, Alt.=152.716919m. Speed=37.512001m/h.</desc>
<speed>10.420000</speed>
</trkpt>
<trkpt lat="55.842564" lon="26.087999">
<ele>152.400513</ele>
<time>2010-07-17T14:27:44Z</time>
<desc>lat.=55.842564, lon.=26.087999, Alt.=152.400513m. Speed=37.655998m/h.</desc>
<speed>10.460000</speed>
</trkpt>
<trkpt lat="55.842464" lon="26.087952">
<ele>152.783325</ele>
<time>2010-07-17T14:27:45Z</time>
<desc>lat.=55.842464, lon.=26.087952, Alt.=152.783325m. Speed=38.627998m/h.</desc>
<speed>10.730000</speed>
</trkpt>
<trkpt lat="55.842369" lon="26.087898">
<ele>152.705200</ele>
<time>2010-07-17T14:27:46Z</time>
<desc>lat.=55.842369, lon.=26.087898, Alt.=152.705200m. Speed=37.223999m/h.</desc>
<speed>10.340000</speed>
</trkpt>
<trkpt lat="55.842281" lon="26.087847">
<ele>152.916138</ele>
<time>2010-07-17T14:27:47Z</time>
<desc>lat.=55.842281, lon.=26.087847, Alt.=152.916138m. Speed=35.352001m/h.</desc>
<speed>9.820000</speed>
</trkpt>
<trkpt lat="55.842197" lon="26.087790">
<ele>153.041138</ele>
<time>2010-07-17T14:27:48Z</time>
<desc>lat.=55.842197, lon.=26.087790, Alt.=153.041138m. Speed=34.271999m/h.</desc>
<speed>9.520000</speed>
</trkpt>
<trkpt lat="55.842117" lon="26.087740">
<ele>153.048950</ele>
<time>2010-07-17T14:27:49Z</time>
<desc>lat.=55.842117, lon.=26.087740, Alt.=153.048950m. Speed=33.444000m/h.</desc>
<speed>9.290000</speed>
</trkpt>
<trkpt lat="55.842041" lon="26.087696">
<ele>152.974731</ele>
<time>2010-07-17T14:27:50Z</time>
<desc>lat.=55.842041, lon.=26.087696, Alt.=152.974731m. Speed=30.672001m/h.</desc>
<speed>8.520000</speed>
</trkpt>
<trkpt lat="55.841972" lon="26.087658">
<ele>153.588013</ele>
<time>2010-07-17T14:27:51Z</time>
<desc>lat.=55.841972, lon.=26.087658, Alt.=153.588013m. Speed=29.124001m/h.</desc>
<speed>8.090000</speed>
</trkpt>
<trkpt lat="55.841892" lon="26.087626">
<ele>152.720825</ele>
<time>2010-07-17T14:27:52Z</time>
<desc>lat.=55.841892, lon.=26.087626, Alt.=152.720825m. Speed=27.648001m/h.</desc>
<speed>7.680000</speed>
</trkpt>
<trkpt lat="55.841824" lon="26.087591">
<ele>152.498169</ele>
<time>2010-07-17T14:27:53Z</time>
<desc>lat.=55.841824, lon.=26.087591, Alt.=152.498169m. Speed=25.884001m/h.</desc>
<speed>7.190000</speed>
</trkpt>
<trkpt lat="55.841763" lon="26.087561">
<ele>152.302856</ele>
<time>2010-07-17T14:27:54Z</time>
<desc>lat.=55.841763, lon.=26.087561, Alt.=152.302856m. Speed=23.292000m/h.</desc>
<speed>6.470000</speed>
</trkpt>
<trkpt lat="55.841705" lon="26.087524">
<ele>151.599731</ele>
<time>2010-07-17T14:27:55Z</time>
<desc>lat.=55.841705, lon.=26.087524, Alt.=151.599731m. Speed=21.348000m/h.</desc>
<speed>5.930000</speed>
</trkpt>
<trkpt lat="55.841660" lon="26.087498">
<ele>151.373169</ele>
<time>2010-07-17T14:27:56Z</time>
<desc>lat.=55.841660, lon.=26.087498, Alt.=151.373169m. Speed=17.784000m/h.</desc>
<speed>4.940000</speed>
</trkpt>
<trkpt lat="55.841621" lon="26.087469">
<ele>151.154419</ele>
<time>2010-07-17T14:27:57Z</time>
<desc>lat.=55.841621, lon.=26.087469, Alt.=151.154419m. Speed=15.480000m/h.</desc>
<speed>4.300000</speed>
</trkpt>
<trkpt lat="55.841587" lon="26.087446">
<ele>151.154419</ele>
<time>2010-07-17T14:27:58Z</time>
<desc>lat.=55.841587, lon.=26.087446, Alt.=151.154419m. Speed=12.564000m/h.</desc>
<speed>3.490000</speed>
</trkpt>
<trkpt lat="55.841568" lon="26.087433">
<ele>151.091919</ele>
<time>2010-07-17T14:27:59Z</time>
<desc>lat.=55.841568, lon.=26.087433, Alt.=151.091919m. Speed=9.216000m/h.</desc>
<speed>2.560000</speed>
</trkpt>
<trkpt lat="55.841549" lon="26.087420">
<ele>151.384888</ele>
<time>2010-07-17T14:28:00Z</time>
<desc>lat.=55.841549, lon.=26.087420, Alt.=151.384888m. Speed=7.452000m/h.</desc>
<speed>2.070000</speed>
</trkpt>
<trkpt lat="55.841537" lon="26.087414">
<ele>151.502075</ele>
<time>2010-07-17T14:28:01Z</time>
<desc>lat.=55.841537, lon.=26.087414, Alt.=151.502075m. Speed=6.228000m/h.</desc>
<speed>1.730000</speed>
</trkpt>
<trkpt lat="55.841522" lon="26.087397">
<ele>151.752075</ele>
<time>2010-07-17T14:28:02Z</time>
<desc>lat.=55.841522, lon.=26.087397, Alt.=151.752075m. Speed=5.868000m/h.</desc>
<speed>1.630000</speed>
</trkpt>
<trkpt lat="55.841507" lon="26.087381">
<ele>152.248169</ele>
<time>2010-07-17T14:28:03Z</time>
<desc>lat.=55.841507, lon.=26.087381, Alt.=152.248169m. Speed=6.660000m/h.</desc>
<speed>1.850000</speed>
</trkpt>
<trkpt lat="55.841496" lon="26.087372">
<ele>152.314575</ele>
<time>2010-07-17T14:28:04Z</time>
<desc>lat.=55.841496, lon.=26.087372, Alt.=152.314575m. Speed=4.644000m/h.</desc>
<speed>1.290000</speed>
</trkpt>
<trkpt lat="55.841480" lon="26.087358">
<ele>152.970825</ele>
<time>2010-07-17T14:28:05Z</time>
<desc>lat.=55.841480, lon.=26.087358, Alt.=152.970825m. Speed=7.020000m/h.</desc>
<speed>1.950000</speed>
</trkpt>
<trkpt lat="55.841461" lon="26.087332">
<ele>152.482544</ele>
<time>2010-07-17T14:28:06Z</time>
<desc>lat.=55.841461, lon.=26.087332, Alt.=152.482544m. Speed=6.300000m/h.</desc>
<speed>1.750000</speed>
</trkpt>
<trkpt lat="55.841450" lon="26.087324">
<ele>152.537231</ele>
<time>2010-07-17T14:28:07Z</time>
<desc>lat.=55.841450, lon.=26.087324, Alt.=152.537231m. Speed=6.228000m/h.</desc>
<speed>1.730000</speed>
</trkpt>
<trkpt lat="55.841434" lon="26.087315">
<ele>153.466919</ele>
<time>2010-07-17T14:28:08Z</time>
<desc>lat.=55.841434, lon.=26.087315, Alt.=153.466919m. Speed=7.308000m/h.</desc>
<speed>2.030000</speed>
</trkpt>
<trkpt lat="55.841415" lon="26.087313">
<ele>153.951294</ele>
<time>2010-07-17T14:28:09Z</time>
<desc>lat.=55.841415, lon.=26.087313, Alt.=153.951294m. Speed=7.344000m/h.</desc>
<speed>2.040000</speed>
</trkpt>
<trkpt lat="55.841393" lon="26.087313">
<ele>154.154419</ele>
<time>2010-07-17T14:28:10Z</time>
<desc>lat.=55.841393, lon.=26.087313, Alt.=154.154419m. Speed=7.776000m/h.</desc>
<speed>2.160000</speed>
</trkpt>
<trkpt lat="55.841377" lon="26.087305">
<ele>155.041138</ele>
<time>2010-07-17T14:28:11Z</time>
<desc>lat.=55.841377, lon.=26.087305, Alt.=155.041138m. Speed=6.372000m/h.</desc>
<speed>1.770000</speed>
</trkpt>
<trkpt lat="55.841362" lon="26.087299">
<ele>155.431763</ele>
<time>2010-07-17T14:28:12Z</time>
<desc>lat.=55.841362, lon.=26.087299, Alt.=155.431763m. Speed=5.688000m/h.</desc>
<speed>1.580000</speed>
</trkpt>
<trkpt lat="55.841347" lon="26.087297">
<ele>155.795044</ele>
<time>2010-07-17T14:28:13Z</time>
<desc>lat.=55.841347, lon.=26.087297, Alt.=155.795044m. Speed=6.012000m/h.</desc>
<speed>1.670000</speed>
</trkpt>
<trkpt lat="55.841328" lon="26.087290">
<ele>156.752075</ele>
<time>2010-07-17T14:28:14Z</time>
<desc>lat.=55.841328, lon.=26.087290, Alt.=156.752075m. Speed=7.452000m/h.</desc>
<speed>2.070000</speed>
</trkpt>
<trkpt lat="55.841316" lon="26.087278">
<ele>159.744263</ele>
<time>2010-07-17T14:28:15Z</time>
<desc>lat.=55.841316, lon.=26.087278, Alt.=159.744263m. Speed=6.876000m/h.</desc>
<speed>1.910000</speed>
</trkpt>
<trkpt lat="55.841290" lon="26.087269">
<ele>160.130981</ele>
<time>2010-07-17T14:28:16Z</time>
<desc>lat.=55.841290, lon.=26.087269, Alt.=160.130981m. Speed=8.028000m/h.</desc>
<speed>2.230000</speed>
</trkpt>
<trkpt lat="55.841267" lon="26.087255">
<ele>159.576294</ele>
<time>2010-07-17T14:28:17Z</time>
<desc>lat.=55.841267, lon.=26.087255, Alt.=159.576294m. Speed=7.632000m/h.</desc>
<speed>2.120000</speed>
</trkpt>
<trkpt lat="55.841248" lon="26.087250">
<ele>160.041138</ele>
<time>2010-07-17T14:28:18Z</time>
<desc>lat.=55.841248, lon.=26.087250, Alt.=160.041138m. Speed=7.092000m/h.</desc>
<speed>1.970000</speed>
</trkpt>
<trkpt lat="55.841228" lon="26.087238">
<ele>160.810669</ele>
<time>2010-07-17T14:28:19Z</time>
<desc>lat.=55.841228, lon.=26.087238, Alt.=160.810669m. Speed=8.064000m/h.</desc>
<speed>2.240000</speed>
</trkpt>
<trkpt lat="55.841198" lon="26.087229">
<ele>160.728638</ele>
<time>2010-07-17T14:28:20Z</time>
<desc>lat.=55.841198, lon.=26.087229, Alt.=160.728638m. Speed=8.028000m/h.</desc>
<speed>2.230000</speed>
</trkpt>
<trkpt lat="55.841175" lon="26.087215">
<ele>160.947388</ele>
<time>2010-07-17T14:28:21Z</time>
<desc>lat.=55.841175, lon.=26.087215, Alt.=160.947388m. Speed=8.136000m/h.</desc>
<speed>2.260000</speed>
</trkpt>
<trkpt lat="55.841156" lon="26.087208">
<ele>162.068481</ele>
<time>2010-07-17T14:28:22Z</time>
<desc>lat.=55.841156, lon.=26.087208, Alt.=162.068481m. Speed=8.316000m/h.</desc>
<speed>2.310000</speed>
</trkpt>
<trkpt lat="55.841137" lon="26.087196">
<ele>163.505981</ele>
<time>2010-07-17T14:28:23Z</time>
<desc>lat.=55.841137, lon.=26.087196, Alt.=163.505981m. Speed=8.352000m/h.</desc>
<speed>2.320000</speed>
</trkpt>
<trkpt lat="55.841114" lon="26.087170">
<ele>163.826294</ele>
<time>2010-07-17T14:28:24Z</time>
<desc>lat.=55.841114, lon.=26.087170, Alt.=163.826294m. Speed=9.288000m/h.</desc>
<speed>2.580000</speed>
</trkpt>
<trkpt lat="55.841087" lon="26.087147">
<ele>163.630981</ele>
<time>2010-07-17T14:28:25Z</time>
<desc>lat.=55.841087, lon.=26.087147, Alt.=163.630981m. Speed=10.080000m/h.</desc>
<speed>2.800000</speed>
</trkpt>
<trkpt lat="55.841068" lon="26.087116">
<ele>163.701294</ele>
<time>2010-07-17T14:28:26Z</time>
<desc>lat.=55.841068, lon.=26.087116, Alt.=163.701294m. Speed=8.784000m/h.</desc>
<speed>2.440000</speed>
</trkpt>
<trkpt lat="55.841045" lon="26.087099">
<ele>164.525513</ele>
<time>2010-07-17T14:28:27Z</time>
<desc>lat.=55.841045, lon.=26.087099, Alt.=164.525513m. Speed=9.216000m/h.</desc>
<speed>2.560000</speed>
</trkpt>
<trkpt lat="55.841026" lon="26.087084">
<ele>164.459106</ele>
<time>2010-07-17T14:28:28Z</time>
<desc>lat.=55.841026, lon.=26.087084, Alt.=164.459106m. Speed=7.596000m/h.</desc>
<speed>2.110000</speed>
</trkpt>
<trkpt lat="55.841003" lon="26.087065">
<ele>164.529419</ele>
<time>2010-07-17T14:28:29Z</time>
<desc>lat.=55.841003, lon.=26.087065, Alt.=164.529419m. Speed=9.756000m/h.</desc>
<speed>2.710000</speed>
</trkpt>
<trkpt lat="55.840977" lon="26.087046">
<ele>164.388794</ele>
<time>2010-07-17T14:28:30Z</time>
<desc>lat.=55.840977, lon.=26.087046, Alt.=164.388794m. Speed=8.748000m/h.</desc>
<speed>2.430000</speed>
</trkpt>
<trkpt lat="55.840954" lon="26.087027">
<ele>164.177856</ele>
<time>2010-07-17T14:28:31Z</time>
<desc>lat.=55.840954, lon.=26.087027, Alt.=164.177856m. Speed=9.936000m/h.</desc>
<speed>2.760000</speed>
</trkpt>
<trkpt lat="55.840931" lon="26.087011">
<ele>164.259888</ele>
<time>2010-07-17T14:28:32Z</time>
<desc>lat.=55.840931, lon.=26.087011, Alt.=164.259888m. Speed=8.244000m/h.</desc>
<speed>2.290000</speed>
</trkpt>
<trkpt lat="55.840908" lon="26.086992">
<ele>164.068481</ele>
<time>2010-07-17T14:28:33Z</time>
<desc>lat.=55.840908, lon.=26.086992, Alt.=164.068481m. Speed=8.280000m/h.</desc>
<speed>2.300000</speed>
</trkpt>
<trkpt lat="55.840889" lon="26.086981">
<ele>165.232544</ele>
<time>2010-07-17T14:28:34Z</time>
<desc>lat.=55.840889, lon.=26.086981, Alt.=165.232544m. Speed=9.648000m/h.</desc>
<speed>2.680000</speed>
</trkpt>
<trkpt lat="55.840858" lon="26.086960">
<ele>164.646606</ele>
<time>2010-07-17T14:28:35Z</time>
<desc>lat.=55.840858, lon.=26.086960, Alt.=164.646606m. Speed=12.060000m/h.</desc>
<speed>3.350000</speed>
</trkpt>
<trkpt lat="55.840828" lon="26.086926">
<ele>163.466919</ele>
<time>2010-07-17T14:28:36Z</time>
<desc>lat.=55.840828, lon.=26.086926, Alt.=163.466919m. Speed=12.492000m/h.</desc>
<speed>3.470000</speed>
</trkpt>
<trkpt lat="55.840805" lon="26.086884">
<ele>163.373169</ele>
<time>2010-07-17T14:28:37Z</time>
<desc>lat.=55.840805, lon.=26.086884, Alt.=163.373169m. Speed=13.356000m/h.</desc>
<speed>3.710000</speed>
</trkpt>
<trkpt lat="55.840775" lon="26.086849">
<ele>163.005981</ele>
<time>2010-07-17T14:28:38Z</time>
<desc>lat.=55.840775, lon.=26.086849, Alt.=163.005981m. Speed=14.148000m/h.</desc>
<speed>3.930000</speed>
</trkpt>
<trkpt lat="55.840740" lon="26.086819">
<ele>163.220825</ele>
<time>2010-07-17T14:28:39Z</time>
<desc>lat.=55.840740, lon.=26.086819, Alt.=163.220825m. Speed=12.384000m/h.</desc>
<speed>3.440000</speed>
</trkpt>
<trkpt lat="55.840710" lon="26.086790">
<ele>163.248169</ele>
<time>2010-07-17T14:28:40Z</time>
<desc>lat.=55.840710, lon.=26.086790, Alt.=163.248169m. Speed=13.788000m/h.</desc>
<speed>3.830000</speed>
</trkpt>
<trkpt lat="55.840675" lon="26.086761">
<ele>163.388794</ele>
<time>2010-07-17T14:28:41Z</time>
<desc>lat.=55.840675, lon.=26.086761, Alt.=163.388794m. Speed=14.400000m/h.</desc>
<speed>4.000000</speed>
</trkpt>
<trkpt lat="55.840637" lon="26.086731">
<ele>163.806763</ele>
<time>2010-07-17T14:28:42Z</time>
<desc>lat.=55.840637, lon.=26.086731, Alt.=163.806763m. Speed=14.652000m/h.</desc>
<speed>4.070000</speed>
</trkpt>
<trkpt lat="55.840595" lon="26.086700">
<ele>164.736450</ele>
<time>2010-07-17T14:28:43Z</time>
<desc>lat.=55.840595, lon.=26.086700, Alt.=164.736450m. Speed=15.192000m/h.</desc>
<speed>4.220000</speed>
</trkpt>
<trkpt lat="55.840557" lon="26.086670">
<ele>165.720825</ele>
<time>2010-07-17T14:28:44Z</time>
<desc>lat.=55.840557, lon.=26.086670, Alt.=165.720825m. Speed=16.236000m/h.</desc>
<speed>4.510000</speed>
</trkpt>
<trkpt lat="55.840511" lon="26.086624">
<ele>166.818481</ele>
<time>2010-07-17T14:28:45Z</time>
<desc>lat.=55.840511, lon.=26.086624, Alt.=166.818481m. Speed=17.028000m/h.</desc>
<speed>4.730000</speed>
</trkpt>
<trkpt lat="55.840473" lon="26.086563">
<ele>166.228638</ele>
<time>2010-07-17T14:28:46Z</time>
<desc>lat.=55.840473, lon.=26.086563, Alt.=166.228638m. Speed=15.192000m/h.</desc>
<speed>4.220000</speed>
</trkpt>
<trkpt lat="55.840450" lon="26.086496">
<ele>165.920044</ele>
<time>2010-07-17T14:28:47Z</time>
<desc>lat.=55.840450, lon.=26.086496, Alt.=165.920044m. Speed=14.508000m/h.</desc>
<speed>4.030000</speed>
</trkpt>
<trkpt lat="55.840435" lon="26.086437">
<ele>165.845825</ele>
<time>2010-07-17T14:28:48Z</time>
<desc>lat.=55.840435, lon.=26.086437, Alt.=165.845825m. Speed=13.248000m/h.</desc>
<speed>3.680000</speed>
</trkpt>
<trkpt lat="55.840420" lon="26.086369">
<ele>165.310669</ele>
<time>2010-07-17T14:28:49Z</time>
<desc>lat.=55.840420, lon.=26.086369, Alt.=165.310669m. Speed=13.932000m/h.</desc>
<speed>3.870000</speed>
</trkpt>
<trkpt lat="55.840424" lon="26.086306">
<ele>165.095825</ele>
<time>2010-07-17T14:28:50Z</time>
<desc>lat.=55.840424, lon.=26.086306, Alt.=165.095825m. Speed=11.520000m/h.</desc>
<speed>3.200000</speed>
</trkpt>
<trkpt lat="55.840439" lon="26.086256">
<ele>165.228638</ele>
<time>2010-07-17T14:28:51Z</time>
<desc>lat.=55.840439, lon.=26.086256, Alt.=165.228638m. Speed=12.672000m/h.</desc>
<speed>3.520000</speed>
</trkpt>
<trkpt lat="55.840458" lon="26.086218">
<ele>164.939575</ele>
<time>2010-07-17T14:28:52Z</time>
<desc>lat.=55.840458, lon.=26.086218, Alt.=164.939575m. Speed=11.880000m/h.</desc>
<speed>3.300000</speed>
</trkpt>
<trkpt lat="55.840477" lon="26.086184">
<ele>165.056763</ele>
<time>2010-07-17T14:28:53Z</time>
<desc>lat.=55.840477, lon.=26.086184, Alt.=165.056763m. Speed=11.304000m/h.</desc>
<speed>3.140000</speed>
</trkpt>
<trkpt lat="55.840500" lon="26.086151">
<ele>164.880981</ele>
<time>2010-07-17T14:28:54Z</time>
<desc>lat.=55.840500, lon.=26.086151, Alt.=164.880981m. Speed=11.592000m/h.</desc>
<speed>3.220000</speed>
</trkpt>
<trkpt lat="55.840523" lon="26.086119">
<ele>164.545044</ele>
<time>2010-07-17T14:28:55Z</time>
<desc>lat.=55.840523, lon.=26.086119, Alt.=164.545044m. Speed=11.736000m/h.</desc>
<speed>3.260000</speed>
</trkpt>
<trkpt lat="55.840546" lon="26.086086">
<ele>165.064575</ele>
<time>2010-07-17T14:28:56Z</time>
<desc>lat.=55.840546, lon.=26.086086, Alt.=165.064575m. Speed=10.584000m/h.</desc>
<speed>2.940000</speed>
</trkpt>
<trkpt lat="55.840569" lon="26.086058">
<ele>164.755981</ele>
<time>2010-07-17T14:28:57Z</time>
<desc>lat.=55.840569, lon.=26.086058, Alt.=164.755981m. Speed=12.132000m/h.</desc>
<speed>3.370000</speed>
</trkpt>
<trkpt lat="55.840588" lon="26.086033">
<ele>164.861450</ele>
<time>2010-07-17T14:28:58Z</time>
<desc>lat.=55.840588, lon.=26.086033, Alt.=164.861450m. Speed=9.252000m/h.</desc>
<speed>2.570000</speed>
</trkpt>
<trkpt lat="55.840614" lon="26.086010">
<ele>164.822388</ele>
<time>2010-07-17T14:28:59Z</time>
<desc>lat.=55.840614, lon.=26.086010, Alt.=164.822388m. Speed=10.008000m/h.</desc>
<speed>2.780000</speed>
</trkpt>
<trkpt lat="55.840637" lon="26.085987">
<ele>164.505981</ele>
<time>2010-07-17T14:29:00Z</time>
<desc>lat.=55.840637, lon.=26.085987, Alt.=164.505981m. Speed=9.108000m/h.</desc>
<speed>2.530000</speed>
</trkpt>
<trkpt lat="55.840652" lon="26.085974">
<ele>164.029419</ele>
<time>2010-07-17T14:29:01Z</time>
<desc>lat.=55.840652, lon.=26.085974, Alt.=164.029419m. Speed=6.660000m/h.</desc>
<speed>1.850000</speed>
</trkpt>
<trkpt lat="55.840664" lon="26.085964">
<ele>163.677856</ele>
<time>2010-07-17T14:29:02Z</time>
<desc>lat.=55.840664, lon.=26.085964, Alt.=163.677856m. Speed=4.104000m/h.</desc>
<speed>1.140000</speed>
</trkpt>
<trkpt lat="55.840664" lon="26.085962">
<ele>164.021606</ele>
<time>2010-07-17T14:29:03Z</time>
<desc>lat.=55.840664, lon.=26.085962, Alt.=164.021606m. Speed=1.296000m/h.</desc>
<speed>0.360000</speed>
</trkpt>
<trkpt lat="55.840668" lon="26.085958">
<ele>164.130981</ele>
<time>2010-07-17T14:29:04Z</time>
<desc>lat.=55.840668, lon.=26.085958, Alt.=164.130981m. Speed=1.404000m/h.</desc>
<speed>0.390000</speed>
</trkpt>
<trkpt lat="55.840664" lon="26.085962">
<ele>164.107544</ele>
<time>2010-07-17T14:29:05Z</time>
<desc>lat.=55.840664, lon.=26.085962, Alt.=164.107544m. Speed=0.720000m/h.</desc>
<speed>0.200000</speed>
</trkpt>
<trkpt lat="55.840664" lon="26.085968">
<ele>164.291138</ele>
<time>2010-07-17T14:29:06Z</time>
<desc>lat.=55.840664, lon.=26.085968, Alt.=164.291138m. Speed=0.396000m/h.</desc>
<speed>0.110000</speed>
</trkpt>
<trkpt lat="55.840664" lon="26.085968">
<ele>164.267700</ele>
<time>2010-07-17T14:29:07Z</time>
<desc>lat.=55.840664, lon.=26.085968, Alt.=164.267700m. Speed=0.216000m/h.</desc>
<speed>0.060000</speed>
</trkpt>
<trkpt lat="55.840664" lon="26.085968">
<ele>164.236450</ele>
<time>2010-07-17T14:29:08Z</time>
<desc>lat.=55.840664, lon.=26.085968, Alt.=164.236450m. Speed=0.216000m/h.</desc>
<speed>0.060000</speed>
</trkpt>
<trkpt lat="55.840664" lon="26.085968">
<ele>164.209106</ele>
<time>2010-07-17T14:29:09Z</time>
<desc>lat.=55.840664, lon.=26.085968, Alt.=164.209106m. Speed=0.144000m/h.</desc>
<speed>0.040000</speed>
</trkpt>
<trkpt lat="55.840664" lon="26.085968">
<ele>164.185669</ele>
<time>2010-07-17T14:29:10Z</time>
<desc>lat.=55.840664, lon.=26.085968, Alt.=164.185669m. Speed=0.036000m/h.</desc>
<speed>0.010000</speed>
</trkpt>
<trkpt lat="55.840664" lon="26.085968">
<ele>164.158325</ele>
<time>2010-07-17T14:29:11Z</time>
<desc>lat.=55.840664, lon.=26.085968, Alt.=164.158325m. Speed=0.216000m/h.</desc>
<speed>0.060000</speed>
</trkpt>
<trkpt lat="55.840664" lon="26.085970">
<ele>164.134888</ele>
<time>2010-07-17T14:29:12Z</time>
<desc>lat.=55.840664, lon.=26.085970, Alt.=164.134888m. Speed=0.144000m/h.</desc>
<speed>0.040000</speed>
</trkpt>
<trkpt lat="55.840664" lon="26.085968">
<ele>164.119263</ele>
<time>2010-07-17T14:29:13Z</time>
<desc>lat.=55.840664, lon.=26.085968, Alt.=164.119263m. Speed=0.504000m/h.</desc>
<speed>0.140000</speed>
</trkpt>
<trkpt lat="55.840668" lon="26.085968">
<ele>164.099731</ele>
<time>2010-07-17T14:29:14Z</time>
<desc>lat.=55.840668, lon.=26.085968, Alt.=164.099731m. Speed=0.252000m/h.</desc>
<speed>0.070000</speed>
</trkpt>
<trkpt lat="55.840668" lon="26.085966">
<ele>164.084106</ele>
<time>2010-07-17T14:29:15Z</time>
<desc>lat.=55.840668, lon.=26.085966, Alt.=164.084106m. Speed=0.180000m/h.</desc>
<speed>0.050000</speed>
</trkpt>
<trkpt lat="55.840668" lon="26.085968">
<ele>164.076294</ele>
<time>2010-07-17T14:29:16Z</time>
<desc>lat.=55.840668, lon.=26.085968, Alt.=164.076294m. Speed=0.072000m/h.</desc>
<speed>0.020000</speed>
</trkpt>
<trkpt lat="55.840668" lon="26.085966">
<ele>164.060669</ele>
<time>2010-07-17T14:29:17Z</time>
<desc>lat.=55.840668, lon.=26.085966, Alt.=164.060669m. Speed=0.252000m/h.</desc>
<speed>0.070000</speed>
</trkpt>
<trkpt lat="55.840668" lon="26.085966">
<ele>164.048950</ele>
<time>2010-07-17T14:29:18Z</time>
<desc>lat.=55.840668, lon.=26.085966, Alt.=164.048950m. Speed=0.324000m/h.</desc>
<speed>0.090000</speed>
</trkpt>
<trkpt lat="55.840668" lon="26.085964">
<ele>164.037231</ele>
<time>2010-07-17T14:29:19Z</time>
<desc>lat.=55.840668, lon.=26.085964, Alt.=164.037231m. Speed=0.216000m/h.</desc>
<speed>0.060000</speed>
</trkpt>
<trkpt lat="55.840668" lon="26.085964">
<ele>164.021606</ele>
<time>2010-07-17T14:29:20Z</time>
<desc>lat.=55.840668, lon.=26.085964, Alt.=164.021606m. Speed=0.252000m/h.</desc>
<speed>0.070000</speed>
</trkpt>
<trkpt lat="55.840668" lon="26.085966">
<ele>164.005981</ele>
<time>2010-07-17T14:29:21Z</time>
<desc>lat.=55.840668, lon.=26.085966, Alt.=164.005981m. Speed=0.072000m/h.</desc>
<speed>0.020000</speed>
</trkpt>
<trkpt lat="55.840668" lon="26.085966">
<ele>163.994263</ele>
<time>2010-07-17T14:29:22Z</time>
<desc>lat.=55.840668, lon.=26.085966, Alt.=163.994263m. Speed=0.072000m/h.</desc>
<speed>0.020000</speed>
</trkpt>
<trkpt lat="55.840668" lon="26.085966">
<ele>163.986450</ele>
<time>2010-07-17T14:29:23Z</time>
<desc>lat.=55.840668, lon.=26.085966, Alt.=163.986450m. Speed=0.072000m/h.</desc>
<speed>0.020000</speed>
</trkpt>
<trkpt lat="55.840668" lon="26.085968">
<ele>163.970825</ele>
<time>2010-07-17T14:29:24Z</time>
<desc>lat.=55.840668, lon.=26.085968, Alt.=163.970825m. Speed=0.216000m/h.</desc>
<speed>0.060000</speed>
</trkpt>
<trkpt lat="55.840668" lon="26.085968">
<ele>163.959106</ele>
<time>2010-07-17T14:29:25Z</time>
<desc>lat.=55.840668, lon.=26.085968, Alt.=163.959106m. Speed=0.180000m/h.</desc>
<speed>0.050000</speed>
</trkpt>
<trkpt lat="55.840664" lon="26.085968">
<ele>163.951294</ele>
<time>2010-07-17T14:29:26Z</time>
<desc>lat.=55.840664, lon.=26.085968, Alt.=163.951294m. Speed=0.108000m/h.</desc>
<speed>0.030000</speed>
</trkpt>
<trkpt lat="55.840668" lon="26.085970">
<ele>163.939575</ele>
<time>2010-07-17T14:29:27Z</time>
<desc>lat.=55.840668, lon.=26.085970, Alt.=163.939575m. Speed=0.036000m/h.</desc>
<speed>0.010000</speed>
</trkpt>
<trkpt lat="55.840668" lon="26.085970">
<ele>163.923950</ele>
<time>2010-07-17T14:29:28Z</time>
<desc>lat.=55.840668, lon.=26.085970, Alt.=163.923950m. Speed=0.072000m/h.</desc>
<speed>0.020000</speed>
</trkpt>
<trkpt lat="55.840664" lon="26.085970">
<ele>163.908325</ele>
<time>2010-07-17T14:29:29Z</time>
<desc>lat.=55.840664, lon.=26.085970, Alt.=163.908325m. Speed=0.216000m/h.</desc>
<speed>0.060000</speed>
</trkpt>
<trkpt lat="55.840664" lon="26.085968">
<ele>163.900513</ele>
<time>2010-07-17T14:29:30Z</time>
<desc>lat.=55.840664, lon.=26.085968, Alt.=163.900513m. Speed=0.180000m/h.</desc>
<speed>0.050000</speed>
</trkpt>
<trkpt lat="55.840664" lon="26.085968">
<ele>163.884888</ele>
<time>2010-07-17T14:29:31Z</time>
<desc>lat.=55.840664, lon.=26.085968, Alt.=163.884888m. Speed=0.072000m/h.</desc>
<speed>0.020000</speed>
</trkpt>
<trkpt lat="55.840664" lon="26.085968">
<ele>163.869263</ele>
<time>2010-07-17T14:29:32Z</time>
<desc>lat.=55.840664, lon.=26.085968, Alt.=163.869263m. Speed=0.144000m/h.</desc>
<speed>0.040000</speed>
</trkpt>
<trkpt lat="55.840664" lon="26.085970">
<ele>163.857544</ele>
<time>2010-07-17T14:29:33Z</time>
<desc>lat.=55.840664, lon.=26.085970, Alt.=163.857544m. Speed=0.432000m/h.</desc>
<speed>0.120000</speed>
</trkpt>
<trkpt lat="55.840668" lon="26.085972">
<ele>163.841919</ele>
<time>2010-07-17T14:29:34Z</time>
<desc>lat.=55.840668, lon.=26.085972, Alt.=163.841919m. Speed=0.468000m/h.</desc>
<speed>0.130000</speed>
</trkpt>
<trkpt lat="55.840668" lon="26.085972">
<ele>163.830200</ele>
<time>2010-07-17T14:29:35Z</time>
<desc>lat.=55.840668, lon.=26.085972, Alt.=163.830200m. Speed=0.360000m/h.</desc>
<speed>0.100000</speed>
</trkpt>
<trkpt lat="55.840668" lon="26.085974">
<ele>163.814575</ele>
<time>2010-07-17T14:29:36Z</time>
<desc>lat.=55.840668, lon.=26.085974, Alt.=163.814575m. Speed=0.072000m/h.</desc>
<speed>0.020000</speed>
</trkpt>
<trkpt lat="55.840668" lon="26.085974">
<ele>163.802856</ele>
<time>2010-07-17T14:29:37Z</time>
<desc>lat.=55.840668, lon.=26.085974, Alt.=163.802856m. Speed=0.144000m/h.</desc>
<speed>0.040000</speed>
</trkpt>
<trkpt lat="55.840668" lon="26.085974">
<ele>163.795044</ele>
<time>2010-07-17T14:29:38Z</time>
<desc>lat.=55.840668, lon.=26.085974, Alt.=163.795044m. Speed=0.036000m/h.</desc>
<speed>0.010000</speed>
</trkpt>
<trkpt lat="55.840668" lon="26.085974">
<ele>163.787231</ele>
<time>2010-07-17T14:29:39Z</time>
<desc>lat.=55.840668, lon.=26.085974, Alt.=163.787231m. Speed=0.072000m/h.</desc>
<speed>0.020000</speed>
</trkpt>
<trkpt lat="55.840668" lon="26.085974">
<ele>163.779419</ele>
<time>2010-07-17T14:29:40Z</time>
<desc>lat.=55.840668, lon.=26.085974, Alt.=163.779419m. Speed=0.180000m/h.</desc>
<speed>0.050000</speed>
</trkpt>
<trkpt lat="55.840668" lon="26.085974">
<ele>163.767700</ele>
<time>2010-07-17T14:29:41Z</time>
<desc>lat.=55.840668, lon.=26.085974, Alt.=163.767700m. Speed=0.072000m/h.</desc>
<speed>0.020000</speed>
</trkpt>
<trkpt lat="55.840668" lon="26.085976">
<ele>163.759888</ele>
<time>2010-07-17T14:29:42Z</time>
<desc>lat.=55.840668, lon.=26.085976, Alt.=163.759888m. Speed=0.072000m/h.</desc>
<speed>0.020000</speed>
</trkpt>
<trkpt lat="55.840668" lon="26.085974">
<ele>163.752075</ele>
<time>2010-07-17T14:29:43Z</time>
<desc>lat.=55.840668, lon.=26.085974, Alt.=163.752075m. Speed=0.036000m/h.</desc>
<speed>0.010000</speed>
</trkpt>
<trkpt lat="55.840668" lon="26.085976">
<ele>163.752075</ele>
<time>2010-07-17T14:29:44Z</time>
<desc>lat.=55.840668, lon.=26.085976, Alt.=163.752075m. Speed=0.036000m/h.</desc>
<speed>0.010000</speed>
</trkpt>
<trkpt lat="55.840668" lon="26.085976">
<ele>163.740356</ele>
<time>2010-07-17T14:29:45Z</time>
<desc>lat.=55.840668, lon.=26.085976, Alt.=163.740356m. Speed=0.108000m/h.</desc>
<speed>0.030000</speed>
</trkpt>
<trkpt lat="55.840668" lon="26.085976">
<ele>163.740356</ele>
<time>2010-07-17T14:29:46Z</time>
<desc>lat.=55.840668, lon.=26.085976, Alt.=163.740356m. Speed=0.288000m/h.</desc>
<speed>0.080000</speed>
</trkpt>
<trkpt lat="55.840668" lon="26.085976">
<ele>163.740356</ele>
<time>2010-07-17T14:29:47Z</time>
<desc>lat.=55.840668, lon.=26.085976, Alt.=163.740356m. Speed=0.720000m/h.</desc>
<speed>0.200000</speed>
</trkpt>
<trkpt lat="55.840668" lon="26.085976">
<ele>163.736450</ele>
<time>2010-07-17T14:29:48Z</time>
<desc>lat.=55.840668, lon.=26.085976, Alt.=163.736450m. Speed=0.072000m/h.</desc>
<speed>0.020000</speed>
</trkpt>
<trkpt lat="55.840668" lon="26.085976">
<ele>163.736450</ele>
<time>2010-07-17T14:29:49Z</time>
<desc>lat.=55.840668, lon.=26.085976, Alt.=163.736450m. Speed=0.144000m/h.</desc>
<speed>0.040000</speed>
</trkpt>
<trkpt lat="55.840668" lon="26.085976">
<ele>163.736450</ele>
<time>2010-07-17T14:29:50Z</time>
<desc>lat.=55.840668, lon.=26.085976, Alt.=163.736450m. Speed=0.108000m/h.</desc>
<speed>0.030000</speed>
</trkpt>
<trkpt lat="55.840668" lon="26.085974">
<ele>163.736450</ele>
<time>2010-07-17T14:29:51Z</time>
<desc>lat.=55.840668, lon.=26.085974, Alt.=163.736450m. Speed=0.216000m/h.</desc>
<speed>0.060000</speed>
</trkpt>
<trkpt lat="55.840668" lon="26.085974">
<ele>163.736450</ele>
<time>2010-07-17T14:29:52Z</time>
<desc>lat.=55.840668, lon.=26.085974, Alt.=163.736450m. Speed=0.288000m/h.</desc>
<speed>0.080000</speed>
</trkpt>
<trkpt lat="55.840668" lon="26.085974">
<ele>163.740356</ele>
<time>2010-07-17T14:29:53Z</time>
<desc>lat.=55.840668, lon.=26.085974, Alt.=163.740356m. Speed=0.252000m/h.</desc>
<speed>0.070000</speed>
</trkpt>
<trkpt lat="55.840668" lon="26.085972">
<ele>163.744263</ele>
<time>2010-07-17T14:29:54Z</time>
<desc>lat.=55.840668, lon.=26.085972, Alt.=163.744263m. Speed=2.772000m/h.</desc>
<speed>0.770000</speed>
</trkpt>
<trkpt lat="55.840672" lon="26.085962">
<ele>163.752075</ele>
<time>2010-07-17T14:29:55Z</time>
<desc>lat.=55.840672, lon.=26.085962, Alt.=163.752075m. Speed=10.260000m/h.</desc>
<speed>2.850000</speed>
</trkpt>
<trkpt lat="55.840694" lon="26.085911">
<ele>163.951294</ele>
<time>2010-07-17T14:29:56Z</time>
<desc>lat.=55.840694, lon.=26.085911, Alt.=163.951294m. Speed=14.436000m/h.</desc>
<speed>4.010000</speed>
</trkpt>
<trkpt lat="55.840717" lon="26.085848">
<ele>163.935669</ele>
<time>2010-07-17T14:29:57Z</time>
<desc>lat.=55.840717, lon.=26.085848, Alt.=163.935669m. Speed=15.624000m/h.</desc>
<speed>4.340000</speed>
</trkpt>
<trkpt lat="55.840736" lon="26.085775">
<ele>164.064575</ele>
<time>2010-07-17T14:29:58Z</time>
<desc>lat.=55.840736, lon.=26.085775, Alt.=164.064575m. Speed=15.984000m/h.</desc>
<speed>4.440000</speed>
</trkpt>
<trkpt lat="55.840763" lon="26.085703">
<ele>164.048950</ele>
<time>2010-07-17T14:29:59Z</time>
<desc>lat.=55.840763, lon.=26.085703, Alt.=164.048950m. Speed=16.020000m/h.</desc>
<speed>4.450000</speed>
</trkpt>
<trkpt lat="55.840782" lon="26.085623">
<ele>164.115356</ele>
<time>2010-07-17T14:30:00Z</time>
<desc>lat.=55.840782, lon.=26.085623, Alt.=164.115356m. Speed=16.488001m/h.</desc>
<speed>4.580000</speed>
</trkpt>
<trkpt lat="55.840797" lon="26.085539">
<ele>163.466919</ele>
<time>2010-07-17T14:30:01Z</time>
<desc>lat.=55.840797, lon.=26.085539, Alt.=163.466919m. Speed=16.488001m/h.</desc>
<speed>4.580000</speed>
</trkpt>
<trkpt lat="55.840816" lon="26.085461">
<ele>163.291138</ele>
<time>2010-07-17T14:30:02Z</time>
<desc>lat.=55.840816, lon.=26.085461, Alt.=163.291138m. Speed=16.667999m/h.</desc>
<speed>4.630000</speed>
</trkpt>
<trkpt lat="55.840836" lon="26.085382">
<ele>162.994263</ele>
<time>2010-07-17T14:30:03Z</time>
<desc>lat.=55.840836, lon.=26.085382, Alt.=162.994263m. Speed=16.200001m/h.</desc>
<speed>4.500000</speed>
</trkpt>
<trkpt lat="55.840851" lon="26.085299">
<ele>162.619263</ele>
<time>2010-07-17T14:30:04Z</time>
<desc>lat.=55.840851, lon.=26.085299, Alt.=162.619263m. Speed=16.308001m/h.</desc>
<speed>4.530000</speed>
</trkpt>
<trkpt lat="55.840862" lon="26.085224">
<ele>162.498169</ele>
<time>2010-07-17T14:30:05Z</time>
<desc>lat.=55.840862, lon.=26.085224, Alt.=162.498169m. Speed=16.344000m/h.</desc>
<speed>4.540000</speed>
</trkpt>
<trkpt lat="55.840878" lon="26.085150">
<ele>162.576294</ele>
<time>2010-07-17T14:30:06Z</time>
<desc>lat.=55.840878, lon.=26.085150, Alt.=162.576294m. Speed=16.128000m/h.</desc>
<speed>4.480000</speed>
</trkpt>
<trkpt lat="55.840885" lon="26.085068">
<ele>162.517700</ele>
<time>2010-07-17T14:30:07Z</time>
<desc>lat.=55.840885, lon.=26.085068, Alt.=162.517700m. Speed=15.912000m/h.</desc>
<speed>4.420000</speed>
</trkpt>
<trkpt lat="55.840897" lon="26.084986">
<ele>162.545044</ele>
<time>2010-07-17T14:30:08Z</time>
<desc>lat.=55.840897, lon.=26.084986, Alt.=162.545044m. Speed=15.912000m/h.</desc>
<speed>4.420000</speed>
</trkpt>
<trkpt lat="55.840912" lon="26.084913">
<ele>162.638794</ele>
<time>2010-07-17T14:30:09Z</time>
<desc>lat.=55.840912, lon.=26.084913, Alt.=162.638794m. Speed=16.236000m/h.</desc>
<speed>4.510000</speed>
</trkpt>
<trkpt lat="55.840923" lon="26.084845">
<ele>162.693481</ele>
<time>2010-07-17T14:30:10Z</time>
<desc>lat.=55.840923, lon.=26.084845, Alt.=162.693481m. Speed=15.660000m/h.</desc>
<speed>4.350000</speed>
</trkpt>
<trkpt lat="55.840939" lon="26.084774">
<ele>162.728638</ele>
<time>2010-07-17T14:30:11Z</time>
<desc>lat.=55.840939, lon.=26.084774, Alt.=162.728638m. Speed=16.488001m/h.</desc>
<speed>4.580000</speed>
</trkpt>
<trkpt lat="55.840950" lon="26.084703">
<ele>162.748169</ele>
<time>2010-07-17T14:30:12Z</time>
<desc>lat.=55.840950, lon.=26.084703, Alt.=162.748169m. Speed=16.416000m/h.</desc>
<speed>4.560000</speed>
</trkpt>
<trkpt lat="55.840961" lon="26.084627">
<ele>162.732544</ele>
<time>2010-07-17T14:30:13Z</time>
<desc>lat.=55.840961, lon.=26.084627, Alt.=162.732544m. Speed=16.848000m/h.</desc>
<speed>4.680000</speed>
</trkpt>
<trkpt lat="55.840973" lon="26.084553">
<ele>162.947388</ele>
<time>2010-07-17T14:30:14Z</time>
<desc>lat.=55.840973, lon.=26.084553, Alt.=162.947388m. Speed=17.351999m/h.</desc>
<speed>4.820000</speed>
</trkpt>
<trkpt lat="55.840988" lon="26.084480">
<ele>162.681763</ele>
<time>2010-07-17T14:30:15Z</time>
<desc>lat.=55.840988, lon.=26.084480, Alt.=162.681763m. Speed=17.747999m/h.</desc>
<speed>4.930000</speed>
</trkpt>
<trkpt lat="55.841000" lon="26.084402">
<ele>161.666138</ele>
<time>2010-07-17T14:30:16Z</time>
<desc>lat.=55.841000, lon.=26.084402, Alt.=161.666138m. Speed=17.639999m/h.</desc>
<speed>4.900000</speed>
</trkpt>
<trkpt lat="55.841011" lon="26.084328">
<ele>161.709106</ele>
<time>2010-07-17T14:30:17Z</time>
<desc>lat.=55.841011, lon.=26.084328, Alt.=161.709106m. Speed=16.667999m/h.</desc>
<speed>4.630000</speed>
</trkpt>
<trkpt lat="55.841026" lon="26.084255">
<ele>162.185669</ele>
<time>2010-07-17T14:30:18Z</time>
<desc>lat.=55.841026, lon.=26.084255, Alt.=162.185669m. Speed=16.524000m/h.</desc>
<speed>4.590000</speed>
</trkpt>
<trkpt lat="55.841038" lon="26.084181">
<ele>162.314575</ele>
<time>2010-07-17T14:30:19Z</time>
<desc>lat.=55.841038, lon.=26.084181, Alt.=162.314575m. Speed=17.892000m/h.</desc>
<speed>4.970000</speed>
</trkpt>
<trkpt lat="55.841053" lon="26.084101">
<ele>162.548950</ele>
<time>2010-07-17T14:30:20Z</time>
<desc>lat.=55.841053, lon.=26.084101, Alt.=162.548950m. Speed=18.504000m/h.</desc>
<speed>5.140000</speed>
</trkpt>
<trkpt lat="55.841064" lon="26.084019">
<ele>164.056763</ele>
<time>2010-07-17T14:30:21Z</time>
<desc>lat.=55.841064, lon.=26.084019, Alt.=164.056763m. Speed=17.424000m/h.</desc>
<speed>4.840000</speed>
</trkpt>
<trkpt lat="55.841072" lon="26.083941">
<ele>163.873169</ele>
<time>2010-07-17T14:30:22Z</time>
<desc>lat.=55.841072, lon.=26.083941, Alt.=163.873169m. Speed=16.091999m/h.</desc>
<speed>4.470000</speed>
</trkpt>
<trkpt lat="55.841087" lon="26.083876">
<ele>163.986450</ele>
<time>2010-07-17T14:30:23Z</time>
<desc>lat.=55.841087, lon.=26.083876, Alt.=163.986450m. Speed=15.552000m/h.</desc>
<speed>4.320000</speed>
</trkpt>
<trkpt lat="55.841099" lon="26.083805">
<ele>163.318481</ele>
<time>2010-07-17T14:30:24Z</time>
<desc>lat.=55.841099, lon.=26.083805, Alt.=163.318481m. Speed=14.436000m/h.</desc>
<speed>4.010000</speed>
</trkpt>
<trkpt lat="55.841110" lon="26.083735">
<ele>163.197388</ele>
<time>2010-07-17T14:30:25Z</time>
<desc>lat.=55.841110, lon.=26.083735, Alt.=163.197388m. Speed=14.472000m/h.</desc>
<speed>4.020000</speed>
</trkpt>
<trkpt lat="55.841125" lon="26.083664">
<ele>163.111450</ele>
<time>2010-07-17T14:30:26Z</time>
<desc>lat.=55.841125, lon.=26.083664, Alt.=163.111450m. Speed=15.768000m/h.</desc>
<speed>4.380000</speed>
</trkpt>
<trkpt lat="55.841137" lon="26.083595">
<ele>163.162231</ele>
<time>2010-07-17T14:30:27Z</time>
<desc>lat.=55.841137, lon.=26.083595, Alt.=163.162231m. Speed=16.271999m/h.</desc>
<speed>4.520000</speed>
</trkpt>
<trkpt lat="55.841152" lon="26.083527">
<ele>163.466919</ele>
<time>2010-07-17T14:30:28Z</time>
<desc>lat.=55.841152, lon.=26.083527, Alt.=163.466919m. Speed=17.496000m/h.</desc>
<speed>4.860000</speed>
</trkpt>
<trkpt lat="55.841164" lon="26.083450">
<ele>163.611450</ele>
<time>2010-07-17T14:30:29Z</time>
<desc>lat.=55.841164, lon.=26.083450, Alt.=163.611450m. Speed=18.216000m/h.</desc>
<speed>5.060000</speed>
</trkpt>
<trkpt lat="55.841175" lon="26.083361">
<ele>163.474731</ele>
<time>2010-07-17T14:30:30Z</time>
<desc>lat.=55.841175, lon.=26.083361, Alt.=163.474731m. Speed=21.672001m/h.</desc>
<speed>6.020000</speed>
</trkpt>
<trkpt lat="55.841190" lon="26.083263">
<ele>163.400513</ele>
<time>2010-07-17T14:30:31Z</time>
<desc>lat.=55.841190, lon.=26.083263, Alt.=163.400513m. Speed=20.916000m/h.</desc>
<speed>5.810000</speed>
</trkpt>
<trkpt lat="55.841206" lon="26.083168">
<ele>163.603638</ele>
<time>2010-07-17T14:30:32Z</time>
<desc>lat.=55.841206, lon.=26.083168, Alt.=163.603638m. Speed=22.139999m/h.</desc>
<speed>6.150000</speed>
</trkpt>
<trkpt lat="55.841221" lon="26.083071">
<ele>163.459106</ele>
<time>2010-07-17T14:30:33Z</time>
<desc>lat.=55.841221, lon.=26.083071, Alt.=163.459106m. Speed=23.256001m/h.</desc>
<speed>6.460000</speed>
</trkpt>
<trkpt lat="55.841236" lon="26.082964">
<ele>163.021606</ele>
<time>2010-07-17T14:30:34Z</time>
<desc>lat.=55.841236, lon.=26.082964, Alt.=163.021606m. Speed=24.011999m/h.</desc>
<speed>6.670000</speed>
</trkpt>
<trkpt lat="55.841255" lon="26.082857">
<ele>162.638794</ele>
<time>2010-07-17T14:30:35Z</time>
<desc>lat.=55.841255, lon.=26.082857, Alt.=162.638794m. Speed=24.516001m/h.</desc>
<speed>6.810000</speed>
</trkpt>
<trkpt lat="55.841274" lon="26.082756">
<ele>162.654419</ele>
<time>2010-07-17T14:30:36Z</time>
<desc>lat.=55.841274, lon.=26.082756, Alt.=162.654419m. Speed=24.804001m/h.</desc>
<speed>6.890000</speed>
</trkpt>
<trkpt lat="55.841297" lon="26.082666">
<ele>162.763794</ele>
<time>2010-07-17T14:30:37Z</time>
<desc>lat.=55.841297, lon.=26.082666, Alt.=162.763794m. Speed=24.804001m/h.</desc>
<speed>6.890000</speed>
</trkpt>
<trkpt lat="55.841320" lon="26.082569">
<ele>163.455200</ele>
<time>2010-07-17T14:30:38Z</time>
<desc>lat.=55.841320, lon.=26.082569, Alt.=163.455200m. Speed=24.480000m/h.</desc>
<speed>6.800000</speed>
</trkpt>
<trkpt lat="55.841339" lon="26.082468">
<ele>163.181763</ele>
<time>2010-07-17T14:30:39Z</time>
<desc>lat.=55.841339, lon.=26.082468, Alt.=163.181763m. Speed=23.796000m/h.</desc>
<speed>6.610000</speed>
</trkpt>
<trkpt lat="55.841351" lon="26.082359">
<ele>163.478638</ele>
<time>2010-07-17T14:30:40Z</time>
<desc>lat.=55.841351, lon.=26.082359, Alt.=163.478638m. Speed=22.500000m/h.</desc>
<speed>6.250000</speed>
</trkpt>
<trkpt lat="55.841366" lon="26.082264">
<ele>163.705200</ele>
<time>2010-07-17T14:30:41Z</time>
<desc>lat.=55.841366, lon.=26.082264, Alt.=163.705200m. Speed=22.104000m/h.</desc>
<speed>6.140000</speed>
</trkpt>
<trkpt lat="55.841385" lon="26.082174">
<ele>163.416138</ele>
<time>2010-07-17T14:30:42Z</time>
<desc>lat.=55.841385, lon.=26.082174, Alt.=163.416138m. Speed=21.420000m/h.</desc>
<speed>5.950000</speed>
</trkpt>
<trkpt lat="55.841400" lon="26.082085">
<ele>163.158325</ele>
<time>2010-07-17T14:30:43Z</time>
<desc>lat.=55.841400, lon.=26.082085, Alt.=163.158325m. Speed=21.420000m/h.</desc>
<speed>5.950000</speed>
</trkpt>
<trkpt lat="55.841415" lon="26.081993">
<ele>163.326294</ele>
<time>2010-07-17T14:30:44Z</time>
<desc>lat.=55.841415, lon.=26.081993, Alt.=163.326294m. Speed=21.672001m/h.</desc>
<speed>6.020000</speed>
</trkpt>
<trkpt lat="55.841427" lon="26.081898">
<ele>163.091919</ele>
<time>2010-07-17T14:30:45Z</time>
<desc>lat.=55.841427, lon.=26.081898, Alt.=163.091919m. Speed=20.952000m/h.</desc>
<speed>5.820000</speed>
</trkpt>
<trkpt lat="55.841442" lon="26.081804">
<ele>162.927856</ele>
<time>2010-07-17T14:30:46Z</time>
<desc>lat.=55.841442, lon.=26.081804, Alt.=162.927856m. Speed=21.851999m/h.</desc>
<speed>6.070000</speed>
</trkpt>
<trkpt lat="55.841461" lon="26.081715">
<ele>163.322388</ele>
<time>2010-07-17T14:30:47Z</time>
<desc>lat.=55.841461, lon.=26.081715, Alt.=163.322388m. Speed=20.160000m/h.</desc>
<speed>5.600000</speed>
</trkpt>
<trkpt lat="55.841476" lon="26.081629">
<ele>163.451294</ele>
<time>2010-07-17T14:30:48Z</time>
<desc>lat.=55.841476, lon.=26.081629, Alt.=163.451294m. Speed=19.260000m/h.</desc>
<speed>5.350000</speed>
</trkpt>
<trkpt lat="55.841496" lon="26.081549">
<ele>163.646606</ele>
<time>2010-07-17T14:30:49Z</time>
<desc>lat.=55.841496, lon.=26.081549, Alt.=163.646606m. Speed=19.152000m/h.</desc>
<speed>5.320000</speed>
</trkpt>
<trkpt lat="55.841511" lon="26.081470">
<ele>163.455200</ele>
<time>2010-07-17T14:30:50Z</time>
<desc>lat.=55.841511, lon.=26.081470, Alt.=163.455200m. Speed=18.000000m/h.</desc>
<speed>5.000000</speed>
</trkpt>
<trkpt lat="55.841526" lon="26.081396">
<ele>163.802856</ele>
<time>2010-07-17T14:30:51Z</time>
<desc>lat.=55.841526, lon.=26.081396, Alt.=163.802856m. Speed=17.532000m/h.</desc>
<speed>4.870000</speed>
</trkpt>
<trkpt lat="55.841537" lon="26.081318">
<ele>163.369263</ele>
<time>2010-07-17T14:30:52Z</time>
<desc>lat.=55.841537, lon.=26.081318, Alt.=163.369263m. Speed=17.063999m/h.</desc>
<speed>4.740000</speed>
</trkpt>
<trkpt lat="55.841553" lon="26.081249">
<ele>163.830200</ele>
<time>2010-07-17T14:30:53Z</time>
<desc>lat.=55.841553, lon.=26.081249, Alt.=163.830200m. Speed=16.488001m/h.</desc>
<speed>4.580000</speed>
</trkpt>
<trkpt lat="55.841568" lon="26.081179">
<ele>163.935669</ele>
<time>2010-07-17T14:30:54Z</time>
<desc>lat.=55.841568, lon.=26.081179, Alt.=163.935669m. Speed=16.236000m/h.</desc>
<speed>4.510000</speed>
</trkpt>
<trkpt lat="55.841587" lon="26.081114">
<ele>164.466919</ele>
<time>2010-07-17T14:30:55Z</time>
<desc>lat.=55.841587, lon.=26.081114, Alt.=164.466919m. Speed=16.308001m/h.</desc>
<speed>4.530000</speed>
</trkpt>
<trkpt lat="55.841606" lon="26.081047">
<ele>164.701294</ele>
<time>2010-07-17T14:30:56Z</time>
<desc>lat.=55.841606, lon.=26.081047, Alt.=164.701294m. Speed=16.559999m/h.</desc>
<speed>4.600000</speed>
</trkpt>
<trkpt lat="55.841621" lon="26.080978">
<ele>164.154419</ele>
<time>2010-07-17T14:30:57Z</time>
<desc>lat.=55.841621, lon.=26.080978, Alt.=164.154419m. Speed=16.452000m/h.</desc>
<speed>4.570000</speed>
</trkpt>
<trkpt lat="55.841640" lon="26.080910">
<ele>164.295044</ele>
<time>2010-07-17T14:30:58Z</time>
<desc>lat.=55.841640, lon.=26.080910, Alt.=164.295044m. Speed=16.524000m/h.</desc>
<speed>4.590000</speed>
</trkpt>
<trkpt lat="55.841660" lon="26.080845">
<ele>164.150513</ele>
<time>2010-07-17T14:30:59Z</time>
<desc>lat.=55.841660, lon.=26.080845, Alt.=164.150513m. Speed=15.876000m/h.</desc>
<speed>4.410000</speed>
</trkpt>
<trkpt lat="55.841679" lon="26.080784">
<ele>164.224731</ele>
<time>2010-07-17T14:31:00Z</time>
<desc>lat.=55.841679, lon.=26.080784, Alt.=164.224731m. Speed=15.552000m/h.</desc>
<speed>4.320000</speed>
</trkpt>
<trkpt lat="55.841702" lon="26.080721">
<ele>164.298950</ele>
<time>2010-07-17T14:31:01Z</time>
<desc>lat.=55.841702, lon.=26.080721, Alt.=164.298950m. Speed=15.588000m/h.</desc>
<speed>4.330000</speed>
</trkpt>
<trkpt lat="55.841721" lon="26.080660">
<ele>164.443481</ele>
<time>2010-07-17T14:31:02Z</time>
<desc>lat.=55.841721, lon.=26.080660, Alt.=164.443481m. Speed=15.588000m/h.</desc>
<speed>4.330000</speed>
</trkpt>
<trkpt lat="55.841736" lon="26.080599">
<ele>164.548950</ele>
<time>2010-07-17T14:31:03Z</time>
<desc>lat.=55.841736, lon.=26.080599, Alt.=164.548950m. Speed=16.200001m/h.</desc>
<speed>4.500000</speed>
</trkpt>
<trkpt lat="55.841755" lon="26.080536">
<ele>164.451294</ele>
<time>2010-07-17T14:31:04Z</time>
<desc>lat.=55.841755, lon.=26.080536, Alt.=164.451294m. Speed=16.992001m/h.</desc>
<speed>4.720000</speed>
</trkpt>
<trkpt lat="55.841774" lon="26.080465">
<ele>164.068481</ele>
<time>2010-07-17T14:31:05Z</time>
<desc>lat.=55.841774, lon.=26.080465, Alt.=164.068481m. Speed=17.496000m/h.</desc>
<speed>4.860000</speed>
</trkpt>
<trkpt lat="55.841797" lon="26.080391">
<ele>163.603638</ele>
<time>2010-07-17T14:31:06Z</time>
<desc>lat.=55.841797, lon.=26.080391, Alt.=163.603638m. Speed=18.576000m/h.</desc>
<speed>5.160000</speed>
</trkpt>
<trkpt lat="55.841820" lon="26.080318">
<ele>163.545044</ele>
<time>2010-07-17T14:31:07Z</time>
<desc>lat.=55.841820, lon.=26.080318, Alt.=163.545044m. Speed=19.188000m/h.</desc>
<speed>5.330000</speed>
</trkpt>
<trkpt lat="55.841843" lon="26.080244">
<ele>163.498169</ele>
<time>2010-07-17T14:31:08Z</time>
<desc>lat.=55.841843, lon.=26.080244, Alt.=163.498169m. Speed=19.836000m/h.</desc>
<speed>5.510000</speed>
</trkpt>
<trkpt lat="55.841869" lon="26.080162">
<ele>163.127075</ele>
<time>2010-07-17T14:31:09Z</time>
<desc>lat.=55.841869, lon.=26.080162, Alt.=163.127075m. Speed=20.412001m/h.</desc>
<speed>5.670000</speed>
</trkpt>
<trkpt lat="55.841896" lon="26.080080">
<ele>162.834106</ele>
<time>2010-07-17T14:31:10Z</time>
<desc>lat.=55.841896, lon.=26.080080, Alt.=162.834106m. Speed=20.736000m/h.</desc>
<speed>5.760000</speed>
</trkpt>
<trkpt lat="55.841919" lon="26.079998">
<ele>162.443481</ele>
<time>2010-07-17T14:31:11Z</time>
<desc>lat.=55.841919, lon.=26.079998, Alt.=162.443481m. Speed=21.384001m/h.</desc>
<speed>5.940000</speed>
</trkpt>
<trkpt lat="55.841946" lon="26.079912">
<ele>162.099731</ele>
<time>2010-07-17T14:31:12Z</time>
<desc>lat.=55.841946, lon.=26.079912, Alt.=162.099731m. Speed=21.528000m/h.</desc>
<speed>5.980000</speed>
</trkpt>
<trkpt lat="55.841972" lon="26.079828">
<ele>161.740356</ele>
<time>2010-07-17T14:31:13Z</time>
<desc>lat.=55.841972, lon.=26.079828, Alt.=161.740356m. Speed=21.780001m/h.</desc>
<speed>6.050000</speed>
</trkpt>
<trkpt lat="55.841995" lon="26.079741">
<ele>160.908325</ele>
<time>2010-07-17T14:31:14Z</time>
<desc>lat.=55.841995, lon.=26.079741, Alt.=160.908325m. Speed=22.032000m/h.</desc>
<speed>6.120000</speed>
</trkpt>
<trkpt lat="55.842018" lon="26.079655">
<ele>160.408325</ele>
<time>2010-07-17T14:31:15Z</time>
<desc>lat.=55.842018, lon.=26.079655, Alt.=160.408325m. Speed=22.139999m/h.</desc>
<speed>6.150000</speed>
</trkpt>
<trkpt lat="55.842045" lon="26.079569">
<ele>160.037231</ele>
<time>2010-07-17T14:31:16Z</time>
<desc>lat.=55.842045, lon.=26.079569, Alt.=160.037231m. Speed=21.348000m/h.</desc>
<speed>5.930000</speed>
</trkpt>
<trkpt lat="55.842072" lon="26.079489">
<ele>159.673950</ele>
<time>2010-07-17T14:31:17Z</time>
<desc>lat.=55.842072, lon.=26.079489, Alt.=159.673950m. Speed=20.124001m/h.</desc>
<speed>5.590000</speed>
</trkpt>
<trkpt lat="55.842094" lon="26.079420">
<ele>159.279419</ele>
<time>2010-07-17T14:31:18Z</time>
<desc>lat.=55.842094, lon.=26.079420, Alt.=159.279419m. Speed=17.712000m/h.</desc>
<speed>4.920000</speed>
</trkpt>
<trkpt lat="55.842121" lon="26.079359">
<ele>159.314575</ele>
<time>2010-07-17T14:31:19Z</time>
<desc>lat.=55.842121, lon.=26.079359, Alt.=159.314575m. Speed=16.632000m/h.</desc>
<speed>4.620000</speed>
</trkpt>
<trkpt lat="55.842140" lon="26.079294">
<ele>159.459106</ele>
<time>2010-07-17T14:31:20Z</time>
<desc>lat.=55.842140, lon.=26.079294, Alt.=159.459106m. Speed=16.704000m/h.</desc>
<speed>4.640000</speed>
</trkpt>
<trkpt lat="55.842163" lon="26.079231">
<ele>159.755981</ele>
<time>2010-07-17T14:31:21Z</time>
<desc>lat.=55.842163, lon.=26.079231, Alt.=159.755981m. Speed=17.459999m/h.</desc>
<speed>4.850000</speed>
</trkpt>
<trkpt lat="55.842190" lon="26.079170">
<ele>160.349731</ele>
<time>2010-07-17T14:31:22Z</time>
<desc>lat.=55.842190, lon.=26.079170, Alt.=160.349731m. Speed=16.416000m/h.</desc>
<speed>4.560000</speed>
</trkpt>
<trkpt lat="55.842209" lon="26.079111">
<ele>160.673950</ele>
<time>2010-07-17T14:31:23Z</time>
<desc>lat.=55.842209, lon.=26.079111, Alt.=160.673950m. Speed=15.696000m/h.</desc>
<speed>4.360000</speed>
</trkpt>
<trkpt lat="55.842228" lon="26.079056">
<ele>161.533325</ele>
<time>2010-07-17T14:31:24Z</time>
<desc>lat.=55.842228, lon.=26.079056, Alt.=161.533325m. Speed=15.768000m/h.</desc>
<speed>4.380000</speed>
</trkpt>
<trkpt lat="55.842247" lon="26.078989">
<ele>161.134888</ele>
<time>2010-07-17T14:31:25Z</time>
<desc>lat.=55.842247, lon.=26.078989, Alt.=161.134888m. Speed=16.559999m/h.</desc>
<speed>4.600000</speed>
</trkpt>
<trkpt lat="55.842270" lon="26.078920">
<ele>160.826294</ele>
<time>2010-07-17T14:31:26Z</time>
<desc>lat.=55.842270, lon.=26.078920, Alt.=160.826294m. Speed=17.459999m/h.</desc>
<speed>4.850000</speed>
</trkpt>
<trkpt lat="55.842293" lon="26.078850">
<ele>160.509888</ele>
<time>2010-07-17T14:31:27Z</time>
<desc>lat.=55.842293, lon.=26.078850, Alt.=160.509888m. Speed=18.756001m/h.</desc>
<speed>5.210000</speed>
</trkpt>
<trkpt lat="55.842312" lon="26.078777">
<ele>159.748169</ele>
<time>2010-07-17T14:31:28Z</time>
<desc>lat.=55.842312, lon.=26.078777, Alt.=159.748169m. Speed=18.864000m/h.</desc>
<speed>5.240000</speed>
</trkpt>
<trkpt lat="55.842335" lon="26.078705">
<ele>159.560669</ele>
<time>2010-07-17T14:31:29Z</time>
<desc>lat.=55.842335, lon.=26.078705, Alt.=159.560669m. Speed=19.620001m/h.</desc>
<speed>5.450000</speed>
</trkpt>
<trkpt lat="55.842361" lon="26.078632">
<ele>159.279419</ele>
<time>2010-07-17T14:31:30Z</time>
<desc>lat.=55.842361, lon.=26.078632, Alt.=159.279419m. Speed=19.980000m/h.</desc>
<speed>5.550000</speed>
</trkpt>
<trkpt lat="55.842388" lon="26.078560">
<ele>159.037231</ele>
<time>2010-07-17T14:31:31Z</time>
<desc>lat.=55.842388, lon.=26.078560, Alt.=159.037231m. Speed=19.944000m/h.</desc>
<speed>5.540000</speed>
</trkpt>
<trkpt lat="55.842415" lon="26.078485">
<ele>158.724731</ele>
<time>2010-07-17T14:31:32Z</time>
<desc>lat.=55.842415, lon.=26.078485, Alt.=158.724731m. Speed=19.584000m/h.</desc>
<speed>5.440000</speed>
</trkpt>
<trkpt lat="55.842442" lon="26.078411">
<ele>158.486450</ele>
<time>2010-07-17T14:31:33Z</time>
<desc>lat.=55.842442, lon.=26.078411, Alt.=158.486450m. Speed=20.087999m/h.</desc>
<speed>5.580000</speed>
</trkpt>
<trkpt lat="55.842468" lon="26.078333">
<ele>158.494263</ele>
<time>2010-07-17T14:31:34Z</time>
<desc>lat.=55.842468, lon.=26.078333, Alt.=158.494263m. Speed=20.808001m/h.</desc>
<speed>5.780000</speed>
</trkpt>
<trkpt lat="55.842491" lon="26.078253">
<ele>158.310669</ele>
<time>2010-07-17T14:31:35Z</time>
<desc>lat.=55.842491, lon.=26.078253, Alt.=158.310669m. Speed=20.879999m/h.</desc>
<speed>5.800000</speed>
</trkpt>
<trkpt lat="55.842522" lon="26.078176">
<ele>159.111450</ele>
<time>2010-07-17T14:31:36Z</time>
<desc>lat.=55.842522, lon.=26.078176, Alt.=159.111450m. Speed=20.448000m/h.</desc>
<speed>5.680000</speed>
</trkpt>
<trkpt lat="55.842548" lon="26.078100">
<ele>159.474731</ele>
<time>2010-07-17T14:31:37Z</time>
<desc>lat.=55.842548, lon.=26.078100, Alt.=159.474731m. Speed=20.016001m/h.</desc>
<speed>5.560000</speed>
</trkpt>
<trkpt lat="55.842575" lon="26.078020">
<ele>159.943481</ele>
<time>2010-07-17T14:31:38Z</time>
<desc>lat.=55.842575, lon.=26.078020, Alt.=159.943481m. Speed=19.980000m/h.</desc>
<speed>5.550000</speed>
</trkpt>
<trkpt lat="55.842602" lon="26.077946">
<ele>160.056763</ele>
<time>2010-07-17T14:31:39Z</time>
<desc>lat.=55.842602, lon.=26.077946, Alt.=160.056763m. Speed=19.115999m/h.</desc>
<speed>5.310000</speed>
</trkpt>
<trkpt lat="55.842625" lon="26.077871">
<ele>160.150513</ele>
<time>2010-07-17T14:31:40Z</time>
<desc>lat.=55.842625, lon.=26.077871, Alt.=160.150513m. Speed=19.440001m/h.</desc>
<speed>5.400000</speed>
</trkpt>
<trkpt lat="55.842651" lon="26.077797">
<ele>160.302856</ele>
<time>2010-07-17T14:31:41Z</time>
<desc>lat.=55.842651, lon.=26.077797, Alt.=160.302856m. Speed=19.296000m/h.</desc>
<speed>5.360000</speed>
</trkpt>
<trkpt lat="55.842674" lon="26.077723">
<ele>160.373169</ele>
<time>2010-07-17T14:31:42Z</time>
<desc>lat.=55.842674, lon.=26.077723, Alt.=160.373169m. Speed=18.936001m/h.</desc>
<speed>5.260000</speed>
</trkpt>
<trkpt lat="55.842697" lon="26.077652">
<ele>160.513794</ele>
<time>2010-07-17T14:31:43Z</time>
<desc>lat.=55.842697, lon.=26.077652, Alt.=160.513794m. Speed=18.719999m/h.</desc>
<speed>5.200000</speed>
</trkpt>
<trkpt lat="55.842720" lon="26.077579">
<ele>160.295044</ele>
<time>2010-07-17T14:31:44Z</time>
<desc>lat.=55.842720, lon.=26.077579, Alt.=160.295044m. Speed=18.396000m/h.</desc>
<speed>5.110000</speed>
</trkpt>
<trkpt lat="55.842743" lon="26.077509">
<ele>160.513794</ele>
<time>2010-07-17T14:31:45Z</time>
<desc>lat.=55.842743, lon.=26.077509, Alt.=160.513794m. Speed=18.323999m/h.</desc>
<speed>5.090000</speed>
</trkpt>
<trkpt lat="55.842766" lon="26.077438">
<ele>160.580200</ele>
<time>2010-07-17T14:31:46Z</time>
<desc>lat.=55.842766, lon.=26.077438, Alt.=160.580200m. Speed=18.288000m/h.</desc>
<speed>5.080000</speed>
</trkpt>
<trkpt lat="55.842789" lon="26.077374">
<ele>160.892700</ele>
<time>2010-07-17T14:31:47Z</time>
<desc>lat.=55.842789, lon.=26.077374, Alt.=160.892700m. Speed=18.108000m/h.</desc>
<speed>5.030000</speed>
</trkpt>
<trkpt lat="55.842812" lon="26.077303">
<ele>160.994263</ele>
<time>2010-07-17T14:31:48Z</time>
<desc>lat.=55.842812, lon.=26.077303, Alt.=160.994263m. Speed=18.540001m/h.</desc>
<speed>5.150000</speed>
</trkpt>
<trkpt lat="55.842834" lon="26.077230">
<ele>161.107544</ele>
<time>2010-07-17T14:31:49Z</time>
<desc>lat.=55.842834, lon.=26.077230, Alt.=161.107544m. Speed=18.180000m/h.</desc>
<speed>5.050000</speed>
</trkpt>
<trkpt lat="55.842857" lon="26.077158">
<ele>161.209106</ele>
<time>2010-07-17T14:31:50Z</time>
<desc>lat.=55.842857, lon.=26.077158, Alt.=161.209106m. Speed=17.712000m/h.</desc>
<speed>4.920000</speed>
</trkpt>
<trkpt lat="55.842876" lon="26.077091">
<ele>161.404419</ele>
<time>2010-07-17T14:31:51Z</time>
<desc>lat.=55.842876, lon.=26.077091, Alt.=161.404419m. Speed=17.568001m/h.</desc>
<speed>4.880000</speed>
</trkpt>
<trkpt lat="55.842899" lon="26.077021">
<ele>161.314575</ele>
<time>2010-07-17T14:31:52Z</time>
<desc>lat.=55.842899, lon.=26.077021, Alt.=161.314575m. Speed=17.496000m/h.</desc>
<speed>4.860000</speed>
</trkpt>
<trkpt lat="55.842922" lon="26.076956">
<ele>161.365356</ele>
<time>2010-07-17T14:31:53Z</time>
<desc>lat.=55.842922, lon.=26.076956, Alt.=161.365356m. Speed=17.388000m/h.</desc>
<speed>4.830000</speed>
</trkpt>
<trkpt lat="55.842949" lon="26.076897">
<ele>161.463013</ele>
<time>2010-07-17T14:31:54Z</time>
<desc>lat.=55.842949, lon.=26.076897, Alt.=161.463013m. Speed=16.271999m/h.</desc>
<speed>4.520000</speed>
</trkpt>
<trkpt lat="55.842968" lon="26.076841">
<ele>161.576294</ele>
<time>2010-07-17T14:31:55Z</time>
<desc>lat.=55.842968, lon.=26.076841, Alt.=161.576294m. Speed=15.840000m/h.</desc>
<speed>4.400000</speed>
</trkpt>
<trkpt lat="55.842991" lon="26.076780">
<ele>161.666138</ele>
<time>2010-07-17T14:31:56Z</time>
<desc>lat.=55.842991, lon.=26.076780, Alt.=161.666138m. Speed=16.308001m/h.</desc>
<speed>4.530000</speed>
</trkpt>
<trkpt lat="55.843010" lon="26.076717">
<ele>161.689575</ele>
<time>2010-07-17T14:31:57Z</time>
<desc>lat.=55.843010, lon.=26.076717, Alt.=161.689575m. Speed=16.128000m/h.</desc>
<speed>4.480000</speed>
</trkpt>
<trkpt lat="55.843033" lon="26.076658">
<ele>161.767700</ele>
<time>2010-07-17T14:31:58Z</time>
<desc>lat.=55.843033, lon.=26.076658, Alt.=161.767700m. Speed=16.524000m/h.</desc>
<speed>4.590000</speed>
</trkpt>
<trkpt lat="55.843056" lon="26.076601">
<ele>161.884888</ele>
<time>2010-07-17T14:31:59Z</time>
<desc>lat.=55.843056, lon.=26.076601, Alt.=161.884888m. Speed=16.596001m/h.</desc>
<speed>4.610000</speed>
</trkpt>
<trkpt lat="55.843079" lon="26.076538">
<ele>161.877075</ele>
<time>2010-07-17T14:32:00Z</time>
<desc>lat.=55.843079, lon.=26.076538, Alt.=161.877075m. Speed=17.927999m/h.</desc>
<speed>4.980000</speed>
</trkpt>
<trkpt lat="55.843102" lon="26.076471">
<ele>161.834106</ele>
<time>2010-07-17T14:32:01Z</time>
<desc>lat.=55.843102, lon.=26.076471, Alt.=161.834106m. Speed=18.684000m/h.</desc>
<speed>5.190000</speed>
</trkpt>
<trkpt lat="55.843128" lon="26.076399">
<ele>161.548950</ele>
<time>2010-07-17T14:32:02Z</time>
<desc>lat.=55.843128, lon.=26.076399, Alt.=161.548950m. Speed=19.620001m/h.</desc>
<speed>5.450000</speed>
</trkpt>
<trkpt lat="55.843155" lon="26.076321">
<ele>161.248169</ele>
<time>2010-07-17T14:32:03Z</time>
<desc>lat.=55.843155, lon.=26.076321, Alt.=161.248169m. Speed=20.916000m/h.</desc>
<speed>5.810000</speed>
</trkpt>
<trkpt lat="55.843182" lon="26.076239">
<ele>160.685669</ele>
<time>2010-07-17T14:32:04Z</time>
<desc>lat.=55.843182, lon.=26.076239, Alt.=160.685669m. Speed=22.284000m/h.</desc>
<speed>6.190000</speed>
</trkpt>
<trkpt lat="55.843212" lon="26.076153">
<ele>160.404419</ele>
<time>2010-07-17T14:32:05Z</time>
<desc>lat.=55.843212, lon.=26.076153, Alt.=160.404419m. Speed=23.507999m/h.</desc>
<speed>6.530000</speed>
</trkpt>
<trkpt lat="55.843243" lon="26.076061">
<ele>160.029419</ele>
<time>2010-07-17T14:32:06Z</time>
<desc>lat.=55.843243, lon.=26.076061, Alt.=160.029419m. Speed=24.084000m/h.</desc>
<speed>6.690000</speed>
</trkpt>
<trkpt lat="55.843269" lon="26.075970">
<ele>159.728638</ele>
<time>2010-07-17T14:32:07Z</time>
<desc>lat.=55.843269, lon.=26.075970, Alt.=159.728638m. Speed=24.264000m/h.</desc>
<speed>6.740000</speed>
</trkpt>
<trkpt lat="55.843300" lon="26.075878">
<ele>159.548950</ele>
<time>2010-07-17T14:32:08Z</time>
<desc>lat.=55.843300, lon.=26.075878, Alt.=159.548950m. Speed=24.156000m/h.</desc>
<speed>6.710000</speed>
</trkpt>
<trkpt lat="55.843330" lon="26.075790">
<ele>159.689575</ele>
<time>2010-07-17T14:32:09Z</time>
<desc>lat.=55.843330, lon.=26.075790, Alt.=159.689575m. Speed=23.724001m/h.</desc>
<speed>6.590000</speed>
</trkpt>
<trkpt lat="55.843361" lon="26.075703">
<ele>159.646606</ele>
<time>2010-07-17T14:32:10Z</time>
<desc>lat.=55.843361, lon.=26.075703, Alt.=159.646606m. Speed=22.752001m/h.</desc>
<speed>6.320000</speed>
</trkpt>
<trkpt lat="55.843388" lon="26.075619">
<ele>159.818481</ele>
<time>2010-07-17T14:32:11Z</time>
<desc>lat.=55.843388, lon.=26.075619, Alt.=159.818481m. Speed=21.708000m/h.</desc>
<speed>6.030000</speed>
</trkpt>
<trkpt lat="55.843414" lon="26.075537">
<ele>159.974731</ele>
<time>2010-07-17T14:32:12Z</time>
<desc>lat.=55.843414, lon.=26.075537, Alt.=159.974731m. Speed=20.304001m/h.</desc>
<speed>5.640000</speed>
</trkpt>
<trkpt lat="55.843437" lon="26.075464">
<ele>160.127075</ele>
<time>2010-07-17T14:32:13Z</time>
<desc>lat.=55.843437, lon.=26.075464, Alt.=160.127075m. Speed=18.864000m/h.</desc>
<speed>5.240000</speed>
</trkpt>
<trkpt lat="55.843460" lon="26.075394">
<ele>160.193481</ele>
<time>2010-07-17T14:32:14Z</time>
<desc>lat.=55.843460, lon.=26.075394, Alt.=160.193481m. Speed=18.431999m/h.</desc>
<speed>5.120000</speed>
</trkpt>
<trkpt lat="55.843483" lon="26.075323">
<ele>160.150513</ele>
<time>2010-07-17T14:32:15Z</time>
<desc>lat.=55.843483, lon.=26.075323, Alt.=160.150513m. Speed=18.612000m/h.</desc>
<speed>5.170000</speed>
</trkpt>
<trkpt lat="55.843510" lon="26.075253">
<ele>160.416138</ele>
<time>2010-07-17T14:32:16Z</time>
<desc>lat.=55.843510, lon.=26.075253, Alt.=160.416138m. Speed=18.684000m/h.</desc>
<speed>5.190000</speed>
</trkpt>
<trkpt lat="55.843533" lon="26.075182">
<ele>160.564575</ele>
<time>2010-07-17T14:32:17Z</time>
<desc>lat.=55.843533, lon.=26.075182, Alt.=160.564575m. Speed=18.648001m/h.</desc>
<speed>5.180000</speed>
</trkpt>
<trkpt lat="55.843555" lon="26.075106">
<ele>160.416138</ele>
<time>2010-07-17T14:32:18Z</time>
<desc>lat.=55.843555, lon.=26.075106, Alt.=160.416138m. Speed=18.648001m/h.</desc>
<speed>5.180000</speed>
</trkpt>
<trkpt lat="55.843578" lon="26.075033">
<ele>160.537231</ele>
<time>2010-07-17T14:32:19Z</time>
<desc>lat.=55.843578, lon.=26.075033, Alt.=160.537231m. Speed=18.360001m/h.</desc>
<speed>5.100000</speed>
</trkpt>
<trkpt lat="55.843601" lon="26.074965">
<ele>160.689575</ele>
<time>2010-07-17T14:32:20Z</time>
<desc>lat.=55.843601, lon.=26.074965, Alt.=160.689575m. Speed=18.000000m/h.</desc>
<speed>5.000000</speed>
</trkpt>
<trkpt lat="55.843632" lon="26.074902">
<ele>161.380981</ele>
<time>2010-07-17T14:32:21Z</time>
<desc>lat.=55.843632, lon.=26.074902, Alt.=161.380981m. Speed=17.172001m/h.</desc>
<speed>4.770000</speed>
</trkpt>
<trkpt lat="55.843658" lon="26.074839">
<ele>161.748169</ele>
<time>2010-07-17T14:32:22Z</time>
<desc>lat.=55.843658, lon.=26.074839, Alt.=161.748169m. Speed=17.136000m/h.</desc>
<speed>4.760000</speed>
</trkpt>
<trkpt lat="55.843681" lon="26.074776">
<ele>162.091919</ele>
<time>2010-07-17T14:32:23Z</time>
<desc>lat.=55.843681, lon.=26.074776, Alt.=162.091919m. Speed=16.596001m/h.</desc>
<speed>4.610000</speed>
</trkpt>
<trkpt lat="55.843700" lon="26.074711">
<ele>162.353638</ele>
<time>2010-07-17T14:32:24Z</time>
<desc>lat.=55.843700, lon.=26.074711, Alt.=162.353638m. Speed=15.876000m/h.</desc>
<speed>4.410000</speed>
</trkpt>
<trkpt lat="55.843719" lon="26.074652">
<ele>162.486450</ele>
<time>2010-07-17T14:32:25Z</time>
<desc>lat.=55.843719, lon.=26.074652, Alt.=162.486450m. Speed=15.192000m/h.</desc>
<speed>4.220000</speed>
</trkpt>
<trkpt lat="55.843739" lon="26.074596">
<ele>162.591919</ele>
<time>2010-07-17T14:32:26Z</time>
<desc>lat.=55.843739, lon.=26.074596, Alt.=162.591919m. Speed=14.220000m/h.</desc>
<speed>3.950000</speed>
</trkpt>
<trkpt lat="55.843758" lon="26.074547">
<ele>162.701294</ele>
<time>2010-07-17T14:32:27Z</time>
<desc>lat.=55.843758, lon.=26.074547, Alt.=162.701294m. Speed=12.600000m/h.</desc>
<speed>3.500000</speed>
</trkpt>
<trkpt lat="55.843769" lon="26.074503">
<ele>162.713013</ele>
<time>2010-07-17T14:32:28Z</time>
<desc>lat.=55.843769, lon.=26.074503, Alt.=162.713013m. Speed=11.124000m/h.</desc>
<speed>3.090000</speed>
</trkpt>
<trkpt lat="55.843781" lon="26.074461">
<ele>162.779419</ele>
<time>2010-07-17T14:32:29Z</time>
<desc>lat.=55.843781, lon.=26.074461, Alt.=162.779419m. Speed=9.936000m/h.</desc>
<speed>2.760000</speed>
</trkpt>
<trkpt lat="55.843792" lon="26.074425">
<ele>162.654419</ele>
<time>2010-07-17T14:32:30Z</time>
<desc>lat.=55.843792, lon.=26.074425, Alt.=162.654419m. Speed=8.892000m/h.</desc>
<speed>2.470000</speed>
</trkpt>
<trkpt lat="55.843796" lon="26.074389">
<ele>162.377075</ele>
<time>2010-07-17T14:32:31Z</time>
<desc>lat.=55.843796, lon.=26.074389, Alt.=162.377075m. Speed=8.604000m/h.</desc>
<speed>2.390000</speed>
</trkpt>
<trkpt lat="55.843807" lon="26.074348">
<ele>161.955200</ele>
<time>2010-07-17T14:32:32Z</time>
<desc>lat.=55.843807, lon.=26.074348, Alt.=161.955200m. Speed=10.008000m/h.</desc>
<speed>2.780000</speed>
</trkpt>
<trkpt lat="55.843815" lon="26.074297">
<ele>161.697388</ele>
<time>2010-07-17T14:32:33Z</time>
<desc>lat.=55.843815, lon.=26.074297, Alt.=161.697388m. Speed=13.824000m/h.</desc>
<speed>3.840000</speed>
</trkpt>
<trkpt lat="55.843826" lon="26.074238">
<ele>161.466919</ele>
<time>2010-07-17T14:32:34Z</time>
<desc>lat.=55.843826, lon.=26.074238, Alt.=161.466919m. Speed=15.228000m/h.</desc>
<speed>4.230000</speed>
</trkpt>
<trkpt lat="55.843845" lon="26.074171">
<ele>161.197388</ele>
<time>2010-07-17T14:32:35Z</time>
<desc>lat.=55.843845, lon.=26.074171, Alt.=161.197388m. Speed=16.308001m/h.</desc>
<speed>4.530000</speed>
</trkpt>
<trkpt lat="55.843868" lon="26.074108">
<ele>161.088013</ele>
<time>2010-07-17T14:32:36Z</time>
<desc>lat.=55.843868, lon.=26.074108, Alt.=161.088013m. Speed=16.812000m/h.</desc>
<speed>4.670000</speed>
</trkpt>
<trkpt lat="55.843887" lon="26.074039">
<ele>160.955200</ele>
<time>2010-07-17T14:32:37Z</time>
<desc>lat.=55.843887, lon.=26.074039, Alt.=160.955200m. Speed=18.143999m/h.</desc>
<speed>5.040000</speed>
</trkpt>
<trkpt lat="55.843914" lon="26.073967">
<ele>160.838013</ele>
<time>2010-07-17T14:32:38Z</time>
<desc>lat.=55.843914, lon.=26.073967, Alt.=160.838013m. Speed=18.936001m/h.</desc>
<speed>5.260000</speed>
</trkpt>
<trkpt lat="55.843941" lon="26.073898">
<ele>161.021606</ele>
<time>2010-07-17T14:32:39Z</time>
<desc>lat.=55.843941, lon.=26.073898, Alt.=161.021606m. Speed=20.052000m/h.</desc>
<speed>5.570000</speed>
</trkpt>
<trkpt lat="55.843964" lon="26.073820">
<ele>160.826294</ele>
<time>2010-07-17T14:32:40Z</time>
<desc>lat.=55.843964, lon.=26.073820, Alt.=160.826294m. Speed=20.988001m/h.</desc>
<speed>5.830000</speed>
</trkpt>
<trkpt lat="55.843987" lon="26.073742">
<ele>160.779419</ele>
<time>2010-07-17T14:32:41Z</time>
<desc>lat.=55.843987, lon.=26.073742, Alt.=160.779419m. Speed=20.412001m/h.</desc>
<speed>5.670000</speed>
</trkpt>
<trkpt lat="55.844009" lon="26.073666">
<ele>160.822388</ele>
<time>2010-07-17T14:32:42Z</time>
<desc>lat.=55.844009, lon.=26.073666, Alt.=160.822388m. Speed=19.620001m/h.</desc>
<speed>5.450000</speed>
</trkpt>
<trkpt lat="55.844032" lon="26.073593">
<ele>160.759888</ele>
<time>2010-07-17T14:32:43Z</time>
<desc>lat.=55.844032, lon.=26.073593, Alt.=160.759888m. Speed=19.332001m/h.</desc>
<speed>5.370000</speed>
</trkpt>
<trkpt lat="55.844055" lon="26.073513">
<ele>160.892700</ele>
<time>2010-07-17T14:32:44Z</time>
<desc>lat.=55.844055, lon.=26.073513, Alt.=160.892700m. Speed=19.620001m/h.</desc>
<speed>5.450000</speed>
</trkpt>
<trkpt lat="55.844082" lon="26.073437">
<ele>160.904419</ele>
<time>2010-07-17T14:32:45Z</time>
<desc>lat.=55.844082, lon.=26.073437, Alt.=160.904419m. Speed=19.656000m/h.</desc>
<speed>5.460000</speed>
</trkpt>
<trkpt lat="55.844109" lon="26.073359">
<ele>160.986450</ele>
<time>2010-07-17T14:32:46Z</time>
<desc>lat.=55.844109, lon.=26.073359, Alt.=160.986450m. Speed=20.232000m/h.</desc>
<speed>5.620000</speed>
</trkpt>
<trkpt lat="55.844135" lon="26.073284">
<ele>161.283325</ele>
<time>2010-07-17T14:32:47Z</time>
<desc>lat.=55.844135, lon.=26.073284, Alt.=161.283325m. Speed=19.188000m/h.</desc>
<speed>5.330000</speed>
</trkpt>
<trkpt lat="55.844158" lon="26.073206">
<ele>161.416138</ele>
<time>2010-07-17T14:32:48Z</time>
<desc>lat.=55.844158, lon.=26.073206, Alt.=161.416138m. Speed=18.719999m/h.</desc>
<speed>5.200000</speed>
</trkpt>
<trkpt lat="55.844185" lon="26.073135">
<ele>161.216919</ele>
<time>2010-07-17T14:32:49Z</time>
<desc>lat.=55.844185, lon.=26.073135, Alt.=161.216919m. Speed=19.115999m/h.</desc>
<speed>5.310000</speed>
</trkpt>
<trkpt lat="55.844215" lon="26.073065">
<ele>161.259888</ele>
<time>2010-07-17T14:32:50Z</time>
<desc>lat.=55.844215, lon.=26.073065, Alt.=161.259888m. Speed=19.115999m/h.</desc>
<speed>5.310000</speed>
</trkpt>
<trkpt lat="55.844242" lon="26.072994">
<ele>161.283325</ele>
<time>2010-07-17T14:32:51Z</time>
<desc>lat.=55.844242, lon.=26.072994, Alt.=161.283325m. Speed=18.719999m/h.</desc>
<speed>5.200000</speed>
</trkpt>
<trkpt lat="55.844265" lon="26.072926">
<ele>161.392700</ele>
<time>2010-07-17T14:32:52Z</time>
<desc>lat.=55.844265, lon.=26.072926, Alt.=161.392700m. Speed=18.108000m/h.</desc>
<speed>5.030000</speed>
</trkpt>
<trkpt lat="55.844292" lon="26.072857">
<ele>161.431763</ele>
<time>2010-07-17T14:32:53Z</time>
<desc>lat.=55.844292, lon.=26.072857, Alt.=161.431763m. Speed=18.143999m/h.</desc>
<speed>5.040000</speed>
</trkpt>
<trkpt lat="55.844318" lon="26.072790">
<ele>161.447388</ele>
<time>2010-07-17T14:32:54Z</time>
<desc>lat.=55.844318, lon.=26.072790, Alt.=161.447388m. Speed=18.684000m/h.</desc>
<speed>5.190000</speed>
</trkpt>
<trkpt lat="55.844345" lon="26.072725">
<ele>161.396606</ele>
<time>2010-07-17T14:32:55Z</time>
<desc>lat.=55.844345, lon.=26.072725, Alt.=161.396606m. Speed=18.431999m/h.</desc>
<speed>5.120000</speed>
</trkpt>
<trkpt lat="55.844383" lon="26.072670">
<ele>162.588013</ele>
<time>2010-07-17T14:32:56Z</time>
<desc>lat.=55.844383, lon.=26.072670, Alt.=162.588013m. Speed=18.288000m/h.</desc>
<speed>5.080000</speed>
</trkpt>
<trkpt lat="55.844418" lon="26.072617">
<ele>163.216919</ele>
<time>2010-07-17T14:32:57Z</time>
<desc>lat.=55.844418, lon.=26.072617, Alt.=163.216919m. Speed=19.080000m/h.</desc>
<speed>5.300000</speed>
</trkpt>
<trkpt lat="55.844456" lon="26.072561">
<ele>163.697388</ele>
<time>2010-07-17T14:32:58Z</time>
<desc>lat.=55.844456, lon.=26.072561, Alt.=163.697388m. Speed=19.332001m/h.</desc>
<speed>5.370000</speed>
</trkpt>
<trkpt lat="55.844494" lon="26.072500">
<ele>163.978638</ele>
<time>2010-07-17T14:32:59Z</time>
<desc>lat.=55.844494, lon.=26.072500, Alt.=163.978638m. Speed=21.059999m/h.</desc>
<speed>5.850000</speed>
</trkpt>
<trkpt lat="55.844532" lon="26.072435">
<ele>164.267700</ele>
<time>2010-07-17T14:33:00Z</time>
<desc>lat.=55.844532, lon.=26.072435, Alt.=164.267700m. Speed=20.448000m/h.</desc>
<speed>5.680000</speed>
</trkpt>
<trkpt lat="55.844566" lon="26.072372">
<ele>164.388794</ele>
<time>2010-07-17T14:33:01Z</time>
<desc>lat.=55.844566, lon.=26.072372, Alt.=164.388794m. Speed=20.556000m/h.</desc>
<speed>5.710000</speed>
</trkpt>
<trkpt lat="55.844604" lon="26.072311">
<ele>164.353638</ele>
<time>2010-07-17T14:33:02Z</time>
<desc>lat.=55.844604, lon.=26.072311, Alt.=164.353638m. Speed=21.096001m/h.</desc>
<speed>5.860000</speed>
</trkpt>
<trkpt lat="55.844643" lon="26.072247">
<ele>163.920044</ele>
<time>2010-07-17T14:33:03Z</time>
<desc>lat.=55.844643, lon.=26.072247, Alt.=163.920044m. Speed=21.240000m/h.</desc>
<speed>5.900000</speed>
</trkpt>
<trkpt lat="55.844685" lon="26.072191">
<ele>163.943481</ele>
<time>2010-07-17T14:33:04Z</time>
<desc>lat.=55.844685, lon.=26.072191, Alt.=163.943481m. Speed=20.304001m/h.</desc>
<speed>5.640000</speed>
</trkpt>
<trkpt lat="55.844719" lon="26.072142">
<ele>164.228638</ele>
<time>2010-07-17T14:33:05Z</time>
<desc>lat.=55.844719, lon.=26.072142, Alt.=164.228638m. Speed=16.488001m/h.</desc>
<speed>4.580000</speed>
</trkpt>
<trkpt lat="55.844753" lon="26.072084">
<ele>164.107544</ele>
<time>2010-07-17T14:33:06Z</time>
<desc>lat.=55.844753, lon.=26.072084, Alt.=164.107544m. Speed=20.952000m/h.</desc>
<speed>5.820000</speed>
</trkpt>
<trkpt lat="55.844791" lon="26.072020">
<ele>164.150513</ele>
<time>2010-07-17T14:33:07Z</time>
<desc>lat.=55.844791, lon.=26.072020, Alt.=164.150513m. Speed=20.808001m/h.</desc>
<speed>5.780000</speed>
</trkpt>
<trkpt lat="55.844830" lon="26.071957">
<ele>163.916138</ele>
<time>2010-07-17T14:33:08Z</time>
<desc>lat.=55.844830, lon.=26.071957, Alt.=163.916138m. Speed=20.591999m/h.</desc>
<speed>5.720000</speed>
</trkpt>
<trkpt lat="55.844868" lon="26.071898">
<ele>163.802856</ele>
<time>2010-07-17T14:33:09Z</time>
<desc>lat.=55.844868, lon.=26.071898, Alt.=163.802856m. Speed=20.591999m/h.</desc>
<speed>5.720000</speed>
</trkpt>
<trkpt lat="55.844906" lon="26.071836">
<ele>163.689575</ele>
<time>2010-07-17T14:33:10Z</time>
<desc>lat.=55.844906, lon.=26.071836, Alt.=163.689575m. Speed=20.771999m/h.</desc>
<speed>5.770000</speed>
</trkpt>
<trkpt lat="55.844948" lon="26.071772">
<ele>163.603638</ele>
<time>2010-07-17T14:33:11Z</time>
<desc>lat.=55.844948, lon.=26.071772, Alt.=163.603638m. Speed=21.492001m/h.</desc>
<speed>5.970000</speed>
</trkpt>
<trkpt lat="55.844982" lon="26.071697">
<ele>162.103638</ele>
<time>2010-07-17T14:33:12Z</time>
<desc>lat.=55.844982, lon.=26.071697, Alt.=162.103638m. Speed=21.996000m/h.</desc>
<speed>6.110000</speed>
</trkpt>
<trkpt lat="55.845024" lon="26.071629">
<ele>161.502075</ele>
<time>2010-07-17T14:33:13Z</time>
<desc>lat.=55.845024, lon.=26.071629, Alt.=161.502075m. Speed=22.643999m/h.</desc>
<speed>6.290000</speed>
</trkpt>
<trkpt lat="55.845062" lon="26.071558">
<ele>160.994263</ele>
<time>2010-07-17T14:33:14Z</time>
<desc>lat.=55.845062, lon.=26.071558, Alt.=160.994263m. Speed=22.643999m/h.</desc>
<speed>6.290000</speed>
</trkpt>
<trkpt lat="55.845104" lon="26.071493">
<ele>160.912231</ele>
<time>2010-07-17T14:33:15Z</time>
<desc>lat.=55.845104, lon.=26.071493, Alt.=160.912231m. Speed=22.212000m/h.</desc>
<speed>6.170000</speed>
</trkpt>
<trkpt lat="55.845142" lon="26.071423">
<ele>160.451294</ele>
<time>2010-07-17T14:33:16Z</time>
<desc>lat.=55.845142, lon.=26.071423, Alt.=160.451294m. Speed=21.455999m/h.</desc>
<speed>5.960000</speed>
</trkpt>
<trkpt lat="55.845177" lon="26.071352">
<ele>159.927856</ele>
<time>2010-07-17T14:33:17Z</time>
<desc>lat.=55.845177, lon.=26.071352, Alt.=159.927856m. Speed=20.916000m/h.</desc>
<speed>5.810000</speed>
</trkpt>
<trkpt lat="55.845211" lon="26.071285">
<ele>159.580200</ele>
<time>2010-07-17T14:33:18Z</time>
<desc>lat.=55.845211, lon.=26.071285, Alt.=159.580200m. Speed=20.016001m/h.</desc>
<speed>5.560000</speed>
</trkpt>
<trkpt lat="55.845249" lon="26.071217">
<ele>159.318481</ele>
<time>2010-07-17T14:33:19Z</time>
<desc>lat.=55.845249, lon.=26.071217, Alt.=159.318481m. Speed=23.148001m/h.</desc>
<speed>6.430000</speed>
</trkpt>
<trkpt lat="55.845287" lon="26.071150">
<ele>159.173950</ele>
<time>2010-07-17T14:33:20Z</time>
<desc>lat.=55.845287, lon.=26.071150, Alt.=159.173950m. Speed=20.268000m/h.</desc>
<speed>5.630000</speed>
</trkpt>
<trkpt lat="55.845325" lon="26.071081">
<ele>158.709106</ele>
<time>2010-07-17T14:33:21Z</time>
<desc>lat.=55.845325, lon.=26.071081, Alt.=158.709106m. Speed=21.636000m/h.</desc>
<speed>6.010000</speed>
</trkpt>
<trkpt lat="55.845364" lon="26.071014">
<ele>158.404419</ele>
<time>2010-07-17T14:33:22Z</time>
<desc>lat.=55.845364, lon.=26.071014, Alt.=158.404419m. Speed=21.600000m/h.</desc>
<speed>6.000000</speed>
</trkpt>
<trkpt lat="55.845402" lon="26.070946">
<ele>157.986450</ele>
<time>2010-07-17T14:33:23Z</time>
<desc>lat.=55.845402, lon.=26.070946, Alt.=157.986450m. Speed=22.176001m/h.</desc>
<speed>6.160000</speed>
</trkpt>
<trkpt lat="55.845440" lon="26.070873">
<ele>157.713013</ele>
<time>2010-07-17T14:33:24Z</time>
<desc>lat.=55.845440, lon.=26.070873, Alt.=157.713013m. Speed=22.931999m/h.</desc>
<speed>6.370000</speed>
</trkpt>
<trkpt lat="55.845478" lon="26.070801">
<ele>157.701294</ele>
<time>2010-07-17T14:33:25Z</time>
<desc>lat.=55.845478, lon.=26.070801, Alt.=157.701294m. Speed=21.708000m/h.</desc>
<speed>6.030000</speed>
</trkpt>
<trkpt lat="55.845516" lon="26.070734">
<ele>157.521606</ele>
<time>2010-07-17T14:33:26Z</time>
<desc>lat.=55.845516, lon.=26.070734, Alt.=157.521606m. Speed=20.591999m/h.</desc>
<speed>5.720000</speed>
</trkpt>
<trkpt lat="55.845554" lon="26.070671">
<ele>157.505981</ele>
<time>2010-07-17T14:33:27Z</time>
<desc>lat.=55.845554, lon.=26.070671, Alt.=157.505981m. Speed=19.332001m/h.</desc>
<speed>5.370000</speed>
</trkpt>
<trkpt lat="55.845589" lon="26.070608">
<ele>157.603638</ele>
<time>2010-07-17T14:33:28Z</time>
<desc>lat.=55.845589, lon.=26.070608, Alt.=157.603638m. Speed=19.656000m/h.</desc>
<speed>5.460000</speed>
</trkpt>
<trkpt lat="55.845623" lon="26.070549">
<ele>157.677856</ele>
<time>2010-07-17T14:33:29Z</time>
<desc>lat.=55.845623, lon.=26.070549, Alt.=157.677856m. Speed=19.007999m/h.</desc>
<speed>5.280000</speed>
</trkpt>
<trkpt lat="55.845661" lon="26.070492">
<ele>157.900513</ele>
<time>2010-07-17T14:33:30Z</time>
<desc>lat.=55.845661, lon.=26.070492, Alt.=157.900513m. Speed=19.584000m/h.</desc>
<speed>5.440000</speed>
</trkpt>
<trkpt lat="55.845695" lon="26.070433">
<ele>158.279419</ele>
<time>2010-07-17T14:33:31Z</time>
<desc>lat.=55.845695, lon.=26.070433, Alt.=158.279419m. Speed=19.115999m/h.</desc>
<speed>5.310000</speed>
</trkpt>
<trkpt lat="55.845734" lon="26.070383">
<ele>158.490356</ele>
<time>2010-07-17T14:33:32Z</time>
<desc>lat.=55.845734, lon.=26.070383, Alt.=158.490356m. Speed=18.108000m/h.</desc>
<speed>5.030000</speed>
</trkpt>
<trkpt lat="55.845768" lon="26.070330">
<ele>158.330200</ele>
<time>2010-07-17T14:33:33Z</time>
<desc>lat.=55.845768, lon.=26.070330, Alt.=158.330200m. Speed=19.007999m/h.</desc>
<speed>5.280000</speed>
</trkpt>
<trkpt lat="55.845806" lon="26.070274">
<ele>158.353638</ele>
<time>2010-07-17T14:33:34Z</time>
<desc>lat.=55.845806, lon.=26.070274, Alt.=158.353638m. Speed=18.900000m/h.</desc>
<speed>5.250000</speed>
</trkpt>
<trkpt lat="55.845840" lon="26.070225">
<ele>158.420044</ele>
<time>2010-07-17T14:33:35Z</time>
<desc>lat.=55.845840, lon.=26.070225, Alt.=158.420044m. Speed=18.540001m/h.</desc>
<speed>5.150000</speed>
</trkpt>
<trkpt lat="55.845879" lon="26.070177">
<ele>158.115356</ele>
<time>2010-07-17T14:33:36Z</time>
<desc>lat.=55.845879, lon.=26.070177, Alt.=158.115356m. Speed=19.224001m/h.</desc>
<speed>5.340000</speed>
</trkpt>
<trkpt lat="55.845917" lon="26.070124">
<ele>157.896606</ele>
<time>2010-07-17T14:33:37Z</time>
<desc>lat.=55.845917, lon.=26.070124, Alt.=157.896606m. Speed=19.836000m/h.</desc>
<speed>5.510000</speed>
</trkpt>
<trkpt lat="55.845955" lon="26.070065">
<ele>157.838013</ele>
<time>2010-07-17T14:33:38Z</time>
<desc>lat.=55.845955, lon.=26.070065, Alt.=157.838013m. Speed=20.844000m/h.</desc>
<speed>5.790000</speed>
</trkpt>
<trkpt lat="55.845997" lon="26.070004">
<ele>158.005981</ele>
<time>2010-07-17T14:33:39Z</time>
<desc>lat.=55.845997, lon.=26.070004, Alt.=158.005981m. Speed=21.204000m/h.</desc>
<speed>5.890000</speed>
</trkpt>
<trkpt lat="55.846039" lon="26.069939">
<ele>157.650513</ele>
<time>2010-07-17T14:33:40Z</time>
<desc>lat.=55.846039, lon.=26.069939, Alt.=157.650513m. Speed=21.492001m/h.</desc>
<speed>5.970000</speed>
</trkpt>
<trkpt lat="55.846081" lon="26.069876">
<ele>157.052856</ele>
<time>2010-07-17T14:33:41Z</time>
<desc>lat.=55.846081, lon.=26.069876, Alt.=157.052856m. Speed=21.816000m/h.</desc>
<speed>6.060000</speed>
</trkpt>
<trkpt lat="55.846123" lon="26.069809">
<ele>156.841919</ele>
<time>2010-07-17T14:33:42Z</time>
<desc>lat.=55.846123, lon.=26.069809, Alt.=156.841919m. Speed=22.752001m/h.</desc>
<speed>6.320000</speed>
</trkpt>
<trkpt lat="55.846165" lon="26.069740">
<ele>156.728638</ele>
<time>2010-07-17T14:33:43Z</time>
<desc>lat.=55.846165, lon.=26.069740, Alt.=156.728638m. Speed=22.896000m/h.</desc>
<speed>6.360000</speed>
</trkpt>
<trkpt lat="55.846207" lon="26.069672">
<ele>156.541138</ele>
<time>2010-07-17T14:33:44Z</time>
<desc>lat.=55.846207, lon.=26.069672, Alt.=156.541138m. Speed=23.507999m/h.</desc>
<speed>6.530000</speed>
</trkpt>
<trkpt lat="55.846252" lon="26.069603">
<ele>156.209106</ele>
<time>2010-07-17T14:33:45Z</time>
<desc>lat.=55.846252, lon.=26.069603, Alt.=156.209106m. Speed=23.615999m/h.</desc>
<speed>6.560000</speed>
</trkpt>
<trkpt lat="55.846298" lon="26.069534">
<ele>156.048950</ele>
<time>2010-07-17T14:33:46Z</time>
<desc>lat.=55.846298, lon.=26.069534, Alt.=156.048950m. Speed=23.832001m/h.</desc>
<speed>6.620000</speed>
</trkpt>
<trkpt lat="55.846344" lon="26.069462">
<ele>155.701294</ele>
<time>2010-07-17T14:33:47Z</time>
<desc>lat.=55.846344, lon.=26.069462, Alt.=155.701294m. Speed=25.524000m/h.</desc>
<speed>7.090000</speed>
</trkpt>
<trkpt lat="55.846390" lon="26.069389">
<ele>155.576294</ele>
<time>2010-07-17T14:33:48Z</time>
<desc>lat.=55.846390, lon.=26.069389, Alt.=155.576294m. Speed=23.112000m/h.</desc>
<speed>6.420000</speed>
</trkpt>
<trkpt lat="55.846432" lon="26.069323">
<ele>155.478638</ele>
<time>2010-07-17T14:33:49Z</time>
<desc>lat.=55.846432, lon.=26.069323, Alt.=155.478638m. Speed=21.204000m/h.</desc>
<speed>5.890000</speed>
</trkpt>
<trkpt lat="55.846466" lon="26.069258">
<ele>155.283325</ele>
<time>2010-07-17T14:33:50Z</time>
<desc>lat.=55.846466, lon.=26.069258, Alt.=155.283325m. Speed=19.908001m/h.</desc>
<speed>5.530000</speed>
</trkpt>
<trkpt lat="55.846504" lon="26.069195">
<ele>155.134888</ele>
<time>2010-07-17T14:33:51Z</time>
<desc>lat.=55.846504, lon.=26.069195, Alt.=155.134888m. Speed=20.916000m/h.</desc>
<speed>5.810000</speed>
</trkpt>
<trkpt lat="55.846542" lon="26.069132">
<ele>155.338013</ele>
<time>2010-07-17T14:33:52Z</time>
<desc>lat.=55.846542, lon.=26.069132, Alt.=155.338013m. Speed=21.240000m/h.</desc>
<speed>5.900000</speed>
</trkpt>
<trkpt lat="55.846584" lon="26.069067">
<ele>155.404419</ele>
<time>2010-07-17T14:33:53Z</time>
<desc>lat.=55.846584, lon.=26.069067, Alt.=155.404419m. Speed=20.879999m/h.</desc>
<speed>5.800000</speed>
</trkpt>
<trkpt lat="55.846619" lon="26.069004">
<ele>155.130981</ele>
<time>2010-07-17T14:33:54Z</time>
<desc>lat.=55.846619, lon.=26.069004, Alt.=155.130981m. Speed=20.556000m/h.</desc>
<speed>5.710000</speed>
</trkpt>
<trkpt lat="55.846657" lon="26.068947">
<ele>155.302856</ele>
<time>2010-07-17T14:33:55Z</time>
<desc>lat.=55.846657, lon.=26.068947, Alt.=155.302856m. Speed=20.591999m/h.</desc>
<speed>5.720000</speed>
</trkpt>
<trkpt lat="55.846691" lon="26.068888">
<ele>154.939575</ele>
<time>2010-07-17T14:33:56Z</time>
<desc>lat.=55.846691, lon.=26.068888, Alt.=154.939575m. Speed=21.348000m/h.</desc>
<speed>5.930000</speed>
</trkpt>
<trkpt lat="55.846729" lon="26.068825">
<ele>154.931763</ele>
<time>2010-07-17T14:33:57Z</time>
<desc>lat.=55.846729, lon.=26.068825, Alt.=154.931763m. Speed=21.780001m/h.</desc>
<speed>6.050000</speed>
</trkpt>
<trkpt lat="55.846767" lon="26.068760">
<ele>154.877075</ele>
<time>2010-07-17T14:33:58Z</time>
<desc>lat.=55.846767, lon.=26.068760, Alt.=154.877075m. Speed=21.455999m/h.</desc>
<speed>5.960000</speed>
</trkpt>
<trkpt lat="55.846802" lon="26.068691">
<ele>154.607544</ele>
<time>2010-07-17T14:33:59Z</time>
<desc>lat.=55.846802, lon.=26.068691, Alt.=154.607544m. Speed=21.708000m/h.</desc>
<speed>6.030000</speed>
</trkpt>
<trkpt lat="55.846840" lon="26.068624">
<ele>154.642700</ele>
<time>2010-07-17T14:34:00Z</time>
<desc>lat.=55.846840, lon.=26.068624, Alt.=154.642700m. Speed=21.024000m/h.</desc>
<speed>5.840000</speed>
</trkpt>
<trkpt lat="55.846878" lon="26.068556">
<ele>154.338013</ele>
<time>2010-07-17T14:34:01Z</time>
<desc>lat.=55.846878, lon.=26.068556, Alt.=154.338013m. Speed=20.483999m/h.</desc>
<speed>5.690000</speed>
</trkpt>
<trkpt lat="55.846916" lon="26.068495">
<ele>154.689575</ele>
<time>2010-07-17T14:34:02Z</time>
<desc>lat.=55.846916, lon.=26.068495, Alt.=154.689575m. Speed=19.691999m/h.</desc>
<speed>5.470000</speed>
</trkpt>
<trkpt lat="55.846951" lon="26.068436">
<ele>154.599731</ele>
<time>2010-07-17T14:34:03Z</time>
<desc>lat.=55.846951, lon.=26.068436, Alt.=154.599731m. Speed=19.260000m/h.</desc>
<speed>5.350000</speed>
</trkpt>
<trkpt lat="55.846981" lon="26.068369">
<ele>154.361450</ele>
<time>2010-07-17T14:34:04Z</time>
<desc>lat.=55.846981, lon.=26.068369, Alt.=154.361450m. Speed=18.756001m/h.</desc>
<speed>5.210000</speed>
</trkpt>
<trkpt lat="55.847015" lon="26.068314">
<ele>154.455200</ele>
<time>2010-07-17T14:34:05Z</time>
<desc>lat.=55.847015, lon.=26.068314, Alt.=154.455200m. Speed=18.431999m/h.</desc>
<speed>5.120000</speed>
</trkpt>
<trkpt lat="55.847046" lon="26.068262">
<ele>154.615356</ele>
<time>2010-07-17T14:34:06Z</time>
<desc>lat.=55.847046, lon.=26.068262, Alt.=154.615356m. Speed=17.820000m/h.</desc>
<speed>4.950000</speed>
</trkpt>
<trkpt lat="55.847080" lon="26.068209">
<ele>154.787231</ele>
<time>2010-07-17T14:34:07Z</time>
<desc>lat.=55.847080, lon.=26.068209, Alt.=154.787231m. Speed=18.108000m/h.</desc>
<speed>5.030000</speed>
</trkpt>
<trkpt lat="55.847111" lon="26.068150">
<ele>154.763794</ele>
<time>2010-07-17T14:34:08Z</time>
<desc>lat.=55.847111, lon.=26.068150, Alt.=154.763794m. Speed=17.820000m/h.</desc>
<speed>4.950000</speed>
</trkpt>
<trkpt lat="55.847141" lon="26.068094">
<ele>155.111450</ele>
<time>2010-07-17T14:34:09Z</time>
<desc>lat.=55.847141, lon.=26.068094, Alt.=155.111450m. Speed=17.568001m/h.</desc>
<speed>4.880000</speed>
</trkpt>
<trkpt lat="55.847172" lon="26.068033">
<ele>154.841919</ele>
<time>2010-07-17T14:34:10Z</time>
<desc>lat.=55.847172, lon.=26.068033, Alt.=154.841919m. Speed=18.072001m/h.</desc>
<speed>5.020000</speed>
</trkpt>
<trkpt lat="55.847195" lon="26.067970">
<ele>154.341919</ele>
<time>2010-07-17T14:34:11Z</time>
<desc>lat.=55.847195, lon.=26.067970, Alt.=154.341919m. Speed=18.072001m/h.</desc>
<speed>5.020000</speed>
</trkpt>
<trkpt lat="55.847225" lon="26.067911">
<ele>154.205200</ele>
<time>2010-07-17T14:34:12Z</time>
<desc>lat.=55.847225, lon.=26.067911, Alt.=154.205200m. Speed=17.747999m/h.</desc>
<speed>4.930000</speed>
</trkpt>
<trkpt lat="55.847252" lon="26.067854">
<ele>153.861450</ele>
<time>2010-07-17T14:34:13Z</time>
<desc>lat.=55.847252, lon.=26.067854, Alt.=153.861450m. Speed=17.892000m/h.</desc>
<speed>4.970000</speed>
</trkpt>
<trkpt lat="55.847279" lon="26.067799">
<ele>153.834106</ele>
<time>2010-07-17T14:34:14Z</time>
<desc>lat.=55.847279, lon.=26.067799, Alt.=153.834106m. Speed=17.172001m/h.</desc>
<speed>4.770000</speed>
</trkpt>
<trkpt lat="55.847305" lon="26.067743">
<ele>153.896606</ele>
<time>2010-07-17T14:34:15Z</time>
<desc>lat.=55.847305, lon.=26.067743, Alt.=153.896606m. Speed=16.848000m/h.</desc>
<speed>4.680000</speed>
</trkpt>
<trkpt lat="55.847336" lon="26.067690">
<ele>153.982544</ele>
<time>2010-07-17T14:34:16Z</time>
<desc>lat.=55.847336, lon.=26.067690, Alt.=153.982544m. Speed=16.236000m/h.</desc>
<speed>4.510000</speed>
</trkpt>
<trkpt lat="55.847363" lon="26.067640">
<ele>154.341919</ele>
<time>2010-07-17T14:34:17Z</time>
<desc>lat.=55.847363, lon.=26.067640, Alt.=154.341919m. Speed=15.804000m/h.</desc>
<speed>4.390000</speed>
</trkpt>
<trkpt lat="55.847385" lon="26.067585">
<ele>154.470825</ele>
<time>2010-07-17T14:34:18Z</time>
<desc>lat.=55.847385, lon.=26.067585, Alt.=154.470825m. Speed=15.228000m/h.</desc>
<speed>4.230000</speed>
</trkpt>
<trkpt lat="55.847408" lon="26.067532">
<ele>154.724731</ele>
<time>2010-07-17T14:34:19Z</time>
<desc>lat.=55.847408, lon.=26.067532, Alt.=154.724731m. Speed=15.084000m/h.</desc>
<speed>4.190000</speed>
</trkpt>
<trkpt lat="55.847431" lon="26.067474">
<ele>154.771606</ele>
<time>2010-07-17T14:34:20Z</time>
<desc>lat.=55.847431, lon.=26.067474, Alt.=154.771606m. Speed=14.832000m/h.</desc>
<speed>4.120000</speed>
</trkpt>
<trkpt lat="55.847454" lon="26.067421">
<ele>154.595825</ele>
<time>2010-07-17T14:34:21Z</time>
<desc>lat.=55.847454, lon.=26.067421, Alt.=154.595825m. Speed=14.364000m/h.</desc>
<speed>3.990000</speed>
</trkpt>
<trkpt lat="55.847488" lon="26.067387">
<ele>155.677856</ele>
<time>2010-07-17T14:34:22Z</time>
<desc>lat.=55.847488, lon.=26.067387, Alt.=155.677856m. Speed=14.148000m/h.</desc>
<speed>3.930000</speed>
</trkpt>
<trkpt lat="55.847511" lon="26.067341">
<ele>155.822388</ele>
<time>2010-07-17T14:34:23Z</time>
<desc>lat.=55.847511, lon.=26.067341, Alt.=155.822388m. Speed=14.544000m/h.</desc>
<speed>4.040000</speed>
</trkpt>
<trkpt lat="55.847534" lon="26.067291">
<ele>155.814575</ele>
<time>2010-07-17T14:34:24Z</time>
<desc>lat.=55.847534, lon.=26.067291, Alt.=155.814575m. Speed=14.616000m/h.</desc>
<speed>4.060000</speed>
</trkpt>
<trkpt lat="55.847553" lon="26.067242">
<ele>155.525513</ele>
<time>2010-07-17T14:34:25Z</time>
<desc>lat.=55.847553, lon.=26.067242, Alt.=155.525513m. Speed=14.868000m/h.</desc>
<speed>4.130000</speed>
</trkpt>
<trkpt lat="55.847580" lon="26.067190">
<ele>155.541138</ele>
<time>2010-07-17T14:34:26Z</time>
<desc>lat.=55.847580, lon.=26.067190, Alt.=155.541138m. Speed=18.143999m/h.</desc>
<speed>5.040000</speed>
</trkpt>
<trkpt lat="55.847607" lon="26.067127">
<ele>155.291138</ele>
<time>2010-07-17T14:34:27Z</time>
<desc>lat.=55.847607, lon.=26.067127, Alt.=155.291138m. Speed=16.596001m/h.</desc>
<speed>4.610000</speed>
</trkpt>
<trkpt lat="55.847630" lon="26.067068">
<ele>155.056763</ele>
<time>2010-07-17T14:34:28Z</time>
<desc>lat.=55.847630, lon.=26.067068, Alt.=155.056763m. Speed=16.812000m/h.</desc>
<speed>4.670000</speed>
</trkpt>
<trkpt lat="55.847652" lon="26.066999">
<ele>154.728638</ele>
<time>2010-07-17T14:34:29Z</time>
<desc>lat.=55.847652, lon.=26.066999, Alt.=154.728638m. Speed=18.360001m/h.</desc>
<speed>5.100000</speed>
</trkpt>
<trkpt lat="55.847683" lon="26.066935">
<ele>154.888794</ele>
<time>2010-07-17T14:34:30Z</time>
<desc>lat.=55.847683, lon.=26.066935, Alt.=154.888794m. Speed=18.431999m/h.</desc>
<speed>5.120000</speed>
</trkpt>
<trkpt lat="55.847713" lon="26.066866">
<ele>154.646606</ele>
<time>2010-07-17T14:34:31Z</time>
<desc>lat.=55.847713, lon.=26.066866, Alt.=154.646606m. Speed=19.620001m/h.</desc>
<speed>5.450000</speed>
</trkpt>
<trkpt lat="55.847740" lon="26.066795">
<ele>154.388794</ele>
<time>2010-07-17T14:34:32Z</time>
<desc>lat.=55.847740, lon.=26.066795, Alt.=154.388794m. Speed=19.620001m/h.</desc>
<speed>5.450000</speed>
</trkpt>
<trkpt lat="55.847771" lon="26.066725">
<ele>154.310669</ele>
<time>2010-07-17T14:34:33Z</time>
<desc>lat.=55.847771, lon.=26.066725, Alt.=154.310669m. Speed=19.764000m/h.</desc>
<speed>5.490000</speed>
</trkpt>
<trkpt lat="55.847801" lon="26.066654">
<ele>154.173950</ele>
<time>2010-07-17T14:34:34Z</time>
<desc>lat.=55.847801, lon.=26.066654, Alt.=154.173950m. Speed=20.412001m/h.</desc>
<speed>5.670000</speed>
</trkpt>
<trkpt lat="55.847836" lon="26.066584">
<ele>154.189575</ele>
<time>2010-07-17T14:34:35Z</time>
<desc>lat.=55.847836, lon.=26.066584, Alt.=154.189575m. Speed=21.275999m/h.</desc>
<speed>5.910000</speed>
</trkpt>
<trkpt lat="55.847874" lon="26.066509">
<ele>154.185669</ele>
<time>2010-07-17T14:34:36Z</time>
<desc>lat.=55.847874, lon.=26.066509, Alt.=154.185669m. Speed=22.464001m/h.</desc>
<speed>6.240000</speed>
</trkpt>
<trkpt lat="55.847908" lon="26.066433">
<ele>154.209106</ele>
<time>2010-07-17T14:34:37Z</time>
<desc>lat.=55.847908, lon.=26.066433, Alt.=154.209106m. Speed=21.204000m/h.</desc>
<speed>5.890000</speed>
</trkpt>
<trkpt lat="55.847942" lon="26.066364">
<ele>154.138794</ele>
<time>2010-07-17T14:34:38Z</time>
<desc>lat.=55.847942, lon.=26.066364, Alt.=154.138794m. Speed=20.160000m/h.</desc>
<speed>5.600000</speed>
</trkpt>
<trkpt lat="55.847977" lon="26.066294">
<ele>154.302856</ele>
<time>2010-07-17T14:34:39Z</time>
<desc>lat.=55.847977, lon.=26.066294, Alt.=154.302856m. Speed=20.844000m/h.</desc>
<speed>5.790000</speed>
</trkpt>
<trkpt lat="55.848015" lon="26.066225">
<ele>154.369263</ele>
<time>2010-07-17T14:34:40Z</time>
<desc>lat.=55.848015, lon.=26.066225, Alt.=154.369263m. Speed=20.483999m/h.</desc>
<speed>5.690000</speed>
</trkpt>
<trkpt lat="55.848049" lon="26.066160">
<ele>154.509888</ele>
<time>2010-07-17T14:34:41Z</time>
<desc>lat.=55.848049, lon.=26.066160, Alt.=154.509888m. Speed=20.556000m/h.</desc>
<speed>5.710000</speed>
</trkpt>
<trkpt lat="55.848087" lon="26.066095">
<ele>154.322388</ele>
<time>2010-07-17T14:34:42Z</time>
<desc>lat.=55.848087, lon.=26.066095, Alt.=154.322388m. Speed=20.952000m/h.</desc>
<speed>5.820000</speed>
</trkpt>
<trkpt lat="55.848122" lon="26.066036">
<ele>154.502075</ele>
<time>2010-07-17T14:34:43Z</time>
<desc>lat.=55.848122, lon.=26.066036, Alt.=154.502075m. Speed=20.124001m/h.</desc>
<speed>5.590000</speed>
</trkpt>
<trkpt lat="55.848152" lon="26.065966">
<ele>153.584106</ele>
<time>2010-07-17T14:34:44Z</time>
<desc>lat.=55.848152, lon.=26.065966, Alt.=153.584106m. Speed=22.860001m/h.</desc>
<speed>6.350000</speed>
</trkpt>
<trkpt lat="55.848190" lon="26.065901">
<ele>153.459106</ele>
<time>2010-07-17T14:34:45Z</time>
<desc>lat.=55.848190, lon.=26.065901, Alt.=153.459106m. Speed=19.115999m/h.</desc>
<speed>5.310000</speed>
</trkpt>
<trkpt lat="55.848228" lon="26.065845">
<ele>153.607544</ele>
<time>2010-07-17T14:34:46Z</time>
<desc>lat.=55.848228, lon.=26.065845, Alt.=153.607544m. Speed=17.856001m/h.</desc>
<speed>4.960000</speed>
</trkpt>
<trkpt lat="55.848259" lon="26.065786">
<ele>152.888794</ele>
<time>2010-07-17T14:34:47Z</time>
<desc>lat.=55.848259, lon.=26.065786, Alt.=152.888794m. Speed=18.972000m/h.</desc>
<speed>5.270000</speed>
</trkpt>
<trkpt lat="55.848289" lon="26.065729">
<ele>152.650513</ele>
<time>2010-07-17T14:34:48Z</time>
<desc>lat.=55.848289, lon.=26.065729, Alt.=152.650513m. Speed=17.747999m/h.</desc>
<speed>4.930000</speed>
</trkpt>
<trkpt lat="55.848324" lon="26.065676">
<ele>152.814575</ele>
<time>2010-07-17T14:34:49Z</time>
<desc>lat.=55.848324, lon.=26.065676, Alt.=152.814575m. Speed=16.488001m/h.</desc>
<speed>4.580000</speed>
</trkpt>
<trkpt lat="55.848351" lon="26.065628">
<ele>152.505981</ele>
<time>2010-07-17T14:34:50Z</time>
<desc>lat.=55.848351, lon.=26.065628, Alt.=152.505981m. Speed=15.624000m/h.</desc>
<speed>4.340000</speed>
</trkpt>
<trkpt lat="55.848377" lon="26.065582">
<ele>152.310669</ele>
<time>2010-07-17T14:34:51Z</time>
<desc>lat.=55.848377, lon.=26.065582, Alt.=152.310669m. Speed=15.120000m/h.</desc>
<speed>4.200000</speed>
</trkpt>
<trkpt lat="55.848404" lon="26.065542">
<ele>152.724731</ele>
<time>2010-07-17T14:34:52Z</time>
<desc>lat.=55.848404, lon.=26.065542, Alt.=152.724731m. Speed=12.384000m/h.</desc>
<speed>3.440000</speed>
</trkpt>
<trkpt lat="55.848419" lon="26.065508">
<ele>152.466919</ele>
<time>2010-07-17T14:34:53Z</time>
<desc>lat.=55.848419, lon.=26.065508, Alt.=152.466919m. Speed=10.728000m/h.</desc>
<speed>2.980000</speed>
</trkpt>
<trkpt lat="55.848442" lon="26.065475">
<ele>152.463013</ele>
<time>2010-07-17T14:34:54Z</time>
<desc>lat.=55.848442, lon.=26.065475, Alt.=152.463013m. Speed=10.980000m/h.</desc>
<speed>3.050000</speed>
</trkpt>
<trkpt lat="55.848461" lon="26.065445">
<ele>152.318481</ele>
<time>2010-07-17T14:34:55Z</time>
<desc>lat.=55.848461, lon.=26.065445, Alt.=152.318481m. Speed=10.656000m/h.</desc>
<speed>2.960000</speed>
</trkpt>
<trkpt lat="55.848480" lon="26.065420">
<ele>152.017700</ele>
<time>2010-07-17T14:34:56Z</time>
<desc>lat.=55.848480, lon.=26.065420, Alt.=152.017700m. Speed=9.252000m/h.</desc>
<speed>2.570000</speed>
</trkpt>
<trkpt lat="55.848499" lon="26.065399">
<ele>152.138794</ele>
<time>2010-07-17T14:34:57Z</time>
<desc>lat.=55.848499, lon.=26.065399, Alt.=152.138794m. Speed=4.824000m/h.</desc>
<speed>1.340000</speed>
</trkpt>
<trkpt lat="55.848503" lon="26.065388">
<ele>152.142700</ele>
<time>2010-07-17T14:34:58Z</time>
<desc>lat.=55.848503, lon.=26.065388, Alt.=152.142700m. Speed=1.152000m/h.</desc>
<speed>0.320000</speed>
</trkpt>
<trkpt lat="55.848499" lon="26.065388">
<ele>151.771606</ele>
<time>2010-07-17T14:34:59Z</time>
<desc>lat.=55.848499, lon.=26.065388, Alt.=151.771606m. Speed=1.836000m/h.</desc>
<speed>0.510000</speed>
</trkpt>
<trkpt lat="55.848499" lon="26.065392">
<ele>151.709106</ele>
<time>2010-07-17T14:35:00Z</time>
<desc>lat.=55.848499, lon.=26.065392, Alt.=151.709106m. Speed=0.504000m/h.</desc>
<speed>0.140000</speed>
</trkpt>
<trkpt lat="55.848503" lon="26.065390">
<ele>152.330200</ele>
<time>2010-07-17T14:35:01Z</time>
<desc>lat.=55.848503, lon.=26.065390, Alt.=152.330200m. Speed=0.036000m/h.</desc>
<speed>0.010000</speed>
</trkpt>
<trkpt lat="55.848503" lon="26.065390">
<ele>152.271606</ele>
<time>2010-07-17T14:35:02Z</time>
<desc>lat.=55.848503, lon.=26.065390, Alt.=152.271606m. Speed=0.216000m/h.</desc>
<speed>0.060000</speed>
</trkpt>
<trkpt lat="55.848503" lon="26.065390">
<ele>152.213013</ele>
<time>2010-07-17T14:35:03Z</time>
<desc>lat.=55.848503, lon.=26.065390, Alt.=152.213013m. Speed=0.000000m/h.</desc>
<speed>0.000000</speed>
</trkpt>
<trkpt lat="55.848503" lon="26.065388">
<ele>152.201294</ele>
<time>2010-07-17T14:35:04Z</time>
<desc>lat.=55.848503, lon.=26.065388, Alt.=152.201294m. Speed=0.000000m/h.</desc>
<speed>0.000000</speed>
</trkpt>
<trkpt lat="55.848503" lon="26.065390">
<ele>152.201294</ele>
<time>2010-07-17T14:35:05Z</time>
<desc>lat.=55.848503, lon.=26.065390, Alt.=152.201294m. Speed=0.000000m/h.</desc>
<speed>0.000000</speed>
</trkpt>
<trkpt lat="55.848503" lon="26.065390">
<ele>152.209106</ele>
<time>2010-07-17T14:35:06Z</time>
<desc>lat.=55.848503, lon.=26.065390, Alt.=152.209106m. Speed=0.252000m/h.</desc>
<speed>0.070000</speed>
</trkpt>
<trkpt lat="55.848503" lon="26.065390">
<ele>152.209106</ele>
<time>2010-07-17T14:35:07Z</time>
<desc>lat.=55.848503, lon.=26.065390, Alt.=152.209106m. Speed=0.108000m/h.</desc>
<speed>0.030000</speed>
</trkpt>
<trkpt lat="55.848503" lon="26.065390">
<ele>152.185669</ele>
<time>2010-07-17T14:35:08Z</time>
<desc>lat.=55.848503, lon.=26.065390, Alt.=152.185669m. Speed=0.576000m/h.</desc>
<speed>0.160000</speed>
</trkpt>
<trkpt lat="55.848503" lon="26.065388">
<ele>152.154419</ele>
<time>2010-07-17T14:35:09Z</time>
<desc>lat.=55.848503, lon.=26.065388, Alt.=152.154419m. Speed=0.180000m/h.</desc>
<speed>0.050000</speed>
</trkpt>
<trkpt lat="55.848503" lon="26.065388">
<ele>152.130981</ele>
<time>2010-07-17T14:35:10Z</time>
<desc>lat.=55.848503, lon.=26.065388, Alt.=152.130981m. Speed=0.324000m/h.</desc>
<speed>0.090000</speed>
</trkpt>
<trkpt lat="55.848503" lon="26.065390">
<ele>152.107544</ele>
<time>2010-07-17T14:35:11Z</time>
<desc>lat.=55.848503, lon.=26.065390, Alt.=152.107544m. Speed=0.072000m/h.</desc>
<speed>0.020000</speed>
</trkpt>
<trkpt lat="55.848503" lon="26.065390">
<ele>152.088013</ele>
<time>2010-07-17T14:35:12Z</time>
<desc>lat.=55.848503, lon.=26.065390, Alt.=152.088013m. Speed=0.144000m/h.</desc>
<speed>0.040000</speed>
</trkpt>
<trkpt lat="55.848503" lon="26.065390">
<ele>152.072388</ele>
<time>2010-07-17T14:35:13Z</time>
<desc>lat.=55.848503, lon.=26.065390, Alt.=152.072388m. Speed=0.108000m/h.</desc>
<speed>0.030000</speed>
</trkpt>
<trkpt lat="55.848503" lon="26.065388">
<ele>152.056763</ele>
<time>2010-07-17T14:35:14Z</time>
<desc>lat.=55.848503, lon.=26.065388, Alt.=152.056763m. Speed=0.072000m/h.</desc>
<speed>0.020000</speed>
</trkpt>
<trkpt lat="55.848503" lon="26.065388">
<ele>152.048950</ele>
<time>2010-07-17T14:35:15Z</time>
<desc>lat.=55.848503, lon.=26.065388, Alt.=152.048950m. Speed=0.000000m/h.</desc>
<speed>0.000000</speed>
</trkpt>
<trkpt lat="55.848503" lon="26.065388">
<ele>152.041138</ele>
<time>2010-07-17T14:35:16Z</time>
<desc>lat.=55.848503, lon.=26.065388, Alt.=152.041138m. Speed=0.036000m/h.</desc>
<speed>0.010000</speed>
</trkpt>
<trkpt lat="55.848503" lon="26.065388">
<ele>152.041138</ele>
<time>2010-07-17T14:35:17Z</time>
<desc>lat.=55.848503, lon.=26.065388, Alt.=152.041138m. Speed=0.108000m/h.</desc>
<speed>0.030000</speed>
</trkpt>
<trkpt lat="55.848503" lon="26.065388">
<ele>152.045044</ele>
<time>2010-07-17T14:35:18Z</time>
<desc>lat.=55.848503, lon.=26.065388, Alt.=152.045044m. Speed=0.036000m/h.</desc>
<speed>0.010000</speed>
</trkpt>
<trkpt lat="55.848503" lon="26.065388">
<ele>152.060669</ele>
<time>2010-07-17T14:35:19Z</time>
<desc>lat.=55.848503, lon.=26.065388, Alt.=152.060669m. Speed=0.000000m/h.</desc>
<speed>0.000000</speed>
</trkpt>
<trkpt lat="55.848503" lon="26.065388">
<ele>152.072388</ele>
<time>2010-07-17T14:35:20Z</time>
<desc>lat.=55.848503, lon.=26.065388, Alt.=152.072388m. Speed=0.216000m/h.</desc>
<speed>0.060000</speed>
</trkpt>
<trkpt lat="55.848503" lon="26.065388">
<ele>152.084106</ele>
<time>2010-07-17T14:35:21Z</time>
<desc>lat.=55.848503, lon.=26.065388, Alt.=152.084106m. Speed=0.108000m/h.</desc>
<speed>0.030000</speed>
</trkpt>
<trkpt lat="55.848503" lon="26.065388">
<ele>152.099731</ele>
<time>2010-07-17T14:35:22Z</time>
<desc>lat.=55.848503, lon.=26.065388, Alt.=152.099731m. Speed=0.108000m/h.</desc>
<speed>0.030000</speed>
</trkpt>
<trkpt lat="55.848503" lon="26.065388">
<ele>152.107544</ele>
<time>2010-07-17T14:35:23Z</time>
<desc>lat.=55.848503, lon.=26.065388, Alt.=152.107544m. Speed=0.000000m/h.</desc>
<speed>0.000000</speed>
</trkpt>
<trkpt lat="55.848503" lon="26.065388">
<ele>152.119263</ele>
<time>2010-07-17T14:35:24Z</time>
<desc>lat.=55.848503, lon.=26.065388, Alt.=152.119263m. Speed=0.072000m/h.</desc>
<speed>0.020000</speed>
</trkpt>
<trkpt lat="55.848503" lon="26.065388">
<ele>152.127075</ele>
<time>2010-07-17T14:35:25Z</time>
<desc>lat.=55.848503, lon.=26.065388, Alt.=152.127075m. Speed=0.000000m/h.</desc>
<speed>0.000000</speed>
</trkpt>
<trkpt lat="55.848503" lon="26.065388">
<ele>152.127075</ele>
<time>2010-07-17T14:35:26Z</time>
<desc>lat.=55.848503, lon.=26.065388, Alt.=152.127075m. Speed=0.036000m/h.</desc>
<speed>0.010000</speed>
</trkpt>
<trkpt lat="55.848507" lon="26.065388">
<ele>152.134888</ele>
<time>2010-07-17T14:35:27Z</time>
<desc>lat.=55.848507, lon.=26.065388, Alt.=152.134888m. Speed=0.000000m/h.</desc>
<speed>0.000000</speed>
</trkpt>
<trkpt lat="55.848507" lon="26.065388">
<ele>152.138794</ele>
<time>2010-07-17T14:35:28Z</time>
<desc>lat.=55.848507, lon.=26.065388, Alt.=152.138794m. Speed=0.036000m/h.</desc>
<speed>0.010000</speed>
</trkpt>
<trkpt lat="55.848507" lon="26.065388">
<ele>152.130981</ele>
<time>2010-07-17T14:35:29Z</time>
<desc>lat.=55.848507, lon.=26.065388, Alt.=152.130981m. Speed=0.072000m/h.</desc>
<speed>0.020000</speed>
</trkpt>
<trkpt lat="55.848507" lon="26.065388">
<ele>152.138794</ele>
<time>2010-07-17T14:35:30Z</time>
<desc>lat.=55.848507, lon.=26.065388, Alt.=152.138794m. Speed=0.000000m/h.</desc>
<speed>0.000000</speed>
</trkpt>
<trkpt lat="55.848507" lon="26.065390">
<ele>152.150513</ele>
<time>2010-07-17T14:35:31Z</time>
<desc>lat.=55.848507, lon.=26.065390, Alt.=152.150513m. Speed=4.284000m/h.</desc>
<speed>1.190000</speed>
</trkpt>
<trkpt lat="55.848503" lon="26.065399">
<ele>152.443481</ele>
<time>2010-07-17T14:35:32Z</time>
<desc>lat.=55.848503, lon.=26.065399, Alt.=152.443481m. Speed=0.144000m/h.</desc>
<speed>0.040000</speed>
</trkpt>
<trkpt lat="55.848503" lon="26.065403">
<ele>152.642700</ele>
<time>2010-07-17T14:35:33Z</time>
<desc>lat.=55.848503, lon.=26.065403, Alt.=152.642700m. Speed=0.180000m/h.</desc>
<speed>0.050000</speed>
</trkpt>
<trkpt lat="55.848503" lon="26.065405">
<ele>152.681763</ele>
<time>2010-07-17T14:35:34Z</time>
<desc>lat.=55.848503, lon.=26.065405, Alt.=152.681763m. Speed=0.036000m/h.</desc>
<speed>0.010000</speed>
</trkpt>
<trkpt lat="55.848503" lon="26.065409">
<ele>152.763794</ele>
<time>2010-07-17T14:35:35Z</time>
<desc>lat.=55.848503, lon.=26.065409, Alt.=152.763794m. Speed=0.180000m/h.</desc>
<speed>0.050000</speed>
</trkpt>
<trkpt lat="55.848503" lon="26.065409">
<ele>152.779419</ele>
<time>2010-07-17T14:35:36Z</time>
<desc>lat.=55.848503, lon.=26.065409, Alt.=152.779419m. Speed=0.072000m/h.</desc>
<speed>0.020000</speed>
</trkpt>
<trkpt lat="55.848503" lon="26.065409">
<ele>152.798950</ele>
<time>2010-07-17T14:35:37Z</time>
<desc>lat.=55.848503, lon.=26.065409, Alt.=152.798950m. Speed=0.288000m/h.</desc>
<speed>0.080000</speed>
</trkpt>
<trkpt lat="55.848503" lon="26.065409">
<ele>152.806763</ele>
<time>2010-07-17T14:35:38Z</time>
<desc>lat.=55.848503, lon.=26.065409, Alt.=152.806763m. Speed=0.324000m/h.</desc>
<speed>0.090000</speed>
</trkpt>
<trkpt lat="55.848503" lon="26.065411">
<ele>152.810669</ele>
<time>2010-07-17T14:35:39Z</time>
<desc>lat.=55.848503, lon.=26.065411, Alt.=152.810669m. Speed=0.504000m/h.</desc>
<speed>0.140000</speed>
</trkpt>
<trkpt lat="55.848503" lon="26.065411">
<ele>152.814575</ele>
<time>2010-07-17T14:35:40Z</time>
<desc>lat.=55.848503, lon.=26.065411, Alt.=152.814575m. Speed=0.504000m/h.</desc>
<speed>0.140000</speed>
</trkpt>
<trkpt lat="55.848507" lon="26.065413">
<ele>152.826294</ele>
<time>2010-07-17T14:35:41Z</time>
<desc>lat.=55.848507, lon.=26.065413, Alt.=152.826294m. Speed=1.656000m/h.</desc>
<speed>0.460000</speed>
</trkpt>
<trkpt lat="55.848515" lon="26.065397">
<ele>152.822388</ele>
<time>2010-07-17T14:35:42Z</time>
<desc>lat.=55.848515, lon.=26.065397, Alt.=152.822388m. Speed=4.068000m/h.</desc>
<speed>1.130000</speed>
</trkpt>
<trkpt lat="55.848530" lon="26.065369">
<ele>152.795044</ele>
<time>2010-07-17T14:35:43Z</time>
<desc>lat.=55.848530, lon.=26.065369, Alt.=152.795044m. Speed=6.552000m/h.</desc>
<speed>1.820000</speed>
</trkpt>
<trkpt lat="55.848549" lon="26.065350">
<ele>153.439575</ele>
<time>2010-07-17T14:35:44Z</time>
<desc>lat.=55.848549, lon.=26.065350, Alt.=153.439575m. Speed=8.424000m/h.</desc>
<speed>2.340000</speed>
</trkpt>
<trkpt lat="55.848564" lon="26.065327">
<ele>153.412231</ele>
<time>2010-07-17T14:35:45Z</time>
<desc>lat.=55.848564, lon.=26.065327, Alt.=153.412231m. Speed=8.676000m/h.</desc>
<speed>2.410000</speed>
</trkpt>
<trkpt lat="55.848576" lon="26.065292">
<ele>152.236450</ele>
<time>2010-07-17T14:35:46Z</time>
<desc>lat.=55.848576, lon.=26.065292, Alt.=152.236450m. Speed=10.368000m/h.</desc>
<speed>2.880000</speed>
</trkpt>
<trkpt lat="55.848595" lon="26.065258">
<ele>151.670044</ele>
<time>2010-07-17T14:35:47Z</time>
<desc>lat.=55.848595, lon.=26.065258, Alt.=151.670044m. Speed=9.792000m/h.</desc>
<speed>2.720000</speed>
</trkpt>
<trkpt lat="55.848614" lon="26.065229">
<ele>151.341919</ele>
<time>2010-07-17T14:35:48Z</time>
<desc>lat.=55.848614, lon.=26.065229, Alt.=151.341919m. Speed=9.900000m/h.</desc>
<speed>2.750000</speed>
</trkpt>
<trkpt lat="55.848637" lon="26.065205">
<ele>151.095825</ele>
<time>2010-07-17T14:35:49Z</time>
<desc>lat.=55.848637, lon.=26.065205, Alt.=151.095825m. Speed=10.980000m/h.</desc>
<speed>3.050000</speed>
</trkpt>
<trkpt lat="55.848667" lon="26.065184">
<ele>151.466919</ele>
<time>2010-07-17T14:35:50Z</time>
<desc>lat.=55.848667, lon.=26.065184, Alt.=151.466919m. Speed=12.456000m/h.</desc>
<speed>3.460000</speed>
</trkpt>
<trkpt lat="55.848698" lon="26.065151">
<ele>151.345825</ele>
<time>2010-07-17T14:35:51Z</time>
<desc>lat.=55.848698, lon.=26.065151, Alt.=151.345825m. Speed=13.536000m/h.</desc>
<speed>3.760000</speed>
</trkpt>
<trkpt lat="55.848728" lon="26.065115">
<ele>151.373169</ele>
<time>2010-07-17T14:35:52Z</time>
<desc>lat.=55.848728, lon.=26.065115, Alt.=151.373169m. Speed=14.040000m/h.</desc>
<speed>3.900000</speed>
</trkpt>
<trkpt lat="55.848759" lon="26.065077">
<ele>151.248169</ele>
<time>2010-07-17T14:35:53Z</time>
<desc>lat.=55.848759, lon.=26.065077, Alt.=151.248169m. Speed=13.248000m/h.</desc>
<speed>3.680000</speed>
</trkpt>
<trkpt lat="55.848785" lon="26.065041">
<ele>151.166138</ele>
<time>2010-07-17T14:35:54Z</time>
<desc>lat.=55.848785, lon.=26.065041, Alt.=151.166138m. Speed=12.276000m/h.</desc>
<speed>3.410000</speed>
</trkpt>
<trkpt lat="55.848808" lon="26.065002">
<ele>151.021606</ele>
<time>2010-07-17T14:35:55Z</time>
<desc>lat.=55.848808, lon.=26.065002, Alt.=151.021606m. Speed=13.140000m/h.</desc>
<speed>3.650000</speed>
</trkpt>
<trkpt lat="55.848839" lon="26.064968">
<ele>151.033325</ele>
<time>2010-07-17T14:35:56Z</time>
<desc>lat.=55.848839, lon.=26.064968, Alt.=151.033325m. Speed=13.392000m/h.</desc>
<speed>3.720000</speed>
</trkpt>
<trkpt lat="55.848858" lon="26.064939">
<ele>150.927856</ele>
<time>2010-07-17T14:35:57Z</time>
<desc>lat.=55.848858, lon.=26.064939, Alt.=150.927856m. Speed=7.596000m/h.</desc>
<speed>2.110000</speed>
</trkpt>
<trkpt lat="55.848866" lon="26.064930">
<ele>150.748169</ele>
<time>2010-07-17T14:35:58Z</time>
<desc>lat.=55.848866, lon.=26.064930, Alt.=150.748169m. Speed=1.368000m/h.</desc>
<speed>0.380000</speed>
</trkpt>
<trkpt lat="55.848869" lon="26.064928">
<ele>150.798950</ele>
<time>2010-07-17T14:35:59Z</time>
<desc>lat.=55.848869, lon.=26.064928, Alt.=150.798950m. Speed=0.900000m/h.</desc>
<speed>0.250000</speed>
</trkpt>
<trkpt lat="55.848869" lon="26.064928">
<ele>150.806763</ele>
<time>2010-07-17T14:36:00Z</time>
<desc>lat.=55.848869, lon.=26.064928, Alt.=150.806763m. Speed=0.432000m/h.</desc>
<speed>0.120000</speed>
</trkpt>
<trkpt lat="55.848866" lon="26.064928">
<ele>150.822388</ele>
<time>2010-07-17T14:36:01Z</time>
<desc>lat.=55.848866, lon.=26.064928, Alt.=150.822388m. Speed=0.432000m/h.</desc>
<speed>0.120000</speed>
</trkpt>
<trkpt lat="55.848866" lon="26.064928">
<ele>150.787231</ele>
<time>2010-07-17T14:36:02Z</time>
<desc>lat.=55.848866, lon.=26.064928, Alt.=150.787231m. Speed=0.144000m/h.</desc>
<speed>0.040000</speed>
</trkpt>
<trkpt lat="55.848866" lon="26.064928">
<ele>150.763794</ele>
<time>2010-07-17T14:36:03Z</time>
<desc>lat.=55.848866, lon.=26.064928, Alt.=150.763794m. Speed=0.036000m/h.</desc>
<speed>0.010000</speed>
</trkpt>
<trkpt lat="55.848866" lon="26.064928">
<ele>150.736450</ele>
<time>2010-07-17T14:36:04Z</time>
<desc>lat.=55.848866, lon.=26.064928, Alt.=150.736450m. Speed=0.108000m/h.</desc>
<speed>0.030000</speed>
</trkpt>
<trkpt lat="55.848866" lon="26.064928">
<ele>150.713013</ele>
<time>2010-07-17T14:36:05Z</time>
<desc>lat.=55.848866, lon.=26.064928, Alt.=150.713013m. Speed=0.864000m/h.</desc>
<speed>0.240000</speed>
</trkpt>
<trkpt lat="55.848869" lon="26.064928">
<ele>150.693481</ele>
<time>2010-07-17T14:36:06Z</time>
<desc>lat.=55.848869, lon.=26.064928, Alt.=150.693481m. Speed=1.908000m/h.</desc>
<speed>0.530000</speed>
</trkpt>
<trkpt lat="55.848873" lon="26.064924">
<ele>150.670044</ele>
<time>2010-07-17T14:36:07Z</time>
<desc>lat.=55.848873, lon.=26.064924, Alt.=150.670044m. Speed=2.664000m/h.</desc>
<speed>0.740000</speed>
</trkpt>
<trkpt lat="55.848877" lon="26.064922">
<ele>150.642700</ele>
<time>2010-07-17T14:36:08Z</time>
<desc>lat.=55.848877, lon.=26.064922, Alt.=150.642700m. Speed=2.916000m/h.</desc>
<speed>0.810000</speed>
</trkpt>
<trkpt lat="55.848885" lon="26.064919">
<ele>150.615356</ele>
<time>2010-07-17T14:36:09Z</time>
<desc>lat.=55.848885, lon.=26.064919, Alt.=150.615356m. Speed=2.160000m/h.</desc>
<speed>0.600000</speed>
</trkpt>
<trkpt lat="55.848892" lon="26.064913">
<ele>150.603638</ele>
<time>2010-07-17T14:36:10Z</time>
<desc>lat.=55.848892, lon.=26.064913, Alt.=150.603638m. Speed=0.828000m/h.</desc>
<speed>0.230000</speed>
</trkpt>
<trkpt lat="55.848892" lon="26.064913">
<ele>150.607544</ele>
<time>2010-07-17T14:36:11Z</time>
<desc>lat.=55.848892, lon.=26.064913, Alt.=150.607544m. Speed=0.252000m/h.</desc>
<speed>0.070000</speed>
</trkpt>
<trkpt lat="55.848892" lon="26.064913">
<ele>150.599731</ele>
<time>2010-07-17T14:36:12Z</time>
<desc>lat.=55.848892, lon.=26.064913, Alt.=150.599731m. Speed=0.216000m/h.</desc>
<speed>0.060000</speed>
</trkpt>
<trkpt lat="55.848892" lon="26.064915">
<ele>150.588013</ele>
<time>2010-07-17T14:36:13Z</time>
<desc>lat.=55.848892, lon.=26.064915, Alt.=150.588013m. Speed=0.180000m/h.</desc>
<speed>0.050000</speed>
</trkpt>
<trkpt lat="55.848892" lon="26.064915">
<ele>150.576294</ele>
<time>2010-07-17T14:36:14Z</time>
<desc>lat.=55.848892, lon.=26.064915, Alt.=150.576294m. Speed=0.144000m/h.</desc>
<speed>0.040000</speed>
</trkpt>
<trkpt lat="55.848892" lon="26.064915">
<ele>150.568481</ele>
<time>2010-07-17T14:36:15Z</time>
<desc>lat.=55.848892, lon.=26.064915, Alt.=150.568481m. Speed=0.144000m/h.</desc>
<speed>0.040000</speed>
</trkpt>
<trkpt lat="55.848892" lon="26.064917">
<ele>150.564575</ele>
<time>2010-07-17T14:36:16Z</time>
<desc>lat.=55.848892, lon.=26.064917, Alt.=150.564575m. Speed=0.072000m/h.</desc>
<speed>0.020000</speed>
</trkpt>
<trkpt lat="55.848892" lon="26.064917">
<ele>150.564575</ele>
<time>2010-07-17T14:36:17Z</time>
<desc>lat.=55.848892, lon.=26.064917, Alt.=150.564575m. Speed=0.108000m/h.</desc>
<speed>0.030000</speed>
</trkpt>
<trkpt lat="55.848892" lon="26.064917">
<ele>150.572388</ele>
<time>2010-07-17T14:36:18Z</time>
<desc>lat.=55.848892, lon.=26.064917, Alt.=150.572388m. Speed=0.144000m/h.</desc>
<speed>0.040000</speed>
</trkpt>
<trkpt lat="55.848892" lon="26.064919">
<ele>150.584106</ele>
<time>2010-07-17T14:36:19Z</time>
<desc>lat.=55.848892, lon.=26.064919, Alt.=150.584106m. Speed=0.216000m/h.</desc>
<speed>0.060000</speed>
</trkpt>
<trkpt lat="55.848892" lon="26.064919">
<ele>150.603638</ele>
<time>2010-07-17T14:36:20Z</time>
<desc>lat.=55.848892, lon.=26.064919, Alt.=150.603638m. Speed=0.360000m/h.</desc>
<speed>0.100000</speed>
</trkpt>
<trkpt lat="55.848892" lon="26.064920">
<ele>150.627075</ele>
<time>2010-07-17T14:36:21Z</time>
<desc>lat.=55.848892, lon.=26.064920, Alt.=150.627075m. Speed=0.288000m/h.</desc>
<speed>0.080000</speed>
</trkpt>
<trkpt lat="55.848892" lon="26.064922">
<ele>150.658325</ele>
<time>2010-07-17T14:36:22Z</time>
<desc>lat.=55.848892, lon.=26.064922, Alt.=150.658325m. Speed=0.216000m/h.</desc>
<speed>0.060000</speed>
</trkpt>
<trkpt lat="55.848892" lon="26.064922">
<ele>150.697388</ele>
<time>2010-07-17T14:36:23Z</time>
<desc>lat.=55.848892, lon.=26.064922, Alt.=150.697388m. Speed=0.252000m/h.</desc>
<speed>0.070000</speed>
</trkpt>
<trkpt lat="55.848896" lon="26.064922">
<ele>150.740356</ele>
<time>2010-07-17T14:36:24Z</time>
<desc>lat.=55.848896, lon.=26.064922, Alt.=150.740356m. Speed=0.072000m/h.</desc>
<speed>0.020000</speed>
</trkpt>
<trkpt lat="55.848896" lon="26.064924">
<ele>150.783325</ele>
<time>2010-07-17T14:36:25Z</time>
<desc>lat.=55.848896, lon.=26.064924, Alt.=150.783325m. Speed=0.360000m/h.</desc>
<speed>0.100000</speed>
</trkpt>
<trkpt lat="55.848896" lon="26.064922">
<ele>150.830200</ele>
<time>2010-07-17T14:36:26Z</time>
<desc>lat.=55.848896, lon.=26.064922, Alt.=150.830200m. Speed=0.216000m/h.</desc>
<speed>0.060000</speed>
</trkpt>
<trkpt lat="55.848896" lon="26.064922">
<ele>150.838013</ele>
<time>2010-07-17T14:36:27Z</time>
<desc>lat.=55.848896, lon.=26.064922, Alt.=150.838013m. Speed=0.108000m/h.</desc>
<speed>0.030000</speed>
</trkpt>
<trkpt lat="55.848896" lon="26.064922">
<ele>150.838013</ele>
<time>2010-07-17T14:36:28Z</time>
<desc>lat.=55.848896, lon.=26.064922, Alt.=150.838013m. Speed=0.036000m/h.</desc>
<speed>0.010000</speed>
</trkpt>
<trkpt lat="55.848896" lon="26.064922">
<ele>150.838013</ele>
<time>2010-07-17T14:36:29Z</time>
<desc>lat.=55.848896, lon.=26.064922, Alt.=150.838013m. Speed=0.108000m/h.</desc>
<speed>0.030000</speed>
</trkpt>
<trkpt lat="55.848896" lon="26.064922">
<ele>150.838013</ele>
<time>2010-07-17T14:36:30Z</time>
<desc>lat.=55.848896, lon.=26.064922, Alt.=150.838013m. Speed=0.504000m/h.</desc>
<speed>0.140000</speed>
</trkpt>
<trkpt lat="55.848896" lon="26.064922">
<ele>150.841919</ele>
<time>2010-07-17T14:36:31Z</time>
<desc>lat.=55.848896, lon.=26.064922, Alt.=150.841919m. Speed=0.216000m/h.</desc>
<speed>0.060000</speed>
</trkpt>
<trkpt lat="55.848896" lon="26.064920">
<ele>150.853638</ele>
<time>2010-07-17T14:36:32Z</time>
<desc>lat.=55.848896, lon.=26.064920, Alt.=150.853638m. Speed=4.068000m/h.</desc>
<speed>1.130000</speed>
</trkpt>
<trkpt lat="55.848907" lon="26.064913">
<ele>150.923950</ele>
<time>2010-07-17T14:36:33Z</time>
<desc>lat.=55.848907, lon.=26.064913, Alt.=150.923950m. Speed=5.364000m/h.</desc>
<speed>1.490000</speed>
</trkpt>
<trkpt lat="55.848915" lon="26.064892">
<ele>150.904419</ele>
<time>2010-07-17T14:36:34Z</time>
<desc>lat.=55.848915, lon.=26.064892, Alt.=150.904419m. Speed=6.336000m/h.</desc>
<speed>1.760000</speed>
</trkpt>
<trkpt lat="55.848930" lon="26.064871">
<ele>151.150513</ele>
<time>2010-07-17T14:36:35Z</time>
<desc>lat.=55.848930, lon.=26.064871, Alt.=151.150513m. Speed=3.672000m/h.</desc>
<speed>1.020000</speed>
</trkpt>
<trkpt lat="55.848934" lon="26.064863">
<ele>151.103638</ele>
<time>2010-07-17T14:36:36Z</time>
<desc>lat.=55.848934, lon.=26.064863, Alt.=151.103638m. Speed=1.260000m/h.</desc>
<speed>0.350000</speed>
</trkpt>
<trkpt lat="55.848934" lon="26.064867">
<ele>150.998169</ele>
<time>2010-07-17T14:36:37Z</time>
<desc>lat.=55.848934, lon.=26.064867, Alt.=150.998169m. Speed=1.080000m/h.</desc>
<speed>0.300000</speed>
</trkpt>
<trkpt lat="55.848934" lon="26.064869">
<ele>150.880981</ele>
<time>2010-07-17T14:36:38Z</time>
<desc>lat.=55.848934, lon.=26.064869, Alt.=150.880981m. Speed=0.720000m/h.</desc>
<speed>0.200000</speed>
</trkpt>
<trkpt lat="55.848930" lon="26.064859">
<ele>150.529419</ele>
<time>2010-07-17T14:36:39Z</time>
<desc>lat.=55.848930, lon.=26.064859, Alt.=150.529419m. Speed=0.252000m/h.</desc>
<speed>0.070000</speed>
</trkpt>
<trkpt lat="55.848927" lon="26.064859">
<ele>150.431763</ele>
<time>2010-07-17T14:36:40Z</time>
<desc>lat.=55.848927, lon.=26.064859, Alt.=150.431763m. Speed=0.036000m/h.</desc>
<speed>0.010000</speed>
</trkpt>
<trkpt lat="55.848927" lon="26.064863">
<ele>150.361450</ele>
<time>2010-07-17T14:36:41Z</time>
<desc>lat.=55.848927, lon.=26.064863, Alt.=150.361450m. Speed=0.108000m/h.</desc>
<speed>0.030000</speed>
</trkpt>
<trkpt lat="55.848927" lon="26.064863">
<ele>150.353638</ele>
<time>2010-07-17T14:36:42Z</time>
<desc>lat.=55.848927, lon.=26.064863, Alt.=150.353638m. Speed=0.072000m/h.</desc>
<speed>0.020000</speed>
</trkpt>
<trkpt lat="55.848927" lon="26.064863">
<ele>150.341919</ele>
<time>2010-07-17T14:36:43Z</time>
<desc>lat.=55.848927, lon.=26.064863, Alt.=150.341919m. Speed=0.072000m/h.</desc>
<speed>0.020000</speed>
</trkpt>
<trkpt lat="55.848927" lon="26.064863">
<ele>150.326294</ele>
<time>2010-07-17T14:36:44Z</time>
<desc>lat.=55.848927, lon.=26.064863, Alt.=150.326294m. Speed=0.036000m/h.</desc>
<speed>0.010000</speed>
</trkpt>
<trkpt lat="55.848927" lon="26.064863">
<ele>150.314575</ele>
<time>2010-07-17T14:36:45Z</time>
<desc>lat.=55.848927, lon.=26.064863, Alt.=150.314575m. Speed=0.036000m/h.</desc>
<speed>0.010000</speed>
</trkpt>
<trkpt lat="55.848927" lon="26.064863">
<ele>150.302856</ele>
<time>2010-07-17T14:36:46Z</time>
<desc>lat.=55.848927, lon.=26.064863, Alt.=150.302856m. Speed=0.036000m/h.</desc>
<speed>0.010000</speed>
</trkpt>
<trkpt lat="55.848927" lon="26.064863">
<ele>150.291138</ele>
<time>2010-07-17T14:36:47Z</time>
<desc>lat.=55.848927, lon.=26.064863, Alt.=150.291138m. Speed=0.036000m/h.</desc>
<speed>0.010000</speed>
</trkpt>
<trkpt lat="55.848927" lon="26.064863">
<ele>150.279419</ele>
<time>2010-07-17T14:36:48Z</time>
<desc>lat.=55.848927, lon.=26.064863, Alt.=150.279419m. Speed=0.072000m/h.</desc>
<speed>0.020000</speed>
</trkpt>
<trkpt lat="55.848927" lon="26.064863">
<ele>150.263794</ele>
<time>2010-07-17T14:36:49Z</time>
<desc>lat.=55.848927, lon.=26.064863, Alt.=150.263794m. Speed=0.072000m/h.</desc>
<speed>0.020000</speed>
</trkpt>
<trkpt lat="55.848927" lon="26.064863">
<ele>150.248169</ele>
<time>2010-07-17T14:36:50Z</time>
<desc>lat.=55.848927, lon.=26.064863, Alt.=150.248169m. Speed=0.144000m/h.</desc>
<speed>0.040000</speed>
</trkpt>
<trkpt lat="55.848930" lon="26.064861">
<ele>150.232544</ele>
<time>2010-07-17T14:36:51Z</time>
<desc>lat.=55.848930, lon.=26.064861, Alt.=150.232544m. Speed=0.216000m/h.</desc>
<speed>0.060000</speed>
</trkpt>
<trkpt lat="55.848930" lon="26.064861">
<ele>150.213013</ele>
<time>2010-07-17T14:36:52Z</time>
<desc>lat.=55.848930, lon.=26.064861, Alt.=150.213013m. Speed=0.324000m/h.</desc>
<speed>0.090000</speed>
</trkpt>
<trkpt lat="55.848930" lon="26.064859">
<ele>150.189575</ele>
<time>2010-07-17T14:36:53Z</time>
<desc>lat.=55.848930, lon.=26.064859, Alt.=150.189575m. Speed=0.288000m/h.</desc>
<speed>0.080000</speed>
</trkpt>
<trkpt lat="55.848930" lon="26.064857">
<ele>150.170044</ele>
<time>2010-07-17T14:36:54Z</time>
<desc>lat.=55.848930, lon.=26.064857, Alt.=150.170044m. Speed=0.252000m/h.</desc>
<speed>0.070000</speed>
</trkpt>
<trkpt lat="55.848930" lon="26.064857">
<ele>150.150513</ele>
<time>2010-07-17T14:36:55Z</time>
<desc>lat.=55.848930, lon.=26.064857, Alt.=150.150513m. Speed=0.252000m/h.</desc>
<speed>0.070000</speed>
</trkpt>
<trkpt lat="55.848930" lon="26.064857">
<ele>150.150513</ele>
<time>2010-07-17T14:36:56Z</time>
<desc>lat.=55.848930, lon.=26.064857, Alt.=150.150513m. Speed=0.000000m/h.</desc>
<speed>0.000000</speed>
</trkpt>
<trkpt lat="55.848930" lon="26.064857">
<ele>150.150513</ele>
<time>2010-07-17T14:36:57Z</time>
<desc>lat.=55.848930, lon.=26.064857, Alt.=150.150513m. Speed=0.000000m/h.</desc>
<speed>0.000000</speed>
</trkpt>
<trkpt lat="55.848930" lon="26.064857">
<ele>150.154419</ele>
<time>2010-07-17T14:36:58Z</time>
<desc>lat.=55.848930, lon.=26.064857, Alt.=150.154419m. Speed=0.036000m/h.</desc>
<speed>0.010000</speed>
</trkpt>
<trkpt lat="55.848930" lon="26.064857">
<ele>150.158325</ele>
<time>2010-07-17T14:36:59Z</time>
<desc>lat.=55.848930, lon.=26.064857, Alt.=150.158325m. Speed=0.144000m/h.</desc>
<speed>0.040000</speed>
</trkpt>
<trkpt lat="55.848930" lon="26.064856">
<ele>150.162231</ele>
<time>2010-07-17T14:37:00Z</time>
<desc>lat.=55.848930, lon.=26.064856, Alt.=150.162231m. Speed=0.036000m/h.</desc>
<speed>0.010000</speed>
</trkpt>
<trkpt lat="55.848930" lon="26.064856">
<ele>150.166138</ele>
<time>2010-07-17T14:37:01Z</time>
<desc>lat.=55.848930, lon.=26.064856, Alt.=150.166138m. Speed=0.000000m/h.</desc>
<speed>0.000000</speed>
</trkpt>
<trkpt lat="55.848930" lon="26.064856">
<ele>150.170044</ele>
<time>2010-07-17T14:37:02Z</time>
<desc>lat.=55.848930, lon.=26.064856, Alt.=150.170044m. Speed=0.000000m/h.</desc>
<speed>0.000000</speed>
</trkpt>
<trkpt lat="55.848930" lon="26.064856">
<ele>150.173950</ele>
<time>2010-07-17T14:37:03Z</time>
<desc>lat.=55.848930, lon.=26.064856, Alt.=150.173950m. Speed=0.036000m/h.</desc>
<speed>0.010000</speed>
</trkpt>
<trkpt lat="55.848930" lon="26.064856">
<ele>150.177856</ele>
<time>2010-07-17T14:37:04Z</time>
<desc>lat.=55.848930, lon.=26.064856, Alt.=150.177856m. Speed=0.000000m/h.</desc>
<speed>0.000000</speed>
</trkpt>
<trkpt lat="55.848930" lon="26.064856">
<ele>150.181763</ele>
<time>2010-07-17T14:37:05Z</time>
<desc>lat.=55.848930, lon.=26.064856, Alt.=150.181763m. Speed=0.072000m/h.</desc>
<speed>0.020000</speed>
</trkpt>
<trkpt lat="55.848930" lon="26.064856">
<ele>150.185669</ele>
<time>2010-07-17T14:37:06Z</time>
<desc>lat.=55.848930, lon.=26.064856, Alt.=150.185669m. Speed=0.216000m/h.</desc>
<speed>0.060000</speed>
</trkpt>
<trkpt lat="55.848930" lon="26.064856">
<ele>150.189575</ele>
<time>2010-07-17T14:37:07Z</time>
<desc>lat.=55.848930, lon.=26.064856, Alt.=150.189575m. Speed=0.036000m/h.</desc>
<speed>0.010000</speed>
</trkpt>
<trkpt lat="55.848930" lon="26.064856">
<ele>150.193481</ele>
<time>2010-07-17T14:37:08Z</time>
<desc>lat.=55.848930, lon.=26.064856, Alt.=150.193481m. Speed=0.072000m/h.</desc>
<speed>0.020000</speed>
</trkpt>
<trkpt lat="55.848930" lon="26.064856">
<ele>150.189575</ele>
<time>2010-07-17T14:37:09Z</time>
<desc>lat.=55.848930, lon.=26.064856, Alt.=150.189575m. Speed=0.072000m/h.</desc>
<speed>0.020000</speed>
</trkpt>
<trkpt lat="55.848930" lon="26.064856">
<ele>150.185669</ele>
<time>2010-07-17T14:37:10Z</time>
<desc>lat.=55.848930, lon.=26.064856, Alt.=150.185669m. Speed=0.036000m/h.</desc>
<speed>0.010000</speed>
</trkpt>
<trkpt lat="55.848930" lon="26.064856">
<ele>150.181763</ele>
<time>2010-07-17T14:37:11Z</time>
<desc>lat.=55.848930, lon.=26.064856, Alt.=150.181763m. Speed=0.036000m/h.</desc>
<speed>0.010000</speed>
</trkpt>
<trkpt lat="55.848930" lon="26.064856">
<ele>150.189575</ele>
<time>2010-07-17T14:37:12Z</time>
<desc>lat.=55.848930, lon.=26.064856, Alt.=150.189575m. Speed=0.180000m/h.</desc>
<speed>0.050000</speed>
</trkpt>
<trkpt lat="55.848930" lon="26.064856">
<ele>150.201294</ele>
<time>2010-07-17T14:37:13Z</time>
<desc>lat.=55.848930, lon.=26.064856, Alt.=150.201294m. Speed=0.108000m/h.</desc>
<speed>0.030000</speed>
</trkpt>
<trkpt lat="55.848930" lon="26.064856">
<ele>150.197388</ele>
<time>2010-07-17T14:37:14Z</time>
<desc>lat.=55.848930, lon.=26.064856, Alt.=150.197388m. Speed=0.036000m/h.</desc>
<speed>0.010000</speed>
</trkpt>
<trkpt lat="55.848930" lon="26.064856">
<ele>150.201294</ele>
<time>2010-07-17T14:37:15Z</time>
<desc>lat.=55.848930, lon.=26.064856, Alt.=150.201294m. Speed=0.036000m/h.</desc>
<speed>0.010000</speed>
</trkpt>
<trkpt lat="55.848930" lon="26.064856">
<ele>150.209106</ele>
<time>2010-07-17T14:37:16Z</time>
<desc>lat.=55.848930, lon.=26.064856, Alt.=150.209106m. Speed=0.036000m/h.</desc>
<speed>0.010000</speed>
</trkpt>
<trkpt lat="55.848930" lon="26.064856">
<ele>150.213013</ele>
<time>2010-07-17T14:37:17Z</time>
<desc>lat.=55.848930, lon.=26.064856, Alt.=150.213013m. Speed=0.036000m/h.</desc>
<speed>0.010000</speed>
</trkpt>
<trkpt lat="55.848930" lon="26.064856">
<ele>150.220825</ele>
<time>2010-07-17T14:37:18Z</time>
<desc>lat.=55.848930, lon.=26.064856, Alt.=150.220825m. Speed=0.072000m/h.</desc>
<speed>0.020000</speed>
</trkpt>
<trkpt lat="55.848930" lon="26.064856">
<ele>150.224731</ele>
<time>2010-07-17T14:37:19Z</time>
<desc>lat.=55.848930, lon.=26.064856, Alt.=150.224731m. Speed=0.000000m/h.</desc>
<speed>0.000000</speed>
</trkpt>
<trkpt lat="55.848930" lon="26.064856">
<ele>150.228638</ele>
<time>2010-07-17T14:37:20Z</time>
<desc>lat.=55.848930, lon.=26.064856, Alt.=150.228638m. Speed=0.000000m/h.</desc>
<speed>0.000000</speed>
</trkpt>
<trkpt lat="55.848930" lon="26.064856">
<ele>150.232544</ele>
<time>2010-07-17T14:37:21Z</time>
<desc>lat.=55.848930, lon.=26.064856, Alt.=150.232544m. Speed=0.216000m/h.</desc>
<speed>0.060000</speed>
</trkpt>
<trkpt lat="55.848930" lon="26.064856">
<ele>150.236450</ele>
<time>2010-07-17T14:37:22Z</time>
<desc>lat.=55.848930, lon.=26.064856, Alt.=150.236450m. Speed=0.000000m/h.</desc>
<speed>0.000000</speed>
</trkpt>
<trkpt lat="55.848930" lon="26.064856">
<ele>150.236450</ele>
<time>2010-07-17T14:37:23Z</time>
<desc>lat.=55.848930, lon.=26.064856, Alt.=150.236450m. Speed=0.000000m/h.</desc>
<speed>0.000000</speed>
</trkpt>
<trkpt lat="55.848930" lon="26.064856">
<ele>150.236450</ele>
<time>2010-07-17T14:37:24Z</time>
<desc>lat.=55.848930, lon.=26.064856, Alt.=150.236450m. Speed=0.036000m/h.</desc>
<speed>0.010000</speed>
</trkpt>
<trkpt lat="55.848930" lon="26.064856">
<ele>150.240356</ele>
<time>2010-07-17T14:37:25Z</time>
<desc>lat.=55.848930, lon.=26.064856, Alt.=150.240356m. Speed=0.036000m/h.</desc>
<speed>0.010000</speed>
</trkpt>
<trkpt lat="55.848930" lon="26.064856">
<ele>150.244263</ele>
<time>2010-07-17T14:37:26Z</time>
<desc>lat.=55.848930, lon.=26.064856, Alt.=150.244263m. Speed=0.000000m/h.</desc>
<speed>0.000000</speed>
</trkpt>
<trkpt lat="55.848930" lon="26.064856">
<ele>150.252075</ele>
<time>2010-07-17T14:37:27Z</time>
<desc>lat.=55.848930, lon.=26.064856, Alt.=150.252075m. Speed=0.252000m/h.</desc>
<speed>0.070000</speed>
</trkpt>
<trkpt lat="55.848930" lon="26.064856">
<ele>150.259888</ele>
<time>2010-07-17T14:37:28Z</time>
<desc>lat.=55.848930, lon.=26.064856, Alt.=150.259888m. Speed=0.252000m/h.</desc>
<speed>0.070000</speed>
</trkpt>
<trkpt lat="55.848930" lon="26.064856">
<ele>150.267700</ele>
<time>2010-07-17T14:37:29Z</time>
<desc>lat.=55.848930, lon.=26.064856, Alt.=150.267700m. Speed=0.648000m/h.</desc>
<speed>0.180000</speed>
</trkpt>
<trkpt lat="55.848930" lon="26.064856">
<ele>150.275513</ele>
<time>2010-07-17T14:37:30Z</time>
<desc>lat.=55.848930, lon.=26.064856, Alt.=150.275513m. Speed=3.564000m/h.</desc>
<speed>0.990000</speed>
</trkpt>
<trkpt lat="55.848949" lon="26.064827">
<ele>150.353638</ele>
<time>2010-07-17T14:37:31Z</time>
<desc>lat.=55.848949, lon.=26.064827, Alt.=150.353638m. Speed=8.712000m/h.</desc>
<speed>2.420000</speed>
</trkpt>
<trkpt lat="55.848972" lon="26.064802">
<ele>150.404419</ele>
<time>2010-07-17T14:37:32Z</time>
<desc>lat.=55.848972, lon.=26.064802, Alt.=150.404419m. Speed=9.396000m/h.</desc>
<speed>2.610000</speed>
</trkpt>
<trkpt lat="55.848991" lon="26.064774">
<ele>150.298950</ele>
<time>2010-07-17T14:37:33Z</time>
<desc>lat.=55.848991, lon.=26.064774, Alt.=150.298950m. Speed=9.000000m/h.</desc>
<speed>2.500000</speed>
</trkpt>
<trkpt lat="55.849014" lon="26.064749">
<ele>150.580200</ele>
<time>2010-07-17T14:37:34Z</time>
<desc>lat.=55.849014, lon.=26.064749, Alt.=150.580200m. Speed=8.820000m/h.</desc>
<speed>2.450000</speed>
</trkpt>
<trkpt lat="55.849030" lon="26.064722">
<ele>150.732544</ele>
<time>2010-07-17T14:37:35Z</time>
<desc>lat.=55.849030, lon.=26.064722, Alt.=150.732544m. Speed=7.200000m/h.</desc>
<speed>2.000000</speed>
</trkpt>
<trkpt lat="55.849033" lon="26.064697">
<ele>149.287231</ele>
<time>2010-07-17T14:37:36Z</time>
<desc>lat.=55.849033, lon.=26.064697, Alt.=149.287231m. Speed=3.924000m/h.</desc>
<speed>1.090000</speed>
</trkpt>
<trkpt lat="55.849030" lon="26.064678">
<ele>148.865356</ele>
<time>2010-07-17T14:37:37Z</time>
<desc>lat.=55.849030, lon.=26.064678, Alt.=148.865356m. Speed=6.588000m/h.</desc>
<speed>1.830000</speed>
</trkpt>
<trkpt lat="55.849022" lon="26.064665">
<ele>148.439575</ele>
<time>2010-07-17T14:37:38Z</time>
<desc>lat.=55.849022, lon.=26.064665, Alt.=148.439575m. Speed=2.304000m/h.</desc>
<speed>0.640000</speed>
</trkpt>
<trkpt lat="55.849022" lon="26.064659">
<ele>148.384888</ele>
<time>2010-07-17T14:37:39Z</time>
<desc>lat.=55.849022, lon.=26.064659, Alt.=148.384888m. Speed=1.332000m/h.</desc>
<speed>0.370000</speed>
</trkpt>
<trkpt lat="55.849022" lon="26.064651">
<ele>148.029419</ele>
<time>2010-07-17T14:37:40Z</time>
<desc>lat.=55.849022, lon.=26.064651, Alt.=148.029419m. Speed=1.440000m/h.</desc>
<speed>0.400000</speed>
</trkpt>
<trkpt lat="55.849018" lon="26.064644">
<ele>147.513794</ele>
<time>2010-07-17T14:37:41Z</time>
<desc>lat.=55.849018, lon.=26.064644, Alt.=147.513794m. Speed=1.584000m/h.</desc>
<speed>0.440000</speed>
</trkpt>
<trkpt lat="55.849018" lon="26.064640">
<ele>147.240356</ele>
<time>2010-07-17T14:37:42Z</time>
<desc>lat.=55.849018, lon.=26.064640, Alt.=147.240356m. Speed=0.792000m/h.</desc>
<speed>0.220000</speed>
</trkpt>
<trkpt lat="55.849018" lon="26.064642">
<ele>147.439575</ele>
<time>2010-07-17T14:37:43Z</time>
<desc>lat.=55.849018, lon.=26.064642, Alt.=147.439575m. Speed=0.432000m/h.</desc>
<speed>0.120000</speed>
</trkpt>
<trkpt lat="55.849022" lon="26.064642">
<ele>147.482544</ele>
<time>2010-07-17T14:37:44Z</time>
<desc>lat.=55.849022, lon.=26.064642, Alt.=147.482544m. Speed=0.432000m/h.</desc>
<speed>0.120000</speed>
</trkpt>
<trkpt lat="55.849026" lon="26.064640">
<ele>147.420044</ele>
<time>2010-07-17T14:37:45Z</time>
<desc>lat.=55.849026, lon.=26.064640, Alt.=147.420044m. Speed=0.360000m/h.</desc>
<speed>0.100000</speed>
</trkpt>
<trkpt lat="55.849022" lon="26.064638">
<ele>147.341919</ele>
<time>2010-07-17T14:37:46Z</time>
<desc>lat.=55.849022, lon.=26.064638, Alt.=147.341919m. Speed=0.036000m/h.</desc>
<speed>0.010000</speed>
</trkpt>
<trkpt lat="55.849022" lon="26.064638">
<ele>147.334106</ele>
<time>2010-07-17T14:37:47Z</time>
<desc>lat.=55.849022, lon.=26.064638, Alt.=147.334106m. Speed=0.036000m/h.</desc>
<speed>0.010000</speed>
</trkpt>
<trkpt lat="55.849022" lon="26.064638">
<ele>147.310669</ele>
<time>2010-07-17T14:37:48Z</time>
<desc>lat.=55.849022, lon.=26.064638, Alt.=147.310669m. Speed=0.144000m/h.</desc>
<speed>0.040000</speed>
</trkpt>
<trkpt lat="55.849022" lon="26.064638">
<ele>147.279419</ele>
<time>2010-07-17T14:37:49Z</time>
<desc>lat.=55.849022, lon.=26.064638, Alt.=147.279419m. Speed=0.324000m/h.</desc>
<speed>0.090000</speed>
</trkpt>
<trkpt lat="55.849026" lon="26.064638">
<ele>147.259888</ele>
<time>2010-07-17T14:37:50Z</time>
<desc>lat.=55.849026, lon.=26.064638, Alt.=147.259888m. Speed=0.324000m/h.</desc>
<speed>0.090000</speed>
</trkpt>
<trkpt lat="55.849026" lon="26.064640">
<ele>147.244263</ele>
<time>2010-07-17T14:37:51Z</time>
<desc>lat.=55.849026, lon.=26.064640, Alt.=147.244263m. Speed=0.396000m/h.</desc>
<speed>0.110000</speed>
</trkpt>
<trkpt lat="55.849026" lon="26.064640">
<ele>147.228638</ele>
<time>2010-07-17T14:37:52Z</time>
<desc>lat.=55.849026, lon.=26.064640, Alt.=147.228638m. Speed=0.504000m/h.</desc>
<speed>0.140000</speed>
</trkpt>
<trkpt lat="55.849026" lon="26.064640">
<ele>147.209106</ele>
<time>2010-07-17T14:37:53Z</time>
<desc>lat.=55.849026, lon.=26.064640, Alt.=147.209106m. Speed=0.540000m/h.</desc>
<speed>0.150000</speed>
</trkpt>
<trkpt lat="55.849030" lon="26.064638">
<ele>147.193481</ele>
<time>2010-07-17T14:37:54Z</time>
<desc>lat.=55.849030, lon.=26.064638, Alt.=147.193481m. Speed=0.972000m/h.</desc>
<speed>0.270000</speed>
</trkpt>
<trkpt lat="55.849030" lon="26.064636">
<ele>147.181763</ele>
<time>2010-07-17T14:37:55Z</time>
<desc>lat.=55.849030, lon.=26.064636, Alt.=147.181763m. Speed=2.700000m/h.</desc>
<speed>0.750000</speed>
</trkpt>
<trkpt lat="55.849045" lon="26.064623">
<ele>147.248169</ele>
<time>2010-07-17T14:37:56Z</time>
<desc>lat.=55.849045, lon.=26.064623, Alt.=147.248169m. Speed=4.104000m/h.</desc>
<speed>1.140000</speed>
</trkpt>
<trkpt lat="55.849060" lon="26.064600">
<ele>147.002075</ele>
<time>2010-07-17T14:37:57Z</time>
<desc>lat.=55.849060, lon.=26.064600, Alt.=147.002075m. Speed=6.624000m/h.</desc>
<speed>1.840000</speed>
</trkpt>
<trkpt lat="55.849079" lon="26.064573">
<ele>147.056763</ele>
<time>2010-07-17T14:37:58Z</time>
<desc>lat.=55.849079, lon.=26.064573, Alt.=147.056763m. Speed=8.424000m/h.</desc>
<speed>2.340000</speed>
</trkpt>
<trkpt lat="55.849102" lon="26.064548">
<ele>146.982544</ele>
<time>2010-07-17T14:37:59Z</time>
<desc>lat.=55.849102, lon.=26.064548, Alt.=146.982544m. Speed=7.920000m/h.</desc>
<speed>2.200000</speed>
</trkpt>
<trkpt lat="55.849121" lon="26.064520">
<ele>146.978638</ele>
<time>2010-07-17T14:38:00Z</time>
<desc>lat.=55.849121, lon.=26.064520, Alt.=146.978638m. Speed=9.360000m/h.</desc>
<speed>2.600000</speed>
</trkpt>
<trkpt lat="55.849136" lon="26.064489">
<ele>147.072388</ele>
<time>2010-07-17T14:38:01Z</time>
<desc>lat.=55.849136, lon.=26.064489, Alt.=147.072388m. Speed=8.604000m/h.</desc>
<speed>2.390000</speed>
</trkpt>
<trkpt lat="55.849155" lon="26.064461">
<ele>147.060669</ele>
<time>2010-07-17T14:38:02Z</time>
<desc>lat.=55.849155, lon.=26.064461, Alt.=147.060669m. Speed=8.424000m/h.</desc>
<speed>2.340000</speed>
</trkpt>
<trkpt lat="55.849174" lon="26.064438">
<ele>147.263794</ele>
<time>2010-07-17T14:38:03Z</time>
<desc>lat.=55.849174, lon.=26.064438, Alt.=147.263794m. Speed=7.920000m/h.</desc>
<speed>2.200000</speed>
</trkpt>
<trkpt lat="55.849194" lon="26.064413">
<ele>147.580200</ele>
<time>2010-07-17T14:38:04Z</time>
<desc>lat.=55.849194, lon.=26.064413, Alt.=147.580200m. Speed=9.036000m/h.</desc>
<speed>2.510000</speed>
</trkpt>
<trkpt lat="55.849213" lon="26.064381">
<ele>148.279419</ele>
<time>2010-07-17T14:38:05Z</time>
<desc>lat.=55.849213, lon.=26.064381, Alt.=148.279419m. Speed=9.288000m/h.</desc>
<speed>2.580000</speed>
</trkpt>
<trkpt lat="55.849232" lon="26.064346">
<ele>148.283325</ele>
<time>2010-07-17T14:38:06Z</time>
<desc>lat.=55.849232, lon.=26.064346, Alt.=148.283325m. Speed=10.224000m/h.</desc>
<speed>2.840000</speed>
</trkpt>
<trkpt lat="55.849255" lon="26.064322">
<ele>148.369263</ele>
<time>2010-07-17T14:38:07Z</time>
<desc>lat.=55.849255, lon.=26.064322, Alt.=148.369263m. Speed=10.872000m/h.</desc>
<speed>3.020000</speed>
</trkpt>
<trkpt lat="55.849281" lon="26.064301">
<ele>148.685669</ele>
<time>2010-07-17T14:38:08Z</time>
<desc>lat.=55.849281, lon.=26.064301, Alt.=148.685669m. Speed=10.980000m/h.</desc>
<speed>3.050000</speed>
</trkpt>
<trkpt lat="55.849316" lon="26.064278">
<ele>149.377075</ele>
<time>2010-07-17T14:38:09Z</time>
<desc>lat.=55.849316, lon.=26.064278, Alt.=149.377075m. Speed=12.204000m/h.</desc>
<speed>3.390000</speed>
</trkpt>
<trkpt lat="55.849342" lon="26.064241">
<ele>149.103638</ele>
<time>2010-07-17T14:38:10Z</time>
<desc>lat.=55.849342, lon.=26.064241, Alt.=149.103638m. Speed=12.600000m/h.</desc>
<speed>3.500000</speed>
</trkpt>
<trkpt lat="55.849369" lon="26.064209">
<ele>149.298950</ele>
<time>2010-07-17T14:38:11Z</time>
<desc>lat.=55.849369, lon.=26.064209, Alt.=149.298950m. Speed=13.068000m/h.</desc>
<speed>3.630000</speed>
</trkpt>
<trkpt lat="55.849400" lon="26.064167">
<ele>149.330200</ele>
<time>2010-07-17T14:38:12Z</time>
<desc>lat.=55.849400, lon.=26.064167, Alt.=149.330200m. Speed=13.896000m/h.</desc>
<speed>3.860000</speed>
</trkpt>
<trkpt lat="55.849426" lon="26.064119">
<ele>149.388794</ele>
<time>2010-07-17T14:38:13Z</time>
<desc>lat.=55.849426, lon.=26.064119, Alt.=149.388794m. Speed=15.120000m/h.</desc>
<speed>4.200000</speed>
</trkpt>
<trkpt lat="55.849461" lon="26.064077">
<ele>149.755981</ele>
<time>2010-07-17T14:38:14Z</time>
<desc>lat.=55.849461, lon.=26.064077, Alt.=149.755981m. Speed=16.236000m/h.</desc>
<speed>4.510000</speed>
</trkpt>
<trkpt lat="55.849495" lon="26.064034">
<ele>149.615356</ele>
<time>2010-07-17T14:38:15Z</time>
<desc>lat.=55.849495, lon.=26.064034, Alt.=149.615356m. Speed=16.488001m/h.</desc>
<speed>4.580000</speed>
</trkpt>
<trkpt lat="55.849525" lon="26.063986">
<ele>149.111450</ele>
<time>2010-07-17T14:38:16Z</time>
<desc>lat.=55.849525, lon.=26.063986, Alt.=149.111450m. Speed=17.604000m/h.</desc>
<speed>4.890000</speed>
</trkpt>
<trkpt lat="55.849560" lon="26.063934">
<ele>148.888794</ele>
<time>2010-07-17T14:38:17Z</time>
<desc>lat.=55.849560, lon.=26.063934, Alt.=148.888794m. Speed=18.143999m/h.</desc>
<speed>5.040000</speed>
</trkpt>
<trkpt lat="55.849602" lon="26.063881">
<ele>148.779419</ele>
<time>2010-07-17T14:38:18Z</time>
<desc>lat.=55.849602, lon.=26.063881, Alt.=148.779419m. Speed=18.684000m/h.</desc>
<speed>5.190000</speed>
</trkpt>
<trkpt lat="55.849640" lon="26.063826">
<ele>148.732544</ele>
<time>2010-07-17T14:38:19Z</time>
<desc>lat.=55.849640, lon.=26.063826, Alt.=148.732544m. Speed=19.908001m/h.</desc>
<speed>5.530000</speed>
</trkpt>
<trkpt lat="55.849682" lon="26.063772">
<ele>149.287231</ele>
<time>2010-07-17T14:38:20Z</time>
<desc>lat.=55.849682, lon.=26.063772, Alt.=149.287231m. Speed=20.483999m/h.</desc>
<speed>5.690000</speed>
</trkpt>
<trkpt lat="55.849728" lon="26.063709">
<ele>149.634888</ele>
<time>2010-07-17T14:38:21Z</time>
<desc>lat.=55.849728, lon.=26.063709, Alt.=149.634888m. Speed=20.556000m/h.</desc>
<speed>5.710000</speed>
</trkpt>
<trkpt lat="55.849766" lon="26.063650">
<ele>149.564575</ele>
<time>2010-07-17T14:38:22Z</time>
<desc>lat.=55.849766, lon.=26.063650, Alt.=149.564575m. Speed=19.872000m/h.</desc>
<speed>5.520000</speed>
</trkpt>
<trkpt lat="55.849808" lon="26.063597">
<ele>149.857544</ele>
<time>2010-07-17T14:38:23Z</time>
<desc>lat.=55.849808, lon.=26.063597, Alt.=149.857544m. Speed=20.016001m/h.</desc>
<speed>5.560000</speed>
</trkpt>
<trkpt lat="55.849850" lon="26.063541">
<ele>149.650513</ele>
<time>2010-07-17T14:38:24Z</time>
<desc>lat.=55.849850, lon.=26.063541, Alt.=149.650513m. Speed=20.124001m/h.</desc>
<speed>5.590000</speed>
</trkpt>
<trkpt lat="55.849888" lon="26.063488">
<ele>149.388794</ele>
<time>2010-07-17T14:38:25Z</time>
<desc>lat.=55.849888, lon.=26.063488, Alt.=149.388794m. Speed=19.980000m/h.</desc>
<speed>5.550000</speed>
</trkpt>
<trkpt lat="55.849926" lon="26.063431">
<ele>149.599731</ele>
<time>2010-07-17T14:38:26Z</time>
<desc>lat.=55.849926, lon.=26.063431, Alt.=149.599731m. Speed=20.375999m/h.</desc>
<speed>5.660000</speed>
</trkpt>
<trkpt lat="55.849972" lon="26.063374">
<ele>149.724731</ele>
<time>2010-07-17T14:38:27Z</time>
<desc>lat.=55.849972, lon.=26.063374, Alt.=149.724731m. Speed=20.988001m/h.</desc>
<speed>5.830000</speed>
</trkpt>
<trkpt lat="55.850014" lon="26.063318">
<ele>149.880981</ele>
<time>2010-07-17T14:38:28Z</time>
<desc>lat.=55.850014, lon.=26.063318, Alt.=149.880981m. Speed=21.492001m/h.</desc>
<speed>5.970000</speed>
</trkpt>
<trkpt lat="55.850060" lon="26.063265">
<ele>150.220825</ele>
<time>2010-07-17T14:38:29Z</time>
<desc>lat.=55.850060, lon.=26.063265, Alt.=150.220825m. Speed=21.384001m/h.</desc>
<speed>5.940000</speed>
</trkpt>
<trkpt lat="55.850098" lon="26.063202">
<ele>149.955200</ele>
<time>2010-07-17T14:38:30Z</time>
<desc>lat.=55.850098, lon.=26.063202, Alt.=149.955200m. Speed=20.879999m/h.</desc>
<speed>5.800000</speed>
</trkpt>
<trkpt lat="55.850140" lon="26.063147">
<ele>149.658325</ele>
<time>2010-07-17T14:38:31Z</time>
<desc>lat.=55.850140, lon.=26.063147, Alt.=149.658325m. Speed=21.851999m/h.</desc>
<speed>6.070000</speed>
</trkpt>
<trkpt lat="55.850185" lon="26.063093">
<ele>149.822388</ele>
<time>2010-07-17T14:38:32Z</time>
<desc>lat.=55.850185, lon.=26.063093, Alt.=149.822388m. Speed=21.528000m/h.</desc>
<speed>5.980000</speed>
</trkpt>
<trkpt lat="55.850227" lon="26.063030">
<ele>149.838013</ele>
<time>2010-07-17T14:38:33Z</time>
<desc>lat.=55.850227, lon.=26.063030, Alt.=149.838013m. Speed=20.448000m/h.</desc>
<speed>5.680000</speed>
</trkpt>
<trkpt lat="55.850269" lon="26.062981">
<ele>149.947388</ele>
<time>2010-07-17T14:38:34Z</time>
<desc>lat.=55.850269, lon.=26.062981, Alt.=149.947388m. Speed=19.980000m/h.</desc>
<speed>5.550000</speed>
</trkpt>
<trkpt lat="55.850307" lon="26.062923">
<ele>149.849731</ele>
<time>2010-07-17T14:38:35Z</time>
<desc>lat.=55.850307, lon.=26.062923, Alt.=149.849731m. Speed=20.016001m/h.</desc>
<speed>5.560000</speed>
</trkpt>
<trkpt lat="55.850346" lon="26.062862">
<ele>149.584106</ele>
<time>2010-07-17T14:38:36Z</time>
<desc>lat.=55.850346, lon.=26.062862, Alt.=149.584106m. Speed=20.160000m/h.</desc>
<speed>5.600000</speed>
</trkpt>
<trkpt lat="55.850384" lon="26.062799">
<ele>149.654419</ele>
<time>2010-07-17T14:38:37Z</time>
<desc>lat.=55.850384, lon.=26.062799, Alt.=149.654419m. Speed=20.700001m/h.</desc>
<speed>5.750000</speed>
</trkpt>
<trkpt lat="55.850422" lon="26.062740">
<ele>149.502075</ele>
<time>2010-07-17T14:38:38Z</time>
<desc>lat.=55.850422, lon.=26.062740, Alt.=149.502075m. Speed=20.808001m/h.</desc>
<speed>5.780000</speed>
</trkpt>
<trkpt lat="55.850468" lon="26.062681">
<ele>149.537231</ele>
<time>2010-07-17T14:38:39Z</time>
<desc>lat.=55.850468, lon.=26.062681, Alt.=149.537231m. Speed=21.348000m/h.</desc>
<speed>5.930000</speed>
</trkpt>
<trkpt lat="55.850513" lon="26.062624">
<ele>149.877075</ele>
<time>2010-07-17T14:38:40Z</time>
<desc>lat.=55.850513, lon.=26.062624, Alt.=149.877075m. Speed=21.708000m/h.</desc>
<speed>6.030000</speed>
</trkpt>
<trkpt lat="55.850555" lon="26.062561">
<ele>149.795044</ele>
<time>2010-07-17T14:38:41Z</time>
<desc>lat.=55.850555, lon.=26.062561, Alt.=149.795044m. Speed=21.708000m/h.</desc>
<speed>6.030000</speed>
</trkpt>
<trkpt lat="55.850597" lon="26.062500">
<ele>149.705200</ele>
<time>2010-07-17T14:38:42Z</time>
<desc>lat.=55.850597, lon.=26.062500, Alt.=149.705200m. Speed=21.384001m/h.</desc>
<speed>5.940000</speed>
</trkpt>
<trkpt lat="55.850639" lon="26.062441">
<ele>149.740356</ele>
<time>2010-07-17T14:38:43Z</time>
<desc>lat.=55.850639, lon.=26.062441, Alt.=149.740356m. Speed=21.132000m/h.</desc>
<speed>5.870000</speed>
</trkpt>
<trkpt lat="55.850677" lon="26.062380">
<ele>149.295044</ele>
<time>2010-07-17T14:38:44Z</time>
<desc>lat.=55.850677, lon.=26.062380, Alt.=149.295044m. Speed=22.464001m/h.</desc>
<speed>6.240000</speed>
</trkpt>
<trkpt lat="55.850719" lon="26.062325">
<ele>149.255981</ele>
<time>2010-07-17T14:38:45Z</time>
<desc>lat.=55.850719, lon.=26.062325, Alt.=149.255981m. Speed=19.764000m/h.</desc>
<speed>5.490000</speed>
</trkpt>
<trkpt lat="55.850758" lon="26.062267">
<ele>149.119263</ele>
<time>2010-07-17T14:38:46Z</time>
<desc>lat.=55.850758, lon.=26.062267, Alt.=149.119263m. Speed=20.448000m/h.</desc>
<speed>5.680000</speed>
</trkpt>
<trkpt lat="55.850800" lon="26.062218">
<ele>149.377075</ele>
<time>2010-07-17T14:38:47Z</time>
<desc>lat.=55.850800, lon.=26.062218, Alt.=149.377075m. Speed=19.007999m/h.</desc>
<speed>5.280000</speed>
</trkpt>
<trkpt lat="55.850834" lon="26.062164">
<ele>149.420044</ele>
<time>2010-07-17T14:38:48Z</time>
<desc>lat.=55.850834, lon.=26.062164, Alt.=149.420044m. Speed=18.540001m/h.</desc>
<speed>5.150000</speed>
</trkpt>
<trkpt lat="55.850868" lon="26.062111">
<ele>149.584106</ele>
<time>2010-07-17T14:38:49Z</time>
<desc>lat.=55.850868, lon.=26.062111, Alt.=149.584106m. Speed=17.424000m/h.</desc>
<speed>4.840000</speed>
</trkpt>
<trkpt lat="55.850903" lon="26.062057">
<ele>149.552856</ele>
<time>2010-07-17T14:38:50Z</time>
<desc>lat.=55.850903, lon.=26.062057, Alt.=149.552856m. Speed=17.424000m/h.</desc>
<speed>4.840000</speed>
</trkpt>
<trkpt lat="55.850937" lon="26.062004">
<ele>149.353638</ele>
<time>2010-07-17T14:38:51Z</time>
<desc>lat.=55.850937, lon.=26.062004, Alt.=149.353638m. Speed=18.143999m/h.</desc>
<speed>5.040000</speed>
</trkpt>
<trkpt lat="55.850975" lon="26.061953">
<ele>149.654419</ele>
<time>2010-07-17T14:38:52Z</time>
<desc>lat.=55.850975, lon.=26.061953, Alt.=149.654419m. Speed=18.323999m/h.</desc>
<speed>5.090000</speed>
</trkpt>
<trkpt lat="55.851013" lon="26.061901">
<ele>149.482544</ele>
<time>2010-07-17T14:38:53Z</time>
<desc>lat.=55.851013, lon.=26.061901, Alt.=149.482544m. Speed=18.323999m/h.</desc>
<speed>5.090000</speed>
</trkpt>
<trkpt lat="55.851055" lon="26.061853">
<ele>149.759888</ele>
<time>2010-07-17T14:38:54Z</time>
<desc>lat.=55.851055, lon.=26.061853, Alt.=149.759888m. Speed=18.323999m/h.</desc>
<speed>5.090000</speed>
</trkpt>
<trkpt lat="55.851093" lon="26.061808">
<ele>150.142700</ele>
<time>2010-07-17T14:38:55Z</time>
<desc>lat.=55.851093, lon.=26.061808, Alt.=150.142700m. Speed=17.892000m/h.</desc>
<speed>4.970000</speed>
</trkpt>
<trkpt lat="55.851131" lon="26.061766">
<ele>150.584106</ele>
<time>2010-07-17T14:38:56Z</time>
<desc>lat.=55.851131, lon.=26.061766, Alt.=150.584106m. Speed=18.827999m/h.</desc>
<speed>5.230000</speed>
</trkpt>
<trkpt lat="55.851177" lon="26.061716">
<ele>150.818481</ele>
<time>2010-07-17T14:38:57Z</time>
<desc>lat.=55.851177, lon.=26.061716, Alt.=150.818481m. Speed=20.195999m/h.</desc>
<speed>5.610000</speed>
</trkpt>
<trkpt lat="55.851212" lon="26.061666">
<ele>150.638794</ele>
<time>2010-07-17T14:38:58Z</time>
<desc>lat.=55.851212, lon.=26.061666, Alt.=150.638794m. Speed=18.972000m/h.</desc>
<speed>5.270000</speed>
</trkpt>
<trkpt lat="55.851250" lon="26.061607">
<ele>150.693481</ele>
<time>2010-07-17T14:38:59Z</time>
<desc>lat.=55.851250, lon.=26.061607, Alt.=150.693481m. Speed=19.296000m/h.</desc>
<speed>5.360000</speed>
</trkpt>
<trkpt lat="55.851292" lon="26.061554">
<ele>150.857544</ele>
<time>2010-07-17T14:39:00Z</time>
<desc>lat.=55.851292, lon.=26.061554, Alt.=150.857544m. Speed=19.799999m/h.</desc>
<speed>5.500000</speed>
</trkpt>
<trkpt lat="55.851337" lon="26.061501">
<ele>151.146606</ele>
<time>2010-07-17T14:39:01Z</time>
<desc>lat.=55.851337, lon.=26.061501, Alt.=151.146606m. Speed=20.808001m/h.</desc>
<speed>5.780000</speed>
</trkpt>
<trkpt lat="55.851376" lon="26.061445">
<ele>151.463013</ele>
<time>2010-07-17T14:39:02Z</time>
<desc>lat.=55.851376, lon.=26.061445, Alt.=151.463013m. Speed=21.672001m/h.</desc>
<speed>6.020000</speed>
</trkpt>
<trkpt lat="55.851421" lon="26.061390">
<ele>151.029419</ele>
<time>2010-07-17T14:39:03Z</time>
<desc>lat.=55.851421, lon.=26.061390, Alt.=151.029419m. Speed=22.572001m/h.</desc>
<speed>6.270000</speed>
</trkpt>
<trkpt lat="55.851467" lon="26.061335">
<ele>150.302856</ele>
<time>2010-07-17T14:39:04Z</time>
<desc>lat.=55.851467, lon.=26.061335, Alt.=150.302856m. Speed=23.940001m/h.</desc>
<speed>6.650000</speed>
</trkpt>
<trkpt lat="55.851517" lon="26.061275">
<ele>149.466919</ele>
<time>2010-07-17T14:39:05Z</time>
<desc>lat.=55.851517, lon.=26.061275, Alt.=149.466919m. Speed=24.444000m/h.</desc>
<speed>6.790000</speed>
</trkpt>
<trkpt lat="55.851566" lon="26.061214">
<ele>149.318481</ele>
<time>2010-07-17T14:39:06Z</time>
<desc>lat.=55.851566, lon.=26.061214, Alt.=149.318481m. Speed=25.596001m/h.</desc>
<speed>7.110000</speed>
</trkpt>
<trkpt lat="55.851624" lon="26.061152">
<ele>149.541138</ele>
<time>2010-07-17T14:39:07Z</time>
<desc>lat.=55.851624, lon.=26.061152, Alt.=149.541138m. Speed=26.388000m/h.</desc>
<speed>7.330000</speed>
</trkpt>
<trkpt lat="55.851677" lon="26.061081">
<ele>149.560669</ele>
<time>2010-07-17T14:39:08Z</time>
<desc>lat.=55.851677, lon.=26.061081, Alt.=149.560669m. Speed=26.208000m/h.</desc>
<speed>7.280000</speed>
</trkpt>
<trkpt lat="55.851730" lon="26.061014">
<ele>149.263794</ele>
<time>2010-07-17T14:39:09Z</time>
<desc>lat.=55.851730, lon.=26.061014, Alt.=149.263794m. Speed=25.955999m/h.</desc>
<speed>7.210000</speed>
</trkpt>
<trkpt lat="55.851784" lon="26.060942">
<ele>148.283325</ele>
<time>2010-07-17T14:39:10Z</time>
<desc>lat.=55.851784, lon.=26.060942, Alt.=148.283325m. Speed=28.764000m/h.</desc>
<speed>7.990000</speed>
</trkpt>
<trkpt lat="55.851845" lon="26.060867">
<ele>148.572388</ele>
<time>2010-07-17T14:39:11Z</time>
<desc>lat.=55.851845, lon.=26.060867, Alt.=148.572388m. Speed=25.524000m/h.</desc>
<speed>7.090000</speed>
</trkpt>
<trkpt lat="55.851902" lon="26.060795">
<ele>148.326294</ele>
<time>2010-07-17T14:39:12Z</time>
<desc>lat.=55.851902, lon.=26.060795, Alt.=148.326294m. Speed=26.388000m/h.</desc>
<speed>7.330000</speed>
</trkpt>
<trkpt lat="55.851952" lon="26.060732">
<ele>148.298950</ele>
<time>2010-07-17T14:39:13Z</time>
<desc>lat.=55.851952, lon.=26.060732, Alt.=148.298950m. Speed=25.775999m/h.</desc>
<speed>7.160000</speed>
</trkpt>
<trkpt lat="55.852005" lon="26.060658">
<ele>148.302856</ele>
<time>2010-07-17T14:39:14Z</time>
<desc>lat.=55.852005, lon.=26.060658, Alt.=148.302856m. Speed=25.056000m/h.</desc>
<speed>6.960000</speed>
</trkpt>
<trkpt lat="55.852051" lon="26.060589">
<ele>147.877075</ele>
<time>2010-07-17T14:39:15Z</time>
<desc>lat.=55.852051, lon.=26.060589, Alt.=147.877075m. Speed=24.156000m/h.</desc>
<speed>6.710000</speed>
</trkpt>
<trkpt lat="55.852100" lon="26.060526">
<ele>148.005981</ele>
<time>2010-07-17T14:39:16Z</time>
<desc>lat.=55.852100, lon.=26.060526, Alt.=148.005981m. Speed=23.076000m/h.</desc>
<speed>6.410000</speed>
</trkpt>
<trkpt lat="55.852142" lon="26.060463">
<ele>147.865356</ele>
<time>2010-07-17T14:39:17Z</time>
<desc>lat.=55.852142, lon.=26.060463, Alt.=147.865356m. Speed=21.816000m/h.</desc>
<speed>6.060000</speed>
</trkpt>
<trkpt lat="55.852177" lon="26.060402">
<ele>148.037231</ele>
<time>2010-07-17T14:39:18Z</time>
<desc>lat.=55.852177, lon.=26.060402, Alt.=148.037231m. Speed=21.132000m/h.</desc>
<speed>5.870000</speed>
</trkpt>
<trkpt lat="55.852215" lon="26.060335">
<ele>147.814575</ele>
<time>2010-07-17T14:39:19Z</time>
<desc>lat.=55.852215, lon.=26.060335, Alt.=147.814575m. Speed=21.492001m/h.</desc>
<speed>5.970000</speed>
</trkpt>
<trkpt lat="55.852249" lon="26.060272">
<ele>148.134888</ele>
<time>2010-07-17T14:39:20Z</time>
<desc>lat.=55.852249, lon.=26.060272, Alt.=148.134888m. Speed=20.340000m/h.</desc>
<speed>5.650000</speed>
</trkpt>
<trkpt lat="55.852283" lon="26.060202">
<ele>148.138794</ele>
<time>2010-07-17T14:39:21Z</time>
<desc>lat.=55.852283, lon.=26.060202, Alt.=148.138794m. Speed=20.844000m/h.</desc>
<speed>5.790000</speed>
</trkpt>
<trkpt lat="55.852318" lon="26.060135">
<ele>148.517700</ele>
<time>2010-07-17T14:39:22Z</time>
<desc>lat.=55.852318, lon.=26.060135, Alt.=148.517700m. Speed=20.628000m/h.</desc>
<speed>5.730000</speed>
</trkpt>
<trkpt lat="55.852348" lon="26.060061">
<ele>148.150513</ele>
<time>2010-07-17T14:39:23Z</time>
<desc>lat.=55.852348, lon.=26.060061, Alt.=148.150513m. Speed=20.304001m/h.</desc>
<speed>5.640000</speed>
</trkpt>
<trkpt lat="55.852379" lon="26.059998">
<ele>148.084106</ele>
<time>2010-07-17T14:39:24Z</time>
<desc>lat.=55.852379, lon.=26.059998, Alt.=148.084106m. Speed=20.195999m/h.</desc>
<speed>5.610000</speed>
</trkpt>
<trkpt lat="55.852413" lon="26.059931">
<ele>147.931763</ele>
<time>2010-07-17T14:39:25Z</time>
<desc>lat.=55.852413, lon.=26.059931, Alt.=147.931763m. Speed=20.736000m/h.</desc>
<speed>5.760000</speed>
</trkpt>
<trkpt lat="55.852451" lon="26.059868">
<ele>148.361450</ele>
<time>2010-07-17T14:39:26Z</time>
<desc>lat.=55.852451, lon.=26.059868, Alt.=148.361450m. Speed=21.312000m/h.</desc>
<speed>5.920000</speed>
</trkpt>
<trkpt lat="55.852489" lon="26.059801">
<ele>148.236450</ele>
<time>2010-07-17T14:39:27Z</time>
<desc>lat.=55.852489, lon.=26.059801, Alt.=148.236450m. Speed=22.247999m/h.</desc>
<speed>6.180000</speed>
</trkpt>
<trkpt lat="55.852524" lon="26.059729">
<ele>148.244263</ele>
<time>2010-07-17T14:39:28Z</time>
<desc>lat.=55.852524, lon.=26.059729, Alt.=148.244263m. Speed=21.600000m/h.</desc>
<speed>6.000000</speed>
</trkpt>
<trkpt lat="55.852562" lon="26.059643">
<ele>148.380981</ele>
<time>2010-07-17T14:39:29Z</time>
<desc>lat.=55.852562, lon.=26.059643, Alt.=148.380981m. Speed=22.392000m/h.</desc>
<speed>6.220000</speed>
</trkpt>
<trkpt lat="55.852596" lon="26.059561">
<ele>148.615356</ele>
<time>2010-07-17T14:39:30Z</time>
<desc>lat.=55.852596, lon.=26.059561, Alt.=148.615356m. Speed=23.040001m/h.</desc>
<speed>6.400000</speed>
</trkpt>
<trkpt lat="55.852627" lon="26.059475">
<ele>148.427856</ele>
<time>2010-07-17T14:39:31Z</time>
<desc>lat.=55.852627, lon.=26.059475, Alt.=148.427856m. Speed=24.228001m/h.</desc>
<speed>6.730000</speed>
</trkpt>
<trkpt lat="55.852665" lon="26.059389">
<ele>148.338013</ele>
<time>2010-07-17T14:39:32Z</time>
<desc>lat.=55.852665, lon.=26.059389, Alt.=148.338013m. Speed=24.191999m/h.</desc>
<speed>6.720000</speed>
</trkpt>
<trkpt lat="55.852699" lon="26.059301">
<ele>147.939575</ele>
<time>2010-07-17T14:39:33Z</time>
<desc>lat.=55.852699, lon.=26.059301, Alt.=147.939575m. Speed=24.299999m/h.</desc>
<speed>6.750000</speed>
</trkpt>
<trkpt lat="55.852737" lon="26.059212">
<ele>148.025513</ele>
<time>2010-07-17T14:39:34Z</time>
<desc>lat.=55.852737, lon.=26.059212, Alt.=148.025513m. Speed=24.408001m/h.</desc>
<speed>6.780000</speed>
</trkpt>
<trkpt lat="55.852779" lon="26.059126">
<ele>148.228638</ele>
<time>2010-07-17T14:39:35Z</time>
<desc>lat.=55.852779, lon.=26.059126, Alt.=148.228638m. Speed=23.580000m/h.</desc>
<speed>6.550000</speed>
</trkpt>
<trkpt lat="55.852818" lon="26.059042">
<ele>148.252075</ele>
<time>2010-07-17T14:39:36Z</time>
<desc>lat.=55.852818, lon.=26.059042, Alt.=148.252075m. Speed=25.128000m/h.</desc>
<speed>6.980000</speed>
</trkpt>
<trkpt lat="55.852852" lon="26.058954">
<ele>148.435669</ele>
<time>2010-07-17T14:39:37Z</time>
<desc>lat.=55.852852, lon.=26.058954, Alt.=148.435669m. Speed=23.400000m/h.</desc>
<speed>6.500000</speed>
</trkpt>
<trkpt lat="55.852886" lon="26.058868">
<ele>148.384888</ele>
<time>2010-07-17T14:39:38Z</time>
<desc>lat.=55.852886, lon.=26.058868, Alt.=148.384888m. Speed=24.084000m/h.</desc>
<speed>6.690000</speed>
</trkpt>
<trkpt lat="55.852917" lon="26.058779">
<ele>148.498169</ele>
<time>2010-07-17T14:39:39Z</time>
<desc>lat.=55.852917, lon.=26.058779, Alt.=148.498169m. Speed=22.572001m/h.</desc>
<speed>6.270000</speed>
</trkpt>
<trkpt lat="55.852947" lon="26.058699">
<ele>148.509888</ele>
<time>2010-07-17T14:39:40Z</time>
<desc>lat.=55.852947, lon.=26.058699, Alt.=148.509888m. Speed=22.392000m/h.</desc>
<speed>6.220000</speed>
</trkpt>
<trkpt lat="55.852974" lon="26.058613">
<ele>148.728638</ele>
<time>2010-07-17T14:39:41Z</time>
<desc>lat.=55.852974, lon.=26.058613, Alt.=148.728638m. Speed=23.112000m/h.</desc>
<speed>6.420000</speed>
</trkpt>
<trkpt lat="55.853004" lon="26.058529">
<ele>149.084106</ele>
<time>2010-07-17T14:39:42Z</time>
<desc>lat.=55.853004, lon.=26.058529, Alt.=149.084106m. Speed=22.320000m/h.</desc>
<speed>6.200000</speed>
</trkpt>
<trkpt lat="55.853043" lon="26.058443">
<ele>150.013794</ele>
<time>2010-07-17T14:39:43Z</time>
<desc>lat.=55.853043, lon.=26.058443, Alt.=150.013794m. Speed=23.400000m/h.</desc>
<speed>6.500000</speed>
</trkpt>
<trkpt lat="55.853077" lon="26.058357">
<ele>150.439575</ele>
<time>2010-07-17T14:39:44Z</time>
<desc>lat.=55.853077, lon.=26.058357, Alt.=150.439575m. Speed=23.004000m/h.</desc>
<speed>6.390000</speed>
</trkpt>
<trkpt lat="55.853111" lon="26.058262">
<ele>150.084106</ele>
<time>2010-07-17T14:39:45Z</time>
<desc>lat.=55.853111, lon.=26.058262, Alt.=150.084106m. Speed=22.896000m/h.</desc>
<speed>6.360000</speed>
</trkpt>
<trkpt lat="55.853142" lon="26.058184">
<ele>149.974731</ele>
<time>2010-07-17T14:39:46Z</time>
<desc>lat.=55.853142, lon.=26.058184, Alt.=149.974731m. Speed=21.780001m/h.</desc>
<speed>6.050000</speed>
</trkpt>
<trkpt lat="55.853168" lon="26.058098">
<ele>150.173950</ele>
<time>2010-07-17T14:39:47Z</time>
<desc>lat.=55.853168, lon.=26.058098, Alt.=150.173950m. Speed=21.959999m/h.</desc>
<speed>6.100000</speed>
</trkpt>
<trkpt lat="55.853191" lon="26.058016">
<ele>150.365356</ele>
<time>2010-07-17T14:39:48Z</time>
<desc>lat.=55.853191, lon.=26.058016, Alt.=150.365356m. Speed=20.268000m/h.</desc>
<speed>5.630000</speed>
</trkpt>
<trkpt lat="55.853214" lon="26.057936">
<ele>150.408325</ele>
<time>2010-07-17T14:39:49Z</time>
<desc>lat.=55.853214, lon.=26.057936, Alt.=150.408325m. Speed=19.080000m/h.</desc>
<speed>5.300000</speed>
</trkpt>
<trkpt lat="55.853237" lon="26.057867">
<ele>150.470825</ele>
<time>2010-07-17T14:39:50Z</time>
<desc>lat.=55.853237, lon.=26.057867, Alt.=150.470825m. Speed=18.396000m/h.</desc>
<speed>5.110000</speed>
</trkpt>
<trkpt lat="55.853260" lon="26.057796">
<ele>150.310669</ele>
<time>2010-07-17T14:39:51Z</time>
<desc>lat.=55.853260, lon.=26.057796, Alt.=150.310669m. Speed=18.360001m/h.</desc>
<speed>5.100000</speed>
</trkpt>
<trkpt lat="55.853279" lon="26.057726">
<ele>150.427856</ele>
<time>2010-07-17T14:39:52Z</time>
<desc>lat.=55.853279, lon.=26.057726, Alt.=150.427856m. Speed=18.827999m/h.</desc>
<speed>5.230000</speed>
</trkpt>
<trkpt lat="55.853298" lon="26.057653">
<ele>150.634888</ele>
<time>2010-07-17T14:39:53Z</time>
<desc>lat.=55.853298, lon.=26.057653, Alt.=150.634888m. Speed=19.080000m/h.</desc>
<speed>5.300000</speed>
</trkpt>
<trkpt lat="55.853321" lon="26.057575">
<ele>150.623169</ele>
<time>2010-07-17T14:39:54Z</time>
<desc>lat.=55.853321, lon.=26.057575, Alt.=150.623169m. Speed=19.620001m/h.</desc>
<speed>5.450000</speed>
</trkpt>
<trkpt lat="55.853344" lon="26.057497">
<ele>150.869263</ele>
<time>2010-07-17T14:39:55Z</time>
<desc>lat.=55.853344, lon.=26.057497, Alt.=150.869263m. Speed=20.087999m/h.</desc>
<speed>5.580000</speed>
</trkpt>
<trkpt lat="55.853371" lon="26.057419">
<ele>150.853638</ele>
<time>2010-07-17T14:39:56Z</time>
<desc>lat.=55.853371, lon.=26.057419, Alt.=150.853638m. Speed=20.736000m/h.</desc>
<speed>5.760000</speed>
</trkpt>
<trkpt lat="55.853394" lon="26.057339">
<ele>150.896606</ele>
<time>2010-07-17T14:39:57Z</time>
<desc>lat.=55.853394, lon.=26.057339, Alt.=150.896606m. Speed=20.952000m/h.</desc>
<speed>5.820000</speed>
</trkpt>
<trkpt lat="55.853420" lon="26.057255">
<ele>150.529419</ele>
<time>2010-07-17T14:39:58Z</time>
<desc>lat.=55.853420, lon.=26.057255, Alt.=150.529419m. Speed=20.988001m/h.</desc>
<speed>5.830000</speed>
</trkpt>
<trkpt lat="55.853443" lon="26.057173">
<ele>150.162231</ele>
<time>2010-07-17T14:39:59Z</time>
<desc>lat.=55.853443, lon.=26.057173, Alt.=150.162231m. Speed=21.024000m/h.</desc>
<speed>5.840000</speed>
</trkpt>
<trkpt lat="55.853466" lon="26.057091">
<ele>149.740356</ele>
<time>2010-07-17T14:40:00Z</time>
<desc>lat.=55.853466, lon.=26.057091, Alt.=149.740356m. Speed=21.420000m/h.</desc>
<speed>5.950000</speed>
</trkpt>
<trkpt lat="55.853497" lon="26.057011">
<ele>149.404419</ele>
<time>2010-07-17T14:40:01Z</time>
<desc>lat.=55.853497, lon.=26.057011, Alt.=149.404419m. Speed=21.743999m/h.</desc>
<speed>6.040000</speed>
</trkpt>
<trkpt lat="55.853523" lon="26.056927">
<ele>149.384888</ele>
<time>2010-07-17T14:40:02Z</time>
<desc>lat.=55.853523, lon.=26.056927, Alt.=149.384888m. Speed=21.024000m/h.</desc>
<speed>5.840000</speed>
</trkpt>
<trkpt lat="55.853550" lon="26.056845">
<ele>149.369263</ele>
<time>2010-07-17T14:40:03Z</time>
<desc>lat.=55.853550, lon.=26.056845, Alt.=149.369263m. Speed=20.448000m/h.</desc>
<speed>5.680000</speed>
</trkpt>
<trkpt lat="55.853573" lon="26.056763">
<ele>149.045044</ele>
<time>2010-07-17T14:40:04Z</time>
<desc>lat.=55.853573, lon.=26.056763, Alt.=149.045044m. Speed=20.412001m/h.</desc>
<speed>5.670000</speed>
</trkpt>
<trkpt lat="55.853600" lon="26.056681">
<ele>149.689575</ele>
<time>2010-07-17T14:40:05Z</time>
<desc>lat.=55.853600, lon.=26.056681, Alt.=149.689575m. Speed=21.240000m/h.</desc>
<speed>5.900000</speed>
</trkpt>
<trkpt lat="55.853622" lon="26.056599">
<ele>149.486450</ele>
<time>2010-07-17T14:40:06Z</time>
<desc>lat.=55.853622, lon.=26.056599, Alt.=149.486450m. Speed=21.636000m/h.</desc>
<speed>6.010000</speed>
</trkpt>
<trkpt lat="55.853645" lon="26.056513">
<ele>149.400513</ele>
<time>2010-07-17T14:40:07Z</time>
<desc>lat.=55.853645, lon.=26.056513, Alt.=149.400513m. Speed=22.104000m/h.</desc>
<speed>6.140000</speed>
</trkpt>
<trkpt lat="55.853672" lon="26.056427">
<ele>149.513794</ele>
<time>2010-07-17T14:40:08Z</time>
<desc>lat.=55.853672, lon.=26.056427, Alt.=149.513794m. Speed=22.356001m/h.</desc>
<speed>6.210000</speed>
</trkpt>
<trkpt lat="55.853699" lon="26.056341">
<ele>149.341919</ele>
<time>2010-07-17T14:40:09Z</time>
<desc>lat.=55.853699, lon.=26.056341, Alt.=149.341919m. Speed=23.004000m/h.</desc>
<speed>6.390000</speed>
</trkpt>
<trkpt lat="55.853729" lon="26.056255">
<ele>149.334106</ele>
<time>2010-07-17T14:40:10Z</time>
<desc>lat.=55.853729, lon.=26.056255, Alt.=149.334106m. Speed=23.112000m/h.</desc>
<speed>6.420000</speed>
</trkpt>
<trkpt lat="55.853760" lon="26.056170">
<ele>149.427856</ele>
<time>2010-07-17T14:40:11Z</time>
<desc>lat.=55.853760, lon.=26.056170, Alt.=149.427856m. Speed=23.292000m/h.</desc>
<speed>6.470000</speed>
</trkpt>
<trkpt lat="55.853794" lon="26.056076">
<ele>149.615356</ele>
<time>2010-07-17T14:40:12Z</time>
<desc>lat.=55.853794, lon.=26.056076, Alt.=149.615356m. Speed=23.796000m/h.</desc>
<speed>6.610000</speed>
</trkpt>
<trkpt lat="55.853821" lon="26.055983">
<ele>149.638794</ele>
<time>2010-07-17T14:40:13Z</time>
<desc>lat.=55.853821, lon.=26.055983, Alt.=149.638794m. Speed=24.011999m/h.</desc>
<speed>6.670000</speed>
</trkpt>
<trkpt lat="55.853851" lon="26.055887">
<ele>149.701294</ele>
<time>2010-07-17T14:40:14Z</time>
<desc>lat.=55.853851, lon.=26.055887, Alt.=149.701294m. Speed=24.480000m/h.</desc>
<speed>6.800000</speed>
</trkpt>
<trkpt lat="55.853882" lon="26.055792">
<ele>149.810669</ele>
<time>2010-07-17T14:40:15Z</time>
<desc>lat.=55.853882, lon.=26.055792, Alt.=149.810669m. Speed=24.660000m/h.</desc>
<speed>6.850000</speed>
</trkpt>
<trkpt lat="55.853912" lon="26.055695">
<ele>150.146606</ele>
<time>2010-07-17T14:40:16Z</time>
<desc>lat.=55.853912, lon.=26.055695, Alt.=150.146606m. Speed=24.875999m/h.</desc>
<speed>6.910000</speed>
</trkpt>
<trkpt lat="55.853943" lon="26.055597">
<ele>150.041138</ele>
<time>2010-07-17T14:40:17Z</time>
<desc>lat.=55.853943, lon.=26.055597, Alt.=150.041138m. Speed=24.732000m/h.</desc>
<speed>6.870000</speed>
</trkpt>
<trkpt lat="55.853973" lon="26.055506">
<ele>150.341919</ele>
<time>2010-07-17T14:40:18Z</time>
<desc>lat.=55.853973, lon.=26.055506, Alt.=150.341919m. Speed=24.624001m/h.</desc>
<speed>6.840000</speed>
</trkpt>
<trkpt lat="55.854004" lon="26.055410">
<ele>150.455200</ele>
<time>2010-07-17T14:40:19Z</time>
<desc>lat.=55.854004, lon.=26.055410, Alt.=150.455200m. Speed=24.156000m/h.</desc>
<speed>6.710000</speed>
</trkpt>
<trkpt lat="55.854034" lon="26.055315">
<ele>150.826294</ele>
<time>2010-07-17T14:40:20Z</time>
<desc>lat.=55.854034, lon.=26.055315, Alt.=150.826294m. Speed=24.228001m/h.</desc>
<speed>6.730000</speed>
</trkpt>
<trkpt lat="55.854065" lon="26.055222">
<ele>151.142700</ele>
<time>2010-07-17T14:40:21Z</time>
<desc>lat.=55.854065, lon.=26.055222, Alt.=151.142700m. Speed=24.336000m/h.</desc>
<speed>6.760000</speed>
</trkpt>
<trkpt lat="55.854092" lon="26.055126">
<ele>151.310669</ele>
<time>2010-07-17T14:40:22Z</time>
<desc>lat.=55.854092, lon.=26.055126, Alt.=151.310669m. Speed=24.264000m/h.</desc>
<speed>6.740000</speed>
</trkpt>
<trkpt lat="55.854118" lon="26.055033">
<ele>151.490356</ele>
<time>2010-07-17T14:40:23Z</time>
<desc>lat.=55.854118, lon.=26.055033, Alt.=151.490356m. Speed=23.940001m/h.</desc>
<speed>6.650000</speed>
</trkpt>
<trkpt lat="55.854145" lon="26.054939">
<ele>151.654419</ele>
<time>2010-07-17T14:40:24Z</time>
<desc>lat.=55.854145, lon.=26.054939, Alt.=151.654419m. Speed=23.472000m/h.</desc>
<speed>6.520000</speed>
</trkpt>
<trkpt lat="55.854176" lon="26.054850">
<ele>152.029419</ele>
<time>2010-07-17T14:40:25Z</time>
<desc>lat.=55.854176, lon.=26.054850, Alt.=152.029419m. Speed=22.752001m/h.</desc>
<speed>6.320000</speed>
</trkpt>
<trkpt lat="55.854202" lon="26.054762">
<ele>152.021606</ele>
<time>2010-07-17T14:40:26Z</time>
<desc>lat.=55.854202, lon.=26.054762, Alt.=152.021606m. Speed=22.752001m/h.</desc>
<speed>6.320000</speed>
</trkpt>
<trkpt lat="55.854237" lon="26.054674">
<ele>152.279419</ele>
<time>2010-07-17T14:40:27Z</time>
<desc>lat.=55.854237, lon.=26.054674, Alt.=152.279419m. Speed=22.788000m/h.</desc>
<speed>6.330000</speed>
</trkpt>
<trkpt lat="55.854263" lon="26.054588">
<ele>152.494263</ele>
<time>2010-07-17T14:40:28Z</time>
<desc>lat.=55.854263, lon.=26.054588, Alt.=152.494263m. Speed=21.924000m/h.</desc>
<speed>6.090000</speed>
</trkpt>
<trkpt lat="55.854294" lon="26.054506">
<ele>153.048950</ele>
<time>2010-07-17T14:40:29Z</time>
<desc>lat.=55.854294, lon.=26.054506, Alt.=153.048950m. Speed=20.124001m/h.</desc>
<speed>5.590000</speed>
</trkpt>
<trkpt lat="55.854317" lon="26.054434">
<ele>153.298950</ele>
<time>2010-07-17T14:40:30Z</time>
<desc>lat.=55.854317, lon.=26.054434, Alt.=153.298950m. Speed=18.612000m/h.</desc>
<speed>5.170000</speed>
</trkpt>
<trkpt lat="55.854343" lon="26.054369">
<ele>153.834106</ele>
<time>2010-07-17T14:40:31Z</time>
<desc>lat.=55.854343, lon.=26.054369, Alt.=153.834106m. Speed=17.820000m/h.</desc>
<speed>4.950000</speed>
</trkpt>
<trkpt lat="55.854362" lon="26.054300">
<ele>153.697388</ele>
<time>2010-07-17T14:40:32Z</time>
<desc>lat.=55.854362, lon.=26.054300, Alt.=153.697388m. Speed=18.072001m/h.</desc>
<speed>5.020000</speed>
</trkpt>
<trkpt lat="55.854382" lon="26.054230">
<ele>153.584106</ele>
<time>2010-07-17T14:40:33Z</time>
<desc>lat.=55.854382, lon.=26.054230, Alt.=153.584106m. Speed=18.468000m/h.</desc>
<speed>5.130000</speed>
</trkpt>
<trkpt lat="55.854408" lon="26.054159">
<ele>153.552856</ele>
<time>2010-07-17T14:40:34Z</time>
<desc>lat.=55.854408, lon.=26.054159, Alt.=153.552856m. Speed=19.440001m/h.</desc>
<speed>5.400000</speed>
</trkpt>
<trkpt lat="55.854435" lon="26.054089">
<ele>153.517700</ele>
<time>2010-07-17T14:40:35Z</time>
<desc>lat.=55.854435, lon.=26.054089, Alt.=153.517700m. Speed=19.440001m/h.</desc>
<speed>5.400000</speed>
</trkpt>
<trkpt lat="55.854458" lon="26.054016">
<ele>153.357544</ele>
<time>2010-07-17T14:40:36Z</time>
<desc>lat.=55.854458, lon.=26.054016, Alt.=153.357544m. Speed=19.115999m/h.</desc>
<speed>5.310000</speed>
</trkpt>
<trkpt lat="55.854488" lon="26.053947">
<ele>153.314575</ele>
<time>2010-07-17T14:40:37Z</time>
<desc>lat.=55.854488, lon.=26.053947, Alt.=153.314575m. Speed=18.756001m/h.</desc>
<speed>5.210000</speed>
</trkpt>
<trkpt lat="55.854515" lon="26.053879">
<ele>153.279419</ele>
<time>2010-07-17T14:40:38Z</time>
<desc>lat.=55.854515, lon.=26.053879, Alt.=153.279419m. Speed=19.511999m/h.</desc>
<speed>5.420000</speed>
</trkpt>
<trkpt lat="55.854546" lon="26.053801">
<ele>153.291138</ele>
<time>2010-07-17T14:40:39Z</time>
<desc>lat.=55.854546, lon.=26.053801, Alt.=153.291138m. Speed=20.340000m/h.</desc>
<speed>5.650000</speed>
</trkpt>
<trkpt lat="55.854576" lon="26.053719">
<ele>153.259888</ele>
<time>2010-07-17T14:40:40Z</time>
<desc>lat.=55.854576, lon.=26.053719, Alt.=153.259888m. Speed=20.664000m/h.</desc>
<speed>5.740000</speed>
</trkpt>
<trkpt lat="55.854603" lon="26.053640">
<ele>153.459106</ele>
<time>2010-07-17T14:40:41Z</time>
<desc>lat.=55.854603, lon.=26.053640, Alt.=153.459106m. Speed=22.392000m/h.</desc>
<speed>6.220000</speed>
</trkpt>
<trkpt lat="55.854637" lon="26.053562">
<ele>153.588013</ele>
<time>2010-07-17T14:40:42Z</time>
<desc>lat.=55.854637, lon.=26.053562, Alt.=153.588013m. Speed=21.240000m/h.</desc>
<speed>5.900000</speed>
</trkpt>
<trkpt lat="55.854671" lon="26.053492">
<ele>153.670044</ele>
<time>2010-07-17T14:40:43Z</time>
<desc>lat.=55.854671, lon.=26.053492, Alt.=153.670044m. Speed=21.384001m/h.</desc>
<speed>5.940000</speed>
</trkpt>
<trkpt lat="55.854706" lon="26.053421">
<ele>153.693481</ele>
<time>2010-07-17T14:40:44Z</time>
<desc>lat.=55.854706, lon.=26.053421, Alt.=153.693481m. Speed=21.312000m/h.</desc>
<speed>5.920000</speed>
</trkpt>
<trkpt lat="55.854736" lon="26.053347">
<ele>153.291138</ele>
<time>2010-07-17T14:40:45Z</time>
<desc>lat.=55.854736, lon.=26.053347, Alt.=153.291138m. Speed=20.448000m/h.</desc>
<speed>5.680000</speed>
</trkpt>
<trkpt lat="55.854767" lon="26.053274">
<ele>153.513794</ele>
<time>2010-07-17T14:40:46Z</time>
<desc>lat.=55.854767, lon.=26.053274, Alt.=153.513794m. Speed=19.656000m/h.</desc>
<speed>5.460000</speed>
</trkpt>
<trkpt lat="55.854794" lon="26.053204">
<ele>153.431763</ele>
<time>2010-07-17T14:40:47Z</time>
<desc>lat.=55.854794, lon.=26.053204, Alt.=153.431763m. Speed=18.612000m/h.</desc>
<speed>5.170000</speed>
</trkpt>
<trkpt lat="55.854816" lon="26.053141">
<ele>153.666138</ele>
<time>2010-07-17T14:40:48Z</time>
<desc>lat.=55.854816, lon.=26.053141, Alt.=153.666138m. Speed=15.876000m/h.</desc>
<speed>4.410000</speed>
</trkpt>
<trkpt lat="55.854847" lon="26.053087">
<ele>154.435669</ele>
<time>2010-07-17T14:40:49Z</time>
<desc>lat.=55.854847, lon.=26.053087, Alt.=154.435669m. Speed=16.379999m/h.</desc>
<speed>4.550000</speed>
</trkpt>
<trkpt lat="55.854874" lon="26.053028">
<ele>154.955200</ele>
<time>2010-07-17T14:40:50Z</time>
<desc>lat.=55.854874, lon.=26.053028, Alt.=154.955200m. Speed=15.408000m/h.</desc>
<speed>4.280000</speed>
</trkpt>
<trkpt lat="55.854900" lon="26.052973">
<ele>155.584106</ele>
<time>2010-07-17T14:40:51Z</time>
<desc>lat.=55.854900, lon.=26.052973, Alt.=155.584106m. Speed=15.012000m/h.</desc>
<speed>4.170000</speed>
</trkpt>
<trkpt lat="55.854923" lon="26.052925">
<ele>156.072388</ele>
<time>2010-07-17T14:40:52Z</time>
<desc>lat.=55.854923, lon.=26.052925, Alt.=156.072388m. Speed=12.312000m/h.</desc>
<speed>3.420000</speed>
</trkpt>
<trkpt lat="55.854942" lon="26.052881">
<ele>156.521606</ele>
<time>2010-07-17T14:40:53Z</time>
<desc>lat.=55.854942, lon.=26.052881, Alt.=156.521606m. Speed=12.996000m/h.</desc>
<speed>3.610000</speed>
</trkpt>
<trkpt lat="55.854958" lon="26.052828">
<ele>156.709106</ele>
<time>2010-07-17T14:40:54Z</time>
<desc>lat.=55.854958, lon.=26.052828, Alt.=156.709106m. Speed=13.428000m/h.</desc>
<speed>3.730000</speed>
</trkpt>
<trkpt lat="55.854977" lon="26.052769">
<ele>156.779419</ele>
<time>2010-07-17T14:40:55Z</time>
<desc>lat.=55.854977, lon.=26.052769, Alt.=156.779419m. Speed=13.140000m/h.</desc>
<speed>3.650000</speed>
</trkpt>
<trkpt lat="55.854996" lon="26.052711">
<ele>156.736450</ele>
<time>2010-07-17T14:40:56Z</time>
<desc>lat.=55.854996, lon.=26.052711, Alt.=156.736450m. Speed=11.232000m/h.</desc>
<speed>3.120000</speed>
</trkpt>
<trkpt lat="55.855011" lon="26.052664">
<ele>156.974731</ele>
<time>2010-07-17T14:40:57Z</time>
<desc>lat.=55.855011, lon.=26.052664, Alt.=156.974731m. Speed=12.888000m/h.</desc>
<speed>3.580000</speed>
</trkpt>
<trkpt lat="55.855026" lon="26.052616">
<ele>156.845825</ele>
<time>2010-07-17T14:40:58Z</time>
<desc>lat.=55.855026, lon.=26.052616, Alt.=156.845825m. Speed=12.924000m/h.</desc>
<speed>3.590000</speed>
</trkpt>
<trkpt lat="55.855049" lon="26.052570">
<ele>157.513794</ele>
<time>2010-07-17T14:40:59Z</time>
<desc>lat.=55.855049, lon.=26.052570, Alt.=157.513794m. Speed=13.176000m/h.</desc>
<speed>3.660000</speed>
</trkpt>
<trkpt lat="55.855068" lon="26.052528">
<ele>158.091919</ele>
<time>2010-07-17T14:41:00Z</time>
<desc>lat.=55.855068, lon.=26.052528, Alt.=158.091919m. Speed=13.284000m/h.</desc>
<speed>3.690000</speed>
</trkpt>
<trkpt lat="55.855083" lon="26.052483">
<ele>158.396606</ele>
<time>2010-07-17T14:41:01Z</time>
<desc>lat.=55.855083, lon.=26.052483, Alt.=158.396606m. Speed=12.744000m/h.</desc>
<speed>3.540000</speed>
</trkpt>
<trkpt lat="55.855103" lon="26.052437">
<ele>158.627075</ele>
<time>2010-07-17T14:41:02Z</time>
<desc>lat.=55.855103, lon.=26.052437, Alt.=158.627075m. Speed=13.140000m/h.</desc>
<speed>3.650000</speed>
</trkpt>
<trkpt lat="55.855118" lon="26.052389">
<ele>158.849731</ele>
<time>2010-07-17T14:41:03Z</time>
<desc>lat.=55.855118, lon.=26.052389, Alt.=158.849731m. Speed=12.888000m/h.</desc>
<speed>3.580000</speed>
</trkpt>
<trkpt lat="55.855137" lon="26.052345">
<ele>158.978638</ele>
<time>2010-07-17T14:41:04Z</time>
<desc>lat.=55.855137, lon.=26.052345, Alt.=158.978638m. Speed=12.276000m/h.</desc>
<speed>3.410000</speed>
</trkpt>
<trkpt lat="55.855148" lon="26.052301">
<ele>159.134888</ele>
<time>2010-07-17T14:41:05Z</time>
<desc>lat.=55.855148, lon.=26.052301, Alt.=159.134888m. Speed=11.700000m/h.</desc>
<speed>3.250000</speed>
</trkpt>
<trkpt lat="55.855167" lon="26.052261">
<ele>159.505981</ele>
<time>2010-07-17T14:41:06Z</time>
<desc>lat.=55.855167, lon.=26.052261, Alt.=159.505981m. Speed=11.088000m/h.</desc>
<speed>3.080000</speed>
</trkpt>
<trkpt lat="55.855179" lon="26.052216">
<ele>159.017700</ele>
<time>2010-07-17T14:41:07Z</time>
<desc>lat.=55.855179, lon.=26.052216, Alt.=159.017700m. Speed=10.260000m/h.</desc>
<speed>2.850000</speed>
</trkpt>
<trkpt lat="55.855198" lon="26.052176">
<ele>159.095825</ele>
<time>2010-07-17T14:41:08Z</time>
<desc>lat.=55.855198, lon.=26.052176, Alt.=159.095825m. Speed=11.124000m/h.</desc>
<speed>3.090000</speed>
</trkpt>
<trkpt lat="55.855209" lon="26.052139">
<ele>158.853638</ele>
<time>2010-07-17T14:41:09Z</time>
<desc>lat.=55.855209, lon.=26.052139, Alt.=158.853638m. Speed=9.684000m/h.</desc>
<speed>2.690000</speed>
</trkpt>
<trkpt lat="55.855228" lon="26.052103">
<ele>158.455200</ele>
<time>2010-07-17T14:41:10Z</time>
<desc>lat.=55.855228, lon.=26.052103, Alt.=158.455200m. Speed=10.836000m/h.</desc>
<speed>3.010000</speed>
</trkpt>
<trkpt lat="55.855244" lon="26.052069">
<ele>158.611450</ele>
<time>2010-07-17T14:41:11Z</time>
<desc>lat.=55.855244, lon.=26.052069, Alt.=158.611450m. Speed=10.476000m/h.</desc>
<speed>2.910000</speed>
</trkpt>
<trkpt lat="55.855263" lon="26.052031">
<ele>158.545044</ele>
<time>2010-07-17T14:41:12Z</time>
<desc>lat.=55.855263, lon.=26.052031, Alt.=158.545044m. Speed=11.520000m/h.</desc>
<speed>3.200000</speed>
</trkpt>
<trkpt lat="55.855278" lon="26.051989">
<ele>158.427856</ele>
<time>2010-07-17T14:41:13Z</time>
<desc>lat.=55.855278, lon.=26.051989, Alt.=158.427856m. Speed=11.808000m/h.</desc>
<speed>3.280000</speed>
</trkpt>
<trkpt lat="55.855297" lon="26.051950">
<ele>158.666138</ele>
<time>2010-07-17T14:41:14Z</time>
<desc>lat.=55.855297, lon.=26.051950, Alt.=158.666138m. Speed=12.096000m/h.</desc>
<speed>3.360000</speed>
</trkpt>
<trkpt lat="55.855320" lon="26.051908">
<ele>158.502075</ele>
<time>2010-07-17T14:41:15Z</time>
<desc>lat.=55.855320, lon.=26.051908, Alt.=158.502075m. Speed=13.752000m/h.</desc>
<speed>3.820000</speed>
</trkpt>
<trkpt lat="55.855347" lon="26.051855">
<ele>157.982544</ele>
<time>2010-07-17T14:41:16Z</time>
<desc>lat.=55.855347, lon.=26.051855, Alt.=157.982544m. Speed=15.912000m/h.</desc>
<speed>4.420000</speed>
</trkpt>
<trkpt lat="55.855381" lon="26.051804">
<ele>158.103638</ele>
<time>2010-07-17T14:41:17Z</time>
<desc>lat.=55.855381, lon.=26.051804, Alt.=158.103638m. Speed=18.792000m/h.</desc>
<speed>5.220000</speed>
</trkpt>
<trkpt lat="55.855415" lon="26.051748">
<ele>158.088013</ele>
<time>2010-07-17T14:41:18Z</time>
<desc>lat.=55.855415, lon.=26.051748, Alt.=158.088013m. Speed=18.972000m/h.</desc>
<speed>5.270000</speed>
</trkpt>
<trkpt lat="55.855453" lon="26.051691">
<ele>157.693481</ele>
<time>2010-07-17T14:41:19Z</time>
<desc>lat.=55.855453, lon.=26.051691, Alt.=157.693481m. Speed=21.059999m/h.</desc>
<speed>5.850000</speed>
</trkpt>
<trkpt lat="55.855484" lon="26.051640">
<ele>157.744263</ele>
<time>2010-07-17T14:41:20Z</time>
<desc>lat.=55.855484, lon.=26.051640, Alt.=157.744263m. Speed=21.636000m/h.</desc>
<speed>6.010000</speed>
</trkpt>
<trkpt lat="55.855526" lon="26.051590">
<ele>157.880981</ele>
<time>2010-07-17T14:41:21Z</time>
<desc>lat.=55.855526, lon.=26.051590, Alt.=157.880981m. Speed=22.500000m/h.</desc>
<speed>6.250000</speed>
</trkpt>
<trkpt lat="55.855572" lon="26.051529">
<ele>157.576294</ele>
<time>2010-07-17T14:41:22Z</time>
<desc>lat.=55.855572, lon.=26.051529, Alt.=157.576294m. Speed=23.040001m/h.</desc>
<speed>6.400000</speed>
</trkpt>
<trkpt lat="55.855621" lon="26.051472">
<ele>157.650513</ele>
<time>2010-07-17T14:41:23Z</time>
<desc>lat.=55.855621, lon.=26.051472, Alt.=157.650513m. Speed=21.528000m/h.</desc>
<speed>5.980000</speed>
</trkpt>
<trkpt lat="55.855663" lon="26.051414">
<ele>157.623169</ele>
<time>2010-07-17T14:41:24Z</time>
<desc>lat.=55.855663, lon.=26.051414, Alt.=157.623169m. Speed=22.104000m/h.</desc>
<speed>6.140000</speed>
</trkpt>
<trkpt lat="55.855705" lon="26.051355">
<ele>157.396606</ele>
<time>2010-07-17T14:41:25Z</time>
<desc>lat.=55.855705, lon.=26.051355, Alt.=157.396606m. Speed=20.195999m/h.</desc>
<speed>5.610000</speed>
</trkpt>
<trkpt lat="55.855747" lon="26.051300">
<ele>157.377075</ele>
<time>2010-07-17T14:41:26Z</time>
<desc>lat.=55.855747, lon.=26.051300, Alt.=157.377075m. Speed=18.864000m/h.</desc>
<speed>5.240000</speed>
</trkpt>
<trkpt lat="55.855785" lon="26.051254">
<ele>157.451294</ele>
<time>2010-07-17T14:41:27Z</time>
<desc>lat.=55.855785, lon.=26.051254, Alt.=157.451294m. Speed=16.596001m/h.</desc>
<speed>4.610000</speed>
</trkpt>
<trkpt lat="55.855824" lon="26.051216">
<ele>157.533325</ele>
<time>2010-07-17T14:41:28Z</time>
<desc>lat.=55.855824, lon.=26.051216, Alt.=157.533325m. Speed=16.992001m/h.</desc>
<speed>4.720000</speed>
</trkpt>
<trkpt lat="55.855862" lon="26.051178">
<ele>157.595825</ele>
<time>2010-07-17T14:41:29Z</time>
<desc>lat.=55.855862, lon.=26.051178, Alt.=157.595825m. Speed=15.732000m/h.</desc>
<speed>4.370000</speed>
</trkpt>
<trkpt lat="55.855900" lon="26.051144">
<ele>157.865356</ele>
<time>2010-07-17T14:41:30Z</time>
<desc>lat.=55.855900, lon.=26.051144, Alt.=157.865356m. Speed=14.580000m/h.</desc>
<speed>4.050000</speed>
</trkpt>
<trkpt lat="55.855938" lon="26.051109">
<ele>158.111450</ele>
<time>2010-07-17T14:41:31Z</time>
<desc>lat.=55.855938, lon.=26.051109, Alt.=158.111450m. Speed=14.724000m/h.</desc>
<speed>4.090000</speed>
</trkpt>
<trkpt lat="55.855968" lon="26.051073">
<ele>158.072388</ele>
<time>2010-07-17T14:41:32Z</time>
<desc>lat.=55.855968, lon.=26.051073, Alt.=158.072388m. Speed=13.356000m/h.</desc>
<speed>3.710000</speed>
</trkpt>
<trkpt lat="55.855995" lon="26.051039">
<ele>158.064575</ele>
<time>2010-07-17T14:41:33Z</time>
<desc>lat.=55.855995, lon.=26.051039, Alt.=158.064575m. Speed=11.520000m/h.</desc>
<speed>3.200000</speed>
</trkpt>
<trkpt lat="55.856014" lon="26.051008">
<ele>157.955200</ele>
<time>2010-07-17T14:41:34Z</time>
<desc>lat.=55.856014, lon.=26.051008, Alt.=157.955200m. Speed=9.900000m/h.</desc>
<speed>2.750000</speed>
</trkpt>
<trkpt lat="55.856033" lon="26.050983">
<ele>158.142700</ele>
<time>2010-07-17T14:41:35Z</time>
<desc>lat.=55.856033, lon.=26.050983, Alt.=158.142700m. Speed=7.272000m/h.</desc>
<speed>2.020000</speed>
</trkpt>
<trkpt lat="55.856056" lon="26.050964">
<ele>158.115356</ele>
<time>2010-07-17T14:41:36Z</time>
<desc>lat.=55.856056, lon.=26.050964, Alt.=158.115356m. Speed=7.524000m/h.</desc>
<speed>2.090000</speed>
</trkpt>
<trkpt lat="55.856079" lon="26.050949">
<ele>158.033325</ele>
<time>2010-07-17T14:41:37Z</time>
<desc>lat.=55.856079, lon.=26.050949, Alt.=158.033325m. Speed=7.560000m/h.</desc>
<speed>2.100000</speed>
</trkpt>
<trkpt lat="55.856102" lon="26.050919">
<ele>157.838013</ele>
<time>2010-07-17T14:41:38Z</time>
<desc>lat.=55.856102, lon.=26.050919, Alt.=157.838013m. Speed=8.028000m/h.</desc>
<speed>2.230000</speed>
</trkpt>
<trkpt lat="55.856121" lon="26.050888">
<ele>157.849731</ele>
<time>2010-07-17T14:41:39Z</time>
<desc>lat.=55.856121, lon.=26.050888, Alt.=157.849731m. Speed=8.424000m/h.</desc>
<speed>2.340000</speed>
</trkpt>
<trkpt lat="55.856140" lon="26.050873">
<ele>157.791138</ele>
<time>2010-07-17T14:41:40Z</time>
<desc>lat.=55.856140, lon.=26.050873, Alt.=157.791138m. Speed=7.632000m/h.</desc>
<speed>2.120000</speed>
</trkpt>
<trkpt lat="55.856163" lon="26.050837">
<ele>157.474731</ele>
<time>2010-07-17T14:41:41Z</time>
<desc>lat.=55.856163, lon.=26.050837, Alt.=157.474731m. Speed=9.180000m/h.</desc>
<speed>2.550000</speed>
</trkpt>
<trkpt lat="55.856186" lon="26.050793">
<ele>157.255981</ele>
<time>2010-07-17T14:41:42Z</time>
<desc>lat.=55.856186, lon.=26.050793, Alt.=157.255981m. Speed=10.260000m/h.</desc>
<speed>2.850000</speed>
</trkpt>
<trkpt lat="55.856209" lon="26.050768">
<ele>157.205200</ele>
<time>2010-07-17T14:41:43Z</time>
<desc>lat.=55.856209, lon.=26.050768, Alt.=157.205200m. Speed=9.864000m/h.</desc>
<speed>2.740000</speed>
</trkpt>
<trkpt lat="55.856232" lon="26.050751">
<ele>157.252075</ele>
<time>2010-07-17T14:41:44Z</time>
<desc>lat.=55.856232, lon.=26.050751, Alt.=157.252075m. Speed=11.124000m/h.</desc>
<speed>3.090000</speed>
</trkpt>
<trkpt lat="55.856258" lon="26.050732">
<ele>157.310669</ele>
<time>2010-07-17T14:41:45Z</time>
<desc>lat.=55.856258, lon.=26.050732, Alt.=157.310669m. Speed=12.024000m/h.</desc>
<speed>3.340000</speed>
</trkpt>
<trkpt lat="55.856289" lon="26.050703">
<ele>157.201294</ele>
<time>2010-07-17T14:41:46Z</time>
<desc>lat.=55.856289, lon.=26.050703, Alt.=157.201294m. Speed=13.320000m/h.</desc>
<speed>3.700000</speed>
</trkpt>
<trkpt lat="55.856312" lon="26.050669">
<ele>157.341919</ele>
<time>2010-07-17T14:41:47Z</time>
<desc>lat.=55.856312, lon.=26.050669, Alt.=157.341919m. Speed=11.916000m/h.</desc>
<speed>3.310000</speed>
</trkpt>
<trkpt lat="55.856350" lon="26.050648">
<ele>157.521606</ele>
<time>2010-07-17T14:41:48Z</time>
<desc>lat.=55.856350, lon.=26.050648, Alt.=157.521606m. Speed=12.816000m/h.</desc>
<speed>3.560000</speed>
</trkpt>
<trkpt lat="55.856384" lon="26.050610">
<ele>157.451294</ele>
<time>2010-07-17T14:41:49Z</time>
<desc>lat.=55.856384, lon.=26.050610, Alt.=157.451294m. Speed=12.708000m/h.</desc>
<speed>3.530000</speed>
</trkpt>
<trkpt lat="55.856419" lon="26.050566">
<ele>156.295044</ele>
<time>2010-07-17T14:41:50Z</time>
<desc>lat.=55.856419, lon.=26.050566, Alt.=156.295044m. Speed=13.428000m/h.</desc>
<speed>3.730000</speed>
</trkpt>
<trkpt lat="55.856457" lon="26.050524">
<ele>155.673950</ele>
<time>2010-07-17T14:41:51Z</time>
<desc>lat.=55.856457, lon.=26.050524, Alt.=155.673950m. Speed=13.536000m/h.</desc>
<speed>3.760000</speed>
</trkpt>
<trkpt lat="55.856487" lon="26.050480">
<ele>155.494263</ele>
<time>2010-07-17T14:41:52Z</time>
<desc>lat.=55.856487, lon.=26.050480, Alt.=155.494263m. Speed=14.652000m/h.</desc>
<speed>4.070000</speed>
</trkpt>
<trkpt lat="55.856518" lon="26.050434">
<ele>155.220825</ele>
<time>2010-07-17T14:41:53Z</time>
<desc>lat.=55.856518, lon.=26.050434, Alt.=155.220825m. Speed=13.284000m/h.</desc>
<speed>3.690000</speed>
</trkpt>
<trkpt lat="55.856552" lon="26.050394">
<ele>155.298950</ele>
<time>2010-07-17T14:41:54Z</time>
<desc>lat.=55.856552, lon.=26.050394, Alt.=155.298950m. Speed=14.832000m/h.</desc>
<speed>4.120000</speed>
</trkpt>
<trkpt lat="55.856586" lon="26.050360">
<ele>154.822388</ele>
<time>2010-07-17T14:41:55Z</time>
<desc>lat.=55.856586, lon.=26.050360, Alt.=154.822388m. Speed=14.832000m/h.</desc>
<speed>4.120000</speed>
</trkpt>
<trkpt lat="55.856621" lon="26.050314">
<ele>156.173950</ele>
<time>2010-07-17T14:41:56Z</time>
<desc>lat.=55.856621, lon.=26.050314, Alt.=156.173950m. Speed=14.832000m/h.</desc>
<speed>4.120000</speed>
</trkpt>
<trkpt lat="55.856651" lon="26.050274">
<ele>156.369263</ele>
<time>2010-07-17T14:41:57Z</time>
<desc>lat.=55.856651, lon.=26.050274, Alt.=156.369263m. Speed=14.076000m/h.</desc>
<speed>3.910000</speed>
</trkpt>
<trkpt lat="55.856689" lon="26.050247">
<ele>156.978638</ele>
<time>2010-07-17T14:41:58Z</time>
<desc>lat.=55.856689, lon.=26.050247, Alt.=156.978638m. Speed=14.076000m/h.</desc>
<speed>3.910000</speed>
</trkpt>
<trkpt lat="55.856728" lon="26.050213">
<ele>157.728638</ele>
<time>2010-07-17T14:41:59Z</time>
<desc>lat.=55.856728, lon.=26.050213, Alt.=157.728638m. Speed=14.616000m/h.</desc>
<speed>4.060000</speed>
</trkpt>
<trkpt lat="55.856766" lon="26.050177">
<ele>158.498169</ele>
<time>2010-07-17T14:42:00Z</time>
<desc>lat.=55.856766, lon.=26.050177, Alt.=158.498169m. Speed=14.508000m/h.</desc>
<speed>4.030000</speed>
</trkpt>
<trkpt lat="55.856796" lon="26.050135">
<ele>158.623169</ele>
<time>2010-07-17T14:42:01Z</time>
<desc>lat.=55.856796, lon.=26.050135, Alt.=158.623169m. Speed=14.724000m/h.</desc>
<speed>4.090000</speed>
</trkpt>
<trkpt lat="55.856831" lon="26.050104">
<ele>158.951294</ele>
<time>2010-07-17T14:42:02Z</time>
<desc>lat.=55.856831, lon.=26.050104, Alt.=158.951294m. Speed=15.696000m/h.</desc>
<speed>4.360000</speed>
</trkpt>
<trkpt lat="55.856865" lon="26.050066">
<ele>159.130981</ele>
<time>2010-07-17T14:42:03Z</time>
<desc>lat.=55.856865, lon.=26.050066, Alt.=159.130981m. Speed=15.732000m/h.</desc>
<speed>4.370000</speed>
</trkpt>
<trkpt lat="55.856899" lon="26.050018">
<ele>159.720825</ele>
<time>2010-07-17T14:42:04Z</time>
<desc>lat.=55.856899, lon.=26.050018, Alt.=159.720825m. Speed=16.271999m/h.</desc>
<speed>4.520000</speed>
</trkpt>
<trkpt lat="55.856922" lon="26.049969">
<ele>159.130981</ele>
<time>2010-07-17T14:42:05Z</time>
<desc>lat.=55.856922, lon.=26.049969, Alt.=159.130981m. Speed=15.192000m/h.</desc>
<speed>4.220000</speed>
</trkpt>
<trkpt lat="55.856949" lon="26.049927">
<ele>158.736450</ele>
<time>2010-07-17T14:42:06Z</time>
<desc>lat.=55.856949, lon.=26.049927, Alt.=158.736450m. Speed=13.608000m/h.</desc>
<speed>3.780000</speed>
</trkpt>
<trkpt lat="55.856972" lon="26.049891">
<ele>158.498169</ele>
<time>2010-07-17T14:42:07Z</time>
<desc>lat.=55.856972, lon.=26.049891, Alt.=158.498169m. Speed=14.220000m/h.</desc>
<speed>3.950000</speed>
</trkpt>
<trkpt lat="55.856991" lon="26.049843">
<ele>158.193481</ele>
<time>2010-07-17T14:42:08Z</time>
<desc>lat.=55.856991, lon.=26.049843, Alt.=158.193481m. Speed=12.852000m/h.</desc>
<speed>3.570000</speed>
</trkpt>
<trkpt lat="55.857014" lon="26.049812">
<ele>157.861450</ele>
<time>2010-07-17T14:42:09Z</time>
<desc>lat.=55.857014, lon.=26.049812, Alt.=157.861450m. Speed=11.304000m/h.</desc>
<speed>3.140000</speed>
</trkpt>
<trkpt lat="55.857044" lon="26.049780">
<ele>157.627075</ele>
<time>2010-07-17T14:42:10Z</time>
<desc>lat.=55.857044, lon.=26.049780, Alt.=157.627075m. Speed=12.132000m/h.</desc>
<speed>3.370000</speed>
</trkpt>
<trkpt lat="55.857071" lon="26.049755">
<ele>157.490356</ele>
<time>2010-07-17T14:42:11Z</time>
<desc>lat.=55.857071, lon.=26.049755, Alt.=157.490356m. Speed=11.052000m/h.</desc>
<speed>3.070000</speed>
</trkpt>
<trkpt lat="55.857098" lon="26.049721">
<ele>157.158325</ele>
<time>2010-07-17T14:42:12Z</time>
<desc>lat.=55.857098, lon.=26.049721, Alt.=157.158325m. Speed=11.124000m/h.</desc>
<speed>3.090000</speed>
</trkpt>
<trkpt lat="55.857121" lon="26.049686">
<ele>156.463013</ele>
<time>2010-07-17T14:42:13Z</time>
<desc>lat.=55.857121, lon.=26.049686, Alt.=156.463013m. Speed=11.484000m/h.</desc>
<speed>3.190000</speed>
</trkpt>
<trkpt lat="55.857147" lon="26.049660">
<ele>155.994263</ele>
<time>2010-07-17T14:42:14Z</time>
<desc>lat.=55.857147, lon.=26.049660, Alt.=155.994263m. Speed=12.492000m/h.</desc>
<speed>3.470000</speed>
</trkpt>
<trkpt lat="55.857178" lon="26.049633">
<ele>156.748169</ele>
<time>2010-07-17T14:42:15Z</time>
<desc>lat.=55.857178, lon.=26.049633, Alt.=156.748169m. Speed=13.644000m/h.</desc>
<speed>3.790000</speed>
</trkpt>
<trkpt lat="55.857208" lon="26.049597">
<ele>156.791138</ele>
<time>2010-07-17T14:42:16Z</time>
<desc>lat.=55.857208, lon.=26.049597, Alt.=156.791138m. Speed=14.796000m/h.</desc>
<speed>4.110000</speed>
</trkpt>
<trkpt lat="55.857239" lon="26.049555">
<ele>156.724731</ele>
<time>2010-07-17T14:42:17Z</time>
<desc>lat.=55.857239, lon.=26.049555, Alt.=156.724731m. Speed=14.292000m/h.</desc>
<speed>3.970000</speed>
</trkpt>
<trkpt lat="55.857273" lon="26.049511">
<ele>156.705200</ele>
<time>2010-07-17T14:42:18Z</time>
<desc>lat.=55.857273, lon.=26.049511, Alt.=156.705200m. Speed=14.400000m/h.</desc>
<speed>4.000000</speed>
</trkpt>
<trkpt lat="55.857300" lon="26.049477">
<ele>156.662231</ele>
<time>2010-07-17T14:42:19Z</time>
<desc>lat.=55.857300, lon.=26.049477, Alt.=156.662231m. Speed=13.896000m/h.</desc>
<speed>3.860000</speed>
</trkpt>
<trkpt lat="55.857327" lon="26.049446">
<ele>156.623169</ele>
<time>2010-07-17T14:42:20Z</time>
<desc>lat.=55.857327, lon.=26.049446, Alt.=156.623169m. Speed=13.068000m/h.</desc>
<speed>3.630000</speed>
</trkpt>
<trkpt lat="55.857349" lon="26.049414">
<ele>156.533325</ele>
<time>2010-07-17T14:42:21Z</time>
<desc>lat.=55.857349, lon.=26.049414, Alt.=156.533325m. Speed=12.744000m/h.</desc>
<speed>3.540000</speed>
</trkpt>
<trkpt lat="55.857376" lon="26.049379">
<ele>156.466919</ele>
<time>2010-07-17T14:42:22Z</time>
<desc>lat.=55.857376, lon.=26.049379, Alt.=156.466919m. Speed=12.888000m/h.</desc>
<speed>3.580000</speed>
</trkpt>
<trkpt lat="55.857403" lon="26.049351">
<ele>156.568481</ele>
<time>2010-07-17T14:42:23Z</time>
<desc>lat.=55.857403, lon.=26.049351, Alt.=156.568481m. Speed=12.528000m/h.</desc>
<speed>3.480000</speed>
</trkpt>
<trkpt lat="55.857430" lon="26.049328">
<ele>157.017700</ele>
<time>2010-07-17T14:42:24Z</time>
<desc>lat.=55.857430, lon.=26.049328, Alt.=157.017700m. Speed=12.096000m/h.</desc>
<speed>3.360000</speed>
</trkpt>
<trkpt lat="55.857456" lon="26.049299">
<ele>157.033325</ele>
<time>2010-07-17T14:42:25Z</time>
<desc>lat.=55.857456, lon.=26.049299, Alt.=157.033325m. Speed=14.220000m/h.</desc>
<speed>3.950000</speed>
</trkpt>
<trkpt lat="55.857487" lon="26.049267">
<ele>157.170044</ele>
<time>2010-07-17T14:42:26Z</time>
<desc>lat.=55.857487, lon.=26.049267, Alt.=157.170044m. Speed=14.616000m/h.</desc>
<speed>4.060000</speed>
</trkpt>
<trkpt lat="55.857525" lon="26.049232">
<ele>157.193481</ele>
<time>2010-07-17T14:42:27Z</time>
<desc>lat.=55.857525, lon.=26.049232, Alt.=157.193481m. Speed=16.200001m/h.</desc>
<speed>4.500000</speed>
</trkpt>
<trkpt lat="55.857559" lon="26.049194">
<ele>157.306763</ele>
<time>2010-07-17T14:42:28Z</time>
<desc>lat.=55.857559, lon.=26.049194, Alt.=157.306763m. Speed=17.964001m/h.</desc>
<speed>4.990000</speed>
</trkpt>
<trkpt lat="55.857601" lon="26.049160">
<ele>157.537231</ele>
<time>2010-07-17T14:42:29Z</time>
<desc>lat.=55.857601, lon.=26.049160, Alt.=157.537231m. Speed=20.483999m/h.</desc>
<speed>5.690000</speed>
</trkpt>
<trkpt lat="55.857647" lon="26.049116">
<ele>157.623169</ele>
<time>2010-07-17T14:42:30Z</time>
<desc>lat.=55.857647, lon.=26.049116, Alt.=157.623169m. Speed=20.628000m/h.</desc>
<speed>5.730000</speed>
</trkpt>
<trkpt lat="55.857689" lon="26.049072">
<ele>157.767700</ele>
<time>2010-07-17T14:42:31Z</time>
<desc>lat.=55.857689, lon.=26.049072, Alt.=157.767700m. Speed=20.700001m/h.</desc>
<speed>5.750000</speed>
</trkpt>
<trkpt lat="55.857738" lon="26.049026">
<ele>157.920044</ele>
<time>2010-07-17T14:42:32Z</time>
<desc>lat.=55.857738, lon.=26.049026, Alt.=157.920044m. Speed=23.004000m/h.</desc>
<speed>6.390000</speed>
</trkpt>
<trkpt lat="55.857792" lon="26.048981">
<ele>158.123169</ele>
<time>2010-07-17T14:42:33Z</time>
<desc>lat.=55.857792, lon.=26.048981, Alt.=158.123169m. Speed=23.076000m/h.</desc>
<speed>6.410000</speed>
</trkpt>
<trkpt lat="55.857845" lon="26.048937">
<ele>158.189575</ele>
<time>2010-07-17T14:42:34Z</time>
<desc>lat.=55.857845, lon.=26.048937, Alt.=158.189575m. Speed=22.535999m/h.</desc>
<speed>6.260000</speed>
</trkpt>
<trkpt lat="55.857906" lon="26.048901">
<ele>158.150513</ele>
<time>2010-07-17T14:42:35Z</time>
<desc>lat.=55.857906, lon.=26.048901, Alt.=158.150513m. Speed=21.888000m/h.</desc>
<speed>6.080000</speed>
</trkpt>
<trkpt lat="55.857948" lon="26.048866">
<ele>158.263794</ele>
<time>2010-07-17T14:42:36Z</time>
<desc>lat.=55.857948, lon.=26.048866, Alt.=158.263794m. Speed=21.816000m/h.</desc>
<speed>6.060000</speed>
</trkpt>
<trkpt lat="55.857998" lon="26.048838">
<ele>158.529419</ele>
<time>2010-07-17T14:42:37Z</time>
<desc>lat.=55.857998, lon.=26.048838, Alt.=158.529419m. Speed=21.132000m/h.</desc>
<speed>5.870000</speed>
</trkpt>
<trkpt lat="55.858047" lon="26.048807">
<ele>158.482544</ele>
<time>2010-07-17T14:42:38Z</time>
<desc>lat.=55.858047, lon.=26.048807, Alt.=158.482544m. Speed=20.232000m/h.</desc>
<speed>5.620000</speed>
</trkpt>
<trkpt lat="55.858097" lon="26.048777">
<ele>158.400513</ele>
<time>2010-07-17T14:42:39Z</time>
<desc>lat.=55.858097, lon.=26.048777, Alt.=158.400513m. Speed=19.296000m/h.</desc>
<speed>5.360000</speed>
</trkpt>
<trkpt lat="55.858147" lon="26.048744">
<ele>158.068481</ele>
<time>2010-07-17T14:42:40Z</time>
<desc>lat.=55.858147, lon.=26.048744, Alt.=158.068481m. Speed=18.719999m/h.</desc>
<speed>5.200000</speed>
</trkpt>
<trkpt lat="55.858189" lon="26.048708">
<ele>158.920044</ele>
<time>2010-07-17T14:42:41Z</time>
<desc>lat.=55.858189, lon.=26.048708, Alt.=158.920044m. Speed=16.848000m/h.</desc>
<speed>4.680000</speed>
</trkpt>
<trkpt lat="55.858231" lon="26.048685">
<ele>159.166138</ele>
<time>2010-07-17T14:42:42Z</time>
<desc>lat.=55.858231, lon.=26.048685, Alt.=159.166138m. Speed=16.344000m/h.</desc>
<speed>4.540000</speed>
</trkpt>
<trkpt lat="55.858273" lon="26.048664">
<ele>158.845825</ele>
<time>2010-07-17T14:42:43Z</time>
<desc>lat.=55.858273, lon.=26.048664, Alt.=158.845825m. Speed=16.920000m/h.</desc>
<speed>4.700000</speed>
</trkpt>
<trkpt lat="55.858318" lon="26.048649">
<ele>158.763794</ele>
<time>2010-07-17T14:42:44Z</time>
<desc>lat.=55.858318, lon.=26.048649, Alt.=158.763794m. Speed=16.704000m/h.</desc>
<speed>4.640000</speed>
</trkpt>
<trkpt lat="55.858360" lon="26.048639">
<ele>158.673950</ele>
<time>2010-07-17T14:42:45Z</time>
<desc>lat.=55.858360, lon.=26.048639, Alt.=158.673950m. Speed=17.172001m/h.</desc>
<speed>4.770000</speed>
</trkpt>
<trkpt lat="55.858406" lon="26.048624">
<ele>158.486450</ele>
<time>2010-07-17T14:42:46Z</time>
<desc>lat.=55.858406, lon.=26.048624, Alt.=158.486450m. Speed=15.984000m/h.</desc>
<speed>4.440000</speed>
</trkpt>
<trkpt lat="55.858444" lon="26.048609">
<ele>158.955200</ele>
<time>2010-07-17T14:42:47Z</time>
<desc>lat.=55.858444, lon.=26.048609, Alt.=158.955200m. Speed=14.688000m/h.</desc>
<speed>4.080000</speed>
</trkpt>
<trkpt lat="55.858479" lon="26.048595">
<ele>159.123169</ele>
<time>2010-07-17T14:42:48Z</time>
<desc>lat.=55.858479, lon.=26.048595, Alt.=159.123169m. Speed=14.184000m/h.</desc>
<speed>3.940000</speed>
</trkpt>
<trkpt lat="55.858517" lon="26.048592">
<ele>159.002075</ele>
<time>2010-07-17T14:42:49Z</time>
<desc>lat.=55.858517, lon.=26.048592, Alt.=159.002075m. Speed=14.580000m/h.</desc>
<speed>4.050000</speed>
</trkpt>
<trkpt lat="55.858551" lon="26.048594">
<ele>158.923950</ele>
<time>2010-07-17T14:42:50Z</time>
<desc>lat.=55.858551, lon.=26.048594, Alt.=158.923950m. Speed=12.132000m/h.</desc>
<speed>3.370000</speed>
</trkpt>
<trkpt lat="55.858582" lon="26.048595">
<ele>158.869263</ele>
<time>2010-07-17T14:42:51Z</time>
<desc>lat.=55.858582, lon.=26.048595, Alt.=158.869263m. Speed=11.052000m/h.</desc>
<speed>3.070000</speed>
</trkpt>
<trkpt lat="55.858608" lon="26.048582">
<ele>158.916138</ele>
<time>2010-07-17T14:42:52Z</time>
<desc>lat.=55.858608, lon.=26.048582, Alt.=158.916138m. Speed=10.404000m/h.</desc>
<speed>2.890000</speed>
</trkpt>
<trkpt lat="55.858631" lon="26.048571">
<ele>158.755981</ele>
<time>2010-07-17T14:42:53Z</time>
<desc>lat.=55.858631, lon.=26.048571, Alt.=158.755981m. Speed=8.784000m/h.</desc>
<speed>2.440000</speed>
</trkpt>
<trkpt lat="55.858654" lon="26.048563">
<ele>158.853638</ele>
<time>2010-07-17T14:42:54Z</time>
<desc>lat.=55.858654, lon.=26.048563, Alt.=158.853638m. Speed=9.288000m/h.</desc>
<speed>2.580000</speed>
</trkpt>
<trkpt lat="55.858681" lon="26.048563">
<ele>159.275513</ele>
<time>2010-07-17T14:42:55Z</time>
<desc>lat.=55.858681, lon.=26.048563, Alt.=159.275513m. Speed=9.432000m/h.</desc>
<speed>2.620000</speed>
</trkpt>
<trkpt lat="55.858704" lon="26.048573">
<ele>159.630981</ele>
<time>2010-07-17T14:42:56Z</time>
<desc>lat.=55.858704, lon.=26.048573, Alt.=159.630981m. Speed=9.180000m/h.</desc>
<speed>2.550000</speed>
</trkpt>
<trkpt lat="55.858730" lon="26.048578">
<ele>159.291138</ele>
<time>2010-07-17T14:42:57Z</time>
<desc>lat.=55.858730, lon.=26.048578, Alt.=159.291138m. Speed=9.180000m/h.</desc>
<speed>2.550000</speed>
</trkpt>
<trkpt lat="55.858753" lon="26.048578">
<ele>158.986450</ele>
<time>2010-07-17T14:42:58Z</time>
<desc>lat.=55.858753, lon.=26.048578, Alt.=158.986450m. Speed=8.064000m/h.</desc>
<speed>2.240000</speed>
</trkpt>
<trkpt lat="55.858776" lon="26.048573">
<ele>158.865356</ele>
<time>2010-07-17T14:42:59Z</time>
<desc>lat.=55.858776, lon.=26.048573, Alt.=158.865356m. Speed=7.632000m/h.</desc>
<speed>2.120000</speed>
</trkpt>
<trkpt lat="55.858795" lon="26.048573">
<ele>158.838013</ele>
<time>2010-07-17T14:43:00Z</time>
<desc>lat.=55.858795, lon.=26.048573, Alt.=158.838013m. Speed=6.084000m/h.</desc>
<speed>1.690000</speed>
</trkpt>
<trkpt lat="55.858807" lon="26.048573">
<ele>158.970825</ele>
<time>2010-07-17T14:43:01Z</time>
<desc>lat.=55.858807, lon.=26.048573, Alt.=158.970825m. Speed=5.184000m/h.</desc>
<speed>1.440000</speed>
</trkpt>
<trkpt lat="55.858822" lon="26.048571">
<ele>158.970825</ele>
<time>2010-07-17T14:43:02Z</time>
<desc>lat.=55.858822, lon.=26.048571, Alt.=158.970825m. Speed=6.444000m/h.</desc>
<speed>1.790000</speed>
</trkpt>
<trkpt lat="55.858841" lon="26.048576">
<ele>158.740356</ele>
<time>2010-07-17T14:43:03Z</time>
<desc>lat.=55.858841, lon.=26.048576, Alt.=158.740356m. Speed=5.940000m/h.</desc>
<speed>1.650000</speed>
</trkpt>
<trkpt lat="55.858852" lon="26.048571">
<ele>158.490356</ele>
<time>2010-07-17T14:43:04Z</time>
<desc>lat.=55.858852, lon.=26.048571, Alt.=158.490356m. Speed=6.012000m/h.</desc>
<speed>1.670000</speed>
</trkpt>
<trkpt lat="55.858864" lon="26.048563">
<ele>158.091919</ele>
<time>2010-07-17T14:43:05Z</time>
<desc>lat.=55.858864, lon.=26.048563, Alt.=158.091919m. Speed=6.336000m/h.</desc>
<speed>1.760000</speed>
</trkpt>
<trkpt lat="55.858875" lon="26.048555">
<ele>158.013794</ele>
<time>2010-07-17T14:43:06Z</time>
<desc>lat.=55.858875, lon.=26.048555, Alt.=158.013794m. Speed=5.688000m/h.</desc>
<speed>1.580000</speed>
</trkpt>
<trkpt lat="55.858891" lon="26.048555">
<ele>157.959106</ele>
<time>2010-07-17T14:43:07Z</time>
<desc>lat.=55.858891, lon.=26.048555, Alt.=157.959106m. Speed=5.796000m/h.</desc>
<speed>1.610000</speed>
</trkpt>
<trkpt lat="55.858906" lon="26.048561">
<ele>158.213013</ele>
<time>2010-07-17T14:43:08Z</time>
<desc>lat.=55.858906, lon.=26.048561, Alt.=158.213013m. Speed=6.048000m/h.</desc>
<speed>1.680000</speed>
</trkpt>
<trkpt lat="55.858921" lon="26.048573">
<ele>158.052856</ele>
<time>2010-07-17T14:43:09Z</time>
<desc>lat.=55.858921, lon.=26.048573, Alt.=158.052856m. Speed=5.832000m/h.</desc>
<speed>1.620000</speed>
</trkpt>
<trkpt lat="55.858932" lon="26.048578">
<ele>158.193481</ele>
<time>2010-07-17T14:43:10Z</time>
<desc>lat.=55.858932, lon.=26.048578, Alt.=158.193481m. Speed=4.896000m/h.</desc>
<speed>1.360000</speed>
</trkpt>
<trkpt lat="55.858948" lon="26.048574">
<ele>158.162231</ele>
<time>2010-07-17T14:43:11Z</time>
<desc>lat.=55.858948, lon.=26.048574, Alt.=158.162231m. Speed=5.364000m/h.</desc>
<speed>1.490000</speed>
</trkpt>
<trkpt lat="55.858959" lon="26.048576">
<ele>158.326294</ele>
<time>2010-07-17T14:43:12Z</time>
<desc>lat.=55.858959, lon.=26.048576, Alt.=158.326294m. Speed=5.508000m/h.</desc>
<speed>1.530000</speed>
</trkpt>
<trkpt lat="55.858971" lon="26.048573">
<ele>158.224731</ele>
<time>2010-07-17T14:43:13Z</time>
<desc>lat.=55.858971, lon.=26.048573, Alt.=158.224731m. Speed=5.148000m/h.</desc>
<speed>1.430000</speed>
</trkpt>
<trkpt lat="55.858978" lon="26.048576">
<ele>157.806763</ele>
<time>2010-07-17T14:43:14Z</time>
<desc>lat.=55.858978, lon.=26.048576, Alt.=157.806763m. Speed=1.332000m/h.</desc>
<speed>0.370000</speed>
</trkpt>
<trkpt lat="55.858986" lon="26.048580">
<ele>157.564575</ele>
<time>2010-07-17T14:43:15Z</time>
<desc>lat.=55.858986, lon.=26.048580, Alt.=157.564575m. Speed=3.636000m/h.</desc>
<speed>1.010000</speed>
</trkpt>
<trkpt lat="55.859001" lon="26.048588">
<ele>157.990356</ele>
<time>2010-07-17T14:43:16Z</time>
<desc>lat.=55.859001, lon.=26.048588, Alt.=157.990356m. Speed=6.048000m/h.</desc>
<speed>1.680000</speed>
</trkpt>
<trkpt lat="55.859016" lon="26.048595">
<ele>157.595825</ele>
<time>2010-07-17T14:43:17Z</time>
<desc>lat.=55.859016, lon.=26.048595, Alt.=157.595825m. Speed=5.760000m/h.</desc>
<speed>1.600000</speed>
</trkpt>
<trkpt lat="55.859039" lon="26.048599">
<ele>157.810669</ele>
<time>2010-07-17T14:43:18Z</time>
<desc>lat.=55.859039, lon.=26.048599, Alt.=157.810669m. Speed=6.336000m/h.</desc>
<speed>1.760000</speed>
</trkpt>
<trkpt lat="55.859055" lon="26.048599">
<ele>157.877075</ele>
<time>2010-07-17T14:43:19Z</time>
<desc>lat.=55.859055, lon.=26.048599, Alt.=157.877075m. Speed=6.228000m/h.</desc>
<speed>1.730000</speed>
</trkpt>
<trkpt lat="55.859070" lon="26.048597">
<ele>157.505981</ele>
<time>2010-07-17T14:43:20Z</time>
<desc>lat.=55.859070, lon.=26.048597, Alt.=157.505981m. Speed=6.336000m/h.</desc>
<speed>1.760000</speed>
</trkpt>
<trkpt lat="55.859085" lon="26.048601">
<ele>157.970825</ele>
<time>2010-07-17T14:43:21Z</time>
<desc>lat.=55.859085, lon.=26.048601, Alt.=157.970825m. Speed=6.300000m/h.</desc>
<speed>1.750000</speed>
</trkpt>
<trkpt lat="55.859104" lon="26.048605">
<ele>157.908325</ele>
<time>2010-07-17T14:43:22Z</time>
<desc>lat.=55.859104, lon.=26.048605, Alt.=157.908325m. Speed=6.480000m/h.</desc>
<speed>1.800000</speed>
</trkpt>
<trkpt lat="55.859123" lon="26.048613">
<ele>157.591919</ele>
<time>2010-07-17T14:43:23Z</time>
<desc>lat.=55.859123, lon.=26.048613, Alt.=157.591919m. Speed=6.372000m/h.</desc>
<speed>1.770000</speed>
</trkpt>
<trkpt lat="55.859138" lon="26.048618">
<ele>157.634888</ele>
<time>2010-07-17T14:43:24Z</time>
<desc>lat.=55.859138, lon.=26.048618, Alt.=157.634888m. Speed=6.336000m/h.</desc>
<speed>1.760000</speed>
</trkpt>
<trkpt lat="55.859154" lon="26.048626">
<ele>157.755981</ele>
<time>2010-07-17T14:43:25Z</time>
<desc>lat.=55.859154, lon.=26.048626, Alt.=157.755981m. Speed=6.552000m/h.</desc>
<speed>1.820000</speed>
</trkpt>
<trkpt lat="55.859169" lon="26.048632">
<ele>158.353638</ele>
<time>2010-07-17T14:43:26Z</time>
<desc>lat.=55.859169, lon.=26.048632, Alt.=158.353638m. Speed=6.732000m/h.</desc>
<speed>1.870000</speed>
</trkpt>
<trkpt lat="55.859188" lon="26.048634">
<ele>159.181763</ele>
<time>2010-07-17T14:43:27Z</time>
<desc>lat.=55.859188, lon.=26.048634, Alt.=159.181763m. Speed=6.444000m/h.</desc>
<speed>1.790000</speed>
</trkpt>
<trkpt lat="55.859203" lon="26.048632">
<ele>159.181763</ele>
<time>2010-07-17T14:43:28Z</time>
<desc>lat.=55.859203, lon.=26.048632, Alt.=159.181763m. Speed=6.732000m/h.</desc>
<speed>1.870000</speed>
</trkpt>
<trkpt lat="55.859219" lon="26.048634">
<ele>159.076294</ele>
<time>2010-07-17T14:43:29Z</time>
<desc>lat.=55.859219, lon.=26.048634, Alt.=159.076294m. Speed=6.732000m/h.</desc>
<speed>1.870000</speed>
</trkpt>
<trkpt lat="55.859234" lon="26.048634">
<ele>159.986450</ele>
<time>2010-07-17T14:43:30Z</time>
<desc>lat.=55.859234, lon.=26.048634, Alt.=159.986450m. Speed=6.444000m/h.</desc>
<speed>1.790000</speed>
</trkpt>
<trkpt lat="55.859253" lon="26.048635">
<ele>159.963013</ele>
<time>2010-07-17T14:43:31Z</time>
<desc>lat.=55.859253, lon.=26.048635, Alt.=159.963013m. Speed=6.300000m/h.</desc>
<speed>1.750000</speed>
</trkpt>
<trkpt lat="55.859268" lon="26.048643">
<ele>159.627075</ele>
<time>2010-07-17T14:43:32Z</time>
<desc>lat.=55.859268, lon.=26.048643, Alt.=159.627075m. Speed=6.588000m/h.</desc>
<speed>1.830000</speed>
</trkpt>
<trkpt lat="55.859287" lon="26.048649">
<ele>160.435669</ele>
<time>2010-07-17T14:43:33Z</time>
<desc>lat.=55.859287, lon.=26.048649, Alt.=160.435669m. Speed=6.660000m/h.</desc>
<speed>1.850000</speed>
</trkpt>
<trkpt lat="55.859303" lon="26.048656">
<ele>161.045044</ele>
<time>2010-07-17T14:43:34Z</time>
<desc>lat.=55.859303, lon.=26.048656, Alt.=161.045044m. Speed=7.056000m/h.</desc>
<speed>1.960000</speed>
</trkpt>
<trkpt lat="55.859322" lon="26.048664">
<ele>161.818481</ele>
<time>2010-07-17T14:43:35Z</time>
<desc>lat.=55.859322, lon.=26.048664, Alt.=161.818481m. Speed=7.020000m/h.</desc>
<speed>1.950000</speed>
</trkpt>
<trkpt lat="55.859337" lon="26.048668">
<ele>161.736450</ele>
<time>2010-07-17T14:43:36Z</time>
<desc>lat.=55.859337, lon.=26.048668, Alt.=161.736450m. Speed=6.804000m/h.</desc>
<speed>1.890000</speed>
</trkpt>
<trkpt lat="55.859352" lon="26.048664">
<ele>161.404419</ele>
<time>2010-07-17T14:43:37Z</time>
<desc>lat.=55.859352, lon.=26.048664, Alt.=161.404419m. Speed=7.380000m/h.</desc>
<speed>2.050000</speed>
</trkpt>
<trkpt lat="55.859367" lon="26.048660">
<ele>161.748169</ele>
<time>2010-07-17T14:43:38Z</time>
<desc>lat.=55.859367, lon.=26.048660, Alt.=161.748169m. Speed=7.308000m/h.</desc>
<speed>2.030000</speed>
</trkpt>
<trkpt lat="55.859383" lon="26.048658">
<ele>162.849731</ele>
<time>2010-07-17T14:43:39Z</time>
<desc>lat.=55.859383, lon.=26.048658, Alt.=162.849731m. Speed=7.776000m/h.</desc>
<speed>2.160000</speed>
</trkpt>
<trkpt lat="55.859402" lon="26.048662">
<ele>163.666138</ele>
<time>2010-07-17T14:43:40Z</time>
<desc>lat.=55.859402, lon.=26.048662, Alt.=163.666138m. Speed=7.884000m/h.</desc>
<speed>2.190000</speed>
</trkpt>
<trkpt lat="55.859421" lon="26.048668">
<ele>163.623169</ele>
<time>2010-07-17T14:43:41Z</time>
<desc>lat.=55.859421, lon.=26.048668, Alt.=163.623169m. Speed=7.776000m/h.</desc>
<speed>2.160000</speed>
</trkpt>
<trkpt lat="55.859440" lon="26.048670">
<ele>164.720825</ele>
<time>2010-07-17T14:43:42Z</time>
<desc>lat.=55.859440, lon.=26.048670, Alt.=164.720825m. Speed=8.064000m/h.</desc>
<speed>2.240000</speed>
</trkpt>
<trkpt lat="55.859459" lon="26.048681">
<ele>165.509888</ele>
<time>2010-07-17T14:43:43Z</time>
<desc>lat.=55.859459, lon.=26.048681, Alt.=165.509888m. Speed=7.236000m/h.</desc>
<speed>2.010000</speed>
</trkpt>
<trkpt lat="55.859478" lon="26.048687">
<ele>166.060669</ele>
<time>2010-07-17T14:43:44Z</time>
<desc>lat.=55.859478, lon.=26.048687, Alt.=166.060669m. Speed=7.704000m/h.</desc>
<speed>2.140000</speed>
</trkpt>
<trkpt lat="55.859497" lon="26.048693">
<ele>166.013794</ele>
<time>2010-07-17T14:43:45Z</time>
<desc>lat.=55.859497, lon.=26.048693, Alt.=166.013794m. Speed=7.452000m/h.</desc>
<speed>2.070000</speed>
</trkpt>
<trkpt lat="55.859516" lon="26.048700">
<ele>166.060669</ele>
<time>2010-07-17T14:43:46Z</time>
<desc>lat.=55.859516, lon.=26.048700, Alt.=166.060669m. Speed=7.488000m/h.</desc>
<speed>2.080000</speed>
</trkpt>
<trkpt lat="55.859535" lon="26.048706">
<ele>166.252075</ele>
<time>2010-07-17T14:43:47Z</time>
<desc>lat.=55.859535, lon.=26.048706, Alt.=166.252075m. Speed=7.596000m/h.</desc>
<speed>2.110000</speed>
</trkpt>
<trkpt lat="55.859554" lon="26.048712">
<ele>166.650513</ele>
<time>2010-07-17T14:43:48Z</time>
<desc>lat.=55.859554, lon.=26.048712, Alt.=166.650513m. Speed=7.344000m/h.</desc>
<speed>2.040000</speed>
</trkpt>
<trkpt lat="55.859570" lon="26.048708">
<ele>166.615356</ele>
<time>2010-07-17T14:43:49Z</time>
<desc>lat.=55.859570, lon.=26.048708, Alt.=166.615356m. Speed=6.732000m/h.</desc>
<speed>1.870000</speed>
</trkpt>
<trkpt lat="55.859589" lon="26.048704">
<ele>166.224731</ele>
<time>2010-07-17T14:43:50Z</time>
<desc>lat.=55.859589, lon.=26.048704, Alt.=166.224731m. Speed=6.696000m/h.</desc>
<speed>1.860000</speed>
</trkpt>
<trkpt lat="55.859600" lon="26.048700">
<ele>166.130981</ele>
<time>2010-07-17T14:43:51Z</time>
<desc>lat.=55.859600, lon.=26.048700, Alt.=166.130981m. Speed=5.148000m/h.</desc>
<speed>1.430000</speed>
</trkpt>
<trkpt lat="55.859612" lon="26.048697">
<ele>165.916138</ele>
<time>2010-07-17T14:43:52Z</time>
<desc>lat.=55.859612, lon.=26.048697, Alt.=165.916138m. Speed=5.112000m/h.</desc>
<speed>1.420000</speed>
</trkpt>
<trkpt lat="55.859623" lon="26.048698">
<ele>164.615356</ele>
<time>2010-07-17T14:43:53Z</time>
<desc>lat.=55.859623, lon.=26.048698, Alt.=164.615356m. Speed=5.004000m/h.</desc>
<speed>1.390000</speed>
</trkpt>
<trkpt lat="55.859634" lon="26.048700">
<ele>164.326294</ele>
<time>2010-07-17T14:43:54Z</time>
<desc>lat.=55.859634, lon.=26.048700, Alt.=164.326294m. Speed=5.112000m/h.</desc>
<speed>1.420000</speed>
</trkpt>
<trkpt lat="55.859650" lon="26.048702">
<ele>164.091919</ele>
<time>2010-07-17T14:43:55Z</time>
<desc>lat.=55.859650, lon.=26.048702, Alt.=164.091919m. Speed=5.472000m/h.</desc>
<speed>1.520000</speed>
</trkpt>
<trkpt lat="55.859661" lon="26.048708">
<ele>164.142700</ele>
<time>2010-07-17T14:43:56Z</time>
<desc>lat.=55.859661, lon.=26.048708, Alt.=164.142700m. Speed=5.364000m/h.</desc>
<speed>1.490000</speed>
</trkpt>
<trkpt lat="55.859676" lon="26.048712">
<ele>164.177856</ele>
<time>2010-07-17T14:43:57Z</time>
<desc>lat.=55.859676, lon.=26.048712, Alt.=164.177856m. Speed=4.824000m/h.</desc>
<speed>1.340000</speed>
</trkpt>
<trkpt lat="55.859688" lon="26.048719">
<ele>163.638794</ele>
<time>2010-07-17T14:43:58Z</time>
<desc>lat.=55.859688, lon.=26.048719, Alt.=163.638794m. Speed=3.708000m/h.</desc>
<speed>1.030000</speed>
</trkpt>
<trkpt lat="55.859699" lon="26.048719">
<ele>163.861450</ele>
<time>2010-07-17T14:43:59Z</time>
<desc>lat.=55.859699, lon.=26.048719, Alt.=163.861450m. Speed=2.736000m/h.</desc>
<speed>0.760000</speed>
</trkpt>
<trkpt lat="55.859703" lon="26.048719">
<ele>163.830200</ele>
<time>2010-07-17T14:44:00Z</time>
<desc>lat.=55.859703, lon.=26.048719, Alt.=163.830200m. Speed=0.468000m/h.</desc>
<speed>0.130000</speed>
</trkpt>
<trkpt lat="55.859703" lon="26.048719">
<ele>163.548950</ele>
<time>2010-07-17T14:44:01Z</time>
<desc>lat.=55.859703, lon.=26.048719, Alt.=163.548950m. Speed=0.180000m/h.</desc>
<speed>0.050000</speed>
</trkpt>
<trkpt lat="55.859703" lon="26.048721">
<ele>163.767700</ele>
<time>2010-07-17T14:44:02Z</time>
<desc>lat.=55.859703, lon.=26.048721, Alt.=163.767700m. Speed=0.396000m/h.</desc>
<speed>0.110000</speed>
</trkpt>
<trkpt lat="55.859703" lon="26.048721">
<ele>163.755981</ele>
<time>2010-07-17T14:44:03Z</time>
<desc>lat.=55.859703, lon.=26.048721, Alt.=163.755981m. Speed=0.684000m/h.</desc>
<speed>0.190000</speed>
</trkpt>
<trkpt lat="55.859703" lon="26.048719">
<ele>163.748169</ele>
<time>2010-07-17T14:44:04Z</time>
<desc>lat.=55.859703, lon.=26.048719, Alt.=163.748169m. Speed=0.684000m/h.</desc>
<speed>0.190000</speed>
</trkpt>
<trkpt lat="55.859703" lon="26.048716">
<ele>163.744263</ele>
<time>2010-07-17T14:44:05Z</time>
<desc>lat.=55.859703, lon.=26.048716, Alt.=163.744263m. Speed=0.576000m/h.</desc>
<speed>0.160000</speed>
</trkpt>
<trkpt lat="55.859703" lon="26.048714">
<ele>163.744263</ele>
<time>2010-07-17T14:44:06Z</time>
<desc>lat.=55.859703, lon.=26.048714, Alt.=163.744263m. Speed=0.324000m/h.</desc>
<speed>0.090000</speed>
</trkpt>
<trkpt lat="55.859703" lon="26.048712">
<ele>163.752075</ele>
<time>2010-07-17T14:44:07Z</time>
<desc>lat.=55.859703, lon.=26.048712, Alt.=163.752075m. Speed=0.072000m/h.</desc>
<speed>0.020000</speed>
</trkpt>
<trkpt lat="55.859703" lon="26.048712">
<ele>163.755981</ele>
<time>2010-07-17T14:44:08Z</time>
<desc>lat.=55.859703, lon.=26.048712, Alt.=163.755981m. Speed=0.000000m/h.</desc>
<speed>0.000000</speed>
</trkpt>
<trkpt lat="55.859703" lon="26.048712">
<ele>163.763794</ele>
<time>2010-07-17T14:44:09Z</time>
<desc>lat.=55.859703, lon.=26.048712, Alt.=163.763794m. Speed=0.036000m/h.</desc>
<speed>0.010000</speed>
</trkpt>
<trkpt lat="55.859703" lon="26.048712">
<ele>163.771606</ele>
<time>2010-07-17T14:44:10Z</time>
<desc>lat.=55.859703, lon.=26.048712, Alt.=163.771606m. Speed=0.072000m/h.</desc>
<speed>0.020000</speed>
</trkpt>
<trkpt lat="55.859703" lon="26.048712">
<ele>163.779419</ele>
<time>2010-07-17T14:44:11Z</time>
<desc>lat.=55.859703, lon.=26.048712, Alt.=163.779419m. Speed=0.036000m/h.</desc>
<speed>0.010000</speed>
</trkpt>
<trkpt lat="55.859703" lon="26.048712">
<ele>163.787231</ele>
<time>2010-07-17T14:44:12Z</time>
<desc>lat.=55.859703, lon.=26.048712, Alt.=163.787231m. Speed=0.108000m/h.</desc>
<speed>0.030000</speed>
</trkpt>
<trkpt lat="55.859703" lon="26.048710">
<ele>163.791138</ele>
<time>2010-07-17T14:44:13Z</time>
<desc>lat.=55.859703, lon.=26.048710, Alt.=163.791138m. Speed=0.180000m/h.</desc>
<speed>0.050000</speed>
</trkpt>
<trkpt lat="55.859703" lon="26.048710">
<ele>163.791138</ele>
<time>2010-07-17T14:44:14Z</time>
<desc>lat.=55.859703, lon.=26.048710, Alt.=163.791138m. Speed=0.108000m/h.</desc>
<speed>0.030000</speed>
</trkpt>
<trkpt lat="55.859703" lon="26.048710">
<ele>163.787231</ele>
<time>2010-07-17T14:44:15Z</time>
<desc>lat.=55.859703, lon.=26.048710, Alt.=163.787231m. Speed=0.468000m/h.</desc>
<speed>0.130000</speed>
</trkpt>
<trkpt lat="55.859703" lon="26.048708">
<ele>163.783325</ele>
<time>2010-07-17T14:44:16Z</time>
<desc>lat.=55.859703, lon.=26.048708, Alt.=163.783325m. Speed=0.324000m/h.</desc>
<speed>0.090000</speed>
</trkpt>
<trkpt lat="55.859707" lon="26.048706">
<ele>163.783325</ele>
<time>2010-07-17T14:44:17Z</time>
<desc>lat.=55.859707, lon.=26.048706, Alt.=163.783325m. Speed=0.252000m/h.</desc>
<speed>0.070000</speed>
</trkpt>
<trkpt lat="55.859707" lon="26.048704">
<ele>163.783325</ele>
<time>2010-07-17T14:44:18Z</time>
<desc>lat.=55.859707, lon.=26.048704, Alt.=163.783325m. Speed=0.288000m/h.</desc>
<speed>0.080000</speed>
</trkpt>
<trkpt lat="55.859707" lon="26.048704">
<ele>163.783325</ele>
<time>2010-07-17T14:44:19Z</time>
<desc>lat.=55.859707, lon.=26.048704, Alt.=163.783325m. Speed=0.252000m/h.</desc>
<speed>0.070000</speed>
</trkpt>
<trkpt lat="55.859707" lon="26.048702">
<ele>163.783325</ele>
<time>2010-07-17T14:44:20Z</time>
<desc>lat.=55.859707, lon.=26.048702, Alt.=163.783325m. Speed=0.108000m/h.</desc>
<speed>0.030000</speed>
</trkpt>
<trkpt lat="55.859707" lon="26.048702">
<ele>163.779419</ele>
<time>2010-07-17T14:44:21Z</time>
<desc>lat.=55.859707, lon.=26.048702, Alt.=163.779419m. Speed=0.288000m/h.</desc>
<speed>0.080000</speed>
</trkpt>
<trkpt lat="55.859707" lon="26.048702">
<ele>163.779419</ele>
<time>2010-07-17T14:44:22Z</time>
<desc>lat.=55.859707, lon.=26.048702, Alt.=163.779419m. Speed=0.072000m/h.</desc>
<speed>0.020000</speed>
</trkpt>
<trkpt lat="55.859707" lon="26.048700">
<ele>163.783325</ele>
<time>2010-07-17T14:44:23Z</time>
<desc>lat.=55.859707, lon.=26.048700, Alt.=163.783325m. Speed=0.144000m/h.</desc>
<speed>0.040000</speed>
</trkpt>
<trkpt lat="55.859707" lon="26.048700">
<ele>163.783325</ele>
<time>2010-07-17T14:44:24Z</time>
<desc>lat.=55.859707, lon.=26.048700, Alt.=163.783325m. Speed=0.288000m/h.</desc>
<speed>0.080000</speed>
</trkpt>
<trkpt lat="55.859707" lon="26.048700">
<ele>163.783325</ele>
<time>2010-07-17T14:44:25Z</time>
<desc>lat.=55.859707, lon.=26.048700, Alt.=163.783325m. Speed=0.108000m/h.</desc>
<speed>0.030000</speed>
</trkpt>
<trkpt lat="55.859707" lon="26.048698">
<ele>163.779419</ele>
<time>2010-07-17T14:44:26Z</time>
<desc>lat.=55.859707, lon.=26.048698, Alt.=163.779419m. Speed=0.036000m/h.</desc>
<speed>0.010000</speed>
</trkpt>
<trkpt lat="55.859707" lon="26.048698">
<ele>163.783325</ele>
<time>2010-07-17T14:44:27Z</time>
<desc>lat.=55.859707, lon.=26.048698, Alt.=163.783325m. Speed=0.360000m/h.</desc>
<speed>0.100000</speed>
</trkpt>
<trkpt lat="55.859707" lon="26.048697">
<ele>163.779419</ele>
<time>2010-07-17T14:44:28Z</time>
<desc>lat.=55.859707, lon.=26.048697, Alt.=163.779419m. Speed=0.216000m/h.</desc>
<speed>0.060000</speed>
</trkpt>
<trkpt lat="55.859707" lon="26.048697">
<ele>163.779419</ele>
<time>2010-07-17T14:44:29Z</time>
<desc>lat.=55.859707, lon.=26.048697, Alt.=163.779419m. Speed=0.396000m/h.</desc>
<speed>0.110000</speed>
</trkpt>
<trkpt lat="55.859707" lon="26.048697">
<ele>163.783325</ele>
<time>2010-07-17T14:44:30Z</time>
<desc>lat.=55.859707, lon.=26.048697, Alt.=163.783325m. Speed=0.612000m/h.</desc>
<speed>0.170000</speed>
</trkpt>
<trkpt lat="55.859711" lon="26.048695">
<ele>163.783325</ele>
<time>2010-07-17T14:44:31Z</time>
<desc>lat.=55.859711, lon.=26.048695, Alt.=163.783325m. Speed=0.324000m/h.</desc>
<speed>0.090000</speed>
</trkpt>
<trkpt lat="55.859711" lon="26.048693">
<ele>163.783325</ele>
<time>2010-07-17T14:44:32Z</time>
<desc>lat.=55.859711, lon.=26.048693, Alt.=163.783325m. Speed=0.288000m/h.</desc>
<speed>0.080000</speed>
</trkpt>
<trkpt lat="55.859711" lon="26.048691">
<ele>163.787231</ele>
<time>2010-07-17T14:44:33Z</time>
<desc>lat.=55.859711, lon.=26.048691, Alt.=163.787231m. Speed=0.108000m/h.</desc>
<speed>0.030000</speed>
</trkpt>
<trkpt lat="55.859711" lon="26.048693">
<ele>163.791138</ele>
<time>2010-07-17T14:44:34Z</time>
<desc>lat.=55.859711, lon.=26.048693, Alt.=163.791138m. Speed=0.072000m/h.</desc>
<speed>0.020000</speed>
</trkpt>
<trkpt lat="55.859711" lon="26.048693">
<ele>163.798950</ele>
<time>2010-07-17T14:44:35Z</time>
<desc>lat.=55.859711, lon.=26.048693, Alt.=163.798950m. Speed=0.288000m/h.</desc>
<speed>0.080000</speed>
</trkpt>
<trkpt lat="55.859711" lon="26.048693">
<ele>163.802856</ele>
<time>2010-07-17T14:44:36Z</time>
<desc>lat.=55.859711, lon.=26.048693, Alt.=163.802856m. Speed=0.144000m/h.</desc>
<speed>0.040000</speed>
</trkpt>
<trkpt lat="55.859711" lon="26.048693">
<ele>163.810669</ele>
<time>2010-07-17T14:44:37Z</time>
<desc>lat.=55.859711, lon.=26.048693, Alt.=163.810669m. Speed=0.036000m/h.</desc>
<speed>0.010000</speed>
</trkpt>
<trkpt lat="55.859711" lon="26.048693">
<ele>163.814575</ele>
<time>2010-07-17T14:44:38Z</time>
<desc>lat.=55.859711, lon.=26.048693, Alt.=163.814575m. Speed=0.216000m/h.</desc>
<speed>0.060000</speed>
</trkpt>
<trkpt lat="55.859711" lon="26.048693">
<ele>163.826294</ele>
<time>2010-07-17T14:44:39Z</time>
<desc>lat.=55.859711, lon.=26.048693, Alt.=163.826294m. Speed=0.144000m/h.</desc>
<speed>0.040000</speed>
</trkpt>
<trkpt lat="55.859711" lon="26.048691">
<ele>163.830200</ele>
<time>2010-07-17T14:44:40Z</time>
<desc>lat.=55.859711, lon.=26.048691, Alt.=163.830200m. Speed=0.180000m/h.</desc>
<speed>0.050000</speed>
</trkpt>
<trkpt lat="55.859711" lon="26.048691">
<ele>163.838013</ele>
<time>2010-07-17T14:44:41Z</time>
<desc>lat.=55.859711, lon.=26.048691, Alt.=163.838013m. Speed=0.144000m/h.</desc>
<speed>0.040000</speed>
</trkpt>
<trkpt lat="55.859711" lon="26.048691">
<ele>163.845825</ele>
<time>2010-07-17T14:44:42Z</time>
<desc>lat.=55.859711, lon.=26.048691, Alt.=163.845825m. Speed=0.108000m/h.</desc>
<speed>0.030000</speed>
</trkpt>
<trkpt lat="55.859711" lon="26.048691">
<ele>163.849731</ele>
<time>2010-07-17T14:44:43Z</time>
<desc>lat.=55.859711, lon.=26.048691, Alt.=163.849731m. Speed=0.180000m/h.</desc>
<speed>0.050000</speed>
</trkpt>
<trkpt lat="55.859711" lon="26.048689">
<ele>163.853638</ele>
<time>2010-07-17T14:44:44Z</time>
<desc>lat.=55.859711, lon.=26.048689, Alt.=163.853638m. Speed=0.252000m/h.</desc>
<speed>0.070000</speed>
</trkpt>
<trkpt lat="55.859711" lon="26.048689">
<ele>163.861450</ele>
<time>2010-07-17T14:44:45Z</time>
<desc>lat.=55.859711, lon.=26.048689, Alt.=163.861450m. Speed=0.252000m/h.</desc>
<speed>0.070000</speed>
</trkpt>
<trkpt lat="55.859711" lon="26.048691">
<ele>163.865356</ele>
<time>2010-07-17T14:44:46Z</time>
<desc>lat.=55.859711, lon.=26.048691, Alt.=163.865356m. Speed=0.180000m/h.</desc>
<speed>0.050000</speed>
</trkpt>
<trkpt lat="55.859711" lon="26.048691">
<ele>163.869263</ele>
<time>2010-07-17T14:44:47Z</time>
<desc>lat.=55.859711, lon.=26.048691, Alt.=163.869263m. Speed=0.072000m/h.</desc>
<speed>0.020000</speed>
</trkpt>
<trkpt lat="55.859711" lon="26.048691">
<ele>163.880981</ele>
<time>2010-07-17T14:44:48Z</time>
<desc>lat.=55.859711, lon.=26.048691, Alt.=163.880981m. Speed=0.108000m/h.</desc>
<speed>0.030000</speed>
</trkpt>
<trkpt lat="55.859711" lon="26.048691">
<ele>163.884888</ele>
<time>2010-07-17T14:44:49Z</time>
<desc>lat.=55.859711, lon.=26.048691, Alt.=163.884888m. Speed=0.108000m/h.</desc>
<speed>0.030000</speed>
</trkpt>
<trkpt lat="55.859711" lon="26.048691">
<ele>163.884888</ele>
<time>2010-07-17T14:44:50Z</time>
<desc>lat.=55.859711, lon.=26.048691, Alt.=163.884888m. Speed=0.000000m/h.</desc>
<speed>0.000000</speed>
</trkpt>
<trkpt lat="55.859711" lon="26.048691">
<ele>163.884888</ele>
<time>2010-07-17T14:44:51Z</time>
<desc>lat.=55.859711, lon.=26.048691, Alt.=163.884888m. Speed=0.036000m/h.</desc>
<speed>0.010000</speed>
</trkpt>
<trkpt lat="55.859711" lon="26.048691">
<ele>163.877075</ele>
<time>2010-07-17T14:44:52Z</time>
<desc>lat.=55.859711, lon.=26.048691, Alt.=163.877075m. Speed=0.036000m/h.</desc>
<speed>0.010000</speed>
</trkpt>
<trkpt lat="55.859711" lon="26.048691">
<ele>163.873169</ele>
<time>2010-07-17T14:44:53Z</time>
<desc>lat.=55.859711, lon.=26.048691, Alt.=163.873169m. Speed=0.072000m/h.</desc>
<speed>0.020000</speed>
</trkpt>
<trkpt lat="55.859711" lon="26.048691">
<ele>163.873169</ele>
<time>2010-07-17T14:44:54Z</time>
<desc>lat.=55.859711, lon.=26.048691, Alt.=163.873169m. Speed=0.036000m/h.</desc>
<speed>0.010000</speed>
</trkpt>
<trkpt lat="55.859711" lon="26.048691">
<ele>163.869263</ele>
<time>2010-07-17T14:44:55Z</time>
<desc>lat.=55.859711, lon.=26.048691, Alt.=163.869263m. Speed=0.000000m/h.</desc>
<speed>0.000000</speed>
</trkpt>
<trkpt lat="55.859711" lon="26.048691">
<ele>163.873169</ele>
<time>2010-07-17T14:44:56Z</time>
<desc>lat.=55.859711, lon.=26.048691, Alt.=163.873169m. Speed=0.000000m/h.</desc>
<speed>0.000000</speed>
</trkpt>
<trkpt lat="55.859711" lon="26.048691">
<ele>163.873169</ele>
<time>2010-07-17T14:44:57Z</time>
<desc>lat.=55.859711, lon.=26.048691, Alt.=163.873169m. Speed=0.000000m/h.</desc>
<speed>0.000000</speed>
</trkpt>
<trkpt lat="55.859711" lon="26.048691">
<ele>163.873169</ele>
<time>2010-07-17T14:44:58Z</time>
<desc>lat.=55.859711, lon.=26.048691, Alt.=163.873169m. Speed=0.072000m/h.</desc>
<speed>0.020000</speed>
</trkpt>
<trkpt lat="55.859711" lon="26.048691">
<ele>163.873169</ele>
<time>2010-07-17T14:44:59Z</time>
<desc>lat.=55.859711, lon.=26.048691, Alt.=163.873169m. Speed=0.036000m/h.</desc>
<speed>0.010000</speed>
</trkpt>
<trkpt lat="55.859711" lon="26.048691">
<ele>163.877075</ele>
<time>2010-07-17T14:45:00Z</time>
<desc>lat.=55.859711, lon.=26.048691, Alt.=163.877075m. Speed=0.108000m/h.</desc>
<speed>0.030000</speed>
</trkpt>
<trkpt lat="55.859711" lon="26.048691">
<ele>163.877075</ele>
<time>2010-07-17T14:45:01Z</time>
<desc>lat.=55.859711, lon.=26.048691, Alt.=163.877075m. Speed=0.000000m/h.</desc>
<speed>0.000000</speed>
</trkpt>
<trkpt lat="55.859711" lon="26.048691">
<ele>163.884888</ele>
<time>2010-07-17T14:45:02Z</time>
<desc>lat.=55.859711, lon.=26.048691, Alt.=163.884888m. Speed=0.036000m/h.</desc>
<speed>0.010000</speed>
</trkpt>
<trkpt lat="55.859711" lon="26.048691">
<ele>163.888794</ele>
<time>2010-07-17T14:45:03Z</time>
<desc>lat.=55.859711, lon.=26.048691, Alt.=163.888794m. Speed=0.000000m/h.</desc>
<speed>0.000000</speed>
</trkpt>
<trkpt lat="55.859711" lon="26.048691">
<ele>163.888794</ele>
<time>2010-07-17T14:45:04Z</time>
<desc>lat.=55.859711, lon.=26.048691, Alt.=163.888794m. Speed=0.036000m/h.</desc>
<speed>0.010000</speed>
</trkpt>
<trkpt lat="55.859711" lon="26.048691">
<ele>163.884888</ele>
<time>2010-07-17T14:45:05Z</time>
<desc>lat.=55.859711, lon.=26.048691, Alt.=163.884888m. Speed=0.180000m/h.</desc>
<speed>0.050000</speed>
</trkpt>
<trkpt lat="55.859711" lon="26.048691">
<ele>163.888794</ele>
<time>2010-07-17T14:45:06Z</time>
<desc>lat.=55.859711, lon.=26.048691, Alt.=163.888794m. Speed=0.036000m/h.</desc>
<speed>0.010000</speed>
</trkpt>
<trkpt lat="55.859711" lon="26.048691">
<ele>163.888794</ele>
<time>2010-07-17T14:45:07Z</time>
<desc>lat.=55.859711, lon.=26.048691, Alt.=163.888794m. Speed=0.036000m/h.</desc>
<speed>0.010000</speed>
</trkpt>
<trkpt lat="55.859711" lon="26.048691">
<ele>163.888794</ele>
<time>2010-07-17T14:45:08Z</time>
<desc>lat.=55.859711, lon.=26.048691, Alt.=163.888794m. Speed=0.072000m/h.</desc>
<speed>0.020000</speed>
</trkpt>
<trkpt lat="55.859711" lon="26.048691">
<ele>163.888794</ele>
<time>2010-07-17T14:45:09Z</time>
<desc>lat.=55.859711, lon.=26.048691, Alt.=163.888794m. Speed=0.000000m/h.</desc>
<speed>0.000000</speed>
</trkpt>
<trkpt lat="55.859711" lon="26.048691">
<ele>163.892700</ele>
<time>2010-07-17T14:45:10Z</time>
<desc>lat.=55.859711, lon.=26.048691, Alt.=163.892700m. Speed=0.000000m/h.</desc>
<speed>0.000000</speed>
</trkpt>
<trkpt lat="55.859711" lon="26.048691">
<ele>163.900513</ele>
<time>2010-07-17T14:45:11Z</time>
<desc>lat.=55.859711, lon.=26.048691, Alt.=163.900513m. Speed=0.072000m/h.</desc>
<speed>0.020000</speed>
</trkpt>
<trkpt lat="55.859711" lon="26.048691">
<ele>163.900513</ele>
<time>2010-07-17T14:45:12Z</time>
<desc>lat.=55.859711, lon.=26.048691, Alt.=163.900513m. Speed=0.072000m/h.</desc>
<speed>0.020000</speed>
</trkpt>
<trkpt lat="55.859711" lon="26.048691">
<ele>163.904419</ele>
<time>2010-07-17T14:45:13Z</time>
<desc>lat.=55.859711, lon.=26.048691, Alt.=163.904419m. Speed=0.000000m/h.</desc>
<speed>0.000000</speed>
</trkpt>
<trkpt lat="55.859711" lon="26.048691">
<ele>163.916138</ele>
<time>2010-07-17T14:45:14Z</time>
<desc>lat.=55.859711, lon.=26.048691, Alt.=163.916138m. Speed=0.036000m/h.</desc>
<speed>0.010000</speed>
</trkpt>
<trkpt lat="55.859711" lon="26.048691">
<ele>163.920044</ele>
<time>2010-07-17T14:45:15Z</time>
<desc>lat.=55.859711, lon.=26.048691, Alt.=163.920044m. Speed=0.072000m/h.</desc>
<speed>0.020000</speed>
</trkpt>
<trkpt lat="55.859711" lon="26.048691">
<ele>163.927856</ele>
<time>2010-07-17T14:45:16Z</time>
<desc>lat.=55.859711, lon.=26.048691, Alt.=163.927856m. Speed=0.000000m/h.</desc>
<speed>0.000000</speed>
</trkpt>
<trkpt lat="55.859711" lon="26.048691">
<ele>163.931763</ele>
<time>2010-07-17T14:45:17Z</time>
<desc>lat.=55.859711, lon.=26.048691, Alt.=163.931763m. Speed=0.000000m/h.</desc>
<speed>0.000000</speed>
</trkpt>
<trkpt lat="55.859711" lon="26.048691">
<ele>163.931763</ele>
<time>2010-07-17T14:45:18Z</time>
<desc>lat.=55.859711, lon.=26.048691, Alt.=163.931763m. Speed=0.000000m/h.</desc>
<speed>0.000000</speed>
</trkpt>
<trkpt lat="55.859711" lon="26.048691">
<ele>163.935669</ele>
<time>2010-07-17T14:45:19Z</time>
<desc>lat.=55.859711, lon.=26.048691, Alt.=163.935669m. Speed=0.000000m/h.</desc>
<speed>0.000000</speed>
</trkpt>
<trkpt lat="55.859711" lon="26.048691">
<ele>163.931763</ele>
<time>2010-07-17T14:45:20Z</time>
<desc>lat.=55.859711, lon.=26.048691, Alt.=163.931763m. Speed=0.036000m/h.</desc>
<speed>0.010000</speed>
</trkpt>
<trkpt lat="55.859711" lon="26.048691">
<ele>163.927856</ele>
<time>2010-07-17T14:45:21Z</time>
<desc>lat.=55.859711, lon.=26.048691, Alt.=163.927856m. Speed=0.000000m/h.</desc>
<speed>0.000000</speed>
</trkpt>
<trkpt lat="55.859711" lon="26.048691">
<ele>163.923950</ele>
<time>2010-07-17T14:45:22Z</time>
<desc>lat.=55.859711, lon.=26.048691, Alt.=163.923950m. Speed=0.000000m/h.</desc>
<speed>0.000000</speed>
</trkpt>
<trkpt lat="55.859711" lon="26.048691">
<ele>163.927856</ele>
<time>2010-07-17T14:45:23Z</time>
<desc>lat.=55.859711, lon.=26.048691, Alt.=163.927856m. Speed=0.036000m/h.</desc>
<speed>0.010000</speed>
</trkpt>
<trkpt lat="55.859711" lon="26.048691">
<ele>163.927856</ele>
<time>2010-07-17T14:45:24Z</time>
<desc>lat.=55.859711, lon.=26.048691, Alt.=163.927856m. Speed=0.036000m/h.</desc>
<speed>0.010000</speed>
</trkpt>
<trkpt lat="55.859711" lon="26.048691">
<ele>163.927856</ele>
<time>2010-07-17T14:45:25Z</time>
<desc>lat.=55.859711, lon.=26.048691, Alt.=163.927856m. Speed=0.000000m/h.</desc>
<speed>0.000000</speed>
</trkpt>
<trkpt lat="55.859711" lon="26.048691">
<ele>163.935669</ele>
<time>2010-07-17T14:45:26Z</time>
<desc>lat.=55.859711, lon.=26.048691, Alt.=163.935669m. Speed=0.036000m/h.</desc>
<speed>0.010000</speed>
</trkpt>
<trkpt lat="55.859711" lon="26.048691">
<ele>163.935669</ele>
<time>2010-07-17T14:45:27Z</time>
<desc>lat.=55.859711, lon.=26.048691, Alt.=163.935669m. Speed=0.108000m/h.</desc>
<speed>0.030000</speed>
</trkpt>
<trkpt lat="55.859711" lon="26.048691">
<ele>163.935669</ele>
<time>2010-07-17T14:45:28Z</time>
<desc>lat.=55.859711, lon.=26.048691, Alt.=163.935669m. Speed=0.000000m/h.</desc>
<speed>0.000000</speed>
</trkpt>
<trkpt lat="55.859711" lon="26.048691">
<ele>163.935669</ele>
<time>2010-07-17T14:45:29Z</time>
<desc>lat.=55.859711, lon.=26.048691, Alt.=163.935669m. Speed=0.036000m/h.</desc>
<speed>0.010000</speed>
</trkpt>
<trkpt lat="55.859711" lon="26.048691">
<ele>163.939575</ele>
<time>2010-07-17T14:45:30Z</time>
<desc>lat.=55.859711, lon.=26.048691, Alt.=163.939575m. Speed=0.000000m/h.</desc>
<speed>0.000000</speed>
</trkpt>
<trkpt lat="55.859711" lon="26.048691">
<ele>163.947388</ele>
<time>2010-07-17T14:45:31Z</time>
<desc>lat.=55.859711, lon.=26.048691, Alt.=163.947388m. Speed=0.036000m/h.</desc>
<speed>0.010000</speed>
</trkpt>
<trkpt lat="55.859711" lon="26.048691">
<ele>163.951294</ele>
<time>2010-07-17T14:45:32Z</time>
<desc>lat.=55.859711, lon.=26.048691, Alt.=163.951294m. Speed=0.036000m/h.</desc>
<speed>0.010000</speed>
</trkpt>
<trkpt lat="55.859711" lon="26.048691">
<ele>163.955200</ele>
<time>2010-07-17T14:45:33Z</time>
<desc>lat.=55.859711, lon.=26.048691, Alt.=163.955200m. Speed=0.036000m/h.</desc>
<speed>0.010000</speed>
</trkpt>
<trkpt lat="55.859711" lon="26.048691">
<ele>163.955200</ele>
<time>2010-07-17T14:45:34Z</time>
<desc>lat.=55.859711, lon.=26.048691, Alt.=163.955200m. Speed=0.036000m/h.</desc>
<speed>0.010000</speed>
</trkpt>
<trkpt lat="55.859711" lon="26.048691">
<ele>163.951294</ele>
<time>2010-07-17T14:45:35Z</time>
<desc>lat.=55.859711, lon.=26.048691, Alt.=163.951294m. Speed=0.036000m/h.</desc>
<speed>0.010000</speed>
</trkpt>
<trkpt lat="55.859711" lon="26.048691">
<ele>163.947388</ele>
<time>2010-07-17T14:45:36Z</time>
<desc>lat.=55.859711, lon.=26.048691, Alt.=163.947388m. Speed=0.180000m/h.</desc>
<speed>0.050000</speed>
</trkpt>
<trkpt lat="55.859711" lon="26.048691">
<ele>163.951294</ele>
<time>2010-07-17T14:45:37Z</time>
<desc>lat.=55.859711, lon.=26.048691, Alt.=163.951294m. Speed=0.072000m/h.</desc>
<speed>0.020000</speed>
</trkpt>
<trkpt lat="55.859711" lon="26.048691">
<ele>163.955200</ele>
<time>2010-07-17T14:45:38Z</time>
<desc>lat.=55.859711, lon.=26.048691, Alt.=163.955200m. Speed=0.036000m/h.</desc>
<speed>0.010000</speed>
</trkpt>
<trkpt lat="55.859711" lon="26.048691">
<ele>163.959106</ele>
<time>2010-07-17T14:45:39Z</time>
<desc>lat.=55.859711, lon.=26.048691, Alt.=163.959106m. Speed=0.072000m/h.</desc>
<speed>0.020000</speed>
</trkpt>
<trkpt lat="55.859711" lon="26.048691">
<ele>163.963013</ele>
<time>2010-07-17T14:45:40Z</time>
<desc>lat.=55.859711, lon.=26.048691, Alt.=163.963013m. Speed=0.036000m/h.</desc>
<speed>0.010000</speed>
</trkpt>
<trkpt lat="55.859711" lon="26.048691">
<ele>163.970825</ele>
<time>2010-07-17T14:45:41Z</time>
<desc>lat.=55.859711, lon.=26.048691, Alt.=163.970825m. Speed=0.180000m/h.</desc>
<speed>0.050000</speed>
</trkpt>
<trkpt lat="55.859711" lon="26.048691">
<ele>163.970825</ele>
<time>2010-07-17T14:45:42Z</time>
<desc>lat.=55.859711, lon.=26.048691, Alt.=163.970825m. Speed=0.036000m/h.</desc>
<speed>0.010000</speed>
</trkpt>
<trkpt lat="55.859711" lon="26.048691">
<ele>163.970825</ele>
<time>2010-07-17T14:45:43Z</time>
<desc>lat.=55.859711, lon.=26.048691, Alt.=163.970825m. Speed=0.036000m/h.</desc>
<speed>0.010000</speed>
</trkpt>
<trkpt lat="55.859711" lon="26.048691">
<ele>163.963013</ele>
<time>2010-07-17T14:45:44Z</time>
<desc>lat.=55.859711, lon.=26.048691, Alt.=163.963013m. Speed=0.072000m/h.</desc>
<speed>0.020000</speed>
</trkpt>
<trkpt lat="55.859711" lon="26.048691">
<ele>163.963013</ele>
<time>2010-07-17T14:45:45Z</time>
<desc>lat.=55.859711, lon.=26.048691, Alt.=163.963013m. Speed=0.072000m/h.</desc>
<speed>0.020000</speed>
</trkpt>
<trkpt lat="55.859711" lon="26.048693">
<ele>163.963013</ele>
<time>2010-07-17T14:45:46Z</time>
<desc>lat.=55.859711, lon.=26.048693, Alt.=163.963013m. Speed=0.000000m/h.</desc>
<speed>0.000000</speed>
</trkpt>
<trkpt lat="55.859711" lon="26.048693">
<ele>163.970825</ele>
<time>2010-07-17T14:45:47Z</time>
<desc>lat.=55.859711, lon.=26.048693, Alt.=163.970825m. Speed=0.108000m/h.</desc>
<speed>0.030000</speed>
</trkpt>
<trkpt lat="55.859711" lon="26.048693">
<ele>163.966919</ele>
<time>2010-07-17T14:45:48Z</time>
<desc>lat.=55.859711, lon.=26.048693, Alt.=163.966919m. Speed=0.000000m/h.</desc>
<speed>0.000000</speed>
</trkpt>
<trkpt lat="55.859711" lon="26.048693">
<ele>163.966919</ele>
<time>2010-07-17T14:45:49Z</time>
<desc>lat.=55.859711, lon.=26.048693, Alt.=163.966919m. Speed=0.000000m/h.</desc>
<speed>0.000000</speed>
</trkpt>
<trkpt lat="55.859711" lon="26.048693">
<ele>163.970825</ele>
<time>2010-07-17T14:45:50Z</time>
<desc>lat.=55.859711, lon.=26.048693, Alt.=163.970825m. Speed=0.072000m/h.</desc>
<speed>0.020000</speed>
</trkpt>
<trkpt lat="55.859711" lon="26.048693">
<ele>163.978638</ele>
<time>2010-07-17T14:45:51Z</time>
<desc>lat.=55.859711, lon.=26.048693, Alt.=163.978638m. Speed=0.036000m/h.</desc>
<speed>0.010000</speed>
</trkpt>
<trkpt lat="55.859711" lon="26.048693">
<ele>163.986450</ele>
<time>2010-07-17T14:45:52Z</time>
<desc>lat.=55.859711, lon.=26.048693, Alt.=163.986450m. Speed=0.108000m/h.</desc>
<speed>0.030000</speed>
</trkpt>
<trkpt lat="55.859711" lon="26.048693">
<ele>163.994263</ele>
<time>2010-07-17T14:45:53Z</time>
<desc>lat.=55.859711, lon.=26.048693, Alt.=163.994263m. Speed=0.036000m/h.</desc>
<speed>0.010000</speed>
</trkpt>
<trkpt lat="55.859711" lon="26.048693">
<ele>163.994263</ele>
<time>2010-07-17T14:45:54Z</time>
<desc>lat.=55.859711, lon.=26.048693, Alt.=163.994263m. Speed=0.396000m/h.</desc>
<speed>0.110000</speed>
</trkpt>
<trkpt lat="55.859711" lon="26.048693">
<ele>163.990356</ele>
<time>2010-07-17T14:45:55Z</time>
<desc>lat.=55.859711, lon.=26.048693, Alt.=163.990356m. Speed=0.144000m/h.</desc>
<speed>0.040000</speed>
</trkpt>
<trkpt lat="55.859711" lon="26.048693">
<ele>163.990356</ele>
<time>2010-07-17T14:45:56Z</time>
<desc>lat.=55.859711, lon.=26.048693, Alt.=163.990356m. Speed=0.000000m/h.</desc>
<speed>0.000000</speed>
</trkpt>
<trkpt lat="55.859711" lon="26.048693">
<ele>163.982544</ele>
<time>2010-07-17T14:45:57Z</time>
<desc>lat.=55.859711, lon.=26.048693, Alt.=163.982544m. Speed=0.144000m/h.</desc>
<speed>0.040000</speed>
</trkpt>
<trkpt lat="55.859711" lon="26.048693">
<ele>163.978638</ele>
<time>2010-07-17T14:45:58Z</time>
<desc>lat.=55.859711, lon.=26.048693, Alt.=163.978638m. Speed=0.360000m/h.</desc>
<speed>0.100000</speed>
</trkpt>
<trkpt lat="55.859711" lon="26.048693">
<ele>163.978638</ele>
<time>2010-07-17T14:45:59Z</time>
<desc>lat.=55.859711, lon.=26.048693, Alt.=163.978638m. Speed=0.396000m/h.</desc>
<speed>0.110000</speed>
</trkpt>
<trkpt lat="55.859711" lon="26.048695">
<ele>163.974731</ele>
<time>2010-07-17T14:46:00Z</time>
<desc>lat.=55.859711, lon.=26.048695, Alt.=163.974731m. Speed=6.876000m/h.</desc>
<speed>1.910000</speed>
</trkpt>
<trkpt lat="55.859730" lon="26.048697">
<ele>163.525513</ele>
<time>2010-07-17T14:46:01Z</time>
<desc>lat.=55.859730, lon.=26.048697, Alt.=163.525513m. Speed=8.892000m/h.</desc>
<speed>2.470000</speed>
</trkpt>
<trkpt lat="55.859756" lon="26.048697">
<ele>163.005981</ele>
<time>2010-07-17T14:46:02Z</time>
<desc>lat.=55.859756, lon.=26.048697, Alt.=163.005981m. Speed=9.468000m/h.</desc>
<speed>2.630000</speed>
</trkpt>
<trkpt lat="55.859783" lon="26.048698">
<ele>163.072388</ele>
<time>2010-07-17T14:46:03Z</time>
<desc>lat.=55.859783, lon.=26.048698, Alt.=163.072388m. Speed=10.908000m/h.</desc>
<speed>3.030000</speed>
</trkpt>
<trkpt lat="55.859814" lon="26.048708">
<ele>162.857544</ele>
<time>2010-07-17T14:46:04Z</time>
<desc>lat.=55.859814, lon.=26.048708, Alt.=162.857544m. Speed=12.600000m/h.</desc>
<speed>3.500000</speed>
</trkpt>
<trkpt lat="55.859848" lon="26.048719">
<ele>162.603638</ele>
<time>2010-07-17T14:46:05Z</time>
<desc>lat.=55.859848, lon.=26.048719, Alt.=162.603638m. Speed=13.788000m/h.</desc>
<speed>3.830000</speed>
</trkpt>
<trkpt lat="55.859886" lon="26.048725">
<ele>161.603638</ele>
<time>2010-07-17T14:46:06Z</time>
<desc>lat.=55.859886, lon.=26.048725, Alt.=161.603638m. Speed=15.048000m/h.</desc>
<speed>4.180000</speed>
</trkpt>
<trkpt lat="55.859924" lon="26.048729">
<ele>161.033325</ele>
<time>2010-07-17T14:46:07Z</time>
<desc>lat.=55.859924, lon.=26.048729, Alt.=161.033325m. Speed=16.848000m/h.</desc>
<speed>4.680000</speed>
</trkpt>
<trkpt lat="55.859970" lon="26.048738">
<ele>160.537231</ele>
<time>2010-07-17T14:46:08Z</time>
<desc>lat.=55.859970, lon.=26.048738, Alt.=160.537231m. Speed=18.252001m/h.</desc>
<speed>5.070000</speed>
</trkpt>
<trkpt lat="55.860016" lon="26.048748">
<ele>160.287231</ele>
<time>2010-07-17T14:46:09Z</time>
<desc>lat.=55.860016, lon.=26.048748, Alt.=160.287231m. Speed=19.044001m/h.</desc>
<speed>5.290000</speed>
</trkpt>
<trkpt lat="55.860065" lon="26.048765">
<ele>160.548950</ele>
<time>2010-07-17T14:46:10Z</time>
<desc>lat.=55.860065, lon.=26.048765, Alt.=160.548950m. Speed=20.736000m/h.</desc>
<speed>5.760000</speed>
</trkpt>
<trkpt lat="55.860119" lon="26.048782">
<ele>160.295044</ele>
<time>2010-07-17T14:46:11Z</time>
<desc>lat.=55.860119, lon.=26.048782, Alt.=160.295044m. Speed=21.240000m/h.</desc>
<speed>5.900000</speed>
</trkpt>
<trkpt lat="55.860176" lon="26.048798">
<ele>160.017700</ele>
<time>2010-07-17T14:46:12Z</time>
<desc>lat.=55.860176, lon.=26.048798, Alt.=160.017700m. Speed=21.167999m/h.</desc>
<speed>5.880000</speed>
</trkpt>
<trkpt lat="55.860226" lon="26.048815">
<ele>159.560669</ele>
<time>2010-07-17T14:46:13Z</time>
<desc>lat.=55.860226, lon.=26.048815, Alt.=159.560669m. Speed=20.736000m/h.</desc>
<speed>5.760000</speed>
</trkpt>
<trkpt lat="55.860275" lon="26.048826">
<ele>159.318481</ele>
<time>2010-07-17T14:46:14Z</time>
<desc>lat.=55.860275, lon.=26.048826, Alt.=159.318481m. Speed=19.799999m/h.</desc>
<speed>5.500000</speed>
</trkpt>
<trkpt lat="55.860325" lon="26.048841">
<ele>159.248169</ele>
<time>2010-07-17T14:46:15Z</time>
<desc>lat.=55.860325, lon.=26.048841, Alt.=159.248169m. Speed=17.784000m/h.</desc>
<speed>4.940000</speed>
</trkpt>
<trkpt lat="55.860374" lon="26.048862">
<ele>160.318481</ele>
<time>2010-07-17T14:46:16Z</time>
<desc>lat.=55.860374, lon.=26.048862, Alt.=160.318481m. Speed=16.992001m/h.</desc>
<speed>4.720000</speed>
</trkpt>
<trkpt lat="55.860416" lon="26.048880">
<ele>160.216919</ele>
<time>2010-07-17T14:46:17Z</time>
<desc>lat.=55.860416, lon.=26.048880, Alt.=160.216919m. Speed=16.812000m/h.</desc>
<speed>4.670000</speed>
</trkpt>
<trkpt lat="55.860462" lon="26.048889">
<ele>160.451294</ele>
<time>2010-07-17T14:46:18Z</time>
<desc>lat.=55.860462, lon.=26.048889, Alt.=160.451294m. Speed=16.488001m/h.</desc>
<speed>4.580000</speed>
</trkpt>
<trkpt lat="55.860504" lon="26.048897">
<ele>160.318481</ele>
<time>2010-07-17T14:46:19Z</time>
<desc>lat.=55.860504, lon.=26.048897, Alt.=160.318481m. Speed=16.344000m/h.</desc>
<speed>4.540000</speed>
</trkpt>
<trkpt lat="55.860546" lon="26.048904">
<ele>160.271606</ele>
<time>2010-07-17T14:46:20Z</time>
<desc>lat.=55.860546, lon.=26.048904, Alt.=160.271606m. Speed=16.920000m/h.</desc>
<speed>4.700000</speed>
</trkpt>
<trkpt lat="55.860588" lon="26.048910">
<ele>160.509888</ele>
<time>2010-07-17T14:46:21Z</time>
<desc>lat.=55.860588, lon.=26.048910, Alt.=160.509888m. Speed=17.243999m/h.</desc>
<speed>4.790000</speed>
</trkpt>
<trkpt lat="55.860634" lon="26.048918">
<ele>160.642700</ele>
<time>2010-07-17T14:46:22Z</time>
<desc>lat.=55.860634, lon.=26.048918, Alt.=160.642700m. Speed=17.856001m/h.</desc>
<speed>4.960000</speed>
</trkpt>
<trkpt lat="55.860680" lon="26.048929">
<ele>160.115356</ele>
<time>2010-07-17T14:46:23Z</time>
<desc>lat.=55.860680, lon.=26.048929, Alt.=160.115356m. Speed=17.927999m/h.</desc>
<speed>4.980000</speed>
</trkpt>
<trkpt lat="55.860722" lon="26.048937">
<ele>160.037231</ele>
<time>2010-07-17T14:46:24Z</time>
<desc>lat.=55.860722, lon.=26.048937, Alt.=160.037231m. Speed=18.323999m/h.</desc>
<speed>5.090000</speed>
</trkpt>
<trkpt lat="55.860767" lon="26.048948">
<ele>160.287231</ele>
<time>2010-07-17T14:46:25Z</time>
<desc>lat.=55.860767, lon.=26.048948, Alt.=160.287231m. Speed=17.639999m/h.</desc>
<speed>4.900000</speed>
</trkpt>
<trkpt lat="55.860813" lon="26.048956">
<ele>160.486450</ele>
<time>2010-07-17T14:46:26Z</time>
<desc>lat.=55.860813, lon.=26.048956, Alt.=160.486450m. Speed=16.056000m/h.</desc>
<speed>4.460000</speed>
</trkpt>
<trkpt lat="55.860855" lon="26.048960">
<ele>160.185669</ele>
<time>2010-07-17T14:46:27Z</time>
<desc>lat.=55.860855, lon.=26.048960, Alt.=160.185669m. Speed=18.035999m/h.</desc>
<speed>5.010000</speed>
</trkpt>
<trkpt lat="55.860901" lon="26.048964">
<ele>160.377075</ele>
<time>2010-07-17T14:46:28Z</time>
<desc>lat.=55.860901, lon.=26.048964, Alt.=160.377075m. Speed=17.784000m/h.</desc>
<speed>4.940000</speed>
</trkpt>
<trkpt lat="55.860943" lon="26.048964">
<ele>160.412231</ele>
<time>2010-07-17T14:46:29Z</time>
<desc>lat.=55.860943, lon.=26.048964, Alt.=160.412231m. Speed=18.792000m/h.</desc>
<speed>5.220000</speed>
</trkpt>
<trkpt lat="55.860989" lon="26.048973">
<ele>160.193481</ele>
<time>2010-07-17T14:46:30Z</time>
<desc>lat.=55.860989, lon.=26.048973, Alt.=160.193481m. Speed=19.080000m/h.</desc>
<speed>5.300000</speed>
</trkpt>
<trkpt lat="55.861038" lon="26.048977">
<ele>160.181763</ele>
<time>2010-07-17T14:46:31Z</time>
<desc>lat.=55.861038, lon.=26.048977, Alt.=160.181763m. Speed=19.403999m/h.</desc>
<speed>5.390000</speed>
</trkpt>
<trkpt lat="55.861088" lon="26.048975">
<ele>159.818481</ele>
<time>2010-07-17T14:46:32Z</time>
<desc>lat.=55.861088, lon.=26.048975, Alt.=159.818481m. Speed=19.440001m/h.</desc>
<speed>5.400000</speed>
</trkpt>
<trkpt lat="55.861134" lon="26.048971">
<ele>159.267700</ele>
<time>2010-07-17T14:46:33Z</time>
<desc>lat.=55.861134, lon.=26.048971, Alt.=159.267700m. Speed=18.216000m/h.</desc>
<speed>5.060000</speed>
</trkpt>
<trkpt lat="55.861176" lon="26.048965">
<ele>158.771606</ele>
<time>2010-07-17T14:46:34Z</time>
<desc>lat.=55.861176, lon.=26.048965, Alt.=158.771606m. Speed=17.712000m/h.</desc>
<speed>4.920000</speed>
</trkpt>
<trkpt lat="55.861225" lon="26.048964">
<ele>159.005981</ele>
<time>2010-07-17T14:46:35Z</time>
<desc>lat.=55.861225, lon.=26.048964, Alt.=159.005981m. Speed=18.035999m/h.</desc>
<speed>5.010000</speed>
</trkpt>
<trkpt lat="55.861267" lon="26.048948">
<ele>159.197388</ele>
<time>2010-07-17T14:46:36Z</time>
<desc>lat.=55.861267, lon.=26.048948, Alt.=159.197388m. Speed=17.172001m/h.</desc>
<speed>4.770000</speed>
</trkpt>
<trkpt lat="55.861309" lon="26.048927">
<ele>159.134888</ele>
<time>2010-07-17T14:46:37Z</time>
<desc>lat.=55.861309, lon.=26.048927, Alt.=159.134888m. Speed=17.784000m/h.</desc>
<speed>4.940000</speed>
</trkpt>
<trkpt lat="55.861351" lon="26.048910">
<ele>159.673950</ele>
<time>2010-07-17T14:46:38Z</time>
<desc>lat.=55.861351, lon.=26.048910, Alt.=159.673950m. Speed=17.747999m/h.</desc>
<speed>4.930000</speed>
</trkpt>
<trkpt lat="55.861397" lon="26.048893">
<ele>159.552856</ele>
<time>2010-07-17T14:46:39Z</time>
<desc>lat.=55.861397, lon.=26.048893, Alt.=159.552856m. Speed=16.379999m/h.</desc>
<speed>4.550000</speed>
</trkpt>
<trkpt lat="55.861443" lon="26.048872">
<ele>160.037231</ele>
<time>2010-07-17T14:46:40Z</time>
<desc>lat.=55.861443, lon.=26.048872, Alt.=160.037231m. Speed=16.848000m/h.</desc>
<speed>4.680000</speed>
</trkpt>
<trkpt lat="55.861485" lon="26.048847">
<ele>160.443481</ele>
<time>2010-07-17T14:46:41Z</time>
<desc>lat.=55.861485, lon.=26.048847, Alt.=160.443481m. Speed=16.344000m/h.</desc>
<speed>4.540000</speed>
</trkpt>
<trkpt lat="55.861523" lon="26.048822">
<ele>160.427856</ele>
<time>2010-07-17T14:46:42Z</time>
<desc>lat.=55.861523, lon.=26.048822, Alt.=160.427856m. Speed=16.452000m/h.</desc>
<speed>4.570000</speed>
</trkpt>
<trkpt lat="55.861565" lon="26.048803">
<ele>159.568481</ele>
<time>2010-07-17T14:46:43Z</time>
<desc>lat.=55.861565, lon.=26.048803, Alt.=159.568481m. Speed=17.351999m/h.</desc>
<speed>4.820000</speed>
</trkpt>
<trkpt lat="55.861607" lon="26.048777">
<ele>159.154419</ele>
<time>2010-07-17T14:46:44Z</time>
<desc>lat.=55.861607, lon.=26.048777, Alt.=159.154419m. Speed=17.100000m/h.</desc>
<speed>4.750000</speed>
</trkpt>
<trkpt lat="55.861645" lon="26.048738">
<ele>159.470825</ele>
<time>2010-07-17T14:46:45Z</time>
<desc>lat.=55.861645, lon.=26.048738, Alt.=159.470825m. Speed=17.172001m/h.</desc>
<speed>4.770000</speed>
</trkpt>
<trkpt lat="55.861683" lon="26.048702">
<ele>159.713013</ele>
<time>2010-07-17T14:46:46Z</time>
<desc>lat.=55.861683, lon.=26.048702, Alt.=159.713013m. Speed=17.243999m/h.</desc>
<speed>4.790000</speed>
</trkpt>
<trkpt lat="55.861721" lon="26.048670">
<ele>159.611450</ele>
<time>2010-07-17T14:46:47Z</time>
<desc>lat.=55.861721, lon.=26.048670, Alt.=159.611450m. Speed=16.740000m/h.</desc>
<speed>4.650000</speed>
</trkpt>
<trkpt lat="55.861763" lon="26.048635">
<ele>160.451294</ele>
<time>2010-07-17T14:46:48Z</time>
<desc>lat.=55.861763, lon.=26.048635, Alt.=160.451294m. Speed=15.696000m/h.</desc>
<speed>4.360000</speed>
</trkpt>
<trkpt lat="55.861797" lon="26.048601">
<ele>159.783325</ele>
<time>2010-07-17T14:46:49Z</time>
<desc>lat.=55.861797, lon.=26.048601, Alt.=159.783325m. Speed=17.243999m/h.</desc>
<speed>4.790000</speed>
</trkpt>
<trkpt lat="55.861839" lon="26.048567">
<ele>159.146606</ele>
<time>2010-07-17T14:46:50Z</time>
<desc>lat.=55.861839, lon.=26.048567, Alt.=159.146606m. Speed=18.396000m/h.</desc>
<speed>5.110000</speed>
</trkpt>
<trkpt lat="55.861885" lon="26.048529">
<ele>158.713013</ele>
<time>2010-07-17T14:46:51Z</time>
<desc>lat.=55.861885, lon.=26.048529, Alt.=158.713013m. Speed=18.648001m/h.</desc>
<speed>5.180000</speed>
</trkpt>
<trkpt lat="55.861923" lon="26.048492">
<ele>159.021606</ele>
<time>2010-07-17T14:46:52Z</time>
<desc>lat.=55.861923, lon.=26.048492, Alt.=159.021606m. Speed=17.136000m/h.</desc>
<speed>4.760000</speed>
</trkpt>
<trkpt lat="55.861958" lon="26.048458">
<ele>158.509888</ele>
<time>2010-07-17T14:46:53Z</time>
<desc>lat.=55.861958, lon.=26.048458, Alt.=158.509888m. Speed=16.920000m/h.</desc>
<speed>4.700000</speed>
</trkpt>
<trkpt lat="55.861996" lon="26.048418">
<ele>159.173950</ele>
<time>2010-07-17T14:46:54Z</time>
<desc>lat.=55.861996, lon.=26.048418, Alt.=159.173950m. Speed=17.172001m/h.</desc>
<speed>4.770000</speed>
</trkpt>
<trkpt lat="55.862038" lon="26.048380">
<ele>159.619263</ele>
<time>2010-07-17T14:46:55Z</time>
<desc>lat.=55.862038, lon.=26.048380, Alt.=159.619263m. Speed=17.424000m/h.</desc>
<speed>4.840000</speed>
</trkpt>
<trkpt lat="55.862076" lon="26.048336">
<ele>160.670044</ele>
<time>2010-07-17T14:46:56Z</time>
<desc>lat.=55.862076, lon.=26.048336, Alt.=160.670044m. Speed=16.452000m/h.</desc>
<speed>4.570000</speed>
</trkpt>
<trkpt lat="55.862114" lon="26.048300">
<ele>160.607544</ele>
<time>2010-07-17T14:46:57Z</time>
<desc>lat.=55.862114, lon.=26.048300, Alt.=160.607544m. Speed=17.100000m/h.</desc>
<speed>4.750000</speed>
</trkpt>
<trkpt lat="55.862148" lon="26.048262">
<ele>160.685669</ele>
<time>2010-07-17T14:46:58Z</time>
<desc>lat.=55.862148, lon.=26.048262, Alt.=160.685669m. Speed=17.496000m/h.</desc>
<speed>4.860000</speed>
</trkpt>
<trkpt lat="55.862183" lon="26.048214">
<ele>159.896606</ele>
<time>2010-07-17T14:46:59Z</time>
<desc>lat.=55.862183, lon.=26.048214, Alt.=159.896606m. Speed=16.992001m/h.</desc>
<speed>4.720000</speed>
</trkpt>
<trkpt lat="55.862217" lon="26.048168">
<ele>160.041138</ele>
<time>2010-07-17T14:47:00Z</time>
<desc>lat.=55.862217, lon.=26.048168, Alt.=160.041138m. Speed=16.416000m/h.</desc>
<speed>4.560000</speed>
</trkpt>
<trkpt lat="55.862247" lon="26.048130">
<ele>159.810669</ele>
<time>2010-07-17T14:47:01Z</time>
<desc>lat.=55.862247, lon.=26.048130, Alt.=159.810669m. Speed=15.840000m/h.</desc>
<speed>4.400000</speed>
</trkpt>
<trkpt lat="55.862278" lon="26.048086">
<ele>160.166138</ele>
<time>2010-07-17T14:47:02Z</time>
<desc>lat.=55.862278, lon.=26.048086, Alt.=160.166138m. Speed=15.840000m/h.</desc>
<speed>4.400000</speed>
</trkpt>
<trkpt lat="55.862309" lon="26.048040">
<ele>160.884888</ele>
<time>2010-07-17T14:47:03Z</time>
<desc>lat.=55.862309, lon.=26.048040, Alt.=160.884888m. Speed=15.624000m/h.</desc>
<speed>4.340000</speed>
</trkpt>
<trkpt lat="55.862335" lon="26.048004">
<ele>161.127075</ele>
<time>2010-07-17T14:47:04Z</time>
<desc>lat.=55.862335, lon.=26.048004, Alt.=161.127075m. Speed=13.716000m/h.</desc>
<speed>3.810000</speed>
</trkpt>
<trkpt lat="55.862354" lon="26.047968">
<ele>161.060669</ele>
<time>2010-07-17T14:47:05Z</time>
<desc>lat.=55.862354, lon.=26.047968, Alt.=161.060669m. Speed=12.708000m/h.</desc>
<speed>3.530000</speed>
</trkpt>
<trkpt lat="55.862377" lon="26.047928">
<ele>161.537231</ele>
<time>2010-07-17T14:47:06Z</time>
<desc>lat.=55.862377, lon.=26.047928, Alt.=161.537231m. Speed=11.376000m/h.</desc>
<speed>3.160000</speed>
</trkpt>
<trkpt lat="55.862396" lon="26.047897">
<ele>162.181763</ele>
<time>2010-07-17T14:47:07Z</time>
<desc>lat.=55.862396, lon.=26.047897, Alt.=162.181763m. Speed=10.404000m/h.</desc>
<speed>2.890000</speed>
</trkpt>
<trkpt lat="55.862419" lon="26.047869">
<ele>162.673950</ele>
<time>2010-07-17T14:47:08Z</time>
<desc>lat.=55.862419, lon.=26.047869, Alt.=162.673950m. Speed=8.892000m/h.</desc>
<speed>2.470000</speed>
</trkpt>
<trkpt lat="55.862438" lon="26.047838">
<ele>162.998169</ele>
<time>2010-07-17T14:47:09Z</time>
<desc>lat.=55.862438, lon.=26.047838, Alt.=162.998169m. Speed=9.720000m/h.</desc>
<speed>2.700000</speed>
</trkpt>
<trkpt lat="55.862461" lon="26.047817">
<ele>163.177856</ele>
<time>2010-07-17T14:47:10Z</time>
<desc>lat.=55.862461, lon.=26.047817, Alt.=163.177856m. Speed=10.440000m/h.</desc>
<speed>2.900000</speed>
</trkpt>
<trkpt lat="55.862476" lon="26.047800">
<ele>162.763794</ele>
<time>2010-07-17T14:47:11Z</time>
<desc>lat.=55.862476, lon.=26.047800, Alt.=162.763794m. Speed=9.288000m/h.</desc>
<speed>2.580000</speed>
</trkpt>
<trkpt lat="55.862503" lon="26.047777">
<ele>163.025513</ele>
<time>2010-07-17T14:47:12Z</time>
<desc>lat.=55.862503, lon.=26.047777, Alt.=163.025513m. Speed=10.476000m/h.</desc>
<speed>2.910000</speed>
</trkpt>
<trkpt lat="55.862530" lon="26.047752">
<ele>163.384888</ele>
<time>2010-07-17T14:47:13Z</time>
<desc>lat.=55.862530, lon.=26.047752, Alt.=163.384888m. Speed=11.016000m/h.</desc>
<speed>3.060000</speed>
</trkpt>
<trkpt lat="55.862553" lon="26.047733">
<ele>163.634888</ele>
<time>2010-07-17T14:47:14Z</time>
<desc>lat.=55.862553, lon.=26.047733, Alt.=163.634888m. Speed=9.252000m/h.</desc>
<speed>2.570000</speed>
</trkpt>
<trkpt lat="55.862576" lon="26.047712">
<ele>164.146606</ele>
<time>2010-07-17T14:47:15Z</time>
<desc>lat.=55.862576, lon.=26.047712, Alt.=164.146606m. Speed=9.108000m/h.</desc>
<speed>2.530000</speed>
</trkpt>
<trkpt lat="55.862591" lon="26.047686">
<ele>164.365356</ele>
<time>2010-07-17T14:47:16Z</time>
<desc>lat.=55.862591, lon.=26.047686, Alt.=164.365356m. Speed=8.316000m/h.</desc>
<speed>2.310000</speed>
</trkpt>
<trkpt lat="55.862606" lon="26.047667">
<ele>164.802856</ele>
<time>2010-07-17T14:47:17Z</time>
<desc>lat.=55.862606, lon.=26.047667, Alt.=164.802856m. Speed=7.416000m/h.</desc>
<speed>2.060000</speed>
</trkpt>
<trkpt lat="55.862625" lon="26.047644">
<ele>165.326294</ele>
<time>2010-07-17T14:47:18Z</time>
<desc>lat.=55.862625, lon.=26.047644, Alt.=165.326294m. Speed=8.676000m/h.</desc>
<speed>2.410000</speed>
</trkpt>
<trkpt lat="55.862644" lon="26.047617">
<ele>165.486450</ele>
<time>2010-07-17T14:47:19Z</time>
<desc>lat.=55.862644, lon.=26.047617, Alt.=165.486450m. Speed=8.784000m/h.</desc>
<speed>2.440000</speed>
</trkpt>
<trkpt lat="55.862663" lon="26.047598">
<ele>165.654419</ele>
<time>2010-07-17T14:47:20Z</time>
<desc>lat.=55.862663, lon.=26.047598, Alt.=165.654419m. Speed=8.820000m/h.</desc>
<speed>2.450000</speed>
</trkpt>
<trkpt lat="55.862682" lon="26.047579">
<ele>165.920044</ele>
<time>2010-07-17T14:47:21Z</time>
<desc>lat.=55.862682, lon.=26.047579, Alt.=165.920044m. Speed=8.352000m/h.</desc>
<speed>2.320000</speed>
</trkpt>
<trkpt lat="55.862705" lon="26.047558">
<ele>166.654419</ele>
<time>2010-07-17T14:47:22Z</time>
<desc>lat.=55.862705, lon.=26.047558, Alt.=166.654419m. Speed=8.820000m/h.</desc>
<speed>2.450000</speed>
</trkpt>
<trkpt lat="55.862724" lon="26.047531">
<ele>166.646606</ele>
<time>2010-07-17T14:47:23Z</time>
<desc>lat.=55.862724, lon.=26.047531, Alt.=166.646606m. Speed=8.892000m/h.</desc>
<speed>2.470000</speed>
</trkpt>
<trkpt lat="55.862743" lon="26.047499">
<ele>166.248169</ele>
<time>2010-07-17T14:47:24Z</time>
<desc>lat.=55.862743, lon.=26.047499, Alt.=166.248169m. Speed=9.288000m/h.</desc>
<speed>2.580000</speed>
</trkpt>
<trkpt lat="55.862766" lon="26.047466">
<ele>166.439575</ele>
<time>2010-07-17T14:47:25Z</time>
<desc>lat.=55.862766, lon.=26.047466, Alt.=166.439575m. Speed=9.216000m/h.</desc>
<speed>2.560000</speed>
</trkpt>
<trkpt lat="55.862793" lon="26.047457">
<ele>166.322388</ele>
<time>2010-07-17T14:47:26Z</time>
<desc>lat.=55.862793, lon.=26.047457, Alt.=166.322388m. Speed=8.532000m/h.</desc>
<speed>2.370000</speed>
</trkpt>
<trkpt lat="55.862812" lon="26.047447">
<ele>166.826294</ele>
<time>2010-07-17T14:47:27Z</time>
<desc>lat.=55.862812, lon.=26.047447, Alt.=166.826294m. Speed=7.200000m/h.</desc>
<speed>2.000000</speed>
</trkpt>
<trkpt lat="55.862827" lon="26.047424">
<ele>167.197388</ele>
<time>2010-07-17T14:47:28Z</time>
<desc>lat.=55.862827, lon.=26.047424, Alt.=167.197388m. Speed=7.704000m/h.</desc>
<speed>2.140000</speed>
</trkpt>
<trkpt lat="55.862839" lon="26.047403">
<ele>167.529419</ele>
<time>2010-07-17T14:47:29Z</time>
<desc>lat.=55.862839, lon.=26.047403, Alt.=167.529419m. Speed=7.056000m/h.</desc>
<speed>1.960000</speed>
</trkpt>
<trkpt lat="55.862858" lon="26.047379">
<ele>167.670044</ele>
<time>2010-07-17T14:47:30Z</time>
<desc>lat.=55.862858, lon.=26.047379, Alt.=167.670044m. Speed=8.172000m/h.</desc>
<speed>2.270000</speed>
</trkpt>
<trkpt lat="55.862877" lon="26.047359">
<ele>167.884888</ele>
<time>2010-07-17T14:47:31Z</time>
<desc>lat.=55.862877, lon.=26.047359, Alt.=167.884888m. Speed=7.344000m/h.</desc>
<speed>2.040000</speed>
</trkpt>
<trkpt lat="55.862888" lon="26.047340">
<ele>168.287231</ele>
<time>2010-07-17T14:47:32Z</time>
<desc>lat.=55.862888, lon.=26.047340, Alt.=168.287231m. Speed=7.092000m/h.</desc>
<speed>1.970000</speed>
</trkpt>
<trkpt lat="55.862907" lon="26.047318">
<ele>168.427856</ele>
<time>2010-07-17T14:47:33Z</time>
<desc>lat.=55.862907, lon.=26.047318, Alt.=168.427856m. Speed=8.100000m/h.</desc>
<speed>2.250000</speed>
</trkpt>
<trkpt lat="55.862923" lon="26.047298">
<ele>168.693481</ele>
<time>2010-07-17T14:47:34Z</time>
<desc>lat.=55.862923, lon.=26.047298, Alt.=168.693481m. Speed=8.892000m/h.</desc>
<speed>2.470000</speed>
</trkpt>
<trkpt lat="55.862946" lon="26.047279">
<ele>168.638794</ele>
<time>2010-07-17T14:47:35Z</time>
<desc>lat.=55.862946, lon.=26.047279, Alt.=168.638794m. Speed=9.576000m/h.</desc>
<speed>2.660000</speed>
</trkpt>
<trkpt lat="55.862972" lon="26.047255">
<ele>168.826294</ele>
<time>2010-07-17T14:47:36Z</time>
<desc>lat.=55.862972, lon.=26.047255, Alt.=168.826294m. Speed=10.440000m/h.</desc>
<speed>2.900000</speed>
</trkpt>
<trkpt lat="55.862995" lon="26.047232">
<ele>168.517700</ele>
<time>2010-07-17T14:47:37Z</time>
<desc>lat.=55.862995, lon.=26.047232, Alt.=168.517700m. Speed=10.836000m/h.</desc>
<speed>3.010000</speed>
</trkpt>
<trkpt lat="55.863018" lon="26.047216">
<ele>168.005981</ele>
<time>2010-07-17T14:47:38Z</time>
<desc>lat.=55.863018, lon.=26.047216, Alt.=168.005981m. Speed=11.304000m/h.</desc>
<speed>3.140000</speed>
</trkpt>
<trkpt lat="55.863045" lon="26.047182">
<ele>168.052856</ele>
<time>2010-07-17T14:47:39Z</time>
<desc>lat.=55.863045, lon.=26.047182, Alt.=168.052856m. Speed=11.592000m/h.</desc>
<speed>3.220000</speed>
</trkpt>
<trkpt lat="55.863071" lon="26.047163">
<ele>167.670044</ele>
<time>2010-07-17T14:47:40Z</time>
<desc>lat.=55.863071, lon.=26.047163, Alt.=167.670044m. Speed=11.268000m/h.</desc>
<speed>3.130000</speed>
</trkpt>
<trkpt lat="55.863098" lon="26.047140">
<ele>168.298950</ele>
<time>2010-07-17T14:47:41Z</time>
<desc>lat.=55.863098, lon.=26.047140, Alt.=168.298950m. Speed=10.044000m/h.</desc>
<speed>2.790000</speed>
</trkpt>
<trkpt lat="55.863125" lon="26.047106">
<ele>168.209106</ele>
<time>2010-07-17T14:47:42Z</time>
<desc>lat.=55.863125, lon.=26.047106, Alt.=168.209106m. Speed=11.124000m/h.</desc>
<speed>3.090000</speed>
</trkpt>
<trkpt lat="55.863148" lon="26.047083">
<ele>168.193481</ele>
<time>2010-07-17T14:47:43Z</time>
<desc>lat.=55.863148, lon.=26.047083, Alt.=168.193481m. Speed=10.296000m/h.</desc>
<speed>2.860000</speed>
</trkpt>
<trkpt lat="55.863171" lon="26.047056">
<ele>167.826294</ele>
<time>2010-07-17T14:47:44Z</time>
<desc>lat.=55.863171, lon.=26.047056, Alt.=167.826294m. Speed=11.016000m/h.</desc>
<speed>3.060000</speed>
</trkpt>
<trkpt lat="55.863197" lon="26.047022">
<ele>167.959106</ele>
<time>2010-07-17T14:47:45Z</time>
<desc>lat.=55.863197, lon.=26.047022, Alt.=167.959106m. Speed=11.448000m/h.</desc>
<speed>3.180000</speed>
</trkpt>
<trkpt lat="55.863224" lon="26.046995">
<ele>168.181763</ele>
<time>2010-07-17T14:47:46Z</time>
<desc>lat.=55.863224, lon.=26.046995, Alt.=168.181763m. Speed=11.268000m/h.</desc>
<speed>3.130000</speed>
</trkpt>
<trkpt lat="55.863247" lon="26.046959">
<ele>168.283325</ele>
<time>2010-07-17T14:47:47Z</time>
<desc>lat.=55.863247, lon.=26.046959, Alt.=168.283325m. Speed=11.484000m/h.</desc>
<speed>3.190000</speed>
</trkpt>
<trkpt lat="55.863270" lon="26.046921">
<ele>168.302856</ele>
<time>2010-07-17T14:47:48Z</time>
<desc>lat.=55.863270, lon.=26.046921, Alt.=168.302856m. Speed=11.304000m/h.</desc>
<speed>3.140000</speed>
</trkpt>
<trkpt lat="55.863289" lon="26.046890">
<ele>168.291138</ele>
<time>2010-07-17T14:47:49Z</time>
<desc>lat.=55.863289, lon.=26.046890, Alt.=168.291138m. Speed=11.520000m/h.</desc>
<speed>3.200000</speed>
</trkpt>
<trkpt lat="55.863308" lon="26.046852">
<ele>168.330200</ele>
<time>2010-07-17T14:47:50Z</time>
<desc>lat.=55.863308, lon.=26.046852, Alt.=168.330200m. Speed=10.692000m/h.</desc>
<speed>2.970000</speed>
</trkpt>
<trkpt lat="55.863327" lon="26.046824">
<ele>168.423950</ele>
<time>2010-07-17T14:47:51Z</time>
<desc>lat.=55.863327, lon.=26.046824, Alt.=168.423950m. Speed=11.988000m/h.</desc>
<speed>3.330000</speed>
</trkpt>
<trkpt lat="55.863342" lon="26.046791">
<ele>168.677856</ele>
<time>2010-07-17T14:47:52Z</time>
<desc>lat.=55.863342, lon.=26.046791, Alt.=168.677856m. Speed=11.664000m/h.</desc>
<speed>3.240000</speed>
</trkpt>
<trkpt lat="55.863358" lon="26.046759">
<ele>168.724731</ele>
<time>2010-07-17T14:47:53Z</time>
<desc>lat.=55.863358, lon.=26.046759, Alt.=168.724731m. Speed=10.728000m/h.</desc>
<speed>2.980000</speed>
</trkpt>
<trkpt lat="55.863373" lon="26.046724">
<ele>168.638794</ele>
<time>2010-07-17T14:47:54Z</time>
<desc>lat.=55.863373, lon.=26.046724, Alt.=168.638794m. Speed=10.404000m/h.</desc>
<speed>2.890000</speed>
</trkpt>
<trkpt lat="55.863388" lon="26.046682">
<ele>168.580200</ele>
<time>2010-07-17T14:47:55Z</time>
<desc>lat.=55.863388, lon.=26.046682, Alt.=168.580200m. Speed=9.252000m/h.</desc>
<speed>2.570000</speed>
</trkpt>
<trkpt lat="55.863407" lon="26.046654">
<ele>168.791138</ele>
<time>2010-07-17T14:47:56Z</time>
<desc>lat.=55.863407, lon.=26.046654, Alt.=168.791138m. Speed=10.152000m/h.</desc>
<speed>2.820000</speed>
</trkpt>
<trkpt lat="55.863422" lon="26.046623">
<ele>169.103638</ele>
<time>2010-07-17T14:47:57Z</time>
<desc>lat.=55.863422, lon.=26.046623, Alt.=169.103638m. Speed=9.324000m/h.</desc>
<speed>2.590000</speed>
</trkpt>
<trkpt lat="55.863438" lon="26.046591">
<ele>169.255981</ele>
<time>2010-07-17T14:47:58Z</time>
<desc>lat.=55.863438, lon.=26.046591, Alt.=169.255981m. Speed=11.160000m/h.</desc>
<speed>3.100000</speed>
</trkpt>
<trkpt lat="55.863457" lon="26.046549">
<ele>169.353638</ele>
<time>2010-07-17T14:47:59Z</time>
<desc>lat.=55.863457, lon.=26.046549, Alt.=169.353638m. Speed=11.736000m/h.</desc>
<speed>3.260000</speed>
</trkpt>
<trkpt lat="55.863476" lon="26.046505">
<ele>169.338013</ele>
<time>2010-07-17T14:48:00Z</time>
<desc>lat.=55.863476, lon.=26.046505, Alt.=169.338013m. Speed=11.592000m/h.</desc>
<speed>3.220000</speed>
</trkpt>
<trkpt lat="55.863499" lon="26.046463">
<ele>169.533325</ele>
<time>2010-07-17T14:48:01Z</time>
<desc>lat.=55.863499, lon.=26.046463, Alt.=169.533325m. Speed=11.592000m/h.</desc>
<speed>3.220000</speed>
</trkpt>
<trkpt lat="55.863518" lon="26.046413">
<ele>169.630981</ele>
<time>2010-07-17T14:48:02Z</time>
<desc>lat.=55.863518, lon.=26.046413, Alt.=169.630981m. Speed=12.600000m/h.</desc>
<speed>3.500000</speed>
</trkpt>
<trkpt lat="55.863537" lon="26.046368">
<ele>169.646606</ele>
<time>2010-07-17T14:48:03Z</time>
<desc>lat.=55.863537, lon.=26.046368, Alt.=169.646606m. Speed=12.384000m/h.</desc>
<speed>3.440000</speed>
</trkpt>
<trkpt lat="55.863560" lon="26.046324">
<ele>169.642700</ele>
<time>2010-07-17T14:48:04Z</time>
<desc>lat.=55.863560, lon.=26.046324, Alt.=169.642700m. Speed=12.600000m/h.</desc>
<speed>3.500000</speed>
</trkpt>
<trkpt lat="55.863583" lon="26.046270">
<ele>169.295044</ele>
<time>2010-07-17T14:48:05Z</time>
<desc>lat.=55.863583, lon.=26.046270, Alt.=169.295044m. Speed=12.996000m/h.</desc>
<speed>3.610000</speed>
</trkpt>
<trkpt lat="55.863609" lon="26.046232">
<ele>168.420044</ele>
<time>2010-07-17T14:48:06Z</time>
<desc>lat.=55.863609, lon.=26.046232, Alt.=168.420044m. Speed=12.168000m/h.</desc>
<speed>3.380000</speed>
</trkpt>
<trkpt lat="55.863632" lon="26.046190">
<ele>168.525513</ele>
<time>2010-07-17T14:48:07Z</time>
<desc>lat.=55.863632, lon.=26.046190, Alt.=168.525513m. Speed=12.996000m/h.</desc>
<speed>3.610000</speed>
</trkpt>
<trkpt lat="55.863659" lon="26.046144">
<ele>168.502075</ele>
<time>2010-07-17T14:48:08Z</time>
<desc>lat.=55.863659, lon.=26.046144, Alt.=168.502075m. Speed=12.060000m/h.</desc>
<speed>3.350000</speed>
</trkpt>
<trkpt lat="55.863686" lon="26.046104">
<ele>168.338013</ele>
<time>2010-07-17T14:48:09Z</time>
<desc>lat.=55.863686, lon.=26.046104, Alt.=168.338013m. Speed=12.816000m/h.</desc>
<speed>3.560000</speed>
</trkpt>
<trkpt lat="55.863716" lon="26.046051">
<ele>167.857544</ele>
<time>2010-07-17T14:48:10Z</time>
<desc>lat.=55.863716, lon.=26.046051, Alt.=167.857544m. Speed=12.492000m/h.</desc>
<speed>3.470000</speed>
</trkpt>
<trkpt lat="55.863739" lon="26.046019">
<ele>167.861450</ele>
<time>2010-07-17T14:48:11Z</time>
<desc>lat.=55.863739, lon.=26.046019, Alt.=167.861450m. Speed=11.412000m/h.</desc>
<speed>3.170000</speed>
</trkpt>
<trkpt lat="55.863754" lon="26.045986">
<ele>167.947388</ele>
<time>2010-07-17T14:48:12Z</time>
<desc>lat.=55.863754, lon.=26.045986, Alt.=167.947388m. Speed=11.088000m/h.</desc>
<speed>3.080000</speed>
</trkpt>
<trkpt lat="55.863777" lon="26.045956">
<ele>167.912231</ele>
<time>2010-07-17T14:48:13Z</time>
<desc>lat.=55.863777, lon.=26.045956, Alt.=167.912231m. Speed=11.988000m/h.</desc>
<speed>3.330000</speed>
</trkpt>
<trkpt lat="55.863796" lon="26.045921">
<ele>167.873169</ele>
<time>2010-07-17T14:48:14Z</time>
<desc>lat.=55.863796, lon.=26.045921, Alt.=167.873169m. Speed=11.628000m/h.</desc>
<speed>3.230000</speed>
</trkpt>
<trkpt lat="55.863819" lon="26.045883">
<ele>167.791138</ele>
<time>2010-07-17T14:48:15Z</time>
<desc>lat.=55.863819, lon.=26.045883, Alt.=167.791138m. Speed=12.816000m/h.</desc>
<speed>3.560000</speed>
</trkpt>
<trkpt lat="55.863846" lon="26.045841">
<ele>167.638794</ele>
<time>2010-07-17T14:48:16Z</time>
<desc>lat.=55.863846, lon.=26.045841, Alt.=167.638794m. Speed=13.392000m/h.</desc>
<speed>3.720000</speed>
</trkpt>
<trkpt lat="55.863869" lon="26.045803">
<ele>167.623169</ele>
<time>2010-07-17T14:48:17Z</time>
<desc>lat.=55.863869, lon.=26.045803, Alt.=167.623169m. Speed=14.472000m/h.</desc>
<speed>4.020000</speed>
</trkpt>
<trkpt lat="55.863899" lon="26.045765">
<ele>167.638794</ele>
<time>2010-07-17T14:48:18Z</time>
<desc>lat.=55.863899, lon.=26.045765, Alt.=167.638794m. Speed=15.084000m/h.</desc>
<speed>4.190000</speed>
</trkpt>
<trkpt lat="55.863926" lon="26.045727">
<ele>167.646606</ele>
<time>2010-07-17T14:48:19Z</time>
<desc>lat.=55.863926, lon.=26.045727, Alt.=167.646606m. Speed=15.372000m/h.</desc>
<speed>4.270000</speed>
</trkpt>
<trkpt lat="55.863960" lon="26.045694">
<ele>167.740356</ele>
<time>2010-07-17T14:48:20Z</time>
<desc>lat.=55.863960, lon.=26.045694, Alt.=167.740356m. Speed=15.840000m/h.</desc>
<speed>4.400000</speed>
</trkpt>
<trkpt lat="55.863991" lon="26.045652">
<ele>167.900513</ele>
<time>2010-07-17T14:48:21Z</time>
<desc>lat.=55.863991, lon.=26.045652, Alt.=167.900513m. Speed=15.912000m/h.</desc>
<speed>4.420000</speed>
</trkpt>
<trkpt lat="55.864029" lon="26.045616">
<ele>168.048950</ele>
<time>2010-07-17T14:48:22Z</time>
<desc>lat.=55.864029, lon.=26.045616, Alt.=168.048950m. Speed=16.020000m/h.</desc>
<speed>4.450000</speed>
</trkpt>
<trkpt lat="55.864059" lon="26.045582">
<ele>168.048950</ele>
<time>2010-07-17T14:48:23Z</time>
<desc>lat.=55.864059, lon.=26.045582, Alt.=168.048950m. Speed=14.508000m/h.</desc>
<speed>4.030000</speed>
</trkpt>
<trkpt lat="55.864090" lon="26.045553">
<ele>168.107544</ele>
<time>2010-07-17T14:48:24Z</time>
<desc>lat.=55.864090, lon.=26.045553, Alt.=168.107544m. Speed=14.040000m/h.</desc>
<speed>3.900000</speed>
</trkpt>
<trkpt lat="55.864120" lon="26.045519">
<ele>168.209106</ele>
<time>2010-07-17T14:48:25Z</time>
<desc>lat.=55.864120, lon.=26.045519, Alt.=168.209106m. Speed=15.120000m/h.</desc>
<speed>4.200000</speed>
</trkpt>
<trkpt lat="55.864155" lon="26.045471">
<ele>168.177856</ele>
<time>2010-07-17T14:48:26Z</time>
<desc>lat.=55.864155, lon.=26.045471, Alt.=168.177856m. Speed=15.300000m/h.</desc>
<speed>4.250000</speed>
</trkpt>
<trkpt lat="55.864197" lon="26.045433">
<ele>168.291138</ele>
<time>2010-07-17T14:48:27Z</time>
<desc>lat.=55.864197, lon.=26.045433, Alt.=168.291138m. Speed=15.336000m/h.</desc>
<speed>4.260000</speed>
</trkpt>
<trkpt lat="55.864231" lon="26.045397">
<ele>167.931763</ele>
<time>2010-07-17T14:48:28Z</time>
<desc>lat.=55.864231, lon.=26.045397, Alt.=167.931763m. Speed=14.544000m/h.</desc>
<speed>4.040000</speed>
</trkpt>
<trkpt lat="55.864265" lon="26.045370">
<ele>167.904419</ele>
<time>2010-07-17T14:48:29Z</time>
<desc>lat.=55.864265, lon.=26.045370, Alt.=167.904419m. Speed=13.968000m/h.</desc>
<speed>3.880000</speed>
</trkpt>
<trkpt lat="55.864296" lon="26.045338">
<ele>167.853638</ele>
<time>2010-07-17T14:48:30Z</time>
<desc>lat.=55.864296, lon.=26.045338, Alt.=167.853638m. Speed=13.176000m/h.</desc>
<speed>3.660000</speed>
</trkpt>
<trkpt lat="55.864330" lon="26.045311">
<ele>167.990356</ele>
<time>2010-07-17T14:48:31Z</time>
<desc>lat.=55.864330, lon.=26.045311, Alt.=167.990356m. Speed=14.472000m/h.</desc>
<speed>4.020000</speed>
</trkpt>
<trkpt lat="55.864361" lon="26.045256">
<ele>168.009888</ele>
<time>2010-07-17T14:48:32Z</time>
<desc>lat.=55.864361, lon.=26.045256, Alt.=168.009888m. Speed=14.292000m/h.</desc>
<speed>3.970000</speed>
</trkpt>
<trkpt lat="55.864391" lon="26.045229">
<ele>168.177856</ele>
<time>2010-07-17T14:48:33Z</time>
<desc>lat.=55.864391, lon.=26.045229, Alt.=168.177856m. Speed=14.256000m/h.</desc>
<speed>3.960000</speed>
</trkpt>
<trkpt lat="55.864418" lon="26.045191">
<ele>168.326294</ele>
<time>2010-07-17T14:48:34Z</time>
<desc>lat.=55.864418, lon.=26.045191, Alt.=168.326294m. Speed=13.068000m/h.</desc>
<speed>3.630000</speed>
</trkpt>
<trkpt lat="55.864449" lon="26.045164">
<ele>168.521606</ele>
<time>2010-07-17T14:48:35Z</time>
<desc>lat.=55.864449, lon.=26.045164, Alt.=168.521606m. Speed=14.292000m/h.</desc>
<speed>3.970000</speed>
</trkpt>
<trkpt lat="55.864479" lon="26.045132">
<ele>168.642700</ele>
<time>2010-07-17T14:48:36Z</time>
<desc>lat.=55.864479, lon.=26.045132, Alt.=168.642700m. Speed=15.012000m/h.</desc>
<speed>4.170000</speed>
</trkpt>
<trkpt lat="55.864517" lon="26.045099">
<ele>168.588013</ele>
<time>2010-07-17T14:48:37Z</time>
<desc>lat.=55.864517, lon.=26.045099, Alt.=168.588013m. Speed=15.480000m/h.</desc>
<speed>4.300000</speed>
</trkpt>
<trkpt lat="55.864552" lon="26.045059">
<ele>168.623169</ele>
<time>2010-07-17T14:48:38Z</time>
<desc>lat.=55.864552, lon.=26.045059, Alt.=168.623169m. Speed=15.984000m/h.</desc>
<speed>4.440000</speed>
</trkpt>
<trkpt lat="55.864582" lon="26.045013">
<ele>168.638794</ele>
<time>2010-07-17T14:48:39Z</time>
<desc>lat.=55.864582, lon.=26.045013, Alt.=168.638794m. Speed=16.667999m/h.</desc>
<speed>4.630000</speed>
</trkpt>
<trkpt lat="55.864624" lon="26.044968">
<ele>168.662231</ele>
<time>2010-07-17T14:48:40Z</time>
<desc>lat.=55.864624, lon.=26.044968, Alt.=168.662231m. Speed=17.351999m/h.</desc>
<speed>4.820000</speed>
</trkpt>
<trkpt lat="55.864662" lon="26.044922">
<ele>168.732544</ele>
<time>2010-07-17T14:48:41Z</time>
<desc>lat.=55.864662, lon.=26.044922, Alt.=168.732544m. Speed=16.667999m/h.</desc>
<speed>4.630000</speed>
</trkpt>
<trkpt lat="55.864697" lon="26.044886">
<ele>168.736450</ele>
<time>2010-07-17T14:48:42Z</time>
<desc>lat.=55.864697, lon.=26.044886, Alt.=168.736450m. Speed=15.912000m/h.</desc>
<speed>4.420000</speed>
</trkpt>
<trkpt lat="55.864731" lon="26.044838">
<ele>168.705200</ele>
<time>2010-07-17T14:48:43Z</time>
<desc>lat.=55.864731, lon.=26.044838, Alt.=168.705200m. Speed=16.200001m/h.</desc>
<speed>4.500000</speed>
</trkpt>
<trkpt lat="55.864765" lon="26.044804">
<ele>168.787231</ele>
<time>2010-07-17T14:48:44Z</time>
<desc>lat.=55.864765, lon.=26.044804, Alt.=168.787231m. Speed=13.860000m/h.</desc>
<speed>3.850000</speed>
</trkpt>
<trkpt lat="55.864796" lon="26.044764">
<ele>168.728638</ele>
<time>2010-07-17T14:48:45Z</time>
<desc>lat.=55.864796, lon.=26.044764, Alt.=168.728638m. Speed=14.472000m/h.</desc>
<speed>4.020000</speed>
</trkpt>
<trkpt lat="55.864830" lon="26.044729">
<ele>168.627075</ele>
<time>2010-07-17T14:48:46Z</time>
<desc>lat.=55.864830, lon.=26.044729, Alt.=168.627075m. Speed=16.128000m/h.</desc>
<speed>4.480000</speed>
</trkpt>
<trkpt lat="55.864864" lon="26.044685">
<ele>168.603638</ele>
<time>2010-07-17T14:48:47Z</time>
<desc>lat.=55.864864, lon.=26.044685, Alt.=168.603638m. Speed=15.048000m/h.</desc>
<speed>4.180000</speed>
</trkpt>
<trkpt lat="55.864899" lon="26.044645">
<ele>168.642700</ele>
<time>2010-07-17T14:48:48Z</time>
<desc>lat.=55.864899, lon.=26.044645, Alt.=168.642700m. Speed=16.632000m/h.</desc>
<speed>4.620000</speed>
</trkpt>
<trkpt lat="55.864937" lon="26.044605">
<ele>168.771606</ele>
<time>2010-07-17T14:48:49Z</time>
<desc>lat.=55.864937, lon.=26.044605, Alt.=168.771606m. Speed=15.120000m/h.</desc>
<speed>4.200000</speed>
</trkpt>
<trkpt lat="55.864975" lon="26.044565">
<ele>169.123169</ele>
<time>2010-07-17T14:48:50Z</time>
<desc>lat.=55.864975, lon.=26.044565, Alt.=169.123169m. Speed=16.632000m/h.</desc>
<speed>4.620000</speed>
</trkpt>
<trkpt lat="55.865009" lon="26.044521">
<ele>169.330200</ele>
<time>2010-07-17T14:48:51Z</time>
<desc>lat.=55.865009, lon.=26.044521, Alt.=169.330200m. Speed=17.063999m/h.</desc>
<speed>4.740000</speed>
</trkpt>
<trkpt lat="55.865044" lon="26.044485">
<ele>169.388794</ele>
<time>2010-07-17T14:48:52Z</time>
<desc>lat.=55.865044, lon.=26.044485, Alt.=169.388794m. Speed=17.280001m/h.</desc>
<speed>4.800000</speed>
</trkpt>
<trkpt lat="55.865082" lon="26.044443">
<ele>169.423950</ele>
<time>2010-07-17T14:48:53Z</time>
<desc>lat.=55.865082, lon.=26.044443, Alt.=169.423950m. Speed=17.424000m/h.</desc>
<speed>4.840000</speed>
</trkpt>
<trkpt lat="55.865124" lon="26.044405">
<ele>169.439575</ele>
<time>2010-07-17T14:48:54Z</time>
<desc>lat.=55.865124, lon.=26.044405, Alt.=169.439575m. Speed=17.532000m/h.</desc>
<speed>4.870000</speed>
</trkpt>
<trkpt lat="55.865162" lon="26.044355">
<ele>169.478638</ele>
<time>2010-07-17T14:48:55Z</time>
<desc>lat.=55.865162, lon.=26.044355, Alt.=169.478638m. Speed=16.488001m/h.</desc>
<speed>4.580000</speed>
</trkpt>
<trkpt lat="55.865211" lon="26.044302">
<ele>169.029419</ele>
<time>2010-07-17T14:48:56Z</time>
<desc>lat.=55.865211, lon.=26.044302, Alt.=169.029419m. Speed=17.496000m/h.</desc>
<speed>4.860000</speed>
</trkpt>
<trkpt lat="55.865250" lon="26.044254">
<ele>169.037231</ele>
<time>2010-07-17T14:48:57Z</time>
<desc>lat.=55.865250, lon.=26.044254, Alt.=169.037231m. Speed=17.172001m/h.</desc>
<speed>4.770000</speed>
</trkpt>
<trkpt lat="55.865292" lon="26.044216">
<ele>169.189575</ele>
<time>2010-07-17T14:48:58Z</time>
<desc>lat.=55.865292, lon.=26.044216, Alt.=169.189575m. Speed=15.732000m/h.</desc>
<speed>4.370000</speed>
</trkpt>
<trkpt lat="55.865334" lon="26.044168">
<ele>169.377075</ele>
<time>2010-07-17T14:48:59Z</time>
<desc>lat.=55.865334, lon.=26.044168, Alt.=169.377075m. Speed=14.400000m/h.</desc>
<speed>4.000000</speed>
</trkpt>
<trkpt lat="55.865364" lon="26.044132">
<ele>169.767700</ele>
<time>2010-07-17T14:49:00Z</time>
<desc>lat.=55.865364, lon.=26.044132, Alt.=169.767700m. Speed=14.688000m/h.</desc>
<speed>4.080000</speed>
</trkpt>
<trkpt lat="55.865391" lon="26.044100">
<ele>169.818481</ele>
<time>2010-07-17T14:49:01Z</time>
<desc>lat.=55.865391, lon.=26.044100, Alt.=169.818481m. Speed=12.744000m/h.</desc>
<speed>3.540000</speed>
</trkpt>
<trkpt lat="55.865421" lon="26.044067">
<ele>170.263794</ele>
<time>2010-07-17T14:49:02Z</time>
<desc>lat.=55.865421, lon.=26.044067, Alt.=170.263794m. Speed=12.096000m/h.</desc>
<speed>3.360000</speed>
</trkpt>
<trkpt lat="55.865444" lon="26.044029">
<ele>171.728638</ele>
<time>2010-07-17T14:49:03Z</time>
<desc>lat.=55.865444, lon.=26.044029, Alt.=171.728638m. Speed=12.348000m/h.</desc>
<speed>3.430000</speed>
</trkpt>
<trkpt lat="55.865471" lon="26.044004">
<ele>172.306763</ele>
<time>2010-07-17T14:49:04Z</time>
<desc>lat.=55.865471, lon.=26.044004, Alt.=172.306763m. Speed=10.584000m/h.</desc>
<speed>2.940000</speed>
</trkpt>
<trkpt lat="55.865490" lon="26.043982">
<ele>172.252075</ele>
<time>2010-07-17T14:49:05Z</time>
<desc>lat.=55.865490, lon.=26.043982, Alt.=172.252075m. Speed=9.036000m/h.</desc>
<speed>2.510000</speed>
</trkpt>
<trkpt lat="55.865509" lon="26.043959">
<ele>172.482544</ele>
<time>2010-07-17T14:49:06Z</time>
<desc>lat.=55.865509, lon.=26.043959, Alt.=172.482544m. Speed=9.432000m/h.</desc>
<speed>2.620000</speed>
</trkpt>
<trkpt lat="55.865524" lon="26.043930">
<ele>172.607544</ele>
<time>2010-07-17T14:49:07Z</time>
<desc>lat.=55.865524, lon.=26.043930, Alt.=172.607544m. Speed=9.216000m/h.</desc>
<speed>2.560000</speed>
</trkpt>
<trkpt lat="55.865543" lon="26.043903">
<ele>172.588013</ele>
<time>2010-07-17T14:49:08Z</time>
<desc>lat.=55.865543, lon.=26.043903, Alt.=172.588013m. Speed=10.008000m/h.</desc>
<speed>2.780000</speed>
</trkpt>
<trkpt lat="55.865566" lon="26.043873">
<ele>172.705200</ele>
<time>2010-07-17T14:49:09Z</time>
<desc>lat.=55.865566, lon.=26.043873, Alt.=172.705200m. Speed=10.836000m/h.</desc>
<speed>3.010000</speed>
</trkpt>
<trkpt lat="55.865585" lon="26.043842">
<ele>172.791138</ele>
<time>2010-07-17T14:49:10Z</time>
<desc>lat.=55.865585, lon.=26.043842, Alt.=172.791138m. Speed=10.728000m/h.</desc>
<speed>2.980000</speed>
</trkpt>
<trkpt lat="55.865604" lon="26.043810">
<ele>173.013794</ele>
<time>2010-07-17T14:49:11Z</time>
<desc>lat.=55.865604, lon.=26.043810, Alt.=173.013794m. Speed=10.656000m/h.</desc>
<speed>2.960000</speed>
</trkpt>
<trkpt lat="55.865623" lon="26.043776">
<ele>173.197388</ele>
<time>2010-07-17T14:49:12Z</time>
<desc>lat.=55.865623, lon.=26.043776, Alt.=173.197388m. Speed=10.296000m/h.</desc>
<speed>2.860000</speed>
</trkpt>
<trkpt lat="55.865643" lon="26.043747">
<ele>173.533325</ele>
<time>2010-07-17T14:49:13Z</time>
<desc>lat.=55.865643, lon.=26.043747, Alt.=173.533325m. Speed=10.440000m/h.</desc>
<speed>2.900000</speed>
</trkpt>
<trkpt lat="55.865662" lon="26.043718">
<ele>173.701294</ele>
<time>2010-07-17T14:49:14Z</time>
<desc>lat.=55.865662, lon.=26.043718, Alt.=173.701294m. Speed=10.044000m/h.</desc>
<speed>2.790000</speed>
</trkpt>
<trkpt lat="55.865677" lon="26.043688">
<ele>173.939575</ele>
<time>2010-07-17T14:49:15Z</time>
<desc>lat.=55.865677, lon.=26.043688, Alt.=173.939575m. Speed=10.980000m/h.</desc>
<speed>3.050000</speed>
</trkpt>
<trkpt lat="55.865696" lon="26.043653">
<ele>174.060669</ele>
<time>2010-07-17T14:49:16Z</time>
<desc>lat.=55.865696, lon.=26.043653, Alt.=174.060669m. Speed=11.160000m/h.</desc>
<speed>3.100000</speed>
</trkpt>
<trkpt lat="55.865715" lon="26.043615">
<ele>174.326294</ele>
<time>2010-07-17T14:49:17Z</time>
<desc>lat.=55.865715, lon.=26.043615, Alt.=174.326294m. Speed=12.492000m/h.</desc>
<speed>3.470000</speed>
</trkpt>
<trkpt lat="55.865738" lon="26.043579">
<ele>174.533325</ele>
<time>2010-07-17T14:49:18Z</time>
<desc>lat.=55.865738, lon.=26.043579, Alt.=174.533325m. Speed=11.016000m/h.</desc>
<speed>3.060000</speed>
</trkpt>
<trkpt lat="55.865753" lon="26.043552">
<ele>174.716919</ele>
<time>2010-07-17T14:49:19Z</time>
<desc>lat.=55.865753, lon.=26.043552, Alt.=174.716919m. Speed=8.316000m/h.</desc>
<speed>2.310000</speed>
</trkpt>
<trkpt lat="55.865765" lon="26.043524">
<ele>174.834106</ele>
<time>2010-07-17T14:49:20Z</time>
<desc>lat.=55.865765, lon.=26.043524, Alt.=174.834106m. Speed=7.308000m/h.</desc>
<speed>2.030000</speed>
</trkpt>
<trkpt lat="55.865776" lon="26.043491">
<ele>174.982544</ele>
<time>2010-07-17T14:49:21Z</time>
<desc>lat.=55.865776, lon.=26.043491, Alt.=174.982544m. Speed=8.568000m/h.</desc>
<speed>2.380000</speed>
</trkpt>
<trkpt lat="55.865791" lon="26.043451">
<ele>175.193481</ele>
<time>2010-07-17T14:49:22Z</time>
<desc>lat.=55.865791, lon.=26.043451, Alt.=175.193481m. Speed=9.432000m/h.</desc>
<speed>2.620000</speed>
</trkpt>
<trkpt lat="55.865807" lon="26.043394">
<ele>175.564575</ele>
<time>2010-07-17T14:49:23Z</time>
<desc>lat.=55.865807, lon.=26.043394, Alt.=175.564575m. Speed=11.628000m/h.</desc>
<speed>3.230000</speed>
</trkpt>
<trkpt lat="55.865810" lon="26.043352">
<ele>175.853638</ele>
<time>2010-07-17T14:49:24Z</time>
<desc>lat.=55.865810, lon.=26.043352, Alt.=175.853638m. Speed=8.676000m/h.</desc>
<speed>2.410000</speed>
</trkpt>
<trkpt lat="55.865826" lon="26.043291">
<ele>176.095825</ele>
<time>2010-07-17T14:49:25Z</time>
<desc>lat.=55.865826, lon.=26.043291, Alt.=176.095825m. Speed=10.728000m/h.</desc>
<speed>2.980000</speed>
</trkpt>
<trkpt lat="55.865841" lon="26.043198">
<ele>176.255981</ele>
<time>2010-07-17T14:49:26Z</time>
<desc>lat.=55.865841, lon.=26.043198, Alt.=176.255981m. Speed=14.400000m/h.</desc>
<speed>4.000000</speed>
</trkpt>
<trkpt lat="55.865864" lon="26.043112">
<ele>176.525513</ele>
<time>2010-07-17T14:49:27Z</time>
<desc>lat.=55.865864, lon.=26.043112, Alt.=176.525513m. Speed=13.392000m/h.</desc>
<speed>3.720000</speed>
</trkpt>
<trkpt lat="55.865875" lon="26.043045">
<ele>177.154419</ele>
<time>2010-07-17T14:49:28Z</time>
<desc>lat.=55.865875, lon.=26.043045, Alt.=177.154419m. Speed=12.528000m/h.</desc>
<speed>3.480000</speed>
</trkpt>
<trkpt lat="55.865891" lon="26.042980">
<ele>177.650513</ele>
<time>2010-07-17T14:49:29Z</time>
<desc>lat.=55.865891, lon.=26.042980, Alt.=177.650513m. Speed=11.952000m/h.</desc>
<speed>3.320000</speed>
</trkpt>
<trkpt lat="55.865906" lon="26.042936">
<ele>178.220825</ele>
<time>2010-07-17T14:49:30Z</time>
<desc>lat.=55.865906, lon.=26.042936, Alt.=178.220825m. Speed=9.108000m/h.</desc>
<speed>2.530000</speed>
</trkpt>
<trkpt lat="55.865921" lon="26.042871">
<ele>178.795044</ele>
<time>2010-07-17T14:49:31Z</time>
<desc>lat.=55.865921, lon.=26.042871, Alt.=178.795044m. Speed=11.196000m/h.</desc>
<speed>3.110000</speed>
</trkpt>
<trkpt lat="55.865929" lon="26.042809">
<ele>179.334106</ele>
<time>2010-07-17T14:49:32Z</time>
<desc>lat.=55.865929, lon.=26.042809, Alt.=179.334106m. Speed=11.700000m/h.</desc>
<speed>3.250000</speed>
</trkpt>
<trkpt lat="55.865944" lon="26.042759">
<ele>179.822388</ele>
<time>2010-07-17T14:49:33Z</time>
<desc>lat.=55.865944, lon.=26.042759, Alt.=179.822388m. Speed=10.008000m/h.</desc>
<speed>2.780000</speed>
</trkpt>
<trkpt lat="55.865959" lon="26.042709">
<ele>180.384888</ele>
<time>2010-07-17T14:49:34Z</time>
<desc>lat.=55.865959, lon.=26.042709, Alt.=180.384888m. Speed=11.052000m/h.</desc>
<speed>3.070000</speed>
</trkpt>
<trkpt lat="55.865986" lon="26.042648">
<ele>180.986450</ele>
<time>2010-07-17T14:49:35Z</time>
<desc>lat.=55.865986, lon.=26.042648, Alt.=180.986450m. Speed=12.096000m/h.</desc>
<speed>3.360000</speed>
</trkpt>
<trkpt lat="55.866001" lon="26.042582">
<ele>181.541138</ele>
<time>2010-07-17T14:49:36Z</time>
<desc>lat.=55.866001, lon.=26.042582, Alt.=181.541138m. Speed=14.616000m/h.</desc>
<speed>4.060000</speed>
</trkpt>
<trkpt lat="55.866009" lon="26.042517">
<ele>182.091919</ele>
<time>2010-07-17T14:49:37Z</time>
<desc>lat.=55.866009, lon.=26.042517, Alt.=182.091919m. Speed=12.852000m/h.</desc>
<speed>3.570000</speed>
</trkpt>
<trkpt lat="55.866024" lon="26.042473">
<ele>182.584106</ele>
<time>2010-07-17T14:49:38Z</time>
<desc>lat.=55.866024, lon.=26.042473, Alt.=182.584106m. Speed=9.792000m/h.</desc>
<speed>2.720000</speed>
</trkpt>
<trkpt lat="55.866051" lon="26.042437">
<ele>183.185669</ele>
<time>2010-07-17T14:49:39Z</time>
<desc>lat.=55.866051, lon.=26.042437, Alt.=183.185669m. Speed=11.664000m/h.</desc>
<speed>3.240000</speed>
</trkpt>
<trkpt lat="55.866077" lon="26.042381">
<ele>183.630981</ele>
<time>2010-07-17T14:49:40Z</time>
<desc>lat.=55.866077, lon.=26.042381, Alt.=183.630981m. Speed=13.896000m/h.</desc>
<speed>3.860000</speed>
</trkpt>
<trkpt lat="55.866100" lon="26.042311">
<ele>184.072388</ele>
<time>2010-07-17T14:49:41Z</time>
<desc>lat.=55.866100, lon.=26.042311, Alt.=184.072388m. Speed=15.300000m/h.</desc>
<speed>4.250000</speed>
</trkpt>
<trkpt lat="55.866119" lon="26.042238">
<ele>184.396606</ele>
<time>2010-07-17T14:49:42Z</time>
<desc>lat.=55.866119, lon.=26.042238, Alt.=184.396606m. Speed=15.372000m/h.</desc>
<speed>4.270000</speed>
</trkpt>
<trkpt lat="55.866146" lon="26.042133">
<ele>184.904419</ele>
<time>2010-07-17T14:49:43Z</time>
<desc>lat.=55.866146, lon.=26.042133, Alt.=184.904419m. Speed=20.520000m/h.</desc>
<speed>5.700000</speed>
</trkpt>
<trkpt lat="55.866154" lon="26.042000">
<ele>185.455200</ele>
<time>2010-07-17T14:49:44Z</time>
<desc>lat.=55.866154, lon.=26.042000, Alt.=185.455200m. Speed=20.340000m/h.</desc>
<speed>5.650000</speed>
</trkpt>
<trkpt lat="55.866184" lon="26.041901">
<ele>186.025513</ele>
<time>2010-07-17T14:49:45Z</time>
<desc>lat.=55.866184, lon.=26.041901, Alt.=186.025513m. Speed=20.448000m/h.</desc>
<speed>5.680000</speed>
</trkpt>
<trkpt lat="55.866215" lon="26.041801">
<ele>186.595825</ele>
<time>2010-07-17T14:49:46Z</time>
<desc>lat.=55.866215, lon.=26.041801, Alt.=186.595825m. Speed=20.375999m/h.</desc>
<speed>5.660000</speed>
</trkpt>
<trkpt lat="55.866249" lon="26.041691">
<ele>187.158325</ele>
<time>2010-07-17T14:49:47Z</time>
<desc>lat.=55.866249, lon.=26.041691, Alt.=187.158325m. Speed=23.544001m/h.</desc>
<speed>6.540000</speed>
</trkpt>
<trkpt lat="55.866283" lon="26.041586">
<ele>187.845825</ele>
<time>2010-07-17T14:49:48Z</time>
<desc>lat.=55.866283, lon.=26.041586, Alt.=187.845825m. Speed=22.392000m/h.</desc>
<speed>6.220000</speed>
</trkpt>
<trkpt lat="55.866322" lon="26.041473">
<ele>188.416138</ele>
<time>2010-07-17T14:49:49Z</time>
<desc>lat.=55.866322, lon.=26.041473, Alt.=188.416138m. Speed=24.156000m/h.</desc>
<speed>6.710000</speed>
</trkpt>
<trkpt lat="55.866375" lon="26.041344">
<ele>188.826294</ele>
<time>2010-07-17T14:49:50Z</time>
<desc>lat.=55.866375, lon.=26.041344, Alt.=188.826294m. Speed=26.747999m/h.</desc>
<speed>7.430000</speed>
</trkpt>
<trkpt lat="55.866428" lon="26.041227">
<ele>189.267700</ele>
<time>2010-07-17T14:49:51Z</time>
<desc>lat.=55.866428, lon.=26.041227, Alt.=189.267700m. Speed=28.188000m/h.</desc>
<speed>7.830000</speed>
</trkpt>
<trkpt lat="55.866474" lon="26.041119">
<ele>189.580200</ele>
<time>2010-07-17T14:49:52Z</time>
<desc>lat.=55.866474, lon.=26.041119, Alt.=189.580200m. Speed=27.108000m/h.</desc>
<speed>7.530000</speed>
</trkpt>
<trkpt lat="55.866520" lon="26.040997">
<ele>189.951294</ele>
<time>2010-07-17T14:49:53Z</time>
<desc>lat.=55.866520, lon.=26.040997, Alt.=189.951294m. Speed=24.372000m/h.</desc>
<speed>6.770000</speed>
</trkpt>
<trkpt lat="55.866573" lon="26.040895">
<ele>190.170044</ele>
<time>2010-07-17T14:49:54Z</time>
<desc>lat.=55.866573, lon.=26.040895, Alt.=190.170044m. Speed=24.444000m/h.</desc>
<speed>6.790000</speed>
</trkpt>
<trkpt lat="55.866631" lon="26.040787">
<ele>189.951294</ele>
<time>2010-07-17T14:49:55Z</time>
<desc>lat.=55.866631, lon.=26.040787, Alt.=189.951294m. Speed=23.580000m/h.</desc>
<speed>6.550000</speed>
</trkpt>
<trkpt lat="55.866680" lon="26.040693">
<ele>190.654419</ele>
<time>2010-07-17T14:49:56Z</time>
<desc>lat.=55.866680, lon.=26.040693, Alt.=190.654419m. Speed=22.427999m/h.</desc>
<speed>6.230000</speed>
</trkpt>
<trkpt lat="55.866722" lon="26.040588">
<ele>191.084106</ele>
<time>2010-07-17T14:49:57Z</time>
<desc>lat.=55.866722, lon.=26.040588, Alt.=191.084106m. Speed=22.860001m/h.</desc>
<speed>6.350000</speed>
</trkpt>
<trkpt lat="55.866764" lon="26.040487">
<ele>191.005981</ele>
<time>2010-07-17T14:49:58Z</time>
<desc>lat.=55.866764, lon.=26.040487, Alt.=191.005981m. Speed=20.052000m/h.</desc>
<speed>5.570000</speed>
</trkpt>
<trkpt lat="55.866798" lon="26.040384">
<ele>190.005981</ele>
<time>2010-07-17T14:49:59Z</time>
<desc>lat.=55.866798, lon.=26.040384, Alt.=190.005981m. Speed=19.260000m/h.</desc>
<speed>5.350000</speed>
</trkpt>
<trkpt lat="55.866837" lon="26.040276">
<ele>190.142700</ele>
<time>2010-07-17T14:50:00Z</time>
<desc>lat.=55.866837, lon.=26.040276, Alt.=190.142700m. Speed=19.403999m/h.</desc>
<speed>5.390000</speed>
</trkpt>
<trkpt lat="55.866856" lon="26.040197">
<ele>190.677856</ele>
<time>2010-07-17T14:50:01Z</time>
<desc>lat.=55.866856, lon.=26.040197, Alt.=190.677856m. Speed=19.080000m/h.</desc>
<speed>5.300000</speed>
</trkpt>
<trkpt lat="55.866879" lon="26.040100">
<ele>189.806763</ele>
<time>2010-07-17T14:50:02Z</time>
<desc>lat.=55.866879, lon.=26.040100, Alt.=189.806763m. Speed=20.016001m/h.</desc>
<speed>5.560000</speed>
</trkpt>
<trkpt lat="55.866898" lon="26.040009">
<ele>189.502075</ele>
<time>2010-07-17T14:50:03Z</time>
<desc>lat.=55.866898, lon.=26.040009, Alt.=189.502075m. Speed=15.228000m/h.</desc>
<speed>4.230000</speed>
</trkpt>
<trkpt lat="55.866943" lon="26.039936">
<ele>185.588013</ele>
<time>2010-07-17T14:50:04Z</time>
<desc>lat.=55.866943, lon.=26.039936, Alt.=185.588013m. Speed=14.400000m/h.</desc>
<speed>4.000000</speed>
</trkpt>
<trkpt lat="55.866978" lon="26.039875">
<ele>183.666138</ele>
<time>2010-07-17T14:50:05Z</time>
<desc>lat.=55.866978, lon.=26.039875, Alt.=183.666138m. Speed=12.168000m/h.</desc>
<speed>3.380000</speed>
</trkpt>
<trkpt lat="55.867001" lon="26.039783">
<ele>182.482544</ele>
<time>2010-07-17T14:50:06Z</time>
<desc>lat.=55.867001, lon.=26.039783, Alt.=182.482544m. Speed=10.512000m/h.</desc>
<speed>2.920000</speed>
</trkpt>
<trkpt lat="55.867012" lon="26.039705">
<ele>181.216919</ele>
<time>2010-07-17T14:50:07Z</time>
<desc>lat.=55.867012, lon.=26.039705, Alt.=181.216919m. Speed=11.808000m/h.</desc>
<speed>3.280000</speed>
</trkpt>
<trkpt lat="55.867004" lon="26.039633">
<ele>180.490356</ele>
<time>2010-07-17T14:50:08Z</time>
<desc>lat.=55.867004, lon.=26.039633, Alt.=180.490356m. Speed=11.592000m/h.</desc>
<speed>3.220000</speed>
</trkpt>
<trkpt lat="55.867004" lon="26.039562">
<ele>180.287231</ele>
<time>2010-07-17T14:50:09Z</time>
<desc>lat.=55.867004, lon.=26.039562, Alt.=180.287231m. Speed=10.584000m/h.</desc>
<speed>2.940000</speed>
</trkpt>
<trkpt lat="55.866997" lon="26.039497">
<ele>178.373169</ele>
<time>2010-07-17T14:50:10Z</time>
<desc>lat.=55.866997, lon.=26.039497, Alt.=178.373169m. Speed=9.036000m/h.</desc>
<speed>2.510000</speed>
</trkpt>
<trkpt lat="55.866985" lon="26.039440">
<ele>176.935669</ele>
<time>2010-07-17T14:50:11Z</time>
<desc>lat.=55.866985, lon.=26.039440, Alt.=176.935669m. Speed=9.108000m/h.</desc>
<speed>2.530000</speed>
</trkpt>
<trkpt lat="55.866982" lon="26.039387">
<ele>176.767700</ele>
<time>2010-07-17T14:50:12Z</time>
<desc>lat.=55.866982, lon.=26.039387, Alt.=176.767700m. Speed=9.432000m/h.</desc>
<speed>2.620000</speed>
</trkpt>
<trkpt lat="55.866974" lon="26.039347">
<ele>176.552856</ele>
<time>2010-07-17T14:50:13Z</time>
<desc>lat.=55.866974, lon.=26.039347, Alt.=176.552856m. Speed=9.540000m/h.</desc>
<speed>2.650000</speed>
</trkpt>
<trkpt lat="55.866966" lon="26.039293">
<ele>176.634888</ele>
<time>2010-07-17T14:50:14Z</time>
<desc>lat.=55.866966, lon.=26.039293, Alt.=176.634888m. Speed=9.288000m/h.</desc>
<speed>2.580000</speed>
</trkpt>
<trkpt lat="55.866947" lon="26.039242">
<ele>176.166138</ele>
<time>2010-07-17T14:50:15Z</time>
<desc>lat.=55.866947, lon.=26.039242, Alt.=176.166138m. Speed=9.360000m/h.</desc>
<speed>2.600000</speed>
</trkpt>
<trkpt lat="55.866928" lon="26.039192">
<ele>174.615356</ele>
<time>2010-07-17T14:50:16Z</time>
<desc>lat.=55.866928, lon.=26.039192, Alt.=174.615356m. Speed=10.368000m/h.</desc>
<speed>2.880000</speed>
</trkpt>
<trkpt lat="55.866917" lon="26.039141">
<ele>174.517700</ele>
<time>2010-07-17T14:50:17Z</time>
<desc>lat.=55.866917, lon.=26.039141, Alt.=174.517700m. Speed=11.304000m/h.</desc>
<speed>3.140000</speed>
</trkpt>
<trkpt lat="55.866905" lon="26.039093">
<ele>174.201294</ele>
<time>2010-07-17T14:50:18Z</time>
<desc>lat.=55.866905, lon.=26.039093, Alt.=174.201294m. Speed=10.908000m/h.</desc>
<speed>3.030000</speed>
</trkpt>
<trkpt lat="55.866898" lon="26.039043">
<ele>173.505981</ele>
<time>2010-07-17T14:50:19Z</time>
<desc>lat.=55.866898, lon.=26.039043, Alt.=173.505981m. Speed=10.656000m/h.</desc>
<speed>2.960000</speed>
</trkpt>
<trkpt lat="55.866890" lon="26.038996">
<ele>173.650513</ele>
<time>2010-07-17T14:50:20Z</time>
<desc>lat.=55.866890, lon.=26.038996, Alt.=173.650513m. Speed=10.656000m/h.</desc>
<speed>2.960000</speed>
</trkpt>
<trkpt lat="55.866882" lon="26.038946">
<ele>173.630981</ele>
<time>2010-07-17T14:50:21Z</time>
<desc>lat.=55.866882, lon.=26.038946, Alt.=173.630981m. Speed=11.376000m/h.</desc>
<speed>3.160000</speed>
</trkpt>
<trkpt lat="55.866875" lon="26.038893">
<ele>173.302856</ele>
<time>2010-07-17T14:50:22Z</time>
<desc>lat.=55.866875, lon.=26.038893, Alt.=173.302856m. Speed=12.132000m/h.</desc>
<speed>3.370000</speed>
</trkpt>
<trkpt lat="55.866867" lon="26.038841">
<ele>173.330200</ele>
<time>2010-07-17T14:50:23Z</time>
<desc>lat.=55.866867, lon.=26.038841, Alt.=173.330200m. Speed=12.708000m/h.</desc>
<speed>3.530000</speed>
</trkpt>
<trkpt lat="55.866856" lon="26.038784">
<ele>173.287231</ele>
<time>2010-07-17T14:50:24Z</time>
<desc>lat.=55.866856, lon.=26.038784, Alt.=173.287231m. Speed=13.284000m/h.</desc>
<speed>3.690000</speed>
</trkpt>
<trkpt lat="55.866844" lon="26.038723">
<ele>173.349731</ele>
<time>2010-07-17T14:50:25Z</time>
<desc>lat.=55.866844, lon.=26.038723, Alt.=173.349731m. Speed=13.320000m/h.</desc>
<speed>3.700000</speed>
</trkpt>
<trkpt lat="55.866833" lon="26.038658">
<ele>173.560669</ele>
<time>2010-07-17T14:50:26Z</time>
<desc>lat.=55.866833, lon.=26.038658, Alt.=173.560669m. Speed=14.148000m/h.</desc>
<speed>3.930000</speed>
</trkpt>
<trkpt lat="55.866825" lon="26.038597">
<ele>173.377075</ele>
<time>2010-07-17T14:50:27Z</time>
<desc>lat.=55.866825, lon.=26.038597, Alt.=173.377075m. Speed=14.976000m/h.</desc>
<speed>4.160000</speed>
</trkpt>
<trkpt lat="55.866810" lon="26.038536">
<ele>172.568481</ele>
<time>2010-07-17T14:50:28Z</time>
<desc>lat.=55.866810, lon.=26.038536, Alt.=172.568481m. Speed=15.732000m/h.</desc>
<speed>4.370000</speed>
</trkpt>
<trkpt lat="55.866802" lon="26.038471">
<ele>172.287231</ele>
<time>2010-07-17T14:50:29Z</time>
<desc>lat.=55.866802, lon.=26.038471, Alt.=172.287231m. Speed=16.596001m/h.</desc>
<speed>4.610000</speed>
</trkpt>
<trkpt lat="55.866787" lon="26.038406">
<ele>171.130981</ele>
<time>2010-07-17T14:50:30Z</time>
<desc>lat.=55.866787, lon.=26.038406, Alt.=171.130981m. Speed=16.920000m/h.</desc>
<speed>4.700000</speed>
</trkpt>
<trkpt lat="55.866772" lon="26.038343">
<ele>170.755981</ele>
<time>2010-07-17T14:50:31Z</time>
<desc>lat.=55.866772, lon.=26.038343, Alt.=170.755981m. Speed=17.100000m/h.</desc>
<speed>4.750000</speed>
</trkpt>
<trkpt lat="55.866756" lon="26.038273">
<ele>169.982544</ele>
<time>2010-07-17T14:50:32Z</time>
<desc>lat.=55.866756, lon.=26.038273, Alt.=169.982544m. Speed=17.243999m/h.</desc>
<speed>4.790000</speed>
</trkpt>
<trkpt lat="55.866745" lon="26.038202">
<ele>169.224731</ele>
<time>2010-07-17T14:50:33Z</time>
<desc>lat.=55.866745, lon.=26.038202, Alt.=169.224731m. Speed=16.920000m/h.</desc>
<speed>4.700000</speed>
</trkpt>
<trkpt lat="55.866734" lon="26.038132">
<ele>169.330200</ele>
<time>2010-07-17T14:50:34Z</time>
<desc>lat.=55.866734, lon.=26.038132, Alt.=169.330200m. Speed=16.775999m/h.</desc>
<speed>4.660000</speed>
</trkpt>
<trkpt lat="55.866722" lon="26.038061">
<ele>169.088013</ele>
<time>2010-07-17T14:50:35Z</time>
<desc>lat.=55.866722, lon.=26.038061, Alt.=169.088013m. Speed=16.452000m/h.</desc>
<speed>4.570000</speed>
</trkpt>
<trkpt lat="55.866714" lon="26.037987">
<ele>168.502075</ele>
<time>2010-07-17T14:50:36Z</time>
<desc>lat.=55.866714, lon.=26.037987, Alt.=168.502075m. Speed=16.559999m/h.</desc>
<speed>4.600000</speed>
</trkpt>
<trkpt lat="55.866703" lon="26.037909">
<ele>167.798950</ele>
<time>2010-07-17T14:50:37Z</time>
<desc>lat.=55.866703, lon.=26.037909, Alt.=167.798950m. Speed=16.884001m/h.</desc>
<speed>4.690000</speed>
</trkpt>
<trkpt lat="55.866692" lon="26.037838">
<ele>167.084106</ele>
<time>2010-07-17T14:50:38Z</time>
<desc>lat.=55.866692, lon.=26.037838, Alt.=167.084106m. Speed=17.136000m/h.</desc>
<speed>4.760000</speed>
</trkpt>
<trkpt lat="55.866684" lon="26.037758">
<ele>166.986450</ele>
<time>2010-07-17T14:50:39Z</time>
<desc>lat.=55.866684, lon.=26.037758, Alt.=166.986450m. Speed=17.496000m/h.</desc>
<speed>4.860000</speed>
</trkpt>
<trkpt lat="55.866676" lon="26.037682">
<ele>166.795044</ele>
<time>2010-07-17T14:50:40Z</time>
<desc>lat.=55.866676, lon.=26.037682, Alt.=166.795044m. Speed=18.143999m/h.</desc>
<speed>5.040000</speed>
</trkpt>
<trkpt lat="55.866669" lon="26.037603">
<ele>166.588013</ele>
<time>2010-07-17T14:50:41Z</time>
<desc>lat.=55.866669, lon.=26.037603, Alt.=166.588013m. Speed=17.639999m/h.</desc>
<speed>4.900000</speed>
</trkpt>
<trkpt lat="55.866661" lon="26.037525">
<ele>166.353638</ele>
<time>2010-07-17T14:50:42Z</time>
<desc>lat.=55.866661, lon.=26.037525, Alt.=166.353638m. Speed=17.604000m/h.</desc>
<speed>4.890000</speed>
</trkpt>
<trkpt lat="55.866653" lon="26.037443">
<ele>166.361450</ele>
<time>2010-07-17T14:50:43Z</time>
<desc>lat.=55.866653, lon.=26.037443, Alt.=166.361450m. Speed=18.180000m/h.</desc>
<speed>5.050000</speed>
</trkpt>
<trkpt lat="55.866650" lon="26.037355">
<ele>165.982544</ele>
<time>2010-07-17T14:50:44Z</time>
<desc>lat.=55.866650, lon.=26.037355, Alt.=165.982544m. Speed=19.764000m/h.</desc>
<speed>5.490000</speed>
</trkpt>
<trkpt lat="55.866646" lon="26.037260">
<ele>166.021606</ele>
<time>2010-07-17T14:50:45Z</time>
<desc>lat.=55.866646, lon.=26.037260, Alt.=166.021606m. Speed=21.420000m/h.</desc>
<speed>5.950000</speed>
</trkpt>
<trkpt lat="55.866634" lon="26.037167">
<ele>165.732544</ele>
<time>2010-07-17T14:50:46Z</time>
<desc>lat.=55.866634, lon.=26.037167, Alt.=165.732544m. Speed=21.528000m/h.</desc>
<speed>5.980000</speed>
</trkpt>
<trkpt lat="55.866623" lon="26.037067">
<ele>165.498169</ele>
<time>2010-07-17T14:50:47Z</time>
<desc>lat.=55.866623, lon.=26.037067, Alt.=165.498169m. Speed=21.924000m/h.</desc>
<speed>6.090000</speed>
</trkpt>
<trkpt lat="55.866615" lon="26.036970">
<ele>165.623169</ele>
<time>2010-07-17T14:50:48Z</time>
<desc>lat.=55.866615, lon.=26.036970, Alt.=165.623169m. Speed=22.643999m/h.</desc>
<speed>6.290000</speed>
</trkpt>
<trkpt lat="55.866596" lon="26.036863">
<ele>160.369263</ele>
<time>2010-07-17T14:50:49Z</time>
<desc>lat.=55.866596, lon.=26.036863, Alt.=160.369263m. Speed=23.832001m/h.</desc>
<speed>6.620000</speed>
</trkpt>
<trkpt lat="55.866585" lon="26.036758">
<ele>159.798950</ele>
<time>2010-07-17T14:50:50Z</time>
<desc>lat.=55.866585, lon.=26.036758, Alt.=159.798950m. Speed=24.264000m/h.</desc>
<speed>6.740000</speed>
</trkpt>
<trkpt lat="55.866570" lon="26.036655">
<ele>159.076294</ele>
<time>2010-07-17T14:50:51Z</time>
<desc>lat.=55.866570, lon.=26.036655, Alt.=159.076294m. Speed=22.931999m/h.</desc>
<speed>6.370000</speed>
</trkpt>
<trkpt lat="55.866562" lon="26.036558">
<ele>158.908325</ele>
<time>2010-07-17T14:50:52Z</time>
<desc>lat.=55.866562, lon.=26.036558, Alt.=158.908325m. Speed=20.052000m/h.</desc>
<speed>5.570000</speed>
</trkpt>
<trkpt lat="55.866558" lon="26.036476">
<ele>159.279419</ele>
<time>2010-07-17T14:50:53Z</time>
<desc>lat.=55.866558, lon.=26.036476, Alt.=159.279419m. Speed=17.964001m/h.</desc>
<speed>4.990000</speed>
</trkpt>
<trkpt lat="55.866554" lon="26.036396">
<ele>158.963013</ele>
<time>2010-07-17T14:50:54Z</time>
<desc>lat.=55.866554, lon.=26.036396, Alt.=158.963013m. Speed=17.280001m/h.</desc>
<speed>4.800000</speed>
</trkpt>
<trkpt lat="55.866547" lon="26.036320">
<ele>158.744263</ele>
<time>2010-07-17T14:50:55Z</time>
<desc>lat.=55.866547, lon.=26.036320, Alt.=158.744263m. Speed=16.452000m/h.</desc>
<speed>4.570000</speed>
</trkpt>
<trkpt lat="55.866539" lon="26.036253">
<ele>158.431763</ele>
<time>2010-07-17T14:50:56Z</time>
<desc>lat.=55.866539, lon.=26.036253, Alt.=158.431763m. Speed=15.264000m/h.</desc>
<speed>4.240000</speed>
</trkpt>
<trkpt lat="55.866535" lon="26.036190">
<ele>158.478638</ele>
<time>2010-07-17T14:50:57Z</time>
<desc>lat.=55.866535, lon.=26.036190, Alt.=158.478638m. Speed=13.788000m/h.</desc>
<speed>3.830000</speed>
</trkpt>
<trkpt lat="55.866535" lon="26.036131">
<ele>160.861450</ele>
<time>2010-07-17T14:50:58Z</time>
<desc>lat.=55.866535, lon.=26.036131, Alt.=160.861450m. Speed=13.572000m/h.</desc>
<speed>3.770000</speed>
</trkpt>
<trkpt lat="55.866531" lon="26.036070">
<ele>161.170044</ele>
<time>2010-07-17T14:50:59Z</time>
<desc>lat.=55.866531, lon.=26.036070, Alt.=161.170044m. Speed=13.068000m/h.</desc>
<speed>3.630000</speed>
</trkpt>
<trkpt lat="55.866531" lon="26.036018">
<ele>161.670044</ele>
<time>2010-07-17T14:51:00Z</time>
<desc>lat.=55.866531, lon.=26.036018, Alt.=161.670044m. Speed=12.384000m/h.</desc>
<speed>3.440000</speed>
</trkpt>
<trkpt lat="55.866528" lon="26.035965">
<ele>161.576294</ele>
<time>2010-07-17T14:51:01Z</time>
<desc>lat.=55.866528, lon.=26.035965, Alt.=161.576294m. Speed=12.132000m/h.</desc>
<speed>3.370000</speed>
</trkpt>
<trkpt lat="55.866524" lon="26.035912">
<ele>162.107544</ele>
<time>2010-07-17T14:51:02Z</time>
<desc>lat.=55.866524, lon.=26.035912, Alt.=162.107544m. Speed=11.916000m/h.</desc>
<speed>3.310000</speed>
</trkpt>
<trkpt lat="55.866520" lon="26.035856">
<ele>161.998169</ele>
<time>2010-07-17T14:51:03Z</time>
<desc>lat.=55.866520, lon.=26.035856, Alt.=161.998169m. Speed=11.772000m/h.</desc>
<speed>3.270000</speed>
</trkpt>
<trkpt lat="55.866516" lon="26.035803">
<ele>162.130981</ele>
<time>2010-07-17T14:51:04Z</time>
<desc>lat.=55.866516, lon.=26.035803, Alt.=162.130981m. Speed=11.916000m/h.</desc>
<speed>3.310000</speed>
</trkpt>
<trkpt lat="55.866512" lon="26.035748">
<ele>162.158325</ele>
<time>2010-07-17T14:51:05Z</time>
<desc>lat.=55.866512, lon.=26.035748, Alt.=162.158325m. Speed=11.664000m/h.</desc>
<speed>3.240000</speed>
</trkpt>
<trkpt lat="55.866505" lon="26.035696">
<ele>162.298950</ele>
<time>2010-07-17T14:51:06Z</time>
<desc>lat.=55.866505, lon.=26.035696, Alt.=162.298950m. Speed=11.808000m/h.</desc>
<speed>3.280000</speed>
</trkpt>
<trkpt lat="55.866497" lon="26.035643">
<ele>162.439575</ele>
<time>2010-07-17T14:51:07Z</time>
<desc>lat.=55.866497, lon.=26.035643, Alt.=162.439575m. Speed=11.916000m/h.</desc>
<speed>3.310000</speed>
</trkpt>
<trkpt lat="55.866493" lon="26.035587">
<ele>162.638794</ele>
<time>2010-07-17T14:51:08Z</time>
<desc>lat.=55.866493, lon.=26.035587, Alt.=162.638794m. Speed=12.636000m/h.</desc>
<speed>3.510000</speed>
</trkpt>
<trkpt lat="55.866486" lon="26.035528">
<ele>162.670044</ele>
<time>2010-07-17T14:51:09Z</time>
<desc>lat.=55.866486, lon.=26.035528, Alt.=162.670044m. Speed=12.312000m/h.</desc>
<speed>3.420000</speed>
</trkpt>
<trkpt lat="55.866478" lon="26.035475">
<ele>162.638794</ele>
<time>2010-07-17T14:51:10Z</time>
<desc>lat.=55.866478, lon.=26.035475, Alt.=162.638794m. Speed=12.456000m/h.</desc>
<speed>3.460000</speed>
</trkpt>
<trkpt lat="55.866470" lon="26.035418">
<ele>162.822388</ele>
<time>2010-07-17T14:51:11Z</time>
<desc>lat.=55.866470, lon.=26.035418, Alt.=162.822388m. Speed=13.464000m/h.</desc>
<speed>3.740000</speed>
</trkpt>
<trkpt lat="55.866463" lon="26.035360">
<ele>162.740356</ele>
<time>2010-07-17T14:51:12Z</time>
<desc>lat.=55.866463, lon.=26.035360, Alt.=162.740356m. Speed=14.220000m/h.</desc>
<speed>3.950000</speed>
</trkpt>
<trkpt lat="55.866451" lon="26.035295">
<ele>162.623169</ele>
<time>2010-07-17T14:51:13Z</time>
<desc>lat.=55.866451, lon.=26.035295, Alt.=162.623169m. Speed=15.264000m/h.</desc>
<speed>4.240000</speed>
</trkpt>
<trkpt lat="55.866444" lon="26.035233">
<ele>162.384888</ele>
<time>2010-07-17T14:51:14Z</time>
<desc>lat.=55.866444, lon.=26.035233, Alt.=162.384888m. Speed=16.344000m/h.</desc>
<speed>4.540000</speed>
</trkpt>
<trkpt lat="55.866432" lon="26.035166">
<ele>161.830200</ele>
<time>2010-07-17T14:51:15Z</time>
<desc>lat.=55.866432, lon.=26.035166, Alt.=161.830200m. Speed=17.388000m/h.</desc>
<speed>4.830000</speed>
</trkpt>
<trkpt lat="55.866421" lon="26.035088">
<ele>161.654419</ele>
<time>2010-07-17T14:51:16Z</time>
<desc>lat.=55.866421, lon.=26.035088, Alt.=161.654419m. Speed=18.288000m/h.</desc>
<speed>5.080000</speed>
</trkpt>
<trkpt lat="55.866409" lon="26.035007">
<ele>161.584106</ele>
<time>2010-07-17T14:51:17Z</time>
<desc>lat.=55.866409, lon.=26.035007, Alt.=161.584106m. Speed=19.007999m/h.</desc>
<speed>5.280000</speed>
</trkpt>
<trkpt lat="55.866398" lon="26.034922">
<ele>161.623169</ele>
<time>2010-07-17T14:51:18Z</time>
<desc>lat.=55.866398, lon.=26.034922, Alt.=161.623169m. Speed=19.403999m/h.</desc>
<speed>5.390000</speed>
</trkpt>
<trkpt lat="55.866390" lon="26.034838">
<ele>161.392700</ele>
<time>2010-07-17T14:51:19Z</time>
<desc>lat.=55.866390, lon.=26.034838, Alt.=161.392700m. Speed=19.728001m/h.</desc>
<speed>5.480000</speed>
</trkpt>
<trkpt lat="55.866383" lon="26.034750">
<ele>160.912231</ele>
<time>2010-07-17T14:51:20Z</time>
<desc>lat.=55.866383, lon.=26.034750, Alt.=160.912231m. Speed=19.799999m/h.</desc>
<speed>5.500000</speed>
</trkpt>
<trkpt lat="55.866375" lon="26.034660">
<ele>161.209106</ele>
<time>2010-07-17T14:51:21Z</time>
<desc>lat.=55.866375, lon.=26.034660, Alt.=161.209106m. Speed=19.656000m/h.</desc>
<speed>5.460000</speed>
</trkpt>
<trkpt lat="55.866383" lon="26.034573">
<ele>164.584106</ele>
<time>2010-07-17T14:51:22Z</time>
<desc>lat.=55.866383, lon.=26.034573, Alt.=164.584106m. Speed=19.368000m/h.</desc>
<speed>5.380000</speed>
</trkpt>
<trkpt lat="55.866371" lon="26.034487">
<ele>165.056763</ele>
<time>2010-07-17T14:51:23Z</time>
<desc>lat.=55.866371, lon.=26.034487, Alt.=165.056763m. Speed=18.900000m/h.</desc>
<speed>5.250000</speed>
</trkpt>
<trkpt lat="55.866364" lon="26.034405">
<ele>165.185669</ele>
<time>2010-07-17T14:51:24Z</time>
<desc>lat.=55.866364, lon.=26.034405, Alt.=165.185669m. Speed=18.360001m/h.</desc>
<speed>5.100000</speed>
</trkpt>
<trkpt lat="55.866356" lon="26.034325">
<ele>165.396606</ele>
<time>2010-07-17T14:51:25Z</time>
<desc>lat.=55.866356, lon.=26.034325, Alt.=165.396606m. Speed=18.000000m/h.</desc>
<speed>5.000000</speed>
</trkpt>
<trkpt lat="55.866348" lon="26.034245">
<ele>164.177856</ele>
<time>2010-07-17T14:51:26Z</time>
<desc>lat.=55.866348, lon.=26.034245, Alt.=164.177856m. Speed=17.604000m/h.</desc>
<speed>4.890000</speed>
</trkpt>
<trkpt lat="55.866341" lon="26.034168">
<ele>164.166138</ele>
<time>2010-07-17T14:51:27Z</time>
<desc>lat.=55.866341, lon.=26.034168, Alt.=164.166138m. Speed=17.351999m/h.</desc>
<speed>4.820000</speed>
</trkpt>
<trkpt lat="55.866341" lon="26.034090">
<ele>163.974731</ele>
<time>2010-07-17T14:51:28Z</time>
<desc>lat.=55.866341, lon.=26.034090, Alt.=163.974731m. Speed=18.108000m/h.</desc>
<speed>5.030000</speed>
</trkpt>
<trkpt lat="55.866337" lon="26.034008">
<ele>164.002075</ele>
<time>2010-07-17T14:51:29Z</time>
<desc>lat.=55.866337, lon.=26.034008, Alt.=164.002075m. Speed=18.216000m/h.</desc>
<speed>5.060000</speed>
</trkpt>
<trkpt lat="55.866337" lon="26.033926">
<ele>164.013794</ele>
<time>2010-07-17T14:51:30Z</time>
<desc>lat.=55.866337, lon.=26.033926, Alt.=164.013794m. Speed=18.431999m/h.</desc>
<speed>5.120000</speed>
</trkpt>
<trkpt lat="55.866333" lon="26.033844">
<ele>163.888794</ele>
<time>2010-07-17T14:51:31Z</time>
<desc>lat.=55.866333, lon.=26.033844, Alt.=163.888794m. Speed=18.540001m/h.</desc>
<speed>5.150000</speed>
</trkpt>
<trkpt lat="55.866333" lon="26.033760">
<ele>163.806763</ele>
<time>2010-07-17T14:51:32Z</time>
<desc>lat.=55.866333, lon.=26.033760, Alt.=163.806763m. Speed=18.431999m/h.</desc>
<speed>5.120000</speed>
</trkpt>
<trkpt lat="55.866329" lon="26.033680">
<ele>163.713013</ele>
<time>2010-07-17T14:51:33Z</time>
<desc>lat.=55.866329, lon.=26.033680, Alt.=163.713013m. Speed=18.396000m/h.</desc>
<speed>5.110000</speed>
</trkpt>
<trkpt lat="55.866325" lon="26.033596">
<ele>163.455200</ele>
<time>2010-07-17T14:51:34Z</time>
<desc>lat.=55.866325, lon.=26.033596, Alt.=163.455200m. Speed=18.360001m/h.</desc>
<speed>5.100000</speed>
</trkpt>
<trkpt lat="55.866325" lon="26.033510">
<ele>163.720825</ele>
<time>2010-07-17T14:51:35Z</time>
<desc>lat.=55.866325, lon.=26.033510, Alt.=163.720825m. Speed=18.216000m/h.</desc>
<speed>5.060000</speed>
</trkpt>
<trkpt lat="55.866322" lon="26.033428">
<ele>163.658325</ele>
<time>2010-07-17T14:51:36Z</time>
<desc>lat.=55.866322, lon.=26.033428, Alt.=163.658325m. Speed=18.396000m/h.</desc>
<speed>5.110000</speed>
</trkpt>
<trkpt lat="55.866322" lon="26.033348">
<ele>163.689575</ele>
<time>2010-07-17T14:51:37Z</time>
<desc>lat.=55.866322, lon.=26.033348, Alt.=163.689575m. Speed=18.323999m/h.</desc>
<speed>5.090000</speed>
</trkpt>
<trkpt lat="55.866322" lon="26.033272">
<ele>163.685669</ele>
<time>2010-07-17T14:51:38Z</time>
<desc>lat.=55.866322, lon.=26.033272, Alt.=163.685669m. Speed=17.136000m/h.</desc>
<speed>4.760000</speed>
</trkpt>
<trkpt lat="55.866318" lon="26.033197">
<ele>163.580200</ele>
<time>2010-07-17T14:51:39Z</time>
<desc>lat.=55.866318, lon.=26.033197, Alt.=163.580200m. Speed=16.955999m/h.</desc>
<speed>4.710000</speed>
</trkpt>
<trkpt lat="55.866322" lon="26.033127">
<ele>163.670044</ele>
<time>2010-07-17T14:51:40Z</time>
<desc>lat.=55.866322, lon.=26.033127, Alt.=163.670044m. Speed=16.740000m/h.</desc>
<speed>4.650000</speed>
</trkpt>
<trkpt lat="55.866322" lon="26.033056">
<ele>163.798950</ele>
<time>2010-07-17T14:51:41Z</time>
<desc>lat.=55.866322, lon.=26.033056, Alt.=163.798950m. Speed=15.696000m/h.</desc>
<speed>4.360000</speed>
</trkpt>
<trkpt lat="55.866325" lon="26.032986">
<ele>163.775513</ele>
<time>2010-07-17T14:51:42Z</time>
<desc>lat.=55.866325, lon.=26.032986, Alt.=163.775513m. Speed=15.768000m/h.</desc>
<speed>4.380000</speed>
</trkpt>
<trkpt lat="55.866329" lon="26.032913">
<ele>164.045044</ele>
<time>2010-07-17T14:51:43Z</time>
<desc>lat.=55.866329, lon.=26.032913, Alt.=164.045044m. Speed=16.667999m/h.</desc>
<speed>4.630000</speed>
</trkpt>
<trkpt lat="55.866329" lon="26.032839">
<ele>163.888794</ele>
<time>2010-07-17T14:51:44Z</time>
<desc>lat.=55.866329, lon.=26.032839, Alt.=163.888794m. Speed=16.992001m/h.</desc>
<speed>4.720000</speed>
</trkpt>
<trkpt lat="55.866329" lon="26.032764">
<ele>163.607544</ele>
<time>2010-07-17T14:51:45Z</time>
<desc>lat.=55.866329, lon.=26.032764, Alt.=163.607544m. Speed=16.740000m/h.</desc>
<speed>4.650000</speed>
</trkpt>
<trkpt lat="55.866325" lon="26.032696">
<ele>163.724731</ele>
<time>2010-07-17T14:51:46Z</time>
<desc>lat.=55.866325, lon.=26.032696, Alt.=163.724731m. Speed=16.271999m/h.</desc>
<speed>4.520000</speed>
</trkpt>
<trkpt lat="55.866325" lon="26.032623">
<ele>163.720825</ele>
<time>2010-07-17T14:51:47Z</time>
<desc>lat.=55.866325, lon.=26.032623, Alt.=163.720825m. Speed=15.552000m/h.</desc>
<speed>4.320000</speed>
</trkpt>
<trkpt lat="55.866322" lon="26.032553">
<ele>163.357544</ele>
<time>2010-07-17T14:51:48Z</time>
<desc>lat.=55.866322, lon.=26.032553, Alt.=163.357544m. Speed=15.300000m/h.</desc>
<speed>4.250000</speed>
</trkpt>
<trkpt lat="55.866322" lon="26.032486">
<ele>163.142700</ele>
<time>2010-07-17T14:51:49Z</time>
<desc>lat.=55.866322, lon.=26.032486, Alt.=163.142700m. Speed=15.012000m/h.</desc>
<speed>4.170000</speed>
</trkpt>
<trkpt lat="55.866318" lon="26.032417">
<ele>163.130981</ele>
<time>2010-07-17T14:51:50Z</time>
<desc>lat.=55.866318, lon.=26.032417, Alt.=163.130981m. Speed=14.796000m/h.</desc>
<speed>4.110000</speed>
</trkpt>
<trkpt lat="55.866318" lon="26.032352">
<ele>163.048950</ele>
<time>2010-07-17T14:51:51Z</time>
<desc>lat.=55.866318, lon.=26.032352, Alt.=163.048950m. Speed=14.796000m/h.</desc>
<speed>4.110000</speed>
</trkpt>
<trkpt lat="55.866322" lon="26.032288">
<ele>162.873169</ele>
<time>2010-07-17T14:51:52Z</time>
<desc>lat.=55.866322, lon.=26.032288, Alt.=162.873169m. Speed=14.940000m/h.</desc>
<speed>4.150000</speed>
</trkpt>
<trkpt lat="55.866325" lon="26.032219">
<ele>162.654419</ele>
<time>2010-07-17T14:51:53Z</time>
<desc>lat.=55.866325, lon.=26.032219, Alt.=162.654419m. Speed=15.516000m/h.</desc>
<speed>4.310000</speed>
</trkpt>
<trkpt lat="55.866329" lon="26.032148">
<ele>162.353638</ele>
<time>2010-07-17T14:51:54Z</time>
<desc>lat.=55.866329, lon.=26.032148, Alt.=162.353638m. Speed=15.804000m/h.</desc>
<speed>4.390000</speed>
</trkpt>
<trkpt lat="55.866333" lon="26.032082">
<ele>162.314575</ele>
<time>2010-07-17T14:51:55Z</time>
<desc>lat.=55.866333, lon.=26.032082, Alt.=162.314575m. Speed=16.848000m/h.</desc>
<speed>4.680000</speed>
</trkpt>
<trkpt lat="55.866337" lon="26.032003">
<ele>162.334106</ele>
<time>2010-07-17T14:51:56Z</time>
<desc>lat.=55.866337, lon.=26.032003, Alt.=162.334106m. Speed=17.964001m/h.</desc>
<speed>4.990000</speed>
</trkpt>
<trkpt lat="55.866337" lon="26.031923">
<ele>162.045044</ele>
<time>2010-07-17T14:51:57Z</time>
<desc>lat.=55.866337, lon.=26.031923, Alt.=162.045044m. Speed=18.864000m/h.</desc>
<speed>5.240000</speed>
</trkpt>
<trkpt lat="55.866337" lon="26.031834">
<ele>161.201294</ele>
<time>2010-07-17T14:51:58Z</time>
<desc>lat.=55.866337, lon.=26.031834, Alt.=161.201294m. Speed=20.160000m/h.</desc>
<speed>5.600000</speed>
</trkpt>
<trkpt lat="55.866341" lon="26.031744">
<ele>160.943481</ele>
<time>2010-07-17T14:51:59Z</time>
<desc>lat.=55.866341, lon.=26.031744, Alt.=160.943481m. Speed=21.312000m/h.</desc>
<speed>5.920000</speed>
</trkpt>
<trkpt lat="55.866348" lon="26.031645">
<ele>160.548950</ele>
<time>2010-07-17T14:52:00Z</time>
<desc>lat.=55.866348, lon.=26.031645, Alt.=160.548950m. Speed=22.860001m/h.</desc>
<speed>6.350000</speed>
</trkpt>
<trkpt lat="55.866356" lon="26.031536">
<ele>159.935669</ele>
<time>2010-07-17T14:52:01Z</time>
<desc>lat.=55.866356, lon.=26.031536, Alt.=159.935669m. Speed=24.516001m/h.</desc>
<speed>6.810000</speed>
</trkpt>
<trkpt lat="55.866371" lon="26.031422">
<ele>159.127075</ele>
<time>2010-07-17T14:52:02Z</time>
<desc>lat.=55.866371, lon.=26.031422, Alt.=159.127075m. Speed=25.740000m/h.</desc>
<speed>7.150000</speed>
</trkpt>
<trkpt lat="55.866383" lon="26.031305">
<ele>158.205200</ele>
<time>2010-07-17T14:52:03Z</time>
<desc>lat.=55.866383, lon.=26.031305, Alt.=158.205200m. Speed=26.892000m/h.</desc>
<speed>7.470000</speed>
</trkpt>
<trkpt lat="55.866398" lon="26.031183">
<ele>157.228638</ele>
<time>2010-07-17T14:52:04Z</time>
<desc>lat.=55.866398, lon.=26.031183, Alt.=157.228638m. Speed=27.143999m/h.</desc>
<speed>7.540000</speed>
</trkpt>
<trkpt lat="55.866413" lon="26.031067">
<ele>156.560669</ele>
<time>2010-07-17T14:52:05Z</time>
<desc>lat.=55.866413, lon.=26.031067, Alt.=156.560669m. Speed=25.704000m/h.</desc>
<speed>7.140000</speed>
</trkpt>
<trkpt lat="55.866428" lon="26.030962">
<ele>156.252075</ele>
<time>2010-07-17T14:52:06Z</time>
<desc>lat.=55.866428, lon.=26.030962, Alt.=156.252075m. Speed=22.860001m/h.</desc>
<speed>6.350000</speed>
</trkpt>
<trkpt lat="55.866444" lon="26.030859">
<ele>156.107544</ele>
<time>2010-07-17T14:52:07Z</time>
<desc>lat.=55.866444, lon.=26.030859, Alt.=156.107544m. Speed=23.903999m/h.</desc>
<speed>6.640000</speed>
</trkpt>
<trkpt lat="55.866470" lon="26.030745">
<ele>157.845825</ele>
<time>2010-07-17T14:52:08Z</time>
<desc>lat.=55.866470, lon.=26.030745, Alt.=157.845825m. Speed=24.372000m/h.</desc>
<speed>6.770000</speed>
</trkpt>
<trkpt lat="55.866489" lon="26.030649">
<ele>158.064575</ele>
<time>2010-07-17T14:52:09Z</time>
<desc>lat.=55.866489, lon.=26.030649, Alt.=158.064575m. Speed=22.176001m/h.</desc>
<speed>6.160000</speed>
</trkpt>
<trkpt lat="55.866508" lon="26.030563">
<ele>158.255981</ele>
<time>2010-07-17T14:52:10Z</time>
<desc>lat.=55.866508, lon.=26.030563, Alt.=158.255981m. Speed=20.375999m/h.</desc>
<speed>5.660000</speed>
</trkpt>
<trkpt lat="55.866528" lon="26.030485">
<ele>158.588013</ele>
<time>2010-07-17T14:52:11Z</time>
<desc>lat.=55.866528, lon.=26.030485, Alt.=158.588013m. Speed=18.252001m/h.</desc>
<speed>5.070000</speed>
</trkpt>
<trkpt lat="55.866547" lon="26.030411">
<ele>158.826294</ele>
<time>2010-07-17T14:52:12Z</time>
<desc>lat.=55.866547, lon.=26.030411, Alt.=158.826294m. Speed=17.532000m/h.</desc>
<speed>4.870000</speed>
</trkpt>
<trkpt lat="55.866566" lon="26.030348">
<ele>159.295044</ele>
<time>2010-07-17T14:52:13Z</time>
<desc>lat.=55.866566, lon.=26.030348, Alt.=159.295044m. Speed=15.264000m/h.</desc>
<speed>4.240000</speed>
</trkpt>
<trkpt lat="55.866581" lon="26.030302">
<ele>159.607544</ele>
<time>2010-07-17T14:52:14Z</time>
<desc>lat.=55.866581, lon.=26.030302, Alt.=159.607544m. Speed=9.288000m/h.</desc>
<speed>2.580000</speed>
</trkpt>
<trkpt lat="55.866592" lon="26.030266">
<ele>159.896606</ele>
<time>2010-07-17T14:52:15Z</time>
<desc>lat.=55.866592, lon.=26.030266, Alt.=159.896606m. Speed=8.856000m/h.</desc>
<speed>2.460000</speed>
</trkpt>
<trkpt lat="55.866608" lon="26.030243">
<ele>160.373169</ele>
<time>2010-07-17T14:52:16Z</time>
<desc>lat.=55.866608, lon.=26.030243, Alt.=160.373169m. Speed=7.560000m/h.</desc>
<speed>2.100000</speed>
</trkpt>
<trkpt lat="55.866619" lon="26.030222">
<ele>160.900513</ele>
<time>2010-07-17T14:52:17Z</time>
<desc>lat.=55.866619, lon.=26.030222, Alt.=160.900513m. Speed=8.280000m/h.</desc>
<speed>2.300000</speed>
</trkpt>
<trkpt lat="55.866623" lon="26.030193">
<ele>161.115356</ele>
<time>2010-07-17T14:52:18Z</time>
<desc>lat.=55.866623, lon.=26.030193, Alt.=161.115356m. Speed=5.760000m/h.</desc>
<speed>1.600000</speed>
</trkpt>
<trkpt lat="55.866631" lon="26.030176">
<ele>161.322388</ele>
<time>2010-07-17T14:52:19Z</time>
<desc>lat.=55.866631, lon.=26.030176, Alt.=161.322388m. Speed=6.624000m/h.</desc>
<speed>1.840000</speed>
</trkpt>
<trkpt lat="55.866638" lon="26.030157">
<ele>161.396606</ele>
<time>2010-07-17T14:52:20Z</time>
<desc>lat.=55.866638, lon.=26.030157, Alt.=161.396606m. Speed=5.328000m/h.</desc>
<speed>1.480000</speed>
</trkpt>
<trkpt lat="55.866646" lon="26.030136">
<ele>161.580200</ele>
<time>2010-07-17T14:52:21Z</time>
<desc>lat.=55.866646, lon.=26.030136, Alt.=161.580200m. Speed=5.904000m/h.</desc>
<speed>1.640000</speed>
</trkpt>
<trkpt lat="55.866657" lon="26.030109">
<ele>161.795044</ele>
<time>2010-07-17T14:52:22Z</time>
<desc>lat.=55.866657, lon.=26.030109, Alt.=161.795044m. Speed=7.236000m/h.</desc>
<speed>2.010000</speed>
</trkpt>
<trkpt lat="55.866669" lon="26.030077">
<ele>162.201294</ele>
<time>2010-07-17T14:52:23Z</time>
<desc>lat.=55.866669, lon.=26.030077, Alt.=162.201294m. Speed=8.856000m/h.</desc>
<speed>2.460000</speed>
</trkpt>
<trkpt lat="55.866684" lon="26.030039">
<ele>162.185669</ele>
<time>2010-07-17T14:52:24Z</time>
<desc>lat.=55.866684, lon.=26.030039, Alt.=162.185669m. Speed=9.720000m/h.</desc>
<speed>2.700000</speed>
</trkpt>
<trkpt lat="55.866695" lon="26.029991">
<ele>162.826294</ele>
<time>2010-07-17T14:52:25Z</time>
<desc>lat.=55.866695, lon.=26.029991, Alt.=162.826294m. Speed=9.720000m/h.</desc>
<speed>2.700000</speed>
</trkpt>
<trkpt lat="55.866707" lon="26.029945">
<ele>162.904419</ele>
<time>2010-07-17T14:52:26Z</time>
<desc>lat.=55.866707, lon.=26.029945, Alt.=162.904419m. Speed=11.664000m/h.</desc>
<speed>3.240000</speed>
</trkpt>
<trkpt lat="55.866722" lon="26.029905">
<ele>163.306763</ele>
<time>2010-07-17T14:52:27Z</time>
<desc>lat.=55.866722, lon.=26.029905, Alt.=163.306763m. Speed=10.800000m/h.</desc>
<speed>3.000000</speed>
</trkpt>
<trkpt lat="55.866734" lon="26.029871">
<ele>163.455200</ele>
<time>2010-07-17T14:52:28Z</time>
<desc>lat.=55.866734, lon.=26.029871, Alt.=163.455200m. Speed=10.224000m/h.</desc>
<speed>2.840000</speed>
</trkpt>
<trkpt lat="55.866745" lon="26.029821">
<ele>163.603638</ele>
<time>2010-07-17T14:52:29Z</time>
<desc>lat.=55.866745, lon.=26.029821, Alt.=163.603638m. Speed=11.376000m/h.</desc>
<speed>3.160000</speed>
</trkpt>
<trkpt lat="55.866756" lon="26.029778">
<ele>163.568481</ele>
<time>2010-07-17T14:52:30Z</time>
<desc>lat.=55.866756, lon.=26.029778, Alt.=163.568481m. Speed=10.440000m/h.</desc>
<speed>2.900000</speed>
</trkpt>
<trkpt lat="55.866768" lon="26.029734">
<ele>163.744263</ele>
<time>2010-07-17T14:52:31Z</time>
<desc>lat.=55.866768, lon.=26.029734, Alt.=163.744263m. Speed=9.144000m/h.</desc>
<speed>2.540000</speed>
</trkpt>
<trkpt lat="55.866779" lon="26.029676">
<ele>163.482544</ele>
<time>2010-07-17T14:52:32Z</time>
<desc>lat.=55.866779, lon.=26.029676, Alt.=163.482544m. Speed=11.988000m/h.</desc>
<speed>3.330000</speed>
</trkpt>
<trkpt lat="55.866791" lon="26.029633">
<ele>163.443481</ele>
<time>2010-07-17T14:52:33Z</time>
<desc>lat.=55.866791, lon.=26.029633, Alt.=163.443481m. Speed=10.764000m/h.</desc>
<speed>2.990000</speed>
</trkpt>
<trkpt lat="55.866802" lon="26.029593">
<ele>163.193481</ele>
<time>2010-07-17T14:52:34Z</time>
<desc>lat.=55.866802, lon.=26.029593, Alt.=163.193481m. Speed=10.800000m/h.</desc>
<speed>3.000000</speed>
</trkpt>
<trkpt lat="55.866814" lon="26.029547">
<ele>163.056763</ele>
<time>2010-07-17T14:52:35Z</time>
<desc>lat.=55.866814, lon.=26.029547, Alt.=163.056763m. Speed=11.736000m/h.</desc>
<speed>3.260000</speed>
</trkpt>
<trkpt lat="55.866821" lon="26.029501">
<ele>163.076294</ele>
<time>2010-07-17T14:52:36Z</time>
<desc>lat.=55.866821, lon.=26.029501, Alt.=163.076294m. Speed=10.404000m/h.</desc>
<speed>2.890000</speed>
</trkpt>
<trkpt lat="55.866833" lon="26.029461">
<ele>162.888794</ele>
<time>2010-07-17T14:52:37Z</time>
<desc>lat.=55.866833, lon.=26.029461, Alt.=162.888794m. Speed=10.368000m/h.</desc>
<speed>2.880000</speed>
</trkpt>
<trkpt lat="55.866844" lon="26.029415">
<ele>163.068481</ele>
<time>2010-07-17T14:52:38Z</time>
<desc>lat.=55.866844, lon.=26.029415, Alt.=163.068481m. Speed=10.620000m/h.</desc>
<speed>2.950000</speed>
</trkpt>
<trkpt lat="55.866856" lon="26.029371">
<ele>162.966919</ele>
<time>2010-07-17T14:52:39Z</time>
<desc>lat.=55.866856, lon.=26.029371, Alt.=162.966919m. Speed=10.548000m/h.</desc>
<speed>2.930000</speed>
</trkpt>
<trkpt lat="55.866863" lon="26.029329">
<ele>162.951294</ele>
<time>2010-07-17T14:52:40Z</time>
<desc>lat.=55.866863, lon.=26.029329, Alt.=162.951294m. Speed=10.404000m/h.</desc>
<speed>2.890000</speed>
</trkpt>
<trkpt lat="55.866875" lon="26.029293">
<ele>163.431763</ele>
<time>2010-07-17T14:52:41Z</time>
<desc>lat.=55.866875, lon.=26.029293, Alt.=163.431763m. Speed=10.836000m/h.</desc>
<speed>3.010000</speed>
</trkpt>
<trkpt lat="55.866886" lon="26.029240">
<ele>163.451294</ele>
<time>2010-07-17T14:52:42Z</time>
<desc>lat.=55.866886, lon.=26.029240, Alt.=163.451294m. Speed=12.888000m/h.</desc>
<speed>3.580000</speed>
</trkpt>
<trkpt lat="55.866898" lon="26.029184">
<ele>163.404419</ele>
<time>2010-07-17T14:52:43Z</time>
<desc>lat.=55.866898, lon.=26.029184, Alt.=163.404419m. Speed=13.392000m/h.</desc>
<speed>3.720000</speed>
</trkpt>
<trkpt lat="55.866913" lon="26.029125">
<ele>163.959106</ele>
<time>2010-07-17T14:52:44Z</time>
<desc>lat.=55.866913, lon.=26.029125, Alt.=163.959106m. Speed=11.844000m/h.</desc>
<speed>3.290000</speed>
</trkpt>
<trkpt lat="55.866928" lon="26.029076">
<ele>163.908325</ele>
<time>2010-07-17T14:52:45Z</time>
<desc>lat.=55.866928, lon.=26.029076, Alt.=163.908325m. Speed=12.132000m/h.</desc>
<speed>3.370000</speed>
</trkpt>
<trkpt lat="55.866940" lon="26.029034">
<ele>163.666138</ele>
<time>2010-07-17T14:52:46Z</time>
<desc>lat.=55.866940, lon.=26.029034, Alt.=163.666138m. Speed=12.132000m/h.</desc>
<speed>3.370000</speed>
</trkpt>
<trkpt lat="55.866951" lon="26.028982">
<ele>163.634888</ele>
<time>2010-07-17T14:52:47Z</time>
<desc>lat.=55.866951, lon.=26.028982, Alt.=163.634888m. Speed=12.240000m/h.</desc>
<speed>3.400000</speed>
</trkpt>
<trkpt lat="55.866962" lon="26.028934">
<ele>163.709106</ele>
<time>2010-07-17T14:52:48Z</time>
<desc>lat.=55.866962, lon.=26.028934, Alt.=163.709106m. Speed=11.556000m/h.</desc>
<speed>3.210000</speed>
</trkpt>
<trkpt lat="55.866974" lon="26.028891">
<ele>163.623169</ele>
<time>2010-07-17T14:52:49Z</time>
<desc>lat.=55.866974, lon.=26.028891, Alt.=163.623169m. Speed=11.016000m/h.</desc>
<speed>3.060000</speed>
</trkpt>
<trkpt lat="55.866985" lon="26.028835">
<ele>163.080200</ele>
<time>2010-07-17T14:52:50Z</time>
<desc>lat.=55.866985, lon.=26.028835, Alt.=163.080200m. Speed=12.168000m/h.</desc>
<speed>3.380000</speed>
</trkpt>
<trkpt lat="55.866997" lon="26.028780">
<ele>163.213013</ele>
<time>2010-07-17T14:52:51Z</time>
<desc>lat.=55.866997, lon.=26.028780, Alt.=163.213013m. Speed=12.672000m/h.</desc>
<speed>3.520000</speed>
</trkpt>
<trkpt lat="55.867008" lon="26.028734">
<ele>163.420044</ele>
<time>2010-07-17T14:52:52Z</time>
<desc>lat.=55.867008, lon.=26.028734, Alt.=163.420044m. Speed=11.952000m/h.</desc>
<speed>3.320000</speed>
</trkpt>
<trkpt lat="55.867016" lon="26.028667">
<ele>162.994263</ele>
<time>2010-07-17T14:52:53Z</time>
<desc>lat.=55.867016, lon.=26.028667, Alt.=162.994263m. Speed=15.156000m/h.</desc>
<speed>4.210000</speed>
</trkpt>
<trkpt lat="55.867027" lon="26.028603">
<ele>163.295044</ele>
<time>2010-07-17T14:52:54Z</time>
<desc>lat.=55.867027, lon.=26.028603, Alt.=163.295044m. Speed=15.516000m/h.</desc>
<speed>4.310000</speed>
</trkpt>
<trkpt lat="55.867039" lon="26.028538">
<ele>163.365356</ele>
<time>2010-07-17T14:52:55Z</time>
<desc>lat.=55.867039, lon.=26.028538, Alt.=163.365356m. Speed=15.660000m/h.</desc>
<speed>4.350000</speed>
</trkpt>
<trkpt lat="55.867058" lon="26.028469">
<ele>164.013794</ele>
<time>2010-07-17T14:52:56Z</time>
<desc>lat.=55.867058, lon.=26.028469, Alt.=164.013794m. Speed=15.624000m/h.</desc>
<speed>4.340000</speed>
</trkpt>
<trkpt lat="55.867073" lon="26.028408">
<ele>163.880981</ele>
<time>2010-07-17T14:52:57Z</time>
<desc>lat.=55.867073, lon.=26.028408, Alt.=163.880981m. Speed=15.048000m/h.</desc>
<speed>4.180000</speed>
</trkpt>
<trkpt lat="55.867088" lon="26.028337">
<ele>164.197388</ele>
<time>2010-07-17T14:52:58Z</time>
<desc>lat.=55.867088, lon.=26.028337, Alt.=164.197388m. Speed=14.292000m/h.</desc>
<speed>3.970000</speed>
</trkpt>
<trkpt lat="55.867100" lon="26.028259">
<ele>164.880981</ele>
<time>2010-07-17T14:52:59Z</time>
<desc>lat.=55.867100, lon.=26.028259, Alt.=164.880981m. Speed=14.112000m/h.</desc>
<speed>3.920000</speed>
</trkpt>
<trkpt lat="55.867107" lon="26.028191">
<ele>165.095825</ele>
<time>2010-07-17T14:53:00Z</time>
<desc>lat.=55.867107, lon.=26.028191, Alt.=165.095825m. Speed=14.220000m/h.</desc>
<speed>3.950000</speed>
</trkpt>
<trkpt lat="55.867115" lon="26.028130">
<ele>164.732544</ele>
<time>2010-07-17T14:53:01Z</time>
<desc>lat.=55.867115, lon.=26.028130, Alt.=164.732544m. Speed=13.284000m/h.</desc>
<speed>3.690000</speed>
</trkpt>
<trkpt lat="55.867123" lon="26.028072">
<ele>164.978638</ele>
<time>2010-07-17T14:53:02Z</time>
<desc>lat.=55.867123, lon.=26.028072, Alt.=164.978638m. Speed=13.104000m/h.</desc>
<speed>3.640000</speed>
</trkpt>
<trkpt lat="55.867130" lon="26.028013">
<ele>165.150513</ele>
<time>2010-07-17T14:53:03Z</time>
<desc>lat.=55.867130, lon.=26.028013, Alt.=165.150513m. Speed=15.264000m/h.</desc>
<speed>4.240000</speed>
</trkpt>
<trkpt lat="55.867142" lon="26.027950">
<ele>165.107544</ele>
<time>2010-07-17T14:53:04Z</time>
<desc>lat.=55.867142, lon.=26.027950, Alt.=165.107544m. Speed=15.588000m/h.</desc>
<speed>4.330000</speed>
</trkpt>
<trkpt lat="55.867153" lon="26.027891">
<ele>165.658325</ele>
<time>2010-07-17T14:53:05Z</time>
<desc>lat.=55.867153, lon.=26.027891, Alt.=165.658325m. Speed=17.459999m/h.</desc>
<speed>4.850000</speed>
</trkpt>
<trkpt lat="55.867168" lon="26.027821">
<ele>165.103638</ele>
<time>2010-07-17T14:53:06Z</time>
<desc>lat.=55.867168, lon.=26.027821, Alt.=165.103638m. Speed=17.280001m/h.</desc>
<speed>4.800000</speed>
</trkpt>
<trkpt lat="55.867180" lon="26.027748">
<ele>164.787231</ele>
<time>2010-07-17T14:53:07Z</time>
<desc>lat.=55.867180, lon.=26.027748, Alt.=164.787231m. Speed=17.316000m/h.</desc>
<speed>4.810000</speed>
</trkpt>
<trkpt lat="55.867195" lon="26.027676">
<ele>164.056763</ele>
<time>2010-07-17T14:53:08Z</time>
<desc>lat.=55.867195, lon.=26.027676, Alt.=164.056763m. Speed=14.652000m/h.</desc>
<speed>4.070000</speed>
</trkpt>
<trkpt lat="55.867210" lon="26.027605">
<ele>163.541138</ele>
<time>2010-07-17T14:53:09Z</time>
<desc>lat.=55.867210, lon.=26.027605, Alt.=163.541138m. Speed=17.604000m/h.</desc>
<speed>4.890000</speed>
</trkpt>
<trkpt lat="55.867226" lon="26.027533">
<ele>163.052856</ele>
<time>2010-07-17T14:53:10Z</time>
<desc>lat.=55.867226, lon.=26.027533, Alt.=163.052856m. Speed=19.044001m/h.</desc>
<speed>5.290000</speed>
</trkpt>
<trkpt lat="55.867245" lon="26.027460">
<ele>162.802856</ele>
<time>2010-07-17T14:53:11Z</time>
<desc>lat.=55.867245, lon.=26.027460, Alt.=162.802856m. Speed=18.648001m/h.</desc>
<speed>5.180000</speed>
</trkpt>
<trkpt lat="55.867268" lon="26.027390">
<ele>162.978638</ele>
<time>2010-07-17T14:53:12Z</time>
<desc>lat.=55.867268, lon.=26.027390, Alt.=162.978638m. Speed=20.160000m/h.</desc>
<speed>5.600000</speed>
</trkpt>
<trkpt lat="55.867290" lon="26.027311">
<ele>162.994263</ele>
<time>2010-07-17T14:53:13Z</time>
<desc>lat.=55.867290, lon.=26.027311, Alt.=162.994263m. Speed=20.195999m/h.</desc>
<speed>5.610000</speed>
</trkpt>
<trkpt lat="55.867317" lon="26.027233">
<ele>163.127075</ele>
<time>2010-07-17T14:53:14Z</time>
<desc>lat.=55.867317, lon.=26.027233, Alt.=163.127075m. Speed=20.340000m/h.</desc>
<speed>5.650000</speed>
</trkpt>
<trkpt lat="55.867348" lon="26.027155">
<ele>163.431763</ele>
<time>2010-07-17T14:53:15Z</time>
<desc>lat.=55.867348, lon.=26.027155, Alt.=163.431763m. Speed=20.700001m/h.</desc>
<speed>5.750000</speed>
</trkpt>
<trkpt lat="55.867371" lon="26.027081">
<ele>163.357544</ele>
<time>2010-07-17T14:53:16Z</time>
<desc>lat.=55.867371, lon.=26.027081, Alt.=163.357544m. Speed=19.836000m/h.</desc>
<speed>5.510000</speed>
</trkpt>
<trkpt lat="55.867401" lon="26.027002">
<ele>162.955200</ele>
<time>2010-07-17T14:53:17Z</time>
<desc>lat.=55.867401, lon.=26.027002, Alt.=162.955200m. Speed=19.152000m/h.</desc>
<speed>5.320000</speed>
</trkpt>
<trkpt lat="55.867428" lon="26.026926">
<ele>163.353638</ele>
<time>2010-07-17T14:53:18Z</time>
<desc>lat.=55.867428, lon.=26.026926, Alt.=163.353638m. Speed=18.540001m/h.</desc>
<speed>5.150000</speed>
</trkpt>
<trkpt lat="55.867455" lon="26.026855">
<ele>163.791138</ele>
<time>2010-07-17T14:53:19Z</time>
<desc>lat.=55.867455, lon.=26.026855, Alt.=163.791138m. Speed=16.775999m/h.</desc>
<speed>4.660000</speed>
</trkpt>
<trkpt lat="55.867477" lon="26.026794">
<ele>163.298950</ele>
<time>2010-07-17T14:53:20Z</time>
<desc>lat.=55.867477, lon.=26.026794, Alt.=163.298950m. Speed=16.452000m/h.</desc>
<speed>4.570000</speed>
</trkpt>
<trkpt lat="55.867496" lon="26.026737">
<ele>163.115356</ele>
<time>2010-07-17T14:53:21Z</time>
<desc>lat.=55.867496, lon.=26.026737, Alt.=163.115356m. Speed=15.876000m/h.</desc>
<speed>4.410000</speed>
</trkpt>
<trkpt lat="55.867519" lon="26.026684">
<ele>163.580200</ele>
<time>2010-07-17T14:53:22Z</time>
<desc>lat.=55.867519, lon.=26.026684, Alt.=163.580200m. Speed=14.652000m/h.</desc>
<speed>4.070000</speed>
</trkpt>
<trkpt lat="55.867542" lon="26.026630">
<ele>163.986450</ele>
<time>2010-07-17T14:53:23Z</time>
<desc>lat.=55.867542, lon.=26.026630, Alt.=163.986450m. Speed=13.752000m/h.</desc>
<speed>3.820000</speed>
</trkpt>
<trkpt lat="55.867561" lon="26.026579">
<ele>164.845825</ele>
<time>2010-07-17T14:53:24Z</time>
<desc>lat.=55.867561, lon.=26.026579, Alt.=164.845825m. Speed=12.276000m/h.</desc>
<speed>3.410000</speed>
</trkpt>
<trkpt lat="55.867580" lon="26.026529">
<ele>164.693481</ele>
<time>2010-07-17T14:53:25Z</time>
<desc>lat.=55.867580, lon.=26.026529, Alt.=164.693481m. Speed=14.220000m/h.</desc>
<speed>3.950000</speed>
</trkpt>
<trkpt lat="55.867599" lon="26.026476">
<ele>164.724731</ele>
<time>2010-07-17T14:53:26Z</time>
<desc>lat.=55.867599, lon.=26.026476, Alt.=164.724731m. Speed=13.536000m/h.</desc>
<speed>3.760000</speed>
</trkpt>
<trkpt lat="55.867619" lon="26.026426">
<ele>164.732544</ele>
<time>2010-07-17T14:53:27Z</time>
<desc>lat.=55.867619, lon.=26.026426, Alt.=164.732544m. Speed=13.428000m/h.</desc>
<speed>3.730000</speed>
</trkpt>
<trkpt lat="55.867641" lon="26.026371">
<ele>165.119263</ele>
<time>2010-07-17T14:53:28Z</time>
<desc>lat.=55.867641, lon.=26.026371, Alt.=165.119263m. Speed=14.688000m/h.</desc>
<speed>4.080000</speed>
</trkpt>
<trkpt lat="55.867661" lon="26.026312">
<ele>165.279419</ele>
<time>2010-07-17T14:53:29Z</time>
<desc>lat.=55.867661, lon.=26.026312, Alt.=165.279419m. Speed=16.667999m/h.</desc>
<speed>4.630000</speed>
</trkpt>
<trkpt lat="55.867680" lon="26.026251">
<ele>165.103638</ele>
<time>2010-07-17T14:53:30Z</time>
<desc>lat.=55.867680, lon.=26.026251, Alt.=165.103638m. Speed=14.040000m/h.</desc>
<speed>3.900000</speed>
</trkpt>
<trkpt lat="55.867695" lon="26.026203">
<ele>164.908325</ele>
<time>2010-07-17T14:53:31Z</time>
<desc>lat.=55.867695, lon.=26.026203, Alt.=164.908325m. Speed=10.476000m/h.</desc>
<speed>2.910000</speed>
</trkpt>
<trkpt lat="55.867710" lon="26.026161">
<ele>164.822388</ele>
<time>2010-07-17T14:53:32Z</time>
<desc>lat.=55.867710, lon.=26.026161, Alt.=164.822388m. Speed=10.044000m/h.</desc>
<speed>2.790000</speed>
</trkpt>
<trkpt lat="55.867722" lon="26.026129">
<ele>164.302856</ele>
<time>2010-07-17T14:53:33Z</time>
<desc>lat.=55.867722, lon.=26.026129, Alt.=164.302856m. Speed=8.532000m/h.</desc>
<speed>2.370000</speed>
</trkpt>
<trkpt lat="55.867733" lon="26.026094">
<ele>164.279419</ele>
<time>2010-07-17T14:53:34Z</time>
<desc>lat.=55.867733, lon.=26.026094, Alt.=164.279419m. Speed=9.000000m/h.</desc>
<speed>2.500000</speed>
</trkpt>
<trkpt lat="55.867744" lon="26.026052">
<ele>164.088013</ele>
<time>2010-07-17T14:53:35Z</time>
<desc>lat.=55.867744, lon.=26.026052, Alt.=164.088013m. Speed=11.160000m/h.</desc>
<speed>3.100000</speed>
</trkpt>
<trkpt lat="55.867752" lon="26.025999">
<ele>163.646606</ele>
<time>2010-07-17T14:53:36Z</time>
<desc>lat.=55.867752, lon.=26.025999, Alt.=163.646606m. Speed=12.240000m/h.</desc>
<speed>3.400000</speed>
</trkpt>
<trkpt lat="55.867771" lon="26.025953">
<ele>164.103638</ele>
<time>2010-07-17T14:53:37Z</time>
<desc>lat.=55.867771, lon.=26.025953, Alt.=164.103638m. Speed=12.168000m/h.</desc>
<speed>3.380000</speed>
</trkpt>
<trkpt lat="55.867786" lon="26.025902">
<ele>164.466919</ele>
<time>2010-07-17T14:53:38Z</time>
<desc>lat.=55.867786, lon.=26.025902, Alt.=164.466919m. Speed=14.652000m/h.</desc>
<speed>4.070000</speed>
</trkpt>
<trkpt lat="55.867805" lon="26.025841">
<ele>164.537231</ele>
<time>2010-07-17T14:53:39Z</time>
<desc>lat.=55.867805, lon.=26.025841, Alt.=164.537231m. Speed=16.128000m/h.</desc>
<speed>4.480000</speed>
</trkpt>
<trkpt lat="55.867828" lon="26.025772">
<ele>165.263794</ele>
<time>2010-07-17T14:53:40Z</time>
<desc>lat.=55.867828, lon.=26.025772, Alt.=165.263794m. Speed=16.128000m/h.</desc>
<speed>4.480000</speed>
</trkpt>
<trkpt lat="55.867844" lon="26.025703">
<ele>165.861450</ele>
<time>2010-07-17T14:53:41Z</time>
<desc>lat.=55.867844, lon.=26.025703, Alt.=165.861450m. Speed=15.912000m/h.</desc>
<speed>4.420000</speed>
</trkpt>
<trkpt lat="55.867863" lon="26.025633">
<ele>166.650513</ele>
<time>2010-07-17T14:53:42Z</time>
<desc>lat.=55.867863, lon.=26.025633, Alt.=166.650513m. Speed=14.940000m/h.</desc>
<speed>4.150000</speed>
</trkpt>
<trkpt lat="55.867878" lon="26.025578">
<ele>166.814575</ele>
<time>2010-07-17T14:53:43Z</time>
<desc>lat.=55.867878, lon.=26.025578, Alt.=166.814575m. Speed=13.068000m/h.</desc>
<speed>3.630000</speed>
</trkpt>
<trkpt lat="55.867886" lon="26.025518">
<ele>166.693481</ele>
<time>2010-07-17T14:53:44Z</time>
<desc>lat.=55.867886, lon.=26.025518, Alt.=166.693481m. Speed=13.896000m/h.</desc>
<speed>3.860000</speed>
</trkpt>
<trkpt lat="55.867897" lon="26.025450">
<ele>166.080200</ele>
<time>2010-07-17T14:53:45Z</time>
<desc>lat.=55.867897, lon.=26.025450, Alt.=166.080200m. Speed=12.420000m/h.</desc>
<speed>3.450000</speed>
</trkpt>
<trkpt lat="55.867905" lon="26.025404">
<ele>165.912231</ele>
<time>2010-07-17T14:53:46Z</time>
<desc>lat.=55.867905, lon.=26.025404, Alt.=165.912231m. Speed=13.356000m/h.</desc>
<speed>3.710000</speed>
</trkpt>
<trkpt lat="55.867912" lon="26.025352">
<ele>166.170044</ele>
<time>2010-07-17T14:53:47Z</time>
<desc>lat.=55.867912, lon.=26.025352, Alt.=166.170044m. Speed=13.284000m/h.</desc>
<speed>3.690000</speed>
</trkpt>
<trkpt lat="55.867912" lon="26.025297">
<ele>166.201294</ele>
<time>2010-07-17T14:53:48Z</time>
<desc>lat.=55.867912, lon.=26.025297, Alt.=166.201294m. Speed=12.168000m/h.</desc>
<speed>3.380000</speed>
</trkpt>
<trkpt lat="55.867920" lon="26.025240">
<ele>166.955200</ele>
<time>2010-07-17T14:53:49Z</time>
<desc>lat.=55.867920, lon.=26.025240, Alt.=166.955200m. Speed=12.096000m/h.</desc>
<speed>3.360000</speed>
</trkpt>
<trkpt lat="55.867931" lon="26.025187">
<ele>166.978638</ele>
<time>2010-07-17T14:53:50Z</time>
<desc>lat.=55.867931, lon.=26.025187, Alt.=166.978638m. Speed=12.240000m/h.</desc>
<speed>3.400000</speed>
</trkpt>
<trkpt lat="55.867943" lon="26.025135">
<ele>167.388794</ele>
<time>2010-07-17T14:53:51Z</time>
<desc>lat.=55.867943, lon.=26.025135, Alt.=167.388794m. Speed=11.664000m/h.</desc>
<speed>3.240000</speed>
</trkpt>
<trkpt lat="55.867954" lon="26.025063">
<ele>168.627075</ele>
<time>2010-07-17T14:53:52Z</time>
<desc>lat.=55.867954, lon.=26.025063, Alt.=168.627075m. Speed=11.700000m/h.</desc>
<speed>3.250000</speed>
</trkpt>
<trkpt lat="55.867958" lon="26.025003">
<ele>169.056763</ele>
<time>2010-07-17T14:53:53Z</time>
<desc>lat.=55.867958, lon.=26.025003, Alt.=169.056763m. Speed=12.204000m/h.</desc>
<speed>3.390000</speed>
</trkpt>
<trkpt lat="55.867966" lon="26.024946">
<ele>169.338013</ele>
<time>2010-07-17T14:53:54Z</time>
<desc>lat.=55.867966, lon.=26.024946, Alt.=169.338013m. Speed=12.996000m/h.</desc>
<speed>3.610000</speed>
</trkpt>
<trkpt lat="55.867973" lon="26.024897">
<ele>169.455200</ele>
<time>2010-07-17T14:53:55Z</time>
<desc>lat.=55.867973, lon.=26.024897, Alt.=169.455200m. Speed=14.436000m/h.</desc>
<speed>4.010000</speed>
</trkpt>
<trkpt lat="55.867981" lon="26.024839">
<ele>169.322388</ele>
<time>2010-07-17T14:53:56Z</time>
<desc>lat.=55.867981, lon.=26.024839, Alt.=169.322388m. Speed=15.120000m/h.</desc>
<speed>4.200000</speed>
</trkpt>
<trkpt lat="55.867985" lon="26.024776">
<ele>169.248169</ele>
<time>2010-07-17T14:53:57Z</time>
<desc>lat.=55.867985, lon.=26.024776, Alt.=169.248169m. Speed=15.696000m/h.</desc>
<speed>4.360000</speed>
</trkpt>
<trkpt lat="55.867992" lon="26.024715">
<ele>169.420044</ele>
<time>2010-07-17T14:53:58Z</time>
<desc>lat.=55.867992, lon.=26.024715, Alt.=169.420044m. Speed=13.176000m/h.</desc>
<speed>3.660000</speed>
</trkpt>
<trkpt lat="55.868004" lon="26.024662">
<ele>169.685669</ele>
<time>2010-07-17T14:53:59Z</time>
<desc>lat.=55.868004, lon.=26.024662, Alt.=169.685669m. Speed=11.412000m/h.</desc>
<speed>3.170000</speed>
</trkpt>
<trkpt lat="55.868011" lon="26.024611">
<ele>170.103638</ele>
<time>2010-07-17T14:54:00Z</time>
<desc>lat.=55.868011, lon.=26.024611, Alt.=170.103638m. Speed=10.440000m/h.</desc>
<speed>2.900000</speed>
</trkpt>
<trkpt lat="55.868015" lon="26.024561">
<ele>170.615356</ele>
<time>2010-07-17T14:54:01Z</time>
<desc>lat.=55.868015, lon.=26.024561, Alt.=170.615356m. Speed=11.304000m/h.</desc>
<speed>3.140000</speed>
</trkpt>
<trkpt lat="55.868019" lon="26.024498">
<ele>170.224731</ele>
<time>2010-07-17T14:54:02Z</time>
<desc>lat.=55.868019, lon.=26.024498, Alt.=170.224731m. Speed=11.088000m/h.</desc>
<speed>3.080000</speed>
</trkpt>
<trkpt lat="55.868019" lon="26.024458">
<ele>170.947388</ele>
<time>2010-07-17T14:54:03Z</time>
<desc>lat.=55.868019, lon.=26.024458, Alt.=170.947388m. Speed=10.872000m/h.</desc>
<speed>3.020000</speed>
</trkpt>
<trkpt lat="55.868023" lon="26.024412">
<ele>170.927856</ele>
<time>2010-07-17T14:54:04Z</time>
<desc>lat.=55.868023, lon.=26.024412, Alt.=170.927856m. Speed=9.180000m/h.</desc>
<speed>2.550000</speed>
</trkpt>
<trkpt lat="55.868027" lon="26.024366">
<ele>171.037231</ele>
<time>2010-07-17T14:54:05Z</time>
<desc>lat.=55.868027, lon.=26.024366, Alt.=171.037231m. Speed=8.676000m/h.</desc>
<speed>2.410000</speed>
</trkpt>
<trkpt lat="55.868023" lon="26.024326">
<ele>171.123169</ele>
<time>2010-07-17T14:54:06Z</time>
<desc>lat.=55.868023, lon.=26.024326, Alt.=171.123169m. Speed=9.864000m/h.</desc>
<speed>2.740000</speed>
</trkpt>
<trkpt lat="55.868019" lon="26.024275">
<ele>171.369263</ele>
<time>2010-07-17T14:54:07Z</time>
<desc>lat.=55.868019, lon.=26.024275, Alt.=171.369263m. Speed=10.584000m/h.</desc>
<speed>2.940000</speed>
</trkpt>
<trkpt lat="55.868019" lon="26.024225">
<ele>171.580200</ele>
<time>2010-07-17T14:54:08Z</time>
<desc>lat.=55.868019, lon.=26.024225, Alt.=171.580200m. Speed=10.548000m/h.</desc>
<speed>2.930000</speed>
</trkpt>
<trkpt lat="55.868011" lon="26.024174">
<ele>172.267700</ele>
<time>2010-07-17T14:54:09Z</time>
<desc>lat.=55.868011, lon.=26.024174, Alt.=172.267700m. Speed=10.332000m/h.</desc>
<speed>2.870000</speed>
</trkpt>
<trkpt lat="55.868008" lon="26.024130">
<ele>171.459106</ele>
<time>2010-07-17T14:54:10Z</time>
<desc>lat.=55.868008, lon.=26.024130, Alt.=171.459106m. Speed=10.152000m/h.</desc>
<speed>2.820000</speed>
</trkpt>
<trkpt lat="55.868000" lon="26.024086">
<ele>171.373169</ele>
<time>2010-07-17T14:54:11Z</time>
<desc>lat.=55.868000, lon.=26.024086, Alt.=171.373169m. Speed=10.368000m/h.</desc>
<speed>2.880000</speed>
</trkpt>
<trkpt lat="55.867985" lon="26.024046">
<ele>170.916138</ele>
<time>2010-07-17T14:54:12Z</time>
<desc>lat.=55.867985, lon.=26.024046, Alt.=170.916138m. Speed=11.664000m/h.</desc>
<speed>3.240000</speed>
</trkpt>
<trkpt lat="55.867973" lon="26.024000">
<ele>171.056763</ele>
<time>2010-07-17T14:54:13Z</time>
<desc>lat.=55.867973, lon.=26.024000, Alt.=171.056763m. Speed=10.872000m/h.</desc>
<speed>3.020000</speed>
</trkpt>
<trkpt lat="55.867958" lon="26.023960">
<ele>171.138794</ele>
<time>2010-07-17T14:54:14Z</time>
<desc>lat.=55.867958, lon.=26.023960, Alt.=171.138794m. Speed=9.612000m/h.</desc>
<speed>2.670000</speed>
</trkpt>
<trkpt lat="55.867950" lon="26.023937">
<ele>171.052856</ele>
<time>2010-07-17T14:54:15Z</time>
<desc>lat.=55.867950, lon.=26.023937, Alt.=171.052856m. Speed=5.724000m/h.</desc>
<speed>1.590000</speed>
</trkpt>
<trkpt lat="55.867947" lon="26.023928">
<ele>171.345825</ele>
<time>2010-07-17T14:54:16Z</time>
<desc>lat.=55.867947, lon.=26.023928, Alt.=171.345825m. Speed=1.260000m/h.</desc>
<speed>0.350000</speed>
</trkpt>
<trkpt lat="55.867947" lon="26.023930">
<ele>171.529419</ele>
<time>2010-07-17T14:54:17Z</time>
<desc>lat.=55.867947, lon.=26.023930, Alt.=171.529419m. Speed=0.504000m/h.</desc>
<speed>0.140000</speed>
</trkpt>
<trkpt lat="55.867943" lon="26.023926">
<ele>171.474731</ele>
<time>2010-07-17T14:54:18Z</time>
<desc>lat.=55.867943, lon.=26.023926, Alt.=171.474731m. Speed=0.180000m/h.</desc>
<speed>0.050000</speed>
</trkpt>
<trkpt lat="55.867947" lon="26.023935">
<ele>171.119263</ele>
<time>2010-07-17T14:54:19Z</time>
<desc>lat.=55.867947, lon.=26.023935, Alt.=171.119263m. Speed=0.144000m/h.</desc>
<speed>0.040000</speed>
</trkpt>
<trkpt lat="55.867947" lon="26.023935">
<ele>171.193481</ele>
<time>2010-07-17T14:54:20Z</time>
<desc>lat.=55.867947, lon.=26.023935, Alt.=171.193481m. Speed=0.072000m/h.</desc>
<speed>0.020000</speed>
</trkpt>
<trkpt lat="55.867947" lon="26.023935">
<ele>171.255981</ele>
<time>2010-07-17T14:54:21Z</time>
<desc>lat.=55.867947, lon.=26.023935, Alt.=171.255981m. Speed=0.252000m/h.</desc>
<speed>0.070000</speed>
</trkpt>
<trkpt lat="55.867947" lon="26.023935">
<ele>171.298950</ele>
<time>2010-07-17T14:54:22Z</time>
<desc>lat.=55.867947, lon.=26.023935, Alt.=171.298950m. Speed=0.072000m/h.</desc>
<speed>0.020000</speed>
</trkpt>
<trkpt lat="55.867947" lon="26.023937">
<ele>171.361450</ele>
<time>2010-07-17T14:54:23Z</time>
<desc>lat.=55.867947, lon.=26.023937, Alt.=171.361450m. Speed=0.288000m/h.</desc>
<speed>0.080000</speed>
</trkpt>
<trkpt lat="55.867947" lon="26.023939">
<ele>171.392700</ele>
<time>2010-07-17T14:54:24Z</time>
<desc>lat.=55.867947, lon.=26.023939, Alt.=171.392700m. Speed=0.396000m/h.</desc>
<speed>0.110000</speed>
</trkpt>
<trkpt lat="55.867950" lon="26.023941">
<ele>171.400513</ele>
<time>2010-07-17T14:54:25Z</time>
<desc>lat.=55.867950, lon.=26.023941, Alt.=171.400513m. Speed=0.036000m/h.</desc>
<speed>0.010000</speed>
</trkpt>
<trkpt lat="55.867947" lon="26.023941">
<ele>171.400513</ele>
<time>2010-07-17T14:54:26Z</time>
<desc>lat.=55.867947, lon.=26.023941, Alt.=171.400513m. Speed=0.036000m/h.</desc>
<speed>0.010000</speed>
</trkpt>
<trkpt lat="55.867947" lon="26.023941">
<ele>171.380981</ele>
<time>2010-07-17T14:54:27Z</time>
<desc>lat.=55.867947, lon.=26.023941, Alt.=171.380981m. Speed=0.000000m/h.</desc>
<speed>0.000000</speed>
</trkpt>
<trkpt lat="55.867947" lon="26.023941">
<ele>171.365356</ele>
<time>2010-07-17T14:54:28Z</time>
<desc>lat.=55.867947, lon.=26.023941, Alt.=171.365356m. Speed=0.000000m/h.</desc>
<speed>0.000000</speed>
</trkpt>
<trkpt lat="55.867947" lon="26.023941">
<ele>171.345825</ele>
<time>2010-07-17T14:54:29Z</time>
<desc>lat.=55.867947, lon.=26.023941, Alt.=171.345825m. Speed=0.000000m/h.</desc>
<speed>0.000000</speed>
</trkpt>
<trkpt lat="55.867947" lon="26.023941">
<ele>171.341919</ele>
<time>2010-07-17T14:54:30Z</time>
<desc>lat.=55.867947, lon.=26.023941, Alt.=171.341919m. Speed=0.036000m/h.</desc>
<speed>0.010000</speed>
</trkpt>
<trkpt lat="55.867947" lon="26.023941">
<ele>171.334106</ele>
<time>2010-07-17T14:54:31Z</time>
<desc>lat.=55.867947, lon.=26.023941, Alt.=171.334106m. Speed=0.000000m/h.</desc>
<speed>0.000000</speed>
</trkpt>
<trkpt lat="55.867947" lon="26.023941">
<ele>171.314575</ele>
<time>2010-07-17T14:54:32Z</time>
<desc>lat.=55.867947, lon.=26.023941, Alt.=171.314575m. Speed=0.072000m/h.</desc>
<speed>0.020000</speed>
</trkpt>
<trkpt lat="55.867947" lon="26.023941">
<ele>171.302856</ele>
<time>2010-07-17T14:54:33Z</time>
<desc>lat.=55.867947, lon.=26.023941, Alt.=171.302856m. Speed=0.576000m/h.</desc>
<speed>0.160000</speed>
</trkpt>
<trkpt lat="55.867947" lon="26.023939">
<ele>171.201294</ele>
<time>2010-07-17T14:54:34Z</time>
<desc>lat.=55.867947, lon.=26.023939, Alt.=171.201294m. Speed=0.468000m/h.</desc>
<speed>0.130000</speed>
</trkpt>
<trkpt lat="55.867950" lon="26.023937">
<ele>171.103638</ele>
<time>2010-07-17T14:54:35Z</time>
<desc>lat.=55.867950, lon.=26.023937, Alt.=171.103638m. Speed=0.504000m/h.</desc>
<speed>0.140000</speed>
</trkpt>
<trkpt lat="55.867947" lon="26.023933">
<ele>171.021606</ele>
<time>2010-07-17T14:54:36Z</time>
<desc>lat.=55.867947, lon.=26.023933, Alt.=171.021606m. Speed=0.396000m/h.</desc>
<speed>0.110000</speed>
</trkpt>
<trkpt lat="55.867950" lon="26.023933">
<ele>170.947388</ele>
<time>2010-07-17T14:54:37Z</time>
<desc>lat.=55.867950, lon.=26.023933, Alt.=170.947388m. Speed=0.288000m/h.</desc>
<speed>0.080000</speed>
</trkpt>
<trkpt lat="55.867950" lon="26.023932">
<ele>170.884888</ele>
<time>2010-07-17T14:54:38Z</time>
<desc>lat.=55.867950, lon.=26.023932, Alt.=170.884888m. Speed=0.432000m/h.</desc>
<speed>0.120000</speed>
</trkpt>
<trkpt lat="55.867950" lon="26.023930">
<ele>170.834106</ele>
<time>2010-07-17T14:54:39Z</time>
<desc>lat.=55.867950, lon.=26.023930, Alt.=170.834106m. Speed=0.396000m/h.</desc>
<speed>0.110000</speed>
</trkpt>
<trkpt lat="55.867950" lon="26.023930">
<ele>170.791138</ele>
<time>2010-07-17T14:54:40Z</time>
<desc>lat.=55.867950, lon.=26.023930, Alt.=170.791138m. Speed=0.360000m/h.</desc>
<speed>0.100000</speed>
</trkpt>
<trkpt lat="55.867950" lon="26.023928">
<ele>170.759888</ele>
<time>2010-07-17T14:54:41Z</time>
<desc>lat.=55.867950, lon.=26.023928, Alt.=170.759888m. Speed=1.044000m/h.</desc>
<speed>0.290000</speed>
</trkpt>
<trkpt lat="55.867954" lon="26.023924">
<ele>170.732544</ele>
<time>2010-07-17T14:54:42Z</time>
<desc>lat.=55.867954, lon.=26.023924, Alt.=170.732544m. Speed=0.792000m/h.</desc>
<speed>0.220000</speed>
</trkpt>
<trkpt lat="55.867954" lon="26.023920">
<ele>170.709106</ele>
<time>2010-07-17T14:54:43Z</time>
<desc>lat.=55.867954, lon.=26.023920, Alt.=170.709106m. Speed=0.792000m/h.</desc>
<speed>0.220000</speed>
</trkpt>
<trkpt lat="55.867954" lon="26.023918">
<ele>170.689575</ele>
<time>2010-07-17T14:54:44Z</time>
<desc>lat.=55.867954, lon.=26.023918, Alt.=170.689575m. Speed=0.648000m/h.</desc>
<speed>0.180000</speed>
</trkpt>
<trkpt lat="55.867954" lon="26.023914">
<ele>170.673950</ele>
<time>2010-07-17T14:54:45Z</time>
<desc>lat.=55.867954, lon.=26.023914, Alt.=170.673950m. Speed=0.540000m/h.</desc>
<speed>0.150000</speed>
</trkpt>
<trkpt lat="55.867954" lon="26.023912">
<ele>170.658325</ele>
<time>2010-07-17T14:54:46Z</time>
<desc>lat.=55.867954, lon.=26.023912, Alt.=170.658325m. Speed=0.180000m/h.</desc>
<speed>0.050000</speed>
</trkpt>
<trkpt lat="55.867954" lon="26.023912">
<ele>170.642700</ele>
<time>2010-07-17T14:54:47Z</time>
<desc>lat.=55.867954, lon.=26.023912, Alt.=170.642700m. Speed=2.952000m/h.</desc>
<speed>0.820000</speed>
</trkpt>
<trkpt lat="55.867947" lon="26.023916">
<ele>170.630981</ele>
<time>2010-07-17T14:54:48Z</time>
<desc>lat.=55.867947, lon.=26.023916, Alt.=170.630981m. Speed=3.024000m/h.</desc>
<speed>0.840000</speed>
</trkpt>
<trkpt lat="55.867939" lon="26.023922">
<ele>170.623169</ele>
<time>2010-07-17T14:54:49Z</time>
<desc>lat.=55.867939, lon.=26.023922, Alt.=170.623169m. Speed=3.240000m/h.</desc>
<speed>0.900000</speed>
</trkpt>
<trkpt lat="55.867935" lon="26.023928">
<ele>170.615356</ele>
<time>2010-07-17T14:54:50Z</time>
<desc>lat.=55.867935, lon.=26.023928, Alt.=170.615356m. Speed=3.384000m/h.</desc>
<speed>0.940000</speed>
</trkpt>
<trkpt lat="55.867924" lon="26.023933">
<ele>170.603638</ele>
<time>2010-07-17T14:54:51Z</time>
<desc>lat.=55.867924, lon.=26.023933, Alt.=170.603638m. Speed=3.816000m/h.</desc>
<speed>1.060000</speed>
</trkpt>
<trkpt lat="55.867908" lon="26.023935">
<ele>170.427856</ele>
<time>2010-07-17T14:54:52Z</time>
<desc>lat.=55.867908, lon.=26.023935, Alt.=170.427856m. Speed=3.924000m/h.</desc>
<speed>1.090000</speed>
</trkpt>
<trkpt lat="55.867893" lon="26.023933">
<ele>170.295044</ele>
<time>2010-07-17T14:54:53Z</time>
<desc>lat.=55.867893, lon.=26.023933, Alt.=170.295044m. Speed=4.248000m/h.</desc>
<speed>1.180000</speed>
</trkpt>
<trkpt lat="55.867874" lon="26.023935">
<ele>170.185669</ele>
<time>2010-07-17T14:54:54Z</time>
<desc>lat.=55.867874, lon.=26.023935, Alt.=170.185669m. Speed=4.680000m/h.</desc>
<speed>1.300000</speed>
</trkpt>
<trkpt lat="55.867859" lon="26.023943">
<ele>170.048950</ele>
<time>2010-07-17T14:54:55Z</time>
<desc>lat.=55.867859, lon.=26.023943, Alt.=170.048950m. Speed=5.148000m/h.</desc>
<speed>1.430000</speed>
</trkpt>
<trkpt lat="55.867844" lon="26.023949">
<ele>170.002075</ele>
<time>2010-07-17T14:54:56Z</time>
<desc>lat.=55.867844, lon.=26.023949, Alt.=170.002075m. Speed=6.768000m/h.</desc>
<speed>1.880000</speed>
</trkpt>
<trkpt lat="55.867825" lon="26.023932">
<ele>169.908325</ele>
<time>2010-07-17T14:54:57Z</time>
<desc>lat.=55.867825, lon.=26.023932, Alt.=169.908325m. Speed=4.608000m/h.</desc>
<speed>1.280000</speed>
</trkpt>
<trkpt lat="55.867813" lon="26.023935">
<ele>169.912231</ele>
<time>2010-07-17T14:54:58Z</time>
<desc>lat.=55.867813, lon.=26.023935, Alt.=169.912231m. Speed=1.044000m/h.</desc>
<speed>0.290000</speed>
</trkpt>
<trkpt lat="55.867805" lon="26.023937">
<ele>169.947388</ele>
<time>2010-07-17T14:54:59Z</time>
<desc>lat.=55.867805, lon.=26.023937, Alt.=169.947388m. Speed=0.540000m/h.</desc>
<speed>0.150000</speed>
</trkpt>
<trkpt lat="55.867802" lon="26.023949">
<ele>169.814575</ele>
<time>2010-07-17T14:55:00Z</time>
<desc>lat.=55.867802, lon.=26.023949, Alt.=169.814575m. Speed=0.828000m/h.</desc>
<speed>0.230000</speed>
</trkpt>
<trkpt lat="55.867798" lon="26.023952">
<ele>169.822388</ele>
<time>2010-07-17T14:55:01Z</time>
<desc>lat.=55.867798, lon.=26.023952, Alt.=169.822388m. Speed=0.288000m/h.</desc>
<speed>0.080000</speed>
</trkpt>
<trkpt lat="55.867798" lon="26.023952">
<ele>169.814575</ele>
<time>2010-07-17T14:55:02Z</time>
<desc>lat.=55.867798, lon.=26.023952, Alt.=169.814575m. Speed=0.468000m/h.</desc>
<speed>0.130000</speed>
</trkpt>
<trkpt lat="55.867798" lon="26.023951">
<ele>169.802856</ele>
<time>2010-07-17T14:55:03Z</time>
<desc>lat.=55.867798, lon.=26.023951, Alt.=169.802856m. Speed=0.360000m/h.</desc>
<speed>0.100000</speed>
</trkpt>
<trkpt lat="55.867798" lon="26.023952">
<ele>169.791138</ele>
<time>2010-07-17T14:55:04Z</time>
<desc>lat.=55.867798, lon.=26.023952, Alt.=169.791138m. Speed=0.072000m/h.</desc>
<speed>0.020000</speed>
</trkpt>
<trkpt lat="55.867798" lon="26.023952">
<ele>169.783325</ele>
<time>2010-07-17T14:55:05Z</time>
<desc>lat.=55.867798, lon.=26.023952, Alt.=169.783325m. Speed=0.000000m/h.</desc>
<speed>0.000000</speed>
</trkpt>
<trkpt lat="55.867798" lon="26.023952">
<ele>169.779419</ele>
<time>2010-07-17T14:55:06Z</time>
<desc>lat.=55.867798, lon.=26.023952, Alt.=169.779419m. Speed=0.036000m/h.</desc>
<speed>0.010000</speed>
</trkpt>
<trkpt lat="55.867798" lon="26.023952">
<ele>169.783325</ele>
<time>2010-07-17T14:55:07Z</time>
<desc>lat.=55.867798, lon.=26.023952, Alt.=169.783325m. Speed=0.036000m/h.</desc>
<speed>0.010000</speed>
</trkpt>
<trkpt lat="55.867798" lon="26.023952">
<ele>169.771606</ele>
<time>2010-07-17T14:55:08Z</time>
<desc>lat.=55.867798, lon.=26.023952, Alt.=169.771606m. Speed=0.036000m/h.</desc>
<speed>0.010000</speed>
</trkpt>
<trkpt lat="55.867798" lon="26.023952">
<ele>169.771606</ele>
<time>2010-07-17T14:55:09Z</time>
<desc>lat.=55.867798, lon.=26.023952, Alt.=169.771606m. Speed=0.036000m/h.</desc>
<speed>0.010000</speed>
</trkpt>
<trkpt lat="55.867798" lon="26.023952">
<ele>169.767700</ele>
<time>2010-07-17T14:55:10Z</time>
<desc>lat.=55.867798, lon.=26.023952, Alt.=169.767700m. Speed=0.036000m/h.</desc>
<speed>0.010000</speed>
</trkpt>
<trkpt lat="55.867798" lon="26.023952">
<ele>169.771606</ele>
<time>2010-07-17T14:55:11Z</time>
<desc>lat.=55.867798, lon.=26.023952, Alt.=169.771606m. Speed=0.072000m/h.</desc>
<speed>0.020000</speed>
</trkpt>
<trkpt lat="55.867798" lon="26.023954">
<ele>169.763794</ele>
<time>2010-07-17T14:55:12Z</time>
<desc>lat.=55.867798, lon.=26.023954, Alt.=169.763794m. Speed=0.000000m/h.</desc>
<speed>0.000000</speed>
</trkpt>
<trkpt lat="55.867798" lon="26.023954">
<ele>169.744263</ele>
<time>2010-07-17T14:55:13Z</time>
<desc>lat.=55.867798, lon.=26.023954, Alt.=169.744263m. Speed=0.036000m/h.</desc>
<speed>0.010000</speed>
</trkpt>
<trkpt lat="55.867798" lon="26.023952">
<ele>169.740356</ele>
<time>2010-07-17T14:55:14Z</time>
<desc>lat.=55.867798, lon.=26.023952, Alt.=169.740356m. Speed=0.072000m/h.</desc>
<speed>0.020000</speed>
</trkpt>
<trkpt lat="55.867798" lon="26.023952">
<ele>169.752075</ele>
<time>2010-07-17T14:55:15Z</time>
<desc>lat.=55.867798, lon.=26.023952, Alt.=169.752075m. Speed=0.036000m/h.</desc>
<speed>0.010000</speed>
</trkpt>
<trkpt lat="55.867798" lon="26.023952">
<ele>169.752075</ele>
<time>2010-07-17T14:55:16Z</time>
<desc>lat.=55.867798, lon.=26.023952, Alt.=169.752075m. Speed=0.000000m/h.</desc>
<speed>0.000000</speed>
</trkpt>
<trkpt lat="55.867798" lon="26.023952">
<ele>169.752075</ele>
<time>2010-07-17T14:55:17Z</time>
<desc>lat.=55.867798, lon.=26.023952, Alt.=169.752075m. Speed=0.000000m/h.</desc>
<speed>0.000000</speed>
</trkpt>
<trkpt lat="55.867798" lon="26.023952">
<ele>169.748169</ele>
<time>2010-07-17T14:55:18Z</time>
<desc>lat.=55.867798, lon.=26.023952, Alt.=169.748169m. Speed=0.036000m/h.</desc>
<speed>0.010000</speed>
</trkpt>
<trkpt lat="55.867798" lon="26.023952">
<ele>169.744263</ele>
<time>2010-07-17T14:55:19Z</time>
<desc>lat.=55.867798, lon.=26.023952, Alt.=169.744263m. Speed=0.000000m/h.</desc>
<speed>0.000000</speed>
</trkpt>
<trkpt lat="55.867798" lon="26.023952">
<ele>169.740356</ele>
<time>2010-07-17T14:55:20Z</time>
<desc>lat.=55.867798, lon.=26.023952, Alt.=169.740356m. Speed=0.000000m/h.</desc>
<speed>0.000000</speed>
</trkpt>
<trkpt lat="55.867798" lon="26.023952">
<ele>169.736450</ele>
<time>2010-07-17T14:55:21Z</time>
<desc>lat.=55.867798, lon.=26.023952, Alt.=169.736450m. Speed=0.036000m/h.</desc>
<speed>0.010000</speed>
</trkpt>
<trkpt lat="55.867798" lon="26.023952">
<ele>169.736450</ele>
<time>2010-07-17T14:55:22Z</time>
<desc>lat.=55.867798, lon.=26.023952, Alt.=169.736450m. Speed=0.000000m/h.</desc>
<speed>0.000000</speed>
</trkpt>
<trkpt lat="55.867798" lon="26.023952">
<ele>169.736450</ele>
<time>2010-07-17T14:55:23Z</time>
<desc>lat.=55.867798, lon.=26.023952, Alt.=169.736450m. Speed=0.000000m/h.</desc>
<speed>0.000000</speed>
</trkpt>
<trkpt lat="55.867798" lon="26.023952">
<ele>169.732544</ele>
<time>2010-07-17T14:55:24Z</time>
<desc>lat.=55.867798, lon.=26.023952, Alt.=169.732544m. Speed=0.000000m/h.</desc>
<speed>0.000000</speed>
</trkpt>
<trkpt lat="55.867798" lon="26.023952">
<ele>169.728638</ele>
<time>2010-07-17T14:55:25Z</time>
<desc>lat.=55.867798, lon.=26.023952, Alt.=169.728638m. Speed=0.000000m/h.</desc>
<speed>0.000000</speed>
</trkpt>
<trkpt lat="55.867798" lon="26.023952">
<ele>169.728638</ele>
<time>2010-07-17T14:55:26Z</time>
<desc>lat.=55.867798, lon.=26.023952, Alt.=169.728638m. Speed=0.036000m/h.</desc>
<speed>0.010000</speed>
</trkpt>
<trkpt lat="55.867798" lon="26.023952">
<ele>169.728638</ele>
<time>2010-07-17T14:55:27Z</time>
<desc>lat.=55.867798, lon.=26.023952, Alt.=169.728638m. Speed=0.000000m/h.</desc>
<speed>0.000000</speed>
</trkpt>
<trkpt lat="55.867798" lon="26.023952">
<ele>169.728638</ele>
<time>2010-07-17T14:55:28Z</time>
<desc>lat.=55.867798, lon.=26.023952, Alt.=169.728638m. Speed=0.000000m/h.</desc>
<speed>0.000000</speed>
</trkpt>
<trkpt lat="55.867798" lon="26.023952">
<ele>169.728638</ele>
<time>2010-07-17T14:55:29Z</time>
<desc>lat.=55.867798, lon.=26.023952, Alt.=169.728638m. Speed=0.000000m/h.</desc>
<speed>0.000000</speed>
</trkpt>
<trkpt lat="55.867798" lon="26.023952">
<ele>169.728638</ele>
<time>2010-07-17T14:55:30Z</time>
<desc>lat.=55.867798, lon.=26.023952, Alt.=169.728638m. Speed=0.000000m/h.</desc>
<speed>0.000000</speed>
</trkpt>
<trkpt lat="55.867798" lon="26.023952">
<ele>169.728638</ele>
<time>2010-07-17T14:55:31Z</time>
<desc>lat.=55.867798, lon.=26.023952, Alt.=169.728638m. Speed=0.000000m/h.</desc>
<speed>0.000000</speed>
</trkpt>
<trkpt lat="55.867798" lon="26.023954">
<ele>169.724731</ele>
<time>2010-07-17T14:55:32Z</time>
<desc>lat.=55.867798, lon.=26.023954, Alt.=169.724731m. Speed=0.000000m/h.</desc>
<speed>0.000000</speed>
</trkpt>
<trkpt lat="55.867798" lon="26.023954">
<ele>169.728638</ele>
<time>2010-07-17T14:55:33Z</time>
<desc>lat.=55.867798, lon.=26.023954, Alt.=169.728638m. Speed=0.864000m/h.</desc>
<speed>0.240000</speed>
</trkpt>
<trkpt lat="55.867798" lon="26.023954">
<ele>169.724731</ele>
<time>2010-07-17T14:55:34Z</time>
<desc>lat.=55.867798, lon.=26.023954, Alt.=169.724731m. Speed=1.080000m/h.</desc>
<speed>0.300000</speed>
</trkpt>
<trkpt lat="55.867798" lon="26.023958">
<ele>169.615356</ele>
<time>2010-07-17T14:55:35Z</time>
<desc>lat.=55.867798, lon.=26.023958, Alt.=169.615356m. Speed=0.540000m/h.</desc>
<speed>0.150000</speed>
</trkpt>
<trkpt lat="55.867794" lon="26.023968">
<ele>169.502075</ele>
<time>2010-07-17T14:55:36Z</time>
<desc>lat.=55.867794, lon.=26.023968, Alt.=169.502075m. Speed=1.872000m/h.</desc>
<speed>0.520000</speed>
</trkpt>
<trkpt lat="55.867790" lon="26.023977">
<ele>169.455200</ele>
<time>2010-07-17T14:55:37Z</time>
<desc>lat.=55.867790, lon.=26.023977, Alt.=169.455200m. Speed=2.196000m/h.</desc>
<speed>0.610000</speed>
</trkpt>
<trkpt lat="55.867779" lon="26.023981">
<ele>169.486450</ele>
<time>2010-07-17T14:55:38Z</time>
<desc>lat.=55.867779, lon.=26.023981, Alt.=169.486450m. Speed=3.168000m/h.</desc>
<speed>0.880000</speed>
</trkpt>
<trkpt lat="55.867764" lon="26.023987">
<ele>169.302856</ele>
<time>2010-07-17T14:55:39Z</time>
<desc>lat.=55.867764, lon.=26.023987, Alt.=169.302856m. Speed=5.364000m/h.</desc>
<speed>1.490000</speed>
</trkpt>
<trkpt lat="55.867741" lon="26.023993">
<ele>169.216919</ele>
<time>2010-07-17T14:55:40Z</time>
<desc>lat.=55.867741, lon.=26.023993, Alt.=169.216919m. Speed=11.268000m/h.</desc>
<speed>3.130000</speed>
</trkpt>
<trkpt lat="55.867706" lon="26.024002">
<ele>168.986450</ele>
<time>2010-07-17T14:55:41Z</time>
<desc>lat.=55.867706, lon.=26.024002, Alt.=168.986450m. Speed=13.212000m/h.</desc>
<speed>3.670000</speed>
</trkpt>
<trkpt lat="55.867672" lon="26.024015">
<ele>168.826294</ele>
<time>2010-07-17T14:55:42Z</time>
<desc>lat.=55.867672, lon.=26.024015, Alt.=168.826294m. Speed=13.356000m/h.</desc>
<speed>3.710000</speed>
</trkpt>
<trkpt lat="55.867638" lon="26.024029">
<ele>168.537231</ele>
<time>2010-07-17T14:55:43Z</time>
<desc>lat.=55.867638, lon.=26.024029, Alt.=168.537231m. Speed=12.852000m/h.</desc>
<speed>3.570000</speed>
</trkpt>
<trkpt lat="55.867607" lon="26.024042">
<ele>168.365356</ele>
<time>2010-07-17T14:55:44Z</time>
<desc>lat.=55.867607, lon.=26.024042, Alt.=168.365356m. Speed=12.312000m/h.</desc>
<speed>3.420000</speed>
</trkpt>
<trkpt lat="55.867573" lon="26.024048">
<ele>168.314575</ele>
<time>2010-07-17T14:55:45Z</time>
<desc>lat.=55.867573, lon.=26.024048, Alt.=168.314575m. Speed=11.844000m/h.</desc>
<speed>3.290000</speed>
</trkpt>
<trkpt lat="55.867542" lon="26.024065">
<ele>167.295044</ele>
<time>2010-07-17T14:55:46Z</time>
<desc>lat.=55.867542, lon.=26.024065, Alt.=167.295044m. Speed=11.592000m/h.</desc>
<speed>3.220000</speed>
</trkpt>
<trkpt lat="55.867516" lon="26.024067">
<ele>167.521606</ele>
<time>2010-07-17T14:55:47Z</time>
<desc>lat.=55.867516, lon.=26.024067, Alt.=167.521606m. Speed=9.432000m/h.</desc>
<speed>2.620000</speed>
</trkpt>
<trkpt lat="55.867489" lon="26.024076">
<ele>166.654419</ele>
<time>2010-07-17T14:55:48Z</time>
<desc>lat.=55.867489, lon.=26.024076, Alt.=166.654419m. Speed=11.484000m/h.</desc>
<speed>3.190000</speed>
</trkpt>
<trkpt lat="55.867458" lon="26.024082">
<ele>166.466919</ele>
<time>2010-07-17T14:55:49Z</time>
<desc>lat.=55.867458, lon.=26.024082, Alt.=166.466919m. Speed=13.248000m/h.</desc>
<speed>3.680000</speed>
</trkpt>
<trkpt lat="55.867420" lon="26.024092">
<ele>166.322388</ele>
<time>2010-07-17T14:55:50Z</time>
<desc>lat.=55.867420, lon.=26.024092, Alt.=166.322388m. Speed=15.192000m/h.</desc>
<speed>4.220000</speed>
</trkpt>
<trkpt lat="55.867378" lon="26.024103">
<ele>166.150513</ele>
<time>2010-07-17T14:55:51Z</time>
<desc>lat.=55.867378, lon.=26.024103, Alt.=166.150513m. Speed=15.876000m/h.</desc>
<speed>4.410000</speed>
</trkpt>
<trkpt lat="55.867336" lon="26.024109">
<ele>166.287231</ele>
<time>2010-07-17T14:55:52Z</time>
<desc>lat.=55.867336, lon.=26.024109, Alt.=166.287231m. Speed=15.948000m/h.</desc>
<speed>4.430000</speed>
</trkpt>
<trkpt lat="55.867294" lon="26.024117">
<ele>166.240356</ele>
<time>2010-07-17T14:55:53Z</time>
<desc>lat.=55.867294, lon.=26.024117, Alt.=166.240356m. Speed=16.164000m/h.</desc>
<speed>4.490000</speed>
</trkpt>
<trkpt lat="55.867252" lon="26.024128">
<ele>165.994263</ele>
<time>2010-07-17T14:55:54Z</time>
<desc>lat.=55.867252, lon.=26.024128, Alt.=165.994263m. Speed=16.488001m/h.</desc>
<speed>4.580000</speed>
</trkpt>
<trkpt lat="55.867210" lon="26.024139">
<ele>165.736450</ele>
<time>2010-07-17T14:55:55Z</time>
<desc>lat.=55.867210, lon.=26.024139, Alt.=165.736450m. Speed=16.775999m/h.</desc>
<speed>4.660000</speed>
</trkpt>
<trkpt lat="55.867168" lon="26.024153">
<ele>165.607544</ele>
<time>2010-07-17T14:55:56Z</time>
<desc>lat.=55.867168, lon.=26.024153, Alt.=165.607544m. Speed=17.208000m/h.</desc>
<speed>4.780000</speed>
</trkpt>
<trkpt lat="55.867126" lon="26.024166">
<ele>165.310669</ele>
<time>2010-07-17T14:55:57Z</time>
<desc>lat.=55.867126, lon.=26.024166, Alt.=165.310669m. Speed=17.639999m/h.</desc>
<speed>4.900000</speed>
</trkpt>
<trkpt lat="55.867081" lon="26.024176">
<ele>164.916138</ele>
<time>2010-07-17T14:55:58Z</time>
<desc>lat.=55.867081, lon.=26.024176, Alt.=164.916138m. Speed=18.684000m/h.</desc>
<speed>5.190000</speed>
</trkpt>
<trkpt lat="55.867035" lon="26.024191">
<ele>164.451294</ele>
<time>2010-07-17T14:55:59Z</time>
<desc>lat.=55.867035, lon.=26.024191, Alt.=164.451294m. Speed=19.584000m/h.</desc>
<speed>5.440000</speed>
</trkpt>
<trkpt lat="55.866985" lon="26.024202">
<ele>164.154419</ele>
<time>2010-07-17T14:56:00Z</time>
<desc>lat.=55.866985, lon.=26.024202, Alt.=164.154419m. Speed=20.448000m/h.</desc>
<speed>5.680000</speed>
</trkpt>
<trkpt lat="55.866932" lon="26.024214">
<ele>163.908325</ele>
<time>2010-07-17T14:56:01Z</time>
<desc>lat.=55.866932, lon.=26.024214, Alt.=163.908325m. Speed=21.348000m/h.</desc>
<speed>5.930000</speed>
</trkpt>
<trkpt lat="55.866875" lon="26.024231">
<ele>163.521606</ele>
<time>2010-07-17T14:56:02Z</time>
<desc>lat.=55.866875, lon.=26.024231, Alt.=163.521606m. Speed=22.500000m/h.</desc>
<speed>6.250000</speed>
</trkpt>
<trkpt lat="55.866821" lon="26.024246">
<ele>163.345825</ele>
<time>2010-07-17T14:56:03Z</time>
<desc>lat.=55.866821, lon.=26.024246, Alt.=163.345825m. Speed=22.968000m/h.</desc>
<speed>6.380000</speed>
</trkpt>
<trkpt lat="55.866760" lon="26.024260">
<ele>163.088013</ele>
<time>2010-07-17T14:56:04Z</time>
<desc>lat.=55.866760, lon.=26.024260, Alt.=163.088013m. Speed=23.615999m/h.</desc>
<speed>6.560000</speed>
</trkpt>
<trkpt lat="55.866699" lon="26.024271">
<ele>162.748169</ele>
<time>2010-07-17T14:56:05Z</time>
<desc>lat.=55.866699, lon.=26.024271, Alt.=162.748169m. Speed=24.264000m/h.</desc>
<speed>6.740000</speed>
</trkpt>
<trkpt lat="55.866642" lon="26.024281">
<ele>162.505981</ele>
<time>2010-07-17T14:56:06Z</time>
<desc>lat.=55.866642, lon.=26.024281, Alt.=162.505981m. Speed=22.968000m/h.</desc>
<speed>6.380000</speed>
</trkpt>
<trkpt lat="55.866581" lon="26.024294">
<ele>162.248169</ele>
<time>2010-07-17T14:56:07Z</time>
<desc>lat.=55.866581, lon.=26.024294, Alt.=162.248169m. Speed=24.840000m/h.</desc>
<speed>6.900000</speed>
</trkpt>
<trkpt lat="55.866516" lon="26.024309">
<ele>161.978638</ele>
<time>2010-07-17T14:56:08Z</time>
<desc>lat.=55.866516, lon.=26.024309, Alt.=161.978638m. Speed=25.884001m/h.</desc>
<speed>7.190000</speed>
</trkpt>
<trkpt lat="55.866455" lon="26.024330">
<ele>161.779419</ele>
<time>2010-07-17T14:56:09Z</time>
<desc>lat.=55.866455, lon.=26.024330, Alt.=161.779419m. Speed=25.596001m/h.</desc>
<speed>7.110000</speed>
</trkpt>
<trkpt lat="55.866390" lon="26.024347">
<ele>161.685669</ele>
<time>2010-07-17T14:56:10Z</time>
<desc>lat.=55.866390, lon.=26.024347, Alt.=161.685669m. Speed=25.379999m/h.</desc>
<speed>7.050000</speed>
</trkpt>
<trkpt lat="55.866325" lon="26.024363">
<ele>161.505981</ele>
<time>2010-07-17T14:56:11Z</time>
<desc>lat.=55.866325, lon.=26.024363, Alt.=161.505981m. Speed=25.020000m/h.</desc>
<speed>6.950000</speed>
</trkpt>
<trkpt lat="55.866261" lon="26.024366">
<ele>161.291138</ele>
<time>2010-07-17T14:56:12Z</time>
<desc>lat.=55.866261, lon.=26.024366, Alt.=161.291138m. Speed=24.444000m/h.</desc>
<speed>6.790000</speed>
</trkpt>
<trkpt lat="55.866199" lon="26.024372">
<ele>161.334106</ele>
<time>2010-07-17T14:56:13Z</time>
<desc>lat.=55.866199, lon.=26.024372, Alt.=161.334106m. Speed=23.219999m/h.</desc>
<speed>6.450000</speed>
</trkpt>
<trkpt lat="55.866142" lon="26.024380">
<ele>161.435669</ele>
<time>2010-07-17T14:56:14Z</time>
<desc>lat.=55.866142, lon.=26.024380, Alt.=161.435669m. Speed=23.219999m/h.</desc>
<speed>6.450000</speed>
</trkpt>
<trkpt lat="55.866085" lon="26.024391">
<ele>161.205200</ele>
<time>2010-07-17T14:56:15Z</time>
<desc>lat.=55.866085, lon.=26.024391, Alt.=161.205200m. Speed=21.924000m/h.</desc>
<speed>6.090000</speed>
</trkpt>
<trkpt lat="55.866028" lon="26.024397">
<ele>161.209106</ele>
<time>2010-07-17T14:56:16Z</time>
<desc>lat.=55.866028, lon.=26.024397, Alt.=161.209106m. Speed=20.700001m/h.</desc>
<speed>5.750000</speed>
</trkpt>
<trkpt lat="55.865971" lon="26.024401">
<ele>161.423950</ele>
<time>2010-07-17T14:56:17Z</time>
<desc>lat.=55.865971, lon.=26.024401, Alt.=161.423950m. Speed=21.672001m/h.</desc>
<speed>6.020000</speed>
</trkpt>
<trkpt lat="55.865913" lon="26.024393">
<ele>161.685669</ele>
<time>2010-07-17T14:56:18Z</time>
<desc>lat.=55.865913, lon.=26.024393, Alt.=161.685669m. Speed=22.716000m/h.</desc>
<speed>6.310000</speed>
</trkpt>
<trkpt lat="55.865856" lon="26.024382">
<ele>161.521606</ele>
<time>2010-07-17T14:56:19Z</time>
<desc>lat.=55.865856, lon.=26.024382, Alt.=161.521606m. Speed=23.400000m/h.</desc>
<speed>6.500000</speed>
</trkpt>
<trkpt lat="55.865799" lon="26.024366">
<ele>161.279419</ele>
<time>2010-07-17T14:56:20Z</time>
<desc>lat.=55.865799, lon.=26.024366, Alt.=161.279419m. Speed=24.011999m/h.</desc>
<speed>6.670000</speed>
</trkpt>
<trkpt lat="55.865734" lon="26.024363">
<ele>161.865356</ele>
<time>2010-07-17T14:56:21Z</time>
<desc>lat.=55.865734, lon.=26.024363, Alt.=161.865356m. Speed=28.224001m/h.</desc>
<speed>7.840000</speed>
</trkpt>
<trkpt lat="55.865669" lon="26.024355">
<ele>161.736450</ele>
<time>2010-07-17T14:56:22Z</time>
<desc>lat.=55.865669, lon.=26.024355, Alt.=161.736450m. Speed=24.011999m/h.</desc>
<speed>6.670000</speed>
</trkpt>
<trkpt lat="55.865608" lon="26.024353">
<ele>162.002075</ele>
<time>2010-07-17T14:56:23Z</time>
<desc>lat.=55.865608, lon.=26.024353, Alt.=162.002075m. Speed=24.732000m/h.</desc>
<speed>6.870000</speed>
</trkpt>
<trkpt lat="55.865547" lon="26.024345">
<ele>162.240356</ele>
<time>2010-07-17T14:56:24Z</time>
<desc>lat.=55.865547, lon.=26.024345, Alt.=162.240356m. Speed=23.724001m/h.</desc>
<speed>6.590000</speed>
</trkpt>
<trkpt lat="55.865486" lon="26.024340">
<ele>162.181763</ele>
<time>2010-07-17T14:56:25Z</time>
<desc>lat.=55.865486, lon.=26.024340, Alt.=162.181763m. Speed=23.615999m/h.</desc>
<speed>6.560000</speed>
</trkpt>
<trkpt lat="55.865421" lon="26.024334">
<ele>162.681763</ele>
<time>2010-07-17T14:56:26Z</time>
<desc>lat.=55.865421, lon.=26.024334, Alt.=162.681763m. Speed=24.695999m/h.</desc>
<speed>6.860000</speed>
</trkpt>
<trkpt lat="55.865364" lon="26.024330">
<ele>163.009888</ele>
<time>2010-07-17T14:56:27Z</time>
<desc>lat.=55.865364, lon.=26.024330, Alt.=163.009888m. Speed=23.472000m/h.</desc>
<speed>6.520000</speed>
</trkpt>
<trkpt lat="55.865314" lon="26.024330">
<ele>163.134888</ele>
<time>2010-07-17T14:56:28Z</time>
<desc>lat.=55.865314, lon.=26.024330, Alt.=163.134888m. Speed=22.212000m/h.</desc>
<speed>6.170000</speed>
</trkpt>
<trkpt lat="55.865257" lon="26.024319">
<ele>163.466919</ele>
<time>2010-07-17T14:56:29Z</time>
<desc>lat.=55.865257, lon.=26.024319, Alt.=163.466919m. Speed=22.643999m/h.</desc>
<speed>6.290000</speed>
</trkpt>
<trkpt lat="55.865200" lon="26.024319">
<ele>162.763794</ele>
<time>2010-07-17T14:56:30Z</time>
<desc>lat.=55.865200, lon.=26.024319, Alt.=162.763794m. Speed=22.320000m/h.</desc>
<speed>6.200000</speed>
</trkpt>
<trkpt lat="55.865143" lon="26.024309">
<ele>162.732544</ele>
<time>2010-07-17T14:56:31Z</time>
<desc>lat.=55.865143, lon.=26.024309, Alt.=162.732544m. Speed=22.788000m/h.</desc>
<speed>6.330000</speed>
</trkpt>
<trkpt lat="55.865086" lon="26.024296">
<ele>162.943481</ele>
<time>2010-07-17T14:56:32Z</time>
<desc>lat.=55.865086, lon.=26.024296, Alt.=162.943481m. Speed=23.184000m/h.</desc>
<speed>6.440000</speed>
</trkpt>
<trkpt lat="55.865028" lon="26.024284">
<ele>163.130981</ele>
<time>2010-07-17T14:56:33Z</time>
<desc>lat.=55.865028, lon.=26.024284, Alt.=163.130981m. Speed=22.176001m/h.</desc>
<speed>6.160000</speed>
</trkpt>
<trkpt lat="55.864971" lon="26.024271">
<ele>163.318481</ele>
<time>2010-07-17T14:56:34Z</time>
<desc>lat.=55.864971, lon.=26.024271, Alt.=163.318481m. Speed=22.535999m/h.</desc>
<speed>6.260000</speed>
</trkpt>
<trkpt lat="55.864922" lon="26.024260">
<ele>163.334106</ele>
<time>2010-07-17T14:56:35Z</time>
<desc>lat.=55.864922, lon.=26.024260, Alt.=163.334106m. Speed=21.996000m/h.</desc>
<speed>6.110000</speed>
</trkpt>
<trkpt lat="55.864872" lon="26.024250">
<ele>163.302856</ele>
<time>2010-07-17T14:56:36Z</time>
<desc>lat.=55.864872, lon.=26.024250, Alt.=163.302856m. Speed=17.676001m/h.</desc>
<speed>4.910000</speed>
</trkpt>
<trkpt lat="55.864826" lon="26.024244">
<ele>163.361450</ele>
<time>2010-07-17T14:56:37Z</time>
<desc>lat.=55.864826, lon.=26.024244, Alt.=163.361450m. Speed=19.115999m/h.</desc>
<speed>5.310000</speed>
</trkpt>
<trkpt lat="55.864777" lon="26.024237">
<ele>163.498169</ele>
<time>2010-07-17T14:56:38Z</time>
<desc>lat.=55.864777, lon.=26.024237, Alt.=163.498169m. Speed=20.087999m/h.</desc>
<speed>5.580000</speed>
</trkpt>
<trkpt lat="55.864731" lon="26.024227">
<ele>163.654419</ele>
<time>2010-07-17T14:56:39Z</time>
<desc>lat.=55.864731, lon.=26.024227, Alt.=163.654419m. Speed=18.000000m/h.</desc>
<speed>5.000000</speed>
</trkpt>
<trkpt lat="55.864685" lon="26.024218">
<ele>163.877075</ele>
<time>2010-07-17T14:56:40Z</time>
<desc>lat.=55.864685, lon.=26.024218, Alt.=163.877075m. Speed=19.188000m/h.</desc>
<speed>5.330000</speed>
</trkpt>
<trkpt lat="55.864635" lon="26.024208">
<ele>163.884888</ele>
<time>2010-07-17T14:56:41Z</time>
<desc>lat.=55.864635, lon.=26.024208, Alt.=163.884888m. Speed=19.476000m/h.</desc>
<speed>5.410000</speed>
</trkpt>
<trkpt lat="55.864578" lon="26.024195">
<ele>163.673950</ele>
<time>2010-07-17T14:56:42Z</time>
<desc>lat.=55.864578, lon.=26.024195, Alt.=163.673950m. Speed=19.332001m/h.</desc>
<speed>5.370000</speed>
</trkpt>
<trkpt lat="55.864532" lon="26.024181">
<ele>163.912231</ele>
<time>2010-07-17T14:56:43Z</time>
<desc>lat.=55.864532, lon.=26.024181, Alt.=163.912231m. Speed=17.676001m/h.</desc>
<speed>4.910000</speed>
</trkpt>
<trkpt lat="55.864487" lon="26.024176">
<ele>163.845825</ele>
<time>2010-07-17T14:56:44Z</time>
<desc>lat.=55.864487, lon.=26.024176, Alt.=163.845825m. Speed=17.676001m/h.</desc>
<speed>4.910000</speed>
</trkpt>
<trkpt lat="55.864441" lon="26.024170">
<ele>163.963013</ele>
<time>2010-07-17T14:56:45Z</time>
<desc>lat.=55.864441, lon.=26.024170, Alt.=163.963013m. Speed=17.856001m/h.</desc>
<speed>4.960000</speed>
</trkpt>
<trkpt lat="55.864399" lon="26.024162">
<ele>164.158325</ele>
<time>2010-07-17T14:56:46Z</time>
<desc>lat.=55.864399, lon.=26.024162, Alt.=164.158325m. Speed=18.216000m/h.</desc>
<speed>5.060000</speed>
</trkpt>
<trkpt lat="55.864353" lon="26.024147">
<ele>164.423950</ele>
<time>2010-07-17T14:56:47Z</time>
<desc>lat.=55.864353, lon.=26.024147, Alt.=164.423950m. Speed=18.827999m/h.</desc>
<speed>5.230000</speed>
</trkpt>
<trkpt lat="55.864304" lon="26.024136">
<ele>164.615356</ele>
<time>2010-07-17T14:56:48Z</time>
<desc>lat.=55.864304, lon.=26.024136, Alt.=164.615356m. Speed=19.872000m/h.</desc>
<speed>5.520000</speed>
</trkpt>
<trkpt lat="55.864254" lon="26.024126">
<ele>164.709106</ele>
<time>2010-07-17T14:56:49Z</time>
<desc>lat.=55.864254, lon.=26.024126, Alt.=164.709106m. Speed=20.232000m/h.</desc>
<speed>5.620000</speed>
</trkpt>
<trkpt lat="55.864204" lon="26.024115">
<ele>164.834106</ele>
<time>2010-07-17T14:56:50Z</time>
<desc>lat.=55.864204, lon.=26.024115, Alt.=164.834106m. Speed=21.096001m/h.</desc>
<speed>5.860000</speed>
</trkpt>
<trkpt lat="55.864151" lon="26.024103">
<ele>164.966919</ele>
<time>2010-07-17T14:56:51Z</time>
<desc>lat.=55.864151, lon.=26.024103, Alt.=164.966919m. Speed=20.988001m/h.</desc>
<speed>5.830000</speed>
</trkpt>
<trkpt lat="55.864101" lon="26.024094">
<ele>165.130981</ele>
<time>2010-07-17T14:56:52Z</time>
<desc>lat.=55.864101, lon.=26.024094, Alt.=165.130981m. Speed=21.528000m/h.</desc>
<speed>5.980000</speed>
</trkpt>
<trkpt lat="55.864048" lon="26.024086">
<ele>165.213013</ele>
<time>2010-07-17T14:56:53Z</time>
<desc>lat.=55.864048, lon.=26.024086, Alt.=165.213013m. Speed=22.535999m/h.</desc>
<speed>6.260000</speed>
</trkpt>
<trkpt lat="55.863991" lon="26.024069">
<ele>165.259888</ele>
<time>2010-07-17T14:56:54Z</time>
<desc>lat.=55.863991, lon.=26.024069, Alt.=165.259888m. Speed=21.708000m/h.</desc>
<speed>6.030000</speed>
</trkpt>
<trkpt lat="55.863941" lon="26.024052">
<ele>165.373169</ele>
<time>2010-07-17T14:56:55Z</time>
<desc>lat.=55.863941, lon.=26.024052, Alt.=165.373169m. Speed=20.808001m/h.</desc>
<speed>5.780000</speed>
</trkpt>
<trkpt lat="55.863888" lon="26.024031">
<ele>165.275513</ele>
<time>2010-07-17T14:56:56Z</time>
<desc>lat.=55.863888, lon.=26.024031, Alt.=165.275513m. Speed=20.052000m/h.</desc>
<speed>5.570000</speed>
</trkpt>
<trkpt lat="55.863838" lon="26.024017">
<ele>165.353638</ele>
<time>2010-07-17T14:56:57Z</time>
<desc>lat.=55.863838, lon.=26.024017, Alt.=165.353638m. Speed=18.936001m/h.</desc>
<speed>5.260000</speed>
</trkpt>
<trkpt lat="55.863796" lon="26.024006">
<ele>165.552856</ele>
<time>2010-07-17T14:56:58Z</time>
<desc>lat.=55.863796, lon.=26.024006, Alt.=165.552856m. Speed=18.540001m/h.</desc>
<speed>5.150000</speed>
</trkpt>
<trkpt lat="55.863750" lon="26.023991">
<ele>165.752075</ele>
<time>2010-07-17T14:56:59Z</time>
<desc>lat.=55.863750, lon.=26.023991, Alt.=165.752075m. Speed=19.332001m/h.</desc>
<speed>5.370000</speed>
</trkpt>
<trkpt lat="55.863701" lon="26.023973">
<ele>165.857544</ele>
<time>2010-07-17T14:57:00Z</time>
<desc>lat.=55.863701, lon.=26.023973, Alt.=165.857544m. Speed=19.872000m/h.</desc>
<speed>5.520000</speed>
</trkpt>
<trkpt lat="55.863655" lon="26.023956">
<ele>165.830200</ele>
<time>2010-07-17T14:57:01Z</time>
<desc>lat.=55.863655, lon.=26.023956, Alt.=165.830200m. Speed=20.520000m/h.</desc>
<speed>5.700000</speed>
</trkpt>
<trkpt lat="55.863602" lon="26.023935">
<ele>166.002075</ele>
<time>2010-07-17T14:57:02Z</time>
<desc>lat.=55.863602, lon.=26.023935, Alt.=166.002075m. Speed=20.556000m/h.</desc>
<speed>5.710000</speed>
</trkpt>
<trkpt lat="55.863556" lon="26.023912">
<ele>166.185669</ele>
<time>2010-07-17T14:57:03Z</time>
<desc>lat.=55.863556, lon.=26.023912, Alt.=166.185669m. Speed=20.232000m/h.</desc>
<speed>5.620000</speed>
</trkpt>
<trkpt lat="55.863506" lon="26.023884">
<ele>166.502075</ele>
<time>2010-07-17T14:57:04Z</time>
<desc>lat.=55.863506, lon.=26.023884, Alt.=166.502075m. Speed=20.195999m/h.</desc>
<speed>5.610000</speed>
</trkpt>
<trkpt lat="55.863461" lon="26.023851">
<ele>166.670044</ele>
<time>2010-07-17T14:57:05Z</time>
<desc>lat.=55.863461, lon.=26.023851, Alt.=166.670044m. Speed=19.764000m/h.</desc>
<speed>5.490000</speed>
</trkpt>
<trkpt lat="55.863415" lon="26.023829">
<ele>166.892700</ele>
<time>2010-07-17T14:57:06Z</time>
<desc>lat.=55.863415, lon.=26.023829, Alt.=166.892700m. Speed=18.108000m/h.</desc>
<speed>5.030000</speed>
</trkpt>
<trkpt lat="55.863373" lon="26.023800">
<ele>167.142700</ele>
<time>2010-07-17T14:57:07Z</time>
<desc>lat.=55.863373, lon.=26.023800, Alt.=167.142700m. Speed=17.172001m/h.</desc>
<speed>4.770000</speed>
</trkpt>
<trkpt lat="55.863335" lon="26.023771">
<ele>167.279419</ele>
<time>2010-07-17T14:57:08Z</time>
<desc>lat.=55.863335, lon.=26.023771, Alt.=167.279419m. Speed=15.984000m/h.</desc>
<speed>4.440000</speed>
</trkpt>
<trkpt lat="55.863304" lon="26.023739">
<ele>167.568481</ele>
<time>2010-07-17T14:57:09Z</time>
<desc>lat.=55.863304, lon.=26.023739, Alt.=167.568481m. Speed=13.608000m/h.</desc>
<speed>3.780000</speed>
</trkpt>
<trkpt lat="55.863274" lon="26.023706">
<ele>167.998169</ele>
<time>2010-07-17T14:57:10Z</time>
<desc>lat.=55.863274, lon.=26.023706, Alt.=167.998169m. Speed=13.392000m/h.</desc>
<speed>3.720000</speed>
</trkpt>
<trkpt lat="55.863243" lon="26.023680">
<ele>168.463013</ele>
<time>2010-07-17T14:57:11Z</time>
<desc>lat.=55.863243, lon.=26.023680, Alt.=168.463013m. Speed=13.212000m/h.</desc>
<speed>3.670000</speed>
</trkpt>
<trkpt lat="55.863213" lon="26.023655">
<ele>168.736450</ele>
<time>2010-07-17T14:57:12Z</time>
<desc>lat.=55.863213, lon.=26.023655, Alt.=168.736450m. Speed=13.248000m/h.</desc>
<speed>3.680000</speed>
</trkpt>
<trkpt lat="55.863186" lon="26.023628">
<ele>168.994263</ele>
<time>2010-07-17T14:57:13Z</time>
<desc>lat.=55.863186, lon.=26.023628, Alt.=168.994263m. Speed=12.492000m/h.</desc>
<speed>3.470000</speed>
</trkpt>
<trkpt lat="55.863159" lon="26.023598">
<ele>169.146606</ele>
<time>2010-07-17T14:57:14Z</time>
<desc>lat.=55.863159, lon.=26.023598, Alt.=169.146606m. Speed=12.348000m/h.</desc>
<speed>3.430000</speed>
</trkpt>
<trkpt lat="55.863132" lon="26.023560">
<ele>169.248169</ele>
<time>2010-07-17T14:57:15Z</time>
<desc>lat.=55.863132, lon.=26.023560, Alt.=169.248169m. Speed=13.752000m/h.</desc>
<speed>3.820000</speed>
</trkpt>
<trkpt lat="55.863110" lon="26.023521">
<ele>169.459106</ele>
<time>2010-07-17T14:57:16Z</time>
<desc>lat.=55.863110, lon.=26.023521, Alt.=169.459106m. Speed=13.896000m/h.</desc>
<speed>3.860000</speed>
</trkpt>
<trkpt lat="55.863087" lon="26.023479">
<ele>170.080200</ele>
<time>2010-07-17T14:57:17Z</time>
<desc>lat.=55.863087, lon.=26.023479, Alt.=170.080200m. Speed=13.320000m/h.</desc>
<speed>3.700000</speed>
</trkpt>
<trkpt lat="55.863056" lon="26.023443">
<ele>170.451294</ele>
<time>2010-07-17T14:57:18Z</time>
<desc>lat.=55.863056, lon.=26.023443, Alt.=170.451294m. Speed=15.084000m/h.</desc>
<speed>4.190000</speed>
</trkpt>
<trkpt lat="55.863029" lon="26.023403">
<ele>170.736450</ele>
<time>2010-07-17T14:57:19Z</time>
<desc>lat.=55.863029, lon.=26.023403, Alt.=170.736450m. Speed=14.544000m/h.</desc>
<speed>4.040000</speed>
</trkpt>
<trkpt lat="55.863007" lon="26.023361">
<ele>171.443481</ele>
<time>2010-07-17T14:57:20Z</time>
<desc>lat.=55.863007, lon.=26.023361, Alt.=171.443481m. Speed=13.104000m/h.</desc>
<speed>3.640000</speed>
</trkpt>
<trkpt lat="55.862984" lon="26.023333">
<ele>171.451294</ele>
<time>2010-07-17T14:57:21Z</time>
<desc>lat.=55.862984, lon.=26.023333, Alt.=171.451294m. Speed=13.860000m/h.</desc>
<speed>3.850000</speed>
</trkpt>
<trkpt lat="55.862957" lon="26.023302">
<ele>171.826294</ele>
<time>2010-07-17T14:57:22Z</time>
<desc>lat.=55.862957, lon.=26.023302, Alt.=171.826294m. Speed=14.004000m/h.</desc>
<speed>3.890000</speed>
</trkpt>
<trkpt lat="55.862930" lon="26.023262">
<ele>172.248169</ele>
<time>2010-07-17T14:57:23Z</time>
<desc>lat.=55.862930, lon.=26.023262, Alt.=172.248169m. Speed=14.508000m/h.</desc>
<speed>4.030000</speed>
</trkpt>
<trkpt lat="55.862896" lon="26.023228">
<ele>172.295044</ele>
<time>2010-07-17T14:57:24Z</time>
<desc>lat.=55.862896, lon.=26.023228, Alt.=172.295044m. Speed=15.948000m/h.</desc>
<speed>4.430000</speed>
</trkpt>
<trkpt lat="55.862858" lon="26.023199">
<ele>172.619263</ele>
<time>2010-07-17T14:57:25Z</time>
<desc>lat.=55.862858, lon.=26.023199, Alt.=172.619263m. Speed=14.328000m/h.</desc>
<speed>3.980000</speed>
</trkpt>
<trkpt lat="55.862827" lon="26.023157">
<ele>172.861450</ele>
<time>2010-07-17T14:57:26Z</time>
<desc>lat.=55.862827, lon.=26.023157, Alt.=172.861450m. Speed=16.344000m/h.</desc>
<speed>4.540000</speed>
</trkpt>
<trkpt lat="55.862797" lon="26.023121">
<ele>173.084106</ele>
<time>2010-07-17T14:57:27Z</time>
<desc>lat.=55.862797, lon.=26.023121, Alt.=173.084106m. Speed=15.228000m/h.</desc>
<speed>4.230000</speed>
</trkpt>
<trkpt lat="55.862762" lon="26.023073">
<ele>173.552856</ele>
<time>2010-07-17T14:57:28Z</time>
<desc>lat.=55.862762, lon.=26.023073, Alt.=173.552856m. Speed=14.616000m/h.</desc>
<speed>4.060000</speed>
</trkpt>
<trkpt lat="55.862728" lon="26.023022">
<ele>173.955200</ele>
<time>2010-07-17T14:57:29Z</time>
<desc>lat.=55.862728, lon.=26.023022, Alt.=173.955200m. Speed=15.156000m/h.</desc>
<speed>4.210000</speed>
</trkpt>
<trkpt lat="55.862701" lon="26.022963">
<ele>174.502075</ele>
<time>2010-07-17T14:57:30Z</time>
<desc>lat.=55.862701, lon.=26.022963, Alt.=174.502075m. Speed=14.076000m/h.</desc>
<speed>3.910000</speed>
</trkpt>
<trkpt lat="55.862671" lon="26.022907">
<ele>174.920044</ele>
<time>2010-07-17T14:57:31Z</time>
<desc>lat.=55.862671, lon.=26.022907, Alt.=174.920044m. Speed=17.784000m/h.</desc>
<speed>4.940000</speed>
</trkpt>
<trkpt lat="55.862633" lon="26.022854">
<ele>175.177856</ele>
<time>2010-07-17T14:57:32Z</time>
<desc>lat.=55.862633, lon.=26.022854, Alt.=175.177856m. Speed=17.784000m/h.</desc>
<speed>4.940000</speed>
</trkpt>
<trkpt lat="55.862598" lon="26.022800">
<ele>175.037231</ele>
<time>2010-07-17T14:57:33Z</time>
<desc>lat.=55.862598, lon.=26.022800, Alt.=175.037231m. Speed=18.108000m/h.</desc>
<speed>5.030000</speed>
</trkpt>
<trkpt lat="55.862564" lon="26.022743">
<ele>175.423950</ele>
<time>2010-07-17T14:57:34Z</time>
<desc>lat.=55.862564, lon.=26.022743, Alt.=175.423950m. Speed=18.756001m/h.</desc>
<speed>5.210000</speed>
</trkpt>
<trkpt lat="55.862526" lon="26.022680">
<ele>175.330200</ele>
<time>2010-07-17T14:57:35Z</time>
<desc>lat.=55.862526, lon.=26.022680, Alt.=175.330200m. Speed=19.764000m/h.</desc>
<speed>5.490000</speed>
</trkpt>
<trkpt lat="55.862488" lon="26.022615">
<ele>175.806763</ele>
<time>2010-07-17T14:57:36Z</time>
<desc>lat.=55.862488, lon.=26.022615, Alt.=175.806763m. Speed=19.872000m/h.</desc>
<speed>5.520000</speed>
</trkpt>
<trkpt lat="55.862450" lon="26.022562">
<ele>175.822388</ele>
<time>2010-07-17T14:57:37Z</time>
<desc>lat.=55.862450, lon.=26.022562, Alt.=175.822388m. Speed=21.348000m/h.</desc>
<speed>5.930000</speed>
</trkpt>
<trkpt lat="55.862408" lon="26.022507">
<ele>175.783325</ele>
<time>2010-07-17T14:57:38Z</time>
<desc>lat.=55.862408, lon.=26.022507, Alt.=175.783325m. Speed=21.528000m/h.</desc>
<speed>5.980000</speed>
</trkpt>
<trkpt lat="55.862362" lon="26.022455">
<ele>175.713013</ele>
<time>2010-07-17T14:57:39Z</time>
<desc>lat.=55.862362, lon.=26.022455, Alt.=175.713013m. Speed=21.348000m/h.</desc>
<speed>5.930000</speed>
</trkpt>
<trkpt lat="55.862320" lon="26.022404">
<ele>175.998169</ele>
<time>2010-07-17T14:57:40Z</time>
<desc>lat.=55.862320, lon.=26.022404, Alt.=175.998169m. Speed=21.672001m/h.</desc>
<speed>6.020000</speed>
</trkpt>
<trkpt lat="55.862274" lon="26.022360">
<ele>176.017700</ele>
<time>2010-07-17T14:57:41Z</time>
<desc>lat.=55.862274, lon.=26.022360, Alt.=176.017700m. Speed=21.132000m/h.</desc>
<speed>5.870000</speed>
</trkpt>
<trkpt lat="55.862225" lon="26.022314">
<ele>175.955200</ele>
<time>2010-07-17T14:57:42Z</time>
<desc>lat.=55.862225, lon.=26.022314, Alt.=175.955200m. Speed=21.204000m/h.</desc>
<speed>5.890000</speed>
</trkpt>
<trkpt lat="55.862179" lon="26.022272">
<ele>176.088013</ele>
<time>2010-07-17T14:57:43Z</time>
<desc>lat.=55.862179, lon.=26.022272, Alt.=176.088013m. Speed=19.944000m/h.</desc>
<speed>5.540000</speed>
</trkpt>
<trkpt lat="55.862129" lon="26.022234">
<ele>176.107544</ele>
<time>2010-07-17T14:57:44Z</time>
<desc>lat.=55.862129, lon.=26.022234, Alt.=176.107544m. Speed=23.400000m/h.</desc>
<speed>6.500000</speed>
</trkpt>
<trkpt lat="55.862072" lon="26.022209">
<ele>174.759888</ele>
<time>2010-07-17T14:57:45Z</time>
<desc>lat.=55.862072, lon.=26.022209, Alt.=174.759888m. Speed=22.068001m/h.</desc>
<speed>6.130000</speed>
</trkpt>
<trkpt lat="55.862019" lon="26.022194">
<ele>174.388794</ele>
<time>2010-07-17T14:57:46Z</time>
<desc>lat.=55.862019, lon.=26.022194, Alt.=174.388794m. Speed=21.420000m/h.</desc>
<speed>5.950000</speed>
</trkpt>
<trkpt lat="55.861965" lon="26.022194">
<ele>174.392700</ele>
<time>2010-07-17T14:57:47Z</time>
<desc>lat.=55.861965, lon.=26.022194, Alt.=174.392700m. Speed=18.900000m/h.</desc>
<speed>5.250000</speed>
</trkpt>
<trkpt lat="55.861923" lon="26.022200">
<ele>174.517700</ele>
<time>2010-07-17T14:57:48Z</time>
<desc>lat.=55.861923, lon.=26.022200, Alt.=174.517700m. Speed=17.351999m/h.</desc>
<speed>4.820000</speed>
</trkpt>
<trkpt lat="55.861881" lon="26.022202">
<ele>174.357544</ele>
<time>2010-07-17T14:57:49Z</time>
<desc>lat.=55.861881, lon.=26.022202, Alt.=174.357544m. Speed=15.408000m/h.</desc>
<speed>4.280000</speed>
</trkpt>
<trkpt lat="55.861839" lon="26.022202">
<ele>173.814575</ele>
<time>2010-07-17T14:57:50Z</time>
<desc>lat.=55.861839, lon.=26.022202, Alt.=173.814575m. Speed=13.896000m/h.</desc>
<speed>3.860000</speed>
</trkpt>
<trkpt lat="55.861801" lon="26.022211">
<ele>173.810669</ele>
<time>2010-07-17T14:57:51Z</time>
<desc>lat.=55.861801, lon.=26.022211, Alt.=173.810669m. Speed=13.284000m/h.</desc>
<speed>3.690000</speed>
</trkpt>
<trkpt lat="55.861771" lon="26.022215">
<ele>173.666138</ele>
<time>2010-07-17T14:57:52Z</time>
<desc>lat.=55.861771, lon.=26.022215, Alt.=173.666138m. Speed=10.800000m/h.</desc>
<speed>3.000000</speed>
</trkpt>
<trkpt lat="55.861740" lon="26.022223">
<ele>173.318481</ele>
<time>2010-07-17T14:57:53Z</time>
<desc>lat.=55.861740, lon.=26.022223, Alt.=173.318481m. Speed=10.836000m/h.</desc>
<speed>3.010000</speed>
</trkpt>
<trkpt lat="55.861679" lon="26.022215">
<ele>171.681763</ele>
<time>2010-07-17T14:57:54Z</time>
<desc>lat.=55.861679, lon.=26.022215, Alt.=171.681763m. Speed=16.920000m/h.</desc>
<speed>4.700000</speed>
</trkpt>
<trkpt lat="55.861622" lon="26.022219">
<ele>169.525513</ele>
<time>2010-07-17T14:57:55Z</time>
<desc>lat.=55.861622, lon.=26.022219, Alt.=169.525513m. Speed=18.252001m/h.</desc>
<speed>5.070000</speed>
</trkpt>
<trkpt lat="55.861568" lon="26.022255">
<ele>168.197388</ele>
<time>2010-07-17T14:57:56Z</time>
<desc>lat.=55.861568, lon.=26.022255, Alt.=168.197388m. Speed=20.160000m/h.</desc>
<speed>5.600000</speed>
</trkpt>
<trkpt lat="55.861511" lon="26.022291">
<ele>167.080200</ele>
<time>2010-07-17T14:57:57Z</time>
<desc>lat.=55.861511, lon.=26.022291, Alt.=167.080200m. Speed=20.520000m/h.</desc>
<speed>5.700000</speed>
</trkpt>
<trkpt lat="55.861454" lon="26.022318">
<ele>165.150513</ele>
<time>2010-07-17T14:57:58Z</time>
<desc>lat.=55.861454, lon.=26.022318, Alt.=165.150513m. Speed=22.716000m/h.</desc>
<speed>6.310000</speed>
</trkpt>
<trkpt lat="55.861397" lon="26.022337">
<ele>163.576294</ele>
<time>2010-07-17T14:57:59Z</time>
<desc>lat.=55.861397, lon.=26.022337, Alt.=163.576294m. Speed=22.788000m/h.</desc>
<speed>6.330000</speed>
</trkpt>
<trkpt lat="55.861340" lon="26.022352">
<ele>162.818481</ele>
<time>2010-07-17T14:58:00Z</time>
<desc>lat.=55.861340, lon.=26.022352, Alt.=162.818481m. Speed=22.247999m/h.</desc>
<speed>6.180000</speed>
</trkpt>
<trkpt lat="55.861282" lon="26.022373">
<ele>162.213013</ele>
<time>2010-07-17T14:58:01Z</time>
<desc>lat.=55.861282, lon.=26.022373, Alt.=162.213013m. Speed=21.059999m/h.</desc>
<speed>5.850000</speed>
</trkpt>
<trkpt lat="55.861237" lon="26.022392">
<ele>161.584106</ele>
<time>2010-07-17T14:58:02Z</time>
<desc>lat.=55.861237, lon.=26.022392, Alt.=161.584106m. Speed=18.576000m/h.</desc>
<speed>5.160000</speed>
</trkpt>
<trkpt lat="55.861183" lon="26.022415">
<ele>160.982544</ele>
<time>2010-07-17T14:58:03Z</time>
<desc>lat.=55.861183, lon.=26.022415, Alt.=160.982544m. Speed=20.483999m/h.</desc>
<speed>5.690000</speed>
</trkpt>
<trkpt lat="55.861126" lon="26.022436">
<ele>160.107544</ele>
<time>2010-07-17T14:58:04Z</time>
<desc>lat.=55.861126, lon.=26.022436, Alt.=160.107544m. Speed=19.511999m/h.</desc>
<speed>5.420000</speed>
</trkpt>
<trkpt lat="55.861076" lon="26.022451">
<ele>159.607544</ele>
<time>2010-07-17T14:58:05Z</time>
<desc>lat.=55.861076, lon.=26.022451, Alt.=159.607544m. Speed=18.035999m/h.</desc>
<speed>5.010000</speed>
</trkpt>
<trkpt lat="55.861027" lon="26.022457">
<ele>159.744263</ele>
<time>2010-07-17T14:58:06Z</time>
<desc>lat.=55.861027, lon.=26.022457, Alt.=159.744263m. Speed=17.639999m/h.</desc>
<speed>4.900000</speed>
</trkpt>
<trkpt lat="55.860985" lon="26.022480">
<ele>158.994263</ele>
<time>2010-07-17T14:58:07Z</time>
<desc>lat.=55.860985, lon.=26.022480, Alt.=158.994263m. Speed=16.775999m/h.</desc>
<speed>4.660000</speed>
</trkpt>
<trkpt lat="55.860943" lon="26.022486">
<ele>159.029419</ele>
<time>2010-07-17T14:58:08Z</time>
<desc>lat.=55.860943, lon.=26.022486, Alt.=159.029419m. Speed=15.264000m/h.</desc>
<speed>4.240000</speed>
</trkpt>
<trkpt lat="55.860909" lon="26.022499">
<ele>158.271606</ele>
<time>2010-07-17T14:58:09Z</time>
<desc>lat.=55.860909, lon.=26.022499, Alt.=158.271606m. Speed=12.312000m/h.</desc>
<speed>3.420000</speed>
</trkpt>
<trkpt lat="55.860882" lon="26.022511">
<ele>157.775513</ele>
<time>2010-07-17T14:58:10Z</time>
<desc>lat.=55.860882, lon.=26.022511, Alt.=157.775513m. Speed=9.900000m/h.</desc>
<speed>2.750000</speed>
</trkpt>
<trkpt lat="55.860855" lon="26.022520">
<ele>157.298950</ele>
<time>2010-07-17T14:58:11Z</time>
<desc>lat.=55.860855, lon.=26.022520, Alt.=157.298950m. Speed=8.100000m/h.</desc>
<speed>2.250000</speed>
</trkpt>
<trkpt lat="55.860832" lon="26.022524">
<ele>156.763794</ele>
<time>2010-07-17T14:58:12Z</time>
<desc>lat.=55.860832, lon.=26.022524, Alt.=156.763794m. Speed=7.344000m/h.</desc>
<speed>2.040000</speed>
</trkpt>
<trkpt lat="55.860821" lon="26.022535">
<ele>156.435669</ele>
<time>2010-07-17T14:58:13Z</time>
<desc>lat.=55.860821, lon.=26.022535, Alt.=156.435669m. Speed=6.588000m/h.</desc>
<speed>1.830000</speed>
</trkpt>
<trkpt lat="55.860802" lon="26.022541">
<ele>156.005981</ele>
<time>2010-07-17T14:58:14Z</time>
<desc>lat.=55.860802, lon.=26.022541, Alt.=156.005981m. Speed=4.932000m/h.</desc>
<speed>1.370000</speed>
</trkpt>
<trkpt lat="55.860794" lon="26.022543">
<ele>156.021606</ele>
<time>2010-07-17T14:58:15Z</time>
<desc>lat.=55.860794, lon.=26.022543, Alt.=156.021606m. Speed=0.972000m/h.</desc>
<speed>0.270000</speed>
</trkpt>
<trkpt lat="55.860790" lon="26.022547">
<ele>156.130981</ele>
<time>2010-07-17T14:58:16Z</time>
<desc>lat.=55.860790, lon.=26.022547, Alt.=156.130981m. Speed=1.440000m/h.</desc>
<speed>0.400000</speed>
</trkpt>
<trkpt lat="55.860783" lon="26.022554">
<ele>155.892700</ele>
<time>2010-07-17T14:58:17Z</time>
<desc>lat.=55.860783, lon.=26.022554, Alt.=155.892700m. Speed=2.700000m/h.</desc>
<speed>0.750000</speed>
</trkpt>
<trkpt lat="55.860771" lon="26.022562">
<ele>155.759888</ele>
<time>2010-07-17T14:58:18Z</time>
<desc>lat.=55.860771, lon.=26.022562, Alt.=155.759888m. Speed=3.240000m/h.</desc>
<speed>0.900000</speed>
</trkpt>
<trkpt lat="55.860767" lon="26.022570">
<ele>155.791138</ele>
<time>2010-07-17T14:58:19Z</time>
<desc>lat.=55.860767, lon.=26.022570, Alt.=155.791138m. Speed=3.816000m/h.</desc>
<speed>1.060000</speed>
</trkpt>
<trkpt lat="55.860756" lon="26.022577">
<ele>155.853638</ele>
<time>2010-07-17T14:58:20Z</time>
<desc>lat.=55.860756, lon.=26.022577, Alt.=155.853638m. Speed=4.068000m/h.</desc>
<speed>1.130000</speed>
</trkpt>
<trkpt lat="55.860744" lon="26.022587">
<ele>155.533325</ele>
<time>2010-07-17T14:58:21Z</time>
<desc>lat.=55.860744, lon.=26.022587, Alt.=155.533325m. Speed=6.228000m/h.</desc>
<speed>1.730000</speed>
</trkpt>
<trkpt lat="55.860729" lon="26.022600">
<ele>155.369263</ele>
<time>2010-07-17T14:58:22Z</time>
<desc>lat.=55.860729, lon.=26.022600, Alt.=155.369263m. Speed=6.624000m/h.</desc>
<speed>1.840000</speed>
</trkpt>
<trkpt lat="55.860714" lon="26.022606">
<ele>155.115356</ele>
<time>2010-07-17T14:58:23Z</time>
<desc>lat.=55.860714, lon.=26.022606, Alt.=155.115356m. Speed=7.704000m/h.</desc>
<speed>2.140000</speed>
</trkpt>
<trkpt lat="55.860695" lon="26.022612">
<ele>155.033325</ele>
<time>2010-07-17T14:58:24Z</time>
<desc>lat.=55.860695, lon.=26.022612, Alt.=155.033325m. Speed=8.568000m/h.</desc>
<speed>2.380000</speed>
</trkpt>
<trkpt lat="55.860676" lon="26.022615">
<ele>154.916138</ele>
<time>2010-07-17T14:58:25Z</time>
<desc>lat.=55.860676, lon.=26.022615, Alt.=154.916138m. Speed=7.488000m/h.</desc>
<speed>2.080000</speed>
</trkpt>
<trkpt lat="55.860653" lon="26.022625">
<ele>154.427856</ele>
<time>2010-07-17T14:58:26Z</time>
<desc>lat.=55.860653, lon.=26.022625, Alt.=154.427856m. Speed=8.784000m/h.</desc>
<speed>2.440000</speed>
</trkpt>
<trkpt lat="55.860630" lon="26.022636">
<ele>153.978638</ele>
<time>2010-07-17T14:58:27Z</time>
<desc>lat.=55.860630, lon.=26.022636, Alt.=153.978638m. Speed=11.880000m/h.</desc>
<speed>3.300000</speed>
</trkpt>
<trkpt lat="55.860600" lon="26.022646">
<ele>153.345825</ele>
<time>2010-07-17T14:58:28Z</time>
<desc>lat.=55.860600, lon.=26.022646, Alt.=153.345825m. Speed=13.896000m/h.</desc>
<speed>3.860000</speed>
</trkpt>
<trkpt lat="55.860561" lon="26.022665">
<ele>152.728638</ele>
<time>2010-07-17T14:58:29Z</time>
<desc>lat.=55.860561, lon.=26.022665, Alt.=152.728638m. Speed=14.832000m/h.</desc>
<speed>4.120000</speed>
</trkpt>
<trkpt lat="55.860523" lon="26.022676">
<ele>152.591919</ele>
<time>2010-07-17T14:58:30Z</time>
<desc>lat.=55.860523, lon.=26.022676, Alt.=152.591919m. Speed=14.976000m/h.</desc>
<speed>4.160000</speed>
</trkpt>
<trkpt lat="55.860481" lon="26.022694">
<ele>152.623169</ele>
<time>2010-07-17T14:58:31Z</time>
<desc>lat.=55.860481, lon.=26.022694, Alt.=152.623169m. Speed=15.912000m/h.</desc>
<speed>4.420000</speed>
</trkpt>
<trkpt lat="55.860435" lon="26.022696">
<ele>153.189575</ele>
<time>2010-07-17T14:58:32Z</time>
<desc>lat.=55.860435, lon.=26.022696, Alt.=153.189575m. Speed=16.524000m/h.</desc>
<speed>4.590000</speed>
</trkpt>
<trkpt lat="55.860394" lon="26.022709">
<ele>153.029419</ele>
<time>2010-07-17T14:58:33Z</time>
<desc>lat.=55.860394, lon.=26.022709, Alt.=153.029419m. Speed=17.712000m/h.</desc>
<speed>4.920000</speed>
</trkpt>
<trkpt lat="55.860352" lon="26.022722">
<ele>153.287231</ele>
<time>2010-07-17T14:58:34Z</time>
<desc>lat.=55.860352, lon.=26.022722, Alt.=153.287231m. Speed=18.576000m/h.</desc>
<speed>5.160000</speed>
</trkpt>
<trkpt lat="55.860306" lon="26.022736">
<ele>153.099731</ele>
<time>2010-07-17T14:58:35Z</time>
<desc>lat.=55.860306, lon.=26.022736, Alt.=153.099731m. Speed=19.080000m/h.</desc>
<speed>5.300000</speed>
</trkpt>
<trkpt lat="55.860260" lon="26.022747">
<ele>153.048950</ele>
<time>2010-07-17T14:58:36Z</time>
<desc>lat.=55.860260, lon.=26.022747, Alt.=153.048950m. Speed=17.712000m/h.</desc>
<speed>4.920000</speed>
</trkpt>
<trkpt lat="55.860214" lon="26.022755">
<ele>153.181763</ele>
<time>2010-07-17T14:58:37Z</time>
<desc>lat.=55.860214, lon.=26.022755, Alt.=153.181763m. Speed=16.524000m/h.</desc>
<speed>4.590000</speed>
</trkpt>
<trkpt lat="55.860172" lon="26.022766">
<ele>153.209106</ele>
<time>2010-07-17T14:58:38Z</time>
<desc>lat.=55.860172, lon.=26.022766, Alt.=153.209106m. Speed=16.020000m/h.</desc>
<speed>4.450000</speed>
</trkpt>
<trkpt lat="55.860134" lon="26.022791">
<ele>153.412231</ele>
<time>2010-07-17T14:58:39Z</time>
<desc>lat.=55.860134, lon.=26.022791, Alt.=153.412231m. Speed=17.351999m/h.</desc>
<speed>4.820000</speed>
</trkpt>
<trkpt lat="55.860088" lon="26.022806">
<ele>153.349731</ele>
<time>2010-07-17T14:58:40Z</time>
<desc>lat.=55.860088, lon.=26.022806, Alt.=153.349731m. Speed=19.080000m/h.</desc>
<speed>5.300000</speed>
</trkpt>
<trkpt lat="55.860043" lon="26.022818">
<ele>153.759888</ele>
<time>2010-07-17T14:58:41Z</time>
<desc>lat.=55.860043, lon.=26.022818, Alt.=153.759888m. Speed=18.000000m/h.</desc>
<speed>5.000000</speed>
</trkpt>
<trkpt lat="55.859997" lon="26.022825">
<ele>154.584106</ele>
<time>2010-07-17T14:58:42Z</time>
<desc>lat.=55.859997, lon.=26.022825, Alt.=154.584106m. Speed=18.323999m/h.</desc>
<speed>5.090000</speed>
</trkpt>
<trkpt lat="55.859947" lon="26.022846">
<ele>154.396606</ele>
<time>2010-07-17T14:58:43Z</time>
<desc>lat.=55.859947, lon.=26.022846, Alt.=154.396606m. Speed=20.879999m/h.</desc>
<speed>5.800000</speed>
</trkpt>
<trkpt lat="55.859898" lon="26.022858">
<ele>154.673950</ele>
<time>2010-07-17T14:58:44Z</time>
<desc>lat.=55.859898, lon.=26.022858, Alt.=154.673950m. Speed=19.872000m/h.</desc>
<speed>5.520000</speed>
</trkpt>
<trkpt lat="55.859852" lon="26.022875">
<ele>154.623169</ele>
<time>2010-07-17T14:58:45Z</time>
<desc>lat.=55.859852, lon.=26.022875, Alt.=154.623169m. Speed=20.412001m/h.</desc>
<speed>5.670000</speed>
</trkpt>
<trkpt lat="55.859802" lon="26.022890">
<ele>154.736450</ele>
<time>2010-07-17T14:58:46Z</time>
<desc>lat.=55.859802, lon.=26.022890, Alt.=154.736450m. Speed=20.375999m/h.</desc>
<speed>5.660000</speed>
</trkpt>
<trkpt lat="55.859753" lon="26.022909">
<ele>154.767700</ele>
<time>2010-07-17T14:58:47Z</time>
<desc>lat.=55.859753, lon.=26.022909, Alt.=154.767700m. Speed=18.827999m/h.</desc>
<speed>5.230000</speed>
</trkpt>
<trkpt lat="55.859707" lon="26.022919">
<ele>154.830200</ele>
<time>2010-07-17T14:58:48Z</time>
<desc>lat.=55.859707, lon.=26.022919, Alt.=154.830200m. Speed=17.892000m/h.</desc>
<speed>4.970000</speed>
</trkpt>
<trkpt lat="55.859661" lon="26.022930">
<ele>155.021606</ele>
<time>2010-07-17T14:58:49Z</time>
<desc>lat.=55.859661, lon.=26.022930, Alt.=155.021606m. Speed=19.044001m/h.</desc>
<speed>5.290000</speed>
</trkpt>
<trkpt lat="55.859612" lon="26.022940">
<ele>155.130981</ele>
<time>2010-07-17T14:58:50Z</time>
<desc>lat.=55.859612, lon.=26.022940, Alt.=155.130981m. Speed=18.468000m/h.</desc>
<speed>5.130000</speed>
</trkpt>
<trkpt lat="55.859566" lon="26.022947">
<ele>155.271606</ele>
<time>2010-07-17T14:58:51Z</time>
<desc>lat.=55.859566, lon.=26.022947, Alt.=155.271606m. Speed=18.972000m/h.</desc>
<speed>5.270000</speed>
</trkpt>
<trkpt lat="55.859516" lon="26.022957">
<ele>155.244263</ele>
<time>2010-07-17T14:58:52Z</time>
<desc>lat.=55.859516, lon.=26.022957, Alt.=155.244263m. Speed=20.052000m/h.</desc>
<speed>5.570000</speed>
</trkpt>
<trkpt lat="55.859463" lon="26.022964">
<ele>155.213013</ele>
<time>2010-07-17T14:58:53Z</time>
<desc>lat.=55.859463, lon.=26.022964, Alt.=155.213013m. Speed=19.799999m/h.</desc>
<speed>5.500000</speed>
</trkpt>
<trkpt lat="55.859413" lon="26.022976">
<ele>154.986450</ele>
<time>2010-07-17T14:58:54Z</time>
<desc>lat.=55.859413, lon.=26.022976, Alt.=154.986450m. Speed=18.468000m/h.</desc>
<speed>5.130000</speed>
</trkpt>
<trkpt lat="55.859367" lon="26.022991">
<ele>155.009888</ele>
<time>2010-07-17T14:58:55Z</time>
<desc>lat.=55.859367, lon.=26.022991, Alt.=155.009888m. Speed=19.836000m/h.</desc>
<speed>5.510000</speed>
</trkpt>
<trkpt lat="55.859318" lon="26.023005">
<ele>154.498169</ele>
<time>2010-07-17T14:58:56Z</time>
<desc>lat.=55.859318, lon.=26.023005, Alt.=154.498169m. Speed=19.872000m/h.</desc>
<speed>5.520000</speed>
</trkpt>
<trkpt lat="55.859268" lon="26.023022">
<ele>153.927856</ele>
<time>2010-07-17T14:58:57Z</time>
<desc>lat.=55.859268, lon.=26.023022, Alt.=153.927856m. Speed=19.403999m/h.</desc>
<speed>5.390000</speed>
</trkpt>
<trkpt lat="55.859219" lon="26.023037">
<ele>153.822388</ele>
<time>2010-07-17T14:58:58Z</time>
<desc>lat.=55.859219, lon.=26.023037, Alt.=153.822388m. Speed=18.468000m/h.</desc>
<speed>5.130000</speed>
</trkpt>
<trkpt lat="55.859173" lon="26.023054">
<ele>153.642700</ele>
<time>2010-07-17T14:58:59Z</time>
<desc>lat.=55.859173, lon.=26.023054, Alt.=153.642700m. Speed=18.216000m/h.</desc>
<speed>5.060000</speed>
</trkpt>
<trkpt lat="55.859131" lon="26.023064">
<ele>153.638794</ele>
<time>2010-07-17T14:59:00Z</time>
<desc>lat.=55.859131, lon.=26.023064, Alt.=153.638794m. Speed=17.280001m/h.</desc>
<speed>4.800000</speed>
</trkpt>
<trkpt lat="55.859089" lon="26.023075">
<ele>153.611450</ele>
<time>2010-07-17T14:59:01Z</time>
<desc>lat.=55.859089, lon.=26.023075, Alt.=153.611450m. Speed=16.559999m/h.</desc>
<speed>4.600000</speed>
</trkpt>
<trkpt lat="55.859047" lon="26.023081">
<ele>153.724731</ele>
<time>2010-07-17T14:59:02Z</time>
<desc>lat.=55.859047, lon.=26.023081, Alt.=153.724731m. Speed=17.280001m/h.</desc>
<speed>4.800000</speed>
</trkpt>
<trkpt lat="55.859009" lon="26.023092">
<ele>153.834106</ele>
<time>2010-07-17T14:59:03Z</time>
<desc>lat.=55.859009, lon.=26.023092, Alt.=153.834106m. Speed=14.940000m/h.</desc>
<speed>4.150000</speed>
</trkpt>
<trkpt lat="55.858971" lon="26.023102">
<ele>154.408325</ele>
<time>2010-07-17T14:59:04Z</time>
<desc>lat.=55.858971, lon.=26.023102, Alt.=154.408325m. Speed=14.076000m/h.</desc>
<speed>3.910000</speed>
</trkpt>
<trkpt lat="55.858944" lon="26.023113">
<ele>154.642700</ele>
<time>2010-07-17T14:59:05Z</time>
<desc>lat.=55.858944, lon.=26.023113, Alt.=154.642700m. Speed=11.628000m/h.</desc>
<speed>3.230000</speed>
</trkpt>
<trkpt lat="55.858913" lon="26.023123">
<ele>155.037231</ele>
<time>2010-07-17T14:59:06Z</time>
<desc>lat.=55.858913, lon.=26.023123, Alt.=155.037231m. Speed=11.160000m/h.</desc>
<speed>3.100000</speed>
</trkpt>
<trkpt lat="55.858894" lon="26.023136">
<ele>155.463013</ele>
<time>2010-07-17T14:59:07Z</time>
<desc>lat.=55.858894, lon.=26.023136, Alt.=155.463013m. Speed=9.180000m/h.</desc>
<speed>2.550000</speed>
</trkpt>
<trkpt lat="55.858875" lon="26.023136">
<ele>155.658325</ele>
<time>2010-07-17T14:59:08Z</time>
<desc>lat.=55.858875, lon.=26.023136, Alt.=155.658325m. Speed=8.280000m/h.</desc>
<speed>2.300000</speed>
</trkpt>
<trkpt lat="55.858845" lon="26.023136">
<ele>155.619263</ele>
<time>2010-07-17T14:59:09Z</time>
<desc>lat.=55.858845, lon.=26.023136, Alt.=155.619263m. Speed=9.432000m/h.</desc>
<speed>2.620000</speed>
</trkpt>
<trkpt lat="55.858814" lon="26.023130">
<ele>155.673950</ele>
<time>2010-07-17T14:59:10Z</time>
<desc>lat.=55.858814, lon.=26.023130, Alt.=155.673950m. Speed=8.964000m/h.</desc>
<speed>2.490000</speed>
</trkpt>
<trkpt lat="55.858784" lon="26.023134">
<ele>155.771606</ele>
<time>2010-07-17T14:59:11Z</time>
<desc>lat.=55.858784, lon.=26.023134, Alt.=155.771606m. Speed=10.008000m/h.</desc>
<speed>2.780000</speed>
</trkpt>
<trkpt lat="55.858761" lon="26.023138">
<ele>155.802856</ele>
<time>2010-07-17T14:59:12Z</time>
<desc>lat.=55.858761, lon.=26.023138, Alt.=155.802856m. Speed=9.288000m/h.</desc>
<speed>2.580000</speed>
</trkpt>
<trkpt lat="55.858719" lon="26.023134">
<ele>155.787231</ele>
<time>2010-07-17T14:59:13Z</time>
<desc>lat.=55.858719, lon.=26.023134, Alt.=155.787231m. Speed=10.368000m/h.</desc>
<speed>2.880000</speed>
</trkpt>
<trkpt lat="55.858692" lon="26.023138">
<ele>155.853638</ele>
<time>2010-07-17T14:59:14Z</time>
<desc>lat.=55.858692, lon.=26.023138, Alt.=155.853638m. Speed=9.540000m/h.</desc>
<speed>2.650000</speed>
</trkpt>
<trkpt lat="55.858654" lon="26.023134">
<ele>155.912231</ele>
<time>2010-07-17T14:59:15Z</time>
<desc>lat.=55.858654, lon.=26.023134, Alt.=155.912231m. Speed=10.836000m/h.</desc>
<speed>3.010000</speed>
</trkpt>
<trkpt lat="55.858624" lon="26.023138">
<ele>156.056763</ele>
<time>2010-07-17T14:59:16Z</time>
<desc>lat.=55.858624, lon.=26.023138, Alt.=156.056763m. Speed=11.232000m/h.</desc>
<speed>3.120000</speed>
</trkpt>
<trkpt lat="55.858597" lon="26.023146">
<ele>156.275513</ele>
<time>2010-07-17T14:59:17Z</time>
<desc>lat.=55.858597, lon.=26.023146, Alt.=156.275513m. Speed=10.620000m/h.</desc>
<speed>2.950000</speed>
</trkpt>
<trkpt lat="55.858574" lon="26.023157">
<ele>156.400513</ele>
<time>2010-07-17T14:59:18Z</time>
<desc>lat.=55.858574, lon.=26.023157, Alt.=156.400513m. Speed=10.584000m/h.</desc>
<speed>2.940000</speed>
</trkpt>
<trkpt lat="55.858543" lon="26.023190">
<ele>156.318481</ele>
<time>2010-07-17T14:59:19Z</time>
<desc>lat.=55.858543, lon.=26.023190, Alt.=156.318481m. Speed=9.792000m/h.</desc>
<speed>2.720000</speed>
</trkpt>
<trkpt lat="55.858505" lon="26.023201">
<ele>156.763794</ele>
<time>2010-07-17T14:59:20Z</time>
<desc>lat.=55.858505, lon.=26.023201, Alt.=156.763794m. Speed=11.880000m/h.</desc>
<speed>3.300000</speed>
</trkpt>
<trkpt lat="55.858479" lon="26.023205">
<ele>156.900513</ele>
<time>2010-07-17T14:59:21Z</time>
<desc>lat.=55.858479, lon.=26.023205, Alt.=156.900513m. Speed=9.936000m/h.</desc>
<speed>2.760000</speed>
</trkpt>
<trkpt lat="55.858452" lon="26.023203">
<ele>157.150513</ele>
<time>2010-07-17T14:59:22Z</time>
<desc>lat.=55.858452, lon.=26.023203, Alt.=157.150513m. Speed=11.484000m/h.</desc>
<speed>3.190000</speed>
</trkpt>
<trkpt lat="55.858414" lon="26.023226">
<ele>156.755981</ele>
<time>2010-07-17T14:59:23Z</time>
<desc>lat.=55.858414, lon.=26.023226, Alt.=156.755981m. Speed=13.680000m/h.</desc>
<speed>3.800000</speed>
</trkpt>
<trkpt lat="55.858387" lon="26.023239">
<ele>156.619263</ele>
<time>2010-07-17T14:59:24Z</time>
<desc>lat.=55.858387, lon.=26.023239, Alt.=156.619263m. Speed=11.520000m/h.</desc>
<speed>3.200000</speed>
</trkpt>
<trkpt lat="55.858356" lon="26.023245">
<ele>156.638794</ele>
<time>2010-07-17T14:59:25Z</time>
<desc>lat.=55.858356, lon.=26.023245, Alt.=156.638794m. Speed=13.860000m/h.</desc>
<speed>3.850000</speed>
</trkpt>
<trkpt lat="55.858318" lon="26.023252">
<ele>156.677856</ele>
<time>2010-07-17T14:59:26Z</time>
<desc>lat.=55.858318, lon.=26.023252, Alt.=156.677856m. Speed=14.544000m/h.</desc>
<speed>4.040000</speed>
</trkpt>
<trkpt lat="55.858280" lon="26.023256">
<ele>156.853638</ele>
<time>2010-07-17T14:59:27Z</time>
<desc>lat.=55.858280, lon.=26.023256, Alt.=156.853638m. Speed=15.120000m/h.</desc>
<speed>4.200000</speed>
</trkpt>
<trkpt lat="55.858242" lon="26.023256">
<ele>156.326294</ele>
<time>2010-07-17T14:59:28Z</time>
<desc>lat.=55.858242, lon.=26.023256, Alt.=156.326294m. Speed=15.984000m/h.</desc>
<speed>4.440000</speed>
</trkpt>
<trkpt lat="55.858200" lon="26.023254">
<ele>156.103638</ele>
<time>2010-07-17T14:59:29Z</time>
<desc>lat.=55.858200, lon.=26.023254, Alt.=156.103638m. Speed=15.264000m/h.</desc>
<speed>4.240000</speed>
</trkpt>
<trkpt lat="55.858158" lon="26.023252">
<ele>155.720825</ele>
<time>2010-07-17T14:59:30Z</time>
<desc>lat.=55.858158, lon.=26.023252, Alt.=155.720825m. Speed=16.920000m/h.</desc>
<speed>4.700000</speed>
</trkpt>
<trkpt lat="55.858112" lon="26.023251">
<ele>155.377075</ele>
<time>2010-07-17T14:59:31Z</time>
<desc>lat.=55.858112, lon.=26.023251, Alt.=155.377075m. Speed=17.820000m/h.</desc>
<speed>4.950000</speed>
</trkpt>
<trkpt lat="55.858059" lon="26.023249">
<ele>155.283325</ele>
<time>2010-07-17T14:59:32Z</time>
<desc>lat.=55.858059, lon.=26.023249, Alt.=155.283325m. Speed=19.584000m/h.</desc>
<speed>5.440000</speed>
</trkpt>
<trkpt lat="55.858006" lon="26.023254">
<ele>155.017700</ele>
<time>2010-07-17T14:59:33Z</time>
<desc>lat.=55.858006, lon.=26.023254, Alt.=155.017700m. Speed=20.340000m/h.</desc>
<speed>5.650000</speed>
</trkpt>
<trkpt lat="55.857948" lon="26.023273">
<ele>154.189575</ele>
<time>2010-07-17T14:59:34Z</time>
<desc>lat.=55.857948, lon.=26.023273, Alt.=154.189575m. Speed=21.636000m/h.</desc>
<speed>6.010000</speed>
</trkpt>
<trkpt lat="55.857887" lon="26.023277">
<ele>154.201294</ele>
<time>2010-07-17T14:59:35Z</time>
<desc>lat.=55.857887, lon.=26.023277, Alt.=154.201294m. Speed=23.112000m/h.</desc>
<speed>6.420000</speed>
</trkpt>
<trkpt lat="55.857826" lon="26.023285">
<ele>154.552856</ele>
<time>2010-07-17T14:59:36Z</time>
<desc>lat.=55.857826, lon.=26.023285, Alt.=154.552856m. Speed=24.372000m/h.</desc>
<speed>6.770000</speed>
</trkpt>
<trkpt lat="55.857761" lon="26.023296">
<ele>154.115356</ele>
<time>2010-07-17T14:59:37Z</time>
<desc>lat.=55.857761, lon.=26.023296, Alt.=154.115356m. Speed=25.416000m/h.</desc>
<speed>7.060000</speed>
</trkpt>
<trkpt lat="55.857697" lon="26.023302">
<ele>153.826294</ele>
<time>2010-07-17T14:59:38Z</time>
<desc>lat.=55.857697, lon.=26.023302, Alt.=153.826294m. Speed=26.712000m/h.</desc>
<speed>7.420000</speed>
</trkpt>
<trkpt lat="55.857628" lon="26.023304">
<ele>153.713013</ele>
<time>2010-07-17T14:59:39Z</time>
<desc>lat.=55.857628, lon.=26.023304, Alt.=153.713013m. Speed=27.504000m/h.</desc>
<speed>7.640000</speed>
</trkpt>
<trkpt lat="55.857559" lon="26.023312">
<ele>153.365356</ele>
<time>2010-07-17T14:59:40Z</time>
<desc>lat.=55.857559, lon.=26.023312, Alt.=153.365356m. Speed=27.468000m/h.</desc>
<speed>7.630000</speed>
</trkpt>
<trkpt lat="55.857494" lon="26.023325">
<ele>153.002075</ele>
<time>2010-07-17T14:59:41Z</time>
<desc>lat.=55.857494, lon.=26.023325, Alt.=153.002075m. Speed=26.316000m/h.</desc>
<speed>7.310000</speed>
</trkpt>
<trkpt lat="55.857426" lon="26.023331">
<ele>152.689575</ele>
<time>2010-07-17T14:59:42Z</time>
<desc>lat.=55.857426, lon.=26.023331, Alt.=152.689575m. Speed=27.108000m/h.</desc>
<speed>7.530000</speed>
</trkpt>
<trkpt lat="55.857353" lon="26.023329">
<ele>152.365356</ele>
<time>2010-07-17T14:59:43Z</time>
<desc>lat.=55.857353, lon.=26.023329, Alt.=152.365356m. Speed=29.591999m/h.</desc>
<speed>8.220000</speed>
</trkpt>
<trkpt lat="55.857277" lon="26.023312">
<ele>152.068481</ele>
<time>2010-07-17T14:59:44Z</time>
<desc>lat.=55.857277, lon.=26.023312, Alt.=152.068481m. Speed=29.591999m/h.</desc>
<speed>8.220000</speed>
</trkpt>
<trkpt lat="55.857208" lon="26.023298">
<ele>151.744263</ele>
<time>2010-07-17T14:59:45Z</time>
<desc>lat.=55.857208, lon.=26.023298, Alt.=151.744263m. Speed=29.232000m/h.</desc>
<speed>8.120000</speed>
</trkpt>
<trkpt lat="55.857140" lon="26.023287">
<ele>151.330200</ele>
<time>2010-07-17T14:59:46Z</time>
<desc>lat.=55.857140, lon.=26.023287, Alt.=151.330200m. Speed=26.351999m/h.</desc>
<speed>7.320000</speed>
</trkpt>
<trkpt lat="55.857082" lon="26.023266">
<ele>150.880981</ele>
<time>2010-07-17T14:59:47Z</time>
<desc>lat.=55.857082, lon.=26.023266, Alt.=150.880981m. Speed=24.983999m/h.</desc>
<speed>6.940000</speed>
</trkpt>
<trkpt lat="55.857025" lon="26.023241">
<ele>150.455200</ele>
<time>2010-07-17T14:59:48Z</time>
<desc>lat.=55.857025, lon.=26.023241, Alt.=150.455200m. Speed=23.903999m/h.</desc>
<speed>6.640000</speed>
</trkpt>
<trkpt lat="55.856972" lon="26.023207">
<ele>150.021606</ele>
<time>2010-07-17T14:59:49Z</time>
<desc>lat.=55.856972, lon.=26.023207, Alt.=150.021606m. Speed=23.760000m/h.</desc>
<speed>6.600000</speed>
</trkpt>
<trkpt lat="55.856915" lon="26.023157">
<ele>149.568481</ele>
<time>2010-07-17T14:59:50Z</time>
<desc>lat.=55.856915, lon.=26.023157, Alt.=149.568481m. Speed=25.632000m/h.</desc>
<speed>7.120000</speed>
</trkpt>
<trkpt lat="55.856861" lon="26.023104">
<ele>149.170044</ele>
<time>2010-07-17T14:59:51Z</time>
<desc>lat.=55.856861, lon.=26.023104, Alt.=149.170044m. Speed=26.136000m/h.</desc>
<speed>7.260000</speed>
</trkpt>
<trkpt lat="55.856819" lon="26.023045">
<ele>148.779419</ele>
<time>2010-07-17T14:59:52Z</time>
<desc>lat.=55.856819, lon.=26.023045, Alt.=148.779419m. Speed=21.563999m/h.</desc>
<speed>5.990000</speed>
</trkpt>
<trkpt lat="55.856773" lon="26.022961">
<ele>148.412231</ele>
<time>2010-07-17T14:59:53Z</time>
<desc>lat.=55.856773, lon.=26.022961, Alt.=148.412231m. Speed=25.632000m/h.</desc>
<speed>7.120000</speed>
</trkpt>
<trkpt lat="55.856728" lon="26.022881">
<ele>148.045044</ele>
<time>2010-07-17T14:59:54Z</time>
<desc>lat.=55.856728, lon.=26.022881, Alt.=148.045044m. Speed=25.884001m/h.</desc>
<speed>7.190000</speed>
</trkpt>
<trkpt lat="55.856682" lon="26.022810">
<ele>147.728638</ele>
<time>2010-07-17T14:59:55Z</time>
<desc>lat.=55.856682, lon.=26.022810, Alt.=147.728638m. Speed=23.436001m/h.</desc>
<speed>6.510000</speed>
</trkpt>
<trkpt lat="55.856636" lon="26.022736">
<ele>147.400513</ele>
<time>2010-07-17T14:59:56Z</time>
<desc>lat.=55.856636, lon.=26.022736, Alt.=147.400513m. Speed=22.716000m/h.</desc>
<speed>6.310000</speed>
</trkpt>
<trkpt lat="55.856606" lon="26.022684">
<ele>147.252075</ele>
<time>2010-07-17T14:59:57Z</time>
<desc>lat.=55.856606, lon.=26.022684, Alt.=147.252075m. Speed=15.228000m/h.</desc>
<speed>4.230000</speed>
</trkpt>
<trkpt lat="55.856586" lon="26.022644">
<ele>147.146606</ele>
<time>2010-07-17T14:59:58Z</time>
<desc>lat.=55.856586, lon.=26.022644, Alt.=147.146606m. Speed=11.088000m/h.</desc>
<speed>3.080000</speed>
</trkpt>
<trkpt lat="55.856567" lon="26.022602">
<ele>147.033325</ele>
<time>2010-07-17T14:59:59Z</time>
<desc>lat.=55.856567, lon.=26.022602, Alt.=147.033325m. Speed=9.900000m/h.</desc>
<speed>2.750000</speed>
</trkpt>
<trkpt lat="55.856556" lon="26.022554">
<ele>146.978638</ele>
<time>2010-07-17T15:00:00Z</time>
<desc>lat.=55.856556, lon.=26.022554, Alt.=146.978638m. Speed=9.252000m/h.</desc>
<speed>2.570000</speed>
</trkpt>
<trkpt lat="55.856548" lon="26.022486">
<ele>147.021606</ele>
<time>2010-07-17T15:00:01Z</time>
<desc>lat.=55.856548, lon.=26.022486, Alt.=147.021606m. Speed=12.780000m/h.</desc>
<speed>3.550000</speed>
</trkpt>
<trkpt lat="55.856529" lon="26.022413">
<ele>147.115356</ele>
<time>2010-07-17T15:00:02Z</time>
<desc>lat.=55.856529, lon.=26.022413, Alt.=147.115356m. Speed=13.500000m/h.</desc>
<speed>3.750000</speed>
</trkpt>
<trkpt lat="55.856506" lon="26.022348">
<ele>147.396606</ele>
<time>2010-07-17T15:00:03Z</time>
<desc>lat.=55.856506, lon.=26.022348, Alt.=147.396606m. Speed=12.384000m/h.</desc>
<speed>3.440000</speed>
</trkpt>
<trkpt lat="55.856472" lon="26.022289">
<ele>147.755981</ele>
<time>2010-07-17T15:00:04Z</time>
<desc>lat.=55.856472, lon.=26.022289, Alt.=147.755981m. Speed=13.104000m/h.</desc>
<speed>3.640000</speed>
</trkpt>
<trkpt lat="55.856445" lon="26.022236">
<ele>148.119263</ele>
<time>2010-07-17T15:00:05Z</time>
<desc>lat.=55.856445, lon.=26.022236, Alt.=148.119263m. Speed=10.656000m/h.</desc>
<speed>2.960000</speed>
</trkpt>
<trkpt lat="55.856419" lon="26.022198">
<ele>148.338013</ele>
<time>2010-07-17T15:00:06Z</time>
<desc>lat.=55.856419, lon.=26.022198, Alt.=148.338013m. Speed=6.876000m/h.</desc>
<speed>1.910000</speed>
</trkpt>
<trkpt lat="55.856392" lon="26.022169">
<ele>148.572388</ele>
<time>2010-07-17T15:00:07Z</time>
<desc>lat.=55.856392, lon.=26.022169, Alt.=148.572388m. Speed=5.256000m/h.</desc>
<speed>1.460000</speed>
</trkpt>
<trkpt lat="55.856369" lon="26.022139">
<ele>148.740356</ele>
<time>2010-07-17T15:00:08Z</time>
<desc>lat.=55.856369, lon.=26.022139, Alt.=148.740356m. Speed=5.724000m/h.</desc>
<speed>1.590000</speed>
</trkpt>
<trkpt lat="55.856339" lon="26.022116">
<ele>148.912231</ele>
<time>2010-07-17T15:00:09Z</time>
<desc>lat.=55.856339, lon.=26.022116, Alt.=148.912231m. Speed=7.812000m/h.</desc>
<speed>2.170000</speed>
</trkpt>
<trkpt lat="55.856316" lon="26.022093">
<ele>149.056763</ele>
<time>2010-07-17T15:00:10Z</time>
<desc>lat.=55.856316, lon.=26.022093, Alt.=149.056763m. Speed=7.272000m/h.</desc>
<speed>2.020000</speed>
</trkpt>
<trkpt lat="55.856293" lon="26.022081">
<ele>149.341919</ele>
<time>2010-07-17T15:00:11Z</time>
<desc>lat.=55.856293, lon.=26.022081, Alt.=149.341919m. Speed=6.552000m/h.</desc>
<speed>1.820000</speed>
</trkpt>
<trkpt lat="55.856266" lon="26.022068">
<ele>149.724731</ele>
<time>2010-07-17T15:00:12Z</time>
<desc>lat.=55.856266, lon.=26.022068, Alt.=149.724731m. Speed=5.760000m/h.</desc>
<speed>1.600000</speed>
</trkpt>
<trkpt lat="55.856247" lon="26.022047">
<ele>150.056763</ele>
<time>2010-07-17T15:00:13Z</time>
<desc>lat.=55.856247, lon.=26.022047, Alt.=150.056763m. Speed=2.916000m/h.</desc>
<speed>0.810000</speed>
</trkpt>
<trkpt lat="55.856228" lon="26.022043">
<ele>149.853638</ele>
<time>2010-07-17T15:00:14Z</time>
<desc>lat.=55.856228, lon.=26.022043, Alt.=149.853638m. Speed=4.860000m/h.</desc>
<speed>1.350000</speed>
</trkpt>
<trkpt lat="55.856197" lon="26.022018">
<ele>150.326294</ele>
<time>2010-07-17T15:00:15Z</time>
<desc>lat.=55.856197, lon.=26.022018, Alt.=150.326294m. Speed=5.724000m/h.</desc>
<speed>1.590000</speed>
</trkpt>
<trkpt lat="55.856148" lon="26.022026">
<ele>152.228638</ele>
<time>2010-07-17T15:00:16Z</time>
<desc>lat.=55.856148, lon.=26.022026, Alt.=152.228638m. Speed=6.228000m/h.</desc>
<speed>1.730000</speed>
</trkpt>
<trkpt lat="55.856117" lon="26.022015">
<ele>152.541138</ele>
<time>2010-07-17T15:00:17Z</time>
<desc>lat.=55.856117, lon.=26.022015, Alt.=152.541138m. Speed=6.480000m/h.</desc>
<speed>1.800000</speed>
</trkpt>
<trkpt lat="55.856071" lon="26.021994">
<ele>153.134888</ele>
<time>2010-07-17T15:00:18Z</time>
<desc>lat.=55.856071, lon.=26.021994, Alt.=153.134888m. Speed=5.076000m/h.</desc>
<speed>1.410000</speed>
</trkpt>
<trkpt lat="55.856030" lon="26.021969">
<ele>153.767700</ele>
<time>2010-07-17T15:00:19Z</time>
<desc>lat.=55.856030, lon.=26.021969, Alt.=153.767700m. Speed=4.284000m/h.</desc>
<speed>1.190000</speed>
</trkpt>
<trkpt lat="55.855972" lon="26.021944">
<ele>154.826294</ele>
<time>2010-07-17T15:00:20Z</time>
<desc>lat.=55.855972, lon.=26.021944, Alt.=154.826294m. Speed=5.220000m/h.</desc>
<speed>1.450000</speed>
</trkpt>
<trkpt lat="55.855938" lon="26.021904">
<ele>155.216919</ele>
<time>2010-07-17T15:00:21Z</time>
<desc>lat.=55.855938, lon.=26.021904, Alt.=155.216919m. Speed=8.208000m/h.</desc>
<speed>2.280000</speed>
</trkpt>
<trkpt lat="55.855904" lon="26.021860">
<ele>155.834106</ele>
<time>2010-07-17T15:00:22Z</time>
<desc>lat.=55.855904, lon.=26.021860, Alt.=155.834106m. Speed=5.076000m/h.</desc>
<speed>1.410000</speed>
</trkpt>
<trkpt lat="55.855862" lon="26.021814">
<ele>156.091919</ele>
<time>2010-07-17T15:00:23Z</time>
<desc>lat.=55.855862, lon.=26.021814, Alt.=156.091919m. Speed=5.616000m/h.</desc>
<speed>1.560000</speed>
</trkpt>
<trkpt lat="55.855835" lon="26.021793">
<ele>156.416138</ele>
<time>2010-07-17T15:00:24Z</time>
<desc>lat.=55.855835, lon.=26.021793, Alt.=156.416138m. Speed=4.644000m/h.</desc>
<speed>1.290000</speed>
</trkpt>
<trkpt lat="55.855793" lon="26.021759">
<ele>156.834106</ele>
<time>2010-07-17T15:00:25Z</time>
<desc>lat.=55.855793, lon.=26.021759, Alt.=156.834106m. Speed=3.852000m/h.</desc>
<speed>1.070000</speed>
</trkpt>
<trkpt lat="55.855766" lon="26.021713">
<ele>157.498169</ele>
<time>2010-07-17T15:00:26Z</time>
<desc>lat.=55.855766, lon.=26.021713, Alt.=157.498169m. Speed=2.916000m/h.</desc>
<speed>0.810000</speed>
</trkpt>
<trkpt lat="55.855755" lon="26.021690">
<ele>157.697388</ele>
<time>2010-07-17T15:00:27Z</time>
<desc>lat.=55.855755, lon.=26.021690, Alt.=157.697388m. Speed=3.780000m/h.</desc>
<speed>1.050000</speed>
</trkpt>
<trkpt lat="55.855728" lon="26.021645">
<ele>158.216919</ele>
<time>2010-07-17T15:00:28Z</time>
<desc>lat.=55.855728, lon.=26.021645, Alt.=158.216919m. Speed=3.780000m/h.</desc>
<speed>1.050000</speed>
</trkpt>
<trkpt lat="55.855717" lon="26.021620">
<ele>159.013794</ele>
<time>2010-07-17T15:00:29Z</time>
<desc>lat.=55.855717, lon.=26.021620, Alt.=159.013794m. Speed=1.980000m/h.</desc>
<speed>0.550000</speed>
</trkpt>
<trkpt lat="55.855701" lon="26.021606">
<ele>159.002075</ele>
<time>2010-07-17T15:00:30Z</time>
<desc>lat.=55.855701, lon.=26.021606, Alt.=159.002075m. Speed=5.184000m/h.</desc>
<speed>1.440000</speed>
</trkpt>
<trkpt lat="55.855671" lon="26.021521">
<ele>159.056763</ele>
<time>2010-07-17T15:00:31Z</time>
<desc>lat.=55.855671, lon.=26.021521, Alt.=159.056763m. Speed=6.948000m/h.</desc>
<speed>1.930000</speed>
</trkpt>
<trkpt lat="55.855621" lon="26.021418">
<ele>159.904419</ele>
<time>2010-07-17T15:00:32Z</time>
<desc>lat.=55.855621, lon.=26.021418, Alt.=159.904419m. Speed=7.560000m/h.</desc>
<speed>2.100000</speed>
</trkpt>
<trkpt lat="55.855587" lon="26.021364">
<ele>160.490356</ele>
<time>2010-07-17T15:00:33Z</time>
<desc>lat.=55.855587, lon.=26.021364, Alt.=160.490356m. Speed=6.012000m/h.</desc>
<speed>1.670000</speed>
</trkpt>
<trkpt lat="55.855556" lon="26.021324">
<ele>160.959106</ele>
<time>2010-07-17T15:00:34Z</time>
<desc>lat.=55.855556, lon.=26.021324, Alt.=160.959106m. Speed=6.984000m/h.</desc>
<speed>1.940000</speed>
</trkpt>
<trkpt lat="55.855526" lon="26.021267">
<ele>161.384888</ele>
<time>2010-07-17T15:00:35Z</time>
<desc>lat.=55.855526, lon.=26.021267, Alt.=161.384888m. Speed=7.416000m/h.</desc>
<speed>2.060000</speed>
</trkpt>
<trkpt lat="55.855499" lon="26.021229">
<ele>161.935669</ele>
<time>2010-07-17T15:00:36Z</time>
<desc>lat.=55.855499, lon.=26.021229, Alt.=161.935669m. Speed=6.372000m/h.</desc>
<speed>1.770000</speed>
</trkpt>
<trkpt lat="55.855480" lon="26.021189">
<ele>162.224731</ele>
<time>2010-07-17T15:00:37Z</time>
<desc>lat.=55.855480, lon.=26.021189, Alt.=162.224731m. Speed=5.580000m/h.</desc>
<speed>1.550000</speed>
</trkpt>
<trkpt lat="55.855450" lon="26.021168">
<ele>162.627075</ele>
<time>2010-07-17T15:00:38Z</time>
<desc>lat.=55.855450, lon.=26.021168, Alt.=162.627075m. Speed=7.128000m/h.</desc>
<speed>1.980000</speed>
</trkpt>
<trkpt lat="55.855408" lon="26.021128">
<ele>162.982544</ele>
<time>2010-07-17T15:00:39Z</time>
<desc>lat.=55.855408, lon.=26.021128, Alt.=162.982544m. Speed=10.980000m/h.</desc>
<speed>3.050000</speed>
</trkpt>
<trkpt lat="55.855366" lon="26.021088">
<ele>163.623169</ele>
<time>2010-07-17T15:00:40Z</time>
<desc>lat.=55.855366, lon.=26.021088, Alt.=163.623169m. Speed=12.204000m/h.</desc>
<speed>3.390000</speed>
</trkpt>
<trkpt lat="55.855328" lon="26.021051">
<ele>163.912231</ele>
<time>2010-07-17T15:00:41Z</time>
<desc>lat.=55.855328, lon.=26.021051, Alt.=163.912231m. Speed=12.132000m/h.</desc>
<speed>3.370000</speed>
</trkpt>
<trkpt lat="55.855289" lon="26.021019">
<ele>164.306763</ele>
<time>2010-07-17T15:00:42Z</time>
<desc>lat.=55.855289, lon.=26.021019, Alt.=164.306763m. Speed=12.420000m/h.</desc>
<speed>3.450000</speed>
</trkpt>
<trkpt lat="55.855247" lon="26.020988">
<ele>164.920044</ele>
<time>2010-07-17T15:00:43Z</time>
<desc>lat.=55.855247, lon.=26.020988, Alt.=164.920044m. Speed=13.536000m/h.</desc>
<speed>3.760000</speed>
</trkpt>
<trkpt lat="55.855209" lon="26.020964">
<ele>164.849731</ele>
<time>2010-07-17T15:00:44Z</time>
<desc>lat.=55.855209, lon.=26.020964, Alt.=164.849731m. Speed=14.040000m/h.</desc>
<speed>3.900000</speed>
</trkpt>
<trkpt lat="55.855160" lon="26.020910">
<ele>165.455200</ele>
<time>2010-07-17T15:00:45Z</time>
<desc>lat.=55.855160, lon.=26.020910, Alt.=165.455200m. Speed=14.076000m/h.</desc>
<speed>3.910000</speed>
</trkpt>
<trkpt lat="55.855114" lon="26.020885">
<ele>165.447388</ele>
<time>2010-07-17T15:00:46Z</time>
<desc>lat.=55.855114, lon.=26.020885, Alt.=165.447388m. Speed=14.652000m/h.</desc>
<speed>4.070000</speed>
</trkpt>
<trkpt lat="55.855068" lon="26.020853">
<ele>165.771606</ele>
<time>2010-07-17T15:00:47Z</time>
<desc>lat.=55.855068, lon.=26.020853, Alt.=165.771606m. Speed=14.868000m/h.</desc>
<speed>4.130000</speed>
</trkpt>
<trkpt lat="55.855019" lon="26.020824">
<ele>166.088013</ele>
<time>2010-07-17T15:00:48Z</time>
<desc>lat.=55.855019, lon.=26.020824, Alt.=166.088013m. Speed=15.372000m/h.</desc>
<speed>4.270000</speed>
</trkpt>
<trkpt lat="55.854965" lon="26.020790">
<ele>166.677856</ele>
<time>2010-07-17T15:00:49Z</time>
<desc>lat.=55.854965, lon.=26.020790, Alt.=166.677856m. Speed=16.416000m/h.</desc>
<speed>4.560000</speed>
</trkpt>
<trkpt lat="55.854912" lon="26.020760">
<ele>166.986450</ele>
<time>2010-07-17T15:00:50Z</time>
<desc>lat.=55.854912, lon.=26.020760, Alt.=166.986450m. Speed=17.136000m/h.</desc>
<speed>4.760000</speed>
</trkpt>
<trkpt lat="55.854862" lon="26.020727">
<ele>167.552856</ele>
<time>2010-07-17T15:00:51Z</time>
<desc>lat.=55.854862, lon.=26.020727, Alt.=167.552856m. Speed=18.143999m/h.</desc>
<speed>5.040000</speed>
</trkpt>
<trkpt lat="55.854805" lon="26.020695">
<ele>167.880981</ele>
<time>2010-07-17T15:00:52Z</time>
<desc>lat.=55.854805, lon.=26.020695, Alt.=167.880981m. Speed=18.180000m/h.</desc>
<speed>5.050000</speed>
</trkpt>
<trkpt lat="55.854752" lon="26.020664">
<ele>168.306763</ele>
<time>2010-07-17T15:00:53Z</time>
<desc>lat.=55.854752, lon.=26.020664, Alt.=168.306763m. Speed=18.323999m/h.</desc>
<speed>5.090000</speed>
</trkpt>
<trkpt lat="55.854691" lon="26.020638">
<ele>168.447388</ele>
<time>2010-07-17T15:00:54Z</time>
<desc>lat.=55.854691, lon.=26.020638, Alt.=168.447388m. Speed=18.864000m/h.</desc>
<speed>5.240000</speed>
</trkpt>
<trkpt lat="55.854637" lon="26.020597">
<ele>169.107544</ele>
<time>2010-07-17T15:00:55Z</time>
<desc>lat.=55.854637, lon.=26.020597, Alt.=169.107544m. Speed=17.676001m/h.</desc>
<speed>4.910000</speed>
</trkpt>
<trkpt lat="55.854591" lon="26.020565">
<ele>169.435669</ele>
<time>2010-07-17T15:00:56Z</time>
<desc>lat.=55.854591, lon.=26.020565, Alt.=169.435669m. Speed=17.280001m/h.</desc>
<speed>4.800000</speed>
</trkpt>
<trkpt lat="55.854527" lon="26.020517">
<ele>169.998169</ele>
<time>2010-07-17T15:00:57Z</time>
<desc>lat.=55.854527, lon.=26.020517, Alt.=169.998169m. Speed=18.864000m/h.</desc>
<speed>5.240000</speed>
</trkpt>
<trkpt lat="55.854469" lon="26.020475">
<ele>170.283325</ele>
<time>2010-07-17T15:00:58Z</time>
<desc>lat.=55.854469, lon.=26.020475, Alt.=170.283325m. Speed=18.072001m/h.</desc>
<speed>5.020000</speed>
</trkpt>
<trkpt lat="55.854427" lon="26.020435">
<ele>170.795044</ele>
<time>2010-07-17T15:00:59Z</time>
<desc>lat.=55.854427, lon.=26.020435, Alt.=170.795044m. Speed=17.351999m/h.</desc>
<speed>4.820000</speed>
</trkpt>
<trkpt lat="55.854385" lon="26.020399">
<ele>171.162231</ele>
<time>2010-07-17T15:01:00Z</time>
<desc>lat.=55.854385, lon.=26.020399, Alt.=171.162231m. Speed=17.639999m/h.</desc>
<speed>4.900000</speed>
</trkpt>
<trkpt lat="55.854347" lon="26.020350">
<ele>171.377075</ele>
<time>2010-07-17T15:01:01Z</time>
<desc>lat.=55.854347, lon.=26.020350, Alt.=171.377075m. Speed=18.035999m/h.</desc>
<speed>5.010000</speed>
</trkpt>
<trkpt lat="55.854301" lon="26.020304">
<ele>171.646606</ele>
<time>2010-07-17T15:01:02Z</time>
<desc>lat.=55.854301, lon.=26.020304, Alt.=171.646606m. Speed=17.892000m/h.</desc>
<speed>4.970000</speed>
</trkpt>
<trkpt lat="55.854259" lon="26.020264">
<ele>171.795044</ele>
<time>2010-07-17T15:01:03Z</time>
<desc>lat.=55.854259, lon.=26.020264, Alt.=171.795044m. Speed=18.143999m/h.</desc>
<speed>5.040000</speed>
</trkpt>
<trkpt lat="55.854214" lon="26.020226">
<ele>171.615356</ele>
<time>2010-07-17T15:01:04Z</time>
<desc>lat.=55.854214, lon.=26.020226, Alt.=171.615356m. Speed=17.820000m/h.</desc>
<speed>4.950000</speed>
</trkpt>
<trkpt lat="55.854156" lon="26.020185">
<ele>171.498169</ele>
<time>2010-07-17T15:01:05Z</time>
<desc>lat.=55.854156, lon.=26.020185, Alt.=171.498169m. Speed=17.639999m/h.</desc>
<speed>4.900000</speed>
</trkpt>
<trkpt lat="55.854103" lon="26.020161">
<ele>171.267700</ele>
<time>2010-07-17T15:01:06Z</time>
<desc>lat.=55.854103, lon.=26.020161, Alt.=171.267700m. Speed=17.316000m/h.</desc>
<speed>4.810000</speed>
</trkpt>
<trkpt lat="55.854046" lon="26.020132">
<ele>171.162231</ele>
<time>2010-07-17T15:01:07Z</time>
<desc>lat.=55.854046, lon.=26.020132, Alt.=171.162231m. Speed=18.035999m/h.</desc>
<speed>5.010000</speed>
</trkpt>
<trkpt lat="55.853985" lon="26.020102">
<ele>171.154419</ele>
<time>2010-07-17T15:01:08Z</time>
<desc>lat.=55.853985, lon.=26.020102, Alt.=171.154419m. Speed=16.020000m/h.</desc>
<speed>4.450000</speed>
</trkpt>
<trkpt lat="55.853931" lon="26.020065">
<ele>171.349731</ele>
<time>2010-07-17T15:01:09Z</time>
<desc>lat.=55.853931, lon.=26.020065, Alt.=171.349731m. Speed=17.496000m/h.</desc>
<speed>4.860000</speed>
</trkpt>
<trkpt lat="55.853882" lon="26.020037">
<ele>171.435669</ele>
<time>2010-07-17T15:01:10Z</time>
<desc>lat.=55.853882, lon.=26.020037, Alt.=171.435669m. Speed=18.648001m/h.</desc>
<speed>5.180000</speed>
</trkpt>
<trkpt lat="55.853836" lon="26.020006">
<ele>171.537231</ele>
<time>2010-07-17T15:01:11Z</time>
<desc>lat.=55.853836, lon.=26.020006, Alt.=171.537231m. Speed=17.063999m/h.</desc>
<speed>4.740000</speed>
</trkpt>
<trkpt lat="55.853790" lon="26.019962">
<ele>171.431763</ele>
<time>2010-07-17T15:01:12Z</time>
<desc>lat.=55.853790, lon.=26.019962, Alt.=171.431763m. Speed=18.431999m/h.</desc>
<speed>5.120000</speed>
</trkpt>
<trkpt lat="55.853745" lon="26.019922">
<ele>169.677856</ele>
<time>2010-07-17T15:01:13Z</time>
<desc>lat.=55.853745, lon.=26.019922, Alt.=169.677856m. Speed=16.704000m/h.</desc>
<speed>4.640000</speed>
</trkpt>
<trkpt lat="55.853642" lon="26.019867">
<ele>171.408325</ele>
<time>2010-07-17T15:01:14Z</time>
<desc>lat.=55.853642, lon.=26.019867, Alt.=171.408325m. Speed=16.920000m/h.</desc>
<speed>4.700000</speed>
</trkpt>
<trkpt lat="55.853603" lon="26.019829">
<ele>171.619263</ele>
<time>2010-07-17T15:01:15Z</time>
<desc>lat.=55.853603, lon.=26.019829, Alt.=171.619263m. Speed=17.459999m/h.</desc>
<speed>4.850000</speed>
</trkpt>
<trkpt lat="55.853569" lon="26.019789">
<ele>171.834106</ele>
<time>2010-07-17T15:01:16Z</time>
<desc>lat.=55.853569, lon.=26.019789, Alt.=171.834106m. Speed=17.136000m/h.</desc>
<speed>4.760000</speed>
</trkpt>
<trkpt lat="55.853531" lon="26.019754">
<ele>172.076294</ele>
<time>2010-07-17T15:01:17Z</time>
<desc>lat.=55.853531, lon.=26.019754, Alt.=172.076294m. Speed=16.740000m/h.</desc>
<speed>4.650000</speed>
</trkpt>
<trkpt lat="55.853474" lon="26.019712">
<ele>172.853638</ele>
<time>2010-07-17T15:01:18Z</time>
<desc>lat.=55.853474, lon.=26.019712, Alt.=172.853638m. Speed=16.667999m/h.</desc>
<speed>4.630000</speed>
</trkpt>
<trkpt lat="55.853424" lon="26.019682">
<ele>173.537231</ele>
<time>2010-07-17T15:01:19Z</time>
<desc>lat.=55.853424, lon.=26.019682, Alt.=173.537231m. Speed=14.724000m/h.</desc>
<speed>4.090000</speed>
</trkpt>
<trkpt lat="55.853371" lon="26.019659">
<ele>174.123169</ele>
<time>2010-07-17T15:01:20Z</time>
<desc>lat.=55.853371, lon.=26.019659, Alt.=174.123169m. Speed=14.184000m/h.</desc>
<speed>3.940000</speed>
</trkpt>
<trkpt lat="55.853325" lon="26.019648">
<ele>174.310669</ele>
<time>2010-07-17T15:01:21Z</time>
<desc>lat.=55.853325, lon.=26.019648, Alt.=174.310669m. Speed=12.492000m/h.</desc>
<speed>3.470000</speed>
</trkpt>
<trkpt lat="55.853287" lon="26.019634">
<ele>174.306763</ele>
<time>2010-07-17T15:01:22Z</time>
<desc>lat.=55.853287, lon.=26.019634, Alt.=174.306763m. Speed=11.736000m/h.</desc>
<speed>3.260000</speed>
</trkpt>
<trkpt lat="55.853237" lon="26.019623">
<ele>174.189575</ele>
<time>2010-07-17T15:01:23Z</time>
<desc>lat.=55.853237, lon.=26.019623, Alt.=174.189575m. Speed=13.356000m/h.</desc>
<speed>3.710000</speed>
</trkpt>
<trkpt lat="55.853191" lon="26.019615">
<ele>174.115356</ele>
<time>2010-07-17T15:01:24Z</time>
<desc>lat.=55.853191, lon.=26.019615, Alt.=174.115356m. Speed=15.300000m/h.</desc>
<speed>4.250000</speed>
</trkpt>
<trkpt lat="55.853146" lon="26.019629">
<ele>173.365356</ele>
<time>2010-07-17T15:01:25Z</time>
<desc>lat.=55.853146, lon.=26.019629, Alt.=173.365356m. Speed=16.740000m/h.</desc>
<speed>4.650000</speed>
</trkpt>
<trkpt lat="55.853092" lon="26.019653">
<ele>173.697388</ele>
<time>2010-07-17T15:01:26Z</time>
<desc>lat.=55.853092, lon.=26.019653, Alt.=173.697388m. Speed=17.280001m/h.</desc>
<speed>4.800000</speed>
</trkpt>
<trkpt lat="55.853050" lon="26.019695">
<ele>173.677856</ele>
<time>2010-07-17T15:01:27Z</time>
<desc>lat.=55.853050, lon.=26.019695, Alt.=173.677856m. Speed=17.136000m/h.</desc>
<speed>4.760000</speed>
</trkpt>
<trkpt lat="55.853012" lon="26.019743">
<ele>173.377075</ele>
<time>2010-07-17T15:01:28Z</time>
<desc>lat.=55.853012, lon.=26.019743, Alt.=173.377075m. Speed=13.752000m/h.</desc>
<speed>3.820000</speed>
</trkpt>
<trkpt lat="55.852985" lon="26.019783">
<ele>172.838013</ele>
<time>2010-07-17T15:01:29Z</time>
<desc>lat.=55.852985, lon.=26.019783, Alt.=172.838013m. Speed=12.204000m/h.</desc>
<speed>3.390000</speed>
</trkpt>
<trkpt lat="55.852959" lon="26.019831">
<ele>172.150513</ele>
<time>2010-07-17T15:01:30Z</time>
<desc>lat.=55.852959, lon.=26.019831, Alt.=172.150513m. Speed=12.816000m/h.</desc>
<speed>3.560000</speed>
</trkpt>
<trkpt lat="55.852936" lon="26.019892">
<ele>171.193481</ele>
<time>2010-07-17T15:01:31Z</time>
<desc>lat.=55.852936, lon.=26.019892, Alt.=171.193481m. Speed=12.456000m/h.</desc>
<speed>3.460000</speed>
</trkpt>
<trkpt lat="55.852909" lon="26.019966">
<ele>169.654419</ele>
<time>2010-07-17T15:01:32Z</time>
<desc>lat.=55.852909, lon.=26.019966, Alt.=169.654419m. Speed=13.500000m/h.</desc>
<speed>3.750000</speed>
</trkpt>
<trkpt lat="55.852890" lon="26.020037">
<ele>169.755981</ele>
<time>2010-07-17T15:01:33Z</time>
<desc>lat.=55.852890, lon.=26.020037, Alt.=169.755981m. Speed=13.716000m/h.</desc>
<speed>3.810000</speed>
</trkpt>
<trkpt lat="55.852867" lon="26.020119">
<ele>168.420044</ele>
<time>2010-07-17T15:01:34Z</time>
<desc>lat.=55.852867, lon.=26.020119, Alt.=168.420044m. Speed=16.164000m/h.</desc>
<speed>4.490000</speed>
</trkpt>
<trkpt lat="55.852840" lon="26.020199">
<ele>167.283325</ele>
<time>2010-07-17T15:01:35Z</time>
<desc>lat.=55.852840, lon.=26.020199, Alt.=167.283325m. Speed=16.056000m/h.</desc>
<speed>4.460000</speed>
</trkpt>
<trkpt lat="55.852730" lon="26.020332">
<ele>158.666138</ele>
<time>2010-07-17T15:01:36Z</time>
<desc>lat.=55.852730, lon.=26.020332, Alt.=158.666138m. Speed=16.128000m/h.</desc>
<speed>4.480000</speed>
</trkpt>
<trkpt lat="55.852692" lon="26.020433">
<ele>156.502075</ele>
<time>2010-07-17T15:01:37Z</time>
<desc>lat.=55.852692, lon.=26.020433, Alt.=156.502075m. Speed=20.052000m/h.</desc>
<speed>5.570000</speed>
</trkpt>
<trkpt lat="55.852669" lon="26.020523">
<ele>155.552856</ele>
<time>2010-07-17T15:01:38Z</time>
<desc>lat.=55.852669, lon.=26.020523, Alt.=155.552856m. Speed=17.892000m/h.</desc>
<speed>4.970000</speed>
</trkpt>
<trkpt lat="55.852654" lon="26.020607">
<ele>154.990356</ele>
<time>2010-07-17T15:01:39Z</time>
<desc>lat.=55.852654, lon.=26.020607, Alt.=154.990356m. Speed=18.431999m/h.</desc>
<speed>5.120000</speed>
</trkpt>
<trkpt lat="55.852638" lon="26.020693">
<ele>154.330200</ele>
<time>2010-07-17T15:01:40Z</time>
<desc>lat.=55.852638, lon.=26.020693, Alt.=154.330200m. Speed=18.756001m/h.</desc>
<speed>5.210000</speed>
</trkpt>
<trkpt lat="55.852623" lon="26.020775">
<ele>153.947388</ele>
<time>2010-07-17T15:01:41Z</time>
<desc>lat.=55.852623, lon.=26.020775, Alt.=153.947388m. Speed=18.719999m/h.</desc>
<speed>5.200000</speed>
</trkpt>
<trkpt lat="55.852608" lon="26.020857">
<ele>153.525513</ele>
<time>2010-07-17T15:01:42Z</time>
<desc>lat.=55.852608, lon.=26.020857, Alt.=153.525513m. Speed=19.044001m/h.</desc>
<speed>5.290000</speed>
</trkpt>
<trkpt lat="55.852592" lon="26.020943">
<ele>153.185669</ele>
<time>2010-07-17T15:01:43Z</time>
<desc>lat.=55.852592, lon.=26.020943, Alt.=153.185669m. Speed=18.468000m/h.</desc>
<speed>5.130000</speed>
</trkpt>
<trkpt lat="55.852581" lon="26.021027">
<ele>153.232544</ele>
<time>2010-07-17T15:01:44Z</time>
<desc>lat.=55.852581, lon.=26.021027, Alt.=153.232544m. Speed=18.684000m/h.</desc>
<speed>5.190000</speed>
</trkpt>
<trkpt lat="55.852566" lon="26.021105">
<ele>153.283325</ele>
<time>2010-07-17T15:01:45Z</time>
<desc>lat.=55.852566, lon.=26.021105, Alt.=153.283325m. Speed=19.656000m/h.</desc>
<speed>5.460000</speed>
</trkpt>
<trkpt lat="55.852551" lon="26.021185">
<ele>152.998169</ele>
<time>2010-07-17T15:01:46Z</time>
<desc>lat.=55.852551, lon.=26.021185, Alt.=152.998169m. Speed=17.100000m/h.</desc>
<speed>4.750000</speed>
</trkpt>
<trkpt lat="55.852528" lon="26.021255">
<ele>151.802856</ele>
<time>2010-07-17T15:01:47Z</time>
<desc>lat.=55.852528, lon.=26.021255, Alt.=151.802856m. Speed=17.063999m/h.</desc>
<speed>4.740000</speed>
</trkpt>
<trkpt lat="55.852516" lon="26.021332">
<ele>151.572388</ele>
<time>2010-07-17T15:01:48Z</time>
<desc>lat.=55.852516, lon.=26.021332, Alt.=151.572388m. Speed=18.288000m/h.</desc>
<speed>5.080000</speed>
</trkpt>
<trkpt lat="55.852509" lon="26.021404">
<ele>151.619263</ele>
<time>2010-07-17T15:01:49Z</time>
<desc>lat.=55.852509, lon.=26.021404, Alt.=151.619263m. Speed=16.091999m/h.</desc>
<speed>4.470000</speed>
</trkpt>
<trkpt lat="55.852501" lon="26.021471">
<ele>151.744263</ele>
<time>2010-07-17T15:01:50Z</time>
<desc>lat.=55.852501, lon.=26.021471, Alt.=151.744263m. Speed=15.444000m/h.</desc>
<speed>4.290000</speed>
</trkpt>
<trkpt lat="55.852493" lon="26.021538">
<ele>152.189575</ele>
<time>2010-07-17T15:01:51Z</time>
<desc>lat.=55.852493, lon.=26.021538, Alt.=152.189575m. Speed=15.984000m/h.</desc>
<speed>4.440000</speed>
</trkpt>
<trkpt lat="55.852478" lon="26.021608">
<ele>152.634888</ele>
<time>2010-07-17T15:01:52Z</time>
<desc>lat.=55.852478, lon.=26.021608, Alt.=152.634888m. Speed=16.379999m/h.</desc>
<speed>4.550000</speed>
</trkpt>
<trkpt lat="55.852455" lon="26.021666">
<ele>153.443481</ele>
<time>2010-07-17T15:01:53Z</time>
<desc>lat.=55.852455, lon.=26.021666, Alt.=153.443481m. Speed=13.140000m/h.</desc>
<speed>3.650000</speed>
</trkpt>
<trkpt lat="55.852448" lon="26.021729">
<ele>153.627075</ele>
<time>2010-07-17T15:01:54Z</time>
<desc>lat.=55.852448, lon.=26.021729, Alt.=153.627075m. Speed=15.876000m/h.</desc>
<speed>4.410000</speed>
</trkpt>
<trkpt lat="55.852436" lon="26.021801">
<ele>153.943481</ele>
<time>2010-07-17T15:01:55Z</time>
<desc>lat.=55.852436, lon.=26.021801, Alt.=153.943481m. Speed=14.976000m/h.</desc>
<speed>4.160000</speed>
</trkpt>
<trkpt lat="55.852421" lon="26.021860">
<ele>154.295044</ele>
<time>2010-07-17T15:01:56Z</time>
<desc>lat.=55.852421, lon.=26.021860, Alt.=154.295044m. Speed=13.824000m/h.</desc>
<speed>3.840000</speed>
</trkpt>
<trkpt lat="55.852398" lon="26.021925">
<ele>154.345825</ele>
<time>2010-07-17T15:01:57Z</time>
<desc>lat.=55.852398, lon.=26.021925, Alt.=154.345825m. Speed=14.112000m/h.</desc>
<speed>3.920000</speed>
</trkpt>
<trkpt lat="55.852375" lon="26.021978">
<ele>154.822388</ele>
<time>2010-07-17T15:01:58Z</time>
<desc>lat.=55.852375, lon.=26.021978, Alt.=154.822388m. Speed=13.464000m/h.</desc>
<speed>3.740000</speed>
</trkpt>
<trkpt lat="55.852360" lon="26.022018">
<ele>155.037231</ele>
<time>2010-07-17T15:01:59Z</time>
<desc>lat.=55.852360, lon.=26.022018, Alt.=155.037231m. Speed=8.604000m/h.</desc>
<speed>2.390000</speed>
</trkpt>
<trkpt lat="55.852348" lon="26.022051">
<ele>155.478638</ele>
<time>2010-07-17T15:02:00Z</time>
<desc>lat.=55.852348, lon.=26.022051, Alt.=155.478638m. Speed=10.152000m/h.</desc>
<speed>2.820000</speed>
</trkpt>
<trkpt lat="55.852341" lon="26.022123">
<ele>155.716919</ele>
<time>2010-07-17T15:02:01Z</time>
<desc>lat.=55.852341, lon.=26.022123, Alt.=155.716919m. Speed=11.520000m/h.</desc>
<speed>3.200000</speed>
</trkpt>
<trkpt lat="55.852314" lon="26.022205">
<ele>155.732544</ele>
<time>2010-07-17T15:02:02Z</time>
<desc>lat.=55.852314, lon.=26.022205, Alt.=155.732544m. Speed=10.188000m/h.</desc>
<speed>2.830000</speed>
</trkpt>
<trkpt lat="55.852303" lon="26.022249">
<ele>155.755981</ele>
<time>2010-07-17T15:02:03Z</time>
<desc>lat.=55.852303, lon.=26.022249, Alt.=155.755981m. Speed=6.552000m/h.</desc>
<speed>1.820000</speed>
</trkpt>
<trkpt lat="55.852310" lon="26.022352">
<ele>156.568481</ele>
<time>2010-07-17T15:02:04Z</time>
<desc>lat.=55.852310, lon.=26.022352, Alt.=156.568481m. Speed=9.072000m/h.</desc>
<speed>2.520000</speed>
</trkpt>
<trkpt lat="55.852310" lon="26.022411">
<ele>157.880981</ele>
<time>2010-07-17T15:02:05Z</time>
<desc>lat.=55.852310, lon.=26.022411, Alt.=157.880981m. Speed=9.576000m/h.</desc>
<speed>2.660000</speed>
</trkpt>
<trkpt lat="55.852310" lon="26.022470">
<ele>158.755981</ele>
<time>2010-07-17T15:02:06Z</time>
<desc>lat.=55.852310, lon.=26.022470, Alt.=158.755981m. Speed=10.548000m/h.</desc>
<speed>2.930000</speed>
</trkpt>
<trkpt lat="55.852303" lon="26.022552">
<ele>159.388794</ele>
<time>2010-07-17T15:02:07Z</time>
<desc>lat.=55.852303, lon.=26.022552, Alt.=159.388794m. Speed=9.432000m/h.</desc>
<speed>2.620000</speed>
</trkpt>
<trkpt lat="55.852295" lon="26.022608">
<ele>159.806763</ele>
<time>2010-07-17T15:02:08Z</time>
<desc>lat.=55.852295, lon.=26.022608, Alt.=159.806763m. Speed=9.540000m/h.</desc>
<speed>2.650000</speed>
</trkpt>
<trkpt lat="55.852283" lon="26.022648">
<ele>160.666138</ele>
<time>2010-07-17T15:02:09Z</time>
<desc>lat.=55.852283, lon.=26.022648, Alt.=160.666138m. Speed=6.372000m/h.</desc>
<speed>1.770000</speed>
</trkpt>
<trkpt lat="55.852272" lon="26.022684">
<ele>161.380981</ele>
<time>2010-07-17T15:02:10Z</time>
<desc>lat.=55.852272, lon.=26.022684, Alt.=161.380981m. Speed=5.760000m/h.</desc>
<speed>1.600000</speed>
</trkpt>
<trkpt lat="55.852253" lon="26.022730">
<ele>162.201294</ele>
<time>2010-07-17T15:02:11Z</time>
<desc>lat.=55.852253, lon.=26.022730, Alt.=162.201294m. Speed=6.192000m/h.</desc>
<speed>1.720000</speed>
</trkpt>
<trkpt lat="55.852238" lon="26.022768">
<ele>162.349731</ele>
<time>2010-07-17T15:02:12Z</time>
<desc>lat.=55.852238, lon.=26.022768, Alt.=162.349731m. Speed=7.236000m/h.</desc>
<speed>2.010000</speed>
</trkpt>
<trkpt lat="55.852222" lon="26.022812">
<ele>162.013794</ele>
<time>2010-07-17T15:02:13Z</time>
<desc>lat.=55.852222, lon.=26.022812, Alt.=162.013794m. Speed=6.588000m/h.</desc>
<speed>1.830000</speed>
</trkpt>
<trkpt lat="55.852211" lon="26.022846">
<ele>162.271606</ele>
<time>2010-07-17T15:02:14Z</time>
<desc>lat.=55.852211, lon.=26.022846, Alt.=162.271606m. Speed=4.932000m/h.</desc>
<speed>1.370000</speed>
</trkpt>
<trkpt lat="55.852200" lon="26.022871">
<ele>162.752075</ele>
<time>2010-07-17T15:02:15Z</time>
<desc>lat.=55.852200, lon.=26.022871, Alt.=162.752075m. Speed=4.788000m/h.</desc>
<speed>1.330000</speed>
</trkpt>
<trkpt lat="55.852196" lon="26.022903">
<ele>163.338013</ele>
<time>2010-07-17T15:02:16Z</time>
<desc>lat.=55.852196, lon.=26.022903, Alt.=163.338013m. Speed=6.012000m/h.</desc>
<speed>1.670000</speed>
</trkpt>
<trkpt lat="55.852184" lon="26.022928">
<ele>163.525513</ele>
<time>2010-07-17T15:02:17Z</time>
<desc>lat.=55.852184, lon.=26.022928, Alt.=163.525513m. Speed=4.788000m/h.</desc>
<speed>1.330000</speed>
</trkpt>
<trkpt lat="55.852177" lon="26.022989">
<ele>163.943481</ele>
<time>2010-07-17T15:02:18Z</time>
<desc>lat.=55.852177, lon.=26.022989, Alt.=163.943481m. Speed=6.768000m/h.</desc>
<speed>1.880000</speed>
</trkpt>
<trkpt lat="55.852177" lon="26.023054">
<ele>165.072388</ele>
<time>2010-07-17T15:02:19Z</time>
<desc>lat.=55.852177, lon.=26.023054, Alt.=165.072388m. Speed=7.416000m/h.</desc>
<speed>2.060000</speed>
</trkpt>
<trkpt lat="55.852173" lon="26.023106">
<ele>165.275513</ele>
<time>2010-07-17T15:02:20Z</time>
<desc>lat.=55.852173, lon.=26.023106, Alt.=165.275513m. Speed=7.056000m/h.</desc>
<speed>1.960000</speed>
</trkpt>
<trkpt lat="55.852173" lon="26.023148">
<ele>165.154419</ele>
<time>2010-07-17T15:02:21Z</time>
<desc>lat.=55.852173, lon.=26.023148, Alt.=165.154419m. Speed=7.488000m/h.</desc>
<speed>2.080000</speed>
</trkpt>
<trkpt lat="55.852165" lon="26.023182">
<ele>165.271606</ele>
<time>2010-07-17T15:02:22Z</time>
<desc>lat.=55.852165, lon.=26.023182, Alt.=165.271606m. Speed=8.100000m/h.</desc>
<speed>2.250000</speed>
</trkpt>
<trkpt lat="55.852158" lon="26.023220">
<ele>165.486450</ele>
<time>2010-07-17T15:02:23Z</time>
<desc>lat.=55.852158, lon.=26.023220, Alt.=165.486450m. Speed=8.388000m/h.</desc>
<speed>2.330000</speed>
</trkpt>
<trkpt lat="55.852154" lon="26.023260">
<ele>165.611450</ele>
<time>2010-07-17T15:02:24Z</time>
<desc>lat.=55.852154, lon.=26.023260, Alt.=165.611450m. Speed=8.136000m/h.</desc>
<speed>2.260000</speed>
</trkpt>
<trkpt lat="55.852150" lon="26.023296">
<ele>165.787231</ele>
<time>2010-07-17T15:02:25Z</time>
<desc>lat.=55.852150, lon.=26.023296, Alt.=165.787231m. Speed=8.064000m/h.</desc>
<speed>2.240000</speed>
</trkpt>
<trkpt lat="55.852146" lon="26.023331">
<ele>165.619263</ele>
<time>2010-07-17T15:02:26Z</time>
<desc>lat.=55.852146, lon.=26.023331, Alt.=165.619263m. Speed=7.092000m/h.</desc>
<speed>1.970000</speed>
</trkpt>
<trkpt lat="55.852146" lon="26.023365">
<ele>165.763794</ele>
<time>2010-07-17T15:02:27Z</time>
<desc>lat.=55.852146, lon.=26.023365, Alt.=165.763794m. Speed=7.056000m/h.</desc>
<speed>1.960000</speed>
</trkpt>
<trkpt lat="55.852142" lon="26.023399">
<ele>165.974731</ele>
<time>2010-07-17T15:02:28Z</time>
<desc>lat.=55.852142, lon.=26.023399, Alt.=165.974731m. Speed=6.588000m/h.</desc>
<speed>1.830000</speed>
</trkpt>
<trkpt lat="55.852139" lon="26.023438">
<ele>166.099731</ele>
<time>2010-07-17T15:02:29Z</time>
<desc>lat.=55.852139, lon.=26.023438, Alt.=166.099731m. Speed=7.884000m/h.</desc>
<speed>2.190000</speed>
</trkpt>
<trkpt lat="55.852127" lon="26.023468">
<ele>166.627075</ele>
<time>2010-07-17T15:02:30Z</time>
<desc>lat.=55.852127, lon.=26.023468, Alt.=166.627075m. Speed=6.552000m/h.</desc>
<speed>1.820000</speed>
</trkpt>
<trkpt lat="55.852119" lon="26.023506">
<ele>166.888794</ele>
<time>2010-07-17T15:02:31Z</time>
<desc>lat.=55.852119, lon.=26.023506, Alt.=166.888794m. Speed=8.856000m/h.</desc>
<speed>2.460000</speed>
</trkpt>
<trkpt lat="55.852116" lon="26.023542">
<ele>167.107544</ele>
<time>2010-07-17T15:02:32Z</time>
<desc>lat.=55.852116, lon.=26.023542, Alt.=167.107544m. Speed=8.712000m/h.</desc>
<speed>2.420000</speed>
</trkpt>
<trkpt lat="55.852108" lon="26.023584">
<ele>167.013794</ele>
<time>2010-07-17T15:02:33Z</time>
<desc>lat.=55.852108, lon.=26.023584, Alt.=167.013794m. Speed=9.540000m/h.</desc>
<speed>2.650000</speed>
</trkpt>
<trkpt lat="55.852097" lon="26.023621">
<ele>166.611450</ele>
<time>2010-07-17T15:02:34Z</time>
<desc>lat.=55.852097, lon.=26.023621, Alt.=166.611450m. Speed=9.612000m/h.</desc>
<speed>2.670000</speed>
</trkpt>
<trkpt lat="55.852089" lon="26.023663">
<ele>166.677856</ele>
<time>2010-07-17T15:02:35Z</time>
<desc>lat.=55.852089, lon.=26.023663, Alt.=166.677856m. Speed=9.108000m/h.</desc>
<speed>2.530000</speed>
</trkpt>
<trkpt lat="55.852081" lon="26.023705">
<ele>166.650513</ele>
<time>2010-07-17T15:02:36Z</time>
<desc>lat.=55.852081, lon.=26.023705, Alt.=166.650513m. Speed=9.756000m/h.</desc>
<speed>2.710000</speed>
</trkpt>
<trkpt lat="55.852077" lon="26.023750">
<ele>166.607544</ele>
<time>2010-07-17T15:02:37Z</time>
<desc>lat.=55.852077, lon.=26.023750, Alt.=166.607544m. Speed=10.224000m/h.</desc>
<speed>2.840000</speed>
</trkpt>
<trkpt lat="55.852066" lon="26.023796">
<ele>166.896606</ele>
<time>2010-07-17T15:02:38Z</time>
<desc>lat.=55.852066, lon.=26.023796, Alt.=166.896606m. Speed=11.556000m/h.</desc>
<speed>3.210000</speed>
</trkpt>
<trkpt lat="55.852058" lon="26.023848">
<ele>165.849731</ele>
<time>2010-07-17T15:02:39Z</time>
<desc>lat.=55.852058, lon.=26.023848, Alt.=165.849731m. Speed=13.536000m/h.</desc>
<speed>3.760000</speed>
</trkpt>
<trkpt lat="55.852055" lon="26.023907">
<ele>165.123169</ele>
<time>2010-07-17T15:02:40Z</time>
<desc>lat.=55.852055, lon.=26.023907, Alt.=165.123169m. Speed=11.124000m/h.</desc>
<speed>3.090000</speed>
</trkpt>
<trkpt lat="55.852051" lon="26.023968">
<ele>164.623169</ele>
<time>2010-07-17T15:02:41Z</time>
<desc>lat.=55.852051, lon.=26.023968, Alt.=164.623169m. Speed=14.472000m/h.</desc>
<speed>4.020000</speed>
</trkpt>
<trkpt lat="55.852032" lon="26.024033">
<ele>164.466919</ele>
<time>2010-07-17T15:02:42Z</time>
<desc>lat.=55.852032, lon.=26.024033, Alt.=164.466919m. Speed=15.624000m/h.</desc>
<speed>4.340000</speed>
</trkpt>
<trkpt lat="55.852016" lon="26.024101">
<ele>164.650513</ele>
<time>2010-07-17T15:02:43Z</time>
<desc>lat.=55.852016, lon.=26.024101, Alt.=164.650513m. Speed=15.696000m/h.</desc>
<speed>4.360000</speed>
</trkpt>
<trkpt lat="55.852001" lon="26.024172">
<ele>165.154419</ele>
<time>2010-07-17T15:02:44Z</time>
<desc>lat.=55.852001, lon.=26.024172, Alt.=165.154419m. Speed=15.948000m/h.</desc>
<speed>4.430000</speed>
</trkpt>
<trkpt lat="55.851990" lon="26.024240">
<ele>165.060669</ele>
<time>2010-07-17T15:02:45Z</time>
<desc>lat.=55.851990, lon.=26.024240, Alt.=165.060669m. Speed=16.812000m/h.</desc>
<speed>4.670000</speed>
</trkpt>
<trkpt lat="55.851971" lon="26.024315">
<ele>164.369263</ele>
<time>2010-07-17T15:02:46Z</time>
<desc>lat.=55.851971, lon.=26.024315, Alt.=164.369263m. Speed=17.280001m/h.</desc>
<speed>4.800000</speed>
</trkpt>
<trkpt lat="55.851952" lon="26.024387">
<ele>164.197388</ele>
<time>2010-07-17T15:02:47Z</time>
<desc>lat.=55.851952, lon.=26.024387, Alt.=164.197388m. Speed=17.964001m/h.</desc>
<speed>4.990000</speed>
</trkpt>
<trkpt lat="55.851933" lon="26.024458">
<ele>164.056763</ele>
<time>2010-07-17T15:02:48Z</time>
<desc>lat.=55.851933, lon.=26.024458, Alt.=164.056763m. Speed=16.812000m/h.</desc>
<speed>4.670000</speed>
</trkpt>
<trkpt lat="55.851910" lon="26.024525">
<ele>164.009888</ele>
<time>2010-07-17T15:02:49Z</time>
<desc>lat.=55.851910, lon.=26.024525, Alt.=164.009888m. Speed=17.712000m/h.</desc>
<speed>4.920000</speed>
</trkpt>
<trkpt lat="55.851883" lon="26.024595">
<ele>163.931763</ele>
<time>2010-07-17T15:02:50Z</time>
<desc>lat.=55.851883, lon.=26.024595, Alt.=163.931763m. Speed=18.684000m/h.</desc>
<speed>5.190000</speed>
</trkpt>
<trkpt lat="55.851856" lon="26.024666">
<ele>163.576294</ele>
<time>2010-07-17T15:02:51Z</time>
<desc>lat.=55.851856, lon.=26.024666, Alt.=163.576294m. Speed=19.691999m/h.</desc>
<speed>5.470000</speed>
</trkpt>
<trkpt lat="55.851830" lon="26.024733">
<ele>163.451294</ele>
<time>2010-07-17T15:02:52Z</time>
<desc>lat.=55.851830, lon.=26.024733, Alt.=163.451294m. Speed=18.323999m/h.</desc>
<speed>5.090000</speed>
</trkpt>
<trkpt lat="55.851795" lon="26.024801">
<ele>163.728638</ele>
<time>2010-07-17T15:02:53Z</time>
<desc>lat.=55.851795, lon.=26.024801, Alt.=163.728638m. Speed=19.656000m/h.</desc>
<speed>5.460000</speed>
</trkpt>
<trkpt lat="55.851761" lon="26.024876">
<ele>163.568481</ele>
<time>2010-07-17T15:02:54Z</time>
<desc>lat.=55.851761, lon.=26.024876, Alt.=163.568481m. Speed=22.320000m/h.</desc>
<speed>6.200000</speed>
</trkpt>
<trkpt lat="55.851723" lon="26.024948">
<ele>163.673950</ele>
<time>2010-07-17T15:02:55Z</time>
<desc>lat.=55.851723, lon.=26.024948, Alt.=163.673950m. Speed=21.816000m/h.</desc>
<speed>6.060000</speed>
</trkpt>
<trkpt lat="55.851688" lon="26.025024">
<ele>163.802856</ele>
<time>2010-07-17T15:02:56Z</time>
<desc>lat.=55.851688, lon.=26.025024, Alt.=163.802856m. Speed=20.700001m/h.</desc>
<speed>5.750000</speed>
</trkpt>
<trkpt lat="55.851650" lon="26.025091">
<ele>164.283325</ele>
<time>2010-07-17T15:02:57Z</time>
<desc>lat.=55.851650, lon.=26.025091, Alt.=164.283325m. Speed=19.511999m/h.</desc>
<speed>5.420000</speed>
</trkpt>
<trkpt lat="55.851616" lon="26.025154">
<ele>164.275513</ele>
<time>2010-07-17T15:02:58Z</time>
<desc>lat.=55.851616, lon.=26.025154, Alt.=164.275513m. Speed=18.719999m/h.</desc>
<speed>5.200000</speed>
</trkpt>
<trkpt lat="55.851582" lon="26.025213">
<ele>164.486450</ele>
<time>2010-07-17T15:02:59Z</time>
<desc>lat.=55.851582, lon.=26.025213, Alt.=164.486450m. Speed=19.368000m/h.</desc>
<speed>5.380000</speed>
</trkpt>
<trkpt lat="55.851555" lon="26.025269">
<ele>164.529419</ele>
<time>2010-07-17T15:03:00Z</time>
<desc>lat.=55.851555, lon.=26.025269, Alt.=164.529419m. Speed=16.632000m/h.</desc>
<speed>4.620000</speed>
</trkpt>
<trkpt lat="55.851528" lon="26.025333">
<ele>164.373169</ele>
<time>2010-07-17T15:03:01Z</time>
<desc>lat.=55.851528, lon.=26.025333, Alt.=164.373169m. Speed=18.323999m/h.</desc>
<speed>5.090000</speed>
</trkpt>
<trkpt lat="55.851501" lon="26.025396">
<ele>164.482544</ele>
<time>2010-07-17T15:03:02Z</time>
<desc>lat.=55.851501, lon.=26.025396, Alt.=164.482544m. Speed=17.892000m/h.</desc>
<speed>4.970000</speed>
</trkpt>
<trkpt lat="55.851467" lon="26.025459">
<ele>164.630981</ele>
<time>2010-07-17T15:03:03Z</time>
<desc>lat.=55.851467, lon.=26.025459, Alt.=164.630981m. Speed=18.900000m/h.</desc>
<speed>5.250000</speed>
</trkpt>
<trkpt lat="55.851418" lon="26.025524">
<ele>164.431763</ele>
<time>2010-07-17T15:03:04Z</time>
<desc>lat.=55.851418, lon.=26.025524, Alt.=164.431763m. Speed=19.584000m/h.</desc>
<speed>5.440000</speed>
</trkpt>
<trkpt lat="55.851357" lon="26.025665">
<ele>163.701294</ele>
<time>2010-07-17T15:03:05Z</time>
<desc>lat.=55.851357, lon.=26.025665, Alt.=163.701294m. Speed=21.455999m/h.</desc>
<speed>5.960000</speed>
</trkpt>
<trkpt lat="55.851326" lon="26.025749">
<ele>163.763794</ele>
<time>2010-07-17T15:03:06Z</time>
<desc>lat.=55.851326, lon.=26.025749, Alt.=163.763794m. Speed=21.492001m/h.</desc>
<speed>5.970000</speed>
</trkpt>
<trkpt lat="55.851288" lon="26.025827">
<ele>163.568481</ele>
<time>2010-07-17T15:03:07Z</time>
<desc>lat.=55.851288, lon.=26.025827, Alt.=163.568481m. Speed=21.275999m/h.</desc>
<speed>5.910000</speed>
</trkpt>
<trkpt lat="55.851254" lon="26.025900">
<ele>163.111450</ele>
<time>2010-07-17T15:03:08Z</time>
<desc>lat.=55.851254, lon.=26.025900, Alt.=163.111450m. Speed=20.483999m/h.</desc>
<speed>5.690000</speed>
</trkpt>
<trkpt lat="55.851219" lon="26.025969">
<ele>162.888794</ele>
<time>2010-07-17T15:03:09Z</time>
<desc>lat.=55.851219, lon.=26.025969, Alt.=162.888794m. Speed=21.167999m/h.</desc>
<speed>5.880000</speed>
</trkpt>
<trkpt lat="55.851189" lon="26.026031">
<ele>162.740356</ele>
<time>2010-07-17T15:03:10Z</time>
<desc>lat.=55.851189, lon.=26.026031, Alt.=162.740356m. Speed=18.972000m/h.</desc>
<speed>5.270000</speed>
</trkpt>
<trkpt lat="55.851162" lon="26.026096">
<ele>162.548950</ele>
<time>2010-07-17T15:03:11Z</time>
<desc>lat.=55.851162, lon.=26.026096, Alt.=162.548950m. Speed=16.884001m/h.</desc>
<speed>4.690000</speed>
</trkpt>
<trkpt lat="55.851139" lon="26.026150">
<ele>162.244263</ele>
<time>2010-07-17T15:03:12Z</time>
<desc>lat.=55.851139, lon.=26.026150, Alt.=162.244263m. Speed=14.040000m/h.</desc>
<speed>3.900000</speed>
</trkpt>
<trkpt lat="55.851120" lon="26.026203">
<ele>162.423950</ele>
<time>2010-07-17T15:03:13Z</time>
<desc>lat.=55.851120, lon.=26.026203, Alt.=162.423950m. Speed=13.536000m/h.</desc>
<speed>3.760000</speed>
</trkpt>
<trkpt lat="55.851097" lon="26.026264">
<ele>162.201294</ele>
<time>2010-07-17T15:03:14Z</time>
<desc>lat.=55.851097, lon.=26.026264, Alt.=162.201294m. Speed=14.472000m/h.</desc>
<speed>4.020000</speed>
</trkpt>
<trkpt lat="55.851074" lon="26.026335">
<ele>161.525513</ele>
<time>2010-07-17T15:03:15Z</time>
<desc>lat.=55.851074, lon.=26.026335, Alt.=161.525513m. Speed=13.824000m/h.</desc>
<speed>3.840000</speed>
</trkpt>
<trkpt lat="55.851051" lon="26.026386">
<ele>161.505981</ele>
<time>2010-07-17T15:03:16Z</time>
<desc>lat.=55.851051, lon.=26.026386, Alt.=161.505981m. Speed=11.736000m/h.</desc>
<speed>3.260000</speed>
</trkpt>
<trkpt lat="55.851028" lon="26.026432">
<ele>161.392700</ele>
<time>2010-07-17T15:03:17Z</time>
<desc>lat.=55.851028, lon.=26.026432, Alt.=161.392700m. Speed=10.872000m/h.</desc>
<speed>3.020000</speed>
</trkpt>
<trkpt lat="55.851002" lon="26.026482">
<ele>161.095825</ele>
<time>2010-07-17T15:03:18Z</time>
<desc>lat.=55.851002, lon.=26.026482, Alt.=161.095825m. Speed=11.448000m/h.</desc>
<speed>3.180000</speed>
</trkpt>
<trkpt lat="55.850937" lon="26.026604">
<ele>159.693481</ele>
<time>2010-07-17T15:03:19Z</time>
<desc>lat.=55.850937, lon.=26.026604, Alt.=159.693481m. Speed=15.912000m/h.</desc>
<speed>4.420000</speed>
</trkpt>
<trkpt lat="55.850906" lon="26.026665">
<ele>159.560669</ele>
<time>2010-07-17T15:03:20Z</time>
<desc>lat.=55.850906, lon.=26.026665, Alt.=159.560669m. Speed=13.644000m/h.</desc>
<speed>3.790000</speed>
</trkpt>
<trkpt lat="55.850864" lon="26.026739">
<ele>158.666138</ele>
<time>2010-07-17T15:03:21Z</time>
<desc>lat.=55.850864, lon.=26.026739, Alt.=158.666138m. Speed=13.500000m/h.</desc>
<speed>3.750000</speed>
</trkpt>
<trkpt lat="55.850838" lon="26.026783">
<ele>158.552856</ele>
<time>2010-07-17T15:03:22Z</time>
<desc>lat.=55.850838, lon.=26.026783, Alt.=158.552856m. Speed=11.340000m/h.</desc>
<speed>3.150000</speed>
</trkpt>
<trkpt lat="55.850815" lon="26.026821">
<ele>158.345825</ele>
<time>2010-07-17T15:03:23Z</time>
<desc>lat.=55.850815, lon.=26.026821, Alt.=158.345825m. Speed=9.864000m/h.</desc>
<speed>2.740000</speed>
</trkpt>
<trkpt lat="55.850796" lon="26.026861">
<ele>158.154419</ele>
<time>2010-07-17T15:03:24Z</time>
<desc>lat.=55.850796, lon.=26.026861, Alt.=158.154419m. Speed=8.856000m/h.</desc>
<speed>2.460000</speed>
</trkpt>
<trkpt lat="55.850765" lon="26.026896">
<ele>158.232544</ele>
<time>2010-07-17T15:03:25Z</time>
<desc>lat.=55.850765, lon.=26.026896, Alt.=158.232544m. Speed=9.540000m/h.</desc>
<speed>2.650000</speed>
</trkpt>
<trkpt lat="55.850735" lon="26.026928">
<ele>158.341919</ele>
<time>2010-07-17T15:03:26Z</time>
<desc>lat.=55.850735, lon.=26.026928, Alt.=158.341919m. Speed=9.252000m/h.</desc>
<speed>2.570000</speed>
</trkpt>
<trkpt lat="55.850712" lon="26.026962">
<ele>158.435669</ele>
<time>2010-07-17T15:03:27Z</time>
<desc>lat.=55.850712, lon.=26.026962, Alt.=158.435669m. Speed=8.496000m/h.</desc>
<speed>2.360000</speed>
</trkpt>
<trkpt lat="55.850689" lon="26.026993">
<ele>158.584106</ele>
<time>2010-07-17T15:03:28Z</time>
<desc>lat.=55.850689, lon.=26.026993, Alt.=158.584106m. Speed=8.928000m/h.</desc>
<speed>2.480000</speed>
</trkpt>
<trkpt lat="55.850662" lon="26.027025">
<ele>158.494263</ele>
<time>2010-07-17T15:03:29Z</time>
<desc>lat.=55.850662, lon.=26.027025, Alt.=158.494263m. Speed=8.784000m/h.</desc>
<speed>2.440000</speed>
</trkpt>
<trkpt lat="55.850643" lon="26.027060">
<ele>158.588013</ele>
<time>2010-07-17T15:03:30Z</time>
<desc>lat.=55.850643, lon.=26.027060, Alt.=158.588013m. Speed=9.072000m/h.</desc>
<speed>2.520000</speed>
</trkpt>
<trkpt lat="55.850620" lon="26.027090">
<ele>158.638794</ele>
<time>2010-07-17T15:03:31Z</time>
<desc>lat.=55.850620, lon.=26.027090, Alt.=158.638794m. Speed=9.468000m/h.</desc>
<speed>2.630000</speed>
</trkpt>
<trkpt lat="55.850601" lon="26.027124">
<ele>158.658325</ele>
<time>2010-07-17T15:03:32Z</time>
<desc>lat.=55.850601, lon.=26.027124, Alt.=158.658325m. Speed=9.972000m/h.</desc>
<speed>2.770000</speed>
</trkpt>
<trkpt lat="55.850586" lon="26.027155">
<ele>158.509888</ele>
<time>2010-07-17T15:03:33Z</time>
<desc>lat.=55.850586, lon.=26.027155, Alt.=158.509888m. Speed=10.440000m/h.</desc>
<speed>2.900000</speed>
</trkpt>
<trkpt lat="55.850563" lon="26.027180">
<ele>158.541138</ele>
<time>2010-07-17T15:03:34Z</time>
<desc>lat.=55.850563, lon.=26.027180, Alt.=158.541138m. Speed=11.016000m/h.</desc>
<speed>3.060000</speed>
</trkpt>
<trkpt lat="55.850548" lon="26.027210">
<ele>158.642700</ele>
<time>2010-07-17T15:03:35Z</time>
<desc>lat.=55.850548, lon.=26.027210, Alt.=158.642700m. Speed=9.756000m/h.</desc>
<speed>2.710000</speed>
</trkpt>
<trkpt lat="55.850533" lon="26.027245">
<ele>158.576294</ele>
<time>2010-07-17T15:03:36Z</time>
<desc>lat.=55.850533, lon.=26.027245, Alt.=158.576294m. Speed=9.792000m/h.</desc>
<speed>2.720000</speed>
</trkpt>
<trkpt lat="55.850517" lon="26.027269">
<ele>158.564575</ele>
<time>2010-07-17T15:03:37Z</time>
<desc>lat.=55.850517, lon.=26.027269, Alt.=158.564575m. Speed=9.072000m/h.</desc>
<speed>2.520000</speed>
</trkpt>
<trkpt lat="55.850502" lon="26.027298">
<ele>158.572388</ele>
<time>2010-07-17T15:03:38Z</time>
<desc>lat.=55.850502, lon.=26.027298, Alt.=158.572388m. Speed=8.280000m/h.</desc>
<speed>2.300000</speed>
</trkpt>
<trkpt lat="55.850491" lon="26.027317">
<ele>158.568481</ele>
<time>2010-07-17T15:03:39Z</time>
<desc>lat.=55.850491, lon.=26.027317, Alt.=158.568481m. Speed=6.552000m/h.</desc>
<speed>1.820000</speed>
</trkpt>
<trkpt lat="55.850475" lon="26.027338">
<ele>158.517700</ele>
<time>2010-07-17T15:03:40Z</time>
<desc>lat.=55.850475, lon.=26.027338, Alt.=158.517700m. Speed=7.416000m/h.</desc>
<speed>2.060000</speed>
</trkpt>
<trkpt lat="55.850456" lon="26.027349">
<ele>158.463013</ele>
<time>2010-07-17T15:03:41Z</time>
<desc>lat.=55.850456, lon.=26.027349, Alt.=158.463013m. Speed=6.588000m/h.</desc>
<speed>1.830000</speed>
</trkpt>
<trkpt lat="55.850430" lon="26.027369">
<ele>158.478638</ele>
<time>2010-07-17T15:03:42Z</time>
<desc>lat.=55.850430, lon.=26.027369, Alt.=158.478638m. Speed=8.496000m/h.</desc>
<speed>2.360000</speed>
</trkpt>
<trkpt lat="55.850403" lon="26.027382">
<ele>158.439575</ele>
<time>2010-07-17T15:03:43Z</time>
<desc>lat.=55.850403, lon.=26.027382, Alt.=158.439575m. Speed=8.424000m/h.</desc>
<speed>2.340000</speed>
</trkpt>
<trkpt lat="55.850380" lon="26.027393">
<ele>158.373169</ele>
<time>2010-07-17T15:03:44Z</time>
<desc>lat.=55.850380, lon.=26.027393, Alt.=158.373169m. Speed=7.740000m/h.</desc>
<speed>2.150000</speed>
</trkpt>
<trkpt lat="55.850361" lon="26.027414">
<ele>158.248169</ele>
<time>2010-07-17T15:03:45Z</time>
<desc>lat.=55.850361, lon.=26.027414, Alt.=158.248169m. Speed=7.632000m/h.</desc>
<speed>2.120000</speed>
</trkpt>
<trkpt lat="55.850334" lon="26.027452">
<ele>158.146606</ele>
<time>2010-07-17T15:03:46Z</time>
<desc>lat.=55.850334, lon.=26.027452, Alt.=158.146606m. Speed=10.512000m/h.</desc>
<speed>2.920000</speed>
</trkpt>
<trkpt lat="55.850296" lon="26.027491">
<ele>158.095825</ele>
<time>2010-07-17T15:03:47Z</time>
<desc>lat.=55.850296, lon.=26.027491, Alt.=158.095825m. Speed=12.060000m/h.</desc>
<speed>3.350000</speed>
</trkpt>
<trkpt lat="55.850262" lon="26.027533">
<ele>158.021606</ele>
<time>2010-07-17T15:03:48Z</time>
<desc>lat.=55.850262, lon.=26.027533, Alt.=158.021606m. Speed=11.952000m/h.</desc>
<speed>3.320000</speed>
</trkpt>
<trkpt lat="55.850231" lon="26.027563">
<ele>157.927856</ele>
<time>2010-07-17T15:03:49Z</time>
<desc>lat.=55.850231, lon.=26.027563, Alt.=157.927856m. Speed=11.952000m/h.</desc>
<speed>3.320000</speed>
</trkpt>
<trkpt lat="55.850204" lon="26.027599">
<ele>157.791138</ele>
<time>2010-07-17T15:03:50Z</time>
<desc>lat.=55.850204, lon.=26.027599, Alt.=157.791138m. Speed=10.692000m/h.</desc>
<speed>2.970000</speed>
</trkpt>
<trkpt lat="55.850185" lon="26.027634">
<ele>157.646606</ele>
<time>2010-07-17T15:03:51Z</time>
<desc>lat.=55.850185, lon.=26.027634, Alt.=157.646606m. Speed=10.296000m/h.</desc>
<speed>2.860000</speed>
</trkpt>
<trkpt lat="55.850163" lon="26.027662">
<ele>157.447388</ele>
<time>2010-07-17T15:03:52Z</time>
<desc>lat.=55.850163, lon.=26.027662, Alt.=157.447388m. Speed=10.008000m/h.</desc>
<speed>2.780000</speed>
</trkpt>
<trkpt lat="55.850140" lon="26.027702">
<ele>157.275513</ele>
<time>2010-07-17T15:03:53Z</time>
<desc>lat.=55.850140, lon.=26.027702, Alt.=157.275513m. Speed=12.312000m/h.</desc>
<speed>3.420000</speed>
</trkpt>
<trkpt lat="55.850109" lon="26.027737">
<ele>157.084106</ele>
<time>2010-07-17T15:03:54Z</time>
<desc>lat.=55.850109, lon.=26.027737, Alt.=157.084106m. Speed=13.032000m/h.</desc>
<speed>3.620000</speed>
</trkpt>
<trkpt lat="55.850090" lon="26.027781">
<ele>156.853638</ele>
<time>2010-07-17T15:03:55Z</time>
<desc>lat.=55.850090, lon.=26.027781, Alt.=156.853638m. Speed=11.772000m/h.</desc>
<speed>3.270000</speed>
</trkpt>
<trkpt lat="55.850063" lon="26.027830">
<ele>156.697388</ele>
<time>2010-07-17T15:03:56Z</time>
<desc>lat.=55.850063, lon.=26.027830, Alt.=156.697388m. Speed=14.220000m/h.</desc>
<speed>3.950000</speed>
</trkpt>
<trkpt lat="55.850014" lon="26.027884">
<ele>156.552856</ele>
<time>2010-07-17T15:03:57Z</time>
<desc>lat.=55.850014, lon.=26.027884, Alt.=156.552856m. Speed=17.784000m/h.</desc>
<speed>4.940000</speed>
</trkpt>
<trkpt lat="55.849979" lon="26.027935">
<ele>156.439575</ele>
<time>2010-07-17T15:03:58Z</time>
<desc>lat.=55.849979, lon.=26.027935, Alt.=156.439575m. Speed=16.416000m/h.</desc>
<speed>4.560000</speed>
</trkpt>
<trkpt lat="55.849945" lon="26.027988">
<ele>156.509888</ele>
<time>2010-07-17T15:03:59Z</time>
<desc>lat.=55.849945, lon.=26.027988, Alt.=156.509888m. Speed=15.696000m/h.</desc>
<speed>4.360000</speed>
</trkpt>
<trkpt lat="55.849915" lon="26.028028">
<ele>156.412231</ele>
<time>2010-07-17T15:04:00Z</time>
<desc>lat.=55.849915, lon.=26.028028, Alt.=156.412231m. Speed=14.400000m/h.</desc>
<speed>4.000000</speed>
</trkpt>
<trkpt lat="55.849880" lon="26.028080">
<ele>156.431763</ele>
<time>2010-07-17T15:04:01Z</time>
<desc>lat.=55.849880, lon.=26.028080, Alt.=156.431763m. Speed=16.308001m/h.</desc>
<speed>4.530000</speed>
</trkpt>
<trkpt lat="55.849838" lon="26.028141">
<ele>156.412231</ele>
<time>2010-07-17T15:04:02Z</time>
<desc>lat.=55.849838, lon.=26.028141, Alt.=156.412231m. Speed=17.964001m/h.</desc>
<speed>4.990000</speed>
</trkpt>
<trkpt lat="55.849800" lon="26.028200">
<ele>156.244263</ele>
<time>2010-07-17T15:04:03Z</time>
<desc>lat.=55.849800, lon.=26.028200, Alt.=156.244263m. Speed=18.719999m/h.</desc>
<speed>5.200000</speed>
</trkpt>
<trkpt lat="55.849762" lon="26.028257">
<ele>156.267700</ele>
<time>2010-07-17T15:04:04Z</time>
<desc>lat.=55.849762, lon.=26.028257, Alt.=156.267700m. Speed=18.972000m/h.</desc>
<speed>5.270000</speed>
</trkpt>
<trkpt lat="55.849728" lon="26.028315">
<ele>156.130981</ele>
<time>2010-07-17T15:04:05Z</time>
<desc>lat.=55.849728, lon.=26.028315, Alt.=156.130981m. Speed=17.964001m/h.</desc>
<speed>4.990000</speed>
</trkpt>
<trkpt lat="55.849697" lon="26.028370">
<ele>156.084106</ele>
<time>2010-07-17T15:04:06Z</time>
<desc>lat.=55.849697, lon.=26.028370, Alt.=156.084106m. Speed=15.660000m/h.</desc>
<speed>4.350000</speed>
</trkpt>
<trkpt lat="55.849670" lon="26.028423">
<ele>156.095825</ele>
<time>2010-07-17T15:04:07Z</time>
<desc>lat.=55.849670, lon.=26.028423, Alt.=156.095825m. Speed=16.884001m/h.</desc>
<speed>4.690000</speed>
</trkpt>
<trkpt lat="55.849640" lon="26.028490">
<ele>155.775513</ele>
<time>2010-07-17T15:04:08Z</time>
<desc>lat.=55.849640, lon.=26.028490, Alt.=155.775513m. Speed=17.243999m/h.</desc>
<speed>4.790000</speed>
</trkpt>
<trkpt lat="55.849609" lon="26.028563">
<ele>155.939575</ele>
<time>2010-07-17T15:04:09Z</time>
<desc>lat.=55.849609, lon.=26.028563, Alt.=155.939575m. Speed=16.812000m/h.</desc>
<speed>4.670000</speed>
</trkpt>
<trkpt lat="55.849575" lon="26.028616">
<ele>156.252075</ele>
<time>2010-07-17T15:04:10Z</time>
<desc>lat.=55.849575, lon.=26.028616, Alt.=156.252075m. Speed=16.128000m/h.</desc>
<speed>4.480000</speed>
</trkpt>
<trkpt lat="55.849541" lon="26.028658">
<ele>156.677856</ele>
<time>2010-07-17T15:04:11Z</time>
<desc>lat.=55.849541, lon.=26.028658, Alt.=156.677856m. Speed=16.955999m/h.</desc>
<speed>4.710000</speed>
</trkpt>
<trkpt lat="55.849499" lon="26.028715">
<ele>157.025513</ele>
<time>2010-07-17T15:04:12Z</time>
<desc>lat.=55.849499, lon.=26.028715, Alt.=157.025513m. Speed=18.576000m/h.</desc>
<speed>5.160000</speed>
</trkpt>
<trkpt lat="55.849445" lon="26.028780">
<ele>157.595825</ele>
<time>2010-07-17T15:04:13Z</time>
<desc>lat.=55.849445, lon.=26.028780, Alt.=157.595825m. Speed=18.972000m/h.</desc>
<speed>5.270000</speed>
</trkpt>
<trkpt lat="55.849403" lon="26.028833">
<ele>157.650513</ele>
<time>2010-07-17T15:04:14Z</time>
<desc>lat.=55.849403, lon.=26.028833, Alt.=157.650513m. Speed=19.115999m/h.</desc>
<speed>5.310000</speed>
</trkpt>
<trkpt lat="55.849358" lon="26.028885">
<ele>157.670044</ele>
<time>2010-07-17T15:04:15Z</time>
<desc>lat.=55.849358, lon.=26.028885, Alt.=157.670044m. Speed=20.016001m/h.</desc>
<speed>5.560000</speed>
</trkpt>
<trkpt lat="55.849319" lon="26.028944">
<ele>156.904419</ele>
<time>2010-07-17T15:04:16Z</time>
<desc>lat.=55.849319, lon.=26.028944, Alt.=156.904419m. Speed=20.628000m/h.</desc>
<speed>5.730000</speed>
</trkpt>
<trkpt lat="55.849277" lon="26.029005">
<ele>156.220825</ele>
<time>2010-07-17T15:04:17Z</time>
<desc>lat.=55.849277, lon.=26.029005, Alt.=156.220825m. Speed=21.132000m/h.</desc>
<speed>5.870000</speed>
</trkpt>
<trkpt lat="55.849232" lon="26.029062">
<ele>156.064575</ele>
<time>2010-07-17T15:04:18Z</time>
<desc>lat.=55.849232, lon.=26.029062, Alt.=156.064575m. Speed=21.455999m/h.</desc>
<speed>5.960000</speed>
</trkpt>
<trkpt lat="55.849190" lon="26.029112">
<ele>155.830200</ele>
<time>2010-07-17T15:04:19Z</time>
<desc>lat.=55.849190, lon.=26.029112, Alt.=155.830200m. Speed=21.275999m/h.</desc>
<speed>5.910000</speed>
</trkpt>
<trkpt lat="55.849148" lon="26.029165">
<ele>155.408325</ele>
<time>2010-07-17T15:04:20Z</time>
<desc>lat.=55.849148, lon.=26.029165, Alt.=155.408325m. Speed=21.059999m/h.</desc>
<speed>5.850000</speed>
</trkpt>
<trkpt lat="55.849102" lon="26.029217">
<ele>155.275513</ele>
<time>2010-07-17T15:04:21Z</time>
<desc>lat.=55.849102, lon.=26.029217, Alt.=155.275513m. Speed=20.916000m/h.</desc>
<speed>5.810000</speed>
</trkpt>
<trkpt lat="55.849056" lon="26.029257">
<ele>155.537231</ele>
<time>2010-07-17T15:04:22Z</time>
<desc>lat.=55.849056, lon.=26.029257, Alt.=155.537231m. Speed=19.764000m/h.</desc>
<speed>5.490000</speed>
</trkpt>
<trkpt lat="55.849014" lon="26.029299">
<ele>155.998169</ele>
<time>2010-07-17T15:04:23Z</time>
<desc>lat.=55.849014, lon.=26.029299, Alt.=155.998169m. Speed=19.548000m/h.</desc>
<speed>5.430000</speed>
</trkpt>
<trkpt lat="55.848972" lon="26.029341">
<ele>156.072388</ele>
<time>2010-07-17T15:04:24Z</time>
<desc>lat.=55.848972, lon.=26.029341, Alt.=156.072388m. Speed=18.431999m/h.</desc>
<speed>5.120000</speed>
</trkpt>
<trkpt lat="55.848934" lon="26.029383">
<ele>155.982544</ele>
<time>2010-07-17T15:04:25Z</time>
<desc>lat.=55.848934, lon.=26.029383, Alt.=155.982544m. Speed=18.000000m/h.</desc>
<speed>5.000000</speed>
</trkpt>
<trkpt lat="55.848892" lon="26.029417">
<ele>155.701294</ele>
<time>2010-07-17T15:04:26Z</time>
<desc>lat.=55.848892, lon.=26.029417, Alt.=155.701294m. Speed=18.072001m/h.</desc>
<speed>5.020000</speed>
</trkpt>
<trkpt lat="55.848850" lon="26.029457">
<ele>155.537231</ele>
<time>2010-07-17T15:04:27Z</time>
<desc>lat.=55.848850, lon.=26.029457, Alt.=155.537231m. Speed=17.747999m/h.</desc>
<speed>4.930000</speed>
</trkpt>
<trkpt lat="55.848808" lon="26.029501">
<ele>155.392700</ele>
<time>2010-07-17T15:04:28Z</time>
<desc>lat.=55.848808, lon.=26.029501, Alt.=155.392700m. Speed=19.511999m/h.</desc>
<speed>5.420000</speed>
</trkpt>
<trkpt lat="55.848763" lon="26.029549">
<ele>155.498169</ele>
<time>2010-07-17T15:04:29Z</time>
<desc>lat.=55.848763, lon.=26.029549, Alt.=155.498169m. Speed=20.879999m/h.</desc>
<speed>5.800000</speed>
</trkpt>
<trkpt lat="55.848717" lon="26.029594">
<ele>155.681763</ele>
<time>2010-07-17T15:04:30Z</time>
<desc>lat.=55.848717, lon.=26.029594, Alt.=155.681763m. Speed=20.736000m/h.</desc>
<speed>5.760000</speed>
</trkpt>
<trkpt lat="55.848671" lon="26.029642">
<ele>155.658325</ele>
<time>2010-07-17T15:04:31Z</time>
<desc>lat.=55.848671, lon.=26.029642, Alt.=155.658325m. Speed=20.771999m/h.</desc>
<speed>5.770000</speed>
</trkpt>
<trkpt lat="55.848629" lon="26.029690">
<ele>155.595825</ele>
<time>2010-07-17T15:04:32Z</time>
<desc>lat.=55.848629, lon.=26.029690, Alt.=155.595825m. Speed=20.195999m/h.</desc>
<speed>5.610000</speed>
</trkpt>
<trkpt lat="55.848583" lon="26.029736">
<ele>155.548950</ele>
<time>2010-07-17T15:04:33Z</time>
<desc>lat.=55.848583, lon.=26.029736, Alt.=155.548950m. Speed=20.052000m/h.</desc>
<speed>5.570000</speed>
</trkpt>
<trkpt lat="55.848537" lon="26.029781">
<ele>155.416138</ele>
<time>2010-07-17T15:04:34Z</time>
<desc>lat.=55.848537, lon.=26.029781, Alt.=155.416138m. Speed=19.440001m/h.</desc>
<speed>5.400000</speed>
</trkpt>
<trkpt lat="55.848499" lon="26.029829">
<ele>155.377075</ele>
<time>2010-07-17T15:04:35Z</time>
<desc>lat.=55.848499, lon.=26.029829, Alt.=155.377075m. Speed=19.188000m/h.</desc>
<speed>5.330000</speed>
</trkpt>
<trkpt lat="55.848461" lon="26.029877">
<ele>155.431763</ele>
<time>2010-07-17T15:04:36Z</time>
<desc>lat.=55.848461, lon.=26.029877, Alt.=155.431763m. Speed=18.972000m/h.</desc>
<speed>5.270000</speed>
</trkpt>
<trkpt lat="55.848419" lon="26.029919">
<ele>155.232544</ele>
<time>2010-07-17T15:04:37Z</time>
<desc>lat.=55.848419, lon.=26.029919, Alt.=155.232544m. Speed=18.504000m/h.</desc>
<speed>5.140000</speed>
</trkpt>
<trkpt lat="55.848381" lon="26.029966">
<ele>155.255981</ele>
<time>2010-07-17T15:04:38Z</time>
<desc>lat.=55.848381, lon.=26.029966, Alt.=155.255981m. Speed=18.684000m/h.</desc>
<speed>5.190000</speed>
</trkpt>
<trkpt lat="55.848347" lon="26.030012">
<ele>155.205200</ele>
<time>2010-07-17T15:04:39Z</time>
<desc>lat.=55.848347, lon.=26.030012, Alt.=155.205200m. Speed=18.719999m/h.</desc>
<speed>5.200000</speed>
</trkpt>
<trkpt lat="55.848309" lon="26.030066">
<ele>154.998169</ele>
<time>2010-07-17T15:04:40Z</time>
<desc>lat.=55.848309, lon.=26.030066, Alt.=154.998169m. Speed=17.747999m/h.</desc>
<speed>4.930000</speed>
</trkpt>
<trkpt lat="55.848274" lon="26.030119">
<ele>154.916138</ele>
<time>2010-07-17T15:04:41Z</time>
<desc>lat.=55.848274, lon.=26.030119, Alt.=154.916138m. Speed=17.676001m/h.</desc>
<speed>4.910000</speed>
</trkpt>
<trkpt lat="55.848236" lon="26.030163">
<ele>154.939575</ele>
<time>2010-07-17T15:04:42Z</time>
<desc>lat.=55.848236, lon.=26.030163, Alt.=154.939575m. Speed=16.812000m/h.</desc>
<speed>4.670000</speed>
</trkpt>
<trkpt lat="55.848202" lon="26.030212">
<ele>155.045044</ele>
<time>2010-07-17T15:04:43Z</time>
<desc>lat.=55.848202, lon.=26.030212, Alt.=155.045044m. Speed=18.936001m/h.</desc>
<speed>5.260000</speed>
</trkpt>
<trkpt lat="55.848164" lon="26.030258">
<ele>155.193481</ele>
<time>2010-07-17T15:04:44Z</time>
<desc>lat.=55.848164, lon.=26.030258, Alt.=155.193481m. Speed=18.900000m/h.</desc>
<speed>5.250000</speed>
</trkpt>
<trkpt lat="55.848129" lon="26.030315">
<ele>156.162231</ele>
<time>2010-07-17T15:04:45Z</time>
<desc>lat.=55.848129, lon.=26.030315, Alt.=156.162231m. Speed=17.712000m/h.</desc>
<speed>4.920000</speed>
</trkpt>
<trkpt lat="55.848099" lon="26.030365">
<ele>156.463013</ele>
<time>2010-07-17T15:04:46Z</time>
<desc>lat.=55.848099, lon.=26.030365, Alt.=156.463013m. Speed=18.000000m/h.</desc>
<speed>5.000000</speed>
</trkpt>
<trkpt lat="55.848064" lon="26.030415">
<ele>156.697388</ele>
<time>2010-07-17T15:04:47Z</time>
<desc>lat.=55.848064, lon.=26.030415, Alt.=156.697388m. Speed=17.208000m/h.</desc>
<speed>4.780000</speed>
</trkpt>
<trkpt lat="55.848030" lon="26.030460">
<ele>157.037231</ele>
<time>2010-07-17T15:04:48Z</time>
<desc>lat.=55.848030, lon.=26.030460, Alt.=157.037231m. Speed=17.532000m/h.</desc>
<speed>4.870000</speed>
</trkpt>
<trkpt lat="55.847988" lon="26.030516">
<ele>157.193481</ele>
<time>2010-07-17T15:04:49Z</time>
<desc>lat.=55.847988, lon.=26.030516, Alt.=157.193481m. Speed=17.892000m/h.</desc>
<speed>4.970000</speed>
</trkpt>
<trkpt lat="55.847950" lon="26.030571">
<ele>159.228638</ele>
<time>2010-07-17T15:04:50Z</time>
<desc>lat.=55.847950, lon.=26.030571, Alt.=159.228638m. Speed=18.252001m/h.</desc>
<speed>5.070000</speed>
</trkpt>
<trkpt lat="55.847923" lon="26.030628">
<ele>159.416138</ele>
<time>2010-07-17T15:04:51Z</time>
<desc>lat.=55.847923, lon.=26.030628, Alt.=159.416138m. Speed=17.964001m/h.</desc>
<speed>4.990000</speed>
</trkpt>
<trkpt lat="55.847885" lon="26.030687">
<ele>159.338013</ele>
<time>2010-07-17T15:04:52Z</time>
<desc>lat.=55.847885, lon.=26.030687, Alt.=159.338013m. Speed=20.736000m/h.</desc>
<speed>5.760000</speed>
</trkpt>
<trkpt lat="55.847843" lon="26.030760">
<ele>159.564575</ele>
<time>2010-07-17T15:04:53Z</time>
<desc>lat.=55.847843, lon.=26.030760, Alt.=159.564575m. Speed=21.096001m/h.</desc>
<speed>5.860000</speed>
</trkpt>
<trkpt lat="55.847801" lon="26.030825">
<ele>159.431763</ele>
<time>2010-07-17T15:04:54Z</time>
<desc>lat.=55.847801, lon.=26.030825, Alt.=159.431763m. Speed=21.600000m/h.</desc>
<speed>6.000000</speed>
</trkpt>
<trkpt lat="55.847755" lon="26.030891">
<ele>159.677856</ele>
<time>2010-07-17T15:04:55Z</time>
<desc>lat.=55.847755, lon.=26.030891, Alt.=159.677856m. Speed=21.851999m/h.</desc>
<speed>6.070000</speed>
</trkpt>
<trkpt lat="55.847713" lon="26.030954">
<ele>158.857544</ele>
<time>2010-07-17T15:04:56Z</time>
<desc>lat.=55.847713, lon.=26.030954, Alt.=158.857544m. Speed=20.771999m/h.</desc>
<speed>5.770000</speed>
</trkpt>
<trkpt lat="55.847675" lon="26.031019">
<ele>158.408325</ele>
<time>2010-07-17T15:04:57Z</time>
<desc>lat.=55.847675, lon.=26.031019, Alt.=158.408325m. Speed=21.312000m/h.</desc>
<speed>5.920000</speed>
</trkpt>
<trkpt lat="55.847633" lon="26.031082">
<ele>158.326294</ele>
<time>2010-07-17T15:04:58Z</time>
<desc>lat.=55.847633, lon.=26.031082, Alt.=158.326294m. Speed=21.132000m/h.</desc>
<speed>5.870000</speed>
</trkpt>
<trkpt lat="55.847591" lon="26.031141">
<ele>157.990356</ele>
<time>2010-07-17T15:04:59Z</time>
<desc>lat.=55.847591, lon.=26.031141, Alt.=157.990356m. Speed=21.024000m/h.</desc>
<speed>5.840000</speed>
</trkpt>
<trkpt lat="55.847549" lon="26.031199">
<ele>158.056763</ele>
<time>2010-07-17T15:05:00Z</time>
<desc>lat.=55.847549, lon.=26.031199, Alt.=158.056763m. Speed=21.132000m/h.</desc>
<speed>5.870000</speed>
</trkpt>
<trkpt lat="55.847507" lon="26.031261">
<ele>157.923950</ele>
<time>2010-07-17T15:05:01Z</time>
<desc>lat.=55.847507, lon.=26.031261, Alt.=157.923950m. Speed=21.167999m/h.</desc>
<speed>5.880000</speed>
</trkpt>
<trkpt lat="55.847469" lon="26.031328">
<ele>157.814575</ele>
<time>2010-07-17T15:05:02Z</time>
<desc>lat.=55.847469, lon.=26.031328, Alt.=157.814575m. Speed=19.584000m/h.</desc>
<speed>5.440000</speed>
</trkpt>
<trkpt lat="55.847431" lon="26.031389">
<ele>157.998169</ele>
<time>2010-07-17T15:05:03Z</time>
<desc>lat.=55.847431, lon.=26.031389, Alt.=157.998169m. Speed=18.972000m/h.</desc>
<speed>5.270000</speed>
</trkpt>
<trkpt lat="55.847397" lon="26.031446">
<ele>158.154419</ele>
<time>2010-07-17T15:05:04Z</time>
<desc>lat.=55.847397, lon.=26.031446, Alt.=158.154419m. Speed=17.100000m/h.</desc>
<speed>4.750000</speed>
</trkpt>
<trkpt lat="55.847366" lon="26.031498">
<ele>158.306763</ele>
<time>2010-07-17T15:05:05Z</time>
<desc>lat.=55.847366, lon.=26.031498, Alt.=158.306763m. Speed=16.955999m/h.</desc>
<speed>4.710000</speed>
</trkpt>
<trkpt lat="55.847336" lon="26.031546">
<ele>158.763794</ele>
<time>2010-07-17T15:05:06Z</time>
<desc>lat.=55.847336, lon.=26.031546, Alt.=158.763794m. Speed=15.372000m/h.</desc>
<speed>4.270000</speed>
</trkpt>
<trkpt lat="55.847309" lon="26.031588">
<ele>159.002075</ele>
<time>2010-07-17T15:05:07Z</time>
<desc>lat.=55.847309, lon.=26.031588, Alt.=159.002075m. Speed=14.472000m/h.</desc>
<speed>4.020000</speed>
</trkpt>
<trkpt lat="55.847271" lon="26.031637">
<ele>158.947388</ele>
<time>2010-07-17T15:05:08Z</time>
<desc>lat.=55.847271, lon.=26.031637, Alt.=158.947388m. Speed=15.552000m/h.</desc>
<speed>4.320000</speed>
</trkpt>
<trkpt lat="55.847240" lon="26.031679">
<ele>159.334106</ele>
<time>2010-07-17T15:05:09Z</time>
<desc>lat.=55.847240, lon.=26.031679, Alt.=159.334106m. Speed=12.276000m/h.</desc>
<speed>3.410000</speed>
</trkpt>
<trkpt lat="55.847218" lon="26.031715">
<ele>159.572388</ele>
<time>2010-07-17T15:05:10Z</time>
<desc>lat.=55.847218, lon.=26.031715, Alt.=159.572388m. Speed=12.780000m/h.</desc>
<speed>3.550000</speed>
</trkpt>
<trkpt lat="55.847187" lon="26.031759">
<ele>158.670044</ele>
<time>2010-07-17T15:05:11Z</time>
<desc>lat.=55.847187, lon.=26.031759, Alt.=158.670044m. Speed=12.708000m/h.</desc>
<speed>3.530000</speed>
</trkpt>
<trkpt lat="55.847164" lon="26.031796">
<ele>158.170044</ele>
<time>2010-07-17T15:05:12Z</time>
<desc>lat.=55.847164, lon.=26.031796, Alt.=158.170044m. Speed=10.476000m/h.</desc>
<speed>2.910000</speed>
</trkpt>
<trkpt lat="55.847141" lon="26.031837">
<ele>158.252075</ele>
<time>2010-07-17T15:05:13Z</time>
<desc>lat.=55.847141, lon.=26.031837, Alt.=158.252075m. Speed=10.620000m/h.</desc>
<speed>2.950000</speed>
</trkpt>
<trkpt lat="55.847115" lon="26.031874">
<ele>157.845825</ele>
<time>2010-07-17T15:05:14Z</time>
<desc>lat.=55.847115, lon.=26.031874, Alt.=157.845825m. Speed=10.908000m/h.</desc>
<speed>3.030000</speed>
</trkpt>
<trkpt lat="55.847092" lon="26.031914">
<ele>157.904419</ele>
<time>2010-07-17T15:05:15Z</time>
<desc>lat.=55.847092, lon.=26.031914, Alt.=157.904419m. Speed=12.492000m/h.</desc>
<speed>3.470000</speed>
</trkpt>
<trkpt lat="55.847065" lon="26.031950">
<ele>157.904419</ele>
<time>2010-07-17T15:05:16Z</time>
<desc>lat.=55.847065, lon.=26.031950, Alt.=157.904419m. Speed=11.196000m/h.</desc>
<speed>3.110000</speed>
</trkpt>
<trkpt lat="55.847038" lon="26.031984">
<ele>158.002075</ele>
<time>2010-07-17T15:05:17Z</time>
<desc>lat.=55.847038, lon.=26.031984, Alt.=158.002075m. Speed=11.844000m/h.</desc>
<speed>3.290000</speed>
</trkpt>
<trkpt lat="55.847015" lon="26.032030">
<ele>157.560669</ele>
<time>2010-07-17T15:05:18Z</time>
<desc>lat.=55.847015, lon.=26.032030, Alt.=157.560669m. Speed=12.276000m/h.</desc>
<speed>3.410000</speed>
</trkpt>
<trkpt lat="55.846989" lon="26.032072">
<ele>157.513794</ele>
<time>2010-07-17T15:05:19Z</time>
<desc>lat.=55.846989, lon.=26.032072, Alt.=157.513794m. Speed=12.492000m/h.</desc>
<speed>3.470000</speed>
</trkpt>
<trkpt lat="55.846962" lon="26.032116">
<ele>157.248169</ele>
<time>2010-07-17T15:05:20Z</time>
<desc>lat.=55.846962, lon.=26.032116, Alt.=157.248169m. Speed=13.428000m/h.</desc>
<speed>3.730000</speed>
</trkpt>
<trkpt lat="55.846935" lon="26.032154">
<ele>157.384888</ele>
<time>2010-07-17T15:05:21Z</time>
<desc>lat.=55.846935, lon.=26.032154, Alt.=157.384888m. Speed=13.860000m/h.</desc>
<speed>3.850000</speed>
</trkpt>
<trkpt lat="55.846912" lon="26.032196">
<ele>157.545044</ele>
<time>2010-07-17T15:05:22Z</time>
<desc>lat.=55.846912, lon.=26.032196, Alt.=157.545044m. Speed=14.004000m/h.</desc>
<speed>3.890000</speed>
</trkpt>
<trkpt lat="55.846886" lon="26.032238">
<ele>157.349731</ele>
<time>2010-07-17T15:05:23Z</time>
<desc>lat.=55.846886, lon.=26.032238, Alt.=157.349731m. Speed=14.328000m/h.</desc>
<speed>3.980000</speed>
</trkpt>
<trkpt lat="55.846859" lon="26.032282">
<ele>157.295044</ele>
<time>2010-07-17T15:05:24Z</time>
<desc>lat.=55.846859, lon.=26.032282, Alt.=157.295044m. Speed=14.652000m/h.</desc>
<speed>4.070000</speed>
</trkpt>
<trkpt lat="55.846828" lon="26.032324">
<ele>157.220825</ele>
<time>2010-07-17T15:05:25Z</time>
<desc>lat.=55.846828, lon.=26.032324, Alt.=157.220825m. Speed=15.588000m/h.</desc>
<speed>4.330000</speed>
</trkpt>
<trkpt lat="55.846798" lon="26.032366">
<ele>157.275513</ele>
<time>2010-07-17T15:05:26Z</time>
<desc>lat.=55.846798, lon.=26.032366, Alt.=157.275513m. Speed=15.840000m/h.</desc>
<speed>4.400000</speed>
</trkpt>
<trkpt lat="55.846767" lon="26.032410">
<ele>157.384888</ele>
<time>2010-07-17T15:05:27Z</time>
<desc>lat.=55.846767, lon.=26.032410, Alt.=157.384888m. Speed=16.559999m/h.</desc>
<speed>4.600000</speed>
</trkpt>
<trkpt lat="55.846733" lon="26.032454">
<ele>157.541138</ele>
<time>2010-07-17T15:05:28Z</time>
<desc>lat.=55.846733, lon.=26.032454, Alt.=157.541138m. Speed=16.884001m/h.</desc>
<speed>4.690000</speed>
</trkpt>
<trkpt lat="55.846699" lon="26.032497">
<ele>157.912231</ele>
<time>2010-07-17T15:05:29Z</time>
<desc>lat.=55.846699, lon.=26.032497, Alt.=157.912231m. Speed=17.784000m/h.</desc>
<speed>4.940000</speed>
</trkpt>
<trkpt lat="55.846664" lon="26.032549">
<ele>158.056763</ele>
<time>2010-07-17T15:05:30Z</time>
<desc>lat.=55.846664, lon.=26.032549, Alt.=158.056763m. Speed=17.820000m/h.</desc>
<speed>4.950000</speed>
</trkpt>
<trkpt lat="55.846630" lon="26.032606">
<ele>157.978638</ele>
<time>2010-07-17T15:05:31Z</time>
<desc>lat.=55.846630, lon.=26.032606, Alt.=157.978638m. Speed=18.143999m/h.</desc>
<speed>5.040000</speed>
</trkpt>
<trkpt lat="55.846596" lon="26.032663">
<ele>157.986450</ele>
<time>2010-07-17T15:05:32Z</time>
<desc>lat.=55.846596, lon.=26.032663, Alt.=157.986450m. Speed=18.612000m/h.</desc>
<speed>5.170000</speed>
</trkpt>
<trkpt lat="55.846558" lon="26.032722">
<ele>157.818481</ele>
<time>2010-07-17T15:05:33Z</time>
<desc>lat.=55.846558, lon.=26.032722, Alt.=157.818481m. Speed=17.892000m/h.</desc>
<speed>4.970000</speed>
</trkpt>
<trkpt lat="55.846519" lon="26.032776">
<ele>157.884888</ele>
<time>2010-07-17T15:05:34Z</time>
<desc>lat.=55.846519, lon.=26.032776, Alt.=157.884888m. Speed=18.719999m/h.</desc>
<speed>5.200000</speed>
</trkpt>
<trkpt lat="55.846485" lon="26.032829">
<ele>158.076294</ele>
<time>2010-07-17T15:05:35Z</time>
<desc>lat.=55.846485, lon.=26.032829, Alt.=158.076294m. Speed=19.224001m/h.</desc>
<speed>5.340000</speed>
</trkpt>
<trkpt lat="55.846447" lon="26.032881">
<ele>158.224731</ele>
<time>2010-07-17T15:05:36Z</time>
<desc>lat.=55.846447, lon.=26.032881, Alt.=158.224731m. Speed=19.584000m/h.</desc>
<speed>5.440000</speed>
</trkpt>
<trkpt lat="55.846409" lon="26.032930">
<ele>158.357544</ele>
<time>2010-07-17T15:05:37Z</time>
<desc>lat.=55.846409, lon.=26.032930, Alt.=158.357544m. Speed=18.504000m/h.</desc>
<speed>5.140000</speed>
</trkpt>
<trkpt lat="55.846375" lon="26.032976">
<ele>158.306763</ele>
<time>2010-07-17T15:05:38Z</time>
<desc>lat.=55.846375, lon.=26.032976, Alt.=158.306763m. Speed=17.676001m/h.</desc>
<speed>4.910000</speed>
</trkpt>
<trkpt lat="55.846344" lon="26.033030">
<ele>158.306763</ele>
<time>2010-07-17T15:05:39Z</time>
<desc>lat.=55.846344, lon.=26.033030, Alt.=158.306763m. Speed=17.351999m/h.</desc>
<speed>4.820000</speed>
</trkpt>
<trkpt lat="55.846313" lon="26.033081">
<ele>158.248169</ele>
<time>2010-07-17T15:05:40Z</time>
<desc>lat.=55.846313, lon.=26.033081, Alt.=158.248169m. Speed=16.379999m/h.</desc>
<speed>4.550000</speed>
</trkpt>
<trkpt lat="55.846283" lon="26.033133">
<ele>158.568481</ele>
<time>2010-07-17T15:05:41Z</time>
<desc>lat.=55.846283, lon.=26.033133, Alt.=158.568481m. Speed=16.379999m/h.</desc>
<speed>4.550000</speed>
</trkpt>
<trkpt lat="55.846252" lon="26.033176">
<ele>158.732544</ele>
<time>2010-07-17T15:05:42Z</time>
<desc>lat.=55.846252, lon.=26.033176, Alt.=158.732544m. Speed=14.868000m/h.</desc>
<speed>4.130000</speed>
</trkpt>
<trkpt lat="55.846226" lon="26.033218">
<ele>158.802856</ele>
<time>2010-07-17T15:05:43Z</time>
<desc>lat.=55.846226, lon.=26.033218, Alt.=158.802856m. Speed=15.372000m/h.</desc>
<speed>4.270000</speed>
</trkpt>
<trkpt lat="55.846195" lon="26.033258">
<ele>158.779419</ele>
<time>2010-07-17T15:05:44Z</time>
<desc>lat.=55.846195, lon.=26.033258, Alt.=158.779419m. Speed=15.552000m/h.</desc>
<speed>4.320000</speed>
</trkpt>
<trkpt lat="55.846161" lon="26.033304">
<ele>158.720825</ele>
<time>2010-07-17T15:05:45Z</time>
<desc>lat.=55.846161, lon.=26.033304, Alt.=158.720825m. Speed=16.091999m/h.</desc>
<speed>4.470000</speed>
</trkpt>
<trkpt lat="55.846127" lon="26.033350">
<ele>158.814575</ele>
<time>2010-07-17T15:05:46Z</time>
<desc>lat.=55.846127, lon.=26.033350, Alt.=158.814575m. Speed=16.308001m/h.</desc>
<speed>4.530000</speed>
</trkpt>
<trkpt lat="55.846096" lon="26.033396">
<ele>159.002075</ele>
<time>2010-07-17T15:05:47Z</time>
<desc>lat.=55.846096, lon.=26.033396, Alt.=159.002075m. Speed=16.308001m/h.</desc>
<speed>4.530000</speed>
</trkpt>
<trkpt lat="55.846069" lon="26.033443">
<ele>159.107544</ele>
<time>2010-07-17T15:05:48Z</time>
<desc>lat.=55.846069, lon.=26.033443, Alt.=159.107544m. Speed=16.308001m/h.</desc>
<speed>4.530000</speed>
</trkpt>
<trkpt lat="55.846039" lon="26.033487">
<ele>159.255981</ele>
<time>2010-07-17T15:05:49Z</time>
<desc>lat.=55.846039, lon.=26.033487, Alt.=159.255981m. Speed=16.056000m/h.</desc>
<speed>4.460000</speed>
</trkpt>
<trkpt lat="55.846004" lon="26.033535">
<ele>159.271606</ele>
<time>2010-07-17T15:05:50Z</time>
<desc>lat.=55.846004, lon.=26.033535, Alt.=159.271606m. Speed=15.732000m/h.</desc>
<speed>4.370000</speed>
</trkpt>
<trkpt lat="55.845978" lon="26.033583">
<ele>158.994263</ele>
<time>2010-07-17T15:05:51Z</time>
<desc>lat.=55.845978, lon.=26.033583, Alt.=158.994263m. Speed=15.012000m/h.</desc>
<speed>4.170000</speed>
</trkpt>
<trkpt lat="55.845951" lon="26.033628">
<ele>159.068481</ele>
<time>2010-07-17T15:05:52Z</time>
<desc>lat.=55.845951, lon.=26.033628, Alt.=159.068481m. Speed=14.652000m/h.</desc>
<speed>4.070000</speed>
</trkpt>
<trkpt lat="55.845928" lon="26.033670">
<ele>158.853638</ele>
<time>2010-07-17T15:05:53Z</time>
<desc>lat.=55.845928, lon.=26.033670, Alt.=158.853638m. Speed=13.500000m/h.</desc>
<speed>3.750000</speed>
</trkpt>
<trkpt lat="55.845901" lon="26.033712">
<ele>159.009888</ele>
<time>2010-07-17T15:05:54Z</time>
<desc>lat.=55.845901, lon.=26.033712, Alt.=159.009888m. Speed=13.104000m/h.</desc>
<speed>3.640000</speed>
</trkpt>
<trkpt lat="55.845875" lon="26.033752">
<ele>159.334106</ele>
<time>2010-07-17T15:05:55Z</time>
<desc>lat.=55.845875, lon.=26.033752, Alt.=159.334106m. Speed=12.384000m/h.</desc>
<speed>3.440000</speed>
</trkpt>
<trkpt lat="55.845852" lon="26.033791">
<ele>159.310669</ele>
<time>2010-07-17T15:05:56Z</time>
<desc>lat.=55.845852, lon.=26.033791, Alt.=159.310669m. Speed=11.304000m/h.</desc>
<speed>3.140000</speed>
</trkpt>
<trkpt lat="55.845833" lon="26.033823">
<ele>159.927856</ele>
<time>2010-07-17T15:05:57Z</time>
<desc>lat.=55.845833, lon.=26.033823, Alt.=159.927856m. Speed=10.296000m/h.</desc>
<speed>2.860000</speed>
</trkpt>
<trkpt lat="55.845810" lon="26.033852">
<ele>159.853638</ele>
<time>2010-07-17T15:05:58Z</time>
<desc>lat.=55.845810, lon.=26.033852, Alt.=159.853638m. Speed=10.584000m/h.</desc>
<speed>2.940000</speed>
</trkpt>
<trkpt lat="55.845791" lon="26.033882">
<ele>160.353638</ele>
<time>2010-07-17T15:05:59Z</time>
<desc>lat.=55.845791, lon.=26.033882, Alt.=160.353638m. Speed=10.080000m/h.</desc>
<speed>2.800000</speed>
</trkpt>
<trkpt lat="55.845776" lon="26.033913">
<ele>160.236450</ele>
<time>2010-07-17T15:06:00Z</time>
<desc>lat.=55.845776, lon.=26.033913, Alt.=160.236450m. Speed=10.152000m/h.</desc>
<speed>2.820000</speed>
</trkpt>
<trkpt lat="55.845757" lon="26.033943">
<ele>161.193481</ele>
<time>2010-07-17T15:06:01Z</time>
<desc>lat.=55.845757, lon.=26.033943, Alt.=161.193481m. Speed=10.836000m/h.</desc>
<speed>3.010000</speed>
</trkpt>
<trkpt lat="55.845734" lon="26.033981">
<ele>161.189575</ele>
<time>2010-07-17T15:06:02Z</time>
<desc>lat.=55.845734, lon.=26.033981, Alt.=161.189575m. Speed=12.564000m/h.</desc>
<speed>3.490000</speed>
</trkpt>
<trkpt lat="55.845711" lon="26.034018">
<ele>161.505981</ele>
<time>2010-07-17T15:06:03Z</time>
<desc>lat.=55.845711, lon.=26.034018, Alt.=161.505981m. Speed=13.500000m/h.</desc>
<speed>3.750000</speed>
</trkpt>
<trkpt lat="55.845684" lon="26.034056">
<ele>161.365356</ele>
<time>2010-07-17T15:06:04Z</time>
<desc>lat.=55.845684, lon.=26.034056, Alt.=161.365356m. Speed=13.788000m/h.</desc>
<speed>3.830000</speed>
</trkpt>
<trkpt lat="55.845657" lon="26.034100">
<ele>161.654419</ele>
<time>2010-07-17T15:06:05Z</time>
<desc>lat.=55.845657, lon.=26.034100, Alt.=161.654419m. Speed=13.212000m/h.</desc>
<speed>3.670000</speed>
</trkpt>
<trkpt lat="55.845634" lon="26.034140">
<ele>161.791138</ele>
<time>2010-07-17T15:06:06Z</time>
<desc>lat.=55.845634, lon.=26.034140, Alt.=161.791138m. Speed=14.364000m/h.</desc>
<speed>3.990000</speed>
</trkpt>
<trkpt lat="55.845604" lon="26.034182">
<ele>162.017700</ele>
<time>2010-07-17T15:06:07Z</time>
<desc>lat.=55.845604, lon.=26.034182, Alt.=162.017700m. Speed=14.832000m/h.</desc>
<speed>4.120000</speed>
</trkpt>
<trkpt lat="55.845577" lon="26.034222">
<ele>162.119263</ele>
<time>2010-07-17T15:06:08Z</time>
<desc>lat.=55.845577, lon.=26.034222, Alt.=162.119263m. Speed=13.644000m/h.</desc>
<speed>3.790000</speed>
</trkpt>
<trkpt lat="55.845551" lon="26.034273">
<ele>162.334106</ele>
<time>2010-07-17T15:06:09Z</time>
<desc>lat.=55.845551, lon.=26.034273, Alt.=162.334106m. Speed=14.652000m/h.</desc>
<speed>4.070000</speed>
</trkpt>
<trkpt lat="55.845528" lon="26.034317">
<ele>162.377075</ele>
<time>2010-07-17T15:06:10Z</time>
<desc>lat.=55.845528, lon.=26.034317, Alt.=162.377075m. Speed=13.536000m/h.</desc>
<speed>3.760000</speed>
</trkpt>
<trkpt lat="55.845501" lon="26.034363">
<ele>162.502075</ele>
<time>2010-07-17T15:06:11Z</time>
<desc>lat.=55.845501, lon.=26.034363, Alt.=162.502075m. Speed=13.896000m/h.</desc>
<speed>3.860000</speed>
</trkpt>
<trkpt lat="55.845474" lon="26.034409">
<ele>162.623169</ele>
<time>2010-07-17T15:06:12Z</time>
<desc>lat.=55.845474, lon.=26.034409, Alt.=162.623169m. Speed=14.868000m/h.</desc>
<speed>4.130000</speed>
</trkpt>
<trkpt lat="55.845448" lon="26.034458">
<ele>162.568481</ele>
<time>2010-07-17T15:06:13Z</time>
<desc>lat.=55.845448, lon.=26.034458, Alt.=162.568481m. Speed=14.940000m/h.</desc>
<speed>4.150000</speed>
</trkpt>
<trkpt lat="55.845421" lon="26.034504">
<ele>162.431763</ele>
<time>2010-07-17T15:06:14Z</time>
<desc>lat.=55.845421, lon.=26.034504, Alt.=162.431763m. Speed=14.652000m/h.</desc>
<speed>4.070000</speed>
</trkpt>
<trkpt lat="55.845394" lon="26.034538">
<ele>162.197388</ele>
<time>2010-07-17T15:06:15Z</time>
<desc>lat.=55.845394, lon.=26.034538, Alt.=162.197388m. Speed=12.240000m/h.</desc>
<speed>3.400000</speed>
</trkpt>
<trkpt lat="55.845371" lon="26.034580">
<ele>162.130981</ele>
<time>2010-07-17T15:06:16Z</time>
<desc>lat.=55.845371, lon.=26.034580, Alt.=162.130981m. Speed=14.796000m/h.</desc>
<speed>4.110000</speed>
</trkpt>
<trkpt lat="55.845337" lon="26.034632">
<ele>162.103638</ele>
<time>2010-07-17T15:06:17Z</time>
<desc>lat.=55.845337, lon.=26.034632, Alt.=162.103638m. Speed=16.775999m/h.</desc>
<speed>4.660000</speed>
</trkpt>
<trkpt lat="55.845306" lon="26.034685">
<ele>161.900513</ele>
<time>2010-07-17T15:06:18Z</time>
<desc>lat.=55.845306, lon.=26.034685, Alt.=161.900513m. Speed=17.856001m/h.</desc>
<speed>4.960000</speed>
</trkpt>
<trkpt lat="55.845272" lon="26.034742">
<ele>161.642700</ele>
<time>2010-07-17T15:06:19Z</time>
<desc>lat.=55.845272, lon.=26.034742, Alt.=161.642700m. Speed=18.323999m/h.</desc>
<speed>5.090000</speed>
</trkpt>
<trkpt lat="55.845242" lon="26.034807">
<ele>161.849731</ele>
<time>2010-07-17T15:06:20Z</time>
<desc>lat.=55.845242, lon.=26.034807, Alt.=161.849731m. Speed=18.576000m/h.</desc>
<speed>5.160000</speed>
</trkpt>
<trkpt lat="55.845207" lon="26.034866">
<ele>161.365356</ele>
<time>2010-07-17T15:06:21Z</time>
<desc>lat.=55.845207, lon.=26.034866, Alt.=161.365356m. Speed=18.827999m/h.</desc>
<speed>5.230000</speed>
</trkpt>
<trkpt lat="55.845169" lon="26.034925">
<ele>161.451294</ele>
<time>2010-07-17T15:06:22Z</time>
<desc>lat.=55.845169, lon.=26.034925, Alt.=161.451294m. Speed=19.044001m/h.</desc>
<speed>5.290000</speed>
</trkpt>
<trkpt lat="55.845139" lon="26.034985">
<ele>161.162231</ele>
<time>2010-07-17T15:06:23Z</time>
<desc>lat.=55.845139, lon.=26.034985, Alt.=161.162231m. Speed=18.756001m/h.</desc>
<speed>5.210000</speed>
</trkpt>
<trkpt lat="55.845100" lon="26.035046">
<ele>161.377075</ele>
<time>2010-07-17T15:06:24Z</time>
<desc>lat.=55.845100, lon.=26.035046, Alt.=161.377075m. Speed=19.403999m/h.</desc>
<speed>5.390000</speed>
</trkpt>
<trkpt lat="55.845066" lon="26.035101">
<ele>160.982544</ele>
<time>2010-07-17T15:06:25Z</time>
<desc>lat.=55.845066, lon.=26.035101, Alt.=160.982544m. Speed=18.431999m/h.</desc>
<speed>5.120000</speed>
</trkpt>
<trkpt lat="55.845028" lon="26.035168">
<ele>159.904419</ele>
<time>2010-07-17T15:06:26Z</time>
<desc>lat.=55.845028, lon.=26.035168, Alt.=159.904419m. Speed=17.747999m/h.</desc>
<speed>4.930000</speed>
</trkpt>
<trkpt lat="55.844994" lon="26.035227">
<ele>159.904419</ele>
<time>2010-07-17T15:06:27Z</time>
<desc>lat.=55.844994, lon.=26.035227, Alt.=159.904419m. Speed=18.180000m/h.</desc>
<speed>5.050000</speed>
</trkpt>
<trkpt lat="55.844959" lon="26.035292">
<ele>159.857544</ele>
<time>2010-07-17T15:06:28Z</time>
<desc>lat.=55.844959, lon.=26.035292, Alt.=159.857544m. Speed=20.087999m/h.</desc>
<speed>5.580000</speed>
</trkpt>
<trkpt lat="55.844921" lon="26.035355">
<ele>159.724731</ele>
<time>2010-07-17T15:06:29Z</time>
<desc>lat.=55.844921, lon.=26.035355, Alt.=159.724731m. Speed=19.260000m/h.</desc>
<speed>5.350000</speed>
</trkpt>
<trkpt lat="55.844887" lon="26.035412">
<ele>159.927856</ele>
<time>2010-07-17T15:06:30Z</time>
<desc>lat.=55.844887, lon.=26.035412, Alt.=159.927856m. Speed=18.864000m/h.</desc>
<speed>5.240000</speed>
</trkpt>
<trkpt lat="55.844849" lon="26.035467">
<ele>159.650513</ele>
<time>2010-07-17T15:06:31Z</time>
<desc>lat.=55.844849, lon.=26.035467, Alt.=159.650513m. Speed=18.648001m/h.</desc>
<speed>5.180000</speed>
</trkpt>
<trkpt lat="55.844814" lon="26.035530">
<ele>159.013794</ele>
<time>2010-07-17T15:06:32Z</time>
<desc>lat.=55.844814, lon.=26.035530, Alt.=159.013794m. Speed=18.323999m/h.</desc>
<speed>5.090000</speed>
</trkpt>
<trkpt lat="55.844780" lon="26.035583">
<ele>158.974731</ele>
<time>2010-07-17T15:06:33Z</time>
<desc>lat.=55.844780, lon.=26.035583, Alt.=158.974731m. Speed=18.612000m/h.</desc>
<speed>5.170000</speed>
</trkpt>
<trkpt lat="55.844742" lon="26.035637">
<ele>158.892700</ele>
<time>2010-07-17T15:06:34Z</time>
<desc>lat.=55.844742, lon.=26.035637, Alt.=158.892700m. Speed=18.504000m/h.</desc>
<speed>5.140000</speed>
</trkpt>
<trkpt lat="55.844707" lon="26.035694">
<ele>158.736450</ele>
<time>2010-07-17T15:06:35Z</time>
<desc>lat.=55.844707, lon.=26.035694, Alt.=158.736450m. Speed=18.288000m/h.</desc>
<speed>5.080000</speed>
</trkpt>
<trkpt lat="55.844669" lon="26.035749">
<ele>158.713013</ele>
<time>2010-07-17T15:06:36Z</time>
<desc>lat.=55.844669, lon.=26.035749, Alt.=158.713013m. Speed=17.820000m/h.</desc>
<speed>4.950000</speed>
</trkpt>
<trkpt lat="55.844635" lon="26.035807">
<ele>158.619263</ele>
<time>2010-07-17T15:06:37Z</time>
<desc>lat.=55.844635, lon.=26.035807, Alt.=158.619263m. Speed=17.604000m/h.</desc>
<speed>4.890000</speed>
</trkpt>
<trkpt lat="55.844604" lon="26.035860">
<ele>158.349731</ele>
<time>2010-07-17T15:06:38Z</time>
<desc>lat.=55.844604, lon.=26.035860, Alt.=158.349731m. Speed=17.496000m/h.</desc>
<speed>4.860000</speed>
</trkpt>
<trkpt lat="55.844574" lon="26.035912">
<ele>157.982544</ele>
<time>2010-07-17T15:06:39Z</time>
<desc>lat.=55.844574, lon.=26.035912, Alt.=157.982544m. Speed=17.496000m/h.</desc>
<speed>4.860000</speed>
</trkpt>
<trkpt lat="55.844536" lon="26.035961">
<ele>157.873169</ele>
<time>2010-07-17T15:06:40Z</time>
<desc>lat.=55.844536, lon.=26.035961, Alt.=157.873169m. Speed=17.280001m/h.</desc>
<speed>4.800000</speed>
</trkpt>
<trkpt lat="55.844501" lon="26.036011">
<ele>157.716919</ele>
<time>2010-07-17T15:06:41Z</time>
<desc>lat.=55.844501, lon.=26.036011, Alt.=157.716919m. Speed=17.892000m/h.</desc>
<speed>4.970000</speed>
</trkpt>
<trkpt lat="55.844471" lon="26.036060">
<ele>157.670044</ele>
<time>2010-07-17T15:06:42Z</time>
<desc>lat.=55.844471, lon.=26.036060, Alt.=157.670044m. Speed=17.459999m/h.</desc>
<speed>4.850000</speed>
</trkpt>
<trkpt lat="55.844440" lon="26.036114">
<ele>157.529419</ele>
<time>2010-07-17T15:06:43Z</time>
<desc>lat.=55.844440, lon.=26.036114, Alt.=157.529419m. Speed=18.936001m/h.</desc>
<speed>5.260000</speed>
</trkpt>
<trkpt lat="55.844406" lon="26.036171">
<ele>157.291138</ele>
<time>2010-07-17T15:06:44Z</time>
<desc>lat.=55.844406, lon.=26.036171, Alt.=157.291138m. Speed=18.323999m/h.</desc>
<speed>5.090000</speed>
</trkpt>
<trkpt lat="55.844372" lon="26.036222">
<ele>157.173950</ele>
<time>2010-07-17T15:06:45Z</time>
<desc>lat.=55.844372, lon.=26.036222, Alt.=157.173950m. Speed=18.612000m/h.</desc>
<speed>5.170000</speed>
</trkpt>
<trkpt lat="55.844334" lon="26.036274">
<ele>157.025513</ele>
<time>2010-07-17T15:06:46Z</time>
<desc>lat.=55.844334, lon.=26.036274, Alt.=157.025513m. Speed=18.180000m/h.</desc>
<speed>5.050000</speed>
</trkpt>
<trkpt lat="55.844299" lon="26.036324">
<ele>156.755981</ele>
<time>2010-07-17T15:06:47Z</time>
<desc>lat.=55.844299, lon.=26.036324, Alt.=156.755981m. Speed=17.964001m/h.</desc>
<speed>4.990000</speed>
</trkpt>
<trkpt lat="55.844265" lon="26.036373">
<ele>156.588013</ele>
<time>2010-07-17T15:06:48Z</time>
<desc>lat.=55.844265, lon.=26.036373, Alt.=156.588013m. Speed=17.712000m/h.</desc>
<speed>4.920000</speed>
</trkpt>
<trkpt lat="55.844234" lon="26.036427">
<ele>156.275513</ele>
<time>2010-07-17T15:06:49Z</time>
<desc>lat.=55.844234, lon.=26.036427, Alt.=156.275513m. Speed=16.379999m/h.</desc>
<speed>4.550000</speed>
</trkpt>
<trkpt lat="55.844200" lon="26.036480">
<ele>156.205200</ele>
<time>2010-07-17T15:06:50Z</time>
<desc>lat.=55.844200, lon.=26.036480, Alt.=156.205200m. Speed=16.955999m/h.</desc>
<speed>4.710000</speed>
</trkpt>
<trkpt lat="55.844166" lon="26.036535">
<ele>156.181763</ele>
<time>2010-07-17T15:06:51Z</time>
<desc>lat.=55.844166, lon.=26.036535, Alt.=156.181763m. Speed=17.676001m/h.</desc>
<speed>4.910000</speed>
</trkpt>
<trkpt lat="55.844131" lon="26.036581">
<ele>156.088013</ele>
<time>2010-07-17T15:06:52Z</time>
<desc>lat.=55.844131, lon.=26.036581, Alt.=156.088013m. Speed=16.596001m/h.</desc>
<speed>4.610000</speed>
</trkpt>
<trkpt lat="55.844109" lon="26.036633">
<ele>155.494263</ele>
<time>2010-07-17T15:06:53Z</time>
<desc>lat.=55.844109, lon.=26.036633, Alt.=155.494263m. Speed=15.804000m/h.</desc>
<speed>4.390000</speed>
</trkpt>
<trkpt lat="55.844078" lon="26.036682">
<ele>155.463013</ele>
<time>2010-07-17T15:06:54Z</time>
<desc>lat.=55.844078, lon.=26.036682, Alt.=155.463013m. Speed=15.624000m/h.</desc>
<speed>4.340000</speed>
</trkpt>
<trkpt lat="55.844051" lon="26.036722">
<ele>155.759888</ele>
<time>2010-07-17T15:06:55Z</time>
<desc>lat.=55.844051, lon.=26.036722, Alt.=155.759888m. Speed=15.336000m/h.</desc>
<speed>4.260000</speed>
</trkpt>
<trkpt lat="55.844025" lon="26.036766">
<ele>155.470825</ele>
<time>2010-07-17T15:06:56Z</time>
<desc>lat.=55.844025, lon.=26.036766, Alt.=155.470825m. Speed=15.408000m/h.</desc>
<speed>4.280000</speed>
</trkpt>
<trkpt lat="55.843994" lon="26.036812">
<ele>155.505981</ele>
<time>2010-07-17T15:06:57Z</time>
<desc>lat.=55.843994, lon.=26.036812, Alt.=155.505981m. Speed=15.696000m/h.</desc>
<speed>4.360000</speed>
</trkpt>
<trkpt lat="55.843960" lon="26.036854">
<ele>156.213013</ele>
<time>2010-07-17T15:06:58Z</time>
<desc>lat.=55.843960, lon.=26.036854, Alt.=156.213013m. Speed=15.516000m/h.</desc>
<speed>4.310000</speed>
</trkpt>
<trkpt lat="55.843929" lon="26.036898">
<ele>156.209106</ele>
<time>2010-07-17T15:06:59Z</time>
<desc>lat.=55.843929, lon.=26.036898, Alt.=156.209106m. Speed=15.336000m/h.</desc>
<speed>4.260000</speed>
</trkpt>
<trkpt lat="55.843899" lon="26.036938">
<ele>156.568481</ele>
<time>2010-07-17T15:07:00Z</time>
<desc>lat.=55.843899, lon.=26.036938, Alt.=156.568481m. Speed=15.048000m/h.</desc>
<speed>4.180000</speed>
</trkpt>
<trkpt lat="55.843868" lon="26.036980">
<ele>156.884888</ele>
<time>2010-07-17T15:07:01Z</time>
<desc>lat.=55.843868, lon.=26.036980, Alt.=156.884888m. Speed=14.868000m/h.</desc>
<speed>4.130000</speed>
</trkpt>
<trkpt lat="55.843842" lon="26.037025">
<ele>157.002075</ele>
<time>2010-07-17T15:07:02Z</time>
<desc>lat.=55.843842, lon.=26.037025, Alt.=157.002075m. Speed=15.228000m/h.</desc>
<speed>4.230000</speed>
</trkpt>
<trkpt lat="55.843807" lon="26.037071">
<ele>157.099731</ele>
<time>2010-07-17T15:07:03Z</time>
<desc>lat.=55.843807, lon.=26.037071, Alt.=157.099731m. Speed=17.280001m/h.</desc>
<speed>4.800000</speed>
</trkpt>
<trkpt lat="55.843777" lon="26.037119">
<ele>157.365356</ele>
<time>2010-07-17T15:07:04Z</time>
<desc>lat.=55.843777, lon.=26.037119, Alt.=157.365356m. Speed=16.200001m/h.</desc>
<speed>4.500000</speed>
</trkpt>
<trkpt lat="55.843746" lon="26.037161">
<ele>157.861450</ele>
<time>2010-07-17T15:07:05Z</time>
<desc>lat.=55.843746, lon.=26.037161, Alt.=157.861450m. Speed=16.452000m/h.</desc>
<speed>4.570000</speed>
</trkpt>
<trkpt lat="55.843716" lon="26.037209">
<ele>158.033325</ele>
<time>2010-07-17T15:07:06Z</time>
<desc>lat.=55.843716, lon.=26.037209, Alt.=158.033325m. Speed=15.516000m/h.</desc>
<speed>4.310000</speed>
</trkpt>
<trkpt lat="55.843685" lon="26.037251">
<ele>158.291138</ele>
<time>2010-07-17T15:07:07Z</time>
<desc>lat.=55.843685, lon.=26.037251, Alt.=158.291138m. Speed=15.984000m/h.</desc>
<speed>4.440000</speed>
</trkpt>
<trkpt lat="55.843658" lon="26.037298">
<ele>158.310669</ele>
<time>2010-07-17T15:07:08Z</time>
<desc>lat.=55.843658, lon.=26.037298, Alt.=158.310669m. Speed=15.660000m/h.</desc>
<speed>4.350000</speed>
</trkpt>
<trkpt lat="55.843628" lon="26.037342">
<ele>158.451294</ele>
<time>2010-07-17T15:07:09Z</time>
<desc>lat.=55.843628, lon.=26.037342, Alt.=158.451294m. Speed=15.372000m/h.</desc>
<speed>4.270000</speed>
</trkpt>
<trkpt lat="55.843594" lon="26.037390">
<ele>158.533325</ele>
<time>2010-07-17T15:07:10Z</time>
<desc>lat.=55.843594, lon.=26.037390, Alt.=158.533325m. Speed=15.336000m/h.</desc>
<speed>4.260000</speed>
</trkpt>
<trkpt lat="55.843555" lon="26.037443">
<ele>158.685669</ele>
<time>2010-07-17T15:07:11Z</time>
<desc>lat.=55.843555, lon.=26.037443, Alt.=158.685669m. Speed=14.688000m/h.</desc>
<speed>4.080000</speed>
</trkpt>
<trkpt lat="55.843533" lon="26.037479">
<ele>159.205200</ele>
<time>2010-07-17T15:07:12Z</time>
<desc>lat.=55.843533, lon.=26.037479, Alt.=159.205200m. Speed=15.048000m/h.</desc>
<speed>4.180000</speed>
</trkpt>
<trkpt lat="55.843510" lon="26.037514">
<ele>159.677856</ele>
<time>2010-07-17T15:07:13Z</time>
<desc>lat.=55.843510, lon.=26.037514, Alt.=159.677856m. Speed=14.868000m/h.</desc>
<speed>4.130000</speed>
</trkpt>
<trkpt lat="55.843479" lon="26.037556">
<ele>159.705200</ele>
<time>2010-07-17T15:07:14Z</time>
<desc>lat.=55.843479, lon.=26.037556, Alt.=159.705200m. Speed=15.048000m/h.</desc>
<speed>4.180000</speed>
</trkpt>
<trkpt lat="55.843452" lon="26.037600">
<ele>159.666138</ele>
<time>2010-07-17T15:07:15Z</time>
<desc>lat.=55.843452, lon.=26.037600, Alt.=159.666138m. Speed=14.868000m/h.</desc>
<speed>4.130000</speed>
</trkpt>
<trkpt lat="55.843430" lon="26.037645">
<ele>159.728638</ele>
<time>2010-07-17T15:07:16Z</time>
<desc>lat.=55.843430, lon.=26.037645, Alt.=159.728638m. Speed=15.480000m/h.</desc>
<speed>4.300000</speed>
</trkpt>
<trkpt lat="55.843399" lon="26.037689">
<ele>159.818481</ele>
<time>2010-07-17T15:07:17Z</time>
<desc>lat.=55.843399, lon.=26.037689, Alt.=159.818481m. Speed=15.840000m/h.</desc>
<speed>4.400000</speed>
</trkpt>
<trkpt lat="55.843369" lon="26.037733">
<ele>158.713013</ele>
<time>2010-07-17T15:07:18Z</time>
<desc>lat.=55.843369, lon.=26.037733, Alt.=158.713013m. Speed=15.516000m/h.</desc>
<speed>4.310000</speed>
</trkpt>
<trkpt lat="55.843338" lon="26.037771">
<ele>158.677856</ele>
<time>2010-07-17T15:07:19Z</time>
<desc>lat.=55.843338, lon.=26.037771, Alt.=158.677856m. Speed=14.472000m/h.</desc>
<speed>4.020000</speed>
</trkpt>
<trkpt lat="55.843307" lon="26.037815">
<ele>158.451294</ele>
<time>2010-07-17T15:07:20Z</time>
<desc>lat.=55.843307, lon.=26.037815, Alt.=158.451294m. Speed=12.924000m/h.</desc>
<speed>3.590000</speed>
</trkpt>
<trkpt lat="55.843281" lon="26.037851">
<ele>158.400513</ele>
<time>2010-07-17T15:07:21Z</time>
<desc>lat.=55.843281, lon.=26.037851, Alt.=158.400513m. Speed=12.564000m/h.</desc>
<speed>3.490000</speed>
</trkpt>
<trkpt lat="55.843262" lon="26.037886">
<ele>157.377075</ele>
<time>2010-07-17T15:07:22Z</time>
<desc>lat.=55.843262, lon.=26.037886, Alt.=157.377075m. Speed=11.592000m/h.</desc>
<speed>3.220000</speed>
</trkpt>
<trkpt lat="55.843239" lon="26.037914">
<ele>157.361450</ele>
<time>2010-07-17T15:07:23Z</time>
<desc>lat.=55.843239, lon.=26.037914, Alt.=157.361450m. Speed=10.944000m/h.</desc>
<speed>3.040000</speed>
</trkpt>
<trkpt lat="55.843212" lon="26.037939">
<ele>157.002075</ele>
<time>2010-07-17T15:07:24Z</time>
<desc>lat.=55.843212, lon.=26.037939, Alt.=157.002075m. Speed=10.440000m/h.</desc>
<speed>2.900000</speed>
</trkpt>
<trkpt lat="55.843189" lon="26.037966">
<ele>156.670044</ele>
<time>2010-07-17T15:07:25Z</time>
<desc>lat.=55.843189, lon.=26.037966, Alt.=156.670044m. Speed=10.692000m/h.</desc>
<speed>2.970000</speed>
</trkpt>
<trkpt lat="55.843170" lon="26.037985">
<ele>156.427856</ele>
<time>2010-07-17T15:07:26Z</time>
<desc>lat.=55.843170, lon.=26.037985, Alt.=156.427856m. Speed=9.072000m/h.</desc>
<speed>2.520000</speed>
</trkpt>
<trkpt lat="55.843151" lon="26.038006">
<ele>156.287231</ele>
<time>2010-07-17T15:07:27Z</time>
<desc>lat.=55.843151, lon.=26.038006, Alt.=156.287231m. Speed=7.596000m/h.</desc>
<speed>2.110000</speed>
</trkpt>
<trkpt lat="55.843143" lon="26.038027">
<ele>156.248169</ele>
<time>2010-07-17T15:07:28Z</time>
<desc>lat.=55.843143, lon.=26.038027, Alt.=156.248169m. Speed=4.608000m/h.</desc>
<speed>1.280000</speed>
</trkpt>
<trkpt lat="55.843140" lon="26.038036">
<ele>156.302856</ele>
<time>2010-07-17T15:07:29Z</time>
<desc>lat.=55.843140, lon.=26.038036, Alt.=156.302856m. Speed=1.188000m/h.</desc>
<speed>0.330000</speed>
</trkpt>
<trkpt lat="55.843140" lon="26.038042">
<ele>156.115356</ele>
<time>2010-07-17T15:07:30Z</time>
<desc>lat.=55.843140, lon.=26.038042, Alt.=156.115356m. Speed=0.756000m/h.</desc>
<speed>0.210000</speed>
</trkpt>
<trkpt lat="55.843136" lon="26.038044">
<ele>156.658325</ele>
<time>2010-07-17T15:07:31Z</time>
<desc>lat.=55.843136, lon.=26.038044, Alt.=156.658325m. Speed=0.504000m/h.</desc>
<speed>0.140000</speed>
</trkpt>
<trkpt lat="55.843132" lon="26.038046">
<ele>156.568481</ele>
<time>2010-07-17T15:07:32Z</time>
<desc>lat.=55.843132, lon.=26.038046, Alt.=156.568481m. Speed=0.036000m/h.</desc>
<speed>0.010000</speed>
</trkpt>
<trkpt lat="55.843132" lon="26.038046">
<ele>156.576294</ele>
<time>2010-07-17T15:07:33Z</time>
<desc>lat.=55.843132, lon.=26.038046, Alt.=156.576294m. Speed=0.036000m/h.</desc>
<speed>0.010000</speed>
</trkpt>
<trkpt lat="55.843132" lon="26.038046">
<ele>156.564575</ele>
<time>2010-07-17T15:07:34Z</time>
<desc>lat.=55.843132, lon.=26.038046, Alt.=156.564575m. Speed=0.180000m/h.</desc>
<speed>0.050000</speed>
</trkpt>
<trkpt lat="55.843132" lon="26.038046">
<ele>156.556763</ele>
<time>2010-07-17T15:07:35Z</time>
<desc>lat.=55.843132, lon.=26.038046, Alt.=156.556763m. Speed=0.288000m/h.</desc>
<speed>0.080000</speed>
</trkpt>
<trkpt lat="55.843132" lon="26.038046">
<ele>156.556763</ele>
<time>2010-07-17T15:07:36Z</time>
<desc>lat.=55.843132, lon.=26.038046, Alt.=156.556763m. Speed=0.000000m/h.</desc>
<speed>0.000000</speed>
</trkpt>
<trkpt lat="55.843132" lon="26.038046">
<ele>156.548950</ele>
<time>2010-07-17T15:07:37Z</time>
<desc>lat.=55.843132, lon.=26.038046, Alt.=156.548950m. Speed=0.036000m/h.</desc>
<speed>0.010000</speed>
</trkpt>
<trkpt lat="55.843132" lon="26.038046">
<ele>156.552856</ele>
<time>2010-07-17T15:07:38Z</time>
<desc>lat.=55.843132, lon.=26.038046, Alt.=156.552856m. Speed=0.000000m/h.</desc>
<speed>0.000000</speed>
</trkpt>
<trkpt lat="55.843132" lon="26.038048">
<ele>156.560669</ele>
<time>2010-07-17T15:07:39Z</time>
<desc>lat.=55.843132, lon.=26.038048, Alt.=156.560669m. Speed=0.036000m/h.</desc>
<speed>0.010000</speed>
</trkpt>
<trkpt lat="55.843132" lon="26.038048">
<ele>156.564575</ele>
<time>2010-07-17T15:07:40Z</time>
<desc>lat.=55.843132, lon.=26.038048, Alt.=156.564575m. Speed=0.000000m/h.</desc>
<speed>0.000000</speed>
</trkpt>
<trkpt lat="55.843132" lon="26.038048">
<ele>156.564575</ele>
<time>2010-07-17T15:07:41Z</time>
<desc>lat.=55.843132, lon.=26.038048, Alt.=156.564575m. Speed=0.000000m/h.</desc>
<speed>0.000000</speed>
</trkpt>
<trkpt lat="55.843132" lon="26.038048">
<ele>156.568481</ele>
<time>2010-07-17T15:07:42Z</time>
<desc>lat.=55.843132, lon.=26.038048, Alt.=156.568481m. Speed=0.036000m/h.</desc>
<speed>0.010000</speed>
</trkpt>
<trkpt lat="55.843132" lon="26.038048">
<ele>156.580200</ele>
<time>2010-07-17T15:07:43Z</time>
<desc>lat.=55.843132, lon.=26.038048, Alt.=156.580200m. Speed=0.000000m/h.</desc>
<speed>0.000000</speed>
</trkpt>
<trkpt lat="55.843132" lon="26.038048">
<ele>156.584106</ele>
<time>2010-07-17T15:07:44Z</time>
<desc>lat.=55.843132, lon.=26.038048, Alt.=156.584106m. Speed=0.108000m/h.</desc>
<speed>0.030000</speed>
</trkpt>
<trkpt lat="55.843132" lon="26.038048">
<ele>156.619263</ele>
<time>2010-07-17T15:07:45Z</time>
<desc>lat.=55.843132, lon.=26.038048, Alt.=156.619263m. Speed=0.072000m/h.</desc>
<speed>0.020000</speed>
</trkpt>
<trkpt lat="55.843132" lon="26.038048">
<ele>156.658325</ele>
<time>2010-07-17T15:07:46Z</time>
<desc>lat.=55.843132, lon.=26.038048, Alt.=156.658325m. Speed=0.108000m/h.</desc>
<speed>0.030000</speed>
</trkpt>
<trkpt lat="55.843132" lon="26.038048">
<ele>156.716919</ele>
<time>2010-07-17T15:07:47Z</time>
<desc>lat.=55.843132, lon.=26.038048, Alt.=156.716919m. Speed=0.000000m/h.</desc>
<speed>0.000000</speed>
</trkpt>
<trkpt lat="55.843132" lon="26.038048">
<ele>156.724731</ele>
<time>2010-07-17T15:07:48Z</time>
<desc>lat.=55.843132, lon.=26.038048, Alt.=156.724731m. Speed=0.000000m/h.</desc>
<speed>0.000000</speed>
</trkpt>
<trkpt lat="55.843132" lon="26.038048">
<ele>156.732544</ele>
<time>2010-07-17T15:07:49Z</time>
<desc>lat.=55.843132, lon.=26.038048, Alt.=156.732544m. Speed=0.036000m/h.</desc>
<speed>0.010000</speed>
</trkpt>
<trkpt lat="55.843132" lon="26.038048">
<ele>156.748169</ele>
<time>2010-07-17T15:07:50Z</time>
<desc>lat.=55.843132, lon.=26.038048, Alt.=156.748169m. Speed=0.000000m/h.</desc>
<speed>0.000000</speed>
</trkpt>
<trkpt lat="55.843132" lon="26.038048">
<ele>156.744263</ele>
<time>2010-07-17T15:07:51Z</time>
<desc>lat.=55.843132, lon.=26.038048, Alt.=156.744263m. Speed=0.036000m/h.</desc>
<speed>0.010000</speed>
</trkpt>
<trkpt lat="55.843132" lon="26.038048">
<ele>156.740356</ele>
<time>2010-07-17T15:07:52Z</time>
<desc>lat.=55.843132, lon.=26.038048, Alt.=156.740356m. Speed=0.144000m/h.</desc>
<speed>0.040000</speed>
</trkpt>
<trkpt lat="55.843132" lon="26.038048">
<ele>156.732544</ele>
<time>2010-07-17T15:07:53Z</time>
<desc>lat.=55.843132, lon.=26.038048, Alt.=156.732544m. Speed=0.072000m/h.</desc>
<speed>0.020000</speed>
</trkpt>
<trkpt lat="55.843132" lon="26.038048">
<ele>156.736450</ele>
<time>2010-07-17T15:07:54Z</time>
<desc>lat.=55.843132, lon.=26.038048, Alt.=156.736450m. Speed=0.000000m/h.</desc>
<speed>0.000000</speed>
</trkpt>
<trkpt lat="55.843132" lon="26.038048">
<ele>156.728638</ele>
<time>2010-07-17T15:07:55Z</time>
<desc>lat.=55.843132, lon.=26.038048, Alt.=156.728638m. Speed=0.036000m/h.</desc>
<speed>0.010000</speed>
</trkpt>
<trkpt lat="55.843132" lon="26.038048">
<ele>156.736450</ele>
<time>2010-07-17T15:07:56Z</time>
<desc>lat.=55.843132, lon.=26.038048, Alt.=156.736450m. Speed=0.036000m/h.</desc>
<speed>0.010000</speed>
</trkpt>
<trkpt lat="55.843132" lon="26.038048">
<ele>156.736450</ele>
<time>2010-07-17T15:07:57Z</time>
<desc>lat.=55.843132, lon.=26.038048, Alt.=156.736450m. Speed=0.036000m/h.</desc>
<speed>0.010000</speed>
</trkpt>
<trkpt lat="55.843132" lon="26.038048">
<ele>156.740356</ele>
<time>2010-07-17T15:07:58Z</time>
<desc>lat.=55.843132, lon.=26.038048, Alt.=156.740356m. Speed=0.036000m/h.</desc>
<speed>0.010000</speed>
</trkpt>
<trkpt lat="55.843132" lon="26.038048">
<ele>156.759888</ele>
<time>2010-07-17T15:07:59Z</time>
<desc>lat.=55.843132, lon.=26.038048, Alt.=156.759888m. Speed=0.036000m/h.</desc>
<speed>0.010000</speed>
</trkpt>
<trkpt lat="55.843132" lon="26.038048">
<ele>156.787231</ele>
<time>2010-07-17T15:08:00Z</time>
<desc>lat.=55.843132, lon.=26.038048, Alt.=156.787231m. Speed=0.000000m/h.</desc>
<speed>0.000000</speed>
</trkpt>
<trkpt lat="55.843132" lon="26.038048">
<ele>156.818481</ele>
<time>2010-07-17T15:08:01Z</time>
<desc>lat.=55.843132, lon.=26.038048, Alt.=156.818481m. Speed=0.072000m/h.</desc>
<speed>0.020000</speed>
</trkpt>
<trkpt lat="55.843132" lon="26.038048">
<ele>156.845825</ele>
<time>2010-07-17T15:08:02Z</time>
<desc>lat.=55.843132, lon.=26.038048, Alt.=156.845825m. Speed=0.036000m/h.</desc>
<speed>0.010000</speed>
</trkpt>
<trkpt lat="55.843132" lon="26.038048">
<ele>156.877075</ele>
<time>2010-07-17T15:08:03Z</time>
<desc>lat.=55.843132, lon.=26.038048, Alt.=156.877075m. Speed=0.072000m/h.</desc>
<speed>0.020000</speed>
</trkpt>
<trkpt lat="55.843132" lon="26.038048">
<ele>156.904419</ele>
<time>2010-07-17T15:08:04Z</time>
<desc>lat.=55.843132, lon.=26.038048, Alt.=156.904419m. Speed=0.036000m/h.</desc>
<speed>0.010000</speed>
</trkpt>
<trkpt lat="55.843132" lon="26.038048">
<ele>156.912231</ele>
<time>2010-07-17T15:08:05Z</time>
<desc>lat.=55.843132, lon.=26.038048, Alt.=156.912231m. Speed=0.216000m/h.</desc>
<speed>0.060000</speed>
</trkpt>
<trkpt lat="55.843132" lon="26.038048">
<ele>156.935669</ele>
<time>2010-07-17T15:08:06Z</time>
<desc>lat.=55.843132, lon.=26.038048, Alt.=156.935669m. Speed=0.468000m/h.</desc>
<speed>0.130000</speed>
</trkpt>
<trkpt lat="55.843132" lon="26.038048">
<ele>156.935669</ele>
<time>2010-07-17T15:08:07Z</time>
<desc>lat.=55.843132, lon.=26.038048, Alt.=156.935669m. Speed=0.324000m/h.</desc>
<speed>0.090000</speed>
</trkpt>
<trkpt lat="55.843128" lon="26.038048">
<ele>156.935669</ele>
<time>2010-07-17T15:08:08Z</time>
<desc>lat.=55.843128, lon.=26.038048, Alt.=156.935669m. Speed=0.144000m/h.</desc>
<speed>0.040000</speed>
</trkpt>
<trkpt lat="55.843128" lon="26.038048">
<ele>156.939575</ele>
<time>2010-07-17T15:08:09Z</time>
<desc>lat.=55.843128, lon.=26.038048, Alt.=156.939575m. Speed=0.324000m/h.</desc>
<speed>0.090000</speed>
</trkpt>
<trkpt lat="55.843128" lon="26.038050">
<ele>156.939575</ele>
<time>2010-07-17T15:08:10Z</time>
<desc>lat.=55.843128, lon.=26.038050, Alt.=156.939575m. Speed=0.720000m/h.</desc>
<speed>0.200000</speed>
</trkpt>
<trkpt lat="55.843132" lon="26.038052">
<ele>156.935669</ele>
<time>2010-07-17T15:08:11Z</time>
<desc>lat.=55.843132, lon.=26.038052, Alt.=156.935669m. Speed=2.484000m/h.</desc>
<speed>0.690000</speed>
</trkpt>
<trkpt lat="55.843136" lon="26.038059">
<ele>156.896606</ele>
<time>2010-07-17T15:08:12Z</time>
<desc>lat.=55.843136, lon.=26.038059, Alt.=156.896606m. Speed=3.744000m/h.</desc>
<speed>1.040000</speed>
</trkpt>
<trkpt lat="55.843147" lon="26.038073">
<ele>156.724731</ele>
<time>2010-07-17T15:08:13Z</time>
<desc>lat.=55.843147, lon.=26.038073, Alt.=156.724731m. Speed=6.336000m/h.</desc>
<speed>1.760000</speed>
</trkpt>
<trkpt lat="55.843166" lon="26.038113">
<ele>156.916138</ele>
<time>2010-07-17T15:08:14Z</time>
<desc>lat.=55.843166, lon.=26.038113, Alt.=156.916138m. Speed=13.248000m/h.</desc>
<speed>3.680000</speed>
</trkpt>
<trkpt lat="55.843189" lon="26.038158">
<ele>156.654419</ele>
<time>2010-07-17T15:08:15Z</time>
<desc>lat.=55.843189, lon.=26.038158, Alt.=156.654419m. Speed=14.364000m/h.</desc>
<speed>3.990000</speed>
</trkpt>
<trkpt lat="55.843212" lon="26.038216">
<ele>156.490356</ele>
<time>2010-07-17T15:08:16Z</time>
<desc>lat.=55.843212, lon.=26.038216, Alt.=156.490356m. Speed=15.444000m/h.</desc>
<speed>4.290000</speed>
</trkpt>
<trkpt lat="55.843231" lon="26.038277">
<ele>156.521606</ele>
<time>2010-07-17T15:08:17Z</time>
<desc>lat.=55.843231, lon.=26.038277, Alt.=156.521606m. Speed=14.436000m/h.</desc>
<speed>4.010000</speed>
</trkpt>
<trkpt lat="55.843239" lon="26.038330">
<ele>156.427856</ele>
<time>2010-07-17T15:08:18Z</time>
<desc>lat.=55.843239, lon.=26.038330, Alt.=156.427856m. Speed=11.232000m/h.</desc>
<speed>3.120000</speed>
</trkpt>
<trkpt lat="55.843246" lon="26.038385">
<ele>156.341919</ele>
<time>2010-07-17T15:08:19Z</time>
<desc>lat.=55.843246, lon.=26.038385, Alt.=156.341919m. Speed=11.916000m/h.</desc>
<speed>3.310000</speed>
</trkpt>
<trkpt lat="55.843254" lon="26.038443">
<ele>156.173950</ele>
<time>2010-07-17T15:08:20Z</time>
<desc>lat.=55.843254, lon.=26.038443, Alt.=156.173950m. Speed=12.240000m/h.</desc>
<speed>3.400000</speed>
</trkpt>
<trkpt lat="55.843262" lon="26.038504">
<ele>156.123169</ele>
<time>2010-07-17T15:08:21Z</time>
<desc>lat.=55.843262, lon.=26.038504, Alt.=156.123169m. Speed=11.700000m/h.</desc>
<speed>3.250000</speed>
</trkpt>
<trkpt lat="55.843269" lon="26.038551">
<ele>155.920044</ele>
<time>2010-07-17T15:08:22Z</time>
<desc>lat.=55.843269, lon.=26.038551, Alt.=155.920044m. Speed=8.964000m/h.</desc>
<speed>2.490000</speed>
</trkpt>
<trkpt lat="55.843269" lon="26.038591">
<ele>155.853638</ele>
<time>2010-07-17T15:08:23Z</time>
<desc>lat.=55.843269, lon.=26.038591, Alt.=155.853638m. Speed=8.820000m/h.</desc>
<speed>2.450000</speed>
</trkpt>
<trkpt lat="55.843269" lon="26.038633">
<ele>155.880981</ele>
<time>2010-07-17T15:08:24Z</time>
<desc>lat.=55.843269, lon.=26.038633, Alt.=155.880981m. Speed=8.136000m/h.</desc>
<speed>2.260000</speed>
</trkpt>
<trkpt lat="55.843273" lon="26.038671">
<ele>155.857544</ele>
<time>2010-07-17T15:08:25Z</time>
<desc>lat.=55.843273, lon.=26.038671, Alt.=155.857544m. Speed=7.560000m/h.</desc>
<speed>2.100000</speed>
</trkpt>
<trkpt lat="55.843277" lon="26.038700">
<ele>155.838013</ele>
<time>2010-07-17T15:08:26Z</time>
<desc>lat.=55.843277, lon.=26.038700, Alt.=155.838013m. Speed=7.308000m/h.</desc>
<speed>2.030000</speed>
</trkpt>
<trkpt lat="55.843285" lon="26.038734">
<ele>155.998169</ele>
<time>2010-07-17T15:08:27Z</time>
<desc>lat.=55.843285, lon.=26.038734, Alt.=155.998169m. Speed=6.876000m/h.</desc>
<speed>1.910000</speed>
</trkpt>
<trkpt lat="55.843285" lon="26.038761">
<ele>155.920044</ele>
<time>2010-07-17T15:08:28Z</time>
<desc>lat.=55.843285, lon.=26.038761, Alt.=155.920044m. Speed=4.644000m/h.</desc>
<speed>1.290000</speed>
</trkpt>
<trkpt lat="55.843285" lon="26.038776">
<ele>155.795044</ele>
<time>2010-07-17T15:08:29Z</time>
<desc>lat.=55.843285, lon.=26.038776, Alt.=155.795044m. Speed=1.440000m/h.</desc>
<speed>0.400000</speed>
</trkpt>
<trkpt lat="55.843285" lon="26.038778">
<ele>155.673950</ele>
<time>2010-07-17T15:08:30Z</time>
<desc>lat.=55.843285, lon.=26.038778, Alt.=155.673950m. Speed=0.180000m/h.</desc>
<speed>0.050000</speed>
</trkpt>
<trkpt lat="55.843285" lon="26.038780">
<ele>155.763794</ele>
<time>2010-07-17T15:08:31Z</time>
<desc>lat.=55.843285, lon.=26.038780, Alt.=155.763794m. Speed=0.216000m/h.</desc>
<speed>0.060000</speed>
</trkpt>
<trkpt lat="55.843288" lon="26.038780">
<ele>155.795044</ele>
<time>2010-07-17T15:08:32Z</time>
<desc>lat.=55.843288, lon.=26.038780, Alt.=155.795044m. Speed=0.396000m/h.</desc>
<speed>0.110000</speed>
</trkpt>
<trkpt lat="55.843285" lon="26.038782">
<ele>155.771606</ele>
<time>2010-07-17T15:08:33Z</time>
<desc>lat.=55.843285, lon.=26.038782, Alt.=155.771606m. Speed=0.396000m/h.</desc>
<speed>0.110000</speed>
</trkpt>
<trkpt lat="55.843285" lon="26.038784">
<ele>155.736450</ele>
<time>2010-07-17T15:08:34Z</time>
<desc>lat.=55.843285, lon.=26.038784, Alt.=155.736450m. Speed=0.144000m/h.</desc>
<speed>0.040000</speed>
</trkpt>
<trkpt lat="55.843285" lon="26.038784">
<ele>155.720825</ele>
<time>2010-07-17T15:08:35Z</time>
<desc>lat.=55.843285, lon.=26.038784, Alt.=155.720825m. Speed=0.144000m/h.</desc>
<speed>0.040000</speed>
</trkpt>
<trkpt lat="55.843285" lon="26.038784">
<ele>155.701294</ele>
<time>2010-07-17T15:08:36Z</time>
<desc>lat.=55.843285, lon.=26.038784, Alt.=155.701294m. Speed=0.108000m/h.</desc>
<speed>0.030000</speed>
</trkpt>
<trkpt lat="55.843285" lon="26.038786">
<ele>155.689575</ele>
<time>2010-07-17T15:08:37Z</time>
<desc>lat.=55.843285, lon.=26.038786, Alt.=155.689575m. Speed=0.072000m/h.</desc>
<speed>0.020000</speed>
</trkpt>
<trkpt lat="55.843288" lon="26.038786">
<ele>155.681763</ele>
<time>2010-07-17T15:08:38Z</time>
<desc>lat.=55.843288, lon.=26.038786, Alt.=155.681763m. Speed=0.036000m/h.</desc>
<speed>0.010000</speed>
</trkpt>
<trkpt lat="55.843288" lon="26.038786">
<ele>155.677856</ele>
<time>2010-07-17T15:08:39Z</time>
<desc>lat.=55.843288, lon.=26.038786, Alt.=155.677856m. Speed=0.144000m/h.</desc>
<speed>0.040000</speed>
</trkpt>
<trkpt lat="55.843285" lon="26.038784">
<ele>155.681763</ele>
<time>2010-07-17T15:08:40Z</time>
<desc>lat.=55.843285, lon.=26.038784, Alt.=155.681763m. Speed=0.108000m/h.</desc>
<speed>0.030000</speed>
</trkpt>
<trkpt lat="55.843285" lon="26.038786">
<ele>155.681763</ele>
<time>2010-07-17T15:08:41Z</time>
<desc>lat.=55.843285, lon.=26.038786, Alt.=155.681763m. Speed=0.072000m/h.</desc>
<speed>0.020000</speed>
</trkpt>
<trkpt lat="55.843285" lon="26.038786">
<ele>155.685669</ele>
<time>2010-07-17T15:08:42Z</time>
<desc>lat.=55.843285, lon.=26.038786, Alt.=155.685669m. Speed=0.072000m/h.</desc>
<speed>0.020000</speed>
</trkpt>
<trkpt lat="55.843285" lon="26.038786">
<ele>155.689575</ele>
<time>2010-07-17T15:08:43Z</time>
<desc>lat.=55.843285, lon.=26.038786, Alt.=155.689575m. Speed=0.072000m/h.</desc>
<speed>0.020000</speed>
</trkpt>
<trkpt lat="55.843285" lon="26.038786">
<ele>155.693481</ele>
<time>2010-07-17T15:08:44Z</time>
<desc>lat.=55.843285, lon.=26.038786, Alt.=155.693481m. Speed=0.180000m/h.</desc>
<speed>0.050000</speed>
</trkpt>
<trkpt lat="55.843288" lon="26.038786">
<ele>155.697388</ele>
<time>2010-07-17T15:08:45Z</time>
<desc>lat.=55.843288, lon.=26.038786, Alt.=155.697388m. Speed=0.108000m/h.</desc>
<speed>0.030000</speed>
</trkpt>
<trkpt lat="55.843288" lon="26.038786">
<ele>155.701294</ele>
<time>2010-07-17T15:08:46Z</time>
<desc>lat.=55.843288, lon.=26.038786, Alt.=155.701294m. Speed=0.216000m/h.</desc>
<speed>0.060000</speed>
</trkpt>
<trkpt lat="55.843288" lon="26.038786">
<ele>155.697388</ele>
<time>2010-07-17T15:08:47Z</time>
<desc>lat.=55.843288, lon.=26.038786, Alt.=155.697388m. Speed=0.072000m/h.</desc>
<speed>0.020000</speed>
</trkpt>
<trkpt lat="55.843288" lon="26.038786">
<ele>155.697388</ele>
<time>2010-07-17T15:08:48Z</time>
<desc>lat.=55.843288, lon.=26.038786, Alt.=155.697388m. Speed=0.144000m/h.</desc>
<speed>0.040000</speed>
</trkpt>
<trkpt lat="55.843288" lon="26.038788">
<ele>155.693481</ele>
<time>2010-07-17T15:08:49Z</time>
<desc>lat.=55.843288, lon.=26.038788, Alt.=155.693481m. Speed=0.144000m/h.</desc>
<speed>0.040000</speed>
</trkpt>
<trkpt lat="55.843288" lon="26.038788">
<ele>155.689575</ele>
<time>2010-07-17T15:08:50Z</time>
<desc>lat.=55.843288, lon.=26.038788, Alt.=155.689575m. Speed=0.072000m/h.</desc>
<speed>0.020000</speed>
</trkpt>
<trkpt lat="55.843288" lon="26.038788">
<ele>155.681763</ele>
<time>2010-07-17T15:08:51Z</time>
<desc>lat.=55.843288, lon.=26.038788, Alt.=155.681763m. Speed=0.000000m/h.</desc>
<speed>0.000000</speed>
</trkpt>
<trkpt lat="55.843288" lon="26.038788">
<ele>155.677856</ele>
<time>2010-07-17T15:08:52Z</time>
<desc>lat.=55.843288, lon.=26.038788, Alt.=155.677856m. Speed=0.000000m/h.</desc>
<speed>0.000000</speed>
</trkpt>
<trkpt lat="55.843288" lon="26.038788">
<ele>155.677856</ele>
<time>2010-07-17T15:08:53Z</time>
<desc>lat.=55.843288, lon.=26.038788, Alt.=155.677856m. Speed=0.000000m/h.</desc>
<speed>0.000000</speed>
</trkpt>
<trkpt lat="55.843288" lon="26.038788">
<ele>155.673950</ele>
<time>2010-07-17T15:08:54Z</time>
<desc>lat.=55.843288, lon.=26.038788, Alt.=155.673950m. Speed=0.216000m/h.</desc>
<speed>0.060000</speed>
</trkpt>
<trkpt lat="55.843288" lon="26.038788">
<ele>155.666138</ele>
<time>2010-07-17T15:08:55Z</time>
<desc>lat.=55.843288, lon.=26.038788, Alt.=155.666138m. Speed=0.036000m/h.</desc>
<speed>0.010000</speed>
</trkpt>
<trkpt lat="55.843288" lon="26.038788">
<ele>155.666138</ele>
<time>2010-07-17T15:08:56Z</time>
<desc>lat.=55.843288, lon.=26.038788, Alt.=155.666138m. Speed=0.036000m/h.</desc>
<speed>0.010000</speed>
</trkpt>
<trkpt lat="55.843288" lon="26.038788">
<ele>155.666138</ele>
<time>2010-07-17T15:08:57Z</time>
<desc>lat.=55.843288, lon.=26.038788, Alt.=155.666138m. Speed=0.000000m/h.</desc>
<speed>0.000000</speed>
</trkpt>
<trkpt lat="55.843288" lon="26.038788">
<ele>155.654419</ele>
<time>2010-07-17T15:08:58Z</time>
<desc>lat.=55.843288, lon.=26.038788, Alt.=155.654419m. Speed=0.036000m/h.</desc>
<speed>0.010000</speed>
</trkpt>
<trkpt lat="55.843288" lon="26.038788">
<ele>155.642700</ele>
<time>2010-07-17T15:08:59Z</time>
<desc>lat.=55.843288, lon.=26.038788, Alt.=155.642700m. Speed=0.180000m/h.</desc>
<speed>0.050000</speed>
</trkpt>
<trkpt lat="55.843288" lon="26.038788">
<ele>155.634888</ele>
<time>2010-07-17T15:09:00Z</time>
<desc>lat.=55.843288, lon.=26.038788, Alt.=155.634888m. Speed=0.072000m/h.</desc>
<speed>0.020000</speed>
</trkpt>
<trkpt lat="55.843288" lon="26.038788">
<ele>155.630981</ele>
<time>2010-07-17T15:09:01Z</time>
<desc>lat.=55.843288, lon.=26.038788, Alt.=155.630981m. Speed=0.144000m/h.</desc>
<speed>0.040000</speed>
</trkpt>
<trkpt lat="55.843288" lon="26.038788">
<ele>155.627075</ele>
<time>2010-07-17T15:09:02Z</time>
<desc>lat.=55.843288, lon.=26.038788, Alt.=155.627075m. Speed=0.180000m/h.</desc>
<speed>0.050000</speed>
</trkpt>
<trkpt lat="55.843288" lon="26.038788">
<ele>155.627075</ele>
<time>2010-07-17T15:09:03Z</time>
<desc>lat.=55.843288, lon.=26.038788, Alt.=155.627075m. Speed=0.036000m/h.</desc>
<speed>0.010000</speed>
</trkpt>
<trkpt lat="55.843288" lon="26.038788">
<ele>155.627075</ele>
<time>2010-07-17T15:09:04Z</time>
<desc>lat.=55.843288, lon.=26.038788, Alt.=155.627075m. Speed=0.036000m/h.</desc>
<speed>0.010000</speed>
</trkpt>
<trkpt lat="55.843288" lon="26.038788">
<ele>155.627075</ele>
<time>2010-07-17T15:09:05Z</time>
<desc>lat.=55.843288, lon.=26.038788, Alt.=155.627075m. Speed=0.072000m/h.</desc>
<speed>0.020000</speed>
</trkpt>
<trkpt lat="55.843288" lon="26.038788">
<ele>155.627075</ele>
<time>2010-07-17T15:09:06Z</time>
<desc>lat.=55.843288, lon.=26.038788, Alt.=155.627075m. Speed=0.000000m/h.</desc>
<speed>0.000000</speed>
</trkpt>
<trkpt lat="55.843288" lon="26.038788">
<ele>155.627075</ele>
<time>2010-07-17T15:09:07Z</time>
<desc>lat.=55.843288, lon.=26.038788, Alt.=155.627075m. Speed=0.828000m/h.</desc>
<speed>0.230000</speed>
</trkpt>
<trkpt lat="55.843288" lon="26.038788">
<ele>155.627075</ele>
<time>2010-07-17T15:09:08Z</time>
<desc>lat.=55.843288, lon.=26.038788, Alt.=155.627075m. Speed=0.144000m/h.</desc>
<speed>0.040000</speed>
</trkpt>
<trkpt lat="55.843288" lon="26.038788">
<ele>155.627075</ele>
<time>2010-07-17T15:09:09Z</time>
<desc>lat.=55.843288, lon.=26.038788, Alt.=155.627075m. Speed=0.000000m/h.</desc>
<speed>0.000000</speed>
</trkpt>
<trkpt lat="55.843288" lon="26.038788">
<ele>155.627075</ele>
<time>2010-07-17T15:09:10Z</time>
<desc>lat.=55.843288, lon.=26.038788, Alt.=155.627075m. Speed=0.000000m/h.</desc>
<speed>0.000000</speed>
</trkpt>
<trkpt lat="55.843288" lon="26.038788">
<ele>155.630981</ele>
<time>2010-07-17T15:09:11Z</time>
<desc>lat.=55.843288, lon.=26.038788, Alt.=155.630981m. Speed=0.180000m/h.</desc>
<speed>0.050000</speed>
</trkpt>
<trkpt lat="55.843288" lon="26.038788">
<ele>155.630981</ele>
<time>2010-07-17T15:09:12Z</time>
<desc>lat.=55.843288, lon.=26.038788, Alt.=155.630981m. Speed=0.000000m/h.</desc>
<speed>0.000000</speed>
</trkpt>
<trkpt lat="55.843288" lon="26.038788">
<ele>155.630981</ele>
<time>2010-07-17T15:09:13Z</time>
<desc>lat.=55.843288, lon.=26.038788, Alt.=155.630981m. Speed=0.036000m/h.</desc>
<speed>0.010000</speed>
</trkpt>
<trkpt lat="55.843288" lon="26.038788">
<ele>155.630981</ele>
<time>2010-07-17T15:09:14Z</time>
<desc>lat.=55.843288, lon.=26.038788, Alt.=155.630981m. Speed=0.000000m/h.</desc>
<speed>0.000000</speed>
</trkpt>
<trkpt lat="55.843288" lon="26.038788">
<ele>155.627075</ele>
<time>2010-07-17T15:09:15Z</time>
<desc>lat.=55.843288, lon.=26.038788, Alt.=155.627075m. Speed=0.000000m/h.</desc>
<speed>0.000000</speed>
</trkpt>
<trkpt lat="55.843288" lon="26.038788">
<ele>155.627075</ele>
<time>2010-07-17T15:09:16Z</time>
<desc>lat.=55.843288, lon.=26.038788, Alt.=155.627075m. Speed=0.036000m/h.</desc>
<speed>0.010000</speed>
</trkpt>
<trkpt lat="55.843288" lon="26.038788">
<ele>155.627075</ele>
<time>2010-07-17T15:09:17Z</time>
<desc>lat.=55.843288, lon.=26.038788, Alt.=155.627075m. Speed=0.000000m/h.</desc>
<speed>0.000000</speed>
</trkpt>
<trkpt lat="55.843288" lon="26.038788">
<ele>155.627075</ele>
<time>2010-07-17T15:09:18Z</time>
<desc>lat.=55.843288, lon.=26.038788, Alt.=155.627075m. Speed=0.036000m/h.</desc>
<speed>0.010000</speed>
</trkpt>
<trkpt lat="55.843288" lon="26.038788">
<ele>155.627075</ele>
<time>2010-07-17T15:09:19Z</time>
<desc>lat.=55.843288, lon.=26.038788, Alt.=155.627075m. Speed=0.072000m/h.</desc>
<speed>0.020000</speed>
</trkpt>
<trkpt lat="55.843288" lon="26.038788">
<ele>155.627075</ele>
<time>2010-07-17T15:09:20Z</time>
<desc>lat.=55.843288, lon.=26.038788, Alt.=155.627075m. Speed=0.036000m/h.</desc>
<speed>0.010000</speed>
</trkpt>
<trkpt lat="55.843288" lon="26.038788">
<ele>155.627075</ele>
<time>2010-07-17T15:09:21Z</time>
<desc>lat.=55.843288, lon.=26.038788, Alt.=155.627075m. Speed=0.000000m/h.</desc>
<speed>0.000000</speed>
</trkpt>
<trkpt lat="55.843288" lon="26.038788">
<ele>155.627075</ele>
<time>2010-07-17T15:09:22Z</time>
<desc>lat.=55.843288, lon.=26.038788, Alt.=155.627075m. Speed=0.072000m/h.</desc>
<speed>0.020000</speed>
</trkpt>
<trkpt lat="55.843288" lon="26.038788">
<ele>155.623169</ele>
<time>2010-07-17T15:09:23Z</time>
<desc>lat.=55.843288, lon.=26.038788, Alt.=155.623169m. Speed=0.036000m/h.</desc>
<speed>0.010000</speed>
</trkpt>
<trkpt lat="55.843288" lon="26.038788">
<ele>155.623169</ele>
<time>2010-07-17T15:09:24Z</time>
<desc>lat.=55.843288, lon.=26.038788, Alt.=155.623169m. Speed=0.036000m/h.</desc>
<speed>0.010000</speed>
</trkpt>
<trkpt lat="55.843288" lon="26.038788">
<ele>155.627075</ele>
<time>2010-07-17T15:09:25Z</time>
<desc>lat.=55.843288, lon.=26.038788, Alt.=155.627075m. Speed=0.000000m/h.</desc>
<speed>0.000000</speed>
</trkpt>
<trkpt lat="55.843288" lon="26.038788">
<ele>155.627075</ele>
<time>2010-07-17T15:09:26Z</time>
<desc>lat.=55.843288, lon.=26.038788, Alt.=155.627075m. Speed=0.036000m/h.</desc>
<speed>0.010000</speed>
</trkpt>
<trkpt lat="55.843288" lon="26.038790">
<ele>155.627075</ele>
<time>2010-07-17T15:09:27Z</time>
<desc>lat.=55.843288, lon.=26.038790, Alt.=155.627075m. Speed=0.036000m/h.</desc>
<speed>0.010000</speed>
</trkpt>
<trkpt lat="55.843288" lon="26.038790">
<ele>155.627075</ele>
<time>2010-07-17T15:09:28Z</time>
<desc>lat.=55.843288, lon.=26.038790, Alt.=155.627075m. Speed=0.036000m/h.</desc>
<speed>0.010000</speed>
</trkpt>
<trkpt lat="55.843288" lon="26.038790">
<ele>155.627075</ele>
<time>2010-07-17T15:09:29Z</time>
<desc>lat.=55.843288, lon.=26.038790, Alt.=155.627075m. Speed=0.036000m/h.</desc>
<speed>0.010000</speed>
</trkpt>
<trkpt lat="55.843288" lon="26.038790">
<ele>155.627075</ele>
<time>2010-07-17T15:09:30Z</time>
<desc>lat.=55.843288, lon.=26.038790, Alt.=155.627075m. Speed=0.000000m/h.</desc>
<speed>0.000000</speed>
</trkpt>
<trkpt lat="55.843288" lon="26.038790">
<ele>155.630981</ele>
<time>2010-07-17T15:09:31Z</time>
<desc>lat.=55.843288, lon.=26.038790, Alt.=155.630981m. Speed=0.036000m/h.</desc>
<speed>0.010000</speed>
</trkpt>
<trkpt lat="55.843288" lon="26.038790">
<ele>155.634888</ele>
<time>2010-07-17T15:09:32Z</time>
<desc>lat.=55.843288, lon.=26.038790, Alt.=155.634888m. Speed=0.000000m/h.</desc>
<speed>0.000000</speed>
</trkpt>
<trkpt lat="55.843288" lon="26.038790">
<ele>155.630981</ele>
<time>2010-07-17T15:09:33Z</time>
<desc>lat.=55.843288, lon.=26.038790, Alt.=155.630981m. Speed=0.000000m/h.</desc>
<speed>0.000000</speed>
</trkpt>
<trkpt lat="55.843288" lon="26.038790">
<ele>155.634888</ele>
<time>2010-07-17T15:09:34Z</time>
<desc>lat.=55.843288, lon.=26.038790, Alt.=155.634888m. Speed=0.000000m/h.</desc>
<speed>0.000000</speed>
</trkpt>
<trkpt lat="55.843288" lon="26.038790">
<ele>155.634888</ele>
<time>2010-07-17T15:09:35Z</time>
<desc>lat.=55.843288, lon.=26.038790, Alt.=155.634888m. Speed=0.000000m/h.</desc>
<speed>0.000000</speed>
</trkpt>
<trkpt lat="55.843288" lon="26.038790">
<ele>155.634888</ele>
<time>2010-07-17T15:09:36Z</time>
<desc>lat.=55.843288, lon.=26.038790, Alt.=155.634888m. Speed=0.000000m/h.</desc>
<speed>0.000000</speed>
</trkpt>
<trkpt lat="55.843288" lon="26.038790">
<ele>155.634888</ele>
<time>2010-07-17T15:09:37Z</time>
<desc>lat.=55.843288, lon.=26.038790, Alt.=155.634888m. Speed=0.000000m/h.</desc>
<speed>0.000000</speed>
</trkpt>
<trkpt lat="55.843288" lon="26.038790">
<ele>155.634888</ele>
<time>2010-07-17T15:09:38Z</time>
<desc>lat.=55.843288, lon.=26.038790, Alt.=155.634888m. Speed=0.036000m/h.</desc>
<speed>0.010000</speed>
</trkpt>
<trkpt lat="55.843288" lon="26.038790">
<ele>155.634888</ele>
<time>2010-07-17T15:09:39Z</time>
<desc>lat.=55.843288, lon.=26.038790, Alt.=155.634888m. Speed=0.000000m/h.</desc>
<speed>0.000000</speed>
</trkpt>
<trkpt lat="55.843288" lon="26.038790">
<ele>155.634888</ele>
<time>2010-07-17T15:09:40Z</time>
<desc>lat.=55.843288, lon.=26.038790, Alt.=155.634888m. Speed=0.036000m/h.</desc>
<speed>0.010000</speed>
</trkpt>
<trkpt lat="55.843288" lon="26.038790">
<ele>155.634888</ele>
<time>2010-07-17T15:09:41Z</time>
<desc>lat.=55.843288, lon.=26.038790, Alt.=155.634888m. Speed=0.000000m/h.</desc>
<speed>0.000000</speed>
</trkpt>
<trkpt lat="55.843288" lon="26.038790">
<ele>155.638794</ele>
<time>2010-07-17T15:09:42Z</time>
<desc>lat.=55.843288, lon.=26.038790, Alt.=155.638794m. Speed=0.000000m/h.</desc>
<speed>0.000000</speed>
</trkpt>
<trkpt lat="55.843288" lon="26.038790">
<ele>155.634888</ele>
<time>2010-07-17T15:09:43Z</time>
<desc>lat.=55.843288, lon.=26.038790, Alt.=155.634888m. Speed=0.000000m/h.</desc>
<speed>0.000000</speed>
</trkpt>
<trkpt lat="55.843288" lon="26.038790">
<ele>155.634888</ele>
<time>2010-07-17T15:09:44Z</time>
<desc>lat.=55.843288, lon.=26.038790, Alt.=155.634888m. Speed=0.000000m/h.</desc>
<speed>0.000000</speed>
</trkpt>
<trkpt lat="55.843288" lon="26.038790">
<ele>155.638794</ele>
<time>2010-07-17T15:09:45Z</time>
<desc>lat.=55.843288, lon.=26.038790, Alt.=155.638794m. Speed=0.036000m/h.</desc>
<speed>0.010000</speed>
</trkpt>
<trkpt lat="55.843288" lon="26.038790">
<ele>155.638794</ele>
<time>2010-07-17T15:09:46Z</time>
<desc>lat.=55.843288, lon.=26.038790, Alt.=155.638794m. Speed=0.036000m/h.</desc>
<speed>0.010000</speed>
</trkpt>
<trkpt lat="55.843285" lon="26.038790">
<ele>155.638794</ele>
<time>2010-07-17T15:09:47Z</time>
<desc>lat.=55.843285, lon.=26.038790, Alt.=155.638794m. Speed=0.000000m/h.</desc>
<speed>0.000000</speed>
</trkpt>
<trkpt lat="55.843285" lon="26.038790">
<ele>155.642700</ele>
<time>2010-07-17T15:09:48Z</time>
<desc>lat.=55.843285, lon.=26.038790, Alt.=155.642700m. Speed=0.000000m/h.</desc>
<speed>0.000000</speed>
</trkpt>
<trkpt lat="55.843285" lon="26.038790">
<ele>155.642700</ele>
<time>2010-07-17T15:09:49Z</time>
<desc>lat.=55.843285, lon.=26.038790, Alt.=155.642700m. Speed=0.072000m/h.</desc>
<speed>0.020000</speed>
</trkpt>
<trkpt lat="55.843285" lon="26.038790">
<ele>155.642700</ele>
<time>2010-07-17T15:09:50Z</time>
<desc>lat.=55.843285, lon.=26.038790, Alt.=155.642700m. Speed=0.000000m/h.</desc>
<speed>0.000000</speed>
</trkpt>
<trkpt lat="55.843285" lon="26.038790">
<ele>155.646606</ele>
<time>2010-07-17T15:09:51Z</time>
<desc>lat.=55.843285, lon.=26.038790, Alt.=155.646606m. Speed=0.036000m/h.</desc>
<speed>0.010000</speed>
</trkpt>
<trkpt lat="55.843285" lon="26.038790">
<ele>155.650513</ele>
<time>2010-07-17T15:09:52Z</time>
<desc>lat.=55.843285, lon.=26.038790, Alt.=155.650513m. Speed=0.036000m/h.</desc>
<speed>0.010000</speed>
</trkpt>
<trkpt lat="55.843285" lon="26.038790">
<ele>155.646606</ele>
<time>2010-07-17T15:09:53Z</time>
<desc>lat.=55.843285, lon.=26.038790, Alt.=155.646606m. Speed=0.000000m/h.</desc>
<speed>0.000000</speed>
</trkpt>
<trkpt lat="55.843285" lon="26.038790">
<ele>155.650513</ele>
<time>2010-07-17T15:09:54Z</time>
<desc>lat.=55.843285, lon.=26.038790, Alt.=155.650513m. Speed=0.000000m/h.</desc>
<speed>0.000000</speed>
</trkpt>
<trkpt lat="55.843285" lon="26.038790">
<ele>155.650513</ele>
<time>2010-07-17T15:09:55Z</time>
<desc>lat.=55.843285, lon.=26.038790, Alt.=155.650513m. Speed=0.000000m/h.</desc>
<speed>0.000000</speed>
</trkpt>
<trkpt lat="55.843285" lon="26.038790">
<ele>155.650513</ele>
<time>2010-07-17T15:09:56Z</time>
<desc>lat.=55.843285, lon.=26.038790, Alt.=155.650513m. Speed=0.000000m/h.</desc>
<speed>0.000000</speed>
</trkpt>
<trkpt lat="55.843285" lon="26.038790">
<ele>155.650513</ele>
<time>2010-07-17T15:09:57Z</time>
<desc>lat.=55.843285, lon.=26.038790, Alt.=155.650513m. Speed=0.000000m/h.</desc>
<speed>0.000000</speed>
</trkpt>
<trkpt lat="55.843285" lon="26.038790">
<ele>155.650513</ele>
<time>2010-07-17T15:09:58Z</time>
<desc>lat.=55.843285, lon.=26.038790, Alt.=155.650513m. Speed=0.000000m/h.</desc>
<speed>0.000000</speed>
</trkpt>
<trkpt lat="55.843285" lon="26.038790">
<ele>155.654419</ele>
<time>2010-07-17T15:09:59Z</time>
<desc>lat.=55.843285, lon.=26.038790, Alt.=155.654419m. Speed=0.000000m/h.</desc>
<speed>0.000000</speed>
</trkpt>
<trkpt lat="55.843285" lon="26.038790">
<ele>155.654419</ele>
<time>2010-07-17T15:10:00Z</time>
<desc>lat.=55.843285, lon.=26.038790, Alt.=155.654419m. Speed=0.000000m/h.</desc>
<speed>0.000000</speed>
</trkpt>
<trkpt lat="55.843285" lon="26.038790">
<ele>155.654419</ele>
<time>2010-07-17T15:10:01Z</time>
<desc>lat.=55.843285, lon.=26.038790, Alt.=155.654419m. Speed=0.000000m/h.</desc>
<speed>0.000000</speed>
</trkpt>
<trkpt lat="55.843285" lon="26.038790">
<ele>155.654419</ele>
<time>2010-07-17T15:10:02Z</time>
<desc>lat.=55.843285, lon.=26.038790, Alt.=155.654419m. Speed=0.000000m/h.</desc>
<speed>0.000000</speed>
</trkpt>
<trkpt lat="55.843285" lon="26.038790">
<ele>155.654419</ele>
<time>2010-07-17T15:10:03Z</time>
<desc>lat.=55.843285, lon.=26.038790, Alt.=155.654419m. Speed=0.000000m/h.</desc>
<speed>0.000000</speed>
</trkpt>
<trkpt lat="55.843285" lon="26.038790">
<ele>155.658325</ele>
<time>2010-07-17T15:10:04Z</time>
<desc>lat.=55.843285, lon.=26.038790, Alt.=155.658325m. Speed=0.036000m/h.</desc>
<speed>0.010000</speed>
</trkpt>
<trkpt lat="55.843285" lon="26.038790">
<ele>155.658325</ele>
<time>2010-07-17T15:10:05Z</time>
<desc>lat.=55.843285, lon.=26.038790, Alt.=155.658325m. Speed=0.108000m/h.</desc>
<speed>0.030000</speed>
</trkpt>
<trkpt lat="55.843285" lon="26.038790">
<ele>155.662231</ele>
<time>2010-07-17T15:10:06Z</time>
<desc>lat.=55.843285, lon.=26.038790, Alt.=155.662231m. Speed=0.108000m/h.</desc>
<speed>0.030000</speed>
</trkpt>
<trkpt lat="55.843285" lon="26.038790">
<ele>155.662231</ele>
<time>2010-07-17T15:10:07Z</time>
<desc>lat.=55.843285, lon.=26.038790, Alt.=155.662231m. Speed=0.108000m/h.</desc>
<speed>0.030000</speed>
</trkpt>
<trkpt lat="55.843285" lon="26.038790">
<ele>155.662231</ele>
<time>2010-07-17T15:10:08Z</time>
<desc>lat.=55.843285, lon.=26.038790, Alt.=155.662231m. Speed=0.036000m/h.</desc>
<speed>0.010000</speed>
</trkpt>
<trkpt lat="55.843285" lon="26.038790">
<ele>155.666138</ele>
<time>2010-07-17T15:10:09Z</time>
<desc>lat.=55.843285, lon.=26.038790, Alt.=155.666138m. Speed=0.000000m/h.</desc>
<speed>0.000000</speed>
</trkpt>
<trkpt lat="55.843285" lon="26.038790">
<ele>155.666138</ele>
<time>2010-07-17T15:10:10Z</time>
<desc>lat.=55.843285, lon.=26.038790, Alt.=155.666138m. Speed=0.072000m/h.</desc>
<speed>0.020000</speed>
</trkpt>
<trkpt lat="55.843285" lon="26.038790">
<ele>155.670044</ele>
<time>2010-07-17T15:10:11Z</time>
<desc>lat.=55.843285, lon.=26.038790, Alt.=155.670044m. Speed=0.108000m/h.</desc>
<speed>0.030000</speed>
</trkpt>
<trkpt lat="55.843285" lon="26.038790">
<ele>155.670044</ele>
<time>2010-07-17T15:10:12Z</time>
<desc>lat.=55.843285, lon.=26.038790, Alt.=155.670044m. Speed=0.000000m/h.</desc>
<speed>0.000000</speed>
</trkpt>
<trkpt lat="55.843285" lon="26.038790">
<ele>155.666138</ele>
<time>2010-07-17T15:10:13Z</time>
<desc>lat.=55.843285, lon.=26.038790, Alt.=155.666138m. Speed=0.000000m/h.</desc>
<speed>0.000000</speed>
</trkpt>
<trkpt lat="55.843285" lon="26.038790">
<ele>155.666138</ele>
<time>2010-07-17T15:10:14Z</time>
<desc>lat.=55.843285, lon.=26.038790, Alt.=155.666138m. Speed=0.000000m/h.</desc>
<speed>0.000000</speed>
</trkpt>
<trkpt lat="55.843285" lon="26.038790">
<ele>155.666138</ele>
<time>2010-07-17T15:10:15Z</time>
<desc>lat.=55.843285, lon.=26.038790, Alt.=155.666138m. Speed=0.000000m/h.</desc>
<speed>0.000000</speed>
</trkpt>
<trkpt lat="55.843285" lon="26.038790">
<ele>155.666138</ele>
<time>2010-07-17T15:10:16Z</time>
<desc>lat.=55.843285, lon.=26.038790, Alt.=155.666138m. Speed=0.036000m/h.</desc>
<speed>0.010000</speed>
</trkpt>
<trkpt lat="55.843285" lon="26.038790">
<ele>155.666138</ele>
<time>2010-07-17T15:10:17Z</time>
<desc>lat.=55.843285, lon.=26.038790, Alt.=155.666138m. Speed=0.036000m/h.</desc>
<speed>0.010000</speed>
</trkpt>
<trkpt lat="55.843285" lon="26.038790">
<ele>155.670044</ele>
<time>2010-07-17T15:10:18Z</time>
<desc>lat.=55.843285, lon.=26.038790, Alt.=155.670044m. Speed=0.000000m/h.</desc>
<speed>0.000000</speed>
</trkpt>
<trkpt lat="55.843285" lon="26.038790">
<ele>155.670044</ele>
<time>2010-07-17T15:10:19Z</time>
<desc>lat.=55.843285, lon.=26.038790, Alt.=155.670044m. Speed=0.072000m/h.</desc>
<speed>0.020000</speed>
</trkpt>
<trkpt lat="55.843285" lon="26.038790">
<ele>155.670044</ele>
<time>2010-07-17T15:10:20Z</time>
<desc>lat.=55.843285, lon.=26.038790, Alt.=155.670044m. Speed=0.000000m/h.</desc>
<speed>0.000000</speed>
</trkpt>
<trkpt lat="55.843285" lon="26.038790">
<ele>155.670044</ele>
<time>2010-07-17T15:10:21Z</time>
<desc>lat.=55.843285, lon.=26.038790, Alt.=155.670044m. Speed=0.000000m/h.</desc>
<speed>0.000000</speed>
</trkpt>
<trkpt lat="55.843285" lon="26.038790">
<ele>155.670044</ele>
<time>2010-07-17T15:10:22Z</time>
<desc>lat.=55.843285, lon.=26.038790, Alt.=155.670044m. Speed=0.036000m/h.</desc>
<speed>0.010000</speed>
</trkpt>
<trkpt lat="55.843285" lon="26.038790">
<ele>155.670044</ele>
<time>2010-07-17T15:10:23Z</time>
<desc>lat.=55.843285, lon.=26.038790, Alt.=155.670044m. Speed=0.108000m/h.</desc>
<speed>0.030000</speed>
</trkpt>
<trkpt lat="55.843285" lon="26.038790">
<ele>155.666138</ele>
<time>2010-07-17T15:10:24Z</time>
<desc>lat.=55.843285, lon.=26.038790, Alt.=155.666138m. Speed=0.036000m/h.</desc>
<speed>0.010000</speed>
</trkpt>
<trkpt lat="55.843285" lon="26.038790">
<ele>155.670044</ele>
<time>2010-07-17T15:10:25Z</time>
<desc>lat.=55.843285, lon.=26.038790, Alt.=155.670044m. Speed=0.036000m/h.</desc>
<speed>0.010000</speed>
</trkpt>
<trkpt lat="55.843285" lon="26.038790">
<ele>155.670044</ele>
<time>2010-07-17T15:10:26Z</time>
<desc>lat.=55.843285, lon.=26.038790, Alt.=155.670044m. Speed=0.036000m/h.</desc>
<speed>0.010000</speed>
</trkpt>
<trkpt lat="55.843285" lon="26.038790">
<ele>155.673950</ele>
<time>2010-07-17T15:10:27Z</time>
<desc>lat.=55.843285, lon.=26.038790, Alt.=155.673950m. Speed=0.072000m/h.</desc>
<speed>0.020000</speed>
</trkpt>
<trkpt lat="55.843285" lon="26.038790">
<ele>155.670044</ele>
<time>2010-07-17T15:10:28Z</time>
<desc>lat.=55.843285, lon.=26.038790, Alt.=155.670044m. Speed=0.108000m/h.</desc>
<speed>0.030000</speed>
</trkpt>
<trkpt lat="55.843285" lon="26.038790">
<ele>155.666138</ele>
<time>2010-07-17T15:10:29Z</time>
<desc>lat.=55.843285, lon.=26.038790, Alt.=155.666138m. Speed=0.036000m/h.</desc>
<speed>0.010000</speed>
</trkpt>
<trkpt lat="55.843285" lon="26.038790">
<ele>155.666138</ele>
<time>2010-07-17T15:10:30Z</time>
<desc>lat.=55.843285, lon.=26.038790, Alt.=155.666138m. Speed=0.036000m/h.</desc>
<speed>0.010000</speed>
</trkpt>
<trkpt lat="55.843285" lon="26.038790">
<ele>155.662231</ele>
<time>2010-07-17T15:10:31Z</time>
<desc>lat.=55.843285, lon.=26.038790, Alt.=155.662231m. Speed=0.000000m/h.</desc>
<speed>0.000000</speed>
</trkpt>
<trkpt lat="55.843285" lon="26.038790">
<ele>155.662231</ele>
<time>2010-07-17T15:10:32Z</time>
<desc>lat.=55.843285, lon.=26.038790, Alt.=155.662231m. Speed=0.000000m/h.</desc>
<speed>0.000000</speed>
</trkpt>
<trkpt lat="55.843285" lon="26.038790">
<ele>155.666138</ele>
<time>2010-07-17T15:10:33Z</time>
<desc>lat.=55.843285, lon.=26.038790, Alt.=155.666138m. Speed=0.000000m/h.</desc>
<speed>0.000000</speed>
</trkpt>
<trkpt lat="55.843285" lon="26.038790">
<ele>155.662231</ele>
<time>2010-07-17T15:10:34Z</time>
<desc>lat.=55.843285, lon.=26.038790, Alt.=155.662231m. Speed=0.576000m/h.</desc>
<speed>0.160000</speed>
</trkpt>
<trkpt lat="55.843285" lon="26.038790">
<ele>155.642700</ele>
<time>2010-07-17T15:10:35Z</time>
<desc>lat.=55.843285, lon.=26.038790, Alt.=155.642700m. Speed=0.324000m/h.</desc>
<speed>0.090000</speed>
</trkpt>
<trkpt lat="55.843285" lon="26.038788">
<ele>155.634888</ele>
<time>2010-07-17T15:10:36Z</time>
<desc>lat.=55.843285, lon.=26.038788, Alt.=155.634888m. Speed=0.936000m/h.</desc>
<speed>0.260000</speed>
</trkpt>
<trkpt lat="55.843288" lon="26.038784">
<ele>155.623169</ele>
<time>2010-07-17T15:10:37Z</time>
<desc>lat.=55.843288, lon.=26.038784, Alt.=155.623169m. Speed=3.348000m/h.</desc>
<speed>0.930000</speed>
</trkpt>
<trkpt lat="55.843288" lon="26.038769">
<ele>155.607544</ele>
<time>2010-07-17T15:10:38Z</time>
<desc>lat.=55.843288, lon.=26.038769, Alt.=155.607544m. Speed=2.736000m/h.</desc>
<speed>0.760000</speed>
</trkpt>
<trkpt lat="55.843285" lon="26.038757">
<ele>155.584106</ele>
<time>2010-07-17T15:10:39Z</time>
<desc>lat.=55.843285, lon.=26.038757, Alt.=155.584106m. Speed=3.096000m/h.</desc>
<speed>0.860000</speed>
</trkpt>
<trkpt lat="55.843285" lon="26.038744">
<ele>155.560669</ele>
<time>2010-07-17T15:10:40Z</time>
<desc>lat.=55.843285, lon.=26.038744, Alt.=155.560669m. Speed=3.312000m/h.</desc>
<speed>0.920000</speed>
</trkpt>
<trkpt lat="55.843285" lon="26.038729">
<ele>155.541138</ele>
<time>2010-07-17T15:10:41Z</time>
<desc>lat.=55.843285, lon.=26.038729, Alt.=155.541138m. Speed=3.312000m/h.</desc>
<speed>0.920000</speed>
</trkpt>
<trkpt lat="55.843285" lon="26.038713">
<ele>155.517700</ele>
<time>2010-07-17T15:10:42Z</time>
<desc>lat.=55.843285, lon.=26.038713, Alt.=155.517700m. Speed=3.600000m/h.</desc>
<speed>1.000000</speed>
</trkpt>
<trkpt lat="55.843277" lon="26.038671">
<ele>155.560669</ele>
<time>2010-07-17T15:10:43Z</time>
<desc>lat.=55.843277, lon.=26.038671, Alt.=155.560669m. Speed=5.004000m/h.</desc>
<speed>1.390000</speed>
</trkpt>
<trkpt lat="55.843277" lon="26.038641">
<ele>155.459106</ele>
<time>2010-07-17T15:10:44Z</time>
<desc>lat.=55.843277, lon.=26.038641, Alt.=155.459106m. Speed=6.912000m/h.</desc>
<speed>1.920000</speed>
</trkpt>
<trkpt lat="55.843273" lon="26.038599">
<ele>155.263794</ele>
<time>2010-07-17T15:10:45Z</time>
<desc>lat.=55.843273, lon.=26.038599, Alt.=155.263794m. Speed=8.676000m/h.</desc>
<speed>2.410000</speed>
</trkpt>
<trkpt lat="55.843269" lon="26.038559">
<ele>155.162231</ele>
<time>2010-07-17T15:10:46Z</time>
<desc>lat.=55.843269, lon.=26.038559, Alt.=155.162231m. Speed=9.684000m/h.</desc>
<speed>2.690000</speed>
</trkpt>
<trkpt lat="55.843266" lon="26.038513">
<ele>155.060669</ele>
<time>2010-07-17T15:10:47Z</time>
<desc>lat.=55.843266, lon.=26.038513, Alt.=155.060669m. Speed=9.972000m/h.</desc>
<speed>2.770000</speed>
</trkpt>
<trkpt lat="55.843262" lon="26.038469">
<ele>154.931763</ele>
<time>2010-07-17T15:10:48Z</time>
<desc>lat.=55.843262, lon.=26.038469, Alt.=154.931763m. Speed=10.548000m/h.</desc>
<speed>2.930000</speed>
</trkpt>
<trkpt lat="55.843250" lon="26.038420">
<ele>154.709106</ele>
<time>2010-07-17T15:10:49Z</time>
<desc>lat.=55.843250, lon.=26.038420, Alt.=154.709106m. Speed=11.988000m/h.</desc>
<speed>3.330000</speed>
</trkpt>
<trkpt lat="55.843243" lon="26.038368">
<ele>154.697388</ele>
<time>2010-07-17T15:10:50Z</time>
<desc>lat.=55.843243, lon.=26.038368, Alt.=154.697388m. Speed=12.312000m/h.</desc>
<speed>3.420000</speed>
</trkpt>
<trkpt lat="55.843227" lon="26.038315">
<ele>154.552856</ele>
<time>2010-07-17T15:10:51Z</time>
<desc>lat.=55.843227, lon.=26.038315, Alt.=154.552856m. Speed=12.636000m/h.</desc>
<speed>3.510000</speed>
</trkpt>
<trkpt lat="55.843212" lon="26.038263">
<ele>154.498169</ele>
<time>2010-07-17T15:10:52Z</time>
<desc>lat.=55.843212, lon.=26.038263, Alt.=154.498169m. Speed=12.636000m/h.</desc>
<speed>3.510000</speed>
</trkpt>
<trkpt lat="55.843201" lon="26.038221">
<ele>154.748169</ele>
<time>2010-07-17T15:10:53Z</time>
<desc>lat.=55.843201, lon.=26.038221, Alt.=154.748169m. Speed=11.556000m/h.</desc>
<speed>3.210000</speed>
</trkpt>
<trkpt lat="55.843182" lon="26.038189">
<ele>154.877075</ele>
<time>2010-07-17T15:10:54Z</time>
<desc>lat.=55.843182, lon.=26.038189, Alt.=154.877075m. Speed=11.052000m/h.</desc>
<speed>3.070000</speed>
</trkpt>
<trkpt lat="55.843163" lon="26.038147">
<ele>154.697388</ele>
<time>2010-07-17T15:10:55Z</time>
<desc>lat.=55.843163, lon.=26.038147, Alt.=154.697388m. Speed=7.488000m/h.</desc>
<speed>2.080000</speed>
</trkpt>
<trkpt lat="55.843151" lon="26.038120">
<ele>154.963013</ele>
<time>2010-07-17T15:10:56Z</time>
<desc>lat.=55.843151, lon.=26.038120, Alt.=154.963013m. Speed=8.856000m/h.</desc>
<speed>2.460000</speed>
</trkpt>
<trkpt lat="55.843132" lon="26.038105">
<ele>154.748169</ele>
<time>2010-07-17T15:10:57Z</time>
<desc>lat.=55.843132, lon.=26.038105, Alt.=154.748169m. Speed=6.804000m/h.</desc>
<speed>1.890000</speed>
</trkpt>
<trkpt lat="55.843117" lon="26.038103">
<ele>154.545044</ele>
<time>2010-07-17T15:10:58Z</time>
<desc>lat.=55.843117, lon.=26.038103, Alt.=154.545044m. Speed=7.020000m/h.</desc>
<speed>1.950000</speed>
</trkpt>
<trkpt lat="55.843098" lon="26.038103">
<ele>154.318481</ele>
<time>2010-07-17T15:10:59Z</time>
<desc>lat.=55.843098, lon.=26.038103, Alt.=154.318481m. Speed=6.048000m/h.</desc>
<speed>1.680000</speed>
</trkpt>
<trkpt lat="55.843086" lon="26.038115">
<ele>154.127075</ele>
<time>2010-07-17T15:11:00Z</time>
<desc>lat.=55.843086, lon.=26.038115, Alt.=154.127075m. Speed=6.840000m/h.</desc>
<speed>1.900000</speed>
</trkpt>
<trkpt lat="55.843071" lon="26.038132">
<ele>153.939575</ele>
<time>2010-07-17T15:11:01Z</time>
<desc>lat.=55.843071, lon.=26.038132, Alt.=153.939575m. Speed=7.524000m/h.</desc>
<speed>2.090000</speed>
</trkpt>
<trkpt lat="55.843060" lon="26.038147">
<ele>153.947388</ele>
<time>2010-07-17T15:11:02Z</time>
<desc>lat.=55.843060, lon.=26.038147, Alt.=153.947388m. Speed=2.412000m/h.</desc>
<speed>0.670000</speed>
</trkpt>
<trkpt lat="55.843052" lon="26.038151">
<ele>153.806763</ele>
<time>2010-07-17T15:11:03Z</time>
<desc>lat.=55.843052, lon.=26.038151, Alt.=153.806763m. Speed=0.108000m/h.</desc>
<speed>0.030000</speed>
</trkpt>
<trkpt lat="55.843052" lon="26.038145">
<ele>154.146606</ele>
<time>2010-07-17T15:11:04Z</time>
<desc>lat.=55.843052, lon.=26.038145, Alt.=154.146606m. Speed=0.144000m/h.</desc>
<speed>0.040000</speed>
</trkpt>
<trkpt lat="55.843052" lon="26.038145">
<ele>154.197388</ele>
<time>2010-07-17T15:11:05Z</time>
<desc>lat.=55.843052, lon.=26.038145, Alt.=154.197388m. Speed=0.108000m/h.</desc>
<speed>0.030000</speed>
</trkpt>
<trkpt lat="55.843052" lon="26.038145">
<ele>154.209106</ele>
<time>2010-07-17T15:11:06Z</time>
<desc>lat.=55.843052, lon.=26.038145, Alt.=154.209106m. Speed=0.036000m/h.</desc>
<speed>0.010000</speed>
</trkpt>
<trkpt lat="55.843052" lon="26.038143">
<ele>154.220825</ele>
<time>2010-07-17T15:11:07Z</time>
<desc>lat.=55.843052, lon.=26.038143, Alt.=154.220825m. Speed=0.252000m/h.</desc>
<speed>0.070000</speed>
</trkpt>
<trkpt lat="55.843052" lon="26.038143">
<ele>154.236450</ele>
<time>2010-07-17T15:11:08Z</time>
<desc>lat.=55.843052, lon.=26.038143, Alt.=154.236450m. Speed=0.180000m/h.</desc>
<speed>0.050000</speed>
</trkpt>
<trkpt lat="55.843052" lon="26.038145">
<ele>154.244263</ele>
<time>2010-07-17T15:11:09Z</time>
<desc>lat.=55.843052, lon.=26.038145, Alt.=154.244263m. Speed=0.072000m/h.</desc>
<speed>0.020000</speed>
</trkpt>
<trkpt lat="55.843052" lon="26.038145">
<ele>154.255981</ele>
<time>2010-07-17T15:11:10Z</time>
<desc>lat.=55.843052, lon.=26.038145, Alt.=154.255981m. Speed=0.072000m/h.</desc>
<speed>0.020000</speed>
</trkpt>
<trkpt lat="55.843052" lon="26.038145">
<ele>154.259888</ele>
<time>2010-07-17T15:11:11Z</time>
<desc>lat.=55.843052, lon.=26.038145, Alt.=154.259888m. Speed=0.252000m/h.</desc>
<speed>0.070000</speed>
</trkpt>
<trkpt lat="55.843052" lon="26.038143">
<ele>154.275513</ele>
<time>2010-07-17T15:11:12Z</time>
<desc>lat.=55.843052, lon.=26.038143, Alt.=154.275513m. Speed=0.144000m/h.</desc>
<speed>0.040000</speed>
</trkpt>
<trkpt lat="55.843056" lon="26.038143">
<ele>154.287231</ele>
<time>2010-07-17T15:11:13Z</time>
<desc>lat.=55.843056, lon.=26.038143, Alt.=154.287231m. Speed=0.144000m/h.</desc>
<speed>0.040000</speed>
</trkpt>
<trkpt lat="55.843056" lon="26.038143">
<ele>154.302856</ele>
<time>2010-07-17T15:11:14Z</time>
<desc>lat.=55.843056, lon.=26.038143, Alt.=154.302856m. Speed=0.180000m/h.</desc>
<speed>0.050000</speed>
</trkpt>
<trkpt lat="55.843056" lon="26.038141">
<ele>154.322388</ele>
<time>2010-07-17T15:11:15Z</time>
<desc>lat.=55.843056, lon.=26.038141, Alt.=154.322388m. Speed=0.288000m/h.</desc>
<speed>0.080000</speed>
</trkpt>
<trkpt lat="55.843056" lon="26.038141">
<ele>154.338013</ele>
<time>2010-07-17T15:11:16Z</time>
<desc>lat.=55.843056, lon.=26.038141, Alt.=154.338013m. Speed=0.360000m/h.</desc>
<speed>0.100000</speed>
</trkpt>
<trkpt lat="55.843052" lon="26.038139">
<ele>154.345825</ele>
<time>2010-07-17T15:11:17Z</time>
<desc>lat.=55.843052, lon.=26.038139, Alt.=154.345825m. Speed=0.180000m/h.</desc>
<speed>0.050000</speed>
</trkpt>
<trkpt lat="55.843052" lon="26.038139">
<ele>154.361450</ele>
<time>2010-07-17T15:11:18Z</time>
<desc>lat.=55.843052, lon.=26.038139, Alt.=154.361450m. Speed=0.288000m/h.</desc>
<speed>0.080000</speed>
</trkpt>
<trkpt lat="55.843052" lon="26.038141">
<ele>154.369263</ele>
<time>2010-07-17T15:11:19Z</time>
<desc>lat.=55.843052, lon.=26.038141, Alt.=154.369263m. Speed=0.576000m/h.</desc>
<speed>0.160000</speed>
</trkpt>
<trkpt lat="55.843052" lon="26.038139">
<ele>154.380981</ele>
<time>2010-07-17T15:11:20Z</time>
<desc>lat.=55.843052, lon.=26.038139, Alt.=154.380981m. Speed=0.756000m/h.</desc>
<speed>0.210000</speed>
</trkpt>
<trkpt lat="55.843052" lon="26.038137">
<ele>154.388794</ele>
<time>2010-07-17T15:11:21Z</time>
<desc>lat.=55.843052, lon.=26.038137, Alt.=154.388794m. Speed=0.216000m/h.</desc>
<speed>0.060000</speed>
</trkpt>
<trkpt lat="55.843052" lon="26.038137">
<ele>154.392700</ele>
<time>2010-07-17T15:11:22Z</time>
<desc>lat.=55.843052, lon.=26.038137, Alt.=154.392700m. Speed=0.936000m/h.</desc>
<speed>0.260000</speed>
</trkpt>
<trkpt lat="55.843048" lon="26.038141">
<ele>154.396606</ele>
<time>2010-07-17T15:11:23Z</time>
<desc>lat.=55.843048, lon.=26.038141, Alt.=154.396606m. Speed=3.168000m/h.</desc>
<speed>0.880000</speed>
</trkpt>
<trkpt lat="55.843044" lon="26.038153">
<ele>154.404419</ele>
<time>2010-07-17T15:11:24Z</time>
<desc>lat.=55.843044, lon.=26.038153, Alt.=154.404419m. Speed=4.284000m/h.</desc>
<speed>1.190000</speed>
</trkpt>
<trkpt lat="55.843033" lon="26.038168">
<ele>154.470825</ele>
<time>2010-07-17T15:11:25Z</time>
<desc>lat.=55.843033, lon.=26.038168, Alt.=154.470825m. Speed=6.984000m/h.</desc>
<speed>1.940000</speed>
</trkpt>
<trkpt lat="55.843014" lon="26.038187">
<ele>154.482544</ele>
<time>2010-07-17T15:11:26Z</time>
<desc>lat.=55.843014, lon.=26.038187, Alt.=154.482544m. Speed=9.072000m/h.</desc>
<speed>2.520000</speed>
</trkpt>
<trkpt lat="55.842995" lon="26.038212">
<ele>154.314575</ele>
<time>2010-07-17T15:11:27Z</time>
<desc>lat.=55.842995, lon.=26.038212, Alt.=154.314575m. Speed=10.008000m/h.</desc>
<speed>2.780000</speed>
</trkpt>
<trkpt lat="55.842972" lon="26.038240">
<ele>154.275513</ele>
<time>2010-07-17T15:11:28Z</time>
<desc>lat.=55.842972, lon.=26.038240, Alt.=154.275513m. Speed=11.232000m/h.</desc>
<speed>3.120000</speed>
</trkpt>
<trkpt lat="55.842945" lon="26.038263">
<ele>154.291138</ele>
<time>2010-07-17T15:11:29Z</time>
<desc>lat.=55.842945, lon.=26.038263, Alt.=154.291138m. Speed=11.520000m/h.</desc>
<speed>3.200000</speed>
</trkpt>
<trkpt lat="55.842915" lon="26.038288">
<ele>154.396606</ele>
<time>2010-07-17T15:11:30Z</time>
<desc>lat.=55.842915, lon.=26.038288, Alt.=154.396606m. Speed=11.736000m/h.</desc>
<speed>3.260000</speed>
</trkpt>
<trkpt lat="55.842892" lon="26.038311">
<ele>154.279419</ele>
<time>2010-07-17T15:11:31Z</time>
<desc>lat.=55.842892, lon.=26.038311, Alt.=154.279419m. Speed=10.980000m/h.</desc>
<speed>3.050000</speed>
</trkpt>
<trkpt lat="55.842865" lon="26.038326">
<ele>154.545044</ele>
<time>2010-07-17T15:11:32Z</time>
<desc>lat.=55.842865, lon.=26.038326, Alt.=154.545044m. Speed=9.792000m/h.</desc>
<speed>2.720000</speed>
</trkpt>
<trkpt lat="55.842842" lon="26.038343">
<ele>154.755981</ele>
<time>2010-07-17T15:11:33Z</time>
<desc>lat.=55.842842, lon.=26.038343, Alt.=154.755981m. Speed=8.352000m/h.</desc>
<speed>2.320000</speed>
</trkpt>
<trkpt lat="55.842823" lon="26.038359">
<ele>155.193481</ele>
<time>2010-07-17T15:11:34Z</time>
<desc>lat.=55.842823, lon.=26.038359, Alt.=155.193481m. Speed=8.424000m/h.</desc>
<speed>2.340000</speed>
</trkpt>
<trkpt lat="55.842804" lon="26.038376">
<ele>155.314575</ele>
<time>2010-07-17T15:11:35Z</time>
<desc>lat.=55.842804, lon.=26.038376, Alt.=155.314575m. Speed=9.648000m/h.</desc>
<speed>2.680000</speed>
</trkpt>
<trkpt lat="55.842785" lon="26.038393">
<ele>155.552856</ele>
<time>2010-07-17T15:11:36Z</time>
<desc>lat.=55.842785, lon.=26.038393, Alt.=155.552856m. Speed=9.036000m/h.</desc>
<speed>2.510000</speed>
</trkpt>
<trkpt lat="55.842762" lon="26.038412">
<ele>155.697388</ele>
<time>2010-07-17T15:11:37Z</time>
<desc>lat.=55.842762, lon.=26.038412, Alt.=155.697388m. Speed=11.952000m/h.</desc>
<speed>3.320000</speed>
</trkpt>
<trkpt lat="55.842735" lon="26.038439">
<ele>155.935669</ele>
<time>2010-07-17T15:11:38Z</time>
<desc>lat.=55.842735, lon.=26.038439, Alt.=155.935669m. Speed=10.908000m/h.</desc>
<speed>3.030000</speed>
</trkpt>
<trkpt lat="55.842705" lon="26.038465">
<ele>155.576294</ele>
<time>2010-07-17T15:11:39Z</time>
<desc>lat.=55.842705, lon.=26.038465, Alt.=155.576294m. Speed=13.140000m/h.</desc>
<speed>3.650000</speed>
</trkpt>
<trkpt lat="55.842670" lon="26.038490">
<ele>155.552856</ele>
<time>2010-07-17T15:11:40Z</time>
<desc>lat.=55.842670, lon.=26.038490, Alt.=155.552856m. Speed=14.040000m/h.</desc>
<speed>3.900000</speed>
</trkpt>
<trkpt lat="55.842636" lon="26.038515">
<ele>155.650513</ele>
<time>2010-07-17T15:11:41Z</time>
<desc>lat.=55.842636, lon.=26.038515, Alt.=155.650513m. Speed=13.356000m/h.</desc>
<speed>3.710000</speed>
</trkpt>
<trkpt lat="55.842602" lon="26.038532">
<ele>155.755981</ele>
<time>2010-07-17T15:11:42Z</time>
<desc>lat.=55.842602, lon.=26.038532, Alt.=155.755981m. Speed=12.996000m/h.</desc>
<speed>3.610000</speed>
</trkpt>
<trkpt lat="55.842575" lon="26.038548">
<ele>155.591919</ele>
<time>2010-07-17T15:11:43Z</time>
<desc>lat.=55.842575, lon.=26.038548, Alt.=155.591919m. Speed=12.204000m/h.</desc>
<speed>3.390000</speed>
</trkpt>
<trkpt lat="55.842545" lon="26.038568">
<ele>155.384888</ele>
<time>2010-07-17T15:11:44Z</time>
<desc>lat.=55.842545, lon.=26.038568, Alt.=155.384888m. Speed=13.536000m/h.</desc>
<speed>3.760000</speed>
</trkpt>
<trkpt lat="55.842510" lon="26.038593">
<ele>155.271606</ele>
<time>2010-07-17T15:11:45Z</time>
<desc>lat.=55.842510, lon.=26.038593, Alt.=155.271606m. Speed=15.048000m/h.</desc>
<speed>4.180000</speed>
</trkpt>
<trkpt lat="55.842480" lon="26.038618">
<ele>154.658325</ele>
<time>2010-07-17T15:11:46Z</time>
<desc>lat.=55.842480, lon.=26.038618, Alt.=154.658325m. Speed=15.696000m/h.</desc>
<speed>4.360000</speed>
</trkpt>
<trkpt lat="55.842442" lon="26.038645">
<ele>154.642700</ele>
<time>2010-07-17T15:11:47Z</time>
<desc>lat.=55.842442, lon.=26.038645, Alt.=154.642700m. Speed=16.704000m/h.</desc>
<speed>4.640000</speed>
</trkpt>
<trkpt lat="55.842396" lon="26.038666">
<ele>154.939575</ele>
<time>2010-07-17T15:11:48Z</time>
<desc>lat.=55.842396, lon.=26.038666, Alt.=154.939575m. Speed=15.948000m/h.</desc>
<speed>4.430000</speed>
</trkpt>
<trkpt lat="55.842358" lon="26.038694">
<ele>154.877075</ele>
<time>2010-07-17T15:11:49Z</time>
<desc>lat.=55.842358, lon.=26.038694, Alt.=154.877075m. Speed=16.020000m/h.</desc>
<speed>4.450000</speed>
</trkpt>
<trkpt lat="55.842319" lon="26.038719">
<ele>154.853638</ele>
<time>2010-07-17T15:11:50Z</time>
<desc>lat.=55.842319, lon.=26.038719, Alt.=154.853638m. Speed=15.444000m/h.</desc>
<speed>4.290000</speed>
</trkpt>
<trkpt lat="55.842278" lon="26.038746">
<ele>154.888794</ele>
<time>2010-07-17T15:11:51Z</time>
<desc>lat.=55.842278, lon.=26.038746, Alt.=154.888794m. Speed=16.488001m/h.</desc>
<speed>4.580000</speed>
</trkpt>
<trkpt lat="55.842236" lon="26.038773">
<ele>155.173950</ele>
<time>2010-07-17T15:11:52Z</time>
<desc>lat.=55.842236, lon.=26.038773, Alt.=155.173950m. Speed=18.180000m/h.</desc>
<speed>5.050000</speed>
</trkpt>
<trkpt lat="55.842197" lon="26.038801">
<ele>154.849731</ele>
<time>2010-07-17T15:11:53Z</time>
<desc>lat.=55.842197, lon.=26.038801, Alt.=154.849731m. Speed=17.459999m/h.</desc>
<speed>4.850000</speed>
</trkpt>
<trkpt lat="55.842155" lon="26.038828">
<ele>155.420044</ele>
<time>2010-07-17T15:11:54Z</time>
<desc>lat.=55.842155, lon.=26.038828, Alt.=155.420044m. Speed=18.035999m/h.</desc>
<speed>5.010000</speed>
</trkpt>
<trkpt lat="55.842121" lon="26.038855">
<ele>154.572388</ele>
<time>2010-07-17T15:11:55Z</time>
<desc>lat.=55.842121, lon.=26.038855, Alt.=154.572388m. Speed=17.964001m/h.</desc>
<speed>4.990000</speed>
</trkpt>
<trkpt lat="55.842075" lon="26.038876">
<ele>154.545044</ele>
<time>2010-07-17T15:11:56Z</time>
<desc>lat.=55.842075, lon.=26.038876, Alt.=154.545044m. Speed=18.108000m/h.</desc>
<speed>5.030000</speed>
</trkpt>
<trkpt lat="55.842037" lon="26.038904">
<ele>154.529419</ele>
<time>2010-07-17T15:11:57Z</time>
<desc>lat.=55.842037, lon.=26.038904, Alt.=154.529419m. Speed=17.927999m/h.</desc>
<speed>4.980000</speed>
</trkpt>
<trkpt lat="55.841995" lon="26.038937">
<ele>154.502075</ele>
<time>2010-07-17T15:11:58Z</time>
<desc>lat.=55.841995, lon.=26.038937, Alt.=154.502075m. Speed=17.243999m/h.</desc>
<speed>4.790000</speed>
</trkpt>
<trkpt lat="55.841957" lon="26.038969">
<ele>154.271606</ele>
<time>2010-07-17T15:11:59Z</time>
<desc>lat.=55.841957, lon.=26.038969, Alt.=154.271606m. Speed=17.532000m/h.</desc>
<speed>4.870000</speed>
</trkpt>
<trkpt lat="55.841915" lon="26.039003">
<ele>154.255981</ele>
<time>2010-07-17T15:12:00Z</time>
<desc>lat.=55.841915, lon.=26.039003, Alt.=154.255981m. Speed=17.712000m/h.</desc>
<speed>4.920000</speed>
</trkpt>
<trkpt lat="55.841873" lon="26.039032">
<ele>154.545044</ele>
<time>2010-07-17T15:12:01Z</time>
<desc>lat.=55.841873, lon.=26.039032, Alt.=154.545044m. Speed=18.072001m/h.</desc>
<speed>5.020000</speed>
</trkpt>
<trkpt lat="55.841831" lon="26.039064">
<ele>154.623169</ele>
<time>2010-07-17T15:12:02Z</time>
<desc>lat.=55.841831, lon.=26.039064, Alt.=154.623169m. Speed=17.316000m/h.</desc>
<speed>4.810000</speed>
</trkpt>
<trkpt lat="55.841793" lon="26.039093">
<ele>154.849731</ele>
<time>2010-07-17T15:12:03Z</time>
<desc>lat.=55.841793, lon.=26.039093, Alt.=154.849731m. Speed=16.416000m/h.</desc>
<speed>4.560000</speed>
</trkpt>
<trkpt lat="55.841755" lon="26.039122">
<ele>154.896606</ele>
<time>2010-07-17T15:12:04Z</time>
<desc>lat.=55.841755, lon.=26.039122, Alt.=154.896606m. Speed=15.912000m/h.</desc>
<speed>4.420000</speed>
</trkpt>
<trkpt lat="55.841717" lon="26.039145">
<ele>154.923950</ele>
<time>2010-07-17T15:12:05Z</time>
<desc>lat.=55.841717, lon.=26.039145, Alt.=154.923950m. Speed=15.696000m/h.</desc>
<speed>4.360000</speed>
</trkpt>
<trkpt lat="55.841679" lon="26.039171">
<ele>154.900513</ele>
<time>2010-07-17T15:12:06Z</time>
<desc>lat.=55.841679, lon.=26.039171, Alt.=154.900513m. Speed=15.300000m/h.</desc>
<speed>4.250000</speed>
</trkpt>
<trkpt lat="55.841648" lon="26.039200">
<ele>154.994263</ele>
<time>2010-07-17T15:12:07Z</time>
<desc>lat.=55.841648, lon.=26.039200, Alt.=154.994263m. Speed=14.832000m/h.</desc>
<speed>4.120000</speed>
</trkpt>
<trkpt lat="55.841614" lon="26.039228">
<ele>154.990356</ele>
<time>2010-07-17T15:12:08Z</time>
<desc>lat.=55.841614, lon.=26.039228, Alt.=154.990356m. Speed=13.932000m/h.</desc>
<speed>3.870000</speed>
</trkpt>
<trkpt lat="55.841583" lon="26.039249">
<ele>154.689575</ele>
<time>2010-07-17T15:12:09Z</time>
<desc>lat.=55.841583, lon.=26.039249, Alt.=154.689575m. Speed=14.400000m/h.</desc>
<speed>4.000000</speed>
</trkpt>
<trkpt lat="55.841545" lon="26.039278">
<ele>154.509888</ele>
<time>2010-07-17T15:12:10Z</time>
<desc>lat.=55.841545, lon.=26.039278, Alt.=154.509888m. Speed=15.948000m/h.</desc>
<speed>4.430000</speed>
</trkpt>
<trkpt lat="55.841507" lon="26.039307">
<ele>154.416138</ele>
<time>2010-07-17T15:12:11Z</time>
<desc>lat.=55.841507, lon.=26.039307, Alt.=154.416138m. Speed=16.488001m/h.</desc>
<speed>4.580000</speed>
</trkpt>
<trkpt lat="55.841465" lon="26.039335">
<ele>154.201294</ele>
<time>2010-07-17T15:12:12Z</time>
<desc>lat.=55.841465, lon.=26.039335, Alt.=154.201294m. Speed=17.028000m/h.</desc>
<speed>4.730000</speed>
</trkpt>
<trkpt lat="55.841427" lon="26.039368">
<ele>153.482544</ele>
<time>2010-07-17T15:12:13Z</time>
<desc>lat.=55.841427, lon.=26.039368, Alt.=153.482544m. Speed=17.964001m/h.</desc>
<speed>4.990000</speed>
</trkpt>
<trkpt lat="55.841385" lon="26.039400">
<ele>153.205200</ele>
<time>2010-07-17T15:12:14Z</time>
<desc>lat.=55.841385, lon.=26.039400, Alt.=153.205200m. Speed=18.648001m/h.</desc>
<speed>5.180000</speed>
</trkpt>
<trkpt lat="55.841343" lon="26.039436">
<ele>152.970825</ele>
<time>2010-07-17T15:12:15Z</time>
<desc>lat.=55.841343, lon.=26.039436, Alt.=152.970825m. Speed=19.260000m/h.</desc>
<speed>5.350000</speed>
</trkpt>
<trkpt lat="55.841297" lon="26.039469">
<ele>152.763794</ele>
<time>2010-07-17T15:12:16Z</time>
<desc>lat.=55.841297, lon.=26.039469, Alt.=152.763794m. Speed=20.304001m/h.</desc>
<speed>5.640000</speed>
</trkpt>
<trkpt lat="55.841251" lon="26.039503">
<ele>152.373169</ele>
<time>2010-07-17T15:12:17Z</time>
<desc>lat.=55.841251, lon.=26.039503, Alt.=152.373169m. Speed=21.455999m/h.</desc>
<speed>5.960000</speed>
</trkpt>
<trkpt lat="55.841198" lon="26.039543">
<ele>151.963013</ele>
<time>2010-07-17T15:12:18Z</time>
<desc>lat.=55.841198, lon.=26.039543, Alt.=151.963013m. Speed=22.572001m/h.</desc>
<speed>6.270000</speed>
</trkpt>
<trkpt lat="55.841145" lon="26.039585">
<ele>151.619263</ele>
<time>2010-07-17T15:12:19Z</time>
<desc>lat.=55.841145, lon.=26.039585, Alt.=151.619263m. Speed=23.940001m/h.</desc>
<speed>6.650000</speed>
</trkpt>
<trkpt lat="55.841091" lon="26.039631">
<ele>151.334106</ele>
<time>2010-07-17T15:12:20Z</time>
<desc>lat.=55.841091, lon.=26.039631, Alt.=151.334106m. Speed=23.903999m/h.</desc>
<speed>6.640000</speed>
</trkpt>
<trkpt lat="55.841038" lon="26.039675">
<ele>151.041138</ele>
<time>2010-07-17T15:12:21Z</time>
<desc>lat.=55.841038, lon.=26.039675, Alt.=151.041138m. Speed=24.624001m/h.</desc>
<speed>6.840000</speed>
</trkpt>
<trkpt lat="55.840981" lon="26.039721">
<ele>150.666138</ele>
<time>2010-07-17T15:12:22Z</time>
<desc>lat.=55.840981, lon.=26.039721, Alt.=150.666138m. Speed=25.164000m/h.</desc>
<speed>6.990000</speed>
</trkpt>
<trkpt lat="55.840923" lon="26.039762">
<ele>150.162231</ele>
<time>2010-07-17T15:12:23Z</time>
<desc>lat.=55.840923, lon.=26.039762, Alt.=150.162231m. Speed=26.172001m/h.</desc>
<speed>7.270000</speed>
</trkpt>
<trkpt lat="55.840862" lon="26.039812">
<ele>149.595825</ele>
<time>2010-07-17T15:12:24Z</time>
<desc>lat.=55.840862, lon.=26.039812, Alt.=149.595825m. Speed=26.892000m/h.</desc>
<speed>7.470000</speed>
</trkpt>
<trkpt lat="55.840797" lon="26.039858">
<ele>149.048950</ele>
<time>2010-07-17T15:12:25Z</time>
<desc>lat.=55.840797, lon.=26.039858, Alt.=149.048950m. Speed=27.216000m/h.</desc>
<speed>7.560000</speed>
</trkpt>
<trkpt lat="55.840736" lon="26.039904">
<ele>148.865356</ele>
<time>2010-07-17T15:12:26Z</time>
<desc>lat.=55.840736, lon.=26.039904, Alt.=148.865356m. Speed=27.468000m/h.</desc>
<speed>7.630000</speed>
</trkpt>
<trkpt lat="55.840672" lon="26.039955">
<ele>148.611450</ele>
<time>2010-07-17T15:12:27Z</time>
<desc>lat.=55.840672, lon.=26.039955, Alt.=148.611450m. Speed=27.468000m/h.</desc>
<speed>7.630000</speed>
</trkpt>
<trkpt lat="55.840607" lon="26.040003">
<ele>148.736450</ele>
<time>2010-07-17T15:12:28Z</time>
<desc>lat.=55.840607, lon.=26.040003, Alt.=148.736450m. Speed=27.000000m/h.</desc>
<speed>7.500000</speed>
</trkpt>
<trkpt lat="55.840546" lon="26.040043">
<ele>150.787231</ele>
<time>2010-07-17T15:12:29Z</time>
<desc>lat.=55.840546, lon.=26.040043, Alt.=150.787231m. Speed=25.416000m/h.</desc>
<speed>7.060000</speed>
</trkpt>
<trkpt lat="55.840492" lon="26.040104">
<ele>150.486450</ele>
<time>2010-07-17T15:12:30Z</time>
<desc>lat.=55.840492, lon.=26.040104, Alt.=150.486450m. Speed=24.444000m/h.</desc>
<speed>6.790000</speed>
</trkpt>
<trkpt lat="55.840446" lon="26.040163">
<ele>150.365356</ele>
<time>2010-07-17T15:12:31Z</time>
<desc>lat.=55.840446, lon.=26.040163, Alt.=150.365356m. Speed=23.040001m/h.</desc>
<speed>6.400000</speed>
</trkpt>
<trkpt lat="55.840397" lon="26.040213">
<ele>150.627075</ele>
<time>2010-07-17T15:12:32Z</time>
<desc>lat.=55.840397, lon.=26.040213, Alt.=150.627075m. Speed=21.743999m/h.</desc>
<speed>6.040000</speed>
</trkpt>
<trkpt lat="55.840351" lon="26.040262">
<ele>150.752075</ele>
<time>2010-07-17T15:12:33Z</time>
<desc>lat.=55.840351, lon.=26.040262, Alt.=150.752075m. Speed=20.879999m/h.</desc>
<speed>5.800000</speed>
</trkpt>
<trkpt lat="55.840305" lon="26.040310">
<ele>151.002075</ele>
<time>2010-07-17T15:12:34Z</time>
<desc>lat.=55.840305, lon.=26.040310, Alt.=151.002075m. Speed=20.520000m/h.</desc>
<speed>5.700000</speed>
</trkpt>
<trkpt lat="55.840263" lon="26.040358">
<ele>151.314575</ele>
<time>2010-07-17T15:12:35Z</time>
<desc>lat.=55.840263, lon.=26.040358, Alt.=151.314575m. Speed=20.340000m/h.</desc>
<speed>5.650000</speed>
</trkpt>
<trkpt lat="55.840221" lon="26.040405">
<ele>151.670044</ele>
<time>2010-07-17T15:12:36Z</time>
<desc>lat.=55.840221, lon.=26.040405, Alt.=151.670044m. Speed=20.195999m/h.</desc>
<speed>5.610000</speed>
</trkpt>
<trkpt lat="55.840179" lon="26.040453">
<ele>151.880981</ele>
<time>2010-07-17T15:12:37Z</time>
<desc>lat.=55.840179, lon.=26.040453, Alt.=151.880981m. Speed=20.232000m/h.</desc>
<speed>5.620000</speed>
</trkpt>
<trkpt lat="55.840134" lon="26.040504">
<ele>151.990356</ele>
<time>2010-07-17T15:12:38Z</time>
<desc>lat.=55.840134, lon.=26.040504, Alt.=151.990356m. Speed=20.052000m/h.</desc>
<speed>5.570000</speed>
</trkpt>
<trkpt lat="55.840092" lon="26.040552">
<ele>151.666138</ele>
<time>2010-07-17T15:12:39Z</time>
<desc>lat.=55.840092, lon.=26.040552, Alt.=151.666138m. Speed=19.296000m/h.</desc>
<speed>5.360000</speed>
</trkpt>
<trkpt lat="55.840050" lon="26.040594">
<ele>152.048950</ele>
<time>2010-07-17T15:12:40Z</time>
<desc>lat.=55.840050, lon.=26.040594, Alt.=152.048950m. Speed=19.799999m/h.</desc>
<speed>5.500000</speed>
</trkpt>
<trkpt lat="55.840008" lon="26.040642">
<ele>152.017700</ele>
<time>2010-07-17T15:12:41Z</time>
<desc>lat.=55.840008, lon.=26.040642, Alt.=152.017700m. Speed=20.052000m/h.</desc>
<speed>5.570000</speed>
</trkpt>
<trkpt lat="55.839966" lon="26.040688">
<ele>151.927856</ele>
<time>2010-07-17T15:12:42Z</time>
<desc>lat.=55.839966, lon.=26.040688, Alt.=151.927856m. Speed=20.124001m/h.</desc>
<speed>5.590000</speed>
</trkpt>
<trkpt lat="55.839924" lon="26.040737">
<ele>151.822388</ele>
<time>2010-07-17T15:12:43Z</time>
<desc>lat.=55.839924, lon.=26.040737, Alt.=151.822388m. Speed=20.771999m/h.</desc>
<speed>5.770000</speed>
</trkpt>
<trkpt lat="55.839882" lon="26.040791">
<ele>151.779419</ele>
<time>2010-07-17T15:12:44Z</time>
<desc>lat.=55.839882, lon.=26.040791, Alt.=151.779419m. Speed=20.556000m/h.</desc>
<speed>5.710000</speed>
</trkpt>
<trkpt lat="55.839840" lon="26.040848">
<ele>151.759888</ele>
<time>2010-07-17T15:12:45Z</time>
<desc>lat.=55.839840, lon.=26.040848, Alt.=151.759888m. Speed=20.412001m/h.</desc>
<speed>5.670000</speed>
</trkpt>
<trkpt lat="55.839802" lon="26.040905">
<ele>151.810669</ele>
<time>2010-07-17T15:12:46Z</time>
<desc>lat.=55.839802, lon.=26.040905, Alt.=151.810669m. Speed=20.952000m/h.</desc>
<speed>5.820000</speed>
</trkpt>
<trkpt lat="55.839760" lon="26.040964">
<ele>151.732544</ele>
<time>2010-07-17T15:12:47Z</time>
<desc>lat.=55.839760, lon.=26.040964, Alt.=151.732544m. Speed=20.304001m/h.</desc>
<speed>5.640000</speed>
</trkpt>
<trkpt lat="55.839725" lon="26.041021">
<ele>151.627075</ele>
<time>2010-07-17T15:12:48Z</time>
<desc>lat.=55.839725, lon.=26.041021, Alt.=151.627075m. Speed=20.232000m/h.</desc>
<speed>5.620000</speed>
</trkpt>
<trkpt lat="55.839687" lon="26.041082">
<ele>151.630981</ele>
<time>2010-07-17T15:12:49Z</time>
<desc>lat.=55.839687, lon.=26.041082, Alt.=151.630981m. Speed=18.827999m/h.</desc>
<speed>5.230000</speed>
</trkpt>
<trkpt lat="55.839653" lon="26.041140">
<ele>151.884888</ele>
<time>2010-07-17T15:12:50Z</time>
<desc>lat.=55.839653, lon.=26.041140, Alt.=151.884888m. Speed=19.260000m/h.</desc>
<speed>5.350000</speed>
</trkpt>
<trkpt lat="55.839619" lon="26.041201">
<ele>151.920044</ele>
<time>2010-07-17T15:12:51Z</time>
<desc>lat.=55.839619, lon.=26.041201, Alt.=151.920044m. Speed=17.927999m/h.</desc>
<speed>4.980000</speed>
</trkpt>
<trkpt lat="55.839588" lon="26.041254">
<ele>151.806763</ele>
<time>2010-07-17T15:12:52Z</time>
<desc>lat.=55.839588, lon.=26.041254, Alt.=151.806763m. Speed=17.063999m/h.</desc>
<speed>4.740000</speed>
</trkpt>
<trkpt lat="55.839558" lon="26.041306">
<ele>151.955200</ele>
<time>2010-07-17T15:12:53Z</time>
<desc>lat.=55.839558, lon.=26.041306, Alt.=151.955200m. Speed=16.667999m/h.</desc>
<speed>4.630000</speed>
</trkpt>
<trkpt lat="55.839531" lon="26.041355">
<ele>151.728638</ele>
<time>2010-07-17T15:12:54Z</time>
<desc>lat.=55.839531, lon.=26.041355, Alt.=151.728638m. Speed=14.724000m/h.</desc>
<speed>4.090000</speed>
</trkpt>
<trkpt lat="55.839508" lon="26.041403">
<ele>151.830200</ele>
<time>2010-07-17T15:12:55Z</time>
<desc>lat.=55.839508, lon.=26.041403, Alt.=151.830200m. Speed=14.688000m/h.</desc>
<speed>4.080000</speed>
</trkpt>
<trkpt lat="55.839485" lon="26.041449">
<ele>151.966919</ele>
<time>2010-07-17T15:12:56Z</time>
<desc>lat.=55.839485, lon.=26.041449, Alt.=151.966919m. Speed=14.544000m/h.</desc>
<speed>4.040000</speed>
</trkpt>
<trkpt lat="55.839458" lon="26.041498">
<ele>152.349731</ele>
<time>2010-07-17T15:12:57Z</time>
<desc>lat.=55.839458, lon.=26.041498, Alt.=152.349731m. Speed=14.112000m/h.</desc>
<speed>3.920000</speed>
</trkpt>
<trkpt lat="55.839439" lon="26.041542">
<ele>152.584106</ele>
<time>2010-07-17T15:12:58Z</time>
<desc>lat.=55.839439, lon.=26.041542, Alt.=152.584106m. Speed=12.564000m/h.</desc>
<speed>3.490000</speed>
</trkpt>
<trkpt lat="55.839417" lon="26.041590">
<ele>152.947388</ele>
<time>2010-07-17T15:12:59Z</time>
<desc>lat.=55.839417, lon.=26.041590, Alt.=152.947388m. Speed=13.644000m/h.</desc>
<speed>3.790000</speed>
</trkpt>
<trkpt lat="55.839397" lon="26.041639">
<ele>153.041138</ele>
<time>2010-07-17T15:13:00Z</time>
<desc>lat.=55.839397, lon.=26.041639, Alt.=153.041138m. Speed=13.356000m/h.</desc>
<speed>3.710000</speed>
</trkpt>
<trkpt lat="55.839375" lon="26.041687">
<ele>153.306763</ele>
<time>2010-07-17T15:13:01Z</time>
<desc>lat.=55.839375, lon.=26.041687, Alt.=153.306763m. Speed=13.968000m/h.</desc>
<speed>3.880000</speed>
</trkpt>
<trkpt lat="55.839359" lon="26.041735">
<ele>153.349731</ele>
<time>2010-07-17T15:13:02Z</time>
<desc>lat.=55.839359, lon.=26.041735, Alt.=153.349731m. Speed=15.228000m/h.</desc>
<speed>4.230000</speed>
</trkpt>
<trkpt lat="55.839340" lon="26.041780">
<ele>153.634888</ele>
<time>2010-07-17T15:13:03Z</time>
<desc>lat.=55.839340, lon.=26.041780, Alt.=153.634888m. Speed=13.212000m/h.</desc>
<speed>3.670000</speed>
</trkpt>
<trkpt lat="55.839321" lon="26.041838">
<ele>153.416138</ele>
<time>2010-07-17T15:13:04Z</time>
<desc>lat.=55.839321, lon.=26.041838, Alt.=153.416138m. Speed=14.580000m/h.</desc>
<speed>4.050000</speed>
</trkpt>
<trkpt lat="55.839291" lon="26.041897">
<ele>153.252075</ele>
<time>2010-07-17T15:13:05Z</time>
<desc>lat.=55.839291, lon.=26.041897, Alt.=153.252075m. Speed=14.976000m/h.</desc>
<speed>4.160000</speed>
</trkpt>
<trkpt lat="55.839264" lon="26.041948">
<ele>153.396606</ele>
<time>2010-07-17T15:13:06Z</time>
<desc>lat.=55.839264, lon.=26.041948, Alt.=153.396606m. Speed=14.796000m/h.</desc>
<speed>4.110000</speed>
</trkpt>
<trkpt lat="55.839245" lon="26.041994">
<ele>153.654419</ele>
<time>2010-07-17T15:13:07Z</time>
<desc>lat.=55.839245, lon.=26.041994, Alt.=153.654419m. Speed=13.500000m/h.</desc>
<speed>3.750000</speed>
</trkpt>
<trkpt lat="55.839226" lon="26.042042">
<ele>153.795044</ele>
<time>2010-07-17T15:13:08Z</time>
<desc>lat.=55.839226, lon.=26.042042, Alt.=153.795044m. Speed=13.284000m/h.</desc>
<speed>3.690000</speed>
</trkpt>
<trkpt lat="55.839211" lon="26.042089">
<ele>153.775513</ele>
<time>2010-07-17T15:13:09Z</time>
<desc>lat.=55.839211, lon.=26.042089, Alt.=153.775513m. Speed=12.708000m/h.</desc>
<speed>3.530000</speed>
</trkpt>
<trkpt lat="55.839188" lon="26.042139">
<ele>153.830200</ele>
<time>2010-07-17T15:13:10Z</time>
<desc>lat.=55.839188, lon.=26.042139, Alt.=153.830200m. Speed=12.780000m/h.</desc>
<speed>3.550000</speed>
</trkpt>
<trkpt lat="55.839169" lon="26.042187">
<ele>154.123169</ele>
<time>2010-07-17T15:13:11Z</time>
<desc>lat.=55.839169, lon.=26.042187, Alt.=154.123169m. Speed=14.292000m/h.</desc>
<speed>3.970000</speed>
</trkpt>
<trkpt lat="55.839146" lon="26.042240">
<ele>154.088013</ele>
<time>2010-07-17T15:13:12Z</time>
<desc>lat.=55.839146, lon.=26.042240, Alt.=154.088013m. Speed=14.940000m/h.</desc>
<speed>4.150000</speed>
</trkpt>
<trkpt lat="55.839127" lon="26.042294">
<ele>154.177856</ele>
<time>2010-07-17T15:13:13Z</time>
<desc>lat.=55.839127, lon.=26.042294, Alt.=154.177856m. Speed=15.372000m/h.</desc>
<speed>4.270000</speed>
</trkpt>
<trkpt lat="55.839104" lon="26.042351">
<ele>154.380981</ele>
<time>2010-07-17T15:13:14Z</time>
<desc>lat.=55.839104, lon.=26.042351, Alt.=154.380981m. Speed=15.840000m/h.</desc>
<speed>4.400000</speed>
</trkpt>
<trkpt lat="55.839081" lon="26.042410">
<ele>154.306763</ele>
<time>2010-07-17T15:13:15Z</time>
<desc>lat.=55.839081, lon.=26.042410, Alt.=154.306763m. Speed=15.912000m/h.</desc>
<speed>4.420000</speed>
</trkpt>
<trkpt lat="55.839062" lon="26.042469">
<ele>154.392700</ele>
<time>2010-07-17T15:13:16Z</time>
<desc>lat.=55.839062, lon.=26.042469, Alt.=154.392700m. Speed=16.020000m/h.</desc>
<speed>4.450000</speed>
</trkpt>
<trkpt lat="55.839035" lon="26.042528">
<ele>154.357544</ele>
<time>2010-07-17T15:13:17Z</time>
<desc>lat.=55.839035, lon.=26.042528, Alt.=154.357544m. Speed=16.667999m/h.</desc>
<speed>4.630000</speed>
</trkpt>
<trkpt lat="55.839012" lon="26.042587">
<ele>154.138794</ele>
<time>2010-07-17T15:13:18Z</time>
<desc>lat.=55.839012, lon.=26.042587, Alt.=154.138794m. Speed=16.884001m/h.</desc>
<speed>4.690000</speed>
</trkpt>
<trkpt lat="55.838985" lon="26.042648">
<ele>154.213013</ele>
<time>2010-07-17T15:13:19Z</time>
<desc>lat.=55.838985, lon.=26.042648, Alt.=154.213013m. Speed=17.316000m/h.</desc>
<speed>4.810000</speed>
</trkpt>
<trkpt lat="55.838959" lon="26.042709">
<ele>154.181763</ele>
<time>2010-07-17T15:13:20Z</time>
<desc>lat.=55.838959, lon.=26.042709, Alt.=154.181763m. Speed=17.604000m/h.</desc>
<speed>4.890000</speed>
</trkpt>
<trkpt lat="55.838936" lon="26.042768">
<ele>154.127075</ele>
<time>2010-07-17T15:13:21Z</time>
<desc>lat.=55.838936, lon.=26.042768, Alt.=154.127075m. Speed=17.892000m/h.</desc>
<speed>4.970000</speed>
</trkpt>
<trkpt lat="55.838909" lon="26.042828">
<ele>154.111450</ele>
<time>2010-07-17T15:13:22Z</time>
<desc>lat.=55.838909, lon.=26.042828, Alt.=154.111450m. Speed=18.216000m/h.</desc>
<speed>5.060000</speed>
</trkpt>
<trkpt lat="55.838875" lon="26.042896">
<ele>154.224731</ele>
<time>2010-07-17T15:13:23Z</time>
<desc>lat.=55.838875, lon.=26.042896, Alt.=154.224731m. Speed=18.323999m/h.</desc>
<speed>5.090000</speed>
</trkpt>
<trkpt lat="55.838840" lon="26.042959">
<ele>154.295044</ele>
<time>2010-07-17T15:13:24Z</time>
<desc>lat.=55.838840, lon.=26.042959, Alt.=154.295044m. Speed=17.856001m/h.</desc>
<speed>4.960000</speed>
</trkpt>
<trkpt lat="55.838810" lon="26.043015">
<ele>154.150513</ele>
<time>2010-07-17T15:13:25Z</time>
<desc>lat.=55.838810, lon.=26.043015, Alt.=154.150513m. Speed=17.351999m/h.</desc>
<speed>4.820000</speed>
</trkpt>
<trkpt lat="55.838779" lon="26.043070">
<ele>154.314575</ele>
<time>2010-07-17T15:13:26Z</time>
<desc>lat.=55.838779, lon.=26.043070, Alt.=154.314575m. Speed=17.424000m/h.</desc>
<speed>4.840000</speed>
</trkpt>
<trkpt lat="55.838749" lon="26.043121">
<ele>154.361450</ele>
<time>2010-07-17T15:13:27Z</time>
<desc>lat.=55.838749, lon.=26.043121, Alt.=154.361450m. Speed=15.984000m/h.</desc>
<speed>4.440000</speed>
</trkpt>
<trkpt lat="55.838722" lon="26.043173">
<ele>154.482544</ele>
<time>2010-07-17T15:13:28Z</time>
<desc>lat.=55.838722, lon.=26.043173, Alt.=154.482544m. Speed=16.020000m/h.</desc>
<speed>4.450000</speed>
</trkpt>
<trkpt lat="55.838696" lon="26.043221">
<ele>154.677856</ele>
<time>2010-07-17T15:13:29Z</time>
<desc>lat.=55.838696, lon.=26.043221, Alt.=154.677856m. Speed=14.364000m/h.</desc>
<speed>3.990000</speed>
</trkpt>
<trkpt lat="55.838669" lon="26.043261">
<ele>154.841919</ele>
<time>2010-07-17T15:13:30Z</time>
<desc>lat.=55.838669, lon.=26.043261, Alt.=154.841919m. Speed=13.212000m/h.</desc>
<speed>3.670000</speed>
</trkpt>
<trkpt lat="55.838646" lon="26.043303">
<ele>154.959106</ele>
<time>2010-07-17T15:13:31Z</time>
<desc>lat.=55.838646, lon.=26.043303, Alt.=154.959106m. Speed=12.636000m/h.</desc>
<speed>3.510000</speed>
</trkpt>
<trkpt lat="55.838623" lon="26.043348">
<ele>155.170044</ele>
<time>2010-07-17T15:13:32Z</time>
<desc>lat.=55.838623, lon.=26.043348, Alt.=155.170044m. Speed=12.528000m/h.</desc>
<speed>3.480000</speed>
</trkpt>
<trkpt lat="55.838600" lon="26.043379">
<ele>155.095825</ele>
<time>2010-07-17T15:13:33Z</time>
<desc>lat.=55.838600, lon.=26.043379, Alt.=155.095825m. Speed=13.428000m/h.</desc>
<speed>3.730000</speed>
</trkpt>
<trkpt lat="55.838581" lon="26.043409">
<ele>155.654419</ele>
<time>2010-07-17T15:13:34Z</time>
<desc>lat.=55.838581, lon.=26.043409, Alt.=155.654419m. Speed=14.004000m/h.</desc>
<speed>3.890000</speed>
</trkpt>
<trkpt lat="55.838551" lon="26.043451">
<ele>155.705200</ele>
<time>2010-07-17T15:13:35Z</time>
<desc>lat.=55.838551, lon.=26.043451, Alt.=155.705200m. Speed=15.048000m/h.</desc>
<speed>4.180000</speed>
</trkpt>
<trkpt lat="55.838528" lon="26.043489">
<ele>155.783325</ele>
<time>2010-07-17T15:13:36Z</time>
<desc>lat.=55.838528, lon.=26.043489, Alt.=155.783325m. Speed=11.844000m/h.</desc>
<speed>3.290000</speed>
</trkpt>
<trkpt lat="55.838505" lon="26.043526">
<ele>156.013794</ele>
<time>2010-07-17T15:13:37Z</time>
<desc>lat.=55.838505, lon.=26.043526, Alt.=156.013794m. Speed=13.716000m/h.</desc>
<speed>3.810000</speed>
</trkpt>
<trkpt lat="55.838478" lon="26.043568">
<ele>155.978638</ele>
<time>2010-07-17T15:13:38Z</time>
<desc>lat.=55.838478, lon.=26.043568, Alt.=155.978638m. Speed=13.644000m/h.</desc>
<speed>3.790000</speed>
</trkpt>
<trkpt lat="55.838448" lon="26.043613">
<ele>155.681763</ele>
<time>2010-07-17T15:13:39Z</time>
<desc>lat.=55.838448, lon.=26.043613, Alt.=155.681763m. Speed=14.400000m/h.</desc>
<speed>4.000000</speed>
</trkpt>
<trkpt lat="55.838421" lon="26.043655">
<ele>155.591919</ele>
<time>2010-07-17T15:13:40Z</time>
<desc>lat.=55.838421, lon.=26.043655, Alt.=155.591919m. Speed=13.968000m/h.</desc>
<speed>3.880000</speed>
</trkpt>
<trkpt lat="55.838394" lon="26.043699">
<ele>155.189575</ele>
<time>2010-07-17T15:13:41Z</time>
<desc>lat.=55.838394, lon.=26.043699, Alt.=155.189575m. Speed=14.148000m/h.</desc>
<speed>3.930000</speed>
</trkpt>
<trkpt lat="55.838367" lon="26.043736">
<ele>155.236450</ele>
<time>2010-07-17T15:13:42Z</time>
<desc>lat.=55.838367, lon.=26.043736, Alt.=155.236450m. Speed=14.940000m/h.</desc>
<speed>4.150000</speed>
</trkpt>
<trkpt lat="55.838337" lon="26.043785">
<ele>155.291138</ele>
<time>2010-07-17T15:13:43Z</time>
<desc>lat.=55.838337, lon.=26.043785, Alt.=155.291138m. Speed=16.775999m/h.</desc>
<speed>4.660000</speed>
</trkpt>
<trkpt lat="55.838306" lon="26.043837">
<ele>155.392700</ele>
<time>2010-07-17T15:13:44Z</time>
<desc>lat.=55.838306, lon.=26.043837, Alt.=155.392700m. Speed=16.740000m/h.</desc>
<speed>4.650000</speed>
</trkpt>
<trkpt lat="55.838268" lon="26.043896">
<ele>154.763794</ele>
<time>2010-07-17T15:13:45Z</time>
<desc>lat.=55.838268, lon.=26.043896, Alt.=154.763794m. Speed=18.216000m/h.</desc>
<speed>5.060000</speed>
</trkpt>
<trkpt lat="55.838230" lon="26.043955">
<ele>154.572388</ele>
<time>2010-07-17T15:13:46Z</time>
<desc>lat.=55.838230, lon.=26.043955, Alt.=154.572388m. Speed=19.584000m/h.</desc>
<speed>5.440000</speed>
</trkpt>
<trkpt lat="55.838192" lon="26.044016">
<ele>154.111450</ele>
<time>2010-07-17T15:13:47Z</time>
<desc>lat.=55.838192, lon.=26.044016, Alt.=154.111450m. Speed=20.808001m/h.</desc>
<speed>5.780000</speed>
</trkpt>
<trkpt lat="55.838150" lon="26.044073">
<ele>153.685669</ele>
<time>2010-07-17T15:13:48Z</time>
<desc>lat.=55.838150, lon.=26.044073, Alt.=153.685669m. Speed=22.068001m/h.</desc>
<speed>6.130000</speed>
</trkpt>
<trkpt lat="55.838104" lon="26.044136">
<ele>153.252075</ele>
<time>2010-07-17T15:13:49Z</time>
<desc>lat.=55.838104, lon.=26.044136, Alt.=153.252075m. Speed=22.860001m/h.</desc>
<speed>6.350000</speed>
</trkpt>
<trkpt lat="55.838062" lon="26.044197">
<ele>153.181763</ele>
<time>2010-07-17T15:13:50Z</time>
<desc>lat.=55.838062, lon.=26.044197, Alt.=153.181763m. Speed=22.247999m/h.</desc>
<speed>6.180000</speed>
</trkpt>
<trkpt lat="55.838020" lon="26.044268">
<ele>152.857544</ele>
<time>2010-07-17T15:13:51Z</time>
<desc>lat.=55.838020, lon.=26.044268, Alt.=152.857544m. Speed=21.996000m/h.</desc>
<speed>6.110000</speed>
</trkpt>
<trkpt lat="55.837982" lon="26.044338">
<ele>152.478638</ele>
<time>2010-07-17T15:13:52Z</time>
<desc>lat.=55.837982, lon.=26.044338, Alt.=152.478638m. Speed=21.312000m/h.</desc>
<speed>5.920000</speed>
</trkpt>
<trkpt lat="55.837944" lon="26.044401">
<ele>152.412231</ele>
<time>2010-07-17T15:13:53Z</time>
<desc>lat.=55.837944, lon.=26.044401, Alt.=152.412231m. Speed=20.268000m/h.</desc>
<speed>5.630000</speed>
</trkpt>
<trkpt lat="55.837910" lon="26.044462">
<ele>152.267700</ele>
<time>2010-07-17T15:13:54Z</time>
<desc>lat.=55.837910, lon.=26.044462, Alt.=152.267700m. Speed=18.360001m/h.</desc>
<speed>5.100000</speed>
</trkpt>
<trkpt lat="55.837879" lon="26.044518">
<ele>151.857544</ele>
<time>2010-07-17T15:13:55Z</time>
<desc>lat.=55.837879, lon.=26.044518, Alt.=151.857544m. Speed=16.559999m/h.</desc>
<speed>4.600000</speed>
</trkpt>
<trkpt lat="55.837849" lon="26.044565">
<ele>151.838013</ele>
<time>2010-07-17T15:13:56Z</time>
<desc>lat.=55.837849, lon.=26.044565, Alt.=151.838013m. Speed=14.580000m/h.</desc>
<speed>4.050000</speed>
</trkpt>
<trkpt lat="55.837826" lon="26.044609">
<ele>151.810669</ele>
<time>2010-07-17T15:13:57Z</time>
<desc>lat.=55.837826, lon.=26.044609, Alt.=151.810669m. Speed=13.068000m/h.</desc>
<speed>3.630000</speed>
</trkpt>
<trkpt lat="55.837803" lon="26.044653">
<ele>151.634888</ele>
<time>2010-07-17T15:13:58Z</time>
<desc>lat.=55.837803, lon.=26.044653, Alt.=151.634888m. Speed=12.492000m/h.</desc>
<speed>3.470000</speed>
</trkpt>
<trkpt lat="55.837780" lon="26.044701">
<ele>151.521606</ele>
<time>2010-07-17T15:13:59Z</time>
<desc>lat.=55.837780, lon.=26.044701, Alt.=151.521606m. Speed=12.600000m/h.</desc>
<speed>3.500000</speed>
</trkpt>
<trkpt lat="55.837761" lon="26.044741">
<ele>151.607544</ele>
<time>2010-07-17T15:14:00Z</time>
<desc>lat.=55.837761, lon.=26.044741, Alt.=151.607544m. Speed=12.060000m/h.</desc>
<speed>3.350000</speed>
</trkpt>
<trkpt lat="55.837746" lon="26.044777">
<ele>151.505981</ele>
<time>2010-07-17T15:14:01Z</time>
<desc>lat.=55.837746, lon.=26.044777, Alt.=151.505981m. Speed=9.756000m/h.</desc>
<speed>2.710000</speed>
</trkpt>
<trkpt lat="55.837734" lon="26.044811">
<ele>151.377075</ele>
<time>2010-07-17T15:14:02Z</time>
<desc>lat.=55.837734, lon.=26.044811, Alt.=151.377075m. Speed=9.144000m/h.</desc>
<speed>2.540000</speed>
</trkpt>
<trkpt lat="55.837719" lon="26.044842">
<ele>151.330200</ele>
<time>2010-07-17T15:14:03Z</time>
<desc>lat.=55.837719, lon.=26.044842, Alt.=151.330200m. Speed=8.748000m/h.</desc>
<speed>2.430000</speed>
</trkpt>
<trkpt lat="55.837711" lon="26.044872">
<ele>151.330200</ele>
<time>2010-07-17T15:14:04Z</time>
<desc>lat.=55.837711, lon.=26.044872, Alt.=151.330200m. Speed=7.596000m/h.</desc>
<speed>2.110000</speed>
</trkpt>
<trkpt lat="55.837700" lon="26.044901">
<ele>151.248169</ele>
<time>2010-07-17T15:14:05Z</time>
<desc>lat.=55.837700, lon.=26.044901, Alt.=151.248169m. Speed=7.596000m/h.</desc>
<speed>2.110000</speed>
</trkpt>
<trkpt lat="55.837696" lon="26.044914">
<ele>151.115356</ele>
<time>2010-07-17T15:14:06Z</time>
<desc>lat.=55.837696, lon.=26.044914, Alt.=151.115356m. Speed=6.156000m/h.</desc>
<speed>1.710000</speed>
</trkpt>
<trkpt lat="55.837685" lon="26.044933">
<ele>150.951294</ele>
<time>2010-07-17T15:14:07Z</time>
<desc>lat.=55.837685, lon.=26.044933, Alt.=150.951294m. Speed=5.940000m/h.</desc>
<speed>1.650000</speed>
</trkpt>
<trkpt lat="55.837677" lon="26.044954">
<ele>150.802856</ele>
<time>2010-07-17T15:14:08Z</time>
<desc>lat.=55.837677, lon.=26.044954, Alt.=150.802856m. Speed=6.444000m/h.</desc>
<speed>1.790000</speed>
</trkpt>
<trkpt lat="55.837669" lon="26.044973">
<ele>150.713013</ele>
<time>2010-07-17T15:14:09Z</time>
<desc>lat.=55.837669, lon.=26.044973, Alt.=150.713013m. Speed=4.608000m/h.</desc>
<speed>1.280000</speed>
</trkpt>
<trkpt lat="55.837662" lon="26.044991">
<ele>150.619263</ele>
<time>2010-07-17T15:14:10Z</time>
<desc>lat.=55.837662, lon.=26.044991, Alt.=150.619263m. Speed=4.464000m/h.</desc>
<speed>1.240000</speed>
</trkpt>
<trkpt lat="55.837654" lon="26.045006">
<ele>150.744263</ele>
<time>2010-07-17T15:14:11Z</time>
<desc>lat.=55.837654, lon.=26.045006, Alt.=150.744263m. Speed=3.384000m/h.</desc>
<speed>0.940000</speed>
</trkpt>
<trkpt lat="55.837650" lon="26.045012">
<ele>150.771606</ele>
<time>2010-07-17T15:14:12Z</time>
<desc>lat.=55.837650, lon.=26.045012, Alt.=150.771606m. Speed=1.224000m/h.</desc>
<speed>0.340000</speed>
</trkpt>
<trkpt lat="55.837650" lon="26.045013">
<ele>150.724731</ele>
<time>2010-07-17T15:14:13Z</time>
<desc>lat.=55.837650, lon.=26.045013, Alt.=150.724731m. Speed=0.756000m/h.</desc>
<speed>0.210000</speed>
</trkpt>
<trkpt lat="55.837646" lon="26.045021">
<ele>150.209106</ele>
<time>2010-07-17T15:14:14Z</time>
<desc>lat.=55.837646, lon.=26.045021, Alt.=150.209106m. Speed=0.252000m/h.</desc>
<speed>0.070000</speed>
</trkpt>
<trkpt lat="55.837646" lon="26.045021">
<ele>150.220825</ele>
<time>2010-07-17T15:14:15Z</time>
<desc>lat.=55.837646, lon.=26.045021, Alt.=150.220825m. Speed=0.216000m/h.</desc>
<speed>0.060000</speed>
</trkpt>
<trkpt lat="55.837643" lon="26.045021">
<ele>150.232544</ele>
<time>2010-07-17T15:14:16Z</time>
<desc>lat.=55.837643, lon.=26.045021, Alt.=150.232544m. Speed=0.288000m/h.</desc>
<speed>0.080000</speed>
</trkpt>
<trkpt lat="55.837643" lon="26.045023">
<ele>150.236450</ele>
<time>2010-07-17T15:14:17Z</time>
<desc>lat.=55.837643, lon.=26.045023, Alt.=150.236450m. Speed=0.000000m/h.</desc>
<speed>0.000000</speed>
</trkpt>
<trkpt lat="55.837643" lon="26.045023">
<ele>150.228638</ele>
<time>2010-07-17T15:14:18Z</time>
<desc>lat.=55.837643, lon.=26.045023, Alt.=150.228638m. Speed=0.072000m/h.</desc>
<speed>0.020000</speed>
</trkpt>
<trkpt lat="55.837643" lon="26.045023">
<ele>150.216919</ele>
<time>2010-07-17T15:14:19Z</time>
<desc>lat.=55.837643, lon.=26.045023, Alt.=150.216919m. Speed=0.036000m/h.</desc>
<speed>0.010000</speed>
</trkpt>
<trkpt lat="55.837643" lon="26.045023">
<ele>150.216919</ele>
<time>2010-07-17T15:14:20Z</time>
<desc>lat.=55.837643, lon.=26.045023, Alt.=150.216919m. Speed=0.000000m/h.</desc>
<speed>0.000000</speed>
</trkpt>
<trkpt lat="55.837643" lon="26.045023">
<ele>150.216919</ele>
<time>2010-07-17T15:14:21Z</time>
<desc>lat.=55.837643, lon.=26.045023, Alt.=150.216919m. Speed=0.180000m/h.</desc>
<speed>0.050000</speed>
</trkpt>
<trkpt lat="55.837643" lon="26.045023">
<ele>150.220825</ele>
<time>2010-07-17T15:14:22Z</time>
<desc>lat.=55.837643, lon.=26.045023, Alt.=150.220825m. Speed=0.216000m/h.</desc>
<speed>0.060000</speed>
</trkpt>
<trkpt lat="55.837643" lon="26.045023">
<ele>150.236450</ele>
<time>2010-07-17T15:14:23Z</time>
<desc>lat.=55.837643, lon.=26.045023, Alt.=150.236450m. Speed=0.072000m/h.</desc>
<speed>0.020000</speed>
</trkpt>
<trkpt lat="55.837643" lon="26.045023">
<ele>150.232544</ele>
<time>2010-07-17T15:14:24Z</time>
<desc>lat.=55.837643, lon.=26.045023, Alt.=150.232544m. Speed=0.072000m/h.</desc>
<speed>0.020000</speed>
</trkpt>
<trkpt lat="55.837643" lon="26.045023">
<ele>150.224731</ele>
<time>2010-07-17T15:14:25Z</time>
<desc>lat.=55.837643, lon.=26.045023, Alt.=150.224731m. Speed=0.000000m/h.</desc>
<speed>0.000000</speed>
</trkpt>
<trkpt lat="55.837643" lon="26.045023">
<ele>150.220825</ele>
<time>2010-07-17T15:14:26Z</time>
<desc>lat.=55.837643, lon.=26.045023, Alt.=150.220825m. Speed=0.000000m/h.</desc>
<speed>0.000000</speed>
</trkpt>
<trkpt lat="55.837643" lon="26.045023">
<ele>150.216919</ele>
<time>2010-07-17T15:14:27Z</time>
<desc>lat.=55.837643, lon.=26.045023, Alt.=150.216919m. Speed=0.000000m/h.</desc>
<speed>0.000000</speed>
</trkpt>
<trkpt lat="55.837643" lon="26.045023">
<ele>150.201294</ele>
<time>2010-07-17T15:14:28Z</time>
<desc>lat.=55.837643, lon.=26.045023, Alt.=150.201294m. Speed=0.000000m/h.</desc>
<speed>0.000000</speed>
</trkpt>
<trkpt lat="55.837643" lon="26.045023">
<ele>150.185669</ele>
<time>2010-07-17T15:14:29Z</time>
<desc>lat.=55.837643, lon.=26.045023, Alt.=150.185669m. Speed=0.000000m/h.</desc>
<speed>0.000000</speed>
</trkpt>
<trkpt lat="55.837643" lon="26.045023">
<ele>150.177856</ele>
<time>2010-07-17T15:14:30Z</time>
<desc>lat.=55.837643, lon.=26.045023, Alt.=150.177856m. Speed=0.072000m/h.</desc>
<speed>0.020000</speed>
</trkpt>
<trkpt lat="55.837643" lon="26.045023">
<ele>150.166138</ele>
<time>2010-07-17T15:14:31Z</time>
<desc>lat.=55.837643, lon.=26.045023, Alt.=150.166138m. Speed=0.072000m/h.</desc>
<speed>0.020000</speed>
</trkpt>
<trkpt lat="55.837643" lon="26.045023">
<ele>150.158325</ele>
<time>2010-07-17T15:14:32Z</time>
<desc>lat.=55.837643, lon.=26.045023, Alt.=150.158325m. Speed=0.000000m/h.</desc>
<speed>0.000000</speed>
</trkpt>
<trkpt lat="55.837643" lon="26.045023">
<ele>150.158325</ele>
<time>2010-07-17T15:14:33Z</time>
<desc>lat.=55.837643, lon.=26.045023, Alt.=150.158325m. Speed=0.000000m/h.</desc>
<speed>0.000000</speed>
</trkpt>
<trkpt lat="55.837643" lon="26.045023">
<ele>150.158325</ele>
<time>2010-07-17T15:14:34Z</time>
<desc>lat.=55.837643, lon.=26.045023, Alt.=150.158325m. Speed=0.036000m/h.</desc>
<speed>0.010000</speed>
</trkpt>
<trkpt lat="55.837643" lon="26.045023">
<ele>150.162231</ele>
<time>2010-07-17T15:14:35Z</time>
<desc>lat.=55.837643, lon.=26.045023, Alt.=150.162231m. Speed=0.072000m/h.</desc>
<speed>0.020000</speed>
</trkpt>
<trkpt lat="55.837643" lon="26.045023">
<ele>150.166138</ele>
<time>2010-07-17T15:14:36Z</time>
<desc>lat.=55.837643, lon.=26.045023, Alt.=150.166138m. Speed=0.144000m/h.</desc>
<speed>0.040000</speed>
</trkpt>
<trkpt lat="55.837643" lon="26.045023">
<ele>150.173950</ele>
<time>2010-07-17T15:14:37Z</time>
<desc>lat.=55.837643, lon.=26.045023, Alt.=150.173950m. Speed=0.288000m/h.</desc>
<speed>0.080000</speed>
</trkpt>
<trkpt lat="55.837643" lon="26.045023">
<ele>150.177856</ele>
<time>2010-07-17T15:14:38Z</time>
<desc>lat.=55.837643, lon.=26.045023, Alt.=150.177856m. Speed=0.288000m/h.</desc>
<speed>0.080000</speed>
</trkpt>
<trkpt lat="55.837643" lon="26.045025">
<ele>150.177856</ele>
<time>2010-07-17T15:14:39Z</time>
<desc>lat.=55.837643, lon.=26.045025, Alt.=150.177856m. Speed=0.288000m/h.</desc>
<speed>0.080000</speed>
</trkpt>
<trkpt lat="55.837643" lon="26.045025">
<ele>150.181763</ele>
<time>2010-07-17T15:14:40Z</time>
<desc>lat.=55.837643, lon.=26.045025, Alt.=150.181763m. Speed=0.756000m/h.</desc>
<speed>0.210000</speed>
</trkpt>
<trkpt lat="55.837643" lon="26.045029">
<ele>150.185669</ele>
<time>2010-07-17T15:14:41Z</time>
<desc>lat.=55.837643, lon.=26.045029, Alt.=150.185669m. Speed=2.988000m/h.</desc>
<speed>0.830000</speed>
</trkpt>
<trkpt lat="55.837643" lon="26.045042">
<ele>150.185669</ele>
<time>2010-07-17T15:14:42Z</time>
<desc>lat.=55.837643, lon.=26.045042, Alt.=150.185669m. Speed=4.428000m/h.</desc>
<speed>1.230000</speed>
</trkpt>
<trkpt lat="55.837635" lon="26.045063">
<ele>150.244263</ele>
<time>2010-07-17T15:14:43Z</time>
<desc>lat.=55.837635, lon.=26.045063, Alt.=150.244263m. Speed=4.788000m/h.</desc>
<speed>1.330000</speed>
</trkpt>
<trkpt lat="55.837616" lon="26.045107">
<ele>150.310669</ele>
<time>2010-07-17T15:14:44Z</time>
<desc>lat.=55.837616, lon.=26.045107, Alt.=150.310669m. Speed=7.416000m/h.</desc>
<speed>2.060000</speed>
</trkpt>
<trkpt lat="55.837597" lon="26.045162">
<ele>150.244263</ele>
<time>2010-07-17T15:14:45Z</time>
<desc>lat.=55.837597, lon.=26.045162, Alt.=150.244263m. Speed=12.996000m/h.</desc>
<speed>3.610000</speed>
</trkpt>
<trkpt lat="55.837574" lon="26.045219">
<ele>150.326294</ele>
<time>2010-07-17T15:14:46Z</time>
<desc>lat.=55.837574, lon.=26.045219, Alt.=150.326294m. Speed=13.680000m/h.</desc>
<speed>3.800000</speed>
</trkpt>
<trkpt lat="55.837543" lon="26.045290">
<ele>150.130981</ele>
<time>2010-07-17T15:14:47Z</time>
<desc>lat.=55.837543, lon.=26.045290, Alt.=150.130981m. Speed=13.752000m/h.</desc>
<speed>3.820000</speed>
</trkpt>
<trkpt lat="55.837524" lon="26.045343">
<ele>150.216919</ele>
<time>2010-07-17T15:14:48Z</time>
<desc>lat.=55.837524, lon.=26.045343, Alt.=150.216919m. Speed=13.356000m/h.</desc>
<speed>3.710000</speed>
</trkpt>
<trkpt lat="55.837509" lon="26.045395">
<ele>150.248169</ele>
<time>2010-07-17T15:14:49Z</time>
<desc>lat.=55.837509, lon.=26.045395, Alt.=150.248169m. Speed=12.744000m/h.</desc>
<speed>3.540000</speed>
</trkpt>
<trkpt lat="55.837479" lon="26.045464">
<ele>150.134888</ele>
<time>2010-07-17T15:14:50Z</time>
<desc>lat.=55.837479, lon.=26.045464, Alt.=150.134888m. Speed=14.616000m/h.</desc>
<speed>4.060000</speed>
</trkpt>
<trkpt lat="55.837452" lon="26.045540">
<ele>149.970825</ele>
<time>2010-07-17T15:14:51Z</time>
<desc>lat.=55.837452, lon.=26.045540, Alt.=149.970825m. Speed=16.056000m/h.</desc>
<speed>4.460000</speed>
</trkpt>
<trkpt lat="55.837433" lon="26.045605">
<ele>149.920044</ele>
<time>2010-07-17T15:14:52Z</time>
<desc>lat.=55.837433, lon.=26.045605, Alt.=149.920044m. Speed=15.912000m/h.</desc>
<speed>4.420000</speed>
</trkpt>
<trkpt lat="55.837410" lon="26.045666">
<ele>149.880981</ele>
<time>2010-07-17T15:14:53Z</time>
<desc>lat.=55.837410, lon.=26.045666, Alt.=149.880981m. Speed=15.804000m/h.</desc>
<speed>4.390000</speed>
</trkpt>
<trkpt lat="55.837387" lon="26.045729">
<ele>149.834106</ele>
<time>2010-07-17T15:14:54Z</time>
<desc>lat.=55.837387, lon.=26.045729, Alt.=149.834106m. Speed=16.596001m/h.</desc>
<speed>4.610000</speed>
</trkpt>
<trkpt lat="55.837364" lon="26.045794">
<ele>149.806763</ele>
<time>2010-07-17T15:14:55Z</time>
<desc>lat.=55.837364, lon.=26.045794, Alt.=149.806763m. Speed=17.496000m/h.</desc>
<speed>4.860000</speed>
</trkpt>
<trkpt lat="55.837345" lon="26.045864">
<ele>149.634888</ele>
<time>2010-07-17T15:14:56Z</time>
<desc>lat.=55.837345, lon.=26.045864, Alt.=149.634888m. Speed=16.524000m/h.</desc>
<speed>4.590000</speed>
</trkpt>
<trkpt lat="55.837326" lon="26.045933">
<ele>149.588013</ele>
<time>2010-07-17T15:14:57Z</time>
<desc>lat.=55.837326, lon.=26.045933, Alt.=149.588013m. Speed=17.424000m/h.</desc>
<speed>4.840000</speed>
</trkpt>
<trkpt lat="55.837303" lon="26.046007">
<ele>149.470825</ele>
<time>2010-07-17T15:14:58Z</time>
<desc>lat.=55.837303, lon.=26.046007, Alt.=149.470825m. Speed=17.820000m/h.</desc>
<speed>4.950000</speed>
</trkpt>
<trkpt lat="55.837280" lon="26.046076">
<ele>149.361450</ele>
<time>2010-07-17T15:14:59Z</time>
<desc>lat.=55.837280, lon.=26.046076, Alt.=149.361450m. Speed=17.424000m/h.</desc>
<speed>4.840000</speed>
</trkpt>
<trkpt lat="55.837250" lon="26.046156">
<ele>149.170044</ele>
<time>2010-07-17T15:15:00Z</time>
<desc>lat.=55.837250, lon.=26.046156, Alt.=149.170044m. Speed=17.747999m/h.</desc>
<speed>4.930000</speed>
</trkpt>
<trkpt lat="55.837223" lon="26.046234">
<ele>149.080200</ele>
<time>2010-07-17T15:15:01Z</time>
<desc>lat.=55.837223, lon.=26.046234, Alt.=149.080200m. Speed=19.656000m/h.</desc>
<speed>5.460000</speed>
</trkpt>
<trkpt lat="55.837196" lon="26.046312">
<ele>148.896606</ele>
<time>2010-07-17T15:15:02Z</time>
<desc>lat.=55.837196, lon.=26.046312, Alt.=148.896606m. Speed=18.827999m/h.</desc>
<speed>5.230000</speed>
</trkpt>
<trkpt lat="55.837173" lon="26.046392">
<ele>148.662231</ele>
<time>2010-07-17T15:15:03Z</time>
<desc>lat.=55.837173, lon.=26.046392, Alt.=148.662231m. Speed=19.044001m/h.</desc>
<speed>5.290000</speed>
</trkpt>
<trkpt lat="55.837154" lon="26.046465">
<ele>148.537231</ele>
<time>2010-07-17T15:15:04Z</time>
<desc>lat.=55.837154, lon.=26.046465, Alt.=148.537231m. Speed=18.827999m/h.</desc>
<speed>5.230000</speed>
</trkpt>
<trkpt lat="55.837128" lon="26.046534">
<ele>148.431763</ele>
<time>2010-07-17T15:15:05Z</time>
<desc>lat.=55.837128, lon.=26.046534, Alt.=148.431763m. Speed=18.576000m/h.</desc>
<speed>5.160000</speed>
</trkpt>
<trkpt lat="55.837105" lon="26.046598">
<ele>148.447388</ele>
<time>2010-07-17T15:15:06Z</time>
<desc>lat.=55.837105, lon.=26.046598, Alt.=148.447388m. Speed=18.684000m/h.</desc>
<speed>5.190000</speed>
</trkpt>
<trkpt lat="55.837082" lon="26.046675">
<ele>148.158325</ele>
<time>2010-07-17T15:15:07Z</time>
<desc>lat.=55.837082, lon.=26.046675, Alt.=148.158325m. Speed=19.152000m/h.</desc>
<speed>5.320000</speed>
</trkpt>
<trkpt lat="55.837055" lon="26.046753">
<ele>147.865356</ele>
<time>2010-07-17T15:15:08Z</time>
<desc>lat.=55.837055, lon.=26.046753, Alt.=147.865356m. Speed=19.548000m/h.</desc>
<speed>5.430000</speed>
</trkpt>
<trkpt lat="55.837025" lon="26.046818">
<ele>147.670044</ele>
<time>2010-07-17T15:15:09Z</time>
<desc>lat.=55.837025, lon.=26.046818, Alt.=147.670044m. Speed=16.596001m/h.</desc>
<speed>4.610000</speed>
</trkpt>
<trkpt lat="55.836994" lon="26.046869">
<ele>147.638794</ele>
<time>2010-07-17T15:15:10Z</time>
<desc>lat.=55.836994, lon.=26.046869, Alt.=147.638794m. Speed=13.320000m/h.</desc>
<speed>3.700000</speed>
</trkpt>
<trkpt lat="55.836971" lon="26.046915">
<ele>147.533325</ele>
<time>2010-07-17T15:15:11Z</time>
<desc>lat.=55.836971, lon.=26.046915, Alt.=147.533325m. Speed=11.556000m/h.</desc>
<speed>3.210000</speed>
</trkpt>
<trkpt lat="55.836948" lon="26.046944">
<ele>147.529419</ele>
<time>2010-07-17T15:15:12Z</time>
<desc>lat.=55.836948, lon.=26.046944, Alt.=147.529419m. Speed=9.432000m/h.</desc>
<speed>2.620000</speed>
</trkpt>
<trkpt lat="55.836929" lon="26.046963">
<ele>147.396606</ele>
<time>2010-07-17T15:15:13Z</time>
<desc>lat.=55.836929, lon.=26.046963, Alt.=147.396606m. Speed=6.876000m/h.</desc>
<speed>1.910000</speed>
</trkpt>
<trkpt lat="55.836918" lon="26.046978">
<ele>147.248169</ele>
<time>2010-07-17T15:15:14Z</time>
<desc>lat.=55.836918, lon.=26.046978, Alt.=147.248169m. Speed=5.400000m/h.</desc>
<speed>1.500000</speed>
</trkpt>
<trkpt lat="55.836910" lon="26.046982">
<ele>147.072388</ele>
<time>2010-07-17T15:15:15Z</time>
<desc>lat.=55.836910, lon.=26.046982, Alt.=147.072388m. Speed=2.160000m/h.</desc>
<speed>0.600000</speed>
</trkpt>
<trkpt lat="55.836906" lon="26.046974">
<ele>146.959106</ele>
<time>2010-07-17T15:15:16Z</time>
<desc>lat.=55.836906, lon.=26.046974, Alt.=146.959106m. Speed=0.540000m/h.</desc>
<speed>0.150000</speed>
</trkpt>
<trkpt lat="55.836903" lon="26.046968">
<ele>147.123169</ele>
<time>2010-07-17T15:15:17Z</time>
<desc>lat.=55.836903, lon.=26.046968, Alt.=147.123169m. Speed=0.504000m/h.</desc>
<speed>0.140000</speed>
</trkpt>
<trkpt lat="55.836895" lon="26.046967">
<ele>147.248169</ele>
<time>2010-07-17T15:15:18Z</time>
<desc>lat.=55.836895, lon.=26.046967, Alt.=147.248169m. Speed=0.576000m/h.</desc>
<speed>0.160000</speed>
</trkpt>
<trkpt lat="55.836895" lon="26.046970">
<ele>147.209106</ele>
<time>2010-07-17T15:15:19Z</time>
<desc>lat.=55.836895, lon.=26.046970, Alt.=147.209106m. Speed=0.648000m/h.</desc>
<speed>0.180000</speed>
</trkpt>
<trkpt lat="55.836891" lon="26.046970">
<ele>147.185669</ele>
<time>2010-07-17T15:15:20Z</time>
<desc>lat.=55.836891, lon.=26.046970, Alt.=147.185669m. Speed=0.648000m/h.</desc>
<speed>0.180000</speed>
</trkpt>
<trkpt lat="55.836891" lon="26.046972">
<ele>147.173950</ele>
<time>2010-07-17T15:15:21Z</time>
<desc>lat.=55.836891, lon.=26.046972, Alt.=147.173950m. Speed=0.612000m/h.</desc>
<speed>0.170000</speed>
</trkpt>
<trkpt lat="55.836891" lon="26.046974">
<ele>147.166138</ele>
<time>2010-07-17T15:15:22Z</time>
<desc>lat.=55.836891, lon.=26.046974, Alt.=147.166138m. Speed=0.576000m/h.</desc>
<speed>0.160000</speed>
</trkpt>
<trkpt lat="55.836891" lon="26.046974">
<ele>147.162231</ele>
<time>2010-07-17T15:15:23Z</time>
<desc>lat.=55.836891, lon.=26.046974, Alt.=147.162231m. Speed=0.540000m/h.</desc>
<speed>0.150000</speed>
</trkpt>
<trkpt lat="55.836887" lon="26.046976">
<ele>147.162231</ele>
<time>2010-07-17T15:15:24Z</time>
<desc>lat.=55.836887, lon.=26.046976, Alt.=147.162231m. Speed=0.864000m/h.</desc>
<speed>0.240000</speed>
</trkpt>
<trkpt lat="55.836887" lon="26.046978">
<ele>147.162231</ele>
<time>2010-07-17T15:15:25Z</time>
<desc>lat.=55.836887, lon.=26.046978, Alt.=147.162231m. Speed=0.900000m/h.</desc>
<speed>0.250000</speed>
</trkpt>
<trkpt lat="55.836884" lon="26.046978">
<ele>147.170044</ele>
<time>2010-07-17T15:15:26Z</time>
<desc>lat.=55.836884, lon.=26.046978, Alt.=147.170044m. Speed=0.864000m/h.</desc>
<speed>0.240000</speed>
</trkpt>
<trkpt lat="55.836884" lon="26.046982">
<ele>147.170044</ele>
<time>2010-07-17T15:15:27Z</time>
<desc>lat.=55.836884, lon.=26.046982, Alt.=147.170044m. Speed=0.792000m/h.</desc>
<speed>0.220000</speed>
</trkpt>
<trkpt lat="55.836880" lon="26.046984">
<ele>147.173950</ele>
<time>2010-07-17T15:15:28Z</time>
<desc>lat.=55.836880, lon.=26.046984, Alt.=147.173950m. Speed=0.720000m/h.</desc>
<speed>0.200000</speed>
</trkpt>
<trkpt lat="55.836880" lon="26.046986">
<ele>147.177856</ele>
<time>2010-07-17T15:15:29Z</time>
<desc>lat.=55.836880, lon.=26.046986, Alt.=147.177856m. Speed=0.612000m/h.</desc>
<speed>0.170000</speed>
</trkpt>
<trkpt lat="55.836876" lon="26.046986">
<ele>147.181763</ele>
<time>2010-07-17T15:15:30Z</time>
<desc>lat.=55.836876, lon.=26.046986, Alt.=147.181763m. Speed=0.576000m/h.</desc>
<speed>0.160000</speed>
</trkpt>
<trkpt lat="55.836876" lon="26.046988">
<ele>147.189575</ele>
<time>2010-07-17T15:15:31Z</time>
<desc>lat.=55.836876, lon.=26.046988, Alt.=147.189575m. Speed=0.540000m/h.</desc>
<speed>0.150000</speed>
</trkpt>
<trkpt lat="55.836876" lon="26.046988">
<ele>147.193481</ele>
<time>2010-07-17T15:15:32Z</time>
<desc>lat.=55.836876, lon.=26.046988, Alt.=147.193481m. Speed=0.432000m/h.</desc>
<speed>0.120000</speed>
</trkpt>
<trkpt lat="55.836872" lon="26.046988">
<ele>147.197388</ele>
<time>2010-07-17T15:15:33Z</time>
<desc>lat.=55.836872, lon.=26.046988, Alt.=147.197388m. Speed=0.396000m/h.</desc>
<speed>0.110000</speed>
</trkpt>
<trkpt lat="55.836872" lon="26.046988">
<ele>147.205200</ele>
<time>2010-07-17T15:15:34Z</time>
<desc>lat.=55.836872, lon.=26.046988, Alt.=147.205200m. Speed=0.360000m/h.</desc>
<speed>0.100000</speed>
</trkpt>
<trkpt lat="55.836872" lon="26.046988">
<ele>147.213013</ele>
<time>2010-07-17T15:15:35Z</time>
<desc>lat.=55.836872, lon.=26.046988, Alt.=147.213013m. Speed=0.108000m/h.</desc>
<speed>0.030000</speed>
</trkpt>
<trkpt lat="55.836872" lon="26.046988">
<ele>147.220825</ele>
<time>2010-07-17T15:15:36Z</time>
<desc>lat.=55.836872, lon.=26.046988, Alt.=147.220825m. Speed=0.144000m/h.</desc>
<speed>0.040000</speed>
</trkpt>
<trkpt lat="55.836868" lon="26.046986">
<ele>147.228638</ele>
<time>2010-07-17T15:15:37Z</time>
<desc>lat.=55.836868, lon.=26.046986, Alt.=147.228638m. Speed=1.116000m/h.</desc>
<speed>0.310000</speed>
</trkpt>
<trkpt lat="55.836872" lon="26.046989">
<ele>147.228638</ele>
<time>2010-07-17T15:15:38Z</time>
<desc>lat.=55.836872, lon.=26.046989, Alt.=147.228638m. Speed=1.548000m/h.</desc>
<speed>0.430000</speed>
</trkpt>
<trkpt lat="55.836872" lon="26.046997">
<ele>147.220825</ele>
<time>2010-07-17T15:15:39Z</time>
<desc>lat.=55.836872, lon.=26.046997, Alt.=147.220825m. Speed=1.728000m/h.</desc>
<speed>0.480000</speed>
</trkpt>
<trkpt lat="55.836872" lon="26.047007">
<ele>147.216919</ele>
<time>2010-07-17T15:15:40Z</time>
<desc>lat.=55.836872, lon.=26.047007, Alt.=147.216919m. Speed=2.052000m/h.</desc>
<speed>0.570000</speed>
</trkpt>
<trkpt lat="55.836872" lon="26.047016">
<ele>147.213013</ele>
<time>2010-07-17T15:15:41Z</time>
<desc>lat.=55.836872, lon.=26.047016, Alt.=147.213013m. Speed=2.592000m/h.</desc>
<speed>0.720000</speed>
</trkpt>
<trkpt lat="55.836868" lon="26.047026">
<ele>147.209106</ele>
<time>2010-07-17T15:15:42Z</time>
<desc>lat.=55.836868, lon.=26.047026, Alt.=147.209106m. Speed=2.124000m/h.</desc>
<speed>0.590000</speed>
</trkpt>
<trkpt lat="55.836868" lon="26.047035">
<ele>147.209106</ele>
<time>2010-07-17T15:15:43Z</time>
<desc>lat.=55.836868, lon.=26.047035, Alt.=147.209106m. Speed=0.936000m/h.</desc>
<speed>0.260000</speed>
</trkpt>
<trkpt lat="55.836868" lon="26.047039">
<ele>147.220825</ele>
<time>2010-07-17T15:15:44Z</time>
<desc>lat.=55.836868, lon.=26.047039, Alt.=147.220825m. Speed=0.828000m/h.</desc>
<speed>0.230000</speed>
</trkpt>
<trkpt lat="55.836868" lon="26.047043">
<ele>147.232544</ele>
<time>2010-07-17T15:15:45Z</time>
<desc>lat.=55.836868, lon.=26.047043, Alt.=147.232544m. Speed=0.360000m/h.</desc>
<speed>0.100000</speed>
</trkpt>
<trkpt lat="55.836868" lon="26.047045">
<ele>147.252075</ele>
<time>2010-07-17T15:15:46Z</time>
<desc>lat.=55.836868, lon.=26.047045, Alt.=147.252075m. Speed=0.324000m/h.</desc>
<speed>0.090000</speed>
</trkpt>
<trkpt lat="55.836868" lon="26.047047">
<ele>147.267700</ele>
<time>2010-07-17T15:15:47Z</time>
<desc>lat.=55.836868, lon.=26.047047, Alt.=147.267700m. Speed=0.360000m/h.</desc>
<speed>0.100000</speed>
</trkpt>
<trkpt lat="55.836868" lon="26.047047">
<ele>147.291138</ele>
<time>2010-07-17T15:15:48Z</time>
<desc>lat.=55.836868, lon.=26.047047, Alt.=147.291138m. Speed=0.324000m/h.</desc>
<speed>0.090000</speed>
</trkpt>
<trkpt lat="55.836868" lon="26.047047">
<ele>147.306763</ele>
<time>2010-07-17T15:15:49Z</time>
<desc>lat.=55.836868, lon.=26.047047, Alt.=147.306763m. Speed=0.756000m/h.</desc>
<speed>0.210000</speed>
</trkpt>
<trkpt lat="55.836864" lon="26.047047">
<ele>147.322388</ele>
<time>2010-07-17T15:15:50Z</time>
<desc>lat.=55.836864, lon.=26.047047, Alt.=147.322388m. Speed=0.684000m/h.</desc>
<speed>0.190000</speed>
</trkpt>
<trkpt lat="55.836864" lon="26.047047">
<ele>147.326294</ele>
<time>2010-07-17T15:15:51Z</time>
<desc>lat.=55.836864, lon.=26.047047, Alt.=147.326294m. Speed=0.612000m/h.</desc>
<speed>0.170000</speed>
</trkpt>
<trkpt lat="55.836861" lon="26.047045">
<ele>147.330200</ele>
<time>2010-07-17T15:15:52Z</time>
<desc>lat.=55.836861, lon.=26.047045, Alt.=147.330200m. Speed=0.720000m/h.</desc>
<speed>0.200000</speed>
</trkpt>
<trkpt lat="55.836861" lon="26.047043">
<ele>147.338013</ele>
<time>2010-07-17T15:15:53Z</time>
<desc>lat.=55.836861, lon.=26.047043, Alt.=147.338013m. Speed=0.324000m/h.</desc>
<speed>0.090000</speed>
</trkpt>
<trkpt lat="55.836857" lon="26.047043">
<ele>147.341919</ele>
<time>2010-07-17T15:15:54Z</time>
<desc>lat.=55.836857, lon.=26.047043, Alt.=147.341919m. Speed=0.468000m/h.</desc>
<speed>0.130000</speed>
</trkpt>
<trkpt lat="55.836857" lon="26.047041">
<ele>147.341919</ele>
<time>2010-07-17T15:15:55Z</time>
<desc>lat.=55.836857, lon.=26.047041, Alt.=147.341919m. Speed=0.648000m/h.</desc>
<speed>0.180000</speed>
</trkpt>
<trkpt lat="55.836857" lon="26.047039">
<ele>147.341919</ele>
<time>2010-07-17T15:15:56Z</time>
<desc>lat.=55.836857, lon.=26.047039, Alt.=147.341919m. Speed=0.756000m/h.</desc>
<speed>0.210000</speed>
</trkpt>
<trkpt lat="55.836853" lon="26.047037">
<ele>147.353638</ele>
<time>2010-07-17T15:15:57Z</time>
<desc>lat.=55.836853, lon.=26.047037, Alt.=147.353638m. Speed=1.116000m/h.</desc>
<speed>0.310000</speed>
</trkpt>
<trkpt lat="55.836853" lon="26.047035">
<ele>147.361450</ele>
<time>2010-07-17T15:15:58Z</time>
<desc>lat.=55.836853, lon.=26.047035, Alt.=147.361450m. Speed=1.080000m/h.</desc>
<speed>0.300000</speed>
</trkpt>
<trkpt lat="55.836849" lon="26.047033">
<ele>147.369263</ele>
<time>2010-07-17T15:15:59Z</time>
<desc>lat.=55.836849, lon.=26.047033, Alt.=147.369263m. Speed=0.900000m/h.</desc>
<speed>0.250000</speed>
</trkpt>
<trkpt lat="55.836845" lon="26.047031">
<ele>147.369263</ele>
<time>2010-07-17T15:16:00Z</time>
<desc>lat.=55.836845, lon.=26.047031, Alt.=147.369263m. Speed=1.008000m/h.</desc>
<speed>0.280000</speed>
</trkpt>
<trkpt lat="55.836845" lon="26.047029">
<ele>147.373169</ele>
<time>2010-07-17T15:16:01Z</time>
<desc>lat.=55.836845, lon.=26.047029, Alt.=147.373169m. Speed=1.080000m/h.</desc>
<speed>0.300000</speed>
</trkpt>
<trkpt lat="55.836842" lon="26.047028">
<ele>147.380981</ele>
<time>2010-07-17T15:16:02Z</time>
<desc>lat.=55.836842, lon.=26.047028, Alt.=147.380981m. Speed=1.080000m/h.</desc>
<speed>0.300000</speed>
</trkpt>
<trkpt lat="55.836838" lon="26.047026">
<ele>147.384888</ele>
<time>2010-07-17T15:16:03Z</time>
<desc>lat.=55.836838, lon.=26.047026, Alt.=147.384888m. Speed=1.152000m/h.</desc>
<speed>0.320000</speed>
</trkpt>
<trkpt lat="55.836838" lon="26.047024">
<ele>147.392700</ele>
<time>2010-07-17T15:16:04Z</time>
<desc>lat.=55.836838, lon.=26.047024, Alt.=147.392700m. Speed=1.152000m/h.</desc>
<speed>0.320000</speed>
</trkpt>
<trkpt lat="55.836834" lon="26.047020">
<ele>147.400513</ele>
<time>2010-07-17T15:16:05Z</time>
<desc>lat.=55.836834, lon.=26.047020, Alt.=147.400513m. Speed=1.188000m/h.</desc>
<speed>0.330000</speed>
</trkpt>
<trkpt lat="55.836830" lon="26.047016">
<ele>147.404419</ele>
<time>2010-07-17T15:16:06Z</time>
<desc>lat.=55.836830, lon.=26.047016, Alt.=147.404419m. Speed=1.080000m/h.</desc>
<speed>0.300000</speed>
</trkpt>
<trkpt lat="55.836830" lon="26.047014">
<ele>147.404419</ele>
<time>2010-07-17T15:16:07Z</time>
<desc>lat.=55.836830, lon.=26.047014, Alt.=147.404419m. Speed=1.116000m/h.</desc>
<speed>0.310000</speed>
</trkpt>
<trkpt lat="55.836826" lon="26.047014">
<ele>147.412231</ele>
<time>2010-07-17T15:16:08Z</time>
<desc>lat.=55.836826, lon.=26.047014, Alt.=147.412231m. Speed=1.044000m/h.</desc>
<speed>0.290000</speed>
</trkpt>
<trkpt lat="55.836823" lon="26.047012">
<ele>147.420044</ele>
<time>2010-07-17T15:16:09Z</time>
<desc>lat.=55.836823, lon.=26.047012, Alt.=147.420044m. Speed=0.936000m/h.</desc>
<speed>0.260000</speed>
</trkpt>
<trkpt lat="55.836823" lon="26.047009">
<ele>147.427856</ele>
<time>2010-07-17T15:16:10Z</time>
<desc>lat.=55.836823, lon.=26.047009, Alt.=147.427856m. Speed=1.260000m/h.</desc>
<speed>0.350000</speed>
</trkpt>
<trkpt lat="55.836819" lon="26.047007">
<ele>147.439575</ele>
<time>2010-07-17T15:16:11Z</time>
<desc>lat.=55.836819, lon.=26.047007, Alt.=147.439575m. Speed=0.756000m/h.</desc>
<speed>0.210000</speed>
</trkpt>
<trkpt lat="55.836819" lon="26.047003">
<ele>147.427856</ele>
<time>2010-07-17T15:16:12Z</time>
<desc>lat.=55.836819, lon.=26.047003, Alt.=147.427856m. Speed=1.728000m/h.</desc>
<speed>0.480000</speed>
</trkpt>
<trkpt lat="55.836815" lon="26.046999">
<ele>147.431763</ele>
<time>2010-07-17T15:16:13Z</time>
<desc>lat.=55.836815, lon.=26.046999, Alt.=147.431763m. Speed=1.656000m/h.</desc>
<speed>0.460000</speed>
</trkpt>
<trkpt lat="55.836815" lon="26.046993">
<ele>147.466919</ele>
<time>2010-07-17T15:16:14Z</time>
<desc>lat.=55.836815, lon.=26.046993, Alt.=147.466919m. Speed=3.420000m/h.</desc>
<speed>0.950000</speed>
</trkpt>
<trkpt lat="55.836811" lon="26.046980">
<ele>147.517700</ele>
<time>2010-07-17T15:16:15Z</time>
<desc>lat.=55.836811, lon.=26.046980, Alt.=147.517700m. Speed=2.448000m/h.</desc>
<speed>0.680000</speed>
</trkpt>
<trkpt lat="55.836807" lon="26.046968">
<ele>147.541138</ele>
<time>2010-07-17T15:16:16Z</time>
<desc>lat.=55.836807, lon.=26.046968, Alt.=147.541138m. Speed=1.980000m/h.</desc>
<speed>0.550000</speed>
</trkpt>
<trkpt lat="55.836811" lon="26.046961">
<ele>147.564575</ele>
<time>2010-07-17T15:16:17Z</time>
<desc>lat.=55.836811, lon.=26.046961, Alt.=147.564575m. Speed=2.016000m/h.</desc>
<speed>0.560000</speed>
</trkpt>
<trkpt lat="55.836815" lon="26.046959">
<ele>147.580200</ele>
<time>2010-07-17T15:16:18Z</time>
<desc>lat.=55.836815, lon.=26.046959, Alt.=147.580200m. Speed=1.980000m/h.</desc>
<speed>0.550000</speed>
</trkpt>
<trkpt lat="55.836819" lon="26.046957">
<ele>147.599731</ele>
<time>2010-07-17T15:16:19Z</time>
<desc>lat.=55.836819, lon.=26.046957, Alt.=147.599731m. Speed=2.160000m/h.</desc>
<speed>0.600000</speed>
</trkpt>
<trkpt lat="55.836826" lon="26.046957">
<ele>147.619263</ele>
<time>2010-07-17T15:16:20Z</time>
<desc>lat.=55.836826, lon.=26.046957, Alt.=147.619263m. Speed=3.312000m/h.</desc>
<speed>0.920000</speed>
</trkpt>
<trkpt lat="55.836834" lon="26.046957">
<ele>147.634888</ele>
<time>2010-07-17T15:16:21Z</time>
<desc>lat.=55.836834, lon.=26.046957, Alt.=147.634888m. Speed=3.096000m/h.</desc>
<speed>0.860000</speed>
</trkpt>
<trkpt lat="55.836842" lon="26.046955">
<ele>147.654419</ele>
<time>2010-07-17T15:16:22Z</time>
<desc>lat.=55.836842, lon.=26.046955, Alt.=147.654419m. Speed=1.152000m/h.</desc>
<speed>0.320000</speed>
</trkpt>
<trkpt lat="55.836845" lon="26.046957">
<ele>147.673950</ele>
<time>2010-07-17T15:16:23Z</time>
<desc>lat.=55.836845, lon.=26.046957, Alt.=147.673950m. Speed=1.872000m/h.</desc>
<speed>0.520000</speed>
</trkpt>
<trkpt lat="55.836845" lon="26.046949">
<ele>147.654419</ele>
<time>2010-07-17T15:16:24Z</time>
<desc>lat.=55.836845, lon.=26.046949, Alt.=147.654419m. Speed=1.584000m/h.</desc>
<speed>0.440000</speed>
</trkpt>
<trkpt lat="55.836849" lon="26.046946">
<ele>147.603638</ele>
<time>2010-07-17T15:16:25Z</time>
<desc>lat.=55.836849, lon.=26.046946, Alt.=147.603638m. Speed=0.864000m/h.</desc>
<speed>0.240000</speed>
</trkpt>
<trkpt lat="55.836853" lon="26.046944">
<ele>147.556763</ele>
<time>2010-07-17T15:16:26Z</time>
<desc>lat.=55.836853, lon.=26.046944, Alt.=147.556763m. Speed=0.720000m/h.</desc>
<speed>0.200000</speed>
</trkpt>
<trkpt lat="55.836853" lon="26.046944">
<ele>147.525513</ele>
<time>2010-07-17T15:16:27Z</time>
<desc>lat.=55.836853, lon.=26.046944, Alt.=147.525513m. Speed=0.540000m/h.</desc>
<speed>0.150000</speed>
</trkpt>
<trkpt lat="55.836853" lon="26.046944">
<ele>147.502075</ele>
<time>2010-07-17T15:16:28Z</time>
<desc>lat.=55.836853, lon.=26.046944, Alt.=147.502075m. Speed=1.044000m/h.</desc>
<speed>0.290000</speed>
</trkpt>
<trkpt lat="55.836857" lon="26.046944">
<ele>147.482544</ele>
<time>2010-07-17T15:16:29Z</time>
<desc>lat.=55.836857, lon.=26.046944, Alt.=147.482544m. Speed=1.332000m/h.</desc>
<speed>0.370000</speed>
</trkpt>
<trkpt lat="55.836861" lon="26.046944">
<ele>147.459106</ele>
<time>2010-07-17T15:16:30Z</time>
<desc>lat.=55.836861, lon.=26.046944, Alt.=147.459106m. Speed=2.304000m/h.</desc>
<speed>0.640000</speed>
</trkpt>
<trkpt lat="55.836864" lon="26.046946">
<ele>147.435669</ele>
<time>2010-07-17T15:16:31Z</time>
<desc>lat.=55.836864, lon.=26.046946, Alt.=147.435669m. Speed=2.700000m/h.</desc>
<speed>0.750000</speed>
</trkpt>
<trkpt lat="55.836872" lon="26.046947">
<ele>147.408325</ele>
<time>2010-07-17T15:16:32Z</time>
<desc>lat.=55.836872, lon.=26.046947, Alt.=147.408325m. Speed=3.888000m/h.</desc>
<speed>1.080000</speed>
</trkpt>
<trkpt lat="55.836884" lon="26.046968">
<ele>148.048950</ele>
<time>2010-07-17T15:16:33Z</time>
<desc>lat.=55.836884, lon.=26.046968, Alt.=148.048950m. Speed=2.664000m/h.</desc>
<speed>0.740000</speed>
</trkpt>
<trkpt lat="55.836899" lon="26.046988">
<ele>148.736450</ele>
<time>2010-07-17T15:16:34Z</time>
<desc>lat.=55.836899, lon.=26.046988, Alt.=148.736450m. Speed=3.420000m/h.</desc>
<speed>0.950000</speed>
</trkpt>
<trkpt lat="55.836914" lon="26.046999">
<ele>148.650513</ele>
<time>2010-07-17T15:16:35Z</time>
<desc>lat.=55.836914, lon.=26.046999, Alt.=148.650513m. Speed=5.328000m/h.</desc>
<speed>1.480000</speed>
</trkpt>
<trkpt lat="55.836926" lon="26.047020">
<ele>148.728638</ele>
<time>2010-07-17T15:16:36Z</time>
<desc>lat.=55.836926, lon.=26.047020, Alt.=148.728638m. Speed=4.284000m/h.</desc>
<speed>1.190000</speed>
</trkpt>
<trkpt lat="55.836933" lon="26.047043">
<ele>148.771606</ele>
<time>2010-07-17T15:16:37Z</time>
<desc>lat.=55.836933, lon.=26.047043, Alt.=148.771606m. Speed=4.212000m/h.</desc>
<speed>1.170000</speed>
</trkpt>
<trkpt lat="55.836945" lon="26.047064">
<ele>148.865356</ele>
<time>2010-07-17T15:16:38Z</time>
<desc>lat.=55.836945, lon.=26.047064, Alt.=148.865356m. Speed=5.904000m/h.</desc>
<speed>1.640000</speed>
</trkpt>
<trkpt lat="55.836956" lon="26.047081">
<ele>148.959106</ele>
<time>2010-07-17T15:16:39Z</time>
<desc>lat.=55.836956, lon.=26.047081, Alt.=148.959106m. Speed=3.996000m/h.</desc>
<speed>1.110000</speed>
</trkpt>
<trkpt lat="55.836964" lon="26.047092">
<ele>149.197388</ele>
<time>2010-07-17T15:16:40Z</time>
<desc>lat.=55.836964, lon.=26.047092, Alt.=149.197388m. Speed=3.276000m/h.</desc>
<speed>0.910000</speed>
</trkpt>
<trkpt lat="55.836967" lon="26.047100">
<ele>149.388794</ele>
<time>2010-07-17T15:16:41Z</time>
<desc>lat.=55.836967, lon.=26.047100, Alt.=149.388794m. Speed=2.808000m/h.</desc>
<speed>0.780000</speed>
</trkpt>
<trkpt lat="55.836971" lon="26.047112">
<ele>149.513794</ele>
<time>2010-07-17T15:16:42Z</time>
<desc>lat.=55.836971, lon.=26.047112, Alt.=149.513794m. Speed=3.888000m/h.</desc>
<speed>1.080000</speed>
</trkpt>
<trkpt lat="55.836971" lon="26.047127">
<ele>149.482544</ele>
<time>2010-07-17T15:16:43Z</time>
<desc>lat.=55.836971, lon.=26.047127, Alt.=149.482544m. Speed=0.828000m/h.</desc>
<speed>0.230000</speed>
</trkpt>
<trkpt lat="55.836975" lon="26.047142">
<ele>149.455200</ele>
<time>2010-07-17T15:16:44Z</time>
<desc>lat.=55.836975, lon.=26.047142, Alt.=149.455200m. Speed=1.404000m/h.</desc>
<speed>0.390000</speed>
</trkpt>
<trkpt lat="55.836971" lon="26.047159">
<ele>149.670044</ele>
<time>2010-07-17T15:16:45Z</time>
<desc>lat.=55.836971, lon.=26.047159, Alt.=149.670044m. Speed=1.944000m/h.</desc>
<speed>0.540000</speed>
</trkpt>
<trkpt lat="55.836967" lon="26.047161">
<ele>149.822388</ele>
<time>2010-07-17T15:16:46Z</time>
<desc>lat.=55.836967, lon.=26.047161, Alt.=149.822388m. Speed=1.692000m/h.</desc>
<speed>0.470000</speed>
</trkpt>
<trkpt lat="55.836964" lon="26.047173">
<ele>149.709106</ele>
<time>2010-07-17T15:16:47Z</time>
<desc>lat.=55.836964, lon.=26.047173, Alt.=149.709106m. Speed=1.476000m/h.</desc>
<speed>0.410000</speed>
</trkpt>
<trkpt lat="55.836964" lon="26.047176">
<ele>149.767700</ele>
<time>2010-07-17T15:16:48Z</time>
<desc>lat.=55.836964, lon.=26.047176, Alt.=149.767700m. Speed=0.900000m/h.</desc>
<speed>0.250000</speed>
</trkpt>
<trkpt lat="55.836960" lon="26.047186">
<ele>149.830200</ele>
<time>2010-07-17T15:16:49Z</time>
<desc>lat.=55.836960, lon.=26.047186, Alt.=149.830200m. Speed=1.152000m/h.</desc>
<speed>0.320000</speed>
</trkpt>
<trkpt lat="55.836964" lon="26.047186">
<ele>149.673950</ele>
<time>2010-07-17T15:16:50Z</time>
<desc>lat.=55.836964, lon.=26.047186, Alt.=149.673950m. Speed=0.900000m/h.</desc>
<speed>0.250000</speed>
</trkpt>
<trkpt lat="55.836964" lon="26.047188">
<ele>149.548950</ele>
<time>2010-07-17T15:16:51Z</time>
<desc>lat.=55.836964, lon.=26.047188, Alt.=149.548950m. Speed=0.504000m/h.</desc>
<speed>0.140000</speed>
</trkpt>
<trkpt lat="55.836967" lon="26.047192">
<ele>149.513794</ele>
<time>2010-07-17T15:16:52Z</time>
<desc>lat.=55.836967, lon.=26.047192, Alt.=149.513794m. Speed=0.936000m/h.</desc>
<speed>0.260000</speed>
</trkpt>
<trkpt lat="55.836971" lon="26.047213">
<ele>149.713013</ele>
<time>2010-07-17T15:16:53Z</time>
<desc>lat.=55.836971, lon.=26.047213, Alt.=149.713013m. Speed=1.080000m/h.</desc>
<speed>0.300000</speed>
</trkpt>
<trkpt lat="55.836994" lon="26.047237">
<ele>149.037231</ele>
<time>2010-07-17T15:16:54Z</time>
<desc>lat.=55.836994, lon.=26.047237, Alt.=149.037231m. Speed=0.612000m/h.</desc>
<speed>0.170000</speed>
</trkpt>
<trkpt lat="55.837002" lon="26.047247">
<ele>148.865356</ele>
<time>2010-07-17T15:16:55Z</time>
<desc>lat.=55.837002, lon.=26.047247, Alt.=148.865356m. Speed=0.684000m/h.</desc>
<speed>0.190000</speed>
</trkpt>
<trkpt lat="55.837009" lon="26.047253">
<ele>148.744263</ele>
<time>2010-07-17T15:16:56Z</time>
<desc>lat.=55.837009, lon.=26.047253, Alt.=148.744263m. Speed=0.756000m/h.</desc>
<speed>0.210000</speed>
</trkpt>
<trkpt lat="55.837009" lon="26.047258">
<ele>148.947388</ele>
<time>2010-07-17T15:16:57Z</time>
<desc>lat.=55.837009, lon.=26.047258, Alt.=148.947388m. Speed=0.684000m/h.</desc>
<speed>0.190000</speed>
</trkpt>
<trkpt lat="55.837009" lon="26.047260">
<ele>148.943481</ele>
<time>2010-07-17T15:16:58Z</time>
<desc>lat.=55.837009, lon.=26.047260, Alt.=148.943481m. Speed=0.828000m/h.</desc>
<speed>0.230000</speed>
</trkpt>
<trkpt lat="55.837013" lon="26.047264">
<ele>148.931763</ele>
<time>2010-07-17T15:16:59Z</time>
<desc>lat.=55.837013, lon.=26.047264, Alt.=148.931763m. Speed=0.540000m/h.</desc>
<speed>0.150000</speed>
</trkpt>
<trkpt lat="55.837013" lon="26.047262">
<ele>148.916138</ele>
<time>2010-07-17T15:17:00Z</time>
<desc>lat.=55.837013, lon.=26.047262, Alt.=148.916138m. Speed=0.252000m/h.</desc>
<speed>0.070000</speed>
</trkpt>
<trkpt lat="55.837013" lon="26.047262">
<ele>148.900513</ele>
<time>2010-07-17T15:17:01Z</time>
<desc>lat.=55.837013, lon.=26.047262, Alt.=148.900513m. Speed=0.108000m/h.</desc>
<speed>0.030000</speed>
</trkpt>
<trkpt lat="55.837013" lon="26.047262">
<ele>148.888794</ele>
<time>2010-07-17T15:17:02Z</time>
<desc>lat.=55.837013, lon.=26.047262, Alt.=148.888794m. Speed=0.108000m/h.</desc>
<speed>0.030000</speed>
</trkpt>
<trkpt lat="55.837013" lon="26.047264">
<ele>148.880981</ele>
<time>2010-07-17T15:17:03Z</time>
<desc>lat.=55.837013, lon.=26.047264, Alt.=148.880981m. Speed=0.036000m/h.</desc>
<speed>0.010000</speed>
</trkpt>
<trkpt lat="55.837013" lon="26.047264">
<ele>148.873169</ele>
<time>2010-07-17T15:17:04Z</time>
<desc>lat.=55.837013, lon.=26.047264, Alt.=148.873169m. Speed=0.324000m/h.</desc>
<speed>0.090000</speed>
</trkpt>
<trkpt lat="55.837013" lon="26.047264">
<ele>148.869263</ele>
<time>2010-07-17T15:17:05Z</time>
<desc>lat.=55.837013, lon.=26.047264, Alt.=148.869263m. Speed=0.216000m/h.</desc>
<speed>0.060000</speed>
</trkpt>
<trkpt lat="55.837013" lon="26.047266">
<ele>148.869263</ele>
<time>2010-07-17T15:17:06Z</time>
<desc>lat.=55.837013, lon.=26.047266, Alt.=148.869263m. Speed=0.288000m/h.</desc>
<speed>0.080000</speed>
</trkpt>
<trkpt lat="55.837013" lon="26.047268">
<ele>148.869263</ele>
<time>2010-07-17T15:17:07Z</time>
<desc>lat.=55.837013, lon.=26.047268, Alt.=148.869263m. Speed=0.468000m/h.</desc>
<speed>0.130000</speed>
</trkpt>
<trkpt lat="55.837013" lon="26.047268">
<ele>148.873169</ele>
<time>2010-07-17T15:17:08Z</time>
<desc>lat.=55.837013, lon.=26.047268, Alt.=148.873169m. Speed=0.288000m/h.</desc>
<speed>0.080000</speed>
</trkpt>
<trkpt lat="55.837013" lon="26.047270">
<ele>148.877075</ele>
<time>2010-07-17T15:17:09Z</time>
<desc>lat.=55.837013, lon.=26.047270, Alt.=148.877075m. Speed=0.288000m/h.</desc>
<speed>0.080000</speed>
</trkpt>
<trkpt lat="55.837013" lon="26.047270">
<ele>148.880981</ele>
<time>2010-07-17T15:17:10Z</time>
<desc>lat.=55.837013, lon.=26.047270, Alt.=148.880981m. Speed=0.252000m/h.</desc>
<speed>0.070000</speed>
</trkpt>
<trkpt lat="55.837009" lon="26.047272">
<ele>148.888794</ele>
<time>2010-07-17T15:17:11Z</time>
<desc>lat.=55.837009, lon.=26.047272, Alt.=148.888794m. Speed=0.216000m/h.</desc>
<speed>0.060000</speed>
</trkpt>
<trkpt lat="55.837009" lon="26.047272">
<ele>148.888794</ele>
<time>2010-07-17T15:17:12Z</time>
<desc>lat.=55.837009, lon.=26.047272, Alt.=148.888794m. Speed=0.108000m/h.</desc>
<speed>0.030000</speed>
</trkpt>
<trkpt lat="55.837009" lon="26.047274">
<ele>148.888794</ele>
<time>2010-07-17T15:17:13Z</time>
<desc>lat.=55.837009, lon.=26.047274, Alt.=148.888794m. Speed=0.180000m/h.</desc>
<speed>0.050000</speed>
</trkpt>
<trkpt lat="55.837009" lon="26.047274">
<ele>148.896606</ele>
<time>2010-07-17T15:17:14Z</time>
<desc>lat.=55.837009, lon.=26.047274, Alt.=148.896606m. Speed=0.396000m/h.</desc>
<speed>0.110000</speed>
</trkpt>
<trkpt lat="55.837013" lon="26.047274">
<ele>148.896606</ele>
<time>2010-07-17T15:17:15Z</time>
<desc>lat.=55.837013, lon.=26.047274, Alt.=148.896606m. Speed=0.252000m/h.</desc>
<speed>0.070000</speed>
</trkpt>
<trkpt lat="55.837013" lon="26.047276">
<ele>148.900513</ele>
<time>2010-07-17T15:17:16Z</time>
<desc>lat.=55.837013, lon.=26.047276, Alt.=148.900513m. Speed=0.288000m/h.</desc>
<speed>0.080000</speed>
</trkpt>
<trkpt lat="55.837013" lon="26.047276">
<ele>148.900513</ele>
<time>2010-07-17T15:17:17Z</time>
<desc>lat.=55.837013, lon.=26.047276, Alt.=148.900513m. Speed=0.576000m/h.</desc>
<speed>0.160000</speed>
</trkpt>
<trkpt lat="55.837013" lon="26.047279">
<ele>148.908325</ele>
<time>2010-07-17T15:17:18Z</time>
<desc>lat.=55.837013, lon.=26.047279, Alt.=148.908325m. Speed=0.396000m/h.</desc>
<speed>0.110000</speed>
</trkpt>
<trkpt lat="55.837013" lon="26.047281">
<ele>148.916138</ele>
<time>2010-07-17T15:17:19Z</time>
<desc>lat.=55.837013, lon.=26.047281, Alt.=148.916138m. Speed=0.360000m/h.</desc>
<speed>0.100000</speed>
</trkpt>
<trkpt lat="55.837013" lon="26.047283">
<ele>148.923950</ele>
<time>2010-07-17T15:17:20Z</time>
<desc>lat.=55.837013, lon.=26.047283, Alt.=148.923950m. Speed=0.396000m/h.</desc>
<speed>0.110000</speed>
</trkpt>
<trkpt lat="55.837013" lon="26.047285">
<ele>148.931763</ele>
<time>2010-07-17T15:17:21Z</time>
<desc>lat.=55.837013, lon.=26.047285, Alt.=148.931763m. Speed=0.576000m/h.</desc>
<speed>0.160000</speed>
</trkpt>
<trkpt lat="55.837013" lon="26.047287">
<ele>148.939575</ele>
<time>2010-07-17T15:17:22Z</time>
<desc>lat.=55.837013, lon.=26.047287, Alt.=148.939575m. Speed=0.612000m/h.</desc>
<speed>0.170000</speed>
</trkpt>
<trkpt lat="55.837009" lon="26.047289">
<ele>148.947388</ele>
<time>2010-07-17T15:17:23Z</time>
<desc>lat.=55.837009, lon.=26.047289, Alt.=148.947388m. Speed=0.648000m/h.</desc>
<speed>0.180000</speed>
</trkpt>
<trkpt lat="55.837009" lon="26.047291">
<ele>148.959106</ele>
<time>2010-07-17T15:17:24Z</time>
<desc>lat.=55.837009, lon.=26.047291, Alt.=148.959106m. Speed=0.576000m/h.</desc>
<speed>0.160000</speed>
</trkpt>
<trkpt lat="55.837009" lon="26.047295">
<ele>148.970825</ele>
<time>2010-07-17T15:17:25Z</time>
<desc>lat.=55.837009, lon.=26.047295, Alt.=148.970825m. Speed=0.432000m/h.</desc>
<speed>0.120000</speed>
</trkpt>
<trkpt lat="55.837009" lon="26.047297">
<ele>148.986450</ele>
<time>2010-07-17T15:17:26Z</time>
<desc>lat.=55.837009, lon.=26.047297, Alt.=148.986450m. Speed=0.324000m/h.</desc>
<speed>0.090000</speed>
</trkpt>
<trkpt lat="55.837013" lon="26.047298">
<ele>149.002075</ele>
<time>2010-07-17T15:17:27Z</time>
<desc>lat.=55.837013, lon.=26.047298, Alt.=149.002075m. Speed=0.252000m/h.</desc>
<speed>0.070000</speed>
</trkpt>
<trkpt lat="55.837013" lon="26.047298">
<ele>149.025513</ele>
<time>2010-07-17T15:17:28Z</time>
<desc>lat.=55.837013, lon.=26.047298, Alt.=149.025513m. Speed=0.180000m/h.</desc>
<speed>0.050000</speed>
</trkpt>
<trkpt lat="55.837013" lon="26.047300">
<ele>149.045044</ele>
<time>2010-07-17T15:17:29Z</time>
<desc>lat.=55.837013, lon.=26.047300, Alt.=149.045044m. Speed=0.180000m/h.</desc>
<speed>0.050000</speed>
</trkpt>
<trkpt lat="55.837013" lon="26.047300">
<ele>149.064575</ele>
<time>2010-07-17T15:17:30Z</time>
<desc>lat.=55.837013, lon.=26.047300, Alt.=149.064575m. Speed=0.144000m/h.</desc>
<speed>0.040000</speed>
</trkpt>
<trkpt lat="55.837013" lon="26.047300">
<ele>149.076294</ele>
<time>2010-07-17T15:17:31Z</time>
<desc>lat.=55.837013, lon.=26.047300, Alt.=149.076294m. Speed=0.144000m/h.</desc>
<speed>0.040000</speed>
</trkpt>
<trkpt lat="55.837013" lon="26.047300">
<ele>149.088013</ele>
<time>2010-07-17T15:17:32Z</time>
<desc>lat.=55.837013, lon.=26.047300, Alt.=149.088013m. Speed=0.144000m/h.</desc>
<speed>0.040000</speed>
</trkpt>
<trkpt lat="55.837013" lon="26.047302">
<ele>149.099731</ele>
<time>2010-07-17T15:17:33Z</time>
<desc>lat.=55.837013, lon.=26.047302, Alt.=149.099731m. Speed=0.288000m/h.</desc>
<speed>0.080000</speed>
</trkpt>
<trkpt lat="55.837013" lon="26.047302">
<ele>149.115356</ele>
<time>2010-07-17T15:17:34Z</time>
<desc>lat.=55.837013, lon.=26.047302, Alt.=149.115356m. Speed=0.252000m/h.</desc>
<speed>0.070000</speed>
</trkpt>
<trkpt lat="55.837013" lon="26.047304">
<ele>149.127075</ele>
<time>2010-07-17T15:17:35Z</time>
<desc>lat.=55.837013, lon.=26.047304, Alt.=149.127075m. Speed=0.252000m/h.</desc>
<speed>0.070000</speed>
</trkpt>
<trkpt lat="55.837013" lon="26.047304">
<ele>149.138794</ele>
<time>2010-07-17T15:17:36Z</time>
<desc>lat.=55.837013, lon.=26.047304, Alt.=149.138794m. Speed=0.072000m/h.</desc>
<speed>0.020000</speed>
</trkpt>
<trkpt lat="55.837013" lon="26.047304">
<ele>149.146606</ele>
<time>2010-07-17T15:17:37Z</time>
<desc>lat.=55.837013, lon.=26.047304, Alt.=149.146606m. Speed=0.396000m/h.</desc>
<speed>0.110000</speed>
</trkpt>
<trkpt lat="55.837017" lon="26.047304">
<ele>149.154419</ele>
<time>2010-07-17T15:17:38Z</time>
<desc>lat.=55.837017, lon.=26.047304, Alt.=149.154419m. Speed=0.144000m/h.</desc>
<speed>0.040000</speed>
</trkpt>
<trkpt lat="55.837017" lon="26.047304">
<ele>149.162231</ele>
<time>2010-07-17T15:17:39Z</time>
<desc>lat.=55.837017, lon.=26.047304, Alt.=149.162231m. Speed=0.216000m/h.</desc>
<speed>0.060000</speed>
</trkpt>
<trkpt lat="55.837017" lon="26.047302">
<ele>149.170044</ele>
<time>2010-07-17T15:17:40Z</time>
<desc>lat.=55.837017, lon.=26.047302, Alt.=149.170044m. Speed=0.216000m/h.</desc>
<speed>0.060000</speed>
</trkpt>
<trkpt lat="55.837017" lon="26.047302">
<ele>149.177856</ele>
<time>2010-07-17T15:17:41Z</time>
<desc>lat.=55.837017, lon.=26.047302, Alt.=149.177856m. Speed=0.108000m/h.</desc>
<speed>0.030000</speed>
</trkpt>
<trkpt lat="55.837017" lon="26.047304">
<ele>149.189575</ele>
<time>2010-07-17T15:17:42Z</time>
<desc>lat.=55.837017, lon.=26.047304, Alt.=149.189575m. Speed=0.144000m/h.</desc>
<speed>0.040000</speed>
</trkpt>
<trkpt lat="55.837017" lon="26.047302">
<ele>149.201294</ele>
<time>2010-07-17T15:17:43Z</time>
<desc>lat.=55.837017, lon.=26.047302, Alt.=149.201294m. Speed=0.468000m/h.</desc>
<speed>0.130000</speed>
</trkpt>
<trkpt lat="55.837017" lon="26.047300">
<ele>149.209106</ele>
<time>2010-07-17T15:17:44Z</time>
<desc>lat.=55.837017, lon.=26.047300, Alt.=149.209106m. Speed=0.396000m/h.</desc>
<speed>0.110000</speed>
</trkpt>
<trkpt lat="55.837021" lon="26.047300">
<ele>149.213013</ele>
<time>2010-07-17T15:17:45Z</time>
<desc>lat.=55.837021, lon.=26.047300, Alt.=149.213013m. Speed=0.360000m/h.</desc>
<speed>0.100000</speed>
</trkpt>
<trkpt lat="55.837021" lon="26.047300">
<ele>149.209106</ele>
<time>2010-07-17T15:17:46Z</time>
<desc>lat.=55.837021, lon.=26.047300, Alt.=149.209106m. Speed=0.468000m/h.</desc>
<speed>0.130000</speed>
</trkpt>
<trkpt lat="55.837021" lon="26.047298">
<ele>149.205200</ele>
<time>2010-07-17T15:17:47Z</time>
<desc>lat.=55.837021, lon.=26.047298, Alt.=149.205200m. Speed=0.540000m/h.</desc>
<speed>0.150000</speed>
</trkpt>
<trkpt lat="55.837021" lon="26.047297">
<ele>149.201294</ele>
<time>2010-07-17T15:17:48Z</time>
<desc>lat.=55.837021, lon.=26.047297, Alt.=149.201294m. Speed=0.288000m/h.</desc>
<speed>0.080000</speed>
</trkpt>
<trkpt lat="55.837025" lon="26.047297">
<ele>149.205200</ele>
<time>2010-07-17T15:17:49Z</time>
<desc>lat.=55.837025, lon.=26.047297, Alt.=149.205200m. Speed=0.540000m/h.</desc>
<speed>0.150000</speed>
</trkpt>
<trkpt lat="55.837025" lon="26.047295">
<ele>149.205200</ele>
<time>2010-07-17T15:17:50Z</time>
<desc>lat.=55.837025, lon.=26.047295, Alt.=149.205200m. Speed=0.468000m/h.</desc>
<speed>0.130000</speed>
</trkpt>
<trkpt lat="55.837025" lon="26.047295">
<ele>149.205200</ele>
<time>2010-07-17T15:17:51Z</time>
<desc>lat.=55.837025, lon.=26.047295, Alt.=149.205200m. Speed=0.828000m/h.</desc>
<speed>0.230000</speed>
</trkpt>
<trkpt lat="55.837029" lon="26.047293">
<ele>149.197388</ele>
<time>2010-07-17T15:17:52Z</time>
<desc>lat.=55.837029, lon.=26.047293, Alt.=149.197388m. Speed=0.972000m/h.</desc>
<speed>0.270000</speed>
</trkpt>
<trkpt lat="55.837029" lon="26.047291">
<ele>149.193481</ele>
<time>2010-07-17T15:17:53Z</time>
<desc>lat.=55.837029, lon.=26.047291, Alt.=149.193481m. Speed=1.044000m/h.</desc>
<speed>0.290000</speed>
</trkpt>
<trkpt lat="55.837032" lon="26.047289">
<ele>149.189575</ele>
<time>2010-07-17T15:17:54Z</time>
<desc>lat.=55.837032, lon.=26.047289, Alt.=149.189575m. Speed=0.936000m/h.</desc>
<speed>0.260000</speed>
</trkpt>
<trkpt lat="55.837032" lon="26.047287">
<ele>149.185669</ele>
<time>2010-07-17T15:17:55Z</time>
<desc>lat.=55.837032, lon.=26.047287, Alt.=149.185669m. Speed=1.008000m/h.</desc>
<speed>0.280000</speed>
</trkpt>
<trkpt lat="55.837036" lon="26.047287">
<ele>149.177856</ele>
<time>2010-07-17T15:17:56Z</time>
<desc>lat.=55.837036, lon.=26.047287, Alt.=149.177856m. Speed=0.828000m/h.</desc>
<speed>0.230000</speed>
</trkpt>
<trkpt lat="55.837040" lon="26.047287">
<ele>149.170044</ele>
<time>2010-07-17T15:17:57Z</time>
<desc>lat.=55.837040, lon.=26.047287, Alt.=149.170044m. Speed=0.828000m/h.</desc>
<speed>0.230000</speed>
</trkpt>
<trkpt lat="55.837040" lon="26.047287">
<ele>149.158325</ele>
<time>2010-07-17T15:17:58Z</time>
<desc>lat.=55.837040, lon.=26.047287, Alt.=149.158325m. Speed=0.612000m/h.</desc>
<speed>0.170000</speed>
</trkpt>
<trkpt lat="55.837044" lon="26.047287">
<ele>149.150513</ele>
<time>2010-07-17T15:17:59Z</time>
<desc>lat.=55.837044, lon.=26.047287, Alt.=149.150513m. Speed=0.576000m/h.</desc>
<speed>0.160000</speed>
</trkpt>
<trkpt lat="55.837044" lon="26.047285">
<ele>149.138794</ele>
<time>2010-07-17T15:18:00Z</time>
<desc>lat.=55.837044, lon.=26.047285, Alt.=149.138794m. Speed=0.612000m/h.</desc>
<speed>0.170000</speed>
</trkpt>
<trkpt lat="55.837044" lon="26.047285">
<ele>149.123169</ele>
<time>2010-07-17T15:18:01Z</time>
<desc>lat.=55.837044, lon.=26.047285, Alt.=149.123169m. Speed=0.900000m/h.</desc>
<speed>0.250000</speed>
</trkpt>
<trkpt lat="55.837048" lon="26.047283">
<ele>149.111450</ele>
<time>2010-07-17T15:18:02Z</time>
<desc>lat.=55.837048, lon.=26.047283, Alt.=149.111450m. Speed=0.684000m/h.</desc>
<speed>0.190000</speed>
</trkpt>
<trkpt lat="55.837048" lon="26.047283">
<ele>149.103638</ele>
<time>2010-07-17T15:18:03Z</time>
<desc>lat.=55.837048, lon.=26.047283, Alt.=149.103638m. Speed=0.576000m/h.</desc>
<speed>0.160000</speed>
</trkpt>
<trkpt lat="55.837051" lon="26.047283">
<ele>149.095825</ele>
<time>2010-07-17T15:18:04Z</time>
<desc>lat.=55.837051, lon.=26.047283, Alt.=149.095825m. Speed=0.576000m/h.</desc>
<speed>0.160000</speed>
</trkpt>
<trkpt lat="55.837051" lon="26.047283">
<ele>149.091919</ele>
<time>2010-07-17T15:18:05Z</time>
<desc>lat.=55.837051, lon.=26.047283, Alt.=149.091919m. Speed=0.864000m/h.</desc>
<speed>0.240000</speed>
</trkpt>
<trkpt lat="55.837055" lon="26.047285">
<ele>149.088013</ele>
<time>2010-07-17T15:18:06Z</time>
<desc>lat.=55.837055, lon.=26.047285, Alt.=149.088013m. Speed=0.828000m/h.</desc>
<speed>0.230000</speed>
</trkpt>
<trkpt lat="55.837055" lon="26.047287">
<ele>149.084106</ele>
<time>2010-07-17T15:18:07Z</time>
<desc>lat.=55.837055, lon.=26.047287, Alt.=149.084106m. Speed=0.540000m/h.</desc>
<speed>0.150000</speed>
</trkpt>
<trkpt lat="55.837055" lon="26.047289">
<ele>149.080200</ele>
<time>2010-07-17T15:18:08Z</time>
<desc>lat.=55.837055, lon.=26.047289, Alt.=149.080200m. Speed=0.540000m/h.</desc>
<speed>0.150000</speed>
</trkpt>
<trkpt lat="55.837059" lon="26.047289">
<ele>149.076294</ele>
<time>2010-07-17T15:18:09Z</time>
<desc>lat.=55.837059, lon.=26.047289, Alt.=149.076294m. Speed=0.216000m/h.</desc>
<speed>0.060000</speed>
</trkpt>
<trkpt lat="55.837059" lon="26.047291">
<ele>149.076294</ele>
<time>2010-07-17T15:18:10Z</time>
<desc>lat.=55.837059, lon.=26.047291, Alt.=149.076294m. Speed=0.216000m/h.</desc>
<speed>0.060000</speed>
</trkpt>
<trkpt lat="55.837059" lon="26.047291">
<ele>149.080200</ele>
<time>2010-07-17T15:18:11Z</time>
<desc>lat.=55.837059, lon.=26.047291, Alt.=149.080200m. Speed=0.072000m/h.</desc>
<speed>0.020000</speed>
</trkpt>
<trkpt lat="55.837059" lon="26.047291">
<ele>149.080200</ele>
<time>2010-07-17T15:18:12Z</time>
<desc>lat.=55.837059, lon.=26.047291, Alt.=149.080200m. Speed=0.360000m/h.</desc>
<speed>0.100000</speed>
</trkpt>
<trkpt lat="55.837059" lon="26.047291">
<ele>149.080200</ele>
<time>2010-07-17T15:18:13Z</time>
<desc>lat.=55.837059, lon.=26.047291, Alt.=149.080200m. Speed=0.288000m/h.</desc>
<speed>0.080000</speed>
</trkpt>
<trkpt lat="55.837055" lon="26.047291">
<ele>149.076294</ele>
<time>2010-07-17T15:18:14Z</time>
<desc>lat.=55.837055, lon.=26.047291, Alt.=149.076294m. Speed=0.216000m/h.</desc>
<speed>0.060000</speed>
</trkpt>
<trkpt lat="55.837059" lon="26.047291">
<ele>149.076294</ele>
<time>2010-07-17T15:18:15Z</time>
<desc>lat.=55.837059, lon.=26.047291, Alt.=149.076294m. Speed=0.216000m/h.</desc>
<speed>0.060000</speed>
</trkpt>
<trkpt lat="55.837059" lon="26.047289">
<ele>149.076294</ele>
<time>2010-07-17T15:18:16Z</time>
<desc>lat.=55.837059, lon.=26.047289, Alt.=149.076294m. Speed=0.396000m/h.</desc>
<speed>0.110000</speed>
</trkpt>
<trkpt lat="55.837059" lon="26.047289">
<ele>149.076294</ele>
<time>2010-07-17T15:18:17Z</time>
<desc>lat.=55.837059, lon.=26.047289, Alt.=149.076294m. Speed=0.396000m/h.</desc>
<speed>0.110000</speed>
</trkpt>
<trkpt lat="55.837059" lon="26.047289">
<ele>149.076294</ele>
<time>2010-07-17T15:18:18Z</time>
<desc>lat.=55.837059, lon.=26.047289, Alt.=149.076294m. Speed=0.612000m/h.</desc>
<speed>0.170000</speed>
</trkpt>
<trkpt lat="55.837063" lon="26.047287">
<ele>149.076294</ele>
<time>2010-07-17T15:18:19Z</time>
<desc>lat.=55.837063, lon.=26.047287, Alt.=149.076294m. Speed=0.468000m/h.</desc>
<speed>0.130000</speed>
</trkpt>
<trkpt lat="55.837063" lon="26.047285">
<ele>149.072388</ele>
<time>2010-07-17T15:18:20Z</time>
<desc>lat.=55.837063, lon.=26.047285, Alt.=149.072388m. Speed=0.720000m/h.</desc>
<speed>0.200000</speed>
</trkpt>
<trkpt lat="55.837063" lon="26.047285">
<ele>149.068481</ele>
<time>2010-07-17T15:18:21Z</time>
<desc>lat.=55.837063, lon.=26.047285, Alt.=149.068481m. Speed=0.756000m/h.</desc>
<speed>0.210000</speed>
</trkpt>
<trkpt lat="55.837067" lon="26.047283">
<ele>149.064575</ele>
<time>2010-07-17T15:18:22Z</time>
<desc>lat.=55.837067, lon.=26.047283, Alt.=149.064575m. Speed=1.080000m/h.</desc>
<speed>0.300000</speed>
</trkpt>
<trkpt lat="55.837063" lon="26.047283">
<ele>149.068481</ele>
<time>2010-07-17T15:18:23Z</time>
<desc>lat.=55.837063, lon.=26.047283, Alt.=149.068481m. Speed=0.828000m/h.</desc>
<speed>0.230000</speed>
</trkpt>
<trkpt lat="55.837067" lon="26.047279">
<ele>149.142700</ele>
<time>2010-07-17T15:18:24Z</time>
<desc>lat.=55.837067, lon.=26.047279, Alt.=149.142700m. Speed=1.224000m/h.</desc>
<speed>0.340000</speed>
</trkpt>
<trkpt lat="55.837070" lon="26.047281">
<ele>149.228638</ele>
<time>2010-07-17T15:18:25Z</time>
<desc>lat.=55.837070, lon.=26.047281, Alt.=149.228638m. Speed=1.296000m/h.</desc>
<speed>0.360000</speed>
</trkpt>
<trkpt lat="55.837070" lon="26.047283">
<ele>149.380981</ele>
<time>2010-07-17T15:18:26Z</time>
<desc>lat.=55.837070, lon.=26.047283, Alt.=149.380981m. Speed=1.332000m/h.</desc>
<speed>0.370000</speed>
</trkpt>
<trkpt lat="55.837070" lon="26.047283">
<ele>149.541138</ele>
<time>2010-07-17T15:18:27Z</time>
<desc>lat.=55.837070, lon.=26.047283, Alt.=149.541138m. Speed=1.116000m/h.</desc>
<speed>0.310000</speed>
</trkpt>
<trkpt lat="55.837074" lon="26.047289">
<ele>149.724731</ele>
<time>2010-07-17T15:18:28Z</time>
<desc>lat.=55.837074, lon.=26.047289, Alt.=149.724731m. Speed=1.080000m/h.</desc>
<speed>0.300000</speed>
</trkpt>
<trkpt lat="55.837074" lon="26.047298">
<ele>149.892700</ele>
<time>2010-07-17T15:18:29Z</time>
<desc>lat.=55.837074, lon.=26.047298, Alt.=149.892700m. Speed=0.864000m/h.</desc>
<speed>0.240000</speed>
</trkpt>
<trkpt lat="55.837082" lon="26.047304">
<ele>150.095825</ele>
<time>2010-07-17T15:18:30Z</time>
<desc>lat.=55.837082, lon.=26.047304, Alt.=150.095825m. Speed=0.972000m/h.</desc>
<speed>0.270000</speed>
</trkpt>
<trkpt lat="55.837086" lon="26.047308">
<ele>150.330200</ele>
<time>2010-07-17T15:18:31Z</time>
<desc>lat.=55.837086, lon.=26.047308, Alt.=150.330200m. Speed=0.900000m/h.</desc>
<speed>0.250000</speed>
</trkpt>
<trkpt lat="55.837086" lon="26.047312">
<ele>150.662231</ele>
<time>2010-07-17T15:18:32Z</time>
<desc>lat.=55.837086, lon.=26.047312, Alt.=150.662231m. Speed=0.792000m/h.</desc>
<speed>0.220000</speed>
</trkpt>
<trkpt lat="55.837090" lon="26.047314">
<ele>150.662231</ele>
<time>2010-07-17T15:18:33Z</time>
<desc>lat.=55.837090, lon.=26.047314, Alt.=150.662231m. Speed=0.756000m/h.</desc>
<speed>0.210000</speed>
</trkpt>
<trkpt lat="55.837090" lon="26.047316">
<ele>150.666138</ele>
<time>2010-07-17T15:18:34Z</time>
<desc>lat.=55.837090, lon.=26.047316, Alt.=150.666138m. Speed=0.828000m/h.</desc>
<speed>0.230000</speed>
</trkpt>
<trkpt lat="55.837093" lon="26.047316">
<ele>150.670044</ele>
<time>2010-07-17T15:18:35Z</time>
<desc>lat.=55.837093, lon.=26.047316, Alt.=150.670044m. Speed=0.720000m/h.</desc>
<speed>0.200000</speed>
</trkpt>
<trkpt lat="55.837093" lon="26.047318">
<ele>150.673950</ele>
<time>2010-07-17T15:18:36Z</time>
<desc>lat.=55.837093, lon.=26.047318, Alt.=150.673950m. Speed=0.720000m/h.</desc>
<speed>0.200000</speed>
</trkpt>
<trkpt lat="55.837097" lon="26.047318">
<ele>150.677856</ele>
<time>2010-07-17T15:18:37Z</time>
<desc>lat.=55.837097, lon.=26.047318, Alt.=150.677856m. Speed=0.612000m/h.</desc>
<speed>0.170000</speed>
</trkpt>
<trkpt lat="55.837097" lon="26.047318">
<ele>150.681763</ele>
<time>2010-07-17T15:18:38Z</time>
<desc>lat.=55.837097, lon.=26.047318, Alt.=150.681763m. Speed=0.648000m/h.</desc>
<speed>0.180000</speed>
</trkpt>
<trkpt lat="55.837101" lon="26.047318">
<ele>150.689575</ele>
<time>2010-07-17T15:18:39Z</time>
<desc>lat.=55.837101, lon.=26.047318, Alt.=150.689575m. Speed=0.720000m/h.</desc>
<speed>0.200000</speed>
</trkpt>
<trkpt lat="55.837101" lon="26.047318">
<ele>150.701294</ele>
<time>2010-07-17T15:18:40Z</time>
<desc>lat.=55.837101, lon.=26.047318, Alt.=150.701294m. Speed=0.828000m/h.</desc>
<speed>0.230000</speed>
</trkpt>
<trkpt lat="55.837105" lon="26.047318">
<ele>150.713013</ele>
<time>2010-07-17T15:18:41Z</time>
<desc>lat.=55.837105, lon.=26.047318, Alt.=150.713013m. Speed=0.792000m/h.</desc>
<speed>0.220000</speed>
</trkpt>
<trkpt lat="55.837105" lon="26.047318">
<ele>150.720825</ele>
<time>2010-07-17T15:18:42Z</time>
<desc>lat.=55.837105, lon.=26.047318, Alt.=150.720825m. Speed=0.756000m/h.</desc>
<speed>0.210000</speed>
</trkpt>
<trkpt lat="55.837109" lon="26.047319">
<ele>150.736450</ele>
<time>2010-07-17T15:18:43Z</time>
<desc>lat.=55.837109, lon.=26.047319, Alt.=150.736450m. Speed=0.648000m/h.</desc>
<speed>0.180000</speed>
</trkpt>
<trkpt lat="55.837109" lon="26.047319">
<ele>150.748169</ele>
<time>2010-07-17T15:18:44Z</time>
<desc>lat.=55.837109, lon.=26.047319, Alt.=150.748169m. Speed=0.756000m/h.</desc>
<speed>0.210000</speed>
</trkpt>
<trkpt lat="55.837112" lon="26.047319">
<ele>150.755981</ele>
<time>2010-07-17T15:18:45Z</time>
<desc>lat.=55.837112, lon.=26.047319, Alt.=150.755981m. Speed=0.792000m/h.</desc>
<speed>0.220000</speed>
</trkpt>
<trkpt lat="55.837112" lon="26.047319">
<ele>150.767700</ele>
<time>2010-07-17T15:18:46Z</time>
<desc>lat.=55.837112, lon.=26.047319, Alt.=150.767700m. Speed=0.720000m/h.</desc>
<speed>0.200000</speed>
</trkpt>
<trkpt lat="55.837116" lon="26.047319">
<ele>150.775513</ele>
<time>2010-07-17T15:18:47Z</time>
<desc>lat.=55.837116, lon.=26.047319, Alt.=150.775513m. Speed=0.540000m/h.</desc>
<speed>0.150000</speed>
</trkpt>
<trkpt lat="55.837116" lon="26.047319">
<ele>150.783325</ele>
<time>2010-07-17T15:18:48Z</time>
<desc>lat.=55.837116, lon.=26.047319, Alt.=150.783325m. Speed=0.468000m/h.</desc>
<speed>0.130000</speed>
</trkpt>
<trkpt lat="55.837116" lon="26.047319">
<ele>150.795044</ele>
<time>2010-07-17T15:18:49Z</time>
<desc>lat.=55.837116, lon.=26.047319, Alt.=150.795044m. Speed=0.324000m/h.</desc>
<speed>0.090000</speed>
</trkpt>
<trkpt lat="55.837116" lon="26.047319">
<ele>150.802856</ele>
<time>2010-07-17T15:18:50Z</time>
<desc>lat.=55.837116, lon.=26.047319, Alt.=150.802856m. Speed=0.324000m/h.</desc>
<speed>0.090000</speed>
</trkpt>
<trkpt lat="55.837116" lon="26.047318">
<ele>150.806763</ele>
<time>2010-07-17T15:18:51Z</time>
<desc>lat.=55.837116, lon.=26.047318, Alt.=150.806763m. Speed=0.216000m/h.</desc>
<speed>0.060000</speed>
</trkpt>
<trkpt lat="55.837116" lon="26.047316">
<ele>150.814575</ele>
<time>2010-07-17T15:18:52Z</time>
<desc>lat.=55.837116, lon.=26.047316, Alt.=150.814575m. Speed=0.360000m/h.</desc>
<speed>0.100000</speed>
</trkpt>
<trkpt lat="55.837116" lon="26.047316">
<ele>150.826294</ele>
<time>2010-07-17T15:18:53Z</time>
<desc>lat.=55.837116, lon.=26.047316, Alt.=150.826294m. Speed=0.648000m/h.</desc>
<speed>0.180000</speed>
</trkpt>
<trkpt lat="55.837116" lon="26.047314">
<ele>150.834106</ele>
<time>2010-07-17T15:18:54Z</time>
<desc>lat.=55.837116, lon.=26.047314, Alt.=150.834106m. Speed=0.864000m/h.</desc>
<speed>0.240000</speed>
</trkpt>
<trkpt lat="55.837112" lon="26.047312">
<ele>150.849731</ele>
<time>2010-07-17T15:18:55Z</time>
<desc>lat.=55.837112, lon.=26.047312, Alt.=150.849731m. Speed=0.864000m/h.</desc>
<speed>0.240000</speed>
</trkpt>
<trkpt lat="55.837109" lon="26.047312">
<ele>150.865356</ele>
<time>2010-07-17T15:18:56Z</time>
<desc>lat.=55.837109, lon.=26.047312, Alt.=150.865356m. Speed=1.008000m/h.</desc>
<speed>0.280000</speed>
</trkpt>
<trkpt lat="55.837109" lon="26.047310">
<ele>150.884888</ele>
<time>2010-07-17T15:18:57Z</time>
<desc>lat.=55.837109, lon.=26.047310, Alt.=150.884888m. Speed=1.080000m/h.</desc>
<speed>0.300000</speed>
</trkpt>
<trkpt lat="55.837086" lon="26.047310">
<ele>151.263794</ele>
<time>2010-07-17T15:18:58Z</time>
<desc>lat.=55.837086, lon.=26.047310, Alt.=151.263794m. Speed=1.332000m/h.</desc>
<speed>0.370000</speed>
</trkpt>
<trkpt lat="55.837082" lon="26.047316">
<ele>151.396606</ele>
<time>2010-07-17T15:18:59Z</time>
<desc>lat.=55.837082, lon.=26.047316, Alt.=151.396606m. Speed=1.224000m/h.</desc>
<speed>0.340000</speed>
</trkpt>
<trkpt lat="55.837070" lon="26.047316">
<ele>151.451294</ele>
<time>2010-07-17T15:19:00Z</time>
<desc>lat.=55.837070, lon.=26.047316, Alt.=151.451294m. Speed=1.440000m/h.</desc>
<speed>0.400000</speed>
</trkpt>
<trkpt lat="55.837059" lon="26.047319">
<ele>151.498169</ele>
<time>2010-07-17T15:19:01Z</time>
<desc>lat.=55.837059, lon.=26.047319, Alt.=151.498169m. Speed=1.476000m/h.</desc>
<speed>0.410000</speed>
</trkpt>
<trkpt lat="55.837055" lon="26.047319">
<ele>151.263794</ele>
<time>2010-07-17T15:19:02Z</time>
<desc>lat.=55.837055, lon.=26.047319, Alt.=151.263794m. Speed=1.440000m/h.</desc>
<speed>0.400000</speed>
</trkpt>
<trkpt lat="55.837044" lon="26.047323">
<ele>151.158325</ele>
<time>2010-07-17T15:19:03Z</time>
<desc>lat.=55.837044, lon.=26.047323, Alt.=151.158325m. Speed=1.476000m/h.</desc>
<speed>0.410000</speed>
</trkpt>
<trkpt lat="55.837032" lon="26.047323">
<ele>151.091919</ele>
<time>2010-07-17T15:19:04Z</time>
<desc>lat.=55.837032, lon.=26.047323, Alt.=151.091919m. Speed=1.548000m/h.</desc>
<speed>0.430000</speed>
</trkpt>
<trkpt lat="55.837029" lon="26.047319">
<ele>151.127075</ele>
<time>2010-07-17T15:19:05Z</time>
<desc>lat.=55.837029, lon.=26.047319, Alt.=151.127075m. Speed=1.548000m/h.</desc>
<speed>0.430000</speed>
</trkpt>
<trkpt lat="55.837021" lon="26.047318">
<ele>151.185669</ele>
<time>2010-07-17T15:19:06Z</time>
<desc>lat.=55.837021, lon.=26.047318, Alt.=151.185669m. Speed=1.656000m/h.</desc>
<speed>0.460000</speed>
</trkpt>
<trkpt lat="55.837013" lon="26.047321">
<ele>151.205200</ele>
<time>2010-07-17T15:19:07Z</time>
<desc>lat.=55.837013, lon.=26.047321, Alt.=151.205200m. Speed=1.584000m/h.</desc>
<speed>0.440000</speed>
</trkpt>
<trkpt lat="55.837006" lon="26.047338">
<ele>151.341919</ele>
<time>2010-07-17T15:19:08Z</time>
<desc>lat.=55.837006, lon.=26.047338, Alt.=151.341919m. Speed=1.332000m/h.</desc>
<speed>0.370000</speed>
</trkpt>
<trkpt lat="55.837017" lon="26.047352">
<ele>151.545044</ele>
<time>2010-07-17T15:19:09Z</time>
<desc>lat.=55.837017, lon.=26.047352, Alt.=151.545044m. Speed=0.720000m/h.</desc>
<speed>0.200000</speed>
</trkpt>
<trkpt lat="55.837013" lon="26.047359">
<ele>151.759888</ele>
<time>2010-07-17T15:19:10Z</time>
<desc>lat.=55.837013, lon.=26.047359, Alt.=151.759888m. Speed=0.684000m/h.</desc>
<speed>0.190000</speed>
</trkpt>
<trkpt lat="55.837009" lon="26.047367">
<ele>152.146606</ele>
<time>2010-07-17T15:19:11Z</time>
<desc>lat.=55.837009, lon.=26.047367, Alt.=152.146606m. Speed=0.540000m/h.</desc>
<speed>0.150000</speed>
</trkpt>
<trkpt lat="55.837006" lon="26.047377">
<ele>152.459106</ele>
<time>2010-07-17T15:19:12Z</time>
<desc>lat.=55.837006, lon.=26.047377, Alt.=152.459106m. Speed=0.504000m/h.</desc>
<speed>0.140000</speed>
</trkpt>
<trkpt lat="55.837006" lon="26.047379">
<ele>152.486450</ele>
<time>2010-07-17T15:19:13Z</time>
<desc>lat.=55.837006, lon.=26.047379, Alt.=152.486450m. Speed=0.396000m/h.</desc>
<speed>0.110000</speed>
</trkpt>
<trkpt lat="55.837002" lon="26.047379">
<ele>152.509888</ele>
<time>2010-07-17T15:19:14Z</time>
<desc>lat.=55.837002, lon.=26.047379, Alt.=152.509888m. Speed=0.180000m/h.</desc>
<speed>0.050000</speed>
</trkpt>
<trkpt lat="55.837002" lon="26.047379">
<ele>152.537231</ele>
<time>2010-07-17T15:19:15Z</time>
<desc>lat.=55.837002, lon.=26.047379, Alt.=152.537231m. Speed=0.000000m/h.</desc>
<speed>0.000000</speed>
</trkpt>
<trkpt lat="55.837002" lon="26.047379">
<ele>152.560669</ele>
<time>2010-07-17T15:19:16Z</time>
<desc>lat.=55.837002, lon.=26.047379, Alt.=152.560669m. Speed=0.036000m/h.</desc>
<speed>0.010000</speed>
</trkpt>
<trkpt lat="55.837002" lon="26.047379">
<ele>152.584106</ele>
<time>2010-07-17T15:19:17Z</time>
<desc>lat.=55.837002, lon.=26.047379, Alt.=152.584106m. Speed=0.072000m/h.</desc>
<speed>0.020000</speed>
</trkpt>
<trkpt lat="55.837002" lon="26.047379">
<ele>152.611450</ele>
<time>2010-07-17T15:19:18Z</time>
<desc>lat.=55.837002, lon.=26.047379, Alt.=152.611450m. Speed=0.324000m/h.</desc>
<speed>0.090000</speed>
</trkpt>
<trkpt lat="55.837002" lon="26.047377">
<ele>152.634888</ele>
<time>2010-07-17T15:19:19Z</time>
<desc>lat.=55.837002, lon.=26.047377, Alt.=152.634888m. Speed=0.252000m/h.</desc>
<speed>0.070000</speed>
</trkpt>
<trkpt lat="55.837002" lon="26.047377">
<ele>152.662231</ele>
<time>2010-07-17T15:19:20Z</time>
<desc>lat.=55.837002, lon.=26.047377, Alt.=152.662231m. Speed=0.360000m/h.</desc>
<speed>0.100000</speed>
</trkpt>
<trkpt lat="55.837006" lon="26.047375">
<ele>152.685669</ele>
<time>2010-07-17T15:19:21Z</time>
<desc>lat.=55.837006, lon.=26.047375, Alt.=152.685669m. Speed=0.288000m/h.</desc>
<speed>0.080000</speed>
</trkpt>
<trkpt lat="55.837006" lon="26.047373">
<ele>152.709106</ele>
<time>2010-07-17T15:19:22Z</time>
<desc>lat.=55.837006, lon.=26.047373, Alt.=152.709106m. Speed=0.288000m/h.</desc>
<speed>0.080000</speed>
</trkpt>
<trkpt lat="55.837006" lon="26.047373">
<ele>152.732544</ele>
<time>2010-07-17T15:19:23Z</time>
<desc>lat.=55.837006, lon.=26.047373, Alt.=152.732544m. Speed=0.432000m/h.</desc>
<speed>0.120000</speed>
</trkpt>
<trkpt lat="55.837006" lon="26.047371">
<ele>152.759888</ele>
<time>2010-07-17T15:19:24Z</time>
<desc>lat.=55.837006, lon.=26.047371, Alt.=152.759888m. Speed=0.360000m/h.</desc>
<speed>0.100000</speed>
</trkpt>
<trkpt lat="55.837006" lon="26.047369">
<ele>152.783325</ele>
<time>2010-07-17T15:19:25Z</time>
<desc>lat.=55.837006, lon.=26.047369, Alt.=152.783325m. Speed=0.360000m/h.</desc>
<speed>0.100000</speed>
</trkpt>
<trkpt lat="55.837006" lon="26.047367">
<ele>152.798950</ele>
<time>2010-07-17T15:19:26Z</time>
<desc>lat.=55.837006, lon.=26.047367, Alt.=152.798950m. Speed=0.396000m/h.</desc>
<speed>0.110000</speed>
</trkpt>
<trkpt lat="55.837006" lon="26.047365">
<ele>152.810669</ele>
<time>2010-07-17T15:19:27Z</time>
<desc>lat.=55.837006, lon.=26.047365, Alt.=152.810669m. Speed=0.432000m/h.</desc>
<speed>0.120000</speed>
</trkpt>
<trkpt lat="55.837006" lon="26.047363">
<ele>152.822388</ele>
<time>2010-07-17T15:19:28Z</time>
<desc>lat.=55.837006, lon.=26.047363, Alt.=152.822388m. Speed=0.468000m/h.</desc>
<speed>0.130000</speed>
</trkpt>
<trkpt lat="55.837009" lon="26.047361">
<ele>152.834106</ele>
<time>2010-07-17T15:19:29Z</time>
<desc>lat.=55.837009, lon.=26.047361, Alt.=152.834106m. Speed=0.468000m/h.</desc>
<speed>0.130000</speed>
</trkpt>
<trkpt lat="55.837009" lon="26.047359">
<ele>152.838013</ele>
<time>2010-07-17T15:19:30Z</time>
<desc>lat.=55.837009, lon.=26.047359, Alt.=152.838013m. Speed=0.432000m/h.</desc>
<speed>0.120000</speed>
</trkpt>
<trkpt lat="55.837009" lon="26.047358">
<ele>152.853638</ele>
<time>2010-07-17T15:19:31Z</time>
<desc>lat.=55.837009, lon.=26.047358, Alt.=152.853638m. Speed=0.540000m/h.</desc>
<speed>0.150000</speed>
</trkpt>
<trkpt lat="55.837009" lon="26.047356">
<ele>152.865356</ele>
<time>2010-07-17T15:19:32Z</time>
<desc>lat.=55.837009, lon.=26.047356, Alt.=152.865356m. Speed=0.468000m/h.</desc>
<speed>0.130000</speed>
</trkpt>
<trkpt lat="55.837009" lon="26.047352">
<ele>152.873169</ele>
<time>2010-07-17T15:19:33Z</time>
<desc>lat.=55.837009, lon.=26.047352, Alt.=152.873169m. Speed=0.540000m/h.</desc>
<speed>0.150000</speed>
</trkpt>
<trkpt lat="55.837009" lon="26.047350">
<ele>152.880981</ele>
<time>2010-07-17T15:19:34Z</time>
<desc>lat.=55.837009, lon.=26.047350, Alt.=152.880981m. Speed=0.540000m/h.</desc>
<speed>0.150000</speed>
</trkpt>
<trkpt lat="55.837009" lon="26.047348">
<ele>152.888794</ele>
<time>2010-07-17T15:19:35Z</time>
<desc>lat.=55.837009, lon.=26.047348, Alt.=152.888794m. Speed=0.468000m/h.</desc>
<speed>0.130000</speed>
</trkpt>
<trkpt lat="55.837013" lon="26.047346">
<ele>152.900513</ele>
<time>2010-07-17T15:19:36Z</time>
<desc>lat.=55.837013, lon.=26.047346, Alt.=152.900513m. Speed=0.252000m/h.</desc>
<speed>0.070000</speed>
</trkpt>
<trkpt lat="55.837013" lon="26.047346">
<ele>152.912231</ele>
<time>2010-07-17T15:19:37Z</time>
<desc>lat.=55.837013, lon.=26.047346, Alt.=152.912231m. Speed=0.252000m/h.</desc>
<speed>0.070000</speed>
</trkpt>
<trkpt lat="55.837013" lon="26.047344">
<ele>152.927856</ele>
<time>2010-07-17T15:19:38Z</time>
<desc>lat.=55.837013, lon.=26.047344, Alt.=152.927856m. Speed=0.324000m/h.</desc>
<speed>0.090000</speed>
</trkpt>
<trkpt lat="55.837013" lon="26.047342">
<ele>152.943481</ele>
<time>2010-07-17T15:19:39Z</time>
<desc>lat.=55.837013, lon.=26.047342, Alt.=152.943481m. Speed=0.360000m/h.</desc>
<speed>0.100000</speed>
</trkpt>
<trkpt lat="55.837013" lon="26.047342">
<ele>152.963013</ele>
<time>2010-07-17T15:19:40Z</time>
<desc>lat.=55.837013, lon.=26.047342, Alt.=152.963013m. Speed=0.396000m/h.</desc>
<speed>0.110000</speed>
</trkpt>
<trkpt lat="55.837009" lon="26.047340">
<ele>152.974731</ele>
<time>2010-07-17T15:19:41Z</time>
<desc>lat.=55.837009, lon.=26.047340, Alt.=152.974731m. Speed=0.360000m/h.</desc>
<speed>0.100000</speed>
</trkpt>
<trkpt lat="55.837009" lon="26.047338">
<ele>152.986450</ele>
<time>2010-07-17T15:19:42Z</time>
<desc>lat.=55.837009, lon.=26.047338, Alt.=152.986450m. Speed=0.180000m/h.</desc>
<speed>0.050000</speed>
</trkpt>
<trkpt lat="55.837009" lon="26.047338">
<ele>153.002075</ele>
<time>2010-07-17T15:19:43Z</time>
<desc>lat.=55.837009, lon.=26.047338, Alt.=153.002075m. Speed=0.252000m/h.</desc>
<speed>0.070000</speed>
</trkpt>
<trkpt lat="55.837009" lon="26.047337">
<ele>153.013794</ele>
<time>2010-07-17T15:19:44Z</time>
<desc>lat.=55.837009, lon.=26.047337, Alt.=153.013794m. Speed=0.396000m/h.</desc>
<speed>0.110000</speed>
</trkpt>
<trkpt lat="55.837009" lon="26.047335">
<ele>153.029419</ele>
<time>2010-07-17T15:19:45Z</time>
<desc>lat.=55.837009, lon.=26.047335, Alt.=153.029419m. Speed=0.540000m/h.</desc>
<speed>0.150000</speed>
</trkpt>
<trkpt lat="55.837009" lon="26.047333">
<ele>153.045044</ele>
<time>2010-07-17T15:19:46Z</time>
<desc>lat.=55.837009, lon.=26.047333, Alt.=153.045044m. Speed=0.684000m/h.</desc>
<speed>0.190000</speed>
</trkpt>
<trkpt lat="55.837006" lon="26.047331">
<ele>153.060669</ele>
<time>2010-07-17T15:19:47Z</time>
<desc>lat.=55.837006, lon.=26.047331, Alt.=153.060669m. Speed=0.864000m/h.</desc>
<speed>0.240000</speed>
</trkpt>
<trkpt lat="55.837006" lon="26.047329">
<ele>153.080200</ele>
<time>2010-07-17T15:19:48Z</time>
<desc>lat.=55.837006, lon.=26.047329, Alt.=153.080200m. Speed=0.864000m/h.</desc>
<speed>0.240000</speed>
</trkpt>
<trkpt lat="55.837002" lon="26.047327">
<ele>153.103638</ele>
<time>2010-07-17T15:19:49Z</time>
<desc>lat.=55.837002, lon.=26.047327, Alt.=153.103638m. Speed=0.792000m/h.</desc>
<speed>0.220000</speed>
</trkpt>
<trkpt lat="55.837002" lon="26.047325">
<ele>153.127075</ele>
<time>2010-07-17T15:19:50Z</time>
<desc>lat.=55.837002, lon.=26.047325, Alt.=153.127075m. Speed=0.684000m/h.</desc>
<speed>0.190000</speed>
</trkpt>
<trkpt lat="55.836998" lon="26.047323">
<ele>153.146606</ele>
<time>2010-07-17T15:19:51Z</time>
<desc>lat.=55.836998, lon.=26.047323, Alt.=153.146606m. Speed=0.540000m/h.</desc>
<speed>0.150000</speed>
</trkpt>
<trkpt lat="55.836998" lon="26.047321">
<ele>153.162231</ele>
<time>2010-07-17T15:19:52Z</time>
<desc>lat.=55.836998, lon.=26.047321, Alt.=153.162231m. Speed=0.504000m/h.</desc>
<speed>0.140000</speed>
</trkpt>
<trkpt lat="55.836998" lon="26.047319">
<ele>153.177856</ele>
<time>2010-07-17T15:19:53Z</time>
<desc>lat.=55.836998, lon.=26.047319, Alt.=153.177856m. Speed=0.396000m/h.</desc>
<speed>0.110000</speed>
</trkpt>
<trkpt lat="55.836998" lon="26.047318">
<ele>153.193481</ele>
<time>2010-07-17T15:19:54Z</time>
<desc>lat.=55.836998, lon.=26.047318, Alt.=153.193481m. Speed=0.180000m/h.</desc>
<speed>0.050000</speed>
</trkpt>
<trkpt lat="55.836998" lon="26.047318">
<ele>153.209106</ele>
<time>2010-07-17T15:19:55Z</time>
<desc>lat.=55.836998, lon.=26.047318, Alt.=153.209106m. Speed=0.036000m/h.</desc>
<speed>0.010000</speed>
</trkpt>
<trkpt lat="55.836998" lon="26.047318">
<ele>153.224731</ele>
<time>2010-07-17T15:19:56Z</time>
<desc>lat.=55.836998, lon.=26.047318, Alt.=153.224731m. Speed=0.036000m/h.</desc>
<speed>0.010000</speed>
</trkpt>
<trkpt lat="55.836998" lon="26.047318">
<ele>153.244263</ele>
<time>2010-07-17T15:19:57Z</time>
<desc>lat.=55.836998, lon.=26.047318, Alt.=153.244263m. Speed=0.108000m/h.</desc>
<speed>0.030000</speed>
</trkpt>
<trkpt lat="55.836998" lon="26.047318">
<ele>153.271606</ele>
<time>2010-07-17T15:19:58Z</time>
<desc>lat.=55.836998, lon.=26.047318, Alt.=153.271606m. Speed=0.144000m/h.</desc>
<speed>0.040000</speed>
</trkpt>
<trkpt lat="55.836998" lon="26.047318">
<ele>153.302856</ele>
<time>2010-07-17T15:19:59Z</time>
<desc>lat.=55.836998, lon.=26.047318, Alt.=153.302856m. Speed=0.252000m/h.</desc>
<speed>0.070000</speed>
</trkpt>
<trkpt lat="55.836994" lon="26.047316">
<ele>153.341919</ele>
<time>2010-07-17T15:20:00Z</time>
<desc>lat.=55.836994, lon.=26.047316, Alt.=153.341919m. Speed=0.252000m/h.</desc>
<speed>0.070000</speed>
</trkpt>
<trkpt lat="55.836994" lon="26.047316">
<ele>153.380981</ele>
<time>2010-07-17T15:20:01Z</time>
<desc>lat.=55.836994, lon.=26.047316, Alt.=153.380981m. Speed=0.216000m/h.</desc>
<speed>0.060000</speed>
</trkpt>
<trkpt lat="55.836994" lon="26.047316">
<ele>153.427856</ele>
<time>2010-07-17T15:20:02Z</time>
<desc>lat.=55.836994, lon.=26.047316, Alt.=153.427856m. Speed=0.252000m/h.</desc>
<speed>0.070000</speed>
</trkpt>
<trkpt lat="55.836994" lon="26.047314">
<ele>153.474731</ele>
<time>2010-07-17T15:20:03Z</time>
<desc>lat.=55.836994, lon.=26.047314, Alt.=153.474731m. Speed=0.288000m/h.</desc>
<speed>0.080000</speed>
</trkpt>
<trkpt lat="55.836994" lon="26.047312">
<ele>153.517700</ele>
<time>2010-07-17T15:20:04Z</time>
<desc>lat.=55.836994, lon.=26.047312, Alt.=153.517700m. Speed=0.432000m/h.</desc>
<speed>0.120000</speed>
</trkpt>
<trkpt lat="55.836994" lon="26.047310">
<ele>153.564575</ele>
<time>2010-07-17T15:20:05Z</time>
<desc>lat.=55.836994, lon.=26.047310, Alt.=153.564575m. Speed=0.324000m/h.</desc>
<speed>0.090000</speed>
</trkpt>
<trkpt lat="55.836998" lon="26.047310">
<ele>153.611450</ele>
<time>2010-07-17T15:20:06Z</time>
<desc>lat.=55.836998, lon.=26.047310, Alt.=153.611450m. Speed=0.216000m/h.</desc>
<speed>0.060000</speed>
</trkpt>
<trkpt lat="55.836998" lon="26.047310">
<ele>153.658325</ele>
<time>2010-07-17T15:20:07Z</time>
<desc>lat.=55.836998, lon.=26.047310, Alt.=153.658325m. Speed=0.396000m/h.</desc>
<speed>0.110000</speed>
</trkpt>
<trkpt lat="55.836998" lon="26.047310">
<ele>153.705200</ele>
<time>2010-07-17T15:20:08Z</time>
<desc>lat.=55.836998, lon.=26.047310, Alt.=153.705200m. Speed=0.432000m/h.</desc>
<speed>0.120000</speed>
</trkpt>
<trkpt lat="55.836998" lon="26.047310">
<ele>153.752075</ele>
<time>2010-07-17T15:20:09Z</time>
<desc>lat.=55.836998, lon.=26.047310, Alt.=153.752075m. Speed=0.540000m/h.</desc>
<speed>0.150000</speed>
</trkpt>
<trkpt lat="55.837002" lon="26.047308">
<ele>153.802856</ele>
<time>2010-07-17T15:20:10Z</time>
<desc>lat.=55.837002, lon.=26.047308, Alt.=153.802856m. Speed=0.432000m/h.</desc>
<speed>0.120000</speed>
</trkpt>
<trkpt lat="55.837002" lon="26.047308">
<ele>153.857544</ele>
<time>2010-07-17T15:20:11Z</time>
<desc>lat.=55.837002, lon.=26.047308, Alt.=153.857544m. Speed=0.504000m/h.</desc>
<speed>0.140000</speed>
</trkpt>
<trkpt lat="55.837002" lon="26.047308">
<ele>153.908325</ele>
<time>2010-07-17T15:20:12Z</time>
<desc>lat.=55.837002, lon.=26.047308, Alt.=153.908325m. Speed=0.612000m/h.</desc>
<speed>0.170000</speed>
</trkpt>
<trkpt lat="55.837006" lon="26.047306">
<ele>153.963013</ele>
<time>2010-07-17T15:20:13Z</time>
<desc>lat.=55.837006, lon.=26.047306, Alt.=153.963013m. Speed=0.648000m/h.</desc>
<speed>0.180000</speed>
</trkpt>
<trkpt lat="55.837006" lon="26.047306">
<ele>154.025513</ele>
<time>2010-07-17T15:20:14Z</time>
<desc>lat.=55.837006, lon.=26.047306, Alt.=154.025513m. Speed=0.828000m/h.</desc>
<speed>0.230000</speed>
</trkpt>
<trkpt lat="55.837009" lon="26.047306">
<ele>154.084106</ele>
<time>2010-07-17T15:20:15Z</time>
<desc>lat.=55.837009, lon.=26.047306, Alt.=154.084106m. Speed=0.864000m/h.</desc>
<speed>0.240000</speed>
</trkpt>
<trkpt lat="55.837009" lon="26.047306">
<ele>154.146606</ele>
<time>2010-07-17T15:20:16Z</time>
<desc>lat.=55.837009, lon.=26.047306, Alt.=154.146606m. Speed=0.936000m/h.</desc>
<speed>0.260000</speed>
</trkpt>
<trkpt lat="55.837013" lon="26.047306">
<ele>154.216919</ele>
<time>2010-07-17T15:20:17Z</time>
<desc>lat.=55.837013, lon.=26.047306, Alt.=154.216919m. Speed=1.080000m/h.</desc>
<speed>0.300000</speed>
</trkpt>
<trkpt lat="55.837025" lon="26.047310">
<ele>154.662231</ele>
<time>2010-07-17T15:20:18Z</time>
<desc>lat.=55.837025, lon.=26.047310, Alt.=154.662231m. Speed=1.188000m/h.</desc>
<speed>0.330000</speed>
</trkpt>
<trkpt lat="55.837032" lon="26.047314">
<ele>154.736450</ele>
<time>2010-07-17T15:20:19Z</time>
<desc>lat.=55.837032, lon.=26.047314, Alt.=154.736450m. Speed=1.188000m/h.</desc>
<speed>0.330000</speed>
</trkpt>
<trkpt lat="55.837036" lon="26.047318">
<ele>154.841919</ele>
<time>2010-07-17T15:20:20Z</time>
<desc>lat.=55.837036, lon.=26.047318, Alt.=154.841919m. Speed=1.188000m/h.</desc>
<speed>0.330000</speed>
</trkpt>
<trkpt lat="55.837040" lon="26.047314">
<ele>154.947388</ele>
<time>2010-07-17T15:20:21Z</time>
<desc>lat.=55.837040, lon.=26.047314, Alt.=154.947388m. Speed=1.044000m/h.</desc>
<speed>0.290000</speed>
</trkpt>
<trkpt lat="55.837048" lon="26.047314">
<ele>155.490356</ele>
<time>2010-07-17T15:20:22Z</time>
<desc>lat.=55.837048, lon.=26.047314, Alt.=155.490356m. Speed=1.008000m/h.</desc>
<speed>0.280000</speed>
</trkpt>
<trkpt lat="55.837055" lon="26.047314">
<ele>155.814575</ele>
<time>2010-07-17T15:20:23Z</time>
<desc>lat.=55.837055, lon.=26.047314, Alt.=155.814575m. Speed=1.044000m/h.</desc>
<speed>0.290000</speed>
</trkpt>
<trkpt lat="55.837067" lon="26.047316">
<ele>156.130981</ele>
<time>2010-07-17T15:20:24Z</time>
<desc>lat.=55.837067, lon.=26.047316, Alt.=156.130981m. Speed=1.188000m/h.</desc>
<speed>0.330000</speed>
</trkpt>
<trkpt lat="55.837074" lon="26.047319">
<ele>156.248169</ele>
<time>2010-07-17T15:20:25Z</time>
<desc>lat.=55.837074, lon.=26.047319, Alt.=156.248169m. Speed=1.296000m/h.</desc>
<speed>0.360000</speed>
</trkpt>
<trkpt lat="55.837086" lon="26.047327">
<ele>156.338013</ele>
<time>2010-07-17T15:20:26Z</time>
<desc>lat.=55.837086, lon.=26.047327, Alt.=156.338013m. Speed=1.512000m/h.</desc>
<speed>0.420000</speed>
</trkpt>
<trkpt lat="55.837093" lon="26.047325">
<ele>156.466919</ele>
<time>2010-07-17T15:20:27Z</time>
<desc>lat.=55.837093, lon.=26.047325, Alt.=156.466919m. Speed=1.368000m/h.</desc>
<speed>0.380000</speed>
</trkpt>
<trkpt lat="55.837093" lon="26.047321">
<ele>156.701294</ele>
<time>2010-07-17T15:20:28Z</time>
<desc>lat.=55.837093, lon.=26.047321, Alt.=156.701294m. Speed=1.188000m/h.</desc>
<speed>0.330000</speed>
</trkpt>
<trkpt lat="55.837093" lon="26.047321">
<ele>157.002075</ele>
<time>2010-07-17T15:20:29Z</time>
<desc>lat.=55.837093, lon.=26.047321, Alt.=157.002075m. Speed=1.116000m/h.</desc>
<speed>0.310000</speed>
</trkpt>
<trkpt lat="55.837093" lon="26.047323">
<ele>157.369263</ele>
<time>2010-07-17T15:20:30Z</time>
<desc>lat.=55.837093, lon.=26.047323, Alt.=157.369263m. Speed=1.008000m/h.</desc>
<speed>0.280000</speed>
</trkpt>
<trkpt lat="55.837097" lon="26.047325">
<ele>157.498169</ele>
<time>2010-07-17T15:20:31Z</time>
<desc>lat.=55.837097, lon.=26.047325, Alt.=157.498169m. Speed=0.972000m/h.</desc>
<speed>0.270000</speed>
</trkpt>
<trkpt lat="55.837105" lon="26.047325">
<ele>157.619263</ele>
<time>2010-07-17T15:20:32Z</time>
<desc>lat.=55.837105, lon.=26.047325, Alt.=157.619263m. Speed=0.936000m/h.</desc>
<speed>0.260000</speed>
</trkpt>
<trkpt lat="55.837105" lon="26.047319">
<ele>157.380981</ele>
<time>2010-07-17T15:20:33Z</time>
<desc>lat.=55.837105, lon.=26.047319, Alt.=157.380981m. Speed=0.864000m/h.</desc>
<speed>0.240000</speed>
</trkpt>
<trkpt lat="55.837109" lon="26.047319">
<ele>157.447388</ele>
<time>2010-07-17T15:20:34Z</time>
<desc>lat.=55.837109, lon.=26.047319, Alt.=157.447388m. Speed=0.900000m/h.</desc>
<speed>0.250000</speed>
</trkpt>
<trkpt lat="55.837112" lon="26.047319">
<ele>157.513794</ele>
<time>2010-07-17T15:20:35Z</time>
<desc>lat.=55.837112, lon.=26.047319, Alt.=157.513794m. Speed=0.792000m/h.</desc>
<speed>0.220000</speed>
</trkpt>
<trkpt lat="55.837112" lon="26.047319">
<ele>157.580200</ele>
<time>2010-07-17T15:20:36Z</time>
<desc>lat.=55.837112, lon.=26.047319, Alt.=157.580200m. Speed=0.684000m/h.</desc>
<speed>0.190000</speed>
</trkpt>
<trkpt lat="55.837116" lon="26.047321">
<ele>157.646606</ele>
<time>2010-07-17T15:20:37Z</time>
<desc>lat.=55.837116, lon.=26.047321, Alt.=157.646606m. Speed=0.540000m/h.</desc>
<speed>0.150000</speed>
</trkpt>
<trkpt lat="55.837116" lon="26.047321">
<ele>157.709106</ele>
<time>2010-07-17T15:20:38Z</time>
<desc>lat.=55.837116, lon.=26.047321, Alt.=157.709106m. Speed=0.684000m/h.</desc>
<speed>0.190000</speed>
</trkpt>
<trkpt lat="55.837116" lon="26.047321">
<ele>157.775513</ele>
<time>2010-07-17T15:20:39Z</time>
<desc>lat.=55.837116, lon.=26.047321, Alt.=157.775513m. Speed=0.576000m/h.</desc>
<speed>0.160000</speed>
</trkpt>
<trkpt lat="55.837120" lon="26.047323">
<ele>157.841919</ele>
<time>2010-07-17T15:20:40Z</time>
<desc>lat.=55.837120, lon.=26.047323, Alt.=157.841919m. Speed=0.540000m/h.</desc>
<speed>0.150000</speed>
</trkpt>
<trkpt lat="55.837120" lon="26.047323">
<ele>157.908325</ele>
<time>2010-07-17T15:20:41Z</time>
<desc>lat.=55.837120, lon.=26.047323, Alt.=157.908325m. Speed=0.540000m/h.</desc>
<speed>0.150000</speed>
</trkpt>
<trkpt lat="55.837120" lon="26.047323">
<ele>157.974731</ele>
<time>2010-07-17T15:20:42Z</time>
<desc>lat.=55.837120, lon.=26.047323, Alt.=157.974731m. Speed=0.504000m/h.</desc>
<speed>0.140000</speed>
</trkpt>
<trkpt lat="55.837124" lon="26.047323">
<ele>158.041138</ele>
<time>2010-07-17T15:20:43Z</time>
<desc>lat.=55.837124, lon.=26.047323, Alt.=158.041138m. Speed=0.144000m/h.</desc>
<speed>0.040000</speed>
</trkpt>
<trkpt lat="55.837124" lon="26.047323">
<ele>158.111450</ele>
<time>2010-07-17T15:20:44Z</time>
<desc>lat.=55.837124, lon.=26.047323, Alt.=158.111450m. Speed=0.216000m/h.</desc>
<speed>0.060000</speed>
</trkpt>
<trkpt lat="55.837124" lon="26.047321">
<ele>158.173950</ele>
<time>2010-07-17T15:20:45Z</time>
<desc>lat.=55.837124, lon.=26.047321, Alt.=158.173950m. Speed=0.108000m/h.</desc>
<speed>0.030000</speed>
</trkpt>
<trkpt lat="55.837124" lon="26.047321">
<ele>158.236450</ele>
<time>2010-07-17T15:20:46Z</time>
<desc>lat.=55.837124, lon.=26.047321, Alt.=158.236450m. Speed=0.216000m/h.</desc>
<speed>0.060000</speed>
</trkpt>
<trkpt lat="55.837124" lon="26.047321">
<ele>158.306763</ele>
<time>2010-07-17T15:20:47Z</time>
<desc>lat.=55.837124, lon.=26.047321, Alt.=158.306763m. Speed=0.216000m/h.</desc>
<speed>0.060000</speed>
</trkpt>
<trkpt lat="55.837124" lon="26.047321">
<ele>158.373169</ele>
<time>2010-07-17T15:20:48Z</time>
<desc>lat.=55.837124, lon.=26.047321, Alt.=158.373169m. Speed=0.144000m/h.</desc>
<speed>0.040000</speed>
</trkpt>
<trkpt lat="55.837124" lon="26.047321">
<ele>158.439575</ele>
<time>2010-07-17T15:20:49Z</time>
<desc>lat.=55.837124, lon.=26.047321, Alt.=158.439575m. Speed=0.252000m/h.</desc>
<speed>0.070000</speed>
</trkpt>
<trkpt lat="55.837124" lon="26.047323">
<ele>158.513794</ele>
<time>2010-07-17T15:20:50Z</time>
<desc>lat.=55.837124, lon.=26.047323, Alt.=158.513794m. Speed=0.396000m/h.</desc>
<speed>0.110000</speed>
</trkpt>
<trkpt lat="55.837128" lon="26.047325">
<ele>158.584106</ele>
<time>2010-07-17T15:20:51Z</time>
<desc>lat.=55.837128, lon.=26.047325, Alt.=158.584106m. Speed=0.540000m/h.</desc>
<speed>0.150000</speed>
</trkpt>
<trkpt lat="55.837128" lon="26.047327">
<ele>158.650513</ele>
<time>2010-07-17T15:20:52Z</time>
<desc>lat.=55.837128, lon.=26.047327, Alt.=158.650513m. Speed=0.612000m/h.</desc>
<speed>0.170000</speed>
</trkpt>
<trkpt lat="55.837128" lon="26.047327">
<ele>158.713013</ele>
<time>2010-07-17T15:20:53Z</time>
<desc>lat.=55.837128, lon.=26.047327, Alt.=158.713013m. Speed=0.648000m/h.</desc>
<speed>0.180000</speed>
</trkpt>
<trkpt lat="55.837132" lon="26.047329">
<ele>158.775513</ele>
<time>2010-07-17T15:20:54Z</time>
<desc>lat.=55.837132, lon.=26.047329, Alt.=158.775513m. Speed=0.612000m/h.</desc>
<speed>0.170000</speed>
</trkpt>
<trkpt lat="55.837132" lon="26.047331">
<ele>158.838013</ele>
<time>2010-07-17T15:20:55Z</time>
<desc>lat.=55.837132, lon.=26.047331, Alt.=158.838013m. Speed=0.612000m/h.</desc>
<speed>0.170000</speed>
</trkpt>
<trkpt lat="55.837135" lon="26.047331">
<ele>158.904419</ele>
<time>2010-07-17T15:20:56Z</time>
<desc>lat.=55.837135, lon.=26.047331, Alt.=158.904419m. Speed=0.612000m/h.</desc>
<speed>0.170000</speed>
</trkpt>
<trkpt lat="55.837135" lon="26.047331">
<ele>158.963013</ele>
<time>2010-07-17T15:20:57Z</time>
<desc>lat.=55.837135, lon.=26.047331, Alt.=158.963013m. Speed=0.828000m/h.</desc>
<speed>0.230000</speed>
</trkpt>
<trkpt lat="55.837139" lon="26.047331">
<ele>159.017700</ele>
<time>2010-07-17T15:20:58Z</time>
<desc>lat.=55.837139, lon.=26.047331, Alt.=159.017700m. Speed=0.828000m/h.</desc>
<speed>0.230000</speed>
</trkpt>
<trkpt lat="55.837139" lon="26.047331">
<ele>159.072388</ele>
<time>2010-07-17T15:20:59Z</time>
<desc>lat.=55.837139, lon.=26.047331, Alt.=159.072388m. Speed=0.720000m/h.</desc>
<speed>0.200000</speed>
</trkpt>
<trkpt lat="55.837143" lon="26.047333">
<ele>159.127075</ele>
<time>2010-07-17T15:21:00Z</time>
<desc>lat.=55.837143, lon.=26.047333, Alt.=159.127075m. Speed=0.612000m/h.</desc>
<speed>0.170000</speed>
</trkpt>
<trkpt lat="55.837143" lon="26.047331">
<ele>159.181763</ele>
<time>2010-07-17T15:21:01Z</time>
<desc>lat.=55.837143, lon.=26.047331, Alt.=159.181763m. Speed=0.468000m/h.</desc>
<speed>0.130000</speed>
</trkpt>
<trkpt lat="55.837143" lon="26.047331">
<ele>159.248169</ele>
<time>2010-07-17T15:21:02Z</time>
<desc>lat.=55.837143, lon.=26.047331, Alt.=159.248169m. Speed=0.216000m/h.</desc>
<speed>0.060000</speed>
</trkpt>
<trkpt lat="55.837143" lon="26.047331">
<ele>159.314575</ele>
<time>2010-07-17T15:21:03Z</time>
<desc>lat.=55.837143, lon.=26.047331, Alt.=159.314575m. Speed=0.144000m/h.</desc>
<speed>0.040000</speed>
</trkpt>
<trkpt lat="55.837143" lon="26.047331">
<ele>159.384888</ele>
<time>2010-07-17T15:21:04Z</time>
<desc>lat.=55.837143, lon.=26.047331, Alt.=159.384888m. Speed=0.072000m/h.</desc>
<speed>0.020000</speed>
</trkpt>
<trkpt lat="55.837143" lon="26.047331">
<ele>159.459106</ele>
<time>2010-07-17T15:21:05Z</time>
<desc>lat.=55.837143, lon.=26.047331, Alt.=159.459106m. Speed=0.144000m/h.</desc>
<speed>0.040000</speed>
</trkpt>
<trkpt lat="55.837143" lon="26.047329">
<ele>159.545044</ele>
<time>2010-07-17T15:21:06Z</time>
<desc>lat.=55.837143, lon.=26.047329, Alt.=159.545044m. Speed=0.324000m/h.</desc>
<speed>0.090000</speed>
</trkpt>
<trkpt lat="55.837143" lon="26.047329">
<ele>159.642700</ele>
<time>2010-07-17T15:21:07Z</time>
<desc>lat.=55.837143, lon.=26.047329, Alt.=159.642700m. Speed=0.252000m/h.</desc>
<speed>0.070000</speed>
</trkpt>
<trkpt lat="55.837143" lon="26.047327">
<ele>159.744263</ele>
<time>2010-07-17T15:21:08Z</time>
<desc>lat.=55.837143, lon.=26.047327, Alt.=159.744263m. Speed=0.288000m/h.</desc>
<speed>0.080000</speed>
</trkpt>
<trkpt lat="55.837143" lon="26.047327">
<ele>159.861450</ele>
<time>2010-07-17T15:21:09Z</time>
<desc>lat.=55.837143, lon.=26.047327, Alt.=159.861450m. Speed=0.396000m/h.</desc>
<speed>0.110000</speed>
</trkpt>
<trkpt lat="55.837143" lon="26.047325">
<ele>159.990356</ele>
<time>2010-07-17T15:21:10Z</time>
<desc>lat.=55.837143, lon.=26.047325, Alt.=159.990356m. Speed=0.648000m/h.</desc>
<speed>0.180000</speed>
</trkpt>
<trkpt lat="55.837139" lon="26.047325">
<ele>160.130981</ele>
<time>2010-07-17T15:21:11Z</time>
<desc>lat.=55.837139, lon.=26.047325, Alt.=160.130981m. Speed=0.792000m/h.</desc>
<speed>0.220000</speed>
</trkpt>
<trkpt lat="55.837139" lon="26.047325">
<ele>160.271606</ele>
<time>2010-07-17T15:21:12Z</time>
<desc>lat.=55.837139, lon.=26.047325, Alt.=160.271606m. Speed=0.720000m/h.</desc>
<speed>0.200000</speed>
</trkpt>
<trkpt lat="55.837135" lon="26.047323">
<ele>160.423950</ele>
<time>2010-07-17T15:21:13Z</time>
<desc>lat.=55.837135, lon.=26.047323, Alt.=160.423950m. Speed=0.684000m/h.</desc>
<speed>0.190000</speed>
</trkpt>
<trkpt lat="55.837135" lon="26.047321">
<ele>160.572388</ele>
<time>2010-07-17T15:21:14Z</time>
<desc>lat.=55.837135, lon.=26.047321, Alt.=160.572388m. Speed=0.612000m/h.</desc>
<speed>0.170000</speed>
</trkpt>
<trkpt lat="55.837132" lon="26.047321">
<ele>160.728638</ele>
<time>2010-07-17T15:21:15Z</time>
<desc>lat.=55.837132, lon.=26.047321, Alt.=160.728638m. Speed=0.468000m/h.</desc>
<speed>0.130000</speed>
</trkpt>
<trkpt lat="55.837132" lon="26.047321">
<ele>160.880981</ele>
<time>2010-07-17T15:21:16Z</time>
<desc>lat.=55.837132, lon.=26.047321, Alt.=160.880981m. Speed=0.396000m/h.</desc>
<speed>0.110000</speed>
</trkpt>
<trkpt lat="55.837132" lon="26.047321">
<ele>161.033325</ele>
<time>2010-07-17T15:21:17Z</time>
<desc>lat.=55.837132, lon.=26.047321, Alt.=161.033325m. Speed=0.252000m/h.</desc>
<speed>0.070000</speed>
</trkpt>
<trkpt lat="55.837132" lon="26.047321">
<ele>161.185669</ele>
<time>2010-07-17T15:21:18Z</time>
<desc>lat.=55.837132, lon.=26.047321, Alt.=161.185669m. Speed=0.144000m/h.</desc>
<speed>0.040000</speed>
</trkpt>
<trkpt lat="55.837132" lon="26.047321">
<ele>161.338013</ele>
<time>2010-07-17T15:21:19Z</time>
<desc>lat.=55.837132, lon.=26.047321, Alt.=161.338013m. Speed=0.180000m/h.</desc>
<speed>0.050000</speed>
</trkpt>
<trkpt lat="55.837132" lon="26.047321">
<ele>161.482544</ele>
<time>2010-07-17T15:21:20Z</time>
<desc>lat.=55.837132, lon.=26.047321, Alt.=161.482544m. Speed=0.180000m/h.</desc>
<speed>0.050000</speed>
</trkpt>
<trkpt lat="55.837132" lon="26.047319">
<ele>161.634888</ele>
<time>2010-07-17T15:21:21Z</time>
<desc>lat.=55.837132, lon.=26.047319, Alt.=161.634888m. Speed=0.252000m/h.</desc>
<speed>0.070000</speed>
</trkpt>
<trkpt lat="55.837132" lon="26.047319">
<ele>161.787231</ele>
<time>2010-07-17T15:21:22Z</time>
<desc>lat.=55.837132, lon.=26.047319, Alt.=161.787231m. Speed=0.360000m/h.</desc>
<speed>0.100000</speed>
</trkpt>
<trkpt lat="55.837132" lon="26.047319">
<ele>161.951294</ele>
<time>2010-07-17T15:21:23Z</time>
<desc>lat.=55.837132, lon.=26.047319, Alt.=161.951294m. Speed=0.540000m/h.</desc>
<speed>0.150000</speed>
</trkpt>
<trkpt lat="55.837132" lon="26.047318">
<ele>162.115356</ele>
<time>2010-07-17T15:21:24Z</time>
<desc>lat.=55.837132, lon.=26.047318, Alt.=162.115356m. Speed=0.540000m/h.</desc>
<speed>0.150000</speed>
</trkpt>
<trkpt lat="55.837135" lon="26.047318">
<ele>162.275513</ele>
<time>2010-07-17T15:21:25Z</time>
<desc>lat.=55.837135, lon.=26.047318, Alt.=162.275513m. Speed=0.720000m/h.</desc>
<speed>0.200000</speed>
</trkpt>
<trkpt lat="55.837135" lon="26.047314">
<ele>162.439575</ele>
<time>2010-07-17T15:21:26Z</time>
<desc>lat.=55.837135, lon.=26.047314, Alt.=162.439575m. Speed=0.612000m/h.</desc>
<speed>0.170000</speed>
</trkpt>
<trkpt lat="55.837135" lon="26.047312">
<ele>162.599731</ele>
<time>2010-07-17T15:21:27Z</time>
<desc>lat.=55.837135, lon.=26.047312, Alt.=162.599731m. Speed=0.540000m/h.</desc>
<speed>0.150000</speed>
</trkpt>
<trkpt lat="55.837135" lon="26.047308">
<ele>162.763794</ele>
<time>2010-07-17T15:21:28Z</time>
<desc>lat.=55.837135, lon.=26.047308, Alt.=162.763794m. Speed=0.540000m/h.</desc>
<speed>0.150000</speed>
</trkpt>
<trkpt lat="55.837135" lon="26.047306">
<ele>162.923950</ele>
<time>2010-07-17T15:21:29Z</time>
<desc>lat.=55.837135, lon.=26.047306, Alt.=162.923950m. Speed=0.504000m/h.</desc>
<speed>0.140000</speed>
</trkpt>
<trkpt lat="55.837135" lon="26.047304">
<ele>163.091919</ele>
<time>2010-07-17T15:21:30Z</time>
<desc>lat.=55.837135, lon.=26.047304, Alt.=163.091919m. Speed=0.288000m/h.</desc>
<speed>0.080000</speed>
</trkpt>
<trkpt lat="55.837135" lon="26.047302">
<ele>163.255981</ele>
<time>2010-07-17T15:21:31Z</time>
<desc>lat.=55.837135, lon.=26.047302, Alt.=163.255981m. Speed=0.324000m/h.</desc>
<speed>0.090000</speed>
</trkpt>
<trkpt lat="55.837135" lon="26.047300">
<ele>163.420044</ele>
<time>2010-07-17T15:21:32Z</time>
<desc>lat.=55.837135, lon.=26.047300, Alt.=163.420044m. Speed=0.216000m/h.</desc>
<speed>0.060000</speed>
</trkpt>
<trkpt lat="55.837135" lon="26.047300">
<ele>163.572388</ele>
<time>2010-07-17T15:21:33Z</time>
<desc>lat.=55.837135, lon.=26.047300, Alt.=163.572388m. Speed=0.144000m/h.</desc>
<speed>0.040000</speed>
</trkpt>
<trkpt lat="55.837135" lon="26.047300">
<ele>163.724731</ele>
<time>2010-07-17T15:21:34Z</time>
<desc>lat.=55.837135, lon.=26.047300, Alt.=163.724731m. Speed=0.180000m/h.</desc>
<speed>0.050000</speed>
</trkpt>
<trkpt lat="55.837135" lon="26.047300">
<ele>163.877075</ele>
<time>2010-07-17T15:21:35Z</time>
<desc>lat.=55.837135, lon.=26.047300, Alt.=163.877075m. Speed=0.216000m/h.</desc>
<speed>0.060000</speed>
</trkpt>
<trkpt lat="55.837139" lon="26.047298">
<ele>164.029419</ele>
<time>2010-07-17T15:21:36Z</time>
<desc>lat.=55.837139, lon.=26.047298, Alt.=164.029419m. Speed=0.108000m/h.</desc>
<speed>0.030000</speed>
</trkpt>
<trkpt lat="55.837139" lon="26.047298">
<ele>164.181763</ele>
<time>2010-07-17T15:21:37Z</time>
<desc>lat.=55.837139, lon.=26.047298, Alt.=164.181763m. Speed=0.360000m/h.</desc>
<speed>0.100000</speed>
</trkpt>
<trkpt lat="55.837139" lon="26.047297">
<ele>164.326294</ele>
<time>2010-07-17T15:21:38Z</time>
<desc>lat.=55.837139, lon.=26.047297, Alt.=164.326294m. Speed=0.324000m/h.</desc>
<speed>0.090000</speed>
</trkpt>
<trkpt lat="55.837139" lon="26.047295">
<ele>164.474731</ele>
<time>2010-07-17T15:21:39Z</time>
<desc>lat.=55.837139, lon.=26.047295, Alt.=164.474731m. Speed=0.360000m/h.</desc>
<speed>0.100000</speed>
</trkpt>
<trkpt lat="55.837139" lon="26.047293">
<ele>164.623169</ele>
<time>2010-07-17T15:21:40Z</time>
<desc>lat.=55.837139, lon.=26.047293, Alt.=164.623169m. Speed=0.324000m/h.</desc>
<speed>0.090000</speed>
</trkpt>
<trkpt lat="55.837139" lon="26.047293">
<ele>164.767700</ele>
<time>2010-07-17T15:21:41Z</time>
<desc>lat.=55.837139, lon.=26.047293, Alt.=164.767700m. Speed=0.216000m/h.</desc>
<speed>0.060000</speed>
</trkpt>
<trkpt lat="55.837139" lon="26.047291">
<ele>164.908325</ele>
<time>2010-07-17T15:21:42Z</time>
<desc>lat.=55.837139, lon.=26.047291, Alt.=164.908325m. Speed=0.216000m/h.</desc>
<speed>0.060000</speed>
</trkpt>
<trkpt lat="55.837139" lon="26.047291">
<ele>165.045044</ele>
<time>2010-07-17T15:21:43Z</time>
<desc>lat.=55.837139, lon.=26.047291, Alt.=165.045044m. Speed=0.396000m/h.</desc>
<speed>0.110000</speed>
</trkpt>
<trkpt lat="55.837139" lon="26.047289">
<ele>165.173950</ele>
<time>2010-07-17T15:21:44Z</time>
<desc>lat.=55.837139, lon.=26.047289, Alt.=165.173950m. Speed=0.504000m/h.</desc>
<speed>0.140000</speed>
</trkpt>
<trkpt lat="55.837139" lon="26.047287">
<ele>165.298950</ele>
<time>2010-07-17T15:21:45Z</time>
<desc>lat.=55.837139, lon.=26.047287, Alt.=165.298950m. Speed=0.468000m/h.</desc>
<speed>0.130000</speed>
</trkpt>
<trkpt lat="55.837139" lon="26.047285">
<ele>165.423950</ele>
<time>2010-07-17T15:21:46Z</time>
<desc>lat.=55.837139, lon.=26.047285, Alt.=165.423950m. Speed=0.144000m/h.</desc>
<speed>0.040000</speed>
</trkpt>
<trkpt lat="55.837143" lon="26.047285">
<ele>165.545044</ele>
<time>2010-07-17T15:21:47Z</time>
<desc>lat.=55.837143, lon.=26.047285, Alt.=165.545044m. Speed=0.144000m/h.</desc>
<speed>0.040000</speed>
</trkpt>
<trkpt lat="55.837143" lon="26.047285">
<ele>165.650513</ele>
<time>2010-07-17T15:21:48Z</time>
<desc>lat.=55.837143, lon.=26.047285, Alt.=165.650513m. Speed=0.252000m/h.</desc>
<speed>0.070000</speed>
</trkpt>
<trkpt lat="55.837143" lon="26.047285">
<ele>165.755981</ele>
<time>2010-07-17T15:21:49Z</time>
<desc>lat.=55.837143, lon.=26.047285, Alt.=165.755981m. Speed=0.252000m/h.</desc>
<speed>0.070000</speed>
</trkpt>
<trkpt lat="55.837143" lon="26.047285">
<ele>165.857544</ele>
<time>2010-07-17T15:21:50Z</time>
<desc>lat.=55.837143, lon.=26.047285, Alt.=165.857544m. Speed=0.252000m/h.</desc>
<speed>0.070000</speed>
</trkpt>
<trkpt lat="55.837143" lon="26.047285">
<ele>165.955200</ele>
<time>2010-07-17T15:21:51Z</time>
<desc>lat.=55.837143, lon.=26.047285, Alt.=165.955200m. Speed=0.288000m/h.</desc>
<speed>0.080000</speed>
</trkpt>
<trkpt lat="55.837143" lon="26.047285">
<ele>166.052856</ele>
<time>2010-07-17T15:21:52Z</time>
<desc>lat.=55.837143, lon.=26.047285, Alt.=166.052856m. Speed=0.216000m/h.</desc>
<speed>0.060000</speed>
</trkpt>
<trkpt lat="55.837143" lon="26.047285">
<ele>166.154419</ele>
<time>2010-07-17T15:21:53Z</time>
<desc>lat.=55.837143, lon.=26.047285, Alt.=166.154419m. Speed=0.000000m/h.</desc>
<speed>0.000000</speed>
</trkpt>
<trkpt lat="55.837143" lon="26.047285">
<ele>166.244263</ele>
<time>2010-07-17T15:21:54Z</time>
<desc>lat.=55.837143, lon.=26.047285, Alt.=166.244263m. Speed=0.072000m/h.</desc>
<speed>0.020000</speed>
</trkpt>
<trkpt lat="55.837143" lon="26.047285">
<ele>166.330200</ele>
<time>2010-07-17T15:21:55Z</time>
<desc>lat.=55.837143, lon.=26.047285, Alt.=166.330200m. Speed=0.180000m/h.</desc>
<speed>0.050000</speed>
</trkpt>
<trkpt lat="55.837143" lon="26.047285">
<ele>166.416138</ele>
<time>2010-07-17T15:21:56Z</time>
<desc>lat.=55.837143, lon.=26.047285, Alt.=166.416138m. Speed=0.180000m/h.</desc>
<speed>0.050000</speed>
</trkpt>
<trkpt lat="55.837143" lon="26.047285">
<ele>166.486450</ele>
<time>2010-07-17T15:21:57Z</time>
<desc>lat.=55.837143, lon.=26.047285, Alt.=166.486450m. Speed=0.216000m/h.</desc>
<speed>0.060000</speed>
</trkpt>
<trkpt lat="55.837143" lon="26.047285">
<ele>166.556763</ele>
<time>2010-07-17T15:21:58Z</time>
<desc>lat.=55.837143, lon.=26.047285, Alt.=166.556763m. Speed=0.324000m/h.</desc>
<speed>0.090000</speed>
</trkpt>
<trkpt lat="55.837143" lon="26.047285">
<ele>166.630981</ele>
<time>2010-07-17T15:21:59Z</time>
<desc>lat.=55.837143, lon.=26.047285, Alt.=166.630981m. Speed=0.288000m/h.</desc>
<speed>0.080000</speed>
</trkpt>
<trkpt lat="55.837139" lon="26.047285">
<ele>166.693481</ele>
<time>2010-07-17T15:22:00Z</time>
<desc>lat.=55.837139, lon.=26.047285, Alt.=166.693481m. Speed=0.288000m/h.</desc>
<speed>0.080000</speed>
</trkpt>
<trkpt lat="55.837139" lon="26.047285">
<ele>166.755981</ele>
<time>2010-07-17T15:22:01Z</time>
<desc>lat.=55.837139, lon.=26.047285, Alt.=166.755981m. Speed=0.432000m/h.</desc>
<speed>0.120000</speed>
</trkpt>
<trkpt lat="55.837139" lon="26.047285">
<ele>166.814575</ele>
<time>2010-07-17T15:22:02Z</time>
<desc>lat.=55.837139, lon.=26.047285, Alt.=166.814575m. Speed=0.504000m/h.</desc>
<speed>0.140000</speed>
</trkpt>
<trkpt lat="55.837139" lon="26.047285">
<ele>166.861450</ele>
<time>2010-07-17T15:22:03Z</time>
<desc>lat.=55.837139, lon.=26.047285, Alt.=166.861450m. Speed=0.504000m/h.</desc>
<speed>0.140000</speed>
</trkpt>
<trkpt lat="55.837135" lon="26.047285">
<ele>166.912231</ele>
<time>2010-07-17T15:22:04Z</time>
<desc>lat.=55.837135, lon.=26.047285, Alt.=166.912231m. Speed=0.756000m/h.</desc>
<speed>0.210000</speed>
</trkpt>
<trkpt lat="55.837135" lon="26.047285">
<ele>166.963013</ele>
<time>2010-07-17T15:22:05Z</time>
<desc>lat.=55.837135, lon.=26.047285, Alt.=166.963013m. Speed=1.008000m/h.</desc>
<speed>0.280000</speed>
</trkpt>
<trkpt lat="55.837132" lon="26.047285">
<ele>167.009888</ele>
<time>2010-07-17T15:22:06Z</time>
<desc>lat.=55.837132, lon.=26.047285, Alt.=167.009888m. Speed=1.260000m/h.</desc>
<speed>0.350000</speed>
</trkpt>
<trkpt lat="55.837120" lon="26.047287">
<ele>166.689575</ele>
<time>2010-07-17T15:22:07Z</time>
<desc>lat.=55.837120, lon.=26.047287, Alt.=166.689575m. Speed=1.296000m/h.</desc>
<speed>0.360000</speed>
</trkpt>
<trkpt lat="55.837105" lon="26.047291">
<ele>166.377075</ele>
<time>2010-07-17T15:22:08Z</time>
<desc>lat.=55.837105, lon.=26.047291, Alt.=166.377075m. Speed=1.404000m/h.</desc>
<speed>0.390000</speed>
</trkpt>
<trkpt lat="55.837101" lon="26.047297">
<ele>165.795044</ele>
<time>2010-07-17T15:22:09Z</time>
<desc>lat.=55.837101, lon.=26.047297, Alt.=165.795044m. Speed=1.404000m/h.</desc>
<speed>0.390000</speed>
</trkpt>
<trkpt lat="55.837093" lon="26.047302">
<ele>165.302856</ele>
<time>2010-07-17T15:22:10Z</time>
<desc>lat.=55.837093, lon.=26.047302, Alt.=165.302856m. Speed=1.332000m/h.</desc>
<speed>0.370000</speed>
</trkpt>
<trkpt lat="55.837090" lon="26.047306">
<ele>164.802856</ele>
<time>2010-07-17T15:22:11Z</time>
<desc>lat.=55.837090, lon.=26.047306, Alt.=164.802856m. Speed=1.188000m/h.</desc>
<speed>0.330000</speed>
</trkpt>
<trkpt lat="55.837086" lon="26.047314">
<ele>163.951294</ele>
<time>2010-07-17T15:22:12Z</time>
<desc>lat.=55.837086, lon.=26.047314, Alt.=163.951294m. Speed=1.116000m/h.</desc>
<speed>0.310000</speed>
</trkpt>
<trkpt lat="55.837082" lon="26.047325">
<ele>163.232544</ele>
<time>2010-07-17T15:22:13Z</time>
<desc>lat.=55.837082, lon.=26.047325, Alt.=163.232544m. Speed=1.116000m/h.</desc>
<speed>0.310000</speed>
</trkpt>
<trkpt lat="55.837078" lon="26.047327">
<ele>162.076294</ele>
<time>2010-07-17T15:22:14Z</time>
<desc>lat.=55.837078, lon.=26.047327, Alt.=162.076294m. Speed=0.972000m/h.</desc>
<speed>0.270000</speed>
</trkpt>
<trkpt lat="55.837078" lon="26.047337">
<ele>161.642700</ele>
<time>2010-07-17T15:22:15Z</time>
<desc>lat.=55.837078, lon.=26.047337, Alt.=161.642700m. Speed=0.828000m/h.</desc>
<speed>0.230000</speed>
</trkpt>
<trkpt lat="55.837078" lon="26.047340">
<ele>161.365356</ele>
<time>2010-07-17T15:22:16Z</time>
<desc>lat.=55.837078, lon.=26.047340, Alt.=161.365356m. Speed=0.576000m/h.</desc>
<speed>0.160000</speed>
</trkpt>
<trkpt lat="55.837078" lon="26.047342">
<ele>161.420044</ele>
<time>2010-07-17T15:22:17Z</time>
<desc>lat.=55.837078, lon.=26.047342, Alt.=161.420044m. Speed=0.648000m/h.</desc>
<speed>0.180000</speed>
</trkpt>
<trkpt lat="55.837078" lon="26.047344">
<ele>161.408325</ele>
<time>2010-07-17T15:22:18Z</time>
<desc>lat.=55.837078, lon.=26.047344, Alt.=161.408325m. Speed=0.684000m/h.</desc>
<speed>0.190000</speed>
</trkpt>
<trkpt lat="55.837074" lon="26.047346">
<ele>161.396606</ele>
<time>2010-07-17T15:22:19Z</time>
<desc>lat.=55.837074, lon.=26.047346, Alt.=161.396606m. Speed=0.648000m/h.</desc>
<speed>0.180000</speed>
</trkpt>
<trkpt lat="55.837074" lon="26.047348">
<ele>161.369263</ele>
<time>2010-07-17T15:22:20Z</time>
<desc>lat.=55.837074, lon.=26.047348, Alt.=161.369263m. Speed=0.648000m/h.</desc>
<speed>0.180000</speed>
</trkpt>
<trkpt lat="55.837070" lon="26.047348">
<ele>161.330200</ele>
<time>2010-07-17T15:22:21Z</time>
<desc>lat.=55.837070, lon.=26.047348, Alt.=161.330200m. Speed=0.576000m/h.</desc>
<speed>0.160000</speed>
</trkpt>
<trkpt lat="55.837070" lon="26.047348">
<ele>161.275513</ele>
<time>2010-07-17T15:22:22Z</time>
<desc>lat.=55.837070, lon.=26.047348, Alt.=161.275513m. Speed=0.540000m/h.</desc>
<speed>0.150000</speed>
</trkpt>
<trkpt lat="55.837070" lon="26.047350">
<ele>161.205200</ele>
<time>2010-07-17T15:22:23Z</time>
<desc>lat.=55.837070, lon.=26.047350, Alt.=161.205200m. Speed=0.432000m/h.</desc>
<speed>0.120000</speed>
</trkpt>
<trkpt lat="55.837067" lon="26.047350">
<ele>161.134888</ele>
<time>2010-07-17T15:22:24Z</time>
<desc>lat.=55.837067, lon.=26.047350, Alt.=161.134888m. Speed=0.432000m/h.</desc>
<speed>0.120000</speed>
</trkpt>
<trkpt lat="55.837067" lon="26.047350">
<ele>161.052856</ele>
<time>2010-07-17T15:22:25Z</time>
<desc>lat.=55.837067, lon.=26.047350, Alt.=161.052856m. Speed=0.252000m/h.</desc>
<speed>0.070000</speed>
</trkpt>
<trkpt lat="55.837067" lon="26.047350">
<ele>160.966919</ele>
<time>2010-07-17T15:22:26Z</time>
<desc>lat.=55.837067, lon.=26.047350, Alt.=160.966919m. Speed=0.324000m/h.</desc>
<speed>0.090000</speed>
</trkpt>
<trkpt lat="55.837067" lon="26.047352">
<ele>160.880981</ele>
<time>2010-07-17T15:22:27Z</time>
<desc>lat.=55.837067, lon.=26.047352, Alt.=160.880981m. Speed=0.540000m/h.</desc>
<speed>0.150000</speed>
</trkpt>
<trkpt lat="55.837063" lon="26.047352">
<ele>160.791138</ele>
<time>2010-07-17T15:22:28Z</time>
<desc>lat.=55.837063, lon.=26.047352, Alt.=160.791138m. Speed=0.720000m/h.</desc>
<speed>0.200000</speed>
</trkpt>
<trkpt lat="55.837063" lon="26.047354">
<ele>160.697388</ele>
<time>2010-07-17T15:22:29Z</time>
<desc>lat.=55.837063, lon.=26.047354, Alt.=160.697388m. Speed=0.792000m/h.</desc>
<speed>0.220000</speed>
</trkpt>
<trkpt lat="55.837059" lon="26.047356">
<ele>160.599731</ele>
<time>2010-07-17T15:22:30Z</time>
<desc>lat.=55.837059, lon.=26.047356, Alt.=160.599731m. Speed=1.044000m/h.</desc>
<speed>0.290000</speed>
</trkpt>
<trkpt lat="55.837055" lon="26.047358">
<ele>160.498169</ele>
<time>2010-07-17T15:22:31Z</time>
<desc>lat.=55.837055, lon.=26.047358, Alt.=160.498169m. Speed=1.080000m/h.</desc>
<speed>0.300000</speed>
</trkpt>
<trkpt lat="55.837044" lon="26.047361">
<ele>159.986450</ele>
<time>2010-07-17T15:22:32Z</time>
<desc>lat.=55.837044, lon.=26.047361, Alt.=159.986450m. Speed=1.188000m/h.</desc>
<speed>0.330000</speed>
</trkpt>
<trkpt lat="55.837036" lon="26.047367">
<ele>159.642700</ele>
<time>2010-07-17T15:22:33Z</time>
<desc>lat.=55.837036, lon.=26.047367, Alt.=159.642700m. Speed=1.260000m/h.</desc>
<speed>0.350000</speed>
</trkpt>
<trkpt lat="55.837029" lon="26.047373">
<ele>159.513794</ele>
<time>2010-07-17T15:22:34Z</time>
<desc>lat.=55.837029, lon.=26.047373, Alt.=159.513794m. Speed=1.332000m/h.</desc>
<speed>0.370000</speed>
</trkpt>
<trkpt lat="55.837025" lon="26.047377">
<ele>159.369263</ele>
<time>2010-07-17T15:22:35Z</time>
<desc>lat.=55.837025, lon.=26.047377, Alt.=159.369263m. Speed=1.152000m/h.</desc>
<speed>0.320000</speed>
</trkpt>
<trkpt lat="55.837025" lon="26.047382">
<ele>158.994263</ele>
<time>2010-07-17T15:22:36Z</time>
<desc>lat.=55.837025, lon.=26.047382, Alt.=158.994263m. Speed=1.152000m/h.</desc>
<speed>0.320000</speed>
</trkpt>
<trkpt lat="55.837029" lon="26.047388">
<ele>158.423950</ele>
<time>2010-07-17T15:22:37Z</time>
<desc>lat.=55.837029, lon.=26.047388, Alt.=158.423950m. Speed=1.080000m/h.</desc>
<speed>0.300000</speed>
</trkpt>
<trkpt lat="55.837032" lon="26.047407">
<ele>156.908325</ele>
<time>2010-07-17T15:22:38Z</time>
<desc>lat.=55.837032, lon.=26.047407, Alt.=156.908325m. Speed=1.224000m/h.</desc>
<speed>0.340000</speed>
</trkpt>
<trkpt lat="55.837032" lon="26.047409">
<ele>156.783325</ele>
<time>2010-07-17T15:22:39Z</time>
<desc>lat.=55.837032, lon.=26.047409, Alt.=156.783325m. Speed=1.080000m/h.</desc>
<speed>0.300000</speed>
</trkpt>
<trkpt lat="55.837032" lon="26.047413">
<ele>156.693481</ele>
<time>2010-07-17T15:22:40Z</time>
<desc>lat.=55.837032, lon.=26.047413, Alt.=156.693481m. Speed=1.008000m/h.</desc>
<speed>0.280000</speed>
</trkpt>
<trkpt lat="55.837029" lon="26.047413">
<ele>156.185669</ele>
<time>2010-07-17T15:22:41Z</time>
<desc>lat.=55.837029, lon.=26.047413, Alt.=156.185669m. Speed=0.972000m/h.</desc>
<speed>0.270000</speed>
</trkpt>
<trkpt lat="55.837029" lon="26.047415">
<ele>155.693481</ele>
<time>2010-07-17T15:22:42Z</time>
<desc>lat.=55.837029, lon.=26.047415, Alt.=155.693481m. Speed=0.972000m/h.</desc>
<speed>0.270000</speed>
</trkpt>
<trkpt lat="55.837029" lon="26.047417">
<ele>155.513794</ele>
<time>2010-07-17T15:22:43Z</time>
<desc>lat.=55.837029, lon.=26.047417, Alt.=155.513794m. Speed=0.864000m/h.</desc>
<speed>0.240000</speed>
</trkpt>
<trkpt lat="55.837029" lon="26.047421">
<ele>155.384888</ele>
<time>2010-07-17T15:22:44Z</time>
<desc>lat.=55.837029, lon.=26.047421, Alt.=155.384888m. Speed=0.612000m/h.</desc>
<speed>0.170000</speed>
</trkpt>
<trkpt lat="55.837029" lon="26.047422">
<ele>155.252075</ele>
<time>2010-07-17T15:22:45Z</time>
<desc>lat.=55.837029, lon.=26.047422, Alt.=155.252075m. Speed=0.540000m/h.</desc>
<speed>0.150000</speed>
</trkpt>
<trkpt lat="55.837029" lon="26.047426">
<ele>155.111450</ele>
<time>2010-07-17T15:22:46Z</time>
<desc>lat.=55.837029, lon.=26.047426, Alt.=155.111450m. Speed=0.612000m/h.</desc>
<speed>0.170000</speed>
</trkpt>
<trkpt lat="55.837029" lon="26.047428">
<ele>154.978638</ele>
<time>2010-07-17T15:22:47Z</time>
<desc>lat.=55.837029, lon.=26.047428, Alt.=154.978638m. Speed=0.468000m/h.</desc>
<speed>0.130000</speed>
</trkpt>
<trkpt lat="55.837029" lon="26.047430">
<ele>154.845825</ele>
<time>2010-07-17T15:22:48Z</time>
<desc>lat.=55.837029, lon.=26.047430, Alt.=154.845825m. Speed=0.324000m/h.</desc>
<speed>0.090000</speed>
</trkpt>
<trkpt lat="55.837029" lon="26.047432">
<ele>154.713013</ele>
<time>2010-07-17T15:22:49Z</time>
<desc>lat.=55.837029, lon.=26.047432, Alt.=154.713013m. Speed=0.288000m/h.</desc>
<speed>0.080000</speed>
</trkpt>
<trkpt lat="55.837029" lon="26.047432">
<ele>154.580200</ele>
<time>2010-07-17T15:22:50Z</time>
<desc>lat.=55.837029, lon.=26.047432, Alt.=154.580200m. Speed=0.288000m/h.</desc>
<speed>0.080000</speed>
</trkpt>
<trkpt lat="55.837025" lon="26.047432">
<ele>154.443481</ele>
<time>2010-07-17T15:22:51Z</time>
<desc>lat.=55.837025, lon.=26.047432, Alt.=154.443481m. Speed=0.432000m/h.</desc>
<speed>0.120000</speed>
</trkpt>
<trkpt lat="55.837025" lon="26.047432">
<ele>154.310669</ele>
<time>2010-07-17T15:22:52Z</time>
<desc>lat.=55.837025, lon.=26.047432, Alt.=154.310669m. Speed=0.504000m/h.</desc>
<speed>0.140000</speed>
</trkpt>
<trkpt lat="55.837025" lon="26.047434">
<ele>154.185669</ele>
<time>2010-07-17T15:22:53Z</time>
<desc>lat.=55.837025, lon.=26.047434, Alt.=154.185669m. Speed=0.720000m/h.</desc>
<speed>0.200000</speed>
</trkpt>
<trkpt lat="55.837021" lon="26.047434">
<ele>154.068481</ele>
<time>2010-07-17T15:22:54Z</time>
<desc>lat.=55.837021, lon.=26.047434, Alt.=154.068481m. Speed=0.900000m/h.</desc>
<speed>0.250000</speed>
</trkpt>
<trkpt lat="55.837017" lon="26.047434">
<ele>153.955200</ele>
<time>2010-07-17T15:22:55Z</time>
<desc>lat.=55.837017, lon.=26.047434, Alt.=153.955200m. Speed=0.936000m/h.</desc>
<speed>0.260000</speed>
</trkpt>
<trkpt lat="55.837017" lon="26.047434">
<ele>153.849731</ele>
<time>2010-07-17T15:22:56Z</time>
<desc>lat.=55.837017, lon.=26.047434, Alt.=153.849731m. Speed=1.116000m/h.</desc>
<speed>0.310000</speed>
</trkpt>
<trkpt lat="55.837009" lon="26.047438">
<ele>153.736450</ele>
<time>2010-07-17T15:22:57Z</time>
<desc>lat.=55.837009, lon.=26.047438, Alt.=153.736450m. Speed=1.152000m/h.</desc>
<speed>0.320000</speed>
</trkpt>
<trkpt lat="55.837002" lon="26.047443">
<ele>153.607544</ele>
<time>2010-07-17T15:22:58Z</time>
<desc>lat.=55.837002, lon.=26.047443, Alt.=153.607544m. Speed=1.260000m/h.</desc>
<speed>0.350000</speed>
</trkpt>
<trkpt lat="55.836998" lon="26.047443">
<ele>153.404419</ele>
<time>2010-07-17T15:22:59Z</time>
<desc>lat.=55.836998, lon.=26.047443, Alt.=153.404419m. Speed=1.188000m/h.</desc>
<speed>0.330000</speed>
</trkpt>
<trkpt lat="55.836994" lon="26.047440">
<ele>153.459106</ele>
<time>2010-07-17T15:23:00Z</time>
<desc>lat.=55.836994, lon.=26.047440, Alt.=153.459106m. Speed=1.080000m/h.</desc>
<speed>0.300000</speed>
</trkpt>
<trkpt lat="55.836994" lon="26.047438">
<ele>153.459106</ele>
<time>2010-07-17T15:23:01Z</time>
<desc>lat.=55.836994, lon.=26.047438, Alt.=153.459106m. Speed=0.936000m/h.</desc>
<speed>0.260000</speed>
</trkpt>
<trkpt lat="55.836994" lon="26.047432">
<ele>153.220825</ele>
<time>2010-07-17T15:23:02Z</time>
<desc>lat.=55.836994, lon.=26.047432, Alt.=153.220825m. Speed=0.828000m/h.</desc>
<speed>0.230000</speed>
</trkpt>
<trkpt lat="55.836994" lon="26.047428">
<ele>152.974731</ele>
<time>2010-07-17T15:23:03Z</time>
<desc>lat.=55.836994, lon.=26.047428, Alt.=152.974731m. Speed=0.792000m/h.</desc>
<speed>0.220000</speed>
</trkpt>
<trkpt lat="55.836994" lon="26.047426">
<ele>152.720825</ele>
<time>2010-07-17T15:23:04Z</time>
<desc>lat.=55.836994, lon.=26.047426, Alt.=152.720825m. Speed=0.756000m/h.</desc>
<speed>0.210000</speed>
</trkpt>
<trkpt lat="55.836994" lon="26.047426">
<ele>152.607544</ele>
<time>2010-07-17T15:23:05Z</time>
<desc>lat.=55.836994, lon.=26.047426, Alt.=152.607544m. Speed=0.612000m/h.</desc>
<speed>0.170000</speed>
</trkpt>
<trkpt lat="55.836990" lon="26.047426">
<ele>152.502075</ele>
<time>2010-07-17T15:23:06Z</time>
<desc>lat.=55.836990, lon.=26.047426, Alt.=152.502075m. Speed=0.684000m/h.</desc>
<speed>0.190000</speed>
</trkpt>
<trkpt lat="55.836990" lon="26.047426">
<ele>152.400513</ele>
<time>2010-07-17T15:23:07Z</time>
<desc>lat.=55.836990, lon.=26.047426, Alt.=152.400513m. Speed=0.756000m/h.</desc>
<speed>0.210000</speed>
</trkpt>
<trkpt lat="55.836987" lon="26.047424">
<ele>152.298950</ele>
<time>2010-07-17T15:23:08Z</time>
<desc>lat.=55.836987, lon.=26.047424, Alt.=152.298950m. Speed=0.756000m/h.</desc>
<speed>0.210000</speed>
</trkpt>
<trkpt lat="55.836987" lon="26.047422">
<ele>152.197388</ele>
<time>2010-07-17T15:23:09Z</time>
<desc>lat.=55.836987, lon.=26.047422, Alt.=152.197388m. Speed=0.720000m/h.</desc>
<speed>0.200000</speed>
</trkpt>
<trkpt lat="55.836983" lon="26.047422">
<ele>152.103638</ele>
<time>2010-07-17T15:23:10Z</time>
<desc>lat.=55.836983, lon.=26.047422, Alt.=152.103638m. Speed=0.792000m/h.</desc>
<speed>0.220000</speed>
</trkpt>
<trkpt lat="55.836983" lon="26.047421">
<ele>152.021606</ele>
<time>2010-07-17T15:23:11Z</time>
<desc>lat.=55.836983, lon.=26.047421, Alt.=152.021606m. Speed=0.972000m/h.</desc>
<speed>0.270000</speed>
</trkpt>
<trkpt lat="55.836979" lon="26.047417">
<ele>151.943481</ele>
<time>2010-07-17T15:23:12Z</time>
<desc>lat.=55.836979, lon.=26.047417, Alt.=151.943481m. Speed=0.972000m/h.</desc>
<speed>0.270000</speed>
</trkpt>
<trkpt lat="55.836979" lon="26.047415">
<ele>151.869263</ele>
<time>2010-07-17T15:23:13Z</time>
<desc>lat.=55.836979, lon.=26.047415, Alt.=151.869263m. Speed=0.792000m/h.</desc>
<speed>0.220000</speed>
</trkpt>
<trkpt lat="55.836979" lon="26.047413">
<ele>151.798950</ele>
<time>2010-07-17T15:23:14Z</time>
<desc>lat.=55.836979, lon.=26.047413, Alt.=151.798950m. Speed=0.684000m/h.</desc>
<speed>0.190000</speed>
</trkpt>
<trkpt lat="55.836975" lon="26.047411">
<ele>151.732544</ele>
<time>2010-07-17T15:23:15Z</time>
<desc>lat.=55.836975, lon.=26.047411, Alt.=151.732544m. Speed=0.756000m/h.</desc>
<speed>0.210000</speed>
</trkpt>
<trkpt lat="55.836975" lon="26.047409">
<ele>151.681763</ele>
<time>2010-07-17T15:23:16Z</time>
<desc>lat.=55.836975, lon.=26.047409, Alt.=151.681763m. Speed=0.504000m/h.</desc>
<speed>0.140000</speed>
</trkpt>
<trkpt lat="55.836971" lon="26.047407">
<ele>151.634888</ele>
<time>2010-07-17T15:23:17Z</time>
<desc>lat.=55.836971, lon.=26.047407, Alt.=151.634888m. Speed=0.432000m/h.</desc>
<speed>0.120000</speed>
</trkpt>
<trkpt lat="55.836971" lon="26.047407">
<ele>151.599731</ele>
<time>2010-07-17T15:23:18Z</time>
<desc>lat.=55.836971, lon.=26.047407, Alt.=151.599731m. Speed=0.396000m/h.</desc>
<speed>0.110000</speed>
</trkpt>
<trkpt lat="55.836971" lon="26.047405">
<ele>151.568481</ele>
<time>2010-07-17T15:23:19Z</time>
<desc>lat.=55.836971, lon.=26.047405, Alt.=151.568481m. Speed=0.144000m/h.</desc>
<speed>0.040000</speed>
</trkpt>
<trkpt lat="55.836971" lon="26.047405">
<ele>151.545044</ele>
<time>2010-07-17T15:23:20Z</time>
<desc>lat.=55.836971, lon.=26.047405, Alt.=151.545044m. Speed=0.324000m/h.</desc>
<speed>0.090000</speed>
</trkpt>
<trkpt lat="55.836971" lon="26.047403">
<ele>151.529419</ele>
<time>2010-07-17T15:23:21Z</time>
<desc>lat.=55.836971, lon.=26.047403, Alt.=151.529419m. Speed=0.576000m/h.</desc>
<speed>0.160000</speed>
</trkpt>
<trkpt lat="55.836975" lon="26.047403">
<ele>151.513794</ele>
<time>2010-07-17T15:23:22Z</time>
<desc>lat.=55.836975, lon.=26.047403, Alt.=151.513794m. Speed=0.612000m/h.</desc>
<speed>0.170000</speed>
</trkpt>
<trkpt lat="55.836975" lon="26.047405">
<ele>151.505981</ele>
<time>2010-07-17T15:23:23Z</time>
<desc>lat.=55.836975, lon.=26.047405, Alt.=151.505981m. Speed=0.756000m/h.</desc>
<speed>0.210000</speed>
</trkpt>
<trkpt lat="55.836979" lon="26.047407">
<ele>151.498169</ele>
<time>2010-07-17T15:23:24Z</time>
<desc>lat.=55.836979, lon.=26.047407, Alt.=151.498169m. Speed=0.864000m/h.</desc>
<speed>0.240000</speed>
</trkpt>
<trkpt lat="55.836979" lon="26.047409">
<ele>151.494263</ele>
<time>2010-07-17T15:23:25Z</time>
<desc>lat.=55.836979, lon.=26.047409, Alt.=151.494263m. Speed=1.080000m/h.</desc>
<speed>0.300000</speed>
</trkpt>
<trkpt lat="55.836990" lon="26.047419">
<ele>151.986450</ele>
<time>2010-07-17T15:23:26Z</time>
<desc>lat.=55.836990, lon.=26.047419, Alt.=151.986450m. Speed=1.152000m/h.</desc>
<speed>0.320000</speed>
</trkpt>
<trkpt lat="55.836998" lon="26.047415">
<ele>152.814575</ele>
<time>2010-07-17T15:23:27Z</time>
<desc>lat.=55.836998, lon.=26.047415, Alt.=152.814575m. Speed=1.116000m/h.</desc>
<speed>0.310000</speed>
</trkpt>
<trkpt lat="55.837002" lon="26.047411">
<ele>153.459106</ele>
<time>2010-07-17T15:23:28Z</time>
<desc>lat.=55.837002, lon.=26.047411, Alt.=153.459106m. Speed=1.080000m/h.</desc>
<speed>0.300000</speed>
</trkpt>
<trkpt lat="55.837013" lon="26.047422">
<ele>153.568481</ele>
<time>2010-07-17T15:23:29Z</time>
<desc>lat.=55.837013, lon.=26.047422, Alt.=153.568481m. Speed=1.188000m/h.</desc>
<speed>0.330000</speed>
</trkpt>
<trkpt lat="55.837029" lon="26.047422">
<ele>153.810669</ele>
<time>2010-07-17T15:23:30Z</time>
<desc>lat.=55.837029, lon.=26.047422, Alt.=153.810669m. Speed=1.440000m/h.</desc>
<speed>0.400000</speed>
</trkpt>
<trkpt lat="55.837036" lon="26.047413">
<ele>153.916138</ele>
<time>2010-07-17T15:23:31Z</time>
<desc>lat.=55.837036, lon.=26.047413, Alt.=153.916138m. Speed=1.332000m/h.</desc>
<speed>0.370000</speed>
</trkpt>
<trkpt lat="55.837048" lon="26.047401">
<ele>154.193481</ele>
<time>2010-07-17T15:23:32Z</time>
<desc>lat.=55.837048, lon.=26.047401, Alt.=154.193481m. Speed=1.476000m/h.</desc>
<speed>0.410000</speed>
</trkpt>
<trkpt lat="55.837055" lon="26.047398">
<ele>154.377075</ele>
<time>2010-07-17T15:23:33Z</time>
<desc>lat.=55.837055, lon.=26.047398, Alt.=154.377075m. Speed=1.512000m/h.</desc>
<speed>0.420000</speed>
</trkpt>
<trkpt lat="55.837055" lon="26.047398">
<ele>154.623169</ele>
<time>2010-07-17T15:23:34Z</time>
<desc>lat.=55.837055, lon.=26.047398, Alt.=154.623169m. Speed=1.296000m/h.</desc>
<speed>0.360000</speed>
</trkpt>
<trkpt lat="55.837059" lon="26.047405">
<ele>154.720825</ele>
<time>2010-07-17T15:23:35Z</time>
<desc>lat.=55.837059, lon.=26.047405, Alt.=154.720825m. Speed=1.296000m/h.</desc>
<speed>0.360000</speed>
</trkpt>
<trkpt lat="55.837063" lon="26.047419">
<ele>154.810669</ele>
<time>2010-07-17T15:23:36Z</time>
<desc>lat.=55.837063, lon.=26.047419, Alt.=154.810669m. Speed=1.296000m/h.</desc>
<speed>0.360000</speed>
</trkpt>
<trkpt lat="55.837063" lon="26.047428">
<ele>154.951294</ele>
<time>2010-07-17T15:23:37Z</time>
<desc>lat.=55.837063, lon.=26.047428, Alt.=154.951294m. Speed=1.260000m/h.</desc>
<speed>0.350000</speed>
</trkpt>
<trkpt lat="55.837063" lon="26.047424">
<ele>155.345825</ele>
<time>2010-07-17T15:23:38Z</time>
<desc>lat.=55.837063, lon.=26.047424, Alt.=155.345825m. Speed=1.116000m/h.</desc>
<speed>0.310000</speed>
</trkpt>
<trkpt lat="55.837063" lon="26.047428">
<ele>155.841919</ele>
<time>2010-07-17T15:23:39Z</time>
<desc>lat.=55.837063, lon.=26.047428, Alt.=155.841919m. Speed=1.044000m/h.</desc>
<speed>0.290000</speed>
</trkpt>
<trkpt lat="55.837063" lon="26.047440">
<ele>155.658325</ele>
<time>2010-07-17T15:23:40Z</time>
<desc>lat.=55.837063, lon.=26.047440, Alt.=155.658325m. Speed=1.044000m/h.</desc>
<speed>0.290000</speed>
</trkpt>
<trkpt lat="55.837067" lon="26.047436">
<ele>156.017700</ele>
<time>2010-07-17T15:23:41Z</time>
<desc>lat.=55.837067, lon.=26.047436, Alt.=156.017700m. Speed=0.828000m/h.</desc>
<speed>0.230000</speed>
</trkpt>
<trkpt lat="55.837059" lon="26.047432">
<ele>156.255981</ele>
<time>2010-07-17T15:23:42Z</time>
<desc>lat.=55.837059, lon.=26.047432, Alt.=156.255981m. Speed=0.612000m/h.</desc>
<speed>0.170000</speed>
</trkpt>
<trkpt lat="55.837063" lon="26.047432">
<ele>156.310669</ele>
<time>2010-07-17T15:23:43Z</time>
<desc>lat.=55.837063, lon.=26.047432, Alt.=156.310669m. Speed=0.432000m/h.</desc>
<speed>0.120000</speed>
</trkpt>
<trkpt lat="55.837063" lon="26.047432">
<ele>156.357544</ele>
<time>2010-07-17T15:23:44Z</time>
<desc>lat.=55.837063, lon.=26.047432, Alt.=156.357544m. Speed=0.144000m/h.</desc>
<speed>0.040000</speed>
</trkpt>
<trkpt lat="55.837063" lon="26.047432">
<ele>156.404419</ele>
<time>2010-07-17T15:23:45Z</time>
<desc>lat.=55.837063, lon.=26.047432, Alt.=156.404419m. Speed=0.072000m/h.</desc>
<speed>0.020000</speed>
</trkpt>
<trkpt lat="55.837063" lon="26.047432">
<ele>156.455200</ele>
<time>2010-07-17T15:23:46Z</time>
<desc>lat.=55.837063, lon.=26.047432, Alt.=156.455200m. Speed=0.072000m/h.</desc>
<speed>0.020000</speed>
</trkpt>
<trkpt lat="55.837063" lon="26.047434">
<ele>156.509888</ele>
<time>2010-07-17T15:23:47Z</time>
<desc>lat.=55.837063, lon.=26.047434, Alt.=156.509888m. Speed=0.108000m/h.</desc>
<speed>0.030000</speed>
</trkpt>
<trkpt lat="55.837063" lon="26.047434">
<ele>156.564575</ele>
<time>2010-07-17T15:23:48Z</time>
<desc>lat.=55.837063, lon.=26.047434, Alt.=156.564575m. Speed=0.072000m/h.</desc>
<speed>0.020000</speed>
</trkpt>
<trkpt lat="55.837063" lon="26.047434">
<ele>156.627075</ele>
<time>2010-07-17T15:23:49Z</time>
<desc>lat.=55.837063, lon.=26.047434, Alt.=156.627075m. Speed=0.288000m/h.</desc>
<speed>0.080000</speed>
</trkpt>
<trkpt lat="55.837063" lon="26.047432">
<ele>156.693481</ele>
<time>2010-07-17T15:23:50Z</time>
<desc>lat.=55.837063, lon.=26.047432, Alt.=156.693481m. Speed=0.360000m/h.</desc>
<speed>0.100000</speed>
</trkpt>
<trkpt lat="55.837059" lon="26.047432">
<ele>156.752075</ele>
<time>2010-07-17T15:23:51Z</time>
<desc>lat.=55.837059, lon.=26.047432, Alt.=156.752075m. Speed=0.468000m/h.</desc>
<speed>0.130000</speed>
</trkpt>
<trkpt lat="55.837059" lon="26.047430">
<ele>156.810669</ele>
<time>2010-07-17T15:23:52Z</time>
<desc>lat.=55.837059, lon.=26.047430, Alt.=156.810669m. Speed=0.396000m/h.</desc>
<speed>0.110000</speed>
</trkpt>
<trkpt lat="55.837059" lon="26.047430">
<ele>156.869263</ele>
<time>2010-07-17T15:23:53Z</time>
<desc>lat.=55.837059, lon.=26.047430, Alt.=156.869263m. Speed=0.324000m/h.</desc>
<speed>0.090000</speed>
</trkpt>
<trkpt lat="55.837059" lon="26.047428">
<ele>156.935669</ele>
<time>2010-07-17T15:23:54Z</time>
<desc>lat.=55.837059, lon.=26.047428, Alt.=156.935669m. Speed=0.288000m/h.</desc>
<speed>0.080000</speed>
</trkpt>
<trkpt lat="55.837059" lon="26.047428">
<ele>157.002075</ele>
<time>2010-07-17T15:23:55Z</time>
<desc>lat.=55.837059, lon.=26.047428, Alt.=157.002075m. Speed=0.216000m/h.</desc>
<speed>0.060000</speed>
</trkpt>
<trkpt lat="55.837059" lon="26.047426">
<ele>157.064575</ele>
<time>2010-07-17T15:23:56Z</time>
<desc>lat.=55.837059, lon.=26.047426, Alt.=157.064575m. Speed=0.180000m/h.</desc>
<speed>0.050000</speed>
</trkpt>
<trkpt lat="55.837059" lon="26.047426">
<ele>157.130981</ele>
<time>2010-07-17T15:23:57Z</time>
<desc>lat.=55.837059, lon.=26.047426, Alt.=157.130981m. Speed=0.216000m/h.</desc>
<speed>0.060000</speed>
</trkpt>
<trkpt lat="55.837059" lon="26.047424">
<ele>157.201294</ele>
<time>2010-07-17T15:23:58Z</time>
<desc>lat.=55.837059, lon.=26.047424, Alt.=157.201294m. Speed=0.288000m/h.</desc>
<speed>0.080000</speed>
</trkpt>
<trkpt lat="55.837059" lon="26.047422">
<ele>157.259888</ele>
<time>2010-07-17T15:23:59Z</time>
<desc>lat.=55.837059, lon.=26.047422, Alt.=157.259888m. Speed=0.324000m/h.</desc>
<speed>0.090000</speed>
</trkpt>
<trkpt lat="55.837059" lon="26.047422">
<ele>157.326294</ele>
<time>2010-07-17T15:24:00Z</time>
<desc>lat.=55.837059, lon.=26.047422, Alt.=157.326294m. Speed=0.288000m/h.</desc>
<speed>0.080000</speed>
</trkpt>
<trkpt lat="55.837055" lon="26.047421">
<ele>157.380981</ele>
<time>2010-07-17T15:24:01Z</time>
<desc>lat.=55.837055, lon.=26.047421, Alt.=157.380981m. Speed=0.288000m/h.</desc>
<speed>0.080000</speed>
</trkpt>
<trkpt lat="55.837055" lon="26.047421">
<ele>157.431763</ele>
<time>2010-07-17T15:24:02Z</time>
<desc>lat.=55.837055, lon.=26.047421, Alt.=157.431763m. Speed=0.252000m/h.</desc>
<speed>0.070000</speed>
</trkpt>
<trkpt lat="55.837055" lon="26.047421">
<ele>157.478638</ele>
<time>2010-07-17T15:24:03Z</time>
<desc>lat.=55.837055, lon.=26.047421, Alt.=157.478638m. Speed=0.216000m/h.</desc>
<speed>0.060000</speed>
</trkpt>
<trkpt lat="55.837055" lon="26.047421">
<ele>157.525513</ele>
<time>2010-07-17T15:24:04Z</time>
<desc>lat.=55.837055, lon.=26.047421, Alt.=157.525513m. Speed=0.216000m/h.</desc>
<speed>0.060000</speed>
</trkpt>
<trkpt lat="55.837055" lon="26.047421">
<ele>157.572388</ele>
<time>2010-07-17T15:24:05Z</time>
<desc>lat.=55.837055, lon.=26.047421, Alt.=157.572388m. Speed=0.216000m/h.</desc>
<speed>0.060000</speed>
</trkpt>
<trkpt lat="55.837055" lon="26.047421">
<ele>157.580200</ele>
<time>2010-07-17T15:24:06Z</time>
<desc>lat.=55.837055, lon.=26.047421, Alt.=157.580200m. Speed=0.036000m/h.</desc>
<speed>0.010000</speed>
</trkpt>
<trkpt lat="55.837055" lon="26.047421">
<ele>157.576294</ele>
<time>2010-07-17T15:24:07Z</time>
<desc>lat.=55.837055, lon.=26.047421, Alt.=157.576294m. Speed=0.036000m/h.</desc>
<speed>0.010000</speed>
</trkpt>
<trkpt lat="55.837055" lon="26.047421">
<ele>157.564575</ele>
<time>2010-07-17T15:24:08Z</time>
<desc>lat.=55.837055, lon.=26.047421, Alt.=157.564575m. Speed=0.036000m/h.</desc>
<speed>0.010000</speed>
</trkpt>
<trkpt lat="55.837055" lon="26.047421">
<ele>157.548950</ele>
<time>2010-07-17T15:24:09Z</time>
<desc>lat.=55.837055, lon.=26.047421, Alt.=157.548950m. Speed=0.144000m/h.</desc>
<speed>0.040000</speed>
</trkpt>
<trkpt lat="55.837055" lon="26.047421">
<ele>157.548950</ele>
<time>2010-07-17T15:24:10Z</time>
<desc>lat.=55.837055, lon.=26.047421, Alt.=157.548950m. Speed=0.036000m/h.</desc>
<speed>0.010000</speed>
</trkpt>
<trkpt lat="55.837055" lon="26.047421">
<ele>157.541138</ele>
<time>2010-07-17T15:24:11Z</time>
<desc>lat.=55.837055, lon.=26.047421, Alt.=157.541138m. Speed=0.000000m/h.</desc>
<speed>0.000000</speed>
</trkpt>
<trkpt lat="55.837055" lon="26.047421">
<ele>157.541138</ele>
<time>2010-07-17T15:24:12Z</time>
<desc>lat.=55.837055, lon.=26.047421, Alt.=157.541138m. Speed=0.000000m/h.</desc>
<speed>0.000000</speed>
</trkpt>
<trkpt lat="55.837055" lon="26.047421">
<ele>157.529419</ele>
<time>2010-07-17T15:24:13Z</time>
<desc>lat.=55.837055, lon.=26.047421, Alt.=157.529419m. Speed=0.036000m/h.</desc>
<speed>0.010000</speed>
</trkpt>
<trkpt lat="55.837055" lon="26.047421">
<ele>157.521606</ele>
<time>2010-07-17T15:24:14Z</time>
<desc>lat.=55.837055, lon.=26.047421, Alt.=157.521606m. Speed=0.036000m/h.</desc>
<speed>0.010000</speed>
</trkpt>
<trkpt lat="55.837055" lon="26.047421">
<ele>157.513794</ele>
<time>2010-07-17T15:24:15Z</time>
<desc>lat.=55.837055, lon.=26.047421, Alt.=157.513794m. Speed=0.108000m/h.</desc>
<speed>0.030000</speed>
</trkpt>
<trkpt lat="55.837055" lon="26.047421">
<ele>157.513794</ele>
<time>2010-07-17T15:24:16Z</time>
<desc>lat.=55.837055, lon.=26.047421, Alt.=157.513794m. Speed=0.000000m/h.</desc>
<speed>0.000000</speed>
</trkpt>
<trkpt lat="55.837055" lon="26.047421">
<ele>157.505981</ele>
<time>2010-07-17T15:24:17Z</time>
<desc>lat.=55.837055, lon.=26.047421, Alt.=157.505981m. Speed=0.072000m/h.</desc>
<speed>0.020000</speed>
</trkpt>
<trkpt lat="55.837055" lon="26.047421">
<ele>157.505981</ele>
<time>2010-07-17T15:24:18Z</time>
<desc>lat.=55.837055, lon.=26.047421, Alt.=157.505981m. Speed=0.000000m/h.</desc>
<speed>0.000000</speed>
</trkpt>
<trkpt lat="55.837055" lon="26.047421">
<ele>157.505981</ele>
<time>2010-07-17T15:24:19Z</time>
<desc>lat.=55.837055, lon.=26.047421, Alt.=157.505981m. Speed=0.144000m/h.</desc>
<speed>0.040000</speed>
</trkpt>
<trkpt lat="55.837055" lon="26.047421">
<ele>157.505981</ele>
<time>2010-07-17T15:24:20Z</time>
<desc>lat.=55.837055, lon.=26.047421, Alt.=157.505981m. Speed=0.108000m/h.</desc>
<speed>0.030000</speed>
</trkpt>
<trkpt lat="55.837055" lon="26.047419">
<ele>157.509888</ele>
<time>2010-07-17T15:24:21Z</time>
<desc>lat.=55.837055, lon.=26.047419, Alt.=157.509888m. Speed=0.072000m/h.</desc>
<speed>0.020000</speed>
</trkpt>
<trkpt lat="55.837055" lon="26.047419">
<ele>157.509888</ele>
<time>2010-07-17T15:24:22Z</time>
<desc>lat.=55.837055, lon.=26.047419, Alt.=157.509888m. Speed=0.036000m/h.</desc>
<speed>0.010000</speed>
</trkpt>
<trkpt lat="55.837055" lon="26.047419">
<ele>157.509888</ele>
<time>2010-07-17T15:24:23Z</time>
<desc>lat.=55.837055, lon.=26.047419, Alt.=157.509888m. Speed=0.000000m/h.</desc>
<speed>0.000000</speed>
</trkpt>
<trkpt lat="55.837055" lon="26.047419">
<ele>157.509888</ele>
<time>2010-07-17T15:24:24Z</time>
<desc>lat.=55.837055, lon.=26.047419, Alt.=157.509888m. Speed=0.000000m/h.</desc>
<speed>0.000000</speed>
</trkpt>
<trkpt lat="55.837055" lon="26.047419">
<ele>157.505981</ele>
<time>2010-07-17T15:24:25Z</time>
<desc>lat.=55.837055, lon.=26.047419, Alt.=157.505981m. Speed=0.072000m/h.</desc>
<speed>0.020000</speed>
</trkpt>
<trkpt lat="55.837051" lon="26.047419">
<ele>157.502075</ele>
<time>2010-07-17T15:24:26Z</time>
<desc>lat.=55.837051, lon.=26.047419, Alt.=157.502075m. Speed=0.144000m/h.</desc>
<speed>0.040000</speed>
</trkpt>
<trkpt lat="55.837051" lon="26.047419">
<ele>157.505981</ele>
<time>2010-07-17T15:24:27Z</time>
<desc>lat.=55.837051, lon.=26.047419, Alt.=157.505981m. Speed=0.144000m/h.</desc>
<speed>0.040000</speed>
</trkpt>
<trkpt lat="55.837051" lon="26.047419">
<ele>157.505981</ele>
<time>2010-07-17T15:24:28Z</time>
<desc>lat.=55.837051, lon.=26.047419, Alt.=157.505981m. Speed=0.108000m/h.</desc>
<speed>0.030000</speed>
</trkpt>
<trkpt lat="55.837051" lon="26.047419">
<ele>157.509888</ele>
<time>2010-07-17T15:24:29Z</time>
<desc>lat.=55.837051, lon.=26.047419, Alt.=157.509888m. Speed=0.108000m/h.</desc>
<speed>0.030000</speed>
</trkpt>
<trkpt lat="55.837051" lon="26.047419">
<ele>157.513794</ele>
<time>2010-07-17T15:24:30Z</time>
<desc>lat.=55.837051, lon.=26.047419, Alt.=157.513794m. Speed=0.108000m/h.</desc>
<speed>0.030000</speed>
</trkpt>
<trkpt lat="55.837051" lon="26.047419">
<ele>157.513794</ele>
<time>2010-07-17T15:24:31Z</time>
<desc>lat.=55.837051, lon.=26.047419, Alt.=157.513794m. Speed=0.072000m/h.</desc>
<speed>0.020000</speed>
</trkpt>
<trkpt lat="55.837051" lon="26.047419">
<ele>157.505981</ele>
<time>2010-07-17T15:24:32Z</time>
<desc>lat.=55.837051, lon.=26.047419, Alt.=157.505981m. Speed=0.036000m/h.</desc>
<speed>0.010000</speed>
</trkpt>
<trkpt lat="55.837051" lon="26.047419">
<ele>157.502075</ele>
<time>2010-07-17T15:24:33Z</time>
<desc>lat.=55.837051, lon.=26.047419, Alt.=157.502075m. Speed=0.072000m/h.</desc>
<speed>0.020000</speed>
</trkpt>
<trkpt lat="55.837051" lon="26.047419">
<ele>157.494263</ele>
<time>2010-07-17T15:24:34Z</time>
<desc>lat.=55.837051, lon.=26.047419, Alt.=157.494263m. Speed=0.072000m/h.</desc>
<speed>0.020000</speed>
</trkpt>
<trkpt lat="55.837051" lon="26.047417">
<ele>157.486450</ele>
<time>2010-07-17T15:24:35Z</time>
<desc>lat.=55.837051, lon.=26.047417, Alt.=157.486450m. Speed=0.036000m/h.</desc>
<speed>0.010000</speed>
</trkpt>
<trkpt lat="55.837051" lon="26.047417">
<ele>157.482544</ele>
<time>2010-07-17T15:24:36Z</time>
<desc>lat.=55.837051, lon.=26.047417, Alt.=157.482544m. Speed=0.072000m/h.</desc>
<speed>0.020000</speed>
</trkpt>
<trkpt lat="55.837051" lon="26.047417">
<ele>157.466919</ele>
<time>2010-07-17T15:24:37Z</time>
<desc>lat.=55.837051, lon.=26.047417, Alt.=157.466919m. Speed=0.072000m/h.</desc>
<speed>0.020000</speed>
</trkpt>
<trkpt lat="55.837051" lon="26.047417">
<ele>157.451294</ele>
<time>2010-07-17T15:24:38Z</time>
<desc>lat.=55.837051, lon.=26.047417, Alt.=157.451294m. Speed=0.216000m/h.</desc>
<speed>0.060000</speed>
</trkpt>
<trkpt lat="55.837051" lon="26.047417">
<ele>157.435669</ele>
<time>2010-07-17T15:24:39Z</time>
<desc>lat.=55.837051, lon.=26.047417, Alt.=157.435669m. Speed=0.180000m/h.</desc>
<speed>0.050000</speed>
</trkpt>
<trkpt lat="55.837051" lon="26.047417">
<ele>157.423950</ele>
<time>2010-07-17T15:24:40Z</time>
<desc>lat.=55.837051, lon.=26.047417, Alt.=157.423950m. Speed=0.000000m/h.</desc>
<speed>0.000000</speed>
</trkpt>
<trkpt lat="55.837051" lon="26.047417">
<ele>157.416138</ele>
<time>2010-07-17T15:24:41Z</time>
<desc>lat.=55.837051, lon.=26.047417, Alt.=157.416138m. Speed=0.252000m/h.</desc>
<speed>0.070000</speed>
</trkpt>
<trkpt lat="55.837051" lon="26.047417">
<ele>157.408325</ele>
<time>2010-07-17T15:24:42Z</time>
<desc>lat.=55.837051, lon.=26.047417, Alt.=157.408325m. Speed=0.036000m/h.</desc>
<speed>0.010000</speed>
</trkpt>
<trkpt lat="55.837051" lon="26.047417">
<ele>157.404419</ele>
<time>2010-07-17T15:24:43Z</time>
<desc>lat.=55.837051, lon.=26.047417, Alt.=157.404419m. Speed=0.036000m/h.</desc>
<speed>0.010000</speed>
</trkpt>
<trkpt lat="55.837051" lon="26.047417">
<ele>157.408325</ele>
<time>2010-07-17T15:24:44Z</time>
<desc>lat.=55.837051, lon.=26.047417, Alt.=157.408325m. Speed=0.108000m/h.</desc>
<speed>0.030000</speed>
</trkpt>
<trkpt lat="55.837051" lon="26.047417">
<ele>157.400513</ele>
<time>2010-07-17T15:24:45Z</time>
<desc>lat.=55.837051, lon.=26.047417, Alt.=157.400513m. Speed=0.144000m/h.</desc>
<speed>0.040000</speed>
</trkpt>
<trkpt lat="55.837051" lon="26.047417">
<ele>157.377075</ele>
<time>2010-07-17T15:24:46Z</time>
<desc>lat.=55.837051, lon.=26.047417, Alt.=157.377075m. Speed=0.072000m/h.</desc>
<speed>0.020000</speed>
</trkpt>
<trkpt lat="55.837051" lon="26.047417">
<ele>157.373169</ele>
<time>2010-07-17T15:24:47Z</time>
<desc>lat.=55.837051, lon.=26.047417, Alt.=157.373169m. Speed=0.072000m/h.</desc>
<speed>0.020000</speed>
</trkpt>
<trkpt lat="55.837051" lon="26.047417">
<ele>157.365356</ele>
<time>2010-07-17T15:24:48Z</time>
<desc>lat.=55.837051, lon.=26.047417, Alt.=157.365356m. Speed=0.072000m/h.</desc>
<speed>0.020000</speed>
</trkpt>
<trkpt lat="55.837051" lon="26.047417">
<ele>157.353638</ele>
<time>2010-07-17T15:24:49Z</time>
<desc>lat.=55.837051, lon.=26.047417, Alt.=157.353638m. Speed=0.000000m/h.</desc>
<speed>0.000000</speed>
</trkpt>
<trkpt lat="55.837051" lon="26.047417">
<ele>157.345825</ele>
<time>2010-07-17T15:24:50Z</time>
<desc>lat.=55.837051, lon.=26.047417, Alt.=157.345825m. Speed=0.072000m/h.</desc>
<speed>0.020000</speed>
</trkpt>
<trkpt lat="55.837051" lon="26.047417">
<ele>157.349731</ele>
<time>2010-07-17T15:24:51Z</time>
<desc>lat.=55.837051, lon.=26.047417, Alt.=157.349731m. Speed=0.036000m/h.</desc>
<speed>0.010000</speed>
</trkpt>
<trkpt lat="55.837051" lon="26.047417">
<ele>157.345825</ele>
<time>2010-07-17T15:24:52Z</time>
<desc>lat.=55.837051, lon.=26.047417, Alt.=157.345825m. Speed=0.000000m/h.</desc>
<speed>0.000000</speed>
</trkpt>
<trkpt lat="55.837051" lon="26.047417">
<ele>157.345825</ele>
<time>2010-07-17T15:24:53Z</time>
<desc>lat.=55.837051, lon.=26.047417, Alt.=157.345825m. Speed=0.036000m/h.</desc>
<speed>0.010000</speed>
</trkpt>
<trkpt lat="55.837051" lon="26.047417">
<ele>157.349731</ele>
<time>2010-07-17T15:24:54Z</time>
<desc>lat.=55.837051, lon.=26.047417, Alt.=157.349731m. Speed=0.000000m/h.</desc>
<speed>0.000000</speed>
</trkpt>
<trkpt lat="55.837051" lon="26.047417">
<ele>157.349731</ele>
<time>2010-07-17T15:24:55Z</time>
<desc>lat.=55.837051, lon.=26.047417, Alt.=157.349731m. Speed=0.000000m/h.</desc>
<speed>0.000000</speed>
</trkpt>
<trkpt lat="55.837051" lon="26.047417">
<ele>157.353638</ele>
<time>2010-07-17T15:24:56Z</time>
<desc>lat.=55.837051, lon.=26.047417, Alt.=157.353638m. Speed=0.000000m/h.</desc>
<speed>0.000000</speed>
</trkpt>
<trkpt lat="55.837051" lon="26.047417">
<ele>157.353638</ele>
<time>2010-07-17T15:24:57Z</time>
<desc>lat.=55.837051, lon.=26.047417, Alt.=157.353638m. Speed=0.000000m/h.</desc>
<speed>0.000000</speed>
</trkpt>
<trkpt lat="55.837051" lon="26.047417">
<ele>157.349731</ele>
<time>2010-07-17T15:24:58Z</time>
<desc>lat.=55.837051, lon.=26.047417, Alt.=157.349731m. Speed=0.036000m/h.</desc>
<speed>0.010000</speed>
</trkpt>
<trkpt lat="55.837051" lon="26.047417">
<ele>157.345825</ele>
<time>2010-07-17T15:24:59Z</time>
<desc>lat.=55.837051, lon.=26.047417, Alt.=157.345825m. Speed=0.072000m/h.</desc>
<speed>0.020000</speed>
</trkpt>
<trkpt lat="55.837051" lon="26.047417">
<ele>157.345825</ele>
<time>2010-07-17T15:25:00Z</time>
<desc>lat.=55.837051, lon.=26.047417, Alt.=157.345825m. Speed=0.108000m/h.</desc>
<speed>0.030000</speed>
</trkpt>
<trkpt lat="55.837051" lon="26.047417">
<ele>157.345825</ele>
<time>2010-07-17T15:25:01Z</time>
<desc>lat.=55.837051, lon.=26.047417, Alt.=157.345825m. Speed=0.108000m/h.</desc>
<speed>0.030000</speed>
</trkpt>
<trkpt lat="55.837051" lon="26.047415">
<ele>157.341919</ele>
<time>2010-07-17T15:25:02Z</time>
<desc>lat.=55.837051, lon.=26.047415, Alt.=157.341919m. Speed=0.108000m/h.</desc>
<speed>0.030000</speed>
</trkpt>
<trkpt lat="55.837051" lon="26.047415">
<ele>157.341919</ele>
<time>2010-07-17T15:25:03Z</time>
<desc>lat.=55.837051, lon.=26.047415, Alt.=157.341919m. Speed=0.072000m/h.</desc>
<speed>0.020000</speed>
</trkpt>
<trkpt lat="55.837051" lon="26.047415">
<ele>157.334106</ele>
<time>2010-07-17T15:25:04Z</time>
<desc>lat.=55.837051, lon.=26.047415, Alt.=157.334106m. Speed=0.000000m/h.</desc>
<speed>0.000000</speed>
</trkpt>
<trkpt lat="55.837051" lon="26.047415">
<ele>157.330200</ele>
<time>2010-07-17T15:25:05Z</time>
<desc>lat.=55.837051, lon.=26.047415, Alt.=157.330200m. Speed=0.036000m/h.</desc>
<speed>0.010000</speed>
</trkpt>
<trkpt lat="55.837051" lon="26.047415">
<ele>157.326294</ele>
<time>2010-07-17T15:25:06Z</time>
<desc>lat.=55.837051, lon.=26.047415, Alt.=157.326294m. Speed=0.036000m/h.</desc>
<speed>0.010000</speed>
</trkpt>
<trkpt lat="55.837051" lon="26.047415">
<ele>157.330200</ele>
<time>2010-07-17T15:25:07Z</time>
<desc>lat.=55.837051, lon.=26.047415, Alt.=157.330200m. Speed=0.036000m/h.</desc>
<speed>0.010000</speed>
</trkpt>
<trkpt lat="55.837051" lon="26.047415">
<ele>157.338013</ele>
<time>2010-07-17T15:25:08Z</time>
<desc>lat.=55.837051, lon.=26.047415, Alt.=157.338013m. Speed=0.072000m/h.</desc>
<speed>0.020000</speed>
</trkpt>
<trkpt lat="55.837051" lon="26.047415">
<ele>157.341919</ele>
<time>2010-07-17T15:25:09Z</time>
<desc>lat.=55.837051, lon.=26.047415, Alt.=157.341919m. Speed=0.180000m/h.</desc>
<speed>0.050000</speed>
</trkpt>
<trkpt lat="55.837051" lon="26.047415">
<ele>157.341919</ele>
<time>2010-07-17T15:25:10Z</time>
<desc>lat.=55.837051, lon.=26.047415, Alt.=157.341919m. Speed=0.144000m/h.</desc>
<speed>0.040000</speed>
</trkpt>
<trkpt lat="55.837051" lon="26.047415">
<ele>157.341919</ele>
<time>2010-07-17T15:25:11Z</time>
<desc>lat.=55.837051, lon.=26.047415, Alt.=157.341919m. Speed=0.072000m/h.</desc>
<speed>0.020000</speed>
</trkpt>
<trkpt lat="55.837051" lon="26.047415">
<ele>157.334106</ele>
<time>2010-07-17T15:25:12Z</time>
<desc>lat.=55.837051, lon.=26.047415, Alt.=157.334106m. Speed=0.072000m/h.</desc>
<speed>0.020000</speed>
</trkpt>
<trkpt lat="55.837051" lon="26.047415">
<ele>157.338013</ele>
<time>2010-07-17T15:25:13Z</time>
<desc>lat.=55.837051, lon.=26.047415, Alt.=157.338013m. Speed=0.036000m/h.</desc>
<speed>0.010000</speed>
</trkpt>
<trkpt lat="55.837051" lon="26.047415">
<ele>157.345825</ele>
<time>2010-07-17T15:25:14Z</time>
<desc>lat.=55.837051, lon.=26.047415, Alt.=157.345825m. Speed=0.000000m/h.</desc>
<speed>0.000000</speed>
</trkpt>
<trkpt lat="55.837051" lon="26.047415">
<ele>157.349731</ele>
<time>2010-07-17T15:25:15Z</time>
<desc>lat.=55.837051, lon.=26.047415, Alt.=157.349731m. Speed=0.036000m/h.</desc>
<speed>0.010000</speed>
</trkpt>
<trkpt lat="55.837051" lon="26.047415">
<ele>157.353638</ele>
<time>2010-07-17T15:25:16Z</time>
<desc>lat.=55.837051, lon.=26.047415, Alt.=157.353638m. Speed=0.036000m/h.</desc>
<speed>0.010000</speed>
</trkpt>
<trkpt lat="55.837051" lon="26.047415">
<ele>157.353638</ele>
<time>2010-07-17T15:25:17Z</time>
<desc>lat.=55.837051, lon.=26.047415, Alt.=157.353638m. Speed=0.036000m/h.</desc>
<speed>0.010000</speed>
</trkpt>
<trkpt lat="55.837051" lon="26.047415">
<ele>157.361450</ele>
<time>2010-07-17T15:25:18Z</time>
<desc>lat.=55.837051, lon.=26.047415, Alt.=157.361450m. Speed=0.072000m/h.</desc>
<speed>0.020000</speed>
</trkpt>
<trkpt lat="55.837051" lon="26.047415">
<ele>157.369263</ele>
<time>2010-07-17T15:25:19Z</time>
<desc>lat.=55.837051, lon.=26.047415, Alt.=157.369263m. Speed=0.036000m/h.</desc>
<speed>0.010000</speed>
</trkpt>
<trkpt lat="55.837051" lon="26.047415">
<ele>157.369263</ele>
<time>2010-07-17T15:25:20Z</time>
<desc>lat.=55.837051, lon.=26.047415, Alt.=157.369263m. Speed=0.072000m/h.</desc>
<speed>0.020000</speed>
</trkpt>
<trkpt lat="55.837051" lon="26.047415">
<ele>157.373169</ele>
<time>2010-07-17T15:25:21Z</time>
<desc>lat.=55.837051, lon.=26.047415, Alt.=157.373169m. Speed=0.036000m/h.</desc>
<speed>0.010000</speed>
</trkpt>
<trkpt lat="55.837051" lon="26.047413">
<ele>157.380981</ele>
<time>2010-07-17T15:25:22Z</time>
<desc>lat.=55.837051, lon.=26.047413, Alt.=157.380981m. Speed=0.000000m/h.</desc>
<speed>0.000000</speed>
</trkpt>
<trkpt lat="55.837051" lon="26.047413">
<ele>157.377075</ele>
<time>2010-07-17T15:25:23Z</time>
<desc>lat.=55.837051, lon.=26.047413, Alt.=157.377075m. Speed=0.036000m/h.</desc>
<speed>0.010000</speed>
</trkpt>
<trkpt lat="55.837051" lon="26.047413">
<ele>157.369263</ele>
<time>2010-07-17T15:25:24Z</time>
<desc>lat.=55.837051, lon.=26.047413, Alt.=157.369263m. Speed=0.000000m/h.</desc>
<speed>0.000000</speed>
</trkpt>
<trkpt lat="55.837051" lon="26.047413">
<ele>157.361450</ele>
<time>2010-07-17T15:25:25Z</time>
<desc>lat.=55.837051, lon.=26.047413, Alt.=157.361450m. Speed=0.144000m/h.</desc>
<speed>0.040000</speed>
</trkpt>
<trkpt lat="55.837051" lon="26.047413">
<ele>157.365356</ele>
<time>2010-07-17T15:25:26Z</time>
<desc>lat.=55.837051, lon.=26.047413, Alt.=157.365356m. Speed=0.108000m/h.</desc>
<speed>0.030000</speed>
</trkpt>
<trkpt lat="55.837051" lon="26.047413">
<ele>157.361450</ele>
<time>2010-07-17T15:25:27Z</time>
<desc>lat.=55.837051, lon.=26.047413, Alt.=157.361450m. Speed=0.036000m/h.</desc>
<speed>0.010000</speed>
</trkpt>
<trkpt lat="55.837051" lon="26.047413">
<ele>157.365356</ele>
<time>2010-07-17T15:25:28Z</time>
<desc>lat.=55.837051, lon.=26.047413, Alt.=157.365356m. Speed=0.000000m/h.</desc>
<speed>0.000000</speed>
</trkpt>
<trkpt lat="55.837051" lon="26.047413">
<ele>157.365356</ele>
<time>2010-07-17T15:25:29Z</time>
<desc>lat.=55.837051, lon.=26.047413, Alt.=157.365356m. Speed=0.072000m/h.</desc>
<speed>0.020000</speed>
</trkpt>
<trkpt lat="55.837051" lon="26.047413">
<ele>157.373169</ele>
<time>2010-07-17T15:25:30Z</time>
<desc>lat.=55.837051, lon.=26.047413, Alt.=157.373169m. Speed=0.072000m/h.</desc>
<speed>0.020000</speed>
</trkpt>
<trkpt lat="55.837051" lon="26.047413">
<ele>157.369263</ele>
<time>2010-07-17T15:25:31Z</time>
<desc>lat.=55.837051, lon.=26.047413, Alt.=157.369263m. Speed=0.036000m/h.</desc>
<speed>0.010000</speed>
</trkpt>
<trkpt lat="55.837051" lon="26.047413">
<ele>157.369263</ele>
<time>2010-07-17T15:25:32Z</time>
<desc>lat.=55.837051, lon.=26.047413, Alt.=157.369263m. Speed=0.072000m/h.</desc>
<speed>0.020000</speed>
</trkpt>
<trkpt lat="55.837051" lon="26.047411">
<ele>157.373169</ele>
<time>2010-07-17T15:25:33Z</time>
<desc>lat.=55.837051, lon.=26.047411, Alt.=157.373169m. Speed=0.108000m/h.</desc>
<speed>0.030000</speed>
</trkpt>
<trkpt lat="55.837051" lon="26.047411">
<ele>157.377075</ele>
<time>2010-07-17T15:25:34Z</time>
<desc>lat.=55.837051, lon.=26.047411, Alt.=157.377075m. Speed=0.144000m/h.</desc>
<speed>0.040000</speed>
</trkpt>
<trkpt lat="55.837051" lon="26.047411">
<ele>157.380981</ele>
<time>2010-07-17T15:25:35Z</time>
<desc>lat.=55.837051, lon.=26.047411, Alt.=157.380981m. Speed=0.036000m/h.</desc>
<speed>0.010000</speed>
</trkpt>
<trkpt lat="55.837051" lon="26.047411">
<ele>157.377075</ele>
<time>2010-07-17T15:25:36Z</time>
<desc>lat.=55.837051, lon.=26.047411, Alt.=157.377075m. Speed=0.072000m/h.</desc>
<speed>0.020000</speed>
</trkpt>
<trkpt lat="55.837048" lon="26.047411">
<ele>157.369263</ele>
<time>2010-07-17T15:25:37Z</time>
<desc>lat.=55.837048, lon.=26.047411, Alt.=157.369263m. Speed=0.072000m/h.</desc>
<speed>0.020000</speed>
</trkpt>
<trkpt lat="55.837048" lon="26.047411">
<ele>157.369263</ele>
<time>2010-07-17T15:25:38Z</time>
<desc>lat.=55.837048, lon.=26.047411, Alt.=157.369263m. Speed=0.036000m/h.</desc>
<speed>0.010000</speed>
</trkpt>
<trkpt lat="55.837048" lon="26.047411">
<ele>157.369263</ele>
<time>2010-07-17T15:25:39Z</time>
<desc>lat.=55.837048, lon.=26.047411, Alt.=157.369263m. Speed=0.108000m/h.</desc>
<speed>0.030000</speed>
</trkpt>
<trkpt lat="55.837048" lon="26.047411">
<ele>157.369263</ele>
<time>2010-07-17T15:25:40Z</time>
<desc>lat.=55.837048, lon.=26.047411, Alt.=157.369263m. Speed=0.144000m/h.</desc>
<speed>0.040000</speed>
</trkpt>
<trkpt lat="55.837048" lon="26.047411">
<ele>157.361450</ele>
<time>2010-07-17T15:25:41Z</time>
<desc>lat.=55.837048, lon.=26.047411, Alt.=157.361450m. Speed=0.072000m/h.</desc>
<speed>0.020000</speed>
</trkpt>
<trkpt lat="55.837048" lon="26.047411">
<ele>157.349731</ele>
<time>2010-07-17T15:25:42Z</time>
<desc>lat.=55.837048, lon.=26.047411, Alt.=157.349731m. Speed=0.036000m/h.</desc>
<speed>0.010000</speed>
</trkpt>
<trkpt lat="55.837048" lon="26.047411">
<ele>157.345825</ele>
<time>2010-07-17T15:25:43Z</time>
<desc>lat.=55.837048, lon.=26.047411, Alt.=157.345825m. Speed=0.072000m/h.</desc>
<speed>0.020000</speed>
</trkpt>
<trkpt lat="55.837048" lon="26.047411">
<ele>157.349731</ele>
<time>2010-07-17T15:25:44Z</time>
<desc>lat.=55.837048, lon.=26.047411, Alt.=157.349731m. Speed=0.144000m/h.</desc>
<speed>0.040000</speed>
</trkpt>
<trkpt lat="55.837048" lon="26.047409">
<ele>157.369263</ele>
<time>2010-07-17T15:25:45Z</time>
<desc>lat.=55.837048, lon.=26.047409, Alt.=157.369263m. Speed=0.396000m/h.</desc>
<speed>0.110000</speed>
</trkpt>
<trkpt lat="55.837048" lon="26.047409">
<ele>157.392700</ele>
<time>2010-07-17T15:25:46Z</time>
<desc>lat.=55.837048, lon.=26.047409, Alt.=157.392700m. Speed=0.396000m/h.</desc>
<speed>0.110000</speed>
</trkpt>
<trkpt lat="55.837048" lon="26.047409">
<ele>157.396606</ele>
<time>2010-07-17T15:25:47Z</time>
<desc>lat.=55.837048, lon.=26.047409, Alt.=157.396606m. Speed=0.216000m/h.</desc>
<speed>0.060000</speed>
</trkpt>
<trkpt lat="55.837048" lon="26.047409">
<ele>157.408325</ele>
<time>2010-07-17T15:25:48Z</time>
<desc>lat.=55.837048, lon.=26.047409, Alt.=157.408325m. Speed=0.180000m/h.</desc>
<speed>0.050000</speed>
</trkpt>
<trkpt lat="55.837048" lon="26.047407">
<ele>157.412231</ele>
<time>2010-07-17T15:25:49Z</time>
<desc>lat.=55.837048, lon.=26.047407, Alt.=157.412231m. Speed=0.180000m/h.</desc>
<speed>0.050000</speed>
</trkpt>
<trkpt lat="55.837048" lon="26.047407">
<ele>157.416138</ele>
<time>2010-07-17T15:25:50Z</time>
<desc>lat.=55.837048, lon.=26.047407, Alt.=157.416138m. Speed=0.108000m/h.</desc>
<speed>0.030000</speed>
</trkpt>
<trkpt lat="55.837048" lon="26.047407">
<ele>157.416138</ele>
<time>2010-07-17T15:25:51Z</time>
<desc>lat.=55.837048, lon.=26.047407, Alt.=157.416138m. Speed=0.072000m/h.</desc>
<speed>0.020000</speed>
</trkpt>
<trkpt lat="55.837048" lon="26.047407">
<ele>157.408325</ele>
<time>2010-07-17T15:25:52Z</time>
<desc>lat.=55.837048, lon.=26.047407, Alt.=157.408325m. Speed=0.144000m/h.</desc>
<speed>0.040000</speed>
</trkpt>
<trkpt lat="55.837044" lon="26.047407">
<ele>157.404419</ele>
<time>2010-07-17T15:25:53Z</time>
<desc>lat.=55.837044, lon.=26.047407, Alt.=157.404419m. Speed=0.072000m/h.</desc>
<speed>0.020000</speed>
</trkpt>
<trkpt lat="55.837044" lon="26.047407">
<ele>157.400513</ele>
<time>2010-07-17T15:25:54Z</time>
<desc>lat.=55.837044, lon.=26.047407, Alt.=157.400513m. Speed=0.036000m/h.</desc>
<speed>0.010000</speed>
</trkpt>
<trkpt lat="55.837044" lon="26.047407">
<ele>157.392700</ele>
<time>2010-07-17T15:25:55Z</time>
<desc>lat.=55.837044, lon.=26.047407, Alt.=157.392700m. Speed=0.072000m/h.</desc>
<speed>0.020000</speed>
</trkpt>
<trkpt lat="55.837044" lon="26.047407">
<ele>157.380981</ele>
<time>2010-07-17T15:25:56Z</time>
<desc>lat.=55.837044, lon.=26.047407, Alt.=157.380981m. Speed=0.036000m/h.</desc>
<speed>0.010000</speed>
</trkpt>
<trkpt lat="55.837044" lon="26.047407">
<ele>157.369263</ele>
<time>2010-07-17T15:25:57Z</time>
<desc>lat.=55.837044, lon.=26.047407, Alt.=157.369263m. Speed=0.000000m/h.</desc>
<speed>0.000000</speed>
</trkpt>
<trkpt lat="55.837044" lon="26.047407">
<ele>157.377075</ele>
<time>2010-07-17T15:25:58Z</time>
<desc>lat.=55.837044, lon.=26.047407, Alt.=157.377075m. Speed=0.144000m/h.</desc>
<speed>0.040000</speed>
</trkpt>
<trkpt lat="55.837044" lon="26.047407">
<ele>157.373169</ele>
<time>2010-07-17T15:25:59Z</time>
<desc>lat.=55.837044, lon.=26.047407, Alt.=157.373169m. Speed=0.144000m/h.</desc>
<speed>0.040000</speed>
</trkpt>
<trkpt lat="55.837044" lon="26.047407">
<ele>157.373169</ele>
<time>2010-07-17T15:26:00Z</time>
<desc>lat.=55.837044, lon.=26.047407, Alt.=157.373169m. Speed=0.108000m/h.</desc>
<speed>0.030000</speed>
</trkpt>
<trkpt lat="55.837044" lon="26.047407">
<ele>157.373169</ele>
<time>2010-07-17T15:26:01Z</time>
<desc>lat.=55.837044, lon.=26.047407, Alt.=157.373169m. Speed=0.036000m/h.</desc>
<speed>0.010000</speed>
</trkpt>
<trkpt lat="55.837044" lon="26.047407">
<ele>157.377075</ele>
<time>2010-07-17T15:26:02Z</time>
<desc>lat.=55.837044, lon.=26.047407, Alt.=157.377075m. Speed=0.072000m/h.</desc>
<speed>0.020000</speed>
</trkpt>
<trkpt lat="55.837044" lon="26.047407">
<ele>157.377075</ele>
<time>2010-07-17T15:26:03Z</time>
<desc>lat.=55.837044, lon.=26.047407, Alt.=157.377075m. Speed=0.144000m/h.</desc>
<speed>0.040000</speed>
</trkpt>
<trkpt lat="55.837044" lon="26.047407">
<ele>157.380981</ele>
<time>2010-07-17T15:26:04Z</time>
<desc>lat.=55.837044, lon.=26.047407, Alt.=157.380981m. Speed=0.108000m/h.</desc>
<speed>0.030000</speed>
</trkpt>
<trkpt lat="55.837044" lon="26.047405">
<ele>157.384888</ele>
<time>2010-07-17T15:26:05Z</time>
<desc>lat.=55.837044, lon.=26.047405, Alt.=157.384888m. Speed=0.180000m/h.</desc>
<speed>0.050000</speed>
</trkpt>
<trkpt lat="55.837044" lon="26.047405">
<ele>157.388794</ele>
<time>2010-07-17T15:26:06Z</time>
<desc>lat.=55.837044, lon.=26.047405, Alt.=157.388794m. Speed=0.108000m/h.</desc>
<speed>0.030000</speed>
</trkpt>
<trkpt lat="55.837044" lon="26.047405">
<ele>157.396606</ele>
<time>2010-07-17T15:26:07Z</time>
<desc>lat.=55.837044, lon.=26.047405, Alt.=157.396606m. Speed=0.180000m/h.</desc>
<speed>0.050000</speed>
</trkpt>
<trkpt lat="55.837044" lon="26.047405">
<ele>157.400513</ele>
<time>2010-07-17T15:26:08Z</time>
<desc>lat.=55.837044, lon.=26.047405, Alt.=157.400513m. Speed=0.144000m/h.</desc>
<speed>0.040000</speed>
</trkpt>
<trkpt lat="55.837044" lon="26.047405">
<ele>157.408325</ele>
<time>2010-07-17T15:26:09Z</time>
<desc>lat.=55.837044, lon.=26.047405, Alt.=157.408325m. Speed=0.072000m/h.</desc>
<speed>0.020000</speed>
</trkpt>
<trkpt lat="55.837044" lon="26.047405">
<ele>157.408325</ele>
<time>2010-07-17T15:26:10Z</time>
<desc>lat.=55.837044, lon.=26.047405, Alt.=157.408325m. Speed=0.072000m/h.</desc>
<speed>0.020000</speed>
</trkpt>
<trkpt lat="55.837044" lon="26.047405">
<ele>157.416138</ele>
<time>2010-07-17T15:26:11Z</time>
<desc>lat.=55.837044, lon.=26.047405, Alt.=157.416138m. Speed=0.180000m/h.</desc>
<speed>0.050000</speed>
</trkpt>
<trkpt lat="55.837044" lon="26.047403">
<ele>157.431763</ele>
<time>2010-07-17T15:26:12Z</time>
<desc>lat.=55.837044, lon.=26.047403, Alt.=157.431763m. Speed=0.216000m/h.</desc>
<speed>0.060000</speed>
</trkpt>
<trkpt lat="55.837044" lon="26.047403">
<ele>157.443481</ele>
<time>2010-07-17T15:26:13Z</time>
<desc>lat.=55.837044, lon.=26.047403, Alt.=157.443481m. Speed=0.180000m/h.</desc>
<speed>0.050000</speed>
</trkpt>
<trkpt lat="55.837044" lon="26.047403">
<ele>157.447388</ele>
<time>2010-07-17T15:26:14Z</time>
<desc>lat.=55.837044, lon.=26.047403, Alt.=157.447388m. Speed=0.216000m/h.</desc>
<speed>0.060000</speed>
</trkpt>
<trkpt lat="55.837044" lon="26.047403">
<ele>157.463013</ele>
<time>2010-07-17T15:26:15Z</time>
<desc>lat.=55.837044, lon.=26.047403, Alt.=157.463013m. Speed=0.180000m/h.</desc>
<speed>0.050000</speed>
</trkpt>
<trkpt lat="55.837040" lon="26.047401">
<ele>157.482544</ele>
<time>2010-07-17T15:26:16Z</time>
<desc>lat.=55.837040, lon.=26.047401, Alt.=157.482544m. Speed=0.180000m/h.</desc>
<speed>0.050000</speed>
</trkpt>
<trkpt lat="55.837040" lon="26.047401">
<ele>157.494263</ele>
<time>2010-07-17T15:26:17Z</time>
<desc>lat.=55.837040, lon.=26.047401, Alt.=157.494263m. Speed=0.144000m/h.</desc>
<speed>0.040000</speed>
</trkpt>
<trkpt lat="55.837040" lon="26.047401">
<ele>157.505981</ele>
<time>2010-07-17T15:26:18Z</time>
<desc>lat.=55.837040, lon.=26.047401, Alt.=157.505981m. Speed=0.180000m/h.</desc>
<speed>0.050000</speed>
</trkpt>
<trkpt lat="55.837040" lon="26.047401">
<ele>157.509888</ele>
<time>2010-07-17T15:26:19Z</time>
<desc>lat.=55.837040, lon.=26.047401, Alt.=157.509888m. Speed=0.144000m/h.</desc>
<speed>0.040000</speed>
</trkpt>
<trkpt lat="55.837040" lon="26.047401">
<ele>157.513794</ele>
<time>2010-07-17T15:26:20Z</time>
<desc>lat.=55.837040, lon.=26.047401, Alt.=157.513794m. Speed=0.036000m/h.</desc>
<speed>0.010000</speed>
</trkpt>
<trkpt lat="55.837040" lon="26.047401">
<ele>157.529419</ele>
<time>2010-07-17T15:26:21Z</time>
<desc>lat.=55.837040, lon.=26.047401, Alt.=157.529419m. Speed=0.036000m/h.</desc>
<speed>0.010000</speed>
</trkpt>
<trkpt lat="55.837040" lon="26.047400">
<ele>157.545044</ele>
<time>2010-07-17T15:26:22Z</time>
<desc>lat.=55.837040, lon.=26.047400, Alt.=157.545044m. Speed=0.144000m/h.</desc>
<speed>0.040000</speed>
</trkpt>
<trkpt lat="55.837040" lon="26.047400">
<ele>157.560669</ele>
<time>2010-07-17T15:26:23Z</time>
<desc>lat.=55.837040, lon.=26.047400, Alt.=157.560669m. Speed=0.144000m/h.</desc>
<speed>0.040000</speed>
</trkpt>
<trkpt lat="55.837040" lon="26.047400">
<ele>157.576294</ele>
<time>2010-07-17T15:26:24Z</time>
<desc>lat.=55.837040, lon.=26.047400, Alt.=157.576294m. Speed=0.108000m/h.</desc>
<speed>0.030000</speed>
</trkpt>
<trkpt lat="55.837040" lon="26.047400">
<ele>157.588013</ele>
<time>2010-07-17T15:26:25Z</time>
<desc>lat.=55.837040, lon.=26.047400, Alt.=157.588013m. Speed=0.036000m/h.</desc>
<speed>0.010000</speed>
</trkpt>
<trkpt lat="55.837040" lon="26.047400">
<ele>157.599731</ele>
<time>2010-07-17T15:26:26Z</time>
<desc>lat.=55.837040, lon.=26.047400, Alt.=157.599731m. Speed=0.072000m/h.</desc>
<speed>0.020000</speed>
</trkpt>
<trkpt lat="55.837040" lon="26.047400">
<ele>157.591919</ele>
<time>2010-07-17T15:26:27Z</time>
<desc>lat.=55.837040, lon.=26.047400, Alt.=157.591919m. Speed=0.108000m/h.</desc>
<speed>0.030000</speed>
</trkpt>
<trkpt lat="55.837040" lon="26.047400">
<ele>157.591919</ele>
<time>2010-07-17T15:26:28Z</time>
<desc>lat.=55.837040, lon.=26.047400, Alt.=157.591919m. Speed=0.072000m/h.</desc>
<speed>0.020000</speed>
</trkpt>
<trkpt lat="55.837040" lon="26.047400">
<ele>157.584106</ele>
<time>2010-07-17T15:26:29Z</time>
<desc>lat.=55.837040, lon.=26.047400, Alt.=157.584106m. Speed=0.144000m/h.</desc>
<speed>0.040000</speed>
</trkpt>
<trkpt lat="55.837040" lon="26.047400">
<ele>157.564575</ele>
<time>2010-07-17T15:26:30Z</time>
<desc>lat.=55.837040, lon.=26.047400, Alt.=157.564575m. Speed=0.144000m/h.</desc>
<speed>0.040000</speed>
</trkpt>
<trkpt lat="55.837040" lon="26.047400">
<ele>157.552856</ele>
<time>2010-07-17T15:26:31Z</time>
<desc>lat.=55.837040, lon.=26.047400, Alt.=157.552856m. Speed=0.036000m/h.</desc>
<speed>0.010000</speed>
</trkpt>
<trkpt lat="55.837040" lon="26.047400">
<ele>157.548950</ele>
<time>2010-07-17T15:26:32Z</time>
<desc>lat.=55.837040, lon.=26.047400, Alt.=157.548950m. Speed=0.036000m/h.</desc>
<speed>0.010000</speed>
</trkpt>
<trkpt lat="55.837040" lon="26.047400">
<ele>157.537231</ele>
<time>2010-07-17T15:26:33Z</time>
<desc>lat.=55.837040, lon.=26.047400, Alt.=157.537231m. Speed=0.144000m/h.</desc>
<speed>0.040000</speed>
</trkpt>
<trkpt lat="55.837040" lon="26.047398">
<ele>157.541138</ele>
<time>2010-07-17T15:26:34Z</time>
<desc>lat.=55.837040, lon.=26.047398, Alt.=157.541138m. Speed=0.144000m/h.</desc>
<speed>0.040000</speed>
</trkpt>
<trkpt lat="55.837040" lon="26.047398">
<ele>157.533325</ele>
<time>2010-07-17T15:26:35Z</time>
<desc>lat.=55.837040, lon.=26.047398, Alt.=157.533325m. Speed=0.072000m/h.</desc>
<speed>0.020000</speed>
</trkpt>
<trkpt lat="55.837040" lon="26.047398">
<ele>157.529419</ele>
<time>2010-07-17T15:26:36Z</time>
<desc>lat.=55.837040, lon.=26.047398, Alt.=157.529419m. Speed=0.108000m/h.</desc>
<speed>0.030000</speed>
</trkpt>
<trkpt lat="55.837040" lon="26.047398">
<ele>157.505981</ele>
<time>2010-07-17T15:26:37Z</time>
<desc>lat.=55.837040, lon.=26.047398, Alt.=157.505981m. Speed=0.072000m/h.</desc>
<speed>0.020000</speed>
</trkpt>
<trkpt lat="55.837040" lon="26.047398">
<ele>157.498169</ele>
<time>2010-07-17T15:26:38Z</time>
<desc>lat.=55.837040, lon.=26.047398, Alt.=157.498169m. Speed=0.108000m/h.</desc>
<speed>0.030000</speed>
</trkpt>
<trkpt lat="55.837040" lon="26.047398">
<ele>157.494263</ele>
<time>2010-07-17T15:26:39Z</time>
<desc>lat.=55.837040, lon.=26.047398, Alt.=157.494263m. Speed=0.144000m/h.</desc>
<speed>0.040000</speed>
</trkpt>
<trkpt lat="55.837040" lon="26.047398">
<ele>157.498169</ele>
<time>2010-07-17T15:26:40Z</time>
<desc>lat.=55.837040, lon.=26.047398, Alt.=157.498169m. Speed=0.108000m/h.</desc>
<speed>0.030000</speed>
</trkpt>
<trkpt lat="55.837040" lon="26.047398">
<ele>157.498169</ele>
<time>2010-07-17T15:26:41Z</time>
<desc>lat.=55.837040, lon.=26.047398, Alt.=157.498169m. Speed=0.108000m/h.</desc>
<speed>0.030000</speed>
</trkpt>
<trkpt lat="55.837040" lon="26.047396">
<ele>157.498169</ele>
<time>2010-07-17T15:26:42Z</time>
<desc>lat.=55.837040, lon.=26.047396, Alt.=157.498169m. Speed=0.108000m/h.</desc>
<speed>0.030000</speed>
</trkpt>
<trkpt lat="55.837040" lon="26.047396">
<ele>157.502075</ele>
<time>2010-07-17T15:26:43Z</time>
<desc>lat.=55.837040, lon.=26.047396, Alt.=157.502075m. Speed=0.180000m/h.</desc>
<speed>0.050000</speed>
</trkpt>
<trkpt lat="55.837040" lon="26.047396">
<ele>157.486450</ele>
<time>2010-07-17T15:26:44Z</time>
<desc>lat.=55.837040, lon.=26.047396, Alt.=157.486450m. Speed=0.072000m/h.</desc>
<speed>0.020000</speed>
</trkpt>
<trkpt lat="55.837040" lon="26.047396">
<ele>157.474731</ele>
<time>2010-07-17T15:26:45Z</time>
<desc>lat.=55.837040, lon.=26.047396, Alt.=157.474731m. Speed=0.036000m/h.</desc>
<speed>0.010000</speed>
</trkpt>
<trkpt lat="55.837040" lon="26.047396">
<ele>157.466919</ele>
<time>2010-07-17T15:26:46Z</time>
<desc>lat.=55.837040, lon.=26.047396, Alt.=157.466919m. Speed=0.180000m/h.</desc>
<speed>0.050000</speed>
</trkpt>
<trkpt lat="55.837040" lon="26.047396">
<ele>157.466919</ele>
<time>2010-07-17T15:26:47Z</time>
<desc>lat.=55.837040, lon.=26.047396, Alt.=157.466919m. Speed=0.180000m/h.</desc>
<speed>0.050000</speed>
</trkpt>
<trkpt lat="55.837040" lon="26.047396">
<ele>157.466919</ele>
<time>2010-07-17T15:26:48Z</time>
<desc>lat.=55.837040, lon.=26.047396, Alt.=157.466919m. Speed=0.108000m/h.</desc>
<speed>0.030000</speed>
</trkpt>
<trkpt lat="55.837040" lon="26.047394">
<ele>157.466919</ele>
<time>2010-07-17T15:26:49Z</time>
<desc>lat.=55.837040, lon.=26.047394, Alt.=157.466919m. Speed=0.072000m/h.</desc>
<speed>0.020000</speed>
</trkpt>
<trkpt lat="55.837040" lon="26.047394">
<ele>157.463013</ele>
<time>2010-07-17T15:26:50Z</time>
<desc>lat.=55.837040, lon.=26.047394, Alt.=157.463013m. Speed=0.072000m/h.</desc>
<speed>0.020000</speed>
</trkpt>
<trkpt lat="55.837040" lon="26.047394">
<ele>157.463013</ele>
<time>2010-07-17T15:26:51Z</time>
<desc>lat.=55.837040, lon.=26.047394, Alt.=157.463013m. Speed=0.108000m/h.</desc>
<speed>0.030000</speed>
</trkpt>
<trkpt lat="55.837040" lon="26.047394">
<ele>157.459106</ele>
<time>2010-07-17T15:26:52Z</time>
<desc>lat.=55.837040, lon.=26.047394, Alt.=157.459106m. Speed=0.036000m/h.</desc>
<speed>0.010000</speed>
</trkpt>
<trkpt lat="55.837040" lon="26.047394">
<ele>157.459106</ele>
<time>2010-07-17T15:26:53Z</time>
<desc>lat.=55.837040, lon.=26.047394, Alt.=157.459106m. Speed=0.144000m/h.</desc>
<speed>0.040000</speed>
</trkpt>
<trkpt lat="55.837040" lon="26.047394">
<ele>157.455200</ele>
<time>2010-07-17T15:26:54Z</time>
<desc>lat.=55.837040, lon.=26.047394, Alt.=157.455200m. Speed=0.144000m/h.</desc>
<speed>0.040000</speed>
</trkpt>
<trkpt lat="55.837040" lon="26.047394">
<ele>157.466919</ele>
<time>2010-07-17T15:26:55Z</time>
<desc>lat.=55.837040, lon.=26.047394, Alt.=157.466919m. Speed=0.108000m/h.</desc>
<speed>0.030000</speed>
</trkpt>
<trkpt lat="55.837040" lon="26.047394">
<ele>157.478638</ele>
<time>2010-07-17T15:26:56Z</time>
<desc>lat.=55.837040, lon.=26.047394, Alt.=157.478638m. Speed=0.144000m/h.</desc>
<speed>0.040000</speed>
</trkpt>
<trkpt lat="55.837040" lon="26.047392">
<ele>157.478638</ele>
<time>2010-07-17T15:26:57Z</time>
<desc>lat.=55.837040, lon.=26.047392, Alt.=157.478638m. Speed=0.072000m/h.</desc>
<speed>0.020000</speed>
</trkpt>
<trkpt lat="55.837040" lon="26.047392">
<ele>157.478638</ele>
<time>2010-07-17T15:26:58Z</time>
<desc>lat.=55.837040, lon.=26.047392, Alt.=157.478638m. Speed=0.036000m/h.</desc>
<speed>0.010000</speed>
</trkpt>
<trkpt lat="55.837040" lon="26.047392">
<ele>157.470825</ele>
<time>2010-07-17T15:26:59Z</time>
<desc>lat.=55.837040, lon.=26.047392, Alt.=157.470825m. Speed=0.000000m/h.</desc>
<speed>0.000000</speed>
</trkpt>
<trkpt lat="55.837040" lon="26.047392">
<ele>157.470825</ele>
<time>2010-07-17T15:27:00Z</time>
<desc>lat.=55.837040, lon.=26.047392, Alt.=157.470825m. Speed=0.072000m/h.</desc>
<speed>0.020000</speed>
</trkpt>
<trkpt lat="55.837040" lon="26.047392">
<ele>157.470825</ele>
<time>2010-07-17T15:27:01Z</time>
<desc>lat.=55.837040, lon.=26.047392, Alt.=157.470825m. Speed=0.072000m/h.</desc>
<speed>0.020000</speed>
</trkpt>
<trkpt lat="55.837040" lon="26.047392">
<ele>157.470825</ele>
<time>2010-07-17T15:27:02Z</time>
<desc>lat.=55.837040, lon.=26.047392, Alt.=157.470825m. Speed=0.036000m/h.</desc>
<speed>0.010000</speed>
</trkpt>
<trkpt lat="55.837040" lon="26.047392">
<ele>157.478638</ele>
<time>2010-07-17T15:27:03Z</time>
<desc>lat.=55.837040, lon.=26.047392, Alt.=157.478638m. Speed=0.000000m/h.</desc>
<speed>0.000000</speed>
</trkpt>
<trkpt lat="55.837040" lon="26.047392">
<ele>157.478638</ele>
<time>2010-07-17T15:27:04Z</time>
<desc>lat.=55.837040, lon.=26.047392, Alt.=157.478638m. Speed=0.108000m/h.</desc>
<speed>0.030000</speed>
</trkpt>
<trkpt lat="55.837040" lon="26.047392">
<ele>157.474731</ele>
<time>2010-07-17T15:27:05Z</time>
<desc>lat.=55.837040, lon.=26.047392, Alt.=157.474731m. Speed=0.072000m/h.</desc>
<speed>0.020000</speed>
</trkpt>
<trkpt lat="55.837040" lon="26.047390">
<ele>157.478638</ele>
<time>2010-07-17T15:27:06Z</time>
<desc>lat.=55.837040, lon.=26.047390, Alt.=157.478638m. Speed=0.108000m/h.</desc>
<speed>0.030000</speed>
</trkpt>
<trkpt lat="55.837040" lon="26.047390">
<ele>157.494263</ele>
<time>2010-07-17T15:27:07Z</time>
<desc>lat.=55.837040, lon.=26.047390, Alt.=157.494263m. Speed=0.144000m/h.</desc>
<speed>0.040000</speed>
</trkpt>
<trkpt lat="55.837040" lon="26.047390">
<ele>157.513794</ele>
<time>2010-07-17T15:27:08Z</time>
<desc>lat.=55.837040, lon.=26.047390, Alt.=157.513794m. Speed=0.072000m/h.</desc>
<speed>0.020000</speed>
</trkpt>
<trkpt lat="55.837040" lon="26.047390">
<ele>157.521606</ele>
<time>2010-07-17T15:27:09Z</time>
<desc>lat.=55.837040, lon.=26.047390, Alt.=157.521606m. Speed=0.072000m/h.</desc>
<speed>0.020000</speed>
</trkpt>
<trkpt lat="55.837040" lon="26.047390">
<ele>157.525513</ele>
<time>2010-07-17T15:27:10Z</time>
<desc>lat.=55.837040, lon.=26.047390, Alt.=157.525513m. Speed=0.036000m/h.</desc>
<speed>0.010000</speed>
</trkpt>
<trkpt lat="55.837040" lon="26.047390">
<ele>157.529419</ele>
<time>2010-07-17T15:27:11Z</time>
<desc>lat.=55.837040, lon.=26.047390, Alt.=157.529419m. Speed=0.072000m/h.</desc>
<speed>0.020000</speed>
</trkpt>
<trkpt lat="55.837040" lon="26.047390">
<ele>157.541138</ele>
<time>2010-07-17T15:27:12Z</time>
<desc>lat.=55.837040, lon.=26.047390, Alt.=157.541138m. Speed=0.144000m/h.</desc>
<speed>0.040000</speed>
</trkpt>
<trkpt lat="55.837040" lon="26.047388">
<ele>157.548950</ele>
<time>2010-07-17T15:27:13Z</time>
<desc>lat.=55.837040, lon.=26.047388, Alt.=157.548950m. Speed=0.144000m/h.</desc>
<speed>0.040000</speed>
</trkpt>
<trkpt lat="55.837040" lon="26.047388">
<ele>157.552856</ele>
<time>2010-07-17T15:27:14Z</time>
<desc>lat.=55.837040, lon.=26.047388, Alt.=157.552856m. Speed=0.108000m/h.</desc>
<speed>0.030000</speed>
</trkpt>
<trkpt lat="55.837040" lon="26.047388">
<ele>157.556763</ele>
<time>2010-07-17T15:27:15Z</time>
<desc>lat.=55.837040, lon.=26.047388, Alt.=157.556763m. Speed=0.180000m/h.</desc>
<speed>0.050000</speed>
</trkpt>
<trkpt lat="55.837040" lon="26.047388">
<ele>157.564575</ele>
<time>2010-07-17T15:27:16Z</time>
<desc>lat.=55.837040, lon.=26.047388, Alt.=157.564575m. Speed=0.108000m/h.</desc>
<speed>0.030000</speed>
</trkpt>
<trkpt lat="55.837040" lon="26.047388">
<ele>157.568481</ele>
<time>2010-07-17T15:27:17Z</time>
<desc>lat.=55.837040, lon.=26.047388, Alt.=157.568481m. Speed=0.072000m/h.</desc>
<speed>0.020000</speed>
</trkpt>
<trkpt lat="55.837040" lon="26.047388">
<ele>157.572388</ele>
<time>2010-07-17T15:27:18Z</time>
<desc>lat.=55.837040, lon.=26.047388, Alt.=157.572388m. Speed=0.036000m/h.</desc>
<speed>0.010000</speed>
</trkpt>
<trkpt lat="55.837040" lon="26.047388">
<ele>157.568481</ele>
<time>2010-07-17T15:27:19Z</time>
<desc>lat.=55.837040, lon.=26.047388, Alt.=157.568481m. Speed=0.144000m/h.</desc>
<speed>0.040000</speed>
</trkpt>
<trkpt lat="55.837040" lon="26.047388">
<ele>157.580200</ele>
<time>2010-07-17T15:27:20Z</time>
<desc>lat.=55.837040, lon.=26.047388, Alt.=157.580200m. Speed=0.072000m/h.</desc>
<speed>0.020000</speed>
</trkpt>
<trkpt lat="55.837040" lon="26.047388">
<ele>157.588013</ele>
<time>2010-07-17T15:27:21Z</time>
<desc>lat.=55.837040, lon.=26.047388, Alt.=157.588013m. Speed=0.144000m/h.</desc>
<speed>0.040000</speed>
</trkpt>
<trkpt lat="55.837040" lon="26.047386">
<ele>157.591919</ele>
<time>2010-07-17T15:27:22Z</time>
<desc>lat.=55.837040, lon.=26.047386, Alt.=157.591919m. Speed=0.072000m/h.</desc>
<speed>0.020000</speed>
</trkpt>
<trkpt lat="55.837040" lon="26.047386">
<ele>157.599731</ele>
<time>2010-07-17T15:27:23Z</time>
<desc>lat.=55.837040, lon.=26.047386, Alt.=157.599731m. Speed=0.000000m/h.</desc>
<speed>0.000000</speed>
</trkpt>
<trkpt lat="55.837040" lon="26.047386">
<ele>157.603638</ele>
<time>2010-07-17T15:27:24Z</time>
<desc>lat.=55.837040, lon.=26.047386, Alt.=157.603638m. Speed=0.000000m/h.</desc>
<speed>0.000000</speed>
</trkpt>
<trkpt lat="55.837040" lon="26.047386">
<ele>157.599731</ele>
<time>2010-07-17T15:27:25Z</time>
<desc>lat.=55.837040, lon.=26.047386, Alt.=157.599731m. Speed=0.072000m/h.</desc>
<speed>0.020000</speed>
</trkpt>
<trkpt lat="55.837040" lon="26.047386">
<ele>157.595825</ele>
<time>2010-07-17T15:27:26Z</time>
<desc>lat.=55.837040, lon.=26.047386, Alt.=157.595825m. Speed=0.036000m/h.</desc>
<speed>0.010000</speed>
</trkpt>
<trkpt lat="55.837040" lon="26.047386">
<ele>157.603638</ele>
<time>2010-07-17T15:27:27Z</time>
<desc>lat.=55.837040, lon.=26.047386, Alt.=157.603638m. Speed=0.000000m/h.</desc>
<speed>0.000000</speed>
</trkpt>
<trkpt lat="55.837040" lon="26.047386">
<ele>157.603638</ele>
<time>2010-07-17T15:27:28Z</time>
<desc>lat.=55.837040, lon.=26.047386, Alt.=157.603638m. Speed=0.000000m/h.</desc>
<speed>0.000000</speed>
</trkpt>
<trkpt lat="55.837040" lon="26.047386">
<ele>157.603638</ele>
<time>2010-07-17T15:27:29Z</time>
<desc>lat.=55.837040, lon.=26.047386, Alt.=157.603638m. Speed=0.036000m/h.</desc>
<speed>0.010000</speed>
</trkpt>
<trkpt lat="55.837040" lon="26.047386">
<ele>157.599731</ele>
<time>2010-07-17T15:27:30Z</time>
<desc>lat.=55.837040, lon.=26.047386, Alt.=157.599731m. Speed=0.072000m/h.</desc>
<speed>0.020000</speed>
</trkpt>
<trkpt lat="55.837040" lon="26.047386">
<ele>157.599731</ele>
<time>2010-07-17T15:27:31Z</time>
<desc>lat.=55.837040, lon.=26.047386, Alt.=157.599731m. Speed=0.036000m/h.</desc>
<speed>0.010000</speed>
</trkpt>
<trkpt lat="55.837040" lon="26.047386">
<ele>157.603638</ele>
<time>2010-07-17T15:27:32Z</time>
<desc>lat.=55.837040, lon.=26.047386, Alt.=157.603638m. Speed=0.036000m/h.</desc>
<speed>0.010000</speed>
</trkpt>
<trkpt lat="55.837040" lon="26.047386">
<ele>157.603638</ele>
<time>2010-07-17T15:27:33Z</time>
<desc>lat.=55.837040, lon.=26.047386, Alt.=157.603638m. Speed=0.072000m/h.</desc>
<speed>0.020000</speed>
</trkpt>
<trkpt lat="55.837040" lon="26.047386">
<ele>157.599731</ele>
<time>2010-07-17T15:27:34Z</time>
<desc>lat.=55.837040, lon.=26.047386, Alt.=157.599731m. Speed=0.036000m/h.</desc>
<speed>0.010000</speed>
</trkpt>
<trkpt lat="55.837040" lon="26.047386">
<ele>157.595825</ele>
<time>2010-07-17T15:27:35Z</time>
<desc>lat.=55.837040, lon.=26.047386, Alt.=157.595825m. Speed=0.072000m/h.</desc>
<speed>0.020000</speed>
</trkpt>
<trkpt lat="55.837040" lon="26.047386">
<ele>157.591919</ele>
<time>2010-07-17T15:27:36Z</time>
<desc>lat.=55.837040, lon.=26.047386, Alt.=157.591919m. Speed=0.108000m/h.</desc>
<speed>0.030000</speed>
</trkpt>
<trkpt lat="55.837040" lon="26.047386">
<ele>157.591919</ele>
<time>2010-07-17T15:27:37Z</time>
<desc>lat.=55.837040, lon.=26.047386, Alt.=157.591919m. Speed=0.072000m/h.</desc>
<speed>0.020000</speed>
</trkpt>
<trkpt lat="55.837040" lon="26.047386">
<ele>157.588013</ele>
<time>2010-07-17T15:27:38Z</time>
<desc>lat.=55.837040, lon.=26.047386, Alt.=157.588013m. Speed=0.072000m/h.</desc>
<speed>0.020000</speed>
</trkpt>
<trkpt lat="55.837040" lon="26.047386">
<ele>157.584106</ele>
<time>2010-07-17T15:27:39Z</time>
<desc>lat.=55.837040, lon.=26.047386, Alt.=157.584106m. Speed=0.108000m/h.</desc>
<speed>0.030000</speed>
</trkpt>
<trkpt lat="55.837040" lon="26.047386">
<ele>157.576294</ele>
<time>2010-07-17T15:27:40Z</time>
<desc>lat.=55.837040, lon.=26.047386, Alt.=157.576294m. Speed=0.036000m/h.</desc>
<speed>0.010000</speed>
</trkpt>
<trkpt lat="55.837040" lon="26.047386">
<ele>157.568481</ele>
<time>2010-07-17T15:27:41Z</time>
<desc>lat.=55.837040, lon.=26.047386, Alt.=157.568481m. Speed=0.108000m/h.</desc>
<speed>0.030000</speed>
</trkpt>
<trkpt lat="55.837040" lon="26.047386">
<ele>157.560669</ele>
<time>2010-07-17T15:27:42Z</time>
<desc>lat.=55.837040, lon.=26.047386, Alt.=157.560669m. Speed=0.072000m/h.</desc>
<speed>0.020000</speed>
</trkpt>
<trkpt lat="55.837040" lon="26.047386">
<ele>157.560669</ele>
<time>2010-07-17T15:27:43Z</time>
<desc>lat.=55.837040, lon.=26.047386, Alt.=157.560669m. Speed=0.036000m/h.</desc>
<speed>0.010000</speed>
</trkpt>
<trkpt lat="55.837040" lon="26.047386">
<ele>157.552856</ele>
<time>2010-07-17T15:27:44Z</time>
<desc>lat.=55.837040, lon.=26.047386, Alt.=157.552856m. Speed=0.108000m/h.</desc>
<speed>0.030000</speed>
</trkpt>
<trkpt lat="55.837040" lon="26.047386">
<ele>157.548950</ele>
<time>2010-07-17T15:27:45Z</time>
<desc>lat.=55.837040, lon.=26.047386, Alt.=157.548950m. Speed=0.036000m/h.</desc>
<speed>0.010000</speed>
</trkpt>
<trkpt lat="55.837040" lon="26.047386">
<ele>157.545044</ele>
<time>2010-07-17T15:27:46Z</time>
<desc>lat.=55.837040, lon.=26.047386, Alt.=157.545044m. Speed=0.036000m/h.</desc>
<speed>0.010000</speed>
</trkpt>
<trkpt lat="55.837040" lon="26.047386">
<ele>157.529419</ele>
<time>2010-07-17T15:27:47Z</time>
<desc>lat.=55.837040, lon.=26.047386, Alt.=157.529419m. Speed=0.036000m/h.</desc>
<speed>0.010000</speed>
</trkpt>
<trkpt lat="55.837040" lon="26.047386">
<ele>157.521606</ele>
<time>2010-07-17T15:27:48Z</time>
<desc>lat.=55.837040, lon.=26.047386, Alt.=157.521606m. Speed=0.036000m/h.</desc>
<speed>0.010000</speed>
</trkpt>
<trkpt lat="55.837040" lon="26.047386">
<ele>157.521606</ele>
<time>2010-07-17T15:27:49Z</time>
<desc>lat.=55.837040, lon.=26.047386, Alt.=157.521606m. Speed=0.144000m/h.</desc>
<speed>0.040000</speed>
</trkpt>
<trkpt lat="55.837040" lon="26.047386">
<ele>157.525513</ele>
<time>2010-07-17T15:27:50Z</time>
<desc>lat.=55.837040, lon.=26.047386, Alt.=157.525513m. Speed=0.144000m/h.</desc>
<speed>0.040000</speed>
</trkpt>
<trkpt lat="55.837040" lon="26.047386">
<ele>157.525513</ele>
<time>2010-07-17T15:27:51Z</time>
<desc>lat.=55.837040, lon.=26.047386, Alt.=157.525513m. Speed=0.108000m/h.</desc>
<speed>0.030000</speed>
</trkpt>
<trkpt lat="55.837040" lon="26.047386">
<ele>157.525513</ele>
<time>2010-07-17T15:27:52Z</time>
<desc>lat.=55.837040, lon.=26.047386, Alt.=157.525513m. Speed=0.036000m/h.</desc>
<speed>0.010000</speed>
</trkpt>
<trkpt lat="55.837040" lon="26.047386">
<ele>157.521606</ele>
<time>2010-07-17T15:27:53Z</time>
<desc>lat.=55.837040, lon.=26.047386, Alt.=157.521606m. Speed=0.036000m/h.</desc>
<speed>0.010000</speed>
</trkpt>
<trkpt lat="55.837040" lon="26.047386">
<ele>157.517700</ele>
<time>2010-07-17T15:27:54Z</time>
<desc>lat.=55.837040, lon.=26.047386, Alt.=157.517700m. Speed=0.036000m/h.</desc>
<speed>0.010000</speed>
</trkpt>
<trkpt lat="55.837040" lon="26.047386">
<ele>157.513794</ele>
<time>2010-07-17T15:27:55Z</time>
<desc>lat.=55.837040, lon.=26.047386, Alt.=157.513794m. Speed=0.108000m/h.</desc>
<speed>0.030000</speed>
</trkpt>
<trkpt lat="55.837040" lon="26.047386">
<ele>157.509888</ele>
<time>2010-07-17T15:27:56Z</time>
<desc>lat.=55.837040, lon.=26.047386, Alt.=157.509888m. Speed=0.036000m/h.</desc>
<speed>0.010000</speed>
</trkpt>
<trkpt lat="55.837040" lon="26.047386">
<ele>157.505981</ele>
<time>2010-07-17T15:27:57Z</time>
<desc>lat.=55.837040, lon.=26.047386, Alt.=157.505981m. Speed=0.072000m/h.</desc>
<speed>0.020000</speed>
</trkpt>
<trkpt lat="55.837036" lon="26.047386">
<ele>157.505981</ele>
<time>2010-07-17T15:27:58Z</time>
<desc>lat.=55.837036, lon.=26.047386, Alt.=157.505981m. Speed=0.144000m/h.</desc>
<speed>0.040000</speed>
</trkpt>
<trkpt lat="55.837036" lon="26.047386">
<ele>157.498169</ele>
<time>2010-07-17T15:27:59Z</time>
<desc>lat.=55.837036, lon.=26.047386, Alt.=157.498169m. Speed=0.036000m/h.</desc>
<speed>0.010000</speed>
</trkpt>
<trkpt lat="55.837036" lon="26.047386">
<ele>157.505981</ele>
<time>2010-07-17T15:28:00Z</time>
<desc>lat.=55.837036, lon.=26.047386, Alt.=157.505981m. Speed=0.108000m/h.</desc>
<speed>0.030000</speed>
</trkpt>
<trkpt lat="55.837036" lon="26.047386">
<ele>157.505981</ele>
<time>2010-07-17T15:28:01Z</time>
<desc>lat.=55.837036, lon.=26.047386, Alt.=157.505981m. Speed=0.180000m/h.</desc>
<speed>0.050000</speed>
</trkpt>
<trkpt lat="55.837036" lon="26.047386">
<ele>157.517700</ele>
<time>2010-07-17T15:28:02Z</time>
<desc>lat.=55.837036, lon.=26.047386, Alt.=157.517700m. Speed=0.036000m/h.</desc>
<speed>0.010000</speed>
</trkpt>
<trkpt lat="55.837036" lon="26.047386">
<ele>157.517700</ele>
<time>2010-07-17T15:28:03Z</time>
<desc>lat.=55.837036, lon.=26.047386, Alt.=157.517700m. Speed=0.072000m/h.</desc>
<speed>0.020000</speed>
</trkpt>
<trkpt lat="55.837036" lon="26.047384">
<ele>157.521606</ele>
<time>2010-07-17T15:28:04Z</time>
<desc>lat.=55.837036, lon.=26.047384, Alt.=157.521606m. Speed=0.000000m/h.</desc>
<speed>0.000000</speed>
</trkpt>
<trkpt lat="55.837036" lon="26.047384">
<ele>157.529419</ele>
<time>2010-07-17T15:28:05Z</time>
<desc>lat.=55.837036, lon.=26.047384, Alt.=157.529419m. Speed=0.072000m/h.</desc>
<speed>0.020000</speed>
</trkpt>
<trkpt lat="55.837036" lon="26.047384">
<ele>157.529419</ele>
<time>2010-07-17T15:28:06Z</time>
<desc>lat.=55.837036, lon.=26.047384, Alt.=157.529419m. Speed=0.072000m/h.</desc>
<speed>0.020000</speed>
</trkpt>
<trkpt lat="55.837036" lon="26.047384">
<ele>157.525513</ele>
<time>2010-07-17T15:28:07Z</time>
<desc>lat.=55.837036, lon.=26.047384, Alt.=157.525513m. Speed=0.108000m/h.</desc>
<speed>0.030000</speed>
</trkpt>
<trkpt lat="55.837036" lon="26.047384">
<ele>157.529419</ele>
<time>2010-07-17T15:28:08Z</time>
<desc>lat.=55.837036, lon.=26.047384, Alt.=157.529419m. Speed=0.144000m/h.</desc>
<speed>0.040000</speed>
</trkpt>
<trkpt lat="55.837036" lon="26.047384">
<ele>157.533325</ele>
<time>2010-07-17T15:28:09Z</time>
<desc>lat.=55.837036, lon.=26.047384, Alt.=157.533325m. Speed=0.108000m/h.</desc>
<speed>0.030000</speed>
</trkpt>
<trkpt lat="55.837036" lon="26.047384">
<ele>157.533325</ele>
<time>2010-07-17T15:28:10Z</time>
<desc>lat.=55.837036, lon.=26.047384, Alt.=157.533325m. Speed=0.036000m/h.</desc>
<speed>0.010000</speed>
</trkpt>
<trkpt lat="55.837036" lon="26.047384">
<ele>157.533325</ele>
<time>2010-07-17T15:28:11Z</time>
<desc>lat.=55.837036, lon.=26.047384, Alt.=157.533325m. Speed=0.072000m/h.</desc>
<speed>0.020000</speed>
</trkpt>
<trkpt lat="55.837036" lon="26.047384">
<ele>157.529419</ele>
<time>2010-07-17T15:28:12Z</time>
<desc>lat.=55.837036, lon.=26.047384, Alt.=157.529419m. Speed=0.072000m/h.</desc>
<speed>0.020000</speed>
</trkpt>
<trkpt lat="55.837036" lon="26.047384">
<ele>157.521606</ele>
<time>2010-07-17T15:28:13Z</time>
<desc>lat.=55.837036, lon.=26.047384, Alt.=157.521606m. Speed=0.036000m/h.</desc>
<speed>0.010000</speed>
</trkpt>
<trkpt lat="55.837036" lon="26.047384">
<ele>157.517700</ele>
<time>2010-07-17T15:28:14Z</time>
<desc>lat.=55.837036, lon.=26.047384, Alt.=157.517700m. Speed=0.072000m/h.</desc>
<speed>0.020000</speed>
</trkpt>
<trkpt lat="55.837036" lon="26.047384">
<ele>157.517700</ele>
<time>2010-07-17T15:28:15Z</time>
<desc>lat.=55.837036, lon.=26.047384, Alt.=157.517700m. Speed=0.036000m/h.</desc>
<speed>0.010000</speed>
</trkpt>
<trkpt lat="55.837036" lon="26.047384">
<ele>157.509888</ele>
<time>2010-07-17T15:28:16Z</time>
<desc>lat.=55.837036, lon.=26.047384, Alt.=157.509888m. Speed=0.072000m/h.</desc>
<speed>0.020000</speed>
</trkpt>
<trkpt lat="55.837036" lon="26.047384">
<ele>157.505981</ele>
<time>2010-07-17T15:28:17Z</time>
<desc>lat.=55.837036, lon.=26.047384, Alt.=157.505981m. Speed=0.072000m/h.</desc>
<speed>0.020000</speed>
</trkpt>
<trkpt lat="55.837036" lon="26.047384">
<ele>157.505981</ele>
<time>2010-07-17T15:28:18Z</time>
<desc>lat.=55.837036, lon.=26.047384, Alt.=157.505981m. Speed=0.036000m/h.</desc>
<speed>0.010000</speed>
</trkpt>
<trkpt lat="55.837036" lon="26.047384">
<ele>157.502075</ele>
<time>2010-07-17T15:28:19Z</time>
<desc>lat.=55.837036, lon.=26.047384, Alt.=157.502075m. Speed=0.000000m/h.</desc>
<speed>0.000000</speed>
</trkpt>
<trkpt lat="55.837036" lon="26.047384">
<ele>157.498169</ele>
<time>2010-07-17T15:28:20Z</time>
<desc>lat.=55.837036, lon.=26.047384, Alt.=157.498169m. Speed=0.036000m/h.</desc>
<speed>0.010000</speed>
</trkpt>
<trkpt lat="55.837036" lon="26.047384">
<ele>157.498169</ele>
<time>2010-07-17T15:28:21Z</time>
<desc>lat.=55.837036, lon.=26.047384, Alt.=157.498169m. Speed=0.072000m/h.</desc>
<speed>0.020000</speed>
</trkpt>
<trkpt lat="55.837036" lon="26.047384">
<ele>157.502075</ele>
<time>2010-07-17T15:28:22Z</time>
<desc>lat.=55.837036, lon.=26.047384, Alt.=157.502075m. Speed=0.144000m/h.</desc>
<speed>0.040000</speed>
</trkpt>
<trkpt lat="55.837036" lon="26.047384">
<ele>157.502075</ele>
<time>2010-07-17T15:28:23Z</time>
<desc>lat.=55.837036, lon.=26.047384, Alt.=157.502075m. Speed=0.108000m/h.</desc>
<speed>0.030000</speed>
</trkpt>
<trkpt lat="55.837036" lon="26.047384">
<ele>157.505981</ele>
<time>2010-07-17T15:28:24Z</time>
<desc>lat.=55.837036, lon.=26.047384, Alt.=157.505981m. Speed=0.000000m/h.</desc>
<speed>0.000000</speed>
</trkpt>
<trkpt lat="55.837036" lon="26.047384">
<ele>157.502075</ele>
<time>2010-07-17T15:28:25Z</time>
<desc>lat.=55.837036, lon.=26.047384, Alt.=157.502075m. Speed=0.036000m/h.</desc>
<speed>0.010000</speed>
</trkpt>
<trkpt lat="55.837036" lon="26.047384">
<ele>157.502075</ele>
<time>2010-07-17T15:28:26Z</time>
<desc>lat.=55.837036, lon.=26.047384, Alt.=157.502075m. Speed=0.000000m/h.</desc>
<speed>0.000000</speed>
</trkpt>
<trkpt lat="55.837036" lon="26.047384">
<ele>157.502075</ele>
<time>2010-07-17T15:28:27Z</time>
<desc>lat.=55.837036, lon.=26.047384, Alt.=157.502075m. Speed=0.072000m/h.</desc>
<speed>0.020000</speed>
</trkpt>
<trkpt lat="55.837036" lon="26.047384">
<ele>157.502075</ele>
<time>2010-07-17T15:28:28Z</time>
<desc>lat.=55.837036, lon.=26.047384, Alt.=157.502075m. Speed=0.036000m/h.</desc>
<speed>0.010000</speed>
</trkpt>
<trkpt lat="55.837036" lon="26.047384">
<ele>157.502075</ele>
<time>2010-07-17T15:28:29Z</time>
<desc>lat.=55.837036, lon.=26.047384, Alt.=157.502075m. Speed=0.036000m/h.</desc>
<speed>0.010000</speed>
</trkpt>
<trkpt lat="55.837036" lon="26.047384">
<ele>157.505981</ele>
<time>2010-07-17T15:28:30Z</time>
<desc>lat.=55.837036, lon.=26.047384, Alt.=157.505981m. Speed=0.000000m/h.</desc>
<speed>0.000000</speed>
</trkpt>
<trkpt lat="55.837036" lon="26.047384">
<ele>157.509888</ele>
<time>2010-07-17T15:28:31Z</time>
<desc>lat.=55.837036, lon.=26.047384, Alt.=157.509888m. Speed=0.036000m/h.</desc>
<speed>0.010000</speed>
</trkpt>
<trkpt lat="55.837036" lon="26.047384">
<ele>157.509888</ele>
<time>2010-07-17T15:28:32Z</time>
<desc>lat.=55.837036, lon.=26.047384, Alt.=157.509888m. Speed=0.036000m/h.</desc>
<speed>0.010000</speed>
</trkpt>
<trkpt lat="55.837036" lon="26.047384">
<ele>157.505981</ele>
<time>2010-07-17T15:28:33Z</time>
<desc>lat.=55.837036, lon.=26.047384, Alt.=157.505981m. Speed=0.036000m/h.</desc>
<speed>0.010000</speed>
</trkpt>
<trkpt lat="55.837036" lon="26.047384">
<ele>157.502075</ele>
<time>2010-07-17T15:28:34Z</time>
<desc>lat.=55.837036, lon.=26.047384, Alt.=157.502075m. Speed=0.000000m/h.</desc>
<speed>0.000000</speed>
</trkpt>
<trkpt lat="55.837036" lon="26.047384">
<ele>157.502075</ele>
<time>2010-07-17T15:28:35Z</time>
<desc>lat.=55.837036, lon.=26.047384, Alt.=157.502075m. Speed=0.108000m/h.</desc>
<speed>0.030000</speed>
</trkpt>
<trkpt lat="55.837036" lon="26.047384">
<ele>157.502075</ele>
<time>2010-07-17T15:28:36Z</time>
<desc>lat.=55.837036, lon.=26.047384, Alt.=157.502075m. Speed=0.072000m/h.</desc>
<speed>0.020000</speed>
</trkpt>
<trkpt lat="55.837036" lon="26.047384">
<ele>157.505981</ele>
<time>2010-07-17T15:28:37Z</time>
<desc>lat.=55.837036, lon.=26.047384, Alt.=157.505981m. Speed=0.036000m/h.</desc>
<speed>0.010000</speed>
</trkpt>
<trkpt lat="55.837036" lon="26.047384">
<ele>157.509888</ele>
<time>2010-07-17T15:28:38Z</time>
<desc>lat.=55.837036, lon.=26.047384, Alt.=157.509888m. Speed=0.072000m/h.</desc>
<speed>0.020000</speed>
</trkpt>
<trkpt lat="55.837036" lon="26.047384">
<ele>157.513794</ele>
<time>2010-07-17T15:28:39Z</time>
<desc>lat.=55.837036, lon.=26.047384, Alt.=157.513794m. Speed=0.036000m/h.</desc>
<speed>0.010000</speed>
</trkpt>
<trkpt lat="55.837036" lon="26.047384">
<ele>157.525513</ele>
<time>2010-07-17T15:28:40Z</time>
<desc>lat.=55.837036, lon.=26.047384, Alt.=157.525513m. Speed=0.108000m/h.</desc>
<speed>0.030000</speed>
</trkpt>
<trkpt lat="55.837036" lon="26.047384">
<ele>157.525513</ele>
<time>2010-07-17T15:28:41Z</time>
<desc>lat.=55.837036, lon.=26.047384, Alt.=157.525513m. Speed=0.072000m/h.</desc>
<speed>0.020000</speed>
</trkpt>
<trkpt lat="55.837036" lon="26.047384">
<ele>157.525513</ele>
<time>2010-07-17T15:28:42Z</time>
<desc>lat.=55.837036, lon.=26.047384, Alt.=157.525513m. Speed=0.072000m/h.</desc>
<speed>0.020000</speed>
</trkpt>
<trkpt lat="55.837036" lon="26.047384">
<ele>157.525513</ele>
<time>2010-07-17T15:28:43Z</time>
<desc>lat.=55.837036, lon.=26.047384, Alt.=157.525513m. Speed=0.000000m/h.</desc>
<speed>0.000000</speed>
</trkpt>
<trkpt lat="55.837036" lon="26.047384">
<ele>157.521606</ele>
<time>2010-07-17T15:28:44Z</time>
<desc>lat.=55.837036, lon.=26.047384, Alt.=157.521606m. Speed=0.036000m/h.</desc>
<speed>0.010000</speed>
</trkpt>
<trkpt lat="55.837036" lon="26.047384">
<ele>157.521606</ele>
<time>2010-07-17T15:28:45Z</time>
<desc>lat.=55.837036, lon.=26.047384, Alt.=157.521606m. Speed=0.036000m/h.</desc>
<speed>0.010000</speed>
</trkpt>
<trkpt lat="55.837036" lon="26.047384">
<ele>157.525513</ele>
<time>2010-07-17T15:28:46Z</time>
<desc>lat.=55.837036, lon.=26.047384, Alt.=157.525513m. Speed=0.000000m/h.</desc>
<speed>0.000000</speed>
</trkpt>
<trkpt lat="55.837036" lon="26.047384">
<ele>157.533325</ele>
<time>2010-07-17T15:28:47Z</time>
<desc>lat.=55.837036, lon.=26.047384, Alt.=157.533325m. Speed=0.036000m/h.</desc>
<speed>0.010000</speed>
</trkpt>
<trkpt lat="55.837036" lon="26.047384">
<ele>157.533325</ele>
<time>2010-07-17T15:28:48Z</time>
<desc>lat.=55.837036, lon.=26.047384, Alt.=157.533325m. Speed=0.000000m/h.</desc>
<speed>0.000000</speed>
</trkpt>
<trkpt lat="55.837036" lon="26.047384">
<ele>157.537231</ele>
<time>2010-07-17T15:28:49Z</time>
<desc>lat.=55.837036, lon.=26.047384, Alt.=157.537231m. Speed=0.036000m/h.</desc>
<speed>0.010000</speed>
</trkpt>
<trkpt lat="55.837036" lon="26.047384">
<ele>157.545044</ele>
<time>2010-07-17T15:28:50Z</time>
<desc>lat.=55.837036, lon.=26.047384, Alt.=157.545044m. Speed=0.108000m/h.</desc>
<speed>0.030000</speed>
</trkpt>
<trkpt lat="55.837036" lon="26.047384">
<ele>157.556763</ele>
<time>2010-07-17T15:28:51Z</time>
<desc>lat.=55.837036, lon.=26.047384, Alt.=157.556763m. Speed=0.036000m/h.</desc>
<speed>0.010000</speed>
</trkpt>
<trkpt lat="55.837036" lon="26.047384">
<ele>157.556763</ele>
<time>2010-07-17T15:28:52Z</time>
<desc>lat.=55.837036, lon.=26.047384, Alt.=157.556763m. Speed=0.072000m/h.</desc>
<speed>0.020000</speed>
</trkpt>
<trkpt lat="55.837036" lon="26.047384">
<ele>157.552856</ele>
<time>2010-07-17T15:28:53Z</time>
<desc>lat.=55.837036, lon.=26.047384, Alt.=157.552856m. Speed=0.108000m/h.</desc>
<speed>0.030000</speed>
</trkpt>
<trkpt lat="55.837036" lon="26.047384">
<ele>157.560669</ele>
<time>2010-07-17T15:28:54Z</time>
<desc>lat.=55.837036, lon.=26.047384, Alt.=157.560669m. Speed=0.036000m/h.</desc>
<speed>0.010000</speed>
</trkpt>
<trkpt lat="55.837036" lon="26.047384">
<ele>157.568481</ele>
<time>2010-07-17T15:28:55Z</time>
<desc>lat.=55.837036, lon.=26.047384, Alt.=157.568481m. Speed=0.036000m/h.</desc>
<speed>0.010000</speed>
</trkpt>
<trkpt lat="55.837036" lon="26.047384">
<ele>157.580200</ele>
<time>2010-07-17T15:28:56Z</time>
<desc>lat.=55.837036, lon.=26.047384, Alt.=157.580200m. Speed=0.036000m/h.</desc>
<speed>0.010000</speed>
</trkpt>
<trkpt lat="55.837036" lon="26.047384">
<ele>157.584106</ele>
<time>2010-07-17T15:28:57Z</time>
<desc>lat.=55.837036, lon.=26.047384, Alt.=157.584106m. Speed=0.072000m/h.</desc>
<speed>0.020000</speed>
</trkpt>
<trkpt lat="55.837036" lon="26.047384">
<ele>157.588013</ele>
<time>2010-07-17T15:28:58Z</time>
<desc>lat.=55.837036, lon.=26.047384, Alt.=157.588013m. Speed=0.108000m/h.</desc>
<speed>0.030000</speed>
</trkpt>
<trkpt lat="55.837036" lon="26.047384">
<ele>157.595825</ele>
<time>2010-07-17T15:28:59Z</time>
<desc>lat.=55.837036, lon.=26.047384, Alt.=157.595825m. Speed=0.072000m/h.</desc>
<speed>0.020000</speed>
</trkpt>
<trkpt lat="55.837036" lon="26.047384">
<ele>157.591919</ele>
<time>2010-07-17T15:29:00Z</time>
<desc>lat.=55.837036, lon.=26.047384, Alt.=157.591919m. Speed=0.000000m/h.</desc>
<speed>0.000000</speed>
</trkpt>
<trkpt lat="55.837036" lon="26.047384">
<ele>157.591919</ele>
<time>2010-07-17T15:29:01Z</time>
<desc>lat.=55.837036, lon.=26.047384, Alt.=157.591919m. Speed=0.072000m/h.</desc>
<speed>0.020000</speed>
</trkpt>
<trkpt lat="55.837036" lon="26.047384">
<ele>157.588013</ele>
<time>2010-07-17T15:29:02Z</time>
<desc>lat.=55.837036, lon.=26.047384, Alt.=157.588013m. Speed=0.072000m/h.</desc>
<speed>0.020000</speed>
</trkpt>
<trkpt lat="55.837036" lon="26.047384">
<ele>157.584106</ele>
<time>2010-07-17T15:29:03Z</time>
<desc>lat.=55.837036, lon.=26.047384, Alt.=157.584106m. Speed=0.000000m/h.</desc>
<speed>0.000000</speed>
</trkpt>
<trkpt lat="55.837036" lon="26.047384">
<ele>157.584106</ele>
<time>2010-07-17T15:29:04Z</time>
<desc>lat.=55.837036, lon.=26.047384, Alt.=157.584106m. Speed=0.072000m/h.</desc>
<speed>0.020000</speed>
</trkpt>
<trkpt lat="55.837036" lon="26.047384">
<ele>157.584106</ele>
<time>2010-07-17T15:29:05Z</time>
<desc>lat.=55.837036, lon.=26.047384, Alt.=157.584106m. Speed=0.036000m/h.</desc>
<speed>0.010000</speed>
</trkpt>
<trkpt lat="55.837036" lon="26.047384">
<ele>157.576294</ele>
<time>2010-07-17T15:29:06Z</time>
<desc>lat.=55.837036, lon.=26.047384, Alt.=157.576294m. Speed=0.072000m/h.</desc>
<speed>0.020000</speed>
</trkpt>
<trkpt lat="55.837036" lon="26.047384">
<ele>157.572388</ele>
<time>2010-07-17T15:29:07Z</time>
<desc>lat.=55.837036, lon.=26.047384, Alt.=157.572388m. Speed=0.108000m/h.</desc>
<speed>0.030000</speed>
</trkpt>
<trkpt lat="55.837036" lon="26.047384">
<ele>157.564575</ele>
<time>2010-07-17T15:29:08Z</time>
<desc>lat.=55.837036, lon.=26.047384, Alt.=157.564575m. Speed=0.072000m/h.</desc>
<speed>0.020000</speed>
</trkpt>
<trkpt lat="55.837036" lon="26.047384">
<ele>157.560669</ele>
<time>2010-07-17T15:29:09Z</time>
<desc>lat.=55.837036, lon.=26.047384, Alt.=157.560669m. Speed=0.072000m/h.</desc>
<speed>0.020000</speed>
</trkpt>
<trkpt lat="55.837036" lon="26.047384">
<ele>157.560669</ele>
<time>2010-07-17T15:29:10Z</time>
<desc>lat.=55.837036, lon.=26.047384, Alt.=157.560669m. Speed=0.036000m/h.</desc>
<speed>0.010000</speed>
</trkpt>
<trkpt lat="55.837036" lon="26.047384">
<ele>157.560669</ele>
<time>2010-07-17T15:29:11Z</time>
<desc>lat.=55.837036, lon.=26.047384, Alt.=157.560669m. Speed=0.072000m/h.</desc>
<speed>0.020000</speed>
</trkpt>
<trkpt lat="55.837036" lon="26.047384">
<ele>157.560669</ele>
<time>2010-07-17T15:29:12Z</time>
<desc>lat.=55.837036, lon.=26.047384, Alt.=157.560669m. Speed=0.036000m/h.</desc>
<speed>0.010000</speed>
</trkpt>
<trkpt lat="55.837036" lon="26.047384">
<ele>157.556763</ele>
<time>2010-07-17T15:29:13Z</time>
<desc>lat.=55.837036, lon.=26.047384, Alt.=157.556763m. Speed=0.108000m/h.</desc>
<speed>0.030000</speed>
</trkpt>
<trkpt lat="55.837036" lon="26.047384">
<ele>157.548950</ele>
<time>2010-07-17T15:29:14Z</time>
<desc>lat.=55.837036, lon.=26.047384, Alt.=157.548950m. Speed=0.036000m/h.</desc>
<speed>0.010000</speed>
</trkpt>
<trkpt lat="55.837036" lon="26.047384">
<ele>157.552856</ele>
<time>2010-07-17T15:29:15Z</time>
<desc>lat.=55.837036, lon.=26.047384, Alt.=157.552856m. Speed=0.000000m/h.</desc>
<speed>0.000000</speed>
</trkpt>
<trkpt lat="55.837036" lon="26.047384">
<ele>157.552856</ele>
<time>2010-07-17T15:29:16Z</time>
<desc>lat.=55.837036, lon.=26.047384, Alt.=157.552856m. Speed=0.072000m/h.</desc>
<speed>0.020000</speed>
</trkpt>
<trkpt lat="55.837036" lon="26.047384">
<ele>157.552856</ele>
<time>2010-07-17T15:29:17Z</time>
<desc>lat.=55.837036, lon.=26.047384, Alt.=157.552856m. Speed=0.072000m/h.</desc>
<speed>0.020000</speed>
</trkpt>
<trkpt lat="55.837036" lon="26.047384">
<ele>157.552856</ele>
<time>2010-07-17T15:29:18Z</time>
<desc>lat.=55.837036, lon.=26.047384, Alt.=157.552856m. Speed=0.072000m/h.</desc>
<speed>0.020000</speed>
</trkpt>
<trkpt lat="55.837036" lon="26.047384">
<ele>157.556763</ele>
<time>2010-07-17T15:29:19Z</time>
<desc>lat.=55.837036, lon.=26.047384, Alt.=157.556763m. Speed=0.072000m/h.</desc>
<speed>0.020000</speed>
</trkpt>
<trkpt lat="55.837036" lon="26.047384">
<ele>157.556763</ele>
<time>2010-07-17T15:29:20Z</time>
<desc>lat.=55.837036, lon.=26.047384, Alt.=157.556763m. Speed=0.000000m/h.</desc>
<speed>0.000000</speed>
</trkpt>
<trkpt lat="55.837036" lon="26.047384">
<ele>157.556763</ele>
<time>2010-07-17T15:29:21Z</time>
<desc>lat.=55.837036, lon.=26.047384, Alt.=157.556763m. Speed=0.036000m/h.</desc>
<speed>0.010000</speed>
</trkpt>
<trkpt lat="55.837036" lon="26.047384">
<ele>157.552856</ele>
<time>2010-07-17T15:29:22Z</time>
<desc>lat.=55.837036, lon.=26.047384, Alt.=157.552856m. Speed=0.036000m/h.</desc>
<speed>0.010000</speed>
</trkpt>
<trkpt lat="55.837036" lon="26.047382">
<ele>157.541138</ele>
<time>2010-07-17T15:29:23Z</time>
<desc>lat.=55.837036, lon.=26.047382, Alt.=157.541138m. Speed=0.000000m/h.</desc>
<speed>0.000000</speed>
</trkpt>
<trkpt lat="55.837036" lon="26.047382">
<ele>157.541138</ele>
<time>2010-07-17T15:29:24Z</time>
<desc>lat.=55.837036, lon.=26.047382, Alt.=157.541138m. Speed=0.000000m/h.</desc>
<speed>0.000000</speed>
</trkpt>
<trkpt lat="55.837036" lon="26.047382">
<ele>157.541138</ele>
<time>2010-07-17T15:29:25Z</time>
<desc>lat.=55.837036, lon.=26.047382, Alt.=157.541138m. Speed=0.072000m/h.</desc>
<speed>0.020000</speed>
</trkpt>
<trkpt lat="55.837040" lon="26.047382">
<ele>157.533325</ele>
<time>2010-07-17T15:29:26Z</time>
<desc>lat.=55.837040, lon.=26.047382, Alt.=157.533325m. Speed=0.036000m/h.</desc>
<speed>0.010000</speed>
</trkpt>
<trkpt lat="55.837040" lon="26.047382">
<ele>157.529419</ele>
<time>2010-07-17T15:29:27Z</time>
<desc>lat.=55.837040, lon.=26.047382, Alt.=157.529419m. Speed=0.000000m/h.</desc>
<speed>0.000000</speed>
</trkpt>
<trkpt lat="55.837040" lon="26.047382">
<ele>157.525513</ele>
<time>2010-07-17T15:29:28Z</time>
<desc>lat.=55.837040, lon.=26.047382, Alt.=157.525513m. Speed=0.036000m/h.</desc>
<speed>0.010000</speed>
</trkpt>
<trkpt lat="55.837040" lon="26.047382">
<ele>157.513794</ele>
<time>2010-07-17T15:29:29Z</time>
<desc>lat.=55.837040, lon.=26.047382, Alt.=157.513794m. Speed=0.036000m/h.</desc>
<speed>0.010000</speed>
</trkpt>
<trkpt lat="55.837040" lon="26.047382">
<ele>157.498169</ele>
<time>2010-07-17T15:29:30Z</time>
<desc>lat.=55.837040, lon.=26.047382, Alt.=157.498169m. Speed=0.036000m/h.</desc>
<speed>0.010000</speed>
</trkpt>
<trkpt lat="55.837040" lon="26.047382">
<ele>157.490356</ele>
<time>2010-07-17T15:29:31Z</time>
<desc>lat.=55.837040, lon.=26.047382, Alt.=157.490356m. Speed=0.036000m/h.</desc>
<speed>0.010000</speed>
</trkpt>
<trkpt lat="55.837040" lon="26.047382">
<ele>157.486450</ele>
<time>2010-07-17T15:29:32Z</time>
<desc>lat.=55.837040, lon.=26.047382, Alt.=157.486450m. Speed=0.036000m/h.</desc>
<speed>0.010000</speed>
</trkpt>
<trkpt lat="55.837040" lon="26.047382">
<ele>157.482544</ele>
<time>2010-07-17T15:29:33Z</time>
<desc>lat.=55.837040, lon.=26.047382, Alt.=157.482544m. Speed=0.072000m/h.</desc>
<speed>0.020000</speed>
</trkpt>
<trkpt lat="55.837040" lon="26.047382">
<ele>157.478638</ele>
<time>2010-07-17T15:29:34Z</time>
<desc>lat.=55.837040, lon.=26.047382, Alt.=157.478638m. Speed=0.000000m/h.</desc>
<speed>0.000000</speed>
</trkpt>
<trkpt lat="55.837040" lon="26.047382">
<ele>157.474731</ele>
<time>2010-07-17T15:29:35Z</time>
<desc>lat.=55.837040, lon.=26.047382, Alt.=157.474731m. Speed=0.072000m/h.</desc>
<speed>0.020000</speed>
</trkpt>
<trkpt lat="55.837040" lon="26.047382">
<ele>157.482544</ele>
<time>2010-07-17T15:29:36Z</time>
<desc>lat.=55.837040, lon.=26.047382, Alt.=157.482544m. Speed=0.144000m/h.</desc>
<speed>0.040000</speed>
</trkpt>
<trkpt lat="55.837040" lon="26.047382">
<ele>157.482544</ele>
<time>2010-07-17T15:29:37Z</time>
<desc>lat.=55.837040, lon.=26.047382, Alt.=157.482544m. Speed=0.036000m/h.</desc>
<speed>0.010000</speed>
</trkpt>
<trkpt lat="55.837040" lon="26.047382">
<ele>157.490356</ele>
<time>2010-07-17T15:29:38Z</time>
<desc>lat.=55.837040, lon.=26.047382, Alt.=157.490356m. Speed=0.072000m/h.</desc>
<speed>0.020000</speed>
</trkpt>
<trkpt lat="55.837040" lon="26.047382">
<ele>157.486450</ele>
<time>2010-07-17T15:29:39Z</time>
<desc>lat.=55.837040, lon.=26.047382, Alt.=157.486450m. Speed=0.036000m/h.</desc>
<speed>0.010000</speed>
</trkpt>
<trkpt lat="55.837040" lon="26.047382">
<ele>157.494263</ele>
<time>2010-07-17T15:29:40Z</time>
<desc>lat.=55.837040, lon.=26.047382, Alt.=157.494263m. Speed=0.072000m/h.</desc>
<speed>0.020000</speed>
</trkpt>
<trkpt lat="55.837040" lon="26.047382">
<ele>157.490356</ele>
<time>2010-07-17T15:29:41Z</time>
<desc>lat.=55.837040, lon.=26.047382, Alt.=157.490356m. Speed=0.036000m/h.</desc>
<speed>0.010000</speed>
</trkpt>
<trkpt lat="55.837040" lon="26.047382">
<ele>157.490356</ele>
<time>2010-07-17T15:29:42Z</time>
<desc>lat.=55.837040, lon.=26.047382, Alt.=157.490356m. Speed=0.036000m/h.</desc>
<speed>0.010000</speed>
</trkpt>
<trkpt lat="55.837040" lon="26.047382">
<ele>157.494263</ele>
<time>2010-07-17T15:29:43Z</time>
<desc>lat.=55.837040, lon.=26.047382, Alt.=157.494263m. Speed=0.108000m/h.</desc>
<speed>0.030000</speed>
</trkpt>
<trkpt lat="55.837040" lon="26.047382">
<ele>157.494263</ele>
<time>2010-07-17T15:29:44Z</time>
<desc>lat.=55.837040, lon.=26.047382, Alt.=157.494263m. Speed=0.000000m/h.</desc>
<speed>0.000000</speed>
</trkpt>
<trkpt lat="55.837040" lon="26.047382">
<ele>157.490356</ele>
<time>2010-07-17T15:29:45Z</time>
<desc>lat.=55.837040, lon.=26.047382, Alt.=157.490356m. Speed=0.108000m/h.</desc>
<speed>0.030000</speed>
</trkpt>
<trkpt lat="55.837040" lon="26.047382">
<ele>157.486450</ele>
<time>2010-07-17T15:29:46Z</time>
<desc>lat.=55.837040, lon.=26.047382, Alt.=157.486450m. Speed=0.036000m/h.</desc>
<speed>0.010000</speed>
</trkpt>
<trkpt lat="55.837040" lon="26.047382">
<ele>157.478638</ele>
<time>2010-07-17T15:29:47Z</time>
<desc>lat.=55.837040, lon.=26.047382, Alt.=157.478638m. Speed=0.036000m/h.</desc>
<speed>0.010000</speed>
</trkpt>
<trkpt lat="55.837040" lon="26.047382">
<ele>157.478638</ele>
<time>2010-07-17T15:29:48Z</time>
<desc>lat.=55.837040, lon.=26.047382, Alt.=157.478638m. Speed=0.036000m/h.</desc>
<speed>0.010000</speed>
</trkpt>
<trkpt lat="55.837040" lon="26.047382">
<ele>157.466919</ele>
<time>2010-07-17T15:29:49Z</time>
<desc>lat.=55.837040, lon.=26.047382, Alt.=157.466919m. Speed=0.072000m/h.</desc>
<speed>0.020000</speed>
</trkpt>
<trkpt lat="55.837040" lon="26.047382">
<ele>157.455200</ele>
<time>2010-07-17T15:29:50Z</time>
<desc>lat.=55.837040, lon.=26.047382, Alt.=157.455200m. Speed=0.036000m/h.</desc>
<speed>0.010000</speed>
</trkpt>
<trkpt lat="55.837040" lon="26.047382">
<ele>157.451294</ele>
<time>2010-07-17T15:29:51Z</time>
<desc>lat.=55.837040, lon.=26.047382, Alt.=157.451294m. Speed=0.000000m/h.</desc>
<speed>0.000000</speed>
</trkpt>
<trkpt lat="55.837040" lon="26.047382">
<ele>157.451294</ele>
<time>2010-07-17T15:29:52Z</time>
<desc>lat.=55.837040, lon.=26.047382, Alt.=157.451294m. Speed=0.036000m/h.</desc>
<speed>0.010000</speed>
</trkpt>
<trkpt lat="55.837040" lon="26.047382">
<ele>157.451294</ele>
<time>2010-07-17T15:29:53Z</time>
<desc>lat.=55.837040, lon.=26.047382, Alt.=157.451294m. Speed=0.108000m/h.</desc>
<speed>0.030000</speed>
</trkpt>
<trkpt lat="55.837040" lon="26.047382">
<ele>157.451294</ele>
<time>2010-07-17T15:29:54Z</time>
<desc>lat.=55.837040, lon.=26.047382, Alt.=157.451294m. Speed=0.036000m/h.</desc>
<speed>0.010000</speed>
</trkpt>
<trkpt lat="55.837040" lon="26.047382">
<ele>157.451294</ele>
<time>2010-07-17T15:29:55Z</time>
<desc>lat.=55.837040, lon.=26.047382, Alt.=157.451294m. Speed=0.000000m/h.</desc>
<speed>0.000000</speed>
</trkpt>
<trkpt lat="55.837040" lon="26.047382">
<ele>157.435669</ele>
<time>2010-07-17T15:29:56Z</time>
<desc>lat.=55.837040, lon.=26.047382, Alt.=157.435669m. Speed=0.108000m/h.</desc>
<speed>0.030000</speed>
</trkpt>
<trkpt lat="55.837040" lon="26.047382">
<ele>157.427856</ele>
<time>2010-07-17T15:29:57Z</time>
<desc>lat.=55.837040, lon.=26.047382, Alt.=157.427856m. Speed=0.072000m/h.</desc>
<speed>0.020000</speed>
</trkpt>
<trkpt lat="55.837040" lon="26.047382">
<ele>157.420044</ele>
<time>2010-07-17T15:29:58Z</time>
<desc>lat.=55.837040, lon.=26.047382, Alt.=157.420044m. Speed=0.000000m/h.</desc>
<speed>0.000000</speed>
</trkpt>
<trkpt lat="55.837040" lon="26.047382">
<ele>157.416138</ele>
<time>2010-07-17T15:29:59Z</time>
<desc>lat.=55.837040, lon.=26.047382, Alt.=157.416138m. Speed=0.036000m/h.</desc>
<speed>0.010000</speed>
</trkpt>
<trkpt lat="55.837040" lon="26.047380">
<ele>157.416138</ele>
<time>2010-07-17T15:30:00Z</time>
<desc>lat.=55.837040, lon.=26.047380, Alt.=157.416138m. Speed=0.036000m/h.</desc>
<speed>0.010000</speed>
</trkpt>
<trkpt lat="55.837040" lon="26.047380">
<ele>157.400513</ele>
<time>2010-07-17T15:30:01Z</time>
<desc>lat.=55.837040, lon.=26.047380, Alt.=157.400513m. Speed=0.000000m/h.</desc>
<speed>0.000000</speed>
</trkpt>
<trkpt lat="55.837040" lon="26.047380">
<ele>157.392700</ele>
<time>2010-07-17T15:30:02Z</time>
<desc>lat.=55.837040, lon.=26.047380, Alt.=157.392700m. Speed=0.000000m/h.</desc>
<speed>0.000000</speed>
</trkpt>
<trkpt lat="55.837040" lon="26.047380">
<ele>157.377075</ele>
<time>2010-07-17T15:30:03Z</time>
<desc>lat.=55.837040, lon.=26.047380, Alt.=157.377075m. Speed=0.036000m/h.</desc>
<speed>0.010000</speed>
</trkpt>
<trkpt lat="55.837040" lon="26.047382">
<ele>157.353638</ele>
<time>2010-07-17T15:30:04Z</time>
<desc>lat.=55.837040, lon.=26.047382, Alt.=157.353638m. Speed=0.072000m/h.</desc>
<speed>0.020000</speed>
</trkpt>
<trkpt lat="55.837036" lon="26.047382">
<ele>157.334106</ele>
<time>2010-07-17T15:30:05Z</time>
<desc>lat.=55.837036, lon.=26.047382, Alt.=157.334106m. Speed=0.000000m/h.</desc>
<speed>0.000000</speed>
</trkpt>
<trkpt lat="55.837036" lon="26.047382">
<ele>157.318481</ele>
<time>2010-07-17T15:30:06Z</time>
<desc>lat.=55.837036, lon.=26.047382, Alt.=157.318481m. Speed=0.000000m/h.</desc>
<speed>0.000000</speed>
</trkpt>
<trkpt lat="55.837036" lon="26.047382">
<ele>157.295044</ele>
<time>2010-07-17T15:30:07Z</time>
<desc>lat.=55.837036, lon.=26.047382, Alt.=157.295044m. Speed=0.144000m/h.</desc>
<speed>0.040000</speed>
</trkpt>
<trkpt lat="55.837036" lon="26.047382">
<ele>157.275513</ele>
<time>2010-07-17T15:30:08Z</time>
<desc>lat.=55.837036, lon.=26.047382, Alt.=157.275513m. Speed=0.072000m/h.</desc>
<speed>0.020000</speed>
</trkpt>
<trkpt lat="55.837036" lon="26.047382">
<ele>157.248169</ele>
<time>2010-07-17T15:30:09Z</time>
<desc>lat.=55.837036, lon.=26.047382, Alt.=157.248169m. Speed=0.072000m/h.</desc>
<speed>0.020000</speed>
</trkpt>
<trkpt lat="55.837036" lon="26.047382">
<ele>157.220825</ele>
<time>2010-07-17T15:30:10Z</time>
<desc>lat.=55.837036, lon.=26.047382, Alt.=157.220825m. Speed=0.072000m/h.</desc>
<speed>0.020000</speed>
</trkpt>
<trkpt lat="55.837036" lon="26.047382">
<ele>157.209106</ele>
<time>2010-07-17T15:30:11Z</time>
<desc>lat.=55.837036, lon.=26.047382, Alt.=157.209106m. Speed=0.072000m/h.</desc>
<speed>0.020000</speed>
</trkpt>
<trkpt lat="55.837036" lon="26.047382">
<ele>157.197388</ele>
<time>2010-07-17T15:30:12Z</time>
<desc>lat.=55.837036, lon.=26.047382, Alt.=157.197388m. Speed=0.144000m/h.</desc>
<speed>0.040000</speed>
</trkpt>
<trkpt lat="55.837036" lon="26.047384">
<ele>157.185669</ele>
<time>2010-07-17T15:30:13Z</time>
<desc>lat.=55.837036, lon.=26.047384, Alt.=157.185669m. Speed=0.108000m/h.</desc>
<speed>0.030000</speed>
</trkpt>
<trkpt lat="55.837036" lon="26.047384">
<ele>157.177856</ele>
<time>2010-07-17T15:30:14Z</time>
<desc>lat.=55.837036, lon.=26.047384, Alt.=157.177856m. Speed=0.072000m/h.</desc>
<speed>0.020000</speed>
</trkpt>
<trkpt lat="55.837036" lon="26.047384">
<ele>157.166138</ele>
<time>2010-07-17T15:30:15Z</time>
<desc>lat.=55.837036, lon.=26.047384, Alt.=157.166138m. Speed=0.036000m/h.</desc>
<speed>0.010000</speed>
</trkpt>
<trkpt lat="55.837036" lon="26.047384">
<ele>157.146606</ele>
<time>2010-07-17T15:30:16Z</time>
<desc>lat.=55.837036, lon.=26.047384, Alt.=157.146606m. Speed=0.072000m/h.</desc>
<speed>0.020000</speed>
</trkpt>
<trkpt lat="55.837036" lon="26.047384">
<ele>157.142700</ele>
<time>2010-07-17T15:30:17Z</time>
<desc>lat.=55.837036, lon.=26.047384, Alt.=157.142700m. Speed=0.036000m/h.</desc>
<speed>0.010000</speed>
</trkpt>
<trkpt lat="55.837036" lon="26.047384">
<ele>157.138794</ele>
<time>2010-07-17T15:30:18Z</time>
<desc>lat.=55.837036, lon.=26.047384, Alt.=157.138794m. Speed=0.000000m/h.</desc>
<speed>0.000000</speed>
</trkpt>
<trkpt lat="55.837036" lon="26.047384">
<ele>157.127075</ele>
<time>2010-07-17T15:30:19Z</time>
<desc>lat.=55.837036, lon.=26.047384, Alt.=157.127075m. Speed=0.036000m/h.</desc>
<speed>0.010000</speed>
</trkpt>
<trkpt lat="55.837036" lon="26.047384">
<ele>157.123169</ele>
<time>2010-07-17T15:30:20Z</time>
<desc>lat.=55.837036, lon.=26.047384, Alt.=157.123169m. Speed=0.072000m/h.</desc>
<speed>0.020000</speed>
</trkpt>
<trkpt lat="55.837036" lon="26.047384">
<ele>157.111450</ele>
<time>2010-07-17T15:30:21Z</time>
<desc>lat.=55.837036, lon.=26.047384, Alt.=157.111450m. Speed=0.036000m/h.</desc>
<speed>0.010000</speed>
</trkpt>
<trkpt lat="55.837036" lon="26.047384">
<ele>157.099731</ele>
<time>2010-07-17T15:30:22Z</time>
<desc>lat.=55.837036, lon.=26.047384, Alt.=157.099731m. Speed=0.036000m/h.</desc>
<speed>0.010000</speed>
</trkpt>
<trkpt lat="55.837036" lon="26.047384">
<ele>157.088013</ele>
<time>2010-07-17T15:30:23Z</time>
<desc>lat.=55.837036, lon.=26.047384, Alt.=157.088013m. Speed=0.108000m/h.</desc>
<speed>0.030000</speed>
</trkpt>
<trkpt lat="55.837036" lon="26.047384">
<ele>157.076294</ele>
<time>2010-07-17T15:30:24Z</time>
<desc>lat.=55.837036, lon.=26.047384, Alt.=157.076294m. Speed=0.072000m/h.</desc>
<speed>0.020000</speed>
</trkpt>
<trkpt lat="55.837036" lon="26.047384">
<ele>157.068481</ele>
<time>2010-07-17T15:30:25Z</time>
<desc>lat.=55.837036, lon.=26.047384, Alt.=157.068481m. Speed=0.036000m/h.</desc>
<speed>0.010000</speed>
</trkpt>
<trkpt lat="55.837036" lon="26.047384">
<ele>157.060669</ele>
<time>2010-07-17T15:30:26Z</time>
<desc>lat.=55.837036, lon.=26.047384, Alt.=157.060669m. Speed=0.000000m/h.</desc>
<speed>0.000000</speed>
</trkpt>
<trkpt lat="55.837036" lon="26.047384">
<ele>157.072388</ele>
<time>2010-07-17T15:30:27Z</time>
<desc>lat.=55.837036, lon.=26.047384, Alt.=157.072388m. Speed=0.036000m/h.</desc>
<speed>0.010000</speed>
</trkpt>
<trkpt lat="55.837036" lon="26.047384">
<ele>157.076294</ele>
<time>2010-07-17T15:30:28Z</time>
<desc>lat.=55.837036, lon.=26.047384, Alt.=157.076294m. Speed=0.036000m/h.</desc>
<speed>0.010000</speed>
</trkpt>
<trkpt lat="55.837036" lon="26.047384">
<ele>157.076294</ele>
<time>2010-07-17T15:30:29Z</time>
<desc>lat.=55.837036, lon.=26.047384, Alt.=157.076294m. Speed=0.000000m/h.</desc>
<speed>0.000000</speed>
</trkpt>
<trkpt lat="55.837036" lon="26.047384">
<ele>157.076294</ele>
<time>2010-07-17T15:30:30Z</time>
<desc>lat.=55.837036, lon.=26.047384, Alt.=157.076294m. Speed=0.036000m/h.</desc>
<speed>0.010000</speed>
</trkpt>
<trkpt lat="55.837036" lon="26.047384">
<ele>157.080200</ele>
<time>2010-07-17T15:30:31Z</time>
<desc>lat.=55.837036, lon.=26.047384, Alt.=157.080200m. Speed=0.036000m/h.</desc>
<speed>0.010000</speed>
</trkpt>
<trkpt lat="55.837040" lon="26.047384">
<ele>157.091919</ele>
<time>2010-07-17T15:30:32Z</time>
<desc>lat.=55.837040, lon.=26.047384, Alt.=157.091919m. Speed=0.036000m/h.</desc>
<speed>0.010000</speed>
</trkpt>
<trkpt lat="55.837040" lon="26.047384">
<ele>157.080200</ele>
<time>2010-07-17T15:30:33Z</time>
<desc>lat.=55.837040, lon.=26.047384, Alt.=157.080200m. Speed=0.072000m/h.</desc>
<speed>0.020000</speed>
</trkpt>
<trkpt lat="55.837040" lon="26.047384">
<ele>157.076294</ele>
<time>2010-07-17T15:30:34Z</time>
<desc>lat.=55.837040, lon.=26.047384, Alt.=157.076294m. Speed=0.108000m/h.</desc>
<speed>0.030000</speed>
</trkpt>
<trkpt lat="55.837040" lon="26.047384">
<ele>157.084106</ele>
<time>2010-07-17T15:30:35Z</time>
<desc>lat.=55.837040, lon.=26.047384, Alt.=157.084106m. Speed=0.000000m/h.</desc>
<speed>0.000000</speed>
</trkpt>
<trkpt lat="55.837040" lon="26.047384">
<ele>157.088013</ele>
<time>2010-07-17T15:30:36Z</time>
<desc>lat.=55.837040, lon.=26.047384, Alt.=157.088013m. Speed=0.000000m/h.</desc>
<speed>0.000000</speed>
</trkpt>
<trkpt lat="55.837040" lon="26.047384">
<ele>157.088013</ele>
<time>2010-07-17T15:30:37Z</time>
<desc>lat.=55.837040, lon.=26.047384, Alt.=157.088013m. Speed=0.036000m/h.</desc>
<speed>0.010000</speed>
</trkpt>
<trkpt lat="55.837040" lon="26.047384">
<ele>157.095825</ele>
<time>2010-07-17T15:30:38Z</time>
<desc>lat.=55.837040, lon.=26.047384, Alt.=157.095825m. Speed=0.000000m/h.</desc>
<speed>0.000000</speed>
</trkpt>
<trkpt lat="55.837040" lon="26.047384">
<ele>157.088013</ele>
<time>2010-07-17T15:30:39Z</time>
<desc>lat.=55.837040, lon.=26.047384, Alt.=157.088013m. Speed=0.000000m/h.</desc>
<speed>0.000000</speed>
</trkpt>
<trkpt lat="55.837040" lon="26.047384">
<ele>157.088013</ele>
<time>2010-07-17T15:30:40Z</time>
<desc>lat.=55.837040, lon.=26.047384, Alt.=157.088013m. Speed=0.036000m/h.</desc>
<speed>0.010000</speed>
</trkpt>
<trkpt lat="55.837040" lon="26.047384">
<ele>157.080200</ele>
<time>2010-07-17T15:30:41Z</time>
<desc>lat.=55.837040, lon.=26.047384, Alt.=157.080200m. Speed=0.072000m/h.</desc>
<speed>0.020000</speed>
</trkpt>
<trkpt lat="55.837036" lon="26.047384">
<ele>157.060669</ele>
<time>2010-07-17T15:30:42Z</time>
<desc>lat.=55.837036, lon.=26.047384, Alt.=157.060669m. Speed=0.072000m/h.</desc>
<speed>0.020000</speed>
</trkpt>
<trkpt lat="55.837036" lon="26.047384">
<ele>157.052856</ele>
<time>2010-07-17T15:30:43Z</time>
<desc>lat.=55.837036, lon.=26.047384, Alt.=157.052856m. Speed=0.036000m/h.</desc>
<speed>0.010000</speed>
</trkpt>
<trkpt lat="55.837036" lon="26.047384">
<ele>157.048950</ele>
<time>2010-07-17T15:30:44Z</time>
<desc>lat.=55.837036, lon.=26.047384, Alt.=157.048950m. Speed=0.036000m/h.</desc>
<speed>0.010000</speed>
</trkpt>
<trkpt lat="55.837036" lon="26.047384">
<ele>157.052856</ele>
<time>2010-07-17T15:30:45Z</time>
<desc>lat.=55.837036, lon.=26.047384, Alt.=157.052856m. Speed=0.000000m/h.</desc>
<speed>0.000000</speed>
</trkpt>
<trkpt lat="55.837040" lon="26.047384">
<ele>157.056763</ele>
<time>2010-07-17T15:30:46Z</time>
<desc>lat.=55.837040, lon.=26.047384, Alt.=157.056763m. Speed=0.000000m/h.</desc>
<speed>0.000000</speed>
</trkpt>
<trkpt lat="55.837040" lon="26.047384">
<ele>157.060669</ele>
<time>2010-07-17T15:30:47Z</time>
<desc>lat.=55.837040, lon.=26.047384, Alt.=157.060669m. Speed=0.072000m/h.</desc>
<speed>0.020000</speed>
</trkpt>
<trkpt lat="55.837040" lon="26.047384">
<ele>157.068481</ele>
<time>2010-07-17T15:30:48Z</time>
<desc>lat.=55.837040, lon.=26.047384, Alt.=157.068481m. Speed=0.072000m/h.</desc>
<speed>0.020000</speed>
</trkpt>
<trkpt lat="55.837040" lon="26.047384">
<ele>157.072388</ele>
<time>2010-07-17T15:30:49Z</time>
<desc>lat.=55.837040, lon.=26.047384, Alt.=157.072388m. Speed=0.000000m/h.</desc>
<speed>0.000000</speed>
</trkpt>
<trkpt lat="55.837040" lon="26.047384">
<ele>157.068481</ele>
<time>2010-07-17T15:30:50Z</time>
<desc>lat.=55.837040, lon.=26.047384, Alt.=157.068481m. Speed=0.072000m/h.</desc>
<speed>0.020000</speed>
</trkpt>
<trkpt lat="55.837040" lon="26.047384">
<ele>157.068481</ele>
<time>2010-07-17T15:30:51Z</time>
<desc>lat.=55.837040, lon.=26.047384, Alt.=157.068481m. Speed=0.036000m/h.</desc>
<speed>0.010000</speed>
</trkpt>
<trkpt lat="55.837040" lon="26.047384">
<ele>157.080200</ele>
<time>2010-07-17T15:30:52Z</time>
<desc>lat.=55.837040, lon.=26.047384, Alt.=157.080200m. Speed=0.072000m/h.</desc>
<speed>0.020000</speed>
</trkpt>
<trkpt lat="55.837040" lon="26.047384">
<ele>157.084106</ele>
<time>2010-07-17T15:30:53Z</time>
<desc>lat.=55.837040, lon.=26.047384, Alt.=157.084106m. Speed=0.000000m/h.</desc>
<speed>0.000000</speed>
</trkpt>
<trkpt lat="55.837040" lon="26.047384">
<ele>157.099731</ele>
<time>2010-07-17T15:30:54Z</time>
<desc>lat.=55.837040, lon.=26.047384, Alt.=157.099731m. Speed=0.072000m/h.</desc>
<speed>0.020000</speed>
</trkpt>
<trkpt lat="55.837040" lon="26.047384">
<ele>157.107544</ele>
<time>2010-07-17T15:30:55Z</time>
<desc>lat.=55.837040, lon.=26.047384, Alt.=157.107544m. Speed=0.036000m/h.</desc>
<speed>0.010000</speed>
</trkpt>
<trkpt lat="55.837040" lon="26.047382">
<ele>157.123169</ele>
<time>2010-07-17T15:30:56Z</time>
<desc>lat.=55.837040, lon.=26.047382, Alt.=157.123169m. Speed=0.000000m/h.</desc>
<speed>0.000000</speed>
</trkpt>
<trkpt lat="55.837040" lon="26.047382">
<ele>157.123169</ele>
<time>2010-07-17T15:30:57Z</time>
<desc>lat.=55.837040, lon.=26.047382, Alt.=157.123169m. Speed=0.108000m/h.</desc>
<speed>0.030000</speed>
</trkpt>
<trkpt lat="55.837040" lon="26.047382">
<ele>157.123169</ele>
<time>2010-07-17T15:30:58Z</time>
<desc>lat.=55.837040, lon.=26.047382, Alt.=157.123169m. Speed=0.036000m/h.</desc>
<speed>0.010000</speed>
</trkpt>
<trkpt lat="55.837040" lon="26.047382">
<ele>157.123169</ele>
<time>2010-07-17T15:30:59Z</time>
<desc>lat.=55.837040, lon.=26.047382, Alt.=157.123169m. Speed=0.036000m/h.</desc>
<speed>0.010000</speed>
</trkpt>
<trkpt lat="55.837040" lon="26.047382">
<ele>157.134888</ele>
<time>2010-07-17T15:31:00Z</time>
<desc>lat.=55.837040, lon.=26.047382, Alt.=157.134888m. Speed=0.036000m/h.</desc>
<speed>0.010000</speed>
</trkpt>
<trkpt lat="55.837040" lon="26.047382">
<ele>157.150513</ele>
<time>2010-07-17T15:31:01Z</time>
<desc>lat.=55.837040, lon.=26.047382, Alt.=157.150513m. Speed=0.036000m/h.</desc>
<speed>0.010000</speed>
</trkpt>
<trkpt lat="55.837040" lon="26.047382">
<ele>157.166138</ele>
<time>2010-07-17T15:31:02Z</time>
<desc>lat.=55.837040, lon.=26.047382, Alt.=157.166138m. Speed=0.000000m/h.</desc>
<speed>0.000000</speed>
</trkpt>
<trkpt lat="55.837040" lon="26.047382">
<ele>157.170044</ele>
<time>2010-07-17T15:31:03Z</time>
<desc>lat.=55.837040, lon.=26.047382, Alt.=157.170044m. Speed=0.072000m/h.</desc>
<speed>0.020000</speed>
</trkpt>
<trkpt lat="55.837040" lon="26.047382">
<ele>157.170044</ele>
<time>2010-07-17T15:31:04Z</time>
<desc>lat.=55.837040, lon.=26.047382, Alt.=157.170044m. Speed=0.000000m/h.</desc>
<speed>0.000000</speed>
</trkpt>
<trkpt lat="55.837040" lon="26.047382">
<ele>157.170044</ele>
<time>2010-07-17T15:31:05Z</time>
<desc>lat.=55.837040, lon.=26.047382, Alt.=157.170044m. Speed=0.000000m/h.</desc>
<speed>0.000000</speed>
</trkpt>
<trkpt lat="55.837040" lon="26.047382">
<ele>157.173950</ele>
<time>2010-07-17T15:31:06Z</time>
<desc>lat.=55.837040, lon.=26.047382, Alt.=157.173950m. Speed=0.036000m/h.</desc>
<speed>0.010000</speed>
</trkpt>
<trkpt lat="55.837040" lon="26.047382">
<ele>157.177856</ele>
<time>2010-07-17T15:31:07Z</time>
<desc>lat.=55.837040, lon.=26.047382, Alt.=157.177856m. Speed=0.036000m/h.</desc>
<speed>0.010000</speed>
</trkpt>
<trkpt lat="55.837040" lon="26.047382">
<ele>157.177856</ele>
<time>2010-07-17T15:31:08Z</time>
<desc>lat.=55.837040, lon.=26.047382, Alt.=157.177856m. Speed=0.072000m/h.</desc>
<speed>0.020000</speed>
</trkpt>
<trkpt lat="55.837040" lon="26.047382">
<ele>157.181763</ele>
<time>2010-07-17T15:31:09Z</time>
<desc>lat.=55.837040, lon.=26.047382, Alt.=157.181763m. Speed=0.000000m/h.</desc>
<speed>0.000000</speed>
</trkpt>
<trkpt lat="55.837040" lon="26.047382">
<ele>157.177856</ele>
<time>2010-07-17T15:31:10Z</time>
<desc>lat.=55.837040, lon.=26.047382, Alt.=157.177856m. Speed=0.036000m/h.</desc>
<speed>0.010000</speed>
</trkpt>
<trkpt lat="55.837040" lon="26.047382">
<ele>157.173950</ele>
<time>2010-07-17T15:31:11Z</time>
<desc>lat.=55.837040, lon.=26.047382, Alt.=157.173950m. Speed=0.144000m/h.</desc>
<speed>0.040000</speed>
</trkpt>
<trkpt lat="55.837040" lon="26.047382">
<ele>157.173950</ele>
<time>2010-07-17T15:31:12Z</time>
<desc>lat.=55.837040, lon.=26.047382, Alt.=157.173950m. Speed=0.072000m/h.</desc>
<speed>0.020000</speed>
</trkpt>
<trkpt lat="55.837040" lon="26.047382">
<ele>157.173950</ele>
<time>2010-07-17T15:31:13Z</time>
<desc>lat.=55.837040, lon.=26.047382, Alt.=157.173950m. Speed=0.036000m/h.</desc>
<speed>0.010000</speed>
</trkpt>
<trkpt lat="55.837040" lon="26.047382">
<ele>157.170044</ele>
<time>2010-07-17T15:31:14Z</time>
<desc>lat.=55.837040, lon.=26.047382, Alt.=157.170044m. Speed=0.036000m/h.</desc>
<speed>0.010000</speed>
</trkpt>
<trkpt lat="55.837040" lon="26.047382">
<ele>157.173950</ele>
<time>2010-07-17T15:31:15Z</time>
<desc>lat.=55.837040, lon.=26.047382, Alt.=157.173950m. Speed=0.036000m/h.</desc>
<speed>0.010000</speed>
</trkpt>
<trkpt lat="55.837040" lon="26.047382">
<ele>157.173950</ele>
<time>2010-07-17T15:31:16Z</time>
<desc>lat.=55.837040, lon.=26.047382, Alt.=157.173950m. Speed=0.036000m/h.</desc>
<speed>0.010000</speed>
</trkpt>
<trkpt lat="55.837040" lon="26.047382">
<ele>157.177856</ele>
<time>2010-07-17T15:31:17Z</time>
<desc>lat.=55.837040, lon.=26.047382, Alt.=157.177856m. Speed=0.036000m/h.</desc>
<speed>0.010000</speed>
</trkpt>
<trkpt lat="55.837040" lon="26.047382">
<ele>157.177856</ele>
<time>2010-07-17T15:31:18Z</time>
<desc>lat.=55.837040, lon.=26.047382, Alt.=157.177856m. Speed=0.036000m/h.</desc>
<speed>0.010000</speed>
</trkpt>
<trkpt lat="55.837040" lon="26.047382">
<ele>157.181763</ele>
<time>2010-07-17T15:31:19Z</time>
<desc>lat.=55.837040, lon.=26.047382, Alt.=157.181763m. Speed=0.000000m/h.</desc>
<speed>0.000000</speed>
</trkpt>
<trkpt lat="55.837040" lon="26.047382">
<ele>157.181763</ele>
<time>2010-07-17T15:31:20Z</time>
<desc>lat.=55.837040, lon.=26.047382, Alt.=157.181763m. Speed=0.036000m/h.</desc>
<speed>0.010000</speed>
</trkpt>
<trkpt lat="55.837040" lon="26.047382">
<ele>157.185669</ele>
<time>2010-07-17T15:31:21Z</time>
<desc>lat.=55.837040, lon.=26.047382, Alt.=157.185669m. Speed=0.108000m/h.</desc>
<speed>0.030000</speed>
</trkpt>
<trkpt lat="55.837040" lon="26.047382">
<ele>157.185669</ele>
<time>2010-07-17T15:31:22Z</time>
<desc>lat.=55.837040, lon.=26.047382, Alt.=157.185669m. Speed=0.072000m/h.</desc>
<speed>0.020000</speed>
</trkpt>
<trkpt lat="55.837040" lon="26.047382">
<ele>157.185669</ele>
<time>2010-07-17T15:31:23Z</time>
<desc>lat.=55.837040, lon.=26.047382, Alt.=157.185669m. Speed=0.180000m/h.</desc>
<speed>0.050000</speed>
</trkpt>
<trkpt lat="55.837040" lon="26.047382">
<ele>157.189575</ele>
<time>2010-07-17T15:31:24Z</time>
<desc>lat.=55.837040, lon.=26.047382, Alt.=157.189575m. Speed=0.036000m/h.</desc>
<speed>0.010000</speed>
</trkpt>
<trkpt lat="55.837040" lon="26.047382">
<ele>157.189575</ele>
<time>2010-07-17T15:31:25Z</time>
<desc>lat.=55.837040, lon.=26.047382, Alt.=157.189575m. Speed=0.072000m/h.</desc>
<speed>0.020000</speed>
</trkpt>
<trkpt lat="55.837040" lon="26.047380">
<ele>157.189575</ele>
<time>2010-07-17T15:31:26Z</time>
<desc>lat.=55.837040, lon.=26.047380, Alt.=157.189575m. Speed=0.108000m/h.</desc>
<speed>0.030000</speed>
</trkpt>
<trkpt lat="55.837040" lon="26.047380">
<ele>157.189575</ele>
<time>2010-07-17T15:31:27Z</time>
<desc>lat.=55.837040, lon.=26.047380, Alt.=157.189575m. Speed=0.108000m/h.</desc>
<speed>0.030000</speed>
</trkpt>
<trkpt lat="55.837040" lon="26.047380">
<ele>157.185669</ele>
<time>2010-07-17T15:31:28Z</time>
<desc>lat.=55.837040, lon.=26.047380, Alt.=157.185669m. Speed=0.036000m/h.</desc>
<speed>0.010000</speed>
</trkpt>
<trkpt lat="55.837040" lon="26.047380">
<ele>157.185669</ele>
<time>2010-07-17T15:31:29Z</time>
<desc>lat.=55.837040, lon.=26.047380, Alt.=157.185669m. Speed=0.072000m/h.</desc>
<speed>0.020000</speed>
</trkpt>
<trkpt lat="55.837040" lon="26.047380">
<ele>157.185669</ele>
<time>2010-07-17T15:31:30Z</time>
<desc>lat.=55.837040, lon.=26.047380, Alt.=157.185669m. Speed=0.000000m/h.</desc>
<speed>0.000000</speed>
</trkpt>
<trkpt lat="55.837040" lon="26.047380">
<ele>157.181763</ele>
<time>2010-07-17T15:31:31Z</time>
<desc>lat.=55.837040, lon.=26.047380, Alt.=157.181763m. Speed=0.036000m/h.</desc>
<speed>0.010000</speed>
</trkpt>
<trkpt lat="55.837040" lon="26.047380">
<ele>157.173950</ele>
<time>2010-07-17T15:31:32Z</time>
<desc>lat.=55.837040, lon.=26.047380, Alt.=157.173950m. Speed=0.036000m/h.</desc>
<speed>0.010000</speed>
</trkpt>
<trkpt lat="55.837040" lon="26.047380">
<ele>157.166138</ele>
<time>2010-07-17T15:31:33Z</time>
<desc>lat.=55.837040, lon.=26.047380, Alt.=157.166138m. Speed=0.036000m/h.</desc>
<speed>0.010000</speed>
</trkpt>
<trkpt lat="55.837040" lon="26.047380">
<ele>157.158325</ele>
<time>2010-07-17T15:31:34Z</time>
<desc>lat.=55.837040, lon.=26.047380, Alt.=157.158325m. Speed=0.000000m/h.</desc>
<speed>0.000000</speed>
</trkpt>
<trkpt lat="55.837040" lon="26.047380">
<ele>157.150513</ele>
<time>2010-07-17T15:31:35Z</time>
<desc>lat.=55.837040, lon.=26.047380, Alt.=157.150513m. Speed=0.036000m/h.</desc>
<speed>0.010000</speed>
</trkpt>
<trkpt lat="55.837040" lon="26.047380">
<ele>157.150513</ele>
<time>2010-07-17T15:31:36Z</time>
<desc>lat.=55.837040, lon.=26.047380, Alt.=157.150513m. Speed=0.000000m/h.</desc>
<speed>0.000000</speed>
</trkpt>
<trkpt lat="55.837040" lon="26.047380">
<ele>157.150513</ele>
<time>2010-07-17T15:31:37Z</time>
<desc>lat.=55.837040, lon.=26.047380, Alt.=157.150513m. Speed=0.000000m/h.</desc>
<speed>0.000000</speed>
</trkpt>
<trkpt lat="55.837040" lon="26.047380">
<ele>157.150513</ele>
<time>2010-07-17T15:31:38Z</time>
<desc>lat.=55.837040, lon.=26.047380, Alt.=157.150513m. Speed=0.036000m/h.</desc>
<speed>0.010000</speed>
</trkpt>
<trkpt lat="55.837040" lon="26.047380">
<ele>157.154419</ele>
<time>2010-07-17T15:31:39Z</time>
<desc>lat.=55.837040, lon.=26.047380, Alt.=157.154419m. Speed=0.000000m/h.</desc>
<speed>0.000000</speed>
</trkpt>
<trkpt lat="55.837040" lon="26.047380">
<ele>157.150513</ele>
<time>2010-07-17T15:31:40Z</time>
<desc>lat.=55.837040, lon.=26.047380, Alt.=157.150513m. Speed=0.000000m/h.</desc>
<speed>0.000000</speed>
</trkpt>
<trkpt lat="55.837040" lon="26.047380">
<ele>157.146606</ele>
<time>2010-07-17T15:31:41Z</time>
<desc>lat.=55.837040, lon.=26.047380, Alt.=157.146606m. Speed=0.000000m/h.</desc>
<speed>0.000000</speed>
</trkpt>
<trkpt lat="55.837040" lon="26.047380">
<ele>157.146606</ele>
<time>2010-07-17T15:31:42Z</time>
<desc>lat.=55.837040, lon.=26.047380, Alt.=157.146606m. Speed=0.000000m/h.</desc>
<speed>0.000000</speed>
</trkpt>
<trkpt lat="55.837040" lon="26.047380">
<ele>157.146606</ele>
<time>2010-07-17T15:31:43Z</time>
<desc>lat.=55.837040, lon.=26.047380, Alt.=157.146606m. Speed=0.036000m/h.</desc>
<speed>0.010000</speed>
</trkpt>
<trkpt lat="55.837040" lon="26.047380">
<ele>157.150513</ele>
<time>2010-07-17T15:31:44Z</time>
<desc>lat.=55.837040, lon.=26.047380, Alt.=157.150513m. Speed=0.036000m/h.</desc>
<speed>0.010000</speed>
</trkpt>
<trkpt lat="55.837040" lon="26.047380">
<ele>157.158325</ele>
<time>2010-07-17T15:31:45Z</time>
<desc>lat.=55.837040, lon.=26.047380, Alt.=157.158325m. Speed=0.036000m/h.</desc>
<speed>0.010000</speed>
</trkpt>
<trkpt lat="55.837040" lon="26.047380">
<ele>157.162231</ele>
<time>2010-07-17T15:31:46Z</time>
<desc>lat.=55.837040, lon.=26.047380, Alt.=157.162231m. Speed=0.036000m/h.</desc>
<speed>0.010000</speed>
</trkpt>
<trkpt lat="55.837040" lon="26.047380">
<ele>157.166138</ele>
<time>2010-07-17T15:31:47Z</time>
<desc>lat.=55.837040, lon.=26.047380, Alt.=157.166138m. Speed=0.072000m/h.</desc>
<speed>0.020000</speed>
</trkpt>
<trkpt lat="55.837040" lon="26.047380">
<ele>157.177856</ele>
<time>2010-07-17T15:31:48Z</time>
<desc>lat.=55.837040, lon.=26.047380, Alt.=157.177856m. Speed=0.072000m/h.</desc>
<speed>0.020000</speed>
</trkpt>
<trkpt lat="55.837040" lon="26.047380">
<ele>157.173950</ele>
<time>2010-07-17T15:31:49Z</time>
<desc>lat.=55.837040, lon.=26.047380, Alt.=157.173950m. Speed=0.072000m/h.</desc>
<speed>0.020000</speed>
</trkpt>
<trkpt lat="55.837040" lon="26.047380">
<ele>157.193481</ele>
<time>2010-07-17T15:31:50Z</time>
<desc>lat.=55.837040, lon.=26.047380, Alt.=157.193481m. Speed=0.036000m/h.</desc>
<speed>0.010000</speed>
</trkpt>
<trkpt lat="55.837040" lon="26.047380">
<ele>157.213013</ele>
<time>2010-07-17T15:31:51Z</time>
<desc>lat.=55.837040, lon.=26.047380, Alt.=157.213013m. Speed=0.036000m/h.</desc>
<speed>0.010000</speed>
</trkpt>
<trkpt lat="55.837040" lon="26.047380">
<ele>157.228638</ele>
<time>2010-07-17T15:31:52Z</time>
<desc>lat.=55.837040, lon.=26.047380, Alt.=157.228638m. Speed=0.036000m/h.</desc>
<speed>0.010000</speed>
</trkpt>
<trkpt lat="55.837040" lon="26.047380">
<ele>157.244263</ele>
<time>2010-07-17T15:31:53Z</time>
<desc>lat.=55.837040, lon.=26.047380, Alt.=157.244263m. Speed=0.036000m/h.</desc>
<speed>0.010000</speed>
</trkpt>
<trkpt lat="55.837040" lon="26.047380">
<ele>157.259888</ele>
<time>2010-07-17T15:31:54Z</time>
<desc>lat.=55.837040, lon.=26.047380, Alt.=157.259888m. Speed=0.072000m/h.</desc>
<speed>0.020000</speed>
</trkpt>
<trkpt lat="55.837040" lon="26.047379">
<ele>157.283325</ele>
<time>2010-07-17T15:31:55Z</time>
<desc>lat.=55.837040, lon.=26.047379, Alt.=157.283325m. Speed=0.036000m/h.</desc>
<speed>0.010000</speed>
</trkpt>
<trkpt lat="55.837040" lon="26.047379">
<ele>157.298950</ele>
<time>2010-07-17T15:31:56Z</time>
<desc>lat.=55.837040, lon.=26.047379, Alt.=157.298950m. Speed=0.072000m/h.</desc>
<speed>0.020000</speed>
</trkpt>
<trkpt lat="55.837040" lon="26.047379">
<ele>157.310669</ele>
<time>2010-07-17T15:31:57Z</time>
<desc>lat.=55.837040, lon.=26.047379, Alt.=157.310669m. Speed=0.036000m/h.</desc>
<speed>0.010000</speed>
</trkpt>
<trkpt lat="55.837040" lon="26.047379">
<ele>157.322388</ele>
<time>2010-07-17T15:31:58Z</time>
<desc>lat.=55.837040, lon.=26.047379, Alt.=157.322388m. Speed=0.108000m/h.</desc>
<speed>0.030000</speed>
</trkpt>
<trkpt lat="55.837040" lon="26.047379">
<ele>157.330200</ele>
<time>2010-07-17T15:31:59Z</time>
<desc>lat.=55.837040, lon.=26.047379, Alt.=157.330200m. Speed=0.000000m/h.</desc>
<speed>0.000000</speed>
</trkpt>
<trkpt lat="55.837040" lon="26.047379">
<ele>157.338013</ele>
<time>2010-07-17T15:32:00Z</time>
<desc>lat.=55.837040, lon.=26.047379, Alt.=157.338013m. Speed=0.000000m/h.</desc>
<speed>0.000000</speed>
</trkpt>
<trkpt lat="55.837040" lon="26.047379">
<ele>157.341919</ele>
<time>2010-07-17T15:32:01Z</time>
<desc>lat.=55.837040, lon.=26.047379, Alt.=157.341919m. Speed=0.108000m/h.</desc>
<speed>0.030000</speed>
</trkpt>
<trkpt lat="55.837040" lon="26.047379">
<ele>157.345825</ele>
<time>2010-07-17T15:32:02Z</time>
<desc>lat.=55.837040, lon.=26.047379, Alt.=157.345825m. Speed=0.036000m/h.</desc>
<speed>0.010000</speed>
</trkpt>
<trkpt lat="55.837040" lon="26.047379">
<ele>157.353638</ele>
<time>2010-07-17T15:32:03Z</time>
<desc>lat.=55.837040, lon.=26.047379, Alt.=157.353638m. Speed=0.072000m/h.</desc>
<speed>0.020000</speed>
</trkpt>
<trkpt lat="55.837040" lon="26.047379">
<ele>157.361450</ele>
<time>2010-07-17T15:32:04Z</time>
<desc>lat.=55.837040, lon.=26.047379, Alt.=157.361450m. Speed=0.036000m/h.</desc>
<speed>0.010000</speed>
</trkpt>
<trkpt lat="55.837040" lon="26.047379">
<ele>157.365356</ele>
<time>2010-07-17T15:32:05Z</time>
<desc>lat.=55.837040, lon.=26.047379, Alt.=157.365356m. Speed=0.036000m/h.</desc>
<speed>0.010000</speed>
</trkpt>
<trkpt lat="55.837040" lon="26.047379">
<ele>157.361450</ele>
<time>2010-07-17T15:32:06Z</time>
<desc>lat.=55.837040, lon.=26.047379, Alt.=157.361450m. Speed=0.000000m/h.</desc>
<speed>0.000000</speed>
</trkpt>
<trkpt lat="55.837040" lon="26.047379">
<ele>157.365356</ele>
<time>2010-07-17T15:32:07Z</time>
<desc>lat.=55.837040, lon.=26.047379, Alt.=157.365356m. Speed=0.072000m/h.</desc>
<speed>0.020000</speed>
</trkpt>
<trkpt lat="55.837040" lon="26.047379">
<ele>157.365356</ele>
<time>2010-07-17T15:32:08Z</time>
<desc>lat.=55.837040, lon.=26.047379, Alt.=157.365356m. Speed=0.072000m/h.</desc>
<speed>0.020000</speed>
</trkpt>
<trkpt lat="55.837040" lon="26.047379">
<ele>157.361450</ele>
<time>2010-07-17T15:32:09Z</time>
<desc>lat.=55.837040, lon.=26.047379, Alt.=157.361450m. Speed=0.000000m/h.</desc>
<speed>0.000000</speed>
</trkpt>
<trkpt lat="55.837040" lon="26.047379">
<ele>157.361450</ele>
<time>2010-07-17T15:32:10Z</time>
<desc>lat.=55.837040, lon.=26.047379, Alt.=157.361450m. Speed=0.000000m/h.</desc>
<speed>0.000000</speed>
</trkpt>
<trkpt lat="55.837040" lon="26.047379">
<ele>157.361450</ele>
<time>2010-07-17T15:32:11Z</time>
<desc>lat.=55.837040, lon.=26.047379, Alt.=157.361450m. Speed=0.000000m/h.</desc>
<speed>0.000000</speed>
</trkpt>
<trkpt lat="55.837040" lon="26.047379">
<ele>157.365356</ele>
<time>2010-07-17T15:32:12Z</time>
<desc>lat.=55.837040, lon.=26.047379, Alt.=157.365356m. Speed=0.072000m/h.</desc>
<speed>0.020000</speed>
</trkpt>
<trkpt lat="55.837040" lon="26.047379">
<ele>157.369263</ele>
<time>2010-07-17T15:32:13Z</time>
<desc>lat.=55.837040, lon.=26.047379, Alt.=157.369263m. Speed=0.072000m/h.</desc>
<speed>0.020000</speed>
</trkpt>
<trkpt lat="55.837040" lon="26.047379">
<ele>157.369263</ele>
<time>2010-07-17T15:32:14Z</time>
<desc>lat.=55.837040, lon.=26.047379, Alt.=157.369263m. Speed=0.072000m/h.</desc>
<speed>0.020000</speed>
</trkpt>
<trkpt lat="55.837040" lon="26.047379">
<ele>157.365356</ele>
<time>2010-07-17T15:32:15Z</time>
<desc>lat.=55.837040, lon.=26.047379, Alt.=157.365356m. Speed=0.000000m/h.</desc>
<speed>0.000000</speed>
</trkpt>
<trkpt lat="55.837040" lon="26.047379">
<ele>157.361450</ele>
<time>2010-07-17T15:32:16Z</time>
<desc>lat.=55.837040, lon.=26.047379, Alt.=157.361450m. Speed=0.072000m/h.</desc>
<speed>0.020000</speed>
</trkpt>
<trkpt lat="55.837040" lon="26.047379">
<ele>157.357544</ele>
<time>2010-07-17T15:32:17Z</time>
<desc>lat.=55.837040, lon.=26.047379, Alt.=157.357544m. Speed=0.000000m/h.</desc>
<speed>0.000000</speed>
</trkpt>
<trkpt lat="55.837040" lon="26.047379">
<ele>157.349731</ele>
<time>2010-07-17T15:32:18Z</time>
<desc>lat.=55.837040, lon.=26.047379, Alt.=157.349731m. Speed=0.072000m/h.</desc>
<speed>0.020000</speed>
</trkpt>
<trkpt lat="55.837040" lon="26.047379">
<ele>157.341919</ele>
<time>2010-07-17T15:32:19Z</time>
<desc>lat.=55.837040, lon.=26.047379, Alt.=157.341919m. Speed=0.036000m/h.</desc>
<speed>0.010000</speed>
</trkpt>
<trkpt lat="55.837040" lon="26.047379">
<ele>157.338013</ele>
<time>2010-07-17T15:32:20Z</time>
<desc>lat.=55.837040, lon.=26.047379, Alt.=157.338013m. Speed=0.036000m/h.</desc>
<speed>0.010000</speed>
</trkpt>
<trkpt lat="55.837040" lon="26.047379">
<ele>157.334106</ele>
<time>2010-07-17T15:32:21Z</time>
<desc>lat.=55.837040, lon.=26.047379, Alt.=157.334106m. Speed=0.000000m/h.</desc>
<speed>0.000000</speed>
</trkpt>
<trkpt lat="55.837040" lon="26.047379">
<ele>157.334106</ele>
<time>2010-07-17T15:32:22Z</time>
<desc>lat.=55.837040, lon.=26.047379, Alt.=157.334106m. Speed=0.000000m/h.</desc>
<speed>0.000000</speed>
</trkpt>
<trkpt lat="55.837040" lon="26.047379">
<ele>157.330200</ele>
<time>2010-07-17T15:32:23Z</time>
<desc>lat.=55.837040, lon.=26.047379, Alt.=157.330200m. Speed=0.036000m/h.</desc>
<speed>0.010000</speed>
</trkpt>
<trkpt lat="55.837040" lon="26.047379">
<ele>157.326294</ele>
<time>2010-07-17T15:32:24Z</time>
<desc>lat.=55.837040, lon.=26.047379, Alt.=157.326294m. Speed=0.036000m/h.</desc>
<speed>0.010000</speed>
</trkpt>
<trkpt lat="55.837040" lon="26.047379">
<ele>157.326294</ele>
<time>2010-07-17T15:32:25Z</time>
<desc>lat.=55.837040, lon.=26.047379, Alt.=157.326294m. Speed=0.036000m/h.</desc>
<speed>0.010000</speed>
</trkpt>
<trkpt lat="55.837040" lon="26.047379">
<ele>157.326294</ele>
<time>2010-07-17T15:32:26Z</time>
<desc>lat.=55.837040, lon.=26.047379, Alt.=157.326294m. Speed=0.072000m/h.</desc>
<speed>0.020000</speed>
</trkpt>
<trkpt lat="55.837040" lon="26.047379">
<ele>157.322388</ele>
<time>2010-07-17T15:32:27Z</time>
<desc>lat.=55.837040, lon.=26.047379, Alt.=157.322388m. Speed=0.000000m/h.</desc>
<speed>0.000000</speed>
</trkpt>
<trkpt lat="55.837040" lon="26.047379">
<ele>157.322388</ele>
<time>2010-07-17T15:32:28Z</time>
<desc>lat.=55.837040, lon.=26.047379, Alt.=157.322388m. Speed=0.000000m/h.</desc>
<speed>0.000000</speed>
</trkpt>
<trkpt lat="55.837040" lon="26.047379">
<ele>157.326294</ele>
<time>2010-07-17T15:32:29Z</time>
<desc>lat.=55.837040, lon.=26.047379, Alt.=157.326294m. Speed=0.000000m/h.</desc>
<speed>0.000000</speed>
</trkpt>
<trkpt lat="55.837040" lon="26.047379">
<ele>157.326294</ele>
<time>2010-07-17T15:32:30Z</time>
<desc>lat.=55.837040, lon.=26.047379, Alt.=157.326294m. Speed=0.036000m/h.</desc>
<speed>0.010000</speed>
</trkpt>
<trkpt lat="55.837040" lon="26.047379">
<ele>157.326294</ele>
<time>2010-07-17T15:32:31Z</time>
<desc>lat.=55.837040, lon.=26.047379, Alt.=157.326294m. Speed=0.036000m/h.</desc>
<speed>0.010000</speed>
</trkpt>
<trkpt lat="55.837040" lon="26.047379">
<ele>157.318481</ele>
<time>2010-07-17T15:32:32Z</time>
<desc>lat.=55.837040, lon.=26.047379, Alt.=157.318481m. Speed=0.000000m/h.</desc>
<speed>0.000000</speed>
</trkpt>
<trkpt lat="55.837040" lon="26.047379">
<ele>157.314575</ele>
<time>2010-07-17T15:32:33Z</time>
<desc>lat.=55.837040, lon.=26.047379, Alt.=157.314575m. Speed=0.036000m/h.</desc>
<speed>0.010000</speed>
</trkpt>
<trkpt lat="55.837040" lon="26.047379">
<ele>157.310669</ele>
<time>2010-07-17T15:32:34Z</time>
<desc>lat.=55.837040, lon.=26.047379, Alt.=157.310669m. Speed=0.000000m/h.</desc>
<speed>0.000000</speed>
</trkpt>
<trkpt lat="55.837040" lon="26.047379">
<ele>157.306763</ele>
<time>2010-07-17T15:32:35Z</time>
<desc>lat.=55.837040, lon.=26.047379, Alt.=157.306763m. Speed=0.072000m/h.</desc>
<speed>0.020000</speed>
</trkpt>
<trkpt lat="55.837040" lon="26.047379">
<ele>157.298950</ele>
<time>2010-07-17T15:32:36Z</time>
<desc>lat.=55.837040, lon.=26.047379, Alt.=157.298950m. Speed=0.180000m/h.</desc>
<speed>0.050000</speed>
</trkpt>
<trkpt lat="55.837040" lon="26.047379">
<ele>157.298950</ele>
<time>2010-07-17T15:32:37Z</time>
<desc>lat.=55.837040, lon.=26.047379, Alt.=157.298950m. Speed=0.108000m/h.</desc>
<speed>0.030000</speed>
</trkpt>
<trkpt lat="55.837040" lon="26.047379">
<ele>157.295044</ele>
<time>2010-07-17T15:32:38Z</time>
<desc>lat.=55.837040, lon.=26.047379, Alt.=157.295044m. Speed=0.108000m/h.</desc>
<speed>0.030000</speed>
</trkpt>
<trkpt lat="55.837040" lon="26.047379">
<ele>157.291138</ele>
<time>2010-07-17T15:32:39Z</time>
<desc>lat.=55.837040, lon.=26.047379, Alt.=157.291138m. Speed=0.072000m/h.</desc>
<speed>0.020000</speed>
</trkpt>
<trkpt lat="55.837040" lon="26.047377">
<ele>157.287231</ele>
<time>2010-07-17T15:32:40Z</time>
<desc>lat.=55.837040, lon.=26.047377, Alt.=157.287231m. Speed=0.072000m/h.</desc>
<speed>0.020000</speed>
</trkpt>
<trkpt lat="55.837040" lon="26.047377">
<ele>157.291138</ele>
<time>2010-07-17T15:32:41Z</time>
<desc>lat.=55.837040, lon.=26.047377, Alt.=157.291138m. Speed=0.072000m/h.</desc>
<speed>0.020000</speed>
</trkpt>
<trkpt lat="55.837040" lon="26.047377">
<ele>157.287231</ele>
<time>2010-07-17T15:32:42Z</time>
<desc>lat.=55.837040, lon.=26.047377, Alt.=157.287231m. Speed=0.000000m/h.</desc>
<speed>0.000000</speed>
</trkpt>
<trkpt lat="55.837040" lon="26.047377">
<ele>157.287231</ele>
<time>2010-07-17T15:32:43Z</time>
<desc>lat.=55.837040, lon.=26.047377, Alt.=157.287231m. Speed=0.000000m/h.</desc>
<speed>0.000000</speed>
</trkpt>
<trkpt lat="55.837040" lon="26.047377">
<ele>157.287231</ele>
<time>2010-07-17T15:32:44Z</time>
<desc>lat.=55.837040, lon.=26.047377, Alt.=157.287231m. Speed=0.108000m/h.</desc>
<speed>0.030000</speed>
</trkpt>
<trkpt lat="55.837040" lon="26.047377">
<ele>157.283325</ele>
<time>2010-07-17T15:32:45Z</time>
<desc>lat.=55.837040, lon.=26.047377, Alt.=157.283325m. Speed=0.036000m/h.</desc>
<speed>0.010000</speed>
</trkpt>
<trkpt lat="55.837040" lon="26.047377">
<ele>157.279419</ele>
<time>2010-07-17T15:32:46Z</time>
<desc>lat.=55.837040, lon.=26.047377, Alt.=157.279419m. Speed=0.072000m/h.</desc>
<speed>0.020000</speed>
</trkpt>
<trkpt lat="55.837040" lon="26.047377">
<ele>157.275513</ele>
<time>2010-07-17T15:32:47Z</time>
<desc>lat.=55.837040, lon.=26.047377, Alt.=157.275513m. Speed=0.000000m/h.</desc>
<speed>0.000000</speed>
</trkpt>
<trkpt lat="55.837040" lon="26.047377">
<ele>157.275513</ele>
<time>2010-07-17T15:32:48Z</time>
<desc>lat.=55.837040, lon.=26.047377, Alt.=157.275513m. Speed=0.072000m/h.</desc>
<speed>0.020000</speed>
</trkpt>
<trkpt lat="55.837040" lon="26.047377">
<ele>157.275513</ele>
<time>2010-07-17T15:32:49Z</time>
<desc>lat.=55.837040, lon.=26.047377, Alt.=157.275513m. Speed=0.036000m/h.</desc>
<speed>0.010000</speed>
</trkpt>
<trkpt lat="55.837040" lon="26.047377">
<ele>157.271606</ele>
<time>2010-07-17T15:32:50Z</time>
<desc>lat.=55.837040, lon.=26.047377, Alt.=157.271606m. Speed=0.072000m/h.</desc>
<speed>0.020000</speed>
</trkpt>
<trkpt lat="55.837040" lon="26.047377">
<ele>157.263794</ele>
<time>2010-07-17T15:32:51Z</time>
<desc>lat.=55.837040, lon.=26.047377, Alt.=157.263794m. Speed=0.000000m/h.</desc>
<speed>0.000000</speed>
</trkpt>
<trkpt lat="55.837040" lon="26.047377">
<ele>157.259888</ele>
<time>2010-07-17T15:32:52Z</time>
<desc>lat.=55.837040, lon.=26.047377, Alt.=157.259888m. Speed=0.072000m/h.</desc>
<speed>0.020000</speed>
</trkpt>
<trkpt lat="55.837040" lon="26.047377">
<ele>157.252075</ele>
<time>2010-07-17T15:32:53Z</time>
<desc>lat.=55.837040, lon.=26.047377, Alt.=157.252075m. Speed=0.072000m/h.</desc>
<speed>0.020000</speed>
</trkpt>
<trkpt lat="55.837040" lon="26.047377">
<ele>157.248169</ele>
<time>2010-07-17T15:32:54Z</time>
<desc>lat.=55.837040, lon.=26.047377, Alt.=157.248169m. Speed=0.036000m/h.</desc>
<speed>0.010000</speed>
</trkpt>
<trkpt lat="55.837040" lon="26.047377">
<ele>157.248169</ele>
<time>2010-07-17T15:32:55Z</time>
<desc>lat.=55.837040, lon.=26.047377, Alt.=157.248169m. Speed=0.036000m/h.</desc>
<speed>0.010000</speed>
</trkpt>
<trkpt lat="55.837040" lon="26.047377">
<ele>157.244263</ele>
<time>2010-07-17T15:32:56Z</time>
<desc>lat.=55.837040, lon.=26.047377, Alt.=157.244263m. Speed=0.036000m/h.</desc>
<speed>0.010000</speed>
</trkpt>
<trkpt lat="55.837040" lon="26.047377">
<ele>157.240356</ele>
<time>2010-07-17T15:32:57Z</time>
<desc>lat.=55.837040, lon.=26.047377, Alt.=157.240356m. Speed=0.072000m/h.</desc>
<speed>0.020000</speed>
</trkpt>
<trkpt lat="55.837040" lon="26.047377">
<ele>157.236450</ele>
<time>2010-07-17T15:32:58Z</time>
<desc>lat.=55.837040, lon.=26.047377, Alt.=157.236450m. Speed=0.000000m/h.</desc>
<speed>0.000000</speed>
</trkpt>
<trkpt lat="55.837040" lon="26.047377">
<ele>157.228638</ele>
<time>2010-07-17T15:32:59Z</time>
<desc>lat.=55.837040, lon.=26.047377, Alt.=157.228638m. Speed=0.000000m/h.</desc>
<speed>0.000000</speed>
</trkpt>
<trkpt lat="55.837040" lon="26.047377">
<ele>157.220825</ele>
<time>2010-07-17T15:33:00Z</time>
<desc>lat.=55.837040, lon.=26.047377, Alt.=157.220825m. Speed=0.036000m/h.</desc>
<speed>0.010000</speed>
</trkpt>
<trkpt lat="55.837040" lon="26.047377">
<ele>157.213013</ele>
<time>2010-07-17T15:33:01Z</time>
<desc>lat.=55.837040, lon.=26.047377, Alt.=157.213013m. Speed=0.036000m/h.</desc>
<speed>0.010000</speed>
</trkpt>
<trkpt lat="55.837040" lon="26.047377">
<ele>157.205200</ele>
<time>2010-07-17T15:33:02Z</time>
<desc>lat.=55.837040, lon.=26.047377, Alt.=157.205200m. Speed=0.036000m/h.</desc>
<speed>0.010000</speed>
</trkpt>
<trkpt lat="55.837040" lon="26.047377">
<ele>157.197388</ele>
<time>2010-07-17T15:33:03Z</time>
<desc>lat.=55.837040, lon.=26.047377, Alt.=157.197388m. Speed=0.036000m/h.</desc>
<speed>0.010000</speed>
</trkpt>
<trkpt lat="55.837040" lon="26.047377">
<ele>157.197388</ele>
<time>2010-07-17T15:33:04Z</time>
<desc>lat.=55.837040, lon.=26.047377, Alt.=157.197388m. Speed=0.036000m/h.</desc>
<speed>0.010000</speed>
</trkpt>
<trkpt lat="55.837040" lon="26.047377">
<ele>157.189575</ele>
<time>2010-07-17T15:33:05Z</time>
<desc>lat.=55.837040, lon.=26.047377, Alt.=157.189575m. Speed=0.072000m/h.</desc>
<speed>0.020000</speed>
</trkpt>
<trkpt lat="55.837040" lon="26.047377">
<ele>157.181763</ele>
<time>2010-07-17T15:33:06Z</time>
<desc>lat.=55.837040, lon.=26.047377, Alt.=157.181763m. Speed=0.000000m/h.</desc>
<speed>0.000000</speed>
</trkpt>
<trkpt lat="55.837040" lon="26.047377">
<ele>157.173950</ele>
<time>2010-07-17T15:33:07Z</time>
<desc>lat.=55.837040, lon.=26.047377, Alt.=157.173950m. Speed=0.000000m/h.</desc>
<speed>0.000000</speed>
</trkpt>
<trkpt lat="55.837040" lon="26.047377">
<ele>157.170044</ele>
<time>2010-07-17T15:33:08Z</time>
<desc>lat.=55.837040, lon.=26.047377, Alt.=157.170044m. Speed=0.000000m/h.</desc>
<speed>0.000000</speed>
</trkpt>
<trkpt lat="55.837040" lon="26.047377">
<ele>157.162231</ele>
<time>2010-07-17T15:33:09Z</time>
<desc>lat.=55.837040, lon.=26.047377, Alt.=157.162231m. Speed=0.000000m/h.</desc>
<speed>0.000000</speed>
</trkpt>
<trkpt lat="55.837040" lon="26.047377">
<ele>157.158325</ele>
<time>2010-07-17T15:33:10Z</time>
<desc>lat.=55.837040, lon.=26.047377, Alt.=157.158325m. Speed=0.072000m/h.</desc>
<speed>0.020000</speed>
</trkpt>
<trkpt lat="55.837040" lon="26.047377">
<ele>157.154419</ele>
<time>2010-07-17T15:33:11Z</time>
<desc>lat.=55.837040, lon.=26.047377, Alt.=157.154419m. Speed=0.108000m/h.</desc>
<speed>0.030000</speed>
</trkpt>
<trkpt lat="55.837040" lon="26.047377">
<ele>157.158325</ele>
<time>2010-07-17T15:33:12Z</time>
<desc>lat.=55.837040, lon.=26.047377, Alt.=157.158325m. Speed=0.108000m/h.</desc>
<speed>0.030000</speed>
</trkpt>
<trkpt lat="55.837040" lon="26.047377">
<ele>157.158325</ele>
<time>2010-07-17T15:33:13Z</time>
<desc>lat.=55.837040, lon.=26.047377, Alt.=157.158325m. Speed=0.000000m/h.</desc>
<speed>0.000000</speed>
</trkpt>
<trkpt lat="55.837040" lon="26.047377">
<ele>157.154419</ele>
<time>2010-07-17T15:33:14Z</time>
<desc>lat.=55.837040, lon.=26.047377, Alt.=157.154419m. Speed=0.000000m/h.</desc>
<speed>0.000000</speed>
</trkpt>
<trkpt lat="55.837040" lon="26.047377">
<ele>157.146606</ele>
<time>2010-07-17T15:33:15Z</time>
<desc>lat.=55.837040, lon.=26.047377, Alt.=157.146606m. Speed=0.000000m/h.</desc>
<speed>0.000000</speed>
</trkpt>
<trkpt lat="55.837040" lon="26.047377">
<ele>157.146606</ele>
<time>2010-07-17T15:33:16Z</time>
<desc>lat.=55.837040, lon.=26.047377, Alt.=157.146606m. Speed=0.000000m/h.</desc>
<speed>0.000000</speed>
</trkpt>
<trkpt lat="55.837040" lon="26.047377">
<ele>157.142700</ele>
<time>2010-07-17T15:33:17Z</time>
<desc>lat.=55.837040, lon.=26.047377, Alt.=157.142700m. Speed=0.036000m/h.</desc>
<speed>0.010000</speed>
</trkpt>
<trkpt lat="55.837040" lon="26.047377">
<ele>157.142700</ele>
<time>2010-07-17T15:33:18Z</time>
<desc>lat.=55.837040, lon.=26.047377, Alt.=157.142700m. Speed=0.000000m/h.</desc>
<speed>0.000000</speed>
</trkpt>
<trkpt lat="55.837040" lon="26.047377">
<ele>157.138794</ele>
<time>2010-07-17T15:33:19Z</time>
<desc>lat.=55.837040, lon.=26.047377, Alt.=157.138794m. Speed=0.036000m/h.</desc>
<speed>0.010000</speed>
</trkpt>
<trkpt lat="55.837040" lon="26.047377">
<ele>157.142700</ele>
<time>2010-07-17T15:33:20Z</time>
<desc>lat.=55.837040, lon.=26.047377, Alt.=157.142700m. Speed=0.000000m/h.</desc>
<speed>0.000000</speed>
</trkpt>
<trkpt lat="55.837040" lon="26.047377">
<ele>157.142700</ele>
<time>2010-07-17T15:33:21Z</time>
<desc>lat.=55.837040, lon.=26.047377, Alt.=157.142700m. Speed=0.000000m/h.</desc>
<speed>0.000000</speed>
</trkpt>
<trkpt lat="55.837040" lon="26.047377">
<ele>157.146606</ele>
<time>2010-07-17T15:33:22Z</time>
<desc>lat.=55.837040, lon.=26.047377, Alt.=157.146606m. Speed=0.036000m/h.</desc>
<speed>0.010000</speed>
</trkpt>
<trkpt lat="55.837040" lon="26.047377">
<ele>157.142700</ele>
<time>2010-07-17T15:33:23Z</time>
<desc>lat.=55.837040, lon.=26.047377, Alt.=157.142700m. Speed=0.072000m/h.</desc>
<speed>0.020000</speed>
</trkpt>
<trkpt lat="55.837040" lon="26.047377">
<ele>157.154419</ele>
<time>2010-07-17T15:33:24Z</time>
<desc>lat.=55.837040, lon.=26.047377, Alt.=157.154419m. Speed=0.000000m/h.</desc>
<speed>0.000000</speed>
</trkpt>
<trkpt lat="55.837040" lon="26.047377">
<ele>157.150513</ele>
<time>2010-07-17T15:33:25Z</time>
<desc>lat.=55.837040, lon.=26.047377, Alt.=157.150513m. Speed=0.000000m/h.</desc>
<speed>0.000000</speed>
</trkpt>
<trkpt lat="55.837040" lon="26.047377">
<ele>157.146606</ele>
<time>2010-07-17T15:33:26Z</time>
<desc>lat.=55.837040, lon.=26.047377, Alt.=157.146606m. Speed=0.000000m/h.</desc>
<speed>0.000000</speed>
</trkpt>
<trkpt lat="55.837040" lon="26.047377">
<ele>157.146606</ele>
<time>2010-07-17T15:33:27Z</time>
<desc>lat.=55.837040, lon.=26.047377, Alt.=157.146606m. Speed=0.072000m/h.</desc>
<speed>0.020000</speed>
</trkpt>
<trkpt lat="55.837040" lon="26.047377">
<ele>157.138794</ele>
<time>2010-07-17T15:33:28Z</time>
<desc>lat.=55.837040, lon.=26.047377, Alt.=157.138794m. Speed=0.000000m/h.</desc>
<speed>0.000000</speed>
</trkpt>
<trkpt lat="55.837040" lon="26.047377">
<ele>157.138794</ele>
<time>2010-07-17T15:33:29Z</time>
<desc>lat.=55.837040, lon.=26.047377, Alt.=157.138794m. Speed=0.072000m/h.</desc>
<speed>0.020000</speed>
</trkpt>
<trkpt lat="55.837040" lon="26.047377">
<ele>157.134888</ele>
<time>2010-07-17T15:33:30Z</time>
<desc>lat.=55.837040, lon.=26.047377, Alt.=157.134888m. Speed=0.072000m/h.</desc>
<speed>0.020000</speed>
</trkpt>
<trkpt lat="55.837040" lon="26.047377">
<ele>157.142700</ele>
<time>2010-07-17T15:33:31Z</time>
<desc>lat.=55.837040, lon.=26.047377, Alt.=157.142700m. Speed=0.000000m/h.</desc>
<speed>0.000000</speed>
</trkpt>
<trkpt lat="55.837040" lon="26.047377">
<ele>157.150513</ele>
<time>2010-07-17T15:33:32Z</time>
<desc>lat.=55.837040, lon.=26.047377, Alt.=157.150513m. Speed=0.072000m/h.</desc>
<speed>0.020000</speed>
</trkpt>
<trkpt lat="55.837040" lon="26.047377">
<ele>157.150513</ele>
<time>2010-07-17T15:33:33Z</time>
<desc>lat.=55.837040, lon.=26.047377, Alt.=157.150513m. Speed=0.036000m/h.</desc>
<speed>0.010000</speed>
</trkpt>
<trkpt lat="55.837040" lon="26.047377">
<ele>157.154419</ele>
<time>2010-07-17T15:33:34Z</time>
<desc>lat.=55.837040, lon.=26.047377, Alt.=157.154419m. Speed=0.000000m/h.</desc>
<speed>0.000000</speed>
</trkpt>
<trkpt lat="55.837040" lon="26.047377">
<ele>157.154419</ele>
<time>2010-07-17T15:33:35Z</time>
<desc>lat.=55.837040, lon.=26.047377, Alt.=157.154419m. Speed=0.036000m/h.</desc>
<speed>0.010000</speed>
</trkpt>
<trkpt lat="55.837040" lon="26.047375">
<ele>157.154419</ele>
<time>2010-07-17T15:33:36Z</time>
<desc>lat.=55.837040, lon.=26.047375, Alt.=157.154419m. Speed=0.072000m/h.</desc>
<speed>0.020000</speed>
</trkpt>
<trkpt lat="55.837040" lon="26.047375">
<ele>157.154419</ele>
<time>2010-07-17T15:33:37Z</time>
<desc>lat.=55.837040, lon.=26.047375, Alt.=157.154419m. Speed=0.108000m/h.</desc>
<speed>0.030000</speed>
</trkpt>
<trkpt lat="55.837040" lon="26.047375">
<ele>157.154419</ele>
<time>2010-07-17T15:33:38Z</time>
<desc>lat.=55.837040, lon.=26.047375, Alt.=157.154419m. Speed=0.036000m/h.</desc>
<speed>0.010000</speed>
</trkpt>
<trkpt lat="55.837040" lon="26.047375">
<ele>157.154419</ele>
<time>2010-07-17T15:33:39Z</time>
<desc>lat.=55.837040, lon.=26.047375, Alt.=157.154419m. Speed=0.108000m/h.</desc>
<speed>0.030000</speed>
</trkpt>
<trkpt lat="55.837040" lon="26.047375">
<ele>157.154419</ele>
<time>2010-07-17T15:33:40Z</time>
<desc>lat.=55.837040, lon.=26.047375, Alt.=157.154419m. Speed=0.072000m/h.</desc>
<speed>0.020000</speed>
</trkpt>
<trkpt lat="55.837040" lon="26.047375">
<ele>157.142700</ele>
<time>2010-07-17T15:33:41Z</time>
<desc>lat.=55.837040, lon.=26.047375, Alt.=157.142700m. Speed=0.180000m/h.</desc>
<speed>0.050000</speed>
</trkpt>
<trkpt lat="55.837040" lon="26.047375">
<ele>157.142700</ele>
<time>2010-07-17T15:33:42Z</time>
<desc>lat.=55.837040, lon.=26.047375, Alt.=157.142700m. Speed=0.072000m/h.</desc>
<speed>0.020000</speed>
</trkpt>
<trkpt lat="55.837040" lon="26.047375">
<ele>157.134888</ele>
<time>2010-07-17T15:33:43Z</time>
<desc>lat.=55.837040, lon.=26.047375, Alt.=157.134888m. Speed=0.108000m/h.</desc>
<speed>0.030000</speed>
</trkpt>
<trkpt lat="55.837040" lon="26.047375">
<ele>157.130981</ele>
<time>2010-07-17T15:33:44Z</time>
<desc>lat.=55.837040, lon.=26.047375, Alt.=157.130981m. Speed=0.072000m/h.</desc>
<speed>0.020000</speed>
</trkpt>
<trkpt lat="55.837040" lon="26.047375">
<ele>157.127075</ele>
<time>2010-07-17T15:33:45Z</time>
<desc>lat.=55.837040, lon.=26.047375, Alt.=157.127075m. Speed=0.072000m/h.</desc>
<speed>0.020000</speed>
</trkpt>
<trkpt lat="55.837040" lon="26.047375">
<ele>157.123169</ele>
<time>2010-07-17T15:33:46Z</time>
<desc>lat.=55.837040, lon.=26.047375, Alt.=157.123169m. Speed=0.000000m/h.</desc>
<speed>0.000000</speed>
</trkpt>
<trkpt lat="55.837040" lon="26.047375">
<ele>157.115356</ele>
<time>2010-07-17T15:33:47Z</time>
<desc>lat.=55.837040, lon.=26.047375, Alt.=157.115356m. Speed=0.036000m/h.</desc>
<speed>0.010000</speed>
</trkpt>
<trkpt lat="55.837040" lon="26.047375">
<ele>157.111450</ele>
<time>2010-07-17T15:33:48Z</time>
<desc>lat.=55.837040, lon.=26.047375, Alt.=157.111450m. Speed=0.108000m/h.</desc>
<speed>0.030000</speed>
</trkpt>
<trkpt lat="55.837040" lon="26.047375">
<ele>157.103638</ele>
<time>2010-07-17T15:33:49Z</time>
<desc>lat.=55.837040, lon.=26.047375, Alt.=157.103638m. Speed=0.072000m/h.</desc>
<speed>0.020000</speed>
</trkpt>
<trkpt lat="55.837040" lon="26.047375">
<ele>157.091919</ele>
<time>2010-07-17T15:33:50Z</time>
<desc>lat.=55.837040, lon.=26.047375, Alt.=157.091919m. Speed=0.108000m/h.</desc>
<speed>0.030000</speed>
</trkpt>
<trkpt lat="55.837040" lon="26.047375">
<ele>157.084106</ele>
<time>2010-07-17T15:33:51Z</time>
<desc>lat.=55.837040, lon.=26.047375, Alt.=157.084106m. Speed=0.072000m/h.</desc>
<speed>0.020000</speed>
</trkpt>
<trkpt lat="55.837040" lon="26.047375">
<ele>157.076294</ele>
<time>2010-07-17T15:33:52Z</time>
<desc>lat.=55.837040, lon.=26.047375, Alt.=157.076294m. Speed=0.036000m/h.</desc>
<speed>0.010000</speed>
</trkpt>
<trkpt lat="55.837040" lon="26.047375">
<ele>157.072388</ele>
<time>2010-07-17T15:33:53Z</time>
<desc>lat.=55.837040, lon.=26.047375, Alt.=157.072388m. Speed=0.000000m/h.</desc>
<speed>0.000000</speed>
</trkpt>
<trkpt lat="55.837040" lon="26.047375">
<ele>157.060669</ele>
<time>2010-07-17T15:33:54Z</time>
<desc>lat.=55.837040, lon.=26.047375, Alt.=157.060669m. Speed=0.072000m/h.</desc>
<speed>0.020000</speed>
</trkpt>
<trkpt lat="55.837040" lon="26.047375">
<ele>157.052856</ele>
<time>2010-07-17T15:33:55Z</time>
<desc>lat.=55.837040, lon.=26.047375, Alt.=157.052856m. Speed=0.036000m/h.</desc>
<speed>0.010000</speed>
</trkpt>
<trkpt lat="55.837040" lon="26.047375">
<ele>157.045044</ele>
<time>2010-07-17T15:33:56Z</time>
<desc>lat.=55.837040, lon.=26.047375, Alt.=157.045044m. Speed=0.036000m/h.</desc>
<speed>0.010000</speed>
</trkpt>
<trkpt lat="55.837040" lon="26.047375">
<ele>157.029419</ele>
<time>2010-07-17T15:33:57Z</time>
<desc>lat.=55.837040, lon.=26.047375, Alt.=157.029419m. Speed=0.000000m/h.</desc>
<speed>0.000000</speed>
</trkpt>
<trkpt lat="55.837040" lon="26.047375">
<ele>157.017700</ele>
<time>2010-07-17T15:33:58Z</time>
<desc>lat.=55.837040, lon.=26.047375, Alt.=157.017700m. Speed=0.036000m/h.</desc>
<speed>0.010000</speed>
</trkpt>
<trkpt lat="55.837040" lon="26.047375">
<ele>157.005981</ele>
<time>2010-07-17T15:33:59Z</time>
<desc>lat.=55.837040, lon.=26.047375, Alt.=157.005981m. Speed=0.072000m/h.</desc>
<speed>0.020000</speed>
</trkpt>
<trkpt lat="55.837040" lon="26.047375">
<ele>156.990356</ele>
<time>2010-07-17T15:34:00Z</time>
<desc>lat.=55.837040, lon.=26.047375, Alt.=156.990356m. Speed=0.144000m/h.</desc>
<speed>0.040000</speed>
</trkpt>
<trkpt lat="55.837040" lon="26.047375">
<ele>156.978638</ele>
<time>2010-07-17T15:34:01Z</time>
<desc>lat.=55.837040, lon.=26.047375, Alt.=156.978638m. Speed=0.036000m/h.</desc>
<speed>0.010000</speed>
</trkpt>
<trkpt lat="55.837040" lon="26.047377">
<ele>156.955200</ele>
<time>2010-07-17T15:34:02Z</time>
<desc>lat.=55.837040, lon.=26.047377, Alt.=156.955200m. Speed=0.036000m/h.</desc>
<speed>0.010000</speed>
</trkpt>
<trkpt lat="55.837040" lon="26.047377">
<ele>156.935669</ele>
<time>2010-07-17T15:34:03Z</time>
<desc>lat.=55.837040, lon.=26.047377, Alt.=156.935669m. Speed=0.108000m/h.</desc>
<speed>0.030000</speed>
</trkpt>
<trkpt lat="55.837040" lon="26.047377">
<ele>156.908325</ele>
<time>2010-07-17T15:34:04Z</time>
<desc>lat.=55.837040, lon.=26.047377, Alt.=156.908325m. Speed=0.108000m/h.</desc>
<speed>0.030000</speed>
</trkpt>
<trkpt lat="55.837040" lon="26.047377">
<ele>156.869263</ele>
<time>2010-07-17T15:34:05Z</time>
<desc>lat.=55.837040, lon.=26.047377, Alt.=156.869263m. Speed=0.144000m/h.</desc>
<speed>0.040000</speed>
</trkpt>
<trkpt lat="55.837040" lon="26.047379">
<ele>156.822388</ele>
<time>2010-07-17T15:34:06Z</time>
<desc>lat.=55.837040, lon.=26.047379, Alt.=156.822388m. Speed=0.144000m/h.</desc>
<speed>0.040000</speed>
</trkpt>
<trkpt lat="55.837040" lon="26.047379">
<ele>156.775513</ele>
<time>2010-07-17T15:34:07Z</time>
<desc>lat.=55.837040, lon.=26.047379, Alt.=156.775513m. Speed=0.180000m/h.</desc>
<speed>0.050000</speed>
</trkpt>
<trkpt lat="55.837040" lon="26.047380">
<ele>156.732544</ele>
<time>2010-07-17T15:34:08Z</time>
<desc>lat.=55.837040, lon.=26.047380, Alt.=156.732544m. Speed=0.216000m/h.</desc>
<speed>0.060000</speed>
</trkpt>
<trkpt lat="55.837040" lon="26.047380">
<ele>156.685669</ele>
<time>2010-07-17T15:34:09Z</time>
<desc>lat.=55.837040, lon.=26.047380, Alt.=156.685669m. Speed=0.216000m/h.</desc>
<speed>0.060000</speed>
</trkpt>
<trkpt lat="55.837036" lon="26.047382">
<ele>156.630981</ele>
<time>2010-07-17T15:34:10Z</time>
<desc>lat.=55.837036, lon.=26.047382, Alt.=156.630981m. Speed=0.324000m/h.</desc>
<speed>0.090000</speed>
</trkpt>
<trkpt lat="55.837036" lon="26.047384">
<ele>156.560669</ele>
<time>2010-07-17T15:34:11Z</time>
<desc>lat.=55.837036, lon.=26.047384, Alt.=156.560669m. Speed=0.324000m/h.</desc>
<speed>0.090000</speed>
</trkpt>
<trkpt lat="55.837040" lon="26.047384">
<ele>156.486450</ele>
<time>2010-07-17T15:34:12Z</time>
<desc>lat.=55.837040, lon.=26.047384, Alt.=156.486450m. Speed=0.360000m/h.</desc>
<speed>0.100000</speed>
</trkpt>
<trkpt lat="55.837040" lon="26.047386">
<ele>156.412231</ele>
<time>2010-07-17T15:34:13Z</time>
<desc>lat.=55.837040, lon.=26.047386, Alt.=156.412231m. Speed=0.360000m/h.</desc>
<speed>0.100000</speed>
</trkpt>
<trkpt lat="55.837040" lon="26.047388">
<ele>156.338013</ele>
<time>2010-07-17T15:34:14Z</time>
<desc>lat.=55.837040, lon.=26.047388, Alt.=156.338013m. Speed=0.360000m/h.</desc>
<speed>0.100000</speed>
</trkpt>
<trkpt lat="55.837040" lon="26.047390">
<ele>156.263794</ele>
<time>2010-07-17T15:34:15Z</time>
<desc>lat.=55.837040, lon.=26.047390, Alt.=156.263794m. Speed=0.324000m/h.</desc>
<speed>0.090000</speed>
</trkpt>
<trkpt lat="55.837040" lon="26.047392">
<ele>156.185669</ele>
<time>2010-07-17T15:34:16Z</time>
<desc>lat.=55.837040, lon.=26.047392, Alt.=156.185669m. Speed=0.360000m/h.</desc>
<speed>0.100000</speed>
</trkpt>
<trkpt lat="55.837040" lon="26.047394">
<ele>156.095825</ele>
<time>2010-07-17T15:34:17Z</time>
<desc>lat.=55.837040, lon.=26.047394, Alt.=156.095825m. Speed=0.360000m/h.</desc>
<speed>0.100000</speed>
</trkpt>
<trkpt lat="55.837040" lon="26.047396">
<ele>156.002075</ele>
<time>2010-07-17T15:34:18Z</time>
<desc>lat.=55.837040, lon.=26.047396, Alt.=156.002075m. Speed=0.396000m/h.</desc>
<speed>0.110000</speed>
</trkpt>
<trkpt lat="55.837040" lon="26.047398">
<ele>155.908325</ele>
<time>2010-07-17T15:34:19Z</time>
<desc>lat.=55.837040, lon.=26.047398, Alt.=155.908325m. Speed=0.468000m/h.</desc>
<speed>0.130000</speed>
</trkpt>
<trkpt lat="55.837040" lon="26.047400">
<ele>155.810669</ele>
<time>2010-07-17T15:34:20Z</time>
<desc>lat.=55.837040, lon.=26.047400, Alt.=155.810669m. Speed=0.432000m/h.</desc>
<speed>0.120000</speed>
</trkpt>
<trkpt lat="55.837040" lon="26.047401">
<ele>155.713013</ele>
<time>2010-07-17T15:34:21Z</time>
<desc>lat.=55.837040, lon.=26.047401, Alt.=155.713013m. Speed=0.432000m/h.</desc>
<speed>0.120000</speed>
</trkpt>
<trkpt lat="55.837040" lon="26.047403">
<ele>155.615356</ele>
<time>2010-07-17T15:34:22Z</time>
<desc>lat.=55.837040, lon.=26.047403, Alt.=155.615356m. Speed=0.396000m/h.</desc>
<speed>0.110000</speed>
</trkpt>
<trkpt lat="55.837040" lon="26.047405">
<ele>155.517700</ele>
<time>2010-07-17T15:34:23Z</time>
<desc>lat.=55.837040, lon.=26.047405, Alt.=155.517700m. Speed=0.396000m/h.</desc>
<speed>0.110000</speed>
</trkpt>
<trkpt lat="55.837040" lon="26.047407">
<ele>155.416138</ele>
<time>2010-07-17T15:34:24Z</time>
<desc>lat.=55.837040, lon.=26.047407, Alt.=155.416138m. Speed=0.288000m/h.</desc>
<speed>0.080000</speed>
</trkpt>
<trkpt lat="55.837040" lon="26.047407">
<ele>155.310669</ele>
<time>2010-07-17T15:34:25Z</time>
<desc>lat.=55.837040, lon.=26.047407, Alt.=155.310669m. Speed=0.252000m/h.</desc>
<speed>0.070000</speed>
</trkpt>
<trkpt lat="55.837040" lon="26.047409">
<ele>155.197388</ele>
<time>2010-07-17T15:34:26Z</time>
<desc>lat.=55.837040, lon.=26.047409, Alt.=155.197388m. Speed=0.288000m/h.</desc>
<speed>0.080000</speed>
</trkpt>
<trkpt lat="55.837040" lon="26.047411">
<ele>155.080200</ele>
<time>2010-07-17T15:34:27Z</time>
<desc>lat.=55.837040, lon.=26.047411, Alt.=155.080200m. Speed=0.288000m/h.</desc>
<speed>0.080000</speed>
</trkpt>
<trkpt lat="55.837040" lon="26.047411">
<ele>154.966919</ele>
<time>2010-07-17T15:34:28Z</time>
<desc>lat.=55.837040, lon.=26.047411, Alt.=154.966919m. Speed=0.252000m/h.</desc>
<speed>0.070000</speed>
</trkpt>
<trkpt lat="55.837040" lon="26.047413">
<ele>154.845825</ele>
<time>2010-07-17T15:34:29Z</time>
<desc>lat.=55.837040, lon.=26.047413, Alt.=154.845825m. Speed=0.288000m/h.</desc>
<speed>0.080000</speed>
</trkpt>
<trkpt lat="55.837040" lon="26.047415">
<ele>154.728638</ele>
<time>2010-07-17T15:34:30Z</time>
<desc>lat.=55.837040, lon.=26.047415, Alt.=154.728638m. Speed=0.288000m/h.</desc>
<speed>0.080000</speed>
</trkpt>
<trkpt lat="55.837040" lon="26.047415">
<ele>154.603638</ele>
<time>2010-07-17T15:34:31Z</time>
<desc>lat.=55.837040, lon.=26.047415, Alt.=154.603638m. Speed=0.288000m/h.</desc>
<speed>0.080000</speed>
</trkpt>
<trkpt lat="55.837040" lon="26.047417">
<ele>154.486450</ele>
<time>2010-07-17T15:34:32Z</time>
<desc>lat.=55.837040, lon.=26.047417, Alt.=154.486450m. Speed=0.252000m/h.</desc>
<speed>0.070000</speed>
</trkpt>
<trkpt lat="55.837040" lon="26.047417">
<ele>154.369263</ele>
<time>2010-07-17T15:34:33Z</time>
<desc>lat.=55.837040, lon.=26.047417, Alt.=154.369263m. Speed=0.252000m/h.</desc>
<speed>0.070000</speed>
</trkpt>
<trkpt lat="55.837040" lon="26.047419">
<ele>154.248169</ele>
<time>2010-07-17T15:34:34Z</time>
<desc>lat.=55.837040, lon.=26.047419, Alt.=154.248169m. Speed=0.216000m/h.</desc>
<speed>0.060000</speed>
</trkpt>
<trkpt lat="55.837040" lon="26.047421">
<ele>154.123169</ele>
<time>2010-07-17T15:34:35Z</time>
<desc>lat.=55.837040, lon.=26.047421, Alt.=154.123169m. Speed=0.180000m/h.</desc>
<speed>0.050000</speed>
</trkpt>
<trkpt lat="55.837040" lon="26.047421">
<ele>153.986450</ele>
<time>2010-07-17T15:34:36Z</time>
<desc>lat.=55.837040, lon.=26.047421, Alt.=153.986450m. Speed=0.216000m/h.</desc>
<speed>0.060000</speed>
</trkpt>
<trkpt lat="55.837040" lon="26.047421">
<ele>153.853638</ele>
<time>2010-07-17T15:34:37Z</time>
<desc>lat.=55.837040, lon.=26.047421, Alt.=153.853638m. Speed=0.216000m/h.</desc>
<speed>0.060000</speed>
</trkpt>
<trkpt lat="55.837040" lon="26.047421">
<ele>153.713013</ele>
<time>2010-07-17T15:34:38Z</time>
<desc>lat.=55.837040, lon.=26.047421, Alt.=153.713013m. Speed=0.216000m/h.</desc>
<speed>0.060000</speed>
</trkpt>
<trkpt lat="55.837040" lon="26.047422">
<ele>153.580200</ele>
<time>2010-07-17T15:34:39Z</time>
<desc>lat.=55.837040, lon.=26.047422, Alt.=153.580200m. Speed=0.252000m/h.</desc>
<speed>0.070000</speed>
</trkpt>
<trkpt lat="55.837040" lon="26.047422">
<ele>153.443481</ele>
<time>2010-07-17T15:34:40Z</time>
<desc>lat.=55.837040, lon.=26.047422, Alt.=153.443481m. Speed=0.216000m/h.</desc>
<speed>0.060000</speed>
</trkpt>
<trkpt lat="55.837044" lon="26.047421">
<ele>153.298950</ele>
<time>2010-07-17T15:34:41Z</time>
<desc>lat.=55.837044, lon.=26.047421, Alt.=153.298950m. Speed=0.216000m/h.</desc>
<speed>0.060000</speed>
</trkpt>
<trkpt lat="55.837044" lon="26.047421">
<ele>153.150513</ele>
<time>2010-07-17T15:34:42Z</time>
<desc>lat.=55.837044, lon.=26.047421, Alt.=153.150513m. Speed=0.360000m/h.</desc>
<speed>0.100000</speed>
</trkpt>
<trkpt lat="55.837044" lon="26.047419">
<ele>152.998169</ele>
<time>2010-07-17T15:34:43Z</time>
<desc>lat.=55.837044, lon.=26.047419, Alt.=152.998169m. Speed=0.468000m/h.</desc>
<speed>0.130000</speed>
</trkpt>
<trkpt lat="55.837044" lon="26.047419">
<ele>152.845825</ele>
<time>2010-07-17T15:34:44Z</time>
<desc>lat.=55.837044, lon.=26.047419, Alt.=152.845825m. Speed=0.576000m/h.</desc>
<speed>0.160000</speed>
</trkpt>
<trkpt lat="55.837048" lon="26.047415">
<ele>152.689575</ele>
<time>2010-07-17T15:34:45Z</time>
<desc>lat.=55.837048, lon.=26.047415, Alt.=152.689575m. Speed=0.576000m/h.</desc>
<speed>0.160000</speed>
</trkpt>
<trkpt lat="55.837048" lon="26.047413">
<ele>152.537231</ele>
<time>2010-07-17T15:34:46Z</time>
<desc>lat.=55.837048, lon.=26.047413, Alt.=152.537231m. Speed=0.720000m/h.</desc>
<speed>0.200000</speed>
</trkpt>
<trkpt lat="55.837048" lon="26.047411">
<ele>152.380981</ele>
<time>2010-07-17T15:34:47Z</time>
<desc>lat.=55.837048, lon.=26.047411, Alt.=152.380981m. Speed=0.792000m/h.</desc>
<speed>0.220000</speed>
</trkpt>
<trkpt lat="55.837048" lon="26.047407">
<ele>152.228638</ele>
<time>2010-07-17T15:34:48Z</time>
<desc>lat.=55.837048, lon.=26.047407, Alt.=152.228638m. Speed=0.756000m/h.</desc>
<speed>0.210000</speed>
</trkpt>
<trkpt lat="55.837051" lon="26.047403">
<ele>152.080200</ele>
<time>2010-07-17T15:34:49Z</time>
<desc>lat.=55.837051, lon.=26.047403, Alt.=152.080200m. Speed=0.648000m/h.</desc>
<speed>0.180000</speed>
</trkpt>
<trkpt lat="55.837051" lon="26.047401">
<ele>151.931763</ele>
<time>2010-07-17T15:34:50Z</time>
<desc>lat.=55.837051, lon.=26.047401, Alt.=151.931763m. Speed=0.648000m/h.</desc>
<speed>0.180000</speed>
</trkpt>
<trkpt lat="55.837051" lon="26.047398">
<ele>151.791138</ele>
<time>2010-07-17T15:34:51Z</time>
<desc>lat.=55.837051, lon.=26.047398, Alt.=151.791138m. Speed=0.684000m/h.</desc>
<speed>0.190000</speed>
</trkpt>
<trkpt lat="55.837051" lon="26.047394">
<ele>151.650513</ele>
<time>2010-07-17T15:34:52Z</time>
<desc>lat.=55.837051, lon.=26.047394, Alt.=151.650513m. Speed=0.756000m/h.</desc>
<speed>0.210000</speed>
</trkpt>
<trkpt lat="55.837051" lon="26.047392">
<ele>151.513794</ele>
<time>2010-07-17T15:34:53Z</time>
<desc>lat.=55.837051, lon.=26.047392, Alt.=151.513794m. Speed=0.756000m/h.</desc>
<speed>0.210000</speed>
</trkpt>
<trkpt lat="55.837051" lon="26.047388">
<ele>151.380981</ele>
<time>2010-07-17T15:34:54Z</time>
<desc>lat.=55.837051, lon.=26.047388, Alt.=151.380981m. Speed=0.900000m/h.</desc>
<speed>0.250000</speed>
</trkpt>
<trkpt lat="55.837048" lon="26.047384">
<ele>151.248169</ele>
<time>2010-07-17T15:34:55Z</time>
<desc>lat.=55.837048, lon.=26.047384, Alt.=151.248169m. Speed=0.864000m/h.</desc>
<speed>0.240000</speed>
</trkpt>
<trkpt lat="55.837048" lon="26.047380">
<ele>151.115356</ele>
<time>2010-07-17T15:34:56Z</time>
<desc>lat.=55.837048, lon.=26.047380, Alt.=151.115356m. Speed=0.828000m/h.</desc>
<speed>0.230000</speed>
</trkpt>
<trkpt lat="55.837048" lon="26.047377">
<ele>150.982544</ele>
<time>2010-07-17T15:34:57Z</time>
<desc>lat.=55.837048, lon.=26.047377, Alt.=150.982544m. Speed=0.756000m/h.</desc>
<speed>0.210000</speed>
</trkpt>
<trkpt lat="55.837048" lon="26.047373">
<ele>150.853638</ele>
<time>2010-07-17T15:34:58Z</time>
<desc>lat.=55.837048, lon.=26.047373, Alt.=150.853638m. Speed=0.648000m/h.</desc>
<speed>0.180000</speed>
</trkpt>
<trkpt lat="55.837048" lon="26.047371">
<ele>150.720825</ele>
<time>2010-07-17T15:34:59Z</time>
<desc>lat.=55.837048, lon.=26.047371, Alt.=150.720825m. Speed=0.576000m/h.</desc>
<speed>0.160000</speed>
</trkpt>
<trkpt lat="55.837048" lon="26.047367">
<ele>150.591919</ele>
<time>2010-07-17T15:35:00Z</time>
<desc>lat.=55.837048, lon.=26.047367, Alt.=150.591919m. Speed=0.468000m/h.</desc>
<speed>0.130000</speed>
</trkpt>
<trkpt lat="55.837048" lon="26.047365">
<ele>150.466919</ele>
<time>2010-07-17T15:35:01Z</time>
<desc>lat.=55.837048, lon.=26.047365, Alt.=150.466919m. Speed=0.396000m/h.</desc>
<speed>0.110000</speed>
</trkpt>
<trkpt lat="55.837044" lon="26.047365">
<ele>150.341919</ele>
<time>2010-07-17T15:35:02Z</time>
<desc>lat.=55.837044, lon.=26.047365, Alt.=150.341919m. Speed=0.360000m/h.</desc>
<speed>0.100000</speed>
</trkpt>
<trkpt lat="55.837044" lon="26.047363">
<ele>150.205200</ele>
<time>2010-07-17T15:35:03Z</time>
<desc>lat.=55.837044, lon.=26.047363, Alt.=150.205200m. Speed=0.396000m/h.</desc>
<speed>0.110000</speed>
</trkpt>
<trkpt lat="55.837044" lon="26.047361">
<ele>150.064575</ele>
<time>2010-07-17T15:35:04Z</time>
<desc>lat.=55.837044, lon.=26.047361, Alt.=150.064575m. Speed=0.504000m/h.</desc>
<speed>0.140000</speed>
</trkpt>
<trkpt lat="55.837044" lon="26.047358">
<ele>149.923950</ele>
<time>2010-07-17T15:35:05Z</time>
<desc>lat.=55.837044, lon.=26.047358, Alt.=149.923950m. Speed=0.504000m/h.</desc>
<speed>0.140000</speed>
</trkpt>
<trkpt lat="55.837044" lon="26.047356">
<ele>149.779419</ele>
<time>2010-07-17T15:35:06Z</time>
<desc>lat.=55.837044, lon.=26.047356, Alt.=149.779419m. Speed=0.468000m/h.</desc>
<speed>0.130000</speed>
</trkpt>
<trkpt lat="55.837048" lon="26.047354">
<ele>149.638794</ele>
<time>2010-07-17T15:35:07Z</time>
<desc>lat.=55.837048, lon.=26.047354, Alt.=149.638794m. Speed=0.468000m/h.</desc>
<speed>0.130000</speed>
</trkpt>
<trkpt lat="55.837048" lon="26.047354">
<ele>149.494263</ele>
<time>2010-07-17T15:35:08Z</time>
<desc>lat.=55.837048, lon.=26.047354, Alt.=149.494263m. Speed=0.504000m/h.</desc>
<speed>0.140000</speed>
</trkpt>
<trkpt lat="55.837048" lon="26.047352">
<ele>149.353638</ele>
<time>2010-07-17T15:35:09Z</time>
<desc>lat.=55.837048, lon.=26.047352, Alt.=149.353638m. Speed=0.576000m/h.</desc>
<speed>0.160000</speed>
</trkpt>
<trkpt lat="55.837048" lon="26.047350">
<ele>149.205200</ele>
<time>2010-07-17T15:35:10Z</time>
<desc>lat.=55.837048, lon.=26.047350, Alt.=149.205200m. Speed=0.576000m/h.</desc>
<speed>0.160000</speed>
</trkpt>
<trkpt lat="55.837051" lon="26.047350">
<ele>149.056763</ele>
<time>2010-07-17T15:35:11Z</time>
<desc>lat.=55.837051, lon.=26.047350, Alt.=149.056763m. Speed=0.612000m/h.</desc>
<speed>0.170000</speed>
</trkpt>
<trkpt lat="55.837051" lon="26.047348">
<ele>148.904419</ele>
<time>2010-07-17T15:35:12Z</time>
<desc>lat.=55.837051, lon.=26.047348, Alt.=148.904419m. Speed=0.684000m/h.</desc>
<speed>0.190000</speed>
</trkpt>
<trkpt lat="55.837055" lon="26.047348">
<ele>148.755981</ele>
<time>2010-07-17T15:35:13Z</time>
<desc>lat.=55.837055, lon.=26.047348, Alt.=148.755981m. Speed=0.720000m/h.</desc>
<speed>0.200000</speed>
</trkpt>
<trkpt lat="55.837055" lon="26.047348">
<ele>148.607544</ele>
<time>2010-07-17T15:35:14Z</time>
<desc>lat.=55.837055, lon.=26.047348, Alt.=148.607544m. Speed=0.756000m/h.</desc>
<speed>0.210000</speed>
</trkpt>
<trkpt lat="55.837059" lon="26.047348">
<ele>148.459106</ele>
<time>2010-07-17T15:35:15Z</time>
<desc>lat.=55.837059, lon.=26.047348, Alt.=148.459106m. Speed=0.648000m/h.</desc>
<speed>0.180000</speed>
</trkpt>
<trkpt lat="55.837059" lon="26.047348">
<ele>148.310669</ele>
<time>2010-07-17T15:35:16Z</time>
<desc>lat.=55.837059, lon.=26.047348, Alt.=148.310669m. Speed=0.612000m/h.</desc>
<speed>0.170000</speed>
</trkpt>
<trkpt lat="55.837059" lon="26.047348">
<ele>148.166138</ele>
<time>2010-07-17T15:35:17Z</time>
<desc>lat.=55.837059, lon.=26.047348, Alt.=148.166138m. Speed=0.504000m/h.</desc>
<speed>0.140000</speed>
</trkpt>
<trkpt lat="55.837063" lon="26.047348">
<ele>148.021606</ele>
<time>2010-07-17T15:35:18Z</time>
<desc>lat.=55.837063, lon.=26.047348, Alt.=148.021606m. Speed=0.540000m/h.</desc>
<speed>0.150000</speed>
</trkpt>
<trkpt lat="55.837063" lon="26.047348">
<ele>147.888794</ele>
<time>2010-07-17T15:35:19Z</time>
<desc>lat.=55.837063, lon.=26.047348, Alt.=147.888794m. Speed=0.324000m/h.</desc>
<speed>0.090000</speed>
</trkpt>
<trkpt lat="55.837063" lon="26.047348">
<ele>147.752075</ele>
<time>2010-07-17T15:35:20Z</time>
<desc>lat.=55.837063, lon.=26.047348, Alt.=147.752075m. Speed=0.144000m/h.</desc>
<speed>0.040000</speed>
</trkpt>
<trkpt lat="55.837063" lon="26.047350">
<ele>147.615356</ele>
<time>2010-07-17T15:35:21Z</time>
<desc>lat.=55.837063, lon.=26.047350, Alt.=147.615356m. Speed=0.144000m/h.</desc>
<speed>0.040000</speed>
</trkpt>
<trkpt lat="55.837063" lon="26.047350">
<ele>147.474731</ele>
<time>2010-07-17T15:35:22Z</time>
<desc>lat.=55.837063, lon.=26.047350, Alt.=147.474731m. Speed=0.216000m/h.</desc>
<speed>0.060000</speed>
</trkpt>
<trkpt lat="55.837063" lon="26.047352">
<ele>147.345825</ele>
<time>2010-07-17T15:35:23Z</time>
<desc>lat.=55.837063, lon.=26.047352, Alt.=147.345825m. Speed=0.468000m/h.</desc>
<speed>0.130000</speed>
</trkpt>
<trkpt lat="55.837063" lon="26.047354">
<ele>147.209106</ele>
<time>2010-07-17T15:35:24Z</time>
<desc>lat.=55.837063, lon.=26.047354, Alt.=147.209106m. Speed=0.540000m/h.</desc>
<speed>0.150000</speed>
</trkpt>
<trkpt lat="55.837063" lon="26.047356">
<ele>147.068481</ele>
<time>2010-07-17T15:35:25Z</time>
<desc>lat.=55.837063, lon.=26.047356, Alt.=147.068481m. Speed=0.576000m/h.</desc>
<speed>0.160000</speed>
</trkpt>
<trkpt lat="55.837063" lon="26.047358">
<ele>146.923950</ele>
<time>2010-07-17T15:35:26Z</time>
<desc>lat.=55.837063, lon.=26.047358, Alt.=146.923950m. Speed=0.648000m/h.</desc>
<speed>0.180000</speed>
</trkpt>
<trkpt lat="55.837063" lon="26.047361">
<ele>146.775513</ele>
<time>2010-07-17T15:35:27Z</time>
<desc>lat.=55.837063, lon.=26.047361, Alt.=146.775513m. Speed=0.576000m/h.</desc>
<speed>0.160000</speed>
</trkpt>
<trkpt lat="55.837059" lon="26.047363">
<ele>146.630981</ele>
<time>2010-07-17T15:35:28Z</time>
<desc>lat.=55.837059, lon.=26.047363, Alt.=146.630981m. Speed=0.576000m/h.</desc>
<speed>0.160000</speed>
</trkpt>
<trkpt lat="55.837059" lon="26.047367">
<ele>146.486450</ele>
<time>2010-07-17T15:35:29Z</time>
<desc>lat.=55.837059, lon.=26.047367, Alt.=146.486450m. Speed=0.540000m/h.</desc>
<speed>0.150000</speed>
</trkpt>
<trkpt lat="55.837059" lon="26.047369">
<ele>146.341919</ele>
<time>2010-07-17T15:35:30Z</time>
<desc>lat.=55.837059, lon.=26.047369, Alt.=146.341919m. Speed=0.504000m/h.</desc>
<speed>0.140000</speed>
</trkpt>
<trkpt lat="55.837059" lon="26.047371">
<ele>146.193481</ele>
<time>2010-07-17T15:35:31Z</time>
<desc>lat.=55.837059, lon.=26.047371, Alt.=146.193481m. Speed=0.432000m/h.</desc>
<speed>0.120000</speed>
</trkpt>
<trkpt lat="55.837059" lon="26.047373">
<ele>146.041138</ele>
<time>2010-07-17T15:35:32Z</time>
<desc>lat.=55.837059, lon.=26.047373, Alt.=146.041138m. Speed=0.432000m/h.</desc>
<speed>0.120000</speed>
</trkpt>
<trkpt lat="55.837059" lon="26.047375">
<ele>145.880981</ele>
<time>2010-07-17T15:35:33Z</time>
<desc>lat.=55.837059, lon.=26.047375, Alt.=145.880981m. Speed=0.432000m/h.</desc>
<speed>0.120000</speed>
</trkpt>
<trkpt lat="55.837059" lon="26.047377">
<ele>145.716919</ele>
<time>2010-07-17T15:35:34Z</time>
<desc>lat.=55.837059, lon.=26.047377, Alt.=145.716919m. Speed=0.468000m/h.</desc>
<speed>0.130000</speed>
</trkpt>
<trkpt lat="55.837059" lon="26.047379">
<ele>145.541138</ele>
<time>2010-07-17T15:35:35Z</time>
<desc>lat.=55.837059, lon.=26.047379, Alt.=145.541138m. Speed=0.432000m/h.</desc>
<speed>0.120000</speed>
</trkpt>
<trkpt lat="55.837059" lon="26.047380">
<ele>145.353638</ele>
<time>2010-07-17T15:35:36Z</time>
<desc>lat.=55.837059, lon.=26.047380, Alt.=145.353638m. Speed=0.432000m/h.</desc>
<speed>0.120000</speed>
</trkpt>
<trkpt lat="55.837063" lon="26.047382">
<ele>145.166138</ele>
<time>2010-07-17T15:35:37Z</time>
<desc>lat.=55.837063, lon.=26.047382, Alt.=145.166138m. Speed=0.540000m/h.</desc>
<speed>0.150000</speed>
</trkpt>
<trkpt lat="55.837063" lon="26.047384">
<ele>144.974731</ele>
<time>2010-07-17T15:35:38Z</time>
<desc>lat.=55.837063, lon.=26.047384, Alt.=144.974731m. Speed=0.576000m/h.</desc>
<speed>0.160000</speed>
</trkpt>
<trkpt lat="55.837063" lon="26.047386">
<ele>144.795044</ele>
<time>2010-07-17T15:35:39Z</time>
<desc>lat.=55.837063, lon.=26.047386, Alt.=144.795044m. Speed=0.612000m/h.</desc>
<speed>0.170000</speed>
</trkpt>
<trkpt lat="55.837063" lon="26.047388">
<ele>144.619263</ele>
<time>2010-07-17T15:35:40Z</time>
<desc>lat.=55.837063, lon.=26.047388, Alt.=144.619263m. Speed=0.540000m/h.</desc>
<speed>0.150000</speed>
</trkpt>
<trkpt lat="55.837067" lon="26.047390">
<ele>144.431763</ele>
<time>2010-07-17T15:35:41Z</time>
<desc>lat.=55.837067, lon.=26.047390, Alt.=144.431763m. Speed=0.540000m/h.</desc>
<speed>0.150000</speed>
</trkpt>
<trkpt lat="55.837067" lon="26.047392">
<ele>144.240356</ele>
<time>2010-07-17T15:35:42Z</time>
<desc>lat.=55.837067, lon.=26.047392, Alt.=144.240356m. Speed=0.612000m/h.</desc>
<speed>0.170000</speed>
</trkpt>
<trkpt lat="55.837067" lon="26.047394">
<ele>144.052856</ele>
<time>2010-07-17T15:35:43Z</time>
<desc>lat.=55.837067, lon.=26.047394, Alt.=144.052856m. Speed=0.612000m/h.</desc>
<speed>0.170000</speed>
</trkpt>
<trkpt lat="55.837070" lon="26.047396">
<ele>143.865356</ele>
<time>2010-07-17T15:35:44Z</time>
<desc>lat.=55.837070, lon.=26.047396, Alt.=143.865356m. Speed=0.612000m/h.</desc>
<speed>0.170000</speed>
</trkpt>
<trkpt lat="55.837070" lon="26.047396">
<ele>143.673950</ele>
<time>2010-07-17T15:35:45Z</time>
<desc>lat.=55.837070, lon.=26.047396, Alt.=143.673950m. Speed=0.540000m/h.</desc>
<speed>0.150000</speed>
</trkpt>
<trkpt lat="55.837070" lon="26.047398">
<ele>143.486450</ele>
<time>2010-07-17T15:35:46Z</time>
<desc>lat.=55.837070, lon.=26.047398, Alt.=143.486450m. Speed=0.504000m/h.</desc>
<speed>0.140000</speed>
</trkpt>
<trkpt lat="55.837070" lon="26.047400">
<ele>143.302856</ele>
<time>2010-07-17T15:35:47Z</time>
<desc>lat.=55.837070, lon.=26.047400, Alt.=143.302856m. Speed=0.360000m/h.</desc>
<speed>0.100000</speed>
</trkpt>
<trkpt lat="55.837074" lon="26.047401">
<ele>143.119263</ele>
<time>2010-07-17T15:35:48Z</time>
<desc>lat.=55.837074, lon.=26.047401, Alt.=143.119263m. Speed=0.396000m/h.</desc>
<speed>0.110000</speed>
</trkpt>
<trkpt lat="55.837074" lon="26.047403">
<ele>142.931763</ele>
<time>2010-07-17T15:35:49Z</time>
<desc>lat.=55.837074, lon.=26.047403, Alt.=142.931763m. Speed=0.360000m/h.</desc>
<speed>0.100000</speed>
</trkpt>
<trkpt lat="55.837070" lon="26.047405">
<ele>142.755981</ele>
<time>2010-07-17T15:35:50Z</time>
<desc>lat.=55.837070, lon.=26.047405, Alt.=142.755981m. Speed=0.360000m/h.</desc>
<speed>0.100000</speed>
</trkpt>
<trkpt lat="55.837070" lon="26.047405">
<ele>142.580200</ele>
<time>2010-07-17T15:35:51Z</time>
<desc>lat.=55.837070, lon.=26.047405, Alt.=142.580200m. Speed=0.360000m/h.</desc>
<speed>0.100000</speed>
</trkpt>
<trkpt lat="55.837070" lon="26.047407">
<ele>142.400513</ele>
<time>2010-07-17T15:35:52Z</time>
<desc>lat.=55.837070, lon.=26.047407, Alt.=142.400513m. Speed=0.324000m/h.</desc>
<speed>0.090000</speed>
</trkpt>
<trkpt lat="55.837070" lon="26.047409">
<ele>142.228638</ele>
<time>2010-07-17T15:35:53Z</time>
<desc>lat.=55.837070, lon.=26.047409, Alt.=142.228638m. Speed=0.360000m/h.</desc>
<speed>0.100000</speed>
</trkpt>
<trkpt lat="55.837070" lon="26.047409">
<ele>142.064575</ele>
<time>2010-07-17T15:35:54Z</time>
<desc>lat.=55.837070, lon.=26.047409, Alt.=142.064575m. Speed=0.396000m/h.</desc>
<speed>0.110000</speed>
</trkpt>
<trkpt lat="55.837070" lon="26.047409">
<ele>141.896606</ele>
<time>2010-07-17T15:35:55Z</time>
<desc>lat.=55.837070, lon.=26.047409, Alt.=141.896606m. Speed=0.360000m/h.</desc>
<speed>0.100000</speed>
</trkpt>
<trkpt lat="55.837067" lon="26.047409">
<ele>141.732544</ele>
<time>2010-07-17T15:35:56Z</time>
<desc>lat.=55.837067, lon.=26.047409, Alt.=141.732544m. Speed=0.324000m/h.</desc>
<speed>0.090000</speed>
</trkpt>
<trkpt lat="55.837067" lon="26.047411">
<ele>141.564575</ele>
<time>2010-07-17T15:35:57Z</time>
<desc>lat.=55.837067, lon.=26.047411, Alt.=141.564575m. Speed=0.396000m/h.</desc>
<speed>0.110000</speed>
</trkpt>
<trkpt lat="55.837067" lon="26.047411">
<ele>141.396606</ele>
<time>2010-07-17T15:35:58Z</time>
<desc>lat.=55.837067, lon.=26.047411, Alt.=141.396606m. Speed=0.504000m/h.</desc>
<speed>0.140000</speed>
</trkpt>
<trkpt lat="55.837067" lon="26.047411">
<ele>141.228638</ele>
<time>2010-07-17T15:35:59Z</time>
<desc>lat.=55.837067, lon.=26.047411, Alt.=141.228638m. Speed=0.540000m/h.</desc>
<speed>0.150000</speed>
</trkpt>
<trkpt lat="55.837063" lon="26.047411">
<ele>141.060669</ele>
<time>2010-07-17T15:36:00Z</time>
<desc>lat.=55.837063, lon.=26.047411, Alt.=141.060669m. Speed=0.576000m/h.</desc>
<speed>0.160000</speed>
</trkpt>
<trkpt lat="55.837063" lon="26.047411">
<ele>140.892700</ele>
<time>2010-07-17T15:36:01Z</time>
<desc>lat.=55.837063, lon.=26.047411, Alt.=140.892700m. Speed=0.504000m/h.</desc>
<speed>0.140000</speed>
</trkpt>
<trkpt lat="55.837059" lon="26.047413">
<ele>140.720825</ele>
<time>2010-07-17T15:36:02Z</time>
<desc>lat.=55.837059, lon.=26.047413, Alt.=140.720825m. Speed=0.504000m/h.</desc>
<speed>0.140000</speed>
</trkpt>
<trkpt lat="55.837059" lon="26.047413">
<ele>140.552856</ele>
<time>2010-07-17T15:36:03Z</time>
<desc>lat.=55.837059, lon.=26.047413, Alt.=140.552856m. Speed=0.468000m/h.</desc>
<speed>0.130000</speed>
</trkpt>
<trkpt lat="55.837059" lon="26.047413">
<ele>140.384888</ele>
<time>2010-07-17T15:36:04Z</time>
<desc>lat.=55.837059, lon.=26.047413, Alt.=140.384888m. Speed=0.396000m/h.</desc>
<speed>0.110000</speed>
</trkpt>
<trkpt lat="55.837059" lon="26.047415">
<ele>140.216919</ele>
<time>2010-07-17T15:36:05Z</time>
<desc>lat.=55.837059, lon.=26.047415, Alt.=140.216919m. Speed=0.432000m/h.</desc>
<speed>0.120000</speed>
</trkpt>
<trkpt lat="55.837055" lon="26.047415">
<ele>140.052856</ele>
<time>2010-07-17T15:36:06Z</time>
<desc>lat.=55.837055, lon.=26.047415, Alt.=140.052856m. Speed=0.432000m/h.</desc>
<speed>0.120000</speed>
</trkpt>
<trkpt lat="55.837055" lon="26.047415">
<ele>139.892700</ele>
<time>2010-07-17T15:36:07Z</time>
<desc>lat.=55.837055, lon.=26.047415, Alt.=139.892700m. Speed=0.324000m/h.</desc>
<speed>0.090000</speed>
</trkpt>
<trkpt lat="55.837055" lon="26.047415">
<ele>139.728638</ele>
<time>2010-07-17T15:36:08Z</time>
<desc>lat.=55.837055, lon.=26.047415, Alt.=139.728638m. Speed=0.216000m/h.</desc>
<speed>0.060000</speed>
</trkpt>
<trkpt lat="55.837055" lon="26.047415">
<ele>139.568481</ele>
<time>2010-07-17T15:36:09Z</time>
<desc>lat.=55.837055, lon.=26.047415, Alt.=139.568481m. Speed=0.144000m/h.</desc>
<speed>0.040000</speed>
</trkpt>
<trkpt lat="55.837055" lon="26.047415">
<ele>139.404419</ele>
<time>2010-07-17T15:36:10Z</time>
<desc>lat.=55.837055, lon.=26.047415, Alt.=139.404419m. Speed=0.036000m/h.</desc>
<speed>0.010000</speed>
</trkpt>
<trkpt lat="55.837055" lon="26.047415">
<ele>139.240356</ele>
<time>2010-07-17T15:36:11Z</time>
<desc>lat.=55.837055, lon.=26.047415, Alt.=139.240356m. Speed=0.108000m/h.</desc>
<speed>0.030000</speed>
</trkpt>
<trkpt lat="55.837055" lon="26.047415">
<ele>139.080200</ele>
<time>2010-07-17T15:36:12Z</time>
<desc>lat.=55.837055, lon.=26.047415, Alt.=139.080200m. Speed=0.144000m/h.</desc>
<speed>0.040000</speed>
</trkpt>
<trkpt lat="55.837055" lon="26.047415">
<ele>138.916138</ele>
<time>2010-07-17T15:36:13Z</time>
<desc>lat.=55.837055, lon.=26.047415, Alt.=138.916138m. Speed=0.180000m/h.</desc>
<speed>0.050000</speed>
</trkpt>
<trkpt lat="55.837055" lon="26.047415">
<ele>138.755981</ele>
<time>2010-07-17T15:36:14Z</time>
<desc>lat.=55.837055, lon.=26.047415, Alt.=138.755981m. Speed=0.216000m/h.</desc>
<speed>0.060000</speed>
</trkpt>
<trkpt lat="55.837055" lon="26.047413">
<ele>138.599731</ele>
<time>2010-07-17T15:36:15Z</time>
<desc>lat.=55.837055, lon.=26.047413, Alt.=138.599731m. Speed=0.288000m/h.</desc>
<speed>0.080000</speed>
</trkpt>
<trkpt lat="55.837055" lon="26.047413">
<ele>138.443481</ele>
<time>2010-07-17T15:36:16Z</time>
<desc>lat.=55.837055, lon.=26.047413, Alt.=138.443481m. Speed=0.324000m/h.</desc>
<speed>0.090000</speed>
</trkpt>
<trkpt lat="55.837059" lon="26.047413">
<ele>138.298950</ele>
<time>2010-07-17T15:36:17Z</time>
<desc>lat.=55.837059, lon.=26.047413, Alt.=138.298950m. Speed=0.360000m/h.</desc>
<speed>0.100000</speed>
</trkpt>
<trkpt lat="55.837059" lon="26.047413">
<ele>138.158325</ele>
<time>2010-07-17T15:36:18Z</time>
<desc>lat.=55.837059, lon.=26.047413, Alt.=138.158325m. Speed=0.396000m/h.</desc>
<speed>0.110000</speed>
</trkpt>
<trkpt lat="55.837059" lon="26.047413">
<ele>138.025513</ele>
<time>2010-07-17T15:36:19Z</time>
<desc>lat.=55.837059, lon.=26.047413, Alt.=138.025513m. Speed=0.468000m/h.</desc>
<speed>0.130000</speed>
</trkpt>
<trkpt lat="55.837063" lon="26.047413">
<ele>137.900513</ele>
<time>2010-07-17T15:36:20Z</time>
<desc>lat.=55.837063, lon.=26.047413, Alt.=137.900513m. Speed=0.432000m/h.</desc>
<speed>0.120000</speed>
</trkpt>
<trkpt lat="55.837063" lon="26.047411">
<ele>137.787231</ele>
<time>2010-07-17T15:36:21Z</time>
<desc>lat.=55.837063, lon.=26.047411, Alt.=137.787231m. Speed=0.540000m/h.</desc>
<speed>0.150000</speed>
</trkpt>
<trkpt lat="55.837063" lon="26.047411">
<ele>137.677856</ele>
<time>2010-07-17T15:36:22Z</time>
<desc>lat.=55.837063, lon.=26.047411, Alt.=137.677856m. Speed=0.648000m/h.</desc>
<speed>0.180000</speed>
</trkpt>
<trkpt lat="55.837067" lon="26.047409">
<ele>137.572388</ele>
<time>2010-07-17T15:36:23Z</time>
<desc>lat.=55.837067, lon.=26.047409, Alt.=137.572388m. Speed=0.648000m/h.</desc>
<speed>0.180000</speed>
</trkpt>
<trkpt lat="55.837067" lon="26.047407">
<ele>137.474731</ele>
<time>2010-07-17T15:36:24Z</time>
<desc>lat.=55.837067, lon.=26.047407, Alt.=137.474731m. Speed=0.684000m/h.</desc>
<speed>0.190000</speed>
</trkpt>
<trkpt lat="55.837067" lon="26.047405">
<ele>137.384888</ele>
<time>2010-07-17T15:36:25Z</time>
<desc>lat.=55.837067, lon.=26.047405, Alt.=137.384888m. Speed=0.828000m/h.</desc>
<speed>0.230000</speed>
</trkpt>
<trkpt lat="55.837070" lon="26.047403">
<ele>137.291138</ele>
<time>2010-07-17T15:36:26Z</time>
<desc>lat.=55.837070, lon.=26.047403, Alt.=137.291138m. Speed=1.008000m/h.</desc>
<speed>0.280000</speed>
</trkpt>
<trkpt lat="55.837070" lon="26.047400">
<ele>137.209106</ele>
<time>2010-07-17T15:36:27Z</time>
<desc>lat.=55.837070, lon.=26.047400, Alt.=137.209106m. Speed=1.080000m/h.</desc>
<speed>0.300000</speed>
</trkpt>
<trkpt lat="55.837074" lon="26.047396">
<ele>137.490356</ele>
<time>2010-07-17T15:36:28Z</time>
<desc>lat.=55.837074, lon.=26.047396, Alt.=137.490356m. Speed=1.008000m/h.</desc>
<speed>0.280000</speed>
</trkpt>
<trkpt lat="55.837078" lon="26.047382">
<ele>137.838013</ele>
<time>2010-07-17T15:36:29Z</time>
<desc>lat.=55.837078, lon.=26.047382, Alt.=137.838013m. Speed=1.008000m/h.</desc>
<speed>0.280000</speed>
</trkpt>
<trkpt lat="55.837082" lon="26.047367">
<ele>137.974731</ele>
<time>2010-07-17T15:36:30Z</time>
<desc>lat.=55.837082, lon.=26.047367, Alt.=137.974731m. Speed=1.116000m/h.</desc>
<speed>0.310000</speed>
</trkpt>
<trkpt lat="55.837090" lon="26.047361">
<ele>138.228638</ele>
<time>2010-07-17T15:36:31Z</time>
<desc>lat.=55.837090, lon.=26.047361, Alt.=138.228638m. Speed=1.116000m/h.</desc>
<speed>0.310000</speed>
</trkpt>
<trkpt lat="55.837093" lon="26.047358">
<ele>138.330200</ele>
<time>2010-07-17T15:36:32Z</time>
<desc>lat.=55.837093, lon.=26.047358, Alt.=138.330200m. Speed=1.044000m/h.</desc>
<speed>0.290000</speed>
</trkpt>
<trkpt lat="55.837101" lon="26.047359">
<ele>138.646606</ele>
<time>2010-07-17T15:36:33Z</time>
<desc>lat.=55.837101, lon.=26.047359, Alt.=138.646606m. Speed=0.936000m/h.</desc>
<speed>0.260000</speed>
</trkpt>
<trkpt lat="55.837105" lon="26.047361">
<ele>139.455200</ele>
<time>2010-07-17T15:36:34Z</time>
<desc>lat.=55.837105, lon.=26.047361, Alt.=139.455200m. Speed=0.900000m/h.</desc>
<speed>0.250000</speed>
</trkpt>
<trkpt lat="55.837109" lon="26.047359">
<ele>139.763794</ele>
<time>2010-07-17T15:36:35Z</time>
<desc>lat.=55.837109, lon.=26.047359, Alt.=139.763794m. Speed=0.792000m/h.</desc>
<speed>0.220000</speed>
</trkpt>
<trkpt lat="55.837109" lon="26.047358">
<ele>139.728638</ele>
<time>2010-07-17T15:36:36Z</time>
<desc>lat.=55.837109, lon.=26.047358, Alt.=139.728638m. Speed=0.864000m/h.</desc>
<speed>0.240000</speed>
</trkpt>
<trkpt lat="55.837112" lon="26.047356">
<ele>139.701294</ele>
<time>2010-07-17T15:36:37Z</time>
<desc>lat.=55.837112, lon.=26.047356, Alt.=139.701294m. Speed=0.828000m/h.</desc>
<speed>0.230000</speed>
</trkpt>
<trkpt lat="55.837112" lon="26.047356">
<ele>139.689575</ele>
<time>2010-07-17T15:36:38Z</time>
<desc>lat.=55.837112, lon.=26.047356, Alt.=139.689575m. Speed=0.684000m/h.</desc>
<speed>0.190000</speed>
</trkpt>
<trkpt lat="55.837112" lon="26.047352">
<ele>139.689575</ele>
<time>2010-07-17T15:36:39Z</time>
<desc>lat.=55.837112, lon.=26.047352, Alt.=139.689575m. Speed=0.504000m/h.</desc>
<speed>0.140000</speed>
</trkpt>
<trkpt lat="55.837116" lon="26.047352">
<ele>139.701294</ele>
<time>2010-07-17T15:36:40Z</time>
<desc>lat.=55.837116, lon.=26.047352, Alt.=139.701294m. Speed=0.288000m/h.</desc>
<speed>0.080000</speed>
</trkpt>
<trkpt lat="55.837116" lon="26.047350">
<ele>139.720825</ele>
<time>2010-07-17T15:36:41Z</time>
<desc>lat.=55.837116, lon.=26.047350, Alt.=139.720825m. Speed=0.252000m/h.</desc>
<speed>0.070000</speed>
</trkpt>
<trkpt lat="55.837116" lon="26.047348">
<ele>139.748169</ele>
<time>2010-07-17T15:36:42Z</time>
<desc>lat.=55.837116, lon.=26.047348, Alt.=139.748169m. Speed=0.360000m/h.</desc>
<speed>0.100000</speed>
</trkpt>
<trkpt lat="55.837116" lon="26.047346">
<ele>139.787231</ele>
<time>2010-07-17T15:36:43Z</time>
<desc>lat.=55.837116, lon.=26.047346, Alt.=139.787231m. Speed=0.396000m/h.</desc>
<speed>0.110000</speed>
</trkpt>
<trkpt lat="55.837112" lon="26.047346">
<ele>139.834106</ele>
<time>2010-07-17T15:36:44Z</time>
<desc>lat.=55.837112, lon.=26.047346, Alt.=139.834106m. Speed=0.432000m/h.</desc>
<speed>0.120000</speed>
</trkpt>
<trkpt lat="55.837112" lon="26.047344">
<ele>139.892700</ele>
<time>2010-07-17T15:36:45Z</time>
<desc>lat.=55.837112, lon.=26.047344, Alt.=139.892700m. Speed=0.432000m/h.</desc>
<speed>0.120000</speed>
</trkpt>
<trkpt lat="55.837112" lon="26.047342">
<ele>139.959106</ele>
<time>2010-07-17T15:36:46Z</time>
<desc>lat.=55.837112, lon.=26.047342, Alt.=139.959106m. Speed=0.648000m/h.</desc>
<speed>0.180000</speed>
</trkpt>
<trkpt lat="55.837112" lon="26.047340">
<ele>140.041138</ele>
<time>2010-07-17T15:36:47Z</time>
<desc>lat.=55.837112, lon.=26.047340, Alt.=140.041138m. Speed=0.612000m/h.</desc>
<speed>0.170000</speed>
</trkpt>
<trkpt lat="55.837109" lon="26.047338">
<ele>140.130981</ele>
<time>2010-07-17T15:36:48Z</time>
<desc>lat.=55.837109, lon.=26.047338, Alt.=140.130981m. Speed=0.576000m/h.</desc>
<speed>0.160000</speed>
</trkpt>
<trkpt lat="55.837109" lon="26.047337">
<ele>140.232544</ele>
<time>2010-07-17T15:36:49Z</time>
<desc>lat.=55.837109, lon.=26.047337, Alt.=140.232544m. Speed=0.540000m/h.</desc>
<speed>0.150000</speed>
</trkpt>
<trkpt lat="55.837109" lon="26.047337">
<ele>140.334106</ele>
<time>2010-07-17T15:36:50Z</time>
<desc>lat.=55.837109, lon.=26.047337, Alt.=140.334106m. Speed=0.576000m/h.</desc>
<speed>0.160000</speed>
</trkpt>
<trkpt lat="55.837105" lon="26.047335">
<ele>140.443481</ele>
<time>2010-07-17T15:36:51Z</time>
<desc>lat.=55.837105, lon.=26.047335, Alt.=140.443481m. Speed=0.576000m/h.</desc>
<speed>0.160000</speed>
</trkpt>
<trkpt lat="55.837105" lon="26.047333">
<ele>140.556763</ele>
<time>2010-07-17T15:36:52Z</time>
<desc>lat.=55.837105, lon.=26.047333, Alt.=140.556763m. Speed=0.360000m/h.</desc>
<speed>0.100000</speed>
</trkpt>
<trkpt lat="55.837105" lon="26.047333">
<ele>140.673950</ele>
<time>2010-07-17T15:36:53Z</time>
<desc>lat.=55.837105, lon.=26.047333, Alt.=140.673950m. Speed=0.288000m/h.</desc>
<speed>0.080000</speed>
</trkpt>
<trkpt lat="55.837101" lon="26.047333">
<ele>140.806763</ele>
<time>2010-07-17T15:36:54Z</time>
<desc>lat.=55.837101, lon.=26.047333, Alt.=140.806763m. Speed=0.360000m/h.</desc>
<speed>0.100000</speed>
</trkpt>
<trkpt lat="55.837101" lon="26.047331">
<ele>140.955200</ele>
<time>2010-07-17T15:36:55Z</time>
<desc>lat.=55.837101, lon.=26.047331, Alt.=140.955200m. Speed=0.468000m/h.</desc>
<speed>0.130000</speed>
</trkpt>
<trkpt lat="55.837101" lon="26.047331">
<ele>141.103638</ele>
<time>2010-07-17T15:36:56Z</time>
<desc>lat.=55.837101, lon.=26.047331, Alt.=141.103638m. Speed=0.432000m/h.</desc>
<speed>0.120000</speed>
</trkpt>
<trkpt lat="55.837097" lon="26.047329">
<ele>141.259888</ele>
<time>2010-07-17T15:36:57Z</time>
<desc>lat.=55.837097, lon.=26.047329, Alt.=141.259888m. Speed=0.540000m/h.</desc>
<speed>0.150000</speed>
</trkpt>
<trkpt lat="55.837097" lon="26.047329">
<ele>141.423950</ele>
<time>2010-07-17T15:36:58Z</time>
<desc>lat.=55.837097, lon.=26.047329, Alt.=141.423950m. Speed=0.648000m/h.</desc>
<speed>0.180000</speed>
</trkpt>
<trkpt lat="55.837097" lon="26.047329">
<ele>141.599731</ele>
<time>2010-07-17T15:36:59Z</time>
<desc>lat.=55.837097, lon.=26.047329, Alt.=141.599731m. Speed=0.720000m/h.</desc>
<speed>0.200000</speed>
</trkpt>
<trkpt lat="55.837093" lon="26.047329">
<ele>141.787231</ele>
<time>2010-07-17T15:37:00Z</time>
<desc>lat.=55.837093, lon.=26.047329, Alt.=141.787231m. Speed=0.720000m/h.</desc>
<speed>0.200000</speed>
</trkpt>
<trkpt lat="55.837093" lon="26.047329">
<ele>141.978638</ele>
<time>2010-07-17T15:37:01Z</time>
<desc>lat.=55.837093, lon.=26.047329, Alt.=141.978638m. Speed=0.648000m/h.</desc>
<speed>0.180000</speed>
</trkpt>
<trkpt lat="55.837090" lon="26.047329">
<ele>142.177856</ele>
<time>2010-07-17T15:37:02Z</time>
<desc>lat.=55.837090, lon.=26.047329, Alt.=142.177856m. Speed=0.504000m/h.</desc>
<speed>0.140000</speed>
</trkpt>
<trkpt lat="55.837090" lon="26.047327">
<ele>142.388794</ele>
<time>2010-07-17T15:37:03Z</time>
<desc>lat.=55.837090, lon.=26.047327, Alt.=142.388794m. Speed=0.540000m/h.</desc>
<speed>0.150000</speed>
</trkpt>
<trkpt lat="55.837086" lon="26.047327">
<ele>142.607544</ele>
<time>2010-07-17T15:37:04Z</time>
<desc>lat.=55.837086, lon.=26.047327, Alt.=142.607544m. Speed=0.540000m/h.</desc>
<speed>0.150000</speed>
</trkpt>
<trkpt lat="55.837086" lon="26.047327">
<ele>142.830200</ele>
<time>2010-07-17T15:37:05Z</time>
<desc>lat.=55.837086, lon.=26.047327, Alt.=142.830200m. Speed=0.396000m/h.</desc>
<speed>0.110000</speed>
</trkpt>
<trkpt lat="55.837086" lon="26.047327">
<ele>143.060669</ele>
<time>2010-07-17T15:37:06Z</time>
<desc>lat.=55.837086, lon.=26.047327, Alt.=143.060669m. Speed=0.324000m/h.</desc>
<speed>0.090000</speed>
</trkpt>
<trkpt lat="55.837086" lon="26.047325">
<ele>143.302856</ele>
<time>2010-07-17T15:37:07Z</time>
<desc>lat.=55.837086, lon.=26.047325, Alt.=143.302856m. Speed=0.252000m/h.</desc>
<speed>0.070000</speed>
</trkpt>
<trkpt lat="55.837082" lon="26.047325">
<ele>143.552856</ele>
<time>2010-07-17T15:37:08Z</time>
<desc>lat.=55.837082, lon.=26.047325, Alt.=143.552856m. Speed=0.180000m/h.</desc>
<speed>0.050000</speed>
</trkpt>
<trkpt lat="55.837082" lon="26.047325">
<ele>143.810669</ele>
<time>2010-07-17T15:37:09Z</time>
<desc>lat.=55.837082, lon.=26.047325, Alt.=143.810669m. Speed=0.180000m/h.</desc>
<speed>0.050000</speed>
</trkpt>
<trkpt lat="55.837082" lon="26.047325">
<ele>144.072388</ele>
<time>2010-07-17T15:37:10Z</time>
<desc>lat.=55.837082, lon.=26.047325, Alt.=144.072388m. Speed=0.144000m/h.</desc>
<speed>0.040000</speed>
</trkpt>
<trkpt lat="55.837082" lon="26.047325">
<ele>144.345825</ele>
<time>2010-07-17T15:37:11Z</time>
<desc>lat.=55.837082, lon.=26.047325, Alt.=144.345825m. Speed=0.144000m/h.</desc>
<speed>0.040000</speed>
</trkpt>
<trkpt lat="55.837082" lon="26.047325">
<ele>144.623169</ele>
<time>2010-07-17T15:37:12Z</time>
<desc>lat.=55.837082, lon.=26.047325, Alt.=144.623169m. Speed=0.036000m/h.</desc>
<speed>0.010000</speed>
</trkpt>
<trkpt lat="55.837082" lon="26.047325">
<ele>144.896606</ele>
<time>2010-07-17T15:37:13Z</time>
<desc>lat.=55.837082, lon.=26.047325, Alt.=144.896606m. Speed=0.324000m/h.</desc>
<speed>0.090000</speed>
</trkpt>
<trkpt lat="55.837082" lon="26.047323">
<ele>145.170044</ele>
<time>2010-07-17T15:37:14Z</time>
<desc>lat.=55.837082, lon.=26.047323, Alt.=145.170044m. Speed=0.360000m/h.</desc>
<speed>0.100000</speed>
</trkpt>
<trkpt lat="55.837082" lon="26.047321">
<ele>145.439575</ele>
<time>2010-07-17T15:37:15Z</time>
<desc>lat.=55.837082, lon.=26.047321, Alt.=145.439575m. Speed=0.432000m/h.</desc>
<speed>0.120000</speed>
</trkpt>
<trkpt lat="55.837082" lon="26.047319">
<ele>145.720825</ele>
<time>2010-07-17T15:37:16Z</time>
<desc>lat.=55.837082, lon.=26.047319, Alt.=145.720825m. Speed=0.432000m/h.</desc>
<speed>0.120000</speed>
</trkpt>
<trkpt lat="55.837082" lon="26.047318">
<ele>146.005981</ele>
<time>2010-07-17T15:37:17Z</time>
<desc>lat.=55.837082, lon.=26.047318, Alt.=146.005981m. Speed=0.648000m/h.</desc>
<speed>0.180000</speed>
</trkpt>
<trkpt lat="55.837082" lon="26.047316">
<ele>146.287231</ele>
<time>2010-07-17T15:37:18Z</time>
<desc>lat.=55.837082, lon.=26.047316, Alt.=146.287231m. Speed=0.648000m/h.</desc>
<speed>0.180000</speed>
</trkpt>
<trkpt lat="55.837082" lon="26.047312">
<ele>146.568481</ele>
<time>2010-07-17T15:37:19Z</time>
<desc>lat.=55.837082, lon.=26.047312, Alt.=146.568481m. Speed=0.792000m/h.</desc>
<speed>0.220000</speed>
</trkpt>
<trkpt lat="55.837082" lon="26.047308">
<ele>146.841919</ele>
<time>2010-07-17T15:37:20Z</time>
<desc>lat.=55.837082, lon.=26.047308, Alt.=146.841919m. Speed=0.756000m/h.</desc>
<speed>0.210000</speed>
</trkpt>
<trkpt lat="55.837082" lon="26.047304">
<ele>147.115356</ele>
<time>2010-07-17T15:37:21Z</time>
<desc>lat.=55.837082, lon.=26.047304, Alt.=147.115356m. Speed=0.720000m/h.</desc>
<speed>0.200000</speed>
</trkpt>
<trkpt lat="55.837082" lon="26.047302">
<ele>147.380981</ele>
<time>2010-07-17T15:37:22Z</time>
<desc>lat.=55.837082, lon.=26.047302, Alt.=147.380981m. Speed=0.612000m/h.</desc>
<speed>0.170000</speed>
</trkpt>
<trkpt lat="55.837082" lon="26.047300">
<ele>147.638794</ele>
<time>2010-07-17T15:37:23Z</time>
<desc>lat.=55.837082, lon.=26.047300, Alt.=147.638794m. Speed=0.540000m/h.</desc>
<speed>0.150000</speed>
</trkpt>
<trkpt lat="55.837082" lon="26.047297">
<ele>147.892700</ele>
<time>2010-07-17T15:37:24Z</time>
<desc>lat.=55.837082, lon.=26.047297, Alt.=147.892700m. Speed=0.504000m/h.</desc>
<speed>0.140000</speed>
</trkpt>
<trkpt lat="55.837082" lon="26.047295">
<ele>148.138794</ele>
<time>2010-07-17T15:37:25Z</time>
<desc>lat.=55.837082, lon.=26.047295, Alt.=148.138794m. Speed=0.540000m/h.</desc>
<speed>0.150000</speed>
</trkpt>
<trkpt lat="55.837082" lon="26.047293">
<ele>148.380981</ele>
<time>2010-07-17T15:37:26Z</time>
<desc>lat.=55.837082, lon.=26.047293, Alt.=148.380981m. Speed=0.576000m/h.</desc>
<speed>0.160000</speed>
</trkpt>
<trkpt lat="55.837082" lon="26.047291">
<ele>148.623169</ele>
<time>2010-07-17T15:37:27Z</time>
<desc>lat.=55.837082, lon.=26.047291, Alt.=148.623169m. Speed=0.576000m/h.</desc>
<speed>0.160000</speed>
</trkpt>
<trkpt lat="55.837082" lon="26.047287">
<ele>148.869263</ele>
<time>2010-07-17T15:37:28Z</time>
<desc>lat.=55.837082, lon.=26.047287, Alt.=148.869263m. Speed=0.540000m/h.</desc>
<speed>0.150000</speed>
</trkpt>
<trkpt lat="55.837082" lon="26.047285">
<ele>149.123169</ele>
<time>2010-07-17T15:37:29Z</time>
<desc>lat.=55.837082, lon.=26.047285, Alt.=149.123169m. Speed=0.540000m/h.</desc>
<speed>0.150000</speed>
</trkpt>
<trkpt lat="55.837082" lon="26.047283">
<ele>149.380981</ele>
<time>2010-07-17T15:37:30Z</time>
<desc>lat.=55.837082, lon.=26.047283, Alt.=149.380981m. Speed=0.756000m/h.</desc>
<speed>0.210000</speed>
</trkpt>
<trkpt lat="55.837078" lon="26.047283">
<ele>149.650513</ele>
<time>2010-07-17T15:37:31Z</time>
<desc>lat.=55.837078, lon.=26.047283, Alt.=149.650513m. Speed=0.828000m/h.</desc>
<speed>0.230000</speed>
</trkpt>
<trkpt lat="55.837078" lon="26.047281">
<ele>149.927856</ele>
<time>2010-07-17T15:37:32Z</time>
<desc>lat.=55.837078, lon.=26.047281, Alt.=149.927856m. Speed=0.900000m/h.</desc>
<speed>0.250000</speed>
</trkpt>
<trkpt lat="55.837074" lon="26.047281">
<ele>150.213013</ele>
<time>2010-07-17T15:37:33Z</time>
<desc>lat.=55.837074, lon.=26.047281, Alt.=150.213013m. Speed=1.116000m/h.</desc>
<speed>0.310000</speed>
</trkpt>
<trkpt lat="55.837074" lon="26.047274">
<ele>150.591919</ele>
<time>2010-07-17T15:37:34Z</time>
<desc>lat.=55.837074, lon.=26.047274, Alt.=150.591919m. Speed=1.008000m/h.</desc>
<speed>0.280000</speed>
</trkpt>
<trkpt lat="55.837063" lon="26.047262">
<ele>151.259888</ele>
<time>2010-07-17T15:37:35Z</time>
<desc>lat.=55.837063, lon.=26.047262, Alt.=151.259888m. Speed=1.080000m/h.</desc>
<speed>0.300000</speed>
</trkpt>
<trkpt lat="55.837048" lon="26.047255">
<ele>151.904419</ele>
<time>2010-07-17T15:37:36Z</time>
<desc>lat.=55.837048, lon.=26.047255, Alt.=151.904419m. Speed=1.260000m/h.</desc>
<speed>0.350000</speed>
</trkpt>
<trkpt lat="55.837040" lon="26.047256">
<ele>152.767700</ele>
<time>2010-07-17T15:37:37Z</time>
<desc>lat.=55.837040, lon.=26.047256, Alt.=152.767700m. Speed=1.188000m/h.</desc>
<speed>0.330000</speed>
</trkpt>
<trkpt lat="55.837036" lon="26.047251">
<ele>153.259888</ele>
<time>2010-07-17T15:37:38Z</time>
<desc>lat.=55.837036, lon.=26.047251, Alt.=153.259888m. Speed=1.080000m/h.</desc>
<speed>0.300000</speed>
</trkpt>
<trkpt lat="55.837036" lon="26.047253">
<ele>153.763794</ele>
<time>2010-07-17T15:37:39Z</time>
<desc>lat.=55.837036, lon.=26.047253, Alt.=153.763794m. Speed=0.936000m/h.</desc>
<speed>0.260000</speed>
</trkpt>
<trkpt lat="55.837032" lon="26.047255">
<ele>154.205200</ele>
<time>2010-07-17T15:37:40Z</time>
<desc>lat.=55.837032, lon.=26.047255, Alt.=154.205200m. Speed=0.828000m/h.</desc>
<speed>0.230000</speed>
</trkpt>
<trkpt lat="55.837029" lon="26.047264">
<ele>154.970825</ele>
<time>2010-07-17T15:37:41Z</time>
<desc>lat.=55.837029, lon.=26.047264, Alt.=154.970825m. Speed=0.648000m/h.</desc>
<speed>0.180000</speed>
</trkpt>
<trkpt lat="55.837029" lon="26.047266">
<ele>155.505981</ele>
<time>2010-07-17T15:37:42Z</time>
<desc>lat.=55.837029, lon.=26.047266, Alt.=155.505981m. Speed=0.540000m/h.</desc>
<speed>0.150000</speed>
</trkpt>
<trkpt lat="55.837029" lon="26.047266">
<ele>155.834106</ele>
<time>2010-07-17T15:37:43Z</time>
<desc>lat.=55.837029, lon.=26.047266, Alt.=155.834106m. Speed=0.504000m/h.</desc>
<speed>0.140000</speed>
</trkpt>
<trkpt lat="55.837025" lon="26.047264">
<ele>156.162231</ele>
<time>2010-07-17T15:37:44Z</time>
<desc>lat.=55.837025, lon.=26.047264, Alt.=156.162231m. Speed=0.684000m/h.</desc>
<speed>0.190000</speed>
</trkpt>
<trkpt lat="55.837025" lon="26.047264">
<ele>156.498169</ele>
<time>2010-07-17T15:37:45Z</time>
<desc>lat.=55.837025, lon.=26.047264, Alt.=156.498169m. Speed=0.720000m/h.</desc>
<speed>0.200000</speed>
</trkpt>
<trkpt lat="55.837021" lon="26.047264">
<ele>156.834106</ele>
<time>2010-07-17T15:37:46Z</time>
<desc>lat.=55.837021, lon.=26.047264, Alt.=156.834106m. Speed=0.576000m/h.</desc>
<speed>0.160000</speed>
</trkpt>
<trkpt lat="55.837021" lon="26.047264">
<ele>157.170044</ele>
<time>2010-07-17T15:37:47Z</time>
<desc>lat.=55.837021, lon.=26.047264, Alt.=157.170044m. Speed=0.360000m/h.</desc>
<speed>0.100000</speed>
</trkpt>
<trkpt lat="55.837021" lon="26.047264">
<ele>157.502075</ele>
<time>2010-07-17T15:37:48Z</time>
<desc>lat.=55.837021, lon.=26.047264, Alt.=157.502075m. Speed=0.216000m/h.</desc>
<speed>0.060000</speed>
</trkpt>
<trkpt lat="55.837021" lon="26.047264">
<ele>157.841919</ele>
<time>2010-07-17T15:37:49Z</time>
<desc>lat.=55.837021, lon.=26.047264, Alt.=157.841919m. Speed=0.036000m/h.</desc>
<speed>0.010000</speed>
</trkpt>
<trkpt lat="55.837021" lon="26.047264">
<ele>158.138794</ele>
<time>2010-07-17T15:37:50Z</time>
<desc>lat.=55.837021, lon.=26.047264, Alt.=158.138794m. Speed=0.144000m/h.</desc>
<speed>0.040000</speed>
</trkpt>
<trkpt lat="55.837021" lon="26.047266">
<ele>158.377075</ele>
<time>2010-07-17T15:37:51Z</time>
<desc>lat.=55.837021, lon.=26.047266, Alt.=158.377075m. Speed=0.288000m/h.</desc>
<speed>0.080000</speed>
</trkpt>
<trkpt lat="55.837021" lon="26.047266">
<ele>158.615356</ele>
<time>2010-07-17T15:37:52Z</time>
<desc>lat.=55.837021, lon.=26.047266, Alt.=158.615356m. Speed=0.144000m/h.</desc>
<speed>0.040000</speed>
</trkpt>
<trkpt lat="55.837021" lon="26.047266">
<ele>158.857544</ele>
<time>2010-07-17T15:37:53Z</time>
<desc>lat.=55.837021, lon.=26.047266, Alt.=158.857544m. Speed=0.144000m/h.</desc>
<speed>0.040000</speed>
</trkpt>
<trkpt lat="55.837021" lon="26.047266">
<ele>159.099731</ele>
<time>2010-07-17T15:37:54Z</time>
<desc>lat.=55.837021, lon.=26.047266, Alt.=159.099731m. Speed=0.252000m/h.</desc>
<speed>0.070000</speed>
</trkpt>
<trkpt lat="55.837021" lon="26.047268">
<ele>159.349731</ele>
<time>2010-07-17T15:37:55Z</time>
<desc>lat.=55.837021, lon.=26.047268, Alt.=159.349731m. Speed=0.432000m/h.</desc>
<speed>0.120000</speed>
</trkpt>
<trkpt lat="55.837025" lon="26.047268">
<ele>159.595825</ele>
<time>2010-07-17T15:37:56Z</time>
<desc>lat.=55.837025, lon.=26.047268, Alt.=159.595825m. Speed=0.504000m/h.</desc>
<speed>0.140000</speed>
</trkpt>
<trkpt lat="55.837025" lon="26.047270">
<ele>159.849731</ele>
<time>2010-07-17T15:37:57Z</time>
<desc>lat.=55.837025, lon.=26.047270, Alt.=159.849731m. Speed=0.792000m/h.</desc>
<speed>0.220000</speed>
</trkpt>
<trkpt lat="55.837029" lon="26.047270">
<ele>160.099731</ele>
<time>2010-07-17T15:37:58Z</time>
<desc>lat.=55.837029, lon.=26.047270, Alt.=160.099731m. Speed=0.900000m/h.</desc>
<speed>0.250000</speed>
</trkpt>
<trkpt lat="55.837029" lon="26.047272">
<ele>160.353638</ele>
<time>2010-07-17T15:37:59Z</time>
<desc>lat.=55.837029, lon.=26.047272, Alt.=160.353638m. Speed=1.044000m/h.</desc>
<speed>0.290000</speed>
</trkpt>
<trkpt lat="55.837032" lon="26.047272">
<ele>160.611450</ele>
<time>2010-07-17T15:38:00Z</time>
<desc>lat.=55.837032, lon.=26.047272, Alt.=160.611450m. Speed=1.044000m/h.</desc>
<speed>0.290000</speed>
</trkpt>
<trkpt lat="55.837036" lon="26.047272">
<ele>160.869263</ele>
<time>2010-07-17T15:38:01Z</time>
<desc>lat.=55.837036, lon.=26.047272, Alt.=160.869263m. Speed=0.972000m/h.</desc>
<speed>0.270000</speed>
</trkpt>
<trkpt lat="55.837036" lon="26.047272">
<ele>161.127075</ele>
<time>2010-07-17T15:38:02Z</time>
<desc>lat.=55.837036, lon.=26.047272, Alt.=161.127075m. Speed=0.756000m/h.</desc>
<speed>0.210000</speed>
</trkpt>
<trkpt lat="55.837040" lon="26.047272">
<ele>161.392700</ele>
<time>2010-07-17T15:38:03Z</time>
<desc>lat.=55.837040, lon.=26.047272, Alt.=161.392700m. Speed=0.720000m/h.</desc>
<speed>0.200000</speed>
</trkpt>
<trkpt lat="55.837040" lon="26.047272">
<ele>161.666138</ele>
<time>2010-07-17T15:38:04Z</time>
<desc>lat.=55.837040, lon.=26.047272, Alt.=161.666138m. Speed=0.756000m/h.</desc>
<speed>0.210000</speed>
</trkpt>
<trkpt lat="55.837044" lon="26.047270">
<ele>161.947388</ele>
<time>2010-07-17T15:38:05Z</time>
<desc>lat.=55.837044, lon.=26.047270, Alt.=161.947388m. Speed=0.792000m/h.</desc>
<speed>0.220000</speed>
</trkpt>
<trkpt lat="55.837044" lon="26.047272">
<ele>162.232544</ele>
<time>2010-07-17T15:38:06Z</time>
<desc>lat.=55.837044, lon.=26.047272, Alt.=162.232544m. Speed=0.720000m/h.</desc>
<speed>0.200000</speed>
</trkpt>
<trkpt lat="55.837048" lon="26.047272">
<ele>162.521606</ele>
<time>2010-07-17T15:38:07Z</time>
<desc>lat.=55.837048, lon.=26.047272, Alt.=162.521606m. Speed=0.648000m/h.</desc>
<speed>0.180000</speed>
</trkpt>
<trkpt lat="55.837048" lon="26.047272">
<ele>162.810669</ele>
<time>2010-07-17T15:38:08Z</time>
<desc>lat.=55.837048, lon.=26.047272, Alt.=162.810669m. Speed=0.720000m/h.</desc>
<speed>0.200000</speed>
</trkpt>
<trkpt lat="55.837051" lon="26.047272">
<ele>163.095825</ele>
<time>2010-07-17T15:38:09Z</time>
<desc>lat.=55.837051, lon.=26.047272, Alt.=163.095825m. Speed=0.684000m/h.</desc>
<speed>0.190000</speed>
</trkpt>
<trkpt lat="55.837051" lon="26.047272">
<ele>163.388794</ele>
<time>2010-07-17T15:38:10Z</time>
<desc>lat.=55.837051, lon.=26.047272, Alt.=163.388794m. Speed=0.648000m/h.</desc>
<speed>0.180000</speed>
</trkpt>
<trkpt lat="55.837055" lon="26.047270">
<ele>163.685669</ele>
<time>2010-07-17T15:38:11Z</time>
<desc>lat.=55.837055, lon.=26.047270, Alt.=163.685669m. Speed=0.684000m/h.</desc>
<speed>0.190000</speed>
</trkpt>
<trkpt lat="55.837055" lon="26.047270">
<ele>163.974731</ele>
<time>2010-07-17T15:38:12Z</time>
<desc>lat.=55.837055, lon.=26.047270, Alt.=163.974731m. Speed=0.720000m/h.</desc>
<speed>0.200000</speed>
</trkpt>
<trkpt lat="55.837059" lon="26.047270">
<ele>164.271606</ele>
<time>2010-07-17T15:38:13Z</time>
<desc>lat.=55.837059, lon.=26.047270, Alt.=164.271606m. Speed=0.684000m/h.</desc>
<speed>0.190000</speed>
</trkpt>
<trkpt lat="55.837059" lon="26.047268">
<ele>164.568481</ele>
<time>2010-07-17T15:38:14Z</time>
<desc>lat.=55.837059, lon.=26.047268, Alt.=164.568481m. Speed=0.720000m/h.</desc>
<speed>0.200000</speed>
</trkpt>
<trkpt lat="55.837063" lon="26.047268">
<ele>164.861450</ele>
<time>2010-07-17T15:38:15Z</time>
<desc>lat.=55.837063, lon.=26.047268, Alt.=164.861450m. Speed=0.756000m/h.</desc>
<speed>0.210000</speed>
</trkpt>
<trkpt lat="55.837063" lon="26.047268">
<ele>165.154419</ele>
<time>2010-07-17T15:38:16Z</time>
<desc>lat.=55.837063, lon.=26.047268, Alt.=165.154419m. Speed=0.576000m/h.</desc>
<speed>0.160000</speed>
</trkpt>
<trkpt lat="55.837063" lon="26.047266">
<ele>165.443481</ele>
<time>2010-07-17T15:38:17Z</time>
<desc>lat.=55.837063, lon.=26.047266, Alt.=165.443481m. Speed=0.684000m/h.</desc>
<speed>0.190000</speed>
</trkpt>
<trkpt lat="55.837067" lon="26.047266">
<ele>165.728638</ele>
<time>2010-07-17T15:38:18Z</time>
<desc>lat.=55.837067, lon.=26.047266, Alt.=165.728638m. Speed=0.576000m/h.</desc>
<speed>0.160000</speed>
</trkpt>
<trkpt lat="55.837067" lon="26.047264">
<ele>166.009888</ele>
<time>2010-07-17T15:38:19Z</time>
<desc>lat.=55.837067, lon.=26.047264, Alt.=166.009888m. Speed=0.720000m/h.</desc>
<speed>0.200000</speed>
</trkpt>
<trkpt lat="55.837070" lon="26.047262">
<ele>166.287231</ele>
<time>2010-07-17T15:38:20Z</time>
<desc>lat.=55.837070, lon.=26.047262, Alt.=166.287231m. Speed=0.720000m/h.</desc>
<speed>0.200000</speed>
</trkpt>
<trkpt lat="55.837070" lon="26.047262">
<ele>166.568481</ele>
<time>2010-07-17T15:38:21Z</time>
<desc>lat.=55.837070, lon.=26.047262, Alt.=166.568481m. Speed=0.720000m/h.</desc>
<speed>0.200000</speed>
</trkpt>
<trkpt lat="55.837074" lon="26.047260">
<ele>166.849731</ele>
<time>2010-07-17T15:38:22Z</time>
<desc>lat.=55.837074, lon.=26.047260, Alt.=166.849731m. Speed=0.756000m/h.</desc>
<speed>0.210000</speed>
</trkpt>
<trkpt lat="55.837074" lon="26.047258">
<ele>167.134888</ele>
<time>2010-07-17T15:38:23Z</time>
<desc>lat.=55.837074, lon.=26.047258, Alt.=167.134888m. Speed=0.900000m/h.</desc>
<speed>0.250000</speed>
</trkpt>
<trkpt lat="55.837078" lon="26.047256">
<ele>167.416138</ele>
<time>2010-07-17T15:38:24Z</time>
<desc>lat.=55.837078, lon.=26.047256, Alt.=167.416138m. Speed=0.864000m/h.</desc>
<speed>0.240000</speed>
</trkpt>
<trkpt lat="55.837078" lon="26.047256">
<ele>167.697388</ele>
<time>2010-07-17T15:38:25Z</time>
<desc>lat.=55.837078, lon.=26.047256, Alt.=167.697388m. Speed=0.792000m/h.</desc>
<speed>0.220000</speed>
</trkpt>
<trkpt lat="55.837082" lon="26.047255">
<ele>167.978638</ele>
<time>2010-07-17T15:38:26Z</time>
<desc>lat.=55.837082, lon.=26.047255, Alt.=167.978638m. Speed=0.540000m/h.</desc>
<speed>0.150000</speed>
</trkpt>
<trkpt lat="55.837082" lon="26.047253">
<ele>168.255981</ele>
<time>2010-07-17T15:38:27Z</time>
<desc>lat.=55.837082, lon.=26.047253, Alt.=168.255981m. Speed=0.288000m/h.</desc>
<speed>0.080000</speed>
</trkpt>
<trkpt lat="55.837082" lon="26.047253">
<ele>168.521606</ele>
<time>2010-07-17T15:38:28Z</time>
<desc>lat.=55.837082, lon.=26.047253, Alt.=168.521606m. Speed=0.324000m/h.</desc>
<speed>0.090000</speed>
</trkpt>
<trkpt lat="55.837082" lon="26.047251">
<ele>168.783325</ele>
<time>2010-07-17T15:38:29Z</time>
<desc>lat.=55.837082, lon.=26.047251, Alt.=168.783325m. Speed=0.468000m/h.</desc>
<speed>0.130000</speed>
</trkpt>
<trkpt lat="55.837086" lon="26.047251">
<ele>169.037231</ele>
<time>2010-07-17T15:38:30Z</time>
<desc>lat.=55.837086, lon.=26.047251, Alt.=169.037231m. Speed=0.648000m/h.</desc>
<speed>0.180000</speed>
</trkpt>
<trkpt lat="55.837086" lon="26.047249">
<ele>169.283325</ele>
<time>2010-07-17T15:38:31Z</time>
<desc>lat.=55.837086, lon.=26.047249, Alt.=169.283325m. Speed=0.720000m/h.</desc>
<speed>0.200000</speed>
</trkpt>
<trkpt lat="55.837090" lon="26.047249">
<ele>169.525513</ele>
<time>2010-07-17T15:38:32Z</time>
<desc>lat.=55.837090, lon.=26.047249, Alt.=169.525513m. Speed=0.720000m/h.</desc>
<speed>0.200000</speed>
</trkpt>
<trkpt lat="55.837090" lon="26.047249">
<ele>169.752075</ele>
<time>2010-07-17T15:38:33Z</time>
<desc>lat.=55.837090, lon.=26.047249, Alt.=169.752075m. Speed=0.792000m/h.</desc>
<speed>0.220000</speed>
</trkpt>
<trkpt lat="55.837093" lon="26.047249">
<ele>169.970825</ele>
<time>2010-07-17T15:38:34Z</time>
<desc>lat.=55.837093, lon.=26.047249, Alt.=169.970825m. Speed=0.864000m/h.</desc>
<speed>0.240000</speed>
</trkpt>
<trkpt lat="55.837093" lon="26.047251">
<ele>170.181763</ele>
<time>2010-07-17T15:38:35Z</time>
<desc>lat.=55.837093, lon.=26.047251, Alt.=170.181763m. Speed=0.756000m/h.</desc>
<speed>0.210000</speed>
</trkpt>
<trkpt lat="55.837097" lon="26.047253">
<ele>170.392700</ele>
<time>2010-07-17T15:38:36Z</time>
<desc>lat.=55.837097, lon.=26.047253, Alt.=170.392700m. Speed=0.792000m/h.</desc>
<speed>0.220000</speed>
</trkpt>
<trkpt lat="55.837097" lon="26.047253">
<ele>170.599731</ele>
<time>2010-07-17T15:38:37Z</time>
<desc>lat.=55.837097, lon.=26.047253, Alt.=170.599731m. Speed=0.756000m/h.</desc>
<speed>0.210000</speed>
</trkpt>
<trkpt lat="55.837101" lon="26.047255">
<ele>170.802856</ele>
<time>2010-07-17T15:38:38Z</time>
<desc>lat.=55.837101, lon.=26.047255, Alt.=170.802856m. Speed=0.684000m/h.</desc>
<speed>0.190000</speed>
</trkpt>
<trkpt lat="55.837101" lon="26.047256">
<ele>171.005981</ele>
<time>2010-07-17T15:38:39Z</time>
<desc>lat.=55.837101, lon.=26.047256, Alt.=171.005981m. Speed=0.720000m/h.</desc>
<speed>0.200000</speed>
</trkpt>
<trkpt lat="55.837101" lon="26.047258">
<ele>171.201294</ele>
<time>2010-07-17T15:38:40Z</time>
<desc>lat.=55.837101, lon.=26.047258, Alt.=171.201294m. Speed=0.792000m/h.</desc>
<speed>0.220000</speed>
</trkpt>
<trkpt lat="55.837105" lon="26.047262">
<ele>171.396606</ele>
<time>2010-07-17T15:38:41Z</time>
<desc>lat.=55.837105, lon.=26.047262, Alt.=171.396606m. Speed=0.756000m/h.</desc>
<speed>0.210000</speed>
</trkpt>
<trkpt lat="55.837105" lon="26.047264">
<ele>171.584106</ele>
<time>2010-07-17T15:38:42Z</time>
<desc>lat.=55.837105, lon.=26.047264, Alt.=171.584106m. Speed=0.828000m/h.</desc>
<speed>0.230000</speed>
</trkpt>
<trkpt lat="55.837109" lon="26.047266">
<ele>171.775513</ele>
<time>2010-07-17T15:38:43Z</time>
<desc>lat.=55.837109, lon.=26.047266, Alt.=171.775513m. Speed=0.900000m/h.</desc>
<speed>0.250000</speed>
</trkpt>
<trkpt lat="55.837109" lon="26.047266">
<ele>171.966919</ele>
<time>2010-07-17T15:38:44Z</time>
<desc>lat.=55.837109, lon.=26.047266, Alt.=171.966919m. Speed=1.116000m/h.</desc>
<speed>0.310000</speed>
</trkpt>
<trkpt lat="55.837112" lon="26.047258">
<ele>172.525513</ele>
<time>2010-07-17T15:38:45Z</time>
<desc>lat.=55.837112, lon.=26.047258, Alt.=172.525513m. Speed=1.116000m/h.</desc>
<speed>0.310000</speed>
</trkpt>
<trkpt lat="55.837112" lon="26.047249">
<ele>172.826294</ele>
<time>2010-07-17T15:38:46Z</time>
<desc>lat.=55.837112, lon.=26.047249, Alt.=172.826294m. Speed=1.044000m/h.</desc>
<speed>0.290000</speed>
</trkpt>
<trkpt lat="55.837112" lon="26.047247">
<ele>172.912231</ele>
<time>2010-07-17T15:38:47Z</time>
<desc>lat.=55.837112, lon.=26.047247, Alt.=172.912231m. Speed=0.936000m/h.</desc>
<speed>0.260000</speed>
</trkpt>
<trkpt lat="55.837116" lon="26.047239">
<ele>172.822388</ele>
<time>2010-07-17T15:38:48Z</time>
<desc>lat.=55.837116, lon.=26.047239, Alt.=172.822388m. Speed=0.828000m/h.</desc>
<speed>0.230000</speed>
</trkpt>
<trkpt lat="55.837116" lon="26.047232">
<ele>172.564575</ele>
<time>2010-07-17T15:38:49Z</time>
<desc>lat.=55.837116, lon.=26.047232, Alt.=172.564575m. Speed=0.720000m/h.</desc>
<speed>0.200000</speed>
</trkpt>
<trkpt lat="55.837120" lon="26.047230">
<ele>172.744263</ele>
<time>2010-07-17T15:38:50Z</time>
<desc>lat.=55.837120, lon.=26.047230, Alt.=172.744263m. Speed=0.648000m/h.</desc>
<speed>0.180000</speed>
</trkpt>
<trkpt lat="55.837120" lon="26.047230">
<ele>172.923950</ele>
<time>2010-07-17T15:38:51Z</time>
<desc>lat.=55.837120, lon.=26.047230, Alt.=172.923950m. Speed=0.648000m/h.</desc>
<speed>0.180000</speed>
</trkpt>
<trkpt lat="55.837124" lon="26.047228">
<ele>173.095825</ele>
<time>2010-07-17T15:38:52Z</time>
<desc>lat.=55.837124, lon.=26.047228, Alt.=173.095825m. Speed=0.504000m/h.</desc>
<speed>0.140000</speed>
</trkpt>
<trkpt lat="55.837124" lon="26.047228">
<ele>173.255981</ele>
<time>2010-07-17T15:38:53Z</time>
<desc>lat.=55.837124, lon.=26.047228, Alt.=173.255981m. Speed=0.324000m/h.</desc>
<speed>0.090000</speed>
</trkpt>
<trkpt lat="55.837124" lon="26.047228">
<ele>173.412231</ele>
<time>2010-07-17T15:38:54Z</time>
<desc>lat.=55.837124, lon.=26.047228, Alt.=173.412231m. Speed=0.036000m/h.</desc>
<speed>0.010000</speed>
</trkpt>
<trkpt lat="55.837124" lon="26.047228">
<ele>173.568481</ele>
<time>2010-07-17T15:38:55Z</time>
<desc>lat.=55.837124, lon.=26.047228, Alt.=173.568481m. Speed=0.216000m/h.</desc>
<speed>0.060000</speed>
</trkpt>
<trkpt lat="55.837124" lon="26.047226">
<ele>173.720825</ele>
<time>2010-07-17T15:38:56Z</time>
<desc>lat.=55.837124, lon.=26.047226, Alt.=173.720825m. Speed=0.252000m/h.</desc>
<speed>0.070000</speed>
</trkpt>
<trkpt lat="55.837124" lon="26.047226">
<ele>173.877075</ele>
<time>2010-07-17T15:38:57Z</time>
<desc>lat.=55.837124, lon.=26.047226, Alt.=173.877075m. Speed=0.432000m/h.</desc>
<speed>0.120000</speed>
</trkpt>
<trkpt lat="55.837120" lon="26.047226">
<ele>174.025513</ele>
<time>2010-07-17T15:38:58Z</time>
<desc>lat.=55.837120, lon.=26.047226, Alt.=174.025513m. Speed=0.648000m/h.</desc>
<speed>0.180000</speed>
</trkpt>
<trkpt lat="55.837120" lon="26.047226">
<ele>174.170044</ele>
<time>2010-07-17T15:38:59Z</time>
<desc>lat.=55.837120, lon.=26.047226, Alt.=174.170044m. Speed=0.720000m/h.</desc>
<speed>0.200000</speed>
</trkpt>
<trkpt lat="55.837116" lon="26.047224">
<ele>174.306763</ele>
<time>2010-07-17T15:39:00Z</time>
<desc>lat.=55.837116, lon.=26.047224, Alt.=174.306763m. Speed=0.720000m/h.</desc>
<speed>0.200000</speed>
</trkpt>
<trkpt lat="55.837116" lon="26.047226">
<ele>174.439575</ele>
<time>2010-07-17T15:39:01Z</time>
<desc>lat.=55.837116, lon.=26.047226, Alt.=174.439575m. Speed=0.828000m/h.</desc>
<speed>0.230000</speed>
</trkpt>
<trkpt lat="55.837112" lon="26.047226">
<ele>174.560669</ele>
<time>2010-07-17T15:39:02Z</time>
<desc>lat.=55.837112, lon.=26.047226, Alt.=174.560669m. Speed=0.684000m/h.</desc>
<speed>0.190000</speed>
</trkpt>
<trkpt lat="55.837112" lon="26.047226">
<ele>174.677856</ele>
<time>2010-07-17T15:39:03Z</time>
<desc>lat.=55.837112, lon.=26.047226, Alt.=174.677856m. Speed=0.648000m/h.</desc>
<speed>0.180000</speed>
</trkpt>
<trkpt lat="55.837109" lon="26.047228">
<ele>174.791138</ele>
<time>2010-07-17T15:39:04Z</time>
<desc>lat.=55.837109, lon.=26.047228, Alt.=174.791138m. Speed=0.612000m/h.</desc>
<speed>0.170000</speed>
</trkpt>
<trkpt lat="55.837109" lon="26.047228">
<ele>174.900513</ele>
<time>2010-07-17T15:39:05Z</time>
<desc>lat.=55.837109, lon.=26.047228, Alt.=174.900513m. Speed=0.612000m/h.</desc>
<speed>0.170000</speed>
</trkpt>
<trkpt lat="55.837109" lon="26.047230">
<ele>175.005981</ele>
<time>2010-07-17T15:39:06Z</time>
<desc>lat.=55.837109, lon.=26.047230, Alt.=175.005981m. Speed=0.648000m/h.</desc>
<speed>0.180000</speed>
</trkpt>
<trkpt lat="55.837105" lon="26.047230">
<ele>175.103638</ele>
<time>2010-07-17T15:39:07Z</time>
<desc>lat.=55.837105, lon.=26.047230, Alt.=175.103638m. Speed=0.648000m/h.</desc>
<speed>0.180000</speed>
</trkpt>
<trkpt lat="55.837105" lon="26.047232">
<ele>175.185669</ele>
<time>2010-07-17T15:39:08Z</time>
<desc>lat.=55.837105, lon.=26.047232, Alt.=175.185669m. Speed=0.612000m/h.</desc>
<speed>0.170000</speed>
</trkpt>
<trkpt lat="55.837105" lon="26.047234">
<ele>175.248169</ele>
<time>2010-07-17T15:39:09Z</time>
<desc>lat.=55.837105, lon.=26.047234, Alt.=175.248169m. Speed=0.540000m/h.</desc>
<speed>0.150000</speed>
</trkpt>
<trkpt lat="55.837105" lon="26.047237">
<ele>175.298950</ele>
<time>2010-07-17T15:39:10Z</time>
<desc>lat.=55.837105, lon.=26.047237, Alt.=175.298950m. Speed=0.576000m/h.</desc>
<speed>0.160000</speed>
</trkpt>
<trkpt lat="55.837105" lon="26.047239">
<ele>175.341919</ele>
<time>2010-07-17T15:39:11Z</time>
<desc>lat.=55.837105, lon.=26.047239, Alt.=175.341919m. Speed=0.612000m/h.</desc>
<speed>0.170000</speed>
</trkpt>
<trkpt lat="55.837105" lon="26.047241">
<ele>175.380981</ele>
<time>2010-07-17T15:39:12Z</time>
<desc>lat.=55.837105, lon.=26.047241, Alt.=175.380981m. Speed=0.468000m/h.</desc>
<speed>0.130000</speed>
</trkpt>
<trkpt lat="55.837105" lon="26.047243">
<ele>175.412231</ele>
<time>2010-07-17T15:39:13Z</time>
<desc>lat.=55.837105, lon.=26.047243, Alt.=175.412231m. Speed=0.468000m/h.</desc>
<speed>0.130000</speed>
</trkpt>
<trkpt lat="55.837105" lon="26.047247">
<ele>175.435669</ele>
<time>2010-07-17T15:39:14Z</time>
<desc>lat.=55.837105, lon.=26.047247, Alt.=175.435669m. Speed=0.540000m/h.</desc>
<speed>0.150000</speed>
</trkpt>
<trkpt lat="55.837105" lon="26.047249">
<ele>175.455200</ele>
<time>2010-07-17T15:39:15Z</time>
<desc>lat.=55.837105, lon.=26.047249, Alt.=175.455200m. Speed=0.576000m/h.</desc>
<speed>0.160000</speed>
</trkpt>
<trkpt lat="55.837101" lon="26.047251">
<ele>175.474731</ele>
<time>2010-07-17T15:39:16Z</time>
<desc>lat.=55.837101, lon.=26.047251, Alt.=175.474731m. Speed=0.504000m/h.</desc>
<speed>0.140000</speed>
</trkpt>
<trkpt lat="55.837101" lon="26.047253">
<ele>175.490356</ele>
<time>2010-07-17T15:39:17Z</time>
<desc>lat.=55.837101, lon.=26.047253, Alt.=175.490356m. Speed=0.432000m/h.</desc>
<speed>0.120000</speed>
</trkpt>
<trkpt lat="55.837101" lon="26.047255">
<ele>175.502075</ele>
<time>2010-07-17T15:39:18Z</time>
<desc>lat.=55.837101, lon.=26.047255, Alt.=175.502075m. Speed=0.360000m/h.</desc>
<speed>0.100000</speed>
</trkpt>
<trkpt lat="55.837101" lon="26.047255">
<ele>175.513794</ele>
<time>2010-07-17T15:39:19Z</time>
<desc>lat.=55.837101, lon.=26.047255, Alt.=175.513794m. Speed=0.396000m/h.</desc>
<speed>0.110000</speed>
</trkpt>
<trkpt lat="55.837097" lon="26.047255">
<ele>175.521606</ele>
<time>2010-07-17T15:39:20Z</time>
<desc>lat.=55.837097, lon.=26.047255, Alt.=175.521606m. Speed=0.612000m/h.</desc>
<speed>0.170000</speed>
</trkpt>
<trkpt lat="55.837097" lon="26.047256">
<ele>175.521606</ele>
<time>2010-07-17T15:39:21Z</time>
<desc>lat.=55.837097, lon.=26.047256, Alt.=175.521606m. Speed=0.756000m/h.</desc>
<speed>0.210000</speed>
</trkpt>
<trkpt lat="55.837097" lon="26.047258">
<ele>175.509888</ele>
<time>2010-07-17T15:39:22Z</time>
<desc>lat.=55.837097, lon.=26.047258, Alt.=175.509888m. Speed=0.864000m/h.</desc>
<speed>0.240000</speed>
</trkpt>
<trkpt lat="55.837093" lon="26.047260">
<ele>175.486450</ele>
<time>2010-07-17T15:39:23Z</time>
<desc>lat.=55.837093, lon.=26.047260, Alt.=175.486450m. Speed=0.900000m/h.</desc>
<speed>0.250000</speed>
</trkpt>
<trkpt lat="55.837090" lon="26.047262">
<ele>175.459106</ele>
<time>2010-07-17T15:39:24Z</time>
<desc>lat.=55.837090, lon.=26.047262, Alt.=175.459106m. Speed=0.792000m/h.</desc>
<speed>0.220000</speed>
</trkpt>
<trkpt lat="55.837090" lon="26.047264">
<ele>175.431763</ele>
<time>2010-07-17T15:39:25Z</time>
<desc>lat.=55.837090, lon.=26.047264, Alt.=175.431763m. Speed=0.792000m/h.</desc>
<speed>0.220000</speed>
</trkpt>
<trkpt lat="55.837086" lon="26.047264">
<ele>175.408325</ele>
<time>2010-07-17T15:39:26Z</time>
<desc>lat.=55.837086, lon.=26.047264, Alt.=175.408325m. Speed=0.900000m/h.</desc>
<speed>0.250000</speed>
</trkpt>
<trkpt lat="55.837086" lon="26.047266">
<ele>175.380981</ele>
<time>2010-07-17T15:39:27Z</time>
<desc>lat.=55.837086, lon.=26.047266, Alt.=175.380981m. Speed=0.900000m/h.</desc>
<speed>0.250000</speed>
</trkpt>
<trkpt lat="55.837082" lon="26.047268">
<ele>175.349731</ele>
<time>2010-07-17T15:39:28Z</time>
<desc>lat.=55.837082, lon.=26.047268, Alt.=175.349731m. Speed=1.260000m/h.</desc>
<speed>0.350000</speed>
</trkpt>
<trkpt lat="55.837067" lon="26.047266">
<ele>174.720825</ele>
<time>2010-07-17T15:39:29Z</time>
<desc>lat.=55.837067, lon.=26.047266, Alt.=174.720825m. Speed=1.548000m/h.</desc>
<speed>0.430000</speed>
</trkpt>
<trkpt lat="55.837059" lon="26.047266">
<ele>174.634888</ele>
<time>2010-07-17T15:39:30Z</time>
<desc>lat.=55.837059, lon.=26.047266, Alt.=174.634888m. Speed=1.512000m/h.</desc>
<speed>0.420000</speed>
</trkpt>
<trkpt lat="55.837051" lon="26.047262">
<ele>174.130981</ele>
<time>2010-07-17T15:39:31Z</time>
<desc>lat.=55.837051, lon.=26.047262, Alt.=174.130981m. Speed=1.404000m/h.</desc>
<speed>0.390000</speed>
</trkpt>
<trkpt lat="55.837040" lon="26.047258">
<ele>173.646606</ele>
<time>2010-07-17T15:39:32Z</time>
<desc>lat.=55.837040, lon.=26.047258, Alt.=173.646606m. Speed=1.296000m/h.</desc>
<speed>0.360000</speed>
</trkpt>
<trkpt lat="55.837032" lon="26.047258">
<ele>173.088013</ele>
<time>2010-07-17T15:39:33Z</time>
<desc>lat.=55.837032, lon.=26.047258, Alt.=173.088013m. Speed=1.116000m/h.</desc>
<speed>0.310000</speed>
</trkpt>
<trkpt lat="55.837032" lon="26.047256">
<ele>172.330200</ele>
<time>2010-07-17T15:39:34Z</time>
<desc>lat.=55.837032, lon.=26.047256, Alt.=172.330200m. Speed=0.936000m/h.</desc>
<speed>0.260000</speed>
</trkpt>
<trkpt lat="55.837029" lon="26.047260">
<ele>171.638794</ele>
<time>2010-07-17T15:39:35Z</time>
<desc>lat.=55.837029, lon.=26.047260, Alt.=171.638794m. Speed=0.828000m/h.</desc>
<speed>0.230000</speed>
</trkpt>
<trkpt lat="55.837029" lon="26.047260">
<ele>170.974731</ele>
<time>2010-07-17T15:39:36Z</time>
<desc>lat.=55.837029, lon.=26.047260, Alt.=170.974731m. Speed=0.720000m/h.</desc>
<speed>0.200000</speed>
</trkpt>
<trkpt lat="55.837032" lon="26.047260">
<ele>170.724731</ele>
<time>2010-07-17T15:39:37Z</time>
<desc>lat.=55.837032, lon.=26.047260, Alt.=170.724731m. Speed=0.576000m/h.</desc>
<speed>0.160000</speed>
</trkpt>
<trkpt lat="55.837032" lon="26.047260">
<ele>170.642700</ele>
<time>2010-07-17T15:39:38Z</time>
<desc>lat.=55.837032, lon.=26.047260, Alt.=170.642700m. Speed=0.360000m/h.</desc>
<speed>0.100000</speed>
</trkpt>
<trkpt lat="55.837032" lon="26.047262">
<ele>170.552856</ele>
<time>2010-07-17T15:39:39Z</time>
<desc>lat.=55.837032, lon.=26.047262, Alt.=170.552856m. Speed=0.360000m/h.</desc>
<speed>0.100000</speed>
</trkpt>
<trkpt lat="55.837032" lon="26.047262">
<ele>170.466919</ele>
<time>2010-07-17T15:39:40Z</time>
<desc>lat.=55.837032, lon.=26.047262, Alt.=170.466919m. Speed=0.072000m/h.</desc>
<speed>0.020000</speed>
</trkpt>
<trkpt lat="55.837032" lon="26.047264">
<ele>170.373169</ele>
<time>2010-07-17T15:39:41Z</time>
<desc>lat.=55.837032, lon.=26.047264, Alt.=170.373169m. Speed=0.036000m/h.</desc>
<speed>0.010000</speed>
</trkpt>
<trkpt lat="55.837032" lon="26.047262">
<ele>170.279419</ele>
<time>2010-07-17T15:39:42Z</time>
<desc>lat.=55.837032, lon.=26.047262, Alt.=170.279419m. Speed=0.144000m/h.</desc>
<speed>0.040000</speed>
</trkpt>
<trkpt lat="55.837032" lon="26.047262">
<ele>170.181763</ele>
<time>2010-07-17T15:39:43Z</time>
<desc>lat.=55.837032, lon.=26.047262, Alt.=170.181763m. Speed=0.144000m/h.</desc>
<speed>0.040000</speed>
</trkpt>
<trkpt lat="55.837032" lon="26.047262">
<ele>170.072388</ele>
<time>2010-07-17T15:39:44Z</time>
<desc>lat.=55.837032, lon.=26.047262, Alt.=170.072388m. Speed=0.036000m/h.</desc>
<speed>0.010000</speed>
</trkpt>
<trkpt lat="55.837032" lon="26.047262">
<ele>169.963013</ele>
<time>2010-07-17T15:39:45Z</time>
<desc>lat.=55.837032, lon.=26.047262, Alt.=169.963013m. Speed=0.108000m/h.</desc>
<speed>0.030000</speed>
</trkpt>
<trkpt lat="55.837032" lon="26.047262">
<ele>169.857544</ele>
<time>2010-07-17T15:39:46Z</time>
<desc>lat.=55.837032, lon.=26.047262, Alt.=169.857544m. Speed=0.036000m/h.</desc>
<speed>0.010000</speed>
</trkpt>
<trkpt lat="55.837032" lon="26.047262">
<ele>169.748169</ele>
<time>2010-07-17T15:39:47Z</time>
<desc>lat.=55.837032, lon.=26.047262, Alt.=169.748169m. Speed=0.108000m/h.</desc>
<speed>0.030000</speed>
</trkpt>
<trkpt lat="55.837032" lon="26.047262">
<ele>169.634888</ele>
<time>2010-07-17T15:39:48Z</time>
<desc>lat.=55.837032, lon.=26.047262, Alt.=169.634888m. Speed=0.180000m/h.</desc>
<speed>0.050000</speed>
</trkpt>
<trkpt lat="55.837029" lon="26.047262">
<ele>169.521606</ele>
<time>2010-07-17T15:39:49Z</time>
<desc>lat.=55.837029, lon.=26.047262, Alt.=169.521606m. Speed=0.180000m/h.</desc>
<speed>0.050000</speed>
</trkpt>
<trkpt lat="55.837029" lon="26.047262">
<ele>169.408325</ele>
<time>2010-07-17T15:39:50Z</time>
<desc>lat.=55.837029, lon.=26.047262, Alt.=169.408325m. Speed=0.360000m/h.</desc>
<speed>0.100000</speed>
</trkpt>
<trkpt lat="55.837029" lon="26.047264">
<ele>169.291138</ele>
<time>2010-07-17T15:39:51Z</time>
<desc>lat.=55.837029, lon.=26.047264, Alt.=169.291138m. Speed=0.468000m/h.</desc>
<speed>0.130000</speed>
</trkpt>
<trkpt lat="55.837029" lon="26.047266">
<ele>169.170044</ele>
<time>2010-07-17T15:39:52Z</time>
<desc>lat.=55.837029, lon.=26.047266, Alt.=169.170044m. Speed=0.504000m/h.</desc>
<speed>0.140000</speed>
</trkpt>
<trkpt lat="55.837029" lon="26.047268">
<ele>169.041138</ele>
<time>2010-07-17T15:39:53Z</time>
<desc>lat.=55.837029, lon.=26.047268, Alt.=169.041138m. Speed=0.396000m/h.</desc>
<speed>0.110000</speed>
</trkpt>
<trkpt lat="55.837029" lon="26.047270">
<ele>168.916138</ele>
<time>2010-07-17T15:39:54Z</time>
<desc>lat.=55.837029, lon.=26.047270, Alt.=168.916138m. Speed=0.432000m/h.</desc>
<speed>0.120000</speed>
</trkpt>
<trkpt lat="55.837029" lon="26.047272">
<ele>168.787231</ele>
<time>2010-07-17T15:39:55Z</time>
<desc>lat.=55.837029, lon.=26.047272, Alt.=168.787231m. Speed=0.432000m/h.</desc>
<speed>0.120000</speed>
</trkpt>
<trkpt lat="55.837029" lon="26.047274">
<ele>168.658325</ele>
<time>2010-07-17T15:39:56Z</time>
<desc>lat.=55.837029, lon.=26.047274, Alt.=168.658325m. Speed=0.468000m/h.</desc>
<speed>0.130000</speed>
</trkpt>
<trkpt lat="55.837025" lon="26.047276">
<ele>168.521606</ele>
<time>2010-07-17T15:39:57Z</time>
<desc>lat.=55.837025, lon.=26.047276, Alt.=168.521606m. Speed=0.360000m/h.</desc>
<speed>0.100000</speed>
</trkpt>
<trkpt lat="55.837025" lon="26.047276">
<ele>168.380981</ele>
<time>2010-07-17T15:39:58Z</time>
<desc>lat.=55.837025, lon.=26.047276, Alt.=168.380981m. Speed=0.324000m/h.</desc>
<speed>0.090000</speed>
</trkpt>
<trkpt lat="55.837025" lon="26.047277">
<ele>168.236450</ele>
<time>2010-07-17T15:39:59Z</time>
<desc>lat.=55.837025, lon.=26.047277, Alt.=168.236450m. Speed=0.396000m/h.</desc>
<speed>0.110000</speed>
</trkpt>
<trkpt lat="55.837025" lon="26.047279">
<ele>168.088013</ele>
<time>2010-07-17T15:40:00Z</time>
<desc>lat.=55.837025, lon.=26.047279, Alt.=168.088013m. Speed=0.324000m/h.</desc>
<speed>0.090000</speed>
</trkpt>
<trkpt lat="55.837025" lon="26.047279">
<ele>167.927856</ele>
<time>2010-07-17T15:40:01Z</time>
<desc>lat.=55.837025, lon.=26.047279, Alt.=167.927856m. Speed=0.288000m/h.</desc>
<speed>0.080000</speed>
</trkpt>
<trkpt lat="55.837025" lon="26.047279">
<ele>167.763794</ele>
<time>2010-07-17T15:40:02Z</time>
<desc>lat.=55.837025, lon.=26.047279, Alt.=167.763794m. Speed=0.324000m/h.</desc>
<speed>0.090000</speed>
</trkpt>
<trkpt lat="55.837021" lon="26.047281">
<ele>167.603638</ele>
<time>2010-07-17T15:40:03Z</time>
<desc>lat.=55.837021, lon.=26.047281, Alt.=167.603638m. Speed=0.288000m/h.</desc>
<speed>0.080000</speed>
</trkpt>
<trkpt lat="55.837021" lon="26.047281">
<ele>167.435669</ele>
<time>2010-07-17T15:40:04Z</time>
<desc>lat.=55.837021, lon.=26.047281, Alt.=167.435669m. Speed=0.360000m/h.</desc>
<speed>0.100000</speed>
</trkpt>
<trkpt lat="55.837021" lon="26.047283">
<ele>167.259888</ele>
<time>2010-07-17T15:40:05Z</time>
<desc>lat.=55.837021, lon.=26.047283, Alt.=167.259888m. Speed=0.396000m/h.</desc>
<speed>0.110000</speed>
</trkpt>
<trkpt lat="55.837021" lon="26.047285">
<ele>167.080200</ele>
<time>2010-07-17T15:40:06Z</time>
<desc>lat.=55.837021, lon.=26.047285, Alt.=167.080200m. Speed=0.504000m/h.</desc>
<speed>0.140000</speed>
</trkpt>
<trkpt lat="55.837021" lon="26.047287">
<ele>166.900513</ele>
<time>2010-07-17T15:40:07Z</time>
<desc>lat.=55.837021, lon.=26.047287, Alt.=166.900513m. Speed=0.396000m/h.</desc>
<speed>0.110000</speed>
</trkpt>
<trkpt lat="55.837021" lon="26.047289">
<ele>166.709106</ele>
<time>2010-07-17T15:40:08Z</time>
<desc>lat.=55.837021, lon.=26.047289, Alt.=166.709106m. Speed=0.288000m/h.</desc>
<speed>0.080000</speed>
</trkpt>
<trkpt lat="55.837017" lon="26.047289">
<ele>166.513794</ele>
<time>2010-07-17T15:40:09Z</time>
<desc>lat.=55.837017, lon.=26.047289, Alt.=166.513794m. Speed=0.396000m/h.</desc>
<speed>0.110000</speed>
</trkpt>
<trkpt lat="55.837017" lon="26.047289">
<ele>166.306763</ele>
<time>2010-07-17T15:40:10Z</time>
<desc>lat.=55.837017, lon.=26.047289, Alt.=166.306763m. Speed=0.432000m/h.</desc>
<speed>0.120000</speed>
</trkpt>
<trkpt lat="55.837017" lon="26.047291">
<ele>166.095825</ele>
<time>2010-07-17T15:40:11Z</time>
<desc>lat.=55.837017, lon.=26.047291, Alt.=166.095825m. Speed=0.360000m/h.</desc>
<speed>0.100000</speed>
</trkpt>
<trkpt lat="55.837017" lon="26.047293">
<ele>165.873169</ele>
<time>2010-07-17T15:40:12Z</time>
<desc>lat.=55.837017, lon.=26.047293, Alt.=165.873169m. Speed=0.360000m/h.</desc>
<speed>0.100000</speed>
</trkpt>
<trkpt lat="55.837017" lon="26.047293">
<ele>165.654419</ele>
<time>2010-07-17T15:40:13Z</time>
<desc>lat.=55.837017, lon.=26.047293, Alt.=165.654419m. Speed=0.540000m/h.</desc>
<speed>0.150000</speed>
</trkpt>
<trkpt lat="55.837013" lon="26.047297">
<ele>165.423950</ele>
<time>2010-07-17T15:40:14Z</time>
<desc>lat.=55.837013, lon.=26.047297, Alt.=165.423950m. Speed=0.468000m/h.</desc>
<speed>0.130000</speed>
</trkpt>
<trkpt lat="55.837013" lon="26.047298">
<ele>165.197388</ele>
<time>2010-07-17T15:40:15Z</time>
<desc>lat.=55.837013, lon.=26.047298, Alt.=165.197388m. Speed=0.432000m/h.</desc>
<speed>0.120000</speed>
</trkpt>
<trkpt lat="55.837013" lon="26.047300">
<ele>164.951294</ele>
<time>2010-07-17T15:40:16Z</time>
<desc>lat.=55.837013, lon.=26.047300, Alt.=164.951294m. Speed=0.432000m/h.</desc>
<speed>0.120000</speed>
</trkpt>
<trkpt lat="55.837013" lon="26.047302">
<ele>164.701294</ele>
<time>2010-07-17T15:40:17Z</time>
<desc>lat.=55.837013, lon.=26.047302, Alt.=164.701294m. Speed=0.540000m/h.</desc>
<speed>0.150000</speed>
</trkpt>
<trkpt lat="55.837013" lon="26.047304">
<ele>164.455200</ele>
<time>2010-07-17T15:40:18Z</time>
<desc>lat.=55.837013, lon.=26.047304, Alt.=164.455200m. Speed=0.504000m/h.</desc>
<speed>0.140000</speed>
</trkpt>
<trkpt lat="55.837013" lon="26.047306">
<ele>164.213013</ele>
<time>2010-07-17T15:40:19Z</time>
<desc>lat.=55.837013, lon.=26.047306, Alt.=164.213013m. Speed=0.396000m/h.</desc>
<speed>0.110000</speed>
</trkpt>
<trkpt lat="55.837013" lon="26.047308">
<ele>163.974731</ele>
<time>2010-07-17T15:40:20Z</time>
<desc>lat.=55.837013, lon.=26.047308, Alt.=163.974731m. Speed=0.432000m/h.</desc>
<speed>0.120000</speed>
</trkpt>
<trkpt lat="55.837013" lon="26.047310">
<ele>163.740356</ele>
<time>2010-07-17T15:40:21Z</time>
<desc>lat.=55.837013, lon.=26.047310, Alt.=163.740356m. Speed=0.504000m/h.</desc>
<speed>0.140000</speed>
</trkpt>
<trkpt lat="55.837013" lon="26.047312">
<ele>163.498169</ele>
<time>2010-07-17T15:40:22Z</time>
<desc>lat.=55.837013, lon.=26.047312, Alt.=163.498169m. Speed=0.504000m/h.</desc>
<speed>0.140000</speed>
</trkpt>
<trkpt lat="55.837009" lon="26.047314">
<ele>163.259888</ele>
<time>2010-07-17T15:40:23Z</time>
<desc>lat.=55.837009, lon.=26.047314, Alt.=163.259888m. Speed=0.504000m/h.</desc>
<speed>0.140000</speed>
</trkpt>
<trkpt lat="55.837009" lon="26.047314">
<ele>163.021606</ele>
<time>2010-07-17T15:40:24Z</time>
<desc>lat.=55.837009, lon.=26.047314, Alt.=163.021606m. Speed=0.468000m/h.</desc>
<speed>0.130000</speed>
</trkpt>
<trkpt lat="55.837009" lon="26.047314">
<ele>162.779419</ele>
<time>2010-07-17T15:40:25Z</time>
<desc>lat.=55.837009, lon.=26.047314, Alt.=162.779419m. Speed=0.576000m/h.</desc>
<speed>0.160000</speed>
</trkpt>
<trkpt lat="55.837006" lon="26.047316">
<ele>162.537231</ele>
<time>2010-07-17T15:40:26Z</time>
<desc>lat.=55.837006, lon.=26.047316, Alt.=162.537231m. Speed=0.864000m/h.</desc>
<speed>0.240000</speed>
</trkpt>
<trkpt lat="55.837006" lon="26.047316">
<ele>162.291138</ele>
<time>2010-07-17T15:40:27Z</time>
<desc>lat.=55.837006, lon.=26.047316, Alt.=162.291138m. Speed=0.828000m/h.</desc>
<speed>0.230000</speed>
</trkpt>
<trkpt lat="55.837002" lon="26.047316">
<ele>162.045044</ele>
<time>2010-07-17T15:40:28Z</time>
<desc>lat.=55.837002, lon.=26.047316, Alt.=162.045044m. Speed=0.828000m/h.</desc>
<speed>0.230000</speed>
</trkpt>
<trkpt lat="55.837002" lon="26.047316">
<ele>161.795044</ele>
<time>2010-07-17T15:40:29Z</time>
<desc>lat.=55.837002, lon.=26.047316, Alt.=161.795044m. Speed=0.900000m/h.</desc>
<speed>0.250000</speed>
</trkpt>
<trkpt lat="55.836998" lon="26.047316">
<ele>161.537231</ele>
<time>2010-07-17T15:40:30Z</time>
<desc>lat.=55.836998, lon.=26.047316, Alt.=161.537231m. Speed=0.792000m/h.</desc>
<speed>0.220000</speed>
</trkpt>
<trkpt lat="55.836998" lon="26.047316">
<ele>161.283325</ele>
<time>2010-07-17T15:40:31Z</time>
<desc>lat.=55.836998, lon.=26.047316, Alt.=161.283325m. Speed=0.720000m/h.</desc>
<speed>0.200000</speed>
</trkpt>
<trkpt lat="55.836994" lon="26.047316">
<ele>161.033325</ele>
<time>2010-07-17T15:40:32Z</time>
<desc>lat.=55.836994, lon.=26.047316, Alt.=161.033325m. Speed=0.540000m/h.</desc>
<speed>0.150000</speed>
</trkpt>
<trkpt lat="55.836994" lon="26.047318">
<ele>160.787231</ele>
<time>2010-07-17T15:40:33Z</time>
<desc>lat.=55.836994, lon.=26.047318, Alt.=160.787231m. Speed=0.432000m/h.</desc>
<speed>0.120000</speed>
</trkpt>
<trkpt lat="55.836994" lon="26.047319">
<ele>160.537231</ele>
<time>2010-07-17T15:40:34Z</time>
<desc>lat.=55.836994, lon.=26.047319, Alt.=160.537231m. Speed=0.504000m/h.</desc>
<speed>0.140000</speed>
</trkpt>
<trkpt lat="55.836990" lon="26.047319">
<ele>160.291138</ele>
<time>2010-07-17T15:40:35Z</time>
<desc>lat.=55.836990, lon.=26.047319, Alt.=160.291138m. Speed=0.396000m/h.</desc>
<speed>0.110000</speed>
</trkpt>
<trkpt lat="55.836990" lon="26.047321">
<ele>160.041138</ele>
<time>2010-07-17T15:40:36Z</time>
<desc>lat.=55.836990, lon.=26.047321, Alt.=160.041138m. Speed=0.288000m/h.</desc>
<speed>0.080000</speed>
</trkpt>
<trkpt lat="55.836990" lon="26.047323">
<ele>159.787231</ele>
<time>2010-07-17T15:40:37Z</time>
<desc>lat.=55.836990, lon.=26.047323, Alt.=159.787231m. Speed=0.180000m/h.</desc>
<speed>0.050000</speed>
</trkpt>
<trkpt lat="55.836990" lon="26.047323">
<ele>159.525513</ele>
<time>2010-07-17T15:40:38Z</time>
<desc>lat.=55.836990, lon.=26.047323, Alt.=159.525513m. Speed=0.144000m/h.</desc>
<speed>0.040000</speed>
</trkpt>
<trkpt lat="55.836990" lon="26.047325">
<ele>159.267700</ele>
<time>2010-07-17T15:40:39Z</time>
<desc>lat.=55.836990, lon.=26.047325, Alt.=159.267700m. Speed=0.396000m/h.</desc>
<speed>0.110000</speed>
</trkpt>
<trkpt lat="55.836990" lon="26.047327">
<ele>159.002075</ele>
<time>2010-07-17T15:40:40Z</time>
<desc>lat.=55.836990, lon.=26.047327, Alt.=159.002075m. Speed=0.360000m/h.</desc>
<speed>0.100000</speed>
</trkpt>
<trkpt lat="55.836990" lon="26.047329">
<ele>158.744263</ele>
<time>2010-07-17T15:40:41Z</time>
<desc>lat.=55.836990, lon.=26.047329, Alt.=158.744263m. Speed=0.576000m/h.</desc>
<speed>0.160000</speed>
</trkpt>
<trkpt lat="55.836990" lon="26.047331">
<ele>158.482544</ele>
<time>2010-07-17T15:40:42Z</time>
<desc>lat.=55.836990, lon.=26.047331, Alt.=158.482544m. Speed=0.432000m/h.</desc>
<speed>0.120000</speed>
</trkpt>
<trkpt lat="55.836990" lon="26.047333">
<ele>158.213013</ele>
<time>2010-07-17T15:40:43Z</time>
<desc>lat.=55.836990, lon.=26.047333, Alt.=158.213013m. Speed=0.360000m/h.</desc>
<speed>0.100000</speed>
</trkpt>
<trkpt lat="55.836990" lon="26.047335">
<ele>157.943481</ele>
<time>2010-07-17T15:40:44Z</time>
<desc>lat.=55.836990, lon.=26.047335, Alt.=157.943481m. Speed=0.252000m/h.</desc>
<speed>0.070000</speed>
</trkpt>
<trkpt lat="55.836990" lon="26.047335">
<ele>157.666138</ele>
<time>2010-07-17T15:40:45Z</time>
<desc>lat.=55.836990, lon.=26.047335, Alt.=157.666138m. Speed=0.252000m/h.</desc>
<speed>0.070000</speed>
</trkpt>
<trkpt lat="55.836990" lon="26.047337">
<ele>157.388794</ele>
<time>2010-07-17T15:40:46Z</time>
<desc>lat.=55.836990, lon.=26.047337, Alt.=157.388794m. Speed=0.324000m/h.</desc>
<speed>0.090000</speed>
</trkpt>
<trkpt lat="55.836990" lon="26.047338">
<ele>157.107544</ele>
<time>2010-07-17T15:40:47Z</time>
<desc>lat.=55.836990, lon.=26.047338, Alt.=157.107544m. Speed=0.324000m/h.</desc>
<speed>0.090000</speed>
</trkpt>
<trkpt lat="55.836990" lon="26.047338">
<ele>156.830200</ele>
<time>2010-07-17T15:40:48Z</time>
<desc>lat.=55.836990, lon.=26.047338, Alt.=156.830200m. Speed=0.360000m/h.</desc>
<speed>0.100000</speed>
</trkpt>
<trkpt lat="55.836990" lon="26.047340">
<ele>156.556763</ele>
<time>2010-07-17T15:40:49Z</time>
<desc>lat.=55.836990, lon.=26.047340, Alt.=156.556763m. Speed=0.576000m/h.</desc>
<speed>0.160000</speed>
</trkpt>
<trkpt lat="55.836990" lon="26.047338">
<ele>156.279419</ele>
<time>2010-07-17T15:40:50Z</time>
<desc>lat.=55.836990, lon.=26.047338, Alt.=156.279419m. Speed=0.504000m/h.</desc>
<speed>0.140000</speed>
</trkpt>
<trkpt lat="55.836987" lon="26.047337">
<ele>156.013794</ele>
<time>2010-07-17T15:40:51Z</time>
<desc>lat.=55.836987, lon.=26.047337, Alt.=156.013794m. Speed=0.648000m/h.</desc>
<speed>0.180000</speed>
</trkpt>
<trkpt lat="55.836987" lon="26.047333">
<ele>155.732544</ele>
<time>2010-07-17T15:40:52Z</time>
<desc>lat.=55.836987, lon.=26.047333, Alt.=155.732544m. Speed=0.648000m/h.</desc>
<speed>0.180000</speed>
</trkpt>
<trkpt lat="55.836987" lon="26.047331">
<ele>155.447388</ele>
<time>2010-07-17T15:40:53Z</time>
<desc>lat.=55.836987, lon.=26.047331, Alt.=155.447388m. Speed=0.684000m/h.</desc>
<speed>0.190000</speed>
</trkpt>
<trkpt lat="55.836983" lon="26.047329">
<ele>155.185669</ele>
<time>2010-07-17T15:40:54Z</time>
<desc>lat.=55.836983, lon.=26.047329, Alt.=155.185669m. Speed=1.188000m/h.</desc>
<speed>0.330000</speed>
</trkpt>
<trkpt lat="55.836987" lon="26.047323">
<ele>155.205200</ele>
<time>2010-07-17T15:40:55Z</time>
<desc>lat.=55.836987, lon.=26.047323, Alt.=155.205200m. Speed=1.152000m/h.</desc>
<speed>0.320000</speed>
</trkpt>
<trkpt lat="55.836990" lon="26.047323">
<ele>154.556763</ele>
<time>2010-07-17T15:40:56Z</time>
<desc>lat.=55.836990, lon.=26.047323, Alt.=154.556763m. Speed=0.900000m/h.</desc>
<speed>0.250000</speed>
</trkpt>
<trkpt lat="55.836990" lon="26.047314">
<ele>153.787231</ele>
<time>2010-07-17T15:40:57Z</time>
<desc>lat.=55.836990, lon.=26.047314, Alt.=153.787231m. Speed=0.864000m/h.</desc>
<speed>0.240000</speed>
</trkpt>
<trkpt lat="55.836990" lon="26.047308">
<ele>153.326294</ele>
<time>2010-07-17T15:40:58Z</time>
<desc>lat.=55.836990, lon.=26.047308, Alt.=153.326294m. Speed=0.864000m/h.</desc>
<speed>0.240000</speed>
</trkpt>
<trkpt lat="55.836990" lon="26.047302">
<ele>153.084106</ele>
<time>2010-07-17T15:40:59Z</time>
<desc>lat.=55.836990, lon.=26.047302, Alt.=153.084106m. Speed=0.720000m/h.</desc>
<speed>0.200000</speed>
</trkpt>
<trkpt lat="55.836990" lon="26.047300">
<ele>152.920044</ele>
<time>2010-07-17T15:41:00Z</time>
<desc>lat.=55.836990, lon.=26.047300, Alt.=152.920044m. Speed=0.720000m/h.</desc>
<speed>0.200000</speed>
</trkpt>
<trkpt lat="55.836987" lon="26.047297">
<ele>152.759888</ele>
<time>2010-07-17T15:41:01Z</time>
<desc>lat.=55.836987, lon.=26.047297, Alt.=152.759888m. Speed=0.684000m/h.</desc>
<speed>0.190000</speed>
</trkpt>
<trkpt lat="55.836987" lon="26.047293">
<ele>152.599731</ele>
<time>2010-07-17T15:41:02Z</time>
<desc>lat.=55.836987, lon.=26.047293, Alt.=152.599731m. Speed=0.756000m/h.</desc>
<speed>0.210000</speed>
</trkpt>
<trkpt lat="55.836987" lon="26.047291">
<ele>152.439575</ele>
<time>2010-07-17T15:41:03Z</time>
<desc>lat.=55.836987, lon.=26.047291, Alt.=152.439575m. Speed=0.612000m/h.</desc>
<speed>0.170000</speed>
</trkpt>
<trkpt lat="55.836987" lon="26.047287">
<ele>152.275513</ele>
<time>2010-07-17T15:41:04Z</time>
<desc>lat.=55.836987, lon.=26.047287, Alt.=152.275513m. Speed=0.684000m/h.</desc>
<speed>0.190000</speed>
</trkpt>
<trkpt lat="55.836987" lon="26.047283">
<ele>152.111450</ele>
<time>2010-07-17T15:41:05Z</time>
<desc>lat.=55.836987, lon.=26.047283, Alt.=152.111450m. Speed=0.720000m/h.</desc>
<speed>0.200000</speed>
</trkpt>
<trkpt lat="55.836987" lon="26.047281">
<ele>151.951294</ele>
<time>2010-07-17T15:41:06Z</time>
<desc>lat.=55.836987, lon.=26.047281, Alt.=151.951294m. Speed=0.540000m/h.</desc>
<speed>0.150000</speed>
</trkpt>
<trkpt lat="55.836987" lon="26.047277">
<ele>151.791138</ele>
<time>2010-07-17T15:41:07Z</time>
<desc>lat.=55.836987, lon.=26.047277, Alt.=151.791138m. Speed=0.648000m/h.</desc>
<speed>0.180000</speed>
</trkpt>
<trkpt lat="55.836987" lon="26.047276">
<ele>151.638794</ele>
<time>2010-07-17T15:41:08Z</time>
<desc>lat.=55.836987, lon.=26.047276, Alt.=151.638794m. Speed=0.900000m/h.</desc>
<speed>0.250000</speed>
</trkpt>
<trkpt lat="55.836987" lon="26.047272">
<ele>151.502075</ele>
<time>2010-07-17T15:41:09Z</time>
<desc>lat.=55.836987, lon.=26.047272, Alt.=151.502075m. Speed=0.828000m/h.</desc>
<speed>0.230000</speed>
</trkpt>
<trkpt lat="55.836987" lon="26.047268">
<ele>151.361450</ele>
<time>2010-07-17T15:41:10Z</time>
<desc>lat.=55.836987, lon.=26.047268, Alt.=151.361450m. Speed=0.828000m/h.</desc>
<speed>0.230000</speed>
</trkpt>
<trkpt lat="55.836987" lon="26.047264">
<ele>151.224731</ele>
<time>2010-07-17T15:41:11Z</time>
<desc>lat.=55.836987, lon.=26.047264, Alt.=151.224731m. Speed=0.756000m/h.</desc>
<speed>0.210000</speed>
</trkpt>
<trkpt lat="55.836987" lon="26.047260">
<ele>151.095825</ele>
<time>2010-07-17T15:41:12Z</time>
<desc>lat.=55.836987, lon.=26.047260, Alt.=151.095825m. Speed=0.828000m/h.</desc>
<speed>0.230000</speed>
</trkpt>
<trkpt lat="55.836987" lon="26.047256">
<ele>150.963013</ele>
<time>2010-07-17T15:41:13Z</time>
<desc>lat.=55.836987, lon.=26.047256, Alt.=150.963013m. Speed=0.828000m/h.</desc>
<speed>0.230000</speed>
</trkpt>
<trkpt lat="55.836987" lon="26.047253">
<ele>150.838013</ele>
<time>2010-07-17T15:41:14Z</time>
<desc>lat.=55.836987, lon.=26.047253, Alt.=150.838013m. Speed=0.900000m/h.</desc>
<speed>0.250000</speed>
</trkpt>
<trkpt lat="55.836987" lon="26.047249">
<ele>150.713013</ele>
<time>2010-07-17T15:41:15Z</time>
<desc>lat.=55.836987, lon.=26.047249, Alt.=150.713013m. Speed=0.864000m/h.</desc>
<speed>0.240000</speed>
</trkpt>
<trkpt lat="55.836987" lon="26.047245">
<ele>150.588013</ele>
<time>2010-07-17T15:41:16Z</time>
<desc>lat.=55.836987, lon.=26.047245, Alt.=150.588013m. Speed=0.792000m/h.</desc>
<speed>0.220000</speed>
</trkpt>
<trkpt lat="55.836987" lon="26.047241">
<ele>150.466919</ele>
<time>2010-07-17T15:41:17Z</time>
<desc>lat.=55.836987, lon.=26.047241, Alt.=150.466919m. Speed=0.864000m/h.</desc>
<speed>0.240000</speed>
</trkpt>
<trkpt lat="55.836987" lon="26.047237">
<ele>150.341919</ele>
<time>2010-07-17T15:41:18Z</time>
<desc>lat.=55.836987, lon.=26.047237, Alt.=150.341919m. Speed=0.828000m/h.</desc>
<speed>0.230000</speed>
</trkpt>
<trkpt lat="55.836987" lon="26.047234">
<ele>150.228638</ele>
<time>2010-07-17T15:41:19Z</time>
<desc>lat.=55.836987, lon.=26.047234, Alt.=150.228638m. Speed=0.828000m/h.</desc>
<speed>0.230000</speed>
</trkpt>
<trkpt lat="55.836983" lon="26.047230">
<ele>150.119263</ele>
<time>2010-07-17T15:41:20Z</time>
<desc>lat.=55.836983, lon.=26.047230, Alt.=150.119263m. Speed=1.044000m/h.</desc>
<speed>0.290000</speed>
</trkpt>
<trkpt lat="55.836983" lon="26.047228">
<ele>150.025513</ele>
<time>2010-07-17T15:41:21Z</time>
<desc>lat.=55.836983, lon.=26.047228, Alt.=150.025513m. Speed=1.224000m/h.</desc>
<speed>0.340000</speed>
</trkpt>
<trkpt lat="55.836971" lon="26.047226">
<ele>150.033325</ele>
<time>2010-07-17T15:41:22Z</time>
<desc>lat.=55.836971, lon.=26.047226, Alt.=150.033325m. Speed=1.296000m/h.</desc>
<speed>0.360000</speed>
</trkpt>
<trkpt lat="55.836964" lon="26.047232">
<ele>149.994263</ele>
<time>2010-07-17T15:41:23Z</time>
<desc>lat.=55.836964, lon.=26.047232, Alt.=149.994263m. Speed=1.152000m/h.</desc>
<speed>0.320000</speed>
</trkpt>
<trkpt lat="55.836960" lon="26.047234">
<ele>149.963013</ele>
<time>2010-07-17T15:41:24Z</time>
<desc>lat.=55.836960, lon.=26.047234, Alt.=149.963013m. Speed=1.044000m/h.</desc>
<speed>0.290000</speed>
</trkpt>
<trkpt lat="55.836956" lon="26.047243">
<ele>149.720825</ele>
<time>2010-07-17T15:41:25Z</time>
<desc>lat.=55.836956, lon.=26.047243, Alt.=149.720825m. Speed=0.900000m/h.</desc>
<speed>0.250000</speed>
</trkpt>
<trkpt lat="55.836948" lon="26.047247">
<ele>149.455200</ele>
<time>2010-07-17T15:41:26Z</time>
<desc>lat.=55.836948, lon.=26.047247, Alt.=149.455200m. Speed=0.792000m/h.</desc>
<speed>0.220000</speed>
</trkpt>
<trkpt lat="55.836945" lon="26.047253">
<ele>149.302856</ele>
<time>2010-07-17T15:41:27Z</time>
<desc>lat.=55.836945, lon.=26.047253, Alt.=149.302856m. Speed=0.756000m/h.</desc>
<speed>0.210000</speed>
</trkpt>
<trkpt lat="55.836941" lon="26.047253">
<ele>149.275513</ele>
<time>2010-07-17T15:41:28Z</time>
<desc>lat.=55.836941, lon.=26.047253, Alt.=149.275513m. Speed=0.756000m/h.</desc>
<speed>0.210000</speed>
</trkpt>
<trkpt lat="55.836941" lon="26.047253">
<ele>149.252075</ele>
<time>2010-07-17T15:41:29Z</time>
<desc>lat.=55.836941, lon.=26.047253, Alt.=149.252075m. Speed=0.468000m/h.</desc>
<speed>0.130000</speed>
</trkpt>
<trkpt lat="55.836937" lon="26.047251">
<ele>149.232544</ele>
<time>2010-07-17T15:41:30Z</time>
<desc>lat.=55.836937, lon.=26.047251, Alt.=149.232544m. Speed=0.252000m/h.</desc>
<speed>0.070000</speed>
</trkpt>
<trkpt lat="55.836937" lon="26.047251">
<ele>149.213013</ele>
<time>2010-07-17T15:41:31Z</time>
<desc>lat.=55.836937, lon.=26.047251, Alt.=149.213013m. Speed=0.108000m/h.</desc>
<speed>0.030000</speed>
</trkpt>
<trkpt lat="55.836937" lon="26.047251">
<ele>149.197388</ele>
<time>2010-07-17T15:41:32Z</time>
<desc>lat.=55.836937, lon.=26.047251, Alt.=149.197388m. Speed=0.144000m/h.</desc>
<speed>0.040000</speed>
</trkpt>
<trkpt lat="55.836937" lon="26.047251">
<ele>149.181763</ele>
<time>2010-07-17T15:41:33Z</time>
<desc>lat.=55.836937, lon.=26.047251, Alt.=149.181763m. Speed=0.252000m/h.</desc>
<speed>0.070000</speed>
</trkpt>
<trkpt lat="55.836941" lon="26.047249">
<ele>149.177856</ele>
<time>2010-07-17T15:41:34Z</time>
<desc>lat.=55.836941, lon.=26.047249, Alt.=149.177856m. Speed=0.108000m/h.</desc>
<speed>0.030000</speed>
</trkpt>
<trkpt lat="55.836941" lon="26.047249">
<ele>149.162231</ele>
<time>2010-07-17T15:41:35Z</time>
<desc>lat.=55.836941, lon.=26.047249, Alt.=149.162231m. Speed=0.180000m/h.</desc>
<speed>0.050000</speed>
</trkpt>
<trkpt lat="55.836941" lon="26.047249">
<ele>149.146606</ele>
<time>2010-07-17T15:41:36Z</time>
<desc>lat.=55.836941, lon.=26.047249, Alt.=149.146606m. Speed=0.360000m/h.</desc>
<speed>0.100000</speed>
</trkpt>
<trkpt lat="55.836941" lon="26.047247">
<ele>149.127075</ele>
<time>2010-07-17T15:41:37Z</time>
<desc>lat.=55.836941, lon.=26.047247, Alt.=149.127075m. Speed=0.288000m/h.</desc>
<speed>0.080000</speed>
</trkpt>
<trkpt lat="55.836941" lon="26.047247">
<ele>149.111450</ele>
<time>2010-07-17T15:41:38Z</time>
<desc>lat.=55.836941, lon.=26.047247, Alt.=149.111450m. Speed=0.360000m/h.</desc>
<speed>0.100000</speed>
</trkpt>
<trkpt lat="55.836941" lon="26.047247">
<ele>149.095825</ele>
<time>2010-07-17T15:41:39Z</time>
<desc>lat.=55.836941, lon.=26.047247, Alt.=149.095825m. Speed=0.396000m/h.</desc>
<speed>0.110000</speed>
</trkpt>
<trkpt lat="55.836945" lon="26.047247">
<ele>149.088013</ele>
<time>2010-07-17T15:41:40Z</time>
<desc>lat.=55.836945, lon.=26.047247, Alt.=149.088013m. Speed=0.504000m/h.</desc>
<speed>0.140000</speed>
</trkpt>
<trkpt lat="55.836945" lon="26.047245">
<ele>149.076294</ele>
<time>2010-07-17T15:41:41Z</time>
<desc>lat.=55.836945, lon.=26.047245, Alt.=149.076294m. Speed=0.576000m/h.</desc>
<speed>0.160000</speed>
</trkpt>
<trkpt lat="55.836945" lon="26.047245">
<ele>149.076294</ele>
<time>2010-07-17T15:41:42Z</time>
<desc>lat.=55.836945, lon.=26.047245, Alt.=149.076294m. Speed=0.540000m/h.</desc>
<speed>0.150000</speed>
</trkpt>
<trkpt lat="55.836948" lon="26.047245">
<ele>149.084106</ele>
<time>2010-07-17T15:41:43Z</time>
<desc>lat.=55.836948, lon.=26.047245, Alt.=149.084106m. Speed=0.468000m/h.</desc>
<speed>0.130000</speed>
</trkpt>
<trkpt lat="55.836948" lon="26.047243">
<ele>149.103638</ele>
<time>2010-07-17T15:41:44Z</time>
<desc>lat.=55.836948, lon.=26.047243, Alt.=149.103638m. Speed=0.540000m/h.</desc>
<speed>0.150000</speed>
</trkpt>
<trkpt lat="55.836948" lon="26.047245">
<ele>149.127075</ele>
<time>2010-07-17T15:41:45Z</time>
<desc>lat.=55.836948, lon.=26.047245, Alt.=149.127075m. Speed=0.648000m/h.</desc>
<speed>0.180000</speed>
</trkpt>
<trkpt lat="55.836952" lon="26.047245">
<ele>149.158325</ele>
<time>2010-07-17T15:41:46Z</time>
<desc>lat.=55.836952, lon.=26.047245, Alt.=149.158325m. Speed=0.756000m/h.</desc>
<speed>0.210000</speed>
</trkpt>
<trkpt lat="55.836952" lon="26.047245">
<ele>149.189575</ele>
<time>2010-07-17T15:41:47Z</time>
<desc>lat.=55.836952, lon.=26.047245, Alt.=149.189575m. Speed=0.324000m/h.</desc>
<speed>0.090000</speed>
</trkpt>
<trkpt lat="55.836956" lon="26.047245">
<ele>149.216919</ele>
<time>2010-07-17T15:41:48Z</time>
<desc>lat.=55.836956, lon.=26.047245, Alt.=149.216919m. Speed=0.072000m/h.</desc>
<speed>0.020000</speed>
</trkpt>
<trkpt lat="55.836956" lon="26.047245">
<ele>149.228638</ele>
<time>2010-07-17T15:41:49Z</time>
<desc>lat.=55.836956, lon.=26.047245, Alt.=149.228638m. Speed=0.180000m/h.</desc>
<speed>0.050000</speed>
</trkpt>
<trkpt lat="55.836952" lon="26.047247">
<ele>149.248169</ele>
<time>2010-07-17T15:41:50Z</time>
<desc>lat.=55.836952, lon.=26.047247, Alt.=149.248169m. Speed=0.288000m/h.</desc>
<speed>0.080000</speed>
</trkpt>
<trkpt lat="55.836952" lon="26.047247">
<ele>149.275513</ele>
<time>2010-07-17T15:41:51Z</time>
<desc>lat.=55.836952, lon.=26.047247, Alt.=149.275513m. Speed=0.360000m/h.</desc>
<speed>0.100000</speed>
</trkpt>
<trkpt lat="55.836952" lon="26.047249">
<ele>149.306763</ele>
<time>2010-07-17T15:41:52Z</time>
<desc>lat.=55.836952, lon.=26.047249, Alt.=149.306763m. Speed=0.324000m/h.</desc>
<speed>0.090000</speed>
</trkpt>
<trkpt lat="55.836952" lon="26.047249">
<ele>149.345825</ele>
<time>2010-07-17T15:41:53Z</time>
<desc>lat.=55.836952, lon.=26.047249, Alt.=149.345825m. Speed=0.432000m/h.</desc>
<speed>0.120000</speed>
</trkpt>
<trkpt lat="55.836952" lon="26.047251">
<ele>149.396606</ele>
<time>2010-07-17T15:41:54Z</time>
<desc>lat.=55.836952, lon.=26.047251, Alt.=149.396606m. Speed=0.432000m/h.</desc>
<speed>0.120000</speed>
</trkpt>
<trkpt lat="55.836948" lon="26.047251">
<ele>149.451294</ele>
<time>2010-07-17T15:41:55Z</time>
<desc>lat.=55.836948, lon.=26.047251, Alt.=149.451294m. Speed=0.648000m/h.</desc>
<speed>0.180000</speed>
</trkpt>
<trkpt lat="55.836948" lon="26.047253">
<ele>149.505981</ele>
<time>2010-07-17T15:41:56Z</time>
<desc>lat.=55.836948, lon.=26.047253, Alt.=149.505981m. Speed=0.756000m/h.</desc>
<speed>0.210000</speed>
</trkpt>
<trkpt lat="55.836945" lon="26.047255">
<ele>149.568481</ele>
<time>2010-07-17T15:41:57Z</time>
<desc>lat.=55.836945, lon.=26.047255, Alt.=149.568481m. Speed=0.792000m/h.</desc>
<speed>0.220000</speed>
</trkpt>
<trkpt lat="55.836945" lon="26.047256">
<ele>149.638794</ele>
<time>2010-07-17T15:41:58Z</time>
<desc>lat.=55.836945, lon.=26.047256, Alt.=149.638794m. Speed=0.864000m/h.</desc>
<speed>0.240000</speed>
</trkpt>
<trkpt lat="55.836941" lon="26.047260">
<ele>149.709106</ele>
<time>2010-07-17T15:41:59Z</time>
<desc>lat.=55.836941, lon.=26.047260, Alt.=149.709106m. Speed=0.756000m/h.</desc>
<speed>0.210000</speed>
</trkpt>
<trkpt lat="55.836941" lon="26.047262">
<ele>149.783325</ele>
<time>2010-07-17T15:42:00Z</time>
<desc>lat.=55.836941, lon.=26.047262, Alt.=149.783325m. Speed=0.756000m/h.</desc>
<speed>0.210000</speed>
</trkpt>
<trkpt lat="55.836941" lon="26.047264">
<ele>149.853638</ele>
<time>2010-07-17T15:42:01Z</time>
<desc>lat.=55.836941, lon.=26.047264, Alt.=149.853638m. Speed=0.720000m/h.</desc>
<speed>0.200000</speed>
</trkpt>
<trkpt lat="55.836937" lon="26.047266">
<ele>149.927856</ele>
<time>2010-07-17T15:42:02Z</time>
<desc>lat.=55.836937, lon.=26.047266, Alt.=149.927856m. Speed=0.756000m/h.</desc>
<speed>0.210000</speed>
</trkpt>
<trkpt lat="55.836937" lon="26.047268">
<ele>150.005981</ele>
<time>2010-07-17T15:42:03Z</time>
<desc>lat.=55.836937, lon.=26.047268, Alt.=150.005981m. Speed=0.612000m/h.</desc>
<speed>0.170000</speed>
</trkpt>
<trkpt lat="55.836937" lon="26.047270">
<ele>150.080200</ele>
<time>2010-07-17T15:42:04Z</time>
<desc>lat.=55.836937, lon.=26.047270, Alt.=150.080200m. Speed=0.432000m/h.</desc>
<speed>0.120000</speed>
</trkpt>
<trkpt lat="55.836933" lon="26.047272">
<ele>150.154419</ele>
<time>2010-07-17T15:42:05Z</time>
<desc>lat.=55.836933, lon.=26.047272, Alt.=150.154419m. Speed=0.252000m/h.</desc>
<speed>0.070000</speed>
</trkpt>
<trkpt lat="55.836933" lon="26.047272">
<ele>150.220825</ele>
<time>2010-07-17T15:42:06Z</time>
<desc>lat.=55.836933, lon.=26.047272, Alt.=150.220825m. Speed=0.324000m/h.</desc>
<speed>0.090000</speed>
</trkpt>
<trkpt lat="55.836937" lon="26.047274">
<ele>150.287231</ele>
<time>2010-07-17T15:42:07Z</time>
<desc>lat.=55.836937, lon.=26.047274, Alt.=150.287231m. Speed=0.360000m/h.</desc>
<speed>0.100000</speed>
</trkpt>
<trkpt lat="55.836937" lon="26.047276">
<ele>150.357544</ele>
<time>2010-07-17T15:42:08Z</time>
<desc>lat.=55.836937, lon.=26.047276, Alt.=150.357544m. Speed=0.324000m/h.</desc>
<speed>0.090000</speed>
</trkpt>
<trkpt lat="55.836937" lon="26.047276">
<ele>150.427856</ele>
<time>2010-07-17T15:42:09Z</time>
<desc>lat.=55.836937, lon.=26.047276, Alt.=150.427856m. Speed=0.288000m/h.</desc>
<speed>0.080000</speed>
</trkpt>
<trkpt lat="55.836937" lon="26.047277">
<ele>150.502075</ele>
<time>2010-07-17T15:42:10Z</time>
<desc>lat.=55.836937, lon.=26.047277, Alt.=150.502075m. Speed=0.216000m/h.</desc>
<speed>0.060000</speed>
</trkpt>
<trkpt lat="55.836937" lon="26.047277">
<ele>150.576294</ele>
<time>2010-07-17T15:42:11Z</time>
<desc>lat.=55.836937, lon.=26.047277, Alt.=150.576294m. Speed=0.144000m/h.</desc>
<speed>0.040000</speed>
</trkpt>
<trkpt lat="55.836937" lon="26.047277">
<ele>150.650513</ele>
<time>2010-07-17T15:42:12Z</time>
<desc>lat.=55.836937, lon.=26.047277, Alt.=150.650513m. Speed=0.108000m/h.</desc>
<speed>0.030000</speed>
</trkpt>
<trkpt lat="55.836937" lon="26.047279">
<ele>150.724731</ele>
<time>2010-07-17T15:42:13Z</time>
<desc>lat.=55.836937, lon.=26.047279, Alt.=150.724731m. Speed=0.108000m/h.</desc>
<speed>0.030000</speed>
</trkpt>
<trkpt lat="55.836937" lon="26.047279">
<ele>150.802856</ele>
<time>2010-07-17T15:42:14Z</time>
<desc>lat.=55.836937, lon.=26.047279, Alt.=150.802856m. Speed=0.180000m/h.</desc>
<speed>0.050000</speed>
</trkpt>
<trkpt lat="55.836937" lon="26.047279">
<ele>150.880981</ele>
<time>2010-07-17T15:42:15Z</time>
<desc>lat.=55.836937, lon.=26.047279, Alt.=150.880981m. Speed=0.144000m/h.</desc>
<speed>0.040000</speed>
</trkpt>
<trkpt lat="55.836937" lon="26.047279">
<ele>150.963013</ele>
<time>2010-07-17T15:42:16Z</time>
<desc>lat.=55.836937, lon.=26.047279, Alt.=150.963013m. Speed=0.180000m/h.</desc>
<speed>0.050000</speed>
</trkpt>
<trkpt lat="55.836941" lon="26.047281">
<ele>151.052856</ele>
<time>2010-07-17T15:42:17Z</time>
<desc>lat.=55.836941, lon.=26.047281, Alt.=151.052856m. Speed=0.108000m/h.</desc>
<speed>0.030000</speed>
</trkpt>
<trkpt lat="55.836941" lon="26.047281">
<ele>151.146606</ele>
<time>2010-07-17T15:42:18Z</time>
<desc>lat.=55.836941, lon.=26.047281, Alt.=151.146606m. Speed=0.144000m/h.</desc>
<speed>0.040000</speed>
</trkpt>
<trkpt lat="55.836941" lon="26.047281">
<ele>151.244263</ele>
<time>2010-07-17T15:42:19Z</time>
<desc>lat.=55.836941, lon.=26.047281, Alt.=151.244263m. Speed=0.108000m/h.</desc>
<speed>0.030000</speed>
</trkpt>
<trkpt lat="55.836941" lon="26.047281">
<ele>151.345825</ele>
<time>2010-07-17T15:42:20Z</time>
<desc>lat.=55.836941, lon.=26.047281, Alt.=151.345825m. Speed=0.072000m/h.</desc>
<speed>0.020000</speed>
</trkpt>
<trkpt lat="55.836941" lon="26.047281">
<ele>151.443481</ele>
<time>2010-07-17T15:42:21Z</time>
<desc>lat.=55.836941, lon.=26.047281, Alt.=151.443481m. Speed=0.180000m/h.</desc>
<speed>0.050000</speed>
</trkpt>
<trkpt lat="55.836941" lon="26.047281">
<ele>151.537231</ele>
<time>2010-07-17T15:42:22Z</time>
<desc>lat.=55.836941, lon.=26.047281, Alt.=151.537231m. Speed=0.036000m/h.</desc>
<speed>0.010000</speed>
</trkpt>
<trkpt lat="55.836941" lon="26.047281">
<ele>151.634888</ele>
<time>2010-07-17T15:42:23Z</time>
<desc>lat.=55.836941, lon.=26.047281, Alt.=151.634888m. Speed=0.108000m/h.</desc>
<speed>0.030000</speed>
</trkpt>
<trkpt lat="55.836941" lon="26.047281">
<ele>151.736450</ele>
<time>2010-07-17T15:42:24Z</time>
<desc>lat.=55.836941, lon.=26.047281, Alt.=151.736450m. Speed=0.144000m/h.</desc>
<speed>0.040000</speed>
</trkpt>
<trkpt lat="55.836941" lon="26.047281">
<ele>151.838013</ele>
<time>2010-07-17T15:42:25Z</time>
<desc>lat.=55.836941, lon.=26.047281, Alt.=151.838013m. Speed=0.216000m/h.</desc>
<speed>0.060000</speed>
</trkpt>
<trkpt lat="55.836941" lon="26.047283">
<ele>151.943481</ele>
<time>2010-07-17T15:42:26Z</time>
<desc>lat.=55.836941, lon.=26.047283, Alt.=151.943481m. Speed=0.288000m/h.</desc>
<speed>0.080000</speed>
</trkpt>
<trkpt lat="55.836937" lon="26.047283">
<ele>152.048950</ele>
<time>2010-07-17T15:42:27Z</time>
<desc>lat.=55.836937, lon.=26.047283, Alt.=152.048950m. Speed=0.252000m/h.</desc>
<speed>0.070000</speed>
</trkpt>
<trkpt lat="55.836937" lon="26.047283">
<ele>152.154419</ele>
<time>2010-07-17T15:42:28Z</time>
<desc>lat.=55.836937, lon.=26.047283, Alt.=152.154419m. Speed=0.216000m/h.</desc>
<speed>0.060000</speed>
</trkpt>
<trkpt lat="55.836937" lon="26.047283">
<ele>152.252075</ele>
<time>2010-07-17T15:42:29Z</time>
<desc>lat.=55.836937, lon.=26.047283, Alt.=152.252075m. Speed=0.180000m/h.</desc>
<speed>0.050000</speed>
</trkpt>
<trkpt lat="55.836937" lon="26.047285">
<ele>152.345825</ele>
<time>2010-07-17T15:42:30Z</time>
<desc>lat.=55.836937, lon.=26.047285, Alt.=152.345825m. Speed=0.108000m/h.</desc>
<speed>0.030000</speed>
</trkpt>
<trkpt lat="55.836937" lon="26.047285">
<ele>152.439575</ele>
<time>2010-07-17T15:42:31Z</time>
<desc>lat.=55.836937, lon.=26.047285, Alt.=152.439575m. Speed=0.108000m/h.</desc>
<speed>0.030000</speed>
</trkpt>
<trkpt lat="55.836937" lon="26.047285">
<ele>152.537231</ele>
<time>2010-07-17T15:42:32Z</time>
<desc>lat.=55.836937, lon.=26.047285, Alt.=152.537231m. Speed=0.108000m/h.</desc>
<speed>0.030000</speed>
</trkpt>
<trkpt lat="55.836937" lon="26.047287">
<ele>152.638794</ele>
<time>2010-07-17T15:42:33Z</time>
<desc>lat.=55.836937, lon.=26.047287, Alt.=152.638794m. Speed=0.180000m/h.</desc>
<speed>0.050000</speed>
</trkpt>
<trkpt lat="55.836937" lon="26.047287">
<ele>152.740356</ele>
<time>2010-07-17T15:42:34Z</time>
<desc>lat.=55.836937, lon.=26.047287, Alt.=152.740356m. Speed=0.252000m/h.</desc>
<speed>0.070000</speed>
</trkpt>
<trkpt lat="55.836937" lon="26.047287">
<ele>152.841919</ele>
<time>2010-07-17T15:42:35Z</time>
<desc>lat.=55.836937, lon.=26.047287, Alt.=152.841919m. Speed=0.252000m/h.</desc>
<speed>0.070000</speed>
</trkpt>
<trkpt lat="55.836941" lon="26.047287">
<ele>152.943481</ele>
<time>2010-07-17T15:42:36Z</time>
<desc>lat.=55.836941, lon.=26.047287, Alt.=152.943481m. Speed=0.216000m/h.</desc>
<speed>0.060000</speed>
</trkpt>
<trkpt lat="55.836941" lon="26.047287">
<ele>153.041138</ele>
<time>2010-07-17T15:42:37Z</time>
<desc>lat.=55.836941, lon.=26.047287, Alt.=153.041138m. Speed=0.252000m/h.</desc>
<speed>0.070000</speed>
</trkpt>
<trkpt lat="55.836941" lon="26.047287">
<ele>153.127075</ele>
<time>2010-07-17T15:42:38Z</time>
<desc>lat.=55.836941, lon.=26.047287, Alt.=153.127075m. Speed=0.252000m/h.</desc>
<speed>0.070000</speed>
</trkpt>
<trkpt lat="55.836941" lon="26.047289">
<ele>153.205200</ele>
<time>2010-07-17T15:42:39Z</time>
<desc>lat.=55.836941, lon.=26.047289, Alt.=153.205200m. Speed=0.180000m/h.</desc>
<speed>0.050000</speed>
</trkpt>
<trkpt lat="55.836941" lon="26.047289">
<ele>153.279419</ele>
<time>2010-07-17T15:42:40Z</time>
<desc>lat.=55.836941, lon.=26.047289, Alt.=153.279419m. Speed=0.216000m/h.</desc>
<speed>0.060000</speed>
</trkpt>
<trkpt lat="55.836941" lon="26.047291">
<ele>153.349731</ele>
<time>2010-07-17T15:42:41Z</time>
<desc>lat.=55.836941, lon.=26.047291, Alt.=153.349731m. Speed=0.252000m/h.</desc>
<speed>0.070000</speed>
</trkpt>
<trkpt lat="55.836941" lon="26.047291">
<ele>153.412231</ele>
<time>2010-07-17T15:42:42Z</time>
<desc>lat.=55.836941, lon.=26.047291, Alt.=153.412231m. Speed=0.180000m/h.</desc>
<speed>0.050000</speed>
</trkpt>
<trkpt lat="55.836941" lon="26.047293">
<ele>153.474731</ele>
<time>2010-07-17T15:42:43Z</time>
<desc>lat.=55.836941, lon.=26.047293, Alt.=153.474731m. Speed=0.288000m/h.</desc>
<speed>0.080000</speed>
</trkpt>
<trkpt lat="55.836941" lon="26.047295">
<ele>153.541138</ele>
<time>2010-07-17T15:42:44Z</time>
<desc>lat.=55.836941, lon.=26.047295, Alt.=153.541138m. Speed=0.288000m/h.</desc>
<speed>0.080000</speed>
</trkpt>
<trkpt lat="55.836941" lon="26.047295">
<ele>153.607544</ele>
<time>2010-07-17T15:42:45Z</time>
<desc>lat.=55.836941, lon.=26.047295, Alt.=153.607544m. Speed=0.288000m/h.</desc>
<speed>0.080000</speed>
</trkpt>
<trkpt lat="55.836941" lon="26.047297">
<ele>153.673950</ele>
<time>2010-07-17T15:42:46Z</time>
<desc>lat.=55.836941, lon.=26.047297, Alt.=153.673950m. Speed=0.360000m/h.</desc>
<speed>0.100000</speed>
</trkpt>
<trkpt lat="55.836941" lon="26.047298">
<ele>153.740356</ele>
<time>2010-07-17T15:42:47Z</time>
<desc>lat.=55.836941, lon.=26.047298, Alt.=153.740356m. Speed=0.360000m/h.</desc>
<speed>0.100000</speed>
</trkpt>
<trkpt lat="55.836941" lon="26.047300">
<ele>153.814575</ele>
<time>2010-07-17T15:42:48Z</time>
<desc>lat.=55.836941, lon.=26.047300, Alt.=153.814575m. Speed=0.360000m/h.</desc>
<speed>0.100000</speed>
</trkpt>
<trkpt lat="55.836941" lon="26.047302">
<ele>153.888794</ele>
<time>2010-07-17T15:42:49Z</time>
<desc>lat.=55.836941, lon.=26.047302, Alt.=153.888794m. Speed=0.432000m/h.</desc>
<speed>0.120000</speed>
</trkpt>
<trkpt lat="55.836941" lon="26.047304">
<ele>153.966919</ele>
<time>2010-07-17T15:42:50Z</time>
<desc>lat.=55.836941, lon.=26.047304, Alt.=153.966919m. Speed=0.432000m/h.</desc>
<speed>0.120000</speed>
</trkpt>
<trkpt lat="55.836941" lon="26.047306">
<ele>154.045044</ele>
<time>2010-07-17T15:42:51Z</time>
<desc>lat.=55.836941, lon.=26.047306, Alt.=154.045044m. Speed=0.396000m/h.</desc>
<speed>0.110000</speed>
</trkpt>
<trkpt lat="55.836941" lon="26.047308">
<ele>154.127075</ele>
<time>2010-07-17T15:42:52Z</time>
<desc>lat.=55.836941, lon.=26.047308, Alt.=154.127075m. Speed=0.396000m/h.</desc>
<speed>0.110000</speed>
</trkpt>
<trkpt lat="55.836941" lon="26.047310">
<ele>154.213013</ele>
<time>2010-07-17T15:42:53Z</time>
<desc>lat.=55.836941, lon.=26.047310, Alt.=154.213013m. Speed=0.396000m/h.</desc>
<speed>0.110000</speed>
</trkpt>
<trkpt lat="55.836941" lon="26.047312">
<ele>154.306763</ele>
<time>2010-07-17T15:42:54Z</time>
<desc>lat.=55.836941, lon.=26.047312, Alt.=154.306763m. Speed=0.432000m/h.</desc>
<speed>0.120000</speed>
</trkpt>
<trkpt lat="55.836941" lon="26.047314">
<ele>154.404419</ele>
<time>2010-07-17T15:42:55Z</time>
<desc>lat.=55.836941, lon.=26.047314, Alt.=154.404419m. Speed=0.396000m/h.</desc>
<speed>0.110000</speed>
</trkpt>
<trkpt lat="55.836941" lon="26.047316">
<ele>154.505981</ele>
<time>2010-07-17T15:42:56Z</time>
<desc>lat.=55.836941, lon.=26.047316, Alt.=154.505981m. Speed=0.252000m/h.</desc>
<speed>0.070000</speed>
</trkpt>
<trkpt lat="55.836941" lon="26.047318">
<ele>154.607544</ele>
<time>2010-07-17T15:42:57Z</time>
<desc>lat.=55.836941, lon.=26.047318, Alt.=154.607544m. Speed=0.180000m/h.</desc>
<speed>0.050000</speed>
</trkpt>
<trkpt lat="55.836941" lon="26.047318">
<ele>154.709106</ele>
<time>2010-07-17T15:42:58Z</time>
<desc>lat.=55.836941, lon.=26.047318, Alt.=154.709106m. Speed=0.108000m/h.</desc>
<speed>0.030000</speed>
</trkpt>
<trkpt lat="55.836941" lon="26.047318">
<ele>154.810669</ele>
<time>2010-07-17T15:42:59Z</time>
<desc>lat.=55.836941, lon.=26.047318, Alt.=154.810669m. Speed=0.180000m/h.</desc>
<speed>0.050000</speed>
</trkpt>
<trkpt lat="55.836941" lon="26.047319">
<ele>154.912231</ele>
<time>2010-07-17T15:43:00Z</time>
<desc>lat.=55.836941, lon.=26.047319, Alt.=154.912231m. Speed=0.144000m/h.</desc>
<speed>0.040000</speed>
</trkpt>
<trkpt lat="55.836941" lon="26.047319">
<ele>155.013794</ele>
<time>2010-07-17T15:43:01Z</time>
<desc>lat.=55.836941, lon.=26.047319, Alt.=155.013794m. Speed=0.180000m/h.</desc>
<speed>0.050000</speed>
</trkpt>
<trkpt lat="55.836941" lon="26.047319">
<ele>155.115356</ele>
<time>2010-07-17T15:43:02Z</time>
<desc>lat.=55.836941, lon.=26.047319, Alt.=155.115356m. Speed=0.216000m/h.</desc>
<speed>0.060000</speed>
</trkpt>
<trkpt lat="55.836941" lon="26.047321">
<ele>155.216919</ele>
<time>2010-07-17T15:43:03Z</time>
<desc>lat.=55.836941, lon.=26.047321, Alt.=155.216919m. Speed=0.252000m/h.</desc>
<speed>0.070000</speed>
</trkpt>
<trkpt lat="55.836941" lon="26.047321">
<ele>155.318481</ele>
<time>2010-07-17T15:43:04Z</time>
<desc>lat.=55.836941, lon.=26.047321, Alt.=155.318481m. Speed=0.252000m/h.</desc>
<speed>0.070000</speed>
</trkpt>
<trkpt lat="55.836941" lon="26.047323">
<ele>155.420044</ele>
<time>2010-07-17T15:43:05Z</time>
<desc>lat.=55.836941, lon.=26.047323, Alt.=155.420044m. Speed=0.288000m/h.</desc>
<speed>0.080000</speed>
</trkpt>
<trkpt lat="55.836941" lon="26.047323">
<ele>155.525513</ele>
<time>2010-07-17T15:43:06Z</time>
<desc>lat.=55.836941, lon.=26.047323, Alt.=155.525513m. Speed=0.252000m/h.</desc>
<speed>0.070000</speed>
</trkpt>
<trkpt lat="55.836941" lon="26.047325">
<ele>155.619263</ele>
<time>2010-07-17T15:43:07Z</time>
<desc>lat.=55.836941, lon.=26.047325, Alt.=155.619263m. Speed=0.288000m/h.</desc>
<speed>0.080000</speed>
</trkpt>
<trkpt lat="55.836941" lon="26.047325">
<ele>155.705200</ele>
<time>2010-07-17T15:43:08Z</time>
<desc>lat.=55.836941, lon.=26.047325, Alt.=155.705200m. Speed=0.252000m/h.</desc>
<speed>0.070000</speed>
</trkpt>
<trkpt lat="55.836945" lon="26.047327">
<ele>155.787231</ele>
<time>2010-07-17T15:43:09Z</time>
<desc>lat.=55.836945, lon.=26.047327, Alt.=155.787231m. Speed=0.180000m/h.</desc>
<speed>0.050000</speed>
</trkpt>
<trkpt lat="55.836945" lon="26.047327">
<ele>155.873169</ele>
<time>2010-07-17T15:43:10Z</time>
<desc>lat.=55.836945, lon.=26.047327, Alt.=155.873169m. Speed=0.216000m/h.</desc>
<speed>0.060000</speed>
</trkpt>
<trkpt lat="55.836945" lon="26.047329">
<ele>155.959106</ele>
<time>2010-07-17T15:43:11Z</time>
<desc>lat.=55.836945, lon.=26.047329, Alt.=155.959106m. Speed=0.288000m/h.</desc>
<speed>0.080000</speed>
</trkpt>
<trkpt lat="55.836945" lon="26.047331">
<ele>156.048950</ele>
<time>2010-07-17T15:43:12Z</time>
<desc>lat.=55.836945, lon.=26.047331, Alt.=156.048950m. Speed=0.252000m/h.</desc>
<speed>0.070000</speed>
</trkpt>
<trkpt lat="55.836945" lon="26.047331">
<ele>156.134888</ele>
<time>2010-07-17T15:43:13Z</time>
<desc>lat.=55.836945, lon.=26.047331, Alt.=156.134888m. Speed=0.216000m/h.</desc>
<speed>0.060000</speed>
</trkpt>
<trkpt lat="55.836945" lon="26.047333">
<ele>156.224731</ele>
<time>2010-07-17T15:43:14Z</time>
<desc>lat.=55.836945, lon.=26.047333, Alt.=156.224731m. Speed=0.252000m/h.</desc>
<speed>0.070000</speed>
</trkpt>
<trkpt lat="55.836945" lon="26.047333">
<ele>156.310669</ele>
<time>2010-07-17T15:43:15Z</time>
<desc>lat.=55.836945, lon.=26.047333, Alt.=156.310669m. Speed=0.252000m/h.</desc>
<speed>0.070000</speed>
</trkpt>
<trkpt lat="55.836945" lon="26.047335">
<ele>156.396606</ele>
<time>2010-07-17T15:43:16Z</time>
<desc>lat.=55.836945, lon.=26.047335, Alt.=156.396606m. Speed=0.360000m/h.</desc>
<speed>0.100000</speed>
</trkpt>
<trkpt lat="55.836945" lon="26.047337">
<ele>156.478638</ele>
<time>2010-07-17T15:43:17Z</time>
<desc>lat.=55.836945, lon.=26.047337, Alt.=156.478638m. Speed=0.360000m/h.</desc>
<speed>0.100000</speed>
</trkpt>
<trkpt lat="55.836945" lon="26.047338">
<ele>156.564575</ele>
<time>2010-07-17T15:43:18Z</time>
<desc>lat.=55.836945, lon.=26.047338, Alt.=156.564575m. Speed=0.432000m/h.</desc>
<speed>0.120000</speed>
</trkpt>
<trkpt lat="55.836945" lon="26.047340">
<ele>156.646606</ele>
<time>2010-07-17T15:43:19Z</time>
<desc>lat.=55.836945, lon.=26.047340, Alt.=156.646606m. Speed=0.432000m/h.</desc>
<speed>0.120000</speed>
</trkpt>
<trkpt lat="55.836945" lon="26.047342">
<ele>156.732544</ele>
<time>2010-07-17T15:43:20Z</time>
<desc>lat.=55.836945, lon.=26.047342, Alt.=156.732544m. Speed=0.504000m/h.</desc>
<speed>0.140000</speed>
</trkpt>
<trkpt lat="55.836945" lon="26.047344">
<ele>156.818481</ele>
<time>2010-07-17T15:43:21Z</time>
<desc>lat.=55.836945, lon.=26.047344, Alt.=156.818481m. Speed=0.468000m/h.</desc>
<speed>0.130000</speed>
</trkpt>
<trkpt lat="55.836945" lon="26.047346">
<ele>156.908325</ele>
<time>2010-07-17T15:43:22Z</time>
<desc>lat.=55.836945, lon.=26.047346, Alt.=156.908325m. Speed=0.468000m/h.</desc>
<speed>0.130000</speed>
</trkpt>
<trkpt lat="55.836948" lon="26.047348">
<ele>156.990356</ele>
<time>2010-07-17T15:43:23Z</time>
<desc>lat.=55.836948, lon.=26.047348, Alt.=156.990356m. Speed=0.468000m/h.</desc>
<speed>0.130000</speed>
</trkpt>
<trkpt lat="55.836948" lon="26.047350">
<ele>157.072388</ele>
<time>2010-07-17T15:43:24Z</time>
<desc>lat.=55.836948, lon.=26.047350, Alt.=157.072388m. Speed=0.540000m/h.</desc>
<speed>0.150000</speed>
</trkpt>
<trkpt lat="55.836948" lon="26.047352">
<ele>157.158325</ele>
<time>2010-07-17T15:43:25Z</time>
<desc>lat.=55.836948, lon.=26.047352, Alt.=157.158325m. Speed=0.504000m/h.</desc>
<speed>0.140000</speed>
</trkpt>
<trkpt lat="55.836948" lon="26.047354">
<ele>157.240356</ele>
<time>2010-07-17T15:43:26Z</time>
<desc>lat.=55.836948, lon.=26.047354, Alt.=157.240356m. Speed=0.576000m/h.</desc>
<speed>0.160000</speed>
</trkpt>
<trkpt lat="55.836952" lon="26.047354">
<ele>157.326294</ele>
<time>2010-07-17T15:43:27Z</time>
<desc>lat.=55.836952, lon.=26.047354, Alt.=157.326294m. Speed=0.540000m/h.</desc>
<speed>0.150000</speed>
</trkpt>
<trkpt lat="55.836952" lon="26.047356">
<ele>157.412231</ele>
<time>2010-07-17T15:43:28Z</time>
<desc>lat.=55.836952, lon.=26.047356, Alt.=157.412231m. Speed=0.576000m/h.</desc>
<speed>0.160000</speed>
</trkpt>
<trkpt lat="55.836952" lon="26.047358">
<ele>157.502075</ele>
<time>2010-07-17T15:43:29Z</time>
<desc>lat.=55.836952, lon.=26.047358, Alt.=157.502075m. Speed=0.648000m/h.</desc>
<speed>0.180000</speed>
</trkpt>
<trkpt lat="55.836956" lon="26.047359">
<ele>157.595825</ele>
<time>2010-07-17T15:43:30Z</time>
<desc>lat.=55.836956, lon.=26.047359, Alt.=157.595825m. Speed=0.684000m/h.</desc>
<speed>0.190000</speed>
</trkpt>
<trkpt lat="55.836956" lon="26.047359">
<ele>157.689575</ele>
<time>2010-07-17T15:43:31Z</time>
<desc>lat.=55.836956, lon.=26.047359, Alt.=157.689575m. Speed=0.648000m/h.</desc>
<speed>0.180000</speed>
</trkpt>
<trkpt lat="55.836960" lon="26.047361">
<ele>157.787231</ele>
<time>2010-07-17T15:43:32Z</time>
<desc>lat.=55.836960, lon.=26.047361, Alt.=157.787231m. Speed=0.684000m/h.</desc>
<speed>0.190000</speed>
</trkpt>
<trkpt lat="55.836960" lon="26.047363">
<ele>157.873169</ele>
<time>2010-07-17T15:43:33Z</time>
<desc>lat.=55.836960, lon.=26.047363, Alt.=157.873169m. Speed=0.648000m/h.</desc>
<speed>0.180000</speed>
</trkpt>
<trkpt lat="55.836960" lon="26.047365">
<ele>157.959106</ele>
<time>2010-07-17T15:43:34Z</time>
<desc>lat.=55.836960, lon.=26.047365, Alt.=157.959106m. Speed=0.612000m/h.</desc>
<speed>0.170000</speed>
</trkpt>
<trkpt lat="55.836964" lon="26.047367">
<ele>158.045044</ele>
<time>2010-07-17T15:43:35Z</time>
<desc>lat.=55.836964, lon.=26.047367, Alt.=158.045044m. Speed=0.576000m/h.</desc>
<speed>0.160000</speed>
</trkpt>
<trkpt lat="55.836964" lon="26.047369">
<ele>158.127075</ele>
<time>2010-07-17T15:43:36Z</time>
<desc>lat.=55.836964, lon.=26.047369, Alt.=158.127075m. Speed=0.540000m/h.</desc>
<speed>0.150000</speed>
</trkpt>
<trkpt lat="55.836964" lon="26.047371">
<ele>158.205200</ele>
<time>2010-07-17T15:43:37Z</time>
<desc>lat.=55.836964, lon.=26.047371, Alt.=158.205200m. Speed=0.612000m/h.</desc>
<speed>0.170000</speed>
</trkpt>
<trkpt lat="55.836964" lon="26.047373">
<ele>158.279419</ele>
<time>2010-07-17T15:43:38Z</time>
<desc>lat.=55.836964, lon.=26.047373, Alt.=158.279419m. Speed=0.648000m/h.</desc>
<speed>0.180000</speed>
</trkpt>
<trkpt lat="55.836967" lon="26.047375">
<ele>158.345825</ele>
<time>2010-07-17T15:43:39Z</time>
<desc>lat.=55.836967, lon.=26.047375, Alt.=158.345825m. Speed=0.612000m/h.</desc>
<speed>0.170000</speed>
</trkpt>
<trkpt lat="55.836967" lon="26.047377">
<ele>158.408325</ele>
<time>2010-07-17T15:43:40Z</time>
<desc>lat.=55.836967, lon.=26.047377, Alt.=158.408325m. Speed=0.540000m/h.</desc>
<speed>0.150000</speed>
</trkpt>
<trkpt lat="55.836967" lon="26.047379">
<ele>158.466919</ele>
<time>2010-07-17T15:43:41Z</time>
<desc>lat.=55.836967, lon.=26.047379, Alt.=158.466919m. Speed=0.612000m/h.</desc>
<speed>0.170000</speed>
</trkpt>
<trkpt lat="55.836967" lon="26.047382">
<ele>158.525513</ele>
<time>2010-07-17T15:43:42Z</time>
<desc>lat.=55.836967, lon.=26.047382, Alt.=158.525513m. Speed=0.576000m/h.</desc>
<speed>0.160000</speed>
</trkpt>
<trkpt lat="55.836971" lon="26.047384">
<ele>158.584106</ele>
<time>2010-07-17T15:43:43Z</time>
<desc>lat.=55.836971, lon.=26.047384, Alt.=158.584106m. Speed=0.576000m/h.</desc>
<speed>0.160000</speed>
</trkpt>
<trkpt lat="55.836971" lon="26.047386">
<ele>158.646606</ele>
<time>2010-07-17T15:43:44Z</time>
<desc>lat.=55.836971, lon.=26.047386, Alt.=158.646606m. Speed=0.504000m/h.</desc>
<speed>0.140000</speed>
</trkpt>
<trkpt lat="55.836971" lon="26.047388">
<ele>158.709106</ele>
<time>2010-07-17T15:43:45Z</time>
<desc>lat.=55.836971, lon.=26.047388, Alt.=158.709106m. Speed=0.504000m/h.</desc>
<speed>0.140000</speed>
</trkpt>
<trkpt lat="55.836971" lon="26.047390">
<ele>158.771606</ele>
<time>2010-07-17T15:43:46Z</time>
<desc>lat.=55.836971, lon.=26.047390, Alt.=158.771606m. Speed=0.504000m/h.</desc>
<speed>0.140000</speed>
</trkpt>
<trkpt lat="55.836971" lon="26.047392">
<ele>158.834106</ele>
<time>2010-07-17T15:43:47Z</time>
<desc>lat.=55.836971, lon.=26.047392, Alt.=158.834106m. Speed=0.504000m/h.</desc>
<speed>0.140000</speed>
</trkpt>
<trkpt lat="55.836975" lon="26.047394">
<ele>158.896606</ele>
<time>2010-07-17T15:43:48Z</time>
<desc>lat.=55.836975, lon.=26.047394, Alt.=158.896606m. Speed=0.432000m/h.</desc>
<speed>0.120000</speed>
</trkpt>
<trkpt lat="55.836975" lon="26.047396">
<ele>158.963013</ele>
<time>2010-07-17T15:43:49Z</time>
<desc>lat.=55.836975, lon.=26.047396, Alt.=158.963013m. Speed=0.432000m/h.</desc>
<speed>0.120000</speed>
</trkpt>
<trkpt lat="55.836975" lon="26.047398">
<ele>159.025513</ele>
<time>2010-07-17T15:43:50Z</time>
<desc>lat.=55.836975, lon.=26.047398, Alt.=159.025513m. Speed=0.432000m/h.</desc>
<speed>0.120000</speed>
</trkpt>
<trkpt lat="55.836975" lon="26.047400">
<ele>159.088013</ele>
<time>2010-07-17T15:43:51Z</time>
<desc>lat.=55.836975, lon.=26.047400, Alt.=159.088013m. Speed=0.576000m/h.</desc>
<speed>0.160000</speed>
</trkpt>
<trkpt lat="55.836971" lon="26.047401">
<ele>159.150513</ele>
<time>2010-07-17T15:43:52Z</time>
<desc>lat.=55.836971, lon.=26.047401, Alt.=159.150513m. Speed=0.576000m/h.</desc>
<speed>0.160000</speed>
</trkpt>
<trkpt lat="55.836971" lon="26.047403">
<ele>159.205200</ele>
<time>2010-07-17T15:43:53Z</time>
<desc>lat.=55.836971, lon.=26.047403, Alt.=159.205200m. Speed=0.648000m/h.</desc>
<speed>0.180000</speed>
</trkpt>
<trkpt lat="55.836971" lon="26.047407">
<ele>159.263794</ele>
<time>2010-07-17T15:43:54Z</time>
<desc>lat.=55.836971, lon.=26.047407, Alt.=159.263794m. Speed=0.684000m/h.</desc>
<speed>0.190000</speed>
</trkpt>
<trkpt lat="55.836971" lon="26.047409">
<ele>159.318481</ele>
<time>2010-07-17T15:43:55Z</time>
<desc>lat.=55.836971, lon.=26.047409, Alt.=159.318481m. Speed=0.648000m/h.</desc>
<speed>0.180000</speed>
</trkpt>
<trkpt lat="55.836967" lon="26.047411">
<ele>159.373169</ele>
<time>2010-07-17T15:43:56Z</time>
<desc>lat.=55.836967, lon.=26.047411, Alt.=159.373169m. Speed=0.756000m/h.</desc>
<speed>0.210000</speed>
</trkpt>
<trkpt lat="55.836967" lon="26.047415">
<ele>159.423950</ele>
<time>2010-07-17T15:43:57Z</time>
<desc>lat.=55.836967, lon.=26.047415, Alt.=159.423950m. Speed=0.864000m/h.</desc>
<speed>0.240000</speed>
</trkpt>
<trkpt lat="55.836964" lon="26.047417">
<ele>159.474731</ele>
<time>2010-07-17T15:43:58Z</time>
<desc>lat.=55.836964, lon.=26.047417, Alt.=159.474731m. Speed=0.864000m/h.</desc>
<speed>0.240000</speed>
</trkpt>
<trkpt lat="55.836964" lon="26.047421">
<ele>159.525513</ele>
<time>2010-07-17T15:43:59Z</time>
<desc>lat.=55.836964, lon.=26.047421, Alt.=159.525513m. Speed=0.828000m/h.</desc>
<speed>0.230000</speed>
</trkpt>
<trkpt lat="55.836964" lon="26.047422">
<ele>159.576294</ele>
<time>2010-07-17T15:44:00Z</time>
<desc>lat.=55.836964, lon.=26.047422, Alt.=159.576294m. Speed=0.900000m/h.</desc>
<speed>0.250000</speed>
</trkpt>
<trkpt lat="55.836960" lon="26.047426">
<ele>159.627075</ele>
<time>2010-07-17T15:44:01Z</time>
<desc>lat.=55.836960, lon.=26.047426, Alt.=159.627075m. Speed=0.864000m/h.</desc>
<speed>0.240000</speed>
</trkpt>
<trkpt lat="55.836960" lon="26.047428">
<ele>159.681763</ele>
<time>2010-07-17T15:44:02Z</time>
<desc>lat.=55.836960, lon.=26.047428, Alt.=159.681763m. Speed=0.864000m/h.</desc>
<speed>0.240000</speed>
</trkpt>
<trkpt lat="55.836956" lon="26.047430">
<ele>159.736450</ele>
<time>2010-07-17T15:44:03Z</time>
<desc>lat.=55.836956, lon.=26.047430, Alt.=159.736450m. Speed=0.756000m/h.</desc>
<speed>0.210000</speed>
</trkpt>
<trkpt lat="55.836956" lon="26.047432">
<ele>159.791138</ele>
<time>2010-07-17T15:44:04Z</time>
<desc>lat.=55.836956, lon.=26.047432, Alt.=159.791138m. Speed=0.720000m/h.</desc>
<speed>0.200000</speed>
</trkpt>
<trkpt lat="55.836952" lon="26.047434">
<ele>159.841919</ele>
<time>2010-07-17T15:44:05Z</time>
<desc>lat.=55.836952, lon.=26.047434, Alt.=159.841919m. Speed=0.612000m/h.</desc>
<speed>0.170000</speed>
</trkpt>
<trkpt lat="55.836952" lon="26.047434">
<ele>159.888794</ele>
<time>2010-07-17T15:44:06Z</time>
<desc>lat.=55.836952, lon.=26.047434, Alt.=159.888794m. Speed=0.576000m/h.</desc>
<speed>0.160000</speed>
</trkpt>
<trkpt lat="55.836952" lon="26.047436">
<ele>159.939575</ele>
<time>2010-07-17T15:44:07Z</time>
<desc>lat.=55.836952, lon.=26.047436, Alt.=159.939575m. Speed=0.576000m/h.</desc>
<speed>0.160000</speed>
</trkpt>
<trkpt lat="55.836948" lon="26.047436">
<ele>159.982544</ele>
<time>2010-07-17T15:44:08Z</time>
<desc>lat.=55.836948, lon.=26.047436, Alt.=159.982544m. Speed=0.504000m/h.</desc>
<speed>0.140000</speed>
</trkpt>
<trkpt lat="55.836948" lon="26.047436">
<ele>160.025513</ele>
<time>2010-07-17T15:44:09Z</time>
<desc>lat.=55.836948, lon.=26.047436, Alt.=160.025513m. Speed=0.468000m/h.</desc>
<speed>0.130000</speed>
</trkpt>
<trkpt lat="55.836948" lon="26.047438">
<ele>160.064575</ele>
<time>2010-07-17T15:44:10Z</time>
<desc>lat.=55.836948, lon.=26.047438, Alt.=160.064575m. Speed=0.360000m/h.</desc>
<speed>0.100000</speed>
</trkpt>
<trkpt lat="55.836948" lon="26.047438">
<ele>160.107544</ele>
<time>2010-07-17T15:44:11Z</time>
<desc>lat.=55.836948, lon.=26.047438, Alt.=160.107544m. Speed=0.324000m/h.</desc>
<speed>0.090000</speed>
</trkpt>
<trkpt lat="55.836945" lon="26.047438">
<ele>160.138794</ele>
<time>2010-07-17T15:44:12Z</time>
<desc>lat.=55.836945, lon.=26.047438, Alt.=160.138794m. Speed=0.288000m/h.</desc>
<speed>0.080000</speed>
</trkpt>
<trkpt lat="55.836945" lon="26.047440">
<ele>160.162231</ele>
<time>2010-07-17T15:44:13Z</time>
<desc>lat.=55.836945, lon.=26.047440, Alt.=160.162231m. Speed=0.216000m/h.</desc>
<speed>0.060000</speed>
</trkpt>
<trkpt lat="55.836945" lon="26.047440">
<ele>160.173950</ele>
<time>2010-07-17T15:44:14Z</time>
<desc>lat.=55.836945, lon.=26.047440, Alt.=160.173950m. Speed=0.216000m/h.</desc>
<speed>0.060000</speed>
</trkpt>
<trkpt lat="55.836945" lon="26.047440">
<ele>160.185669</ele>
<time>2010-07-17T15:44:15Z</time>
<desc>lat.=55.836945, lon.=26.047440, Alt.=160.185669m. Speed=0.180000m/h.</desc>
<speed>0.050000</speed>
</trkpt>
<trkpt lat="55.836945" lon="26.047440">
<ele>160.185669</ele>
<time>2010-07-17T15:44:16Z</time>
<desc>lat.=55.836945, lon.=26.047440, Alt.=160.185669m. Speed=0.108000m/h.</desc>
<speed>0.030000</speed>
</trkpt>
<trkpt lat="55.836945" lon="26.047441">
<ele>160.185669</ele>
<time>2010-07-17T15:44:17Z</time>
<desc>lat.=55.836945, lon.=26.047441, Alt.=160.185669m. Speed=0.036000m/h.</desc>
<speed>0.010000</speed>
</trkpt>
<trkpt lat="55.836945" lon="26.047441">
<ele>160.185669</ele>
<time>2010-07-17T15:44:18Z</time>
<desc>lat.=55.836945, lon.=26.047441, Alt.=160.185669m. Speed=0.072000m/h.</desc>
<speed>0.020000</speed>
</trkpt>
<trkpt lat="55.836945" lon="26.047441">
<ele>160.185669</ele>
<time>2010-07-17T15:44:19Z</time>
<desc>lat.=55.836945, lon.=26.047441, Alt.=160.185669m. Speed=0.144000m/h.</desc>
<speed>0.040000</speed>
</trkpt>
<trkpt lat="55.836945" lon="26.047440">
<ele>160.181763</ele>
<time>2010-07-17T15:44:20Z</time>
<desc>lat.=55.836945, lon.=26.047440, Alt.=160.181763m. Speed=0.216000m/h.</desc>
<speed>0.060000</speed>
</trkpt>
<trkpt lat="55.836945" lon="26.047440">
<ele>160.170044</ele>
<time>2010-07-17T15:44:21Z</time>
<desc>lat.=55.836945, lon.=26.047440, Alt.=160.170044m. Speed=0.360000m/h.</desc>
<speed>0.100000</speed>
</trkpt>
<trkpt lat="55.836948" lon="26.047440">
<ele>160.162231</ele>
<time>2010-07-17T15:44:22Z</time>
<desc>lat.=55.836948, lon.=26.047440, Alt.=160.162231m. Speed=0.432000m/h.</desc>
<speed>0.120000</speed>
</trkpt>
<trkpt lat="55.836948" lon="26.047440">
<ele>160.146606</ele>
<time>2010-07-17T15:44:23Z</time>
<desc>lat.=55.836948, lon.=26.047440, Alt.=160.146606m. Speed=0.576000m/h.</desc>
<speed>0.160000</speed>
</trkpt>
<trkpt lat="55.836948" lon="26.047438">
<ele>160.134888</ele>
<time>2010-07-17T15:44:24Z</time>
<desc>lat.=55.836948, lon.=26.047438, Alt.=160.134888m. Speed=0.612000m/h.</desc>
<speed>0.170000</speed>
</trkpt>
<trkpt lat="55.836952" lon="26.047438">
<ele>160.119263</ele>
<time>2010-07-17T15:44:25Z</time>
<desc>lat.=55.836952, lon.=26.047438, Alt.=160.119263m. Speed=0.684000m/h.</desc>
<speed>0.190000</speed>
</trkpt>
<trkpt lat="55.836952" lon="26.047438">
<ele>160.103638</ele>
<time>2010-07-17T15:44:26Z</time>
<desc>lat.=55.836952, lon.=26.047438, Alt.=160.103638m. Speed=0.792000m/h.</desc>
<speed>0.220000</speed>
</trkpt>
<trkpt lat="55.836956" lon="26.047438">
<ele>160.088013</ele>
<time>2010-07-17T15:44:27Z</time>
<desc>lat.=55.836956, lon.=26.047438, Alt.=160.088013m. Speed=0.828000m/h.</desc>
<speed>0.230000</speed>
</trkpt>
<trkpt lat="55.836956" lon="26.047438">
<ele>160.072388</ele>
<time>2010-07-17T15:44:28Z</time>
<desc>lat.=55.836956, lon.=26.047438, Alt.=160.072388m. Speed=0.900000m/h.</desc>
<speed>0.250000</speed>
</trkpt>
<trkpt lat="55.836960" lon="26.047438">
<ele>160.052856</ele>
<time>2010-07-17T15:44:29Z</time>
<desc>lat.=55.836960, lon.=26.047438, Alt.=160.052856m. Speed=0.864000m/h.</desc>
<speed>0.240000</speed>
</trkpt>
<trkpt lat="55.836964" lon="26.047438">
<ele>160.033325</ele>
<time>2010-07-17T15:44:30Z</time>
<desc>lat.=55.836964, lon.=26.047438, Alt.=160.033325m. Speed=0.756000m/h.</desc>
<speed>0.210000</speed>
</trkpt>
<trkpt lat="55.836964" lon="26.047438">
<ele>160.009888</ele>
<time>2010-07-17T15:44:31Z</time>
<desc>lat.=55.836964, lon.=26.047438, Alt.=160.009888m. Speed=0.612000m/h.</desc>
<speed>0.170000</speed>
</trkpt>
<trkpt lat="55.836964" lon="26.047438">
<ele>159.982544</ele>
<time>2010-07-17T15:44:32Z</time>
<desc>lat.=55.836964, lon.=26.047438, Alt.=159.982544m. Speed=0.612000m/h.</desc>
<speed>0.170000</speed>
</trkpt>
<trkpt lat="55.836967" lon="26.047436">
<ele>159.943481</ele>
<time>2010-07-17T15:44:33Z</time>
<desc>lat.=55.836967, lon.=26.047436, Alt.=159.943481m. Speed=0.648000m/h.</desc>
<speed>0.180000</speed>
</trkpt>
<trkpt lat="55.836967" lon="26.047436">
<ele>159.904419</ele>
<time>2010-07-17T15:44:34Z</time>
<desc>lat.=55.836967, lon.=26.047436, Alt.=159.904419m. Speed=0.684000m/h.</desc>
<speed>0.190000</speed>
</trkpt>
<trkpt lat="55.836971" lon="26.047436">
<ele>159.869263</ele>
<time>2010-07-17T15:44:35Z</time>
<desc>lat.=55.836971, lon.=26.047436, Alt.=159.869263m. Speed=0.612000m/h.</desc>
<speed>0.170000</speed>
</trkpt>
<trkpt lat="55.836971" lon="26.047436">
<ele>159.826294</ele>
<time>2010-07-17T15:44:36Z</time>
<desc>lat.=55.836971, lon.=26.047436, Alt.=159.826294m. Speed=0.612000m/h.</desc>
<speed>0.170000</speed>
</trkpt>
<trkpt lat="55.836975" lon="26.047436">
<ele>159.787231</ele>
<time>2010-07-17T15:44:37Z</time>
<desc>lat.=55.836975, lon.=26.047436, Alt.=159.787231m. Speed=0.612000m/h.</desc>
<speed>0.170000</speed>
</trkpt>
<trkpt lat="55.836975" lon="26.047436">
<ele>159.740356</ele>
<time>2010-07-17T15:44:38Z</time>
<desc>lat.=55.836975, lon.=26.047436, Alt.=159.740356m. Speed=0.612000m/h.</desc>
<speed>0.170000</speed>
</trkpt>
<trkpt lat="55.836975" lon="26.047436">
<ele>159.693481</ele>
<time>2010-07-17T15:44:39Z</time>
<desc>lat.=55.836975, lon.=26.047436, Alt.=159.693481m. Speed=0.684000m/h.</desc>
<speed>0.190000</speed>
</trkpt>
<trkpt lat="55.836979" lon="26.047434">
<ele>159.638794</ele>
<time>2010-07-17T15:44:40Z</time>
<desc>lat.=55.836979, lon.=26.047434, Alt.=159.638794m. Speed=0.720000m/h.</desc>
<speed>0.200000</speed>
</trkpt>
<trkpt lat="55.836979" lon="26.047434">
<ele>159.584106</ele>
<time>2010-07-17T15:44:41Z</time>
<desc>lat.=55.836979, lon.=26.047434, Alt.=159.584106m. Speed=0.720000m/h.</desc>
<speed>0.200000</speed>
</trkpt>
<trkpt lat="55.836983" lon="26.047434">
<ele>159.521606</ele>
<time>2010-07-17T15:44:42Z</time>
<desc>lat.=55.836983, lon.=26.047434, Alt.=159.521606m. Speed=0.756000m/h.</desc>
<speed>0.210000</speed>
</trkpt>
<trkpt lat="55.836983" lon="26.047432">
<ele>159.455200</ele>
<time>2010-07-17T15:44:43Z</time>
<desc>lat.=55.836983, lon.=26.047432, Alt.=159.455200m. Speed=0.792000m/h.</desc>
<speed>0.220000</speed>
</trkpt>
<trkpt lat="55.836987" lon="26.047430">
<ele>159.388794</ele>
<time>2010-07-17T15:44:44Z</time>
<desc>lat.=55.836987, lon.=26.047430, Alt.=159.388794m. Speed=0.792000m/h.</desc>
<speed>0.220000</speed>
</trkpt>
<trkpt lat="55.836987" lon="26.047430">
<ele>159.318481</ele>
<time>2010-07-17T15:44:45Z</time>
<desc>lat.=55.836987, lon.=26.047430, Alt.=159.318481m. Speed=0.828000m/h.</desc>
<speed>0.230000</speed>
</trkpt>
<trkpt lat="55.836990" lon="26.047428">
<ele>159.244263</ele>
<time>2010-07-17T15:44:46Z</time>
<desc>lat.=55.836990, lon.=26.047428, Alt.=159.244263m. Speed=0.864000m/h.</desc>
<speed>0.240000</speed>
</trkpt>
<trkpt lat="55.836994" lon="26.047428">
<ele>159.170044</ele>
<time>2010-07-17T15:44:47Z</time>
<desc>lat.=55.836994, lon.=26.047428, Alt.=159.170044m. Speed=0.972000m/h.</desc>
<speed>0.270000</speed>
</trkpt>
<trkpt lat="55.836994" lon="26.047426">
<ele>159.095825</ele>
<time>2010-07-17T15:44:48Z</time>
<desc>lat.=55.836994, lon.=26.047426, Alt.=159.095825m. Speed=1.008000m/h.</desc>
<speed>0.280000</speed>
</trkpt>
<trkpt lat="55.836998" lon="26.047424">
<ele>159.021606</ele>
<time>2010-07-17T15:44:49Z</time>
<desc>lat.=55.836998, lon.=26.047424, Alt.=159.021606m. Speed=1.008000m/h.</desc>
<speed>0.280000</speed>
</trkpt>
<trkpt lat="55.836998" lon="26.047422">
<ele>158.943481</ele>
<time>2010-07-17T15:44:50Z</time>
<desc>lat.=55.836998, lon.=26.047422, Alt.=158.943481m. Speed=1.080000m/h.</desc>
<speed>0.300000</speed>
</trkpt>
<trkpt lat="55.837006" lon="26.047417">
<ele>158.861450</ele>
<time>2010-07-17T15:44:51Z</time>
<desc>lat.=55.837006, lon.=26.047417, Alt.=158.861450m. Speed=1.080000m/h.</desc>
<speed>0.300000</speed>
</trkpt>
<trkpt lat="55.837009" lon="26.047413">
<ele>158.693481</ele>
<time>2010-07-17T15:44:52Z</time>
<desc>lat.=55.837009, lon.=26.047413, Alt.=158.693481m. Speed=1.008000m/h.</desc>
<speed>0.280000</speed>
</trkpt>
<trkpt lat="55.837017" lon="26.047407">
<ele>158.556763</ele>
<time>2010-07-17T15:44:53Z</time>
<desc>lat.=55.837017, lon.=26.047407, Alt.=158.556763m. Speed=1.044000m/h.</desc>
<speed>0.290000</speed>
</trkpt>
<trkpt lat="55.837021" lon="26.047400">
<ele>158.310669</ele>
<time>2010-07-17T15:44:54Z</time>
<desc>lat.=55.837021, lon.=26.047400, Alt.=158.310669m. Speed=1.044000m/h.</desc>
<speed>0.290000</speed>
</trkpt>
<trkpt lat="55.837032" lon="26.047390">
<ele>158.084106</ele>
<time>2010-07-17T15:44:55Z</time>
<desc>lat.=55.837032, lon.=26.047390, Alt.=158.084106m. Speed=1.152000m/h.</desc>
<speed>0.320000</speed>
</trkpt>
<trkpt lat="55.837044" lon="26.047380">
<ele>157.939575</ele>
<time>2010-07-17T15:44:56Z</time>
<desc>lat.=55.837044, lon.=26.047380, Alt.=157.939575m. Speed=1.260000m/h.</desc>
<speed>0.350000</speed>
</trkpt>
<trkpt lat="55.837055" lon="26.047375">
<ele>157.841919</ele>
<time>2010-07-17T15:44:57Z</time>
<desc>lat.=55.837055, lon.=26.047375, Alt.=157.841919m. Speed=1.368000m/h.</desc>
<speed>0.380000</speed>
</trkpt>
<trkpt lat="55.837067" lon="26.047369">
<ele>157.685669</ele>
<time>2010-07-17T15:44:58Z</time>
<desc>lat.=55.837067, lon.=26.047369, Alt.=157.685669m. Speed=1.440000m/h.</desc>
<speed>0.400000</speed>
</trkpt>
<trkpt lat="55.837070" lon="26.047365">
<ele>157.599731</ele>
<time>2010-07-17T15:44:59Z</time>
<desc>lat.=55.837070, lon.=26.047365, Alt.=157.599731m. Speed=1.404000m/h.</desc>
<speed>0.390000</speed>
</trkpt>
<trkpt lat="55.837082" lon="26.047363">
<ele>157.474731</ele>
<time>2010-07-17T15:45:00Z</time>
<desc>lat.=55.837082, lon.=26.047363, Alt.=157.474731m. Speed=1.440000m/h.</desc>
<speed>0.400000</speed>
</trkpt>
<trkpt lat="55.837086" lon="26.047359">
<ele>157.420044</ele>
<time>2010-07-17T15:45:01Z</time>
<desc>lat.=55.837086, lon.=26.047359, Alt.=157.420044m. Speed=1.368000m/h.</desc>
<speed>0.380000</speed>
</trkpt>
<trkpt lat="55.837090" lon="26.047358">
<ele>157.443481</ele>
<time>2010-07-17T15:45:02Z</time>
<desc>lat.=55.837090, lon.=26.047358, Alt.=157.443481m. Speed=1.332000m/h.</desc>
<speed>0.370000</speed>
</trkpt>
<trkpt lat="55.837093" lon="26.047359">
<ele>157.388794</ele>
<time>2010-07-17T15:45:03Z</time>
<desc>lat.=55.837093, lon.=26.047359, Alt.=157.388794m. Speed=1.332000m/h.</desc>
<speed>0.370000</speed>
</trkpt>
<trkpt lat="55.837097" lon="26.047359">
<ele>157.330200</ele>
<time>2010-07-17T15:45:04Z</time>
<desc>lat.=55.837097, lon.=26.047359, Alt.=157.330200m. Speed=1.296000m/h.</desc>
<speed>0.360000</speed>
</trkpt>
<trkpt lat="55.837101" lon="26.047359">
<ele>157.173950</ele>
<time>2010-07-17T15:45:05Z</time>
<desc>lat.=55.837101, lon.=26.047359, Alt.=157.173950m. Speed=1.224000m/h.</desc>
<speed>0.340000</speed>
</trkpt>
<trkpt lat="55.837101" lon="26.047359">
<ele>157.025513</ele>
<time>2010-07-17T15:45:06Z</time>
<desc>lat.=55.837101, lon.=26.047359, Alt.=157.025513m. Speed=1.116000m/h.</desc>
<speed>0.310000</speed>
</trkpt>
<trkpt lat="55.837093" lon="26.047361">
<ele>156.810669</ele>
<time>2010-07-17T15:45:07Z</time>
<desc>lat.=55.837093, lon.=26.047361, Alt.=156.810669m. Speed=0.900000m/h.</desc>
<speed>0.250000</speed>
</trkpt>
<trkpt lat="55.837090" lon="26.047361">
<ele>156.685669</ele>
<time>2010-07-17T15:45:08Z</time>
<desc>lat.=55.837090, lon.=26.047361, Alt.=156.685669m. Speed=0.756000m/h.</desc>
<speed>0.210000</speed>
</trkpt>
<trkpt lat="55.837086" lon="26.047361">
<ele>156.638794</ele>
<time>2010-07-17T15:45:09Z</time>
<desc>lat.=55.837086, lon.=26.047361, Alt.=156.638794m. Speed=0.648000m/h.</desc>
<speed>0.180000</speed>
</trkpt>
<trkpt lat="55.837078" lon="26.047358">
<ele>156.509888</ele>
<time>2010-07-17T15:45:10Z</time>
<desc>lat.=55.837078, lon.=26.047358, Alt.=156.509888m. Speed=0.504000m/h.</desc>
<speed>0.140000</speed>
</trkpt>
<trkpt lat="55.837082" lon="26.047358">
<ele>156.431763</ele>
<time>2010-07-17T15:45:11Z</time>
<desc>lat.=55.837082, lon.=26.047358, Alt.=156.431763m. Speed=0.432000m/h.</desc>
<speed>0.120000</speed>
</trkpt>
<trkpt lat="55.837082" lon="26.047358">
<ele>156.349731</ele>
<time>2010-07-17T15:45:12Z</time>
<desc>lat.=55.837082, lon.=26.047358, Alt.=156.349731m. Speed=0.324000m/h.</desc>
<speed>0.090000</speed>
</trkpt>
<trkpt lat="55.837082" lon="26.047358">
<ele>156.271606</ele>
<time>2010-07-17T15:45:13Z</time>
<desc>lat.=55.837082, lon.=26.047358, Alt.=156.271606m. Speed=0.288000m/h.</desc>
<speed>0.080000</speed>
</trkpt>
<trkpt lat="55.837082" lon="26.047358">
<ele>156.189575</ele>
<time>2010-07-17T15:45:14Z</time>
<desc>lat.=55.837082, lon.=26.047358, Alt.=156.189575m. Speed=0.144000m/h.</desc>
<speed>0.040000</speed>
</trkpt>
<trkpt lat="55.837082" lon="26.047358">
<ele>156.111450</ele>
<time>2010-07-17T15:45:15Z</time>
<desc>lat.=55.837082, lon.=26.047358, Alt.=156.111450m. Speed=0.108000m/h.</desc>
<speed>0.030000</speed>
</trkpt>
<trkpt lat="55.837082" lon="26.047358">
<ele>156.029419</ele>
<time>2010-07-17T15:45:16Z</time>
<desc>lat.=55.837082, lon.=26.047358, Alt.=156.029419m. Speed=0.036000m/h.</desc>
<speed>0.010000</speed>
</trkpt>
<trkpt lat="55.837082" lon="26.047356">
<ele>155.951294</ele>
<time>2010-07-17T15:45:17Z</time>
<desc>lat.=55.837082, lon.=26.047356, Alt.=155.951294m. Speed=0.144000m/h.</desc>
<speed>0.040000</speed>
</trkpt>
<trkpt lat="55.837082" lon="26.047356">
<ele>155.869263</ele>
<time>2010-07-17T15:45:18Z</time>
<desc>lat.=55.837082, lon.=26.047356, Alt.=155.869263m. Speed=0.144000m/h.</desc>
<speed>0.040000</speed>
</trkpt>
<trkpt lat="55.837082" lon="26.047356">
<ele>155.791138</ele>
<time>2010-07-17T15:45:19Z</time>
<desc>lat.=55.837082, lon.=26.047356, Alt.=155.791138m. Speed=0.180000m/h.</desc>
<speed>0.050000</speed>
</trkpt>
<trkpt lat="55.837082" lon="26.047356">
<ele>155.709106</ele>
<time>2010-07-17T15:45:20Z</time>
<desc>lat.=55.837082, lon.=26.047356, Alt.=155.709106m. Speed=0.216000m/h.</desc>
<speed>0.060000</speed>
</trkpt>
<trkpt lat="55.837082" lon="26.047354">
<ele>155.627075</ele>
<time>2010-07-17T15:45:21Z</time>
<desc>lat.=55.837082, lon.=26.047354, Alt.=155.627075m. Speed=0.288000m/h.</desc>
<speed>0.080000</speed>
</trkpt>
<trkpt lat="55.837082" lon="26.047354">
<ele>155.548950</ele>
<time>2010-07-17T15:45:22Z</time>
<desc>lat.=55.837082, lon.=26.047354, Alt.=155.548950m. Speed=0.360000m/h.</desc>
<speed>0.100000</speed>
</trkpt>
<trkpt lat="55.837078" lon="26.047356">
<ele>155.470825</ele>
<time>2010-07-17T15:45:23Z</time>
<desc>lat.=55.837078, lon.=26.047356, Alt.=155.470825m. Speed=0.396000m/h.</desc>
<speed>0.110000</speed>
</trkpt>
<trkpt lat="55.837078" lon="26.047356">
<ele>155.388794</ele>
<time>2010-07-17T15:45:24Z</time>
<desc>lat.=55.837078, lon.=26.047356, Alt.=155.388794m. Speed=0.468000m/h.</desc>
<speed>0.130000</speed>
</trkpt>
<trkpt lat="55.837078" lon="26.047356">
<ele>155.306763</ele>
<time>2010-07-17T15:45:25Z</time>
<desc>lat.=55.837078, lon.=26.047356, Alt.=155.306763m. Speed=0.504000m/h.</desc>
<speed>0.140000</speed>
</trkpt>
<trkpt lat="55.837074" lon="26.047356">
<ele>155.228638</ele>
<time>2010-07-17T15:45:26Z</time>
<desc>lat.=55.837074, lon.=26.047356, Alt.=155.228638m. Speed=0.576000m/h.</desc>
<speed>0.160000</speed>
</trkpt>
<trkpt lat="55.837074" lon="26.047354">
<ele>155.146606</ele>
<time>2010-07-17T15:45:27Z</time>
<desc>lat.=55.837074, lon.=26.047354, Alt.=155.146606m. Speed=0.756000m/h.</desc>
<speed>0.210000</speed>
</trkpt>
<trkpt lat="55.837074" lon="26.047354">
<ele>155.068481</ele>
<time>2010-07-17T15:45:28Z</time>
<desc>lat.=55.837074, lon.=26.047354, Alt.=155.068481m. Speed=0.864000m/h.</desc>
<speed>0.240000</speed>
</trkpt>
<trkpt lat="55.837070" lon="26.047350">
<ele>154.986450</ele>
<time>2010-07-17T15:45:29Z</time>
<desc>lat.=55.837070, lon.=26.047350, Alt.=154.986450m. Speed=0.972000m/h.</desc>
<speed>0.270000</speed>
</trkpt>
<trkpt lat="55.837070" lon="26.047348">
<ele>154.904419</ele>
<time>2010-07-17T15:45:30Z</time>
<desc>lat.=55.837070, lon.=26.047348, Alt.=154.904419m. Speed=1.080000m/h.</desc>
<speed>0.300000</speed>
</trkpt>
<trkpt lat="55.837055" lon="26.047342">
<ele>154.791138</ele>
<time>2010-07-17T15:45:31Z</time>
<desc>lat.=55.837055, lon.=26.047342, Alt.=154.791138m. Speed=1.224000m/h.</desc>
<speed>0.340000</speed>
</trkpt>
<trkpt lat="55.837044" lon="26.047340">
<ele>154.681763</ele>
<time>2010-07-17T15:45:32Z</time>
<desc>lat.=55.837044, lon.=26.047340, Alt.=154.681763m. Speed=1.260000m/h.</desc>
<speed>0.350000</speed>
</trkpt>
<trkpt lat="55.837048" lon="26.047346">
<ele>154.599731</ele>
<time>2010-07-17T15:45:33Z</time>
<desc>lat.=55.837048, lon.=26.047346, Alt.=154.599731m. Speed=0.936000m/h.</desc>
<speed>0.260000</speed>
</trkpt>
<trkpt lat="55.837040" lon="26.047342">
<ele>154.463013</ele>
<time>2010-07-17T15:45:34Z</time>
<desc>lat.=55.837040, lon.=26.047342, Alt.=154.463013m. Speed=1.008000m/h.</desc>
<speed>0.280000</speed>
</trkpt>
<trkpt lat="55.837032" lon="26.047340">
<ele>154.361450</ele>
<time>2010-07-17T15:45:35Z</time>
<desc>lat.=55.837032, lon.=26.047340, Alt.=154.361450m. Speed=1.008000m/h.</desc>
<speed>0.280000</speed>
</trkpt>
<trkpt lat="55.837029" lon="26.047338">
<ele>154.263794</ele>
<time>2010-07-17T15:45:36Z</time>
<desc>lat.=55.837029, lon.=26.047338, Alt.=154.263794m. Speed=0.972000m/h.</desc>
<speed>0.270000</speed>
</trkpt>
<trkpt lat="55.837029" lon="26.047338">
<ele>154.177856</ele>
<time>2010-07-17T15:45:37Z</time>
<desc>lat.=55.837029, lon.=26.047338, Alt.=154.177856m. Speed=0.972000m/h.</desc>
<speed>0.270000</speed>
</trkpt>
<trkpt lat="55.837025" lon="26.047337">
<ele>154.091919</ele>
<time>2010-07-17T15:45:38Z</time>
<desc>lat.=55.837025, lon.=26.047337, Alt.=154.091919m. Speed=1.044000m/h.</desc>
<speed>0.290000</speed>
</trkpt>
<trkpt lat="55.837021" lon="26.047337">
<ele>154.005981</ele>
<time>2010-07-17T15:45:39Z</time>
<desc>lat.=55.837021, lon.=26.047337, Alt.=154.005981m. Speed=1.044000m/h.</desc>
<speed>0.290000</speed>
</trkpt>
<trkpt lat="55.837021" lon="26.047335">
<ele>153.920044</ele>
<time>2010-07-17T15:45:40Z</time>
<desc>lat.=55.837021, lon.=26.047335, Alt.=153.920044m. Speed=0.792000m/h.</desc>
<speed>0.220000</speed>
</trkpt>
<trkpt lat="55.837017" lon="26.047335">
<ele>153.830200</ele>
<time>2010-07-17T15:45:41Z</time>
<desc>lat.=55.837017, lon.=26.047335, Alt.=153.830200m. Speed=0.828000m/h.</desc>
<speed>0.230000</speed>
</trkpt>
<trkpt lat="55.837017" lon="26.047335">
<ele>153.740356</ele>
<time>2010-07-17T15:45:42Z</time>
<desc>lat.=55.837017, lon.=26.047335, Alt.=153.740356m. Speed=0.828000m/h.</desc>
<speed>0.230000</speed>
</trkpt>
<trkpt lat="55.837013" lon="26.047335">
<ele>153.654419</ele>
<time>2010-07-17T15:45:43Z</time>
<desc>lat.=55.837013, lon.=26.047335, Alt.=153.654419m. Speed=0.792000m/h.</desc>
<speed>0.220000</speed>
</trkpt>
<trkpt lat="55.837009" lon="26.047333">
<ele>153.572388</ele>
<time>2010-07-17T15:45:44Z</time>
<desc>lat.=55.837009, lon.=26.047333, Alt.=153.572388m. Speed=0.756000m/h.</desc>
<speed>0.210000</speed>
</trkpt>
<trkpt lat="55.837009" lon="26.047333">
<ele>153.486450</ele>
<time>2010-07-17T15:45:45Z</time>
<desc>lat.=55.837009, lon.=26.047333, Alt.=153.486450m. Speed=0.684000m/h.</desc>
<speed>0.190000</speed>
</trkpt>
<trkpt lat="55.837009" lon="26.047335">
<ele>153.400513</ele>
<time>2010-07-17T15:45:46Z</time>
<desc>lat.=55.837009, lon.=26.047335, Alt.=153.400513m. Speed=0.648000m/h.</desc>
<speed>0.180000</speed>
</trkpt>
<trkpt lat="55.837006" lon="26.047335">
<ele>153.314575</ele>
<time>2010-07-17T15:45:47Z</time>
<desc>lat.=55.837006, lon.=26.047335, Alt.=153.314575m. Speed=0.540000m/h.</desc>
<speed>0.150000</speed>
</trkpt>
<trkpt lat="55.837006" lon="26.047335">
<ele>153.228638</ele>
<time>2010-07-17T15:45:48Z</time>
<desc>lat.=55.837006, lon.=26.047335, Alt.=153.228638m. Speed=0.504000m/h.</desc>
<speed>0.140000</speed>
</trkpt>
<trkpt lat="55.837002" lon="26.047335">
<ele>153.142700</ele>
<time>2010-07-17T15:45:49Z</time>
<desc>lat.=55.837002, lon.=26.047335, Alt.=153.142700m. Speed=0.468000m/h.</desc>
<speed>0.130000</speed>
</trkpt>
<trkpt lat="55.837002" lon="26.047337">
<ele>153.056763</ele>
<time>2010-07-17T15:45:50Z</time>
<desc>lat.=55.837002, lon.=26.047337, Alt.=153.056763m. Speed=0.468000m/h.</desc>
<speed>0.130000</speed>
</trkpt>
<trkpt lat="55.837002" lon="26.047337">
<ele>152.970825</ele>
<time>2010-07-17T15:45:51Z</time>
<desc>lat.=55.837002, lon.=26.047337, Alt.=152.970825m. Speed=0.396000m/h.</desc>
<speed>0.110000</speed>
</trkpt>
<trkpt lat="55.837002" lon="26.047335">
<ele>152.884888</ele>
<time>2010-07-17T15:45:52Z</time>
<desc>lat.=55.837002, lon.=26.047335, Alt.=152.884888m. Speed=0.396000m/h.</desc>
<speed>0.110000</speed>
</trkpt>
<trkpt lat="55.836998" lon="26.047337">
<ele>152.802856</ele>
<time>2010-07-17T15:45:53Z</time>
<desc>lat.=55.836998, lon.=26.047337, Alt.=152.802856m. Speed=0.324000m/h.</desc>
<speed>0.090000</speed>
</trkpt>
<trkpt lat="55.836998" lon="26.047337">
<ele>152.716919</ele>
<time>2010-07-17T15:45:54Z</time>
<desc>lat.=55.836998, lon.=26.047337, Alt.=152.716919m. Speed=0.288000m/h.</desc>
<speed>0.080000</speed>
</trkpt>
<trkpt lat="55.836998" lon="26.047335">
<ele>152.630981</ele>
<time>2010-07-17T15:45:55Z</time>
<desc>lat.=55.836998, lon.=26.047335, Alt.=152.630981m. Speed=0.216000m/h.</desc>
<speed>0.060000</speed>
</trkpt>
<trkpt lat="55.836998" lon="26.047335">
<ele>152.545044</ele>
<time>2010-07-17T15:45:56Z</time>
<desc>lat.=55.836998, lon.=26.047335, Alt.=152.545044m. Speed=0.180000m/h.</desc>
<speed>0.050000</speed>
</trkpt>
<trkpt lat="55.836998" lon="26.047335">
<ele>152.459106</ele>
<time>2010-07-17T15:45:57Z</time>
<desc>lat.=55.836998, lon.=26.047335, Alt.=152.459106m. Speed=0.216000m/h.</desc>
<speed>0.060000</speed>
</trkpt>
<trkpt lat="55.836998" lon="26.047337">
<ele>152.373169</ele>
<time>2010-07-17T15:45:58Z</time>
<desc>lat.=55.836998, lon.=26.047337, Alt.=152.373169m. Speed=0.216000m/h.</desc>
<speed>0.060000</speed>
</trkpt>
<trkpt lat="55.836994" lon="26.047337">
<ele>152.287231</ele>
<time>2010-07-17T15:45:59Z</time>
<desc>lat.=55.836994, lon.=26.047337, Alt.=152.287231m. Speed=0.324000m/h.</desc>
<speed>0.090000</speed>
</trkpt>
<trkpt lat="55.836994" lon="26.047337">
<ele>152.201294</ele>
<time>2010-07-17T15:46:00Z</time>
<desc>lat.=55.836994, lon.=26.047337, Alt.=152.201294m. Speed=0.360000m/h.</desc>
<speed>0.100000</speed>
</trkpt>
<trkpt lat="55.836994" lon="26.047337">
<ele>152.115356</ele>
<time>2010-07-17T15:46:01Z</time>
<desc>lat.=55.836994, lon.=26.047337, Alt.=152.115356m. Speed=0.324000m/h.</desc>
<speed>0.090000</speed>
</trkpt>
<trkpt lat="55.836994" lon="26.047337">
<ele>152.029419</ele>
<time>2010-07-17T15:46:02Z</time>
<desc>lat.=55.836994, lon.=26.047337, Alt.=152.029419m. Speed=0.288000m/h.</desc>
<speed>0.080000</speed>
</trkpt>
<trkpt lat="55.836990" lon="26.047338">
<ele>151.943481</ele>
<time>2010-07-17T15:46:03Z</time>
<desc>lat.=55.836990, lon.=26.047338, Alt.=151.943481m. Speed=0.216000m/h.</desc>
<speed>0.060000</speed>
</trkpt>
<trkpt lat="55.836990" lon="26.047338">
<ele>151.857544</ele>
<time>2010-07-17T15:46:04Z</time>
<desc>lat.=55.836990, lon.=26.047338, Alt.=151.857544m. Speed=0.288000m/h.</desc>
<speed>0.080000</speed>
</trkpt>
<trkpt lat="55.836990" lon="26.047338">
<ele>151.771606</ele>
<time>2010-07-17T15:46:05Z</time>
<desc>lat.=55.836990, lon.=26.047338, Alt.=151.771606m. Speed=0.324000m/h.</desc>
<speed>0.090000</speed>
</trkpt>
<trkpt lat="55.836990" lon="26.047338">
<ele>151.685669</ele>
<time>2010-07-17T15:46:06Z</time>
<desc>lat.=55.836990, lon.=26.047338, Alt.=151.685669m. Speed=0.216000m/h.</desc>
<speed>0.060000</speed>
</trkpt>
<trkpt lat="55.836990" lon="26.047338">
<ele>151.599731</ele>
<time>2010-07-17T15:46:07Z</time>
<desc>lat.=55.836990, lon.=26.047338, Alt.=151.599731m. Speed=0.180000m/h.</desc>
<speed>0.050000</speed>
</trkpt>
<trkpt lat="55.836990" lon="26.047338">
<ele>151.513794</ele>
<time>2010-07-17T15:46:08Z</time>
<desc>lat.=55.836990, lon.=26.047338, Alt.=151.513794m. Speed=0.180000m/h.</desc>
<speed>0.050000</speed>
</trkpt>
<trkpt lat="55.836990" lon="26.047338">
<ele>151.427856</ele>
<time>2010-07-17T15:46:09Z</time>
<desc>lat.=55.836990, lon.=26.047338, Alt.=151.427856m. Speed=0.108000m/h.</desc>
<speed>0.030000</speed>
</trkpt>
<trkpt lat="55.836987" lon="26.047338">
<ele>151.341919</ele>
<time>2010-07-17T15:46:10Z</time>
<desc>lat.=55.836987, lon.=26.047338, Alt.=151.341919m. Speed=0.144000m/h.</desc>
<speed>0.040000</speed>
</trkpt>
<trkpt lat="55.836987" lon="26.047340">
<ele>151.255981</ele>
<time>2010-07-17T15:46:11Z</time>
<desc>lat.=55.836987, lon.=26.047340, Alt.=151.255981m. Speed=0.144000m/h.</desc>
<speed>0.040000</speed>
</trkpt>
<trkpt lat="55.836987" lon="26.047340">
<ele>151.170044</ele>
<time>2010-07-17T15:46:12Z</time>
<desc>lat.=55.836987, lon.=26.047340, Alt.=151.170044m. Speed=0.072000m/h.</desc>
<speed>0.020000</speed>
</trkpt>
<trkpt lat="55.836987" lon="26.047340">
<ele>151.088013</ele>
<time>2010-07-17T15:46:13Z</time>
<desc>lat.=55.836987, lon.=26.047340, Alt.=151.088013m. Speed=0.108000m/h.</desc>
<speed>0.030000</speed>
</trkpt>
<trkpt lat="55.836987" lon="26.047340">
<ele>151.002075</ele>
<time>2010-07-17T15:46:14Z</time>
<desc>lat.=55.836987, lon.=26.047340, Alt.=151.002075m. Speed=0.072000m/h.</desc>
<speed>0.020000</speed>
</trkpt>
<trkpt lat="55.836987" lon="26.047340">
<ele>150.916138</ele>
<time>2010-07-17T15:46:15Z</time>
<desc>lat.=55.836987, lon.=26.047340, Alt.=150.916138m. Speed=0.252000m/h.</desc>
<speed>0.070000</speed>
</trkpt>
<trkpt lat="55.836987" lon="26.047338">
<ele>150.834106</ele>
<time>2010-07-17T15:46:16Z</time>
<desc>lat.=55.836987, lon.=26.047338, Alt.=150.834106m. Speed=0.144000m/h.</desc>
<speed>0.040000</speed>
</trkpt>
<trkpt lat="55.836987" lon="26.047338">
<ele>150.748169</ele>
<time>2010-07-17T15:46:17Z</time>
<desc>lat.=55.836987, lon.=26.047338, Alt.=150.748169m. Speed=0.072000m/h.</desc>
<speed>0.020000</speed>
</trkpt>
<trkpt lat="55.836987" lon="26.047338">
<ele>150.662231</ele>
<time>2010-07-17T15:46:18Z</time>
<desc>lat.=55.836987, lon.=26.047338, Alt.=150.662231m. Speed=0.360000m/h.</desc>
<speed>0.100000</speed>
</trkpt>
<trkpt lat="55.836987" lon="26.047337">
<ele>150.580200</ele>
<time>2010-07-17T15:46:19Z</time>
<desc>lat.=55.836987, lon.=26.047337, Alt.=150.580200m. Speed=0.540000m/h.</desc>
<speed>0.150000</speed>
</trkpt>
<trkpt lat="55.836987" lon="26.047337">
<ele>150.498169</ele>
<time>2010-07-17T15:46:20Z</time>
<desc>lat.=55.836987, lon.=26.047337, Alt.=150.498169m. Speed=0.432000m/h.</desc>
<speed>0.120000</speed>
</trkpt>
<trkpt lat="55.836983" lon="26.047335">
<ele>150.420044</ele>
<time>2010-07-17T15:46:21Z</time>
<desc>lat.=55.836983, lon.=26.047335, Alt.=150.420044m. Speed=0.360000m/h.</desc>
<speed>0.100000</speed>
</trkpt>
<trkpt lat="55.836983" lon="26.047335">
<ele>150.341919</ele>
<time>2010-07-17T15:46:22Z</time>
<desc>lat.=55.836983, lon.=26.047335, Alt.=150.341919m. Speed=0.396000m/h.</desc>
<speed>0.110000</speed>
</trkpt>
<trkpt lat="55.836983" lon="26.047333">
<ele>150.263794</ele>
<time>2010-07-17T15:46:23Z</time>
<desc>lat.=55.836983, lon.=26.047333, Alt.=150.263794m. Speed=0.540000m/h.</desc>
<speed>0.150000</speed>
</trkpt>
<trkpt lat="55.836983" lon="26.047331">
<ele>150.181763</ele>
<time>2010-07-17T15:46:24Z</time>
<desc>lat.=55.836983, lon.=26.047331, Alt.=150.181763m. Speed=0.504000m/h.</desc>
<speed>0.140000</speed>
</trkpt>
<trkpt lat="55.836983" lon="26.047329">
<ele>150.099731</ele>
<time>2010-07-17T15:46:25Z</time>
<desc>lat.=55.836983, lon.=26.047329, Alt.=150.099731m. Speed=0.396000m/h.</desc>
<speed>0.110000</speed>
</trkpt>
<trkpt lat="55.836979" lon="26.047327">
<ele>150.021606</ele>
<time>2010-07-17T15:46:26Z</time>
<desc>lat.=55.836979, lon.=26.047327, Alt.=150.021606m. Speed=0.360000m/h.</desc>
<speed>0.100000</speed>
</trkpt>
<trkpt lat="55.836983" lon="26.047325">
<ele>149.947388</ele>
<time>2010-07-17T15:46:27Z</time>
<desc>lat.=55.836983, lon.=26.047325, Alt.=149.947388m. Speed=0.360000m/h.</desc>
<speed>0.100000</speed>
</trkpt>
<trkpt lat="55.836983" lon="26.047323">
<ele>149.873169</ele>
<time>2010-07-17T15:46:28Z</time>
<desc>lat.=55.836983, lon.=26.047323, Alt.=149.873169m. Speed=0.396000m/h.</desc>
<speed>0.110000</speed>
</trkpt>
<trkpt lat="55.836983" lon="26.047321">
<ele>149.798950</ele>
<time>2010-07-17T15:46:29Z</time>
<desc>lat.=55.836983, lon.=26.047321, Alt.=149.798950m. Speed=0.360000m/h.</desc>
<speed>0.100000</speed>
</trkpt>
<trkpt lat="55.836983" lon="26.047321">
<ele>149.728638</ele>
<time>2010-07-17T15:46:30Z</time>
<desc>lat.=55.836983, lon.=26.047321, Alt.=149.728638m. Speed=0.360000m/h.</desc>
<speed>0.100000</speed>
</trkpt>
<trkpt lat="55.836983" lon="26.047319">
<ele>149.658325</ele>
<time>2010-07-17T15:46:31Z</time>
<desc>lat.=55.836983, lon.=26.047319, Alt.=149.658325m. Speed=0.324000m/h.</desc>
<speed>0.090000</speed>
</trkpt>
<trkpt lat="55.836983" lon="26.047318">
<ele>149.584106</ele>
<time>2010-07-17T15:46:32Z</time>
<desc>lat.=55.836983, lon.=26.047318, Alt.=149.584106m. Speed=0.396000m/h.</desc>
<speed>0.110000</speed>
</trkpt>
<trkpt lat="55.836983" lon="26.047316">
<ele>149.517700</ele>
<time>2010-07-17T15:46:33Z</time>
<desc>lat.=55.836983, lon.=26.047316, Alt.=149.517700m. Speed=0.360000m/h.</desc>
<speed>0.100000</speed>
</trkpt>
<trkpt lat="55.836983" lon="26.047314">
<ele>149.443481</ele>
<time>2010-07-17T15:46:34Z</time>
<desc>lat.=55.836983, lon.=26.047314, Alt.=149.443481m. Speed=0.324000m/h.</desc>
<speed>0.090000</speed>
</trkpt>
<trkpt lat="55.836983" lon="26.047314">
<ele>149.373169</ele>
<time>2010-07-17T15:46:35Z</time>
<desc>lat.=55.836983, lon.=26.047314, Alt.=149.373169m. Speed=0.288000m/h.</desc>
<speed>0.080000</speed>
</trkpt>
<trkpt lat="55.836983" lon="26.047312">
<ele>149.302856</ele>
<time>2010-07-17T15:46:36Z</time>
<desc>lat.=55.836983, lon.=26.047312, Alt.=149.302856m. Speed=0.468000m/h.</desc>
<speed>0.130000</speed>
</trkpt>
<trkpt lat="55.836983" lon="26.047310">
<ele>149.236450</ele>
<time>2010-07-17T15:46:37Z</time>
<desc>lat.=55.836983, lon.=26.047310, Alt.=149.236450m. Speed=0.504000m/h.</desc>
<speed>0.140000</speed>
</trkpt>
<trkpt lat="55.836983" lon="26.047308">
<ele>149.166138</ele>
<time>2010-07-17T15:46:38Z</time>
<desc>lat.=55.836983, lon.=26.047308, Alt.=149.166138m. Speed=0.504000m/h.</desc>
<speed>0.140000</speed>
</trkpt>
<trkpt lat="55.836983" lon="26.047304">
<ele>149.099731</ele>
<time>2010-07-17T15:46:39Z</time>
<desc>lat.=55.836983, lon.=26.047304, Alt.=149.099731m. Speed=0.504000m/h.</desc>
<speed>0.140000</speed>
</trkpt>
<trkpt lat="55.836983" lon="26.047302">
<ele>149.029419</ele>
<time>2010-07-17T15:46:40Z</time>
<desc>lat.=55.836983, lon.=26.047302, Alt.=149.029419m. Speed=0.432000m/h.</desc>
<speed>0.120000</speed>
</trkpt>
<trkpt lat="55.836983" lon="26.047300">
<ele>148.963013</ele>
<time>2010-07-17T15:46:41Z</time>
<desc>lat.=55.836983, lon.=26.047300, Alt.=148.963013m. Speed=0.360000m/h.</desc>
<speed>0.100000</speed>
</trkpt>
<trkpt lat="55.836983" lon="26.047298">
<ele>148.892700</ele>
<time>2010-07-17T15:46:42Z</time>
<desc>lat.=55.836983, lon.=26.047298, Alt.=148.892700m. Speed=0.324000m/h.</desc>
<speed>0.090000</speed>
</trkpt>
<trkpt lat="55.836983" lon="26.047298">
<ele>148.826294</ele>
<time>2010-07-17T15:46:43Z</time>
<desc>lat.=55.836983, lon.=26.047298, Alt.=148.826294m. Speed=0.288000m/h.</desc>
<speed>0.080000</speed>
</trkpt>
<trkpt lat="55.836983" lon="26.047297">
<ele>148.759888</ele>
<time>2010-07-17T15:46:44Z</time>
<desc>lat.=55.836983, lon.=26.047297, Alt.=148.759888m. Speed=0.396000m/h.</desc>
<speed>0.110000</speed>
</trkpt>
<trkpt lat="55.836983" lon="26.047295">
<ele>148.693481</ele>
<time>2010-07-17T15:46:45Z</time>
<desc>lat.=55.836983, lon.=26.047295, Alt.=148.693481m. Speed=0.540000m/h.</desc>
<speed>0.150000</speed>
</trkpt>
<trkpt lat="55.836983" lon="26.047293">
<ele>148.630981</ele>
<time>2010-07-17T15:46:46Z</time>
<desc>lat.=55.836983, lon.=26.047293, Alt.=148.630981m. Speed=0.576000m/h.</desc>
<speed>0.160000</speed>
</trkpt>
<trkpt lat="55.836983" lon="26.047289">
<ele>148.564575</ele>
<time>2010-07-17T15:46:47Z</time>
<desc>lat.=55.836983, lon.=26.047289, Alt.=148.564575m. Speed=0.540000m/h.</desc>
<speed>0.150000</speed>
</trkpt>
<trkpt lat="55.836983" lon="26.047287">
<ele>148.498169</ele>
<time>2010-07-17T15:46:48Z</time>
<desc>lat.=55.836983, lon.=26.047287, Alt.=148.498169m. Speed=0.468000m/h.</desc>
<speed>0.130000</speed>
</trkpt>
<trkpt lat="55.836983" lon="26.047285">
<ele>148.435669</ele>
<time>2010-07-17T15:46:49Z</time>
<desc>lat.=55.836983, lon.=26.047285, Alt.=148.435669m. Speed=0.468000m/h.</desc>
<speed>0.130000</speed>
</trkpt>
<trkpt lat="55.836983" lon="26.047283">
<ele>148.369263</ele>
<time>2010-07-17T15:46:50Z</time>
<desc>lat.=55.836983, lon.=26.047283, Alt.=148.369263m. Speed=0.468000m/h.</desc>
<speed>0.130000</speed>
</trkpt>
<trkpt lat="55.836983" lon="26.047281">
<ele>148.302856</ele>
<time>2010-07-17T15:46:51Z</time>
<desc>lat.=55.836983, lon.=26.047281, Alt.=148.302856m. Speed=0.324000m/h.</desc>
<speed>0.090000</speed>
</trkpt>
<trkpt lat="55.836983" lon="26.047279">
<ele>148.236450</ele>
<time>2010-07-17T15:46:52Z</time>
<desc>lat.=55.836983, lon.=26.047279, Alt.=148.236450m. Speed=0.288000m/h.</desc>
<speed>0.080000</speed>
</trkpt>
<trkpt lat="55.836983" lon="26.047277">
<ele>148.162231</ele>
<time>2010-07-17T15:46:53Z</time>
<desc>lat.=55.836983, lon.=26.047277, Alt.=148.162231m. Speed=0.360000m/h.</desc>
<speed>0.100000</speed>
</trkpt>
<trkpt lat="55.836983" lon="26.047276">
<ele>148.091919</ele>
<time>2010-07-17T15:46:54Z</time>
<desc>lat.=55.836983, lon.=26.047276, Alt.=148.091919m. Speed=0.432000m/h.</desc>
<speed>0.120000</speed>
</trkpt>
<trkpt lat="55.836983" lon="26.047274">
<ele>148.029419</ele>
<time>2010-07-17T15:46:55Z</time>
<desc>lat.=55.836983, lon.=26.047274, Alt.=148.029419m. Speed=0.396000m/h.</desc>
<speed>0.110000</speed>
</trkpt>
<trkpt lat="55.836983" lon="26.047274">
<ele>147.966919</ele>
<time>2010-07-17T15:46:56Z</time>
<desc>lat.=55.836983, lon.=26.047274, Alt.=147.966919m. Speed=0.396000m/h.</desc>
<speed>0.110000</speed>
</trkpt>
<trkpt lat="55.836983" lon="26.047272">
<ele>147.904419</ele>
<time>2010-07-17T15:46:57Z</time>
<desc>lat.=55.836983, lon.=26.047272, Alt.=147.904419m. Speed=0.252000m/h.</desc>
<speed>0.070000</speed>
</trkpt>
<trkpt lat="55.836983" lon="26.047270">
<ele>147.841919</ele>
<time>2010-07-17T15:46:58Z</time>
<desc>lat.=55.836983, lon.=26.047270, Alt.=147.841919m. Speed=0.252000m/h.</desc>
<speed>0.070000</speed>
</trkpt>
<trkpt lat="55.836983" lon="26.047268">
<ele>147.783325</ele>
<time>2010-07-17T15:46:59Z</time>
<desc>lat.=55.836983, lon.=26.047268, Alt.=147.783325m. Speed=0.324000m/h.</desc>
<speed>0.090000</speed>
</trkpt>
<trkpt lat="55.836987" lon="26.047268">
<ele>147.724731</ele>
<time>2010-07-17T15:47:00Z</time>
<desc>lat.=55.836987, lon.=26.047268, Alt.=147.724731m. Speed=0.288000m/h.</desc>
<speed>0.080000</speed>
</trkpt>
<trkpt lat="55.836987" lon="26.047266">
<ele>147.666138</ele>
<time>2010-07-17T15:47:01Z</time>
<desc>lat.=55.836987, lon.=26.047266, Alt.=147.666138m. Speed=0.360000m/h.</desc>
<speed>0.100000</speed>
</trkpt>
<trkpt lat="55.836987" lon="26.047266">
<ele>147.611450</ele>
<time>2010-07-17T15:47:02Z</time>
<desc>lat.=55.836987, lon.=26.047266, Alt.=147.611450m. Speed=0.324000m/h.</desc>
<speed>0.090000</speed>
</trkpt>
<trkpt lat="55.836987" lon="26.047264">
<ele>147.552856</ele>
<time>2010-07-17T15:47:03Z</time>
<desc>lat.=55.836987, lon.=26.047264, Alt.=147.552856m. Speed=0.360000m/h.</desc>
<speed>0.100000</speed>
</trkpt>
<trkpt lat="55.836987" lon="26.047264">
<ele>147.498169</ele>
<time>2010-07-17T15:47:04Z</time>
<desc>lat.=55.836987, lon.=26.047264, Alt.=147.498169m. Speed=0.360000m/h.</desc>
<speed>0.100000</speed>
</trkpt>
<trkpt lat="55.836990" lon="26.047262">
<ele>147.443481</ele>
<time>2010-07-17T15:47:05Z</time>
<desc>lat.=55.836990, lon.=26.047262, Alt.=147.443481m. Speed=0.432000m/h.</desc>
<speed>0.120000</speed>
</trkpt>
<trkpt lat="55.836990" lon="26.047262">
<ele>147.388794</ele>
<time>2010-07-17T15:47:06Z</time>
<desc>lat.=55.836990, lon.=26.047262, Alt.=147.388794m. Speed=0.468000m/h.</desc>
<speed>0.130000</speed>
</trkpt>
<trkpt lat="55.836990" lon="26.047262">
<ele>147.334106</ele>
<time>2010-07-17T15:47:07Z</time>
<desc>lat.=55.836990, lon.=26.047262, Alt.=147.334106m. Speed=0.576000m/h.</desc>
<speed>0.160000</speed>
</trkpt>
<trkpt lat="55.836994" lon="26.047260">
<ele>147.275513</ele>
<time>2010-07-17T15:47:08Z</time>
<desc>lat.=55.836994, lon.=26.047260, Alt.=147.275513m. Speed=0.720000m/h.</desc>
<speed>0.200000</speed>
</trkpt>
<trkpt lat="55.836994" lon="26.047260">
<ele>147.220825</ele>
<time>2010-07-17T15:47:09Z</time>
<desc>lat.=55.836994, lon.=26.047260, Alt.=147.220825m. Speed=0.720000m/h.</desc>
<speed>0.200000</speed>
</trkpt>
<trkpt lat="55.836998" lon="26.047258">
<ele>147.173950</ele>
<time>2010-07-17T15:47:10Z</time>
<desc>lat.=55.836998, lon.=26.047258, Alt.=147.173950m. Speed=0.792000m/h.</desc>
<speed>0.220000</speed>
</trkpt>
<trkpt lat="55.836998" lon="26.047256">
<ele>147.130981</ele>
<time>2010-07-17T15:47:11Z</time>
<desc>lat.=55.836998, lon.=26.047256, Alt.=147.130981m. Speed=0.576000m/h.</desc>
<speed>0.160000</speed>
</trkpt>
<trkpt lat="55.836998" lon="26.047255">
<ele>147.084106</ele>
<time>2010-07-17T15:47:12Z</time>
<desc>lat.=55.836998, lon.=26.047255, Alt.=147.084106m. Speed=0.576000m/h.</desc>
<speed>0.160000</speed>
</trkpt>
<trkpt lat="55.837002" lon="26.047253">
<ele>147.041138</ele>
<time>2010-07-17T15:47:13Z</time>
<desc>lat.=55.837002, lon.=26.047253, Alt.=147.041138m. Speed=0.684000m/h.</desc>
<speed>0.190000</speed>
</trkpt>
<trkpt lat="55.837002" lon="26.047253">
<ele>146.998169</ele>
<time>2010-07-17T15:47:14Z</time>
<desc>lat.=55.837002, lon.=26.047253, Alt.=146.998169m. Speed=0.684000m/h.</desc>
<speed>0.190000</speed>
</trkpt>
<trkpt lat="55.837006" lon="26.047251">
<ele>146.955200</ele>
<time>2010-07-17T15:47:15Z</time>
<desc>lat.=55.837006, lon.=26.047251, Alt.=146.955200m. Speed=0.756000m/h.</desc>
<speed>0.210000</speed>
</trkpt>
<trkpt lat="55.837006" lon="26.047249">
<ele>146.908325</ele>
<time>2010-07-17T15:47:16Z</time>
<desc>lat.=55.837006, lon.=26.047249, Alt.=146.908325m. Speed=0.756000m/h.</desc>
<speed>0.210000</speed>
</trkpt>
<trkpt lat="55.837009" lon="26.047249">
<ele>146.865356</ele>
<time>2010-07-17T15:47:17Z</time>
<desc>lat.=55.837009, lon.=26.047249, Alt.=146.865356m. Speed=0.612000m/h.</desc>
<speed>0.170000</speed>
</trkpt>
<trkpt lat="55.837009" lon="26.047247">
<ele>146.830200</ele>
<time>2010-07-17T15:47:18Z</time>
<desc>lat.=55.837009, lon.=26.047247, Alt.=146.830200m. Speed=0.396000m/h.</desc>
<speed>0.110000</speed>
</trkpt>
<trkpt lat="55.837009" lon="26.047245">
<ele>146.798950</ele>
<time>2010-07-17T15:47:19Z</time>
<desc>lat.=55.837009, lon.=26.047245, Alt.=146.798950m. Speed=0.324000m/h.</desc>
<speed>0.090000</speed>
</trkpt>
<trkpt lat="55.837009" lon="26.047245">
<ele>146.771606</ele>
<time>2010-07-17T15:47:20Z</time>
<desc>lat.=55.837009, lon.=26.047245, Alt.=146.771606m. Speed=0.324000m/h.</desc>
<speed>0.090000</speed>
</trkpt>
<trkpt lat="55.837009" lon="26.047243">
<ele>146.744263</ele>
<time>2010-07-17T15:47:21Z</time>
<desc>lat.=55.837009, lon.=26.047243, Alt.=146.744263m. Speed=0.468000m/h.</desc>
<speed>0.130000</speed>
</trkpt>
<trkpt lat="55.837009" lon="26.047241">
<ele>146.724731</ele>
<time>2010-07-17T15:47:22Z</time>
<desc>lat.=55.837009, lon.=26.047241, Alt.=146.724731m. Speed=0.468000m/h.</desc>
<speed>0.130000</speed>
</trkpt>
<trkpt lat="55.837013" lon="26.047241">
<ele>146.709106</ele>
<time>2010-07-17T15:47:23Z</time>
<desc>lat.=55.837013, lon.=26.047241, Alt.=146.709106m. Speed=0.396000m/h.</desc>
<speed>0.110000</speed>
</trkpt>
<trkpt lat="55.837013" lon="26.047239">
<ele>146.693481</ele>
<time>2010-07-17T15:47:24Z</time>
<desc>lat.=55.837013, lon.=26.047239, Alt.=146.693481m. Speed=0.504000m/h.</desc>
<speed>0.140000</speed>
</trkpt>
<trkpt lat="55.837013" lon="26.047239">
<ele>146.677856</ele>
<time>2010-07-17T15:47:25Z</time>
<desc>lat.=55.837013, lon.=26.047239, Alt.=146.677856m. Speed=0.504000m/h.</desc>
<speed>0.140000</speed>
</trkpt>
<trkpt lat="55.837017" lon="26.047239">
<ele>146.673950</ele>
<time>2010-07-17T15:47:26Z</time>
<desc>lat.=55.837017, lon.=26.047239, Alt.=146.673950m. Speed=0.396000m/h.</desc>
<speed>0.110000</speed>
</trkpt>
<trkpt lat="55.837017" lon="26.047239">
<ele>146.670044</ele>
<time>2010-07-17T15:47:27Z</time>
<desc>lat.=55.837017, lon.=26.047239, Alt.=146.670044m. Speed=0.288000m/h.</desc>
<speed>0.080000</speed>
</trkpt>
<trkpt lat="55.837017" lon="26.047239">
<ele>146.673950</ele>
<time>2010-07-17T15:47:28Z</time>
<desc>lat.=55.837017, lon.=26.047239, Alt.=146.673950m. Speed=0.252000m/h.</desc>
<speed>0.070000</speed>
</trkpt>
<trkpt lat="55.837017" lon="26.047239">
<ele>146.677856</ele>
<time>2010-07-17T15:47:29Z</time>
<desc>lat.=55.837017, lon.=26.047239, Alt.=146.677856m. Speed=0.324000m/h.</desc>
<speed>0.090000</speed>
</trkpt>
<trkpt lat="55.837017" lon="26.047237">
<ele>146.685669</ele>
<time>2010-07-17T15:47:30Z</time>
<desc>lat.=55.837017, lon.=26.047237, Alt.=146.685669m. Speed=0.360000m/h.</desc>
<speed>0.100000</speed>
</trkpt>
<trkpt lat="55.837017" lon="26.047235">
<ele>146.693481</ele>
<time>2010-07-17T15:47:31Z</time>
<desc>lat.=55.837017, lon.=26.047235, Alt.=146.693481m. Speed=0.216000m/h.</desc>
<speed>0.060000</speed>
</trkpt>
<trkpt lat="55.837017" lon="26.047235">
<ele>146.705200</ele>
<time>2010-07-17T15:47:32Z</time>
<desc>lat.=55.837017, lon.=26.047235, Alt.=146.705200m. Speed=0.036000m/h.</desc>
<speed>0.010000</speed>
</trkpt>
<trkpt lat="55.837017" lon="26.047235">
<ele>146.716919</ele>
<time>2010-07-17T15:47:33Z</time>
<desc>lat.=55.837017, lon.=26.047235, Alt.=146.716919m. Speed=0.180000m/h.</desc>
<speed>0.050000</speed>
</trkpt>
<trkpt lat="55.837017" lon="26.047235">
<ele>146.732544</ele>
<time>2010-07-17T15:47:34Z</time>
<desc>lat.=55.837017, lon.=26.047235, Alt.=146.732544m. Speed=0.144000m/h.</desc>
<speed>0.040000</speed>
</trkpt>
<trkpt lat="55.837017" lon="26.047235">
<ele>146.752075</ele>
<time>2010-07-17T15:47:35Z</time>
<desc>lat.=55.837017, lon.=26.047235, Alt.=146.752075m. Speed=0.108000m/h.</desc>
<speed>0.030000</speed>
</trkpt>
<trkpt lat="55.837017" lon="26.047235">
<ele>146.767700</ele>
<time>2010-07-17T15:47:36Z</time>
<desc>lat.=55.837017, lon.=26.047235, Alt.=146.767700m. Speed=0.360000m/h.</desc>
<speed>0.100000</speed>
</trkpt>
<trkpt lat="55.837021" lon="26.047235">
<ele>146.787231</ele>
<time>2010-07-17T15:47:37Z</time>
<desc>lat.=55.837021, lon.=26.047235, Alt.=146.787231m. Speed=0.504000m/h.</desc>
<speed>0.140000</speed>
</trkpt>
<trkpt lat="55.837021" lon="26.047235">
<ele>146.810669</ele>
<time>2010-07-17T15:47:38Z</time>
<desc>lat.=55.837021, lon.=26.047235, Alt.=146.810669m. Speed=0.720000m/h.</desc>
<speed>0.200000</speed>
</trkpt>
<trkpt lat="55.837025" lon="26.047235">
<ele>146.834106</ele>
<time>2010-07-17T15:47:39Z</time>
<desc>lat.=55.837025, lon.=26.047235, Alt.=146.834106m. Speed=0.792000m/h.</desc>
<speed>0.220000</speed>
</trkpt>
<trkpt lat="55.837025" lon="26.047235">
<ele>146.853638</ele>
<time>2010-07-17T15:47:40Z</time>
<desc>lat.=55.837025, lon.=26.047235, Alt.=146.853638m. Speed=0.756000m/h.</desc>
<speed>0.210000</speed>
</trkpt>
<trkpt lat="55.837029" lon="26.047237">
<ele>146.877075</ele>
<time>2010-07-17T15:47:41Z</time>
<desc>lat.=55.837029, lon.=26.047237, Alt.=146.877075m. Speed=0.684000m/h.</desc>
<speed>0.190000</speed>
</trkpt>
<trkpt lat="55.837029" lon="26.047237">
<ele>146.896606</ele>
<time>2010-07-17T15:47:42Z</time>
<desc>lat.=55.837029, lon.=26.047237, Alt.=146.896606m. Speed=0.720000m/h.</desc>
<speed>0.200000</speed>
</trkpt>
<trkpt lat="55.837032" lon="26.047239">
<ele>146.920044</ele>
<time>2010-07-17T15:47:43Z</time>
<desc>lat.=55.837032, lon.=26.047239, Alt.=146.920044m. Speed=0.648000m/h.</desc>
<speed>0.180000</speed>
</trkpt>
<trkpt lat="55.837032" lon="26.047239">
<ele>146.943481</ele>
<time>2010-07-17T15:47:44Z</time>
<desc>lat.=55.837032, lon.=26.047239, Alt.=146.943481m. Speed=0.720000m/h.</desc>
<speed>0.200000</speed>
</trkpt>
<trkpt lat="55.837032" lon="26.047241">
<ele>146.974731</ele>
<time>2010-07-17T15:47:45Z</time>
<desc>lat.=55.837032, lon.=26.047241, Alt.=146.974731m. Speed=0.684000m/h.</desc>
<speed>0.190000</speed>
</trkpt>
<trkpt lat="55.837036" lon="26.047241">
<ele>147.005981</ele>
<time>2010-07-17T15:47:46Z</time>
<desc>lat.=55.837036, lon.=26.047241, Alt.=147.005981m. Speed=0.648000m/h.</desc>
<speed>0.180000</speed>
</trkpt>
<trkpt lat="55.837036" lon="26.047243">
<ele>147.037231</ele>
<time>2010-07-17T15:47:47Z</time>
<desc>lat.=55.837036, lon.=26.047243, Alt.=147.037231m. Speed=0.756000m/h.</desc>
<speed>0.210000</speed>
</trkpt>
<trkpt lat="55.837040" lon="26.047245">
<ele>147.072388</ele>
<time>2010-07-17T15:47:48Z</time>
<desc>lat.=55.837040, lon.=26.047245, Alt.=147.072388m. Speed=0.396000m/h.</desc>
<speed>0.110000</speed>
</trkpt>
<trkpt lat="55.837040" lon="26.047247">
<ele>147.107544</ele>
<time>2010-07-17T15:47:49Z</time>
<desc>lat.=55.837040, lon.=26.047247, Alt.=147.107544m. Speed=0.216000m/h.</desc>
<speed>0.060000</speed>
</trkpt>
<trkpt lat="55.837040" lon="26.047247">
<ele>147.142700</ele>
<time>2010-07-17T15:47:50Z</time>
<desc>lat.=55.837040, lon.=26.047247, Alt.=147.142700m. Speed=0.180000m/h.</desc>
<speed>0.050000</speed>
</trkpt>
<trkpt lat="55.837040" lon="26.047249">
<ele>147.181763</ele>
<time>2010-07-17T15:47:51Z</time>
<desc>lat.=55.837040, lon.=26.047249, Alt.=147.181763m. Speed=0.216000m/h.</desc>
<speed>0.060000</speed>
</trkpt>
<trkpt lat="55.837040" lon="26.047249">
<ele>147.216919</ele>
<time>2010-07-17T15:47:52Z</time>
<desc>lat.=55.837040, lon.=26.047249, Alt.=147.216919m. Speed=0.216000m/h.</desc>
<speed>0.060000</speed>
</trkpt>
<trkpt lat="55.837040" lon="26.047251">
<ele>147.252075</ele>
<time>2010-07-17T15:47:53Z</time>
<desc>lat.=55.837040, lon.=26.047251, Alt.=147.252075m. Speed=0.252000m/h.</desc>
<speed>0.070000</speed>
</trkpt>
<trkpt lat="55.837040" lon="26.047251">
<ele>147.287231</ele>
<time>2010-07-17T15:47:54Z</time>
<desc>lat.=55.837040, lon.=26.047251, Alt.=147.287231m. Speed=0.252000m/h.</desc>
<speed>0.070000</speed>
</trkpt>
<trkpt lat="55.837040" lon="26.047253">
<ele>147.314575</ele>
<time>2010-07-17T15:47:55Z</time>
<desc>lat.=55.837040, lon.=26.047253, Alt.=147.314575m. Speed=0.288000m/h.</desc>
<speed>0.080000</speed>
</trkpt>
<trkpt lat="55.837040" lon="26.047255">
<ele>147.345825</ele>
<time>2010-07-17T15:47:56Z</time>
<desc>lat.=55.837040, lon.=26.047255, Alt.=147.345825m. Speed=0.216000m/h.</desc>
<speed>0.060000</speed>
</trkpt>
<trkpt lat="55.837040" lon="26.047255">
<ele>147.369263</ele>
<time>2010-07-17T15:47:57Z</time>
<desc>lat.=55.837040, lon.=26.047255, Alt.=147.369263m. Speed=0.180000m/h.</desc>
<speed>0.050000</speed>
</trkpt>
<trkpt lat="55.837040" lon="26.047255">
<ele>147.392700</ele>
<time>2010-07-17T15:47:58Z</time>
<desc>lat.=55.837040, lon.=26.047255, Alt.=147.392700m. Speed=0.216000m/h.</desc>
<speed>0.060000</speed>
</trkpt>
<trkpt lat="55.837040" lon="26.047256">
<ele>147.412231</ele>
<time>2010-07-17T15:47:59Z</time>
<desc>lat.=55.837040, lon.=26.047256, Alt.=147.412231m. Speed=0.108000m/h.</desc>
<speed>0.030000</speed>
</trkpt>
<trkpt lat="55.837040" lon="26.047256">
<ele>147.431763</ele>
<time>2010-07-17T15:48:00Z</time>
<desc>lat.=55.837040, lon.=26.047256, Alt.=147.431763m. Speed=0.108000m/h.</desc>
<speed>0.030000</speed>
</trkpt>
<trkpt lat="55.837040" lon="26.047258">
<ele>147.455200</ele>
<time>2010-07-17T15:48:01Z</time>
<desc>lat.=55.837040, lon.=26.047258, Alt.=147.455200m. Speed=0.108000m/h.</desc>
<speed>0.030000</speed>
</trkpt>
<trkpt lat="55.837040" lon="26.047258">
<ele>147.474731</ele>
<time>2010-07-17T15:48:02Z</time>
<desc>lat.=55.837040, lon.=26.047258, Alt.=147.474731m. Speed=0.180000m/h.</desc>
<speed>0.050000</speed>
</trkpt>
<trkpt lat="55.837040" lon="26.047258">
<ele>147.494263</ele>
<time>2010-07-17T15:48:03Z</time>
<desc>lat.=55.837040, lon.=26.047258, Alt.=147.494263m. Speed=0.180000m/h.</desc>
<speed>0.050000</speed>
</trkpt>
<trkpt lat="55.837040" lon="26.047260">
<ele>147.509888</ele>
<time>2010-07-17T15:48:04Z</time>
<desc>lat.=55.837040, lon.=26.047260, Alt.=147.509888m. Speed=0.180000m/h.</desc>
<speed>0.050000</speed>
</trkpt>
<trkpt lat="55.837040" lon="26.047260">
<ele>147.525513</ele>
<time>2010-07-17T15:48:05Z</time>
<desc>lat.=55.837040, lon.=26.047260, Alt.=147.525513m. Speed=0.072000m/h.</desc>
<speed>0.020000</speed>
</trkpt>
<trkpt lat="55.837040" lon="26.047260">
<ele>147.537231</ele>
<time>2010-07-17T15:48:06Z</time>
<desc>lat.=55.837040, lon.=26.047260, Alt.=147.537231m. Speed=0.180000m/h.</desc>
<speed>0.050000</speed>
</trkpt>
<trkpt lat="55.837040" lon="26.047262">
<ele>147.545044</ele>
<time>2010-07-17T15:48:07Z</time>
<desc>lat.=55.837040, lon.=26.047262, Alt.=147.545044m. Speed=0.144000m/h.</desc>
<speed>0.040000</speed>
</trkpt>
<trkpt lat="55.837040" lon="26.047262">
<ele>147.545044</ele>
<time>2010-07-17T15:48:08Z</time>
<desc>lat.=55.837040, lon.=26.047262, Alt.=147.545044m. Speed=0.036000m/h.</desc>
<speed>0.010000</speed>
</trkpt>
<trkpt lat="55.837040" lon="26.047262">
<ele>147.545044</ele>
<time>2010-07-17T15:48:09Z</time>
<desc>lat.=55.837040, lon.=26.047262, Alt.=147.545044m. Speed=0.036000m/h.</desc>
<speed>0.010000</speed>
</trkpt>
<trkpt lat="55.837040" lon="26.047262">
<ele>147.548950</ele>
<time>2010-07-17T15:48:10Z</time>
<desc>lat.=55.837040, lon.=26.047262, Alt.=147.548950m. Speed=0.036000m/h.</desc>
<speed>0.010000</speed>
</trkpt>
<trkpt lat="55.837040" lon="26.047262">
<ele>147.552856</ele>
<time>2010-07-17T15:48:11Z</time>
<desc>lat.=55.837040, lon.=26.047262, Alt.=147.552856m. Speed=0.000000m/h.</desc>
<speed>0.000000</speed>
</trkpt>
<trkpt lat="55.837040" lon="26.047262">
<ele>147.556763</ele>
<time>2010-07-17T15:48:12Z</time>
<desc>lat.=55.837040, lon.=26.047262, Alt.=147.556763m. Speed=0.000000m/h.</desc>
<speed>0.000000</speed>
</trkpt>
<trkpt lat="55.837040" lon="26.047262">
<ele>147.556763</ele>
<time>2010-07-17T15:48:13Z</time>
<desc>lat.=55.837040, lon.=26.047262, Alt.=147.556763m. Speed=0.036000m/h.</desc>
<speed>0.010000</speed>
</trkpt>
<trkpt lat="55.837040" lon="26.047262">
<ele>147.556763</ele>
<time>2010-07-17T15:48:14Z</time>
<desc>lat.=55.837040, lon.=26.047262, Alt.=147.556763m. Speed=0.000000m/h.</desc>
<speed>0.000000</speed>
</trkpt>
<trkpt lat="55.837040" lon="26.047262">
<ele>147.560669</ele>
<time>2010-07-17T15:48:15Z</time>
<desc>lat.=55.837040, lon.=26.047262, Alt.=147.560669m. Speed=0.000000m/h.</desc>
<speed>0.000000</speed>
</trkpt>
<trkpt lat="55.837040" lon="26.047262">
<ele>147.564575</ele>
<time>2010-07-17T15:48:16Z</time>
<desc>lat.=55.837040, lon.=26.047262, Alt.=147.564575m. Speed=0.036000m/h.</desc>
<speed>0.010000</speed>
</trkpt>
<trkpt lat="55.837040" lon="26.047262">
<ele>147.564575</ele>
<time>2010-07-17T15:48:17Z</time>
<desc>lat.=55.837040, lon.=26.047262, Alt.=147.564575m. Speed=0.000000m/h.</desc>
<speed>0.000000</speed>
</trkpt>
<trkpt lat="55.837040" lon="26.047262">
<ele>147.564575</ele>
<time>2010-07-17T15:48:18Z</time>
<desc>lat.=55.837040, lon.=26.047262, Alt.=147.564575m. Speed=0.000000m/h.</desc>
<speed>0.000000</speed>
</trkpt>
<trkpt lat="55.837040" lon="26.047262">
<ele>147.568481</ele>
<time>2010-07-17T15:48:19Z</time>
<desc>lat.=55.837040, lon.=26.047262, Alt.=147.568481m. Speed=0.036000m/h.</desc>
<speed>0.010000</speed>
</trkpt>
<trkpt lat="55.837040" lon="26.047262">
<ele>147.568481</ele>
<time>2010-07-17T15:48:20Z</time>
<desc>lat.=55.837040, lon.=26.047262, Alt.=147.568481m. Speed=0.036000m/h.</desc>
<speed>0.010000</speed>
</trkpt>
<trkpt lat="55.837040" lon="26.047262">
<ele>147.572388</ele>
<time>2010-07-17T15:48:21Z</time>
<desc>lat.=55.837040, lon.=26.047262, Alt.=147.572388m. Speed=0.000000m/h.</desc>
<speed>0.000000</speed>
</trkpt>
<trkpt lat="55.837040" lon="26.047262">
<ele>147.576294</ele>
<time>2010-07-17T15:48:22Z</time>
<desc>lat.=55.837040, lon.=26.047262, Alt.=147.576294m. Speed=0.072000m/h.</desc>
<speed>0.020000</speed>
</trkpt>
<trkpt lat="55.837040" lon="26.047262">
<ele>147.576294</ele>
<time>2010-07-17T15:48:23Z</time>
<desc>lat.=55.837040, lon.=26.047262, Alt.=147.576294m. Speed=0.000000m/h.</desc>
<speed>0.000000</speed>
</trkpt>
<trkpt lat="55.837040" lon="26.047262">
<ele>147.572388</ele>
<time>2010-07-17T15:48:24Z</time>
<desc>lat.=55.837040, lon.=26.047262, Alt.=147.572388m. Speed=0.000000m/h.</desc>
<speed>0.000000</speed>
</trkpt>
<trkpt lat="55.837040" lon="26.047262">
<ele>147.572388</ele>
<time>2010-07-17T15:48:25Z</time>
<desc>lat.=55.837040, lon.=26.047262, Alt.=147.572388m. Speed=0.072000m/h.</desc>
<speed>0.020000</speed>
</trkpt>
<trkpt lat="55.837040" lon="26.047262">
<ele>147.572388</ele>
<time>2010-07-17T15:48:26Z</time>
<desc>lat.=55.837040, lon.=26.047262, Alt.=147.572388m. Speed=0.072000m/h.</desc>
<speed>0.020000</speed>
</trkpt>
<trkpt lat="55.837040" lon="26.047262">
<ele>147.568481</ele>
<time>2010-07-17T15:48:27Z</time>
<desc>lat.=55.837040, lon.=26.047262, Alt.=147.568481m. Speed=0.000000m/h.</desc>
<speed>0.000000</speed>
</trkpt>
<trkpt lat="55.837040" lon="26.047262">
<ele>147.572388</ele>
<time>2010-07-17T15:48:28Z</time>
<desc>lat.=55.837040, lon.=26.047262, Alt.=147.572388m. Speed=0.000000m/h.</desc>
<speed>0.000000</speed>
</trkpt>
<trkpt lat="55.837040" lon="26.047262">
<ele>147.576294</ele>
<time>2010-07-17T15:48:29Z</time>
<desc>lat.=55.837040, lon.=26.047262, Alt.=147.576294m. Speed=0.000000m/h.</desc>
<speed>0.000000</speed>
</trkpt>
<trkpt lat="55.837040" lon="26.047262">
<ele>147.572388</ele>
<time>2010-07-17T15:48:30Z</time>
<desc>lat.=55.837040, lon.=26.047262, Alt.=147.572388m. Speed=0.000000m/h.</desc>
<speed>0.000000</speed>
</trkpt>
<trkpt lat="55.837040" lon="26.047262">
<ele>147.568481</ele>
<time>2010-07-17T15:48:31Z</time>
<desc>lat.=55.837040, lon.=26.047262, Alt.=147.568481m. Speed=0.072000m/h.</desc>
<speed>0.020000</speed>
</trkpt>
<trkpt lat="55.837040" lon="26.047262">
<ele>147.564575</ele>
<time>2010-07-17T15:48:32Z</time>
<desc>lat.=55.837040, lon.=26.047262, Alt.=147.564575m. Speed=0.072000m/h.</desc>
<speed>0.020000</speed>
</trkpt>
<trkpt lat="55.837040" lon="26.047262">
<ele>147.560669</ele>
<time>2010-07-17T15:48:33Z</time>
<desc>lat.=55.837040, lon.=26.047262, Alt.=147.560669m. Speed=0.072000m/h.</desc>
<speed>0.020000</speed>
</trkpt>
<trkpt lat="55.837040" lon="26.047262">
<ele>147.564575</ele>
<time>2010-07-17T15:48:34Z</time>
<desc>lat.=55.837040, lon.=26.047262, Alt.=147.564575m. Speed=0.036000m/h.</desc>
<speed>0.010000</speed>
</trkpt>
<trkpt lat="55.837040" lon="26.047262">
<ele>147.560669</ele>
<time>2010-07-17T15:48:35Z</time>
<desc>lat.=55.837040, lon.=26.047262, Alt.=147.560669m. Speed=0.036000m/h.</desc>
<speed>0.010000</speed>
</trkpt>
<trkpt lat="55.837040" lon="26.047262">
<ele>147.556763</ele>
<time>2010-07-17T15:48:36Z</time>
<desc>lat.=55.837040, lon.=26.047262, Alt.=147.556763m. Speed=0.000000m/h.</desc>
<speed>0.000000</speed>
</trkpt>
<trkpt lat="55.837040" lon="26.047260">
<ele>147.552856</ele>
<time>2010-07-17T15:48:37Z</time>
<desc>lat.=55.837040, lon.=26.047260, Alt.=147.552856m. Speed=0.000000m/h.</desc>
<speed>0.000000</speed>
</trkpt>
<trkpt lat="55.837040" lon="26.047260">
<ele>147.552856</ele>
<time>2010-07-17T15:48:38Z</time>
<desc>lat.=55.837040, lon.=26.047260, Alt.=147.552856m. Speed=0.072000m/h.</desc>
<speed>0.020000</speed>
</trkpt>
<trkpt lat="55.837040" lon="26.047260">
<ele>147.556763</ele>
<time>2010-07-17T15:48:39Z</time>
<desc>lat.=55.837040, lon.=26.047260, Alt.=147.556763m. Speed=0.000000m/h.</desc>
<speed>0.000000</speed>
</trkpt>
<trkpt lat="55.837040" lon="26.047260">
<ele>147.556763</ele>
<time>2010-07-17T15:48:40Z</time>
<desc>lat.=55.837040, lon.=26.047260, Alt.=147.556763m. Speed=0.000000m/h.</desc>
<speed>0.000000</speed>
</trkpt>
<trkpt lat="55.837040" lon="26.047260">
<ele>147.556763</ele>
<time>2010-07-17T15:48:41Z</time>
<desc>lat.=55.837040, lon.=26.047260, Alt.=147.556763m. Speed=0.000000m/h.</desc>
<speed>0.000000</speed>
</trkpt>
<trkpt lat="55.837040" lon="26.047260">
<ele>147.556763</ele>
<time>2010-07-17T15:48:42Z</time>
<desc>lat.=55.837040, lon.=26.047260, Alt.=147.556763m. Speed=0.000000m/h.</desc>
<speed>0.000000</speed>
</trkpt>
<trkpt lat="55.837040" lon="26.047260">
<ele>147.556763</ele>
<time>2010-07-17T15:48:43Z</time>
<desc>lat.=55.837040, lon.=26.047260, Alt.=147.556763m. Speed=0.000000m/h.</desc>
<speed>0.000000</speed>
</trkpt>
<trkpt lat="55.837040" lon="26.047260">
<ele>147.560669</ele>
<time>2010-07-17T15:48:44Z</time>
<desc>lat.=55.837040, lon.=26.047260, Alt.=147.560669m. Speed=0.036000m/h.</desc>
<speed>0.010000</speed>
</trkpt>
<trkpt lat="55.837040" lon="26.047260">
<ele>147.560669</ele>
<time>2010-07-17T15:48:45Z</time>
<desc>lat.=55.837040, lon.=26.047260, Alt.=147.560669m. Speed=0.072000m/h.</desc>
<speed>0.020000</speed>
</trkpt>
<trkpt lat="55.837040" lon="26.047260">
<ele>147.556763</ele>
<time>2010-07-17T15:48:46Z</time>
<desc>lat.=55.837040, lon.=26.047260, Alt.=147.556763m. Speed=0.072000m/h.</desc>
<speed>0.020000</speed>
</trkpt>
<trkpt lat="55.837040" lon="26.047260">
<ele>147.556763</ele>
<time>2010-07-17T15:48:47Z</time>
<desc>lat.=55.837040, lon.=26.047260, Alt.=147.556763m. Speed=0.000000m/h.</desc>
<speed>0.000000</speed>
</trkpt>
<trkpt lat="55.837040" lon="26.047262">
<ele>147.556763</ele>
<time>2010-07-17T15:48:48Z</time>
<desc>lat.=55.837040, lon.=26.047262, Alt.=147.556763m. Speed=0.036000m/h.</desc>
<speed>0.010000</speed>
</trkpt>
<trkpt lat="55.837040" lon="26.047262">
<ele>147.560669</ele>
<time>2010-07-17T15:48:49Z</time>
<desc>lat.=55.837040, lon.=26.047262, Alt.=147.560669m. Speed=0.036000m/h.</desc>
<speed>0.010000</speed>
</trkpt>
<trkpt lat="55.837040" lon="26.047262">
<ele>147.560669</ele>
<time>2010-07-17T15:48:50Z</time>
<desc>lat.=55.837040, lon.=26.047262, Alt.=147.560669m. Speed=0.036000m/h.</desc>
<speed>0.010000</speed>
</trkpt>
<trkpt lat="55.837040" lon="26.047262">
<ele>147.560669</ele>
<time>2010-07-17T15:48:51Z</time>
<desc>lat.=55.837040, lon.=26.047262, Alt.=147.560669m. Speed=0.072000m/h.</desc>
<speed>0.020000</speed>
</trkpt>
<trkpt lat="55.837040" lon="26.047262">
<ele>147.560669</ele>
<time>2010-07-17T15:48:52Z</time>
<desc>lat.=55.837040, lon.=26.047262, Alt.=147.560669m. Speed=0.000000m/h.</desc>
<speed>0.000000</speed>
</trkpt>
<trkpt lat="55.837040" lon="26.047262">
<ele>147.560669</ele>
<time>2010-07-17T15:48:53Z</time>
<desc>lat.=55.837040, lon.=26.047262, Alt.=147.560669m. Speed=0.000000m/h.</desc>
<speed>0.000000</speed>
</trkpt>
<trkpt lat="55.837040" lon="26.047262">
<ele>147.560669</ele>
<time>2010-07-17T15:48:54Z</time>
<desc>lat.=55.837040, lon.=26.047262, Alt.=147.560669m. Speed=0.036000m/h.</desc>
<speed>0.010000</speed>
</trkpt>
<trkpt lat="55.837040" lon="26.047262">
<ele>147.564575</ele>
<time>2010-07-17T15:48:55Z</time>
<desc>lat.=55.837040, lon.=26.047262, Alt.=147.564575m. Speed=0.036000m/h.</desc>
<speed>0.010000</speed>
</trkpt>
<trkpt lat="55.837040" lon="26.047262">
<ele>147.564575</ele>
<time>2010-07-17T15:48:56Z</time>
<desc>lat.=55.837040, lon.=26.047262, Alt.=147.564575m. Speed=0.036000m/h.</desc>
<speed>0.010000</speed>
</trkpt>
<trkpt lat="55.837040" lon="26.047262">
<ele>147.568481</ele>
<time>2010-07-17T15:48:57Z</time>
<desc>lat.=55.837040, lon.=26.047262, Alt.=147.568481m. Speed=0.108000m/h.</desc>
<speed>0.030000</speed>
</trkpt>
<trkpt lat="55.837040" lon="26.047262">
<ele>147.572388</ele>
<time>2010-07-17T15:48:58Z</time>
<desc>lat.=55.837040, lon.=26.047262, Alt.=147.572388m. Speed=0.036000m/h.</desc>
<speed>0.010000</speed>
</trkpt>
<trkpt lat="55.837040" lon="26.047262">
<ele>147.576294</ele>
<time>2010-07-17T15:48:59Z</time>
<desc>lat.=55.837040, lon.=26.047262, Alt.=147.576294m. Speed=0.000000m/h.</desc>
<speed>0.000000</speed>
</trkpt>
<trkpt lat="55.837040" lon="26.047262">
<ele>147.580200</ele>
<time>2010-07-17T15:49:00Z</time>
<desc>lat.=55.837040, lon.=26.047262, Alt.=147.580200m. Speed=0.072000m/h.</desc>
<speed>0.020000</speed>
</trkpt>
<trkpt lat="55.837040" lon="26.047262">
<ele>147.588013</ele>
<time>2010-07-17T15:49:01Z</time>
<desc>lat.=55.837040, lon.=26.047262, Alt.=147.588013m. Speed=0.000000m/h.</desc>
<speed>0.000000</speed>
</trkpt>
<trkpt lat="55.837040" lon="26.047262">
<ele>147.591919</ele>
<time>2010-07-17T15:49:02Z</time>
<desc>lat.=55.837040, lon.=26.047262, Alt.=147.591919m. Speed=0.036000m/h.</desc>
<speed>0.010000</speed>
</trkpt>
<trkpt lat="55.837040" lon="26.047262">
<ele>147.595825</ele>
<time>2010-07-17T15:49:03Z</time>
<desc>lat.=55.837040, lon.=26.047262, Alt.=147.595825m. Speed=0.072000m/h.</desc>
<speed>0.020000</speed>
</trkpt>
<trkpt lat="55.837044" lon="26.047262">
<ele>147.595825</ele>
<time>2010-07-17T15:49:04Z</time>
<desc>lat.=55.837044, lon.=26.047262, Alt.=147.595825m. Speed=0.036000m/h.</desc>
<speed>0.010000</speed>
</trkpt>
<trkpt lat="55.837044" lon="26.047262">
<ele>147.595825</ele>
<time>2010-07-17T15:49:05Z</time>
<desc>lat.=55.837044, lon.=26.047262, Alt.=147.595825m. Speed=0.036000m/h.</desc>
<speed>0.010000</speed>
</trkpt>
<trkpt lat="55.837044" lon="26.047262">
<ele>147.599731</ele>
<time>2010-07-17T15:49:06Z</time>
<desc>lat.=55.837044, lon.=26.047262, Alt.=147.599731m. Speed=0.072000m/h.</desc>
<speed>0.020000</speed>
</trkpt>
<trkpt lat="55.837044" lon="26.047262">
<ele>147.599731</ele>
<time>2010-07-17T15:49:07Z</time>
<desc>lat.=55.837044, lon.=26.047262, Alt.=147.599731m. Speed=0.036000m/h.</desc>
<speed>0.010000</speed>
</trkpt>
<trkpt lat="55.837044" lon="26.047262">
<ele>147.599731</ele>
<time>2010-07-17T15:49:08Z</time>
<desc>lat.=55.837044, lon.=26.047262, Alt.=147.599731m. Speed=0.072000m/h.</desc>
<speed>0.020000</speed>
</trkpt>
<trkpt lat="55.837044" lon="26.047262">
<ele>147.603638</ele>
<time>2010-07-17T15:49:09Z</time>
<desc>lat.=55.837044, lon.=26.047262, Alt.=147.603638m. Speed=0.108000m/h.</desc>
<speed>0.030000</speed>
</trkpt>
<trkpt lat="55.837044" lon="26.047262">
<ele>147.603638</ele>
<time>2010-07-17T15:49:10Z</time>
<desc>lat.=55.837044, lon.=26.047262, Alt.=147.603638m. Speed=0.108000m/h.</desc>
<speed>0.030000</speed>
</trkpt>
<trkpt lat="55.837044" lon="26.047262">
<ele>147.603638</ele>
<time>2010-07-17T15:49:11Z</time>
<desc>lat.=55.837044, lon.=26.047262, Alt.=147.603638m. Speed=0.072000m/h.</desc>
<speed>0.020000</speed>
</trkpt>
<trkpt lat="55.837044" lon="26.047262">
<ele>147.603638</ele>
<time>2010-07-17T15:49:12Z</time>
<desc>lat.=55.837044, lon.=26.047262, Alt.=147.603638m. Speed=0.000000m/h.</desc>
<speed>0.000000</speed>
</trkpt>
<trkpt lat="55.837044" lon="26.047262">
<ele>147.607544</ele>
<time>2010-07-17T15:49:13Z</time>
<desc>lat.=55.837044, lon.=26.047262, Alt.=147.607544m. Speed=0.036000m/h.</desc>
<speed>0.010000</speed>
</trkpt>
<trkpt lat="55.837044" lon="26.047262">
<ele>147.607544</ele>
<time>2010-07-17T15:49:14Z</time>
<desc>lat.=55.837044, lon.=26.047262, Alt.=147.607544m. Speed=0.072000m/h.</desc>
<speed>0.020000</speed>
</trkpt>
<trkpt lat="55.837044" lon="26.047262">
<ele>147.607544</ele>
<time>2010-07-17T15:49:15Z</time>
<desc>lat.=55.837044, lon.=26.047262, Alt.=147.607544m. Speed=0.000000m/h.</desc>
<speed>0.000000</speed>
</trkpt>
<trkpt lat="55.837044" lon="26.047262">
<ele>147.607544</ele>
<time>2010-07-17T15:49:16Z</time>
<desc>lat.=55.837044, lon.=26.047262, Alt.=147.607544m. Speed=0.036000m/h.</desc>
<speed>0.010000</speed>
</trkpt>
<trkpt lat="55.837044" lon="26.047262">
<ele>147.607544</ele>
<time>2010-07-17T15:49:17Z</time>
<desc>lat.=55.837044, lon.=26.047262, Alt.=147.607544m. Speed=0.072000m/h.</desc>
<speed>0.020000</speed>
</trkpt>
<trkpt lat="55.837044" lon="26.047262">
<ele>147.607544</ele>
<time>2010-07-17T15:49:18Z</time>
<desc>lat.=55.837044, lon.=26.047262, Alt.=147.607544m. Speed=0.036000m/h.</desc>
<speed>0.010000</speed>
</trkpt>
<trkpt lat="55.837044" lon="26.047262">
<ele>147.607544</ele>
<time>2010-07-17T15:49:19Z</time>
<desc>lat.=55.837044, lon.=26.047262, Alt.=147.607544m. Speed=0.072000m/h.</desc>
<speed>0.020000</speed>
</trkpt>
<trkpt lat="55.837044" lon="26.047262">
<ele>147.607544</ele>
<time>2010-07-17T15:49:20Z</time>
<desc>lat.=55.837044, lon.=26.047262, Alt.=147.607544m. Speed=0.108000m/h.</desc>
<speed>0.030000</speed>
</trkpt>
<trkpt lat="55.837044" lon="26.047262">
<ele>147.607544</ele>
<time>2010-07-17T15:49:21Z</time>
<desc>lat.=55.837044, lon.=26.047262, Alt.=147.607544m. Speed=0.036000m/h.</desc>
<speed>0.010000</speed>
</trkpt>
<trkpt lat="55.837044" lon="26.047262">
<ele>147.611450</ele>
<time>2010-07-17T15:49:22Z</time>
<desc>lat.=55.837044, lon.=26.047262, Alt.=147.611450m. Speed=0.072000m/h.</desc>
<speed>0.020000</speed>
</trkpt>
<trkpt lat="55.837044" lon="26.047262">
<ele>147.615356</ele>
<time>2010-07-17T15:49:23Z</time>
<desc>lat.=55.837044, lon.=26.047262, Alt.=147.615356m. Speed=0.108000m/h.</desc>
<speed>0.030000</speed>
</trkpt>
<trkpt lat="55.837044" lon="26.047262">
<ele>147.615356</ele>
<time>2010-07-17T15:49:24Z</time>
<desc>lat.=55.837044, lon.=26.047262, Alt.=147.615356m. Speed=0.036000m/h.</desc>
<speed>0.010000</speed>
</trkpt>
<trkpt lat="55.837044" lon="26.047262">
<ele>147.615356</ele>
<time>2010-07-17T15:49:25Z</time>
<desc>lat.=55.837044, lon.=26.047262, Alt.=147.615356m. Speed=0.036000m/h.</desc>
<speed>0.010000</speed>
</trkpt>
<trkpt lat="55.837044" lon="26.047262">
<ele>147.619263</ele>
<time>2010-07-17T15:49:26Z</time>
<desc>lat.=55.837044, lon.=26.047262, Alt.=147.619263m. Speed=0.072000m/h.</desc>
<speed>0.020000</speed>
</trkpt>
<trkpt lat="55.837044" lon="26.047262">
<ele>147.619263</ele>
<time>2010-07-17T15:49:27Z</time>
<desc>lat.=55.837044, lon.=26.047262, Alt.=147.619263m. Speed=0.036000m/h.</desc>
<speed>0.010000</speed>
</trkpt>
<trkpt lat="55.837044" lon="26.047262">
<ele>147.623169</ele>
<time>2010-07-17T15:49:28Z</time>
<desc>lat.=55.837044, lon.=26.047262, Alt.=147.623169m. Speed=0.036000m/h.</desc>
<speed>0.010000</speed>
</trkpt>
<trkpt lat="55.837044" lon="26.047262">
<ele>147.627075</ele>
<time>2010-07-17T15:49:29Z</time>
<desc>lat.=55.837044, lon.=26.047262, Alt.=147.627075m. Speed=0.072000m/h.</desc>
<speed>0.020000</speed>
</trkpt>
<trkpt lat="55.837044" lon="26.047262">
<ele>147.627075</ele>
<time>2010-07-17T15:49:30Z</time>
<desc>lat.=55.837044, lon.=26.047262, Alt.=147.627075m. Speed=0.036000m/h.</desc>
<speed>0.010000</speed>
</trkpt>
<trkpt lat="55.837044" lon="26.047262">
<ele>147.627075</ele>
<time>2010-07-17T15:49:31Z</time>
<desc>lat.=55.837044, lon.=26.047262, Alt.=147.627075m. Speed=0.072000m/h.</desc>
<speed>0.020000</speed>
</trkpt>
<trkpt lat="55.837044" lon="26.047262">
<ele>147.627075</ele>
<time>2010-07-17T15:49:32Z</time>
<desc>lat.=55.837044, lon.=26.047262, Alt.=147.627075m. Speed=0.036000m/h.</desc>
<speed>0.010000</speed>
</trkpt>
<trkpt lat="55.837044" lon="26.047262">
<ele>147.630981</ele>
<time>2010-07-17T15:49:33Z</time>
<desc>lat.=55.837044, lon.=26.047262, Alt.=147.630981m. Speed=0.000000m/h.</desc>
<speed>0.000000</speed>
</trkpt>
<trkpt lat="55.837044" lon="26.047262">
<ele>147.630981</ele>
<time>2010-07-17T15:49:34Z</time>
<desc>lat.=55.837044, lon.=26.047262, Alt.=147.630981m. Speed=0.036000m/h.</desc>
<speed>0.010000</speed>
</trkpt>
<trkpt lat="55.837044" lon="26.047262">
<ele>147.634888</ele>
<time>2010-07-17T15:49:35Z</time>
<desc>lat.=55.837044, lon.=26.047262, Alt.=147.634888m. Speed=0.072000m/h.</desc>
<speed>0.020000</speed>
</trkpt>
<trkpt lat="55.837044" lon="26.047262">
<ele>147.638794</ele>
<time>2010-07-17T15:49:36Z</time>
<desc>lat.=55.837044, lon.=26.047262, Alt.=147.638794m. Speed=0.036000m/h.</desc>
<speed>0.010000</speed>
</trkpt>
<trkpt lat="55.837044" lon="26.047262">
<ele>147.638794</ele>
<time>2010-07-17T15:49:37Z</time>
<desc>lat.=55.837044, lon.=26.047262, Alt.=147.638794m. Speed=0.036000m/h.</desc>
<speed>0.010000</speed>
</trkpt>
<trkpt lat="55.837044" lon="26.047262">
<ele>147.642700</ele>
<time>2010-07-17T15:49:38Z</time>
<desc>lat.=55.837044, lon.=26.047262, Alt.=147.642700m. Speed=0.036000m/h.</desc>
<speed>0.010000</speed>
</trkpt>
<trkpt lat="55.837044" lon="26.047262">
<ele>147.642700</ele>
<time>2010-07-17T15:49:39Z</time>
<desc>lat.=55.837044, lon.=26.047262, Alt.=147.642700m. Speed=0.036000m/h.</desc>
<speed>0.010000</speed>
</trkpt>
<trkpt lat="55.837044" lon="26.047262">
<ele>147.642700</ele>
<time>2010-07-17T15:49:40Z</time>
<desc>lat.=55.837044, lon.=26.047262, Alt.=147.642700m. Speed=0.000000m/h.</desc>
<speed>0.000000</speed>
</trkpt>
<trkpt lat="55.837044" lon="26.047262">
<ele>147.642700</ele>
<time>2010-07-17T15:49:41Z</time>
<desc>lat.=55.837044, lon.=26.047262, Alt.=147.642700m. Speed=0.036000m/h.</desc>
<speed>0.010000</speed>
</trkpt>
<trkpt lat="55.837044" lon="26.047262">
<ele>147.646606</ele>
<time>2010-07-17T15:49:42Z</time>
<desc>lat.=55.837044, lon.=26.047262, Alt.=147.646606m. Speed=0.036000m/h.</desc>
<speed>0.010000</speed>
</trkpt>
<trkpt lat="55.837044" lon="26.047262">
<ele>147.650513</ele>
<time>2010-07-17T15:49:43Z</time>
<desc>lat.=55.837044, lon.=26.047262, Alt.=147.650513m. Speed=0.072000m/h.</desc>
<speed>0.020000</speed>
</trkpt>
<trkpt lat="55.837044" lon="26.047262">
<ele>147.646606</ele>
<time>2010-07-17T15:49:44Z</time>
<desc>lat.=55.837044, lon.=26.047262, Alt.=147.646606m. Speed=0.144000m/h.</desc>
<speed>0.040000</speed>
</trkpt>
<trkpt lat="55.837044" lon="26.047262">
<ele>147.646606</ele>
<time>2010-07-17T15:49:45Z</time>
<desc>lat.=55.837044, lon.=26.047262, Alt.=147.646606m. Speed=0.036000m/h.</desc>
<speed>0.010000</speed>
</trkpt>
<trkpt lat="55.837044" lon="26.047262">
<ele>147.650513</ele>
<time>2010-07-17T15:49:46Z</time>
<desc>lat.=55.837044, lon.=26.047262, Alt.=147.650513m. Speed=0.072000m/h.</desc>
<speed>0.020000</speed>
</trkpt>
<trkpt lat="55.837044" lon="26.047262">
<ele>147.654419</ele>
<time>2010-07-17T15:49:47Z</time>
<desc>lat.=55.837044, lon.=26.047262, Alt.=147.654419m. Speed=0.144000m/h.</desc>
<speed>0.040000</speed>
</trkpt>
<trkpt lat="55.837044" lon="26.047262">
<ele>147.658325</ele>
<time>2010-07-17T15:49:48Z</time>
<desc>lat.=55.837044, lon.=26.047262, Alt.=147.658325m. Speed=0.036000m/h.</desc>
<speed>0.010000</speed>
</trkpt>
<trkpt lat="55.837044" lon="26.047262">
<ele>147.658325</ele>
<time>2010-07-17T15:49:49Z</time>
<desc>lat.=55.837044, lon.=26.047262, Alt.=147.658325m. Speed=0.036000m/h.</desc>
<speed>0.010000</speed>
</trkpt>
<trkpt lat="55.837044" lon="26.047262">
<ele>147.662231</ele>
<time>2010-07-17T15:49:50Z</time>
<desc>lat.=55.837044, lon.=26.047262, Alt.=147.662231m. Speed=0.036000m/h.</desc>
<speed>0.010000</speed>
</trkpt>
<trkpt lat="55.837044" lon="26.047262">
<ele>147.666138</ele>
<time>2010-07-17T15:49:51Z</time>
<desc>lat.=55.837044, lon.=26.047262, Alt.=147.666138m. Speed=0.000000m/h.</desc>
<speed>0.000000</speed>
</trkpt>
<trkpt lat="55.837044" lon="26.047262">
<ele>147.670044</ele>
<time>2010-07-17T15:49:52Z</time>
<desc>lat.=55.837044, lon.=26.047262, Alt.=147.670044m. Speed=0.072000m/h.</desc>
<speed>0.020000</speed>
</trkpt>
<trkpt lat="55.837044" lon="26.047262">
<ele>147.673950</ele>
<time>2010-07-17T15:49:53Z</time>
<desc>lat.=55.837044, lon.=26.047262, Alt.=147.673950m. Speed=0.072000m/h.</desc>
<speed>0.020000</speed>
</trkpt>
<trkpt lat="55.837044" lon="26.047262">
<ele>147.681763</ele>
<time>2010-07-17T15:49:54Z</time>
<desc>lat.=55.837044, lon.=26.047262, Alt.=147.681763m. Speed=0.036000m/h.</desc>
<speed>0.010000</speed>
</trkpt>
<trkpt lat="55.837044" lon="26.047262">
<ele>147.685669</ele>
<time>2010-07-17T15:49:55Z</time>
<desc>lat.=55.837044, lon.=26.047262, Alt.=147.685669m. Speed=0.072000m/h.</desc>
<speed>0.020000</speed>
</trkpt>
<trkpt lat="55.837044" lon="26.047262">
<ele>147.693481</ele>
<time>2010-07-17T15:49:56Z</time>
<desc>lat.=55.837044, lon.=26.047262, Alt.=147.693481m. Speed=0.108000m/h.</desc>
<speed>0.030000</speed>
</trkpt>
<trkpt lat="55.837044" lon="26.047262">
<ele>147.697388</ele>
<time>2010-07-17T15:49:57Z</time>
<desc>lat.=55.837044, lon.=26.047262, Alt.=147.697388m. Speed=0.036000m/h.</desc>
<speed>0.010000</speed>
</trkpt>
<trkpt lat="55.837044" lon="26.047262">
<ele>147.705200</ele>
<time>2010-07-17T15:49:58Z</time>
<desc>lat.=55.837044, lon.=26.047262, Alt.=147.705200m. Speed=0.108000m/h.</desc>
<speed>0.030000</speed>
</trkpt>
<trkpt lat="55.837044" lon="26.047262">
<ele>147.709106</ele>
<time>2010-07-17T15:49:59Z</time>
<desc>lat.=55.837044, lon.=26.047262, Alt.=147.709106m. Speed=0.144000m/h.</desc>
<speed>0.040000</speed>
</trkpt>
<trkpt lat="55.837044" lon="26.047262">
<ele>147.716919</ele>
<time>2010-07-17T15:50:00Z</time>
<desc>lat.=55.837044, lon.=26.047262, Alt.=147.716919m. Speed=0.036000m/h.</desc>
<speed>0.010000</speed>
</trkpt>
<trkpt lat="55.837044" lon="26.047262">
<ele>147.724731</ele>
<time>2010-07-17T15:50:01Z</time>
<desc>lat.=55.837044, lon.=26.047262, Alt.=147.724731m. Speed=0.180000m/h.</desc>
<speed>0.050000</speed>
</trkpt>
<trkpt lat="55.837044" lon="26.047262">
<ele>147.728638</ele>
<time>2010-07-17T15:50:02Z</time>
<desc>lat.=55.837044, lon.=26.047262, Alt.=147.728638m. Speed=0.072000m/h.</desc>
<speed>0.020000</speed>
</trkpt>
<trkpt lat="55.837044" lon="26.047262">
<ele>147.736450</ele>
<time>2010-07-17T15:50:03Z</time>
<desc>lat.=55.837044, lon.=26.047262, Alt.=147.736450m. Speed=0.072000m/h.</desc>
<speed>0.020000</speed>
</trkpt>
<trkpt lat="55.837044" lon="26.047262">
<ele>147.744263</ele>
<time>2010-07-17T15:50:04Z</time>
<desc>lat.=55.837044, lon.=26.047262, Alt.=147.744263m. Speed=0.000000m/h.</desc>
<speed>0.000000</speed>
</trkpt>
<trkpt lat="55.837044" lon="26.047262">
<ele>147.752075</ele>
<time>2010-07-17T15:50:05Z</time>
<desc>lat.=55.837044, lon.=26.047262, Alt.=147.752075m. Speed=0.000000m/h.</desc>
<speed>0.000000</speed>
</trkpt>
<trkpt lat="55.837044" lon="26.047262">
<ele>147.759888</ele>
<time>2010-07-17T15:50:06Z</time>
<desc>lat.=55.837044, lon.=26.047262, Alt.=147.759888m. Speed=0.000000m/h.</desc>
<speed>0.000000</speed>
</trkpt>
<trkpt lat="55.837044" lon="26.047264">
<ele>147.767700</ele>
<time>2010-07-17T15:50:07Z</time>
<desc>lat.=55.837044, lon.=26.047264, Alt.=147.767700m. Speed=0.000000m/h.</desc>
<speed>0.000000</speed>
</trkpt>
<trkpt lat="55.837044" lon="26.047264">
<ele>147.775513</ele>
<time>2010-07-17T15:50:08Z</time>
<desc>lat.=55.837044, lon.=26.047264, Alt.=147.775513m. Speed=0.072000m/h.</desc>
<speed>0.020000</speed>
</trkpt>
<trkpt lat="55.837044" lon="26.047264">
<ele>147.779419</ele>
<time>2010-07-17T15:50:09Z</time>
<desc>lat.=55.837044, lon.=26.047264, Alt.=147.779419m. Speed=0.036000m/h.</desc>
<speed>0.010000</speed>
</trkpt>
<trkpt lat="55.837044" lon="26.047262">
<ele>147.787231</ele>
<time>2010-07-17T15:50:10Z</time>
<desc>lat.=55.837044, lon.=26.047262, Alt.=147.787231m. Speed=0.144000m/h.</desc>
<speed>0.040000</speed>
</trkpt>
<trkpt lat="55.837044" lon="26.047262">
<ele>147.798950</ele>
<time>2010-07-17T15:50:11Z</time>
<desc>lat.=55.837044, lon.=26.047262, Alt.=147.798950m. Speed=0.036000m/h.</desc>
<speed>0.010000</speed>
</trkpt>
<trkpt lat="55.837044" lon="26.047262">
<ele>147.802856</ele>
<time>2010-07-17T15:50:12Z</time>
<desc>lat.=55.837044, lon.=26.047262, Alt.=147.802856m. Speed=0.000000m/h.</desc>
<speed>0.000000</speed>
</trkpt>
<trkpt lat="55.837044" lon="26.047262">
<ele>147.806763</ele>
<time>2010-07-17T15:50:13Z</time>
<desc>lat.=55.837044, lon.=26.047262, Alt.=147.806763m. Speed=0.072000m/h.</desc>
<speed>0.020000</speed>
</trkpt>
<trkpt lat="55.837044" lon="26.047264">
<ele>147.814575</ele>
<time>2010-07-17T15:50:14Z</time>
<desc>lat.=55.837044, lon.=26.047264, Alt.=147.814575m. Speed=0.000000m/h.</desc>
<speed>0.000000</speed>
</trkpt>
<trkpt lat="55.837044" lon="26.047262">
<ele>147.822388</ele>
<time>2010-07-17T15:50:15Z</time>
<desc>lat.=55.837044, lon.=26.047262, Alt.=147.822388m. Speed=0.108000m/h.</desc>
<speed>0.030000</speed>
</trkpt>
<trkpt lat="55.837044" lon="26.047262">
<ele>147.814575</ele>
<time>2010-07-17T15:50:16Z</time>
<desc>lat.=55.837044, lon.=26.047262, Alt.=147.814575m. Speed=0.144000m/h.</desc>
<speed>0.040000</speed>
</trkpt>
<trkpt lat="55.837044" lon="26.047262">
<ele>147.818481</ele>
<time>2010-07-17T15:50:17Z</time>
<desc>lat.=55.837044, lon.=26.047262, Alt.=147.818481m. Speed=0.036000m/h.</desc>
<speed>0.010000</speed>
</trkpt>
<trkpt lat="55.837044" lon="26.047262">
<ele>147.826294</ele>
<time>2010-07-17T15:50:18Z</time>
<desc>lat.=55.837044, lon.=26.047262, Alt.=147.826294m. Speed=0.108000m/h.</desc>
<speed>0.030000</speed>
</trkpt>
<trkpt lat="55.837044" lon="26.047262">
<ele>147.834106</ele>
<time>2010-07-17T15:50:19Z</time>
<desc>lat.=55.837044, lon.=26.047262, Alt.=147.834106m. Speed=0.108000m/h.</desc>
<speed>0.030000</speed>
</trkpt>
<trkpt lat="55.837044" lon="26.047262">
<ele>147.838013</ele>
<time>2010-07-17T15:50:20Z</time>
<desc>lat.=55.837044, lon.=26.047262, Alt.=147.838013m. Speed=0.108000m/h.</desc>
<speed>0.030000</speed>
</trkpt>
<trkpt lat="55.837044" lon="26.047262">
<ele>147.838013</ele>
<time>2010-07-17T15:50:21Z</time>
<desc>lat.=55.837044, lon.=26.047262, Alt.=147.838013m. Speed=0.000000m/h.</desc>
<speed>0.000000</speed>
</trkpt>
<trkpt lat="55.837044" lon="26.047262">
<ele>147.849731</ele>
<time>2010-07-17T15:50:22Z</time>
<desc>lat.=55.837044, lon.=26.047262, Alt.=147.849731m. Speed=0.036000m/h.</desc>
<speed>0.010000</speed>
</trkpt>
<trkpt lat="55.837044" lon="26.047262">
<ele>147.853638</ele>
<time>2010-07-17T15:50:23Z</time>
<desc>lat.=55.837044, lon.=26.047262, Alt.=147.853638m. Speed=0.000000m/h.</desc>
<speed>0.000000</speed>
</trkpt>
<trkpt lat="55.837048" lon="26.047262">
<ele>147.857544</ele>
<time>2010-07-17T15:50:24Z</time>
<desc>lat.=55.837048, lon.=26.047262, Alt.=147.857544m. Speed=0.000000m/h.</desc>
<speed>0.000000</speed>
</trkpt>
<trkpt lat="55.837048" lon="26.047262">
<ele>147.861450</ele>
<time>2010-07-17T15:50:25Z</time>
<desc>lat.=55.837048, lon.=26.047262, Alt.=147.861450m. Speed=0.000000m/h.</desc>
<speed>0.000000</speed>
</trkpt>
<trkpt lat="55.837048" lon="26.047262">
<ele>147.869263</ele>
<time>2010-07-17T15:50:26Z</time>
<desc>lat.=55.837048, lon.=26.047262, Alt.=147.869263m. Speed=0.108000m/h.</desc>
<speed>0.030000</speed>
</trkpt>
<trkpt lat="55.837048" lon="26.047264">
<ele>147.873169</ele>
<time>2010-07-17T15:50:27Z</time>
<desc>lat.=55.837048, lon.=26.047264, Alt.=147.873169m. Speed=0.036000m/h.</desc>
<speed>0.010000</speed>
</trkpt>
<trkpt lat="55.837048" lon="26.047264">
<ele>147.880981</ele>
<time>2010-07-17T15:50:28Z</time>
<desc>lat.=55.837048, lon.=26.047264, Alt.=147.880981m. Speed=0.072000m/h.</desc>
<speed>0.020000</speed>
</trkpt>
<trkpt lat="55.837048" lon="26.047264">
<ele>147.888794</ele>
<time>2010-07-17T15:50:29Z</time>
<desc>lat.=55.837048, lon.=26.047264, Alt.=147.888794m. Speed=0.072000m/h.</desc>
<speed>0.020000</speed>
</trkpt>
<trkpt lat="55.837048" lon="26.047264">
<ele>147.892700</ele>
<time>2010-07-17T15:50:30Z</time>
<desc>lat.=55.837048, lon.=26.047264, Alt.=147.892700m. Speed=0.036000m/h.</desc>
<speed>0.010000</speed>
</trkpt>
<trkpt lat="55.837048" lon="26.047264">
<ele>147.892700</ele>
<time>2010-07-17T15:50:31Z</time>
<desc>lat.=55.837048, lon.=26.047264, Alt.=147.892700m. Speed=0.000000m/h.</desc>
<speed>0.000000</speed>
</trkpt>
<trkpt lat="55.837048" lon="26.047264">
<ele>147.896606</ele>
<time>2010-07-17T15:50:32Z</time>
<desc>lat.=55.837048, lon.=26.047264, Alt.=147.896606m. Speed=0.000000m/h.</desc>
<speed>0.000000</speed>
</trkpt>
<trkpt lat="55.837048" lon="26.047264">
<ele>147.896606</ele>
<time>2010-07-17T15:50:33Z</time>
<desc>lat.=55.837048, lon.=26.047264, Alt.=147.896606m. Speed=0.036000m/h.</desc>
<speed>0.010000</speed>
</trkpt>
<trkpt lat="55.837048" lon="26.047264">
<ele>147.896606</ele>
<time>2010-07-17T15:50:34Z</time>
<desc>lat.=55.837048, lon.=26.047264, Alt.=147.896606m. Speed=0.036000m/h.</desc>
<speed>0.010000</speed>
</trkpt>
<trkpt lat="55.837048" lon="26.047264">
<ele>147.904419</ele>
<time>2010-07-17T15:50:35Z</time>
<desc>lat.=55.837048, lon.=26.047264, Alt.=147.904419m. Speed=0.036000m/h.</desc>
<speed>0.010000</speed>
</trkpt>
<trkpt lat="55.837048" lon="26.047264">
<ele>147.908325</ele>
<time>2010-07-17T15:50:36Z</time>
<desc>lat.=55.837048, lon.=26.047264, Alt.=147.908325m. Speed=0.000000m/h.</desc>
<speed>0.000000</speed>
</trkpt>
<trkpt lat="55.837048" lon="26.047264">
<ele>147.908325</ele>
<time>2010-07-17T15:50:37Z</time>
<desc>lat.=55.837048, lon.=26.047264, Alt.=147.908325m. Speed=0.036000m/h.</desc>
<speed>0.010000</speed>
</trkpt>
<trkpt lat="55.837048" lon="26.047264">
<ele>147.912231</ele>
<time>2010-07-17T15:50:38Z</time>
<desc>lat.=55.837048, lon.=26.047264, Alt.=147.912231m. Speed=0.036000m/h.</desc>
<speed>0.010000</speed>
</trkpt>
<trkpt lat="55.837048" lon="26.047264">
<ele>147.920044</ele>
<time>2010-07-17T15:50:39Z</time>
<desc>lat.=55.837048, lon.=26.047264, Alt.=147.920044m. Speed=0.108000m/h.</desc>
<speed>0.030000</speed>
</trkpt>
<trkpt lat="55.837048" lon="26.047264">
<ele>147.931763</ele>
<time>2010-07-17T15:50:40Z</time>
<desc>lat.=55.837048, lon.=26.047264, Alt.=147.931763m. Speed=0.072000m/h.</desc>
<speed>0.020000</speed>
</trkpt>
<trkpt lat="55.837048" lon="26.047264">
<ele>147.935669</ele>
<time>2010-07-17T15:50:41Z</time>
<desc>lat.=55.837048, lon.=26.047264, Alt.=147.935669m. Speed=0.036000m/h.</desc>
<speed>0.010000</speed>
</trkpt>
<trkpt lat="55.837048" lon="26.047264">
<ele>147.935669</ele>
<time>2010-07-17T15:50:42Z</time>
<desc>lat.=55.837048, lon.=26.047264, Alt.=147.935669m. Speed=0.036000m/h.</desc>
<speed>0.010000</speed>
</trkpt>
<trkpt lat="55.837048" lon="26.047264">
<ele>147.943481</ele>
<time>2010-07-17T15:50:43Z</time>
<desc>lat.=55.837048, lon.=26.047264, Alt.=147.943481m. Speed=0.072000m/h.</desc>
<speed>0.020000</speed>
</trkpt>
<trkpt lat="55.837048" lon="26.047264">
<ele>147.947388</ele>
<time>2010-07-17T15:50:44Z</time>
<desc>lat.=55.837048, lon.=26.047264, Alt.=147.947388m. Speed=0.072000m/h.</desc>
<speed>0.020000</speed>
</trkpt>
<trkpt lat="55.837048" lon="26.047264">
<ele>147.951294</ele>
<time>2010-07-17T15:50:45Z</time>
<desc>lat.=55.837048, lon.=26.047264, Alt.=147.951294m. Speed=0.000000m/h.</desc>
<speed>0.000000</speed>
</trkpt>
<trkpt lat="55.837048" lon="26.047264">
<ele>147.955200</ele>
<time>2010-07-17T15:50:46Z</time>
<desc>lat.=55.837048, lon.=26.047264, Alt.=147.955200m. Speed=0.036000m/h.</desc>
<speed>0.010000</speed>
</trkpt>
<trkpt lat="55.837048" lon="26.047264">
<ele>147.963013</ele>
<time>2010-07-17T15:50:47Z</time>
<desc>lat.=55.837048, lon.=26.047264, Alt.=147.963013m. Speed=0.072000m/h.</desc>
<speed>0.020000</speed>
</trkpt>
<trkpt lat="55.837048" lon="26.047264">
<ele>147.963013</ele>
<time>2010-07-17T15:50:48Z</time>
<desc>lat.=55.837048, lon.=26.047264, Alt.=147.963013m. Speed=0.036000m/h.</desc>
<speed>0.010000</speed>
</trkpt>
<trkpt lat="55.837048" lon="26.047264">
<ele>147.963013</ele>
<time>2010-07-17T15:50:49Z</time>
<desc>lat.=55.837048, lon.=26.047264, Alt.=147.963013m. Speed=0.036000m/h.</desc>
<speed>0.010000</speed>
</trkpt>
<trkpt lat="55.837048" lon="26.047264">
<ele>147.963013</ele>
<time>2010-07-17T15:50:50Z</time>
<desc>lat.=55.837048, lon.=26.047264, Alt.=147.963013m. Speed=0.072000m/h.</desc>
<speed>0.020000</speed>
</trkpt>
<trkpt lat="55.837048" lon="26.047264">
<ele>147.963013</ele>
<time>2010-07-17T15:50:51Z</time>
<desc>lat.=55.837048, lon.=26.047264, Alt.=147.963013m. Speed=0.144000m/h.</desc>
<speed>0.040000</speed>
</trkpt>
<trkpt lat="55.837048" lon="26.047264">
<ele>147.963013</ele>
<time>2010-07-17T15:50:52Z</time>
<desc>lat.=55.837048, lon.=26.047264, Alt.=147.963013m. Speed=0.108000m/h.</desc>
<speed>0.030000</speed>
</trkpt>
<trkpt lat="55.837048" lon="26.047266">
<ele>147.966919</ele>
<time>2010-07-17T15:50:53Z</time>
<desc>lat.=55.837048, lon.=26.047266, Alt.=147.966919m. Speed=0.072000m/h.</desc>
<speed>0.020000</speed>
</trkpt>
<trkpt lat="55.837048" lon="26.047266">
<ele>147.963013</ele>
<time>2010-07-17T15:50:54Z</time>
<desc>lat.=55.837048, lon.=26.047266, Alt.=147.963013m. Speed=0.000000m/h.</desc>
<speed>0.000000</speed>
</trkpt>
<trkpt lat="55.837048" lon="26.047266">
<ele>147.963013</ele>
<time>2010-07-17T15:50:55Z</time>
<desc>lat.=55.837048, lon.=26.047266, Alt.=147.963013m. Speed=0.072000m/h.</desc>
<speed>0.020000</speed>
</trkpt>
<trkpt lat="55.837048" lon="26.047266">
<ele>147.963013</ele>
<time>2010-07-17T15:50:56Z</time>
<desc>lat.=55.837048, lon.=26.047266, Alt.=147.963013m. Speed=0.072000m/h.</desc>
<speed>0.020000</speed>
</trkpt>
<trkpt lat="55.837048" lon="26.047266">
<ele>147.963013</ele>
<time>2010-07-17T15:50:57Z</time>
<desc>lat.=55.837048, lon.=26.047266, Alt.=147.963013m. Speed=0.036000m/h.</desc>
<speed>0.010000</speed>
</trkpt>
<trkpt lat="55.837048" lon="26.047266">
<ele>147.963013</ele>
<time>2010-07-17T15:50:58Z</time>
<desc>lat.=55.837048, lon.=26.047266, Alt.=147.963013m. Speed=0.000000m/h.</desc>
<speed>0.000000</speed>
</trkpt>
<trkpt lat="55.837048" lon="26.047266">
<ele>147.966919</ele>
<time>2010-07-17T15:50:59Z</time>
<desc>lat.=55.837048, lon.=26.047266, Alt.=147.966919m. Speed=0.036000m/h.</desc>
<speed>0.010000</speed>
</trkpt>
<trkpt lat="55.837048" lon="26.047266">
<ele>147.966919</ele>
<time>2010-07-17T15:51:00Z</time>
<desc>lat.=55.837048, lon.=26.047266, Alt.=147.966919m. Speed=0.036000m/h.</desc>
<speed>0.010000</speed>
</trkpt>
<trkpt lat="55.837048" lon="26.047266">
<ele>147.970825</ele>
<time>2010-07-17T15:51:01Z</time>
<desc>lat.=55.837048, lon.=26.047266, Alt.=147.970825m. Speed=0.036000m/h.</desc>
<speed>0.010000</speed>
</trkpt>
<trkpt lat="55.837048" lon="26.047266">
<ele>147.978638</ele>
<time>2010-07-17T15:51:02Z</time>
<desc>lat.=55.837048, lon.=26.047266, Alt.=147.978638m. Speed=0.000000m/h.</desc>
<speed>0.000000</speed>
</trkpt>
<trkpt lat="55.837048" lon="26.047266">
<ele>147.982544</ele>
<time>2010-07-17T15:51:03Z</time>
<desc>lat.=55.837048, lon.=26.047266, Alt.=147.982544m. Speed=0.000000m/h.</desc>
<speed>0.000000</speed>
</trkpt>
<trkpt lat="55.837048" lon="26.047266">
<ele>147.986450</ele>
<time>2010-07-17T15:51:04Z</time>
<desc>lat.=55.837048, lon.=26.047266, Alt.=147.986450m. Speed=0.036000m/h.</desc>
<speed>0.010000</speed>
</trkpt>
<trkpt lat="55.837048" lon="26.047266">
<ele>147.994263</ele>
<time>2010-07-17T15:51:05Z</time>
<desc>lat.=55.837048, lon.=26.047266, Alt.=147.994263m. Speed=0.108000m/h.</desc>
<speed>0.030000</speed>
</trkpt>
<trkpt lat="55.837048" lon="26.047266">
<ele>147.994263</ele>
<time>2010-07-17T15:51:06Z</time>
<desc>lat.=55.837048, lon.=26.047266, Alt.=147.994263m. Speed=0.072000m/h.</desc>
<speed>0.020000</speed>
</trkpt>
<trkpt lat="55.837048" lon="26.047266">
<ele>147.998169</ele>
<time>2010-07-17T15:51:07Z</time>
<desc>lat.=55.837048, lon.=26.047266, Alt.=147.998169m. Speed=0.108000m/h.</desc>
<speed>0.030000</speed>
</trkpt>
<trkpt lat="55.837048" lon="26.047266">
<ele>148.002075</ele>
<time>2010-07-17T15:51:08Z</time>
<desc>lat.=55.837048, lon.=26.047266, Alt.=148.002075m. Speed=0.036000m/h.</desc>
<speed>0.010000</speed>
</trkpt>
<trkpt lat="55.837048" lon="26.047266">
<ele>148.002075</ele>
<time>2010-07-17T15:51:09Z</time>
<desc>lat.=55.837048, lon.=26.047266, Alt.=148.002075m. Speed=0.036000m/h.</desc>
<speed>0.010000</speed>
</trkpt>
<trkpt lat="55.837048" lon="26.047266">
<ele>148.009888</ele>
<time>2010-07-17T15:51:10Z</time>
<desc>lat.=55.837048, lon.=26.047266, Alt.=148.009888m. Speed=0.036000m/h.</desc>
<speed>0.010000</speed>
</trkpt>
<trkpt lat="55.837048" lon="26.047266">
<ele>148.013794</ele>
<time>2010-07-17T15:51:11Z</time>
<desc>lat.=55.837048, lon.=26.047266, Alt.=148.013794m. Speed=0.072000m/h.</desc>
<speed>0.020000</speed>
</trkpt>
<trkpt lat="55.837048" lon="26.047266">
<ele>148.017700</ele>
<time>2010-07-17T15:51:12Z</time>
<desc>lat.=55.837048, lon.=26.047266, Alt.=148.017700m. Speed=0.000000m/h.</desc>
<speed>0.000000</speed>
</trkpt>
<trkpt lat="55.837048" lon="26.047266">
<ele>148.021606</ele>
<time>2010-07-17T15:51:13Z</time>
<desc>lat.=55.837048, lon.=26.047266, Alt.=148.021606m. Speed=0.072000m/h.</desc>
<speed>0.020000</speed>
</trkpt>
<trkpt lat="55.837048" lon="26.047266">
<ele>148.025513</ele>
<time>2010-07-17T15:51:14Z</time>
<desc>lat.=55.837048, lon.=26.047266, Alt.=148.025513m. Speed=0.108000m/h.</desc>
<speed>0.030000</speed>
</trkpt>
<trkpt lat="55.837048" lon="26.047266">
<ele>148.029419</ele>
<time>2010-07-17T15:51:15Z</time>
<desc>lat.=55.837048, lon.=26.047266, Alt.=148.029419m. Speed=0.216000m/h.</desc>
<speed>0.060000</speed>
</trkpt>
<trkpt lat="55.837048" lon="26.047266">
<ele>148.033325</ele>
<time>2010-07-17T15:51:16Z</time>
<desc>lat.=55.837048, lon.=26.047266, Alt.=148.033325m. Speed=0.072000m/h.</desc>
<speed>0.020000</speed>
</trkpt>
<trkpt lat="55.837048" lon="26.047266">
<ele>148.037231</ele>
<time>2010-07-17T15:51:17Z</time>
<desc>lat.=55.837048, lon.=26.047266, Alt.=148.037231m. Speed=0.144000m/h.</desc>
<speed>0.040000</speed>
</trkpt>
<trkpt lat="55.837048" lon="26.047266">
<ele>148.037231</ele>
<time>2010-07-17T15:51:18Z</time>
<desc>lat.=55.837048, lon.=26.047266, Alt.=148.037231m. Speed=0.108000m/h.</desc>
<speed>0.030000</speed>
</trkpt>
<trkpt lat="55.837048" lon="26.047266">
<ele>148.041138</ele>
<time>2010-07-17T15:51:19Z</time>
<desc>lat.=55.837048, lon.=26.047266, Alt.=148.041138m. Speed=0.072000m/h.</desc>
<speed>0.020000</speed>
</trkpt>
<trkpt lat="55.837048" lon="26.047266">
<ele>148.041138</ele>
<time>2010-07-17T15:51:20Z</time>
<desc>lat.=55.837048, lon.=26.047266, Alt.=148.041138m. Speed=0.072000m/h.</desc>
<speed>0.020000</speed>
</trkpt>
<trkpt lat="55.837048" lon="26.047266">
<ele>148.041138</ele>
<time>2010-07-17T15:51:21Z</time>
<desc>lat.=55.837048, lon.=26.047266, Alt.=148.041138m. Speed=0.072000m/h.</desc>
<speed>0.020000</speed>
</trkpt>
<trkpt lat="55.837048" lon="26.047266">
<ele>148.048950</ele>
<time>2010-07-17T15:51:22Z</time>
<desc>lat.=55.837048, lon.=26.047266, Alt.=148.048950m. Speed=0.000000m/h.</desc>
<speed>0.000000</speed>
</trkpt>
<trkpt lat="55.837048" lon="26.047266">
<ele>148.052856</ele>
<time>2010-07-17T15:51:23Z</time>
<desc>lat.=55.837048, lon.=26.047266, Alt.=148.052856m. Speed=0.144000m/h.</desc>
<speed>0.040000</speed>
</trkpt>
<trkpt lat="55.837051" lon="26.047266">
<ele>148.056763</ele>
<time>2010-07-17T15:51:24Z</time>
<desc>lat.=55.837051, lon.=26.047266, Alt.=148.056763m. Speed=0.108000m/h.</desc>
<speed>0.030000</speed>
</trkpt>
<trkpt lat="55.837051" lon="26.047266">
<ele>148.056763</ele>
<time>2010-07-17T15:51:25Z</time>
<desc>lat.=55.837051, lon.=26.047266, Alt.=148.056763m. Speed=0.108000m/h.</desc>
<speed>0.030000</speed>
</trkpt>
<trkpt lat="55.837051" lon="26.047266">
<ele>148.052856</ele>
<time>2010-07-17T15:51:26Z</time>
<desc>lat.=55.837051, lon.=26.047266, Alt.=148.052856m. Speed=0.036000m/h.</desc>
<speed>0.010000</speed>
</trkpt>
<trkpt lat="55.837051" lon="26.047266">
<ele>148.056763</ele>
<time>2010-07-17T15:51:27Z</time>
<desc>lat.=55.837051, lon.=26.047266, Alt.=148.056763m. Speed=0.072000m/h.</desc>
<speed>0.020000</speed>
</trkpt>
<trkpt lat="55.837051" lon="26.047266">
<ele>148.056763</ele>
<time>2010-07-17T15:51:28Z</time>
<desc>lat.=55.837051, lon.=26.047266, Alt.=148.056763m. Speed=0.072000m/h.</desc>
<speed>0.020000</speed>
</trkpt>
<trkpt lat="55.837051" lon="26.047266">
<ele>148.060669</ele>
<time>2010-07-17T15:51:29Z</time>
<desc>lat.=55.837051, lon.=26.047266, Alt.=148.060669m. Speed=0.072000m/h.</desc>
<speed>0.020000</speed>
</trkpt>
<trkpt lat="55.837051" lon="26.047266">
<ele>148.064575</ele>
<time>2010-07-17T15:51:30Z</time>
<desc>lat.=55.837051, lon.=26.047266, Alt.=148.064575m. Speed=0.072000m/h.</desc>
<speed>0.020000</speed>
</trkpt>
<trkpt lat="55.837051" lon="26.047266">
<ele>148.064575</ele>
<time>2010-07-17T15:51:31Z</time>
<desc>lat.=55.837051, lon.=26.047266, Alt.=148.064575m. Speed=0.000000m/h.</desc>
<speed>0.000000</speed>
</trkpt>
<trkpt lat="55.837051" lon="26.047266">
<ele>148.068481</ele>
<time>2010-07-17T15:51:32Z</time>
<desc>lat.=55.837051, lon.=26.047266, Alt.=148.068481m. Speed=0.072000m/h.</desc>
<speed>0.020000</speed>
</trkpt>
<trkpt lat="55.837051" lon="26.047266">
<ele>148.072388</ele>
<time>2010-07-17T15:51:33Z</time>
<desc>lat.=55.837051, lon.=26.047266, Alt.=148.072388m. Speed=0.000000m/h.</desc>
<speed>0.000000</speed>
</trkpt>
<trkpt lat="55.837051" lon="26.047266">
<ele>148.076294</ele>
<time>2010-07-17T15:51:34Z</time>
<desc>lat.=55.837051, lon.=26.047266, Alt.=148.076294m. Speed=0.036000m/h.</desc>
<speed>0.010000</speed>
</trkpt>
<trkpt lat="55.837051" lon="26.047266">
<ele>148.080200</ele>
<time>2010-07-17T15:51:35Z</time>
<desc>lat.=55.837051, lon.=26.047266, Alt.=148.080200m. Speed=0.180000m/h.</desc>
<speed>0.050000</speed>
</trkpt>
<trkpt lat="55.837051" lon="26.047266">
<ele>148.080200</ele>
<time>2010-07-17T15:51:36Z</time>
<desc>lat.=55.837051, lon.=26.047266, Alt.=148.080200m. Speed=0.072000m/h.</desc>
<speed>0.020000</speed>
</trkpt>
<trkpt lat="55.837051" lon="26.047266">
<ele>148.088013</ele>
<time>2010-07-17T15:51:37Z</time>
<desc>lat.=55.837051, lon.=26.047266, Alt.=148.088013m. Speed=0.144000m/h.</desc>
<speed>0.040000</speed>
</trkpt>
<trkpt lat="55.837051" lon="26.047266">
<ele>148.095825</ele>
<time>2010-07-17T15:51:38Z</time>
<desc>lat.=55.837051, lon.=26.047266, Alt.=148.095825m. Speed=0.072000m/h.</desc>
<speed>0.020000</speed>
</trkpt>
<trkpt lat="55.837051" lon="26.047266">
<ele>148.099731</ele>
<time>2010-07-17T15:51:39Z</time>
<desc>lat.=55.837051, lon.=26.047266, Alt.=148.099731m. Speed=0.108000m/h.</desc>
<speed>0.030000</speed>
</trkpt>
<trkpt lat="55.837051" lon="26.047266">
<ele>148.103638</ele>
<time>2010-07-17T15:51:40Z</time>
<desc>lat.=55.837051, lon.=26.047266, Alt.=148.103638m. Speed=0.108000m/h.</desc>
<speed>0.030000</speed>
</trkpt>
<trkpt lat="55.837051" lon="26.047266">
<ele>148.107544</ele>
<time>2010-07-17T15:51:41Z</time>
<desc>lat.=55.837051, lon.=26.047266, Alt.=148.107544m. Speed=0.036000m/h.</desc>
<speed>0.010000</speed>
</trkpt>
<trkpt lat="55.837051" lon="26.047266">
<ele>148.111450</ele>
<time>2010-07-17T15:51:42Z</time>
<desc>lat.=55.837051, lon.=26.047266, Alt.=148.111450m. Speed=0.036000m/h.</desc>
<speed>0.010000</speed>
</trkpt>
<trkpt lat="55.837051" lon="26.047266">
<ele>148.115356</ele>
<time>2010-07-17T15:51:43Z</time>
<desc>lat.=55.837051, lon.=26.047266, Alt.=148.115356m. Speed=0.036000m/h.</desc>
<speed>0.010000</speed>
</trkpt>
<trkpt lat="55.837051" lon="26.047266">
<ele>148.115356</ele>
<time>2010-07-17T15:51:44Z</time>
<desc>lat.=55.837051, lon.=26.047266, Alt.=148.115356m. Speed=0.000000m/h.</desc>
<speed>0.000000</speed>
</trkpt>
<trkpt lat="55.837051" lon="26.047266">
<ele>148.119263</ele>
<time>2010-07-17T15:51:45Z</time>
<desc>lat.=55.837051, lon.=26.047266, Alt.=148.119263m. Speed=0.108000m/h.</desc>
<speed>0.030000</speed>
</trkpt>
<trkpt lat="55.837051" lon="26.047266">
<ele>148.123169</ele>
<time>2010-07-17T15:51:46Z</time>
<desc>lat.=55.837051, lon.=26.047266, Alt.=148.123169m. Speed=0.144000m/h.</desc>
<speed>0.040000</speed>
</trkpt>
<trkpt lat="55.837051" lon="26.047266">
<ele>148.127075</ele>
<time>2010-07-17T15:51:47Z</time>
<desc>lat.=55.837051, lon.=26.047266, Alt.=148.127075m. Speed=0.036000m/h.</desc>
<speed>0.010000</speed>
</trkpt>
<trkpt lat="55.837051" lon="26.047266">
<ele>148.134888</ele>
<time>2010-07-17T15:51:48Z</time>
<desc>lat.=55.837051, lon.=26.047266, Alt.=148.134888m. Speed=0.000000m/h.</desc>
<speed>0.000000</speed>
</trkpt>
<trkpt lat="55.837051" lon="26.047266">
<ele>148.138794</ele>
<time>2010-07-17T15:51:49Z</time>
<desc>lat.=55.837051, lon.=26.047266, Alt.=148.138794m. Speed=0.036000m/h.</desc>
<speed>0.010000</speed>
</trkpt>
<trkpt lat="55.837051" lon="26.047266">
<ele>148.142700</ele>
<time>2010-07-17T15:51:50Z</time>
<desc>lat.=55.837051, lon.=26.047266, Alt.=148.142700m. Speed=0.036000m/h.</desc>
<speed>0.010000</speed>
</trkpt>
<trkpt lat="55.837051" lon="26.047266">
<ele>148.146606</ele>
<time>2010-07-17T15:51:51Z</time>
<desc>lat.=55.837051, lon.=26.047266, Alt.=148.146606m. Speed=0.000000m/h.</desc>
<speed>0.000000</speed>
</trkpt>
<trkpt lat="55.837051" lon="26.047266">
<ele>148.154419</ele>
<time>2010-07-17T15:51:52Z</time>
<desc>lat.=55.837051, lon.=26.047266, Alt.=148.154419m. Speed=0.000000m/h.</desc>
<speed>0.000000</speed>
</trkpt>
<trkpt lat="55.837051" lon="26.047266">
<ele>148.158325</ele>
<time>2010-07-17T15:51:53Z</time>
<desc>lat.=55.837051, lon.=26.047266, Alt.=148.158325m. Speed=0.036000m/h.</desc>
<speed>0.010000</speed>
</trkpt>
<trkpt lat="55.837051" lon="26.047266">
<ele>148.166138</ele>
<time>2010-07-17T15:51:54Z</time>
<desc>lat.=55.837051, lon.=26.047266, Alt.=148.166138m. Speed=0.036000m/h.</desc>
<speed>0.010000</speed>
</trkpt>
<trkpt lat="55.837051" lon="26.047266">
<ele>148.170044</ele>
<time>2010-07-17T15:51:55Z</time>
<desc>lat.=55.837051, lon.=26.047266, Alt.=148.170044m. Speed=0.036000m/h.</desc>
<speed>0.010000</speed>
</trkpt>
<trkpt lat="55.837051" lon="26.047266">
<ele>148.177856</ele>
<time>2010-07-17T15:51:56Z</time>
<desc>lat.=55.837051, lon.=26.047266, Alt.=148.177856m. Speed=0.000000m/h.</desc>
<speed>0.000000</speed>
</trkpt>
<trkpt lat="55.837051" lon="26.047266">
<ele>148.181763</ele>
<time>2010-07-17T15:51:57Z</time>
<desc>lat.=55.837051, lon.=26.047266, Alt.=148.181763m. Speed=0.000000m/h.</desc>
<speed>0.000000</speed>
</trkpt>
<trkpt lat="55.837051" lon="26.047266">
<ele>148.189575</ele>
<time>2010-07-17T15:51:58Z</time>
<desc>lat.=55.837051, lon.=26.047266, Alt.=148.189575m. Speed=0.000000m/h.</desc>
<speed>0.000000</speed>
</trkpt>
<trkpt lat="55.837051" lon="26.047266">
<ele>148.197388</ele>
<time>2010-07-17T15:51:59Z</time>
<desc>lat.=55.837051, lon.=26.047266, Alt.=148.197388m. Speed=0.036000m/h.</desc>
<speed>0.010000</speed>
</trkpt>
<trkpt lat="55.837051" lon="26.047266">
<ele>148.201294</ele>
<time>2010-07-17T15:52:00Z</time>
<desc>lat.=55.837051, lon.=26.047266, Alt.=148.201294m. Speed=0.036000m/h.</desc>
<speed>0.010000</speed>
</trkpt>
<trkpt lat="55.837051" lon="26.047266">
<ele>148.201294</ele>
<time>2010-07-17T15:52:01Z</time>
<desc>lat.=55.837051, lon.=26.047266, Alt.=148.201294m. Speed=0.036000m/h.</desc>
<speed>0.010000</speed>
</trkpt>
<trkpt lat="55.837051" lon="26.047266">
<ele>148.209106</ele>
<time>2010-07-17T15:52:02Z</time>
<desc>lat.=55.837051, lon.=26.047266, Alt.=148.209106m. Speed=0.036000m/h.</desc>
<speed>0.010000</speed>
</trkpt>
<trkpt lat="55.837051" lon="26.047266">
<ele>148.216919</ele>
<time>2010-07-17T15:52:03Z</time>
<desc>lat.=55.837051, lon.=26.047266, Alt.=148.216919m. Speed=0.036000m/h.</desc>
<speed>0.010000</speed>
</trkpt>
<trkpt lat="55.837051" lon="26.047266">
<ele>148.220825</ele>
<time>2010-07-17T15:52:04Z</time>
<desc>lat.=55.837051, lon.=26.047266, Alt.=148.220825m. Speed=0.036000m/h.</desc>
<speed>0.010000</speed>
</trkpt>
<trkpt lat="55.837051" lon="26.047266">
<ele>148.224731</ele>
<time>2010-07-17T15:52:05Z</time>
<desc>lat.=55.837051, lon.=26.047266, Alt.=148.224731m. Speed=0.000000m/h.</desc>
<speed>0.000000</speed>
</trkpt>
<trkpt lat="55.837051" lon="26.047266">
<ele>148.232544</ele>
<time>2010-07-17T15:52:06Z</time>
<desc>lat.=55.837051, lon.=26.047266, Alt.=148.232544m. Speed=0.000000m/h.</desc>
<speed>0.000000</speed>
</trkpt>
<trkpt lat="55.837051" lon="26.047266">
<ele>148.236450</ele>
<time>2010-07-17T15:52:07Z</time>
<desc>lat.=55.837051, lon.=26.047266, Alt.=148.236450m. Speed=0.072000m/h.</desc>
<speed>0.020000</speed>
</trkpt>
<trkpt lat="55.837051" lon="26.047266">
<ele>148.240356</ele>
<time>2010-07-17T15:52:08Z</time>
<desc>lat.=55.837051, lon.=26.047266, Alt.=148.240356m. Speed=0.000000m/h.</desc>
<speed>0.000000</speed>
</trkpt>
<trkpt lat="55.837051" lon="26.047266">
<ele>148.240356</ele>
<time>2010-07-17T15:52:09Z</time>
<desc>lat.=55.837051, lon.=26.047266, Alt.=148.240356m. Speed=0.036000m/h.</desc>
<speed>0.010000</speed>
</trkpt>
<trkpt lat="55.837051" lon="26.047266">
<ele>148.244263</ele>
<time>2010-07-17T15:52:10Z</time>
<desc>lat.=55.837051, lon.=26.047266, Alt.=148.244263m. Speed=0.036000m/h.</desc>
<speed>0.010000</speed>
</trkpt>
<trkpt lat="55.837051" lon="26.047266">
<ele>148.244263</ele>
<time>2010-07-17T15:52:11Z</time>
<desc>lat.=55.837051, lon.=26.047266, Alt.=148.244263m. Speed=0.072000m/h.</desc>
<speed>0.020000</speed>
</trkpt>
<trkpt lat="55.837055" lon="26.047266">
<ele>148.248169</ele>
<time>2010-07-17T15:52:12Z</time>
<desc>lat.=55.837055, lon.=26.047266, Alt.=148.248169m. Speed=0.036000m/h.</desc>
<speed>0.010000</speed>
</trkpt>
<trkpt lat="55.837055" lon="26.047266">
<ele>148.252075</ele>
<time>2010-07-17T15:52:13Z</time>
<desc>lat.=55.837055, lon.=26.047266, Alt.=148.252075m. Speed=0.000000m/h.</desc>
<speed>0.000000</speed>
</trkpt>
<trkpt lat="55.837055" lon="26.047266">
<ele>148.259888</ele>
<time>2010-07-17T15:52:14Z</time>
<desc>lat.=55.837055, lon.=26.047266, Alt.=148.259888m. Speed=0.144000m/h.</desc>
<speed>0.040000</speed>
</trkpt>
<trkpt lat="55.837055" lon="26.047266">
<ele>148.267700</ele>
<time>2010-07-17T15:52:15Z</time>
<desc>lat.=55.837055, lon.=26.047266, Alt.=148.267700m. Speed=0.144000m/h.</desc>
<speed>0.040000</speed>
</trkpt>
<trkpt lat="55.837055" lon="26.047266">
<ele>148.275513</ele>
<time>2010-07-17T15:52:16Z</time>
<desc>lat.=55.837055, lon.=26.047266, Alt.=148.275513m. Speed=0.072000m/h.</desc>
<speed>0.020000</speed>
</trkpt>
<trkpt lat="55.837055" lon="26.047266">
<ele>148.275513</ele>
<time>2010-07-17T15:52:17Z</time>
<desc>lat.=55.837055, lon.=26.047266, Alt.=148.275513m. Speed=0.036000m/h.</desc>
<speed>0.010000</speed>
</trkpt>
<trkpt lat="55.837055" lon="26.047266">
<ele>148.279419</ele>
<time>2010-07-17T15:52:18Z</time>
<desc>lat.=55.837055, lon.=26.047266, Alt.=148.279419m. Speed=0.036000m/h.</desc>
<speed>0.010000</speed>
</trkpt>
<trkpt lat="55.837055" lon="26.047266">
<ele>148.279419</ele>
<time>2010-07-17T15:52:19Z</time>
<desc>lat.=55.837055, lon.=26.047266, Alt.=148.279419m. Speed=0.036000m/h.</desc>
<speed>0.010000</speed>
</trkpt>
<trkpt lat="55.837055" lon="26.047266">
<ele>148.279419</ele>
<time>2010-07-17T15:52:20Z</time>
<desc>lat.=55.837055, lon.=26.047266, Alt.=148.279419m. Speed=0.000000m/h.</desc>
<speed>0.000000</speed>
</trkpt>
<trkpt lat="55.837055" lon="26.047266">
<ele>148.279419</ele>
<time>2010-07-17T15:52:21Z</time>
<desc>lat.=55.837055, lon.=26.047266, Alt.=148.279419m. Speed=0.000000m/h.</desc>
<speed>0.000000</speed>
</trkpt>
<trkpt lat="55.837055" lon="26.047266">
<ele>148.283325</ele>
<time>2010-07-17T15:52:22Z</time>
<desc>lat.=55.837055, lon.=26.047266, Alt.=148.283325m. Speed=0.000000m/h.</desc>
<speed>0.000000</speed>
</trkpt>
<trkpt lat="55.837055" lon="26.047266">
<ele>148.287231</ele>
<time>2010-07-17T15:52:23Z</time>
<desc>lat.=55.837055, lon.=26.047266, Alt.=148.287231m. Speed=0.000000m/h.</desc>
<speed>0.000000</speed>
</trkpt>
<trkpt lat="55.837055" lon="26.047266">
<ele>148.291138</ele>
<time>2010-07-17T15:52:24Z</time>
<desc>lat.=55.837055, lon.=26.047266, Alt.=148.291138m. Speed=0.000000m/h.</desc>
<speed>0.000000</speed>
</trkpt>
<trkpt lat="55.837055" lon="26.047266">
<ele>148.291138</ele>
<time>2010-07-17T15:52:25Z</time>
<desc>lat.=55.837055, lon.=26.047266, Alt.=148.291138m. Speed=0.000000m/h.</desc>
<speed>0.000000</speed>
</trkpt>
<trkpt lat="55.837055" lon="26.047266">
<ele>148.298950</ele>
<time>2010-07-17T15:52:26Z</time>
<desc>lat.=55.837055, lon.=26.047266, Alt.=148.298950m. Speed=0.036000m/h.</desc>
<speed>0.010000</speed>
</trkpt>
<trkpt lat="55.837055" lon="26.047268">
<ele>148.302856</ele>
<time>2010-07-17T15:52:27Z</time>
<desc>lat.=55.837055, lon.=26.047268, Alt.=148.302856m. Speed=0.000000m/h.</desc>
<speed>0.000000</speed>
</trkpt>
<trkpt lat="55.837055" lon="26.047268">
<ele>148.302856</ele>
<time>2010-07-17T15:52:28Z</time>
<desc>lat.=55.837055, lon.=26.047268, Alt.=148.302856m. Speed=0.000000m/h.</desc>
<speed>0.000000</speed>
</trkpt>
<trkpt lat="55.837055" lon="26.047268">
<ele>148.310669</ele>
<time>2010-07-17T15:52:29Z</time>
<desc>lat.=55.837055, lon.=26.047268, Alt.=148.310669m. Speed=0.036000m/h.</desc>
<speed>0.010000</speed>
</trkpt>
<trkpt lat="55.837055" lon="26.047268">
<ele>148.314575</ele>
<time>2010-07-17T15:52:30Z</time>
<desc>lat.=55.837055, lon.=26.047268, Alt.=148.314575m. Speed=0.000000m/h.</desc>
<speed>0.000000</speed>
</trkpt>
<trkpt lat="55.837055" lon="26.047268">
<ele>148.314575</ele>
<time>2010-07-17T15:52:31Z</time>
<desc>lat.=55.837055, lon.=26.047268, Alt.=148.314575m. Speed=0.036000m/h.</desc>
<speed>0.010000</speed>
</trkpt>
<trkpt lat="55.837055" lon="26.047268">
<ele>148.314575</ele>
<time>2010-07-17T15:52:32Z</time>
<desc>lat.=55.837055, lon.=26.047268, Alt.=148.314575m. Speed=0.036000m/h.</desc>
<speed>0.010000</speed>
</trkpt>
<trkpt lat="55.837055" lon="26.047268">
<ele>148.310669</ele>
<time>2010-07-17T15:52:33Z</time>
<desc>lat.=55.837055, lon.=26.047268, Alt.=148.310669m. Speed=0.144000m/h.</desc>
<speed>0.040000</speed>
</trkpt>
<trkpt lat="55.837055" lon="26.047268">
<ele>148.310669</ele>
<time>2010-07-17T15:52:34Z</time>
<desc>lat.=55.837055, lon.=26.047268, Alt.=148.310669m. Speed=0.072000m/h.</desc>
<speed>0.020000</speed>
</trkpt>
<trkpt lat="55.837055" lon="26.047268">
<ele>148.310669</ele>
<time>2010-07-17T15:52:35Z</time>
<desc>lat.=55.837055, lon.=26.047268, Alt.=148.310669m. Speed=0.000000m/h.</desc>
<speed>0.000000</speed>
</trkpt>
<trkpt lat="55.837055" lon="26.047268">
<ele>148.310669</ele>
<time>2010-07-17T15:52:36Z</time>
<desc>lat.=55.837055, lon.=26.047268, Alt.=148.310669m. Speed=0.000000m/h.</desc>
<speed>0.000000</speed>
</trkpt>
<trkpt lat="55.837055" lon="26.047268">
<ele>148.310669</ele>
<time>2010-07-17T15:52:37Z</time>
<desc>lat.=55.837055, lon.=26.047268, Alt.=148.310669m. Speed=0.036000m/h.</desc>
<speed>0.010000</speed>
</trkpt>
<trkpt lat="55.837055" lon="26.047268">
<ele>148.310669</ele>
<time>2010-07-17T15:52:38Z</time>
<desc>lat.=55.837055, lon.=26.047268, Alt.=148.310669m. Speed=0.072000m/h.</desc>
<speed>0.020000</speed>
</trkpt>
<trkpt lat="55.837055" lon="26.047268">
<ele>148.306763</ele>
<time>2010-07-17T15:52:39Z</time>
<desc>lat.=55.837055, lon.=26.047268, Alt.=148.306763m. Speed=0.072000m/h.</desc>
<speed>0.020000</speed>
</trkpt>
<trkpt lat="55.837055" lon="26.047268">
<ele>148.306763</ele>
<time>2010-07-17T15:52:40Z</time>
<desc>lat.=55.837055, lon.=26.047268, Alt.=148.306763m. Speed=0.000000m/h.</desc>
<speed>0.000000</speed>
</trkpt>
<trkpt lat="55.837051" lon="26.047268">
<ele>148.310669</ele>
<time>2010-07-17T15:52:41Z</time>
<desc>lat.=55.837051, lon.=26.047268, Alt.=148.310669m. Speed=0.036000m/h.</desc>
<speed>0.010000</speed>
</trkpt>
<trkpt lat="55.837051" lon="26.047268">
<ele>148.310669</ele>
<time>2010-07-17T15:52:42Z</time>
<desc>lat.=55.837051, lon.=26.047268, Alt.=148.310669m. Speed=0.072000m/h.</desc>
<speed>0.020000</speed>
</trkpt>
<trkpt lat="55.837051" lon="26.047268">
<ele>148.310669</ele>
<time>2010-07-17T15:52:43Z</time>
<desc>lat.=55.837051, lon.=26.047268, Alt.=148.310669m. Speed=0.036000m/h.</desc>
<speed>0.010000</speed>
</trkpt>
<trkpt lat="55.837051" lon="26.047268">
<ele>148.310669</ele>
<time>2010-07-17T15:52:44Z</time>
<desc>lat.=55.837051, lon.=26.047268, Alt.=148.310669m. Speed=0.036000m/h.</desc>
<speed>0.010000</speed>
</trkpt>
<trkpt lat="55.837051" lon="26.047268">
<ele>148.310669</ele>
<time>2010-07-17T15:52:45Z</time>
<desc>lat.=55.837051, lon.=26.047268, Alt.=148.310669m. Speed=0.036000m/h.</desc>
<speed>0.010000</speed>
</trkpt>
<trkpt lat="55.837051" lon="26.047268">
<ele>148.310669</ele>
<time>2010-07-17T15:52:46Z</time>
<desc>lat.=55.837051, lon.=26.047268, Alt.=148.310669m. Speed=0.072000m/h.</desc>
<speed>0.020000</speed>
</trkpt>
<trkpt lat="55.837051" lon="26.047268">
<ele>148.310669</ele>
<time>2010-07-17T15:52:47Z</time>
<desc>lat.=55.837051, lon.=26.047268, Alt.=148.310669m. Speed=0.036000m/h.</desc>
<speed>0.010000</speed>
</trkpt>
<trkpt lat="55.837051" lon="26.047268">
<ele>148.306763</ele>
<time>2010-07-17T15:52:48Z</time>
<desc>lat.=55.837051, lon.=26.047268, Alt.=148.306763m. Speed=0.036000m/h.</desc>
<speed>0.010000</speed>
</trkpt>
<trkpt lat="55.837051" lon="26.047268">
<ele>148.310669</ele>
<time>2010-07-17T15:52:49Z</time>
<desc>lat.=55.837051, lon.=26.047268, Alt.=148.310669m. Speed=0.000000m/h.</desc>
<speed>0.000000</speed>
</trkpt>
<trkpt lat="55.837051" lon="26.047268">
<ele>148.306763</ele>
<time>2010-07-17T15:52:50Z</time>
<desc>lat.=55.837051, lon.=26.047268, Alt.=148.306763m. Speed=0.036000m/h.</desc>
<speed>0.010000</speed>
</trkpt>
<trkpt lat="55.837051" lon="26.047268">
<ele>148.306763</ele>
<time>2010-07-17T15:52:51Z</time>
<desc>lat.=55.837051, lon.=26.047268, Alt.=148.306763m. Speed=0.000000m/h.</desc>
<speed>0.000000</speed>
</trkpt>
<trkpt lat="55.837051" lon="26.047268">
<ele>148.306763</ele>
<time>2010-07-17T15:52:52Z</time>
<desc>lat.=55.837051, lon.=26.047268, Alt.=148.306763m. Speed=0.000000m/h.</desc>
<speed>0.000000</speed>
</trkpt>
<trkpt lat="55.837051" lon="26.047268">
<ele>148.302856</ele>
<time>2010-07-17T15:52:53Z</time>
<desc>lat.=55.837051, lon.=26.047268, Alt.=148.302856m. Speed=0.000000m/h.</desc>
<speed>0.000000</speed>
</trkpt>
<trkpt lat="55.837051" lon="26.047268">
<ele>148.298950</ele>
<time>2010-07-17T15:52:54Z</time>
<desc>lat.=55.837051, lon.=26.047268, Alt.=148.298950m. Speed=0.036000m/h.</desc>
<speed>0.010000</speed>
</trkpt>
<trkpt lat="55.837051" lon="26.047268">
<ele>148.298950</ele>
<time>2010-07-17T15:52:55Z</time>
<desc>lat.=55.837051, lon.=26.047268, Alt.=148.298950m. Speed=0.036000m/h.</desc>
<speed>0.010000</speed>
</trkpt>
<trkpt lat="55.837051" lon="26.047268">
<ele>148.298950</ele>
<time>2010-07-17T15:52:56Z</time>
<desc>lat.=55.837051, lon.=26.047268, Alt.=148.298950m. Speed=0.000000m/h.</desc>
<speed>0.000000</speed>
</trkpt>
<trkpt lat="55.837051" lon="26.047268">
<ele>148.298950</ele>
<time>2010-07-17T15:52:57Z</time>
<desc>lat.=55.837051, lon.=26.047268, Alt.=148.298950m. Speed=0.000000m/h.</desc>
<speed>0.000000</speed>
</trkpt>
<trkpt lat="55.837051" lon="26.047268">
<ele>148.298950</ele>
<time>2010-07-17T15:52:58Z</time>
<desc>lat.=55.837051, lon.=26.047268, Alt.=148.298950m. Speed=0.036000m/h.</desc>
<speed>0.010000</speed>
</trkpt>
<trkpt lat="55.837051" lon="26.047268">
<ele>148.295044</ele>
<time>2010-07-17T15:52:59Z</time>
<desc>lat.=55.837051, lon.=26.047268, Alt.=148.295044m. Speed=0.000000m/h.</desc>
<speed>0.000000</speed>
</trkpt>
<trkpt lat="55.837051" lon="26.047268">
<ele>148.298950</ele>
<time>2010-07-17T15:53:00Z</time>
<desc>lat.=55.837051, lon.=26.047268, Alt.=148.298950m. Speed=0.144000m/h.</desc>
<speed>0.040000</speed>
</trkpt>
<trkpt lat="55.837051" lon="26.047268">
<ele>148.298950</ele>
<time>2010-07-17T15:53:01Z</time>
<desc>lat.=55.837051, lon.=26.047268, Alt.=148.298950m. Speed=0.036000m/h.</desc>
<speed>0.010000</speed>
</trkpt>
<trkpt lat="55.837051" lon="26.047268">
<ele>148.295044</ele>
<time>2010-07-17T15:53:02Z</time>
<desc>lat.=55.837051, lon.=26.047268, Alt.=148.295044m. Speed=0.000000m/h.</desc>
<speed>0.000000</speed>
</trkpt>
<trkpt lat="55.837051" lon="26.047268">
<ele>148.295044</ele>
<time>2010-07-17T15:53:03Z</time>
<desc>lat.=55.837051, lon.=26.047268, Alt.=148.295044m. Speed=0.036000m/h.</desc>
<speed>0.010000</speed>
</trkpt>
<trkpt lat="55.837051" lon="26.047268">
<ele>148.291138</ele>
<time>2010-07-17T15:53:04Z</time>
<desc>lat.=55.837051, lon.=26.047268, Alt.=148.291138m. Speed=0.000000m/h.</desc>
<speed>0.000000</speed>
</trkpt>
<trkpt lat="55.837051" lon="26.047268">
<ele>148.287231</ele>
<time>2010-07-17T15:53:05Z</time>
<desc>lat.=55.837051, lon.=26.047268, Alt.=148.287231m. Speed=0.036000m/h.</desc>
<speed>0.010000</speed>
</trkpt>
<trkpt lat="55.837051" lon="26.047268">
<ele>148.287231</ele>
<time>2010-07-17T15:53:06Z</time>
<desc>lat.=55.837051, lon.=26.047268, Alt.=148.287231m. Speed=0.036000m/h.</desc>
<speed>0.010000</speed>
</trkpt>
<trkpt lat="55.837051" lon="26.047268">
<ele>148.279419</ele>
<time>2010-07-17T15:53:07Z</time>
<desc>lat.=55.837051, lon.=26.047268, Alt.=148.279419m. Speed=0.036000m/h.</desc>
<speed>0.010000</speed>
</trkpt>
<trkpt lat="55.837051" lon="26.047268">
<ele>148.275513</ele>
<time>2010-07-17T15:53:08Z</time>
<desc>lat.=55.837051, lon.=26.047268, Alt.=148.275513m. Speed=0.000000m/h.</desc>
<speed>0.000000</speed>
</trkpt>
<trkpt lat="55.837051" lon="26.047268">
<ele>148.267700</ele>
<time>2010-07-17T15:53:09Z</time>
<desc>lat.=55.837051, lon.=26.047268, Alt.=148.267700m. Speed=0.000000m/h.</desc>
<speed>0.000000</speed>
</trkpt>
<trkpt lat="55.837051" lon="26.047268">
<ele>148.271606</ele>
<time>2010-07-17T15:53:10Z</time>
<desc>lat.=55.837051, lon.=26.047268, Alt.=148.271606m. Speed=0.000000m/h.</desc>
<speed>0.000000</speed>
</trkpt>
<trkpt lat="55.837051" lon="26.047268">
<ele>148.271606</ele>
<time>2010-07-17T15:53:11Z</time>
<desc>lat.=55.837051, lon.=26.047268, Alt.=148.271606m. Speed=0.036000m/h.</desc>
<speed>0.010000</speed>
</trkpt>
<trkpt lat="55.837051" lon="26.047268">
<ele>148.271606</ele>
<time>2010-07-17T15:53:12Z</time>
<desc>lat.=55.837051, lon.=26.047268, Alt.=148.271606m. Speed=0.036000m/h.</desc>
<speed>0.010000</speed>
</trkpt>
<trkpt lat="55.837051" lon="26.047268">
<ele>148.275513</ele>
<time>2010-07-17T15:53:13Z</time>
<desc>lat.=55.837051, lon.=26.047268, Alt.=148.275513m. Speed=0.000000m/h.</desc>
<speed>0.000000</speed>
</trkpt>
<trkpt lat="55.837051" lon="26.047268">
<ele>148.279419</ele>
<time>2010-07-17T15:53:14Z</time>
<desc>lat.=55.837051, lon.=26.047268, Alt.=148.279419m. Speed=0.000000m/h.</desc>
<speed>0.000000</speed>
</trkpt>
<trkpt lat="55.837051" lon="26.047268">
<ele>148.279419</ele>
<time>2010-07-17T15:53:15Z</time>
<desc>lat.=55.837051, lon.=26.047268, Alt.=148.279419m. Speed=0.036000m/h.</desc>
<speed>0.010000</speed>
</trkpt>
<trkpt lat="55.837051" lon="26.047268">
<ele>148.279419</ele>
<time>2010-07-17T15:53:16Z</time>
<desc>lat.=55.837051, lon.=26.047268, Alt.=148.279419m. Speed=0.000000m/h.</desc>
<speed>0.000000</speed>
</trkpt>
<trkpt lat="55.837051" lon="26.047268">
<ele>148.279419</ele>
<time>2010-07-17T15:53:17Z</time>
<desc>lat.=55.837051, lon.=26.047268, Alt.=148.279419m. Speed=0.000000m/h.</desc>
<speed>0.000000</speed>
</trkpt>
<trkpt lat="55.837051" lon="26.047268">
<ele>148.279419</ele>
<time>2010-07-17T15:53:18Z</time>
<desc>lat.=55.837051, lon.=26.047268, Alt.=148.279419m. Speed=0.000000m/h.</desc>
<speed>0.000000</speed>
</trkpt>
<trkpt lat="55.837051" lon="26.047268">
<ele>148.283325</ele>
<time>2010-07-17T15:53:19Z</time>
<desc>lat.=55.837051, lon.=26.047268, Alt.=148.283325m. Speed=0.000000m/h.</desc>
<speed>0.000000</speed>
</trkpt>
<trkpt lat="55.837051" lon="26.047268">
<ele>148.283325</ele>
<time>2010-07-17T15:53:20Z</time>
<desc>lat.=55.837051, lon.=26.047268, Alt.=148.283325m. Speed=0.000000m/h.</desc>
<speed>0.000000</speed>
</trkpt>
<trkpt lat="55.837051" lon="26.047268">
<ele>148.279419</ele>
<time>2010-07-17T15:53:21Z</time>
<desc>lat.=55.837051, lon.=26.047268, Alt.=148.279419m. Speed=0.000000m/h.</desc>
<speed>0.000000</speed>
</trkpt>
<trkpt lat="55.837051" lon="26.047268">
<ele>148.279419</ele>
<time>2010-07-17T15:53:22Z</time>
<desc>lat.=55.837051, lon.=26.047268, Alt.=148.279419m. Speed=0.072000m/h.</desc>
<speed>0.020000</speed>
</trkpt>
<trkpt lat="55.837051" lon="26.047266">
<ele>148.279419</ele>
<time>2010-07-17T15:53:23Z</time>
<desc>lat.=55.837051, lon.=26.047266, Alt.=148.279419m. Speed=0.072000m/h.</desc>
<speed>0.020000</speed>
</trkpt>
<trkpt lat="55.837051" lon="26.047266">
<ele>148.283325</ele>
<time>2010-07-17T15:53:24Z</time>
<desc>lat.=55.837051, lon.=26.047266, Alt.=148.283325m. Speed=0.036000m/h.</desc>
<speed>0.010000</speed>
</trkpt>
<trkpt lat="55.837051" lon="26.047266">
<ele>148.283325</ele>
<time>2010-07-17T15:53:25Z</time>
<desc>lat.=55.837051, lon.=26.047266, Alt.=148.283325m. Speed=0.036000m/h.</desc>
<speed>0.010000</speed>
</trkpt>
<trkpt lat="55.837051" lon="26.047266">
<ele>148.279419</ele>
<time>2010-07-17T15:53:26Z</time>
<desc>lat.=55.837051, lon.=26.047266, Alt.=148.279419m. Speed=0.000000m/h.</desc>
<speed>0.000000</speed>
</trkpt>
<trkpt lat="55.837051" lon="26.047266">
<ele>148.279419</ele>
<time>2010-07-17T15:53:27Z</time>
<desc>lat.=55.837051, lon.=26.047266, Alt.=148.279419m. Speed=0.072000m/h.</desc>
<speed>0.020000</speed>
</trkpt>
<trkpt lat="55.837051" lon="26.047266">
<ele>148.279419</ele>
<time>2010-07-17T15:53:28Z</time>
<desc>lat.=55.837051, lon.=26.047266, Alt.=148.279419m. Speed=0.000000m/h.</desc>
<speed>0.000000</speed>
</trkpt>
<trkpt lat="55.837051" lon="26.047266">
<ele>148.279419</ele>
<time>2010-07-17T15:53:29Z</time>
<desc>lat.=55.837051, lon.=26.047266, Alt.=148.279419m. Speed=0.036000m/h.</desc>
<speed>0.010000</speed>
</trkpt>
<trkpt lat="55.837051" lon="26.047266">
<ele>148.279419</ele>
<time>2010-07-17T15:53:30Z</time>
<desc>lat.=55.837051, lon.=26.047266, Alt.=148.279419m. Speed=0.036000m/h.</desc>
<speed>0.010000</speed>
</trkpt>
<trkpt lat="55.837051" lon="26.047266">
<ele>148.283325</ele>
<time>2010-07-17T15:53:31Z</time>
<desc>lat.=55.837051, lon.=26.047266, Alt.=148.283325m. Speed=0.036000m/h.</desc>
<speed>0.010000</speed>
</trkpt>
<trkpt lat="55.837051" lon="26.047268">
<ele>148.287231</ele>
<time>2010-07-17T15:53:32Z</time>
<desc>lat.=55.837051, lon.=26.047268, Alt.=148.287231m. Speed=0.000000m/h.</desc>
<speed>0.000000</speed>
</trkpt>
<trkpt lat="55.837051" lon="26.047268">
<ele>148.291138</ele>
<time>2010-07-17T15:53:33Z</time>
<desc>lat.=55.837051, lon.=26.047268, Alt.=148.291138m. Speed=0.036000m/h.</desc>
<speed>0.010000</speed>
</trkpt>
<trkpt lat="55.837051" lon="26.047268">
<ele>148.291138</ele>
<time>2010-07-17T15:53:34Z</time>
<desc>lat.=55.837051, lon.=26.047268, Alt.=148.291138m. Speed=0.000000m/h.</desc>
<speed>0.000000</speed>
</trkpt>
<trkpt lat="55.837051" lon="26.047268">
<ele>148.295044</ele>
<time>2010-07-17T15:53:35Z</time>
<desc>lat.=55.837051, lon.=26.047268, Alt.=148.295044m. Speed=0.036000m/h.</desc>
<speed>0.010000</speed>
</trkpt>
<trkpt lat="55.837051" lon="26.047268">
<ele>148.295044</ele>
<time>2010-07-17T15:53:36Z</time>
<desc>lat.=55.837051, lon.=26.047268, Alt.=148.295044m. Speed=0.000000m/h.</desc>
<speed>0.000000</speed>
</trkpt>
<trkpt lat="55.837051" lon="26.047268">
<ele>148.295044</ele>
<time>2010-07-17T15:53:37Z</time>
<desc>lat.=55.837051, lon.=26.047268, Alt.=148.295044m. Speed=0.000000m/h.</desc>
<speed>0.000000</speed>
</trkpt>
<trkpt lat="55.837051" lon="26.047268">
<ele>148.295044</ele>
<time>2010-07-17T15:53:38Z</time>
<desc>lat.=55.837051, lon.=26.047268, Alt.=148.295044m. Speed=0.072000m/h.</desc>
<speed>0.020000</speed>
</trkpt>
<trkpt lat="55.837051" lon="26.047268">
<ele>148.298950</ele>
<time>2010-07-17T15:53:39Z</time>
<desc>lat.=55.837051, lon.=26.047268, Alt.=148.298950m. Speed=0.036000m/h.</desc>
<speed>0.010000</speed>
</trkpt>
<trkpt lat="55.837051" lon="26.047268">
<ele>148.302856</ele>
<time>2010-07-17T15:53:40Z</time>
<desc>lat.=55.837051, lon.=26.047268, Alt.=148.302856m. Speed=0.036000m/h.</desc>
<speed>0.010000</speed>
</trkpt>
<trkpt lat="55.837051" lon="26.047268">
<ele>148.306763</ele>
<time>2010-07-17T15:53:41Z</time>
<desc>lat.=55.837051, lon.=26.047268, Alt.=148.306763m. Speed=0.000000m/h.</desc>
<speed>0.000000</speed>
</trkpt>
<trkpt lat="55.837051" lon="26.047268">
<ele>148.310669</ele>
<time>2010-07-17T15:53:42Z</time>
<desc>lat.=55.837051, lon.=26.047268, Alt.=148.310669m. Speed=0.000000m/h.</desc>
<speed>0.000000</speed>
</trkpt>
<trkpt lat="55.837051" lon="26.047268">
<ele>148.314575</ele>
<time>2010-07-17T15:53:43Z</time>
<desc>lat.=55.837051, lon.=26.047268, Alt.=148.314575m. Speed=0.036000m/h.</desc>
<speed>0.010000</speed>
</trkpt>
<trkpt lat="55.837051" lon="26.047268">
<ele>148.318481</ele>
<time>2010-07-17T15:53:44Z</time>
<desc>lat.=55.837051, lon.=26.047268, Alt.=148.318481m. Speed=0.036000m/h.</desc>
<speed>0.010000</speed>
</trkpt>
<trkpt lat="55.837051" lon="26.047268">
<ele>148.318481</ele>
<time>2010-07-17T15:53:45Z</time>
<desc>lat.=55.837051, lon.=26.047268, Alt.=148.318481m. Speed=0.000000m/h.</desc>
<speed>0.000000</speed>
</trkpt>
<trkpt lat="55.837051" lon="26.047268">
<ele>148.322388</ele>
<time>2010-07-17T15:53:46Z</time>
<desc>lat.=55.837051, lon.=26.047268, Alt.=148.322388m. Speed=0.036000m/h.</desc>
<speed>0.010000</speed>
</trkpt>
<trkpt lat="55.837051" lon="26.047268">
<ele>148.326294</ele>
<time>2010-07-17T15:53:47Z</time>
<desc>lat.=55.837051, lon.=26.047268, Alt.=148.326294m. Speed=0.036000m/h.</desc>
<speed>0.010000</speed>
</trkpt>
<trkpt lat="55.837051" lon="26.047268">
<ele>148.330200</ele>
<time>2010-07-17T15:53:48Z</time>
<desc>lat.=55.837051, lon.=26.047268, Alt.=148.330200m. Speed=0.036000m/h.</desc>
<speed>0.010000</speed>
</trkpt>
<trkpt lat="55.837051" lon="26.047268">
<ele>148.330200</ele>
<time>2010-07-17T15:53:49Z</time>
<desc>lat.=55.837051, lon.=26.047268, Alt.=148.330200m. Speed=0.036000m/h.</desc>
<speed>0.010000</speed>
</trkpt>
<trkpt lat="55.837051" lon="26.047268">
<ele>148.334106</ele>
<time>2010-07-17T15:53:50Z</time>
<desc>lat.=55.837051, lon.=26.047268, Alt.=148.334106m. Speed=0.072000m/h.</desc>
<speed>0.020000</speed>
</trkpt>
<trkpt lat="55.837051" lon="26.047268">
<ele>148.334106</ele>
<time>2010-07-17T15:53:51Z</time>
<desc>lat.=55.837051, lon.=26.047268, Alt.=148.334106m. Speed=0.036000m/h.</desc>
<speed>0.010000</speed>
</trkpt>
<trkpt lat="55.837051" lon="26.047268">
<ele>148.334106</ele>
<time>2010-07-17T15:53:52Z</time>
<desc>lat.=55.837051, lon.=26.047268, Alt.=148.334106m. Speed=0.036000m/h.</desc>
<speed>0.010000</speed>
</trkpt>
<trkpt lat="55.837051" lon="26.047268">
<ele>148.338013</ele>
<time>2010-07-17T15:53:53Z</time>
<desc>lat.=55.837051, lon.=26.047268, Alt.=148.338013m. Speed=0.036000m/h.</desc>
<speed>0.010000</speed>
</trkpt>
<trkpt lat="55.837051" lon="26.047268">
<ele>148.341919</ele>
<time>2010-07-17T15:53:54Z</time>
<desc>lat.=55.837051, lon.=26.047268, Alt.=148.341919m. Speed=0.000000m/h.</desc>
<speed>0.000000</speed>
</trkpt>
<trkpt lat="55.837051" lon="26.047268">
<ele>148.345825</ele>
<time>2010-07-17T15:53:55Z</time>
<desc>lat.=55.837051, lon.=26.047268, Alt.=148.345825m. Speed=0.000000m/h.</desc>
<speed>0.000000</speed>
</trkpt>
<trkpt lat="55.837051" lon="26.047268">
<ele>148.345825</ele>
<time>2010-07-17T15:53:56Z</time>
<desc>lat.=55.837051, lon.=26.047268, Alt.=148.345825m. Speed=0.000000m/h.</desc>
<speed>0.000000</speed>
</trkpt>
<trkpt lat="55.837051" lon="26.047268">
<ele>148.349731</ele>
<time>2010-07-17T15:53:57Z</time>
<desc>lat.=55.837051, lon.=26.047268, Alt.=148.349731m. Speed=0.072000m/h.</desc>
<speed>0.020000</speed>
</trkpt>
<trkpt lat="55.837051" lon="26.047268">
<ele>148.353638</ele>
<time>2010-07-17T15:53:58Z</time>
<desc>lat.=55.837051, lon.=26.047268, Alt.=148.353638m. Speed=0.000000m/h.</desc>
<speed>0.000000</speed>
</trkpt>
<trkpt lat="55.837051" lon="26.047268">
<ele>148.357544</ele>
<time>2010-07-17T15:53:59Z</time>
<desc>lat.=55.837051, lon.=26.047268, Alt.=148.357544m. Speed=0.108000m/h.</desc>
<speed>0.030000</speed>
</trkpt>
<trkpt lat="55.837051" lon="26.047268">
<ele>148.357544</ele>
<time>2010-07-17T15:54:00Z</time>
<desc>lat.=55.837051, lon.=26.047268, Alt.=148.357544m. Speed=0.036000m/h.</desc>
<speed>0.010000</speed>
</trkpt>
<trkpt lat="55.837051" lon="26.047268">
<ele>148.357544</ele>
<time>2010-07-17T15:54:01Z</time>
<desc>lat.=55.837051, lon.=26.047268, Alt.=148.357544m. Speed=0.108000m/h.</desc>
<speed>0.030000</speed>
</trkpt>
<trkpt lat="55.837051" lon="26.047268">
<ele>148.361450</ele>
<time>2010-07-17T15:54:02Z</time>
<desc>lat.=55.837051, lon.=26.047268, Alt.=148.361450m. Speed=0.000000m/h.</desc>
<speed>0.000000</speed>
</trkpt>
<trkpt lat="55.837051" lon="26.047268">
<ele>148.361450</ele>
<time>2010-07-17T15:54:03Z</time>
<desc>lat.=55.837051, lon.=26.047268, Alt.=148.361450m. Speed=0.000000m/h.</desc>
<speed>0.000000</speed>
</trkpt>
<trkpt lat="55.837051" lon="26.047268">
<ele>148.361450</ele>
<time>2010-07-17T15:54:04Z</time>
<desc>lat.=55.837051, lon.=26.047268, Alt.=148.361450m. Speed=0.000000m/h.</desc>
<speed>0.000000</speed>
</trkpt>
<trkpt lat="55.837051" lon="26.047268">
<ele>148.361450</ele>
<time>2010-07-17T15:54:05Z</time>
<desc>lat.=55.837051, lon.=26.047268, Alt.=148.361450m. Speed=0.036000m/h.</desc>
<speed>0.010000</speed>
</trkpt>
<trkpt lat="55.837051" lon="26.047268">
<ele>148.357544</ele>
<time>2010-07-17T15:54:06Z</time>
<desc>lat.=55.837051, lon.=26.047268, Alt.=148.357544m. Speed=0.000000m/h.</desc>
<speed>0.000000</speed>
</trkpt>
<trkpt lat="55.837051" lon="26.047268">
<ele>148.357544</ele>
<time>2010-07-17T15:54:07Z</time>
<desc>lat.=55.837051, lon.=26.047268, Alt.=148.357544m. Speed=0.000000m/h.</desc>
<speed>0.000000</speed>
</trkpt>
<trkpt lat="55.837051" lon="26.047268">
<ele>148.357544</ele>
<time>2010-07-17T15:54:08Z</time>
<desc>lat.=55.837051, lon.=26.047268, Alt.=148.357544m. Speed=0.000000m/h.</desc>
<speed>0.000000</speed>
</trkpt>
<trkpt lat="55.837051" lon="26.047268">
<ele>148.357544</ele>
<time>2010-07-17T15:54:09Z</time>
<desc>lat.=55.837051, lon.=26.047268, Alt.=148.357544m. Speed=0.000000m/h.</desc>
<speed>0.000000</speed>
</trkpt>
<trkpt lat="55.837051" lon="26.047268">
<ele>148.357544</ele>
<time>2010-07-17T15:54:10Z</time>
<desc>lat.=55.837051, lon.=26.047268, Alt.=148.357544m. Speed=0.000000m/h.</desc>
<speed>0.000000</speed>
</trkpt>
<trkpt lat="55.837051" lon="26.047268">
<ele>148.357544</ele>
<time>2010-07-17T15:54:11Z</time>
<desc>lat.=55.837051, lon.=26.047268, Alt.=148.357544m. Speed=0.036000m/h.</desc>
<speed>0.010000</speed>
</trkpt>
<trkpt lat="55.837051" lon="26.047268">
<ele>148.353638</ele>
<time>2010-07-17T15:54:12Z</time>
<desc>lat.=55.837051, lon.=26.047268, Alt.=148.353638m. Speed=0.072000m/h.</desc>
<speed>0.020000</speed>
</trkpt>
<trkpt lat="55.837051" lon="26.047268">
<ele>148.349731</ele>
<time>2010-07-17T15:54:13Z</time>
<desc>lat.=55.837051, lon.=26.047268, Alt.=148.349731m. Speed=0.108000m/h.</desc>
<speed>0.030000</speed>
</trkpt>
<trkpt lat="55.837051" lon="26.047268">
<ele>148.349731</ele>
<time>2010-07-17T15:54:14Z</time>
<desc>lat.=55.837051, lon.=26.047268, Alt.=148.349731m. Speed=0.144000m/h.</desc>
<speed>0.040000</speed>
</trkpt>
<trkpt lat="55.837051" lon="26.047268">
<ele>148.349731</ele>
<time>2010-07-17T15:54:15Z</time>
<desc>lat.=55.837051, lon.=26.047268, Alt.=148.349731m. Speed=0.072000m/h.</desc>
<speed>0.020000</speed>
</trkpt>
<trkpt lat="55.837051" lon="26.047268">
<ele>148.353638</ele>
<time>2010-07-17T15:54:16Z</time>
<desc>lat.=55.837051, lon.=26.047268, Alt.=148.353638m. Speed=0.000000m/h.</desc>
<speed>0.000000</speed>
</trkpt>
<trkpt lat="55.837051" lon="26.047268">
<ele>148.349731</ele>
<time>2010-07-17T15:54:17Z</time>
<desc>lat.=55.837051, lon.=26.047268, Alt.=148.349731m. Speed=0.000000m/h.</desc>
<speed>0.000000</speed>
</trkpt>
<trkpt lat="55.837051" lon="26.047268">
<ele>148.353638</ele>
<time>2010-07-17T15:54:18Z</time>
<desc>lat.=55.837051, lon.=26.047268, Alt.=148.353638m. Speed=0.000000m/h.</desc>
<speed>0.000000</speed>
</trkpt>
<trkpt lat="55.837051" lon="26.047270">
<ele>148.357544</ele>
<time>2010-07-17T15:54:19Z</time>
<desc>lat.=55.837051, lon.=26.047270, Alt.=148.357544m. Speed=0.036000m/h.</desc>
<speed>0.010000</speed>
</trkpt>
<trkpt lat="55.837051" lon="26.047270">
<ele>148.361450</ele>
<time>2010-07-17T15:54:20Z</time>
<desc>lat.=55.837051, lon.=26.047270, Alt.=148.361450m. Speed=0.036000m/h.</desc>
<speed>0.010000</speed>
</trkpt>
<trkpt lat="55.837051" lon="26.047270">
<ele>148.369263</ele>
<time>2010-07-17T15:54:21Z</time>
<desc>lat.=55.837051, lon.=26.047270, Alt.=148.369263m. Speed=0.036000m/h.</desc>
<speed>0.010000</speed>
</trkpt>
<trkpt lat="55.837051" lon="26.047270">
<ele>148.373169</ele>
<time>2010-07-17T15:54:22Z</time>
<desc>lat.=55.837051, lon.=26.047270, Alt.=148.373169m. Speed=0.072000m/h.</desc>
<speed>0.020000</speed>
</trkpt>
<trkpt lat="55.837051" lon="26.047270">
<ele>148.384888</ele>
<time>2010-07-17T15:54:23Z</time>
<desc>lat.=55.837051, lon.=26.047270, Alt.=148.384888m. Speed=0.108000m/h.</desc>
<speed>0.030000</speed>
</trkpt>
<trkpt lat="55.837051" lon="26.047270">
<ele>148.396606</ele>
<time>2010-07-17T15:54:24Z</time>
<desc>lat.=55.837051, lon.=26.047270, Alt.=148.396606m. Speed=0.144000m/h.</desc>
<speed>0.040000</speed>
</trkpt>
<trkpt lat="55.837051" lon="26.047272">
<ele>148.408325</ele>
<time>2010-07-17T15:54:25Z</time>
<desc>lat.=55.837051, lon.=26.047272, Alt.=148.408325m. Speed=0.180000m/h.</desc>
<speed>0.050000</speed>
</trkpt>
<trkpt lat="55.837051" lon="26.047272">
<ele>148.420044</ele>
<time>2010-07-17T15:54:26Z</time>
<desc>lat.=55.837051, lon.=26.047272, Alt.=148.420044m. Speed=0.180000m/h.</desc>
<speed>0.050000</speed>
</trkpt>
<trkpt lat="55.837051" lon="26.047274">
<ele>148.439575</ele>
<time>2010-07-17T15:54:27Z</time>
<desc>lat.=55.837051, lon.=26.047274, Alt.=148.439575m. Speed=0.252000m/h.</desc>
<speed>0.070000</speed>
</trkpt>
<trkpt lat="55.837051" lon="26.047274">
<ele>148.455200</ele>
<time>2010-07-17T15:54:28Z</time>
<desc>lat.=55.837051, lon.=26.047274, Alt.=148.455200m. Speed=0.324000m/h.</desc>
<speed>0.090000</speed>
</trkpt>
<trkpt lat="55.837051" lon="26.047276">
<ele>148.474731</ele>
<time>2010-07-17T15:54:29Z</time>
<desc>lat.=55.837051, lon.=26.047276, Alt.=148.474731m. Speed=0.432000m/h.</desc>
<speed>0.120000</speed>
</trkpt>
<trkpt lat="55.837048" lon="26.047277">
<ele>148.494263</ele>
<time>2010-07-17T15:54:30Z</time>
<desc>lat.=55.837048, lon.=26.047277, Alt.=148.494263m. Speed=0.396000m/h.</desc>
<speed>0.110000</speed>
</trkpt>
<trkpt lat="55.837048" lon="26.047277">
<ele>148.517700</ele>
<time>2010-07-17T15:54:31Z</time>
<desc>lat.=55.837048, lon.=26.047277, Alt.=148.517700m. Speed=0.288000m/h.</desc>
<speed>0.080000</speed>
</trkpt>
<trkpt lat="55.837048" lon="26.047279">
<ele>148.545044</ele>
<time>2010-07-17T15:54:32Z</time>
<desc>lat.=55.837048, lon.=26.047279, Alt.=148.545044m. Speed=0.252000m/h.</desc>
<speed>0.070000</speed>
</trkpt>
<trkpt lat="55.837048" lon="26.047279">
<ele>148.568481</ele>
<time>2010-07-17T15:54:33Z</time>
<desc>lat.=55.837048, lon.=26.047279, Alt.=148.568481m. Speed=0.180000m/h.</desc>
<speed>0.050000</speed>
</trkpt>
<trkpt lat="55.837048" lon="26.047281">
<ele>148.595825</ele>
<time>2010-07-17T15:54:34Z</time>
<desc>lat.=55.837048, lon.=26.047281, Alt.=148.595825m. Speed=0.216000m/h.</desc>
<speed>0.060000</speed>
</trkpt>
<trkpt lat="55.837048" lon="26.047281">
<ele>148.623169</ele>
<time>2010-07-17T15:54:35Z</time>
<desc>lat.=55.837048, lon.=26.047281, Alt.=148.623169m. Speed=0.288000m/h.</desc>
<speed>0.080000</speed>
</trkpt>
<trkpt lat="55.837048" lon="26.047283">
<ele>148.654419</ele>
<time>2010-07-17T15:54:36Z</time>
<desc>lat.=55.837048, lon.=26.047283, Alt.=148.654419m. Speed=0.180000m/h.</desc>
<speed>0.050000</speed>
</trkpt>
<trkpt lat="55.837044" lon="26.047283">
<ele>148.681763</ele>
<time>2010-07-17T15:54:37Z</time>
<desc>lat.=55.837044, lon.=26.047283, Alt.=148.681763m. Speed=0.252000m/h.</desc>
<speed>0.070000</speed>
</trkpt>
<trkpt lat="55.837044" lon="26.047285">
<ele>148.713013</ele>
<time>2010-07-17T15:54:38Z</time>
<desc>lat.=55.837044, lon.=26.047285, Alt.=148.713013m. Speed=0.252000m/h.</desc>
<speed>0.070000</speed>
</trkpt>
<trkpt lat="55.837044" lon="26.047285">
<ele>148.744263</ele>
<time>2010-07-17T15:54:39Z</time>
<desc>lat.=55.837044, lon.=26.047285, Alt.=148.744263m. Speed=0.252000m/h.</desc>
<speed>0.070000</speed>
</trkpt>
<trkpt lat="55.837044" lon="26.047287">
<ele>148.779419</ele>
<time>2010-07-17T15:54:40Z</time>
<desc>lat.=55.837044, lon.=26.047287, Alt.=148.779419m. Speed=0.216000m/h.</desc>
<speed>0.060000</speed>
</trkpt>
<trkpt lat="55.837044" lon="26.047287">
<ele>148.814575</ele>
<time>2010-07-17T15:54:41Z</time>
<desc>lat.=55.837044, lon.=26.047287, Alt.=148.814575m. Speed=0.252000m/h.</desc>
<speed>0.070000</speed>
</trkpt>
<trkpt lat="55.837044" lon="26.047289">
<ele>148.845825</ele>
<time>2010-07-17T15:54:42Z</time>
<desc>lat.=55.837044, lon.=26.047289, Alt.=148.845825m. Speed=0.108000m/h.</desc>
<speed>0.030000</speed>
</trkpt>
<trkpt lat="55.837044" lon="26.047289">
<ele>148.880981</ele>
<time>2010-07-17T15:54:43Z</time>
<desc>lat.=55.837044, lon.=26.047289, Alt.=148.880981m. Speed=0.216000m/h.</desc>
<speed>0.060000</speed>
</trkpt>
<trkpt lat="55.837044" lon="26.047289">
<ele>148.916138</ele>
<time>2010-07-17T15:54:44Z</time>
<desc>lat.=55.837044, lon.=26.047289, Alt.=148.916138m. Speed=0.216000m/h.</desc>
<speed>0.060000</speed>
</trkpt>
<trkpt lat="55.837044" lon="26.047291">
<ele>148.947388</ele>
<time>2010-07-17T15:54:45Z</time>
<desc>lat.=55.837044, lon.=26.047291, Alt.=148.947388m. Speed=0.216000m/h.</desc>
<speed>0.060000</speed>
</trkpt>
<trkpt lat="55.837044" lon="26.047291">
<ele>148.974731</ele>
<time>2010-07-17T15:54:46Z</time>
<desc>lat.=55.837044, lon.=26.047291, Alt.=148.974731m. Speed=0.216000m/h.</desc>
<speed>0.060000</speed>
</trkpt>
<trkpt lat="55.837044" lon="26.047293">
<ele>149.002075</ele>
<time>2010-07-17T15:54:47Z</time>
<desc>lat.=55.837044, lon.=26.047293, Alt.=149.002075m. Speed=0.108000m/h.</desc>
<speed>0.030000</speed>
</trkpt>
<trkpt lat="55.837040" lon="26.047293">
<ele>149.021606</ele>
<time>2010-07-17T15:54:48Z</time>
<desc>lat.=55.837040, lon.=26.047293, Alt.=149.021606m. Speed=0.144000m/h.</desc>
<speed>0.040000</speed>
</trkpt>
<trkpt lat="55.837040" lon="26.047293">
<ele>149.045044</ele>
<time>2010-07-17T15:54:49Z</time>
<desc>lat.=55.837040, lon.=26.047293, Alt.=149.045044m. Speed=0.108000m/h.</desc>
<speed>0.030000</speed>
</trkpt>
<trkpt lat="55.837040" lon="26.047293">
<ele>149.068481</ele>
<time>2010-07-17T15:54:50Z</time>
<desc>lat.=55.837040, lon.=26.047293, Alt.=149.068481m. Speed=0.144000m/h.</desc>
<speed>0.040000</speed>
</trkpt>
<trkpt lat="55.837040" lon="26.047295">
<ele>149.091919</ele>
<time>2010-07-17T15:54:51Z</time>
<desc>lat.=55.837040, lon.=26.047295, Alt.=149.091919m. Speed=0.144000m/h.</desc>
<speed>0.040000</speed>
</trkpt>
<trkpt lat="55.837040" lon="26.047295">
<ele>149.091919</ele>
<time>2010-07-17T15:54:52Z</time>
<desc>lat.=55.837040, lon.=26.047295, Alt.=149.091919m. Speed=0.072000m/h.</desc>
<speed>0.020000</speed>
</trkpt>
<trkpt lat="55.837040" lon="26.047295">
<ele>149.091919</ele>
<time>2010-07-17T15:54:53Z</time>
<desc>lat.=55.837040, lon.=26.047295, Alt.=149.091919m. Speed=0.036000m/h.</desc>
<speed>0.010000</speed>
</trkpt>
<trkpt lat="55.837040" lon="26.047295">
<ele>149.095825</ele>
<time>2010-07-17T15:54:54Z</time>
<desc>lat.=55.837040, lon.=26.047295, Alt.=149.095825m. Speed=0.036000m/h.</desc>
<speed>0.010000</speed>
</trkpt>
<trkpt lat="55.837040" lon="26.047295">
<ele>149.095825</ele>
<time>2010-07-17T15:54:55Z</time>
<desc>lat.=55.837040, lon.=26.047295, Alt.=149.095825m. Speed=0.036000m/h.</desc>
<speed>0.010000</speed>
</trkpt>
<trkpt lat="55.837040" lon="26.047295">
<ele>149.095825</ele>
<time>2010-07-17T15:54:56Z</time>
<desc>lat.=55.837040, lon.=26.047295, Alt.=149.095825m. Speed=0.036000m/h.</desc>
<speed>0.010000</speed>
</trkpt>
<trkpt lat="55.837040" lon="26.047295">
<ele>149.091919</ele>
<time>2010-07-17T15:54:57Z</time>
<desc>lat.=55.837040, lon.=26.047295, Alt.=149.091919m. Speed=0.000000m/h.</desc>
<speed>0.000000</speed>
</trkpt>
<trkpt lat="55.837040" lon="26.047295">
<ele>149.095825</ele>
<time>2010-07-17T15:54:58Z</time>
<desc>lat.=55.837040, lon.=26.047295, Alt.=149.095825m. Speed=0.000000m/h.</desc>
<speed>0.000000</speed>
</trkpt>
<trkpt lat="55.837040" lon="26.047295">
<ele>149.095825</ele>
<time>2010-07-17T15:54:59Z</time>
<desc>lat.=55.837040, lon.=26.047295, Alt.=149.095825m. Speed=0.000000m/h.</desc>
<speed>0.000000</speed>
</trkpt>
<trkpt lat="55.837040" lon="26.047295">
<ele>149.099731</ele>
<time>2010-07-17T15:55:00Z</time>
<desc>lat.=55.837040, lon.=26.047295, Alt.=149.099731m. Speed=0.000000m/h.</desc>
<speed>0.000000</speed>
</trkpt>
<trkpt lat="55.837040" lon="26.047295">
<ele>149.099731</ele>
<time>2010-07-17T15:55:01Z</time>
<desc>lat.=55.837040, lon.=26.047295, Alt.=149.099731m. Speed=0.000000m/h.</desc>
<speed>0.000000</speed>
</trkpt>
<trkpt lat="55.837040" lon="26.047295">
<ele>149.103638</ele>
<time>2010-07-17T15:55:02Z</time>
<desc>lat.=55.837040, lon.=26.047295, Alt.=149.103638m. Speed=0.000000m/h.</desc>
<speed>0.000000</speed>
</trkpt>
<trkpt lat="55.837040" lon="26.047295">
<ele>149.111450</ele>
<time>2010-07-17T15:55:03Z</time>
<desc>lat.=55.837040, lon.=26.047295, Alt.=149.111450m. Speed=0.036000m/h.</desc>
<speed>0.010000</speed>
</trkpt>
<trkpt lat="55.837040" lon="26.047295">
<ele>149.111450</ele>
<time>2010-07-17T15:55:04Z</time>
<desc>lat.=55.837040, lon.=26.047295, Alt.=149.111450m. Speed=0.036000m/h.</desc>
<speed>0.010000</speed>
</trkpt>
<trkpt lat="55.837040" lon="26.047295">
<ele>149.115356</ele>
<time>2010-07-17T15:55:05Z</time>
<desc>lat.=55.837040, lon.=26.047295, Alt.=149.115356m. Speed=0.000000m/h.</desc>
<speed>0.000000</speed>
</trkpt>
<trkpt lat="55.837040" lon="26.047295">
<ele>149.115356</ele>
<time>2010-07-17T15:55:06Z</time>
<desc>lat.=55.837040, lon.=26.047295, Alt.=149.115356m. Speed=0.072000m/h.</desc>
<speed>0.020000</speed>
</trkpt>
<trkpt lat="55.837040" lon="26.047295">
<ele>149.115356</ele>
<time>2010-07-17T15:55:07Z</time>
<desc>lat.=55.837040, lon.=26.047295, Alt.=149.115356m. Speed=0.072000m/h.</desc>
<speed>0.020000</speed>
</trkpt>
<trkpt lat="55.837040" lon="26.047295">
<ele>149.115356</ele>
<time>2010-07-17T15:55:08Z</time>
<desc>lat.=55.837040, lon.=26.047295, Alt.=149.115356m. Speed=0.036000m/h.</desc>
<speed>0.010000</speed>
</trkpt>
<trkpt lat="55.837040" lon="26.047295">
<ele>149.115356</ele>
<time>2010-07-17T15:55:09Z</time>
<desc>lat.=55.837040, lon.=26.047295, Alt.=149.115356m. Speed=0.000000m/h.</desc>
<speed>0.000000</speed>
</trkpt>
<trkpt lat="55.837040" lon="26.047295">
<ele>149.115356</ele>
<time>2010-07-17T15:55:10Z</time>
<desc>lat.=55.837040, lon.=26.047295, Alt.=149.115356m. Speed=0.000000m/h.</desc>
<speed>0.000000</speed>
</trkpt>
<trkpt lat="55.837040" lon="26.047295">
<ele>149.115356</ele>
<time>2010-07-17T15:55:11Z</time>
<desc>lat.=55.837040, lon.=26.047295, Alt.=149.115356m. Speed=0.036000m/h.</desc>
<speed>0.010000</speed>
</trkpt>
<trkpt lat="55.837040" lon="26.047295">
<ele>149.115356</ele>
<time>2010-07-17T15:55:12Z</time>
<desc>lat.=55.837040, lon.=26.047295, Alt.=149.115356m. Speed=0.036000m/h.</desc>
<speed>0.010000</speed>
</trkpt>
<trkpt lat="55.837040" lon="26.047295">
<ele>149.115356</ele>
<time>2010-07-17T15:55:13Z</time>
<desc>lat.=55.837040, lon.=26.047295, Alt.=149.115356m. Speed=0.000000m/h.</desc>
<speed>0.000000</speed>
</trkpt>
<trkpt lat="55.837040" lon="26.047295">
<ele>149.119263</ele>
<time>2010-07-17T15:55:14Z</time>
<desc>lat.=55.837040, lon.=26.047295, Alt.=149.119263m. Speed=0.072000m/h.</desc>
<speed>0.020000</speed>
</trkpt>
<trkpt lat="55.837040" lon="26.047295">
<ele>149.119263</ele>
<time>2010-07-17T15:55:15Z</time>
<desc>lat.=55.837040, lon.=26.047295, Alt.=149.119263m. Speed=0.144000m/h.</desc>
<speed>0.040000</speed>
</trkpt>
<trkpt lat="55.837040" lon="26.047295">
<ele>149.123169</ele>
<time>2010-07-17T15:55:16Z</time>
<desc>lat.=55.837040, lon.=26.047295, Alt.=149.123169m. Speed=0.000000m/h.</desc>
<speed>0.000000</speed>
</trkpt>
<trkpt lat="55.837040" lon="26.047295">
<ele>149.123169</ele>
<time>2010-07-17T15:55:17Z</time>
<desc>lat.=55.837040, lon.=26.047295, Alt.=149.123169m. Speed=0.108000m/h.</desc>
<speed>0.030000</speed>
</trkpt>
<trkpt lat="55.837040" lon="26.047295">
<ele>149.123169</ele>
<time>2010-07-17T15:55:18Z</time>
<desc>lat.=55.837040, lon.=26.047295, Alt.=149.123169m. Speed=0.144000m/h.</desc>
<speed>0.040000</speed>
</trkpt>
<trkpt lat="55.837040" lon="26.047295">
<ele>149.127075</ele>
<time>2010-07-17T15:55:19Z</time>
<desc>lat.=55.837040, lon.=26.047295, Alt.=149.127075m. Speed=0.144000m/h.</desc>
<speed>0.040000</speed>
</trkpt>
<trkpt lat="55.837040" lon="26.047295">
<ele>149.123169</ele>
<time>2010-07-17T15:55:20Z</time>
<desc>lat.=55.837040, lon.=26.047295, Alt.=149.123169m. Speed=0.288000m/h.</desc>
<speed>0.080000</speed>
</trkpt>
<trkpt lat="55.837040" lon="26.047295">
<ele>149.123169</ele>
<time>2010-07-17T15:55:21Z</time>
<desc>lat.=55.837040, lon.=26.047295, Alt.=149.123169m. Speed=0.108000m/h.</desc>
<speed>0.030000</speed>
</trkpt>
<trkpt lat="55.837040" lon="26.047295">
<ele>149.119263</ele>
<time>2010-07-17T15:55:22Z</time>
<desc>lat.=55.837040, lon.=26.047295, Alt.=149.119263m. Speed=0.792000m/h.</desc>
<speed>0.220000</speed>
</trkpt>
<trkpt lat="55.837040" lon="26.047291">
<ele>149.107544</ele>
<time>2010-07-17T15:55:23Z</time>
<desc>lat.=55.837040, lon.=26.047291, Alt.=149.107544m. Speed=1.548000m/h.</desc>
<speed>0.430000</speed>
</trkpt>
<trkpt lat="55.837044" lon="26.047272">
<ele>148.904419</ele>
<time>2010-07-17T15:55:24Z</time>
<desc>lat.=55.837044, lon.=26.047272, Alt.=148.904419m. Speed=1.908000m/h.</desc>
<speed>0.530000</speed>
</trkpt>
<trkpt lat="55.837051" lon="26.047258">
<ele>148.822388</ele>
<time>2010-07-17T15:55:25Z</time>
<desc>lat.=55.837051, lon.=26.047258, Alt.=148.822388m. Speed=1.476000m/h.</desc>
<speed>0.410000</speed>
</trkpt>
<trkpt lat="55.837059" lon="26.047241">
<ele>148.599731</ele>
<time>2010-07-17T15:55:26Z</time>
<desc>lat.=55.837059, lon.=26.047241, Alt.=148.599731m. Speed=1.296000m/h.</desc>
<speed>0.360000</speed>
</trkpt>
<trkpt lat="55.837067" lon="26.047230">
<ele>148.599731</ele>
<time>2010-07-17T15:55:27Z</time>
<desc>lat.=55.837067, lon.=26.047230, Alt.=148.599731m. Speed=1.152000m/h.</desc>
<speed>0.320000</speed>
</trkpt>
<trkpt lat="55.837070" lon="26.047224">
<ele>148.615356</ele>
<time>2010-07-17T15:55:28Z</time>
<desc>lat.=55.837070, lon.=26.047224, Alt.=148.615356m. Speed=1.188000m/h.</desc>
<speed>0.330000</speed>
</trkpt>
<trkpt lat="55.837070" lon="26.047220">
<ele>148.650513</ele>
<time>2010-07-17T15:55:29Z</time>
<desc>lat.=55.837070, lon.=26.047220, Alt.=148.650513m. Speed=1.044000m/h.</desc>
<speed>0.290000</speed>
</trkpt>
<trkpt lat="55.837070" lon="26.047215">
<ele>148.705200</ele>
<time>2010-07-17T15:55:30Z</time>
<desc>lat.=55.837070, lon.=26.047215, Alt.=148.705200m. Speed=0.792000m/h.</desc>
<speed>0.220000</speed>
</trkpt>
<trkpt lat="55.837070" lon="26.047207">
<ele>148.716919</ele>
<time>2010-07-17T15:55:31Z</time>
<desc>lat.=55.837070, lon.=26.047207, Alt.=148.716919m. Speed=1.836000m/h.</desc>
<speed>0.510000</speed>
</trkpt>
<trkpt lat="55.837074" lon="26.047186">
<ele>148.591919</ele>
<time>2010-07-17T15:55:32Z</time>
<desc>lat.=55.837074, lon.=26.047186, Alt.=148.591919m. Speed=2.880000m/h.</desc>
<speed>0.800000</speed>
</trkpt>
<trkpt lat="55.837074" lon="26.047169">
<ele>148.529419</ele>
<time>2010-07-17T15:55:33Z</time>
<desc>lat.=55.837074, lon.=26.047169, Alt.=148.529419m. Speed=3.024000m/h.</desc>
<speed>0.840000</speed>
</trkpt>
<trkpt lat="55.837067" lon="26.047146">
<ele>147.959106</ele>
<time>2010-07-17T15:55:34Z</time>
<desc>lat.=55.837067, lon.=26.047146, Alt.=147.959106m. Speed=1.944000m/h.</desc>
<speed>0.540000</speed>
</trkpt>
<trkpt lat="55.837059" lon="26.047136">
<ele>147.670044</ele>
<time>2010-07-17T15:55:35Z</time>
<desc>lat.=55.837059, lon.=26.047136, Alt.=147.670044m. Speed=1.368000m/h.</desc>
<speed>0.380000</speed>
</trkpt>
<trkpt lat="55.837055" lon="26.047132">
<ele>147.439575</ele>
<time>2010-07-17T15:55:36Z</time>
<desc>lat.=55.837055, lon.=26.047132, Alt.=147.439575m. Speed=0.360000m/h.</desc>
<speed>0.100000</speed>
</trkpt>
<trkpt lat="55.837055" lon="26.047132">
<ele>147.349731</ele>
<time>2010-07-17T15:55:37Z</time>
<desc>lat.=55.837055, lon.=26.047132, Alt.=147.349731m. Speed=0.360000m/h.</desc>
<speed>0.100000</speed>
</trkpt>
<trkpt lat="55.837055" lon="26.047131">
<ele>147.341919</ele>
<time>2010-07-17T15:55:38Z</time>
<desc>lat.=55.837055, lon.=26.047131, Alt.=147.341919m. Speed=0.396000m/h.</desc>
<speed>0.110000</speed>
</trkpt>
<trkpt lat="55.837048" lon="26.047123">
<ele>147.080200</ele>
<time>2010-07-17T15:55:39Z</time>
<desc>lat.=55.837048, lon.=26.047123, Alt.=147.080200m. Speed=0.108000m/h.</desc>
<speed>0.030000</speed>
</trkpt>
<trkpt lat="55.837048" lon="26.047123">
<ele>147.091919</ele>
<time>2010-07-17T15:55:40Z</time>
<desc>lat.=55.837048, lon.=26.047123, Alt.=147.091919m. Speed=0.144000m/h.</desc>
<speed>0.040000</speed>
</trkpt>
<trkpt lat="55.837048" lon="26.047123">
<ele>147.103638</ele>
<time>2010-07-17T15:55:41Z</time>
<desc>lat.=55.837048, lon.=26.047123, Alt.=147.103638m. Speed=0.216000m/h.</desc>
<speed>0.060000</speed>
</trkpt>
<trkpt lat="55.837048" lon="26.047121">
<ele>147.107544</ele>
<time>2010-07-17T15:55:42Z</time>
<desc>lat.=55.837048, lon.=26.047121, Alt.=147.107544m. Speed=0.540000m/h.</desc>
<speed>0.150000</speed>
</trkpt>
<trkpt lat="55.837044" lon="26.047119">
<ele>147.107544</ele>
<time>2010-07-17T15:55:43Z</time>
<desc>lat.=55.837044, lon.=26.047119, Alt.=147.107544m. Speed=0.036000m/h.</desc>
<speed>0.010000</speed>
</trkpt>
<trkpt lat="55.837044" lon="26.047119">
<ele>147.091919</ele>
<time>2010-07-17T15:55:44Z</time>
<desc>lat.=55.837044, lon.=26.047119, Alt.=147.091919m. Speed=0.180000m/h.</desc>
<speed>0.050000</speed>
</trkpt>
<trkpt lat="55.837044" lon="26.047119">
<ele>147.095825</ele>
<time>2010-07-17T15:55:45Z</time>
<desc>lat.=55.837044, lon.=26.047119, Alt.=147.095825m. Speed=0.180000m/h.</desc>
<speed>0.050000</speed>
</trkpt>
<trkpt lat="55.837044" lon="26.047119">
<ele>147.095825</ele>
<time>2010-07-17T15:55:46Z</time>
<desc>lat.=55.837044, lon.=26.047119, Alt.=147.095825m. Speed=0.108000m/h.</desc>
<speed>0.030000</speed>
</trkpt>
<trkpt lat="55.837044" lon="26.047119">
<ele>147.088013</ele>
<time>2010-07-17T15:55:47Z</time>
<desc>lat.=55.837044, lon.=26.047119, Alt.=147.088013m. Speed=0.036000m/h.</desc>
<speed>0.010000</speed>
</trkpt>
<trkpt lat="55.837044" lon="26.047119">
<ele>147.076294</ele>
<time>2010-07-17T15:55:48Z</time>
<desc>lat.=55.837044, lon.=26.047119, Alt.=147.076294m. Speed=0.036000m/h.</desc>
<speed>0.010000</speed>
</trkpt>
<trkpt lat="55.837044" lon="26.047119">
<ele>147.056763</ele>
<time>2010-07-17T15:55:49Z</time>
<desc>lat.=55.837044, lon.=26.047119, Alt.=147.056763m. Speed=0.180000m/h.</desc>
<speed>0.050000</speed>
</trkpt>
<trkpt lat="55.837044" lon="26.047119">
<ele>147.045044</ele>
<time>2010-07-17T15:55:50Z</time>
<desc>lat.=55.837044, lon.=26.047119, Alt.=147.045044m. Speed=0.072000m/h.</desc>
<speed>0.020000</speed>
</trkpt>
<trkpt lat="55.837044" lon="26.047119">
<ele>147.033325</ele>
<time>2010-07-17T15:55:51Z</time>
<desc>lat.=55.837044, lon.=26.047119, Alt.=147.033325m. Speed=0.072000m/h.</desc>
<speed>0.020000</speed>
</trkpt>
<trkpt lat="55.837044" lon="26.047119">
<ele>147.037231</ele>
<time>2010-07-17T15:55:52Z</time>
<desc>lat.=55.837044, lon.=26.047119, Alt.=147.037231m. Speed=0.216000m/h.</desc>
<speed>0.060000</speed>
</trkpt>
<trkpt lat="55.837044" lon="26.047119">
<ele>147.045044</ele>
<time>2010-07-17T15:55:53Z</time>
<desc>lat.=55.837044, lon.=26.047119, Alt.=147.045044m. Speed=0.504000m/h.</desc>
<speed>0.140000</speed>
</trkpt>
<trkpt lat="55.837044" lon="26.047121">
<ele>147.041138</ele>
<time>2010-07-17T15:55:54Z</time>
<desc>lat.=55.837044, lon.=26.047121, Alt.=147.041138m. Speed=0.720000m/h.</desc>
<speed>0.200000</speed>
</trkpt>
<trkpt lat="55.837044" lon="26.047121">
<ele>147.033325</ele>
<time>2010-07-17T15:55:55Z</time>
<desc>lat.=55.837044, lon.=26.047121, Alt.=147.033325m. Speed=1.584000m/h.</desc>
<speed>0.440000</speed>
</trkpt>
<trkpt lat="55.837040" lon="26.047106">
<ele>147.005981</ele>
<time>2010-07-17T15:55:56Z</time>
<desc>lat.=55.837040, lon.=26.047106, Alt.=147.005981m. Speed=2.736000m/h.</desc>
<speed>0.760000</speed>
</trkpt>
<trkpt lat="55.837032" lon="26.047092">
<ele>147.048950</ele>
<time>2010-07-17T15:55:57Z</time>
<desc>lat.=55.837032, lon.=26.047092, Alt.=147.048950m. Speed=3.636000m/h.</desc>
<speed>1.010000</speed>
</trkpt>
<trkpt lat="55.837025" lon="26.047079">
<ele>146.951294</ele>
<time>2010-07-17T15:55:58Z</time>
<desc>lat.=55.837025, lon.=26.047079, Alt.=146.951294m. Speed=4.320000m/h.</desc>
<speed>1.200000</speed>
</trkpt>
<trkpt lat="55.837017" lon="26.047068">
<ele>146.951294</ele>
<time>2010-07-17T15:55:59Z</time>
<desc>lat.=55.837017, lon.=26.047068, Alt.=146.951294m. Speed=3.960000m/h.</desc>
<speed>1.100000</speed>
</trkpt>
<trkpt lat="55.837009" lon="26.047062">
<ele>146.990356</ele>
<time>2010-07-17T15:56:00Z</time>
<desc>lat.=55.837009, lon.=26.047062, Alt.=146.990356m. Speed=2.808000m/h.</desc>
<speed>0.780000</speed>
</trkpt>
<trkpt lat="55.837002" lon="26.047056">
<ele>146.982544</ele>
<time>2010-07-17T15:56:01Z</time>
<desc>lat.=55.837002, lon.=26.047056, Alt.=146.982544m. Speed=3.672000m/h.</desc>
<speed>1.020000</speed>
</trkpt>
<trkpt lat="55.836987" lon="26.047045">
<ele>146.826294</ele>
<time>2010-07-17T15:56:02Z</time>
<desc>lat.=55.836987, lon.=26.047045, Alt.=146.826294m. Speed=3.312000m/h.</desc>
<speed>0.920000</speed>
</trkpt>
<trkpt lat="55.836979" lon="26.047039">
<ele>146.861450</ele>
<time>2010-07-17T15:56:03Z</time>
<desc>lat.=55.836979, lon.=26.047039, Alt.=146.861450m. Speed=2.844000m/h.</desc>
<speed>0.790000</speed>
</trkpt>
<trkpt lat="55.836979" lon="26.047035">
<ele>146.943481</ele>
<time>2010-07-17T15:56:04Z</time>
<desc>lat.=55.836979, lon.=26.047035, Alt.=146.943481m. Speed=1.152000m/h.</desc>
<speed>0.320000</speed>
</trkpt>
<trkpt lat="55.836983" lon="26.047028">
<ele>146.978638</ele>
<time>2010-07-17T15:56:05Z</time>
<desc>lat.=55.836983, lon.=26.047028, Alt.=146.978638m. Speed=1.548000m/h.</desc>
<speed>0.430000</speed>
</trkpt>
<trkpt lat="55.836979" lon="26.047026">
<ele>146.908325</ele>
<time>2010-07-17T15:56:06Z</time>
<desc>lat.=55.836979, lon.=26.047026, Alt.=146.908325m. Speed=0.792000m/h.</desc>
<speed>0.220000</speed>
</trkpt>
<trkpt lat="55.836975" lon="26.047024">
<ele>146.744263</ele>
<time>2010-07-17T15:56:07Z</time>
<desc>lat.=55.836975, lon.=26.047024, Alt.=146.744263m. Speed=0.288000m/h.</desc>
<speed>0.080000</speed>
</trkpt>
<trkpt lat="55.836971" lon="26.047012">
<ele>146.810669</ele>
<time>2010-07-17T15:56:08Z</time>
<desc>lat.=55.836971, lon.=26.047012, Alt.=146.810669m. Speed=0.432000m/h.</desc>
<speed>0.120000</speed>
</trkpt>
<trkpt lat="55.836967" lon="26.047009">
<ele>146.716919</ele>
<time>2010-07-17T15:56:09Z</time>
<desc>lat.=55.836967, lon.=26.047009, Alt.=146.716919m. Speed=0.576000m/h.</desc>
<speed>0.160000</speed>
</trkpt>
<trkpt lat="55.836964" lon="26.047005">
<ele>146.705200</ele>
<time>2010-07-17T15:56:10Z</time>
<desc>lat.=55.836964, lon.=26.047005, Alt.=146.705200m. Speed=0.792000m/h.</desc>
<speed>0.220000</speed>
</trkpt>
<trkpt lat="55.836964" lon="26.047003">
<ele>146.689575</ele>
<time>2010-07-17T15:56:11Z</time>
<desc>lat.=55.836964, lon.=26.047003, Alt.=146.689575m. Speed=1.188000m/h.</desc>
<speed>0.330000</speed>
</trkpt>
<trkpt lat="55.836964" lon="26.046997">
<ele>146.795044</ele>
<time>2010-07-17T15:56:12Z</time>
<desc>lat.=55.836964, lon.=26.046997, Alt.=146.795044m. Speed=1.260000m/h.</desc>
<speed>0.350000</speed>
</trkpt>
<trkpt lat="55.836960" lon="26.046997">
<ele>146.888794</ele>
<time>2010-07-17T15:56:13Z</time>
<desc>lat.=55.836960, lon.=26.046997, Alt.=146.888794m. Speed=1.260000m/h.</desc>
<speed>0.350000</speed>
</trkpt>
<trkpt lat="55.836956" lon="26.046993">
<ele>146.978638</ele>
<time>2010-07-17T15:56:14Z</time>
<desc>lat.=55.836956, lon.=26.046993, Alt.=146.978638m. Speed=1.440000m/h.</desc>
<speed>0.400000</speed>
</trkpt>
<trkpt lat="55.836952" lon="26.046993">
<ele>146.951294</ele>
<time>2010-07-17T15:56:15Z</time>
<desc>lat.=55.836952, lon.=26.046993, Alt.=146.951294m. Speed=1.332000m/h.</desc>
<speed>0.370000</speed>
</trkpt>
<trkpt lat="55.836948" lon="26.046988">
<ele>146.927856</ele>
<time>2010-07-17T15:56:16Z</time>
<desc>lat.=55.836948, lon.=26.046988, Alt.=146.927856m. Speed=1.404000m/h.</desc>
<speed>0.390000</speed>
</trkpt>
<trkpt lat="55.836941" lon="26.046984">
<ele>146.939575</ele>
<time>2010-07-17T15:56:17Z</time>
<desc>lat.=55.836941, lon.=26.046984, Alt.=146.939575m. Speed=1.908000m/h.</desc>
<speed>0.530000</speed>
</trkpt>
<trkpt lat="55.836933" lon="26.046984">
<ele>146.951294</ele>
<time>2010-07-17T15:56:18Z</time>
<desc>lat.=55.836933, lon.=26.046984, Alt.=146.951294m. Speed=1.980000m/h.</desc>
<speed>0.550000</speed>
</trkpt>
<trkpt lat="55.836929" lon="26.046982">
<ele>146.744263</ele>
<time>2010-07-17T15:56:19Z</time>
<desc>lat.=55.836929, lon.=26.046982, Alt.=146.744263m. Speed=1.476000m/h.</desc>
<speed>0.410000</speed>
</trkpt>
<trkpt lat="55.836922" lon="26.046986">
<ele>146.998169</ele>
<time>2010-07-17T15:56:20Z</time>
<desc>lat.=55.836922, lon.=26.046986, Alt.=146.998169m. Speed=1.512000m/h.</desc>
<speed>0.420000</speed>
</trkpt>
<trkpt lat="55.836922" lon="26.046988">
<ele>147.588013</ele>
<time>2010-07-17T15:56:21Z</time>
<desc>lat.=55.836922, lon.=26.046988, Alt.=147.588013m. Speed=1.548000m/h.</desc>
<speed>0.430000</speed>
</trkpt>
<trkpt lat="55.836918" lon="26.046972">
<ele>147.888794</ele>
<time>2010-07-17T15:56:22Z</time>
<desc>lat.=55.836918, lon.=26.046972, Alt.=147.888794m. Speed=0.972000m/h.</desc>
<speed>0.270000</speed>
</trkpt>
<trkpt lat="55.836918" lon="26.046967">
<ele>147.689575</ele>
<time>2010-07-17T15:56:23Z</time>
<desc>lat.=55.836918, lon.=26.046967, Alt.=147.689575m. Speed=1.764000m/h.</desc>
<speed>0.490000</speed>
</trkpt>
<trkpt lat="55.836910" lon="26.046965">
<ele>148.045044</ele>
<time>2010-07-17T15:56:24Z</time>
<desc>lat.=55.836910, lon.=26.046965, Alt.=148.045044m. Speed=3.852000m/h.</desc>
<speed>1.070000</speed>
</trkpt>
<trkpt lat="55.836884" lon="26.046968">
<ele>148.021606</ele>
<time>2010-07-17T15:56:25Z</time>
<desc>lat.=55.836884, lon.=26.046968, Alt.=148.021606m. Speed=8.892000m/h.</desc>
<speed>2.470000</speed>
</trkpt>
<trkpt lat="55.836864" lon="26.046984">
<ele>147.994263</ele>
<time>2010-07-17T15:56:26Z</time>
<desc>lat.=55.836864, lon.=26.046984, Alt.=147.994263m. Speed=8.244000m/h.</desc>
<speed>2.290000</speed>
</trkpt>
<trkpt lat="55.836845" lon="26.047007">
<ele>147.892700</ele>
<time>2010-07-17T15:56:27Z</time>
<desc>lat.=55.836845, lon.=26.047007, Alt.=147.892700m. Speed=10.296000m/h.</desc>
<speed>2.860000</speed>
</trkpt>
<trkpt lat="55.836819" lon="26.047029">
<ele>147.978638</ele>
<time>2010-07-17T15:56:28Z</time>
<desc>lat.=55.836819, lon.=26.047029, Alt.=147.978638m. Speed=11.232000m/h.</desc>
<speed>3.120000</speed>
</trkpt>
<trkpt lat="55.836784" lon="26.047070">
<ele>147.802856</ele>
<time>2010-07-17T15:56:29Z</time>
<desc>lat.=55.836784, lon.=26.047070, Alt.=147.802856m. Speed=14.364000m/h.</desc>
<speed>3.990000</speed>
</trkpt>
<trkpt lat="55.836746" lon="26.047100">
<ele>147.752075</ele>
<time>2010-07-17T15:56:30Z</time>
<desc>lat.=55.836746, lon.=26.047100, Alt.=147.752075m. Speed=14.976000m/h.</desc>
<speed>4.160000</speed>
</trkpt>
<trkpt lat="55.836716" lon="26.047121">
<ele>147.767700</ele>
<time>2010-07-17T15:56:31Z</time>
<desc>lat.=55.836716, lon.=26.047121, Alt.=147.767700m. Speed=13.644000m/h.</desc>
<speed>3.790000</speed>
</trkpt>
<trkpt lat="55.836681" lon="26.047138">
<ele>147.759888</ele>
<time>2010-07-17T15:56:32Z</time>
<desc>lat.=55.836681, lon.=26.047138, Alt.=147.759888m. Speed=13.644000m/h.</desc>
<speed>3.790000</speed>
</trkpt>
<trkpt lat="55.836647" lon="26.047152">
<ele>147.830200</ele>
<time>2010-07-17T15:56:33Z</time>
<desc>lat.=55.836647, lon.=26.047152, Alt.=147.830200m. Speed=12.924000m/h.</desc>
<speed>3.590000</speed>
</trkpt>
<trkpt lat="55.836609" lon="26.047163">
<ele>148.076294</ele>
<time>2010-07-17T15:56:34Z</time>
<desc>lat.=55.836609, lon.=26.047163, Alt.=148.076294m. Speed=12.960000m/h.</desc>
<speed>3.600000</speed>
</trkpt>
<trkpt lat="55.836578" lon="26.047182">
<ele>148.216919</ele>
<time>2010-07-17T15:56:35Z</time>
<desc>lat.=55.836578, lon.=26.047182, Alt.=148.216919m. Speed=12.960000m/h.</desc>
<speed>3.600000</speed>
</trkpt>
<trkpt lat="55.836544" lon="26.047199">
<ele>148.248169</ele>
<time>2010-07-17T15:56:36Z</time>
<desc>lat.=55.836544, lon.=26.047199, Alt.=148.248169m. Speed=12.240000m/h.</desc>
<speed>3.400000</speed>
</trkpt>
<trkpt lat="55.836510" lon="26.047218">
<ele>148.353638</ele>
<time>2010-07-17T15:56:37Z</time>
<desc>lat.=55.836510, lon.=26.047218, Alt.=148.353638m. Speed=11.880000m/h.</desc>
<speed>3.300000</speed>
</trkpt>
<trkpt lat="55.836483" lon="26.047234">
<ele>148.482544</ele>
<time>2010-07-17T15:56:38Z</time>
<desc>lat.=55.836483, lon.=26.047234, Alt.=148.482544m. Speed=11.124000m/h.</desc>
<speed>3.090000</speed>
</trkpt>
<trkpt lat="55.836449" lon="26.047241">
<ele>148.615356</ele>
<time>2010-07-17T15:56:39Z</time>
<desc>lat.=55.836449, lon.=26.047241, Alt.=148.615356m. Speed=10.980000m/h.</desc>
<speed>3.050000</speed>
</trkpt>
<trkpt lat="55.836411" lon="26.047245">
<ele>148.646606</ele>
<time>2010-07-17T15:56:40Z</time>
<desc>lat.=55.836411, lon.=26.047245, Alt.=148.646606m. Speed=12.888000m/h.</desc>
<speed>3.580000</speed>
</trkpt>
<trkpt lat="55.836365" lon="26.047270">
<ele>148.670044</ele>
<time>2010-07-17T15:56:41Z</time>
<desc>lat.=55.836365, lon.=26.047270, Alt.=148.670044m. Speed=13.824000m/h.</desc>
<speed>3.840000</speed>
</trkpt>
<trkpt lat="55.836327" lon="26.047293">
<ele>148.947388</ele>
<time>2010-07-17T15:56:42Z</time>
<desc>lat.=55.836327, lon.=26.047293, Alt.=148.947388m. Speed=14.256000m/h.</desc>
<speed>3.960000</speed>
</trkpt>
<trkpt lat="55.836277" lon="26.047319">
<ele>149.584106</ele>
<time>2010-07-17T15:56:43Z</time>
<desc>lat.=55.836277, lon.=26.047319, Alt.=149.584106m. Speed=17.316000m/h.</desc>
<speed>4.810000</speed>
</trkpt>
<trkpt lat="55.836231" lon="26.047337">
<ele>150.056763</ele>
<time>2010-07-17T15:56:44Z</time>
<desc>lat.=55.836231, lon.=26.047337, Alt.=150.056763m. Speed=16.596001m/h.</desc>
<speed>4.610000</speed>
</trkpt>
<trkpt lat="55.836189" lon="26.047358">
<ele>150.588013</ele>
<time>2010-07-17T15:56:45Z</time>
<desc>lat.=55.836189, lon.=26.047358, Alt.=150.588013m. Speed=16.955999m/h.</desc>
<speed>4.710000</speed>
</trkpt>
<trkpt lat="55.836159" lon="26.047371">
<ele>150.935669</ele>
<time>2010-07-17T15:56:46Z</time>
<desc>lat.=55.836159, lon.=26.047371, Alt.=150.935669m. Speed=12.996000m/h.</desc>
<speed>3.610000</speed>
</trkpt>
<trkpt lat="55.836128" lon="26.047382">
<ele>151.517700</ele>
<time>2010-07-17T15:56:47Z</time>
<desc>lat.=55.836128, lon.=26.047382, Alt.=151.517700m. Speed=12.168000m/h.</desc>
<speed>3.380000</speed>
</trkpt>
<trkpt lat="55.836102" lon="26.047394">
<ele>151.920044</ele>
<time>2010-07-17T15:56:48Z</time>
<desc>lat.=55.836102, lon.=26.047394, Alt.=151.920044m. Speed=10.512000m/h.</desc>
<speed>2.920000</speed>
</trkpt>
<trkpt lat="55.836048" lon="26.047428">
<ele>151.677856</ele>
<time>2010-07-17T15:56:49Z</time>
<desc>lat.=55.836048, lon.=26.047428, Alt.=151.677856m. Speed=11.484000m/h.</desc>
<speed>3.190000</speed>
</trkpt>
<trkpt lat="55.836002" lon="26.047464">
<ele>151.759888</ele>
<time>2010-07-17T15:56:50Z</time>
<desc>lat.=55.836002, lon.=26.047464, Alt.=151.759888m. Speed=9.216000m/h.</desc>
<speed>2.560000</speed>
</trkpt>
<trkpt lat="55.835976" lon="26.047472">
<ele>152.193481</ele>
<time>2010-07-17T15:56:51Z</time>
<desc>lat.=55.835976, lon.=26.047472, Alt.=152.193481m. Speed=7.632000m/h.</desc>
<speed>2.120000</speed>
</trkpt>
<trkpt lat="55.835957" lon="26.047482">
<ele>152.923950</ele>
<time>2010-07-17T15:56:52Z</time>
<desc>lat.=55.835957, lon.=26.047482, Alt.=152.923950m. Speed=9.504000m/h.</desc>
<speed>2.640000</speed>
</trkpt>
<trkpt lat="55.835934" lon="26.047491">
<ele>153.127075</ele>
<time>2010-07-17T15:56:53Z</time>
<desc>lat.=55.835934, lon.=26.047491, Alt.=153.127075m. Speed=9.180000m/h.</desc>
<speed>2.550000</speed>
</trkpt>
<trkpt lat="55.835918" lon="26.047501">
<ele>153.646606</ele>
<time>2010-07-17T15:56:54Z</time>
<desc>lat.=55.835918, lon.=26.047501, Alt.=153.646606m. Speed=6.084000m/h.</desc>
<speed>1.690000</speed>
</trkpt>
<trkpt lat="55.835903" lon="26.047512">
<ele>153.775513</ele>
<time>2010-07-17T15:56:55Z</time>
<desc>lat.=55.835903, lon.=26.047512, Alt.=153.775513m. Speed=6.264000m/h.</desc>
<speed>1.740000</speed>
</trkpt>
<trkpt lat="55.835888" lon="26.047520">
<ele>154.603638</ele>
<time>2010-07-17T15:56:56Z</time>
<desc>lat.=55.835888, lon.=26.047520, Alt.=154.603638m. Speed=6.732000m/h.</desc>
<speed>1.870000</speed>
</trkpt>
<trkpt lat="55.835873" lon="26.047527">
<ele>154.795044</ele>
<time>2010-07-17T15:56:57Z</time>
<desc>lat.=55.835873, lon.=26.047527, Alt.=154.795044m. Speed=7.272000m/h.</desc>
<speed>2.020000</speed>
</trkpt>
<trkpt lat="55.835854" lon="26.047531">
<ele>154.927856</ele>
<time>2010-07-17T15:56:58Z</time>
<desc>lat.=55.835854, lon.=26.047531, Alt.=154.927856m. Speed=6.300000m/h.</desc>
<speed>1.750000</speed>
</trkpt>
<trkpt lat="55.835835" lon="26.047537">
<ele>155.505981</ele>
<time>2010-07-17T15:56:59Z</time>
<desc>lat.=55.835835, lon.=26.047537, Alt.=155.505981m. Speed=7.344000m/h.</desc>
<speed>2.040000</speed>
</trkpt>
<trkpt lat="55.835823" lon="26.047531">
<ele>156.033325</ele>
<time>2010-07-17T15:57:00Z</time>
<desc>lat.=55.835823, lon.=26.047531, Alt.=156.033325m. Speed=7.848000m/h.</desc>
<speed>2.180000</speed>
</trkpt>
<trkpt lat="55.835796" lon="26.047529">
<ele>156.259888</ele>
<time>2010-07-17T15:57:01Z</time>
<desc>lat.=55.835796, lon.=26.047529, Alt.=156.259888m. Speed=8.676000m/h.</desc>
<speed>2.410000</speed>
</trkpt>
<trkpt lat="55.835773" lon="26.047533">
<ele>156.834106</ele>
<time>2010-07-17T15:57:02Z</time>
<desc>lat.=55.835773, lon.=26.047533, Alt.=156.834106m. Speed=7.668000m/h.</desc>
<speed>2.130000</speed>
</trkpt>
<trkpt lat="55.835762" lon="26.047562">
<ele>156.560669</ele>
<time>2010-07-17T15:57:03Z</time>
<desc>lat.=55.835762, lon.=26.047562, Alt.=156.560669m. Speed=7.236000m/h.</desc>
<speed>2.010000</speed>
</trkpt>
<trkpt lat="55.835747" lon="26.047577">
<ele>156.365356</ele>
<time>2010-07-17T15:57:04Z</time>
<desc>lat.=55.835747, lon.=26.047577, Alt.=156.365356m. Speed=7.524000m/h.</desc>
<speed>2.090000</speed>
</trkpt>
<trkpt lat="55.835728" lon="26.047592">
<ele>156.826294</ele>
<time>2010-07-17T15:57:05Z</time>
<desc>lat.=55.835728, lon.=26.047592, Alt.=156.826294m. Speed=8.208000m/h.</desc>
<speed>2.280000</speed>
</trkpt>
<trkpt lat="55.835709" lon="26.047602">
<ele>156.763794</ele>
<time>2010-07-17T15:57:06Z</time>
<desc>lat.=55.835709, lon.=26.047602, Alt.=156.763794m. Speed=10.512000m/h.</desc>
<speed>2.920000</speed>
</trkpt>
<trkpt lat="55.835674" lon="26.047613">
<ele>156.627075</ele>
<time>2010-07-17T15:57:07Z</time>
<desc>lat.=55.835674, lon.=26.047613, Alt.=156.627075m. Speed=9.792000m/h.</desc>
<speed>2.720000</speed>
</trkpt>
<trkpt lat="55.835648" lon="26.047613">
<ele>156.693481</ele>
<time>2010-07-17T15:57:08Z</time>
<desc>lat.=55.835648, lon.=26.047613, Alt.=156.693481m. Speed=9.576000m/h.</desc>
<speed>2.660000</speed>
</trkpt>
<trkpt lat="55.835613" lon="26.047615">
<ele>156.209106</ele>
<time>2010-07-17T15:57:09Z</time>
<desc>lat.=55.835613, lon.=26.047615, Alt.=156.209106m. Speed=12.564000m/h.</desc>
<speed>3.490000</speed>
</trkpt>
<trkpt lat="55.835583" lon="26.047617">
<ele>155.947388</ele>
<time>2010-07-17T15:57:10Z</time>
<desc>lat.=55.835583, lon.=26.047617, Alt.=155.947388m. Speed=10.620000m/h.</desc>
<speed>2.950000</speed>
</trkpt>
<trkpt lat="55.835556" lon="26.047621">
<ele>156.107544</ele>
<time>2010-07-17T15:57:11Z</time>
<desc>lat.=55.835556, lon.=26.047621, Alt.=156.107544m. Speed=10.116000m/h.</desc>
<speed>2.810000</speed>
</trkpt>
<trkpt lat="55.835526" lon="26.047621">
<ele>156.048950</ele>
<time>2010-07-17T15:57:12Z</time>
<desc>lat.=55.835526, lon.=26.047621, Alt.=156.048950m. Speed=10.584000m/h.</desc>
<speed>2.940000</speed>
</trkpt>
<trkpt lat="55.835503" lon="26.047621">
<ele>155.951294</ele>
<time>2010-07-17T15:57:13Z</time>
<desc>lat.=55.835503, lon.=26.047621, Alt.=155.951294m. Speed=9.360000m/h.</desc>
<speed>2.600000</speed>
</trkpt>
<trkpt lat="55.835480" lon="26.047626">
<ele>156.021606</ele>
<time>2010-07-17T15:57:14Z</time>
<desc>lat.=55.835480, lon.=26.047626, Alt.=156.021606m. Speed=7.596000m/h.</desc>
<speed>2.110000</speed>
</trkpt>
<trkpt lat="55.835449" lon="26.047626">
<ele>155.884888</ele>
<time>2010-07-17T15:57:15Z</time>
<desc>lat.=55.835449, lon.=26.047626, Alt.=155.884888m. Speed=9.288000m/h.</desc>
<speed>2.580000</speed>
</trkpt>
<trkpt lat="55.835423" lon="26.047628">
<ele>155.630981</ele>
<time>2010-07-17T15:57:16Z</time>
<desc>lat.=55.835423, lon.=26.047628, Alt.=155.630981m. Speed=9.000000m/h.</desc>
<speed>2.500000</speed>
</trkpt>
<trkpt lat="55.835396" lon="26.047628">
<ele>155.892700</ele>
<time>2010-07-17T15:57:17Z</time>
<desc>lat.=55.835396, lon.=26.047628, Alt.=155.892700m. Speed=9.612000m/h.</desc>
<speed>2.670000</speed>
</trkpt>
<trkpt lat="55.835373" lon="26.047623">
<ele>156.213013</ele>
<time>2010-07-17T15:57:18Z</time>
<desc>lat.=55.835373, lon.=26.047623, Alt.=156.213013m. Speed=10.692000m/h.</desc>
<speed>2.970000</speed>
</trkpt>
<trkpt lat="55.835339" lon="26.047630">
<ele>156.232544</ele>
<time>2010-07-17T15:57:19Z</time>
<desc>lat.=55.835339, lon.=26.047630, Alt.=156.232544m. Speed=12.456000m/h.</desc>
<speed>3.460000</speed>
</trkpt>
<trkpt lat="55.835300" lon="26.047636">
<ele>155.920044</ele>
<time>2010-07-17T15:57:20Z</time>
<desc>lat.=55.835300, lon.=26.047636, Alt.=155.920044m. Speed=12.348000m/h.</desc>
<speed>3.430000</speed>
</trkpt>
<trkpt lat="55.835270" lon="26.047632">
<ele>156.064575</ele>
<time>2010-07-17T15:57:21Z</time>
<desc>lat.=55.835270, lon.=26.047632, Alt.=156.064575m. Speed=11.268000m/h.</desc>
<speed>3.130000</speed>
</trkpt>
<trkpt lat="55.835243" lon="26.047628">
<ele>155.736450</ele>
<time>2010-07-17T15:57:22Z</time>
<desc>lat.=55.835243, lon.=26.047628, Alt.=155.736450m. Speed=9.756000m/h.</desc>
<speed>2.710000</speed>
</trkpt>
<trkpt lat="55.835220" lon="26.047623">
<ele>156.052856</ele>
<time>2010-07-17T15:57:23Z</time>
<desc>lat.=55.835220, lon.=26.047623, Alt.=156.052856m. Speed=10.620000m/h.</desc>
<speed>2.950000</speed>
</trkpt>
<trkpt lat="55.835209" lon="26.047611">
<ele>155.213013</ele>
<time>2010-07-17T15:57:24Z</time>
<desc>lat.=55.835209, lon.=26.047611, Alt.=155.213013m. Speed=10.116000m/h.</desc>
<speed>2.810000</speed>
</trkpt>
<trkpt lat="55.835182" lon="26.047598">
<ele>155.697388</ele>
<time>2010-07-17T15:57:25Z</time>
<desc>lat.=55.835182, lon.=26.047598, Alt.=155.697388m. Speed=13.428000m/h.</desc>
<speed>3.730000</speed>
</trkpt>
<trkpt lat="55.835148" lon="26.047604">
<ele>155.713013</ele>
<time>2010-07-17T15:57:26Z</time>
<desc>lat.=55.835148, lon.=26.047604, Alt.=155.713013m. Speed=12.816000m/h.</desc>
<speed>3.560000</speed>
</trkpt>
<trkpt lat="55.835117" lon="26.047607">
<ele>155.865356</ele>
<time>2010-07-17T15:57:27Z</time>
<desc>lat.=55.835117, lon.=26.047607, Alt.=155.865356m. Speed=13.572000m/h.</desc>
<speed>3.770000</speed>
</trkpt>
<trkpt lat="55.835079" lon="26.047613">
<ele>156.072388</ele>
<time>2010-07-17T15:57:28Z</time>
<desc>lat.=55.835079, lon.=26.047613, Alt.=156.072388m. Speed=15.300000m/h.</desc>
<speed>4.250000</speed>
</trkpt>
<trkpt lat="55.835041" lon="26.047615">
<ele>156.088013</ele>
<time>2010-07-17T15:57:29Z</time>
<desc>lat.=55.835041, lon.=26.047615, Alt.=156.088013m. Speed=13.752000m/h.</desc>
<speed>3.820000</speed>
</trkpt>
<trkpt lat="55.835003" lon="26.047617">
<ele>156.646606</ele>
<time>2010-07-17T15:57:30Z</time>
<desc>lat.=55.835003, lon.=26.047617, Alt.=156.646606m. Speed=13.356000m/h.</desc>
<speed>3.710000</speed>
</trkpt>
<trkpt lat="55.834969" lon="26.047615">
<ele>156.830200</ele>
<time>2010-07-17T15:57:31Z</time>
<desc>lat.=55.834969, lon.=26.047615, Alt.=156.830200m. Speed=13.104000m/h.</desc>
<speed>3.640000</speed>
</trkpt>
<trkpt lat="55.834930" lon="26.047615">
<ele>156.650513</ele>
<time>2010-07-17T15:57:32Z</time>
<desc>lat.=55.834930, lon.=26.047615, Alt.=156.650513m. Speed=13.716000m/h.</desc>
<speed>3.810000</speed>
</trkpt>
<trkpt lat="55.834896" lon="26.047611">
<ele>156.279419</ele>
<time>2010-07-17T15:57:33Z</time>
<desc>lat.=55.834896, lon.=26.047611, Alt.=156.279419m. Speed=13.464000m/h.</desc>
<speed>3.740000</speed>
</trkpt>
<trkpt lat="55.834862" lon="26.047611">
<ele>155.931763</ele>
<time>2010-07-17T15:57:34Z</time>
<desc>lat.=55.834862, lon.=26.047611, Alt.=155.931763m. Speed=13.752000m/h.</desc>
<speed>3.820000</speed>
</trkpt>
<trkpt lat="55.834827" lon="26.047609">
<ele>155.748169</ele>
<time>2010-07-17T15:57:35Z</time>
<desc>lat.=55.834827, lon.=26.047609, Alt.=155.748169m. Speed=12.276000m/h.</desc>
<speed>3.410000</speed>
</trkpt>
<trkpt lat="55.834797" lon="26.047604">
<ele>156.037231</ele>
<time>2010-07-17T15:57:36Z</time>
<desc>lat.=55.834797, lon.=26.047604, Alt.=156.037231m. Speed=11.952000m/h.</desc>
<speed>3.320000</speed>
</trkpt>
<trkpt lat="55.834763" lon="26.047600">
<ele>156.298950</ele>
<time>2010-07-17T15:57:37Z</time>
<desc>lat.=55.834763, lon.=26.047600, Alt.=156.298950m. Speed=12.996000m/h.</desc>
<speed>3.610000</speed>
</trkpt>
<trkpt lat="55.834724" lon="26.047606">
<ele>155.966919</ele>
<time>2010-07-17T15:57:38Z</time>
<desc>lat.=55.834724, lon.=26.047606, Alt.=155.966919m. Speed=11.700000m/h.</desc>
<speed>3.250000</speed>
</trkpt>
<trkpt lat="55.834694" lon="26.047607">
<ele>156.056763</ele>
<time>2010-07-17T15:57:39Z</time>
<desc>lat.=55.834694, lon.=26.047607, Alt.=156.056763m. Speed=12.312000m/h.</desc>
<speed>3.420000</speed>
</trkpt>
<trkpt lat="55.834660" lon="26.047606">
<ele>156.021606</ele>
<time>2010-07-17T15:57:40Z</time>
<desc>lat.=55.834660, lon.=26.047606, Alt.=156.021606m. Speed=14.148000m/h.</desc>
<speed>3.930000</speed>
</trkpt>
<trkpt lat="55.834618" lon="26.047602">
<ele>155.927856</ele>
<time>2010-07-17T15:57:41Z</time>
<desc>lat.=55.834618, lon.=26.047602, Alt.=155.927856m. Speed=14.328000m/h.</desc>
<speed>3.980000</speed>
</trkpt>
<trkpt lat="55.834576" lon="26.047590">
<ele>155.986450</ele>
<time>2010-07-17T15:57:42Z</time>
<desc>lat.=55.834576, lon.=26.047590, Alt.=155.986450m. Speed=15.516000m/h.</desc>
<speed>4.310000</speed>
</trkpt>
<trkpt lat="55.834538" lon="26.047577">
<ele>155.627075</ele>
<time>2010-07-17T15:57:43Z</time>
<desc>lat.=55.834538, lon.=26.047577, Alt.=155.627075m. Speed=16.596001m/h.</desc>
<speed>4.610000</speed>
</trkpt>
<trkpt lat="55.834499" lon="26.047577">
<ele>155.677856</ele>
<time>2010-07-17T15:57:44Z</time>
<desc>lat.=55.834499, lon.=26.047577, Alt.=155.677856m. Speed=17.424000m/h.</desc>
<speed>4.840000</speed>
</trkpt>
<trkpt lat="55.834454" lon="26.047573">
<ele>155.627075</ele>
<time>2010-07-17T15:57:45Z</time>
<desc>lat.=55.834454, lon.=26.047573, Alt.=155.627075m. Speed=18.576000m/h.</desc>
<speed>5.160000</speed>
</trkpt>
<trkpt lat="55.834404" lon="26.047571">
<ele>155.533325</ele>
<time>2010-07-17T15:57:46Z</time>
<desc>lat.=55.834404, lon.=26.047571, Alt.=155.533325m. Speed=19.511999m/h.</desc>
<speed>5.420000</speed>
</trkpt>
<trkpt lat="55.834351" lon="26.047567">
<ele>155.728638</ele>
<time>2010-07-17T15:57:47Z</time>
<desc>lat.=55.834351, lon.=26.047567, Alt.=155.728638m. Speed=20.736000m/h.</desc>
<speed>5.760000</speed>
</trkpt>
<trkpt lat="55.834297" lon="26.047569">
<ele>155.599731</ele>
<time>2010-07-17T15:57:48Z</time>
<desc>lat.=55.834297, lon.=26.047569, Alt.=155.599731m. Speed=20.771999m/h.</desc>
<speed>5.770000</speed>
</trkpt>
<trkpt lat="55.834236" lon="26.047573">
<ele>155.166138</ele>
<time>2010-07-17T15:57:49Z</time>
<desc>lat.=55.834236, lon.=26.047573, Alt.=155.166138m. Speed=22.860001m/h.</desc>
<speed>6.350000</speed>
</trkpt>
<trkpt lat="55.834179" lon="26.047575">
<ele>154.849731</ele>
<time>2010-07-17T15:57:50Z</time>
<desc>lat.=55.834179, lon.=26.047575, Alt.=154.849731m. Speed=21.816000m/h.</desc>
<speed>6.060000</speed>
</trkpt>
<trkpt lat="55.834129" lon="26.047575">
<ele>154.197388</ele>
<time>2010-07-17T15:57:51Z</time>
<desc>lat.=55.834129, lon.=26.047575, Alt.=154.197388m. Speed=21.780001m/h.</desc>
<speed>6.050000</speed>
</trkpt>
<trkpt lat="55.834080" lon="26.047577">
<ele>153.834106</ele>
<time>2010-07-17T15:57:52Z</time>
<desc>lat.=55.834080, lon.=26.047577, Alt.=153.834106m. Speed=20.879999m/h.</desc>
<speed>5.800000</speed>
</trkpt>
<trkpt lat="55.834011" lon="26.047592">
<ele>153.420044</ele>
<time>2010-07-17T15:57:53Z</time>
<desc>lat.=55.834011, lon.=26.047592, Alt.=153.420044m. Speed=23.364000m/h.</desc>
<speed>6.490000</speed>
</trkpt>
<trkpt lat="55.833946" lon="26.047604">
<ele>152.822388</ele>
<time>2010-07-17T15:57:54Z</time>
<desc>lat.=55.833946, lon.=26.047604, Alt.=152.822388m. Speed=24.299999m/h.</desc>
<speed>6.750000</speed>
</trkpt>
<trkpt lat="55.833878" lon="26.047615">
<ele>152.447388</ele>
<time>2010-07-17T15:57:55Z</time>
<desc>lat.=55.833878, lon.=26.047615, Alt.=152.447388m. Speed=23.112000m/h.</desc>
<speed>6.420000</speed>
</trkpt>
<trkpt lat="55.833820" lon="26.047621">
<ele>152.392700</ele>
<time>2010-07-17T15:57:56Z</time>
<desc>lat.=55.833820, lon.=26.047621, Alt.=152.392700m. Speed=24.372000m/h.</desc>
<speed>6.770000</speed>
</trkpt>
<trkpt lat="55.833763" lon="26.047619">
<ele>152.236450</ele>
<time>2010-07-17T15:57:57Z</time>
<desc>lat.=55.833763, lon.=26.047619, Alt.=152.236450m. Speed=22.356001m/h.</desc>
<speed>6.210000</speed>
</trkpt>
<trkpt lat="55.833717" lon="26.047623">
<ele>152.134888</ele>
<time>2010-07-17T15:57:58Z</time>
<desc>lat.=55.833717, lon.=26.047623, Alt.=152.134888m. Speed=18.360001m/h.</desc>
<speed>5.100000</speed>
</trkpt>
<trkpt lat="55.833652" lon="26.047626">
<ele>151.482544</ele>
<time>2010-07-17T15:57:59Z</time>
<desc>lat.=55.833652, lon.=26.047626, Alt.=151.482544m. Speed=24.048000m/h.</desc>
<speed>6.680000</speed>
</trkpt>
<trkpt lat="55.833599" lon="26.047628">
<ele>151.017700</ele>
<time>2010-07-17T15:58:00Z</time>
<desc>lat.=55.833599, lon.=26.047628, Alt.=151.017700m. Speed=20.844000m/h.</desc>
<speed>5.790000</speed>
</trkpt>
<trkpt lat="55.833549" lon="26.047634">
<ele>150.802856</ele>
<time>2010-07-17T15:58:01Z</time>
<desc>lat.=55.833549, lon.=26.047634, Alt.=150.802856m. Speed=18.108000m/h.</desc>
<speed>5.030000</speed>
</trkpt>
<trkpt lat="55.833504" lon="26.047642">
<ele>150.474731</ele>
<time>2010-07-17T15:58:02Z</time>
<desc>lat.=55.833504, lon.=26.047642, Alt.=150.474731m. Speed=16.884001m/h.</desc>
<speed>4.690000</speed>
</trkpt>
<trkpt lat="55.833458" lon="26.047649">
<ele>150.291138</ele>
<time>2010-07-17T15:58:03Z</time>
<desc>lat.=55.833458, lon.=26.047649, Alt.=150.291138m. Speed=15.840000m/h.</desc>
<speed>4.400000</speed>
</trkpt>
<trkpt lat="55.833416" lon="26.047659">
<ele>150.412231</ele>
<time>2010-07-17T15:58:04Z</time>
<desc>lat.=55.833416, lon.=26.047659, Alt.=150.412231m. Speed=15.696000m/h.</desc>
<speed>4.360000</speed>
</trkpt>
<trkpt lat="55.833385" lon="26.047651">
<ele>150.713013</ele>
<time>2010-07-17T15:58:05Z</time>
<desc>lat.=55.833385, lon.=26.047651, Alt.=150.713013m. Speed=13.140000m/h.</desc>
<speed>3.650000</speed>
</trkpt>
<trkpt lat="55.833351" lon="26.047647">
<ele>151.017700</ele>
<time>2010-07-17T15:58:06Z</time>
<desc>lat.=55.833351, lon.=26.047647, Alt.=151.017700m. Speed=13.284000m/h.</desc>
<speed>3.690000</speed>
</trkpt>
<trkpt lat="55.833305" lon="26.047651">
<ele>151.525513</ele>
<time>2010-07-17T15:58:07Z</time>
<desc>lat.=55.833305, lon.=26.047651, Alt.=151.525513m. Speed=16.488001m/h.</desc>
<speed>4.580000</speed>
</trkpt>
<trkpt lat="55.833256" lon="26.047649">
<ele>151.966919</ele>
<time>2010-07-17T15:58:08Z</time>
<desc>lat.=55.833256, lon.=26.047649, Alt.=151.966919m. Speed=15.948000m/h.</desc>
<speed>4.430000</speed>
</trkpt>
<trkpt lat="55.833202" lon="26.047653">
<ele>152.849731</ele>
<time>2010-07-17T15:58:09Z</time>
<desc>lat.=55.833202, lon.=26.047653, Alt.=152.849731m. Speed=16.596001m/h.</desc>
<speed>4.610000</speed>
</trkpt>
<trkpt lat="55.833138" lon="26.047655">
<ele>153.705200</ele>
<time>2010-07-17T15:58:10Z</time>
<desc>lat.=55.833138, lon.=26.047655, Alt.=153.705200m. Speed=18.143999m/h.</desc>
<speed>5.040000</speed>
</trkpt>
<trkpt lat="55.833080" lon="26.047659">
<ele>153.701294</ele>
<time>2010-07-17T15:58:11Z</time>
<desc>lat.=55.833080, lon.=26.047659, Alt.=153.701294m. Speed=18.288000m/h.</desc>
<speed>5.080000</speed>
</trkpt>
<trkpt lat="55.833023" lon="26.047665">
<ele>153.662231</ele>
<time>2010-07-17T15:58:12Z</time>
<desc>lat.=55.833023, lon.=26.047665, Alt.=153.662231m. Speed=18.864000m/h.</desc>
<speed>5.240000</speed>
</trkpt>
<trkpt lat="55.832970" lon="26.047670">
<ele>153.236450</ele>
<time>2010-07-17T15:58:13Z</time>
<desc>lat.=55.832970, lon.=26.047670, Alt.=153.236450m. Speed=18.108000m/h.</desc>
<speed>5.030000</speed>
</trkpt>
<trkpt lat="55.832920" lon="26.047674">
<ele>153.482544</ele>
<time>2010-07-17T15:58:14Z</time>
<desc>lat.=55.832920, lon.=26.047674, Alt.=153.482544m. Speed=17.208000m/h.</desc>
<speed>4.780000</speed>
</trkpt>
<trkpt lat="55.832874" lon="26.047682">
<ele>153.779419</ele>
<time>2010-07-17T15:58:15Z</time>
<desc>lat.=55.832874, lon.=26.047682, Alt.=153.779419m. Speed=15.300000m/h.</desc>
<speed>4.250000</speed>
</trkpt>
<trkpt lat="55.832832" lon="26.047689">
<ele>154.404419</ele>
<time>2010-07-17T15:58:16Z</time>
<desc>lat.=55.832832, lon.=26.047689, Alt.=154.404419m. Speed=14.256000m/h.</desc>
<speed>3.960000</speed>
</trkpt>
<trkpt lat="55.832798" lon="26.047693">
<ele>154.388794</ele>
<time>2010-07-17T15:58:17Z</time>
<desc>lat.=55.832798, lon.=26.047693, Alt.=154.388794m. Speed=9.720000m/h.</desc>
<speed>2.700000</speed>
</trkpt>
<trkpt lat="55.832771" lon="26.047693">
<ele>154.748169</ele>
<time>2010-07-17T15:58:18Z</time>
<desc>lat.=55.832771, lon.=26.047693, Alt.=154.748169m. Speed=7.308000m/h.</desc>
<speed>2.030000</speed>
</trkpt>
<trkpt lat="55.832748" lon="26.047691">
<ele>154.884888</ele>
<time>2010-07-17T15:58:19Z</time>
<desc>lat.=55.832748, lon.=26.047691, Alt.=154.884888m. Speed=4.608000m/h.</desc>
<speed>1.280000</speed>
</trkpt>
<trkpt lat="55.832733" lon="26.047689">
<ele>154.974731</ele>
<time>2010-07-17T15:58:20Z</time>
<desc>lat.=55.832733, lon.=26.047689, Alt.=154.974731m. Speed=7.056000m/h.</desc>
<speed>1.960000</speed>
</trkpt>
<trkpt lat="55.832714" lon="26.047691">
<ele>154.455200</ele>
<time>2010-07-17T15:58:21Z</time>
<desc>lat.=55.832714, lon.=26.047691, Alt.=154.455200m. Speed=7.272000m/h.</desc>
<speed>2.020000</speed>
</trkpt>
<trkpt lat="55.832687" lon="26.047691">
<ele>154.107544</ele>
<time>2010-07-17T15:58:22Z</time>
<desc>lat.=55.832687, lon.=26.047691, Alt.=154.107544m. Speed=9.108000m/h.</desc>
<speed>2.530000</speed>
</trkpt>
<trkpt lat="55.832661" lon="26.047693">
<ele>154.334106</ele>
<time>2010-07-17T15:58:23Z</time>
<desc>lat.=55.832661, lon.=26.047693, Alt.=154.334106m. Speed=9.216000m/h.</desc>
<speed>2.560000</speed>
</trkpt>
<trkpt lat="55.832634" lon="26.047693">
<ele>154.017700</ele>
<time>2010-07-17T15:58:24Z</time>
<desc>lat.=55.832634, lon.=26.047693, Alt.=154.017700m. Speed=8.784000m/h.</desc>
<speed>2.440000</speed>
</trkpt>
<trkpt lat="55.832611" lon="26.047705">
<ele>154.041138</ele>
<time>2010-07-17T15:58:25Z</time>
<desc>lat.=55.832611, lon.=26.047705, Alt.=154.041138m. Speed=8.352000m/h.</desc>
<speed>2.320000</speed>
</trkpt>
<trkpt lat="55.832581" lon="26.047720">
<ele>154.045044</ele>
<time>2010-07-17T15:58:26Z</time>
<desc>lat.=55.832581, lon.=26.047720, Alt.=154.045044m. Speed=10.692000m/h.</desc>
<speed>2.970000</speed>
</trkpt>
<trkpt lat="55.832554" lon="26.047728">
<ele>154.240356</ele>
<time>2010-07-17T15:58:27Z</time>
<desc>lat.=55.832554, lon.=26.047728, Alt.=154.240356m. Speed=13.356000m/h.</desc>
<speed>3.710000</speed>
</trkpt>
<trkpt lat="55.832523" lon="26.047737">
<ele>154.713013</ele>
<time>2010-07-17T15:58:28Z</time>
<desc>lat.=55.832523, lon.=26.047737, Alt.=154.713013m. Speed=10.116000m/h.</desc>
<speed>2.810000</speed>
</trkpt>
<trkpt lat="55.832497" lon="26.047756">
<ele>154.783325</ele>
<time>2010-07-17T15:58:29Z</time>
<desc>lat.=55.832497, lon.=26.047756, Alt.=154.783325m. Speed=10.152000m/h.</desc>
<speed>2.820000</speed>
</trkpt>
<trkpt lat="55.832485" lon="26.047770">
<ele>155.271606</ele>
<time>2010-07-17T15:58:30Z</time>
<desc>lat.=55.832485, lon.=26.047770, Alt.=155.271606m. Speed=6.696000m/h.</desc>
<speed>1.860000</speed>
</trkpt>
<trkpt lat="55.832470" lon="26.047779">
<ele>156.189575</ele>
<time>2010-07-17T15:58:31Z</time>
<desc>lat.=55.832470, lon.=26.047779, Alt.=156.189575m. Speed=5.400000m/h.</desc>
<speed>1.500000</speed>
</trkpt>
<trkpt lat="55.832451" lon="26.047785">
<ele>157.220825</ele>
<time>2010-07-17T15:58:32Z</time>
<desc>lat.=55.832451, lon.=26.047785, Alt.=157.220825m. Speed=6.372000m/h.</desc>
<speed>1.770000</speed>
</trkpt>
<trkpt lat="55.832436" lon="26.047798">
<ele>157.861450</ele>
<time>2010-07-17T15:58:33Z</time>
<desc>lat.=55.832436, lon.=26.047798, Alt.=157.861450m. Speed=4.356000m/h.</desc>
<speed>1.210000</speed>
</trkpt>
<trkpt lat="55.832413" lon="26.047810">
<ele>158.220825</ele>
<time>2010-07-17T15:58:34Z</time>
<desc>lat.=55.832413, lon.=26.047810, Alt.=158.220825m. Speed=7.164000m/h.</desc>
<speed>1.990000</speed>
</trkpt>
<trkpt lat="55.832390" lon="26.047827">
<ele>158.689575</ele>
<time>2010-07-17T15:58:35Z</time>
<desc>lat.=55.832390, lon.=26.047827, Alt.=158.689575m. Speed=7.128000m/h.</desc>
<speed>1.980000</speed>
</trkpt>
<trkpt lat="55.832359" lon="26.047844">
<ele>159.107544</ele>
<time>2010-07-17T15:58:36Z</time>
<desc>lat.=55.832359, lon.=26.047844, Alt.=159.107544m. Speed=8.496000m/h.</desc>
<speed>2.360000</speed>
</trkpt>
<trkpt lat="55.832329" lon="26.047859">
<ele>159.916138</ele>
<time>2010-07-17T15:58:37Z</time>
<desc>lat.=55.832329, lon.=26.047859, Alt.=159.916138m. Speed=8.640000m/h.</desc>
<speed>2.400000</speed>
</trkpt>
<trkpt lat="55.832302" lon="26.047878">
<ele>160.283325</ele>
<time>2010-07-17T15:58:38Z</time>
<desc>lat.=55.832302, lon.=26.047878, Alt.=160.283325m. Speed=9.684000m/h.</desc>
<speed>2.690000</speed>
</trkpt>
<trkpt lat="55.832264" lon="26.047905">
<ele>160.642700</ele>
<time>2010-07-17T15:58:39Z</time>
<desc>lat.=55.832264, lon.=26.047905, Alt.=160.642700m. Speed=8.280000m/h.</desc>
<speed>2.300000</speed>
</trkpt>
<trkpt lat="55.832233" lon="26.047922">
<ele>161.048950</ele>
<time>2010-07-17T15:58:40Z</time>
<desc>lat.=55.832233, lon.=26.047922, Alt.=161.048950m. Speed=7.380000m/h.</desc>
<speed>2.050000</speed>
</trkpt>
<trkpt lat="55.832218" lon="26.047937">
<ele>161.459106</ele>
<time>2010-07-17T15:58:41Z</time>
<desc>lat.=55.832218, lon.=26.047937, Alt.=161.459106m. Speed=5.796000m/h.</desc>
<speed>1.610000</speed>
</trkpt>
<trkpt lat="55.832203" lon="26.047951">
<ele>161.888794</ele>
<time>2010-07-17T15:58:42Z</time>
<desc>lat.=55.832203, lon.=26.047951, Alt.=161.888794m. Speed=5.904000m/h.</desc>
<speed>1.640000</speed>
</trkpt>
<trkpt lat="55.832176" lon="26.047976">
<ele>162.295044</ele>
<time>2010-07-17T15:58:43Z</time>
<desc>lat.=55.832176, lon.=26.047976, Alt.=162.295044m. Speed=6.696000m/h.</desc>
<speed>1.860000</speed>
</trkpt>
<trkpt lat="55.832146" lon="26.048000">
<ele>162.814575</ele>
<time>2010-07-17T15:58:44Z</time>
<desc>lat.=55.832146, lon.=26.048000, Alt.=162.814575m. Speed=6.588000m/h.</desc>
<speed>1.830000</speed>
</trkpt>
<trkpt lat="55.832115" lon="26.048029">
<ele>163.677856</ele>
<time>2010-07-17T15:58:45Z</time>
<desc>lat.=55.832115, lon.=26.048029, Alt.=163.677856m. Speed=7.200000m/h.</desc>
<speed>2.000000</speed>
</trkpt>
<trkpt lat="55.832096" lon="26.048058">
<ele>163.935669</ele>
<time>2010-07-17T15:58:46Z</time>
<desc>lat.=55.832096, lon.=26.048058, Alt.=163.935669m. Speed=6.984000m/h.</desc>
<speed>1.940000</speed>
</trkpt>
<trkpt lat="55.832073" lon="26.048090">
<ele>164.330200</ele>
<time>2010-07-17T15:58:47Z</time>
<desc>lat.=55.832073, lon.=26.048090, Alt.=164.330200m. Speed=9.072000m/h.</desc>
<speed>2.520000</speed>
</trkpt>
<trkpt lat="55.832027" lon="26.048141">
<ele>164.752075</ele>
<time>2010-07-17T15:58:48Z</time>
<desc>lat.=55.832027, lon.=26.048141, Alt.=164.752075m. Speed=10.764000m/h.</desc>
<speed>2.990000</speed>
</trkpt>
<trkpt lat="55.831993" lon="26.048185">
<ele>165.447388</ele>
<time>2010-07-17T15:58:49Z</time>
<desc>lat.=55.831993, lon.=26.048185, Alt.=165.447388m. Speed=10.512000m/h.</desc>
<speed>2.920000</speed>
</trkpt>
<trkpt lat="55.831963" lon="26.048214">
<ele>165.752075</ele>
<time>2010-07-17T15:58:50Z</time>
<desc>lat.=55.831963, lon.=26.048214, Alt.=165.752075m. Speed=9.720000m/h.</desc>
<speed>2.700000</speed>
</trkpt>
<trkpt lat="55.831928" lon="26.048252">
<ele>166.287231</ele>
<time>2010-07-17T15:58:51Z</time>
<desc>lat.=55.831928, lon.=26.048252, Alt.=166.287231m. Speed=8.568000m/h.</desc>
<speed>2.380000</speed>
</trkpt>
<trkpt lat="55.831905" lon="26.048275">
<ele>166.638794</ele>
<time>2010-07-17T15:58:52Z</time>
<desc>lat.=55.831905, lon.=26.048275, Alt.=166.638794m. Speed=5.904000m/h.</desc>
<speed>1.640000</speed>
</trkpt>
<trkpt lat="55.831875" lon="26.048307">
<ele>166.970825</ele>
<time>2010-07-17T15:58:53Z</time>
<desc>lat.=55.831875, lon.=26.048307, Alt.=166.970825m. Speed=6.696000m/h.</desc>
<speed>1.860000</speed>
</trkpt>
<trkpt lat="55.831852" lon="26.048330">
<ele>167.084106</ele>
<time>2010-07-17T15:58:54Z</time>
<desc>lat.=55.831852, lon.=26.048330, Alt.=167.084106m. Speed=7.596000m/h.</desc>
<speed>2.110000</speed>
</trkpt>
<trkpt lat="55.831829" lon="26.048355">
<ele>167.193481</ele>
<time>2010-07-17T15:58:55Z</time>
<desc>lat.=55.831829, lon.=26.048355, Alt.=167.193481m. Speed=8.064000m/h.</desc>
<speed>2.240000</speed>
</trkpt>
<trkpt lat="55.831799" lon="26.048384">
<ele>167.017700</ele>
<time>2010-07-17T15:58:56Z</time>
<desc>lat.=55.831799, lon.=26.048384, Alt.=167.017700m. Speed=7.632000m/h.</desc>
<speed>2.120000</speed>
</trkpt>
<trkpt lat="55.831779" lon="26.048409">
<ele>167.138794</ele>
<time>2010-07-17T15:58:57Z</time>
<desc>lat.=55.831779, lon.=26.048409, Alt.=167.138794m. Speed=6.372000m/h.</desc>
<speed>1.770000</speed>
</trkpt>
<trkpt lat="55.831760" lon="26.048433">
<ele>167.595825</ele>
<time>2010-07-17T15:58:58Z</time>
<desc>lat.=55.831760, lon.=26.048433, Alt.=167.595825m. Speed=7.020000m/h.</desc>
<speed>1.950000</speed>
</trkpt>
<trkpt lat="55.831741" lon="26.048456">
<ele>167.904419</ele>
<time>2010-07-17T15:58:59Z</time>
<desc>lat.=55.831741, lon.=26.048456, Alt.=167.904419m. Speed=6.696000m/h.</desc>
<speed>1.860000</speed>
</trkpt>
<trkpt lat="55.831726" lon="26.048470">
<ele>167.947388</ele>
<time>2010-07-17T15:59:00Z</time>
<desc>lat.=55.831726, lon.=26.048470, Alt.=167.947388m. Speed=6.948000m/h.</desc>
<speed>1.930000</speed>
</trkpt>
<trkpt lat="55.831703" lon="26.048491">
<ele>167.720825</ele>
<time>2010-07-17T15:59:01Z</time>
<desc>lat.=55.831703, lon.=26.048491, Alt.=167.720825m. Speed=8.784000m/h.</desc>
<speed>2.440000</speed>
</trkpt>
<trkpt lat="55.831676" lon="26.048513">
<ele>167.763794</ele>
<time>2010-07-17T15:59:02Z</time>
<desc>lat.=55.831676, lon.=26.048513, Alt.=167.763794m. Speed=10.224000m/h.</desc>
<speed>2.840000</speed>
</trkpt>
<trkpt lat="55.831650" lon="26.048536">
<ele>167.740356</ele>
<time>2010-07-17T15:59:03Z</time>
<desc>lat.=55.831650, lon.=26.048536, Alt.=167.740356m. Speed=12.240000m/h.</desc>
<speed>3.400000</speed>
</trkpt>
<trkpt lat="55.831615" lon="26.048559">
<ele>167.541138</ele>
<time>2010-07-17T15:59:04Z</time>
<desc>lat.=55.831615, lon.=26.048559, Alt.=167.541138m. Speed=13.464000m/h.</desc>
<speed>3.740000</speed>
</trkpt>
<trkpt lat="55.831573" lon="26.048574">
<ele>166.177856</ele>
<time>2010-07-17T15:59:05Z</time>
<desc>lat.=55.831573, lon.=26.048574, Alt.=166.177856m. Speed=13.248000m/h.</desc>
<speed>3.680000</speed>
</trkpt>
<trkpt lat="55.831535" lon="26.048595">
<ele>165.556763</ele>
<time>2010-07-17T15:59:06Z</time>
<desc>lat.=55.831535, lon.=26.048595, Alt.=165.556763m. Speed=15.948000m/h.</desc>
<speed>4.430000</speed>
</trkpt>
<trkpt lat="55.831478" lon="26.048628">
<ele>164.435669</ele>
<time>2010-07-17T15:59:07Z</time>
<desc>lat.=55.831478, lon.=26.048628, Alt.=164.435669m. Speed=18.396000m/h.</desc>
<speed>5.110000</speed>
</trkpt>
<trkpt lat="55.831440" lon="26.048658">
<ele>164.634888</ele>
<time>2010-07-17T15:59:08Z</time>
<desc>lat.=55.831440, lon.=26.048658, Alt.=164.634888m. Speed=17.532000m/h.</desc>
<speed>4.870000</speed>
</trkpt>
<trkpt lat="55.831402" lon="26.048691">
<ele>164.810669</ele>
<time>2010-07-17T15:59:09Z</time>
<desc>lat.=55.831402, lon.=26.048691, Alt.=164.810669m. Speed=19.368000m/h.</desc>
<speed>5.380000</speed>
</trkpt>
<trkpt lat="55.831360" lon="26.048733">
<ele>165.318481</ele>
<time>2010-07-17T15:59:10Z</time>
<desc>lat.=55.831360, lon.=26.048733, Alt.=165.318481m. Speed=20.375999m/h.</desc>
<speed>5.660000</speed>
</trkpt>
<trkpt lat="55.831303" lon="26.048777">
<ele>165.670044</ele>
<time>2010-07-17T15:59:11Z</time>
<desc>lat.=55.831303, lon.=26.048777, Alt.=165.670044m. Speed=21.528000m/h.</desc>
<speed>5.980000</speed>
</trkpt>
<trkpt lat="55.831253" lon="26.048817">
<ele>166.228638</ele>
<time>2010-07-17T15:59:12Z</time>
<desc>lat.=55.831253, lon.=26.048817, Alt.=166.228638m. Speed=22.427999m/h.</desc>
<speed>6.230000</speed>
</trkpt>
<trkpt lat="55.831203" lon="26.048862">
<ele>166.658325</ele>
<time>2010-07-17T15:59:13Z</time>
<desc>lat.=55.831203, lon.=26.048862, Alt.=166.658325m. Speed=22.931999m/h.</desc>
<speed>6.370000</speed>
</trkpt>
<trkpt lat="55.831158" lon="26.048916">
<ele>167.494263</ele>
<time>2010-07-17T15:59:14Z</time>
<desc>lat.=55.831158, lon.=26.048916, Alt.=167.494263m. Speed=23.544001m/h.</desc>
<speed>6.540000</speed>
</trkpt>
<trkpt lat="55.831100" lon="26.048964">
<ele>166.732544</ele>
<time>2010-07-17T15:59:15Z</time>
<desc>lat.=55.831100, lon.=26.048964, Alt.=166.732544m. Speed=23.652000m/h.</desc>
<speed>6.570000</speed>
</trkpt>
<trkpt lat="55.831047" lon="26.049015">
<ele>166.775513</ele>
<time>2010-07-17T15:59:16Z</time>
<desc>lat.=55.831047, lon.=26.049015, Alt.=166.775513m. Speed=24.048000m/h.</desc>
<speed>6.680000</speed>
</trkpt>
<trkpt lat="55.830994" lon="26.049061">
<ele>167.490356</ele>
<time>2010-07-17T15:59:17Z</time>
<desc>lat.=55.830994, lon.=26.049061, Alt.=167.490356m. Speed=24.156000m/h.</desc>
<speed>6.710000</speed>
</trkpt>
<trkpt lat="55.830936" lon="26.049101">
<ele>165.822388</ele>
<time>2010-07-17T15:59:18Z</time>
<desc>lat.=55.830936, lon.=26.049101, Alt.=165.822388m. Speed=24.299999m/h.</desc>
<speed>6.750000</speed>
</trkpt>
<trkpt lat="55.830879" lon="26.049158">
<ele>164.732544</ele>
<time>2010-07-17T15:59:19Z</time>
<desc>lat.=55.830879, lon.=26.049158, Alt.=164.732544m. Speed=25.236000m/h.</desc>
<speed>7.010000</speed>
</trkpt>
<trkpt lat="55.830814" lon="26.049204">
<ele>161.662231</ele>
<time>2010-07-17T15:59:20Z</time>
<desc>lat.=55.830814, lon.=26.049204, Alt.=161.662231m. Speed=25.091999m/h.</desc>
<speed>6.970000</speed>
</trkpt>
<trkpt lat="55.830757" lon="26.049261">
<ele>160.736450</ele>
<time>2010-07-17T15:59:21Z</time>
<desc>lat.=55.830757, lon.=26.049261, Alt.=160.736450m. Speed=24.480000m/h.</desc>
<speed>6.800000</speed>
</trkpt>
<trkpt lat="55.830700" lon="26.049318">
<ele>160.080200</ele>
<time>2010-07-17T15:59:22Z</time>
<desc>lat.=55.830700, lon.=26.049318, Alt.=160.080200m. Speed=25.308001m/h.</desc>
<speed>7.030000</speed>
</trkpt>
<trkpt lat="55.830650" lon="26.049366">
<ele>160.670044</ele>
<time>2010-07-17T15:59:23Z</time>
<desc>lat.=55.830650, lon.=26.049366, Alt.=160.670044m. Speed=22.931999m/h.</desc>
<speed>6.370000</speed>
</trkpt>
<trkpt lat="55.830608" lon="26.049398">
<ele>160.416138</ele>
<time>2010-07-17T15:59:24Z</time>
<desc>lat.=55.830608, lon.=26.049398, Alt.=160.416138m. Speed=18.143999m/h.</desc>
<speed>5.040000</speed>
</trkpt>
<trkpt lat="55.830559" lon="26.049431">
<ele>160.127075</ele>
<time>2010-07-17T15:59:25Z</time>
<desc>lat.=55.830559, lon.=26.049431, Alt.=160.127075m. Speed=18.576000m/h.</desc>
<speed>5.160000</speed>
</trkpt>
<trkpt lat="55.830528" lon="26.049467">
<ele>159.134888</ele>
<time>2010-07-17T15:59:26Z</time>
<desc>lat.=55.830528, lon.=26.049467, Alt.=159.134888m. Speed=15.120000m/h.</desc>
<speed>4.200000</speed>
</trkpt>
<trkpt lat="55.830498" lon="26.049484">
<ele>159.287231</ele>
<time>2010-07-17T15:59:27Z</time>
<desc>lat.=55.830498, lon.=26.049484, Alt.=159.287231m. Speed=14.184000m/h.</desc>
<speed>3.940000</speed>
</trkpt>
<trkpt lat="55.830471" lon="26.049498">
<ele>159.365356</ele>
<time>2010-07-17T15:59:28Z</time>
<desc>lat.=55.830471, lon.=26.049498, Alt.=159.365356m. Speed=9.504000m/h.</desc>
<speed>2.640000</speed>
</trkpt>
<trkpt lat="55.830452" lon="26.049515">
<ele>159.775513</ele>
<time>2010-07-17T15:59:29Z</time>
<desc>lat.=55.830452, lon.=26.049515, Alt.=159.775513m. Speed=9.648000m/h.</desc>
<speed>2.680000</speed>
</trkpt>
<trkpt lat="55.830437" lon="26.049534">
<ele>159.091919</ele>
<time>2010-07-17T15:59:30Z</time>
<desc>lat.=55.830437, lon.=26.049534, Alt.=159.091919m. Speed=7.380000m/h.</desc>
<speed>2.050000</speed>
</trkpt>
<trkpt lat="55.830421" lon="26.049559">
<ele>157.935669</ele>
<time>2010-07-17T15:59:31Z</time>
<desc>lat.=55.830421, lon.=26.049559, Alt.=157.935669m. Speed=7.092000m/h.</desc>
<speed>1.970000</speed>
</trkpt>
<trkpt lat="55.830402" lon="26.049587">
<ele>157.849731</ele>
<time>2010-07-17T15:59:32Z</time>
<desc>lat.=55.830402, lon.=26.049587, Alt.=157.849731m. Speed=6.912000m/h.</desc>
<speed>1.920000</speed>
</trkpt>
<trkpt lat="55.830383" lon="26.049614">
<ele>157.435669</ele>
<time>2010-07-17T15:59:33Z</time>
<desc>lat.=55.830383, lon.=26.049614, Alt.=157.435669m. Speed=6.660000m/h.</desc>
<speed>1.850000</speed>
</trkpt>
<trkpt lat="55.830357" lon="26.049633">
<ele>157.119263</ele>
<time>2010-07-17T15:59:34Z</time>
<desc>lat.=55.830357, lon.=26.049633, Alt.=157.119263m. Speed=8.208000m/h.</desc>
<speed>2.280000</speed>
</trkpt>
<trkpt lat="55.830338" lon="26.049650">
<ele>156.998169</ele>
<time>2010-07-17T15:59:35Z</time>
<desc>lat.=55.830338, lon.=26.049650, Alt.=156.998169m. Speed=5.040000m/h.</desc>
<speed>1.400000</speed>
</trkpt>
<trkpt lat="55.830322" lon="26.049665">
<ele>157.154419</ele>
<time>2010-07-17T15:59:36Z</time>
<desc>lat.=55.830322, lon.=26.049665, Alt.=157.154419m. Speed=6.588000m/h.</desc>
<speed>1.830000</speed>
</trkpt>
<trkpt lat="55.830307" lon="26.049685">
<ele>157.295044</ele>
<time>2010-07-17T15:59:37Z</time>
<desc>lat.=55.830307, lon.=26.049685, Alt.=157.295044m. Speed=7.524000m/h.</desc>
<speed>2.090000</speed>
</trkpt>
<trkpt lat="55.830284" lon="26.049713">
<ele>156.884888</ele>
<time>2010-07-17T15:59:38Z</time>
<desc>lat.=55.830284, lon.=26.049713, Alt.=156.884888m. Speed=7.452000m/h.</desc>
<speed>2.070000</speed>
</trkpt>
<trkpt lat="55.830269" lon="26.049730">
<ele>156.912231</ele>
<time>2010-07-17T15:59:39Z</time>
<desc>lat.=55.830269, lon.=26.049730, Alt.=156.912231m. Speed=5.760000m/h.</desc>
<speed>1.600000</speed>
</trkpt>
<trkpt lat="55.830250" lon="26.049746">
<ele>157.255981</ele>
<time>2010-07-17T15:59:40Z</time>
<desc>lat.=55.830250, lon.=26.049746, Alt.=157.255981m. Speed=7.200000m/h.</desc>
<speed>2.000000</speed>
</trkpt>
<trkpt lat="55.830227" lon="26.049761">
<ele>157.916138</ele>
<time>2010-07-17T15:59:41Z</time>
<desc>lat.=55.830227, lon.=26.049761, Alt.=157.916138m. Speed=9.180000m/h.</desc>
<speed>2.550000</speed>
</trkpt>
<trkpt lat="55.830208" lon="26.049784">
<ele>158.220825</ele>
<time>2010-07-17T15:59:42Z</time>
<desc>lat.=55.830208, lon.=26.049784, Alt.=158.220825m. Speed=7.272000m/h.</desc>
<speed>2.020000</speed>
</trkpt>
<trkpt lat="55.830193" lon="26.049814">
<ele>158.127075</ele>
<time>2010-07-17T15:59:43Z</time>
<desc>lat.=55.830193, lon.=26.049814, Alt.=158.127075m. Speed=8.208000m/h.</desc>
<speed>2.280000</speed>
</trkpt>
<trkpt lat="55.830177" lon="26.049837">
<ele>157.709106</ele>
<time>2010-07-17T15:59:44Z</time>
<desc>lat.=55.830177, lon.=26.049837, Alt.=157.709106m. Speed=7.164000m/h.</desc>
<speed>1.990000</speed>
</trkpt>
<trkpt lat="55.830162" lon="26.049856">
<ele>157.353638</ele>
<time>2010-07-17T15:59:45Z</time>
<desc>lat.=55.830162, lon.=26.049856, Alt.=157.353638m. Speed=5.940000m/h.</desc>
<speed>1.650000</speed>
</trkpt>
<trkpt lat="55.830139" lon="26.049881">
<ele>157.576294</ele>
<time>2010-07-17T15:59:46Z</time>
<desc>lat.=55.830139, lon.=26.049881, Alt.=157.576294m. Speed=9.648000m/h.</desc>
<speed>2.680000</speed>
</trkpt>
<trkpt lat="55.830101" lon="26.049917">
<ele>157.013794</ele>
<time>2010-07-17T15:59:47Z</time>
<desc>lat.=55.830101, lon.=26.049917, Alt.=157.013794m. Speed=7.740000m/h.</desc>
<speed>2.150000</speed>
</trkpt>
<trkpt lat="55.830086" lon="26.049940">
<ele>156.584106</ele>
<time>2010-07-17T15:59:48Z</time>
<desc>lat.=55.830086, lon.=26.049940, Alt.=156.584106m. Speed=8.316000m/h.</desc>
<speed>2.310000</speed>
</trkpt>
<trkpt lat="55.830070" lon="26.049961">
<ele>156.763794</ele>
<time>2010-07-17T15:59:49Z</time>
<desc>lat.=55.830070, lon.=26.049961, Alt.=156.763794m. Speed=6.192000m/h.</desc>
<speed>1.720000</speed>
</trkpt>
<trkpt lat="55.830059" lon="26.049974">
<ele>156.830200</ele>
<time>2010-07-17T15:59:50Z</time>
<desc>lat.=55.830059, lon.=26.049974, Alt.=156.830200m. Speed=7.164000m/h.</desc>
<speed>1.990000</speed>
</trkpt>
<trkpt lat="55.830044" lon="26.049990">
<ele>156.705200</ele>
<time>2010-07-17T15:59:51Z</time>
<desc>lat.=55.830044, lon.=26.049990, Alt.=156.705200m. Speed=6.480000m/h.</desc>
<speed>1.800000</speed>
</trkpt>
<trkpt lat="55.830021" lon="26.050005">
<ele>156.892700</ele>
<time>2010-07-17T15:59:52Z</time>
<desc>lat.=55.830021, lon.=26.050005, Alt.=156.892700m. Speed=7.380000m/h.</desc>
<speed>2.050000</speed>
</trkpt>
<trkpt lat="55.830013" lon="26.050020">
<ele>157.134888</ele>
<time>2010-07-17T15:59:53Z</time>
<desc>lat.=55.830013, lon.=26.050020, Alt.=157.134888m. Speed=6.300000m/h.</desc>
<speed>1.750000</speed>
</trkpt>
<trkpt lat="55.830002" lon="26.050032">
<ele>157.603638</ele>
<time>2010-07-17T15:59:54Z</time>
<desc>lat.=55.830002, lon.=26.050032, Alt.=157.603638m. Speed=5.544000m/h.</desc>
<speed>1.540000</speed>
</trkpt>
<trkpt lat="55.829987" lon="26.050043">
<ele>157.798950</ele>
<time>2010-07-17T15:59:55Z</time>
<desc>lat.=55.829987, lon.=26.050043, Alt.=157.798950m. Speed=3.744000m/h.</desc>
<speed>1.040000</speed>
</trkpt>
<trkpt lat="55.829979" lon="26.050051">
<ele>158.173950</ele>
<time>2010-07-17T15:59:56Z</time>
<desc>lat.=55.829979, lon.=26.050051, Alt.=158.173950m. Speed=3.780000m/h.</desc>
<speed>1.050000</speed>
</trkpt>
<trkpt lat="55.829971" lon="26.050062">
<ele>158.416138</ele>
<time>2010-07-17T15:59:57Z</time>
<desc>lat.=55.829971, lon.=26.050062, Alt.=158.416138m. Speed=5.616000m/h.</desc>
<speed>1.560000</speed>
</trkpt>
<trkpt lat="55.829952" lon="26.050077">
<ele>158.564575</ele>
<time>2010-07-17T15:59:58Z</time>
<desc>lat.=55.829952, lon.=26.050077, Alt.=158.564575m. Speed=7.164000m/h.</desc>
<speed>1.990000</speed>
</trkpt>
<trkpt lat="55.829933" lon="26.050091">
<ele>158.345825</ele>
<time>2010-07-17T15:59:59Z</time>
<desc>lat.=55.829933, lon.=26.050091, Alt.=158.345825m. Speed=7.920000m/h.</desc>
<speed>2.200000</speed>
</trkpt>
<trkpt lat="55.829914" lon="26.050102">
<ele>158.216919</ele>
<time>2010-07-17T16:00:00Z</time>
<desc>lat.=55.829914, lon.=26.050102, Alt.=158.216919m. Speed=7.236000m/h.</desc>
<speed>2.010000</speed>
</trkpt>
<trkpt lat="55.829895" lon="26.050121">
<ele>158.470825</ele>
<time>2010-07-17T16:00:01Z</time>
<desc>lat.=55.829895, lon.=26.050121, Alt.=158.470825m. Speed=7.236000m/h.</desc>
<speed>2.010000</speed>
</trkpt>
<trkpt lat="55.829880" lon="26.050135">
<ele>158.466919</ele>
<time>2010-07-17T16:00:02Z</time>
<desc>lat.=55.829880, lon.=26.050135, Alt.=158.466919m. Speed=6.120000m/h.</desc>
<speed>1.700000</speed>
</trkpt>
<trkpt lat="55.829868" lon="26.050148">
<ele>158.564575</ele>
<time>2010-07-17T16:00:03Z</time>
<desc>lat.=55.829868, lon.=26.050148, Alt.=158.564575m. Speed=5.256000m/h.</desc>
<speed>1.460000</speed>
</trkpt>
<trkpt lat="55.829857" lon="26.050159">
<ele>158.568481</ele>
<time>2010-07-17T16:00:04Z</time>
<desc>lat.=55.829857, lon.=26.050159, Alt.=158.568481m. Speed=5.256000m/h.</desc>
<speed>1.460000</speed>
</trkpt>
<trkpt lat="55.829842" lon="26.050175">
<ele>158.572388</ele>
<time>2010-07-17T16:00:05Z</time>
<desc>lat.=55.829842, lon.=26.050175, Alt.=158.572388m. Speed=5.868000m/h.</desc>
<speed>1.630000</speed>
</trkpt>
<trkpt lat="55.829830" lon="26.050188">
<ele>158.580200</ele>
<time>2010-07-17T16:00:06Z</time>
<desc>lat.=55.829830, lon.=26.050188, Alt.=158.580200m. Speed=6.948000m/h.</desc>
<speed>1.930000</speed>
</trkpt>
<trkpt lat="55.829811" lon="26.050205">
<ele>158.568481</ele>
<time>2010-07-17T16:00:07Z</time>
<desc>lat.=55.829811, lon.=26.050205, Alt.=158.568481m. Speed=7.020000m/h.</desc>
<speed>1.950000</speed>
</trkpt>
<trkpt lat="55.829796" lon="26.050220">
<ele>158.470825</ele>
<time>2010-07-17T16:00:08Z</time>
<desc>lat.=55.829796, lon.=26.050220, Alt.=158.470825m. Speed=6.516000m/h.</desc>
<speed>1.810000</speed>
</trkpt>
<trkpt lat="55.829781" lon="26.050234">
<ele>158.466919</ele>
<time>2010-07-17T16:00:09Z</time>
<desc>lat.=55.829781, lon.=26.050234, Alt.=158.466919m. Speed=7.632000m/h.</desc>
<speed>2.120000</speed>
</trkpt>
<trkpt lat="55.829758" lon="26.050259">
<ele>158.494263</ele>
<time>2010-07-17T16:00:10Z</time>
<desc>lat.=55.829758, lon.=26.050259, Alt.=158.494263m. Speed=7.884000m/h.</desc>
<speed>2.190000</speed>
</trkpt>
<trkpt lat="55.829742" lon="26.050278">
<ele>158.466919</ele>
<time>2010-07-17T16:00:11Z</time>
<desc>lat.=55.829742, lon.=26.050278, Alt.=158.466919m. Speed=7.920000m/h.</desc>
<speed>2.200000</speed>
</trkpt>
<trkpt lat="55.829708" lon="26.050304">
<ele>158.244263</ele>
<time>2010-07-17T16:00:12Z</time>
<desc>lat.=55.829708, lon.=26.050304, Alt.=158.244263m. Speed=10.692000m/h.</desc>
<speed>2.970000</speed>
</trkpt>
<trkpt lat="55.829685" lon="26.050327">
<ele>158.088013</ele>
<time>2010-07-17T16:00:13Z</time>
<desc>lat.=55.829685, lon.=26.050327, Alt.=158.088013m. Speed=10.512000m/h.</desc>
<speed>2.920000</speed>
</trkpt>
<trkpt lat="55.829659" lon="26.050352">
<ele>157.783325</ele>
<time>2010-07-17T16:00:14Z</time>
<desc>lat.=55.829659, lon.=26.050352, Alt.=157.783325m. Speed=10.116000m/h.</desc>
<speed>2.810000</speed>
</trkpt>
<trkpt lat="55.829632" lon="26.050373">
<ele>157.548950</ele>
<time>2010-07-17T16:00:15Z</time>
<desc>lat.=55.829632, lon.=26.050373, Alt.=157.548950m. Speed=11.016000m/h.</desc>
<speed>3.060000</speed>
</trkpt>
<trkpt lat="55.829609" lon="26.050396">
<ele>157.412231</ele>
<time>2010-07-17T16:00:16Z</time>
<desc>lat.=55.829609, lon.=26.050396, Alt.=157.412231m. Speed=10.404000m/h.</desc>
<speed>2.890000</speed>
</trkpt>
<trkpt lat="55.829586" lon="26.050419">
<ele>157.275513</ele>
<time>2010-07-17T16:00:17Z</time>
<desc>lat.=55.829586, lon.=26.050419, Alt.=157.275513m. Speed=10.656000m/h.</desc>
<speed>2.960000</speed>
</trkpt>
<trkpt lat="55.829563" lon="26.050446">
<ele>157.084106</ele>
<time>2010-07-17T16:00:18Z</time>
<desc>lat.=55.829563, lon.=26.050446, Alt.=157.084106m. Speed=11.448000m/h.</desc>
<speed>3.180000</speed>
</trkpt>
<trkpt lat="55.829533" lon="26.050472">
<ele>157.193481</ele>
<time>2010-07-17T16:00:19Z</time>
<desc>lat.=55.829533, lon.=26.050472, Alt.=157.193481m. Speed=12.024000m/h.</desc>
<speed>3.340000</speed>
</trkpt>
<trkpt lat="55.829502" lon="26.050497">
<ele>157.037231</ele>
<time>2010-07-17T16:00:20Z</time>
<desc>lat.=55.829502, lon.=26.050497, Alt.=157.037231m. Speed=12.636000m/h.</desc>
<speed>3.510000</speed>
</trkpt>
<trkpt lat="55.829475" lon="26.050524">
<ele>156.818481</ele>
<time>2010-07-17T16:00:21Z</time>
<desc>lat.=55.829475, lon.=26.050524, Alt.=156.818481m. Speed=14.400000m/h.</desc>
<speed>4.000000</speed>
</trkpt>
<trkpt lat="55.829441" lon="26.050554">
<ele>156.232544</ele>
<time>2010-07-17T16:00:22Z</time>
<desc>lat.=55.829441, lon.=26.050554, Alt.=156.232544m. Speed=14.832000m/h.</desc>
<speed>4.120000</speed>
</trkpt>
<trkpt lat="55.829407" lon="26.050587">
<ele>156.084106</ele>
<time>2010-07-17T16:00:23Z</time>
<desc>lat.=55.829407, lon.=26.050587, Alt.=156.084106m. Speed=15.120000m/h.</desc>
<speed>4.200000</speed>
</trkpt>
<trkpt lat="55.829369" lon="26.050615">
<ele>156.041138</ele>
<time>2010-07-17T16:00:24Z</time>
<desc>lat.=55.829369, lon.=26.050615, Alt.=156.041138m. Speed=14.832000m/h.</desc>
<speed>4.120000</speed>
</trkpt>
<trkpt lat="55.829334" lon="26.050648">
<ele>155.998169</ele>
<time>2010-07-17T16:00:25Z</time>
<desc>lat.=55.829334, lon.=26.050648, Alt.=155.998169m. Speed=16.452000m/h.</desc>
<speed>4.570000</speed>
</trkpt>
<trkpt lat="55.829308" lon="26.050678">
<ele>155.966919</ele>
<time>2010-07-17T16:00:26Z</time>
<desc>lat.=55.829308, lon.=26.050678, Alt.=155.966919m. Speed=14.688000m/h.</desc>
<speed>4.080000</speed>
</trkpt>
<trkpt lat="55.829277" lon="26.050705">
<ele>156.072388</ele>
<time>2010-07-17T16:00:27Z</time>
<desc>lat.=55.829277, lon.=26.050705, Alt.=156.072388m. Speed=14.508000m/h.</desc>
<speed>4.030000</speed>
</trkpt>
<trkpt lat="55.829247" lon="26.050728">
<ele>156.486450</ele>
<time>2010-07-17T16:00:28Z</time>
<desc>lat.=55.829247, lon.=26.050728, Alt.=156.486450m. Speed=13.680000m/h.</desc>
<speed>3.800000</speed>
</trkpt>
<trkpt lat="55.829212" lon="26.050755">
<ele>156.443481</ele>
<time>2010-07-17T16:00:29Z</time>
<desc>lat.=55.829212, lon.=26.050755, Alt.=156.443481m. Speed=13.680000m/h.</desc>
<speed>3.800000</speed>
</trkpt>
<trkpt lat="55.829182" lon="26.050781">
<ele>156.173950</ele>
<time>2010-07-17T16:00:30Z</time>
<desc>lat.=55.829182, lon.=26.050781, Alt.=156.173950m. Speed=13.536000m/h.</desc>
<speed>3.760000</speed>
</trkpt>
<trkpt lat="55.829151" lon="26.050804">
<ele>156.244263</ele>
<time>2010-07-17T16:00:31Z</time>
<desc>lat.=55.829151, lon.=26.050804, Alt.=156.244263m. Speed=12.744000m/h.</desc>
<speed>3.540000</speed>
</trkpt>
<trkpt lat="55.829124" lon="26.050829">
<ele>155.908325</ele>
<time>2010-07-17T16:00:32Z</time>
<desc>lat.=55.829124, lon.=26.050829, Alt.=155.908325m. Speed=12.924000m/h.</desc>
<speed>3.590000</speed>
</trkpt>
<trkpt lat="55.829105" lon="26.050858">
<ele>155.623169</ele>
<time>2010-07-17T16:00:33Z</time>
<desc>lat.=55.829105, lon.=26.050858, Alt.=155.623169m. Speed=12.744000m/h.</desc>
<speed>3.540000</speed>
</trkpt>
<trkpt lat="55.829075" lon="26.050880">
<ele>156.373169</ele>
<time>2010-07-17T16:00:34Z</time>
<desc>lat.=55.829075, lon.=26.050880, Alt.=156.373169m. Speed=12.204000m/h.</desc>
<speed>3.390000</speed>
</trkpt>
<trkpt lat="55.829048" lon="26.050909">
<ele>156.732544</ele>
<time>2010-07-17T16:00:35Z</time>
<desc>lat.=55.829048, lon.=26.050909, Alt.=156.732544m. Speed=11.844000m/h.</desc>
<speed>3.290000</speed>
</trkpt>
<trkpt lat="55.829021" lon="26.050943">
<ele>157.505981</ele>
<time>2010-07-17T16:00:36Z</time>
<desc>lat.=55.829021, lon.=26.050943, Alt.=157.505981m. Speed=12.852000m/h.</desc>
<speed>3.570000</speed>
</trkpt>
<trkpt lat="55.828991" lon="26.050970">
<ele>157.463013</ele>
<time>2010-07-17T16:00:37Z</time>
<desc>lat.=55.828991, lon.=26.050970, Alt.=157.463013m. Speed=13.104000m/h.</desc>
<speed>3.640000</speed>
</trkpt>
<trkpt lat="55.828960" lon="26.050997">
<ele>157.584106</ele>
<time>2010-07-17T16:00:38Z</time>
<desc>lat.=55.828960, lon.=26.050997, Alt.=157.584106m. Speed=12.852000m/h.</desc>
<speed>3.570000</speed>
</trkpt>
<trkpt lat="55.828922" lon="26.051027">
<ele>157.685669</ele>
<time>2010-07-17T16:00:39Z</time>
<desc>lat.=55.828922, lon.=26.051027, Alt.=157.685669m. Speed=14.040000m/h.</desc>
<speed>3.900000</speed>
</trkpt>
<trkpt lat="55.828884" lon="26.051060">
<ele>157.767700</ele>
<time>2010-07-17T16:00:40Z</time>
<desc>lat.=55.828884, lon.=26.051060, Alt.=157.767700m. Speed=15.444000m/h.</desc>
<speed>4.290000</speed>
</trkpt>
<trkpt lat="55.828842" lon="26.051100">
<ele>157.931763</ele>
<time>2010-07-17T16:00:41Z</time>
<desc>lat.=55.828842, lon.=26.051100, Alt.=157.931763m. Speed=18.323999m/h.</desc>
<speed>5.090000</speed>
</trkpt>
<trkpt lat="55.828796" lon="26.051138">
<ele>158.201294</ele>
<time>2010-07-17T16:00:42Z</time>
<desc>lat.=55.828796, lon.=26.051138, Alt.=158.201294m. Speed=18.792000m/h.</desc>
<speed>5.220000</speed>
</trkpt>
<trkpt lat="55.828754" lon="26.051172">
<ele>157.943481</ele>
<time>2010-07-17T16:00:43Z</time>
<desc>lat.=55.828754, lon.=26.051172, Alt.=157.943481m. Speed=16.667999m/h.</desc>
<speed>4.630000</speed>
</trkpt>
<trkpt lat="55.828709" lon="26.051212">
<ele>157.474731</ele>
<time>2010-07-17T16:00:44Z</time>
<desc>lat.=55.828709, lon.=26.051212, Alt.=157.474731m. Speed=18.864000m/h.</desc>
<speed>5.240000</speed>
</trkpt>
<trkpt lat="55.828659" lon="26.051256">
<ele>156.920044</ele>
<time>2010-07-17T16:00:45Z</time>
<desc>lat.=55.828659, lon.=26.051256, Alt.=156.920044m. Speed=20.340000m/h.</desc>
<speed>5.650000</speed>
</trkpt>
<trkpt lat="55.828606" lon="26.051304">
<ele>156.490356</ele>
<time>2010-07-17T16:00:46Z</time>
<desc>lat.=55.828606, lon.=26.051304, Alt.=156.490356m. Speed=19.332001m/h.</desc>
<speed>5.370000</speed>
</trkpt>
<trkpt lat="55.828556" lon="26.051348">
<ele>156.076294</ele>
<time>2010-07-17T16:00:47Z</time>
<desc>lat.=55.828556, lon.=26.051348, Alt.=156.076294m. Speed=21.600000m/h.</desc>
<speed>6.000000</speed>
</trkpt>
<trkpt lat="55.828510" lon="26.051392">
<ele>155.935669</ele>
<time>2010-07-17T16:00:48Z</time>
<desc>lat.=55.828510, lon.=26.051392, Alt.=155.935669m. Speed=20.052000m/h.</desc>
<speed>5.570000</speed>
</trkpt>
<trkpt lat="55.828465" lon="26.051435">
<ele>155.716919</ele>
<time>2010-07-17T16:00:49Z</time>
<desc>lat.=55.828465, lon.=26.051435, Alt.=155.716919m. Speed=20.375999m/h.</desc>
<speed>5.660000</speed>
</trkpt>
<trkpt lat="55.828423" lon="26.051479">
<ele>155.423950</ele>
<time>2010-07-17T16:00:50Z</time>
<desc>lat.=55.828423, lon.=26.051479, Alt.=155.423950m. Speed=18.684000m/h.</desc>
<speed>5.190000</speed>
</trkpt>
<trkpt lat="55.828384" lon="26.051517">
<ele>155.107544</ele>
<time>2010-07-17T16:00:51Z</time>
<desc>lat.=55.828384, lon.=26.051517, Alt.=155.107544m. Speed=16.128000m/h.</desc>
<speed>4.480000</speed>
</trkpt>
<trkpt lat="55.828339" lon="26.051559">
<ele>154.978638</ele>
<time>2010-07-17T16:00:52Z</time>
<desc>lat.=55.828339, lon.=26.051559, Alt.=154.978638m. Speed=17.100000m/h.</desc>
<speed>4.750000</speed>
</trkpt>
<trkpt lat="55.828289" lon="26.051603">
<ele>154.388794</ele>
<time>2010-07-17T16:00:53Z</time>
<desc>lat.=55.828289, lon.=26.051603, Alt.=154.388794m. Speed=17.136000m/h.</desc>
<speed>4.760000</speed>
</trkpt>
<trkpt lat="55.828251" lon="26.051636">
<ele>154.330200</ele>
<time>2010-07-17T16:00:54Z</time>
<desc>lat.=55.828251, lon.=26.051636, Alt.=154.330200m. Speed=15.876000m/h.</desc>
<speed>4.410000</speed>
</trkpt>
<trkpt lat="55.828205" lon="26.051680">
<ele>154.224731</ele>
<time>2010-07-17T16:00:55Z</time>
<desc>lat.=55.828205, lon.=26.051680, Alt.=154.224731m. Speed=14.652000m/h.</desc>
<speed>4.070000</speed>
</trkpt>
<trkpt lat="55.828167" lon="26.051714">
<ele>154.166138</ele>
<time>2010-07-17T16:00:56Z</time>
<desc>lat.=55.828167, lon.=26.051714, Alt.=154.166138m. Speed=15.444000m/h.</desc>
<speed>4.290000</speed>
</trkpt>
<trkpt lat="55.828133" lon="26.051744">
<ele>154.259888</ele>
<time>2010-07-17T16:00:57Z</time>
<desc>lat.=55.828133, lon.=26.051744, Alt.=154.259888m. Speed=13.644000m/h.</desc>
<speed>3.790000</speed>
</trkpt>
<trkpt lat="55.828094" lon="26.051775">
<ele>154.045044</ele>
<time>2010-07-17T16:00:58Z</time>
<desc>lat.=55.828094, lon.=26.051775, Alt.=154.045044m. Speed=10.476000m/h.</desc>
<speed>2.910000</speed>
</trkpt>
<trkpt lat="55.828072" lon="26.051792">
<ele>153.978638</ele>
<time>2010-07-17T16:00:59Z</time>
<desc>lat.=55.828072, lon.=26.051792, Alt.=153.978638m. Speed=9.540000m/h.</desc>
<speed>2.650000</speed>
</trkpt>
<trkpt lat="55.828045" lon="26.051813">
<ele>153.810669</ele>
<time>2010-07-17T16:01:00Z</time>
<desc>lat.=55.828045, lon.=26.051813, Alt.=153.810669m. Speed=9.864000m/h.</desc>
<speed>2.740000</speed>
</trkpt>
<trkpt lat="55.828018" lon="26.051836">
<ele>153.752075</ele>
<time>2010-07-17T16:01:01Z</time>
<desc>lat.=55.828018, lon.=26.051836, Alt.=153.752075m. Speed=10.188000m/h.</desc>
<speed>2.830000</speed>
</trkpt>
<trkpt lat="55.827995" lon="26.051853">
<ele>153.818481</ele>
<time>2010-07-17T16:01:02Z</time>
<desc>lat.=55.827995, lon.=26.051853, Alt.=153.818481m. Speed=9.612000m/h.</desc>
<speed>2.670000</speed>
</trkpt>
<trkpt lat="55.827972" lon="26.051863">
<ele>153.959106</ele>
<time>2010-07-17T16:01:03Z</time>
<desc>lat.=55.827972, lon.=26.051863, Alt.=153.959106m. Speed=8.352000m/h.</desc>
<speed>2.320000</speed>
</trkpt>
<trkpt lat="55.827953" lon="26.051876">
<ele>154.060669</ele>
<time>2010-07-17T16:01:04Z</time>
<desc>lat.=55.827953, lon.=26.051876, Alt.=154.060669m. Speed=8.172000m/h.</desc>
<speed>2.270000</speed>
</trkpt>
<trkpt lat="55.827927" lon="26.051891">
<ele>154.295044</ele>
<time>2010-07-17T16:01:05Z</time>
<desc>lat.=55.827927, lon.=26.051891, Alt.=154.295044m. Speed=8.928000m/h.</desc>
<speed>2.480000</speed>
</trkpt>
<trkpt lat="55.827904" lon="26.051918">
<ele>154.529419</ele>
<time>2010-07-17T16:01:06Z</time>
<desc>lat.=55.827904, lon.=26.051918, Alt.=154.529419m. Speed=9.648000m/h.</desc>
<speed>2.680000</speed>
</trkpt>
<trkpt lat="55.827873" lon="26.051939">
<ele>154.834106</ele>
<time>2010-07-17T16:01:07Z</time>
<desc>lat.=55.827873, lon.=26.051939, Alt.=154.834106m. Speed=9.756000m/h.</desc>
<speed>2.710000</speed>
</trkpt>
<trkpt lat="55.827843" lon="26.051960">
<ele>155.162231</ele>
<time>2010-07-17T16:01:08Z</time>
<desc>lat.=55.827843, lon.=26.051960, Alt.=155.162231m. Speed=10.728000m/h.</desc>
<speed>2.980000</speed>
</trkpt>
<trkpt lat="55.827816" lon="26.051987">
<ele>155.170044</ele>
<time>2010-07-17T16:01:09Z</time>
<desc>lat.=55.827816, lon.=26.051987, Alt.=155.170044m. Speed=8.568000m/h.</desc>
<speed>2.380000</speed>
</trkpt>
<trkpt lat="55.827785" lon="26.052019">
<ele>155.037231</ele>
<time>2010-07-17T16:01:10Z</time>
<desc>lat.=55.827785, lon.=26.052019, Alt.=155.037231m. Speed=7.416000m/h.</desc>
<speed>2.060000</speed>
</trkpt>
<trkpt lat="55.827759" lon="26.052048">
<ele>154.439575</ele>
<time>2010-07-17T16:01:11Z</time>
<desc>lat.=55.827759, lon.=26.052048, Alt.=154.439575m. Speed=7.884000m/h.</desc>
<speed>2.190000</speed>
</trkpt>
<trkpt lat="55.827744" lon="26.052061">
<ele>154.513794</ele>
<time>2010-07-17T16:01:12Z</time>
<desc>lat.=55.827744, lon.=26.052061, Alt.=154.513794m. Speed=7.308000m/h.</desc>
<speed>2.030000</speed>
</trkpt>
<trkpt lat="55.827724" lon="26.052080">
<ele>154.709106</ele>
<time>2010-07-17T16:01:13Z</time>
<desc>lat.=55.827724, lon.=26.052080, Alt.=154.709106m. Speed=6.192000m/h.</desc>
<speed>1.720000</speed>
</trkpt>
<trkpt lat="55.827709" lon="26.052092">
<ele>154.869263</ele>
<time>2010-07-17T16:01:14Z</time>
<desc>lat.=55.827709, lon.=26.052092, Alt.=154.869263m. Speed=5.040000m/h.</desc>
<speed>1.400000</speed>
</trkpt>
<trkpt lat="55.827694" lon="26.052099">
<ele>154.736450</ele>
<time>2010-07-17T16:01:15Z</time>
<desc>lat.=55.827694, lon.=26.052099, Alt.=154.736450m. Speed=5.508000m/h.</desc>
<speed>1.530000</speed>
</trkpt>
<trkpt lat="55.827663" lon="26.052122">
<ele>154.513794</ele>
<time>2010-07-17T16:01:16Z</time>
<desc>lat.=55.827663, lon.=26.052122, Alt.=154.513794m. Speed=8.388000m/h.</desc>
<speed>2.330000</speed>
</trkpt>
<trkpt lat="55.827644" lon="26.052135">
<ele>154.795044</ele>
<time>2010-07-17T16:01:17Z</time>
<desc>lat.=55.827644, lon.=26.052135, Alt.=154.795044m. Speed=6.912000m/h.</desc>
<speed>1.920000</speed>
</trkpt>
<trkpt lat="55.827629" lon="26.052149">
<ele>155.170044</ele>
<time>2010-07-17T16:01:18Z</time>
<desc>lat.=55.827629, lon.=26.052149, Alt.=155.170044m. Speed=8.172000m/h.</desc>
<speed>2.270000</speed>
</trkpt>
<trkpt lat="55.827606" lon="26.052166">
<ele>155.322388</ele>
<time>2010-07-17T16:01:19Z</time>
<desc>lat.=55.827606, lon.=26.052166, Alt.=155.322388m. Speed=8.280000m/h.</desc>
<speed>2.300000</speed>
</trkpt>
<trkpt lat="55.827587" lon="26.052179">
<ele>155.552856</ele>
<time>2010-07-17T16:01:20Z</time>
<desc>lat.=55.827587, lon.=26.052179, Alt.=155.552856m. Speed=7.416000m/h.</desc>
<speed>2.060000</speed>
</trkpt>
<trkpt lat="55.827568" lon="26.052189">
<ele>155.775513</ele>
<time>2010-07-17T16:01:21Z</time>
<desc>lat.=55.827568, lon.=26.052189, Alt.=155.775513m. Speed=7.992000m/h.</desc>
<speed>2.220000</speed>
</trkpt>
<trkpt lat="55.827549" lon="26.052197">
<ele>155.787231</ele>
<time>2010-07-17T16:01:22Z</time>
<desc>lat.=55.827549, lon.=26.052197, Alt.=155.787231m. Speed=7.668000m/h.</desc>
<speed>2.130000</speed>
</trkpt>
<trkpt lat="55.827534" lon="26.052202">
<ele>155.865356</ele>
<time>2010-07-17T16:01:23Z</time>
<desc>lat.=55.827534, lon.=26.052202, Alt.=155.865356m. Speed=7.092000m/h.</desc>
<speed>1.970000</speed>
</trkpt>
<trkpt lat="55.827515" lon="26.052208">
<ele>155.998169</ele>
<time>2010-07-17T16:01:24Z</time>
<desc>lat.=55.827515, lon.=26.052208, Alt.=155.998169m. Speed=6.372000m/h.</desc>
<speed>1.770000</speed>
</trkpt>
<trkpt lat="55.827499" lon="26.052214">
<ele>156.232544</ele>
<time>2010-07-17T16:01:25Z</time>
<desc>lat.=55.827499, lon.=26.052214, Alt.=156.232544m. Speed=7.236000m/h.</desc>
<speed>2.010000</speed>
</trkpt>
<trkpt lat="55.827477" lon="26.052219">
<ele>156.627075</ele>
<time>2010-07-17T16:01:26Z</time>
<desc>lat.=55.827477, lon.=26.052219, Alt.=156.627075m. Speed=9.612000m/h.</desc>
<speed>2.670000</speed>
</trkpt>
<trkpt lat="55.827457" lon="26.052221">
<ele>156.728638</ele>
<time>2010-07-17T16:01:27Z</time>
<desc>lat.=55.827457, lon.=26.052221, Alt.=156.728638m. Speed=9.036000m/h.</desc>
<speed>2.510000</speed>
</trkpt>
<trkpt lat="55.827435" lon="26.052231">
<ele>156.904419</ele>
<time>2010-07-17T16:01:28Z</time>
<desc>lat.=55.827435, lon.=26.052231, Alt.=156.904419m. Speed=10.044000m/h.</desc>
<speed>2.790000</speed>
</trkpt>
<trkpt lat="55.827412" lon="26.052242">
<ele>157.338013</ele>
<time>2010-07-17T16:01:29Z</time>
<desc>lat.=55.827412, lon.=26.052242, Alt.=157.338013m. Speed=8.280000m/h.</desc>
<speed>2.300000</speed>
</trkpt>
<trkpt lat="55.827385" lon="26.052250">
<ele>157.603638</ele>
<time>2010-07-17T16:01:30Z</time>
<desc>lat.=55.827385, lon.=26.052250, Alt.=157.603638m. Speed=9.648000m/h.</desc>
<speed>2.680000</speed>
</trkpt>
<trkpt lat="55.827362" lon="26.052256">
<ele>157.931763</ele>
<time>2010-07-17T16:01:31Z</time>
<desc>lat.=55.827362, lon.=26.052256, Alt.=157.931763m. Speed=10.656000m/h.</desc>
<speed>2.960000</speed>
</trkpt>
<trkpt lat="55.827335" lon="26.052263">
<ele>158.314575</ele>
<time>2010-07-17T16:01:32Z</time>
<desc>lat.=55.827335, lon.=26.052263, Alt.=158.314575m. Speed=11.160000m/h.</desc>
<speed>3.100000</speed>
</trkpt>
<trkpt lat="55.827309" lon="26.052269">
<ele>158.189575</ele>
<time>2010-07-17T16:01:33Z</time>
<desc>lat.=55.827309, lon.=26.052269, Alt.=158.189575m. Speed=9.936000m/h.</desc>
<speed>2.760000</speed>
</trkpt>
<trkpt lat="55.827278" lon="26.052275">
<ele>158.084106</ele>
<time>2010-07-17T16:01:34Z</time>
<desc>lat.=55.827278, lon.=26.052275, Alt.=158.084106m. Speed=10.512000m/h.</desc>
<speed>2.920000</speed>
</trkpt>
<trkpt lat="55.827259" lon="26.052286">
<ele>158.052856</ele>
<time>2010-07-17T16:01:35Z</time>
<desc>lat.=55.827259, lon.=26.052286, Alt.=158.052856m. Speed=9.684000m/h.</desc>
<speed>2.690000</speed>
</trkpt>
<trkpt lat="55.827232" lon="26.052296">
<ele>158.306763</ele>
<time>2010-07-17T16:01:36Z</time>
<desc>lat.=55.827232, lon.=26.052296, Alt.=158.306763m. Speed=9.720000m/h.</desc>
<speed>2.700000</speed>
</trkpt>
<trkpt lat="55.827209" lon="26.052296">
<ele>158.642700</ele>
<time>2010-07-17T16:01:37Z</time>
<desc>lat.=55.827209, lon.=26.052296, Alt.=158.642700m. Speed=9.252000m/h.</desc>
<speed>2.570000</speed>
</trkpt>
<trkpt lat="55.827187" lon="26.052288">
<ele>158.505981</ele>
<time>2010-07-17T16:01:38Z</time>
<desc>lat.=55.827187, lon.=26.052288, Alt.=158.505981m. Speed=9.612000m/h.</desc>
<speed>2.670000</speed>
</trkpt>
<trkpt lat="55.827156" lon="26.052273">
<ele>157.681763</ele>
<time>2010-07-17T16:01:39Z</time>
<desc>lat.=55.827156, lon.=26.052273, Alt.=157.681763m. Speed=10.008000m/h.</desc>
<speed>2.780000</speed>
</trkpt>
<trkpt lat="55.827129" lon="26.052258">
<ele>157.498169</ele>
<time>2010-07-17T16:01:40Z</time>
<desc>lat.=55.827129, lon.=26.052258, Alt.=157.498169m. Speed=9.756000m/h.</desc>
<speed>2.710000</speed>
</trkpt>
<trkpt lat="55.827103" lon="26.052246">
<ele>157.505981</ele>
<time>2010-07-17T16:01:41Z</time>
<desc>lat.=55.827103, lon.=26.052246, Alt.=157.505981m. Speed=10.116000m/h.</desc>
<speed>2.810000</speed>
</trkpt>
<trkpt lat="55.827072" lon="26.052240">
<ele>157.529419</ele>
<time>2010-07-17T16:01:42Z</time>
<desc>lat.=55.827072, lon.=26.052240, Alt.=157.529419m. Speed=9.648000m/h.</desc>
<speed>2.680000</speed>
</trkpt>
<trkpt lat="55.827045" lon="26.052223">
<ele>157.716919</ele>
<time>2010-07-17T16:01:43Z</time>
<desc>lat.=55.827045, lon.=26.052223, Alt.=157.716919m. Speed=10.980000m/h.</desc>
<speed>3.050000</speed>
</trkpt>
<trkpt lat="55.827019" lon="26.052202">
<ele>157.963013</ele>
<time>2010-07-17T16:01:44Z</time>
<desc>lat.=55.827019, lon.=26.052202, Alt.=157.963013m. Speed=11.232000m/h.</desc>
<speed>3.120000</speed>
</trkpt>
<trkpt lat="55.826992" lon="26.052185">
<ele>158.111450</ele>
<time>2010-07-17T16:01:45Z</time>
<desc>lat.=55.826992, lon.=26.052185, Alt.=158.111450m. Speed=9.468000m/h.</desc>
<speed>2.630000</speed>
</trkpt>
<trkpt lat="55.826973" lon="26.052168">
<ele>158.263794</ele>
<time>2010-07-17T16:01:46Z</time>
<desc>lat.=55.826973, lon.=26.052168, Alt.=158.263794m. Speed=8.532000m/h.</desc>
<speed>2.370000</speed>
</trkpt>
<trkpt lat="55.826954" lon="26.052137">
<ele>158.662231</ele>
<time>2010-07-17T16:01:47Z</time>
<desc>lat.=55.826954, lon.=26.052137, Alt.=158.662231m. Speed=10.764000m/h.</desc>
<speed>2.990000</speed>
</trkpt>
<trkpt lat="55.826939" lon="26.052114">
<ele>159.158325</ele>
<time>2010-07-17T16:01:48Z</time>
<desc>lat.=55.826939, lon.=26.052114, Alt.=159.158325m. Speed=7.056000m/h.</desc>
<speed>1.960000</speed>
</trkpt>
<trkpt lat="55.826923" lon="26.052080">
<ele>159.716919</ele>
<time>2010-07-17T16:01:49Z</time>
<desc>lat.=55.826923, lon.=26.052080, Alt.=159.716919m. Speed=9.144000m/h.</desc>
<speed>2.540000</speed>
</trkpt>
<trkpt lat="55.826904" lon="26.052050">
<ele>160.213013</ele>
<time>2010-07-17T16:01:50Z</time>
<desc>lat.=55.826904, lon.=26.052050, Alt.=160.213013m. Speed=10.188000m/h.</desc>
<speed>2.830000</speed>
</trkpt>
<trkpt lat="55.826885" lon="26.052011">
<ele>160.623169</ele>
<time>2010-07-17T16:01:51Z</time>
<desc>lat.=55.826885, lon.=26.052011, Alt.=160.623169m. Speed=11.700000m/h.</desc>
<speed>3.250000</speed>
</trkpt>
<trkpt lat="55.826878" lon="26.051975">
<ele>160.838013</ele>
<time>2010-07-17T16:01:52Z</time>
<desc>lat.=55.826878, lon.=26.051975, Alt.=160.838013m. Speed=8.496000m/h.</desc>
<speed>2.360000</speed>
</trkpt>
<trkpt lat="55.826866" lon="26.051937">
<ele>160.927856</ele>
<time>2010-07-17T16:01:53Z</time>
<desc>lat.=55.826866, lon.=26.051937, Alt.=160.927856m. Speed=9.180000m/h.</desc>
<speed>2.550000</speed>
</trkpt>
<trkpt lat="55.826855" lon="26.051891">
<ele>161.045044</ele>
<time>2010-07-17T16:01:54Z</time>
<desc>lat.=55.826855, lon.=26.051891, Alt.=161.045044m. Speed=10.260000m/h.</desc>
<speed>2.850000</speed>
</trkpt>
<trkpt lat="55.826843" lon="26.051842">
<ele>161.287231</ele>
<time>2010-07-17T16:01:55Z</time>
<desc>lat.=55.826843, lon.=26.051842, Alt.=161.287231m. Speed=11.592000m/h.</desc>
<speed>3.220000</speed>
</trkpt>
<trkpt lat="55.826836" lon="26.051798">
<ele>161.451294</ele>
<time>2010-07-17T16:01:56Z</time>
<desc>lat.=55.826836, lon.=26.051798, Alt.=161.451294m. Speed=9.648000m/h.</desc>
<speed>2.680000</speed>
</trkpt>
<trkpt lat="55.826832" lon="26.051762">
<ele>161.701294</ele>
<time>2010-07-17T16:01:57Z</time>
<desc>lat.=55.826832, lon.=26.051762, Alt.=161.701294m. Speed=7.920000m/h.</desc>
<speed>2.200000</speed>
</trkpt>
<trkpt lat="55.826828" lon="26.051720">
<ele>162.060669</ele>
<time>2010-07-17T16:01:58Z</time>
<desc>lat.=55.826828, lon.=26.051720, Alt.=162.060669m. Speed=9.072000m/h.</desc>
<speed>2.520000</speed>
</trkpt>
<trkpt lat="55.826820" lon="26.051655">
<ele>162.349731</ele>
<time>2010-07-17T16:01:59Z</time>
<desc>lat.=55.826820, lon.=26.051655, Alt.=162.349731m. Speed=13.680000m/h.</desc>
<speed>3.800000</speed>
</trkpt>
<trkpt lat="55.826820" lon="26.051609">
<ele>162.455200</ele>
<time>2010-07-17T16:02:00Z</time>
<desc>lat.=55.826820, lon.=26.051609, Alt.=162.455200m. Speed=9.180000m/h.</desc>
<speed>2.550000</speed>
</trkpt>
<trkpt lat="55.826820" lon="26.051565">
<ele>162.736450</ele>
<time>2010-07-17T16:02:01Z</time>
<desc>lat.=55.826820, lon.=26.051565, Alt.=162.736450m. Speed=8.136000m/h.</desc>
<speed>2.260000</speed>
</trkpt>
<trkpt lat="55.826820" lon="26.051531">
<ele>162.865356</ele>
<time>2010-07-17T16:02:02Z</time>
<desc>lat.=55.826820, lon.=26.051531, Alt.=162.865356m. Speed=5.760000m/h.</desc>
<speed>1.600000</speed>
</trkpt>
<trkpt lat="55.826809" lon="26.051489">
<ele>163.302856</ele>
<time>2010-07-17T16:02:03Z</time>
<desc>lat.=55.826809, lon.=26.051489, Alt.=163.302856m. Speed=7.560000m/h.</desc>
<speed>2.100000</speed>
</trkpt>
<trkpt lat="55.826809" lon="26.051453">
<ele>163.759888</ele>
<time>2010-07-17T16:02:04Z</time>
<desc>lat.=55.826809, lon.=26.051453, Alt.=163.759888m. Speed=6.048000m/h.</desc>
<speed>1.680000</speed>
</trkpt>
<trkpt lat="55.826813" lon="26.051430">
<ele>164.228638</ele>
<time>2010-07-17T16:02:05Z</time>
<desc>lat.=55.826813, lon.=26.051430, Alt.=164.228638m. Speed=3.096000m/h.</desc>
<speed>0.860000</speed>
</trkpt>
<trkpt lat="55.826813" lon="26.051407">
<ele>164.623169</ele>
<time>2010-07-17T16:02:06Z</time>
<desc>lat.=55.826813, lon.=26.051407, Alt.=164.623169m. Speed=3.240000m/h.</desc>
<speed>0.900000</speed>
</trkpt>
<trkpt lat="55.826813" lon="26.051378">
<ele>165.185669</ele>
<time>2010-07-17T16:02:07Z</time>
<desc>lat.=55.826813, lon.=26.051378, Alt.=165.185669m. Speed=5.148000m/h.</desc>
<speed>1.430000</speed>
</trkpt>
<trkpt lat="55.826824" lon="26.051336">
<ele>165.853638</ele>
<time>2010-07-17T16:02:08Z</time>
<desc>lat.=55.826824, lon.=26.051336, Alt.=165.853638m. Speed=6.516000m/h.</desc>
<speed>1.810000</speed>
</trkpt>
<trkpt lat="55.826824" lon="26.051296">
<ele>166.431763</ele>
<time>2010-07-17T16:02:09Z</time>
<desc>lat.=55.826824, lon.=26.051296, Alt.=166.431763m. Speed=5.832000m/h.</desc>
<speed>1.620000</speed>
</trkpt>
<trkpt lat="55.826820" lon="26.051256">
<ele>167.009888</ele>
<time>2010-07-17T16:02:10Z</time>
<desc>lat.=55.826820, lon.=26.051256, Alt.=167.009888m. Speed=4.896000m/h.</desc>
<speed>1.360000</speed>
</trkpt>
<trkpt lat="55.826813" lon="26.051226">
<ele>167.630981</ele>
<time>2010-07-17T16:02:11Z</time>
<desc>lat.=55.826813, lon.=26.051226, Alt.=167.630981m. Speed=5.004000m/h.</desc>
<speed>1.390000</speed>
</trkpt>
<trkpt lat="55.826809" lon="26.051193">
<ele>168.287231</ele>
<time>2010-07-17T16:02:12Z</time>
<desc>lat.=55.826809, lon.=26.051193, Alt.=168.287231m. Speed=4.716000m/h.</desc>
<speed>1.310000</speed>
</trkpt>
<trkpt lat="55.826805" lon="26.051170">
<ele>168.685669</ele>
<time>2010-07-17T16:02:13Z</time>
<desc>lat.=55.826805, lon.=26.051170, Alt.=168.685669m. Speed=5.148000m/h.</desc>
<speed>1.430000</speed>
</trkpt>
<trkpt lat="55.826805" lon="26.051144">
<ele>169.150513</ele>
<time>2010-07-17T16:02:14Z</time>
<desc>lat.=55.826805, lon.=26.051144, Alt.=169.150513m. Speed=3.816000m/h.</desc>
<speed>1.060000</speed>
</trkpt>
<trkpt lat="55.826801" lon="26.051111">
<ele>169.748169</ele>
<time>2010-07-17T16:02:15Z</time>
<desc>lat.=55.826801, lon.=26.051111, Alt.=169.748169m. Speed=6.192000m/h.</desc>
<speed>1.720000</speed>
</trkpt>
<trkpt lat="55.826797" lon="26.051073">
<ele>170.271606</ele>
<time>2010-07-17T16:02:16Z</time>
<desc>lat.=55.826797, lon.=26.051073, Alt.=170.271606m. Speed=4.752000m/h.</desc>
<speed>1.320000</speed>
</trkpt>
<trkpt lat="55.826794" lon="26.051048">
<ele>170.720825</ele>
<time>2010-07-17T16:02:17Z</time>
<desc>lat.=55.826794, lon.=26.051048, Alt.=170.720825m. Speed=2.916000m/h.</desc>
<speed>0.810000</speed>
</trkpt>
<trkpt lat="55.826790" lon="26.051020">
<ele>171.213013</ele>
<time>2010-07-17T16:02:18Z</time>
<desc>lat.=55.826790, lon.=26.051020, Alt.=171.213013m. Speed=3.600000m/h.</desc>
<speed>1.000000</speed>
</trkpt>
<trkpt lat="55.826782" lon="26.050983">
<ele>171.646606</ele>
<time>2010-07-17T16:02:19Z</time>
<desc>lat.=55.826782, lon.=26.050983, Alt.=171.646606m. Speed=5.184000m/h.</desc>
<speed>1.440000</speed>
</trkpt>
<trkpt lat="55.826736" lon="26.050913">
<ele>171.607544</ele>
<time>2010-07-17T16:02:20Z</time>
<desc>lat.=55.826736, lon.=26.050913, Alt.=171.607544m. Speed=9.360000m/h.</desc>
<speed>2.600000</speed>
</trkpt>
<trkpt lat="55.826729" lon="26.050840">
<ele>171.916138</ele>
<time>2010-07-17T16:02:21Z</time>
<desc>lat.=55.826729, lon.=26.050840, Alt.=171.916138m. Speed=9.504000m/h.</desc>
<speed>2.640000</speed>
</trkpt>
<trkpt lat="55.826706" lon="26.050756">
<ele>171.970825</ele>
<time>2010-07-17T16:02:22Z</time>
<desc>lat.=55.826706, lon.=26.050756, Alt.=171.970825m. Speed=8.928000m/h.</desc>
<speed>2.480000</speed>
</trkpt>
<trkpt lat="55.826668" lon="26.050665">
<ele>172.220825</ele>
<time>2010-07-17T16:02:23Z</time>
<desc>lat.=55.826668, lon.=26.050665, Alt.=172.220825m. Speed=7.812000m/h.</desc>
<speed>2.170000</speed>
</trkpt>
<trkpt lat="55.826641" lon="26.050598">
<ele>172.443481</ele>
<time>2010-07-17T16:02:24Z</time>
<desc>lat.=55.826641, lon.=26.050598, Alt.=172.443481m. Speed=7.236000m/h.</desc>
<speed>2.010000</speed>
</trkpt>
<trkpt lat="55.826599" lon="26.050541">
<ele>172.779419</ele>
<time>2010-07-17T16:02:25Z</time>
<desc>lat.=55.826599, lon.=26.050541, Alt.=172.779419m. Speed=6.768000m/h.</desc>
<speed>1.880000</speed>
</trkpt>
<trkpt lat="55.826580" lon="26.050493">
<ele>173.205200</ele>
<time>2010-07-17T16:02:26Z</time>
<desc>lat.=55.826580, lon.=26.050493, Alt.=173.205200m. Speed=8.100000m/h.</desc>
<speed>2.250000</speed>
</trkpt>
<trkpt lat="55.826565" lon="26.050436">
<ele>173.775513</ele>
<time>2010-07-17T16:02:27Z</time>
<desc>lat.=55.826565, lon.=26.050436, Alt.=173.775513m. Speed=7.416000m/h.</desc>
<speed>2.060000</speed>
</trkpt>
<trkpt lat="55.826538" lon="26.050377">
<ele>174.115356</ele>
<time>2010-07-17T16:02:28Z</time>
<desc>lat.=55.826538, lon.=26.050377, Alt.=174.115356m. Speed=13.464000m/h.</desc>
<speed>3.740000</speed>
</trkpt>
<trkpt lat="55.826500" lon="26.050308">
<ele>174.412231</ele>
<time>2010-07-17T16:02:29Z</time>
<desc>lat.=55.826500, lon.=26.050308, Alt.=174.412231m. Speed=13.824000m/h.</desc>
<speed>3.840000</speed>
</trkpt>
<trkpt lat="55.826481" lon="26.050241">
<ele>174.865356</ele>
<time>2010-07-17T16:02:30Z</time>
<desc>lat.=55.826481, lon.=26.050241, Alt.=174.865356m. Speed=11.916000m/h.</desc>
<speed>3.310000</speed>
</trkpt>
<trkpt lat="55.826454" lon="26.050163">
<ele>175.521606</ele>
<time>2010-07-17T16:02:31Z</time>
<desc>lat.=55.826454, lon.=26.050163, Alt.=175.521606m. Speed=10.944000m/h.</desc>
<speed>3.040000</speed>
</trkpt>
<trkpt lat="55.826435" lon="26.050102">
<ele>176.009888</ele>
<time>2010-07-17T16:02:32Z</time>
<desc>lat.=55.826435, lon.=26.050102, Alt.=176.009888m. Speed=10.728000m/h.</desc>
<speed>2.980000</speed>
</trkpt>
<trkpt lat="55.826420" lon="26.050041">
<ele>176.650513</ele>
<time>2010-07-17T16:02:33Z</time>
<desc>lat.=55.826420, lon.=26.050041, Alt.=176.650513m. Speed=9.756000m/h.</desc>
<speed>2.710000</speed>
</trkpt>
<trkpt lat="55.826389" lon="26.049973">
<ele>176.896606</ele>
<time>2010-07-17T16:02:34Z</time>
<desc>lat.=55.826389, lon.=26.049973, Alt.=176.896606m. Speed=12.852000m/h.</desc>
<speed>3.570000</speed>
</trkpt>
<trkpt lat="55.826363" lon="26.049904">
<ele>177.259888</ele>
<time>2010-07-17T16:02:35Z</time>
<desc>lat.=55.826363, lon.=26.049904, Alt.=177.259888m. Speed=14.076000m/h.</desc>
<speed>3.910000</speed>
</trkpt>
<trkpt lat="55.826332" lon="26.049820">
<ele>177.513794</ele>
<time>2010-07-17T16:02:36Z</time>
<desc>lat.=55.826332, lon.=26.049820, Alt.=177.513794m. Speed=14.040000m/h.</desc>
<speed>3.900000</speed>
</trkpt>
<trkpt lat="55.826317" lon="26.049767">
<ele>177.763794</ele>
<time>2010-07-17T16:02:37Z</time>
<desc>lat.=55.826317, lon.=26.049767, Alt.=177.763794m. Speed=13.644000m/h.</desc>
<speed>3.790000</speed>
</trkpt>
<trkpt lat="55.826294" lon="26.049717">
<ele>177.978638</ele>
<time>2010-07-17T16:02:38Z</time>
<desc>lat.=55.826294, lon.=26.049717, Alt.=177.978638m. Speed=12.240000m/h.</desc>
<speed>3.400000</speed>
</trkpt>
<trkpt lat="55.826256" lon="26.049650">
<ele>178.236450</ele>
<time>2010-07-17T16:02:39Z</time>
<desc>lat.=55.826256, lon.=26.049650, Alt.=178.236450m. Speed=13.896000m/h.</desc>
<speed>3.860000</speed>
</trkpt>
<trkpt lat="55.826225" lon="26.049591">
<ele>178.388794</ele>
<time>2010-07-17T16:02:40Z</time>
<desc>lat.=55.826225, lon.=26.049591, Alt.=178.388794m. Speed=14.364000m/h.</desc>
<speed>3.990000</speed>
</trkpt>
<trkpt lat="55.826199" lon="26.049530">
<ele>178.584106</ele>
<time>2010-07-17T16:02:41Z</time>
<desc>lat.=55.826199, lon.=26.049530, Alt.=178.584106m. Speed=13.572000m/h.</desc>
<speed>3.770000</speed>
</trkpt>
<trkpt lat="55.826176" lon="26.049471">
<ele>178.627075</ele>
<time>2010-07-17T16:02:42Z</time>
<desc>lat.=55.826176, lon.=26.049471, Alt.=178.627075m. Speed=12.816000m/h.</desc>
<speed>3.560000</speed>
</trkpt>
<trkpt lat="55.826145" lon="26.049397">
<ele>178.513794</ele>
<time>2010-07-17T16:02:43Z</time>
<desc>lat.=55.826145, lon.=26.049397, Alt.=178.513794m. Speed=12.780000m/h.</desc>
<speed>3.550000</speed>
</trkpt>
<trkpt lat="55.826126" lon="26.049339">
<ele>178.763794</ele>
<time>2010-07-17T16:02:44Z</time>
<desc>lat.=55.826126, lon.=26.049339, Alt.=178.763794m. Speed=11.844000m/h.</desc>
<speed>3.290000</speed>
</trkpt>
<trkpt lat="55.826103" lon="26.049288">
<ele>179.127075</ele>
<time>2010-07-17T16:02:45Z</time>
<desc>lat.=55.826103, lon.=26.049288, Alt.=179.127075m. Speed=11.736000m/h.</desc>
<speed>3.260000</speed>
</trkpt>
<trkpt lat="55.826069" lon="26.049210">
<ele>179.588013</ele>
<time>2010-07-17T16:02:46Z</time>
<desc>lat.=55.826069, lon.=26.049210, Alt.=179.588013m. Speed=10.728000m/h.</desc>
<speed>2.980000</speed>
</trkpt>
<trkpt lat="55.826038" lon="26.049156">
<ele>179.923950</ele>
<time>2010-07-17T16:02:47Z</time>
<desc>lat.=55.826038, lon.=26.049156, Alt.=179.923950m. Speed=10.548000m/h.</desc>
<speed>2.930000</speed>
</trkpt>
<trkpt lat="55.826015" lon="26.049103">
<ele>180.279419</ele>
<time>2010-07-17T16:02:48Z</time>
<desc>lat.=55.826015, lon.=26.049103, Alt.=180.279419m. Speed=11.916000m/h.</desc>
<speed>3.310000</speed>
</trkpt>
<trkpt lat="55.825985" lon="26.049049">
<ele>180.591919</ele>
<time>2010-07-17T16:02:49Z</time>
<desc>lat.=55.825985, lon.=26.049049, Alt.=180.591919m. Speed=11.124000m/h.</desc>
<speed>3.090000</speed>
</trkpt>
<trkpt lat="55.825966" lon="26.049006">
<ele>180.884888</ele>
<time>2010-07-17T16:02:50Z</time>
<desc>lat.=55.825966, lon.=26.049006, Alt.=180.884888m. Speed=11.088000m/h.</desc>
<speed>3.080000</speed>
</trkpt>
<trkpt lat="55.825939" lon="26.048956">
<ele>181.162231</ele>
<time>2010-07-17T16:02:51Z</time>
<desc>lat.=55.825939, lon.=26.048956, Alt.=181.162231m. Speed=10.368000m/h.</desc>
<speed>2.880000</speed>
</trkpt>
<trkpt lat="55.825912" lon="26.048904">
<ele>181.533325</ele>
<time>2010-07-17T16:02:52Z</time>
<desc>lat.=55.825912, lon.=26.048904, Alt.=181.533325m. Speed=9.144000m/h.</desc>
<speed>2.540000</speed>
</trkpt>
<trkpt lat="55.825886" lon="26.048857">
<ele>181.939575</ele>
<time>2010-07-17T16:02:53Z</time>
<desc>lat.=55.825886, lon.=26.048857, Alt.=181.939575m. Speed=9.576000m/h.</desc>
<speed>2.660000</speed>
</trkpt>
<trkpt lat="55.825867" lon="26.048813">
<ele>182.310669</ele>
<time>2010-07-17T16:02:54Z</time>
<desc>lat.=55.825867, lon.=26.048813, Alt.=182.310669m. Speed=9.540000m/h.</desc>
<speed>2.650000</speed>
</trkpt>
<trkpt lat="55.825821" lon="26.048729">
<ele>183.060669</ele>
<time>2010-07-17T16:02:55Z</time>
<desc>lat.=55.825821, lon.=26.048729, Alt.=183.060669m. Speed=9.396000m/h.</desc>
<speed>2.610000</speed>
</trkpt>
<trkpt lat="55.825802" lon="26.048695">
<ele>183.134888</ele>
<time>2010-07-17T16:02:56Z</time>
<desc>lat.=55.825802, lon.=26.048695, Alt.=183.134888m. Speed=9.936000m/h.</desc>
<speed>2.760000</speed>
</trkpt>
<trkpt lat="55.825783" lon="26.048653">
<ele>183.384888</ele>
<time>2010-07-17T16:02:57Z</time>
<desc>lat.=55.825783, lon.=26.048653, Alt.=183.384888m. Speed=11.160000m/h.</desc>
<speed>3.100000</speed>
</trkpt>
<trkpt lat="55.825764" lon="26.048615">
<ele>183.638794</ele>
<time>2010-07-17T16:02:58Z</time>
<desc>lat.=55.825764, lon.=26.048615, Alt.=183.638794m. Speed=10.044000m/h.</desc>
<speed>2.790000</speed>
</trkpt>
<trkpt lat="55.825745" lon="26.048578">
<ele>183.865356</ele>
<time>2010-07-17T16:02:59Z</time>
<desc>lat.=55.825745, lon.=26.048578, Alt.=183.865356m. Speed=10.080000m/h.</desc>
<speed>2.800000</speed>
</trkpt>
<trkpt lat="55.825706" lon="26.048525">
<ele>182.744263</ele>
<time>2010-07-17T16:03:00Z</time>
<desc>lat.=55.825706, lon.=26.048525, Alt.=182.744263m. Speed=12.060000m/h.</desc>
<speed>3.350000</speed>
</trkpt>
<trkpt lat="55.825684" lon="26.048479">
<ele>182.713013</ele>
<time>2010-07-17T16:03:01Z</time>
<desc>lat.=55.825684, lon.=26.048479, Alt.=182.713013m. Speed=11.916000m/h.</desc>
<speed>3.310000</speed>
</trkpt>
<trkpt lat="55.825668" lon="26.048439">
<ele>182.627075</ele>
<time>2010-07-17T16:03:02Z</time>
<desc>lat.=55.825668, lon.=26.048439, Alt.=182.627075m. Speed=11.304000m/h.</desc>
<speed>3.140000</speed>
</trkpt>
<trkpt lat="55.825645" lon="26.048393">
<ele>182.568481</ele>
<time>2010-07-17T16:03:03Z</time>
<desc>lat.=55.825645, lon.=26.048393, Alt.=182.568481m. Speed=10.980000m/h.</desc>
<speed>3.050000</speed>
</trkpt>
<trkpt lat="55.825626" lon="26.048344">
<ele>182.400513</ele>
<time>2010-07-17T16:03:04Z</time>
<desc>lat.=55.825626, lon.=26.048344, Alt.=182.400513m. Speed=11.052000m/h.</desc>
<speed>3.070000</speed>
</trkpt>
<trkpt lat="55.825611" lon="26.048302">
<ele>181.935669</ele>
<time>2010-07-17T16:03:05Z</time>
<desc>lat.=55.825611, lon.=26.048302, Alt.=181.935669m. Speed=11.592000m/h.</desc>
<speed>3.220000</speed>
</trkpt>
<trkpt lat="55.825588" lon="26.048256">
<ele>181.830200</ele>
<time>2010-07-17T16:03:06Z</time>
<desc>lat.=55.825588, lon.=26.048256, Alt.=181.830200m. Speed=12.348000m/h.</desc>
<speed>3.430000</speed>
</trkpt>
<trkpt lat="55.825569" lon="26.048204">
<ele>181.974731</ele>
<time>2010-07-17T16:03:07Z</time>
<desc>lat.=55.825569, lon.=26.048204, Alt.=181.974731m. Speed=13.140000m/h.</desc>
<speed>3.650000</speed>
</trkpt>
<trkpt lat="55.825554" lon="26.048157">
<ele>182.127075</ele>
<time>2010-07-17T16:03:08Z</time>
<desc>lat.=55.825554, lon.=26.048157, Alt.=182.127075m. Speed=12.348000m/h.</desc>
<speed>3.430000</speed>
</trkpt>
<trkpt lat="55.825542" lon="26.048111">
<ele>182.181763</ele>
<time>2010-07-17T16:03:09Z</time>
<desc>lat.=55.825542, lon.=26.048111, Alt.=182.181763m. Speed=10.980000m/h.</desc>
<speed>3.050000</speed>
</trkpt>
<trkpt lat="55.825535" lon="26.048063">
<ele>182.490356</ele>
<time>2010-07-17T16:03:10Z</time>
<desc>lat.=55.825535, lon.=26.048063, Alt.=182.490356m. Speed=9.576000m/h.</desc>
<speed>2.660000</speed>
</trkpt>
<trkpt lat="55.825527" lon="26.048027">
<ele>182.638794</ele>
<time>2010-07-17T16:03:11Z</time>
<desc>lat.=55.825527, lon.=26.048027, Alt.=182.638794m. Speed=8.532000m/h.</desc>
<speed>2.370000</speed>
</trkpt>
<trkpt lat="55.825520" lon="26.047979">
<ele>182.724731</ele>
<time>2010-07-17T16:03:12Z</time>
<desc>lat.=55.825520, lon.=26.047979, Alt.=182.724731m. Speed=10.728000m/h.</desc>
<speed>2.980000</speed>
</trkpt>
<trkpt lat="55.825508" lon="26.047930">
<ele>182.908325</ele>
<time>2010-07-17T16:03:13Z</time>
<desc>lat.=55.825508, lon.=26.047930, Alt.=182.908325m. Speed=11.772000m/h.</desc>
<speed>3.270000</speed>
</trkpt>
<trkpt lat="55.825489" lon="26.047876">
<ele>183.224731</ele>
<time>2010-07-17T16:03:14Z</time>
<desc>lat.=55.825489, lon.=26.047876, Alt.=183.224731m. Speed=12.996000m/h.</desc>
<speed>3.610000</speed>
</trkpt>
<trkpt lat="55.825474" lon="26.047834">
<ele>183.236450</ele>
<time>2010-07-17T16:03:15Z</time>
<desc>lat.=55.825474, lon.=26.047834, Alt.=183.236450m. Speed=9.684000m/h.</desc>
<speed>2.690000</speed>
</trkpt>
<trkpt lat="55.825459" lon="26.047779">
<ele>183.216919</ele>
<time>2010-07-17T16:03:16Z</time>
<desc>lat.=55.825459, lon.=26.047779, Alt.=183.216919m. Speed=11.592000m/h.</desc>
<speed>3.220000</speed>
</trkpt>
<trkpt lat="55.825459" lon="26.047716">
<ele>181.701294</ele>
<time>2010-07-17T16:03:17Z</time>
<desc>lat.=55.825459, lon.=26.047716, Alt.=181.701294m. Speed=12.672000m/h.</desc>
<speed>3.520000</speed>
</trkpt>
<trkpt lat="55.825436" lon="26.047661">
<ele>181.056763</ele>
<time>2010-07-17T16:03:18Z</time>
<desc>lat.=55.825436, lon.=26.047661, Alt.=181.056763m. Speed=9.216000m/h.</desc>
<speed>2.560000</speed>
</trkpt>
<trkpt lat="55.825401" lon="26.047592">
<ele>179.884888</ele>
<time>2010-07-17T16:03:19Z</time>
<desc>lat.=55.825401, lon.=26.047592, Alt.=179.884888m. Speed=11.412000m/h.</desc>
<speed>3.170000</speed>
</trkpt>
<trkpt lat="55.825382" lon="26.047499">
<ele>178.482544</ele>
<time>2010-07-17T16:03:20Z</time>
<desc>lat.=55.825382, lon.=26.047499, Alt.=178.482544m. Speed=15.084000m/h.</desc>
<speed>4.190000</speed>
</trkpt>
<trkpt lat="55.825386" lon="26.047417">
<ele>178.189575</ele>
<time>2010-07-17T16:03:21Z</time>
<desc>lat.=55.825386, lon.=26.047417, Alt.=178.189575m. Speed=14.400000m/h.</desc>
<speed>4.000000</speed>
</trkpt>
<trkpt lat="55.825378" lon="26.047350">
<ele>177.943481</ele>
<time>2010-07-17T16:03:22Z</time>
<desc>lat.=55.825378, lon.=26.047350, Alt.=177.943481m. Speed=13.608000m/h.</desc>
<speed>3.780000</speed>
</trkpt>
<trkpt lat="55.825378" lon="26.047285">
<ele>177.771606</ele>
<time>2010-07-17T16:03:23Z</time>
<desc>lat.=55.825378, lon.=26.047285, Alt.=177.771606m. Speed=13.680000m/h.</desc>
<speed>3.800000</speed>
</trkpt>
<trkpt lat="55.825359" lon="26.047211">
<ele>177.537231</ele>
<time>2010-07-17T16:03:24Z</time>
<desc>lat.=55.825359, lon.=26.047211, Alt.=177.537231m. Speed=15.372000m/h.</desc>
<speed>4.270000</speed>
</trkpt>
<trkpt lat="55.825340" lon="26.047129">
<ele>177.244263</ele>
<time>2010-07-17T16:03:25Z</time>
<desc>lat.=55.825340, lon.=26.047129, Alt.=177.244263m. Speed=16.596001m/h.</desc>
<speed>4.610000</speed>
</trkpt>
<trkpt lat="55.825321" lon="26.047037">
<ele>176.947388</ele>
<time>2010-07-17T16:03:26Z</time>
<desc>lat.=55.825321, lon.=26.047037, Alt.=176.947388m. Speed=16.236000m/h.</desc>
<speed>4.510000</speed>
</trkpt>
<trkpt lat="55.825283" lon="26.046944">
<ele>175.951294</ele>
<time>2010-07-17T16:03:27Z</time>
<desc>lat.=55.825283, lon.=26.046944, Alt.=175.951294m. Speed=15.516000m/h.</desc>
<speed>4.310000</speed>
</trkpt>
<trkpt lat="55.825203" lon="26.046820">
<ele>173.670044</ele>
<time>2010-07-17T16:03:28Z</time>
<desc>lat.=55.825203, lon.=26.046820, Alt.=173.670044m. Speed=10.224000m/h.</desc>
<speed>2.840000</speed>
</trkpt>
<trkpt lat="55.825180" lon="26.046762">
<ele>173.166138</ele>
<time>2010-07-17T16:03:29Z</time>
<desc>lat.=55.825180, lon.=26.046762, Alt.=173.166138m. Speed=8.352000m/h.</desc>
<speed>2.320000</speed>
</trkpt>
<trkpt lat="55.825180" lon="26.046711">
<ele>172.490356</ele>
<time>2010-07-17T16:03:30Z</time>
<desc>lat.=55.825180, lon.=26.046711, Alt.=172.490356m. Speed=9.540000m/h.</desc>
<speed>2.650000</speed>
</trkpt>
<trkpt lat="55.825165" lon="26.046658">
<ele>171.482544</ele>
<time>2010-07-17T16:03:31Z</time>
<desc>lat.=55.825165, lon.=26.046658, Alt.=171.482544m. Speed=8.208000m/h.</desc>
<speed>2.280000</speed>
</trkpt>
<trkpt lat="55.825150" lon="26.046612">
<ele>171.302856</ele>
<time>2010-07-17T16:03:32Z</time>
<desc>lat.=55.825150, lon.=26.046612, Alt.=171.302856m. Speed=10.512000m/h.</desc>
<speed>2.920000</speed>
</trkpt>
<trkpt lat="55.825127" lon="26.046560">
<ele>171.146606</ele>
<time>2010-07-17T16:03:33Z</time>
<desc>lat.=55.825127, lon.=26.046560, Alt.=171.146606m. Speed=11.664000m/h.</desc>
<speed>3.240000</speed>
</trkpt>
<trkpt lat="55.825100" lon="26.046503">
<ele>170.974731</ele>
<time>2010-07-17T16:03:34Z</time>
<desc>lat.=55.825100, lon.=26.046503, Alt.=170.974731m. Speed=12.132000m/h.</desc>
<speed>3.370000</speed>
</trkpt>
<trkpt lat="55.825069" lon="26.046448">
<ele>170.513794</ele>
<time>2010-07-17T16:03:35Z</time>
<desc>lat.=55.825069, lon.=26.046448, Alt.=170.513794m. Speed=12.708000m/h.</desc>
<speed>3.530000</speed>
</trkpt>
<trkpt lat="55.825035" lon="26.046394">
<ele>170.123169</ele>
<time>2010-07-17T16:03:36Z</time>
<desc>lat.=55.825035, lon.=26.046394, Alt.=170.123169m. Speed=13.032000m/h.</desc>
<speed>3.620000</speed>
</trkpt>
<trkpt lat="55.825008" lon="26.046337">
<ele>169.427856</ele>
<time>2010-07-17T16:03:37Z</time>
<desc>lat.=55.825008, lon.=26.046337, Alt.=169.427856m. Speed=13.428000m/h.</desc>
<speed>3.730000</speed>
</trkpt>
<trkpt lat="55.824978" lon="26.046278">
<ele>169.310669</ele>
<time>2010-07-17T16:03:38Z</time>
<desc>lat.=55.824978, lon.=26.046278, Alt.=169.310669m. Speed=15.120000m/h.</desc>
<speed>4.200000</speed>
</trkpt>
<trkpt lat="55.824944" lon="26.046223">
<ele>169.068481</ele>
<time>2010-07-17T16:03:39Z</time>
<desc>lat.=55.824944, lon.=26.046223, Alt.=169.068481m. Speed=15.984000m/h.</desc>
<speed>4.440000</speed>
</trkpt>
<trkpt lat="55.824913" lon="26.046173">
<ele>168.939575</ele>
<time>2010-07-17T16:03:40Z</time>
<desc>lat.=55.824913, lon.=26.046173, Alt.=168.939575m. Speed=14.940000m/h.</desc>
<speed>4.150000</speed>
</trkpt>
<trkpt lat="55.824879" lon="26.046122">
<ele>168.763794</ele>
<time>2010-07-17T16:03:41Z</time>
<desc>lat.=55.824879, lon.=26.046122, Alt.=168.763794m. Speed=15.948000m/h.</desc>
<speed>4.430000</speed>
</trkpt>
<trkpt lat="55.824841" lon="26.046070">
<ele>168.560669</ele>
<time>2010-07-17T16:03:42Z</time>
<desc>lat.=55.824841, lon.=26.046070, Alt.=168.560669m. Speed=17.136000m/h.</desc>
<speed>4.760000</speed>
</trkpt>
<trkpt lat="55.824802" lon="26.046022">
<ele>168.295044</ele>
<time>2010-07-17T16:03:43Z</time>
<desc>lat.=55.824802, lon.=26.046022, Alt.=168.295044m. Speed=17.136000m/h.</desc>
<speed>4.760000</speed>
</trkpt>
<trkpt lat="55.824772" lon="26.045975">
<ele>168.154419</ele>
<time>2010-07-17T16:03:44Z</time>
<desc>lat.=55.824772, lon.=26.045975, Alt.=168.154419m. Speed=16.236000m/h.</desc>
<speed>4.510000</speed>
</trkpt>
<trkpt lat="55.824741" lon="26.045933">
<ele>167.923950</ele>
<time>2010-07-17T16:03:45Z</time>
<desc>lat.=55.824741, lon.=26.045933, Alt.=167.923950m. Speed=13.788000m/h.</desc>
<speed>3.830000</speed>
</trkpt>
<trkpt lat="55.824718" lon="26.045898">
<ele>167.853638</ele>
<time>2010-07-17T16:03:46Z</time>
<desc>lat.=55.824718, lon.=26.045898, Alt.=167.853638m. Speed=8.604000m/h.</desc>
<speed>2.390000</speed>
</trkpt>
<trkpt lat="55.824631" lon="26.045828">
<ele>163.213013</ele>
<time>2010-07-17T16:03:47Z</time>
<desc>lat.=55.824631, lon.=26.045828, Alt.=163.213013m. Speed=9.252000m/h.</desc>
<speed>2.570000</speed>
</trkpt>
<trkpt lat="55.824604" lon="26.045803">
<ele>163.138794</ele>
<time>2010-07-17T16:03:48Z</time>
<desc>lat.=55.824604, lon.=26.045803, Alt.=163.138794m. Speed=9.828000m/h.</desc>
<speed>2.730000</speed>
</trkpt>
<trkpt lat="55.824585" lon="26.045780">
<ele>163.045044</ele>
<time>2010-07-17T16:03:49Z</time>
<desc>lat.=55.824585, lon.=26.045780, Alt.=163.045044m. Speed=12.636000m/h.</desc>
<speed>3.510000</speed>
</trkpt>
<trkpt lat="55.824539" lon="26.045732">
<ele>161.978638</ele>
<time>2010-07-17T16:03:50Z</time>
<desc>lat.=55.824539, lon.=26.045732, Alt.=161.978638m. Speed=14.472000m/h.</desc>
<speed>4.020000</speed>
</trkpt>
<trkpt lat="55.824486" lon="26.045681">
<ele>160.380981</ele>
<time>2010-07-17T16:03:51Z</time>
<desc>lat.=55.824486, lon.=26.045681, Alt.=160.380981m. Speed=13.860000m/h.</desc>
<speed>3.850000</speed>
</trkpt>
<trkpt lat="55.824444" lon="26.045635">
<ele>159.263794</ele>
<time>2010-07-17T16:03:52Z</time>
<desc>lat.=55.824444, lon.=26.045635, Alt.=159.263794m. Speed=13.032000m/h.</desc>
<speed>3.620000</speed>
</trkpt>
<trkpt lat="55.824398" lon="26.045588">
<ele>158.146606</ele>
<time>2010-07-17T16:03:53Z</time>
<desc>lat.=55.824398, lon.=26.045588, Alt.=158.146606m. Speed=13.248000m/h.</desc>
<speed>3.680000</speed>
</trkpt>
<trkpt lat="55.824364" lon="26.045544">
<ele>157.556763</ele>
<time>2010-07-17T16:03:54Z</time>
<desc>lat.=55.824364, lon.=26.045544, Alt.=157.556763m. Speed=13.284000m/h.</desc>
<speed>3.690000</speed>
</trkpt>
<trkpt lat="55.824329" lon="26.045500">
<ele>157.002075</ele>
<time>2010-07-17T16:03:55Z</time>
<desc>lat.=55.824329, lon.=26.045500, Alt.=157.002075m. Speed=13.644000m/h.</desc>
<speed>3.790000</speed>
</trkpt>
<trkpt lat="55.824284" lon="26.045452">
<ele>155.775513</ele>
<time>2010-07-17T16:03:56Z</time>
<desc>lat.=55.824284, lon.=26.045452, Alt.=155.775513m. Speed=11.160000m/h.</desc>
<speed>3.100000</speed>
</trkpt>
<trkpt lat="55.824257" lon="26.045420">
<ele>155.482544</ele>
<time>2010-07-17T16:03:57Z</time>
<desc>lat.=55.824257, lon.=26.045420, Alt.=155.482544m. Speed=11.268000m/h.</desc>
<speed>3.130000</speed>
</trkpt>
<trkpt lat="55.824234" lon="26.045399">
<ele>155.369263</ele>
<time>2010-07-17T16:03:58Z</time>
<desc>lat.=55.824234, lon.=26.045399, Alt.=155.369263m. Speed=8.136000m/h.</desc>
<speed>2.260000</speed>
</trkpt>
<trkpt lat="55.824207" lon="26.045368">
<ele>155.091919</ele>
<time>2010-07-17T16:03:59Z</time>
<desc>lat.=55.824207, lon.=26.045368, Alt.=155.091919m. Speed=8.856000m/h.</desc>
<speed>2.460000</speed>
</trkpt>
<trkpt lat="55.824188" lon="26.045338">
<ele>154.775513</ele>
<time>2010-07-17T16:04:00Z</time>
<desc>lat.=55.824188, lon.=26.045338, Alt.=154.775513m. Speed=7.848000m/h.</desc>
<speed>2.180000</speed>
</trkpt>
<trkpt lat="55.824165" lon="26.045317">
<ele>154.513794</ele>
<time>2010-07-17T16:04:01Z</time>
<desc>lat.=55.824165, lon.=26.045317, Alt.=154.513794m. Speed=7.668000m/h.</desc>
<speed>2.130000</speed>
</trkpt>
<trkpt lat="55.824150" lon="26.045294">
<ele>154.447388</ele>
<time>2010-07-17T16:04:02Z</time>
<desc>lat.=55.824150, lon.=26.045294, Alt.=154.447388m. Speed=7.092000m/h.</desc>
<speed>1.970000</speed>
</trkpt>
<trkpt lat="55.824131" lon="26.045271">
<ele>154.263794</ele>
<time>2010-07-17T16:04:03Z</time>
<desc>lat.=55.824131, lon.=26.045271, Alt.=154.263794m. Speed=8.244000m/h.</desc>
<speed>2.290000</speed>
</trkpt>
<trkpt lat="55.824112" lon="26.045250">
<ele>153.935669</ele>
<time>2010-07-17T16:04:04Z</time>
<desc>lat.=55.824112, lon.=26.045250, Alt.=153.935669m. Speed=8.460000m/h.</desc>
<speed>2.350000</speed>
</trkpt>
<trkpt lat="55.824089" lon="26.045221">
<ele>153.877075</ele>
<time>2010-07-17T16:04:05Z</time>
<desc>lat.=55.824089, lon.=26.045221, Alt.=153.877075m. Speed=9.432000m/h.</desc>
<speed>2.620000</speed>
</trkpt>
<trkpt lat="55.824066" lon="26.045191">
<ele>153.892700</ele>
<time>2010-07-17T16:04:06Z</time>
<desc>lat.=55.824066, lon.=26.045191, Alt.=153.892700m. Speed=8.532000m/h.</desc>
<speed>2.370000</speed>
</trkpt>
<trkpt lat="55.824039" lon="26.045134">
<ele>154.826294</ele>
<time>2010-07-17T16:04:07Z</time>
<desc>lat.=55.824039, lon.=26.045134, Alt.=154.826294m. Speed=10.764000m/h.</desc>
<speed>2.990000</speed>
</trkpt>
<trkpt lat="55.824017" lon="26.045078">
<ele>155.779419</ele>
<time>2010-07-17T16:04:08Z</time>
<desc>lat.=55.824017, lon.=26.045078, Alt.=155.779419m. Speed=9.756000m/h.</desc>
<speed>2.710000</speed>
</trkpt>
<trkpt lat="55.823994" lon="26.045042">
<ele>156.009888</ele>
<time>2010-07-17T16:04:09Z</time>
<desc>lat.=55.823994, lon.=26.045042, Alt.=156.009888m. Speed=9.900000m/h.</desc>
<speed>2.750000</speed>
</trkpt>
<trkpt lat="55.823982" lon="26.045031">
<ele>155.755981</ele>
<time>2010-07-17T16:04:10Z</time>
<desc>lat.=55.823982, lon.=26.045031, Alt.=155.755981m. Speed=8.064000m/h.</desc>
<speed>2.240000</speed>
</trkpt>
<trkpt lat="55.823963" lon="26.045015">
<ele>155.759888</ele>
<time>2010-07-17T16:04:11Z</time>
<desc>lat.=55.823963, lon.=26.045015, Alt.=155.759888m. Speed=8.892000m/h.</desc>
<speed>2.470000</speed>
</trkpt>
<trkpt lat="55.823944" lon="26.044996">
<ele>155.181763</ele>
<time>2010-07-17T16:04:12Z</time>
<desc>lat.=55.823944, lon.=26.044996, Alt.=155.181763m. Speed=8.820000m/h.</desc>
<speed>2.450000</speed>
</trkpt>
<trkpt lat="55.823921" lon="26.044981">
<ele>155.213013</ele>
<time>2010-07-17T16:04:13Z</time>
<desc>lat.=55.823921, lon.=26.044981, Alt.=155.213013m. Speed=8.928000m/h.</desc>
<speed>2.480000</speed>
</trkpt>
<trkpt lat="55.823895" lon="26.044962">
<ele>155.052856</ele>
<time>2010-07-17T16:04:14Z</time>
<desc>lat.=55.823895, lon.=26.044962, Alt.=155.052856m. Speed=11.844000m/h.</desc>
<speed>3.290000</speed>
</trkpt>
<trkpt lat="55.823872" lon="26.044931">
<ele>154.900513</ele>
<time>2010-07-17T16:04:15Z</time>
<desc>lat.=55.823872, lon.=26.044931, Alt.=154.900513m. Speed=11.232000m/h.</desc>
<speed>3.120000</speed>
</trkpt>
<trkpt lat="55.823853" lon="26.044897">
<ele>154.892700</ele>
<time>2010-07-17T16:04:16Z</time>
<desc>lat.=55.823853, lon.=26.044897, Alt.=154.892700m. Speed=10.260000m/h.</desc>
<speed>2.850000</speed>
</trkpt>
<trkpt lat="55.823833" lon="26.044863">
<ele>154.759888</ele>
<time>2010-07-17T16:04:17Z</time>
<desc>lat.=55.823833, lon.=26.044863, Alt.=154.759888m. Speed=10.584000m/h.</desc>
<speed>2.940000</speed>
</trkpt>
<trkpt lat="55.823818" lon="26.044834">
<ele>154.713013</ele>
<time>2010-07-17T16:04:18Z</time>
<desc>lat.=55.823818, lon.=26.044834, Alt.=154.713013m. Speed=9.468000m/h.</desc>
<speed>2.630000</speed>
</trkpt>
<trkpt lat="55.823795" lon="26.044813">
<ele>154.595825</ele>
<time>2010-07-17T16:04:19Z</time>
<desc>lat.=55.823795, lon.=26.044813, Alt.=154.595825m. Speed=10.944000m/h.</desc>
<speed>3.040000</speed>
</trkpt>
<trkpt lat="55.823769" lon="26.044788">
<ele>154.963013</ele>
<time>2010-07-17T16:04:20Z</time>
<desc>lat.=55.823769, lon.=26.044788, Alt.=154.963013m. Speed=10.908000m/h.</desc>
<speed>3.030000</speed>
</trkpt>
<trkpt lat="55.823750" lon="26.044758">
<ele>155.025513</ele>
<time>2010-07-17T16:04:21Z</time>
<desc>lat.=55.823750, lon.=26.044758, Alt.=155.025513m. Speed=11.160000m/h.</desc>
<speed>3.100000</speed>
</trkpt>
<trkpt lat="55.823730" lon="26.044727">
<ele>155.127075</ele>
<time>2010-07-17T16:04:22Z</time>
<desc>lat.=55.823730, lon.=26.044727, Alt.=155.127075m. Speed=10.692000m/h.</desc>
<speed>2.970000</speed>
</trkpt>
<trkpt lat="55.823719" lon="26.044697">
<ele>154.716919</ele>
<time>2010-07-17T16:04:23Z</time>
<desc>lat.=55.823719, lon.=26.044697, Alt.=154.716919m. Speed=8.532000m/h.</desc>
<speed>2.370000</speed>
</trkpt>
<trkpt lat="55.823700" lon="26.044670">
<ele>155.041138</ele>
<time>2010-07-17T16:04:24Z</time>
<desc>lat.=55.823700, lon.=26.044670, Alt.=155.041138m. Speed=9.720000m/h.</desc>
<speed>2.700000</speed>
</trkpt>
<trkpt lat="55.823677" lon="26.044636">
<ele>155.420044</ele>
<time>2010-07-17T16:04:25Z</time>
<desc>lat.=55.823677, lon.=26.044636, Alt.=155.420044m. Speed=9.144000m/h.</desc>
<speed>2.540000</speed>
</trkpt>
<trkpt lat="55.823654" lon="26.044609">
<ele>155.470825</ele>
<time>2010-07-17T16:04:26Z</time>
<desc>lat.=55.823654, lon.=26.044609, Alt.=155.470825m. Speed=9.576000m/h.</desc>
<speed>2.660000</speed>
</trkpt>
<trkpt lat="55.823624" lon="26.044579">
<ele>155.392700</ele>
<time>2010-07-17T16:04:27Z</time>
<desc>lat.=55.823624, lon.=26.044579, Alt.=155.392700m. Speed=10.152000m/h.</desc>
<speed>2.820000</speed>
</trkpt>
<trkpt lat="55.823601" lon="26.044559">
<ele>155.361450</ele>
<time>2010-07-17T16:04:28Z</time>
<desc>lat.=55.823601, lon.=26.044559, Alt.=155.361450m. Speed=8.532000m/h.</desc>
<speed>2.370000</speed>
</trkpt>
<trkpt lat="55.823582" lon="26.044533">
<ele>155.513794</ele>
<time>2010-07-17T16:04:29Z</time>
<desc>lat.=55.823582, lon.=26.044533, Alt.=155.513794m. Speed=9.828000m/h.</desc>
<speed>2.730000</speed>
</trkpt>
<trkpt lat="55.823559" lon="26.044514">
<ele>155.560669</ele>
<time>2010-07-17T16:04:30Z</time>
<desc>lat.=55.823559, lon.=26.044514, Alt.=155.560669m. Speed=9.036000m/h.</desc>
<speed>2.510000</speed>
</trkpt>
<trkpt lat="55.823540" lon="26.044493">
<ele>155.295044</ele>
<time>2010-07-17T16:04:31Z</time>
<desc>lat.=55.823540, lon.=26.044493, Alt.=155.295044m. Speed=9.288000m/h.</desc>
<speed>2.580000</speed>
</trkpt>
<trkpt lat="55.823517" lon="26.044472">
<ele>154.963013</ele>
<time>2010-07-17T16:04:32Z</time>
<desc>lat.=55.823517, lon.=26.044472, Alt.=154.963013m. Speed=8.532000m/h.</desc>
<speed>2.370000</speed>
</trkpt>
<trkpt lat="55.823490" lon="26.044447">
<ele>154.451294</ele>
<time>2010-07-17T16:04:33Z</time>
<desc>lat.=55.823490, lon.=26.044447, Alt.=154.451294m. Speed=9.756000m/h.</desc>
<speed>2.710000</speed>
</trkpt>
<trkpt lat="55.823471" lon="26.044424">
<ele>154.408325</ele>
<time>2010-07-17T16:04:34Z</time>
<desc>lat.=55.823471, lon.=26.044424, Alt.=154.408325m. Speed=8.244000m/h.</desc>
<speed>2.290000</speed>
</trkpt>
<trkpt lat="55.823456" lon="26.044397">
<ele>154.377075</ele>
<time>2010-07-17T16:04:35Z</time>
<desc>lat.=55.823456, lon.=26.044397, Alt.=154.377075m. Speed=8.028000m/h.</desc>
<speed>2.230000</speed>
</trkpt>
<trkpt lat="55.823444" lon="26.044374">
<ele>154.283325</ele>
<time>2010-07-17T16:04:36Z</time>
<desc>lat.=55.823444, lon.=26.044374, Alt.=154.283325m. Speed=7.236000m/h.</desc>
<speed>2.010000</speed>
</trkpt>
<trkpt lat="55.823433" lon="26.044357">
<ele>154.025513</ele>
<time>2010-07-17T16:04:37Z</time>
<desc>lat.=55.823433, lon.=26.044357, Alt.=154.025513m. Speed=7.056000m/h.</desc>
<speed>1.960000</speed>
</trkpt>
<trkpt lat="55.823421" lon="26.044336">
<ele>153.841919</ele>
<time>2010-07-17T16:04:38Z</time>
<desc>lat.=55.823421, lon.=26.044336, Alt.=153.841919m. Speed=8.208000m/h.</desc>
<speed>2.280000</speed>
</trkpt>
<trkpt lat="55.823406" lon="26.044298">
<ele>154.193481</ele>
<time>2010-07-17T16:04:39Z</time>
<desc>lat.=55.823406, lon.=26.044298, Alt.=154.193481m. Speed=9.180000m/h.</desc>
<speed>2.550000</speed>
</trkpt>
<trkpt lat="55.823387" lon="26.044256">
<ele>154.326294</ele>
<time>2010-07-17T16:04:40Z</time>
<desc>lat.=55.823387, lon.=26.044256, Alt.=154.326294m. Speed=10.224000m/h.</desc>
<speed>2.840000</speed>
</trkpt>
<trkpt lat="55.823372" lon="26.044226">
<ele>154.130981</ele>
<time>2010-07-17T16:04:41Z</time>
<desc>lat.=55.823372, lon.=26.044226, Alt.=154.130981m. Speed=8.100000m/h.</desc>
<speed>2.250000</speed>
</trkpt>
<trkpt lat="55.823357" lon="26.044209">
<ele>153.834106</ele>
<time>2010-07-17T16:04:42Z</time>
<desc>lat.=55.823357, lon.=26.044209, Alt.=153.834106m. Speed=7.848000m/h.</desc>
<speed>2.180000</speed>
</trkpt>
<trkpt lat="55.823338" lon="26.044184">
<ele>153.513794</ele>
<time>2010-07-17T16:04:43Z</time>
<desc>lat.=55.823338, lon.=26.044184, Alt.=153.513794m. Speed=10.224000m/h.</desc>
<speed>2.840000</speed>
</trkpt>
<trkpt lat="55.823315" lon="26.044153">
<ele>153.334106</ele>
<time>2010-07-17T16:04:44Z</time>
<desc>lat.=55.823315, lon.=26.044153, Alt.=153.334106m. Speed=10.656000m/h.</desc>
<speed>2.960000</speed>
</trkpt>
<trkpt lat="55.823292" lon="26.044121">
<ele>153.095825</ele>
<time>2010-07-17T16:04:45Z</time>
<desc>lat.=55.823292, lon.=26.044121, Alt.=153.095825m. Speed=11.052000m/h.</desc>
<speed>3.070000</speed>
</trkpt>
<trkpt lat="55.823277" lon="26.044079">
<ele>153.068481</ele>
<time>2010-07-17T16:04:46Z</time>
<desc>lat.=55.823277, lon.=26.044079, Alt.=153.068481m. Speed=11.484000m/h.</desc>
<speed>3.190000</speed>
</trkpt>
<trkpt lat="55.823242" lon="26.044018">
<ele>152.361450</ele>
<time>2010-07-17T16:04:47Z</time>
<desc>lat.=55.823242, lon.=26.044018, Alt.=152.361450m. Speed=13.824000m/h.</desc>
<speed>3.840000</speed>
</trkpt>
<trkpt lat="55.823200" lon="26.043972">
<ele>152.232544</ele>
<time>2010-07-17T16:04:48Z</time>
<desc>lat.=55.823200, lon.=26.043972, Alt.=152.232544m. Speed=18.360001m/h.</desc>
<speed>5.100000</speed>
</trkpt>
<trkpt lat="55.823158" lon="26.043930">
<ele>152.177856</ele>
<time>2010-07-17T16:04:49Z</time>
<desc>lat.=55.823158, lon.=26.043930, Alt.=152.177856m. Speed=20.664000m/h.</desc>
<speed>5.740000</speed>
</trkpt>
<trkpt lat="55.823112" lon="26.043886">
<ele>152.326294</ele>
<time>2010-07-17T16:04:50Z</time>
<desc>lat.=55.823112, lon.=26.043886, Alt.=152.326294m. Speed=21.096001m/h.</desc>
<speed>5.860000</speed>
</trkpt>
<trkpt lat="55.823071" lon="26.043840">
<ele>152.431763</ele>
<time>2010-07-17T16:04:51Z</time>
<desc>lat.=55.823071, lon.=26.043840, Alt.=152.431763m. Speed=17.424000m/h.</desc>
<speed>4.840000</speed>
</trkpt>
<trkpt lat="55.823040" lon="26.043798">
<ele>152.486450</ele>
<time>2010-07-17T16:04:52Z</time>
<desc>lat.=55.823040, lon.=26.043798, Alt.=152.486450m. Speed=15.192000m/h.</desc>
<speed>4.220000</speed>
</trkpt>
<trkpt lat="55.823013" lon="26.043753">
<ele>152.748169</ele>
<time>2010-07-17T16:04:53Z</time>
<desc>lat.=55.823013, lon.=26.043753, Alt.=152.748169m. Speed=15.408000m/h.</desc>
<speed>4.280000</speed>
</trkpt>
<trkpt lat="55.822983" lon="26.043692">
<ele>153.189575</ele>
<time>2010-07-17T16:04:54Z</time>
<desc>lat.=55.822983, lon.=26.043692, Alt.=153.189575m. Speed=15.696000m/h.</desc>
<speed>4.360000</speed>
</trkpt>
<trkpt lat="55.822948" lon="26.043646">
<ele>153.181763</ele>
<time>2010-07-17T16:04:55Z</time>
<desc>lat.=55.822948, lon.=26.043646, Alt.=153.181763m. Speed=15.984000m/h.</desc>
<speed>4.440000</speed>
</trkpt>
<trkpt lat="55.822906" lon="26.043608">
<ele>153.177856</ele>
<time>2010-07-17T16:04:56Z</time>
<desc>lat.=55.822906, lon.=26.043608, Alt.=153.177856m. Speed=16.524000m/h.</desc>
<speed>4.590000</speed>
</trkpt>
<trkpt lat="55.822868" lon="26.043575">
<ele>153.111450</ele>
<time>2010-07-17T16:04:57Z</time>
<desc>lat.=55.822868, lon.=26.043575, Alt.=153.111450m. Speed=14.616000m/h.</desc>
<speed>4.060000</speed>
</trkpt>
<trkpt lat="55.822826" lon="26.043549">
<ele>153.002075</ele>
<time>2010-07-17T16:04:58Z</time>
<desc>lat.=55.822826, lon.=26.043549, Alt.=153.002075m. Speed=13.284000m/h.</desc>
<speed>3.690000</speed>
</trkpt>
<trkpt lat="55.822788" lon="26.043514">
<ele>153.306763</ele>
<time>2010-07-17T16:04:59Z</time>
<desc>lat.=55.822788, lon.=26.043514, Alt.=153.306763m. Speed=14.508000m/h.</desc>
<speed>4.030000</speed>
</trkpt>
<trkpt lat="55.822750" lon="26.043470">
<ele>153.798950</ele>
<time>2010-07-17T16:05:00Z</time>
<desc>lat.=55.822750, lon.=26.043470, Alt.=153.798950m. Speed=14.976000m/h.</desc>
<speed>4.160000</speed>
</trkpt>
<trkpt lat="55.822712" lon="26.043417">
<ele>154.197388</ele>
<time>2010-07-17T16:05:01Z</time>
<desc>lat.=55.822712, lon.=26.043417, Alt.=154.197388m. Speed=18.180000m/h.</desc>
<speed>5.050000</speed>
</trkpt>
<trkpt lat="55.822685" lon="26.043356">
<ele>153.888794</ele>
<time>2010-07-17T16:05:02Z</time>
<desc>lat.=55.822685, lon.=26.043356, Alt.=153.888794m. Speed=16.488001m/h.</desc>
<speed>4.580000</speed>
</trkpt>
<trkpt lat="55.822666" lon="26.043293">
<ele>154.017700</ele>
<time>2010-07-17T16:05:03Z</time>
<desc>lat.=55.822666, lon.=26.043293, Alt.=154.017700m. Speed=17.351999m/h.</desc>
<speed>4.820000</speed>
</trkpt>
<trkpt lat="55.822636" lon="26.043217">
<ele>153.220825</ele>
<time>2010-07-17T16:05:04Z</time>
<desc>lat.=55.822636, lon.=26.043217, Alt.=153.220825m. Speed=16.704000m/h.</desc>
<speed>4.640000</speed>
</trkpt>
<trkpt lat="55.822598" lon="26.043146">
<ele>153.326294</ele>
<time>2010-07-17T16:05:05Z</time>
<desc>lat.=55.822598, lon.=26.043146, Alt.=153.326294m. Speed=14.472000m/h.</desc>
<speed>4.020000</speed>
</trkpt>
<trkpt lat="55.822586" lon="26.043066">
<ele>152.130981</ele>
<time>2010-07-17T16:05:06Z</time>
<desc>lat.=55.822586, lon.=26.043066, Alt.=152.130981m. Speed=15.804000m/h.</desc>
<speed>4.390000</speed>
</trkpt>
<trkpt lat="55.822563" lon="26.042980">
<ele>151.205200</ele>
<time>2010-07-17T16:05:07Z</time>
<desc>lat.=55.822563, lon.=26.042980, Alt.=151.205200m. Speed=17.964001m/h.</desc>
<speed>4.990000</speed>
</trkpt>
<trkpt lat="55.822544" lon="26.042896">
<ele>151.283325</ele>
<time>2010-07-17T16:05:08Z</time>
<desc>lat.=55.822544, lon.=26.042896, Alt.=151.283325m. Speed=19.044001m/h.</desc>
<speed>5.290000</speed>
</trkpt>
<trkpt lat="55.822533" lon="26.042814">
<ele>150.955200</ele>
<time>2010-07-17T16:05:09Z</time>
<desc>lat.=55.822533, lon.=26.042814, Alt.=150.955200m. Speed=17.712000m/h.</desc>
<speed>4.920000</speed>
</trkpt>
<trkpt lat="55.822525" lon="26.042727">
<ele>150.588013</ele>
<time>2010-07-17T16:05:10Z</time>
<desc>lat.=55.822525, lon.=26.042727, Alt.=150.588013m. Speed=16.667999m/h.</desc>
<speed>4.630000</speed>
</trkpt>
<trkpt lat="55.822517" lon="26.042656">
<ele>150.533325</ele>
<time>2010-07-17T16:05:11Z</time>
<desc>lat.=55.822517, lon.=26.042656, Alt.=150.533325m. Speed=16.488001m/h.</desc>
<speed>4.580000</speed>
</trkpt>
<trkpt lat="55.822491" lon="26.042559">
<ele>151.338013</ele>
<time>2010-07-17T16:05:12Z</time>
<desc>lat.=55.822491, lon.=26.042559, Alt.=151.338013m. Speed=15.192000m/h.</desc>
<speed>4.220000</speed>
</trkpt>
<trkpt lat="55.822468" lon="26.042477">
<ele>151.634888</ele>
<time>2010-07-17T16:05:13Z</time>
<desc>lat.=55.822468, lon.=26.042477, Alt.=151.634888m. Speed=15.084000m/h.</desc>
<speed>4.190000</speed>
</trkpt>
<trkpt lat="55.822460" lon="26.042400">
<ele>151.927856</ele>
<time>2010-07-17T16:05:14Z</time>
<desc>lat.=55.822460, lon.=26.042400, Alt.=151.927856m. Speed=13.824000m/h.</desc>
<speed>3.840000</speed>
</trkpt>
<trkpt lat="55.822445" lon="26.042334">
<ele>152.720825</ele>
<time>2010-07-17T16:05:15Z</time>
<desc>lat.=55.822445, lon.=26.042334, Alt.=152.720825m. Speed=12.132000m/h.</desc>
<speed>3.370000</speed>
</trkpt>
<trkpt lat="55.822437" lon="26.042282">
<ele>152.927856</ele>
<time>2010-07-17T16:05:16Z</time>
<desc>lat.=55.822437, lon.=26.042282, Alt.=152.927856m. Speed=11.952000m/h.</desc>
<speed>3.320000</speed>
</trkpt>
<trkpt lat="55.822426" lon="26.042233">
<ele>152.681763</ele>
<time>2010-07-17T16:05:17Z</time>
<desc>lat.=55.822426, lon.=26.042233, Alt.=152.681763m. Speed=8.604000m/h.</desc>
<speed>2.390000</speed>
</trkpt>
<trkpt lat="55.822411" lon="26.042194">
<ele>152.685669</ele>
<time>2010-07-17T16:05:18Z</time>
<desc>lat.=55.822411, lon.=26.042194, Alt.=152.685669m. Speed=7.632000m/h.</desc>
<speed>2.120000</speed>
</trkpt>
<trkpt lat="55.822403" lon="26.042162">
<ele>153.451294</ele>
<time>2010-07-17T16:05:19Z</time>
<desc>lat.=55.822403, lon.=26.042162, Alt.=153.451294m. Speed=8.388000m/h.</desc>
<speed>2.330000</speed>
</trkpt>
<trkpt lat="55.822395" lon="26.042130">
<ele>154.099731</ele>
<time>2010-07-17T16:05:20Z</time>
<desc>lat.=55.822395, lon.=26.042130, Alt.=154.099731m. Speed=6.948000m/h.</desc>
<speed>1.930000</speed>
</trkpt>
<trkpt lat="55.822392" lon="26.042103">
<ele>153.845825</ele>
<time>2010-07-17T16:05:21Z</time>
<desc>lat.=55.822392, lon.=26.042103, Alt.=153.845825m. Speed=6.408000m/h.</desc>
<speed>1.780000</speed>
</trkpt>
<trkpt lat="55.822392" lon="26.042074">
<ele>153.865356</ele>
<time>2010-07-17T16:05:22Z</time>
<desc>lat.=55.822392, lon.=26.042074, Alt.=153.865356m. Speed=7.056000m/h.</desc>
<speed>1.960000</speed>
</trkpt>
<trkpt lat="55.822388" lon="26.042042">
<ele>153.857544</ele>
<time>2010-07-17T16:05:23Z</time>
<desc>lat.=55.822388, lon.=26.042042, Alt.=153.857544m. Speed=7.920000m/h.</desc>
<speed>2.200000</speed>
</trkpt>
<trkpt lat="55.822376" lon="26.042007">
<ele>154.185669</ele>
<time>2010-07-17T16:05:24Z</time>
<desc>lat.=55.822376, lon.=26.042007, Alt.=154.185669m. Speed=8.316000m/h.</desc>
<speed>2.310000</speed>
</trkpt>
<trkpt lat="55.822372" lon="26.041969">
<ele>154.451294</ele>
<time>2010-07-17T16:05:25Z</time>
<desc>lat.=55.822372, lon.=26.041969, Alt.=154.451294m. Speed=8.784000m/h.</desc>
<speed>2.440000</speed>
</trkpt>
<trkpt lat="55.822365" lon="26.041925">
<ele>154.810669</ele>
<time>2010-07-17T16:05:26Z</time>
<desc>lat.=55.822365, lon.=26.041925, Alt.=154.810669m. Speed=9.180000m/h.</desc>
<speed>2.550000</speed>
</trkpt>
<trkpt lat="55.822369" lon="26.041878">
<ele>154.568481</ele>
<time>2010-07-17T16:05:27Z</time>
<desc>lat.=55.822369, lon.=26.041878, Alt.=154.568481m. Speed=9.324000m/h.</desc>
<speed>2.590000</speed>
</trkpt>
<trkpt lat="55.822365" lon="26.041840">
<ele>155.095825</ele>
<time>2010-07-17T16:05:28Z</time>
<desc>lat.=55.822365, lon.=26.041840, Alt.=155.095825m. Speed=7.632000m/h.</desc>
<speed>2.120000</speed>
</trkpt>
<trkpt lat="55.822361" lon="26.041809">
<ele>155.650513</ele>
<time>2010-07-17T16:05:29Z</time>
<desc>lat.=55.822361, lon.=26.041809, Alt.=155.650513m. Speed=7.560000m/h.</desc>
<speed>2.100000</speed>
</trkpt>
<trkpt lat="55.822350" lon="26.041775">
<ele>155.920044</ele>
<time>2010-07-17T16:05:30Z</time>
<desc>lat.=55.822350, lon.=26.041775, Alt.=155.920044m. Speed=8.352000m/h.</desc>
<speed>2.320000</speed>
</trkpt>
<trkpt lat="55.822338" lon="26.041735">
<ele>155.576294</ele>
<time>2010-07-17T16:05:31Z</time>
<desc>lat.=55.822338, lon.=26.041735, Alt.=155.576294m. Speed=8.748000m/h.</desc>
<speed>2.430000</speed>
</trkpt>
<trkpt lat="55.822327" lon="26.041698">
<ele>155.779419</ele>
<time>2010-07-17T16:05:32Z</time>
<desc>lat.=55.822327, lon.=26.041698, Alt.=155.779419m. Speed=8.928000m/h.</desc>
<speed>2.480000</speed>
</trkpt>
<trkpt lat="55.822315" lon="26.041658">
<ele>155.920044</ele>
<time>2010-07-17T16:05:33Z</time>
<desc>lat.=55.822315, lon.=26.041658, Alt.=155.920044m. Speed=9.324000m/h.</desc>
<speed>2.590000</speed>
</trkpt>
<trkpt lat="55.822304" lon="26.041615">
<ele>155.810669</ele>
<time>2010-07-17T16:05:34Z</time>
<desc>lat.=55.822304, lon.=26.041615, Alt.=155.810669m. Speed=10.188000m/h.</desc>
<speed>2.830000</speed>
</trkpt>
<trkpt lat="55.822289" lon="26.041573">
<ele>155.853638</ele>
<time>2010-07-17T16:05:35Z</time>
<desc>lat.=55.822289, lon.=26.041573, Alt.=155.853638m. Speed=10.008000m/h.</desc>
<speed>2.780000</speed>
</trkpt>
<trkpt lat="55.822273" lon="26.041534">
<ele>156.130981</ele>
<time>2010-07-17T16:05:36Z</time>
<desc>lat.=55.822273, lon.=26.041534, Alt.=156.130981m. Speed=9.684000m/h.</desc>
<speed>2.690000</speed>
</trkpt>
<trkpt lat="55.822262" lon="26.041496">
<ele>156.099731</ele>
<time>2010-07-17T16:05:37Z</time>
<desc>lat.=55.822262, lon.=26.041496, Alt.=156.099731m. Speed=10.188000m/h.</desc>
<speed>2.830000</speed>
</trkpt>
<trkpt lat="55.822250" lon="26.041447">
<ele>156.470825</ele>
<time>2010-07-17T16:05:38Z</time>
<desc>lat.=55.822250, lon.=26.041447, Alt.=156.470825m. Speed=10.692000m/h.</desc>
<speed>2.970000</speed>
</trkpt>
<trkpt lat="55.822239" lon="26.041397">
<ele>156.978638</ele>
<time>2010-07-17T16:05:39Z</time>
<desc>lat.=55.822239, lon.=26.041397, Alt.=156.978638m. Speed=11.952000m/h.</desc>
<speed>3.320000</speed>
</trkpt>
<trkpt lat="55.822231" lon="26.041357">
<ele>157.025513</ele>
<time>2010-07-17T16:05:40Z</time>
<desc>lat.=55.822231, lon.=26.041357, Alt.=157.025513m. Speed=9.144000m/h.</desc>
<speed>2.540000</speed>
</trkpt>
<trkpt lat="55.822224" lon="26.041319">
<ele>157.291138</ele>
<time>2010-07-17T16:05:41Z</time>
<desc>lat.=55.822224, lon.=26.041319, Alt.=157.291138m. Speed=8.784000m/h.</desc>
<speed>2.440000</speed>
</trkpt>
<trkpt lat="55.822212" lon="26.041286">
<ele>157.556763</ele>
<time>2010-07-17T16:05:42Z</time>
<desc>lat.=55.822212, lon.=26.041286, Alt.=157.556763m. Speed=8.208000m/h.</desc>
<speed>2.280000</speed>
</trkpt>
<trkpt lat="55.822197" lon="26.041239">
<ele>158.146606</ele>
<time>2010-07-17T16:05:43Z</time>
<desc>lat.=55.822197, lon.=26.041239, Alt.=158.146606m. Speed=9.828000m/h.</desc>
<speed>2.730000</speed>
</trkpt>
<trkpt lat="55.822186" lon="26.041199">
<ele>158.533325</ele>
<time>2010-07-17T16:05:44Z</time>
<desc>lat.=55.822186, lon.=26.041199, Alt.=158.533325m. Speed=9.792000m/h.</desc>
<speed>2.720000</speed>
</trkpt>
<trkpt lat="55.822178" lon="26.041161">
<ele>158.670044</ele>
<time>2010-07-17T16:05:45Z</time>
<desc>lat.=55.822178, lon.=26.041161, Alt.=158.670044m. Speed=8.676000m/h.</desc>
<speed>2.410000</speed>
</trkpt>
<trkpt lat="55.822166" lon="26.041124">
<ele>159.009888</ele>
<time>2010-07-17T16:05:46Z</time>
<desc>lat.=55.822166, lon.=26.041124, Alt.=159.009888m. Speed=9.288000m/h.</desc>
<speed>2.580000</speed>
</trkpt>
<trkpt lat="55.822151" lon="26.041080">
<ele>159.591919</ele>
<time>2010-07-17T16:05:47Z</time>
<desc>lat.=55.822151, lon.=26.041080, Alt.=159.591919m. Speed=7.452000m/h.</desc>
<speed>2.070000</speed>
</trkpt>
<trkpt lat="55.822140" lon="26.041044">
<ele>160.119263</ele>
<time>2010-07-17T16:05:48Z</time>
<desc>lat.=55.822140, lon.=26.041044, Alt.=160.119263m. Speed=7.884000m/h.</desc>
<speed>2.190000</speed>
</trkpt>
<trkpt lat="55.822124" lon="26.041012">
<ele>160.048950</ele>
<time>2010-07-17T16:05:49Z</time>
<desc>lat.=55.822124, lon.=26.041012, Alt.=160.048950m. Speed=7.776000m/h.</desc>
<speed>2.160000</speed>
</trkpt>
<trkpt lat="55.822109" lon="26.040979">
<ele>159.861450</ele>
<time>2010-07-17T16:05:50Z</time>
<desc>lat.=55.822109, lon.=26.040979, Alt.=159.861450m. Speed=7.380000m/h.</desc>
<speed>2.050000</speed>
</trkpt>
<trkpt lat="55.822098" lon="26.040953">
<ele>160.002075</ele>
<time>2010-07-17T16:05:51Z</time>
<desc>lat.=55.822098, lon.=26.040953, Alt.=160.002075m. Speed=7.344000m/h.</desc>
<speed>2.040000</speed>
</trkpt>
<trkpt lat="55.822090" lon="26.040926">
<ele>160.451294</ele>
<time>2010-07-17T16:05:52Z</time>
<desc>lat.=55.822090, lon.=26.040926, Alt.=160.451294m. Speed=8.136000m/h.</desc>
<speed>2.260000</speed>
</trkpt>
<trkpt lat="55.822071" lon="26.040895">
<ele>160.338013</ele>
<time>2010-07-17T16:05:53Z</time>
<desc>lat.=55.822071, lon.=26.040895, Alt.=160.338013m. Speed=8.676000m/h.</desc>
<speed>2.410000</speed>
</trkpt>
<trkpt lat="55.822056" lon="26.040861">
<ele>160.205200</ele>
<time>2010-07-17T16:05:54Z</time>
<desc>lat.=55.822056, lon.=26.040861, Alt.=160.205200m. Speed=8.892000m/h.</desc>
<speed>2.470000</speed>
</trkpt>
<trkpt lat="55.822041" lon="26.040833">
<ele>160.291138</ele>
<time>2010-07-17T16:05:55Z</time>
<desc>lat.=55.822041, lon.=26.040833, Alt.=160.291138m. Speed=7.956000m/h.</desc>
<speed>2.210000</speed>
</trkpt>
<trkpt lat="55.822033" lon="26.040806">
<ele>160.388794</ele>
<time>2010-07-17T16:05:56Z</time>
<desc>lat.=55.822033, lon.=26.040806, Alt.=160.388794m. Speed=6.372000m/h.</desc>
<speed>1.770000</speed>
</trkpt>
<trkpt lat="55.822025" lon="26.040781">
<ele>160.447388</ele>
<time>2010-07-17T16:05:57Z</time>
<desc>lat.=55.822025, lon.=26.040781, Alt.=160.447388m. Speed=7.884000m/h.</desc>
<speed>2.190000</speed>
</trkpt>
<trkpt lat="55.822010" lon="26.040752">
<ele>160.279419</ele>
<time>2010-07-17T16:05:58Z</time>
<desc>lat.=55.822010, lon.=26.040752, Alt.=160.279419m. Speed=8.856000m/h.</desc>
<speed>2.460000</speed>
</trkpt>
<trkpt lat="55.821987" lon="26.040718">
<ele>159.724731</ele>
<time>2010-07-17T16:05:59Z</time>
<desc>lat.=55.821987, lon.=26.040718, Alt.=159.724731m. Speed=9.612000m/h.</desc>
<speed>2.670000</speed>
</trkpt>
<trkpt lat="55.821972" lon="26.040689">
<ele>159.502075</ele>
<time>2010-07-17T16:06:00Z</time>
<desc>lat.=55.821972, lon.=26.040689, Alt.=159.502075m. Speed=9.432000m/h.</desc>
<speed>2.620000</speed>
</trkpt>
<trkpt lat="55.821957" lon="26.040655">
<ele>159.287231</ele>
<time>2010-07-17T16:06:01Z</time>
<desc>lat.=55.821957, lon.=26.040655, Alt.=159.287231m. Speed=9.612000m/h.</desc>
<speed>2.670000</speed>
</trkpt>
<trkpt lat="55.821941" lon="26.040625">
<ele>159.349731</ele>
<time>2010-07-17T16:06:02Z</time>
<desc>lat.=55.821941, lon.=26.040625, Alt.=159.349731m. Speed=9.648000m/h.</desc>
<speed>2.680000</speed>
</trkpt>
<trkpt lat="55.821922" lon="26.040598">
<ele>159.556763</ele>
<time>2010-07-17T16:06:03Z</time>
<desc>lat.=55.821922, lon.=26.040598, Alt.=159.556763m. Speed=9.576000m/h.</desc>
<speed>2.660000</speed>
</trkpt>
<trkpt lat="55.821903" lon="26.040564">
<ele>159.709106</ele>
<time>2010-07-17T16:06:04Z</time>
<desc>lat.=55.821903, lon.=26.040564, Alt.=159.709106m. Speed=9.036000m/h.</desc>
<speed>2.510000</speed>
</trkpt>
<trkpt lat="55.821884" lon="26.040535">
<ele>159.716919</ele>
<time>2010-07-17T16:06:05Z</time>
<desc>lat.=55.821884, lon.=26.040535, Alt.=159.716919m. Speed=9.360000m/h.</desc>
<speed>2.600000</speed>
</trkpt>
<trkpt lat="55.821865" lon="26.040504">
<ele>159.959106</ele>
<time>2010-07-17T16:06:06Z</time>
<desc>lat.=55.821865, lon.=26.040504, Alt.=159.959106m. Speed=10.116000m/h.</desc>
<speed>2.810000</speed>
</trkpt>
<trkpt lat="55.821854" lon="26.040472">
<ele>160.103638</ele>
<time>2010-07-17T16:06:07Z</time>
<desc>lat.=55.821854, lon.=26.040472, Alt.=160.103638m. Speed=9.648000m/h.</desc>
<speed>2.680000</speed>
</trkpt>
<trkpt lat="55.821831" lon="26.040438">
<ele>160.072388</ele>
<time>2010-07-17T16:06:08Z</time>
<desc>lat.=55.821831, lon.=26.040438, Alt.=160.072388m. Speed=11.376000m/h.</desc>
<speed>3.160000</speed>
</trkpt>
<trkpt lat="55.821804" lon="26.040403">
<ele>159.935669</ele>
<time>2010-07-17T16:06:09Z</time>
<desc>lat.=55.821804, lon.=26.040403, Alt.=159.935669m. Speed=12.528000m/h.</desc>
<speed>3.480000</speed>
</trkpt>
<trkpt lat="55.821777" lon="26.040375">
<ele>159.841919</ele>
<time>2010-07-17T16:06:10Z</time>
<desc>lat.=55.821777, lon.=26.040375, Alt.=159.841919m. Speed=11.088000m/h.</desc>
<speed>3.080000</speed>
</trkpt>
<trkpt lat="55.821754" lon="26.040352">
<ele>159.892700</ele>
<time>2010-07-17T16:06:11Z</time>
<desc>lat.=55.821754, lon.=26.040352, Alt.=159.892700m. Speed=10.188000m/h.</desc>
<speed>2.830000</speed>
</trkpt>
<trkpt lat="55.821728" lon="26.040319">
<ele>159.865356</ele>
<time>2010-07-17T16:06:12Z</time>
<desc>lat.=55.821728, lon.=26.040319, Alt.=159.865356m. Speed=13.392000m/h.</desc>
<speed>3.720000</speed>
</trkpt>
<trkpt lat="55.821701" lon="26.040287">
<ele>159.865356</ele>
<time>2010-07-17T16:06:13Z</time>
<desc>lat.=55.821701, lon.=26.040287, Alt.=159.865356m. Speed=11.664000m/h.</desc>
<speed>3.240000</speed>
</trkpt>
<trkpt lat="55.821674" lon="26.040247">
<ele>159.966919</ele>
<time>2010-07-17T16:06:14Z</time>
<desc>lat.=55.821674, lon.=26.040247, Alt.=159.966919m. Speed=14.040000m/h.</desc>
<speed>3.900000</speed>
</trkpt>
<trkpt lat="55.821648" lon="26.040201">
<ele>160.084106</ele>
<time>2010-07-17T16:06:15Z</time>
<desc>lat.=55.821648, lon.=26.040201, Alt.=160.084106m. Speed=14.832000m/h.</desc>
<speed>4.120000</speed>
</trkpt>
<trkpt lat="55.821629" lon="26.040161">
<ele>160.365356</ele>
<time>2010-07-17T16:06:16Z</time>
<desc>lat.=55.821629, lon.=26.040161, Alt.=160.365356m. Speed=12.636000m/h.</desc>
<speed>3.510000</speed>
</trkpt>
<trkpt lat="55.821606" lon="26.040123">
<ele>160.396606</ele>
<time>2010-07-17T16:06:17Z</time>
<desc>lat.=55.821606, lon.=26.040123, Alt.=160.396606m. Speed=11.988000m/h.</desc>
<speed>3.330000</speed>
</trkpt>
<trkpt lat="55.821587" lon="26.040092">
<ele>160.306763</ele>
<time>2010-07-17T16:06:18Z</time>
<desc>lat.=55.821587, lon.=26.040092, Alt.=160.306763m. Speed=9.504000m/h.</desc>
<speed>2.640000</speed>
</trkpt>
<trkpt lat="55.821568" lon="26.040064">
<ele>160.345825</ele>
<time>2010-07-17T16:06:19Z</time>
<desc>lat.=55.821568, lon.=26.040064, Alt.=160.345825m. Speed=9.432000m/h.</desc>
<speed>2.620000</speed>
</trkpt>
<trkpt lat="55.821560" lon="26.040035">
<ele>160.255981</ele>
<time>2010-07-17T16:06:20Z</time>
<desc>lat.=55.821560, lon.=26.040035, Alt.=160.255981m. Speed=7.668000m/h.</desc>
<speed>2.130000</speed>
</trkpt>
<trkpt lat="55.821548" lon="26.040005">
<ele>160.330200</ele>
<time>2010-07-17T16:06:21Z</time>
<desc>lat.=55.821548, lon.=26.040005, Alt.=160.330200m. Speed=7.956000m/h.</desc>
<speed>2.210000</speed>
</trkpt>
<trkpt lat="55.821545" lon="26.039984">
<ele>160.306763</ele>
<time>2010-07-17T16:06:22Z</time>
<desc>lat.=55.821545, lon.=26.039984, Alt.=160.306763m. Speed=5.004000m/h.</desc>
<speed>1.390000</speed>
</trkpt>
<trkpt lat="55.821541" lon="26.039976">
<ele>160.162231</ele>
<time>2010-07-17T16:06:23Z</time>
<desc>lat.=55.821541, lon.=26.039976, Alt.=160.162231m. Speed=0.180000m/h.</desc>
<speed>0.050000</speed>
</trkpt>
<trkpt lat="55.821537" lon="26.039970">
<ele>160.056763</ele>
<time>2010-07-17T16:06:24Z</time>
<desc>lat.=55.821537, lon.=26.039970, Alt.=160.056763m. Speed=0.900000m/h.</desc>
<speed>0.250000</speed>
</trkpt>
<trkpt lat="55.821537" lon="26.039974">
<ele>159.865356</ele>
<time>2010-07-17T16:06:25Z</time>
<desc>lat.=55.821537, lon.=26.039974, Alt.=159.865356m. Speed=0.504000m/h.</desc>
<speed>0.140000</speed>
</trkpt>
<trkpt lat="55.821533" lon="26.039970">
<ele>159.888794</ele>
<time>2010-07-17T16:06:26Z</time>
<desc>lat.=55.821533, lon.=26.039970, Alt.=159.888794m. Speed=0.612000m/h.</desc>
<speed>0.170000</speed>
</trkpt>
<trkpt lat="55.821533" lon="26.039968">
<ele>159.896606</ele>
<time>2010-07-17T16:06:27Z</time>
<desc>lat.=55.821533, lon.=26.039968, Alt.=159.896606m. Speed=0.468000m/h.</desc>
<speed>0.130000</speed>
</trkpt>
<trkpt lat="55.821533" lon="26.039968">
<ele>159.908325</ele>
<time>2010-07-17T16:06:28Z</time>
<desc>lat.=55.821533, lon.=26.039968, Alt.=159.908325m. Speed=0.720000m/h.</desc>
<speed>0.200000</speed>
</trkpt>
<trkpt lat="55.821529" lon="26.039968">
<ele>159.916138</ele>
<time>2010-07-17T16:06:29Z</time>
<desc>lat.=55.821529, lon.=26.039968, Alt.=159.916138m. Speed=0.684000m/h.</desc>
<speed>0.190000</speed>
</trkpt>
<trkpt lat="55.821529" lon="26.039970">
<ele>159.916138</ele>
<time>2010-07-17T16:06:30Z</time>
<desc>lat.=55.821529, lon.=26.039970, Alt.=159.916138m. Speed=0.576000m/h.</desc>
<speed>0.160000</speed>
</trkpt>
<trkpt lat="55.821529" lon="26.039970">
<ele>159.920044</ele>
<time>2010-07-17T16:06:31Z</time>
<desc>lat.=55.821529, lon.=26.039970, Alt.=159.920044m. Speed=1.476000m/h.</desc>
<speed>0.410000</speed>
</trkpt>
<trkpt lat="55.821526" lon="26.039967">
<ele>159.920044</ele>
<time>2010-07-17T16:06:32Z</time>
<desc>lat.=55.821526, lon.=26.039967, Alt.=159.920044m. Speed=2.736000m/h.</desc>
<speed>0.760000</speed>
</trkpt>
<trkpt lat="55.821518" lon="26.039961">
<ele>159.912231</ele>
<time>2010-07-17T16:06:33Z</time>
<desc>lat.=55.821518, lon.=26.039961, Alt.=159.912231m. Speed=3.924000m/h.</desc>
<speed>1.090000</speed>
</trkpt>
<trkpt lat="55.821518" lon="26.039930">
<ele>159.744263</ele>
<time>2010-07-17T16:06:34Z</time>
<desc>lat.=55.821518, lon.=26.039930, Alt.=159.744263m. Speed=4.644000m/h.</desc>
<speed>1.290000</speed>
</trkpt>
<trkpt lat="55.821491" lon="26.039894">
<ele>159.623169</ele>
<time>2010-07-17T16:06:35Z</time>
<desc>lat.=55.821491, lon.=26.039894, Alt.=159.623169m. Speed=7.128000m/h.</desc>
<speed>1.980000</speed>
</trkpt>
<trkpt lat="55.821453" lon="26.039856">
<ele>159.201294</ele>
<time>2010-07-17T16:06:36Z</time>
<desc>lat.=55.821453, lon.=26.039856, Alt.=159.201294m. Speed=13.824000m/h.</desc>
<speed>3.840000</speed>
</trkpt>
<trkpt lat="55.821423" lon="26.039803">
<ele>159.213013</ele>
<time>2010-07-17T16:06:37Z</time>
<desc>lat.=55.821423, lon.=26.039803, Alt.=159.213013m. Speed=15.732000m/h.</desc>
<speed>4.370000</speed>
</trkpt>
<trkpt lat="55.821388" lon="26.039753">
<ele>159.068481</ele>
<time>2010-07-17T16:06:38Z</time>
<desc>lat.=55.821388, lon.=26.039753, Alt.=159.068481m. Speed=16.091999m/h.</desc>
<speed>4.470000</speed>
</trkpt>
<trkpt lat="55.821358" lon="26.039688">
<ele>159.146606</ele>
<time>2010-07-17T16:06:39Z</time>
<desc>lat.=55.821358, lon.=26.039688, Alt.=159.146606m. Speed=17.063999m/h.</desc>
<speed>4.740000</speed>
</trkpt>
<trkpt lat="55.821327" lon="26.039637">
<ele>159.189575</ele>
<time>2010-07-17T16:06:40Z</time>
<desc>lat.=55.821327, lon.=26.039637, Alt.=159.189575m. Speed=16.271999m/h.</desc>
<speed>4.520000</speed>
</trkpt>
<trkpt lat="55.821297" lon="26.039589">
<ele>159.115356</ele>
<time>2010-07-17T16:06:41Z</time>
<desc>lat.=55.821297, lon.=26.039589, Alt.=159.115356m. Speed=15.660000m/h.</desc>
<speed>4.350000</speed>
</trkpt>
<trkpt lat="55.821259" lon="26.039549">
<ele>159.013794</ele>
<time>2010-07-17T16:06:42Z</time>
<desc>lat.=55.821259, lon.=26.039549, Alt.=159.013794m. Speed=17.784000m/h.</desc>
<speed>4.940000</speed>
</trkpt>
<trkpt lat="55.821220" lon="26.039513">
<ele>158.783325</ele>
<time>2010-07-17T16:06:43Z</time>
<desc>lat.=55.821220, lon.=26.039513, Alt.=158.783325m. Speed=16.271999m/h.</desc>
<speed>4.520000</speed>
</trkpt>
<trkpt lat="55.821178" lon="26.039480">
<ele>158.584106</ele>
<time>2010-07-17T16:06:44Z</time>
<desc>lat.=55.821178, lon.=26.039480, Alt.=158.584106m. Speed=16.416000m/h.</desc>
<speed>4.560000</speed>
</trkpt>
<trkpt lat="55.821148" lon="26.039446">
<ele>158.466919</ele>
<time>2010-07-17T16:06:45Z</time>
<desc>lat.=55.821148, lon.=26.039446, Alt.=158.466919m. Speed=16.704000m/h.</desc>
<speed>4.640000</speed>
</trkpt>
<trkpt lat="55.821106" lon="26.039400">
<ele>158.005981</ele>
<time>2010-07-17T16:06:46Z</time>
<desc>lat.=55.821106, lon.=26.039400, Alt.=158.005981m. Speed=18.360001m/h.</desc>
<speed>5.100000</speed>
</trkpt>
<trkpt lat="55.821049" lon="26.039352">
<ele>157.310669</ele>
<time>2010-07-17T16:06:47Z</time>
<desc>lat.=55.821049, lon.=26.039352, Alt.=157.310669m. Speed=20.304001m/h.</desc>
<speed>5.640000</speed>
</trkpt>
<trkpt lat="55.820995" lon="26.039295">
<ele>156.838013</ele>
<time>2010-07-17T16:06:48Z</time>
<desc>lat.=55.820995, lon.=26.039295, Alt.=156.838013m. Speed=22.247999m/h.</desc>
<speed>6.180000</speed>
</trkpt>
<trkpt lat="55.820946" lon="26.039248">
<ele>156.513794</ele>
<time>2010-07-17T16:06:49Z</time>
<desc>lat.=55.820946, lon.=26.039248, Alt.=156.513794m. Speed=23.292000m/h.</desc>
<speed>6.470000</speed>
</trkpt>
<trkpt lat="55.820892" lon="26.039192">
<ele>156.279419</ele>
<time>2010-07-17T16:06:50Z</time>
<desc>lat.=55.820892, lon.=26.039192, Alt.=156.279419m. Speed=22.968000m/h.</desc>
<speed>6.380000</speed>
</trkpt>
<trkpt lat="55.820835" lon="26.039145">
<ele>155.892700</ele>
<time>2010-07-17T16:06:51Z</time>
<desc>lat.=55.820835, lon.=26.039145, Alt.=155.892700m. Speed=23.256001m/h.</desc>
<speed>6.460000</speed>
</trkpt>
<trkpt lat="55.820778" lon="26.039087">
<ele>155.580200</ele>
<time>2010-07-17T16:06:52Z</time>
<desc>lat.=55.820778, lon.=26.039087, Alt.=155.580200m. Speed=24.587999m/h.</desc>
<speed>6.830000</speed>
</trkpt>
<trkpt lat="55.820721" lon="26.039019">
<ele>154.728638</ele>
<time>2010-07-17T16:06:53Z</time>
<desc>lat.=55.820721, lon.=26.039019, Alt.=154.728638m. Speed=25.200001m/h.</desc>
<speed>7.000000</speed>
</trkpt>
<trkpt lat="55.820675" lon="26.038950">
<ele>154.447388</ele>
<time>2010-07-17T16:06:54Z</time>
<desc>lat.=55.820675, lon.=26.038950, Alt.=154.447388m. Speed=23.796000m/h.</desc>
<speed>6.610000</speed>
</trkpt>
<trkpt lat="55.820629" lon="26.038876">
<ele>154.154419</ele>
<time>2010-07-17T16:06:55Z</time>
<desc>lat.=55.820629, lon.=26.038876, Alt.=154.154419m. Speed=24.444000m/h.</desc>
<speed>6.790000</speed>
</trkpt>
<trkpt lat="55.820583" lon="26.038795">
<ele>153.838013</ele>
<time>2010-07-17T16:06:56Z</time>
<desc>lat.=55.820583, lon.=26.038795, Alt.=153.838013m. Speed=24.695999m/h.</desc>
<speed>6.860000</speed>
</trkpt>
<trkpt lat="55.820549" lon="26.038713">
<ele>153.005981</ele>
<time>2010-07-17T16:06:57Z</time>
<desc>lat.=55.820549, lon.=26.038713, Alt.=153.005981m. Speed=22.572001m/h.</desc>
<speed>6.270000</speed>
</trkpt>
<trkpt lat="55.820518" lon="26.038630">
<ele>152.435669</ele>
<time>2010-07-17T16:06:58Z</time>
<desc>lat.=55.820518, lon.=26.038630, Alt.=152.435669m. Speed=22.500000m/h.</desc>
<speed>6.250000</speed>
</trkpt>
<trkpt lat="55.820496" lon="26.038548">
<ele>151.834106</ele>
<time>2010-07-17T16:06:59Z</time>
<desc>lat.=55.820496, lon.=26.038548, Alt.=151.834106m. Speed=21.851999m/h.</desc>
<speed>6.070000</speed>
</trkpt>
<trkpt lat="55.820473" lon="26.038458">
<ele>151.748169</ele>
<time>2010-07-17T16:07:00Z</time>
<desc>lat.=55.820473, lon.=26.038458, Alt.=151.748169m. Speed=22.392000m/h.</desc>
<speed>6.220000</speed>
</trkpt>
<trkpt lat="55.820446" lon="26.038372">
<ele>151.509888</ele>
<time>2010-07-17T16:07:01Z</time>
<desc>lat.=55.820446, lon.=26.038372, Alt.=151.509888m. Speed=21.959999m/h.</desc>
<speed>6.100000</speed>
</trkpt>
<trkpt lat="55.820427" lon="26.038290">
<ele>151.271606</ele>
<time>2010-07-17T16:07:02Z</time>
<desc>lat.=55.820427, lon.=26.038290, Alt.=151.271606m. Speed=19.476000m/h.</desc>
<speed>5.410000</speed>
</trkpt>
<trkpt lat="55.820404" lon="26.038216">
<ele>151.338013</ele>
<time>2010-07-17T16:07:03Z</time>
<desc>lat.=55.820404, lon.=26.038216, Alt.=151.338013m. Speed=18.540001m/h.</desc>
<speed>5.150000</speed>
</trkpt>
<trkpt lat="55.820381" lon="26.038147">
<ele>151.080200</ele>
<time>2010-07-17T16:07:04Z</time>
<desc>lat.=55.820381, lon.=26.038147, Alt.=151.080200m. Speed=17.532000m/h.</desc>
<speed>4.870000</speed>
</trkpt>
<trkpt lat="55.820351" lon="26.038082">
<ele>151.623169</ele>
<time>2010-07-17T16:07:05Z</time>
<desc>lat.=55.820351, lon.=26.038082, Alt.=151.623169m. Speed=18.612000m/h.</desc>
<speed>5.170000</speed>
</trkpt>
<trkpt lat="55.820332" lon="26.038023">
<ele>151.115356</ele>
<time>2010-07-17T16:07:06Z</time>
<desc>lat.=55.820332, lon.=26.038023, Alt.=151.115356m. Speed=14.796000m/h.</desc>
<speed>4.110000</speed>
</trkpt>
<trkpt lat="55.820305" lon="26.037966">
<ele>151.064575</ele>
<time>2010-07-17T16:07:07Z</time>
<desc>lat.=55.820305, lon.=26.037966, Alt.=151.064575m. Speed=15.696000m/h.</desc>
<speed>4.360000</speed>
</trkpt>
<trkpt lat="55.820271" lon="26.037903">
<ele>151.088013</ele>
<time>2010-07-17T16:07:08Z</time>
<desc>lat.=55.820271, lon.=26.037903, Alt.=151.088013m. Speed=17.351999m/h.</desc>
<speed>4.820000</speed>
</trkpt>
<trkpt lat="55.820229" lon="26.037849">
<ele>151.244263</ele>
<time>2010-07-17T16:07:09Z</time>
<desc>lat.=55.820229, lon.=26.037849, Alt.=151.244263m. Speed=19.403999m/h.</desc>
<speed>5.390000</speed>
</trkpt>
<trkpt lat="55.820190" lon="26.037794">
<ele>151.420044</ele>
<time>2010-07-17T16:07:10Z</time>
<desc>lat.=55.820190, lon.=26.037794, Alt.=151.420044m. Speed=18.431999m/h.</desc>
<speed>5.120000</speed>
</trkpt>
<trkpt lat="55.820145" lon="26.037746">
<ele>151.197388</ele>
<time>2010-07-17T16:07:11Z</time>
<desc>lat.=55.820145, lon.=26.037746, Alt.=151.197388m. Speed=19.584000m/h.</desc>
<speed>5.440000</speed>
</trkpt>
<trkpt lat="55.820091" lon="26.037685">
<ele>151.603638</ele>
<time>2010-07-17T16:07:12Z</time>
<desc>lat.=55.820091, lon.=26.037685, Alt.=151.603638m. Speed=18.504000m/h.</desc>
<speed>5.140000</speed>
</trkpt>
<trkpt lat="55.820045" lon="26.037624">
<ele>152.048950</ele>
<time>2010-07-17T16:07:13Z</time>
<desc>lat.=55.820045, lon.=26.037624, Alt.=152.048950m. Speed=18.576000m/h.</desc>
<speed>5.160000</speed>
</trkpt>
<trkpt lat="55.820007" lon="26.037580">
<ele>152.298950</ele>
<time>2010-07-17T16:07:14Z</time>
<desc>lat.=55.820007, lon.=26.037580, Alt.=152.298950m. Speed=16.992001m/h.</desc>
<speed>4.720000</speed>
</trkpt>
<trkpt lat="55.819973" lon="26.037554">
<ele>152.607544</ele>
<time>2010-07-17T16:07:15Z</time>
<desc>lat.=55.819973, lon.=26.037554, Alt.=152.607544m. Speed=11.016000m/h.</desc>
<speed>3.060000</speed>
</trkpt>
<trkpt lat="55.819958" lon="26.037531">
<ele>153.400513</ele>
<time>2010-07-17T16:07:16Z</time>
<desc>lat.=55.819958, lon.=26.037531, Alt.=153.400513m. Speed=3.312000m/h.</desc>
<speed>0.920000</speed>
</trkpt>
<trkpt lat="55.819954" lon="26.037527">
<ele>153.560669</ele>
<time>2010-07-17T16:07:17Z</time>
<desc>lat.=55.819954, lon.=26.037527, Alt.=153.560669m. Speed=1.368000m/h.</desc>
<speed>0.380000</speed>
</trkpt>
<trkpt lat="55.819950" lon="26.037512">
<ele>154.056763</ele>
<time>2010-07-17T16:07:18Z</time>
<desc>lat.=55.819950, lon.=26.037512, Alt.=154.056763m. Speed=1.260000m/h.</desc>
<speed>0.350000</speed>
</trkpt>
<trkpt lat="55.819942" lon="26.037514">
<ele>154.451294</ele>
<time>2010-07-17T16:07:19Z</time>
<desc>lat.=55.819942, lon.=26.037514, Alt.=154.451294m. Speed=1.008000m/h.</desc>
<speed>0.280000</speed>
</trkpt>
<trkpt lat="55.819946" lon="26.037518">
<ele>154.486450</ele>
<time>2010-07-17T16:07:20Z</time>
<desc>lat.=55.819946, lon.=26.037518, Alt.=154.486450m. Speed=0.684000m/h.</desc>
<speed>0.190000</speed>
</trkpt>
<trkpt lat="55.819942" lon="26.037519">
<ele>154.529419</ele>
<time>2010-07-17T16:07:21Z</time>
<desc>lat.=55.819942, lon.=26.037519, Alt.=154.529419m. Speed=0.864000m/h.</desc>
<speed>0.240000</speed>
</trkpt>
<trkpt lat="55.819942" lon="26.037519">
<ele>154.568481</ele>
<time>2010-07-17T16:07:22Z</time>
<desc>lat.=55.819942, lon.=26.037519, Alt.=154.568481m. Speed=0.324000m/h.</desc>
<speed>0.090000</speed>
</trkpt>
<trkpt lat="55.819939" lon="26.037519">
<ele>154.599731</ele>
<time>2010-07-17T16:07:23Z</time>
<desc>lat.=55.819939, lon.=26.037519, Alt.=154.599731m. Speed=1.260000m/h.</desc>
<speed>0.350000</speed>
</trkpt>
<trkpt lat="55.819939" lon="26.037519">
<ele>154.611450</ele>
<time>2010-07-17T16:07:24Z</time>
<desc>lat.=55.819939, lon.=26.037519, Alt.=154.611450m. Speed=1.044000m/h.</desc>
<speed>0.290000</speed>
</trkpt>
<trkpt lat="55.819935" lon="26.037518">
<ele>154.627075</ele>
<time>2010-07-17T16:07:25Z</time>
<desc>lat.=55.819935, lon.=26.037518, Alt.=154.627075m. Speed=1.512000m/h.</desc>
<speed>0.420000</speed>
</trkpt>
<trkpt lat="55.819931" lon="26.037518">
<ele>154.638794</ele>
<time>2010-07-17T16:07:26Z</time>
<desc>lat.=55.819931, lon.=26.037518, Alt.=154.638794m. Speed=1.512000m/h.</desc>
<speed>0.420000</speed>
</trkpt>
<trkpt lat="55.819927" lon="26.037518">
<ele>154.650513</ele>
<time>2010-07-17T16:07:27Z</time>
<desc>lat.=55.819927, lon.=26.037518, Alt.=154.650513m. Speed=1.656000m/h.</desc>
<speed>0.460000</speed>
</trkpt>
<trkpt lat="55.819923" lon="26.037518">
<ele>154.662231</ele>
<time>2010-07-17T16:07:28Z</time>
<desc>lat.=55.819923, lon.=26.037518, Alt.=154.662231m. Speed=1.584000m/h.</desc>
<speed>0.440000</speed>
</trkpt>
<trkpt lat="55.819920" lon="26.037518">
<ele>154.681763</ele>
<time>2010-07-17T16:07:29Z</time>
<desc>lat.=55.819920, lon.=26.037518, Alt.=154.681763m. Speed=1.152000m/h.</desc>
<speed>0.320000</speed>
</trkpt>
<trkpt lat="55.819916" lon="26.037518">
<ele>154.693481</ele>
<time>2010-07-17T16:07:30Z</time>
<desc>lat.=55.819916, lon.=26.037518, Alt.=154.693481m. Speed=1.044000m/h.</desc>
<speed>0.290000</speed>
</trkpt>
<trkpt lat="55.819912" lon="26.037519">
<ele>154.709106</ele>
<time>2010-07-17T16:07:31Z</time>
<desc>lat.=55.819912, lon.=26.037519, Alt.=154.709106m. Speed=1.188000m/h.</desc>
<speed>0.330000</speed>
</trkpt>
<trkpt lat="55.819912" lon="26.037521">
<ele>154.716919</ele>
<time>2010-07-17T16:07:32Z</time>
<desc>lat.=55.819912, lon.=26.037521, Alt.=154.716919m. Speed=1.080000m/h.</desc>
<speed>0.300000</speed>
</trkpt>
<trkpt lat="55.819908" lon="26.037523">
<ele>154.724731</ele>
<time>2010-07-17T16:07:33Z</time>
<desc>lat.=55.819908, lon.=26.037523, Alt.=154.724731m. Speed=1.152000m/h.</desc>
<speed>0.320000</speed>
</trkpt>
<trkpt lat="55.819904" lon="26.037527">
<ele>154.736450</ele>
<time>2010-07-17T16:07:34Z</time>
<desc>lat.=55.819904, lon.=26.037527, Alt.=154.736450m. Speed=1.368000m/h.</desc>
<speed>0.380000</speed>
</trkpt>
<trkpt lat="55.819904" lon="26.037531">
<ele>154.744263</ele>
<time>2010-07-17T16:07:35Z</time>
<desc>lat.=55.819904, lon.=26.037531, Alt.=154.744263m. Speed=1.224000m/h.</desc>
<speed>0.340000</speed>
</trkpt>
<trkpt lat="55.819901" lon="26.037537">
<ele>154.752075</ele>
<time>2010-07-17T16:07:36Z</time>
<desc>lat.=55.819901, lon.=26.037537, Alt.=154.752075m. Speed=1.116000m/h.</desc>
<speed>0.310000</speed>
</trkpt>
<trkpt lat="55.819901" lon="26.037540">
<ele>154.759888</ele>
<time>2010-07-17T16:07:37Z</time>
<desc>lat.=55.819901, lon.=26.037540, Alt.=154.759888m. Speed=1.080000m/h.</desc>
<speed>0.300000</speed>
</trkpt>
<trkpt lat="55.819901" lon="26.037544">
<ele>154.763794</ele>
<time>2010-07-17T16:07:38Z</time>
<desc>lat.=55.819901, lon.=26.037544, Alt.=154.763794m. Speed=1.800000m/h.</desc>
<speed>0.500000</speed>
</trkpt>
<trkpt lat="55.819897" lon="26.037552">
<ele>154.767700</ele>
<time>2010-07-17T16:07:39Z</time>
<desc>lat.=55.819897, lon.=26.037552, Alt.=154.767700m. Speed=1.656000m/h.</desc>
<speed>0.460000</speed>
</trkpt>
<trkpt lat="55.819897" lon="26.037560">
<ele>154.775513</ele>
<time>2010-07-17T16:07:40Z</time>
<desc>lat.=55.819897, lon.=26.037560, Alt.=154.775513m. Speed=1.260000m/h.</desc>
<speed>0.350000</speed>
</trkpt>
<trkpt lat="55.819893" lon="26.037563">
<ele>154.787231</ele>
<time>2010-07-17T16:07:41Z</time>
<desc>lat.=55.819893, lon.=26.037563, Alt.=154.787231m. Speed=1.584000m/h.</desc>
<speed>0.440000</speed>
</trkpt>
<trkpt lat="55.819893" lon="26.037569">
<ele>154.798950</ele>
<time>2010-07-17T16:07:42Z</time>
<desc>lat.=55.819893, lon.=26.037569, Alt.=154.798950m. Speed=1.188000m/h.</desc>
<speed>0.330000</speed>
</trkpt>
<trkpt lat="55.819889" lon="26.037575">
<ele>154.810669</ele>
<time>2010-07-17T16:07:43Z</time>
<desc>lat.=55.819889, lon.=26.037575, Alt.=154.810669m. Speed=0.828000m/h.</desc>
<speed>0.230000</speed>
</trkpt>
<trkpt lat="55.819889" lon="26.037577">
<ele>154.822388</ele>
<time>2010-07-17T16:07:44Z</time>
<desc>lat.=55.819889, lon.=26.037577, Alt.=154.822388m. Speed=0.576000m/h.</desc>
<speed>0.160000</speed>
</trkpt>
<trkpt lat="55.819889" lon="26.037579">
<ele>154.830200</ele>
<time>2010-07-17T16:07:45Z</time>
<desc>lat.=55.819889, lon.=26.037579, Alt.=154.830200m. Speed=0.180000m/h.</desc>
<speed>0.050000</speed>
</trkpt>
<trkpt lat="55.819889" lon="26.037579">
<ele>154.838013</ele>
<time>2010-07-17T16:07:46Z</time>
<desc>lat.=55.819889, lon.=26.037579, Alt.=154.838013m. Speed=0.324000m/h.</desc>
<speed>0.090000</speed>
</trkpt>
<trkpt lat="55.819885" lon="26.037577">
<ele>154.845825</ele>
<time>2010-07-17T16:07:47Z</time>
<desc>lat.=55.819885, lon.=26.037577, Alt.=154.845825m. Speed=0.720000m/h.</desc>
<speed>0.200000</speed>
</trkpt>
<trkpt lat="55.819885" lon="26.037575">
<ele>154.853638</ele>
<time>2010-07-17T16:07:48Z</time>
<desc>lat.=55.819885, lon.=26.037575, Alt.=154.853638m. Speed=0.432000m/h.</desc>
<speed>0.120000</speed>
</trkpt>
<trkpt lat="55.819885" lon="26.037573">
<ele>154.861450</ele>
<time>2010-07-17T16:07:49Z</time>
<desc>lat.=55.819885, lon.=26.037573, Alt.=154.861450m. Speed=0.612000m/h.</desc>
<speed>0.170000</speed>
</trkpt>
<trkpt lat="55.819885" lon="26.037575">
<ele>154.869263</ele>
<time>2010-07-17T16:07:50Z</time>
<desc>lat.=55.819885, lon.=26.037575, Alt.=154.869263m. Speed=1.080000m/h.</desc>
<speed>0.300000</speed>
</trkpt>
<trkpt lat="55.819881" lon="26.037577">
<ele>154.877075</ele>
<time>2010-07-17T16:07:51Z</time>
<desc>lat.=55.819881, lon.=26.037577, Alt.=154.877075m. Speed=0.756000m/h.</desc>
<speed>0.210000</speed>
</trkpt>
<trkpt lat="55.819881" lon="26.037579">
<ele>154.884888</ele>
<time>2010-07-17T16:07:52Z</time>
<desc>lat.=55.819881, lon.=26.037579, Alt.=154.884888m. Speed=0.900000m/h.</desc>
<speed>0.250000</speed>
</trkpt>
<trkpt lat="55.819878" lon="26.037579">
<ele>154.892700</ele>
<time>2010-07-17T16:07:53Z</time>
<desc>lat.=55.819878, lon.=26.037579, Alt.=154.892700m. Speed=0.756000m/h.</desc>
<speed>0.210000</speed>
</trkpt>
<trkpt lat="55.819874" lon="26.037579">
<ele>154.900513</ele>
<time>2010-07-17T16:07:54Z</time>
<desc>lat.=55.819874, lon.=26.037579, Alt.=154.900513m. Speed=1.116000m/h.</desc>
<speed>0.310000</speed>
</trkpt>
<trkpt lat="55.819874" lon="26.037580">
<ele>154.908325</ele>
<time>2010-07-17T16:07:55Z</time>
<desc>lat.=55.819874, lon.=26.037580, Alt.=154.908325m. Speed=0.900000m/h.</desc>
<speed>0.250000</speed>
</trkpt>
<trkpt lat="55.819870" lon="26.037582">
<ele>154.916138</ele>
<time>2010-07-17T16:07:56Z</time>
<desc>lat.=55.819870, lon.=26.037582, Alt.=154.916138m. Speed=0.252000m/h.</desc>
<speed>0.070000</speed>
</trkpt>
<trkpt lat="55.819870" lon="26.037582">
<ele>154.923950</ele>
<time>2010-07-17T16:07:57Z</time>
<desc>lat.=55.819870, lon.=26.037582, Alt.=154.923950m. Speed=0.612000m/h.</desc>
<speed>0.170000</speed>
</trkpt>
<trkpt lat="55.819870" lon="26.037579">
<ele>154.931763</ele>
<time>2010-07-17T16:07:58Z</time>
<desc>lat.=55.819870, lon.=26.037579, Alt.=154.931763m. Speed=0.288000m/h.</desc>
<speed>0.080000</speed>
</trkpt>
<trkpt lat="55.819870" lon="26.037577">
<ele>154.939575</ele>
<time>2010-07-17T16:07:59Z</time>
<desc>lat.=55.819870, lon.=26.037577, Alt.=154.939575m. Speed=0.684000m/h.</desc>
<speed>0.190000</speed>
</trkpt>
<trkpt lat="55.819870" lon="26.037575">
<ele>154.943481</ele>
<time>2010-07-17T16:08:00Z</time>
<desc>lat.=55.819870, lon.=26.037575, Alt.=154.943481m. Speed=0.648000m/h.</desc>
<speed>0.180000</speed>
</trkpt>
<trkpt lat="55.819870" lon="26.037571">
<ele>154.951294</ele>
<time>2010-07-17T16:08:01Z</time>
<desc>lat.=55.819870, lon.=26.037571, Alt.=154.951294m. Speed=1.080000m/h.</desc>
<speed>0.300000</speed>
</trkpt>
<trkpt lat="55.819874" lon="26.037567">
<ele>154.951294</ele>
<time>2010-07-17T16:08:02Z</time>
<desc>lat.=55.819874, lon.=26.037567, Alt.=154.951294m. Speed=1.512000m/h.</desc>
<speed>0.420000</speed>
</trkpt>
<trkpt lat="55.819878" lon="26.037561">
<ele>154.951294</ele>
<time>2010-07-17T16:08:03Z</time>
<desc>lat.=55.819878, lon.=26.037561, Alt.=154.951294m. Speed=1.728000m/h.</desc>
<speed>0.480000</speed>
</trkpt>
<trkpt lat="55.819878" lon="26.037558">
<ele>154.951294</ele>
<time>2010-07-17T16:08:04Z</time>
<desc>lat.=55.819878, lon.=26.037558, Alt.=154.951294m. Speed=2.052000m/h.</desc>
<speed>0.570000</speed>
</trkpt>
<trkpt lat="55.819885" lon="26.037552">
<ele>154.951294</ele>
<time>2010-07-17T16:08:05Z</time>
<desc>lat.=55.819885, lon.=26.037552, Alt.=154.951294m. Speed=2.088000m/h.</desc>
<speed>0.580000</speed>
</trkpt>
<trkpt lat="55.819889" lon="26.037546">
<ele>154.955200</ele>
<time>2010-07-17T16:08:06Z</time>
<desc>lat.=55.819889, lon.=26.037546, Alt.=154.955200m. Speed=1.872000m/h.</desc>
<speed>0.520000</speed>
</trkpt>
<trkpt lat="55.819889" lon="26.037539">
<ele>154.955200</ele>
<time>2010-07-17T16:08:07Z</time>
<desc>lat.=55.819889, lon.=26.037539, Alt.=154.955200m. Speed=1.872000m/h.</desc>
<speed>0.520000</speed>
</trkpt>
<trkpt lat="55.819893" lon="26.037531">
<ele>154.959106</ele>
<time>2010-07-17T16:08:08Z</time>
<desc>lat.=55.819893, lon.=26.037531, Alt.=154.959106m. Speed=1.368000m/h.</desc>
<speed>0.380000</speed>
</trkpt>
<trkpt lat="55.819893" lon="26.037525">
<ele>154.963013</ele>
<time>2010-07-17T16:08:09Z</time>
<desc>lat.=55.819893, lon.=26.037525, Alt.=154.963013m. Speed=0.900000m/h.</desc>
<speed>0.250000</speed>
</trkpt>
<trkpt lat="55.819893" lon="26.037521">
<ele>154.970825</ele>
<time>2010-07-17T16:08:10Z</time>
<desc>lat.=55.819893, lon.=26.037521, Alt.=154.970825m. Speed=0.720000m/h.</desc>
<speed>0.200000</speed>
</trkpt>
<trkpt lat="55.819893" lon="26.037518">
<ele>154.982544</ele>
<time>2010-07-17T16:08:11Z</time>
<desc>lat.=55.819893, lon.=26.037518, Alt.=154.982544m. Speed=0.792000m/h.</desc>
<speed>0.220000</speed>
</trkpt>
<trkpt lat="55.819893" lon="26.037514">
<ele>154.994263</ele>
<time>2010-07-17T16:08:12Z</time>
<desc>lat.=55.819893, lon.=26.037514, Alt.=154.994263m. Speed=0.828000m/h.</desc>
<speed>0.230000</speed>
</trkpt>
<trkpt lat="55.819893" lon="26.037510">
<ele>155.002075</ele>
<time>2010-07-17T16:08:13Z</time>
<desc>lat.=55.819893, lon.=26.037510, Alt.=155.002075m. Speed=0.828000m/h.</desc>
<speed>0.230000</speed>
</trkpt>
<trkpt lat="55.819893" lon="26.037506">
<ele>155.009888</ele>
<time>2010-07-17T16:08:14Z</time>
<desc>lat.=55.819893, lon.=26.037506, Alt.=155.009888m. Speed=1.368000m/h.</desc>
<speed>0.380000</speed>
</trkpt>
<trkpt lat="55.819893" lon="26.037500">
<ele>155.017700</ele>
<time>2010-07-17T16:08:15Z</time>
<desc>lat.=55.819893, lon.=26.037500, Alt.=155.017700m. Speed=1.152000m/h.</desc>
<speed>0.320000</speed>
</trkpt>
<trkpt lat="55.819893" lon="26.037495">
<ele>155.025513</ele>
<time>2010-07-17T16:08:16Z</time>
<desc>lat.=55.819893, lon.=26.037495, Alt.=155.025513m. Speed=0.936000m/h.</desc>
<speed>0.260000</speed>
</trkpt>
<trkpt lat="55.819893" lon="26.037491">
<ele>155.037231</ele>
<time>2010-07-17T16:08:17Z</time>
<desc>lat.=55.819893, lon.=26.037491, Alt.=155.037231m. Speed=0.468000m/h.</desc>
<speed>0.130000</speed>
</trkpt>
<trkpt lat="55.819893" lon="26.037489">
<ele>155.041138</ele>
<time>2010-07-17T16:08:18Z</time>
<desc>lat.=55.819893, lon.=26.037489, Alt.=155.041138m. Speed=0.108000m/h.</desc>
<speed>0.030000</speed>
</trkpt>
<trkpt lat="55.819893" lon="26.037487">
<ele>155.048950</ele>
<time>2010-07-17T16:08:19Z</time>
<desc>lat.=55.819893, lon.=26.037487, Alt.=155.048950m. Speed=0.720000m/h.</desc>
<speed>0.200000</speed>
</trkpt>
<trkpt lat="55.819893" lon="26.037485">
<ele>155.052856</ele>
<time>2010-07-17T16:08:20Z</time>
<desc>lat.=55.819893, lon.=26.037485, Alt.=155.052856m. Speed=0.540000m/h.</desc>
<speed>0.150000</speed>
</trkpt>
<trkpt lat="55.819893" lon="26.037483">
<ele>155.064575</ele>
<time>2010-07-17T16:08:21Z</time>
<desc>lat.=55.819893, lon.=26.037483, Alt.=155.064575m. Speed=0.144000m/h.</desc>
<speed>0.040000</speed>
</trkpt>
<trkpt lat="55.819889" lon="26.037481">
<ele>155.068481</ele>
<time>2010-07-17T16:08:22Z</time>
<desc>lat.=55.819889, lon.=26.037481, Alt.=155.068481m. Speed=0.180000m/h.</desc>
<speed>0.050000</speed>
</trkpt>
<trkpt lat="55.819889" lon="26.037481">
<ele>155.072388</ele>
<time>2010-07-17T16:08:23Z</time>
<desc>lat.=55.819889, lon.=26.037481, Alt.=155.072388m. Speed=0.216000m/h.</desc>
<speed>0.060000</speed>
</trkpt>
<trkpt lat="55.819889" lon="26.037481">
<ele>155.080200</ele>
<time>2010-07-17T16:08:24Z</time>
<desc>lat.=55.819889, lon.=26.037481, Alt.=155.080200m. Speed=0.504000m/h.</desc>
<speed>0.140000</speed>
</trkpt>
<trkpt lat="55.819893" lon="26.037481">
<ele>155.076294</ele>
<time>2010-07-17T16:08:25Z</time>
<desc>lat.=55.819893, lon.=26.037481, Alt.=155.076294m. Speed=0.756000m/h.</desc>
<speed>0.210000</speed>
</trkpt>
<trkpt lat="55.819893" lon="26.037481">
<ele>155.068481</ele>
<time>2010-07-17T16:08:26Z</time>
<desc>lat.=55.819893, lon.=26.037481, Alt.=155.068481m. Speed=0.864000m/h.</desc>
<speed>0.240000</speed>
</trkpt>
<trkpt lat="55.819897" lon="26.037481">
<ele>155.064575</ele>
<time>2010-07-17T16:08:27Z</time>
<desc>lat.=55.819897, lon.=26.037481, Alt.=155.064575m. Speed=0.576000m/h.</desc>
<speed>0.160000</speed>
</trkpt>
<trkpt lat="55.819897" lon="26.037483">
<ele>155.060669</ele>
<time>2010-07-17T16:08:28Z</time>
<desc>lat.=55.819897, lon.=26.037483, Alt.=155.060669m. Speed=0.720000m/h.</desc>
<speed>0.200000</speed>
</trkpt>
<trkpt lat="55.819901" lon="26.037483">
<ele>155.052856</ele>
<time>2010-07-17T16:08:29Z</time>
<desc>lat.=55.819901, lon.=26.037483, Alt.=155.052856m. Speed=0.648000m/h.</desc>
<speed>0.180000</speed>
</trkpt>
<trkpt lat="55.819901" lon="26.037481">
<ele>155.048950</ele>
<time>2010-07-17T16:08:30Z</time>
<desc>lat.=55.819901, lon.=26.037481, Alt.=155.048950m. Speed=0.720000m/h.</desc>
<speed>0.200000</speed>
</trkpt>
<trkpt lat="55.819901" lon="26.037479">
<ele>155.045044</ele>
<time>2010-07-17T16:08:31Z</time>
<desc>lat.=55.819901, lon.=26.037479, Alt.=155.045044m. Speed=0.648000m/h.</desc>
<speed>0.180000</speed>
</trkpt>
<trkpt lat="55.819904" lon="26.037476">
<ele>155.037231</ele>
<time>2010-07-17T16:08:32Z</time>
<desc>lat.=55.819904, lon.=26.037476, Alt.=155.037231m. Speed=1.152000m/h.</desc>
<speed>0.320000</speed>
</trkpt>
<trkpt lat="55.819904" lon="26.037472">
<ele>155.037231</ele>
<time>2010-07-17T16:08:33Z</time>
<desc>lat.=55.819904, lon.=26.037472, Alt.=155.037231m. Speed=1.116000m/h.</desc>
<speed>0.310000</speed>
</trkpt>
<trkpt lat="55.819904" lon="26.037466">
<ele>155.041138</ele>
<time>2010-07-17T16:08:34Z</time>
<desc>lat.=55.819904, lon.=26.037466, Alt.=155.041138m. Speed=0.792000m/h.</desc>
<speed>0.220000</speed>
</trkpt>
<trkpt lat="55.819904" lon="26.037462">
<ele>155.045044</ele>
<time>2010-07-17T16:08:35Z</time>
<desc>lat.=55.819904, lon.=26.037462, Alt.=155.045044m. Speed=0.828000m/h.</desc>
<speed>0.230000</speed>
</trkpt>
<trkpt lat="55.819904" lon="26.037458">
<ele>155.045044</ele>
<time>2010-07-17T16:08:36Z</time>
<desc>lat.=55.819904, lon.=26.037458, Alt.=155.045044m. Speed=0.864000m/h.</desc>
<speed>0.240000</speed>
</trkpt>
<trkpt lat="55.819901" lon="26.037455">
<ele>155.045044</ele>
<time>2010-07-17T16:08:37Z</time>
<desc>lat.=55.819901, lon.=26.037455, Alt.=155.045044m. Speed=1.224000m/h.</desc>
<speed>0.340000</speed>
</trkpt>
<trkpt lat="55.819901" lon="26.037449">
<ele>155.045044</ele>
<time>2010-07-17T16:08:38Z</time>
<desc>lat.=55.819901, lon.=26.037449, Alt.=155.045044m. Speed=1.908000m/h.</desc>
<speed>0.530000</speed>
</trkpt>
<trkpt lat="55.819901" lon="26.037441">
<ele>155.048950</ele>
<time>2010-07-17T16:08:39Z</time>
<desc>lat.=55.819901, lon.=26.037441, Alt.=155.048950m. Speed=1.872000m/h.</desc>
<speed>0.520000</speed>
</trkpt>
<trkpt lat="55.819901" lon="26.037434">
<ele>155.048950</ele>
<time>2010-07-17T16:08:40Z</time>
<desc>lat.=55.819901, lon.=26.037434, Alt.=155.048950m. Speed=1.620000m/h.</desc>
<speed>0.450000</speed>
</trkpt>
<trkpt lat="55.819897" lon="26.037426">
<ele>155.048950</ele>
<time>2010-07-17T16:08:41Z</time>
<desc>lat.=55.819897, lon.=26.037426, Alt.=155.048950m. Speed=1.296000m/h.</desc>
<speed>0.360000</speed>
</trkpt>
<trkpt lat="55.819897" lon="26.037420">
<ele>155.052856</ele>
<time>2010-07-17T16:08:42Z</time>
<desc>lat.=55.819897, lon.=26.037420, Alt.=155.052856m. Speed=0.828000m/h.</desc>
<speed>0.230000</speed>
</trkpt>
<trkpt lat="55.819897" lon="26.037416">
<ele>155.060669</ele>
<time>2010-07-17T16:08:43Z</time>
<desc>lat.=55.819897, lon.=26.037416, Alt.=155.060669m. Speed=0.864000m/h.</desc>
<speed>0.240000</speed>
</trkpt>
<trkpt lat="55.819893" lon="26.037415">
<ele>155.068481</ele>
<time>2010-07-17T16:08:44Z</time>
<desc>lat.=55.819893, lon.=26.037415, Alt.=155.068481m. Speed=0.576000m/h.</desc>
<speed>0.160000</speed>
</trkpt>
<trkpt lat="55.819893" lon="26.037413">
<ele>155.076294</ele>
<time>2010-07-17T16:08:45Z</time>
<desc>lat.=55.819893, lon.=26.037413, Alt.=155.076294m. Speed=0.720000m/h.</desc>
<speed>0.200000</speed>
</trkpt>
<trkpt lat="55.819893" lon="26.037411">
<ele>155.080200</ele>
<time>2010-07-17T16:08:46Z</time>
<desc>lat.=55.819893, lon.=26.037411, Alt.=155.080200m. Speed=0.792000m/h.</desc>
<speed>0.220000</speed>
</trkpt>
<trkpt lat="55.819889" lon="26.037409">
<ele>155.088013</ele>
<time>2010-07-17T16:08:47Z</time>
<desc>lat.=55.819889, lon.=26.037409, Alt.=155.088013m. Speed=0.432000m/h.</desc>
<speed>0.120000</speed>
</trkpt>
<trkpt lat="55.819889" lon="26.037409">
<ele>155.091919</ele>
<time>2010-07-17T16:08:48Z</time>
<desc>lat.=55.819889, lon.=26.037409, Alt.=155.091919m. Speed=0.576000m/h.</desc>
<speed>0.160000</speed>
</trkpt>
<trkpt lat="55.819889" lon="26.037411">
<ele>155.091919</ele>
<time>2010-07-17T16:08:49Z</time>
<desc>lat.=55.819889, lon.=26.037411, Alt.=155.091919m. Speed=0.252000m/h.</desc>
<speed>0.070000</speed>
</trkpt>
<trkpt lat="55.819889" lon="26.037413">
<ele>155.091919</ele>
<time>2010-07-17T16:08:50Z</time>
<desc>lat.=55.819889, lon.=26.037413, Alt.=155.091919m. Speed=0.504000m/h.</desc>
<speed>0.140000</speed>
</trkpt>
<trkpt lat="55.819889" lon="26.037415">
<ele>155.095825</ele>
<time>2010-07-17T16:08:51Z</time>
<desc>lat.=55.819889, lon.=26.037415, Alt.=155.095825m. Speed=0.612000m/h.</desc>
<speed>0.170000</speed>
</trkpt>
<trkpt lat="55.819889" lon="26.037416">
<ele>155.099731</ele>
<time>2010-07-17T16:08:52Z</time>
<desc>lat.=55.819889, lon.=26.037416, Alt.=155.099731m. Speed=0.612000m/h.</desc>
<speed>0.170000</speed>
</trkpt>
<trkpt lat="55.819889" lon="26.037420">
<ele>155.103638</ele>
<time>2010-07-17T16:08:53Z</time>
<desc>lat.=55.819889, lon.=26.037420, Alt.=155.103638m. Speed=0.684000m/h.</desc>
<speed>0.190000</speed>
</trkpt>
<trkpt lat="55.819889" lon="26.037422">
<ele>155.103638</ele>
<time>2010-07-17T16:08:54Z</time>
<desc>lat.=55.819889, lon.=26.037422, Alt.=155.103638m. Speed=0.396000m/h.</desc>
<speed>0.110000</speed>
</trkpt>
<trkpt lat="55.819889" lon="26.037424">
<ele>155.107544</ele>
<time>2010-07-17T16:08:55Z</time>
<desc>lat.=55.819889, lon.=26.037424, Alt.=155.107544m. Speed=0.180000m/h.</desc>
<speed>0.050000</speed>
</trkpt>
<trkpt lat="55.819893" lon="26.037424">
<ele>155.111450</ele>
<time>2010-07-17T16:08:56Z</time>
<desc>lat.=55.819893, lon.=26.037424, Alt.=155.111450m. Speed=0.252000m/h.</desc>
<speed>0.070000</speed>
</trkpt>
<trkpt lat="55.819893" lon="26.037424">
<ele>155.115356</ele>
<time>2010-07-17T16:08:57Z</time>
<desc>lat.=55.819893, lon.=26.037424, Alt.=155.115356m. Speed=0.144000m/h.</desc>
<speed>0.040000</speed>
</trkpt>
<trkpt lat="55.819893" lon="26.037422">
<ele>155.119263</ele>
<time>2010-07-17T16:08:58Z</time>
<desc>lat.=55.819893, lon.=26.037422, Alt.=155.119263m. Speed=0.180000m/h.</desc>
<speed>0.050000</speed>
</trkpt>
<trkpt lat="55.819893" lon="26.037422">
<ele>155.127075</ele>
<time>2010-07-17T16:08:59Z</time>
<desc>lat.=55.819893, lon.=26.037422, Alt.=155.127075m. Speed=0.108000m/h.</desc>
<speed>0.030000</speed>
</trkpt>
<trkpt lat="55.819893" lon="26.037422">
<ele>155.134888</ele>
<time>2010-07-17T16:09:00Z</time>
<desc>lat.=55.819893, lon.=26.037422, Alt.=155.134888m. Speed=0.468000m/h.</desc>
<speed>0.130000</speed>
</trkpt>
<trkpt lat="55.819893" lon="26.037422">
<ele>155.142700</ele>
<time>2010-07-17T16:09:01Z</time>
<desc>lat.=55.819893, lon.=26.037422, Alt.=155.142700m. Speed=0.684000m/h.</desc>
<speed>0.190000</speed>
</trkpt>
<trkpt lat="55.819897" lon="26.037422">
<ele>155.146606</ele>
<time>2010-07-17T16:09:02Z</time>
<desc>lat.=55.819897, lon.=26.037422, Alt.=155.146606m. Speed=1.152000m/h.</desc>
<speed>0.320000</speed>
</trkpt>
<trkpt lat="55.819897" lon="26.037422">
<ele>155.154419</ele>
<time>2010-07-17T16:09:03Z</time>
<desc>lat.=55.819897, lon.=26.037422, Alt.=155.154419m. Speed=1.260000m/h.</desc>
<speed>0.350000</speed>
</trkpt>
<trkpt lat="55.819901" lon="26.037422">
<ele>155.154419</ele>
<time>2010-07-17T16:09:04Z</time>
<desc>lat.=55.819901, lon.=26.037422, Alt.=155.154419m. Speed=1.656000m/h.</desc>
<speed>0.460000</speed>
</trkpt>
<trkpt lat="55.819904" lon="26.037422">
<ele>155.154419</ele>
<time>2010-07-17T16:09:05Z</time>
<desc>lat.=55.819904, lon.=26.037422, Alt.=155.154419m. Speed=1.656000m/h.</desc>
<speed>0.460000</speed>
</trkpt>
<trkpt lat="55.819908" lon="26.037424">
<ele>155.158325</ele>
<time>2010-07-17T16:09:06Z</time>
<desc>lat.=55.819908, lon.=26.037424, Alt.=155.158325m. Speed=0.900000m/h.</desc>
<speed>0.250000</speed>
</trkpt>
<trkpt lat="55.819912" lon="26.037426">
<ele>155.154419</ele>
<time>2010-07-17T16:09:07Z</time>
<desc>lat.=55.819912, lon.=26.037426, Alt.=155.154419m. Speed=0.864000m/h.</desc>
<speed>0.240000</speed>
</trkpt>
<trkpt lat="55.819912" lon="26.037430">
<ele>155.158325</ele>
<time>2010-07-17T16:09:08Z</time>
<desc>lat.=55.819912, lon.=26.037430, Alt.=155.158325m. Speed=1.296000m/h.</desc>
<speed>0.360000</speed>
</trkpt>
<trkpt lat="55.819916" lon="26.037434">
<ele>155.158325</ele>
<time>2010-07-17T16:09:09Z</time>
<desc>lat.=55.819916, lon.=26.037434, Alt.=155.158325m. Speed=0.864000m/h.</desc>
<speed>0.240000</speed>
</trkpt>
<trkpt lat="55.819916" lon="26.037436">
<ele>155.170044</ele>
<time>2010-07-17T16:09:10Z</time>
<desc>lat.=55.819916, lon.=26.037436, Alt.=155.170044m. Speed=1.080000m/h.</desc>
<speed>0.300000</speed>
</trkpt>
<trkpt lat="55.819920" lon="26.037441">
<ele>155.185669</ele>
<time>2010-07-17T16:09:11Z</time>
<desc>lat.=55.819920, lon.=26.037441, Alt.=155.185669m. Speed=1.476000m/h.</desc>
<speed>0.410000</speed>
</trkpt>
<trkpt lat="55.819920" lon="26.037447">
<ele>155.197388</ele>
<time>2010-07-17T16:09:12Z</time>
<desc>lat.=55.819920, lon.=26.037447, Alt.=155.197388m. Speed=1.116000m/h.</desc>
<speed>0.310000</speed>
</trkpt>
<trkpt lat="55.819923" lon="26.037451">
<ele>155.213013</ele>
<time>2010-07-17T16:09:13Z</time>
<desc>lat.=55.819923, lon.=26.037451, Alt.=155.213013m. Speed=1.584000m/h.</desc>
<speed>0.440000</speed>
</trkpt>
<trkpt lat="55.819923" lon="26.037457">
<ele>155.224731</ele>
<time>2010-07-17T16:09:14Z</time>
<desc>lat.=55.819923, lon.=26.037457, Alt.=155.224731m. Speed=1.332000m/h.</desc>
<speed>0.370000</speed>
</trkpt>
<trkpt lat="55.819927" lon="26.037460">
<ele>155.240356</ele>
<time>2010-07-17T16:09:15Z</time>
<desc>lat.=55.819927, lon.=26.037460, Alt.=155.240356m. Speed=0.648000m/h.</desc>
<speed>0.180000</speed>
</trkpt>
<trkpt lat="55.819927" lon="26.037462">
<ele>155.259888</ele>
<time>2010-07-17T16:09:16Z</time>
<desc>lat.=55.819927, lon.=26.037462, Alt.=155.259888m. Speed=0.360000m/h.</desc>
<speed>0.100000</speed>
</trkpt>
<trkpt lat="55.819931" lon="26.037462">
<ele>155.275513</ele>
<time>2010-07-17T16:09:17Z</time>
<desc>lat.=55.819931, lon.=26.037462, Alt.=155.275513m. Speed=0.648000m/h.</desc>
<speed>0.180000</speed>
</trkpt>
<trkpt lat="55.819931" lon="26.037462">
<ele>155.295044</ele>
<time>2010-07-17T16:09:18Z</time>
<desc>lat.=55.819931, lon.=26.037462, Alt.=155.295044m. Speed=0.432000m/h.</desc>
<speed>0.120000</speed>
</trkpt>
<trkpt lat="55.819931" lon="26.037462">
<ele>155.326294</ele>
<time>2010-07-17T16:09:19Z</time>
<desc>lat.=55.819931, lon.=26.037462, Alt.=155.326294m. Speed=0.504000m/h.</desc>
<speed>0.140000</speed>
</trkpt>
<trkpt lat="55.819935" lon="26.037462">
<ele>155.349731</ele>
<time>2010-07-17T16:09:20Z</time>
<desc>lat.=55.819935, lon.=26.037462, Alt.=155.349731m. Speed=0.216000m/h.</desc>
<speed>0.060000</speed>
</trkpt>
<trkpt lat="55.819935" lon="26.037460">
<ele>155.377075</ele>
<time>2010-07-17T16:09:21Z</time>
<desc>lat.=55.819935, lon.=26.037460, Alt.=155.377075m. Speed=0.468000m/h.</desc>
<speed>0.130000</speed>
</trkpt>
<trkpt lat="55.819935" lon="26.037458">
<ele>155.412231</ele>
<time>2010-07-17T16:09:22Z</time>
<desc>lat.=55.819935, lon.=26.037458, Alt.=155.412231m. Speed=0.360000m/h.</desc>
<speed>0.100000</speed>
</trkpt>
<trkpt lat="55.819931" lon="26.037457">
<ele>155.435669</ele>
<time>2010-07-17T16:09:23Z</time>
<desc>lat.=55.819931, lon.=26.037457, Alt.=155.435669m. Speed=0.540000m/h.</desc>
<speed>0.150000</speed>
</trkpt>
<trkpt lat="55.819931" lon="26.037455">
<ele>155.455200</ele>
<time>2010-07-17T16:09:24Z</time>
<desc>lat.=55.819931, lon.=26.037455, Alt.=155.455200m. Speed=0.396000m/h.</desc>
<speed>0.110000</speed>
</trkpt>
<trkpt lat="55.819931" lon="26.037453">
<ele>155.470825</ele>
<time>2010-07-17T16:09:25Z</time>
<desc>lat.=55.819931, lon.=26.037453, Alt.=155.470825m. Speed=0.504000m/h.</desc>
<speed>0.140000</speed>
</trkpt>
<trkpt lat="55.819931" lon="26.037451">
<ele>155.482544</ele>
<time>2010-07-17T16:09:26Z</time>
<desc>lat.=55.819931, lon.=26.037451, Alt.=155.482544m. Speed=0.432000m/h.</desc>
<speed>0.120000</speed>
</trkpt>
<trkpt lat="55.819931" lon="26.037449">
<ele>155.505981</ele>
<time>2010-07-17T16:09:27Z</time>
<desc>lat.=55.819931, lon.=26.037449, Alt.=155.505981m. Speed=0.396000m/h.</desc>
<speed>0.110000</speed>
</trkpt>
<trkpt lat="55.819931" lon="26.037447">
<ele>155.525513</ele>
<time>2010-07-17T16:09:28Z</time>
<desc>lat.=55.819931, lon.=26.037447, Alt.=155.525513m. Speed=0.756000m/h.</desc>
<speed>0.210000</speed>
</trkpt>
<trkpt lat="55.819931" lon="26.037443">
<ele>155.537231</ele>
<time>2010-07-17T16:09:29Z</time>
<desc>lat.=55.819931, lon.=26.037443, Alt.=155.537231m. Speed=0.972000m/h.</desc>
<speed>0.270000</speed>
</trkpt>
<trkpt lat="55.819927" lon="26.037439">
<ele>155.548950</ele>
<time>2010-07-17T16:09:30Z</time>
<desc>lat.=55.819927, lon.=26.037439, Alt.=155.548950m. Speed=0.612000m/h.</desc>
<speed>0.170000</speed>
</trkpt>
<trkpt lat="55.819927" lon="26.037437">
<ele>155.548950</ele>
<time>2010-07-17T16:09:31Z</time>
<desc>lat.=55.819927, lon.=26.037437, Alt.=155.548950m. Speed=0.324000m/h.</desc>
<speed>0.090000</speed>
</trkpt>
<trkpt lat="55.819927" lon="26.037437">
<ele>155.545044</ele>
<time>2010-07-17T16:09:32Z</time>
<desc>lat.=55.819927, lon.=26.037437, Alt.=155.545044m. Speed=0.720000m/h.</desc>
<speed>0.200000</speed>
</trkpt>
<trkpt lat="55.819927" lon="26.037434">
<ele>155.541138</ele>
<time>2010-07-17T16:09:33Z</time>
<desc>lat.=55.819927, lon.=26.037434, Alt.=155.541138m. Speed=0.936000m/h.</desc>
<speed>0.260000</speed>
</trkpt>
<trkpt lat="55.819931" lon="26.037430">
<ele>155.533325</ele>
<time>2010-07-17T16:09:34Z</time>
<desc>lat.=55.819931, lon.=26.037430, Alt.=155.533325m. Speed=0.684000m/h.</desc>
<speed>0.190000</speed>
</trkpt>
<trkpt lat="55.819931" lon="26.037428">
<ele>155.525513</ele>
<time>2010-07-17T16:09:35Z</time>
<desc>lat.=55.819931, lon.=26.037428, Alt.=155.525513m. Speed=0.468000m/h.</desc>
<speed>0.130000</speed>
</trkpt>
<trkpt lat="55.819931" lon="26.037426">
<ele>155.517700</ele>
<time>2010-07-17T16:09:36Z</time>
<desc>lat.=55.819931, lon.=26.037426, Alt.=155.517700m. Speed=0.180000m/h.</desc>
<speed>0.050000</speed>
</trkpt>
<trkpt lat="55.819931" lon="26.037426">
<ele>155.505981</ele>
<time>2010-07-17T16:09:37Z</time>
<desc>lat.=55.819931, lon.=26.037426, Alt.=155.505981m. Speed=0.252000m/h.</desc>
<speed>0.070000</speed>
</trkpt>
<trkpt lat="55.819931" lon="26.037424">
<ele>155.494263</ele>
<time>2010-07-17T16:09:38Z</time>
<desc>lat.=55.819931, lon.=26.037424, Alt.=155.494263m. Speed=0.288000m/h.</desc>
<speed>0.080000</speed>
</trkpt>
<trkpt lat="55.819931" lon="26.037424">
<ele>155.486450</ele>
<time>2010-07-17T16:09:39Z</time>
<desc>lat.=55.819931, lon.=26.037424, Alt.=155.486450m. Speed=0.252000m/h.</desc>
<speed>0.070000</speed>
</trkpt>
<trkpt lat="55.819931" lon="26.037426">
<ele>155.482544</ele>
<time>2010-07-17T16:09:40Z</time>
<desc>lat.=55.819931, lon.=26.037426, Alt.=155.482544m. Speed=0.180000m/h.</desc>
<speed>0.050000</speed>
</trkpt>
<trkpt lat="55.819931" lon="26.037426">
<ele>155.474731</ele>
<time>2010-07-17T16:09:41Z</time>
<desc>lat.=55.819931, lon.=26.037426, Alt.=155.474731m. Speed=0.288000m/h.</desc>
<speed>0.080000</speed>
</trkpt>
<trkpt lat="55.819931" lon="26.037428">
<ele>155.470825</ele>
<time>2010-07-17T16:09:42Z</time>
<desc>lat.=55.819931, lon.=26.037428, Alt.=155.470825m. Speed=0.576000m/h.</desc>
<speed>0.160000</speed>
</trkpt>
<trkpt lat="55.819931" lon="26.037430">
<ele>155.470825</ele>
<time>2010-07-17T16:09:43Z</time>
<desc>lat.=55.819931, lon.=26.037430, Alt.=155.470825m. Speed=0.504000m/h.</desc>
<speed>0.140000</speed>
</trkpt>
<trkpt lat="55.819931" lon="26.037430">
<ele>155.470825</ele>
<time>2010-07-17T16:09:44Z</time>
<desc>lat.=55.819931, lon.=26.037430, Alt.=155.470825m. Speed=2.232000m/h.</desc>
<speed>0.620000</speed>
</trkpt>
<trkpt lat="55.819923" lon="26.037426">
<ele>155.466919</ele>
<time>2010-07-17T16:09:45Z</time>
<desc>lat.=55.819923, lon.=26.037426, Alt.=155.466919m. Speed=2.160000m/h.</desc>
<speed>0.600000</speed>
</trkpt>
<trkpt lat="55.819920" lon="26.037418">
<ele>155.463013</ele>
<time>2010-07-17T16:09:46Z</time>
<desc>lat.=55.819920, lon.=26.037418, Alt.=155.463013m. Speed=2.376000m/h.</desc>
<speed>0.660000</speed>
</trkpt>
<trkpt lat="55.819916" lon="26.037411">
<ele>155.451294</ele>
<time>2010-07-17T16:09:47Z</time>
<desc>lat.=55.819916, lon.=26.037411, Alt.=155.451294m. Speed=3.672000m/h.</desc>
<speed>1.020000</speed>
</trkpt>
<trkpt lat="55.819893" lon="26.037376">
<ele>153.966919</ele>
<time>2010-07-17T16:09:48Z</time>
<desc>lat.=55.819893, lon.=26.037376, Alt.=153.966919m. Speed=4.104000m/h.</desc>
<speed>1.140000</speed>
</trkpt>
<trkpt lat="55.819885" lon="26.037361">
<ele>153.783325</ele>
<time>2010-07-17T16:09:49Z</time>
<desc>lat.=55.819885, lon.=26.037361, Alt.=153.783325m. Speed=4.212000m/h.</desc>
<speed>1.170000</speed>
</trkpt>
<trkpt lat="55.819878" lon="26.037355">
<ele>153.923950</ele>
<time>2010-07-17T16:09:50Z</time>
<desc>lat.=55.819878, lon.=26.037355, Alt.=153.923950m. Speed=3.312000m/h.</desc>
<speed>0.920000</speed>
</trkpt>
<trkpt lat="55.819874" lon="26.037361">
<ele>153.892700</ele>
<time>2010-07-17T16:09:51Z</time>
<desc>lat.=55.819874, lon.=26.037361, Alt.=153.892700m. Speed=1.836000m/h.</desc>
<speed>0.510000</speed>
</trkpt>
<trkpt lat="55.819874" lon="26.037359">
<ele>153.951294</ele>
<time>2010-07-17T16:09:52Z</time>
<desc>lat.=55.819874, lon.=26.037359, Alt.=153.951294m. Speed=0.612000m/h.</desc>
<speed>0.170000</speed>
</trkpt>
<trkpt lat="55.819870" lon="26.037359">
<ele>153.963013</ele>
<time>2010-07-17T16:09:53Z</time>
<desc>lat.=55.819870, lon.=26.037359, Alt.=153.963013m. Speed=0.720000m/h.</desc>
<speed>0.200000</speed>
</trkpt>
<trkpt lat="55.819862" lon="26.037355">
<ele>153.767700</ele>
<time>2010-07-17T16:09:54Z</time>
<desc>lat.=55.819862, lon.=26.037355, Alt.=153.767700m. Speed=0.900000m/h.</desc>
<speed>0.250000</speed>
</trkpt>
<trkpt lat="55.819859" lon="26.037350">
<ele>153.423950</ele>
<time>2010-07-17T16:09:55Z</time>
<desc>lat.=55.819859, lon.=26.037350, Alt.=153.423950m. Speed=1.044000m/h.</desc>
<speed>0.290000</speed>
</trkpt>
<trkpt lat="55.819855" lon="26.037354">
<ele>153.416138</ele>
<time>2010-07-17T16:09:56Z</time>
<desc>lat.=55.819855, lon.=26.037354, Alt.=153.416138m. Speed=1.764000m/h.</desc>
<speed>0.490000</speed>
</trkpt>
<trkpt lat="55.819847" lon="26.037361">
<ele>153.416138</ele>
<time>2010-07-17T16:09:57Z</time>
<desc>lat.=55.819847, lon.=26.037361, Alt.=153.416138m. Speed=2.664000m/h.</desc>
<speed>0.740000</speed>
</trkpt>
<trkpt lat="55.819836" lon="26.037380">
<ele>153.529419</ele>
<time>2010-07-17T16:09:58Z</time>
<desc>lat.=55.819836, lon.=26.037380, Alt.=153.529419m. Speed=3.780000m/h.</desc>
<speed>1.050000</speed>
</trkpt>
<trkpt lat="55.819832" lon="26.037399">
<ele>153.431763</ele>
<time>2010-07-17T16:09:59Z</time>
<desc>lat.=55.819832, lon.=26.037399, Alt.=153.431763m. Speed=4.068000m/h.</desc>
<speed>1.130000</speed>
</trkpt>
<trkpt lat="55.819813" lon="26.037418">
<ele>153.490356</ele>
<time>2010-07-17T16:10:00Z</time>
<desc>lat.=55.819813, lon.=26.037418, Alt.=153.490356m. Speed=4.068000m/h.</desc>
<speed>1.130000</speed>
</trkpt>
<trkpt lat="55.819790" lon="26.037432">
<ele>153.591919</ele>
<time>2010-07-17T16:10:01Z</time>
<desc>lat.=55.819790, lon.=26.037432, Alt.=153.591919m. Speed=4.500000m/h.</desc>
<speed>1.250000</speed>
</trkpt>
<trkpt lat="55.819775" lon="26.037453">
<ele>153.603638</ele>
<time>2010-07-17T16:10:02Z</time>
<desc>lat.=55.819775, lon.=26.037453, Alt.=153.603638m. Speed=5.112000m/h.</desc>
<speed>1.420000</speed>
</trkpt>
<trkpt lat="55.819759" lon="26.037466">
<ele>153.584106</ele>
<time>2010-07-17T16:10:03Z</time>
<desc>lat.=55.819759, lon.=26.037466, Alt.=153.584106m. Speed=5.616000m/h.</desc>
<speed>1.560000</speed>
</trkpt>
<trkpt lat="55.819748" lon="26.037464">
<ele>153.673950</ele>
<time>2010-07-17T16:10:04Z</time>
<desc>lat.=55.819748, lon.=26.037464, Alt.=153.673950m. Speed=4.968000m/h.</desc>
<speed>1.380000</speed>
</trkpt>
<trkpt lat="55.819736" lon="26.037464">
<ele>153.650513</ele>
<time>2010-07-17T16:10:05Z</time>
<desc>lat.=55.819736, lon.=26.037464, Alt.=153.650513m. Speed=4.752000m/h.</desc>
<speed>1.320000</speed>
</trkpt>
<trkpt lat="55.819729" lon="26.037462">
<ele>153.638794</ele>
<time>2010-07-17T16:10:06Z</time>
<desc>lat.=55.819729, lon.=26.037462, Alt.=153.638794m. Speed=3.636000m/h.</desc>
<speed>1.010000</speed>
</trkpt>
<trkpt lat="55.819717" lon="26.037462">
<ele>153.502075</ele>
<time>2010-07-17T16:10:07Z</time>
<desc>lat.=55.819717, lon.=26.037462, Alt.=153.502075m. Speed=4.788000m/h.</desc>
<speed>1.330000</speed>
</trkpt>
<trkpt lat="55.819698" lon="26.037466">
<ele>153.709106</ele>
<time>2010-07-17T16:10:08Z</time>
<desc>lat.=55.819698, lon.=26.037466, Alt.=153.709106m. Speed=4.716000m/h.</desc>
<speed>1.310000</speed>
</trkpt>
<trkpt lat="55.819675" lon="26.037479">
<ele>154.076294</ele>
<time>2010-07-17T16:10:09Z</time>
<desc>lat.=55.819675, lon.=26.037479, Alt.=154.076294m. Speed=5.580000m/h.</desc>
<speed>1.550000</speed>
</trkpt>
<trkpt lat="55.819641" lon="26.037498">
<ele>154.213013</ele>
<time>2010-07-17T16:10:10Z</time>
<desc>lat.=55.819641, lon.=26.037498, Alt.=154.213013m. Speed=8.820000m/h.</desc>
<speed>2.450000</speed>
</trkpt>
<trkpt lat="55.819607" lon="26.037514">
<ele>154.259888</ele>
<time>2010-07-17T16:10:11Z</time>
<desc>lat.=55.819607, lon.=26.037514, Alt.=154.259888m. Speed=7.164000m/h.</desc>
<speed>1.990000</speed>
</trkpt>
<trkpt lat="55.819588" lon="26.037525">
<ele>154.318481</ele>
<time>2010-07-17T16:10:12Z</time>
<desc>lat.=55.819588, lon.=26.037525, Alt.=154.318481m. Speed=6.444000m/h.</desc>
<speed>1.790000</speed>
</trkpt>
<trkpt lat="55.819569" lon="26.037542">
<ele>154.459106</ele>
<time>2010-07-17T16:10:13Z</time>
<desc>lat.=55.819569, lon.=26.037542, Alt.=154.459106m. Speed=4.860000m/h.</desc>
<speed>1.350000</speed>
</trkpt>
<trkpt lat="55.819542" lon="26.037556">
<ele>154.486450</ele>
<time>2010-07-17T16:10:14Z</time>
<desc>lat.=55.819542, lon.=26.037556, Alt.=154.486450m. Speed=7.128000m/h.</desc>
<speed>1.980000</speed>
</trkpt>
<trkpt lat="55.819523" lon="26.037561">
<ele>154.494263</ele>
<time>2010-07-17T16:10:15Z</time>
<desc>lat.=55.819523, lon.=26.037561, Alt.=154.494263m. Speed=7.020000m/h.</desc>
<speed>1.950000</speed>
</trkpt>
<trkpt lat="55.819485" lon="26.037575">
<ele>154.791138</ele>
<time>2010-07-17T16:10:16Z</time>
<desc>lat.=55.819485, lon.=26.037575, Alt.=154.791138m. Speed=8.820000m/h.</desc>
<speed>2.450000</speed>
</trkpt>
<trkpt lat="55.819447" lon="26.037596">
<ele>154.834106</ele>
<time>2010-07-17T16:10:17Z</time>
<desc>lat.=55.819447, lon.=26.037596, Alt.=154.834106m. Speed=8.748000m/h.</desc>
<speed>2.430000</speed>
</trkpt>
<trkpt lat="55.819416" lon="26.037613">
<ele>154.771606</ele>
<time>2010-07-17T16:10:18Z</time>
<desc>lat.=55.819416, lon.=26.037613, Alt.=154.771606m. Speed=6.516000m/h.</desc>
<speed>1.810000</speed>
</trkpt>
<trkpt lat="55.819401" lon="26.037624">
<ele>154.728638</ele>
<time>2010-07-17T16:10:19Z</time>
<desc>lat.=55.819401, lon.=26.037624, Alt.=154.728638m. Speed=4.860000m/h.</desc>
<speed>1.350000</speed>
</trkpt>
<trkpt lat="55.819389" lon="26.037632">
<ele>154.857544</ele>
<time>2010-07-17T16:10:20Z</time>
<desc>lat.=55.819389, lon.=26.037632, Alt.=154.857544m. Speed=3.348000m/h.</desc>
<speed>0.930000</speed>
</trkpt>
<trkpt lat="55.819386" lon="26.037645">
<ele>154.923950</ele>
<time>2010-07-17T16:10:21Z</time>
<desc>lat.=55.819386, lon.=26.037645, Alt.=154.923950m. Speed=2.952000m/h.</desc>
<speed>0.820000</speed>
</trkpt>
<trkpt lat="55.819378" lon="26.037661">
<ele>154.982544</ele>
<time>2010-07-17T16:10:22Z</time>
<desc>lat.=55.819378, lon.=26.037661, Alt.=154.982544m. Speed=3.492000m/h.</desc>
<speed>0.970000</speed>
</trkpt>
<trkpt lat="55.819374" lon="26.037668">
<ele>154.947388</ele>
<time>2010-07-17T16:10:23Z</time>
<desc>lat.=55.819374, lon.=26.037668, Alt.=154.947388m. Speed=2.052000m/h.</desc>
<speed>0.570000</speed>
</trkpt>
<trkpt lat="55.819336" lon="26.037699">
<ele>154.529419</ele>
<time>2010-07-17T16:10:24Z</time>
<desc>lat.=55.819336, lon.=26.037699, Alt.=154.529419m. Speed=1.872000m/h.</desc>
<speed>0.520000</speed>
</trkpt>
<trkpt lat="55.819321" lon="26.037706">
<ele>154.482544</ele>
<time>2010-07-17T16:10:25Z</time>
<desc>lat.=55.819321, lon.=26.037706, Alt.=154.482544m. Speed=1.152000m/h.</desc>
<speed>0.320000</speed>
</trkpt>
<trkpt lat="55.819317" lon="26.037714">
<ele>154.392700</ele>
<time>2010-07-17T16:10:26Z</time>
<desc>lat.=55.819317, lon.=26.037714, Alt.=154.392700m. Speed=0.324000m/h.</desc>
<speed>0.090000</speed>
</trkpt>
<trkpt lat="55.819321" lon="26.037714">
<ele>154.181763</ele>
<time>2010-07-17T16:10:27Z</time>
<desc>lat.=55.819321, lon.=26.037714, Alt.=154.181763m. Speed=0.036000m/h.</desc>
<speed>0.010000</speed>
</trkpt>
<trkpt lat="55.819317" lon="26.037712">
<ele>153.908325</ele>
<time>2010-07-17T16:10:28Z</time>
<desc>lat.=55.819317, lon.=26.037712, Alt.=153.908325m. Speed=0.072000m/h.</desc>
<speed>0.020000</speed>
</trkpt>
<trkpt lat="55.819324" lon="26.037706">
<ele>153.697388</ele>
<time>2010-07-17T16:10:29Z</time>
<desc>lat.=55.819324, lon.=26.037706, Alt.=153.697388m. Speed=0.036000m/h.</desc>
<speed>0.010000</speed>
</trkpt>
<trkpt lat="55.819324" lon="26.037706">
<ele>153.709106</ele>
<time>2010-07-17T16:10:30Z</time>
<desc>lat.=55.819324, lon.=26.037706, Alt.=153.709106m. Speed=0.072000m/h.</desc>
<speed>0.020000</speed>
</trkpt>
<trkpt lat="55.819324" lon="26.037706">
<ele>153.716919</ele>
<time>2010-07-17T16:10:31Z</time>
<desc>lat.=55.819324, lon.=26.037706, Alt.=153.716919m. Speed=0.144000m/h.</desc>
<speed>0.040000</speed>
</trkpt>
<trkpt lat="55.819324" lon="26.037706">
<ele>153.716919</ele>
<time>2010-07-17T16:10:32Z</time>
<desc>lat.=55.819324, lon.=26.037706, Alt.=153.716919m. Speed=0.108000m/h.</desc>
<speed>0.030000</speed>
</trkpt>
<trkpt lat="55.819324" lon="26.037706">
<ele>153.716919</ele>
<time>2010-07-17T16:10:33Z</time>
<desc>lat.=55.819324, lon.=26.037706, Alt.=153.716919m. Speed=0.036000m/h.</desc>
<speed>0.010000</speed>
</trkpt>
<trkpt lat="55.819324" lon="26.037704">
<ele>153.716919</ele>
<time>2010-07-17T16:10:34Z</time>
<desc>lat.=55.819324, lon.=26.037704, Alt.=153.716919m. Speed=0.036000m/h.</desc>
<speed>0.010000</speed>
</trkpt>
<trkpt lat="55.819324" lon="26.037704">
<ele>153.709106</ele>
<time>2010-07-17T16:10:35Z</time>
<desc>lat.=55.819324, lon.=26.037704, Alt.=153.709106m. Speed=2.844000m/h.</desc>
<speed>0.790000</speed>
</trkpt>
<trkpt lat="55.819332" lon="26.037708">
<ele>153.798950</ele>
<time>2010-07-17T16:10:36Z</time>
<desc>lat.=55.819332, lon.=26.037708, Alt.=153.798950m. Speed=3.096000m/h.</desc>
<speed>0.860000</speed>
</trkpt>
<trkpt lat="55.819336" lon="26.037712">
<ele>153.845825</ele>
<time>2010-07-17T16:10:37Z</time>
<desc>lat.=55.819336, lon.=26.037712, Alt.=153.845825m. Speed=3.132000m/h.</desc>
<speed>0.870000</speed>
</trkpt>
<trkpt lat="55.819347" lon="26.037716">
<ele>153.908325</ele>
<time>2010-07-17T16:10:38Z</time>
<desc>lat.=55.819347, lon.=26.037716, Alt.=153.908325m. Speed=3.996000m/h.</desc>
<speed>1.110000</speed>
</trkpt>
<trkpt lat="55.819359" lon="26.037714">
<ele>153.970825</ele>
<time>2010-07-17T16:10:39Z</time>
<desc>lat.=55.819359, lon.=26.037714, Alt.=153.970825m. Speed=4.608000m/h.</desc>
<speed>1.280000</speed>
</trkpt>
<trkpt lat="55.819370" lon="26.037724">
<ele>154.173950</ele>
<time>2010-07-17T16:10:40Z</time>
<desc>lat.=55.819370, lon.=26.037724, Alt.=154.173950m. Speed=6.192000m/h.</desc>
<speed>1.720000</speed>
</trkpt>
<trkpt lat="55.819382" lon="26.037733">
<ele>154.369263</ele>
<time>2010-07-17T16:10:41Z</time>
<desc>lat.=55.819382, lon.=26.037733, Alt.=154.369263m. Speed=4.032000m/h.</desc>
<speed>1.120000</speed>
</trkpt>
<trkpt lat="55.819389" lon="26.037737">
<ele>154.416138</ele>
<time>2010-07-17T16:10:42Z</time>
<desc>lat.=55.819389, lon.=26.037737, Alt.=154.416138m. Speed=2.772000m/h.</desc>
<speed>0.770000</speed>
</trkpt>
<trkpt lat="55.819397" lon="26.037739">
<ele>154.533325</ele>
<time>2010-07-17T16:10:43Z</time>
<desc>lat.=55.819397, lon.=26.037739, Alt.=154.533325m. Speed=2.160000m/h.</desc>
<speed>0.600000</speed>
</trkpt>
<trkpt lat="55.819401" lon="26.037739">
<ele>154.638794</ele>
<time>2010-07-17T16:10:44Z</time>
<desc>lat.=55.819401, lon.=26.037739, Alt.=154.638794m. Speed=1.260000m/h.</desc>
<speed>0.350000</speed>
</trkpt>
<trkpt lat="55.819401" lon="26.037739">
<ele>154.849731</ele>
<time>2010-07-17T16:10:45Z</time>
<desc>lat.=55.819401, lon.=26.037739, Alt.=154.849731m. Speed=0.864000m/h.</desc>
<speed>0.240000</speed>
</trkpt>
<trkpt lat="55.819405" lon="26.037737">
<ele>155.088013</ele>
<time>2010-07-17T16:10:46Z</time>
<desc>lat.=55.819405, lon.=26.037737, Alt.=155.088013m. Speed=1.080000m/h.</desc>
<speed>0.300000</speed>
</trkpt>
<trkpt lat="55.819412" lon="26.037731">
<ele>155.080200</ele>
<time>2010-07-17T16:10:47Z</time>
<desc>lat.=55.819412, lon.=26.037731, Alt.=155.080200m. Speed=1.260000m/h.</desc>
<speed>0.350000</speed>
</trkpt>
<trkpt lat="55.819416" lon="26.037731">
<ele>155.111450</ele>
<time>2010-07-17T16:10:48Z</time>
<desc>lat.=55.819416, lon.=26.037731, Alt.=155.111450m. Speed=1.296000m/h.</desc>
<speed>0.360000</speed>
</trkpt>
<trkpt lat="55.819416" lon="26.037731">
<ele>155.170044</ele>
<time>2010-07-17T16:10:49Z</time>
<desc>lat.=55.819416, lon.=26.037731, Alt.=155.170044m. Speed=1.152000m/h.</desc>
<speed>0.320000</speed>
</trkpt>
<trkpt lat="55.819408" lon="26.037727">
<ele>155.291138</ele>
<time>2010-07-17T16:10:50Z</time>
<desc>lat.=55.819408, lon.=26.037727, Alt.=155.291138m. Speed=0.864000m/h.</desc>
<speed>0.240000</speed>
</trkpt>
<trkpt lat="55.819416" lon="26.037731">
<ele>155.263794</ele>
<time>2010-07-17T16:10:51Z</time>
<desc>lat.=55.819416, lon.=26.037731, Alt.=155.263794m. Speed=0.936000m/h.</desc>
<speed>0.260000</speed>
</trkpt>
<trkpt lat="55.819424" lon="26.037733">
<ele>155.255981</ele>
<time>2010-07-17T16:10:52Z</time>
<desc>lat.=55.819424, lon.=26.037733, Alt.=155.255981m. Speed=1.116000m/h.</desc>
<speed>0.310000</speed>
</trkpt>
<trkpt lat="55.819427" lon="26.037735">
<ele>155.318481</ele>
<time>2010-07-17T16:10:53Z</time>
<desc>lat.=55.819427, lon.=26.037735, Alt.=155.318481m. Speed=1.080000m/h.</desc>
<speed>0.300000</speed>
</trkpt>
<trkpt lat="55.819427" lon="26.037739">
<ele>155.380981</ele>
<time>2010-07-17T16:10:54Z</time>
<desc>lat.=55.819427, lon.=26.037739, Alt.=155.380981m. Speed=1.080000m/h.</desc>
<speed>0.300000</speed>
</trkpt>
<trkpt lat="55.819431" lon="26.037745">
<ele>155.463013</ele>
<time>2010-07-17T16:10:55Z</time>
<desc>lat.=55.819431, lon.=26.037745, Alt.=155.463013m. Speed=1.080000m/h.</desc>
<speed>0.300000</speed>
</trkpt>
<trkpt lat="55.819431" lon="26.037746">
<ele>155.576294</ele>
<time>2010-07-17T16:10:56Z</time>
<desc>lat.=55.819431, lon.=26.037746, Alt.=155.576294m. Speed=0.936000m/h.</desc>
<speed>0.260000</speed>
</trkpt>
<trkpt lat="55.819431" lon="26.037752">
<ele>155.677856</ele>
<time>2010-07-17T16:10:57Z</time>
<desc>lat.=55.819431, lon.=26.037752, Alt.=155.677856m. Speed=0.936000m/h.</desc>
<speed>0.260000</speed>
</trkpt>
<trkpt lat="55.819435" lon="26.037764">
<ele>155.752075</ele>
<time>2010-07-17T16:10:58Z</time>
<desc>lat.=55.819435, lon.=26.037764, Alt.=155.752075m. Speed=1.008000m/h.</desc>
<speed>0.280000</speed>
</trkpt>
<trkpt lat="55.819443" lon="26.037767">
<ele>155.791138</ele>
<time>2010-07-17T16:10:59Z</time>
<desc>lat.=55.819443, lon.=26.037767, Alt.=155.791138m. Speed=1.152000m/h.</desc>
<speed>0.320000</speed>
</trkpt>
<trkpt lat="55.819443" lon="26.037769">
<ele>155.814575</ele>
<time>2010-07-17T16:11:00Z</time>
<desc>lat.=55.819443, lon.=26.037769, Alt.=155.814575m. Speed=1.188000m/h.</desc>
<speed>0.330000</speed>
</trkpt>
<trkpt lat="55.819450" lon="26.037762">
<ele>155.849731</ele>
<time>2010-07-17T16:11:01Z</time>
<desc>lat.=55.819450, lon.=26.037762, Alt.=155.849731m. Speed=1.296000m/h.</desc>
<speed>0.360000</speed>
</trkpt>
<trkpt lat="55.819454" lon="26.037760">
<ele>155.908325</ele>
<time>2010-07-17T16:11:02Z</time>
<desc>lat.=55.819454, lon.=26.037760, Alt.=155.908325m. Speed=1.332000m/h.</desc>
<speed>0.370000</speed>
</trkpt>
<trkpt lat="55.819477" lon="26.037764">
<ele>155.966919</ele>
<time>2010-07-17T16:11:03Z</time>
<desc>lat.=55.819477, lon.=26.037764, Alt.=155.966919m. Speed=2.052000m/h.</desc>
<speed>0.570000</speed>
</trkpt>
<trkpt lat="55.819511" lon="26.037731">
<ele>156.099731</ele>
<time>2010-07-17T16:11:04Z</time>
<desc>lat.=55.819511, lon.=26.037731, Alt.=156.099731m. Speed=3.060000m/h.</desc>
<speed>0.850000</speed>
</trkpt>
<trkpt lat="55.819530" lon="26.037710">
<ele>156.482544</ele>
<time>2010-07-17T16:11:05Z</time>
<desc>lat.=55.819530, lon.=26.037710, Alt.=156.482544m. Speed=3.636000m/h.</desc>
<speed>1.010000</speed>
</trkpt>
<trkpt lat="55.819550" lon="26.037714">
<ele>156.728638</ele>
<time>2010-07-17T16:11:06Z</time>
<desc>lat.=55.819550, lon.=26.037714, Alt.=156.728638m. Speed=4.932000m/h.</desc>
<speed>1.370000</speed>
</trkpt>
<trkpt lat="55.819565" lon="26.037706">
<ele>156.853638</ele>
<time>2010-07-17T16:11:07Z</time>
<desc>lat.=55.819565, lon.=26.037706, Alt.=156.853638m. Speed=8.208000m/h.</desc>
<speed>2.280000</speed>
</trkpt>
<trkpt lat="55.819584" lon="26.037706">
<ele>156.908325</ele>
<time>2010-07-17T16:11:08Z</time>
<desc>lat.=55.819584, lon.=26.037706, Alt.=156.908325m. Speed=7.344000m/h.</desc>
<speed>2.040000</speed>
</trkpt>
<trkpt lat="55.819607" lon="26.037704">
<ele>157.056763</ele>
<time>2010-07-17T16:11:09Z</time>
<desc>lat.=55.819607, lon.=26.037704, Alt.=157.056763m. Speed=7.668000m/h.</desc>
<speed>2.130000</speed>
</trkpt>
<trkpt lat="55.819622" lon="26.037708">
<ele>157.314575</ele>
<time>2010-07-17T16:11:10Z</time>
<desc>lat.=55.819622, lon.=26.037708, Alt.=157.314575m. Speed=9.360000m/h.</desc>
<speed>2.600000</speed>
</trkpt>
<trkpt lat="55.819653" lon="26.037703">
<ele>157.537231</ele>
<time>2010-07-17T16:11:11Z</time>
<desc>lat.=55.819653, lon.=26.037703, Alt.=157.537231m. Speed=12.384000m/h.</desc>
<speed>3.440000</speed>
</trkpt>
<trkpt lat="55.819675" lon="26.037712">
<ele>157.759888</ele>
<time>2010-07-17T16:11:12Z</time>
<desc>lat.=55.819675, lon.=26.037712, Alt.=157.759888m. Speed=12.276000m/h.</desc>
<speed>3.410000</speed>
</trkpt>
<trkpt lat="55.819706" lon="26.037706">
<ele>158.103638</ele>
<time>2010-07-17T16:11:13Z</time>
<desc>lat.=55.819706, lon.=26.037706, Alt.=158.103638m. Speed=12.024000m/h.</desc>
<speed>3.340000</speed>
</trkpt>
<trkpt lat="55.819748" lon="26.037689">
<ele>158.193481</ele>
<time>2010-07-17T16:11:14Z</time>
<desc>lat.=55.819748, lon.=26.037689, Alt.=158.193481m. Speed=12.384000m/h.</desc>
<speed>3.440000</speed>
</trkpt>
<trkpt lat="55.819778" lon="26.037666">
<ele>158.443481</ele>
<time>2010-07-17T16:11:15Z</time>
<desc>lat.=55.819778, lon.=26.037666, Alt.=158.443481m. Speed=11.628000m/h.</desc>
<speed>3.230000</speed>
</trkpt>
<trkpt lat="55.819805" lon="26.037636">
<ele>159.189575</ele>
<time>2010-07-17T16:11:16Z</time>
<desc>lat.=55.819805, lon.=26.037636, Alt.=159.189575m. Speed=11.340000m/h.</desc>
<speed>3.150000</speed>
</trkpt>
<trkpt lat="55.819820" lon="26.037600">
<ele>159.377075</ele>
<time>2010-07-17T16:11:17Z</time>
<desc>lat.=55.819820, lon.=26.037600, Alt.=159.377075m. Speed=9.324000m/h.</desc>
<speed>2.590000</speed>
</trkpt>
<trkpt lat="55.819820" lon="26.037567">
<ele>159.556763</ele>
<time>2010-07-17T16:11:18Z</time>
<desc>lat.=55.819820, lon.=26.037567, Alt.=159.556763m. Speed=8.712000m/h.</desc>
<speed>2.420000</speed>
</trkpt>
<trkpt lat="55.819817" lon="26.037512">
<ele>159.334106</ele>
<time>2010-07-17T16:11:19Z</time>
<desc>lat.=55.819817, lon.=26.037512, Alt.=159.334106m. Speed=8.712000m/h.</desc>
<speed>2.420000</speed>
</trkpt>
<trkpt lat="55.819809" lon="26.037455">
<ele>158.951294</ele>
<time>2010-07-17T16:11:20Z</time>
<desc>lat.=55.819809, lon.=26.037455, Alt.=158.951294m. Speed=8.316000m/h.</desc>
<speed>2.310000</speed>
</trkpt>
<trkpt lat="55.819790" lon="26.037390">
<ele>158.193481</ele>
<time>2010-07-17T16:11:21Z</time>
<desc>lat.=55.819790, lon.=26.037390, Alt.=158.193481m. Speed=9.432000m/h.</desc>
<speed>2.620000</speed>
</trkpt>
<trkpt lat="55.819790" lon="26.037289">
<ele>158.154419</ele>
<time>2010-07-17T16:11:22Z</time>
<desc>lat.=55.819790, lon.=26.037289, Alt.=158.154419m. Speed=10.728000m/h.</desc>
<speed>2.980000</speed>
</trkpt>
<trkpt lat="55.819778" lon="26.037230">
<ele>158.138794</ele>
<time>2010-07-17T16:11:23Z</time>
<desc>lat.=55.819778, lon.=26.037230, Alt.=158.138794m. Speed=11.376000m/h.</desc>
<speed>3.160000</speed>
</trkpt>
<trkpt lat="55.819759" lon="26.037174">
<ele>157.466919</ele>
<time>2010-07-17T16:11:24Z</time>
<desc>lat.=55.819759, lon.=26.037174, Alt.=157.466919m. Speed=11.196000m/h.</desc>
<speed>3.110000</speed>
</trkpt>
<trkpt lat="55.819744" lon="26.037115">
<ele>157.005981</ele>
<time>2010-07-17T16:11:25Z</time>
<desc>lat.=55.819744, lon.=26.037115, Alt.=157.005981m. Speed=12.204000m/h.</desc>
<speed>3.390000</speed>
</trkpt>
<trkpt lat="55.819729" lon="26.037067">
<ele>156.713013</ele>
<time>2010-07-17T16:11:26Z</time>
<desc>lat.=55.819729, lon.=26.037067, Alt.=156.713013m. Speed=11.016000m/h.</desc>
<speed>3.060000</speed>
</trkpt>
<trkpt lat="55.819721" lon="26.037016">
<ele>156.197388</ele>
<time>2010-07-17T16:11:27Z</time>
<desc>lat.=55.819721, lon.=26.037016, Alt.=156.197388m. Speed=10.908000m/h.</desc>
<speed>3.030000</speed>
</trkpt>
<trkpt lat="55.819714" lon="26.036961">
<ele>155.834106</ele>
<time>2010-07-17T16:11:28Z</time>
<desc>lat.=55.819714, lon.=26.036961, Alt.=155.834106m. Speed=11.628000m/h.</desc>
<speed>3.230000</speed>
</trkpt>
<trkpt lat="55.819702" lon="26.036909">
<ele>155.533325</ele>
<time>2010-07-17T16:11:29Z</time>
<desc>lat.=55.819702, lon.=26.036909, Alt.=155.533325m. Speed=12.168000m/h.</desc>
<speed>3.380000</speed>
</trkpt>
<trkpt lat="55.819687" lon="26.036861">
<ele>155.634888</ele>
<time>2010-07-17T16:11:30Z</time>
<desc>lat.=55.819687, lon.=26.036861, Alt.=155.634888m. Speed=11.520000m/h.</desc>
<speed>3.200000</speed>
</trkpt>
<trkpt lat="55.819656" lon="26.036806">
<ele>155.275513</ele>
<time>2010-07-17T16:11:31Z</time>
<desc>lat.=55.819656, lon.=26.036806, Alt.=155.275513m. Speed=11.736000m/h.</desc>
<speed>3.260000</speed>
</trkpt>
<trkpt lat="55.819630" lon="26.036755">
<ele>154.420044</ele>
<time>2010-07-17T16:11:32Z</time>
<desc>lat.=55.819630, lon.=26.036755, Alt.=154.420044m. Speed=11.448000m/h.</desc>
<speed>3.180000</speed>
</trkpt>
<trkpt lat="55.819614" lon="26.036705">
<ele>153.873169</ele>
<time>2010-07-17T16:11:33Z</time>
<desc>lat.=55.819614, lon.=26.036705, Alt.=153.873169m. Speed=10.116000m/h.</desc>
<speed>2.810000</speed>
</trkpt>
<trkpt lat="55.819611" lon="26.036657">
<ele>152.978638</ele>
<time>2010-07-17T16:11:34Z</time>
<desc>lat.=55.819611, lon.=26.036657, Alt.=152.978638m. Speed=10.116000m/h.</desc>
<speed>2.810000</speed>
</trkpt>
<trkpt lat="55.819595" lon="26.036613">
<ele>152.849731</ele>
<time>2010-07-17T16:11:35Z</time>
<desc>lat.=55.819595, lon.=26.036613, Alt.=152.849731m. Speed=7.920000m/h.</desc>
<speed>2.200000</speed>
</trkpt>
<trkpt lat="55.819584" lon="26.036589">
<ele>152.697388</ele>
<time>2010-07-17T16:11:36Z</time>
<desc>lat.=55.819584, lon.=26.036589, Alt.=152.697388m. Speed=5.904000m/h.</desc>
<speed>1.640000</speed>
</trkpt>
<trkpt lat="55.819565" lon="26.036570">
<ele>152.615356</ele>
<time>2010-07-17T16:11:37Z</time>
<desc>lat.=55.819565, lon.=26.036570, Alt.=152.615356m. Speed=6.660000m/h.</desc>
<speed>1.850000</speed>
</trkpt>
<trkpt lat="55.819542" lon="26.036543">
<ele>152.244263</ele>
<time>2010-07-17T16:11:38Z</time>
<desc>lat.=55.819542, lon.=26.036543, Alt.=152.244263m. Speed=6.840000m/h.</desc>
<speed>1.900000</speed>
</trkpt>
<trkpt lat="55.819504" lon="26.036488">
<ele>152.033325</ele>
<time>2010-07-17T16:11:39Z</time>
<desc>lat.=55.819504, lon.=26.036488, Alt.=152.033325m. Speed=7.596000m/h.</desc>
<speed>2.110000</speed>
</trkpt>
<trkpt lat="55.819492" lon="26.036459">
<ele>151.920044</ele>
<time>2010-07-17T16:11:40Z</time>
<desc>lat.=55.819492, lon.=26.036459, Alt.=151.920044m. Speed=6.840000m/h.</desc>
<speed>1.900000</speed>
</trkpt>
<trkpt lat="55.819473" lon="26.036425">
<ele>151.463013</ele>
<time>2010-07-17T16:11:41Z</time>
<desc>lat.=55.819473, lon.=26.036425, Alt.=151.463013m. Speed=8.856000m/h.</desc>
<speed>2.460000</speed>
</trkpt>
<trkpt lat="55.819454" lon="26.036379">
<ele>150.880981</ele>
<time>2010-07-17T16:11:42Z</time>
<desc>lat.=55.819454, lon.=26.036379, Alt.=150.880981m. Speed=8.748000m/h.</desc>
<speed>2.430000</speed>
</trkpt>
<trkpt lat="55.819447" lon="26.036327">
<ele>150.548950</ele>
<time>2010-07-17T16:11:43Z</time>
<desc>lat.=55.819447, lon.=26.036327, Alt.=150.548950m. Speed=9.648000m/h.</desc>
<speed>2.680000</speed>
</trkpt>
<trkpt lat="55.819431" lon="26.036285">
<ele>150.095825</ele>
<time>2010-07-17T16:11:44Z</time>
<desc>lat.=55.819431, lon.=26.036285, Alt.=150.095825m. Speed=7.596000m/h.</desc>
<speed>2.110000</speed>
</trkpt>
<trkpt lat="55.819427" lon="26.036245">
<ele>149.955200</ele>
<time>2010-07-17T16:11:45Z</time>
<desc>lat.=55.819427, lon.=26.036245, Alt.=149.955200m. Speed=8.316000m/h.</desc>
<speed>2.310000</speed>
</trkpt>
<trkpt lat="55.819424" lon="26.036211">
<ele>150.017700</ele>
<time>2010-07-17T16:11:46Z</time>
<desc>lat.=55.819424, lon.=26.036211, Alt.=150.017700m. Speed=7.092000m/h.</desc>
<speed>1.970000</speed>
</trkpt>
<trkpt lat="55.819427" lon="26.036171">
<ele>150.166138</ele>
<time>2010-07-17T16:11:47Z</time>
<desc>lat.=55.819427, lon.=26.036171, Alt.=150.166138m. Speed=6.840000m/h.</desc>
<speed>1.900000</speed>
</trkpt>
<trkpt lat="55.819420" lon="26.036133">
<ele>150.427856</ele>
<time>2010-07-17T16:11:48Z</time>
<desc>lat.=55.819420, lon.=26.036133, Alt.=150.427856m. Speed=8.028000m/h.</desc>
<speed>2.230000</speed>
</trkpt>
<trkpt lat="55.819408" lon="26.036091">
<ele>150.505981</ele>
<time>2010-07-17T16:11:49Z</time>
<desc>lat.=55.819408, lon.=26.036091, Alt.=150.505981m. Speed=9.252000m/h.</desc>
<speed>2.570000</speed>
</trkpt>
<trkpt lat="55.819393" lon="26.036053">
<ele>150.642700</ele>
<time>2010-07-17T16:11:50Z</time>
<desc>lat.=55.819393, lon.=26.036053, Alt.=150.642700m. Speed=9.216000m/h.</desc>
<speed>2.560000</speed>
</trkpt>
<trkpt lat="55.819378" lon="26.036003">
<ele>150.916138</ele>
<time>2010-07-17T16:11:51Z</time>
<desc>lat.=55.819378, lon.=26.036003, Alt.=150.916138m. Speed=8.388000m/h.</desc>
<speed>2.330000</speed>
</trkpt>
<trkpt lat="55.819359" lon="26.035931">
<ele>151.740356</ele>
<time>2010-07-17T16:11:52Z</time>
<desc>lat.=55.819359, lon.=26.035931, Alt.=151.740356m. Speed=8.892000m/h.</desc>
<speed>2.470000</speed>
</trkpt>
<trkpt lat="55.819347" lon="26.035883">
<ele>151.650513</ele>
<time>2010-07-17T16:11:53Z</time>
<desc>lat.=55.819347, lon.=26.035883, Alt.=151.650513m. Speed=10.224000m/h.</desc>
<speed>2.840000</speed>
</trkpt>
<trkpt lat="55.819336" lon="26.035841">
<ele>151.041138</ele>
<time>2010-07-17T16:11:54Z</time>
<desc>lat.=55.819336, lon.=26.035841, Alt.=151.041138m. Speed=11.088000m/h.</desc>
<speed>3.080000</speed>
</trkpt>
<trkpt lat="55.819328" lon="26.035789">
<ele>151.060669</ele>
<time>2010-07-17T16:11:55Z</time>
<desc>lat.=55.819328, lon.=26.035789, Alt.=151.060669m. Speed=9.828000m/h.</desc>
<speed>2.730000</speed>
</trkpt>
<trkpt lat="55.819324" lon="26.035742">
<ele>151.162231</ele>
<time>2010-07-17T16:11:56Z</time>
<desc>lat.=55.819324, lon.=26.035742, Alt.=151.162231m. Speed=10.188000m/h.</desc>
<speed>2.830000</speed>
</trkpt>
<trkpt lat="55.819313" lon="26.035704">
<ele>151.138794</ele>
<time>2010-07-17T16:11:57Z</time>
<desc>lat.=55.819313, lon.=26.035704, Alt.=151.138794m. Speed=10.260000m/h.</desc>
<speed>2.850000</speed>
</trkpt>
<trkpt lat="55.819294" lon="26.035650">
<ele>150.834106</ele>
<time>2010-07-17T16:11:58Z</time>
<desc>lat.=55.819294, lon.=26.035650, Alt.=150.834106m. Speed=12.132000m/h.</desc>
<speed>3.370000</speed>
</trkpt>
<trkpt lat="55.819275" lon="26.035603">
<ele>151.068481</ele>
<time>2010-07-17T16:11:59Z</time>
<desc>lat.=55.819275, lon.=26.035603, Alt.=151.068481m. Speed=12.600000m/h.</desc>
<speed>3.500000</speed>
</trkpt>
<trkpt lat="55.819252" lon="26.035561">
<ele>151.580200</ele>
<time>2010-07-17T16:12:00Z</time>
<desc>lat.=55.819252, lon.=26.035561, Alt.=151.580200m. Speed=14.544000m/h.</desc>
<speed>4.040000</speed>
</trkpt>
<trkpt lat="55.819229" lon="26.035511">
<ele>151.709106</ele>
<time>2010-07-17T16:12:01Z</time>
<desc>lat.=55.819229, lon.=26.035511, Alt.=151.709106m. Speed=12.600000m/h.</desc>
<speed>3.500000</speed>
</trkpt>
<trkpt lat="55.819210" lon="26.035463">
<ele>151.666138</ele>
<time>2010-07-17T16:12:02Z</time>
<desc>lat.=55.819210, lon.=26.035463, Alt.=151.666138m. Speed=12.960000m/h.</desc>
<speed>3.600000</speed>
</trkpt>
<trkpt lat="55.819187" lon="26.035421">
<ele>151.416138</ele>
<time>2010-07-17T16:12:03Z</time>
<desc>lat.=55.819187, lon.=26.035421, Alt.=151.416138m. Speed=13.464000m/h.</desc>
<speed>3.740000</speed>
</trkpt>
<trkpt lat="55.819160" lon="26.035374">
<ele>150.986450</ele>
<time>2010-07-17T16:12:04Z</time>
<desc>lat.=55.819160, lon.=26.035374, Alt.=150.986450m. Speed=14.544000m/h.</desc>
<speed>4.040000</speed>
</trkpt>
<trkpt lat="55.819138" lon="26.035322">
<ele>149.927856</ele>
<time>2010-07-17T16:12:05Z</time>
<desc>lat.=55.819138, lon.=26.035322, Alt.=149.927856m. Speed=15.120000m/h.</desc>
<speed>4.200000</speed>
</trkpt>
<trkpt lat="55.819111" lon="26.035273">
<ele>149.681763</ele>
<time>2010-07-17T16:12:06Z</time>
<desc>lat.=55.819111, lon.=26.035273, Alt.=149.681763m. Speed=13.212000m/h.</desc>
<speed>3.670000</speed>
</trkpt>
<trkpt lat="55.819088" lon="26.035229">
<ele>149.560669</ele>
<time>2010-07-17T16:12:07Z</time>
<desc>lat.=55.819088, lon.=26.035229, Alt.=149.560669m. Speed=12.996000m/h.</desc>
<speed>3.610000</speed>
</trkpt>
<trkpt lat="55.819069" lon="26.035192">
<ele>149.037231</ele>
<time>2010-07-17T16:12:08Z</time>
<desc>lat.=55.819069, lon.=26.035192, Alt.=149.037231m. Speed=12.132000m/h.</desc>
<speed>3.370000</speed>
</trkpt>
<trkpt lat="55.819042" lon="26.035162">
<ele>148.525513</ele>
<time>2010-07-17T16:12:09Z</time>
<desc>lat.=55.819042, lon.=26.035162, Alt.=148.525513m. Speed=11.052000m/h.</desc>
<speed>3.070000</speed>
</trkpt>
<trkpt lat="55.819016" lon="26.035130">
<ele>148.509888</ele>
<time>2010-07-17T16:12:10Z</time>
<desc>lat.=55.819016, lon.=26.035130, Alt.=148.509888m. Speed=12.528000m/h.</desc>
<speed>3.480000</speed>
</trkpt>
<trkpt lat="55.818977" lon="26.035095">
<ele>147.900513</ele>
<time>2010-07-17T16:12:11Z</time>
<desc>lat.=55.818977, lon.=26.035095, Alt.=147.900513m. Speed=14.400000m/h.</desc>
<speed>4.000000</speed>
</trkpt>
<trkpt lat="55.818939" lon="26.035063">
<ele>147.494263</ele>
<time>2010-07-17T16:12:12Z</time>
<desc>lat.=55.818939, lon.=26.035063, Alt.=147.494263m. Speed=14.328000m/h.</desc>
<speed>3.980000</speed>
</trkpt>
<trkpt lat="55.818905" lon="26.035032">
<ele>146.955200</ele>
<time>2010-07-17T16:12:13Z</time>
<desc>lat.=55.818905, lon.=26.035032, Alt.=146.955200m. Speed=14.220000m/h.</desc>
<speed>3.950000</speed>
</trkpt>
<trkpt lat="55.818867" lon="26.035004">
<ele>146.861450</ele>
<time>2010-07-17T16:12:14Z</time>
<desc>lat.=55.818867, lon.=26.035004, Alt.=146.861450m. Speed=14.940000m/h.</desc>
<speed>4.150000</speed>
</trkpt>
<trkpt lat="55.818832" lon="26.034981">
<ele>147.002075</ele>
<time>2010-07-17T16:12:15Z</time>
<desc>lat.=55.818832, lon.=26.034981, Alt.=147.002075m. Speed=13.896000m/h.</desc>
<speed>3.860000</speed>
</trkpt>
<trkpt lat="55.818802" lon="26.034962">
<ele>146.931763</ele>
<time>2010-07-17T16:12:16Z</time>
<desc>lat.=55.818802, lon.=26.034962, Alt.=146.931763m. Speed=12.312000m/h.</desc>
<speed>3.420000</speed>
</trkpt>
<trkpt lat="55.818779" lon="26.034945">
<ele>146.748169</ele>
<time>2010-07-17T16:12:17Z</time>
<desc>lat.=55.818779, lon.=26.034945, Alt.=146.748169m. Speed=10.800000m/h.</desc>
<speed>3.000000</speed>
</trkpt>
<trkpt lat="55.818745" lon="26.034927">
<ele>146.689575</ele>
<time>2010-07-17T16:12:18Z</time>
<desc>lat.=55.818745, lon.=26.034927, Alt.=146.689575m. Speed=12.888000m/h.</desc>
<speed>3.580000</speed>
</trkpt>
<trkpt lat="55.818718" lon="26.034910">
<ele>146.787231</ele>
<time>2010-07-17T16:12:19Z</time>
<desc>lat.=55.818718, lon.=26.034910, Alt.=146.787231m. Speed=10.872000m/h.</desc>
<speed>3.020000</speed>
</trkpt>
<trkpt lat="55.818691" lon="26.034891">
<ele>147.052856</ele>
<time>2010-07-17T16:12:20Z</time>
<desc>lat.=55.818691, lon.=26.034891, Alt.=147.052856m. Speed=10.548000m/h.</desc>
<speed>2.930000</speed>
</trkpt>
<trkpt lat="55.818657" lon="26.034868">
<ele>147.146606</ele>
<time>2010-07-17T16:12:21Z</time>
<desc>lat.=55.818657, lon.=26.034868, Alt.=147.146606m. Speed=13.212000m/h.</desc>
<speed>3.670000</speed>
</trkpt>
<trkpt lat="55.818626" lon="26.034847">
<ele>147.095825</ele>
<time>2010-07-17T16:12:22Z</time>
<desc>lat.=55.818626, lon.=26.034847, Alt.=147.095825m. Speed=12.960000m/h.</desc>
<speed>3.600000</speed>
</trkpt>
<trkpt lat="55.818600" lon="26.034824">
<ele>147.275513</ele>
<time>2010-07-17T16:12:23Z</time>
<desc>lat.=55.818600, lon.=26.034824, Alt.=147.275513m. Speed=11.628000m/h.</desc>
<speed>3.230000</speed>
</trkpt>
<trkpt lat="55.818569" lon="26.034805">
<ele>147.287231</ele>
<time>2010-07-17T16:12:24Z</time>
<desc>lat.=55.818569, lon.=26.034805, Alt.=147.287231m. Speed=11.088000m/h.</desc>
<speed>3.080000</speed>
</trkpt>
<trkpt lat="55.818542" lon="26.034786">
<ele>147.185669</ele>
<time>2010-07-17T16:12:25Z</time>
<desc>lat.=55.818542, lon.=26.034786, Alt.=147.185669m. Speed=11.664000m/h.</desc>
<speed>3.240000</speed>
</trkpt>
<trkpt lat="55.818512" lon="26.034769">
<ele>147.201294</ele>
<time>2010-07-17T16:12:26Z</time>
<desc>lat.=55.818512, lon.=26.034769, Alt.=147.201294m. Speed=11.484000m/h.</desc>
<speed>3.190000</speed>
</trkpt>
<trkpt lat="55.818481" lon="26.034750">
<ele>147.236450</ele>
<time>2010-07-17T16:12:27Z</time>
<desc>lat.=55.818481, lon.=26.034750, Alt.=147.236450m. Speed=13.932000m/h.</desc>
<speed>3.870000</speed>
</trkpt>
<trkpt lat="55.818443" lon="26.034733">
<ele>147.088013</ele>
<time>2010-07-17T16:12:28Z</time>
<desc>lat.=55.818443, lon.=26.034733, Alt.=147.088013m. Speed=13.392000m/h.</desc>
<speed>3.720000</speed>
</trkpt>
<trkpt lat="55.818413" lon="26.034714">
<ele>146.736450</ele>
<time>2010-07-17T16:12:29Z</time>
<desc>lat.=55.818413, lon.=26.034714, Alt.=146.736450m. Speed=12.420000m/h.</desc>
<speed>3.450000</speed>
</trkpt>
<trkpt lat="55.818386" lon="26.034693">
<ele>146.748169</ele>
<time>2010-07-17T16:12:30Z</time>
<desc>lat.=55.818386, lon.=26.034693, Alt.=146.748169m. Speed=8.784000m/h.</desc>
<speed>2.440000</speed>
</trkpt>
<trkpt lat="55.818363" lon="26.034655">
<ele>147.482544</ele>
<time>2010-07-17T16:12:31Z</time>
<desc>lat.=55.818363, lon.=26.034655, Alt.=147.482544m. Speed=9.216000m/h.</desc>
<speed>2.560000</speed>
</trkpt>
<trkpt lat="55.818336" lon="26.034626">
<ele>148.127075</ele>
<time>2010-07-17T16:12:32Z</time>
<desc>lat.=55.818336, lon.=26.034626, Alt.=148.127075m. Speed=8.892000m/h.</desc>
<speed>2.470000</speed>
</trkpt>
<trkpt lat="55.818317" lon="26.034611">
<ele>148.775513</ele>
<time>2010-07-17T16:12:33Z</time>
<desc>lat.=55.818317, lon.=26.034611, Alt.=148.775513m. Speed=6.732000m/h.</desc>
<speed>1.870000</speed>
</trkpt>
<trkpt lat="55.818298" lon="26.034582">
<ele>149.244263</ele>
<time>2010-07-17T16:12:34Z</time>
<desc>lat.=55.818298, lon.=26.034582, Alt.=149.244263m. Speed=8.388000m/h.</desc>
<speed>2.330000</speed>
</trkpt>
<trkpt lat="55.818283" lon="26.034559">
<ele>149.451294</ele>
<time>2010-07-17T16:12:35Z</time>
<desc>lat.=55.818283, lon.=26.034559, Alt.=149.451294m. Speed=8.748000m/h.</desc>
<speed>2.430000</speed>
</trkpt>
<trkpt lat="55.818264" lon="26.034540">
<ele>149.779419</ele>
<time>2010-07-17T16:12:36Z</time>
<desc>lat.=55.818264, lon.=26.034540, Alt.=149.779419m. Speed=5.868000m/h.</desc>
<speed>1.630000</speed>
</trkpt>
<trkpt lat="55.818256" lon="26.034525">
<ele>150.392700</ele>
<time>2010-07-17T16:12:37Z</time>
<desc>lat.=55.818256, lon.=26.034525, Alt.=150.392700m. Speed=5.760000m/h.</desc>
<speed>1.600000</speed>
</trkpt>
<trkpt lat="55.818241" lon="26.034519">
<ele>150.630981</ele>
<time>2010-07-17T16:12:38Z</time>
<desc>lat.=55.818241, lon.=26.034519, Alt.=150.630981m. Speed=6.192000m/h.</desc>
<speed>1.720000</speed>
</trkpt>
<trkpt lat="55.818233" lon="26.034491">
<ele>151.150513</ele>
<time>2010-07-17T16:12:39Z</time>
<desc>lat.=55.818233, lon.=26.034491, Alt.=151.150513m. Speed=4.500000m/h.</desc>
<speed>1.250000</speed>
</trkpt>
<trkpt lat="55.818218" lon="26.034470">
<ele>151.568481</ele>
<time>2010-07-17T16:12:40Z</time>
<desc>lat.=55.818218, lon.=26.034470, Alt.=151.568481m. Speed=6.372000m/h.</desc>
<speed>1.770000</speed>
</trkpt>
<trkpt lat="55.818192" lon="26.034468">
<ele>152.025513</ele>
<time>2010-07-17T16:12:41Z</time>
<desc>lat.=55.818192, lon.=26.034468, Alt.=152.025513m. Speed=7.668000m/h.</desc>
<speed>2.130000</speed>
</trkpt>
<trkpt lat="55.818169" lon="26.034447">
<ele>152.447388</ele>
<time>2010-07-17T16:12:42Z</time>
<desc>lat.=55.818169, lon.=26.034447, Alt.=152.447388m. Speed=6.768000m/h.</desc>
<speed>1.880000</speed>
</trkpt>
<trkpt lat="55.818150" lon="26.034424">
<ele>152.955200</ele>
<time>2010-07-17T16:12:43Z</time>
<desc>lat.=55.818150, lon.=26.034424, Alt.=152.955200m. Speed=6.300000m/h.</desc>
<speed>1.750000</speed>
</trkpt>
<trkpt lat="55.818138" lon="26.034399">
<ele>153.302856</ele>
<time>2010-07-17T16:12:44Z</time>
<desc>lat.=55.818138, lon.=26.034399, Alt.=153.302856m. Speed=6.516000m/h.</desc>
<speed>1.810000</speed>
</trkpt>
<trkpt lat="55.818123" lon="26.034378">
<ele>153.724731</ele>
<time>2010-07-17T16:12:45Z</time>
<desc>lat.=55.818123, lon.=26.034378, Alt.=153.724731m. Speed=5.220000m/h.</desc>
<speed>1.450000</speed>
</trkpt>
<trkpt lat="55.818108" lon="26.034361">
<ele>154.052856</ele>
<time>2010-07-17T16:12:46Z</time>
<desc>lat.=55.818108, lon.=26.034361, Alt.=154.052856m. Speed=5.184000m/h.</desc>
<speed>1.440000</speed>
</trkpt>
<trkpt lat="55.818092" lon="26.034336">
<ele>154.338013</ele>
<time>2010-07-17T16:12:47Z</time>
<desc>lat.=55.818092, lon.=26.034336, Alt.=154.338013m. Speed=4.500000m/h.</desc>
<speed>1.250000</speed>
</trkpt>
<trkpt lat="55.818069" lon="26.034306">
<ele>154.123169</ele>
<time>2010-07-17T16:12:48Z</time>
<desc>lat.=55.818069, lon.=26.034306, Alt.=154.123169m. Speed=6.120000m/h.</desc>
<speed>1.700000</speed>
</trkpt>
<trkpt lat="55.818027" lon="26.034256">
<ele>152.845825</ele>
<time>2010-07-17T16:12:49Z</time>
<desc>lat.=55.818027, lon.=26.034256, Alt.=152.845825m. Speed=8.280000m/h.</desc>
<speed>2.300000</speed>
</trkpt>
<trkpt lat="55.818005" lon="26.034225">
<ele>152.994263</ele>
<time>2010-07-17T16:12:50Z</time>
<desc>lat.=55.818005, lon.=26.034225, Alt.=152.994263m. Speed=7.308000m/h.</desc>
<speed>2.030000</speed>
</trkpt>
<trkpt lat="55.817978" lon="26.034184">
<ele>152.568481</ele>
<time>2010-07-17T16:12:51Z</time>
<desc>lat.=55.817978, lon.=26.034184, Alt.=152.568481m. Speed=8.748000m/h.</desc>
<speed>2.430000</speed>
</trkpt>
<trkpt lat="55.817955" lon="26.034149">
<ele>152.263794</ele>
<time>2010-07-17T16:12:52Z</time>
<desc>lat.=55.817955, lon.=26.034149, Alt.=152.263794m. Speed=7.344000m/h.</desc>
<speed>2.040000</speed>
</trkpt>
<trkpt lat="55.817940" lon="26.034107">
<ele>151.744263</ele>
<time>2010-07-17T16:12:53Z</time>
<desc>lat.=55.817940, lon.=26.034107, Alt.=151.744263m. Speed=7.020000m/h.</desc>
<speed>1.950000</speed>
</trkpt>
<trkpt lat="55.817936" lon="26.034077">
<ele>151.666138</ele>
<time>2010-07-17T16:12:54Z</time>
<desc>lat.=55.817936, lon.=26.034077, Alt.=151.666138m. Speed=5.724000m/h.</desc>
<speed>1.590000</speed>
</trkpt>
<trkpt lat="55.817924" lon="26.034052">
<ele>151.607544</ele>
<time>2010-07-17T16:12:55Z</time>
<desc>lat.=55.817924, lon.=26.034052, Alt.=151.607544m. Speed=4.176000m/h.</desc>
<speed>1.160000</speed>
</trkpt>
<trkpt lat="55.817921" lon="26.034021">
<ele>151.396606</ele>
<time>2010-07-17T16:12:56Z</time>
<desc>lat.=55.817921, lon.=26.034021, Alt.=151.396606m. Speed=4.212000m/h.</desc>
<speed>1.170000</speed>
</trkpt>
<trkpt lat="55.817921" lon="26.033993">
<ele>151.533325</ele>
<time>2010-07-17T16:12:57Z</time>
<desc>lat.=55.817921, lon.=26.033993, Alt.=151.533325m. Speed=4.968000m/h.</desc>
<speed>1.380000</speed>
</trkpt>
<trkpt lat="55.817917" lon="26.033958">
<ele>151.787231</ele>
<time>2010-07-17T16:12:58Z</time>
<desc>lat.=55.817917, lon.=26.033958, Alt.=151.787231m. Speed=7.056000m/h.</desc>
<speed>1.960000</speed>
</trkpt>
<trkpt lat="55.817917" lon="26.033924">
<ele>152.064575</ele>
<time>2010-07-17T16:12:59Z</time>
<desc>lat.=55.817917, lon.=26.033924, Alt.=152.064575m. Speed=7.236000m/h.</desc>
<speed>2.010000</speed>
</trkpt>
<trkpt lat="55.817905" lon="26.033873">
<ele>152.634888</ele>
<time>2010-07-17T16:13:00Z</time>
<desc>lat.=55.817905, lon.=26.033873, Alt.=152.634888m. Speed=9.432000m/h.</desc>
<speed>2.620000</speed>
</trkpt>
<trkpt lat="55.817913" lon="26.033823">
<ele>152.623169</ele>
<time>2010-07-17T16:13:01Z</time>
<desc>lat.=55.817913, lon.=26.033823, Alt.=152.623169m. Speed=7.848000m/h.</desc>
<speed>2.180000</speed>
</trkpt>
<trkpt lat="55.817913" lon="26.033785">
<ele>152.795044</ele>
<time>2010-07-17T16:13:02Z</time>
<desc>lat.=55.817913, lon.=26.033785, Alt.=152.795044m. Speed=6.804000m/h.</desc>
<speed>1.890000</speed>
</trkpt>
<trkpt lat="55.817917" lon="26.033743">
<ele>152.677856</ele>
<time>2010-07-17T16:13:03Z</time>
<desc>lat.=55.817917, lon.=26.033743, Alt.=152.677856m. Speed=6.768000m/h.</desc>
<speed>1.880000</speed>
</trkpt>
<trkpt lat="55.817932" lon="26.033691">
<ele>152.990356</ele>
<time>2010-07-17T16:13:04Z</time>
<desc>lat.=55.817932, lon.=26.033691, Alt.=152.990356m. Speed=9.216000m/h.</desc>
<speed>2.560000</speed>
</trkpt>
<trkpt lat="55.817913" lon="26.033625">
<ele>153.884888</ele>
<time>2010-07-17T16:13:05Z</time>
<desc>lat.=55.817913, lon.=26.033625, Alt.=153.884888m. Speed=9.540000m/h.</desc>
<speed>2.650000</speed>
</trkpt>
<trkpt lat="55.817913" lon="26.033569">
<ele>153.845825</ele>
<time>2010-07-17T16:13:06Z</time>
<desc>lat.=55.817913, lon.=26.033569, Alt.=153.845825m. Speed=8.676000m/h.</desc>
<speed>2.410000</speed>
</trkpt>
<trkpt lat="55.817921" lon="26.033518">
<ele>153.709106</ele>
<time>2010-07-17T16:13:07Z</time>
<desc>lat.=55.817921, lon.=26.033518, Alt.=153.709106m. Speed=9.108000m/h.</desc>
<speed>2.530000</speed>
</trkpt>
<trkpt lat="55.817932" lon="26.033480">
<ele>153.588013</ele>
<time>2010-07-17T16:13:08Z</time>
<desc>lat.=55.817932, lon.=26.033480, Alt.=153.588013m. Speed=8.100000m/h.</desc>
<speed>2.250000</speed>
</trkpt>
<trkpt lat="55.817944" lon="26.033436">
<ele>153.627075</ele>
<time>2010-07-17T16:13:09Z</time>
<desc>lat.=55.817944, lon.=26.033436, Alt.=153.627075m. Speed=10.080000m/h.</desc>
<speed>2.800000</speed>
</trkpt>
<trkpt lat="55.817947" lon="26.033398">
<ele>153.744263</ele>
<time>2010-07-17T16:13:10Z</time>
<desc>lat.=55.817947, lon.=26.033398, Alt.=153.744263m. Speed=7.956000m/h.</desc>
<speed>2.210000</speed>
</trkpt>
<trkpt lat="55.817940" lon="26.033363">
<ele>154.060669</ele>
<time>2010-07-17T16:13:11Z</time>
<desc>lat.=55.817940, lon.=26.033363, Alt.=154.060669m. Speed=7.164000m/h.</desc>
<speed>1.990000</speed>
</trkpt>
<trkpt lat="55.817955" lon="26.033327">
<ele>154.173950</ele>
<time>2010-07-17T16:13:12Z</time>
<desc>lat.=55.817955, lon.=26.033327, Alt.=154.173950m. Speed=6.840000m/h.</desc>
<speed>1.900000</speed>
</trkpt>
<trkpt lat="55.817963" lon="26.033281">
<ele>154.412231</ele>
<time>2010-07-17T16:13:13Z</time>
<desc>lat.=55.817963, lon.=26.033281, Alt.=154.412231m. Speed=8.424000m/h.</desc>
<speed>2.340000</speed>
</trkpt>
<trkpt lat="55.817959" lon="26.033230">
<ele>154.576294</ele>
<time>2010-07-17T16:13:14Z</time>
<desc>lat.=55.817959, lon.=26.033230, Alt.=154.576294m. Speed=8.784000m/h.</desc>
<speed>2.440000</speed>
</trkpt>
<trkpt lat="55.817936" lon="26.033180">
<ele>154.787231</ele>
<time>2010-07-17T16:13:15Z</time>
<desc>lat.=55.817936, lon.=26.033180, Alt.=154.787231m. Speed=8.676000m/h.</desc>
<speed>2.410000</speed>
</trkpt>
<trkpt lat="55.817932" lon="26.033138">
<ele>155.455200</ele>
<time>2010-07-17T16:13:16Z</time>
<desc>lat.=55.817932, lon.=26.033138, Alt.=155.455200m. Speed=7.596000m/h.</desc>
<speed>2.110000</speed>
</trkpt>
<trkpt lat="55.817932" lon="26.033091">
<ele>155.494263</ele>
<time>2010-07-17T16:13:17Z</time>
<desc>lat.=55.817932, lon.=26.033091, Alt.=155.494263m. Speed=8.100000m/h.</desc>
<speed>2.250000</speed>
</trkpt>
<trkpt lat="55.817936" lon="26.033047">
<ele>155.724731</ele>
<time>2010-07-17T16:13:18Z</time>
<desc>lat.=55.817936, lon.=26.033047, Alt.=155.724731m. Speed=8.352000m/h.</desc>
<speed>2.320000</speed>
</trkpt>
<trkpt lat="55.817944" lon="26.032999">
<ele>156.111450</ele>
<time>2010-07-17T16:13:19Z</time>
<desc>lat.=55.817944, lon.=26.032999, Alt.=156.111450m. Speed=8.604000m/h.</desc>
<speed>2.390000</speed>
</trkpt>
<trkpt lat="55.817947" lon="26.032949">
<ele>156.314575</ele>
<time>2010-07-17T16:13:20Z</time>
<desc>lat.=55.817947, lon.=26.032949, Alt.=156.314575m. Speed=8.172000m/h.</desc>
<speed>2.270000</speed>
</trkpt>
<trkpt lat="55.817955" lon="26.032904">
<ele>156.494263</ele>
<time>2010-07-17T16:13:21Z</time>
<desc>lat.=55.817955, lon.=26.032904, Alt.=156.494263m. Speed=7.128000m/h.</desc>
<speed>1.980000</speed>
</trkpt>
<trkpt lat="55.817970" lon="26.032848">
<ele>156.775513</ele>
<time>2010-07-17T16:13:22Z</time>
<desc>lat.=55.817970, lon.=26.032848, Alt.=156.775513m. Speed=8.424000m/h.</desc>
<speed>2.340000</speed>
</trkpt>
<trkpt lat="55.817982" lon="26.032791">
<ele>156.740356</ele>
<time>2010-07-17T16:13:23Z</time>
<desc>lat.=55.817982, lon.=26.032791, Alt.=156.740356m. Speed=9.684000m/h.</desc>
<speed>2.690000</speed>
</trkpt>
<trkpt lat="55.817993" lon="26.032740">
<ele>156.939575</ele>
<time>2010-07-17T16:13:24Z</time>
<desc>lat.=55.817993, lon.=26.032740, Alt.=156.939575m. Speed=7.272000m/h.</desc>
<speed>2.020000</speed>
</trkpt>
<trkpt lat="55.818008" lon="26.032690">
<ele>156.576294</ele>
<time>2010-07-17T16:13:25Z</time>
<desc>lat.=55.818008, lon.=26.032690, Alt.=156.576294m. Speed=8.568000m/h.</desc>
<speed>2.380000</speed>
</trkpt>
<trkpt lat="55.818008" lon="26.032640">
<ele>156.556763</ele>
<time>2010-07-17T16:13:26Z</time>
<desc>lat.=55.818008, lon.=26.032640, Alt.=156.556763m. Speed=8.388000m/h.</desc>
<speed>2.330000</speed>
</trkpt>
<trkpt lat="55.818016" lon="26.032593">
<ele>156.713013</ele>
<time>2010-07-17T16:13:27Z</time>
<desc>lat.=55.818016, lon.=26.032593, Alt.=156.713013m. Speed=8.676000m/h.</desc>
<speed>2.410000</speed>
</trkpt>
<trkpt lat="55.818020" lon="26.032541">
<ele>156.841919</ele>
<time>2010-07-17T16:13:28Z</time>
<desc>lat.=55.818020, lon.=26.032541, Alt.=156.841919m. Speed=9.792000m/h.</desc>
<speed>2.720000</speed>
</trkpt>
<trkpt lat="55.818024" lon="26.032488">
<ele>156.923950</ele>
<time>2010-07-17T16:13:29Z</time>
<desc>lat.=55.818024, lon.=26.032488, Alt.=156.923950m. Speed=8.928000m/h.</desc>
<speed>2.480000</speed>
</trkpt>
<trkpt lat="55.818027" lon="26.032440">
<ele>157.638794</ele>
<time>2010-07-17T16:13:30Z</time>
<desc>lat.=55.818027, lon.=26.032440, Alt.=157.638794m. Speed=7.956000m/h.</desc>
<speed>2.210000</speed>
</trkpt>
<trkpt lat="55.818020" lon="26.032396">
<ele>157.630981</ele>
<time>2010-07-17T16:13:31Z</time>
<desc>lat.=55.818020, lon.=26.032396, Alt.=157.630981m. Speed=8.640000m/h.</desc>
<speed>2.400000</speed>
</trkpt>
<trkpt lat="55.818012" lon="26.032354">
<ele>158.275513</ele>
<time>2010-07-17T16:13:32Z</time>
<desc>lat.=55.818012, lon.=26.032354, Alt.=158.275513m. Speed=8.676000m/h.</desc>
<speed>2.410000</speed>
</trkpt>
<trkpt lat="55.818008" lon="26.032307">
<ele>158.849731</ele>
<time>2010-07-17T16:13:33Z</time>
<desc>lat.=55.818008, lon.=26.032307, Alt.=158.849731m. Speed=8.676000m/h.</desc>
<speed>2.410000</speed>
</trkpt>
<trkpt lat="55.818020" lon="26.032238">
<ele>159.658325</ele>
<time>2010-07-17T16:13:34Z</time>
<desc>lat.=55.818020, lon.=26.032238, Alt.=159.658325m. Speed=7.740000m/h.</desc>
<speed>2.150000</speed>
</trkpt>
<trkpt lat="55.818031" lon="26.032177">
<ele>160.295044</ele>
<time>2010-07-17T16:13:35Z</time>
<desc>lat.=55.818031, lon.=26.032177, Alt.=160.295044m. Speed=7.056000m/h.</desc>
<speed>1.960000</speed>
</trkpt>
<trkpt lat="55.818027" lon="26.032141">
<ele>160.033325</ele>
<time>2010-07-17T16:13:36Z</time>
<desc>lat.=55.818027, lon.=26.032141, Alt.=160.033325m. Speed=7.524000m/h.</desc>
<speed>2.090000</speed>
</trkpt>
<trkpt lat="55.818027" lon="26.032097">
<ele>160.248169</ele>
<time>2010-07-17T16:13:37Z</time>
<desc>lat.=55.818027, lon.=26.032097, Alt.=160.248169m. Speed=7.056000m/h.</desc>
<speed>1.960000</speed>
</trkpt>
<trkpt lat="55.818024" lon="26.032053">
<ele>159.443481</ele>
<time>2010-07-17T16:13:38Z</time>
<desc>lat.=55.818024, lon.=26.032053, Alt.=159.443481m. Speed=8.676000m/h.</desc>
<speed>2.410000</speed>
</trkpt>
<trkpt lat="55.818020" lon="26.032005">
<ele>158.728638</ele>
<time>2010-07-17T16:13:39Z</time>
<desc>lat.=55.818020, lon.=26.032005, Alt.=158.728638m. Speed=8.676000m/h.</desc>
<speed>2.410000</speed>
</trkpt>
<trkpt lat="55.818008" lon="26.031965">
<ele>157.166138</ele>
<time>2010-07-17T16:13:40Z</time>
<desc>lat.=55.818008, lon.=26.031965, Alt.=157.166138m. Speed=8.784000m/h.</desc>
<speed>2.440000</speed>
</trkpt>
<trkpt lat="55.817997" lon="26.031931">
<ele>157.361450</ele>
<time>2010-07-17T16:13:41Z</time>
<desc>lat.=55.817997, lon.=26.031931, Alt.=157.361450m. Speed=8.280000m/h.</desc>
<speed>2.300000</speed>
</trkpt>
<trkpt lat="55.817966" lon="26.031910">
<ele>158.474731</ele>
<time>2010-07-17T16:13:42Z</time>
<desc>lat.=55.817966, lon.=26.031910, Alt.=158.474731m. Speed=8.280000m/h.</desc>
<speed>2.300000</speed>
</trkpt>
<trkpt lat="55.817947" lon="26.031887">
<ele>158.849731</ele>
<time>2010-07-17T16:13:43Z</time>
<desc>lat.=55.817947, lon.=26.031887, Alt.=158.849731m. Speed=9.972000m/h.</desc>
<speed>2.770000</speed>
</trkpt>
<trkpt lat="55.817928" lon="26.031866">
<ele>159.705200</ele>
<time>2010-07-17T16:13:44Z</time>
<desc>lat.=55.817928, lon.=26.031866, Alt.=159.705200m. Speed=10.620000m/h.</desc>
<speed>2.950000</speed>
</trkpt>
<trkpt lat="55.817905" lon="26.031843">
<ele>160.216919</ele>
<time>2010-07-17T16:13:45Z</time>
<desc>lat.=55.817905, lon.=26.031843, Alt.=160.216919m. Speed=10.404000m/h.</desc>
<speed>2.890000</speed>
</trkpt>
<trkpt lat="55.817883" lon="26.031828">
<ele>160.459106</ele>
<time>2010-07-17T16:13:46Z</time>
<desc>lat.=55.817883, lon.=26.031828, Alt.=160.459106m. Speed=8.820000m/h.</desc>
<speed>2.450000</speed>
</trkpt>
<trkpt lat="55.817856" lon="26.031811">
<ele>160.466919</ele>
<time>2010-07-17T16:13:47Z</time>
<desc>lat.=55.817856, lon.=26.031811, Alt.=160.466919m. Speed=10.548000m/h.</desc>
<speed>2.930000</speed>
</trkpt>
<trkpt lat="55.817833" lon="26.031803">
<ele>160.271606</ele>
<time>2010-07-17T16:13:48Z</time>
<desc>lat.=55.817833, lon.=26.031803, Alt.=160.271606m. Speed=9.504000m/h.</desc>
<speed>2.640000</speed>
</trkpt>
<trkpt lat="55.817810" lon="26.031803">
<ele>160.330200</ele>
<time>2010-07-17T16:13:49Z</time>
<desc>lat.=55.817810, lon.=26.031803, Alt.=160.330200m. Speed=8.172000m/h.</desc>
<speed>2.270000</speed>
</trkpt>
<trkpt lat="55.817791" lon="26.031807">
<ele>160.115356</ele>
<time>2010-07-17T16:13:50Z</time>
<desc>lat.=55.817791, lon.=26.031807, Alt.=160.115356m. Speed=9.576000m/h.</desc>
<speed>2.660000</speed>
</trkpt>
<trkpt lat="55.817764" lon="26.031807">
<ele>159.963013</ele>
<time>2010-07-17T16:13:51Z</time>
<desc>lat.=55.817764, lon.=26.031807, Alt.=159.963013m. Speed=10.584000m/h.</desc>
<speed>2.940000</speed>
</trkpt>
<trkpt lat="55.817741" lon="26.031813">
<ele>159.498169</ele>
<time>2010-07-17T16:13:52Z</time>
<desc>lat.=55.817741, lon.=26.031813, Alt.=159.498169m. Speed=9.792000m/h.</desc>
<speed>2.720000</speed>
</trkpt>
<trkpt lat="55.817707" lon="26.031813">
<ele>158.880981</ele>
<time>2010-07-17T16:13:53Z</time>
<desc>lat.=55.817707, lon.=26.031813, Alt.=158.880981m. Speed=10.764000m/h.</desc>
<speed>2.990000</speed>
</trkpt>
<trkpt lat="55.817665" lon="26.031820">
<ele>158.064575</ele>
<time>2010-07-17T16:13:54Z</time>
<desc>lat.=55.817665, lon.=26.031820, Alt.=158.064575m. Speed=11.124000m/h.</desc>
<speed>3.090000</speed>
</trkpt>
<trkpt lat="55.817635" lon="26.031830">
<ele>157.947388</ele>
<time>2010-07-17T16:13:55Z</time>
<desc>lat.=55.817635, lon.=26.031830, Alt.=157.947388m. Speed=9.900000m/h.</desc>
<speed>2.750000</speed>
</trkpt>
<trkpt lat="55.817608" lon="26.031828">
<ele>158.205200</ele>
<time>2010-07-17T16:13:56Z</time>
<desc>lat.=55.817608, lon.=26.031828, Alt.=158.205200m. Speed=10.224000m/h.</desc>
<speed>2.840000</speed>
</trkpt>
<trkpt lat="55.817577" lon="26.031828">
<ele>158.045044</ele>
<time>2010-07-17T16:13:57Z</time>
<desc>lat.=55.817577, lon.=26.031828, Alt.=158.045044m. Speed=12.276000m/h.</desc>
<speed>3.410000</speed>
</trkpt>
<trkpt lat="55.817543" lon="26.031824">
<ele>157.791138</ele>
<time>2010-07-17T16:13:58Z</time>
<desc>lat.=55.817543, lon.=26.031824, Alt.=157.791138m. Speed=14.004000m/h.</desc>
<speed>3.890000</speed>
</trkpt>
<trkpt lat="55.817509" lon="26.031822">
<ele>157.466919</ele>
<time>2010-07-17T16:13:59Z</time>
<desc>lat.=55.817509, lon.=26.031822, Alt.=157.466919m. Speed=13.608000m/h.</desc>
<speed>3.780000</speed>
</trkpt>
<trkpt lat="55.817474" lon="26.031816">
<ele>156.716919</ele>
<time>2010-07-17T16:14:00Z</time>
<desc>lat.=55.817474, lon.=26.031816, Alt.=156.716919m. Speed=14.328000m/h.</desc>
<speed>3.980000</speed>
</trkpt>
<trkpt lat="55.817436" lon="26.031809">
<ele>156.474731</ele>
<time>2010-07-17T16:14:01Z</time>
<desc>lat.=55.817436, lon.=26.031809, Alt.=156.474731m. Speed=16.056000m/h.</desc>
<speed>4.460000</speed>
</trkpt>
<trkpt lat="55.817394" lon="26.031801">
<ele>156.181763</ele>
<time>2010-07-17T16:14:02Z</time>
<desc>lat.=55.817394, lon.=26.031801, Alt.=156.181763m. Speed=16.344000m/h.</desc>
<speed>4.540000</speed>
</trkpt>
<trkpt lat="55.817356" lon="26.031792">
<ele>155.787231</ele>
<time>2010-07-17T16:14:03Z</time>
<desc>lat.=55.817356, lon.=26.031792, Alt.=155.787231m. Speed=15.192000m/h.</desc>
<speed>4.220000</speed>
</trkpt>
<trkpt lat="55.817314" lon="26.031786">
<ele>155.103638</ele>
<time>2010-07-17T16:14:04Z</time>
<desc>lat.=55.817314, lon.=26.031786, Alt.=155.103638m. Speed=16.452000m/h.</desc>
<speed>4.570000</speed>
</trkpt>
<trkpt lat="55.817272" lon="26.031780">
<ele>154.341919</ele>
<time>2010-07-17T16:14:05Z</time>
<desc>lat.=55.817272, lon.=26.031780, Alt.=154.341919m. Speed=16.200001m/h.</desc>
<speed>4.500000</speed>
</trkpt>
<trkpt lat="55.817223" lon="26.031775">
<ele>153.732544</ele>
<time>2010-07-17T16:14:06Z</time>
<desc>lat.=55.817223, lon.=26.031775, Alt.=153.732544m. Speed=18.468000m/h.</desc>
<speed>5.130000</speed>
</trkpt>
<trkpt lat="55.817173" lon="26.031769">
<ele>152.541138</ele>
<time>2010-07-17T16:14:07Z</time>
<desc>lat.=55.817173, lon.=26.031769, Alt.=152.541138m. Speed=19.152000m/h.</desc>
<speed>5.320000</speed>
</trkpt>
<trkpt lat="55.817123" lon="26.031752">
<ele>152.005981</ele>
<time>2010-07-17T16:14:08Z</time>
<desc>lat.=55.817123, lon.=26.031752, Alt.=152.005981m. Speed=18.684000m/h.</desc>
<speed>5.190000</speed>
</trkpt>
<trkpt lat="55.817059" lon="26.031742">
<ele>151.146606</ele>
<time>2010-07-17T16:14:09Z</time>
<desc>lat.=55.817059, lon.=26.031742, Alt.=151.146606m. Speed=21.743999m/h.</desc>
<speed>6.040000</speed>
</trkpt>
<trkpt lat="55.817001" lon="26.031731">
<ele>151.353638</ele>
<time>2010-07-17T16:14:10Z</time>
<desc>lat.=55.817001, lon.=26.031731, Alt.=151.353638m. Speed=22.284000m/h.</desc>
<speed>6.190000</speed>
</trkpt>
<trkpt lat="55.816948" lon="26.031715">
<ele>150.662231</ele>
<time>2010-07-17T16:14:11Z</time>
<desc>lat.=55.816948, lon.=26.031715, Alt.=150.662231m. Speed=21.636000m/h.</desc>
<speed>6.010000</speed>
</trkpt>
<trkpt lat="55.816887" lon="26.031704">
<ele>150.287231</ele>
<time>2010-07-17T16:14:12Z</time>
<desc>lat.=55.816887, lon.=26.031704, Alt.=150.287231m. Speed=22.284000m/h.</desc>
<speed>6.190000</speed>
</trkpt>
<trkpt lat="55.816841" lon="26.031687">
<ele>149.002075</ele>
<time>2010-07-17T16:14:13Z</time>
<desc>lat.=55.816841, lon.=26.031687, Alt.=149.002075m. Speed=21.384001m/h.</desc>
<speed>5.940000</speed>
</trkpt>
<trkpt lat="55.816780" lon="26.031673">
<ele>148.705200</ele>
<time>2010-07-17T16:14:14Z</time>
<desc>lat.=55.816780, lon.=26.031673, Alt.=148.705200m. Speed=21.204000m/h.</desc>
<speed>5.890000</speed>
</trkpt>
<trkpt lat="55.816734" lon="26.031677">
<ele>148.334106</ele>
<time>2010-07-17T16:14:15Z</time>
<desc>lat.=55.816734, lon.=26.031677, Alt.=148.334106m. Speed=18.648001m/h.</desc>
<speed>5.180000</speed>
</trkpt>
<trkpt lat="55.816689" lon="26.031681">
<ele>147.755981</ele>
<time>2010-07-17T16:14:16Z</time>
<desc>lat.=55.816689, lon.=26.031681, Alt.=147.755981m. Speed=15.408000m/h.</desc>
<speed>4.280000</speed>
</trkpt>
<trkpt lat="55.816654" lon="26.031689">
<ele>147.755981</ele>
<time>2010-07-17T16:14:17Z</time>
<desc>lat.=55.816654, lon.=26.031689, Alt.=147.755981m. Speed=12.924000m/h.</desc>
<speed>3.590000</speed>
</trkpt>
<trkpt lat="55.816620" lon="26.031700">
<ele>147.771606</ele>
<time>2010-07-17T16:14:18Z</time>
<desc>lat.=55.816620, lon.=26.031700, Alt.=147.771606m. Speed=13.860000m/h.</desc>
<speed>3.850000</speed>
</trkpt>
<trkpt lat="55.816586" lon="26.031712">
<ele>148.107544</ele>
<time>2010-07-17T16:14:19Z</time>
<desc>lat.=55.816586, lon.=26.031712, Alt.=148.107544m. Speed=12.708000m/h.</desc>
<speed>3.530000</speed>
</trkpt>
<trkpt lat="55.816555" lon="26.031725">
<ele>148.529419</ele>
<time>2010-07-17T16:14:20Z</time>
<desc>lat.=55.816555, lon.=26.031725, Alt.=148.529419m. Speed=12.132000m/h.</desc>
<speed>3.370000</speed>
</trkpt>
<trkpt lat="55.816521" lon="26.031744">
<ele>149.345825</ele>
<time>2010-07-17T16:14:21Z</time>
<desc>lat.=55.816521, lon.=26.031744, Alt.=149.345825m. Speed=13.392000m/h.</desc>
<speed>3.720000</speed>
</trkpt>
<trkpt lat="55.816479" lon="26.031782">
<ele>149.216919</ele>
<time>2010-07-17T16:14:22Z</time>
<desc>lat.=55.816479, lon.=26.031782, Alt.=149.216919m. Speed=15.228000m/h.</desc>
<speed>4.230000</speed>
</trkpt>
<trkpt lat="55.816444" lon="26.031809">
<ele>148.373169</ele>
<time>2010-07-17T16:14:23Z</time>
<desc>lat.=55.816444, lon.=26.031809, Alt.=148.373169m. Speed=15.264000m/h.</desc>
<speed>4.240000</speed>
</trkpt>
<trkpt lat="55.816406" lon="26.031837">
<ele>148.650513</ele>
<time>2010-07-17T16:14:24Z</time>
<desc>lat.=55.816406, lon.=26.031837, Alt.=148.650513m. Speed=16.524000m/h.</desc>
<speed>4.590000</speed>
</trkpt>
<trkpt lat="55.816364" lon="26.031860">
<ele>148.509888</ele>
<time>2010-07-17T16:14:25Z</time>
<desc>lat.=55.816364, lon.=26.031860, Alt.=148.509888m. Speed=17.100000m/h.</desc>
<speed>4.750000</speed>
</trkpt>
<trkpt lat="55.816319" lon="26.031883">
<ele>148.529419</ele>
<time>2010-07-17T16:14:26Z</time>
<desc>lat.=55.816319, lon.=26.031883, Alt.=148.529419m. Speed=18.288000m/h.</desc>
<speed>5.080000</speed>
</trkpt>
<trkpt lat="55.816273" lon="26.031906">
<ele>149.107544</ele>
<time>2010-07-17T16:14:27Z</time>
<desc>lat.=55.816273, lon.=26.031906, Alt.=149.107544m. Speed=17.388000m/h.</desc>
<speed>4.830000</speed>
</trkpt>
<trkpt lat="55.816231" lon="26.031927">
<ele>149.076294</ele>
<time>2010-07-17T16:14:28Z</time>
<desc>lat.=55.816231, lon.=26.031927, Alt.=149.076294m. Speed=17.964001m/h.</desc>
<speed>4.990000</speed>
</trkpt>
<trkpt lat="55.816185" lon="26.031954">
<ele>149.322388</ele>
<time>2010-07-17T16:14:29Z</time>
<desc>lat.=55.816185, lon.=26.031954, Alt.=149.322388m. Speed=18.180000m/h.</desc>
<speed>5.050000</speed>
</trkpt>
<trkpt lat="55.816128" lon="26.031990">
<ele>149.033325</ele>
<time>2010-07-17T16:14:30Z</time>
<desc>lat.=55.816128, lon.=26.031990, Alt.=149.033325m. Speed=21.636000m/h.</desc>
<speed>6.010000</speed>
</trkpt>
<trkpt lat="55.816074" lon="26.032028">
<ele>149.048950</ele>
<time>2010-07-17T16:14:31Z</time>
<desc>lat.=55.816074, lon.=26.032028, Alt.=149.048950m. Speed=22.535999m/h.</desc>
<speed>6.260000</speed>
</trkpt>
<trkpt lat="55.816017" lon="26.032066">
<ele>148.650513</ele>
<time>2010-07-17T16:14:32Z</time>
<desc>lat.=55.816017, lon.=26.032066, Alt.=148.650513m. Speed=24.084000m/h.</desc>
<speed>6.690000</speed>
</trkpt>
<trkpt lat="55.815956" lon="26.032093">
<ele>148.248169</ele>
<time>2010-07-17T16:14:33Z</time>
<desc>lat.=55.815956, lon.=26.032093, Alt.=148.248169m. Speed=23.004000m/h.</desc>
<speed>6.390000</speed>
</trkpt>
<trkpt lat="55.815907" lon="26.032118">
<ele>147.834106</ele>
<time>2010-07-17T16:14:34Z</time>
<desc>lat.=55.815907, lon.=26.032118, Alt.=147.834106m. Speed=22.968000m/h.</desc>
<speed>6.380000</speed>
</trkpt>
<trkpt lat="55.815853" lon="26.032129">
<ele>147.341919</ele>
<time>2010-07-17T16:14:35Z</time>
<desc>lat.=55.815853, lon.=26.032129, Alt.=147.341919m. Speed=21.348000m/h.</desc>
<speed>5.930000</speed>
</trkpt>
<trkpt lat="55.815804" lon="26.032137">
<ele>147.177856</ele>
<time>2010-07-17T16:14:36Z</time>
<desc>lat.=55.815804, lon.=26.032137, Alt.=147.177856m. Speed=22.032000m/h.</desc>
<speed>6.120000</speed>
</trkpt>
<trkpt lat="55.815750" lon="26.032131">
<ele>147.205200</ele>
<time>2010-07-17T16:14:37Z</time>
<desc>lat.=55.815750, lon.=26.032131, Alt.=147.205200m. Speed=21.924000m/h.</desc>
<speed>6.090000</speed>
</trkpt>
<trkpt lat="55.815693" lon="26.032124">
<ele>147.189575</ele>
<time>2010-07-17T16:14:38Z</time>
<desc>lat.=55.815693, lon.=26.032124, Alt.=147.189575m. Speed=22.716000m/h.</desc>
<speed>6.310000</speed>
</trkpt>
<trkpt lat="55.815632" lon="26.032099">
<ele>146.947388</ele>
<time>2010-07-17T16:14:39Z</time>
<desc>lat.=55.815632, lon.=26.032099, Alt.=146.947388m. Speed=24.875999m/h.</desc>
<speed>6.910000</speed>
</trkpt>
<trkpt lat="55.815571" lon="26.032063">
<ele>146.334106</ele>
<time>2010-07-17T16:14:40Z</time>
<desc>lat.=55.815571, lon.=26.032063, Alt.=146.334106m. Speed=26.892000m/h.</desc>
<speed>7.470000</speed>
</trkpt>
<trkpt lat="55.815506" lon="26.032024">
<ele>145.970825</ele>
<time>2010-07-17T16:14:41Z</time>
<desc>lat.=55.815506, lon.=26.032024, Alt.=145.970825m. Speed=25.632000m/h.</desc>
<speed>7.120000</speed>
</trkpt>
<trkpt lat="55.815445" lon="26.031986">
<ele>146.037231</ele>
<time>2010-07-17T16:14:42Z</time>
<desc>lat.=55.815445, lon.=26.031986, Alt.=146.037231m. Speed=25.632000m/h.</desc>
<speed>7.120000</speed>
</trkpt>
<trkpt lat="55.815388" lon="26.031944">
<ele>146.041138</ele>
<time>2010-07-17T16:14:43Z</time>
<desc>lat.=55.815388, lon.=26.031944, Alt.=146.041138m. Speed=24.264000m/h.</desc>
<speed>6.740000</speed>
</trkpt>
<trkpt lat="55.815327" lon="26.031921">
<ele>145.423950</ele>
<time>2010-07-17T16:14:44Z</time>
<desc>lat.=55.815327, lon.=26.031921, Alt.=145.423950m. Speed=22.212000m/h.</desc>
<speed>6.170000</speed>
</trkpt>
<trkpt lat="55.815262" lon="26.031904">
<ele>145.080200</ele>
<time>2010-07-17T16:14:45Z</time>
<desc>lat.=55.815262, lon.=26.031904, Alt.=145.080200m. Speed=24.912001m/h.</desc>
<speed>6.920000</speed>
</trkpt>
<trkpt lat="55.815197" lon="26.031897">
<ele>144.779419</ele>
<time>2010-07-17T16:14:46Z</time>
<desc>lat.=55.815197, lon.=26.031897, Alt.=144.779419m. Speed=22.716000m/h.</desc>
<speed>6.310000</speed>
</trkpt>
<trkpt lat="55.815144" lon="26.031893">
<ele>144.802856</ele>
<time>2010-07-17T16:14:47Z</time>
<desc>lat.=55.815144, lon.=26.031893, Alt.=144.802856m. Speed=20.448000m/h.</desc>
<speed>5.680000</speed>
</trkpt>
<trkpt lat="55.815094" lon="26.031897">
<ele>144.755981</ele>
<time>2010-07-17T16:14:48Z</time>
<desc>lat.=55.815094, lon.=26.031897, Alt.=144.755981m. Speed=19.620001m/h.</desc>
<speed>5.450000</speed>
</trkpt>
<trkpt lat="55.815048" lon="26.031898">
<ele>144.923950</ele>
<time>2010-07-17T16:14:49Z</time>
<desc>lat.=55.815048, lon.=26.031898, Alt.=144.923950m. Speed=17.927999m/h.</desc>
<speed>4.980000</speed>
</trkpt>
<trkpt lat="55.815010" lon="26.031902">
<ele>145.392700</ele>
<time>2010-07-17T16:14:50Z</time>
<desc>lat.=55.815010, lon.=26.031902, Alt.=145.392700m. Speed=15.228000m/h.</desc>
<speed>4.230000</speed>
</trkpt>
<trkpt lat="55.814980" lon="26.031910">
<ele>146.060669</ele>
<time>2010-07-17T16:14:51Z</time>
<desc>lat.=55.814980, lon.=26.031910, Alt.=146.060669m. Speed=15.264000m/h.</desc>
<speed>4.240000</speed>
</trkpt>
<trkpt lat="55.814934" lon="26.031923">
<ele>145.845825</ele>
<time>2010-07-17T16:14:52Z</time>
<desc>lat.=55.814934, lon.=26.031923, Alt.=145.845825m. Speed=15.300000m/h.</desc>
<speed>4.250000</speed>
</trkpt>
<trkpt lat="55.814896" lon="26.031952">
<ele>146.205200</ele>
<time>2010-07-17T16:14:53Z</time>
<desc>lat.=55.814896, lon.=26.031952, Alt.=146.205200m. Speed=13.752000m/h.</desc>
<speed>3.820000</speed>
</trkpt>
<trkpt lat="55.814865" lon="26.031981">
<ele>145.994263</ele>
<time>2010-07-17T16:14:54Z</time>
<desc>lat.=55.814865, lon.=26.031981, Alt.=145.994263m. Speed=14.724000m/h.</desc>
<speed>4.090000</speed>
</trkpt>
<trkpt lat="55.814838" lon="26.032011">
<ele>146.091919</ele>
<time>2010-07-17T16:14:55Z</time>
<desc>lat.=55.814838, lon.=26.032011, Alt.=146.091919m. Speed=14.184000m/h.</desc>
<speed>3.940000</speed>
</trkpt>
<trkpt lat="55.814808" lon="26.032024">
<ele>146.037231</ele>
<time>2010-07-17T16:14:56Z</time>
<desc>lat.=55.814808, lon.=26.032024, Alt.=146.037231m. Speed=12.060000m/h.</desc>
<speed>3.350000</speed>
</trkpt>
<trkpt lat="55.814774" lon="26.032042">
<ele>146.279419</ele>
<time>2010-07-17T16:14:57Z</time>
<desc>lat.=55.814774, lon.=26.032042, Alt.=146.279419m. Speed=10.800000m/h.</desc>
<speed>3.000000</speed>
</trkpt>
<trkpt lat="55.814751" lon="26.032047">
<ele>146.599731</ele>
<time>2010-07-17T16:14:58Z</time>
<desc>lat.=55.814751, lon.=26.032047, Alt.=146.599731m. Speed=8.748000m/h.</desc>
<speed>2.430000</speed>
</trkpt>
<trkpt lat="55.814724" lon="26.032053">
<ele>146.728638</ele>
<time>2010-07-17T16:14:59Z</time>
<desc>lat.=55.814724, lon.=26.032053, Alt.=146.728638m. Speed=9.000000m/h.</desc>
<speed>2.500000</speed>
</trkpt>
<trkpt lat="55.814705" lon="26.032049">
<ele>146.228638</ele>
<time>2010-07-17T16:15:00Z</time>
<desc>lat.=55.814705, lon.=26.032049, Alt.=146.228638m. Speed=8.352000m/h.</desc>
<speed>2.320000</speed>
</trkpt>
<trkpt lat="55.814667" lon="26.032059">
<ele>146.236450</ele>
<time>2010-07-17T16:15:01Z</time>
<desc>lat.=55.814667, lon.=26.032059, Alt.=146.236450m. Speed=10.044000m/h.</desc>
<speed>2.790000</speed>
</trkpt>
<trkpt lat="55.814636" lon="26.032064">
<ele>146.369263</ele>
<time>2010-07-17T16:15:02Z</time>
<desc>lat.=55.814636, lon.=26.032064, Alt.=146.369263m. Speed=10.404000m/h.</desc>
<speed>2.890000</speed>
</trkpt>
<trkpt lat="55.814610" lon="26.032066">
<ele>146.896606</ele>
<time>2010-07-17T16:15:03Z</time>
<desc>lat.=55.814610, lon.=26.032066, Alt.=146.896606m. Speed=10.080000m/h.</desc>
<speed>2.800000</speed>
</trkpt>
<trkpt lat="55.814575" lon="26.032076">
<ele>147.209106</ele>
<time>2010-07-17T16:15:04Z</time>
<desc>lat.=55.814575, lon.=26.032076, Alt.=147.209106m. Speed=8.892000m/h.</desc>
<speed>2.470000</speed>
</trkpt>
<trkpt lat="55.814556" lon="26.032068">
<ele>147.213013</ele>
<time>2010-07-17T16:15:05Z</time>
<desc>lat.=55.814556, lon.=26.032068, Alt.=147.213013m. Speed=8.208000m/h.</desc>
<speed>2.280000</speed>
</trkpt>
<trkpt lat="55.814533" lon="26.032057">
<ele>147.318481</ele>
<time>2010-07-17T16:15:06Z</time>
<desc>lat.=55.814533, lon.=26.032057, Alt.=147.318481m. Speed=6.228000m/h.</desc>
<speed>1.730000</speed>
</trkpt>
<trkpt lat="55.814507" lon="26.032055">
<ele>147.431763</ele>
<time>2010-07-17T16:15:07Z</time>
<desc>lat.=55.814507, lon.=26.032055, Alt.=147.431763m. Speed=7.776000m/h.</desc>
<speed>2.160000</speed>
</trkpt>
<trkpt lat="55.814480" lon="26.032047">
<ele>147.709106</ele>
<time>2010-07-17T16:15:08Z</time>
<desc>lat.=55.814480, lon.=26.032047, Alt.=147.709106m. Speed=7.236000m/h.</desc>
<speed>2.010000</speed>
</trkpt>
<trkpt lat="55.814457" lon="26.032038">
<ele>147.693481</ele>
<time>2010-07-17T16:15:09Z</time>
<desc>lat.=55.814457, lon.=26.032038, Alt.=147.693481m. Speed=7.200000m/h.</desc>
<speed>2.000000</speed>
</trkpt>
<trkpt lat="55.814442" lon="26.032021">
<ele>147.720825</ele>
<time>2010-07-17T16:15:10Z</time>
<desc>lat.=55.814442, lon.=26.032021, Alt.=147.720825m. Speed=8.136000m/h.</desc>
<speed>2.260000</speed>
</trkpt>
<trkpt lat="55.814430" lon="26.031992">
<ele>148.537231</ele>
<time>2010-07-17T16:15:11Z</time>
<desc>lat.=55.814430, lon.=26.031992, Alt.=148.537231m. Speed=7.380000m/h.</desc>
<speed>2.050000</speed>
</trkpt>
<trkpt lat="55.814407" lon="26.031967">
<ele>148.986450</ele>
<time>2010-07-17T16:15:12Z</time>
<desc>lat.=55.814407, lon.=26.031967, Alt.=148.986450m. Speed=10.044000m/h.</desc>
<speed>2.790000</speed>
</trkpt>
<trkpt lat="55.814381" lon="26.031954">
<ele>149.306763</ele>
<time>2010-07-17T16:15:13Z</time>
<desc>lat.=55.814381, lon.=26.031954, Alt.=149.306763m. Speed=7.992000m/h.</desc>
<speed>2.220000</speed>
</trkpt>
<trkpt lat="55.814350" lon="26.031939">
<ele>149.732544</ele>
<time>2010-07-17T16:15:14Z</time>
<desc>lat.=55.814350, lon.=26.031939, Alt.=149.732544m. Speed=8.856000m/h.</desc>
<speed>2.460000</speed>
</trkpt>
<trkpt lat="55.814327" lon="26.031925">
<ele>150.064575</ele>
<time>2010-07-17T16:15:15Z</time>
<desc>lat.=55.814327, lon.=26.031925, Alt.=150.064575m. Speed=8.208000m/h.</desc>
<speed>2.280000</speed>
</trkpt>
<trkpt lat="55.814304" lon="26.031916">
<ele>150.494263</ele>
<time>2010-07-17T16:15:16Z</time>
<desc>lat.=55.814304, lon.=26.031916, Alt.=150.494263m. Speed=7.956000m/h.</desc>
<speed>2.210000</speed>
</trkpt>
<trkpt lat="55.814285" lon="26.031902">
<ele>150.834106</ele>
<time>2010-07-17T16:15:17Z</time>
<desc>lat.=55.814285, lon.=26.031902, Alt.=150.834106m. Speed=8.424000m/h.</desc>
<speed>2.340000</speed>
</trkpt>
<trkpt lat="55.814259" lon="26.031891">
<ele>150.877075</ele>
<time>2010-07-17T16:15:18Z</time>
<desc>lat.=55.814259, lon.=26.031891, Alt.=150.877075m. Speed=9.216000m/h.</desc>
<speed>2.560000</speed>
</trkpt>
<trkpt lat="55.814236" lon="26.031879">
<ele>151.064575</ele>
<time>2010-07-17T16:15:19Z</time>
<desc>lat.=55.814236, lon.=26.031879, Alt.=151.064575m. Speed=8.928000m/h.</desc>
<speed>2.480000</speed>
</trkpt>
<trkpt lat="55.814209" lon="26.031868">
<ele>151.509888</ele>
<time>2010-07-17T16:15:20Z</time>
<desc>lat.=55.814209, lon.=26.031868, Alt.=151.509888m. Speed=9.576000m/h.</desc>
<speed>2.660000</speed>
</trkpt>
<trkpt lat="55.814186" lon="26.031853">
<ele>151.755981</ele>
<time>2010-07-17T16:15:21Z</time>
<desc>lat.=55.814186, lon.=26.031853, Alt.=151.755981m. Speed=9.612000m/h.</desc>
<speed>2.670000</speed>
</trkpt>
<trkpt lat="55.814163" lon="26.031839">
<ele>151.775513</ele>
<time>2010-07-17T16:15:22Z</time>
<desc>lat.=55.814163, lon.=26.031839, Alt.=151.775513m. Speed=8.892000m/h.</desc>
<speed>2.470000</speed>
</trkpt>
<trkpt lat="55.814152" lon="26.031830">
<ele>152.716919</ele>
<time>2010-07-17T16:15:23Z</time>
<desc>lat.=55.814152, lon.=26.031830, Alt.=152.716919m. Speed=7.416000m/h.</desc>
<speed>2.060000</speed>
</trkpt>
<trkpt lat="55.814129" lon="26.031818">
<ele>153.591919</ele>
<time>2010-07-17T16:15:24Z</time>
<desc>lat.=55.814129, lon.=26.031818, Alt.=153.591919m. Speed=9.036000m/h.</desc>
<speed>2.510000</speed>
</trkpt>
<trkpt lat="55.814106" lon="26.031801">
<ele>154.080200</ele>
<time>2010-07-17T16:15:25Z</time>
<desc>lat.=55.814106, lon.=26.031801, Alt.=154.080200m. Speed=9.108000m/h.</desc>
<speed>2.530000</speed>
</trkpt>
<trkpt lat="55.814075" lon="26.031780">
<ele>154.400513</ele>
<time>2010-07-17T16:15:26Z</time>
<desc>lat.=55.814075, lon.=26.031780, Alt.=154.400513m. Speed=9.036000m/h.</desc>
<speed>2.510000</speed>
</trkpt>
<trkpt lat="55.814053" lon="26.031769">
<ele>155.498169</ele>
<time>2010-07-17T16:15:27Z</time>
<desc>lat.=55.814053, lon.=26.031769, Alt.=155.498169m. Speed=10.260000m/h.</desc>
<speed>2.850000</speed>
</trkpt>
<trkpt lat="55.814030" lon="26.031752">
<ele>156.201294</ele>
<time>2010-07-17T16:15:28Z</time>
<desc>lat.=55.814030, lon.=26.031752, Alt.=156.201294m. Speed=10.620000m/h.</desc>
<speed>2.950000</speed>
</trkpt>
<trkpt lat="55.814003" lon="26.031736">
<ele>156.584106</ele>
<time>2010-07-17T16:15:29Z</time>
<desc>lat.=55.814003, lon.=26.031736, Alt.=156.584106m. Speed=10.656000m/h.</desc>
<speed>2.960000</speed>
</trkpt>
<trkpt lat="55.813976" lon="26.031719">
<ele>156.107544</ele>
<time>2010-07-17T16:15:30Z</time>
<desc>lat.=55.813976, lon.=26.031719, Alt.=156.107544m. Speed=10.584000m/h.</desc>
<speed>2.940000</speed>
</trkpt>
<trkpt lat="55.813938" lon="26.031712">
<ele>155.884888</ele>
<time>2010-07-17T16:15:31Z</time>
<desc>lat.=55.813938, lon.=26.031712, Alt.=155.884888m. Speed=9.936000m/h.</desc>
<speed>2.760000</speed>
</trkpt>
<trkpt lat="55.813911" lon="26.031700">
<ele>156.056763</ele>
<time>2010-07-17T16:15:32Z</time>
<desc>lat.=55.813911, lon.=26.031700, Alt.=156.056763m. Speed=9.684000m/h.</desc>
<speed>2.690000</speed>
</trkpt>
<trkpt lat="55.813881" lon="26.031685">
<ele>156.377075</ele>
<time>2010-07-17T16:15:33Z</time>
<desc>lat.=55.813881, lon.=26.031685, Alt.=156.377075m. Speed=10.692000m/h.</desc>
<speed>2.970000</speed>
</trkpt>
<trkpt lat="55.813854" lon="26.031670">
<ele>156.537231</ele>
<time>2010-07-17T16:15:34Z</time>
<desc>lat.=55.813854, lon.=26.031670, Alt.=156.537231m. Speed=10.332000m/h.</desc>
<speed>2.870000</speed>
</trkpt>
<trkpt lat="55.813828" lon="26.031649">
<ele>156.849731</ele>
<time>2010-07-17T16:15:35Z</time>
<desc>lat.=55.813828, lon.=26.031649, Alt.=156.849731m. Speed=11.664000m/h.</desc>
<speed>3.240000</speed>
</trkpt>
<trkpt lat="55.813797" lon="26.031630">
<ele>157.146606</ele>
<time>2010-07-17T16:15:36Z</time>
<desc>lat.=55.813797, lon.=26.031630, Alt.=157.146606m. Speed=12.024000m/h.</desc>
<speed>3.340000</speed>
</trkpt>
<trkpt lat="55.813766" lon="26.031616">
<ele>156.990356</ele>
<time>2010-07-17T16:15:37Z</time>
<desc>lat.=55.813766, lon.=26.031616, Alt.=156.990356m. Speed=12.096000m/h.</desc>
<speed>3.360000</speed>
</trkpt>
<trkpt lat="55.813740" lon="26.031601">
<ele>157.142700</ele>
<time>2010-07-17T16:15:38Z</time>
<desc>lat.=55.813740, lon.=26.031601, Alt.=157.142700m. Speed=10.692000m/h.</desc>
<speed>2.970000</speed>
</trkpt>
<trkpt lat="55.813709" lon="26.031586">
<ele>157.252075</ele>
<time>2010-07-17T16:15:39Z</time>
<desc>lat.=55.813709, lon.=26.031586, Alt.=157.252075m. Speed=12.636000m/h.</desc>
<speed>3.510000</speed>
</trkpt>
<trkpt lat="55.813675" lon="26.031574">
<ele>157.443481</ele>
<time>2010-07-17T16:15:40Z</time>
<desc>lat.=55.813675, lon.=26.031574, Alt.=157.443481m. Speed=14.688000m/h.</desc>
<speed>4.080000</speed>
</trkpt>
<trkpt lat="55.813641" lon="26.031574">
<ele>157.451294</ele>
<time>2010-07-17T16:15:41Z</time>
<desc>lat.=55.813641, lon.=26.031574, Alt.=157.451294m. Speed=14.364000m/h.</desc>
<speed>3.990000</speed>
</trkpt>
<trkpt lat="55.813606" lon="26.031567">
<ele>157.556763</ele>
<time>2010-07-17T16:15:42Z</time>
<desc>lat.=55.813606, lon.=26.031567, Alt.=157.556763m. Speed=13.032000m/h.</desc>
<speed>3.620000</speed>
</trkpt>
<trkpt lat="55.813572" lon="26.031553">
<ele>157.974731</ele>
<time>2010-07-17T16:15:43Z</time>
<desc>lat.=55.813572, lon.=26.031553, Alt.=157.974731m. Speed=13.824000m/h.</desc>
<speed>3.840000</speed>
</trkpt>
<trkpt lat="55.813534" lon="26.031525">
<ele>158.213013</ele>
<time>2010-07-17T16:15:44Z</time>
<desc>lat.=55.813534, lon.=26.031525, Alt.=158.213013m. Speed=13.284000m/h.</desc>
<speed>3.690000</speed>
</trkpt>
<trkpt lat="55.813507" lon="26.031496">
<ele>158.173950</ele>
<time>2010-07-17T16:15:45Z</time>
<desc>lat.=55.813507, lon.=26.031496, Alt.=158.173950m. Speed=14.184000m/h.</desc>
<speed>3.940000</speed>
</trkpt>
<trkpt lat="55.813480" lon="26.031475">
<ele>158.306763</ele>
<time>2010-07-17T16:15:46Z</time>
<desc>lat.=55.813480, lon.=26.031475, Alt.=158.306763m. Speed=12.240000m/h.</desc>
<speed>3.400000</speed>
</trkpt>
<trkpt lat="55.813454" lon="26.031443">
<ele>158.455200</ele>
<time>2010-07-17T16:15:47Z</time>
<desc>lat.=55.813454, lon.=26.031443, Alt.=158.455200m. Speed=13.212000m/h.</desc>
<speed>3.670000</speed>
</trkpt>
<trkpt lat="55.813419" lon="26.031412">
<ele>158.380981</ele>
<time>2010-07-17T16:15:48Z</time>
<desc>lat.=55.813419, lon.=26.031412, Alt.=158.380981m. Speed=14.400000m/h.</desc>
<speed>4.000000</speed>
</trkpt>
<trkpt lat="55.813385" lon="26.031374">
<ele>158.447388</ele>
<time>2010-07-17T16:15:49Z</time>
<desc>lat.=55.813385, lon.=26.031374, Alt.=158.447388m. Speed=17.388000m/h.</desc>
<speed>4.830000</speed>
</trkpt>
<trkpt lat="55.813343" lon="26.031338">
<ele>158.732544</ele>
<time>2010-07-17T16:15:50Z</time>
<desc>lat.=55.813343, lon.=26.031338, Alt.=158.732544m. Speed=16.775999m/h.</desc>
<speed>4.660000</speed>
</trkpt>
<trkpt lat="55.813309" lon="26.031301">
<ele>158.724731</ele>
<time>2010-07-17T16:15:51Z</time>
<desc>lat.=55.813309, lon.=26.031301, Alt.=158.724731m. Speed=15.696000m/h.</desc>
<speed>4.360000</speed>
</trkpt>
<trkpt lat="55.813290" lon="26.031261">
<ele>158.494263</ele>
<time>2010-07-17T16:15:52Z</time>
<desc>lat.=55.813290, lon.=26.031261, Alt.=158.494263m. Speed=13.860000m/h.</desc>
<speed>3.850000</speed>
</trkpt>
<trkpt lat="55.813263" lon="26.031212">
<ele>158.599731</ele>
<time>2010-07-17T16:15:53Z</time>
<desc>lat.=55.813263, lon.=26.031212, Alt.=158.599731m. Speed=14.832000m/h.</desc>
<speed>4.120000</speed>
</trkpt>
<trkpt lat="55.813232" lon="26.031162">
<ele>158.568481</ele>
<time>2010-07-17T16:15:54Z</time>
<desc>lat.=55.813232, lon.=26.031162, Alt.=158.568481m. Speed=15.624000m/h.</desc>
<speed>4.340000</speed>
</trkpt>
<trkpt lat="55.813198" lon="26.031107">
<ele>158.396606</ele>
<time>2010-07-17T16:15:55Z</time>
<desc>lat.=55.813198, lon.=26.031107, Alt.=158.396606m. Speed=17.639999m/h.</desc>
<speed>4.900000</speed>
</trkpt>
<trkpt lat="55.813164" lon="26.031050">
<ele>158.435669</ele>
<time>2010-07-17T16:15:56Z</time>
<desc>lat.=55.813164, lon.=26.031050, Alt.=158.435669m. Speed=17.784000m/h.</desc>
<speed>4.940000</speed>
</trkpt>
<trkpt lat="55.813133" lon="26.030991">
<ele>158.673950</ele>
<time>2010-07-17T16:15:57Z</time>
<desc>lat.=55.813133, lon.=26.030991, Alt.=158.673950m. Speed=16.164000m/h.</desc>
<speed>4.490000</speed>
</trkpt>
<trkpt lat="55.813110" lon="26.030935">
<ele>158.623169</ele>
<time>2010-07-17T16:15:58Z</time>
<desc>lat.=55.813110, lon.=26.030935, Alt.=158.623169m. Speed=16.200001m/h.</desc>
<speed>4.500000</speed>
</trkpt>
<trkpt lat="55.813099" lon="26.030886">
<ele>158.662231</ele>
<time>2010-07-17T16:15:59Z</time>
<desc>lat.=55.813099, lon.=26.030886, Alt.=158.662231m. Speed=15.876000m/h.</desc>
<speed>4.410000</speed>
</trkpt>
<trkpt lat="55.813084" lon="26.030819">
<ele>158.752075</ele>
<time>2010-07-17T16:16:00Z</time>
<desc>lat.=55.813084, lon.=26.030819, Alt.=158.752075m. Speed=14.364000m/h.</desc>
<speed>3.990000</speed>
</trkpt>
<trkpt lat="55.813076" lon="26.030762">
<ele>158.763794</ele>
<time>2010-07-17T16:16:01Z</time>
<desc>lat.=55.813076, lon.=26.030762, Alt.=158.763794m. Speed=13.968000m/h.</desc>
<speed>3.880000</speed>
</trkpt>
<trkpt lat="55.813072" lon="26.030704">
<ele>158.908325</ele>
<time>2010-07-17T16:16:02Z</time>
<desc>lat.=55.813072, lon.=26.030704, Alt.=158.908325m. Speed=13.716000m/h.</desc>
<speed>3.810000</speed>
</trkpt>
<trkpt lat="55.813057" lon="26.030640">
<ele>159.041138</ele>
<time>2010-07-17T16:16:03Z</time>
<desc>lat.=55.813057, lon.=26.030640, Alt.=159.041138m. Speed=15.300000m/h.</desc>
<speed>4.250000</speed>
</trkpt>
<trkpt lat="55.813042" lon="26.030581">
<ele>159.002075</ele>
<time>2010-07-17T16:16:04Z</time>
<desc>lat.=55.813042, lon.=26.030581, Alt.=159.002075m. Speed=15.768000m/h.</desc>
<speed>4.380000</speed>
</trkpt>
<trkpt lat="55.813026" lon="26.030519">
<ele>158.873169</ele>
<time>2010-07-17T16:16:05Z</time>
<desc>lat.=55.813026, lon.=26.030519, Alt.=158.873169m. Speed=14.904000m/h.</desc>
<speed>4.140000</speed>
</trkpt>
<trkpt lat="55.813004" lon="26.030466">
<ele>159.017700</ele>
<time>2010-07-17T16:16:06Z</time>
<desc>lat.=55.813004, lon.=26.030466, Alt.=159.017700m. Speed=14.940000m/h.</desc>
<speed>4.150000</speed>
</trkpt>
<trkpt lat="55.812984" lon="26.030411">
<ele>159.088013</ele>
<time>2010-07-17T16:16:07Z</time>
<desc>lat.=55.812984, lon.=26.030411, Alt.=159.088013m. Speed=14.472000m/h.</desc>
<speed>4.020000</speed>
</trkpt>
<trkpt lat="55.812973" lon="26.030363">
<ele>159.052856</ele>
<time>2010-07-17T16:16:08Z</time>
<desc>lat.=55.812973, lon.=26.030363, Alt.=159.052856m. Speed=11.952000m/h.</desc>
<speed>3.320000</speed>
</trkpt>
<trkpt lat="55.812939" lon="26.030327">
<ele>159.900513</ele>
<time>2010-07-17T16:16:09Z</time>
<desc>lat.=55.812939, lon.=26.030327, Alt.=159.900513m. Speed=12.312000m/h.</desc>
<speed>3.420000</speed>
</trkpt>
<trkpt lat="55.812916" lon="26.030277">
<ele>159.908325</ele>
<time>2010-07-17T16:16:10Z</time>
<desc>lat.=55.812916, lon.=26.030277, Alt.=159.908325m. Speed=13.968000m/h.</desc>
<speed>3.880000</speed>
</trkpt>
<trkpt lat="55.812885" lon="26.030228">
<ele>159.947388</ele>
<time>2010-07-17T16:16:11Z</time>
<desc>lat.=55.812885, lon.=26.030228, Alt.=159.947388m. Speed=15.768000m/h.</desc>
<speed>4.380000</speed>
</trkpt>
<trkpt lat="55.812847" lon="26.030186">
<ele>160.099731</ele>
<time>2010-07-17T16:16:12Z</time>
<desc>lat.=55.812847, lon.=26.030186, Alt.=160.099731m. Speed=16.884001m/h.</desc>
<speed>4.690000</speed>
</trkpt>
<trkpt lat="55.812813" lon="26.030149">
<ele>160.146606</ele>
<time>2010-07-17T16:16:13Z</time>
<desc>lat.=55.812813, lon.=26.030149, Alt.=160.146606m. Speed=15.660000m/h.</desc>
<speed>4.350000</speed>
</trkpt>
<trkpt lat="55.812767" lon="26.030094">
<ele>160.099731</ele>
<time>2010-07-17T16:16:14Z</time>
<desc>lat.=55.812767, lon.=26.030094, Alt.=160.099731m. Speed=16.992001m/h.</desc>
<speed>4.720000</speed>
</trkpt>
<trkpt lat="55.812725" lon="26.030039">
<ele>160.267700</ele>
<time>2010-07-17T16:16:15Z</time>
<desc>lat.=55.812725, lon.=26.030039, Alt.=160.267700m. Speed=15.552000m/h.</desc>
<speed>4.320000</speed>
</trkpt>
<trkpt lat="55.812695" lon="26.029985">
<ele>160.509888</ele>
<time>2010-07-17T16:16:16Z</time>
<desc>lat.=55.812695, lon.=26.029985, Alt.=160.509888m. Speed=15.228000m/h.</desc>
<speed>4.230000</speed>
</trkpt>
<trkpt lat="55.812664" lon="26.029938">
<ele>160.564575</ele>
<time>2010-07-17T16:16:17Z</time>
<desc>lat.=55.812664, lon.=26.029938, Alt.=160.564575m. Speed=15.768000m/h.</desc>
<speed>4.380000</speed>
</trkpt>
<trkpt lat="55.812637" lon="26.029894">
<ele>160.814575</ele>
<time>2010-07-17T16:16:18Z</time>
<desc>lat.=55.812637, lon.=26.029894, Alt.=160.814575m. Speed=14.148000m/h.</desc>
<speed>3.930000</speed>
</trkpt>
<trkpt lat="55.812611" lon="26.029842">
<ele>161.084106</ele>
<time>2010-07-17T16:16:19Z</time>
<desc>lat.=55.812611, lon.=26.029842, Alt.=161.084106m. Speed=15.084000m/h.</desc>
<speed>4.190000</speed>
</trkpt>
<trkpt lat="55.812588" lon="26.029793">
<ele>161.185669</ele>
<time>2010-07-17T16:16:20Z</time>
<desc>lat.=55.812588, lon.=26.029793, Alt.=161.185669m. Speed=13.608000m/h.</desc>
<speed>3.780000</speed>
</trkpt>
<trkpt lat="55.812569" lon="26.029757">
<ele>161.357544</ele>
<time>2010-07-17T16:16:21Z</time>
<desc>lat.=55.812569, lon.=26.029757, Alt.=161.357544m. Speed=11.232000m/h.</desc>
<speed>3.120000</speed>
</trkpt>
<trkpt lat="55.812550" lon="26.029718">
<ele>161.521606</ele>
<time>2010-07-17T16:16:22Z</time>
<desc>lat.=55.812550, lon.=26.029718, Alt.=161.521606m. Speed=10.116000m/h.</desc>
<speed>2.810000</speed>
</trkpt>
<trkpt lat="55.812534" lon="26.029680">
<ele>161.791138</ele>
<time>2010-07-17T16:16:23Z</time>
<desc>lat.=55.812534, lon.=26.029680, Alt.=161.791138m. Speed=10.260000m/h.</desc>
<speed>2.850000</speed>
</trkpt>
<trkpt lat="55.812519" lon="26.029644">
<ele>161.998169</ele>
<time>2010-07-17T16:16:24Z</time>
<desc>lat.=55.812519, lon.=26.029644, Alt.=161.998169m. Speed=10.620000m/h.</desc>
<speed>2.950000</speed>
</trkpt>
<trkpt lat="55.812504" lon="26.029610">
<ele>162.259888</ele>
<time>2010-07-17T16:16:25Z</time>
<desc>lat.=55.812504, lon.=26.029610, Alt.=162.259888m. Speed=9.576000m/h.</desc>
<speed>2.660000</speed>
</trkpt>
<trkpt lat="55.812489" lon="26.029575">
<ele>162.408325</ele>
<time>2010-07-17T16:16:26Z</time>
<desc>lat.=55.812489, lon.=26.029575, Alt.=162.408325m. Speed=9.900000m/h.</desc>
<speed>2.750000</speed>
</trkpt>
<trkpt lat="55.812462" lon="26.029535">
<ele>162.509888</ele>
<time>2010-07-17T16:16:27Z</time>
<desc>lat.=55.812462, lon.=26.029535, Alt.=162.509888m. Speed=12.852000m/h.</desc>
<speed>3.570000</speed>
</trkpt>
<trkpt lat="55.812439" lon="26.029497">
<ele>162.666138</ele>
<time>2010-07-17T16:16:28Z</time>
<desc>lat.=55.812439, lon.=26.029497, Alt.=162.666138m. Speed=12.312000m/h.</desc>
<speed>3.420000</speed>
</trkpt>
<trkpt lat="55.812420" lon="26.029469">
<ele>162.451294</ele>
<time>2010-07-17T16:16:29Z</time>
<desc>lat.=55.812420, lon.=26.029469, Alt.=162.451294m. Speed=10.800000m/h.</desc>
<speed>3.000000</speed>
</trkpt>
<trkpt lat="55.812389" lon="26.029430">
<ele>162.451294</ele>
<time>2010-07-17T16:16:30Z</time>
<desc>lat.=55.812389, lon.=26.029430, Alt.=162.451294m. Speed=11.736000m/h.</desc>
<speed>3.260000</speed>
</trkpt>
<trkpt lat="55.812374" lon="26.029400">
<ele>162.447388</ele>
<time>2010-07-17T16:16:31Z</time>
<desc>lat.=55.812374, lon.=26.029400, Alt.=162.447388m. Speed=8.460000m/h.</desc>
<speed>2.350000</speed>
</trkpt>
<trkpt lat="55.812347" lon="26.029364">
<ele>162.627075</ele>
<time>2010-07-17T16:16:32Z</time>
<desc>lat.=55.812347, lon.=26.029364, Alt.=162.627075m. Speed=11.952000m/h.</desc>
<speed>3.320000</speed>
</trkpt>
<trkpt lat="55.812328" lon="26.029329">
<ele>162.759888</ele>
<time>2010-07-17T16:16:33Z</time>
<desc>lat.=55.812328, lon.=26.029329, Alt.=162.759888m. Speed=10.728000m/h.</desc>
<speed>2.980000</speed>
</trkpt>
<trkpt lat="55.812313" lon="26.029306">
<ele>162.681763</ele>
<time>2010-07-17T16:16:34Z</time>
<desc>lat.=55.812313, lon.=26.029306, Alt.=162.681763m. Speed=7.128000m/h.</desc>
<speed>1.980000</speed>
</trkpt>
<trkpt lat="55.812286" lon="26.029280">
<ele>162.802856</ele>
<time>2010-07-17T16:16:35Z</time>
<desc>lat.=55.812286, lon.=26.029280, Alt.=162.802856m. Speed=10.008000m/h.</desc>
<speed>2.780000</speed>
</trkpt>
<trkpt lat="55.812263" lon="26.029261">
<ele>162.845825</ele>
<time>2010-07-17T16:16:36Z</time>
<desc>lat.=55.812263, lon.=26.029261, Alt.=162.845825m. Speed=9.000000m/h.</desc>
<speed>2.500000</speed>
</trkpt>
<trkpt lat="55.812233" lon="26.029232">
<ele>163.103638</ele>
<time>2010-07-17T16:16:37Z</time>
<desc>lat.=55.812233, lon.=26.029232, Alt.=163.103638m. Speed=10.008000m/h.</desc>
<speed>2.780000</speed>
</trkpt>
<trkpt lat="55.812210" lon="26.029224">
<ele>163.142700</ele>
<time>2010-07-17T16:16:38Z</time>
<desc>lat.=55.812210, lon.=26.029224, Alt.=163.142700m. Speed=9.108000m/h.</desc>
<speed>2.530000</speed>
</trkpt>
<trkpt lat="55.812176" lon="26.029209">
<ele>163.076294</ele>
<time>2010-07-17T16:16:39Z</time>
<desc>lat.=55.812176, lon.=26.029209, Alt.=163.076294m. Speed=11.340000m/h.</desc>
<speed>3.150000</speed>
</trkpt>
<trkpt lat="55.812130" lon="26.029177">
<ele>162.994263</ele>
<time>2010-07-17T16:16:40Z</time>
<desc>lat.=55.812130, lon.=26.029177, Alt.=162.994263m. Speed=13.104000m/h.</desc>
<speed>3.640000</speed>
</trkpt>
<trkpt lat="55.812088" lon="26.029156">
<ele>162.880981</ele>
<time>2010-07-17T16:16:41Z</time>
<desc>lat.=55.812088, lon.=26.029156, Alt.=162.880981m. Speed=13.932000m/h.</desc>
<speed>3.870000</speed>
</trkpt>
<trkpt lat="55.812057" lon="26.029135">
<ele>163.130981</ele>
<time>2010-07-17T16:16:42Z</time>
<desc>lat.=55.812057, lon.=26.029135, Alt.=163.130981m. Speed=11.124000m/h.</desc>
<speed>3.090000</speed>
</trkpt>
<trkpt lat="55.812027" lon="26.029129">
<ele>162.939575</ele>
<time>2010-07-17T16:16:43Z</time>
<desc>lat.=55.812027, lon.=26.029129, Alt.=162.939575m. Speed=8.460000m/h.</desc>
<speed>2.350000</speed>
</trkpt>
<trkpt lat="55.812008" lon="26.029121">
<ele>162.189575</ele>
<time>2010-07-17T16:16:44Z</time>
<desc>lat.=55.812008, lon.=26.029121, Alt.=162.189575m. Speed=2.412000m/h.</desc>
<speed>0.670000</speed>
</trkpt>
<trkpt lat="55.811989" lon="26.029118">
<ele>162.095825</ele>
<time>2010-07-17T16:16:45Z</time>
<desc>lat.=55.811989, lon.=26.029118, Alt.=162.095825m. Speed=3.888000m/h.</desc>
<speed>1.080000</speed>
</trkpt>
<trkpt lat="55.811974" lon="26.029116">
<ele>162.365356</ele>
<time>2010-07-17T16:16:46Z</time>
<desc>lat.=55.811974, lon.=26.029116, Alt.=162.365356m. Speed=4.824000m/h.</desc>
<speed>1.340000</speed>
</trkpt>
<trkpt lat="55.811947" lon="26.029116">
<ele>162.486450</ele>
<time>2010-07-17T16:16:47Z</time>
<desc>lat.=55.811947, lon.=26.029116, Alt.=162.486450m. Speed=6.768000m/h.</desc>
<speed>1.880000</speed>
</trkpt>
<trkpt lat="55.811916" lon="26.029114">
<ele>162.556763</ele>
<time>2010-07-17T16:16:48Z</time>
<desc>lat.=55.811916, lon.=26.029114, Alt.=162.556763m. Speed=10.944000m/h.</desc>
<speed>3.040000</speed>
</trkpt>
<trkpt lat="55.811886" lon="26.029116">
<ele>162.591919</ele>
<time>2010-07-17T16:16:49Z</time>
<desc>lat.=55.811886, lon.=26.029116, Alt.=162.591919m. Speed=12.708000m/h.</desc>
<speed>3.530000</speed>
</trkpt>
<trkpt lat="55.811859" lon="26.029119">
<ele>162.556763</ele>
<time>2010-07-17T16:16:50Z</time>
<desc>lat.=55.811859, lon.=26.029119, Alt.=162.556763m. Speed=12.924000m/h.</desc>
<speed>3.590000</speed>
</trkpt>
<trkpt lat="55.811825" lon="26.029123">
<ele>162.545044</ele>
<time>2010-07-17T16:16:51Z</time>
<desc>lat.=55.811825, lon.=26.029123, Alt.=162.545044m. Speed=12.456000m/h.</desc>
<speed>3.460000</speed>
</trkpt>
<trkpt lat="55.811790" lon="26.029121">
<ele>162.611450</ele>
<time>2010-07-17T16:16:52Z</time>
<desc>lat.=55.811790, lon.=26.029121, Alt.=162.611450m. Speed=12.708000m/h.</desc>
<speed>3.530000</speed>
</trkpt>
<trkpt lat="55.811756" lon="26.029121">
<ele>162.619263</ele>
<time>2010-07-17T16:16:53Z</time>
<desc>lat.=55.811756, lon.=26.029121, Alt.=162.619263m. Speed=12.924000m/h.</desc>
<speed>3.590000</speed>
</trkpt>
<trkpt lat="55.811722" lon="26.029125">
<ele>162.966919</ele>
<time>2010-07-17T16:16:54Z</time>
<desc>lat.=55.811722, lon.=26.029125, Alt.=162.966919m. Speed=13.572000m/h.</desc>
<speed>3.770000</speed>
</trkpt>
<trkpt lat="55.811687" lon="26.029125">
<ele>162.607544</ele>
<time>2010-07-17T16:16:55Z</time>
<desc>lat.=55.811687, lon.=26.029125, Alt.=162.607544m. Speed=12.456000m/h.</desc>
<speed>3.460000</speed>
</trkpt>
<trkpt lat="55.811661" lon="26.029135">
<ele>162.709106</ele>
<time>2010-07-17T16:16:56Z</time>
<desc>lat.=55.811661, lon.=26.029135, Alt.=162.709106m. Speed=11.556000m/h.</desc>
<speed>3.210000</speed>
</trkpt>
<trkpt lat="55.811626" lon="26.029142">
<ele>162.498169</ele>
<time>2010-07-17T16:16:57Z</time>
<desc>lat.=55.811626, lon.=26.029142, Alt.=162.498169m. Speed=11.088000m/h.</desc>
<speed>3.080000</speed>
</trkpt>
<trkpt lat="55.811600" lon="26.029156">
<ele>162.318481</ele>
<time>2010-07-17T16:16:58Z</time>
<desc>lat.=55.811600, lon.=26.029156, Alt.=162.318481m. Speed=11.952000m/h.</desc>
<speed>3.320000</speed>
</trkpt>
<trkpt lat="55.811569" lon="26.029177">
<ele>162.748169</ele>
<time>2010-07-17T16:16:59Z</time>
<desc>lat.=55.811569, lon.=26.029177, Alt.=162.748169m. Speed=14.256000m/h.</desc>
<speed>3.960000</speed>
</trkpt>
<trkpt lat="55.811535" lon="26.029207">
<ele>162.548950</ele>
<time>2010-07-17T16:17:00Z</time>
<desc>lat.=55.811535, lon.=26.029207, Alt.=162.548950m. Speed=13.644000m/h.</desc>
<speed>3.790000</speed>
</trkpt>
<trkpt lat="55.811497" lon="26.029245">
<ele>162.701294</ele>
<time>2010-07-17T16:17:01Z</time>
<desc>lat.=55.811497, lon.=26.029245, Alt.=162.701294m. Speed=14.400000m/h.</desc>
<speed>4.000000</speed>
</trkpt>
<trkpt lat="55.811470" lon="26.029274">
<ele>162.681763</ele>
<time>2010-07-17T16:17:02Z</time>
<desc>lat.=55.811470, lon.=26.029274, Alt.=162.681763m. Speed=12.780000m/h.</desc>
<speed>3.550000</speed>
</trkpt>
<trkpt lat="55.811436" lon="26.029299">
<ele>162.720825</ele>
<time>2010-07-17T16:17:03Z</time>
<desc>lat.=55.811436, lon.=26.029299, Alt.=162.720825m. Speed=12.492000m/h.</desc>
<speed>3.470000</speed>
</trkpt>
<trkpt lat="55.811405" lon="26.029322">
<ele>162.744263</ele>
<time>2010-07-17T16:17:04Z</time>
<desc>lat.=55.811405, lon.=26.029322, Alt.=162.744263m. Speed=11.916000m/h.</desc>
<speed>3.310000</speed>
</trkpt>
<trkpt lat="55.811375" lon="26.029339">
<ele>162.755981</ele>
<time>2010-07-17T16:17:05Z</time>
<desc>lat.=55.811375, lon.=26.029339, Alt.=162.755981m. Speed=13.032000m/h.</desc>
<speed>3.620000</speed>
</trkpt>
<trkpt lat="55.811340" lon="26.029358">
<ele>163.255981</ele>
<time>2010-07-17T16:17:06Z</time>
<desc>lat.=55.811340, lon.=26.029358, Alt.=163.255981m. Speed=13.248000m/h.</desc>
<speed>3.680000</speed>
</trkpt>
<trkpt lat="55.811310" lon="26.029366">
<ele>163.509888</ele>
<time>2010-07-17T16:17:07Z</time>
<desc>lat.=55.811310, lon.=26.029366, Alt.=163.509888m. Speed=11.772000m/h.</desc>
<speed>3.270000</speed>
</trkpt>
<trkpt lat="55.811268" lon="26.029381">
<ele>163.841919</ele>
<time>2010-07-17T16:17:08Z</time>
<desc>lat.=55.811268, lon.=26.029381, Alt.=163.841919m. Speed=16.344000m/h.</desc>
<speed>4.540000</speed>
</trkpt>
<trkpt lat="55.811230" lon="26.029390">
<ele>164.283325</ele>
<time>2010-07-17T16:17:09Z</time>
<desc>lat.=55.811230, lon.=26.029390, Alt.=164.283325m. Speed=12.672000m/h.</desc>
<speed>3.520000</speed>
</trkpt>
<trkpt lat="55.811195" lon="26.029398">
<ele>164.275513</ele>
<time>2010-07-17T16:17:10Z</time>
<desc>lat.=55.811195, lon.=26.029398, Alt.=164.275513m. Speed=13.752000m/h.</desc>
<speed>3.820000</speed>
</trkpt>
<trkpt lat="55.811153" lon="26.029404">
<ele>165.185669</ele>
<time>2010-07-17T16:17:11Z</time>
<desc>lat.=55.811153, lon.=26.029404, Alt.=165.185669m. Speed=12.672000m/h.</desc>
<speed>3.520000</speed>
</trkpt>
<trkpt lat="55.811119" lon="26.029408">
<ele>165.380981</ele>
<time>2010-07-17T16:17:12Z</time>
<desc>lat.=55.811119, lon.=26.029408, Alt.=165.380981m. Speed=12.816000m/h.</desc>
<speed>3.560000</speed>
</trkpt>
<trkpt lat="55.811089" lon="26.029417">
<ele>165.443481</ele>
<time>2010-07-17T16:17:13Z</time>
<desc>lat.=55.811089, lon.=26.029417, Alt.=165.443481m. Speed=9.612000m/h.</desc>
<speed>2.670000</speed>
</trkpt>
<trkpt lat="55.811062" lon="26.029430">
<ele>165.349731</ele>
<time>2010-07-17T16:17:14Z</time>
<desc>lat.=55.811062, lon.=26.029430, Alt.=165.349731m. Speed=8.964000m/h.</desc>
<speed>2.490000</speed>
</trkpt>
<trkpt lat="55.811035" lon="26.029446">
<ele>165.060669</ele>
<time>2010-07-17T16:17:15Z</time>
<desc>lat.=55.811035, lon.=26.029446, Alt.=165.060669m. Speed=9.216000m/h.</desc>
<speed>2.560000</speed>
</trkpt>
<trkpt lat="55.811005" lon="26.029467">
<ele>165.541138</ele>
<time>2010-07-17T16:17:16Z</time>
<desc>lat.=55.811005, lon.=26.029467, Alt.=165.541138m. Speed=9.252000m/h.</desc>
<speed>2.570000</speed>
</trkpt>
<trkpt lat="55.810993" lon="26.029490">
<ele>165.713013</ele>
<time>2010-07-17T16:17:17Z</time>
<desc>lat.=55.810993, lon.=26.029490, Alt.=165.713013m. Speed=8.424000m/h.</desc>
<speed>2.340000</speed>
</trkpt>
<trkpt lat="55.810974" lon="26.029514">
<ele>165.963013</ele>
<time>2010-07-17T16:17:18Z</time>
<desc>lat.=55.810974, lon.=26.029514, Alt.=165.963013m. Speed=8.568000m/h.</desc>
<speed>2.380000</speed>
</trkpt>
<trkpt lat="55.810959" lon="26.029531">
<ele>165.947388</ele>
<time>2010-07-17T16:17:19Z</time>
<desc>lat.=55.810959, lon.=26.029531, Alt.=165.947388m. Speed=7.596000m/h.</desc>
<speed>2.110000</speed>
</trkpt>
<trkpt lat="55.810940" lon="26.029552">
<ele>166.037231</ele>
<time>2010-07-17T16:17:20Z</time>
<desc>lat.=55.810940, lon.=26.029552, Alt.=166.037231m. Speed=8.244000m/h.</desc>
<speed>2.290000</speed>
</trkpt>
<trkpt lat="55.810925" lon="26.029575">
<ele>165.623169</ele>
<time>2010-07-17T16:17:21Z</time>
<desc>lat.=55.810925, lon.=26.029575, Alt.=165.623169m. Speed=10.152000m/h.</desc>
<speed>2.820000</speed>
</trkpt>
<trkpt lat="55.810890" lon="26.029591">
<ele>166.099731</ele>
<time>2010-07-17T16:17:22Z</time>
<desc>lat.=55.810890, lon.=26.029591, Alt.=166.099731m. Speed=9.216000m/h.</desc>
<speed>2.560000</speed>
</trkpt>
<trkpt lat="55.810863" lon="26.029608">
<ele>166.224731</ele>
<time>2010-07-17T16:17:23Z</time>
<desc>lat.=55.810863, lon.=26.029608, Alt.=166.224731m. Speed=9.180000m/h.</desc>
<speed>2.550000</speed>
</trkpt>
<trkpt lat="55.810844" lon="26.029625">
<ele>165.771606</ele>
<time>2010-07-17T16:17:24Z</time>
<desc>lat.=55.810844, lon.=26.029625, Alt.=165.771606m. Speed=5.400000m/h.</desc>
<speed>1.500000</speed>
</trkpt>
<trkpt lat="55.810837" lon="26.029636">
<ele>165.728638</ele>
<time>2010-07-17T16:17:25Z</time>
<desc>lat.=55.810837, lon.=26.029636, Alt.=165.728638m. Speed=2.016000m/h.</desc>
<speed>0.560000</speed>
</trkpt>
<trkpt lat="55.810837" lon="26.029640">
<ele>165.142700</ele>
<time>2010-07-17T16:17:26Z</time>
<desc>lat.=55.810837, lon.=26.029640, Alt.=165.142700m. Speed=1.332000m/h.</desc>
<speed>0.370000</speed>
</trkpt>
<trkpt lat="55.810837" lon="26.029644">
<ele>165.275513</ele>
<time>2010-07-17T16:17:27Z</time>
<desc>lat.=55.810837, lon.=26.029644, Alt.=165.275513m. Speed=1.224000m/h.</desc>
<speed>0.340000</speed>
</trkpt>
<trkpt lat="55.810837" lon="26.029644">
<ele>165.095825</ele>
<time>2010-07-17T16:17:28Z</time>
<desc>lat.=55.810837, lon.=26.029644, Alt.=165.095825m. Speed=1.008000m/h.</desc>
<speed>0.280000</speed>
</trkpt>
<trkpt lat="55.810833" lon="26.029646">
<ele>165.201294</ele>
<time>2010-07-17T16:17:29Z</time>
<desc>lat.=55.810833, lon.=26.029646, Alt.=165.201294m. Speed=0.648000m/h.</desc>
<speed>0.180000</speed>
</trkpt>
<trkpt lat="55.810833" lon="26.029648">
<ele>165.283325</ele>
<time>2010-07-17T16:17:30Z</time>
<desc>lat.=55.810833, lon.=26.029648, Alt.=165.283325m. Speed=0.144000m/h.</desc>
<speed>0.040000</speed>
</trkpt>
<trkpt lat="55.810833" lon="26.029648">
<ele>165.338013</ele>
<time>2010-07-17T16:17:31Z</time>
<desc>lat.=55.810833, lon.=26.029648, Alt.=165.338013m. Speed=0.180000m/h.</desc>
<speed>0.050000</speed>
</trkpt>
<trkpt lat="55.810833" lon="26.029648">
<ele>165.392700</ele>
<time>2010-07-17T16:17:32Z</time>
<desc>lat.=55.810833, lon.=26.029648, Alt.=165.392700m. Speed=0.360000m/h.</desc>
<speed>0.100000</speed>
</trkpt>
<trkpt lat="55.810833" lon="26.029646">
<ele>165.427856</ele>
<time>2010-07-17T16:17:33Z</time>
<desc>lat.=55.810833, lon.=26.029646, Alt.=165.427856m. Speed=0.108000m/h.</desc>
<speed>0.030000</speed>
</trkpt>
<trkpt lat="55.810833" lon="26.029646">
<ele>165.463013</ele>
<time>2010-07-17T16:17:34Z</time>
<desc>lat.=55.810833, lon.=26.029646, Alt.=165.463013m. Speed=0.000000m/h.</desc>
<speed>0.000000</speed>
</trkpt>
<trkpt lat="55.810833" lon="26.029646">
<ele>165.498169</ele>
<time>2010-07-17T16:17:35Z</time>
<desc>lat.=55.810833, lon.=26.029646, Alt.=165.498169m. Speed=0.216000m/h.</desc>
<speed>0.060000</speed>
</trkpt>
<trkpt lat="55.810833" lon="26.029646">
<ele>165.521606</ele>
<time>2010-07-17T16:17:36Z</time>
<desc>lat.=55.810833, lon.=26.029646, Alt.=165.521606m. Speed=0.144000m/h.</desc>
<speed>0.040000</speed>
</trkpt>
<trkpt lat="55.810833" lon="26.029644">
<ele>165.552856</ele>
<time>2010-07-17T16:17:37Z</time>
<desc>lat.=55.810833, lon.=26.029644, Alt.=165.552856m. Speed=0.324000m/h.</desc>
<speed>0.090000</speed>
</trkpt>
<trkpt lat="55.810833" lon="26.029644">
<ele>165.584106</ele>
<time>2010-07-17T16:17:38Z</time>
<desc>lat.=55.810833, lon.=26.029644, Alt.=165.584106m. Speed=0.360000m/h.</desc>
<speed>0.100000</speed>
</trkpt>
<trkpt lat="55.810837" lon="26.029642">
<ele>165.595825</ele>
<time>2010-07-17T16:17:39Z</time>
<desc>lat.=55.810837, lon.=26.029642, Alt.=165.595825m. Speed=0.396000m/h.</desc>
<speed>0.110000</speed>
</trkpt>
<trkpt lat="55.810837" lon="26.029642">
<ele>165.611450</ele>
<time>2010-07-17T16:17:40Z</time>
<desc>lat.=55.810837, lon.=26.029642, Alt.=165.611450m. Speed=0.396000m/h.</desc>
<speed>0.110000</speed>
</trkpt>
<trkpt lat="55.810837" lon="26.029642">
<ele>165.615356</ele>
<time>2010-07-17T16:17:41Z</time>
<desc>lat.=55.810837, lon.=26.029642, Alt.=165.615356m. Speed=0.216000m/h.</desc>
<speed>0.060000</speed>
</trkpt>
<trkpt lat="55.810837" lon="26.029640">
<ele>165.638794</ele>
<time>2010-07-17T16:17:42Z</time>
<desc>lat.=55.810837, lon.=26.029640, Alt.=165.638794m. Speed=0.108000m/h.</desc>
<speed>0.030000</speed>
</trkpt>
<trkpt lat="55.810837" lon="26.029640">
<ele>165.642700</ele>
<time>2010-07-17T16:17:43Z</time>
<desc>lat.=55.810837, lon.=26.029640, Alt.=165.642700m. Speed=0.180000m/h.</desc>
<speed>0.050000</speed>
</trkpt>
<trkpt lat="55.810837" lon="26.029638">
<ele>165.658325</ele>
<time>2010-07-17T16:17:44Z</time>
<desc>lat.=55.810837, lon.=26.029638, Alt.=165.658325m. Speed=0.144000m/h.</desc>
<speed>0.040000</speed>
</trkpt>
<trkpt lat="55.810837" lon="26.029640">
<ele>165.666138</ele>
<time>2010-07-17T16:17:45Z</time>
<desc>lat.=55.810837, lon.=26.029640, Alt.=165.666138m. Speed=0.252000m/h.</desc>
<speed>0.070000</speed>
</trkpt>
<trkpt lat="55.810837" lon="26.029640">
<ele>165.673950</ele>
<time>2010-07-17T16:17:46Z</time>
<desc>lat.=55.810837, lon.=26.029640, Alt.=165.673950m. Speed=0.072000m/h.</desc>
<speed>0.020000</speed>
</trkpt>
<trkpt lat="55.810837" lon="26.029638">
<ele>165.662231</ele>
<time>2010-07-17T16:17:47Z</time>
<desc>lat.=55.810837, lon.=26.029638, Alt.=165.662231m. Speed=0.036000m/h.</desc>
<speed>0.010000</speed>
</trkpt>
<trkpt lat="55.810837" lon="26.029638">
<ele>165.654419</ele>
<time>2010-07-17T16:17:48Z</time>
<desc>lat.=55.810837, lon.=26.029638, Alt.=165.654419m. Speed=0.108000m/h.</desc>
<speed>0.030000</speed>
</trkpt>
<trkpt lat="55.810837" lon="26.029638">
<ele>165.642700</ele>
<time>2010-07-17T16:17:49Z</time>
<desc>lat.=55.810837, lon.=26.029638, Alt.=165.642700m. Speed=0.072000m/h.</desc>
<speed>0.020000</speed>
</trkpt>
<trkpt lat="55.810837" lon="26.029638">
<ele>165.627075</ele>
<time>2010-07-17T16:17:50Z</time>
<desc>lat.=55.810837, lon.=26.029638, Alt.=165.627075m. Speed=0.216000m/h.</desc>
<speed>0.060000</speed>
</trkpt>
<trkpt lat="55.810837" lon="26.029638">
<ele>165.603638</ele>
<time>2010-07-17T16:17:51Z</time>
<desc>lat.=55.810837, lon.=26.029638, Alt.=165.603638m. Speed=0.216000m/h.</desc>
<speed>0.060000</speed>
</trkpt>
<trkpt lat="55.810837" lon="26.029636">
<ele>165.588013</ele>
<time>2010-07-17T16:17:52Z</time>
<desc>lat.=55.810837, lon.=26.029636, Alt.=165.588013m. Speed=0.396000m/h.</desc>
<speed>0.110000</speed>
</trkpt>
<trkpt lat="55.810837" lon="26.029636">
<ele>165.564575</ele>
<time>2010-07-17T16:17:53Z</time>
<desc>lat.=55.810837, lon.=26.029636, Alt.=165.564575m. Speed=0.288000m/h.</desc>
<speed>0.080000</speed>
</trkpt>
<trkpt lat="55.810837" lon="26.029634">
<ele>165.545044</ele>
<time>2010-07-17T16:17:54Z</time>
<desc>lat.=55.810837, lon.=26.029634, Alt.=165.545044m. Speed=0.216000m/h.</desc>
<speed>0.060000</speed>
</trkpt>
<trkpt lat="55.810841" lon="26.029634">
<ele>165.521606</ele>
<time>2010-07-17T16:17:55Z</time>
<desc>lat.=55.810841, lon.=26.029634, Alt.=165.521606m. Speed=0.252000m/h.</desc>
<speed>0.070000</speed>
</trkpt>
<trkpt lat="55.810841" lon="26.029633">
<ele>165.502075</ele>
<time>2010-07-17T16:17:56Z</time>
<desc>lat.=55.810841, lon.=26.029633, Alt.=165.502075m. Speed=0.216000m/h.</desc>
<speed>0.060000</speed>
</trkpt>
<trkpt lat="55.810841" lon="26.029633">
<ele>165.490356</ele>
<time>2010-07-17T16:17:57Z</time>
<desc>lat.=55.810841, lon.=26.029633, Alt.=165.490356m. Speed=0.432000m/h.</desc>
<speed>0.120000</speed>
</trkpt>
<trkpt lat="55.810837" lon="26.029633">
<ele>165.482544</ele>
<time>2010-07-17T16:17:58Z</time>
<desc>lat.=55.810837, lon.=26.029633, Alt.=165.482544m. Speed=0.504000m/h.</desc>
<speed>0.140000</speed>
</trkpt>
<trkpt lat="55.810837" lon="26.029634">
<ele>165.466919</ele>
<time>2010-07-17T16:17:59Z</time>
<desc>lat.=55.810837, lon.=26.029634, Alt.=165.466919m. Speed=0.432000m/h.</desc>
<speed>0.120000</speed>
</trkpt>
<trkpt lat="55.810837" lon="26.029634">
<ele>165.466919</ele>
<time>2010-07-17T16:18:00Z</time>
<desc>lat.=55.810837, lon.=26.029634, Alt.=165.466919m. Speed=0.468000m/h.</desc>
<speed>0.130000</speed>
</trkpt>
<trkpt lat="55.810837" lon="26.029636">
<ele>165.459106</ele>
<time>2010-07-17T16:18:01Z</time>
<desc>lat.=55.810837, lon.=26.029636, Alt.=165.459106m. Speed=0.396000m/h.</desc>
<speed>0.110000</speed>
</trkpt>
<trkpt lat="55.810833" lon="26.029636">
<ele>165.451294</ele>
<time>2010-07-17T16:18:02Z</time>
<desc>lat.=55.810833, lon.=26.029636, Alt.=165.451294m. Speed=0.288000m/h.</desc>
<speed>0.080000</speed>
</trkpt>
<trkpt lat="55.810833" lon="26.029638">
<ele>165.443481</ele>
<time>2010-07-17T16:18:03Z</time>
<desc>lat.=55.810833, lon.=26.029638, Alt.=165.443481m. Speed=0.252000m/h.</desc>
<speed>0.070000</speed>
</trkpt>
<trkpt lat="55.810833" lon="26.029636">
<ele>165.427856</ele>
<time>2010-07-17T16:18:04Z</time>
<desc>lat.=55.810833, lon.=26.029636, Alt.=165.427856m. Speed=0.072000m/h.</desc>
<speed>0.020000</speed>
</trkpt>
<trkpt lat="55.810833" lon="26.029636">
<ele>165.416138</ele>
<time>2010-07-17T16:18:05Z</time>
<desc>lat.=55.810833, lon.=26.029636, Alt.=165.416138m. Speed=0.396000m/h.</desc>
<speed>0.110000</speed>
</trkpt>
<trkpt lat="55.810833" lon="26.029636">
<ele>165.404419</ele>
<time>2010-07-17T16:18:06Z</time>
<desc>lat.=55.810833, lon.=26.029636, Alt.=165.404419m. Speed=0.072000m/h.</desc>
<speed>0.020000</speed>
</trkpt>
<trkpt lat="55.810833" lon="26.029636">
<ele>165.396606</ele>
<time>2010-07-17T16:18:07Z</time>
<desc>lat.=55.810833, lon.=26.029636, Alt.=165.396606m. Speed=0.108000m/h.</desc>
<speed>0.030000</speed>
</trkpt>
<trkpt lat="55.810833" lon="26.029636">
<ele>165.388794</ele>
<time>2010-07-17T16:18:08Z</time>
<desc>lat.=55.810833, lon.=26.029636, Alt.=165.388794m. Speed=0.144000m/h.</desc>
<speed>0.040000</speed>
</trkpt>
<trkpt lat="55.810833" lon="26.029636">
<ele>165.380981</ele>
<time>2010-07-17T16:18:09Z</time>
<desc>lat.=55.810833, lon.=26.029636, Alt.=165.380981m. Speed=0.360000m/h.</desc>
<speed>0.100000</speed>
</trkpt>
<trkpt lat="55.810833" lon="26.029636">
<ele>165.384888</ele>
<time>2010-07-17T16:18:10Z</time>
<desc>lat.=55.810833, lon.=26.029636, Alt.=165.384888m. Speed=0.036000m/h.</desc>
<speed>0.010000</speed>
</trkpt>
<trkpt lat="55.810833" lon="26.029636">
<ele>165.377075</ele>
<time>2010-07-17T16:18:11Z</time>
<desc>lat.=55.810833, lon.=26.029636, Alt.=165.377075m. Speed=0.432000m/h.</desc>
<speed>0.120000</speed>
</trkpt>
<trkpt lat="55.810833" lon="26.029638">
<ele>165.377075</ele>
<time>2010-07-17T16:18:12Z</time>
<desc>lat.=55.810833, lon.=26.029638, Alt.=165.377075m. Speed=0.504000m/h.</desc>
<speed>0.140000</speed>
</trkpt>
<trkpt lat="55.810829" lon="26.029638">
<ele>165.373169</ele>
<time>2010-07-17T16:18:13Z</time>
<desc>lat.=55.810829, lon.=26.029638, Alt.=165.373169m. Speed=0.288000m/h.</desc>
<speed>0.080000</speed>
</trkpt>
<trkpt lat="55.810829" lon="26.029640">
<ele>165.377075</ele>
<time>2010-07-17T16:18:14Z</time>
<desc>lat.=55.810829, lon.=26.029640, Alt.=165.377075m. Speed=1.116000m/h.</desc>
<speed>0.310000</speed>
</trkpt>
<trkpt lat="55.810825" lon="26.029642">
<ele>165.388794</ele>
<time>2010-07-17T16:18:15Z</time>
<desc>lat.=55.810825, lon.=26.029642, Alt.=165.388794m. Speed=1.080000m/h.</desc>
<speed>0.300000</speed>
</trkpt>
<trkpt lat="55.810825" lon="26.029646">
<ele>165.396606</ele>
<time>2010-07-17T16:18:16Z</time>
<desc>lat.=55.810825, lon.=26.029646, Alt.=165.396606m. Speed=1.296000m/h.</desc>
<speed>0.360000</speed>
</trkpt>
<trkpt lat="55.810822" lon="26.029648">
<ele>165.408325</ele>
<time>2010-07-17T16:18:17Z</time>
<desc>lat.=55.810822, lon.=26.029648, Alt.=165.408325m. Speed=1.008000m/h.</desc>
<speed>0.280000</speed>
</trkpt>
<trkpt lat="55.810822" lon="26.029650">
<ele>165.423950</ele>
<time>2010-07-17T16:18:18Z</time>
<desc>lat.=55.810822, lon.=26.029650, Alt.=165.423950m. Speed=0.720000m/h.</desc>
<speed>0.200000</speed>
</trkpt>
<trkpt lat="55.810818" lon="26.029652">
<ele>165.439575</ele>
<time>2010-07-17T16:18:19Z</time>
<desc>lat.=55.810818, lon.=26.029652, Alt.=165.439575m. Speed=0.324000m/h.</desc>
<speed>0.090000</speed>
</trkpt>
<trkpt lat="55.810818" lon="26.029654">
<ele>165.447388</ele>
<time>2010-07-17T16:18:20Z</time>
<desc>lat.=55.810818, lon.=26.029654, Alt.=165.447388m. Speed=0.072000m/h.</desc>
<speed>0.020000</speed>
</trkpt>
<trkpt lat="55.810818" lon="26.029654">
<ele>165.463013</ele>
<time>2010-07-17T16:18:21Z</time>
<desc>lat.=55.810818, lon.=26.029654, Alt.=165.463013m. Speed=0.576000m/h.</desc>
<speed>0.160000</speed>
</trkpt>
<trkpt lat="55.810818" lon="26.029655">
<ele>165.474731</ele>
<time>2010-07-17T16:18:22Z</time>
<desc>lat.=55.810818, lon.=26.029655, Alt.=165.474731m. Speed=0.360000m/h.</desc>
<speed>0.100000</speed>
</trkpt>
<trkpt lat="55.810814" lon="26.029655">
<ele>165.482544</ele>
<time>2010-07-17T16:18:23Z</time>
<desc>lat.=55.810814, lon.=26.029655, Alt.=165.482544m. Speed=0.360000m/h.</desc>
<speed>0.100000</speed>
</trkpt>
<trkpt lat="55.810814" lon="26.029657">
<ele>165.482544</ele>
<time>2010-07-17T16:18:24Z</time>
<desc>lat.=55.810814, lon.=26.029657, Alt.=165.482544m. Speed=0.648000m/h.</desc>
<speed>0.180000</speed>
</trkpt>
<trkpt lat="55.810814" lon="26.029659">
<ele>165.498169</ele>
<time>2010-07-17T16:18:25Z</time>
<desc>lat.=55.810814, lon.=26.029659, Alt.=165.498169m. Speed=0.720000m/h.</desc>
<speed>0.200000</speed>
</trkpt>
<trkpt lat="55.810810" lon="26.029657">
<ele>165.502075</ele>
<time>2010-07-17T16:18:26Z</time>
<desc>lat.=55.810810, lon.=26.029657, Alt.=165.502075m. Speed=0.540000m/h.</desc>
<speed>0.150000</speed>
</trkpt>
<trkpt lat="55.810810" lon="26.029659">
<ele>165.502075</ele>
<time>2010-07-17T16:18:27Z</time>
<desc>lat.=55.810810, lon.=26.029659, Alt.=165.502075m. Speed=0.144000m/h.</desc>
<speed>0.040000</speed>
</trkpt>
<trkpt lat="55.810810" lon="26.029659">
<ele>165.505981</ele>
<time>2010-07-17T16:18:28Z</time>
<desc>lat.=55.810810, lon.=26.029659, Alt.=165.505981m. Speed=0.324000m/h.</desc>
<speed>0.090000</speed>
</trkpt>
<trkpt lat="55.810810" lon="26.029659">
<ele>165.509888</ele>
<time>2010-07-17T16:18:29Z</time>
<desc>lat.=55.810810, lon.=26.029659, Alt.=165.509888m. Speed=0.396000m/h.</desc>
<speed>0.110000</speed>
</trkpt>
<trkpt lat="55.810806" lon="26.029661">
<ele>165.513794</ele>
<time>2010-07-17T16:18:30Z</time>
<desc>lat.=55.810806, lon.=26.029661, Alt.=165.513794m. Speed=0.504000m/h.</desc>
<speed>0.140000</speed>
</trkpt>
<trkpt lat="55.810806" lon="26.029663">
<ele>165.521606</ele>
<time>2010-07-17T16:18:31Z</time>
<desc>lat.=55.810806, lon.=26.029663, Alt.=165.521606m. Speed=0.540000m/h.</desc>
<speed>0.150000</speed>
</trkpt>
<trkpt lat="55.810806" lon="26.029665">
<ele>165.533325</ele>
<time>2010-07-17T16:18:32Z</time>
<desc>lat.=55.810806, lon.=26.029665, Alt.=165.533325m. Speed=0.396000m/h.</desc>
<speed>0.110000</speed>
</trkpt>
<trkpt lat="55.810806" lon="26.029665">
<ele>165.537231</ele>
<time>2010-07-17T16:18:33Z</time>
<desc>lat.=55.810806, lon.=26.029665, Alt.=165.537231m. Speed=0.072000m/h.</desc>
<speed>0.020000</speed>
</trkpt>
<trkpt lat="55.810806" lon="26.029667">
<ele>165.541138</ele>
<time>2010-07-17T16:18:34Z</time>
<desc>lat.=55.810806, lon.=26.029667, Alt.=165.541138m. Speed=0.216000m/h.</desc>
<speed>0.060000</speed>
</trkpt>
<trkpt lat="55.810806" lon="26.029665">
<ele>165.545044</ele>
<time>2010-07-17T16:18:35Z</time>
<desc>lat.=55.810806, lon.=26.029665, Alt.=165.545044m. Speed=0.000000m/h.</desc>
<speed>0.000000</speed>
</trkpt>
<trkpt lat="55.810806" lon="26.029665">
<ele>165.556763</ele>
<time>2010-07-17T16:18:36Z</time>
<desc>lat.=55.810806, lon.=26.029665, Alt.=165.556763m. Speed=0.540000m/h.</desc>
<speed>0.150000</speed>
</trkpt>
<trkpt lat="55.810802" lon="26.029665">
<ele>165.560669</ele>
<time>2010-07-17T16:18:37Z</time>
<desc>lat.=55.810802, lon.=26.029665, Alt.=165.560669m. Speed=0.216000m/h.</desc>
<speed>0.060000</speed>
</trkpt>
<trkpt lat="55.810802" lon="26.029665">
<ele>165.560669</ele>
<time>2010-07-17T16:18:38Z</time>
<desc>lat.=55.810802, lon.=26.029665, Alt.=165.560669m. Speed=0.324000m/h.</desc>
<speed>0.090000</speed>
</trkpt>
<trkpt lat="55.810802" lon="26.029665">
<ele>165.564575</ele>
<time>2010-07-17T16:18:39Z</time>
<desc>lat.=55.810802, lon.=26.029665, Alt.=165.564575m. Speed=0.288000m/h.</desc>
<speed>0.080000</speed>
</trkpt>
<trkpt lat="55.810802" lon="26.029663">
<ele>165.576294</ele>
<time>2010-07-17T16:18:40Z</time>
<desc>lat.=55.810802, lon.=26.029663, Alt.=165.576294m. Speed=0.180000m/h.</desc>
<speed>0.050000</speed>
</trkpt>
<trkpt lat="55.810802" lon="26.029663">
<ele>165.584106</ele>
<time>2010-07-17T16:18:41Z</time>
<desc>lat.=55.810802, lon.=26.029663, Alt.=165.584106m. Speed=0.288000m/h.</desc>
<speed>0.080000</speed>
</trkpt>
<trkpt lat="55.810799" lon="26.029663">
<ele>165.591919</ele>
<time>2010-07-17T16:18:42Z</time>
<desc>lat.=55.810799, lon.=26.029663, Alt.=165.591919m. Speed=0.504000m/h.</desc>
<speed>0.140000</speed>
</trkpt>
<trkpt lat="55.810799" lon="26.029665">
<ele>165.603638</ele>
<time>2010-07-17T16:18:43Z</time>
<desc>lat.=55.810799, lon.=26.029665, Alt.=165.603638m. Speed=0.756000m/h.</desc>
<speed>0.210000</speed>
</trkpt>
<trkpt lat="55.810799" lon="26.029667">
<ele>165.611450</ele>
<time>2010-07-17T16:18:44Z</time>
<desc>lat.=55.810799, lon.=26.029667, Alt.=165.611450m. Speed=0.360000m/h.</desc>
<speed>0.100000</speed>
</trkpt>
<trkpt lat="55.810799" lon="26.029667">
<ele>165.627075</ele>
<time>2010-07-17T16:18:45Z</time>
<desc>lat.=55.810799, lon.=26.029667, Alt.=165.627075m. Speed=0.360000m/h.</desc>
<speed>0.100000</speed>
</trkpt>
<trkpt lat="55.810795" lon="26.029667">
<ele>165.642700</ele>
<time>2010-07-17T16:18:46Z</time>
<desc>lat.=55.810795, lon.=26.029667, Alt.=165.642700m. Speed=0.252000m/h.</desc>
<speed>0.070000</speed>
</trkpt>
<trkpt lat="55.810795" lon="26.029669">
<ele>165.658325</ele>
<time>2010-07-17T16:18:47Z</time>
<desc>lat.=55.810795, lon.=26.029669, Alt.=165.658325m. Speed=1.944000m/h.</desc>
<speed>0.540000</speed>
</trkpt>
<trkpt lat="55.810795" lon="26.029676">
<ele>165.666138</ele>
<time>2010-07-17T16:18:48Z</time>
<desc>lat.=55.810795, lon.=26.029676, Alt.=165.666138m. Speed=2.808000m/h.</desc>
<speed>0.780000</speed>
</trkpt>
<trkpt lat="55.810795" lon="26.029690">
<ele>165.673950</ele>
<time>2010-07-17T16:18:49Z</time>
<desc>lat.=55.810795, lon.=26.029690, Alt.=165.673950m. Speed=4.248000m/h.</desc>
<speed>1.180000</speed>
</trkpt>
<trkpt lat="55.810783" lon="26.029730">
<ele>165.314575</ele>
<time>2010-07-17T16:18:50Z</time>
<desc>lat.=55.810783, lon.=26.029730, Alt.=165.314575m. Speed=6.084000m/h.</desc>
<speed>1.690000</speed>
</trkpt>
<trkpt lat="55.810768" lon="26.029772">
<ele>165.068481</ele>
<time>2010-07-17T16:18:51Z</time>
<desc>lat.=55.810768, lon.=26.029772, Alt.=165.068481m. Speed=10.260000m/h.</desc>
<speed>2.850000</speed>
</trkpt>
<trkpt lat="55.810745" lon="26.029827">
<ele>164.697388</ele>
<time>2010-07-17T16:18:52Z</time>
<desc>lat.=55.810745, lon.=26.029827, Alt.=164.697388m. Speed=12.924000m/h.</desc>
<speed>3.590000</speed>
</trkpt>
<trkpt lat="55.810719" lon="26.029875">
<ele>164.619263</ele>
<time>2010-07-17T16:18:53Z</time>
<desc>lat.=55.810719, lon.=26.029875, Alt.=164.619263m. Speed=14.472000m/h.</desc>
<speed>4.020000</speed>
</trkpt>
<trkpt lat="55.810699" lon="26.029921">
<ele>164.470825</ele>
<time>2010-07-17T16:18:54Z</time>
<desc>lat.=55.810699, lon.=26.029921, Alt.=164.470825m. Speed=14.976000m/h.</desc>
<speed>4.160000</speed>
</trkpt>
<trkpt lat="55.810677" lon="26.029976">
<ele>164.505981</ele>
<time>2010-07-17T16:18:55Z</time>
<desc>lat.=55.810677, lon.=26.029976, Alt.=164.505981m. Speed=14.472000m/h.</desc>
<speed>4.020000</speed>
</trkpt>
<trkpt lat="55.810650" lon="26.030033">
<ele>164.275513</ele>
<time>2010-07-17T16:18:56Z</time>
<desc>lat.=55.810650, lon.=26.030033, Alt.=164.275513m. Speed=16.452000m/h.</desc>
<speed>4.570000</speed>
</trkpt>
<trkpt lat="55.810619" lon="26.030088">
<ele>164.435669</ele>
<time>2010-07-17T16:18:57Z</time>
<desc>lat.=55.810619, lon.=26.030088, Alt.=164.435669m. Speed=14.400000m/h.</desc>
<speed>4.000000</speed>
</trkpt>
<trkpt lat="55.810593" lon="26.030134">
<ele>164.568481</ele>
<time>2010-07-17T16:18:58Z</time>
<desc>lat.=55.810593, lon.=26.030134, Alt.=164.568481m. Speed=13.824000m/h.</desc>
<speed>3.840000</speed>
</trkpt>
<trkpt lat="55.810570" lon="26.030182">
<ele>164.408325</ele>
<time>2010-07-17T16:18:59Z</time>
<desc>lat.=55.810570, lon.=26.030182, Alt.=164.408325m. Speed=15.768000m/h.</desc>
<speed>4.380000</speed>
</trkpt>
<trkpt lat="55.810547" lon="26.030230">
<ele>164.693481</ele>
<time>2010-07-17T16:19:00Z</time>
<desc>lat.=55.810547, lon.=26.030230, Alt.=164.693481m. Speed=14.472000m/h.</desc>
<speed>4.020000</speed>
</trkpt>
<trkpt lat="55.810528" lon="26.030283">
<ele>165.017700</ele>
<time>2010-07-17T16:19:01Z</time>
<desc>lat.=55.810528, lon.=26.030283, Alt.=165.017700m. Speed=15.372000m/h.</desc>
<speed>4.270000</speed>
</trkpt>
<trkpt lat="55.810501" lon="26.030333">
<ele>164.498169</ele>
<time>2010-07-17T16:19:02Z</time>
<desc>lat.=55.810501, lon.=26.030333, Alt.=164.498169m. Speed=16.271999m/h.</desc>
<speed>4.520000</speed>
</trkpt>
<trkpt lat="55.810474" lon="26.030382">
<ele>165.005981</ele>
<time>2010-07-17T16:19:03Z</time>
<desc>lat.=55.810474, lon.=26.030382, Alt.=165.005981m. Speed=15.912000m/h.</desc>
<speed>4.420000</speed>
</trkpt>
<trkpt lat="55.810448" lon="26.030426">
<ele>165.088013</ele>
<time>2010-07-17T16:19:04Z</time>
<desc>lat.=55.810448, lon.=26.030426, Alt.=165.088013m. Speed=14.760000m/h.</desc>
<speed>4.100000</speed>
</trkpt>
<trkpt lat="55.810421" lon="26.030468">
<ele>165.009888</ele>
<time>2010-07-17T16:19:05Z</time>
<desc>lat.=55.810421, lon.=26.030468, Alt.=165.009888m. Speed=13.032000m/h.</desc>
<speed>3.620000</speed>
</trkpt>
<trkpt lat="55.810398" lon="26.030506">
<ele>164.810669</ele>
<time>2010-07-17T16:19:06Z</time>
<desc>lat.=55.810398, lon.=26.030506, Alt.=164.810669m. Speed=12.348000m/h.</desc>
<speed>3.430000</speed>
</trkpt>
<trkpt lat="55.810371" lon="26.030529">
<ele>164.900513</ele>
<time>2010-07-17T16:19:07Z</time>
<desc>lat.=55.810371, lon.=26.030529, Alt.=164.900513m. Speed=13.320000m/h.</desc>
<speed>3.700000</speed>
</trkpt>
<trkpt lat="55.810349" lon="26.030560">
<ele>164.970825</ele>
<time>2010-07-17T16:19:08Z</time>
<desc>lat.=55.810349, lon.=26.030560, Alt.=164.970825m. Speed=11.232000m/h.</desc>
<speed>3.120000</speed>
</trkpt>
<trkpt lat="55.810329" lon="26.030596">
<ele>165.560669</ele>
<time>2010-07-17T16:19:09Z</time>
<desc>lat.=55.810329, lon.=26.030596, Alt.=165.560669m. Speed=12.384000m/h.</desc>
<speed>3.440000</speed>
</trkpt>
<trkpt lat="55.810303" lon="26.030621">
<ele>165.482544</ele>
<time>2010-07-17T16:19:10Z</time>
<desc>lat.=55.810303, lon.=26.030621, Alt.=165.482544m. Speed=10.368000m/h.</desc>
<speed>2.880000</speed>
</trkpt>
<trkpt lat="55.810284" lon="26.030651">
<ele>165.338013</ele>
<time>2010-07-17T16:19:11Z</time>
<desc>lat.=55.810284, lon.=26.030651, Alt.=165.338013m. Speed=11.232000m/h.</desc>
<speed>3.120000</speed>
</trkpt>
<trkpt lat="55.810265" lon="26.030693">
<ele>164.904419</ele>
<time>2010-07-17T16:19:12Z</time>
<desc>lat.=55.810265, lon.=26.030693, Alt.=164.904419m. Speed=12.276000m/h.</desc>
<speed>3.410000</speed>
</trkpt>
<trkpt lat="55.810246" lon="26.030733">
<ele>164.736450</ele>
<time>2010-07-17T16:19:13Z</time>
<desc>lat.=55.810246, lon.=26.030733, Alt.=164.736450m. Speed=11.844000m/h.</desc>
<speed>3.290000</speed>
</trkpt>
<trkpt lat="55.810230" lon="26.030771">
<ele>164.463013</ele>
<time>2010-07-17T16:19:14Z</time>
<desc>lat.=55.810230, lon.=26.030771, Alt.=164.463013m. Speed=12.492000m/h.</desc>
<speed>3.470000</speed>
</trkpt>
<trkpt lat="55.810215" lon="26.030806">
<ele>164.607544</ele>
<time>2010-07-17T16:19:15Z</time>
<desc>lat.=55.810215, lon.=26.030806, Alt.=164.607544m. Speed=10.512000m/h.</desc>
<speed>2.920000</speed>
</trkpt>
<trkpt lat="55.810192" lon="26.030834">
<ele>164.716919</ele>
<time>2010-07-17T16:19:16Z</time>
<desc>lat.=55.810192, lon.=26.030834, Alt.=164.716919m. Speed=11.664000m/h.</desc>
<speed>3.240000</speed>
</trkpt>
<trkpt lat="55.810158" lon="26.030899">
<ele>165.330200</ele>
<time>2010-07-17T16:19:17Z</time>
<desc>lat.=55.810158, lon.=26.030899, Alt.=165.330200m. Speed=11.844000m/h.</desc>
<speed>3.290000</speed>
</trkpt>
<trkpt lat="55.810116" lon="26.030951">
<ele>165.310669</ele>
<time>2010-07-17T16:19:18Z</time>
<desc>lat.=55.810116, lon.=26.030951, Alt.=165.310669m. Speed=11.520000m/h.</desc>
<speed>3.200000</speed>
</trkpt>
<trkpt lat="55.810085" lon="26.030981">
<ele>165.802856</ele>
<time>2010-07-17T16:19:19Z</time>
<desc>lat.=55.810085, lon.=26.030981, Alt.=165.802856m. Speed=11.304000m/h.</desc>
<speed>3.140000</speed>
</trkpt>
<trkpt lat="55.810055" lon="26.031004">
<ele>165.830200</ele>
<time>2010-07-17T16:19:20Z</time>
<desc>lat.=55.810055, lon.=26.031004, Alt.=165.830200m. Speed=11.304000m/h.</desc>
<speed>3.140000</speed>
</trkpt>
<trkpt lat="55.810040" lon="26.031034">
<ele>167.072388</ele>
<time>2010-07-17T16:19:21Z</time>
<desc>lat.=55.810040, lon.=26.031034, Alt.=167.072388m. Speed=10.044000m/h.</desc>
<speed>2.790000</speed>
</trkpt>
<trkpt lat="55.810020" lon="26.031067">
<ele>167.798950</ele>
<time>2010-07-17T16:19:22Z</time>
<desc>lat.=55.810020, lon.=26.031067, Alt.=167.798950m. Speed=10.908000m/h.</desc>
<speed>3.030000</speed>
</trkpt>
<trkpt lat="55.810001" lon="26.031096">
<ele>168.486450</ele>
<time>2010-07-17T16:19:23Z</time>
<desc>lat.=55.810001, lon.=26.031096, Alt.=168.486450m. Speed=10.152000m/h.</desc>
<speed>2.820000</speed>
</trkpt>
<trkpt lat="55.809986" lon="26.031122">
<ele>169.822388</ele>
<time>2010-07-17T16:19:24Z</time>
<desc>lat.=55.809986, lon.=26.031122, Alt.=169.822388m. Speed=8.784000m/h.</desc>
<speed>2.440000</speed>
</trkpt>
<trkpt lat="55.809971" lon="26.031147">
<ele>170.880981</ele>
<time>2010-07-17T16:19:25Z</time>
<desc>lat.=55.809971, lon.=26.031147, Alt.=170.880981m. Speed=8.532000m/h.</desc>
<speed>2.370000</speed>
</trkpt>
<trkpt lat="55.809956" lon="26.031178">
<ele>173.127075</ele>
<time>2010-07-17T16:19:26Z</time>
<desc>lat.=55.809956, lon.=26.031178, Alt.=173.127075m. Speed=6.840000m/h.</desc>
<speed>1.900000</speed>
</trkpt>
<trkpt lat="55.809944" lon="26.031189">
<ele>173.416138</ele>
<time>2010-07-17T16:19:27Z</time>
<desc>lat.=55.809944, lon.=26.031189, Alt.=173.416138m. Speed=5.472000m/h.</desc>
<speed>1.520000</speed>
</trkpt>
<trkpt lat="55.809937" lon="26.031199">
<ele>173.744263</ele>
<time>2010-07-17T16:19:28Z</time>
<desc>lat.=55.809937, lon.=26.031199, Alt.=173.744263m. Speed=4.572000m/h.</desc>
<speed>1.270000</speed>
</trkpt>
<trkpt lat="55.809910" lon="26.031216">
<ele>176.095825</ele>
<time>2010-07-17T16:19:29Z</time>
<desc>lat.=55.809910, lon.=26.031216, Alt.=176.095825m. Speed=7.416000m/h.</desc>
<speed>2.060000</speed>
</trkpt>
<trkpt lat="55.809902" lon="26.031227">
<ele>176.670044</ele>
<time>2010-07-17T16:19:30Z</time>
<desc>lat.=55.809902, lon.=26.031227, Alt.=176.670044m. Speed=3.348000m/h.</desc>
<speed>0.930000</speed>
</trkpt>
<trkpt lat="55.809895" lon="26.031250">
<ele>177.025513</ele>
<time>2010-07-17T16:19:31Z</time>
<desc>lat.=55.809895, lon.=26.031250, Alt.=177.025513m. Speed=5.400000m/h.</desc>
<speed>1.500000</speed>
</trkpt>
<trkpt lat="55.809887" lon="26.031267">
<ele>177.345825</ele>
<time>2010-07-17T16:19:32Z</time>
<desc>lat.=55.809887, lon.=26.031267, Alt.=177.345825m. Speed=4.752000m/h.</desc>
<speed>1.320000</speed>
</trkpt>
<trkpt lat="55.809883" lon="26.031284">
<ele>177.470825</ele>
<time>2010-07-17T16:19:33Z</time>
<desc>lat.=55.809883, lon.=26.031284, Alt.=177.470825m. Speed=6.228000m/h.</desc>
<speed>1.730000</speed>
</trkpt>
<trkpt lat="55.809872" lon="26.031301">
<ele>178.142700</ele>
<time>2010-07-17T16:19:34Z</time>
<desc>lat.=55.809872, lon.=26.031301, Alt.=178.142700m. Speed=6.912000m/h.</desc>
<speed>1.920000</speed>
</trkpt>
<trkpt lat="55.809860" lon="26.031319">
<ele>178.798950</ele>
<time>2010-07-17T16:19:35Z</time>
<desc>lat.=55.809860, lon.=26.031319, Alt.=178.798950m. Speed=6.012000m/h.</desc>
<speed>1.670000</speed>
</trkpt>
<trkpt lat="55.809853" lon="26.031338">
<ele>179.123169</ele>
<time>2010-07-17T16:19:36Z</time>
<desc>lat.=55.809853, lon.=26.031338, Alt.=179.123169m. Speed=7.992000m/h.</desc>
<speed>2.220000</speed>
</trkpt>
<trkpt lat="55.809841" lon="26.031357">
<ele>179.724731</ele>
<time>2010-07-17T16:19:37Z</time>
<desc>lat.=55.809841, lon.=26.031357, Alt.=179.724731m. Speed=6.480000m/h.</desc>
<speed>1.800000</speed>
</trkpt>
<trkpt lat="55.809807" lon="26.031387">
<ele>179.588013</ele>
<time>2010-07-17T16:19:38Z</time>
<desc>lat.=55.809807, lon.=26.031387, Alt.=179.588013m. Speed=6.084000m/h.</desc>
<speed>1.690000</speed>
</trkpt>
<trkpt lat="55.809792" lon="26.031412">
<ele>179.943481</ele>
<time>2010-07-17T16:19:39Z</time>
<desc>lat.=55.809792, lon.=26.031412, Alt.=179.943481m. Speed=6.804000m/h.</desc>
<speed>1.890000</speed>
</trkpt>
<trkpt lat="55.809769" lon="26.031441">
<ele>180.388794</ele>
<time>2010-07-17T16:19:40Z</time>
<desc>lat.=55.809769, lon.=26.031441, Alt.=180.388794m. Speed=7.452000m/h.</desc>
<speed>2.070000</speed>
</trkpt>
<trkpt lat="55.809738" lon="26.031475">
<ele>179.759888</ele>
<time>2010-07-17T16:19:41Z</time>
<desc>lat.=55.809738, lon.=26.031475, Alt.=179.759888m. Speed=6.588000m/h.</desc>
<speed>1.830000</speed>
</trkpt>
<trkpt lat="55.809719" lon="26.031494">
<ele>180.162231</ele>
<time>2010-07-17T16:19:42Z</time>
<desc>lat.=55.809719, lon.=26.031494, Alt.=180.162231m. Speed=6.984000m/h.</desc>
<speed>1.940000</speed>
</trkpt>
<trkpt lat="55.809704" lon="26.031494">
<ele>179.923950</ele>
<time>2010-07-17T16:19:43Z</time>
<desc>lat.=55.809704, lon.=26.031494, Alt.=179.923950m. Speed=5.580000m/h.</desc>
<speed>1.550000</speed>
</trkpt>
<trkpt lat="55.809681" lon="26.031504">
<ele>180.439575</ele>
<time>2010-07-17T16:19:44Z</time>
<desc>lat.=55.809681, lon.=26.031504, Alt.=180.439575m. Speed=6.876000m/h.</desc>
<speed>1.910000</speed>
</trkpt>
<trkpt lat="55.809662" lon="26.031519">
<ele>181.045044</ele>
<time>2010-07-17T16:19:45Z</time>
<desc>lat.=55.809662, lon.=26.031519, Alt.=181.045044m. Speed=8.640000m/h.</desc>
<speed>2.400000</speed>
</trkpt>
<trkpt lat="55.809639" lon="26.031542">
<ele>181.650513</ele>
<time>2010-07-17T16:19:46Z</time>
<desc>lat.=55.809639, lon.=26.031542, Alt.=181.650513m. Speed=6.624000m/h.</desc>
<speed>1.840000</speed>
</trkpt>
<trkpt lat="55.809624" lon="26.031559">
<ele>182.119263</ele>
<time>2010-07-17T16:19:47Z</time>
<desc>lat.=55.809624, lon.=26.031559, Alt.=182.119263m. Speed=5.688000m/h.</desc>
<speed>1.580000</speed>
</trkpt>
<trkpt lat="55.809612" lon="26.031574">
<ele>182.701294</ele>
<time>2010-07-17T16:19:48Z</time>
<desc>lat.=55.809612, lon.=26.031574, Alt.=182.701294m. Speed=4.824000m/h.</desc>
<speed>1.340000</speed>
</trkpt>
<trkpt lat="55.809597" lon="26.031590">
<ele>183.572388</ele>
<time>2010-07-17T16:19:49Z</time>
<desc>lat.=55.809597, lon.=26.031590, Alt.=183.572388m. Speed=5.796000m/h.</desc>
<speed>1.610000</speed>
</trkpt>
<trkpt lat="55.809582" lon="26.031609">
<ele>183.970825</ele>
<time>2010-07-17T16:19:50Z</time>
<desc>lat.=55.809582, lon.=26.031609, Alt.=183.970825m. Speed=6.840000m/h.</desc>
<speed>1.900000</speed>
</trkpt>
<trkpt lat="55.809563" lon="26.031630">
<ele>184.037231</ele>
<time>2010-07-17T16:19:51Z</time>
<desc>lat.=55.809563, lon.=26.031630, Alt.=184.037231m. Speed=7.236000m/h.</desc>
<speed>2.010000</speed>
</trkpt>
<trkpt lat="55.809547" lon="26.031647">
<ele>184.244263</ele>
<time>2010-07-17T16:19:52Z</time>
<desc>lat.=55.809547, lon.=26.031647, Alt.=184.244263m. Speed=5.652000m/h.</desc>
<speed>1.570000</speed>
</trkpt>
<trkpt lat="55.809532" lon="26.031660">
<ele>184.927856</ele>
<time>2010-07-17T16:19:53Z</time>
<desc>lat.=55.809532, lon.=26.031660, Alt.=184.927856m. Speed=4.788000m/h.</desc>
<speed>1.330000</speed>
</trkpt>
<trkpt lat="55.809521" lon="26.031649">
<ele>184.826294</ele>
<time>2010-07-17T16:19:54Z</time>
<desc>lat.=55.809521, lon.=26.031649, Alt.=184.826294m. Speed=4.608000m/h.</desc>
<speed>1.280000</speed>
</trkpt>
<trkpt lat="55.809513" lon="26.031656">
<ele>185.412231</ele>
<time>2010-07-17T16:19:55Z</time>
<desc>lat.=55.809513, lon.=26.031656, Alt.=185.412231m. Speed=5.112000m/h.</desc>
<speed>1.420000</speed>
</trkpt>
<trkpt lat="55.809505" lon="26.031666">
<ele>185.720825</ele>
<time>2010-07-17T16:19:56Z</time>
<desc>lat.=55.809505, lon.=26.031666, Alt.=185.720825m. Speed=5.184000m/h.</desc>
<speed>1.440000</speed>
</trkpt>
<trkpt lat="55.809490" lon="26.031677">
<ele>186.142700</ele>
<time>2010-07-17T16:19:57Z</time>
<desc>lat.=55.809490, lon.=26.031677, Alt.=186.142700m. Speed=7.020000m/h.</desc>
<speed>1.950000</speed>
</trkpt>
<trkpt lat="55.809483" lon="26.031672">
<ele>186.486450</ele>
<time>2010-07-17T16:19:58Z</time>
<desc>lat.=55.809483, lon.=26.031672, Alt.=186.486450m. Speed=5.292000m/h.</desc>
<speed>1.470000</speed>
</trkpt>
<trkpt lat="55.809471" lon="26.031668">
<ele>186.619263</ele>
<time>2010-07-17T16:19:59Z</time>
<desc>lat.=55.809471, lon.=26.031668, Alt.=186.619263m. Speed=5.148000m/h.</desc>
<speed>1.430000</speed>
</trkpt>
<trkpt lat="55.809456" lon="26.031673">
<ele>186.666138</ele>
<time>2010-07-17T16:20:00Z</time>
<desc>lat.=55.809456, lon.=26.031673, Alt.=186.666138m. Speed=6.840000m/h.</desc>
<speed>1.900000</speed>
</trkpt>
<trkpt lat="55.809444" lon="26.031683">
<ele>187.037231</ele>
<time>2010-07-17T16:20:01Z</time>
<desc>lat.=55.809444, lon.=26.031683, Alt.=187.037231m. Speed=3.780000m/h.</desc>
<speed>1.050000</speed>
</trkpt>
<trkpt lat="55.809418" lon="26.031696">
<ele>186.830200</ele>
<time>2010-07-17T16:20:02Z</time>
<desc>lat.=55.809418, lon.=26.031696, Alt.=186.830200m. Speed=5.688000m/h.</desc>
<speed>1.580000</speed>
</trkpt>
<trkpt lat="55.809399" lon="26.031694">
<ele>186.650513</ele>
<time>2010-07-17T16:20:03Z</time>
<desc>lat.=55.809399, lon.=26.031694, Alt.=186.650513m. Speed=6.804000m/h.</desc>
<speed>1.890000</speed>
</trkpt>
<trkpt lat="55.809391" lon="26.031693">
<ele>186.384888</ele>
<time>2010-07-17T16:20:04Z</time>
<desc>lat.=55.809391, lon.=26.031693, Alt.=186.384888m. Speed=5.472000m/h.</desc>
<speed>1.520000</speed>
</trkpt>
<trkpt lat="55.809357" lon="26.031702">
<ele>185.783325</ele>
<time>2010-07-17T16:20:05Z</time>
<desc>lat.=55.809357, lon.=26.031702, Alt.=185.783325m. Speed=7.164000m/h.</desc>
<speed>1.990000</speed>
</trkpt>
<trkpt lat="55.809341" lon="26.031704">
<ele>186.267700</ele>
<time>2010-07-17T16:20:06Z</time>
<desc>lat.=55.809341, lon.=26.031704, Alt.=186.267700m. Speed=6.876000m/h.</desc>
<speed>1.910000</speed>
</trkpt>
<trkpt lat="55.809322" lon="26.031702">
<ele>186.224731</ele>
<time>2010-07-17T16:20:07Z</time>
<desc>lat.=55.809322, lon.=26.031702, Alt.=186.224731m. Speed=5.760000m/h.</desc>
<speed>1.600000</speed>
</trkpt>
<trkpt lat="55.809319" lon="26.031712">
<ele>186.880981</ele>
<time>2010-07-17T16:20:08Z</time>
<desc>lat.=55.809319, lon.=26.031712, Alt.=186.880981m. Speed=5.040000m/h.</desc>
<speed>1.400000</speed>
</trkpt>
<trkpt lat="55.809303" lon="26.031715">
<ele>187.025513</ele>
<time>2010-07-17T16:20:09Z</time>
<desc>lat.=55.809303, lon.=26.031715, Alt.=187.025513m. Speed=4.752000m/h.</desc>
<speed>1.320000</speed>
</trkpt>
<trkpt lat="55.809288" lon="26.031723">
<ele>187.392700</ele>
<time>2010-07-17T16:20:10Z</time>
<desc>lat.=55.809288, lon.=26.031723, Alt.=187.392700m. Speed=4.212000m/h.</desc>
<speed>1.170000</speed>
</trkpt>
<trkpt lat="55.809277" lon="26.031727">
<ele>187.755981</ele>
<time>2010-07-17T16:20:11Z</time>
<desc>lat.=55.809277, lon.=26.031727, Alt.=187.755981m. Speed=4.320000m/h.</desc>
<speed>1.200000</speed>
</trkpt>
<trkpt lat="55.809258" lon="26.031727">
<ele>188.814575</ele>
<time>2010-07-17T16:20:12Z</time>
<desc>lat.=55.809258, lon.=26.031727, Alt.=188.814575m. Speed=5.040000m/h.</desc>
<speed>1.400000</speed>
</trkpt>
<trkpt lat="55.809246" lon="26.031734">
<ele>189.463013</ele>
<time>2010-07-17T16:20:13Z</time>
<desc>lat.=55.809246, lon.=26.031734, Alt.=189.463013m. Speed=5.328000m/h.</desc>
<speed>1.480000</speed>
</trkpt>
<trkpt lat="55.809235" lon="26.031740">
<ele>189.603638</ele>
<time>2010-07-17T16:20:14Z</time>
<desc>lat.=55.809235, lon.=26.031740, Alt.=189.603638m. Speed=6.696000m/h.</desc>
<speed>1.860000</speed>
</trkpt>
<trkpt lat="55.809208" lon="26.031748">
<ele>189.853638</ele>
<time>2010-07-17T16:20:15Z</time>
<desc>lat.=55.809208, lon.=26.031748, Alt.=189.853638m. Speed=8.280000m/h.</desc>
<speed>2.300000</speed>
</trkpt>
<trkpt lat="55.809185" lon="26.031750">
<ele>190.392700</ele>
<time>2010-07-17T16:20:16Z</time>
<desc>lat.=55.809185, lon.=26.031750, Alt.=190.392700m. Speed=8.028000m/h.</desc>
<speed>2.230000</speed>
</trkpt>
<trkpt lat="55.809166" lon="26.031752">
<ele>190.345825</ele>
<time>2010-07-17T16:20:17Z</time>
<desc>lat.=55.809166, lon.=26.031752, Alt.=190.345825m. Speed=5.436000m/h.</desc>
<speed>1.510000</speed>
</trkpt>
<trkpt lat="55.809151" lon="26.031755">
<ele>190.248169</ele>
<time>2010-07-17T16:20:18Z</time>
<desc>lat.=55.809151, lon.=26.031755, Alt.=190.248169m. Speed=4.356000m/h.</desc>
<speed>1.210000</speed>
</trkpt>
<trkpt lat="55.809132" lon="26.031769">
<ele>189.884888</ele>
<time>2010-07-17T16:20:19Z</time>
<desc>lat.=55.809132, lon.=26.031769, Alt.=189.884888m. Speed=4.320000m/h.</desc>
<speed>1.200000</speed>
</trkpt>
<trkpt lat="55.809124" lon="26.031775">
<ele>189.615356</ele>
<time>2010-07-17T16:20:20Z</time>
<desc>lat.=55.809124, lon.=26.031775, Alt.=189.615356m. Speed=2.448000m/h.</desc>
<speed>0.680000</speed>
</trkpt>
<trkpt lat="55.809109" lon="26.031773">
<ele>189.548950</ele>
<time>2010-07-17T16:20:21Z</time>
<desc>lat.=55.809109, lon.=26.031773, Alt.=189.548950m. Speed=3.996000m/h.</desc>
<speed>1.110000</speed>
</trkpt>
<trkpt lat="55.809097" lon="26.031775">
<ele>189.396606</ele>
<time>2010-07-17T16:20:22Z</time>
<desc>lat.=55.809097, lon.=26.031775, Alt.=189.396606m. Speed=4.320000m/h.</desc>
<speed>1.200000</speed>
</trkpt>
<trkpt lat="55.809086" lon="26.031776">
<ele>189.533325</ele>
<time>2010-07-17T16:20:23Z</time>
<desc>lat.=55.809086, lon.=26.031776, Alt.=189.533325m. Speed=4.608000m/h.</desc>
<speed>1.280000</speed>
</trkpt>
<trkpt lat="55.809074" lon="26.031784">
<ele>189.732544</ele>
<time>2010-07-17T16:20:24Z</time>
<desc>lat.=55.809074, lon.=26.031784, Alt.=189.732544m. Speed=4.968000m/h.</desc>
<speed>1.380000</speed>
</trkpt>
<trkpt lat="55.809074" lon="26.031784">
<ele>189.517700</ele>
<time>2010-07-17T16:20:25Z</time>
<desc>lat.=55.809074, lon.=26.031784, Alt.=189.517700m. Speed=4.212000m/h.</desc>
<speed>1.170000</speed>
</trkpt>
<trkpt lat="55.809063" lon="26.031786">
<ele>189.572388</ele>
<time>2010-07-17T16:20:26Z</time>
<desc>lat.=55.809063, lon.=26.031786, Alt.=189.572388m. Speed=4.320000m/h.</desc>
<speed>1.200000</speed>
</trkpt>
<trkpt lat="55.809048" lon="26.031788">
<ele>189.853638</ele>
<time>2010-07-17T16:20:27Z</time>
<desc>lat.=55.809048, lon.=26.031788, Alt.=189.853638m. Speed=5.940000m/h.</desc>
<speed>1.650000</speed>
</trkpt>
<trkpt lat="55.809032" lon="26.031790">
<ele>190.095825</ele>
<time>2010-07-17T16:20:28Z</time>
<desc>lat.=55.809032, lon.=26.031790, Alt.=190.095825m. Speed=6.156000m/h.</desc>
<speed>1.710000</speed>
</trkpt>
<trkpt lat="55.809017" lon="26.031792">
<ele>190.345825</ele>
<time>2010-07-17T16:20:29Z</time>
<desc>lat.=55.809017, lon.=26.031792, Alt.=190.345825m. Speed=5.112000m/h.</desc>
<speed>1.420000</speed>
</trkpt>
<trkpt lat="55.809006" lon="26.031790">
<ele>190.634888</ele>
<time>2010-07-17T16:20:30Z</time>
<desc>lat.=55.809006, lon.=26.031790, Alt.=190.634888m. Speed=4.428000m/h.</desc>
<speed>1.230000</speed>
</trkpt>
<trkpt lat="55.808994" lon="26.031788">
<ele>190.888794</ele>
<time>2010-07-17T16:20:31Z</time>
<desc>lat.=55.808994, lon.=26.031788, Alt.=190.888794m. Speed=5.400000m/h.</desc>
<speed>1.500000</speed>
</trkpt>
<trkpt lat="55.808979" lon="26.031790">
<ele>191.064575</ele>
<time>2010-07-17T16:20:32Z</time>
<desc>lat.=55.808979, lon.=26.031790, Alt.=191.064575m. Speed=5.184000m/h.</desc>
<speed>1.440000</speed>
</trkpt>
<trkpt lat="55.808968" lon="26.031784">
<ele>191.267700</ele>
<time>2010-07-17T16:20:33Z</time>
<desc>lat.=55.808968, lon.=26.031784, Alt.=191.267700m. Speed=5.292000m/h.</desc>
<speed>1.470000</speed>
</trkpt>
<trkpt lat="55.808949" lon="26.031778">
<ele>191.498169</ele>
<time>2010-07-17T16:20:34Z</time>
<desc>lat.=55.808949, lon.=26.031778, Alt.=191.498169m. Speed=6.588000m/h.</desc>
<speed>1.830000</speed>
</trkpt>
<trkpt lat="55.808929" lon="26.031773">
<ele>191.619263</ele>
<time>2010-07-17T16:20:35Z</time>
<desc>lat.=55.808929, lon.=26.031773, Alt.=191.619263m. Speed=6.984000m/h.</desc>
<speed>1.940000</speed>
</trkpt>
<trkpt lat="55.808910" lon="26.031776">
<ele>191.556763</ele>
<time>2010-07-17T16:20:36Z</time>
<desc>lat.=55.808910, lon.=26.031776, Alt.=191.556763m. Speed=6.408000m/h.</desc>
<speed>1.780000</speed>
</trkpt>
<trkpt lat="55.808887" lon="26.031769">
<ele>191.763794</ele>
<time>2010-07-17T16:20:37Z</time>
<desc>lat.=55.808887, lon.=26.031769, Alt.=191.763794m. Speed=7.884000m/h.</desc>
<speed>2.190000</speed>
</trkpt>
<trkpt lat="55.808865" lon="26.031761">
<ele>191.990356</ele>
<time>2010-07-17T16:20:38Z</time>
<desc>lat.=55.808865, lon.=26.031761, Alt.=191.990356m. Speed=7.308000m/h.</desc>
<speed>2.030000</speed>
</trkpt>
<trkpt lat="55.808842" lon="26.031757">
<ele>192.248169</ele>
<time>2010-07-17T16:20:39Z</time>
<desc>lat.=55.808842, lon.=26.031757, Alt.=192.248169m. Speed=8.316000m/h.</desc>
<speed>2.310000</speed>
</trkpt>
<trkpt lat="55.808823" lon="26.031757">
<ele>192.513794</ele>
<time>2010-07-17T16:20:40Z</time>
<desc>lat.=55.808823, lon.=26.031757, Alt.=192.513794m. Speed=8.388000m/h.</desc>
<speed>2.330000</speed>
</trkpt>
<trkpt lat="55.808800" lon="26.031759">
<ele>192.748169</ele>
<time>2010-07-17T16:20:41Z</time>
<desc>lat.=55.808800, lon.=26.031759, Alt.=192.748169m. Speed=8.568000m/h.</desc>
<speed>2.380000</speed>
</trkpt>
<trkpt lat="55.808781" lon="26.031752">
<ele>193.021606</ele>
<time>2010-07-17T16:20:42Z</time>
<desc>lat.=55.808781, lon.=26.031752, Alt.=193.021606m. Speed=8.640000m/h.</desc>
<speed>2.400000</speed>
</trkpt>
<trkpt lat="55.808758" lon="26.031738">
<ele>193.334106</ele>
<time>2010-07-17T16:20:43Z</time>
<desc>lat.=55.808758, lon.=26.031738, Alt.=193.334106m. Speed=9.972000m/h.</desc>
<speed>2.770000</speed>
</trkpt>
<trkpt lat="55.808731" lon="26.031725">
<ele>193.607544</ele>
<time>2010-07-17T16:20:44Z</time>
<desc>lat.=55.808731, lon.=26.031725, Alt.=193.607544m. Speed=10.944000m/h.</desc>
<speed>3.040000</speed>
</trkpt>
<trkpt lat="55.808674" lon="26.031719">
<ele>193.443481</ele>
<time>2010-07-17T16:20:45Z</time>
<desc>lat.=55.808674, lon.=26.031719, Alt.=193.443481m. Speed=9.324000m/h.</desc>
<speed>2.590000</speed>
</trkpt>
<trkpt lat="55.808647" lon="26.031700">
<ele>193.552856</ele>
<time>2010-07-17T16:20:46Z</time>
<desc>lat.=55.808647, lon.=26.031700, Alt.=193.552856m. Speed=9.576000m/h.</desc>
<speed>2.660000</speed>
</trkpt>
<trkpt lat="55.808628" lon="26.031685">
<ele>193.728638</ele>
<time>2010-07-17T16:20:47Z</time>
<desc>lat.=55.808628, lon.=26.031685, Alt.=193.728638m. Speed=8.064000m/h.</desc>
<speed>2.240000</speed>
</trkpt>
<trkpt lat="55.808609" lon="26.031673">
<ele>193.857544</ele>
<time>2010-07-17T16:20:48Z</time>
<desc>lat.=55.808609, lon.=26.031673, Alt.=193.857544m. Speed=8.748000m/h.</desc>
<speed>2.430000</speed>
</trkpt>
<trkpt lat="55.808582" lon="26.031660">
<ele>194.021606</ele>
<time>2010-07-17T16:20:49Z</time>
<desc>lat.=55.808582, lon.=26.031660, Alt.=194.021606m. Speed=10.476000m/h.</desc>
<speed>2.910000</speed>
</trkpt>
<trkpt lat="55.808556" lon="26.031645">
<ele>194.142700</ele>
<time>2010-07-17T16:20:50Z</time>
<desc>lat.=55.808556, lon.=26.031645, Alt.=194.142700m. Speed=10.944000m/h.</desc>
<speed>3.040000</speed>
</trkpt>
<trkpt lat="55.808525" lon="26.031631">
<ele>194.248169</ele>
<time>2010-07-17T16:20:51Z</time>
<desc>lat.=55.808525, lon.=26.031631, Alt.=194.248169m. Speed=9.288000m/h.</desc>
<speed>2.580000</speed>
</trkpt>
<trkpt lat="55.808498" lon="26.031614">
<ele>194.361450</ele>
<time>2010-07-17T16:20:52Z</time>
<desc>lat.=55.808498, lon.=26.031614, Alt.=194.361450m. Speed=9.864000m/h.</desc>
<speed>2.740000</speed>
</trkpt>
<trkpt lat="55.808460" lon="26.031584">
<ele>194.466919</ele>
<time>2010-07-17T16:20:53Z</time>
<desc>lat.=55.808460, lon.=26.031584, Alt.=194.466919m. Speed=12.708000m/h.</desc>
<speed>3.530000</speed>
</trkpt>
<trkpt lat="55.808430" lon="26.031561">
<ele>194.634888</ele>
<time>2010-07-17T16:20:54Z</time>
<desc>lat.=55.808430, lon.=26.031561, Alt.=194.634888m. Speed=11.520000m/h.</desc>
<speed>3.200000</speed>
</trkpt>
<trkpt lat="55.808403" lon="26.031530">
<ele>194.068481</ele>
<time>2010-07-17T16:20:55Z</time>
<desc>lat.=55.808403, lon.=26.031530, Alt.=194.068481m. Speed=11.664000m/h.</desc>
<speed>3.240000</speed>
</trkpt>
<trkpt lat="55.808376" lon="26.031504">
<ele>193.736450</ele>
<time>2010-07-17T16:20:56Z</time>
<desc>lat.=55.808376, lon.=26.031504, Alt.=193.736450m. Speed=12.492000m/h.</desc>
<speed>3.470000</speed>
</trkpt>
<trkpt lat="55.808350" lon="26.031473">
<ele>193.396606</ele>
<time>2010-07-17T16:20:57Z</time>
<desc>lat.=55.808350, lon.=26.031473, Alt.=193.396606m. Speed=13.536000m/h.</desc>
<speed>3.760000</speed>
</trkpt>
<trkpt lat="55.808300" lon="26.031429">
<ele>193.365356</ele>
<time>2010-07-17T16:20:58Z</time>
<desc>lat.=55.808300, lon.=26.031429, Alt.=193.365356m. Speed=17.136000m/h.</desc>
<speed>4.760000</speed>
</trkpt>
<trkpt lat="55.808258" lon="26.031391">
<ele>193.365356</ele>
<time>2010-07-17T16:20:59Z</time>
<desc>lat.=55.808258, lon.=26.031391, Alt.=193.365356m. Speed=15.984000m/h.</desc>
<speed>4.440000</speed>
</trkpt>
<trkpt lat="55.808224" lon="26.031353">
<ele>193.314575</ele>
<time>2010-07-17T16:21:00Z</time>
<desc>lat.=55.808224, lon.=26.031353, Alt.=193.314575m. Speed=15.372000m/h.</desc>
<speed>4.270000</speed>
</trkpt>
<trkpt lat="55.808189" lon="26.031319">
<ele>193.384888</ele>
<time>2010-07-17T16:21:01Z</time>
<desc>lat.=55.808189, lon.=26.031319, Alt.=193.384888m. Speed=15.048000m/h.</desc>
<speed>4.180000</speed>
</trkpt>
<trkpt lat="55.808147" lon="26.031282">
<ele>193.205200</ele>
<time>2010-07-17T16:21:02Z</time>
<desc>lat.=55.808147, lon.=26.031282, Alt.=193.205200m. Speed=16.236000m/h.</desc>
<speed>4.510000</speed>
</trkpt>
<trkpt lat="55.808109" lon="26.031250">
<ele>193.345825</ele>
<time>2010-07-17T16:21:03Z</time>
<desc>lat.=55.808109, lon.=26.031250, Alt.=193.345825m. Speed=16.632000m/h.</desc>
<speed>4.620000</speed>
</trkpt>
<trkpt lat="55.808067" lon="26.031214">
<ele>193.513794</ele>
<time>2010-07-17T16:21:04Z</time>
<desc>lat.=55.808067, lon.=26.031214, Alt.=193.513794m. Speed=17.532000m/h.</desc>
<speed>4.870000</speed>
</trkpt>
<trkpt lat="55.808025" lon="26.031179">
<ele>193.627075</ele>
<time>2010-07-17T16:21:05Z</time>
<desc>lat.=55.808025, lon.=26.031179, Alt.=193.627075m. Speed=18.936001m/h.</desc>
<speed>5.260000</speed>
</trkpt>
<trkpt lat="55.807980" lon="26.031141">
<ele>193.736450</ele>
<time>2010-07-17T16:21:06Z</time>
<desc>lat.=55.807980, lon.=26.031141, Alt.=193.736450m. Speed=19.764000m/h.</desc>
<speed>5.490000</speed>
</trkpt>
<trkpt lat="55.807934" lon="26.031111">
<ele>193.810669</ele>
<time>2010-07-17T16:21:07Z</time>
<desc>lat.=55.807934, lon.=26.031111, Alt.=193.810669m. Speed=17.136000m/h.</desc>
<speed>4.760000</speed>
</trkpt>
<trkpt lat="55.807892" lon="26.031075">
<ele>194.103638</ele>
<time>2010-07-17T16:21:08Z</time>
<desc>lat.=55.807892, lon.=26.031075, Alt.=194.103638m. Speed=17.208000m/h.</desc>
<speed>4.780000</speed>
</trkpt>
<trkpt lat="55.807865" lon="26.031046">
<ele>194.095825</ele>
<time>2010-07-17T16:21:09Z</time>
<desc>lat.=55.807865, lon.=26.031046, Alt.=194.095825m. Speed=12.276000m/h.</desc>
<speed>3.410000</speed>
</trkpt>
<trkpt lat="55.807846" lon="26.031013">
<ele>193.779419</ele>
<time>2010-07-17T16:21:10Z</time>
<desc>lat.=55.807846, lon.=26.031013, Alt.=193.779419m. Speed=11.952000m/h.</desc>
<speed>3.320000</speed>
</trkpt>
<trkpt lat="55.807816" lon="26.030979">
<ele>193.701294</ele>
<time>2010-07-17T16:21:11Z</time>
<desc>lat.=55.807816, lon.=26.030979, Alt.=193.701294m. Speed=14.292000m/h.</desc>
<speed>3.970000</speed>
</trkpt>
<trkpt lat="55.807774" lon="26.030943">
<ele>194.119263</ele>
<time>2010-07-17T16:21:12Z</time>
<desc>lat.=55.807774, lon.=26.030943, Alt.=194.119263m. Speed=15.084000m/h.</desc>
<speed>4.190000</speed>
</trkpt>
<trkpt lat="55.807739" lon="26.030916">
<ele>194.127075</ele>
<time>2010-07-17T16:21:13Z</time>
<desc>lat.=55.807739, lon.=26.030916, Alt.=194.127075m. Speed=13.716000m/h.</desc>
<speed>3.810000</speed>
</trkpt>
<trkpt lat="55.807705" lon="26.030891">
<ele>194.650513</ele>
<time>2010-07-17T16:21:14Z</time>
<desc>lat.=55.807705, lon.=26.030891, Alt.=194.650513m. Speed=13.536000m/h.</desc>
<speed>3.760000</speed>
</trkpt>
<trkpt lat="55.807674" lon="26.030869">
<ele>194.806763</ele>
<time>2010-07-17T16:21:15Z</time>
<desc>lat.=55.807674, lon.=26.030869, Alt.=194.806763m. Speed=13.644000m/h.</desc>
<speed>3.790000</speed>
</trkpt>
<trkpt lat="55.807644" lon="26.030842">
<ele>194.603638</ele>
<time>2010-07-17T16:21:16Z</time>
<desc>lat.=55.807644, lon.=26.030842, Alt.=194.603638m. Speed=15.084000m/h.</desc>
<speed>4.190000</speed>
</trkpt>
<trkpt lat="55.807610" lon="26.030811">
<ele>194.623169</ele>
<time>2010-07-17T16:21:17Z</time>
<desc>lat.=55.807610, lon.=26.030811, Alt.=194.623169m. Speed=14.652000m/h.</desc>
<speed>4.070000</speed>
</trkpt>
<trkpt lat="55.807575" lon="26.030777">
<ele>194.814575</ele>
<time>2010-07-17T16:21:18Z</time>
<desc>lat.=55.807575, lon.=26.030777, Alt.=194.814575m. Speed=14.436000m/h.</desc>
<speed>4.010000</speed>
</trkpt>
<trkpt lat="55.807545" lon="26.030743">
<ele>194.638794</ele>
<time>2010-07-17T16:21:19Z</time>
<desc>lat.=55.807545, lon.=26.030743, Alt.=194.638794m. Speed=14.940000m/h.</desc>
<speed>4.150000</speed>
</trkpt>
<trkpt lat="55.807499" lon="26.030706">
<ele>193.541138</ele>
<time>2010-07-17T16:21:20Z</time>
<desc>lat.=55.807499, lon.=26.030706, Alt.=193.541138m. Speed=14.976000m/h.</desc>
<speed>4.160000</speed>
</trkpt>
<trkpt lat="55.807465" lon="26.030670">
<ele>193.115356</ele>
<time>2010-07-17T16:21:21Z</time>
<desc>lat.=55.807465, lon.=26.030670, Alt.=193.115356m. Speed=14.616000m/h.</desc>
<speed>4.060000</speed>
</trkpt>
<trkpt lat="55.807430" lon="26.030638">
<ele>193.045044</ele>
<time>2010-07-17T16:21:22Z</time>
<desc>lat.=55.807430, lon.=26.030638, Alt.=193.045044m. Speed=14.148000m/h.</desc>
<speed>3.930000</speed>
</trkpt>
<trkpt lat="55.807392" lon="26.030603">
<ele>192.904419</ele>
<time>2010-07-17T16:21:23Z</time>
<desc>lat.=55.807392, lon.=26.030603, Alt.=192.904419m. Speed=15.768000m/h.</desc>
<speed>4.380000</speed>
</trkpt>
<trkpt lat="55.807350" lon="26.030567">
<ele>192.869263</ele>
<time>2010-07-17T16:21:24Z</time>
<desc>lat.=55.807350, lon.=26.030567, Alt.=192.869263m. Speed=16.848000m/h.</desc>
<speed>4.680000</speed>
</trkpt>
<trkpt lat="55.807304" lon="26.030533">
<ele>192.908325</ele>
<time>2010-07-17T16:21:25Z</time>
<desc>lat.=55.807304, lon.=26.030533, Alt.=192.908325m. Speed=18.072001m/h.</desc>
<speed>5.020000</speed>
</trkpt>
<trkpt lat="55.807259" lon="26.030497">
<ele>192.806763</ele>
<time>2010-07-17T16:21:26Z</time>
<desc>lat.=55.807259, lon.=26.030497, Alt.=192.806763m. Speed=18.252001m/h.</desc>
<speed>5.070000</speed>
</trkpt>
<trkpt lat="55.807217" lon="26.030457">
<ele>192.638794</ele>
<time>2010-07-17T16:21:27Z</time>
<desc>lat.=55.807217, lon.=26.030457, Alt.=192.638794m. Speed=18.216000m/h.</desc>
<speed>5.060000</speed>
</trkpt>
<trkpt lat="55.807167" lon="26.030411">
<ele>192.603638</ele>
<time>2010-07-17T16:21:28Z</time>
<desc>lat.=55.807167, lon.=26.030411, Alt.=192.603638m. Speed=19.728001m/h.</desc>
<speed>5.480000</speed>
</trkpt>
<trkpt lat="55.807121" lon="26.030369">
<ele>192.478638</ele>
<time>2010-07-17T16:21:29Z</time>
<desc>lat.=55.807121, lon.=26.030369, Alt.=192.478638m. Speed=19.403999m/h.</desc>
<speed>5.390000</speed>
</trkpt>
<trkpt lat="55.807072" lon="26.030319">
<ele>192.365356</ele>
<time>2010-07-17T16:21:30Z</time>
<desc>lat.=55.807072, lon.=26.030319, Alt.=192.365356m. Speed=20.988001m/h.</desc>
<speed>5.830000</speed>
</trkpt>
<trkpt lat="55.807018" lon="26.030270">
<ele>192.322388</ele>
<time>2010-07-17T16:21:31Z</time>
<desc>lat.=55.807018, lon.=26.030270, Alt.=192.322388m. Speed=22.680000m/h.</desc>
<speed>6.300000</speed>
</trkpt>
<trkpt lat="55.806965" lon="26.030230">
<ele>192.298950</ele>
<time>2010-07-17T16:21:32Z</time>
<desc>lat.=55.806965, lon.=26.030230, Alt.=192.298950m. Speed=23.256001m/h.</desc>
<speed>6.460000</speed>
</trkpt>
<trkpt lat="55.806911" lon="26.030180">
<ele>192.224731</ele>
<time>2010-07-17T16:21:33Z</time>
<desc>lat.=55.806911, lon.=26.030180, Alt.=192.224731m. Speed=23.724001m/h.</desc>
<speed>6.590000</speed>
</trkpt>
<trkpt lat="55.806858" lon="26.030125">
<ele>192.158325</ele>
<time>2010-07-17T16:21:34Z</time>
<desc>lat.=55.806858, lon.=26.030125, Alt.=192.158325m. Speed=24.444000m/h.</desc>
<speed>6.790000</speed>
</trkpt>
<trkpt lat="55.806797" lon="26.030071">
<ele>192.013794</ele>
<time>2010-07-17T16:21:35Z</time>
<desc>lat.=55.806797, lon.=26.030071, Alt.=192.013794m. Speed=24.336000m/h.</desc>
<speed>6.760000</speed>
</trkpt>
<trkpt lat="55.806744" lon="26.030020">
<ele>191.982544</ele>
<time>2010-07-17T16:21:36Z</time>
<desc>lat.=55.806744, lon.=26.030020, Alt.=191.982544m. Speed=23.796000m/h.</desc>
<speed>6.610000</speed>
</trkpt>
<trkpt lat="55.806683" lon="26.029961">
<ele>191.935669</ele>
<time>2010-07-17T16:21:37Z</time>
<desc>lat.=55.806683, lon.=26.029961, Alt.=191.935669m. Speed=27.323999m/h.</desc>
<speed>7.590000</speed>
</trkpt>
<trkpt lat="55.806618" lon="26.029902">
<ele>191.783325</ele>
<time>2010-07-17T16:21:38Z</time>
<desc>lat.=55.806618, lon.=26.029902, Alt.=191.783325m. Speed=28.368000m/h.</desc>
<speed>7.880000</speed>
</trkpt>
<trkpt lat="55.806557" lon="26.029833">
<ele>191.591919</ele>
<time>2010-07-17T16:21:39Z</time>
<desc>lat.=55.806557, lon.=26.029833, Alt.=191.591919m. Speed=27.900000m/h.</desc>
<speed>7.750000</speed>
</trkpt>
<trkpt lat="55.806484" lon="26.029766">
<ele>191.369263</ele>
<time>2010-07-17T16:21:40Z</time>
<desc>lat.=55.806484, lon.=26.029766, Alt.=191.369263m. Speed=29.195999m/h.</desc>
<speed>8.110000</speed>
</trkpt>
<trkpt lat="55.806412" lon="26.029697">
<ele>191.080200</ele>
<time>2010-07-17T16:21:41Z</time>
<desc>lat.=55.806412, lon.=26.029697, Alt.=191.080200m. Speed=30.384001m/h.</desc>
<speed>8.440000</speed>
</trkpt>
<trkpt lat="55.806335" lon="26.029627">
<ele>190.818481</ele>
<time>2010-07-17T16:21:42Z</time>
<desc>lat.=55.806335, lon.=26.029627, Alt.=190.818481m. Speed=32.543999m/h.</desc>
<speed>9.040000</speed>
</trkpt>
<trkpt lat="55.806259" lon="26.029556">
<ele>190.603638</ele>
<time>2010-07-17T16:21:43Z</time>
<desc>lat.=55.806259, lon.=26.029556, Alt.=190.603638m. Speed=33.048000m/h.</desc>
<speed>9.180000</speed>
</trkpt>
<trkpt lat="55.806183" lon="26.029482">
<ele>190.443481</ele>
<time>2010-07-17T16:21:44Z</time>
<desc>lat.=55.806183, lon.=26.029482, Alt.=190.443481m. Speed=34.667999m/h.</desc>
<speed>9.630000</speed>
</trkpt>
<trkpt lat="55.806107" lon="26.029404">
<ele>190.216919</ele>
<time>2010-07-17T16:21:45Z</time>
<desc>lat.=55.806107, lon.=26.029404, Alt.=190.216919m. Speed=34.596001m/h.</desc>
<speed>9.610000</speed>
</trkpt>
<trkpt lat="55.806023" lon="26.029329">
<ele>189.916138</ele>
<time>2010-07-17T16:21:46Z</time>
<desc>lat.=55.806023, lon.=26.029329, Alt.=189.916138m. Speed=37.043999m/h.</desc>
<speed>10.290000</speed>
</trkpt>
<trkpt lat="55.805931" lon="26.029261">
<ele>189.595825</ele>
<time>2010-07-17T16:21:47Z</time>
<desc>lat.=55.805931, lon.=26.029261, Alt.=189.595825m. Speed=38.124001m/h.</desc>
<speed>10.590000</speed>
</trkpt>
<trkpt lat="55.805847" lon="26.029194">
<ele>189.298950</ele>
<time>2010-07-17T16:21:48Z</time>
<desc>lat.=55.805847, lon.=26.029194, Alt.=189.298950m. Speed=36.540001m/h.</desc>
<speed>10.150000</speed>
</trkpt>
<trkpt lat="55.805763" lon="26.029131">
<ele>188.931763</ele>
<time>2010-07-17T16:21:49Z</time>
<desc>lat.=55.805763, lon.=26.029131, Alt.=188.931763m. Speed=37.080002m/h.</desc>
<speed>10.300001</speed>
</trkpt>
<trkpt lat="55.805668" lon="26.029057">
<ele>188.834106</ele>
<time>2010-07-17T16:21:50Z</time>
<desc>lat.=55.805668, lon.=26.029057, Alt.=188.834106m. Speed=38.484001m/h.</desc>
<speed>10.690000</speed>
</trkpt>
<trkpt lat="55.805584" lon="26.028994">
<ele>188.400513</ele>
<time>2010-07-17T16:21:51Z</time>
<desc>lat.=55.805584, lon.=26.028994, Alt.=188.400513m. Speed=39.096001m/h.</desc>
<speed>10.860000</speed>
</trkpt>
<trkpt lat="55.805489" lon="26.028933">
<ele>187.978638</ele>
<time>2010-07-17T16:21:52Z</time>
<desc>lat.=55.805489, lon.=26.028933, Alt.=187.978638m. Speed=40.139999m/h.</desc>
<speed>11.150000</speed>
</trkpt>
<trkpt lat="55.805393" lon="26.028868">
<ele>187.615356</ele>
<time>2010-07-17T16:21:53Z</time>
<desc>lat.=55.805393, lon.=26.028868, Alt.=187.615356m. Speed=40.391998m/h.</desc>
<speed>11.220000</speed>
</trkpt>
<trkpt lat="55.805298" lon="26.028816">
<ele>187.197388</ele>
<time>2010-07-17T16:21:54Z</time>
<desc>lat.=55.805298, lon.=26.028816, Alt.=187.197388m. Speed=40.391998m/h.</desc>
<speed>11.220000</speed>
</trkpt>
<trkpt lat="55.805202" lon="26.028757">
<ele>186.845825</ele>
<time>2010-07-17T16:21:55Z</time>
<desc>lat.=55.805202, lon.=26.028757, Alt.=186.845825m. Speed=39.779999m/h.</desc>
<speed>11.050000</speed>
</trkpt>
<trkpt lat="55.805111" lon="26.028694">
<ele>186.537231</ele>
<time>2010-07-17T16:21:56Z</time>
<desc>lat.=55.805111, lon.=26.028694, Alt.=186.537231m. Speed=39.528000m/h.</desc>
<speed>10.980000</speed>
</trkpt>
<trkpt lat="55.805012" lon="26.028622">
<ele>186.127075</ele>
<time>2010-07-17T16:21:57Z</time>
<desc>lat.=55.805012, lon.=26.028622, Alt.=186.127075m. Speed=40.787998m/h.</desc>
<speed>11.329999</speed>
</trkpt>
<trkpt lat="55.804924" lon="26.028549">
<ele>185.713013</ele>
<time>2010-07-17T16:21:58Z</time>
<desc>lat.=55.804924, lon.=26.028549, Alt.=185.713013m. Speed=40.787998m/h.</desc>
<speed>11.329999</speed>
</trkpt>
<trkpt lat="55.804844" lon="26.028461">
<ele>184.986450</ele>
<time>2010-07-17T16:21:59Z</time>
<desc>lat.=55.804844, lon.=26.028461, Alt.=184.986450m. Speed=39.816002m/h.</desc>
<speed>11.060001</speed>
</trkpt>
<trkpt lat="55.804749" lon="26.028387">
<ele>184.619263</ele>
<time>2010-07-17T16:22:00Z</time>
<desc>lat.=55.804749, lon.=26.028387, Alt.=184.619263m. Speed=40.571999m/h.</desc>
<speed>11.270000</speed>
</trkpt>
<trkpt lat="55.804653" lon="26.028311">
<ele>184.111450</ele>
<time>2010-07-17T16:22:01Z</time>
<desc>lat.=55.804653, lon.=26.028311, Alt.=184.111450m. Speed=41.147999m/h.</desc>
<speed>11.430000</speed>
</trkpt>
<trkpt lat="55.804554" lon="26.028233">
<ele>183.615356</ele>
<time>2010-07-17T16:22:02Z</time>
<desc>lat.=55.804554, lon.=26.028233, Alt.=183.615356m. Speed=42.155998m/h.</desc>
<speed>11.710000</speed>
</trkpt>
<trkpt lat="55.804459" lon="26.028151">
<ele>183.283325</ele>
<time>2010-07-17T16:22:03Z</time>
<desc>lat.=55.804459, lon.=26.028151, Alt.=183.283325m. Speed=42.731998m/h.</desc>
<speed>11.870000</speed>
</trkpt>
<trkpt lat="55.804363" lon="26.028061">
<ele>182.834106</ele>
<time>2010-07-17T16:22:04Z</time>
<desc>lat.=55.804363, lon.=26.028061, Alt.=182.834106m. Speed=43.236000m/h.</desc>
<speed>12.010000</speed>
</trkpt>
<trkpt lat="55.804268" lon="26.027967">
<ele>182.498169</ele>
<time>2010-07-17T16:22:05Z</time>
<desc>lat.=55.804268, lon.=26.027967, Alt.=182.498169m. Speed=42.084000m/h.</desc>
<speed>11.690000</speed>
</trkpt>
<trkpt lat="55.804165" lon="26.027885">
<ele>181.955200</ele>
<time>2010-07-17T16:22:06Z</time>
<desc>lat.=55.804165, lon.=26.027885, Alt.=181.955200m. Speed=43.271999m/h.</desc>
<speed>12.020000</speed>
</trkpt>
<trkpt lat="55.804070" lon="26.027796">
<ele>181.420044</ele>
<time>2010-07-17T16:22:07Z</time>
<desc>lat.=55.804070, lon.=26.027796, Alt.=181.420044m. Speed=43.703999m/h.</desc>
<speed>12.140000</speed>
</trkpt>
<trkpt lat="55.803967" lon="26.027702">
<ele>180.767700</ele>
<time>2010-07-17T16:22:08Z</time>
<desc>lat.=55.803967, lon.=26.027702, Alt.=180.767700m. Speed=43.919998m/h.</desc>
<speed>12.199999</speed>
</trkpt>
<trkpt lat="55.803871" lon="26.027605">
<ele>180.283325</ele>
<time>2010-07-17T16:22:09Z</time>
<desc>lat.=55.803871, lon.=26.027605, Alt.=180.283325m. Speed=43.956001m/h.</desc>
<speed>12.210000</speed>
</trkpt>
<trkpt lat="55.803768" lon="26.027494">
<ele>179.826294</ele>
<time>2010-07-17T16:22:10Z</time>
<desc>lat.=55.803768, lon.=26.027494, Alt.=179.826294m. Speed=47.484001m/h.</desc>
<speed>13.190000</speed>
</trkpt>
<trkpt lat="55.803665" lon="26.027388">
<ele>179.338013</ele>
<time>2010-07-17T16:22:11Z</time>
<desc>lat.=55.803665, lon.=26.027388, Alt.=179.338013m. Speed=46.980000m/h.</desc>
<speed>13.050000</speed>
</trkpt>
<trkpt lat="55.803558" lon="26.027273">
<ele>179.025513</ele>
<time>2010-07-17T16:22:12Z</time>
<desc>lat.=55.803558, lon.=26.027273, Alt.=179.025513m. Speed=45.792000m/h.</desc>
<speed>12.720000</speed>
</trkpt>
<trkpt lat="55.803463" lon="26.027164">
<ele>178.853638</ele>
<time>2010-07-17T16:22:13Z</time>
<desc>lat.=55.803463, lon.=26.027164, Alt.=178.853638m. Speed=44.388000m/h.</desc>
<speed>12.330000</speed>
</trkpt>
<trkpt lat="55.803368" lon="26.027052">
<ele>178.646606</ele>
<time>2010-07-17T16:22:14Z</time>
<desc>lat.=55.803368, lon.=26.027052, Alt.=178.646606m. Speed=43.127998m/h.</desc>
<speed>11.980000</speed>
</trkpt>
<trkpt lat="55.803284" lon="26.026941">
<ele>178.244263</ele>
<time>2010-07-17T16:22:15Z</time>
<desc>lat.=55.803284, lon.=26.026941, Alt.=178.244263m. Speed=39.924000m/h.</desc>
<speed>11.090000</speed>
</trkpt>
<trkpt lat="55.803200" lon="26.026838">
<ele>177.998169</ele>
<time>2010-07-17T16:22:16Z</time>
<desc>lat.=55.803200, lon.=26.026838, Alt.=177.998169m. Speed=37.980000m/h.</desc>
<speed>10.550000</speed>
</trkpt>
<trkpt lat="55.803116" lon="26.026739">
<ele>177.830200</ele>
<time>2010-07-17T16:22:17Z</time>
<desc>lat.=55.803116, lon.=26.026739, Alt.=177.830200m. Speed=38.340000m/h.</desc>
<speed>10.650000</speed>
</trkpt>
<trkpt lat="55.803036" lon="26.026642">
<ele>177.689575</ele>
<time>2010-07-17T16:22:18Z</time>
<desc>lat.=55.803036, lon.=26.026642, Alt.=177.689575m. Speed=39.203999m/h.</desc>
<speed>10.890000</speed>
</trkpt>
<trkpt lat="55.802952" lon="26.026539">
<ele>177.443481</ele>
<time>2010-07-17T16:22:19Z</time>
<desc>lat.=55.802952, lon.=26.026539, Alt.=177.443481m. Speed=39.888000m/h.</desc>
<speed>11.080000</speed>
</trkpt>
<trkpt lat="55.802872" lon="26.026440">
<ele>177.154419</ele>
<time>2010-07-17T16:22:20Z</time>
<desc>lat.=55.802872, lon.=26.026440, Alt.=177.154419m. Speed=37.835999m/h.</desc>
<speed>10.510000</speed>
</trkpt>
<trkpt lat="55.802795" lon="26.026335">
<ele>177.099731</ele>
<time>2010-07-17T16:22:21Z</time>
<desc>lat.=55.802795, lon.=26.026335, Alt.=177.099731m. Speed=37.080002m/h.</desc>
<speed>10.300001</speed>
</trkpt>
<trkpt lat="55.802715" lon="26.026232">
<ele>177.052856</ele>
<time>2010-07-17T16:22:22Z</time>
<desc>lat.=55.802715, lon.=26.026232, Alt.=177.052856m. Speed=36.360001m/h.</desc>
<speed>10.100000</speed>
</trkpt>
<trkpt lat="55.802643" lon="26.026136">
<ele>176.955200</ele>
<time>2010-07-17T16:22:23Z</time>
<desc>lat.=55.802643, lon.=26.026136, Alt.=176.955200m. Speed=34.020000m/h.</desc>
<speed>9.450000</speed>
</trkpt>
<trkpt lat="55.802574" lon="26.026054">
<ele>176.716919</ele>
<time>2010-07-17T16:22:24Z</time>
<desc>lat.=55.802574, lon.=26.026054, Alt.=176.716919m. Speed=32.112000m/h.</desc>
<speed>8.920000</speed>
</trkpt>
<trkpt lat="55.802509" lon="26.025978">
<ele>176.463013</ele>
<time>2010-07-17T16:22:25Z</time>
<desc>lat.=55.802509, lon.=26.025978, Alt.=176.463013m. Speed=30.636000m/h.</desc>
<speed>8.510000</speed>
</trkpt>
<trkpt lat="55.802444" lon="26.025894">
<ele>176.232544</ele>
<time>2010-07-17T16:22:26Z</time>
<desc>lat.=55.802444, lon.=26.025894, Alt.=176.232544m. Speed=30.708000m/h.</desc>
<speed>8.530000</speed>
</trkpt>
<trkpt lat="55.802380" lon="26.025818">
<ele>176.064575</ele>
<time>2010-07-17T16:22:27Z</time>
<desc>lat.=55.802380, lon.=26.025818, Alt.=176.064575m. Speed=29.052000m/h.</desc>
<speed>8.070000</speed>
</trkpt>
<trkpt lat="55.802322" lon="26.025749">
<ele>176.009888</ele>
<time>2010-07-17T16:22:28Z</time>
<desc>lat.=55.802322, lon.=26.025749, Alt.=176.009888m. Speed=27.180000m/h.</desc>
<speed>7.550000</speed>
</trkpt>
<trkpt lat="55.802265" lon="26.025671">
<ele>175.740356</ele>
<time>2010-07-17T16:22:29Z</time>
<desc>lat.=55.802265, lon.=26.025671, Alt.=175.740356m. Speed=26.747999m/h.</desc>
<speed>7.430000</speed>
</trkpt>
<trkpt lat="55.802212" lon="26.025602">
<ele>175.634888</ele>
<time>2010-07-17T16:22:30Z</time>
<desc>lat.=55.802212, lon.=26.025602, Alt.=175.634888m. Speed=27.035999m/h.</desc>
<speed>7.510000</speed>
</trkpt>
<trkpt lat="55.802155" lon="26.025532">
<ele>175.373169</ele>
<time>2010-07-17T16:22:31Z</time>
<desc>lat.=55.802155, lon.=26.025532, Alt.=175.373169m. Speed=25.056000m/h.</desc>
<speed>6.960000</speed>
</trkpt>
<trkpt lat="55.802109" lon="26.025476">
<ele>174.412231</ele>
<time>2010-07-17T16:22:32Z</time>
<desc>lat.=55.802109, lon.=26.025476, Alt.=174.412231m. Speed=21.888000m/h.</desc>
<speed>6.080000</speed>
</trkpt>
<trkpt lat="55.802067" lon="26.025419">
<ele>174.201294</ele>
<time>2010-07-17T16:22:33Z</time>
<desc>lat.=55.802067, lon.=26.025419, Alt.=174.201294m. Speed=20.268000m/h.</desc>
<speed>5.630000</speed>
</trkpt>
<trkpt lat="55.802025" lon="26.025360">
<ele>174.119263</ele>
<time>2010-07-17T16:22:34Z</time>
<desc>lat.=55.802025, lon.=26.025360, Alt.=174.119263m. Speed=20.195999m/h.</desc>
<speed>5.610000</speed>
</trkpt>
<trkpt lat="55.801975" lon="26.025295">
<ele>173.748169</ele>
<time>2010-07-17T16:22:35Z</time>
<desc>lat.=55.801975, lon.=26.025295, Alt.=173.748169m. Speed=20.664000m/h.</desc>
<speed>5.740000</speed>
</trkpt>
<trkpt lat="55.801929" lon="26.025229">
<ele>173.220825</ele>
<time>2010-07-17T16:22:36Z</time>
<desc>lat.=55.801929, lon.=26.025229, Alt.=173.220825m. Speed=20.952000m/h.</desc>
<speed>5.820000</speed>
</trkpt>
<trkpt lat="55.801884" lon="26.025169">
<ele>172.814575</ele>
<time>2010-07-17T16:22:37Z</time>
<desc>lat.=55.801884, lon.=26.025169, Alt.=172.814575m. Speed=21.275999m/h.</desc>
<speed>5.910000</speed>
</trkpt>
<trkpt lat="55.801834" lon="26.025108">
<ele>172.701294</ele>
<time>2010-07-17T16:22:38Z</time>
<desc>lat.=55.801834, lon.=26.025108, Alt.=172.701294m. Speed=22.392000m/h.</desc>
<speed>6.220000</speed>
</trkpt>
<trkpt lat="55.801785" lon="26.025043">
<ele>172.744263</ele>
<time>2010-07-17T16:22:39Z</time>
<desc>lat.=55.801785, lon.=26.025043, Alt.=172.744263m. Speed=24.912001m/h.</desc>
<speed>6.920000</speed>
</trkpt>
<trkpt lat="55.801735" lon="26.024979">
<ele>172.720825</ele>
<time>2010-07-17T16:22:40Z</time>
<desc>lat.=55.801735, lon.=26.024979, Alt.=172.720825m. Speed=25.704000m/h.</desc>
<speed>7.140000</speed>
</trkpt>
<trkpt lat="55.801689" lon="26.024927">
<ele>172.619263</ele>
<time>2010-07-17T16:22:41Z</time>
<desc>lat.=55.801689, lon.=26.024927, Alt.=172.619263m. Speed=25.056000m/h.</desc>
<speed>6.960000</speed>
</trkpt>
<trkpt lat="55.801655" lon="26.024895">
<ele>172.338013</ele>
<time>2010-07-17T16:22:42Z</time>
<desc>lat.=55.801655, lon.=26.024895, Alt.=172.338013m. Speed=22.931999m/h.</desc>
<speed>6.370000</speed>
</trkpt>
<trkpt lat="55.801617" lon="26.024853">
<ele>172.111450</ele>
<time>2010-07-17T16:22:43Z</time>
<desc>lat.=55.801617, lon.=26.024853, Alt.=172.111450m. Speed=23.076000m/h.</desc>
<speed>6.410000</speed>
</trkpt>
<trkpt lat="55.801582" lon="26.024822">
<ele>171.677856</ele>
<time>2010-07-17T16:22:44Z</time>
<desc>lat.=55.801582, lon.=26.024822, Alt.=171.677856m. Speed=24.444000m/h.</desc>
<speed>6.790000</speed>
</trkpt>
<trkpt lat="55.801529" lon="26.024759">
<ele>171.513794</ele>
<time>2010-07-17T16:22:45Z</time>
<desc>lat.=55.801529, lon.=26.024759, Alt.=171.513794m. Speed=26.856001m/h.</desc>
<speed>7.460000</speed>
</trkpt>
<trkpt lat="55.801472" lon="26.024693">
<ele>171.357544</ele>
<time>2010-07-17T16:22:46Z</time>
<desc>lat.=55.801472, lon.=26.024693, Alt.=171.357544m. Speed=27.000000m/h.</desc>
<speed>7.500000</speed>
</trkpt>
<trkpt lat="55.801411" lon="26.024633">
<ele>171.127075</ele>
<time>2010-07-17T16:22:47Z</time>
<desc>lat.=55.801411, lon.=26.024633, Alt.=171.127075m. Speed=28.224001m/h.</desc>
<speed>7.840000</speed>
</trkpt>
<trkpt lat="55.801353" lon="26.024570">
<ele>170.888794</ele>
<time>2010-07-17T16:22:48Z</time>
<desc>lat.=55.801353, lon.=26.024570, Alt.=170.888794m. Speed=27.396000m/h.</desc>
<speed>7.610000</speed>
</trkpt>
<trkpt lat="55.801289" lon="26.024513">
<ele>170.689575</ele>
<time>2010-07-17T16:22:49Z</time>
<desc>lat.=55.801289, lon.=26.024513, Alt.=170.689575m. Speed=26.459999m/h.</desc>
<speed>7.350000</speed>
</trkpt>
<trkpt lat="55.801239" lon="26.024466">
<ele>170.517700</ele>
<time>2010-07-17T16:22:50Z</time>
<desc>lat.=55.801239, lon.=26.024466, Alt.=170.517700m. Speed=23.544001m/h.</desc>
<speed>6.540000</speed>
</trkpt>
<trkpt lat="55.801174" lon="26.024401">
<ele>170.498169</ele>
<time>2010-07-17T16:22:51Z</time>
<desc>lat.=55.801174, lon.=26.024401, Alt.=170.498169m. Speed=26.316000m/h.</desc>
<speed>7.310000</speed>
</trkpt>
<trkpt lat="55.801109" lon="26.024351">
<ele>170.322388</ele>
<time>2010-07-17T16:22:52Z</time>
<desc>lat.=55.801109, lon.=26.024351, Alt.=170.322388m. Speed=26.747999m/h.</desc>
<speed>7.430000</speed>
</trkpt>
<trkpt lat="55.801048" lon="26.024302">
<ele>170.138794</ele>
<time>2010-07-17T16:22:53Z</time>
<desc>lat.=55.801048, lon.=26.024302, Alt.=170.138794m. Speed=27.648001m/h.</desc>
<speed>7.680000</speed>
</trkpt>
<trkpt lat="55.800976" lon="26.024258">
<ele>169.904419</ele>
<time>2010-07-17T16:22:54Z</time>
<desc>lat.=55.800976, lon.=26.024258, Alt.=169.904419m. Speed=28.799999m/h.</desc>
<speed>8.000000</speed>
</trkpt>
<trkpt lat="55.800900" lon="26.024216">
<ele>169.670044</ele>
<time>2010-07-17T16:22:55Z</time>
<desc>lat.=55.800900, lon.=26.024216, Alt.=169.670044m. Speed=28.584000m/h.</desc>
<speed>7.940000</speed>
</trkpt>
<trkpt lat="55.800827" lon="26.024178">
<ele>169.443481</ele>
<time>2010-07-17T16:22:56Z</time>
<desc>lat.=55.800827, lon.=26.024178, Alt.=169.443481m. Speed=29.268000m/h.</desc>
<speed>8.130000</speed>
</trkpt>
<trkpt lat="55.800758" lon="26.024147">
<ele>169.224731</ele>
<time>2010-07-17T16:22:57Z</time>
<desc>lat.=55.800758, lon.=26.024147, Alt.=169.224731m. Speed=26.927999m/h.</desc>
<speed>7.480000</speed>
</trkpt>
<trkpt lat="55.800686" lon="26.024122">
<ele>168.947388</ele>
<time>2010-07-17T16:22:58Z</time>
<desc>lat.=55.800686, lon.=26.024122, Alt.=168.947388m. Speed=28.368000m/h.</desc>
<speed>7.880000</speed>
</trkpt>
<trkpt lat="55.800617" lon="26.024109">
<ele>168.748169</ele>
<time>2010-07-17T16:22:59Z</time>
<desc>lat.=55.800617, lon.=26.024109, Alt.=168.748169m. Speed=28.115999m/h.</desc>
<speed>7.810000</speed>
</trkpt>
<trkpt lat="55.800552" lon="26.024101">
<ele>168.630981</ele>
<time>2010-07-17T16:23:00Z</time>
<desc>lat.=55.800552, lon.=26.024101, Alt.=168.630981m. Speed=25.848000m/h.</desc>
<speed>7.180000</speed>
</trkpt>
<trkpt lat="55.800495" lon="26.024097">
<ele>168.459106</ele>
<time>2010-07-17T16:23:01Z</time>
<desc>lat.=55.800495, lon.=26.024097, Alt.=168.459106m. Speed=22.392000m/h.</desc>
<speed>6.220000</speed>
</trkpt>
<trkpt lat="55.800446" lon="26.024097">
<ele>168.416138</ele>
<time>2010-07-17T16:23:02Z</time>
<desc>lat.=55.800446, lon.=26.024097, Alt.=168.416138m. Speed=19.368000m/h.</desc>
<speed>5.380000</speed>
</trkpt>
<trkpt lat="55.800392" lon="26.024094">
<ele>168.295044</ele>
<time>2010-07-17T16:23:03Z</time>
<desc>lat.=55.800392, lon.=26.024094, Alt.=168.295044m. Speed=18.180000m/h.</desc>
<speed>5.050000</speed>
</trkpt>
<trkpt lat="55.800346" lon="26.024090">
<ele>168.115356</ele>
<time>2010-07-17T16:23:04Z</time>
<desc>lat.=55.800346, lon.=26.024090, Alt.=168.115356m. Speed=15.192000m/h.</desc>
<speed>4.220000</speed>
</trkpt>
<trkpt lat="55.800308" lon="26.024084">
<ele>167.923950</ele>
<time>2010-07-17T16:23:05Z</time>
<desc>lat.=55.800308, lon.=26.024084, Alt.=167.923950m. Speed=15.156000m/h.</desc>
<speed>4.210000</speed>
</trkpt>
<trkpt lat="55.800270" lon="26.024082">
<ele>167.740356</ele>
<time>2010-07-17T16:23:06Z</time>
<desc>lat.=55.800270, lon.=26.024082, Alt.=167.740356m. Speed=14.580000m/h.</desc>
<speed>4.050000</speed>
</trkpt>
<trkpt lat="55.800228" lon="26.024084">
<ele>167.482544</ele>
<time>2010-07-17T16:23:07Z</time>
<desc>lat.=55.800228, lon.=26.024084, Alt.=167.482544m. Speed=12.888000m/h.</desc>
<speed>3.580000</speed>
</trkpt>
<trkpt lat="55.800175" lon="26.024075">
<ele>167.334106</ele>
<time>2010-07-17T16:23:08Z</time>
<desc>lat.=55.800175, lon.=26.024075, Alt.=167.334106m. Speed=14.652000m/h.</desc>
<speed>4.070000</speed>
</trkpt>
<trkpt lat="55.800125" lon="26.024078">
<ele>166.755981</ele>
<time>2010-07-17T16:23:09Z</time>
<desc>lat.=55.800125, lon.=26.024078, Alt.=166.755981m. Speed=14.184000m/h.</desc>
<speed>3.940000</speed>
</trkpt>
<trkpt lat="55.800091" lon="26.024090">
<ele>166.615356</ele>
<time>2010-07-17T16:23:10Z</time>
<desc>lat.=55.800091, lon.=26.024090, Alt.=166.615356m. Speed=12.996000m/h.</desc>
<speed>3.610000</speed>
</trkpt>
<trkpt lat="55.800049" lon="26.024092">
<ele>166.474731</ele>
<time>2010-07-17T16:23:11Z</time>
<desc>lat.=55.800049, lon.=26.024092, Alt.=166.474731m. Speed=13.176000m/h.</desc>
<speed>3.660000</speed>
</trkpt>
<trkpt lat="55.800014" lon="26.024090">
<ele>166.435669</ele>
<time>2010-07-17T16:23:12Z</time>
<desc>lat.=55.800014, lon.=26.024090, Alt.=166.435669m. Speed=12.744000m/h.</desc>
<speed>3.540000</speed>
</trkpt>
<trkpt lat="55.799976" lon="26.024088">
<ele>166.310669</ele>
<time>2010-07-17T16:23:13Z</time>
<desc>lat.=55.799976, lon.=26.024088, Alt.=166.310669m. Speed=13.608000m/h.</desc>
<speed>3.780000</speed>
</trkpt>
<trkpt lat="55.799946" lon="26.024096">
<ele>166.205200</ele>
<time>2010-07-17T16:23:14Z</time>
<desc>lat.=55.799946, lon.=26.024096, Alt.=166.205200m. Speed=12.600000m/h.</desc>
<speed>3.500000</speed>
</trkpt>
<trkpt lat="55.799915" lon="26.024105">
<ele>166.150513</ele>
<time>2010-07-17T16:23:15Z</time>
<desc>lat.=55.799915, lon.=26.024105, Alt.=166.150513m. Speed=12.348000m/h.</desc>
<speed>3.430000</speed>
</trkpt>
<trkpt lat="55.799885" lon="26.024111">
<ele>166.259888</ele>
<time>2010-07-17T16:23:16Z</time>
<desc>lat.=55.799885, lon.=26.024111, Alt.=166.259888m. Speed=10.836000m/h.</desc>
<speed>3.010000</speed>
</trkpt>
<trkpt lat="55.799858" lon="26.024122">
<ele>166.068481</ele>
<time>2010-07-17T16:23:17Z</time>
<desc>lat.=55.799858, lon.=26.024122, Alt.=166.068481m. Speed=12.888000m/h.</desc>
<speed>3.580000</speed>
</trkpt>
<trkpt lat="55.799828" lon="26.024132">
<ele>166.025513</ele>
<time>2010-07-17T16:23:18Z</time>
<desc>lat.=55.799828, lon.=26.024132, Alt.=166.025513m. Speed=12.996000m/h.</desc>
<speed>3.610000</speed>
</trkpt>
<trkpt lat="55.799793" lon="26.024139">
<ele>166.091919</ele>
<time>2010-07-17T16:23:19Z</time>
<desc>lat.=55.799793, lon.=26.024139, Alt.=166.091919m. Speed=14.076000m/h.</desc>
<speed>3.910000</speed>
</trkpt>
<trkpt lat="55.799759" lon="26.024149">
<ele>165.994263</ele>
<time>2010-07-17T16:23:20Z</time>
<desc>lat.=55.799759, lon.=26.024149, Alt.=165.994263m. Speed=13.716000m/h.</desc>
<speed>3.810000</speed>
</trkpt>
<trkpt lat="55.799728" lon="26.024149">
<ele>165.904419</ele>
<time>2010-07-17T16:23:21Z</time>
<desc>lat.=55.799728, lon.=26.024149, Alt.=165.904419m. Speed=14.328000m/h.</desc>
<speed>3.980000</speed>
</trkpt>
<trkpt lat="55.799694" lon="26.024157">
<ele>165.752075</ele>
<time>2010-07-17T16:23:22Z</time>
<desc>lat.=55.799694, lon.=26.024157, Alt.=165.752075m. Speed=12.708000m/h.</desc>
<speed>3.530000</speed>
</trkpt>
<trkpt lat="55.799667" lon="26.024164">
<ele>165.595825</ele>
<time>2010-07-17T16:23:23Z</time>
<desc>lat.=55.799667, lon.=26.024164, Alt.=165.595825m. Speed=10.440000m/h.</desc>
<speed>2.900000</speed>
</trkpt>
<trkpt lat="55.799644" lon="26.024174">
<ele>165.638794</ele>
<time>2010-07-17T16:23:24Z</time>
<desc>lat.=55.799644, lon.=26.024174, Alt.=165.638794m. Speed=10.692000m/h.</desc>
<speed>2.970000</speed>
</trkpt>
<trkpt lat="55.799618" lon="26.024191">
<ele>165.466919</ele>
<time>2010-07-17T16:23:25Z</time>
<desc>lat.=55.799618, lon.=26.024191, Alt.=165.466919m. Speed=11.124000m/h.</desc>
<speed>3.090000</speed>
</trkpt>
<trkpt lat="55.799591" lon="26.024210">
<ele>165.502075</ele>
<time>2010-07-17T16:23:26Z</time>
<desc>lat.=55.799591, lon.=26.024210, Alt.=165.502075m. Speed=10.908000m/h.</desc>
<speed>3.030000</speed>
</trkpt>
<trkpt lat="55.799564" lon="26.024225">
<ele>165.209106</ele>
<time>2010-07-17T16:23:27Z</time>
<desc>lat.=55.799564, lon.=26.024225, Alt.=165.209106m. Speed=10.944000m/h.</desc>
<speed>3.040000</speed>
</trkpt>
<trkpt lat="55.799530" lon="26.024252">
<ele>165.127075</ele>
<time>2010-07-17T16:23:28Z</time>
<desc>lat.=55.799530, lon.=26.024252, Alt.=165.127075m. Speed=11.268000m/h.</desc>
<speed>3.130000</speed>
</trkpt>
<trkpt lat="55.799500" lon="26.024267">
<ele>165.076294</ele>
<time>2010-07-17T16:23:29Z</time>
<desc>lat.=55.799500, lon.=26.024267, Alt.=165.076294m. Speed=11.664000m/h.</desc>
<speed>3.240000</speed>
</trkpt>
<trkpt lat="55.799473" lon="26.024284">
<ele>165.095825</ele>
<time>2010-07-17T16:23:30Z</time>
<desc>lat.=55.799473, lon.=26.024284, Alt.=165.095825m. Speed=11.916000m/h.</desc>
<speed>3.310000</speed>
</trkpt>
<trkpt lat="55.799442" lon="26.024300">
<ele>164.845825</ele>
<time>2010-07-17T16:23:31Z</time>
<desc>lat.=55.799442, lon.=26.024300, Alt.=164.845825m. Speed=13.104000m/h.</desc>
<speed>3.640000</speed>
</trkpt>
<trkpt lat="55.799416" lon="26.024323">
<ele>164.736450</ele>
<time>2010-07-17T16:23:32Z</time>
<desc>lat.=55.799416, lon.=26.024323, Alt.=164.736450m. Speed=12.060000m/h.</desc>
<speed>3.350000</speed>
</trkpt>
<trkpt lat="55.799385" lon="26.024345">
<ele>164.533325</ele>
<time>2010-07-17T16:23:33Z</time>
<desc>lat.=55.799385, lon.=26.024345, Alt.=164.533325m. Speed=12.600000m/h.</desc>
<speed>3.500000</speed>
</trkpt>
<trkpt lat="55.799358" lon="26.024363">
<ele>164.259888</ele>
<time>2010-07-17T16:23:34Z</time>
<desc>lat.=55.799358, lon.=26.024363, Alt.=164.259888m. Speed=11.880000m/h.</desc>
<speed>3.300000</speed>
</trkpt>
<trkpt lat="55.799328" lon="26.024380">
<ele>164.158325</ele>
<time>2010-07-17T16:23:35Z</time>
<desc>lat.=55.799328, lon.=26.024380, Alt.=164.158325m. Speed=11.988000m/h.</desc>
<speed>3.330000</speed>
</trkpt>
<trkpt lat="55.799294" lon="26.024399">
<ele>164.048950</ele>
<time>2010-07-17T16:23:36Z</time>
<desc>lat.=55.799294, lon.=26.024399, Alt.=164.048950m. Speed=13.104000m/h.</desc>
<speed>3.640000</speed>
</trkpt>
<trkpt lat="55.799271" lon="26.024422">
<ele>164.076294</ele>
<time>2010-07-17T16:23:37Z</time>
<desc>lat.=55.799271, lon.=26.024422, Alt.=164.076294m. Speed=11.412000m/h.</desc>
<speed>3.170000</speed>
</trkpt>
<trkpt lat="55.799244" lon="26.024439">
<ele>163.939575</ele>
<time>2010-07-17T16:23:38Z</time>
<desc>lat.=55.799244, lon.=26.024439, Alt.=163.939575m. Speed=11.196000m/h.</desc>
<speed>3.110000</speed>
</trkpt>
<trkpt lat="55.799225" lon="26.024456">
<ele>163.834106</ele>
<time>2010-07-17T16:23:39Z</time>
<desc>lat.=55.799225, lon.=26.024456, Alt.=163.834106m. Speed=10.116000m/h.</desc>
<speed>2.810000</speed>
</trkpt>
<trkpt lat="55.799202" lon="26.024473">
<ele>163.744263</ele>
<time>2010-07-17T16:23:40Z</time>
<desc>lat.=55.799202, lon.=26.024473, Alt.=163.744263m. Speed=10.152000m/h.</desc>
<speed>2.820000</speed>
</trkpt>
<trkpt lat="55.799175" lon="26.024494">
<ele>163.615356</ele>
<time>2010-07-17T16:23:41Z</time>
<desc>lat.=55.799175, lon.=26.024494, Alt.=163.615356m. Speed=9.648000m/h.</desc>
<speed>2.680000</speed>
</trkpt>
<trkpt lat="55.799156" lon="26.024525">
<ele>163.552856</ele>
<time>2010-07-17T16:23:42Z</time>
<desc>lat.=55.799156, lon.=26.024525, Alt.=163.552856m. Speed=9.144000m/h.</desc>
<speed>2.540000</speed>
</trkpt>
<trkpt lat="55.799133" lon="26.024549">
<ele>163.533325</ele>
<time>2010-07-17T16:23:43Z</time>
<desc>lat.=55.799133, lon.=26.024549, Alt.=163.533325m. Speed=9.540000m/h.</desc>
<speed>2.650000</speed>
</trkpt>
<trkpt lat="55.799110" lon="26.024582">
<ele>163.525513</ele>
<time>2010-07-17T16:23:44Z</time>
<desc>lat.=55.799110, lon.=26.024582, Alt.=163.525513m. Speed=9.468000m/h.</desc>
<speed>2.630000</speed>
</trkpt>
<trkpt lat="55.799091" lon="26.024611">
<ele>163.529419</ele>
<time>2010-07-17T16:23:45Z</time>
<desc>lat.=55.799091, lon.=26.024611, Alt.=163.529419m. Speed=8.820000m/h.</desc>
<speed>2.450000</speed>
</trkpt>
<trkpt lat="55.799065" lon="26.024632">
<ele>163.537231</ele>
<time>2010-07-17T16:23:46Z</time>
<desc>lat.=55.799065, lon.=26.024632, Alt.=163.537231m. Speed=9.216000m/h.</desc>
<speed>2.560000</speed>
</trkpt>
<trkpt lat="55.799038" lon="26.024649">
<ele>163.564575</ele>
<time>2010-07-17T16:23:47Z</time>
<desc>lat.=55.799038, lon.=26.024649, Alt.=163.564575m. Speed=8.460000m/h.</desc>
<speed>2.350000</speed>
</trkpt>
<trkpt lat="55.799015" lon="26.024668">
<ele>163.525513</ele>
<time>2010-07-17T16:23:48Z</time>
<desc>lat.=55.799015, lon.=26.024668, Alt.=163.525513m. Speed=9.108000m/h.</desc>
<speed>2.530000</speed>
</trkpt>
<trkpt lat="55.798996" lon="26.024689">
<ele>163.502075</ele>
<time>2010-07-17T16:23:49Z</time>
<desc>lat.=55.798996, lon.=26.024689, Alt.=163.502075m. Speed=9.432000m/h.</desc>
<speed>2.620000</speed>
</trkpt>
<trkpt lat="55.798988" lon="26.024708">
<ele>163.396606</ele>
<time>2010-07-17T16:23:50Z</time>
<desc>lat.=55.798988, lon.=26.024708, Alt.=163.396606m. Speed=7.308000m/h.</desc>
<speed>2.030000</speed>
</trkpt>
<trkpt lat="55.798973" lon="26.024721">
<ele>163.326294</ele>
<time>2010-07-17T16:23:51Z</time>
<desc>lat.=55.798973, lon.=26.024721, Alt.=163.326294m. Speed=6.552000m/h.</desc>
<speed>1.820000</speed>
</trkpt>
<trkpt lat="55.798954" lon="26.024740">
<ele>163.334106</ele>
<time>2010-07-17T16:23:52Z</time>
<desc>lat.=55.798954, lon.=26.024740, Alt.=163.334106m. Speed=7.164000m/h.</desc>
<speed>1.990000</speed>
</trkpt>
<trkpt lat="55.798935" lon="26.024765">
<ele>163.287231</ele>
<time>2010-07-17T16:23:53Z</time>
<desc>lat.=55.798935, lon.=26.024765, Alt.=163.287231m. Speed=8.028000m/h.</desc>
<speed>2.230000</speed>
</trkpt>
<trkpt lat="55.798920" lon="26.024790">
<ele>163.255981</ele>
<time>2010-07-17T16:23:54Z</time>
<desc>lat.=55.798920, lon.=26.024790, Alt.=163.255981m. Speed=8.424000m/h.</desc>
<speed>2.340000</speed>
</trkpt>
<trkpt lat="55.798904" lon="26.024815">
<ele>163.021606</ele>
<time>2010-07-17T16:23:55Z</time>
<desc>lat.=55.798904, lon.=26.024815, Alt.=163.021606m. Speed=7.128000m/h.</desc>
<speed>1.980000</speed>
</trkpt>
<trkpt lat="55.798882" lon="26.024834">
<ele>162.810669</ele>
<time>2010-07-17T16:23:56Z</time>
<desc>lat.=55.798882, lon.=26.024834, Alt.=162.810669m. Speed=6.624000m/h.</desc>
<speed>1.840000</speed>
</trkpt>
<trkpt lat="55.798870" lon="26.024851">
<ele>162.638794</ele>
<time>2010-07-17T16:23:57Z</time>
<desc>lat.=55.798870, lon.=26.024851, Alt.=162.638794m. Speed=6.516000m/h.</desc>
<speed>1.810000</speed>
</trkpt>
<trkpt lat="55.798847" lon="26.024874">
<ele>162.509888</ele>
<time>2010-07-17T16:23:58Z</time>
<desc>lat.=55.798847, lon.=26.024874, Alt.=162.509888m. Speed=8.424000m/h.</desc>
<speed>2.340000</speed>
</trkpt>
<trkpt lat="55.798820" lon="26.024900">
<ele>162.318481</ele>
<time>2010-07-17T16:23:59Z</time>
<desc>lat.=55.798820, lon.=26.024900, Alt.=162.318481m. Speed=10.296000m/h.</desc>
<speed>2.860000</speed>
</trkpt>
<trkpt lat="55.798786" lon="26.024933">
<ele>162.142700</ele>
<time>2010-07-17T16:24:00Z</time>
<desc>lat.=55.798786, lon.=26.024933, Alt.=162.142700m. Speed=10.404000m/h.</desc>
<speed>2.890000</speed>
</trkpt>
<trkpt lat="55.798756" lon="26.024975">
<ele>162.205200</ele>
<time>2010-07-17T16:24:01Z</time>
<desc>lat.=55.798756, lon.=26.024975, Alt.=162.205200m. Speed=12.780000m/h.</desc>
<speed>3.550000</speed>
</trkpt>
<trkpt lat="55.798729" lon="26.025021">
<ele>162.173950</ele>
<time>2010-07-17T16:24:02Z</time>
<desc>lat.=55.798729, lon.=26.025021, Alt.=162.173950m. Speed=12.996000m/h.</desc>
<speed>3.610000</speed>
</trkpt>
<trkpt lat="55.798706" lon="26.025057">
<ele>161.982544</ele>
<time>2010-07-17T16:24:03Z</time>
<desc>lat.=55.798706, lon.=26.025057, Alt.=161.982544m. Speed=11.520000m/h.</desc>
<speed>3.200000</speed>
</trkpt>
<trkpt lat="55.798676" lon="26.025101">
<ele>161.947388</ele>
<time>2010-07-17T16:24:04Z</time>
<desc>lat.=55.798676, lon.=26.025101, Alt.=161.947388m. Speed=12.924000m/h.</desc>
<speed>3.590000</speed>
</trkpt>
<trkpt lat="55.798660" lon="26.025166">
<ele>161.986450</ele>
<time>2010-07-17T16:24:05Z</time>
<desc>lat.=55.798660, lon.=26.025166, Alt.=161.986450m. Speed=13.212000m/h.</desc>
<speed>3.670000</speed>
</trkpt>
<trkpt lat="55.798626" lon="26.025211">
<ele>161.791138</ele>
<time>2010-07-17T16:24:06Z</time>
<desc>lat.=55.798626, lon.=26.025211, Alt.=161.791138m. Speed=14.832000m/h.</desc>
<speed>4.120000</speed>
</trkpt>
<trkpt lat="55.798603" lon="26.025270">
<ele>161.873169</ele>
<time>2010-07-17T16:24:07Z</time>
<desc>lat.=55.798603, lon.=26.025270, Alt.=161.873169m. Speed=15.588000m/h.</desc>
<speed>4.330000</speed>
</trkpt>
<trkpt lat="55.798573" lon="26.025322">
<ele>161.888794</ele>
<time>2010-07-17T16:24:08Z</time>
<desc>lat.=55.798573, lon.=26.025322, Alt.=161.888794m. Speed=16.128000m/h.</desc>
<speed>4.480000</speed>
</trkpt>
<trkpt lat="55.798542" lon="26.025364">
<ele>161.720825</ele>
<time>2010-07-17T16:24:09Z</time>
<desc>lat.=55.798542, lon.=26.025364, Alt.=161.720825m. Speed=15.552000m/h.</desc>
<speed>4.320000</speed>
</trkpt>
<trkpt lat="55.798519" lon="26.025412">
<ele>161.681763</ele>
<time>2010-07-17T16:24:10Z</time>
<desc>lat.=55.798519, lon.=26.025412, Alt.=161.681763m. Speed=15.012000m/h.</desc>
<speed>4.170000</speed>
</trkpt>
<trkpt lat="55.798496" lon="26.025463">
<ele>161.638794</ele>
<time>2010-07-17T16:24:11Z</time>
<desc>lat.=55.798496, lon.=26.025463, Alt.=161.638794m. Speed=13.824000m/h.</desc>
<speed>3.840000</speed>
</trkpt>
<trkpt lat="55.798470" lon="26.025507">
<ele>161.334106</ele>
<time>2010-07-17T16:24:12Z</time>
<desc>lat.=55.798470, lon.=26.025507, Alt.=161.334106m. Speed=14.040000m/h.</desc>
<speed>3.900000</speed>
</trkpt>
<trkpt lat="55.798435" lon="26.025566">
<ele>161.271606</ele>
<time>2010-07-17T16:24:13Z</time>
<desc>lat.=55.798435, lon.=26.025566, Alt.=161.271606m. Speed=14.364000m/h.</desc>
<speed>3.990000</speed>
</trkpt>
<trkpt lat="55.798412" lon="26.025608">
<ele>161.349731</ele>
<time>2010-07-17T16:24:14Z</time>
<desc>lat.=55.798412, lon.=26.025608, Alt.=161.349731m. Speed=12.384000m/h.</desc>
<speed>3.440000</speed>
</trkpt>
<trkpt lat="55.798389" lon="26.025648">
<ele>161.392700</ele>
<time>2010-07-17T16:24:15Z</time>
<desc>lat.=55.798389, lon.=26.025648, Alt.=161.392700m. Speed=11.304000m/h.</desc>
<speed>3.140000</speed>
</trkpt>
<trkpt lat="55.798374" lon="26.025682">
<ele>161.357544</ele>
<time>2010-07-17T16:24:16Z</time>
<desc>lat.=55.798374, lon.=26.025682, Alt.=161.357544m. Speed=11.412000m/h.</desc>
<speed>3.170000</speed>
</trkpt>
<trkpt lat="55.798351" lon="26.025717">
<ele>161.369263</ele>
<time>2010-07-17T16:24:17Z</time>
<desc>lat.=55.798351, lon.=26.025717, Alt.=161.369263m. Speed=12.492000m/h.</desc>
<speed>3.470000</speed>
</trkpt>
<trkpt lat="55.798340" lon="26.025743">
<ele>161.400513</ele>
<time>2010-07-17T16:24:18Z</time>
<desc>lat.=55.798340, lon.=26.025743, Alt.=161.400513m. Speed=13.068000m/h.</desc>
<speed>3.630000</speed>
</trkpt>
<trkpt lat="55.798313" lon="26.025784">
<ele>161.521606</ele>
<time>2010-07-17T16:24:19Z</time>
<desc>lat.=55.798313, lon.=26.025784, Alt.=161.521606m. Speed=12.888000m/h.</desc>
<speed>3.580000</speed>
</trkpt>
<trkpt lat="55.798286" lon="26.025818">
<ele>161.662231</ele>
<time>2010-07-17T16:24:20Z</time>
<desc>lat.=55.798286, lon.=26.025818, Alt.=161.662231m. Speed=11.520000m/h.</desc>
<speed>3.200000</speed>
</trkpt>
<trkpt lat="55.798260" lon="26.025846">
<ele>161.713013</ele>
<time>2010-07-17T16:24:21Z</time>
<desc>lat.=55.798260, lon.=26.025846, Alt.=161.713013m. Speed=10.044000m/h.</desc>
<speed>2.790000</speed>
</trkpt>
<trkpt lat="55.798233" lon="26.025871">
<ele>162.111450</ele>
<time>2010-07-17T16:24:22Z</time>
<desc>lat.=55.798233, lon.=26.025871, Alt.=162.111450m. Speed=12.528000m/h.</desc>
<speed>3.480000</speed>
</trkpt>
<trkpt lat="55.798210" lon="26.025894">
<ele>162.384888</ele>
<time>2010-07-17T16:24:23Z</time>
<desc>lat.=55.798210, lon.=26.025894, Alt.=162.384888m. Speed=10.152000m/h.</desc>
<speed>2.820000</speed>
</trkpt>
<trkpt lat="55.798199" lon="26.025923">
<ele>162.771606</ele>
<time>2010-07-17T16:24:24Z</time>
<desc>lat.=55.798199, lon.=26.025923, Alt.=162.771606m. Speed=10.404000m/h.</desc>
<speed>2.890000</speed>
</trkpt>
<trkpt lat="55.798180" lon="26.025961">
<ele>163.255981</ele>
<time>2010-07-17T16:24:25Z</time>
<desc>lat.=55.798180, lon.=26.025961, Alt.=163.255981m. Speed=9.900000m/h.</desc>
<speed>2.750000</speed>
</trkpt>
<trkpt lat="55.798176" lon="26.025995">
<ele>163.888794</ele>
<time>2010-07-17T16:24:26Z</time>
<desc>lat.=55.798176, lon.=26.025995, Alt.=163.888794m. Speed=7.236000m/h.</desc>
<speed>2.010000</speed>
</trkpt>
<trkpt lat="55.798153" lon="26.026045">
<ele>164.927856</ele>
<time>2010-07-17T16:24:27Z</time>
<desc>lat.=55.798153, lon.=26.026045, Alt.=164.927856m. Speed=11.988000m/h.</desc>
<speed>3.330000</speed>
</trkpt>
<trkpt lat="55.798153" lon="26.026108">
<ele>166.670044</ele>
<time>2010-07-17T16:24:28Z</time>
<desc>lat.=55.798153, lon.=26.026108, Alt.=166.670044m. Speed=9.072000m/h.</desc>
<speed>2.520000</speed>
</trkpt>
<trkpt lat="55.798153" lon="26.026142">
<ele>167.404419</ele>
<time>2010-07-17T16:24:29Z</time>
<desc>lat.=55.798153, lon.=26.026142, Alt.=167.404419m. Speed=6.048000m/h.</desc>
<speed>1.680000</speed>
</trkpt>
<trkpt lat="55.798138" lon="26.026178">
<ele>168.084106</ele>
<time>2010-07-17T16:24:30Z</time>
<desc>lat.=55.798138, lon.=26.026178, Alt.=168.084106m. Speed=9.108000m/h.</desc>
<speed>2.530000</speed>
</trkpt>
<trkpt lat="55.798119" lon="26.026224">
<ele>168.584106</ele>
<time>2010-07-17T16:24:31Z</time>
<desc>lat.=55.798119, lon.=26.026224, Alt.=168.584106m. Speed=12.960000m/h.</desc>
<speed>3.600000</speed>
</trkpt>
<trkpt lat="55.798092" lon="26.026293">
<ele>169.306763</ele>
<time>2010-07-17T16:24:32Z</time>
<desc>lat.=55.798092, lon.=26.026293, Alt.=169.306763m. Speed=13.536000m/h.</desc>
<speed>3.760000</speed>
</trkpt>
<trkpt lat="55.798080" lon="26.026348">
<ele>170.259888</ele>
<time>2010-07-17T16:24:33Z</time>
<desc>lat.=55.798080, lon.=26.026348, Alt.=170.259888m. Speed=10.044000m/h.</desc>
<speed>2.790000</speed>
</trkpt>
<trkpt lat="55.798069" lon="26.026409">
<ele>171.302856</ele>
<time>2010-07-17T16:24:34Z</time>
<desc>lat.=55.798069, lon.=26.026409, Alt.=171.302856m. Speed=10.440000m/h.</desc>
<speed>2.900000</speed>
</trkpt>
<trkpt lat="55.798050" lon="26.026451">
<ele>172.013794</ele>
<time>2010-07-17T16:24:35Z</time>
<desc>lat.=55.798050, lon.=26.026451, Alt.=172.013794m. Speed=9.396000m/h.</desc>
<speed>2.610000</speed>
</trkpt>
<trkpt lat="55.798031" lon="26.026495">
<ele>172.916138</ele>
<time>2010-07-17T16:24:36Z</time>
<desc>lat.=55.798031, lon.=26.026495, Alt.=172.916138m. Speed=10.512000m/h.</desc>
<speed>2.920000</speed>
</trkpt>
<trkpt lat="55.798016" lon="26.026546">
<ele>173.713013</ele>
<time>2010-07-17T16:24:37Z</time>
<desc>lat.=55.798016, lon.=26.026546, Alt.=173.713013m. Speed=11.556000m/h.</desc>
<speed>3.210000</speed>
</trkpt>
<trkpt lat="55.797993" lon="26.026592">
<ele>174.295044</ele>
<time>2010-07-17T16:24:38Z</time>
<desc>lat.=55.797993, lon.=26.026592, Alt.=174.295044m. Speed=12.132000m/h.</desc>
<speed>3.370000</speed>
</trkpt>
<trkpt lat="55.797966" lon="26.026642">
<ele>174.771606</ele>
<time>2010-07-17T16:24:39Z</time>
<desc>lat.=55.797966, lon.=26.026642, Alt.=174.771606m. Speed=13.140000m/h.</desc>
<speed>3.650000</speed>
</trkpt>
<trkpt lat="55.797924" lon="26.026701">
<ele>175.142700</ele>
<time>2010-07-17T16:24:40Z</time>
<desc>lat.=55.797924, lon.=26.026701, Alt.=175.142700m. Speed=14.616000m/h.</desc>
<speed>4.060000</speed>
</trkpt>
<trkpt lat="55.797890" lon="26.026770">
<ele>175.513794</ele>
<time>2010-07-17T16:24:41Z</time>
<desc>lat.=55.797890, lon.=26.026770, Alt.=175.513794m. Speed=15.336000m/h.</desc>
<speed>4.260000</speed>
</trkpt>
<trkpt lat="55.797867" lon="26.026823">
<ele>176.052856</ele>
<time>2010-07-17T16:24:42Z</time>
<desc>lat.=55.797867, lon.=26.026823, Alt.=176.052856m. Speed=13.572000m/h.</desc>
<speed>3.770000</speed>
</trkpt>
<trkpt lat="55.797840" lon="26.026892">
<ele>176.916138</ele>
<time>2010-07-17T16:24:43Z</time>
<desc>lat.=55.797840, lon.=26.026892, Alt.=176.916138m. Speed=14.616000m/h.</desc>
<speed>4.060000</speed>
</trkpt>
<trkpt lat="55.797810" lon="26.026949">
<ele>177.377075</ele>
<time>2010-07-17T16:24:44Z</time>
<desc>lat.=55.797810, lon.=26.026949, Alt.=177.377075m. Speed=13.788000m/h.</desc>
<speed>3.830000</speed>
</trkpt>
<trkpt lat="55.797798" lon="26.027002">
<ele>177.771606</ele>
<time>2010-07-17T16:24:45Z</time>
<desc>lat.=55.797798, lon.=26.027002, Alt.=177.771606m. Speed=12.528000m/h.</desc>
<speed>3.480000</speed>
</trkpt>
<trkpt lat="55.797771" lon="26.027067">
<ele>177.955200</ele>
<time>2010-07-17T16:24:46Z</time>
<desc>lat.=55.797771, lon.=26.027067, Alt.=177.955200m. Speed=14.436000m/h.</desc>
<speed>4.010000</speed>
</trkpt>
<trkpt lat="55.797756" lon="26.027134">
<ele>178.595825</ele>
<time>2010-07-17T16:24:47Z</time>
<desc>lat.=55.797756, lon.=26.027134, Alt.=178.595825m. Speed=15.552000m/h.</desc>
<speed>4.320000</speed>
</trkpt>
<trkpt lat="55.797733" lon="26.027206">
<ele>178.826294</ele>
<time>2010-07-17T16:24:48Z</time>
<desc>lat.=55.797733, lon.=26.027206, Alt.=178.826294m. Speed=18.431999m/h.</desc>
<speed>5.120000</speed>
</trkpt>
<trkpt lat="55.797703" lon="26.027273">
<ele>179.279419</ele>
<time>2010-07-17T16:24:49Z</time>
<desc>lat.=55.797703, lon.=26.027273, Alt.=179.279419m. Speed=16.775999m/h.</desc>
<speed>4.660000</speed>
</trkpt>
<trkpt lat="55.797676" lon="26.027348">
<ele>179.584106</ele>
<time>2010-07-17T16:24:50Z</time>
<desc>lat.=55.797676, lon.=26.027348, Alt.=179.584106m. Speed=15.804000m/h.</desc>
<speed>4.390000</speed>
</trkpt>
<trkpt lat="55.797646" lon="26.027416">
<ele>179.623169</ele>
<time>2010-07-17T16:24:51Z</time>
<desc>lat.=55.797646, lon.=26.027416, Alt.=179.623169m. Speed=15.192000m/h.</desc>
<speed>4.220000</speed>
</trkpt>
<trkpt lat="55.797623" lon="26.027472">
<ele>179.834106</ele>
<time>2010-07-17T16:24:52Z</time>
<desc>lat.=55.797623, lon.=26.027472, Alt.=179.834106m. Speed=12.276000m/h.</desc>
<speed>3.410000</speed>
</trkpt>
<trkpt lat="55.797600" lon="26.027529">
<ele>180.146606</ele>
<time>2010-07-17T16:24:53Z</time>
<desc>lat.=55.797600, lon.=26.027529, Alt.=180.146606m. Speed=14.148000m/h.</desc>
<speed>3.930000</speed>
</trkpt>
<trkpt lat="55.797588" lon="26.027594">
<ele>180.607544</ele>
<time>2010-07-17T16:24:54Z</time>
<desc>lat.=55.797588, lon.=26.027594, Alt.=180.607544m. Speed=14.292000m/h.</desc>
<speed>3.970000</speed>
</trkpt>
<trkpt lat="55.797565" lon="26.027657">
<ele>181.361450</ele>
<time>2010-07-17T16:24:55Z</time>
<desc>lat.=55.797565, lon.=26.027657, Alt.=181.361450m. Speed=15.264000m/h.</desc>
<speed>4.240000</speed>
</trkpt>
<trkpt lat="55.797531" lon="26.027727">
<ele>181.572388</ele>
<time>2010-07-17T16:24:56Z</time>
<desc>lat.=55.797531, lon.=26.027727, Alt.=181.572388m. Speed=17.172001m/h.</desc>
<speed>4.770000</speed>
</trkpt>
<trkpt lat="55.797512" lon="26.027794">
<ele>181.830200</ele>
<time>2010-07-17T16:24:57Z</time>
<desc>lat.=55.797512, lon.=26.027794, Alt.=181.830200m. Speed=15.336000m/h.</desc>
<speed>4.260000</speed>
</trkpt>
<trkpt lat="55.797493" lon="26.027864">
<ele>182.349731</ele>
<time>2010-07-17T16:24:58Z</time>
<desc>lat.=55.797493, lon.=26.027864, Alt.=182.349731m. Speed=17.820000m/h.</desc>
<speed>4.950000</speed>
</trkpt>
<trkpt lat="55.797459" lon="26.027935">
<ele>182.380981</ele>
<time>2010-07-17T16:24:59Z</time>
<desc>lat.=55.797459, lon.=26.027935, Alt.=182.380981m. Speed=17.459999m/h.</desc>
<speed>4.850000</speed>
</trkpt>
<trkpt lat="55.797440" lon="26.028000">
<ele>182.838013</ele>
<time>2010-07-17T16:25:00Z</time>
<desc>lat.=55.797440, lon.=26.028000, Alt.=182.838013m. Speed=16.740000m/h.</desc>
<speed>4.650000</speed>
</trkpt>
<trkpt lat="55.797401" lon="26.028080">
<ele>182.791138</ele>
<time>2010-07-17T16:25:01Z</time>
<desc>lat.=55.797401, lon.=26.028080, Alt.=182.791138m. Speed=18.323999m/h.</desc>
<speed>5.090000</speed>
</trkpt>
<trkpt lat="55.797375" lon="26.028145">
<ele>182.834106</ele>
<time>2010-07-17T16:25:02Z</time>
<desc>lat.=55.797375, lon.=26.028145, Alt.=182.834106m. Speed=16.164000m/h.</desc>
<speed>4.490000</speed>
</trkpt>
<trkpt lat="55.797348" lon="26.028200">
<ele>183.080200</ele>
<time>2010-07-17T16:25:03Z</time>
<desc>lat.=55.797348, lon.=26.028200, Alt.=183.080200m. Speed=17.676001m/h.</desc>
<speed>4.910000</speed>
</trkpt>
<trkpt lat="55.797314" lon="26.028271">
<ele>184.091919</ele>
<time>2010-07-17T16:25:04Z</time>
<desc>lat.=55.797314, lon.=26.028271, Alt.=184.091919m. Speed=17.243999m/h.</desc>
<speed>4.790000</speed>
</trkpt>
<trkpt lat="55.797279" lon="26.028337">
<ele>185.228638</ele>
<time>2010-07-17T16:25:05Z</time>
<desc>lat.=55.797279, lon.=26.028337, Alt.=185.228638m. Speed=18.719999m/h.</desc>
<speed>5.200000</speed>
</trkpt>
<trkpt lat="55.797253" lon="26.028423">
<ele>186.713013</ele>
<time>2010-07-17T16:25:06Z</time>
<desc>lat.=55.797253, lon.=26.028423, Alt.=186.713013m. Speed=17.856001m/h.</desc>
<speed>4.960000</speed>
</trkpt>
<trkpt lat="55.797207" lon="26.028500">
<ele>187.357544</ele>
<time>2010-07-17T16:25:07Z</time>
<desc>lat.=55.797207, lon.=26.028500, Alt.=187.357544m. Speed=18.576000m/h.</desc>
<speed>5.160000</speed>
</trkpt>
<trkpt lat="55.797169" lon="26.028574">
<ele>187.709106</ele>
<time>2010-07-17T16:25:08Z</time>
<desc>lat.=55.797169, lon.=26.028574, Alt.=187.709106m. Speed=19.296000m/h.</desc>
<speed>5.360000</speed>
</trkpt>
<trkpt lat="55.797134" lon="26.028658">
<ele>188.345825</ele>
<time>2010-07-17T16:25:09Z</time>
<desc>lat.=55.797134, lon.=26.028658, Alt.=188.345825m. Speed=20.232000m/h.</desc>
<speed>5.620000</speed>
</trkpt>
<trkpt lat="55.797104" lon="26.028730">
<ele>188.990356</ele>
<time>2010-07-17T16:25:10Z</time>
<desc>lat.=55.797104, lon.=26.028730, Alt.=188.990356m. Speed=19.296000m/h.</desc>
<speed>5.360000</speed>
</trkpt>
<trkpt lat="55.797077" lon="26.028791">
<ele>189.994263</ele>
<time>2010-07-17T16:25:11Z</time>
<desc>lat.=55.797077, lon.=26.028791, Alt.=189.994263m. Speed=17.351999m/h.</desc>
<speed>4.820000</speed>
</trkpt>
<trkpt lat="55.797058" lon="26.028858">
<ele>190.654419</ele>
<time>2010-07-17T16:25:12Z</time>
<desc>lat.=55.797058, lon.=26.028858, Alt.=190.654419m. Speed=17.856001m/h.</desc>
<speed>4.960000</speed>
</trkpt>
<trkpt lat="55.797039" lon="26.028915">
<ele>191.787231</ele>
<time>2010-07-17T16:25:13Z</time>
<desc>lat.=55.797039, lon.=26.028915, Alt.=191.787231m. Speed=16.775999m/h.</desc>
<speed>4.660000</speed>
</trkpt>
<trkpt lat="55.797024" lon="26.028988">
<ele>192.373169</ele>
<time>2010-07-17T16:25:14Z</time>
<desc>lat.=55.797024, lon.=26.028988, Alt.=192.373169m. Speed=14.832000m/h.</desc>
<speed>4.120000</speed>
</trkpt>
<trkpt lat="55.796989" lon="26.029064">
<ele>192.802856</ele>
<time>2010-07-17T16:25:15Z</time>
<desc>lat.=55.796989, lon.=26.029064, Alt.=192.802856m. Speed=15.444000m/h.</desc>
<speed>4.290000</speed>
</trkpt>
<trkpt lat="55.796951" lon="26.029150">
<ele>193.298950</ele>
<time>2010-07-17T16:25:16Z</time>
<desc>lat.=55.796951, lon.=26.029150, Alt.=193.298950m. Speed=17.496000m/h.</desc>
<speed>4.860000</speed>
</trkpt>
<trkpt lat="55.796909" lon="26.029224">
<ele>193.783325</ele>
<time>2010-07-17T16:25:17Z</time>
<desc>lat.=55.796909, lon.=26.029224, Alt.=193.783325m. Speed=16.775999m/h.</desc>
<speed>4.660000</speed>
</trkpt>
<trkpt lat="55.796886" lon="26.029310">
<ele>194.806763</ele>
<time>2010-07-17T16:25:18Z</time>
<desc>lat.=55.796886, lon.=26.029310, Alt.=194.806763m. Speed=18.035999m/h.</desc>
<speed>5.010000</speed>
</trkpt>
<trkpt lat="55.796856" lon="26.029373">
<ele>195.275513</ele>
<time>2010-07-17T16:25:19Z</time>
<desc>lat.=55.796856, lon.=26.029373, Alt.=195.275513m. Speed=18.252001m/h.</desc>
<speed>5.070000</speed>
</trkpt>
<trkpt lat="55.796829" lon="26.029434">
<ele>195.900513</ele>
<time>2010-07-17T16:25:20Z</time>
<desc>lat.=55.796829, lon.=26.029434, Alt.=195.900513m. Speed=16.955999m/h.</desc>
<speed>4.710000</speed>
</trkpt>
<trkpt lat="55.796795" lon="26.029501">
<ele>196.474731</ele>
<time>2010-07-17T16:25:21Z</time>
<desc>lat.=55.796795, lon.=26.029501, Alt.=196.474731m. Speed=16.955999m/h.</desc>
<speed>4.710000</speed>
</trkpt>
<trkpt lat="55.796768" lon="26.029560">
<ele>196.978638</ele>
<time>2010-07-17T16:25:22Z</time>
<desc>lat.=55.796768, lon.=26.029560, Alt.=196.978638m. Speed=14.400000m/h.</desc>
<speed>4.000000</speed>
</trkpt>
<trkpt lat="55.796741" lon="26.029604">
<ele>197.650513</ele>
<time>2010-07-17T16:25:23Z</time>
<desc>lat.=55.796741, lon.=26.029604, Alt.=197.650513m. Speed=12.744000m/h.</desc>
<speed>3.540000</speed>
</trkpt>
<trkpt lat="55.796719" lon="26.029644">
<ele>198.338013</ele>
<time>2010-07-17T16:25:24Z</time>
<desc>lat.=55.796719, lon.=26.029644, Alt.=198.338013m. Speed=14.400000m/h.</desc>
<speed>4.000000</speed>
</trkpt>
<trkpt lat="55.796673" lon="26.029701">
<ele>198.888794</ele>
<time>2010-07-17T16:25:25Z</time>
<desc>lat.=55.796673, lon.=26.029701, Alt.=198.888794m. Speed=14.184000m/h.</desc>
<speed>3.940000</speed>
</trkpt>
<trkpt lat="55.796623" lon="26.029764">
<ele>199.732544</ele>
<time>2010-07-17T16:25:26Z</time>
<desc>lat.=55.796623, lon.=26.029764, Alt.=199.732544m. Speed=16.308001m/h.</desc>
<speed>4.530000</speed>
</trkpt>
<trkpt lat="55.796566" lon="26.029835">
<ele>200.505981</ele>
<time>2010-07-17T16:25:27Z</time>
<desc>lat.=55.796566, lon.=26.029835, Alt.=200.505981m. Speed=18.504000m/h.</desc>
<speed>5.140000</speed>
</trkpt>
<trkpt lat="55.796532" lon="26.029888">
<ele>201.189575</ele>
<time>2010-07-17T16:25:28Z</time>
<desc>lat.=55.796532, lon.=26.029888, Alt.=201.189575m. Speed=17.820000m/h.</desc>
<speed>4.950000</speed>
</trkpt>
<trkpt lat="55.796478" lon="26.029968">
<ele>201.611450</ele>
<time>2010-07-17T16:25:29Z</time>
<desc>lat.=55.796478, lon.=26.029968, Alt.=201.611450m. Speed=20.375999m/h.</desc>
<speed>5.660000</speed>
</trkpt>
<trkpt lat="55.796436" lon="26.030046">
<ele>202.298950</ele>
<time>2010-07-17T16:25:30Z</time>
<desc>lat.=55.796436, lon.=26.030046, Alt.=202.298950m. Speed=21.240000m/h.</desc>
<speed>5.900000</speed>
</trkpt>
<trkpt lat="55.796406" lon="26.030117">
<ele>202.931763</ele>
<time>2010-07-17T16:25:31Z</time>
<desc>lat.=55.796406, lon.=26.030117, Alt.=202.931763m. Speed=17.856001m/h.</desc>
<speed>4.960000</speed>
</trkpt>
<trkpt lat="55.796371" lon="26.030184">
<ele>203.459106</ele>
<time>2010-07-17T16:25:32Z</time>
<desc>lat.=55.796371, lon.=26.030184, Alt.=203.459106m. Speed=16.740000m/h.</desc>
<speed>4.650000</speed>
</trkpt>
<trkpt lat="55.796356" lon="26.030239">
<ele>204.900513</ele>
<time>2010-07-17T16:25:33Z</time>
<desc>lat.=55.796356, lon.=26.030239, Alt.=204.900513m. Speed=13.356000m/h.</desc>
<speed>3.710000</speed>
</trkpt>
<trkpt lat="55.796337" lon="26.030287">
<ele>205.802856</ele>
<time>2010-07-17T16:25:34Z</time>
<desc>lat.=55.796337, lon.=26.030287, Alt.=205.802856m. Speed=11.232000m/h.</desc>
<speed>3.120000</speed>
</trkpt>
<trkpt lat="55.796307" lon="26.030344">
<ele>206.482544</ele>
<time>2010-07-17T16:25:35Z</time>
<desc>lat.=55.796307, lon.=26.030344, Alt.=206.482544m. Speed=12.636000m/h.</desc>
<speed>3.510000</speed>
</trkpt>
<trkpt lat="55.796280" lon="26.030386">
<ele>207.209106</ele>
<time>2010-07-17T16:25:36Z</time>
<desc>lat.=55.796280, lon.=26.030386, Alt.=207.209106m. Speed=12.420000m/h.</desc>
<speed>3.450000</speed>
</trkpt>
<trkpt lat="55.796257" lon="26.030451">
<ele>207.752075</ele>
<time>2010-07-17T16:25:37Z</time>
<desc>lat.=55.796257, lon.=26.030451, Alt.=207.752075m. Speed=12.888000m/h.</desc>
<speed>3.580000</speed>
</trkpt>
<trkpt lat="55.796223" lon="26.030521">
<ele>208.111450</ele>
<time>2010-07-17T16:25:38Z</time>
<desc>lat.=55.796223, lon.=26.030521, Alt.=208.111450m. Speed=13.860000m/h.</desc>
<speed>3.850000</speed>
</trkpt>
<trkpt lat="55.796188" lon="26.030588">
<ele>208.443481</ele>
<time>2010-07-17T16:25:39Z</time>
<desc>lat.=55.796188, lon.=26.030588, Alt.=208.443481m. Speed=13.860000m/h.</desc>
<speed>3.850000</speed>
</trkpt>
<trkpt lat="55.796158" lon="26.030657">
<ele>208.716919</ele>
<time>2010-07-17T16:25:40Z</time>
<desc>lat.=55.796158, lon.=26.030657, Alt.=208.716919m. Speed=15.480000m/h.</desc>
<speed>4.300000</speed>
</trkpt>
<trkpt lat="55.796139" lon="26.030748">
<ele>208.834106</ele>
<time>2010-07-17T16:25:41Z</time>
<desc>lat.=55.796139, lon.=26.030748, Alt.=208.834106m. Speed=13.608000m/h.</desc>
<speed>3.780000</speed>
</trkpt>
<trkpt lat="55.796124" lon="26.030834">
<ele>208.744263</ele>
<time>2010-07-17T16:25:42Z</time>
<desc>lat.=55.796124, lon.=26.030834, Alt.=208.744263m. Speed=15.084000m/h.</desc>
<speed>4.190000</speed>
</trkpt>
<trkpt lat="55.796101" lon="26.030888">
<ele>209.084106</ele>
<time>2010-07-17T16:25:43Z</time>
<desc>lat.=55.796101, lon.=26.030888, Alt.=209.084106m. Speed=12.960000m/h.</desc>
<speed>3.600000</speed>
</trkpt>
<trkpt lat="55.796078" lon="26.030928">
<ele>209.009888</ele>
<time>2010-07-17T16:25:44Z</time>
<desc>lat.=55.796078, lon.=26.030928, Alt.=209.009888m. Speed=11.808000m/h.</desc>
<speed>3.280000</speed>
</trkpt>
<trkpt lat="55.796062" lon="26.030964">
<ele>209.607544</ele>
<time>2010-07-17T16:25:45Z</time>
<desc>lat.=55.796062, lon.=26.030964, Alt.=209.607544m. Speed=10.152000m/h.</desc>
<speed>2.820000</speed>
</trkpt>
<trkpt lat="55.796051" lon="26.031029">
<ele>210.248169</ele>
<time>2010-07-17T16:25:46Z</time>
<desc>lat.=55.796051, lon.=26.031029, Alt.=210.248169m. Speed=12.240000m/h.</desc>
<speed>3.400000</speed>
</trkpt>
<trkpt lat="55.796032" lon="26.031071">
<ele>210.916138</ele>
<time>2010-07-17T16:25:47Z</time>
<desc>lat.=55.796032, lon.=26.031071, Alt.=210.916138m. Speed=11.124000m/h.</desc>
<speed>3.090000</speed>
</trkpt>
<trkpt lat="55.796013" lon="26.031122">
<ele>211.763794</ele>
<time>2010-07-17T16:25:48Z</time>
<desc>lat.=55.796013, lon.=26.031122, Alt.=211.763794m. Speed=12.060000m/h.</desc>
<speed>3.350000</speed>
</trkpt>
<trkpt lat="55.796005" lon="26.031195">
<ele>212.537231</ele>
<time>2010-07-17T16:25:49Z</time>
<desc>lat.=55.796005, lon.=26.031195, Alt.=212.537231m. Speed=13.068000m/h.</desc>
<speed>3.630000</speed>
</trkpt>
<trkpt lat="55.795990" lon="26.031225">
<ele>213.095825</ele>
<time>2010-07-17T16:25:50Z</time>
<desc>lat.=55.795990, lon.=26.031225, Alt.=213.095825m. Speed=11.628000m/h.</desc>
<speed>3.230000</speed>
</trkpt>
<trkpt lat="55.795979" lon="26.031265">
<ele>215.966919</ele>
<time>2010-07-17T16:25:51Z</time>
<desc>lat.=55.795979, lon.=26.031265, Alt.=215.966919m. Speed=10.008000m/h.</desc>
<speed>2.780000</speed>
</trkpt>
<trkpt lat="55.795963" lon="26.031296">
<ele>216.775513</ele>
<time>2010-07-17T16:25:52Z</time>
<desc>lat.=55.795963, lon.=26.031296, Alt.=216.775513m. Speed=10.152000m/h.</desc>
<speed>2.820000</speed>
</trkpt>
<trkpt lat="55.795940" lon="26.031328">
<ele>217.369263</ele>
<time>2010-07-17T16:25:53Z</time>
<desc>lat.=55.795940, lon.=26.031328, Alt.=217.369263m. Speed=10.080000m/h.</desc>
<speed>2.800000</speed>
</trkpt>
<trkpt lat="55.795914" lon="26.031370">
<ele>217.896606</ele>
<time>2010-07-17T16:25:54Z</time>
<desc>lat.=55.795914, lon.=26.031370, Alt.=217.896606m. Speed=11.916000m/h.</desc>
<speed>3.310000</speed>
</trkpt>
<trkpt lat="55.795910" lon="26.031429">
<ele>219.427856</ele>
<time>2010-07-17T16:25:55Z</time>
<desc>lat.=55.795910, lon.=26.031429, Alt.=219.427856m. Speed=10.404000m/h.</desc>
<speed>2.890000</speed>
</trkpt>
<trkpt lat="55.795898" lon="26.031494">
<ele>220.607544</ele>
<time>2010-07-17T16:25:56Z</time>
<desc>lat.=55.795898, lon.=26.031494, Alt.=220.607544m. Speed=15.444000m/h.</desc>
<speed>4.290000</speed>
</trkpt>
<trkpt lat="55.795883" lon="26.031551">
<ele>221.986450</ele>
<time>2010-07-17T16:25:57Z</time>
<desc>lat.=55.795883, lon.=26.031551, Alt.=221.986450m. Speed=12.996000m/h.</desc>
<speed>3.610000</speed>
</trkpt>
<trkpt lat="55.795883" lon="26.031656">
<ele>225.295044</ele>
<time>2010-07-17T16:25:58Z</time>
<desc>lat.=55.795883, lon.=26.031656, Alt.=225.295044m. Speed=13.068000m/h.</desc>
<speed>3.630000</speed>
</trkpt>
<trkpt lat="55.795868" lon="26.031721">
<ele>226.541138</ele>
<time>2010-07-17T16:25:59Z</time>
<desc>lat.=55.795868, lon.=26.031721, Alt.=226.541138m. Speed=13.968000m/h.</desc>
<speed>3.880000</speed>
</trkpt>
<trkpt lat="55.795845" lon="26.031778">
<ele>227.720825</ele>
<time>2010-07-17T16:26:00Z</time>
<desc>lat.=55.795845, lon.=26.031778, Alt.=227.720825m. Speed=15.804000m/h.</desc>
<speed>4.390000</speed>
</trkpt>
<trkpt lat="55.795815" lon="26.031849">
<ele>228.662231</ele>
<time>2010-07-17T16:26:01Z</time>
<desc>lat.=55.795815, lon.=26.031849, Alt.=228.662231m. Speed=14.112000m/h.</desc>
<speed>3.920000</speed>
</trkpt>
<trkpt lat="55.795807" lon="26.031914">
<ele>230.216919</ele>
<time>2010-07-17T16:26:02Z</time>
<desc>lat.=55.795807, lon.=26.031914, Alt.=230.216919m. Speed=13.572000m/h.</desc>
<speed>3.770000</speed>
</trkpt>
<trkpt lat="55.795795" lon="26.031969">
<ele>231.455200</ele>
<time>2010-07-17T16:26:03Z</time>
<desc>lat.=55.795795, lon.=26.031969, Alt.=231.455200m. Speed=11.844000m/h.</desc>
<speed>3.290000</speed>
</trkpt>
<trkpt lat="55.795780" lon="26.032022">
<ele>232.681763</ele>
<time>2010-07-17T16:26:04Z</time>
<desc>lat.=55.795780, lon.=26.032022, Alt.=232.681763m. Speed=12.276000m/h.</desc>
<speed>3.410000</speed>
</trkpt>
<trkpt lat="55.795761" lon="26.032074">
<ele>233.392700</ele>
<time>2010-07-17T16:26:05Z</time>
<desc>lat.=55.795761, lon.=26.032074, Alt.=233.392700m. Speed=11.196000m/h.</desc>
<speed>3.110000</speed>
</trkpt>
<trkpt lat="55.795750" lon="26.032122">
<ele>234.380981</ele>
<time>2010-07-17T16:26:06Z</time>
<desc>lat.=55.795750, lon.=26.032122, Alt.=234.380981m. Speed=9.360000m/h.</desc>
<speed>2.600000</speed>
</trkpt>
<trkpt lat="55.795731" lon="26.032166">
<ele>236.177856</ele>
<time>2010-07-17T16:26:07Z</time>
<desc>lat.=55.795731, lon.=26.032166, Alt.=236.177856m. Speed=10.980000m/h.</desc>
<speed>3.050000</speed>
</trkpt>
<trkpt lat="55.795719" lon="26.032223">
<ele>238.603638</ele>
<time>2010-07-17T16:26:08Z</time>
<desc>lat.=55.795719, lon.=26.032223, Alt.=238.603638m. Speed=13.680000m/h.</desc>
<speed>3.800000</speed>
</trkpt>
<trkpt lat="55.795719" lon="26.032288">
<ele>241.197388</ele>
<time>2010-07-17T16:26:09Z</time>
<desc>lat.=55.795719, lon.=26.032288, Alt.=241.197388m. Speed=12.492000m/h.</desc>
<speed>3.470000</speed>
</trkpt>
<trkpt lat="55.795700" lon="26.032358">
<ele>243.115356</ele>
<time>2010-07-17T16:26:10Z</time>
<desc>lat.=55.795700, lon.=26.032358, Alt.=243.115356m. Speed=15.984000m/h.</desc>
<speed>4.440000</speed>
</trkpt>
<trkpt lat="55.795681" lon="26.032425">
<ele>244.088013</ele>
<time>2010-07-17T16:26:11Z</time>
<desc>lat.=55.795681, lon.=26.032425, Alt.=244.088013m. Speed=15.732000m/h.</desc>
<speed>4.370000</speed>
</trkpt>
<trkpt lat="55.795650" lon="26.032501">
<ele>245.470825</ele>
<time>2010-07-17T16:26:12Z</time>
<desc>lat.=55.795650, lon.=26.032501, Alt.=245.470825m. Speed=10.152000m/h.</desc>
<speed>2.820000</speed>
</trkpt>
<trkpt lat="55.795639" lon="26.032579">
<ele>247.791138</ele>
<time>2010-07-17T16:26:13Z</time>
<desc>lat.=55.795639, lon.=26.032579, Alt.=247.791138m. Speed=14.400000m/h.</desc>
<speed>4.000000</speed>
</trkpt>
<trkpt lat="55.795624" lon="26.032635">
<ele>249.025513</ele>
<time>2010-07-17T16:26:14Z</time>
<desc>lat.=55.795624, lon.=26.032635, Alt.=249.025513m. Speed=14.760000m/h.</desc>
<speed>4.100000</speed>
</trkpt>
<trkpt lat="55.795601" lon="26.032696">
<ele>249.912231</ele>
<time>2010-07-17T16:26:15Z</time>
<desc>lat.=55.795601, lon.=26.032696, Alt.=249.912231m. Speed=13.500000m/h.</desc>
<speed>3.750000</speed>
</trkpt>
<trkpt lat="55.795593" lon="26.032753">
<ele>250.572388</ele>
<time>2010-07-17T16:26:16Z</time>
<desc>lat.=55.795593, lon.=26.032753, Alt.=250.572388m. Speed=12.960000m/h.</desc>
<speed>3.600000</speed>
</trkpt>
<trkpt lat="55.795574" lon="26.032816">
<ele>251.447388</ele>
<time>2010-07-17T16:26:17Z</time>
<desc>lat.=55.795574, lon.=26.032816, Alt.=251.447388m. Speed=14.760000m/h.</desc>
<speed>4.100000</speed>
</trkpt>
<trkpt lat="55.795547" lon="26.032885">
<ele>251.752075</ele>
<time>2010-07-17T16:26:18Z</time>
<desc>lat.=55.795547, lon.=26.032885, Alt.=251.752075m. Speed=13.860000m/h.</desc>
<speed>3.850000</speed>
</trkpt>
<trkpt lat="55.795521" lon="26.032946">
<ele>253.377075</ele>
<time>2010-07-17T16:26:19Z</time>
<desc>lat.=55.795521, lon.=26.032946, Alt.=253.377075m. Speed=14.076000m/h.</desc>
<speed>3.910000</speed>
</trkpt>
<trkpt lat="55.795509" lon="26.032997">
<ele>254.759888</ele>
<time>2010-07-17T16:26:20Z</time>
<desc>lat.=55.795509, lon.=26.032997, Alt.=254.759888m. Speed=10.548000m/h.</desc>
<speed>2.930000</speed>
</trkpt>
<trkpt lat="55.795506" lon="26.033051">
<ele>256.363525</ele>
<time>2010-07-17T16:26:21Z</time>
<desc>lat.=55.795506, lon.=26.033051, Alt.=256.363525m. Speed=9.612000m/h.</desc>
<speed>2.670000</speed>
</trkpt>
<trkpt lat="55.795486" lon="26.033104">
<ele>256.629150</ele>
<time>2010-07-17T16:26:22Z</time>
<desc>lat.=55.795486, lon.=26.033104, Alt.=256.629150m. Speed=9.792000m/h.</desc>
<speed>2.720000</speed>
</trkpt>
<trkpt lat="55.795479" lon="26.033138">
<ele>256.949463</ele>
<time>2010-07-17T16:26:23Z</time>
<desc>lat.=55.795479, lon.=26.033138, Alt.=256.949463m. Speed=6.588000m/h.</desc>
<speed>1.830000</speed>
</trkpt>
<trkpt lat="55.795452" lon="26.033180">
<ele>252.443481</ele>
<time>2010-07-17T16:26:24Z</time>
<desc>lat.=55.795452, lon.=26.033180, Alt.=252.443481m. Speed=9.000000m/h.</desc>
<speed>2.500000</speed>
</trkpt>
<trkpt lat="55.795429" lon="26.033222">
<ele>251.533325</ele>
<time>2010-07-17T16:26:25Z</time>
<desc>lat.=55.795429, lon.=26.033222, Alt.=251.533325m. Speed=8.820000m/h.</desc>
<speed>2.450000</speed>
</trkpt>
<trkpt lat="55.795410" lon="26.033262">
<ele>252.334106</ele>
<time>2010-07-17T16:26:26Z</time>
<desc>lat.=55.795410, lon.=26.033262, Alt.=252.334106m. Speed=7.596000m/h.</desc>
<speed>2.110000</speed>
</trkpt>
<trkpt lat="55.795391" lon="26.033295">
<ele>252.681763</ele>
<time>2010-07-17T16:26:27Z</time>
<desc>lat.=55.795391, lon.=26.033295, Alt.=252.681763m. Speed=4.428000m/h.</desc>
<speed>1.230000</speed>
</trkpt>
<trkpt lat="55.795364" lon="26.033331">
<ele>253.388794</ele>
<time>2010-07-17T16:26:28Z</time>
<desc>lat.=55.795364, lon.=26.033331, Alt.=253.388794m. Speed=8.208000m/h.</desc>
<speed>2.280000</speed>
</trkpt>
<trkpt lat="55.795349" lon="26.033363">
<ele>254.064575</ele>
<time>2010-07-17T16:26:29Z</time>
<desc>lat.=55.795349, lon.=26.033363, Alt.=254.064575m. Speed=9.792000m/h.</desc>
<speed>2.720000</speed>
</trkpt>
<trkpt lat="55.795330" lon="26.033398">
<ele>255.646606</ele>
<time>2010-07-17T16:26:30Z</time>
<desc>lat.=55.795330, lon.=26.033398, Alt.=255.646606m. Speed=7.992000m/h.</desc>
<speed>2.220000</speed>
</trkpt>
<trkpt lat="55.795292" lon="26.033447">
<ele>251.533325</ele>
<time>2010-07-17T16:26:31Z</time>
<desc>lat.=55.795292, lon.=26.033447, Alt.=251.533325m. Speed=5.832000m/h.</desc>
<speed>1.620000</speed>
</trkpt>
<trkpt lat="55.795284" lon="26.033457">
<ele>251.654419</ele>
<time>2010-07-17T16:26:32Z</time>
<desc>lat.=55.795284, lon.=26.033457, Alt.=251.654419m. Speed=3.960000m/h.</desc>
<speed>1.100000</speed>
</trkpt>
<trkpt lat="55.795273" lon="26.033463">
<ele>249.263794</ele>
<time>2010-07-17T16:26:33Z</time>
<desc>lat.=55.795273, lon.=26.033463, Alt.=249.263794m. Speed=4.860000m/h.</desc>
<speed>1.350000</speed>
</trkpt>
<trkpt lat="55.795235" lon="26.033487">
<ele>247.380981</ele>
<time>2010-07-17T16:26:34Z</time>
<desc>lat.=55.795235, lon.=26.033487, Alt.=247.380981m. Speed=5.940000m/h.</desc>
<speed>1.650000</speed>
</trkpt>
<trkpt lat="55.795204" lon="26.033529">
<ele>246.720825</ele>
<time>2010-07-17T16:26:35Z</time>
<desc>lat.=55.795204, lon.=26.033529, Alt.=246.720825m. Speed=5.940000m/h.</desc>
<speed>1.650000</speed>
</trkpt>
<trkpt lat="55.795158" lon="26.033552">
<ele>244.255981</ele>
<time>2010-07-17T16:26:36Z</time>
<desc>lat.=55.795158, lon.=26.033552, Alt.=244.255981m. Speed=6.840000m/h.</desc>
<speed>1.900000</speed>
</trkpt>
<trkpt lat="55.795094" lon="26.033606">
<ele>242.443481</ele>
<time>2010-07-17T16:26:37Z</time>
<desc>lat.=55.795094, lon.=26.033606, Alt.=242.443481m. Speed=9.720000m/h.</desc>
<speed>2.700000</speed>
</trkpt>
<trkpt lat="55.795052" lon="26.033648">
<ele>242.470825</ele>
<time>2010-07-17T16:26:38Z</time>
<desc>lat.=55.795052, lon.=26.033648, Alt.=242.470825m. Speed=10.152000m/h.</desc>
<speed>2.820000</speed>
</trkpt>
<trkpt lat="55.794994" lon="26.033701">
<ele>240.158325</ele>
<time>2010-07-17T16:26:39Z</time>
<desc>lat.=55.794994, lon.=26.033701, Alt.=240.158325m. Speed=9.828000m/h.</desc>
<speed>2.730000</speed>
</trkpt>
<trkpt lat="55.794964" lon="26.033735">
<ele>239.384888</ele>
<time>2010-07-17T16:26:40Z</time>
<desc>lat.=55.794964, lon.=26.033735, Alt.=239.384888m. Speed=9.252000m/h.</desc>
<speed>2.570000</speed>
</trkpt>
<trkpt lat="55.794914" lon="26.033754">
<ele>236.017700</ele>
<time>2010-07-17T16:26:41Z</time>
<desc>lat.=55.794914, lon.=26.033754, Alt.=236.017700m. Speed=8.424000m/h.</desc>
<speed>2.340000</speed>
</trkpt>
<trkpt lat="55.794891" lon="26.033766">
<ele>236.697388</ele>
<time>2010-07-17T16:26:42Z</time>
<desc>lat.=55.794891, lon.=26.033766, Alt.=236.697388m. Speed=11.196000m/h.</desc>
<speed>3.110000</speed>
</trkpt>
<trkpt lat="55.794846" lon="26.033815">
<ele>235.810669</ele>
<time>2010-07-17T16:26:43Z</time>
<desc>lat.=55.794846, lon.=26.033815, Alt.=235.810669m. Speed=8.676000m/h.</desc>
<speed>2.410000</speed>
</trkpt>
<trkpt lat="55.794804" lon="26.033861">
<ele>235.588013</ele>
<time>2010-07-17T16:26:44Z</time>
<desc>lat.=55.794804, lon.=26.033861, Alt.=235.588013m. Speed=10.332000m/h.</desc>
<speed>2.870000</speed>
</trkpt>
<trkpt lat="55.794739" lon="26.033911">
<ele>231.814575</ele>
<time>2010-07-17T16:26:45Z</time>
<desc>lat.=55.794739, lon.=26.033911, Alt.=231.814575m. Speed=7.884000m/h.</desc>
<speed>2.190000</speed>
</trkpt>
<trkpt lat="55.794712" lon="26.033924">
<ele>232.232544</ele>
<time>2010-07-17T16:26:46Z</time>
<desc>lat.=55.794712, lon.=26.033924, Alt.=232.232544m. Speed=9.828000m/h.</desc>
<speed>2.730000</speed>
</trkpt>
<trkpt lat="55.794682" lon="26.033937">
<ele>232.654419</ele>
<time>2010-07-17T16:26:47Z</time>
<desc>lat.=55.794682, lon.=26.033937, Alt.=232.654419m. Speed=9.432000m/h.</desc>
<speed>2.620000</speed>
</trkpt>
<trkpt lat="55.794643" lon="26.033968">
<ele>231.853638</ele>
<time>2010-07-17T16:26:48Z</time>
<desc>lat.=55.794643, lon.=26.033968, Alt.=231.853638m. Speed=10.656000m/h.</desc>
<speed>2.960000</speed>
</trkpt>
<trkpt lat="55.794609" lon="26.033997">
<ele>231.584106</ele>
<time>2010-07-17T16:26:49Z</time>
<desc>lat.=55.794609, lon.=26.033997, Alt.=231.584106m. Speed=10.188000m/h.</desc>
<speed>2.830000</speed>
</trkpt>
<trkpt lat="55.794575" lon="26.034014">
<ele>231.162231</ele>
<time>2010-07-17T16:26:50Z</time>
<desc>lat.=55.794575, lon.=26.034014, Alt.=231.162231m. Speed=6.372000m/h.</desc>
<speed>1.770000</speed>
</trkpt>
<trkpt lat="55.794529" lon="26.034054">
<ele>227.869263</ele>
<time>2010-07-17T16:26:51Z</time>
<desc>lat.=55.794529, lon.=26.034054, Alt.=227.869263m. Speed=7.416000m/h.</desc>
<speed>2.060000</speed>
</trkpt>
<trkpt lat="55.794491" lon="26.034071">
<ele>226.556763</ele>
<time>2010-07-17T16:26:52Z</time>
<desc>lat.=55.794491, lon.=26.034071, Alt.=226.556763m. Speed=8.352000m/h.</desc>
<speed>2.320000</speed>
</trkpt>
<trkpt lat="55.794453" lon="26.034081">
<ele>226.826294</ele>
<time>2010-07-17T16:26:53Z</time>
<desc>lat.=55.794453, lon.=26.034081, Alt.=226.826294m. Speed=8.280000m/h.</desc>
<speed>2.300000</speed>
</trkpt>
<trkpt lat="55.794407" lon="26.034060">
<ele>222.884888</ele>
<time>2010-07-17T16:26:54Z</time>
<desc>lat.=55.794407, lon.=26.034060, Alt.=222.884888m. Speed=7.020000m/h.</desc>
<speed>1.950000</speed>
</trkpt>
<trkpt lat="55.794369" lon="26.034069">
<ele>222.365356</ele>
<time>2010-07-17T16:26:55Z</time>
<desc>lat.=55.794369, lon.=26.034069, Alt.=222.365356m. Speed=8.928000m/h.</desc>
<speed>2.480000</speed>
</trkpt>
<trkpt lat="55.794331" lon="26.034079">
<ele>222.248169</ele>
<time>2010-07-17T16:26:56Z</time>
<desc>lat.=55.794331, lon.=26.034079, Alt.=222.248169m. Speed=8.640000m/h.</desc>
<speed>2.400000</speed>
</trkpt>
<trkpt lat="55.794308" lon="26.034081">
<ele>222.154419</ele>
<time>2010-07-17T16:26:57Z</time>
<desc>lat.=55.794308, lon.=26.034081, Alt.=222.154419m. Speed=8.172000m/h.</desc>
<speed>2.270000</speed>
</trkpt>
<trkpt lat="55.794270" lon="26.034098">
<ele>223.154419</ele>
<time>2010-07-17T16:26:58Z</time>
<desc>lat.=55.794270, lon.=26.034098, Alt.=223.154419m. Speed=9.000000m/h.</desc>
<speed>2.500000</speed>
</trkpt>
<trkpt lat="55.794239" lon="26.034109">
<ele>223.107544</ele>
<time>2010-07-17T16:26:59Z</time>
<desc>lat.=55.794239, lon.=26.034109, Alt.=223.107544m. Speed=8.064000m/h.</desc>
<speed>2.240000</speed>
</trkpt>
<trkpt lat="55.794209" lon="26.034119">
<ele>222.693481</ele>
<time>2010-07-17T16:27:00Z</time>
<desc>lat.=55.794209, lon.=26.034119, Alt.=222.693481m. Speed=9.324000m/h.</desc>
<speed>2.590000</speed>
</trkpt>
<trkpt lat="55.794163" lon="26.034132">
<ele>220.861450</ele>
<time>2010-07-17T16:27:01Z</time>
<desc>lat.=55.794163, lon.=26.034132, Alt.=220.861450m. Speed=9.288000m/h.</desc>
<speed>2.580000</speed>
</trkpt>
<trkpt lat="55.794125" lon="26.034136">
<ele>220.052856</ele>
<time>2010-07-17T16:27:02Z</time>
<desc>lat.=55.794125, lon.=26.034136, Alt.=220.052856m. Speed=8.604000m/h.</desc>
<speed>2.390000</speed>
</trkpt>
<trkpt lat="55.794098" lon="26.034132">
<ele>219.912231</ele>
<time>2010-07-17T16:27:03Z</time>
<desc>lat.=55.794098, lon.=26.034132, Alt.=219.912231m. Speed=8.964000m/h.</desc>
<speed>2.490000</speed>
</trkpt>
<trkpt lat="55.794064" lon="26.034132">
<ele>219.744263</ele>
<time>2010-07-17T16:27:04Z</time>
<desc>lat.=55.794064, lon.=26.034132, Alt.=219.744263m. Speed=9.144000m/h.</desc>
<speed>2.540000</speed>
</trkpt>
<trkpt lat="55.794033" lon="26.034130">
<ele>219.576294</ele>
<time>2010-07-17T16:27:05Z</time>
<desc>lat.=55.794033, lon.=26.034130, Alt.=219.576294m. Speed=8.640000m/h.</desc>
<speed>2.400000</speed>
</trkpt>
<trkpt lat="55.794003" lon="26.034132">
<ele>219.744263</ele>
<time>2010-07-17T16:27:06Z</time>
<desc>lat.=55.794003, lon.=26.034132, Alt.=219.744263m. Speed=10.152000m/h.</desc>
<speed>2.820000</speed>
</trkpt>
<trkpt lat="55.793972" lon="26.034136">
<ele>219.966919</ele>
<time>2010-07-17T16:27:07Z</time>
<desc>lat.=55.793972, lon.=26.034136, Alt.=219.966919m. Speed=9.792000m/h.</desc>
<speed>2.720000</speed>
</trkpt>
<trkpt lat="55.793941" lon="26.034142">
<ele>219.908325</ele>
<time>2010-07-17T16:27:08Z</time>
<desc>lat.=55.793941, lon.=26.034142, Alt.=219.908325m. Speed=9.612000m/h.</desc>
<speed>2.670000</speed>
</trkpt>
<trkpt lat="55.793915" lon="26.034145">
<ele>220.009888</ele>
<time>2010-07-17T16:27:09Z</time>
<desc>lat.=55.793915, lon.=26.034145, Alt.=220.009888m. Speed=10.440000m/h.</desc>
<speed>2.900000</speed>
</trkpt>
<trkpt lat="55.793880" lon="26.034147">
<ele>219.920044</ele>
<time>2010-07-17T16:27:10Z</time>
<desc>lat.=55.793880, lon.=26.034147, Alt.=219.920044m. Speed=10.116000m/h.</desc>
<speed>2.810000</speed>
</trkpt>
<trkpt lat="55.793854" lon="26.034147">
<ele>220.201294</ele>
<time>2010-07-17T16:27:11Z</time>
<desc>lat.=55.793854, lon.=26.034147, Alt.=220.201294m. Speed=10.692000m/h.</desc>
<speed>2.970000</speed>
</trkpt>
<trkpt lat="55.793816" lon="26.034147">
<ele>220.095825</ele>
<time>2010-07-17T16:27:12Z</time>
<desc>lat.=55.793816, lon.=26.034147, Alt.=220.095825m. Speed=11.988000m/h.</desc>
<speed>3.330000</speed>
</trkpt>
<trkpt lat="55.793777" lon="26.034149">
<ele>220.267700</ele>
<time>2010-07-17T16:27:13Z</time>
<desc>lat.=55.793777, lon.=26.034149, Alt.=220.267700m. Speed=11.664000m/h.</desc>
<speed>3.240000</speed>
</trkpt>
<trkpt lat="55.793743" lon="26.034153">
<ele>220.431763</ele>
<time>2010-07-17T16:27:14Z</time>
<desc>lat.=55.793743, lon.=26.034153, Alt.=220.431763m. Speed=12.132000m/h.</desc>
<speed>3.370000</speed>
</trkpt>
<trkpt lat="55.793713" lon="26.034157">
<ele>220.545044</ele>
<time>2010-07-17T16:27:15Z</time>
<desc>lat.=55.793713, lon.=26.034157, Alt.=220.545044m. Speed=10.512000m/h.</desc>
<speed>2.920000</speed>
</trkpt>
<trkpt lat="55.793678" lon="26.034159">
<ele>220.646606</ele>
<time>2010-07-17T16:27:16Z</time>
<desc>lat.=55.793678, lon.=26.034159, Alt.=220.646606m. Speed=12.708000m/h.</desc>
<speed>3.530000</speed>
</trkpt>
<trkpt lat="55.793629" lon="26.034157">
<ele>220.357544</ele>
<time>2010-07-17T16:27:17Z</time>
<desc>lat.=55.793629, lon.=26.034157, Alt.=220.357544m. Speed=13.284000m/h.</desc>
<speed>3.690000</speed>
</trkpt>
<trkpt lat="55.793591" lon="26.034151">
<ele>220.529419</ele>
<time>2010-07-17T16:27:18Z</time>
<desc>lat.=55.793591, lon.=26.034151, Alt.=220.529419m. Speed=14.436000m/h.</desc>
<speed>4.010000</speed>
</trkpt>
<trkpt lat="55.793541" lon="26.034151">
<ele>220.107544</ele>
<time>2010-07-17T16:27:19Z</time>
<desc>lat.=55.793541, lon.=26.034151, Alt.=220.107544m. Speed=14.076000m/h.</desc>
<speed>3.910000</speed>
</trkpt>
<trkpt lat="55.793507" lon="26.034149">
<ele>220.451294</ele>
<time>2010-07-17T16:27:20Z</time>
<desc>lat.=55.793507, lon.=26.034149, Alt.=220.451294m. Speed=13.212000m/h.</desc>
<speed>3.670000</speed>
</trkpt>
<trkpt lat="55.793457" lon="26.034149">
<ele>219.826294</ele>
<time>2010-07-17T16:27:21Z</time>
<desc>lat.=55.793457, lon.=26.034149, Alt.=219.826294m. Speed=13.860000m/h.</desc>
<speed>3.850000</speed>
</trkpt>
<trkpt lat="55.793415" lon="26.034145">
<ele>219.650513</ele>
<time>2010-07-17T16:27:22Z</time>
<desc>lat.=55.793415, lon.=26.034145, Alt.=219.650513m. Speed=13.212000m/h.</desc>
<speed>3.670000</speed>
</trkpt>
<trkpt lat="55.793369" lon="26.034138">
<ele>219.291138</ele>
<time>2010-07-17T16:27:23Z</time>
<desc>lat.=55.793369, lon.=26.034138, Alt.=219.291138m. Speed=11.988000m/h.</desc>
<speed>3.330000</speed>
</trkpt>
<trkpt lat="55.793331" lon="26.034128">
<ele>218.423950</ele>
<time>2010-07-17T16:27:24Z</time>
<desc>lat.=55.793331, lon.=26.034128, Alt.=218.423950m. Speed=10.584000m/h.</desc>
<speed>2.940000</speed>
</trkpt>
<trkpt lat="55.793297" lon="26.034126">
<ele>218.099731</ele>
<time>2010-07-17T16:27:25Z</time>
<desc>lat.=55.793297, lon.=26.034126, Alt.=218.099731m. Speed=11.844000m/h.</desc>
<speed>3.290000</speed>
</trkpt>
<trkpt lat="55.793255" lon="26.034130">
<ele>217.189575</ele>
<time>2010-07-17T16:27:26Z</time>
<desc>lat.=55.793255, lon.=26.034130, Alt.=217.189575m. Speed=10.512000m/h.</desc>
<speed>2.920000</speed>
</trkpt>
<trkpt lat="55.793213" lon="26.034128">
<ele>216.209106</ele>
<time>2010-07-17T16:27:27Z</time>
<desc>lat.=55.793213, lon.=26.034128, Alt.=216.209106m. Speed=7.848000m/h.</desc>
<speed>2.180000</speed>
</trkpt>
<trkpt lat="55.793201" lon="26.034121">
<ele>215.763794</ele>
<time>2010-07-17T16:27:28Z</time>
<desc>lat.=55.793201, lon.=26.034121, Alt.=215.763794m. Speed=3.312000m/h.</desc>
<speed>0.920000</speed>
</trkpt>
<trkpt lat="55.793194" lon="26.034121">
<ele>215.521606</ele>
<time>2010-07-17T16:27:29Z</time>
<desc>lat.=55.793194, lon.=26.034121, Alt.=215.521606m. Speed=0.684000m/h.</desc>
<speed>0.190000</speed>
</trkpt>
<trkpt lat="55.793194" lon="26.034119">
<ele>215.088013</ele>
<time>2010-07-17T16:27:30Z</time>
<desc>lat.=55.793194, lon.=26.034119, Alt.=215.088013m. Speed=0.720000m/h.</desc>
<speed>0.200000</speed>
</trkpt>
<trkpt lat="55.793190" lon="26.034117">
<ele>214.423950</ele>
<time>2010-07-17T16:27:31Z</time>
<desc>lat.=55.793190, lon.=26.034117, Alt.=214.423950m. Speed=0.612000m/h.</desc>
<speed>0.170000</speed>
</trkpt>
<trkpt lat="55.793186" lon="26.034115">
<ele>214.455200</ele>
<time>2010-07-17T16:27:32Z</time>
<desc>lat.=55.793186, lon.=26.034115, Alt.=214.455200m. Speed=1.476000m/h.</desc>
<speed>0.410000</speed>
</trkpt>
<trkpt lat="55.793182" lon="26.034113">
<ele>214.463013</ele>
<time>2010-07-17T16:27:33Z</time>
<desc>lat.=55.793182, lon.=26.034113, Alt.=214.463013m. Speed=1.260000m/h.</desc>
<speed>0.350000</speed>
</trkpt>
<trkpt lat="55.793179" lon="26.034113">
<ele>214.466919</ele>
<time>2010-07-17T16:27:34Z</time>
<desc>lat.=55.793179, lon.=26.034113, Alt.=214.466919m. Speed=1.116000m/h.</desc>
<speed>0.310000</speed>
</trkpt>
<trkpt lat="55.793179" lon="26.034113">
<ele>214.459106</ele>
<time>2010-07-17T16:27:35Z</time>
<desc>lat.=55.793179, lon.=26.034113, Alt.=214.459106m. Speed=0.576000m/h.</desc>
<speed>0.160000</speed>
</trkpt>
<trkpt lat="55.793175" lon="26.034115">
<ele>214.451294</ele>
<time>2010-07-17T16:27:36Z</time>
<desc>lat.=55.793175, lon.=26.034115, Alt.=214.451294m. Speed=0.720000m/h.</desc>
<speed>0.200000</speed>
</trkpt>
<trkpt lat="55.793175" lon="26.034117">
<ele>214.447388</ele>
<time>2010-07-17T16:27:37Z</time>
<desc>lat.=55.793175, lon.=26.034117, Alt.=214.447388m. Speed=0.180000m/h.</desc>
<speed>0.050000</speed>
</trkpt>
<trkpt lat="55.793175" lon="26.034117">
<ele>214.443481</ele>
<time>2010-07-17T16:27:38Z</time>
<desc>lat.=55.793175, lon.=26.034117, Alt.=214.443481m. Speed=0.324000m/h.</desc>
<speed>0.090000</speed>
</trkpt>
<trkpt lat="55.793171" lon="26.034115">
<ele>214.439575</ele>
<time>2010-07-17T16:27:39Z</time>
<desc>lat.=55.793171, lon.=26.034115, Alt.=214.439575m. Speed=0.756000m/h.</desc>
<speed>0.210000</speed>
</trkpt>
<trkpt lat="55.793171" lon="26.034113">
<ele>214.435669</ele>
<time>2010-07-17T16:27:40Z</time>
<desc>lat.=55.793171, lon.=26.034113, Alt.=214.435669m. Speed=0.504000m/h.</desc>
<speed>0.140000</speed>
</trkpt>
<trkpt lat="55.793171" lon="26.034113">
<ele>214.423950</ele>
<time>2010-07-17T16:27:41Z</time>
<desc>lat.=55.793171, lon.=26.034113, Alt.=214.423950m. Speed=0.504000m/h.</desc>
<speed>0.140000</speed>
</trkpt>
<trkpt lat="55.793167" lon="26.034113">
<ele>214.412231</ele>
<time>2010-07-17T16:27:42Z</time>
<desc>lat.=55.793167, lon.=26.034113, Alt.=214.412231m. Speed=0.792000m/h.</desc>
<speed>0.220000</speed>
</trkpt>
<trkpt lat="55.793167" lon="26.034113">
<ele>214.400513</ele>
<time>2010-07-17T16:27:43Z</time>
<desc>lat.=55.793167, lon.=26.034113, Alt.=214.400513m. Speed=0.756000m/h.</desc>
<speed>0.210000</speed>
</trkpt>
<trkpt lat="55.793163" lon="26.034111">
<ele>214.388794</ele>
<time>2010-07-17T16:27:44Z</time>
<desc>lat.=55.793163, lon.=26.034111, Alt.=214.388794m. Speed=0.864000m/h.</desc>
<speed>0.240000</speed>
</trkpt>
<trkpt lat="55.793159" lon="26.034107">
<ele>214.349731</ele>
<time>2010-07-17T16:27:45Z</time>
<desc>lat.=55.793159, lon.=26.034107, Alt.=214.349731m. Speed=1.332000m/h.</desc>
<speed>0.370000</speed>
</trkpt>
<trkpt lat="55.793159" lon="26.034105">
<ele>214.330200</ele>
<time>2010-07-17T16:27:46Z</time>
<desc>lat.=55.793159, lon.=26.034105, Alt.=214.330200m. Speed=1.368000m/h.</desc>
<speed>0.380000</speed>
</trkpt>
<trkpt lat="55.793156" lon="26.034103">
<ele>214.314575</ele>
<time>2010-07-17T16:27:47Z</time>
<desc>lat.=55.793156, lon.=26.034103, Alt.=214.314575m. Speed=1.044000m/h.</desc>
<speed>0.290000</speed>
</trkpt>
<trkpt lat="55.793152" lon="26.034101">
<ele>214.310669</ele>
<time>2010-07-17T16:27:48Z</time>
<desc>lat.=55.793152, lon.=26.034101, Alt.=214.310669m. Speed=1.260000m/h.</desc>
<speed>0.350000</speed>
</trkpt>
<trkpt lat="55.793148" lon="26.034100">
<ele>214.291138</ele>
<time>2010-07-17T16:27:49Z</time>
<desc>lat.=55.793148, lon.=26.034100, Alt.=214.291138m. Speed=0.432000m/h.</desc>
<speed>0.120000</speed>
</trkpt>
<trkpt lat="55.793148" lon="26.034100">
<ele>214.267700</ele>
<time>2010-07-17T16:27:50Z</time>
<desc>lat.=55.793148, lon.=26.034100, Alt.=214.267700m. Speed=0.396000m/h.</desc>
<speed>0.110000</speed>
</trkpt>
<trkpt lat="55.793144" lon="26.034100">
<ele>214.252075</ele>
<time>2010-07-17T16:27:51Z</time>
<desc>lat.=55.793144, lon.=26.034100, Alt.=214.252075m. Speed=0.252000m/h.</desc>
<speed>0.070000</speed>
</trkpt>
<trkpt lat="55.793144" lon="26.034100">
<ele>214.232544</ele>
<time>2010-07-17T16:27:52Z</time>
<desc>lat.=55.793144, lon.=26.034100, Alt.=214.232544m. Speed=0.324000m/h.</desc>
<speed>0.090000</speed>
</trkpt>
<trkpt lat="55.793144" lon="26.034098">
<ele>214.216919</ele>
<time>2010-07-17T16:27:53Z</time>
<desc>lat.=55.793144, lon.=26.034098, Alt.=214.216919m. Speed=0.360000m/h.</desc>
<speed>0.100000</speed>
</trkpt>
<trkpt lat="55.793144" lon="26.034096">
<ele>214.201294</ele>
<time>2010-07-17T16:27:54Z</time>
<desc>lat.=55.793144, lon.=26.034096, Alt.=214.201294m. Speed=0.468000m/h.</desc>
<speed>0.130000</speed>
</trkpt>
<trkpt lat="55.793144" lon="26.034094">
<ele>214.158325</ele>
<time>2010-07-17T16:27:55Z</time>
<desc>lat.=55.793144, lon.=26.034094, Alt.=214.158325m. Speed=0.252000m/h.</desc>
<speed>0.070000</speed>
</trkpt>
<trkpt lat="55.793140" lon="26.034094">
<ele>214.123169</ele>
<time>2010-07-17T16:27:56Z</time>
<desc>lat.=55.793140, lon.=26.034094, Alt.=214.123169m. Speed=0.108000m/h.</desc>
<speed>0.030000</speed>
</trkpt>
<trkpt lat="55.793140" lon="26.034094">
<ele>214.111450</ele>
<time>2010-07-17T16:27:57Z</time>
<desc>lat.=55.793140, lon.=26.034094, Alt.=214.111450m. Speed=0.144000m/h.</desc>
<speed>0.040000</speed>
</trkpt>
<trkpt lat="55.793140" lon="26.034092">
<ele>214.099731</ele>
<time>2010-07-17T16:27:58Z</time>
<desc>lat.=55.793140, lon.=26.034092, Alt.=214.099731m. Speed=0.180000m/h.</desc>
<speed>0.050000</speed>
</trkpt>
<trkpt lat="55.793140" lon="26.034092">
<ele>214.068481</ele>
<time>2010-07-17T16:27:59Z</time>
<desc>lat.=55.793140, lon.=26.034092, Alt.=214.068481m. Speed=0.144000m/h.</desc>
<speed>0.040000</speed>
</trkpt>
<trkpt lat="55.793140" lon="26.034092">
<ele>214.037231</ele>
<time>2010-07-17T16:28:00Z</time>
<desc>lat.=55.793140, lon.=26.034092, Alt.=214.037231m. Speed=0.036000m/h.</desc>
<speed>0.010000</speed>
</trkpt>
<trkpt lat="55.793140" lon="26.034092">
<ele>214.013794</ele>
<time>2010-07-17T16:28:01Z</time>
<desc>lat.=55.793140, lon.=26.034092, Alt.=214.013794m. Speed=0.468000m/h.</desc>
<speed>0.130000</speed>
</trkpt>
<trkpt lat="55.793140" lon="26.034092">
<ele>213.990356</ele>
<time>2010-07-17T16:28:02Z</time>
<desc>lat.=55.793140, lon.=26.034092, Alt.=213.990356m. Speed=0.756000m/h.</desc>
<speed>0.210000</speed>
</trkpt>
<trkpt lat="55.793137" lon="26.034092">
<ele>213.974731</ele>
<time>2010-07-17T16:28:03Z</time>
<desc>lat.=55.793137, lon.=26.034092, Alt.=213.974731m. Speed=0.684000m/h.</desc>
<speed>0.190000</speed>
</trkpt>
<trkpt lat="55.793137" lon="26.034094">
<ele>213.970825</ele>
<time>2010-07-17T16:28:04Z</time>
<desc>lat.=55.793137, lon.=26.034094, Alt.=213.970825m. Speed=0.468000m/h.</desc>
<speed>0.130000</speed>
</trkpt>
<trkpt lat="55.793133" lon="26.034094">
<ele>213.970825</ele>
<time>2010-07-17T16:28:05Z</time>
<desc>lat.=55.793133, lon.=26.034094, Alt.=213.970825m. Speed=0.252000m/h.</desc>
<speed>0.070000</speed>
</trkpt>
<trkpt lat="55.793133" lon="26.034094">
<ele>213.970825</ele>
<time>2010-07-17T16:28:06Z</time>
<desc>lat.=55.793133, lon.=26.034094, Alt.=213.970825m. Speed=0.180000m/h.</desc>
<speed>0.050000</speed>
</trkpt>
<trkpt lat="55.793133" lon="26.034094">
<ele>213.970825</ele>
<time>2010-07-17T16:28:07Z</time>
<desc>lat.=55.793133, lon.=26.034094, Alt.=213.970825m. Speed=0.468000m/h.</desc>
<speed>0.130000</speed>
</trkpt>
<trkpt lat="55.793133" lon="26.034096">
<ele>213.963013</ele>
<time>2010-07-17T16:28:08Z</time>
<desc>lat.=55.793133, lon.=26.034096, Alt.=213.963013m. Speed=0.360000m/h.</desc>
<speed>0.100000</speed>
</trkpt>
<trkpt lat="55.793129" lon="26.034098">
<ele>213.959106</ele>
<time>2010-07-17T16:28:09Z</time>
<desc>lat.=55.793129, lon.=26.034098, Alt.=213.959106m. Speed=0.252000m/h.</desc>
<speed>0.070000</speed>
</trkpt>
<trkpt lat="55.793129" lon="26.034098">
<ele>213.947388</ele>
<time>2010-07-17T16:28:10Z</time>
<desc>lat.=55.793129, lon.=26.034098, Alt.=213.947388m. Speed=0.468000m/h.</desc>
<speed>0.130000</speed>
</trkpt>
<trkpt lat="55.793129" lon="26.034101">
<ele>213.939575</ele>
<time>2010-07-17T16:28:11Z</time>
<desc>lat.=55.793129, lon.=26.034101, Alt.=213.939575m. Speed=0.324000m/h.</desc>
<speed>0.090000</speed>
</trkpt>
<trkpt lat="55.793129" lon="26.034101">
<ele>213.935669</ele>
<time>2010-07-17T16:28:12Z</time>
<desc>lat.=55.793129, lon.=26.034101, Alt.=213.935669m. Speed=0.360000m/h.</desc>
<speed>0.100000</speed>
</trkpt>
<trkpt lat="55.793129" lon="26.034103">
<ele>213.935669</ele>
<time>2010-07-17T16:28:13Z</time>
<desc>lat.=55.793129, lon.=26.034103, Alt.=213.935669m. Speed=1.368000m/h.</desc>
<speed>0.380000</speed>
</trkpt>
<trkpt lat="55.793129" lon="26.034098">
<ele>213.943481</ele>
<time>2010-07-17T16:28:14Z</time>
<desc>lat.=55.793129, lon.=26.034098, Alt.=213.943481m. Speed=1.044000m/h.</desc>
<speed>0.290000</speed>
</trkpt>
<trkpt lat="55.793133" lon="26.034094">
<ele>213.947388</ele>
<time>2010-07-17T16:28:15Z</time>
<desc>lat.=55.793133, lon.=26.034094, Alt.=213.947388m. Speed=0.828000m/h.</desc>
<speed>0.230000</speed>
</trkpt>
<trkpt lat="55.793133" lon="26.034090">
<ele>213.943481</ele>
<time>2010-07-17T16:28:16Z</time>
<desc>lat.=55.793133, lon.=26.034090, Alt.=213.943481m. Speed=0.864000m/h.</desc>
<speed>0.240000</speed>
</trkpt>
<trkpt lat="55.793133" lon="26.034086">
<ele>213.939575</ele>
<time>2010-07-17T16:28:17Z</time>
<desc>lat.=55.793133, lon.=26.034086, Alt.=213.939575m. Speed=0.576000m/h.</desc>
<speed>0.160000</speed>
</trkpt>
<trkpt lat="55.793133" lon="26.034084">
<ele>213.923950</ele>
<time>2010-07-17T16:28:18Z</time>
<desc>lat.=55.793133, lon.=26.034084, Alt.=213.923950m. Speed=0.252000m/h.</desc>
<speed>0.070000</speed>
</trkpt>
<trkpt lat="55.793133" lon="26.034082">
<ele>213.884888</ele>
<time>2010-07-17T16:28:19Z</time>
<desc>lat.=55.793133, lon.=26.034082, Alt.=213.884888m. Speed=0.180000m/h.</desc>
<speed>0.050000</speed>
</trkpt>
<trkpt lat="55.793133" lon="26.034082">
<ele>213.880981</ele>
<time>2010-07-17T16:28:20Z</time>
<desc>lat.=55.793133, lon.=26.034082, Alt.=213.880981m. Speed=0.180000m/h.</desc>
<speed>0.050000</speed>
</trkpt>
<trkpt lat="55.793133" lon="26.034081">
<ele>213.841919</ele>
<time>2010-07-17T16:28:21Z</time>
<desc>lat.=55.793133, lon.=26.034081, Alt.=213.841919m. Speed=0.468000m/h.</desc>
<speed>0.130000</speed>
</trkpt>
<trkpt lat="55.793133" lon="26.034079">
<ele>213.838013</ele>
<time>2010-07-17T16:28:22Z</time>
<desc>lat.=55.793133, lon.=26.034079, Alt.=213.838013m. Speed=0.540000m/h.</desc>
<speed>0.150000</speed>
</trkpt>
<trkpt lat="55.793133" lon="26.034077">
<ele>213.802856</ele>
<time>2010-07-17T16:28:23Z</time>
<desc>lat.=55.793133, lon.=26.034077, Alt.=213.802856m. Speed=0.108000m/h.</desc>
<speed>0.030000</speed>
</trkpt>
<trkpt lat="55.793133" lon="26.034077">
<ele>213.798950</ele>
<time>2010-07-17T16:28:24Z</time>
<desc>lat.=55.793133, lon.=26.034077, Alt.=213.798950m. Speed=0.072000m/h.</desc>
<speed>0.020000</speed>
</trkpt>
<trkpt lat="55.793133" lon="26.034077">
<ele>213.802856</ele>
<time>2010-07-17T16:28:25Z</time>
<desc>lat.=55.793133, lon.=26.034077, Alt.=213.802856m. Speed=0.108000m/h.</desc>
<speed>0.030000</speed>
</trkpt>
<trkpt lat="55.793133" lon="26.034079">
<ele>213.802856</ele>
<time>2010-07-17T16:28:26Z</time>
<desc>lat.=55.793133, lon.=26.034079, Alt.=213.802856m. Speed=0.828000m/h.</desc>
<speed>0.230000</speed>
</trkpt>
<trkpt lat="55.793133" lon="26.034079">
<ele>213.798950</ele>
<time>2010-07-17T16:28:27Z</time>
<desc>lat.=55.793133, lon.=26.034079, Alt.=213.798950m. Speed=0.972000m/h.</desc>
<speed>0.270000</speed>
</trkpt>
<trkpt lat="55.793129" lon="26.034079">
<ele>213.802856</ele>
<time>2010-07-17T16:28:28Z</time>
<desc>lat.=55.793129, lon.=26.034079, Alt.=213.802856m. Speed=0.972000m/h.</desc>
<speed>0.270000</speed>
</trkpt>
<trkpt lat="55.793125" lon="26.034081">
<ele>213.806763</ele>
<time>2010-07-17T16:28:29Z</time>
<desc>lat.=55.793125, lon.=26.034081, Alt.=213.806763m. Speed=1.260000m/h.</desc>
<speed>0.350000</speed>
</trkpt>
<trkpt lat="55.793129" lon="26.034075">
<ele>213.810669</ele>
<time>2010-07-17T16:28:30Z</time>
<desc>lat.=55.793129, lon.=26.034075, Alt.=213.810669m. Speed=0.504000m/h.</desc>
<speed>0.140000</speed>
</trkpt>
<trkpt lat="55.793129" lon="26.034073">
<ele>213.810669</ele>
<time>2010-07-17T16:28:31Z</time>
<desc>lat.=55.793129, lon.=26.034073, Alt.=213.810669m. Speed=0.540000m/h.</desc>
<speed>0.150000</speed>
</trkpt>
<trkpt lat="55.793125" lon="26.034071">
<ele>213.810669</ele>
<time>2010-07-17T16:28:32Z</time>
<desc>lat.=55.793125, lon.=26.034071, Alt.=213.810669m. Speed=0.468000m/h.</desc>
<speed>0.130000</speed>
</trkpt>
<trkpt lat="55.793125" lon="26.034069">
<ele>213.802856</ele>
<time>2010-07-17T16:28:33Z</time>
<desc>lat.=55.793125, lon.=26.034069, Alt.=213.802856m. Speed=0.252000m/h.</desc>
<speed>0.070000</speed>
</trkpt>
<trkpt lat="55.793125" lon="26.034067">
<ele>213.802856</ele>
<time>2010-07-17T16:28:34Z</time>
<desc>lat.=55.793125, lon.=26.034067, Alt.=213.802856m. Speed=0.288000m/h.</desc>
<speed>0.080000</speed>
</trkpt>
<trkpt lat="55.793125" lon="26.034067">
<ele>213.802856</ele>
<time>2010-07-17T16:28:35Z</time>
<desc>lat.=55.793125, lon.=26.034067, Alt.=213.802856m. Speed=0.324000m/h.</desc>
<speed>0.090000</speed>
</trkpt>
<trkpt lat="55.793125" lon="26.034065">
<ele>213.798950</ele>
<time>2010-07-17T16:28:36Z</time>
<desc>lat.=55.793125, lon.=26.034065, Alt.=213.798950m. Speed=0.108000m/h.</desc>
<speed>0.030000</speed>
</trkpt>
<trkpt lat="55.793125" lon="26.034065">
<ele>213.798950</ele>
<time>2010-07-17T16:28:37Z</time>
<desc>lat.=55.793125, lon.=26.034065, Alt.=213.798950m. Speed=0.360000m/h.</desc>
<speed>0.100000</speed>
</trkpt>
<trkpt lat="55.793125" lon="26.034065">
<ele>213.791138</ele>
<time>2010-07-17T16:28:38Z</time>
<desc>lat.=55.793125, lon.=26.034065, Alt.=213.791138m. Speed=0.612000m/h.</desc>
<speed>0.170000</speed>
</trkpt>
<trkpt lat="55.793125" lon="26.034061">
<ele>213.787231</ele>
<time>2010-07-17T16:28:39Z</time>
<desc>lat.=55.793125, lon.=26.034061, Alt.=213.787231m. Speed=0.540000m/h.</desc>
<speed>0.150000</speed>
</trkpt>
<trkpt lat="55.793125" lon="26.034060">
<ele>213.787231</ele>
<time>2010-07-17T16:28:40Z</time>
<desc>lat.=55.793125, lon.=26.034060, Alt.=213.787231m. Speed=0.792000m/h.</desc>
<speed>0.220000</speed>
</trkpt>
<trkpt lat="55.793125" lon="26.034063">
<ele>213.779419</ele>
<time>2010-07-17T16:28:41Z</time>
<desc>lat.=55.793125, lon.=26.034063, Alt.=213.779419m. Speed=0.540000m/h.</desc>
<speed>0.150000</speed>
</trkpt>
<trkpt lat="55.793121" lon="26.034065">
<ele>213.775513</ele>
<time>2010-07-17T16:28:42Z</time>
<desc>lat.=55.793121, lon.=26.034065, Alt.=213.775513m. Speed=1.404000m/h.</desc>
<speed>0.390000</speed>
</trkpt>
<trkpt lat="55.793121" lon="26.034060">
<ele>213.779419</ele>
<time>2010-07-17T16:28:43Z</time>
<desc>lat.=55.793121, lon.=26.034060, Alt.=213.779419m. Speed=1.620000m/h.</desc>
<speed>0.450000</speed>
</trkpt>
<trkpt lat="55.793121" lon="26.034054">
<ele>213.802856</ele>
<time>2010-07-17T16:28:44Z</time>
<desc>lat.=55.793121, lon.=26.034054, Alt.=213.802856m. Speed=2.592000m/h.</desc>
<speed>0.720000</speed>
</trkpt>
<trkpt lat="55.793114" lon="26.034058">
<ele>213.818481</ele>
<time>2010-07-17T16:28:45Z</time>
<desc>lat.=55.793114, lon.=26.034058, Alt.=213.818481m. Speed=3.960000m/h.</desc>
<speed>1.100000</speed>
</trkpt>
<trkpt lat="55.793079" lon="26.034056">
<ele>213.170044</ele>
<time>2010-07-17T16:28:46Z</time>
<desc>lat.=55.793079, lon.=26.034056, Alt.=213.170044m. Speed=5.796000m/h.</desc>
<speed>1.610000</speed>
</trkpt>
<trkpt lat="55.793041" lon="26.034008">
<ele>212.138794</ele>
<time>2010-07-17T16:28:47Z</time>
<desc>lat.=55.793041, lon.=26.034008, Alt.=212.138794m. Speed=6.876000m/h.</desc>
<speed>1.910000</speed>
</trkpt>
<trkpt lat="55.793026" lon="26.034002">
<ele>212.005981</ele>
<time>2010-07-17T16:28:48Z</time>
<desc>lat.=55.793026, lon.=26.034002, Alt.=212.005981m. Speed=6.552000m/h.</desc>
<speed>1.820000</speed>
</trkpt>
<trkpt lat="55.792999" lon="26.033993">
<ele>211.841919</ele>
<time>2010-07-17T16:28:49Z</time>
<desc>lat.=55.792999, lon.=26.033993, Alt.=211.841919m. Speed=9.108000m/h.</desc>
<speed>2.530000</speed>
</trkpt>
<trkpt lat="55.792965" lon="26.034000">
<ele>211.400513</ele>
<time>2010-07-17T16:28:50Z</time>
<desc>lat.=55.792965, lon.=26.034000, Alt.=211.400513m. Speed=11.520000m/h.</desc>
<speed>3.200000</speed>
</trkpt>
<trkpt lat="55.792923" lon="26.033998">
<ele>210.595825</ele>
<time>2010-07-17T16:28:51Z</time>
<desc>lat.=55.792923, lon.=26.033998, Alt.=210.595825m. Speed=14.508000m/h.</desc>
<speed>4.030000</speed>
</trkpt>
<trkpt lat="55.792885" lon="26.033991">
<ele>210.322388</ele>
<time>2010-07-17T16:28:52Z</time>
<desc>lat.=55.792885, lon.=26.033991, Alt.=210.322388m. Speed=14.868000m/h.</desc>
<speed>4.130000</speed>
</trkpt>
<trkpt lat="55.792847" lon="26.033987">
<ele>209.978638</ele>
<time>2010-07-17T16:28:53Z</time>
<desc>lat.=55.792847, lon.=26.033987, Alt.=209.978638m. Speed=14.832000m/h.</desc>
<speed>4.120000</speed>
</trkpt>
<trkpt lat="55.792805" lon="26.033989">
<ele>209.947388</ele>
<time>2010-07-17T16:28:54Z</time>
<desc>lat.=55.792805, lon.=26.033989, Alt.=209.947388m. Speed=15.264000m/h.</desc>
<speed>4.240000</speed>
</trkpt>
<trkpt lat="55.792767" lon="26.033993">
<ele>209.814575</ele>
<time>2010-07-17T16:28:55Z</time>
<desc>lat.=55.792767, lon.=26.033993, Alt.=209.814575m. Speed=14.688000m/h.</desc>
<speed>4.080000</speed>
</trkpt>
<trkpt lat="55.792725" lon="26.033991">
<ele>209.709106</ele>
<time>2010-07-17T16:28:56Z</time>
<desc>lat.=55.792725, lon.=26.033991, Alt.=209.709106m. Speed=15.768000m/h.</desc>
<speed>4.380000</speed>
</trkpt>
<trkpt lat="55.792683" lon="26.033987">
<ele>209.634888</ele>
<time>2010-07-17T16:28:57Z</time>
<desc>lat.=55.792683, lon.=26.033987, Alt.=209.634888m. Speed=16.704000m/h.</desc>
<speed>4.640000</speed>
</trkpt>
<trkpt lat="55.792641" lon="26.033987">
<ele>209.548950</ele>
<time>2010-07-17T16:28:58Z</time>
<desc>lat.=55.792641, lon.=26.033987, Alt.=209.548950m. Speed=15.480000m/h.</desc>
<speed>4.300000</speed>
</trkpt>
<trkpt lat="55.792603" lon="26.033985">
<ele>209.502075</ele>
<time>2010-07-17T16:28:59Z</time>
<desc>lat.=55.792603, lon.=26.033985, Alt.=209.502075m. Speed=13.752000m/h.</desc>
<speed>3.820000</speed>
</trkpt>
<trkpt lat="55.792561" lon="26.033976">
<ele>209.494263</ele>
<time>2010-07-17T16:29:00Z</time>
<desc>lat.=55.792561, lon.=26.033976, Alt.=209.494263m. Speed=14.796000m/h.</desc>
<speed>4.110000</speed>
</trkpt>
<trkpt lat="55.792522" lon="26.033966">
<ele>209.377075</ele>
<time>2010-07-17T16:29:01Z</time>
<desc>lat.=55.792522, lon.=26.033966, Alt.=209.377075m. Speed=12.492000m/h.</desc>
<speed>3.470000</speed>
</trkpt>
<trkpt lat="55.792488" lon="26.033955">
<ele>209.213013</ele>
<time>2010-07-17T16:29:02Z</time>
<desc>lat.=55.792488, lon.=26.033955, Alt.=209.213013m. Speed=12.348000m/h.</desc>
<speed>3.430000</speed>
</trkpt>
<trkpt lat="55.792446" lon="26.033932">
<ele>209.150513</ele>
<time>2010-07-17T16:29:03Z</time>
<desc>lat.=55.792446, lon.=26.033932, Alt.=209.150513m. Speed=11.520000m/h.</desc>
<speed>3.200000</speed>
</trkpt>
<trkpt lat="55.792412" lon="26.033924">
<ele>209.060669</ele>
<time>2010-07-17T16:29:04Z</time>
<desc>lat.=55.792412, lon.=26.033924, Alt.=209.060669m. Speed=11.016000m/h.</desc>
<speed>3.060000</speed>
</trkpt>
<trkpt lat="55.792381" lon="26.033930">
<ele>209.068481</ele>
<time>2010-07-17T16:29:05Z</time>
<desc>lat.=55.792381, lon.=26.033930, Alt.=209.068481m. Speed=10.980000m/h.</desc>
<speed>3.050000</speed>
</trkpt>
<trkpt lat="55.792347" lon="26.033930">
<ele>208.982544</ele>
<time>2010-07-17T16:29:06Z</time>
<desc>lat.=55.792347, lon.=26.033930, Alt.=208.982544m. Speed=12.456000m/h.</desc>
<speed>3.460000</speed>
</trkpt>
<trkpt lat="55.792313" lon="26.033932">
<ele>208.830200</ele>
<time>2010-07-17T16:29:07Z</time>
<desc>lat.=55.792313, lon.=26.033932, Alt.=208.830200m. Speed=12.024000m/h.</desc>
<speed>3.340000</speed>
</trkpt>
<trkpt lat="55.792278" lon="26.033932">
<ele>208.814575</ele>
<time>2010-07-17T16:29:08Z</time>
<desc>lat.=55.792278, lon.=26.033932, Alt.=208.814575m. Speed=11.124000m/h.</desc>
<speed>3.090000</speed>
</trkpt>
<trkpt lat="55.792244" lon="26.033930">
<ele>208.744263</ele>
<time>2010-07-17T16:29:09Z</time>
<desc>lat.=55.792244, lon.=26.033930, Alt.=208.744263m. Speed=11.124000m/h.</desc>
<speed>3.090000</speed>
</trkpt>
<trkpt lat="55.792217" lon="26.033932">
<ele>208.580200</ele>
<time>2010-07-17T16:29:10Z</time>
<desc>lat.=55.792217, lon.=26.033932, Alt.=208.580200m. Speed=8.748000m/h.</desc>
<speed>2.430000</speed>
</trkpt>
<trkpt lat="55.792191" lon="26.033930">
<ele>208.377075</ele>
<time>2010-07-17T16:29:11Z</time>
<desc>lat.=55.792191, lon.=26.033930, Alt.=208.377075m. Speed=7.884000m/h.</desc>
<speed>2.190000</speed>
</trkpt>
<trkpt lat="55.792160" lon="26.033922">
<ele>208.369263</ele>
<time>2010-07-17T16:29:12Z</time>
<desc>lat.=55.792160, lon.=26.033922, Alt.=208.369263m. Speed=9.072000m/h.</desc>
<speed>2.520000</speed>
</trkpt>
<trkpt lat="55.792130" lon="26.033920">
<ele>208.349731</ele>
<time>2010-07-17T16:29:13Z</time>
<desc>lat.=55.792130, lon.=26.033920, Alt.=208.349731m. Speed=9.972000m/h.</desc>
<speed>2.770000</speed>
</trkpt>
<trkpt lat="55.792107" lon="26.033915">
<ele>208.338013</ele>
<time>2010-07-17T16:29:14Z</time>
<desc>lat.=55.792107, lon.=26.033915, Alt.=208.338013m. Speed=7.776000m/h.</desc>
<speed>2.160000</speed>
</trkpt>
<trkpt lat="55.792080" lon="26.033909">
<ele>208.349731</ele>
<time>2010-07-17T16:29:15Z</time>
<desc>lat.=55.792080, lon.=26.033909, Alt.=208.349731m. Speed=7.128000m/h.</desc>
<speed>1.980000</speed>
</trkpt>
<trkpt lat="55.792061" lon="26.033909">
<ele>208.326294</ele>
<time>2010-07-17T16:29:16Z</time>
<desc>lat.=55.792061, lon.=26.033909, Alt.=208.326294m. Speed=6.300000m/h.</desc>
<speed>1.750000</speed>
</trkpt>
<trkpt lat="55.792027" lon="26.033903">
<ele>208.162231</ele>
<time>2010-07-17T16:29:17Z</time>
<desc>lat.=55.792027, lon.=26.033903, Alt.=208.162231m. Speed=8.028000m/h.</desc>
<speed>2.230000</speed>
</trkpt>
<trkpt lat="55.792000" lon="26.033905">
<ele>208.099731</ele>
<time>2010-07-17T16:29:18Z</time>
<desc>lat.=55.792000, lon.=26.033905, Alt.=208.099731m. Speed=8.568000m/h.</desc>
<speed>2.380000</speed>
</trkpt>
<trkpt lat="55.791965" lon="26.033907">
<ele>208.021606</ele>
<time>2010-07-17T16:29:19Z</time>
<desc>lat.=55.791965, lon.=26.033907, Alt.=208.021606m. Speed=10.656000m/h.</desc>
<speed>2.960000</speed>
</trkpt>
<trkpt lat="55.791939" lon="26.033913">
<ele>207.791138</ele>
<time>2010-07-17T16:29:20Z</time>
<desc>lat.=55.791939, lon.=26.033913, Alt.=207.791138m. Speed=11.484000m/h.</desc>
<speed>3.190000</speed>
</trkpt>
<trkpt lat="55.791904" lon="26.033920">
<ele>207.720825</ele>
<time>2010-07-17T16:29:21Z</time>
<desc>lat.=55.791904, lon.=26.033920, Alt.=207.720825m. Speed=11.700000m/h.</desc>
<speed>3.250000</speed>
</trkpt>
<trkpt lat="55.791870" lon="26.033924">
<ele>207.670044</ele>
<time>2010-07-17T16:29:22Z</time>
<desc>lat.=55.791870, lon.=26.033924, Alt.=207.670044m. Speed=12.816000m/h.</desc>
<speed>3.560000</speed>
</trkpt>
<trkpt lat="55.791836" lon="26.033922">
<ele>207.474731</ele>
<time>2010-07-17T16:29:23Z</time>
<desc>lat.=55.791836, lon.=26.033922, Alt.=207.474731m. Speed=13.464000m/h.</desc>
<speed>3.740000</speed>
</trkpt>
<trkpt lat="55.791801" lon="26.033934">
<ele>207.130981</ele>
<time>2010-07-17T16:29:24Z</time>
<desc>lat.=55.791801, lon.=26.033934, Alt.=207.130981m. Speed=13.608000m/h.</desc>
<speed>3.780000</speed>
</trkpt>
<trkpt lat="55.791759" lon="26.033939">
<ele>206.341919</ele>
<time>2010-07-17T16:29:25Z</time>
<desc>lat.=55.791759, lon.=26.033939, Alt.=206.341919m. Speed=15.624000m/h.</desc>
<speed>4.340000</speed>
</trkpt>
<trkpt lat="55.791718" lon="26.033953">
<ele>206.170044</ele>
<time>2010-07-17T16:29:26Z</time>
<desc>lat.=55.791718, lon.=26.033953, Alt.=206.170044m. Speed=16.056000m/h.</desc>
<speed>4.460000</speed>
</trkpt>
<trkpt lat="55.791672" lon="26.033970">
<ele>205.845825</ele>
<time>2010-07-17T16:29:27Z</time>
<desc>lat.=55.791672, lon.=26.033970, Alt.=205.845825m. Speed=17.388000m/h.</desc>
<speed>4.830000</speed>
</trkpt>
<trkpt lat="55.791626" lon="26.033979">
<ele>205.345825</ele>
<time>2010-07-17T16:29:28Z</time>
<desc>lat.=55.791626, lon.=26.033979, Alt.=205.345825m. Speed=18.035999m/h.</desc>
<speed>5.010000</speed>
</trkpt>
<trkpt lat="55.791580" lon="26.033991">
<ele>205.287231</ele>
<time>2010-07-17T16:29:29Z</time>
<desc>lat.=55.791580, lon.=26.033991, Alt.=205.287231m. Speed=19.296000m/h.</desc>
<speed>5.360000</speed>
</trkpt>
<trkpt lat="55.791531" lon="26.034012">
<ele>204.935669</ele>
<time>2010-07-17T16:29:30Z</time>
<desc>lat.=55.791531, lon.=26.034012, Alt.=204.935669m. Speed=18.000000m/h.</desc>
<speed>5.000000</speed>
</trkpt>
<trkpt lat="55.791485" lon="26.034035">
<ele>204.728638</ele>
<time>2010-07-17T16:29:31Z</time>
<desc>lat.=55.791485, lon.=26.034035, Alt.=204.728638m. Speed=17.063999m/h.</desc>
<speed>4.740000</speed>
</trkpt>
<trkpt lat="55.791435" lon="26.034056">
<ele>204.041138</ele>
<time>2010-07-17T16:29:32Z</time>
<desc>lat.=55.791435, lon.=26.034056, Alt.=204.041138m. Speed=17.604000m/h.</desc>
<speed>4.890000</speed>
</trkpt>
<trkpt lat="55.791393" lon="26.034084">
<ele>204.005981</ele>
<time>2010-07-17T16:29:33Z</time>
<desc>lat.=55.791393, lon.=26.034084, Alt.=204.005981m. Speed=16.955999m/h.</desc>
<speed>4.710000</speed>
</trkpt>
<trkpt lat="55.791351" lon="26.034122">
<ele>203.830200</ele>
<time>2010-07-17T16:29:34Z</time>
<desc>lat.=55.791351, lon.=26.034122, Alt.=203.830200m. Speed=16.632000m/h.</desc>
<speed>4.620000</speed>
</trkpt>
<trkpt lat="55.791309" lon="26.034159">
<ele>203.228638</ele>
<time>2010-07-17T16:29:35Z</time>
<desc>lat.=55.791309, lon.=26.034159, Alt.=203.228638m. Speed=17.028000m/h.</desc>
<speed>4.730000</speed>
</trkpt>
<trkpt lat="55.791271" lon="26.034195">
<ele>202.759888</ele>
<time>2010-07-17T16:29:36Z</time>
<desc>lat.=55.791271, lon.=26.034195, Alt.=202.759888m. Speed=16.200001m/h.</desc>
<speed>4.500000</speed>
</trkpt>
<trkpt lat="55.791245" lon="26.034233">
<ele>202.482544</ele>
<time>2010-07-17T16:29:37Z</time>
<desc>lat.=55.791245, lon.=26.034233, Alt.=202.482544m. Speed=13.608000m/h.</desc>
<speed>3.780000</speed>
</trkpt>
<trkpt lat="55.791222" lon="26.034267">
<ele>202.205200</ele>
<time>2010-07-17T16:29:38Z</time>
<desc>lat.=55.791222, lon.=26.034267, Alt.=202.205200m. Speed=10.836000m/h.</desc>
<speed>3.010000</speed>
</trkpt>
<trkpt lat="55.791199" lon="26.034309">
<ele>201.998169</ele>
<time>2010-07-17T16:29:39Z</time>
<desc>lat.=55.791199, lon.=26.034309, Alt.=201.998169m. Speed=13.572000m/h.</desc>
<speed>3.770000</speed>
</trkpt>
<trkpt lat="55.791176" lon="26.034353">
<ele>201.802856</ele>
<time>2010-07-17T16:29:40Z</time>
<desc>lat.=55.791176, lon.=26.034353, Alt.=201.802856m. Speed=14.292000m/h.</desc>
<speed>3.970000</speed>
</trkpt>
<trkpt lat="55.791149" lon="26.034409">
<ele>201.584106</ele>
<time>2010-07-17T16:29:41Z</time>
<desc>lat.=55.791149, lon.=26.034409, Alt.=201.584106m. Speed=16.452000m/h.</desc>
<speed>4.570000</speed>
</trkpt>
<trkpt lat="55.791126" lon="26.034462">
<ele>201.298950</ele>
<time>2010-07-17T16:29:42Z</time>
<desc>lat.=55.791126, lon.=26.034462, Alt.=201.298950m. Speed=15.912000m/h.</desc>
<speed>4.420000</speed>
</trkpt>
<trkpt lat="55.791096" lon="26.034512">
<ele>200.564575</ele>
<time>2010-07-17T16:29:43Z</time>
<desc>lat.=55.791096, lon.=26.034512, Alt.=200.564575m. Speed=15.228000m/h.</desc>
<speed>4.230000</speed>
</trkpt>
<trkpt lat="55.791065" lon="26.034559">
<ele>200.080200</ele>
<time>2010-07-17T16:29:44Z</time>
<desc>lat.=55.791065, lon.=26.034559, Alt.=200.080200m. Speed=14.904000m/h.</desc>
<speed>4.140000</speed>
</trkpt>
<trkpt lat="55.791031" lon="26.034607">
<ele>199.580200</ele>
<time>2010-07-17T16:29:45Z</time>
<desc>lat.=55.791031, lon.=26.034607, Alt.=199.580200m. Speed=16.559999m/h.</desc>
<speed>4.600000</speed>
</trkpt>
<trkpt lat="55.790993" lon="26.034649">
<ele>198.994263</ele>
<time>2010-07-17T16:29:46Z</time>
<desc>lat.=55.790993, lon.=26.034649, Alt.=198.994263m. Speed=16.200001m/h.</desc>
<speed>4.500000</speed>
</trkpt>
<trkpt lat="55.790947" lon="26.034685">
<ele>198.486450</ele>
<time>2010-07-17T16:29:47Z</time>
<desc>lat.=55.790947, lon.=26.034685, Alt.=198.486450m. Speed=16.128000m/h.</desc>
<speed>4.480000</speed>
</trkpt>
<trkpt lat="55.790901" lon="26.034721">
<ele>198.002075</ele>
<time>2010-07-17T16:29:48Z</time>
<desc>lat.=55.790901, lon.=26.034721, Alt.=198.002075m. Speed=14.436000m/h.</desc>
<speed>4.010000</speed>
</trkpt>
<trkpt lat="55.790867" lon="26.034752">
<ele>197.720825</ele>
<time>2010-07-17T16:29:49Z</time>
<desc>lat.=55.790867, lon.=26.034752, Alt.=197.720825m. Speed=13.572000m/h.</desc>
<speed>3.770000</speed>
</trkpt>
<trkpt lat="55.790825" lon="26.034782">
<ele>197.552856</ele>
<time>2010-07-17T16:29:50Z</time>
<desc>lat.=55.790825, lon.=26.034782, Alt.=197.552856m. Speed=15.048000m/h.</desc>
<speed>4.180000</speed>
</trkpt>
<trkpt lat="55.790775" lon="26.034813">
<ele>197.236450</ele>
<time>2010-07-17T16:29:51Z</time>
<desc>lat.=55.790775, lon.=26.034813, Alt.=197.236450m. Speed=15.984000m/h.</desc>
<speed>4.440000</speed>
</trkpt>
<trkpt lat="55.790718" lon="26.034843">
<ele>196.755981</ele>
<time>2010-07-17T16:29:52Z</time>
<desc>lat.=55.790718, lon.=26.034843, Alt.=196.755981m. Speed=18.576000m/h.</desc>
<speed>5.160000</speed>
</trkpt>
<trkpt lat="55.790661" lon="26.034885">
<ele>196.845825</ele>
<time>2010-07-17T16:29:53Z</time>
<desc>lat.=55.790661, lon.=26.034885, Alt.=196.845825m. Speed=19.656000m/h.</desc>
<speed>5.460000</speed>
</trkpt>
<trkpt lat="55.790585" lon="26.034927">
<ele>196.923950</ele>
<time>2010-07-17T16:29:54Z</time>
<desc>lat.=55.790585, lon.=26.034927, Alt.=196.923950m. Speed=22.104000m/h.</desc>
<speed>6.140000</speed>
</trkpt>
<trkpt lat="55.790539" lon="26.034966">
<ele>196.658325</ele>
<time>2010-07-17T16:29:55Z</time>
<desc>lat.=55.790539, lon.=26.034966, Alt.=196.658325m. Speed=15.876000m/h.</desc>
<speed>4.410000</speed>
</trkpt>
<trkpt lat="55.790482" lon="26.034990">
<ele>196.365356</ele>
<time>2010-07-17T16:29:56Z</time>
<desc>lat.=55.790482, lon.=26.034990, Alt.=196.365356m. Speed=16.452000m/h.</desc>
<speed>4.570000</speed>
</trkpt>
<trkpt lat="55.790432" lon="26.035032">
<ele>196.263794</ele>
<time>2010-07-17T16:29:57Z</time>
<desc>lat.=55.790432, lon.=26.035032, Alt.=196.263794m. Speed=19.332001m/h.</desc>
<speed>5.370000</speed>
</trkpt>
<trkpt lat="55.790390" lon="26.035070">
<ele>196.209106</ele>
<time>2010-07-17T16:29:58Z</time>
<desc>lat.=55.790390, lon.=26.035070, Alt.=196.209106m. Speed=12.456000m/h.</desc>
<speed>3.460000</speed>
</trkpt>
<trkpt lat="55.790348" lon="26.035109">
<ele>196.166138</ele>
<time>2010-07-17T16:29:59Z</time>
<desc>lat.=55.790348, lon.=26.035109, Alt.=196.166138m. Speed=12.528000m/h.</desc>
<speed>3.480000</speed>
</trkpt>
<trkpt lat="55.790310" lon="26.035141">
<ele>196.154419</ele>
<time>2010-07-17T16:30:00Z</time>
<desc>lat.=55.790310, lon.=26.035141, Alt.=196.154419m. Speed=10.728000m/h.</desc>
<speed>2.980000</speed>
</trkpt>
<trkpt lat="55.790260" lon="26.035181">
<ele>196.002075</ele>
<time>2010-07-17T16:30:01Z</time>
<desc>lat.=55.790260, lon.=26.035181, Alt.=196.002075m. Speed=16.775999m/h.</desc>
<speed>4.660000</speed>
</trkpt>
<trkpt lat="55.790203" lon="26.035234">
<ele>196.150513</ele>
<time>2010-07-17T16:30:02Z</time>
<desc>lat.=55.790203, lon.=26.035234, Alt.=196.150513m. Speed=18.000000m/h.</desc>
<speed>5.000000</speed>
</trkpt>
<trkpt lat="55.790146" lon="26.035271">
<ele>195.377075</ele>
<time>2010-07-17T16:30:03Z</time>
<desc>lat.=55.790146, lon.=26.035271, Alt.=195.377075m. Speed=17.784000m/h.</desc>
<speed>4.940000</speed>
</trkpt>
<trkpt lat="55.790089" lon="26.035313">
<ele>194.892700</ele>
<time>2010-07-17T16:30:04Z</time>
<desc>lat.=55.790089, lon.=26.035313, Alt.=194.892700m. Speed=17.388000m/h.</desc>
<speed>4.830000</speed>
</trkpt>
<trkpt lat="55.790031" lon="26.035366">
<ele>194.576294</ele>
<time>2010-07-17T16:30:05Z</time>
<desc>lat.=55.790031, lon.=26.035366, Alt.=194.576294m. Speed=15.516000m/h.</desc>
<speed>4.310000</speed>
</trkpt>
<trkpt lat="55.789982" lon="26.035410">
<ele>194.404419</ele>
<time>2010-07-17T16:30:06Z</time>
<desc>lat.=55.789982, lon.=26.035410, Alt.=194.404419m. Speed=16.091999m/h.</desc>
<speed>4.470000</speed>
</trkpt>
<trkpt lat="55.789936" lon="26.035439">
<ele>193.630981</ele>
<time>2010-07-17T16:30:07Z</time>
<desc>lat.=55.789936, lon.=26.035439, Alt.=193.630981m. Speed=11.376000m/h.</desc>
<speed>3.160000</speed>
</trkpt>
<trkpt lat="55.789898" lon="26.035471">
<ele>193.373169</ele>
<time>2010-07-17T16:30:08Z</time>
<desc>lat.=55.789898, lon.=26.035471, Alt.=193.373169m. Speed=11.052000m/h.</desc>
<speed>3.070000</speed>
</trkpt>
<trkpt lat="55.789867" lon="26.035511">
<ele>193.150513</ele>
<time>2010-07-17T16:30:09Z</time>
<desc>lat.=55.789867, lon.=26.035511, Alt.=193.150513m. Speed=10.656000m/h.</desc>
<speed>2.960000</speed>
</trkpt>
<trkpt lat="55.789814" lon="26.035547">
<ele>192.959106</ele>
<time>2010-07-17T16:30:10Z</time>
<desc>lat.=55.789814, lon.=26.035547, Alt.=192.959106m. Speed=16.128000m/h.</desc>
<speed>4.480000</speed>
</trkpt>
<trkpt lat="55.789761" lon="26.035585">
<ele>192.798950</ele>
<time>2010-07-17T16:30:11Z</time>
<desc>lat.=55.789761, lon.=26.035585, Alt.=192.798950m. Speed=16.559999m/h.</desc>
<speed>4.600000</speed>
</trkpt>
<trkpt lat="55.789700" lon="26.035627">
<ele>193.076294</ele>
<time>2010-07-17T16:30:12Z</time>
<desc>lat.=55.789700, lon.=26.035627, Alt.=193.076294m. Speed=18.648001m/h.</desc>
<speed>5.180000</speed>
</trkpt>
<trkpt lat="55.789619" lon="26.035732">
<ele>193.181763</ele>
<time>2010-07-17T16:30:13Z</time>
<desc>lat.=55.789619, lon.=26.035732, Alt.=193.181763m. Speed=20.591999m/h.</desc>
<speed>5.720000</speed>
</trkpt>
<trkpt lat="55.789574" lon="26.035770">
<ele>193.111450</ele>
<time>2010-07-17T16:30:14Z</time>
<desc>lat.=55.789574, lon.=26.035770, Alt.=193.111450m. Speed=21.312000m/h.</desc>
<speed>5.920000</speed>
</trkpt>
<trkpt lat="55.789520" lon="26.035805">
<ele>193.060669</ele>
<time>2010-07-17T16:30:15Z</time>
<desc>lat.=55.789520, lon.=26.035805, Alt.=193.060669m. Speed=19.188000m/h.</desc>
<speed>5.330000</speed>
</trkpt>
<trkpt lat="55.789478" lon="26.035835">
<ele>193.009888</ele>
<time>2010-07-17T16:30:16Z</time>
<desc>lat.=55.789478, lon.=26.035835, Alt.=193.009888m. Speed=18.864000m/h.</desc>
<speed>5.240000</speed>
</trkpt>
<trkpt lat="55.789421" lon="26.035887">
<ele>193.435669</ele>
<time>2010-07-17T16:30:17Z</time>
<desc>lat.=55.789421, lon.=26.035887, Alt.=193.435669m. Speed=17.747999m/h.</desc>
<speed>4.930000</speed>
</trkpt>
<trkpt lat="55.789368" lon="26.035925">
<ele>193.927856</ele>
<time>2010-07-17T16:30:18Z</time>
<desc>lat.=55.789368, lon.=26.035925, Alt.=193.927856m. Speed=15.768000m/h.</desc>
<speed>4.380000</speed>
</trkpt>
<trkpt lat="55.789314" lon="26.035957">
<ele>194.373169</ele>
<time>2010-07-17T16:30:19Z</time>
<desc>lat.=55.789314, lon.=26.035957, Alt.=194.373169m. Speed=14.076000m/h.</desc>
<speed>3.910000</speed>
</trkpt>
<trkpt lat="55.789268" lon="26.035980">
<ele>194.783325</ele>
<time>2010-07-17T16:30:20Z</time>
<desc>lat.=55.789268, lon.=26.035980, Alt.=194.783325m. Speed=12.564000m/h.</desc>
<speed>3.490000</speed>
</trkpt>
<trkpt lat="55.789219" lon="26.036009">
<ele>194.970825</ele>
<time>2010-07-17T16:30:21Z</time>
<desc>lat.=55.789219, lon.=26.036009, Alt.=194.970825m. Speed=14.364000m/h.</desc>
<speed>3.990000</speed>
</trkpt>
<trkpt lat="55.789181" lon="26.036037">
<ele>195.076294</ele>
<time>2010-07-17T16:30:22Z</time>
<desc>lat.=55.789181, lon.=26.036037, Alt.=195.076294m. Speed=13.284000m/h.</desc>
<speed>3.690000</speed>
</trkpt>
<trkpt lat="55.789124" lon="26.036093">
<ele>194.838013</ele>
<time>2010-07-17T16:30:23Z</time>
<desc>lat.=55.789124, lon.=26.036093, Alt.=194.838013m. Speed=17.100000m/h.</desc>
<speed>4.750000</speed>
</trkpt>
<trkpt lat="55.789066" lon="26.036127">
<ele>194.595825</ele>
<time>2010-07-17T16:30:24Z</time>
<desc>lat.=55.789066, lon.=26.036127, Alt.=194.595825m. Speed=18.216000m/h.</desc>
<speed>5.060000</speed>
</trkpt>
<trkpt lat="55.789013" lon="26.036165">
<ele>194.470825</ele>
<time>2010-07-17T16:30:25Z</time>
<desc>lat.=55.789013, lon.=26.036165, Alt.=194.470825m. Speed=18.108000m/h.</desc>
<speed>5.030000</speed>
</trkpt>
<trkpt lat="55.788944" lon="26.036209">
<ele>194.459106</ele>
<time>2010-07-17T16:30:26Z</time>
<desc>lat.=55.788944, lon.=26.036209, Alt.=194.459106m. Speed=20.160000m/h.</desc>
<speed>5.600000</speed>
</trkpt>
<trkpt lat="55.788883" lon="26.036242">
<ele>194.459106</ele>
<time>2010-07-17T16:30:27Z</time>
<desc>lat.=55.788883, lon.=26.036242, Alt.=194.459106m. Speed=19.764000m/h.</desc>
<speed>5.490000</speed>
</trkpt>
<trkpt lat="55.788826" lon="26.036266">
<ele>194.416138</ele>
<time>2010-07-17T16:30:28Z</time>
<desc>lat.=55.788826, lon.=26.036266, Alt.=194.416138m. Speed=19.440001m/h.</desc>
<speed>5.400000</speed>
</trkpt>
<trkpt lat="55.788765" lon="26.036293">
<ele>194.400513</ele>
<time>2010-07-17T16:30:29Z</time>
<desc>lat.=55.788765, lon.=26.036293, Alt.=194.400513m. Speed=20.375999m/h.</desc>
<speed>5.660000</speed>
</trkpt>
<trkpt lat="55.788696" lon="26.036324">
<ele>194.146606</ele>
<time>2010-07-17T16:30:30Z</time>
<desc>lat.=55.788696, lon.=26.036324, Alt.=194.146606m. Speed=19.296000m/h.</desc>
<speed>5.360000</speed>
</trkpt>
<trkpt lat="55.788643" lon="26.036348">
<ele>194.279419</ele>
<time>2010-07-17T16:30:31Z</time>
<desc>lat.=55.788643, lon.=26.036348, Alt.=194.279419m. Speed=17.136000m/h.</desc>
<speed>4.760000</speed>
</trkpt>
<trkpt lat="55.788597" lon="26.036373">
<ele>194.459106</ele>
<time>2010-07-17T16:30:32Z</time>
<desc>lat.=55.788597, lon.=26.036373, Alt.=194.459106m. Speed=16.308001m/h.</desc>
<speed>4.530000</speed>
</trkpt>
<trkpt lat="55.788544" lon="26.036390">
<ele>194.341919</ele>
<time>2010-07-17T16:30:33Z</time>
<desc>lat.=55.788544, lon.=26.036390, Alt.=194.341919m. Speed=14.328000m/h.</desc>
<speed>3.980000</speed>
</trkpt>
<trkpt lat="55.788494" lon="26.036402">
<ele>194.353638</ele>
<time>2010-07-17T16:30:34Z</time>
<desc>lat.=55.788494, lon.=26.036402, Alt.=194.353638m. Speed=18.180000m/h.</desc>
<speed>5.050000</speed>
</trkpt>
<trkpt lat="55.788433" lon="26.036438">
<ele>194.615356</ele>
<time>2010-07-17T16:30:35Z</time>
<desc>lat.=55.788433, lon.=26.036438, Alt.=194.615356m. Speed=18.719999m/h.</desc>
<speed>5.200000</speed>
</trkpt>
<trkpt lat="55.788383" lon="26.036461">
<ele>194.525513</ele>
<time>2010-07-17T16:30:36Z</time>
<desc>lat.=55.788383, lon.=26.036461, Alt.=194.525513m. Speed=18.323999m/h.</desc>
<speed>5.090000</speed>
</trkpt>
<trkpt lat="55.788330" lon="26.036489">
<ele>194.908325</ele>
<time>2010-07-17T16:30:37Z</time>
<desc>lat.=55.788330, lon.=26.036489, Alt.=194.908325m. Speed=17.496000m/h.</desc>
<speed>4.860000</speed>
</trkpt>
<trkpt lat="55.788280" lon="26.036514">
<ele>195.306763</ele>
<time>2010-07-17T16:30:38Z</time>
<desc>lat.=55.788280, lon.=26.036514, Alt.=195.306763m. Speed=17.316000m/h.</desc>
<speed>4.810000</speed>
</trkpt>
<trkpt lat="55.788227" lon="26.036537">
<ele>195.920044</ele>
<time>2010-07-17T16:30:39Z</time>
<desc>lat.=55.788227, lon.=26.036537, Alt.=195.920044m. Speed=17.280001m/h.</desc>
<speed>4.800000</speed>
</trkpt>
<trkpt lat="55.788177" lon="26.036551">
<ele>195.982544</ele>
<time>2010-07-17T16:30:40Z</time>
<desc>lat.=55.788177, lon.=26.036551, Alt.=195.982544m. Speed=16.271999m/h.</desc>
<speed>4.520000</speed>
</trkpt>
<trkpt lat="55.788128" lon="26.036560">
<ele>196.463013</ele>
<time>2010-07-17T16:30:41Z</time>
<desc>lat.=55.788128, lon.=26.036560, Alt.=196.463013m. Speed=15.912000m/h.</desc>
<speed>4.420000</speed>
</trkpt>
<trkpt lat="55.788067" lon="26.036564">
<ele>196.900513</ele>
<time>2010-07-17T16:30:42Z</time>
<desc>lat.=55.788067, lon.=26.036564, Alt.=196.900513m. Speed=16.775999m/h.</desc>
<speed>4.660000</speed>
</trkpt>
<trkpt lat="55.788013" lon="26.036570">
<ele>196.974731</ele>
<time>2010-07-17T16:30:43Z</time>
<desc>lat.=55.788013, lon.=26.036570, Alt.=196.974731m. Speed=16.524000m/h.</desc>
<speed>4.590000</speed>
</trkpt>
<trkpt lat="55.787968" lon="26.036585">
<ele>197.490356</ele>
<time>2010-07-17T16:30:44Z</time>
<desc>lat.=55.787968, lon.=26.036585, Alt.=197.490356m. Speed=16.091999m/h.</desc>
<speed>4.470000</speed>
</trkpt>
<trkpt lat="55.787930" lon="26.036592">
<ele>197.822388</ele>
<time>2010-07-17T16:30:45Z</time>
<desc>lat.=55.787930, lon.=26.036592, Alt.=197.822388m. Speed=14.760000m/h.</desc>
<speed>4.100000</speed>
</trkpt>
<trkpt lat="55.787876" lon="26.036591">
<ele>198.138794</ele>
<time>2010-07-17T16:30:46Z</time>
<desc>lat.=55.787876, lon.=26.036591, Alt.=198.138794m. Speed=17.316000m/h.</desc>
<speed>4.810000</speed>
</trkpt>
<trkpt lat="55.787823" lon="26.036594">
<ele>198.005981</ele>
<time>2010-07-17T16:30:47Z</time>
<desc>lat.=55.787823, lon.=26.036594, Alt.=198.005981m. Speed=16.632000m/h.</desc>
<speed>4.620000</speed>
</trkpt>
<trkpt lat="55.787762" lon="26.036608">
<ele>197.380981</ele>
<time>2010-07-17T16:30:48Z</time>
<desc>lat.=55.787762, lon.=26.036608, Alt.=197.380981m. Speed=15.624000m/h.</desc>
<speed>4.340000</speed>
</trkpt>
<trkpt lat="55.787712" lon="26.036617">
<ele>196.853638</ele>
<time>2010-07-17T16:30:49Z</time>
<desc>lat.=55.787712, lon.=26.036617, Alt.=196.853638m. Speed=15.660000m/h.</desc>
<speed>4.350000</speed>
</trkpt>
<trkpt lat="55.787655" lon="26.036617">
<ele>195.861450</ele>
<time>2010-07-17T16:30:50Z</time>
<desc>lat.=55.787655, lon.=26.036617, Alt.=195.861450m. Speed=18.360001m/h.</desc>
<speed>5.100000</speed>
</trkpt>
<trkpt lat="55.787590" lon="26.036612">
<ele>195.658325</ele>
<time>2010-07-17T16:30:51Z</time>
<desc>lat.=55.787590, lon.=26.036612, Alt.=195.658325m. Speed=18.756001m/h.</desc>
<speed>5.210000</speed>
</trkpt>
<trkpt lat="55.787533" lon="26.036604">
<ele>195.599731</ele>
<time>2010-07-17T16:30:52Z</time>
<desc>lat.=55.787533, lon.=26.036604, Alt.=195.599731m. Speed=18.288000m/h.</desc>
<speed>5.080000</speed>
</trkpt>
<trkpt lat="55.787468" lon="26.036594">
<ele>195.173950</ele>
<time>2010-07-17T16:30:53Z</time>
<desc>lat.=55.787468, lon.=26.036594, Alt.=195.173950m. Speed=19.188000m/h.</desc>
<speed>5.330000</speed>
</trkpt>
<trkpt lat="55.787418" lon="26.036592">
<ele>195.420044</ele>
<time>2010-07-17T16:30:54Z</time>
<desc>lat.=55.787418, lon.=26.036592, Alt.=195.420044m. Speed=16.128000m/h.</desc>
<speed>4.480000</speed>
</trkpt>
<trkpt lat="55.787350" lon="26.036577">
<ele>192.353638</ele>
<time>2010-07-17T16:30:55Z</time>
<desc>lat.=55.787350, lon.=26.036577, Alt.=192.353638m. Speed=17.784000m/h.</desc>
<speed>4.940000</speed>
</trkpt>
<trkpt lat="55.787308" lon="26.036579">
<ele>192.509888</ele>
<time>2010-07-17T16:30:56Z</time>
<desc>lat.=55.787308, lon.=26.036579, Alt.=192.509888m. Speed=17.424000m/h.</desc>
<speed>4.840000</speed>
</trkpt>
<trkpt lat="55.787254" lon="26.036583">
<ele>191.353638</ele>
<time>2010-07-17T16:30:57Z</time>
<desc>lat.=55.787254, lon.=26.036583, Alt.=191.353638m. Speed=15.948000m/h.</desc>
<speed>4.430000</speed>
</trkpt>
<trkpt lat="55.787212" lon="26.036589">
<ele>190.931763</ele>
<time>2010-07-17T16:30:58Z</time>
<desc>lat.=55.787212, lon.=26.036589, Alt.=190.931763m. Speed=14.148000m/h.</desc>
<speed>3.930000</speed>
</trkpt>
<trkpt lat="55.787170" lon="26.036602">
<ele>191.267700</ele>
<time>2010-07-17T16:30:59Z</time>
<desc>lat.=55.787170, lon.=26.036602, Alt.=191.267700m. Speed=15.300000m/h.</desc>
<speed>4.250000</speed>
</trkpt>
<trkpt lat="55.787132" lon="26.036606">
<ele>191.259888</ele>
<time>2010-07-17T16:31:00Z</time>
<desc>lat.=55.787132, lon.=26.036606, Alt.=191.259888m. Speed=14.976000m/h.</desc>
<speed>4.160000</speed>
</trkpt>
<trkpt lat="55.787079" lon="26.036617">
<ele>191.490356</ele>
<time>2010-07-17T16:31:01Z</time>
<desc>lat.=55.787079, lon.=26.036617, Alt.=191.490356m. Speed=15.336000m/h.</desc>
<speed>4.260000</speed>
</trkpt>
<trkpt lat="55.787037" lon="26.036617">
<ele>191.767700</ele>
<time>2010-07-17T16:31:02Z</time>
<desc>lat.=55.787037, lon.=26.036617, Alt.=191.767700m. Speed=14.256000m/h.</desc>
<speed>3.960000</speed>
</trkpt>
<trkpt lat="55.786995" lon="26.036619">
<ele>191.603638</ele>
<time>2010-07-17T16:31:03Z</time>
<desc>lat.=55.786995, lon.=26.036619, Alt.=191.603638m. Speed=15.228000m/h.</desc>
<speed>4.230000</speed>
</trkpt>
<trkpt lat="55.786945" lon="26.036613">
<ele>191.689575</ele>
<time>2010-07-17T16:31:04Z</time>
<desc>lat.=55.786945, lon.=26.036613, Alt.=191.689575m. Speed=16.164000m/h.</desc>
<speed>4.490000</speed>
</trkpt>
<trkpt lat="55.786907" lon="26.036598">
<ele>192.173950</ele>
<time>2010-07-17T16:31:05Z</time>
<desc>lat.=55.786907, lon.=26.036598, Alt.=192.173950m. Speed=12.672000m/h.</desc>
<speed>3.520000</speed>
</trkpt>
<trkpt lat="55.786865" lon="26.036573">
<ele>193.295044</ele>
<time>2010-07-17T16:31:06Z</time>
<desc>lat.=55.786865, lon.=26.036573, Alt.=193.295044m. Speed=14.688000m/h.</desc>
<speed>4.080000</speed>
</trkpt>
<trkpt lat="55.786823" lon="26.036556">
<ele>193.521606</ele>
<time>2010-07-17T16:31:07Z</time>
<desc>lat.=55.786823, lon.=26.036556, Alt.=193.521606m. Speed=14.544000m/h.</desc>
<speed>4.040000</speed>
</trkpt>
<trkpt lat="55.786777" lon="26.036537">
<ele>193.298950</ele>
<time>2010-07-17T16:31:08Z</time>
<desc>lat.=55.786777, lon.=26.036537, Alt.=193.298950m. Speed=13.536000m/h.</desc>
<speed>3.760000</speed>
</trkpt>
<trkpt lat="55.786732" lon="26.036522">
<ele>193.158325</ele>
<time>2010-07-17T16:31:09Z</time>
<desc>lat.=55.786732, lon.=26.036522, Alt.=193.158325m. Speed=15.624000m/h.</desc>
<speed>4.340000</speed>
</trkpt>
<trkpt lat="55.786686" lon="26.036509">
<ele>192.783325</ele>
<time>2010-07-17T16:31:10Z</time>
<desc>lat.=55.786686, lon.=26.036509, Alt.=192.783325m. Speed=11.736000m/h.</desc>
<speed>3.260000</speed>
</trkpt>
<trkpt lat="55.786655" lon="26.036495">
<ele>193.013794</ele>
<time>2010-07-17T16:31:11Z</time>
<desc>lat.=55.786655, lon.=26.036495, Alt.=193.013794m. Speed=11.160000m/h.</desc>
<speed>3.100000</speed>
</trkpt>
<trkpt lat="55.786621" lon="26.036482">
<ele>192.963013</ele>
<time>2010-07-17T16:31:12Z</time>
<desc>lat.=55.786621, lon.=26.036482, Alt.=192.963013m. Speed=11.160000m/h.</desc>
<speed>3.100000</speed>
</trkpt>
<trkpt lat="55.786572" lon="26.036470">
<ele>192.287231</ele>
<time>2010-07-17T16:31:13Z</time>
<desc>lat.=55.786572, lon.=26.036470, Alt.=192.287231m. Speed=11.448000m/h.</desc>
<speed>3.180000</speed>
</trkpt>
<trkpt lat="55.786526" lon="26.036469">
<ele>191.822388</ele>
<time>2010-07-17T16:31:14Z</time>
<desc>lat.=55.786526, lon.=26.036469, Alt.=191.822388m. Speed=12.312000m/h.</desc>
<speed>3.420000</speed>
</trkpt>
<trkpt lat="55.786488" lon="26.036465">
<ele>191.373169</ele>
<time>2010-07-17T16:31:15Z</time>
<desc>lat.=55.786488, lon.=26.036465, Alt.=191.373169m. Speed=11.088000m/h.</desc>
<speed>3.080000</speed>
</trkpt>
<trkpt lat="55.786442" lon="26.036449">
<ele>191.091919</ele>
<time>2010-07-17T16:31:16Z</time>
<desc>lat.=55.786442, lon.=26.036449, Alt.=191.091919m. Speed=12.060000m/h.</desc>
<speed>3.350000</speed>
</trkpt>
<trkpt lat="55.786404" lon="26.036444">
<ele>190.588013</ele>
<time>2010-07-17T16:31:17Z</time>
<desc>lat.=55.786404, lon.=26.036444, Alt.=190.588013m. Speed=9.432000m/h.</desc>
<speed>2.620000</speed>
</trkpt>
<trkpt lat="55.786366" lon="26.036442">
<ele>190.072388</ele>
<time>2010-07-17T16:31:18Z</time>
<desc>lat.=55.786366, lon.=26.036442, Alt.=190.072388m. Speed=9.792000m/h.</desc>
<speed>2.720000</speed>
</trkpt>
<trkpt lat="55.786331" lon="26.036438">
<ele>189.666138</ele>
<time>2010-07-17T16:31:19Z</time>
<desc>lat.=55.786331, lon.=26.036438, Alt.=189.666138m. Speed=9.756000m/h.</desc>
<speed>2.710000</speed>
</trkpt>
<trkpt lat="55.786301" lon="26.036432">
<ele>189.170044</ele>
<time>2010-07-17T16:31:20Z</time>
<desc>lat.=55.786301, lon.=26.036432, Alt.=189.170044m. Speed=9.396000m/h.</desc>
<speed>2.610000</speed>
</trkpt>
<trkpt lat="55.786255" lon="26.036417">
<ele>188.752075</ele>
<time>2010-07-17T16:31:21Z</time>
<desc>lat.=55.786255, lon.=26.036417, Alt.=188.752075m. Speed=11.304000m/h.</desc>
<speed>3.140000</speed>
</trkpt>
<trkpt lat="55.786213" lon="26.036400">
<ele>188.236450</ele>
<time>2010-07-17T16:31:22Z</time>
<desc>lat.=55.786213, lon.=26.036400, Alt.=188.236450m. Speed=10.800000m/h.</desc>
<speed>3.000000</speed>
</trkpt>
<trkpt lat="55.786171" lon="26.036386">
<ele>187.693481</ele>
<time>2010-07-17T16:31:23Z</time>
<desc>lat.=55.786171, lon.=26.036386, Alt.=187.693481m. Speed=11.232000m/h.</desc>
<speed>3.120000</speed>
</trkpt>
<trkpt lat="55.786133" lon="26.036375">
<ele>187.064575</ele>
<time>2010-07-17T16:31:24Z</time>
<desc>lat.=55.786133, lon.=26.036375, Alt.=187.064575m. Speed=11.700000m/h.</desc>
<speed>3.250000</speed>
</trkpt>
<trkpt lat="55.786095" lon="26.036367">
<ele>186.900513</ele>
<time>2010-07-17T16:31:25Z</time>
<desc>lat.=55.786095, lon.=26.036367, Alt.=186.900513m. Speed=12.276000m/h.</desc>
<speed>3.410000</speed>
</trkpt>
<trkpt lat="55.786057" lon="26.036360">
<ele>186.716919</ele>
<time>2010-07-17T16:31:26Z</time>
<desc>lat.=55.786057, lon.=26.036360, Alt.=186.716919m. Speed=11.016000m/h.</desc>
<speed>3.060000</speed>
</trkpt>
<trkpt lat="55.786015" lon="26.036364">
<ele>186.435669</ele>
<time>2010-07-17T16:31:27Z</time>
<desc>lat.=55.786015, lon.=26.036364, Alt.=186.435669m. Speed=10.908000m/h.</desc>
<speed>3.030000</speed>
</trkpt>
<trkpt lat="55.785961" lon="26.036360">
<ele>186.244263</ele>
<time>2010-07-17T16:31:28Z</time>
<desc>lat.=55.785961, lon.=26.036360, Alt.=186.244263m. Speed=13.536000m/h.</desc>
<speed>3.760000</speed>
</trkpt>
<trkpt lat="55.785912" lon="26.036354">
<ele>186.193481</ele>
<time>2010-07-17T16:31:29Z</time>
<desc>lat.=55.785912, lon.=26.036354, Alt.=186.193481m. Speed=13.284000m/h.</desc>
<speed>3.690000</speed>
</trkpt>
<trkpt lat="55.785870" lon="26.036350">
<ele>185.841919</ele>
<time>2010-07-17T16:31:30Z</time>
<desc>lat.=55.785870, lon.=26.036350, Alt.=185.841919m. Speed=12.060000m/h.</desc>
<speed>3.350000</speed>
</trkpt>
<trkpt lat="55.785828" lon="26.036341">
<ele>185.670044</ele>
<time>2010-07-17T16:31:31Z</time>
<desc>lat.=55.785828, lon.=26.036341, Alt.=185.670044m. Speed=11.556000m/h.</desc>
<speed>3.210000</speed>
</trkpt>
<trkpt lat="55.785786" lon="26.036329">
<ele>185.857544</ele>
<time>2010-07-17T16:31:32Z</time>
<desc>lat.=55.785786, lon.=26.036329, Alt.=185.857544m. Speed=10.008000m/h.</desc>
<speed>2.780000</speed>
</trkpt>
<trkpt lat="55.785740" lon="26.036306">
<ele>186.853638</ele>
<time>2010-07-17T16:31:33Z</time>
<desc>lat.=55.785740, lon.=26.036306, Alt.=186.853638m. Speed=8.712000m/h.</desc>
<speed>2.420000</speed>
</trkpt>
<trkpt lat="55.785713" lon="26.036293">
<ele>186.771606</ele>
<time>2010-07-17T16:31:34Z</time>
<desc>lat.=55.785713, lon.=26.036293, Alt.=186.771606m. Speed=5.976000m/h.</desc>
<speed>1.660000</speed>
</trkpt>
<trkpt lat="55.785706" lon="26.036282">
<ele>186.580200</ele>
<time>2010-07-17T16:31:35Z</time>
<desc>lat.=55.785706, lon.=26.036282, Alt.=186.580200m. Speed=2.268000m/h.</desc>
<speed>0.630000</speed>
</trkpt>
<trkpt lat="55.785702" lon="26.036278">
<ele>186.466919</ele>
<time>2010-07-17T16:31:36Z</time>
<desc>lat.=55.785702, lon.=26.036278, Alt.=186.466919m. Speed=1.224000m/h.</desc>
<speed>0.340000</speed>
</trkpt>
<trkpt lat="55.785686" lon="26.036278">
<ele>186.353638</ele>
<time>2010-07-17T16:31:37Z</time>
<desc>lat.=55.785686, lon.=26.036278, Alt.=186.353638m. Speed=1.296000m/h.</desc>
<speed>0.360000</speed>
</trkpt>
<trkpt lat="55.785683" lon="26.036274">
<ele>186.295044</ele>
<time>2010-07-17T16:31:38Z</time>
<desc>lat.=55.785683, lon.=26.036274, Alt.=186.295044m. Speed=1.080000m/h.</desc>
<speed>0.300000</speed>
</trkpt>
<trkpt lat="55.785683" lon="26.036270">
<ele>186.267700</ele>
<time>2010-07-17T16:31:39Z</time>
<desc>lat.=55.785683, lon.=26.036270, Alt.=186.267700m. Speed=1.224000m/h.</desc>
<speed>0.340000</speed>
</trkpt>
<trkpt lat="55.785679" lon="26.036268">
<ele>186.240356</ele>
<time>2010-07-17T16:31:40Z</time>
<desc>lat.=55.785679, lon.=26.036268, Alt.=186.240356m. Speed=1.368000m/h.</desc>
<speed>0.380000</speed>
</trkpt>
<trkpt lat="55.785675" lon="26.036264">
<ele>186.193481</ele>
<time>2010-07-17T16:31:41Z</time>
<desc>lat.=55.785675, lon.=26.036264, Alt.=186.193481m. Speed=1.332000m/h.</desc>
<speed>0.370000</speed>
</trkpt>
<trkpt lat="55.785671" lon="26.036261">
<ele>186.173950</ele>
<time>2010-07-17T16:31:42Z</time>
<desc>lat.=55.785671, lon.=26.036261, Alt.=186.173950m. Speed=1.836000m/h.</desc>
<speed>0.510000</speed>
</trkpt>
<trkpt lat="55.785667" lon="26.036259">
<ele>186.154419</ele>
<time>2010-07-17T16:31:43Z</time>
<desc>lat.=55.785667, lon.=26.036259, Alt.=186.154419m. Speed=1.440000m/h.</desc>
<speed>0.400000</speed>
</trkpt>
<trkpt lat="55.785664" lon="26.036257">
<ele>186.107544</ele>
<time>2010-07-17T16:31:44Z</time>
<desc>lat.=55.785664, lon.=26.036257, Alt.=186.107544m. Speed=0.720000m/h.</desc>
<speed>0.200000</speed>
</trkpt>
<trkpt lat="55.785660" lon="26.036255">
<ele>186.064575</ele>
<time>2010-07-17T16:31:45Z</time>
<desc>lat.=55.785660, lon.=26.036255, Alt.=186.064575m. Speed=1.152000m/h.</desc>
<speed>0.320000</speed>
</trkpt>
<trkpt lat="55.785656" lon="26.036253">
<ele>186.033325</ele>
<time>2010-07-17T16:31:46Z</time>
<desc>lat.=55.785656, lon.=26.036253, Alt.=186.033325m. Speed=1.116000m/h.</desc>
<speed>0.310000</speed>
</trkpt>
<trkpt lat="55.785656" lon="26.036251">
<ele>186.005981</ele>
<time>2010-07-17T16:31:47Z</time>
<desc>lat.=55.785656, lon.=26.036251, Alt.=186.005981m. Speed=1.152000m/h.</desc>
<speed>0.320000</speed>
</trkpt>
<trkpt lat="55.785652" lon="26.036249">
<ele>185.974731</ele>
<time>2010-07-17T16:31:48Z</time>
<desc>lat.=55.785652, lon.=26.036249, Alt.=185.974731m. Speed=1.188000m/h.</desc>
<speed>0.330000</speed>
</trkpt>
<trkpt lat="55.785648" lon="26.036247">
<ele>185.939575</ele>
<time>2010-07-17T16:31:49Z</time>
<desc>lat.=55.785648, lon.=26.036247, Alt.=185.939575m. Speed=1.116000m/h.</desc>
<speed>0.310000</speed>
</trkpt>
<trkpt lat="55.785645" lon="26.036247">
<ele>185.892700</ele>
<time>2010-07-17T16:31:50Z</time>
<desc>lat.=55.785645, lon.=26.036247, Alt.=185.892700m. Speed=1.296000m/h.</desc>
<speed>0.360000</speed>
</trkpt>
<trkpt lat="55.785641" lon="26.036245">
<ele>185.857544</ele>
<time>2010-07-17T16:31:51Z</time>
<desc>lat.=55.785641, lon.=26.036245, Alt.=185.857544m. Speed=1.476000m/h.</desc>
<speed>0.410000</speed>
</trkpt>
<trkpt lat="55.785637" lon="26.036245">
<ele>185.814575</ele>
<time>2010-07-17T16:31:52Z</time>
<desc>lat.=55.785637, lon.=26.036245, Alt.=185.814575m. Speed=0.972000m/h.</desc>
<speed>0.270000</speed>
</trkpt>
<trkpt lat="55.785633" lon="26.036242">
<ele>185.755981</ele>
<time>2010-07-17T16:31:53Z</time>
<desc>lat.=55.785633, lon.=26.036242, Alt.=185.755981m. Speed=0.684000m/h.</desc>
<speed>0.190000</speed>
</trkpt>
<trkpt lat="55.785633" lon="26.036240">
<ele>185.709106</ele>
<time>2010-07-17T16:31:54Z</time>
<desc>lat.=55.785633, lon.=26.036240, Alt.=185.709106m. Speed=1.044000m/h.</desc>
<speed>0.290000</speed>
</trkpt>
<trkpt lat="55.785629" lon="26.036238">
<ele>185.670044</ele>
<time>2010-07-17T16:31:55Z</time>
<desc>lat.=55.785629, lon.=26.036238, Alt.=185.670044m. Speed=0.900000m/h.</desc>
<speed>0.250000</speed>
</trkpt>
<trkpt lat="55.785629" lon="26.036236">
<ele>185.642700</ele>
<time>2010-07-17T16:31:56Z</time>
<desc>lat.=55.785629, lon.=26.036236, Alt.=185.642700m. Speed=0.900000m/h.</desc>
<speed>0.250000</speed>
</trkpt>
<trkpt lat="55.785625" lon="26.036234">
<ele>185.615356</ele>
<time>2010-07-17T16:31:57Z</time>
<desc>lat.=55.785625, lon.=26.036234, Alt.=185.615356m. Speed=1.260000m/h.</desc>
<speed>0.350000</speed>
</trkpt>
<trkpt lat="55.785622" lon="26.036232">
<ele>185.588013</ele>
<time>2010-07-17T16:31:58Z</time>
<desc>lat.=55.785622, lon.=26.036232, Alt.=185.588013m. Speed=0.756000m/h.</desc>
<speed>0.210000</speed>
</trkpt>
<trkpt lat="55.785622" lon="26.036232">
<ele>185.564575</ele>
<time>2010-07-17T16:31:59Z</time>
<desc>lat.=55.785622, lon.=26.036232, Alt.=185.564575m. Speed=0.900000m/h.</desc>
<speed>0.250000</speed>
</trkpt>
<trkpt lat="55.785618" lon="26.036230">
<ele>185.545044</ele>
<time>2010-07-17T16:32:00Z</time>
<desc>lat.=55.785618, lon.=26.036230, Alt.=185.545044m. Speed=1.152000m/h.</desc>
<speed>0.320000</speed>
</trkpt>
<trkpt lat="55.785614" lon="26.036228">
<ele>185.529419</ele>
<time>2010-07-17T16:32:01Z</time>
<desc>lat.=55.785614, lon.=26.036228, Alt.=185.529419m. Speed=1.008000m/h.</desc>
<speed>0.280000</speed>
</trkpt>
<trkpt lat="55.785614" lon="26.036226">
<ele>185.505981</ele>
<time>2010-07-17T16:32:02Z</time>
<desc>lat.=55.785614, lon.=26.036226, Alt.=185.505981m. Speed=1.044000m/h.</desc>
<speed>0.290000</speed>
</trkpt>
<trkpt lat="55.785610" lon="26.036224">
<ele>185.490356</ele>
<time>2010-07-17T16:32:03Z</time>
<desc>lat.=55.785610, lon.=26.036224, Alt.=185.490356m. Speed=0.612000m/h.</desc>
<speed>0.170000</speed>
</trkpt>
<trkpt lat="55.785610" lon="26.036222">
<ele>185.478638</ele>
<time>2010-07-17T16:32:04Z</time>
<desc>lat.=55.785610, lon.=26.036222, Alt.=185.478638m. Speed=0.612000m/h.</desc>
<speed>0.170000</speed>
</trkpt>
<trkpt lat="55.785606" lon="26.036222">
<ele>185.466919</ele>
<time>2010-07-17T16:32:05Z</time>
<desc>lat.=55.785606, lon.=26.036222, Alt.=185.466919m. Speed=0.252000m/h.</desc>
<speed>0.070000</speed>
</trkpt>
<trkpt lat="55.785606" lon="26.036221">
<ele>185.451294</ele>
<time>2010-07-17T16:32:06Z</time>
<desc>lat.=55.785606, lon.=26.036221, Alt.=185.451294m. Speed=0.648000m/h.</desc>
<speed>0.180000</speed>
</trkpt>
<trkpt lat="55.785606" lon="26.036219">
<ele>185.439575</ele>
<time>2010-07-17T16:32:07Z</time>
<desc>lat.=55.785606, lon.=26.036219, Alt.=185.439575m. Speed=0.864000m/h.</desc>
<speed>0.240000</speed>
</trkpt>
<trkpt lat="55.785603" lon="26.036217">
<ele>185.435669</ele>
<time>2010-07-17T16:32:08Z</time>
<desc>lat.=55.785603, lon.=26.036217, Alt.=185.435669m. Speed=0.792000m/h.</desc>
<speed>0.220000</speed>
</trkpt>
<trkpt lat="55.785603" lon="26.036217">
<ele>185.435669</ele>
<time>2010-07-17T16:32:09Z</time>
<desc>lat.=55.785603, lon.=26.036217, Alt.=185.435669m. Speed=0.936000m/h.</desc>
<speed>0.260000</speed>
</trkpt>
<trkpt lat="55.785599" lon="26.036213">
<ele>185.431763</ele>
<time>2010-07-17T16:32:10Z</time>
<desc>lat.=55.785599, lon.=26.036213, Alt.=185.431763m. Speed=1.368000m/h.</desc>
<speed>0.380000</speed>
</trkpt>
<trkpt lat="55.785595" lon="26.036211">
<ele>185.431763</ele>
<time>2010-07-17T16:32:11Z</time>
<desc>lat.=55.785595, lon.=26.036211, Alt.=185.431763m. Speed=1.260000m/h.</desc>
<speed>0.350000</speed>
</trkpt>
<trkpt lat="55.785591" lon="26.036209">
<ele>185.427856</ele>
<time>2010-07-17T16:32:12Z</time>
<desc>lat.=55.785591, lon.=26.036209, Alt.=185.427856m. Speed=1.332000m/h.</desc>
<speed>0.370000</speed>
</trkpt>
<trkpt lat="55.785587" lon="26.036205">
<ele>185.420044</ele>
<time>2010-07-17T16:32:13Z</time>
<desc>lat.=55.785587, lon.=26.036205, Alt.=185.420044m. Speed=1.152000m/h.</desc>
<speed>0.320000</speed>
</trkpt>
<trkpt lat="55.785587" lon="26.036203">
<ele>185.412231</ele>
<time>2010-07-17T16:32:14Z</time>
<desc>lat.=55.785587, lon.=26.036203, Alt.=185.412231m. Speed=1.188000m/h.</desc>
<speed>0.330000</speed>
</trkpt>
<trkpt lat="55.785583" lon="26.036201">
<ele>185.396606</ele>
<time>2010-07-17T16:32:15Z</time>
<desc>lat.=55.785583, lon.=26.036201, Alt.=185.396606m. Speed=1.512000m/h.</desc>
<speed>0.420000</speed>
</trkpt>
<trkpt lat="55.785580" lon="26.036198">
<ele>185.388794</ele>
<time>2010-07-17T16:32:16Z</time>
<desc>lat.=55.785580, lon.=26.036198, Alt.=185.388794m. Speed=0.648000m/h.</desc>
<speed>0.180000</speed>
</trkpt>
<trkpt lat="55.785580" lon="26.036196">
<ele>185.369263</ele>
<time>2010-07-17T16:32:17Z</time>
<desc>lat.=55.785580, lon.=26.036196, Alt.=185.369263m. Speed=0.216000m/h.</desc>
<speed>0.060000</speed>
</trkpt>
<trkpt lat="55.785580" lon="26.036196">
<ele>185.349731</ele>
<time>2010-07-17T16:32:18Z</time>
<desc>lat.=55.785580, lon.=26.036196, Alt.=185.349731m. Speed=0.936000m/h.</desc>
<speed>0.260000</speed>
</trkpt>
<trkpt lat="55.785576" lon="26.036194">
<ele>185.345825</ele>
<time>2010-07-17T16:32:19Z</time>
<desc>lat.=55.785576, lon.=26.036194, Alt.=185.345825m. Speed=0.792000m/h.</desc>
<speed>0.220000</speed>
</trkpt>
<trkpt lat="55.785576" lon="26.036192">
<ele>185.345825</ele>
<time>2010-07-17T16:32:20Z</time>
<desc>lat.=55.785576, lon.=26.036192, Alt.=185.345825m. Speed=0.756000m/h.</desc>
<speed>0.210000</speed>
</trkpt>
<trkpt lat="55.785572" lon="26.036190">
<ele>185.349731</ele>
<time>2010-07-17T16:32:21Z</time>
<desc>lat.=55.785572, lon.=26.036190, Alt.=185.349731m. Speed=0.504000m/h.</desc>
<speed>0.140000</speed>
</trkpt>
<trkpt lat="55.785572" lon="26.036188">
<ele>185.353638</ele>
<time>2010-07-17T16:32:22Z</time>
<desc>lat.=55.785572, lon.=26.036188, Alt.=185.353638m. Speed=0.540000m/h.</desc>
<speed>0.150000</speed>
</trkpt>
<trkpt lat="55.785572" lon="26.036186">
<ele>185.361450</ele>
<time>2010-07-17T16:32:23Z</time>
<desc>lat.=55.785572, lon.=26.036186, Alt.=185.361450m. Speed=0.396000m/h.</desc>
<speed>0.110000</speed>
</trkpt>
<trkpt lat="55.785572" lon="26.036184">
<ele>185.373169</ele>
<time>2010-07-17T16:32:24Z</time>
<desc>lat.=55.785572, lon.=26.036184, Alt.=185.373169m. Speed=0.108000m/h.</desc>
<speed>0.030000</speed>
</trkpt>
<trkpt lat="55.785572" lon="26.036184">
<ele>185.384888</ele>
<time>2010-07-17T16:32:25Z</time>
<desc>lat.=55.785572, lon.=26.036184, Alt.=185.384888m. Speed=0.360000m/h.</desc>
<speed>0.100000</speed>
</trkpt>
<trkpt lat="55.785572" lon="26.036182">
<ele>185.396606</ele>
<time>2010-07-17T16:32:26Z</time>
<desc>lat.=55.785572, lon.=26.036182, Alt.=185.396606m. Speed=0.216000m/h.</desc>
<speed>0.060000</speed>
</trkpt>
<trkpt lat="55.785572" lon="26.036182">
<ele>185.404419</ele>
<time>2010-07-17T16:32:27Z</time>
<desc>lat.=55.785572, lon.=26.036182, Alt.=185.404419m. Speed=0.108000m/h.</desc>
<speed>0.030000</speed>
</trkpt>
<trkpt lat="55.785568" lon="26.036182">
<ele>185.408325</ele>
<time>2010-07-17T16:32:28Z</time>
<desc>lat.=55.785568, lon.=26.036182, Alt.=185.408325m. Speed=0.288000m/h.</desc>
<speed>0.080000</speed>
</trkpt>
<trkpt lat="55.785568" lon="26.036182">
<ele>185.412231</ele>
<time>2010-07-17T16:32:29Z</time>
<desc>lat.=55.785568, lon.=26.036182, Alt.=185.412231m. Speed=0.360000m/h.</desc>
<speed>0.100000</speed>
</trkpt>
<trkpt lat="55.785568" lon="26.036182">
<ele>185.416138</ele>
<time>2010-07-17T16:32:30Z</time>
<desc>lat.=55.785568, lon.=26.036182, Alt.=185.416138m. Speed=0.288000m/h.</desc>
<speed>0.080000</speed>
</trkpt>
<trkpt lat="55.785568" lon="26.036182">
<ele>185.420044</ele>
<time>2010-07-17T16:32:31Z</time>
<desc>lat.=55.785568, lon.=26.036182, Alt.=185.420044m. Speed=0.576000m/h.</desc>
<speed>0.160000</speed>
</trkpt>
<trkpt lat="55.785564" lon="26.036182">
<ele>185.420044</ele>
<time>2010-07-17T16:32:32Z</time>
<desc>lat.=55.785564, lon.=26.036182, Alt.=185.420044m. Speed=0.936000m/h.</desc>
<speed>0.260000</speed>
</trkpt>
<trkpt lat="55.785564" lon="26.036182">
<ele>185.420044</ele>
<time>2010-07-17T16:32:33Z</time>
<desc>lat.=55.785564, lon.=26.036182, Alt.=185.420044m. Speed=0.792000m/h.</desc>
<speed>0.220000</speed>
</trkpt>
<trkpt lat="55.785561" lon="26.036184">
<ele>185.416138</ele>
<time>2010-07-17T16:32:34Z</time>
<desc>lat.=55.785561, lon.=26.036184, Alt.=185.416138m. Speed=0.648000m/h.</desc>
<speed>0.180000</speed>
</trkpt>
<trkpt lat="55.785561" lon="26.036184">
<ele>185.408325</ele>
<time>2010-07-17T16:32:35Z</time>
<desc>lat.=55.785561, lon.=26.036184, Alt.=185.408325m. Speed=0.612000m/h.</desc>
<speed>0.170000</speed>
</trkpt>
<trkpt lat="55.785561" lon="26.036186">
<ele>185.388794</ele>
<time>2010-07-17T16:32:36Z</time>
<desc>lat.=55.785561, lon.=26.036186, Alt.=185.388794m. Speed=0.036000m/h.</desc>
<speed>0.010000</speed>
</trkpt>
<trkpt lat="55.785561" lon="26.036186">
<ele>185.380981</ele>
<time>2010-07-17T16:32:37Z</time>
<desc>lat.=55.785561, lon.=26.036186, Alt.=185.380981m. Speed=0.072000m/h.</desc>
<speed>0.020000</speed>
</trkpt>
<trkpt lat="55.785561" lon="26.036186">
<ele>185.373169</ele>
<time>2010-07-17T16:32:38Z</time>
<desc>lat.=55.785561, lon.=26.036186, Alt.=185.373169m. Speed=0.396000m/h.</desc>
<speed>0.110000</speed>
</trkpt>
<trkpt lat="55.785561" lon="26.036186">
<ele>185.357544</ele>
<time>2010-07-17T16:32:39Z</time>
<desc>lat.=55.785561, lon.=26.036186, Alt.=185.357544m. Speed=0.576000m/h.</desc>
<speed>0.160000</speed>
</trkpt>
<trkpt lat="55.785557" lon="26.036186">
<ele>185.345825</ele>
<time>2010-07-17T16:32:40Z</time>
<desc>lat.=55.785557, lon.=26.036186, Alt.=185.345825m. Speed=0.792000m/h.</desc>
<speed>0.220000</speed>
</trkpt>
<trkpt lat="55.785557" lon="26.036184">
<ele>185.334106</ele>
<time>2010-07-17T16:32:41Z</time>
<desc>lat.=55.785557, lon.=26.036184, Alt.=185.334106m. Speed=0.792000m/h.</desc>
<speed>0.220000</speed>
</trkpt>
<trkpt lat="55.785553" lon="26.036184">
<ele>185.326294</ele>
<time>2010-07-17T16:32:42Z</time>
<desc>lat.=55.785553, lon.=26.036184, Alt.=185.326294m. Speed=0.612000m/h.</desc>
<speed>0.170000</speed>
</trkpt>
<trkpt lat="55.785553" lon="26.036184">
<ele>185.295044</ele>
<time>2010-07-17T16:32:43Z</time>
<desc>lat.=55.785553, lon.=26.036184, Alt.=185.295044m. Speed=0.504000m/h.</desc>
<speed>0.140000</speed>
</trkpt>
<trkpt lat="55.785553" lon="26.036184">
<ele>185.275513</ele>
<time>2010-07-17T16:32:44Z</time>
<desc>lat.=55.785553, lon.=26.036184, Alt.=185.275513m. Speed=0.468000m/h.</desc>
<speed>0.130000</speed>
</trkpt>
<trkpt lat="55.785549" lon="26.036184">
<ele>185.263794</ele>
<time>2010-07-17T16:32:45Z</time>
<desc>lat.=55.785549, lon.=26.036184, Alt.=185.263794m. Speed=0.504000m/h.</desc>
<speed>0.140000</speed>
</trkpt>
<trkpt lat="55.785549" lon="26.036186">
<ele>185.259888</ele>
<time>2010-07-17T16:32:46Z</time>
<desc>lat.=55.785549, lon.=26.036186, Alt.=185.259888m. Speed=0.504000m/h.</desc>
<speed>0.140000</speed>
</trkpt>
<trkpt lat="55.785549" lon="26.036186">
<ele>185.252075</ele>
<time>2010-07-17T16:32:47Z</time>
<desc>lat.=55.785549, lon.=26.036186, Alt.=185.252075m. Speed=0.648000m/h.</desc>
<speed>0.180000</speed>
</trkpt>
<trkpt lat="55.785545" lon="26.036188">
<ele>185.240356</ele>
<time>2010-07-17T16:32:48Z</time>
<desc>lat.=55.785545, lon.=26.036188, Alt.=185.240356m. Speed=0.792000m/h.</desc>
<speed>0.220000</speed>
</trkpt>
<trkpt lat="55.785545" lon="26.036192">
<ele>185.228638</ele>
<time>2010-07-17T16:32:49Z</time>
<desc>lat.=55.785545, lon.=26.036192, Alt.=185.228638m. Speed=0.576000m/h.</desc>
<speed>0.160000</speed>
</trkpt>
<trkpt lat="55.785542" lon="26.036192">
<ele>185.220825</ele>
<time>2010-07-17T16:32:50Z</time>
<desc>lat.=55.785542, lon.=26.036192, Alt.=185.220825m. Speed=1.080000m/h.</desc>
<speed>0.300000</speed>
</trkpt>
<trkpt lat="55.785542" lon="26.036192">
<ele>185.205200</ele>
<time>2010-07-17T16:32:51Z</time>
<desc>lat.=55.785542, lon.=26.036192, Alt.=185.205200m. Speed=1.332000m/h.</desc>
<speed>0.370000</speed>
</trkpt>
<trkpt lat="55.785538" lon="26.036194">
<ele>185.193481</ele>
<time>2010-07-17T16:32:52Z</time>
<desc>lat.=55.785538, lon.=26.036194, Alt.=185.193481m. Speed=1.584000m/h.</desc>
<speed>0.440000</speed>
</trkpt>
<trkpt lat="55.785534" lon="26.036196">
<ele>185.177856</ele>
<time>2010-07-17T16:32:53Z</time>
<desc>lat.=55.785534, lon.=26.036196, Alt.=185.177856m. Speed=1.872000m/h.</desc>
<speed>0.520000</speed>
</trkpt>
<trkpt lat="55.785526" lon="26.036196">
<ele>185.166138</ele>
<time>2010-07-17T16:32:54Z</time>
<desc>lat.=55.785526, lon.=26.036196, Alt.=185.166138m. Speed=3.420000m/h.</desc>
<speed>0.950000</speed>
</trkpt>
<trkpt lat="55.785519" lon="26.036201">
<ele>185.150513</ele>
<time>2010-07-17T16:32:55Z</time>
<desc>lat.=55.785519, lon.=26.036201, Alt.=185.150513m. Speed=3.888000m/h.</desc>
<speed>1.080000</speed>
</trkpt>
<trkpt lat="55.785496" lon="26.036209">
<ele>185.127075</ele>
<time>2010-07-17T16:32:56Z</time>
<desc>lat.=55.785496, lon.=26.036209, Alt.=185.127075m. Speed=4.932000m/h.</desc>
<speed>1.370000</speed>
</trkpt>
<trkpt lat="55.785473" lon="26.036219">
<ele>184.502075</ele>
<time>2010-07-17T16:32:57Z</time>
<desc>lat.=55.785473, lon.=26.036219, Alt.=184.502075m. Speed=6.156000m/h.</desc>
<speed>1.710000</speed>
</trkpt>
<trkpt lat="55.785427" lon="26.036232">
<ele>184.584106</ele>
<time>2010-07-17T16:32:58Z</time>
<desc>lat.=55.785427, lon.=26.036232, Alt.=184.584106m. Speed=9.360000m/h.</desc>
<speed>2.600000</speed>
</trkpt>
<trkpt lat="55.785389" lon="26.036238">
<ele>184.576294</ele>
<time>2010-07-17T16:32:59Z</time>
<desc>lat.=55.785389, lon.=26.036238, Alt.=184.576294m. Speed=10.512000m/h.</desc>
<speed>2.920000</speed>
</trkpt>
<trkpt lat="55.785343" lon="26.036253">
<ele>184.779419</ele>
<time>2010-07-17T16:33:00Z</time>
<desc>lat.=55.785343, lon.=26.036253, Alt.=184.779419m. Speed=14.832000m/h.</desc>
<speed>4.120000</speed>
</trkpt>
<trkpt lat="55.785309" lon="26.036270">
<ele>185.025513</ele>
<time>2010-07-17T16:33:01Z</time>
<desc>lat.=55.785309, lon.=26.036270, Alt.=185.025513m. Speed=11.592000m/h.</desc>
<speed>3.220000</speed>
</trkpt>
<trkpt lat="55.785282" lon="26.036289">
<ele>184.904419</ele>
<time>2010-07-17T16:33:02Z</time>
<desc>lat.=55.785282, lon.=26.036289, Alt.=184.904419m. Speed=8.100000m/h.</desc>
<speed>2.250000</speed>
</trkpt>
<trkpt lat="55.785255" lon="26.036310">
<ele>184.830200</ele>
<time>2010-07-17T16:33:03Z</time>
<desc>lat.=55.785255, lon.=26.036310, Alt.=184.830200m. Speed=8.928000m/h.</desc>
<speed>2.480000</speed>
</trkpt>
<trkpt lat="55.785217" lon="26.036324">
<ele>184.755981</ele>
<time>2010-07-17T16:33:04Z</time>
<desc>lat.=55.785217, lon.=26.036324, Alt.=184.755981m. Speed=11.808000m/h.</desc>
<speed>3.280000</speed>
</trkpt>
<trkpt lat="55.785179" lon="26.036339">
<ele>184.591919</ele>
<time>2010-07-17T16:33:05Z</time>
<desc>lat.=55.785179, lon.=26.036339, Alt.=184.591919m. Speed=11.376000m/h.</desc>
<speed>3.160000</speed>
</trkpt>
<trkpt lat="55.785133" lon="26.036350">
<ele>183.982544</ele>
<time>2010-07-17T16:33:06Z</time>
<desc>lat.=55.785133, lon.=26.036350, Alt.=183.982544m. Speed=14.148000m/h.</desc>
<speed>3.930000</speed>
</trkpt>
<trkpt lat="55.785095" lon="26.036367">
<ele>184.252075</ele>
<time>2010-07-17T16:33:07Z</time>
<desc>lat.=55.785095, lon.=26.036367, Alt.=184.252075m. Speed=13.680000m/h.</desc>
<speed>3.800000</speed>
</trkpt>
<trkpt lat="55.785042" lon="26.036377">
<ele>183.673950</ele>
<time>2010-07-17T16:33:08Z</time>
<desc>lat.=55.785042, lon.=26.036377, Alt.=183.673950m. Speed=13.644000m/h.</desc>
<speed>3.790000</speed>
</trkpt>
<trkpt lat="55.785000" lon="26.036385">
<ele>183.670044</ele>
<time>2010-07-17T16:33:09Z</time>
<desc>lat.=55.785000, lon.=26.036385, Alt.=183.670044m. Speed=14.148000m/h.</desc>
<speed>3.930000</speed>
</trkpt>
<trkpt lat="55.784950" lon="26.036406">
<ele>182.404419</ele>
<time>2010-07-17T16:33:10Z</time>
<desc>lat.=55.784950, lon.=26.036406, Alt.=182.404419m. Speed=13.428000m/h.</desc>
<speed>3.730000</speed>
</trkpt>
<trkpt lat="55.784904" lon="26.036417">
<ele>182.236450</ele>
<time>2010-07-17T16:33:11Z</time>
<desc>lat.=55.784904, lon.=26.036417, Alt.=182.236450m. Speed=14.652000m/h.</desc>
<speed>4.070000</speed>
</trkpt>
<trkpt lat="55.784859" lon="26.036425">
<ele>182.048950</ele>
<time>2010-07-17T16:33:12Z</time>
<desc>lat.=55.784859, lon.=26.036425, Alt.=182.048950m. Speed=15.444000m/h.</desc>
<speed>4.290000</speed>
</trkpt>
<trkpt lat="55.784805" lon="26.036421">
<ele>181.599731</ele>
<time>2010-07-17T16:33:13Z</time>
<desc>lat.=55.784805, lon.=26.036421, Alt.=181.599731m. Speed=15.732000m/h.</desc>
<speed>4.370000</speed>
</trkpt>
<trkpt lat="55.784760" lon="26.036415">
<ele>181.591919</ele>
<time>2010-07-17T16:33:14Z</time>
<desc>lat.=55.784760, lon.=26.036415, Alt.=181.591919m. Speed=15.012000m/h.</desc>
<speed>4.170000</speed>
</trkpt>
<trkpt lat="55.784718" lon="26.036400">
<ele>181.502075</ele>
<time>2010-07-17T16:33:15Z</time>
<desc>lat.=55.784718, lon.=26.036400, Alt.=181.502075m. Speed=14.580000m/h.</desc>
<speed>4.050000</speed>
</trkpt>
<trkpt lat="55.784676" lon="26.036394">
<ele>181.673950</ele>
<time>2010-07-17T16:33:16Z</time>
<desc>lat.=55.784676, lon.=26.036394, Alt.=181.673950m. Speed=14.652000m/h.</desc>
<speed>4.070000</speed>
</trkpt>
<trkpt lat="55.784630" lon="26.036400">
<ele>181.994263</ele>
<time>2010-07-17T16:33:17Z</time>
<desc>lat.=55.784630, lon.=26.036400, Alt.=181.994263m. Speed=15.984000m/h.</desc>
<speed>4.440000</speed>
</trkpt>
<trkpt lat="55.784580" lon="26.036430">
<ele>182.283325</ele>
<time>2010-07-17T16:33:18Z</time>
<desc>lat.=55.784580, lon.=26.036430, Alt.=182.283325m. Speed=16.559999m/h.</desc>
<speed>4.600000</speed>
</trkpt>
<trkpt lat="55.784534" lon="26.036440">
<ele>182.509888</ele>
<time>2010-07-17T16:33:19Z</time>
<desc>lat.=55.784534, lon.=26.036440, Alt.=182.509888m. Speed=15.516000m/h.</desc>
<speed>4.310000</speed>
</trkpt>
<trkpt lat="55.784485" lon="26.036438">
<ele>182.783325</ele>
<time>2010-07-17T16:33:20Z</time>
<desc>lat.=55.784485, lon.=26.036438, Alt.=182.783325m. Speed=18.827999m/h.</desc>
<speed>5.230000</speed>
</trkpt>
<trkpt lat="55.784435" lon="26.036434">
<ele>182.416138</ele>
<time>2010-07-17T16:33:21Z</time>
<desc>lat.=55.784435, lon.=26.036434, Alt.=182.416138m. Speed=17.856001m/h.</desc>
<speed>4.960000</speed>
</trkpt>
<trkpt lat="55.784386" lon="26.036434">
<ele>182.498169</ele>
<time>2010-07-17T16:33:22Z</time>
<desc>lat.=55.784386, lon.=26.036434, Alt.=182.498169m. Speed=18.252001m/h.</desc>
<speed>5.070000</speed>
</trkpt>
<trkpt lat="55.784336" lon="26.036442">
<ele>182.170044</ele>
<time>2010-07-17T16:33:23Z</time>
<desc>lat.=55.784336, lon.=26.036442, Alt.=182.170044m. Speed=18.396000m/h.</desc>
<speed>5.110000</speed>
</trkpt>
<trkpt lat="55.784283" lon="26.036453">
<ele>182.283325</ele>
<time>2010-07-17T16:33:24Z</time>
<desc>lat.=55.784283, lon.=26.036453, Alt.=182.283325m. Speed=19.368000m/h.</desc>
<speed>5.380000</speed>
</trkpt>
<trkpt lat="55.784229" lon="26.036457">
<ele>182.505981</ele>
<time>2010-07-17T16:33:25Z</time>
<desc>lat.=55.784229, lon.=26.036457, Alt.=182.505981m. Speed=20.412001m/h.</desc>
<speed>5.670000</speed>
</trkpt>
<trkpt lat="55.784161" lon="26.036465">
<ele>182.759888</ele>
<time>2010-07-17T16:33:26Z</time>
<desc>lat.=55.784161, lon.=26.036465, Alt.=182.759888m. Speed=22.176001m/h.</desc>
<speed>6.160000</speed>
</trkpt>
<trkpt lat="55.784092" lon="26.036461">
<ele>183.041138</ele>
<time>2010-07-17T16:33:27Z</time>
<desc>lat.=55.784092, lon.=26.036461, Alt.=183.041138m. Speed=21.672001m/h.</desc>
<speed>6.020000</speed>
</trkpt>
<trkpt lat="55.784031" lon="26.036461">
<ele>182.974731</ele>
<time>2010-07-17T16:33:28Z</time>
<desc>lat.=55.784031, lon.=26.036461, Alt.=182.974731m. Speed=20.988001m/h.</desc>
<speed>5.830000</speed>
</trkpt>
<trkpt lat="55.783974" lon="26.036469">
<ele>182.908325</ele>
<time>2010-07-17T16:33:29Z</time>
<desc>lat.=55.783974, lon.=26.036469, Alt.=182.908325m. Speed=21.888000m/h.</desc>
<speed>6.080000</speed>
</trkpt>
<trkpt lat="55.783916" lon="26.036472">
<ele>182.982544</ele>
<time>2010-07-17T16:33:30Z</time>
<desc>lat.=55.783916, lon.=26.036472, Alt.=182.982544m. Speed=20.052000m/h.</desc>
<speed>5.570000</speed>
</trkpt>
<trkpt lat="55.783848" lon="26.036491">
<ele>181.541138</ele>
<time>2010-07-17T16:33:31Z</time>
<desc>lat.=55.783848, lon.=26.036491, Alt.=181.541138m. Speed=20.483999m/h.</desc>
<speed>5.690000</speed>
</trkpt>
<trkpt lat="55.783791" lon="26.036518">
<ele>181.584106</ele>
<time>2010-07-17T16:33:32Z</time>
<desc>lat.=55.783791, lon.=26.036518, Alt.=181.584106m. Speed=19.224001m/h.</desc>
<speed>5.340000</speed>
</trkpt>
<trkpt lat="55.783714" lon="26.036530">
<ele>179.271606</ele>
<time>2010-07-17T16:33:33Z</time>
<desc>lat.=55.783714, lon.=26.036530, Alt.=179.271606m. Speed=20.483999m/h.</desc>
<speed>5.690000</speed>
</trkpt>
<trkpt lat="55.783657" lon="26.036526">
<ele>179.373169</ele>
<time>2010-07-17T16:33:34Z</time>
<desc>lat.=55.783657, lon.=26.036526, Alt.=179.373169m. Speed=19.224001m/h.</desc>
<speed>5.340000</speed>
</trkpt>
<trkpt lat="55.783592" lon="26.036539">
<ele>177.943481</ele>
<time>2010-07-17T16:33:35Z</time>
<desc>lat.=55.783592, lon.=26.036539, Alt.=177.943481m. Speed=18.288000m/h.</desc>
<speed>5.080000</speed>
</trkpt>
<trkpt lat="55.783539" lon="26.036543">
<ele>177.826294</ele>
<time>2010-07-17T16:33:36Z</time>
<desc>lat.=55.783539, lon.=26.036543, Alt.=177.826294m. Speed=17.568001m/h.</desc>
<speed>4.880000</speed>
</trkpt>
<trkpt lat="55.783489" lon="26.036549">
<ele>178.095825</ele>
<time>2010-07-17T16:33:37Z</time>
<desc>lat.=55.783489, lon.=26.036549, Alt.=178.095825m. Speed=18.288000m/h.</desc>
<speed>5.080000</speed>
</trkpt>
<trkpt lat="55.783436" lon="26.036558">
<ele>178.552856</ele>
<time>2010-07-17T16:33:38Z</time>
<desc>lat.=55.783436, lon.=26.036558, Alt.=178.552856m. Speed=18.684000m/h.</desc>
<speed>5.190000</speed>
</trkpt>
<trkpt lat="55.783371" lon="26.036541">
<ele>178.603638</ele>
<time>2010-07-17T16:33:39Z</time>
<desc>lat.=55.783371, lon.=26.036541, Alt.=178.603638m. Speed=20.520000m/h.</desc>
<speed>5.700000</speed>
</trkpt>
<trkpt lat="55.783298" lon="26.036535">
<ele>177.716919</ele>
<time>2010-07-17T16:33:40Z</time>
<desc>lat.=55.783298, lon.=26.036535, Alt.=177.716919m. Speed=21.132000m/h.</desc>
<speed>5.870000</speed>
</trkpt>
<trkpt lat="55.783241" lon="26.036518">
<ele>177.763794</ele>
<time>2010-07-17T16:33:41Z</time>
<desc>lat.=55.783241, lon.=26.036518, Alt.=177.763794m. Speed=20.160000m/h.</desc>
<speed>5.600000</speed>
</trkpt>
<trkpt lat="55.783188" lon="26.036516">
<ele>177.939575</ele>
<time>2010-07-17T16:33:42Z</time>
<desc>lat.=55.783188, lon.=26.036516, Alt.=177.939575m. Speed=18.540001m/h.</desc>
<speed>5.150000</speed>
</trkpt>
<trkpt lat="55.783134" lon="26.036510">
<ele>178.068481</ele>
<time>2010-07-17T16:33:43Z</time>
<desc>lat.=55.783134, lon.=26.036510, Alt.=178.068481m. Speed=17.316000m/h.</desc>
<speed>4.810000</speed>
</trkpt>
<trkpt lat="55.783085" lon="26.036499">
<ele>178.205200</ele>
<time>2010-07-17T16:33:44Z</time>
<desc>lat.=55.783085, lon.=26.036499, Alt.=178.205200m. Speed=16.848000m/h.</desc>
<speed>4.680000</speed>
</trkpt>
<trkpt lat="55.783043" lon="26.036489">
<ele>178.537231</ele>
<time>2010-07-17T16:33:45Z</time>
<desc>lat.=55.783043, lon.=26.036489, Alt.=178.537231m. Speed=17.784000m/h.</desc>
<speed>4.940000</speed>
</trkpt>
<trkpt lat="55.782993" lon="26.036446">
<ele>178.693481</ele>
<time>2010-07-17T16:33:46Z</time>
<desc>lat.=55.782993, lon.=26.036446, Alt.=178.693481m. Speed=15.336000m/h.</desc>
<speed>4.260000</speed>
</trkpt>
<trkpt lat="55.782959" lon="26.036440">
<ele>179.029419</ele>
<time>2010-07-17T16:33:47Z</time>
<desc>lat.=55.782959, lon.=26.036440, Alt.=179.029419m. Speed=13.320000m/h.</desc>
<speed>3.700000</speed>
</trkpt>
<trkpt lat="55.782932" lon="26.036434">
<ele>179.349731</ele>
<time>2010-07-17T16:33:48Z</time>
<desc>lat.=55.782932, lon.=26.036434, Alt.=179.349731m. Speed=10.656000m/h.</desc>
<speed>2.960000</speed>
</trkpt>
<trkpt lat="55.782909" lon="26.036434">
<ele>179.779419</ele>
<time>2010-07-17T16:33:49Z</time>
<desc>lat.=55.782909, lon.=26.036434, Alt.=179.779419m. Speed=9.720000m/h.</desc>
<speed>2.700000</speed>
</trkpt>
<trkpt lat="55.782887" lon="26.036436">
<ele>180.170044</ele>
<time>2010-07-17T16:33:50Z</time>
<desc>lat.=55.782887, lon.=26.036436, Alt.=180.170044m. Speed=8.388000m/h.</desc>
<speed>2.330000</speed>
</trkpt>
<trkpt lat="55.782864" lon="26.036428">
<ele>180.556763</ele>
<time>2010-07-17T16:33:51Z</time>
<desc>lat.=55.782864, lon.=26.036428, Alt.=180.556763m. Speed=8.136000m/h.</desc>
<speed>2.260000</speed>
</trkpt>
<trkpt lat="55.782845" lon="26.036415">
<ele>181.009888</ele>
<time>2010-07-17T16:33:52Z</time>
<desc>lat.=55.782845, lon.=26.036415, Alt.=181.009888m. Speed=7.452000m/h.</desc>
<speed>2.070000</speed>
</trkpt>
<trkpt lat="55.782818" lon="26.036385">
<ele>181.779419</ele>
<time>2010-07-17T16:33:53Z</time>
<desc>lat.=55.782818, lon.=26.036385, Alt.=181.779419m. Speed=9.468000m/h.</desc>
<speed>2.630000</speed>
</trkpt>
<trkpt lat="55.782791" lon="26.036354">
<ele>182.275513</ele>
<time>2010-07-17T16:33:54Z</time>
<desc>lat.=55.782791, lon.=26.036354, Alt.=182.275513m. Speed=9.936000m/h.</desc>
<speed>2.760000</speed>
</trkpt>
<trkpt lat="55.782764" lon="26.036327">
<ele>182.720825</ele>
<time>2010-07-17T16:33:55Z</time>
<desc>lat.=55.782764, lon.=26.036327, Alt.=182.720825m. Speed=8.856000m/h.</desc>
<speed>2.460000</speed>
</trkpt>
<trkpt lat="55.782738" lon="26.036301">
<ele>182.986450</ele>
<time>2010-07-17T16:33:56Z</time>
<desc>lat.=55.782738, lon.=26.036301, Alt.=182.986450m. Speed=8.820000m/h.</desc>
<speed>2.450000</speed>
</trkpt>
<trkpt lat="55.782700" lon="26.036263">
<ele>182.892700</ele>
<time>2010-07-17T16:33:57Z</time>
<desc>lat.=55.782700, lon.=26.036263, Alt.=182.892700m. Speed=10.476000m/h.</desc>
<speed>2.910000</speed>
</trkpt>
<trkpt lat="55.782673" lon="26.036236">
<ele>183.248169</ele>
<time>2010-07-17T16:33:58Z</time>
<desc>lat.=55.782673, lon.=26.036236, Alt.=183.248169m. Speed=9.792000m/h.</desc>
<speed>2.720000</speed>
</trkpt>
<trkpt lat="55.782642" lon="26.036203">
<ele>183.224731</ele>
<time>2010-07-17T16:33:59Z</time>
<desc>lat.=55.782642, lon.=26.036203, Alt.=183.224731m. Speed=9.684000m/h.</desc>
<speed>2.690000</speed>
</trkpt>
<trkpt lat="55.782612" lon="26.036158">
<ele>183.338013</ele>
<time>2010-07-17T16:34:00Z</time>
<desc>lat.=55.782612, lon.=26.036158, Alt.=183.338013m. Speed=11.376000m/h.</desc>
<speed>3.160000</speed>
</trkpt>
<trkpt lat="55.782578" lon="26.036135">
<ele>183.529419</ele>
<time>2010-07-17T16:34:01Z</time>
<desc>lat.=55.782578, lon.=26.036135, Alt.=183.529419m. Speed=11.052000m/h.</desc>
<speed>3.070000</speed>
</trkpt>
<trkpt lat="55.782551" lon="26.036083">
<ele>183.623169</ele>
<time>2010-07-17T16:34:02Z</time>
<desc>lat.=55.782551, lon.=26.036083, Alt.=183.623169m. Speed=11.376000m/h.</desc>
<speed>3.160000</speed>
</trkpt>
<trkpt lat="55.782524" lon="26.036036">
<ele>183.939575</ele>
<time>2010-07-17T16:34:03Z</time>
<desc>lat.=55.782524, lon.=26.036036, Alt.=183.939575m. Speed=11.484000m/h.</desc>
<speed>3.190000</speed>
</trkpt>
<trkpt lat="55.782497" lon="26.035995">
<ele>183.900513</ele>
<time>2010-07-17T16:34:04Z</time>
<desc>lat.=55.782497, lon.=26.035995, Alt.=183.900513m. Speed=10.296000m/h.</desc>
<speed>2.860000</speed>
</trkpt>
<trkpt lat="55.782467" lon="26.035965">
<ele>183.912231</ele>
<time>2010-07-17T16:34:05Z</time>
<desc>lat.=55.782467, lon.=26.035965, Alt.=183.912231m. Speed=10.728000m/h.</desc>
<speed>2.980000</speed>
</trkpt>
<trkpt lat="55.782433" lon="26.035910">
<ele>183.896606</ele>
<time>2010-07-17T16:34:06Z</time>
<desc>lat.=55.782433, lon.=26.035910, Alt.=183.896606m. Speed=12.204000m/h.</desc>
<speed>3.390000</speed>
</trkpt>
<trkpt lat="55.782394" lon="26.035860">
<ele>184.134888</ele>
<time>2010-07-17T16:34:07Z</time>
<desc>lat.=55.782394, lon.=26.035860, Alt.=184.134888m. Speed=14.292000m/h.</desc>
<speed>3.970000</speed>
</trkpt>
<trkpt lat="55.782368" lon="26.035812">
<ele>184.255981</ele>
<time>2010-07-17T16:34:08Z</time>
<desc>lat.=55.782368, lon.=26.035812, Alt.=184.255981m. Speed=12.348000m/h.</desc>
<speed>3.430000</speed>
</trkpt>
<trkpt lat="55.782326" lon="26.035755">
<ele>184.451294</ele>
<time>2010-07-17T16:34:09Z</time>
<desc>lat.=55.782326, lon.=26.035755, Alt.=184.451294m. Speed=12.636000m/h.</desc>
<speed>3.510000</speed>
</trkpt>
<trkpt lat="55.782295" lon="26.035706">
<ele>185.009888</ele>
<time>2010-07-17T16:34:10Z</time>
<desc>lat.=55.782295, lon.=26.035706, Alt.=185.009888m. Speed=11.772000m/h.</desc>
<speed>3.270000</speed>
</trkpt>
<trkpt lat="55.782257" lon="26.035648">
<ele>184.693481</ele>
<time>2010-07-17T16:34:11Z</time>
<desc>lat.=55.782257, lon.=26.035648, Alt.=184.693481m. Speed=11.772000m/h.</desc>
<speed>3.270000</speed>
</trkpt>
<trkpt lat="55.782207" lon="26.035589">
<ele>183.662231</ele>
<time>2010-07-17T16:34:12Z</time>
<desc>lat.=55.782207, lon.=26.035589, Alt.=183.662231m. Speed=13.212000m/h.</desc>
<speed>3.670000</speed>
</trkpt>
<trkpt lat="55.782185" lon="26.035547">
<ele>183.970825</ele>
<time>2010-07-17T16:34:13Z</time>
<desc>lat.=55.782185, lon.=26.035547, Alt.=183.970825m. Speed=12.780000m/h.</desc>
<speed>3.550000</speed>
</trkpt>
<trkpt lat="55.782166" lon="26.035503">
<ele>184.255981</ele>
<time>2010-07-17T16:34:14Z</time>
<desc>lat.=55.782166, lon.=26.035503, Alt.=184.255981m. Speed=12.132000m/h.</desc>
<speed>3.370000</speed>
</trkpt>
<trkpt lat="55.782146" lon="26.035456">
<ele>184.365356</ele>
<time>2010-07-17T16:34:15Z</time>
<desc>lat.=55.782146, lon.=26.035456, Alt.=184.365356m. Speed=11.664000m/h.</desc>
<speed>3.240000</speed>
</trkpt>
<trkpt lat="55.782131" lon="26.035410">
<ele>184.603638</ele>
<time>2010-07-17T16:34:16Z</time>
<desc>lat.=55.782131, lon.=26.035410, Alt.=184.603638m. Speed=11.052000m/h.</desc>
<speed>3.070000</speed>
</trkpt>
<trkpt lat="55.782112" lon="26.035366">
<ele>184.732544</ele>
<time>2010-07-17T16:34:17Z</time>
<desc>lat.=55.782112, lon.=26.035366, Alt.=184.732544m. Speed=10.656000m/h.</desc>
<speed>2.960000</speed>
</trkpt>
<trkpt lat="55.782078" lon="26.035299">
<ele>184.642700</ele>
<time>2010-07-17T16:34:18Z</time>
<desc>lat.=55.782078, lon.=26.035299, Alt.=184.642700m. Speed=11.916000m/h.</desc>
<speed>3.310000</speed>
</trkpt>
<trkpt lat="55.782059" lon="26.035236">
<ele>184.560669</ele>
<time>2010-07-17T16:34:19Z</time>
<desc>lat.=55.782059, lon.=26.035236, Alt.=184.560669m. Speed=15.300000m/h.</desc>
<speed>4.250000</speed>
</trkpt>
<trkpt lat="55.782032" lon="26.035172">
<ele>184.279419</ele>
<time>2010-07-17T16:34:20Z</time>
<desc>lat.=55.782032, lon.=26.035172, Alt.=184.279419m. Speed=12.744000m/h.</desc>
<speed>3.540000</speed>
</trkpt>
<trkpt lat="55.781998" lon="26.035101">
<ele>183.998169</ele>
<time>2010-07-17T16:34:21Z</time>
<desc>lat.=55.781998, lon.=26.035101, Alt.=183.998169m. Speed=12.960000m/h.</desc>
<speed>3.600000</speed>
</trkpt>
<trkpt lat="55.781975" lon="26.035011">
<ele>183.970825</ele>
<time>2010-07-17T16:34:22Z</time>
<desc>lat.=55.781975, lon.=26.035011, Alt.=183.970825m. Speed=15.912000m/h.</desc>
<speed>4.420000</speed>
</trkpt>
<trkpt lat="55.781948" lon="26.034939">
<ele>183.998169</ele>
<time>2010-07-17T16:34:23Z</time>
<desc>lat.=55.781948, lon.=26.034939, Alt.=183.998169m. Speed=15.804000m/h.</desc>
<speed>4.390000</speed>
</trkpt>
<trkpt lat="55.781933" lon="26.034853">
<ele>183.763794</ele>
<time>2010-07-17T16:34:24Z</time>
<desc>lat.=55.781933, lon.=26.034853, Alt.=183.763794m. Speed=14.040000m/h.</desc>
<speed>3.900000</speed>
</trkpt>
<trkpt lat="55.781914" lon="26.034790">
<ele>183.853638</ele>
<time>2010-07-17T16:34:25Z</time>
<desc>lat.=55.781914, lon.=26.034790, Alt.=183.853638m. Speed=14.940000m/h.</desc>
<speed>4.150000</speed>
</trkpt>
<trkpt lat="55.781887" lon="26.034714">
<ele>183.783325</ele>
<time>2010-07-17T16:34:26Z</time>
<desc>lat.=55.781887, lon.=26.034714, Alt.=183.783325m. Speed=15.120000m/h.</desc>
<speed>4.200000</speed>
</trkpt>
<trkpt lat="55.781876" lon="26.034651">
<ele>183.904419</ele>
<time>2010-07-17T16:34:27Z</time>
<desc>lat.=55.781876, lon.=26.034651, Alt.=183.904419m. Speed=14.076000m/h.</desc>
<speed>3.910000</speed>
</trkpt>
<trkpt lat="55.781857" lon="26.034576">
<ele>183.392700</ele>
<time>2010-07-17T16:34:28Z</time>
<desc>lat.=55.781857, lon.=26.034576, Alt.=183.392700m. Speed=15.084000m/h.</desc>
<speed>4.190000</speed>
</trkpt>
<trkpt lat="55.781837" lon="26.034496">
<ele>183.486450</ele>
<time>2010-07-17T16:34:29Z</time>
<desc>lat.=55.781837, lon.=26.034496, Alt.=183.486450m. Speed=16.020000m/h.</desc>
<speed>4.450000</speed>
</trkpt>
<trkpt lat="55.781818" lon="26.034409">
<ele>182.959106</ele>
<time>2010-07-17T16:34:30Z</time>
<desc>lat.=55.781818, lon.=26.034409, Alt.=182.959106m. Speed=14.400000m/h.</desc>
<speed>4.000000</speed>
</trkpt>
<trkpt lat="55.781796" lon="26.034325">
<ele>182.177856</ele>
<time>2010-07-17T16:34:31Z</time>
<desc>lat.=55.781796, lon.=26.034325, Alt.=182.177856m. Speed=15.336000m/h.</desc>
<speed>4.260000</speed>
</trkpt>
<trkpt lat="55.781784" lon="26.034246">
<ele>182.064575</ele>
<time>2010-07-17T16:34:32Z</time>
<desc>lat.=55.781784, lon.=26.034246, Alt.=182.064575m. Speed=13.644000m/h.</desc>
<speed>3.790000</speed>
</trkpt>
<trkpt lat="55.781773" lon="26.034184">
<ele>182.091919</ele>
<time>2010-07-17T16:34:33Z</time>
<desc>lat.=55.781773, lon.=26.034184, Alt.=182.091919m. Speed=10.980000m/h.</desc>
<speed>3.050000</speed>
</trkpt>
<trkpt lat="55.781757" lon="26.034117">
<ele>181.986450</ele>
<time>2010-07-17T16:34:34Z</time>
<desc>lat.=55.781757, lon.=26.034117, Alt.=181.986450m. Speed=12.636000m/h.</desc>
<speed>3.510000</speed>
</trkpt>
<trkpt lat="55.781738" lon="26.034050">
<ele>182.072388</ele>
<time>2010-07-17T16:34:35Z</time>
<desc>lat.=55.781738, lon.=26.034050, Alt.=182.072388m. Speed=13.392000m/h.</desc>
<speed>3.720000</speed>
</trkpt>
<trkpt lat="55.781715" lon="26.033987">
<ele>181.615356</ele>
<time>2010-07-17T16:34:36Z</time>
<desc>lat.=55.781715, lon.=26.033987, Alt.=181.615356m. Speed=11.952000m/h.</desc>
<speed>3.320000</speed>
</trkpt>
<trkpt lat="55.781689" lon="26.033909">
<ele>181.283325</ele>
<time>2010-07-17T16:34:37Z</time>
<desc>lat.=55.781689, lon.=26.033909, Alt.=181.283325m. Speed=12.744000m/h.</desc>
<speed>3.540000</speed>
</trkpt>
<trkpt lat="55.781673" lon="26.033831">
<ele>181.533325</ele>
<time>2010-07-17T16:34:38Z</time>
<desc>lat.=55.781673, lon.=26.033831, Alt.=181.533325m. Speed=14.652000m/h.</desc>
<speed>4.070000</speed>
</trkpt>
<trkpt lat="55.781643" lon="26.033743">
<ele>180.939575</ele>
<time>2010-07-17T16:34:39Z</time>
<desc>lat.=55.781643, lon.=26.033743, Alt.=180.939575m. Speed=16.488001m/h.</desc>
<speed>4.580000</speed>
</trkpt>
<trkpt lat="55.781624" lon="26.033657">
<ele>181.013794</ele>
<time>2010-07-17T16:34:40Z</time>
<desc>lat.=55.781624, lon.=26.033657, Alt.=181.013794m. Speed=15.588000m/h.</desc>
<speed>4.330000</speed>
</trkpt>
<trkpt lat="55.781578" lon="26.033512">
<ele>179.416138</ele>
<time>2010-07-17T16:34:41Z</time>
<desc>lat.=55.781578, lon.=26.033512, Alt.=179.416138m. Speed=16.632000m/h.</desc>
<speed>4.620000</speed>
</trkpt>
<trkpt lat="55.781548" lon="26.033419">
<ele>178.427856</ele>
<time>2010-07-17T16:34:42Z</time>
<desc>lat.=55.781548, lon.=26.033419, Alt.=178.427856m. Speed=17.784000m/h.</desc>
<speed>4.940000</speed>
</trkpt>
<trkpt lat="55.781525" lon="26.033339">
<ele>178.072388</ele>
<time>2010-07-17T16:34:43Z</time>
<desc>lat.=55.781525, lon.=26.033339, Alt.=178.072388m. Speed=16.848000m/h.</desc>
<speed>4.680000</speed>
</trkpt>
<trkpt lat="55.781506" lon="26.033243">
<ele>178.252075</ele>
<time>2010-07-17T16:34:44Z</time>
<desc>lat.=55.781506, lon.=26.033243, Alt.=178.252075m. Speed=18.288000m/h.</desc>
<speed>5.080000</speed>
</trkpt>
<trkpt lat="55.781490" lon="26.033159">
<ele>177.611450</ele>
<time>2010-07-17T16:34:45Z</time>
<desc>lat.=55.781490, lon.=26.033159, Alt.=177.611450m. Speed=18.827999m/h.</desc>
<speed>5.230000</speed>
</trkpt>
<trkpt lat="55.781483" lon="26.033077">
<ele>177.548950</ele>
<time>2010-07-17T16:34:46Z</time>
<desc>lat.=55.781483, lon.=26.033077, Alt.=177.548950m. Speed=18.360001m/h.</desc>
<speed>5.100000</speed>
</trkpt>
<trkpt lat="55.781471" lon="26.032984">
<ele>176.088013</ele>
<time>2010-07-17T16:34:47Z</time>
<desc>lat.=55.781471, lon.=26.032984, Alt.=176.088013m. Speed=18.756001m/h.</desc>
<speed>5.210000</speed>
</trkpt>
<trkpt lat="55.781460" lon="26.032902">
<ele>175.298950</ele>
<time>2010-07-17T16:34:48Z</time>
<desc>lat.=55.781460, lon.=26.032902, Alt.=175.298950m. Speed=17.028000m/h.</desc>
<speed>4.730000</speed>
</trkpt>
<trkpt lat="55.781456" lon="26.032835">
<ele>175.084106</ele>
<time>2010-07-17T16:34:49Z</time>
<desc>lat.=55.781456, lon.=26.032835, Alt.=175.084106m. Speed=14.112000m/h.</desc>
<speed>3.920000</speed>
</trkpt>
<trkpt lat="55.781425" lon="26.032763">
<ele>175.447388</ele>
<time>2010-07-17T16:34:50Z</time>
<desc>lat.=55.781425, lon.=26.032763, Alt.=175.447388m. Speed=16.056000m/h.</desc>
<speed>4.460000</speed>
</trkpt>
<trkpt lat="55.781395" lon="26.032663">
<ele>176.498169</ele>
<time>2010-07-17T16:34:51Z</time>
<desc>lat.=55.781395, lon.=26.032663, Alt.=176.498169m. Speed=19.332001m/h.</desc>
<speed>5.370000</speed>
</trkpt>
<trkpt lat="55.781380" lon="26.032576">
<ele>176.888794</ele>
<time>2010-07-17T16:34:52Z</time>
<desc>lat.=55.781380, lon.=26.032576, Alt.=176.888794m. Speed=20.375999m/h.</desc>
<speed>5.660000</speed>
</trkpt>
<trkpt lat="55.781364" lon="26.032484">
<ele>176.607544</ele>
<time>2010-07-17T16:34:53Z</time>
<desc>lat.=55.781364, lon.=26.032484, Alt.=176.607544m. Speed=21.312000m/h.</desc>
<speed>5.920000</speed>
</trkpt>
<trkpt lat="55.781345" lon="26.032393">
<ele>175.685669</ele>
<time>2010-07-17T16:34:54Z</time>
<desc>lat.=55.781345, lon.=26.032393, Alt.=175.685669m. Speed=19.656000m/h.</desc>
<speed>5.460000</speed>
</trkpt>
<trkpt lat="55.781334" lon="26.032303">
<ele>174.556763</ele>
<time>2010-07-17T16:34:55Z</time>
<desc>lat.=55.781334, lon.=26.032303, Alt.=174.556763m. Speed=18.756001m/h.</desc>
<speed>5.210000</speed>
</trkpt>
<trkpt lat="55.781322" lon="26.032221">
<ele>174.146606</ele>
<time>2010-07-17T16:34:56Z</time>
<desc>lat.=55.781322, lon.=26.032221, Alt.=174.146606m. Speed=19.332001m/h.</desc>
<speed>5.370000</speed>
</trkpt>
<trkpt lat="55.781303" lon="26.032125">
<ele>174.185669</ele>
<time>2010-07-17T16:34:57Z</time>
<desc>lat.=55.781303, lon.=26.032125, Alt.=174.185669m. Speed=20.916000m/h.</desc>
<speed>5.810000</speed>
</trkpt>
<trkpt lat="55.781277" lon="26.032024">
<ele>174.556763</ele>
<time>2010-07-17T16:34:58Z</time>
<desc>lat.=55.781277, lon.=26.032024, Alt.=174.556763m. Speed=21.492001m/h.</desc>
<speed>5.970000</speed>
</trkpt>
<trkpt lat="55.781246" lon="26.031929">
<ele>174.646606</ele>
<time>2010-07-17T16:34:59Z</time>
<desc>lat.=55.781246, lon.=26.031929, Alt.=174.646606m. Speed=21.312000m/h.</desc>
<speed>5.920000</speed>
</trkpt>
<trkpt lat="55.781227" lon="26.031826">
<ele>174.779419</ele>
<time>2010-07-17T16:35:00Z</time>
<desc>lat.=55.781227, lon.=26.031826, Alt.=174.779419m. Speed=21.492001m/h.</desc>
<speed>5.970000</speed>
</trkpt>
<trkpt lat="55.781212" lon="26.031731">
<ele>174.232544</ele>
<time>2010-07-17T16:35:01Z</time>
<desc>lat.=55.781212, lon.=26.031731, Alt.=174.232544m. Speed=21.204000m/h.</desc>
<speed>5.890000</speed>
</trkpt>
<trkpt lat="55.781204" lon="26.031641">
<ele>173.755981</ele>
<time>2010-07-17T16:35:02Z</time>
<desc>lat.=55.781204, lon.=26.031641, Alt.=173.755981m. Speed=19.944000m/h.</desc>
<speed>5.540000</speed>
</trkpt>
<trkpt lat="55.781193" lon="26.031546">
<ele>172.869263</ele>
<time>2010-07-17T16:35:03Z</time>
<desc>lat.=55.781193, lon.=26.031546, Alt.=172.869263m. Speed=19.728001m/h.</desc>
<speed>5.480000</speed>
</trkpt>
<trkpt lat="55.781178" lon="26.031452">
<ele>171.998169</ele>
<time>2010-07-17T16:35:04Z</time>
<desc>lat.=55.781178, lon.=26.031452, Alt.=171.998169m. Speed=21.059999m/h.</desc>
<speed>5.850000</speed>
</trkpt>
<trkpt lat="55.781162" lon="26.031361">
<ele>171.517700</ele>
<time>2010-07-17T16:35:05Z</time>
<desc>lat.=55.781162, lon.=26.031361, Alt.=171.517700m. Speed=20.160000m/h.</desc>
<speed>5.600000</speed>
</trkpt>
<trkpt lat="55.781151" lon="26.031269">
<ele>170.791138</ele>
<time>2010-07-17T16:35:06Z</time>
<desc>lat.=55.781151, lon.=26.031269, Alt.=170.791138m. Speed=19.115999m/h.</desc>
<speed>5.310000</speed>
</trkpt>
<trkpt lat="55.781132" lon="26.031178">
<ele>169.498169</ele>
<time>2010-07-17T16:35:07Z</time>
<desc>lat.=55.781132, lon.=26.031178, Alt.=169.498169m. Speed=20.087999m/h.</desc>
<speed>5.580000</speed>
</trkpt>
<trkpt lat="55.781109" lon="26.031088">
<ele>168.916138</ele>
<time>2010-07-17T16:35:08Z</time>
<desc>lat.=55.781109, lon.=26.031088, Alt.=168.916138m. Speed=21.492001m/h.</desc>
<speed>5.970000</speed>
</trkpt>
<trkpt lat="55.781094" lon="26.030983">
<ele>168.486450</ele>
<time>2010-07-17T16:35:09Z</time>
<desc>lat.=55.781094, lon.=26.030983, Alt.=168.486450m. Speed=22.427999m/h.</desc>
<speed>6.230000</speed>
</trkpt>
<trkpt lat="55.781067" lon="26.030888">
<ele>168.068481</ele>
<time>2010-07-17T16:35:10Z</time>
<desc>lat.=55.781067, lon.=26.030888, Alt.=168.068481m. Speed=23.615999m/h.</desc>
<speed>6.560000</speed>
</trkpt>
<trkpt lat="55.781033" lon="26.030792">
<ele>167.396606</ele>
<time>2010-07-17T16:35:11Z</time>
<desc>lat.=55.781033, lon.=26.030792, Alt.=167.396606m. Speed=24.480000m/h.</desc>
<speed>6.800000</speed>
</trkpt>
<trkpt lat="55.780994" lon="26.030685">
<ele>166.681763</ele>
<time>2010-07-17T16:35:12Z</time>
<desc>lat.=55.780994, lon.=26.030685, Alt.=166.681763m. Speed=25.775999m/h.</desc>
<speed>7.160000</speed>
</trkpt>
<trkpt lat="55.780964" lon="26.030582">
<ele>166.033325</ele>
<time>2010-07-17T16:35:13Z</time>
<desc>lat.=55.780964, lon.=26.030582, Alt.=166.033325m. Speed=24.336000m/h.</desc>
<speed>6.760000</speed>
</trkpt>
<trkpt lat="55.780933" lon="26.030487">
<ele>165.373169</ele>
<time>2010-07-17T16:35:14Z</time>
<desc>lat.=55.780933, lon.=26.030487, Alt.=165.373169m. Speed=23.615999m/h.</desc>
<speed>6.560000</speed>
</trkpt>
<trkpt lat="55.780895" lon="26.030382">
<ele>164.853638</ele>
<time>2010-07-17T16:35:15Z</time>
<desc>lat.=55.780895, lon.=26.030382, Alt.=164.853638m. Speed=23.472000m/h.</desc>
<speed>6.520000</speed>
</trkpt>
<trkpt lat="55.780861" lon="26.030287">
<ele>164.357544</ele>
<time>2010-07-17T16:35:16Z</time>
<desc>lat.=55.780861, lon.=26.030287, Alt.=164.357544m. Speed=21.636000m/h.</desc>
<speed>6.010000</speed>
</trkpt>
<trkpt lat="55.780827" lon="26.030203">
<ele>163.947388</ele>
<time>2010-07-17T16:35:17Z</time>
<desc>lat.=55.780827, lon.=26.030203, Alt.=163.947388m. Speed=22.212000m/h.</desc>
<speed>6.170000</speed>
</trkpt>
<trkpt lat="55.780788" lon="26.030125">
<ele>163.380981</ele>
<time>2010-07-17T16:35:18Z</time>
<desc>lat.=55.780788, lon.=26.030125, Alt.=163.380981m. Speed=21.672001m/h.</desc>
<speed>6.020000</speed>
</trkpt>
<trkpt lat="55.780750" lon="26.030041">
<ele>162.810669</ele>
<time>2010-07-17T16:35:19Z</time>
<desc>lat.=55.780750, lon.=26.030041, Alt.=162.810669m. Speed=21.204000m/h.</desc>
<speed>5.890000</speed>
</trkpt>
<trkpt lat="55.780716" lon="26.029963">
<ele>163.841919</ele>
<time>2010-07-17T16:35:20Z</time>
<desc>lat.=55.780716, lon.=26.029963, Alt.=163.841919m. Speed=22.608000m/h.</desc>
<speed>6.280000</speed>
</trkpt>
<trkpt lat="55.780663" lon="26.029877">
<ele>163.170044</ele>
<time>2010-07-17T16:35:21Z</time>
<desc>lat.=55.780663, lon.=26.029877, Alt.=163.170044m. Speed=22.931999m/h.</desc>
<speed>6.370000</speed>
</trkpt>
<trkpt lat="55.780628" lon="26.029804">
<ele>162.611450</ele>
<time>2010-07-17T16:35:22Z</time>
<desc>lat.=55.780628, lon.=26.029804, Alt.=162.611450m. Speed=21.132000m/h.</desc>
<speed>5.870000</speed>
</trkpt>
<trkpt lat="55.780590" lon="26.029728">
<ele>162.052856</ele>
<time>2010-07-17T16:35:23Z</time>
<desc>lat.=55.780590, lon.=26.029728, Alt.=162.052856m. Speed=18.827999m/h.</desc>
<speed>5.230000</speed>
</trkpt>
<trkpt lat="55.780567" lon="26.029665">
<ele>161.787231</ele>
<time>2010-07-17T16:35:24Z</time>
<desc>lat.=55.780567, lon.=26.029665, Alt.=161.787231m. Speed=14.940000m/h.</desc>
<speed>4.150000</speed>
</trkpt>
<trkpt lat="55.780529" lon="26.029600">
<ele>160.923950</ele>
<time>2010-07-17T16:35:25Z</time>
<desc>lat.=55.780529, lon.=26.029600, Alt.=160.923950m. Speed=18.396000m/h.</desc>
<speed>5.110000</speed>
</trkpt>
<trkpt lat="55.780502" lon="26.029545">
<ele>160.185669</ele>
<time>2010-07-17T16:35:26Z</time>
<desc>lat.=55.780502, lon.=26.029545, Alt.=160.185669m. Speed=16.236000m/h.</desc>
<speed>4.510000</speed>
</trkpt>
<trkpt lat="55.780468" lon="26.029482">
<ele>160.111450</ele>
<time>2010-07-17T16:35:27Z</time>
<desc>lat.=55.780468, lon.=26.029482, Alt.=160.111450m. Speed=17.856001m/h.</desc>
<speed>4.960000</speed>
</trkpt>
<trkpt lat="55.780434" lon="26.029423">
<ele>159.748169</ele>
<time>2010-07-17T16:35:28Z</time>
<desc>lat.=55.780434, lon.=26.029423, Alt.=159.748169m. Speed=19.332001m/h.</desc>
<speed>5.370000</speed>
</trkpt>
<trkpt lat="55.780392" lon="26.029366">
<ele>159.474731</ele>
<time>2010-07-17T16:35:29Z</time>
<desc>lat.=55.780392, lon.=26.029366, Alt.=159.474731m. Speed=20.160000m/h.</desc>
<speed>5.600000</speed>
</trkpt>
<trkpt lat="55.780350" lon="26.029308">
<ele>159.181763</ele>
<time>2010-07-17T16:35:30Z</time>
<desc>lat.=55.780350, lon.=26.029308, Alt.=159.181763m. Speed=21.096001m/h.</desc>
<speed>5.860000</speed>
</trkpt>
<trkpt lat="55.780308" lon="26.029257">
<ele>160.255981</ele>
<time>2010-07-17T16:35:31Z</time>
<desc>lat.=55.780308, lon.=26.029257, Alt.=160.255981m. Speed=19.044001m/h.</desc>
<speed>5.290000</speed>
</trkpt>
<trkpt lat="55.780247" lon="26.029196">
<ele>159.955200</ele>
<time>2010-07-17T16:35:32Z</time>
<desc>lat.=55.780247, lon.=26.029196, Alt.=159.955200m. Speed=19.511999m/h.</desc>
<speed>5.420000</speed>
</trkpt>
<trkpt lat="55.780193" lon="26.029133">
<ele>160.138794</ele>
<time>2010-07-17T16:35:33Z</time>
<desc>lat.=55.780193, lon.=26.029133, Alt.=160.138794m. Speed=20.232000m/h.</desc>
<speed>5.620000</speed>
</trkpt>
<trkpt lat="55.780144" lon="26.029070">
<ele>159.802856</ele>
<time>2010-07-17T16:35:34Z</time>
<desc>lat.=55.780144, lon.=26.029070, Alt.=159.802856m. Speed=19.584000m/h.</desc>
<speed>5.440000</speed>
</trkpt>
<trkpt lat="55.780102" lon="26.029020">
<ele>159.732544</ele>
<time>2010-07-17T16:35:35Z</time>
<desc>lat.=55.780102, lon.=26.029020, Alt.=159.732544m. Speed=22.608000m/h.</desc>
<speed>6.280000</speed>
</trkpt>
<trkpt lat="55.780041" lon="26.028952">
<ele>159.056763</ele>
<time>2010-07-17T16:35:36Z</time>
<desc>lat.=55.780041, lon.=26.028952, Alt.=159.056763m. Speed=23.040001m/h.</desc>
<speed>6.400000</speed>
</trkpt>
<trkpt lat="55.779987" lon="26.028891">
<ele>158.877075</ele>
<time>2010-07-17T16:35:37Z</time>
<desc>lat.=55.779987, lon.=26.028891, Alt.=158.877075m. Speed=20.628000m/h.</desc>
<speed>5.730000</speed>
</trkpt>
<trkpt lat="55.779930" lon="26.028828">
<ele>159.048950</ele>
<time>2010-07-17T16:35:38Z</time>
<desc>lat.=55.779930, lon.=26.028828, Alt.=159.048950m. Speed=24.624001m/h.</desc>
<speed>6.840000</speed>
</trkpt>
<trkpt lat="55.779869" lon="26.028757">
<ele>159.236450</ele>
<time>2010-07-17T16:35:39Z</time>
<desc>lat.=55.779869, lon.=26.028757, Alt.=159.236450m. Speed=21.492001m/h.</desc>
<speed>5.970000</speed>
</trkpt>
<trkpt lat="55.779819" lon="26.028694">
<ele>159.545044</ele>
<time>2010-07-17T16:35:40Z</time>
<desc>lat.=55.779819, lon.=26.028694, Alt.=159.545044m. Speed=19.511999m/h.</desc>
<speed>5.420000</speed>
</trkpt>
<trkpt lat="55.779766" lon="26.028629">
<ele>159.338013</ele>
<time>2010-07-17T16:35:41Z</time>
<desc>lat.=55.779766, lon.=26.028629, Alt.=159.338013m. Speed=20.375999m/h.</desc>
<speed>5.660000</speed>
</trkpt>
<trkpt lat="55.779713" lon="26.028568">
<ele>159.302856</ele>
<time>2010-07-17T16:35:42Z</time>
<desc>lat.=55.779713, lon.=26.028568, Alt.=159.302856m. Speed=21.455999m/h.</desc>
<speed>5.960000</speed>
</trkpt>
<trkpt lat="55.779659" lon="26.028509">
<ele>159.021606</ele>
<time>2010-07-17T16:35:43Z</time>
<desc>lat.=55.779659, lon.=26.028509, Alt.=159.021606m. Speed=21.600000m/h.</desc>
<speed>6.000000</speed>
</trkpt>
<trkpt lat="55.779594" lon="26.028439">
<ele>159.076294</ele>
<time>2010-07-17T16:35:44Z</time>
<desc>lat.=55.779594, lon.=26.028439, Alt.=159.076294m. Speed=23.796000m/h.</desc>
<speed>6.610000</speed>
</trkpt>
<trkpt lat="55.779545" lon="26.028383">
<ele>159.080200</ele>
<time>2010-07-17T16:35:45Z</time>
<desc>lat.=55.779545, lon.=26.028383, Alt.=159.080200m. Speed=24.695999m/h.</desc>
<speed>6.860000</speed>
</trkpt>
<trkpt lat="55.779491" lon="26.028324">
<ele>159.041138</ele>
<time>2010-07-17T16:35:46Z</time>
<desc>lat.=55.779491, lon.=26.028324, Alt.=159.041138m. Speed=23.292000m/h.</desc>
<speed>6.470000</speed>
</trkpt>
<trkpt lat="55.779430" lon="26.028257">
<ele>160.498169</ele>
<time>2010-07-17T16:35:47Z</time>
<desc>lat.=55.779430, lon.=26.028257, Alt.=160.498169m. Speed=23.400000m/h.</desc>
<speed>6.500000</speed>
</trkpt>
<trkpt lat="55.779373" lon="26.028204">
<ele>160.548950</ele>
<time>2010-07-17T16:35:48Z</time>
<desc>lat.=55.779373, lon.=26.028204, Alt.=160.548950m. Speed=22.284000m/h.</desc>
<speed>6.190000</speed>
</trkpt>
<trkpt lat="55.779324" lon="26.028166">
<ele>160.568481</ele>
<time>2010-07-17T16:35:49Z</time>
<desc>lat.=55.779324, lon.=26.028166, Alt.=160.568481m. Speed=19.980000m/h.</desc>
<speed>5.550000</speed>
</trkpt>
<trkpt lat="55.779266" lon="26.028118">
<ele>160.607544</ele>
<time>2010-07-17T16:35:50Z</time>
<desc>lat.=55.779266, lon.=26.028118, Alt.=160.607544m. Speed=16.955999m/h.</desc>
<speed>4.710000</speed>
</trkpt>
<trkpt lat="55.779224" lon="26.028080">
<ele>160.763794</ele>
<time>2010-07-17T16:35:51Z</time>
<desc>lat.=55.779224, lon.=26.028080, Alt.=160.763794m. Speed=16.091999m/h.</desc>
<speed>4.470000</speed>
</trkpt>
<trkpt lat="55.779190" lon="26.028027">
<ele>160.795044</ele>
<time>2010-07-17T16:35:52Z</time>
<desc>lat.=55.779190, lon.=26.028027, Alt.=160.795044m. Speed=16.128000m/h.</desc>
<speed>4.480000</speed>
</trkpt>
<trkpt lat="55.779148" lon="26.027966">
<ele>161.033325</ele>
<time>2010-07-17T16:35:53Z</time>
<desc>lat.=55.779148, lon.=26.027966, Alt.=161.033325m. Speed=18.396000m/h.</desc>
<speed>5.110000</speed>
</trkpt>
<trkpt lat="55.779106" lon="26.027912">
<ele>161.181763</ele>
<time>2010-07-17T16:35:54Z</time>
<desc>lat.=55.779106, lon.=26.027912, Alt.=161.181763m. Speed=18.431999m/h.</desc>
<speed>5.120000</speed>
</trkpt>
<trkpt lat="55.779072" lon="26.027861">
<ele>161.334106</ele>
<time>2010-07-17T16:35:55Z</time>
<desc>lat.=55.779072, lon.=26.027861, Alt.=161.334106m. Speed=15.732000m/h.</desc>
<speed>4.370000</speed>
</trkpt>
<trkpt lat="55.779034" lon="26.027803">
<ele>161.670044</ele>
<time>2010-07-17T16:35:56Z</time>
<desc>lat.=55.779034, lon.=26.027803, Alt.=161.670044m. Speed=18.252001m/h.</desc>
<speed>5.070000</speed>
</trkpt>
<trkpt lat="55.778988" lon="26.027750">
<ele>161.763794</ele>
<time>2010-07-17T16:35:57Z</time>
<desc>lat.=55.778988, lon.=26.027750, Alt.=161.763794m. Speed=19.260000m/h.</desc>
<speed>5.350000</speed>
</trkpt>
<trkpt lat="55.778942" lon="26.027700">
<ele>162.005981</ele>
<time>2010-07-17T16:35:58Z</time>
<desc>lat.=55.778942, lon.=26.027700, Alt.=162.005981m. Speed=19.044001m/h.</desc>
<speed>5.290000</speed>
</trkpt>
<trkpt lat="55.778893" lon="26.027636">
<ele>162.314575</ele>
<time>2010-07-17T16:35:59Z</time>
<desc>lat.=55.778893, lon.=26.027636, Alt.=162.314575m. Speed=22.643999m/h.</desc>
<speed>6.290000</speed>
</trkpt>
<trkpt lat="55.778839" lon="26.027578">
<ele>162.509888</ele>
<time>2010-07-17T16:36:00Z</time>
<desc>lat.=55.778839, lon.=26.027578, Alt.=162.509888m. Speed=21.743999m/h.</desc>
<speed>6.040000</speed>
</trkpt>
<trkpt lat="55.778793" lon="26.027523">
<ele>162.845825</ele>
<time>2010-07-17T16:36:01Z</time>
<desc>lat.=55.778793, lon.=26.027523, Alt.=162.845825m. Speed=18.216000m/h.</desc>
<speed>5.060000</speed>
</trkpt>
<trkpt lat="55.778740" lon="26.027464">
<ele>163.205200</ele>
<time>2010-07-17T16:36:02Z</time>
<desc>lat.=55.778740, lon.=26.027464, Alt.=163.205200m. Speed=20.771999m/h.</desc>
<speed>5.770000</speed>
</trkpt>
<trkpt lat="55.778683" lon="26.027401">
<ele>163.252075</ele>
<time>2010-07-17T16:36:03Z</time>
<desc>lat.=55.778683, lon.=26.027401, Alt.=163.252075m. Speed=21.959999m/h.</desc>
<speed>6.100000</speed>
</trkpt>
<trkpt lat="55.778633" lon="26.027338">
<ele>163.103638</ele>
<time>2010-07-17T16:36:04Z</time>
<desc>lat.=55.778633, lon.=26.027338, Alt.=163.103638m. Speed=20.268000m/h.</desc>
<speed>5.630000</speed>
</trkpt>
<trkpt lat="55.778572" lon="26.027267">
<ele>163.244263</ele>
<time>2010-07-17T16:36:05Z</time>
<desc>lat.=55.778572, lon.=26.027267, Alt.=163.244263m. Speed=18.576000m/h.</desc>
<speed>5.160000</speed>
</trkpt>
<trkpt lat="55.778526" lon="26.027225">
<ele>163.572388</ele>
<time>2010-07-17T16:36:06Z</time>
<desc>lat.=55.778526, lon.=26.027225, Alt.=163.572388m. Speed=18.719999m/h.</desc>
<speed>5.200000</speed>
</trkpt>
<trkpt lat="55.778473" lon="26.027172">
<ele>163.888794</ele>
<time>2010-07-17T16:36:07Z</time>
<desc>lat.=55.778473, lon.=26.027172, Alt.=163.888794m. Speed=18.972000m/h.</desc>
<speed>5.270000</speed>
</trkpt>
<trkpt lat="55.778419" lon="26.027124">
<ele>164.041138</ele>
<time>2010-07-17T16:36:08Z</time>
<desc>lat.=55.778419, lon.=26.027124, Alt.=164.041138m. Speed=19.728001m/h.</desc>
<speed>5.480000</speed>
</trkpt>
<trkpt lat="55.778370" lon="26.027067">
<ele>163.966919</ele>
<time>2010-07-17T16:36:09Z</time>
<desc>lat.=55.778370, lon.=26.027067, Alt.=163.966919m. Speed=19.584000m/h.</desc>
<speed>5.440000</speed>
</trkpt>
<trkpt lat="55.778328" lon="26.026995">
<ele>164.005981</ele>
<time>2010-07-17T16:36:10Z</time>
<desc>lat.=55.778328, lon.=26.026995, Alt.=164.005981m. Speed=19.728001m/h.</desc>
<speed>5.480000</speed>
</trkpt>
<trkpt lat="55.778286" lon="26.026939">
<ele>164.291138</ele>
<time>2010-07-17T16:36:11Z</time>
<desc>lat.=55.778286, lon.=26.026939, Alt.=164.291138m. Speed=20.195999m/h.</desc>
<speed>5.610000</speed>
</trkpt>
<trkpt lat="55.778233" lon="26.026886">
<ele>164.564575</ele>
<time>2010-07-17T16:36:12Z</time>
<desc>lat.=55.778233, lon.=26.026886, Alt.=164.564575m. Speed=20.591999m/h.</desc>
<speed>5.720000</speed>
</trkpt>
<trkpt lat="55.778183" lon="26.026833">
<ele>164.959106</ele>
<time>2010-07-17T16:36:13Z</time>
<desc>lat.=55.778183, lon.=26.026833, Alt.=164.959106m. Speed=19.872000m/h.</desc>
<speed>5.520000</speed>
</trkpt>
<trkpt lat="55.778133" lon="26.026777">
<ele>165.216919</ele>
<time>2010-07-17T16:36:14Z</time>
<desc>lat.=55.778133, lon.=26.026777, Alt.=165.216919m. Speed=20.232000m/h.</desc>
<speed>5.620000</speed>
</trkpt>
<trkpt lat="55.778091" lon="26.026722">
<ele>164.545044</ele>
<time>2010-07-17T16:36:15Z</time>
<desc>lat.=55.778091, lon.=26.026722, Alt.=164.545044m. Speed=20.628000m/h.</desc>
<speed>5.730000</speed>
</trkpt>
<trkpt lat="55.778053" lon="26.026669">
<ele>165.068481</ele>
<time>2010-07-17T16:36:16Z</time>
<desc>lat.=55.778053, lon.=26.026669, Alt.=165.068481m. Speed=17.964001m/h.</desc>
<speed>4.990000</speed>
</trkpt>
<trkpt lat="55.778015" lon="26.026623">
<ele>166.095825</ele>
<time>2010-07-17T16:36:17Z</time>
<desc>lat.=55.778015, lon.=26.026623, Alt.=166.095825m. Speed=19.115999m/h.</desc>
<speed>5.310000</speed>
</trkpt>
<trkpt lat="55.777958" lon="26.026560">
<ele>166.865356</ele>
<time>2010-07-17T16:36:18Z</time>
<desc>lat.=55.777958, lon.=26.026560, Alt.=166.865356m. Speed=18.000000m/h.</desc>
<speed>5.000000</speed>
</trkpt>
<trkpt lat="55.777912" lon="26.026514">
<ele>167.068481</ele>
<time>2010-07-17T16:36:19Z</time>
<desc>lat.=55.777912, lon.=26.026514, Alt.=167.068481m. Speed=17.028000m/h.</desc>
<speed>4.730000</speed>
</trkpt>
<trkpt lat="55.777859" lon="26.026459">
<ele>167.197388</ele>
<time>2010-07-17T16:36:20Z</time>
<desc>lat.=55.777859, lon.=26.026459, Alt.=167.197388m. Speed=17.747999m/h.</desc>
<speed>4.930000</speed>
</trkpt>
<trkpt lat="55.777813" lon="26.026407">
<ele>167.283325</ele>
<time>2010-07-17T16:36:21Z</time>
<desc>lat.=55.777813, lon.=26.026407, Alt.=167.283325m. Speed=17.747999m/h.</desc>
<speed>4.930000</speed>
</trkpt>
<trkpt lat="55.777760" lon="26.026365">
<ele>166.783325</ele>
<time>2010-07-17T16:36:22Z</time>
<desc>lat.=55.777760, lon.=26.026365, Alt.=166.783325m. Speed=18.972000m/h.</desc>
<speed>5.270000</speed>
</trkpt>
<trkpt lat="55.777710" lon="26.026333">
<ele>166.216919</ele>
<time>2010-07-17T16:36:23Z</time>
<desc>lat.=55.777710, lon.=26.026333, Alt.=166.216919m. Speed=17.532000m/h.</desc>
<speed>4.870000</speed>
</trkpt>
<trkpt lat="55.777668" lon="26.026302">
<ele>165.994263</ele>
<time>2010-07-17T16:36:24Z</time>
<desc>lat.=55.777668, lon.=26.026302, Alt.=165.994263m. Speed=15.840000m/h.</desc>
<speed>4.400000</speed>
</trkpt>
<trkpt lat="55.777630" lon="26.026285">
<ele>165.595825</ele>
<time>2010-07-17T16:36:25Z</time>
<desc>lat.=55.777630, lon.=26.026285, Alt.=165.595825m. Speed=12.924000m/h.</desc>
<speed>3.590000</speed>
</trkpt>
<trkpt lat="55.777588" lon="26.026258">
<ele>165.427856</ele>
<time>2010-07-17T16:36:26Z</time>
<desc>lat.=55.777588, lon.=26.026258, Alt.=165.427856m. Speed=14.544000m/h.</desc>
<speed>4.040000</speed>
</trkpt>
<trkpt lat="55.777554" lon="26.026237">
<ele>165.103638</ele>
<time>2010-07-17T16:36:27Z</time>
<desc>lat.=55.777554, lon.=26.026237, Alt.=165.103638m. Speed=12.204000m/h.</desc>
<speed>3.390000</speed>
</trkpt>
<trkpt lat="55.777508" lon="26.026213">
<ele>164.857544</ele>
<time>2010-07-17T16:36:28Z</time>
<desc>lat.=55.777508, lon.=26.026213, Alt.=164.857544m. Speed=15.084000m/h.</desc>
<speed>4.190000</speed>
</trkpt>
<trkpt lat="55.777458" lon="26.026184">
<ele>164.959106</ele>
<time>2010-07-17T16:36:29Z</time>
<desc>lat.=55.777458, lon.=26.026184, Alt.=164.959106m. Speed=15.840000m/h.</desc>
<speed>4.400000</speed>
</trkpt>
<trkpt lat="55.777420" lon="26.026171">
<ele>164.935669</ele>
<time>2010-07-17T16:36:30Z</time>
<desc>lat.=55.777420, lon.=26.026171, Alt.=164.935669m. Speed=17.316000m/h.</desc>
<speed>4.810000</speed>
</trkpt>
<trkpt lat="55.777367" lon="26.026190">
<ele>166.048950</ele>
<time>2010-07-17T16:36:31Z</time>
<desc>lat.=55.777367, lon.=26.026190, Alt.=166.048950m. Speed=17.639999m/h.</desc>
<speed>4.900000</speed>
</trkpt>
<trkpt lat="55.777313" lon="26.026186">
<ele>165.802856</ele>
<time>2010-07-17T16:36:32Z</time>
<desc>lat.=55.777313, lon.=26.026186, Alt.=165.802856m. Speed=19.115999m/h.</desc>
<speed>5.310000</speed>
</trkpt>
<trkpt lat="55.777260" lon="26.026178">
<ele>165.666138</ele>
<time>2010-07-17T16:36:33Z</time>
<desc>lat.=55.777260, lon.=26.026178, Alt.=165.666138m. Speed=19.296000m/h.</desc>
<speed>5.360000</speed>
</trkpt>
<trkpt lat="55.777214" lon="26.026173">
<ele>165.361450</ele>
<time>2010-07-17T16:36:34Z</time>
<desc>lat.=55.777214, lon.=26.026173, Alt.=165.361450m. Speed=17.820000m/h.</desc>
<speed>4.950000</speed>
</trkpt>
<trkpt lat="55.777149" lon="26.026157">
<ele>164.361450</ele>
<time>2010-07-17T16:36:35Z</time>
<desc>lat.=55.777149, lon.=26.026157, Alt.=164.361450m. Speed=18.972000m/h.</desc>
<speed>5.270000</speed>
</trkpt>
<trkpt lat="55.777103" lon="26.026154">
<ele>164.345825</ele>
<time>2010-07-17T16:36:36Z</time>
<desc>lat.=55.777103, lon.=26.026154, Alt.=164.345825m. Speed=16.200001m/h.</desc>
<speed>4.500000</speed>
</trkpt>
<trkpt lat="55.777054" lon="26.026163">
<ele>164.443481</ele>
<time>2010-07-17T16:36:37Z</time>
<desc>lat.=55.777054, lon.=26.026163, Alt.=164.443481m. Speed=18.072001m/h.</desc>
<speed>5.020000</speed>
</trkpt>
<trkpt lat="55.777004" lon="26.026165">
<ele>164.470825</ele>
<time>2010-07-17T16:36:38Z</time>
<desc>lat.=55.777004, lon.=26.026165, Alt.=164.470825m. Speed=18.323999m/h.</desc>
<speed>5.090000</speed>
</trkpt>
<trkpt lat="55.776958" lon="26.026175">
<ele>164.548950</ele>
<time>2010-07-17T16:36:39Z</time>
<desc>lat.=55.776958, lon.=26.026175, Alt.=164.548950m. Speed=17.172001m/h.</desc>
<speed>4.770000</speed>
</trkpt>
<trkpt lat="55.776913" lon="26.026192">
<ele>164.490356</ele>
<time>2010-07-17T16:36:40Z</time>
<desc>lat.=55.776913, lon.=26.026192, Alt.=164.490356m. Speed=16.884001m/h.</desc>
<speed>4.690000</speed>
</trkpt>
<trkpt lat="55.776867" lon="26.026205">
<ele>164.533325</ele>
<time>2010-07-17T16:36:41Z</time>
<desc>lat.=55.776867, lon.=26.026205, Alt.=164.533325m. Speed=17.820000m/h.</desc>
<speed>4.950000</speed>
</trkpt>
<trkpt lat="55.776821" lon="26.026222">
<ele>164.474731</ele>
<time>2010-07-17T16:36:42Z</time>
<desc>lat.=55.776821, lon.=26.026222, Alt.=164.474731m. Speed=17.459999m/h.</desc>
<speed>4.850000</speed>
</trkpt>
<trkpt lat="55.776775" lon="26.026236">
<ele>164.529419</ele>
<time>2010-07-17T16:36:43Z</time>
<desc>lat.=55.776775, lon.=26.026236, Alt.=164.529419m. Speed=18.756001m/h.</desc>
<speed>5.210000</speed>
</trkpt>
<trkpt lat="55.776722" lon="26.026241">
<ele>164.670044</ele>
<time>2010-07-17T16:36:44Z</time>
<desc>lat.=55.776722, lon.=26.026241, Alt.=164.670044m. Speed=19.188000m/h.</desc>
<speed>5.330000</speed>
</trkpt>
<trkpt lat="55.776669" lon="26.026249">
<ele>164.298950</ele>
<time>2010-07-17T16:36:45Z</time>
<desc>lat.=55.776669, lon.=26.026249, Alt.=164.298950m. Speed=18.468000m/h.</desc>
<speed>5.130000</speed>
</trkpt>
<trkpt lat="55.776615" lon="26.026264">
<ele>164.287231</ele>
<time>2010-07-17T16:36:46Z</time>
<desc>lat.=55.776615, lon.=26.026264, Alt.=164.287231m. Speed=17.459999m/h.</desc>
<speed>4.850000</speed>
</trkpt>
<trkpt lat="55.776554" lon="26.026281">
<ele>163.951294</ele>
<time>2010-07-17T16:36:47Z</time>
<desc>lat.=55.776554, lon.=26.026281, Alt.=163.951294m. Speed=18.000000m/h.</desc>
<speed>5.000000</speed>
</trkpt>
<trkpt lat="55.776508" lon="26.026295">
<ele>163.974731</ele>
<time>2010-07-17T16:36:48Z</time>
<desc>lat.=55.776508, lon.=26.026295, Alt.=163.974731m. Speed=17.676001m/h.</desc>
<speed>4.910000</speed>
</trkpt>
<trkpt lat="55.776463" lon="26.026310">
<ele>164.158325</ele>
<time>2010-07-17T16:36:49Z</time>
<desc>lat.=55.776463, lon.=26.026310, Alt.=164.158325m. Speed=17.316000m/h.</desc>
<speed>4.810000</speed>
</trkpt>
<trkpt lat="55.776417" lon="26.026325">
<ele>164.209106</ele>
<time>2010-07-17T16:36:50Z</time>
<desc>lat.=55.776417, lon.=26.026325, Alt.=164.209106m. Speed=17.676001m/h.</desc>
<speed>4.910000</speed>
</trkpt>
<trkpt lat="55.776360" lon="26.026331">
<ele>164.572388</ele>
<time>2010-07-17T16:36:51Z</time>
<desc>lat.=55.776360, lon.=26.026331, Alt.=164.572388m. Speed=17.892000m/h.</desc>
<speed>4.970000</speed>
</trkpt>
<trkpt lat="55.776310" lon="26.026346">
<ele>164.798950</ele>
<time>2010-07-17T16:36:52Z</time>
<desc>lat.=55.776310, lon.=26.026346, Alt.=164.798950m. Speed=18.180000m/h.</desc>
<speed>5.050000</speed>
</trkpt>
<trkpt lat="55.776264" lon="26.026365">
<ele>164.705200</ele>
<time>2010-07-17T16:36:53Z</time>
<desc>lat.=55.776264, lon.=26.026365, Alt.=164.705200m. Speed=17.820000m/h.</desc>
<speed>4.950000</speed>
</trkpt>
<trkpt lat="55.776218" lon="26.026381">
<ele>164.541138</ele>
<time>2010-07-17T16:36:54Z</time>
<desc>lat.=55.776218, lon.=26.026381, Alt.=164.541138m. Speed=17.676001m/h.</desc>
<speed>4.910000</speed>
</trkpt>
<trkpt lat="55.776165" lon="26.026386">
<ele>164.810669</ele>
<time>2010-07-17T16:36:55Z</time>
<desc>lat.=55.776165, lon.=26.026386, Alt.=164.810669m. Speed=17.459999m/h.</desc>
<speed>4.850000</speed>
</trkpt>
<trkpt lat="55.776115" lon="26.026392">
<ele>165.142700</ele>
<time>2010-07-17T16:36:56Z</time>
<desc>lat.=55.776115, lon.=26.026392, Alt.=165.142700m. Speed=17.459999m/h.</desc>
<speed>4.850000</speed>
</trkpt>
<trkpt lat="55.776070" lon="26.026407">
<ele>165.826294</ele>
<time>2010-07-17T16:36:57Z</time>
<desc>lat.=55.776070, lon.=26.026407, Alt.=165.826294m. Speed=17.784000m/h.</desc>
<speed>4.940000</speed>
</trkpt>
<trkpt lat="55.776012" lon="26.026428">
<ele>165.388794</ele>
<time>2010-07-17T16:36:58Z</time>
<desc>lat.=55.776012, lon.=26.026428, Alt.=165.388794m. Speed=16.416000m/h.</desc>
<speed>4.560000</speed>
</trkpt>
<trkpt lat="55.775963" lon="26.026445">
<ele>165.369263</ele>
<time>2010-07-17T16:36:59Z</time>
<desc>lat.=55.775963, lon.=26.026445, Alt.=165.369263m. Speed=17.351999m/h.</desc>
<speed>4.820000</speed>
</trkpt>
<trkpt lat="55.775921" lon="26.026459">
<ele>165.470825</ele>
<time>2010-07-17T16:37:00Z</time>
<desc>lat.=55.775921, lon.=26.026459, Alt.=165.470825m. Speed=17.820000m/h.</desc>
<speed>4.950000</speed>
</trkpt>
<trkpt lat="55.775871" lon="26.026472">
<ele>165.412231</ele>
<time>2010-07-17T16:37:01Z</time>
<desc>lat.=55.775871, lon.=26.026472, Alt.=165.412231m. Speed=18.035999m/h.</desc>
<speed>5.010000</speed>
</trkpt>
<trkpt lat="55.775826" lon="26.026487">
<ele>165.431763</ele>
<time>2010-07-17T16:37:02Z</time>
<desc>lat.=55.775826, lon.=26.026487, Alt.=165.431763m. Speed=18.323999m/h.</desc>
<speed>5.090000</speed>
</trkpt>
<trkpt lat="55.775780" lon="26.026501">
<ele>165.423950</ele>
<time>2010-07-17T16:37:03Z</time>
<desc>lat.=55.775780, lon.=26.026501, Alt.=165.423950m. Speed=17.028000m/h.</desc>
<speed>4.730000</speed>
</trkpt>
<trkpt lat="55.775734" lon="26.026516">
<ele>165.185669</ele>
<time>2010-07-17T16:37:04Z</time>
<desc>lat.=55.775734, lon.=26.026516, Alt.=165.185669m. Speed=18.108000m/h.</desc>
<speed>5.030000</speed>
</trkpt>
<trkpt lat="55.775684" lon="26.026524">
<ele>165.084106</ele>
<time>2010-07-17T16:37:05Z</time>
<desc>lat.=55.775684, lon.=26.026524, Alt.=165.084106m. Speed=18.143999m/h.</desc>
<speed>5.040000</speed>
</trkpt>
<trkpt lat="55.775635" lon="26.026537">
<ele>165.076294</ele>
<time>2010-07-17T16:37:06Z</time>
<desc>lat.=55.775635, lon.=26.026537, Alt.=165.076294m. Speed=17.747999m/h.</desc>
<speed>4.930000</speed>
</trkpt>
<trkpt lat="55.775589" lon="26.026550">
<ele>165.048950</ele>
<time>2010-07-17T16:37:07Z</time>
<desc>lat.=55.775589, lon.=26.026550, Alt.=165.048950m. Speed=17.568001m/h.</desc>
<speed>4.880000</speed>
</trkpt>
<trkpt lat="55.775547" lon="26.026567">
<ele>165.002075</ele>
<time>2010-07-17T16:37:08Z</time>
<desc>lat.=55.775547, lon.=26.026567, Alt.=165.002075m. Speed=17.784000m/h.</desc>
<speed>4.940000</speed>
</trkpt>
<trkpt lat="55.775494" lon="26.026588">
<ele>164.841919</ele>
<time>2010-07-17T16:37:09Z</time>
<desc>lat.=55.775494, lon.=26.026588, Alt.=164.841919m. Speed=18.252001m/h.</desc>
<speed>5.070000</speed>
</trkpt>
<trkpt lat="55.775452" lon="26.026604">
<ele>164.556763</ele>
<time>2010-07-17T16:37:10Z</time>
<desc>lat.=55.775452, lon.=26.026604, Alt.=164.556763m. Speed=17.820000m/h.</desc>
<speed>4.950000</speed>
</trkpt>
<trkpt lat="55.775406" lon="26.026613">
<ele>164.599731</ele>
<time>2010-07-17T16:37:11Z</time>
<desc>lat.=55.775406, lon.=26.026613, Alt.=164.599731m. Speed=18.108000m/h.</desc>
<speed>5.030000</speed>
</trkpt>
<trkpt lat="55.775364" lon="26.026621">
<ele>164.220825</ele>
<time>2010-07-17T16:37:12Z</time>
<desc>lat.=55.775364, lon.=26.026621, Alt.=164.220825m. Speed=17.532000m/h.</desc>
<speed>4.870000</speed>
</trkpt>
<trkpt lat="55.775318" lon="26.026630">
<ele>163.947388</ele>
<time>2010-07-17T16:37:13Z</time>
<desc>lat.=55.775318, lon.=26.026630, Alt.=163.947388m. Speed=18.612000m/h.</desc>
<speed>5.170000</speed>
</trkpt>
<trkpt lat="55.775272" lon="26.026640">
<ele>163.556763</ele>
<time>2010-07-17T16:37:14Z</time>
<desc>lat.=55.775272, lon.=26.026640, Alt.=163.556763m. Speed=17.747999m/h.</desc>
<speed>4.930000</speed>
</trkpt>
<trkpt lat="55.775223" lon="26.026649">
<ele>163.271606</ele>
<time>2010-07-17T16:37:15Z</time>
<desc>lat.=55.775223, lon.=26.026649, Alt.=163.271606m. Speed=17.639999m/h.</desc>
<speed>4.900000</speed>
</trkpt>
<trkpt lat="55.775177" lon="26.026661">
<ele>163.525513</ele>
<time>2010-07-17T16:37:16Z</time>
<desc>lat.=55.775177, lon.=26.026661, Alt.=163.525513m. Speed=18.719999m/h.</desc>
<speed>5.200000</speed>
</trkpt>
<trkpt lat="55.775131" lon="26.026676">
<ele>163.634888</ele>
<time>2010-07-17T16:37:17Z</time>
<desc>lat.=55.775131, lon.=26.026676, Alt.=163.634888m. Speed=18.252001m/h.</desc>
<speed>5.070000</speed>
</trkpt>
<trkpt lat="55.775093" lon="26.026690">
<ele>163.412231</ele>
<time>2010-07-17T16:37:18Z</time>
<desc>lat.=55.775093, lon.=26.026690, Alt.=163.412231m. Speed=17.676001m/h.</desc>
<speed>4.910000</speed>
</trkpt>
<trkpt lat="55.775051" lon="26.026701">
<ele>164.490356</ele>
<time>2010-07-17T16:37:19Z</time>
<desc>lat.=55.775051, lon.=26.026701, Alt.=164.490356m. Speed=16.920000m/h.</desc>
<speed>4.700000</speed>
</trkpt>
<trkpt lat="55.775005" lon="26.026709">
<ele>165.193481</ele>
<time>2010-07-17T16:37:20Z</time>
<desc>lat.=55.775005, lon.=26.026709, Alt.=165.193481m. Speed=18.143999m/h.</desc>
<speed>5.040000</speed>
</trkpt>
<trkpt lat="55.774960" lon="26.026716">
<ele>165.283325</ele>
<time>2010-07-17T16:37:21Z</time>
<desc>lat.=55.774960, lon.=26.026716, Alt.=165.283325m. Speed=17.351999m/h.</desc>
<speed>4.820000</speed>
</trkpt>
<trkpt lat="55.774914" lon="26.026720">
<ele>166.373169</ele>
<time>2010-07-17T16:37:22Z</time>
<desc>lat.=55.774914, lon.=26.026720, Alt.=166.373169m. Speed=18.216000m/h.</desc>
<speed>5.060000</speed>
</trkpt>
<trkpt lat="55.774868" lon="26.026728">
<ele>166.490356</ele>
<time>2010-07-17T16:37:23Z</time>
<desc>lat.=55.774868, lon.=26.026728, Alt.=166.490356m. Speed=17.964001m/h.</desc>
<speed>4.990000</speed>
</trkpt>
<trkpt lat="55.774822" lon="26.026733">
<ele>166.213013</ele>
<time>2010-07-17T16:37:24Z</time>
<desc>lat.=55.774822, lon.=26.026733, Alt.=166.213013m. Speed=17.927999m/h.</desc>
<speed>4.980000</speed>
</trkpt>
<trkpt lat="55.774780" lon="26.026737">
<ele>165.748169</ele>
<time>2010-07-17T16:37:25Z</time>
<desc>lat.=55.774780, lon.=26.026737, Alt.=165.748169m. Speed=18.468000m/h.</desc>
<speed>5.130000</speed>
</trkpt>
<trkpt lat="55.774734" lon="26.026737">
<ele>165.670044</ele>
<time>2010-07-17T16:37:26Z</time>
<desc>lat.=55.774734, lon.=26.026737, Alt.=165.670044m. Speed=18.180000m/h.</desc>
<speed>5.050000</speed>
</trkpt>
<trkpt lat="55.774693" lon="26.026733">
<ele>164.974731</ele>
<time>2010-07-17T16:37:27Z</time>
<desc>lat.=55.774693, lon.=26.026733, Alt.=164.974731m. Speed=18.180000m/h.</desc>
<speed>5.050000</speed>
</trkpt>
<trkpt lat="55.774647" lon="26.026731">
<ele>164.916138</ele>
<time>2010-07-17T16:37:28Z</time>
<desc>lat.=55.774647, lon.=26.026731, Alt.=164.916138m. Speed=19.224001m/h.</desc>
<speed>5.340000</speed>
</trkpt>
<trkpt lat="55.774609" lon="26.026728">
<ele>164.037231</ele>
<time>2010-07-17T16:37:29Z</time>
<desc>lat.=55.774609, lon.=26.026728, Alt.=164.037231m. Speed=18.864000m/h.</desc>
<speed>5.240000</speed>
</trkpt>
<trkpt lat="55.774559" lon="26.026730">
<ele>164.033325</ele>
<time>2010-07-17T16:37:30Z</time>
<desc>lat.=55.774559, lon.=26.026730, Alt.=164.033325m. Speed=19.368000m/h.</desc>
<speed>5.380000</speed>
</trkpt>
<trkpt lat="55.774517" lon="26.026733">
<ele>164.384888</ele>
<time>2010-07-17T16:37:31Z</time>
<desc>lat.=55.774517, lon.=26.026733, Alt.=164.384888m. Speed=18.431999m/h.</desc>
<speed>5.120000</speed>
</trkpt>
<trkpt lat="55.774475" lon="26.026726">
<ele>164.248169</ele>
<time>2010-07-17T16:37:32Z</time>
<desc>lat.=55.774475, lon.=26.026726, Alt.=164.248169m. Speed=16.596001m/h.</desc>
<speed>4.610000</speed>
</trkpt>
<trkpt lat="55.774429" lon="26.026720">
<ele>164.166138</ele>
<time>2010-07-17T16:37:33Z</time>
<desc>lat.=55.774429, lon.=26.026720, Alt.=164.166138m. Speed=18.216000m/h.</desc>
<speed>5.060000</speed>
</trkpt>
<trkpt lat="55.774384" lon="26.026712">
<ele>163.713013</ele>
<time>2010-07-17T16:37:34Z</time>
<desc>lat.=55.774384, lon.=26.026712, Alt.=163.713013m. Speed=17.424000m/h.</desc>
<speed>4.840000</speed>
</trkpt>
<trkpt lat="55.774342" lon="26.026701">
<ele>163.748169</ele>
<time>2010-07-17T16:37:35Z</time>
<desc>lat.=55.774342, lon.=26.026701, Alt.=163.748169m. Speed=16.704000m/h.</desc>
<speed>4.640000</speed>
</trkpt>
<trkpt lat="55.774300" lon="26.026688">
<ele>163.779419</ele>
<time>2010-07-17T16:37:36Z</time>
<desc>lat.=55.774300, lon.=26.026688, Alt.=163.779419m. Speed=16.920000m/h.</desc>
<speed>4.700000</speed>
</trkpt>
<trkpt lat="55.774258" lon="26.026676">
<ele>163.935669</ele>
<time>2010-07-17T16:37:37Z</time>
<desc>lat.=55.774258, lon.=26.026676, Alt.=163.935669m. Speed=17.747999m/h.</desc>
<speed>4.930000</speed>
</trkpt>
<trkpt lat="55.774216" lon="26.026667">
<ele>164.017700</ele>
<time>2010-07-17T16:37:38Z</time>
<desc>lat.=55.774216, lon.=26.026667, Alt.=164.017700m. Speed=16.955999m/h.</desc>
<speed>4.710000</speed>
</trkpt>
<trkpt lat="55.774174" lon="26.026649">
<ele>164.439575</ele>
<time>2010-07-17T16:37:39Z</time>
<desc>lat.=55.774174, lon.=26.026649, Alt.=164.439575m. Speed=16.955999m/h.</desc>
<speed>4.710000</speed>
</trkpt>
<trkpt lat="55.774136" lon="26.026642">
<ele>164.752075</ele>
<time>2010-07-17T16:37:40Z</time>
<desc>lat.=55.774136, lon.=26.026642, Alt.=164.752075m. Speed=16.848000m/h.</desc>
<speed>4.680000</speed>
</trkpt>
<trkpt lat="55.774094" lon="26.026632">
<ele>164.634888</ele>
<time>2010-07-17T16:37:41Z</time>
<desc>lat.=55.774094, lon.=26.026632, Alt.=164.634888m. Speed=17.316000m/h.</desc>
<speed>4.810000</speed>
</trkpt>
<trkpt lat="55.774055" lon="26.026617">
<ele>164.841919</ele>
<time>2010-07-17T16:37:42Z</time>
<desc>lat.=55.774055, lon.=26.026617, Alt.=164.841919m. Speed=18.216000m/h.</desc>
<speed>5.060000</speed>
</trkpt>
<trkpt lat="55.774014" lon="26.026608">
<ele>164.670044</ele>
<time>2010-07-17T16:37:43Z</time>
<desc>lat.=55.774014, lon.=26.026608, Alt.=164.670044m. Speed=16.740000m/h.</desc>
<speed>4.650000</speed>
</trkpt>
<trkpt lat="55.773972" lon="26.026583">
<ele>164.478638</ele>
<time>2010-07-17T16:37:44Z</time>
<desc>lat.=55.773972, lon.=26.026583, Alt.=164.478638m. Speed=18.180000m/h.</desc>
<speed>5.050000</speed>
</trkpt>
<trkpt lat="55.773930" lon="26.026569">
<ele>164.963013</ele>
<time>2010-07-17T16:37:45Z</time>
<desc>lat.=55.773930, lon.=26.026569, Alt.=164.963013m. Speed=17.136000m/h.</desc>
<speed>4.760000</speed>
</trkpt>
<trkpt lat="55.773884" lon="26.026552">
<ele>165.158325</ele>
<time>2010-07-17T16:37:46Z</time>
<desc>lat.=55.773884, lon.=26.026552, Alt.=165.158325m. Speed=18.143999m/h.</desc>
<speed>5.040000</speed>
</trkpt>
<trkpt lat="55.773842" lon="26.026539">
<ele>165.482544</ele>
<time>2010-07-17T16:37:47Z</time>
<desc>lat.=55.773842, lon.=26.026539, Alt.=165.482544m. Speed=18.072001m/h.</desc>
<speed>5.020000</speed>
</trkpt>
<trkpt lat="55.773800" lon="26.026518">
<ele>165.595825</ele>
<time>2010-07-17T16:37:48Z</time>
<desc>lat.=55.773800, lon.=26.026518, Alt.=165.595825m. Speed=16.308001m/h.</desc>
<speed>4.530000</speed>
</trkpt>
<trkpt lat="55.773762" lon="26.026499">
<ele>165.713013</ele>
<time>2010-07-17T16:37:49Z</time>
<desc>lat.=55.773762, lon.=26.026499, Alt.=165.713013m. Speed=17.568001m/h.</desc>
<speed>4.880000</speed>
</trkpt>
<trkpt lat="55.773716" lon="26.026482">
<ele>165.705200</ele>
<time>2010-07-17T16:37:50Z</time>
<desc>lat.=55.773716, lon.=26.026482, Alt.=165.705200m. Speed=17.639999m/h.</desc>
<speed>4.900000</speed>
</trkpt>
<trkpt lat="55.773670" lon="26.026463">
<ele>165.775513</ele>
<time>2010-07-17T16:37:51Z</time>
<desc>lat.=55.773670, lon.=26.026463, Alt.=165.775513m. Speed=17.747999m/h.</desc>
<speed>4.930000</speed>
</trkpt>
<trkpt lat="55.773628" lon="26.026442">
<ele>165.810669</ele>
<time>2010-07-17T16:37:52Z</time>
<desc>lat.=55.773628, lon.=26.026442, Alt.=165.810669m. Speed=18.323999m/h.</desc>
<speed>5.090000</speed>
</trkpt>
<trkpt lat="55.773586" lon="26.026417">
<ele>165.697388</ele>
<time>2010-07-17T16:37:53Z</time>
<desc>lat.=55.773586, lon.=26.026417, Alt.=165.697388m. Speed=17.459999m/h.</desc>
<speed>4.850000</speed>
</trkpt>
<trkpt lat="55.773540" lon="26.026392">
<ele>165.572388</ele>
<time>2010-07-17T16:37:54Z</time>
<desc>lat.=55.773540, lon.=26.026392, Alt.=165.572388m. Speed=18.180000m/h.</desc>
<speed>5.050000</speed>
</trkpt>
<trkpt lat="55.773499" lon="26.026361">
<ele>165.279419</ele>
<time>2010-07-17T16:37:55Z</time>
<desc>lat.=55.773499, lon.=26.026361, Alt.=165.279419m. Speed=18.396000m/h.</desc>
<speed>5.110000</speed>
</trkpt>
<trkpt lat="55.773457" lon="26.026348">
<ele>165.244263</ele>
<time>2010-07-17T16:37:56Z</time>
<desc>lat.=55.773457, lon.=26.026348, Alt.=165.244263m. Speed=18.035999m/h.</desc>
<speed>5.010000</speed>
</trkpt>
<trkpt lat="55.773415" lon="26.026327">
<ele>165.134888</ele>
<time>2010-07-17T16:37:57Z</time>
<desc>lat.=55.773415, lon.=26.026327, Alt.=165.134888m. Speed=17.604000m/h.</desc>
<speed>4.890000</speed>
</trkpt>
<trkpt lat="55.773365" lon="26.026310">
<ele>164.822388</ele>
<time>2010-07-17T16:37:58Z</time>
<desc>lat.=55.773365, lon.=26.026310, Alt.=164.822388m. Speed=18.792000m/h.</desc>
<speed>5.220000</speed>
</trkpt>
<trkpt lat="55.773315" lon="26.026285">
<ele>164.822388</ele>
<time>2010-07-17T16:37:59Z</time>
<desc>lat.=55.773315, lon.=26.026285, Alt.=164.822388m. Speed=18.323999m/h.</desc>
<speed>5.090000</speed>
</trkpt>
<trkpt lat="55.773270" lon="26.026262">
<ele>164.677856</ele>
<time>2010-07-17T16:38:00Z</time>
<desc>lat.=55.773270, lon.=26.026262, Alt.=164.677856m. Speed=19.332001m/h.</desc>
<speed>5.370000</speed>
</trkpt>
<trkpt lat="55.773224" lon="26.026241">
<ele>164.908325</ele>
<time>2010-07-17T16:38:01Z</time>
<desc>lat.=55.773224, lon.=26.026241, Alt.=164.908325m. Speed=18.612000m/h.</desc>
<speed>5.170000</speed>
</trkpt>
<trkpt lat="55.773178" lon="26.026218">
<ele>164.986450</ele>
<time>2010-07-17T16:38:02Z</time>
<desc>lat.=55.773178, lon.=26.026218, Alt.=164.986450m. Speed=19.728001m/h.</desc>
<speed>5.480000</speed>
</trkpt>
<trkpt lat="55.773129" lon="26.026194">
<ele>165.158325</ele>
<time>2010-07-17T16:38:03Z</time>
<desc>lat.=55.773129, lon.=26.026194, Alt.=165.158325m. Speed=20.160000m/h.</desc>
<speed>5.600000</speed>
</trkpt>
<trkpt lat="55.773083" lon="26.026171">
<ele>164.912231</ele>
<time>2010-07-17T16:38:04Z</time>
<desc>lat.=55.773083, lon.=26.026171, Alt.=164.912231m. Speed=19.332001m/h.</desc>
<speed>5.370000</speed>
</trkpt>
<trkpt lat="55.773029" lon="26.026142">
<ele>164.904419</ele>
<time>2010-07-17T16:38:05Z</time>
<desc>lat.=55.773029, lon.=26.026142, Alt.=164.904419m. Speed=21.996000m/h.</desc>
<speed>6.110000</speed>
</trkpt>
<trkpt lat="55.772976" lon="26.026121">
<ele>164.767700</ele>
<time>2010-07-17T16:38:06Z</time>
<desc>lat.=55.772976, lon.=26.026121, Alt.=164.767700m. Speed=21.096001m/h.</desc>
<speed>5.860000</speed>
</trkpt>
<trkpt lat="55.772919" lon="26.026100">
<ele>164.744263</ele>
<time>2010-07-17T16:38:07Z</time>
<desc>lat.=55.772919, lon.=26.026100, Alt.=164.744263m. Speed=21.455999m/h.</desc>
<speed>5.960000</speed>
</trkpt>
<trkpt lat="55.772873" lon="26.026077">
<ele>165.228638</ele>
<time>2010-07-17T16:38:08Z</time>
<desc>lat.=55.772873, lon.=26.026077, Alt.=165.228638m. Speed=20.700001m/h.</desc>
<speed>5.750000</speed>
</trkpt>
<trkpt lat="55.772823" lon="26.026062">
<ele>166.048950</ele>
<time>2010-07-17T16:38:09Z</time>
<desc>lat.=55.772823, lon.=26.026062, Alt.=166.048950m. Speed=21.240000m/h.</desc>
<speed>5.900000</speed>
</trkpt>
<trkpt lat="55.772770" lon="26.026041">
<ele>166.681763</ele>
<time>2010-07-17T16:38:10Z</time>
<desc>lat.=55.772770, lon.=26.026041, Alt.=166.681763m. Speed=19.728001m/h.</desc>
<speed>5.480000</speed>
</trkpt>
<trkpt lat="55.772724" lon="26.026022">
<ele>166.912231</ele>
<time>2010-07-17T16:38:11Z</time>
<desc>lat.=55.772724, lon.=26.026022, Alt.=166.912231m. Speed=20.664000m/h.</desc>
<speed>5.740000</speed>
</trkpt>
<trkpt lat="55.772671" lon="26.026001">
<ele>167.017700</ele>
<time>2010-07-17T16:38:12Z</time>
<desc>lat.=55.772671, lon.=26.026001, Alt.=167.017700m. Speed=20.628000m/h.</desc>
<speed>5.730000</speed>
</trkpt>
<trkpt lat="55.772621" lon="26.025978">
<ele>167.314575</ele>
<time>2010-07-17T16:38:13Z</time>
<desc>lat.=55.772621, lon.=26.025978, Alt.=167.314575m. Speed=21.240000m/h.</desc>
<speed>5.900000</speed>
</trkpt>
<trkpt lat="55.772568" lon="26.025948">
<ele>167.361450</ele>
<time>2010-07-17T16:38:14Z</time>
<desc>lat.=55.772568, lon.=26.025948, Alt.=167.361450m. Speed=21.600000m/h.</desc>
<speed>6.000000</speed>
</trkpt>
<trkpt lat="55.772522" lon="26.025919">
<ele>167.478638</ele>
<time>2010-07-17T16:38:15Z</time>
<desc>lat.=55.772522, lon.=26.025919, Alt.=167.478638m. Speed=18.612000m/h.</desc>
<speed>5.170000</speed>
</trkpt>
<trkpt lat="55.772476" lon="26.025894">
<ele>167.263794</ele>
<time>2010-07-17T16:38:16Z</time>
<desc>lat.=55.772476, lon.=26.025894, Alt.=167.263794m. Speed=17.496000m/h.</desc>
<speed>4.860000</speed>
</trkpt>
<trkpt lat="55.772434" lon="26.025875">
<ele>166.798950</ele>
<time>2010-07-17T16:38:17Z</time>
<desc>lat.=55.772434, lon.=26.025875, Alt.=166.798950m. Speed=16.559999m/h.</desc>
<speed>4.600000</speed>
</trkpt>
<trkpt lat="55.772392" lon="26.025846">
<ele>165.927856</ele>
<time>2010-07-17T16:38:18Z</time>
<desc>lat.=55.772392, lon.=26.025846, Alt.=165.927856m. Speed=17.532000m/h.</desc>
<speed>4.870000</speed>
</trkpt>
<trkpt lat="55.772346" lon="26.025822">
<ele>165.677856</ele>
<time>2010-07-17T16:38:19Z</time>
<desc>lat.=55.772346, lon.=26.025822, Alt.=165.677856m. Speed=19.296000m/h.</desc>
<speed>5.360000</speed>
</trkpt>
<trkpt lat="55.772293" lon="26.025799">
<ele>165.564575</ele>
<time>2010-07-17T16:38:20Z</time>
<desc>lat.=55.772293, lon.=26.025799, Alt.=165.564575m. Speed=21.204000m/h.</desc>
<speed>5.890000</speed>
</trkpt>
<trkpt lat="55.772243" lon="26.025778">
<ele>165.838013</ele>
<time>2010-07-17T16:38:21Z</time>
<desc>lat.=55.772243, lon.=26.025778, Alt.=165.838013m. Speed=21.240000m/h.</desc>
<speed>5.900000</speed>
</trkpt>
<trkpt lat="55.772194" lon="26.025761">
<ele>166.338013</ele>
<time>2010-07-17T16:38:22Z</time>
<desc>lat.=55.772194, lon.=26.025761, Alt.=166.338013m. Speed=19.728001m/h.</desc>
<speed>5.480000</speed>
</trkpt>
<trkpt lat="55.772144" lon="26.025738">
<ele>166.670044</ele>
<time>2010-07-17T16:38:23Z</time>
<desc>lat.=55.772144, lon.=26.025738, Alt.=166.670044m. Speed=20.591999m/h.</desc>
<speed>5.720000</speed>
</trkpt>
<trkpt lat="55.772095" lon="26.025705">
<ele>166.869263</ele>
<time>2010-07-17T16:38:24Z</time>
<desc>lat.=55.772095, lon.=26.025705, Alt.=166.869263m. Speed=21.636000m/h.</desc>
<speed>6.010000</speed>
</trkpt>
<trkpt lat="55.772049" lon="26.025679">
<ele>167.021606</ele>
<time>2010-07-17T16:38:25Z</time>
<desc>lat.=55.772049, lon.=26.025679, Alt.=167.021606m. Speed=16.812000m/h.</desc>
<speed>4.670000</speed>
</trkpt>
<trkpt lat="55.772011" lon="26.025656">
<ele>167.150513</ele>
<time>2010-07-17T16:38:26Z</time>
<desc>lat.=55.772011, lon.=26.025656, Alt.=167.150513m. Speed=16.848000m/h.</desc>
<speed>4.680000</speed>
</trkpt>
<trkpt lat="55.771957" lon="26.025633">
<ele>168.033325</ele>
<time>2010-07-17T16:38:27Z</time>
<desc>lat.=55.771957, lon.=26.025633, Alt.=168.033325m. Speed=19.656000m/h.</desc>
<speed>5.460000</speed>
</trkpt>
<trkpt lat="55.771908" lon="26.025608">
<ele>168.298950</ele>
<time>2010-07-17T16:38:28Z</time>
<desc>lat.=55.771908, lon.=26.025608, Alt.=168.298950m. Speed=20.483999m/h.</desc>
<speed>5.690000</speed>
</trkpt>
<trkpt lat="55.771858" lon="26.025583">
<ele>168.552856</ele>
<time>2010-07-17T16:38:29Z</time>
<desc>lat.=55.771858, lon.=26.025583, Alt.=168.552856m. Speed=18.936001m/h.</desc>
<speed>5.260000</speed>
</trkpt>
<trkpt lat="55.771812" lon="26.025564">
<ele>168.830200</ele>
<time>2010-07-17T16:38:30Z</time>
<desc>lat.=55.771812, lon.=26.025564, Alt.=168.830200m. Speed=18.684000m/h.</desc>
<speed>5.190000</speed>
</trkpt>
<trkpt lat="55.771767" lon="26.025553">
<ele>168.888794</ele>
<time>2010-07-17T16:38:31Z</time>
<desc>lat.=55.771767, lon.=26.025553, Alt.=168.888794m. Speed=18.035999m/h.</desc>
<speed>5.010000</speed>
</trkpt>
<trkpt lat="55.771725" lon="26.025528">
<ele>168.963013</ele>
<time>2010-07-17T16:38:32Z</time>
<desc>lat.=55.771725, lon.=26.025528, Alt.=168.963013m. Speed=15.948000m/h.</desc>
<speed>4.430000</speed>
</trkpt>
<trkpt lat="55.771690" lon="26.025511">
<ele>168.728638</ele>
<time>2010-07-17T16:38:33Z</time>
<desc>lat.=55.771690, lon.=26.025511, Alt.=168.728638m. Speed=12.672000m/h.</desc>
<speed>3.520000</speed>
</trkpt>
<trkpt lat="55.771660" lon="26.025501">
<ele>168.185669</ele>
<time>2010-07-17T16:38:34Z</time>
<desc>lat.=55.771660, lon.=26.025501, Alt.=168.185669m. Speed=10.800000m/h.</desc>
<speed>3.000000</speed>
</trkpt>
<trkpt lat="55.771626" lon="26.025492">
<ele>167.045044</ele>
<time>2010-07-17T16:38:35Z</time>
<desc>lat.=55.771626, lon.=26.025492, Alt.=167.045044m. Speed=10.476000m/h.</desc>
<speed>2.910000</speed>
</trkpt>
<trkpt lat="55.771587" lon="26.025475">
<ele>166.404419</ele>
<time>2010-07-17T16:38:36Z</time>
<desc>lat.=55.771587, lon.=26.025475, Alt.=166.404419m. Speed=12.924000m/h.</desc>
<speed>3.590000</speed>
</trkpt>
<trkpt lat="55.771553" lon="26.025459">
<ele>165.982544</ele>
<time>2010-07-17T16:38:37Z</time>
<desc>lat.=55.771553, lon.=26.025459, Alt.=165.982544m. Speed=11.592000m/h.</desc>
<speed>3.220000</speed>
</trkpt>
<trkpt lat="55.771500" lon="26.025440">
<ele>164.873169</ele>
<time>2010-07-17T16:38:38Z</time>
<desc>lat.=55.771500, lon.=26.025440, Alt.=164.873169m. Speed=16.559999m/h.</desc>
<speed>4.600000</speed>
</trkpt>
<trkpt lat="55.771442" lon="26.025393">
<ele>164.138794</ele>
<time>2010-07-17T16:38:39Z</time>
<desc>lat.=55.771442, lon.=26.025393, Alt.=164.138794m. Speed=17.568001m/h.</desc>
<speed>4.880000</speed>
</trkpt>
<trkpt lat="55.771393" lon="26.025360">
<ele>163.369263</ele>
<time>2010-07-17T16:38:40Z</time>
<desc>lat.=55.771393, lon.=26.025360, Alt.=163.369263m. Speed=15.984000m/h.</desc>
<speed>4.440000</speed>
</trkpt>
<trkpt lat="55.771347" lon="26.025330">
<ele>162.951294</ele>
<time>2010-07-17T16:38:41Z</time>
<desc>lat.=55.771347, lon.=26.025330, Alt.=162.951294m. Speed=16.128000m/h.</desc>
<speed>4.480000</speed>
</trkpt>
<trkpt lat="55.771294" lon="26.025301">
<ele>162.088013</ele>
<time>2010-07-17T16:38:42Z</time>
<desc>lat.=55.771294, lon.=26.025301, Alt.=162.088013m. Speed=16.416000m/h.</desc>
<speed>4.560000</speed>
</trkpt>
<trkpt lat="55.771244" lon="26.025270">
<ele>161.142700</ele>
<time>2010-07-17T16:38:43Z</time>
<desc>lat.=55.771244, lon.=26.025270, Alt.=161.142700m. Speed=18.000000m/h.</desc>
<speed>5.000000</speed>
</trkpt>
<trkpt lat="55.771183" lon="26.025249">
<ele>160.728638</ele>
<time>2010-07-17T16:38:44Z</time>
<desc>lat.=55.771183, lon.=26.025249, Alt.=160.728638m. Speed=19.188000m/h.</desc>
<speed>5.330000</speed>
</trkpt>
<trkpt lat="55.771114" lon="26.025208">
<ele>159.845825</ele>
<time>2010-07-17T16:38:45Z</time>
<desc>lat.=55.771114, lon.=26.025208, Alt.=159.845825m. Speed=19.296000m/h.</desc>
<speed>5.360000</speed>
</trkpt>
<trkpt lat="55.771049" lon="26.025166">
<ele>158.517700</ele>
<time>2010-07-17T16:38:46Z</time>
<desc>lat.=55.771049, lon.=26.025166, Alt.=158.517700m. Speed=18.792000m/h.</desc>
<speed>5.220000</speed>
</trkpt>
<trkpt lat="55.770992" lon="26.025141">
<ele>157.685669</ele>
<time>2010-07-17T16:38:47Z</time>
<desc>lat.=55.770992, lon.=26.025141, Alt.=157.685669m. Speed=17.784000m/h.</desc>
<speed>4.940000</speed>
</trkpt>
<trkpt lat="55.770939" lon="26.025116">
<ele>157.568481</ele>
<time>2010-07-17T16:38:48Z</time>
<desc>lat.=55.770939, lon.=26.025116, Alt.=157.568481m. Speed=18.000000m/h.</desc>
<speed>5.000000</speed>
</trkpt>
<trkpt lat="55.770889" lon="26.025091">
<ele>157.545044</ele>
<time>2010-07-17T16:38:49Z</time>
<desc>lat.=55.770889, lon.=26.025091, Alt.=157.545044m. Speed=17.892000m/h.</desc>
<speed>4.970000</speed>
</trkpt>
<trkpt lat="55.770836" lon="26.025072">
<ele>157.443481</ele>
<time>2010-07-17T16:38:50Z</time>
<desc>lat.=55.770836, lon.=26.025072, Alt.=157.443481m. Speed=18.180000m/h.</desc>
<speed>5.050000</speed>
</trkpt>
<trkpt lat="55.770771" lon="26.025059">
<ele>156.830200</ele>
<time>2010-07-17T16:38:51Z</time>
<desc>lat.=55.770771, lon.=26.025059, Alt.=156.830200m. Speed=18.252001m/h.</desc>
<speed>5.070000</speed>
</trkpt>
<trkpt lat="55.770721" lon="26.025040">
<ele>157.384888</ele>
<time>2010-07-17T16:38:52Z</time>
<desc>lat.=55.770721, lon.=26.025040, Alt.=157.384888m. Speed=17.496000m/h.</desc>
<speed>4.860000</speed>
</trkpt>
<trkpt lat="55.770672" lon="26.025021">
<ele>157.724731</ele>
<time>2010-07-17T16:38:53Z</time>
<desc>lat.=55.770672, lon.=26.025021, Alt.=157.724731m. Speed=18.648001m/h.</desc>
<speed>5.180000</speed>
</trkpt>
<trkpt lat="55.770618" lon="26.024986">
<ele>157.603638</ele>
<time>2010-07-17T16:38:54Z</time>
<desc>lat.=55.770618, lon.=26.024986, Alt.=157.603638m. Speed=17.243999m/h.</desc>
<speed>4.790000</speed>
</trkpt>
<trkpt lat="55.770569" lon="26.024965">
<ele>157.963013</ele>
<time>2010-07-17T16:38:55Z</time>
<desc>lat.=55.770569, lon.=26.024965, Alt.=157.963013m. Speed=18.540001m/h.</desc>
<speed>5.150000</speed>
</trkpt>
<trkpt lat="55.770519" lon="26.024944">
<ele>158.373169</ele>
<time>2010-07-17T16:38:56Z</time>
<desc>lat.=55.770519, lon.=26.024944, Alt.=158.373169m. Speed=19.620001m/h.</desc>
<speed>5.450000</speed>
</trkpt>
<trkpt lat="55.770470" lon="26.024921">
<ele>158.603638</ele>
<time>2010-07-17T16:38:57Z</time>
<desc>lat.=55.770470, lon.=26.024921, Alt.=158.603638m. Speed=17.784000m/h.</desc>
<speed>4.940000</speed>
</trkpt>
<trkpt lat="55.770424" lon="26.024902">
<ele>158.498169</ele>
<time>2010-07-17T16:38:58Z</time>
<desc>lat.=55.770424, lon.=26.024902, Alt.=158.498169m. Speed=16.200001m/h.</desc>
<speed>4.500000</speed>
</trkpt>
<trkpt lat="55.770378" lon="26.024889">
<ele>159.127075</ele>
<time>2010-07-17T16:38:59Z</time>
<desc>lat.=55.770378, lon.=26.024889, Alt.=159.127075m. Speed=13.500000m/h.</desc>
<speed>3.750000</speed>
</trkpt>
<trkpt lat="55.770344" lon="26.024874">
<ele>159.580200</ele>
<time>2010-07-17T16:39:00Z</time>
<desc>lat.=55.770344, lon.=26.024874, Alt.=159.580200m. Speed=13.788000m/h.</desc>
<speed>3.830000</speed>
</trkpt>
<trkpt lat="55.770302" lon="26.024858">
<ele>159.920044</ele>
<time>2010-07-17T16:39:01Z</time>
<desc>lat.=55.770302, lon.=26.024858, Alt.=159.920044m. Speed=16.740000m/h.</desc>
<speed>4.650000</speed>
</trkpt>
<trkpt lat="55.770248" lon="26.024841">
<ele>161.314575</ele>
<time>2010-07-17T16:39:02Z</time>
<desc>lat.=55.770248, lon.=26.024841, Alt.=161.314575m. Speed=19.152000m/h.</desc>
<speed>5.320000</speed>
</trkpt>
<trkpt lat="55.770199" lon="26.024820">
<ele>161.494263</ele>
<time>2010-07-17T16:39:03Z</time>
<desc>lat.=55.770199, lon.=26.024820, Alt.=161.494263m. Speed=18.756001m/h.</desc>
<speed>5.210000</speed>
</trkpt>
<trkpt lat="55.770153" lon="26.024794">
<ele>161.474731</ele>
<time>2010-07-17T16:39:04Z</time>
<desc>lat.=55.770153, lon.=26.024794, Alt.=161.474731m. Speed=16.056000m/h.</desc>
<speed>4.460000</speed>
</trkpt>
<trkpt lat="55.770119" lon="26.024776">
<ele>161.630981</ele>
<time>2010-07-17T16:39:05Z</time>
<desc>lat.=55.770119, lon.=26.024776, Alt.=161.630981m. Speed=12.744000m/h.</desc>
<speed>3.540000</speed>
</trkpt>
<trkpt lat="55.770081" lon="26.024759">
<ele>161.904419</ele>
<time>2010-07-17T16:39:06Z</time>
<desc>lat.=55.770081, lon.=26.024759, Alt.=161.904419m. Speed=13.968000m/h.</desc>
<speed>3.880000</speed>
</trkpt>
<trkpt lat="55.770035" lon="26.024740">
<ele>162.021606</ele>
<time>2010-07-17T16:39:07Z</time>
<desc>lat.=55.770035, lon.=26.024740, Alt.=162.021606m. Speed=16.524000m/h.</desc>
<speed>4.590000</speed>
</trkpt>
<trkpt lat="55.769981" lon="26.024725">
<ele>162.466919</ele>
<time>2010-07-17T16:39:08Z</time>
<desc>lat.=55.769981, lon.=26.024725, Alt.=162.466919m. Speed=18.900000m/h.</desc>
<speed>5.250000</speed>
</trkpt>
<trkpt lat="55.769924" lon="26.024710">
<ele>163.115356</ele>
<time>2010-07-17T16:39:09Z</time>
<desc>lat.=55.769924, lon.=26.024710, Alt.=163.115356m. Speed=16.740000m/h.</desc>
<speed>4.650000</speed>
</trkpt>
<trkpt lat="55.769878" lon="26.024693">
<ele>163.314575</ele>
<time>2010-07-17T16:39:10Z</time>
<desc>lat.=55.769878, lon.=26.024693, Alt.=163.314575m. Speed=15.552000m/h.</desc>
<speed>4.320000</speed>
</trkpt>
<trkpt lat="55.769825" lon="26.024681">
<ele>163.783325</ele>
<time>2010-07-17T16:39:11Z</time>
<desc>lat.=55.769825, lon.=26.024681, Alt.=163.783325m. Speed=16.596001m/h.</desc>
<speed>4.610000</speed>
</trkpt>
<trkpt lat="55.769764" lon="26.024662">
<ele>164.904419</ele>
<time>2010-07-17T16:39:12Z</time>
<desc>lat.=55.769764, lon.=26.024662, Alt.=164.904419m. Speed=17.747999m/h.</desc>
<speed>4.930000</speed>
</trkpt>
<trkpt lat="55.769699" lon="26.024637">
<ele>164.802856</ele>
<time>2010-07-17T16:39:13Z</time>
<desc>lat.=55.769699, lon.=26.024637, Alt.=164.802856m. Speed=18.252001m/h.</desc>
<speed>5.070000</speed>
</trkpt>
<trkpt lat="55.769638" lon="26.024612">
<ele>165.275513</ele>
<time>2010-07-17T16:39:14Z</time>
<desc>lat.=55.769638, lon.=26.024612, Alt.=165.275513m. Speed=18.504000m/h.</desc>
<speed>5.140000</speed>
</trkpt>
<trkpt lat="55.769585" lon="26.024588">
<ele>164.060669</ele>
<time>2010-07-17T16:39:15Z</time>
<desc>lat.=55.769585, lon.=26.024588, Alt.=164.060669m. Speed=15.084000m/h.</desc>
<speed>4.190000</speed>
</trkpt>
<trkpt lat="55.769547" lon="26.024561">
<ele>163.498169</ele>
<time>2010-07-17T16:39:16Z</time>
<desc>lat.=55.769547, lon.=26.024561, Alt.=163.498169m. Speed=14.220000m/h.</desc>
<speed>3.950000</speed>
</trkpt>
<trkpt lat="55.769505" lon="26.024532">
<ele>162.767700</ele>
<time>2010-07-17T16:39:17Z</time>
<desc>lat.=55.769505, lon.=26.024532, Alt.=162.767700m. Speed=15.912000m/h.</desc>
<speed>4.420000</speed>
</trkpt>
<trkpt lat="55.769459" lon="26.024509">
<ele>161.865356</ele>
<time>2010-07-17T16:39:18Z</time>
<desc>lat.=55.769459, lon.=26.024509, Alt.=161.865356m. Speed=15.336000m/h.</desc>
<speed>4.260000</speed>
</trkpt>
<trkpt lat="55.769402" lon="26.024483">
<ele>162.666138</ele>
<time>2010-07-17T16:39:19Z</time>
<desc>lat.=55.769402, lon.=26.024483, Alt.=162.666138m. Speed=18.756001m/h.</desc>
<speed>5.210000</speed>
</trkpt>
<trkpt lat="55.769333" lon="26.024445">
<ele>161.834106</ele>
<time>2010-07-17T16:39:20Z</time>
<desc>lat.=55.769333, lon.=26.024445, Alt.=161.834106m. Speed=19.548000m/h.</desc>
<speed>5.430000</speed>
</trkpt>
<trkpt lat="55.769272" lon="26.024395">
<ele>160.416138</ele>
<time>2010-07-17T16:39:21Z</time>
<desc>lat.=55.769272, lon.=26.024395, Alt.=160.416138m. Speed=18.288000m/h.</desc>
<speed>5.080000</speed>
</trkpt>
<trkpt lat="55.769226" lon="26.024364">
<ele>159.158325</ele>
<time>2010-07-17T16:39:22Z</time>
<desc>lat.=55.769226, lon.=26.024364, Alt.=159.158325m. Speed=17.172001m/h.</desc>
<speed>4.770000</speed>
</trkpt>
<trkpt lat="55.769180" lon="26.024338">
<ele>158.224731</ele>
<time>2010-07-17T16:39:23Z</time>
<desc>lat.=55.769180, lon.=26.024338, Alt.=158.224731m. Speed=16.452000m/h.</desc>
<speed>4.570000</speed>
</trkpt>
<trkpt lat="55.769142" lon="26.024315">
<ele>157.642700</ele>
<time>2010-07-17T16:39:24Z</time>
<desc>lat.=55.769142, lon.=26.024315, Alt.=157.642700m. Speed=15.480000m/h.</desc>
<speed>4.300000</speed>
</trkpt>
<trkpt lat="55.769104" lon="26.024298">
<ele>157.193481</ele>
<time>2010-07-17T16:39:25Z</time>
<desc>lat.=55.769104, lon.=26.024298, Alt.=157.193481m. Speed=14.184000m/h.</desc>
<speed>3.940000</speed>
</trkpt>
<trkpt lat="55.769070" lon="26.024275">
<ele>156.439575</ele>
<time>2010-07-17T16:39:26Z</time>
<desc>lat.=55.769070, lon.=26.024275, Alt.=156.439575m. Speed=12.924000m/h.</desc>
<speed>3.590000</speed>
</trkpt>
<trkpt lat="55.769035" lon="26.024254">
<ele>155.986450</ele>
<time>2010-07-17T16:39:27Z</time>
<desc>lat.=55.769035, lon.=26.024254, Alt.=155.986450m. Speed=12.744000m/h.</desc>
<speed>3.540000</speed>
</trkpt>
<trkpt lat="55.769001" lon="26.024235">
<ele>156.130981</ele>
<time>2010-07-17T16:39:28Z</time>
<desc>lat.=55.769001, lon.=26.024235, Alt.=156.130981m. Speed=13.068000m/h.</desc>
<speed>3.630000</speed>
</trkpt>
<trkpt lat="55.768967" lon="26.024212">
<ele>156.025513</ele>
<time>2010-07-17T16:39:29Z</time>
<desc>lat.=55.768967, lon.=26.024212, Alt.=156.025513m. Speed=14.112000m/h.</desc>
<speed>3.920000</speed>
</trkpt>
<trkpt lat="55.768932" lon="26.024197">
<ele>155.576294</ele>
<time>2010-07-17T16:39:30Z</time>
<desc>lat.=55.768932, lon.=26.024197, Alt.=155.576294m. Speed=12.132000m/h.</desc>
<speed>3.370000</speed>
</trkpt>
<trkpt lat="55.768890" lon="26.024178">
<ele>155.525513</ele>
<time>2010-07-17T16:39:31Z</time>
<desc>lat.=55.768890, lon.=26.024178, Alt.=155.525513m. Speed=16.559999m/h.</desc>
<speed>4.600000</speed>
</trkpt>
<trkpt lat="55.768848" lon="26.024168">
<ele>156.388794</ele>
<time>2010-07-17T16:39:32Z</time>
<desc>lat.=55.768848, lon.=26.024168, Alt.=156.388794m. Speed=17.747999m/h.</desc>
<speed>4.930000</speed>
</trkpt>
<trkpt lat="55.768799" lon="26.024147">
<ele>156.705200</ele>
<time>2010-07-17T16:39:33Z</time>
<desc>lat.=55.768799, lon.=26.024147, Alt.=156.705200m. Speed=18.684000m/h.</desc>
<speed>5.190000</speed>
</trkpt>
<trkpt lat="55.768745" lon="26.024128">
<ele>156.763794</ele>
<time>2010-07-17T16:39:34Z</time>
<desc>lat.=55.768745, lon.=26.024128, Alt.=156.763794m. Speed=19.115999m/h.</desc>
<speed>5.310000</speed>
</trkpt>
<trkpt lat="55.768677" lon="26.024105">
<ele>156.170044</ele>
<time>2010-07-17T16:39:35Z</time>
<desc>lat.=55.768677, lon.=26.024105, Alt.=156.170044m. Speed=21.420000m/h.</desc>
<speed>5.950000</speed>
</trkpt>
<trkpt lat="55.768616" lon="26.024082">
<ele>156.146606</ele>
<time>2010-07-17T16:39:36Z</time>
<desc>lat.=55.768616, lon.=26.024082, Alt.=156.146606m. Speed=19.440001m/h.</desc>
<speed>5.400000</speed>
</trkpt>
<trkpt lat="55.768562" lon="26.024055">
<ele>156.134888</ele>
<time>2010-07-17T16:39:37Z</time>
<desc>lat.=55.768562, lon.=26.024055, Alt.=156.134888m. Speed=17.892000m/h.</desc>
<speed>4.970000</speed>
</trkpt>
<trkpt lat="55.768501" lon="26.024033">
<ele>155.705200</ele>
<time>2010-07-17T16:39:38Z</time>
<desc>lat.=55.768501, lon.=26.024033, Alt.=155.705200m. Speed=18.827999m/h.</desc>
<speed>5.230000</speed>
</trkpt>
<trkpt lat="55.768440" lon="26.024015">
<ele>155.080200</ele>
<time>2010-07-17T16:39:39Z</time>
<desc>lat.=55.768440, lon.=26.024015, Alt.=155.080200m. Speed=19.115999m/h.</desc>
<speed>5.310000</speed>
</trkpt>
<trkpt lat="55.768375" lon="26.024008">
<ele>154.088013</ele>
<time>2010-07-17T16:39:40Z</time>
<desc>lat.=55.768375, lon.=26.024008, Alt.=154.088013m. Speed=19.080000m/h.</desc>
<speed>5.300000</speed>
</trkpt>
<trkpt lat="55.768314" lon="26.023996">
<ele>153.470825</ele>
<time>2010-07-17T16:39:41Z</time>
<desc>lat.=55.768314, lon.=26.023996, Alt.=153.470825m. Speed=18.900000m/h.</desc>
<speed>5.250000</speed>
</trkpt>
<trkpt lat="55.768257" lon="26.023991">
<ele>153.111450</ele>
<time>2010-07-17T16:39:42Z</time>
<desc>lat.=55.768257, lon.=26.023991, Alt.=153.111450m. Speed=18.719999m/h.</desc>
<speed>5.200000</speed>
</trkpt>
<trkpt lat="55.768208" lon="26.023983">
<ele>152.966919</ele>
<time>2010-07-17T16:39:43Z</time>
<desc>lat.=55.768208, lon.=26.023983, Alt.=152.966919m. Speed=19.836000m/h.</desc>
<speed>5.510000</speed>
</trkpt>
<trkpt lat="55.768143" lon="26.023989">
<ele>152.228638</ele>
<time>2010-07-17T16:39:44Z</time>
<desc>lat.=55.768143, lon.=26.023989, Alt.=152.228638m. Speed=19.656000m/h.</desc>
<speed>5.460000</speed>
</trkpt>
<trkpt lat="55.768089" lon="26.023985">
<ele>152.318481</ele>
<time>2010-07-17T16:39:45Z</time>
<desc>lat.=55.768089, lon.=26.023985, Alt.=152.318481m. Speed=16.740000m/h.</desc>
<speed>4.650000</speed>
</trkpt>
<trkpt lat="55.768024" lon="26.023973">
<ele>152.451294</ele>
<time>2010-07-17T16:39:46Z</time>
<desc>lat.=55.768024, lon.=26.023973, Alt.=152.451294m. Speed=19.368000m/h.</desc>
<speed>5.380000</speed>
</trkpt>
<trkpt lat="55.767967" lon="26.023962">
<ele>152.713013</ele>
<time>2010-07-17T16:39:47Z</time>
<desc>lat.=55.767967, lon.=26.023962, Alt.=152.713013m. Speed=19.224001m/h.</desc>
<speed>5.340000</speed>
</trkpt>
<trkpt lat="55.767918" lon="26.023964">
<ele>152.951294</ele>
<time>2010-07-17T16:39:48Z</time>
<desc>lat.=55.767918, lon.=26.023964, Alt.=152.951294m. Speed=17.100000m/h.</desc>
<speed>4.750000</speed>
</trkpt>
<trkpt lat="55.767864" lon="26.023966">
<ele>153.193481</ele>
<time>2010-07-17T16:39:49Z</time>
<desc>lat.=55.767864, lon.=26.023966, Alt.=153.193481m. Speed=16.236000m/h.</desc>
<speed>4.510000</speed>
</trkpt>
<trkpt lat="55.767822" lon="26.023972">
<ele>153.646606</ele>
<time>2010-07-17T16:39:50Z</time>
<desc>lat.=55.767822, lon.=26.023972, Alt.=153.646606m. Speed=11.628000m/h.</desc>
<speed>3.230000</speed>
</trkpt>
<trkpt lat="55.767773" lon="26.023968">
<ele>153.353638</ele>
<time>2010-07-17T16:39:51Z</time>
<desc>lat.=55.767773, lon.=26.023968, Alt.=153.353638m. Speed=12.744000m/h.</desc>
<speed>3.540000</speed>
</trkpt>
<trkpt lat="55.767727" lon="26.023977">
<ele>152.994263</ele>
<time>2010-07-17T16:39:52Z</time>
<desc>lat.=55.767727, lon.=26.023977, Alt.=152.994263m. Speed=11.844000m/h.</desc>
<speed>3.290000</speed>
</trkpt>
<trkpt lat="55.767685" lon="26.023979">
<ele>153.377075</ele>
<time>2010-07-17T16:39:53Z</time>
<desc>lat.=55.767685, lon.=26.023979, Alt.=153.377075m. Speed=10.620000m/h.</desc>
<speed>2.950000</speed>
</trkpt>
<trkpt lat="55.767647" lon="26.023983">
<ele>153.588013</ele>
<time>2010-07-17T16:39:54Z</time>
<desc>lat.=55.767647, lon.=26.023983, Alt.=153.588013m. Speed=12.456000m/h.</desc>
<speed>3.460000</speed>
</trkpt>
<trkpt lat="55.767605" lon="26.024004">
<ele>153.853638</ele>
<time>2010-07-17T16:39:55Z</time>
<desc>lat.=55.767605, lon.=26.024004, Alt.=153.853638m. Speed=13.392000m/h.</desc>
<speed>3.720000</speed>
</trkpt>
<trkpt lat="55.767559" lon="26.024015">
<ele>153.982544</ele>
<time>2010-07-17T16:39:56Z</time>
<desc>lat.=55.767559, lon.=26.024015, Alt.=153.982544m. Speed=14.472000m/h.</desc>
<speed>4.020000</speed>
</trkpt>
<trkpt lat="55.767513" lon="26.024019">
<ele>154.068481</ele>
<time>2010-07-17T16:39:57Z</time>
<desc>lat.=55.767513, lon.=26.024019, Alt.=154.068481m. Speed=14.040000m/h.</desc>
<speed>3.900000</speed>
</trkpt>
<trkpt lat="55.767467" lon="26.024035">
<ele>154.185669</ele>
<time>2010-07-17T16:39:58Z</time>
<desc>lat.=55.767467, lon.=26.024035, Alt.=154.185669m. Speed=11.268000m/h.</desc>
<speed>3.130000</speed>
</trkpt>
<trkpt lat="55.767433" lon="26.024044">
<ele>154.138794</ele>
<time>2010-07-17T16:39:59Z</time>
<desc>lat.=55.767433, lon.=26.024044, Alt.=154.138794m. Speed=9.432000m/h.</desc>
<speed>2.620000</speed>
</trkpt>
<trkpt lat="55.767384" lon="26.024044">
<ele>154.482544</ele>
<time>2010-07-17T16:40:00Z</time>
<desc>lat.=55.767384, lon.=26.024044, Alt.=154.482544m. Speed=12.708000m/h.</desc>
<speed>3.530000</speed>
</trkpt>
<trkpt lat="55.767330" lon="26.024038">
<ele>154.763794</ele>
<time>2010-07-17T16:40:01Z</time>
<desc>lat.=55.767330, lon.=26.024038, Alt.=154.763794m. Speed=12.960000m/h.</desc>
<speed>3.600000</speed>
</trkpt>
<trkpt lat="55.767284" lon="26.024048">
<ele>155.494263</ele>
<time>2010-07-17T16:40:02Z</time>
<desc>lat.=55.767284, lon.=26.024048, Alt.=155.494263m. Speed=13.572000m/h.</desc>
<speed>3.770000</speed>
</trkpt>
<trkpt lat="55.767231" lon="26.024090">
<ele>155.505981</ele>
<time>2010-07-17T16:40:03Z</time>
<desc>lat.=55.767231, lon.=26.024090, Alt.=155.505981m. Speed=14.184000m/h.</desc>
<speed>3.940000</speed>
</trkpt>
<trkpt lat="55.767181" lon="26.024115">
<ele>155.498169</ele>
<time>2010-07-17T16:40:04Z</time>
<desc>lat.=55.767181, lon.=26.024115, Alt.=155.498169m. Speed=13.500000m/h.</desc>
<speed>3.750000</speed>
</trkpt>
<trkpt lat="55.767136" lon="26.024157">
<ele>155.720825</ele>
<time>2010-07-17T16:40:05Z</time>
<desc>lat.=55.767136, lon.=26.024157, Alt.=155.720825m. Speed=12.852000m/h.</desc>
<speed>3.570000</speed>
</trkpt>
<trkpt lat="55.767097" lon="26.024183">
<ele>156.084106</ele>
<time>2010-07-17T16:40:06Z</time>
<desc>lat.=55.767097, lon.=26.024183, Alt.=156.084106m. Speed=13.860000m/h.</desc>
<speed>3.850000</speed>
</trkpt>
<trkpt lat="55.767040" lon="26.024183">
<ele>154.693481</ele>
<time>2010-07-17T16:40:07Z</time>
<desc>lat.=55.767040, lon.=26.024183, Alt.=154.693481m. Speed=13.536000m/h.</desc>
<speed>3.760000</speed>
</trkpt>
<trkpt lat="55.766991" lon="26.024208">
<ele>154.627075</ele>
<time>2010-07-17T16:40:08Z</time>
<desc>lat.=55.766991, lon.=26.024208, Alt.=154.627075m. Speed=16.559999m/h.</desc>
<speed>4.600000</speed>
</trkpt>
<trkpt lat="55.766941" lon="26.024233">
<ele>155.158325</ele>
<time>2010-07-17T16:40:09Z</time>
<desc>lat.=55.766941, lon.=26.024233, Alt.=155.158325m. Speed=16.344000m/h.</desc>
<speed>4.540000</speed>
</trkpt>
<trkpt lat="55.766888" lon="26.024254">
<ele>155.029419</ele>
<time>2010-07-17T16:40:10Z</time>
<desc>lat.=55.766888, lon.=26.024254, Alt.=155.029419m. Speed=16.596001m/h.</desc>
<speed>4.610000</speed>
</trkpt>
<trkpt lat="55.766838" lon="26.024277">
<ele>155.197388</ele>
<time>2010-07-17T16:40:11Z</time>
<desc>lat.=55.766838, lon.=26.024277, Alt.=155.197388m. Speed=17.388000m/h.</desc>
<speed>4.830000</speed>
</trkpt>
<trkpt lat="55.766792" lon="26.024303">
<ele>155.435669</ele>
<time>2010-07-17T16:40:12Z</time>
<desc>lat.=55.766792, lon.=26.024303, Alt.=155.435669m. Speed=17.316000m/h.</desc>
<speed>4.810000</speed>
</trkpt>
<trkpt lat="55.766743" lon="26.024321">
<ele>155.295044</ele>
<time>2010-07-17T16:40:13Z</time>
<desc>lat.=55.766743, lon.=26.024321, Alt.=155.295044m. Speed=17.280001m/h.</desc>
<speed>4.800000</speed>
</trkpt>
<trkpt lat="55.766697" lon="26.024345">
<ele>155.556763</ele>
<time>2010-07-17T16:40:14Z</time>
<desc>lat.=55.766697, lon.=26.024345, Alt.=155.556763m. Speed=16.704000m/h.</desc>
<speed>4.640000</speed>
</trkpt>
<trkpt lat="55.766651" lon="26.024368">
<ele>156.029419</ele>
<time>2010-07-17T16:40:15Z</time>
<desc>lat.=55.766651, lon.=26.024368, Alt.=156.029419m. Speed=17.208000m/h.</desc>
<speed>4.780000</speed>
</trkpt>
<trkpt lat="55.766602" lon="26.024385">
<ele>156.853638</ele>
<time>2010-07-17T16:40:16Z</time>
<desc>lat.=55.766602, lon.=26.024385, Alt.=156.853638m. Speed=17.136000m/h.</desc>
<speed>4.760000</speed>
</trkpt>
<trkpt lat="55.766556" lon="26.024410">
<ele>156.970825</ele>
<time>2010-07-17T16:40:17Z</time>
<desc>lat.=55.766556, lon.=26.024410, Alt.=156.970825m. Speed=17.028000m/h.</desc>
<speed>4.730000</speed>
</trkpt>
<trkpt lat="55.766514" lon="26.024429">
<ele>157.287231</ele>
<time>2010-07-17T16:40:18Z</time>
<desc>lat.=55.766514, lon.=26.024429, Alt.=157.287231m. Speed=17.028000m/h.</desc>
<speed>4.730000</speed>
</trkpt>
<trkpt lat="55.766468" lon="26.024450">
<ele>157.545044</ele>
<time>2010-07-17T16:40:19Z</time>
<desc>lat.=55.766468, lon.=26.024450, Alt.=157.545044m. Speed=17.063999m/h.</desc>
<speed>4.740000</speed>
</trkpt>
<trkpt lat="55.766418" lon="26.024473">
<ele>157.548950</ele>
<time>2010-07-17T16:40:20Z</time>
<desc>lat.=55.766418, lon.=26.024473, Alt.=157.548950m. Speed=16.955999m/h.</desc>
<speed>4.710000</speed>
</trkpt>
<trkpt lat="55.766376" lon="26.024498">
<ele>157.783325</ele>
<time>2010-07-17T16:40:21Z</time>
<desc>lat.=55.766376, lon.=26.024498, Alt.=157.783325m. Speed=16.091999m/h.</desc>
<speed>4.470000</speed>
</trkpt>
<trkpt lat="55.766335" lon="26.024517">
<ele>158.283325</ele>
<time>2010-07-17T16:40:22Z</time>
<desc>lat.=55.766335, lon.=26.024517, Alt.=158.283325m. Speed=16.452000m/h.</desc>
<speed>4.570000</speed>
</trkpt>
<trkpt lat="55.766289" lon="26.024532">
<ele>158.798950</ele>
<time>2010-07-17T16:40:23Z</time>
<desc>lat.=55.766289, lon.=26.024532, Alt.=158.798950m. Speed=15.840000m/h.</desc>
<speed>4.400000</speed>
</trkpt>
<trkpt lat="55.766247" lon="26.024546">
<ele>159.095825</ele>
<time>2010-07-17T16:40:24Z</time>
<desc>lat.=55.766247, lon.=26.024546, Alt.=159.095825m. Speed=15.912000m/h.</desc>
<speed>4.420000</speed>
</trkpt>
<trkpt lat="55.766190" lon="26.024569">
<ele>158.619263</ele>
<time>2010-07-17T16:40:25Z</time>
<desc>lat.=55.766190, lon.=26.024569, Alt.=158.619263m. Speed=15.912000m/h.</desc>
<speed>4.420000</speed>
</trkpt>
<trkpt lat="55.766148" lon="26.024590">
<ele>158.857544</ele>
<time>2010-07-17T16:40:26Z</time>
<desc>lat.=55.766148, lon.=26.024590, Alt.=158.857544m. Speed=18.180000m/h.</desc>
<speed>5.050000</speed>
</trkpt>
<trkpt lat="55.766098" lon="26.024612">
<ele>159.228638</ele>
<time>2010-07-17T16:40:27Z</time>
<desc>lat.=55.766098, lon.=26.024612, Alt.=159.228638m. Speed=19.296000m/h.</desc>
<speed>5.360000</speed>
</trkpt>
<trkpt lat="55.766037" lon="26.024620">
<ele>158.798950</ele>
<time>2010-07-17T16:40:28Z</time>
<desc>lat.=55.766037, lon.=26.024620, Alt.=158.798950m. Speed=20.124001m/h.</desc>
<speed>5.590000</speed>
</trkpt>
<trkpt lat="55.765987" lon="26.024643">
<ele>159.392700</ele>
<time>2010-07-17T16:40:29Z</time>
<desc>lat.=55.765987, lon.=26.024643, Alt.=159.392700m. Speed=19.511999m/h.</desc>
<speed>5.420000</speed>
</trkpt>
<trkpt lat="55.765938" lon="26.024668">
<ele>159.744263</ele>
<time>2010-07-17T16:40:30Z</time>
<desc>lat.=55.765938, lon.=26.024668, Alt.=159.744263m. Speed=19.296000m/h.</desc>
<speed>5.360000</speed>
</trkpt>
<trkpt lat="55.765888" lon="26.024694">
<ele>159.838013</ele>
<time>2010-07-17T16:40:31Z</time>
<desc>lat.=55.765888, lon.=26.024694, Alt.=159.838013m. Speed=18.431999m/h.</desc>
<speed>5.120000</speed>
</trkpt>
<trkpt lat="55.765842" lon="26.024717">
<ele>160.005981</ele>
<time>2010-07-17T16:40:32Z</time>
<desc>lat.=55.765842, lon.=26.024717, Alt.=160.005981m. Speed=18.000000m/h.</desc>
<speed>5.000000</speed>
</trkpt>
<trkpt lat="55.765789" lon="26.024746">
<ele>160.162231</ele>
<time>2010-07-17T16:40:33Z</time>
<desc>lat.=55.765789, lon.=26.024746, Alt.=160.162231m. Speed=18.323999m/h.</desc>
<speed>5.090000</speed>
</trkpt>
<trkpt lat="55.765743" lon="26.024773">
<ele>160.599731</ele>
<time>2010-07-17T16:40:34Z</time>
<desc>lat.=55.765743, lon.=26.024773, Alt.=160.599731m. Speed=18.972000m/h.</desc>
<speed>5.270000</speed>
</trkpt>
<trkpt lat="55.765697" lon="26.024799">
<ele>160.963013</ele>
<time>2010-07-17T16:40:35Z</time>
<desc>lat.=55.765697, lon.=26.024799, Alt.=160.963013m. Speed=17.388000m/h.</desc>
<speed>4.830000</speed>
</trkpt>
<trkpt lat="55.765652" lon="26.024824">
<ele>161.545044</ele>
<time>2010-07-17T16:40:36Z</time>
<desc>lat.=55.765652, lon.=26.024824, Alt.=161.545044m. Speed=17.604000m/h.</desc>
<speed>4.890000</speed>
</trkpt>
<trkpt lat="55.765614" lon="26.024853">
<ele>161.802856</ele>
<time>2010-07-17T16:40:37Z</time>
<desc>lat.=55.765614, lon.=26.024853, Alt.=161.802856m. Speed=16.667999m/h.</desc>
<speed>4.630000</speed>
</trkpt>
<trkpt lat="55.765572" lon="26.024879">
<ele>161.978638</ele>
<time>2010-07-17T16:40:38Z</time>
<desc>lat.=55.765572, lon.=26.024879, Alt.=161.978638m. Speed=17.820000m/h.</desc>
<speed>4.950000</speed>
</trkpt>
<trkpt lat="55.765526" lon="26.024908">
<ele>162.037231</ele>
<time>2010-07-17T16:40:39Z</time>
<desc>lat.=55.765526, lon.=26.024908, Alt.=162.037231m. Speed=17.784000m/h.</desc>
<speed>4.940000</speed>
</trkpt>
<trkpt lat="55.765480" lon="26.024935">
<ele>161.990356</ele>
<time>2010-07-17T16:40:40Z</time>
<desc>lat.=55.765480, lon.=26.024935, Alt.=161.990356m. Speed=17.136000m/h.</desc>
<speed>4.760000</speed>
</trkpt>
<trkpt lat="55.765423" lon="26.024961">
<ele>162.064575</ele>
<time>2010-07-17T16:40:41Z</time>
<desc>lat.=55.765423, lon.=26.024961, Alt.=162.064575m. Speed=20.808001m/h.</desc>
<speed>5.780000</speed>
</trkpt>
<trkpt lat="55.765369" lon="26.024990">
<ele>162.545044</ele>
<time>2010-07-17T16:40:42Z</time>
<desc>lat.=55.765369, lon.=26.024990, Alt.=162.545044m. Speed=20.808001m/h.</desc>
<speed>5.780000</speed>
</trkpt>
<trkpt lat="55.765316" lon="26.025021">
<ele>163.045044</ele>
<time>2010-07-17T16:40:43Z</time>
<desc>lat.=55.765316, lon.=26.025021, Alt.=163.045044m. Speed=20.520000m/h.</desc>
<speed>5.700000</speed>
</trkpt>
<trkpt lat="55.765266" lon="26.025049">
<ele>163.556763</ele>
<time>2010-07-17T16:40:44Z</time>
<desc>lat.=55.765266, lon.=26.025049, Alt.=163.556763m. Speed=18.719999m/h.</desc>
<speed>5.200000</speed>
</trkpt>
<trkpt lat="55.765228" lon="26.025084">
<ele>163.650513</ele>
<time>2010-07-17T16:40:45Z</time>
<desc>lat.=55.765228, lon.=26.025084, Alt.=163.650513m. Speed=15.480000m/h.</desc>
<speed>4.300000</speed>
</trkpt>
<trkpt lat="55.765190" lon="26.025116">
<ele>163.689575</ele>
<time>2010-07-17T16:40:46Z</time>
<desc>lat.=55.765190, lon.=26.025116, Alt.=163.689575m. Speed=15.660000m/h.</desc>
<speed>4.350000</speed>
</trkpt>
<trkpt lat="55.765152" lon="26.025146">
<ele>163.904419</ele>
<time>2010-07-17T16:40:47Z</time>
<desc>lat.=55.765152, lon.=26.025146, Alt.=163.904419m. Speed=17.892000m/h.</desc>
<speed>4.970000</speed>
</trkpt>
<trkpt lat="55.765102" lon="26.025181">
<ele>163.974731</ele>
<time>2010-07-17T16:40:48Z</time>
<desc>lat.=55.765102, lon.=26.025181, Alt.=163.974731m. Speed=20.304001m/h.</desc>
<speed>5.640000</speed>
</trkpt>
<trkpt lat="55.765049" lon="26.025213">
<ele>164.130981</ele>
<time>2010-07-17T16:40:49Z</time>
<desc>lat.=55.765049, lon.=26.025213, Alt.=164.130981m. Speed=20.375999m/h.</desc>
<speed>5.660000</speed>
</trkpt>
<trkpt lat="55.764992" lon="26.025242">
<ele>164.162231</ele>
<time>2010-07-17T16:40:50Z</time>
<desc>lat.=55.764992, lon.=26.025242, Alt.=164.162231m. Speed=21.600000m/h.</desc>
<speed>6.000000</speed>
</trkpt>
<trkpt lat="55.764935" lon="26.025276">
<ele>164.380981</ele>
<time>2010-07-17T16:40:51Z</time>
<desc>lat.=55.764935, lon.=26.025276, Alt.=164.380981m. Speed=20.268000m/h.</desc>
<speed>5.630000</speed>
</trkpt>
<trkpt lat="55.764881" lon="26.025309">
<ele>164.560669</ele>
<time>2010-07-17T16:40:52Z</time>
<desc>lat.=55.764881, lon.=26.025309, Alt.=164.560669m. Speed=21.492001m/h.</desc>
<speed>5.970000</speed>
</trkpt>
<trkpt lat="55.764828" lon="26.025337">
<ele>164.783325</ele>
<time>2010-07-17T16:40:53Z</time>
<desc>lat.=55.764828, lon.=26.025337, Alt.=164.783325m. Speed=21.384001m/h.</desc>
<speed>5.940000</speed>
</trkpt>
<trkpt lat="55.764774" lon="26.025368">
<ele>164.912231</ele>
<time>2010-07-17T16:40:54Z</time>
<desc>lat.=55.764774, lon.=26.025368, Alt.=164.912231m. Speed=21.384001m/h.</desc>
<speed>5.940000</speed>
</trkpt>
<trkpt lat="55.764721" lon="26.025393">
<ele>164.978638</ele>
<time>2010-07-17T16:40:55Z</time>
<desc>lat.=55.764721, lon.=26.025393, Alt.=164.978638m. Speed=21.132000m/h.</desc>
<speed>5.870000</speed>
</trkpt>
<trkpt lat="55.764671" lon="26.025423">
<ele>164.943481</ele>
<time>2010-07-17T16:40:56Z</time>
<desc>lat.=55.764671, lon.=26.025423, Alt.=164.943481m. Speed=19.764000m/h.</desc>
<speed>5.490000</speed>
</trkpt>
<trkpt lat="55.764626" lon="26.025461">
<ele>164.931763</ele>
<time>2010-07-17T16:40:57Z</time>
<desc>lat.=55.764626, lon.=26.025461, Alt.=164.931763m. Speed=19.440001m/h.</desc>
<speed>5.400000</speed>
</trkpt>
<trkpt lat="55.764580" lon="26.025496">
<ele>164.865356</ele>
<time>2010-07-17T16:40:58Z</time>
<desc>lat.=55.764580, lon.=26.025496, Alt.=164.865356m. Speed=19.080000m/h.</desc>
<speed>5.300000</speed>
</trkpt>
<trkpt lat="55.764534" lon="26.025532">
<ele>164.752075</ele>
<time>2010-07-17T16:40:59Z</time>
<desc>lat.=55.764534, lon.=26.025532, Alt.=164.752075m. Speed=18.000000m/h.</desc>
<speed>5.000000</speed>
</trkpt>
<trkpt lat="55.764492" lon="26.025566">
<ele>164.615356</ele>
<time>2010-07-17T16:41:00Z</time>
<desc>lat.=55.764492, lon.=26.025566, Alt.=164.615356m. Speed=17.856001m/h.</desc>
<speed>4.960000</speed>
</trkpt>
<trkpt lat="55.764446" lon="26.025602">
<ele>164.470825</ele>
<time>2010-07-17T16:41:01Z</time>
<desc>lat.=55.764446, lon.=26.025602, Alt.=164.470825m. Speed=18.143999m/h.</desc>
<speed>5.040000</speed>
</trkpt>
<trkpt lat="55.764400" lon="26.025629">
<ele>164.326294</ele>
<time>2010-07-17T16:41:02Z</time>
<desc>lat.=55.764400, lon.=26.025629, Alt.=164.326294m. Speed=19.080000m/h.</desc>
<speed>5.300000</speed>
</trkpt>
<trkpt lat="55.764351" lon="26.025663">
<ele>164.228638</ele>
<time>2010-07-17T16:41:03Z</time>
<desc>lat.=55.764351, lon.=26.025663, Alt.=164.228638m. Speed=19.764000m/h.</desc>
<speed>5.490000</speed>
</trkpt>
<trkpt lat="55.764309" lon="26.025692">
<ele>164.181763</ele>
<time>2010-07-17T16:41:04Z</time>
<desc>lat.=55.764309, lon.=26.025692, Alt.=164.181763m. Speed=18.756001m/h.</desc>
<speed>5.210000</speed>
</trkpt>
<trkpt lat="55.764263" lon="26.025724">
<ele>164.056763</ele>
<time>2010-07-17T16:41:05Z</time>
<desc>lat.=55.764263, lon.=26.025724, Alt.=164.056763m. Speed=19.872000m/h.</desc>
<speed>5.520000</speed>
</trkpt>
<trkpt lat="55.764221" lon="26.025764">
<ele>163.963013</ele>
<time>2010-07-17T16:41:06Z</time>
<desc>lat.=55.764221, lon.=26.025764, Alt.=163.963013m. Speed=19.764000m/h.</desc>
<speed>5.490000</speed>
</trkpt>
<trkpt lat="55.764175" lon="26.025799">
<ele>163.853638</ele>
<time>2010-07-17T16:41:07Z</time>
<desc>lat.=55.764175, lon.=26.025799, Alt.=163.853638m. Speed=19.584000m/h.</desc>
<speed>5.440000</speed>
</trkpt>
<trkpt lat="55.764133" lon="26.025835">
<ele>163.740356</ele>
<time>2010-07-17T16:41:08Z</time>
<desc>lat.=55.764133, lon.=26.025835, Alt.=163.740356m. Speed=20.483999m/h.</desc>
<speed>5.690000</speed>
</trkpt>
<trkpt lat="55.764084" lon="26.025873">
<ele>163.556763</ele>
<time>2010-07-17T16:41:09Z</time>
<desc>lat.=55.764084, lon.=26.025873, Alt.=163.556763m. Speed=21.096001m/h.</desc>
<speed>5.860000</speed>
</trkpt>
<trkpt lat="55.764038" lon="26.025911">
<ele>163.310669</ele>
<time>2010-07-17T16:41:10Z</time>
<desc>lat.=55.764038, lon.=26.025911, Alt.=163.310669m. Speed=20.556000m/h.</desc>
<speed>5.710000</speed>
</trkpt>
<trkpt lat="55.763969" lon="26.025911">
<ele>162.564575</ele>
<time>2010-07-17T16:41:11Z</time>
<desc>lat.=55.763969, lon.=26.025911, Alt.=162.564575m. Speed=20.916000m/h.</desc>
<speed>5.810000</speed>
</trkpt>
<trkpt lat="55.763920" lon="26.025928">
<ele>162.892700</ele>
<time>2010-07-17T16:41:12Z</time>
<desc>lat.=55.763920, lon.=26.025928, Alt.=162.892700m. Speed=20.988001m/h.</desc>
<speed>5.830000</speed>
</trkpt>
<trkpt lat="55.763870" lon="26.025965">
<ele>162.763794</ele>
<time>2010-07-17T16:41:13Z</time>
<desc>lat.=55.763870, lon.=26.025965, Alt.=162.763794m. Speed=22.535999m/h.</desc>
<speed>6.260000</speed>
</trkpt>
<trkpt lat="55.763821" lon="26.026003">
<ele>162.330200</ele>
<time>2010-07-17T16:41:14Z</time>
<desc>lat.=55.763821, lon.=26.026003, Alt.=162.330200m. Speed=21.455999m/h.</desc>
<speed>5.960000</speed>
</trkpt>
<trkpt lat="55.763771" lon="26.026039">
<ele>162.068481</ele>
<time>2010-07-17T16:41:15Z</time>
<desc>lat.=55.763771, lon.=26.026039, Alt.=162.068481m. Speed=22.643999m/h.</desc>
<speed>6.290000</speed>
</trkpt>
<trkpt lat="55.763718" lon="26.026073">
<ele>161.802856</ele>
<time>2010-07-17T16:41:16Z</time>
<desc>lat.=55.763718, lon.=26.026073, Alt.=161.802856m. Speed=23.040001m/h.</desc>
<speed>6.400000</speed>
</trkpt>
<trkpt lat="55.763664" lon="26.026110">
<ele>161.478638</ele>
<time>2010-07-17T16:41:17Z</time>
<desc>lat.=55.763664, lon.=26.026110, Alt.=161.478638m. Speed=23.256001m/h.</desc>
<speed>6.460000</speed>
</trkpt>
<trkpt lat="55.763607" lon="26.026150">
<ele>161.154419</ele>
<time>2010-07-17T16:41:18Z</time>
<desc>lat.=55.763607, lon.=26.026150, Alt.=161.154419m. Speed=22.535999m/h.</desc>
<speed>6.260000</speed>
</trkpt>
<trkpt lat="55.763557" lon="26.026209">
<ele>160.865356</ele>
<time>2010-07-17T16:41:19Z</time>
<desc>lat.=55.763557, lon.=26.026209, Alt.=160.865356m. Speed=21.851999m/h.</desc>
<speed>6.070000</speed>
</trkpt>
<trkpt lat="55.763508" lon="26.026251">
<ele>160.873169</ele>
<time>2010-07-17T16:41:20Z</time>
<desc>lat.=55.763508, lon.=26.026251, Alt.=160.873169m. Speed=22.356001m/h.</desc>
<speed>6.210000</speed>
</trkpt>
<trkpt lat="55.763451" lon="26.026285">
<ele>160.814575</ele>
<time>2010-07-17T16:41:21Z</time>
<desc>lat.=55.763451, lon.=26.026285, Alt.=160.814575m. Speed=22.284000m/h.</desc>
<speed>6.190000</speed>
</trkpt>
<trkpt lat="55.763393" lon="26.026323">
<ele>160.806763</ele>
<time>2010-07-17T16:41:22Z</time>
<desc>lat.=55.763393, lon.=26.026323, Alt.=160.806763m. Speed=22.068001m/h.</desc>
<speed>6.130000</speed>
</trkpt>
<trkpt lat="55.763332" lon="26.026354">
<ele>160.662231</ele>
<time>2010-07-17T16:41:23Z</time>
<desc>lat.=55.763332, lon.=26.026354, Alt.=160.662231m. Speed=23.004000m/h.</desc>
<speed>6.390000</speed>
</trkpt>
<trkpt lat="55.763279" lon="26.026381">
<ele>160.572388</ele>
<time>2010-07-17T16:41:24Z</time>
<desc>lat.=55.763279, lon.=26.026381, Alt.=160.572388m. Speed=22.788000m/h.</desc>
<speed>6.330000</speed>
</trkpt>
<trkpt lat="55.763226" lon="26.026398">
<ele>160.408325</ele>
<time>2010-07-17T16:41:25Z</time>
<desc>lat.=55.763226, lon.=26.026398, Alt.=160.408325m. Speed=21.420000m/h.</desc>
<speed>5.950000</speed>
</trkpt>
<trkpt lat="55.763172" lon="26.026430">
<ele>160.330200</ele>
<time>2010-07-17T16:41:26Z</time>
<desc>lat.=55.763172, lon.=26.026430, Alt.=160.330200m. Speed=22.500000m/h.</desc>
<speed>6.250000</speed>
</trkpt>
<trkpt lat="55.763119" lon="26.026461">
<ele>160.115356</ele>
<time>2010-07-17T16:41:27Z</time>
<desc>lat.=55.763119, lon.=26.026461, Alt.=160.115356m. Speed=22.320000m/h.</desc>
<speed>6.200000</speed>
</trkpt>
<trkpt lat="55.763008" lon="26.026485">
<ele>156.615356</ele>
<time>2010-07-17T16:41:28Z</time>
<desc>lat.=55.763008, lon.=26.026485, Alt.=156.615356m. Speed=21.959999m/h.</desc>
<speed>6.100000</speed>
</trkpt>
<trkpt lat="55.762905" lon="26.026516">
<ele>153.259888</ele>
<time>2010-07-17T16:41:29Z</time>
<desc>lat.=55.762905, lon.=26.026516, Alt.=153.259888m. Speed=22.068001m/h.</desc>
<speed>6.130000</speed>
</trkpt>
<trkpt lat="55.762844" lon="26.026546">
<ele>152.564575</ele>
<time>2010-07-17T16:41:30Z</time>
<desc>lat.=55.762844, lon.=26.026546, Alt.=152.564575m. Speed=21.384001m/h.</desc>
<speed>5.940000</speed>
</trkpt>
<trkpt lat="55.762779" lon="26.026571">
<ele>151.525513</ele>
<time>2010-07-17T16:41:31Z</time>
<desc>lat.=55.762779, lon.=26.026571, Alt.=151.525513m. Speed=22.392000m/h.</desc>
<speed>6.220000</speed>
</trkpt>
<trkpt lat="55.762718" lon="26.026600">
<ele>151.216919</ele>
<time>2010-07-17T16:41:32Z</time>
<desc>lat.=55.762718, lon.=26.026600, Alt.=151.216919m. Speed=22.500000m/h.</desc>
<speed>6.250000</speed>
</trkpt>
<trkpt lat="55.762661" lon="26.026627">
<ele>151.029419</ele>
<time>2010-07-17T16:41:33Z</time>
<desc>lat.=55.762661, lon.=26.026627, Alt.=151.029419m. Speed=21.240000m/h.</desc>
<speed>5.900000</speed>
</trkpt>
<trkpt lat="55.762604" lon="26.026651">
<ele>150.861450</ele>
<time>2010-07-17T16:41:34Z</time>
<desc>lat.=55.762604, lon.=26.026651, Alt.=150.861450m. Speed=21.275999m/h.</desc>
<speed>5.910000</speed>
</trkpt>
<trkpt lat="55.762554" lon="26.026676">
<ele>150.955200</ele>
<time>2010-07-17T16:41:35Z</time>
<desc>lat.=55.762554, lon.=26.026676, Alt.=150.955200m. Speed=20.412001m/h.</desc>
<speed>5.670000</speed>
</trkpt>
<trkpt lat="55.762497" lon="26.026697">
<ele>151.201294</ele>
<time>2010-07-17T16:41:36Z</time>
<desc>lat.=55.762497, lon.=26.026697, Alt.=151.201294m. Speed=20.952000m/h.</desc>
<speed>5.820000</speed>
</trkpt>
<trkpt lat="55.762436" lon="26.026722">
<ele>151.416138</ele>
<time>2010-07-17T16:41:37Z</time>
<desc>lat.=55.762436, lon.=26.026722, Alt.=151.416138m. Speed=21.672001m/h.</desc>
<speed>6.020000</speed>
</trkpt>
<trkpt lat="55.762383" lon="26.026737">
<ele>151.576294</ele>
<time>2010-07-17T16:41:38Z</time>
<desc>lat.=55.762383, lon.=26.026737, Alt.=151.576294m. Speed=21.492001m/h.</desc>
<speed>5.970000</speed>
</trkpt>
<trkpt lat="55.762325" lon="26.026756">
<ele>151.638794</ele>
<time>2010-07-17T16:41:39Z</time>
<desc>lat.=55.762325, lon.=26.026756, Alt.=151.638794m. Speed=21.528000m/h.</desc>
<speed>5.980000</speed>
</trkpt>
<trkpt lat="55.762268" lon="26.026772">
<ele>151.525513</ele>
<time>2010-07-17T16:41:40Z</time>
<desc>lat.=55.762268, lon.=26.026772, Alt.=151.525513m. Speed=21.420000m/h.</desc>
<speed>5.950000</speed>
</trkpt>
<trkpt lat="55.762215" lon="26.026770">
<ele>151.673950</ele>
<time>2010-07-17T16:41:41Z</time>
<desc>lat.=55.762215, lon.=26.026770, Alt.=151.673950m. Speed=21.240000m/h.</desc>
<speed>5.900000</speed>
</trkpt>
<trkpt lat="55.762157" lon="26.026783">
<ele>151.931763</ele>
<time>2010-07-17T16:41:42Z</time>
<desc>lat.=55.762157, lon.=26.026783, Alt.=151.931763m. Speed=21.708000m/h.</desc>
<speed>6.030000</speed>
</trkpt>
<trkpt lat="55.762096" lon="26.026791">
<ele>152.033325</ele>
<time>2010-07-17T16:41:43Z</time>
<desc>lat.=55.762096, lon.=26.026791, Alt.=152.033325m. Speed=21.384001m/h.</desc>
<speed>5.940000</speed>
</trkpt>
<trkpt lat="55.762039" lon="26.026802">
<ele>151.963013</ele>
<time>2010-07-17T16:41:44Z</time>
<desc>lat.=55.762039, lon.=26.026802, Alt.=151.963013m. Speed=21.528000m/h.</desc>
<speed>5.980000</speed>
</trkpt>
<trkpt lat="55.761986" lon="26.026806">
<ele>152.064575</ele>
<time>2010-07-17T16:41:45Z</time>
<desc>lat.=55.761986, lon.=26.026806, Alt.=152.064575m. Speed=21.816000m/h.</desc>
<speed>6.060000</speed>
</trkpt>
<trkpt lat="55.761929" lon="26.026812">
<ele>152.248169</ele>
<time>2010-07-17T16:41:46Z</time>
<desc>lat.=55.761929, lon.=26.026812, Alt.=152.248169m. Speed=21.743999m/h.</desc>
<speed>6.040000</speed>
</trkpt>
<trkpt lat="55.761879" lon="26.026810">
<ele>152.080200</ele>
<time>2010-07-17T16:41:47Z</time>
<desc>lat.=55.761879, lon.=26.026810, Alt.=152.080200m. Speed=21.132000m/h.</desc>
<speed>5.870000</speed>
</trkpt>
<trkpt lat="55.761826" lon="26.026794">
<ele>152.400513</ele>
<time>2010-07-17T16:41:48Z</time>
<desc>lat.=55.761826, lon.=26.026794, Alt.=152.400513m. Speed=21.888000m/h.</desc>
<speed>6.080000</speed>
</trkpt>
<trkpt lat="55.761768" lon="26.026785">
<ele>152.408325</ele>
<time>2010-07-17T16:41:49Z</time>
<desc>lat.=55.761768, lon.=26.026785, Alt.=152.408325m. Speed=22.176001m/h.</desc>
<speed>6.160000</speed>
</trkpt>
<trkpt lat="55.761707" lon="26.026779">
<ele>152.470825</ele>
<time>2010-07-17T16:41:50Z</time>
<desc>lat.=55.761707, lon.=26.026779, Alt.=152.470825m. Speed=23.796000m/h.</desc>
<speed>6.610000</speed>
</trkpt>
<trkpt lat="55.761642" lon="26.026773">
<ele>152.373169</ele>
<time>2010-07-17T16:41:51Z</time>
<desc>lat.=55.761642, lon.=26.026773, Alt.=152.373169m. Speed=26.100000m/h.</desc>
<speed>7.250000</speed>
</trkpt>
<trkpt lat="55.761578" lon="26.026758">
<ele>152.162231</ele>
<time>2010-07-17T16:41:52Z</time>
<desc>lat.=55.761578, lon.=26.026758, Alt.=152.162231m. Speed=25.812000m/h.</desc>
<speed>7.170000</speed>
</trkpt>
<trkpt lat="55.761509" lon="26.026749">
<ele>152.392700</ele>
<time>2010-07-17T16:41:53Z</time>
<desc>lat.=55.761509, lon.=26.026749, Alt.=152.392700m. Speed=25.848000m/h.</desc>
<speed>7.180000</speed>
</trkpt>
<trkpt lat="55.761440" lon="26.026733">
<ele>152.478638</ele>
<time>2010-07-17T16:41:54Z</time>
<desc>lat.=55.761440, lon.=26.026733, Alt.=152.478638m. Speed=25.920000m/h.</desc>
<speed>7.200000</speed>
</trkpt>
<trkpt lat="55.761372" lon="26.026718">
<ele>152.634888</ele>
<time>2010-07-17T16:41:55Z</time>
<desc>lat.=55.761372, lon.=26.026718, Alt.=152.634888m. Speed=25.704000m/h.</desc>
<speed>7.140000</speed>
</trkpt>
<trkpt lat="55.761311" lon="26.026699">
<ele>152.888794</ele>
<time>2010-07-17T16:41:56Z</time>
<desc>lat.=55.761311, lon.=26.026699, Alt.=152.888794m. Speed=25.596001m/h.</desc>
<speed>7.110000</speed>
</trkpt>
<trkpt lat="55.761250" lon="26.026680">
<ele>153.197388</ele>
<time>2010-07-17T16:41:57Z</time>
<desc>lat.=55.761250, lon.=26.026680, Alt.=153.197388m. Speed=24.191999m/h.</desc>
<speed>6.720000</speed>
</trkpt>
<trkpt lat="55.761189" lon="26.026657">
<ele>153.986450</ele>
<time>2010-07-17T16:41:58Z</time>
<desc>lat.=55.761189, lon.=26.026657, Alt.=153.986450m. Speed=23.219999m/h.</desc>
<speed>6.450000</speed>
</trkpt>
<trkpt lat="55.761135" lon="26.026638">
<ele>154.650513</ele>
<time>2010-07-17T16:41:59Z</time>
<desc>lat.=55.761135, lon.=26.026638, Alt.=154.650513m. Speed=21.348000m/h.</desc>
<speed>5.930000</speed>
</trkpt>
<trkpt lat="55.761078" lon="26.026608">
<ele>155.420044</ele>
<time>2010-07-17T16:42:00Z</time>
<desc>lat.=55.761078, lon.=26.026608, Alt.=155.420044m. Speed=23.832001m/h.</desc>
<speed>6.620000</speed>
</trkpt>
<trkpt lat="55.761017" lon="26.026585">
<ele>155.834106</ele>
<time>2010-07-17T16:42:01Z</time>
<desc>lat.=55.761017, lon.=26.026585, Alt.=155.834106m. Speed=23.256001m/h.</desc>
<speed>6.460000</speed>
</trkpt>
<trkpt lat="55.760963" lon="26.026558">
<ele>156.064575</ele>
<time>2010-07-17T16:42:02Z</time>
<desc>lat.=55.760963, lon.=26.026558, Alt.=156.064575m. Speed=21.743999m/h.</desc>
<speed>6.040000</speed>
</trkpt>
<trkpt lat="55.760914" lon="26.026529">
<ele>156.908325</ele>
<time>2010-07-17T16:42:03Z</time>
<desc>lat.=55.760914, lon.=26.026529, Alt.=156.908325m. Speed=21.240000m/h.</desc>
<speed>5.900000</speed>
</trkpt>
<trkpt lat="55.760860" lon="26.026501">
<ele>158.091919</ele>
<time>2010-07-17T16:42:04Z</time>
<desc>lat.=55.760860, lon.=26.026501, Alt.=158.091919m. Speed=21.348000m/h.</desc>
<speed>5.930000</speed>
</trkpt>
<trkpt lat="55.760811" lon="26.026463">
<ele>158.744263</ele>
<time>2010-07-17T16:42:05Z</time>
<desc>lat.=55.760811, lon.=26.026463, Alt.=158.744263m. Speed=20.195999m/h.</desc>
<speed>5.610000</speed>
</trkpt>
<trkpt lat="55.760757" lon="26.026430">
<ele>159.802856</ele>
<time>2010-07-17T16:42:06Z</time>
<desc>lat.=55.760757, lon.=26.026430, Alt.=159.802856m. Speed=19.620001m/h.</desc>
<speed>5.450000</speed>
</trkpt>
<trkpt lat="55.760715" lon="26.026394">
<ele>159.736450</ele>
<time>2010-07-17T16:42:07Z</time>
<desc>lat.=55.760715, lon.=26.026394, Alt.=159.736450m. Speed=19.476000m/h.</desc>
<speed>5.410000</speed>
</trkpt>
<trkpt lat="55.760670" lon="26.026352">
<ele>160.025513</ele>
<time>2010-07-17T16:42:08Z</time>
<desc>lat.=55.760670, lon.=26.026352, Alt.=160.025513m. Speed=21.167999m/h.</desc>
<speed>5.880000</speed>
</trkpt>
<trkpt lat="55.760624" lon="26.026310">
<ele>160.338013</ele>
<time>2010-07-17T16:42:09Z</time>
<desc>lat.=55.760624, lon.=26.026310, Alt.=160.338013m. Speed=19.476000m/h.</desc>
<speed>5.410000</speed>
</trkpt>
<trkpt lat="55.760582" lon="26.026268">
<ele>160.584106</ele>
<time>2010-07-17T16:42:10Z</time>
<desc>lat.=55.760582, lon.=26.026268, Alt.=160.584106m. Speed=20.232000m/h.</desc>
<speed>5.620000</speed>
</trkpt>
<trkpt lat="55.760532" lon="26.026222">
<ele>160.638794</ele>
<time>2010-07-17T16:42:11Z</time>
<desc>lat.=55.760532, lon.=26.026222, Alt.=160.638794m. Speed=19.872000m/h.</desc>
<speed>5.520000</speed>
</trkpt>
<trkpt lat="55.760487" lon="26.026178">
<ele>160.787231</ele>
<time>2010-07-17T16:42:12Z</time>
<desc>lat.=55.760487, lon.=26.026178, Alt.=160.787231m. Speed=18.252001m/h.</desc>
<speed>5.070000</speed>
</trkpt>
<trkpt lat="55.760441" lon="26.026133">
<ele>161.076294</ele>
<time>2010-07-17T16:42:13Z</time>
<desc>lat.=55.760441, lon.=26.026133, Alt.=161.076294m. Speed=18.612000m/h.</desc>
<speed>5.170000</speed>
</trkpt>
<trkpt lat="55.760395" lon="26.026081">
<ele>161.709106</ele>
<time>2010-07-17T16:42:14Z</time>
<desc>lat.=55.760395, lon.=26.026081, Alt.=161.709106m. Speed=19.944000m/h.</desc>
<speed>5.540000</speed>
</trkpt>
<trkpt lat="55.760349" lon="26.026033">
<ele>162.123169</ele>
<time>2010-07-17T16:42:15Z</time>
<desc>lat.=55.760349, lon.=26.026033, Alt.=162.123169m. Speed=19.980000m/h.</desc>
<speed>5.550000</speed>
</trkpt>
<trkpt lat="55.760307" lon="26.025978">
<ele>162.099731</ele>
<time>2010-07-17T16:42:16Z</time>
<desc>lat.=55.760307, lon.=26.025978, Alt.=162.099731m. Speed=19.044001m/h.</desc>
<speed>5.290000</speed>
</trkpt>
<trkpt lat="55.760269" lon="26.025927">
<ele>162.271606</ele>
<time>2010-07-17T16:42:17Z</time>
<desc>lat.=55.760269, lon.=26.025927, Alt.=162.271606m. Speed=19.115999m/h.</desc>
<speed>5.310000</speed>
</trkpt>
<trkpt lat="55.760235" lon="26.025877">
<ele>162.310669</ele>
<time>2010-07-17T16:42:18Z</time>
<desc>lat.=55.760235, lon.=26.025877, Alt.=162.310669m. Speed=18.540001m/h.</desc>
<speed>5.150000</speed>
</trkpt>
<trkpt lat="55.760197" lon="26.025826">
<ele>162.806763</ele>
<time>2010-07-17T16:42:19Z</time>
<desc>lat.=55.760197, lon.=26.025826, Alt.=162.806763m. Speed=18.468000m/h.</desc>
<speed>5.130000</speed>
</trkpt>
<trkpt lat="55.760159" lon="26.025772">
<ele>163.255981</ele>
<time>2010-07-17T16:42:20Z</time>
<desc>lat.=55.760159, lon.=26.025772, Alt.=163.255981m. Speed=18.323999m/h.</desc>
<speed>5.090000</speed>
</trkpt>
<trkpt lat="55.760132" lon="26.025721">
<ele>162.947388</ele>
<time>2010-07-17T16:42:21Z</time>
<desc>lat.=55.760132, lon.=26.025721, Alt.=162.947388m. Speed=17.028000m/h.</desc>
<speed>4.730000</speed>
</trkpt>
<trkpt lat="55.760101" lon="26.025673">
<ele>163.095825</ele>
<time>2010-07-17T16:42:22Z</time>
<desc>lat.=55.760101, lon.=26.025673, Alt.=163.095825m. Speed=17.063999m/h.</desc>
<speed>4.740000</speed>
</trkpt>
<trkpt lat="55.760063" lon="26.025629">
<ele>163.490356</ele>
<time>2010-07-17T16:42:23Z</time>
<desc>lat.=55.760063, lon.=26.025629, Alt.=163.490356m. Speed=16.524000m/h.</desc>
<speed>4.590000</speed>
</trkpt>
<trkpt lat="55.760029" lon="26.025579">
<ele>164.025513</ele>
<time>2010-07-17T16:42:24Z</time>
<desc>lat.=55.760029, lon.=26.025579, Alt.=164.025513m. Speed=18.900000m/h.</desc>
<speed>5.250000</speed>
</trkpt>
<trkpt lat="55.759991" lon="26.025539">
<ele>164.584106</ele>
<time>2010-07-17T16:42:25Z</time>
<desc>lat.=55.759991, lon.=26.025539, Alt.=164.584106m. Speed=17.676001m/h.</desc>
<speed>4.910000</speed>
</trkpt>
<trkpt lat="55.759960" lon="26.025494">
<ele>164.849731</ele>
<time>2010-07-17T16:42:26Z</time>
<desc>lat.=55.759960, lon.=26.025494, Alt.=164.849731m. Speed=17.243999m/h.</desc>
<speed>4.790000</speed>
</trkpt>
<trkpt lat="55.759926" lon="26.025450">
<ele>165.209106</ele>
<time>2010-07-17T16:42:27Z</time>
<desc>lat.=55.759926, lon.=26.025450, Alt.=165.209106m. Speed=18.180000m/h.</desc>
<speed>5.050000</speed>
</trkpt>
<trkpt lat="55.759892" lon="26.025394">
<ele>165.658325</ele>
<time>2010-07-17T16:42:28Z</time>
<desc>lat.=55.759892, lon.=26.025394, Alt.=165.658325m. Speed=18.827999m/h.</desc>
<speed>5.230000</speed>
</trkpt>
<trkpt lat="55.759861" lon="26.025345">
<ele>166.334106</ele>
<time>2010-07-17T16:42:29Z</time>
<desc>lat.=55.759861, lon.=26.025345, Alt.=166.334106m. Speed=17.243999m/h.</desc>
<speed>4.790000</speed>
</trkpt>
<trkpt lat="55.759834" lon="26.025291">
<ele>166.666138</ele>
<time>2010-07-17T16:42:30Z</time>
<desc>lat.=55.759834, lon.=26.025291, Alt.=166.666138m. Speed=15.552000m/h.</desc>
<speed>4.320000</speed>
</trkpt>
<trkpt lat="55.759808" lon="26.025242">
<ele>166.896606</ele>
<time>2010-07-17T16:42:31Z</time>
<desc>lat.=55.759808, lon.=26.025242, Alt.=166.896606m. Speed=14.724000m/h.</desc>
<speed>4.090000</speed>
</trkpt>
<trkpt lat="55.759781" lon="26.025194">
<ele>167.205200</ele>
<time>2010-07-17T16:42:32Z</time>
<desc>lat.=55.759781, lon.=26.025194, Alt.=167.205200m. Speed=14.148000m/h.</desc>
<speed>3.930000</speed>
</trkpt>
<trkpt lat="55.759758" lon="26.025152">
<ele>167.177856</ele>
<time>2010-07-17T16:42:33Z</time>
<desc>lat.=55.759758, lon.=26.025152, Alt.=167.177856m. Speed=11.448000m/h.</desc>
<speed>3.180000</speed>
</trkpt>
<trkpt lat="55.759731" lon="26.025126">
<ele>166.966919</ele>
<time>2010-07-17T16:42:34Z</time>
<desc>lat.=55.759731, lon.=26.025126, Alt.=166.966919m. Speed=12.600000m/h.</desc>
<speed>3.500000</speed>
</trkpt>
<trkpt lat="55.759701" lon="26.025089">
<ele>167.064575</ele>
<time>2010-07-17T16:42:35Z</time>
<desc>lat.=55.759701, lon.=26.025089, Alt.=167.064575m. Speed=13.356000m/h.</desc>
<speed>3.710000</speed>
</trkpt>
<trkpt lat="55.759670" lon="26.025051">
<ele>166.900513</ele>
<time>2010-07-17T16:42:36Z</time>
<desc>lat.=55.759670, lon.=26.025051, Alt.=166.900513m. Speed=13.680000m/h.</desc>
<speed>3.800000</speed>
</trkpt>
<trkpt lat="55.759647" lon="26.025011">
<ele>166.974731</ele>
<time>2010-07-17T16:42:37Z</time>
<desc>lat.=55.759647, lon.=26.025011, Alt.=166.974731m. Speed=12.492000m/h.</desc>
<speed>3.470000</speed>
</trkpt>
<trkpt lat="55.759624" lon="26.024973">
<ele>167.048950</ele>
<time>2010-07-17T16:42:38Z</time>
<desc>lat.=55.759624, lon.=26.024973, Alt.=167.048950m. Speed=12.204000m/h.</desc>
<speed>3.390000</speed>
</trkpt>
<trkpt lat="55.759598" lon="26.024933">
<ele>167.349731</ele>
<time>2010-07-17T16:42:39Z</time>
<desc>lat.=55.759598, lon.=26.024933, Alt.=167.349731m. Speed=13.680000m/h.</desc>
<speed>3.800000</speed>
</trkpt>
<trkpt lat="55.759575" lon="26.024895">
<ele>167.521606</ele>
<time>2010-07-17T16:42:40Z</time>
<desc>lat.=55.759575, lon.=26.024895, Alt.=167.521606m. Speed=13.500000m/h.</desc>
<speed>3.750000</speed>
</trkpt>
<trkpt lat="55.759548" lon="26.024851">
<ele>167.767700</ele>
<time>2010-07-17T16:42:41Z</time>
<desc>lat.=55.759548, lon.=26.024851, Alt.=167.767700m. Speed=14.760000m/h.</desc>
<speed>4.100000</speed>
</trkpt>
<trkpt lat="55.759518" lon="26.024817">
<ele>167.650513</ele>
<time>2010-07-17T16:42:42Z</time>
<desc>lat.=55.759518, lon.=26.024817, Alt.=167.650513m. Speed=13.140000m/h.</desc>
<speed>3.650000</speed>
</trkpt>
<trkpt lat="55.759495" lon="26.024773">
<ele>167.517700</ele>
<time>2010-07-17T16:42:43Z</time>
<desc>lat.=55.759495, lon.=26.024773, Alt.=167.517700m. Speed=14.436000m/h.</desc>
<speed>4.010000</speed>
</trkpt>
<trkpt lat="55.759468" lon="26.024733">
<ele>167.361450</ele>
<time>2010-07-17T16:42:44Z</time>
<desc>lat.=55.759468, lon.=26.024733, Alt.=167.361450m. Speed=13.320000m/h.</desc>
<speed>3.700000</speed>
</trkpt>
<trkpt lat="55.759445" lon="26.024696">
<ele>167.447388</ele>
<time>2010-07-17T16:42:45Z</time>
<desc>lat.=55.759445, lon.=26.024696, Alt.=167.447388m. Speed=11.916000m/h.</desc>
<speed>3.310000</speed>
</trkpt>
<trkpt lat="55.759422" lon="26.024658">
<ele>167.541138</ele>
<time>2010-07-17T16:42:46Z</time>
<desc>lat.=55.759422, lon.=26.024658, Alt.=167.541138m. Speed=12.564000m/h.</desc>
<speed>3.490000</speed>
</trkpt>
<trkpt lat="55.759399" lon="26.024616">
<ele>167.580200</ele>
<time>2010-07-17T16:42:47Z</time>
<desc>lat.=55.759399, lon.=26.024616, Alt.=167.580200m. Speed=12.276000m/h.</desc>
<speed>3.410000</speed>
</trkpt>
<trkpt lat="55.759380" lon="26.024584">
<ele>167.607544</ele>
<time>2010-07-17T16:42:48Z</time>
<desc>lat.=55.759380, lon.=26.024584, Alt.=167.607544m. Speed=13.356000m/h.</desc>
<speed>3.710000</speed>
</trkpt>
<trkpt lat="55.759354" lon="26.024548">
<ele>167.670044</ele>
<time>2010-07-17T16:42:49Z</time>
<desc>lat.=55.759354, lon.=26.024548, Alt.=167.670044m. Speed=11.916000m/h.</desc>
<speed>3.310000</speed>
</trkpt>
<trkpt lat="55.759335" lon="26.024511">
<ele>167.873169</ele>
<time>2010-07-17T16:42:50Z</time>
<desc>lat.=55.759335, lon.=26.024511, Alt.=167.873169m. Speed=11.664000m/h.</desc>
<speed>3.240000</speed>
</trkpt>
<trkpt lat="55.759312" lon="26.024469">
<ele>168.154419</ele>
<time>2010-07-17T16:42:51Z</time>
<desc>lat.=55.759312, lon.=26.024469, Alt.=168.154419m. Speed=13.176000m/h.</desc>
<speed>3.660000</speed>
</trkpt>
<trkpt lat="55.759281" lon="26.024422">
<ele>168.591919</ele>
<time>2010-07-17T16:42:52Z</time>
<desc>lat.=55.759281, lon.=26.024422, Alt.=168.591919m. Speed=13.860000m/h.</desc>
<speed>3.850000</speed>
</trkpt>
<trkpt lat="55.759258" lon="26.024364">
<ele>169.314575</ele>
<time>2010-07-17T16:42:53Z</time>
<desc>lat.=55.759258, lon.=26.024364, Alt.=169.314575m. Speed=14.112000m/h.</desc>
<speed>3.920000</speed>
</trkpt>
<trkpt lat="55.759235" lon="26.024328">
<ele>169.841919</ele>
<time>2010-07-17T16:42:54Z</time>
<desc>lat.=55.759235, lon.=26.024328, Alt.=169.841919m. Speed=14.148000m/h.</desc>
<speed>3.930000</speed>
</trkpt>
<trkpt lat="55.759212" lon="26.024290">
<ele>170.420044</ele>
<time>2010-07-17T16:42:55Z</time>
<desc>lat.=55.759212, lon.=26.024290, Alt.=170.420044m. Speed=13.248000m/h.</desc>
<speed>3.680000</speed>
</trkpt>
<trkpt lat="55.759190" lon="26.024252">
<ele>170.826294</ele>
<time>2010-07-17T16:42:56Z</time>
<desc>lat.=55.759190, lon.=26.024252, Alt.=170.826294m. Speed=13.428000m/h.</desc>
<speed>3.730000</speed>
</trkpt>
<trkpt lat="55.759163" lon="26.024214">
<ele>171.248169</ele>
<time>2010-07-17T16:42:57Z</time>
<desc>lat.=55.759163, lon.=26.024214, Alt.=171.248169m. Speed=13.392000m/h.</desc>
<speed>3.720000</speed>
</trkpt>
<trkpt lat="55.759136" lon="26.024178">
<ele>172.033325</ele>
<time>2010-07-17T16:42:58Z</time>
<desc>lat.=55.759136, lon.=26.024178, Alt.=172.033325m. Speed=13.824000m/h.</desc>
<speed>3.840000</speed>
</trkpt>
<trkpt lat="55.759109" lon="26.024137">
<ele>172.716919</ele>
<time>2010-07-17T16:42:59Z</time>
<desc>lat.=55.759109, lon.=26.024137, Alt.=172.716919m. Speed=12.168000m/h.</desc>
<speed>3.380000</speed>
</trkpt>
<trkpt lat="55.759087" lon="26.024101">
<ele>173.502075</ele>
<time>2010-07-17T16:43:00Z</time>
<desc>lat.=55.759087, lon.=26.024101, Alt.=173.502075m. Speed=11.556000m/h.</desc>
<speed>3.210000</speed>
</trkpt>
<trkpt lat="55.759064" lon="26.024057">
<ele>174.357544</ele>
<time>2010-07-17T16:43:01Z</time>
<desc>lat.=55.759064, lon.=26.024057, Alt.=174.357544m. Speed=11.196000m/h.</desc>
<speed>3.110000</speed>
</trkpt>
<trkpt lat="55.759041" lon="26.024021">
<ele>175.388794</ele>
<time>2010-07-17T16:43:02Z</time>
<desc>lat.=55.759041, lon.=26.024021, Alt.=175.388794m. Speed=11.808000m/h.</desc>
<speed>3.280000</speed>
</trkpt>
<trkpt lat="55.759022" lon="26.023991">
<ele>176.822388</ele>
<time>2010-07-17T16:43:03Z</time>
<desc>lat.=55.759022, lon.=26.023991, Alt.=176.822388m. Speed=10.836000m/h.</desc>
<speed>3.010000</speed>
</trkpt>
<trkpt lat="55.758999" lon="26.023956">
<ele>178.248169</ele>
<time>2010-07-17T16:43:04Z</time>
<desc>lat.=55.758999, lon.=26.023956, Alt.=178.248169m. Speed=13.860000m/h.</desc>
<speed>3.850000</speed>
</trkpt>
<trkpt lat="55.758976" lon="26.023905">
<ele>179.384888</ele>
<time>2010-07-17T16:43:05Z</time>
<desc>lat.=55.758976, lon.=26.023905, Alt.=179.384888m. Speed=13.608000m/h.</desc>
<speed>3.780000</speed>
</trkpt>
<trkpt lat="55.758949" lon="26.023865">
<ele>180.810669</ele>
<time>2010-07-17T16:43:06Z</time>
<desc>lat.=55.758949, lon.=26.023865, Alt.=180.810669m. Speed=12.816000m/h.</desc>
<speed>3.560000</speed>
</trkpt>
<trkpt lat="55.758930" lon="26.023808">
<ele>181.213013</ele>
<time>2010-07-17T16:43:07Z</time>
<desc>lat.=55.758930, lon.=26.023808, Alt.=181.213013m. Speed=13.644000m/h.</desc>
<speed>3.790000</speed>
</trkpt>
<trkpt lat="55.758907" lon="26.023758">
<ele>181.845825</ele>
<time>2010-07-17T16:43:08Z</time>
<desc>lat.=55.758907, lon.=26.023758, Alt.=181.845825m. Speed=12.204000m/h.</desc>
<speed>3.390000</speed>
</trkpt>
<trkpt lat="55.758888" lon="26.023718">
<ele>182.798950</ele>
<time>2010-07-17T16:43:09Z</time>
<desc>lat.=55.758888, lon.=26.023718, Alt.=182.798950m. Speed=10.044000m/h.</desc>
<speed>2.790000</speed>
</trkpt>
<trkpt lat="55.758865" lon="26.023684">
<ele>182.908325</ele>
<time>2010-07-17T16:43:10Z</time>
<desc>lat.=55.758865, lon.=26.023684, Alt.=182.908325m. Speed=9.324000m/h.</desc>
<speed>2.590000</speed>
</trkpt>
<trkpt lat="55.758846" lon="26.023653">
<ele>183.427856</ele>
<time>2010-07-17T16:43:11Z</time>
<desc>lat.=55.758846, lon.=26.023653, Alt.=183.427856m. Speed=8.316000m/h.</desc>
<speed>2.310000</speed>
</trkpt>
<trkpt lat="55.758827" lon="26.023621">
<ele>183.185669</ele>
<time>2010-07-17T16:43:12Z</time>
<desc>lat.=55.758827, lon.=26.023621, Alt.=183.185669m. Speed=9.468000m/h.</desc>
<speed>2.630000</speed>
</trkpt>
<trkpt lat="55.758801" lon="26.023586">
<ele>183.443481</ele>
<time>2010-07-17T16:43:13Z</time>
<desc>lat.=55.758801, lon.=26.023586, Alt.=183.443481m. Speed=10.980000m/h.</desc>
<speed>3.050000</speed>
</trkpt>
<trkpt lat="55.758781" lon="26.023554">
<ele>183.517700</ele>
<time>2010-07-17T16:43:14Z</time>
<desc>lat.=55.758781, lon.=26.023554, Alt.=183.517700m. Speed=11.160000m/h.</desc>
<speed>3.100000</speed>
</trkpt>
<trkpt lat="55.758762" lon="26.023518">
<ele>183.931763</ele>
<time>2010-07-17T16:43:15Z</time>
<desc>lat.=55.758762, lon.=26.023518, Alt.=183.931763m. Speed=12.420000m/h.</desc>
<speed>3.450000</speed>
</trkpt>
<trkpt lat="55.758747" lon="26.023479">
<ele>184.697388</ele>
<time>2010-07-17T16:43:16Z</time>
<desc>lat.=55.758747, lon.=26.023479, Alt.=184.697388m. Speed=8.640000m/h.</desc>
<speed>2.400000</speed>
</trkpt>
<trkpt lat="55.758739" lon="26.023447">
<ele>185.197388</ele>
<time>2010-07-17T16:43:17Z</time>
<desc>lat.=55.758739, lon.=26.023447, Alt.=185.197388m. Speed=6.192000m/h.</desc>
<speed>1.720000</speed>
</trkpt>
<trkpt lat="55.758728" lon="26.023424">
<ele>185.892700</ele>
<time>2010-07-17T16:43:18Z</time>
<desc>lat.=55.758728, lon.=26.023424, Alt.=185.892700m. Speed=5.184000m/h.</desc>
<speed>1.440000</speed>
</trkpt>
<trkpt lat="55.758713" lon="26.023392">
<ele>186.380981</ele>
<time>2010-07-17T16:43:19Z</time>
<desc>lat.=55.758713, lon.=26.023392, Alt.=186.380981m. Speed=7.452000m/h.</desc>
<speed>2.070000</speed>
</trkpt>
<trkpt lat="55.758690" lon="26.023363">
<ele>187.666138</ele>
<time>2010-07-17T16:43:20Z</time>
<desc>lat.=55.758690, lon.=26.023363, Alt.=187.666138m. Speed=8.532000m/h.</desc>
<speed>2.370000</speed>
</trkpt>
<trkpt lat="55.758659" lon="26.023335">
<ele>189.447388</ele>
<time>2010-07-17T16:43:21Z</time>
<desc>lat.=55.758659, lon.=26.023335, Alt.=189.447388m. Speed=8.964000m/h.</desc>
<speed>2.490000</speed>
</trkpt>
<trkpt lat="55.758644" lon="26.023319">
<ele>190.463013</ele>
<time>2010-07-17T16:43:22Z</time>
<desc>lat.=55.758644, lon.=26.023319, Alt.=190.463013m. Speed=5.184000m/h.</desc>
<speed>1.440000</speed>
</trkpt>
<trkpt lat="55.758636" lon="26.023304">
<ele>191.185669</ele>
<time>2010-07-17T16:43:23Z</time>
<desc>lat.=55.758636, lon.=26.023304, Alt.=191.185669m. Speed=1.620000m/h.</desc>
<speed>0.450000</speed>
</trkpt>
<trkpt lat="55.758640" lon="26.023298">
<ele>192.107544</ele>
<time>2010-07-17T16:43:24Z</time>
<desc>lat.=55.758640, lon.=26.023298, Alt.=192.107544m. Speed=0.576000m/h.</desc>
<speed>0.160000</speed>
</trkpt>
<trkpt lat="55.758640" lon="26.023291">
<ele>191.584106</ele>
<time>2010-07-17T16:43:25Z</time>
<desc>lat.=55.758640, lon.=26.023291, Alt.=191.584106m. Speed=0.720000m/h.</desc>
<speed>0.200000</speed>
</trkpt>
<trkpt lat="55.758633" lon="26.023273">
<ele>191.466919</ele>
<time>2010-07-17T16:43:26Z</time>
<desc>lat.=55.758633, lon.=26.023273, Alt.=191.466919m. Speed=0.144000m/h.</desc>
<speed>0.040000</speed>
</trkpt>
<trkpt lat="55.758633" lon="26.023273">
<ele>191.744263</ele>
<time>2010-07-17T16:43:27Z</time>
<desc>lat.=55.758633, lon.=26.023273, Alt.=191.744263m. Speed=0.324000m/h.</desc>
<speed>0.090000</speed>
</trkpt>
<trkpt lat="55.758633" lon="26.023273">
<ele>191.943481</ele>
<time>2010-07-17T16:43:28Z</time>
<desc>lat.=55.758633, lon.=26.023273, Alt.=191.943481m. Speed=0.396000m/h.</desc>
<speed>0.110000</speed>
</trkpt>
<trkpt lat="55.758633" lon="26.023273">
<ele>192.088013</ele>
<time>2010-07-17T16:43:29Z</time>
<desc>lat.=55.758633, lon.=26.023273, Alt.=192.088013m. Speed=0.072000m/h.</desc>
<speed>0.020000</speed>
</trkpt>
<trkpt lat="55.758633" lon="26.023273">
<ele>192.197388</ele>
<time>2010-07-17T16:43:30Z</time>
<desc>lat.=55.758633, lon.=26.023273, Alt.=192.197388m. Speed=0.468000m/h.</desc>
<speed>0.130000</speed>
</trkpt>
<trkpt lat="55.758629" lon="26.023272">
<ele>192.283325</ele>
<time>2010-07-17T16:43:31Z</time>
<desc>lat.=55.758629, lon.=26.023272, Alt.=192.283325m. Speed=1.404000m/h.</desc>
<speed>0.390000</speed>
</trkpt>
<trkpt lat="55.758625" lon="26.023273">
<ele>192.353638</ele>
<time>2010-07-17T16:43:32Z</time>
<desc>lat.=55.758625, lon.=26.023273, Alt.=192.353638m. Speed=1.404000m/h.</desc>
<speed>0.390000</speed>
</trkpt>
<trkpt lat="55.758625" lon="26.023279">
<ele>192.431763</ele>
<time>2010-07-17T16:43:33Z</time>
<desc>lat.=55.758625, lon.=26.023279, Alt.=192.431763m. Speed=1.296000m/h.</desc>
<speed>0.360000</speed>
</trkpt>
<trkpt lat="55.758621" lon="26.023285">
<ele>192.509888</ele>
<time>2010-07-17T16:43:34Z</time>
<desc>lat.=55.758621, lon.=26.023285, Alt.=192.509888m. Speed=1.692000m/h.</desc>
<speed>0.470000</speed>
</trkpt>
<trkpt lat="55.758625" lon="26.023291">
<ele>192.591919</ele>
<time>2010-07-17T16:43:35Z</time>
<desc>lat.=55.758625, lon.=26.023291, Alt.=192.591919m. Speed=1.296000m/h.</desc>
<speed>0.360000</speed>
</trkpt>
<trkpt lat="55.758629" lon="26.023293">
<ele>192.677856</ele>
<time>2010-07-17T16:43:36Z</time>
<desc>lat.=55.758629, lon.=26.023293, Alt.=192.677856m. Speed=1.188000m/h.</desc>
<speed>0.330000</speed>
</trkpt>
<trkpt lat="55.758629" lon="26.023298">
<ele>192.763794</ele>
<time>2010-07-17T16:43:37Z</time>
<desc>lat.=55.758629, lon.=26.023298, Alt.=192.763794m. Speed=1.044000m/h.</desc>
<speed>0.290000</speed>
</trkpt>
<trkpt lat="55.758629" lon="26.023302">
<ele>192.845825</ele>
<time>2010-07-17T16:43:38Z</time>
<desc>lat.=55.758629, lon.=26.023302, Alt.=192.845825m. Speed=1.008000m/h.</desc>
<speed>0.280000</speed>
</trkpt>
<trkpt lat="55.758629" lon="26.023306">
<ele>192.920044</ele>
<time>2010-07-17T16:43:39Z</time>
<desc>lat.=55.758629, lon.=26.023306, Alt.=192.920044m. Speed=1.296000m/h.</desc>
<speed>0.360000</speed>
</trkpt>
<trkpt lat="55.758625" lon="26.023310">
<ele>192.982544</ele>
<time>2010-07-17T16:43:40Z</time>
<desc>lat.=55.758625, lon.=26.023310, Alt.=192.982544m. Speed=1.692000m/h.</desc>
<speed>0.470000</speed>
</trkpt>
<trkpt lat="55.758621" lon="26.023314">
<ele>193.045044</ele>
<time>2010-07-17T16:43:41Z</time>
<desc>lat.=55.758621, lon.=26.023314, Alt.=193.045044m. Speed=1.656000m/h.</desc>
<speed>0.460000</speed>
</trkpt>
<trkpt lat="55.758617" lon="26.023317">
<ele>193.115356</ele>
<time>2010-07-17T16:43:42Z</time>
<desc>lat.=55.758617, lon.=26.023317, Alt.=193.115356m. Speed=1.152000m/h.</desc>
<speed>0.320000</speed>
</trkpt>
<trkpt lat="55.758614" lon="26.023321">
<ele>193.189575</ele>
<time>2010-07-17T16:43:43Z</time>
<desc>lat.=55.758614, lon.=26.023321, Alt.=193.189575m. Speed=1.152000m/h.</desc>
<speed>0.320000</speed>
</trkpt>
<trkpt lat="55.758614" lon="26.023325">
<ele>193.271606</ele>
<time>2010-07-17T16:43:44Z</time>
<desc>lat.=55.758614, lon.=26.023325, Alt.=193.271606m. Speed=0.648000m/h.</desc>
<speed>0.180000</speed>
</trkpt>
<trkpt lat="55.758610" lon="26.023327">
<ele>193.353638</ele>
<time>2010-07-17T16:43:45Z</time>
<desc>lat.=55.758610, lon.=26.023327, Alt.=193.353638m. Speed=1.116000m/h.</desc>
<speed>0.310000</speed>
</trkpt>
<trkpt lat="55.758614" lon="26.023331">
<ele>193.427856</ele>
<time>2010-07-17T16:43:46Z</time>
<desc>lat.=55.758614, lon.=26.023331, Alt.=193.427856m. Speed=0.540000m/h.</desc>
<speed>0.150000</speed>
</trkpt>
<trkpt lat="55.758614" lon="26.023333">
<ele>193.498169</ele>
<time>2010-07-17T16:43:47Z</time>
<desc>lat.=55.758614, lon.=26.023333, Alt.=193.498169m. Speed=0.720000m/h.</desc>
<speed>0.200000</speed>
</trkpt>
<trkpt lat="55.758614" lon="26.023336">
<ele>193.560669</ele>
<time>2010-07-17T16:43:48Z</time>
<desc>lat.=55.758614, lon.=26.023336, Alt.=193.560669m. Speed=1.044000m/h.</desc>
<speed>0.290000</speed>
</trkpt>
<trkpt lat="55.758610" lon="26.023340">
<ele>193.615356</ele>
<time>2010-07-17T16:43:49Z</time>
<desc>lat.=55.758610, lon.=26.023340, Alt.=193.615356m. Speed=1.044000m/h.</desc>
<speed>0.290000</speed>
</trkpt>
<trkpt lat="55.758610" lon="26.023342">
<ele>193.658325</ele>
<time>2010-07-17T16:43:50Z</time>
<desc>lat.=55.758610, lon.=26.023342, Alt.=193.658325m. Speed=1.656000m/h.</desc>
<speed>0.460000</speed>
</trkpt>
<trkpt lat="55.758602" lon="26.023344">
<ele>193.697388</ele>
<time>2010-07-17T16:43:51Z</time>
<desc>lat.=55.758602, lon.=26.023344, Alt.=193.697388m. Speed=1.548000m/h.</desc>
<speed>0.430000</speed>
</trkpt>
<trkpt lat="55.758598" lon="26.023342">
<ele>193.740356</ele>
<time>2010-07-17T16:43:52Z</time>
<desc>lat.=55.758598, lon.=26.023342, Alt.=193.740356m. Speed=1.692000m/h.</desc>
<speed>0.470000</speed>
</trkpt>
<trkpt lat="55.758595" lon="26.023342">
<ele>193.798950</ele>
<time>2010-07-17T16:43:53Z</time>
<desc>lat.=55.758595, lon.=26.023342, Alt.=193.798950m. Speed=1.332000m/h.</desc>
<speed>0.370000</speed>
</trkpt>
<trkpt lat="55.758591" lon="26.023342">
<ele>193.853638</ele>
<time>2010-07-17T16:43:54Z</time>
<desc>lat.=55.758591, lon.=26.023342, Alt.=193.853638m. Speed=1.152000m/h.</desc>
<speed>0.320000</speed>
</trkpt>
<trkpt lat="55.758591" lon="26.023342">
<ele>193.912231</ele>
<time>2010-07-17T16:43:55Z</time>
<desc>lat.=55.758591, lon.=26.023342, Alt.=193.912231m. Speed=1.404000m/h.</desc>
<speed>0.390000</speed>
</trkpt>
<trkpt lat="55.758587" lon="26.023338">
<ele>193.970825</ele>
<time>2010-07-17T16:43:56Z</time>
<desc>lat.=55.758587, lon.=26.023338, Alt.=193.970825m. Speed=2.052000m/h.</desc>
<speed>0.570000</speed>
</trkpt>
<trkpt lat="55.758579" lon="26.023336">
<ele>194.033325</ele>
<time>2010-07-17T16:43:57Z</time>
<desc>lat.=55.758579, lon.=26.023336, Alt.=194.033325m. Speed=1.872000m/h.</desc>
<speed>0.520000</speed>
</trkpt>
<trkpt lat="55.758575" lon="26.023335">
<ele>194.091919</ele>
<time>2010-07-17T16:43:58Z</time>
<desc>lat.=55.758575, lon.=26.023335, Alt.=194.091919m. Speed=1.980000m/h.</desc>
<speed>0.550000</speed>
</trkpt>
<trkpt lat="55.758572" lon="26.023333">
<ele>194.146606</ele>
<time>2010-07-17T16:43:59Z</time>
<desc>lat.=55.758572, lon.=26.023333, Alt.=194.146606m. Speed=1.728000m/h.</desc>
<speed>0.480000</speed>
</trkpt>
<trkpt lat="55.758568" lon="26.023331">
<ele>194.205200</ele>
<time>2010-07-17T16:44:00Z</time>
<desc>lat.=55.758568, lon.=26.023331, Alt.=194.205200m. Speed=1.548000m/h.</desc>
<speed>0.430000</speed>
</trkpt>
<trkpt lat="55.758564" lon="26.023329">
<ele>194.271606</ele>
<time>2010-07-17T16:44:01Z</time>
<desc>lat.=55.758564, lon.=26.023329, Alt.=194.271606m. Speed=0.972000m/h.</desc>
<speed>0.270000</speed>
</trkpt>
<trkpt lat="55.758560" lon="26.023327">
<ele>194.330200</ele>
<time>2010-07-17T16:44:02Z</time>
<desc>lat.=55.758560, lon.=26.023327, Alt.=194.330200m. Speed=1.116000m/h.</desc>
<speed>0.310000</speed>
</trkpt>
<trkpt lat="55.758556" lon="26.023327">
<ele>194.392700</ele>
<time>2010-07-17T16:44:03Z</time>
<desc>lat.=55.758556, lon.=26.023327, Alt.=194.392700m. Speed=0.864000m/h.</desc>
<speed>0.240000</speed>
</trkpt>
<trkpt lat="55.758556" lon="26.023331">
<ele>194.420044</ele>
<time>2010-07-17T16:44:04Z</time>
<desc>lat.=55.758556, lon.=26.023331, Alt.=194.420044m. Speed=0.792000m/h.</desc>
<speed>0.220000</speed>
</trkpt>
<trkpt lat="55.758553" lon="26.023333">
<ele>194.435669</ele>
<time>2010-07-17T16:44:05Z</time>
<desc>lat.=55.758553, lon.=26.023333, Alt.=194.435669m. Speed=0.828000m/h.</desc>
<speed>0.230000</speed>
</trkpt>
<trkpt lat="55.758553" lon="26.023335">
<ele>194.451294</ele>
<time>2010-07-17T16:44:06Z</time>
<desc>lat.=55.758553, lon.=26.023335, Alt.=194.451294m. Speed=0.828000m/h.</desc>
<speed>0.230000</speed>
</trkpt>
<trkpt lat="55.758549" lon="26.023338">
<ele>194.463013</ele>
<time>2010-07-17T16:44:07Z</time>
<desc>lat.=55.758549, lon.=26.023338, Alt.=194.463013m. Speed=0.864000m/h.</desc>
<speed>0.240000</speed>
</trkpt>
<trkpt lat="55.758549" lon="26.023336">
<ele>194.470825</ele>
<time>2010-07-17T16:44:08Z</time>
<desc>lat.=55.758549, lon.=26.023336, Alt.=194.470825m. Speed=0.504000m/h.</desc>
<speed>0.140000</speed>
</trkpt>
<trkpt lat="55.758545" lon="26.023336">
<ele>194.486450</ele>
<time>2010-07-17T16:44:09Z</time>
<desc>lat.=55.758545, lon.=26.023336, Alt.=194.486450m. Speed=0.504000m/h.</desc>
<speed>0.140000</speed>
</trkpt>
<trkpt lat="55.758545" lon="26.023335">
<ele>194.490356</ele>
<time>2010-07-17T16:44:10Z</time>
<desc>lat.=55.758545, lon.=26.023335, Alt.=194.490356m. Speed=0.792000m/h.</desc>
<speed>0.220000</speed>
</trkpt>
<trkpt lat="55.758541" lon="26.023333">
<ele>194.498169</ele>
<time>2010-07-17T16:44:11Z</time>
<desc>lat.=55.758541, lon.=26.023333, Alt.=194.498169m. Speed=1.152000m/h.</desc>
<speed>0.320000</speed>
</trkpt>
<trkpt lat="55.758541" lon="26.023331">
<ele>194.505981</ele>
<time>2010-07-17T16:44:12Z</time>
<desc>lat.=55.758541, lon.=26.023331, Alt.=194.505981m. Speed=1.008000m/h.</desc>
<speed>0.280000</speed>
</trkpt>
<trkpt lat="55.758537" lon="26.023327">
<ele>194.513794</ele>
<time>2010-07-17T16:44:13Z</time>
<desc>lat.=55.758537, lon.=26.023327, Alt.=194.513794m. Speed=0.864000m/h.</desc>
<speed>0.240000</speed>
</trkpt>
<trkpt lat="55.758537" lon="26.023325">
<ele>194.509888</ele>
<time>2010-07-17T16:44:14Z</time>
<desc>lat.=55.758537, lon.=26.023325, Alt.=194.509888m. Speed=0.468000m/h.</desc>
<speed>0.130000</speed>
</trkpt>
<trkpt lat="55.758533" lon="26.023325">
<ele>194.505981</ele>
<time>2010-07-17T16:44:15Z</time>
<desc>lat.=55.758533, lon.=26.023325, Alt.=194.505981m. Speed=0.108000m/h.</desc>
<speed>0.030000</speed>
</trkpt>
<trkpt lat="55.758533" lon="26.023325">
<ele>194.502075</ele>
<time>2010-07-17T16:44:16Z</time>
<desc>lat.=55.758533, lon.=26.023325, Alt.=194.502075m. Speed=0.144000m/h.</desc>
<speed>0.040000</speed>
</trkpt>
<trkpt lat="55.758533" lon="26.023323">
<ele>194.498169</ele>
<time>2010-07-17T16:44:17Z</time>
<desc>lat.=55.758533, lon.=26.023323, Alt.=194.498169m. Speed=0.324000m/h.</desc>
<speed>0.090000</speed>
</trkpt>
<trkpt lat="55.758533" lon="26.023321">
<ele>194.494263</ele>
<time>2010-07-17T16:44:18Z</time>
<desc>lat.=55.758533, lon.=26.023321, Alt.=194.494263m. Speed=0.612000m/h.</desc>
<speed>0.170000</speed>
</trkpt>
<trkpt lat="55.758537" lon="26.023319">
<ele>194.494263</ele>
<time>2010-07-17T16:44:19Z</time>
<desc>lat.=55.758537, lon.=26.023319, Alt.=194.494263m. Speed=0.900000m/h.</desc>
<speed>0.250000</speed>
</trkpt>
<trkpt lat="55.758537" lon="26.023317">
<ele>194.494263</ele>
<time>2010-07-17T16:44:20Z</time>
<desc>lat.=55.758537, lon.=26.023317, Alt.=194.494263m. Speed=0.648000m/h.</desc>
<speed>0.180000</speed>
</trkpt>
<trkpt lat="55.758537" lon="26.023315">
<ele>194.486450</ele>
<time>2010-07-17T16:44:21Z</time>
<desc>lat.=55.758537, lon.=26.023315, Alt.=194.486450m. Speed=0.972000m/h.</desc>
<speed>0.270000</speed>
</trkpt>
<trkpt lat="55.758537" lon="26.023312">
<ele>194.482544</ele>
<time>2010-07-17T16:44:22Z</time>
<desc>lat.=55.758537, lon.=26.023312, Alt.=194.482544m. Speed=0.864000m/h.</desc>
<speed>0.240000</speed>
</trkpt>
<trkpt lat="55.758533" lon="26.023308">
<ele>194.474731</ele>
<time>2010-07-17T16:44:23Z</time>
<desc>lat.=55.758533, lon.=26.023308, Alt.=194.474731m. Speed=0.792000m/h.</desc>
<speed>0.220000</speed>
</trkpt>
<trkpt lat="55.758533" lon="26.023306">
<ele>194.463013</ele>
<time>2010-07-17T16:44:24Z</time>
<desc>lat.=55.758533, lon.=26.023306, Alt.=194.463013m. Speed=1.044000m/h.</desc>
<speed>0.290000</speed>
</trkpt>
<trkpt lat="55.758530" lon="26.023302">
<ele>194.451294</ele>
<time>2010-07-17T16:44:25Z</time>
<desc>lat.=55.758530, lon.=26.023302, Alt.=194.451294m. Speed=0.972000m/h.</desc>
<speed>0.270000</speed>
</trkpt>
<trkpt lat="55.758530" lon="26.023298">
<ele>194.435669</ele>
<time>2010-07-17T16:44:26Z</time>
<desc>lat.=55.758530, lon.=26.023298, Alt.=194.435669m. Speed=1.044000m/h.</desc>
<speed>0.290000</speed>
</trkpt>
<trkpt lat="55.758526" lon="26.023294">
<ele>194.404419</ele>
<time>2010-07-17T16:44:27Z</time>
<desc>lat.=55.758526, lon.=26.023294, Alt.=194.404419m. Speed=1.152000m/h.</desc>
<speed>0.320000</speed>
</trkpt>
<trkpt lat="55.758526" lon="26.023293">
<ele>194.388794</ele>
<time>2010-07-17T16:44:28Z</time>
<desc>lat.=55.758526, lon.=26.023293, Alt.=194.388794m. Speed=1.080000m/h.</desc>
<speed>0.300000</speed>
</trkpt>
<trkpt lat="55.758522" lon="26.023291">
<ele>194.377075</ele>
<time>2010-07-17T16:44:29Z</time>
<desc>lat.=55.758522, lon.=26.023291, Alt.=194.377075m. Speed=1.332000m/h.</desc>
<speed>0.370000</speed>
</trkpt>
<trkpt lat="55.758518" lon="26.023289">
<ele>194.361450</ele>
<time>2010-07-17T16:44:30Z</time>
<desc>lat.=55.758518, lon.=26.023289, Alt.=194.361450m. Speed=1.332000m/h.</desc>
<speed>0.370000</speed>
</trkpt>
<trkpt lat="55.758514" lon="26.023283">
<ele>194.345825</ele>
<time>2010-07-17T16:44:31Z</time>
<desc>lat.=55.758514, lon.=26.023283, Alt.=194.345825m. Speed=1.440000m/h.</desc>
<speed>0.400000</speed>
</trkpt>
<trkpt lat="55.758514" lon="26.023279">
<ele>194.326294</ele>
<time>2010-07-17T16:44:32Z</time>
<desc>lat.=55.758514, lon.=26.023279, Alt.=194.326294m. Speed=1.044000m/h.</desc>
<speed>0.290000</speed>
</trkpt>
<trkpt lat="55.758514" lon="26.023273">
<ele>194.310669</ele>
<time>2010-07-17T16:44:33Z</time>
<desc>lat.=55.758514, lon.=26.023273, Alt.=194.310669m. Speed=0.864000m/h.</desc>
<speed>0.240000</speed>
</trkpt>
<trkpt lat="55.758511" lon="26.023272">
<ele>194.295044</ele>
<time>2010-07-17T16:44:34Z</time>
<desc>lat.=55.758511, lon.=26.023272, Alt.=194.295044m. Speed=0.504000m/h.</desc>
<speed>0.140000</speed>
</trkpt>
<trkpt lat="55.758511" lon="26.023270">
<ele>194.283325</ele>
<time>2010-07-17T16:44:35Z</time>
<desc>lat.=55.758511, lon.=26.023270, Alt.=194.283325m. Speed=0.612000m/h.</desc>
<speed>0.170000</speed>
</trkpt>
<trkpt lat="55.758511" lon="26.023266">
<ele>194.275513</ele>
<time>2010-07-17T16:44:36Z</time>
<desc>lat.=55.758511, lon.=26.023266, Alt.=194.275513m. Speed=0.864000m/h.</desc>
<speed>0.240000</speed>
</trkpt>
<trkpt lat="55.758511" lon="26.023262">
<ele>194.263794</ele>
<time>2010-07-17T16:44:37Z</time>
<desc>lat.=55.758511, lon.=26.023262, Alt.=194.263794m. Speed=0.540000m/h.</desc>
<speed>0.150000</speed>
</trkpt>
<trkpt lat="55.758511" lon="26.023260">
<ele>194.255981</ele>
<time>2010-07-17T16:44:38Z</time>
<desc>lat.=55.758511, lon.=26.023260, Alt.=194.255981m. Speed=0.648000m/h.</desc>
<speed>0.180000</speed>
</trkpt>
<trkpt lat="55.758514" lon="26.023256">
<ele>194.248169</ele>
<time>2010-07-17T16:44:39Z</time>
<desc>lat.=55.758514, lon.=26.023256, Alt.=194.248169m. Speed=0.360000m/h.</desc>
<speed>0.100000</speed>
</trkpt>
<trkpt lat="55.758514" lon="26.023256">
<ele>194.244263</ele>
<time>2010-07-17T16:44:40Z</time>
<desc>lat.=55.758514, lon.=26.023256, Alt.=194.244263m. Speed=0.540000m/h.</desc>
<speed>0.150000</speed>
</trkpt>
<trkpt lat="55.758514" lon="26.023254">
<ele>194.240356</ele>
<time>2010-07-17T16:44:41Z</time>
<desc>lat.=55.758514, lon.=26.023254, Alt.=194.240356m. Speed=0.432000m/h.</desc>
<speed>0.120000</speed>
</trkpt>
<trkpt lat="55.758514" lon="26.023252">
<ele>194.236450</ele>
<time>2010-07-17T16:44:42Z</time>
<desc>lat.=55.758514, lon.=26.023252, Alt.=194.236450m. Speed=1.296000m/h.</desc>
<speed>0.360000</speed>
</trkpt>
<trkpt lat="55.758518" lon="26.023251">
<ele>194.236450</ele>
<time>2010-07-17T16:44:43Z</time>
<desc>lat.=55.758518, lon.=26.023251, Alt.=194.236450m. Speed=1.584000m/h.</desc>
<speed>0.440000</speed>
</trkpt>
<trkpt lat="55.758522" lon="26.023247">
<ele>194.228638</ele>
<time>2010-07-17T16:44:44Z</time>
<desc>lat.=55.758522, lon.=26.023247, Alt.=194.228638m. Speed=1.008000m/h.</desc>
<speed>0.280000</speed>
</trkpt>
<trkpt lat="55.758526" lon="26.023245">
<ele>194.224731</ele>
<time>2010-07-17T16:44:45Z</time>
<desc>lat.=55.758526, lon.=26.023245, Alt.=194.224731m. Speed=0.504000m/h.</desc>
<speed>0.140000</speed>
</trkpt>
<trkpt lat="55.758526" lon="26.023243">
<ele>194.216919</ele>
<time>2010-07-17T16:44:46Z</time>
<desc>lat.=55.758526, lon.=26.023243, Alt.=194.216919m. Speed=0.504000m/h.</desc>
<speed>0.140000</speed>
</trkpt>
<trkpt lat="55.758526" lon="26.023241">
<ele>194.213013</ele>
<time>2010-07-17T16:44:47Z</time>
<desc>lat.=55.758526, lon.=26.023241, Alt.=194.213013m. Speed=0.720000m/h.</desc>
<speed>0.200000</speed>
</trkpt>
<trkpt lat="55.758530" lon="26.023239">
<ele>194.209106</ele>
<time>2010-07-17T16:44:48Z</time>
<desc>lat.=55.758530, lon.=26.023239, Alt.=194.209106m. Speed=0.504000m/h.</desc>
<speed>0.140000</speed>
</trkpt>
<trkpt lat="55.758530" lon="26.023237">
<ele>194.205200</ele>
<time>2010-07-17T16:44:49Z</time>
<desc>lat.=55.758530, lon.=26.023237, Alt.=194.205200m. Speed=0.576000m/h.</desc>
<speed>0.160000</speed>
</trkpt>
<trkpt lat="55.758530" lon="26.023233">
<ele>194.197388</ele>
<time>2010-07-17T16:44:50Z</time>
<desc>lat.=55.758530, lon.=26.023233, Alt.=194.197388m. Speed=0.468000m/h.</desc>
<speed>0.130000</speed>
</trkpt>
<trkpt lat="55.758530" lon="26.023232">
<ele>194.193481</ele>
<time>2010-07-17T16:44:51Z</time>
<desc>lat.=55.758530, lon.=26.023232, Alt.=194.193481m. Speed=0.324000m/h.</desc>
<speed>0.090000</speed>
</trkpt>
<trkpt lat="55.758530" lon="26.023230">
<ele>194.189575</ele>
<time>2010-07-17T16:44:52Z</time>
<desc>lat.=55.758530, lon.=26.023230, Alt.=194.189575m. Speed=0.936000m/h.</desc>
<speed>0.260000</speed>
</trkpt>
<trkpt lat="55.758526" lon="26.023232">
<ele>194.185669</ele>
<time>2010-07-17T16:44:53Z</time>
<desc>lat.=55.758526, lon.=26.023232, Alt.=194.185669m. Speed=0.648000m/h.</desc>
<speed>0.180000</speed>
</trkpt>
<trkpt lat="55.758522" lon="26.023232">
<ele>194.185669</ele>
<time>2010-07-17T16:44:54Z</time>
<desc>lat.=55.758522, lon.=26.023232, Alt.=194.185669m. Speed=0.396000m/h.</desc>
<speed>0.110000</speed>
</trkpt>
<trkpt lat="55.758522" lon="26.023230">
<ele>194.181763</ele>
<time>2010-07-17T16:44:55Z</time>
<desc>lat.=55.758522, lon.=26.023230, Alt.=194.181763m. Speed=0.288000m/h.</desc>
<speed>0.080000</speed>
</trkpt>
<trkpt lat="55.758522" lon="26.023230">
<ele>194.181763</ele>
<time>2010-07-17T16:44:56Z</time>
<desc>lat.=55.758522, lon.=26.023230, Alt.=194.181763m. Speed=0.180000m/h.</desc>
<speed>0.050000</speed>
</trkpt>
<trkpt lat="55.758522" lon="26.023228">
<ele>194.177856</ele>
<time>2010-07-17T16:44:57Z</time>
<desc>lat.=55.758522, lon.=26.023228, Alt.=194.177856m. Speed=0.396000m/h.</desc>
<speed>0.110000</speed>
</trkpt>
<trkpt lat="55.758526" lon="26.023226">
<ele>194.177856</ele>
<time>2010-07-17T16:44:58Z</time>
<desc>lat.=55.758526, lon.=26.023226, Alt.=194.177856m. Speed=0.972000m/h.</desc>
<speed>0.270000</speed>
</trkpt>
<trkpt lat="55.758526" lon="26.023224">
<ele>194.173950</ele>
<time>2010-07-17T16:44:59Z</time>
<desc>lat.=55.758526, lon.=26.023224, Alt.=194.173950m. Speed=1.188000m/h.</desc>
<speed>0.330000</speed>
</trkpt>
<trkpt lat="55.758530" lon="26.023220">
<ele>194.173950</ele>
<time>2010-07-17T16:45:00Z</time>
<desc>lat.=55.758530, lon.=26.023220, Alt.=194.173950m. Speed=0.900000m/h.</desc>
<speed>0.250000</speed>
</trkpt>
<trkpt lat="55.758530" lon="26.023216">
<ele>194.173950</ele>
<time>2010-07-17T16:45:01Z</time>
<desc>lat.=55.758530, lon.=26.023216, Alt.=194.173950m. Speed=1.080000m/h.</desc>
<speed>0.300000</speed>
</trkpt>
<trkpt lat="55.758533" lon="26.023212">
<ele>194.173950</ele>
<time>2010-07-17T16:45:02Z</time>
<desc>lat.=55.758533, lon.=26.023212, Alt.=194.173950m. Speed=0.864000m/h.</desc>
<speed>0.240000</speed>
</trkpt>
<trkpt lat="55.758533" lon="26.023211">
<ele>194.170044</ele>
<time>2010-07-17T16:45:03Z</time>
<desc>lat.=55.758533, lon.=26.023211, Alt.=194.170044m. Speed=0.612000m/h.</desc>
<speed>0.170000</speed>
</trkpt>
<trkpt lat="55.758533" lon="26.023207">
<ele>194.166138</ele>
<time>2010-07-17T16:45:04Z</time>
<desc>lat.=55.758533, lon.=26.023207, Alt.=194.166138m. Speed=0.396000m/h.</desc>
<speed>0.110000</speed>
</trkpt>
<trkpt lat="55.758533" lon="26.023205">
<ele>194.158325</ele>
<time>2010-07-17T16:45:05Z</time>
<desc>lat.=55.758533, lon.=26.023205, Alt.=194.158325m. Speed=0.612000m/h.</desc>
<speed>0.170000</speed>
</trkpt>
<trkpt lat="55.758533" lon="26.023203">
<ele>194.158325</ele>
<time>2010-07-17T16:45:06Z</time>
<desc>lat.=55.758533, lon.=26.023203, Alt.=194.158325m. Speed=0.972000m/h.</desc>
<speed>0.270000</speed>
</trkpt>
<trkpt lat="55.758530" lon="26.023201">
<ele>194.154419</ele>
<time>2010-07-17T16:45:07Z</time>
<desc>lat.=55.758530, lon.=26.023201, Alt.=194.154419m. Speed=0.864000m/h.</desc>
<speed>0.240000</speed>
</trkpt>
<trkpt lat="55.758530" lon="26.023199">
<ele>194.154419</ele>
<time>2010-07-17T16:45:08Z</time>
<desc>lat.=55.758530, lon.=26.023199, Alt.=194.154419m. Speed=0.756000m/h.</desc>
<speed>0.210000</speed>
</trkpt>
<trkpt lat="55.758526" lon="26.023195">
<ele>194.154419</ele>
<time>2010-07-17T16:45:09Z</time>
<desc>lat.=55.758526, lon.=26.023195, Alt.=194.154419m. Speed=0.720000m/h.</desc>
<speed>0.200000</speed>
</trkpt>
<trkpt lat="55.758526" lon="26.023193">
<ele>194.154419</ele>
<time>2010-07-17T16:45:10Z</time>
<desc>lat.=55.758526, lon.=26.023193, Alt.=194.154419m. Speed=0.648000m/h.</desc>
<speed>0.180000</speed>
</trkpt>
<trkpt lat="55.758530" lon="26.023191">
<ele>194.158325</ele>
<time>2010-07-17T16:45:11Z</time>
<desc>lat.=55.758530, lon.=26.023191, Alt.=194.158325m. Speed=0.612000m/h.</desc>
<speed>0.170000</speed>
</trkpt>
<trkpt lat="55.758530" lon="26.023190">
<ele>194.162231</ele>
<time>2010-07-17T16:45:12Z</time>
<desc>lat.=55.758530, lon.=26.023190, Alt.=194.162231m. Speed=0.612000m/h.</desc>
<speed>0.170000</speed>
</trkpt>
<trkpt lat="55.758530" lon="26.023188">
<ele>194.166138</ele>
<time>2010-07-17T16:45:13Z</time>
<desc>lat.=55.758530, lon.=26.023188, Alt.=194.166138m. Speed=0.900000m/h.</desc>
<speed>0.250000</speed>
</trkpt>
<trkpt lat="55.758530" lon="26.023184">
<ele>194.170044</ele>
<time>2010-07-17T16:45:14Z</time>
<desc>lat.=55.758530, lon.=26.023184, Alt.=194.170044m. Speed=0.900000m/h.</desc>
<speed>0.250000</speed>
</trkpt>
<trkpt lat="55.758526" lon="26.023180">
<ele>194.173950</ele>
<time>2010-07-17T16:45:15Z</time>
<desc>lat.=55.758526, lon.=26.023180, Alt.=194.173950m. Speed=0.648000m/h.</desc>
<speed>0.180000</speed>
</trkpt>
<trkpt lat="55.758526" lon="26.023178">
<ele>194.177856</ele>
<time>2010-07-17T16:45:16Z</time>
<desc>lat.=55.758526, lon.=26.023178, Alt.=194.177856m. Speed=1.188000m/h.</desc>
<speed>0.330000</speed>
</trkpt>
<trkpt lat="55.758522" lon="26.023174">
<ele>194.177856</ele>
<time>2010-07-17T16:45:17Z</time>
<desc>lat.=55.758522, lon.=26.023174, Alt.=194.177856m. Speed=1.584000m/h.</desc>
<speed>0.440000</speed>
</trkpt>
<trkpt lat="55.758518" lon="26.023170">
<ele>194.181763</ele>
<time>2010-07-17T16:45:18Z</time>
<desc>lat.=55.758518, lon.=26.023170, Alt.=194.181763m. Speed=2.196000m/h.</desc>
<speed>0.610000</speed>
</trkpt>
<trkpt lat="55.758514" lon="26.023165">
<ele>194.177856</ele>
<time>2010-07-17T16:45:19Z</time>
<desc>lat.=55.758514, lon.=26.023165, Alt.=194.177856m. Speed=1.800000m/h.</desc>
<speed>0.500000</speed>
</trkpt>
<trkpt lat="55.758511" lon="26.023161">
<ele>194.181763</ele>
<time>2010-07-17T16:45:20Z</time>
<desc>lat.=55.758511, lon.=26.023161, Alt.=194.181763m. Speed=1.764000m/h.</desc>
<speed>0.490000</speed>
</trkpt>
<trkpt lat="55.758507" lon="26.023157">
<ele>194.177856</ele>
<time>2010-07-17T16:45:21Z</time>
<desc>lat.=55.758507, lon.=26.023157, Alt.=194.177856m. Speed=1.476000m/h.</desc>
<speed>0.410000</speed>
</trkpt>
<trkpt lat="55.758503" lon="26.023155">
<ele>194.181763</ele>
<time>2010-07-17T16:45:22Z</time>
<desc>lat.=55.758503, lon.=26.023155, Alt.=194.181763m. Speed=1.836000m/h.</desc>
<speed>0.510000</speed>
</trkpt>
<trkpt lat="55.758499" lon="26.023151">
<ele>194.181763</ele>
<time>2010-07-17T16:45:23Z</time>
<desc>lat.=55.758499, lon.=26.023151, Alt.=194.181763m. Speed=1.764000m/h.</desc>
<speed>0.490000</speed>
</trkpt>
<trkpt lat="55.758495" lon="26.023146">
<ele>194.181763</ele>
<time>2010-07-17T16:45:24Z</time>
<desc>lat.=55.758495, lon.=26.023146, Alt.=194.181763m. Speed=1.476000m/h.</desc>
<speed>0.410000</speed>
</trkpt>
<trkpt lat="55.758492" lon="26.023144">
<ele>194.181763</ele>
<time>2010-07-17T16:45:25Z</time>
<desc>lat.=55.758492, lon.=26.023144, Alt.=194.181763m. Speed=1.296000m/h.</desc>
<speed>0.360000</speed>
</trkpt>
<trkpt lat="55.758488" lon="26.023142">
<ele>194.181763</ele>
<time>2010-07-17T16:45:26Z</time>
<desc>lat.=55.758488, lon.=26.023142, Alt.=194.181763m. Speed=1.008000m/h.</desc>
<speed>0.280000</speed>
</trkpt>
<trkpt lat="55.758488" lon="26.023140">
<ele>194.181763</ele>
<time>2010-07-17T16:45:27Z</time>
<desc>lat.=55.758488, lon.=26.023140, Alt.=194.181763m. Speed=0.864000m/h.</desc>
<speed>0.240000</speed>
</trkpt>
<trkpt lat="55.758484" lon="26.023138">
<ele>194.177856</ele>
<time>2010-07-17T16:45:28Z</time>
<desc>lat.=55.758484, lon.=26.023138, Alt.=194.177856m. Speed=0.900000m/h.</desc>
<speed>0.250000</speed>
</trkpt>
<trkpt lat="55.758484" lon="26.023136">
<ele>194.177856</ele>
<time>2010-07-17T16:45:29Z</time>
<desc>lat.=55.758484, lon.=26.023136, Alt.=194.177856m. Speed=0.792000m/h.</desc>
<speed>0.220000</speed>
</trkpt>
<trkpt lat="55.758480" lon="26.023136">
<ele>194.177856</ele>
<time>2010-07-17T16:45:30Z</time>
<desc>lat.=55.758480, lon.=26.023136, Alt.=194.177856m. Speed=0.720000m/h.</desc>
<speed>0.200000</speed>
</trkpt>
<trkpt lat="55.758480" lon="26.023134">
<ele>194.181763</ele>
<time>2010-07-17T16:45:31Z</time>
<desc>lat.=55.758480, lon.=26.023134, Alt.=194.181763m. Speed=0.324000m/h.</desc>
<speed>0.090000</speed>
</trkpt>
<trkpt lat="55.758476" lon="26.023134">
<ele>194.181763</ele>
<time>2010-07-17T16:45:32Z</time>
<desc>lat.=55.758476, lon.=26.023134, Alt.=194.181763m. Speed=0.648000m/h.</desc>
<speed>0.180000</speed>
</trkpt>
<trkpt lat="55.758476" lon="26.023132">
<ele>194.181763</ele>
<time>2010-07-17T16:45:33Z</time>
<desc>lat.=55.758476, lon.=26.023132, Alt.=194.181763m. Speed=1.008000m/h.</desc>
<speed>0.280000</speed>
</trkpt>
<trkpt lat="55.758476" lon="26.023130">
<ele>194.181763</ele>
<time>2010-07-17T16:45:34Z</time>
<desc>lat.=55.758476, lon.=26.023130, Alt.=194.181763m. Speed=0.432000m/h.</desc>
<speed>0.120000</speed>
</trkpt>
<trkpt lat="55.758472" lon="26.023129">
<ele>194.185669</ele>
<time>2010-07-17T16:45:35Z</time>
<desc>lat.=55.758472, lon.=26.023129, Alt.=194.185669m. Speed=0.324000m/h.</desc>
<speed>0.090000</speed>
</trkpt>
<trkpt lat="55.758472" lon="26.023129">
<ele>194.193481</ele>
<time>2010-07-17T16:45:36Z</time>
<desc>lat.=55.758472, lon.=26.023129, Alt.=194.193481m. Speed=0.576000m/h.</desc>
<speed>0.160000</speed>
</trkpt>
<trkpt lat="55.758472" lon="26.023127">
<ele>194.201294</ele>
<time>2010-07-17T16:45:37Z</time>
<desc>lat.=55.758472, lon.=26.023127, Alt.=194.201294m. Speed=0.684000m/h.</desc>
<speed>0.190000</speed>
</trkpt>
<trkpt lat="55.758472" lon="26.023125">
<ele>194.205200</ele>
<time>2010-07-17T16:45:38Z</time>
<desc>lat.=55.758472, lon.=26.023125, Alt.=194.205200m. Speed=0.684000m/h.</desc>
<speed>0.190000</speed>
</trkpt>
<trkpt lat="55.758469" lon="26.023127">
<ele>194.213013</ele>
<time>2010-07-17T16:45:39Z</time>
<desc>lat.=55.758469, lon.=26.023127, Alt.=194.213013m. Speed=1.440000m/h.</desc>
<speed>0.400000</speed>
</trkpt>
<trkpt lat="55.758465" lon="26.023125">
<ele>194.216919</ele>
<time>2010-07-17T16:45:40Z</time>
<desc>lat.=55.758465, lon.=26.023125, Alt.=194.216919m. Speed=1.548000m/h.</desc>
<speed>0.430000</speed>
</trkpt>
<trkpt lat="55.758461" lon="26.023125">
<ele>194.224731</ele>
<time>2010-07-17T16:45:41Z</time>
<desc>lat.=55.758461, lon.=26.023125, Alt.=194.224731m. Speed=1.476000m/h.</desc>
<speed>0.410000</speed>
</trkpt>
<trkpt lat="55.758457" lon="26.023125">
<ele>194.228638</ele>
<time>2010-07-17T16:45:42Z</time>
<desc>lat.=55.758457, lon.=26.023125, Alt.=194.228638m. Speed=1.548000m/h.</desc>
<speed>0.430000</speed>
</trkpt>
<trkpt lat="55.758453" lon="26.023127">
<ele>194.228638</ele>
<time>2010-07-17T16:45:43Z</time>
<desc>lat.=55.758453, lon.=26.023127, Alt.=194.228638m. Speed=0.720000m/h.</desc>
<speed>0.200000</speed>
</trkpt>
<trkpt lat="55.758453" lon="26.023129">
<ele>194.228638</ele>
<time>2010-07-17T16:45:44Z</time>
<desc>lat.=55.758453, lon.=26.023129, Alt.=194.228638m. Speed=0.540000m/h.</desc>
<speed>0.150000</speed>
</trkpt>
<trkpt lat="55.758453" lon="26.023130">
<ele>194.232544</ele>
<time>2010-07-17T16:45:45Z</time>
<desc>lat.=55.758453, lon.=26.023130, Alt.=194.232544m. Speed=0.504000m/h.</desc>
<speed>0.140000</speed>
</trkpt>
<trkpt lat="55.758453" lon="26.023132">
<ele>194.232544</ele>
<time>2010-07-17T16:45:46Z</time>
<desc>lat.=55.758453, lon.=26.023132, Alt.=194.232544m. Speed=0.684000m/h.</desc>
<speed>0.190000</speed>
</trkpt>
<trkpt lat="55.758450" lon="26.023136">
<ele>194.240356</ele>
<time>2010-07-17T16:45:47Z</time>
<desc>lat.=55.758450, lon.=26.023136, Alt.=194.240356m. Speed=0.648000m/h.</desc>
<speed>0.180000</speed>
</trkpt>
<trkpt lat="55.758450" lon="26.023138">
<ele>194.244263</ele>
<time>2010-07-17T16:45:48Z</time>
<desc>lat.=55.758450, lon.=26.023138, Alt.=194.244263m. Speed=0.864000m/h.</desc>
<speed>0.240000</speed>
</trkpt>
<trkpt lat="55.758450" lon="26.023142">
<ele>194.248169</ele>
<time>2010-07-17T16:45:49Z</time>
<desc>lat.=55.758450, lon.=26.023142, Alt.=194.248169m. Speed=0.756000m/h.</desc>
<speed>0.210000</speed>
</trkpt>
<trkpt lat="55.758450" lon="26.023146">
<ele>194.255981</ele>
<time>2010-07-17T16:45:50Z</time>
<desc>lat.=55.758450, lon.=26.023146, Alt.=194.255981m. Speed=0.828000m/h.</desc>
<speed>0.230000</speed>
</trkpt>
<trkpt lat="55.758446" lon="26.023149">
<ele>194.252075</ele>
<time>2010-07-17T16:45:51Z</time>
<desc>lat.=55.758446, lon.=26.023149, Alt.=194.252075m. Speed=1.116000m/h.</desc>
<speed>0.310000</speed>
</trkpt>
<trkpt lat="55.758446" lon="26.023153">
<ele>194.252075</ele>
<time>2010-07-17T16:45:52Z</time>
<desc>lat.=55.758446, lon.=26.023153, Alt.=194.252075m. Speed=0.936000m/h.</desc>
<speed>0.260000</speed>
</trkpt>
<trkpt lat="55.758446" lon="26.023157">
<ele>194.252075</ele>
<time>2010-07-17T16:45:53Z</time>
<desc>lat.=55.758446, lon.=26.023157, Alt.=194.252075m. Speed=0.432000m/h.</desc>
<speed>0.120000</speed>
</trkpt>
<trkpt lat="55.758442" lon="26.023157">
<ele>194.255981</ele>
<time>2010-07-17T16:45:54Z</time>
<desc>lat.=55.758442, lon.=26.023157, Alt.=194.255981m. Speed=0.360000m/h.</desc>
<speed>0.100000</speed>
</trkpt>
<trkpt lat="55.758442" lon="26.023157">
<ele>194.259888</ele>
<time>2010-07-17T16:45:55Z</time>
<desc>lat.=55.758442, lon.=26.023157, Alt.=194.259888m. Speed=1.044000m/h.</desc>
<speed>0.290000</speed>
</trkpt>
<trkpt lat="55.758438" lon="26.023159">
<ele>194.271606</ele>
<time>2010-07-17T16:45:56Z</time>
<desc>lat.=55.758438, lon.=26.023159, Alt.=194.271606m. Speed=0.180000m/h.</desc>
<speed>0.050000</speed>
</trkpt>
<trkpt lat="55.758438" lon="26.023159">
<ele>194.295044</ele>
<time>2010-07-17T16:45:57Z</time>
<desc>lat.=55.758438, lon.=26.023159, Alt.=194.295044m. Speed=0.180000m/h.</desc>
<speed>0.050000</speed>
</trkpt>
<trkpt lat="55.758438" lon="26.023159">
<ele>194.310669</ele>
<time>2010-07-17T16:45:58Z</time>
<desc>lat.=55.758438, lon.=26.023159, Alt.=194.310669m. Speed=0.144000m/h.</desc>
<speed>0.040000</speed>
</trkpt>
<trkpt lat="55.758438" lon="26.023157">
<ele>194.326294</ele>
<time>2010-07-17T16:45:59Z</time>
<desc>lat.=55.758438, lon.=26.023157, Alt.=194.326294m. Speed=0.072000m/h.</desc>
<speed>0.020000</speed>
</trkpt>
<trkpt lat="55.758438" lon="26.023157">
<ele>194.345825</ele>
<time>2010-07-17T16:46:00Z</time>
<desc>lat.=55.758438, lon.=26.023157, Alt.=194.345825m. Speed=0.432000m/h.</desc>
<speed>0.120000</speed>
</trkpt>
<trkpt lat="55.758438" lon="26.023155">
<ele>194.361450</ele>
<time>2010-07-17T16:46:01Z</time>
<desc>lat.=55.758438, lon.=26.023155, Alt.=194.361450m. Speed=0.612000m/h.</desc>
<speed>0.170000</speed>
</trkpt>
<trkpt lat="55.758438" lon="26.023153">
<ele>194.365356</ele>
<time>2010-07-17T16:46:02Z</time>
<desc>lat.=55.758438, lon.=26.023153, Alt.=194.365356m. Speed=0.720000m/h.</desc>
<speed>0.200000</speed>
</trkpt>
<trkpt lat="55.758438" lon="26.023151">
<ele>194.357544</ele>
<time>2010-07-17T16:46:03Z</time>
<desc>lat.=55.758438, lon.=26.023151, Alt.=194.357544m. Speed=0.936000m/h.</desc>
<speed>0.260000</speed>
</trkpt>
<trkpt lat="55.758438" lon="26.023148">
<ele>194.353638</ele>
<time>2010-07-17T16:46:04Z</time>
<desc>lat.=55.758438, lon.=26.023148, Alt.=194.353638m. Speed=0.468000m/h.</desc>
<speed>0.130000</speed>
</trkpt>
<trkpt lat="55.758434" lon="26.023146">
<ele>194.345825</ele>
<time>2010-07-17T16:46:05Z</time>
<desc>lat.=55.758434, lon.=26.023146, Alt.=194.345825m. Speed=0.324000m/h.</desc>
<speed>0.090000</speed>
</trkpt>
<trkpt lat="55.758438" lon="26.023146">
<ele>194.341919</ele>
<time>2010-07-17T16:46:06Z</time>
<desc>lat.=55.758438, lon.=26.023146, Alt.=194.341919m. Speed=0.468000m/h.</desc>
<speed>0.130000</speed>
</trkpt>
<trkpt lat="55.758438" lon="26.023148">
<ele>194.338013</ele>
<time>2010-07-17T16:46:07Z</time>
<desc>lat.=55.758438, lon.=26.023148, Alt.=194.338013m. Speed=0.144000m/h.</desc>
<speed>0.040000</speed>
</trkpt>
<trkpt lat="55.758438" lon="26.023148">
<ele>194.334106</ele>
<time>2010-07-17T16:46:08Z</time>
<desc>lat.=55.758438, lon.=26.023148, Alt.=194.334106m. Speed=0.180000m/h.</desc>
<speed>0.050000</speed>
</trkpt>
<trkpt lat="55.758438" lon="26.023149">
<ele>194.334106</ele>
<time>2010-07-17T16:46:09Z</time>
<desc>lat.=55.758438, lon.=26.023149, Alt.=194.334106m. Speed=0.216000m/h.</desc>
<speed>0.060000</speed>
</trkpt>
<trkpt lat="55.758438" lon="26.023148">
<ele>194.334106</ele>
<time>2010-07-17T16:46:10Z</time>
<desc>lat.=55.758438, lon.=26.023148, Alt.=194.334106m. Speed=0.432000m/h.</desc>
<speed>0.120000</speed>
</trkpt>
<trkpt lat="55.758438" lon="26.023146">
<ele>194.334106</ele>
<time>2010-07-17T16:46:11Z</time>
<desc>lat.=55.758438, lon.=26.023146, Alt.=194.334106m. Speed=0.612000m/h.</desc>
<speed>0.170000</speed>
</trkpt>
<trkpt lat="55.758438" lon="26.023144">
<ele>194.330200</ele>
<time>2010-07-17T16:46:12Z</time>
<desc>lat.=55.758438, lon.=26.023144, Alt.=194.330200m. Speed=0.288000m/h.</desc>
<speed>0.080000</speed>
</trkpt>
<trkpt lat="55.758438" lon="26.023144">
<ele>194.330200</ele>
<time>2010-07-17T16:46:13Z</time>
<desc>lat.=55.758438, lon.=26.023144, Alt.=194.330200m. Speed=0.324000m/h.</desc>
<speed>0.090000</speed>
</trkpt>
<trkpt lat="55.758438" lon="26.023144">
<ele>194.330200</ele>
<time>2010-07-17T16:46:14Z</time>
<desc>lat.=55.758438, lon.=26.023144, Alt.=194.330200m. Speed=0.468000m/h.</desc>
<speed>0.130000</speed>
</trkpt>
<trkpt lat="55.758438" lon="26.023146">
<ele>194.326294</ele>
<time>2010-07-17T16:46:15Z</time>
<desc>lat.=55.758438, lon.=26.023146, Alt.=194.326294m. Speed=0.612000m/h.</desc>
<speed>0.170000</speed>
</trkpt>
<trkpt lat="55.758438" lon="26.023149">
<ele>194.322388</ele>
<time>2010-07-17T16:46:16Z</time>
<desc>lat.=55.758438, lon.=26.023149, Alt.=194.322388m. Speed=0.144000m/h.</desc>
<speed>0.040000</speed>
</trkpt>
<trkpt lat="55.758438" lon="26.023149">
<ele>194.322388</ele>
<time>2010-07-17T16:46:17Z</time>
<desc>lat.=55.758438, lon.=26.023149, Alt.=194.322388m. Speed=0.540000m/h.</desc>
<speed>0.150000</speed>
</trkpt>
<trkpt lat="55.758438" lon="26.023149">
<ele>194.318481</ele>
<time>2010-07-17T16:46:18Z</time>
<desc>lat.=55.758438, lon.=26.023149, Alt.=194.318481m. Speed=0.432000m/h.</desc>
<speed>0.120000</speed>
</trkpt>
<trkpt lat="55.758442" lon="26.023151">
<ele>194.318481</ele>
<time>2010-07-17T16:46:19Z</time>
<desc>lat.=55.758442, lon.=26.023151, Alt.=194.318481m. Speed=0.432000m/h.</desc>
<speed>0.120000</speed>
</trkpt>
<trkpt lat="55.758442" lon="26.023151">
<ele>194.318481</ele>
<time>2010-07-17T16:46:20Z</time>
<desc>lat.=55.758442, lon.=26.023151, Alt.=194.318481m. Speed=0.432000m/h.</desc>
<speed>0.120000</speed>
</trkpt>
<trkpt lat="55.758442" lon="26.023153">
<ele>194.326294</ele>
<time>2010-07-17T16:46:21Z</time>
<desc>lat.=55.758442, lon.=26.023153, Alt.=194.326294m. Speed=0.612000m/h.</desc>
<speed>0.170000</speed>
</trkpt>
<trkpt lat="55.758442" lon="26.023157">
<ele>194.330200</ele>
<time>2010-07-17T16:46:22Z</time>
<desc>lat.=55.758442, lon.=26.023157, Alt.=194.330200m. Speed=0.648000m/h.</desc>
<speed>0.180000</speed>
</trkpt>
<trkpt lat="55.758442" lon="26.023159">
<ele>194.334106</ele>
<time>2010-07-17T16:46:23Z</time>
<desc>lat.=55.758442, lon.=26.023159, Alt.=194.334106m. Speed=0.468000m/h.</desc>
<speed>0.130000</speed>
</trkpt>
<trkpt lat="55.758446" lon="26.023161">
<ele>194.334106</ele>
<time>2010-07-17T16:46:24Z</time>
<desc>lat.=55.758446, lon.=26.023161, Alt.=194.334106m. Speed=0.324000m/h.</desc>
<speed>0.090000</speed>
</trkpt>
<trkpt lat="55.758446" lon="26.023161">
<ele>194.334106</ele>
<time>2010-07-17T16:46:25Z</time>
<desc>lat.=55.758446, lon.=26.023161, Alt.=194.334106m. Speed=0.288000m/h.</desc>
<speed>0.080000</speed>
</trkpt>
<trkpt lat="55.758446" lon="26.023163">
<ele>194.341919</ele>
<time>2010-07-17T16:46:26Z</time>
<desc>lat.=55.758446, lon.=26.023163, Alt.=194.341919m. Speed=0.360000m/h.</desc>
<speed>0.100000</speed>
</trkpt>
<trkpt lat="55.758446" lon="26.023163">
<ele>194.341919</ele>
<time>2010-07-17T16:46:27Z</time>
<desc>lat.=55.758446, lon.=26.023163, Alt.=194.341919m. Speed=1.044000m/h.</desc>
<speed>0.290000</speed>
</trkpt>
<trkpt lat="55.758450" lon="26.023163">
<ele>194.345825</ele>
<time>2010-07-17T16:46:28Z</time>
<desc>lat.=55.758450, lon.=26.023163, Alt.=194.345825m. Speed=1.548000m/h.</desc>
<speed>0.430000</speed>
</trkpt>
<trkpt lat="55.758453" lon="26.023165">
<ele>194.341919</ele>
<time>2010-07-17T16:46:29Z</time>
<desc>lat.=55.758453, lon.=26.023165, Alt.=194.341919m. Speed=1.044000m/h.</desc>
<speed>0.290000</speed>
</trkpt>
<trkpt lat="55.758453" lon="26.023165">
<ele>194.338013</ele>
<time>2010-07-17T16:46:30Z</time>
<desc>lat.=55.758453, lon.=26.023165, Alt.=194.338013m. Speed=0.396000m/h.</desc>
<speed>0.110000</speed>
</trkpt>
<trkpt lat="55.758453" lon="26.023163">
<ele>194.330200</ele>
<time>2010-07-17T16:46:31Z</time>
<desc>lat.=55.758453, lon.=26.023163, Alt.=194.330200m. Speed=1.044000m/h.</desc>
<speed>0.290000</speed>
</trkpt>
<trkpt lat="55.758457" lon="26.023161">
<ele>194.326294</ele>
<time>2010-07-17T16:46:32Z</time>
<desc>lat.=55.758457, lon.=26.023161, Alt.=194.326294m. Speed=1.224000m/h.</desc>
<speed>0.340000</speed>
</trkpt>
<trkpt lat="55.758461" lon="26.023157">
<ele>194.318481</ele>
<time>2010-07-17T16:46:33Z</time>
<desc>lat.=55.758461, lon.=26.023157, Alt.=194.318481m. Speed=1.368000m/h.</desc>
<speed>0.380000</speed>
</trkpt>
<trkpt lat="55.758461" lon="26.023151">
<ele>194.314575</ele>
<time>2010-07-17T16:46:34Z</time>
<desc>lat.=55.758461, lon.=26.023151, Alt.=194.314575m. Speed=1.368000m/h.</desc>
<speed>0.380000</speed>
</trkpt>
<trkpt lat="55.758461" lon="26.023144">
<ele>194.310669</ele>
<time>2010-07-17T16:46:35Z</time>
<desc>lat.=55.758461, lon.=26.023144, Alt.=194.310669m. Speed=2.268000m/h.</desc>
<speed>0.630000</speed>
</trkpt>
<trkpt lat="55.758461" lon="26.023134">
<ele>194.306763</ele>
<time>2010-07-17T16:46:36Z</time>
<desc>lat.=55.758461, lon.=26.023134, Alt.=194.306763m. Speed=3.024000m/h.</desc>
<speed>0.840000</speed>
</trkpt>
<trkpt lat="55.758457" lon="26.023121">
<ele>194.310669</ele>
<time>2010-07-17T16:46:37Z</time>
<desc>lat.=55.758457, lon.=26.023121, Alt.=194.310669m. Speed=3.276000m/h.</desc>
<speed>0.910000</speed>
</trkpt>
<trkpt lat="55.758453" lon="26.023108">
<ele>194.318481</ele>
<time>2010-07-17T16:46:38Z</time>
<desc>lat.=55.758453, lon.=26.023108, Alt.=194.318481m. Speed=4.356000m/h.</desc>
<speed>1.210000</speed>
</trkpt>
<trkpt lat="55.758434" lon="26.023092">
<ele>194.236450</ele>
<time>2010-07-17T16:46:39Z</time>
<desc>lat.=55.758434, lon.=26.023092, Alt.=194.236450m. Speed=5.364000m/h.</desc>
<speed>1.490000</speed>
</trkpt>
<trkpt lat="55.758423" lon="26.023077">
<ele>194.076294</ele>
<time>2010-07-17T16:46:40Z</time>
<desc>lat.=55.758423, lon.=26.023077, Alt.=194.076294m. Speed=4.824000m/h.</desc>
<speed>1.340000</speed>
</trkpt>
<trkpt lat="55.758423" lon="26.023066">
<ele>193.869263</ele>
<time>2010-07-17T16:46:41Z</time>
<desc>lat.=55.758423, lon.=26.023066, Alt.=193.869263m. Speed=3.780000m/h.</desc>
<speed>1.050000</speed>
</trkpt>
<trkpt lat="55.758415" lon="26.023054">
<ele>193.713013</ele>
<time>2010-07-17T16:46:42Z</time>
<desc>lat.=55.758415, lon.=26.023054, Alt.=193.713013m. Speed=3.456000m/h.</desc>
<speed>0.960000</speed>
</trkpt>
<trkpt lat="55.758408" lon="26.023045">
<ele>193.580200</ele>
<time>2010-07-17T16:46:43Z</time>
<desc>lat.=55.758408, lon.=26.023045, Alt.=193.580200m. Speed=3.420000m/h.</desc>
<speed>0.950000</speed>
</trkpt>
<trkpt lat="55.758423" lon="26.023037">
<ele>193.088013</ele>
<time>2010-07-17T16:46:44Z</time>
<desc>lat.=55.758423, lon.=26.023037, Alt.=193.088013m. Speed=2.304000m/h.</desc>
<speed>0.640000</speed>
</trkpt>
<trkpt lat="55.758419" lon="26.023031">
<ele>193.080200</ele>
<time>2010-07-17T16:46:45Z</time>
<desc>lat.=55.758419, lon.=26.023031, Alt.=193.080200m. Speed=2.304000m/h.</desc>
<speed>0.640000</speed>
</trkpt>
<trkpt lat="55.758415" lon="26.023027">
<ele>192.791138</ele>
<time>2010-07-17T16:46:46Z</time>
<desc>lat.=55.758415, lon.=26.023027, Alt.=192.791138m. Speed=1.872000m/h.</desc>
<speed>0.520000</speed>
</trkpt>
<trkpt lat="55.758408" lon="26.023024">
<ele>191.693481</ele>
<time>2010-07-17T16:46:47Z</time>
<desc>lat.=55.758408, lon.=26.023024, Alt.=191.693481m. Speed=1.908000m/h.</desc>
<speed>0.530000</speed>
</trkpt>
<trkpt lat="55.758396" lon="26.022999">
<ele>191.310669</ele>
<time>2010-07-17T16:46:48Z</time>
<desc>lat.=55.758396, lon.=26.022999, Alt.=191.310669m. Speed=2.124000m/h.</desc>
<speed>0.590000</speed>
</trkpt>
<trkpt lat="55.758392" lon="26.022982">
<ele>190.998169</ele>
<time>2010-07-17T16:46:49Z</time>
<desc>lat.=55.758392, lon.=26.022982, Alt.=190.998169m. Speed=1.908000m/h.</desc>
<speed>0.530000</speed>
</trkpt>
<trkpt lat="55.758389" lon="26.022968">
<ele>190.713013</ele>
<time>2010-07-17T16:46:50Z</time>
<desc>lat.=55.758389, lon.=26.022968, Alt.=190.713013m. Speed=1.764000m/h.</desc>
<speed>0.490000</speed>
</trkpt>
<trkpt lat="55.758389" lon="26.022963">
<ele>190.240356</ele>
<time>2010-07-17T16:46:51Z</time>
<desc>lat.=55.758389, lon.=26.022963, Alt.=190.240356m. Speed=1.296000m/h.</desc>
<speed>0.360000</speed>
</trkpt>
<trkpt lat="55.758389" lon="26.022959">
<ele>189.724731</ele>
<time>2010-07-17T16:46:52Z</time>
<desc>lat.=55.758389, lon.=26.022959, Alt.=189.724731m. Speed=1.224000m/h.</desc>
<speed>0.340000</speed>
</trkpt>
<trkpt lat="55.758385" lon="26.022963">
<ele>189.568481</ele>
<time>2010-07-17T16:46:53Z</time>
<desc>lat.=55.758385, lon.=26.022963, Alt.=189.568481m. Speed=0.612000m/h.</desc>
<speed>0.170000</speed>
</trkpt>
<trkpt lat="55.758381" lon="26.022963">
<ele>189.431763</ele>
<time>2010-07-17T16:46:54Z</time>
<desc>lat.=55.758381, lon.=26.022963, Alt.=189.431763m. Speed=0.720000m/h.</desc>
<speed>0.200000</speed>
</trkpt>
<trkpt lat="55.758377" lon="26.022961">
<ele>189.263794</ele>
<time>2010-07-17T16:46:55Z</time>
<desc>lat.=55.758377, lon.=26.022961, Alt.=189.263794m. Speed=0.504000m/h.</desc>
<speed>0.140000</speed>
</trkpt>
<trkpt lat="55.758362" lon="26.022959">
<ele>189.088013</ele>
<time>2010-07-17T16:46:56Z</time>
<desc>lat.=55.758362, lon.=26.022959, Alt.=189.088013m. Speed=0.828000m/h.</desc>
<speed>0.230000</speed>
</trkpt>
<trkpt lat="55.758362" lon="26.022959">
<ele>189.056763</ele>
<time>2010-07-17T16:46:57Z</time>
<desc>lat.=55.758362, lon.=26.022959, Alt.=189.056763m. Speed=0.792000m/h.</desc>
<speed>0.220000</speed>
</trkpt>
<trkpt lat="55.758358" lon="26.022957">
<ele>189.029419</ele>
<time>2010-07-17T16:46:58Z</time>
<desc>lat.=55.758358, lon.=26.022957, Alt.=189.029419m. Speed=0.684000m/h.</desc>
<speed>0.190000</speed>
</trkpt>
<trkpt lat="55.758358" lon="26.022955">
<ele>188.998169</ele>
<time>2010-07-17T16:46:59Z</time>
<desc>lat.=55.758358, lon.=26.022955, Alt.=188.998169m. Speed=0.720000m/h.</desc>
<speed>0.200000</speed>
</trkpt>
<trkpt lat="55.758358" lon="26.022951">
<ele>188.974731</ele>
<time>2010-07-17T16:47:00Z</time>
<desc>lat.=55.758358, lon.=26.022951, Alt.=188.974731m. Speed=0.828000m/h.</desc>
<speed>0.230000</speed>
</trkpt>
<trkpt lat="55.758354" lon="26.022949">
<ele>188.947388</ele>
<time>2010-07-17T16:47:01Z</time>
<desc>lat.=55.758354, lon.=26.022949, Alt.=188.947388m. Speed=0.432000m/h.</desc>
<speed>0.120000</speed>
</trkpt>
<trkpt lat="55.758354" lon="26.022947">
<ele>188.931763</ele>
<time>2010-07-17T16:47:02Z</time>
<desc>lat.=55.758354, lon.=26.022947, Alt.=188.931763m. Speed=0.504000m/h.</desc>
<speed>0.140000</speed>
</trkpt>
<trkpt lat="55.758354" lon="26.022945">
<ele>188.912231</ele>
<time>2010-07-17T16:47:03Z</time>
<desc>lat.=55.758354, lon.=26.022945, Alt.=188.912231m. Speed=0.216000m/h.</desc>
<speed>0.060000</speed>
</trkpt>
<trkpt lat="55.758354" lon="26.022943">
<ele>188.896606</ele>
<time>2010-07-17T16:47:04Z</time>
<desc>lat.=55.758354, lon.=26.022943, Alt.=188.896606m. Speed=0.108000m/h.</desc>
<speed>0.030000</speed>
</trkpt>
<trkpt lat="55.758354" lon="26.022943">
<ele>188.880981</ele>
<time>2010-07-17T16:47:05Z</time>
<desc>lat.=55.758354, lon.=26.022943, Alt.=188.880981m. Speed=0.216000m/h.</desc>
<speed>0.060000</speed>
</trkpt>
<trkpt lat="55.758354" lon="26.022943">
<ele>188.865356</ele>
<time>2010-07-17T16:47:06Z</time>
<desc>lat.=55.758354, lon.=26.022943, Alt.=188.865356m. Speed=0.108000m/h.</desc>
<speed>0.030000</speed>
</trkpt>
<trkpt lat="55.758354" lon="26.022942">
<ele>188.849731</ele>
<time>2010-07-17T16:47:07Z</time>
<desc>lat.=55.758354, lon.=26.022942, Alt.=188.849731m. Speed=0.288000m/h.</desc>
<speed>0.080000</speed>
</trkpt>
<trkpt lat="55.758358" lon="26.022942">
<ele>188.834106</ele>
<time>2010-07-17T16:47:08Z</time>
<desc>lat.=55.758358, lon.=26.022942, Alt.=188.834106m. Speed=0.684000m/h.</desc>
<speed>0.190000</speed>
</trkpt>
<trkpt lat="55.758358" lon="26.022938">
<ele>188.810669</ele>
<time>2010-07-17T16:47:09Z</time>
<desc>lat.=55.758358, lon.=26.022938, Alt.=188.810669m. Speed=0.756000m/h.</desc>
<speed>0.210000</speed>
</trkpt>
<trkpt lat="55.758358" lon="26.022936">
<ele>188.795044</ele>
<time>2010-07-17T16:47:10Z</time>
<desc>lat.=55.758358, lon.=26.022936, Alt.=188.795044m. Speed=0.864000m/h.</desc>
<speed>0.240000</speed>
</trkpt>
<trkpt lat="55.758358" lon="26.022932">
<ele>188.771606</ele>
<time>2010-07-17T16:47:11Z</time>
<desc>lat.=55.758358, lon.=26.022932, Alt.=188.771606m. Speed=0.684000m/h.</desc>
<speed>0.190000</speed>
</trkpt>
<trkpt lat="55.758358" lon="26.022928">
<ele>188.755981</ele>
<time>2010-07-17T16:47:12Z</time>
<desc>lat.=55.758358, lon.=26.022928, Alt.=188.755981m. Speed=0.504000m/h.</desc>
<speed>0.140000</speed>
</trkpt>
<trkpt lat="55.758358" lon="26.022926">
<ele>188.740356</ele>
<time>2010-07-17T16:47:13Z</time>
<desc>lat.=55.758358, lon.=26.022926, Alt.=188.740356m. Speed=0.324000m/h.</desc>
<speed>0.090000</speed>
</trkpt>
<trkpt lat="55.758358" lon="26.022924">
<ele>188.724731</ele>
<time>2010-07-17T16:47:14Z</time>
<desc>lat.=55.758358, lon.=26.022924, Alt.=188.724731m. Speed=0.360000m/h.</desc>
<speed>0.100000</speed>
</trkpt>
<trkpt lat="55.758362" lon="26.022924">
<ele>188.713013</ele>
<time>2010-07-17T16:47:15Z</time>
<desc>lat.=55.758362, lon.=26.022924, Alt.=188.713013m. Speed=0.288000m/h.</desc>
<speed>0.080000</speed>
</trkpt>
<trkpt lat="55.758362" lon="26.022926">
<ele>188.701294</ele>
<time>2010-07-17T16:47:16Z</time>
<desc>lat.=55.758362, lon.=26.022926, Alt.=188.701294m. Speed=0.252000m/h.</desc>
<speed>0.070000</speed>
</trkpt>
<trkpt lat="55.758362" lon="26.022926">
<ele>188.685669</ele>
<time>2010-07-17T16:47:17Z</time>
<desc>lat.=55.758362, lon.=26.022926, Alt.=188.685669m. Speed=0.432000m/h.</desc>
<speed>0.120000</speed>
</trkpt>
<trkpt lat="55.758358" lon="26.022926">
<ele>188.673950</ele>
<time>2010-07-17T16:47:18Z</time>
<desc>lat.=55.758358, lon.=26.022926, Alt.=188.673950m. Speed=0.612000m/h.</desc>
<speed>0.170000</speed>
</trkpt>
<trkpt lat="55.758358" lon="26.022926">
<ele>188.662231</ele>
<time>2010-07-17T16:47:19Z</time>
<desc>lat.=55.758358, lon.=26.022926, Alt.=188.662231m. Speed=0.684000m/h.</desc>
<speed>0.190000</speed>
</trkpt>
<trkpt lat="55.758358" lon="26.022923">
<ele>188.650513</ele>
<time>2010-07-17T16:47:20Z</time>
<desc>lat.=55.758358, lon.=26.022923, Alt.=188.650513m. Speed=0.216000m/h.</desc>
<speed>0.060000</speed>
</trkpt>
<trkpt lat="55.758358" lon="26.022923">
<ele>188.642700</ele>
<time>2010-07-17T16:47:21Z</time>
<desc>lat.=55.758358, lon.=26.022923, Alt.=188.642700m. Speed=0.180000m/h.</desc>
<speed>0.050000</speed>
</trkpt>
<trkpt lat="55.758358" lon="26.022923">
<ele>188.630981</ele>
<time>2010-07-17T16:47:22Z</time>
<desc>lat.=55.758358, lon.=26.022923, Alt.=188.630981m. Speed=0.324000m/h.</desc>
<speed>0.090000</speed>
</trkpt>
<trkpt lat="55.758358" lon="26.022923">
<ele>188.619263</ele>
<time>2010-07-17T16:47:23Z</time>
<desc>lat.=55.758358, lon.=26.022923, Alt.=188.619263m. Speed=0.288000m/h.</desc>
<speed>0.080000</speed>
</trkpt>
<trkpt lat="55.758358" lon="26.022923">
<ele>188.603638</ele>
<time>2010-07-17T16:47:24Z</time>
<desc>lat.=55.758358, lon.=26.022923, Alt.=188.603638m. Speed=0.504000m/h.</desc>
<speed>0.140000</speed>
</trkpt>
<trkpt lat="55.758358" lon="26.022924">
<ele>188.584106</ele>
<time>2010-07-17T16:47:25Z</time>
<desc>lat.=55.758358, lon.=26.022924, Alt.=188.584106m. Speed=0.432000m/h.</desc>
<speed>0.120000</speed>
</trkpt>
<trkpt lat="55.758362" lon="26.022926">
<ele>188.564575</ele>
<time>2010-07-17T16:47:26Z</time>
<desc>lat.=55.758362, lon.=26.022926, Alt.=188.564575m. Speed=0.576000m/h.</desc>
<speed>0.160000</speed>
</trkpt>
<trkpt lat="55.758362" lon="26.022928">
<ele>188.545044</ele>
<time>2010-07-17T16:47:27Z</time>
<desc>lat.=55.758362, lon.=26.022928, Alt.=188.545044m. Speed=0.504000m/h.</desc>
<speed>0.140000</speed>
</trkpt>
<trkpt lat="55.758362" lon="26.022930">
<ele>188.525513</ele>
<time>2010-07-17T16:47:28Z</time>
<desc>lat.=55.758362, lon.=26.022930, Alt.=188.525513m. Speed=0.864000m/h.</desc>
<speed>0.240000</speed>
</trkpt>
<trkpt lat="55.758362" lon="26.022934">
<ele>188.513794</ele>
<time>2010-07-17T16:47:29Z</time>
<desc>lat.=55.758362, lon.=26.022934, Alt.=188.513794m. Speed=0.720000m/h.</desc>
<speed>0.200000</speed>
</trkpt>
<trkpt lat="55.758366" lon="26.022936">
<ele>188.509888</ele>
<time>2010-07-17T16:47:30Z</time>
<desc>lat.=55.758366, lon.=26.022936, Alt.=188.509888m. Speed=0.432000m/h.</desc>
<speed>0.120000</speed>
</trkpt>
<trkpt lat="55.758366" lon="26.022936">
<ele>188.502075</ele>
<time>2010-07-17T16:47:31Z</time>
<desc>lat.=55.758366, lon.=26.022936, Alt.=188.502075m. Speed=0.540000m/h.</desc>
<speed>0.150000</speed>
</trkpt>
<trkpt lat="55.758366" lon="26.022936">
<ele>188.490356</ele>
<time>2010-07-17T16:47:32Z</time>
<desc>lat.=55.758366, lon.=26.022936, Alt.=188.490356m. Speed=0.216000m/h.</desc>
<speed>0.060000</speed>
</trkpt>
<trkpt lat="55.758366" lon="26.022938">
<ele>188.482544</ele>
<time>2010-07-17T16:47:33Z</time>
<desc>lat.=55.758366, lon.=26.022938, Alt.=188.482544m. Speed=0.180000m/h.</desc>
<speed>0.050000</speed>
</trkpt>
<trkpt lat="55.758366" lon="26.022938">
<ele>188.474731</ele>
<time>2010-07-17T16:47:34Z</time>
<desc>lat.=55.758366, lon.=26.022938, Alt.=188.474731m. Speed=0.324000m/h.</desc>
<speed>0.090000</speed>
</trkpt>
<trkpt lat="55.758366" lon="26.022940">
<ele>188.463013</ele>
<time>2010-07-17T16:47:35Z</time>
<desc>lat.=55.758366, lon.=26.022940, Alt.=188.463013m. Speed=0.144000m/h.</desc>
<speed>0.040000</speed>
</trkpt>
<trkpt lat="55.758366" lon="26.022940">
<ele>188.451294</ele>
<time>2010-07-17T16:47:36Z</time>
<desc>lat.=55.758366, lon.=26.022940, Alt.=188.451294m. Speed=0.036000m/h.</desc>
<speed>0.010000</speed>
</trkpt>
<trkpt lat="55.758366" lon="26.022940">
<ele>188.443481</ele>
<time>2010-07-17T16:47:37Z</time>
<desc>lat.=55.758366, lon.=26.022940, Alt.=188.443481m. Speed=0.360000m/h.</desc>
<speed>0.100000</speed>
</trkpt>
<trkpt lat="55.758366" lon="26.022940">
<ele>188.435669</ele>
<time>2010-07-17T16:47:38Z</time>
<desc>lat.=55.758366, lon.=26.022940, Alt.=188.435669m. Speed=0.576000m/h.</desc>
<speed>0.160000</speed>
</trkpt>
<trkpt lat="55.758366" lon="26.022938">
<ele>188.423950</ele>
<time>2010-07-17T16:47:39Z</time>
<desc>lat.=55.758366, lon.=26.022938, Alt.=188.423950m. Speed=0.504000m/h.</desc>
<speed>0.140000</speed>
</trkpt>
<trkpt lat="55.758366" lon="26.022936">
<ele>188.408325</ele>
<time>2010-07-17T16:47:40Z</time>
<desc>lat.=55.758366, lon.=26.022936, Alt.=188.408325m. Speed=0.576000m/h.</desc>
<speed>0.160000</speed>
</trkpt>
<trkpt lat="55.758369" lon="26.022934">
<ele>188.388794</ele>
<time>2010-07-17T16:47:41Z</time>
<desc>lat.=55.758369, lon.=26.022934, Alt.=188.388794m. Speed=0.684000m/h.</desc>
<speed>0.190000</speed>
</trkpt>
<trkpt lat="55.758369" lon="26.022932">
<ele>188.369263</ele>
<time>2010-07-17T16:47:42Z</time>
<desc>lat.=55.758369, lon.=26.022932, Alt.=188.369263m. Speed=0.036000m/h.</desc>
<speed>0.010000</speed>
</trkpt>
<trkpt lat="55.758369" lon="26.022932">
<ele>188.345825</ele>
<time>2010-07-17T16:47:43Z</time>
<desc>lat.=55.758369, lon.=26.022932, Alt.=188.345825m. Speed=0.504000m/h.</desc>
<speed>0.140000</speed>
</trkpt>
<trkpt lat="55.758369" lon="26.022932">
<ele>188.314575</ele>
<time>2010-07-17T16:47:44Z</time>
<desc>lat.=55.758369, lon.=26.022932, Alt.=188.314575m. Speed=0.252000m/h.</desc>
<speed>0.070000</speed>
</trkpt>
<trkpt lat="55.758366" lon="26.022932">
<ele>188.291138</ele>
<time>2010-07-17T16:47:45Z</time>
<desc>lat.=55.758366, lon.=26.022932, Alt.=188.291138m. Speed=0.144000m/h.</desc>
<speed>0.040000</speed>
</trkpt>
<trkpt lat="55.758366" lon="26.022932">
<ele>188.267700</ele>
<time>2010-07-17T16:47:46Z</time>
<desc>lat.=55.758366, lon.=26.022932, Alt.=188.267700m. Speed=0.324000m/h.</desc>
<speed>0.090000</speed>
</trkpt>
<trkpt lat="55.758369" lon="26.022934">
<ele>188.244263</ele>
<time>2010-07-17T16:47:47Z</time>
<desc>lat.=55.758369, lon.=26.022934, Alt.=188.244263m. Speed=0.972000m/h.</desc>
<speed>0.270000</speed>
</trkpt>
<trkpt lat="55.758369" lon="26.022936">
<ele>188.224731</ele>
<time>2010-07-17T16:47:48Z</time>
<desc>lat.=55.758369, lon.=26.022936, Alt.=188.224731m. Speed=0.720000m/h.</desc>
<speed>0.200000</speed>
</trkpt>
<trkpt lat="55.758369" lon="26.022940">
<ele>188.209106</ele>
<time>2010-07-17T16:47:49Z</time>
<desc>lat.=55.758369, lon.=26.022940, Alt.=188.209106m. Speed=0.648000m/h.</desc>
<speed>0.180000</speed>
</trkpt>
<trkpt lat="55.758373" lon="26.022942">
<ele>188.189575</ele>
<time>2010-07-17T16:47:50Z</time>
<desc>lat.=55.758373, lon.=26.022942, Alt.=188.189575m. Speed=0.468000m/h.</desc>
<speed>0.130000</speed>
</trkpt>
<trkpt lat="55.758373" lon="26.022943">
<ele>188.170044</ele>
<time>2010-07-17T16:47:51Z</time>
<desc>lat.=55.758373, lon.=26.022943, Alt.=188.170044m. Speed=0.468000m/h.</desc>
<speed>0.130000</speed>
</trkpt>
<trkpt lat="55.758373" lon="26.022945">
<ele>188.150513</ele>
<time>2010-07-17T16:47:52Z</time>
<desc>lat.=55.758373, lon.=26.022945, Alt.=188.150513m. Speed=0.288000m/h.</desc>
<speed>0.080000</speed>
</trkpt>
<trkpt lat="55.758373" lon="26.022945">
<ele>188.130981</ele>
<time>2010-07-17T16:47:53Z</time>
<desc>lat.=55.758373, lon.=26.022945, Alt.=188.130981m. Speed=0.396000m/h.</desc>
<speed>0.110000</speed>
</trkpt>
<trkpt lat="55.758377" lon="26.022945">
<ele>188.111450</ele>
<time>2010-07-17T16:47:54Z</time>
<desc>lat.=55.758377, lon.=26.022945, Alt.=188.111450m. Speed=0.144000m/h.</desc>
<speed>0.040000</speed>
</trkpt>
<trkpt lat="55.758373" lon="26.022945">
<ele>188.091919</ele>
<time>2010-07-17T16:47:55Z</time>
<desc>lat.=55.758373, lon.=26.022945, Alt.=188.091919m. Speed=0.108000m/h.</desc>
<speed>0.030000</speed>
</trkpt>
<trkpt lat="55.758373" lon="26.022945">
<ele>188.076294</ele>
<time>2010-07-17T16:47:56Z</time>
<desc>lat.=55.758373, lon.=26.022945, Alt.=188.076294m. Speed=0.252000m/h.</desc>
<speed>0.070000</speed>
</trkpt>
<trkpt lat="55.758373" lon="26.022945">
<ele>188.056763</ele>
<time>2010-07-17T16:47:57Z</time>
<desc>lat.=55.758373, lon.=26.022945, Alt.=188.056763m. Speed=0.360000m/h.</desc>
<speed>0.100000</speed>
</trkpt>
<trkpt lat="55.758377" lon="26.022945">
<ele>188.041138</ele>
<time>2010-07-17T16:47:58Z</time>
<desc>lat.=55.758377, lon.=26.022945, Alt.=188.041138m. Speed=0.360000m/h.</desc>
<speed>0.100000</speed>
</trkpt>
<trkpt lat="55.758377" lon="26.022947">
<ele>188.017700</ele>
<time>2010-07-17T16:47:59Z</time>
<desc>lat.=55.758377, lon.=26.022947, Alt.=188.017700m. Speed=0.288000m/h.</desc>
<speed>0.080000</speed>
</trkpt>
<trkpt lat="55.758377" lon="26.022947">
<ele>187.998169</ele>
<time>2010-07-17T16:48:00Z</time>
<desc>lat.=55.758377, lon.=26.022947, Alt.=187.998169m. Speed=0.360000m/h.</desc>
<speed>0.100000</speed>
</trkpt>
<trkpt lat="55.758377" lon="26.022949">
<ele>187.974731</ele>
<time>2010-07-17T16:48:01Z</time>
<desc>lat.=55.758377, lon.=26.022949, Alt.=187.974731m. Speed=0.324000m/h.</desc>
<speed>0.090000</speed>
</trkpt>
<trkpt lat="55.758377" lon="26.022949">
<ele>187.947388</ele>
<time>2010-07-17T16:48:02Z</time>
<desc>lat.=55.758377, lon.=26.022949, Alt.=187.947388m. Speed=0.216000m/h.</desc>
<speed>0.060000</speed>
</trkpt>
<trkpt lat="55.758373" lon="26.022949">
<ele>187.920044</ele>
<time>2010-07-17T16:48:03Z</time>
<desc>lat.=55.758373, lon.=26.022949, Alt.=187.920044m. Speed=0.396000m/h.</desc>
<speed>0.110000</speed>
</trkpt>
<trkpt lat="55.758373" lon="26.022951">
<ele>187.888794</ele>
<time>2010-07-17T16:48:04Z</time>
<desc>lat.=55.758373, lon.=26.022951, Alt.=187.888794m. Speed=0.252000m/h.</desc>
<speed>0.070000</speed>
</trkpt>
<trkpt lat="55.758373" lon="26.022951">
<ele>187.857544</ele>
<time>2010-07-17T16:48:05Z</time>
<desc>lat.=55.758373, lon.=26.022951, Alt.=187.857544m. Speed=0.036000m/h.</desc>
<speed>0.010000</speed>
</trkpt>
<trkpt lat="55.758373" lon="26.022949">
<ele>187.834106</ele>
<time>2010-07-17T16:48:06Z</time>
<desc>lat.=55.758373, lon.=26.022949, Alt.=187.834106m. Speed=0.468000m/h.</desc>
<speed>0.130000</speed>
</trkpt>
<trkpt lat="55.758373" lon="26.022947">
<ele>187.802856</ele>
<time>2010-07-17T16:48:07Z</time>
<desc>lat.=55.758373, lon.=26.022947, Alt.=187.802856m. Speed=0.324000m/h.</desc>
<speed>0.090000</speed>
</trkpt>
<trkpt lat="55.758373" lon="26.022947">
<ele>187.771606</ele>
<time>2010-07-17T16:48:08Z</time>
<desc>lat.=55.758373, lon.=26.022947, Alt.=187.771606m. Speed=0.180000m/h.</desc>
<speed>0.050000</speed>
</trkpt>
<trkpt lat="55.758373" lon="26.022945">
<ele>187.736450</ele>
<time>2010-07-17T16:48:09Z</time>
<desc>lat.=55.758373, lon.=26.022945, Alt.=187.736450m. Speed=0.432000m/h.</desc>
<speed>0.120000</speed>
</trkpt>
<trkpt lat="55.758373" lon="26.022945">
<ele>187.709106</ele>
<time>2010-07-17T16:48:10Z</time>
<desc>lat.=55.758373, lon.=26.022945, Alt.=187.709106m. Speed=0.144000m/h.</desc>
<speed>0.040000</speed>
</trkpt>
<trkpt lat="55.758373" lon="26.022945">
<ele>187.681763</ele>
<time>2010-07-17T16:48:11Z</time>
<desc>lat.=55.758373, lon.=26.022945, Alt.=187.681763m. Speed=0.396000m/h.</desc>
<speed>0.110000</speed>
</trkpt>
<trkpt lat="55.758373" lon="26.022945">
<ele>187.662231</ele>
<time>2010-07-17T16:48:12Z</time>
<desc>lat.=55.758373, lon.=26.022945, Alt.=187.662231m. Speed=0.288000m/h.</desc>
<speed>0.080000</speed>
</trkpt>
<trkpt lat="55.758373" lon="26.022947">
<ele>187.646606</ele>
<time>2010-07-17T16:48:13Z</time>
<desc>lat.=55.758373, lon.=26.022947, Alt.=187.646606m. Speed=0.360000m/h.</desc>
<speed>0.100000</speed>
</trkpt>
<trkpt lat="55.758373" lon="26.022949">
<ele>187.627075</ele>
<time>2010-07-17T16:48:14Z</time>
<desc>lat.=55.758373, lon.=26.022949, Alt.=187.627075m. Speed=1.044000m/h.</desc>
<speed>0.290000</speed>
</trkpt>
<trkpt lat="55.758377" lon="26.022953">
<ele>187.611450</ele>
<time>2010-07-17T16:48:15Z</time>
<desc>lat.=55.758377, lon.=26.022953, Alt.=187.611450m. Speed=0.468000m/h.</desc>
<speed>0.130000</speed>
</trkpt>
<trkpt lat="55.758377" lon="26.022955">
<ele>187.595825</ele>
<time>2010-07-17T16:48:16Z</time>
<desc>lat.=55.758377, lon.=26.022955, Alt.=187.595825m. Speed=0.144000m/h.</desc>
<speed>0.040000</speed>
</trkpt>
<trkpt lat="55.758377" lon="26.022955">
<ele>187.580200</ele>
<time>2010-07-17T16:48:17Z</time>
<desc>lat.=55.758377, lon.=26.022955, Alt.=187.580200m. Speed=0.252000m/h.</desc>
<speed>0.070000</speed>
</trkpt>
<trkpt lat="55.758377" lon="26.022957">
<ele>187.564575</ele>
<time>2010-07-17T16:48:18Z</time>
<desc>lat.=55.758377, lon.=26.022957, Alt.=187.564575m. Speed=0.432000m/h.</desc>
<speed>0.120000</speed>
</trkpt>
<trkpt lat="55.758377" lon="26.022957">
<ele>187.548950</ele>
<time>2010-07-17T16:48:19Z</time>
<desc>lat.=55.758377, lon.=26.022957, Alt.=187.548950m. Speed=0.432000m/h.</desc>
<speed>0.120000</speed>
</trkpt>
<trkpt lat="55.758381" lon="26.022957">
<ele>187.533325</ele>
<time>2010-07-17T16:48:20Z</time>
<desc>lat.=55.758381, lon.=26.022957, Alt.=187.533325m. Speed=0.468000m/h.</desc>
<speed>0.130000</speed>
</trkpt>
<trkpt lat="55.758381" lon="26.022957">
<ele>187.517700</ele>
<time>2010-07-17T16:48:21Z</time>
<desc>lat.=55.758381, lon.=26.022957, Alt.=187.517700m. Speed=0.504000m/h.</desc>
<speed>0.140000</speed>
</trkpt>
<trkpt lat="55.758381" lon="26.022955">
<ele>187.502075</ele>
<time>2010-07-17T16:48:22Z</time>
<desc>lat.=55.758381, lon.=26.022955, Alt.=187.502075m. Speed=0.288000m/h.</desc>
<speed>0.080000</speed>
</trkpt>
<trkpt lat="55.758381" lon="26.022955">
<ele>187.486450</ele>
<time>2010-07-17T16:48:23Z</time>
<desc>lat.=55.758381, lon.=26.022955, Alt.=187.486450m. Speed=0.216000m/h.</desc>
<speed>0.060000</speed>
</trkpt>
<trkpt lat="55.758381" lon="26.022955">
<ele>187.474731</ele>
<time>2010-07-17T16:48:24Z</time>
<desc>lat.=55.758381, lon.=26.022955, Alt.=187.474731m. Speed=0.360000m/h.</desc>
<speed>0.100000</speed>
</trkpt>
<trkpt lat="55.758385" lon="26.022957">
<ele>187.474731</ele>
<time>2010-07-17T16:48:25Z</time>
<desc>lat.=55.758385, lon.=26.022957, Alt.=187.474731m. Speed=0.360000m/h.</desc>
<speed>0.100000</speed>
</trkpt>
<trkpt lat="55.758385" lon="26.022957">
<ele>187.474731</ele>
<time>2010-07-17T16:48:26Z</time>
<desc>lat.=55.758385, lon.=26.022957, Alt.=187.474731m. Speed=0.612000m/h.</desc>
<speed>0.170000</speed>
</trkpt>
<trkpt lat="55.758385" lon="26.022957">
<ele>187.478638</ele>
<time>2010-07-17T16:48:27Z</time>
<desc>lat.=55.758385, lon.=26.022957, Alt.=187.478638m. Speed=0.720000m/h.</desc>
<speed>0.200000</speed>
</trkpt>
<trkpt lat="55.758389" lon="26.022957">
<ele>187.474731</ele>
<time>2010-07-17T16:48:28Z</time>
<desc>lat.=55.758389, lon.=26.022957, Alt.=187.474731m. Speed=0.792000m/h.</desc>
<speed>0.220000</speed>
</trkpt>
<trkpt lat="55.758389" lon="26.022959">
<ele>187.466919</ele>
<time>2010-07-17T16:48:29Z</time>
<desc>lat.=55.758389, lon.=26.022959, Alt.=187.466919m. Speed=0.648000m/h.</desc>
<speed>0.180000</speed>
</trkpt>
<trkpt lat="55.758392" lon="26.022961">
<ele>187.459106</ele>
<time>2010-07-17T16:48:30Z</time>
<desc>lat.=55.758392, lon.=26.022961, Alt.=187.459106m. Speed=1.080000m/h.</desc>
<speed>0.300000</speed>
</trkpt>
<trkpt lat="55.758392" lon="26.022953">
<ele>187.318481</ele>
<time>2010-07-17T16:48:31Z</time>
<desc>lat.=55.758392, lon.=26.022953, Alt.=187.318481m. Speed=0.612000m/h.</desc>
<speed>0.170000</speed>
</trkpt>
<trkpt lat="55.758389" lon="26.022951">
<ele>187.205200</ele>
<time>2010-07-17T16:48:32Z</time>
<desc>lat.=55.758389, lon.=26.022951, Alt.=187.205200m. Speed=0.324000m/h.</desc>
<speed>0.090000</speed>
</trkpt>
<trkpt lat="55.758392" lon="26.022951">
<ele>186.931763</ele>
<time>2010-07-17T16:48:33Z</time>
<desc>lat.=55.758392, lon.=26.022951, Alt.=186.931763m. Speed=0.504000m/h.</desc>
<speed>0.140000</speed>
</trkpt>
<trkpt lat="55.758389" lon="26.022951">
<ele>186.873169</ele>
<time>2010-07-17T16:48:34Z</time>
<desc>lat.=55.758389, lon.=26.022951, Alt.=186.873169m. Speed=0.504000m/h.</desc>
<speed>0.140000</speed>
</trkpt>
<trkpt lat="55.758389" lon="26.022951">
<ele>186.861450</ele>
<time>2010-07-17T16:48:35Z</time>
<desc>lat.=55.758389, lon.=26.022951, Alt.=186.861450m. Speed=0.324000m/h.</desc>
<speed>0.090000</speed>
</trkpt>
<trkpt lat="55.758389" lon="26.022949">
<ele>186.857544</ele>
<time>2010-07-17T16:48:36Z</time>
<desc>lat.=55.758389, lon.=26.022949, Alt.=186.857544m. Speed=0.540000m/h.</desc>
<speed>0.150000</speed>
</trkpt>
<trkpt lat="55.758389" lon="26.022947">
<ele>186.849731</ele>
<time>2010-07-17T16:48:37Z</time>
<desc>lat.=55.758389, lon.=26.022947, Alt.=186.849731m. Speed=0.792000m/h.</desc>
<speed>0.220000</speed>
</trkpt>
<trkpt lat="55.758392" lon="26.022943">
<ele>186.845825</ele>
<time>2010-07-17T16:48:38Z</time>
<desc>lat.=55.758392, lon.=26.022943, Alt.=186.845825m. Speed=0.648000m/h.</desc>
<speed>0.180000</speed>
</trkpt>
<trkpt lat="55.758389" lon="26.022940">
<ele>186.841919</ele>
<time>2010-07-17T16:48:39Z</time>
<desc>lat.=55.758389, lon.=26.022940, Alt.=186.841919m. Speed=0.864000m/h.</desc>
<speed>0.240000</speed>
</trkpt>
<trkpt lat="55.758389" lon="26.022936">
<ele>186.834106</ele>
<time>2010-07-17T16:48:40Z</time>
<desc>lat.=55.758389, lon.=26.022936, Alt.=186.834106m. Speed=0.648000m/h.</desc>
<speed>0.180000</speed>
</trkpt>
<trkpt lat="55.758389" lon="26.022934">
<ele>186.822388</ele>
<time>2010-07-17T16:48:41Z</time>
<desc>lat.=55.758389, lon.=26.022934, Alt.=186.822388m. Speed=0.540000m/h.</desc>
<speed>0.150000</speed>
</trkpt>
<trkpt lat="55.758389" lon="26.022932">
<ele>186.806763</ele>
<time>2010-07-17T16:48:42Z</time>
<desc>lat.=55.758389, lon.=26.022932, Alt.=186.806763m. Speed=0.180000m/h.</desc>
<speed>0.050000</speed>
</trkpt>
<trkpt lat="55.758389" lon="26.022930">
<ele>186.791138</ele>
<time>2010-07-17T16:48:43Z</time>
<desc>lat.=55.758389, lon.=26.022930, Alt.=186.791138m. Speed=0.216000m/h.</desc>
<speed>0.060000</speed>
</trkpt>
<trkpt lat="55.758392" lon="26.022932">
<ele>186.779419</ele>
<time>2010-07-17T16:48:44Z</time>
<desc>lat.=55.758392, lon.=26.022932, Alt.=186.779419m. Speed=0.684000m/h.</desc>
<speed>0.190000</speed>
</trkpt>
<trkpt lat="55.758392" lon="26.022932">
<ele>186.767700</ele>
<time>2010-07-17T16:48:45Z</time>
<desc>lat.=55.758392, lon.=26.022932, Alt.=186.767700m. Speed=0.504000m/h.</desc>
<speed>0.140000</speed>
</trkpt>
<trkpt lat="55.758392" lon="26.022934">
<ele>186.755981</ele>
<time>2010-07-17T16:48:46Z</time>
<desc>lat.=55.758392, lon.=26.022934, Alt.=186.755981m. Speed=0.864000m/h.</desc>
<speed>0.240000</speed>
</trkpt>
<trkpt lat="55.758396" lon="26.022936">
<ele>186.752075</ele>
<time>2010-07-17T16:48:47Z</time>
<desc>lat.=55.758396, lon.=26.022936, Alt.=186.752075m. Speed=0.684000m/h.</desc>
<speed>0.190000</speed>
</trkpt>
<trkpt lat="55.758396" lon="26.022936">
<ele>186.755981</ele>
<time>2010-07-17T16:48:48Z</time>
<desc>lat.=55.758396, lon.=26.022936, Alt.=186.755981m. Speed=0.972000m/h.</desc>
<speed>0.270000</speed>
</trkpt>
<trkpt lat="55.758400" lon="26.022938">
<ele>186.759888</ele>
<time>2010-07-17T16:48:49Z</time>
<desc>lat.=55.758400, lon.=26.022938, Alt.=186.759888m. Speed=0.972000m/h.</desc>
<speed>0.270000</speed>
</trkpt>
<trkpt lat="55.758400" lon="26.022940">
<ele>186.771606</ele>
<time>2010-07-17T16:48:50Z</time>
<desc>lat.=55.758400, lon.=26.022940, Alt.=186.771606m. Speed=0.900000m/h.</desc>
<speed>0.250000</speed>
</trkpt>
<trkpt lat="55.758404" lon="26.022943">
<ele>186.779419</ele>
<time>2010-07-17T16:48:51Z</time>
<desc>lat.=55.758404, lon.=26.022943, Alt.=186.779419m. Speed=1.332000m/h.</desc>
<speed>0.370000</speed>
</trkpt>
<trkpt lat="55.758400" lon="26.022938">
<ele>186.697388</ele>
<time>2010-07-17T16:48:52Z</time>
<desc>lat.=55.758400, lon.=26.022938, Alt.=186.697388m. Speed=0.396000m/h.</desc>
<speed>0.110000</speed>
</trkpt>
<trkpt lat="55.758396" lon="26.022936">
<ele>186.482544</ele>
<time>2010-07-17T16:48:53Z</time>
<desc>lat.=55.758396, lon.=26.022936, Alt.=186.482544m. Speed=0.468000m/h.</desc>
<speed>0.130000</speed>
</trkpt>
<trkpt lat="55.758392" lon="26.022934">
<ele>186.431763</ele>
<time>2010-07-17T16:48:54Z</time>
<desc>lat.=55.758392, lon.=26.022934, Alt.=186.431763m. Speed=0.576000m/h.</desc>
<speed>0.160000</speed>
</trkpt>
<trkpt lat="55.758392" lon="26.022938">
<ele>186.275513</ele>
<time>2010-07-17T16:48:55Z</time>
<desc>lat.=55.758392, lon.=26.022938, Alt.=186.275513m. Speed=0.252000m/h.</desc>
<speed>0.070000</speed>
</trkpt>
<trkpt lat="55.758392" lon="26.022940">
<ele>186.271606</ele>
<time>2010-07-17T16:48:56Z</time>
<desc>lat.=55.758392, lon.=26.022940, Alt.=186.271606m. Speed=0.288000m/h.</desc>
<speed>0.080000</speed>
</trkpt>
<trkpt lat="55.758392" lon="26.022940">
<ele>186.271606</ele>
<time>2010-07-17T16:48:57Z</time>
<desc>lat.=55.758392, lon.=26.022940, Alt.=186.271606m. Speed=0.180000m/h.</desc>
<speed>0.050000</speed>
</trkpt>
<trkpt lat="55.758392" lon="26.022942">
<ele>186.267700</ele>
<time>2010-07-17T16:48:58Z</time>
<desc>lat.=55.758392, lon.=26.022942, Alt.=186.267700m. Speed=0.504000m/h.</desc>
<speed>0.140000</speed>
</trkpt>
<trkpt lat="55.758392" lon="26.022943">
<ele>186.259888</ele>
<time>2010-07-17T16:48:59Z</time>
<desc>lat.=55.758392, lon.=26.022943, Alt.=186.259888m. Speed=0.000000m/h.</desc>
<speed>0.000000</speed>
</trkpt>
<trkpt lat="55.758392" lon="26.022943">
<ele>186.252075</ele>
<time>2010-07-17T16:49:00Z</time>
<desc>lat.=55.758392, lon.=26.022943, Alt.=186.252075m. Speed=0.504000m/h.</desc>
<speed>0.140000</speed>
</trkpt>
<trkpt lat="55.758392" lon="26.022942">
<ele>186.244263</ele>
<time>2010-07-17T16:49:01Z</time>
<desc>lat.=55.758392, lon.=26.022942, Alt.=186.244263m. Speed=0.468000m/h.</desc>
<speed>0.130000</speed>
</trkpt>
<trkpt lat="55.758392" lon="26.022942">
<ele>186.236450</ele>
<time>2010-07-17T16:49:02Z</time>
<desc>lat.=55.758392, lon.=26.022942, Alt.=186.236450m. Speed=0.648000m/h.</desc>
<speed>0.180000</speed>
</trkpt>
<trkpt lat="55.758389" lon="26.022943">
<ele>186.224731</ele>
<time>2010-07-17T16:49:03Z</time>
<desc>lat.=55.758389, lon.=26.022943, Alt.=186.224731m. Speed=0.432000m/h.</desc>
<speed>0.120000</speed>
</trkpt>
<trkpt lat="55.758389" lon="26.022943">
<ele>186.213013</ele>
<time>2010-07-17T16:49:04Z</time>
<desc>lat.=55.758389, lon.=26.022943, Alt.=186.213013m. Speed=0.324000m/h.</desc>
<speed>0.090000</speed>
</trkpt>
<trkpt lat="55.758389" lon="26.022943">
<ele>186.201294</ele>
<time>2010-07-17T16:49:05Z</time>
<desc>lat.=55.758389, lon.=26.022943, Alt.=186.201294m. Speed=0.252000m/h.</desc>
<speed>0.070000</speed>
</trkpt>
<trkpt lat="55.758389" lon="26.022945">
<ele>186.189575</ele>
<time>2010-07-17T16:49:06Z</time>
<desc>lat.=55.758389, lon.=26.022945, Alt.=186.189575m. Speed=0.828000m/h.</desc>
<speed>0.230000</speed>
</trkpt>
<trkpt lat="55.758389" lon="26.022947">
<ele>186.177856</ele>
<time>2010-07-17T16:49:07Z</time>
<desc>lat.=55.758389, lon.=26.022947, Alt.=186.177856m. Speed=0.720000m/h.</desc>
<speed>0.200000</speed>
</trkpt>
<trkpt lat="55.758389" lon="26.022951">
<ele>186.166138</ele>
<time>2010-07-17T16:49:08Z</time>
<desc>lat.=55.758389, lon.=26.022951, Alt.=186.166138m. Speed=0.972000m/h.</desc>
<speed>0.270000</speed>
</trkpt>
<trkpt lat="55.758389" lon="26.022955">
<ele>186.146606</ele>
<time>2010-07-17T16:49:09Z</time>
<desc>lat.=55.758389, lon.=26.022955, Alt.=186.146606m. Speed=0.648000m/h.</desc>
<speed>0.180000</speed>
</trkpt>
<trkpt lat="55.758389" lon="26.022957">
<ele>186.130981</ele>
<time>2010-07-17T16:49:10Z</time>
<desc>lat.=55.758389, lon.=26.022957, Alt.=186.130981m. Speed=0.972000m/h.</desc>
<speed>0.270000</speed>
</trkpt>
<trkpt lat="55.758392" lon="26.022959">
<ele>186.115356</ele>
<time>2010-07-17T16:49:11Z</time>
<desc>lat.=55.758392, lon.=26.022959, Alt.=186.115356m. Speed=0.792000m/h.</desc>
<speed>0.220000</speed>
</trkpt>
<trkpt lat="55.758396" lon="26.022959">
<ele>186.095825</ele>
<time>2010-07-17T16:49:12Z</time>
<desc>lat.=55.758396, lon.=26.022959, Alt.=186.095825m. Speed=0.900000m/h.</desc>
<speed>0.250000</speed>
</trkpt>
<trkpt lat="55.758396" lon="26.022961">
<ele>186.080200</ele>
<time>2010-07-17T16:49:13Z</time>
<desc>lat.=55.758396, lon.=26.022961, Alt.=186.080200m. Speed=1.008000m/h.</desc>
<speed>0.280000</speed>
</trkpt>
<trkpt lat="55.758400" lon="26.022957">
<ele>186.060669</ele>
<time>2010-07-17T16:49:14Z</time>
<desc>lat.=55.758400, lon.=26.022957, Alt.=186.060669m. Speed=0.828000m/h.</desc>
<speed>0.230000</speed>
</trkpt>
<trkpt lat="55.758400" lon="26.022955">
<ele>186.045044</ele>
<time>2010-07-17T16:49:15Z</time>
<desc>lat.=55.758400, lon.=26.022955, Alt.=186.045044m. Speed=0.504000m/h.</desc>
<speed>0.140000</speed>
</trkpt>
<trkpt lat="55.758400" lon="26.022953">
<ele>186.033325</ele>
<time>2010-07-17T16:49:16Z</time>
<desc>lat.=55.758400, lon.=26.022953, Alt.=186.033325m. Speed=0.288000m/h.</desc>
<speed>0.080000</speed>
</trkpt>
<trkpt lat="55.758400" lon="26.022951">
<ele>186.021606</ele>
<time>2010-07-17T16:49:17Z</time>
<desc>lat.=55.758400, lon.=26.022951, Alt.=186.021606m. Speed=0.108000m/h.</desc>
<speed>0.030000</speed>
</trkpt>
<trkpt lat="55.758400" lon="26.022951">
<ele>186.005981</ele>
<time>2010-07-17T16:49:18Z</time>
<desc>lat.=55.758400, lon.=26.022951, Alt.=186.005981m. Speed=0.432000m/h.</desc>
<speed>0.120000</speed>
</trkpt>
<trkpt lat="55.758404" lon="26.022951">
<ele>185.994263</ele>
<time>2010-07-17T16:49:19Z</time>
<desc>lat.=55.758404, lon.=26.022951, Alt.=185.994263m. Speed=0.504000m/h.</desc>
<speed>0.140000</speed>
</trkpt>
<trkpt lat="55.758404" lon="26.022951">
<ele>185.982544</ele>
<time>2010-07-17T16:49:20Z</time>
<desc>lat.=55.758404, lon.=26.022951, Alt.=185.982544m. Speed=0.756000m/h.</desc>
<speed>0.210000</speed>
</trkpt>
<trkpt lat="55.758404" lon="26.022953">
<ele>185.966919</ele>
<time>2010-07-17T16:49:21Z</time>
<desc>lat.=55.758404, lon.=26.022953, Alt.=185.966919m. Speed=1.224000m/h.</desc>
<speed>0.340000</speed>
</trkpt>
<trkpt lat="55.758408" lon="26.022943">
<ele>185.701294</ele>
<time>2010-07-17T16:49:22Z</time>
<desc>lat.=55.758408, lon.=26.022943, Alt.=185.701294m. Speed=0.576000m/h.</desc>
<speed>0.160000</speed>
</trkpt>
<trkpt lat="55.758408" lon="26.022930">
<ele>185.392700</ele>
<time>2010-07-17T16:49:23Z</time>
<desc>lat.=55.758408, lon.=26.022930, Alt.=185.392700m. Speed=0.252000m/h.</desc>
<speed>0.070000</speed>
</trkpt>
<trkpt lat="55.758411" lon="26.022926">
<ele>185.119263</ele>
<time>2010-07-17T16:49:24Z</time>
<desc>lat.=55.758411, lon.=26.022926, Alt.=185.119263m. Speed=0.468000m/h.</desc>
<speed>0.130000</speed>
</trkpt>
<trkpt lat="55.758411" lon="26.022928">
<ele>184.853638</ele>
<time>2010-07-17T16:49:25Z</time>
<desc>lat.=55.758411, lon.=26.022928, Alt.=184.853638m. Speed=0.504000m/h.</desc>
<speed>0.140000</speed>
</trkpt>
<trkpt lat="55.758411" lon="26.022926">
<ele>184.845825</ele>
<time>2010-07-17T16:49:26Z</time>
<desc>lat.=55.758411, lon.=26.022926, Alt.=184.845825m. Speed=0.648000m/h.</desc>
<speed>0.180000</speed>
</trkpt>
<trkpt lat="55.758411" lon="26.022923">
<ele>184.838013</ele>
<time>2010-07-17T16:49:27Z</time>
<desc>lat.=55.758411, lon.=26.022923, Alt.=184.838013m. Speed=0.828000m/h.</desc>
<speed>0.230000</speed>
</trkpt>
<trkpt lat="55.758411" lon="26.022919">
<ele>184.830200</ele>
<time>2010-07-17T16:49:28Z</time>
<desc>lat.=55.758411, lon.=26.022919, Alt.=184.830200m. Speed=0.648000m/h.</desc>
<speed>0.180000</speed>
</trkpt>
<trkpt lat="55.758411" lon="26.022917">
<ele>184.818481</ele>
<time>2010-07-17T16:49:29Z</time>
<desc>lat.=55.758411, lon.=26.022917, Alt.=184.818481m. Speed=0.432000m/h.</desc>
<speed>0.120000</speed>
</trkpt>
<trkpt lat="55.758411" lon="26.022915">
<ele>184.810669</ele>
<time>2010-07-17T16:49:30Z</time>
<desc>lat.=55.758411, lon.=26.022915, Alt.=184.810669m. Speed=0.972000m/h.</desc>
<speed>0.270000</speed>
</trkpt>
<trkpt lat="55.758411" lon="26.022911">
<ele>184.798950</ele>
<time>2010-07-17T16:49:31Z</time>
<desc>lat.=55.758411, lon.=26.022911, Alt.=184.798950m. Speed=0.612000m/h.</desc>
<speed>0.170000</speed>
</trkpt>
<trkpt lat="55.758411" lon="26.022907">
<ele>184.791138</ele>
<time>2010-07-17T16:49:32Z</time>
<desc>lat.=55.758411, lon.=26.022907, Alt.=184.791138m. Speed=0.216000m/h.</desc>
<speed>0.060000</speed>
</trkpt>
<trkpt lat="55.758411" lon="26.022907">
<ele>184.787231</ele>
<time>2010-07-17T16:49:33Z</time>
<desc>lat.=55.758411, lon.=26.022907, Alt.=184.787231m. Speed=0.108000m/h.</desc>
<speed>0.030000</speed>
</trkpt>
<trkpt lat="55.758415" lon="26.022907">
<ele>184.775513</ele>
<time>2010-07-17T16:49:34Z</time>
<desc>lat.=55.758415, lon.=26.022907, Alt.=184.775513m. Speed=0.144000m/h.</desc>
<speed>0.040000</speed>
</trkpt>
<trkpt lat="55.758411" lon="26.022907">
<ele>184.763794</ele>
<time>2010-07-17T16:49:35Z</time>
<desc>lat.=55.758411, lon.=26.022907, Alt.=184.763794m. Speed=0.288000m/h.</desc>
<speed>0.080000</speed>
</trkpt>
<trkpt lat="55.758415" lon="26.022907">
<ele>184.755981</ele>
<time>2010-07-17T16:49:36Z</time>
<desc>lat.=55.758415, lon.=26.022907, Alt.=184.755981m. Speed=0.324000m/h.</desc>
<speed>0.090000</speed>
</trkpt>
<trkpt lat="55.758415" lon="26.022905">
<ele>184.752075</ele>
<time>2010-07-17T16:49:37Z</time>
<desc>lat.=55.758415, lon.=26.022905, Alt.=184.752075m. Speed=0.648000m/h.</desc>
<speed>0.180000</speed>
</trkpt>
<trkpt lat="55.758415" lon="26.022903">
<ele>184.748169</ele>
<time>2010-07-17T16:49:38Z</time>
<desc>lat.=55.758415, lon.=26.022903, Alt.=184.748169m. Speed=0.756000m/h.</desc>
<speed>0.210000</speed>
</trkpt>
<trkpt lat="55.758415" lon="26.022900">
<ele>184.744263</ele>
<time>2010-07-17T16:49:39Z</time>
<desc>lat.=55.758415, lon.=26.022900, Alt.=184.744263m. Speed=0.756000m/h.</desc>
<speed>0.210000</speed>
</trkpt>
<trkpt lat="55.758415" lon="26.022896">
<ele>184.740356</ele>
<time>2010-07-17T16:49:40Z</time>
<desc>lat.=55.758415, lon.=26.022896, Alt.=184.740356m. Speed=0.900000m/h.</desc>
<speed>0.250000</speed>
</trkpt>
<trkpt lat="55.758415" lon="26.022894">
<ele>184.732544</ele>
<time>2010-07-17T16:49:41Z</time>
<desc>lat.=55.758415, lon.=26.022894, Alt.=184.732544m. Speed=0.216000m/h.</desc>
<speed>0.060000</speed>
</trkpt>
<trkpt lat="55.758411" lon="26.022892">
<ele>184.728638</ele>
<time>2010-07-17T16:49:42Z</time>
<desc>lat.=55.758411, lon.=26.022892, Alt.=184.728638m. Speed=0.108000m/h.</desc>
<speed>0.030000</speed>
</trkpt>
<trkpt lat="55.758411" lon="26.022892">
<ele>184.724731</ele>
<time>2010-07-17T16:49:43Z</time>
<desc>lat.=55.758411, lon.=26.022892, Alt.=184.724731m. Speed=0.396000m/h.</desc>
<speed>0.110000</speed>
</trkpt>
<trkpt lat="55.758411" lon="26.022892">
<ele>184.716919</ele>
<time>2010-07-17T16:49:44Z</time>
<desc>lat.=55.758411, lon.=26.022892, Alt.=184.716919m. Speed=0.684000m/h.</desc>
<speed>0.190000</speed>
</trkpt>
<trkpt lat="55.758411" lon="26.022888">
<ele>184.705200</ele>
<time>2010-07-17T16:49:45Z</time>
<desc>lat.=55.758411, lon.=26.022888, Alt.=184.705200m. Speed=0.540000m/h.</desc>
<speed>0.150000</speed>
</trkpt>
<trkpt lat="55.758411" lon="26.022886">
<ele>184.693481</ele>
<time>2010-07-17T16:49:46Z</time>
<desc>lat.=55.758411, lon.=26.022886, Alt.=184.693481m. Speed=0.324000m/h.</desc>
<speed>0.090000</speed>
</trkpt>
<trkpt lat="55.758411" lon="26.022888">
<ele>184.685669</ele>
<time>2010-07-17T16:49:47Z</time>
<desc>lat.=55.758411, lon.=26.022888, Alt.=184.685669m. Speed=0.252000m/h.</desc>
<speed>0.070000</speed>
</trkpt>
<trkpt lat="55.758415" lon="26.022886">
<ele>184.666138</ele>
<time>2010-07-17T16:49:48Z</time>
<desc>lat.=55.758415, lon.=26.022886, Alt.=184.666138m. Speed=0.216000m/h.</desc>
<speed>0.060000</speed>
</trkpt>
<trkpt lat="55.758415" lon="26.022886">
<ele>184.650513</ele>
<time>2010-07-17T16:49:49Z</time>
<desc>lat.=55.758415, lon.=26.022886, Alt.=184.650513m. Speed=0.144000m/h.</desc>
<speed>0.040000</speed>
</trkpt>
<trkpt lat="55.758415" lon="26.022884">
<ele>184.638794</ele>
<time>2010-07-17T16:49:50Z</time>
<desc>lat.=55.758415, lon.=26.022884, Alt.=184.638794m. Speed=0.828000m/h.</desc>
<speed>0.230000</speed>
</trkpt>
<trkpt lat="55.758411" lon="26.022882">
<ele>184.623169</ele>
<time>2010-07-17T16:49:51Z</time>
<desc>lat.=55.758411, lon.=26.022882, Alt.=184.623169m. Speed=0.936000m/h.</desc>
<speed>0.260000</speed>
</trkpt>
<trkpt lat="55.758411" lon="26.022879">
<ele>184.607544</ele>
<time>2010-07-17T16:49:52Z</time>
<desc>lat.=55.758411, lon.=26.022879, Alt.=184.607544m. Speed=0.684000m/h.</desc>
<speed>0.190000</speed>
</trkpt>
<trkpt lat="55.758408" lon="26.022879">
<ele>184.591919</ele>
<time>2010-07-17T16:49:53Z</time>
<desc>lat.=55.758408, lon.=26.022879, Alt.=184.591919m. Speed=0.216000m/h.</desc>
<speed>0.060000</speed>
</trkpt>
<trkpt lat="55.758408" lon="26.022877">
<ele>184.576294</ele>
<time>2010-07-17T16:49:54Z</time>
<desc>lat.=55.758408, lon.=26.022877, Alt.=184.576294m. Speed=0.576000m/h.</desc>
<speed>0.160000</speed>
</trkpt>
<trkpt lat="55.758408" lon="26.022879">
<ele>184.560669</ele>
<time>2010-07-17T16:49:55Z</time>
<desc>lat.=55.758408, lon.=26.022879, Alt.=184.560669m. Speed=0.360000m/h.</desc>
<speed>0.100000</speed>
</trkpt>
<trkpt lat="55.758408" lon="26.022879">
<ele>184.545044</ele>
<time>2010-07-17T16:49:56Z</time>
<desc>lat.=55.758408, lon.=26.022879, Alt.=184.545044m. Speed=0.648000m/h.</desc>
<speed>0.180000</speed>
</trkpt>
<trkpt lat="55.758404" lon="26.022881">
<ele>184.529419</ele>
<time>2010-07-17T16:49:57Z</time>
<desc>lat.=55.758404, lon.=26.022881, Alt.=184.529419m. Speed=0.504000m/h.</desc>
<speed>0.140000</speed>
</trkpt>
<trkpt lat="55.758404" lon="26.022881">
<ele>184.513794</ele>
<time>2010-07-17T16:49:58Z</time>
<desc>lat.=55.758404, lon.=26.022881, Alt.=184.513794m. Speed=0.504000m/h.</desc>
<speed>0.140000</speed>
</trkpt>
<trkpt lat="55.758400" lon="26.022881">
<ele>184.505981</ele>
<time>2010-07-17T16:49:59Z</time>
<desc>lat.=55.758400, lon.=26.022881, Alt.=184.505981m. Speed=0.504000m/h.</desc>
<speed>0.140000</speed>
</trkpt>
<trkpt lat="55.758400" lon="26.022882">
<ele>184.498169</ele>
<time>2010-07-17T16:50:00Z</time>
<desc>lat.=55.758400, lon.=26.022882, Alt.=184.498169m. Speed=0.540000m/h.</desc>
<speed>0.150000</speed>
</trkpt>
<trkpt lat="55.758400" lon="26.022881">
<ele>184.490356</ele>
<time>2010-07-17T16:50:01Z</time>
<desc>lat.=55.758400, lon.=26.022881, Alt.=184.490356m. Speed=0.792000m/h.</desc>
<speed>0.220000</speed>
</trkpt>
<trkpt lat="55.758396" lon="26.022879">
<ele>184.482544</ele>
<time>2010-07-17T16:50:02Z</time>
<desc>lat.=55.758396, lon.=26.022879, Alt.=184.482544m. Speed=1.008000m/h.</desc>
<speed>0.280000</speed>
</trkpt>
<trkpt lat="55.758396" lon="26.022875">
<ele>184.474731</ele>
<time>2010-07-17T16:50:03Z</time>
<desc>lat.=55.758396, lon.=26.022875, Alt.=184.474731m. Speed=0.864000m/h.</desc>
<speed>0.240000</speed>
</trkpt>
<trkpt lat="55.758396" lon="26.022871">
<ele>184.466919</ele>
<time>2010-07-17T16:50:04Z</time>
<desc>lat.=55.758396, lon.=26.022871, Alt.=184.466919m. Speed=0.432000m/h.</desc>
<speed>0.120000</speed>
</trkpt>
<trkpt lat="55.758396" lon="26.022869">
<ele>184.459106</ele>
<time>2010-07-17T16:50:05Z</time>
<desc>lat.=55.758396, lon.=26.022869, Alt.=184.459106m. Speed=0.360000m/h.</desc>
<speed>0.100000</speed>
</trkpt>
<trkpt lat="55.758392" lon="26.022869">
<ele>184.451294</ele>
<time>2010-07-17T16:50:06Z</time>
<desc>lat.=55.758392, lon.=26.022869, Alt.=184.451294m. Speed=0.360000m/h.</desc>
<speed>0.100000</speed>
</trkpt>
<trkpt lat="55.758392" lon="26.022869">
<ele>184.439575</ele>
<time>2010-07-17T16:50:07Z</time>
<desc>lat.=55.758392, lon.=26.022869, Alt.=184.439575m. Speed=0.252000m/h.</desc>
<speed>0.070000</speed>
</trkpt>
<trkpt lat="55.758392" lon="26.022869">
<ele>184.423950</ele>
<time>2010-07-17T16:50:08Z</time>
<desc>lat.=55.758392, lon.=26.022869, Alt.=184.423950m. Speed=0.396000m/h.</desc>
<speed>0.110000</speed>
</trkpt>
<trkpt lat="55.758392" lon="26.022867">
<ele>184.412231</ele>
<time>2010-07-17T16:50:09Z</time>
<desc>lat.=55.758392, lon.=26.022867, Alt.=184.412231m. Speed=0.504000m/h.</desc>
<speed>0.140000</speed>
</trkpt>
<trkpt lat="55.758389" lon="26.022865">
<ele>184.396606</ele>
<time>2010-07-17T16:50:10Z</time>
<desc>lat.=55.758389, lon.=26.022865, Alt.=184.396606m. Speed=0.648000m/h.</desc>
<speed>0.180000</speed>
</trkpt>
<trkpt lat="55.758389" lon="26.022865">
<ele>184.380981</ele>
<time>2010-07-17T16:50:11Z</time>
<desc>lat.=55.758389, lon.=26.022865, Alt.=184.380981m. Speed=0.504000m/h.</desc>
<speed>0.140000</speed>
</trkpt>
<trkpt lat="55.758389" lon="26.022863">
<ele>184.365356</ele>
<time>2010-07-17T16:50:12Z</time>
<desc>lat.=55.758389, lon.=26.022863, Alt.=184.365356m. Speed=0.792000m/h.</desc>
<speed>0.220000</speed>
</trkpt>
<trkpt lat="55.758385" lon="26.022861">
<ele>184.357544</ele>
<time>2010-07-17T16:50:13Z</time>
<desc>lat.=55.758385, lon.=26.022861, Alt.=184.357544m. Speed=0.396000m/h.</desc>
<speed>0.110000</speed>
</trkpt>
<trkpt lat="55.758385" lon="26.022860">
<ele>184.345825</ele>
<time>2010-07-17T16:50:14Z</time>
<desc>lat.=55.758385, lon.=26.022860, Alt.=184.345825m. Speed=0.612000m/h.</desc>
<speed>0.170000</speed>
</trkpt>
<trkpt lat="55.758385" lon="26.022858">
<ele>184.334106</ele>
<time>2010-07-17T16:50:15Z</time>
<desc>lat.=55.758385, lon.=26.022858, Alt.=184.334106m. Speed=0.576000m/h.</desc>
<speed>0.160000</speed>
</trkpt>
<trkpt lat="55.758381" lon="26.022858">
<ele>184.322388</ele>
<time>2010-07-17T16:50:16Z</time>
<desc>lat.=55.758381, lon.=26.022858, Alt.=184.322388m. Speed=0.180000m/h.</desc>
<speed>0.050000</speed>
</trkpt>
<trkpt lat="55.758381" lon="26.022858">
<ele>184.306763</ele>
<time>2010-07-17T16:50:17Z</time>
<desc>lat.=55.758381, lon.=26.022858, Alt.=184.306763m. Speed=0.324000m/h.</desc>
<speed>0.090000</speed>
</trkpt>
<trkpt lat="55.758381" lon="26.022856">
<ele>184.295044</ele>
<time>2010-07-17T16:50:18Z</time>
<desc>lat.=55.758381, lon.=26.022856, Alt.=184.295044m. Speed=0.144000m/h.</desc>
<speed>0.040000</speed>
</trkpt>
<trkpt lat="55.758381" lon="26.022856">
<ele>184.279419</ele>
<time>2010-07-17T16:50:19Z</time>
<desc>lat.=55.758381, lon.=26.022856, Alt.=184.279419m. Speed=0.324000m/h.</desc>
<speed>0.090000</speed>
</trkpt>
<trkpt lat="55.758381" lon="26.022856">
<ele>184.267700</ele>
<time>2010-07-17T16:50:20Z</time>
<desc>lat.=55.758381, lon.=26.022856, Alt.=184.267700m. Speed=0.180000m/h.</desc>
<speed>0.050000</speed>
</trkpt>
<trkpt lat="55.758381" lon="26.022858">
<ele>184.263794</ele>
<time>2010-07-17T16:50:21Z</time>
<desc>lat.=55.758381, lon.=26.022858, Alt.=184.263794m. Speed=0.468000m/h.</desc>
<speed>0.130000</speed>
</trkpt>
<trkpt lat="55.758381" lon="26.022860">
<ele>184.259888</ele>
<time>2010-07-17T16:50:22Z</time>
<desc>lat.=55.758381, lon.=26.022860, Alt.=184.259888m. Speed=0.144000m/h.</desc>
<speed>0.040000</speed>
</trkpt>
<trkpt lat="55.758381" lon="26.022860">
<ele>184.259888</ele>
<time>2010-07-17T16:50:23Z</time>
<desc>lat.=55.758381, lon.=26.022860, Alt.=184.259888m. Speed=0.432000m/h.</desc>
<speed>0.120000</speed>
</trkpt>
<trkpt lat="55.758381" lon="26.022861">
<ele>184.255981</ele>
<time>2010-07-17T16:50:24Z</time>
<desc>lat.=55.758381, lon.=26.022861, Alt.=184.255981m. Speed=0.288000m/h.</desc>
<speed>0.080000</speed>
</trkpt>
<trkpt lat="55.758381" lon="26.022861">
<ele>184.248169</ele>
<time>2010-07-17T16:50:25Z</time>
<desc>lat.=55.758381, lon.=26.022861, Alt.=184.248169m. Speed=0.216000m/h.</desc>
<speed>0.060000</speed>
</trkpt>
<trkpt lat="55.758381" lon="26.022863">
<ele>184.240356</ele>
<time>2010-07-17T16:50:26Z</time>
<desc>lat.=55.758381, lon.=26.022863, Alt.=184.240356m. Speed=0.288000m/h.</desc>
<speed>0.080000</speed>
</trkpt>
<trkpt lat="55.758381" lon="26.022863">
<ele>184.232544</ele>
<time>2010-07-17T16:50:27Z</time>
<desc>lat.=55.758381, lon.=26.022863, Alt.=184.232544m. Speed=0.432000m/h.</desc>
<speed>0.120000</speed>
</trkpt>
<trkpt lat="55.758377" lon="26.022865">
<ele>184.224731</ele>
<time>2010-07-17T16:50:28Z</time>
<desc>lat.=55.758377, lon.=26.022865, Alt.=184.224731m. Speed=0.396000m/h.</desc>
<speed>0.110000</speed>
</trkpt>
<trkpt lat="55.758377" lon="26.022865">
<ele>184.224731</ele>
<time>2010-07-17T16:50:29Z</time>
<desc>lat.=55.758377, lon.=26.022865, Alt.=184.224731m. Speed=0.576000m/h.</desc>
<speed>0.160000</speed>
</trkpt>
<trkpt lat="55.758377" lon="26.022865">
<ele>184.220825</ele>
<time>2010-07-17T16:50:30Z</time>
<desc>lat.=55.758377, lon.=26.022865, Alt.=184.220825m. Speed=0.828000m/h.</desc>
<speed>0.230000</speed>
</trkpt>
<trkpt lat="55.758373" lon="26.022865">
<ele>184.220825</ele>
<time>2010-07-17T16:50:31Z</time>
<desc>lat.=55.758373, lon.=26.022865, Alt.=184.220825m. Speed=0.648000m/h.</desc>
<speed>0.180000</speed>
</trkpt>
<trkpt lat="55.758373" lon="26.022863">
<ele>184.216919</ele>
<time>2010-07-17T16:50:32Z</time>
<desc>lat.=55.758373, lon.=26.022863, Alt.=184.216919m. Speed=0.180000m/h.</desc>
<speed>0.050000</speed>
</trkpt>
<trkpt lat="55.758373" lon="26.022863">
<ele>184.209106</ele>
<time>2010-07-17T16:50:33Z</time>
<desc>lat.=55.758373, lon.=26.022863, Alt.=184.209106m. Speed=0.144000m/h.</desc>
<speed>0.040000</speed>
</trkpt>
<trkpt lat="55.758373" lon="26.022863">
<ele>184.193481</ele>
<time>2010-07-17T16:50:34Z</time>
<desc>lat.=55.758373, lon.=26.022863, Alt.=184.193481m. Speed=0.864000m/h.</desc>
<speed>0.240000</speed>
</trkpt>
<trkpt lat="55.758369" lon="26.022861">
<ele>184.185669</ele>
<time>2010-07-17T16:50:35Z</time>
<desc>lat.=55.758369, lon.=26.022861, Alt.=184.185669m. Speed=0.504000m/h.</desc>
<speed>0.140000</speed>
</trkpt>
<trkpt lat="55.758369" lon="26.022861">
<ele>184.181763</ele>
<time>2010-07-17T16:50:36Z</time>
<desc>lat.=55.758369, lon.=26.022861, Alt.=184.181763m. Speed=0.360000m/h.</desc>
<speed>0.100000</speed>
</trkpt>
<trkpt lat="55.758369" lon="26.022861">
<ele>184.177856</ele>
<time>2010-07-17T16:50:37Z</time>
<desc>lat.=55.758369, lon.=26.022861, Alt.=184.177856m. Speed=0.108000m/h.</desc>
<speed>0.030000</speed>
</trkpt>
<trkpt lat="55.758369" lon="26.022861">
<ele>184.177856</ele>
<time>2010-07-17T16:50:38Z</time>
<desc>lat.=55.758369, lon.=26.022861, Alt.=184.177856m. Speed=0.792000m/h.</desc>
<speed>0.220000</speed>
</trkpt>
<trkpt lat="55.758366" lon="26.022860">
<ele>184.173950</ele>
<time>2010-07-17T16:50:39Z</time>
<desc>lat.=55.758366, lon.=26.022860, Alt.=184.173950m. Speed=0.252000m/h.</desc>
<speed>0.070000</speed>
</trkpt>
<trkpt lat="55.758366" lon="26.022861">
<ele>184.166138</ele>
<time>2010-07-17T16:50:40Z</time>
<desc>lat.=55.758366, lon.=26.022861, Alt.=184.166138m. Speed=0.540000m/h.</desc>
<speed>0.150000</speed>
</trkpt>
<trkpt lat="55.758366" lon="26.022861">
<ele>184.154419</ele>
<time>2010-07-17T16:50:41Z</time>
<desc>lat.=55.758366, lon.=26.022861, Alt.=184.154419m. Speed=0.648000m/h.</desc>
<speed>0.180000</speed>
</trkpt>
<trkpt lat="55.758362" lon="26.022860">
<ele>184.150513</ele>
<time>2010-07-17T16:50:42Z</time>
<desc>lat.=55.758362, lon.=26.022860, Alt.=184.150513m. Speed=0.072000m/h.</desc>
<speed>0.020000</speed>
</trkpt>
<trkpt lat="55.758362" lon="26.022860">
<ele>184.134888</ele>
<time>2010-07-17T16:50:43Z</time>
<desc>lat.=55.758362, lon.=26.022860, Alt.=184.134888m. Speed=0.036000m/h.</desc>
<speed>0.010000</speed>
</trkpt>
<trkpt lat="55.758362" lon="26.022860">
<ele>184.119263</ele>
<time>2010-07-17T16:50:44Z</time>
<desc>lat.=55.758362, lon.=26.022860, Alt.=184.119263m. Speed=0.216000m/h.</desc>
<speed>0.060000</speed>
</trkpt>
<trkpt lat="55.758362" lon="26.022861">
<ele>184.099731</ele>
<time>2010-07-17T16:50:45Z</time>
<desc>lat.=55.758362, lon.=26.022861, Alt.=184.099731m. Speed=0.252000m/h.</desc>
<speed>0.070000</speed>
</trkpt>
<trkpt lat="55.758362" lon="26.022861">
<ele>184.076294</ele>
<time>2010-07-17T16:50:46Z</time>
<desc>lat.=55.758362, lon.=26.022861, Alt.=184.076294m. Speed=0.432000m/h.</desc>
<speed>0.120000</speed>
</trkpt>
<trkpt lat="55.758362" lon="26.022860">
<ele>184.052856</ele>
<time>2010-07-17T16:50:47Z</time>
<desc>lat.=55.758362, lon.=26.022860, Alt.=184.052856m. Speed=0.540000m/h.</desc>
<speed>0.150000</speed>
</trkpt>
<trkpt lat="55.758358" lon="26.022860">
<ele>184.029419</ele>
<time>2010-07-17T16:50:48Z</time>
<desc>lat.=55.758358, lon.=26.022860, Alt.=184.029419m. Speed=0.864000m/h.</desc>
<speed>0.240000</speed>
</trkpt>
<trkpt lat="55.758358" lon="26.022861">
<ele>184.002075</ele>
<time>2010-07-17T16:50:49Z</time>
<desc>lat.=55.758358, lon.=26.022861, Alt.=184.002075m. Speed=0.180000m/h.</desc>
<speed>0.050000</speed>
</trkpt>
<trkpt lat="55.758358" lon="26.022861">
<ele>183.974731</ele>
<time>2010-07-17T16:50:50Z</time>
<desc>lat.=55.758358, lon.=26.022861, Alt.=183.974731m. Speed=0.036000m/h.</desc>
<speed>0.010000</speed>
</trkpt>
<trkpt lat="55.758358" lon="26.022861">
<ele>183.955200</ele>
<time>2010-07-17T16:50:51Z</time>
<desc>lat.=55.758358, lon.=26.022861, Alt.=183.955200m. Speed=0.216000m/h.</desc>
<speed>0.060000</speed>
</trkpt>
<trkpt lat="55.758358" lon="26.022861">
<ele>183.935669</ele>
<time>2010-07-17T16:50:52Z</time>
<desc>lat.=55.758358, lon.=26.022861, Alt.=183.935669m. Speed=0.072000m/h.</desc>
<speed>0.020000</speed>
</trkpt>
<trkpt lat="55.758358" lon="26.022861">
<ele>183.923950</ele>
<time>2010-07-17T16:50:53Z</time>
<desc>lat.=55.758358, lon.=26.022861, Alt.=183.923950m. Speed=0.216000m/h.</desc>
<speed>0.060000</speed>
</trkpt>
<trkpt lat="55.758358" lon="26.022861">
<ele>183.916138</ele>
<time>2010-07-17T16:50:54Z</time>
<desc>lat.=55.758358, lon.=26.022861, Alt.=183.916138m. Speed=0.324000m/h.</desc>
<speed>0.090000</speed>
</trkpt>
<trkpt lat="55.758358" lon="26.022861">
<ele>183.908325</ele>
<time>2010-07-17T16:50:55Z</time>
<desc>lat.=55.758358, lon.=26.022861, Alt.=183.908325m. Speed=0.252000m/h.</desc>
<speed>0.070000</speed>
</trkpt>
<trkpt lat="55.758358" lon="26.022861">
<ele>183.900513</ele>
<time>2010-07-17T16:50:56Z</time>
<desc>lat.=55.758358, lon.=26.022861, Alt.=183.900513m. Speed=0.252000m/h.</desc>
<speed>0.070000</speed>
</trkpt>
<trkpt lat="55.758358" lon="26.022863">
<ele>183.896606</ele>
<time>2010-07-17T16:50:57Z</time>
<desc>lat.=55.758358, lon.=26.022863, Alt.=183.896606m. Speed=0.540000m/h.</desc>
<speed>0.150000</speed>
</trkpt>
<trkpt lat="55.758354" lon="26.022863">
<ele>183.884888</ele>
<time>2010-07-17T16:50:58Z</time>
<desc>lat.=55.758354, lon.=26.022863, Alt.=183.884888m. Speed=0.360000m/h.</desc>
<speed>0.100000</speed>
</trkpt>
<trkpt lat="55.758354" lon="26.022863">
<ele>183.877075</ele>
<time>2010-07-17T16:50:59Z</time>
<desc>lat.=55.758354, lon.=26.022863, Alt.=183.877075m. Speed=0.216000m/h.</desc>
<speed>0.060000</speed>
</trkpt>
<trkpt lat="55.758354" lon="26.022863">
<ele>183.877075</ele>
<time>2010-07-17T16:51:00Z</time>
<desc>lat.=55.758354, lon.=26.022863, Alt.=183.877075m. Speed=0.684000m/h.</desc>
<speed>0.190000</speed>
</trkpt>
<trkpt lat="55.758358" lon="26.022863">
<ele>183.877075</ele>
<time>2010-07-17T16:51:01Z</time>
<desc>lat.=55.758358, lon.=26.022863, Alt.=183.877075m. Speed=0.720000m/h.</desc>
<speed>0.200000</speed>
</trkpt>
<trkpt lat="55.758358" lon="26.022865">
<ele>183.873169</ele>
<time>2010-07-17T16:51:02Z</time>
<desc>lat.=55.758358, lon.=26.022865, Alt.=183.873169m. Speed=0.684000m/h.</desc>
<speed>0.190000</speed>
</trkpt>
<trkpt lat="55.758358" lon="26.022869">
<ele>183.869263</ele>
<time>2010-07-17T16:51:03Z</time>
<desc>lat.=55.758358, lon.=26.022869, Alt.=183.869263m. Speed=0.612000m/h.</desc>
<speed>0.170000</speed>
</trkpt>
<trkpt lat="55.758358" lon="26.022871">
<ele>183.869263</ele>
<time>2010-07-17T16:51:04Z</time>
<desc>lat.=55.758358, lon.=26.022871, Alt.=183.869263m. Speed=0.252000m/h.</desc>
<speed>0.070000</speed>
</trkpt>
<trkpt lat="55.758358" lon="26.022873">
<ele>183.869263</ele>
<time>2010-07-17T16:51:05Z</time>
<desc>lat.=55.758358, lon.=26.022873, Alt.=183.869263m. Speed=0.216000m/h.</desc>
<speed>0.060000</speed>
</trkpt>
<trkpt lat="55.758358" lon="26.022873">
<ele>183.869263</ele>
<time>2010-07-17T16:51:06Z</time>
<desc>lat.=55.758358, lon.=26.022873, Alt.=183.869263m. Speed=0.144000m/h.</desc>
<speed>0.040000</speed>
</trkpt>
<trkpt lat="55.758358" lon="26.022873">
<ele>183.861450</ele>
<time>2010-07-17T16:51:07Z</time>
<desc>lat.=55.758358, lon.=26.022873, Alt.=183.861450m. Speed=0.108000m/h.</desc>
<speed>0.030000</speed>
</trkpt>
<trkpt lat="55.758358" lon="26.022873">
<ele>183.853638</ele>
<time>2010-07-17T16:51:08Z</time>
<desc>lat.=55.758358, lon.=26.022873, Alt.=183.853638m. Speed=0.288000m/h.</desc>
<speed>0.080000</speed>
</trkpt>
<trkpt lat="55.758358" lon="26.022875">
<ele>183.841919</ele>
<time>2010-07-17T16:51:09Z</time>
<desc>lat.=55.758358, lon.=26.022875, Alt.=183.841919m. Speed=0.648000m/h.</desc>
<speed>0.180000</speed>
</trkpt>
<trkpt lat="55.758354" lon="26.022875">
<ele>183.834106</ele>
<time>2010-07-17T16:51:10Z</time>
<desc>lat.=55.758354, lon.=26.022875, Alt.=183.834106m. Speed=0.504000m/h.</desc>
<speed>0.140000</speed>
</trkpt>
<trkpt lat="55.758354" lon="26.022875">
<ele>183.822388</ele>
<time>2010-07-17T16:51:11Z</time>
<desc>lat.=55.758354, lon.=26.022875, Alt.=183.822388m. Speed=0.216000m/h.</desc>
<speed>0.060000</speed>
</trkpt>
<trkpt lat="55.758354" lon="26.022875">
<ele>183.814575</ele>
<time>2010-07-17T16:51:12Z</time>
<desc>lat.=55.758354, lon.=26.022875, Alt.=183.814575m. Speed=0.360000m/h.</desc>
<speed>0.100000</speed>
</trkpt>
<trkpt lat="55.758354" lon="26.022877">
<ele>183.810669</ele>
<time>2010-07-17T16:51:13Z</time>
<desc>lat.=55.758354, lon.=26.022877, Alt.=183.810669m. Speed=0.144000m/h.</desc>
<speed>0.040000</speed>
</trkpt>
<trkpt lat="55.758354" lon="26.022877">
<ele>183.810669</ele>
<time>2010-07-17T16:51:14Z</time>
<desc>lat.=55.758354, lon.=26.022877, Alt.=183.810669m. Speed=0.072000m/h.</desc>
<speed>0.020000</speed>
</trkpt>
<trkpt lat="55.758354" lon="26.022877">
<ele>183.806763</ele>
<time>2010-07-17T16:51:15Z</time>
<desc>lat.=55.758354, lon.=26.022877, Alt.=183.806763m. Speed=0.324000m/h.</desc>
<speed>0.090000</speed>
</trkpt>
<trkpt lat="55.758354" lon="26.022875">
<ele>183.806763</ele>
<time>2010-07-17T16:51:16Z</time>
<desc>lat.=55.758354, lon.=26.022875, Alt.=183.806763m. Speed=0.108000m/h.</desc>
<speed>0.030000</speed>
</trkpt>
<trkpt lat="55.758354" lon="26.022875">
<ele>183.806763</ele>
<time>2010-07-17T16:51:17Z</time>
<desc>lat.=55.758354, lon.=26.022875, Alt.=183.806763m. Speed=0.180000m/h.</desc>
<speed>0.050000</speed>
</trkpt>
<trkpt lat="55.758354" lon="26.022875">
<ele>183.806763</ele>
<time>2010-07-17T16:51:18Z</time>
<desc>lat.=55.758354, lon.=26.022875, Alt.=183.806763m. Speed=0.288000m/h.</desc>
<speed>0.080000</speed>
</trkpt>
<trkpt lat="55.758358" lon="26.022875">
<ele>183.806763</ele>
<time>2010-07-17T16:51:19Z</time>
<desc>lat.=55.758358, lon.=26.022875, Alt.=183.806763m. Speed=0.288000m/h.</desc>
<speed>0.080000</speed>
</trkpt>
<trkpt lat="55.758354" lon="26.022875">
<ele>183.802856</ele>
<time>2010-07-17T16:51:20Z</time>
<desc>lat.=55.758354, lon.=26.022875, Alt.=183.802856m. Speed=0.396000m/h.</desc>
<speed>0.110000</speed>
</trkpt>
<trkpt lat="55.758354" lon="26.022875">
<ele>183.795044</ele>
<time>2010-07-17T16:51:21Z</time>
<desc>lat.=55.758354, lon.=26.022875, Alt.=183.795044m. Speed=0.468000m/h.</desc>
<speed>0.130000</speed>
</trkpt>
<trkpt lat="55.758354" lon="26.022875">
<ele>183.791138</ele>
<time>2010-07-17T16:51:22Z</time>
<desc>lat.=55.758354, lon.=26.022875, Alt.=183.791138m. Speed=0.612000m/h.</desc>
<speed>0.170000</speed>
</trkpt>
<trkpt lat="55.758350" lon="26.022873">
<ele>183.787231</ele>
<time>2010-07-17T16:51:23Z</time>
<desc>lat.=55.758350, lon.=26.022873, Alt.=183.787231m. Speed=0.360000m/h.</desc>
<speed>0.100000</speed>
</trkpt>
<trkpt lat="55.758350" lon="26.022875">
<ele>183.779419</ele>
<time>2010-07-17T16:51:24Z</time>
<desc>lat.=55.758350, lon.=26.022875, Alt.=183.779419m. Speed=0.612000m/h.</desc>
<speed>0.170000</speed>
</trkpt>
<trkpt lat="55.758354" lon="26.022877">
<ele>183.771606</ele>
<time>2010-07-17T16:51:25Z</time>
<desc>lat.=55.758354, lon.=26.022877, Alt.=183.771606m. Speed=0.864000m/h.</desc>
<speed>0.240000</speed>
</trkpt>
<trkpt lat="55.758354" lon="26.022877">
<ele>183.767700</ele>
<time>2010-07-17T16:51:26Z</time>
<desc>lat.=55.758354, lon.=26.022877, Alt.=183.767700m. Speed=0.540000m/h.</desc>
<speed>0.150000</speed>
</trkpt>
<trkpt lat="55.758354" lon="26.022877">
<ele>183.759888</ele>
<time>2010-07-17T16:51:27Z</time>
<desc>lat.=55.758354, lon.=26.022877, Alt.=183.759888m. Speed=0.216000m/h.</desc>
<speed>0.060000</speed>
</trkpt>
<trkpt lat="55.758358" lon="26.022877">
<ele>183.752075</ele>
<time>2010-07-17T16:51:28Z</time>
<desc>lat.=55.758358, lon.=26.022877, Alt.=183.752075m. Speed=0.180000m/h.</desc>
<speed>0.050000</speed>
</trkpt>
<trkpt lat="55.758354" lon="26.022877">
<ele>183.748169</ele>
<time>2010-07-17T16:51:29Z</time>
<desc>lat.=55.758354, lon.=26.022877, Alt.=183.748169m. Speed=0.180000m/h.</desc>
<speed>0.050000</speed>
</trkpt>
<trkpt lat="55.758354" lon="26.022877">
<ele>183.740356</ele>
<time>2010-07-17T16:51:30Z</time>
<desc>lat.=55.758354, lon.=26.022877, Alt.=183.740356m. Speed=0.072000m/h.</desc>
<speed>0.020000</speed>
</trkpt>
<trkpt lat="55.758354" lon="26.022877">
<ele>183.720825</ele>
<time>2010-07-17T16:51:31Z</time>
<desc>lat.=55.758354, lon.=26.022877, Alt.=183.720825m. Speed=0.360000m/h.</desc>
<speed>0.100000</speed>
</trkpt>
<trkpt lat="55.758358" lon="26.022879">
<ele>183.705200</ele>
<time>2010-07-17T16:51:32Z</time>
<desc>lat.=55.758358, lon.=26.022879, Alt.=183.705200m. Speed=0.324000m/h.</desc>
<speed>0.090000</speed>
</trkpt>
<trkpt lat="55.758358" lon="26.022881">
<ele>183.685669</ele>
<time>2010-07-17T16:51:33Z</time>
<desc>lat.=55.758358, lon.=26.022881, Alt.=183.685669m. Speed=0.252000m/h.</desc>
<speed>0.070000</speed>
</trkpt>
<trkpt lat="55.758358" lon="26.022881">
<ele>183.666138</ele>
<time>2010-07-17T16:51:34Z</time>
<desc>lat.=55.758358, lon.=26.022881, Alt.=183.666138m. Speed=0.288000m/h.</desc>
<speed>0.080000</speed>
</trkpt>
<trkpt lat="55.758358" lon="26.022882">
<ele>183.650513</ele>
<time>2010-07-17T16:51:35Z</time>
<desc>lat.=55.758358, lon.=26.022882, Alt.=183.650513m. Speed=0.288000m/h.</desc>
<speed>0.080000</speed>
</trkpt>
<trkpt lat="55.758354" lon="26.022882">
<ele>183.627075</ele>
<time>2010-07-17T16:51:36Z</time>
<desc>lat.=55.758354, lon.=26.022882, Alt.=183.627075m. Speed=0.216000m/h.</desc>
<speed>0.060000</speed>
</trkpt>
<trkpt lat="55.758354" lon="26.022882">
<ele>183.599731</ele>
<time>2010-07-17T16:51:37Z</time>
<desc>lat.=55.758354, lon.=26.022882, Alt.=183.599731m. Speed=0.288000m/h.</desc>
<speed>0.080000</speed>
</trkpt>
<trkpt lat="55.758354" lon="26.022881">
<ele>183.576294</ele>
<time>2010-07-17T16:51:38Z</time>
<desc>lat.=55.758354, lon.=26.022881, Alt.=183.576294m. Speed=0.072000m/h.</desc>
<speed>0.020000</speed>
</trkpt>
<trkpt lat="55.758354" lon="26.022881">
<ele>183.552856</ele>
<time>2010-07-17T16:51:39Z</time>
<desc>lat.=55.758354, lon.=26.022881, Alt.=183.552856m. Speed=0.144000m/h.</desc>
<speed>0.040000</speed>
</trkpt>
<trkpt lat="55.758354" lon="26.022881">
<ele>183.529419</ele>
<time>2010-07-17T16:51:40Z</time>
<desc>lat.=55.758354, lon.=26.022881, Alt.=183.529419m. Speed=0.468000m/h.</desc>
<speed>0.130000</speed>
</trkpt>
<trkpt lat="55.758354" lon="26.022881">
<ele>183.502075</ele>
<time>2010-07-17T16:51:41Z</time>
<desc>lat.=55.758354, lon.=26.022881, Alt.=183.502075m. Speed=1.224000m/h.</desc>
<speed>0.340000</speed>
</trkpt>
<trkpt lat="55.758350" lon="26.022884">
<ele>183.138794</ele>
<time>2010-07-17T16:51:42Z</time>
<desc>lat.=55.758350, lon.=26.022884, Alt.=183.138794m. Speed=0.828000m/h.</desc>
<speed>0.230000</speed>
</trkpt>
<trkpt lat="55.758343" lon="26.022886">
<ele>182.974731</ele>
<time>2010-07-17T16:51:43Z</time>
<desc>lat.=55.758343, lon.=26.022886, Alt.=182.974731m. Speed=0.396000m/h.</desc>
<speed>0.110000</speed>
</trkpt>
<trkpt lat="55.758339" lon="26.022890">
<ele>182.810669</ele>
<time>2010-07-17T16:51:44Z</time>
<desc>lat.=55.758339, lon.=26.022890, Alt.=182.810669m. Speed=0.360000m/h.</desc>
<speed>0.100000</speed>
</trkpt>
<trkpt lat="55.758335" lon="26.022892">
<ele>182.834106</ele>
<time>2010-07-17T16:51:45Z</time>
<desc>lat.=55.758335, lon.=26.022892, Alt.=182.834106m. Speed=0.360000m/h.</desc>
<speed>0.100000</speed>
</trkpt>
<trkpt lat="55.758335" lon="26.022892">
<ele>182.822388</ele>
<time>2010-07-17T16:51:46Z</time>
<desc>lat.=55.758335, lon.=26.022892, Alt.=182.822388m. Speed=0.144000m/h.</desc>
<speed>0.040000</speed>
</trkpt>
<trkpt lat="55.758335" lon="26.022892">
<ele>182.810669</ele>
<time>2010-07-17T16:51:47Z</time>
<desc>lat.=55.758335, lon.=26.022892, Alt.=182.810669m. Speed=0.252000m/h.</desc>
<speed>0.070000</speed>
</trkpt>
<trkpt lat="55.758335" lon="26.022894">
<ele>182.795044</ele>
<time>2010-07-17T16:51:48Z</time>
<desc>lat.=55.758335, lon.=26.022894, Alt.=182.795044m. Speed=0.324000m/h.</desc>
<speed>0.090000</speed>
</trkpt>
<trkpt lat="55.758335" lon="26.022894">
<ele>182.783325</ele>
<time>2010-07-17T16:51:49Z</time>
<desc>lat.=55.758335, lon.=26.022894, Alt.=182.783325m. Speed=0.540000m/h.</desc>
<speed>0.150000</speed>
</trkpt>
<trkpt lat="55.758331" lon="26.022892">
<ele>182.779419</ele>
<time>2010-07-17T16:51:50Z</time>
<desc>lat.=55.758331, lon.=26.022892, Alt.=182.779419m. Speed=0.288000m/h.</desc>
<speed>0.080000</speed>
</trkpt>
<trkpt lat="55.758331" lon="26.022892">
<ele>182.771606</ele>
<time>2010-07-17T16:51:51Z</time>
<desc>lat.=55.758331, lon.=26.022892, Alt.=182.771606m. Speed=0.468000m/h.</desc>
<speed>0.130000</speed>
</trkpt>
<trkpt lat="55.758331" lon="26.022890">
<ele>182.763794</ele>
<time>2010-07-17T16:51:52Z</time>
<desc>lat.=55.758331, lon.=26.022890, Alt.=182.763794m. Speed=0.648000m/h.</desc>
<speed>0.180000</speed>
</trkpt>
<trkpt lat="55.758327" lon="26.022890">
<ele>182.755981</ele>
<time>2010-07-17T16:51:53Z</time>
<desc>lat.=55.758327, lon.=26.022890, Alt.=182.755981m. Speed=0.576000m/h.</desc>
<speed>0.160000</speed>
</trkpt>
<trkpt lat="55.758327" lon="26.022890">
<ele>182.752075</ele>
<time>2010-07-17T16:51:54Z</time>
<desc>lat.=55.758327, lon.=26.022890, Alt.=182.752075m. Speed=0.720000m/h.</desc>
<speed>0.200000</speed>
</trkpt>
<trkpt lat="55.758327" lon="26.022890">
<ele>182.748169</ele>
<time>2010-07-17T16:51:55Z</time>
<desc>lat.=55.758327, lon.=26.022890, Alt.=182.748169m. Speed=0.324000m/h.</desc>
<speed>0.090000</speed>
</trkpt>
<trkpt lat="55.758324" lon="26.022890">
<ele>182.748169</ele>
<time>2010-07-17T16:51:56Z</time>
<desc>lat.=55.758324, lon.=26.022890, Alt.=182.748169m. Speed=0.468000m/h.</desc>
<speed>0.130000</speed>
</trkpt>
<trkpt lat="55.758324" lon="26.022890">
<ele>182.748169</ele>
<time>2010-07-17T16:51:57Z</time>
<desc>lat.=55.758324, lon.=26.022890, Alt.=182.748169m. Speed=0.360000m/h.</desc>
<speed>0.100000</speed>
</trkpt>
<trkpt lat="55.758324" lon="26.022892">
<ele>182.744263</ele>
<time>2010-07-17T16:51:58Z</time>
<desc>lat.=55.758324, lon.=26.022892, Alt.=182.744263m. Speed=0.396000m/h.</desc>
<speed>0.110000</speed>
</trkpt>
<trkpt lat="55.758320" lon="26.022892">
<ele>182.736450</ele>
<time>2010-07-17T16:51:59Z</time>
<desc>lat.=55.758320, lon.=26.022892, Alt.=182.736450m. Speed=0.684000m/h.</desc>
<speed>0.190000</speed>
</trkpt>
<trkpt lat="55.758320" lon="26.022892">
<ele>182.728638</ele>
<time>2010-07-17T16:52:00Z</time>
<desc>lat.=55.758320, lon.=26.022892, Alt.=182.728638m. Speed=0.540000m/h.</desc>
<speed>0.150000</speed>
</trkpt>
<trkpt lat="55.758320" lon="26.022894">
<ele>182.720825</ele>
<time>2010-07-17T16:52:01Z</time>
<desc>lat.=55.758320, lon.=26.022894, Alt.=182.720825m. Speed=0.756000m/h.</desc>
<speed>0.210000</speed>
</trkpt>
<trkpt lat="55.758316" lon="26.022894">
<ele>182.709106</ele>
<time>2010-07-17T16:52:02Z</time>
<desc>lat.=55.758316, lon.=26.022894, Alt.=182.709106m. Speed=0.432000m/h.</desc>
<speed>0.120000</speed>
</trkpt>
<trkpt lat="55.758316" lon="26.022894">
<ele>182.701294</ele>
<time>2010-07-17T16:52:03Z</time>
<desc>lat.=55.758316, lon.=26.022894, Alt.=182.701294m. Speed=1.224000m/h.</desc>
<speed>0.340000</speed>
</trkpt>
<trkpt lat="55.758312" lon="26.022894">
<ele>182.638794</ele>
<time>2010-07-17T16:52:04Z</time>
<desc>lat.=55.758312, lon.=26.022894, Alt.=182.638794m. Speed=0.648000m/h.</desc>
<speed>0.180000</speed>
</trkpt>
<trkpt lat="55.758308" lon="26.022894">
<ele>182.560669</ele>
<time>2010-07-17T16:52:05Z</time>
<desc>lat.=55.758308, lon.=26.022894, Alt.=182.560669m. Speed=0.360000m/h.</desc>
<speed>0.100000</speed>
</trkpt>
<trkpt lat="55.758308" lon="26.022888">
<ele>182.591919</ele>
<time>2010-07-17T16:52:06Z</time>
<desc>lat.=55.758308, lon.=26.022888, Alt.=182.591919m. Speed=0.180000m/h.</desc>
<speed>0.050000</speed>
</trkpt>
<trkpt lat="55.758312" lon="26.022890">
<ele>182.572388</ele>
<time>2010-07-17T16:52:07Z</time>
<desc>lat.=55.758312, lon.=26.022890, Alt.=182.572388m. Speed=0.180000m/h.</desc>
<speed>0.050000</speed>
</trkpt>
<trkpt lat="55.758312" lon="26.022888">
<ele>182.568481</ele>
<time>2010-07-17T16:52:08Z</time>
<desc>lat.=55.758312, lon.=26.022888, Alt.=182.568481m. Speed=0.396000m/h.</desc>
<speed>0.110000</speed>
</trkpt>
<trkpt lat="55.758308" lon="26.022886">
<ele>182.564575</ele>
<time>2010-07-17T16:52:09Z</time>
<desc>lat.=55.758308, lon.=26.022886, Alt.=182.564575m. Speed=0.216000m/h.</desc>
<speed>0.060000</speed>
</trkpt>
<trkpt lat="55.758308" lon="26.022886">
<ele>182.564575</ele>
<time>2010-07-17T16:52:10Z</time>
<desc>lat.=55.758308, lon.=26.022886, Alt.=182.564575m. Speed=0.468000m/h.</desc>
<speed>0.130000</speed>
</trkpt>
<trkpt lat="55.758308" lon="26.022886">
<ele>182.568481</ele>
<time>2010-07-17T16:52:11Z</time>
<desc>lat.=55.758308, lon.=26.022886, Alt.=182.568481m. Speed=0.360000m/h.</desc>
<speed>0.100000</speed>
</trkpt>
<trkpt lat="55.758308" lon="26.022884">
<ele>182.568481</ele>
<time>2010-07-17T16:52:12Z</time>
<desc>lat.=55.758308, lon.=26.022884, Alt.=182.568481m. Speed=0.072000m/h.</desc>
<speed>0.020000</speed>
</trkpt>
<trkpt lat="55.758308" lon="26.022884">
<ele>182.568481</ele>
<time>2010-07-17T16:52:13Z</time>
<desc>lat.=55.758308, lon.=26.022884, Alt.=182.568481m. Speed=0.216000m/h.</desc>
<speed>0.060000</speed>
</trkpt>
<trkpt lat="55.758308" lon="26.022882">
<ele>182.572388</ele>
<time>2010-07-17T16:52:14Z</time>
<desc>lat.=55.758308, lon.=26.022882, Alt.=182.572388m. Speed=0.468000m/h.</desc>
<speed>0.130000</speed>
</trkpt>
<trkpt lat="55.758308" lon="26.022881">
<ele>182.572388</ele>
<time>2010-07-17T16:52:15Z</time>
<desc>lat.=55.758308, lon.=26.022881, Alt.=182.572388m. Speed=0.144000m/h.</desc>
<speed>0.040000</speed>
</trkpt>
<trkpt lat="55.758308" lon="26.022881">
<ele>182.580200</ele>
<time>2010-07-17T16:52:16Z</time>
<desc>lat.=55.758308, lon.=26.022881, Alt.=182.580200m. Speed=0.288000m/h.</desc>
<speed>0.080000</speed>
</trkpt>
<trkpt lat="55.758308" lon="26.022881">
<ele>182.580200</ele>
<time>2010-07-17T16:52:17Z</time>
<desc>lat.=55.758308, lon.=26.022881, Alt.=182.580200m. Speed=0.324000m/h.</desc>
<speed>0.090000</speed>
</trkpt>
<trkpt lat="55.758305" lon="26.022879">
<ele>182.588013</ele>
<time>2010-07-17T16:52:18Z</time>
<desc>lat.=55.758305, lon.=26.022879, Alt.=182.588013m. Speed=0.396000m/h.</desc>
<speed>0.110000</speed>
</trkpt>
<trkpt lat="55.758305" lon="26.022879">
<ele>182.588013</ele>
<time>2010-07-17T16:52:19Z</time>
<desc>lat.=55.758305, lon.=26.022879, Alt.=182.588013m. Speed=0.216000m/h.</desc>
<speed>0.060000</speed>
</trkpt>
<trkpt lat="55.758305" lon="26.022879">
<ele>182.591919</ele>
<time>2010-07-17T16:52:20Z</time>
<desc>lat.=55.758305, lon.=26.022879, Alt.=182.591919m. Speed=0.144000m/h.</desc>
<speed>0.040000</speed>
</trkpt>
<trkpt lat="55.758305" lon="26.022879">
<ele>182.591919</ele>
<time>2010-07-17T16:52:21Z</time>
<desc>lat.=55.758305, lon.=26.022879, Alt.=182.591919m. Speed=0.180000m/h.</desc>
<speed>0.050000</speed>
</trkpt>
<trkpt lat="55.758305" lon="26.022879">
<ele>182.591919</ele>
<time>2010-07-17T16:52:22Z</time>
<desc>lat.=55.758305, lon.=26.022879, Alt.=182.591919m. Speed=0.072000m/h.</desc>
<speed>0.020000</speed>
</trkpt>
<trkpt lat="55.758305" lon="26.022879">
<ele>182.599731</ele>
<time>2010-07-17T16:52:23Z</time>
<desc>lat.=55.758305, lon.=26.022879, Alt.=182.599731m. Speed=0.180000m/h.</desc>
<speed>0.050000</speed>
</trkpt>
<trkpt lat="55.758305" lon="26.022877">
<ele>182.607544</ele>
<time>2010-07-17T16:52:24Z</time>
<desc>lat.=55.758305, lon.=26.022877, Alt.=182.607544m. Speed=0.036000m/h.</desc>
<speed>0.010000</speed>
</trkpt>
<trkpt lat="55.758305" lon="26.022877">
<ele>182.619263</ele>
<time>2010-07-17T16:52:25Z</time>
<desc>lat.=55.758305, lon.=26.022877, Alt.=182.619263m. Speed=0.504000m/h.</desc>
<speed>0.140000</speed>
</trkpt>
<trkpt lat="55.758305" lon="26.022879">
<ele>182.627075</ele>
<time>2010-07-17T16:52:26Z</time>
<desc>lat.=55.758305, lon.=26.022879, Alt.=182.627075m. Speed=0.288000m/h.</desc>
<speed>0.080000</speed>
</trkpt>
<trkpt lat="55.758305" lon="26.022879">
<ele>182.634888</ele>
<time>2010-07-17T16:52:27Z</time>
<desc>lat.=55.758305, lon.=26.022879, Alt.=182.634888m. Speed=0.288000m/h.</desc>
<speed>0.080000</speed>
</trkpt>
<trkpt lat="55.758308" lon="26.022879">
<ele>182.646606</ele>
<time>2010-07-17T16:52:28Z</time>
<desc>lat.=55.758308, lon.=26.022879, Alt.=182.646606m. Speed=0.468000m/h.</desc>
<speed>0.130000</speed>
</trkpt>
<trkpt lat="55.758305" lon="26.022881">
<ele>182.658325</ele>
<time>2010-07-17T16:52:29Z</time>
<desc>lat.=55.758305, lon.=26.022881, Alt.=182.658325m. Speed=0.072000m/h.</desc>
<speed>0.020000</speed>
</trkpt>
<trkpt lat="55.758305" lon="26.022881">
<ele>182.662231</ele>
<time>2010-07-17T16:52:30Z</time>
<desc>lat.=55.758305, lon.=26.022881, Alt.=182.662231m. Speed=0.180000m/h.</desc>
<speed>0.050000</speed>
</trkpt>
<trkpt lat="55.758305" lon="26.022881">
<ele>182.666138</ele>
<time>2010-07-17T16:52:31Z</time>
<desc>lat.=55.758305, lon.=26.022881, Alt.=182.666138m. Speed=0.108000m/h.</desc>
<speed>0.030000</speed>
</trkpt>
<trkpt lat="55.758305" lon="26.022881">
<ele>182.670044</ele>
<time>2010-07-17T16:52:32Z</time>
<desc>lat.=55.758305, lon.=26.022881, Alt.=182.670044m. Speed=0.216000m/h.</desc>
<speed>0.060000</speed>
</trkpt>
<trkpt lat="55.758305" lon="26.022881">
<ele>182.677856</ele>
<time>2010-07-17T16:52:33Z</time>
<desc>lat.=55.758305, lon.=26.022881, Alt.=182.677856m. Speed=0.144000m/h.</desc>
<speed>0.040000</speed>
</trkpt>
<trkpt lat="55.758305" lon="26.022881">
<ele>182.677856</ele>
<time>2010-07-17T16:52:34Z</time>
<desc>lat.=55.758305, lon.=26.022881, Alt.=182.677856m. Speed=0.252000m/h.</desc>
<speed>0.070000</speed>
</trkpt>
<trkpt lat="55.758305" lon="26.022881">
<ele>182.673950</ele>
<time>2010-07-17T16:52:35Z</time>
<desc>lat.=55.758305, lon.=26.022881, Alt.=182.673950m. Speed=0.792000m/h.</desc>
<speed>0.220000</speed>
</trkpt>
<trkpt lat="55.758308" lon="26.022882">
<ele>182.662231</ele>
<time>2010-07-17T16:52:36Z</time>
<desc>lat.=55.758308, lon.=26.022882, Alt.=182.662231m. Speed=0.792000m/h.</desc>
<speed>0.220000</speed>
</trkpt>
<trkpt lat="55.758312" lon="26.022882">
<ele>182.658325</ele>
<time>2010-07-17T16:52:37Z</time>
<desc>lat.=55.758312, lon.=26.022882, Alt.=182.658325m. Speed=0.864000m/h.</desc>
<speed>0.240000</speed>
</trkpt>
<trkpt lat="55.758312" lon="26.022884">
<ele>182.658325</ele>
<time>2010-07-17T16:52:38Z</time>
<desc>lat.=55.758312, lon.=26.022884, Alt.=182.658325m. Speed=0.432000m/h.</desc>
<speed>0.120000</speed>
</trkpt>
<trkpt lat="55.758312" lon="26.022884">
<ele>182.650513</ele>
<time>2010-07-17T16:52:39Z</time>
<desc>lat.=55.758312, lon.=26.022884, Alt.=182.650513m. Speed=0.360000m/h.</desc>
<speed>0.100000</speed>
</trkpt>
<trkpt lat="55.758312" lon="26.022882">
<ele>182.634888</ele>
<time>2010-07-17T16:52:40Z</time>
<desc>lat.=55.758312, lon.=26.022882, Alt.=182.634888m. Speed=0.612000m/h.</desc>
<speed>0.170000</speed>
</trkpt>
<trkpt lat="55.758312" lon="26.022879">
<ele>182.627075</ele>
<time>2010-07-17T16:52:41Z</time>
<desc>lat.=55.758312, lon.=26.022879, Alt.=182.627075m. Speed=0.396000m/h.</desc>
<speed>0.110000</speed>
</trkpt>
<trkpt lat="55.758312" lon="26.022877">
<ele>182.615356</ele>
<time>2010-07-17T16:52:42Z</time>
<desc>lat.=55.758312, lon.=26.022877, Alt.=182.615356m. Speed=0.216000m/h.</desc>
<speed>0.060000</speed>
</trkpt>
<trkpt lat="55.758316" lon="26.022877">
<ele>182.599731</ele>
<time>2010-07-17T16:52:43Z</time>
<desc>lat.=55.758316, lon.=26.022877, Alt.=182.599731m. Speed=0.612000m/h.</desc>
<speed>0.170000</speed>
</trkpt>
<trkpt lat="55.758316" lon="26.022879">
<ele>182.580200</ele>
<time>2010-07-17T16:52:44Z</time>
<desc>lat.=55.758316, lon.=26.022879, Alt.=182.580200m. Speed=0.396000m/h.</desc>
<speed>0.110000</speed>
</trkpt>
<trkpt lat="55.758316" lon="26.022879">
<ele>182.576294</ele>
<time>2010-07-17T16:52:45Z</time>
<desc>lat.=55.758316, lon.=26.022879, Alt.=182.576294m. Speed=0.324000m/h.</desc>
<speed>0.090000</speed>
</trkpt>
<trkpt lat="55.758316" lon="26.022881">
<ele>182.576294</ele>
<time>2010-07-17T16:52:46Z</time>
<desc>lat.=55.758316, lon.=26.022881, Alt.=182.576294m. Speed=0.252000m/h.</desc>
<speed>0.070000</speed>
</trkpt>
<trkpt lat="55.758316" lon="26.022881">
<ele>182.576294</ele>
<time>2010-07-17T16:52:47Z</time>
<desc>lat.=55.758316, lon.=26.022881, Alt.=182.576294m. Speed=0.324000m/h.</desc>
<speed>0.090000</speed>
</trkpt>
<trkpt lat="55.758320" lon="26.022881">
<ele>182.576294</ele>
<time>2010-07-17T16:52:48Z</time>
<desc>lat.=55.758320, lon.=26.022881, Alt.=182.576294m. Speed=0.756000m/h.</desc>
<speed>0.210000</speed>
</trkpt>
<trkpt lat="55.758320" lon="26.022881">
<ele>182.564575</ele>
<time>2010-07-17T16:52:49Z</time>
<desc>lat.=55.758320, lon.=26.022881, Alt.=182.564575m. Speed=0.864000m/h.</desc>
<speed>0.240000</speed>
</trkpt>
<trkpt lat="55.758324" lon="26.022881">
<ele>182.556763</ele>
<time>2010-07-17T16:52:50Z</time>
<desc>lat.=55.758324, lon.=26.022881, Alt.=182.556763m. Speed=0.576000m/h.</desc>
<speed>0.160000</speed>
</trkpt>
<trkpt lat="55.758324" lon="26.022882">
<ele>182.545044</ele>
<time>2010-07-17T16:52:51Z</time>
<desc>lat.=55.758324, lon.=26.022882, Alt.=182.545044m. Speed=0.072000m/h.</desc>
<speed>0.020000</speed>
</trkpt>
<trkpt lat="55.758324" lon="26.022882">
<ele>182.517700</ele>
<time>2010-07-17T16:52:52Z</time>
<desc>lat.=55.758324, lon.=26.022882, Alt.=182.517700m. Speed=0.036000m/h.</desc>
<speed>0.010000</speed>
</trkpt>
<trkpt lat="55.758324" lon="26.022882">
<ele>182.521606</ele>
<time>2010-07-17T16:52:53Z</time>
<desc>lat.=55.758324, lon.=26.022882, Alt.=182.521606m. Speed=0.036000m/h.</desc>
<speed>0.010000</speed>
</trkpt>
<trkpt lat="55.758324" lon="26.022882">
<ele>182.509888</ele>
<time>2010-07-17T16:52:54Z</time>
<desc>lat.=55.758324, lon.=26.022882, Alt.=182.509888m. Speed=0.108000m/h.</desc>
<speed>0.030000</speed>
</trkpt>
<trkpt lat="55.758324" lon="26.022882">
<ele>182.482544</ele>
<time>2010-07-17T16:52:55Z</time>
<desc>lat.=55.758324, lon.=26.022882, Alt.=182.482544m. Speed=0.072000m/h.</desc>
<speed>0.020000</speed>
</trkpt>
<trkpt lat="55.758324" lon="26.022882">
<ele>182.466919</ele>
<time>2010-07-17T16:52:56Z</time>
<desc>lat.=55.758324, lon.=26.022882, Alt.=182.466919m. Speed=0.072000m/h.</desc>
<speed>0.020000</speed>
</trkpt>
<trkpt lat="55.758324" lon="26.022882">
<ele>182.466919</ele>
<time>2010-07-17T16:52:57Z</time>
<desc>lat.=55.758324, lon.=26.022882, Alt.=182.466919m. Speed=0.072000m/h.</desc>
<speed>0.020000</speed>
</trkpt>
<trkpt lat="55.758324" lon="26.022882">
<ele>182.466919</ele>
<time>2010-07-17T16:52:58Z</time>
<desc>lat.=55.758324, lon.=26.022882, Alt.=182.466919m. Speed=0.144000m/h.</desc>
<speed>0.040000</speed>
</trkpt>
<trkpt lat="55.758324" lon="26.022882">
<ele>182.478638</ele>
<time>2010-07-17T16:52:59Z</time>
<desc>lat.=55.758324, lon.=26.022882, Alt.=182.478638m. Speed=0.288000m/h.</desc>
<speed>0.080000</speed>
</trkpt>
<trkpt lat="55.758324" lon="26.022882">
<ele>182.478638</ele>
<time>2010-07-17T16:53:00Z</time>
<desc>lat.=55.758324, lon.=26.022882, Alt.=182.478638m. Speed=0.396000m/h.</desc>
<speed>0.110000</speed>
</trkpt>
<trkpt lat="55.758327" lon="26.022884">
<ele>182.486450</ele>
<time>2010-07-17T16:53:01Z</time>
<desc>lat.=55.758327, lon.=26.022884, Alt.=182.486450m. Speed=0.432000m/h.</desc>
<speed>0.120000</speed>
</trkpt>
<trkpt lat="55.758327" lon="26.022884">
<ele>182.482544</ele>
<time>2010-07-17T16:53:02Z</time>
<desc>lat.=55.758327, lon.=26.022884, Alt.=182.482544m. Speed=0.216000m/h.</desc>
<speed>0.060000</speed>
</trkpt>
<trkpt lat="55.758327" lon="26.022884">
<ele>182.478638</ele>
<time>2010-07-17T16:53:03Z</time>
<desc>lat.=55.758327, lon.=26.022884, Alt.=182.478638m. Speed=0.144000m/h.</desc>
<speed>0.040000</speed>
</trkpt>
<trkpt lat="55.758327" lon="26.022884">
<ele>182.466919</ele>
<time>2010-07-17T16:53:04Z</time>
<desc>lat.=55.758327, lon.=26.022884, Alt.=182.466919m. Speed=0.216000m/h.</desc>
<speed>0.060000</speed>
</trkpt>
<trkpt lat="55.758327" lon="26.022884">
<ele>182.463013</ele>
<time>2010-07-17T16:53:05Z</time>
<desc>lat.=55.758327, lon.=26.022884, Alt.=182.463013m. Speed=0.108000m/h.</desc>
<speed>0.030000</speed>
</trkpt>
<trkpt lat="55.758327" lon="26.022884">
<ele>182.463013</ele>
<time>2010-07-17T16:53:06Z</time>
<desc>lat.=55.758327, lon.=26.022884, Alt.=182.463013m. Speed=0.288000m/h.</desc>
<speed>0.080000</speed>
</trkpt>
<trkpt lat="55.758327" lon="26.022884">
<ele>182.459106</ele>
<time>2010-07-17T16:53:07Z</time>
<desc>lat.=55.758327, lon.=26.022884, Alt.=182.459106m. Speed=0.288000m/h.</desc>
<speed>0.080000</speed>
</trkpt>
<trkpt lat="55.758327" lon="26.022884">
<ele>182.459106</ele>
<time>2010-07-17T16:53:08Z</time>
<desc>lat.=55.758327, lon.=26.022884, Alt.=182.459106m. Speed=0.144000m/h.</desc>
<speed>0.040000</speed>
</trkpt>
<trkpt lat="55.758327" lon="26.022884">
<ele>182.455200</ele>
<time>2010-07-17T16:53:09Z</time>
<desc>lat.=55.758327, lon.=26.022884, Alt.=182.455200m. Speed=0.108000m/h.</desc>
<speed>0.030000</speed>
</trkpt>
<trkpt lat="55.758327" lon="26.022884">
<ele>182.451294</ele>
<time>2010-07-17T16:53:10Z</time>
<desc>lat.=55.758327, lon.=26.022884, Alt.=182.451294m. Speed=0.036000m/h.</desc>
<speed>0.010000</speed>
</trkpt>
<trkpt lat="55.758327" lon="26.022884">
<ele>182.447388</ele>
<time>2010-07-17T16:53:11Z</time>
<desc>lat.=55.758327, lon.=26.022884, Alt.=182.447388m. Speed=0.108000m/h.</desc>
<speed>0.030000</speed>
</trkpt>
<trkpt lat="55.758327" lon="26.022884">
<ele>182.439575</ele>
<time>2010-07-17T16:53:12Z</time>
<desc>lat.=55.758327, lon.=26.022884, Alt.=182.439575m. Speed=0.072000m/h.</desc>
<speed>0.020000</speed>
</trkpt>
<trkpt lat="55.758327" lon="26.022884">
<ele>182.427856</ele>
<time>2010-07-17T16:53:13Z</time>
<desc>lat.=55.758327, lon.=26.022884, Alt.=182.427856m. Speed=0.036000m/h.</desc>
<speed>0.010000</speed>
</trkpt>
<trkpt lat="55.758327" lon="26.022884">
<ele>182.423950</ele>
<time>2010-07-17T16:53:14Z</time>
<desc>lat.=55.758327, lon.=26.022884, Alt.=182.423950m. Speed=0.072000m/h.</desc>
<speed>0.020000</speed>
</trkpt>
<trkpt lat="55.758327" lon="26.022884">
<ele>182.423950</ele>
<time>2010-07-17T16:53:15Z</time>
<desc>lat.=55.758327, lon.=26.022884, Alt.=182.423950m. Speed=0.072000m/h.</desc>
<speed>0.020000</speed>
</trkpt>
<trkpt lat="55.758327" lon="26.022884">
<ele>182.423950</ele>
<time>2010-07-17T16:53:16Z</time>
<desc>lat.=55.758327, lon.=26.022884, Alt.=182.423950m. Speed=0.180000m/h.</desc>
<speed>0.050000</speed>
</trkpt>
<trkpt lat="55.758327" lon="26.022884">
<ele>182.420044</ele>
<time>2010-07-17T16:53:17Z</time>
<desc>lat.=55.758327, lon.=26.022884, Alt.=182.420044m. Speed=0.144000m/h.</desc>
<speed>0.040000</speed>
</trkpt>
<trkpt lat="55.758327" lon="26.022884">
<ele>182.420044</ele>
<time>2010-07-17T16:53:18Z</time>
<desc>lat.=55.758327, lon.=26.022884, Alt.=182.420044m. Speed=0.108000m/h.</desc>
<speed>0.030000</speed>
</trkpt>
<trkpt lat="55.758327" lon="26.022884">
<ele>182.423950</ele>
<time>2010-07-17T16:53:19Z</time>
<desc>lat.=55.758327, lon.=26.022884, Alt.=182.423950m. Speed=0.360000m/h.</desc>
<speed>0.100000</speed>
</trkpt>
<trkpt lat="55.758327" lon="26.022886">
<ele>182.423950</ele>
<time>2010-07-17T16:53:20Z</time>
<desc>lat.=55.758327, lon.=26.022886, Alt.=182.423950m. Speed=0.468000m/h.</desc>
<speed>0.130000</speed>
</trkpt>
<trkpt lat="55.758327" lon="26.022886">
<ele>182.427856</ele>
<time>2010-07-17T16:53:21Z</time>
<desc>lat.=55.758327, lon.=26.022886, Alt.=182.427856m. Speed=0.360000m/h.</desc>
<speed>0.100000</speed>
</trkpt>
<trkpt lat="55.758327" lon="26.022886">
<ele>182.423950</ele>
<time>2010-07-17T16:53:22Z</time>
<desc>lat.=55.758327, lon.=26.022886, Alt.=182.423950m. Speed=0.648000m/h.</desc>
<speed>0.180000</speed>
</trkpt>
<trkpt lat="55.758327" lon="26.022890">
<ele>182.420044</ele>
<time>2010-07-17T16:53:23Z</time>
<desc>lat.=55.758327, lon.=26.022890, Alt.=182.420044m. Speed=2.700000m/h.</desc>
<speed>0.750000</speed>
</trkpt>
<trkpt lat="55.758335" lon="26.022934">
<ele>182.892700</ele>
<time>2010-07-17T16:53:24Z</time>
<desc>lat.=55.758335, lon.=26.022934, Alt.=182.892700m. Speed=4.428000m/h.</desc>
<speed>1.230000</speed>
</trkpt>
<trkpt lat="55.758339" lon="26.022989">
<ele>183.611450</ele>
<time>2010-07-17T16:53:25Z</time>
<desc>lat.=55.758339, lon.=26.022989, Alt.=183.611450m. Speed=9.108000m/h.</desc>
<speed>2.530000</speed>
</trkpt>
<trkpt lat="55.758324" lon="26.023060">
<ele>183.822388</ele>
<time>2010-07-17T16:53:26Z</time>
<desc>lat.=55.758324, lon.=26.023060, Alt.=183.822388m. Speed=10.836000m/h.</desc>
<speed>3.010000</speed>
</trkpt>
<trkpt lat="55.758312" lon="26.023125">
<ele>184.060669</ele>
<time>2010-07-17T16:53:27Z</time>
<desc>lat.=55.758312, lon.=26.023125, Alt.=184.060669m. Speed=9.828000m/h.</desc>
<speed>2.730000</speed>
</trkpt>
<trkpt lat="55.758301" lon="26.023174">
<ele>184.357544</ele>
<time>2010-07-17T16:53:28Z</time>
<desc>lat.=55.758301, lon.=26.023174, Alt.=184.357544m. Speed=8.784000m/h.</desc>
<speed>2.440000</speed>
</trkpt>
<trkpt lat="55.758293" lon="26.023226">
<ele>184.119263</ele>
<time>2010-07-17T16:53:29Z</time>
<desc>lat.=55.758293, lon.=26.023226, Alt.=184.119263m. Speed=8.208000m/h.</desc>
<speed>2.280000</speed>
</trkpt>
<trkpt lat="55.758289" lon="26.023285">
<ele>184.791138</ele>
<time>2010-07-17T16:53:30Z</time>
<desc>lat.=55.758289, lon.=26.023285, Alt.=184.791138m. Speed=8.460000m/h.</desc>
<speed>2.350000</speed>
</trkpt>
<trkpt lat="55.758278" lon="26.023321">
<ele>184.947388</ele>
<time>2010-07-17T16:53:31Z</time>
<desc>lat.=55.758278, lon.=26.023321, Alt.=184.947388m. Speed=9.288000m/h.</desc>
<speed>2.580000</speed>
</trkpt>
<trkpt lat="55.758263" lon="26.023361">
<ele>184.838013</ele>
<time>2010-07-17T16:53:32Z</time>
<desc>lat.=55.758263, lon.=26.023361, Alt.=184.838013m. Speed=11.556000m/h.</desc>
<speed>3.210000</speed>
</trkpt>
<trkpt lat="55.758244" lon="26.023415">
<ele>185.224731</ele>
<time>2010-07-17T16:53:33Z</time>
<desc>lat.=55.758244, lon.=26.023415, Alt.=185.224731m. Speed=12.240000m/h.</desc>
<speed>3.400000</speed>
</trkpt>
<trkpt lat="55.758224" lon="26.023458">
<ele>185.142700</ele>
<time>2010-07-17T16:53:34Z</time>
<desc>lat.=55.758224, lon.=26.023458, Alt.=185.142700m. Speed=10.152000m/h.</desc>
<speed>2.820000</speed>
</trkpt>
<trkpt lat="55.758202" lon="26.023499">
<ele>184.783325</ele>
<time>2010-07-17T16:53:35Z</time>
<desc>lat.=55.758202, lon.=26.023499, Alt.=184.783325m. Speed=12.852000m/h.</desc>
<speed>3.570000</speed>
</trkpt>
<trkpt lat="55.758179" lon="26.023548">
<ele>184.595825</ele>
<time>2010-07-17T16:53:36Z</time>
<desc>lat.=55.758179, lon.=26.023548, Alt.=184.595825m. Speed=13.392000m/h.</desc>
<speed>3.720000</speed>
</trkpt>
<trkpt lat="55.758148" lon="26.023621">
<ele>182.576294</ele>
<time>2010-07-17T16:53:37Z</time>
<desc>lat.=55.758148, lon.=26.023621, Alt.=182.576294m. Speed=15.552000m/h.</desc>
<speed>4.320000</speed>
</trkpt>
<trkpt lat="55.758129" lon="26.023684">
<ele>182.509888</ele>
<time>2010-07-17T16:53:38Z</time>
<desc>lat.=55.758129, lon.=26.023684, Alt.=182.509888m. Speed=14.616000m/h.</desc>
<speed>4.060000</speed>
</trkpt>
<trkpt lat="55.758099" lon="26.023743">
<ele>182.224731</ele>
<time>2010-07-17T16:53:39Z</time>
<desc>lat.=55.758099, lon.=26.023743, Alt.=182.224731m. Speed=15.048000m/h.</desc>
<speed>4.180000</speed>
</trkpt>
<trkpt lat="55.758072" lon="26.023804">
<ele>181.931763</ele>
<time>2010-07-17T16:53:40Z</time>
<desc>lat.=55.758072, lon.=26.023804, Alt.=181.931763m. Speed=14.580000m/h.</desc>
<speed>4.050000</speed>
</trkpt>
<trkpt lat="55.758045" lon="26.023863">
<ele>181.392700</ele>
<time>2010-07-17T16:53:41Z</time>
<desc>lat.=55.758045, lon.=26.023863, Alt.=181.392700m. Speed=15.228000m/h.</desc>
<speed>4.230000</speed>
</trkpt>
<trkpt lat="55.758015" lon="26.023951">
<ele>178.677856</ele>
<time>2010-07-17T16:53:42Z</time>
<desc>lat.=55.758015, lon.=26.023951, Alt.=178.677856m. Speed=13.248000m/h.</desc>
<speed>3.680000</speed>
</trkpt>
<trkpt lat="55.757988" lon="26.023983">
<ele>178.974731</ele>
<time>2010-07-17T16:53:43Z</time>
<desc>lat.=55.757988, lon.=26.023983, Alt.=178.974731m. Speed=12.276000m/h.</desc>
<speed>3.410000</speed>
</trkpt>
<trkpt lat="55.757957" lon="26.024033">
<ele>178.744263</ele>
<time>2010-07-17T16:53:44Z</time>
<desc>lat.=55.757957, lon.=26.024033, Alt.=178.744263m. Speed=14.220000m/h.</desc>
<speed>3.950000</speed>
</trkpt>
<trkpt lat="55.757935" lon="26.024090">
<ele>179.443481</ele>
<time>2010-07-17T16:53:45Z</time>
<desc>lat.=55.757935, lon.=26.024090, Alt.=179.443481m. Speed=13.860000m/h.</desc>
<speed>3.850000</speed>
</trkpt>
<trkpt lat="55.757908" lon="26.024139">
<ele>180.138794</ele>
<time>2010-07-17T16:53:46Z</time>
<desc>lat.=55.757908, lon.=26.024139, Alt.=180.138794m. Speed=13.680000m/h.</desc>
<speed>3.800000</speed>
</trkpt>
<trkpt lat="55.757881" lon="26.024181">
<ele>179.474731</ele>
<time>2010-07-17T16:53:47Z</time>
<desc>lat.=55.757881, lon.=26.024181, Alt.=179.474731m. Speed=11.844000m/h.</desc>
<speed>3.290000</speed>
</trkpt>
<trkpt lat="55.757854" lon="26.024227">
<ele>179.060669</ele>
<time>2010-07-17T16:53:48Z</time>
<desc>lat.=55.757854, lon.=26.024227, Alt.=179.060669m. Speed=12.852000m/h.</desc>
<speed>3.570000</speed>
</trkpt>
<trkpt lat="55.757828" lon="26.024269">
<ele>178.834106</ele>
<time>2010-07-17T16:53:49Z</time>
<desc>lat.=55.757828, lon.=26.024269, Alt.=178.834106m. Speed=13.464000m/h.</desc>
<speed>3.740000</speed>
</trkpt>
<trkpt lat="55.757801" lon="26.024317">
<ele>177.869263</ele>
<time>2010-07-17T16:53:50Z</time>
<desc>lat.=55.757801, lon.=26.024317, Alt.=177.869263m. Speed=12.816000m/h.</desc>
<speed>3.560000</speed>
</trkpt>
<trkpt lat="55.757782" lon="26.024353">
<ele>177.314575</ele>
<time>2010-07-17T16:53:51Z</time>
<desc>lat.=55.757782, lon.=26.024353, Alt.=177.314575m. Speed=11.160000m/h.</desc>
<speed>3.100000</speed>
</trkpt>
<trkpt lat="55.757763" lon="26.024387">
<ele>177.252075</ele>
<time>2010-07-17T16:53:52Z</time>
<desc>lat.=55.757763, lon.=26.024387, Alt.=177.252075m. Speed=10.368000m/h.</desc>
<speed>2.880000</speed>
</trkpt>
<trkpt lat="55.757748" lon="26.024410">
<ele>177.560669</ele>
<time>2010-07-17T16:53:53Z</time>
<desc>lat.=55.757748, lon.=26.024410, Alt.=177.560669m. Speed=6.948000m/h.</desc>
<speed>1.930000</speed>
</trkpt>
<trkpt lat="55.757736" lon="26.024427">
<ele>177.630981</ele>
<time>2010-07-17T16:53:54Z</time>
<desc>lat.=55.757736, lon.=26.024427, Alt.=177.630981m. Speed=1.188000m/h.</desc>
<speed>0.330000</speed>
</trkpt>
<trkpt lat="55.757736" lon="26.024431">
<ele>177.357544</ele>
<time>2010-07-17T16:53:55Z</time>
<desc>lat.=55.757736, lon.=26.024431, Alt.=177.357544m. Speed=0.828000m/h.</desc>
<speed>0.230000</speed>
</trkpt>
<trkpt lat="55.757736" lon="26.024429">
<ele>177.509888</ele>
<time>2010-07-17T16:53:56Z</time>
<desc>lat.=55.757736, lon.=26.024429, Alt.=177.509888m. Speed=0.540000m/h.</desc>
<speed>0.150000</speed>
</trkpt>
<trkpt lat="55.757736" lon="26.024431">
<ele>177.287231</ele>
<time>2010-07-17T16:53:57Z</time>
<desc>lat.=55.757736, lon.=26.024431, Alt.=177.287231m. Speed=0.216000m/h.</desc>
<speed>0.060000</speed>
</trkpt>
<trkpt lat="55.757736" lon="26.024431">
<ele>177.213013</ele>
<time>2010-07-17T16:53:58Z</time>
<desc>lat.=55.757736, lon.=26.024431, Alt.=177.213013m. Speed=0.360000m/h.</desc>
<speed>0.100000</speed>
</trkpt>
<trkpt lat="55.757736" lon="26.024433">
<ele>177.162231</ele>
<time>2010-07-17T16:53:59Z</time>
<desc>lat.=55.757736, lon.=26.024433, Alt.=177.162231m. Speed=0.180000m/h.</desc>
<speed>0.050000</speed>
</trkpt>
<trkpt lat="55.757736" lon="26.024433">
<ele>177.119263</ele>
<time>2010-07-17T16:54:00Z</time>
<desc>lat.=55.757736, lon.=26.024433, Alt.=177.119263m. Speed=0.072000m/h.</desc>
<speed>0.020000</speed>
</trkpt>
<trkpt lat="55.757736" lon="26.024433">
<ele>177.084106</ele>
<time>2010-07-17T16:54:01Z</time>
<desc>lat.=55.757736, lon.=26.024433, Alt.=177.084106m. Speed=0.144000m/h.</desc>
<speed>0.040000</speed>
</trkpt>
<trkpt lat="55.757736" lon="26.024433">
<ele>177.060669</ele>
<time>2010-07-17T16:54:02Z</time>
<desc>lat.=55.757736, lon.=26.024433, Alt.=177.060669m. Speed=0.000000m/h.</desc>
<speed>0.000000</speed>
</trkpt>
<trkpt lat="55.757736" lon="26.024433">
<ele>177.037231</ele>
<time>2010-07-17T16:54:03Z</time>
<desc>lat.=55.757736, lon.=26.024433, Alt.=177.037231m. Speed=0.288000m/h.</desc>
<speed>0.080000</speed>
</trkpt>
<trkpt lat="55.757736" lon="26.024433">
<ele>176.994263</ele>
<time>2010-07-17T16:54:04Z</time>
<desc>lat.=55.757736, lon.=26.024433, Alt.=176.994263m. Speed=0.432000m/h.</desc>
<speed>0.120000</speed>
</trkpt>
<trkpt lat="55.757736" lon="26.024435">
<ele>176.974731</ele>
<time>2010-07-17T16:54:05Z</time>
<desc>lat.=55.757736, lon.=26.024435, Alt.=176.974731m. Speed=0.216000m/h.</desc>
<speed>0.060000</speed>
</trkpt>
<trkpt lat="55.757736" lon="26.024433">
<ele>176.959106</ele>
<time>2010-07-17T16:54:06Z</time>
<desc>lat.=55.757736, lon.=26.024433, Alt.=176.959106m. Speed=0.504000m/h.</desc>
<speed>0.140000</speed>
</trkpt>
<trkpt lat="55.757736" lon="26.024431">
<ele>176.935669</ele>
<time>2010-07-17T16:54:07Z</time>
<desc>lat.=55.757736, lon.=26.024431, Alt.=176.935669m. Speed=0.252000m/h.</desc>
<speed>0.070000</speed>
</trkpt>
<trkpt lat="55.757736" lon="26.024431">
<ele>176.927856</ele>
<time>2010-07-17T16:54:08Z</time>
<desc>lat.=55.757736, lon.=26.024431, Alt.=176.927856m. Speed=0.216000m/h.</desc>
<speed>0.060000</speed>
</trkpt>
<trkpt lat="55.757736" lon="26.024431">
<ele>176.927856</ele>
<time>2010-07-17T16:54:09Z</time>
<desc>lat.=55.757736, lon.=26.024431, Alt.=176.927856m. Speed=0.324000m/h.</desc>
<speed>0.090000</speed>
</trkpt>
<trkpt lat="55.757736" lon="26.024429">
<ele>176.923950</ele>
<time>2010-07-17T16:54:10Z</time>
<desc>lat.=55.757736, lon.=26.024429, Alt.=176.923950m. Speed=0.252000m/h.</desc>
<speed>0.070000</speed>
</trkpt>
<trkpt lat="55.757736" lon="26.024429">
<ele>176.923950</ele>
<time>2010-07-17T16:54:11Z</time>
<desc>lat.=55.757736, lon.=26.024429, Alt.=176.923950m. Speed=0.288000m/h.</desc>
<speed>0.080000</speed>
</trkpt>
<trkpt lat="55.757736" lon="26.024427">
<ele>176.927856</ele>
<time>2010-07-17T16:54:12Z</time>
<desc>lat.=55.757736, lon.=26.024427, Alt.=176.927856m. Speed=0.288000m/h.</desc>
<speed>0.080000</speed>
</trkpt>
<trkpt lat="55.757732" lon="26.024427">
<ele>176.920044</ele>
<time>2010-07-17T16:54:13Z</time>
<desc>lat.=55.757732, lon.=26.024427, Alt.=176.920044m. Speed=0.144000m/h.</desc>
<speed>0.040000</speed>
</trkpt>
<trkpt lat="55.757732" lon="26.024427">
<ele>176.923950</ele>
<time>2010-07-17T16:54:14Z</time>
<desc>lat.=55.757732, lon.=26.024427, Alt.=176.923950m. Speed=0.072000m/h.</desc>
<speed>0.020000</speed>
</trkpt>
<trkpt lat="55.757732" lon="26.024427">
<ele>176.927856</ele>
<time>2010-07-17T16:54:15Z</time>
<desc>lat.=55.757732, lon.=26.024427, Alt.=176.927856m. Speed=0.180000m/h.</desc>
<speed>0.050000</speed>
</trkpt>
<trkpt lat="55.757732" lon="26.024427">
<ele>176.931763</ele>
<time>2010-07-17T16:54:16Z</time>
<desc>lat.=55.757732, lon.=26.024427, Alt.=176.931763m. Speed=0.540000m/h.</desc>
<speed>0.150000</speed>
</trkpt>
<trkpt lat="55.757732" lon="26.024427">
<ele>176.935669</ele>
<time>2010-07-17T16:54:17Z</time>
<desc>lat.=55.757732, lon.=26.024427, Alt.=176.935669m. Speed=0.576000m/h.</desc>
<speed>0.160000</speed>
</trkpt>
<trkpt lat="55.757732" lon="26.024427">
<ele>176.939575</ele>
<time>2010-07-17T16:54:18Z</time>
<desc>lat.=55.757732, lon.=26.024427, Alt.=176.939575m. Speed=0.000000m/h.</desc>
<speed>0.000000</speed>
</trkpt>
<trkpt lat="55.757732" lon="26.024427">
<ele>176.931763</ele>
<time>2010-07-17T16:54:19Z</time>
<desc>lat.=55.757732, lon.=26.024427, Alt.=176.931763m. Speed=0.144000m/h.</desc>
<speed>0.040000</speed>
</trkpt>
<trkpt lat="55.757732" lon="26.024427">
<ele>176.923950</ele>
<time>2010-07-17T16:54:20Z</time>
<desc>lat.=55.757732, lon.=26.024427, Alt.=176.923950m. Speed=0.216000m/h.</desc>
<speed>0.060000</speed>
</trkpt>
<trkpt lat="55.757732" lon="26.024426">
<ele>176.908325</ele>
<time>2010-07-17T16:54:21Z</time>
<desc>lat.=55.757732, lon.=26.024426, Alt.=176.908325m. Speed=0.180000m/h.</desc>
<speed>0.050000</speed>
</trkpt>
<trkpt lat="55.757732" lon="26.024427">
<ele>176.900513</ele>
<time>2010-07-17T16:54:22Z</time>
<desc>lat.=55.757732, lon.=26.024427, Alt.=176.900513m. Speed=0.288000m/h.</desc>
<speed>0.080000</speed>
</trkpt>
<trkpt lat="55.757729" lon="26.024427">
<ele>176.888794</ele>
<time>2010-07-17T16:54:23Z</time>
<desc>lat.=55.757729, lon.=26.024427, Alt.=176.888794m. Speed=0.288000m/h.</desc>
<speed>0.080000</speed>
</trkpt>
<trkpt lat="55.757729" lon="26.024429">
<ele>176.880981</ele>
<time>2010-07-17T16:54:24Z</time>
<desc>lat.=55.757729, lon.=26.024429, Alt.=176.880981m. Speed=0.144000m/h.</desc>
<speed>0.040000</speed>
</trkpt>
<trkpt lat="55.757732" lon="26.024431">
<ele>176.877075</ele>
<time>2010-07-17T16:54:25Z</time>
<desc>lat.=55.757732, lon.=26.024431, Alt.=176.877075m. Speed=0.288000m/h.</desc>
<speed>0.080000</speed>
</trkpt>
<trkpt lat="55.757729" lon="26.024431">
<ele>176.873169</ele>
<time>2010-07-17T16:54:26Z</time>
<desc>lat.=55.757729, lon.=26.024431, Alt.=176.873169m. Speed=0.180000m/h.</desc>
<speed>0.050000</speed>
</trkpt>
<trkpt lat="55.757729" lon="26.024431">
<ele>176.869263</ele>
<time>2010-07-17T16:54:27Z</time>
<desc>lat.=55.757729, lon.=26.024431, Alt.=176.869263m. Speed=0.216000m/h.</desc>
<speed>0.060000</speed>
</trkpt>
<trkpt lat="55.757729" lon="26.024433">
<ele>176.865356</ele>
<time>2010-07-17T16:54:28Z</time>
<desc>lat.=55.757729, lon.=26.024433, Alt.=176.865356m. Speed=0.072000m/h.</desc>
<speed>0.020000</speed>
</trkpt>
<trkpt lat="55.757729" lon="26.024433">
<ele>176.857544</ele>
<time>2010-07-17T16:54:29Z</time>
<desc>lat.=55.757729, lon.=26.024433, Alt.=176.857544m. Speed=0.036000m/h.</desc>
<speed>0.010000</speed>
</trkpt>
<trkpt lat="55.757729" lon="26.024433">
<ele>176.853638</ele>
<time>2010-07-17T16:54:30Z</time>
<desc>lat.=55.757729, lon.=26.024433, Alt.=176.853638m. Speed=0.108000m/h.</desc>
<speed>0.030000</speed>
</trkpt>
<trkpt lat="55.757729" lon="26.024433">
<ele>176.849731</ele>
<time>2010-07-17T16:54:31Z</time>
<desc>lat.=55.757729, lon.=26.024433, Alt.=176.849731m. Speed=0.144000m/h.</desc>
<speed>0.040000</speed>
</trkpt>
<trkpt lat="55.757729" lon="26.024433">
<ele>176.849731</ele>
<time>2010-07-17T16:54:32Z</time>
<desc>lat.=55.757729, lon.=26.024433, Alt.=176.849731m. Speed=0.252000m/h.</desc>
<speed>0.070000</speed>
</trkpt>
<trkpt lat="55.757729" lon="26.024433">
<ele>176.853638</ele>
<time>2010-07-17T16:54:33Z</time>
<desc>lat.=55.757729, lon.=26.024433, Alt.=176.853638m. Speed=0.072000m/h.</desc>
<speed>0.020000</speed>
</trkpt>
<trkpt lat="55.757729" lon="26.024433">
<ele>176.857544</ele>
<time>2010-07-17T16:54:34Z</time>
<desc>lat.=55.757729, lon.=26.024433, Alt.=176.857544m. Speed=0.108000m/h.</desc>
<speed>0.030000</speed>
</trkpt>
<trkpt lat="55.757729" lon="26.024433">
<ele>176.865356</ele>
<time>2010-07-17T16:54:35Z</time>
<desc>lat.=55.757729, lon.=26.024433, Alt.=176.865356m. Speed=0.180000m/h.</desc>
<speed>0.050000</speed>
</trkpt>
<trkpt lat="55.757729" lon="26.024435">
<ele>176.865356</ele>
<time>2010-07-17T16:54:36Z</time>
<desc>lat.=55.757729, lon.=26.024435, Alt.=176.865356m. Speed=0.216000m/h.</desc>
<speed>0.060000</speed>
</trkpt>
<trkpt lat="55.757729" lon="26.024435">
<ele>176.869263</ele>
<time>2010-07-17T16:54:37Z</time>
<desc>lat.=55.757729, lon.=26.024435, Alt.=176.869263m. Speed=0.144000m/h.</desc>
<speed>0.040000</speed>
</trkpt>
<trkpt lat="55.757729" lon="26.024437">
<ele>176.869263</ele>
<time>2010-07-17T16:54:38Z</time>
<desc>lat.=55.757729, lon.=26.024437, Alt.=176.869263m. Speed=0.180000m/h.</desc>
<speed>0.050000</speed>
</trkpt>
<trkpt lat="55.757729" lon="26.024437">
<ele>176.873169</ele>
<time>2010-07-17T16:54:39Z</time>
<desc>lat.=55.757729, lon.=26.024437, Alt.=176.873169m. Speed=0.216000m/h.</desc>
<speed>0.060000</speed>
</trkpt>
<trkpt lat="55.757725" lon="26.024437">
<ele>176.873169</ele>
<time>2010-07-17T16:54:40Z</time>
<desc>lat.=55.757725, lon.=26.024437, Alt.=176.873169m. Speed=0.540000m/h.</desc>
<speed>0.150000</speed>
</trkpt>
<trkpt lat="55.757725" lon="26.024439">
<ele>176.873169</ele>
<time>2010-07-17T16:54:41Z</time>
<desc>lat.=55.757725, lon.=26.024439, Alt.=176.873169m. Speed=0.504000m/h.</desc>
<speed>0.140000</speed>
</trkpt>
<trkpt lat="55.757725" lon="26.024437">
<ele>176.873169</ele>
<time>2010-07-17T16:54:42Z</time>
<desc>lat.=55.757725, lon.=26.024437, Alt.=176.873169m. Speed=0.468000m/h.</desc>
<speed>0.130000</speed>
</trkpt>
<trkpt lat="55.757721" lon="26.024437">
<ele>176.869263</ele>
<time>2010-07-17T16:54:43Z</time>
<desc>lat.=55.757721, lon.=26.024437, Alt.=176.869263m. Speed=0.684000m/h.</desc>
<speed>0.190000</speed>
</trkpt>
<trkpt lat="55.757721" lon="26.024435">
<ele>176.861450</ele>
<time>2010-07-17T16:54:44Z</time>
<desc>lat.=55.757721, lon.=26.024435, Alt.=176.861450m. Speed=0.468000m/h.</desc>
<speed>0.130000</speed>
</trkpt>
<trkpt lat="55.757721" lon="26.024433">
<ele>176.849731</ele>
<time>2010-07-17T16:54:45Z</time>
<desc>lat.=55.757721, lon.=26.024433, Alt.=176.849731m. Speed=0.468000m/h.</desc>
<speed>0.130000</speed>
</trkpt>
<trkpt lat="55.757721" lon="26.024431">
<ele>176.841919</ele>
<time>2010-07-17T16:54:46Z</time>
<desc>lat.=55.757721, lon.=26.024431, Alt.=176.841919m. Speed=0.180000m/h.</desc>
<speed>0.050000</speed>
</trkpt>
<trkpt lat="55.757721" lon="26.024431">
<ele>176.826294</ele>
<time>2010-07-17T16:54:47Z</time>
<desc>lat.=55.757721, lon.=26.024431, Alt.=176.826294m. Speed=0.036000m/h.</desc>
<speed>0.010000</speed>
</trkpt>
<trkpt lat="55.757721" lon="26.024431">
<ele>176.814575</ele>
<time>2010-07-17T16:54:48Z</time>
<desc>lat.=55.757721, lon.=26.024431, Alt.=176.814575m. Speed=0.288000m/h.</desc>
<speed>0.080000</speed>
</trkpt>
<trkpt lat="55.757717" lon="26.024431">
<ele>176.798950</ele>
<time>2010-07-17T16:54:49Z</time>
<desc>lat.=55.757717, lon.=26.024431, Alt.=176.798950m. Speed=0.324000m/h.</desc>
<speed>0.090000</speed>
</trkpt>
<trkpt lat="55.757717" lon="26.024429">
<ele>176.783325</ele>
<time>2010-07-17T16:54:50Z</time>
<desc>lat.=55.757717, lon.=26.024429, Alt.=176.783325m. Speed=0.144000m/h.</desc>
<speed>0.040000</speed>
</trkpt>
<trkpt lat="55.757717" lon="26.024429">
<ele>176.767700</ele>
<time>2010-07-17T16:54:51Z</time>
<desc>lat.=55.757717, lon.=26.024429, Alt.=176.767700m. Speed=0.072000m/h.</desc>
<speed>0.020000</speed>
</trkpt>
<trkpt lat="55.757717" lon="26.024429">
<ele>176.748169</ele>
<time>2010-07-17T16:54:52Z</time>
<desc>lat.=55.757717, lon.=26.024429, Alt.=176.748169m. Speed=0.252000m/h.</desc>
<speed>0.070000</speed>
</trkpt>
<trkpt lat="55.757717" lon="26.024429">
<ele>176.724731</ele>
<time>2010-07-17T16:54:53Z</time>
<desc>lat.=55.757717, lon.=26.024429, Alt.=176.724731m. Speed=0.252000m/h.</desc>
<speed>0.070000</speed>
</trkpt>
<trkpt lat="55.757717" lon="26.024427">
<ele>176.697388</ele>
<time>2010-07-17T16:54:54Z</time>
<desc>lat.=55.757717, lon.=26.024427, Alt.=176.697388m. Speed=0.108000m/h.</desc>
<speed>0.030000</speed>
</trkpt>
<trkpt lat="55.757717" lon="26.024427">
<ele>176.673950</ele>
<time>2010-07-17T16:54:55Z</time>
<desc>lat.=55.757717, lon.=26.024427, Alt.=176.673950m. Speed=0.108000m/h.</desc>
<speed>0.030000</speed>
</trkpt>
<trkpt lat="55.757717" lon="26.024427">
<ele>176.658325</ele>
<time>2010-07-17T16:54:56Z</time>
<desc>lat.=55.757717, lon.=26.024427, Alt.=176.658325m. Speed=0.072000m/h.</desc>
<speed>0.020000</speed>
</trkpt>
<trkpt lat="55.757717" lon="26.024426">
<ele>176.638794</ele>
<time>2010-07-17T16:54:57Z</time>
<desc>lat.=55.757717, lon.=26.024426, Alt.=176.638794m. Speed=0.036000m/h.</desc>
<speed>0.010000</speed>
</trkpt>
<trkpt lat="55.757717" lon="26.024427">
<ele>176.619263</ele>
<time>2010-07-17T16:54:58Z</time>
<desc>lat.=55.757717, lon.=26.024427, Alt.=176.619263m. Speed=0.072000m/h.</desc>
<speed>0.020000</speed>
</trkpt>
<trkpt lat="55.757717" lon="26.024426">
<ele>176.599731</ele>
<time>2010-07-17T16:54:59Z</time>
<desc>lat.=55.757717, lon.=26.024426, Alt.=176.599731m. Speed=0.036000m/h.</desc>
<speed>0.010000</speed>
</trkpt>
<trkpt lat="55.757717" lon="26.024426">
<ele>176.584106</ele>
<time>2010-07-17T16:55:00Z</time>
<desc>lat.=55.757717, lon.=26.024426, Alt.=176.584106m. Speed=0.072000m/h.</desc>
<speed>0.020000</speed>
</trkpt>
<trkpt lat="55.757717" lon="26.024426">
<ele>176.580200</ele>
<time>2010-07-17T16:55:01Z</time>
<desc>lat.=55.757717, lon.=26.024426, Alt.=176.580200m. Speed=0.180000m/h.</desc>
<speed>0.050000</speed>
</trkpt>
<trkpt lat="55.757717" lon="26.024427">
<ele>176.576294</ele>
<time>2010-07-17T16:55:02Z</time>
<desc>lat.=55.757717, lon.=26.024427, Alt.=176.576294m. Speed=0.144000m/h.</desc>
<speed>0.040000</speed>
</trkpt>
<trkpt lat="55.757717" lon="26.024427">
<ele>176.572388</ele>
<time>2010-07-17T16:55:03Z</time>
<desc>lat.=55.757717, lon.=26.024427, Alt.=176.572388m. Speed=0.036000m/h.</desc>
<speed>0.010000</speed>
</trkpt>
<trkpt lat="55.757717" lon="26.024427">
<ele>176.564575</ele>
<time>2010-07-17T16:55:04Z</time>
<desc>lat.=55.757717, lon.=26.024427, Alt.=176.564575m. Speed=0.072000m/h.</desc>
<speed>0.020000</speed>
</trkpt>
<trkpt lat="55.757717" lon="26.024427">
<ele>176.560669</ele>
<time>2010-07-17T16:55:05Z</time>
<desc>lat.=55.757717, lon.=26.024427, Alt.=176.560669m. Speed=0.108000m/h.</desc>
<speed>0.030000</speed>
</trkpt>
<trkpt lat="55.757717" lon="26.024427">
<ele>176.552856</ele>
<time>2010-07-17T16:55:06Z</time>
<desc>lat.=55.757717, lon.=26.024427, Alt.=176.552856m. Speed=0.252000m/h.</desc>
<speed>0.070000</speed>
</trkpt>
<trkpt lat="55.757717" lon="26.024427">
<ele>176.545044</ele>
<time>2010-07-17T16:55:07Z</time>
<desc>lat.=55.757717, lon.=26.024427, Alt.=176.545044m. Speed=0.108000m/h.</desc>
<speed>0.030000</speed>
</trkpt>
<trkpt lat="55.757717" lon="26.024427">
<ele>176.541138</ele>
<time>2010-07-17T16:55:08Z</time>
<desc>lat.=55.757717, lon.=26.024427, Alt.=176.541138m. Speed=0.000000m/h.</desc>
<speed>0.000000</speed>
</trkpt>
<trkpt lat="55.757717" lon="26.024427">
<ele>176.533325</ele>
<time>2010-07-17T16:55:09Z</time>
<desc>lat.=55.757717, lon.=26.024427, Alt.=176.533325m. Speed=0.072000m/h.</desc>
<speed>0.020000</speed>
</trkpt>
<trkpt lat="55.757717" lon="26.024427">
<ele>176.517700</ele>
<time>2010-07-17T16:55:10Z</time>
<desc>lat.=55.757717, lon.=26.024427, Alt.=176.517700m. Speed=0.108000m/h.</desc>
<speed>0.030000</speed>
</trkpt>
<trkpt lat="55.757717" lon="26.024427">
<ele>176.509888</ele>
<time>2010-07-17T16:55:11Z</time>
<desc>lat.=55.757717, lon.=26.024427, Alt.=176.509888m. Speed=0.144000m/h.</desc>
<speed>0.040000</speed>
</trkpt>
<trkpt lat="55.757717" lon="26.024427">
<ele>176.502075</ele>
<time>2010-07-17T16:55:12Z</time>
<desc>lat.=55.757717, lon.=26.024427, Alt.=176.502075m. Speed=0.072000m/h.</desc>
<speed>0.020000</speed>
</trkpt>
<trkpt lat="55.757717" lon="26.024427">
<ele>176.494263</ele>
<time>2010-07-17T16:55:13Z</time>
<desc>lat.=55.757717, lon.=26.024427, Alt.=176.494263m. Speed=0.108000m/h.</desc>
<speed>0.030000</speed>
</trkpt>
<trkpt lat="55.757717" lon="26.024427">
<ele>176.494263</ele>
<time>2010-07-17T16:55:14Z</time>
<desc>lat.=55.757717, lon.=26.024427, Alt.=176.494263m. Speed=0.072000m/h.</desc>
<speed>0.020000</speed>
</trkpt>
<trkpt lat="55.757717" lon="26.024429">
<ele>176.494263</ele>
<time>2010-07-17T16:55:15Z</time>
<desc>lat.=55.757717, lon.=26.024429, Alt.=176.494263m. Speed=0.072000m/h.</desc>
<speed>0.020000</speed>
</trkpt>
<trkpt lat="55.757717" lon="26.024429">
<ele>176.486450</ele>
<time>2010-07-17T16:55:16Z</time>
<desc>lat.=55.757717, lon.=26.024429, Alt.=176.486450m. Speed=0.072000m/h.</desc>
<speed>0.020000</speed>
</trkpt>
<trkpt lat="55.757717" lon="26.024429">
<ele>176.482544</ele>
<time>2010-07-17T16:55:17Z</time>
<desc>lat.=55.757717, lon.=26.024429, Alt.=176.482544m. Speed=0.108000m/h.</desc>
<speed>0.030000</speed>
</trkpt>
<trkpt lat="55.757717" lon="26.024429">
<ele>176.474731</ele>
<time>2010-07-17T16:55:18Z</time>
<desc>lat.=55.757717, lon.=26.024429, Alt.=176.474731m. Speed=0.108000m/h.</desc>
<speed>0.030000</speed>
</trkpt>
<trkpt lat="55.757717" lon="26.024429">
<ele>176.470825</ele>
<time>2010-07-17T16:55:19Z</time>
<desc>lat.=55.757717, lon.=26.024429, Alt.=176.470825m. Speed=0.036000m/h.</desc>
<speed>0.010000</speed>
</trkpt>
<trkpt lat="55.757717" lon="26.024429">
<ele>176.466919</ele>
<time>2010-07-17T16:55:20Z</time>
<desc>lat.=55.757717, lon.=26.024429, Alt.=176.466919m. Speed=0.072000m/h.</desc>
<speed>0.020000</speed>
</trkpt>
<trkpt lat="55.757717" lon="26.024429">
<ele>176.466919</ele>
<time>2010-07-17T16:55:21Z</time>
<desc>lat.=55.757717, lon.=26.024429, Alt.=176.466919m. Speed=0.000000m/h.</desc>
<speed>0.000000</speed>
</trkpt>
<trkpt lat="55.757717" lon="26.024429">
<ele>176.466919</ele>
<time>2010-07-17T16:55:22Z</time>
<desc>lat.=55.757717, lon.=26.024429, Alt.=176.466919m. Speed=0.000000m/h.</desc>
<speed>0.000000</speed>
</trkpt>
<trkpt lat="55.757717" lon="26.024429">
<ele>176.459106</ele>
<time>2010-07-17T16:55:23Z</time>
<desc>lat.=55.757717, lon.=26.024429, Alt.=176.459106m. Speed=0.036000m/h.</desc>
<speed>0.010000</speed>
</trkpt>
<trkpt lat="55.757717" lon="26.024429">
<ele>176.455200</ele>
<time>2010-07-17T16:55:24Z</time>
<desc>lat.=55.757717, lon.=26.024429, Alt.=176.455200m. Speed=0.000000m/h.</desc>
<speed>0.000000</speed>
</trkpt>
<trkpt lat="55.757717" lon="26.024429">
<ele>176.443481</ele>
<time>2010-07-17T16:55:25Z</time>
<desc>lat.=55.757717, lon.=26.024429, Alt.=176.443481m. Speed=0.036000m/h.</desc>
<speed>0.010000</speed>
</trkpt>
<trkpt lat="55.757717" lon="26.024429">
<ele>176.431763</ele>
<time>2010-07-17T16:55:26Z</time>
<desc>lat.=55.757717, lon.=26.024429, Alt.=176.431763m. Speed=0.000000m/h.</desc>
<speed>0.000000</speed>
</trkpt>
<trkpt lat="55.757717" lon="26.024429">
<ele>176.427856</ele>
<time>2010-07-17T16:55:27Z</time>
<desc>lat.=55.757717, lon.=26.024429, Alt.=176.427856m. Speed=0.072000m/h.</desc>
<speed>0.020000</speed>
</trkpt>
<trkpt lat="55.757717" lon="26.024429">
<ele>176.423950</ele>
<time>2010-07-17T16:55:28Z</time>
<desc>lat.=55.757717, lon.=26.024429, Alt.=176.423950m. Speed=0.036000m/h.</desc>
<speed>0.010000</speed>
</trkpt>
<trkpt lat="55.757717" lon="26.024429">
<ele>176.423950</ele>
<time>2010-07-17T16:55:29Z</time>
<desc>lat.=55.757717, lon.=26.024429, Alt.=176.423950m. Speed=0.108000m/h.</desc>
<speed>0.030000</speed>
</trkpt>
<trkpt lat="55.757717" lon="26.024429">
<ele>176.420044</ele>
<time>2010-07-17T16:55:30Z</time>
<desc>lat.=55.757717, lon.=26.024429, Alt.=176.420044m. Speed=0.036000m/h.</desc>
<speed>0.010000</speed>
</trkpt>
<trkpt lat="55.757717" lon="26.024429">
<ele>176.416138</ele>
<time>2010-07-17T16:55:31Z</time>
<desc>lat.=55.757717, lon.=26.024429, Alt.=176.416138m. Speed=0.108000m/h.</desc>
<speed>0.030000</speed>
</trkpt>
<trkpt lat="55.757717" lon="26.024429">
<ele>176.416138</ele>
<time>2010-07-17T16:55:32Z</time>
<desc>lat.=55.757717, lon.=26.024429, Alt.=176.416138m. Speed=0.036000m/h.</desc>
<speed>0.010000</speed>
</trkpt>
<trkpt lat="55.757717" lon="26.024431">
<ele>176.412231</ele>
<time>2010-07-17T16:55:33Z</time>
<desc>lat.=55.757717, lon.=26.024431, Alt.=176.412231m. Speed=0.036000m/h.</desc>
<speed>0.010000</speed>
</trkpt>
<trkpt lat="55.757717" lon="26.024431">
<ele>176.404419</ele>
<time>2010-07-17T16:55:34Z</time>
<desc>lat.=55.757717, lon.=26.024431, Alt.=176.404419m. Speed=0.036000m/h.</desc>
<speed>0.010000</speed>
</trkpt>
<trkpt lat="55.757717" lon="26.024431">
<ele>176.400513</ele>
<time>2010-07-17T16:55:35Z</time>
<desc>lat.=55.757717, lon.=26.024431, Alt.=176.400513m. Speed=0.072000m/h.</desc>
<speed>0.020000</speed>
</trkpt>
<trkpt lat="55.757717" lon="26.024431">
<ele>176.396606</ele>
<time>2010-07-17T16:55:36Z</time>
<desc>lat.=55.757717, lon.=26.024431, Alt.=176.396606m. Speed=0.000000m/h.</desc>
<speed>0.000000</speed>
</trkpt>
<trkpt lat="55.757717" lon="26.024431">
<ele>176.396606</ele>
<time>2010-07-17T16:55:37Z</time>
<desc>lat.=55.757717, lon.=26.024431, Alt.=176.396606m. Speed=0.036000m/h.</desc>
<speed>0.010000</speed>
</trkpt>
<trkpt lat="55.757717" lon="26.024431">
<ele>176.392700</ele>
<time>2010-07-17T16:55:38Z</time>
<desc>lat.=55.757717, lon.=26.024431, Alt.=176.392700m. Speed=0.036000m/h.</desc>
<speed>0.010000</speed>
</trkpt>
<trkpt lat="55.757717" lon="26.024431">
<ele>176.384888</ele>
<time>2010-07-17T16:55:39Z</time>
<desc>lat.=55.757717, lon.=26.024431, Alt.=176.384888m. Speed=0.000000m/h.</desc>
<speed>0.000000</speed>
</trkpt>
<trkpt lat="55.757717" lon="26.024431">
<ele>176.377075</ele>
<time>2010-07-17T16:55:40Z</time>
<desc>lat.=55.757717, lon.=26.024431, Alt.=176.377075m. Speed=0.036000m/h.</desc>
<speed>0.010000</speed>
</trkpt>
<trkpt lat="55.757717" lon="26.024431">
<ele>176.373169</ele>
<time>2010-07-17T16:55:41Z</time>
<desc>lat.=55.757717, lon.=26.024431, Alt.=176.373169m. Speed=0.072000m/h.</desc>
<speed>0.020000</speed>
</trkpt>
<trkpt lat="55.757717" lon="26.024431">
<ele>176.365356</ele>
<time>2010-07-17T16:55:42Z</time>
<desc>lat.=55.757717, lon.=26.024431, Alt.=176.365356m. Speed=0.072000m/h.</desc>
<speed>0.020000</speed>
</trkpt>
<trkpt lat="55.757717" lon="26.024431">
<ele>176.361450</ele>
<time>2010-07-17T16:55:43Z</time>
<desc>lat.=55.757717, lon.=26.024431, Alt.=176.361450m. Speed=0.000000m/h.</desc>
<speed>0.000000</speed>
</trkpt>
<trkpt lat="55.757717" lon="26.024431">
<ele>176.361450</ele>
<time>2010-07-17T16:55:44Z</time>
<desc>lat.=55.757717, lon.=26.024431, Alt.=176.361450m. Speed=0.036000m/h.</desc>
<speed>0.010000</speed>
</trkpt>
<trkpt lat="55.757717" lon="26.024431">
<ele>176.361450</ele>
<time>2010-07-17T16:55:45Z</time>
<desc>lat.=55.757717, lon.=26.024431, Alt.=176.361450m. Speed=0.036000m/h.</desc>
<speed>0.010000</speed>
</trkpt>
<trkpt lat="55.757717" lon="26.024431">
<ele>176.365356</ele>
<time>2010-07-17T16:55:46Z</time>
<desc>lat.=55.757717, lon.=26.024431, Alt.=176.365356m. Speed=0.072000m/h.</desc>
<speed>0.020000</speed>
</trkpt>
<trkpt lat="55.757717" lon="26.024431">
<ele>176.365356</ele>
<time>2010-07-17T16:55:47Z</time>
<desc>lat.=55.757717, lon.=26.024431, Alt.=176.365356m. Speed=0.000000m/h.</desc>
<speed>0.000000</speed>
</trkpt>
<trkpt lat="55.757717" lon="26.024431">
<ele>176.361450</ele>
<time>2010-07-17T16:55:48Z</time>
<desc>lat.=55.757717, lon.=26.024431, Alt.=176.361450m. Speed=0.036000m/h.</desc>
<speed>0.010000</speed>
</trkpt>
<trkpt lat="55.757717" lon="26.024431">
<ele>176.361450</ele>
<time>2010-07-17T16:55:49Z</time>
<desc>lat.=55.757717, lon.=26.024431, Alt.=176.361450m. Speed=0.072000m/h.</desc>
<speed>0.020000</speed>
</trkpt>
<trkpt lat="55.757717" lon="26.024431">
<ele>176.361450</ele>
<time>2010-07-17T16:55:50Z</time>
<desc>lat.=55.757717, lon.=26.024431, Alt.=176.361450m. Speed=0.108000m/h.</desc>
<speed>0.030000</speed>
</trkpt>
<trkpt lat="55.757717" lon="26.024431">
<ele>176.357544</ele>
<time>2010-07-17T16:55:51Z</time>
<desc>lat.=55.757717, lon.=26.024431, Alt.=176.357544m. Speed=0.000000m/h.</desc>
<speed>0.000000</speed>
</trkpt>
<trkpt lat="55.757717" lon="26.024431">
<ele>176.357544</ele>
<time>2010-07-17T16:55:52Z</time>
<desc>lat.=55.757717, lon.=26.024431, Alt.=176.357544m. Speed=0.072000m/h.</desc>
<speed>0.020000</speed>
</trkpt>
<trkpt lat="55.757717" lon="26.024431">
<ele>176.353638</ele>
<time>2010-07-17T16:55:53Z</time>
<desc>lat.=55.757717, lon.=26.024431, Alt.=176.353638m. Speed=0.036000m/h.</desc>
<speed>0.010000</speed>
</trkpt>
<trkpt lat="55.757717" lon="26.024431">
<ele>176.353638</ele>
<time>2010-07-17T16:55:54Z</time>
<desc>lat.=55.757717, lon.=26.024431, Alt.=176.353638m. Speed=0.180000m/h.</desc>
<speed>0.050000</speed>
</trkpt>
<trkpt lat="55.757717" lon="26.024433">
<ele>176.353638</ele>
<time>2010-07-17T16:55:55Z</time>
<desc>lat.=55.757717, lon.=26.024433, Alt.=176.353638m. Speed=0.252000m/h.</desc>
<speed>0.070000</speed>
</trkpt>
<trkpt lat="55.757717" lon="26.024433">
<ele>176.353638</ele>
<time>2010-07-17T16:55:56Z</time>
<desc>lat.=55.757717, lon.=26.024433, Alt.=176.353638m. Speed=0.396000m/h.</desc>
<speed>0.110000</speed>
</trkpt>
<trkpt lat="55.757717" lon="26.024433">
<ele>176.353638</ele>
<time>2010-07-17T16:55:57Z</time>
<desc>lat.=55.757717, lon.=26.024433, Alt.=176.353638m. Speed=2.340000m/h.</desc>
<speed>0.650000</speed>
</trkpt>
<trkpt lat="55.757713" lon="26.024441">
<ele>176.357544</ele>
<time>2010-07-17T16:55:58Z</time>
<desc>lat.=55.757713, lon.=26.024441, Alt.=176.357544m. Speed=3.960000m/h.</desc>
<speed>1.100000</speed>
</trkpt>
<trkpt lat="55.757702" lon="26.024473">
<ele>176.451294</ele>
<time>2010-07-17T16:55:59Z</time>
<desc>lat.=55.757702, lon.=26.024473, Alt.=176.451294m. Speed=8.424000m/h.</desc>
<speed>2.340000</speed>
</trkpt>
<trkpt lat="55.757679" lon="26.024511">
<ele>176.181763</ele>
<time>2010-07-17T16:56:00Z</time>
<desc>lat.=55.757679, lon.=26.024511, Alt.=176.181763m. Speed=10.008000m/h.</desc>
<speed>2.780000</speed>
</trkpt>
<trkpt lat="55.757656" lon="26.024546">
<ele>176.052856</ele>
<time>2010-07-17T16:56:01Z</time>
<desc>lat.=55.757656, lon.=26.024546, Alt.=176.052856m. Speed=9.972000m/h.</desc>
<speed>2.770000</speed>
</trkpt>
<trkpt lat="55.757637" lon="26.024580">
<ele>176.041138</ele>
<time>2010-07-17T16:56:02Z</time>
<desc>lat.=55.757637, lon.=26.024580, Alt.=176.041138m. Speed=9.504000m/h.</desc>
<speed>2.640000</speed>
</trkpt>
<trkpt lat="55.757622" lon="26.024618">
<ele>176.306763</ele>
<time>2010-07-17T16:56:03Z</time>
<desc>lat.=55.757622, lon.=26.024618, Alt.=176.306763m. Speed=10.440000m/h.</desc>
<speed>2.900000</speed>
</trkpt>
<trkpt lat="55.757599" lon="26.024654">
<ele>176.275513</ele>
<time>2010-07-17T16:56:04Z</time>
<desc>lat.=55.757599, lon.=26.024654, Alt.=176.275513m. Speed=9.900000m/h.</desc>
<speed>2.750000</speed>
</trkpt>
<trkpt lat="55.757580" lon="26.024687">
<ele>176.486450</ele>
<time>2010-07-17T16:56:05Z</time>
<desc>lat.=55.757580, lon.=26.024687, Alt.=176.486450m. Speed=9.540000m/h.</desc>
<speed>2.650000</speed>
</trkpt>
<trkpt lat="55.757561" lon="26.024719">
<ele>176.361450</ele>
<time>2010-07-17T16:56:06Z</time>
<desc>lat.=55.757561, lon.=26.024719, Alt.=176.361450m. Speed=9.936000m/h.</desc>
<speed>2.760000</speed>
</trkpt>
<trkpt lat="55.757542" lon="26.024748">
<ele>176.099731</ele>
<time>2010-07-17T16:56:07Z</time>
<desc>lat.=55.757542, lon.=26.024748, Alt.=176.099731m. Speed=8.784000m/h.</desc>
<speed>2.440000</speed>
</trkpt>
<trkpt lat="55.757526" lon="26.024788">
<ele>176.189575</ele>
<time>2010-07-17T16:56:08Z</time>
<desc>lat.=55.757526, lon.=26.024788, Alt.=176.189575m. Speed=9.936000m/h.</desc>
<speed>2.760000</speed>
</trkpt>
<trkpt lat="55.757504" lon="26.024866">
<ele>174.713013</ele>
<time>2010-07-17T16:56:09Z</time>
<desc>lat.=55.757504, lon.=26.024866, Alt.=174.713013m. Speed=12.744000m/h.</desc>
<speed>3.540000</speed>
</trkpt>
<trkpt lat="55.757481" lon="26.024902">
<ele>174.388794</ele>
<time>2010-07-17T16:56:10Z</time>
<desc>lat.=55.757481, lon.=26.024902, Alt.=174.388794m. Speed=10.908000m/h.</desc>
<speed>3.030000</speed>
</trkpt>
<trkpt lat="55.757462" lon="26.024944">
<ele>174.045044</ele>
<time>2010-07-17T16:56:11Z</time>
<desc>lat.=55.757462, lon.=26.024944, Alt.=174.045044m. Speed=11.340000m/h.</desc>
<speed>3.150000</speed>
</trkpt>
<trkpt lat="55.757431" lon="26.025002">
<ele>172.322388</ele>
<time>2010-07-17T16:56:12Z</time>
<desc>lat.=55.757431, lon.=26.025002, Alt.=172.322388m. Speed=11.952000m/h.</desc>
<speed>3.320000</speed>
</trkpt>
<trkpt lat="55.757408" lon="26.025045">
<ele>171.795044</ele>
<time>2010-07-17T16:56:13Z</time>
<desc>lat.=55.757408, lon.=26.025045, Alt.=171.795044m. Speed=10.584000m/h.</desc>
<speed>2.940000</speed>
</trkpt>
<trkpt lat="55.757381" lon="26.025105">
<ele>169.822388</ele>
<time>2010-07-17T16:56:14Z</time>
<desc>lat.=55.757381, lon.=26.025105, Alt.=169.822388m. Speed=9.144000m/h.</desc>
<speed>2.540000</speed>
</trkpt>
<trkpt lat="55.757366" lon="26.025133">
<ele>169.162231</ele>
<time>2010-07-17T16:56:15Z</time>
<desc>lat.=55.757366, lon.=26.025133, Alt.=169.162231m. Speed=6.768000m/h.</desc>
<speed>1.880000</speed>
</trkpt>
<trkpt lat="55.757359" lon="26.025146">
<ele>169.013794</ele>
<time>2010-07-17T16:56:16Z</time>
<desc>lat.=55.757359, lon.=26.025146, Alt.=169.013794m. Speed=2.196000m/h.</desc>
<speed>0.610000</speed>
</trkpt>
<trkpt lat="55.757359" lon="26.025150">
<ele>169.091919</ele>
<time>2010-07-17T16:56:17Z</time>
<desc>lat.=55.757359, lon.=26.025150, Alt.=169.091919m. Speed=0.972000m/h.</desc>
<speed>0.270000</speed>
</trkpt>
<trkpt lat="55.757355" lon="26.025154">
<ele>169.834106</ele>
<time>2010-07-17T16:56:18Z</time>
<desc>lat.=55.757355, lon.=26.025154, Alt.=169.834106m. Speed=0.648000m/h.</desc>
<speed>0.180000</speed>
</trkpt>
<trkpt lat="55.757355" lon="26.025158">
<ele>170.302856</ele>
<time>2010-07-17T16:56:19Z</time>
<desc>lat.=55.757355, lon.=26.025158, Alt.=170.302856m. Speed=0.828000m/h.</desc>
<speed>0.230000</speed>
</trkpt>
<trkpt lat="55.757355" lon="26.025150">
<ele>170.701294</ele>
<time>2010-07-17T16:56:20Z</time>
<desc>lat.=55.757355, lon.=26.025150, Alt.=170.701294m. Speed=0.252000m/h.</desc>
<speed>0.070000</speed>
</trkpt>
<trkpt lat="55.757355" lon="26.025152">
<ele>170.623169</ele>
<time>2010-07-17T16:56:21Z</time>
<desc>lat.=55.757355, lon.=26.025152, Alt.=170.623169m. Speed=0.324000m/h.</desc>
<speed>0.090000</speed>
</trkpt>
<trkpt lat="55.757355" lon="26.025154">
<ele>170.545044</ele>
<time>2010-07-17T16:56:22Z</time>
<desc>lat.=55.757355, lon.=26.025154, Alt.=170.545044m. Speed=0.396000m/h.</desc>
<speed>0.110000</speed>
</trkpt>
<trkpt lat="55.757355" lon="26.025156">
<ele>170.459106</ele>
<time>2010-07-17T16:56:23Z</time>
<desc>lat.=55.757355, lon.=26.025156, Alt.=170.459106m. Speed=0.432000m/h.</desc>
<speed>0.120000</speed>
</trkpt>
<trkpt lat="55.757355" lon="26.025158">
<ele>170.377075</ele>
<time>2010-07-17T16:56:24Z</time>
<desc>lat.=55.757355, lon.=26.025158, Alt.=170.377075m. Speed=0.792000m/h.</desc>
<speed>0.220000</speed>
</trkpt>
<trkpt lat="55.757351" lon="26.025160">
<ele>170.295044</ele>
<time>2010-07-17T16:56:25Z</time>
<desc>lat.=55.757351, lon.=26.025160, Alt.=170.295044m. Speed=2.052000m/h.</desc>
<speed>0.570000</speed>
</trkpt>
<trkpt lat="55.757332" lon="26.025211">
<ele>170.146606</ele>
<time>2010-07-17T16:56:26Z</time>
<desc>lat.=55.757332, lon.=26.025211, Alt.=170.146606m. Speed=4.248000m/h.</desc>
<speed>1.180000</speed>
</trkpt>
<trkpt lat="55.757317" lon="26.025238">
<ele>170.252075</ele>
<time>2010-07-17T16:56:27Z</time>
<desc>lat.=55.757317, lon.=26.025238, Alt.=170.252075m. Speed=8.604000m/h.</desc>
<speed>2.390000</speed>
</trkpt>
<trkpt lat="55.757298" lon="26.025278">
<ele>170.310669</ele>
<time>2010-07-17T16:56:28Z</time>
<desc>lat.=55.757298, lon.=26.025278, Alt.=170.310669m. Speed=11.556000m/h.</desc>
<speed>3.210000</speed>
</trkpt>
<trkpt lat="55.757275" lon="26.025324">
<ele>170.388794</ele>
<time>2010-07-17T16:56:29Z</time>
<desc>lat.=55.757275, lon.=26.025324, Alt.=170.388794m. Speed=13.536000m/h.</desc>
<speed>3.760000</speed>
</trkpt>
<trkpt lat="55.757248" lon="26.025370">
<ele>170.416138</ele>
<time>2010-07-17T16:56:30Z</time>
<desc>lat.=55.757248, lon.=26.025370, Alt.=170.416138m. Speed=14.040000m/h.</desc>
<speed>3.900000</speed>
</trkpt>
<trkpt lat="55.757217" lon="26.025423">
<ele>170.681763</ele>
<time>2010-07-17T16:56:31Z</time>
<desc>lat.=55.757217, lon.=26.025423, Alt.=170.681763m. Speed=15.408000m/h.</desc>
<speed>4.280000</speed>
</trkpt>
<trkpt lat="55.757191" lon="26.025473">
<ele>170.931763</ele>
<time>2010-07-17T16:56:32Z</time>
<desc>lat.=55.757191, lon.=26.025473, Alt.=170.931763m. Speed=15.624000m/h.</desc>
<speed>4.340000</speed>
</trkpt>
<trkpt lat="55.757160" lon="26.025532">
<ele>171.240356</ele>
<time>2010-07-17T16:56:33Z</time>
<desc>lat.=55.757160, lon.=26.025532, Alt.=171.240356m. Speed=17.028000m/h.</desc>
<speed>4.730000</speed>
</trkpt>
<trkpt lat="55.757126" lon="26.025591">
<ele>171.416138</ele>
<time>2010-07-17T16:56:34Z</time>
<desc>lat.=55.757126, lon.=26.025591, Alt.=171.416138m. Speed=17.604000m/h.</desc>
<speed>4.890000</speed>
</trkpt>
<trkpt lat="55.757095" lon="26.025650">
<ele>171.560669</ele>
<time>2010-07-17T16:56:35Z</time>
<desc>lat.=55.757095, lon.=26.025650, Alt.=171.560669m. Speed=17.172001m/h.</desc>
<speed>4.770000</speed>
</trkpt>
<trkpt lat="55.757061" lon="26.025711">
<ele>171.931763</ele>
<time>2010-07-17T16:56:36Z</time>
<desc>lat.=55.757061, lon.=26.025711, Alt.=171.931763m. Speed=17.639999m/h.</desc>
<speed>4.900000</speed>
</trkpt>
<trkpt lat="55.757023" lon="26.025778">
<ele>172.130981</ele>
<time>2010-07-17T16:56:37Z</time>
<desc>lat.=55.757023, lon.=26.025778, Alt.=172.130981m. Speed=19.152000m/h.</desc>
<speed>5.320000</speed>
</trkpt>
<trkpt lat="55.756981" lon="26.025837">
<ele>172.068481</ele>
<time>2010-07-17T16:56:38Z</time>
<desc>lat.=55.756981, lon.=26.025837, Alt.=172.068481m. Speed=19.944000m/h.</desc>
<speed>5.540000</speed>
</trkpt>
<trkpt lat="55.756943" lon="26.025906">
<ele>172.521606</ele>
<time>2010-07-17T16:56:39Z</time>
<desc>lat.=55.756943, lon.=26.025906, Alt.=172.521606m. Speed=18.431999m/h.</desc>
<speed>5.120000</speed>
</trkpt>
<trkpt lat="55.756912" lon="26.025969">
<ele>172.798950</ele>
<time>2010-07-17T16:56:40Z</time>
<desc>lat.=55.756912, lon.=26.025969, Alt.=172.798950m. Speed=18.719999m/h.</desc>
<speed>5.200000</speed>
</trkpt>
<trkpt lat="55.756874" lon="26.026037">
<ele>173.197388</ele>
<time>2010-07-17T16:56:41Z</time>
<desc>lat.=55.756874, lon.=26.026037, Alt.=173.197388m. Speed=19.152000m/h.</desc>
<speed>5.320000</speed>
</trkpt>
<trkpt lat="55.756840" lon="26.026110">
<ele>174.185669</ele>
<time>2010-07-17T16:56:42Z</time>
<desc>lat.=55.756840, lon.=26.026110, Alt.=174.185669m. Speed=19.080000m/h.</desc>
<speed>5.300000</speed>
</trkpt>
<trkpt lat="55.756805" lon="26.026167">
<ele>174.490356</ele>
<time>2010-07-17T16:56:43Z</time>
<desc>lat.=55.756805, lon.=26.026167, Alt.=174.490356m. Speed=18.431999m/h.</desc>
<speed>5.120000</speed>
</trkpt>
<trkpt lat="55.756771" lon="26.026222">
<ele>174.654419</ele>
<time>2010-07-17T16:56:44Z</time>
<desc>lat.=55.756771, lon.=26.026222, Alt.=174.654419m. Speed=17.316000m/h.</desc>
<speed>4.810000</speed>
</trkpt>
<trkpt lat="55.756733" lon="26.026276">
<ele>175.037231</ele>
<time>2010-07-17T16:56:45Z</time>
<desc>lat.=55.756733, lon.=26.026276, Alt.=175.037231m. Speed=17.316000m/h.</desc>
<speed>4.810000</speed>
</trkpt>
<trkpt lat="55.756702" lon="26.026327">
<ele>175.377075</ele>
<time>2010-07-17T16:56:46Z</time>
<desc>lat.=55.756702, lon.=26.026327, Alt.=175.377075m. Speed=17.820000m/h.</desc>
<speed>4.950000</speed>
</trkpt>
<trkpt lat="55.756668" lon="26.026375">
<ele>175.345825</ele>
<time>2010-07-17T16:56:47Z</time>
<desc>lat.=55.756668, lon.=26.026375, Alt.=175.345825m. Speed=17.856001m/h.</desc>
<speed>4.960000</speed>
</trkpt>
<trkpt lat="55.756638" lon="26.026432">
<ele>175.525513</ele>
<time>2010-07-17T16:56:48Z</time>
<desc>lat.=55.756638, lon.=26.026432, Alt.=175.525513m. Speed=18.252001m/h.</desc>
<speed>5.070000</speed>
</trkpt>
<trkpt lat="55.756607" lon="26.026491">
<ele>175.431763</ele>
<time>2010-07-17T16:56:49Z</time>
<desc>lat.=55.756607, lon.=26.026491, Alt.=175.431763m. Speed=18.323999m/h.</desc>
<speed>5.090000</speed>
</trkpt>
<trkpt lat="55.756580" lon="26.026550">
<ele>175.302856</ele>
<time>2010-07-17T16:56:50Z</time>
<desc>lat.=55.756580, lon.=26.026550, Alt.=175.302856m. Speed=18.108000m/h.</desc>
<speed>5.030000</speed>
</trkpt>
<trkpt lat="55.756550" lon="26.026606">
<ele>175.334106</ele>
<time>2010-07-17T16:56:51Z</time>
<desc>lat.=55.756550, lon.=26.026606, Alt.=175.334106m. Speed=17.676001m/h.</desc>
<speed>4.910000</speed>
</trkpt>
<trkpt lat="55.756519" lon="26.026672">
<ele>175.216919</ele>
<time>2010-07-17T16:56:52Z</time>
<desc>lat.=55.756519, lon.=26.026672, Alt.=175.216919m. Speed=19.691999m/h.</desc>
<speed>5.470000</speed>
</trkpt>
<trkpt lat="55.756481" lon="26.026733">
<ele>175.595825</ele>
<time>2010-07-17T16:56:53Z</time>
<desc>lat.=55.756481, lon.=26.026733, Alt.=175.595825m. Speed=18.000000m/h.</desc>
<speed>5.000000</speed>
</trkpt>
<trkpt lat="55.756451" lon="26.026789">
<ele>175.681763</ele>
<time>2010-07-17T16:56:54Z</time>
<desc>lat.=55.756451, lon.=26.026789, Alt.=175.681763m. Speed=16.955999m/h.</desc>
<speed>4.710000</speed>
</trkpt>
<trkpt lat="55.756420" lon="26.026844">
<ele>175.400513</ele>
<time>2010-07-17T16:56:55Z</time>
<desc>lat.=55.756420, lon.=26.026844, Alt.=175.400513m. Speed=16.452000m/h.</desc>
<speed>4.570000</speed>
</trkpt>
<trkpt lat="55.756390" lon="26.026894">
<ele>174.755981</ele>
<time>2010-07-17T16:56:56Z</time>
<desc>lat.=55.756390, lon.=26.026894, Alt.=174.755981m. Speed=17.820000m/h.</desc>
<speed>4.950000</speed>
</trkpt>
<trkpt lat="55.756351" lon="26.026947">
<ele>174.564575</ele>
<time>2010-07-17T16:56:57Z</time>
<desc>lat.=55.756351, lon.=26.026947, Alt.=174.564575m. Speed=18.072001m/h.</desc>
<speed>5.020000</speed>
</trkpt>
<trkpt lat="55.756321" lon="26.026997">
<ele>175.088013</ele>
<time>2010-07-17T16:56:58Z</time>
<desc>lat.=55.756321, lon.=26.026997, Alt.=175.088013m. Speed=16.596001m/h.</desc>
<speed>4.610000</speed>
</trkpt>
<trkpt lat="55.756298" lon="26.027056">
<ele>174.670044</ele>
<time>2010-07-17T16:56:59Z</time>
<desc>lat.=55.756298, lon.=26.027056, Alt.=174.670044m. Speed=13.500000m/h.</desc>
<speed>3.750000</speed>
</trkpt>
<trkpt lat="55.756264" lon="26.027115">
<ele>174.795044</ele>
<time>2010-07-17T16:57:00Z</time>
<desc>lat.=55.756264, lon.=26.027115, Alt.=174.795044m. Speed=17.712000m/h.</desc>
<speed>4.920000</speed>
</trkpt>
<trkpt lat="55.756229" lon="26.027187">
<ele>175.673950</ele>
<time>2010-07-17T16:57:01Z</time>
<desc>lat.=55.756229, lon.=26.027187, Alt.=175.673950m. Speed=19.115999m/h.</desc>
<speed>5.310000</speed>
</trkpt>
<trkpt lat="55.756195" lon="26.027260">
<ele>175.345825</ele>
<time>2010-07-17T16:57:02Z</time>
<desc>lat.=55.756195, lon.=26.027260, Alt.=175.345825m. Speed=17.280001m/h.</desc>
<speed>4.800000</speed>
</trkpt>
<trkpt lat="55.756165" lon="26.027325">
<ele>175.525513</ele>
<time>2010-07-17T16:57:03Z</time>
<desc>lat.=55.756165, lon.=26.027325, Alt.=175.525513m. Speed=17.351999m/h.</desc>
<speed>4.820000</speed>
</trkpt>
<trkpt lat="55.756126" lon="26.027395">
<ele>175.841919</ele>
<time>2010-07-17T16:57:04Z</time>
<desc>lat.=55.756126, lon.=26.027395, Alt.=175.841919m. Speed=18.000000m/h.</desc>
<speed>5.000000</speed>
</trkpt>
<trkpt lat="55.756092" lon="26.027456">
<ele>176.185669</ele>
<time>2010-07-17T16:57:05Z</time>
<desc>lat.=55.756092, lon.=26.027456, Alt.=176.185669m. Speed=17.459999m/h.</desc>
<speed>4.850000</speed>
</trkpt>
<trkpt lat="55.756065" lon="26.027515">
<ele>175.576294</ele>
<time>2010-07-17T16:57:06Z</time>
<desc>lat.=55.756065, lon.=26.027515, Alt.=175.576294m. Speed=15.804000m/h.</desc>
<speed>4.390000</speed>
</trkpt>
<trkpt lat="55.756039" lon="26.027569">
<ele>175.611450</ele>
<time>2010-07-17T16:57:07Z</time>
<desc>lat.=55.756039, lon.=26.027569, Alt.=175.611450m. Speed=14.616000m/h.</desc>
<speed>4.060000</speed>
</trkpt>
<trkpt lat="55.756004" lon="26.027641">
<ele>172.677856</ele>
<time>2010-07-17T16:57:08Z</time>
<desc>lat.=55.756004, lon.=26.027641, Alt.=172.677856m. Speed=14.832000m/h.</desc>
<speed>4.120000</speed>
</trkpt>
<trkpt lat="55.755970" lon="26.027693">
<ele>172.865356</ele>
<time>2010-07-17T16:57:09Z</time>
<desc>lat.=55.755970, lon.=26.027693, Alt.=172.865356m. Speed=16.632000m/h.</desc>
<speed>4.620000</speed>
</trkpt>
<trkpt lat="55.755939" lon="26.027752">
<ele>173.560669</ele>
<time>2010-07-17T16:57:10Z</time>
<desc>lat.=55.755939, lon.=26.027752, Alt.=173.560669m. Speed=17.316000m/h.</desc>
<speed>4.810000</speed>
</trkpt>
<trkpt lat="55.755905" lon="26.027826">
<ele>171.427856</ele>
<time>2010-07-17T16:57:11Z</time>
<desc>lat.=55.755905, lon.=26.027826, Alt.=171.427856m. Speed=18.180000m/h.</desc>
<speed>5.050000</speed>
</trkpt>
<trkpt lat="55.755871" lon="26.027895">
<ele>170.736450</ele>
<time>2010-07-17T16:57:12Z</time>
<desc>lat.=55.755871, lon.=26.027895, Alt.=170.736450m. Speed=18.360001m/h.</desc>
<speed>5.100000</speed>
</trkpt>
<trkpt lat="55.755840" lon="26.027956">
<ele>170.447388</ele>
<time>2010-07-17T16:57:13Z</time>
<desc>lat.=55.755840, lon.=26.027956, Alt.=170.447388m. Speed=18.864000m/h.</desc>
<speed>5.240000</speed>
</trkpt>
<trkpt lat="55.755802" lon="26.028032">
<ele>169.470825</ele>
<time>2010-07-17T16:57:14Z</time>
<desc>lat.=55.755802, lon.=26.028032, Alt.=169.470825m. Speed=19.188000m/h.</desc>
<speed>5.330000</speed>
</trkpt>
<trkpt lat="55.755772" lon="26.028099">
<ele>168.201294</ele>
<time>2010-07-17T16:57:15Z</time>
<desc>lat.=55.755772, lon.=26.028099, Alt.=168.201294m. Speed=18.719999m/h.</desc>
<speed>5.200000</speed>
</trkpt>
<trkpt lat="55.755737" lon="26.028172">
<ele>167.861450</ele>
<time>2010-07-17T16:57:16Z</time>
<desc>lat.=55.755737, lon.=26.028172, Alt.=167.861450m. Speed=21.888000m/h.</desc>
<speed>6.080000</speed>
</trkpt>
<trkpt lat="55.755707" lon="26.028252">
<ele>167.556763</ele>
<time>2010-07-17T16:57:17Z</time>
<desc>lat.=55.755707, lon.=26.028252, Alt.=167.556763m. Speed=20.952000m/h.</desc>
<speed>5.820000</speed>
</trkpt>
<trkpt lat="55.755672" lon="26.028330">
<ele>167.431763</ele>
<time>2010-07-17T16:57:18Z</time>
<desc>lat.=55.755672, lon.=26.028330, Alt.=167.431763m. Speed=21.780001m/h.</desc>
<speed>6.050000</speed>
</trkpt>
<trkpt lat="55.755646" lon="26.028418">
<ele>166.880981</ele>
<time>2010-07-17T16:57:19Z</time>
<desc>lat.=55.755646, lon.=26.028418, Alt.=166.880981m. Speed=22.284000m/h.</desc>
<speed>6.190000</speed>
</trkpt>
<trkpt lat="55.755615" lon="26.028522">
<ele>166.728638</ele>
<time>2010-07-17T16:57:20Z</time>
<desc>lat.=55.755615, lon.=26.028522, Alt.=166.728638m. Speed=24.624001m/h.</desc>
<speed>6.840000</speed>
</trkpt>
<trkpt lat="55.755581" lon="26.028624">
<ele>166.189575</ele>
<time>2010-07-17T16:57:21Z</time>
<desc>lat.=55.755581, lon.=26.028624, Alt.=166.189575m. Speed=24.552000m/h.</desc>
<speed>6.820000</speed>
</trkpt>
<trkpt lat="55.755547" lon="26.028721">
<ele>165.576294</ele>
<time>2010-07-17T16:57:22Z</time>
<desc>lat.=55.755547, lon.=26.028721, Alt.=165.576294m. Speed=26.063999m/h.</desc>
<speed>7.240000</speed>
</trkpt>
<trkpt lat="55.755516" lon="26.028820">
<ele>165.529419</ele>
<time>2010-07-17T16:57:23Z</time>
<desc>lat.=55.755516, lon.=26.028820, Alt.=165.529419m. Speed=24.768000m/h.</desc>
<speed>6.880000</speed>
</trkpt>
<trkpt lat="55.755486" lon="26.028923">
<ele>165.896606</ele>
<time>2010-07-17T16:57:24Z</time>
<desc>lat.=55.755486, lon.=26.028923, Alt.=165.896606m. Speed=24.191999m/h.</desc>
<speed>6.720000</speed>
</trkpt>
<trkpt lat="55.755459" lon="26.029020">
<ele>165.740356</ele>
<time>2010-07-17T16:57:25Z</time>
<desc>lat.=55.755459, lon.=26.029020, Alt.=165.740356m. Speed=23.004000m/h.</desc>
<speed>6.390000</speed>
</trkpt>
<trkpt lat="55.755440" lon="26.029118">
<ele>165.654419</ele>
<time>2010-07-17T16:57:26Z</time>
<desc>lat.=55.755440, lon.=26.029118, Alt.=165.654419m. Speed=23.184000m/h.</desc>
<speed>6.440000</speed>
</trkpt>
<trkpt lat="55.755417" lon="26.029211">
<ele>166.021606</ele>
<time>2010-07-17T16:57:27Z</time>
<desc>lat.=55.755417, lon.=26.029211, Alt.=166.021606m. Speed=22.247999m/h.</desc>
<speed>6.180000</speed>
</trkpt>
<trkpt lat="55.755390" lon="26.029312">
<ele>167.154419</ele>
<time>2010-07-17T16:57:28Z</time>
<desc>lat.=55.755390, lon.=26.029312, Alt.=167.154419m. Speed=20.988001m/h.</desc>
<speed>5.830000</speed>
</trkpt>
<trkpt lat="55.755371" lon="26.029398">
<ele>167.662231</ele>
<time>2010-07-17T16:57:29Z</time>
<desc>lat.=55.755371, lon.=26.029398, Alt.=167.662231m. Speed=19.152000m/h.</desc>
<speed>5.320000</speed>
</trkpt>
<trkpt lat="55.755352" lon="26.029484">
<ele>168.545044</ele>
<time>2010-07-17T16:57:30Z</time>
<desc>lat.=55.755352, lon.=26.029484, Alt.=168.545044m. Speed=18.072001m/h.</desc>
<speed>5.020000</speed>
</trkpt>
<trkpt lat="55.755341" lon="26.029562">
<ele>168.892700</ele>
<time>2010-07-17T16:57:31Z</time>
<desc>lat.=55.755341, lon.=26.029562, Alt.=168.892700m. Speed=16.452000m/h.</desc>
<speed>4.570000</speed>
</trkpt>
<trkpt lat="55.755333" lon="26.029636">
<ele>169.134888</ele>
<time>2010-07-17T16:57:32Z</time>
<desc>lat.=55.755333, lon.=26.029636, Alt.=169.134888m. Speed=15.660000m/h.</desc>
<speed>4.350000</speed>
</trkpt>
<trkpt lat="55.755325" lon="26.029696">
<ele>168.588013</ele>
<time>2010-07-17T16:57:33Z</time>
<desc>lat.=55.755325, lon.=26.029696, Alt.=168.588013m. Speed=12.132000m/h.</desc>
<speed>3.370000</speed>
</trkpt>
<trkpt lat="55.755314" lon="26.029753">
<ele>168.662231</ele>
<time>2010-07-17T16:57:34Z</time>
<desc>lat.=55.755314, lon.=26.029753, Alt.=168.662231m. Speed=13.536000m/h.</desc>
<speed>3.760000</speed>
</trkpt>
<trkpt lat="55.755302" lon="26.029802">
<ele>168.584106</ele>
<time>2010-07-17T16:57:35Z</time>
<desc>lat.=55.755302, lon.=26.029802, Alt.=168.584106m. Speed=11.268000m/h.</desc>
<speed>3.130000</speed>
</trkpt>
<trkpt lat="55.755295" lon="26.029854">
<ele>168.556763</ele>
<time>2010-07-17T16:57:36Z</time>
<desc>lat.=55.755295, lon.=26.029854, Alt.=168.556763m. Speed=11.448000m/h.</desc>
<speed>3.180000</speed>
</trkpt>
<trkpt lat="55.755287" lon="26.029900">
<ele>168.951294</ele>
<time>2010-07-17T16:57:37Z</time>
<desc>lat.=55.755287, lon.=26.029900, Alt.=168.951294m. Speed=10.260000m/h.</desc>
<speed>2.850000</speed>
</trkpt>
<trkpt lat="55.755280" lon="26.029943">
<ele>169.298950</ele>
<time>2010-07-17T16:57:38Z</time>
<desc>lat.=55.755280, lon.=26.029943, Alt.=169.298950m. Speed=10.620000m/h.</desc>
<speed>2.950000</speed>
</trkpt>
<trkpt lat="55.755268" lon="26.029991">
<ele>169.470825</ele>
<time>2010-07-17T16:57:39Z</time>
<desc>lat.=55.755268, lon.=26.029991, Alt.=169.470825m. Speed=11.088000m/h.</desc>
<speed>3.080000</speed>
</trkpt>
<trkpt lat="55.755257" lon="26.030041">
<ele>169.982544</ele>
<time>2010-07-17T16:57:40Z</time>
<desc>lat.=55.755257, lon.=26.030041, Alt.=169.982544m. Speed=12.096000m/h.</desc>
<speed>3.360000</speed>
</trkpt>
<trkpt lat="55.755245" lon="26.030096">
<ele>170.267700</ele>
<time>2010-07-17T16:57:41Z</time>
<desc>lat.=55.755245, lon.=26.030096, Alt.=170.267700m. Speed=13.140000m/h.</desc>
<speed>3.650000</speed>
</trkpt>
<trkpt lat="55.755238" lon="26.030159">
<ele>170.545044</ele>
<time>2010-07-17T16:57:42Z</time>
<desc>lat.=55.755238, lon.=26.030159, Alt.=170.545044m. Speed=14.544000m/h.</desc>
<speed>4.040000</speed>
</trkpt>
<trkpt lat="55.755226" lon="26.030214">
<ele>171.209106</ele>
<time>2010-07-17T16:57:43Z</time>
<desc>lat.=55.755226, lon.=26.030214, Alt.=171.209106m. Speed=14.796000m/h.</desc>
<speed>4.110000</speed>
</trkpt>
<trkpt lat="55.755215" lon="26.030275">
<ele>171.595825</ele>
<time>2010-07-17T16:57:44Z</time>
<desc>lat.=55.755215, lon.=26.030275, Alt.=171.595825m. Speed=15.264000m/h.</desc>
<speed>4.240000</speed>
</trkpt>
<trkpt lat="55.755203" lon="26.030344">
<ele>171.755981</ele>
<time>2010-07-17T16:57:45Z</time>
<desc>lat.=55.755203, lon.=26.030344, Alt.=171.755981m. Speed=15.372000m/h.</desc>
<speed>4.270000</speed>
</trkpt>
<trkpt lat="55.755196" lon="26.030411">
<ele>171.795044</ele>
<time>2010-07-17T16:57:46Z</time>
<desc>lat.=55.755196, lon.=26.030411, Alt.=171.795044m. Speed=14.184000m/h.</desc>
<speed>3.940000</speed>
</trkpt>
<trkpt lat="55.755184" lon="26.030474">
<ele>171.611450</ele>
<time>2010-07-17T16:57:47Z</time>
<desc>lat.=55.755184, lon.=26.030474, Alt.=171.611450m. Speed=14.688000m/h.</desc>
<speed>4.080000</speed>
</trkpt>
<trkpt lat="55.755177" lon="26.030533">
<ele>171.607544</ele>
<time>2010-07-17T16:57:48Z</time>
<desc>lat.=55.755177, lon.=26.030533, Alt.=171.607544m. Speed=13.068000m/h.</desc>
<speed>3.630000</speed>
</trkpt>
<trkpt lat="55.755173" lon="26.030584">
<ele>171.447388</ele>
<time>2010-07-17T16:57:49Z</time>
<desc>lat.=55.755173, lon.=26.030584, Alt.=171.447388m. Speed=10.944000m/h.</desc>
<speed>3.040000</speed>
</trkpt>
<trkpt lat="55.755173" lon="26.030634">
<ele>171.650513</ele>
<time>2010-07-17T16:57:50Z</time>
<desc>lat.=55.755173, lon.=26.030634, Alt.=171.650513m. Speed=11.340000m/h.</desc>
<speed>3.150000</speed>
</trkpt>
<trkpt lat="55.755157" lon="26.030710">
<ele>172.478638</ele>
<time>2010-07-17T16:57:51Z</time>
<desc>lat.=55.755157, lon.=26.030710, Alt.=172.478638m. Speed=11.160000m/h.</desc>
<speed>3.100000</speed>
</trkpt>
<trkpt lat="55.755154" lon="26.030764">
<ele>172.548950</ele>
<time>2010-07-17T16:57:52Z</time>
<desc>lat.=55.755154, lon.=26.030764, Alt.=172.548950m. Speed=11.628000m/h.</desc>
<speed>3.230000</speed>
</trkpt>
<trkpt lat="55.755146" lon="26.030828">
<ele>172.920044</ele>
<time>2010-07-17T16:57:53Z</time>
<desc>lat.=55.755146, lon.=26.030828, Alt.=172.920044m. Speed=12.060000m/h.</desc>
<speed>3.350000</speed>
</trkpt>
<trkpt lat="55.755142" lon="26.030886">
<ele>173.318481</ele>
<time>2010-07-17T16:57:54Z</time>
<desc>lat.=55.755142, lon.=26.030886, Alt.=173.318481m. Speed=11.196000m/h.</desc>
<speed>3.110000</speed>
</trkpt>
<trkpt lat="55.755142" lon="26.030935">
<ele>173.709106</ele>
<time>2010-07-17T16:57:55Z</time>
<desc>lat.=55.755142, lon.=26.030935, Alt.=173.709106m. Speed=11.088000m/h.</desc>
<speed>3.080000</speed>
</trkpt>
<trkpt lat="55.755138" lon="26.030987">
<ele>173.818481</ele>
<time>2010-07-17T16:57:56Z</time>
<desc>lat.=55.755138, lon.=26.030987, Alt.=173.818481m. Speed=10.728000m/h.</desc>
<speed>2.980000</speed>
</trkpt>
<trkpt lat="55.755135" lon="26.031038">
<ele>174.486450</ele>
<time>2010-07-17T16:57:57Z</time>
<desc>lat.=55.755135, lon.=26.031038, Alt.=174.486450m. Speed=10.008000m/h.</desc>
<speed>2.780000</speed>
</trkpt>
<trkpt lat="55.755135" lon="26.031084">
<ele>174.841919</ele>
<time>2010-07-17T16:57:58Z</time>
<desc>lat.=55.755135, lon.=26.031084, Alt.=174.841919m. Speed=10.296000m/h.</desc>
<speed>2.860000</speed>
</trkpt>
<trkpt lat="55.755135" lon="26.031128">
<ele>175.029419</ele>
<time>2010-07-17T16:57:59Z</time>
<desc>lat.=55.755135, lon.=26.031128, Alt.=175.029419m. Speed=9.324000m/h.</desc>
<speed>2.590000</speed>
</trkpt>
<trkpt lat="55.755138" lon="26.031176">
<ele>175.216919</ele>
<time>2010-07-17T16:58:00Z</time>
<desc>lat.=55.755138, lon.=26.031176, Alt.=175.216919m. Speed=9.324000m/h.</desc>
<speed>2.590000</speed>
</trkpt>
<trkpt lat="55.755142" lon="26.031223">
<ele>175.048950</ele>
<time>2010-07-17T16:58:01Z</time>
<desc>lat.=55.755142, lon.=26.031223, Alt.=175.048950m. Speed=9.432000m/h.</desc>
<speed>2.620000</speed>
</trkpt>
<trkpt lat="55.755150" lon="26.031263">
<ele>174.662231</ele>
<time>2010-07-17T16:58:02Z</time>
<desc>lat.=55.755150, lon.=26.031263, Alt.=174.662231m. Speed=9.504000m/h.</desc>
<speed>2.640000</speed>
</trkpt>
<trkpt lat="55.755154" lon="26.031307">
<ele>174.834106</ele>
<time>2010-07-17T16:58:03Z</time>
<desc>lat.=55.755154, lon.=26.031307, Alt.=174.834106m. Speed=9.936000m/h.</desc>
<speed>2.760000</speed>
</trkpt>
<trkpt lat="55.755161" lon="26.031353">
<ele>174.853638</ele>
<time>2010-07-17T16:58:04Z</time>
<desc>lat.=55.755161, lon.=26.031353, Alt.=174.853638m. Speed=10.044000m/h.</desc>
<speed>2.790000</speed>
</trkpt>
<trkpt lat="55.755169" lon="26.031401">
<ele>175.103638</ele>
<time>2010-07-17T16:58:05Z</time>
<desc>lat.=55.755169, lon.=26.031401, Alt.=175.103638m. Speed=11.376000m/h.</desc>
<speed>3.160000</speed>
</trkpt>
<trkpt lat="55.755177" lon="26.031450">
<ele>175.166138</ele>
<time>2010-07-17T16:58:06Z</time>
<desc>lat.=55.755177, lon.=26.031450, Alt.=175.166138m. Speed=12.348000m/h.</desc>
<speed>3.430000</speed>
</trkpt>
<trkpt lat="55.755188" lon="26.031513">
<ele>175.068481</ele>
<time>2010-07-17T16:58:07Z</time>
<desc>lat.=55.755188, lon.=26.031513, Alt.=175.068481m. Speed=15.624000m/h.</desc>
<speed>4.340000</speed>
</trkpt>
<trkpt lat="55.755196" lon="26.031582">
<ele>175.216919</ele>
<time>2010-07-17T16:58:08Z</time>
<desc>lat.=55.755196, lon.=26.031582, Alt.=175.216919m. Speed=15.876000m/h.</desc>
<speed>4.410000</speed>
</trkpt>
<trkpt lat="55.755207" lon="26.031656">
<ele>175.205200</ele>
<time>2010-07-17T16:58:09Z</time>
<desc>lat.=55.755207, lon.=26.031656, Alt.=175.205200m. Speed=17.172001m/h.</desc>
<speed>4.770000</speed>
</trkpt>
<trkpt lat="55.755215" lon="26.031727">
<ele>175.353638</ele>
<time>2010-07-17T16:58:10Z</time>
<desc>lat.=55.755215, lon.=26.031727, Alt.=175.353638m. Speed=17.208000m/h.</desc>
<speed>4.780000</speed>
</trkpt>
<trkpt lat="55.755226" lon="26.031797">
<ele>175.474731</ele>
<time>2010-07-17T16:58:11Z</time>
<desc>lat.=55.755226, lon.=26.031797, Alt.=175.474731m. Speed=16.920000m/h.</desc>
<speed>4.700000</speed>
</trkpt>
<trkpt lat="55.755238" lon="26.031872">
<ele>175.951294</ele>
<time>2010-07-17T16:58:12Z</time>
<desc>lat.=55.755238, lon.=26.031872, Alt.=175.951294m. Speed=17.604000m/h.</desc>
<speed>4.890000</speed>
</trkpt>
<trkpt lat="55.755253" lon="26.031948">
<ele>176.451294</ele>
<time>2010-07-17T16:58:13Z</time>
<desc>lat.=55.755253, lon.=26.031948, Alt.=176.451294m. Speed=16.884001m/h.</desc>
<speed>4.690000</speed>
</trkpt>
<trkpt lat="55.755268" lon="26.032011">
<ele>177.111450</ele>
<time>2010-07-17T16:58:14Z</time>
<desc>lat.=55.755268, lon.=26.032011, Alt.=177.111450m. Speed=17.280001m/h.</desc>
<speed>4.800000</speed>
</trkpt>
<trkpt lat="55.755280" lon="26.032089">
<ele>177.607544</ele>
<time>2010-07-17T16:58:15Z</time>
<desc>lat.=55.755280, lon.=26.032089, Alt.=177.607544m. Speed=16.812000m/h.</desc>
<speed>4.670000</speed>
</trkpt>
<trkpt lat="55.755291" lon="26.032164">
<ele>177.517700</ele>
<time>2010-07-17T16:58:16Z</time>
<desc>lat.=55.755291, lon.=26.032164, Alt.=177.517700m. Speed=17.424000m/h.</desc>
<speed>4.840000</speed>
</trkpt>
<trkpt lat="55.755302" lon="26.032248">
<ele>176.916138</ele>
<time>2010-07-17T16:58:17Z</time>
<desc>lat.=55.755302, lon.=26.032248, Alt.=176.916138m. Speed=16.667999m/h.</desc>
<speed>4.630000</speed>
</trkpt>
<trkpt lat="55.755310" lon="26.032316">
<ele>176.490356</ele>
<time>2010-07-17T16:58:18Z</time>
<desc>lat.=55.755310, lon.=26.032316, Alt.=176.490356m. Speed=16.164000m/h.</desc>
<speed>4.490000</speed>
</trkpt>
<trkpt lat="55.755322" lon="26.032387">
<ele>176.763794</ele>
<time>2010-07-17T16:58:19Z</time>
<desc>lat.=55.755322, lon.=26.032387, Alt.=176.763794m. Speed=16.020000m/h.</desc>
<speed>4.450000</speed>
</trkpt>
<trkpt lat="55.755329" lon="26.032448">
<ele>177.119263</ele>
<time>2010-07-17T16:58:20Z</time>
<desc>lat.=55.755329, lon.=26.032448, Alt.=177.119263m. Speed=16.524000m/h.</desc>
<speed>4.590000</speed>
</trkpt>
<trkpt lat="55.755337" lon="26.032524">
<ele>175.685669</ele>
<time>2010-07-17T16:58:21Z</time>
<desc>lat.=55.755337, lon.=26.032524, Alt.=175.685669m. Speed=16.596001m/h.</desc>
<speed>4.610000</speed>
</trkpt>
<trkpt lat="55.755348" lon="26.032595">
<ele>175.771606</ele>
<time>2010-07-17T16:58:22Z</time>
<desc>lat.=55.755348, lon.=26.032595, Alt.=175.771606m. Speed=16.488001m/h.</desc>
<speed>4.580000</speed>
</trkpt>
<trkpt lat="55.755360" lon="26.032667">
<ele>174.732544</ele>
<time>2010-07-17T16:58:23Z</time>
<desc>lat.=55.755360, lon.=26.032667, Alt.=174.732544m. Speed=16.416000m/h.</desc>
<speed>4.560000</speed>
</trkpt>
<trkpt lat="55.755367" lon="26.032740">
<ele>174.693481</ele>
<time>2010-07-17T16:58:24Z</time>
<desc>lat.=55.755367, lon.=26.032740, Alt.=174.693481m. Speed=16.740000m/h.</desc>
<speed>4.650000</speed>
</trkpt>
<trkpt lat="55.755383" lon="26.032818">
<ele>174.533325</ele>
<time>2010-07-17T16:58:25Z</time>
<desc>lat.=55.755383, lon.=26.032818, Alt.=174.533325m. Speed=17.747999m/h.</desc>
<speed>4.930000</speed>
</trkpt>
<trkpt lat="55.755394" lon="26.032885">
<ele>174.326294</ele>
<time>2010-07-17T16:58:26Z</time>
<desc>lat.=55.755394, lon.=26.032885, Alt.=174.326294m. Speed=16.308001m/h.</desc>
<speed>4.530000</speed>
</trkpt>
<trkpt lat="55.755409" lon="26.032953">
<ele>174.318481</ele>
<time>2010-07-17T16:58:27Z</time>
<desc>lat.=55.755409, lon.=26.032953, Alt.=174.318481m. Speed=16.955999m/h.</desc>
<speed>4.710000</speed>
</trkpt>
<trkpt lat="55.755421" lon="26.033022">
<ele>174.369263</ele>
<time>2010-07-17T16:58:28Z</time>
<desc>lat.=55.755421, lon.=26.033022, Alt.=174.369263m. Speed=15.732000m/h.</desc>
<speed>4.370000</speed>
</trkpt>
<trkpt lat="55.755428" lon="26.033079">
<ele>174.138794</ele>
<time>2010-07-17T16:58:29Z</time>
<desc>lat.=55.755428, lon.=26.033079, Alt.=174.138794m. Speed=15.264000m/h.</desc>
<speed>4.240000</speed>
</trkpt>
<trkpt lat="55.755436" lon="26.033142">
<ele>174.369263</ele>
<time>2010-07-17T16:58:30Z</time>
<desc>lat.=55.755436, lon.=26.033142, Alt.=174.369263m. Speed=14.040000m/h.</desc>
<speed>3.900000</speed>
</trkpt>
<trkpt lat="55.755444" lon="26.033209">
<ele>174.599731</ele>
<time>2010-07-17T16:58:31Z</time>
<desc>lat.=55.755444, lon.=26.033209, Alt.=174.599731m. Speed=14.400000m/h.</desc>
<speed>4.000000</speed>
</trkpt>
<trkpt lat="55.755451" lon="26.033268">
<ele>174.556763</ele>
<time>2010-07-17T16:58:32Z</time>
<desc>lat.=55.755451, lon.=26.033268, Alt.=174.556763m. Speed=13.500000m/h.</desc>
<speed>3.750000</speed>
</trkpt>
<trkpt lat="55.755463" lon="26.033323">
<ele>174.685669</ele>
<time>2010-07-17T16:58:33Z</time>
<desc>lat.=55.755463, lon.=26.033323, Alt.=174.685669m. Speed=12.960000m/h.</desc>
<speed>3.600000</speed>
</trkpt>
<trkpt lat="55.755474" lon="26.033386">
<ele>175.111450</ele>
<time>2010-07-17T16:58:34Z</time>
<desc>lat.=55.755474, lon.=26.033386, Alt.=175.111450m. Speed=14.328000m/h.</desc>
<speed>3.980000</speed>
</trkpt>
<trkpt lat="55.755486" lon="26.033440">
<ele>175.240356</ele>
<time>2010-07-17T16:58:35Z</time>
<desc>lat.=55.755486, lon.=26.033440, Alt.=175.240356m. Speed=12.708000m/h.</desc>
<speed>3.530000</speed>
</trkpt>
<trkpt lat="55.755497" lon="26.033497">
<ele>175.404419</ele>
<time>2010-07-17T16:58:36Z</time>
<desc>lat.=55.755497, lon.=26.033497, Alt.=175.404419m. Speed=14.328000m/h.</desc>
<speed>3.980000</speed>
</trkpt>
<trkpt lat="55.755505" lon="26.033558">
<ele>175.576294</ele>
<time>2010-07-17T16:58:37Z</time>
<desc>lat.=55.755505, lon.=26.033558, Alt.=175.576294m. Speed=14.652000m/h.</desc>
<speed>4.070000</speed>
</trkpt>
<trkpt lat="55.755520" lon="26.033627">
<ele>176.091919</ele>
<time>2010-07-17T16:58:38Z</time>
<desc>lat.=55.755520, lon.=26.033627, Alt.=176.091919m. Speed=15.948000m/h.</desc>
<speed>4.430000</speed>
</trkpt>
<trkpt lat="55.755539" lon="26.033688">
<ele>178.361450</ele>
<time>2010-07-17T16:58:39Z</time>
<desc>lat.=55.755539, lon.=26.033688, Alt.=178.361450m. Speed=15.768000m/h.</desc>
<speed>4.380000</speed>
</trkpt>
<trkpt lat="55.755554" lon="26.033760">
<ele>178.732544</ele>
<time>2010-07-17T16:58:40Z</time>
<desc>lat.=55.755554, lon.=26.033760, Alt.=178.732544m. Speed=15.768000m/h.</desc>
<speed>4.380000</speed>
</trkpt>
<trkpt lat="55.755569" lon="26.033825">
<ele>179.181763</ele>
<time>2010-07-17T16:58:41Z</time>
<desc>lat.=55.755569, lon.=26.033825, Alt.=179.181763m. Speed=14.004000m/h.</desc>
<speed>3.890000</speed>
</trkpt>
<trkpt lat="55.755581" lon="26.033876">
<ele>179.306763</ele>
<time>2010-07-17T16:58:42Z</time>
<desc>lat.=55.755581, lon.=26.033876, Alt.=179.306763m. Speed=13.464000m/h.</desc>
<speed>3.740000</speed>
</trkpt>
<trkpt lat="55.755592" lon="26.033930">
<ele>179.373169</ele>
<time>2010-07-17T16:58:43Z</time>
<desc>lat.=55.755592, lon.=26.033930, Alt.=179.373169m. Speed=14.400000m/h.</desc>
<speed>4.000000</speed>
</trkpt>
<trkpt lat="55.755608" lon="26.033995">
<ele>178.880981</ele>
<time>2010-07-17T16:58:44Z</time>
<desc>lat.=55.755608, lon.=26.033995, Alt.=178.880981m. Speed=15.048000m/h.</desc>
<speed>4.180000</speed>
</trkpt>
<trkpt lat="55.755619" lon="26.034048">
<ele>177.623169</ele>
<time>2010-07-17T16:58:45Z</time>
<desc>lat.=55.755619, lon.=26.034048, Alt.=177.623169m. Speed=13.284000m/h.</desc>
<speed>3.690000</speed>
</trkpt>
<trkpt lat="55.755630" lon="26.034111">
<ele>178.236450</ele>
<time>2010-07-17T16:58:46Z</time>
<desc>lat.=55.755630, lon.=26.034111, Alt.=178.236450m. Speed=13.032000m/h.</desc>
<speed>3.620000</speed>
</trkpt>
<trkpt lat="55.755638" lon="26.034166">
<ele>178.244263</ele>
<time>2010-07-17T16:58:47Z</time>
<desc>lat.=55.755638, lon.=26.034166, Alt.=178.244263m. Speed=13.176000m/h.</desc>
<speed>3.660000</speed>
</trkpt>
<trkpt lat="55.755646" lon="26.034220">
<ele>178.353638</ele>
<time>2010-07-17T16:58:48Z</time>
<desc>lat.=55.755646, lon.=26.034220, Alt.=178.353638m. Speed=12.600000m/h.</desc>
<speed>3.500000</speed>
</trkpt>
<trkpt lat="55.755661" lon="26.034271">
<ele>178.900513</ele>
<time>2010-07-17T16:58:49Z</time>
<desc>lat.=55.755661, lon.=26.034271, Alt.=178.900513m. Speed=12.168000m/h.</desc>
<speed>3.380000</speed>
</trkpt>
<trkpt lat="55.755672" lon="26.034319">
<ele>179.275513</ele>
<time>2010-07-17T16:58:50Z</time>
<desc>lat.=55.755672, lon.=26.034319, Alt.=179.275513m. Speed=11.808000m/h.</desc>
<speed>3.280000</speed>
</trkpt>
<trkpt lat="55.755684" lon="26.034369">
<ele>179.162231</ele>
<time>2010-07-17T16:58:51Z</time>
<desc>lat.=55.755684, lon.=26.034369, Alt.=179.162231m. Speed=11.448000m/h.</desc>
<speed>3.180000</speed>
</trkpt>
<trkpt lat="55.755692" lon="26.034426">
<ele>178.404419</ele>
<time>2010-07-17T16:58:52Z</time>
<desc>lat.=55.755692, lon.=26.034426, Alt.=178.404419m. Speed=12.168000m/h.</desc>
<speed>3.380000</speed>
</trkpt>
<trkpt lat="55.755703" lon="26.034479">
<ele>177.978638</ele>
<time>2010-07-17T16:58:53Z</time>
<desc>lat.=55.755703, lon.=26.034479, Alt.=177.978638m. Speed=12.564000m/h.</desc>
<speed>3.490000</speed>
</trkpt>
<trkpt lat="55.755711" lon="26.034536">
<ele>177.088013</ele>
<time>2010-07-17T16:58:54Z</time>
<desc>lat.=55.755711, lon.=26.034536, Alt.=177.088013m. Speed=12.348000m/h.</desc>
<speed>3.430000</speed>
</trkpt>
<trkpt lat="55.755722" lon="26.034592">
<ele>176.529419</ele>
<time>2010-07-17T16:58:55Z</time>
<desc>lat.=55.755722, lon.=26.034592, Alt.=176.529419m. Speed=12.636000m/h.</desc>
<speed>3.510000</speed>
</trkpt>
<trkpt lat="55.755733" lon="26.034649">
<ele>176.088013</ele>
<time>2010-07-17T16:58:56Z</time>
<desc>lat.=55.755733, lon.=26.034649, Alt.=176.088013m. Speed=12.564000m/h.</desc>
<speed>3.490000</speed>
</trkpt>
<trkpt lat="55.755745" lon="26.034702">
<ele>175.857544</ele>
<time>2010-07-17T16:58:57Z</time>
<desc>lat.=55.755745, lon.=26.034702, Alt.=175.857544m. Speed=12.672000m/h.</desc>
<speed>3.520000</speed>
</trkpt>
<trkpt lat="55.755756" lon="26.034754">
<ele>175.709106</ele>
<time>2010-07-17T16:58:58Z</time>
<desc>lat.=55.755756, lon.=26.034754, Alt.=175.709106m. Speed=12.852000m/h.</desc>
<speed>3.570000</speed>
</trkpt>
<trkpt lat="55.755768" lon="26.034805">
<ele>175.966919</ele>
<time>2010-07-17T16:58:59Z</time>
<desc>lat.=55.755768, lon.=26.034805, Alt.=175.966919m. Speed=12.420000m/h.</desc>
<speed>3.450000</speed>
</trkpt>
<trkpt lat="55.755779" lon="26.034855">
<ele>176.189575</ele>
<time>2010-07-17T16:59:00Z</time>
<desc>lat.=55.755779, lon.=26.034855, Alt.=176.189575m. Speed=12.672000m/h.</desc>
<speed>3.520000</speed>
</trkpt>
<trkpt lat="55.755787" lon="26.034906">
<ele>176.228638</ele>
<time>2010-07-17T16:59:01Z</time>
<desc>lat.=55.755787, lon.=26.034906, Alt.=176.228638m. Speed=11.952000m/h.</desc>
<speed>3.320000</speed>
</trkpt>
<trkpt lat="55.755795" lon="26.034954">
<ele>176.091919</ele>
<time>2010-07-17T16:59:02Z</time>
<desc>lat.=55.755795, lon.=26.034954, Alt.=176.091919m. Speed=12.528000m/h.</desc>
<speed>3.480000</speed>
</trkpt>
<trkpt lat="55.755802" lon="26.035004">
<ele>176.216919</ele>
<time>2010-07-17T16:59:03Z</time>
<desc>lat.=55.755802, lon.=26.035004, Alt.=176.216919m. Speed=11.952000m/h.</desc>
<speed>3.320000</speed>
</trkpt>
<trkpt lat="55.755814" lon="26.035055">
<ele>176.314575</ele>
<time>2010-07-17T16:59:04Z</time>
<desc>lat.=55.755814, lon.=26.035055, Alt.=176.314575m. Speed=12.024000m/h.</desc>
<speed>3.340000</speed>
</trkpt>
<trkpt lat="55.755825" lon="26.035109">
<ele>176.377075</ele>
<time>2010-07-17T16:59:05Z</time>
<desc>lat.=55.755825, lon.=26.035109, Alt.=176.377075m. Speed=11.808000m/h.</desc>
<speed>3.280000</speed>
</trkpt>
<trkpt lat="55.755833" lon="26.035158">
<ele>176.322388</ele>
<time>2010-07-17T16:59:06Z</time>
<desc>lat.=55.755833, lon.=26.035158, Alt.=176.322388m. Speed=12.600000m/h.</desc>
<speed>3.500000</speed>
</trkpt>
<trkpt lat="55.755844" lon="26.035219">
<ele>176.341919</ele>
<time>2010-07-17T16:59:07Z</time>
<desc>lat.=55.755844, lon.=26.035219, Alt.=176.341919m. Speed=15.264000m/h.</desc>
<speed>4.240000</speed>
</trkpt>
<trkpt lat="55.755859" lon="26.035282">
<ele>176.330200</ele>
<time>2010-07-17T16:59:08Z</time>
<desc>lat.=55.755859, lon.=26.035282, Alt.=176.330200m. Speed=15.300000m/h.</desc>
<speed>4.250000</speed>
</trkpt>
<trkpt lat="55.755875" lon="26.035345">
<ele>176.298950</ele>
<time>2010-07-17T16:59:09Z</time>
<desc>lat.=55.755875, lon.=26.035345, Alt.=176.298950m. Speed=15.300000m/h.</desc>
<speed>4.250000</speed>
</trkpt>
<trkpt lat="55.755886" lon="26.035418">
<ele>176.314575</ele>
<time>2010-07-17T16:59:10Z</time>
<desc>lat.=55.755886, lon.=26.035418, Alt.=176.314575m. Speed=15.804000m/h.</desc>
<speed>4.390000</speed>
</trkpt>
<trkpt lat="55.755894" lon="26.035494">
<ele>176.310669</ele>
<time>2010-07-17T16:59:11Z</time>
<desc>lat.=55.755894, lon.=26.035494, Alt.=176.310669m. Speed=17.496000m/h.</desc>
<speed>4.860000</speed>
</trkpt>
<trkpt lat="55.755905" lon="26.035574">
<ele>176.127075</ele>
<time>2010-07-17T16:59:12Z</time>
<desc>lat.=55.755905, lon.=26.035574, Alt.=176.127075m. Speed=17.604000m/h.</desc>
<speed>4.890000</speed>
</trkpt>
<trkpt lat="55.755920" lon="26.035652">
<ele>176.189575</ele>
<time>2010-07-17T16:59:13Z</time>
<desc>lat.=55.755920, lon.=26.035652, Alt.=176.189575m. Speed=18.648001m/h.</desc>
<speed>5.180000</speed>
</trkpt>
<trkpt lat="55.755936" lon="26.035734">
<ele>176.228638</ele>
<time>2010-07-17T16:59:14Z</time>
<desc>lat.=55.755936, lon.=26.035734, Alt.=176.228638m. Speed=18.576000m/h.</desc>
<speed>5.160000</speed>
</trkpt>
<trkpt lat="55.755955" lon="26.035805">
<ele>176.162231</ele>
<time>2010-07-17T16:59:15Z</time>
<desc>lat.=55.755955, lon.=26.035805, Alt.=176.162231m. Speed=17.747999m/h.</desc>
<speed>4.930000</speed>
</trkpt>
<trkpt lat="55.755970" lon="26.035875">
<ele>176.130981</ele>
<time>2010-07-17T16:59:16Z</time>
<desc>lat.=55.755970, lon.=26.035875, Alt.=176.130981m. Speed=16.452000m/h.</desc>
<speed>4.570000</speed>
</trkpt>
<trkpt lat="55.755989" lon="26.035936">
<ele>176.138794</ele>
<time>2010-07-17T16:59:17Z</time>
<desc>lat.=55.755989, lon.=26.035936, Alt.=176.138794m. Speed=14.652000m/h.</desc>
<speed>4.070000</speed>
</trkpt>
<trkpt lat="55.755997" lon="26.035999">
<ele>176.127075</ele>
<time>2010-07-17T16:59:18Z</time>
<desc>lat.=55.755997, lon.=26.035999, Alt.=176.127075m. Speed=14.148000m/h.</desc>
<speed>3.930000</speed>
</trkpt>
<trkpt lat="55.756012" lon="26.036055">
<ele>176.064575</ele>
<time>2010-07-17T16:59:19Z</time>
<desc>lat.=55.756012, lon.=26.036055, Alt.=176.064575m. Speed=14.688000m/h.</desc>
<speed>4.080000</speed>
</trkpt>
<trkpt lat="55.756027" lon="26.036110">
<ele>176.002075</ele>
<time>2010-07-17T16:59:20Z</time>
<desc>lat.=55.756027, lon.=26.036110, Alt.=176.002075m. Speed=15.588000m/h.</desc>
<speed>4.330000</speed>
</trkpt>
<trkpt lat="55.756035" lon="26.036186">
<ele>176.041138</ele>
<time>2010-07-17T16:59:21Z</time>
<desc>lat.=55.756035, lon.=26.036186, Alt.=176.041138m. Speed=16.416000m/h.</desc>
<speed>4.560000</speed>
</trkpt>
<trkpt lat="55.756050" lon="26.036261">
<ele>175.982544</ele>
<time>2010-07-17T16:59:22Z</time>
<desc>lat.=55.756050, lon.=26.036261, Alt.=175.982544m. Speed=16.704000m/h.</desc>
<speed>4.640000</speed>
</trkpt>
<trkpt lat="55.756065" lon="26.036331">
<ele>175.986450</ele>
<time>2010-07-17T16:59:23Z</time>
<desc>lat.=55.756065, lon.=26.036331, Alt.=175.986450m. Speed=15.696000m/h.</desc>
<speed>4.360000</speed>
</trkpt>
<trkpt lat="55.756077" lon="26.036404">
<ele>175.986450</ele>
<time>2010-07-17T16:59:24Z</time>
<desc>lat.=55.756077, lon.=26.036404, Alt.=175.986450m. Speed=16.020000m/h.</desc>
<speed>4.450000</speed>
</trkpt>
<trkpt lat="55.756092" lon="26.036463">
<ele>175.849731</ele>
<time>2010-07-17T16:59:25Z</time>
<desc>lat.=55.756092, lon.=26.036463, Alt.=175.849731m. Speed=14.652000m/h.</desc>
<speed>4.070000</speed>
</trkpt>
<trkpt lat="55.756107" lon="26.036518">
<ele>175.713013</ele>
<time>2010-07-17T16:59:26Z</time>
<desc>lat.=55.756107, lon.=26.036518, Alt.=175.713013m. Speed=13.608000m/h.</desc>
<speed>3.780000</speed>
</trkpt>
<trkpt lat="55.756130" lon="26.036558">
<ele>175.603638</ele>
<time>2010-07-17T16:59:27Z</time>
<desc>lat.=55.756130, lon.=26.036558, Alt.=175.603638m. Speed=13.032000m/h.</desc>
<speed>3.620000</speed>
</trkpt>
<trkpt lat="55.756142" lon="26.036613">
<ele>175.505981</ele>
<time>2010-07-17T16:59:28Z</time>
<desc>lat.=55.756142, lon.=26.036613, Alt.=175.505981m. Speed=13.140000m/h.</desc>
<speed>3.650000</speed>
</trkpt>
<trkpt lat="55.756161" lon="26.036673">
<ele>175.412231</ele>
<time>2010-07-17T16:59:29Z</time>
<desc>lat.=55.756161, lon.=26.036673, Alt.=175.412231m. Speed=14.256000m/h.</desc>
<speed>3.960000</speed>
</trkpt>
<trkpt lat="55.756168" lon="26.036747">
<ele>175.404419</ele>
<time>2010-07-17T16:59:30Z</time>
<desc>lat.=55.756168, lon.=26.036747, Alt.=175.404419m. Speed=13.608000m/h.</desc>
<speed>3.780000</speed>
</trkpt>
<trkpt lat="55.756187" lon="26.036818">
<ele>175.306763</ele>
<time>2010-07-17T16:59:31Z</time>
<desc>lat.=55.756187, lon.=26.036818, Alt.=175.306763m. Speed=16.488001m/h.</desc>
<speed>4.580000</speed>
</trkpt>
<trkpt lat="55.756210" lon="26.036882">
<ele>175.115356</ele>
<time>2010-07-17T16:59:32Z</time>
<desc>lat.=55.756210, lon.=26.036882, Alt.=175.115356m. Speed=15.372000m/h.</desc>
<speed>4.270000</speed>
</trkpt>
<trkpt lat="55.756237" lon="26.036930">
<ele>175.013794</ele>
<time>2010-07-17T16:59:33Z</time>
<desc>lat.=55.756237, lon.=26.036930, Alt.=175.013794m. Speed=14.400000m/h.</desc>
<speed>4.000000</speed>
</trkpt>
<trkpt lat="55.756264" lon="26.036982">
<ele>174.771606</ele>
<time>2010-07-17T16:59:34Z</time>
<desc>lat.=55.756264, lon.=26.036982, Alt.=174.771606m. Speed=15.300000m/h.</desc>
<speed>4.250000</speed>
</trkpt>
<trkpt lat="55.756283" lon="26.037037">
<ele>174.455200</ele>
<time>2010-07-17T16:59:35Z</time>
<desc>lat.=55.756283, lon.=26.037037, Alt.=174.455200m. Speed=14.400000m/h.</desc>
<speed>4.000000</speed>
</trkpt>
<trkpt lat="55.756310" lon="26.037090">
<ele>174.127075</ele>
<time>2010-07-17T16:59:36Z</time>
<desc>lat.=55.756310, lon.=26.037090, Alt.=174.127075m. Speed=15.192000m/h.</desc>
<speed>4.220000</speed>
</trkpt>
<trkpt lat="55.756336" lon="26.037149">
<ele>173.849731</ele>
<time>2010-07-17T16:59:37Z</time>
<desc>lat.=55.756336, lon.=26.037149, Alt.=173.849731m. Speed=14.436000m/h.</desc>
<speed>4.010000</speed>
</trkpt>
<trkpt lat="55.756367" lon="26.037209">
<ele>173.670044</ele>
<time>2010-07-17T16:59:38Z</time>
<desc>lat.=55.756367, lon.=26.037209, Alt.=173.670044m. Speed=15.156000m/h.</desc>
<speed>4.210000</speed>
</trkpt>
<trkpt lat="55.756397" lon="26.037270">
<ele>173.412231</ele>
<time>2010-07-17T16:59:39Z</time>
<desc>lat.=55.756397, lon.=26.037270, Alt.=173.412231m. Speed=15.984000m/h.</desc>
<speed>4.440000</speed>
</trkpt>
<trkpt lat="55.756435" lon="26.037327">
<ele>173.037231</ele>
<time>2010-07-17T16:59:40Z</time>
<desc>lat.=55.756435, lon.=26.037327, Alt.=173.037231m. Speed=17.639999m/h.</desc>
<speed>4.900000</speed>
</trkpt>
<trkpt lat="55.756462" lon="26.037394">
<ele>172.681763</ele>
<time>2010-07-17T16:59:41Z</time>
<desc>lat.=55.756462, lon.=26.037394, Alt.=172.681763m. Speed=19.440001m/h.</desc>
<speed>5.400000</speed>
</trkpt>
<trkpt lat="55.756496" lon="26.037485">
<ele>172.298950</ele>
<time>2010-07-17T16:59:42Z</time>
<desc>lat.=55.756496, lon.=26.037485, Alt.=172.298950m. Speed=22.104000m/h.</desc>
<speed>6.140000</speed>
</trkpt>
<trkpt lat="55.756535" lon="26.037579">
<ele>171.689575</ele>
<time>2010-07-17T16:59:43Z</time>
<desc>lat.=55.756535, lon.=26.037579, Alt.=171.689575m. Speed=21.959999m/h.</desc>
<speed>6.100000</speed>
</trkpt>
<trkpt lat="55.756565" lon="26.037647">
<ele>171.291138</ele>
<time>2010-07-17T16:59:44Z</time>
<desc>lat.=55.756565, lon.=26.037647, Alt.=171.291138m. Speed=19.044001m/h.</desc>
<speed>5.290000</speed>
</trkpt>
<trkpt lat="55.756607" lon="26.037706">
<ele>170.744263</ele>
<time>2010-07-17T16:59:45Z</time>
<desc>lat.=55.756607, lon.=26.037706, Alt.=170.744263m. Speed=20.232000m/h.</desc>
<speed>5.620000</speed>
</trkpt>
<trkpt lat="55.756653" lon="26.037766">
<ele>170.220825</ele>
<time>2010-07-17T16:59:46Z</time>
<desc>lat.=55.756653, lon.=26.037766, Alt.=170.220825m. Speed=20.700001m/h.</desc>
<speed>5.750000</speed>
</trkpt>
<trkpt lat="55.756680" lon="26.037834">
<ele>170.009888</ele>
<time>2010-07-17T16:59:47Z</time>
<desc>lat.=55.756680, lon.=26.037834, Alt.=170.009888m. Speed=18.540001m/h.</desc>
<speed>5.150000</speed>
</trkpt>
<trkpt lat="55.756714" lon="26.037901">
<ele>169.412231</ele>
<time>2010-07-17T16:59:48Z</time>
<desc>lat.=55.756714, lon.=26.037901, Alt.=169.412231m. Speed=18.540001m/h.</desc>
<speed>5.150000</speed>
</trkpt>
<trkpt lat="55.756748" lon="26.037968">
<ele>169.025513</ele>
<time>2010-07-17T16:59:49Z</time>
<desc>lat.=55.756748, lon.=26.037968, Alt.=169.025513m. Speed=18.827999m/h.</desc>
<speed>5.230000</speed>
</trkpt>
<trkpt lat="55.756786" lon="26.038029">
<ele>168.548950</ele>
<time>2010-07-17T16:59:50Z</time>
<desc>lat.=55.756786, lon.=26.038029, Alt.=168.548950m. Speed=20.052000m/h.</desc>
<speed>5.570000</speed>
</trkpt>
<trkpt lat="55.756821" lon="26.038088">
<ele>168.298950</ele>
<time>2010-07-17T16:59:51Z</time>
<desc>lat.=55.756821, lon.=26.038088, Alt.=168.298950m. Speed=20.591999m/h.</desc>
<speed>5.720000</speed>
</trkpt>
<trkpt lat="55.756859" lon="26.038151">
<ele>168.048950</ele>
<time>2010-07-17T16:59:52Z</time>
<desc>lat.=55.756859, lon.=26.038151, Alt.=168.048950m. Speed=18.612000m/h.</desc>
<speed>5.170000</speed>
</trkpt>
<trkpt lat="55.756889" lon="26.038214">
<ele>167.728638</ele>
<time>2010-07-17T16:59:53Z</time>
<desc>lat.=55.756889, lon.=26.038214, Alt.=167.728638m. Speed=17.639999m/h.</desc>
<speed>4.900000</speed>
</trkpt>
<trkpt lat="55.756927" lon="26.038279">
<ele>167.287231</ele>
<time>2010-07-17T16:59:54Z</time>
<desc>lat.=55.756927, lon.=26.038279, Alt.=167.287231m. Speed=19.152000m/h.</desc>
<speed>5.320000</speed>
</trkpt>
<trkpt lat="55.756962" lon="26.038353">
<ele>167.021606</ele>
<time>2010-07-17T16:59:55Z</time>
<desc>lat.=55.756962, lon.=26.038353, Alt.=167.021606m. Speed=19.115999m/h.</desc>
<speed>5.310000</speed>
</trkpt>
<trkpt lat="55.756996" lon="26.038431">
<ele>166.642700</ele>
<time>2010-07-17T16:59:56Z</time>
<desc>lat.=55.756996, lon.=26.038431, Alt.=166.642700m. Speed=19.511999m/h.</desc>
<speed>5.420000</speed>
</trkpt>
<trkpt lat="55.757038" lon="26.038521">
<ele>166.060669</ele>
<time>2010-07-17T16:59:57Z</time>
<desc>lat.=55.757038, lon.=26.038521, Alt.=166.060669m. Speed=19.260000m/h.</desc>
<speed>5.350000</speed>
</trkpt>
<trkpt lat="55.757076" lon="26.038582">
<ele>166.111450</ele>
<time>2010-07-17T16:59:58Z</time>
<desc>lat.=55.757076, lon.=26.038582, Alt.=166.111450m. Speed=19.188000m/h.</desc>
<speed>5.330000</speed>
</trkpt>
<trkpt lat="55.757118" lon="26.038652">
<ele>165.986450</ele>
<time>2010-07-17T16:59:59Z</time>
<desc>lat.=55.757118, lon.=26.038652, Alt.=165.986450m. Speed=19.656000m/h.</desc>
<speed>5.460000</speed>
</trkpt>
<trkpt lat="55.757156" lon="26.038717">
<ele>165.904419</ele>
<time>2010-07-17T17:00:00Z</time>
<desc>lat.=55.757156, lon.=26.038717, Alt.=165.904419m. Speed=18.288000m/h.</desc>
<speed>5.080000</speed>
</trkpt>
<trkpt lat="55.757195" lon="26.038782">
<ele>166.173950</ele>
<time>2010-07-17T17:00:01Z</time>
<desc>lat.=55.757195, lon.=26.038782, Alt.=166.173950m. Speed=17.784000m/h.</desc>
<speed>4.940000</speed>
</trkpt>
<trkpt lat="55.757236" lon="26.038845">
<ele>166.205200</ele>
<time>2010-07-17T17:00:02Z</time>
<desc>lat.=55.757236, lon.=26.038845, Alt.=166.205200m. Speed=17.568001m/h.</desc>
<speed>4.880000</speed>
</trkpt>
<trkpt lat="55.757267" lon="26.038908">
<ele>166.181763</ele>
<time>2010-07-17T17:00:03Z</time>
<desc>lat.=55.757267, lon.=26.038908, Alt.=166.181763m. Speed=15.264000m/h.</desc>
<speed>4.240000</speed>
</trkpt>
<trkpt lat="55.757294" lon="26.038960">
<ele>166.041138</ele>
<time>2010-07-17T17:00:04Z</time>
<desc>lat.=55.757294, lon.=26.038960, Alt.=166.041138m. Speed=13.860000m/h.</desc>
<speed>3.850000</speed>
</trkpt>
<trkpt lat="55.757317" lon="26.039005">
<ele>165.888794</ele>
<time>2010-07-17T17:00:05Z</time>
<desc>lat.=55.757317, lon.=26.039005, Alt.=165.888794m. Speed=11.592000m/h.</desc>
<speed>3.220000</speed>
</trkpt>
<trkpt lat="55.757336" lon="26.039042">
<ele>165.775513</ele>
<time>2010-07-17T17:00:06Z</time>
<desc>lat.=55.757336, lon.=26.039042, Alt.=165.775513m. Speed=8.820000m/h.</desc>
<speed>2.450000</speed>
</trkpt>
<trkpt lat="55.757351" lon="26.039076">
<ele>165.611450</ele>
<time>2010-07-17T17:00:07Z</time>
<desc>lat.=55.757351, lon.=26.039076, Alt.=165.611450m. Speed=6.660000m/h.</desc>
<speed>1.850000</speed>
</trkpt>
<trkpt lat="55.757359" lon="26.039103">
<ele>165.490356</ele>
<time>2010-07-17T17:00:08Z</time>
<desc>lat.=55.757359, lon.=26.039103, Alt.=165.490356m. Speed=4.572000m/h.</desc>
<speed>1.270000</speed>
</trkpt>
<trkpt lat="55.757374" lon="26.039122">
<ele>165.146606</ele>
<time>2010-07-17T17:00:09Z</time>
<desc>lat.=55.757374, lon.=26.039122, Alt.=165.146606m. Speed=3.096000m/h.</desc>
<speed>0.860000</speed>
</trkpt>
<trkpt lat="55.757381" lon="26.039152">
<ele>164.615356</ele>
<time>2010-07-17T17:00:10Z</time>
<desc>lat.=55.757381, lon.=26.039152, Alt.=164.615356m. Speed=3.672000m/h.</desc>
<speed>1.020000</speed>
</trkpt>
<trkpt lat="55.757389" lon="26.039164">
<ele>164.361450</ele>
<time>2010-07-17T17:00:11Z</time>
<desc>lat.=55.757389, lon.=26.039164, Alt.=164.361450m. Speed=2.988000m/h.</desc>
<speed>0.830000</speed>
</trkpt>
<trkpt lat="55.757393" lon="26.039165">
<ele>164.142700</ele>
<time>2010-07-17T17:00:12Z</time>
<desc>lat.=55.757393, lon.=26.039165, Alt.=164.142700m. Speed=1.332000m/h.</desc>
<speed>0.370000</speed>
</trkpt>
<trkpt lat="55.757397" lon="26.039165">
<ele>163.916138</ele>
<time>2010-07-17T17:00:13Z</time>
<desc>lat.=55.757397, lon.=26.039165, Alt.=163.916138m. Speed=1.188000m/h.</desc>
<speed>0.330000</speed>
</trkpt>
<trkpt lat="55.757397" lon="26.039164">
<ele>163.818481</ele>
<time>2010-07-17T17:00:14Z</time>
<desc>lat.=55.757397, lon.=26.039164, Alt.=163.818481m. Speed=0.324000m/h.</desc>
<speed>0.090000</speed>
</trkpt>
<trkpt lat="55.757401" lon="26.039165">
<ele>163.701294</ele>
<time>2010-07-17T17:00:15Z</time>
<desc>lat.=55.757401, lon.=26.039165, Alt.=163.701294m. Speed=2.052000m/h.</desc>
<speed>0.570000</speed>
</trkpt>
<trkpt lat="55.757404" lon="26.039165">
<ele>163.634888</ele>
<time>2010-07-17T17:00:16Z</time>
<desc>lat.=55.757404, lon.=26.039165, Alt.=163.634888m. Speed=2.628000m/h.</desc>
<speed>0.730000</speed>
</trkpt>
<trkpt lat="55.757412" lon="26.039169">
<ele>163.568481</ele>
<time>2010-07-17T17:00:17Z</time>
<desc>lat.=55.757412, lon.=26.039169, Alt.=163.568481m. Speed=1.548000m/h.</desc>
<speed>0.430000</speed>
</trkpt>
<trkpt lat="55.757416" lon="26.039173">
<ele>163.537231</ele>
<time>2010-07-17T17:00:18Z</time>
<desc>lat.=55.757416, lon.=26.039173, Alt.=163.537231m. Speed=1.656000m/h.</desc>
<speed>0.460000</speed>
</trkpt>
<trkpt lat="55.757420" lon="26.039175">
<ele>163.502075</ele>
<time>2010-07-17T17:00:19Z</time>
<desc>lat.=55.757420, lon.=26.039175, Alt.=163.502075m. Speed=1.980000m/h.</desc>
<speed>0.550000</speed>
</trkpt>
<trkpt lat="55.757423" lon="26.039179">
<ele>163.470825</ele>
<time>2010-07-17T17:00:20Z</time>
<desc>lat.=55.757423, lon.=26.039179, Alt.=163.470825m. Speed=2.196000m/h.</desc>
<speed>0.610000</speed>
</trkpt>
<trkpt lat="55.757427" lon="26.039183">
<ele>163.439575</ele>
<time>2010-07-17T17:00:21Z</time>
<desc>lat.=55.757427, lon.=26.039183, Alt.=163.439575m. Speed=2.124000m/h.</desc>
<speed>0.590000</speed>
</trkpt>
<trkpt lat="55.757431" lon="26.039186">
<ele>163.404419</ele>
<time>2010-07-17T17:00:22Z</time>
<desc>lat.=55.757431, lon.=26.039186, Alt.=163.404419m. Speed=2.412000m/h.</desc>
<speed>0.670000</speed>
</trkpt>
<trkpt lat="55.757439" lon="26.039190">
<ele>163.369263</ele>
<time>2010-07-17T17:00:23Z</time>
<desc>lat.=55.757439, lon.=26.039190, Alt.=163.369263m. Speed=2.412000m/h.</desc>
<speed>0.670000</speed>
</trkpt>
<trkpt lat="55.757442" lon="26.039194">
<ele>163.330200</ele>
<time>2010-07-17T17:00:24Z</time>
<desc>lat.=55.757442, lon.=26.039194, Alt.=163.330200m. Speed=2.160000m/h.</desc>
<speed>0.600000</speed>
</trkpt>
<trkpt lat="55.757450" lon="26.039198">
<ele>163.295044</ele>
<time>2010-07-17T17:00:25Z</time>
<desc>lat.=55.757450, lon.=26.039198, Alt.=163.295044m. Speed=1.800000m/h.</desc>
<speed>0.500000</speed>
</trkpt>
<trkpt lat="55.757454" lon="26.039202">
<ele>163.259888</ele>
<time>2010-07-17T17:00:26Z</time>
<desc>lat.=55.757454, lon.=26.039202, Alt.=163.259888m. Speed=1.764000m/h.</desc>
<speed>0.490000</speed>
</trkpt>
<trkpt lat="55.757458" lon="26.039206">
<ele>163.220825</ele>
<time>2010-07-17T17:00:27Z</time>
<desc>lat.=55.757458, lon.=26.039206, Alt.=163.220825m. Speed=2.340000m/h.</desc>
<speed>0.650000</speed>
</trkpt>
<trkpt lat="55.757462" lon="26.039209">
<ele>163.181763</ele>
<time>2010-07-17T17:00:28Z</time>
<desc>lat.=55.757462, lon.=26.039209, Alt.=163.181763m. Speed=2.088000m/h.</desc>
<speed>0.580000</speed>
</trkpt>
<trkpt lat="55.757469" lon="26.039211">
<ele>163.142700</ele>
<time>2010-07-17T17:00:29Z</time>
<desc>lat.=55.757469, lon.=26.039211, Alt.=163.142700m. Speed=2.196000m/h.</desc>
<speed>0.610000</speed>
</trkpt>
<trkpt lat="55.757473" lon="26.039213">
<ele>163.103638</ele>
<time>2010-07-17T17:00:30Z</time>
<desc>lat.=55.757473, lon.=26.039213, Alt.=163.103638m. Speed=2.412000m/h.</desc>
<speed>0.670000</speed>
</trkpt>
<trkpt lat="55.757481" lon="26.039217">
<ele>163.060669</ele>
<time>2010-07-17T17:00:31Z</time>
<desc>lat.=55.757481, lon.=26.039217, Alt.=163.060669m. Speed=1.368000m/h.</desc>
<speed>0.380000</speed>
</trkpt>
<trkpt lat="55.757481" lon="26.039217">
<ele>163.013794</ele>
<time>2010-07-17T17:00:32Z</time>
<desc>lat.=55.757481, lon.=26.039217, Alt.=163.013794m. Speed=0.756000m/h.</desc>
<speed>0.210000</speed>
</trkpt>
<trkpt lat="55.757484" lon="26.039217">
<ele>162.970825</ele>
<time>2010-07-17T17:00:33Z</time>
<desc>lat.=55.757484, lon.=26.039217, Alt.=162.970825m. Speed=0.396000m/h.</desc>
<speed>0.110000</speed>
</trkpt>
<trkpt lat="55.757484" lon="26.039219">
<ele>162.927856</ele>
<time>2010-07-17T17:00:34Z</time>
<desc>lat.=55.757484, lon.=26.039219, Alt.=162.927856m. Speed=0.252000m/h.</desc>
<speed>0.070000</speed>
</trkpt>
<trkpt lat="55.757484" lon="26.039219">
<ele>162.900513</ele>
<time>2010-07-17T17:00:35Z</time>
<desc>lat.=55.757484, lon.=26.039219, Alt.=162.900513m. Speed=0.144000m/h.</desc>
<speed>0.040000</speed>
</trkpt>
<trkpt lat="55.757484" lon="26.039221">
<ele>162.877075</ele>
<time>2010-07-17T17:00:36Z</time>
<desc>lat.=55.757484, lon.=26.039221, Alt.=162.877075m. Speed=0.324000m/h.</desc>
<speed>0.090000</speed>
</trkpt>
<trkpt lat="55.757484" lon="26.039221">
<ele>162.853638</ele>
<time>2010-07-17T17:00:37Z</time>
<desc>lat.=55.757484, lon.=26.039221, Alt.=162.853638m. Speed=0.792000m/h.</desc>
<speed>0.220000</speed>
</trkpt>
<trkpt lat="55.757481" lon="26.039223">
<ele>162.838013</ele>
<time>2010-07-17T17:00:38Z</time>
<desc>lat.=55.757481, lon.=26.039223, Alt.=162.838013m. Speed=0.936000m/h.</desc>
<speed>0.260000</speed>
</trkpt>
<trkpt lat="55.757481" lon="26.039227">
<ele>162.822388</ele>
<time>2010-07-17T17:00:39Z</time>
<desc>lat.=55.757481, lon.=26.039227, Alt.=162.822388m. Speed=1.116000m/h.</desc>
<speed>0.310000</speed>
</trkpt>
<trkpt lat="55.757477" lon="26.039230">
<ele>162.810669</ele>
<time>2010-07-17T17:00:40Z</time>
<desc>lat.=55.757477, lon.=26.039230, Alt.=162.810669m. Speed=1.224000m/h.</desc>
<speed>0.340000</speed>
</trkpt>
<trkpt lat="55.757477" lon="26.039234">
<ele>162.798950</ele>
<time>2010-07-17T17:00:41Z</time>
<desc>lat.=55.757477, lon.=26.039234, Alt.=162.798950m. Speed=1.008000m/h.</desc>
<speed>0.280000</speed>
</trkpt>
<trkpt lat="55.757473" lon="26.039236">
<ele>162.791138</ele>
<time>2010-07-17T17:00:42Z</time>
<desc>lat.=55.757473, lon.=26.039236, Alt.=162.791138m. Speed=0.900000m/h.</desc>
<speed>0.250000</speed>
</trkpt>
<trkpt lat="55.757473" lon="26.039240">
<ele>162.779419</ele>
<time>2010-07-17T17:00:43Z</time>
<desc>lat.=55.757473, lon.=26.039240, Alt.=162.779419m. Speed=1.080000m/h.</desc>
<speed>0.300000</speed>
</trkpt>
<trkpt lat="55.757473" lon="26.039244">
<ele>162.771606</ele>
<time>2010-07-17T17:00:44Z</time>
<desc>lat.=55.757473, lon.=26.039244, Alt.=162.771606m. Speed=1.512000m/h.</desc>
<speed>0.420000</speed>
</trkpt>
<trkpt lat="55.757473" lon="26.039249">
<ele>162.802856</ele>
<time>2010-07-17T17:00:45Z</time>
<desc>lat.=55.757473, lon.=26.039249, Alt.=162.802856m. Speed=2.412000m/h.</desc>
<speed>0.670000</speed>
</trkpt>
<trkpt lat="55.757477" lon="26.039259">
<ele>162.814575</ele>
<time>2010-07-17T17:00:46Z</time>
<desc>lat.=55.757477, lon.=26.039259, Alt.=162.814575m. Speed=2.664000m/h.</desc>
<speed>0.740000</speed>
</trkpt>
<trkpt lat="55.757481" lon="26.039270">
<ele>162.830200</ele>
<time>2010-07-17T17:00:47Z</time>
<desc>lat.=55.757481, lon.=26.039270, Alt.=162.830200m. Speed=3.024000m/h.</desc>
<speed>0.840000</speed>
</trkpt>
<trkpt lat="55.757484" lon="26.039282">
<ele>162.841919</ele>
<time>2010-07-17T17:00:48Z</time>
<desc>lat.=55.757484, lon.=26.039282, Alt.=162.841919m. Speed=3.168000m/h.</desc>
<speed>0.880000</speed>
</trkpt>
<trkpt lat="55.757488" lon="26.039295">
<ele>162.857544</ele>
<time>2010-07-17T17:00:49Z</time>
<desc>lat.=55.757488, lon.=26.039295, Alt.=162.857544m. Speed=3.636000m/h.</desc>
<speed>1.010000</speed>
</trkpt>
<trkpt lat="55.757488" lon="26.039326">
<ele>162.818481</ele>
<time>2010-07-17T17:00:50Z</time>
<desc>lat.=55.757488, lon.=26.039326, Alt.=162.818481m. Speed=4.356000m/h.</desc>
<speed>1.210000</speed>
</trkpt>
<trkpt lat="55.757507" lon="26.039352">
<ele>162.787231</ele>
<time>2010-07-17T17:00:51Z</time>
<desc>lat.=55.757507, lon.=26.039352, Alt.=162.787231m. Speed=5.472000m/h.</desc>
<speed>1.520000</speed>
</trkpt>
<trkpt lat="55.757526" lon="26.039375">
<ele>162.681763</ele>
<time>2010-07-17T17:00:52Z</time>
<desc>lat.=55.757526, lon.=26.039375, Alt.=162.681763m. Speed=6.624000m/h.</desc>
<speed>1.840000</speed>
</trkpt>
<trkpt lat="55.757545" lon="26.039394">
<ele>162.654419</ele>
<time>2010-07-17T17:00:53Z</time>
<desc>lat.=55.757545, lon.=26.039394, Alt.=162.654419m. Speed=7.344000m/h.</desc>
<speed>2.040000</speed>
</trkpt>
<trkpt lat="55.757576" lon="26.039412">
<ele>162.545044</ele>
<time>2010-07-17T17:00:54Z</time>
<desc>lat.=55.757576, lon.=26.039412, Alt.=162.545044m. Speed=7.956000m/h.</desc>
<speed>2.210000</speed>
</trkpt>
<trkpt lat="55.757614" lon="26.039419">
<ele>162.400513</ele>
<time>2010-07-17T17:00:55Z</time>
<desc>lat.=55.757614, lon.=26.039419, Alt.=162.400513m. Speed=7.524000m/h.</desc>
<speed>2.090000</speed>
</trkpt>
<trkpt lat="55.757641" lon="26.039434">
<ele>162.314575</ele>
<time>2010-07-17T17:00:56Z</time>
<desc>lat.=55.757641, lon.=26.039434, Alt.=162.314575m. Speed=8.208000m/h.</desc>
<speed>2.280000</speed>
</trkpt>
<trkpt lat="55.757664" lon="26.039452">
<ele>162.255981</ele>
<time>2010-07-17T17:00:57Z</time>
<desc>lat.=55.757664, lon.=26.039452, Alt.=162.255981m. Speed=7.056000m/h.</desc>
<speed>1.960000</speed>
</trkpt>
<trkpt lat="55.757679" lon="26.039474">
<ele>162.236450</ele>
<time>2010-07-17T17:00:58Z</time>
<desc>lat.=55.757679, lon.=26.039474, Alt.=162.236450m. Speed=6.192000m/h.</desc>
<speed>1.720000</speed>
</trkpt>
<trkpt lat="55.757694" lon="26.039494">
<ele>162.248169</ele>
<time>2010-07-17T17:00:59Z</time>
<desc>lat.=55.757694, lon.=26.039494, Alt.=162.248169m. Speed=6.624000m/h.</desc>
<speed>1.840000</speed>
</trkpt>
<trkpt lat="55.757710" lon="26.039513">
<ele>162.244263</ele>
<time>2010-07-17T17:01:00Z</time>
<desc>lat.=55.757710, lon.=26.039513, Alt.=162.244263m. Speed=6.336000m/h.</desc>
<speed>1.760000</speed>
</trkpt>
<trkpt lat="55.757717" lon="26.039547">
<ele>162.279419</ele>
<time>2010-07-17T17:01:01Z</time>
<desc>lat.=55.757717, lon.=26.039547, Alt.=162.279419m. Speed=5.652000m/h.</desc>
<speed>1.570000</speed>
</trkpt>
<trkpt lat="55.757725" lon="26.039562">
<ele>162.271606</ele>
<time>2010-07-17T17:01:02Z</time>
<desc>lat.=55.757725, lon.=26.039562, Alt.=162.271606m. Speed=4.500000m/h.</desc>
<speed>1.250000</speed>
</trkpt>
<trkpt lat="55.757740" lon="26.039568">
<ele>162.232544</ele>
<time>2010-07-17T17:01:03Z</time>
<desc>lat.=55.757740, lon.=26.039568, Alt.=162.232544m. Speed=3.924000m/h.</desc>
<speed>1.090000</speed>
</trkpt>
<trkpt lat="55.757755" lon="26.039589">
<ele>161.982544</ele>
<time>2010-07-17T17:01:04Z</time>
<desc>lat.=55.757755, lon.=26.039589, Alt.=161.982544m. Speed=3.852000m/h.</desc>
<speed>1.070000</speed>
</trkpt>
<trkpt lat="55.757771" lon="26.039604">
<ele>161.873169</ele>
<time>2010-07-17T17:01:05Z</time>
<desc>lat.=55.757771, lon.=26.039604, Alt.=161.873169m. Speed=6.228000m/h.</desc>
<speed>1.730000</speed>
</trkpt>
<trkpt lat="55.757797" lon="26.039623">
<ele>161.798950</ele>
<time>2010-07-17T17:01:06Z</time>
<desc>lat.=55.757797, lon.=26.039623, Alt.=161.798950m. Speed=8.784000m/h.</desc>
<speed>2.440000</speed>
</trkpt>
<trkpt lat="55.757824" lon="26.039640">
<ele>161.705200</ele>
<time>2010-07-17T17:01:07Z</time>
<desc>lat.=55.757824, lon.=26.039640, Alt.=161.705200m. Speed=8.280000m/h.</desc>
<speed>2.300000</speed>
</trkpt>
<trkpt lat="55.757862" lon="26.039644">
<ele>161.502075</ele>
<time>2010-07-17T17:01:08Z</time>
<desc>lat.=55.757862, lon.=26.039644, Alt.=161.502075m. Speed=7.992000m/h.</desc>
<speed>2.220000</speed>
</trkpt>
<trkpt lat="55.757877" lon="26.039650">
<ele>161.439575</ele>
<time>2010-07-17T17:01:09Z</time>
<desc>lat.=55.757877, lon.=26.039650, Alt.=161.439575m. Speed=6.732000m/h.</desc>
<speed>1.870000</speed>
</trkpt>
<trkpt lat="55.757889" lon="26.039650">
<ele>161.384888</ele>
<time>2010-07-17T17:01:10Z</time>
<desc>lat.=55.757889, lon.=26.039650, Alt.=161.384888m. Speed=2.268000m/h.</desc>
<speed>0.630000</speed>
</trkpt>
<trkpt lat="55.757885" lon="26.039650">
<ele>161.302856</ele>
<time>2010-07-17T17:01:11Z</time>
<desc>lat.=55.757885, lon.=26.039650, Alt.=161.302856m. Speed=1.224000m/h.</desc>
<speed>0.340000</speed>
</trkpt>
<trkpt lat="55.757889" lon="26.039669">
<ele>161.119263</ele>
<time>2010-07-17T17:01:12Z</time>
<desc>lat.=55.757889, lon.=26.039669, Alt.=161.119263m. Speed=0.756000m/h.</desc>
<speed>0.210000</speed>
</trkpt>
<trkpt lat="55.757893" lon="26.039671">
<ele>161.193481</ele>
<time>2010-07-17T17:01:13Z</time>
<desc>lat.=55.757893, lon.=26.039671, Alt.=161.193481m. Speed=1.008000m/h.</desc>
<speed>0.280000</speed>
</trkpt>
<trkpt lat="55.757900" lon="26.039677">
<ele>161.228638</ele>
<time>2010-07-17T17:01:14Z</time>
<desc>lat.=55.757900, lon.=26.039677, Alt.=161.228638m. Speed=0.900000m/h.</desc>
<speed>0.250000</speed>
</trkpt>
<trkpt lat="55.757908" lon="26.039686">
<ele>161.173950</ele>
<time>2010-07-17T17:01:15Z</time>
<desc>lat.=55.757908, lon.=26.039686, Alt.=161.173950m. Speed=1.116000m/h.</desc>
<speed>0.310000</speed>
</trkpt>
<trkpt lat="55.757912" lon="26.039682">
<ele>161.322388</ele>
<time>2010-07-17T17:01:16Z</time>
<desc>lat.=55.757912, lon.=26.039682, Alt.=161.322388m. Speed=0.792000m/h.</desc>
<speed>0.220000</speed>
</trkpt>
<trkpt lat="55.757923" lon="26.039675">
<ele>161.568481</ele>
<time>2010-07-17T17:01:17Z</time>
<desc>lat.=55.757923, lon.=26.039675, Alt.=161.568481m. Speed=0.324000m/h.</desc>
<speed>0.090000</speed>
</trkpt>
<trkpt lat="55.757931" lon="26.039663">
<ele>161.716919</ele>
<time>2010-07-17T17:01:18Z</time>
<desc>lat.=55.757931, lon.=26.039663, Alt.=161.716919m. Speed=0.144000m/h.</desc>
<speed>0.040000</speed>
</trkpt>
<trkpt lat="55.757942" lon="26.039669">
<ele>162.009888</ele>
<time>2010-07-17T17:01:19Z</time>
<desc>lat.=55.757942, lon.=26.039669, Alt.=162.009888m. Speed=0.252000m/h.</desc>
<speed>0.070000</speed>
</trkpt>
<trkpt lat="55.757942" lon="26.039669">
<ele>162.005981</ele>
<time>2010-07-17T17:01:20Z</time>
<desc>lat.=55.757942, lon.=26.039669, Alt.=162.005981m. Speed=0.324000m/h.</desc>
<speed>0.090000</speed>
</trkpt>
<trkpt lat="55.757946" lon="26.039669">
<ele>161.994263</ele>
<time>2010-07-17T17:01:21Z</time>
<desc>lat.=55.757946, lon.=26.039669, Alt.=161.994263m. Speed=0.180000m/h.</desc>
<speed>0.050000</speed>
</trkpt>
<trkpt lat="55.757946" lon="26.039669">
<ele>161.982544</ele>
<time>2010-07-17T17:01:22Z</time>
<desc>lat.=55.757946, lon.=26.039669, Alt.=161.982544m. Speed=0.288000m/h.</desc>
<speed>0.080000</speed>
</trkpt>
<trkpt lat="55.757946" lon="26.039671">
<ele>161.974731</ele>
<time>2010-07-17T17:01:23Z</time>
<desc>lat.=55.757946, lon.=26.039671, Alt.=161.974731m. Speed=0.324000m/h.</desc>
<speed>0.090000</speed>
</trkpt>
<trkpt lat="55.757946" lon="26.039671">
<ele>161.970825</ele>
<time>2010-07-17T17:01:24Z</time>
<desc>lat.=55.757946, lon.=26.039671, Alt.=161.970825m. Speed=0.648000m/h.</desc>
<speed>0.180000</speed>
</trkpt>
<trkpt lat="55.757946" lon="26.039671">
<ele>161.970825</ele>
<time>2010-07-17T17:01:25Z</time>
<desc>lat.=55.757946, lon.=26.039671, Alt.=161.970825m. Speed=0.792000m/h.</desc>
<speed>0.220000</speed>
</trkpt>
<trkpt lat="55.757950" lon="26.039671">
<ele>161.978638</ele>
<time>2010-07-17T17:01:26Z</time>
<desc>lat.=55.757950, lon.=26.039671, Alt.=161.978638m. Speed=1.080000m/h.</desc>
<speed>0.300000</speed>
</trkpt>
<trkpt lat="55.757957" lon="26.039677">
<ele>161.982544</ele>
<time>2010-07-17T17:01:27Z</time>
<desc>lat.=55.757957, lon.=26.039677, Alt.=161.982544m. Speed=1.224000m/h.</desc>
<speed>0.340000</speed>
</trkpt>
<trkpt lat="55.757954" lon="26.039694">
<ele>161.896606</ele>
<time>2010-07-17T17:01:28Z</time>
<desc>lat.=55.757954, lon.=26.039694, Alt.=161.896606m. Speed=0.792000m/h.</desc>
<speed>0.220000</speed>
</trkpt>
<trkpt lat="55.757957" lon="26.039694">
<ele>161.857544</ele>
<time>2010-07-17T17:01:29Z</time>
<desc>lat.=55.757957, lon.=26.039694, Alt.=161.857544m. Speed=0.900000m/h.</desc>
<speed>0.250000</speed>
</trkpt>
<trkpt lat="55.757969" lon="26.039696">
<ele>161.806763</ele>
<time>2010-07-17T17:01:30Z</time>
<desc>lat.=55.757969, lon.=26.039696, Alt.=161.806763m. Speed=1.692000m/h.</desc>
<speed>0.470000</speed>
</trkpt>
<trkpt lat="55.757969" lon="26.039694">
<ele>161.826294</ele>
<time>2010-07-17T17:01:31Z</time>
<desc>lat.=55.757969, lon.=26.039694, Alt.=161.826294m. Speed=1.188000m/h.</desc>
<speed>0.330000</speed>
</trkpt>
<trkpt lat="55.757980" lon="26.039719">
<ele>162.380981</ele>
<time>2010-07-17T17:01:32Z</time>
<desc>lat.=55.757980, lon.=26.039719, Alt.=162.380981m. Speed=2.268000m/h.</desc>
<speed>0.630000</speed>
</trkpt>
<trkpt lat="55.757984" lon="26.039732">
<ele>162.427856</ele>
<time>2010-07-17T17:01:33Z</time>
<desc>lat.=55.757984, lon.=26.039732, Alt.=162.427856m. Speed=2.376000m/h.</desc>
<speed>0.660000</speed>
</trkpt>
<trkpt lat="55.757992" lon="26.039743">
<ele>162.685669</ele>
<time>2010-07-17T17:01:34Z</time>
<desc>lat.=55.757992, lon.=26.039743, Alt.=162.685669m. Speed=3.600000m/h.</desc>
<speed>1.000000</speed>
</trkpt>
<trkpt lat="55.757999" lon="26.039749">
<ele>162.720825</ele>
<time>2010-07-17T17:01:35Z</time>
<desc>lat.=55.757999, lon.=26.039749, Alt.=162.720825m. Speed=3.888000m/h.</desc>
<speed>1.080000</speed>
</trkpt>
<trkpt lat="55.758049" lon="26.039759">
<ele>162.920044</ele>
<time>2010-07-17T17:01:36Z</time>
<desc>lat.=55.758049, lon.=26.039759, Alt.=162.920044m. Speed=5.400000m/h.</desc>
<speed>1.500000</speed>
</trkpt>
<trkpt lat="55.758064" lon="26.039764">
<ele>162.947388</ele>
<time>2010-07-17T17:01:37Z</time>
<desc>lat.=55.758064, lon.=26.039764, Alt.=162.947388m. Speed=3.528000m/h.</desc>
<speed>0.980000</speed>
</trkpt>
<trkpt lat="55.758076" lon="26.039768">
<ele>163.025513</ele>
<time>2010-07-17T17:01:38Z</time>
<desc>lat.=55.758076, lon.=26.039768, Alt.=163.025513m. Speed=4.032000m/h.</desc>
<speed>1.120000</speed>
</trkpt>
<trkpt lat="55.758091" lon="26.039770">
<ele>163.103638</ele>
<time>2010-07-17T17:01:39Z</time>
<desc>lat.=55.758091, lon.=26.039770, Alt.=163.103638m. Speed=5.292000m/h.</desc>
<speed>1.470000</speed>
</trkpt>
<trkpt lat="55.758110" lon="26.039764">
<ele>162.994263</ele>
<time>2010-07-17T17:01:40Z</time>
<desc>lat.=55.758110, lon.=26.039764, Alt.=162.994263m. Speed=6.120000m/h.</desc>
<speed>1.700000</speed>
</trkpt>
<trkpt lat="55.758125" lon="26.039757">
<ele>162.943481</ele>
<time>2010-07-17T17:01:41Z</time>
<desc>lat.=55.758125, lon.=26.039757, Alt.=162.943481m. Speed=4.716000m/h.</desc>
<speed>1.310000</speed>
</trkpt>
<trkpt lat="55.758144" lon="26.039747">
<ele>162.752075</ele>
<time>2010-07-17T17:01:42Z</time>
<desc>lat.=55.758144, lon.=26.039747, Alt.=162.752075m. Speed=4.932000m/h.</desc>
<speed>1.370000</speed>
</trkpt>
<trkpt lat="55.758190" lon="26.039743">
<ele>162.396606</ele>
<time>2010-07-17T17:01:43Z</time>
<desc>lat.=55.758190, lon.=26.039743, Alt.=162.396606m. Speed=7.056000m/h.</desc>
<speed>1.960000</speed>
</trkpt>
<trkpt lat="55.758217" lon="26.039742">
<ele>162.170044</ele>
<time>2010-07-17T17:01:44Z</time>
<desc>lat.=55.758217, lon.=26.039742, Alt.=162.170044m. Speed=7.704000m/h.</desc>
<speed>2.140000</speed>
</trkpt>
<trkpt lat="55.758251" lon="26.039724">
<ele>161.732544</ele>
<time>2010-07-17T17:01:45Z</time>
<desc>lat.=55.758251, lon.=26.039724, Alt.=161.732544m. Speed=8.064000m/h.</desc>
<speed>2.240000</speed>
</trkpt>
<trkpt lat="55.758266" lon="26.039722">
<ele>161.482544</ele>
<time>2010-07-17T17:01:46Z</time>
<desc>lat.=55.758266, lon.=26.039722, Alt.=161.482544m. Speed=4.680000m/h.</desc>
<speed>1.300000</speed>
</trkpt>
<trkpt lat="55.758289" lon="26.039722">
<ele>161.248169</ele>
<time>2010-07-17T17:01:47Z</time>
<desc>lat.=55.758289, lon.=26.039722, Alt.=161.248169m. Speed=5.796000m/h.</desc>
<speed>1.610000</speed>
</trkpt>
<trkpt lat="55.758305" lon="26.039734">
<ele>161.056763</ele>
<time>2010-07-17T17:01:48Z</time>
<desc>lat.=55.758305, lon.=26.039734, Alt.=161.056763m. Speed=4.932000m/h.</desc>
<speed>1.370000</speed>
</trkpt>
<trkpt lat="55.758324" lon="26.039745">
<ele>160.759888</ele>
<time>2010-07-17T17:01:49Z</time>
<desc>lat.=55.758324, lon.=26.039745, Alt.=160.759888m. Speed=4.896000m/h.</desc>
<speed>1.360000</speed>
</trkpt>
<trkpt lat="55.758347" lon="26.039757">
<ele>160.556763</ele>
<time>2010-07-17T17:01:50Z</time>
<desc>lat.=55.758347, lon.=26.039757, Alt.=160.556763m. Speed=5.652000m/h.</desc>
<speed>1.570000</speed>
</trkpt>
<trkpt lat="55.758377" lon="26.039761">
<ele>160.322388</ele>
<time>2010-07-17T17:01:51Z</time>
<desc>lat.=55.758377, lon.=26.039761, Alt.=160.322388m. Speed=7.056000m/h.</desc>
<speed>1.960000</speed>
</trkpt>
<trkpt lat="55.758427" lon="26.039761">
<ele>160.170044</ele>
<time>2010-07-17T17:01:52Z</time>
<desc>lat.=55.758427, lon.=26.039761, Alt.=160.170044m. Speed=9.540000m/h.</desc>
<speed>2.650000</speed>
</trkpt>
<trkpt lat="55.758484" lon="26.039770">
<ele>160.005981</ele>
<time>2010-07-17T17:01:53Z</time>
<desc>lat.=55.758484, lon.=26.039770, Alt.=160.005981m. Speed=7.200000m/h.</desc>
<speed>2.000000</speed>
</trkpt>
<trkpt lat="55.758511" lon="26.039770">
<ele>159.728638</ele>
<time>2010-07-17T17:01:54Z</time>
<desc>lat.=55.758511, lon.=26.039770, Alt.=159.728638m. Speed=6.804000m/h.</desc>
<speed>1.890000</speed>
</trkpt>
<trkpt lat="55.758556" lon="26.039757">
<ele>159.580200</ele>
<time>2010-07-17T17:01:55Z</time>
<desc>lat.=55.758556, lon.=26.039757, Alt.=159.580200m. Speed=8.028000m/h.</desc>
<speed>2.230000</speed>
</trkpt>
<trkpt lat="55.758602" lon="26.039766">
<ele>160.275513</ele>
<time>2010-07-17T17:01:56Z</time>
<desc>lat.=55.758602, lon.=26.039766, Alt.=160.275513m. Speed=7.668000m/h.</desc>
<speed>2.130000</speed>
</trkpt>
<trkpt lat="55.758633" lon="26.039764">
<ele>160.025513</ele>
<time>2010-07-17T17:01:57Z</time>
<desc>lat.=55.758633, lon.=26.039764, Alt.=160.025513m. Speed=8.352000m/h.</desc>
<speed>2.320000</speed>
</trkpt>
<trkpt lat="55.758686" lon="26.039770">
<ele>160.638794</ele>
<time>2010-07-17T17:01:58Z</time>
<desc>lat.=55.758686, lon.=26.039770, Alt.=160.638794m. Speed=8.568000m/h.</desc>
<speed>2.380000</speed>
</trkpt>
<trkpt lat="55.758728" lon="26.039776">
<ele>161.529419</ele>
<time>2010-07-17T17:01:59Z</time>
<desc>lat.=55.758728, lon.=26.039776, Alt.=161.529419m. Speed=8.748000m/h.</desc>
<speed>2.430000</speed>
</trkpt>
<trkpt lat="55.758762" lon="26.039776">
<ele>162.396606</ele>
<time>2010-07-17T17:02:00Z</time>
<desc>lat.=55.758762, lon.=26.039776, Alt.=162.396606m. Speed=7.632000m/h.</desc>
<speed>2.120000</speed>
</trkpt>
<trkpt lat="55.758774" lon="26.039791">
<ele>161.982544</ele>
<time>2010-07-17T17:02:01Z</time>
<desc>lat.=55.758774, lon.=26.039791, Alt.=161.982544m. Speed=3.672000m/h.</desc>
<speed>1.020000</speed>
</trkpt>
<trkpt lat="55.758793" lon="26.039806">
<ele>162.119263</ele>
<time>2010-07-17T17:02:02Z</time>
<desc>lat.=55.758793, lon.=26.039806, Alt.=162.119263m. Speed=5.652000m/h.</desc>
<speed>1.570000</speed>
</trkpt>
<trkpt lat="55.758812" lon="26.039825">
<ele>162.400513</ele>
<time>2010-07-17T17:02:03Z</time>
<desc>lat.=55.758812, lon.=26.039825, Alt.=162.400513m. Speed=7.740000m/h.</desc>
<speed>2.150000</speed>
</trkpt>
<trkpt lat="55.758831" lon="26.039852">
<ele>162.494263</ele>
<time>2010-07-17T17:02:04Z</time>
<desc>lat.=55.758831, lon.=26.039852, Alt.=162.494263m. Speed=7.164000m/h.</desc>
<speed>1.990000</speed>
</trkpt>
<trkpt lat="55.758862" lon="26.039871">
<ele>162.177856</ele>
<time>2010-07-17T17:02:05Z</time>
<desc>lat.=55.758862, lon.=26.039871, Alt.=162.177856m. Speed=7.128000m/h.</desc>
<speed>1.980000</speed>
</trkpt>
<trkpt lat="55.758907" lon="26.039898">
<ele>161.713013</ele>
<time>2010-07-17T17:02:06Z</time>
<desc>lat.=55.758907, lon.=26.039898, Alt.=161.713013m. Speed=8.928000m/h.</desc>
<speed>2.480000</speed>
</trkpt>
<trkpt lat="55.758934" lon="26.039923">
<ele>161.966919</ele>
<time>2010-07-17T17:02:07Z</time>
<desc>lat.=55.758934, lon.=26.039923, Alt.=161.966919m. Speed=7.056000m/h.</desc>
<speed>1.960000</speed>
</trkpt>
<trkpt lat="55.758968" lon="26.039944">
<ele>162.693481</ele>
<time>2010-07-17T17:02:08Z</time>
<desc>lat.=55.758968, lon.=26.039944, Alt.=162.693481m. Speed=6.408000m/h.</desc>
<speed>1.780000</speed>
</trkpt>
<trkpt lat="55.758999" lon="26.039972">
<ele>163.392700</ele>
<time>2010-07-17T17:02:09Z</time>
<desc>lat.=55.758999, lon.=26.039972, Alt.=163.392700m. Speed=8.640000m/h.</desc>
<speed>2.400000</speed>
</trkpt>
<trkpt lat="55.759026" lon="26.039999">
<ele>163.931763</ele>
<time>2010-07-17T17:02:10Z</time>
<desc>lat.=55.759026, lon.=26.039999, Alt.=163.931763m. Speed=8.640000m/h.</desc>
<speed>2.400000</speed>
</trkpt>
<trkpt lat="55.759045" lon="26.040018">
<ele>164.318481</ele>
<time>2010-07-17T17:02:11Z</time>
<desc>lat.=55.759045, lon.=26.040018, Alt.=164.318481m. Speed=7.992000m/h.</desc>
<speed>2.220000</speed>
</trkpt>
<trkpt lat="55.759068" lon="26.040037">
<ele>164.978638</ele>
<time>2010-07-17T17:02:12Z</time>
<desc>lat.=55.759068, lon.=26.040037, Alt.=164.978638m. Speed=8.316000m/h.</desc>
<speed>2.310000</speed>
</trkpt>
<trkpt lat="55.759090" lon="26.040060">
<ele>165.459106</ele>
<time>2010-07-17T17:02:13Z</time>
<desc>lat.=55.759090, lon.=26.040060, Alt.=165.459106m. Speed=6.120000m/h.</desc>
<speed>1.700000</speed>
</trkpt>
<trkpt lat="55.759132" lon="26.040068">
<ele>166.947388</ele>
<time>2010-07-17T17:02:14Z</time>
<desc>lat.=55.759132, lon.=26.040068, Alt.=166.947388m. Speed=7.740000m/h.</desc>
<speed>2.150000</speed>
</trkpt>
<trkpt lat="55.759163" lon="26.040073">
<ele>167.334106</ele>
<time>2010-07-17T17:02:15Z</time>
<desc>lat.=55.759163, lon.=26.040073, Alt.=167.334106m. Speed=7.308000m/h.</desc>
<speed>2.030000</speed>
</trkpt>
<trkpt lat="55.759190" lon="26.040073">
<ele>167.353638</ele>
<time>2010-07-17T17:02:16Z</time>
<desc>lat.=55.759190, lon.=26.040073, Alt.=167.353638m. Speed=6.192000m/h.</desc>
<speed>1.720000</speed>
</trkpt>
<trkpt lat="55.759220" lon="26.040071">
<ele>168.111450</ele>
<time>2010-07-17T17:02:17Z</time>
<desc>lat.=55.759220, lon.=26.040071, Alt.=168.111450m. Speed=7.236000m/h.</desc>
<speed>2.010000</speed>
</trkpt>
<trkpt lat="55.759247" lon="26.040054">
<ele>168.900513</ele>
<time>2010-07-17T17:02:18Z</time>
<desc>lat.=55.759247, lon.=26.040054, Alt.=168.900513m. Speed=7.452000m/h.</desc>
<speed>2.070000</speed>
</trkpt>
<trkpt lat="55.759270" lon="26.040045">
<ele>169.115356</ele>
<time>2010-07-17T17:02:19Z</time>
<desc>lat.=55.759270, lon.=26.040045, Alt.=169.115356m. Speed=6.588000m/h.</desc>
<speed>1.830000</speed>
</trkpt>
<trkpt lat="55.759296" lon="26.040033">
<ele>169.455200</ele>
<time>2010-07-17T17:02:20Z</time>
<desc>lat.=55.759296, lon.=26.040033, Alt.=169.455200m. Speed=4.968000m/h.</desc>
<speed>1.380000</speed>
</trkpt>
<trkpt lat="55.759315" lon="26.040026">
<ele>169.650513</ele>
<time>2010-07-17T17:02:21Z</time>
<desc>lat.=55.759315, lon.=26.040026, Alt.=169.650513m. Speed=5.292000m/h.</desc>
<speed>1.470000</speed>
</trkpt>
<trkpt lat="55.759338" lon="26.040007">
<ele>170.283325</ele>
<time>2010-07-17T17:02:22Z</time>
<desc>lat.=55.759338, lon.=26.040007, Alt.=170.283325m. Speed=2.556000m/h.</desc>
<speed>0.710000</speed>
</trkpt>
<trkpt lat="55.759354" lon="26.040001">
<ele>170.767700</ele>
<time>2010-07-17T17:02:23Z</time>
<desc>lat.=55.759354, lon.=26.040001, Alt.=170.767700m. Speed=2.880000m/h.</desc>
<speed>0.800000</speed>
</trkpt>
<trkpt lat="55.759365" lon="26.039978">
<ele>170.509888</ele>
<time>2010-07-17T17:02:24Z</time>
<desc>lat.=55.759365, lon.=26.039978, Alt.=170.509888m. Speed=4.176000m/h.</desc>
<speed>1.160000</speed>
</trkpt>
<trkpt lat="55.759377" lon="26.039961">
<ele>170.361450</ele>
<time>2010-07-17T17:02:25Z</time>
<desc>lat.=55.759377, lon.=26.039961, Alt.=170.361450m. Speed=4.464000m/h.</desc>
<speed>1.240000</speed>
</trkpt>
<trkpt lat="55.759388" lon="26.039936">
<ele>170.314575</ele>
<time>2010-07-17T17:02:26Z</time>
<desc>lat.=55.759388, lon.=26.039936, Alt.=170.314575m. Speed=5.184000m/h.</desc>
<speed>1.440000</speed>
</trkpt>
<trkpt lat="55.759399" lon="26.039896">
<ele>170.005981</ele>
<time>2010-07-17T17:02:27Z</time>
<desc>lat.=55.759399, lon.=26.039896, Alt.=170.005981m. Speed=6.552000m/h.</desc>
<speed>1.820000</speed>
</trkpt>
<trkpt lat="55.759422" lon="26.039846">
<ele>169.994263</ele>
<time>2010-07-17T17:02:28Z</time>
<desc>lat.=55.759422, lon.=26.039846, Alt.=169.994263m. Speed=11.016000m/h.</desc>
<speed>3.060000</speed>
</trkpt>
<trkpt lat="55.759445" lon="26.039803">
<ele>169.478638</ele>
<time>2010-07-17T17:02:29Z</time>
<desc>lat.=55.759445, lon.=26.039803, Alt.=169.478638m. Speed=10.368000m/h.</desc>
<speed>2.880000</speed>
</trkpt>
<trkpt lat="55.759476" lon="26.039761">
<ele>168.666138</ele>
<time>2010-07-17T17:02:30Z</time>
<desc>lat.=55.759476, lon.=26.039761, Alt.=168.666138m. Speed=10.332000m/h.</desc>
<speed>2.870000</speed>
</trkpt>
<trkpt lat="55.759499" lon="26.039721">
<ele>168.173950</ele>
<time>2010-07-17T17:02:31Z</time>
<desc>lat.=55.759499, lon.=26.039721, Alt.=168.173950m. Speed=6.048000m/h.</desc>
<speed>1.680000</speed>
</trkpt>
<trkpt lat="55.759529" lon="26.039673">
<ele>167.716919</ele>
<time>2010-07-17T17:02:32Z</time>
<desc>lat.=55.759529, lon.=26.039673, Alt.=167.716919m. Speed=9.288000m/h.</desc>
<speed>2.580000</speed>
</trkpt>
<trkpt lat="55.759567" lon="26.039646">
<ele>166.509888</ele>
<time>2010-07-17T17:02:33Z</time>
<desc>lat.=55.759567, lon.=26.039646, Alt.=166.509888m. Speed=11.304000m/h.</desc>
<speed>3.140000</speed>
</trkpt>
<trkpt lat="55.759605" lon="26.039633">
<ele>165.994263</ele>
<time>2010-07-17T17:02:34Z</time>
<desc>lat.=55.759605, lon.=26.039633, Alt.=165.994263m. Speed=12.276000m/h.</desc>
<speed>3.410000</speed>
</trkpt>
<trkpt lat="55.759644" lon="26.039627">
<ele>165.838013</ele>
<time>2010-07-17T17:02:35Z</time>
<desc>lat.=55.759644, lon.=26.039627, Alt.=165.838013m. Speed=10.440000m/h.</desc>
<speed>2.900000</speed>
</trkpt>
<trkpt lat="55.759682" lon="26.039618">
<ele>164.974731</ele>
<time>2010-07-17T17:02:36Z</time>
<desc>lat.=55.759682, lon.=26.039618, Alt.=164.974731m. Speed=8.244000m/h.</desc>
<speed>2.290000</speed>
</trkpt>
<trkpt lat="55.759720" lon="26.039619">
<ele>164.361450</ele>
<time>2010-07-17T17:02:37Z</time>
<desc>lat.=55.759720, lon.=26.039619, Alt.=164.361450m. Speed=8.568000m/h.</desc>
<speed>2.380000</speed>
</trkpt>
<trkpt lat="55.759754" lon="26.039612">
<ele>164.443481</ele>
<time>2010-07-17T17:02:38Z</time>
<desc>lat.=55.759754, lon.=26.039612, Alt.=164.443481m. Speed=7.452000m/h.</desc>
<speed>2.070000</speed>
</trkpt>
<trkpt lat="55.759792" lon="26.039625">
<ele>162.443481</ele>
<time>2010-07-17T17:02:39Z</time>
<desc>lat.=55.759792, lon.=26.039625, Alt.=162.443481m. Speed=8.100000m/h.</desc>
<speed>2.250000</speed>
</trkpt>
<trkpt lat="55.759850" lon="26.039642">
<ele>160.412231</ele>
<time>2010-07-17T17:02:40Z</time>
<desc>lat.=55.759850, lon.=26.039642, Alt.=160.412231m. Speed=7.164000m/h.</desc>
<speed>1.990000</speed>
</trkpt>
<trkpt lat="55.759884" lon="26.039661">
<ele>158.873169</ele>
<time>2010-07-17T17:02:41Z</time>
<desc>lat.=55.759884, lon.=26.039661, Alt.=158.873169m. Speed=9.000000m/h.</desc>
<speed>2.500000</speed>
</trkpt>
<trkpt lat="55.759918" lon="26.039671">
<ele>158.744263</ele>
<time>2010-07-17T17:02:42Z</time>
<desc>lat.=55.759918, lon.=26.039671, Alt.=158.744263m. Speed=7.884000m/h.</desc>
<speed>2.190000</speed>
</trkpt>
<trkpt lat="55.759945" lon="26.039700">
<ele>158.216919</ele>
<time>2010-07-17T17:02:43Z</time>
<desc>lat.=55.759945, lon.=26.039700, Alt.=158.216919m. Speed=4.860000m/h.</desc>
<speed>1.350000</speed>
</trkpt>
<trkpt lat="55.759968" lon="26.039705">
<ele>158.830200</ele>
<time>2010-07-17T17:02:44Z</time>
<desc>lat.=55.759968, lon.=26.039705, Alt.=158.830200m. Speed=2.088000m/h.</desc>
<speed>0.580000</speed>
</trkpt>
<trkpt lat="55.759979" lon="26.039707">
<ele>158.955200</ele>
<time>2010-07-17T17:02:45Z</time>
<desc>lat.=55.759979, lon.=26.039707, Alt.=158.955200m. Speed=1.476000m/h.</desc>
<speed>0.410000</speed>
</trkpt>
<trkpt lat="55.759995" lon="26.039705">
<ele>158.947388</ele>
<time>2010-07-17T17:02:46Z</time>
<desc>lat.=55.759995, lon.=26.039705, Alt.=158.947388m. Speed=0.972000m/h.</desc>
<speed>0.270000</speed>
</trkpt>
<trkpt lat="55.759998" lon="26.039705">
<ele>159.353638</ele>
<time>2010-07-17T17:02:47Z</time>
<desc>lat.=55.759998, lon.=26.039705, Alt.=159.353638m. Speed=0.468000m/h.</desc>
<speed>0.130000</speed>
</trkpt>
<trkpt lat="55.759998" lon="26.039696">
<ele>159.154419</ele>
<time>2010-07-17T17:02:48Z</time>
<desc>lat.=55.759998, lon.=26.039696, Alt.=159.154419m. Speed=0.036000m/h.</desc>
<speed>0.010000</speed>
</trkpt>
<trkpt lat="55.759998" lon="26.039690">
<ele>159.091919</ele>
<time>2010-07-17T17:02:49Z</time>
<desc>lat.=55.759998, lon.=26.039690, Alt.=159.091919m. Speed=0.252000m/h.</desc>
<speed>0.070000</speed>
</trkpt>
<trkpt lat="55.759998" lon="26.039690">
<ele>158.955200</ele>
<time>2010-07-17T17:02:50Z</time>
<desc>lat.=55.759998, lon.=26.039690, Alt.=158.955200m. Speed=0.252000m/h.</desc>
<speed>0.070000</speed>
</trkpt>
<trkpt lat="55.759998" lon="26.039690">
<ele>158.877075</ele>
<time>2010-07-17T17:02:51Z</time>
<desc>lat.=55.759998, lon.=26.039690, Alt.=158.877075m. Speed=0.216000m/h.</desc>
<speed>0.060000</speed>
</trkpt>
<trkpt lat="55.759998" lon="26.039690">
<ele>158.826294</ele>
<time>2010-07-17T17:02:52Z</time>
<desc>lat.=55.759998, lon.=26.039690, Alt.=158.826294m. Speed=0.072000m/h.</desc>
<speed>0.020000</speed>
</trkpt>
<trkpt lat="55.759998" lon="26.039690">
<ele>158.791138</ele>
<time>2010-07-17T17:02:53Z</time>
<desc>lat.=55.759998, lon.=26.039690, Alt.=158.791138m. Speed=0.324000m/h.</desc>
<speed>0.090000</speed>
</trkpt>
<trkpt lat="55.759998" lon="26.039688">
<ele>158.767700</ele>
<time>2010-07-17T17:02:54Z</time>
<desc>lat.=55.759998, lon.=26.039688, Alt.=158.767700m. Speed=0.216000m/h.</desc>
<speed>0.060000</speed>
</trkpt>
<trkpt lat="55.759998" lon="26.039690">
<ele>158.759888</ele>
<time>2010-07-17T17:02:55Z</time>
<desc>lat.=55.759998, lon.=26.039690, Alt.=158.759888m. Speed=0.324000m/h.</desc>
<speed>0.090000</speed>
</trkpt>
<trkpt lat="55.759998" lon="26.039690">
<ele>158.736450</ele>
<time>2010-07-17T17:02:56Z</time>
<desc>lat.=55.759998, lon.=26.039690, Alt.=158.736450m. Speed=0.072000m/h.</desc>
<speed>0.020000</speed>
</trkpt>
<trkpt lat="55.759998" lon="26.039690">
<ele>158.724731</ele>
<time>2010-07-17T17:02:57Z</time>
<desc>lat.=55.759998, lon.=26.039690, Alt.=158.724731m. Speed=0.756000m/h.</desc>
<speed>0.210000</speed>
</trkpt>
<trkpt lat="55.759998" lon="26.039688">
<ele>158.732544</ele>
<time>2010-07-17T17:02:58Z</time>
<desc>lat.=55.759998, lon.=26.039688, Alt.=158.732544m. Speed=0.180000m/h.</desc>
<speed>0.050000</speed>
</trkpt>
<trkpt lat="55.759998" lon="26.039686">
<ele>158.740356</ele>
<time>2010-07-17T17:02:59Z</time>
<desc>lat.=55.759998, lon.=26.039686, Alt.=158.740356m. Speed=0.144000m/h.</desc>
<speed>0.040000</speed>
</trkpt>
<trkpt lat="55.759998" lon="26.039686">
<ele>158.748169</ele>
<time>2010-07-17T17:03:00Z</time>
<desc>lat.=55.759998, lon.=26.039686, Alt.=158.748169m. Speed=0.216000m/h.</desc>
<speed>0.060000</speed>
</trkpt>
<trkpt lat="55.759998" lon="26.039684">
<ele>158.752075</ele>
<time>2010-07-17T17:03:01Z</time>
<desc>lat.=55.759998, lon.=26.039684, Alt.=158.752075m. Speed=0.360000m/h.</desc>
<speed>0.100000</speed>
</trkpt>
<trkpt lat="55.759998" lon="26.039684">
<ele>158.752075</ele>
<time>2010-07-17T17:03:02Z</time>
<desc>lat.=55.759998, lon.=26.039684, Alt.=158.752075m. Speed=0.252000m/h.</desc>
<speed>0.070000</speed>
</trkpt>
<trkpt lat="55.759998" lon="26.039684">
<ele>158.763794</ele>
<time>2010-07-17T17:03:03Z</time>
<desc>lat.=55.759998, lon.=26.039684, Alt.=158.763794m. Speed=0.252000m/h.</desc>
<speed>0.070000</speed>
</trkpt>
<trkpt lat="55.759998" lon="26.039686">
<ele>158.779419</ele>
<time>2010-07-17T17:03:04Z</time>
<desc>lat.=55.759998, lon.=26.039686, Alt.=158.779419m. Speed=0.504000m/h.</desc>
<speed>0.140000</speed>
</trkpt>
<trkpt lat="55.759995" lon="26.039686">
<ele>158.783325</ele>
<time>2010-07-17T17:03:05Z</time>
<desc>lat.=55.759995, lon.=26.039686, Alt.=158.783325m. Speed=1.116000m/h.</desc>
<speed>0.310000</speed>
</trkpt>
<trkpt lat="55.759987" lon="26.039692">
<ele>158.693481</ele>
<time>2010-07-17T17:03:06Z</time>
<desc>lat.=55.759987, lon.=26.039692, Alt.=158.693481m. Speed=0.648000m/h.</desc>
<speed>0.180000</speed>
</trkpt>
<trkpt lat="55.759983" lon="26.039698">
<ele>158.634888</ele>
<time>2010-07-17T17:03:07Z</time>
<desc>lat.=55.759983, lon.=26.039698, Alt.=158.634888m. Speed=0.828000m/h.</desc>
<speed>0.230000</speed>
</trkpt>
<trkpt lat="55.759968" lon="26.039709">
<ele>158.646606</ele>
<time>2010-07-17T17:03:08Z</time>
<desc>lat.=55.759968, lon.=26.039709, Alt.=158.646606m. Speed=1.008000m/h.</desc>
<speed>0.280000</speed>
</trkpt>
<trkpt lat="55.759956" lon="26.039719">
<ele>158.939575</ele>
<time>2010-07-17T17:03:09Z</time>
<desc>lat.=55.759956, lon.=26.039719, Alt.=158.939575m. Speed=0.936000m/h.</desc>
<speed>0.260000</speed>
</trkpt>
<trkpt lat="55.759953" lon="26.039722">
<ele>158.951294</ele>
<time>2010-07-17T17:03:10Z</time>
<desc>lat.=55.759953, lon.=26.039722, Alt.=158.951294m. Speed=1.296000m/h.</desc>
<speed>0.360000</speed>
</trkpt>
<trkpt lat="55.759956" lon="26.039732">
<ele>159.263794</ele>
<time>2010-07-17T17:03:11Z</time>
<desc>lat.=55.759956, lon.=26.039732, Alt.=159.263794m. Speed=1.260000m/h.</desc>
<speed>0.350000</speed>
</trkpt>
<trkpt lat="55.759956" lon="26.039736">
<ele>159.318481</ele>
<time>2010-07-17T17:03:12Z</time>
<desc>lat.=55.759956, lon.=26.039736, Alt.=159.318481m. Speed=1.296000m/h.</desc>
<speed>0.360000</speed>
</trkpt>
<trkpt lat="55.759956" lon="26.039742">
<ele>159.588013</ele>
<time>2010-07-17T17:03:13Z</time>
<desc>lat.=55.759956, lon.=26.039742, Alt.=159.588013m. Speed=1.404000m/h.</desc>
<speed>0.390000</speed>
</trkpt>
<trkpt lat="55.759960" lon="26.039753">
<ele>160.033325</ele>
<time>2010-07-17T17:03:14Z</time>
<desc>lat.=55.759960, lon.=26.039753, Alt.=160.033325m. Speed=1.548000m/h.</desc>
<speed>0.430000</speed>
</trkpt>
<trkpt lat="55.759968" lon="26.039766">
<ele>160.771606</ele>
<time>2010-07-17T17:03:15Z</time>
<desc>lat.=55.759968, lon.=26.039766, Alt.=160.771606m. Speed=1.800000m/h.</desc>
<speed>0.500000</speed>
</trkpt>
<trkpt lat="55.759972" lon="26.039774">
<ele>161.228638</ele>
<time>2010-07-17T17:03:16Z</time>
<desc>lat.=55.759972, lon.=26.039774, Alt.=161.228638m. Speed=1.836000m/h.</desc>
<speed>0.510000</speed>
</trkpt>
<trkpt lat="55.759972" lon="26.039780">
<ele>161.365356</ele>
<time>2010-07-17T17:03:17Z</time>
<desc>lat.=55.759972, lon.=26.039780, Alt.=161.365356m. Speed=1.908000m/h.</desc>
<speed>0.530000</speed>
</trkpt>
<trkpt lat="55.759975" lon="26.039785">
<ele>161.537231</ele>
<time>2010-07-17T17:03:18Z</time>
<desc>lat.=55.759975, lon.=26.039785, Alt.=161.537231m. Speed=1.656000m/h.</desc>
<speed>0.460000</speed>
</trkpt>
<trkpt lat="55.759979" lon="26.039785">
<ele>162.029419</ele>
<time>2010-07-17T17:03:19Z</time>
<desc>lat.=55.759979, lon.=26.039785, Alt.=162.029419m. Speed=1.512000m/h.</desc>
<speed>0.420000</speed>
</trkpt>
<trkpt lat="55.759979" lon="26.039795">
<ele>162.377075</ele>
<time>2010-07-17T17:03:20Z</time>
<desc>lat.=55.759979, lon.=26.039795, Alt.=162.377075m. Speed=1.512000m/h.</desc>
<speed>0.420000</speed>
</trkpt>
<trkpt lat="55.759975" lon="26.039816">
<ele>162.490356</ele>
<time>2010-07-17T17:03:21Z</time>
<desc>lat.=55.759975, lon.=26.039816, Alt.=162.490356m. Speed=1.944000m/h.</desc>
<speed>0.540000</speed>
</trkpt>
<trkpt lat="55.759979" lon="26.039820">
<ele>163.345825</ele>
<time>2010-07-17T17:03:22Z</time>
<desc>lat.=55.759979, lon.=26.039820, Alt.=163.345825m. Speed=1.980000m/h.</desc>
<speed>0.550000</speed>
</trkpt>
<trkpt lat="55.759983" lon="26.039822">
<ele>163.525513</ele>
<time>2010-07-17T17:03:23Z</time>
<desc>lat.=55.759983, lon.=26.039822, Alt.=163.525513m. Speed=2.052000m/h.</desc>
<speed>0.570000</speed>
</trkpt>
<trkpt lat="55.759987" lon="26.039833">
<ele>163.650513</ele>
<time>2010-07-17T17:03:24Z</time>
<desc>lat.=55.759987, lon.=26.039833, Alt.=163.650513m. Speed=1.944000m/h.</desc>
<speed>0.540000</speed>
</trkpt>
<trkpt lat="55.759983" lon="26.039841">
<ele>163.834106</ele>
<time>2010-07-17T17:03:25Z</time>
<desc>lat.=55.759983, lon.=26.039841, Alt.=163.834106m. Speed=1.944000m/h.</desc>
<speed>0.540000</speed>
</trkpt>
<trkpt lat="55.759983" lon="26.039860">
<ele>163.861450</ele>
<time>2010-07-17T17:03:26Z</time>
<desc>lat.=55.759983, lon.=26.039860, Alt.=163.861450m. Speed=1.944000m/h.</desc>
<speed>0.540000</speed>
</trkpt>
<trkpt lat="55.759983" lon="26.039877">
<ele>163.916138</ele>
<time>2010-07-17T17:03:27Z</time>
<desc>lat.=55.759983, lon.=26.039877, Alt.=163.916138m. Speed=2.052000m/h.</desc>
<speed>0.570000</speed>
</trkpt>
<trkpt lat="55.759975" lon="26.039906">
<ele>165.295044</ele>
<time>2010-07-17T17:03:28Z</time>
<desc>lat.=55.759975, lon.=26.039906, Alt.=165.295044m. Speed=2.052000m/h.</desc>
<speed>0.570000</speed>
</trkpt>
<trkpt lat="55.759979" lon="26.039923">
<ele>165.322388</ele>
<time>2010-07-17T17:03:29Z</time>
<desc>lat.=55.759979, lon.=26.039923, Alt.=165.322388m. Speed=1.836000m/h.</desc>
<speed>0.510000</speed>
</trkpt>
<trkpt lat="55.759987" lon="26.039938">
<ele>165.357544</ele>
<time>2010-07-17T17:03:30Z</time>
<desc>lat.=55.759987, lon.=26.039938, Alt.=165.357544m. Speed=1.800000m/h.</desc>
<speed>0.500000</speed>
</trkpt>
<trkpt lat="55.759991" lon="26.039951">
<ele>165.380981</ele>
<time>2010-07-17T17:03:31Z</time>
<desc>lat.=55.759991, lon.=26.039951, Alt.=165.380981m. Speed=1.800000m/h.</desc>
<speed>0.500000</speed>
</trkpt>
<trkpt lat="55.759998" lon="26.039972">
<ele>165.357544</ele>
<time>2010-07-17T17:03:32Z</time>
<desc>lat.=55.759998, lon.=26.039972, Alt.=165.357544m. Speed=1.908000m/h.</desc>
<speed>0.530000</speed>
</trkpt>
<trkpt lat="55.760017" lon="26.039986">
<ele>165.666138</ele>
<time>2010-07-17T17:03:33Z</time>
<desc>lat.=55.760017, lon.=26.039986, Alt.=165.666138m. Speed=1.728000m/h.</desc>
<speed>0.480000</speed>
</trkpt>
<trkpt lat="55.760029" lon="26.040009">
<ele>165.880981</ele>
<time>2010-07-17T17:03:34Z</time>
<desc>lat.=55.760029, lon.=26.040009, Alt.=165.880981m. Speed=1.764000m/h.</desc>
<speed>0.490000</speed>
</trkpt>
<trkpt lat="55.760033" lon="26.040030">
<ele>165.935669</ele>
<time>2010-07-17T17:03:35Z</time>
<desc>lat.=55.760033, lon.=26.040030, Alt.=165.935669m. Speed=1.836000m/h.</desc>
<speed>0.510000</speed>
</trkpt>
<trkpt lat="55.760036" lon="26.040043">
<ele>166.021606</ele>
<time>2010-07-17T17:03:36Z</time>
<desc>lat.=55.760036, lon.=26.040043, Alt.=166.021606m. Speed=1.872000m/h.</desc>
<speed>0.520000</speed>
</trkpt>
<trkpt lat="55.760036" lon="26.040047">
<ele>166.111450</ele>
<time>2010-07-17T17:03:37Z</time>
<desc>lat.=55.760036, lon.=26.040047, Alt.=166.111450m. Speed=1.512000m/h.</desc>
<speed>0.420000</speed>
</trkpt>
<trkpt lat="55.760036" lon="26.040077">
<ele>166.045044</ele>
<time>2010-07-17T17:03:38Z</time>
<desc>lat.=55.760036, lon.=26.040077, Alt.=166.045044m. Speed=1.656000m/h.</desc>
<speed>0.460000</speed>
</trkpt>
<trkpt lat="55.760033" lon="26.040102">
<ele>166.021606</ele>
<time>2010-07-17T17:03:39Z</time>
<desc>lat.=55.760033, lon.=26.040102, Alt.=166.021606m. Speed=1.800000m/h.</desc>
<speed>0.500000</speed>
</trkpt>
<trkpt lat="55.760040" lon="26.040146">
<ele>166.052856</ele>
<time>2010-07-17T17:03:40Z</time>
<desc>lat.=55.760040, lon.=26.040146, Alt.=166.052856m. Speed=1.980000m/h.</desc>
<speed>0.550000</speed>
</trkpt>
<trkpt lat="55.760036" lon="26.040171">
<ele>166.127075</ele>
<time>2010-07-17T17:03:41Z</time>
<desc>lat.=55.760036, lon.=26.040171, Alt.=166.127075m. Speed=1.908000m/h.</desc>
<speed>0.530000</speed>
</trkpt>
<trkpt lat="55.760036" lon="26.040192">
<ele>166.259888</ele>
<time>2010-07-17T17:03:42Z</time>
<desc>lat.=55.760036, lon.=26.040192, Alt.=166.259888m. Speed=2.052000m/h.</desc>
<speed>0.570000</speed>
</trkpt>
<trkpt lat="55.760036" lon="26.040216">
<ele>166.302856</ele>
<time>2010-07-17T17:03:43Z</time>
<desc>lat.=55.760036, lon.=26.040216, Alt.=166.302856m. Speed=2.124000m/h.</desc>
<speed>0.590000</speed>
</trkpt>
<trkpt lat="55.760033" lon="26.040232">
<ele>166.373169</ele>
<time>2010-07-17T17:03:44Z</time>
<desc>lat.=55.760033, lon.=26.040232, Alt.=166.373169m. Speed=1.944000m/h.</desc>
<speed>0.540000</speed>
</trkpt>
<trkpt lat="55.760025" lon="26.040279">
<ele>166.330200</ele>
<time>2010-07-17T17:03:45Z</time>
<desc>lat.=55.760025, lon.=26.040279, Alt.=166.330200m. Speed=1.764000m/h.</desc>
<speed>0.490000</speed>
</trkpt>
<trkpt lat="55.760025" lon="26.040293">
<ele>166.365356</ele>
<time>2010-07-17T17:03:46Z</time>
<desc>lat.=55.760025, lon.=26.040293, Alt.=166.365356m. Speed=1.584000m/h.</desc>
<speed>0.440000</speed>
</trkpt>
<trkpt lat="55.760025" lon="26.040314">
<ele>166.552856</ele>
<time>2010-07-17T17:03:47Z</time>
<desc>lat.=55.760025, lon.=26.040314, Alt.=166.552856m. Speed=1.620000m/h.</desc>
<speed>0.450000</speed>
</trkpt>
<trkpt lat="55.760025" lon="26.040323">
<ele>166.701294</ele>
<time>2010-07-17T17:03:48Z</time>
<desc>lat.=55.760025, lon.=26.040323, Alt.=166.701294m. Speed=1.512000m/h.</desc>
<speed>0.420000</speed>
</trkpt>
<trkpt lat="55.760025" lon="26.040329">
<ele>166.779419</ele>
<time>2010-07-17T17:03:49Z</time>
<desc>lat.=55.760025, lon.=26.040329, Alt.=166.779419m. Speed=1.476000m/h.</desc>
<speed>0.410000</speed>
</trkpt>
<trkpt lat="55.760033" lon="26.040339">
<ele>166.970825</ele>
<time>2010-07-17T17:03:50Z</time>
<desc>lat.=55.760033, lon.=26.040339, Alt.=166.970825m. Speed=1.260000m/h.</desc>
<speed>0.350000</speed>
</trkpt>
<trkpt lat="55.760056" lon="26.040354">
<ele>167.240356</ele>
<time>2010-07-17T17:03:51Z</time>
<desc>lat.=55.760056, lon.=26.040354, Alt.=167.240356m. Speed=1.008000m/h.</desc>
<speed>0.280000</speed>
</trkpt>
<trkpt lat="55.760056" lon="26.040363">
<ele>167.248169</ele>
<time>2010-07-17T17:03:52Z</time>
<desc>lat.=55.760056, lon.=26.040363, Alt.=167.248169m. Speed=0.972000m/h.</desc>
<speed>0.270000</speed>
</trkpt>
<trkpt lat="55.760063" lon="26.040379">
<ele>167.341919</ele>
<time>2010-07-17T17:03:53Z</time>
<desc>lat.=55.760063, lon.=26.040379, Alt.=167.341919m. Speed=1.008000m/h.</desc>
<speed>0.280000</speed>
</trkpt>
<trkpt lat="55.760075" lon="26.040388">
<ele>167.420044</ele>
<time>2010-07-17T17:03:54Z</time>
<desc>lat.=55.760075, lon.=26.040388, Alt.=167.420044m. Speed=0.936000m/h.</desc>
<speed>0.260000</speed>
</trkpt>
<trkpt lat="55.760078" lon="26.040392">
<ele>167.486450</ele>
<time>2010-07-17T17:03:55Z</time>
<desc>lat.=55.760078, lon.=26.040392, Alt.=167.486450m. Speed=0.972000m/h.</desc>
<speed>0.270000</speed>
</trkpt>
<trkpt lat="55.760078" lon="26.040396">
<ele>167.548950</ele>
<time>2010-07-17T17:03:56Z</time>
<desc>lat.=55.760078, lon.=26.040396, Alt.=167.548950m. Speed=1.080000m/h.</desc>
<speed>0.300000</speed>
</trkpt>
<trkpt lat="55.760090" lon="26.040411">
<ele>167.529419</ele>
<time>2010-07-17T17:03:57Z</time>
<desc>lat.=55.760090, lon.=26.040411, Alt.=167.529419m. Speed=0.828000m/h.</desc>
<speed>0.230000</speed>
</trkpt>
<trkpt lat="55.760098" lon="26.040415">
<ele>167.271606</ele>
<time>2010-07-17T17:03:58Z</time>
<desc>lat.=55.760098, lon.=26.040415, Alt.=167.271606m. Speed=0.864000m/h.</desc>
<speed>0.240000</speed>
</trkpt>
<trkpt lat="55.760109" lon="26.040407">
<ele>167.380981</ele>
<time>2010-07-17T17:03:59Z</time>
<desc>lat.=55.760109, lon.=26.040407, Alt.=167.380981m. Speed=0.900000m/h.</desc>
<speed>0.250000</speed>
</trkpt>
<trkpt lat="55.760117" lon="26.040400">
<ele>167.529419</ele>
<time>2010-07-17T17:04:00Z</time>
<desc>lat.=55.760117, lon.=26.040400, Alt.=167.529419m. Speed=0.972000m/h.</desc>
<speed>0.270000</speed>
</trkpt>
<trkpt lat="55.760120" lon="26.040400">
<ele>167.588013</ele>
<time>2010-07-17T17:04:01Z</time>
<desc>lat.=55.760120, lon.=26.040400, Alt.=167.588013m. Speed=0.900000m/h.</desc>
<speed>0.250000</speed>
</trkpt>
<trkpt lat="55.760124" lon="26.040401">
<ele>167.650513</ele>
<time>2010-07-17T17:04:02Z</time>
<desc>lat.=55.760124, lon.=26.040401, Alt.=167.650513m. Speed=1.044000m/h.</desc>
<speed>0.290000</speed>
</trkpt>
<trkpt lat="55.760124" lon="26.040401">
<ele>167.709106</ele>
<time>2010-07-17T17:04:03Z</time>
<desc>lat.=55.760124, lon.=26.040401, Alt.=167.709106m. Speed=0.936000m/h.</desc>
<speed>0.260000</speed>
</trkpt>
<trkpt lat="55.760128" lon="26.040400">
<ele>167.763794</ele>
<time>2010-07-17T17:04:04Z</time>
<desc>lat.=55.760128, lon.=26.040400, Alt.=167.763794m. Speed=0.828000m/h.</desc>
<speed>0.230000</speed>
</trkpt>
<trkpt lat="55.760128" lon="26.040400">
<ele>167.818481</ele>
<time>2010-07-17T17:04:05Z</time>
<desc>lat.=55.760128, lon.=26.040400, Alt.=167.818481m. Speed=0.792000m/h.</desc>
<speed>0.220000</speed>
</trkpt>
<trkpt lat="55.760132" lon="26.040398">
<ele>167.869263</ele>
<time>2010-07-17T17:04:06Z</time>
<desc>lat.=55.760132, lon.=26.040398, Alt.=167.869263m. Speed=0.540000m/h.</desc>
<speed>0.150000</speed>
</trkpt>
<trkpt lat="55.760132" lon="26.040396">
<ele>167.920044</ele>
<time>2010-07-17T17:04:07Z</time>
<desc>lat.=55.760132, lon.=26.040396, Alt.=167.920044m. Speed=0.504000m/h.</desc>
<speed>0.140000</speed>
</trkpt>
<trkpt lat="55.760132" lon="26.040394">
<ele>167.970825</ele>
<time>2010-07-17T17:04:08Z</time>
<desc>lat.=55.760132, lon.=26.040394, Alt.=167.970825m. Speed=0.468000m/h.</desc>
<speed>0.130000</speed>
</trkpt>
<trkpt lat="55.760132" lon="26.040392">
<ele>168.021606</ele>
<time>2010-07-17T17:04:09Z</time>
<desc>lat.=55.760132, lon.=26.040392, Alt.=168.021606m. Speed=0.504000m/h.</desc>
<speed>0.140000</speed>
</trkpt>
<trkpt lat="55.760132" lon="26.040390">
<ele>168.076294</ele>
<time>2010-07-17T17:04:10Z</time>
<desc>lat.=55.760132, lon.=26.040390, Alt.=168.076294m. Speed=0.432000m/h.</desc>
<speed>0.120000</speed>
</trkpt>
<trkpt lat="55.760132" lon="26.040388">
<ele>168.130981</ele>
<time>2010-07-17T17:04:11Z</time>
<desc>lat.=55.760132, lon.=26.040388, Alt.=168.130981m. Speed=0.396000m/h.</desc>
<speed>0.110000</speed>
</trkpt>
<trkpt lat="55.760132" lon="26.040386">
<ele>168.189575</ele>
<time>2010-07-17T17:04:12Z</time>
<desc>lat.=55.760132, lon.=26.040386, Alt.=168.189575m. Speed=0.252000m/h.</desc>
<speed>0.070000</speed>
</trkpt>
<trkpt lat="55.760132" lon="26.040386">
<ele>168.248169</ele>
<time>2010-07-17T17:04:13Z</time>
<desc>lat.=55.760132, lon.=26.040386, Alt.=168.248169m. Speed=0.000000m/h.</desc>
<speed>0.000000</speed>
</trkpt>
<trkpt lat="55.760132" lon="26.040386">
<ele>168.306763</ele>
<time>2010-07-17T17:04:14Z</time>
<desc>lat.=55.760132, lon.=26.040386, Alt.=168.306763m. Speed=0.180000m/h.</desc>
<speed>0.050000</speed>
</trkpt>
<trkpt lat="55.760132" lon="26.040386">
<ele>168.369263</ele>
<time>2010-07-17T17:04:15Z</time>
<desc>lat.=55.760132, lon.=26.040386, Alt.=168.369263m. Speed=0.288000m/h.</desc>
<speed>0.080000</speed>
</trkpt>
<trkpt lat="55.760132" lon="26.040388">
<ele>168.427856</ele>
<time>2010-07-17T17:04:16Z</time>
<desc>lat.=55.760132, lon.=26.040388, Alt.=168.427856m. Speed=0.396000m/h.</desc>
<speed>0.110000</speed>
</trkpt>
<trkpt lat="55.760132" lon="26.040390">
<ele>168.490356</ele>
<time>2010-07-17T17:04:17Z</time>
<desc>lat.=55.760132, lon.=26.040390, Alt.=168.490356m. Speed=0.504000m/h.</desc>
<speed>0.140000</speed>
</trkpt>
<trkpt lat="55.760132" lon="26.040392">
<ele>168.560669</ele>
<time>2010-07-17T17:04:18Z</time>
<desc>lat.=55.760132, lon.=26.040392, Alt.=168.560669m. Speed=0.360000m/h.</desc>
<speed>0.100000</speed>
</trkpt>
<trkpt lat="55.760132" lon="26.040394">
<ele>168.630981</ele>
<time>2010-07-17T17:04:19Z</time>
<desc>lat.=55.760132, lon.=26.040394, Alt.=168.630981m. Speed=0.288000m/h.</desc>
<speed>0.080000</speed>
</trkpt>
<trkpt lat="55.760132" lon="26.040396">
<ele>168.705200</ele>
<time>2010-07-17T17:04:20Z</time>
<desc>lat.=55.760132, lon.=26.040396, Alt.=168.705200m. Speed=0.180000m/h.</desc>
<speed>0.050000</speed>
</trkpt>
<trkpt lat="55.760132" lon="26.040396">
<ele>168.787231</ele>
<time>2010-07-17T17:04:21Z</time>
<desc>lat.=55.760132, lon.=26.040396, Alt.=168.787231m. Speed=0.180000m/h.</desc>
<speed>0.050000</speed>
</trkpt>
<trkpt lat="55.760132" lon="26.040398">
<ele>168.865356</ele>
<time>2010-07-17T17:04:22Z</time>
<desc>lat.=55.760132, lon.=26.040398, Alt.=168.865356m. Speed=0.216000m/h.</desc>
<speed>0.060000</speed>
</trkpt>
<trkpt lat="55.760132" lon="26.040398">
<ele>168.943481</ele>
<time>2010-07-17T17:04:23Z</time>
<desc>lat.=55.760132, lon.=26.040398, Alt.=168.943481m. Speed=0.432000m/h.</desc>
<speed>0.120000</speed>
</trkpt>
<trkpt lat="55.760132" lon="26.040400">
<ele>169.025513</ele>
<time>2010-07-17T17:04:24Z</time>
<desc>lat.=55.760132, lon.=26.040400, Alt.=169.025513m. Speed=0.432000m/h.</desc>
<speed>0.120000</speed>
</trkpt>
<trkpt lat="55.760132" lon="26.040401">
<ele>169.103638</ele>
<time>2010-07-17T17:04:25Z</time>
<desc>lat.=55.760132, lon.=26.040401, Alt.=169.103638m. Speed=0.396000m/h.</desc>
<speed>0.110000</speed>
</trkpt>
<trkpt lat="55.760132" lon="26.040403">
<ele>169.181763</ele>
<time>2010-07-17T17:04:26Z</time>
<desc>lat.=55.760132, lon.=26.040403, Alt.=169.181763m. Speed=0.432000m/h.</desc>
<speed>0.120000</speed>
</trkpt>
<trkpt lat="55.760132" lon="26.040405">
<ele>169.267700</ele>
<time>2010-07-17T17:04:27Z</time>
<desc>lat.=55.760132, lon.=26.040405, Alt.=169.267700m. Speed=0.720000m/h.</desc>
<speed>0.200000</speed>
</trkpt>
<trkpt lat="55.760128" lon="26.040407">
<ele>169.357544</ele>
<time>2010-07-17T17:04:28Z</time>
<desc>lat.=55.760128, lon.=26.040407, Alt.=169.357544m. Speed=0.720000m/h.</desc>
<speed>0.200000</speed>
</trkpt>
<trkpt lat="55.760128" lon="26.040409">
<ele>169.447388</ele>
<time>2010-07-17T17:04:29Z</time>
<desc>lat.=55.760128, lon.=26.040409, Alt.=169.447388m. Speed=0.864000m/h.</desc>
<speed>0.240000</speed>
</trkpt>
<trkpt lat="55.760124" lon="26.040413">
<ele>169.537231</ele>
<time>2010-07-17T17:04:30Z</time>
<desc>lat.=55.760124, lon.=26.040413, Alt.=169.537231m. Speed=1.188000m/h.</desc>
<speed>0.330000</speed>
</trkpt>
<trkpt lat="55.760109" lon="26.040430">
<ele>169.822388</ele>
<time>2010-07-17T17:04:31Z</time>
<desc>lat.=55.760109, lon.=26.040430, Alt.=169.822388m. Speed=1.620000m/h.</desc>
<speed>0.450000</speed>
</trkpt>
<trkpt lat="55.760098" lon="26.040432">
<ele>170.224731</ele>
<time>2010-07-17T17:04:32Z</time>
<desc>lat.=55.760098, lon.=26.040432, Alt.=170.224731m. Speed=1.800000m/h.</desc>
<speed>0.500000</speed>
</trkpt>
<trkpt lat="55.760086" lon="26.040438">
<ele>170.478638</ele>
<time>2010-07-17T17:04:33Z</time>
<desc>lat.=55.760086, lon.=26.040438, Alt.=170.478638m. Speed=1.800000m/h.</desc>
<speed>0.500000</speed>
</trkpt>
<trkpt lat="55.760078" lon="26.040443">
<ele>170.525513</ele>
<time>2010-07-17T17:04:34Z</time>
<desc>lat.=55.760078, lon.=26.040443, Alt.=170.525513m. Speed=1.836000m/h.</desc>
<speed>0.510000</speed>
</trkpt>
<trkpt lat="55.760078" lon="26.040445">
<ele>170.439575</ele>
<time>2010-07-17T17:04:35Z</time>
<desc>lat.=55.760078, lon.=26.040445, Alt.=170.439575m. Speed=1.584000m/h.</desc>
<speed>0.440000</speed>
</trkpt>
<trkpt lat="55.760075" lon="26.040453">
<ele>170.396606</ele>
<time>2010-07-17T17:04:36Z</time>
<desc>lat.=55.760075, lon.=26.040453, Alt.=170.396606m. Speed=1.512000m/h.</desc>
<speed>0.420000</speed>
</trkpt>
<trkpt lat="55.760071" lon="26.040464">
<ele>170.392700</ele>
<time>2010-07-17T17:04:37Z</time>
<desc>lat.=55.760071, lon.=26.040464, Alt.=170.392700m. Speed=1.548000m/h.</desc>
<speed>0.430000</speed>
</trkpt>
<trkpt lat="55.760067" lon="26.040470">
<ele>170.353638</ele>
<time>2010-07-17T17:04:38Z</time>
<desc>lat.=55.760067, lon.=26.040470, Alt.=170.353638m. Speed=1.296000m/h.</desc>
<speed>0.360000</speed>
</trkpt>
<trkpt lat="55.760067" lon="26.040482">
<ele>170.330200</ele>
<time>2010-07-17T17:04:39Z</time>
<desc>lat.=55.760067, lon.=26.040482, Alt.=170.330200m. Speed=1.260000m/h.</desc>
<speed>0.350000</speed>
</trkpt>
<trkpt lat="55.760075" lon="26.040489">
<ele>170.603638</ele>
<time>2010-07-17T17:04:40Z</time>
<desc>lat.=55.760075, lon.=26.040489, Alt.=170.603638m. Speed=1.116000m/h.</desc>
<speed>0.310000</speed>
</trkpt>
<trkpt lat="55.760086" lon="26.040495">
<ele>170.845825</ele>
<time>2010-07-17T17:04:41Z</time>
<desc>lat.=55.760086, lon.=26.040495, Alt.=170.845825m. Speed=0.936000m/h.</desc>
<speed>0.260000</speed>
</trkpt>
<trkpt lat="55.760090" lon="26.040487">
<ele>170.787231</ele>
<time>2010-07-17T17:04:42Z</time>
<desc>lat.=55.760090, lon.=26.040487, Alt.=170.787231m. Speed=0.576000m/h.</desc>
<speed>0.160000</speed>
</trkpt>
<trkpt lat="55.760086" lon="26.040495">
<ele>170.470825</ele>
<time>2010-07-17T17:04:43Z</time>
<desc>lat.=55.760086, lon.=26.040495, Alt.=170.470825m. Speed=0.612000m/h.</desc>
<speed>0.170000</speed>
</trkpt>
<trkpt lat="55.760090" lon="26.040497">
<ele>170.365356</ele>
<time>2010-07-17T17:04:44Z</time>
<desc>lat.=55.760090, lon.=26.040497, Alt.=170.365356m. Speed=0.504000m/h.</desc>
<speed>0.140000</speed>
</trkpt>
<trkpt lat="55.760090" lon="26.040499">
<ele>170.435669</ele>
<time>2010-07-17T17:04:45Z</time>
<desc>lat.=55.760090, lon.=26.040499, Alt.=170.435669m. Speed=0.432000m/h.</desc>
<speed>0.120000</speed>
</trkpt>
<trkpt lat="55.760086" lon="26.040501">
<ele>170.502075</ele>
<time>2010-07-17T17:04:46Z</time>
<desc>lat.=55.760086, lon.=26.040501, Alt.=170.502075m. Speed=0.288000m/h.</desc>
<speed>0.080000</speed>
</trkpt>
<trkpt lat="55.760090" lon="26.040503">
<ele>170.568481</ele>
<time>2010-07-17T17:04:47Z</time>
<desc>lat.=55.760090, lon.=26.040503, Alt.=170.568481m. Speed=0.180000m/h.</desc>
<speed>0.050000</speed>
</trkpt>
<trkpt lat="55.760090" lon="26.040503">
<ele>170.634888</ele>
<time>2010-07-17T17:04:48Z</time>
<desc>lat.=55.760090, lon.=26.040503, Alt.=170.634888m. Speed=0.144000m/h.</desc>
<speed>0.040000</speed>
</trkpt>
<trkpt lat="55.760090" lon="26.040503">
<ele>170.701294</ele>
<time>2010-07-17T17:04:49Z</time>
<desc>lat.=55.760090, lon.=26.040503, Alt.=170.701294m. Speed=0.252000m/h.</desc>
<speed>0.070000</speed>
</trkpt>
<trkpt lat="55.760090" lon="26.040503">
<ele>170.767700</ele>
<time>2010-07-17T17:04:50Z</time>
<desc>lat.=55.760090, lon.=26.040503, Alt.=170.767700m. Speed=0.612000m/h.</desc>
<speed>0.170000</speed>
</trkpt>
<trkpt lat="55.760090" lon="26.040503">
<ele>170.826294</ele>
<time>2010-07-17T17:04:51Z</time>
<desc>lat.=55.760090, lon.=26.040503, Alt.=170.826294m. Speed=0.504000m/h.</desc>
<speed>0.140000</speed>
</trkpt>
<trkpt lat="55.760094" lon="26.040503">
<ele>170.880981</ele>
<time>2010-07-17T17:04:52Z</time>
<desc>lat.=55.760094, lon.=26.040503, Alt.=170.880981m. Speed=0.504000m/h.</desc>
<speed>0.140000</speed>
</trkpt>
<trkpt lat="55.760094" lon="26.040504">
<ele>170.943481</ele>
<time>2010-07-17T17:04:53Z</time>
<desc>lat.=55.760094, lon.=26.040504, Alt.=170.943481m. Speed=0.540000m/h.</desc>
<speed>0.150000</speed>
</trkpt>
<trkpt lat="55.760094" lon="26.040504">
<ele>170.998169</ele>
<time>2010-07-17T17:04:54Z</time>
<desc>lat.=55.760094, lon.=26.040504, Alt.=170.998169m. Speed=0.432000m/h.</desc>
<speed>0.120000</speed>
</trkpt>
<trkpt lat="55.760098" lon="26.040504">
<ele>171.052856</ele>
<time>2010-07-17T17:04:55Z</time>
<desc>lat.=55.760098, lon.=26.040504, Alt.=171.052856m. Speed=0.360000m/h.</desc>
<speed>0.100000</speed>
</trkpt>
<trkpt lat="55.760098" lon="26.040506">
<ele>171.111450</ele>
<time>2010-07-17T17:04:56Z</time>
<desc>lat.=55.760098, lon.=26.040506, Alt.=171.111450m. Speed=0.324000m/h.</desc>
<speed>0.090000</speed>
</trkpt>
<trkpt lat="55.760098" lon="26.040508">
<ele>171.154419</ele>
<time>2010-07-17T17:04:57Z</time>
<desc>lat.=55.760098, lon.=26.040508, Alt.=171.154419m. Speed=0.396000m/h.</desc>
<speed>0.110000</speed>
</trkpt>
<trkpt lat="55.760098" lon="26.040510">
<ele>171.193481</ele>
<time>2010-07-17T17:04:58Z</time>
<desc>lat.=55.760098, lon.=26.040510, Alt.=171.193481m. Speed=0.576000m/h.</desc>
<speed>0.160000</speed>
</trkpt>
<trkpt lat="55.760098" lon="26.040512">
<ele>171.216919</ele>
<time>2010-07-17T17:04:59Z</time>
<desc>lat.=55.760098, lon.=26.040512, Alt.=171.216919m. Speed=0.360000m/h.</desc>
<speed>0.100000</speed>
</trkpt>
<trkpt lat="55.760098" lon="26.040514">
<ele>171.240356</ele>
<time>2010-07-17T17:05:00Z</time>
<desc>lat.=55.760098, lon.=26.040514, Alt.=171.240356m. Speed=0.468000m/h.</desc>
<speed>0.130000</speed>
</trkpt>
<trkpt lat="55.760098" lon="26.040518">
<ele>171.259888</ele>
<time>2010-07-17T17:05:01Z</time>
<desc>lat.=55.760098, lon.=26.040518, Alt.=171.259888m. Speed=0.648000m/h.</desc>
<speed>0.180000</speed>
</trkpt>
<trkpt lat="55.760098" lon="26.040520">
<ele>171.291138</ele>
<time>2010-07-17T17:05:02Z</time>
<desc>lat.=55.760098, lon.=26.040520, Alt.=171.291138m. Speed=0.720000m/h.</desc>
<speed>0.200000</speed>
</trkpt>
<trkpt lat="55.760098" lon="26.040524">
<ele>171.314575</ele>
<time>2010-07-17T17:05:03Z</time>
<desc>lat.=55.760098, lon.=26.040524, Alt.=171.314575m. Speed=0.684000m/h.</desc>
<speed>0.190000</speed>
</trkpt>
<trkpt lat="55.760098" lon="26.040527">
<ele>171.334106</ele>
<time>2010-07-17T17:05:04Z</time>
<desc>lat.=55.760098, lon.=26.040527, Alt.=171.334106m. Speed=0.684000m/h.</desc>
<speed>0.190000</speed>
</trkpt>
<trkpt lat="55.760098" lon="26.040529">
<ele>171.353638</ele>
<time>2010-07-17T17:05:05Z</time>
<desc>lat.=55.760098, lon.=26.040529, Alt.=171.353638m. Speed=0.828000m/h.</desc>
<speed>0.230000</speed>
</trkpt>
<trkpt lat="55.760101" lon="26.040533">
<ele>171.377075</ele>
<time>2010-07-17T17:05:06Z</time>
<desc>lat.=55.760101, lon.=26.040533, Alt.=171.377075m. Speed=0.900000m/h.</desc>
<speed>0.250000</speed>
</trkpt>
<trkpt lat="55.760101" lon="26.040537">
<ele>171.400513</ele>
<time>2010-07-17T17:05:07Z</time>
<desc>lat.=55.760101, lon.=26.040537, Alt.=171.400513m. Speed=0.828000m/h.</desc>
<speed>0.230000</speed>
</trkpt>
<trkpt lat="55.760101" lon="26.040541">
<ele>171.423950</ele>
<time>2010-07-17T17:05:08Z</time>
<desc>lat.=55.760101, lon.=26.040541, Alt.=171.423950m. Speed=1.080000m/h.</desc>
<speed>0.300000</speed>
</trkpt>
<trkpt lat="55.760105" lon="26.040560">
<ele>171.556763</ele>
<time>2010-07-17T17:05:09Z</time>
<desc>lat.=55.760105, lon.=26.040560, Alt.=171.556763m. Speed=1.224000m/h.</desc>
<speed>0.340000</speed>
</trkpt>
<trkpt lat="55.760105" lon="26.040575">
<ele>171.459106</ele>
<time>2010-07-17T17:05:10Z</time>
<desc>lat.=55.760105, lon.=26.040575, Alt.=171.459106m. Speed=1.332000m/h.</desc>
<speed>0.370000</speed>
</trkpt>
<trkpt lat="55.760105" lon="26.040590">
<ele>170.892700</ele>
<time>2010-07-17T17:05:11Z</time>
<desc>lat.=55.760105, lon.=26.040590, Alt.=170.892700m. Speed=1.368000m/h.</desc>
<speed>0.380000</speed>
</trkpt>
<trkpt lat="55.760101" lon="26.040602">
<ele>170.634888</ele>
<time>2010-07-17T17:05:12Z</time>
<desc>lat.=55.760101, lon.=26.040602, Alt.=170.634888m. Speed=1.296000m/h.</desc>
<speed>0.360000</speed>
</trkpt>
<trkpt lat="55.760094" lon="26.040623">
<ele>170.338013</ele>
<time>2010-07-17T17:05:13Z</time>
<desc>lat.=55.760094, lon.=26.040623, Alt.=170.338013m. Speed=1.332000m/h.</desc>
<speed>0.370000</speed>
</trkpt>
<trkpt lat="55.760094" lon="26.040642">
<ele>170.259888</ele>
<time>2010-07-17T17:05:14Z</time>
<desc>lat.=55.760094, lon.=26.040642, Alt.=170.259888m. Speed=1.476000m/h.</desc>
<speed>0.410000</speed>
</trkpt>
<trkpt lat="55.760094" lon="26.040648">
<ele>170.259888</ele>
<time>2010-07-17T17:05:15Z</time>
<desc>lat.=55.760094, lon.=26.040648, Alt.=170.259888m. Speed=1.260000m/h.</desc>
<speed>0.350000</speed>
</trkpt>
<trkpt lat="55.760094" lon="26.040667">
<ele>170.576294</ele>
<time>2010-07-17T17:05:16Z</time>
<desc>lat.=55.760094, lon.=26.040667, Alt.=170.576294m. Speed=1.188000m/h.</desc>
<speed>0.330000</speed>
</trkpt>
<trkpt lat="55.760090" lon="26.040686">
<ele>170.802856</ele>
<time>2010-07-17T17:05:17Z</time>
<desc>lat.=55.760090, lon.=26.040686, Alt.=170.802856m. Speed=1.152000m/h.</desc>
<speed>0.320000</speed>
</trkpt>
<trkpt lat="55.760090" lon="26.040695">
<ele>170.763794</ele>
<time>2010-07-17T17:05:18Z</time>
<desc>lat.=55.760090, lon.=26.040695, Alt.=170.763794m. Speed=1.260000m/h.</desc>
<speed>0.350000</speed>
</trkpt>
<trkpt lat="55.760090" lon="26.040697">
<ele>170.763794</ele>
<time>2010-07-17T17:05:19Z</time>
<desc>lat.=55.760090, lon.=26.040697, Alt.=170.763794m. Speed=1.116000m/h.</desc>
<speed>0.310000</speed>
</trkpt>
<trkpt lat="55.760090" lon="26.040703">
<ele>171.080200</ele>
<time>2010-07-17T17:05:20Z</time>
<desc>lat.=55.760090, lon.=26.040703, Alt.=171.080200m. Speed=0.972000m/h.</desc>
<speed>0.270000</speed>
</trkpt>
<trkpt lat="55.760086" lon="26.040710">
<ele>171.267700</ele>
<time>2010-07-17T17:05:21Z</time>
<desc>lat.=55.760086, lon.=26.040710, Alt.=171.267700m. Speed=0.828000m/h.</desc>
<speed>0.230000</speed>
</trkpt>
<trkpt lat="55.760082" lon="26.040716">
<ele>171.564575</ele>
<time>2010-07-17T17:05:22Z</time>
<desc>lat.=55.760082, lon.=26.040716, Alt.=171.564575m. Speed=0.792000m/h.</desc>
<speed>0.220000</speed>
</trkpt>
<trkpt lat="55.760082" lon="26.040730">
<ele>171.963013</ele>
<time>2010-07-17T17:05:23Z</time>
<desc>lat.=55.760082, lon.=26.040730, Alt.=171.963013m. Speed=0.864000m/h.</desc>
<speed>0.240000</speed>
</trkpt>
<trkpt lat="55.760082" lon="26.040733">
<ele>171.986450</ele>
<time>2010-07-17T17:05:24Z</time>
<desc>lat.=55.760082, lon.=26.040733, Alt.=171.986450m. Speed=1.008000m/h.</desc>
<speed>0.280000</speed>
</trkpt>
<trkpt lat="55.760082" lon="26.040737">
<ele>172.009888</ele>
<time>2010-07-17T17:05:25Z</time>
<desc>lat.=55.760082, lon.=26.040737, Alt.=172.009888m. Speed=0.936000m/h.</desc>
<speed>0.260000</speed>
</trkpt>
<trkpt lat="55.760082" lon="26.040741">
<ele>172.033325</ele>
<time>2010-07-17T17:05:26Z</time>
<desc>lat.=55.760082, lon.=26.040741, Alt.=172.033325m. Speed=0.972000m/h.</desc>
<speed>0.270000</speed>
</trkpt>
<trkpt lat="55.760082" lon="26.040747">
<ele>172.060669</ele>
<time>2010-07-17T17:05:27Z</time>
<desc>lat.=55.760082, lon.=26.040747, Alt.=172.060669m. Speed=0.972000m/h.</desc>
<speed>0.270000</speed>
</trkpt>
<trkpt lat="55.760082" lon="26.040751">
<ele>172.084106</ele>
<time>2010-07-17T17:05:28Z</time>
<desc>lat.=55.760082, lon.=26.040751, Alt.=172.084106m. Speed=1.008000m/h.</desc>
<speed>0.280000</speed>
</trkpt>
<trkpt lat="55.760082" lon="26.040754">
<ele>172.103638</ele>
<time>2010-07-17T17:05:29Z</time>
<desc>lat.=55.760082, lon.=26.040754, Alt.=172.103638m. Speed=0.900000m/h.</desc>
<speed>0.250000</speed>
</trkpt>
<trkpt lat="55.760078" lon="26.040758">
<ele>172.123169</ele>
<time>2010-07-17T17:05:30Z</time>
<desc>lat.=55.760078, lon.=26.040758, Alt.=172.123169m. Speed=0.900000m/h.</desc>
<speed>0.250000</speed>
</trkpt>
<trkpt lat="55.760078" lon="26.040764">
<ele>172.146606</ele>
<time>2010-07-17T17:05:31Z</time>
<desc>lat.=55.760078, lon.=26.040764, Alt.=172.146606m. Speed=0.864000m/h.</desc>
<speed>0.240000</speed>
</trkpt>
<trkpt lat="55.760078" lon="26.040768">
<ele>172.142700</ele>
<time>2010-07-17T17:05:32Z</time>
<desc>lat.=55.760078, lon.=26.040768, Alt.=172.142700m. Speed=0.900000m/h.</desc>
<speed>0.250000</speed>
</trkpt>
<trkpt lat="55.760082" lon="26.040771">
<ele>172.162231</ele>
<time>2010-07-17T17:05:33Z</time>
<desc>lat.=55.760082, lon.=26.040771, Alt.=172.162231m. Speed=1.008000m/h.</desc>
<speed>0.280000</speed>
</trkpt>
<trkpt lat="55.760082" lon="26.040775">
<ele>172.173950</ele>
<time>2010-07-17T17:05:34Z</time>
<desc>lat.=55.760082, lon.=26.040775, Alt.=172.173950m. Speed=0.828000m/h.</desc>
<speed>0.230000</speed>
</trkpt>
<trkpt lat="55.760082" lon="26.040777">
<ele>172.197388</ele>
<time>2010-07-17T17:05:35Z</time>
<desc>lat.=55.760082, lon.=26.040777, Alt.=172.197388m. Speed=0.828000m/h.</desc>
<speed>0.230000</speed>
</trkpt>
<trkpt lat="55.760082" lon="26.040781">
<ele>172.232544</ele>
<time>2010-07-17T17:05:36Z</time>
<desc>lat.=55.760082, lon.=26.040781, Alt.=172.232544m. Speed=0.720000m/h.</desc>
<speed>0.200000</speed>
</trkpt>
<trkpt lat="55.760086" lon="26.040783">
<ele>172.279419</ele>
<time>2010-07-17T17:05:37Z</time>
<desc>lat.=55.760086, lon.=26.040783, Alt.=172.279419m. Speed=1.044000m/h.</desc>
<speed>0.290000</speed>
</trkpt>
<trkpt lat="55.760090" lon="26.040783">
<ele>172.338013</ele>
<time>2010-07-17T17:05:38Z</time>
<desc>lat.=55.760090, lon.=26.040783, Alt.=172.338013m. Speed=1.296000m/h.</desc>
<speed>0.360000</speed>
</trkpt>
<trkpt lat="55.760098" lon="26.040760">
<ele>173.091919</ele>
<time>2010-07-17T17:05:39Z</time>
<desc>lat.=55.760098, lon.=26.040760, Alt.=173.091919m. Speed=1.224000m/h.</desc>
<speed>0.340000</speed>
</trkpt>
<trkpt lat="55.760105" lon="26.040749">
<ele>173.216919</ele>
<time>2010-07-17T17:05:40Z</time>
<desc>lat.=55.760105, lon.=26.040749, Alt.=173.216919m. Speed=1.188000m/h.</desc>
<speed>0.330000</speed>
</trkpt>
<trkpt lat="55.760117" lon="26.040731">
<ele>173.474731</ele>
<time>2010-07-17T17:05:41Z</time>
<desc>lat.=55.760117, lon.=26.040731, Alt.=173.474731m. Speed=1.332000m/h.</desc>
<speed>0.370000</speed>
</trkpt>
<trkpt lat="55.760117" lon="26.040716">
<ele>173.611450</ele>
<time>2010-07-17T17:05:42Z</time>
<desc>lat.=55.760117, lon.=26.040716, Alt.=173.611450m. Speed=1.152000m/h.</desc>
<speed>0.320000</speed>
</trkpt>
<trkpt lat="55.760120" lon="26.040695">
<ele>174.814575</ele>
<time>2010-07-17T17:05:43Z</time>
<desc>lat.=55.760120, lon.=26.040695, Alt.=174.814575m. Speed=1.188000m/h.</desc>
<speed>0.330000</speed>
</trkpt>
<trkpt lat="55.760120" lon="26.040686">
<ele>175.533325</ele>
<time>2010-07-17T17:05:44Z</time>
<desc>lat.=55.760120, lon.=26.040686, Alt.=175.533325m. Speed=1.044000m/h.</desc>
<speed>0.290000</speed>
</trkpt>
<trkpt lat="55.760120" lon="26.040680">
<ele>175.986450</ele>
<time>2010-07-17T17:05:45Z</time>
<desc>lat.=55.760120, lon.=26.040680, Alt.=175.986450m. Speed=0.864000m/h.</desc>
<speed>0.240000</speed>
</trkpt>
<trkpt lat="55.760120" lon="26.040667">
<ele>175.537231</ele>
<time>2010-07-17T17:05:46Z</time>
<desc>lat.=55.760120, lon.=26.040667, Alt.=175.537231m. Speed=0.828000m/h.</desc>
<speed>0.230000</speed>
</trkpt>
<trkpt lat="55.760117" lon="26.040644">
<ele>175.377075</ele>
<time>2010-07-17T17:05:47Z</time>
<desc>lat.=55.760117, lon.=26.040644, Alt.=175.377075m. Speed=0.900000m/h.</desc>
<speed>0.250000</speed>
</trkpt>
<trkpt lat="55.760117" lon="26.040640">
<ele>175.451294</ele>
<time>2010-07-17T17:05:48Z</time>
<desc>lat.=55.760117, lon.=26.040640, Alt.=175.451294m. Speed=0.828000m/h.</desc>
<speed>0.230000</speed>
</trkpt>
<trkpt lat="55.760117" lon="26.040636">
<ele>175.525513</ele>
<time>2010-07-17T17:05:49Z</time>
<desc>lat.=55.760117, lon.=26.040636, Alt.=175.525513m. Speed=0.828000m/h.</desc>
<speed>0.230000</speed>
</trkpt>
<trkpt lat="55.760117" lon="26.040632">
<ele>175.603638</ele>
<time>2010-07-17T17:05:50Z</time>
<desc>lat.=55.760117, lon.=26.040632, Alt.=175.603638m. Speed=0.612000m/h.</desc>
<speed>0.170000</speed>
</trkpt>
<trkpt lat="55.760120" lon="26.040630">
<ele>175.681763</ele>
<time>2010-07-17T17:05:51Z</time>
<desc>lat.=55.760120, lon.=26.040630, Alt.=175.681763m. Speed=0.396000m/h.</desc>
<speed>0.110000</speed>
</trkpt>
<trkpt lat="55.760120" lon="26.040628">
<ele>175.755981</ele>
<time>2010-07-17T17:05:52Z</time>
<desc>lat.=55.760120, lon.=26.040628, Alt.=175.755981m. Speed=0.360000m/h.</desc>
<speed>0.100000</speed>
</trkpt>
<trkpt lat="55.760120" lon="26.040627">
<ele>175.834106</ele>
<time>2010-07-17T17:05:53Z</time>
<desc>lat.=55.760120, lon.=26.040627, Alt.=175.834106m. Speed=0.324000m/h.</desc>
<speed>0.090000</speed>
</trkpt>
<trkpt lat="55.760120" lon="26.040625">
<ele>175.904419</ele>
<time>2010-07-17T17:05:54Z</time>
<desc>lat.=55.760120, lon.=26.040625, Alt.=175.904419m. Speed=0.288000m/h.</desc>
<speed>0.080000</speed>
</trkpt>
<trkpt lat="55.760120" lon="26.040623">
<ele>175.982544</ele>
<time>2010-07-17T17:05:55Z</time>
<desc>lat.=55.760120, lon.=26.040623, Alt.=175.982544m. Speed=0.360000m/h.</desc>
<speed>0.100000</speed>
</trkpt>
<trkpt lat="55.760120" lon="26.040621">
<ele>176.060669</ele>
<time>2010-07-17T17:05:56Z</time>
<desc>lat.=55.760120, lon.=26.040621, Alt.=176.060669m. Speed=0.576000m/h.</desc>
<speed>0.160000</speed>
</trkpt>
<trkpt lat="55.760117" lon="26.040619">
<ele>176.138794</ele>
<time>2010-07-17T17:05:57Z</time>
<desc>lat.=55.760117, lon.=26.040619, Alt.=176.138794m. Speed=0.576000m/h.</desc>
<speed>0.160000</speed>
</trkpt>
<trkpt lat="55.760117" lon="26.040617">
<ele>176.216919</ele>
<time>2010-07-17T17:05:58Z</time>
<desc>lat.=55.760117, lon.=26.040617, Alt.=176.216919m. Speed=0.720000m/h.</desc>
<speed>0.200000</speed>
</trkpt>
<trkpt lat="55.760117" lon="26.040613">
<ele>176.283325</ele>
<time>2010-07-17T17:05:59Z</time>
<desc>lat.=55.760117, lon.=26.040613, Alt.=176.283325m. Speed=0.864000m/h.</desc>
<speed>0.240000</speed>
</trkpt>
<trkpt lat="55.760117" lon="26.040609">
<ele>176.338013</ele>
<time>2010-07-17T17:06:00Z</time>
<desc>lat.=55.760117, lon.=26.040609, Alt.=176.338013m. Speed=0.900000m/h.</desc>
<speed>0.250000</speed>
</trkpt>
<trkpt lat="55.760120" lon="26.040606">
<ele>176.380981</ele>
<time>2010-07-17T17:06:01Z</time>
<desc>lat.=55.760120, lon.=26.040606, Alt.=176.380981m. Speed=0.936000m/h.</desc>
<speed>0.260000</speed>
</trkpt>
<trkpt lat="55.760120" lon="26.040602">
<ele>176.412231</ele>
<time>2010-07-17T17:06:02Z</time>
<desc>lat.=55.760120, lon.=26.040602, Alt.=176.412231m. Speed=0.720000m/h.</desc>
<speed>0.200000</speed>
</trkpt>
<trkpt lat="55.760120" lon="26.040598">
<ele>176.439575</ele>
<time>2010-07-17T17:06:03Z</time>
<desc>lat.=55.760120, lon.=26.040598, Alt.=176.439575m. Speed=0.684000m/h.</desc>
<speed>0.190000</speed>
</trkpt>
<trkpt lat="55.760120" lon="26.040596">
<ele>176.455200</ele>
<time>2010-07-17T17:06:04Z</time>
<desc>lat.=55.760120, lon.=26.040596, Alt.=176.455200m. Speed=0.540000m/h.</desc>
<speed>0.150000</speed>
</trkpt>
<trkpt lat="55.760124" lon="26.040594">
<ele>176.451294</ele>
<time>2010-07-17T17:06:05Z</time>
<desc>lat.=55.760124, lon.=26.040594, Alt.=176.451294m. Speed=0.432000m/h.</desc>
<speed>0.120000</speed>
</trkpt>
<trkpt lat="55.760124" lon="26.040592">
<ele>176.439575</ele>
<time>2010-07-17T17:06:06Z</time>
<desc>lat.=55.760124, lon.=26.040592, Alt.=176.439575m. Speed=0.540000m/h.</desc>
<speed>0.150000</speed>
</trkpt>
<trkpt lat="55.760124" lon="26.040588">
<ele>176.431763</ele>
<time>2010-07-17T17:06:07Z</time>
<desc>lat.=55.760124, lon.=26.040588, Alt.=176.431763m. Speed=0.504000m/h.</desc>
<speed>0.140000</speed>
</trkpt>
<trkpt lat="55.760124" lon="26.040586">
<ele>176.423950</ele>
<time>2010-07-17T17:06:08Z</time>
<desc>lat.=55.760124, lon.=26.040586, Alt.=176.423950m. Speed=0.468000m/h.</desc>
<speed>0.130000</speed>
</trkpt>
<trkpt lat="55.760124" lon="26.040585">
<ele>176.416138</ele>
<time>2010-07-17T17:06:09Z</time>
<desc>lat.=55.760124, lon.=26.040585, Alt.=176.416138m. Speed=0.432000m/h.</desc>
<speed>0.120000</speed>
</trkpt>
<trkpt lat="55.760124" lon="26.040581">
<ele>176.404419</ele>
<time>2010-07-17T17:06:10Z</time>
<desc>lat.=55.760124, lon.=26.040581, Alt.=176.404419m. Speed=0.612000m/h.</desc>
<speed>0.170000</speed>
</trkpt>
<trkpt lat="55.760124" lon="26.040579">
<ele>176.392700</ele>
<time>2010-07-17T17:06:11Z</time>
<desc>lat.=55.760124, lon.=26.040579, Alt.=176.392700m. Speed=0.576000m/h.</desc>
<speed>0.160000</speed>
</trkpt>
<trkpt lat="55.760120" lon="26.040577">
<ele>176.373169</ele>
<time>2010-07-17T17:06:12Z</time>
<desc>lat.=55.760120, lon.=26.040577, Alt.=176.373169m. Speed=0.504000m/h.</desc>
<speed>0.140000</speed>
</trkpt>
<trkpt lat="55.760120" lon="26.040575">
<ele>176.334106</ele>
<time>2010-07-17T17:06:13Z</time>
<desc>lat.=55.760120, lon.=26.040575, Alt.=176.334106m. Speed=0.648000m/h.</desc>
<speed>0.180000</speed>
</trkpt>
<trkpt lat="55.760120" lon="26.040571">
<ele>176.298950</ele>
<time>2010-07-17T17:06:14Z</time>
<desc>lat.=55.760120, lon.=26.040571, Alt.=176.298950m. Speed=0.756000m/h.</desc>
<speed>0.210000</speed>
</trkpt>
<trkpt lat="55.760120" lon="26.040567">
<ele>176.259888</ele>
<time>2010-07-17T17:06:15Z</time>
<desc>lat.=55.760120, lon.=26.040567, Alt.=176.259888m. Speed=0.792000m/h.</desc>
<speed>0.220000</speed>
</trkpt>
<trkpt lat="55.760120" lon="26.040564">
<ele>176.224731</ele>
<time>2010-07-17T17:06:16Z</time>
<desc>lat.=55.760120, lon.=26.040564, Alt.=176.224731m. Speed=0.900000m/h.</desc>
<speed>0.250000</speed>
</trkpt>
<trkpt lat="55.760120" lon="26.040560">
<ele>176.197388</ele>
<time>2010-07-17T17:06:17Z</time>
<desc>lat.=55.760120, lon.=26.040560, Alt.=176.197388m. Speed=1.116000m/h.</desc>
<speed>0.310000</speed>
</trkpt>
<trkpt lat="55.760128" lon="26.040533">
<ele>176.154419</ele>
<time>2010-07-17T17:06:18Z</time>
<desc>lat.=55.760128, lon.=26.040533, Alt.=176.154419m. Speed=1.260000m/h.</desc>
<speed>0.350000</speed>
</trkpt>
<trkpt lat="55.760128" lon="26.040522">
<ele>176.255981</ele>
<time>2010-07-17T17:06:19Z</time>
<desc>lat.=55.760128, lon.=26.040522, Alt.=176.255981m. Speed=1.152000m/h.</desc>
<speed>0.320000</speed>
</trkpt>
<trkpt lat="55.760132" lon="26.040518">
<ele>176.295044</ele>
<time>2010-07-17T17:06:20Z</time>
<desc>lat.=55.760132, lon.=26.040518, Alt.=176.295044m. Speed=1.044000m/h.</desc>
<speed>0.290000</speed>
</trkpt>
<trkpt lat="55.760136" lon="26.040503">
<ele>176.658325</ele>
<time>2010-07-17T17:06:21Z</time>
<desc>lat.=55.760136, lon.=26.040503, Alt.=176.658325m. Speed=1.008000m/h.</desc>
<speed>0.280000</speed>
</trkpt>
<trkpt lat="55.760139" lon="26.040493">
<ele>176.502075</ele>
<time>2010-07-17T17:06:22Z</time>
<desc>lat.=55.760139, lon.=26.040493, Alt.=176.502075m. Speed=1.152000m/h.</desc>
<speed>0.320000</speed>
</trkpt>
<trkpt lat="55.760155" lon="26.040489">
<ele>176.560669</ele>
<time>2010-07-17T17:06:23Z</time>
<desc>lat.=55.760155, lon.=26.040489, Alt.=176.560669m. Speed=1.296000m/h.</desc>
<speed>0.360000</speed>
</trkpt>
<trkpt lat="55.760162" lon="26.040487">
<ele>176.713013</ele>
<time>2010-07-17T17:06:24Z</time>
<desc>lat.=55.760162, lon.=26.040487, Alt.=176.713013m. Speed=1.512000m/h.</desc>
<speed>0.420000</speed>
</trkpt>
<trkpt lat="55.760174" lon="26.040478">
<ele>176.853638</ele>
<time>2010-07-17T17:06:25Z</time>
<desc>lat.=55.760174, lon.=26.040478, Alt.=176.853638m. Speed=1.764000m/h.</desc>
<speed>0.490000</speed>
</trkpt>
<trkpt lat="55.760178" lon="26.040457">
<ele>176.005981</ele>
<time>2010-07-17T17:06:26Z</time>
<desc>lat.=55.760178, lon.=26.040457, Alt.=176.005981m. Speed=2.340000m/h.</desc>
<speed>0.650000</speed>
</trkpt>
<trkpt lat="55.760185" lon="26.040445">
<ele>175.759888</ele>
<time>2010-07-17T17:06:27Z</time>
<desc>lat.=55.760185, lon.=26.040445, Alt.=175.759888m. Speed=3.168000m/h.</desc>
<speed>0.880000</speed>
</trkpt>
<trkpt lat="55.760178" lon="26.040440">
<ele>175.099731</ele>
<time>2010-07-17T17:06:28Z</time>
<desc>lat.=55.760178, lon.=26.040440, Alt.=175.099731m. Speed=2.988000m/h.</desc>
<speed>0.830000</speed>
</trkpt>
<trkpt lat="55.760185" lon="26.040417">
<ele>174.826294</ele>
<time>2010-07-17T17:06:29Z</time>
<desc>lat.=55.760185, lon.=26.040417, Alt.=174.826294m. Speed=3.564000m/h.</desc>
<speed>0.990000</speed>
</trkpt>
<trkpt lat="55.760189" lon="26.040405">
<ele>174.759888</ele>
<time>2010-07-17T17:06:30Z</time>
<desc>lat.=55.760189, lon.=26.040405, Alt.=174.759888m. Speed=3.060000m/h.</desc>
<speed>0.850000</speed>
</trkpt>
<trkpt lat="55.760189" lon="26.040394">
<ele>174.670044</ele>
<time>2010-07-17T17:06:31Z</time>
<desc>lat.=55.760189, lon.=26.040394, Alt.=174.670044m. Speed=3.348000m/h.</desc>
<speed>0.930000</speed>
</trkpt>
<trkpt lat="55.760193" lon="26.040373">
<ele>174.533325</ele>
<time>2010-07-17T17:06:32Z</time>
<desc>lat.=55.760193, lon.=26.040373, Alt.=174.533325m. Speed=4.464000m/h.</desc>
<speed>1.240000</speed>
</trkpt>
<trkpt lat="55.760201" lon="26.040358">
<ele>174.490356</ele>
<time>2010-07-17T17:06:33Z</time>
<desc>lat.=55.760201, lon.=26.040358, Alt.=174.490356m. Speed=4.032000m/h.</desc>
<speed>1.120000</speed>
</trkpt>
<trkpt lat="55.760204" lon="26.040337">
<ele>174.259888</ele>
<time>2010-07-17T17:06:34Z</time>
<desc>lat.=55.760204, lon.=26.040337, Alt.=174.259888m. Speed=2.880000m/h.</desc>
<speed>0.800000</speed>
</trkpt>
<trkpt lat="55.760212" lon="26.040329">
<ele>174.220825</ele>
<time>2010-07-17T17:06:35Z</time>
<desc>lat.=55.760212, lon.=26.040329, Alt.=174.220825m. Speed=2.916000m/h.</desc>
<speed>0.810000</speed>
</trkpt>
<trkpt lat="55.760223" lon="26.040300">
<ele>173.404419</ele>
<time>2010-07-17T17:06:36Z</time>
<desc>lat.=55.760223, lon.=26.040300, Alt.=173.404419m. Speed=2.556000m/h.</desc>
<speed>0.710000</speed>
</trkpt>
<trkpt lat="55.760231" lon="26.040289">
<ele>173.267700</ele>
<time>2010-07-17T17:06:37Z</time>
<desc>lat.=55.760231, lon.=26.040289, Alt.=173.267700m. Speed=2.412000m/h.</desc>
<speed>0.670000</speed>
</trkpt>
<trkpt lat="55.760235" lon="26.040285">
<ele>173.423950</ele>
<time>2010-07-17T17:06:38Z</time>
<desc>lat.=55.760235, lon.=26.040285, Alt.=173.423950m. Speed=2.196000m/h.</desc>
<speed>0.610000</speed>
</trkpt>
<trkpt lat="55.760246" lon="26.040281">
<ele>173.451294</ele>
<time>2010-07-17T17:06:39Z</time>
<desc>lat.=55.760246, lon.=26.040281, Alt.=173.451294m. Speed=1.836000m/h.</desc>
<speed>0.510000</speed>
</trkpt>
<trkpt lat="55.760250" lon="26.040266">
<ele>173.509888</ele>
<time>2010-07-17T17:06:40Z</time>
<desc>lat.=55.760250, lon.=26.040266, Alt.=173.509888m. Speed=1.980000m/h.</desc>
<speed>0.550000</speed>
</trkpt>
<trkpt lat="55.760254" lon="26.040257">
<ele>173.548950</ele>
<time>2010-07-17T17:06:41Z</time>
<desc>lat.=55.760254, lon.=26.040257, Alt.=173.548950m. Speed=1.944000m/h.</desc>
<speed>0.540000</speed>
</trkpt>
<trkpt lat="55.760258" lon="26.040245">
<ele>173.732544</ele>
<time>2010-07-17T17:06:42Z</time>
<desc>lat.=55.760258, lon.=26.040245, Alt.=173.732544m. Speed=2.124000m/h.</desc>
<speed>0.590000</speed>
</trkpt>
<trkpt lat="55.760265" lon="26.040234">
<ele>173.638794</ele>
<time>2010-07-17T17:06:43Z</time>
<desc>lat.=55.760265, lon.=26.040234, Alt.=173.638794m. Speed=2.088000m/h.</desc>
<speed>0.580000</speed>
</trkpt>
<trkpt lat="55.760269" lon="26.040226">
<ele>173.209106</ele>
<time>2010-07-17T17:06:44Z</time>
<desc>lat.=55.760269, lon.=26.040226, Alt.=173.209106m. Speed=2.124000m/h.</desc>
<speed>0.590000</speed>
</trkpt>
<trkpt lat="55.760269" lon="26.040209">
<ele>173.013794</ele>
<time>2010-07-17T17:06:45Z</time>
<desc>lat.=55.760269, lon.=26.040209, Alt.=173.013794m. Speed=2.268000m/h.</desc>
<speed>0.630000</speed>
</trkpt>
<trkpt lat="55.760269" lon="26.040195">
<ele>172.763794</ele>
<time>2010-07-17T17:06:46Z</time>
<desc>lat.=55.760269, lon.=26.040195, Alt.=172.763794m. Speed=2.484000m/h.</desc>
<speed>0.690000</speed>
</trkpt>
<trkpt lat="55.760277" lon="26.040184">
<ele>172.556763</ele>
<time>2010-07-17T17:06:47Z</time>
<desc>lat.=55.760277, lon.=26.040184, Alt.=172.556763m. Speed=2.772000m/h.</desc>
<speed>0.770000</speed>
</trkpt>
<trkpt lat="55.760281" lon="26.040173">
<ele>172.498169</ele>
<time>2010-07-17T17:06:48Z</time>
<desc>lat.=55.760281, lon.=26.040173, Alt.=172.498169m. Speed=2.592000m/h.</desc>
<speed>0.720000</speed>
</trkpt>
<trkpt lat="55.760277" lon="26.040146">
<ele>172.584106</ele>
<time>2010-07-17T17:06:49Z</time>
<desc>lat.=55.760277, lon.=26.040146, Alt.=172.584106m. Speed=2.592000m/h.</desc>
<speed>0.720000</speed>
</trkpt>
<trkpt lat="55.760273" lon="26.040083">
<ele>173.080200</ele>
<time>2010-07-17T17:06:50Z</time>
<desc>lat.=55.760273, lon.=26.040083, Alt.=173.080200m. Speed=3.060000m/h.</desc>
<speed>0.850000</speed>
</trkpt>
<trkpt lat="55.760281" lon="26.040064">
<ele>172.771606</ele>
<time>2010-07-17T17:06:51Z</time>
<desc>lat.=55.760281, lon.=26.040064, Alt.=172.771606m. Speed=3.024000m/h.</desc>
<speed>0.840000</speed>
</trkpt>
<trkpt lat="55.760281" lon="26.040051">
<ele>172.568481</ele>
<time>2010-07-17T17:06:52Z</time>
<desc>lat.=55.760281, lon.=26.040051, Alt.=172.568481m. Speed=2.808000m/h.</desc>
<speed>0.780000</speed>
</trkpt>
<trkpt lat="55.760288" lon="26.040031">
<ele>172.252075</ele>
<time>2010-07-17T17:06:53Z</time>
<desc>lat.=55.760288, lon.=26.040031, Alt.=172.252075m. Speed=2.916000m/h.</desc>
<speed>0.810000</speed>
</trkpt>
<trkpt lat="55.760288" lon="26.040016">
<ele>172.224731</ele>
<time>2010-07-17T17:06:54Z</time>
<desc>lat.=55.760288, lon.=26.040016, Alt.=172.224731m. Speed=2.592000m/h.</desc>
<speed>0.720000</speed>
</trkpt>
<trkpt lat="55.760284" lon="26.039988">
<ele>172.107544</ele>
<time>2010-07-17T17:06:55Z</time>
<desc>lat.=55.760284, lon.=26.039988, Alt.=172.107544m. Speed=2.916000m/h.</desc>
<speed>0.810000</speed>
</trkpt>
<trkpt lat="55.760281" lon="26.039976">
<ele>172.322388</ele>
<time>2010-07-17T17:06:56Z</time>
<desc>lat.=55.760281, lon.=26.039976, Alt.=172.322388m. Speed=3.060000m/h.</desc>
<speed>0.850000</speed>
</trkpt>
<trkpt lat="55.760281" lon="26.039955">
<ele>172.002075</ele>
<time>2010-07-17T17:06:57Z</time>
<desc>lat.=55.760281, lon.=26.039955, Alt.=172.002075m. Speed=3.204000m/h.</desc>
<speed>0.890000</speed>
</trkpt>
<trkpt lat="55.760281" lon="26.039930">
<ele>171.775513</ele>
<time>2010-07-17T17:06:58Z</time>
<desc>lat.=55.760281, lon.=26.039930, Alt.=171.775513m. Speed=3.780000m/h.</desc>
<speed>1.050000</speed>
</trkpt>
<trkpt lat="55.760284" lon="26.039915">
<ele>171.818481</ele>
<time>2010-07-17T17:06:59Z</time>
<desc>lat.=55.760284, lon.=26.039915, Alt.=171.818481m. Speed=4.104000m/h.</desc>
<speed>1.140000</speed>
</trkpt>
<trkpt lat="55.760281" lon="26.039898">
<ele>171.830200</ele>
<time>2010-07-17T17:07:00Z</time>
<desc>lat.=55.760281, lon.=26.039898, Alt.=171.830200m. Speed=3.636000m/h.</desc>
<speed>1.010000</speed>
</trkpt>
<trkpt lat="55.760281" lon="26.039883">
<ele>171.697388</ele>
<time>2010-07-17T17:07:01Z</time>
<desc>lat.=55.760281, lon.=26.039883, Alt.=171.697388m. Speed=3.636000m/h.</desc>
<speed>1.010000</speed>
</trkpt>
<trkpt lat="55.760281" lon="26.039871">
<ele>171.752075</ele>
<time>2010-07-17T17:07:02Z</time>
<desc>lat.=55.760281, lon.=26.039871, Alt.=171.752075m. Speed=3.168000m/h.</desc>
<speed>0.880000</speed>
</trkpt>
<trkpt lat="55.760281" lon="26.039852">
<ele>171.759888</ele>
<time>2010-07-17T17:07:03Z</time>
<desc>lat.=55.760281, lon.=26.039852, Alt.=171.759888m. Speed=3.384000m/h.</desc>
<speed>0.940000</speed>
</trkpt>
<trkpt lat="55.760292" lon="26.039835">
<ele>171.853638</ele>
<time>2010-07-17T17:07:04Z</time>
<desc>lat.=55.760292, lon.=26.039835, Alt.=171.853638m. Speed=3.132000m/h.</desc>
<speed>0.870000</speed>
</trkpt>
<trkpt lat="55.760284" lon="26.039822">
<ele>171.869263</ele>
<time>2010-07-17T17:07:05Z</time>
<desc>lat.=55.760284, lon.=26.039822, Alt.=171.869263m. Speed=2.988000m/h.</desc>
<speed>0.830000</speed>
</trkpt>
<trkpt lat="55.760281" lon="26.039804">
<ele>171.916138</ele>
<time>2010-07-17T17:07:06Z</time>
<desc>lat.=55.760281, lon.=26.039804, Alt.=171.916138m. Speed=3.132000m/h.</desc>
<speed>0.870000</speed>
</trkpt>
<trkpt lat="55.760277" lon="26.039787">
<ele>171.869263</ele>
<time>2010-07-17T17:07:07Z</time>
<desc>lat.=55.760277, lon.=26.039787, Alt.=171.869263m. Speed=3.240000m/h.</desc>
<speed>0.900000</speed>
</trkpt>
<trkpt lat="55.760262" lon="26.039757">
<ele>172.525513</ele>
<time>2010-07-17T17:07:08Z</time>
<desc>lat.=55.760262, lon.=26.039757, Alt.=172.525513m. Speed=3.492000m/h.</desc>
<speed>0.970000</speed>
</trkpt>
<trkpt lat="55.760250" lon="26.039742">
<ele>172.513794</ele>
<time>2010-07-17T17:07:09Z</time>
<desc>lat.=55.760250, lon.=26.039742, Alt.=172.513794m. Speed=3.420000m/h.</desc>
<speed>0.950000</speed>
</trkpt>
<trkpt lat="55.760246" lon="26.039726">
<ele>172.400513</ele>
<time>2010-07-17T17:07:10Z</time>
<desc>lat.=55.760246, lon.=26.039726, Alt.=172.400513m. Speed=3.132000m/h.</desc>
<speed>0.870000</speed>
</trkpt>
<trkpt lat="55.760242" lon="26.039701">
<ele>172.088013</ele>
<time>2010-07-17T17:07:11Z</time>
<desc>lat.=55.760242, lon.=26.039701, Alt.=172.088013m. Speed=3.348000m/h.</desc>
<speed>0.930000</speed>
</trkpt>
<trkpt lat="55.760235" lon="26.039680">
<ele>171.912231</ele>
<time>2010-07-17T17:07:12Z</time>
<desc>lat.=55.760235, lon.=26.039680, Alt.=171.912231m. Speed=3.024000m/h.</desc>
<speed>0.840000</speed>
</trkpt>
<trkpt lat="55.760231" lon="26.039660">
<ele>171.744263</ele>
<time>2010-07-17T17:07:13Z</time>
<desc>lat.=55.760231, lon.=26.039660, Alt.=171.744263m. Speed=2.592000m/h.</desc>
<speed>0.720000</speed>
</trkpt>
<trkpt lat="55.760231" lon="26.039642">
<ele>171.732544</ele>
<time>2010-07-17T17:07:14Z</time>
<desc>lat.=55.760231, lon.=26.039642, Alt.=171.732544m. Speed=2.304000m/h.</desc>
<speed>0.640000</speed>
</trkpt>
<trkpt lat="55.760220" lon="26.039593">
<ele>172.236450</ele>
<time>2010-07-17T17:07:15Z</time>
<desc>lat.=55.760220, lon.=26.039593, Alt.=172.236450m. Speed=2.484000m/h.</desc>
<speed>0.690000</speed>
</trkpt>
<trkpt lat="55.760212" lon="26.039570">
<ele>172.295044</ele>
<time>2010-07-17T17:07:16Z</time>
<desc>lat.=55.760212, lon.=26.039570, Alt.=172.295044m. Speed=2.088000m/h.</desc>
<speed>0.580000</speed>
</trkpt>
<trkpt lat="55.760193" lon="26.039597">
<ele>172.791138</ele>
<time>2010-07-17T17:07:17Z</time>
<desc>lat.=55.760193, lon.=26.039597, Alt.=172.791138m. Speed=4.104000m/h.</desc>
<speed>1.140000</speed>
</trkpt>
<trkpt lat="55.760181" lon="26.039587">
<ele>173.166138</ele>
<time>2010-07-17T17:07:18Z</time>
<desc>lat.=55.760181, lon.=26.039587, Alt.=173.166138m. Speed=3.852000m/h.</desc>
<speed>1.070000</speed>
</trkpt>
<trkpt lat="55.760170" lon="26.039576">
<ele>173.396606</ele>
<time>2010-07-17T17:07:19Z</time>
<desc>lat.=55.760170, lon.=26.039576, Alt.=173.396606m. Speed=2.808000m/h.</desc>
<speed>0.780000</speed>
</trkpt>
<trkpt lat="55.760155" lon="26.039564">
<ele>172.509888</ele>
<time>2010-07-17T17:07:20Z</time>
<desc>lat.=55.760155, lon.=26.039564, Alt.=172.509888m. Speed=1.728000m/h.</desc>
<speed>0.480000</speed>
</trkpt>
<trkpt lat="55.760147" lon="26.039553">
<ele>171.822388</ele>
<time>2010-07-17T17:07:21Z</time>
<desc>lat.=55.760147, lon.=26.039553, Alt.=171.822388m. Speed=2.700000m/h.</desc>
<speed>0.750000</speed>
</trkpt>
<trkpt lat="55.760136" lon="26.039553">
<ele>171.752075</ele>
<time>2010-07-17T17:07:22Z</time>
<desc>lat.=55.760136, lon.=26.039553, Alt.=171.752075m. Speed=2.376000m/h.</desc>
<speed>0.660000</speed>
</trkpt>
<trkpt lat="55.760132" lon="26.039545">
<ele>171.423950</ele>
<time>2010-07-17T17:07:23Z</time>
<desc>lat.=55.760132, lon.=26.039545, Alt.=171.423950m. Speed=2.448000m/h.</desc>
<speed>0.680000</speed>
</trkpt>
<trkpt lat="55.760128" lon="26.039539">
<ele>171.115356</ele>
<time>2010-07-17T17:07:24Z</time>
<desc>lat.=55.760128, lon.=26.039539, Alt.=171.115356m. Speed=3.204000m/h.</desc>
<speed>0.890000</speed>
</trkpt>
<trkpt lat="55.760117" lon="26.039516">
<ele>170.623169</ele>
<time>2010-07-17T17:07:25Z</time>
<desc>lat.=55.760117, lon.=26.039516, Alt.=170.623169m. Speed=2.124000m/h.</desc>
<speed>0.590000</speed>
</trkpt>
<trkpt lat="55.760109" lon="26.039516">
<ele>170.306763</ele>
<time>2010-07-17T17:07:26Z</time>
<desc>lat.=55.760109, lon.=26.039516, Alt.=170.306763m. Speed=1.908000m/h.</desc>
<speed>0.530000</speed>
</trkpt>
<trkpt lat="55.760105" lon="26.039522">
<ele>169.810669</ele>
<time>2010-07-17T17:07:27Z</time>
<desc>lat.=55.760105, lon.=26.039522, Alt.=169.810669m. Speed=1.512000m/h.</desc>
<speed>0.420000</speed>
</trkpt>
<trkpt lat="55.760101" lon="26.039522">
<ele>169.713013</ele>
<time>2010-07-17T17:07:28Z</time>
<desc>lat.=55.760101, lon.=26.039522, Alt.=169.713013m. Speed=1.692000m/h.</desc>
<speed>0.470000</speed>
</trkpt>
<trkpt lat="55.760094" lon="26.039530">
<ele>169.595825</ele>
<time>2010-07-17T17:07:29Z</time>
<desc>lat.=55.760094, lon.=26.039530, Alt.=169.595825m. Speed=2.016000m/h.</desc>
<speed>0.560000</speed>
</trkpt>
<trkpt lat="55.760078" lon="26.039555">
<ele>170.240356</ele>
<time>2010-07-17T17:07:30Z</time>
<desc>lat.=55.760078, lon.=26.039555, Alt.=170.240356m. Speed=2.052000m/h.</desc>
<speed>0.570000</speed>
</trkpt>
<trkpt lat="55.760071" lon="26.039568">
<ele>170.877075</ele>
<time>2010-07-17T17:07:31Z</time>
<desc>lat.=55.760071, lon.=26.039568, Alt.=170.877075m. Speed=1.296000m/h.</desc>
<speed>0.360000</speed>
</trkpt>
<trkpt lat="55.760059" lon="26.039583">
<ele>171.029419</ele>
<time>2010-07-17T17:07:32Z</time>
<desc>lat.=55.760059, lon.=26.039583, Alt.=171.029419m. Speed=1.260000m/h.</desc>
<speed>0.350000</speed>
</trkpt>
<trkpt lat="55.760040" lon="26.039606">
<ele>171.095825</ele>
<time>2010-07-17T17:07:33Z</time>
<desc>lat.=55.760040, lon.=26.039606, Alt.=171.095825m. Speed=1.296000m/h.</desc>
<speed>0.360000</speed>
</trkpt>
<trkpt lat="55.760025" lon="26.039629">
<ele>170.845825</ele>
<time>2010-07-17T17:07:34Z</time>
<desc>lat.=55.760025, lon.=26.039629, Alt.=170.845825m. Speed=1.260000m/h.</desc>
<speed>0.350000</speed>
</trkpt>
<trkpt lat="55.760010" lon="26.039642">
<ele>170.709106</ele>
<time>2010-07-17T17:07:35Z</time>
<desc>lat.=55.760010, lon.=26.039642, Alt.=170.709106m. Speed=1.332000m/h.</desc>
<speed>0.370000</speed>
</trkpt>
<trkpt lat="55.759995" lon="26.039648">
<ele>170.670044</ele>
<time>2010-07-17T17:07:36Z</time>
<desc>lat.=55.759995, lon.=26.039648, Alt.=170.670044m. Speed=1.260000m/h.</desc>
<speed>0.350000</speed>
</trkpt>
<trkpt lat="55.759991" lon="26.039650">
<ele>170.084106</ele>
<time>2010-07-17T17:07:37Z</time>
<desc>lat.=55.759991, lon.=26.039650, Alt.=170.084106m. Speed=1.008000m/h.</desc>
<speed>0.280000</speed>
</trkpt>
<trkpt lat="55.759998" lon="26.039646">
<ele>169.931763</ele>
<time>2010-07-17T17:07:38Z</time>
<desc>lat.=55.759998, lon.=26.039646, Alt.=169.931763m. Speed=0.216000m/h.</desc>
<speed>0.060000</speed>
</trkpt>
<trkpt lat="55.760002" lon="26.039646">
<ele>169.576294</ele>
<time>2010-07-17T17:07:39Z</time>
<desc>lat.=55.760002, lon.=26.039646, Alt.=169.576294m. Speed=0.180000m/h.</desc>
<speed>0.050000</speed>
</trkpt>
<trkpt lat="55.760002" lon="26.039650">
<ele>169.158325</ele>
<time>2010-07-17T17:07:40Z</time>
<desc>lat.=55.760002, lon.=26.039650, Alt.=169.158325m. Speed=0.108000m/h.</desc>
<speed>0.030000</speed>
</trkpt>
<trkpt lat="55.760002" lon="26.039650">
<ele>169.088013</ele>
<time>2010-07-17T17:07:41Z</time>
<desc>lat.=55.760002, lon.=26.039650, Alt.=169.088013m. Speed=0.180000m/h.</desc>
<speed>0.050000</speed>
</trkpt>
<trkpt lat="55.760002" lon="26.039648">
<ele>169.005981</ele>
<time>2010-07-17T17:07:42Z</time>
<desc>lat.=55.760002, lon.=26.039648, Alt.=169.005981m. Speed=0.108000m/h.</desc>
<speed>0.030000</speed>
</trkpt>
<trkpt lat="55.760002" lon="26.039648">
<ele>168.923950</ele>
<time>2010-07-17T17:07:43Z</time>
<desc>lat.=55.760002, lon.=26.039648, Alt.=168.923950m. Speed=0.288000m/h.</desc>
<speed>0.080000</speed>
</trkpt>
<trkpt lat="55.760006" lon="26.039650">
<ele>168.830200</ele>
<time>2010-07-17T17:07:44Z</time>
<desc>lat.=55.760006, lon.=26.039650, Alt.=168.830200m. Speed=0.288000m/h.</desc>
<speed>0.080000</speed>
</trkpt>
<trkpt lat="55.760006" lon="26.039650">
<ele>168.736450</ele>
<time>2010-07-17T17:07:45Z</time>
<desc>lat.=55.760006, lon.=26.039650, Alt.=168.736450m. Speed=0.216000m/h.</desc>
<speed>0.060000</speed>
</trkpt>
<trkpt lat="55.760006" lon="26.039652">
<ele>168.642700</ele>
<time>2010-07-17T17:07:46Z</time>
<desc>lat.=55.760006, lon.=26.039652, Alt.=168.642700m. Speed=0.288000m/h.</desc>
<speed>0.080000</speed>
</trkpt>
<trkpt lat="55.760006" lon="26.039652">
<ele>168.552856</ele>
<time>2010-07-17T17:07:47Z</time>
<desc>lat.=55.760006, lon.=26.039652, Alt.=168.552856m. Speed=0.360000m/h.</desc>
<speed>0.100000</speed>
</trkpt>
<trkpt lat="55.760006" lon="26.039652">
<ele>168.447388</ele>
<time>2010-07-17T17:07:48Z</time>
<desc>lat.=55.760006, lon.=26.039652, Alt.=168.447388m. Speed=0.216000m/h.</desc>
<speed>0.060000</speed>
</trkpt>
<trkpt lat="55.760006" lon="26.039652">
<ele>168.341919</ele>
<time>2010-07-17T17:07:49Z</time>
<desc>lat.=55.760006, lon.=26.039652, Alt.=168.341919m. Speed=0.036000m/h.</desc>
<speed>0.010000</speed>
</trkpt>
<trkpt lat="55.760006" lon="26.039654">
<ele>168.232544</ele>
<time>2010-07-17T17:07:50Z</time>
<desc>lat.=55.760006, lon.=26.039654, Alt.=168.232544m. Speed=0.072000m/h.</desc>
<speed>0.020000</speed>
</trkpt>
<trkpt lat="55.760010" lon="26.039654">
<ele>168.123169</ele>
<time>2010-07-17T17:07:51Z</time>
<desc>lat.=55.760010, lon.=26.039654, Alt.=168.123169m. Speed=0.108000m/h.</desc>
<speed>0.030000</speed>
</trkpt>
<trkpt lat="55.760010" lon="26.039654">
<ele>168.013794</ele>
<time>2010-07-17T17:07:52Z</time>
<desc>lat.=55.760010, lon.=26.039654, Alt.=168.013794m. Speed=0.000000m/h.</desc>
<speed>0.000000</speed>
</trkpt>
<trkpt lat="55.760010" lon="26.039654">
<ele>167.892700</ele>
<time>2010-07-17T17:07:53Z</time>
<desc>lat.=55.760010, lon.=26.039654, Alt.=167.892700m. Speed=0.324000m/h.</desc>
<speed>0.090000</speed>
</trkpt>
<trkpt lat="55.760006" lon="26.039654">
<ele>167.783325</ele>
<time>2010-07-17T17:07:54Z</time>
<desc>lat.=55.760006, lon.=26.039654, Alt.=167.783325m. Speed=0.324000m/h.</desc>
<speed>0.090000</speed>
</trkpt>
<trkpt lat="55.760006" lon="26.039656">
<ele>167.689575</ele>
<time>2010-07-17T17:07:55Z</time>
<desc>lat.=55.760006, lon.=26.039656, Alt.=167.689575m. Speed=0.036000m/h.</desc>
<speed>0.010000</speed>
</trkpt>
<trkpt lat="55.760006" lon="26.039656">
<ele>167.599731</ele>
<time>2010-07-17T17:07:56Z</time>
<desc>lat.=55.760006, lon.=26.039656, Alt.=167.599731m. Speed=0.144000m/h.</desc>
<speed>0.040000</speed>
</trkpt>
<trkpt lat="55.760006" lon="26.039656">
<ele>167.521606</ele>
<time>2010-07-17T17:07:57Z</time>
<desc>lat.=55.760006, lon.=26.039656, Alt.=167.521606m. Speed=0.108000m/h.</desc>
<speed>0.030000</speed>
</trkpt>
<trkpt lat="55.760006" lon="26.039656">
<ele>167.447388</ele>
<time>2010-07-17T17:07:58Z</time>
<desc>lat.=55.760006, lon.=26.039656, Alt.=167.447388m. Speed=0.072000m/h.</desc>
<speed>0.020000</speed>
</trkpt>
<trkpt lat="55.760006" lon="26.039656">
<ele>167.384888</ele>
<time>2010-07-17T17:07:59Z</time>
<desc>lat.=55.760006, lon.=26.039656, Alt.=167.384888m. Speed=0.144000m/h.</desc>
<speed>0.040000</speed>
</trkpt>
<trkpt lat="55.760006" lon="26.039656">
<ele>167.330200</ele>
<time>2010-07-17T17:08:00Z</time>
<desc>lat.=55.760006, lon.=26.039656, Alt.=167.330200m. Speed=0.108000m/h.</desc>
<speed>0.030000</speed>
</trkpt>
<trkpt lat="55.760006" lon="26.039656">
<ele>167.330200</ele>
<time>2010-07-17T17:08:01Z</time>
<desc>lat.=55.760006, lon.=26.039656, Alt.=167.330200m. Speed=0.072000m/h.</desc>
<speed>0.020000</speed>
</trkpt>
<trkpt lat="55.760006" lon="26.039656">
<ele>167.326294</ele>
<time>2010-07-17T17:08:02Z</time>
<desc>lat.=55.760006, lon.=26.039656, Alt.=167.326294m. Speed=0.072000m/h.</desc>
<speed>0.020000</speed>
</trkpt>
<trkpt lat="55.760006" lon="26.039656">
<ele>167.322388</ele>
<time>2010-07-17T17:08:03Z</time>
<desc>lat.=55.760006, lon.=26.039656, Alt.=167.322388m. Speed=0.000000m/h.</desc>
<speed>0.000000</speed>
</trkpt>
<trkpt lat="55.760006" lon="26.039656">
<ele>167.322388</ele>
<time>2010-07-17T17:08:04Z</time>
<desc>lat.=55.760006, lon.=26.039656, Alt.=167.322388m. Speed=0.036000m/h.</desc>
<speed>0.010000</speed>
</trkpt>
<trkpt lat="55.760006" lon="26.039656">
<ele>167.330200</ele>
<time>2010-07-17T17:08:05Z</time>
<desc>lat.=55.760006, lon.=26.039656, Alt.=167.330200m. Speed=0.036000m/h.</desc>
<speed>0.010000</speed>
</trkpt>
<trkpt lat="55.760006" lon="26.039656">
<ele>167.334106</ele>
<time>2010-07-17T17:08:06Z</time>
<desc>lat.=55.760006, lon.=26.039656, Alt.=167.334106m. Speed=0.036000m/h.</desc>
<speed>0.010000</speed>
</trkpt>
<trkpt lat="55.760006" lon="26.039656">
<ele>167.334106</ele>
<time>2010-07-17T17:08:07Z</time>
<desc>lat.=55.760006, lon.=26.039656, Alt.=167.334106m. Speed=0.036000m/h.</desc>
<speed>0.010000</speed>
</trkpt>
<trkpt lat="55.760006" lon="26.039656">
<ele>167.338013</ele>
<time>2010-07-17T17:08:08Z</time>
<desc>lat.=55.760006, lon.=26.039656, Alt.=167.338013m. Speed=0.036000m/h.</desc>
<speed>0.010000</speed>
</trkpt>
<trkpt lat="55.760006" lon="26.039656">
<ele>167.338013</ele>
<time>2010-07-17T17:08:09Z</time>
<desc>lat.=55.760006, lon.=26.039656, Alt.=167.338013m. Speed=0.000000m/h.</desc>
<speed>0.000000</speed>
</trkpt>
<trkpt lat="55.760006" lon="26.039656">
<ele>167.338013</ele>
<time>2010-07-17T17:08:10Z</time>
<desc>lat.=55.760006, lon.=26.039656, Alt.=167.338013m. Speed=0.072000m/h.</desc>
<speed>0.020000</speed>
</trkpt>
<trkpt lat="55.760006" lon="26.039656">
<ele>167.338013</ele>
<time>2010-07-17T17:08:11Z</time>
<desc>lat.=55.760006, lon.=26.039656, Alt.=167.338013m. Speed=0.036000m/h.</desc>
<speed>0.010000</speed>
</trkpt>
<trkpt lat="55.760006" lon="26.039656">
<ele>167.338013</ele>
<time>2010-07-17T17:08:12Z</time>
<desc>lat.=55.760006, lon.=26.039656, Alt.=167.338013m. Speed=0.108000m/h.</desc>
<speed>0.030000</speed>
</trkpt>
<trkpt lat="55.760006" lon="26.039656">
<ele>167.338013</ele>
<time>2010-07-17T17:08:13Z</time>
<desc>lat.=55.760006, lon.=26.039656, Alt.=167.338013m. Speed=0.036000m/h.</desc>
<speed>0.010000</speed>
</trkpt>
<trkpt lat="55.760006" lon="26.039656">
<ele>167.338013</ele>
<time>2010-07-17T17:08:14Z</time>
<desc>lat.=55.760006, lon.=26.039656, Alt.=167.338013m. Speed=0.036000m/h.</desc>
<speed>0.010000</speed>
</trkpt>
<trkpt lat="55.760006" lon="26.039656">
<ele>167.338013</ele>
<time>2010-07-17T17:08:15Z</time>
<desc>lat.=55.760006, lon.=26.039656, Alt.=167.338013m. Speed=0.108000m/h.</desc>
<speed>0.030000</speed>
</trkpt>
<trkpt lat="55.760006" lon="26.039656">
<ele>167.330200</ele>
<time>2010-07-17T17:08:16Z</time>
<desc>lat.=55.760006, lon.=26.039656, Alt.=167.330200m. Speed=0.072000m/h.</desc>
<speed>0.020000</speed>
</trkpt>
<trkpt lat="55.760006" lon="26.039656">
<ele>167.322388</ele>
<time>2010-07-17T17:08:17Z</time>
<desc>lat.=55.760006, lon.=26.039656, Alt.=167.322388m. Speed=0.036000m/h.</desc>
<speed>0.010000</speed>
</trkpt>
<trkpt lat="55.760006" lon="26.039656">
<ele>167.322388</ele>
<time>2010-07-17T17:08:18Z</time>
<desc>lat.=55.760006, lon.=26.039656, Alt.=167.322388m. Speed=0.072000m/h.</desc>
<speed>0.020000</speed>
</trkpt>
<trkpt lat="55.760006" lon="26.039656">
<ele>167.326294</ele>
<time>2010-07-17T17:08:19Z</time>
<desc>lat.=55.760006, lon.=26.039656, Alt.=167.326294m. Speed=0.072000m/h.</desc>
<speed>0.020000</speed>
</trkpt>
<trkpt lat="55.760006" lon="26.039656">
<ele>167.330200</ele>
<time>2010-07-17T17:08:20Z</time>
<desc>lat.=55.760006, lon.=26.039656, Alt.=167.330200m. Speed=0.072000m/h.</desc>
<speed>0.020000</speed>
</trkpt>
<trkpt lat="55.760006" lon="26.039656">
<ele>167.338013</ele>
<time>2010-07-17T17:08:21Z</time>
<desc>lat.=55.760006, lon.=26.039656, Alt.=167.338013m. Speed=0.108000m/h.</desc>
<speed>0.030000</speed>
</trkpt>
<trkpt lat="55.760006" lon="26.039656">
<ele>167.349731</ele>
<time>2010-07-17T17:08:22Z</time>
<desc>lat.=55.760006, lon.=26.039656, Alt.=167.349731m. Speed=0.072000m/h.</desc>
<speed>0.020000</speed>
</trkpt>
<trkpt lat="55.760006" lon="26.039658">
<ele>167.353638</ele>
<time>2010-07-17T17:08:23Z</time>
<desc>lat.=55.760006, lon.=26.039658, Alt.=167.353638m. Speed=0.036000m/h.</desc>
<speed>0.010000</speed>
</trkpt>
<trkpt lat="55.760006" lon="26.039658">
<ele>167.353638</ele>
<time>2010-07-17T17:08:24Z</time>
<desc>lat.=55.760006, lon.=26.039658, Alt.=167.353638m. Speed=0.036000m/h.</desc>
<speed>0.010000</speed>
</trkpt>
<trkpt lat="55.760006" lon="26.039658">
<ele>167.369263</ele>
<time>2010-07-17T17:08:25Z</time>
<desc>lat.=55.760006, lon.=26.039658, Alt.=167.369263m. Speed=0.108000m/h.</desc>
<speed>0.030000</speed>
</trkpt>
<trkpt lat="55.760006" lon="26.039656">
<ele>167.377075</ele>
<time>2010-07-17T17:08:26Z</time>
<desc>lat.=55.760006, lon.=26.039656, Alt.=167.377075m. Speed=0.108000m/h.</desc>
<speed>0.030000</speed>
</trkpt>
<trkpt lat="55.760006" lon="26.039658">
<ele>167.384888</ele>
<time>2010-07-17T17:08:27Z</time>
<desc>lat.=55.760006, lon.=26.039658, Alt.=167.384888m. Speed=0.036000m/h.</desc>
<speed>0.010000</speed>
</trkpt>
<trkpt lat="55.760006" lon="26.039658">
<ele>167.384888</ele>
<time>2010-07-17T17:08:28Z</time>
<desc>lat.=55.760006, lon.=26.039658, Alt.=167.384888m. Speed=0.144000m/h.</desc>
<speed>0.040000</speed>
</trkpt>
<trkpt lat="55.760006" lon="26.039658">
<ele>167.380981</ele>
<time>2010-07-17T17:08:29Z</time>
<desc>lat.=55.760006, lon.=26.039658, Alt.=167.380981m. Speed=0.108000m/h.</desc>
<speed>0.030000</speed>
</trkpt>
<trkpt lat="55.760006" lon="26.039658">
<ele>167.377075</ele>
<time>2010-07-17T17:08:30Z</time>
<desc>lat.=55.760006, lon.=26.039658, Alt.=167.377075m. Speed=0.072000m/h.</desc>
<speed>0.020000</speed>
</trkpt>
<trkpt lat="55.760006" lon="26.039658">
<ele>167.373169</ele>
<time>2010-07-17T17:08:31Z</time>
<desc>lat.=55.760006, lon.=26.039658, Alt.=167.373169m. Speed=0.036000m/h.</desc>
<speed>0.010000</speed>
</trkpt>
<trkpt lat="55.760006" lon="26.039658">
<ele>167.357544</ele>
<time>2010-07-17T17:08:32Z</time>
<desc>lat.=55.760006, lon.=26.039658, Alt.=167.357544m. Speed=0.000000m/h.</desc>
<speed>0.000000</speed>
</trkpt>
<trkpt lat="55.760006" lon="26.039658">
<ele>167.349731</ele>
<time>2010-07-17T17:08:33Z</time>
<desc>lat.=55.760006, lon.=26.039658, Alt.=167.349731m. Speed=0.036000m/h.</desc>
<speed>0.010000</speed>
</trkpt>
<trkpt lat="55.760006" lon="26.039658">
<ele>167.345825</ele>
<time>2010-07-17T17:08:34Z</time>
<desc>lat.=55.760006, lon.=26.039658, Alt.=167.345825m. Speed=0.144000m/h.</desc>
<speed>0.040000</speed>
</trkpt>
<trkpt lat="55.760006" lon="26.039658">
<ele>167.338013</ele>
<time>2010-07-17T17:08:35Z</time>
<desc>lat.=55.760006, lon.=26.039658, Alt.=167.338013m. Speed=0.144000m/h.</desc>
<speed>0.040000</speed>
</trkpt>
<trkpt lat="55.760006" lon="26.039658">
<ele>167.341919</ele>
<time>2010-07-17T17:08:36Z</time>
<desc>lat.=55.760006, lon.=26.039658, Alt.=167.341919m. Speed=0.108000m/h.</desc>
<speed>0.030000</speed>
</trkpt>
<trkpt lat="55.760006" lon="26.039658">
<ele>167.341919</ele>
<time>2010-07-17T17:08:37Z</time>
<desc>lat.=55.760006, lon.=26.039658, Alt.=167.341919m. Speed=0.072000m/h.</desc>
<speed>0.020000</speed>
</trkpt>
<trkpt lat="55.760006" lon="26.039658">
<ele>167.345825</ele>
<time>2010-07-17T17:08:38Z</time>
<desc>lat.=55.760006, lon.=26.039658, Alt.=167.345825m. Speed=0.108000m/h.</desc>
<speed>0.030000</speed>
</trkpt>
<trkpt lat="55.760006" lon="26.039658">
<ele>167.345825</ele>
<time>2010-07-17T17:08:39Z</time>
<desc>lat.=55.760006, lon.=26.039658, Alt.=167.345825m. Speed=0.108000m/h.</desc>
<speed>0.030000</speed>
</trkpt>
<trkpt lat="55.760006" lon="26.039658">
<ele>167.345825</ele>
<time>2010-07-17T17:08:40Z</time>
<desc>lat.=55.760006, lon.=26.039658, Alt.=167.345825m. Speed=0.108000m/h.</desc>
<speed>0.030000</speed>
</trkpt>
<trkpt lat="55.760006" lon="26.039658">
<ele>167.345825</ele>
<time>2010-07-17T17:08:41Z</time>
<desc>lat.=55.760006, lon.=26.039658, Alt.=167.345825m. Speed=0.072000m/h.</desc>
<speed>0.020000</speed>
</trkpt>
<trkpt lat="55.760006" lon="26.039658">
<ele>167.345825</ele>
<time>2010-07-17T17:08:42Z</time>
<desc>lat.=55.760006, lon.=26.039658, Alt.=167.345825m. Speed=0.036000m/h.</desc>
<speed>0.010000</speed>
</trkpt>
<trkpt lat="55.760006" lon="26.039658">
<ele>167.341919</ele>
<time>2010-07-17T17:08:43Z</time>
<desc>lat.=55.760006, lon.=26.039658, Alt.=167.341919m. Speed=0.036000m/h.</desc>
<speed>0.010000</speed>
</trkpt>
<trkpt lat="55.760006" lon="26.039658">
<ele>167.341919</ele>
<time>2010-07-17T17:08:44Z</time>
<desc>lat.=55.760006, lon.=26.039658, Alt.=167.341919m. Speed=0.000000m/h.</desc>
<speed>0.000000</speed>
</trkpt>
<trkpt lat="55.760002" lon="26.039658">
<ele>167.334106</ele>
<time>2010-07-17T17:08:45Z</time>
<desc>lat.=55.760002, lon.=26.039658, Alt.=167.334106m. Speed=0.036000m/h.</desc>
<speed>0.010000</speed>
</trkpt>
<trkpt lat="55.760002" lon="26.039658">
<ele>167.326294</ele>
<time>2010-07-17T17:08:46Z</time>
<desc>lat.=55.760002, lon.=26.039658, Alt.=167.326294m. Speed=0.036000m/h.</desc>
<speed>0.010000</speed>
</trkpt>
<trkpt lat="55.760002" lon="26.039658">
<ele>167.318481</ele>
<time>2010-07-17T17:08:47Z</time>
<desc>lat.=55.760002, lon.=26.039658, Alt.=167.318481m. Speed=0.036000m/h.</desc>
<speed>0.010000</speed>
</trkpt>
<trkpt lat="55.760002" lon="26.039658">
<ele>167.298950</ele>
<time>2010-07-17T17:08:48Z</time>
<desc>lat.=55.760002, lon.=26.039658, Alt.=167.298950m. Speed=0.036000m/h.</desc>
<speed>0.010000</speed>
</trkpt>
<trkpt lat="55.760002" lon="26.039658">
<ele>167.287231</ele>
<time>2010-07-17T17:08:49Z</time>
<desc>lat.=55.760002, lon.=26.039658, Alt.=167.287231m. Speed=0.000000m/h.</desc>
<speed>0.000000</speed>
</trkpt>
<trkpt lat="55.760002" lon="26.039658">
<ele>167.287231</ele>
<time>2010-07-17T17:08:50Z</time>
<desc>lat.=55.760002, lon.=26.039658, Alt.=167.287231m. Speed=0.036000m/h.</desc>
<speed>0.010000</speed>
</trkpt>
<trkpt lat="55.760002" lon="26.039658">
<ele>167.291138</ele>
<time>2010-07-17T17:08:51Z</time>
<desc>lat.=55.760002, lon.=26.039658, Alt.=167.291138m. Speed=0.072000m/h.</desc>
<speed>0.020000</speed>
</trkpt>
<trkpt lat="55.760002" lon="26.039658">
<ele>167.291138</ele>
<time>2010-07-17T17:08:52Z</time>
<desc>lat.=55.760002, lon.=26.039658, Alt.=167.291138m. Speed=0.036000m/h.</desc>
<speed>0.010000</speed>
</trkpt>
<trkpt lat="55.760002" lon="26.039658">
<ele>167.295044</ele>
<time>2010-07-17T17:08:53Z</time>
<desc>lat.=55.760002, lon.=26.039658, Alt.=167.295044m. Speed=0.108000m/h.</desc>
<speed>0.030000</speed>
</trkpt>
<trkpt lat="55.760002" lon="26.039658">
<ele>167.291138</ele>
<time>2010-07-17T17:08:54Z</time>
<desc>lat.=55.760002, lon.=26.039658, Alt.=167.291138m. Speed=0.000000m/h.</desc>
<speed>0.000000</speed>
</trkpt>
<trkpt lat="55.760002" lon="26.039658">
<ele>167.279419</ele>
<time>2010-07-17T17:08:55Z</time>
<desc>lat.=55.760002, lon.=26.039658, Alt.=167.279419m. Speed=0.144000m/h.</desc>
<speed>0.040000</speed>
</trkpt>
<trkpt lat="55.760002" lon="26.039658">
<ele>167.279419</ele>
<time>2010-07-17T17:08:56Z</time>
<desc>lat.=55.760002, lon.=26.039658, Alt.=167.279419m. Speed=0.072000m/h.</desc>
<speed>0.020000</speed>
</trkpt>
<trkpt lat="55.760002" lon="26.039660">
<ele>167.279419</ele>
<time>2010-07-17T17:08:57Z</time>
<desc>lat.=55.760002, lon.=26.039660, Alt.=167.279419m. Speed=0.072000m/h.</desc>
<speed>0.020000</speed>
</trkpt>
<trkpt lat="55.760002" lon="26.039660">
<ele>167.279419</ele>
<time>2010-07-17T17:08:58Z</time>
<desc>lat.=55.760002, lon.=26.039660, Alt.=167.279419m. Speed=0.072000m/h.</desc>
<speed>0.020000</speed>
</trkpt>
<trkpt lat="55.760002" lon="26.039660">
<ele>167.279419</ele>
<time>2010-07-17T17:08:59Z</time>
<desc>lat.=55.760002, lon.=26.039660, Alt.=167.279419m. Speed=0.072000m/h.</desc>
<speed>0.020000</speed>
</trkpt>
<trkpt lat="55.760002" lon="26.039660">
<ele>167.279419</ele>
<time>2010-07-17T17:09:00Z</time>
<desc>lat.=55.760002, lon.=26.039660, Alt.=167.279419m. Speed=0.108000m/h.</desc>
<speed>0.030000</speed>
</trkpt>
<trkpt lat="55.760002" lon="26.039660">
<ele>167.283325</ele>
<time>2010-07-17T17:09:01Z</time>
<desc>lat.=55.760002, lon.=26.039660, Alt.=167.283325m. Speed=0.072000m/h.</desc>
<speed>0.020000</speed>
</trkpt>
<trkpt lat="55.760002" lon="26.039660">
<ele>167.291138</ele>
<time>2010-07-17T17:09:02Z</time>
<desc>lat.=55.760002, lon.=26.039660, Alt.=167.291138m. Speed=0.036000m/h.</desc>
<speed>0.010000</speed>
</trkpt>
<trkpt lat="55.760002" lon="26.039660">
<ele>167.298950</ele>
<time>2010-07-17T17:09:03Z</time>
<desc>lat.=55.760002, lon.=26.039660, Alt.=167.298950m. Speed=0.144000m/h.</desc>
<speed>0.040000</speed>
</trkpt>
<trkpt lat="55.760002" lon="26.039660">
<ele>167.298950</ele>
<time>2010-07-17T17:09:04Z</time>
<desc>lat.=55.760002, lon.=26.039660, Alt.=167.298950m. Speed=0.180000m/h.</desc>
<speed>0.050000</speed>
</trkpt>
<trkpt lat="55.760002" lon="26.039661">
<ele>167.302856</ele>
<time>2010-07-17T17:09:05Z</time>
<desc>lat.=55.760002, lon.=26.039661, Alt.=167.302856m. Speed=0.036000m/h.</desc>
<speed>0.010000</speed>
</trkpt>
<trkpt lat="55.760002" lon="26.039661">
<ele>167.302856</ele>
<time>2010-07-17T17:09:06Z</time>
<desc>lat.=55.760002, lon.=26.039661, Alt.=167.302856m. Speed=0.000000m/h.</desc>
<speed>0.000000</speed>
</trkpt>
<trkpt lat="55.760002" lon="26.039661">
<ele>167.302856</ele>
<time>2010-07-17T17:09:07Z</time>
<desc>lat.=55.760002, lon.=26.039661, Alt.=167.302856m. Speed=0.036000m/h.</desc>
<speed>0.010000</speed>
</trkpt>
<trkpt lat="55.760002" lon="26.039661">
<ele>167.306763</ele>
<time>2010-07-17T17:09:08Z</time>
<desc>lat.=55.760002, lon.=26.039661, Alt.=167.306763m. Speed=0.108000m/h.</desc>
<speed>0.030000</speed>
</trkpt>
<trkpt lat="55.760002" lon="26.039661">
<ele>167.314575</ele>
<time>2010-07-17T17:09:09Z</time>
<desc>lat.=55.760002, lon.=26.039661, Alt.=167.314575m. Speed=0.072000m/h.</desc>
<speed>0.020000</speed>
</trkpt>
<trkpt lat="55.760002" lon="26.039661">
<ele>167.314575</ele>
<time>2010-07-17T17:09:10Z</time>
<desc>lat.=55.760002, lon.=26.039661, Alt.=167.314575m. Speed=0.108000m/h.</desc>
<speed>0.030000</speed>
</trkpt>
<trkpt lat="55.760002" lon="26.039661">
<ele>167.326294</ele>
<time>2010-07-17T17:09:11Z</time>
<desc>lat.=55.760002, lon.=26.039661, Alt.=167.326294m. Speed=0.180000m/h.</desc>
<speed>0.050000</speed>
</trkpt>
<trkpt lat="55.760002" lon="26.039661">
<ele>167.330200</ele>
<time>2010-07-17T17:09:12Z</time>
<desc>lat.=55.760002, lon.=26.039661, Alt.=167.330200m. Speed=0.180000m/h.</desc>
<speed>0.050000</speed>
</trkpt>
<trkpt lat="55.760002" lon="26.039663">
<ele>167.326294</ele>
<time>2010-07-17T17:09:13Z</time>
<desc>lat.=55.760002, lon.=26.039663, Alt.=167.326294m. Speed=0.108000m/h.</desc>
<speed>0.030000</speed>
</trkpt>
<trkpt lat="55.760002" lon="26.039663">
<ele>167.334106</ele>
<time>2010-07-17T17:09:14Z</time>
<desc>lat.=55.760002, lon.=26.039663, Alt.=167.334106m. Speed=0.036000m/h.</desc>
<speed>0.010000</speed>
</trkpt>
<trkpt lat="55.760002" lon="26.039663">
<ele>167.330200</ele>
<time>2010-07-17T17:09:15Z</time>
<desc>lat.=55.760002, lon.=26.039663, Alt.=167.330200m. Speed=0.144000m/h.</desc>
<speed>0.040000</speed>
</trkpt>
<trkpt lat="55.760002" lon="26.039663">
<ele>167.322388</ele>
<time>2010-07-17T17:09:16Z</time>
<desc>lat.=55.760002, lon.=26.039663, Alt.=167.322388m. Speed=0.144000m/h.</desc>
<speed>0.040000</speed>
</trkpt>
<trkpt lat="55.760002" lon="26.039663">
<ele>167.306763</ele>
<time>2010-07-17T17:09:17Z</time>
<desc>lat.=55.760002, lon.=26.039663, Alt.=167.306763m. Speed=0.144000m/h.</desc>
<speed>0.040000</speed>
</trkpt>
<trkpt lat="55.760002" lon="26.039663">
<ele>167.298950</ele>
<time>2010-07-17T17:09:18Z</time>
<desc>lat.=55.760002, lon.=26.039663, Alt.=167.298950m. Speed=0.108000m/h.</desc>
<speed>0.030000</speed>
</trkpt>
<trkpt lat="55.760002" lon="26.039665">
<ele>167.295044</ele>
<time>2010-07-17T17:09:19Z</time>
<desc>lat.=55.760002, lon.=26.039665, Alt.=167.295044m. Speed=0.216000m/h.</desc>
<speed>0.060000</speed>
</trkpt>
<trkpt lat="55.760002" lon="26.039665">
<ele>167.291138</ele>
<time>2010-07-17T17:09:20Z</time>
<desc>lat.=55.760002, lon.=26.039665, Alt.=167.291138m. Speed=0.144000m/h.</desc>
<speed>0.040000</speed>
</trkpt>
<trkpt lat="55.760002" lon="26.039665">
<ele>167.291138</ele>
<time>2010-07-17T17:09:21Z</time>
<desc>lat.=55.760002, lon.=26.039665, Alt.=167.291138m. Speed=0.072000m/h.</desc>
<speed>0.020000</speed>
</trkpt>
<trkpt lat="55.760002" lon="26.039665">
<ele>167.283325</ele>
<time>2010-07-17T17:09:22Z</time>
<desc>lat.=55.760002, lon.=26.039665, Alt.=167.283325m. Speed=0.108000m/h.</desc>
<speed>0.030000</speed>
</trkpt>
<trkpt lat="55.760002" lon="26.039665">
<ele>167.271606</ele>
<time>2010-07-17T17:09:23Z</time>
<desc>lat.=55.760002, lon.=26.039665, Alt.=167.271606m. Speed=0.180000m/h.</desc>
<speed>0.050000</speed>
</trkpt>
<trkpt lat="55.760002" lon="26.039667">
<ele>167.267700</ele>
<time>2010-07-17T17:09:24Z</time>
<desc>lat.=55.760002, lon.=26.039667, Alt.=167.267700m. Speed=0.108000m/h.</desc>
<speed>0.030000</speed>
</trkpt>
<trkpt lat="55.760002" lon="26.039667">
<ele>167.271606</ele>
<time>2010-07-17T17:09:25Z</time>
<desc>lat.=55.760002, lon.=26.039667, Alt.=167.271606m. Speed=0.000000m/h.</desc>
<speed>0.000000</speed>
</trkpt>
<trkpt lat="55.760002" lon="26.039667">
<ele>167.267700</ele>
<time>2010-07-17T17:09:26Z</time>
<desc>lat.=55.760002, lon.=26.039667, Alt.=167.267700m. Speed=0.036000m/h.</desc>
<speed>0.010000</speed>
</trkpt>
<trkpt lat="55.760002" lon="26.039667">
<ele>167.271606</ele>
<time>2010-07-17T17:09:27Z</time>
<desc>lat.=55.760002, lon.=26.039667, Alt.=167.271606m. Speed=0.036000m/h.</desc>
<speed>0.010000</speed>
</trkpt>
<trkpt lat="55.760002" lon="26.039667">
<ele>167.271606</ele>
<time>2010-07-17T17:09:28Z</time>
<desc>lat.=55.760002, lon.=26.039667, Alt.=167.271606m. Speed=0.036000m/h.</desc>
<speed>0.010000</speed>
</trkpt>
<trkpt lat="55.760002" lon="26.039667">
<ele>167.279419</ele>
<time>2010-07-17T17:09:29Z</time>
<desc>lat.=55.760002, lon.=26.039667, Alt.=167.279419m. Speed=0.036000m/h.</desc>
<speed>0.010000</speed>
</trkpt>
<trkpt lat="55.760002" lon="26.039667">
<ele>167.283325</ele>
<time>2010-07-17T17:09:30Z</time>
<desc>lat.=55.760002, lon.=26.039667, Alt.=167.283325m. Speed=0.000000m/h.</desc>
<speed>0.000000</speed>
</trkpt>
<trkpt lat="55.760002" lon="26.039667">
<ele>167.287231</ele>
<time>2010-07-17T17:09:31Z</time>
<desc>lat.=55.760002, lon.=26.039667, Alt.=167.287231m. Speed=0.000000m/h.</desc>
<speed>0.000000</speed>
</trkpt>
<trkpt lat="55.760002" lon="26.039667">
<ele>167.291138</ele>
<time>2010-07-17T17:09:32Z</time>
<desc>lat.=55.760002, lon.=26.039667, Alt.=167.291138m. Speed=0.000000m/h.</desc>
<speed>0.000000</speed>
</trkpt>
<trkpt lat="55.760002" lon="26.039667">
<ele>167.287231</ele>
<time>2010-07-17T17:09:33Z</time>
<desc>lat.=55.760002, lon.=26.039667, Alt.=167.287231m. Speed=0.072000m/h.</desc>
<speed>0.020000</speed>
</trkpt>
<trkpt lat="55.760002" lon="26.039667">
<ele>167.283325</ele>
<time>2010-07-17T17:09:34Z</time>
<desc>lat.=55.760002, lon.=26.039667, Alt.=167.283325m. Speed=0.036000m/h.</desc>
<speed>0.010000</speed>
</trkpt>
<trkpt lat="55.760002" lon="26.039667">
<ele>167.283325</ele>
<time>2010-07-17T17:09:35Z</time>
<desc>lat.=55.760002, lon.=26.039667, Alt.=167.283325m. Speed=0.000000m/h.</desc>
<speed>0.000000</speed>
</trkpt>
<trkpt lat="55.760002" lon="26.039669">
<ele>167.287231</ele>
<time>2010-07-17T17:09:36Z</time>
<desc>lat.=55.760002, lon.=26.039669, Alt.=167.287231m. Speed=0.000000m/h.</desc>
<speed>0.000000</speed>
</trkpt>
<trkpt lat="55.760002" lon="26.039669">
<ele>167.295044</ele>
<time>2010-07-17T17:09:37Z</time>
<desc>lat.=55.760002, lon.=26.039669, Alt.=167.295044m. Speed=0.036000m/h.</desc>
<speed>0.010000</speed>
</trkpt>
<trkpt lat="55.760002" lon="26.039669">
<ele>167.302856</ele>
<time>2010-07-17T17:09:38Z</time>
<desc>lat.=55.760002, lon.=26.039669, Alt.=167.302856m. Speed=0.108000m/h.</desc>
<speed>0.030000</speed>
</trkpt>
<trkpt lat="55.760002" lon="26.039669">
<ele>167.310669</ele>
<time>2010-07-17T17:09:39Z</time>
<desc>lat.=55.760002, lon.=26.039669, Alt.=167.310669m. Speed=0.036000m/h.</desc>
<speed>0.010000</speed>
</trkpt>
<trkpt lat="55.760002" lon="26.039669">
<ele>167.314575</ele>
<time>2010-07-17T17:09:40Z</time>
<desc>lat.=55.760002, lon.=26.039669, Alt.=167.314575m. Speed=0.000000m/h.</desc>
<speed>0.000000</speed>
</trkpt>
<trkpt lat="55.760002" lon="26.039669">
<ele>167.322388</ele>
<time>2010-07-17T17:09:41Z</time>
<desc>lat.=55.760002, lon.=26.039669, Alt.=167.322388m. Speed=0.000000m/h.</desc>
<speed>0.000000</speed>
</trkpt>
<trkpt lat="55.760002" lon="26.039669">
<ele>167.330200</ele>
<time>2010-07-17T17:09:42Z</time>
<desc>lat.=55.760002, lon.=26.039669, Alt.=167.330200m. Speed=0.000000m/h.</desc>
<speed>0.000000</speed>
</trkpt>
<trkpt lat="55.760002" lon="26.039669">
<ele>167.334106</ele>
<time>2010-07-17T17:09:43Z</time>
<desc>lat.=55.760002, lon.=26.039669, Alt.=167.334106m. Speed=0.072000m/h.</desc>
<speed>0.020000</speed>
</trkpt>
<trkpt lat="55.760002" lon="26.039669">
<ele>167.341919</ele>
<time>2010-07-17T17:09:44Z</time>
<desc>lat.=55.760002, lon.=26.039669, Alt.=167.341919m. Speed=0.072000m/h.</desc>
<speed>0.020000</speed>
</trkpt>
<trkpt lat="55.760002" lon="26.039669">
<ele>167.349731</ele>
<time>2010-07-17T17:09:45Z</time>
<desc>lat.=55.760002, lon.=26.039669, Alt.=167.349731m. Speed=0.000000m/h.</desc>
<speed>0.000000</speed>
</trkpt>
<trkpt lat="55.760002" lon="26.039669">
<ele>167.357544</ele>
<time>2010-07-17T17:09:46Z</time>
<desc>lat.=55.760002, lon.=26.039669, Alt.=167.357544m. Speed=0.036000m/h.</desc>
<speed>0.010000</speed>
</trkpt>
<trkpt lat="55.760002" lon="26.039669">
<ele>167.361450</ele>
<time>2010-07-17T17:09:47Z</time>
<desc>lat.=55.760002, lon.=26.039669, Alt.=167.361450m. Speed=0.000000m/h.</desc>
<speed>0.000000</speed>
</trkpt>
<trkpt lat="55.760002" lon="26.039669">
<ele>167.365356</ele>
<time>2010-07-17T17:09:48Z</time>
<desc>lat.=55.760002, lon.=26.039669, Alt.=167.365356m. Speed=0.000000m/h.</desc>
<speed>0.000000</speed>
</trkpt>
<trkpt lat="55.760002" lon="26.039669">
<ele>167.369263</ele>
<time>2010-07-17T17:09:49Z</time>
<desc>lat.=55.760002, lon.=26.039669, Alt.=167.369263m. Speed=0.072000m/h.</desc>
<speed>0.020000</speed>
</trkpt>
<trkpt lat="55.760002" lon="26.039669">
<ele>167.369263</ele>
<time>2010-07-17T17:09:50Z</time>
<desc>lat.=55.760002, lon.=26.039669, Alt.=167.369263m. Speed=0.036000m/h.</desc>
<speed>0.010000</speed>
</trkpt>
<trkpt lat="55.760002" lon="26.039669">
<ele>167.373169</ele>
<time>2010-07-17T17:09:51Z</time>
<desc>lat.=55.760002, lon.=26.039669, Alt.=167.373169m. Speed=0.000000m/h.</desc>
<speed>0.000000</speed>
</trkpt>
<trkpt lat="55.760002" lon="26.039671">
<ele>167.377075</ele>
<time>2010-07-17T17:09:52Z</time>
<desc>lat.=55.760002, lon.=26.039671, Alt.=167.377075m. Speed=0.000000m/h.</desc>
<speed>0.000000</speed>
</trkpt>
<trkpt lat="55.760002" lon="26.039671">
<ele>167.380981</ele>
<time>2010-07-17T17:09:53Z</time>
<desc>lat.=55.760002, lon.=26.039671, Alt.=167.380981m. Speed=0.036000m/h.</desc>
<speed>0.010000</speed>
</trkpt>
<trkpt lat="55.760002" lon="26.039671">
<ele>167.384888</ele>
<time>2010-07-17T17:09:54Z</time>
<desc>lat.=55.760002, lon.=26.039671, Alt.=167.384888m. Speed=0.036000m/h.</desc>
<speed>0.010000</speed>
</trkpt>
<trkpt lat="55.760002" lon="26.039671">
<ele>167.388794</ele>
<time>2010-07-17T17:09:55Z</time>
<desc>lat.=55.760002, lon.=26.039671, Alt.=167.388794m. Speed=0.036000m/h.</desc>
<speed>0.010000</speed>
</trkpt>
<trkpt lat="55.760002" lon="26.039671">
<ele>167.392700</ele>
<time>2010-07-17T17:09:56Z</time>
<desc>lat.=55.760002, lon.=26.039671, Alt.=167.392700m. Speed=0.000000m/h.</desc>
<speed>0.000000</speed>
</trkpt>
<trkpt lat="55.760002" lon="26.039671">
<ele>167.392700</ele>
<time>2010-07-17T17:09:57Z</time>
<desc>lat.=55.760002, lon.=26.039671, Alt.=167.392700m. Speed=0.000000m/h.</desc>
<speed>0.000000</speed>
</trkpt>
<trkpt lat="55.760002" lon="26.039671">
<ele>167.396606</ele>
<time>2010-07-17T17:09:58Z</time>
<desc>lat.=55.760002, lon.=26.039671, Alt.=167.396606m. Speed=0.072000m/h.</desc>
<speed>0.020000</speed>
</trkpt>
<trkpt lat="55.760002" lon="26.039671">
<ele>167.396606</ele>
<time>2010-07-17T17:09:59Z</time>
<desc>lat.=55.760002, lon.=26.039671, Alt.=167.396606m. Speed=0.000000m/h.</desc>
<speed>0.000000</speed>
</trkpt>
<trkpt lat="55.760002" lon="26.039671">
<ele>167.396606</ele>
<time>2010-07-17T17:10:00Z</time>
<desc>lat.=55.760002, lon.=26.039671, Alt.=167.396606m. Speed=0.000000m/h.</desc>
<speed>0.000000</speed>
</trkpt>
<trkpt lat="55.760002" lon="26.039671">
<ele>167.400513</ele>
<time>2010-07-17T17:10:01Z</time>
<desc>lat.=55.760002, lon.=26.039671, Alt.=167.400513m. Speed=0.036000m/h.</desc>
<speed>0.010000</speed>
</trkpt>
<trkpt lat="55.760002" lon="26.039671">
<ele>167.404419</ele>
<time>2010-07-17T17:10:02Z</time>
<desc>lat.=55.760002, lon.=26.039671, Alt.=167.404419m. Speed=0.000000m/h.</desc>
<speed>0.000000</speed>
</trkpt>
<trkpt lat="55.760002" lon="26.039671">
<ele>167.404419</ele>
<time>2010-07-17T17:10:03Z</time>
<desc>lat.=55.760002, lon.=26.039671, Alt.=167.404419m. Speed=0.000000m/h.</desc>
<speed>0.000000</speed>
</trkpt>
<trkpt lat="55.760002" lon="26.039671">
<ele>167.404419</ele>
<time>2010-07-17T17:10:04Z</time>
<desc>lat.=55.760002, lon.=26.039671, Alt.=167.404419m. Speed=0.036000m/h.</desc>
<speed>0.010000</speed>
</trkpt>
<trkpt lat="55.760002" lon="26.039671">
<ele>167.408325</ele>
<time>2010-07-17T17:10:05Z</time>
<desc>lat.=55.760002, lon.=26.039671, Alt.=167.408325m. Speed=0.036000m/h.</desc>
<speed>0.010000</speed>
</trkpt>
<trkpt lat="55.760002" lon="26.039671">
<ele>167.412231</ele>
<time>2010-07-17T17:10:06Z</time>
<desc>lat.=55.760002, lon.=26.039671, Alt.=167.412231m. Speed=0.144000m/h.</desc>
<speed>0.040000</speed>
</trkpt>
<trkpt lat="55.760002" lon="26.039671">
<ele>167.416138</ele>
<time>2010-07-17T17:10:07Z</time>
<desc>lat.=55.760002, lon.=26.039671, Alt.=167.416138m. Speed=0.072000m/h.</desc>
<speed>0.020000</speed>
</trkpt>
<trkpt lat="55.760002" lon="26.039671">
<ele>167.416138</ele>
<time>2010-07-17T17:10:08Z</time>
<desc>lat.=55.760002, lon.=26.039671, Alt.=167.416138m. Speed=0.108000m/h.</desc>
<speed>0.030000</speed>
</trkpt>
<trkpt lat="55.760002" lon="26.039671">
<ele>167.416138</ele>
<time>2010-07-17T17:10:09Z</time>
<desc>lat.=55.760002, lon.=26.039671, Alt.=167.416138m. Speed=0.216000m/h.</desc>
<speed>0.060000</speed>
</trkpt>
<trkpt lat="55.760002" lon="26.039673">
<ele>167.420044</ele>
<time>2010-07-17T17:10:10Z</time>
<desc>lat.=55.760002, lon.=26.039673, Alt.=167.420044m. Speed=0.180000m/h.</desc>
<speed>0.050000</speed>
</trkpt>
<trkpt lat="55.759998" lon="26.039673">
<ele>167.423950</ele>
<time>2010-07-17T17:10:11Z</time>
<desc>lat.=55.759998, lon.=26.039673, Alt.=167.423950m. Speed=0.216000m/h.</desc>
<speed>0.060000</speed>
</trkpt>
<trkpt lat="55.759998" lon="26.039673">
<ele>167.431763</ele>
<time>2010-07-17T17:10:12Z</time>
<desc>lat.=55.759998, lon.=26.039673, Alt.=167.431763m. Speed=0.216000m/h.</desc>
<speed>0.060000</speed>
</trkpt>
<trkpt lat="55.759998" lon="26.039673">
<ele>167.439575</ele>
<time>2010-07-17T17:10:13Z</time>
<desc>lat.=55.759998, lon.=26.039673, Alt.=167.439575m. Speed=0.252000m/h.</desc>
<speed>0.070000</speed>
</trkpt>
<trkpt lat="55.759998" lon="26.039673">
<ele>167.447388</ele>
<time>2010-07-17T17:10:14Z</time>
<desc>lat.=55.759998, lon.=26.039673, Alt.=167.447388m. Speed=0.108000m/h.</desc>
<speed>0.030000</speed>
</trkpt>
<trkpt lat="55.759998" lon="26.039673">
<ele>167.455200</ele>
<time>2010-07-17T17:10:15Z</time>
<desc>lat.=55.759998, lon.=26.039673, Alt.=167.455200m. Speed=0.144000m/h.</desc>
<speed>0.040000</speed>
</trkpt>
<trkpt lat="55.759998" lon="26.039673">
<ele>167.466919</ele>
<time>2010-07-17T17:10:16Z</time>
<desc>lat.=55.759998, lon.=26.039673, Alt.=167.466919m. Speed=0.108000m/h.</desc>
<speed>0.030000</speed>
</trkpt>
<trkpt lat="55.759998" lon="26.039675">
<ele>167.474731</ele>
<time>2010-07-17T17:10:17Z</time>
<desc>lat.=55.759998, lon.=26.039675, Alt.=167.474731m. Speed=0.072000m/h.</desc>
<speed>0.020000</speed>
</trkpt>
<trkpt lat="55.759998" lon="26.039675">
<ele>167.486450</ele>
<time>2010-07-17T17:10:18Z</time>
<desc>lat.=55.759998, lon.=26.039675, Alt.=167.486450m. Speed=0.108000m/h.</desc>
<speed>0.030000</speed>
</trkpt>
<trkpt lat="55.759998" lon="26.039675">
<ele>167.490356</ele>
<time>2010-07-17T17:10:19Z</time>
<desc>lat.=55.759998, lon.=26.039675, Alt.=167.490356m. Speed=0.216000m/h.</desc>
<speed>0.060000</speed>
</trkpt>
<trkpt lat="55.759998" lon="26.039675">
<ele>167.494263</ele>
<time>2010-07-17T17:10:20Z</time>
<desc>lat.=55.759998, lon.=26.039675, Alt.=167.494263m. Speed=0.000000m/h.</desc>
<speed>0.000000</speed>
</trkpt>
<trkpt lat="55.759998" lon="26.039675">
<ele>167.494263</ele>
<time>2010-07-17T17:10:21Z</time>
<desc>lat.=55.759998, lon.=26.039675, Alt.=167.494263m. Speed=0.036000m/h.</desc>
<speed>0.010000</speed>
</trkpt>
<trkpt lat="55.759998" lon="26.039675">
<ele>167.498169</ele>
<time>2010-07-17T17:10:22Z</time>
<desc>lat.=55.759998, lon.=26.039675, Alt.=167.498169m. Speed=0.000000m/h.</desc>
<speed>0.000000</speed>
</trkpt>
<trkpt lat="55.759995" lon="26.039675">
<ele>167.505981</ele>
<time>2010-07-17T17:10:23Z</time>
<desc>lat.=55.759995, lon.=26.039675, Alt.=167.505981m. Speed=0.000000m/h.</desc>
<speed>0.000000</speed>
</trkpt>
<trkpt lat="55.759995" lon="26.039675">
<ele>167.509888</ele>
<time>2010-07-17T17:10:24Z</time>
<desc>lat.=55.759995, lon.=26.039675, Alt.=167.509888m. Speed=0.000000m/h.</desc>
<speed>0.000000</speed>
</trkpt>
<trkpt lat="55.759995" lon="26.039675">
<ele>167.513794</ele>
<time>2010-07-17T17:10:25Z</time>
<desc>lat.=55.759995, lon.=26.039675, Alt.=167.513794m. Speed=0.036000m/h.</desc>
<speed>0.010000</speed>
</trkpt>
<trkpt lat="55.759995" lon="26.039675">
<ele>167.517700</ele>
<time>2010-07-17T17:10:26Z</time>
<desc>lat.=55.759995, lon.=26.039675, Alt.=167.517700m. Speed=0.000000m/h.</desc>
<speed>0.000000</speed>
</trkpt>
<trkpt lat="55.759995" lon="26.039675">
<ele>167.525513</ele>
<time>2010-07-17T17:10:27Z</time>
<desc>lat.=55.759995, lon.=26.039675, Alt.=167.525513m. Speed=0.000000m/h.</desc>
<speed>0.000000</speed>
</trkpt>
<trkpt lat="55.759995" lon="26.039675">
<ele>167.525513</ele>
<time>2010-07-17T17:10:28Z</time>
<desc>lat.=55.759995, lon.=26.039675, Alt.=167.525513m. Speed=0.036000m/h.</desc>
<speed>0.010000</speed>
</trkpt>
<trkpt lat="55.759995" lon="26.039675">
<ele>167.529419</ele>
<time>2010-07-17T17:10:29Z</time>
<desc>lat.=55.759995, lon.=26.039675, Alt.=167.529419m. Speed=0.108000m/h.</desc>
<speed>0.030000</speed>
</trkpt>
<trkpt lat="55.759995" lon="26.039675">
<ele>167.537231</ele>
<time>2010-07-17T17:10:30Z</time>
<desc>lat.=55.759995, lon.=26.039675, Alt.=167.537231m. Speed=0.072000m/h.</desc>
<speed>0.020000</speed>
</trkpt>
<trkpt lat="55.759995" lon="26.039675">
<ele>167.545044</ele>
<time>2010-07-17T17:10:31Z</time>
<desc>lat.=55.759995, lon.=26.039675, Alt.=167.545044m. Speed=0.144000m/h.</desc>
<speed>0.040000</speed>
</trkpt>
<trkpt lat="55.759995" lon="26.039675">
<ele>167.556763</ele>
<time>2010-07-17T17:10:32Z</time>
<desc>lat.=55.759995, lon.=26.039675, Alt.=167.556763m. Speed=0.108000m/h.</desc>
<speed>0.030000</speed>
</trkpt>
<trkpt lat="55.759995" lon="26.039673">
<ele>167.564575</ele>
<time>2010-07-17T17:10:33Z</time>
<desc>lat.=55.759995, lon.=26.039673, Alt.=167.564575m. Speed=0.072000m/h.</desc>
<speed>0.020000</speed>
</trkpt>
<trkpt lat="55.759995" lon="26.039673">
<ele>167.572388</ele>
<time>2010-07-17T17:10:34Z</time>
<desc>lat.=55.759995, lon.=26.039673, Alt.=167.572388m. Speed=0.036000m/h.</desc>
<speed>0.010000</speed>
</trkpt>
<trkpt lat="55.759995" lon="26.039673">
<ele>167.580200</ele>
<time>2010-07-17T17:10:35Z</time>
<desc>lat.=55.759995, lon.=26.039673, Alt.=167.580200m. Speed=0.036000m/h.</desc>
<speed>0.010000</speed>
</trkpt>
<trkpt lat="55.759995" lon="26.039673">
<ele>167.588013</ele>
<time>2010-07-17T17:10:36Z</time>
<desc>lat.=55.759995, lon.=26.039673, Alt.=167.588013m. Speed=0.036000m/h.</desc>
<speed>0.010000</speed>
</trkpt>
<trkpt lat="55.759995" lon="26.039673">
<ele>167.591919</ele>
<time>2010-07-17T17:10:37Z</time>
<desc>lat.=55.759995, lon.=26.039673, Alt.=167.591919m. Speed=0.000000m/h.</desc>
<speed>0.000000</speed>
</trkpt>
<trkpt lat="55.759995" lon="26.039673">
<ele>167.595825</ele>
<time>2010-07-17T17:10:38Z</time>
<desc>lat.=55.759995, lon.=26.039673, Alt.=167.595825m. Speed=0.036000m/h.</desc>
<speed>0.010000</speed>
</trkpt>
<trkpt lat="55.759995" lon="26.039673">
<ele>167.603638</ele>
<time>2010-07-17T17:10:39Z</time>
<desc>lat.=55.759995, lon.=26.039673, Alt.=167.603638m. Speed=0.072000m/h.</desc>
<speed>0.020000</speed>
</trkpt>
<trkpt lat="55.759995" lon="26.039673">
<ele>167.607544</ele>
<time>2010-07-17T17:10:40Z</time>
<desc>lat.=55.759995, lon.=26.039673, Alt.=167.607544m. Speed=0.000000m/h.</desc>
<speed>0.000000</speed>
</trkpt>
<trkpt lat="55.759995" lon="26.039673">
<ele>167.611450</ele>
<time>2010-07-17T17:10:41Z</time>
<desc>lat.=55.759995, lon.=26.039673, Alt.=167.611450m. Speed=0.072000m/h.</desc>
<speed>0.020000</speed>
</trkpt>
<trkpt lat="55.759995" lon="26.039673">
<ele>167.619263</ele>
<time>2010-07-17T17:10:42Z</time>
<desc>lat.=55.759995, lon.=26.039673, Alt.=167.619263m. Speed=0.036000m/h.</desc>
<speed>0.010000</speed>
</trkpt>
<trkpt lat="55.759995" lon="26.039673">
<ele>167.623169</ele>
<time>2010-07-17T17:10:43Z</time>
<desc>lat.=55.759995, lon.=26.039673, Alt.=167.623169m. Speed=0.000000m/h.</desc>
<speed>0.000000</speed>
</trkpt>
<trkpt lat="55.759995" lon="26.039673">
<ele>167.630981</ele>
<time>2010-07-17T17:10:44Z</time>
<desc>lat.=55.759995, lon.=26.039673, Alt.=167.630981m. Speed=0.000000m/h.</desc>
<speed>0.000000</speed>
</trkpt>
<trkpt lat="55.759995" lon="26.039673">
<ele>167.634888</ele>
<time>2010-07-17T17:10:45Z</time>
<desc>lat.=55.759995, lon.=26.039673, Alt.=167.634888m. Speed=0.000000m/h.</desc>
<speed>0.000000</speed>
</trkpt>
<trkpt lat="55.759995" lon="26.039673">
<ele>167.638794</ele>
<time>2010-07-17T17:10:46Z</time>
<desc>lat.=55.759995, lon.=26.039673, Alt.=167.638794m. Speed=0.036000m/h.</desc>
<speed>0.010000</speed>
</trkpt>
<trkpt lat="55.759995" lon="26.039673">
<ele>167.650513</ele>
<time>2010-07-17T17:10:47Z</time>
<desc>lat.=55.759995, lon.=26.039673, Alt.=167.650513m. Speed=0.000000m/h.</desc>
<speed>0.000000</speed>
</trkpt>
<trkpt lat="55.759995" lon="26.039673">
<ele>167.658325</ele>
<time>2010-07-17T17:10:48Z</time>
<desc>lat.=55.759995, lon.=26.039673, Alt.=167.658325m. Speed=0.108000m/h.</desc>
<speed>0.030000</speed>
</trkpt>
<trkpt lat="55.759995" lon="26.039673">
<ele>167.662231</ele>
<time>2010-07-17T17:10:49Z</time>
<desc>lat.=55.759995, lon.=26.039673, Alt.=167.662231m. Speed=0.036000m/h.</desc>
<speed>0.010000</speed>
</trkpt>
<trkpt lat="55.759995" lon="26.039673">
<ele>167.658325</ele>
<time>2010-07-17T17:10:50Z</time>
<desc>lat.=55.759995, lon.=26.039673, Alt.=167.658325m. Speed=0.036000m/h.</desc>
<speed>0.010000</speed>
</trkpt>
<trkpt lat="55.759995" lon="26.039673">
<ele>167.658325</ele>
<time>2010-07-17T17:10:51Z</time>
<desc>lat.=55.759995, lon.=26.039673, Alt.=167.658325m. Speed=0.036000m/h.</desc>
<speed>0.010000</speed>
</trkpt>
<trkpt lat="55.759995" lon="26.039673">
<ele>167.662231</ele>
<time>2010-07-17T17:10:52Z</time>
<desc>lat.=55.759995, lon.=26.039673, Alt.=167.662231m. Speed=0.036000m/h.</desc>
<speed>0.010000</speed>
</trkpt>
<trkpt lat="55.759995" lon="26.039673">
<ele>167.666138</ele>
<time>2010-07-17T17:10:53Z</time>
<desc>lat.=55.759995, lon.=26.039673, Alt.=167.666138m. Speed=0.072000m/h.</desc>
<speed>0.020000</speed>
</trkpt>
<trkpt lat="55.759995" lon="26.039673">
<ele>167.670044</ele>
<time>2010-07-17T17:10:54Z</time>
<desc>lat.=55.759995, lon.=26.039673, Alt.=167.670044m. Speed=0.108000m/h.</desc>
<speed>0.030000</speed>
</trkpt>
<trkpt lat="55.759995" lon="26.039673">
<ele>167.673950</ele>
<time>2010-07-17T17:10:55Z</time>
<desc>lat.=55.759995, lon.=26.039673, Alt.=167.673950m. Speed=0.036000m/h.</desc>
<speed>0.010000</speed>
</trkpt>
<trkpt lat="55.759995" lon="26.039671">
<ele>167.677856</ele>
<time>2010-07-17T17:10:56Z</time>
<desc>lat.=55.759995, lon.=26.039671, Alt.=167.677856m. Speed=0.036000m/h.</desc>
<speed>0.010000</speed>
</trkpt>
<trkpt lat="55.759995" lon="26.039671">
<ele>167.681763</ele>
<time>2010-07-17T17:10:57Z</time>
<desc>lat.=55.759995, lon.=26.039671, Alt.=167.681763m. Speed=0.036000m/h.</desc>
<speed>0.010000</speed>
</trkpt>
<trkpt lat="55.759995" lon="26.039671">
<ele>167.681763</ele>
<time>2010-07-17T17:10:58Z</time>
<desc>lat.=55.759995, lon.=26.039671, Alt.=167.681763m. Speed=0.000000m/h.</desc>
<speed>0.000000</speed>
</trkpt>
<trkpt lat="55.759995" lon="26.039671">
<ele>167.685669</ele>
<time>2010-07-17T17:10:59Z</time>
<desc>lat.=55.759995, lon.=26.039671, Alt.=167.685669m. Speed=0.000000m/h.</desc>
<speed>0.000000</speed>
</trkpt>
<trkpt lat="55.759995" lon="26.039673">
<ele>167.685669</ele>
<time>2010-07-17T17:11:00Z</time>
<desc>lat.=55.759995, lon.=26.039673, Alt.=167.685669m. Speed=0.000000m/h.</desc>
<speed>0.000000</speed>
</trkpt>
<trkpt lat="55.759995" lon="26.039673">
<ele>167.685669</ele>
<time>2010-07-17T17:11:01Z</time>
<desc>lat.=55.759995, lon.=26.039673, Alt.=167.685669m. Speed=0.000000m/h.</desc>
<speed>0.000000</speed>
</trkpt>
<trkpt lat="55.759995" lon="26.039673">
<ele>167.689575</ele>
<time>2010-07-17T17:11:02Z</time>
<desc>lat.=55.759995, lon.=26.039673, Alt.=167.689575m. Speed=0.036000m/h.</desc>
<speed>0.010000</speed>
</trkpt>
<trkpt lat="55.759995" lon="26.039673">
<ele>167.689575</ele>
<time>2010-07-17T17:11:03Z</time>
<desc>lat.=55.759995, lon.=26.039673, Alt.=167.689575m. Speed=0.108000m/h.</desc>
<speed>0.030000</speed>
</trkpt>
<trkpt lat="55.759995" lon="26.039673">
<ele>167.689575</ele>
<time>2010-07-17T17:11:04Z</time>
<desc>lat.=55.759995, lon.=26.039673, Alt.=167.689575m. Speed=0.216000m/h.</desc>
<speed>0.060000</speed>
</trkpt>
<trkpt lat="55.759995" lon="26.039673">
<ele>167.689575</ele>
<time>2010-07-17T17:11:05Z</time>
<desc>lat.=55.759995, lon.=26.039673, Alt.=167.689575m. Speed=0.036000m/h.</desc>
<speed>0.010000</speed>
</trkpt>
<trkpt lat="55.759995" lon="26.039673">
<ele>167.685669</ele>
<time>2010-07-17T17:11:06Z</time>
<desc>lat.=55.759995, lon.=26.039673, Alt.=167.685669m. Speed=0.000000m/h.</desc>
<speed>0.000000</speed>
</trkpt>
<trkpt lat="55.759995" lon="26.039673">
<ele>167.677856</ele>
<time>2010-07-17T17:11:07Z</time>
<desc>lat.=55.759995, lon.=26.039673, Alt.=167.677856m. Speed=0.036000m/h.</desc>
<speed>0.010000</speed>
</trkpt>
<trkpt lat="55.759995" lon="26.039673">
<ele>167.677856</ele>
<time>2010-07-17T17:11:08Z</time>
<desc>lat.=55.759995, lon.=26.039673, Alt.=167.677856m. Speed=0.108000m/h.</desc>
<speed>0.030000</speed>
</trkpt>
<trkpt lat="55.759995" lon="26.039673">
<ele>167.677856</ele>
<time>2010-07-17T17:11:09Z</time>
<desc>lat.=55.759995, lon.=26.039673, Alt.=167.677856m. Speed=0.180000m/h.</desc>
<speed>0.050000</speed>
</trkpt>
<trkpt lat="55.759995" lon="26.039673">
<ele>167.677856</ele>
<time>2010-07-17T17:11:10Z</time>
<desc>lat.=55.759995, lon.=26.039673, Alt.=167.677856m. Speed=0.144000m/h.</desc>
<speed>0.040000</speed>
</trkpt>
<trkpt lat="55.759995" lon="26.039673">
<ele>167.677856</ele>
<time>2010-07-17T17:11:11Z</time>
<desc>lat.=55.759995, lon.=26.039673, Alt.=167.677856m. Speed=0.036000m/h.</desc>
<speed>0.010000</speed>
</trkpt>
<trkpt lat="55.759995" lon="26.039673">
<ele>167.673950</ele>
<time>2010-07-17T17:11:12Z</time>
<desc>lat.=55.759995, lon.=26.039673, Alt.=167.673950m. Speed=0.036000m/h.</desc>
<speed>0.010000</speed>
</trkpt>
<trkpt lat="55.759995" lon="26.039673">
<ele>167.670044</ele>
<time>2010-07-17T17:11:13Z</time>
<desc>lat.=55.759995, lon.=26.039673, Alt.=167.670044m. Speed=0.000000m/h.</desc>
<speed>0.000000</speed>
</trkpt>
<trkpt lat="55.759995" lon="26.039673">
<ele>167.666138</ele>
<time>2010-07-17T17:11:14Z</time>
<desc>lat.=55.759995, lon.=26.039673, Alt.=167.666138m. Speed=0.000000m/h.</desc>
<speed>0.000000</speed>
</trkpt>
<trkpt lat="55.759995" lon="26.039675">
<ele>167.673950</ele>
<time>2010-07-17T17:11:15Z</time>
<desc>lat.=55.759995, lon.=26.039675, Alt.=167.673950m. Speed=0.072000m/h.</desc>
<speed>0.020000</speed>
</trkpt>
<trkpt lat="55.759995" lon="26.039675">
<ele>167.673950</ele>
<time>2010-07-17T17:11:16Z</time>
<desc>lat.=55.759995, lon.=26.039675, Alt.=167.673950m. Speed=0.108000m/h.</desc>
<speed>0.030000</speed>
</trkpt>
<trkpt lat="55.759995" lon="26.039675">
<ele>167.673950</ele>
<time>2010-07-17T17:11:17Z</time>
<desc>lat.=55.759995, lon.=26.039675, Alt.=167.673950m. Speed=0.144000m/h.</desc>
<speed>0.040000</speed>
</trkpt>
<trkpt lat="55.759995" lon="26.039675">
<ele>167.673950</ele>
<time>2010-07-17T17:11:18Z</time>
<desc>lat.=55.759995, lon.=26.039675, Alt.=167.673950m. Speed=0.036000m/h.</desc>
<speed>0.010000</speed>
</trkpt>
<trkpt lat="55.759995" lon="26.039675">
<ele>167.670044</ele>
<time>2010-07-17T17:11:19Z</time>
<desc>lat.=55.759995, lon.=26.039675, Alt.=167.670044m. Speed=0.072000m/h.</desc>
<speed>0.020000</speed>
</trkpt>
<trkpt lat="55.759995" lon="26.039675">
<ele>167.666138</ele>
<time>2010-07-17T17:11:20Z</time>
<desc>lat.=55.759995, lon.=26.039675, Alt.=167.666138m. Speed=0.036000m/h.</desc>
<speed>0.010000</speed>
</trkpt>
<trkpt lat="55.759995" lon="26.039675">
<ele>167.666138</ele>
<time>2010-07-17T17:11:21Z</time>
<desc>lat.=55.759995, lon.=26.039675, Alt.=167.666138m. Speed=0.072000m/h.</desc>
<speed>0.020000</speed>
</trkpt>
<trkpt lat="55.759995" lon="26.039675">
<ele>167.666138</ele>
<time>2010-07-17T17:11:22Z</time>
<desc>lat.=55.759995, lon.=26.039675, Alt.=167.666138m. Speed=0.108000m/h.</desc>
<speed>0.030000</speed>
</trkpt>
<trkpt lat="55.759995" lon="26.039677">
<ele>167.670044</ele>
<time>2010-07-17T17:11:23Z</time>
<desc>lat.=55.759995, lon.=26.039677, Alt.=167.670044m. Speed=0.072000m/h.</desc>
<speed>0.020000</speed>
</trkpt>
<trkpt lat="55.759995" lon="26.039677">
<ele>167.673950</ele>
<time>2010-07-17T17:11:24Z</time>
<desc>lat.=55.759995, lon.=26.039677, Alt.=167.673950m. Speed=0.072000m/h.</desc>
<speed>0.020000</speed>
</trkpt>
<trkpt lat="55.759995" lon="26.039677">
<ele>167.670044</ele>
<time>2010-07-17T17:11:25Z</time>
<desc>lat.=55.759995, lon.=26.039677, Alt.=167.670044m. Speed=0.036000m/h.</desc>
<speed>0.010000</speed>
</trkpt>
<trkpt lat="55.759995" lon="26.039677">
<ele>167.673950</ele>
<time>2010-07-17T17:11:26Z</time>
<desc>lat.=55.759995, lon.=26.039677, Alt.=167.673950m. Speed=0.144000m/h.</desc>
<speed>0.040000</speed>
</trkpt>
<trkpt lat="55.759995" lon="26.039677">
<ele>167.681763</ele>
<time>2010-07-17T17:11:27Z</time>
<desc>lat.=55.759995, lon.=26.039677, Alt.=167.681763m. Speed=0.108000m/h.</desc>
<speed>0.030000</speed>
</trkpt>
<trkpt lat="55.759995" lon="26.039677">
<ele>167.685669</ele>
<time>2010-07-17T17:11:28Z</time>
<desc>lat.=55.759995, lon.=26.039677, Alt.=167.685669m. Speed=0.072000m/h.</desc>
<speed>0.020000</speed>
</trkpt>
<trkpt lat="55.759995" lon="26.039677">
<ele>167.693481</ele>
<time>2010-07-17T17:11:29Z</time>
<desc>lat.=55.759995, lon.=26.039677, Alt.=167.693481m. Speed=0.072000m/h.</desc>
<speed>0.020000</speed>
</trkpt>
<trkpt lat="55.759995" lon="26.039677">
<ele>167.701294</ele>
<time>2010-07-17T17:11:30Z</time>
<desc>lat.=55.759995, lon.=26.039677, Alt.=167.701294m. Speed=0.036000m/h.</desc>
<speed>0.010000</speed>
</trkpt>
<trkpt lat="55.759995" lon="26.039677">
<ele>167.709106</ele>
<time>2010-07-17T17:11:31Z</time>
<desc>lat.=55.759995, lon.=26.039677, Alt.=167.709106m. Speed=0.072000m/h.</desc>
<speed>0.020000</speed>
</trkpt>
<trkpt lat="55.759995" lon="26.039677">
<ele>167.716919</ele>
<time>2010-07-17T17:11:32Z</time>
<desc>lat.=55.759995, lon.=26.039677, Alt.=167.716919m. Speed=0.108000m/h.</desc>
<speed>0.030000</speed>
</trkpt>
<trkpt lat="55.759995" lon="26.039677">
<ele>167.736450</ele>
<time>2010-07-17T17:11:33Z</time>
<desc>lat.=55.759995, lon.=26.039677, Alt.=167.736450m. Speed=0.036000m/h.</desc>
<speed>0.010000</speed>
</trkpt>
<trkpt lat="55.759998" lon="26.039677">
<ele>167.744263</ele>
<time>2010-07-17T17:11:34Z</time>
<desc>lat.=55.759998, lon.=26.039677, Alt.=167.744263m. Speed=0.108000m/h.</desc>
<speed>0.030000</speed>
</trkpt>
<trkpt lat="55.759998" lon="26.039677">
<ele>167.748169</ele>
<time>2010-07-17T17:11:35Z</time>
<desc>lat.=55.759998, lon.=26.039677, Alt.=167.748169m. Speed=0.036000m/h.</desc>
<speed>0.010000</speed>
</trkpt>
<trkpt lat="55.759998" lon="26.039677">
<ele>167.748169</ele>
<time>2010-07-17T17:11:36Z</time>
<desc>lat.=55.759998, lon.=26.039677, Alt.=167.748169m. Speed=0.144000m/h.</desc>
<speed>0.040000</speed>
</trkpt>
<trkpt lat="55.759998" lon="26.039677">
<ele>167.748169</ele>
<time>2010-07-17T17:11:37Z</time>
<desc>lat.=55.759998, lon.=26.039677, Alt.=167.748169m. Speed=0.108000m/h.</desc>
<speed>0.030000</speed>
</trkpt>
<trkpt lat="55.759998" lon="26.039677">
<ele>167.752075</ele>
<time>2010-07-17T17:11:38Z</time>
<desc>lat.=55.759998, lon.=26.039677, Alt.=167.752075m. Speed=0.036000m/h.</desc>
<speed>0.010000</speed>
</trkpt>
<trkpt lat="55.759998" lon="26.039677">
<ele>167.755981</ele>
<time>2010-07-17T17:11:39Z</time>
<desc>lat.=55.759998, lon.=26.039677, Alt.=167.755981m. Speed=0.144000m/h.</desc>
<speed>0.040000</speed>
</trkpt>
<trkpt lat="55.759998" lon="26.039679">
<ele>167.763794</ele>
<time>2010-07-17T17:11:40Z</time>
<desc>lat.=55.759998, lon.=26.039679, Alt.=167.763794m. Speed=0.072000m/h.</desc>
<speed>0.020000</speed>
</trkpt>
<trkpt lat="55.759998" lon="26.039679">
<ele>167.771606</ele>
<time>2010-07-17T17:11:41Z</time>
<desc>lat.=55.759998, lon.=26.039679, Alt.=167.771606m. Speed=0.000000m/h.</desc>
<speed>0.000000</speed>
</trkpt>
<trkpt lat="55.759998" lon="26.039679">
<ele>167.775513</ele>
<time>2010-07-17T17:11:42Z</time>
<desc>lat.=55.759998, lon.=26.039679, Alt.=167.775513m. Speed=0.036000m/h.</desc>
<speed>0.010000</speed>
</trkpt>
<trkpt lat="55.759998" lon="26.039679">
<ele>167.775513</ele>
<time>2010-07-17T17:11:43Z</time>
<desc>lat.=55.759998, lon.=26.039679, Alt.=167.775513m. Speed=0.036000m/h.</desc>
<speed>0.010000</speed>
</trkpt>
<trkpt lat="55.759998" lon="26.039679">
<ele>167.779419</ele>
<time>2010-07-17T17:11:44Z</time>
<desc>lat.=55.759998, lon.=26.039679, Alt.=167.779419m. Speed=0.000000m/h.</desc>
<speed>0.000000</speed>
</trkpt>
<trkpt lat="55.759998" lon="26.039679">
<ele>167.783325</ele>
<time>2010-07-17T17:11:45Z</time>
<desc>lat.=55.759998, lon.=26.039679, Alt.=167.783325m. Speed=0.036000m/h.</desc>
<speed>0.010000</speed>
</trkpt>
<trkpt lat="55.759998" lon="26.039677">
<ele>167.783325</ele>
<time>2010-07-17T17:11:46Z</time>
<desc>lat.=55.759998, lon.=26.039677, Alt.=167.783325m. Speed=0.072000m/h.</desc>
<speed>0.020000</speed>
</trkpt>
<trkpt lat="55.759998" lon="26.039677">
<ele>167.787231</ele>
<time>2010-07-17T17:11:47Z</time>
<desc>lat.=55.759998, lon.=26.039677, Alt.=167.787231m. Speed=0.108000m/h.</desc>
<speed>0.030000</speed>
</trkpt>
<trkpt lat="55.759995" lon="26.039677">
<ele>167.779419</ele>
<time>2010-07-17T17:11:48Z</time>
<desc>lat.=55.759995, lon.=26.039677, Alt.=167.779419m. Speed=0.180000m/h.</desc>
<speed>0.050000</speed>
</trkpt>
<trkpt lat="55.759995" lon="26.039677">
<ele>167.775513</ele>
<time>2010-07-17T17:11:49Z</time>
<desc>lat.=55.759995, lon.=26.039677, Alt.=167.775513m. Speed=0.144000m/h.</desc>
<speed>0.040000</speed>
</trkpt>
<trkpt lat="55.759995" lon="26.039677">
<ele>167.767700</ele>
<time>2010-07-17T17:11:50Z</time>
<desc>lat.=55.759995, lon.=26.039677, Alt.=167.767700m. Speed=0.108000m/h.</desc>
<speed>0.030000</speed>
</trkpt>
<trkpt lat="55.759995" lon="26.039677">
<ele>167.763794</ele>
<time>2010-07-17T17:11:51Z</time>
<desc>lat.=55.759995, lon.=26.039677, Alt.=167.763794m. Speed=0.072000m/h.</desc>
<speed>0.020000</speed>
</trkpt>
<trkpt lat="55.759995" lon="26.039677">
<ele>167.755981</ele>
<time>2010-07-17T17:11:52Z</time>
<desc>lat.=55.759995, lon.=26.039677, Alt.=167.755981m. Speed=0.072000m/h.</desc>
<speed>0.020000</speed>
</trkpt>
<trkpt lat="55.759995" lon="26.039677">
<ele>167.748169</ele>
<time>2010-07-17T17:11:53Z</time>
<desc>lat.=55.759995, lon.=26.039677, Alt.=167.748169m. Speed=0.036000m/h.</desc>
<speed>0.010000</speed>
</trkpt>
<trkpt lat="55.759995" lon="26.039677">
<ele>167.740356</ele>
<time>2010-07-17T17:11:54Z</time>
<desc>lat.=55.759995, lon.=26.039677, Alt.=167.740356m. Speed=0.000000m/h.</desc>
<speed>0.000000</speed>
</trkpt>
<trkpt lat="55.759995" lon="26.039675">
<ele>167.728638</ele>
<time>2010-07-17T17:11:55Z</time>
<desc>lat.=55.759995, lon.=26.039675, Alt.=167.728638m. Speed=0.108000m/h.</desc>
<speed>0.030000</speed>
</trkpt>
<trkpt lat="55.759995" lon="26.039675">
<ele>167.716919</ele>
<time>2010-07-17T17:11:56Z</time>
<desc>lat.=55.759995, lon.=26.039675, Alt.=167.716919m. Speed=0.180000m/h.</desc>
<speed>0.050000</speed>
</trkpt>
<trkpt lat="55.759995" lon="26.039675">
<ele>167.705200</ele>
<time>2010-07-17T17:11:57Z</time>
<desc>lat.=55.759995, lon.=26.039675, Alt.=167.705200m. Speed=0.144000m/h.</desc>
<speed>0.040000</speed>
</trkpt>
<trkpt lat="55.759995" lon="26.039673">
<ele>167.697388</ele>
<time>2010-07-17T17:11:58Z</time>
<desc>lat.=55.759995, lon.=26.039673, Alt.=167.697388m. Speed=0.108000m/h.</desc>
<speed>0.030000</speed>
</trkpt>
<trkpt lat="55.759995" lon="26.039673">
<ele>167.685669</ele>
<time>2010-07-17T17:11:59Z</time>
<desc>lat.=55.759995, lon.=26.039673, Alt.=167.685669m. Speed=0.108000m/h.</desc>
<speed>0.030000</speed>
</trkpt>
<trkpt lat="55.759995" lon="26.039673">
<ele>167.677856</ele>
<time>2010-07-17T17:12:00Z</time>
<desc>lat.=55.759995, lon.=26.039673, Alt.=167.677856m. Speed=0.036000m/h.</desc>
<speed>0.010000</speed>
</trkpt>
<trkpt lat="55.759995" lon="26.039673">
<ele>167.662231</ele>
<time>2010-07-17T17:12:01Z</time>
<desc>lat.=55.759995, lon.=26.039673, Alt.=167.662231m. Speed=0.072000m/h.</desc>
<speed>0.020000</speed>
</trkpt>
<trkpt lat="55.759995" lon="26.039673">
<ele>167.646606</ele>
<time>2010-07-17T17:12:02Z</time>
<desc>lat.=55.759995, lon.=26.039673, Alt.=167.646606m. Speed=0.000000m/h.</desc>
<speed>0.000000</speed>
</trkpt>
<trkpt lat="55.759995" lon="26.039673">
<ele>167.630981</ele>
<time>2010-07-17T17:12:03Z</time>
<desc>lat.=55.759995, lon.=26.039673, Alt.=167.630981m. Speed=0.000000m/h.</desc>
<speed>0.000000</speed>
</trkpt>
<trkpt lat="55.759995" lon="26.039673">
<ele>167.615356</ele>
<time>2010-07-17T17:12:04Z</time>
<desc>lat.=55.759995, lon.=26.039673, Alt.=167.615356m. Speed=0.000000m/h.</desc>
<speed>0.000000</speed>
</trkpt>
<trkpt lat="55.759995" lon="26.039673">
<ele>167.599731</ele>
<time>2010-07-17T17:12:05Z</time>
<desc>lat.=55.759995, lon.=26.039673, Alt.=167.599731m. Speed=0.000000m/h.</desc>
<speed>0.000000</speed>
</trkpt>
<trkpt lat="55.759995" lon="26.039673">
<ele>167.584106</ele>
<time>2010-07-17T17:12:06Z</time>
<desc>lat.=55.759995, lon.=26.039673, Alt.=167.584106m. Speed=0.072000m/h.</desc>
<speed>0.020000</speed>
</trkpt>
<trkpt lat="55.759995" lon="26.039673">
<ele>167.560669</ele>
<time>2010-07-17T17:12:07Z</time>
<desc>lat.=55.759995, lon.=26.039673, Alt.=167.560669m. Speed=0.180000m/h.</desc>
<speed>0.050000</speed>
</trkpt>
<trkpt lat="55.759995" lon="26.039673">
<ele>167.545044</ele>
<time>2010-07-17T17:12:08Z</time>
<desc>lat.=55.759995, lon.=26.039673, Alt.=167.545044m. Speed=0.252000m/h.</desc>
<speed>0.070000</speed>
</trkpt>
<trkpt lat="55.759995" lon="26.039675">
<ele>167.533325</ele>
<time>2010-07-17T17:12:09Z</time>
<desc>lat.=55.759995, lon.=26.039675, Alt.=167.533325m. Speed=0.252000m/h.</desc>
<speed>0.070000</speed>
</trkpt>
<trkpt lat="55.759995" lon="26.039677">
<ele>167.529419</ele>
<time>2010-07-17T17:12:10Z</time>
<desc>lat.=55.759995, lon.=26.039677, Alt.=167.529419m. Speed=0.288000m/h.</desc>
<speed>0.080000</speed>
</trkpt>
<trkpt lat="55.759995" lon="26.039677">
<ele>167.517700</ele>
<time>2010-07-17T17:12:11Z</time>
<desc>lat.=55.759995, lon.=26.039677, Alt.=167.517700m. Speed=0.252000m/h.</desc>
<speed>0.070000</speed>
</trkpt>
<trkpt lat="55.759995" lon="26.039679">
<ele>167.509888</ele>
<time>2010-07-17T17:12:12Z</time>
<desc>lat.=55.759995, lon.=26.039679, Alt.=167.509888m. Speed=0.180000m/h.</desc>
<speed>0.050000</speed>
</trkpt>
<trkpt lat="55.759995" lon="26.039679">
<ele>167.505981</ele>
<time>2010-07-17T17:12:13Z</time>
<desc>lat.=55.759995, lon.=26.039679, Alt.=167.505981m. Speed=0.252000m/h.</desc>
<speed>0.070000</speed>
</trkpt>
<trkpt lat="55.759995" lon="26.039680">
<ele>167.505981</ele>
<time>2010-07-17T17:12:14Z</time>
<desc>lat.=55.759995, lon.=26.039680, Alt.=167.505981m. Speed=0.180000m/h.</desc>
<speed>0.050000</speed>
</trkpt>
<trkpt lat="55.759995" lon="26.039680">
<ele>167.509888</ele>
<time>2010-07-17T17:12:15Z</time>
<desc>lat.=55.759995, lon.=26.039680, Alt.=167.509888m. Speed=0.144000m/h.</desc>
<speed>0.040000</speed>
</trkpt>
<trkpt lat="55.759995" lon="26.039682">
<ele>167.529419</ele>
<time>2010-07-17T17:12:16Z</time>
<desc>lat.=55.759995, lon.=26.039682, Alt.=167.529419m. Speed=0.108000m/h.</desc>
<speed>0.030000</speed>
</trkpt>
<trkpt lat="55.759995" lon="26.039682">
<ele>167.572388</ele>
<time>2010-07-17T17:12:17Z</time>
<desc>lat.=55.759995, lon.=26.039682, Alt.=167.572388m. Speed=0.072000m/h.</desc>
<speed>0.020000</speed>
</trkpt>
<trkpt lat="55.759995" lon="26.039682">
<ele>167.630981</ele>
<time>2010-07-17T17:12:18Z</time>
<desc>lat.=55.759995, lon.=26.039682, Alt.=167.630981m. Speed=0.036000m/h.</desc>
<speed>0.010000</speed>
</trkpt>
<trkpt lat="55.759995" lon="26.039682">
<ele>167.689575</ele>
<time>2010-07-17T17:12:19Z</time>
<desc>lat.=55.759995, lon.=26.039682, Alt.=167.689575m. Speed=0.072000m/h.</desc>
<speed>0.020000</speed>
</trkpt>
<trkpt lat="55.759995" lon="26.039682">
<ele>167.697388</ele>
<time>2010-07-17T17:12:20Z</time>
<desc>lat.=55.759995, lon.=26.039682, Alt.=167.697388m. Speed=0.072000m/h.</desc>
<speed>0.020000</speed>
</trkpt>
<trkpt lat="55.759995" lon="26.039682">
<ele>167.713013</ele>
<time>2010-07-17T17:12:21Z</time>
<desc>lat.=55.759995, lon.=26.039682, Alt.=167.713013m. Speed=0.036000m/h.</desc>
<speed>0.010000</speed>
</trkpt>
<trkpt lat="55.759995" lon="26.039682">
<ele>167.720825</ele>
<time>2010-07-17T17:12:22Z</time>
<desc>lat.=55.759995, lon.=26.039682, Alt.=167.720825m. Speed=0.036000m/h.</desc>
<speed>0.010000</speed>
</trkpt>
<trkpt lat="55.759995" lon="26.039682">
<ele>167.713013</ele>
<time>2010-07-17T17:12:23Z</time>
<desc>lat.=55.759995, lon.=26.039682, Alt.=167.713013m. Speed=0.072000m/h.</desc>
<speed>0.020000</speed>
</trkpt>
<trkpt lat="55.759995" lon="26.039682">
<ele>167.724731</ele>
<time>2010-07-17T17:12:24Z</time>
<desc>lat.=55.759995, lon.=26.039682, Alt.=167.724731m. Speed=0.108000m/h.</desc>
<speed>0.030000</speed>
</trkpt>
<trkpt lat="55.759995" lon="26.039682">
<ele>167.732544</ele>
<time>2010-07-17T17:12:25Z</time>
<desc>lat.=55.759995, lon.=26.039682, Alt.=167.732544m. Speed=0.216000m/h.</desc>
<speed>0.060000</speed>
</trkpt>
<trkpt lat="55.759995" lon="26.039682">
<ele>167.720825</ele>
<time>2010-07-17T17:12:26Z</time>
<desc>lat.=55.759995, lon.=26.039682, Alt.=167.720825m. Speed=0.216000m/h.</desc>
<speed>0.060000</speed>
</trkpt>
<trkpt lat="55.759995" lon="26.039682">
<ele>167.713013</ele>
<time>2010-07-17T17:12:27Z</time>
<desc>lat.=55.759995, lon.=26.039682, Alt.=167.713013m. Speed=0.036000m/h.</desc>
<speed>0.010000</speed>
</trkpt>
<trkpt lat="55.759995" lon="26.039682">
<ele>167.709106</ele>
<time>2010-07-17T17:12:28Z</time>
<desc>lat.=55.759995, lon.=26.039682, Alt.=167.709106m. Speed=0.180000m/h.</desc>
<speed>0.050000</speed>
</trkpt>
<trkpt lat="55.759995" lon="26.039682">
<ele>167.709106</ele>
<time>2010-07-17T17:12:29Z</time>
<desc>lat.=55.759995, lon.=26.039682, Alt.=167.709106m. Speed=0.108000m/h.</desc>
<speed>0.030000</speed>
</trkpt>
<trkpt lat="55.759995" lon="26.039682">
<ele>167.713013</ele>
<time>2010-07-17T17:12:30Z</time>
<desc>lat.=55.759995, lon.=26.039682, Alt.=167.713013m. Speed=0.108000m/h.</desc>
<speed>0.030000</speed>
</trkpt>
<trkpt lat="55.759995" lon="26.039680">
<ele>167.716919</ele>
<time>2010-07-17T17:12:31Z</time>
<desc>lat.=55.759995, lon.=26.039680, Alt.=167.716919m. Speed=0.072000m/h.</desc>
<speed>0.020000</speed>
</trkpt>
<trkpt lat="55.759995" lon="26.039680">
<ele>167.713013</ele>
<time>2010-07-17T17:12:32Z</time>
<desc>lat.=55.759995, lon.=26.039680, Alt.=167.713013m. Speed=0.144000m/h.</desc>
<speed>0.040000</speed>
</trkpt>
<trkpt lat="55.759995" lon="26.039680">
<ele>167.705200</ele>
<time>2010-07-17T17:12:33Z</time>
<desc>lat.=55.759995, lon.=26.039680, Alt.=167.705200m. Speed=0.180000m/h.</desc>
<speed>0.050000</speed>
</trkpt>
<trkpt lat="55.759995" lon="26.039680">
<ele>167.701294</ele>
<time>2010-07-17T17:12:34Z</time>
<desc>lat.=55.759995, lon.=26.039680, Alt.=167.701294m. Speed=0.144000m/h.</desc>
<speed>0.040000</speed>
</trkpt>
<trkpt lat="55.759995" lon="26.039680">
<ele>167.677856</ele>
<time>2010-07-17T17:12:35Z</time>
<desc>lat.=55.759995, lon.=26.039680, Alt.=167.677856m. Speed=0.180000m/h.</desc>
<speed>0.050000</speed>
</trkpt>
<trkpt lat="55.759991" lon="26.039680">
<ele>167.658325</ele>
<time>2010-07-17T17:12:36Z</time>
<desc>lat.=55.759991, lon.=26.039680, Alt.=167.658325m. Speed=0.144000m/h.</desc>
<speed>0.040000</speed>
</trkpt>
<trkpt lat="55.759991" lon="26.039680">
<ele>167.638794</ele>
<time>2010-07-17T17:12:37Z</time>
<desc>lat.=55.759991, lon.=26.039680, Alt.=167.638794m. Speed=0.108000m/h.</desc>
<speed>0.030000</speed>
</trkpt>
<trkpt lat="55.759991" lon="26.039680">
<ele>167.623169</ele>
<time>2010-07-17T17:12:38Z</time>
<desc>lat.=55.759991, lon.=26.039680, Alt.=167.623169m. Speed=0.108000m/h.</desc>
<speed>0.030000</speed>
</trkpt>
<trkpt lat="55.759991" lon="26.039680">
<ele>167.607544</ele>
<time>2010-07-17T17:12:39Z</time>
<desc>lat.=55.759991, lon.=26.039680, Alt.=167.607544m. Speed=0.108000m/h.</desc>
<speed>0.030000</speed>
</trkpt>
<trkpt lat="55.759991" lon="26.039680">
<ele>167.584106</ele>
<time>2010-07-17T17:12:40Z</time>
<desc>lat.=55.759991, lon.=26.039680, Alt.=167.584106m. Speed=0.216000m/h.</desc>
<speed>0.060000</speed>
</trkpt>
<trkpt lat="55.759991" lon="26.039682">
<ele>167.580200</ele>
<time>2010-07-17T17:12:41Z</time>
<desc>lat.=55.759991, lon.=26.039682, Alt.=167.580200m. Speed=0.180000m/h.</desc>
<speed>0.050000</speed>
</trkpt>
<trkpt lat="55.759991" lon="26.039682">
<ele>167.572388</ele>
<time>2010-07-17T17:12:42Z</time>
<desc>lat.=55.759991, lon.=26.039682, Alt.=167.572388m. Speed=0.180000m/h.</desc>
<speed>0.050000</speed>
</trkpt>
<trkpt lat="55.759991" lon="26.039682">
<ele>167.556763</ele>
<time>2010-07-17T17:12:43Z</time>
<desc>lat.=55.759991, lon.=26.039682, Alt.=167.556763m. Speed=0.216000m/h.</desc>
<speed>0.060000</speed>
</trkpt>
<trkpt lat="55.759991" lon="26.039682">
<ele>167.537231</ele>
<time>2010-07-17T17:12:44Z</time>
<desc>lat.=55.759991, lon.=26.039682, Alt.=167.537231m. Speed=0.144000m/h.</desc>
<speed>0.040000</speed>
</trkpt>
<trkpt lat="55.759991" lon="26.039682">
<ele>167.525513</ele>
<time>2010-07-17T17:12:45Z</time>
<desc>lat.=55.759991, lon.=26.039682, Alt.=167.525513m. Speed=0.180000m/h.</desc>
<speed>0.050000</speed>
</trkpt>
<trkpt lat="55.759991" lon="26.039682">
<ele>167.517700</ele>
<time>2010-07-17T17:12:46Z</time>
<desc>lat.=55.759991, lon.=26.039682, Alt.=167.517700m. Speed=0.000000m/h.</desc>
<speed>0.000000</speed>
</trkpt>
<trkpt lat="55.759991" lon="26.039684">
<ele>167.517700</ele>
<time>2010-07-17T17:12:47Z</time>
<desc>lat.=55.759991, lon.=26.039684, Alt.=167.517700m. Speed=0.180000m/h.</desc>
<speed>0.050000</speed>
</trkpt>
<trkpt lat="55.759991" lon="26.039684">
<ele>167.513794</ele>
<time>2010-07-17T17:12:48Z</time>
<desc>lat.=55.759991, lon.=26.039684, Alt.=167.513794m. Speed=0.036000m/h.</desc>
<speed>0.010000</speed>
</trkpt>
<trkpt lat="55.759991" lon="26.039684">
<ele>167.505981</ele>
<time>2010-07-17T17:12:49Z</time>
<desc>lat.=55.759991, lon.=26.039684, Alt.=167.505981m. Speed=0.144000m/h.</desc>
<speed>0.040000</speed>
</trkpt>
<trkpt lat="55.759991" lon="26.039684">
<ele>167.498169</ele>
<time>2010-07-17T17:12:50Z</time>
<desc>lat.=55.759991, lon.=26.039684, Alt.=167.498169m. Speed=0.072000m/h.</desc>
<speed>0.020000</speed>
</trkpt>
<trkpt lat="55.759991" lon="26.039684">
<ele>167.502075</ele>
<time>2010-07-17T17:12:51Z</time>
<desc>lat.=55.759991, lon.=26.039684, Alt.=167.502075m. Speed=0.072000m/h.</desc>
<speed>0.020000</speed>
</trkpt>
<trkpt lat="55.759991" lon="26.039684">
<ele>167.509888</ele>
<time>2010-07-17T17:12:52Z</time>
<desc>lat.=55.759991, lon.=26.039684, Alt.=167.509888m. Speed=0.072000m/h.</desc>
<speed>0.020000</speed>
</trkpt>
<trkpt lat="55.759991" lon="26.039684">
<ele>167.517700</ele>
<time>2010-07-17T17:12:53Z</time>
<desc>lat.=55.759991, lon.=26.039684, Alt.=167.517700m. Speed=0.108000m/h.</desc>
<speed>0.030000</speed>
</trkpt>
<trkpt lat="55.759991" lon="26.039684">
<ele>167.517700</ele>
<time>2010-07-17T17:12:54Z</time>
<desc>lat.=55.759991, lon.=26.039684, Alt.=167.517700m. Speed=0.036000m/h.</desc>
<speed>0.010000</speed>
</trkpt>
<trkpt lat="55.759991" lon="26.039684">
<ele>167.521606</ele>
<time>2010-07-17T17:12:55Z</time>
<desc>lat.=55.759991, lon.=26.039684, Alt.=167.521606m. Speed=0.036000m/h.</desc>
<speed>0.010000</speed>
</trkpt>
<trkpt lat="55.759991" lon="26.039684">
<ele>167.517700</ele>
<time>2010-07-17T17:12:56Z</time>
<desc>lat.=55.759991, lon.=26.039684, Alt.=167.517700m. Speed=0.036000m/h.</desc>
<speed>0.010000</speed>
</trkpt>
<trkpt lat="55.759991" lon="26.039684">
<ele>167.517700</ele>
<time>2010-07-17T17:12:57Z</time>
<desc>lat.=55.759991, lon.=26.039684, Alt.=167.517700m. Speed=0.036000m/h.</desc>
<speed>0.010000</speed>
</trkpt>
<trkpt lat="55.759991" lon="26.039684">
<ele>167.513794</ele>
<time>2010-07-17T17:12:58Z</time>
<desc>lat.=55.759991, lon.=26.039684, Alt.=167.513794m. Speed=0.036000m/h.</desc>
<speed>0.010000</speed>
</trkpt>
<trkpt lat="55.759991" lon="26.039684">
<ele>167.509888</ele>
<time>2010-07-17T17:12:59Z</time>
<desc>lat.=55.759991, lon.=26.039684, Alt.=167.509888m. Speed=0.000000m/h.</desc>
<speed>0.000000</speed>
</trkpt>
<trkpt lat="55.759991" lon="26.039686">
<ele>167.505981</ele>
<time>2010-07-17T17:13:00Z</time>
<desc>lat.=55.759991, lon.=26.039686, Alt.=167.505981m. Speed=0.072000m/h.</desc>
<speed>0.020000</speed>
</trkpt>
<trkpt lat="55.759991" lon="26.039686">
<ele>167.513794</ele>
<time>2010-07-17T17:13:01Z</time>
<desc>lat.=55.759991, lon.=26.039686, Alt.=167.513794m. Speed=0.036000m/h.</desc>
<speed>0.010000</speed>
</trkpt>
<trkpt lat="55.759991" lon="26.039686">
<ele>167.521606</ele>
<time>2010-07-17T17:13:02Z</time>
<desc>lat.=55.759991, lon.=26.039686, Alt.=167.521606m. Speed=0.036000m/h.</desc>
<speed>0.010000</speed>
</trkpt>
<trkpt lat="55.759991" lon="26.039686">
<ele>167.513794</ele>
<time>2010-07-17T17:13:03Z</time>
<desc>lat.=55.759991, lon.=26.039686, Alt.=167.513794m. Speed=0.072000m/h.</desc>
<speed>0.020000</speed>
</trkpt>
<trkpt lat="55.759991" lon="26.039686">
<ele>167.525513</ele>
<time>2010-07-17T17:13:04Z</time>
<desc>lat.=55.759991, lon.=26.039686, Alt.=167.525513m. Speed=0.000000m/h.</desc>
<speed>0.000000</speed>
</trkpt>
<trkpt lat="55.759991" lon="26.039686">
<ele>167.533325</ele>
<time>2010-07-17T17:13:05Z</time>
<desc>lat.=55.759991, lon.=26.039686, Alt.=167.533325m. Speed=0.036000m/h.</desc>
<speed>0.010000</speed>
</trkpt>
<trkpt lat="55.759991" lon="26.039686">
<ele>167.529419</ele>
<time>2010-07-17T17:13:06Z</time>
<desc>lat.=55.759991, lon.=26.039686, Alt.=167.529419m. Speed=0.072000m/h.</desc>
<speed>0.020000</speed>
</trkpt>
<trkpt lat="55.759991" lon="26.039686">
<ele>167.537231</ele>
<time>2010-07-17T17:13:07Z</time>
<desc>lat.=55.759991, lon.=26.039686, Alt.=167.537231m. Speed=0.036000m/h.</desc>
<speed>0.010000</speed>
</trkpt>
<trkpt lat="55.759991" lon="26.039686">
<ele>167.541138</ele>
<time>2010-07-17T17:13:08Z</time>
<desc>lat.=55.759991, lon.=26.039686, Alt.=167.541138m. Speed=0.072000m/h.</desc>
<speed>0.020000</speed>
</trkpt>
<trkpt lat="55.759991" lon="26.039686">
<ele>167.545044</ele>
<time>2010-07-17T17:13:09Z</time>
<desc>lat.=55.759991, lon.=26.039686, Alt.=167.545044m. Speed=0.036000m/h.</desc>
<speed>0.010000</speed>
</trkpt>
<trkpt lat="55.759991" lon="26.039686">
<ele>167.537231</ele>
<time>2010-07-17T17:13:10Z</time>
<desc>lat.=55.759991, lon.=26.039686, Alt.=167.537231m. Speed=0.108000m/h.</desc>
<speed>0.030000</speed>
</trkpt>
<trkpt lat="55.759991" lon="26.039686">
<ele>167.537231</ele>
<time>2010-07-17T17:13:11Z</time>
<desc>lat.=55.759991, lon.=26.039686, Alt.=167.537231m. Speed=0.036000m/h.</desc>
<speed>0.010000</speed>
</trkpt>
<trkpt lat="55.759991" lon="26.039688">
<ele>167.533325</ele>
<time>2010-07-17T17:13:12Z</time>
<desc>lat.=55.759991, lon.=26.039688, Alt.=167.533325m. Speed=0.036000m/h.</desc>
<speed>0.010000</speed>
</trkpt>
<trkpt lat="55.759991" lon="26.039688">
<ele>167.533325</ele>
<time>2010-07-17T17:13:13Z</time>
<desc>lat.=55.759991, lon.=26.039688, Alt.=167.533325m. Speed=0.000000m/h.</desc>
<speed>0.000000</speed>
</trkpt>
<trkpt lat="55.759991" lon="26.039688">
<ele>167.525513</ele>
<time>2010-07-17T17:13:14Z</time>
<desc>lat.=55.759991, lon.=26.039688, Alt.=167.525513m. Speed=0.000000m/h.</desc>
<speed>0.000000</speed>
</trkpt>
<trkpt lat="55.759991" lon="26.039688">
<ele>167.525513</ele>
<time>2010-07-17T17:13:15Z</time>
<desc>lat.=55.759991, lon.=26.039688, Alt.=167.525513m. Speed=0.000000m/h.</desc>
<speed>0.000000</speed>
</trkpt>
<trkpt lat="55.759991" lon="26.039688">
<ele>167.517700</ele>
<time>2010-07-17T17:13:16Z</time>
<desc>lat.=55.759991, lon.=26.039688, Alt.=167.517700m. Speed=0.000000m/h.</desc>
<speed>0.000000</speed>
</trkpt>
<trkpt lat="55.759991" lon="26.039688">
<ele>167.509888</ele>
<time>2010-07-17T17:13:17Z</time>
<desc>lat.=55.759991, lon.=26.039688, Alt.=167.509888m. Speed=0.072000m/h.</desc>
<speed>0.020000</speed>
</trkpt>
<trkpt lat="55.759991" lon="26.039688">
<ele>167.498169</ele>
<time>2010-07-17T17:13:18Z</time>
<desc>lat.=55.759991, lon.=26.039688, Alt.=167.498169m. Speed=0.036000m/h.</desc>
<speed>0.010000</speed>
</trkpt>
<trkpt lat="55.759991" lon="26.039688">
<ele>167.494263</ele>
<time>2010-07-17T17:13:19Z</time>
<desc>lat.=55.759991, lon.=26.039688, Alt.=167.494263m. Speed=0.036000m/h.</desc>
<speed>0.010000</speed>
</trkpt>
<trkpt lat="55.759991" lon="26.039688">
<ele>167.490356</ele>
<time>2010-07-17T17:13:20Z</time>
<desc>lat.=55.759991, lon.=26.039688, Alt.=167.490356m. Speed=0.036000m/h.</desc>
<speed>0.010000</speed>
</trkpt>
<trkpt lat="55.759991" lon="26.039688">
<ele>167.482544</ele>
<time>2010-07-17T17:13:21Z</time>
<desc>lat.=55.759991, lon.=26.039688, Alt.=167.482544m. Speed=0.072000m/h.</desc>
<speed>0.020000</speed>
</trkpt>
<trkpt lat="55.759991" lon="26.039688">
<ele>167.474731</ele>
<time>2010-07-17T17:13:22Z</time>
<desc>lat.=55.759991, lon.=26.039688, Alt.=167.474731m. Speed=0.108000m/h.</desc>
<speed>0.030000</speed>
</trkpt>
<trkpt lat="55.759991" lon="26.039688">
<ele>167.466919</ele>
<time>2010-07-17T17:13:23Z</time>
<desc>lat.=55.759991, lon.=26.039688, Alt.=167.466919m. Speed=0.144000m/h.</desc>
<speed>0.040000</speed>
</trkpt>
<trkpt lat="55.759991" lon="26.039688">
<ele>167.463013</ele>
<time>2010-07-17T17:13:24Z</time>
<desc>lat.=55.759991, lon.=26.039688, Alt.=167.463013m. Speed=0.036000m/h.</desc>
<speed>0.010000</speed>
</trkpt>
<trkpt lat="55.759991" lon="26.039688">
<ele>167.455200</ele>
<time>2010-07-17T17:13:25Z</time>
<desc>lat.=55.759991, lon.=26.039688, Alt.=167.455200m. Speed=0.072000m/h.</desc>
<speed>0.020000</speed>
</trkpt>
<trkpt lat="55.759991" lon="26.039688">
<ele>167.459106</ele>
<time>2010-07-17T17:13:26Z</time>
<desc>lat.=55.759991, lon.=26.039688, Alt.=167.459106m. Speed=0.000000m/h.</desc>
<speed>0.000000</speed>
</trkpt>
<trkpt lat="55.759991" lon="26.039690">
<ele>167.455200</ele>
<time>2010-07-17T17:13:27Z</time>
<desc>lat.=55.759991, lon.=26.039690, Alt.=167.455200m. Speed=0.072000m/h.</desc>
<speed>0.020000</speed>
</trkpt>
<trkpt lat="55.759991" lon="26.039690">
<ele>167.451294</ele>
<time>2010-07-17T17:13:28Z</time>
<desc>lat.=55.759991, lon.=26.039690, Alt.=167.451294m. Speed=0.072000m/h.</desc>
<speed>0.020000</speed>
</trkpt>
<trkpt lat="55.759991" lon="26.039690">
<ele>167.447388</ele>
<time>2010-07-17T17:13:29Z</time>
<desc>lat.=55.759991, lon.=26.039690, Alt.=167.447388m. Speed=0.036000m/h.</desc>
<speed>0.010000</speed>
</trkpt>
<trkpt lat="55.759991" lon="26.039690">
<ele>167.447388</ele>
<time>2010-07-17T17:13:30Z</time>
<desc>lat.=55.759991, lon.=26.039690, Alt.=167.447388m. Speed=0.144000m/h.</desc>
<speed>0.040000</speed>
</trkpt>
<trkpt lat="55.759991" lon="26.039690">
<ele>167.447388</ele>
<time>2010-07-17T17:13:31Z</time>
<desc>lat.=55.759991, lon.=26.039690, Alt.=167.447388m. Speed=0.108000m/h.</desc>
<speed>0.030000</speed>
</trkpt>
<trkpt lat="55.759991" lon="26.039690">
<ele>167.451294</ele>
<time>2010-07-17T17:13:32Z</time>
<desc>lat.=55.759991, lon.=26.039690, Alt.=167.451294m. Speed=0.144000m/h.</desc>
<speed>0.040000</speed>
</trkpt>
<trkpt lat="55.759991" lon="26.039690">
<ele>167.455200</ele>
<time>2010-07-17T17:13:33Z</time>
<desc>lat.=55.759991, lon.=26.039690, Alt.=167.455200m. Speed=0.072000m/h.</desc>
<speed>0.020000</speed>
</trkpt>
<trkpt lat="55.759991" lon="26.039690">
<ele>167.455200</ele>
<time>2010-07-17T17:13:34Z</time>
<desc>lat.=55.759991, lon.=26.039690, Alt.=167.455200m. Speed=0.108000m/h.</desc>
<speed>0.030000</speed>
</trkpt>
<trkpt lat="55.759991" lon="26.039690">
<ele>167.459106</ele>
<time>2010-07-17T17:13:35Z</time>
<desc>lat.=55.759991, lon.=26.039690, Alt.=167.459106m. Speed=0.288000m/h.</desc>
<speed>0.080000</speed>
</trkpt>
<trkpt lat="55.759991" lon="26.039692">
<ele>167.463013</ele>
<time>2010-07-17T17:13:36Z</time>
<desc>lat.=55.759991, lon.=26.039692, Alt.=167.463013m. Speed=0.180000m/h.</desc>
<speed>0.050000</speed>
</trkpt>
<trkpt lat="55.759991" lon="26.039692">
<ele>167.463013</ele>
<time>2010-07-17T17:13:37Z</time>
<desc>lat.=55.759991, lon.=26.039692, Alt.=167.463013m. Speed=0.180000m/h.</desc>
<speed>0.050000</speed>
</trkpt>
<trkpt lat="55.759991" lon="26.039692">
<ele>167.463013</ele>
<time>2010-07-17T17:13:38Z</time>
<desc>lat.=55.759991, lon.=26.039692, Alt.=167.463013m. Speed=0.180000m/h.</desc>
<speed>0.050000</speed>
</trkpt>
<trkpt lat="55.759991" lon="26.039692">
<ele>167.463013</ele>
<time>2010-07-17T17:13:39Z</time>
<desc>lat.=55.759991, lon.=26.039692, Alt.=167.463013m. Speed=0.036000m/h.</desc>
<speed>0.010000</speed>
</trkpt>
<trkpt lat="55.759991" lon="26.039692">
<ele>167.463013</ele>
<time>2010-07-17T17:13:40Z</time>
<desc>lat.=55.759991, lon.=26.039692, Alt.=167.463013m. Speed=0.000000m/h.</desc>
<speed>0.000000</speed>
</trkpt>
<trkpt lat="55.759991" lon="26.039694">
<ele>167.451294</ele>
<time>2010-07-17T17:13:41Z</time>
<desc>lat.=55.759991, lon.=26.039694, Alt.=167.451294m. Speed=0.000000m/h.</desc>
<speed>0.000000</speed>
</trkpt>
<trkpt lat="55.759991" lon="26.039694">
<ele>167.439575</ele>
<time>2010-07-17T17:13:42Z</time>
<desc>lat.=55.759991, lon.=26.039694, Alt.=167.439575m. Speed=0.072000m/h.</desc>
<speed>0.020000</speed>
</trkpt>
<trkpt lat="55.759991" lon="26.039694">
<ele>167.431763</ele>
<time>2010-07-17T17:13:43Z</time>
<desc>lat.=55.759991, lon.=26.039694, Alt.=167.431763m. Speed=0.072000m/h.</desc>
<speed>0.020000</speed>
</trkpt>
<trkpt lat="55.759991" lon="26.039694">
<ele>167.420044</ele>
<time>2010-07-17T17:13:44Z</time>
<desc>lat.=55.759991, lon.=26.039694, Alt.=167.420044m. Speed=0.036000m/h.</desc>
<speed>0.010000</speed>
</trkpt>
<trkpt lat="55.759991" lon="26.039694">
<ele>167.408325</ele>
<time>2010-07-17T17:13:45Z</time>
<desc>lat.=55.759991, lon.=26.039694, Alt.=167.408325m. Speed=0.072000m/h.</desc>
<speed>0.020000</speed>
</trkpt>
<trkpt lat="55.759991" lon="26.039694">
<ele>167.404419</ele>
<time>2010-07-17T17:13:46Z</time>
<desc>lat.=55.759991, lon.=26.039694, Alt.=167.404419m. Speed=0.036000m/h.</desc>
<speed>0.010000</speed>
</trkpt>
<trkpt lat="55.759991" lon="26.039694">
<ele>167.404419</ele>
<time>2010-07-17T17:13:47Z</time>
<desc>lat.=55.759991, lon.=26.039694, Alt.=167.404419m. Speed=0.036000m/h.</desc>
<speed>0.010000</speed>
</trkpt>
<trkpt lat="55.759991" lon="26.039694">
<ele>167.388794</ele>
<time>2010-07-17T17:13:48Z</time>
<desc>lat.=55.759991, lon.=26.039694, Alt.=167.388794m. Speed=0.000000m/h.</desc>
<speed>0.000000</speed>
</trkpt>
<trkpt lat="55.759991" lon="26.039694">
<ele>167.388794</ele>
<time>2010-07-17T17:13:49Z</time>
<desc>lat.=55.759991, lon.=26.039694, Alt.=167.388794m. Speed=0.036000m/h.</desc>
<speed>0.010000</speed>
</trkpt>
<trkpt lat="55.759991" lon="26.039694">
<ele>167.388794</ele>
<time>2010-07-17T17:13:50Z</time>
<desc>lat.=55.759991, lon.=26.039694, Alt.=167.388794m. Speed=0.036000m/h.</desc>
<speed>0.010000</speed>
</trkpt>
<trkpt lat="55.759991" lon="26.039694">
<ele>167.392700</ele>
<time>2010-07-17T17:13:51Z</time>
<desc>lat.=55.759991, lon.=26.039694, Alt.=167.392700m. Speed=0.000000m/h.</desc>
<speed>0.000000</speed>
</trkpt>
<trkpt lat="55.759991" lon="26.039694">
<ele>167.392700</ele>
<time>2010-07-17T17:13:52Z</time>
<desc>lat.=55.759991, lon.=26.039694, Alt.=167.392700m. Speed=0.036000m/h.</desc>
<speed>0.010000</speed>
</trkpt>
<trkpt lat="55.759991" lon="26.039694">
<ele>167.392700</ele>
<time>2010-07-17T17:13:53Z</time>
<desc>lat.=55.759991, lon.=26.039694, Alt.=167.392700m. Speed=0.072000m/h.</desc>
<speed>0.020000</speed>
</trkpt>
<trkpt lat="55.759991" lon="26.039694">
<ele>167.392700</ele>
<time>2010-07-17T17:13:54Z</time>
<desc>lat.=55.759991, lon.=26.039694, Alt.=167.392700m. Speed=0.000000m/h.</desc>
<speed>0.000000</speed>
</trkpt>
<trkpt lat="55.759991" lon="26.039694">
<ele>167.396606</ele>
<time>2010-07-17T17:13:55Z</time>
<desc>lat.=55.759991, lon.=26.039694, Alt.=167.396606m. Speed=0.000000m/h.</desc>
<speed>0.000000</speed>
</trkpt>
<trkpt lat="55.759991" lon="26.039694">
<ele>167.396606</ele>
<time>2010-07-17T17:13:56Z</time>
<desc>lat.=55.759991, lon.=26.039694, Alt.=167.396606m. Speed=0.000000m/h.</desc>
<speed>0.000000</speed>
</trkpt>
<trkpt lat="55.759991" lon="26.039694">
<ele>167.404419</ele>
<time>2010-07-17T17:13:57Z</time>
<desc>lat.=55.759991, lon.=26.039694, Alt.=167.404419m. Speed=0.144000m/h.</desc>
<speed>0.040000</speed>
</trkpt>
<trkpt lat="55.759991" lon="26.039694">
<ele>167.404419</ele>
<time>2010-07-17T17:13:58Z</time>
<desc>lat.=55.759991, lon.=26.039694, Alt.=167.404419m. Speed=0.036000m/h.</desc>
<speed>0.010000</speed>
</trkpt>
<trkpt lat="55.759991" lon="26.039694">
<ele>167.408325</ele>
<time>2010-07-17T17:13:59Z</time>
<desc>lat.=55.759991, lon.=26.039694, Alt.=167.408325m. Speed=0.036000m/h.</desc>
<speed>0.010000</speed>
</trkpt>
<trkpt lat="55.759991" lon="26.039694">
<ele>167.408325</ele>
<time>2010-07-17T17:14:00Z</time>
<desc>lat.=55.759991, lon.=26.039694, Alt.=167.408325m. Speed=0.036000m/h.</desc>
<speed>0.010000</speed>
</trkpt>
<trkpt lat="55.759991" lon="26.039694">
<ele>167.412231</ele>
<time>2010-07-17T17:14:01Z</time>
<desc>lat.=55.759991, lon.=26.039694, Alt.=167.412231m. Speed=0.072000m/h.</desc>
<speed>0.020000</speed>
</trkpt>
<trkpt lat="55.759991" lon="26.039694">
<ele>167.412231</ele>
<time>2010-07-17T17:14:02Z</time>
<desc>lat.=55.759991, lon.=26.039694, Alt.=167.412231m. Speed=0.036000m/h.</desc>
<speed>0.010000</speed>
</trkpt>
<trkpt lat="55.759991" lon="26.039694">
<ele>167.416138</ele>
<time>2010-07-17T17:14:03Z</time>
<desc>lat.=55.759991, lon.=26.039694, Alt.=167.416138m. Speed=0.000000m/h.</desc>
<speed>0.000000</speed>
</trkpt>
<trkpt lat="55.759991" lon="26.039694">
<ele>167.416138</ele>
<time>2010-07-17T17:14:04Z</time>
<desc>lat.=55.759991, lon.=26.039694, Alt.=167.416138m. Speed=0.036000m/h.</desc>
<speed>0.010000</speed>
</trkpt>
<trkpt lat="55.759991" lon="26.039694">
<ele>167.427856</ele>
<time>2010-07-17T17:14:05Z</time>
<desc>lat.=55.759991, lon.=26.039694, Alt.=167.427856m. Speed=0.072000m/h.</desc>
<speed>0.020000</speed>
</trkpt>
<trkpt lat="55.759991" lon="26.039694">
<ele>167.435669</ele>
<time>2010-07-17T17:14:06Z</time>
<desc>lat.=55.759991, lon.=26.039694, Alt.=167.435669m. Speed=0.072000m/h.</desc>
<speed>0.020000</speed>
</trkpt>
<trkpt lat="55.759991" lon="26.039694">
<ele>167.443481</ele>
<time>2010-07-17T17:14:07Z</time>
<desc>lat.=55.759991, lon.=26.039694, Alt.=167.443481m. Speed=0.144000m/h.</desc>
<speed>0.040000</speed>
</trkpt>
<trkpt lat="55.759991" lon="26.039694">
<ele>167.455200</ele>
<time>2010-07-17T17:14:08Z</time>
<desc>lat.=55.759991, lon.=26.039694, Alt.=167.455200m. Speed=0.252000m/h.</desc>
<speed>0.070000</speed>
</trkpt>
<trkpt lat="55.759991" lon="26.039696">
<ele>167.463013</ele>
<time>2010-07-17T17:14:09Z</time>
<desc>lat.=55.759991, lon.=26.039696, Alt.=167.463013m. Speed=0.072000m/h.</desc>
<speed>0.020000</speed>
</trkpt>
<trkpt lat="55.759987" lon="26.039696">
<ele>167.470825</ele>
<time>2010-07-17T17:14:10Z</time>
<desc>lat.=55.759987, lon.=26.039696, Alt.=167.470825m. Speed=0.216000m/h.</desc>
<speed>0.060000</speed>
</trkpt>
<trkpt lat="55.759987" lon="26.039696">
<ele>167.470825</ele>
<time>2010-07-17T17:14:11Z</time>
<desc>lat.=55.759987, lon.=26.039696, Alt.=167.470825m. Speed=0.180000m/h.</desc>
<speed>0.050000</speed>
</trkpt>
<trkpt lat="55.759987" lon="26.039696">
<ele>167.478638</ele>
<time>2010-07-17T17:14:12Z</time>
<desc>lat.=55.759987, lon.=26.039696, Alt.=167.478638m. Speed=0.180000m/h.</desc>
<speed>0.050000</speed>
</trkpt>
<trkpt lat="55.759987" lon="26.039696">
<ele>167.482544</ele>
<time>2010-07-17T17:14:13Z</time>
<desc>lat.=55.759987, lon.=26.039696, Alt.=167.482544m. Speed=0.108000m/h.</desc>
<speed>0.030000</speed>
</trkpt>
<trkpt lat="55.759987" lon="26.039696">
<ele>167.486450</ele>
<time>2010-07-17T17:14:14Z</time>
<desc>lat.=55.759987, lon.=26.039696, Alt.=167.486450m. Speed=0.108000m/h.</desc>
<speed>0.030000</speed>
</trkpt>
<trkpt lat="55.759987" lon="26.039696">
<ele>167.490356</ele>
<time>2010-07-17T17:14:15Z</time>
<desc>lat.=55.759987, lon.=26.039696, Alt.=167.490356m. Speed=0.072000m/h.</desc>
<speed>0.020000</speed>
</trkpt>
<trkpt lat="55.759987" lon="26.039698">
<ele>167.482544</ele>
<time>2010-07-17T17:14:16Z</time>
<desc>lat.=55.759987, lon.=26.039698, Alt.=167.482544m. Speed=0.108000m/h.</desc>
<speed>0.030000</speed>
</trkpt>
<trkpt lat="55.759987" lon="26.039698">
<ele>167.486450</ele>
<time>2010-07-17T17:14:17Z</time>
<desc>lat.=55.759987, lon.=26.039698, Alt.=167.486450m. Speed=0.036000m/h.</desc>
<speed>0.010000</speed>
</trkpt>
<trkpt lat="55.759987" lon="26.039698">
<ele>167.494263</ele>
<time>2010-07-17T17:14:18Z</time>
<desc>lat.=55.759987, lon.=26.039698, Alt.=167.494263m. Speed=0.072000m/h.</desc>
<speed>0.020000</speed>
</trkpt>
<trkpt lat="55.759987" lon="26.039696">
<ele>167.494263</ele>
<time>2010-07-17T17:14:19Z</time>
<desc>lat.=55.759987, lon.=26.039696, Alt.=167.494263m. Speed=0.036000m/h.</desc>
<speed>0.010000</speed>
</trkpt>
<trkpt lat="55.759987" lon="26.039696">
<ele>167.494263</ele>
<time>2010-07-17T17:14:20Z</time>
<desc>lat.=55.759987, lon.=26.039696, Alt.=167.494263m. Speed=0.000000m/h.</desc>
<speed>0.000000</speed>
</trkpt>
<trkpt lat="55.759987" lon="26.039696">
<ele>167.498169</ele>
<time>2010-07-17T17:14:21Z</time>
<desc>lat.=55.759987, lon.=26.039696, Alt.=167.498169m. Speed=0.072000m/h.</desc>
<speed>0.020000</speed>
</trkpt>
<trkpt lat="55.759987" lon="26.039696">
<ele>167.505981</ele>
<time>2010-07-17T17:14:22Z</time>
<desc>lat.=55.759987, lon.=26.039696, Alt.=167.505981m. Speed=0.072000m/h.</desc>
<speed>0.020000</speed>
</trkpt>
<trkpt lat="55.759987" lon="26.039696">
<ele>167.502075</ele>
<time>2010-07-17T17:14:23Z</time>
<desc>lat.=55.759987, lon.=26.039696, Alt.=167.502075m. Speed=0.072000m/h.</desc>
<speed>0.020000</speed>
</trkpt>
<trkpt lat="55.759987" lon="26.039696">
<ele>167.498169</ele>
<time>2010-07-17T17:14:24Z</time>
<desc>lat.=55.759987, lon.=26.039696, Alt.=167.498169m. Speed=0.108000m/h.</desc>
<speed>0.030000</speed>
</trkpt>
<trkpt lat="55.759987" lon="26.039696">
<ele>167.502075</ele>
<time>2010-07-17T17:14:25Z</time>
<desc>lat.=55.759987, lon.=26.039696, Alt.=167.502075m. Speed=0.108000m/h.</desc>
<speed>0.030000</speed>
</trkpt>
<trkpt lat="55.759987" lon="26.039696">
<ele>167.505981</ele>
<time>2010-07-17T17:14:26Z</time>
<desc>lat.=55.759987, lon.=26.039696, Alt.=167.505981m. Speed=0.072000m/h.</desc>
<speed>0.020000</speed>
</trkpt>
<trkpt lat="55.759987" lon="26.039696">
<ele>167.509888</ele>
<time>2010-07-17T17:14:27Z</time>
<desc>lat.=55.759987, lon.=26.039696, Alt.=167.509888m. Speed=0.036000m/h.</desc>
<speed>0.010000</speed>
</trkpt>
<trkpt lat="55.759987" lon="26.039696">
<ele>167.517700</ele>
<time>2010-07-17T17:14:28Z</time>
<desc>lat.=55.759987, lon.=26.039696, Alt.=167.517700m. Speed=0.144000m/h.</desc>
<speed>0.040000</speed>
</trkpt>
<trkpt lat="55.759987" lon="26.039696">
<ele>167.517700</ele>
<time>2010-07-17T17:14:29Z</time>
<desc>lat.=55.759987, lon.=26.039696, Alt.=167.517700m. Speed=0.108000m/h.</desc>
<speed>0.030000</speed>
</trkpt>
<trkpt lat="55.759987" lon="26.039696">
<ele>167.521606</ele>
<time>2010-07-17T17:14:30Z</time>
<desc>lat.=55.759987, lon.=26.039696, Alt.=167.521606m. Speed=0.108000m/h.</desc>
<speed>0.030000</speed>
</trkpt>
<trkpt lat="55.759987" lon="26.039696">
<ele>167.529419</ele>
<time>2010-07-17T17:14:31Z</time>
<desc>lat.=55.759987, lon.=26.039696, Alt.=167.529419m. Speed=0.252000m/h.</desc>
<speed>0.070000</speed>
</trkpt>
<trkpt lat="55.759987" lon="26.039696">
<ele>167.537231</ele>
<time>2010-07-17T17:14:32Z</time>
<desc>lat.=55.759987, lon.=26.039696, Alt.=167.537231m. Speed=0.144000m/h.</desc>
<speed>0.040000</speed>
</trkpt>
<trkpt lat="55.759987" lon="26.039696">
<ele>167.545044</ele>
<time>2010-07-17T17:14:33Z</time>
<desc>lat.=55.759987, lon.=26.039696, Alt.=167.545044m. Speed=0.252000m/h.</desc>
<speed>0.070000</speed>
</trkpt>
<trkpt lat="55.759987" lon="26.039696">
<ele>167.552856</ele>
<time>2010-07-17T17:14:34Z</time>
<desc>lat.=55.759987, lon.=26.039696, Alt.=167.552856m. Speed=0.180000m/h.</desc>
<speed>0.050000</speed>
</trkpt>
<trkpt lat="55.759987" lon="26.039696">
<ele>167.564575</ele>
<time>2010-07-17T17:14:35Z</time>
<desc>lat.=55.759987, lon.=26.039696, Alt.=167.564575m. Speed=0.108000m/h.</desc>
<speed>0.030000</speed>
</trkpt>
<trkpt lat="55.759987" lon="26.039696">
<ele>167.560669</ele>
<time>2010-07-17T17:14:36Z</time>
<desc>lat.=55.759987, lon.=26.039696, Alt.=167.560669m. Speed=0.036000m/h.</desc>
<speed>0.010000</speed>
</trkpt>
<trkpt lat="55.759987" lon="26.039696">
<ele>167.564575</ele>
<time>2010-07-17T17:14:37Z</time>
<desc>lat.=55.759987, lon.=26.039696, Alt.=167.564575m. Speed=0.000000m/h.</desc>
<speed>0.000000</speed>
</trkpt>
<trkpt lat="55.759987" lon="26.039696">
<ele>167.560669</ele>
<time>2010-07-17T17:14:38Z</time>
<desc>lat.=55.759987, lon.=26.039696, Alt.=167.560669m. Speed=0.108000m/h.</desc>
<speed>0.030000</speed>
</trkpt>
<trkpt lat="55.759987" lon="26.039696">
<ele>167.564575</ele>
<time>2010-07-17T17:14:39Z</time>
<desc>lat.=55.759987, lon.=26.039696, Alt.=167.564575m. Speed=0.036000m/h.</desc>
<speed>0.010000</speed>
</trkpt>
<trkpt lat="55.759987" lon="26.039696">
<ele>167.556763</ele>
<time>2010-07-17T17:14:40Z</time>
<desc>lat.=55.759987, lon.=26.039696, Alt.=167.556763m. Speed=0.000000m/h.</desc>
<speed>0.000000</speed>
</trkpt>
<trkpt lat="55.759987" lon="26.039696">
<ele>167.545044</ele>
<time>2010-07-17T17:14:41Z</time>
<desc>lat.=55.759987, lon.=26.039696, Alt.=167.545044m. Speed=0.108000m/h.</desc>
<speed>0.030000</speed>
</trkpt>
<trkpt lat="55.759983" lon="26.039696">
<ele>167.545044</ele>
<time>2010-07-17T17:14:42Z</time>
<desc>lat.=55.759983, lon.=26.039696, Alt.=167.545044m. Speed=0.360000m/h.</desc>
<speed>0.100000</speed>
</trkpt>
<trkpt lat="55.759983" lon="26.039696">
<ele>167.541138</ele>
<time>2010-07-17T17:14:43Z</time>
<desc>lat.=55.759983, lon.=26.039696, Alt.=167.541138m. Speed=0.072000m/h.</desc>
<speed>0.020000</speed>
</trkpt>
<trkpt lat="55.759983" lon="26.039696">
<ele>167.529419</ele>
<time>2010-07-17T17:14:44Z</time>
<desc>lat.=55.759983, lon.=26.039696, Alt.=167.529419m. Speed=0.180000m/h.</desc>
<speed>0.050000</speed>
</trkpt>
<trkpt lat="55.759983" lon="26.039696">
<ele>167.521606</ele>
<time>2010-07-17T17:14:45Z</time>
<desc>lat.=55.759983, lon.=26.039696, Alt.=167.521606m. Speed=0.108000m/h.</desc>
<speed>0.030000</speed>
</trkpt>
<trkpt lat="55.759983" lon="26.039696">
<ele>167.517700</ele>
<time>2010-07-17T17:14:46Z</time>
<desc>lat.=55.759983, lon.=26.039696, Alt.=167.517700m. Speed=0.036000m/h.</desc>
<speed>0.010000</speed>
</trkpt>
<trkpt lat="55.759983" lon="26.039696">
<ele>167.517700</ele>
<time>2010-07-17T17:14:47Z</time>
<desc>lat.=55.759983, lon.=26.039696, Alt.=167.517700m. Speed=0.108000m/h.</desc>
<speed>0.030000</speed>
</trkpt>
<trkpt lat="55.759983" lon="26.039696">
<ele>167.509888</ele>
<time>2010-07-17T17:14:48Z</time>
<desc>lat.=55.759983, lon.=26.039696, Alt.=167.509888m. Speed=0.180000m/h.</desc>
<speed>0.050000</speed>
</trkpt>
<trkpt lat="55.759983" lon="26.039696">
<ele>167.494263</ele>
<time>2010-07-17T17:14:49Z</time>
<desc>lat.=55.759983, lon.=26.039696, Alt.=167.494263m. Speed=0.180000m/h.</desc>
<speed>0.050000</speed>
</trkpt>
<trkpt lat="55.759983" lon="26.039696">
<ele>167.478638</ele>
<time>2010-07-17T17:14:50Z</time>
<desc>lat.=55.759983, lon.=26.039696, Alt.=167.478638m. Speed=0.180000m/h.</desc>
<speed>0.050000</speed>
</trkpt>
<trkpt lat="55.759983" lon="26.039696">
<ele>167.459106</ele>
<time>2010-07-17T17:14:51Z</time>
<desc>lat.=55.759983, lon.=26.039696, Alt.=167.459106m. Speed=0.108000m/h.</desc>
<speed>0.030000</speed>
</trkpt>
<trkpt lat="55.759983" lon="26.039696">
<ele>167.439575</ele>
<time>2010-07-17T17:14:52Z</time>
<desc>lat.=55.759983, lon.=26.039696, Alt.=167.439575m. Speed=0.252000m/h.</desc>
<speed>0.070000</speed>
</trkpt>
<trkpt lat="55.759983" lon="26.039696">
<ele>167.427856</ele>
<time>2010-07-17T17:14:53Z</time>
<desc>lat.=55.759983, lon.=26.039696, Alt.=167.427856m. Speed=0.108000m/h.</desc>
<speed>0.030000</speed>
</trkpt>
<trkpt lat="55.759983" lon="26.039696">
<ele>167.416138</ele>
<time>2010-07-17T17:14:54Z</time>
<desc>lat.=55.759983, lon.=26.039696, Alt.=167.416138m. Speed=0.108000m/h.</desc>
<speed>0.030000</speed>
</trkpt>
<trkpt lat="55.759983" lon="26.039696">
<ele>167.408325</ele>
<time>2010-07-17T17:14:55Z</time>
<desc>lat.=55.759983, lon.=26.039696, Alt.=167.408325m. Speed=0.144000m/h.</desc>
<speed>0.040000</speed>
</trkpt>
<trkpt lat="55.759983" lon="26.039696">
<ele>167.388794</ele>
<time>2010-07-17T17:14:56Z</time>
<desc>lat.=55.759983, lon.=26.039696, Alt.=167.388794m. Speed=0.180000m/h.</desc>
<speed>0.050000</speed>
</trkpt>
<trkpt lat="55.759983" lon="26.039696">
<ele>167.380981</ele>
<time>2010-07-17T17:14:57Z</time>
<desc>lat.=55.759983, lon.=26.039696, Alt.=167.380981m. Speed=0.108000m/h.</desc>
<speed>0.030000</speed>
</trkpt>
<trkpt lat="55.759983" lon="26.039696">
<ele>167.373169</ele>
<time>2010-07-17T17:14:58Z</time>
<desc>lat.=55.759983, lon.=26.039696, Alt.=167.373169m. Speed=0.072000m/h.</desc>
<speed>0.020000</speed>
</trkpt>
<trkpt lat="55.759979" lon="26.039696">
<ele>167.369263</ele>
<time>2010-07-17T17:14:59Z</time>
<desc>lat.=55.759979, lon.=26.039696, Alt.=167.369263m. Speed=0.072000m/h.</desc>
<speed>0.020000</speed>
</trkpt>
<trkpt lat="55.759979" lon="26.039696">
<ele>167.365356</ele>
<time>2010-07-17T17:15:00Z</time>
<desc>lat.=55.759979, lon.=26.039696, Alt.=167.365356m. Speed=0.216000m/h.</desc>
<speed>0.060000</speed>
</trkpt>
<trkpt lat="55.759979" lon="26.039696">
<ele>167.357544</ele>
<time>2010-07-17T17:15:01Z</time>
<desc>lat.=55.759979, lon.=26.039696, Alt.=167.357544m. Speed=0.144000m/h.</desc>
<speed>0.040000</speed>
</trkpt>
<trkpt lat="55.759979" lon="26.039694">
<ele>167.334106</ele>
<time>2010-07-17T17:15:02Z</time>
<desc>lat.=55.759979, lon.=26.039694, Alt.=167.334106m. Speed=0.216000m/h.</desc>
<speed>0.060000</speed>
</trkpt>
<trkpt lat="55.759979" lon="26.039694">
<ele>167.318481</ele>
<time>2010-07-17T17:15:03Z</time>
<desc>lat.=55.759979, lon.=26.039694, Alt.=167.318481m. Speed=0.144000m/h.</desc>
<speed>0.040000</speed>
</trkpt>
<trkpt lat="55.759979" lon="26.039694">
<ele>167.314575</ele>
<time>2010-07-17T17:15:04Z</time>
<desc>lat.=55.759979, lon.=26.039694, Alt.=167.314575m. Speed=0.360000m/h.</desc>
<speed>0.100000</speed>
</trkpt>
<trkpt lat="55.759979" lon="26.039694">
<ele>167.298950</ele>
<time>2010-07-17T17:15:05Z</time>
<desc>lat.=55.759979, lon.=26.039694, Alt.=167.298950m. Speed=0.108000m/h.</desc>
<speed>0.030000</speed>
</trkpt>
<trkpt lat="55.759979" lon="26.039694">
<ele>167.291138</ele>
<time>2010-07-17T17:15:06Z</time>
<desc>lat.=55.759979, lon.=26.039694, Alt.=167.291138m. Speed=0.180000m/h.</desc>
<speed>0.050000</speed>
</trkpt>
<trkpt lat="55.759979" lon="26.039694">
<ele>167.287231</ele>
<time>2010-07-17T17:15:07Z</time>
<desc>lat.=55.759979, lon.=26.039694, Alt.=167.287231m. Speed=0.180000m/h.</desc>
<speed>0.050000</speed>
</trkpt>
<trkpt lat="55.759979" lon="26.039694">
<ele>167.275513</ele>
<time>2010-07-17T17:15:08Z</time>
<desc>lat.=55.759979, lon.=26.039694, Alt.=167.275513m. Speed=0.144000m/h.</desc>
<speed>0.040000</speed>
</trkpt>
<trkpt lat="55.759979" lon="26.039696">
<ele>167.263794</ele>
<time>2010-07-17T17:15:09Z</time>
<desc>lat.=55.759979, lon.=26.039696, Alt.=167.263794m. Speed=0.144000m/h.</desc>
<speed>0.040000</speed>
</trkpt>
<trkpt lat="55.759979" lon="26.039696">
<ele>167.259888</ele>
<time>2010-07-17T17:15:10Z</time>
<desc>lat.=55.759979, lon.=26.039696, Alt.=167.259888m. Speed=0.180000m/h.</desc>
<speed>0.050000</speed>
</trkpt>
<trkpt lat="55.759979" lon="26.039696">
<ele>167.248169</ele>
<time>2010-07-17T17:15:11Z</time>
<desc>lat.=55.759979, lon.=26.039696, Alt.=167.248169m. Speed=0.108000m/h.</desc>
<speed>0.030000</speed>
</trkpt>
<trkpt lat="55.759979" lon="26.039696">
<ele>167.240356</ele>
<time>2010-07-17T17:15:12Z</time>
<desc>lat.=55.759979, lon.=26.039696, Alt.=167.240356m. Speed=0.180000m/h.</desc>
<speed>0.050000</speed>
</trkpt>
<trkpt lat="55.759979" lon="26.039696">
<ele>167.236450</ele>
<time>2010-07-17T17:15:13Z</time>
<desc>lat.=55.759979, lon.=26.039696, Alt.=167.236450m. Speed=0.072000m/h.</desc>
<speed>0.020000</speed>
</trkpt>
<trkpt lat="55.759979" lon="26.039696">
<ele>167.236450</ele>
<time>2010-07-17T17:15:14Z</time>
<desc>lat.=55.759979, lon.=26.039696, Alt.=167.236450m. Speed=0.108000m/h.</desc>
<speed>0.030000</speed>
</trkpt>
<trkpt lat="55.759979" lon="26.039696">
<ele>167.232544</ele>
<time>2010-07-17T17:15:15Z</time>
<desc>lat.=55.759979, lon.=26.039696, Alt.=167.232544m. Speed=0.072000m/h.</desc>
<speed>0.020000</speed>
</trkpt>
<trkpt lat="55.759975" lon="26.039696">
<ele>167.232544</ele>
<time>2010-07-17T17:15:16Z</time>
<desc>lat.=55.759975, lon.=26.039696, Alt.=167.232544m. Speed=0.072000m/h.</desc>
<speed>0.020000</speed>
</trkpt>
<trkpt lat="55.759975" lon="26.039696">
<ele>167.220825</ele>
<time>2010-07-17T17:15:17Z</time>
<desc>lat.=55.759975, lon.=26.039696, Alt.=167.220825m. Speed=0.216000m/h.</desc>
<speed>0.060000</speed>
</trkpt>
<trkpt lat="55.759975" lon="26.039696">
<ele>167.213013</ele>
<time>2010-07-17T17:15:18Z</time>
<desc>lat.=55.759975, lon.=26.039696, Alt.=167.213013m. Speed=0.180000m/h.</desc>
<speed>0.050000</speed>
</trkpt>
<trkpt lat="55.759975" lon="26.039696">
<ele>167.201294</ele>
<time>2010-07-17T17:15:19Z</time>
<desc>lat.=55.759975, lon.=26.039696, Alt.=167.201294m. Speed=0.180000m/h.</desc>
<speed>0.050000</speed>
</trkpt>
<trkpt lat="55.759975" lon="26.039696">
<ele>167.185669</ele>
<time>2010-07-17T17:15:20Z</time>
<desc>lat.=55.759975, lon.=26.039696, Alt.=167.185669m. Speed=0.072000m/h.</desc>
<speed>0.020000</speed>
</trkpt>
<trkpt lat="55.759975" lon="26.039696">
<ele>167.177856</ele>
<time>2010-07-17T17:15:21Z</time>
<desc>lat.=55.759975, lon.=26.039696, Alt.=167.177856m. Speed=0.036000m/h.</desc>
<speed>0.010000</speed>
</trkpt>
<trkpt lat="55.759975" lon="26.039696">
<ele>167.162231</ele>
<time>2010-07-17T17:15:22Z</time>
<desc>lat.=55.759975, lon.=26.039696, Alt.=167.162231m. Speed=0.072000m/h.</desc>
<speed>0.020000</speed>
</trkpt>
<trkpt lat="55.759975" lon="26.039696">
<ele>167.150513</ele>
<time>2010-07-17T17:15:23Z</time>
<desc>lat.=55.759975, lon.=26.039696, Alt.=167.150513m. Speed=0.072000m/h.</desc>
<speed>0.020000</speed>
</trkpt>
<trkpt lat="55.759975" lon="26.039696">
<ele>167.138794</ele>
<time>2010-07-17T17:15:24Z</time>
<desc>lat.=55.759975, lon.=26.039696, Alt.=167.138794m. Speed=0.072000m/h.</desc>
<speed>0.020000</speed>
</trkpt>
<trkpt lat="55.759975" lon="26.039696">
<ele>167.146606</ele>
<time>2010-07-17T17:15:25Z</time>
<desc>lat.=55.759975, lon.=26.039696, Alt.=167.146606m. Speed=0.072000m/h.</desc>
<speed>0.020000</speed>
</trkpt>
<trkpt lat="55.759975" lon="26.039696">
<ele>167.162231</ele>
<time>2010-07-17T17:15:26Z</time>
<desc>lat.=55.759975, lon.=26.039696, Alt.=167.162231m. Speed=0.180000m/h.</desc>
<speed>0.050000</speed>
</trkpt>
<trkpt lat="55.759975" lon="26.039698">
<ele>167.170044</ele>
<time>2010-07-17T17:15:27Z</time>
<desc>lat.=55.759975, lon.=26.039698, Alt.=167.170044m. Speed=0.216000m/h.</desc>
<speed>0.060000</speed>
</trkpt>
<trkpt lat="55.759975" lon="26.039698">
<ele>167.181763</ele>
<time>2010-07-17T17:15:28Z</time>
<desc>lat.=55.759975, lon.=26.039698, Alt.=167.181763m. Speed=0.288000m/h.</desc>
<speed>0.080000</speed>
</trkpt>
<trkpt lat="55.759975" lon="26.039698">
<ele>167.197388</ele>
<time>2010-07-17T17:15:29Z</time>
<desc>lat.=55.759975, lon.=26.039698, Alt.=167.197388m. Speed=0.180000m/h.</desc>
<speed>0.050000</speed>
</trkpt>
<trkpt lat="55.759975" lon="26.039698">
<ele>167.197388</ele>
<time>2010-07-17T17:15:30Z</time>
<desc>lat.=55.759975, lon.=26.039698, Alt.=167.197388m. Speed=0.072000m/h.</desc>
<speed>0.020000</speed>
</trkpt>
<trkpt lat="55.759975" lon="26.039698">
<ele>167.185669</ele>
<time>2010-07-17T17:15:31Z</time>
<desc>lat.=55.759975, lon.=26.039698, Alt.=167.185669m. Speed=0.108000m/h.</desc>
<speed>0.030000</speed>
</trkpt>
<trkpt lat="55.759975" lon="26.039698">
<ele>167.181763</ele>
<time>2010-07-17T17:15:32Z</time>
<desc>lat.=55.759975, lon.=26.039698, Alt.=167.181763m. Speed=0.036000m/h.</desc>
<speed>0.010000</speed>
</trkpt>
<trkpt lat="55.759975" lon="26.039698">
<ele>167.170044</ele>
<time>2010-07-17T17:15:33Z</time>
<desc>lat.=55.759975, lon.=26.039698, Alt.=167.170044m. Speed=0.072000m/h.</desc>
<speed>0.020000</speed>
</trkpt>
<trkpt lat="55.759975" lon="26.039698">
<ele>167.162231</ele>
<time>2010-07-17T17:15:34Z</time>
<desc>lat.=55.759975, lon.=26.039698, Alt.=167.162231m. Speed=0.072000m/h.</desc>
<speed>0.020000</speed>
</trkpt>
<trkpt lat="55.759975" lon="26.039698">
<ele>167.150513</ele>
<time>2010-07-17T17:15:35Z</time>
<desc>lat.=55.759975, lon.=26.039698, Alt.=167.150513m. Speed=0.108000m/h.</desc>
<speed>0.030000</speed>
</trkpt>
<trkpt lat="55.759975" lon="26.039698">
<ele>167.130981</ele>
<time>2010-07-17T17:15:36Z</time>
<desc>lat.=55.759975, lon.=26.039698, Alt.=167.130981m. Speed=0.108000m/h.</desc>
<speed>0.030000</speed>
</trkpt>
<trkpt lat="55.759975" lon="26.039698">
<ele>167.127075</ele>
<time>2010-07-17T17:15:37Z</time>
<desc>lat.=55.759975, lon.=26.039698, Alt.=167.127075m. Speed=0.180000m/h.</desc>
<speed>0.050000</speed>
</trkpt>
<trkpt lat="55.759975" lon="26.039698">
<ele>167.115356</ele>
<time>2010-07-17T17:15:38Z</time>
<desc>lat.=55.759975, lon.=26.039698, Alt.=167.115356m. Speed=0.072000m/h.</desc>
<speed>0.020000</speed>
</trkpt>
<trkpt lat="55.759975" lon="26.039698">
<ele>167.115356</ele>
<time>2010-07-17T17:15:39Z</time>
<desc>lat.=55.759975, lon.=26.039698, Alt.=167.115356m. Speed=0.144000m/h.</desc>
<speed>0.040000</speed>
</trkpt>
<trkpt lat="55.759975" lon="26.039698">
<ele>167.111450</ele>
<time>2010-07-17T17:15:40Z</time>
<desc>lat.=55.759975, lon.=26.039698, Alt.=167.111450m. Speed=0.036000m/h.</desc>
<speed>0.010000</speed>
</trkpt>
<trkpt lat="55.759975" lon="26.039698">
<ele>167.103638</ele>
<time>2010-07-17T17:15:41Z</time>
<desc>lat.=55.759975, lon.=26.039698, Alt.=167.103638m. Speed=0.072000m/h.</desc>
<speed>0.020000</speed>
</trkpt>
<trkpt lat="55.759972" lon="26.039698">
<ele>167.107544</ele>
<time>2010-07-17T17:15:42Z</time>
<desc>lat.=55.759972, lon.=26.039698, Alt.=167.107544m. Speed=0.144000m/h.</desc>
<speed>0.040000</speed>
</trkpt>
<trkpt lat="55.759972" lon="26.039698">
<ele>167.107544</ele>
<time>2010-07-17T17:15:43Z</time>
<desc>lat.=55.759972, lon.=26.039698, Alt.=167.107544m. Speed=0.072000m/h.</desc>
<speed>0.020000</speed>
</trkpt>
<trkpt lat="55.759972" lon="26.039698">
<ele>167.107544</ele>
<time>2010-07-17T17:15:44Z</time>
<desc>lat.=55.759972, lon.=26.039698, Alt.=167.107544m. Speed=0.072000m/h.</desc>
<speed>0.020000</speed>
</trkpt>
<trkpt lat="55.759972" lon="26.039698">
<ele>167.103638</ele>
<time>2010-07-17T17:15:45Z</time>
<desc>lat.=55.759972, lon.=26.039698, Alt.=167.103638m. Speed=0.036000m/h.</desc>
<speed>0.010000</speed>
</trkpt>
<trkpt lat="55.759972" lon="26.039698">
<ele>167.107544</ele>
<time>2010-07-17T17:15:46Z</time>
<desc>lat.=55.759972, lon.=26.039698, Alt.=167.107544m. Speed=0.072000m/h.</desc>
<speed>0.020000</speed>
</trkpt>
<trkpt lat="55.759972" lon="26.039700">
<ele>167.119263</ele>
<time>2010-07-17T17:15:47Z</time>
<desc>lat.=55.759972, lon.=26.039700, Alt.=167.119263m. Speed=0.072000m/h.</desc>
<speed>0.020000</speed>
</trkpt>
<trkpt lat="55.759972" lon="26.039700">
<ele>167.123169</ele>
<time>2010-07-17T17:15:48Z</time>
<desc>lat.=55.759972, lon.=26.039700, Alt.=167.123169m. Speed=0.036000m/h.</desc>
<speed>0.010000</speed>
</trkpt>
<trkpt lat="55.759972" lon="26.039700">
<ele>167.127075</ele>
<time>2010-07-17T17:15:49Z</time>
<desc>lat.=55.759972, lon.=26.039700, Alt.=167.127075m. Speed=0.108000m/h.</desc>
<speed>0.030000</speed>
</trkpt>
<trkpt lat="55.759972" lon="26.039700">
<ele>167.134888</ele>
<time>2010-07-17T17:15:50Z</time>
<desc>lat.=55.759972, lon.=26.039700, Alt.=167.134888m. Speed=0.072000m/h.</desc>
<speed>0.020000</speed>
</trkpt>
<trkpt lat="55.759972" lon="26.039700">
<ele>167.134888</ele>
<time>2010-07-17T17:15:51Z</time>
<desc>lat.=55.759972, lon.=26.039700, Alt.=167.134888m. Speed=0.108000m/h.</desc>
<speed>0.030000</speed>
</trkpt>
<trkpt lat="55.759972" lon="26.039700">
<ele>167.146606</ele>
<time>2010-07-17T17:15:52Z</time>
<desc>lat.=55.759972, lon.=26.039700, Alt.=167.146606m. Speed=0.000000m/h.</desc>
<speed>0.000000</speed>
</trkpt>
<trkpt lat="55.759972" lon="26.039700">
<ele>167.150513</ele>
<time>2010-07-17T17:15:53Z</time>
<desc>lat.=55.759972, lon.=26.039700, Alt.=167.150513m. Speed=0.000000m/h.</desc>
<speed>0.000000</speed>
</trkpt>
<trkpt lat="55.759972" lon="26.039700">
<ele>167.162231</ele>
<time>2010-07-17T17:15:54Z</time>
<desc>lat.=55.759972, lon.=26.039700, Alt.=167.162231m. Speed=0.072000m/h.</desc>
<speed>0.020000</speed>
</trkpt>
<trkpt lat="55.759972" lon="26.039700">
<ele>167.166138</ele>
<time>2010-07-17T17:15:55Z</time>
<desc>lat.=55.759972, lon.=26.039700, Alt.=167.166138m. Speed=0.036000m/h.</desc>
<speed>0.010000</speed>
</trkpt>
<trkpt lat="55.759972" lon="26.039700">
<ele>167.177856</ele>
<time>2010-07-17T17:15:56Z</time>
<desc>lat.=55.759972, lon.=26.039700, Alt.=167.177856m. Speed=0.144000m/h.</desc>
<speed>0.040000</speed>
</trkpt>
<trkpt lat="55.759972" lon="26.039700">
<ele>167.185669</ele>
<time>2010-07-17T17:15:57Z</time>
<desc>lat.=55.759972, lon.=26.039700, Alt.=167.185669m. Speed=0.108000m/h.</desc>
<speed>0.030000</speed>
</trkpt>
<trkpt lat="55.759972" lon="26.039700">
<ele>167.189575</ele>
<time>2010-07-17T17:15:58Z</time>
<desc>lat.=55.759972, lon.=26.039700, Alt.=167.189575m. Speed=0.108000m/h.</desc>
<speed>0.030000</speed>
</trkpt>
<trkpt lat="55.759972" lon="26.039700">
<ele>167.189575</ele>
<time>2010-07-17T17:15:59Z</time>
<desc>lat.=55.759972, lon.=26.039700, Alt.=167.189575m. Speed=0.108000m/h.</desc>
<speed>0.030000</speed>
</trkpt>
<trkpt lat="55.759972" lon="26.039701">
<ele>167.189575</ele>
<time>2010-07-17T17:16:00Z</time>
<desc>lat.=55.759972, lon.=26.039701, Alt.=167.189575m. Speed=0.108000m/h.</desc>
<speed>0.030000</speed>
</trkpt>
<trkpt lat="55.759972" lon="26.039701">
<ele>167.185669</ele>
<time>2010-07-17T17:16:01Z</time>
<desc>lat.=55.759972, lon.=26.039701, Alt.=167.185669m. Speed=0.144000m/h.</desc>
<speed>0.040000</speed>
</trkpt>
<trkpt lat="55.759972" lon="26.039701">
<ele>167.177856</ele>
<time>2010-07-17T17:16:02Z</time>
<desc>lat.=55.759972, lon.=26.039701, Alt.=167.177856m. Speed=0.036000m/h.</desc>
<speed>0.010000</speed>
</trkpt>
<trkpt lat="55.759972" lon="26.039701">
<ele>167.170044</ele>
<time>2010-07-17T17:16:03Z</time>
<desc>lat.=55.759972, lon.=26.039701, Alt.=167.170044m. Speed=0.072000m/h.</desc>
<speed>0.020000</speed>
</trkpt>
<trkpt lat="55.759972" lon="26.039701">
<ele>167.166138</ele>
<time>2010-07-17T17:16:04Z</time>
<desc>lat.=55.759972, lon.=26.039701, Alt.=167.166138m. Speed=0.036000m/h.</desc>
<speed>0.010000</speed>
</trkpt>
<trkpt lat="55.759972" lon="26.039701">
<ele>167.154419</ele>
<time>2010-07-17T17:16:05Z</time>
<desc>lat.=55.759972, lon.=26.039701, Alt.=167.154419m. Speed=0.180000m/h.</desc>
<speed>0.050000</speed>
</trkpt>
<trkpt lat="55.759972" lon="26.039701">
<ele>167.150513</ele>
<time>2010-07-17T17:16:06Z</time>
<desc>lat.=55.759972, lon.=26.039701, Alt.=167.150513m. Speed=0.072000m/h.</desc>
<speed>0.020000</speed>
</trkpt>
<trkpt lat="55.759972" lon="26.039701">
<ele>167.142700</ele>
<time>2010-07-17T17:16:07Z</time>
<desc>lat.=55.759972, lon.=26.039701, Alt.=167.142700m. Speed=0.000000m/h.</desc>
<speed>0.000000</speed>
</trkpt>
<trkpt lat="55.759972" lon="26.039701">
<ele>167.134888</ele>
<time>2010-07-17T17:16:08Z</time>
<desc>lat.=55.759972, lon.=26.039701, Alt.=167.134888m. Speed=0.000000m/h.</desc>
<speed>0.000000</speed>
</trkpt>
<trkpt lat="55.759972" lon="26.039701">
<ele>167.127075</ele>
<time>2010-07-17T17:16:09Z</time>
<desc>lat.=55.759972, lon.=26.039701, Alt.=167.127075m. Speed=0.000000m/h.</desc>
<speed>0.000000</speed>
</trkpt>
<trkpt lat="55.759972" lon="26.039701">
<ele>167.134888</ele>
<time>2010-07-17T17:16:10Z</time>
<desc>lat.=55.759972, lon.=26.039701, Alt.=167.134888m. Speed=0.036000m/h.</desc>
<speed>0.010000</speed>
</trkpt>
<trkpt lat="55.759972" lon="26.039701">
<ele>167.138794</ele>
<time>2010-07-17T17:16:11Z</time>
<desc>lat.=55.759972, lon.=26.039701, Alt.=167.138794m. Speed=0.036000m/h.</desc>
<speed>0.010000</speed>
</trkpt>
<trkpt lat="55.759972" lon="26.039701">
<ele>167.130981</ele>
<time>2010-07-17T17:16:12Z</time>
<desc>lat.=55.759972, lon.=26.039701, Alt.=167.130981m. Speed=0.036000m/h.</desc>
<speed>0.010000</speed>
</trkpt>
<trkpt lat="55.759972" lon="26.039701">
<ele>167.134888</ele>
<time>2010-07-17T17:16:13Z</time>
<desc>lat.=55.759972, lon.=26.039701, Alt.=167.134888m. Speed=0.036000m/h.</desc>
<speed>0.010000</speed>
</trkpt>
<trkpt lat="55.759972" lon="26.039701">
<ele>167.127075</ele>
<time>2010-07-17T17:16:14Z</time>
<desc>lat.=55.759972, lon.=26.039701, Alt.=167.127075m. Speed=0.036000m/h.</desc>
<speed>0.010000</speed>
</trkpt>
<trkpt lat="55.759972" lon="26.039701">
<ele>167.127075</ele>
<time>2010-07-17T17:16:15Z</time>
<desc>lat.=55.759972, lon.=26.039701, Alt.=167.127075m. Speed=0.072000m/h.</desc>
<speed>0.020000</speed>
</trkpt>
<trkpt lat="55.759972" lon="26.039701">
<ele>167.119263</ele>
<time>2010-07-17T17:16:16Z</time>
<desc>lat.=55.759972, lon.=26.039701, Alt.=167.119263m. Speed=0.000000m/h.</desc>
<speed>0.000000</speed>
</trkpt>
<trkpt lat="55.759972" lon="26.039701">
<ele>167.107544</ele>
<time>2010-07-17T17:16:17Z</time>
<desc>lat.=55.759972, lon.=26.039701, Alt.=167.107544m. Speed=0.036000m/h.</desc>
<speed>0.010000</speed>
</trkpt>
<trkpt lat="55.759972" lon="26.039701">
<ele>167.107544</ele>
<time>2010-07-17T17:16:18Z</time>
<desc>lat.=55.759972, lon.=26.039701, Alt.=167.107544m. Speed=0.072000m/h.</desc>
<speed>0.020000</speed>
</trkpt>
<trkpt lat="55.759972" lon="26.039701">
<ele>167.107544</ele>
<time>2010-07-17T17:16:19Z</time>
<desc>lat.=55.759972, lon.=26.039701, Alt.=167.107544m. Speed=0.072000m/h.</desc>
<speed>0.020000</speed>
</trkpt>
<trkpt lat="55.759972" lon="26.039701">
<ele>167.091919</ele>
<time>2010-07-17T17:16:20Z</time>
<desc>lat.=55.759972, lon.=26.039701, Alt.=167.091919m. Speed=0.036000m/h.</desc>
<speed>0.010000</speed>
</trkpt>
<trkpt lat="55.759972" lon="26.039703">
<ele>167.095825</ele>
<time>2010-07-17T17:16:21Z</time>
<desc>lat.=55.759972, lon.=26.039703, Alt.=167.095825m. Speed=0.036000m/h.</desc>
<speed>0.010000</speed>
</trkpt>
<trkpt lat="55.759972" lon="26.039703">
<ele>167.103638</ele>
<time>2010-07-17T17:16:22Z</time>
<desc>lat.=55.759972, lon.=26.039703, Alt.=167.103638m. Speed=0.072000m/h.</desc>
<speed>0.020000</speed>
</trkpt>
<trkpt lat="55.759972" lon="26.039703">
<ele>167.103638</ele>
<time>2010-07-17T17:16:23Z</time>
<desc>lat.=55.759972, lon.=26.039703, Alt.=167.103638m. Speed=0.288000m/h.</desc>
<speed>0.080000</speed>
</trkpt>
<trkpt lat="55.759972" lon="26.039703">
<ele>167.115356</ele>
<time>2010-07-17T17:16:24Z</time>
<desc>lat.=55.759972, lon.=26.039703, Alt.=167.115356m. Speed=0.360000m/h.</desc>
<speed>0.100000</speed>
</trkpt>
<trkpt lat="55.759972" lon="26.039703">
<ele>167.119263</ele>
<time>2010-07-17T17:16:25Z</time>
<desc>lat.=55.759972, lon.=26.039703, Alt.=167.119263m. Speed=0.036000m/h.</desc>
<speed>0.010000</speed>
</trkpt>
<trkpt lat="55.759972" lon="26.039703">
<ele>167.119263</ele>
<time>2010-07-17T17:16:26Z</time>
<desc>lat.=55.759972, lon.=26.039703, Alt.=167.119263m. Speed=0.396000m/h.</desc>
<speed>0.110000</speed>
</trkpt>
<trkpt lat="55.759972" lon="26.039705">
<ele>167.123169</ele>
<time>2010-07-17T17:16:27Z</time>
<desc>lat.=55.759972, lon.=26.039705, Alt.=167.123169m. Speed=0.108000m/h.</desc>
<speed>0.030000</speed>
</trkpt>
<trkpt lat="55.759972" lon="26.039705">
<ele>167.130981</ele>
<time>2010-07-17T17:16:28Z</time>
<desc>lat.=55.759972, lon.=26.039705, Alt.=167.130981m. Speed=0.252000m/h.</desc>
<speed>0.070000</speed>
</trkpt>
<trkpt lat="55.759972" lon="26.039705">
<ele>167.134888</ele>
<time>2010-07-17T17:16:29Z</time>
<desc>lat.=55.759972, lon.=26.039705, Alt.=167.134888m. Speed=0.324000m/h.</desc>
<speed>0.090000</speed>
</trkpt>
<trkpt lat="55.759972" lon="26.039705">
<ele>167.146606</ele>
<time>2010-07-17T17:16:30Z</time>
<desc>lat.=55.759972, lon.=26.039705, Alt.=167.146606m. Speed=0.504000m/h.</desc>
<speed>0.140000</speed>
</trkpt>
<trkpt lat="55.759975" lon="26.039709">
<ele>167.142700</ele>
<time>2010-07-17T17:16:31Z</time>
<desc>lat.=55.759975, lon.=26.039709, Alt.=167.142700m. Speed=1.476000m/h.</desc>
<speed>0.410000</speed>
</trkpt>
<trkpt lat="55.759975" lon="26.039734">
<ele>167.048950</ele>
<time>2010-07-17T17:16:32Z</time>
<desc>lat.=55.759975, lon.=26.039734, Alt.=167.048950m. Speed=2.484000m/h.</desc>
<speed>0.690000</speed>
</trkpt>
<trkpt lat="55.759979" lon="26.039751">
<ele>167.291138</ele>
<time>2010-07-17T17:16:33Z</time>
<desc>lat.=55.759979, lon.=26.039751, Alt.=167.291138m. Speed=1.620000m/h.</desc>
<speed>0.450000</speed>
</trkpt>
<trkpt lat="55.759991" lon="26.039764">
<ele>167.982544</ele>
<time>2010-07-17T17:16:34Z</time>
<desc>lat.=55.759991, lon.=26.039764, Alt.=167.982544m. Speed=2.376000m/h.</desc>
<speed>0.660000</speed>
</trkpt>
<trkpt lat="55.760002" lon="26.039780">
<ele>168.236450</ele>
<time>2010-07-17T17:16:35Z</time>
<desc>lat.=55.760002, lon.=26.039780, Alt.=168.236450m. Speed=2.664000m/h.</desc>
<speed>0.740000</speed>
</trkpt>
<trkpt lat="55.760017" lon="26.039795">
<ele>168.396606</ele>
<time>2010-07-17T17:16:36Z</time>
<desc>lat.=55.760017, lon.=26.039795, Alt.=168.396606m. Speed=3.384000m/h.</desc>
<speed>0.940000</speed>
</trkpt>
<trkpt lat="55.760029" lon="26.039806">
<ele>168.541138</ele>
<time>2010-07-17T17:16:37Z</time>
<desc>lat.=55.760029, lon.=26.039806, Alt.=168.541138m. Speed=3.096000m/h.</desc>
<speed>0.860000</speed>
</trkpt>
<trkpt lat="55.760036" lon="26.039822">
<ele>168.556763</ele>
<time>2010-07-17T17:16:38Z</time>
<desc>lat.=55.760036, lon.=26.039822, Alt.=168.556763m. Speed=2.988000m/h.</desc>
<speed>0.830000</speed>
</trkpt>
<trkpt lat="55.760044" lon="26.039833">
<ele>168.435669</ele>
<time>2010-07-17T17:16:39Z</time>
<desc>lat.=55.760044, lon.=26.039833, Alt.=168.435669m. Speed=2.880000m/h.</desc>
<speed>0.800000</speed>
</trkpt>
<trkpt lat="55.760052" lon="26.039848">
<ele>168.470825</ele>
<time>2010-07-17T17:16:40Z</time>
<desc>lat.=55.760052, lon.=26.039848, Alt.=168.470825m. Speed=3.348000m/h.</desc>
<speed>0.930000</speed>
</trkpt>
<trkpt lat="55.760059" lon="26.039873">
<ele>168.267700</ele>
<time>2010-07-17T17:16:41Z</time>
<desc>lat.=55.760059, lon.=26.039873, Alt.=168.267700m. Speed=3.204000m/h.</desc>
<speed>0.890000</speed>
</trkpt>
<trkpt lat="55.760071" lon="26.039902">
<ele>168.338013</ele>
<time>2010-07-17T17:16:42Z</time>
<desc>lat.=55.760071, lon.=26.039902, Alt.=168.338013m. Speed=3.960000m/h.</desc>
<speed>1.100000</speed>
</trkpt>
<trkpt lat="55.760075" lon="26.039923">
<ele>167.892700</ele>
<time>2010-07-17T17:16:43Z</time>
<desc>lat.=55.760075, lon.=26.039923, Alt.=167.892700m. Speed=3.276000m/h.</desc>
<speed>0.910000</speed>
</trkpt>
<trkpt lat="55.760078" lon="26.039951">
<ele>167.896606</ele>
<time>2010-07-17T17:16:44Z</time>
<desc>lat.=55.760078, lon.=26.039951, Alt.=167.896606m. Speed=3.888000m/h.</desc>
<speed>1.080000</speed>
</trkpt>
<trkpt lat="55.760086" lon="26.039978">
<ele>167.939575</ele>
<time>2010-07-17T17:16:45Z</time>
<desc>lat.=55.760086, lon.=26.039978, Alt.=167.939575m. Speed=3.744000m/h.</desc>
<speed>1.040000</speed>
</trkpt>
<trkpt lat="55.760094" lon="26.040003">
<ele>168.127075</ele>
<time>2010-07-17T17:16:46Z</time>
<desc>lat.=55.760094, lon.=26.040003, Alt.=168.127075m. Speed=3.924000m/h.</desc>
<speed>1.090000</speed>
</trkpt>
<trkpt lat="55.760101" lon="26.040037">
<ele>168.189575</ele>
<time>2010-07-17T17:16:47Z</time>
<desc>lat.=55.760101, lon.=26.040037, Alt.=168.189575m. Speed=4.284000m/h.</desc>
<speed>1.190000</speed>
</trkpt>
<trkpt lat="55.760105" lon="26.040064">
<ele>168.373169</ele>
<time>2010-07-17T17:16:48Z</time>
<desc>lat.=55.760105, lon.=26.040064, Alt.=168.373169m. Speed=2.952000m/h.</desc>
<speed>0.820000</speed>
</trkpt>
<trkpt lat="55.760109" lon="26.040073">
<ele>169.142700</ele>
<time>2010-07-17T17:16:49Z</time>
<desc>lat.=55.760109, lon.=26.040073, Alt.=169.142700m. Speed=2.412000m/h.</desc>
<speed>0.670000</speed>
</trkpt>
<trkpt lat="55.760117" lon="26.040089">
<ele>169.228638</ele>
<time>2010-07-17T17:16:50Z</time>
<desc>lat.=55.760117, lon.=26.040089, Alt.=169.228638m. Speed=2.268000m/h.</desc>
<speed>0.630000</speed>
</trkpt>
<trkpt lat="55.760117" lon="26.040096">
<ele>169.451294</ele>
<time>2010-07-17T17:16:51Z</time>
<desc>lat.=55.760117, lon.=26.040096, Alt.=169.451294m. Speed=1.440000m/h.</desc>
<speed>0.400000</speed>
</trkpt>
<trkpt lat="55.760117" lon="26.040104">
<ele>169.775513</ele>
<time>2010-07-17T17:16:52Z</time>
<desc>lat.=55.760117, lon.=26.040104, Alt.=169.775513m. Speed=1.296000m/h.</desc>
<speed>0.360000</speed>
</trkpt>
<trkpt lat="55.760113" lon="26.040102">
<ele>170.310669</ele>
<time>2010-07-17T17:16:53Z</time>
<desc>lat.=55.760113, lon.=26.040102, Alt.=170.310669m. Speed=0.504000m/h.</desc>
<speed>0.140000</speed>
</trkpt>
<trkpt lat="55.760117" lon="26.040091">
<ele>170.677856</ele>
<time>2010-07-17T17:16:54Z</time>
<desc>lat.=55.760117, lon.=26.040091, Alt.=170.677856m. Speed=0.144000m/h.</desc>
<speed>0.040000</speed>
</trkpt>
<trkpt lat="55.760117" lon="26.040087">
<ele>170.771606</ele>
<time>2010-07-17T17:16:55Z</time>
<desc>lat.=55.760117, lon.=26.040087, Alt.=170.771606m. Speed=0.216000m/h.</desc>
<speed>0.060000</speed>
</trkpt>
<trkpt lat="55.760120" lon="26.040070">
<ele>171.240356</ele>
<time>2010-07-17T17:16:56Z</time>
<desc>lat.=55.760120, lon.=26.040070, Alt.=171.240356m. Speed=0.792000m/h.</desc>
<speed>0.220000</speed>
</trkpt>
<trkpt lat="55.760120" lon="26.040066">
<ele>171.275513</ele>
<time>2010-07-17T17:16:57Z</time>
<desc>lat.=55.760120, lon.=26.040066, Alt.=171.275513m. Speed=0.756000m/h.</desc>
<speed>0.210000</speed>
</trkpt>
<trkpt lat="55.760124" lon="26.040064">
<ele>171.310669</ele>
<time>2010-07-17T17:16:58Z</time>
<desc>lat.=55.760124, lon.=26.040064, Alt.=171.310669m. Speed=0.972000m/h.</desc>
<speed>0.270000</speed>
</trkpt>
<trkpt lat="55.760124" lon="26.040058">
<ele>171.338013</ele>
<time>2010-07-17T17:16:59Z</time>
<desc>lat.=55.760124, lon.=26.040058, Alt.=171.338013m. Speed=0.432000m/h.</desc>
<speed>0.120000</speed>
</trkpt>
<trkpt lat="55.760124" lon="26.040056">
<ele>171.361450</ele>
<time>2010-07-17T17:17:00Z</time>
<desc>lat.=55.760124, lon.=26.040056, Alt.=171.361450m. Speed=0.720000m/h.</desc>
<speed>0.200000</speed>
</trkpt>
<trkpt lat="55.760124" lon="26.040054">
<ele>171.377075</ele>
<time>2010-07-17T17:17:01Z</time>
<desc>lat.=55.760124, lon.=26.040054, Alt.=171.377075m. Speed=0.864000m/h.</desc>
<speed>0.240000</speed>
</trkpt>
<trkpt lat="55.760128" lon="26.040051">
<ele>171.388794</ele>
<time>2010-07-17T17:17:02Z</time>
<desc>lat.=55.760128, lon.=26.040051, Alt.=171.388794m. Speed=0.756000m/h.</desc>
<speed>0.210000</speed>
</trkpt>
<trkpt lat="55.760128" lon="26.040049">
<ele>171.396606</ele>
<time>2010-07-17T17:17:03Z</time>
<desc>lat.=55.760128, lon.=26.040049, Alt.=171.396606m. Speed=0.504000m/h.</desc>
<speed>0.140000</speed>
</trkpt>
<trkpt lat="55.760128" lon="26.040047">
<ele>171.400513</ele>
<time>2010-07-17T17:17:04Z</time>
<desc>lat.=55.760128, lon.=26.040047, Alt.=171.400513m. Speed=0.504000m/h.</desc>
<speed>0.140000</speed>
</trkpt>
<trkpt lat="55.760132" lon="26.040045">
<ele>171.408325</ele>
<time>2010-07-17T17:17:05Z</time>
<desc>lat.=55.760132, lon.=26.040045, Alt.=171.408325m. Speed=0.432000m/h.</desc>
<speed>0.120000</speed>
</trkpt>
<trkpt lat="55.760132" lon="26.040045">
<ele>171.408325</ele>
<time>2010-07-17T17:17:06Z</time>
<desc>lat.=55.760132, lon.=26.040045, Alt.=171.408325m. Speed=0.720000m/h.</desc>
<speed>0.200000</speed>
</trkpt>
<trkpt lat="55.760132" lon="26.040043">
<ele>171.408325</ele>
<time>2010-07-17T17:17:07Z</time>
<desc>lat.=55.760132, lon.=26.040043, Alt.=171.408325m. Speed=0.612000m/h.</desc>
<speed>0.170000</speed>
</trkpt>
<trkpt lat="55.760136" lon="26.040041">
<ele>171.408325</ele>
<time>2010-07-17T17:17:08Z</time>
<desc>lat.=55.760136, lon.=26.040041, Alt.=171.408325m. Speed=0.756000m/h.</desc>
<speed>0.210000</speed>
</trkpt>
<trkpt lat="55.760136" lon="26.040039">
<ele>171.404419</ele>
<time>2010-07-17T17:17:09Z</time>
<desc>lat.=55.760136, lon.=26.040039, Alt.=171.404419m. Speed=0.684000m/h.</desc>
<speed>0.190000</speed>
</trkpt>
<trkpt lat="55.760139" lon="26.040037">
<ele>171.392700</ele>
<time>2010-07-17T17:17:10Z</time>
<desc>lat.=55.760139, lon.=26.040037, Alt.=171.392700m. Speed=0.504000m/h.</desc>
<speed>0.140000</speed>
</trkpt>
<trkpt lat="55.760139" lon="26.040035">
<ele>171.388794</ele>
<time>2010-07-17T17:17:11Z</time>
<desc>lat.=55.760139, lon.=26.040035, Alt.=171.388794m. Speed=0.540000m/h.</desc>
<speed>0.150000</speed>
</trkpt>
<trkpt lat="55.760139" lon="26.040035">
<ele>171.384888</ele>
<time>2010-07-17T17:17:12Z</time>
<desc>lat.=55.760139, lon.=26.040035, Alt.=171.384888m. Speed=0.468000m/h.</desc>
<speed>0.130000</speed>
</trkpt>
<trkpt lat="55.760139" lon="26.040033">
<ele>171.380981</ele>
<time>2010-07-17T17:17:13Z</time>
<desc>lat.=55.760139, lon.=26.040033, Alt.=171.380981m. Speed=0.540000m/h.</desc>
<speed>0.150000</speed>
</trkpt>
<trkpt lat="55.760143" lon="26.040031">
<ele>171.373169</ele>
<time>2010-07-17T17:17:14Z</time>
<desc>lat.=55.760143, lon.=26.040031, Alt.=171.373169m. Speed=0.036000m/h.</desc>
<speed>0.010000</speed>
</trkpt>
<trkpt lat="55.760143" lon="26.040031">
<ele>171.365356</ele>
<time>2010-07-17T17:17:15Z</time>
<desc>lat.=55.760143, lon.=26.040031, Alt.=171.365356m. Speed=0.144000m/h.</desc>
<speed>0.040000</speed>
</trkpt>
<trkpt lat="55.760143" lon="26.040031">
<ele>171.357544</ele>
<time>2010-07-17T17:17:16Z</time>
<desc>lat.=55.760143, lon.=26.040031, Alt.=171.357544m. Speed=0.684000m/h.</desc>
<speed>0.190000</speed>
</trkpt>
<trkpt lat="55.760143" lon="26.040030">
<ele>171.353638</ele>
<time>2010-07-17T17:17:17Z</time>
<desc>lat.=55.760143, lon.=26.040030, Alt.=171.353638m. Speed=1.080000m/h.</desc>
<speed>0.300000</speed>
</trkpt>
<trkpt lat="55.760151" lon="26.040018">
<ele>170.970825</ele>
<time>2010-07-17T17:17:18Z</time>
<desc>lat.=55.760151, lon.=26.040018, Alt.=170.970825m. Speed=0.504000m/h.</desc>
<speed>0.140000</speed>
</trkpt>
<trkpt lat="55.760151" lon="26.040003">
<ele>170.724731</ele>
<time>2010-07-17T17:17:19Z</time>
<desc>lat.=55.760151, lon.=26.040003, Alt.=170.724731m. Speed=0.612000m/h.</desc>
<speed>0.170000</speed>
</trkpt>
<trkpt lat="55.760155" lon="26.039995">
<ele>170.638794</ele>
<time>2010-07-17T17:17:20Z</time>
<desc>lat.=55.760155, lon.=26.039995, Alt.=170.638794m. Speed=0.288000m/h.</desc>
<speed>0.080000</speed>
</trkpt>
<trkpt lat="55.760155" lon="26.039986">
<ele>170.427856</ele>
<time>2010-07-17T17:17:21Z</time>
<desc>lat.=55.760155, lon.=26.039986, Alt.=170.427856m. Speed=0.252000m/h.</desc>
<speed>0.070000</speed>
</trkpt>
<trkpt lat="55.760155" lon="26.039984">
<ele>170.420044</ele>
<time>2010-07-17T17:17:22Z</time>
<desc>lat.=55.760155, lon.=26.039984, Alt.=170.420044m. Speed=0.072000m/h.</desc>
<speed>0.020000</speed>
</trkpt>
<trkpt lat="55.760155" lon="26.039984">
<ele>170.408325</ele>
<time>2010-07-17T17:17:23Z</time>
<desc>lat.=55.760155, lon.=26.039984, Alt.=170.408325m. Speed=0.324000m/h.</desc>
<speed>0.090000</speed>
</trkpt>
<trkpt lat="55.760155" lon="26.039984">
<ele>170.400513</ele>
<time>2010-07-17T17:17:24Z</time>
<desc>lat.=55.760155, lon.=26.039984, Alt.=170.400513m. Speed=0.540000m/h.</desc>
<speed>0.150000</speed>
</trkpt>
<trkpt lat="55.760159" lon="26.039982">
<ele>170.380981</ele>
<time>2010-07-17T17:17:25Z</time>
<desc>lat.=55.760159, lon.=26.039982, Alt.=170.380981m. Speed=0.540000m/h.</desc>
<speed>0.150000</speed>
</trkpt>
<trkpt lat="55.760159" lon="26.039980">
<ele>170.365356</ele>
<time>2010-07-17T17:17:26Z</time>
<desc>lat.=55.760159, lon.=26.039980, Alt.=170.365356m. Speed=0.612000m/h.</desc>
<speed>0.170000</speed>
</trkpt>
<trkpt lat="55.760159" lon="26.039976">
<ele>170.353638</ele>
<time>2010-07-17T17:17:27Z</time>
<desc>lat.=55.760159, lon.=26.039976, Alt.=170.353638m. Speed=0.072000m/h.</desc>
<speed>0.020000</speed>
</trkpt>
<trkpt lat="55.760159" lon="26.039976">
<ele>170.349731</ele>
<time>2010-07-17T17:17:28Z</time>
<desc>lat.=55.760159, lon.=26.039976, Alt.=170.349731m. Speed=0.324000m/h.</desc>
<speed>0.090000</speed>
</trkpt>
<trkpt lat="55.760159" lon="26.039974">
<ele>170.353638</ele>
<time>2010-07-17T17:17:29Z</time>
<desc>lat.=55.760159, lon.=26.039974, Alt.=170.353638m. Speed=0.468000m/h.</desc>
<speed>0.130000</speed>
</trkpt>
<trkpt lat="55.760159" lon="26.039972">
<ele>170.373169</ele>
<time>2010-07-17T17:17:30Z</time>
<desc>lat.=55.760159, lon.=26.039972, Alt.=170.373169m. Speed=0.180000m/h.</desc>
<speed>0.050000</speed>
</trkpt>
<trkpt lat="55.760159" lon="26.039972">
<ele>170.380981</ele>
<time>2010-07-17T17:17:31Z</time>
<desc>lat.=55.760159, lon.=26.039972, Alt.=170.380981m. Speed=0.288000m/h.</desc>
<speed>0.080000</speed>
</trkpt>
<trkpt lat="55.760159" lon="26.039974">
<ele>170.408325</ele>
<time>2010-07-17T17:17:32Z</time>
<desc>lat.=55.760159, lon.=26.039974, Alt.=170.408325m. Speed=0.324000m/h.</desc>
<speed>0.090000</speed>
</trkpt>
<trkpt lat="55.760159" lon="26.039972">
<ele>170.439575</ele>
<time>2010-07-17T17:17:33Z</time>
<desc>lat.=55.760159, lon.=26.039972, Alt.=170.439575m. Speed=0.144000m/h.</desc>
<speed>0.040000</speed>
</trkpt>
<trkpt lat="55.760159" lon="26.039972">
<ele>170.470825</ele>
<time>2010-07-17T17:17:34Z</time>
<desc>lat.=55.760159, lon.=26.039972, Alt.=170.470825m. Speed=0.360000m/h.</desc>
<speed>0.100000</speed>
</trkpt>
<trkpt lat="55.760159" lon="26.039970">
<ele>170.486450</ele>
<time>2010-07-17T17:17:35Z</time>
<desc>lat.=55.760159, lon.=26.039970, Alt.=170.486450m. Speed=0.324000m/h.</desc>
<speed>0.090000</speed>
</trkpt>
<trkpt lat="55.760159" lon="26.039970">
<ele>170.505981</ele>
<time>2010-07-17T17:17:36Z</time>
<desc>lat.=55.760159, lon.=26.039970, Alt.=170.505981m. Speed=0.180000m/h.</desc>
<speed>0.050000</speed>
</trkpt>
<trkpt lat="55.760159" lon="26.039970">
<ele>170.529419</ele>
<time>2010-07-17T17:17:37Z</time>
<desc>lat.=55.760159, lon.=26.039970, Alt.=170.529419m. Speed=0.072000m/h.</desc>
<speed>0.020000</speed>
</trkpt>
<trkpt lat="55.760159" lon="26.039970">
<ele>170.548950</ele>
<time>2010-07-17T17:17:38Z</time>
<desc>lat.=55.760159, lon.=26.039970, Alt.=170.548950m. Speed=0.252000m/h.</desc>
<speed>0.070000</speed>
</trkpt>
<trkpt lat="55.760159" lon="26.039970">
<ele>170.564575</ele>
<time>2010-07-17T17:17:39Z</time>
<desc>lat.=55.760159, lon.=26.039970, Alt.=170.564575m. Speed=0.252000m/h.</desc>
<speed>0.070000</speed>
</trkpt>
<trkpt lat="55.760159" lon="26.039972">
<ele>170.580200</ele>
<time>2010-07-17T17:17:40Z</time>
<desc>lat.=55.760159, lon.=26.039972, Alt.=170.580200m. Speed=0.360000m/h.</desc>
<speed>0.100000</speed>
</trkpt>
<trkpt lat="55.760159" lon="26.039972">
<ele>170.603638</ele>
<time>2010-07-17T17:17:41Z</time>
<desc>lat.=55.760159, lon.=26.039972, Alt.=170.603638m. Speed=0.468000m/h.</desc>
<speed>0.130000</speed>
</trkpt>
<trkpt lat="55.760159" lon="26.039972">
<ele>170.634888</ele>
<time>2010-07-17T17:17:42Z</time>
<desc>lat.=55.760159, lon.=26.039972, Alt.=170.634888m. Speed=0.360000m/h.</desc>
<speed>0.100000</speed>
</trkpt>
<trkpt lat="55.760159" lon="26.039970">
<ele>170.658325</ele>
<time>2010-07-17T17:17:43Z</time>
<desc>lat.=55.760159, lon.=26.039970, Alt.=170.658325m. Speed=0.540000m/h.</desc>
<speed>0.150000</speed>
</trkpt>
<trkpt lat="55.760159" lon="26.039970">
<ele>170.685669</ele>
<time>2010-07-17T17:17:44Z</time>
<desc>lat.=55.760159, lon.=26.039970, Alt.=170.685669m. Speed=0.792000m/h.</desc>
<speed>0.220000</speed>
</trkpt>
<trkpt lat="55.760159" lon="26.039970">
<ele>170.720825</ele>
<time>2010-07-17T17:17:45Z</time>
<desc>lat.=55.760159, lon.=26.039970, Alt.=170.720825m. Speed=0.648000m/h.</desc>
<speed>0.180000</speed>
</trkpt>
<trkpt lat="55.760162" lon="26.039968">
<ele>170.748169</ele>
<time>2010-07-17T17:17:46Z</time>
<desc>lat.=55.760162, lon.=26.039968, Alt.=170.748169m. Speed=0.216000m/h.</desc>
<speed>0.060000</speed>
</trkpt>
<trkpt lat="55.760162" lon="26.039967">
<ele>170.771606</ele>
<time>2010-07-17T17:17:47Z</time>
<desc>lat.=55.760162, lon.=26.039967, Alt.=170.771606m. Speed=0.396000m/h.</desc>
<speed>0.110000</speed>
</trkpt>
<trkpt lat="55.760162" lon="26.039965">
<ele>170.798950</ele>
<time>2010-07-17T17:17:48Z</time>
<desc>lat.=55.760162, lon.=26.039965, Alt.=170.798950m. Speed=0.792000m/h.</desc>
<speed>0.220000</speed>
</trkpt>
<trkpt lat="55.760162" lon="26.039963">
<ele>170.826294</ele>
<time>2010-07-17T17:17:49Z</time>
<desc>lat.=55.760162, lon.=26.039963, Alt.=170.826294m. Speed=1.296000m/h.</desc>
<speed>0.360000</speed>
</trkpt>
<trkpt lat="55.760166" lon="26.039948">
<ele>171.103638</ele>
<time>2010-07-17T17:17:50Z</time>
<desc>lat.=55.760166, lon.=26.039948, Alt.=171.103638m. Speed=1.044000m/h.</desc>
<speed>0.290000</speed>
</trkpt>
<trkpt lat="55.760170" lon="26.039934">
<ele>171.146606</ele>
<time>2010-07-17T17:17:51Z</time>
<desc>lat.=55.760170, lon.=26.039934, Alt.=171.146606m. Speed=0.504000m/h.</desc>
<speed>0.140000</speed>
</trkpt>
<trkpt lat="55.760178" lon="26.039928">
<ele>171.228638</ele>
<time>2010-07-17T17:17:52Z</time>
<desc>lat.=55.760178, lon.=26.039928, Alt.=171.228638m. Speed=0.324000m/h.</desc>
<speed>0.090000</speed>
</trkpt>
<trkpt lat="55.760181" lon="26.039919">
<ele>171.216919</ele>
<time>2010-07-17T17:17:53Z</time>
<desc>lat.=55.760181, lon.=26.039919, Alt.=171.216919m. Speed=0.540000m/h.</desc>
<speed>0.150000</speed>
</trkpt>
<trkpt lat="55.760181" lon="26.039917">
<ele>171.228638</ele>
<time>2010-07-17T17:17:54Z</time>
<desc>lat.=55.760181, lon.=26.039917, Alt.=171.228638m. Speed=0.396000m/h.</desc>
<speed>0.110000</speed>
</trkpt>
<trkpt lat="55.760185" lon="26.039915">
<ele>171.232544</ele>
<time>2010-07-17T17:17:55Z</time>
<desc>lat.=55.760185, lon.=26.039915, Alt.=171.232544m. Speed=0.468000m/h.</desc>
<speed>0.130000</speed>
</trkpt>
<trkpt lat="55.760185" lon="26.039911">
<ele>171.228638</ele>
<time>2010-07-17T17:17:56Z</time>
<desc>lat.=55.760185, lon.=26.039911, Alt.=171.228638m. Speed=0.252000m/h.</desc>
<speed>0.070000</speed>
</trkpt>
<trkpt lat="55.760185" lon="26.039911">
<ele>171.224731</ele>
<time>2010-07-17T17:17:57Z</time>
<desc>lat.=55.760185, lon.=26.039911, Alt.=171.224731m. Speed=0.180000m/h.</desc>
<speed>0.050000</speed>
</trkpt>
<trkpt lat="55.760185" lon="26.039909">
<ele>171.220825</ele>
<time>2010-07-17T17:17:58Z</time>
<desc>lat.=55.760185, lon.=26.039909, Alt.=171.220825m. Speed=0.252000m/h.</desc>
<speed>0.070000</speed>
</trkpt>
<trkpt lat="55.760185" lon="26.039907">
<ele>171.220825</ele>
<time>2010-07-17T17:17:59Z</time>
<desc>lat.=55.760185, lon.=26.039907, Alt.=171.220825m. Speed=0.396000m/h.</desc>
<speed>0.110000</speed>
</trkpt>
<trkpt lat="55.760185" lon="26.039907">
<ele>171.216919</ele>
<time>2010-07-17T17:18:00Z</time>
<desc>lat.=55.760185, lon.=26.039907, Alt.=171.216919m. Speed=0.144000m/h.</desc>
<speed>0.040000</speed>
</trkpt>
<trkpt lat="55.760185" lon="26.039907">
<ele>171.213013</ele>
<time>2010-07-17T17:18:01Z</time>
<desc>lat.=55.760185, lon.=26.039907, Alt.=171.213013m. Speed=1.152000m/h.</desc>
<speed>0.320000</speed>
</trkpt>
<trkpt lat="55.760204" lon="26.039896">
<ele>171.150513</ele>
<time>2010-07-17T17:18:02Z</time>
<desc>lat.=55.760204, lon.=26.039896, Alt.=171.150513m. Speed=1.296000m/h.</desc>
<speed>0.360000</speed>
</trkpt>
<trkpt lat="55.760223" lon="26.039881">
<ele>171.263794</ele>
<time>2010-07-17T17:18:03Z</time>
<desc>lat.=55.760223, lon.=26.039881, Alt.=171.263794m. Speed=1.116000m/h.</desc>
<speed>0.310000</speed>
</trkpt>
<trkpt lat="55.760235" lon="26.039865">
<ele>171.130981</ele>
<time>2010-07-17T17:18:04Z</time>
<desc>lat.=55.760235, lon.=26.039865, Alt.=171.130981m. Speed=1.008000m/h.</desc>
<speed>0.280000</speed>
</trkpt>
<trkpt lat="55.760250" lon="26.039858">
<ele>171.373169</ele>
<time>2010-07-17T17:18:05Z</time>
<desc>lat.=55.760250, lon.=26.039858, Alt.=171.373169m. Speed=1.116000m/h.</desc>
<speed>0.310000</speed>
</trkpt>
<trkpt lat="55.760258" lon="26.039854">
<ele>171.377075</ele>
<time>2010-07-17T17:18:06Z</time>
<desc>lat.=55.760258, lon.=26.039854, Alt.=171.377075m. Speed=1.080000m/h.</desc>
<speed>0.300000</speed>
</trkpt>
<trkpt lat="55.760265" lon="26.039845">
<ele>171.552856</ele>
<time>2010-07-17T17:18:07Z</time>
<desc>lat.=55.760265, lon.=26.039845, Alt.=171.552856m. Speed=1.152000m/h.</desc>
<speed>0.320000</speed>
</trkpt>
<trkpt lat="55.760273" lon="26.039835">
<ele>171.810669</ele>
<time>2010-07-17T17:18:08Z</time>
<desc>lat.=55.760273, lon.=26.039835, Alt.=171.810669m. Speed=0.720000m/h.</desc>
<speed>0.200000</speed>
</trkpt>
<trkpt lat="55.760281" lon="26.039825">
<ele>172.029419</ele>
<time>2010-07-17T17:18:09Z</time>
<desc>lat.=55.760281, lon.=26.039825, Alt.=172.029419m. Speed=0.756000m/h.</desc>
<speed>0.210000</speed>
</trkpt>
<trkpt lat="55.760288" lon="26.039822">
<ele>172.084106</ele>
<time>2010-07-17T17:18:10Z</time>
<desc>lat.=55.760288, lon.=26.039822, Alt.=172.084106m. Speed=0.720000m/h.</desc>
<speed>0.200000</speed>
</trkpt>
<trkpt lat="55.760296" lon="26.039831">
<ele>172.111450</ele>
<time>2010-07-17T17:18:11Z</time>
<desc>lat.=55.760296, lon.=26.039831, Alt.=172.111450m. Speed=0.756000m/h.</desc>
<speed>0.210000</speed>
</trkpt>
<trkpt lat="55.760300" lon="26.039829">
<ele>172.130981</ele>
<time>2010-07-17T17:18:12Z</time>
<desc>lat.=55.760300, lon.=26.039829, Alt.=172.130981m. Speed=0.720000m/h.</desc>
<speed>0.200000</speed>
</trkpt>
<trkpt lat="55.760300" lon="26.039829">
<ele>172.154419</ele>
<time>2010-07-17T17:18:13Z</time>
<desc>lat.=55.760300, lon.=26.039829, Alt.=172.154419m. Speed=0.792000m/h.</desc>
<speed>0.220000</speed>
</trkpt>
<trkpt lat="55.760303" lon="26.039829">
<ele>172.170044</ele>
<time>2010-07-17T17:18:14Z</time>
<desc>lat.=55.760303, lon.=26.039829, Alt.=172.170044m. Speed=0.720000m/h.</desc>
<speed>0.200000</speed>
</trkpt>
<trkpt lat="55.760303" lon="26.039829">
<ele>172.193481</ele>
<time>2010-07-17T17:18:15Z</time>
<desc>lat.=55.760303, lon.=26.039829, Alt.=172.193481m. Speed=0.864000m/h.</desc>
<speed>0.240000</speed>
</trkpt>
<trkpt lat="55.760307" lon="26.039831">
<ele>172.220825</ele>
<time>2010-07-17T17:18:16Z</time>
<desc>lat.=55.760307, lon.=26.039831, Alt.=172.220825m. Speed=1.080000m/h.</desc>
<speed>0.300000</speed>
</trkpt>
<trkpt lat="55.760311" lon="26.039825">
<ele>172.408325</ele>
<time>2010-07-17T17:18:17Z</time>
<desc>lat.=55.760311, lon.=26.039825, Alt.=172.408325m. Speed=1.008000m/h.</desc>
<speed>0.280000</speed>
</trkpt>
<trkpt lat="55.760319" lon="26.039825">
<ele>172.369263</ele>
<time>2010-07-17T17:18:18Z</time>
<desc>lat.=55.760319, lon.=26.039825, Alt.=172.369263m. Speed=0.936000m/h.</desc>
<speed>0.260000</speed>
</trkpt>
<trkpt lat="55.760330" lon="26.039820">
<ele>172.556763</ele>
<time>2010-07-17T17:18:19Z</time>
<desc>lat.=55.760330, lon.=26.039820, Alt.=172.556763m. Speed=1.008000m/h.</desc>
<speed>0.280000</speed>
</trkpt>
<trkpt lat="55.760334" lon="26.039814">
<ele>172.611450</ele>
<time>2010-07-17T17:18:20Z</time>
<desc>lat.=55.760334, lon.=26.039814, Alt.=172.611450m. Speed=1.008000m/h.</desc>
<speed>0.280000</speed>
</trkpt>
<trkpt lat="55.760334" lon="26.039814">
<ele>172.650513</ele>
<time>2010-07-17T17:18:21Z</time>
<desc>lat.=55.760334, lon.=26.039814, Alt.=172.650513m. Speed=0.792000m/h.</desc>
<speed>0.220000</speed>
</trkpt>
<trkpt lat="55.760338" lon="26.039814">
<ele>172.689575</ele>
<time>2010-07-17T17:18:22Z</time>
<desc>lat.=55.760338, lon.=26.039814, Alt.=172.689575m. Speed=0.720000m/h.</desc>
<speed>0.200000</speed>
</trkpt>
<trkpt lat="55.760338" lon="26.039814">
<ele>172.740356</ele>
<time>2010-07-17T17:18:23Z</time>
<desc>lat.=55.760338, lon.=26.039814, Alt.=172.740356m. Speed=0.648000m/h.</desc>
<speed>0.180000</speed>
</trkpt>
<trkpt lat="55.760342" lon="26.039814">
<ele>172.798950</ele>
<time>2010-07-17T17:18:24Z</time>
<desc>lat.=55.760342, lon.=26.039814, Alt.=172.798950m. Speed=0.684000m/h.</desc>
<speed>0.190000</speed>
</trkpt>
<trkpt lat="55.760342" lon="26.039814">
<ele>172.857544</ele>
<time>2010-07-17T17:18:25Z</time>
<desc>lat.=55.760342, lon.=26.039814, Alt.=172.857544m. Speed=0.576000m/h.</desc>
<speed>0.160000</speed>
</trkpt>
<trkpt lat="55.760345" lon="26.039814">
<ele>172.920044</ele>
<time>2010-07-17T17:18:26Z</time>
<desc>lat.=55.760345, lon.=26.039814, Alt.=172.920044m. Speed=0.360000m/h.</desc>
<speed>0.100000</speed>
</trkpt>
<trkpt lat="55.760345" lon="26.039812">
<ele>172.990356</ele>
<time>2010-07-17T17:18:27Z</time>
<desc>lat.=55.760345, lon.=26.039812, Alt.=172.990356m. Speed=0.468000m/h.</desc>
<speed>0.130000</speed>
</trkpt>
<trkpt lat="55.760345" lon="26.039812">
<ele>173.060669</ele>
<time>2010-07-17T17:18:28Z</time>
<desc>lat.=55.760345, lon.=26.039812, Alt.=173.060669m. Speed=0.432000m/h.</desc>
<speed>0.120000</speed>
</trkpt>
<trkpt lat="55.760345" lon="26.039810">
<ele>173.138794</ele>
<time>2010-07-17T17:18:29Z</time>
<desc>lat.=55.760345, lon.=26.039810, Alt.=173.138794m. Speed=0.360000m/h.</desc>
<speed>0.100000</speed>
</trkpt>
<trkpt lat="55.760345" lon="26.039808">
<ele>173.216919</ele>
<time>2010-07-17T17:18:30Z</time>
<desc>lat.=55.760345, lon.=26.039808, Alt.=173.216919m. Speed=0.396000m/h.</desc>
<speed>0.110000</speed>
</trkpt>
<trkpt lat="55.760349" lon="26.039806">
<ele>173.283325</ele>
<time>2010-07-17T17:18:31Z</time>
<desc>lat.=55.760349, lon.=26.039806, Alt.=173.283325m. Speed=0.252000m/h.</desc>
<speed>0.070000</speed>
</trkpt>
<trkpt lat="55.760349" lon="26.039806">
<ele>173.341919</ele>
<time>2010-07-17T17:18:32Z</time>
<desc>lat.=55.760349, lon.=26.039806, Alt.=173.341919m. Speed=0.144000m/h.</desc>
<speed>0.040000</speed>
</trkpt>
<trkpt lat="55.760349" lon="26.039804">
<ele>173.400513</ele>
<time>2010-07-17T17:18:33Z</time>
<desc>lat.=55.760349, lon.=26.039804, Alt.=173.400513m. Speed=0.180000m/h.</desc>
<speed>0.050000</speed>
</trkpt>
<trkpt lat="55.760349" lon="26.039804">
<ele>173.455200</ele>
<time>2010-07-17T17:18:34Z</time>
<desc>lat.=55.760349, lon.=26.039804, Alt.=173.455200m. Speed=0.252000m/h.</desc>
<speed>0.070000</speed>
</trkpt>
<trkpt lat="55.760349" lon="26.039803">
<ele>173.509888</ele>
<time>2010-07-17T17:18:35Z</time>
<desc>lat.=55.760349, lon.=26.039803, Alt.=173.509888m. Speed=0.360000m/h.</desc>
<speed>0.100000</speed>
</trkpt>
<trkpt lat="55.760345" lon="26.039803">
<ele>173.568481</ele>
<time>2010-07-17T17:18:36Z</time>
<desc>lat.=55.760345, lon.=26.039803, Alt.=173.568481m. Speed=0.540000m/h.</desc>
<speed>0.150000</speed>
</trkpt>
<trkpt lat="55.760345" lon="26.039801">
<ele>173.623169</ele>
<time>2010-07-17T17:18:37Z</time>
<desc>lat.=55.760345, lon.=26.039801, Alt.=173.623169m. Speed=0.792000m/h.</desc>
<speed>0.220000</speed>
</trkpt>
<trkpt lat="55.760342" lon="26.039801">
<ele>173.677856</ele>
<time>2010-07-17T17:18:38Z</time>
<desc>lat.=55.760342, lon.=26.039801, Alt.=173.677856m. Speed=0.684000m/h.</desc>
<speed>0.190000</speed>
</trkpt>
<trkpt lat="55.760342" lon="26.039799">
<ele>173.728638</ele>
<time>2010-07-17T17:18:39Z</time>
<desc>lat.=55.760342, lon.=26.039799, Alt.=173.728638m. Speed=0.684000m/h.</desc>
<speed>0.190000</speed>
</trkpt>
<trkpt lat="55.760338" lon="26.039799">
<ele>173.779419</ele>
<time>2010-07-17T17:18:40Z</time>
<desc>lat.=55.760338, lon.=26.039799, Alt.=173.779419m. Speed=0.792000m/h.</desc>
<speed>0.220000</speed>
</trkpt>
<trkpt lat="55.760338" lon="26.039797">
<ele>173.830200</ele>
<time>2010-07-17T17:18:41Z</time>
<desc>lat.=55.760338, lon.=26.039797, Alt.=173.830200m. Speed=0.756000m/h.</desc>
<speed>0.210000</speed>
</trkpt>
<trkpt lat="55.760334" lon="26.039795">
<ele>173.884888</ele>
<time>2010-07-17T17:18:42Z</time>
<desc>lat.=55.760334, lon.=26.039795, Alt.=173.884888m. Speed=0.792000m/h.</desc>
<speed>0.220000</speed>
</trkpt>
<trkpt lat="55.760334" lon="26.039795">
<ele>173.935669</ele>
<time>2010-07-17T17:18:43Z</time>
<desc>lat.=55.760334, lon.=26.039795, Alt.=173.935669m. Speed=0.828000m/h.</desc>
<speed>0.230000</speed>
</trkpt>
<trkpt lat="55.760330" lon="26.039793">
<ele>173.982544</ele>
<time>2010-07-17T17:18:44Z</time>
<desc>lat.=55.760330, lon.=26.039793, Alt.=173.982544m. Speed=0.864000m/h.</desc>
<speed>0.240000</speed>
</trkpt>
<trkpt lat="55.760330" lon="26.039793">
<ele>174.025513</ele>
<time>2010-07-17T17:18:45Z</time>
<desc>lat.=55.760330, lon.=26.039793, Alt.=174.025513m. Speed=0.684000m/h.</desc>
<speed>0.190000</speed>
</trkpt>
<trkpt lat="55.760326" lon="26.039793">
<ele>174.068481</ele>
<time>2010-07-17T17:18:46Z</time>
<desc>lat.=55.760326, lon.=26.039793, Alt.=174.068481m. Speed=0.648000m/h.</desc>
<speed>0.180000</speed>
</trkpt>
<trkpt lat="55.760326" lon="26.039793">
<ele>174.107544</ele>
<time>2010-07-17T17:18:47Z</time>
<desc>lat.=55.760326, lon.=26.039793, Alt.=174.107544m. Speed=0.684000m/h.</desc>
<speed>0.190000</speed>
</trkpt>
<trkpt lat="55.760326" lon="26.039793">
<ele>174.150513</ele>
<time>2010-07-17T17:18:48Z</time>
<desc>lat.=55.760326, lon.=26.039793, Alt.=174.150513m. Speed=0.864000m/h.</desc>
<speed>0.240000</speed>
</trkpt>
<trkpt lat="55.760323" lon="26.039793">
<ele>174.185669</ele>
<time>2010-07-17T17:18:49Z</time>
<desc>lat.=55.760323, lon.=26.039793, Alt.=174.185669m. Speed=0.936000m/h.</desc>
<speed>0.260000</speed>
</trkpt>
<trkpt lat="55.760319" lon="26.039793">
<ele>174.228638</ele>
<time>2010-07-17T17:18:50Z</time>
<desc>lat.=55.760319, lon.=26.039793, Alt.=174.228638m. Speed=0.756000m/h.</desc>
<speed>0.210000</speed>
</trkpt>
<trkpt lat="55.760319" lon="26.039793">
<ele>174.267700</ele>
<time>2010-07-17T17:18:51Z</time>
<desc>lat.=55.760319, lon.=26.039793, Alt.=174.267700m. Speed=0.792000m/h.</desc>
<speed>0.220000</speed>
</trkpt>
<trkpt lat="55.760315" lon="26.039791">
<ele>174.310669</ele>
<time>2010-07-17T17:18:52Z</time>
<desc>lat.=55.760315, lon.=26.039791, Alt.=174.310669m. Speed=0.792000m/h.</desc>
<speed>0.220000</speed>
</trkpt>
<trkpt lat="55.760315" lon="26.039791">
<ele>174.361450</ele>
<time>2010-07-17T17:18:53Z</time>
<desc>lat.=55.760315, lon.=26.039791, Alt.=174.361450m. Speed=0.504000m/h.</desc>
<speed>0.140000</speed>
</trkpt>
<trkpt lat="55.760315" lon="26.039791">
<ele>174.408325</ele>
<time>2010-07-17T17:18:54Z</time>
<desc>lat.=55.760315, lon.=26.039791, Alt.=174.408325m. Speed=0.612000m/h.</desc>
<speed>0.170000</speed>
</trkpt>
<trkpt lat="55.760311" lon="26.039789">
<ele>174.459106</ele>
<time>2010-07-17T17:18:55Z</time>
<desc>lat.=55.760311, lon.=26.039789, Alt.=174.459106m. Speed=0.720000m/h.</desc>
<speed>0.200000</speed>
</trkpt>
<trkpt lat="55.760311" lon="26.039789">
<ele>174.513794</ele>
<time>2010-07-17T17:18:56Z</time>
<desc>lat.=55.760311, lon.=26.039789, Alt.=174.513794m. Speed=0.612000m/h.</desc>
<speed>0.170000</speed>
</trkpt>
<trkpt lat="55.760307" lon="26.039789">
<ele>174.568481</ele>
<time>2010-07-17T17:18:57Z</time>
<desc>lat.=55.760307, lon.=26.039789, Alt.=174.568481m. Speed=0.540000m/h.</desc>
<speed>0.150000</speed>
</trkpt>
<trkpt lat="55.760307" lon="26.039787">
<ele>174.627075</ele>
<time>2010-07-17T17:18:58Z</time>
<desc>lat.=55.760307, lon.=26.039787, Alt.=174.627075m. Speed=0.504000m/h.</desc>
<speed>0.140000</speed>
</trkpt>
<trkpt lat="55.760307" lon="26.039787">
<ele>174.689575</ele>
<time>2010-07-17T17:18:59Z</time>
<desc>lat.=55.760307, lon.=26.039787, Alt.=174.689575m. Speed=0.324000m/h.</desc>
<speed>0.090000</speed>
</trkpt>
<trkpt lat="55.760307" lon="26.039785">
<ele>174.755981</ele>
<time>2010-07-17T17:19:00Z</time>
<desc>lat.=55.760307, lon.=26.039785, Alt.=174.755981m. Speed=0.504000m/h.</desc>
<speed>0.140000</speed>
</trkpt>
<trkpt lat="55.760303" lon="26.039783">
<ele>174.814575</ele>
<time>2010-07-17T17:19:01Z</time>
<desc>lat.=55.760303, lon.=26.039783, Alt.=174.814575m. Speed=0.396000m/h.</desc>
<speed>0.110000</speed>
</trkpt>
<trkpt lat="55.760303" lon="26.039782">
<ele>174.869263</ele>
<time>2010-07-17T17:19:02Z</time>
<desc>lat.=55.760303, lon.=26.039782, Alt.=174.869263m. Speed=0.396000m/h.</desc>
<speed>0.110000</speed>
</trkpt>
<trkpt lat="55.760303" lon="26.039782">
<ele>174.927856</ele>
<time>2010-07-17T17:19:03Z</time>
<desc>lat.=55.760303, lon.=26.039782, Alt.=174.927856m. Speed=0.360000m/h.</desc>
<speed>0.100000</speed>
</trkpt>
<trkpt lat="55.760303" lon="26.039780">
<ele>174.982544</ele>
<time>2010-07-17T17:19:04Z</time>
<desc>lat.=55.760303, lon.=26.039780, Alt.=174.982544m. Speed=0.252000m/h.</desc>
<speed>0.070000</speed>
</trkpt>
<trkpt lat="55.760303" lon="26.039778">
<ele>175.033325</ele>
<time>2010-07-17T17:19:05Z</time>
<desc>lat.=55.760303, lon.=26.039778, Alt.=175.033325m. Speed=0.252000m/h.</desc>
<speed>0.070000</speed>
</trkpt>
<trkpt lat="55.760303" lon="26.039778">
<ele>175.080200</ele>
<time>2010-07-17T17:19:06Z</time>
<desc>lat.=55.760303, lon.=26.039778, Alt.=175.080200m. Speed=0.288000m/h.</desc>
<speed>0.080000</speed>
</trkpt>
<trkpt lat="55.760303" lon="26.039776">
<ele>175.111450</ele>
<time>2010-07-17T17:19:07Z</time>
<desc>lat.=55.760303, lon.=26.039776, Alt.=175.111450m. Speed=0.288000m/h.</desc>
<speed>0.080000</speed>
</trkpt>
<trkpt lat="55.760303" lon="26.039776">
<ele>175.138794</ele>
<time>2010-07-17T17:19:08Z</time>
<desc>lat.=55.760303, lon.=26.039776, Alt.=175.138794m. Speed=0.360000m/h.</desc>
<speed>0.100000</speed>
</trkpt>
<trkpt lat="55.760303" lon="26.039774">
<ele>175.158325</ele>
<time>2010-07-17T17:19:09Z</time>
<desc>lat.=55.760303, lon.=26.039774, Alt.=175.158325m. Speed=0.432000m/h.</desc>
<speed>0.120000</speed>
</trkpt>
<trkpt lat="55.760303" lon="26.039772">
<ele>175.166138</ele>
<time>2010-07-17T17:19:10Z</time>
<desc>lat.=55.760303, lon.=26.039772, Alt.=175.166138m. Speed=0.504000m/h.</desc>
<speed>0.140000</speed>
</trkpt>
<trkpt lat="55.760300" lon="26.039770">
<ele>175.166138</ele>
<time>2010-07-17T17:19:11Z</time>
<desc>lat.=55.760300, lon.=26.039770, Alt.=175.166138m. Speed=0.396000m/h.</desc>
<speed>0.110000</speed>
</trkpt>
<trkpt lat="55.760300" lon="26.039768">
<ele>175.162231</ele>
<time>2010-07-17T17:19:12Z</time>
<desc>lat.=55.760300, lon.=26.039768, Alt.=175.162231m. Speed=0.216000m/h.</desc>
<speed>0.060000</speed>
</trkpt>
<trkpt lat="55.760300" lon="26.039768">
<ele>175.150513</ele>
<time>2010-07-17T17:19:13Z</time>
<desc>lat.=55.760300, lon.=26.039768, Alt.=175.150513m. Speed=0.072000m/h.</desc>
<speed>0.020000</speed>
</trkpt>
<trkpt lat="55.760300" lon="26.039768">
<ele>175.127075</ele>
<time>2010-07-17T17:19:14Z</time>
<desc>lat.=55.760300, lon.=26.039768, Alt.=175.127075m. Speed=0.144000m/h.</desc>
<speed>0.040000</speed>
</trkpt>
<trkpt lat="55.760300" lon="26.039768">
<ele>175.080200</ele>
<time>2010-07-17T17:19:15Z</time>
<desc>lat.=55.760300, lon.=26.039768, Alt.=175.080200m. Speed=0.252000m/h.</desc>
<speed>0.070000</speed>
</trkpt>
<trkpt lat="55.760300" lon="26.039768">
<ele>175.021606</ele>
<time>2010-07-17T17:19:16Z</time>
<desc>lat.=55.760300, lon.=26.039768, Alt.=175.021606m. Speed=0.288000m/h.</desc>
<speed>0.080000</speed>
</trkpt>
<trkpt lat="55.760300" lon="26.039768">
<ele>174.951294</ele>
<time>2010-07-17T17:19:17Z</time>
<desc>lat.=55.760300, lon.=26.039768, Alt.=174.951294m. Speed=0.504000m/h.</desc>
<speed>0.140000</speed>
</trkpt>
<trkpt lat="55.760296" lon="26.039766">
<ele>174.869263</ele>
<time>2010-07-17T17:19:18Z</time>
<desc>lat.=55.760296, lon.=26.039766, Alt.=174.869263m. Speed=0.396000m/h.</desc>
<speed>0.110000</speed>
</trkpt>
<trkpt lat="55.760296" lon="26.039766">
<ele>174.779419</ele>
<time>2010-07-17T17:19:19Z</time>
<desc>lat.=55.760296, lon.=26.039766, Alt.=174.779419m. Speed=0.468000m/h.</desc>
<speed>0.130000</speed>
</trkpt>
<trkpt lat="55.760296" lon="26.039766">
<ele>174.677856</ele>
<time>2010-07-17T17:19:20Z</time>
<desc>lat.=55.760296, lon.=26.039766, Alt.=174.677856m. Speed=0.252000m/h.</desc>
<speed>0.070000</speed>
</trkpt>
<trkpt lat="55.760292" lon="26.039766">
<ele>174.568481</ele>
<time>2010-07-17T17:19:21Z</time>
<desc>lat.=55.760292, lon.=26.039766, Alt.=174.568481m. Speed=0.396000m/h.</desc>
<speed>0.110000</speed>
</trkpt>
<trkpt lat="55.760292" lon="26.039768">
<ele>174.455200</ele>
<time>2010-07-17T17:19:22Z</time>
<desc>lat.=55.760292, lon.=26.039768, Alt.=174.455200m. Speed=0.324000m/h.</desc>
<speed>0.090000</speed>
</trkpt>
<trkpt lat="55.760292" lon="26.039770">
<ele>174.334106</ele>
<time>2010-07-17T17:19:23Z</time>
<desc>lat.=55.760292, lon.=26.039770, Alt.=174.334106m. Speed=0.288000m/h.</desc>
<speed>0.080000</speed>
</trkpt>
<trkpt lat="55.760292" lon="26.039770">
<ele>174.201294</ele>
<time>2010-07-17T17:19:24Z</time>
<desc>lat.=55.760292, lon.=26.039770, Alt.=174.201294m. Speed=0.144000m/h.</desc>
<speed>0.040000</speed>
</trkpt>
<trkpt lat="55.760292" lon="26.039770">
<ele>174.064575</ele>
<time>2010-07-17T17:19:25Z</time>
<desc>lat.=55.760292, lon.=26.039770, Alt.=174.064575m. Speed=0.072000m/h.</desc>
<speed>0.020000</speed>
</trkpt>
<trkpt lat="55.760292" lon="26.039770">
<ele>173.920044</ele>
<time>2010-07-17T17:19:26Z</time>
<desc>lat.=55.760292, lon.=26.039770, Alt.=173.920044m. Speed=0.108000m/h.</desc>
<speed>0.030000</speed>
</trkpt>
<trkpt lat="55.760292" lon="26.039772">
<ele>173.775513</ele>
<time>2010-07-17T17:19:27Z</time>
<desc>lat.=55.760292, lon.=26.039772, Alt.=173.775513m. Speed=0.504000m/h.</desc>
<speed>0.140000</speed>
</trkpt>
<trkpt lat="55.760292" lon="26.039774">
<ele>173.611450</ele>
<time>2010-07-17T17:19:28Z</time>
<desc>lat.=55.760292, lon.=26.039774, Alt.=173.611450m. Speed=0.612000m/h.</desc>
<speed>0.170000</speed>
</trkpt>
<trkpt lat="55.760292" lon="26.039778">
<ele>173.443481</ele>
<time>2010-07-17T17:19:29Z</time>
<desc>lat.=55.760292, lon.=26.039778, Alt.=173.443481m. Speed=0.756000m/h.</desc>
<speed>0.210000</speed>
</trkpt>
<trkpt lat="55.760296" lon="26.039780">
<ele>173.295044</ele>
<time>2010-07-17T17:19:30Z</time>
<desc>lat.=55.760296, lon.=26.039780, Alt.=173.295044m. Speed=1.008000m/h.</desc>
<speed>0.280000</speed>
</trkpt>
<trkpt lat="55.760296" lon="26.039785">
<ele>173.142700</ele>
<time>2010-07-17T17:19:31Z</time>
<desc>lat.=55.760296, lon.=26.039785, Alt.=173.142700m. Speed=1.188000m/h.</desc>
<speed>0.330000</speed>
</trkpt>
<trkpt lat="55.760307" lon="26.039814">
<ele>173.130981</ele>
<time>2010-07-17T17:19:32Z</time>
<desc>lat.=55.760307, lon.=26.039814, Alt.=173.130981m. Speed=1.188000m/h.</desc>
<speed>0.330000</speed>
</trkpt>
<trkpt lat="55.760319" lon="26.039833">
<ele>173.220825</ele>
<time>2010-07-17T17:19:33Z</time>
<desc>lat.=55.760319, lon.=26.039833, Alt.=173.220825m. Speed=1.224000m/h.</desc>
<speed>0.340000</speed>
</trkpt>
<trkpt lat="55.760319" lon="26.039848">
<ele>172.677856</ele>
<time>2010-07-17T17:19:34Z</time>
<desc>lat.=55.760319, lon.=26.039848, Alt.=172.677856m. Speed=1.080000m/h.</desc>
<speed>0.300000</speed>
</trkpt>
<trkpt lat="55.760326" lon="26.039858">
<ele>173.099731</ele>
<time>2010-07-17T17:19:35Z</time>
<desc>lat.=55.760326, lon.=26.039858, Alt.=173.099731m. Speed=0.972000m/h.</desc>
<speed>0.270000</speed>
</trkpt>
<trkpt lat="55.760330" lon="26.039871">
<ele>173.361450</ele>
<time>2010-07-17T17:19:36Z</time>
<desc>lat.=55.760330, lon.=26.039871, Alt.=173.361450m. Speed=0.972000m/h.</desc>
<speed>0.270000</speed>
</trkpt>
<trkpt lat="55.760330" lon="26.039881">
<ele>173.310669</ele>
<time>2010-07-17T17:19:37Z</time>
<desc>lat.=55.760330, lon.=26.039881, Alt.=173.310669m. Speed=0.864000m/h.</desc>
<speed>0.240000</speed>
</trkpt>
<trkpt lat="55.760338" lon="26.039885">
<ele>173.482544</ele>
<time>2010-07-17T17:19:38Z</time>
<desc>lat.=55.760338, lon.=26.039885, Alt.=173.482544m. Speed=0.756000m/h.</desc>
<speed>0.210000</speed>
</trkpt>
<trkpt lat="55.760338" lon="26.039888">
<ele>173.380981</ele>
<time>2010-07-17T17:19:39Z</time>
<desc>lat.=55.760338, lon.=26.039888, Alt.=173.380981m. Speed=0.612000m/h.</desc>
<speed>0.170000</speed>
</trkpt>
<trkpt lat="55.760338" lon="26.039890">
<ele>173.283325</ele>
<time>2010-07-17T17:19:40Z</time>
<desc>lat.=55.760338, lon.=26.039890, Alt.=173.283325m. Speed=0.684000m/h.</desc>
<speed>0.190000</speed>
</trkpt>
<trkpt lat="55.760338" lon="26.039894">
<ele>173.181763</ele>
<time>2010-07-17T17:19:41Z</time>
<desc>lat.=55.760338, lon.=26.039894, Alt.=173.181763m. Speed=0.612000m/h.</desc>
<speed>0.170000</speed>
</trkpt>
<trkpt lat="55.760338" lon="26.039896">
<ele>173.072388</ele>
<time>2010-07-17T17:19:42Z</time>
<desc>lat.=55.760338, lon.=26.039896, Alt.=173.072388m. Speed=0.720000m/h.</desc>
<speed>0.200000</speed>
</trkpt>
<trkpt lat="55.760338" lon="26.039900">
<ele>172.955200</ele>
<time>2010-07-17T17:19:43Z</time>
<desc>lat.=55.760338, lon.=26.039900, Alt.=172.955200m. Speed=0.720000m/h.</desc>
<speed>0.200000</speed>
</trkpt>
<trkpt lat="55.760342" lon="26.039904">
<ele>172.834106</ele>
<time>2010-07-17T17:19:44Z</time>
<desc>lat.=55.760342, lon.=26.039904, Alt.=172.834106m. Speed=0.648000m/h.</desc>
<speed>0.180000</speed>
</trkpt>
<trkpt lat="55.760342" lon="26.039906">
<ele>172.709106</ele>
<time>2010-07-17T17:19:45Z</time>
<desc>lat.=55.760342, lon.=26.039906, Alt.=172.709106m. Speed=0.576000m/h.</desc>
<speed>0.160000</speed>
</trkpt>
<trkpt lat="55.760338" lon="26.039909">
<ele>172.591919</ele>
<time>2010-07-17T17:19:46Z</time>
<desc>lat.=55.760338, lon.=26.039909, Alt.=172.591919m. Speed=0.648000m/h.</desc>
<speed>0.180000</speed>
</trkpt>
<trkpt lat="55.760338" lon="26.039911">
<ele>172.474731</ele>
<time>2010-07-17T17:19:47Z</time>
<desc>lat.=55.760338, lon.=26.039911, Alt.=172.474731m. Speed=0.612000m/h.</desc>
<speed>0.170000</speed>
</trkpt>
<trkpt lat="55.760338" lon="26.039913">
<ele>172.369263</ele>
<time>2010-07-17T17:19:48Z</time>
<desc>lat.=55.760338, lon.=26.039913, Alt.=172.369263m. Speed=0.504000m/h.</desc>
<speed>0.140000</speed>
</trkpt>
<trkpt lat="55.760338" lon="26.039917">
<ele>172.263794</ele>
<time>2010-07-17T17:19:49Z</time>
<desc>lat.=55.760338, lon.=26.039917, Alt.=172.263794m. Speed=0.432000m/h.</desc>
<speed>0.120000</speed>
</trkpt>
<trkpt lat="55.760338" lon="26.039919">
<ele>172.150513</ele>
<time>2010-07-17T17:19:50Z</time>
<desc>lat.=55.760338, lon.=26.039919, Alt.=172.150513m. Speed=0.396000m/h.</desc>
<speed>0.110000</speed>
</trkpt>
<trkpt lat="55.760338" lon="26.039919">
<ele>172.037231</ele>
<time>2010-07-17T17:19:51Z</time>
<desc>lat.=55.760338, lon.=26.039919, Alt.=172.037231m. Speed=0.396000m/h.</desc>
<speed>0.110000</speed>
</trkpt>
<trkpt lat="55.760338" lon="26.039921">
<ele>171.912231</ele>
<time>2010-07-17T17:19:52Z</time>
<desc>lat.=55.760338, lon.=26.039921, Alt.=171.912231m. Speed=0.360000m/h.</desc>
<speed>0.100000</speed>
</trkpt>
<trkpt lat="55.760334" lon="26.039921">
<ele>171.787231</ele>
<time>2010-07-17T17:19:53Z</time>
<desc>lat.=55.760334, lon.=26.039921, Alt.=171.787231m. Speed=0.360000m/h.</desc>
<speed>0.100000</speed>
</trkpt>
<trkpt lat="55.760334" lon="26.039921">
<ele>171.673950</ele>
<time>2010-07-17T17:19:54Z</time>
<desc>lat.=55.760334, lon.=26.039921, Alt.=171.673950m. Speed=0.360000m/h.</desc>
<speed>0.100000</speed>
</trkpt>
<trkpt lat="55.760334" lon="26.039921">
<ele>171.564575</ele>
<time>2010-07-17T17:19:55Z</time>
<desc>lat.=55.760334, lon.=26.039921, Alt.=171.564575m. Speed=0.360000m/h.</desc>
<speed>0.100000</speed>
</trkpt>
<trkpt lat="55.760334" lon="26.039921">
<ele>171.470825</ele>
<time>2010-07-17T17:19:56Z</time>
<desc>lat.=55.760334, lon.=26.039921, Alt.=171.470825m. Speed=0.360000m/h.</desc>
<speed>0.100000</speed>
</trkpt>
<trkpt lat="55.760334" lon="26.039919">
<ele>171.388794</ele>
<time>2010-07-17T17:19:57Z</time>
<desc>lat.=55.760334, lon.=26.039919, Alt.=171.388794m. Speed=0.360000m/h.</desc>
<speed>0.100000</speed>
</trkpt>
<trkpt lat="55.760330" lon="26.039917">
<ele>171.302856</ele>
<time>2010-07-17T17:19:58Z</time>
<desc>lat.=55.760330, lon.=26.039917, Alt.=171.302856m. Speed=0.432000m/h.</desc>
<speed>0.120000</speed>
</trkpt>
<trkpt lat="55.760330" lon="26.039915">
<ele>171.228638</ele>
<time>2010-07-17T17:19:59Z</time>
<desc>lat.=55.760330, lon.=26.039915, Alt.=171.228638m. Speed=0.612000m/h.</desc>
<speed>0.170000</speed>
</trkpt>
<trkpt lat="55.760330" lon="26.039913">
<ele>171.146606</ele>
<time>2010-07-17T17:20:00Z</time>
<desc>lat.=55.760330, lon.=26.039913, Alt.=171.146606m. Speed=0.648000m/h.</desc>
<speed>0.180000</speed>
</trkpt>
<trkpt lat="55.760330" lon="26.039911">
<ele>171.064575</ele>
<time>2010-07-17T17:20:01Z</time>
<desc>lat.=55.760330, lon.=26.039911, Alt.=171.064575m. Speed=0.720000m/h.</desc>
<speed>0.200000</speed>
</trkpt>
<trkpt lat="55.760330" lon="26.039907">
<ele>170.986450</ele>
<time>2010-07-17T17:20:02Z</time>
<desc>lat.=55.760330, lon.=26.039907, Alt.=170.986450m. Speed=0.828000m/h.</desc>
<speed>0.230000</speed>
</trkpt>
<trkpt lat="55.760326" lon="26.039904">
<ele>170.908325</ele>
<time>2010-07-17T17:20:03Z</time>
<desc>lat.=55.760326, lon.=26.039904, Alt.=170.908325m. Speed=0.792000m/h.</desc>
<speed>0.220000</speed>
</trkpt>
<trkpt lat="55.760326" lon="26.039900">
<ele>170.845825</ele>
<time>2010-07-17T17:20:04Z</time>
<desc>lat.=55.760326, lon.=26.039900, Alt.=170.845825m. Speed=0.864000m/h.</desc>
<speed>0.240000</speed>
</trkpt>
<trkpt lat="55.760326" lon="26.039896">
<ele>170.791138</ele>
<time>2010-07-17T17:20:05Z</time>
<desc>lat.=55.760326, lon.=26.039896, Alt.=170.791138m. Speed=1.152000m/h.</desc>
<speed>0.320000</speed>
</trkpt>
<trkpt lat="55.760330" lon="26.039871">
<ele>171.216919</ele>
<time>2010-07-17T17:20:06Z</time>
<desc>lat.=55.760330, lon.=26.039871, Alt.=171.216919m. Speed=1.332000m/h.</desc>
<speed>0.370000</speed>
</trkpt>
<trkpt lat="55.760330" lon="26.039858">
<ele>171.459106</ele>
<time>2010-07-17T17:20:07Z</time>
<desc>lat.=55.760330, lon.=26.039858, Alt.=171.459106m. Speed=1.224000m/h.</desc>
<speed>0.340000</speed>
</trkpt>
<trkpt lat="55.760330" lon="26.039837">
<ele>171.830200</ele>
<time>2010-07-17T17:20:08Z</time>
<desc>lat.=55.760330, lon.=26.039837, Alt.=171.830200m. Speed=1.368000m/h.</desc>
<speed>0.380000</speed>
</trkpt>
<trkpt lat="55.760334" lon="26.039810">
<ele>172.134888</ele>
<time>2010-07-17T17:20:09Z</time>
<desc>lat.=55.760334, lon.=26.039810, Alt.=172.134888m. Speed=1.512000m/h.</desc>
<speed>0.420000</speed>
</trkpt>
<trkpt lat="55.760338" lon="26.039795">
<ele>172.529419</ele>
<time>2010-07-17T17:20:10Z</time>
<desc>lat.=55.760338, lon.=26.039795, Alt.=172.529419m. Speed=1.296000m/h.</desc>
<speed>0.360000</speed>
</trkpt>
<trkpt lat="55.760342" lon="26.039783">
<ele>173.209106</ele>
<time>2010-07-17T17:20:11Z</time>
<desc>lat.=55.760342, lon.=26.039783, Alt.=173.209106m. Speed=1.116000m/h.</desc>
<speed>0.310000</speed>
</trkpt>
<trkpt lat="55.760345" lon="26.039770">
<ele>173.513794</ele>
<time>2010-07-17T17:20:12Z</time>
<desc>lat.=55.760345, lon.=26.039770, Alt.=173.513794m. Speed=1.188000m/h.</desc>
<speed>0.330000</speed>
</trkpt>
<trkpt lat="55.760349" lon="26.039766">
<ele>173.904419</ele>
<time>2010-07-17T17:20:13Z</time>
<desc>lat.=55.760349, lon.=26.039766, Alt.=173.904419m. Speed=0.972000m/h.</desc>
<speed>0.270000</speed>
</trkpt>
<trkpt lat="55.760357" lon="26.039757">
<ele>174.314575</ele>
<time>2010-07-17T17:20:14Z</time>
<desc>lat.=55.760357, lon.=26.039757, Alt.=174.314575m. Speed=1.008000m/h.</desc>
<speed>0.280000</speed>
</trkpt>
<trkpt lat="55.760357" lon="26.039751">
<ele>174.334106</ele>
<time>2010-07-17T17:20:15Z</time>
<desc>lat.=55.760357, lon.=26.039751, Alt.=174.334106m. Speed=0.936000m/h.</desc>
<speed>0.260000</speed>
</trkpt>
<trkpt lat="55.760361" lon="26.039755">
<ele>174.435669</ele>
<time>2010-07-17T17:20:16Z</time>
<desc>lat.=55.760361, lon.=26.039755, Alt.=174.435669m. Speed=0.756000m/h.</desc>
<speed>0.210000</speed>
</trkpt>
<trkpt lat="55.760365" lon="26.039751">
<ele>174.455200</ele>
<time>2010-07-17T17:20:17Z</time>
<desc>lat.=55.760365, lon.=26.039751, Alt.=174.455200m. Speed=0.540000m/h.</desc>
<speed>0.150000</speed>
</trkpt>
<trkpt lat="55.760365" lon="26.039749">
<ele>174.474731</ele>
<time>2010-07-17T17:20:18Z</time>
<desc>lat.=55.760365, lon.=26.039749, Alt.=174.474731m. Speed=0.216000m/h.</desc>
<speed>0.060000</speed>
</trkpt>
<trkpt lat="55.760365" lon="26.039749">
<ele>174.490356</ele>
<time>2010-07-17T17:20:19Z</time>
<desc>lat.=55.760365, lon.=26.039749, Alt.=174.490356m. Speed=0.216000m/h.</desc>
<speed>0.060000</speed>
</trkpt>
<trkpt lat="55.760365" lon="26.039749">
<ele>174.494263</ele>
<time>2010-07-17T17:20:20Z</time>
<desc>lat.=55.760365, lon.=26.039749, Alt.=174.494263m. Speed=0.324000m/h.</desc>
<speed>0.090000</speed>
</trkpt>
<trkpt lat="55.760365" lon="26.039751">
<ele>174.502075</ele>
<time>2010-07-17T17:20:21Z</time>
<desc>lat.=55.760365, lon.=26.039751, Alt.=174.502075m. Speed=0.504000m/h.</desc>
<speed>0.140000</speed>
</trkpt>
<trkpt lat="55.760365" lon="26.039755">
<ele>174.498169</ele>
<time>2010-07-17T17:20:22Z</time>
<desc>lat.=55.760365, lon.=26.039755, Alt.=174.498169m. Speed=0.612000m/h.</desc>
<speed>0.170000</speed>
</trkpt>
<trkpt lat="55.760365" lon="26.039757">
<ele>174.494263</ele>
<time>2010-07-17T17:20:23Z</time>
<desc>lat.=55.760365, lon.=26.039757, Alt.=174.494263m. Speed=0.720000m/h.</desc>
<speed>0.200000</speed>
</trkpt>
<trkpt lat="55.760365" lon="26.039761">
<ele>174.478638</ele>
<time>2010-07-17T17:20:24Z</time>
<desc>lat.=55.760365, lon.=26.039761, Alt.=174.478638m. Speed=0.900000m/h.</desc>
<speed>0.250000</speed>
</trkpt>
<trkpt lat="55.760365" lon="26.039764">
<ele>174.455200</ele>
<time>2010-07-17T17:20:25Z</time>
<desc>lat.=55.760365, lon.=26.039764, Alt.=174.455200m. Speed=0.900000m/h.</desc>
<speed>0.250000</speed>
</trkpt>
<trkpt lat="55.760365" lon="26.039768">
<ele>174.431763</ele>
<time>2010-07-17T17:20:26Z</time>
<desc>lat.=55.760365, lon.=26.039768, Alt.=174.431763m. Speed=0.972000m/h.</desc>
<speed>0.270000</speed>
</trkpt>
<trkpt lat="55.760365" lon="26.039774">
<ele>174.400513</ele>
<time>2010-07-17T17:20:27Z</time>
<desc>lat.=55.760365, lon.=26.039774, Alt.=174.400513m. Speed=1.008000m/h.</desc>
<speed>0.280000</speed>
</trkpt>
<trkpt lat="55.760365" lon="26.039778">
<ele>174.361450</ele>
<time>2010-07-17T17:20:28Z</time>
<desc>lat.=55.760365, lon.=26.039778, Alt.=174.361450m. Speed=0.936000m/h.</desc>
<speed>0.260000</speed>
</trkpt>
<trkpt lat="55.760368" lon="26.039783">
<ele>174.326294</ele>
<time>2010-07-17T17:20:29Z</time>
<desc>lat.=55.760368, lon.=26.039783, Alt.=174.326294m. Speed=0.936000m/h.</desc>
<speed>0.260000</speed>
</trkpt>
<trkpt lat="55.760368" lon="26.039787">
<ele>174.295044</ele>
<time>2010-07-17T17:20:30Z</time>
<desc>lat.=55.760368, lon.=26.039787, Alt.=174.295044m. Speed=1.008000m/h.</desc>
<speed>0.280000</speed>
</trkpt>
<trkpt lat="55.760368" lon="26.039791">
<ele>174.275513</ele>
<time>2010-07-17T17:20:31Z</time>
<desc>lat.=55.760368, lon.=26.039791, Alt.=174.275513m. Speed=0.900000m/h.</desc>
<speed>0.250000</speed>
</trkpt>
<trkpt lat="55.760368" lon="26.039795">
<ele>174.248169</ele>
<time>2010-07-17T17:20:32Z</time>
<desc>lat.=55.760368, lon.=26.039795, Alt.=174.248169m. Speed=0.900000m/h.</desc>
<speed>0.250000</speed>
</trkpt>
<trkpt lat="55.760368" lon="26.039799">
<ele>174.220825</ele>
<time>2010-07-17T17:20:33Z</time>
<desc>lat.=55.760368, lon.=26.039799, Alt.=174.220825m. Speed=0.936000m/h.</desc>
<speed>0.260000</speed>
</trkpt>
<trkpt lat="55.760372" lon="26.039803">
<ele>174.193481</ele>
<time>2010-07-17T17:20:34Z</time>
<desc>lat.=55.760372, lon.=26.039803, Alt.=174.193481m. Speed=0.792000m/h.</desc>
<speed>0.220000</speed>
</trkpt>
<trkpt lat="55.760372" lon="26.039806">
<ele>174.170044</ele>
<time>2010-07-17T17:20:35Z</time>
<desc>lat.=55.760372, lon.=26.039806, Alt.=174.170044m. Speed=0.756000m/h.</desc>
<speed>0.210000</speed>
</trkpt>
<trkpt lat="55.760372" lon="26.039810">
<ele>174.150513</ele>
<time>2010-07-17T17:20:36Z</time>
<desc>lat.=55.760372, lon.=26.039810, Alt.=174.150513m. Speed=0.720000m/h.</desc>
<speed>0.200000</speed>
</trkpt>
<trkpt lat="55.760372" lon="26.039812">
<ele>174.134888</ele>
<time>2010-07-17T17:20:37Z</time>
<desc>lat.=55.760372, lon.=26.039812, Alt.=174.134888m. Speed=0.720000m/h.</desc>
<speed>0.200000</speed>
</trkpt>
<trkpt lat="55.760376" lon="26.039814">
<ele>174.130981</ele>
<time>2010-07-17T17:20:38Z</time>
<desc>lat.=55.760376, lon.=26.039814, Alt.=174.130981m. Speed=0.900000m/h.</desc>
<speed>0.250000</speed>
</trkpt>
<trkpt lat="55.760376" lon="26.039816">
<ele>174.127075</ele>
<time>2010-07-17T17:20:39Z</time>
<desc>lat.=55.760376, lon.=26.039816, Alt.=174.127075m. Speed=0.900000m/h.</desc>
<speed>0.250000</speed>
</trkpt>
<trkpt lat="55.760380" lon="26.039818">
<ele>174.119263</ele>
<time>2010-07-17T17:20:40Z</time>
<desc>lat.=55.760380, lon.=26.039818, Alt.=174.119263m. Speed=0.900000m/h.</desc>
<speed>0.250000</speed>
</trkpt>
<trkpt lat="55.760384" lon="26.039820">
<ele>174.119263</ele>
<time>2010-07-17T17:20:41Z</time>
<desc>lat.=55.760384, lon.=26.039820, Alt.=174.119263m. Speed=0.864000m/h.</desc>
<speed>0.240000</speed>
</trkpt>
<trkpt lat="55.760384" lon="26.039822">
<ele>174.130981</ele>
<time>2010-07-17T17:20:42Z</time>
<desc>lat.=55.760384, lon.=26.039822, Alt.=174.130981m. Speed=0.864000m/h.</desc>
<speed>0.240000</speed>
</trkpt>
<trkpt lat="55.760387" lon="26.039824">
<ele>174.150513</ele>
<time>2010-07-17T17:20:43Z</time>
<desc>lat.=55.760387, lon.=26.039824, Alt.=174.150513m. Speed=1.008000m/h.</desc>
<speed>0.280000</speed>
</trkpt>
<trkpt lat="55.760387" lon="26.039824">
<ele>174.173950</ele>
<time>2010-07-17T17:20:44Z</time>
<desc>lat.=55.760387, lon.=26.039824, Alt.=174.173950m. Speed=1.116000m/h.</desc>
<speed>0.310000</speed>
</trkpt>
<trkpt lat="55.760395" lon="26.039822">
<ele>174.310669</ele>
<time>2010-07-17T17:20:45Z</time>
<desc>lat.=55.760395, lon.=26.039822, Alt.=174.310669m. Speed=1.152000m/h.</desc>
<speed>0.320000</speed>
</trkpt>
<trkpt lat="55.760406" lon="26.039825">
<ele>174.482544</ele>
<time>2010-07-17T17:20:46Z</time>
<desc>lat.=55.760406, lon.=26.039825, Alt.=174.482544m. Speed=1.260000m/h.</desc>
<speed>0.350000</speed>
</trkpt>
<trkpt lat="55.760414" lon="26.039824">
<ele>174.709106</ele>
<time>2010-07-17T17:20:47Z</time>
<desc>lat.=55.760414, lon.=26.039824, Alt.=174.709106m. Speed=1.296000m/h.</desc>
<speed>0.360000</speed>
</trkpt>
<trkpt lat="55.760426" lon="26.039829">
<ele>174.939575</ele>
<time>2010-07-17T17:20:48Z</time>
<desc>lat.=55.760426, lon.=26.039829, Alt.=174.939575m. Speed=1.332000m/h.</desc>
<speed>0.370000</speed>
</trkpt>
<trkpt lat="55.760433" lon="26.039843">
<ele>175.287231</ele>
<time>2010-07-17T17:20:49Z</time>
<desc>lat.=55.760433, lon.=26.039843, Alt.=175.287231m. Speed=1.404000m/h.</desc>
<speed>0.390000</speed>
</trkpt>
<trkpt lat="55.760445" lon="26.039848">
<ele>175.877075</ele>
<time>2010-07-17T17:20:50Z</time>
<desc>lat.=55.760445, lon.=26.039848, Alt.=175.877075m. Speed=1.188000m/h.</desc>
<speed>0.330000</speed>
</trkpt>
<trkpt lat="55.760452" lon="26.039843">
<ele>176.369263</ele>
<time>2010-07-17T17:20:51Z</time>
<desc>lat.=55.760452, lon.=26.039843, Alt.=176.369263m. Speed=1.008000m/h.</desc>
<speed>0.280000</speed>
</trkpt>
<trkpt lat="55.760456" lon="26.039835">
<ele>176.517700</ele>
<time>2010-07-17T17:20:52Z</time>
<desc>lat.=55.760456, lon.=26.039835, Alt.=176.517700m. Speed=0.936000m/h.</desc>
<speed>0.260000</speed>
</trkpt>
<trkpt lat="55.760460" lon="26.039831">
<ele>176.947388</ele>
<time>2010-07-17T17:20:53Z</time>
<desc>lat.=55.760460, lon.=26.039831, Alt.=176.947388m. Speed=0.936000m/h.</desc>
<speed>0.260000</speed>
</trkpt>
<trkpt lat="55.760464" lon="26.039829">
<ele>177.365356</ele>
<time>2010-07-17T17:20:54Z</time>
<desc>lat.=55.760464, lon.=26.039829, Alt.=177.365356m. Speed=0.828000m/h.</desc>
<speed>0.230000</speed>
</trkpt>
<trkpt lat="55.760464" lon="26.039829">
<ele>177.451294</ele>
<time>2010-07-17T17:20:55Z</time>
<desc>lat.=55.760464, lon.=26.039829, Alt.=177.451294m. Speed=0.612000m/h.</desc>
<speed>0.170000</speed>
</trkpt>
<trkpt lat="55.760468" lon="26.039829">
<ele>177.541138</ele>
<time>2010-07-17T17:20:56Z</time>
<desc>lat.=55.760468, lon.=26.039829, Alt.=177.541138m. Speed=0.756000m/h.</desc>
<speed>0.210000</speed>
</trkpt>
<trkpt lat="55.760468" lon="26.039827">
<ele>177.630981</ele>
<time>2010-07-17T17:20:57Z</time>
<desc>lat.=55.760468, lon.=26.039827, Alt.=177.630981m. Speed=0.540000m/h.</desc>
<speed>0.150000</speed>
</trkpt>
<trkpt lat="55.760468" lon="26.039827">
<ele>177.732544</ele>
<time>2010-07-17T17:20:58Z</time>
<desc>lat.=55.760468, lon.=26.039827, Alt.=177.732544m. Speed=0.648000m/h.</desc>
<speed>0.180000</speed>
</trkpt>
<trkpt lat="55.760471" lon="26.039827">
<ele>177.838013</ele>
<time>2010-07-17T17:20:59Z</time>
<desc>lat.=55.760471, lon.=26.039827, Alt.=177.838013m. Speed=0.972000m/h.</desc>
<speed>0.270000</speed>
</trkpt>
<trkpt lat="55.760475" lon="26.039825">
<ele>177.951294</ele>
<time>2010-07-17T17:21:00Z</time>
<desc>lat.=55.760475, lon.=26.039825, Alt.=177.951294m. Speed=0.828000m/h.</desc>
<speed>0.230000</speed>
</trkpt>
<trkpt lat="55.760475" lon="26.039825">
<ele>178.080200</ele>
<time>2010-07-17T17:21:01Z</time>
<desc>lat.=55.760475, lon.=26.039825, Alt.=178.080200m. Speed=0.864000m/h.</desc>
<speed>0.240000</speed>
</trkpt>
<trkpt lat="55.760479" lon="26.039825">
<ele>178.209106</ele>
<time>2010-07-17T17:21:02Z</time>
<desc>lat.=55.760479, lon.=26.039825, Alt.=178.209106m. Speed=0.756000m/h.</desc>
<speed>0.210000</speed>
</trkpt>
<trkpt lat="55.760479" lon="26.039825">
<ele>178.345825</ele>
<time>2010-07-17T17:21:03Z</time>
<desc>lat.=55.760479, lon.=26.039825, Alt.=178.345825m. Speed=0.576000m/h.</desc>
<speed>0.160000</speed>
</trkpt>
<trkpt lat="55.760483" lon="26.039825">
<ele>178.490356</ele>
<time>2010-07-17T17:21:04Z</time>
<desc>lat.=55.760483, lon.=26.039825, Alt.=178.490356m. Speed=0.612000m/h.</desc>
<speed>0.170000</speed>
</trkpt>
<trkpt lat="55.760483" lon="26.039825">
<ele>178.630981</ele>
<time>2010-07-17T17:21:05Z</time>
<desc>lat.=55.760483, lon.=26.039825, Alt.=178.630981m. Speed=0.756000m/h.</desc>
<speed>0.210000</speed>
</trkpt>
<trkpt lat="55.760483" lon="26.039824">
<ele>178.779419</ele>
<time>2010-07-17T17:21:06Z</time>
<desc>lat.=55.760483, lon.=26.039824, Alt.=178.779419m. Speed=0.576000m/h.</desc>
<speed>0.160000</speed>
</trkpt>
<trkpt lat="55.760487" lon="26.039824">
<ele>178.931763</ele>
<time>2010-07-17T17:21:07Z</time>
<desc>lat.=55.760487, lon.=26.039824, Alt.=178.931763m. Speed=0.504000m/h.</desc>
<speed>0.140000</speed>
</trkpt>
<trkpt lat="55.760487" lon="26.039824">
<ele>179.095825</ele>
<time>2010-07-17T17:21:08Z</time>
<desc>lat.=55.760487, lon.=26.039824, Alt.=179.095825m. Speed=0.468000m/h.</desc>
<speed>0.130000</speed>
</trkpt>
<trkpt lat="55.760487" lon="26.039824">
<ele>179.259888</ele>
<time>2010-07-17T17:21:09Z</time>
<desc>lat.=55.760487, lon.=26.039824, Alt.=179.259888m. Speed=0.504000m/h.</desc>
<speed>0.140000</speed>
</trkpt>
<trkpt lat="55.760490" lon="26.039825">
<ele>179.431763</ele>
<time>2010-07-17T17:21:10Z</time>
<desc>lat.=55.760490, lon.=26.039825, Alt.=179.431763m. Speed=0.396000m/h.</desc>
<speed>0.110000</speed>
</trkpt>
<trkpt lat="55.760490" lon="26.039825">
<ele>179.607544</ele>
<time>2010-07-17T17:21:11Z</time>
<desc>lat.=55.760490, lon.=26.039825, Alt.=179.607544m. Speed=0.288000m/h.</desc>
<speed>0.080000</speed>
</trkpt>
<trkpt lat="55.760490" lon="26.039825">
<ele>179.791138</ele>
<time>2010-07-17T17:21:12Z</time>
<desc>lat.=55.760490, lon.=26.039825, Alt.=179.791138m. Speed=0.288000m/h.</desc>
<speed>0.080000</speed>
</trkpt>
<trkpt lat="55.760490" lon="26.039827">
<ele>179.982544</ele>
<time>2010-07-17T17:21:13Z</time>
<desc>lat.=55.760490, lon.=26.039827, Alt.=179.982544m. Speed=0.324000m/h.</desc>
<speed>0.090000</speed>
</trkpt>
<trkpt lat="55.760490" lon="26.039827">
<ele>180.177856</ele>
<time>2010-07-17T17:21:14Z</time>
<desc>lat.=55.760490, lon.=26.039827, Alt.=180.177856m. Speed=0.360000m/h.</desc>
<speed>0.100000</speed>
</trkpt>
<trkpt lat="55.760490" lon="26.039829">
<ele>180.369263</ele>
<time>2010-07-17T17:21:15Z</time>
<desc>lat.=55.760490, lon.=26.039829, Alt.=180.369263m. Speed=0.288000m/h.</desc>
<speed>0.080000</speed>
</trkpt>
<trkpt lat="55.760490" lon="26.039831">
<ele>180.568481</ele>
<time>2010-07-17T17:21:16Z</time>
<desc>lat.=55.760490, lon.=26.039831, Alt.=180.568481m. Speed=0.252000m/h.</desc>
<speed>0.070000</speed>
</trkpt>
<trkpt lat="55.760490" lon="26.039831">
<ele>180.771606</ele>
<time>2010-07-17T17:21:17Z</time>
<desc>lat.=55.760490, lon.=26.039831, Alt.=180.771606m. Speed=0.432000m/h.</desc>
<speed>0.120000</speed>
</trkpt>
<trkpt lat="55.760490" lon="26.039833">
<ele>180.986450</ele>
<time>2010-07-17T17:21:18Z</time>
<desc>lat.=55.760490, lon.=26.039833, Alt.=180.986450m. Speed=0.576000m/h.</desc>
<speed>0.160000</speed>
</trkpt>
<trkpt lat="55.760487" lon="26.039835">
<ele>181.213013</ele>
<time>2010-07-17T17:21:19Z</time>
<desc>lat.=55.760487, lon.=26.039835, Alt.=181.213013m. Speed=0.612000m/h.</desc>
<speed>0.170000</speed>
</trkpt>
<trkpt lat="55.760487" lon="26.039837">
<ele>181.439575</ele>
<time>2010-07-17T17:21:20Z</time>
<desc>lat.=55.760487, lon.=26.039837, Alt.=181.439575m. Speed=0.540000m/h.</desc>
<speed>0.150000</speed>
</trkpt>
<trkpt lat="55.760487" lon="26.039839">
<ele>181.673950</ele>
<time>2010-07-17T17:21:21Z</time>
<desc>lat.=55.760487, lon.=26.039839, Alt.=181.673950m. Speed=0.576000m/h.</desc>
<speed>0.160000</speed>
</trkpt>
<trkpt lat="55.760483" lon="26.039839">
<ele>181.920044</ele>
<time>2010-07-17T17:21:22Z</time>
<desc>lat.=55.760483, lon.=26.039839, Alt.=181.920044m. Speed=0.648000m/h.</desc>
<speed>0.180000</speed>
</trkpt>
<trkpt lat="55.760483" lon="26.039843">
<ele>182.166138</ele>
<time>2010-07-17T17:21:23Z</time>
<desc>lat.=55.760483, lon.=26.039843, Alt.=182.166138m. Speed=0.720000m/h.</desc>
<speed>0.200000</speed>
</trkpt>
<trkpt lat="55.760483" lon="26.039845">
<ele>182.420044</ele>
<time>2010-07-17T17:21:24Z</time>
<desc>lat.=55.760483, lon.=26.039845, Alt.=182.420044m. Speed=0.900000m/h.</desc>
<speed>0.250000</speed>
</trkpt>
<trkpt lat="55.760479" lon="26.039846">
<ele>182.673950</ele>
<time>2010-07-17T17:21:25Z</time>
<desc>lat.=55.760479, lon.=26.039846, Alt.=182.673950m. Speed=0.900000m/h.</desc>
<speed>0.250000</speed>
</trkpt>
<trkpt lat="55.760479" lon="26.039848">
<ele>182.923950</ele>
<time>2010-07-17T17:21:26Z</time>
<desc>lat.=55.760479, lon.=26.039848, Alt.=182.923950m. Speed=0.756000m/h.</desc>
<speed>0.210000</speed>
</trkpt>
<trkpt lat="55.760475" lon="26.039850">
<ele>183.170044</ele>
<time>2010-07-17T17:21:27Z</time>
<desc>lat.=55.760475, lon.=26.039850, Alt.=183.170044m. Speed=0.756000m/h.</desc>
<speed>0.210000</speed>
</trkpt>
<trkpt lat="55.760475" lon="26.039852">
<ele>183.412231</ele>
<time>2010-07-17T17:21:28Z</time>
<desc>lat.=55.760475, lon.=26.039852, Alt.=183.412231m. Speed=0.936000m/h.</desc>
<speed>0.260000</speed>
</trkpt>
<trkpt lat="55.760471" lon="26.039852">
<ele>183.658325</ele>
<time>2010-07-17T17:21:29Z</time>
<desc>lat.=55.760471, lon.=26.039852, Alt.=183.658325m. Speed=1.008000m/h.</desc>
<speed>0.280000</speed>
</trkpt>
<trkpt lat="55.760468" lon="26.039854">
<ele>183.900513</ele>
<time>2010-07-17T17:21:30Z</time>
<desc>lat.=55.760468, lon.=26.039854, Alt.=183.900513m. Speed=0.900000m/h.</desc>
<speed>0.250000</speed>
</trkpt>
<trkpt lat="55.760468" lon="26.039856">
<ele>184.138794</ele>
<time>2010-07-17T17:21:31Z</time>
<desc>lat.=55.760468, lon.=26.039856, Alt.=184.138794m. Speed=0.540000m/h.</desc>
<speed>0.150000</speed>
</trkpt>
<trkpt lat="55.760468" lon="26.039858">
<ele>184.373169</ele>
<time>2010-07-17T17:21:32Z</time>
<desc>lat.=55.760468, lon.=26.039858, Alt.=184.373169m. Speed=0.540000m/h.</desc>
<speed>0.150000</speed>
</trkpt>
<trkpt lat="55.760464" lon="26.039860">
<ele>184.603638</ele>
<time>2010-07-17T17:21:33Z</time>
<desc>lat.=55.760464, lon.=26.039860, Alt.=184.603638m. Speed=0.504000m/h.</desc>
<speed>0.140000</speed>
</trkpt>
<trkpt lat="55.760464" lon="26.039862">
<ele>184.818481</ele>
<time>2010-07-17T17:21:34Z</time>
<desc>lat.=55.760464, lon.=26.039862, Alt.=184.818481m. Speed=0.576000m/h.</desc>
<speed>0.160000</speed>
</trkpt>
<trkpt lat="55.760464" lon="26.039864">
<ele>185.029419</ele>
<time>2010-07-17T17:21:35Z</time>
<desc>lat.=55.760464, lon.=26.039864, Alt.=185.029419m. Speed=0.648000m/h.</desc>
<speed>0.180000</speed>
</trkpt>
<trkpt lat="55.760464" lon="26.039867">
<ele>185.232544</ele>
<time>2010-07-17T17:21:36Z</time>
<desc>lat.=55.760464, lon.=26.039867, Alt.=185.232544m. Speed=0.648000m/h.</desc>
<speed>0.180000</speed>
</trkpt>
<trkpt lat="55.760460" lon="26.039869">
<ele>185.420044</ele>
<time>2010-07-17T17:21:37Z</time>
<desc>lat.=55.760460, lon.=26.039869, Alt.=185.420044m. Speed=0.756000m/h.</desc>
<speed>0.210000</speed>
</trkpt>
<trkpt lat="55.760460" lon="26.039871">
<ele>185.595825</ele>
<time>2010-07-17T17:21:38Z</time>
<desc>lat.=55.760460, lon.=26.039871, Alt.=185.595825m. Speed=1.008000m/h.</desc>
<speed>0.280000</speed>
</trkpt>
<trkpt lat="55.760456" lon="26.039875">
<ele>185.767700</ele>
<time>2010-07-17T17:21:39Z</time>
<desc>lat.=55.760456, lon.=26.039875, Alt.=185.767700m. Speed=0.900000m/h.</desc>
<speed>0.250000</speed>
</trkpt>
<trkpt lat="55.760456" lon="26.039879">
<ele>185.923950</ele>
<time>2010-07-17T17:21:40Z</time>
<desc>lat.=55.760456, lon.=26.039879, Alt.=185.923950m. Speed=0.900000m/h.</desc>
<speed>0.250000</speed>
</trkpt>
<trkpt lat="55.760452" lon="26.039881">
<ele>186.088013</ele>
<time>2010-07-17T17:21:41Z</time>
<desc>lat.=55.760452, lon.=26.039881, Alt.=186.088013m. Speed=0.828000m/h.</desc>
<speed>0.230000</speed>
</trkpt>
<trkpt lat="55.760452" lon="26.039883">
<ele>186.244263</ele>
<time>2010-07-17T17:21:42Z</time>
<desc>lat.=55.760452, lon.=26.039883, Alt.=186.244263m. Speed=0.684000m/h.</desc>
<speed>0.190000</speed>
</trkpt>
<trkpt lat="55.760452" lon="26.039885">
<ele>186.388794</ele>
<time>2010-07-17T17:21:43Z</time>
<desc>lat.=55.760452, lon.=26.039885, Alt.=186.388794m. Speed=0.540000m/h.</desc>
<speed>0.150000</speed>
</trkpt>
<trkpt lat="55.760448" lon="26.039886">
<ele>186.529419</ele>
<time>2010-07-17T17:21:44Z</time>
<desc>lat.=55.760448, lon.=26.039886, Alt.=186.529419m. Speed=0.540000m/h.</desc>
<speed>0.150000</speed>
</trkpt>
<trkpt lat="55.760448" lon="26.039888">
<ele>186.666138</ele>
<time>2010-07-17T17:21:45Z</time>
<desc>lat.=55.760448, lon.=26.039888, Alt.=186.666138m. Speed=0.432000m/h.</desc>
<speed>0.120000</speed>
</trkpt>
<trkpt lat="55.760448" lon="26.039888">
<ele>186.802856</ele>
<time>2010-07-17T17:21:46Z</time>
<desc>lat.=55.760448, lon.=26.039888, Alt.=186.802856m. Speed=0.504000m/h.</desc>
<speed>0.140000</speed>
</trkpt>
<trkpt lat="55.760445" lon="26.039890">
<ele>186.931763</ele>
<time>2010-07-17T17:21:47Z</time>
<desc>lat.=55.760445, lon.=26.039890, Alt.=186.931763m. Speed=0.576000m/h.</desc>
<speed>0.160000</speed>
</trkpt>
<trkpt lat="55.760445" lon="26.039892">
<ele>187.056763</ele>
<time>2010-07-17T17:21:48Z</time>
<desc>lat.=55.760445, lon.=26.039892, Alt.=187.056763m. Speed=0.540000m/h.</desc>
<speed>0.150000</speed>
</trkpt>
<trkpt lat="55.760445" lon="26.039894">
<ele>187.173950</ele>
<time>2010-07-17T17:21:49Z</time>
<desc>lat.=55.760445, lon.=26.039894, Alt.=187.173950m. Speed=0.360000m/h.</desc>
<speed>0.100000</speed>
</trkpt>
<trkpt lat="55.760445" lon="26.039896">
<ele>187.275513</ele>
<time>2010-07-17T17:21:50Z</time>
<desc>lat.=55.760445, lon.=26.039896, Alt.=187.275513m. Speed=0.432000m/h.</desc>
<speed>0.120000</speed>
</trkpt>
<trkpt lat="55.760441" lon="26.039898">
<ele>187.357544</ele>
<time>2010-07-17T17:21:51Z</time>
<desc>lat.=55.760441, lon.=26.039898, Alt.=187.357544m. Speed=0.576000m/h.</desc>
<speed>0.160000</speed>
</trkpt>
<trkpt lat="55.760441" lon="26.039898">
<ele>187.423950</ele>
<time>2010-07-17T17:21:52Z</time>
<desc>lat.=55.760441, lon.=26.039898, Alt.=187.423950m. Speed=0.540000m/h.</desc>
<speed>0.150000</speed>
</trkpt>
<trkpt lat="55.760441" lon="26.039898">
<ele>187.455200</ele>
<time>2010-07-17T17:21:53Z</time>
<desc>lat.=55.760441, lon.=26.039898, Alt.=187.455200m. Speed=0.648000m/h.</desc>
<speed>0.180000</speed>
</trkpt>
<trkpt lat="55.760437" lon="26.039896">
<ele>187.486450</ele>
<time>2010-07-17T17:21:54Z</time>
<desc>lat.=55.760437, lon.=26.039896, Alt.=187.486450m. Speed=0.576000m/h.</desc>
<speed>0.160000</speed>
</trkpt>
<trkpt lat="55.760437" lon="26.039896">
<ele>187.494263</ele>
<time>2010-07-17T17:21:55Z</time>
<desc>lat.=55.760437, lon.=26.039896, Alt.=187.494263m. Speed=0.612000m/h.</desc>
<speed>0.170000</speed>
</trkpt>
<trkpt lat="55.760433" lon="26.039892">
<ele>187.470825</ele>
<time>2010-07-17T17:21:56Z</time>
<desc>lat.=55.760433, lon.=26.039892, Alt.=187.470825m. Speed=0.756000m/h.</desc>
<speed>0.210000</speed>
</trkpt>
<trkpt lat="55.760433" lon="26.039890">
<ele>187.423950</ele>
<time>2010-07-17T17:21:57Z</time>
<desc>lat.=55.760433, lon.=26.039890, Alt.=187.423950m. Speed=0.684000m/h.</desc>
<speed>0.190000</speed>
</trkpt>
<trkpt lat="55.760433" lon="26.039888">
<ele>187.349731</ele>
<time>2010-07-17T17:21:58Z</time>
<desc>lat.=55.760433, lon.=26.039888, Alt.=187.349731m. Speed=0.720000m/h.</desc>
<speed>0.200000</speed>
</trkpt>
<trkpt lat="55.760429" lon="26.039886">
<ele>187.259888</ele>
<time>2010-07-17T17:21:59Z</time>
<desc>lat.=55.760429, lon.=26.039886, Alt.=187.259888m. Speed=0.576000m/h.</desc>
<speed>0.160000</speed>
</trkpt>
<trkpt lat="55.760429" lon="26.039883">
<ele>187.150513</ele>
<time>2010-07-17T17:22:00Z</time>
<desc>lat.=55.760429, lon.=26.039883, Alt.=187.150513m. Speed=0.468000m/h.</desc>
<speed>0.130000</speed>
</trkpt>
<trkpt lat="55.760429" lon="26.039883">
<ele>187.017700</ele>
<time>2010-07-17T17:22:01Z</time>
<desc>lat.=55.760429, lon.=26.039883, Alt.=187.017700m. Speed=0.468000m/h.</desc>
<speed>0.130000</speed>
</trkpt>
<trkpt lat="55.760429" lon="26.039881">
<ele>186.884888</ele>
<time>2010-07-17T17:22:02Z</time>
<desc>lat.=55.760429, lon.=26.039881, Alt.=186.884888m. Speed=0.432000m/h.</desc>
<speed>0.120000</speed>
</trkpt>
<trkpt lat="55.760426" lon="26.039879">
<ele>186.732544</ele>
<time>2010-07-17T17:22:03Z</time>
<desc>lat.=55.760426, lon.=26.039879, Alt.=186.732544m. Speed=0.612000m/h.</desc>
<speed>0.170000</speed>
</trkpt>
<trkpt lat="55.760426" lon="26.039877">
<ele>186.572388</ele>
<time>2010-07-17T17:22:04Z</time>
<desc>lat.=55.760426, lon.=26.039877, Alt.=186.572388m. Speed=0.756000m/h.</desc>
<speed>0.210000</speed>
</trkpt>
<trkpt lat="55.760426" lon="26.039873">
<ele>186.408325</ele>
<time>2010-07-17T17:22:05Z</time>
<desc>lat.=55.760426, lon.=26.039873, Alt.=186.408325m. Speed=0.684000m/h.</desc>
<speed>0.190000</speed>
</trkpt>
<trkpt lat="55.760422" lon="26.039871">
<ele>186.232544</ele>
<time>2010-07-17T17:22:06Z</time>
<desc>lat.=55.760422, lon.=26.039871, Alt.=186.232544m. Speed=0.792000m/h.</desc>
<speed>0.220000</speed>
</trkpt>
<trkpt lat="55.760422" lon="26.039869">
<ele>186.052856</ele>
<time>2010-07-17T17:22:07Z</time>
<desc>lat.=55.760422, lon.=26.039869, Alt.=186.052856m. Speed=0.792000m/h.</desc>
<speed>0.220000</speed>
</trkpt>
<trkpt lat="55.760418" lon="26.039867">
<ele>185.865356</ele>
<time>2010-07-17T17:22:08Z</time>
<desc>lat.=55.760418, lon.=26.039867, Alt.=185.865356m. Speed=0.972000m/h.</desc>
<speed>0.270000</speed>
</trkpt>
<trkpt lat="55.760418" lon="26.039867">
<ele>185.662231</ele>
<time>2010-07-17T17:22:09Z</time>
<desc>lat.=55.760418, lon.=26.039867, Alt.=185.662231m. Speed=0.936000m/h.</desc>
<speed>0.260000</speed>
</trkpt>
<trkpt lat="55.760414" lon="26.039867">
<ele>185.459106</ele>
<time>2010-07-17T17:22:10Z</time>
<desc>lat.=55.760414, lon.=26.039867, Alt.=185.459106m. Speed=1.008000m/h.</desc>
<speed>0.280000</speed>
</trkpt>
<trkpt lat="55.760410" lon="26.039867">
<ele>185.252075</ele>
<time>2010-07-17T17:22:11Z</time>
<desc>lat.=55.760410, lon.=26.039867, Alt.=185.252075m. Speed=0.972000m/h.</desc>
<speed>0.270000</speed>
</trkpt>
<trkpt lat="55.760410" lon="26.039869">
<ele>185.037231</ele>
<time>2010-07-17T17:22:12Z</time>
<desc>lat.=55.760410, lon.=26.039869, Alt.=185.037231m. Speed=1.008000m/h.</desc>
<speed>0.280000</speed>
</trkpt>
<trkpt lat="55.760406" lon="26.039871">
<ele>184.826294</ele>
<time>2010-07-17T17:22:13Z</time>
<desc>lat.=55.760406, lon.=26.039871, Alt.=184.826294m. Speed=1.116000m/h.</desc>
<speed>0.310000</speed>
</trkpt>
<trkpt lat="55.760403" lon="26.039879">
<ele>184.408325</ele>
<time>2010-07-17T17:22:14Z</time>
<desc>lat.=55.760403, lon.=26.039879, Alt.=184.408325m. Speed=1.116000m/h.</desc>
<speed>0.310000</speed>
</trkpt>
<trkpt lat="55.760395" lon="26.039900">
<ele>184.220825</ele>
<time>2010-07-17T17:22:15Z</time>
<desc>lat.=55.760395, lon.=26.039900, Alt.=184.220825m. Speed=1.224000m/h.</desc>
<speed>0.340000</speed>
</trkpt>
<trkpt lat="55.760384" lon="26.039917">
<ele>184.146606</ele>
<time>2010-07-17T17:22:16Z</time>
<desc>lat.=55.760384, lon.=26.039917, Alt.=184.146606m. Speed=1.224000m/h.</desc>
<speed>0.340000</speed>
</trkpt>
<trkpt lat="55.760380" lon="26.039930">
<ele>183.904419</ele>
<time>2010-07-17T17:22:17Z</time>
<desc>lat.=55.760380, lon.=26.039930, Alt.=183.904419m. Speed=1.260000m/h.</desc>
<speed>0.350000</speed>
</trkpt>
<trkpt lat="55.760372" lon="26.039946">
<ele>183.982544</ele>
<time>2010-07-17T17:22:18Z</time>
<desc>lat.=55.760372, lon.=26.039946, Alt.=183.982544m. Speed=1.296000m/h.</desc>
<speed>0.360000</speed>
</trkpt>
<trkpt lat="55.760361" lon="26.039955">
<ele>183.994263</ele>
<time>2010-07-17T17:22:19Z</time>
<desc>lat.=55.760361, lon.=26.039955, Alt.=183.994263m. Speed=1.296000m/h.</desc>
<speed>0.360000</speed>
</trkpt>
<trkpt lat="55.760353" lon="26.039961">
<ele>183.693481</ele>
<time>2010-07-17T17:22:20Z</time>
<desc>lat.=55.760353, lon.=26.039961, Alt.=183.693481m. Speed=1.260000m/h.</desc>
<speed>0.350000</speed>
</trkpt>
<trkpt lat="55.760349" lon="26.039967">
<ele>183.435669</ele>
<time>2010-07-17T17:22:21Z</time>
<desc>lat.=55.760349, lon.=26.039967, Alt.=183.435669m. Speed=1.152000m/h.</desc>
<speed>0.320000</speed>
</trkpt>
<trkpt lat="55.760345" lon="26.039972">
<ele>182.904419</ele>
<time>2010-07-17T17:22:22Z</time>
<desc>lat.=55.760345, lon.=26.039972, Alt.=182.904419m. Speed=1.080000m/h.</desc>
<speed>0.300000</speed>
</trkpt>
<trkpt lat="55.760334" lon="26.039974">
<ele>182.736450</ele>
<time>2010-07-17T17:22:23Z</time>
<desc>lat.=55.760334, lon.=26.039974, Alt.=182.736450m. Speed=1.044000m/h.</desc>
<speed>0.290000</speed>
</trkpt>
<trkpt lat="55.760330" lon="26.039976">
<ele>182.490356</ele>
<time>2010-07-17T17:22:24Z</time>
<desc>lat.=55.760330, lon.=26.039976, Alt.=182.490356m. Speed=1.080000m/h.</desc>
<speed>0.300000</speed>
</trkpt>
<trkpt lat="55.760326" lon="26.039976">
<ele>182.334106</ele>
<time>2010-07-17T17:22:25Z</time>
<desc>lat.=55.760326, lon.=26.039976, Alt.=182.334106m. Speed=0.972000m/h.</desc>
<speed>0.270000</speed>
</trkpt>
<trkpt lat="55.760330" lon="26.039970">
<ele>182.095825</ele>
<time>2010-07-17T17:22:26Z</time>
<desc>lat.=55.760330, lon.=26.039970, Alt.=182.095825m. Speed=0.792000m/h.</desc>
<speed>0.220000</speed>
</trkpt>
<trkpt lat="55.760330" lon="26.039978">
<ele>181.912231</ele>
<time>2010-07-17T17:22:27Z</time>
<desc>lat.=55.760330, lon.=26.039978, Alt.=181.912231m. Speed=0.792000m/h.</desc>
<speed>0.220000</speed>
</trkpt>
<trkpt lat="55.760326" lon="26.039980">
<ele>180.752075</ele>
<time>2010-07-17T17:22:28Z</time>
<desc>lat.=55.760326, lon.=26.039980, Alt.=180.752075m. Speed=0.864000m/h.</desc>
<speed>0.240000</speed>
</trkpt>
<trkpt lat="55.760323" lon="26.039982">
<ele>180.513794</ele>
<time>2010-07-17T17:22:29Z</time>
<desc>lat.=55.760323, lon.=26.039982, Alt.=180.513794m. Speed=0.756000m/h.</desc>
<speed>0.210000</speed>
</trkpt>
<trkpt lat="55.760323" lon="26.039984">
<ele>180.287231</ele>
<time>2010-07-17T17:22:30Z</time>
<desc>lat.=55.760323, lon.=26.039984, Alt.=180.287231m. Speed=0.864000m/h.</desc>
<speed>0.240000</speed>
</trkpt>
<trkpt lat="55.760319" lon="26.039986">
<ele>180.064575</ele>
<time>2010-07-17T17:22:31Z</time>
<desc>lat.=55.760319, lon.=26.039986, Alt.=180.064575m. Speed=0.972000m/h.</desc>
<speed>0.270000</speed>
</trkpt>
<trkpt lat="55.760319" lon="26.039988">
<ele>179.845825</ele>
<time>2010-07-17T17:22:32Z</time>
<desc>lat.=55.760319, lon.=26.039988, Alt.=179.845825m. Speed=1.044000m/h.</desc>
<speed>0.290000</speed>
</trkpt>
<trkpt lat="55.760315" lon="26.039989">
<ele>179.630981</ele>
<time>2010-07-17T17:22:33Z</time>
<desc>lat.=55.760315, lon.=26.039989, Alt.=179.630981m. Speed=0.936000m/h.</desc>
<speed>0.260000</speed>
</trkpt>
<trkpt lat="55.760311" lon="26.039991">
<ele>179.380981</ele>
<time>2010-07-17T17:22:34Z</time>
<desc>lat.=55.760311, lon.=26.039991, Alt.=179.380981m. Speed=0.612000m/h.</desc>
<speed>0.170000</speed>
</trkpt>
<trkpt lat="55.760311" lon="26.039991">
<ele>179.115356</ele>
<time>2010-07-17T17:22:35Z</time>
<desc>lat.=55.760311, lon.=26.039991, Alt.=179.115356m. Speed=0.576000m/h.</desc>
<speed>0.160000</speed>
</trkpt>
<trkpt lat="55.760311" lon="26.039993">
<ele>178.845825</ele>
<time>2010-07-17T17:22:36Z</time>
<desc>lat.=55.760311, lon.=26.039993, Alt.=178.845825m. Speed=0.576000m/h.</desc>
<speed>0.160000</speed>
</trkpt>
<trkpt lat="55.760307" lon="26.039993">
<ele>178.568481</ele>
<time>2010-07-17T17:22:37Z</time>
<desc>lat.=55.760307, lon.=26.039993, Alt.=178.568481m. Speed=0.648000m/h.</desc>
<speed>0.180000</speed>
</trkpt>
<trkpt lat="55.760307" lon="26.039995">
<ele>178.283325</ele>
<time>2010-07-17T17:22:38Z</time>
<desc>lat.=55.760307, lon.=26.039995, Alt.=178.283325m. Speed=0.468000m/h.</desc>
<speed>0.130000</speed>
</trkpt>
<trkpt lat="55.760303" lon="26.039995">
<ele>177.998169</ele>
<time>2010-07-17T17:22:39Z</time>
<desc>lat.=55.760303, lon.=26.039995, Alt.=177.998169m. Speed=0.324000m/h.</desc>
<speed>0.090000</speed>
</trkpt>
<trkpt lat="55.760303" lon="26.039995">
<ele>177.716919</ele>
<time>2010-07-17T17:22:40Z</time>
<desc>lat.=55.760303, lon.=26.039995, Alt.=177.716919m. Speed=0.288000m/h.</desc>
<speed>0.080000</speed>
</trkpt>
<trkpt lat="55.760303" lon="26.039995">
<ele>177.435669</ele>
<time>2010-07-17T17:22:41Z</time>
<desc>lat.=55.760303, lon.=26.039995, Alt.=177.435669m. Speed=0.216000m/h.</desc>
<speed>0.060000</speed>
</trkpt>
<trkpt lat="55.760303" lon="26.039995">
<ele>177.166138</ele>
<time>2010-07-17T17:22:42Z</time>
<desc>lat.=55.760303, lon.=26.039995, Alt.=177.166138m. Speed=0.396000m/h.</desc>
<speed>0.110000</speed>
</trkpt>
<trkpt lat="55.760303" lon="26.039995">
<ele>176.896606</ele>
<time>2010-07-17T17:22:43Z</time>
<desc>lat.=55.760303, lon.=26.039995, Alt.=176.896606m. Speed=0.684000m/h.</desc>
<speed>0.190000</speed>
</trkpt>
<trkpt lat="55.760300" lon="26.039993">
<ele>176.638794</ele>
<time>2010-07-17T17:22:44Z</time>
<desc>lat.=55.760300, lon.=26.039993, Alt.=176.638794m. Speed=0.684000m/h.</desc>
<speed>0.190000</speed>
</trkpt>
<trkpt lat="55.760300" lon="26.039993">
<ele>176.384888</ele>
<time>2010-07-17T17:22:45Z</time>
<desc>lat.=55.760300, lon.=26.039993, Alt.=176.384888m. Speed=0.540000m/h.</desc>
<speed>0.150000</speed>
</trkpt>
<trkpt lat="55.760296" lon="26.039991">
<ele>176.138794</ele>
<time>2010-07-17T17:22:46Z</time>
<desc>lat.=55.760296, lon.=26.039991, Alt.=176.138794m. Speed=0.828000m/h.</desc>
<speed>0.230000</speed>
</trkpt>
<trkpt lat="55.760296" lon="26.039989">
<ele>175.904419</ele>
<time>2010-07-17T17:22:47Z</time>
<desc>lat.=55.760296, lon.=26.039989, Alt.=175.904419m. Speed=0.684000m/h.</desc>
<speed>0.190000</speed>
</trkpt>
<trkpt lat="55.760296" lon="26.039989">
<ele>175.673950</ele>
<time>2010-07-17T17:22:48Z</time>
<desc>lat.=55.760296, lon.=26.039989, Alt.=175.673950m. Speed=0.576000m/h.</desc>
<speed>0.160000</speed>
</trkpt>
<trkpt lat="55.760292" lon="26.039989">
<ele>175.463013</ele>
<time>2010-07-17T17:22:49Z</time>
<desc>lat.=55.760292, lon.=26.039989, Alt.=175.463013m. Speed=0.792000m/h.</desc>
<speed>0.220000</speed>
</trkpt>
<trkpt lat="55.760292" lon="26.039991">
<ele>175.263794</ele>
<time>2010-07-17T17:22:50Z</time>
<desc>lat.=55.760292, lon.=26.039991, Alt.=175.263794m. Speed=0.792000m/h.</desc>
<speed>0.220000</speed>
</trkpt>
<trkpt lat="55.760288" lon="26.039991">
<ele>175.076294</ele>
<time>2010-07-17T17:22:51Z</time>
<desc>lat.=55.760288, lon.=26.039991, Alt.=175.076294m. Speed=0.792000m/h.</desc>
<speed>0.220000</speed>
</trkpt>
<trkpt lat="55.760288" lon="26.039993">
<ele>174.900513</ele>
<time>2010-07-17T17:22:52Z</time>
<desc>lat.=55.760288, lon.=26.039993, Alt.=174.900513m. Speed=0.828000m/h.</desc>
<speed>0.230000</speed>
</trkpt>
<trkpt lat="55.760284" lon="26.039995">
<ele>174.732544</ele>
<time>2010-07-17T17:22:53Z</time>
<desc>lat.=55.760284, lon.=26.039995, Alt.=174.732544m. Speed=0.864000m/h.</desc>
<speed>0.240000</speed>
</trkpt>
<trkpt lat="55.760284" lon="26.039997">
<ele>174.588013</ele>
<time>2010-07-17T17:22:54Z</time>
<desc>lat.=55.760284, lon.=26.039997, Alt.=174.588013m. Speed=0.792000m/h.</desc>
<speed>0.220000</speed>
</trkpt>
<trkpt lat="55.760281" lon="26.039999">
<ele>174.451294</ele>
<time>2010-07-17T17:22:55Z</time>
<desc>lat.=55.760281, lon.=26.039999, Alt.=174.451294m. Speed=0.720000m/h.</desc>
<speed>0.200000</speed>
</trkpt>
<trkpt lat="55.760281" lon="26.039999">
<ele>174.322388</ele>
<time>2010-07-17T17:22:56Z</time>
<desc>lat.=55.760281, lon.=26.039999, Alt.=174.322388m. Speed=0.684000m/h.</desc>
<speed>0.190000</speed>
</trkpt>
<trkpt lat="55.760277" lon="26.039999">
<ele>174.205200</ele>
<time>2010-07-17T17:22:57Z</time>
<desc>lat.=55.760277, lon.=26.039999, Alt.=174.205200m. Speed=0.648000m/h.</desc>
<speed>0.180000</speed>
</trkpt>
<trkpt lat="55.760277" lon="26.040001">
<ele>174.099731</ele>
<time>2010-07-17T17:22:58Z</time>
<desc>lat.=55.760277, lon.=26.040001, Alt.=174.099731m. Speed=0.540000m/h.</desc>
<speed>0.150000</speed>
</trkpt>
<trkpt lat="55.760273" lon="26.040001">
<ele>174.002075</ele>
<time>2010-07-17T17:22:59Z</time>
<desc>lat.=55.760273, lon.=26.040001, Alt.=174.002075m. Speed=0.540000m/h.</desc>
<speed>0.150000</speed>
</trkpt>
<trkpt lat="55.760273" lon="26.040003">
<ele>173.908325</ele>
<time>2010-07-17T17:23:00Z</time>
<desc>lat.=55.760273, lon.=26.040003, Alt.=173.908325m. Speed=0.828000m/h.</desc>
<speed>0.230000</speed>
</trkpt>
<trkpt lat="55.760273" lon="26.040005">
<ele>173.822388</ele>
<time>2010-07-17T17:23:01Z</time>
<desc>lat.=55.760273, lon.=26.040005, Alt.=173.822388m. Speed=0.576000m/h.</desc>
<speed>0.160000</speed>
</trkpt>
<trkpt lat="55.760269" lon="26.040007">
<ele>173.736450</ele>
<time>2010-07-17T17:23:02Z</time>
<desc>lat.=55.760269, lon.=26.040007, Alt.=173.736450m. Speed=0.576000m/h.</desc>
<speed>0.160000</speed>
</trkpt>
<trkpt lat="55.760269" lon="26.040009">
<ele>173.654419</ele>
<time>2010-07-17T17:23:03Z</time>
<desc>lat.=55.760269, lon.=26.040009, Alt.=173.654419m. Speed=0.576000m/h.</desc>
<speed>0.160000</speed>
</trkpt>
<trkpt lat="55.760269" lon="26.040009">
<ele>173.576294</ele>
<time>2010-07-17T17:23:04Z</time>
<desc>lat.=55.760269, lon.=26.040009, Alt.=173.576294m. Speed=0.468000m/h.</desc>
<speed>0.130000</speed>
</trkpt>
<trkpt lat="55.760265" lon="26.040010">
<ele>173.505981</ele>
<time>2010-07-17T17:23:05Z</time>
<desc>lat.=55.760265, lon.=26.040010, Alt.=173.505981m. Speed=0.432000m/h.</desc>
<speed>0.120000</speed>
</trkpt>
<trkpt lat="55.760265" lon="26.040012">
<ele>173.435669</ele>
<time>2010-07-17T17:23:06Z</time>
<desc>lat.=55.760265, lon.=26.040012, Alt.=173.435669m. Speed=0.576000m/h.</desc>
<speed>0.160000</speed>
</trkpt>
<trkpt lat="55.760265" lon="26.040014">
<ele>173.384888</ele>
<time>2010-07-17T17:23:07Z</time>
<desc>lat.=55.760265, lon.=26.040014, Alt.=173.384888m. Speed=0.504000m/h.</desc>
<speed>0.140000</speed>
</trkpt>
<trkpt lat="55.760265" lon="26.040016">
<ele>173.345825</ele>
<time>2010-07-17T17:23:08Z</time>
<desc>lat.=55.760265, lon.=26.040016, Alt.=173.345825m. Speed=0.252000m/h.</desc>
<speed>0.070000</speed>
</trkpt>
<trkpt lat="55.760265" lon="26.040018">
<ele>173.318481</ele>
<time>2010-07-17T17:23:09Z</time>
<desc>lat.=55.760265, lon.=26.040018, Alt.=173.318481m. Speed=0.288000m/h.</desc>
<speed>0.080000</speed>
</trkpt>
<trkpt lat="55.760265" lon="26.040018">
<ele>173.283325</ele>
<time>2010-07-17T17:23:10Z</time>
<desc>lat.=55.760265, lon.=26.040018, Alt.=173.283325m. Speed=0.396000m/h.</desc>
<speed>0.110000</speed>
</trkpt>
<trkpt lat="55.760265" lon="26.040020">
<ele>173.255981</ele>
<time>2010-07-17T17:23:11Z</time>
<desc>lat.=55.760265, lon.=26.040020, Alt.=173.255981m. Speed=0.252000m/h.</desc>
<speed>0.070000</speed>
</trkpt>
<trkpt lat="55.760265" lon="26.040020">
<ele>173.252075</ele>
<time>2010-07-17T17:23:12Z</time>
<desc>lat.=55.760265, lon.=26.040020, Alt.=173.252075m. Speed=0.360000m/h.</desc>
<speed>0.100000</speed>
</trkpt>
<trkpt lat="55.760269" lon="26.040020">
<ele>173.275513</ele>
<time>2010-07-17T17:23:13Z</time>
<desc>lat.=55.760269, lon.=26.040020, Alt.=173.275513m. Speed=0.396000m/h.</desc>
<speed>0.110000</speed>
</trkpt>
<trkpt lat="55.760269" lon="26.040022">
<ele>173.326294</ele>
<time>2010-07-17T17:23:14Z</time>
<desc>lat.=55.760269, lon.=26.040022, Alt.=173.326294m. Speed=0.324000m/h.</desc>
<speed>0.090000</speed>
</trkpt>
<trkpt lat="55.760269" lon="26.040022">
<ele>173.388794</ele>
<time>2010-07-17T17:23:15Z</time>
<desc>lat.=55.760269, lon.=26.040022, Alt.=173.388794m. Speed=0.360000m/h.</desc>
<speed>0.100000</speed>
</trkpt>
<trkpt lat="55.760269" lon="26.040022">
<ele>173.470825</ele>
<time>2010-07-17T17:23:16Z</time>
<desc>lat.=55.760269, lon.=26.040022, Alt.=173.470825m. Speed=0.432000m/h.</desc>
<speed>0.120000</speed>
</trkpt>
<trkpt lat="55.760273" lon="26.040024">
<ele>173.576294</ele>
<time>2010-07-17T17:23:17Z</time>
<desc>lat.=55.760273, lon.=26.040024, Alt.=173.576294m. Speed=0.468000m/h.</desc>
<speed>0.130000</speed>
</trkpt>
<trkpt lat="55.760273" lon="26.040026">
<ele>173.709106</ele>
<time>2010-07-17T17:23:18Z</time>
<desc>lat.=55.760273, lon.=26.040026, Alt.=173.709106m. Speed=0.612000m/h.</desc>
<speed>0.170000</speed>
</trkpt>
<trkpt lat="55.760273" lon="26.040028">
<ele>173.838013</ele>
<time>2010-07-17T17:23:19Z</time>
<desc>lat.=55.760273, lon.=26.040028, Alt.=173.838013m. Speed=0.540000m/h.</desc>
<speed>0.150000</speed>
</trkpt>
<trkpt lat="55.760273" lon="26.040030">
<ele>173.982544</ele>
<time>2010-07-17T17:23:20Z</time>
<desc>lat.=55.760273, lon.=26.040030, Alt.=173.982544m. Speed=0.144000m/h.</desc>
<speed>0.040000</speed>
</trkpt>
<trkpt lat="55.760277" lon="26.040030">
<ele>174.142700</ele>
<time>2010-07-17T17:23:21Z</time>
<desc>lat.=55.760277, lon.=26.040030, Alt.=174.142700m. Speed=0.072000m/h.</desc>
<speed>0.020000</speed>
</trkpt>
<trkpt lat="55.760277" lon="26.040030">
<ele>174.318481</ele>
<time>2010-07-17T17:23:22Z</time>
<desc>lat.=55.760277, lon.=26.040030, Alt.=174.318481m. Speed=0.216000m/h.</desc>
<speed>0.060000</speed>
</trkpt>
<trkpt lat="55.760277" lon="26.040028">
<ele>174.502075</ele>
<time>2010-07-17T17:23:23Z</time>
<desc>lat.=55.760277, lon.=26.040028, Alt.=174.502075m. Speed=0.432000m/h.</desc>
<speed>0.120000</speed>
</trkpt>
<trkpt lat="55.760277" lon="26.040026">
<ele>174.709106</ele>
<time>2010-07-17T17:23:24Z</time>
<desc>lat.=55.760277, lon.=26.040026, Alt.=174.709106m. Speed=0.432000m/h.</desc>
<speed>0.120000</speed>
</trkpt>
<trkpt lat="55.760277" lon="26.040026">
<ele>174.927856</ele>
<time>2010-07-17T17:23:25Z</time>
<desc>lat.=55.760277, lon.=26.040026, Alt.=174.927856m. Speed=0.648000m/h.</desc>
<speed>0.180000</speed>
</trkpt>
<trkpt lat="55.760281" lon="26.040024">
<ele>175.158325</ele>
<time>2010-07-17T17:23:26Z</time>
<desc>lat.=55.760281, lon.=26.040024, Alt.=175.158325m. Speed=0.792000m/h.</desc>
<speed>0.220000</speed>
</trkpt>
<trkpt lat="55.760281" lon="26.040022">
<ele>175.404419</ele>
<time>2010-07-17T17:23:27Z</time>
<desc>lat.=55.760281, lon.=26.040022, Alt.=175.404419m. Speed=0.684000m/h.</desc>
<speed>0.190000</speed>
</trkpt>
<trkpt lat="55.760284" lon="26.040020">
<ele>175.654419</ele>
<time>2010-07-17T17:23:28Z</time>
<desc>lat.=55.760284, lon.=26.040020, Alt.=175.654419m. Speed=0.576000m/h.</desc>
<speed>0.160000</speed>
</trkpt>
<trkpt lat="55.760284" lon="26.040018">
<ele>175.920044</ele>
<time>2010-07-17T17:23:29Z</time>
<desc>lat.=55.760284, lon.=26.040018, Alt.=175.920044m. Speed=0.648000m/h.</desc>
<speed>0.180000</speed>
</trkpt>
<trkpt lat="55.760288" lon="26.040018">
<ele>176.201294</ele>
<time>2010-07-17T17:23:30Z</time>
<desc>lat.=55.760288, lon.=26.040018, Alt.=176.201294m. Speed=0.684000m/h.</desc>
<speed>0.190000</speed>
</trkpt>
<trkpt lat="55.760288" lon="26.040018">
<ele>176.490356</ele>
<time>2010-07-17T17:23:31Z</time>
<desc>lat.=55.760288, lon.=26.040018, Alt.=176.490356m. Speed=0.648000m/h.</desc>
<speed>0.180000</speed>
</trkpt>
<trkpt lat="55.760292" lon="26.040018">
<ele>176.783325</ele>
<time>2010-07-17T17:23:32Z</time>
<desc>lat.=55.760292, lon.=26.040018, Alt.=176.783325m. Speed=0.612000m/h.</desc>
<speed>0.170000</speed>
</trkpt>
<trkpt lat="55.760292" lon="26.040018">
<ele>177.084106</ele>
<time>2010-07-17T17:23:33Z</time>
<desc>lat.=55.760292, lon.=26.040018, Alt.=177.084106m. Speed=0.504000m/h.</desc>
<speed>0.140000</speed>
</trkpt>
<trkpt lat="55.760292" lon="26.040020">
<ele>177.400513</ele>
<time>2010-07-17T17:23:34Z</time>
<desc>lat.=55.760292, lon.=26.040020, Alt.=177.400513m. Speed=0.396000m/h.</desc>
<speed>0.110000</speed>
</trkpt>
<trkpt lat="55.760296" lon="26.040020">
<ele>177.720825</ele>
<time>2010-07-17T17:23:35Z</time>
<desc>lat.=55.760296, lon.=26.040020, Alt.=177.720825m. Speed=0.540000m/h.</desc>
<speed>0.150000</speed>
</trkpt>
<trkpt lat="55.760296" lon="26.040022">
<ele>178.052856</ele>
<time>2010-07-17T17:23:36Z</time>
<desc>lat.=55.760296, lon.=26.040022, Alt.=178.052856m. Speed=0.612000m/h.</desc>
<speed>0.170000</speed>
</trkpt>
<trkpt lat="55.760296" lon="26.040022">
<ele>178.392700</ele>
<time>2010-07-17T17:23:37Z</time>
<desc>lat.=55.760296, lon.=26.040022, Alt.=178.392700m. Speed=0.756000m/h.</desc>
<speed>0.210000</speed>
</trkpt>
<trkpt lat="55.760300" lon="26.040026">
<ele>178.740356</ele>
<time>2010-07-17T17:23:38Z</time>
<desc>lat.=55.760300, lon.=26.040026, Alt.=178.740356m. Speed=0.720000m/h.</desc>
<speed>0.200000</speed>
</trkpt>
<trkpt lat="55.760300" lon="26.040028">
<ele>179.084106</ele>
<time>2010-07-17T17:23:39Z</time>
<desc>lat.=55.760300, lon.=26.040028, Alt.=179.084106m. Speed=0.684000m/h.</desc>
<speed>0.190000</speed>
</trkpt>
<trkpt lat="55.760300" lon="26.040030">
<ele>179.427856</ele>
<time>2010-07-17T17:23:40Z</time>
<desc>lat.=55.760300, lon.=26.040030, Alt.=179.427856m. Speed=0.756000m/h.</desc>
<speed>0.210000</speed>
</trkpt>
<trkpt lat="55.760303" lon="26.040031">
<ele>179.775513</ele>
<time>2010-07-17T17:23:41Z</time>
<desc>lat.=55.760303, lon.=26.040031, Alt.=179.775513m. Speed=0.828000m/h.</desc>
<speed>0.230000</speed>
</trkpt>
<trkpt lat="55.760303" lon="26.040035">
<ele>180.072388</ele>
<time>2010-07-17T17:23:42Z</time>
<desc>lat.=55.760303, lon.=26.040035, Alt.=180.072388m. Speed=0.756000m/h.</desc>
<speed>0.210000</speed>
</trkpt>
<trkpt lat="55.760307" lon="26.040037">
<ele>180.306763</ele>
<time>2010-07-17T17:23:43Z</time>
<desc>lat.=55.760307, lon.=26.040037, Alt.=180.306763m. Speed=0.756000m/h.</desc>
<speed>0.210000</speed>
</trkpt>
<trkpt lat="55.760307" lon="26.040039">
<ele>180.545044</ele>
<time>2010-07-17T17:23:44Z</time>
<desc>lat.=55.760307, lon.=26.040039, Alt.=180.545044m. Speed=0.720000m/h.</desc>
<speed>0.200000</speed>
</trkpt>
<trkpt lat="55.760307" lon="26.040043">
<ele>180.791138</ele>
<time>2010-07-17T17:23:45Z</time>
<desc>lat.=55.760307, lon.=26.040043, Alt.=180.791138m. Speed=0.792000m/h.</desc>
<speed>0.220000</speed>
</trkpt>
<trkpt lat="55.760311" lon="26.040045">
<ele>181.041138</ele>
<time>2010-07-17T17:23:46Z</time>
<desc>lat.=55.760311, lon.=26.040045, Alt.=181.041138m. Speed=0.828000m/h.</desc>
<speed>0.230000</speed>
</trkpt>
<trkpt lat="55.760311" lon="26.040049">
<ele>181.283325</ele>
<time>2010-07-17T17:23:47Z</time>
<desc>lat.=55.760311, lon.=26.040049, Alt.=181.283325m. Speed=0.828000m/h.</desc>
<speed>0.230000</speed>
</trkpt>
<trkpt lat="55.760311" lon="26.040052">
<ele>181.529419</ele>
<time>2010-07-17T17:23:48Z</time>
<desc>lat.=55.760311, lon.=26.040052, Alt.=181.529419m. Speed=0.936000m/h.</desc>
<speed>0.260000</speed>
</trkpt>
<trkpt lat="55.760311" lon="26.040056">
<ele>181.775513</ele>
<time>2010-07-17T17:23:49Z</time>
<desc>lat.=55.760311, lon.=26.040056, Alt.=181.775513m. Speed=0.972000m/h.</desc>
<speed>0.270000</speed>
</trkpt>
<trkpt lat="55.760315" lon="26.040060">
<ele>182.017700</ele>
<time>2010-07-17T17:23:50Z</time>
<desc>lat.=55.760315, lon.=26.040060, Alt.=182.017700m. Speed=0.900000m/h.</desc>
<speed>0.250000</speed>
</trkpt>
<trkpt lat="55.760315" lon="26.040064">
<ele>182.252075</ele>
<time>2010-07-17T17:23:51Z</time>
<desc>lat.=55.760315, lon.=26.040064, Alt.=182.252075m. Speed=0.936000m/h.</desc>
<speed>0.260000</speed>
</trkpt>
<trkpt lat="55.760315" lon="26.040068">
<ele>182.486450</ele>
<time>2010-07-17T17:23:52Z</time>
<desc>lat.=55.760315, lon.=26.040068, Alt.=182.486450m. Speed=0.900000m/h.</desc>
<speed>0.250000</speed>
</trkpt>
<trkpt lat="55.760315" lon="26.040071">
<ele>182.713013</ele>
<time>2010-07-17T17:23:53Z</time>
<desc>lat.=55.760315, lon.=26.040071, Alt.=182.713013m. Speed=0.540000m/h.</desc>
<speed>0.150000</speed>
</trkpt>
<trkpt lat="55.760319" lon="26.040073">
<ele>182.947388</ele>
<time>2010-07-17T17:23:54Z</time>
<desc>lat.=55.760319, lon.=26.040073, Alt.=182.947388m. Speed=0.504000m/h.</desc>
<speed>0.140000</speed>
</trkpt>
<trkpt lat="55.760319" lon="26.040073">
<ele>183.177856</ele>
<time>2010-07-17T17:23:55Z</time>
<desc>lat.=55.760319, lon.=26.040073, Alt.=183.177856m. Speed=0.360000m/h.</desc>
<speed>0.100000</speed>
</trkpt>
<trkpt lat="55.760319" lon="26.040075">
<ele>183.404419</ele>
<time>2010-07-17T17:23:56Z</time>
<desc>lat.=55.760319, lon.=26.040075, Alt.=183.404419m. Speed=0.216000m/h.</desc>
<speed>0.060000</speed>
</trkpt>
<trkpt lat="55.760319" lon="26.040075">
<ele>183.630981</ele>
<time>2010-07-17T17:23:57Z</time>
<desc>lat.=55.760319, lon.=26.040075, Alt.=183.630981m. Speed=0.000000m/h.</desc>
<speed>0.000000</speed>
</trkpt>
<trkpt lat="55.760319" lon="26.040075">
<ele>183.865356</ele>
<time>2010-07-17T17:23:58Z</time>
<desc>lat.=55.760319, lon.=26.040075, Alt.=183.865356m. Speed=0.036000m/h.</desc>
<speed>0.010000</speed>
</trkpt>
<trkpt lat="55.760319" lon="26.040075">
<ele>184.099731</ele>
<time>2010-07-17T17:23:59Z</time>
<desc>lat.=55.760319, lon.=26.040075, Alt.=184.099731m. Speed=0.144000m/h.</desc>
<speed>0.040000</speed>
</trkpt>
<trkpt lat="55.760319" lon="26.040075">
<ele>184.330200</ele>
<time>2010-07-17T17:24:00Z</time>
<desc>lat.=55.760319, lon.=26.040075, Alt.=184.330200m. Speed=0.252000m/h.</desc>
<speed>0.070000</speed>
</trkpt>
<trkpt lat="55.760319" lon="26.040073">
<ele>184.560669</ele>
<time>2010-07-17T17:24:01Z</time>
<desc>lat.=55.760319, lon.=26.040073, Alt.=184.560669m. Speed=0.504000m/h.</desc>
<speed>0.140000</speed>
</trkpt>
<trkpt lat="55.760315" lon="26.040073">
<ele>184.791138</ele>
<time>2010-07-17T17:24:02Z</time>
<desc>lat.=55.760315, lon.=26.040073, Alt.=184.791138m. Speed=0.576000m/h.</desc>
<speed>0.160000</speed>
</trkpt>
<trkpt lat="55.760315" lon="26.040073">
<ele>185.021606</ele>
<time>2010-07-17T17:24:03Z</time>
<desc>lat.=55.760315, lon.=26.040073, Alt.=185.021606m. Speed=0.612000m/h.</desc>
<speed>0.170000</speed>
</trkpt>
<trkpt lat="55.760315" lon="26.040075">
<ele>185.236450</ele>
<time>2010-07-17T17:24:04Z</time>
<desc>lat.=55.760315, lon.=26.040075, Alt.=185.236450m. Speed=0.756000m/h.</desc>
<speed>0.210000</speed>
</trkpt>
<trkpt lat="55.760311" lon="26.040077">
<ele>185.451294</ele>
<time>2010-07-17T17:24:05Z</time>
<desc>lat.=55.760311, lon.=26.040077, Alt.=185.451294m. Speed=0.648000m/h.</desc>
<speed>0.180000</speed>
</trkpt>
<trkpt lat="55.760311" lon="26.040077">
<ele>185.662231</ele>
<time>2010-07-17T17:24:06Z</time>
<desc>lat.=55.760311, lon.=26.040077, Alt.=185.662231m. Speed=0.936000m/h.</desc>
<speed>0.260000</speed>
</trkpt>
<trkpt lat="55.760307" lon="26.040079">
<ele>185.869263</ele>
<time>2010-07-17T17:24:07Z</time>
<desc>lat.=55.760307, lon.=26.040079, Alt.=185.869263m. Speed=0.864000m/h.</desc>
<speed>0.240000</speed>
</trkpt>
<trkpt lat="55.760307" lon="26.040081">
<ele>186.072388</ele>
<time>2010-07-17T17:24:08Z</time>
<desc>lat.=55.760307, lon.=26.040081, Alt.=186.072388m. Speed=0.828000m/h.</desc>
<speed>0.230000</speed>
</trkpt>
<trkpt lat="55.760303" lon="26.040083">
<ele>186.271606</ele>
<time>2010-07-17T17:24:09Z</time>
<desc>lat.=55.760303, lon.=26.040083, Alt.=186.271606m. Speed=0.648000m/h.</desc>
<speed>0.180000</speed>
</trkpt>
<trkpt lat="55.760303" lon="26.040085">
<ele>186.463013</ele>
<time>2010-07-17T17:24:10Z</time>
<desc>lat.=55.760303, lon.=26.040085, Alt.=186.463013m. Speed=0.540000m/h.</desc>
<speed>0.150000</speed>
</trkpt>
<trkpt lat="55.760300" lon="26.040087">
<ele>186.658325</ele>
<time>2010-07-17T17:24:11Z</time>
<desc>lat.=55.760300, lon.=26.040087, Alt.=186.658325m. Speed=0.360000m/h.</desc>
<speed>0.100000</speed>
</trkpt>
<trkpt lat="55.760300" lon="26.040087">
<ele>186.845825</ele>
<time>2010-07-17T17:24:12Z</time>
<desc>lat.=55.760300, lon.=26.040087, Alt.=186.845825m. Speed=0.360000m/h.</desc>
<speed>0.100000</speed>
</trkpt>
<trkpt lat="55.760300" lon="26.040089">
<ele>187.033325</ele>
<time>2010-07-17T17:24:13Z</time>
<desc>lat.=55.760300, lon.=26.040089, Alt.=187.033325m. Speed=0.216000m/h.</desc>
<speed>0.060000</speed>
</trkpt>
<trkpt lat="55.760300" lon="26.040089">
<ele>187.209106</ele>
<time>2010-07-17T17:24:14Z</time>
<desc>lat.=55.760300, lon.=26.040089, Alt.=187.209106m. Speed=0.252000m/h.</desc>
<speed>0.070000</speed>
</trkpt>
<trkpt lat="55.760300" lon="26.040089">
<ele>187.380981</ele>
<time>2010-07-17T17:24:15Z</time>
<desc>lat.=55.760300, lon.=26.040089, Alt.=187.380981m. Speed=0.252000m/h.</desc>
<speed>0.070000</speed>
</trkpt>
<trkpt lat="55.760300" lon="26.040089">
<ele>187.552856</ele>
<time>2010-07-17T17:24:16Z</time>
<desc>lat.=55.760300, lon.=26.040089, Alt.=187.552856m. Speed=0.504000m/h.</desc>
<speed>0.140000</speed>
</trkpt>
<trkpt lat="55.760296" lon="26.040089">
<ele>187.716919</ele>
<time>2010-07-17T17:24:17Z</time>
<desc>lat.=55.760296, lon.=26.040089, Alt.=187.716919m. Speed=0.432000m/h.</desc>
<speed>0.120000</speed>
</trkpt>
<trkpt lat="55.760296" lon="26.040089">
<ele>187.869263</ele>
<time>2010-07-17T17:24:18Z</time>
<desc>lat.=55.760296, lon.=26.040089, Alt.=187.869263m. Speed=0.612000m/h.</desc>
<speed>0.170000</speed>
</trkpt>
<trkpt lat="55.760296" lon="26.040089">
<ele>188.017700</ele>
<time>2010-07-17T17:24:19Z</time>
<desc>lat.=55.760296, lon.=26.040089, Alt.=188.017700m. Speed=0.612000m/h.</desc>
<speed>0.170000</speed>
</trkpt>
<trkpt lat="55.760292" lon="26.040089">
<ele>188.154419</ele>
<time>2010-07-17T17:24:20Z</time>
<desc>lat.=55.760292, lon.=26.040089, Alt.=188.154419m. Speed=0.684000m/h.</desc>
<speed>0.190000</speed>
</trkpt>
<trkpt lat="55.760292" lon="26.040091">
<ele>188.283325</ele>
<time>2010-07-17T17:24:21Z</time>
<desc>lat.=55.760292, lon.=26.040091, Alt.=188.283325m. Speed=0.612000m/h.</desc>
<speed>0.170000</speed>
</trkpt>
<trkpt lat="55.760288" lon="26.040092">
<ele>188.412231</ele>
<time>2010-07-17T17:24:22Z</time>
<desc>lat.=55.760288, lon.=26.040092, Alt.=188.412231m. Speed=0.540000m/h.</desc>
<speed>0.150000</speed>
</trkpt>
<trkpt lat="55.760288" lon="26.040094">
<ele>188.529419</ele>
<time>2010-07-17T17:24:23Z</time>
<desc>lat.=55.760288, lon.=26.040094, Alt.=188.529419m. Speed=0.540000m/h.</desc>
<speed>0.150000</speed>
</trkpt>
<trkpt lat="55.760288" lon="26.040094">
<ele>188.638794</ele>
<time>2010-07-17T17:24:24Z</time>
<desc>lat.=55.760288, lon.=26.040094, Alt.=188.638794m. Speed=0.360000m/h.</desc>
<speed>0.100000</speed>
</trkpt>
<trkpt lat="55.760288" lon="26.040094">
<ele>188.736450</ele>
<time>2010-07-17T17:24:25Z</time>
<desc>lat.=55.760288, lon.=26.040094, Alt.=188.736450m. Speed=0.396000m/h.</desc>
<speed>0.110000</speed>
</trkpt>
<trkpt lat="55.760284" lon="26.040094">
<ele>188.826294</ele>
<time>2010-07-17T17:24:26Z</time>
<desc>lat.=55.760284, lon.=26.040094, Alt.=188.826294m. Speed=0.540000m/h.</desc>
<speed>0.150000</speed>
</trkpt>
<trkpt lat="55.760284" lon="26.040092">
<ele>188.904419</ele>
<time>2010-07-17T17:24:27Z</time>
<desc>lat.=55.760284, lon.=26.040092, Alt.=188.904419m. Speed=0.648000m/h.</desc>
<speed>0.180000</speed>
</trkpt>
<trkpt lat="55.760284" lon="26.040091">
<ele>188.974731</ele>
<time>2010-07-17T17:24:28Z</time>
<desc>lat.=55.760284, lon.=26.040091, Alt.=188.974731m. Speed=0.540000m/h.</desc>
<speed>0.150000</speed>
</trkpt>
<trkpt lat="55.760284" lon="26.040089">
<ele>189.029419</ele>
<time>2010-07-17T17:24:29Z</time>
<desc>lat.=55.760284, lon.=26.040089, Alt.=189.029419m. Speed=0.504000m/h.</desc>
<speed>0.140000</speed>
</trkpt>
<trkpt lat="55.760281" lon="26.040085">
<ele>189.068481</ele>
<time>2010-07-17T17:24:30Z</time>
<desc>lat.=55.760281, lon.=26.040085, Alt.=189.068481m. Speed=0.684000m/h.</desc>
<speed>0.190000</speed>
</trkpt>
<trkpt lat="55.760281" lon="26.040083">
<ele>189.095825</ele>
<time>2010-07-17T17:24:31Z</time>
<desc>lat.=55.760281, lon.=26.040083, Alt.=189.095825m. Speed=0.648000m/h.</desc>
<speed>0.180000</speed>
</trkpt>
<trkpt lat="55.760281" lon="26.040079">
<ele>189.119263</ele>
<time>2010-07-17T17:24:32Z</time>
<desc>lat.=55.760281, lon.=26.040079, Alt.=189.119263m. Speed=0.396000m/h.</desc>
<speed>0.110000</speed>
</trkpt>
<trkpt lat="55.760281" lon="26.040077">
<ele>189.134888</ele>
<time>2010-07-17T17:24:33Z</time>
<desc>lat.=55.760281, lon.=26.040077, Alt.=189.134888m. Speed=0.468000m/h.</desc>
<speed>0.130000</speed>
</trkpt>
<trkpt lat="55.760281" lon="26.040075">
<ele>189.115356</ele>
<time>2010-07-17T17:24:34Z</time>
<desc>lat.=55.760281, lon.=26.040075, Alt.=189.115356m. Speed=0.684000m/h.</desc>
<speed>0.190000</speed>
</trkpt>
<trkpt lat="55.760281" lon="26.040071">
<ele>189.088013</ele>
<time>2010-07-17T17:24:35Z</time>
<desc>lat.=55.760281, lon.=26.040071, Alt.=189.088013m. Speed=0.720000m/h.</desc>
<speed>0.200000</speed>
</trkpt>
<trkpt lat="55.760281" lon="26.040068">
<ele>189.029419</ele>
<time>2010-07-17T17:24:36Z</time>
<desc>lat.=55.760281, lon.=26.040068, Alt.=189.029419m. Speed=0.648000m/h.</desc>
<speed>0.180000</speed>
</trkpt>
<trkpt lat="55.760281" lon="26.040066">
<ele>188.939575</ele>
<time>2010-07-17T17:24:37Z</time>
<desc>lat.=55.760281, lon.=26.040066, Alt.=188.939575m. Speed=0.612000m/h.</desc>
<speed>0.170000</speed>
</trkpt>
<trkpt lat="55.760281" lon="26.040062">
<ele>188.834106</ele>
<time>2010-07-17T17:24:38Z</time>
<desc>lat.=55.760281, lon.=26.040062, Alt.=188.834106m. Speed=0.612000m/h.</desc>
<speed>0.170000</speed>
</trkpt>
<trkpt lat="55.760281" lon="26.040060">
<ele>188.705200</ele>
<time>2010-07-17T17:24:39Z</time>
<desc>lat.=55.760281, lon.=26.040060, Alt.=188.705200m. Speed=0.540000m/h.</desc>
<speed>0.150000</speed>
</trkpt>
<trkpt lat="55.760281" lon="26.040060">
<ele>188.568481</ele>
<time>2010-07-17T17:24:40Z</time>
<desc>lat.=55.760281, lon.=26.040060, Alt.=188.568481m. Speed=0.468000m/h.</desc>
<speed>0.130000</speed>
</trkpt>
<trkpt lat="55.760281" lon="26.040058">
<ele>188.431763</ele>
<time>2010-07-17T17:24:41Z</time>
<desc>lat.=55.760281, lon.=26.040058, Alt.=188.431763m. Speed=0.432000m/h.</desc>
<speed>0.120000</speed>
</trkpt>
<trkpt lat="55.760277" lon="26.040056">
<ele>188.279419</ele>
<time>2010-07-17T17:24:42Z</time>
<desc>lat.=55.760277, lon.=26.040056, Alt.=188.279419m. Speed=0.360000m/h.</desc>
<speed>0.100000</speed>
</trkpt>
<trkpt lat="55.760277" lon="26.040054">
<ele>188.111450</ele>
<time>2010-07-17T17:24:43Z</time>
<desc>lat.=55.760277, lon.=26.040054, Alt.=188.111450m. Speed=0.252000m/h.</desc>
<speed>0.070000</speed>
</trkpt>
<trkpt lat="55.760277" lon="26.040054">
<ele>187.951294</ele>
<time>2010-07-17T17:24:44Z</time>
<desc>lat.=55.760277, lon.=26.040054, Alt.=187.951294m. Speed=0.288000m/h.</desc>
<speed>0.080000</speed>
</trkpt>
<trkpt lat="55.760277" lon="26.040052">
<ele>187.771606</ele>
<time>2010-07-17T17:24:45Z</time>
<desc>lat.=55.760277, lon.=26.040052, Alt.=187.771606m. Speed=0.288000m/h.</desc>
<speed>0.080000</speed>
</trkpt>
<trkpt lat="55.760281" lon="26.040052">
<ele>187.580200</ele>
<time>2010-07-17T17:24:46Z</time>
<desc>lat.=55.760281, lon.=26.040052, Alt.=187.580200m. Speed=0.504000m/h.</desc>
<speed>0.140000</speed>
</trkpt>
<trkpt lat="55.760281" lon="26.040051">
<ele>187.377075</ele>
<time>2010-07-17T17:24:47Z</time>
<desc>lat.=55.760281, lon.=26.040051, Alt.=187.377075m. Speed=0.684000m/h.</desc>
<speed>0.190000</speed>
</trkpt>
<trkpt lat="55.760281" lon="26.040047">
<ele>187.166138</ele>
<time>2010-07-17T17:24:48Z</time>
<desc>lat.=55.760281, lon.=26.040047, Alt.=187.166138m. Speed=0.756000m/h.</desc>
<speed>0.210000</speed>
</trkpt>
<trkpt lat="55.760281" lon="26.040045">
<ele>186.951294</ele>
<time>2010-07-17T17:24:49Z</time>
<desc>lat.=55.760281, lon.=26.040045, Alt.=186.951294m. Speed=0.828000m/h.</desc>
<speed>0.230000</speed>
</trkpt>
<trkpt lat="55.760284" lon="26.040041">
<ele>186.724731</ele>
<time>2010-07-17T17:24:50Z</time>
<desc>lat.=55.760284, lon.=26.040041, Alt.=186.724731m. Speed=0.792000m/h.</desc>
<speed>0.220000</speed>
</trkpt>
<trkpt lat="55.760284" lon="26.040037">
<ele>186.498169</ele>
<time>2010-07-17T17:24:51Z</time>
<desc>lat.=55.760284, lon.=26.040037, Alt.=186.498169m. Speed=0.864000m/h.</desc>
<speed>0.240000</speed>
</trkpt>
<trkpt lat="55.760284" lon="26.040035">
<ele>186.263794</ele>
<time>2010-07-17T17:24:52Z</time>
<desc>lat.=55.760284, lon.=26.040035, Alt.=186.263794m. Speed=0.828000m/h.</desc>
<speed>0.230000</speed>
</trkpt>
<trkpt lat="55.760288" lon="26.040031">
<ele>186.021606</ele>
<time>2010-07-17T17:24:53Z</time>
<desc>lat.=55.760288, lon.=26.040031, Alt.=186.021606m. Speed=0.756000m/h.</desc>
<speed>0.210000</speed>
</trkpt>
<trkpt lat="55.760288" lon="26.040028">
<ele>185.779419</ele>
<time>2010-07-17T17:24:54Z</time>
<desc>lat.=55.760288, lon.=26.040028, Alt.=185.779419m. Speed=0.900000m/h.</desc>
<speed>0.250000</speed>
</trkpt>
<trkpt lat="55.760288" lon="26.040024">
<ele>185.529419</ele>
<time>2010-07-17T17:24:55Z</time>
<desc>lat.=55.760288, lon.=26.040024, Alt.=185.529419m. Speed=1.044000m/h.</desc>
<speed>0.290000</speed>
</trkpt>
<trkpt lat="55.760288" lon="26.040018">
<ele>185.275513</ele>
<time>2010-07-17T17:24:56Z</time>
<desc>lat.=55.760288, lon.=26.040018, Alt.=185.275513m. Speed=1.080000m/h.</desc>
<speed>0.300000</speed>
</trkpt>
<trkpt lat="55.760288" lon="26.039995">
<ele>184.693481</ele>
<time>2010-07-17T17:24:57Z</time>
<desc>lat.=55.760288, lon.=26.039995, Alt.=184.693481m. Speed=1.188000m/h.</desc>
<speed>0.330000</speed>
</trkpt>
<trkpt lat="55.760288" lon="26.039982">
<ele>184.255981</ele>
<time>2010-07-17T17:24:58Z</time>
<desc>lat.=55.760288, lon.=26.039982, Alt.=184.255981m. Speed=1.188000m/h.</desc>
<speed>0.330000</speed>
</trkpt>
<trkpt lat="55.760292" lon="26.039978">
<ele>184.037231</ele>
<time>2010-07-17T17:24:59Z</time>
<desc>lat.=55.760292, lon.=26.039978, Alt.=184.037231m. Speed=1.044000m/h.</desc>
<speed>0.290000</speed>
</trkpt>
<trkpt lat="55.760296" lon="26.039959">
<ele>184.306763</ele>
<time>2010-07-17T17:25:00Z</time>
<desc>lat.=55.760296, lon.=26.039959, Alt.=184.306763m. Speed=1.260000m/h.</desc>
<speed>0.350000</speed>
</trkpt>
<trkpt lat="55.760292" lon="26.039949">
<ele>184.427856</ele>
<time>2010-07-17T17:25:01Z</time>
<desc>lat.=55.760292, lon.=26.039949, Alt.=184.427856m. Speed=1.332000m/h.</desc>
<speed>0.370000</speed>
</trkpt>
<trkpt lat="55.760292" lon="26.039949">
<ele>183.986450</ele>
<time>2010-07-17T17:25:02Z</time>
<desc>lat.=55.760292, lon.=26.039949, Alt.=183.986450m. Speed=1.080000m/h.</desc>
<speed>0.300000</speed>
</trkpt>
<trkpt lat="55.760288" lon="26.039951">
<ele>183.427856</ele>
<time>2010-07-17T17:25:03Z</time>
<desc>lat.=55.760288, lon.=26.039951, Alt.=183.427856m. Speed=1.044000m/h.</desc>
<speed>0.290000</speed>
</trkpt>
<trkpt lat="55.760292" lon="26.039953">
<ele>183.255981</ele>
<time>2010-07-17T17:25:04Z</time>
<desc>lat.=55.760292, lon.=26.039953, Alt.=183.255981m. Speed=0.972000m/h.</desc>
<speed>0.270000</speed>
</trkpt>
<trkpt lat="55.760296" lon="26.039949">
<ele>182.970825</ele>
<time>2010-07-17T17:25:05Z</time>
<desc>lat.=55.760296, lon.=26.039949, Alt.=182.970825m. Speed=1.008000m/h.</desc>
<speed>0.280000</speed>
</trkpt>
<trkpt lat="55.760300" lon="26.039951">
<ele>182.349731</ele>
<time>2010-07-17T17:25:06Z</time>
<desc>lat.=55.760300, lon.=26.039951, Alt.=182.349731m. Speed=0.828000m/h.</desc>
<speed>0.230000</speed>
</trkpt>
<trkpt lat="55.760303" lon="26.039948">
<ele>182.099731</ele>
<time>2010-07-17T17:25:07Z</time>
<desc>lat.=55.760303, lon.=26.039948, Alt.=182.099731m. Speed=0.504000m/h.</desc>
<speed>0.140000</speed>
</trkpt>
<trkpt lat="55.760303" lon="26.039946">
<ele>181.857544</ele>
<time>2010-07-17T17:25:08Z</time>
<desc>lat.=55.760303, lon.=26.039946, Alt.=181.857544m. Speed=0.360000m/h.</desc>
<speed>0.100000</speed>
</trkpt>
<trkpt lat="55.760303" lon="26.039944">
<ele>181.623169</ele>
<time>2010-07-17T17:25:09Z</time>
<desc>lat.=55.760303, lon.=26.039944, Alt.=181.623169m. Speed=0.432000m/h.</desc>
<speed>0.120000</speed>
</trkpt>
<trkpt lat="55.760303" lon="26.039942">
<ele>181.380981</ele>
<time>2010-07-17T17:25:10Z</time>
<desc>lat.=55.760303, lon.=26.039942, Alt.=181.380981m. Speed=0.504000m/h.</desc>
<speed>0.140000</speed>
</trkpt>
<trkpt lat="55.760303" lon="26.039940">
<ele>181.138794</ele>
<time>2010-07-17T17:25:11Z</time>
<desc>lat.=55.760303, lon.=26.039940, Alt.=181.138794m. Speed=0.432000m/h.</desc>
<speed>0.120000</speed>
</trkpt>
<trkpt lat="55.760303" lon="26.039938">
<ele>180.900513</ele>
<time>2010-07-17T17:25:12Z</time>
<desc>lat.=55.760303, lon.=26.039938, Alt.=180.900513m. Speed=0.576000m/h.</desc>
<speed>0.160000</speed>
</trkpt>
<trkpt lat="55.760303" lon="26.039936">
<ele>180.673950</ele>
<time>2010-07-17T17:25:13Z</time>
<desc>lat.=55.760303, lon.=26.039936, Alt.=180.673950m. Speed=0.324000m/h.</desc>
<speed>0.090000</speed>
</trkpt>
<trkpt lat="55.760303" lon="26.039934">
<ele>180.447388</ele>
<time>2010-07-17T17:25:14Z</time>
<desc>lat.=55.760303, lon.=26.039934, Alt.=180.447388m. Speed=0.252000m/h.</desc>
<speed>0.070000</speed>
</trkpt>
<trkpt lat="55.760303" lon="26.039934">
<ele>180.224731</ele>
<time>2010-07-17T17:25:15Z</time>
<desc>lat.=55.760303, lon.=26.039934, Alt.=180.224731m. Speed=0.324000m/h.</desc>
<speed>0.090000</speed>
</trkpt>
<trkpt lat="55.760300" lon="26.039932">
<ele>179.990356</ele>
<time>2010-07-17T17:25:16Z</time>
<desc>lat.=55.760300, lon.=26.039932, Alt.=179.990356m. Speed=0.468000m/h.</desc>
<speed>0.130000</speed>
</trkpt>
<trkpt lat="55.760300" lon="26.039932">
<ele>179.748169</ele>
<time>2010-07-17T17:25:17Z</time>
<desc>lat.=55.760300, lon.=26.039932, Alt.=179.748169m. Speed=0.288000m/h.</desc>
<speed>0.080000</speed>
</trkpt>
<trkpt lat="55.760300" lon="26.039930">
<ele>179.490356</ele>
<time>2010-07-17T17:25:18Z</time>
<desc>lat.=55.760300, lon.=26.039930, Alt.=179.490356m. Speed=0.252000m/h.</desc>
<speed>0.070000</speed>
</trkpt>
<trkpt lat="55.760300" lon="26.039928">
<ele>179.228638</ele>
<time>2010-07-17T17:25:19Z</time>
<desc>lat.=55.760300, lon.=26.039928, Alt.=179.228638m. Speed=0.324000m/h.</desc>
<speed>0.090000</speed>
</trkpt>
<trkpt lat="55.760300" lon="26.039928">
<ele>178.959106</ele>
<time>2010-07-17T17:25:20Z</time>
<desc>lat.=55.760300, lon.=26.039928, Alt.=178.959106m. Speed=0.612000m/h.</desc>
<speed>0.170000</speed>
</trkpt>
<trkpt lat="55.760303" lon="26.039927">
<ele>178.670044</ele>
<time>2010-07-17T17:25:21Z</time>
<desc>lat.=55.760303, lon.=26.039927, Alt.=178.670044m. Speed=0.468000m/h.</desc>
<speed>0.130000</speed>
</trkpt>
<trkpt lat="55.760303" lon="26.039925">
<ele>178.369263</ele>
<time>2010-07-17T17:25:22Z</time>
<desc>lat.=55.760303, lon.=26.039925, Alt.=178.369263m. Speed=0.396000m/h.</desc>
<speed>0.110000</speed>
</trkpt>
<trkpt lat="55.760303" lon="26.039925">
<ele>178.064575</ele>
<time>2010-07-17T17:25:23Z</time>
<desc>lat.=55.760303, lon.=26.039925, Alt.=178.064575m. Speed=0.396000m/h.</desc>
<speed>0.110000</speed>
</trkpt>
<trkpt lat="55.760303" lon="26.039923">
<ele>177.763794</ele>
<time>2010-07-17T17:25:24Z</time>
<desc>lat.=55.760303, lon.=26.039923, Alt.=177.763794m. Speed=0.360000m/h.</desc>
<speed>0.100000</speed>
</trkpt>
<trkpt lat="55.760307" lon="26.039921">
<ele>177.466919</ele>
<time>2010-07-17T17:25:25Z</time>
<desc>lat.=55.760307, lon.=26.039921, Alt.=177.466919m. Speed=0.432000m/h.</desc>
<speed>0.120000</speed>
</trkpt>
<trkpt lat="55.760307" lon="26.039919">
<ele>177.166138</ele>
<time>2010-07-17T17:25:26Z</time>
<desc>lat.=55.760307, lon.=26.039919, Alt.=177.166138m. Speed=0.468000m/h.</desc>
<speed>0.130000</speed>
</trkpt>
<trkpt lat="55.760307" lon="26.039917">
<ele>176.865356</ele>
<time>2010-07-17T17:25:27Z</time>
<desc>lat.=55.760307, lon.=26.039917, Alt.=176.865356m. Speed=0.504000m/h.</desc>
<speed>0.140000</speed>
</trkpt>
<trkpt lat="55.760307" lon="26.039915">
<ele>176.580200</ele>
<time>2010-07-17T17:25:28Z</time>
<desc>lat.=55.760307, lon.=26.039915, Alt.=176.580200m. Speed=0.684000m/h.</desc>
<speed>0.190000</speed>
</trkpt>
<trkpt lat="55.760303" lon="26.039911">
<ele>176.298950</ele>
<time>2010-07-17T17:25:29Z</time>
<desc>lat.=55.760303, lon.=26.039911, Alt.=176.298950m. Speed=0.720000m/h.</desc>
<speed>0.200000</speed>
</trkpt>
<trkpt lat="55.760303" lon="26.039907">
<ele>176.025513</ele>
<time>2010-07-17T17:25:30Z</time>
<desc>lat.=55.760303, lon.=26.039907, Alt.=176.025513m. Speed=0.828000m/h.</desc>
<speed>0.230000</speed>
</trkpt>
<trkpt lat="55.760303" lon="26.039906">
<ele>175.759888</ele>
<time>2010-07-17T17:25:31Z</time>
<desc>lat.=55.760303, lon.=26.039906, Alt.=175.759888m. Speed=0.936000m/h.</desc>
<speed>0.260000</speed>
</trkpt>
<trkpt lat="55.760303" lon="26.039900">
<ele>175.502075</ele>
<time>2010-07-17T17:25:32Z</time>
<desc>lat.=55.760303, lon.=26.039900, Alt.=175.502075m. Speed=1.008000m/h.</desc>
<speed>0.280000</speed>
</trkpt>
<trkpt lat="55.760303" lon="26.039896">
<ele>175.263794</ele>
<time>2010-07-17T17:25:33Z</time>
<desc>lat.=55.760303, lon.=26.039896, Alt.=175.263794m. Speed=0.864000m/h.</desc>
<speed>0.240000</speed>
</trkpt>
<trkpt lat="55.760303" lon="26.039892">
<ele>175.045044</ele>
<time>2010-07-17T17:25:34Z</time>
<desc>lat.=55.760303, lon.=26.039892, Alt.=175.045044m. Speed=0.756000m/h.</desc>
<speed>0.210000</speed>
</trkpt>
<trkpt lat="55.760303" lon="26.039888">
<ele>174.838013</ele>
<time>2010-07-17T17:25:35Z</time>
<desc>lat.=55.760303, lon.=26.039888, Alt.=174.838013m. Speed=0.684000m/h.</desc>
<speed>0.190000</speed>
</trkpt>
<trkpt lat="55.760303" lon="26.039886">
<ele>174.638794</ele>
<time>2010-07-17T17:25:36Z</time>
<desc>lat.=55.760303, lon.=26.039886, Alt.=174.638794m. Speed=0.576000m/h.</desc>
<speed>0.160000</speed>
</trkpt>
<trkpt lat="55.760303" lon="26.039883">
<ele>174.463013</ele>
<time>2010-07-17T17:25:37Z</time>
<desc>lat.=55.760303, lon.=26.039883, Alt.=174.463013m. Speed=0.612000m/h.</desc>
<speed>0.170000</speed>
</trkpt>
<trkpt lat="55.760303" lon="26.039881">
<ele>174.314575</ele>
<time>2010-07-17T17:25:38Z</time>
<desc>lat.=55.760303, lon.=26.039881, Alt.=174.314575m. Speed=0.720000m/h.</desc>
<speed>0.200000</speed>
</trkpt>
<trkpt lat="55.760303" lon="26.039877">
<ele>174.185669</ele>
<time>2010-07-17T17:25:39Z</time>
<desc>lat.=55.760303, lon.=26.039877, Alt.=174.185669m. Speed=0.792000m/h.</desc>
<speed>0.220000</speed>
</trkpt>
<trkpt lat="55.760303" lon="26.039873">
<ele>174.084106</ele>
<time>2010-07-17T17:25:40Z</time>
<desc>lat.=55.760303, lon.=26.039873, Alt.=174.084106m. Speed=0.792000m/h.</desc>
<speed>0.220000</speed>
</trkpt>
<trkpt lat="55.760303" lon="26.039869">
<ele>174.009888</ele>
<time>2010-07-17T17:25:41Z</time>
<desc>lat.=55.760303, lon.=26.039869, Alt.=174.009888m. Speed=0.900000m/h.</desc>
<speed>0.250000</speed>
</trkpt>
<trkpt lat="55.760303" lon="26.039865">
<ele>173.955200</ele>
<time>2010-07-17T17:25:42Z</time>
<desc>lat.=55.760303, lon.=26.039865, Alt.=173.955200m. Speed=0.756000m/h.</desc>
<speed>0.210000</speed>
</trkpt>
<trkpt lat="55.760303" lon="26.039862">
<ele>173.927856</ele>
<time>2010-07-17T17:25:43Z</time>
<desc>lat.=55.760303, lon.=26.039862, Alt.=173.927856m. Speed=0.576000m/h.</desc>
<speed>0.160000</speed>
</trkpt>
<trkpt lat="55.760303" lon="26.039860">
<ele>173.920044</ele>
<time>2010-07-17T17:25:44Z</time>
<desc>lat.=55.760303, lon.=26.039860, Alt.=173.920044m. Speed=0.504000m/h.</desc>
<speed>0.140000</speed>
</trkpt>
<trkpt lat="55.760303" lon="26.039858">
<ele>173.927856</ele>
<time>2010-07-17T17:25:45Z</time>
<desc>lat.=55.760303, lon.=26.039858, Alt.=173.927856m. Speed=0.540000m/h.</desc>
<speed>0.150000</speed>
</trkpt>
<trkpt lat="55.760303" lon="26.039854">
<ele>173.963013</ele>
<time>2010-07-17T17:25:46Z</time>
<desc>lat.=55.760303, lon.=26.039854, Alt.=173.963013m. Speed=0.540000m/h.</desc>
<speed>0.150000</speed>
</trkpt>
<trkpt lat="55.760303" lon="26.039852">
<ele>174.033325</ele>
<time>2010-07-17T17:25:47Z</time>
<desc>lat.=55.760303, lon.=26.039852, Alt.=174.033325m. Speed=0.396000m/h.</desc>
<speed>0.110000</speed>
</trkpt>
<trkpt lat="55.760303" lon="26.039850">
<ele>174.127075</ele>
<time>2010-07-17T17:25:48Z</time>
<desc>lat.=55.760303, lon.=26.039850, Alt.=174.127075m. Speed=0.288000m/h.</desc>
<speed>0.080000</speed>
</trkpt>
<trkpt lat="55.760307" lon="26.039850">
<ele>174.240356</ele>
<time>2010-07-17T17:25:49Z</time>
<desc>lat.=55.760307, lon.=26.039850, Alt.=174.240356m. Speed=0.324000m/h.</desc>
<speed>0.090000</speed>
</trkpt>
<trkpt lat="55.760307" lon="26.039850">
<ele>174.373169</ele>
<time>2010-07-17T17:25:50Z</time>
<desc>lat.=55.760307, lon.=26.039850, Alt.=174.373169m. Speed=0.684000m/h.</desc>
<speed>0.190000</speed>
</trkpt>
<trkpt lat="55.760307" lon="26.039850">
<ele>174.505981</ele>
<time>2010-07-17T17:25:51Z</time>
<desc>lat.=55.760307, lon.=26.039850, Alt.=174.505981m. Speed=0.576000m/h.</desc>
<speed>0.160000</speed>
</trkpt>
<trkpt lat="55.760311" lon="26.039850">
<ele>174.638794</ele>
<time>2010-07-17T17:25:52Z</time>
<desc>lat.=55.760311, lon.=26.039850, Alt.=174.638794m. Speed=0.648000m/h.</desc>
<speed>0.180000</speed>
</trkpt>
<trkpt lat="55.760311" lon="26.039850">
<ele>174.775513</ele>
<time>2010-07-17T17:25:53Z</time>
<desc>lat.=55.760311, lon.=26.039850, Alt.=174.775513m. Speed=0.792000m/h.</desc>
<speed>0.220000</speed>
</trkpt>
<trkpt lat="55.760315" lon="26.039848">
<ele>174.923950</ele>
<time>2010-07-17T17:25:54Z</time>
<desc>lat.=55.760315, lon.=26.039848, Alt.=174.923950m. Speed=0.972000m/h.</desc>
<speed>0.270000</speed>
</trkpt>
<trkpt lat="55.760319" lon="26.039848">
<ele>175.076294</ele>
<time>2010-07-17T17:25:55Z</time>
<desc>lat.=55.760319, lon.=26.039848, Alt.=175.076294m. Speed=1.008000m/h.</desc>
<speed>0.280000</speed>
</trkpt>
<trkpt lat="55.760319" lon="26.039846">
<ele>175.224731</ele>
<time>2010-07-17T17:25:56Z</time>
<desc>lat.=55.760319, lon.=26.039846, Alt.=175.224731m. Speed=0.864000m/h.</desc>
<speed>0.240000</speed>
</trkpt>
<trkpt lat="55.760323" lon="26.039845">
<ele>175.377075</ele>
<time>2010-07-17T17:25:57Z</time>
<desc>lat.=55.760323, lon.=26.039845, Alt.=175.377075m. Speed=1.008000m/h.</desc>
<speed>0.280000</speed>
</trkpt>
<trkpt lat="55.760323" lon="26.039845">
<ele>175.537231</ele>
<time>2010-07-17T17:25:58Z</time>
<desc>lat.=55.760323, lon.=26.039845, Alt.=175.537231m. Speed=0.900000m/h.</desc>
<speed>0.250000</speed>
</trkpt>
<trkpt lat="55.760326" lon="26.039843">
<ele>175.689575</ele>
<time>2010-07-17T17:25:59Z</time>
<desc>lat.=55.760326, lon.=26.039843, Alt.=175.689575m. Speed=0.900000m/h.</desc>
<speed>0.250000</speed>
</trkpt>
<trkpt lat="55.760330" lon="26.039841">
<ele>175.845825</ele>
<time>2010-07-17T17:26:00Z</time>
<desc>lat.=55.760330, lon.=26.039841, Alt.=175.845825m. Speed=1.080000m/h.</desc>
<speed>0.300000</speed>
</trkpt>
<trkpt lat="55.760334" lon="26.039825">
<ele>175.658325</ele>
<time>2010-07-17T17:26:01Z</time>
<desc>lat.=55.760334, lon.=26.039825, Alt.=175.658325m. Speed=1.008000m/h.</desc>
<speed>0.280000</speed>
</trkpt>
<trkpt lat="55.760342" lon="26.039812">
<ele>175.798950</ele>
<time>2010-07-17T17:26:02Z</time>
<desc>lat.=55.760342, lon.=26.039812, Alt.=175.798950m. Speed=1.044000m/h.</desc>
<speed>0.290000</speed>
</trkpt>
<trkpt lat="55.760345" lon="26.039801">
<ele>175.904419</ele>
<time>2010-07-17T17:26:03Z</time>
<desc>lat.=55.760345, lon.=26.039801, Alt.=175.904419m. Speed=0.972000m/h.</desc>
<speed>0.270000</speed>
</trkpt>
<trkpt lat="55.760345" lon="26.039797">
<ele>175.865356</ele>
<time>2010-07-17T17:26:04Z</time>
<desc>lat.=55.760345, lon.=26.039797, Alt.=175.865356m. Speed=0.864000m/h.</desc>
<speed>0.240000</speed>
</trkpt>
<trkpt lat="55.760345" lon="26.039793">
<ele>175.994263</ele>
<time>2010-07-17T17:26:05Z</time>
<desc>lat.=55.760345, lon.=26.039793, Alt.=175.994263m. Speed=0.756000m/h.</desc>
<speed>0.210000</speed>
</trkpt>
<trkpt lat="55.760345" lon="26.039789">
<ele>176.107544</ele>
<time>2010-07-17T17:26:06Z</time>
<desc>lat.=55.760345, lon.=26.039789, Alt.=176.107544m. Speed=0.684000m/h.</desc>
<speed>0.190000</speed>
</trkpt>
<trkpt lat="55.760349" lon="26.039787">
<ele>176.216919</ele>
<time>2010-07-17T17:26:07Z</time>
<desc>lat.=55.760349, lon.=26.039787, Alt.=176.216919m. Speed=0.612000m/h.</desc>
<speed>0.170000</speed>
</trkpt>
<trkpt lat="55.760349" lon="26.039785">
<ele>176.334106</ele>
<time>2010-07-17T17:26:08Z</time>
<desc>lat.=55.760349, lon.=26.039785, Alt.=176.334106m. Speed=0.612000m/h.</desc>
<speed>0.170000</speed>
</trkpt>
<trkpt lat="55.760349" lon="26.039782">
<ele>176.443481</ele>
<time>2010-07-17T17:26:09Z</time>
<desc>lat.=55.760349, lon.=26.039782, Alt.=176.443481m. Speed=0.612000m/h.</desc>
<speed>0.170000</speed>
</trkpt>
<trkpt lat="55.760349" lon="26.039780">
<ele>176.548950</ele>
<time>2010-07-17T17:26:10Z</time>
<desc>lat.=55.760349, lon.=26.039780, Alt.=176.548950m. Speed=0.540000m/h.</desc>
<speed>0.150000</speed>
</trkpt>
<trkpt lat="55.760349" lon="26.039778">
<ele>176.658325</ele>
<time>2010-07-17T17:26:11Z</time>
<desc>lat.=55.760349, lon.=26.039778, Alt.=176.658325m. Speed=0.540000m/h.</desc>
<speed>0.150000</speed>
</trkpt>
<trkpt lat="55.760353" lon="26.039776">
<ele>176.759888</ele>
<time>2010-07-17T17:26:12Z</time>
<desc>lat.=55.760353, lon.=26.039776, Alt.=176.759888m. Speed=0.576000m/h.</desc>
<speed>0.160000</speed>
</trkpt>
<trkpt lat="55.760353" lon="26.039774">
<ele>176.853638</ele>
<time>2010-07-17T17:26:13Z</time>
<desc>lat.=55.760353, lon.=26.039774, Alt.=176.853638m. Speed=0.504000m/h.</desc>
<speed>0.140000</speed>
</trkpt>
<trkpt lat="55.760353" lon="26.039772">
<ele>176.939575</ele>
<time>2010-07-17T17:26:14Z</time>
<desc>lat.=55.760353, lon.=26.039772, Alt.=176.939575m. Speed=0.432000m/h.</desc>
<speed>0.120000</speed>
</trkpt>
<trkpt lat="55.760353" lon="26.039770">
<ele>177.013794</ele>
<time>2010-07-17T17:26:15Z</time>
<desc>lat.=55.760353, lon.=26.039770, Alt.=177.013794m. Speed=0.216000m/h.</desc>
<speed>0.060000</speed>
</trkpt>
<trkpt lat="55.760353" lon="26.039770">
<ele>177.080200</ele>
<time>2010-07-17T17:26:16Z</time>
<desc>lat.=55.760353, lon.=26.039770, Alt.=177.080200m. Speed=0.180000m/h.</desc>
<speed>0.050000</speed>
</trkpt>
<trkpt lat="55.760353" lon="26.039768">
<ele>177.142700</ele>
<time>2010-07-17T17:26:17Z</time>
<desc>lat.=55.760353, lon.=26.039768, Alt.=177.142700m. Speed=0.252000m/h.</desc>
<speed>0.070000</speed>
</trkpt>
<trkpt lat="55.760353" lon="26.039768">
<ele>177.201294</ele>
<time>2010-07-17T17:26:18Z</time>
<desc>lat.=55.760353, lon.=26.039768, Alt.=177.201294m. Speed=0.288000m/h.</desc>
<speed>0.080000</speed>
</trkpt>
<trkpt lat="55.760357" lon="26.039766">
<ele>177.263794</ele>
<time>2010-07-17T17:26:19Z</time>
<desc>lat.=55.760357, lon.=26.039766, Alt.=177.263794m. Speed=0.288000m/h.</desc>
<speed>0.080000</speed>
</trkpt>
<trkpt lat="55.760357" lon="26.039766">
<ele>177.322388</ele>
<time>2010-07-17T17:26:20Z</time>
<desc>lat.=55.760357, lon.=26.039766, Alt.=177.322388m. Speed=0.324000m/h.</desc>
<speed>0.090000</speed>
</trkpt>
<trkpt lat="55.760357" lon="26.039766">
<ele>177.377075</ele>
<time>2010-07-17T17:26:21Z</time>
<desc>lat.=55.760357, lon.=26.039766, Alt.=177.377075m. Speed=0.288000m/h.</desc>
<speed>0.080000</speed>
</trkpt>
<trkpt lat="55.760357" lon="26.039764">
<ele>177.431763</ele>
<time>2010-07-17T17:26:22Z</time>
<desc>lat.=55.760357, lon.=26.039764, Alt.=177.431763m. Speed=0.288000m/h.</desc>
<speed>0.080000</speed>
</trkpt>
<trkpt lat="55.760357" lon="26.039764">
<ele>177.486450</ele>
<time>2010-07-17T17:26:23Z</time>
<desc>lat.=55.760357, lon.=26.039764, Alt.=177.486450m. Speed=0.108000m/h.</desc>
<speed>0.030000</speed>
</trkpt>
<trkpt lat="55.760357" lon="26.039764">
<ele>177.545044</ele>
<time>2010-07-17T17:26:24Z</time>
<desc>lat.=55.760357, lon.=26.039764, Alt.=177.545044m. Speed=0.180000m/h.</desc>
<speed>0.050000</speed>
</trkpt>
<trkpt lat="55.760357" lon="26.039764">
<ele>177.607544</ele>
<time>2010-07-17T17:26:25Z</time>
<desc>lat.=55.760357, lon.=26.039764, Alt.=177.607544m. Speed=0.216000m/h.</desc>
<speed>0.060000</speed>
</trkpt>
<trkpt lat="55.760357" lon="26.039764">
<ele>177.670044</ele>
<time>2010-07-17T17:26:26Z</time>
<desc>lat.=55.760357, lon.=26.039764, Alt.=177.670044m. Speed=0.432000m/h.</desc>
<speed>0.120000</speed>
</trkpt>
<trkpt lat="55.760361" lon="26.039764">
<ele>177.736450</ele>
<time>2010-07-17T17:26:27Z</time>
<desc>lat.=55.760361, lon.=26.039764, Alt.=177.736450m. Speed=0.216000m/h.</desc>
<speed>0.060000</speed>
</trkpt>
<trkpt lat="55.760361" lon="26.039766">
<ele>177.810669</ele>
<time>2010-07-17T17:26:28Z</time>
<desc>lat.=55.760361, lon.=26.039766, Alt.=177.810669m. Speed=0.216000m/h.</desc>
<speed>0.060000</speed>
</trkpt>
<trkpt lat="55.760361" lon="26.039766">
<ele>177.888794</ele>
<time>2010-07-17T17:26:29Z</time>
<desc>lat.=55.760361, lon.=26.039766, Alt.=177.888794m. Speed=0.288000m/h.</desc>
<speed>0.080000</speed>
</trkpt>
<trkpt lat="55.760361" lon="26.039768">
<ele>177.970825</ele>
<time>2010-07-17T17:26:30Z</time>
<desc>lat.=55.760361, lon.=26.039768, Alt.=177.970825m. Speed=0.216000m/h.</desc>
<speed>0.060000</speed>
</trkpt>
<trkpt lat="55.760361" lon="26.039768">
<ele>178.052856</ele>
<time>2010-07-17T17:26:31Z</time>
<desc>lat.=55.760361, lon.=26.039768, Alt.=178.052856m. Speed=0.180000m/h.</desc>
<speed>0.050000</speed>
</trkpt>
<trkpt lat="55.760361" lon="26.039768">
<ele>178.134888</ele>
<time>2010-07-17T17:26:32Z</time>
<desc>lat.=55.760361, lon.=26.039768, Alt.=178.134888m. Speed=0.144000m/h.</desc>
<speed>0.040000</speed>
</trkpt>
<trkpt lat="55.760361" lon="26.039768">
<ele>178.216919</ele>
<time>2010-07-17T17:26:33Z</time>
<desc>lat.=55.760361, lon.=26.039768, Alt.=178.216919m. Speed=0.108000m/h.</desc>
<speed>0.030000</speed>
</trkpt>
<trkpt lat="55.760361" lon="26.039768">
<ele>178.291138</ele>
<time>2010-07-17T17:26:34Z</time>
<desc>lat.=55.760361, lon.=26.039768, Alt.=178.291138m. Speed=0.288000m/h.</desc>
<speed>0.080000</speed>
</trkpt>
<trkpt lat="55.760365" lon="26.039768">
<ele>178.365356</ele>
<time>2010-07-17T17:26:35Z</time>
<desc>lat.=55.760365, lon.=26.039768, Alt.=178.365356m. Speed=0.252000m/h.</desc>
<speed>0.070000</speed>
</trkpt>
<trkpt lat="55.760365" lon="26.039766">
<ele>178.443481</ele>
<time>2010-07-17T17:26:36Z</time>
<desc>lat.=55.760365, lon.=26.039766, Alt.=178.443481m. Speed=0.504000m/h.</desc>
<speed>0.140000</speed>
</trkpt>
<trkpt lat="55.760365" lon="26.039766">
<ele>178.521606</ele>
<time>2010-07-17T17:26:37Z</time>
<desc>lat.=55.760365, lon.=26.039766, Alt.=178.521606m. Speed=0.432000m/h.</desc>
<speed>0.120000</speed>
</trkpt>
<trkpt lat="55.760365" lon="26.039764">
<ele>178.607544</ele>
<time>2010-07-17T17:26:38Z</time>
<desc>lat.=55.760365, lon.=26.039764, Alt.=178.607544m. Speed=0.288000m/h.</desc>
<speed>0.080000</speed>
</trkpt>
<trkpt lat="55.760368" lon="26.039764">
<ele>178.685669</ele>
<time>2010-07-17T17:26:39Z</time>
<desc>lat.=55.760368, lon.=26.039764, Alt.=178.685669m. Speed=0.288000m/h.</desc>
<speed>0.080000</speed>
</trkpt>
<trkpt lat="55.760368" lon="26.039764">
<ele>178.767700</ele>
<time>2010-07-17T17:26:40Z</time>
<desc>lat.=55.760368, lon.=26.039764, Alt.=178.767700m. Speed=0.216000m/h.</desc>
<speed>0.060000</speed>
</trkpt>
<trkpt lat="55.760368" lon="26.039764">
<ele>178.845825</ele>
<time>2010-07-17T17:26:41Z</time>
<desc>lat.=55.760368, lon.=26.039764, Alt.=178.845825m. Speed=0.180000m/h.</desc>
<speed>0.050000</speed>
</trkpt>
<trkpt lat="55.760368" lon="26.039764">
<ele>178.923950</ele>
<time>2010-07-17T17:26:42Z</time>
<desc>lat.=55.760368, lon.=26.039764, Alt.=178.923950m. Speed=0.144000m/h.</desc>
<speed>0.040000</speed>
</trkpt>
<trkpt lat="55.760368" lon="26.039764">
<ele>179.005981</ele>
<time>2010-07-17T17:26:43Z</time>
<desc>lat.=55.760368, lon.=26.039764, Alt.=179.005981m. Speed=0.180000m/h.</desc>
<speed>0.050000</speed>
</trkpt>
<trkpt lat="55.760368" lon="26.039764">
<ele>179.088013</ele>
<time>2010-07-17T17:26:44Z</time>
<desc>lat.=55.760368, lon.=26.039764, Alt.=179.088013m. Speed=0.180000m/h.</desc>
<speed>0.050000</speed>
</trkpt>
<trkpt lat="55.760368" lon="26.039764">
<ele>179.177856</ele>
<time>2010-07-17T17:26:45Z</time>
<desc>lat.=55.760368, lon.=26.039764, Alt.=179.177856m. Speed=0.108000m/h.</desc>
<speed>0.030000</speed>
</trkpt>
<trkpt lat="55.760368" lon="26.039764">
<ele>179.271606</ele>
<time>2010-07-17T17:26:46Z</time>
<desc>lat.=55.760368, lon.=26.039764, Alt.=179.271606m. Speed=0.180000m/h.</desc>
<speed>0.050000</speed>
</trkpt>
<trkpt lat="55.760372" lon="26.039766">
<ele>179.365356</ele>
<time>2010-07-17T17:26:47Z</time>
<desc>lat.=55.760372, lon.=26.039766, Alt.=179.365356m. Speed=0.324000m/h.</desc>
<speed>0.090000</speed>
</trkpt>
<trkpt lat="55.760372" lon="26.039766">
<ele>179.455200</ele>
<time>2010-07-17T17:26:48Z</time>
<desc>lat.=55.760372, lon.=26.039766, Alt.=179.455200m. Speed=0.468000m/h.</desc>
<speed>0.130000</speed>
</trkpt>
<trkpt lat="55.760372" lon="26.039768">
<ele>179.541138</ele>
<time>2010-07-17T17:26:49Z</time>
<desc>lat.=55.760372, lon.=26.039768, Alt.=179.541138m. Speed=0.576000m/h.</desc>
<speed>0.160000</speed>
</trkpt>
<trkpt lat="55.760372" lon="26.039772">
<ele>179.619263</ele>
<time>2010-07-17T17:26:50Z</time>
<desc>lat.=55.760372, lon.=26.039772, Alt.=179.619263m. Speed=0.720000m/h.</desc>
<speed>0.200000</speed>
</trkpt>
<trkpt lat="55.760372" lon="26.039774">
<ele>179.685669</ele>
<time>2010-07-17T17:26:51Z</time>
<desc>lat.=55.760372, lon.=26.039774, Alt.=179.685669m. Speed=0.756000m/h.</desc>
<speed>0.210000</speed>
</trkpt>
<trkpt lat="55.760372" lon="26.039778">
<ele>179.740356</ele>
<time>2010-07-17T17:26:52Z</time>
<desc>lat.=55.760372, lon.=26.039778, Alt.=179.740356m. Speed=0.792000m/h.</desc>
<speed>0.220000</speed>
</trkpt>
<trkpt lat="55.760376" lon="26.039782">
<ele>179.787231</ele>
<time>2010-07-17T17:26:53Z</time>
<desc>lat.=55.760376, lon.=26.039782, Alt.=179.787231m. Speed=0.828000m/h.</desc>
<speed>0.230000</speed>
</trkpt>
<trkpt lat="55.760376" lon="26.039785">
<ele>179.814575</ele>
<time>2010-07-17T17:26:54Z</time>
<desc>lat.=55.760376, lon.=26.039785, Alt.=179.814575m. Speed=0.792000m/h.</desc>
<speed>0.220000</speed>
</trkpt>
<trkpt lat="55.760376" lon="26.039787">
<ele>179.834106</ele>
<time>2010-07-17T17:26:55Z</time>
<desc>lat.=55.760376, lon.=26.039787, Alt.=179.834106m. Speed=0.828000m/h.</desc>
<speed>0.230000</speed>
</trkpt>
<trkpt lat="55.760380" lon="26.039789">
<ele>179.830200</ele>
<time>2010-07-17T17:26:56Z</time>
<desc>lat.=55.760380, lon.=26.039789, Alt.=179.830200m. Speed=0.864000m/h.</desc>
<speed>0.240000</speed>
</trkpt>
<trkpt lat="55.760380" lon="26.039793">
<ele>179.810669</ele>
<time>2010-07-17T17:26:57Z</time>
<desc>lat.=55.760380, lon.=26.039793, Alt.=179.810669m. Speed=0.864000m/h.</desc>
<speed>0.240000</speed>
</trkpt>
<trkpt lat="55.760384" lon="26.039795">
<ele>179.779419</ele>
<time>2010-07-17T17:26:58Z</time>
<desc>lat.=55.760384, lon.=26.039795, Alt.=179.779419m. Speed=0.864000m/h.</desc>
<speed>0.240000</speed>
</trkpt>
<trkpt lat="55.760384" lon="26.039799">
<ele>179.736450</ele>
<time>2010-07-17T17:26:59Z</time>
<desc>lat.=55.760384, lon.=26.039799, Alt.=179.736450m. Speed=0.936000m/h.</desc>
<speed>0.260000</speed>
</trkpt>
<trkpt lat="55.760387" lon="26.039801">
<ele>179.685669</ele>
<time>2010-07-17T17:27:00Z</time>
<desc>lat.=55.760387, lon.=26.039801, Alt.=179.685669m. Speed=0.936000m/h.</desc>
<speed>0.260000</speed>
</trkpt>
<trkpt lat="55.760387" lon="26.039803">
<ele>179.619263</ele>
<time>2010-07-17T17:27:01Z</time>
<desc>lat.=55.760387, lon.=26.039803, Alt.=179.619263m. Speed=0.972000m/h.</desc>
<speed>0.270000</speed>
</trkpt>
<trkpt lat="55.760391" lon="26.039806">
<ele>179.545044</ele>
<time>2010-07-17T17:27:02Z</time>
<desc>lat.=55.760391, lon.=26.039806, Alt.=179.545044m. Speed=0.900000m/h.</desc>
<speed>0.250000</speed>
</trkpt>
<trkpt lat="55.760391" lon="26.039810">
<ele>179.455200</ele>
<time>2010-07-17T17:27:03Z</time>
<desc>lat.=55.760391, lon.=26.039810, Alt.=179.455200m. Speed=0.864000m/h.</desc>
<speed>0.240000</speed>
</trkpt>
<trkpt lat="55.760391" lon="26.039812">
<ele>179.357544</ele>
<time>2010-07-17T17:27:04Z</time>
<desc>lat.=55.760391, lon.=26.039812, Alt.=179.357544m. Speed=0.756000m/h.</desc>
<speed>0.210000</speed>
</trkpt>
<trkpt lat="55.760395" lon="26.039816">
<ele>179.244263</ele>
<time>2010-07-17T17:27:05Z</time>
<desc>lat.=55.760395, lon.=26.039816, Alt.=179.244263m. Speed=0.828000m/h.</desc>
<speed>0.230000</speed>
</trkpt>
<trkpt lat="55.760395" lon="26.039818">
<ele>179.111450</ele>
<time>2010-07-17T17:27:06Z</time>
<desc>lat.=55.760395, lon.=26.039818, Alt.=179.111450m. Speed=0.792000m/h.</desc>
<speed>0.220000</speed>
</trkpt>
<trkpt lat="55.760395" lon="26.039822">
<ele>178.966919</ele>
<time>2010-07-17T17:27:07Z</time>
<desc>lat.=55.760395, lon.=26.039822, Alt.=178.966919m. Speed=0.792000m/h.</desc>
<speed>0.220000</speed>
</trkpt>
<trkpt lat="55.760399" lon="26.039825">
<ele>178.810669</ele>
<time>2010-07-17T17:27:08Z</time>
<desc>lat.=55.760399, lon.=26.039825, Alt.=178.810669m. Speed=0.684000m/h.</desc>
<speed>0.190000</speed>
</trkpt>
<trkpt lat="55.760399" lon="26.039827">
<ele>178.630981</ele>
<time>2010-07-17T17:27:09Z</time>
<desc>lat.=55.760399, lon.=26.039827, Alt.=178.630981m. Speed=0.612000m/h.</desc>
<speed>0.170000</speed>
</trkpt>
<trkpt lat="55.760399" lon="26.039829">
<ele>178.431763</ele>
<time>2010-07-17T17:27:10Z</time>
<desc>lat.=55.760399, lon.=26.039829, Alt.=178.431763m. Speed=0.576000m/h.</desc>
<speed>0.160000</speed>
</trkpt>
<trkpt lat="55.760399" lon="26.039833">
<ele>178.228638</ele>
<time>2010-07-17T17:27:11Z</time>
<desc>lat.=55.760399, lon.=26.039833, Alt.=178.228638m. Speed=0.576000m/h.</desc>
<speed>0.160000</speed>
</trkpt>
<trkpt lat="55.760399" lon="26.039835">
<ele>178.017700</ele>
<time>2010-07-17T17:27:12Z</time>
<desc>lat.=55.760399, lon.=26.039835, Alt.=178.017700m. Speed=0.612000m/h.</desc>
<speed>0.170000</speed>
</trkpt>
<trkpt lat="55.760395" lon="26.039837">
<ele>177.802856</ele>
<time>2010-07-17T17:27:13Z</time>
<desc>lat.=55.760395, lon.=26.039837, Alt.=177.802856m. Speed=0.432000m/h.</desc>
<speed>0.120000</speed>
</trkpt>
<trkpt lat="55.760395" lon="26.039839">
<ele>177.584106</ele>
<time>2010-07-17T17:27:14Z</time>
<desc>lat.=55.760395, lon.=26.039839, Alt.=177.584106m. Speed=0.324000m/h.</desc>
<speed>0.090000</speed>
</trkpt>
<trkpt lat="55.760395" lon="26.039841">
<ele>177.361450</ele>
<time>2010-07-17T17:27:15Z</time>
<desc>lat.=55.760395, lon.=26.039841, Alt.=177.361450m. Speed=0.432000m/h.</desc>
<speed>0.120000</speed>
</trkpt>
<trkpt lat="55.760395" lon="26.039841">
<ele>177.134888</ele>
<time>2010-07-17T17:27:16Z</time>
<desc>lat.=55.760395, lon.=26.039841, Alt.=177.134888m. Speed=0.324000m/h.</desc>
<speed>0.090000</speed>
</trkpt>
<trkpt lat="55.760395" lon="26.039841">
<ele>176.904419</ele>
<time>2010-07-17T17:27:17Z</time>
<desc>lat.=55.760395, lon.=26.039841, Alt.=176.904419m. Speed=0.468000m/h.</desc>
<speed>0.130000</speed>
</trkpt>
<trkpt lat="55.760391" lon="26.039841">
<ele>176.670044</ele>
<time>2010-07-17T17:27:18Z</time>
<desc>lat.=55.760391, lon.=26.039841, Alt.=176.670044m. Speed=0.216000m/h.</desc>
<speed>0.060000</speed>
</trkpt>
<trkpt lat="55.760391" lon="26.039841">
<ele>176.439575</ele>
<time>2010-07-17T17:27:19Z</time>
<desc>lat.=55.760391, lon.=26.039841, Alt.=176.439575m. Speed=0.288000m/h.</desc>
<speed>0.080000</speed>
</trkpt>
<trkpt lat="55.760391" lon="26.039843">
<ele>176.209106</ele>
<time>2010-07-17T17:27:20Z</time>
<desc>lat.=55.760391, lon.=26.039843, Alt.=176.209106m. Speed=0.504000m/h.</desc>
<speed>0.140000</speed>
</trkpt>
<trkpt lat="55.760391" lon="26.039845">
<ele>175.986450</ele>
<time>2010-07-17T17:27:21Z</time>
<desc>lat.=55.760391, lon.=26.039845, Alt.=175.986450m. Speed=0.576000m/h.</desc>
<speed>0.160000</speed>
</trkpt>
<trkpt lat="55.760391" lon="26.039846">
<ele>175.763794</ele>
<time>2010-07-17T17:27:22Z</time>
<desc>lat.=55.760391, lon.=26.039846, Alt.=175.763794m. Speed=0.540000m/h.</desc>
<speed>0.150000</speed>
</trkpt>
<trkpt lat="55.760391" lon="26.039848">
<ele>175.541138</ele>
<time>2010-07-17T17:27:23Z</time>
<desc>lat.=55.760391, lon.=26.039848, Alt.=175.541138m. Speed=0.468000m/h.</desc>
<speed>0.130000</speed>
</trkpt>
<trkpt lat="55.760387" lon="26.039850">
<ele>175.314575</ele>
<time>2010-07-17T17:27:24Z</time>
<desc>lat.=55.760387, lon.=26.039850, Alt.=175.314575m. Speed=0.540000m/h.</desc>
<speed>0.150000</speed>
</trkpt>
<trkpt lat="55.760387" lon="26.039852">
<ele>175.088013</ele>
<time>2010-07-17T17:27:25Z</time>
<desc>lat.=55.760387, lon.=26.039852, Alt.=175.088013m. Speed=0.720000m/h.</desc>
<speed>0.200000</speed>
</trkpt>
<trkpt lat="55.760387" lon="26.039854">
<ele>174.857544</ele>
<time>2010-07-17T17:27:26Z</time>
<desc>lat.=55.760387, lon.=26.039854, Alt.=174.857544m. Speed=0.756000m/h.</desc>
<speed>0.210000</speed>
</trkpt>
<trkpt lat="55.760384" lon="26.039856">
<ele>174.627075</ele>
<time>2010-07-17T17:27:27Z</time>
<desc>lat.=55.760384, lon.=26.039856, Alt.=174.627075m. Speed=0.648000m/h.</desc>
<speed>0.180000</speed>
</trkpt>
<trkpt lat="55.760384" lon="26.039858">
<ele>174.388794</ele>
<time>2010-07-17T17:27:28Z</time>
<desc>lat.=55.760384, lon.=26.039858, Alt.=174.388794m. Speed=0.540000m/h.</desc>
<speed>0.150000</speed>
</trkpt>
<trkpt lat="55.760384" lon="26.039858">
<ele>174.150513</ele>
<time>2010-07-17T17:27:29Z</time>
<desc>lat.=55.760384, lon.=26.039858, Alt.=174.150513m. Speed=0.432000m/h.</desc>
<speed>0.120000</speed>
</trkpt>
<trkpt lat="55.760380" lon="26.039860">
<ele>173.916138</ele>
<time>2010-07-17T17:27:30Z</time>
<desc>lat.=55.760380, lon.=26.039860, Alt.=173.916138m. Speed=0.504000m/h.</desc>
<speed>0.140000</speed>
</trkpt>
<trkpt lat="55.760380" lon="26.039862">
<ele>173.681763</ele>
<time>2010-07-17T17:27:31Z</time>
<desc>lat.=55.760380, lon.=26.039862, Alt.=173.681763m. Speed=0.612000m/h.</desc>
<speed>0.170000</speed>
</trkpt>
<trkpt lat="55.760380" lon="26.039862">
<ele>173.443481</ele>
<time>2010-07-17T17:27:32Z</time>
<desc>lat.=55.760380, lon.=26.039862, Alt.=173.443481m. Speed=0.756000m/h.</desc>
<speed>0.210000</speed>
</trkpt>
<trkpt lat="55.760376" lon="26.039864">
<ele>173.205200</ele>
<time>2010-07-17T17:27:33Z</time>
<desc>lat.=55.760376, lon.=26.039864, Alt.=173.205200m. Speed=0.828000m/h.</desc>
<speed>0.230000</speed>
</trkpt>
<trkpt lat="55.760376" lon="26.039865">
<ele>172.959106</ele>
<time>2010-07-17T17:27:34Z</time>
<desc>lat.=55.760376, lon.=26.039865, Alt.=172.959106m. Speed=0.864000m/h.</desc>
<speed>0.240000</speed>
</trkpt>
<trkpt lat="55.760372" lon="26.039867">
<ele>172.713013</ele>
<time>2010-07-17T17:27:35Z</time>
<desc>lat.=55.760372, lon.=26.039867, Alt.=172.713013m. Speed=0.756000m/h.</desc>
<speed>0.210000</speed>
</trkpt>
<trkpt lat="55.760372" lon="26.039869">
<ele>172.466919</ele>
<time>2010-07-17T17:27:36Z</time>
<desc>lat.=55.760372, lon.=26.039869, Alt.=172.466919m. Speed=0.720000m/h.</desc>
<speed>0.200000</speed>
</trkpt>
<trkpt lat="55.760368" lon="26.039871">
<ele>172.216919</ele>
<time>2010-07-17T17:27:37Z</time>
<desc>lat.=55.760368, lon.=26.039871, Alt.=172.216919m. Speed=0.864000m/h.</desc>
<speed>0.240000</speed>
</trkpt>
<trkpt lat="55.760368" lon="26.039873">
<ele>171.966919</ele>
<time>2010-07-17T17:27:38Z</time>
<desc>lat.=55.760368, lon.=26.039873, Alt.=171.966919m. Speed=0.684000m/h.</desc>
<speed>0.190000</speed>
</trkpt>
<trkpt lat="55.760365" lon="26.039875">
<ele>171.720825</ele>
<time>2010-07-17T17:27:39Z</time>
<desc>lat.=55.760365, lon.=26.039875, Alt.=171.720825m. Speed=0.648000m/h.</desc>
<speed>0.180000</speed>
</trkpt>
<trkpt lat="55.760365" lon="26.039875">
<ele>171.463013</ele>
<time>2010-07-17T17:27:40Z</time>
<desc>lat.=55.760365, lon.=26.039875, Alt.=171.463013m. Speed=0.792000m/h.</desc>
<speed>0.220000</speed>
</trkpt>
<trkpt lat="55.760361" lon="26.039875">
<ele>171.209106</ele>
<time>2010-07-17T17:27:41Z</time>
<desc>lat.=55.760361, lon.=26.039875, Alt.=171.209106m. Speed=0.828000m/h.</desc>
<speed>0.230000</speed>
</trkpt>
<trkpt lat="55.760361" lon="26.039877">
<ele>170.963013</ele>
<time>2010-07-17T17:27:42Z</time>
<desc>lat.=55.760361, lon.=26.039877, Alt.=170.963013m. Speed=0.720000m/h.</desc>
<speed>0.200000</speed>
</trkpt>
<trkpt lat="55.760357" lon="26.039877">
<ele>170.724731</ele>
<time>2010-07-17T17:27:43Z</time>
<desc>lat.=55.760357, lon.=26.039877, Alt.=170.724731m. Speed=0.900000m/h.</desc>
<speed>0.250000</speed>
</trkpt>
<trkpt lat="55.760357" lon="26.039879">
<ele>170.478638</ele>
<time>2010-07-17T17:27:44Z</time>
<desc>lat.=55.760357, lon.=26.039879, Alt.=170.478638m. Speed=1.044000m/h.</desc>
<speed>0.290000</speed>
</trkpt>
<trkpt lat="55.760353" lon="26.039881">
<ele>170.240356</ele>
<time>2010-07-17T17:27:45Z</time>
<desc>lat.=55.760353, lon.=26.039881, Alt.=170.240356m. Speed=1.080000m/h.</desc>
<speed>0.300000</speed>
</trkpt>
<trkpt lat="55.760353" lon="26.039883">
<ele>169.693481</ele>
<time>2010-07-17T17:27:46Z</time>
<desc>lat.=55.760353, lon.=26.039883, Alt.=169.693481m. Speed=0.900000m/h.</desc>
<speed>0.250000</speed>
</trkpt>
<trkpt lat="55.760353" lon="26.039885">
<ele>169.263794</ele>
<time>2010-07-17T17:27:47Z</time>
<desc>lat.=55.760353, lon.=26.039885, Alt.=169.263794m. Speed=0.684000m/h.</desc>
<speed>0.190000</speed>
</trkpt>
<trkpt lat="55.760357" lon="26.039886">
<ele>169.209106</ele>
<time>2010-07-17T17:27:48Z</time>
<desc>lat.=55.760357, lon.=26.039886, Alt.=169.209106m. Speed=0.540000m/h.</desc>
<speed>0.150000</speed>
</trkpt>
<trkpt lat="55.760345" lon="26.039898">
<ele>168.560669</ele>
<time>2010-07-17T17:27:49Z</time>
<desc>lat.=55.760345, lon.=26.039898, Alt.=168.560669m. Speed=0.684000m/h.</desc>
<speed>0.190000</speed>
</trkpt>
<trkpt lat="55.760342" lon="26.039900">
<ele>168.298950</ele>
<time>2010-07-17T17:27:50Z</time>
<desc>lat.=55.760342, lon.=26.039900, Alt.=168.298950m. Speed=0.828000m/h.</desc>
<speed>0.230000</speed>
</trkpt>
<trkpt lat="55.760342" lon="26.039900">
<ele>168.017700</ele>
<time>2010-07-17T17:27:51Z</time>
<desc>lat.=55.760342, lon.=26.039900, Alt.=168.017700m. Speed=0.792000m/h.</desc>
<speed>0.220000</speed>
</trkpt>
<trkpt lat="55.760338" lon="26.039902">
<ele>167.732544</ele>
<time>2010-07-17T17:27:52Z</time>
<desc>lat.=55.760338, lon.=26.039902, Alt.=167.732544m. Speed=0.864000m/h.</desc>
<speed>0.240000</speed>
</trkpt>
<trkpt lat="55.760334" lon="26.039902">
<ele>167.447388</ele>
<time>2010-07-17T17:27:53Z</time>
<desc>lat.=55.760334, lon.=26.039902, Alt.=167.447388m. Speed=0.864000m/h.</desc>
<speed>0.240000</speed>
</trkpt>
<trkpt lat="55.760334" lon="26.039900">
<ele>167.154419</ele>
<time>2010-07-17T17:27:54Z</time>
<desc>lat.=55.760334, lon.=26.039900, Alt.=167.154419m. Speed=1.044000m/h.</desc>
<speed>0.290000</speed>
</trkpt>
<trkpt lat="55.760330" lon="26.039900">
<ele>166.869263</ele>
<time>2010-07-17T17:27:55Z</time>
<desc>lat.=55.760330, lon.=26.039900, Alt.=166.869263m. Speed=1.116000m/h.</desc>
<speed>0.310000</speed>
</trkpt>
<trkpt lat="55.760330" lon="26.039898">
<ele>167.541138</ele>
<time>2010-07-17T17:27:56Z</time>
<desc>lat.=55.760330, lon.=26.039898, Alt.=167.541138m. Speed=1.008000m/h.</desc>
<speed>0.280000</speed>
</trkpt>
<trkpt lat="55.760326" lon="26.039894">
<ele>168.209106</ele>
<time>2010-07-17T17:27:57Z</time>
<desc>lat.=55.760326, lon.=26.039894, Alt.=168.209106m. Speed=1.116000m/h.</desc>
<speed>0.310000</speed>
</trkpt>
<trkpt lat="55.760319" lon="26.039892">
<ele>168.291138</ele>
<time>2010-07-17T17:27:58Z</time>
<desc>lat.=55.760319, lon.=26.039892, Alt.=168.291138m. Speed=1.080000m/h.</desc>
<speed>0.300000</speed>
</trkpt>
<trkpt lat="55.760311" lon="26.039888">
<ele>168.138794</ele>
<time>2010-07-17T17:27:59Z</time>
<desc>lat.=55.760311, lon.=26.039888, Alt.=168.138794m. Speed=1.152000m/h.</desc>
<speed>0.320000</speed>
</trkpt>
<trkpt lat="55.760311" lon="26.039894">
<ele>168.404419</ele>
<time>2010-07-17T17:28:00Z</time>
<desc>lat.=55.760311, lon.=26.039894, Alt.=168.404419m. Speed=0.972000m/h.</desc>
<speed>0.270000</speed>
</trkpt>
<trkpt lat="55.760307" lon="26.039892">
<ele>168.314575</ele>
<time>2010-07-17T17:28:01Z</time>
<desc>lat.=55.760307, lon.=26.039892, Alt.=168.314575m. Speed=0.828000m/h.</desc>
<speed>0.230000</speed>
</trkpt>
<trkpt lat="55.760303" lon="26.039888">
<ele>168.646606</ele>
<time>2010-07-17T17:28:02Z</time>
<desc>lat.=55.760303, lon.=26.039888, Alt.=168.646606m. Speed=0.864000m/h.</desc>
<speed>0.240000</speed>
</trkpt>
<trkpt lat="55.760303" lon="26.039892">
<ele>168.798950</ele>
<time>2010-07-17T17:28:03Z</time>
<desc>lat.=55.760303, lon.=26.039892, Alt.=168.798950m. Speed=0.648000m/h.</desc>
<speed>0.180000</speed>
</trkpt>
<trkpt lat="55.760300" lon="26.039892">
<ele>168.599731</ele>
<time>2010-07-17T17:28:04Z</time>
<desc>lat.=55.760300, lon.=26.039892, Alt.=168.599731m. Speed=0.684000m/h.</desc>
<speed>0.190000</speed>
</trkpt>
<trkpt lat="55.760300" lon="26.039892">
<ele>168.412231</ele>
<time>2010-07-17T17:28:05Z</time>
<desc>lat.=55.760300, lon.=26.039892, Alt.=168.412231m. Speed=0.684000m/h.</desc>
<speed>0.190000</speed>
</trkpt>
<trkpt lat="55.760300" lon="26.039890">
<ele>168.232544</ele>
<time>2010-07-17T17:28:06Z</time>
<desc>lat.=55.760300, lon.=26.039890, Alt.=168.232544m. Speed=0.864000m/h.</desc>
<speed>0.240000</speed>
</trkpt>
<trkpt lat="55.760296" lon="26.039888">
<ele>168.072388</ele>
<time>2010-07-17T17:28:07Z</time>
<desc>lat.=55.760296, lon.=26.039888, Alt.=168.072388m. Speed=0.828000m/h.</desc>
<speed>0.230000</speed>
</trkpt>
<trkpt lat="55.760296" lon="26.039886">
<ele>167.916138</ele>
<time>2010-07-17T17:28:08Z</time>
<desc>lat.=55.760296, lon.=26.039886, Alt.=167.916138m. Speed=0.900000m/h.</desc>
<speed>0.250000</speed>
</trkpt>
<trkpt lat="55.760292" lon="26.039883">
<ele>167.771606</ele>
<time>2010-07-17T17:28:09Z</time>
<desc>lat.=55.760292, lon.=26.039883, Alt.=167.771606m. Speed=0.972000m/h.</desc>
<speed>0.270000</speed>
</trkpt>
<trkpt lat="55.760292" lon="26.039881">
<ele>167.642700</ele>
<time>2010-07-17T17:28:10Z</time>
<desc>lat.=55.760292, lon.=26.039881, Alt.=167.642700m. Speed=0.972000m/h.</desc>
<speed>0.270000</speed>
</trkpt>
<trkpt lat="55.760288" lon="26.039879">
<ele>167.521606</ele>
<time>2010-07-17T17:28:11Z</time>
<desc>lat.=55.760288, lon.=26.039879, Alt.=167.521606m. Speed=0.972000m/h.</desc>
<speed>0.270000</speed>
</trkpt>
<trkpt lat="55.760288" lon="26.039875">
<ele>167.408325</ele>
<time>2010-07-17T17:28:12Z</time>
<desc>lat.=55.760288, lon.=26.039875, Alt.=167.408325m. Speed=0.684000m/h.</desc>
<speed>0.190000</speed>
</trkpt>
<trkpt lat="55.760284" lon="26.039875">
<ele>167.302856</ele>
<time>2010-07-17T17:28:13Z</time>
<desc>lat.=55.760284, lon.=26.039875, Alt.=167.302856m. Speed=0.648000m/h.</desc>
<speed>0.180000</speed>
</trkpt>
<trkpt lat="55.760284" lon="26.039873">
<ele>167.201294</ele>
<time>2010-07-17T17:28:14Z</time>
<desc>lat.=55.760284, lon.=26.039873, Alt.=167.201294m. Speed=0.540000m/h.</desc>
<speed>0.150000</speed>
</trkpt>
<trkpt lat="55.760281" lon="26.039871">
<ele>167.107544</ele>
<time>2010-07-17T17:28:15Z</time>
<desc>lat.=55.760281, lon.=26.039871, Alt.=167.107544m. Speed=0.504000m/h.</desc>
<speed>0.140000</speed>
</trkpt>
<trkpt lat="55.760281" lon="26.039871">
<ele>167.021606</ele>
<time>2010-07-17T17:28:16Z</time>
<desc>lat.=55.760281, lon.=26.039871, Alt.=167.021606m. Speed=0.288000m/h.</desc>
<speed>0.080000</speed>
</trkpt>
<trkpt lat="55.760281" lon="26.039871">
<ele>166.939575</ele>
<time>2010-07-17T17:28:17Z</time>
<desc>lat.=55.760281, lon.=26.039871, Alt.=166.939575m. Speed=0.180000m/h.</desc>
<speed>0.050000</speed>
</trkpt>
<trkpt lat="55.760281" lon="26.039871">
<ele>166.861450</ele>
<time>2010-07-17T17:28:18Z</time>
<desc>lat.=55.760281, lon.=26.039871, Alt.=166.861450m. Speed=0.180000m/h.</desc>
<speed>0.050000</speed>
</trkpt>
<trkpt lat="55.760281" lon="26.039871">
<ele>166.787231</ele>
<time>2010-07-17T17:28:19Z</time>
<desc>lat.=55.760281, lon.=26.039871, Alt.=166.787231m. Speed=0.468000m/h.</desc>
<speed>0.130000</speed>
</trkpt>
<trkpt lat="55.760281" lon="26.039873">
<ele>166.709106</ele>
<time>2010-07-17T17:28:20Z</time>
<desc>lat.=55.760281, lon.=26.039873, Alt.=166.709106m. Speed=0.648000m/h.</desc>
<speed>0.180000</speed>
</trkpt>
<trkpt lat="55.760281" lon="26.039877">
<ele>166.642700</ele>
<time>2010-07-17T17:28:21Z</time>
<desc>lat.=55.760281, lon.=26.039877, Alt.=166.642700m. Speed=0.756000m/h.</desc>
<speed>0.210000</speed>
</trkpt>
<trkpt lat="55.760281" lon="26.039881">
<ele>166.588013</ele>
<time>2010-07-17T17:28:22Z</time>
<desc>lat.=55.760281, lon.=26.039881, Alt.=166.588013m. Speed=0.684000m/h.</desc>
<speed>0.190000</speed>
</trkpt>
<trkpt lat="55.760281" lon="26.039885">
<ele>166.564575</ele>
<time>2010-07-17T17:28:23Z</time>
<desc>lat.=55.760281, lon.=26.039885, Alt.=166.564575m. Speed=0.720000m/h.</desc>
<speed>0.200000</speed>
</trkpt>
<trkpt lat="55.760281" lon="26.039886">
<ele>166.548950</ele>
<time>2010-07-17T17:28:24Z</time>
<desc>lat.=55.760281, lon.=26.039886, Alt.=166.548950m. Speed=0.936000m/h.</desc>
<speed>0.260000</speed>
</trkpt>
<trkpt lat="55.760281" lon="26.039890">
<ele>166.548950</ele>
<time>2010-07-17T17:28:25Z</time>
<desc>lat.=55.760281, lon.=26.039890, Alt.=166.548950m. Speed=0.972000m/h.</desc>
<speed>0.270000</speed>
</trkpt>
<trkpt lat="55.760277" lon="26.039896">
<ele>166.545044</ele>
<time>2010-07-17T17:28:26Z</time>
<desc>lat.=55.760277, lon.=26.039896, Alt.=166.545044m. Speed=1.008000m/h.</desc>
<speed>0.280000</speed>
</trkpt>
<trkpt lat="55.760277" lon="26.039900">
<ele>166.564575</ele>
<time>2010-07-17T17:28:27Z</time>
<desc>lat.=55.760277, lon.=26.039900, Alt.=166.564575m. Speed=0.828000m/h.</desc>
<speed>0.230000</speed>
</trkpt>
<trkpt lat="55.760277" lon="26.039904">
<ele>166.588013</ele>
<time>2010-07-17T17:28:28Z</time>
<desc>lat.=55.760277, lon.=26.039904, Alt.=166.588013m. Speed=0.612000m/h.</desc>
<speed>0.170000</speed>
</trkpt>
<trkpt lat="55.760277" lon="26.039906">
<ele>166.630981</ele>
<time>2010-07-17T17:28:29Z</time>
<desc>lat.=55.760277, lon.=26.039906, Alt.=166.630981m. Speed=0.576000m/h.</desc>
<speed>0.160000</speed>
</trkpt>
<trkpt lat="55.760277" lon="26.039907">
<ele>166.677856</ele>
<time>2010-07-17T17:28:30Z</time>
<desc>lat.=55.760277, lon.=26.039907, Alt.=166.677856m. Speed=0.468000m/h.</desc>
<speed>0.130000</speed>
</trkpt>
<trkpt lat="55.760273" lon="26.039909">
<ele>166.720825</ele>
<time>2010-07-17T17:28:31Z</time>
<desc>lat.=55.760273, lon.=26.039909, Alt.=166.720825m. Speed=0.396000m/h.</desc>
<speed>0.110000</speed>
</trkpt>
<trkpt lat="55.760273" lon="26.039911">
<ele>166.775513</ele>
<time>2010-07-17T17:28:32Z</time>
<desc>lat.=55.760273, lon.=26.039911, Alt.=166.775513m. Speed=0.432000m/h.</desc>
<speed>0.120000</speed>
</trkpt>
<trkpt lat="55.760273" lon="26.039913">
<ele>166.818481</ele>
<time>2010-07-17T17:28:33Z</time>
<desc>lat.=55.760273, lon.=26.039913, Alt.=166.818481m. Speed=0.432000m/h.</desc>
<speed>0.120000</speed>
</trkpt>
<trkpt lat="55.760273" lon="26.039915">
<ele>166.861450</ele>
<time>2010-07-17T17:28:34Z</time>
<desc>lat.=55.760273, lon.=26.039915, Alt.=166.861450m. Speed=0.468000m/h.</desc>
<speed>0.130000</speed>
</trkpt>
<trkpt lat="55.760273" lon="26.039917">
<ele>166.912231</ele>
<time>2010-07-17T17:28:35Z</time>
<desc>lat.=55.760273, lon.=26.039917, Alt.=166.912231m. Speed=0.360000m/h.</desc>
<speed>0.100000</speed>
</trkpt>
<trkpt lat="55.760273" lon="26.039919">
<ele>166.974731</ele>
<time>2010-07-17T17:28:36Z</time>
<desc>lat.=55.760273, lon.=26.039919, Alt.=166.974731m. Speed=0.324000m/h.</desc>
<speed>0.090000</speed>
</trkpt>
<trkpt lat="55.760273" lon="26.039921">
<ele>167.025513</ele>
<time>2010-07-17T17:28:37Z</time>
<desc>lat.=55.760273, lon.=26.039921, Alt.=167.025513m. Speed=0.144000m/h.</desc>
<speed>0.040000</speed>
</trkpt>
<trkpt lat="55.760273" lon="26.039921">
<ele>167.076294</ele>
<time>2010-07-17T17:28:38Z</time>
<desc>lat.=55.760273, lon.=26.039921, Alt.=167.076294m. Speed=0.288000m/h.</desc>
<speed>0.080000</speed>
</trkpt>
<trkpt lat="55.760273" lon="26.039923">
<ele>167.119263</ele>
<time>2010-07-17T17:28:39Z</time>
<desc>lat.=55.760273, lon.=26.039923, Alt.=167.119263m. Speed=0.360000m/h.</desc>
<speed>0.100000</speed>
</trkpt>
<trkpt lat="55.760273" lon="26.039925">
<ele>167.162231</ele>
<time>2010-07-17T17:28:40Z</time>
<desc>lat.=55.760273, lon.=26.039925, Alt.=167.162231m. Speed=0.432000m/h.</desc>
<speed>0.120000</speed>
</trkpt>
<trkpt lat="55.760273" lon="26.039927">
<ele>167.216919</ele>
<time>2010-07-17T17:28:41Z</time>
<desc>lat.=55.760273, lon.=26.039927, Alt.=167.216919m. Speed=0.684000m/h.</desc>
<speed>0.190000</speed>
</trkpt>
<trkpt lat="55.760273" lon="26.039928">
<ele>167.279419</ele>
<time>2010-07-17T17:28:42Z</time>
<desc>lat.=55.760273, lon.=26.039928, Alt.=167.279419m. Speed=0.576000m/h.</desc>
<speed>0.160000</speed>
</trkpt>
<trkpt lat="55.760277" lon="26.039930">
<ele>167.349731</ele>
<time>2010-07-17T17:28:43Z</time>
<desc>lat.=55.760277, lon.=26.039930, Alt.=167.349731m. Speed=0.576000m/h.</desc>
<speed>0.160000</speed>
</trkpt>
<trkpt lat="55.760277" lon="26.039930">
<ele>167.420044</ele>
<time>2010-07-17T17:28:44Z</time>
<desc>lat.=55.760277, lon.=26.039930, Alt.=167.420044m. Speed=0.468000m/h.</desc>
<speed>0.130000</speed>
</trkpt>
<trkpt lat="55.760277" lon="26.039932">
<ele>167.486450</ele>
<time>2010-07-17T17:28:45Z</time>
<desc>lat.=55.760277, lon.=26.039932, Alt.=167.486450m. Speed=0.540000m/h.</desc>
<speed>0.150000</speed>
</trkpt>
<trkpt lat="55.760281" lon="26.039934">
<ele>167.556763</ele>
<time>2010-07-17T17:28:46Z</time>
<desc>lat.=55.760281, lon.=26.039934, Alt.=167.556763m. Speed=0.684000m/h.</desc>
<speed>0.190000</speed>
</trkpt>
<trkpt lat="55.760281" lon="26.039936">
<ele>167.627075</ele>
<time>2010-07-17T17:28:47Z</time>
<desc>lat.=55.760281, lon.=26.039936, Alt.=167.627075m. Speed=0.504000m/h.</desc>
<speed>0.140000</speed>
</trkpt>
<trkpt lat="55.760281" lon="26.039938">
<ele>167.689575</ele>
<time>2010-07-17T17:28:48Z</time>
<desc>lat.=55.760281, lon.=26.039938, Alt.=167.689575m. Speed=0.432000m/h.</desc>
<speed>0.120000</speed>
</trkpt>
<trkpt lat="55.760284" lon="26.039938">
<ele>167.748169</ele>
<time>2010-07-17T17:28:49Z</time>
<desc>lat.=55.760284, lon.=26.039938, Alt.=167.748169m. Speed=0.540000m/h.</desc>
<speed>0.150000</speed>
</trkpt>
<trkpt lat="55.760284" lon="26.039938">
<ele>167.814575</ele>
<time>2010-07-17T17:28:50Z</time>
<desc>lat.=55.760284, lon.=26.039938, Alt.=167.814575m. Speed=0.684000m/h.</desc>
<speed>0.190000</speed>
</trkpt>
<trkpt lat="55.760288" lon="26.039938">
<ele>167.888794</ele>
<time>2010-07-17T17:28:51Z</time>
<desc>lat.=55.760288, lon.=26.039938, Alt.=167.888794m. Speed=0.684000m/h.</desc>
<speed>0.190000</speed>
</trkpt>
<trkpt lat="55.760288" lon="26.039938">
<ele>167.959106</ele>
<time>2010-07-17T17:28:52Z</time>
<desc>lat.=55.760288, lon.=26.039938, Alt.=167.959106m. Speed=0.684000m/h.</desc>
<speed>0.190000</speed>
</trkpt>
<trkpt lat="55.760292" lon="26.039938">
<ele>168.037231</ele>
<time>2010-07-17T17:28:53Z</time>
<desc>lat.=55.760292, lon.=26.039938, Alt.=168.037231m. Speed=0.864000m/h.</desc>
<speed>0.240000</speed>
</trkpt>
<trkpt lat="55.760292" lon="26.039938">
<ele>168.130981</ele>
<time>2010-07-17T17:28:54Z</time>
<desc>lat.=55.760292, lon.=26.039938, Alt.=168.130981m. Speed=0.936000m/h.</desc>
<speed>0.260000</speed>
</trkpt>
<trkpt lat="55.760296" lon="26.039936">
<ele>168.240356</ele>
<time>2010-07-17T17:28:55Z</time>
<desc>lat.=55.760296, lon.=26.039936, Alt.=168.240356m. Speed=1.008000m/h.</desc>
<speed>0.280000</speed>
</trkpt>
<trkpt lat="55.760300" lon="26.039934">
<ele>168.349731</ele>
<time>2010-07-17T17:28:56Z</time>
<desc>lat.=55.760300, lon.=26.039934, Alt.=168.349731m. Speed=1.152000m/h.</desc>
<speed>0.320000</speed>
</trkpt>
<trkpt lat="55.760315" lon="26.039930">
<ele>169.361450</ele>
<time>2010-07-17T17:28:57Z</time>
<desc>lat.=55.760315, lon.=26.039930, Alt.=169.361450m. Speed=1.188000m/h.</desc>
<speed>0.330000</speed>
</trkpt>
<trkpt lat="55.760326" lon="26.039921">
<ele>170.630981</ele>
<time>2010-07-17T17:28:58Z</time>
<desc>lat.=55.760326, lon.=26.039921, Alt.=170.630981m. Speed=1.152000m/h.</desc>
<speed>0.320000</speed>
</trkpt>
<trkpt lat="55.760338" lon="26.039917">
<ele>171.607544</ele>
<time>2010-07-17T17:28:59Z</time>
<desc>lat.=55.760338, lon.=26.039917, Alt.=171.607544m. Speed=1.116000m/h.</desc>
<speed>0.310000</speed>
</trkpt>
<trkpt lat="55.760345" lon="26.039913">
<ele>172.232544</ele>
<time>2010-07-17T17:29:00Z</time>
<desc>lat.=55.760345, lon.=26.039913, Alt.=172.232544m. Speed=0.936000m/h.</desc>
<speed>0.260000</speed>
</trkpt>
<trkpt lat="55.760353" lon="26.039904">
<ele>172.990356</ele>
<time>2010-07-17T17:29:01Z</time>
<desc>lat.=55.760353, lon.=26.039904, Alt.=172.990356m. Speed=0.900000m/h.</desc>
<speed>0.250000</speed>
</trkpt>
<trkpt lat="55.760365" lon="26.039890">
<ele>173.685669</ele>
<time>2010-07-17T17:29:02Z</time>
<desc>lat.=55.760365, lon.=26.039890, Alt.=173.685669m. Speed=1.152000m/h.</desc>
<speed>0.320000</speed>
</trkpt>
<trkpt lat="55.760372" lon="26.039883">
<ele>173.939575</ele>
<time>2010-07-17T17:29:03Z</time>
<desc>lat.=55.760372, lon.=26.039883, Alt.=173.939575m. Speed=1.224000m/h.</desc>
<speed>0.340000</speed>
</trkpt>
<trkpt lat="55.760380" lon="26.039879">
<ele>174.400513</ele>
<time>2010-07-17T17:29:04Z</time>
<desc>lat.=55.760380, lon.=26.039879, Alt.=174.400513m. Speed=1.404000m/h.</desc>
<speed>0.390000</speed>
</trkpt>
<trkpt lat="55.760387" lon="26.039877">
<ele>174.892700</ele>
<time>2010-07-17T17:29:05Z</time>
<desc>lat.=55.760387, lon.=26.039877, Alt.=174.892700m. Speed=1.404000m/h.</desc>
<speed>0.390000</speed>
</trkpt>
<trkpt lat="55.760399" lon="26.039877">
<ele>175.525513</ele>
<time>2010-07-17T17:29:06Z</time>
<desc>lat.=55.760399, lon.=26.039877, Alt.=175.525513m. Speed=1.512000m/h.</desc>
<speed>0.420000</speed>
</trkpt>
<trkpt lat="55.760403" lon="26.039871">
<ele>176.228638</ele>
<time>2010-07-17T17:29:07Z</time>
<desc>lat.=55.760403, lon.=26.039871, Alt.=176.228638m. Speed=1.584000m/h.</desc>
<speed>0.440000</speed>
</trkpt>
<trkpt lat="55.760410" lon="26.039871">
<ele>176.759888</ele>
<time>2010-07-17T17:29:08Z</time>
<desc>lat.=55.760410, lon.=26.039871, Alt.=176.759888m. Speed=1.620000m/h.</desc>
<speed>0.450000</speed>
</trkpt>
<trkpt lat="55.760422" lon="26.039875">
<ele>177.498169</ele>
<time>2010-07-17T17:29:09Z</time>
<desc>lat.=55.760422, lon.=26.039875, Alt.=177.498169m. Speed=1.512000m/h.</desc>
<speed>0.420000</speed>
</trkpt>
<trkpt lat="55.760429" lon="26.039879">
<ele>178.505981</ele>
<time>2010-07-17T17:29:10Z</time>
<desc>lat.=55.760429, lon.=26.039879, Alt.=178.505981m. Speed=1.476000m/h.</desc>
<speed>0.410000</speed>
</trkpt>
<trkpt lat="55.760441" lon="26.039885">
<ele>179.556763</ele>
<time>2010-07-17T17:29:11Z</time>
<desc>lat.=55.760441, lon.=26.039885, Alt.=179.556763m. Speed=1.332000m/h.</desc>
<speed>0.370000</speed>
</trkpt>
<trkpt lat="55.760445" lon="26.039886">
<ele>179.963013</ele>
<time>2010-07-17T17:29:12Z</time>
<desc>lat.=55.760445, lon.=26.039886, Alt.=179.963013m. Speed=1.260000m/h.</desc>
<speed>0.350000</speed>
</trkpt>
<trkpt lat="55.760448" lon="26.039885">
<ele>180.107544</ele>
<time>2010-07-17T17:29:13Z</time>
<desc>lat.=55.760448, lon.=26.039885, Alt.=180.107544m. Speed=1.260000m/h.</desc>
<speed>0.350000</speed>
</trkpt>
<trkpt lat="55.760452" lon="26.039892">
<ele>180.494263</ele>
<time>2010-07-17T17:29:14Z</time>
<desc>lat.=55.760452, lon.=26.039892, Alt.=180.494263m. Speed=1.044000m/h.</desc>
<speed>0.290000</speed>
</trkpt>
<trkpt lat="55.760456" lon="26.039898">
<ele>180.685669</ele>
<time>2010-07-17T17:29:15Z</time>
<desc>lat.=55.760456, lon.=26.039898, Alt.=180.685669m. Speed=0.972000m/h.</desc>
<speed>0.270000</speed>
</trkpt>
<trkpt lat="55.760460" lon="26.039898">
<ele>180.459106</ele>
<time>2010-07-17T17:29:16Z</time>
<desc>lat.=55.760460, lon.=26.039898, Alt.=180.459106m. Speed=0.972000m/h.</desc>
<speed>0.270000</speed>
</trkpt>
<trkpt lat="55.760464" lon="26.039904">
<ele>180.607544</ele>
<time>2010-07-17T17:29:17Z</time>
<desc>lat.=55.760464, lon.=26.039904, Alt.=180.607544m. Speed=0.900000m/h.</desc>
<speed>0.250000</speed>
</trkpt>
<trkpt lat="55.760464" lon="26.039902">
<ele>180.841919</ele>
<time>2010-07-17T17:29:18Z</time>
<desc>lat.=55.760464, lon.=26.039902, Alt.=180.841919m. Speed=0.720000m/h.</desc>
<speed>0.200000</speed>
</trkpt>
<trkpt lat="55.760468" lon="26.039902">
<ele>181.076294</ele>
<time>2010-07-17T17:29:19Z</time>
<desc>lat.=55.760468, lon.=26.039902, Alt.=181.076294m. Speed=0.756000m/h.</desc>
<speed>0.210000</speed>
</trkpt>
<trkpt lat="55.760468" lon="26.039900">
<ele>181.306763</ele>
<time>2010-07-17T17:29:20Z</time>
<desc>lat.=55.760468, lon.=26.039900, Alt.=181.306763m. Speed=0.612000m/h.</desc>
<speed>0.170000</speed>
</trkpt>
<trkpt lat="55.760471" lon="26.039900">
<ele>181.525513</ele>
<time>2010-07-17T17:29:21Z</time>
<desc>lat.=55.760471, lon.=26.039900, Alt.=181.525513m. Speed=0.720000m/h.</desc>
<speed>0.200000</speed>
</trkpt>
<trkpt lat="55.760471" lon="26.039898">
<ele>181.744263</ele>
<time>2010-07-17T17:29:22Z</time>
<desc>lat.=55.760471, lon.=26.039898, Alt.=181.744263m. Speed=0.648000m/h.</desc>
<speed>0.180000</speed>
</trkpt>
<trkpt lat="55.760475" lon="26.039898">
<ele>181.955200</ele>
<time>2010-07-17T17:29:23Z</time>
<desc>lat.=55.760475, lon.=26.039898, Alt.=181.955200m. Speed=0.432000m/h.</desc>
<speed>0.120000</speed>
</trkpt>
<trkpt lat="55.760475" lon="26.039898">
<ele>182.154419</ele>
<time>2010-07-17T17:29:24Z</time>
<desc>lat.=55.760475, lon.=26.039898, Alt.=182.154419m. Speed=0.324000m/h.</desc>
<speed>0.090000</speed>
</trkpt>
<trkpt lat="55.760475" lon="26.039898">
<ele>182.353638</ele>
<time>2010-07-17T17:29:25Z</time>
<desc>lat.=55.760475, lon.=26.039898, Alt.=182.353638m. Speed=0.396000m/h.</desc>
<speed>0.110000</speed>
</trkpt>
<trkpt lat="55.760475" lon="26.039898">
<ele>182.537231</ele>
<time>2010-07-17T17:29:26Z</time>
<desc>lat.=55.760475, lon.=26.039898, Alt.=182.537231m. Speed=0.468000m/h.</desc>
<speed>0.130000</speed>
</trkpt>
<trkpt lat="55.760475" lon="26.039896">
<ele>182.709106</ele>
<time>2010-07-17T17:29:27Z</time>
<desc>lat.=55.760475, lon.=26.039896, Alt.=182.709106m. Speed=0.432000m/h.</desc>
<speed>0.120000</speed>
</trkpt>
<trkpt lat="55.760479" lon="26.039896">
<ele>182.869263</ele>
<time>2010-07-17T17:29:28Z</time>
<desc>lat.=55.760479, lon.=26.039896, Alt.=182.869263m. Speed=0.504000m/h.</desc>
<speed>0.140000</speed>
</trkpt>
<trkpt lat="55.760479" lon="26.039896">
<ele>183.017700</ele>
<time>2010-07-17T17:29:29Z</time>
<desc>lat.=55.760479, lon.=26.039896, Alt.=183.017700m. Speed=0.288000m/h.</desc>
<speed>0.080000</speed>
</trkpt>
<trkpt lat="55.760479" lon="26.039896">
<ele>183.154419</ele>
<time>2010-07-17T17:29:30Z</time>
<desc>lat.=55.760479, lon.=26.039896, Alt.=183.154419m. Speed=0.180000m/h.</desc>
<speed>0.050000</speed>
</trkpt>
<trkpt lat="55.760479" lon="26.039898">
<ele>183.271606</ele>
<time>2010-07-17T17:29:31Z</time>
<desc>lat.=55.760479, lon.=26.039898, Alt.=183.271606m. Speed=0.288000m/h.</desc>
<speed>0.080000</speed>
</trkpt>
<trkpt lat="55.760479" lon="26.039900">
<ele>183.369263</ele>
<time>2010-07-17T17:29:32Z</time>
<desc>lat.=55.760479, lon.=26.039900, Alt.=183.369263m. Speed=0.288000m/h.</desc>
<speed>0.080000</speed>
</trkpt>
<trkpt lat="55.760479" lon="26.039900">
<ele>183.447388</ele>
<time>2010-07-17T17:29:33Z</time>
<desc>lat.=55.760479, lon.=26.039900, Alt.=183.447388m. Speed=0.252000m/h.</desc>
<speed>0.070000</speed>
</trkpt>
<trkpt lat="55.760479" lon="26.039902">
<ele>183.498169</ele>
<time>2010-07-17T17:29:34Z</time>
<desc>lat.=55.760479, lon.=26.039902, Alt.=183.498169m. Speed=0.288000m/h.</desc>
<speed>0.080000</speed>
</trkpt>
<trkpt lat="55.760479" lon="26.039904">
<ele>183.533325</ele>
<time>2010-07-17T17:29:35Z</time>
<desc>lat.=55.760479, lon.=26.039904, Alt.=183.533325m. Speed=0.540000m/h.</desc>
<speed>0.150000</speed>
</trkpt>
<trkpt lat="55.760479" lon="26.039906">
<ele>183.556763</ele>
<time>2010-07-17T17:29:36Z</time>
<desc>lat.=55.760479, lon.=26.039906, Alt.=183.556763m. Speed=0.792000m/h.</desc>
<speed>0.220000</speed>
</trkpt>
<trkpt lat="55.760479" lon="26.039909">
<ele>183.552856</ele>
<time>2010-07-17T17:29:37Z</time>
<desc>lat.=55.760479, lon.=26.039909, Alt.=183.552856m. Speed=0.972000m/h.</desc>
<speed>0.270000</speed>
</trkpt>
<trkpt lat="55.760475" lon="26.039913">
<ele>183.533325</ele>
<time>2010-07-17T17:29:38Z</time>
<desc>lat.=55.760475, lon.=26.039913, Alt.=183.533325m. Speed=1.116000m/h.</desc>
<speed>0.310000</speed>
</trkpt>
<trkpt lat="55.760464" lon="26.039932">
<ele>182.857544</ele>
<time>2010-07-17T17:29:39Z</time>
<desc>lat.=55.760464, lon.=26.039932, Alt.=182.857544m. Speed=1.404000m/h.</desc>
<speed>0.390000</speed>
</trkpt>
<trkpt lat="55.760456" lon="26.039953">
<ele>182.052856</ele>
<time>2010-07-17T17:29:40Z</time>
<desc>lat.=55.760456, lon.=26.039953, Alt.=182.052856m. Speed=1.404000m/h.</desc>
<speed>0.390000</speed>
</trkpt>
<trkpt lat="55.760445" lon="26.039974">
<ele>181.115356</ele>
<time>2010-07-17T17:29:41Z</time>
<desc>lat.=55.760445, lon.=26.039974, Alt.=181.115356m. Speed=1.476000m/h.</desc>
<speed>0.410000</speed>
</trkpt>
<trkpt lat="55.760441" lon="26.039989">
<ele>180.318481</ele>
<time>2010-07-17T17:29:42Z</time>
<desc>lat.=55.760441, lon.=26.039989, Alt.=180.318481m. Speed=1.404000m/h.</desc>
<speed>0.390000</speed>
</trkpt>
<trkpt lat="55.760433" lon="26.040001">
<ele>179.732544</ele>
<time>2010-07-17T17:29:43Z</time>
<desc>lat.=55.760433, lon.=26.040001, Alt.=179.732544m. Speed=1.368000m/h.</desc>
<speed>0.380000</speed>
</trkpt>
<trkpt lat="55.760426" lon="26.040010">
<ele>178.994263</ele>
<time>2010-07-17T17:29:44Z</time>
<desc>lat.=55.760426, lon.=26.040010, Alt.=178.994263m. Speed=1.296000m/h.</desc>
<speed>0.360000</speed>
</trkpt>
<trkpt lat="55.760422" lon="26.040014">
<ele>178.099731</ele>
<time>2010-07-17T17:29:45Z</time>
<desc>lat.=55.760422, lon.=26.040014, Alt.=178.099731m. Speed=1.332000m/h.</desc>
<speed>0.370000</speed>
</trkpt>
<trkpt lat="55.760418" lon="26.040026">
<ele>177.431763</ele>
<time>2010-07-17T17:29:46Z</time>
<desc>lat.=55.760418, lon.=26.040026, Alt.=177.431763m. Speed=1.260000m/h.</desc>
<speed>0.350000</speed>
</trkpt>
<trkpt lat="55.760414" lon="26.040035">
<ele>176.857544</ele>
<time>2010-07-17T17:29:47Z</time>
<desc>lat.=55.760414, lon.=26.040035, Alt.=176.857544m. Speed=1.188000m/h.</desc>
<speed>0.330000</speed>
</trkpt>
<trkpt lat="55.760406" lon="26.040031">
<ele>176.150513</ele>
<time>2010-07-17T17:29:48Z</time>
<desc>lat.=55.760406, lon.=26.040031, Alt.=176.150513m. Speed=1.008000m/h.</desc>
<speed>0.280000</speed>
</trkpt>
<trkpt lat="55.760403" lon="26.040026">
<ele>175.541138</ele>
<time>2010-07-17T17:29:49Z</time>
<desc>lat.=55.760403, lon.=26.040026, Alt.=175.541138m. Speed=0.900000m/h.</desc>
<speed>0.250000</speed>
</trkpt>
<trkpt lat="55.760395" lon="26.040043">
<ele>174.752075</ele>
<time>2010-07-17T17:29:50Z</time>
<desc>lat.=55.760395, lon.=26.040043, Alt.=174.752075m. Speed=0.900000m/h.</desc>
<speed>0.250000</speed>
</trkpt>
<trkpt lat="55.760391" lon="26.040043">
<ele>174.443481</ele>
<time>2010-07-17T17:29:51Z</time>
<desc>lat.=55.760391, lon.=26.040043, Alt.=174.443481m. Speed=0.648000m/h.</desc>
<speed>0.180000</speed>
</trkpt>
<trkpt lat="55.760391" lon="26.040043">
<ele>174.322388</ele>
<time>2010-07-17T17:29:52Z</time>
<desc>lat.=55.760391, lon.=26.040043, Alt.=174.322388m. Speed=0.468000m/h.</desc>
<speed>0.130000</speed>
</trkpt>
<trkpt lat="55.760391" lon="26.040045">
<ele>174.201294</ele>
<time>2010-07-17T17:29:53Z</time>
<desc>lat.=55.760391, lon.=26.040045, Alt.=174.201294m. Speed=0.540000m/h.</desc>
<speed>0.150000</speed>
</trkpt>
<trkpt lat="55.760387" lon="26.040045">
<ele>174.076294</ele>
<time>2010-07-17T17:29:54Z</time>
<desc>lat.=55.760387, lon.=26.040045, Alt.=174.076294m. Speed=0.360000m/h.</desc>
<speed>0.100000</speed>
</trkpt>
<trkpt lat="55.760387" lon="26.040045">
<ele>173.951294</ele>
<time>2010-07-17T17:29:55Z</time>
<desc>lat.=55.760387, lon.=26.040045, Alt.=173.951294m. Speed=0.360000m/h.</desc>
<speed>0.100000</speed>
</trkpt>
<trkpt lat="55.760387" lon="26.040045">
<ele>173.822388</ele>
<time>2010-07-17T17:29:56Z</time>
<desc>lat.=55.760387, lon.=26.040045, Alt.=173.822388m. Speed=0.360000m/h.</desc>
<speed>0.100000</speed>
</trkpt>
<trkpt lat="55.760387" lon="26.040045">
<ele>173.693481</ele>
<time>2010-07-17T17:29:57Z</time>
<desc>lat.=55.760387, lon.=26.040045, Alt.=173.693481m. Speed=0.252000m/h.</desc>
<speed>0.070000</speed>
</trkpt>
<trkpt lat="55.760384" lon="26.040043">
<ele>173.568481</ele>
<time>2010-07-17T17:29:58Z</time>
<desc>lat.=55.760384, lon.=26.040043, Alt.=173.568481m. Speed=0.216000m/h.</desc>
<speed>0.060000</speed>
</trkpt>
<trkpt lat="55.760384" lon="26.040043">
<ele>173.435669</ele>
<time>2010-07-17T17:29:59Z</time>
<desc>lat.=55.760384, lon.=26.040043, Alt.=173.435669m. Speed=0.216000m/h.</desc>
<speed>0.060000</speed>
</trkpt>
<trkpt lat="55.760384" lon="26.040043">
<ele>173.302856</ele>
<time>2010-07-17T17:30:00Z</time>
<desc>lat.=55.760384, lon.=26.040043, Alt.=173.302856m. Speed=0.252000m/h.</desc>
<speed>0.070000</speed>
</trkpt>
<trkpt lat="55.760384" lon="26.040043">
<ele>173.170044</ele>
<time>2010-07-17T17:30:01Z</time>
<desc>lat.=55.760384, lon.=26.040043, Alt.=173.170044m. Speed=0.396000m/h.</desc>
<speed>0.110000</speed>
</trkpt>
<trkpt lat="55.760384" lon="26.040041">
<ele>173.041138</ele>
<time>2010-07-17T17:30:02Z</time>
<desc>lat.=55.760384, lon.=26.040041, Alt.=173.041138m. Speed=0.468000m/h.</desc>
<speed>0.130000</speed>
</trkpt>
<trkpt lat="55.760380" lon="26.040041">
<ele>172.916138</ele>
<time>2010-07-17T17:30:03Z</time>
<desc>lat.=55.760380, lon.=26.040041, Alt.=172.916138m. Speed=0.468000m/h.</desc>
<speed>0.130000</speed>
</trkpt>
<trkpt lat="55.760380" lon="26.040041">
<ele>172.787231</ele>
<time>2010-07-17T17:30:04Z</time>
<desc>lat.=55.760380, lon.=26.040041, Alt.=172.787231m. Speed=0.576000m/h.</desc>
<speed>0.160000</speed>
</trkpt>
<trkpt lat="55.760380" lon="26.040039">
<ele>172.670044</ele>
<time>2010-07-17T17:30:05Z</time>
<desc>lat.=55.760380, lon.=26.040039, Alt.=172.670044m. Speed=0.648000m/h.</desc>
<speed>0.180000</speed>
</trkpt>
<trkpt lat="55.760376" lon="26.040039">
<ele>172.552856</ele>
<time>2010-07-17T17:30:06Z</time>
<desc>lat.=55.760376, lon.=26.040039, Alt.=172.552856m. Speed=0.684000m/h.</desc>
<speed>0.190000</speed>
</trkpt>
<trkpt lat="55.760376" lon="26.040037">
<ele>172.423950</ele>
<time>2010-07-17T17:30:07Z</time>
<desc>lat.=55.760376, lon.=26.040037, Alt.=172.423950m. Speed=0.828000m/h.</desc>
<speed>0.230000</speed>
</trkpt>
<trkpt lat="55.760372" lon="26.040035">
<ele>172.318481</ele>
<time>2010-07-17T17:30:08Z</time>
<desc>lat.=55.760372, lon.=26.040035, Alt.=172.318481m. Speed=0.900000m/h.</desc>
<speed>0.250000</speed>
</trkpt>
<trkpt lat="55.760372" lon="26.040031">
<ele>172.244263</ele>
<time>2010-07-17T17:30:09Z</time>
<desc>lat.=55.760372, lon.=26.040031, Alt.=172.244263m. Speed=0.828000m/h.</desc>
<speed>0.230000</speed>
</trkpt>
<trkpt lat="55.760372" lon="26.040028">
<ele>172.181763</ele>
<time>2010-07-17T17:30:10Z</time>
<desc>lat.=55.760372, lon.=26.040028, Alt.=172.181763m. Speed=0.936000m/h.</desc>
<speed>0.260000</speed>
</trkpt>
<trkpt lat="55.760368" lon="26.040024">
<ele>172.115356</ele>
<time>2010-07-17T17:30:11Z</time>
<desc>lat.=55.760368, lon.=26.040024, Alt.=172.115356m. Speed=1.476000m/h.</desc>
<speed>0.410000</speed>
</trkpt>
<trkpt lat="55.760368" lon="26.040001">
<ele>172.318481</ele>
<time>2010-07-17T17:30:12Z</time>
<desc>lat.=55.760368, lon.=26.040001, Alt.=172.318481m. Speed=1.656000m/h.</desc>
<speed>0.460000</speed>
</trkpt>
<trkpt lat="55.760368" lon="26.039968">
<ele>172.673950</ele>
<time>2010-07-17T17:30:13Z</time>
<desc>lat.=55.760368, lon.=26.039968, Alt.=172.673950m. Speed=1.836000m/h.</desc>
<speed>0.510000</speed>
</trkpt>
<trkpt lat="55.760376" lon="26.039963">
<ele>173.056763</ele>
<time>2010-07-17T17:30:14Z</time>
<desc>lat.=55.760376, lon.=26.039963, Alt.=173.056763m. Speed=1.332000m/h.</desc>
<speed>0.370000</speed>
</trkpt>
<trkpt lat="55.760372" lon="26.039940">
<ele>172.806763</ele>
<time>2010-07-17T17:30:15Z</time>
<desc>lat.=55.760372, lon.=26.039940, Alt.=172.806763m. Speed=1.080000m/h.</desc>
<speed>0.300000</speed>
</trkpt>
<trkpt lat="55.760372" lon="26.039932">
<ele>172.759888</ele>
<time>2010-07-17T17:30:16Z</time>
<desc>lat.=55.760372, lon.=26.039932, Alt.=172.759888m. Speed=1.260000m/h.</desc>
<speed>0.350000</speed>
</trkpt>
<trkpt lat="55.760372" lon="26.039925">
<ele>172.689575</ele>
<time>2010-07-17T17:30:17Z</time>
<desc>lat.=55.760372, lon.=26.039925, Alt.=172.689575m. Speed=1.188000m/h.</desc>
<speed>0.330000</speed>
</trkpt>
<trkpt lat="55.760372" lon="26.039909">
<ele>172.658325</ele>
<time>2010-07-17T17:30:18Z</time>
<desc>lat.=55.760372, lon.=26.039909, Alt.=172.658325m. Speed=1.152000m/h.</desc>
<speed>0.320000</speed>
</trkpt>
<trkpt lat="55.760372" lon="26.039888">
<ele>172.748169</ele>
<time>2010-07-17T17:30:19Z</time>
<desc>lat.=55.760372, lon.=26.039888, Alt.=172.748169m. Speed=1.188000m/h.</desc>
<speed>0.330000</speed>
</trkpt>
<trkpt lat="55.760368" lon="26.039865">
<ele>172.713013</ele>
<time>2010-07-17T17:30:20Z</time>
<desc>lat.=55.760368, lon.=26.039865, Alt.=172.713013m. Speed=1.404000m/h.</desc>
<speed>0.390000</speed>
</trkpt>
<trkpt lat="55.760368" lon="26.039856">
<ele>172.736450</ele>
<time>2010-07-17T17:30:21Z</time>
<desc>lat.=55.760368, lon.=26.039856, Alt.=172.736450m. Speed=1.260000m/h.</desc>
<speed>0.350000</speed>
</trkpt>
<trkpt lat="55.760368" lon="26.039841">
<ele>172.787231</ele>
<time>2010-07-17T17:30:22Z</time>
<desc>lat.=55.760368, lon.=26.039841, Alt.=172.787231m. Speed=1.368000m/h.</desc>
<speed>0.380000</speed>
</trkpt>
<trkpt lat="55.760361" lon="26.039822">
<ele>171.845825</ele>
<time>2010-07-17T17:30:23Z</time>
<desc>lat.=55.760361, lon.=26.039822, Alt.=171.845825m. Speed=1.512000m/h.</desc>
<speed>0.420000</speed>
</trkpt>
<trkpt lat="55.760361" lon="26.039785">
<ele>170.591919</ele>
<time>2010-07-17T17:30:24Z</time>
<desc>lat.=55.760361, lon.=26.039785, Alt.=170.591919m. Speed=1.692000m/h.</desc>
<speed>0.470000</speed>
</trkpt>
<trkpt lat="55.760361" lon="26.039764">
<ele>170.213013</ele>
<time>2010-07-17T17:30:25Z</time>
<desc>lat.=55.760361, lon.=26.039764, Alt.=170.213013m. Speed=1.692000m/h.</desc>
<speed>0.470000</speed>
</trkpt>
<trkpt lat="55.760357" lon="26.039757">
<ele>170.236450</ele>
<time>2010-07-17T17:30:26Z</time>
<desc>lat.=55.760357, lon.=26.039757, Alt.=170.236450m. Speed=1.332000m/h.</desc>
<speed>0.370000</speed>
</trkpt>
<trkpt lat="55.760357" lon="26.039753">
<ele>170.134888</ele>
<time>2010-07-17T17:30:27Z</time>
<desc>lat.=55.760357, lon.=26.039753, Alt.=170.134888m. Speed=1.116000m/h.</desc>
<speed>0.310000</speed>
</trkpt>
<trkpt lat="55.760357" lon="26.039747">
<ele>170.115356</ele>
<time>2010-07-17T17:30:28Z</time>
<desc>lat.=55.760357, lon.=26.039747, Alt.=170.115356m. Speed=1.080000m/h.</desc>
<speed>0.300000</speed>
</trkpt>
<trkpt lat="55.760353" lon="26.039740">
<ele>170.076294</ele>
<time>2010-07-17T17:30:29Z</time>
<desc>lat.=55.760353, lon.=26.039740, Alt.=170.076294m. Speed=1.116000m/h.</desc>
<speed>0.310000</speed>
</trkpt>
<trkpt lat="55.760353" lon="26.039726">
<ele>170.380981</ele>
<time>2010-07-17T17:30:30Z</time>
<desc>lat.=55.760353, lon.=26.039726, Alt.=170.380981m. Speed=1.044000m/h.</desc>
<speed>0.290000</speed>
</trkpt>
<trkpt lat="55.760353" lon="26.039721">
<ele>170.533325</ele>
<time>2010-07-17T17:30:31Z</time>
<desc>lat.=55.760353, lon.=26.039721, Alt.=170.533325m. Speed=1.008000m/h.</desc>
<speed>0.280000</speed>
</trkpt>
<trkpt lat="55.760353" lon="26.039717">
<ele>170.498169</ele>
<time>2010-07-17T17:30:32Z</time>
<desc>lat.=55.760353, lon.=26.039717, Alt.=170.498169m. Speed=0.936000m/h.</desc>
<speed>0.260000</speed>
</trkpt>
<trkpt lat="55.760345" lon="26.039713">
<ele>170.392700</ele>
<time>2010-07-17T17:30:33Z</time>
<desc>lat.=55.760345, lon.=26.039713, Alt.=170.392700m. Speed=1.044000m/h.</desc>
<speed>0.290000</speed>
</trkpt>
<trkpt lat="55.760345" lon="26.039709">
<ele>170.322388</ele>
<time>2010-07-17T17:30:34Z</time>
<desc>lat.=55.760345, lon.=26.039709, Alt.=170.322388m. Speed=1.116000m/h.</desc>
<speed>0.310000</speed>
</trkpt>
<trkpt lat="55.760319" lon="26.039726">
<ele>169.400513</ele>
<time>2010-07-17T17:30:35Z</time>
<desc>lat.=55.760319, lon.=26.039726, Alt.=169.400513m. Speed=1.476000m/h.</desc>
<speed>0.410000</speed>
</trkpt>
<trkpt lat="55.760311" lon="26.039740">
<ele>169.002075</ele>
<time>2010-07-17T17:30:36Z</time>
<desc>lat.=55.760311, lon.=26.039740, Alt.=169.002075m. Speed=1.584000m/h.</desc>
<speed>0.440000</speed>
</trkpt>
<trkpt lat="55.760307" lon="26.039749">
<ele>168.732544</ele>
<time>2010-07-17T17:30:37Z</time>
<desc>lat.=55.760307, lon.=26.039749, Alt.=168.732544m. Speed=1.368000m/h.</desc>
<speed>0.380000</speed>
</trkpt>
<trkpt lat="55.760307" lon="26.039755">
<ele>168.443481</ele>
<time>2010-07-17T17:30:38Z</time>
<desc>lat.=55.760307, lon.=26.039755, Alt.=168.443481m. Speed=1.116000m/h.</desc>
<speed>0.310000</speed>
</trkpt>
<trkpt lat="55.760303" lon="26.039797">
<ele>168.439575</ele>
<time>2010-07-17T17:30:39Z</time>
<desc>lat.=55.760303, lon.=26.039797, Alt.=168.439575m. Speed=1.152000m/h.</desc>
<speed>0.320000</speed>
</trkpt>
<trkpt lat="55.760296" lon="26.039829">
<ele>168.298950</ele>
<time>2010-07-17T17:30:40Z</time>
<desc>lat.=55.760296, lon.=26.039829, Alt.=168.298950m. Speed=1.152000m/h.</desc>
<speed>0.320000</speed>
</trkpt>
<trkpt lat="55.760288" lon="26.039850">
<ele>167.951294</ele>
<time>2010-07-17T17:30:41Z</time>
<desc>lat.=55.760288, lon.=26.039850, Alt.=167.951294m. Speed=1.296000m/h.</desc>
<speed>0.360000</speed>
</trkpt>
<trkpt lat="55.760277" lon="26.039856">
<ele>167.732544</ele>
<time>2010-07-17T17:30:42Z</time>
<desc>lat.=55.760277, lon.=26.039856, Alt.=167.732544m. Speed=1.404000m/h.</desc>
<speed>0.390000</speed>
</trkpt>
<trkpt lat="55.760269" lon="26.039862">
<ele>167.545044</ele>
<time>2010-07-17T17:30:43Z</time>
<desc>lat.=55.760269, lon.=26.039862, Alt.=167.545044m. Speed=1.476000m/h.</desc>
<speed>0.410000</speed>
</trkpt>
<trkpt lat="55.760258" lon="26.039865">
<ele>167.271606</ele>
<time>2010-07-17T17:30:44Z</time>
<desc>lat.=55.760258, lon.=26.039865, Alt.=167.271606m. Speed=1.548000m/h.</desc>
<speed>0.430000</speed>
</trkpt>
<trkpt lat="55.760250" lon="26.039873">
<ele>167.068481</ele>
<time>2010-07-17T17:30:45Z</time>
<desc>lat.=55.760250, lon.=26.039873, Alt.=167.068481m. Speed=1.692000m/h.</desc>
<speed>0.470000</speed>
</trkpt>
<trkpt lat="55.760239" lon="26.039875">
<ele>166.759888</ele>
<time>2010-07-17T17:30:46Z</time>
<desc>lat.=55.760239, lon.=26.039875, Alt.=166.759888m. Speed=1.728000m/h.</desc>
<speed>0.480000</speed>
</trkpt>
<trkpt lat="55.760235" lon="26.039883">
<ele>166.642700</ele>
<time>2010-07-17T17:30:47Z</time>
<desc>lat.=55.760235, lon.=26.039883, Alt.=166.642700m. Speed=1.692000m/h.</desc>
<speed>0.470000</speed>
</trkpt>
<trkpt lat="55.760227" lon="26.039896">
<ele>166.541138</ele>
<time>2010-07-17T17:30:48Z</time>
<desc>lat.=55.760227, lon.=26.039896, Alt.=166.541138m. Speed=1.692000m/h.</desc>
<speed>0.470000</speed>
</trkpt>
<trkpt lat="55.760223" lon="26.039900">
<ele>166.470825</ele>
<time>2010-07-17T17:30:49Z</time>
<desc>lat.=55.760223, lon.=26.039900, Alt.=166.470825m. Speed=1.368000m/h.</desc>
<speed>0.380000</speed>
</trkpt>
<trkpt lat="55.760220" lon="26.039900">
<ele>166.357544</ele>
<time>2010-07-17T17:30:50Z</time>
<desc>lat.=55.760220, lon.=26.039900, Alt.=166.357544m. Speed=1.404000m/h.</desc>
<speed>0.390000</speed>
</trkpt>
<trkpt lat="55.760216" lon="26.039900">
<ele>166.357544</ele>
<time>2010-07-17T17:30:51Z</time>
<desc>lat.=55.760216, lon.=26.039900, Alt.=166.357544m. Speed=1.368000m/h.</desc>
<speed>0.380000</speed>
</trkpt>
<trkpt lat="55.760208" lon="26.039883">
<ele>166.474731</ele>
<time>2010-07-17T17:30:52Z</time>
<desc>lat.=55.760208, lon.=26.039883, Alt.=166.474731m. Speed=1.620000m/h.</desc>
<speed>0.450000</speed>
</trkpt>
<trkpt lat="55.760197" lon="26.039858">
<ele>166.736450</ele>
<time>2010-07-17T17:30:53Z</time>
<desc>lat.=55.760197, lon.=26.039858, Alt.=166.736450m. Speed=2.268000m/h.</desc>
<speed>0.630000</speed>
</trkpt>
<trkpt lat="55.760189" lon="26.039854">
<ele>166.728638</ele>
<time>2010-07-17T17:30:54Z</time>
<desc>lat.=55.760189, lon.=26.039854, Alt.=166.728638m. Speed=2.052000m/h.</desc>
<speed>0.570000</speed>
</trkpt>
<trkpt lat="55.760181" lon="26.039841">
<ele>166.923950</ele>
<time>2010-07-17T17:30:55Z</time>
<desc>lat.=55.760181, lon.=26.039841, Alt.=166.923950m. Speed=2.376000m/h.</desc>
<speed>0.660000</speed>
</trkpt>
<trkpt lat="55.760181" lon="26.039829">
<ele>167.099731</ele>
<time>2010-07-17T17:30:56Z</time>
<desc>lat.=55.760181, lon.=26.039829, Alt.=167.099731m. Speed=2.268000m/h.</desc>
<speed>0.630000</speed>
</trkpt>
<trkpt lat="55.760174" lon="26.039812">
<ele>167.263794</ele>
<time>2010-07-17T17:30:57Z</time>
<desc>lat.=55.760174, lon.=26.039812, Alt.=167.263794m. Speed=3.204000m/h.</desc>
<speed>0.890000</speed>
</trkpt>
<trkpt lat="55.760162" lon="26.039785">
<ele>167.295044</ele>
<time>2010-07-17T17:30:58Z</time>
<desc>lat.=55.760162, lon.=26.039785, Alt.=167.295044m. Speed=4.428000m/h.</desc>
<speed>1.230000</speed>
</trkpt>
<trkpt lat="55.760155" lon="26.039764">
<ele>167.076294</ele>
<time>2010-07-17T17:30:59Z</time>
<desc>lat.=55.760155, lon.=26.039764, Alt.=167.076294m. Speed=5.148000m/h.</desc>
<speed>1.430000</speed>
</trkpt>
<trkpt lat="55.760143" lon="26.039738">
<ele>167.099731</ele>
<time>2010-07-17T17:31:00Z</time>
<desc>lat.=55.760143, lon.=26.039738, Alt.=167.099731m. Speed=7.416000m/h.</desc>
<speed>2.060000</speed>
</trkpt>
<trkpt lat="55.760105" lon="26.039688">
<ele>166.560669</ele>
<time>2010-07-17T17:31:01Z</time>
<desc>lat.=55.760105, lon.=26.039688, Alt.=166.560669m. Speed=8.964000m/h.</desc>
<speed>2.490000</speed>
</trkpt>
<trkpt lat="55.760071" lon="26.039660">
<ele>166.076294</ele>
<time>2010-07-17T17:31:02Z</time>
<desc>lat.=55.760071, lon.=26.039660, Alt.=166.076294m. Speed=10.512000m/h.</desc>
<speed>2.920000</speed>
</trkpt>
<trkpt lat="55.760044" lon="26.039635">
<ele>166.338013</ele>
<time>2010-07-17T17:31:03Z</time>
<desc>lat.=55.760044, lon.=26.039635, Alt.=166.338013m. Speed=9.396000m/h.</desc>
<speed>2.610000</speed>
</trkpt>
<trkpt lat="55.760006" lon="26.039591">
<ele>166.224731</ele>
<time>2010-07-17T17:31:04Z</time>
<desc>lat.=55.760006, lon.=26.039591, Alt.=166.224731m. Speed=9.288000m/h.</desc>
<speed>2.580000</speed>
</trkpt>
<trkpt lat="55.759972" lon="26.039568">
<ele>165.748169</ele>
<time>2010-07-17T17:31:05Z</time>
<desc>lat.=55.759972, lon.=26.039568, Alt.=165.748169m. Speed=10.260000m/h.</desc>
<speed>2.850000</speed>
</trkpt>
<trkpt lat="55.759941" lon="26.039549">
<ele>165.603638</ele>
<time>2010-07-17T17:31:06Z</time>
<desc>lat.=55.759941, lon.=26.039549, Alt.=165.603638m. Speed=9.000000m/h.</desc>
<speed>2.500000</speed>
</trkpt>
<trkpt lat="55.759922" lon="26.039528">
<ele>165.384888</ele>
<time>2010-07-17T17:31:07Z</time>
<desc>lat.=55.759922, lon.=26.039528, Alt.=165.384888m. Speed=6.984000m/h.</desc>
<speed>1.940000</speed>
</trkpt>
<trkpt lat="55.759903" lon="26.039511">
<ele>165.533325</ele>
<time>2010-07-17T17:31:08Z</time>
<desc>lat.=55.759903, lon.=26.039511, Alt.=165.533325m. Speed=6.660000m/h.</desc>
<speed>1.850000</speed>
</trkpt>
<trkpt lat="55.759880" lon="26.039492">
<ele>165.670044</ele>
<time>2010-07-17T17:31:09Z</time>
<desc>lat.=55.759880, lon.=26.039492, Alt.=165.670044m. Speed=7.092000m/h.</desc>
<speed>1.970000</speed>
</trkpt>
<trkpt lat="55.759853" lon="26.039486">
<ele>165.947388</ele>
<time>2010-07-17T17:31:10Z</time>
<desc>lat.=55.759853, lon.=26.039486, Alt.=165.947388m. Speed=9.216000m/h.</desc>
<speed>2.560000</speed>
</trkpt>
<trkpt lat="55.759811" lon="26.039499">
<ele>166.869263</ele>
<time>2010-07-17T17:31:11Z</time>
<desc>lat.=55.759811, lon.=26.039499, Alt.=166.869263m. Speed=10.044000m/h.</desc>
<speed>2.790000</speed>
</trkpt>
<trkpt lat="55.759785" lon="26.039509">
<ele>167.345825</ele>
<time>2010-07-17T17:31:12Z</time>
<desc>lat.=55.759785, lon.=26.039509, Alt.=167.345825m. Speed=6.660000m/h.</desc>
<speed>1.850000</speed>
</trkpt>
<trkpt lat="55.759762" lon="26.039516">
<ele>167.158325</ele>
<time>2010-07-17T17:31:13Z</time>
<desc>lat.=55.759762, lon.=26.039516, Alt.=167.158325m. Speed=8.028000m/h.</desc>
<speed>2.230000</speed>
</trkpt>
<trkpt lat="55.759739" lon="26.039536">
<ele>167.103638</ele>
<time>2010-07-17T17:31:14Z</time>
<desc>lat.=55.759739, lon.=26.039536, Alt.=167.103638m. Speed=7.272000m/h.</desc>
<speed>2.020000</speed>
</trkpt>
<trkpt lat="55.759720" lon="26.039560">
<ele>166.994263</ele>
<time>2010-07-17T17:31:15Z</time>
<desc>lat.=55.759720, lon.=26.039560, Alt.=166.994263m. Speed=8.748000m/h.</desc>
<speed>2.430000</speed>
</trkpt>
<trkpt lat="55.759693" lon="26.039591">
<ele>166.701294</ele>
<time>2010-07-17T17:31:16Z</time>
<desc>lat.=55.759693, lon.=26.039591, Alt.=166.701294m. Speed=8.712000m/h.</desc>
<speed>2.420000</speed>
</trkpt>
<trkpt lat="55.759651" lon="26.039627">
<ele>168.127075</ele>
<time>2010-07-17T17:31:17Z</time>
<desc>lat.=55.759651, lon.=26.039627, Alt.=168.127075m. Speed=9.900000m/h.</desc>
<speed>2.750000</speed>
</trkpt>
<trkpt lat="55.759621" lon="26.039661">
<ele>167.447388</ele>
<time>2010-07-17T17:31:18Z</time>
<desc>lat.=55.759621, lon.=26.039661, Alt.=167.447388m. Speed=8.568000m/h.</desc>
<speed>2.380000</speed>
</trkpt>
<trkpt lat="55.759586" lon="26.039701">
<ele>165.931763</ele>
<time>2010-07-17T17:31:19Z</time>
<desc>lat.=55.759586, lon.=26.039701, Alt.=165.931763m. Speed=8.532000m/h.</desc>
<speed>2.370000</speed>
</trkpt>
<trkpt lat="55.759560" lon="26.039734">
<ele>165.755981</ele>
<time>2010-07-17T17:31:20Z</time>
<desc>lat.=55.759560, lon.=26.039734, Alt.=165.755981m. Speed=9.288000m/h.</desc>
<speed>2.580000</speed>
</trkpt>
<trkpt lat="55.759529" lon="26.039780">
<ele>165.564575</ele>
<time>2010-07-17T17:31:21Z</time>
<desc>lat.=55.759529, lon.=26.039780, Alt.=165.564575m. Speed=8.928000m/h.</desc>
<speed>2.480000</speed>
</trkpt>
<trkpt lat="55.759502" lon="26.039801">
<ele>166.709106</ele>
<time>2010-07-17T17:31:22Z</time>
<desc>lat.=55.759502, lon.=26.039801, Alt.=166.709106m. Speed=5.760000m/h.</desc>
<speed>1.600000</speed>
</trkpt>
<trkpt lat="55.759487" lon="26.039814">
<ele>166.361450</ele>
<time>2010-07-17T17:31:23Z</time>
<desc>lat.=55.759487, lon.=26.039814, Alt.=166.361450m. Speed=3.780000m/h.</desc>
<speed>1.050000</speed>
</trkpt>
<trkpt lat="55.759468" lon="26.039818">
<ele>167.064575</ele>
<time>2010-07-17T17:31:24Z</time>
<desc>lat.=55.759468, lon.=26.039818, Alt.=167.064575m. Speed=6.408000m/h.</desc>
<speed>1.780000</speed>
</trkpt>
<trkpt lat="55.759449" lon="26.039814">
<ele>167.228638</ele>
<time>2010-07-17T17:31:25Z</time>
<desc>lat.=55.759449, lon.=26.039814, Alt.=167.228638m. Speed=7.452000m/h.</desc>
<speed>2.070000</speed>
</trkpt>
<trkpt lat="55.759418" lon="26.039801">
<ele>167.177856</ele>
<time>2010-07-17T17:31:26Z</time>
<desc>lat.=55.759418, lon.=26.039801, Alt.=167.177856m. Speed=10.368000m/h.</desc>
<speed>2.880000</speed>
</trkpt>
<trkpt lat="55.759384" lon="26.039789">
<ele>167.318481</ele>
<time>2010-07-17T17:31:27Z</time>
<desc>lat.=55.759384, lon.=26.039789, Alt.=167.318481m. Speed=11.232000m/h.</desc>
<speed>3.120000</speed>
</trkpt>
<trkpt lat="55.759331" lon="26.039783">
<ele>167.271606</ele>
<time>2010-07-17T17:31:28Z</time>
<desc>lat.=55.759331, lon.=26.039783, Alt.=167.271606m. Speed=12.168000m/h.</desc>
<speed>3.380000</speed>
</trkpt>
<trkpt lat="55.759300" lon="26.039772">
<ele>167.271606</ele>
<time>2010-07-17T17:31:29Z</time>
<desc>lat.=55.759300, lon.=26.039772, Alt.=167.271606m. Speed=9.432000m/h.</desc>
<speed>2.620000</speed>
</trkpt>
<trkpt lat="55.759270" lon="26.039759">
<ele>167.002075</ele>
<time>2010-07-17T17:31:30Z</time>
<desc>lat.=55.759270, lon.=26.039759, Alt.=167.002075m. Speed=10.008000m/h.</desc>
<speed>2.780000</speed>
</trkpt>
<trkpt lat="55.759243" lon="26.039753">
<ele>165.959106</ele>
<time>2010-07-17T17:31:31Z</time>
<desc>lat.=55.759243, lon.=26.039753, Alt.=165.959106m. Speed=9.936000m/h.</desc>
<speed>2.760000</speed>
</trkpt>
<trkpt lat="55.759216" lon="26.039728">
<ele>165.306763</ele>
<time>2010-07-17T17:31:32Z</time>
<desc>lat.=55.759216, lon.=26.039728, Alt.=165.306763m. Speed=9.288000m/h.</desc>
<speed>2.580000</speed>
</trkpt>
<trkpt lat="55.759182" lon="26.039717">
<ele>164.154419</ele>
<time>2010-07-17T17:31:33Z</time>
<desc>lat.=55.759182, lon.=26.039717, Alt.=164.154419m. Speed=8.964000m/h.</desc>
<speed>2.490000</speed>
</trkpt>
<trkpt lat="55.759155" lon="26.039709">
<ele>162.931763</ele>
<time>2010-07-17T17:31:34Z</time>
<desc>lat.=55.759155, lon.=26.039709, Alt.=162.931763m. Speed=6.408000m/h.</desc>
<speed>1.780000</speed>
</trkpt>
<trkpt lat="55.759132" lon="26.039696">
<ele>162.201294</ele>
<time>2010-07-17T17:31:35Z</time>
<desc>lat.=55.759132, lon.=26.039696, Alt.=162.201294m. Speed=7.020000m/h.</desc>
<speed>1.950000</speed>
</trkpt>
<trkpt lat="55.759102" lon="26.039686">
<ele>160.888794</ele>
<time>2010-07-17T17:31:36Z</time>
<desc>lat.=55.759102, lon.=26.039686, Alt.=160.888794m. Speed=8.424000m/h.</desc>
<speed>2.340000</speed>
</trkpt>
<trkpt lat="55.759075" lon="26.039690">
<ele>160.380981</ele>
<time>2010-07-17T17:31:37Z</time>
<desc>lat.=55.759075, lon.=26.039690, Alt.=160.380981m. Speed=6.912000m/h.</desc>
<speed>1.920000</speed>
</trkpt>
<trkpt lat="55.759048" lon="26.039696">
<ele>159.826294</ele>
<time>2010-07-17T17:31:38Z</time>
<desc>lat.=55.759048, lon.=26.039696, Alt.=159.826294m. Speed=7.308000m/h.</desc>
<speed>2.030000</speed>
</trkpt>
<trkpt lat="55.759029" lon="26.039700">
<ele>159.146606</ele>
<time>2010-07-17T17:31:39Z</time>
<desc>lat.=55.759029, lon.=26.039700, Alt.=159.146606m. Speed=7.200000m/h.</desc>
<speed>2.000000</speed>
</trkpt>
<trkpt lat="55.758995" lon="26.039690">
<ele>158.443481</ele>
<time>2010-07-17T17:31:40Z</time>
<desc>lat.=55.758995, lon.=26.039690, Alt.=158.443481m. Speed=8.928000m/h.</desc>
<speed>2.480000</speed>
</trkpt>
<trkpt lat="55.758968" lon="26.039688">
<ele>157.384888</ele>
<time>2010-07-17T17:31:41Z</time>
<desc>lat.=55.758968, lon.=26.039688, Alt.=157.384888m. Speed=8.928000m/h.</desc>
<speed>2.480000</speed>
</trkpt>
<trkpt lat="55.758938" lon="26.039686">
<ele>157.377075</ele>
<time>2010-07-17T17:31:42Z</time>
<desc>lat.=55.758938, lon.=26.039686, Alt.=157.377075m. Speed=7.632000m/h.</desc>
<speed>2.120000</speed>
</trkpt>
<trkpt lat="55.758911" lon="26.039673">
<ele>156.826294</ele>
<time>2010-07-17T17:31:43Z</time>
<desc>lat.=55.758911, lon.=26.039673, Alt.=156.826294m. Speed=6.120000m/h.</desc>
<speed>1.700000</speed>
</trkpt>
<trkpt lat="55.758888" lon="26.039665">
<ele>156.572388</ele>
<time>2010-07-17T17:31:44Z</time>
<desc>lat.=55.758888, lon.=26.039665, Alt.=156.572388m. Speed=5.004000m/h.</desc>
<speed>1.390000</speed>
</trkpt>
<trkpt lat="55.758865" lon="26.039648">
<ele>156.134888</ele>
<time>2010-07-17T17:31:45Z</time>
<desc>lat.=55.758865, lon.=26.039648, Alt.=156.134888m. Speed=6.408000m/h.</desc>
<speed>1.780000</speed>
</trkpt>
<trkpt lat="55.758835" lon="26.039629">
<ele>154.744263</ele>
<time>2010-07-17T17:31:46Z</time>
<desc>lat.=55.758835, lon.=26.039629, Alt.=154.744263m. Speed=5.796000m/h.</desc>
<speed>1.610000</speed>
</trkpt>
<trkpt lat="55.758801" lon="26.039612">
<ele>154.009888</ele>
<time>2010-07-17T17:31:47Z</time>
<desc>lat.=55.758801, lon.=26.039612, Alt.=154.009888m. Speed=6.084000m/h.</desc>
<speed>1.690000</speed>
</trkpt>
<trkpt lat="55.758774" lon="26.039604">
<ele>153.904419</ele>
<time>2010-07-17T17:31:48Z</time>
<desc>lat.=55.758774, lon.=26.039604, Alt.=153.904419m. Speed=5.112000m/h.</desc>
<speed>1.420000</speed>
</trkpt>
<trkpt lat="55.758747" lon="26.039597">
<ele>153.517700</ele>
<time>2010-07-17T17:31:49Z</time>
<desc>lat.=55.758747, lon.=26.039597, Alt.=153.517700m. Speed=4.572000m/h.</desc>
<speed>1.270000</speed>
</trkpt>
<trkpt lat="55.758717" lon="26.039595">
<ele>153.080200</ele>
<time>2010-07-17T17:31:50Z</time>
<desc>lat.=55.758717, lon.=26.039595, Alt.=153.080200m. Speed=5.544000m/h.</desc>
<speed>1.540000</speed>
</trkpt>
<trkpt lat="55.758686" lon="26.039585">
<ele>152.623169</ele>
<time>2010-07-17T17:31:51Z</time>
<desc>lat.=55.758686, lon.=26.039585, Alt.=152.623169m. Speed=7.920000m/h.</desc>
<speed>2.200000</speed>
</trkpt>
<trkpt lat="55.758656" lon="26.039577">
<ele>151.986450</ele>
<time>2010-07-17T17:31:52Z</time>
<desc>lat.=55.758656, lon.=26.039577, Alt.=151.986450m. Speed=10.152000m/h.</desc>
<speed>2.820000</speed>
</trkpt>
<trkpt lat="55.758610" lon="26.039581">
<ele>150.795044</ele>
<time>2010-07-17T17:31:53Z</time>
<desc>lat.=55.758610, lon.=26.039581, Alt.=150.795044m. Speed=11.340000m/h.</desc>
<speed>3.150000</speed>
</trkpt>
<trkpt lat="55.758572" lon="26.039579">
<ele>150.076294</ele>
<time>2010-07-17T17:31:54Z</time>
<desc>lat.=55.758572, lon.=26.039579, Alt.=150.076294m. Speed=11.124000m/h.</desc>
<speed>3.090000</speed>
</trkpt>
<trkpt lat="55.758526" lon="26.039568">
<ele>149.291138</ele>
<time>2010-07-17T17:31:55Z</time>
<desc>lat.=55.758526, lon.=26.039568, Alt.=149.291138m. Speed=10.476000m/h.</desc>
<speed>2.910000</speed>
</trkpt>
<trkpt lat="55.758499" lon="26.039557">
<ele>148.830200</ele>
<time>2010-07-17T17:31:56Z</time>
<desc>lat.=55.758499, lon.=26.039557, Alt.=148.830200m. Speed=12.168000m/h.</desc>
<speed>3.380000</speed>
</trkpt>
<trkpt lat="55.758453" lon="26.039543">
<ele>148.392700</ele>
<time>2010-07-17T17:31:57Z</time>
<desc>lat.=55.758453, lon.=26.039543, Alt.=148.392700m. Speed=12.816000m/h.</desc>
<speed>3.560000</speed>
</trkpt>
<trkpt lat="55.758415" lon="26.039541">
<ele>148.357544</ele>
<time>2010-07-17T17:31:58Z</time>
<desc>lat.=55.758415, lon.=26.039541, Alt.=148.357544m. Speed=13.680000m/h.</desc>
<speed>3.800000</speed>
</trkpt>
<trkpt lat="55.758377" lon="26.039532">
<ele>148.373169</ele>
<time>2010-07-17T17:31:59Z</time>
<desc>lat.=55.758377, lon.=26.039532, Alt.=148.373169m. Speed=12.456000m/h.</desc>
<speed>3.460000</speed>
</trkpt>
<trkpt lat="55.758343" lon="26.039528">
<ele>148.338013</ele>
<time>2010-07-17T17:32:00Z</time>
<desc>lat.=55.758343, lon.=26.039528, Alt.=148.338013m. Speed=10.908000m/h.</desc>
<speed>3.030000</speed>
</trkpt>
<trkpt lat="55.758297" lon="26.039532">
<ele>147.353638</ele>
<time>2010-07-17T17:32:01Z</time>
<desc>lat.=55.758297, lon.=26.039532, Alt.=147.353638m. Speed=10.872000m/h.</desc>
<speed>3.020000</speed>
</trkpt>
<trkpt lat="55.758263" lon="26.039515">
<ele>147.662231</ele>
<time>2010-07-17T17:32:02Z</time>
<desc>lat.=55.758263, lon.=26.039515, Alt.=147.662231m. Speed=10.044000m/h.</desc>
<speed>2.790000</speed>
</trkpt>
<trkpt lat="55.758205" lon="26.039532">
<ele>146.412231</ele>
<time>2010-07-17T17:32:03Z</time>
<desc>lat.=55.758205, lon.=26.039532, Alt.=146.412231m. Speed=10.476000m/h.</desc>
<speed>2.910000</speed>
</trkpt>
<trkpt lat="55.758175" lon="26.039507">
<ele>147.002075</ele>
<time>2010-07-17T17:32:04Z</time>
<desc>lat.=55.758175, lon.=26.039507, Alt.=147.002075m. Speed=13.248000m/h.</desc>
<speed>3.680000</speed>
</trkpt>
<trkpt lat="55.758144" lon="26.039478">
<ele>146.795044</ele>
<time>2010-07-17T17:32:05Z</time>
<desc>lat.=55.758144, lon.=26.039478, Alt.=146.795044m. Speed=14.076000m/h.</desc>
<speed>3.910000</speed>
</trkpt>
<trkpt lat="55.758102" lon="26.039473">
<ele>146.185669</ele>
<time>2010-07-17T17:32:06Z</time>
<desc>lat.=55.758102, lon.=26.039473, Alt.=146.185669m. Speed=10.764000m/h.</desc>
<speed>2.990000</speed>
</trkpt>
<trkpt lat="55.758064" lon="26.039469">
<ele>145.119263</ele>
<time>2010-07-17T17:32:07Z</time>
<desc>lat.=55.758064, lon.=26.039469, Alt.=145.119263m. Speed=8.532000m/h.</desc>
<speed>2.370000</speed>
</trkpt>
<trkpt lat="55.758022" lon="26.039457">
<ele>145.209106</ele>
<time>2010-07-17T17:32:08Z</time>
<desc>lat.=55.758022, lon.=26.039457, Alt.=145.209106m. Speed=10.080000m/h.</desc>
<speed>2.800000</speed>
</trkpt>
<trkpt lat="55.757980" lon="26.039431">
<ele>145.224731</ele>
<time>2010-07-17T17:32:09Z</time>
<desc>lat.=55.757980, lon.=26.039431, Alt.=145.224731m. Speed=9.828000m/h.</desc>
<speed>2.730000</speed>
</trkpt>
<trkpt lat="55.757942" lon="26.039412">
<ele>145.334106</ele>
<time>2010-07-17T17:32:10Z</time>
<desc>lat.=55.757942, lon.=26.039412, Alt.=145.334106m. Speed=9.864000m/h.</desc>
<speed>2.740000</speed>
</trkpt>
<trkpt lat="55.757908" lon="26.039396">
<ele>145.662231</ele>
<time>2010-07-17T17:32:11Z</time>
<desc>lat.=55.757908, lon.=26.039396, Alt.=145.662231m. Speed=9.324000m/h.</desc>
<speed>2.590000</speed>
</trkpt>
<trkpt lat="55.757866" lon="26.039379">
<ele>146.310669</ele>
<time>2010-07-17T17:32:12Z</time>
<desc>lat.=55.757866, lon.=26.039379, Alt.=146.310669m. Speed=10.404000m/h.</desc>
<speed>2.890000</speed>
</trkpt>
<trkpt lat="55.757816" lon="26.039387">
<ele>148.134888</ele>
<time>2010-07-17T17:32:13Z</time>
<desc>lat.=55.757816, lon.=26.039387, Alt.=148.134888m. Speed=10.332000m/h.</desc>
<speed>2.870000</speed>
</trkpt>
<trkpt lat="55.757786" lon="26.039368">
<ele>148.275513</ele>
<time>2010-07-17T17:32:14Z</time>
<desc>lat.=55.757786, lon.=26.039368, Alt.=148.275513m. Speed=9.756000m/h.</desc>
<speed>2.710000</speed>
</trkpt>
<trkpt lat="55.757755" lon="26.039347">
<ele>148.400513</ele>
<time>2010-07-17T17:32:15Z</time>
<desc>lat.=55.757755, lon.=26.039347, Alt.=148.400513m. Speed=9.900000m/h.</desc>
<speed>2.750000</speed>
</trkpt>
<trkpt lat="55.757725" lon="26.039326">
<ele>148.740356</ele>
<time>2010-07-17T17:32:16Z</time>
<desc>lat.=55.757725, lon.=26.039326, Alt.=148.740356m. Speed=6.300000m/h.</desc>
<speed>1.750000</speed>
</trkpt>
<trkpt lat="55.757702" lon="26.039295">
<ele>148.970825</ele>
<time>2010-07-17T17:32:17Z</time>
<desc>lat.=55.757702, lon.=26.039295, Alt.=148.970825m. Speed=7.920000m/h.</desc>
<speed>2.200000</speed>
</trkpt>
<trkpt lat="55.757671" lon="26.039267">
<ele>149.607544</ele>
<time>2010-07-17T17:32:18Z</time>
<desc>lat.=55.757671, lon.=26.039267, Alt.=149.607544m. Speed=7.956000m/h.</desc>
<speed>2.210000</speed>
</trkpt>
<trkpt lat="55.757626" lon="26.039217">
<ele>149.838013</ele>
<time>2010-07-17T17:32:19Z</time>
<desc>lat.=55.757626, lon.=26.039217, Alt.=149.838013m. Speed=9.108000m/h.</desc>
<speed>2.530000</speed>
</trkpt>
<trkpt lat="55.757576" lon="26.039186">
<ele>150.865356</ele>
<time>2010-07-17T17:32:20Z</time>
<desc>lat.=55.757576, lon.=26.039186, Alt.=150.865356m. Speed=8.820000m/h.</desc>
<speed>2.450000</speed>
</trkpt>
<trkpt lat="55.757538" lon="26.039165">
<ele>152.306763</ele>
<time>2010-07-17T17:32:21Z</time>
<desc>lat.=55.757538, lon.=26.039165, Alt.=152.306763m. Speed=9.072000m/h.</desc>
<speed>2.520000</speed>
</trkpt>
<trkpt lat="55.757492" lon="26.039129">
<ele>153.658325</ele>
<time>2010-07-17T17:32:22Z</time>
<desc>lat.=55.757492, lon.=26.039129, Alt.=153.658325m. Speed=10.512000m/h.</desc>
<speed>2.920000</speed>
</trkpt>
<trkpt lat="55.757450" lon="26.039089">
<ele>156.263794</ele>
<time>2010-07-17T17:32:23Z</time>
<desc>lat.=55.757450, lon.=26.039089, Alt.=156.263794m. Speed=10.260000m/h.</desc>
<speed>2.850000</speed>
</trkpt>
<trkpt lat="55.757431" lon="26.039059">
<ele>156.267700</ele>
<time>2010-07-17T17:32:24Z</time>
<desc>lat.=55.757431, lon.=26.039059, Alt.=156.267700m. Speed=11.448000m/h.</desc>
<speed>3.180000</speed>
</trkpt>
<trkpt lat="55.757404" lon="26.039015">
<ele>156.728638</ele>
<time>2010-07-17T17:32:25Z</time>
<desc>lat.=55.757404, lon.=26.039015, Alt.=156.728638m. Speed=9.468000m/h.</desc>
<speed>2.630000</speed>
</trkpt>
<trkpt lat="55.757374" lon="26.038960">
<ele>156.537231</ele>
<time>2010-07-17T17:32:26Z</time>
<desc>lat.=55.757374, lon.=26.038960, Alt.=156.537231m. Speed=9.360000m/h.</desc>
<speed>2.600000</speed>
</trkpt>
<trkpt lat="55.757355" lon="26.038912">
<ele>156.568481</ele>
<time>2010-07-17T17:32:27Z</time>
<desc>lat.=55.757355, lon.=26.038912, Alt.=156.568481m. Speed=10.944000m/h.</desc>
<speed>3.040000</speed>
</trkpt>
<trkpt lat="55.757332" lon="26.038862">
<ele>156.748169</ele>
<time>2010-07-17T17:32:28Z</time>
<desc>lat.=55.757332, lon.=26.038862, Alt.=156.748169m. Speed=12.420000m/h.</desc>
<speed>3.450000</speed>
</trkpt>
<trkpt lat="55.757305" lon="26.038815">
<ele>156.392700</ele>
<time>2010-07-17T17:32:29Z</time>
<desc>lat.=55.757305, lon.=26.038815, Alt.=156.392700m. Speed=11.880000m/h.</desc>
<speed>3.300000</speed>
</trkpt>
<trkpt lat="55.757278" lon="26.038769">
<ele>155.740356</ele>
<time>2010-07-17T17:32:30Z</time>
<desc>lat.=55.757278, lon.=26.038769, Alt.=155.740356m. Speed=12.204000m/h.</desc>
<speed>3.390000</speed>
</trkpt>
<trkpt lat="55.757240" lon="26.038708">
<ele>154.904419</ele>
<time>2010-07-17T17:32:31Z</time>
<desc>lat.=55.757240, lon.=26.038708, Alt.=154.904419m. Speed=12.600000m/h.</desc>
<speed>3.500000</speed>
</trkpt>
<trkpt lat="55.757202" lon="26.038662">
<ele>153.607544</ele>
<time>2010-07-17T17:32:32Z</time>
<desc>lat.=55.757202, lon.=26.038662, Alt.=153.607544m. Speed=12.852000m/h.</desc>
<speed>3.570000</speed>
</trkpt>
<trkpt lat="55.757175" lon="26.038610">
<ele>152.951294</ele>
<time>2010-07-17T17:32:33Z</time>
<desc>lat.=55.757175, lon.=26.038610, Alt.=152.951294m. Speed=12.168000m/h.</desc>
<speed>3.380000</speed>
</trkpt>
<trkpt lat="55.757149" lon="26.038568">
<ele>152.513794</ele>
<time>2010-07-17T17:32:34Z</time>
<desc>lat.=55.757149, lon.=26.038568, Alt.=152.513794m. Speed=12.636000m/h.</desc>
<speed>3.510000</speed>
</trkpt>
<trkpt lat="55.757114" lon="26.038519">
<ele>152.427856</ele>
<time>2010-07-17T17:32:35Z</time>
<desc>lat.=55.757114, lon.=26.038519, Alt.=152.427856m. Speed=14.616000m/h.</desc>
<speed>4.060000</speed>
</trkpt>
<trkpt lat="55.757088" lon="26.038473">
<ele>152.322388</ele>
<time>2010-07-17T17:32:36Z</time>
<desc>lat.=55.757088, lon.=26.038473, Alt.=152.322388m. Speed=13.680000m/h.</desc>
<speed>3.800000</speed>
</trkpt>
<trkpt lat="55.757057" lon="26.038422">
<ele>152.271606</ele>
<time>2010-07-17T17:32:37Z</time>
<desc>lat.=55.757057, lon.=26.038422, Alt.=152.271606m. Speed=14.688000m/h.</desc>
<speed>4.080000</speed>
</trkpt>
<trkpt lat="55.757034" lon="26.038380">
<ele>152.037231</ele>
<time>2010-07-17T17:32:38Z</time>
<desc>lat.=55.757034, lon.=26.038380, Alt.=152.037231m. Speed=11.160000m/h.</desc>
<speed>3.100000</speed>
</trkpt>
<trkpt lat="55.757008" lon="26.038340">
<ele>151.939575</ele>
<time>2010-07-17T17:32:39Z</time>
<desc>lat.=55.757008, lon.=26.038340, Alt.=151.939575m. Speed=13.536000m/h.</desc>
<speed>3.760000</speed>
</trkpt>
<trkpt lat="55.756985" lon="26.038292">
<ele>152.115356</ele>
<time>2010-07-17T17:32:40Z</time>
<desc>lat.=55.756985, lon.=26.038292, Alt.=152.115356m. Speed=15.048000m/h.</desc>
<speed>4.180000</speed>
</trkpt>
<trkpt lat="55.756958" lon="26.038229">
<ele>151.916138</ele>
<time>2010-07-17T17:32:41Z</time>
<desc>lat.=55.756958, lon.=26.038229, Alt.=151.916138m. Speed=16.344000m/h.</desc>
<speed>4.540000</speed>
</trkpt>
<trkpt lat="55.756927" lon="26.038176">
<ele>151.966919</ele>
<time>2010-07-17T17:32:42Z</time>
<desc>lat.=55.756927, lon.=26.038176, Alt.=151.966919m. Speed=15.624000m/h.</desc>
<speed>4.340000</speed>
</trkpt>
<trkpt lat="55.756897" lon="26.038116">
<ele>151.783325</ele>
<time>2010-07-17T17:32:43Z</time>
<desc>lat.=55.756897, lon.=26.038116, Alt.=151.783325m. Speed=16.056000m/h.</desc>
<speed>4.460000</speed>
</trkpt>
<trkpt lat="55.756863" lon="26.038052">
<ele>151.966919</ele>
<time>2010-07-17T17:32:44Z</time>
<desc>lat.=55.756863, lon.=26.038052, Alt.=151.966919m. Speed=16.812000m/h.</desc>
<speed>4.670000</speed>
</trkpt>
<trkpt lat="55.756832" lon="26.038002">
<ele>152.310669</ele>
<time>2010-07-17T17:32:45Z</time>
<desc>lat.=55.756832, lon.=26.038002, Alt.=152.310669m. Speed=12.636000m/h.</desc>
<speed>3.510000</speed>
</trkpt>
<trkpt lat="55.756805" lon="26.037956">
<ele>152.361450</ele>
<time>2010-07-17T17:32:46Z</time>
<desc>lat.=55.756805, lon.=26.037956, Alt.=152.361450m. Speed=12.708000m/h.</desc>
<speed>3.530000</speed>
</trkpt>
<trkpt lat="55.756779" lon="26.037912">
<ele>152.775513</ele>
<time>2010-07-17T17:32:47Z</time>
<desc>lat.=55.756779, lon.=26.037912, Alt.=152.775513m. Speed=12.528000m/h.</desc>
<speed>3.480000</speed>
</trkpt>
<trkpt lat="55.756756" lon="26.037878">
<ele>153.595825</ele>
<time>2010-07-17T17:32:48Z</time>
<desc>lat.=55.756756, lon.=26.037878, Alt.=153.595825m. Speed=11.988000m/h.</desc>
<speed>3.330000</speed>
</trkpt>
<trkpt lat="55.756737" lon="26.037842">
<ele>154.349731</ele>
<time>2010-07-17T17:32:49Z</time>
<desc>lat.=55.756737, lon.=26.037842, Alt.=154.349731m. Speed=10.116000m/h.</desc>
<speed>2.810000</speed>
</trkpt>
<trkpt lat="55.756721" lon="26.037804">
<ele>154.615356</ele>
<time>2010-07-17T17:32:50Z</time>
<desc>lat.=55.756721, lon.=26.037804, Alt.=154.615356m. Speed=9.864000m/h.</desc>
<speed>2.740000</speed>
</trkpt>
<trkpt lat="55.756706" lon="26.037781">
<ele>154.509888</ele>
<time>2010-07-17T17:32:51Z</time>
<desc>lat.=55.756706, lon.=26.037781, Alt.=154.509888m. Speed=4.104000m/h.</desc>
<speed>1.140000</speed>
</trkpt>
<trkpt lat="55.756695" lon="26.037767">
<ele>155.529419</ele>
<time>2010-07-17T17:32:52Z</time>
<desc>lat.=55.756695, lon.=26.037767, Alt.=155.529419m. Speed=8.028000m/h.</desc>
<speed>2.230000</speed>
</trkpt>
<trkpt lat="55.756676" lon="26.037743">
<ele>155.966919</ele>
<time>2010-07-17T17:32:53Z</time>
<desc>lat.=55.756676, lon.=26.037743, Alt.=155.966919m. Speed=9.216000m/h.</desc>
<speed>2.560000</speed>
</trkpt>
<trkpt lat="55.756657" lon="26.037714">
<ele>156.048950</ele>
<time>2010-07-17T17:32:54Z</time>
<desc>lat.=55.756657, lon.=26.037714, Alt.=156.048950m. Speed=9.036000m/h.</desc>
<speed>2.510000</speed>
</trkpt>
<trkpt lat="55.756634" lon="26.037682">
<ele>156.002075</ele>
<time>2010-07-17T17:32:55Z</time>
<desc>lat.=55.756634, lon.=26.037682, Alt.=156.002075m. Speed=9.648000m/h.</desc>
<speed>2.680000</speed>
</trkpt>
<trkpt lat="55.756611" lon="26.037645">
<ele>156.048950</ele>
<time>2010-07-17T17:32:56Z</time>
<desc>lat.=55.756611, lon.=26.037645, Alt.=156.048950m. Speed=11.268000m/h.</desc>
<speed>3.130000</speed>
</trkpt>
<trkpt lat="55.756592" lon="26.037603">
<ele>156.279419</ele>
<time>2010-07-17T17:32:57Z</time>
<desc>lat.=55.756592, lon.=26.037603, Alt.=156.279419m. Speed=10.008000m/h.</desc>
<speed>2.780000</speed>
</trkpt>
<trkpt lat="55.756569" lon="26.037560">
<ele>156.771606</ele>
<time>2010-07-17T17:32:58Z</time>
<desc>lat.=55.756569, lon.=26.037560, Alt.=156.771606m. Speed=10.152000m/h.</desc>
<speed>2.820000</speed>
</trkpt>
<trkpt lat="55.756550" lon="26.037516">
<ele>157.295044</ele>
<time>2010-07-17T17:32:59Z</time>
<desc>lat.=55.756550, lon.=26.037516, Alt.=157.295044m. Speed=10.080000m/h.</desc>
<speed>2.800000</speed>
</trkpt>
<trkpt lat="55.756527" lon="26.037477">
<ele>157.490356</ele>
<time>2010-07-17T17:33:00Z</time>
<desc>lat.=55.756527, lon.=26.037477, Alt.=157.490356m. Speed=9.972000m/h.</desc>
<speed>2.770000</speed>
</trkpt>
<trkpt lat="55.756504" lon="26.037443">
<ele>157.646606</ele>
<time>2010-07-17T17:33:01Z</time>
<desc>lat.=55.756504, lon.=26.037443, Alt.=157.646606m. Speed=8.172000m/h.</desc>
<speed>2.270000</speed>
</trkpt>
<trkpt lat="55.756485" lon="26.037405">
<ele>158.736450</ele>
<time>2010-07-17T17:33:02Z</time>
<desc>lat.=55.756485, lon.=26.037405, Alt.=158.736450m. Speed=8.352000m/h.</desc>
<speed>2.320000</speed>
</trkpt>
<trkpt lat="55.756462" lon="26.037367">
<ele>158.791138</ele>
<time>2010-07-17T17:33:03Z</time>
<desc>lat.=55.756462, lon.=26.037367, Alt.=158.791138m. Speed=7.920000m/h.</desc>
<speed>2.200000</speed>
</trkpt>
<trkpt lat="55.756443" lon="26.037334">
<ele>159.166138</ele>
<time>2010-07-17T17:33:04Z</time>
<desc>lat.=55.756443, lon.=26.037334, Alt.=159.166138m. Speed=6.912000m/h.</desc>
<speed>1.920000</speed>
</trkpt>
<trkpt lat="55.756428" lon="26.037308">
<ele>159.748169</ele>
<time>2010-07-17T17:33:05Z</time>
<desc>lat.=55.756428, lon.=26.037308, Alt.=159.748169m. Speed=6.696000m/h.</desc>
<speed>1.860000</speed>
</trkpt>
<trkpt lat="55.756416" lon="26.037283">
<ele>160.134888</ele>
<time>2010-07-17T17:33:06Z</time>
<desc>lat.=55.756416, lon.=26.037283, Alt.=160.134888m. Speed=5.976000m/h.</desc>
<speed>1.660000</speed>
</trkpt>
<trkpt lat="55.756405" lon="26.037260">
<ele>160.701294</ele>
<time>2010-07-17T17:33:07Z</time>
<desc>lat.=55.756405, lon.=26.037260, Alt.=160.701294m. Speed=5.616000m/h.</desc>
<speed>1.560000</speed>
</trkpt>
<trkpt lat="55.756401" lon="26.037245">
<ele>161.670044</ele>
<time>2010-07-17T17:33:08Z</time>
<desc>lat.=55.756401, lon.=26.037245, Alt.=161.670044m. Speed=2.520000m/h.</desc>
<speed>0.700000</speed>
</trkpt>
<trkpt lat="55.756397" lon="26.037220">
<ele>161.966919</ele>
<time>2010-07-17T17:33:09Z</time>
<desc>lat.=55.756397, lon.=26.037220, Alt.=161.966919m. Speed=1.332000m/h.</desc>
<speed>0.370000</speed>
</trkpt>
<trkpt lat="55.756390" lon="26.037197">
<ele>161.599731</ele>
<time>2010-07-17T17:33:10Z</time>
<desc>lat.=55.756390, lon.=26.037197, Alt.=161.599731m. Speed=2.088000m/h.</desc>
<speed>0.580000</speed>
</trkpt>
<trkpt lat="55.756390" lon="26.037191">
<ele>161.556763</ele>
<time>2010-07-17T17:33:11Z</time>
<desc>lat.=55.756390, lon.=26.037191, Alt.=161.556763m. Speed=2.880000m/h.</desc>
<speed>0.800000</speed>
</trkpt>
<trkpt lat="55.756386" lon="26.037180">
<ele>161.798950</ele>
<time>2010-07-17T17:33:12Z</time>
<desc>lat.=55.756386, lon.=26.037180, Alt.=161.798950m. Speed=3.888000m/h.</desc>
<speed>1.080000</speed>
</trkpt>
<trkpt lat="55.756382" lon="26.037167">
<ele>161.857544</ele>
<time>2010-07-17T17:33:13Z</time>
<desc>lat.=55.756382, lon.=26.037167, Alt.=161.857544m. Speed=3.384000m/h.</desc>
<speed>0.940000</speed>
</trkpt>
<trkpt lat="55.756374" lon="26.037159">
<ele>161.412231</ele>
<time>2010-07-17T17:33:14Z</time>
<desc>lat.=55.756374, lon.=26.037159, Alt.=161.412231m. Speed=4.248000m/h.</desc>
<speed>1.180000</speed>
</trkpt>
<trkpt lat="55.756363" lon="26.037146">
<ele>160.623169</ele>
<time>2010-07-17T17:33:15Z</time>
<desc>lat.=55.756363, lon.=26.037146, Alt.=160.623169m. Speed=4.932000m/h.</desc>
<speed>1.370000</speed>
</trkpt>
<trkpt lat="55.756359" lon="26.037132">
<ele>160.533325</ele>
<time>2010-07-17T17:33:16Z</time>
<desc>lat.=55.756359, lon.=26.037132, Alt.=160.533325m. Speed=3.240000m/h.</desc>
<speed>0.900000</speed>
</trkpt>
<trkpt lat="55.756355" lon="26.037115">
<ele>160.154419</ele>
<time>2010-07-17T17:33:17Z</time>
<desc>lat.=55.756355, lon.=26.037115, Alt.=160.154419m. Speed=2.988000m/h.</desc>
<speed>0.830000</speed>
</trkpt>
<trkpt lat="55.756351" lon="26.037100">
<ele>159.877075</ele>
<time>2010-07-17T17:33:18Z</time>
<desc>lat.=55.756351, lon.=26.037100, Alt.=159.877075m. Speed=3.708000m/h.</desc>
<speed>1.030000</speed>
</trkpt>
<trkpt lat="55.756344" lon="26.037083">
<ele>160.037231</ele>
<time>2010-07-17T17:33:19Z</time>
<desc>lat.=55.756344, lon.=26.037083, Alt.=160.037231m. Speed=3.888000m/h.</desc>
<speed>1.080000</speed>
</trkpt>
<trkpt lat="55.756336" lon="26.037075">
<ele>160.298950</ele>
<time>2010-07-17T17:33:20Z</time>
<desc>lat.=55.756336, lon.=26.037075, Alt.=160.298950m. Speed=3.636000m/h.</desc>
<speed>1.010000</speed>
</trkpt>
<trkpt lat="55.756325" lon="26.037064">
<ele>160.103638</ele>
<time>2010-07-17T17:33:21Z</time>
<desc>lat.=55.756325, lon.=26.037064, Alt.=160.103638m. Speed=3.816000m/h.</desc>
<speed>1.060000</speed>
</trkpt>
<trkpt lat="55.756321" lon="26.037046">
<ele>159.959106</ele>
<time>2010-07-17T17:33:22Z</time>
<desc>lat.=55.756321, lon.=26.037046, Alt.=159.959106m. Speed=4.320000m/h.</desc>
<speed>1.200000</speed>
</trkpt>
<trkpt lat="55.756313" lon="26.037033">
<ele>159.795044</ele>
<time>2010-07-17T17:33:23Z</time>
<desc>lat.=55.756313, lon.=26.037033, Alt.=159.795044m. Speed=3.240000m/h.</desc>
<speed>0.900000</speed>
</trkpt>
<trkpt lat="55.756310" lon="26.037024">
<ele>159.529419</ele>
<time>2010-07-17T17:33:24Z</time>
<desc>lat.=55.756310, lon.=26.037024, Alt.=159.529419m. Speed=2.844000m/h.</desc>
<speed>0.790000</speed>
</trkpt>
<trkpt lat="55.756306" lon="26.037018">
<ele>159.701294</ele>
<time>2010-07-17T17:33:25Z</time>
<desc>lat.=55.756306, lon.=26.037018, Alt.=159.701294m. Speed=2.808000m/h.</desc>
<speed>0.780000</speed>
</trkpt>
<trkpt lat="55.756302" lon="26.037003">
<ele>159.045044</ele>
<time>2010-07-17T17:33:26Z</time>
<desc>lat.=55.756302, lon.=26.037003, Alt.=159.045044m. Speed=3.132000m/h.</desc>
<speed>0.870000</speed>
</trkpt>
<trkpt lat="55.756294" lon="26.036993">
<ele>158.923950</ele>
<time>2010-07-17T17:33:27Z</time>
<desc>lat.=55.756294, lon.=26.036993, Alt.=158.923950m. Speed=3.060000m/h.</desc>
<speed>0.850000</speed>
</trkpt>
<trkpt lat="55.756290" lon="26.036985">
<ele>158.509888</ele>
<time>2010-07-17T17:33:28Z</time>
<desc>lat.=55.756290, lon.=26.036985, Alt.=158.509888m. Speed=3.132000m/h.</desc>
<speed>0.870000</speed>
</trkpt>
<trkpt lat="55.756287" lon="26.036976">
<ele>158.509888</ele>
<time>2010-07-17T17:33:29Z</time>
<desc>lat.=55.756287, lon.=26.036976, Alt.=158.509888m. Speed=3.096000m/h.</desc>
<speed>0.860000</speed>
</trkpt>
<trkpt lat="55.756279" lon="26.036964">
<ele>158.017700</ele>
<time>2010-07-17T17:33:30Z</time>
<desc>lat.=55.756279, lon.=26.036964, Alt.=158.017700m. Speed=2.952000m/h.</desc>
<speed>0.820000</speed>
</trkpt>
<trkpt lat="55.756271" lon="26.036959">
<ele>158.166138</ele>
<time>2010-07-17T17:33:31Z</time>
<desc>lat.=55.756271, lon.=26.036959, Alt.=158.166138m. Speed=2.808000m/h.</desc>
<speed>0.780000</speed>
</trkpt>
<trkpt lat="55.756268" lon="26.036953">
<ele>158.287231</ele>
<time>2010-07-17T17:33:32Z</time>
<desc>lat.=55.756268, lon.=26.036953, Alt.=158.287231m. Speed=2.664000m/h.</desc>
<speed>0.740000</speed>
</trkpt>
<trkpt lat="55.756260" lon="26.036949">
<ele>158.373169</ele>
<time>2010-07-17T17:33:33Z</time>
<desc>lat.=55.756260, lon.=26.036949, Alt.=158.373169m. Speed=2.808000m/h.</desc>
<speed>0.780000</speed>
</trkpt>
<trkpt lat="55.756256" lon="26.036938">
<ele>158.158325</ele>
<time>2010-07-17T17:33:34Z</time>
<desc>lat.=55.756256, lon.=26.036938, Alt.=158.158325m. Speed=3.312000m/h.</desc>
<speed>0.920000</speed>
</trkpt>
<trkpt lat="55.756252" lon="26.036926">
<ele>157.986450</ele>
<time>2010-07-17T17:33:35Z</time>
<desc>lat.=55.756252, lon.=26.036926, Alt.=157.986450m. Speed=3.708000m/h.</desc>
<speed>1.030000</speed>
</trkpt>
<trkpt lat="55.756245" lon="26.036913">
<ele>157.826294</ele>
<time>2010-07-17T17:33:36Z</time>
<desc>lat.=55.756245, lon.=26.036913, Alt.=157.826294m. Speed=3.168000m/h.</desc>
<speed>0.880000</speed>
</trkpt>
<trkpt lat="55.756241" lon="26.036901">
<ele>157.009888</ele>
<time>2010-07-17T17:33:37Z</time>
<desc>lat.=55.756241, lon.=26.036901, Alt.=157.009888m. Speed=4.032000m/h.</desc>
<speed>1.120000</speed>
</trkpt>
<trkpt lat="55.756233" lon="26.036884">
<ele>157.416138</ele>
<time>2010-07-17T17:33:38Z</time>
<desc>lat.=55.756233, lon.=26.036884, Alt.=157.416138m. Speed=3.708000m/h.</desc>
<speed>1.030000</speed>
</trkpt>
<trkpt lat="55.756229" lon="26.036871">
<ele>157.599731</ele>
<time>2010-07-17T17:33:39Z</time>
<desc>lat.=55.756229, lon.=26.036871, Alt.=157.599731m. Speed=3.888000m/h.</desc>
<speed>1.080000</speed>
</trkpt>
<trkpt lat="55.756226" lon="26.036858">
<ele>157.810669</ele>
<time>2010-07-17T17:33:40Z</time>
<desc>lat.=55.756226, lon.=26.036858, Alt.=157.810669m. Speed=3.564000m/h.</desc>
<speed>0.990000</speed>
</trkpt>
<trkpt lat="55.756222" lon="26.036844">
<ele>158.158325</ele>
<time>2010-07-17T17:33:41Z</time>
<desc>lat.=55.756222, lon.=26.036844, Alt.=158.158325m. Speed=3.456000m/h.</desc>
<speed>0.960000</speed>
</trkpt>
<trkpt lat="55.756214" lon="26.036837">
<ele>158.205200</ele>
<time>2010-07-17T17:33:42Z</time>
<desc>lat.=55.756214, lon.=26.036837, Alt.=158.205200m. Speed=3.312000m/h.</desc>
<speed>0.920000</speed>
</trkpt>
<trkpt lat="55.756214" lon="26.036823">
<ele>158.314575</ele>
<time>2010-07-17T17:33:43Z</time>
<desc>lat.=55.756214, lon.=26.036823, Alt.=158.314575m. Speed=3.564000m/h.</desc>
<speed>0.990000</speed>
</trkpt>
<trkpt lat="55.756207" lon="26.036810">
<ele>158.564575</ele>
<time>2010-07-17T17:33:44Z</time>
<desc>lat.=55.756207, lon.=26.036810, Alt.=158.564575m. Speed=3.960000m/h.</desc>
<speed>1.100000</speed>
</trkpt>
<trkpt lat="55.756207" lon="26.036793">
<ele>158.638794</ele>
<time>2010-07-17T17:33:45Z</time>
<desc>lat.=55.756207, lon.=26.036793, Alt.=158.638794m. Speed=4.068000m/h.</desc>
<speed>1.130000</speed>
</trkpt>
<trkpt lat="55.756199" lon="26.036774">
<ele>159.021606</ele>
<time>2010-07-17T17:33:46Z</time>
<desc>lat.=55.756199, lon.=26.036774, Alt.=159.021606m. Speed=4.068000m/h.</desc>
<speed>1.130000</speed>
</trkpt>
<trkpt lat="55.756191" lon="26.036758">
<ele>159.252075</ele>
<time>2010-07-17T17:33:47Z</time>
<desc>lat.=55.756191, lon.=26.036758, Alt.=159.252075m. Speed=3.384000m/h.</desc>
<speed>0.940000</speed>
</trkpt>
<trkpt lat="55.756191" lon="26.036749">
<ele>159.607544</ele>
<time>2010-07-17T17:33:48Z</time>
<desc>lat.=55.756191, lon.=26.036749, Alt.=159.607544m. Speed=2.232000m/h.</desc>
<speed>0.620000</speed>
</trkpt>
<trkpt lat="55.756187" lon="26.036741">
<ele>159.767700</ele>
<time>2010-07-17T17:33:49Z</time>
<desc>lat.=55.756187, lon.=26.036741, Alt.=159.767700m. Speed=2.268000m/h.</desc>
<speed>0.630000</speed>
</trkpt>
<trkpt lat="55.756184" lon="26.036736">
<ele>160.166138</ele>
<time>2010-07-17T17:33:50Z</time>
<desc>lat.=55.756184, lon.=26.036736, Alt.=160.166138m. Speed=2.124000m/h.</desc>
<speed>0.590000</speed>
</trkpt>
<trkpt lat="55.756180" lon="26.036726">
<ele>160.377075</ele>
<time>2010-07-17T17:33:51Z</time>
<desc>lat.=55.756180, lon.=26.036726, Alt.=160.377075m. Speed=3.060000m/h.</desc>
<speed>0.850000</speed>
</trkpt>
<trkpt lat="55.756176" lon="26.036716">
<ele>160.306763</ele>
<time>2010-07-17T17:33:52Z</time>
<desc>lat.=55.756176, lon.=26.036716, Alt.=160.306763m. Speed=2.916000m/h.</desc>
<speed>0.810000</speed>
</trkpt>
<trkpt lat="55.756172" lon="26.036703">
<ele>160.279419</ele>
<time>2010-07-17T17:33:53Z</time>
<desc>lat.=55.756172, lon.=26.036703, Alt.=160.279419m. Speed=2.772000m/h.</desc>
<speed>0.770000</speed>
</trkpt>
<trkpt lat="55.756172" lon="26.036694">
<ele>160.584106</ele>
<time>2010-07-17T17:33:54Z</time>
<desc>lat.=55.756172, lon.=26.036694, Alt.=160.584106m. Speed=1.944000m/h.</desc>
<speed>0.540000</speed>
</trkpt>
<trkpt lat="55.756172" lon="26.036686">
<ele>160.865356</ele>
<time>2010-07-17T17:33:55Z</time>
<desc>lat.=55.756172, lon.=26.036686, Alt.=160.865356m. Speed=1.728000m/h.</desc>
<speed>0.480000</speed>
</trkpt>
<trkpt lat="55.756172" lon="26.036676">
<ele>160.720825</ele>
<time>2010-07-17T17:33:56Z</time>
<desc>lat.=55.756172, lon.=26.036676, Alt.=160.720825m. Speed=2.844000m/h.</desc>
<speed>0.790000</speed>
</trkpt>
<trkpt lat="55.756168" lon="26.036665">
<ele>160.841919</ele>
<time>2010-07-17T17:33:57Z</time>
<desc>lat.=55.756168, lon.=26.036665, Alt.=160.841919m. Speed=2.700000m/h.</desc>
<speed>0.750000</speed>
</trkpt>
<trkpt lat="55.756165" lon="26.036652">
<ele>160.888794</ele>
<time>2010-07-17T17:33:58Z</time>
<desc>lat.=55.756165, lon.=26.036652, Alt.=160.888794m. Speed=2.376000m/h.</desc>
<speed>0.660000</speed>
</trkpt>
<trkpt lat="55.756161" lon="26.036636">
<ele>160.670044</ele>
<time>2010-07-17T17:33:59Z</time>
<desc>lat.=55.756161, lon.=26.036636, Alt.=160.670044m. Speed=2.952000m/h.</desc>
<speed>0.820000</speed>
</trkpt>
<trkpt lat="55.756157" lon="26.036621">
<ele>160.681763</ele>
<time>2010-07-17T17:34:00Z</time>
<desc>lat.=55.756157, lon.=26.036621, Alt.=160.681763m. Speed=3.204000m/h.</desc>
<speed>0.890000</speed>
</trkpt>
<trkpt lat="55.756153" lon="26.036606">
<ele>160.611450</ele>
<time>2010-07-17T17:34:01Z</time>
<desc>lat.=55.756153, lon.=26.036606, Alt.=160.611450m. Speed=3.096000m/h.</desc>
<speed>0.860000</speed>
</trkpt>
<trkpt lat="55.756153" lon="26.036594">
<ele>160.705200</ele>
<time>2010-07-17T17:34:02Z</time>
<desc>lat.=55.756153, lon.=26.036594, Alt.=160.705200m. Speed=3.132000m/h.</desc>
<speed>0.870000</speed>
</trkpt>
<trkpt lat="55.756149" lon="26.036583">
<ele>160.912231</ele>
<time>2010-07-17T17:34:03Z</time>
<desc>lat.=55.756149, lon.=26.036583, Alt.=160.912231m. Speed=2.808000m/h.</desc>
<speed>0.780000</speed>
</trkpt>
<trkpt lat="55.756145" lon="26.036573">
<ele>161.181763</ele>
<time>2010-07-17T17:34:04Z</time>
<desc>lat.=55.756145, lon.=26.036573, Alt.=161.181763m. Speed=3.168000m/h.</desc>
<speed>0.880000</speed>
</trkpt>
<trkpt lat="55.756138" lon="26.036560">
<ele>161.509888</ele>
<time>2010-07-17T17:34:05Z</time>
<desc>lat.=55.756138, lon.=26.036560, Alt.=161.509888m. Speed=2.880000m/h.</desc>
<speed>0.800000</speed>
</trkpt>
<trkpt lat="55.756134" lon="26.036547">
<ele>161.724731</ele>
<time>2010-07-17T17:34:06Z</time>
<desc>lat.=55.756134, lon.=26.036547, Alt.=161.724731m. Speed=3.096000m/h.</desc>
<speed>0.860000</speed>
</trkpt>
<trkpt lat="55.756134" lon="26.036533">
<ele>162.088013</ele>
<time>2010-07-17T17:34:07Z</time>
<desc>lat.=55.756134, lon.=26.036533, Alt.=162.088013m. Speed=4.824000m/h.</desc>
<speed>1.340000</speed>
</trkpt>
<trkpt lat="55.756130" lon="26.036516">
<ele>162.427856</ele>
<time>2010-07-17T17:34:08Z</time>
<desc>lat.=55.756130, lon.=26.036516, Alt.=162.427856m. Speed=2.700000m/h.</desc>
<speed>0.750000</speed>
</trkpt>
<trkpt lat="55.756126" lon="26.036501">
<ele>162.529419</ele>
<time>2010-07-17T17:34:09Z</time>
<desc>lat.=55.756126, lon.=26.036501, Alt.=162.529419m. Speed=3.528000m/h.</desc>
<speed>0.980000</speed>
</trkpt>
<trkpt lat="55.756123" lon="26.036484">
<ele>162.521606</ele>
<time>2010-07-17T17:34:10Z</time>
<desc>lat.=55.756123, lon.=26.036484, Alt.=162.521606m. Speed=3.600000m/h.</desc>
<speed>1.000000</speed>
</trkpt>
<trkpt lat="55.756123" lon="26.036467">
<ele>162.677856</ele>
<time>2010-07-17T17:34:11Z</time>
<desc>lat.=55.756123, lon.=26.036467, Alt.=162.677856m. Speed=3.168000m/h.</desc>
<speed>0.880000</speed>
</trkpt>
<trkpt lat="55.756119" lon="26.036455">
<ele>163.048950</ele>
<time>2010-07-17T17:34:12Z</time>
<desc>lat.=55.756119, lon.=26.036455, Alt.=163.048950m. Speed=3.096000m/h.</desc>
<speed>0.860000</speed>
</trkpt>
<trkpt lat="55.756119" lon="26.036442">
<ele>163.150513</ele>
<time>2010-07-17T17:34:13Z</time>
<desc>lat.=55.756119, lon.=26.036442, Alt.=163.150513m. Speed=3.024000m/h.</desc>
<speed>0.840000</speed>
</trkpt>
<trkpt lat="55.756111" lon="26.036430">
<ele>162.502075</ele>
<time>2010-07-17T17:34:14Z</time>
<desc>lat.=55.756111, lon.=26.036430, Alt.=162.502075m. Speed=3.492000m/h.</desc>
<speed>0.970000</speed>
</trkpt>
<trkpt lat="55.756107" lon="26.036413">
<ele>163.002075</ele>
<time>2010-07-17T17:34:15Z</time>
<desc>lat.=55.756107, lon.=26.036413, Alt.=163.002075m. Speed=3.924000m/h.</desc>
<speed>1.090000</speed>
</trkpt>
<trkpt lat="55.756104" lon="26.036392">
<ele>162.853638</ele>
<time>2010-07-17T17:34:16Z</time>
<desc>lat.=55.756104, lon.=26.036392, Alt.=162.853638m. Speed=4.248000m/h.</desc>
<speed>1.180000</speed>
</trkpt>
<trkpt lat="55.756100" lon="26.036377">
<ele>162.755981</ele>
<time>2010-07-17T17:34:17Z</time>
<desc>lat.=55.756100, lon.=26.036377, Alt.=162.755981m. Speed=4.068000m/h.</desc>
<speed>1.130000</speed>
</trkpt>
<trkpt lat="55.756096" lon="26.036364">
<ele>162.619263</ele>
<time>2010-07-17T17:34:18Z</time>
<desc>lat.=55.756096, lon.=26.036364, Alt.=162.619263m. Speed=2.736000m/h.</desc>
<speed>0.760000</speed>
</trkpt>
<trkpt lat="55.756092" lon="26.036358">
<ele>162.713013</ele>
<time>2010-07-17T17:34:19Z</time>
<desc>lat.=55.756092, lon.=26.036358, Alt.=162.713013m. Speed=3.852000m/h.</desc>
<speed>1.070000</speed>
</trkpt>
<trkpt lat="55.756084" lon="26.036346">
<ele>162.990356</ele>
<time>2010-07-17T17:34:20Z</time>
<desc>lat.=55.756084, lon.=26.036346, Alt.=162.990356m. Speed=3.564000m/h.</desc>
<speed>0.990000</speed>
</trkpt>
<trkpt lat="55.756077" lon="26.036335">
<ele>163.009888</ele>
<time>2010-07-17T17:34:21Z</time>
<desc>lat.=55.756077, lon.=26.036335, Alt.=163.009888m. Speed=4.068000m/h.</desc>
<speed>1.130000</speed>
</trkpt>
<trkpt lat="55.756073" lon="26.036316">
<ele>162.787231</ele>
<time>2010-07-17T17:34:22Z</time>
<desc>lat.=55.756073, lon.=26.036316, Alt.=162.787231m. Speed=4.392000m/h.</desc>
<speed>1.220000</speed>
</trkpt>
<trkpt lat="55.756069" lon="26.036304">
<ele>163.013794</ele>
<time>2010-07-17T17:34:23Z</time>
<desc>lat.=55.756069, lon.=26.036304, Alt.=163.013794m. Speed=3.780000m/h.</desc>
<speed>1.050000</speed>
</trkpt>
<trkpt lat="55.756065" lon="26.036287">
<ele>163.263794</ele>
<time>2010-07-17T17:34:24Z</time>
<desc>lat.=55.756065, lon.=26.036287, Alt.=163.263794m. Speed=3.960000m/h.</desc>
<speed>1.100000</speed>
</trkpt>
<trkpt lat="55.756065" lon="26.036276">
<ele>163.888794</ele>
<time>2010-07-17T17:34:25Z</time>
<desc>lat.=55.756065, lon.=26.036276, Alt.=163.888794m. Speed=4.788000m/h.</desc>
<speed>1.330000</speed>
</trkpt>
<trkpt lat="55.756065" lon="26.036263">
<ele>164.295044</ele>
<time>2010-07-17T17:34:26Z</time>
<desc>lat.=55.756065, lon.=26.036263, Alt.=164.295044m. Speed=4.032000m/h.</desc>
<speed>1.120000</speed>
</trkpt>
<trkpt lat="55.756062" lon="26.036249">
<ele>164.177856</ele>
<time>2010-07-17T17:34:27Z</time>
<desc>lat.=55.756062, lon.=26.036249, Alt.=164.177856m. Speed=3.636000m/h.</desc>
<speed>1.010000</speed>
</trkpt>
<trkpt lat="55.756050" lon="26.036230">
<ele>164.548950</ele>
<time>2010-07-17T17:34:28Z</time>
<desc>lat.=55.756050, lon.=26.036230, Alt.=164.548950m. Speed=4.680000m/h.</desc>
<speed>1.300000</speed>
</trkpt>
<trkpt lat="55.756050" lon="26.036219">
<ele>164.720825</ele>
<time>2010-07-17T17:34:29Z</time>
<desc>lat.=55.756050, lon.=26.036219, Alt.=164.720825m. Speed=4.068000m/h.</desc>
<speed>1.130000</speed>
</trkpt>
<trkpt lat="55.756046" lon="26.036207">
<ele>164.873169</ele>
<time>2010-07-17T17:34:30Z</time>
<desc>lat.=55.756046, lon.=26.036207, Alt.=164.873169m. Speed=3.456000m/h.</desc>
<speed>0.960000</speed>
</trkpt>
<trkpt lat="55.756046" lon="26.036190">
<ele>164.814575</ele>
<time>2010-07-17T17:34:31Z</time>
<desc>lat.=55.756046, lon.=26.036190, Alt.=164.814575m. Speed=2.772000m/h.</desc>
<speed>0.770000</speed>
</trkpt>
<trkpt lat="55.756046" lon="26.036175">
<ele>164.435669</ele>
<time>2010-07-17T17:34:32Z</time>
<desc>lat.=55.756046, lon.=26.036175, Alt.=164.435669m. Speed=4.392000m/h.</desc>
<speed>1.220000</speed>
</trkpt>
<trkpt lat="55.756042" lon="26.036160">
<ele>164.224731</ele>
<time>2010-07-17T17:34:33Z</time>
<desc>lat.=55.756042, lon.=26.036160, Alt.=164.224731m. Speed=3.348000m/h.</desc>
<speed>0.930000</speed>
</trkpt>
<trkpt lat="55.756039" lon="26.036148">
<ele>164.146606</ele>
<time>2010-07-17T17:34:34Z</time>
<desc>lat.=55.756039, lon.=26.036148, Alt.=164.146606m. Speed=4.104000m/h.</desc>
<speed>1.140000</speed>
</trkpt>
<trkpt lat="55.756035" lon="26.036137">
<ele>164.064575</ele>
<time>2010-07-17T17:34:35Z</time>
<desc>lat.=55.756035, lon.=26.036137, Alt.=164.064575m. Speed=3.996000m/h.</desc>
<speed>1.110000</speed>
</trkpt>
<trkpt lat="55.756027" lon="26.036114">
<ele>164.275513</ele>
<time>2010-07-17T17:34:36Z</time>
<desc>lat.=55.756027, lon.=26.036114, Alt.=164.275513m. Speed=4.356000m/h.</desc>
<speed>1.210000</speed>
</trkpt>
<trkpt lat="55.756023" lon="26.036095">
<ele>164.330200</ele>
<time>2010-07-17T17:34:37Z</time>
<desc>lat.=55.756023, lon.=26.036095, Alt.=164.330200m. Speed=4.644000m/h.</desc>
<speed>1.290000</speed>
</trkpt>
<trkpt lat="55.756020" lon="26.036072">
<ele>164.267700</ele>
<time>2010-07-17T17:34:38Z</time>
<desc>lat.=55.756020, lon.=26.036072, Alt.=164.267700m. Speed=4.392000m/h.</desc>
<speed>1.220000</speed>
</trkpt>
<trkpt lat="55.756016" lon="26.036049">
<ele>164.267700</ele>
<time>2010-07-17T17:34:39Z</time>
<desc>lat.=55.756016, lon.=26.036049, Alt.=164.267700m. Speed=4.140000m/h.</desc>
<speed>1.150000</speed>
</trkpt>
<trkpt lat="55.756008" lon="26.036032">
<ele>164.353638</ele>
<time>2010-07-17T17:34:40Z</time>
<desc>lat.=55.756008, lon.=26.036032, Alt.=164.353638m. Speed=4.536000m/h.</desc>
<speed>1.260000</speed>
</trkpt>
<trkpt lat="55.756004" lon="26.036009">
<ele>164.025513</ele>
<time>2010-07-17T17:34:41Z</time>
<desc>lat.=55.756004, lon.=26.036009, Alt.=164.025513m. Speed=4.500000m/h.</desc>
<speed>1.250000</speed>
</trkpt>
<trkpt lat="55.756001" lon="26.035990">
<ele>163.970825</ele>
<time>2010-07-17T17:34:42Z</time>
<desc>lat.=55.756001, lon.=26.035990, Alt.=163.970825m. Speed=4.716000m/h.</desc>
<speed>1.310000</speed>
</trkpt>
<trkpt lat="55.756001" lon="26.035971">
<ele>163.802856</ele>
<time>2010-07-17T17:34:43Z</time>
<desc>lat.=55.756001, lon.=26.035971, Alt.=163.802856m. Speed=4.824000m/h.</desc>
<speed>1.340000</speed>
</trkpt>
<trkpt lat="55.755997" lon="26.035946">
<ele>163.927856</ele>
<time>2010-07-17T17:34:44Z</time>
<desc>lat.=55.755997, lon.=26.035946, Alt.=163.927856m. Speed=4.608000m/h.</desc>
<speed>1.280000</speed>
</trkpt>
<trkpt lat="55.755997" lon="26.035925">
<ele>163.795044</ele>
<time>2010-07-17T17:34:45Z</time>
<desc>lat.=55.755997, lon.=26.035925, Alt.=163.795044m. Speed=4.896000m/h.</desc>
<speed>1.360000</speed>
</trkpt>
<trkpt lat="55.755993" lon="26.035904">
<ele>163.783325</ele>
<time>2010-07-17T17:34:46Z</time>
<desc>lat.=55.755993, lon.=26.035904, Alt.=163.783325m. Speed=3.564000m/h.</desc>
<speed>0.990000</speed>
</trkpt>
<trkpt lat="55.755993" lon="26.035887">
<ele>164.322388</ele>
<time>2010-07-17T17:34:47Z</time>
<desc>lat.=55.755993, lon.=26.035887, Alt.=164.322388m. Speed=4.860000m/h.</desc>
<speed>1.350000</speed>
</trkpt>
<trkpt lat="55.755985" lon="26.035868">
<ele>163.709106</ele>
<time>2010-07-17T17:34:48Z</time>
<desc>lat.=55.755985, lon.=26.035868, Alt.=163.709106m. Speed=4.500000m/h.</desc>
<speed>1.250000</speed>
</trkpt>
<trkpt lat="55.755981" lon="26.035851">
<ele>163.658325</ele>
<time>2010-07-17T17:34:49Z</time>
<desc>lat.=55.755981, lon.=26.035851, Alt.=163.658325m. Speed=4.824000m/h.</desc>
<speed>1.340000</speed>
</trkpt>
<trkpt lat="55.755978" lon="26.035831">
<ele>163.814575</ele>
<time>2010-07-17T17:34:50Z</time>
<desc>lat.=55.755978, lon.=26.035831, Alt.=163.814575m. Speed=5.076000m/h.</desc>
<speed>1.410000</speed>
</trkpt>
<trkpt lat="55.755966" lon="26.035810">
<ele>163.974731</ele>
<time>2010-07-17T17:34:51Z</time>
<desc>lat.=55.755966, lon.=26.035810, Alt.=163.974731m. Speed=6.480000m/h.</desc>
<speed>1.800000</speed>
</trkpt>
<trkpt lat="55.755959" lon="26.035797">
<ele>164.400513</ele>
<time>2010-07-17T17:34:52Z</time>
<desc>lat.=55.755959, lon.=26.035797, Alt.=164.400513m. Speed=4.320000m/h.</desc>
<speed>1.200000</speed>
</trkpt>
<trkpt lat="55.755955" lon="26.035782">
<ele>164.423950</ele>
<time>2010-07-17T17:34:53Z</time>
<desc>lat.=55.755955, lon.=26.035782, Alt.=164.423950m. Speed=3.492000m/h.</desc>
<speed>0.970000</speed>
</trkpt>
<trkpt lat="55.755951" lon="26.035767">
<ele>164.216919</ele>
<time>2010-07-17T17:34:54Z</time>
<desc>lat.=55.755951, lon.=26.035767, Alt.=164.216919m. Speed=3.168000m/h.</desc>
<speed>0.880000</speed>
</trkpt>
<trkpt lat="55.755947" lon="26.035753">
<ele>164.349731</ele>
<time>2010-07-17T17:34:55Z</time>
<desc>lat.=55.755947, lon.=26.035753, Alt.=164.349731m. Speed=3.492000m/h.</desc>
<speed>0.970000</speed>
</trkpt>
<trkpt lat="55.755943" lon="26.035740">
<ele>164.463013</ele>
<time>2010-07-17T17:34:56Z</time>
<desc>lat.=55.755943, lon.=26.035740, Alt.=164.463013m. Speed=3.744000m/h.</desc>
<speed>1.040000</speed>
</trkpt>
<trkpt lat="55.755939" lon="26.035728">
<ele>164.529419</ele>
<time>2010-07-17T17:34:57Z</time>
<desc>lat.=55.755939, lon.=26.035728, Alt.=164.529419m. Speed=2.592000m/h.</desc>
<speed>0.720000</speed>
</trkpt>
<trkpt lat="55.755939" lon="26.035723">
<ele>164.705200</ele>
<time>2010-07-17T17:34:58Z</time>
<desc>lat.=55.755939, lon.=26.035723, Alt.=164.705200m. Speed=0.612000m/h.</desc>
<speed>0.170000</speed>
</trkpt>
<trkpt lat="55.755939" lon="26.035719">
<ele>164.806763</ele>
<time>2010-07-17T17:34:59Z</time>
<desc>lat.=55.755939, lon.=26.035719, Alt.=164.806763m. Speed=1.440000m/h.</desc>
<speed>0.400000</speed>
</trkpt>
<trkpt lat="55.755939" lon="26.035715">
<ele>164.814575</ele>
<time>2010-07-17T17:35:00Z</time>
<desc>lat.=55.755939, lon.=26.035715, Alt.=164.814575m. Speed=2.592000m/h.</desc>
<speed>0.720000</speed>
</trkpt>
<trkpt lat="55.755939" lon="26.035704">
<ele>164.877075</ele>
<time>2010-07-17T17:35:01Z</time>
<desc>lat.=55.755939, lon.=26.035704, Alt.=164.877075m. Speed=2.664000m/h.</desc>
<speed>0.740000</speed>
</trkpt>
<trkpt lat="55.755936" lon="26.035677">
<ele>164.767700</ele>
<time>2010-07-17T17:35:02Z</time>
<desc>lat.=55.755936, lon.=26.035677, Alt.=164.767700m. Speed=4.464000m/h.</desc>
<speed>1.240000</speed>
</trkpt>
<trkpt lat="55.755936" lon="26.035650">
<ele>164.755981</ele>
<time>2010-07-17T17:35:03Z</time>
<desc>lat.=55.755936, lon.=26.035650, Alt.=164.755981m. Speed=9.288000m/h.</desc>
<speed>2.580000</speed>
</trkpt>
<trkpt lat="55.755924" lon="26.035610">
<ele>163.959106</ele>
<time>2010-07-17T17:35:04Z</time>
<desc>lat.=55.755924, lon.=26.035610, Alt.=163.959106m. Speed=10.044000m/h.</desc>
<speed>2.790000</speed>
</trkpt>
<trkpt lat="55.755917" lon="26.035572">
<ele>163.900513</ele>
<time>2010-07-17T17:35:05Z</time>
<desc>lat.=55.755917, lon.=26.035572, Alt.=163.900513m. Speed=7.380000m/h.</desc>
<speed>2.050000</speed>
</trkpt>
<trkpt lat="55.755905" lon="26.035532">
<ele>163.791138</ele>
<time>2010-07-17T17:35:06Z</time>
<desc>lat.=55.755905, lon.=26.035532, Alt.=163.791138m. Speed=9.972000m/h.</desc>
<speed>2.770000</speed>
</trkpt>
<trkpt lat="55.755898" lon="26.035480">
<ele>164.173950</ele>
<time>2010-07-17T17:35:07Z</time>
<desc>lat.=55.755898, lon.=26.035480, Alt.=164.173950m. Speed=9.360000m/h.</desc>
<speed>2.600000</speed>
</trkpt>
<trkpt lat="55.755890" lon="26.035435">
<ele>164.314575</ele>
<time>2010-07-17T17:35:08Z</time>
<desc>lat.=55.755890, lon.=26.035435, Alt.=164.314575m. Speed=9.792000m/h.</desc>
<speed>2.720000</speed>
</trkpt>
<trkpt lat="55.755886" lon="26.035395">
<ele>164.545044</ele>
<time>2010-07-17T17:35:09Z</time>
<desc>lat.=55.755886, lon.=26.035395, Alt.=164.545044m. Speed=10.368000m/h.</desc>
<speed>2.880000</speed>
</trkpt>
<trkpt lat="55.755878" lon="26.035351">
<ele>164.580200</ele>
<time>2010-07-17T17:35:10Z</time>
<desc>lat.=55.755878, lon.=26.035351, Alt.=164.580200m. Speed=10.764000m/h.</desc>
<speed>2.990000</speed>
</trkpt>
<trkpt lat="55.755871" lon="26.035305">
<ele>164.818481</ele>
<time>2010-07-17T17:35:11Z</time>
<desc>lat.=55.755871, lon.=26.035305, Alt.=164.818481m. Speed=10.116000m/h.</desc>
<speed>2.810000</speed>
</trkpt>
<trkpt lat="55.755863" lon="26.035261">
<ele>165.029419</ele>
<time>2010-07-17T17:35:12Z</time>
<desc>lat.=55.755863, lon.=26.035261, Alt.=165.029419m. Speed=10.044000m/h.</desc>
<speed>2.790000</speed>
</trkpt>
<trkpt lat="55.755856" lon="26.035213">
<ele>165.025513</ele>
<time>2010-07-17T17:35:13Z</time>
<desc>lat.=55.755856, lon.=26.035213, Alt.=165.025513m. Speed=10.656000m/h.</desc>
<speed>2.960000</speed>
</trkpt>
<trkpt lat="55.755844" lon="26.035170">
<ele>165.103638</ele>
<time>2010-07-17T17:35:14Z</time>
<desc>lat.=55.755844, lon.=26.035170, Alt.=165.103638m. Speed=9.792000m/h.</desc>
<speed>2.720000</speed>
</trkpt>
<trkpt lat="55.755840" lon="26.035126">
<ele>165.369263</ele>
<time>2010-07-17T17:35:15Z</time>
<desc>lat.=55.755840, lon.=26.035126, Alt.=165.369263m. Speed=10.764000m/h.</desc>
<speed>2.990000</speed>
</trkpt>
<trkpt lat="55.755836" lon="26.035076">
<ele>165.373169</ele>
<time>2010-07-17T17:35:16Z</time>
<desc>lat.=55.755836, lon.=26.035076, Alt.=165.373169m. Speed=10.764000m/h.</desc>
<speed>2.990000</speed>
</trkpt>
<trkpt lat="55.755825" lon="26.035019">
<ele>165.509888</ele>
<time>2010-07-17T17:35:17Z</time>
<desc>lat.=55.755825, lon.=26.035019, Alt.=165.509888m. Speed=13.572000m/h.</desc>
<speed>3.770000</speed>
</trkpt>
<trkpt lat="55.755802" lon="26.034960">
<ele>165.603638</ele>
<time>2010-07-17T17:35:18Z</time>
<desc>lat.=55.755802, lon.=26.034960, Alt.=165.603638m. Speed=11.664000m/h.</desc>
<speed>3.240000</speed>
</trkpt>
<trkpt lat="55.755795" lon="26.034914">
<ele>165.728638</ele>
<time>2010-07-17T17:35:19Z</time>
<desc>lat.=55.755795, lon.=26.034914, Alt.=165.728638m. Speed=11.700000m/h.</desc>
<speed>3.250000</speed>
</trkpt>
<trkpt lat="55.755787" lon="26.034863">
<ele>165.568481</ele>
<time>2010-07-17T17:35:20Z</time>
<desc>lat.=55.755787, lon.=26.034863, Alt.=165.568481m. Speed=11.232000m/h.</desc>
<speed>3.120000</speed>
</trkpt>
<trkpt lat="55.755775" lon="26.034811">
<ele>165.646606</ele>
<time>2010-07-17T17:35:21Z</time>
<desc>lat.=55.755775, lon.=26.034811, Alt.=165.646606m. Speed=10.980000m/h.</desc>
<speed>3.050000</speed>
</trkpt>
<trkpt lat="55.755768" lon="26.034763">
<ele>165.634888</ele>
<time>2010-07-17T17:35:22Z</time>
<desc>lat.=55.755768, lon.=26.034763, Alt.=165.634888m. Speed=10.800000m/h.</desc>
<speed>3.000000</speed>
</trkpt>
<trkpt lat="55.755756" lon="26.034727">
<ele>166.052856</ele>
<time>2010-07-17T17:35:23Z</time>
<desc>lat.=55.755756, lon.=26.034727, Alt.=166.052856m. Speed=10.296000m/h.</desc>
<speed>2.860000</speed>
</trkpt>
<trkpt lat="55.755741" lon="26.034691">
<ele>166.396606</ele>
<time>2010-07-17T17:35:24Z</time>
<desc>lat.=55.755741, lon.=26.034691, Alt.=166.396606m. Speed=11.916000m/h.</desc>
<speed>3.310000</speed>
</trkpt>
<trkpt lat="55.755730" lon="26.034634">
<ele>166.470825</ele>
<time>2010-07-17T17:35:25Z</time>
<desc>lat.=55.755730, lon.=26.034634, Alt.=166.470825m. Speed=11.808000m/h.</desc>
<speed>3.280000</speed>
</trkpt>
<trkpt lat="55.755722" lon="26.034576">
<ele>166.724731</ele>
<time>2010-07-17T17:35:26Z</time>
<desc>lat.=55.755722, lon.=26.034576, Alt.=166.724731m. Speed=13.824000m/h.</desc>
<speed>3.840000</speed>
</trkpt>
<trkpt lat="55.755707" lon="26.034521">
<ele>166.795044</ele>
<time>2010-07-17T17:35:27Z</time>
<desc>lat.=55.755707, lon.=26.034521, Alt.=166.795044m. Speed=13.788000m/h.</desc>
<speed>3.830000</speed>
</trkpt>
<trkpt lat="55.755695" lon="26.034466">
<ele>166.603638</ele>
<time>2010-07-17T17:35:28Z</time>
<desc>lat.=55.755695, lon.=26.034466, Alt.=166.603638m. Speed=13.140000m/h.</desc>
<speed>3.650000</speed>
</trkpt>
<trkpt lat="55.755684" lon="26.034409">
<ele>166.713013</ele>
<time>2010-07-17T17:35:29Z</time>
<desc>lat.=55.755684, lon.=26.034409, Alt.=166.713013m. Speed=14.220000m/h.</desc>
<speed>3.950000</speed>
</trkpt>
<trkpt lat="55.755669" lon="26.034346">
<ele>166.224731</ele>
<time>2010-07-17T17:35:30Z</time>
<desc>lat.=55.755669, lon.=26.034346, Alt.=166.224731m. Speed=15.192000m/h.</desc>
<speed>4.220000</speed>
</trkpt>
<trkpt lat="55.755661" lon="26.034275">
<ele>168.033325</ele>
<time>2010-07-17T17:35:31Z</time>
<desc>lat.=55.755661, lon.=26.034275, Alt.=168.033325m. Speed=14.112000m/h.</desc>
<speed>3.920000</speed>
</trkpt>
<trkpt lat="55.755653" lon="26.034218">
<ele>168.642700</ele>
<time>2010-07-17T17:35:32Z</time>
<desc>lat.=55.755653, lon.=26.034218, Alt.=168.642700m. Speed=14.364000m/h.</desc>
<speed>3.990000</speed>
</trkpt>
<trkpt lat="55.755646" lon="26.034155">
<ele>168.923950</ele>
<time>2010-07-17T17:35:33Z</time>
<desc>lat.=55.755646, lon.=26.034155, Alt.=168.923950m. Speed=14.616000m/h.</desc>
<speed>4.060000</speed>
</trkpt>
<trkpt lat="55.755634" lon="26.034088">
<ele>169.084106</ele>
<time>2010-07-17T17:35:34Z</time>
<desc>lat.=55.755634, lon.=26.034088, Alt.=169.084106m. Speed=15.480000m/h.</desc>
<speed>4.300000</speed>
</trkpt>
<trkpt lat="55.755623" lon="26.034021">
<ele>168.959106</ele>
<time>2010-07-17T17:35:35Z</time>
<desc>lat.=55.755623, lon.=26.034021, Alt.=168.959106m. Speed=16.632000m/h.</desc>
<speed>4.620000</speed>
</trkpt>
<trkpt lat="55.755611" lon="26.033949">
<ele>168.697388</ele>
<time>2010-07-17T17:35:36Z</time>
<desc>lat.=55.755611, lon.=26.033949, Alt.=168.697388m. Speed=18.035999m/h.</desc>
<speed>5.010000</speed>
</trkpt>
<trkpt lat="55.755596" lon="26.033876">
<ele>169.627075</ele>
<time>2010-07-17T17:35:37Z</time>
<desc>lat.=55.755596, lon.=26.033876, Alt.=169.627075m. Speed=17.208000m/h.</desc>
<speed>4.780000</speed>
</trkpt>
<trkpt lat="55.755577" lon="26.033802">
<ele>170.353638</ele>
<time>2010-07-17T17:35:38Z</time>
<desc>lat.=55.755577, lon.=26.033802, Alt.=170.353638m. Speed=17.280001m/h.</desc>
<speed>4.800000</speed>
</trkpt>
<trkpt lat="55.755562" lon="26.033733">
<ele>170.291138</ele>
<time>2010-07-17T17:35:39Z</time>
<desc>lat.=55.755562, lon.=26.033733, Alt.=170.291138m. Speed=16.920000m/h.</desc>
<speed>4.700000</speed>
</trkpt>
<trkpt lat="55.755550" lon="26.033665">
<ele>170.205200</ele>
<time>2010-07-17T17:35:40Z</time>
<desc>lat.=55.755550, lon.=26.033665, Alt.=170.205200m. Speed=16.704000m/h.</desc>
<speed>4.640000</speed>
</trkpt>
<trkpt lat="55.755539" lon="26.033592">
<ele>170.420044</ele>
<time>2010-07-17T17:35:41Z</time>
<desc>lat.=55.755539, lon.=26.033592, Alt.=170.420044m. Speed=17.676001m/h.</desc>
<speed>4.910000</speed>
</trkpt>
<trkpt lat="55.755527" lon="26.033512">
<ele>170.802856</ele>
<time>2010-07-17T17:35:42Z</time>
<desc>lat.=55.755527, lon.=26.033512, Alt.=170.802856m. Speed=18.323999m/h.</desc>
<speed>5.090000</speed>
</trkpt>
<trkpt lat="55.755516" lon="26.033428">
<ele>171.693481</ele>
<time>2010-07-17T17:35:43Z</time>
<desc>lat.=55.755516, lon.=26.033428, Alt.=171.693481m. Speed=18.936001m/h.</desc>
<speed>5.260000</speed>
</trkpt>
<trkpt lat="55.755501" lon="26.033346">
<ele>171.826294</ele>
<time>2010-07-17T17:35:44Z</time>
<desc>lat.=55.755501, lon.=26.033346, Alt.=171.826294m. Speed=19.836000m/h.</desc>
<speed>5.510000</speed>
</trkpt>
<trkpt lat="55.755489" lon="26.033258">
<ele>172.248169</ele>
<time>2010-07-17T17:35:45Z</time>
<desc>lat.=55.755489, lon.=26.033258, Alt.=172.248169m. Speed=20.664000m/h.</desc>
<speed>5.740000</speed>
</trkpt>
<trkpt lat="55.755474" lon="26.033167">
<ele>171.927856</ele>
<time>2010-07-17T17:35:46Z</time>
<desc>lat.=55.755474, lon.=26.033167, Alt.=171.927856m. Speed=21.888000m/h.</desc>
<speed>6.080000</speed>
</trkpt>
<trkpt lat="55.755455" lon="26.033073">
<ele>171.689575</ele>
<time>2010-07-17T17:35:47Z</time>
<desc>lat.=55.755455, lon.=26.033073, Alt.=171.689575m. Speed=22.464001m/h.</desc>
<speed>6.240000</speed>
</trkpt>
<trkpt lat="55.755440" lon="26.032974">
<ele>171.873169</ele>
<time>2010-07-17T17:35:48Z</time>
<desc>lat.=55.755440, lon.=26.032974, Alt.=171.873169m. Speed=23.760000m/h.</desc>
<speed>6.600000</speed>
</trkpt>
<trkpt lat="55.755424" lon="26.032873">
<ele>171.638794</ele>
<time>2010-07-17T17:35:49Z</time>
<desc>lat.=55.755424, lon.=26.032873, Alt.=171.638794m. Speed=24.372000m/h.</desc>
<speed>6.770000</speed>
</trkpt>
<trkpt lat="55.755402" lon="26.032770">
<ele>171.478638</ele>
<time>2010-07-17T17:35:50Z</time>
<desc>lat.=55.755402, lon.=26.032770, Alt.=171.478638m. Speed=25.344000m/h.</desc>
<speed>7.040000</speed>
</trkpt>
<trkpt lat="55.755383" lon="26.032665">
<ele>171.634888</ele>
<time>2010-07-17T17:35:51Z</time>
<desc>lat.=55.755383, lon.=26.032665, Alt.=171.634888m. Speed=25.308001m/h.</desc>
<speed>7.030000</speed>
</trkpt>
<trkpt lat="55.755367" lon="26.032560">
<ele>171.603638</ele>
<time>2010-07-17T17:35:52Z</time>
<desc>lat.=55.755367, lon.=26.032560, Alt.=171.603638m. Speed=24.552000m/h.</desc>
<speed>6.820000</speed>
</trkpt>
<trkpt lat="55.755344" lon="26.032454">
<ele>171.255981</ele>
<time>2010-07-17T17:35:53Z</time>
<desc>lat.=55.755344, lon.=26.032454, Alt.=171.255981m. Speed=25.596001m/h.</desc>
<speed>7.110000</speed>
</trkpt>
<trkpt lat="55.755329" lon="26.032341">
<ele>171.552856</ele>
<time>2010-07-17T17:35:54Z</time>
<desc>lat.=55.755329, lon.=26.032341, Alt.=171.552856m. Speed=24.408001m/h.</desc>
<speed>6.780000</speed>
</trkpt>
<trkpt lat="55.755318" lon="26.032238">
<ele>172.685669</ele>
<time>2010-07-17T17:35:55Z</time>
<desc>lat.=55.755318, lon.=26.032238, Alt.=172.685669m. Speed=24.552000m/h.</desc>
<speed>6.820000</speed>
</trkpt>
<trkpt lat="55.755302" lon="26.032133">
<ele>172.740356</ele>
<time>2010-07-17T17:35:56Z</time>
<desc>lat.=55.755302, lon.=26.032133, Alt.=172.740356m. Speed=23.327999m/h.</desc>
<speed>6.480000</speed>
</trkpt>
<trkpt lat="55.755291" lon="26.032030">
<ele>172.482544</ele>
<time>2010-07-17T17:35:57Z</time>
<desc>lat.=55.755291, lon.=26.032030, Alt.=172.482544m. Speed=21.959999m/h.</desc>
<speed>6.100000</speed>
</trkpt>
<trkpt lat="55.755283" lon="26.031933">
<ele>173.060669</ele>
<time>2010-07-17T17:35:58Z</time>
<desc>lat.=55.755283, lon.=26.031933, Alt.=173.060669m. Speed=23.364000m/h.</desc>
<speed>6.490000</speed>
</trkpt>
<trkpt lat="55.755268" lon="26.031832">
<ele>173.287231</ele>
<time>2010-07-17T17:35:59Z</time>
<desc>lat.=55.755268, lon.=26.031832, Alt.=173.287231m. Speed=23.724001m/h.</desc>
<speed>6.590000</speed>
</trkpt>
<trkpt lat="55.755257" lon="26.031738">
<ele>173.252075</ele>
<time>2010-07-17T17:36:00Z</time>
<desc>lat.=55.755257, lon.=26.031738, Alt.=173.252075m. Speed=22.176001m/h.</desc>
<speed>6.160000</speed>
</trkpt>
<trkpt lat="55.755245" lon="26.031645">
<ele>173.263794</ele>
<time>2010-07-17T17:36:01Z</time>
<desc>lat.=55.755245, lon.=26.031645, Alt.=173.263794m. Speed=21.204000m/h.</desc>
<speed>5.890000</speed>
</trkpt>
<trkpt lat="55.755234" lon="26.031559">
<ele>173.388794</ele>
<time>2010-07-17T17:36:02Z</time>
<desc>lat.=55.755234, lon.=26.031559, Alt.=173.388794m. Speed=21.672001m/h.</desc>
<speed>6.020000</speed>
</trkpt>
<trkpt lat="55.755222" lon="26.031469">
<ele>173.189575</ele>
<time>2010-07-17T17:36:03Z</time>
<desc>lat.=55.755222, lon.=26.031469, Alt.=173.189575m. Speed=20.808001m/h.</desc>
<speed>5.780000</speed>
</trkpt>
<trkpt lat="55.755211" lon="26.031374">
<ele>172.791138</ele>
<time>2010-07-17T17:36:04Z</time>
<desc>lat.=55.755211, lon.=26.031374, Alt.=172.791138m. Speed=21.851999m/h.</desc>
<speed>6.070000</speed>
</trkpt>
<trkpt lat="55.755199" lon="26.031277">
<ele>172.841919</ele>
<time>2010-07-17T17:36:05Z</time>
<desc>lat.=55.755199, lon.=26.031277, Alt.=172.841919m. Speed=22.032000m/h.</desc>
<speed>6.120000</speed>
</trkpt>
<trkpt lat="55.755188" lon="26.031174">
<ele>172.880981</ele>
<time>2010-07-17T17:36:06Z</time>
<desc>lat.=55.755188, lon.=26.031174, Alt.=172.880981m. Speed=22.320000m/h.</desc>
<speed>6.200000</speed>
</trkpt>
<trkpt lat="55.755180" lon="26.031073">
<ele>172.826294</ele>
<time>2010-07-17T17:36:07Z</time>
<desc>lat.=55.755180, lon.=26.031073, Alt.=172.826294m. Speed=22.500000m/h.</desc>
<speed>6.250000</speed>
</trkpt>
<trkpt lat="55.755177" lon="26.030975">
<ele>173.060669</ele>
<time>2010-07-17T17:36:08Z</time>
<desc>lat.=55.755177, lon.=26.030975, Alt.=173.060669m. Speed=21.024000m/h.</desc>
<speed>5.840000</speed>
</trkpt>
<trkpt lat="55.755169" lon="26.030859">
<ele>171.853638</ele>
<time>2010-07-17T17:36:09Z</time>
<desc>lat.=55.755169, lon.=26.030859, Alt.=171.853638m. Speed=20.736000m/h.</desc>
<speed>5.760000</speed>
</trkpt>
<trkpt lat="55.755169" lon="26.030760">
<ele>171.380981</ele>
<time>2010-07-17T17:36:10Z</time>
<desc>lat.=55.755169, lon.=26.030760, Alt.=171.380981m. Speed=20.483999m/h.</desc>
<speed>5.690000</speed>
</trkpt>
<trkpt lat="55.755177" lon="26.030678">
<ele>172.427856</ele>
<time>2010-07-17T17:36:11Z</time>
<desc>lat.=55.755177, lon.=26.030678, Alt.=172.427856m. Speed=20.771999m/h.</desc>
<speed>5.770000</speed>
</trkpt>
<trkpt lat="55.755184" lon="26.030586">
<ele>172.338013</ele>
<time>2010-07-17T17:36:12Z</time>
<desc>lat.=55.755184, lon.=26.030586, Alt.=172.338013m. Speed=21.851999m/h.</desc>
<speed>6.070000</speed>
</trkpt>
<trkpt lat="55.755196" lon="26.030499">
<ele>171.826294</ele>
<time>2010-07-17T17:36:13Z</time>
<desc>lat.=55.755196, lon.=26.030499, Alt.=171.826294m. Speed=23.004000m/h.</desc>
<speed>6.390000</speed>
</trkpt>
<trkpt lat="55.755207" lon="26.030403">
<ele>171.502075</ele>
<time>2010-07-17T17:36:14Z</time>
<desc>lat.=55.755207, lon.=26.030403, Alt.=171.502075m. Speed=22.104000m/h.</desc>
<speed>6.140000</speed>
</trkpt>
<trkpt lat="55.755222" lon="26.030312">
<ele>171.408325</ele>
<time>2010-07-17T17:36:15Z</time>
<desc>lat.=55.755222, lon.=26.030312, Alt.=171.408325m. Speed=21.816000m/h.</desc>
<speed>6.060000</speed>
</trkpt>
<trkpt lat="55.755234" lon="26.030222">
<ele>171.365356</ele>
<time>2010-07-17T17:36:16Z</time>
<desc>lat.=55.755234, lon.=26.030222, Alt.=171.365356m. Speed=20.700001m/h.</desc>
<speed>5.750000</speed>
</trkpt>
<trkpt lat="55.755245" lon="26.030127">
<ele>170.677856</ele>
<time>2010-07-17T17:36:17Z</time>
<desc>lat.=55.755245, lon.=26.030127, Alt.=170.677856m. Speed=20.520000m/h.</desc>
<speed>5.700000</speed>
</trkpt>
<trkpt lat="55.755264" lon="26.030045">
<ele>170.377075</ele>
<time>2010-07-17T17:36:18Z</time>
<desc>lat.=55.755264, lon.=26.030045, Alt.=170.377075m. Speed=20.016001m/h.</desc>
<speed>5.560000</speed>
</trkpt>
<trkpt lat="55.755276" lon="26.029961">
<ele>169.728638</ele>
<time>2010-07-17T17:36:19Z</time>
<desc>lat.=55.755276, lon.=26.029961, Alt.=169.728638m. Speed=20.664000m/h.</desc>
<speed>5.740000</speed>
</trkpt>
<trkpt lat="55.755291" lon="26.029875">
<ele>169.283325</ele>
<time>2010-07-17T17:36:20Z</time>
<desc>lat.=55.755291, lon.=26.029875, Alt.=169.283325m. Speed=19.080000m/h.</desc>
<speed>5.300000</speed>
</trkpt>
<trkpt lat="55.755299" lon="26.029795">
<ele>169.185669</ele>
<time>2010-07-17T17:36:21Z</time>
<desc>lat.=55.755299, lon.=26.029795, Alt.=169.185669m. Speed=20.375999m/h.</desc>
<speed>5.660000</speed>
</trkpt>
<trkpt lat="55.755314" lon="26.029709">
<ele>169.236450</ele>
<time>2010-07-17T17:36:22Z</time>
<desc>lat.=55.755314, lon.=26.029709, Alt.=169.236450m. Speed=19.511999m/h.</desc>
<speed>5.420000</speed>
</trkpt>
<trkpt lat="55.755322" lon="26.029615">
<ele>168.615356</ele>
<time>2010-07-17T17:36:23Z</time>
<desc>lat.=55.755322, lon.=26.029615, Alt.=168.615356m. Speed=19.656000m/h.</desc>
<speed>5.460000</speed>
</trkpt>
<trkpt lat="55.755333" lon="26.029526">
<ele>167.783325</ele>
<time>2010-07-17T17:36:24Z</time>
<desc>lat.=55.755333, lon.=26.029526, Alt.=167.783325m. Speed=20.844000m/h.</desc>
<speed>5.790000</speed>
</trkpt>
<trkpt lat="55.755348" lon="26.029427">
<ele>167.345825</ele>
<time>2010-07-17T17:36:25Z</time>
<desc>lat.=55.755348, lon.=26.029427, Alt.=167.345825m. Speed=21.708000m/h.</desc>
<speed>6.030000</speed>
</trkpt>
<trkpt lat="55.755371" lon="26.029329">
<ele>167.310669</ele>
<time>2010-07-17T17:36:26Z</time>
<desc>lat.=55.755371, lon.=26.029329, Alt.=167.310669m. Speed=23.436001m/h.</desc>
<speed>6.510000</speed>
</trkpt>
<trkpt lat="55.755386" lon="26.029230">
<ele>166.853638</ele>
<time>2010-07-17T17:36:27Z</time>
<desc>lat.=55.755386, lon.=26.029230, Alt.=166.853638m. Speed=22.104000m/h.</desc>
<speed>6.140000</speed>
</trkpt>
<trkpt lat="55.755405" lon="26.029133">
<ele>166.646606</ele>
<time>2010-07-17T17:36:28Z</time>
<desc>lat.=55.755405, lon.=26.029133, Alt.=166.646606m. Speed=22.392000m/h.</desc>
<speed>6.220000</speed>
</trkpt>
<trkpt lat="55.755424" lon="26.029032">
<ele>166.818481</ele>
<time>2010-07-17T17:36:29Z</time>
<desc>lat.=55.755424, lon.=26.029032, Alt.=166.818481m. Speed=23.219999m/h.</desc>
<speed>6.450000</speed>
</trkpt>
<trkpt lat="55.755444" lon="26.028934">
<ele>167.052856</ele>
<time>2010-07-17T17:36:30Z</time>
<desc>lat.=55.755444, lon.=26.028934, Alt.=167.052856m. Speed=20.052000m/h.</desc>
<speed>5.570000</speed>
</trkpt>
<trkpt lat="55.755466" lon="26.028860">
<ele>167.037231</ele>
<time>2010-07-17T17:36:31Z</time>
<desc>lat.=55.755466, lon.=26.028860, Alt.=167.037231m. Speed=18.719999m/h.</desc>
<speed>5.200000</speed>
</trkpt>
<trkpt lat="55.755489" lon="26.028788">
<ele>166.888794</ele>
<time>2010-07-17T17:36:32Z</time>
<desc>lat.=55.755489, lon.=26.028788, Alt.=166.888794m. Speed=23.400000m/h.</desc>
<speed>6.500000</speed>
</trkpt>
<trkpt lat="55.755516" lon="26.028715">
<ele>166.611450</ele>
<time>2010-07-17T17:36:33Z</time>
<desc>lat.=55.755516, lon.=26.028715, Alt.=166.611450m. Speed=19.728001m/h.</desc>
<speed>5.480000</speed>
</trkpt>
<trkpt lat="55.755543" lon="26.028645">
<ele>165.959106</ele>
<time>2010-07-17T17:36:34Z</time>
<desc>lat.=55.755543, lon.=26.028645, Alt.=165.959106m. Speed=19.764000m/h.</desc>
<speed>5.490000</speed>
</trkpt>
<trkpt lat="55.755566" lon="26.028568">
<ele>164.814575</ele>
<time>2010-07-17T17:36:35Z</time>
<desc>lat.=55.755566, lon.=26.028568, Alt.=164.814575m. Speed=19.620001m/h.</desc>
<speed>5.450000</speed>
</trkpt>
<trkpt lat="55.755592" lon="26.028502">
<ele>164.310669</ele>
<time>2010-07-17T17:36:36Z</time>
<desc>lat.=55.755592, lon.=26.028502, Alt.=164.310669m. Speed=18.576000m/h.</desc>
<speed>5.160000</speed>
</trkpt>
<trkpt lat="55.755619" lon="26.028437">
<ele>163.673950</ele>
<time>2010-07-17T17:36:37Z</time>
<desc>lat.=55.755619, lon.=26.028437, Alt.=163.673950m. Speed=16.271999m/h.</desc>
<speed>4.520000</speed>
</trkpt>
<trkpt lat="55.755642" lon="26.028378">
<ele>163.341919</ele>
<time>2010-07-17T17:36:38Z</time>
<desc>lat.=55.755642, lon.=26.028378, Alt.=163.341919m. Speed=15.876000m/h.</desc>
<speed>4.410000</speed>
</trkpt>
<trkpt lat="55.755665" lon="26.028326">
<ele>162.771606</ele>
<time>2010-07-17T17:36:39Z</time>
<desc>lat.=55.755665, lon.=26.028326, Alt.=162.771606m. Speed=14.508000m/h.</desc>
<speed>4.030000</speed>
</trkpt>
<trkpt lat="55.755684" lon="26.028273">
<ele>162.576294</ele>
<time>2010-07-17T17:36:40Z</time>
<desc>lat.=55.755684, lon.=26.028273, Alt.=162.576294m. Speed=14.076000m/h.</desc>
<speed>3.910000</speed>
</trkpt>
<trkpt lat="55.755703" lon="26.028227">
<ele>162.623169</ele>
<time>2010-07-17T17:36:41Z</time>
<desc>lat.=55.755703, lon.=26.028227, Alt.=162.623169m. Speed=14.040000m/h.</desc>
<speed>3.900000</speed>
</trkpt>
<trkpt lat="55.755722" lon="26.028175">
<ele>162.705200</ele>
<time>2010-07-17T17:36:42Z</time>
<desc>lat.=55.755722, lon.=26.028175, Alt.=162.705200m. Speed=11.808000m/h.</desc>
<speed>3.280000</speed>
</trkpt>
<trkpt lat="55.755749" lon="26.028135">
<ele>163.037231</ele>
<time>2010-07-17T17:36:43Z</time>
<desc>lat.=55.755749, lon.=26.028135, Alt.=163.037231m. Speed=12.780000m/h.</desc>
<speed>3.550000</speed>
</trkpt>
<trkpt lat="55.755772" lon="26.028090">
<ele>162.767700</ele>
<time>2010-07-17T17:36:44Z</time>
<desc>lat.=55.755772, lon.=26.028090, Alt.=162.767700m. Speed=11.772000m/h.</desc>
<speed>3.270000</speed>
</trkpt>
<trkpt lat="55.755802" lon="26.028049">
<ele>163.502075</ele>
<time>2010-07-17T17:36:45Z</time>
<desc>lat.=55.755802, lon.=26.028049, Alt.=163.502075m. Speed=12.888000m/h.</desc>
<speed>3.580000</speed>
</trkpt>
<trkpt lat="55.755833" lon="26.027994">
<ele>164.322388</ele>
<time>2010-07-17T17:36:46Z</time>
<desc>lat.=55.755833, lon.=26.027994, Alt.=164.322388m. Speed=14.076000m/h.</desc>
<speed>3.910000</speed>
</trkpt>
<trkpt lat="55.755848" lon="26.027950">
<ele>164.767700</ele>
<time>2010-07-17T17:36:47Z</time>
<desc>lat.=55.755848, lon.=26.027950, Alt.=164.767700m. Speed=9.504000m/h.</desc>
<speed>2.640000</speed>
</trkpt>
<trkpt lat="55.755856" lon="26.027931">
<ele>164.978638</ele>
<time>2010-07-17T17:36:48Z</time>
<desc>lat.=55.755856, lon.=26.027931, Alt.=164.978638m. Speed=3.816000m/h.</desc>
<speed>1.060000</speed>
</trkpt>
<trkpt lat="55.755863" lon="26.027922">
<ele>165.650513</ele>
<time>2010-07-17T17:36:49Z</time>
<desc>lat.=55.755863, lon.=26.027922, Alt.=165.650513m. Speed=0.324000m/h.</desc>
<speed>0.090000</speed>
</trkpt>
<trkpt lat="55.755867" lon="26.027918">
<ele>166.447388</ele>
<time>2010-07-17T17:36:50Z</time>
<desc>lat.=55.755867, lon.=26.027918, Alt.=166.447388m. Speed=0.108000m/h.</desc>
<speed>0.030000</speed>
</trkpt>
<trkpt lat="55.755871" lon="26.027914">
<ele>166.923950</ele>
<time>2010-07-17T17:36:51Z</time>
<desc>lat.=55.755871, lon.=26.027914, Alt.=166.923950m. Speed=0.036000m/h.</desc>
<speed>0.010000</speed>
</trkpt>
<trkpt lat="55.755871" lon="26.027916">
<ele>167.248169</ele>
<time>2010-07-17T17:36:52Z</time>
<desc>lat.=55.755871, lon.=26.027916, Alt.=167.248169m. Speed=0.540000m/h.</desc>
<speed>0.150000</speed>
</trkpt>
<trkpt lat="55.755871" lon="26.027916">
<ele>167.240356</ele>
<time>2010-07-17T17:36:53Z</time>
<desc>lat.=55.755871, lon.=26.027916, Alt.=167.240356m. Speed=0.216000m/h.</desc>
<speed>0.060000</speed>
</trkpt>
<trkpt lat="55.755871" lon="26.027916">
<ele>167.255981</ele>
<time>2010-07-17T17:36:54Z</time>
<desc>lat.=55.755871, lon.=26.027916, Alt.=167.255981m. Speed=0.252000m/h.</desc>
<speed>0.070000</speed>
</trkpt>
<trkpt lat="55.755871" lon="26.027916">
<ele>167.248169</ele>
<time>2010-07-17T17:36:55Z</time>
<desc>lat.=55.755871, lon.=26.027916, Alt.=167.248169m. Speed=0.180000m/h.</desc>
<speed>0.050000</speed>
</trkpt>
<trkpt lat="55.755871" lon="26.027916">
<ele>167.255981</ele>
<time>2010-07-17T17:36:56Z</time>
<desc>lat.=55.755871, lon.=26.027916, Alt.=167.255981m. Speed=0.108000m/h.</desc>
<speed>0.030000</speed>
</trkpt>
<trkpt lat="55.755871" lon="26.027916">
<ele>167.259888</ele>
<time>2010-07-17T17:36:57Z</time>
<desc>lat.=55.755871, lon.=26.027916, Alt.=167.259888m. Speed=0.036000m/h.</desc>
<speed>0.010000</speed>
</trkpt>
<trkpt lat="55.755871" lon="26.027916">
<ele>167.267700</ele>
<time>2010-07-17T17:36:58Z</time>
<desc>lat.=55.755871, lon.=26.027916, Alt.=167.267700m. Speed=0.288000m/h.</desc>
<speed>0.080000</speed>
</trkpt>
<trkpt lat="55.755871" lon="26.027916">
<ele>167.275513</ele>
<time>2010-07-17T17:36:59Z</time>
<desc>lat.=55.755871, lon.=26.027916, Alt.=167.275513m. Speed=0.324000m/h.</desc>
<speed>0.090000</speed>
</trkpt>
<trkpt lat="55.755867" lon="26.027914">
<ele>167.287231</ele>
<time>2010-07-17T17:37:00Z</time>
<desc>lat.=55.755867, lon.=26.027914, Alt.=167.287231m. Speed=0.324000m/h.</desc>
<speed>0.090000</speed>
</trkpt>
<trkpt lat="55.755867" lon="26.027914">
<ele>167.302856</ele>
<time>2010-07-17T17:37:01Z</time>
<desc>lat.=55.755867, lon.=26.027914, Alt.=167.302856m. Speed=0.396000m/h.</desc>
<speed>0.110000</speed>
</trkpt>
<trkpt lat="55.755867" lon="26.027914">
<ele>167.318481</ele>
<time>2010-07-17T17:37:02Z</time>
<desc>lat.=55.755867, lon.=26.027914, Alt.=167.318481m. Speed=0.108000m/h.</desc>
<speed>0.030000</speed>
</trkpt>
<trkpt lat="55.755867" lon="26.027914">
<ele>167.330200</ele>
<time>2010-07-17T17:37:03Z</time>
<desc>lat.=55.755867, lon.=26.027914, Alt.=167.330200m. Speed=0.036000m/h.</desc>
<speed>0.010000</speed>
</trkpt>
<trkpt lat="55.755867" lon="26.027914">
<ele>167.345825</ele>
<time>2010-07-17T17:37:04Z</time>
<desc>lat.=55.755867, lon.=26.027914, Alt.=167.345825m. Speed=0.180000m/h.</desc>
<speed>0.050000</speed>
</trkpt>
<trkpt lat="55.755867" lon="26.027914">
<ele>167.357544</ele>
<time>2010-07-17T17:37:05Z</time>
<desc>lat.=55.755867, lon.=26.027914, Alt.=167.357544m. Speed=0.036000m/h.</desc>
<speed>0.010000</speed>
</trkpt>
<trkpt lat="55.755867" lon="26.027914">
<ele>167.377075</ele>
<time>2010-07-17T17:37:06Z</time>
<desc>lat.=55.755867, lon.=26.027914, Alt.=167.377075m. Speed=0.144000m/h.</desc>
<speed>0.040000</speed>
</trkpt>
<trkpt lat="55.755867" lon="26.027912">
<ele>167.384888</ele>
<time>2010-07-17T17:37:07Z</time>
<desc>lat.=55.755867, lon.=26.027912, Alt.=167.384888m. Speed=0.072000m/h.</desc>
<speed>0.020000</speed>
</trkpt>
<trkpt lat="55.755867" lon="26.027912">
<ele>167.396606</ele>
<time>2010-07-17T17:37:08Z</time>
<desc>lat.=55.755867, lon.=26.027912, Alt.=167.396606m. Speed=0.396000m/h.</desc>
<speed>0.110000</speed>
</trkpt>
<trkpt lat="55.755871" lon="26.027910">
<ele>167.408325</ele>
<time>2010-07-17T17:37:09Z</time>
<desc>lat.=55.755871, lon.=26.027910, Alt.=167.408325m. Speed=1.008000m/h.</desc>
<speed>0.280000</speed>
</trkpt>
<trkpt lat="55.755871" lon="26.027906">
<ele>167.416138</ele>
<time>2010-07-17T17:37:10Z</time>
<desc>lat.=55.755871, lon.=26.027906, Alt.=167.416138m. Speed=2.376000m/h.</desc>
<speed>0.660000</speed>
</trkpt>
<trkpt lat="55.755875" lon="26.027901">
<ele>167.423950</ele>
<time>2010-07-17T17:37:11Z</time>
<desc>lat.=55.755875, lon.=26.027901, Alt.=167.423950m. Speed=3.996000m/h.</desc>
<speed>1.110000</speed>
</trkpt>
<trkpt lat="55.755886" lon="26.027874">
<ele>167.084106</ele>
<time>2010-07-17T17:37:12Z</time>
<desc>lat.=55.755886, lon.=26.027874, Alt.=167.084106m. Speed=5.580000m/h.</desc>
<speed>1.550000</speed>
</trkpt>
<trkpt lat="55.755905" lon="26.027861">
<ele>168.072388</ele>
<time>2010-07-17T17:37:13Z</time>
<desc>lat.=55.755905, lon.=26.027861, Alt.=168.072388m. Speed=5.868000m/h.</desc>
<speed>1.630000</speed>
</trkpt>
<trkpt lat="55.755920" lon="26.027838">
<ele>168.412231</ele>
<time>2010-07-17T17:37:14Z</time>
<desc>lat.=55.755920, lon.=26.027838, Alt.=168.412231m. Speed=6.912000m/h.</desc>
<speed>1.920000</speed>
</trkpt>
<trkpt lat="55.755943" lon="26.027802">
<ele>168.302856</ele>
<time>2010-07-17T17:37:15Z</time>
<desc>lat.=55.755943, lon.=26.027802, Alt.=168.302856m. Speed=10.692000m/h.</desc>
<speed>2.970000</speed>
</trkpt>
<trkpt lat="55.755959" lon="26.027754">
<ele>168.759888</ele>
<time>2010-07-17T17:37:16Z</time>
<desc>lat.=55.755959, lon.=26.027754, Alt.=168.759888m. Speed=10.836000m/h.</desc>
<speed>3.010000</speed>
</trkpt>
<trkpt lat="55.755978" lon="26.027712">
<ele>168.673950</ele>
<time>2010-07-17T17:37:17Z</time>
<desc>lat.=55.755978, lon.=26.027712, Alt.=168.673950m. Speed=10.476000m/h.</desc>
<speed>2.910000</speed>
</trkpt>
<trkpt lat="55.756001" lon="26.027666">
<ele>168.896606</ele>
<time>2010-07-17T17:37:18Z</time>
<desc>lat.=55.756001, lon.=26.027666, Alt.=168.896606m. Speed=13.644000m/h.</desc>
<speed>3.790000</speed>
</trkpt>
<trkpt lat="55.756023" lon="26.027618">
<ele>168.939575</ele>
<time>2010-07-17T17:37:19Z</time>
<desc>lat.=55.756023, lon.=26.027618, Alt.=168.939575m. Speed=14.040000m/h.</desc>
<speed>3.900000</speed>
</trkpt>
<trkpt lat="55.756050" lon="26.027573">
<ele>168.521606</ele>
<time>2010-07-17T17:37:20Z</time>
<desc>lat.=55.756050, lon.=26.027573, Alt.=168.521606m. Speed=14.580000m/h.</desc>
<speed>4.050000</speed>
</trkpt>
<trkpt lat="55.756081" lon="26.027514">
<ele>167.869263</ele>
<time>2010-07-17T17:37:21Z</time>
<desc>lat.=55.756081, lon.=26.027514, Alt.=167.869263m. Speed=15.948000m/h.</desc>
<speed>4.430000</speed>
</trkpt>
<trkpt lat="55.756107" lon="26.027458">
<ele>167.455200</ele>
<time>2010-07-17T17:37:22Z</time>
<desc>lat.=55.756107, lon.=26.027458, Alt.=167.455200m. Speed=17.351999m/h.</desc>
<speed>4.820000</speed>
</trkpt>
<trkpt lat="55.756138" lon="26.027395">
<ele>168.880981</ele>
<time>2010-07-17T17:37:23Z</time>
<desc>lat.=55.756138, lon.=26.027395, Alt.=168.880981m. Speed=17.028000m/h.</desc>
<speed>4.730000</speed>
</trkpt>
<trkpt lat="55.756172" lon="26.027346">
<ele>169.154419</ele>
<time>2010-07-17T17:37:24Z</time>
<desc>lat.=55.756172, lon.=26.027346, Alt.=169.154419m. Speed=15.840000m/h.</desc>
<speed>4.400000</speed>
</trkpt>
<trkpt lat="55.756207" lon="26.027290">
<ele>168.423950</ele>
<time>2010-07-17T17:37:25Z</time>
<desc>lat.=55.756207, lon.=26.027290, Alt.=168.423950m. Speed=16.667999m/h.</desc>
<speed>4.630000</speed>
</trkpt>
<trkpt lat="55.756237" lon="26.027241">
<ele>168.412231</ele>
<time>2010-07-17T17:37:26Z</time>
<desc>lat.=55.756237, lon.=26.027241, Alt.=168.412231m. Speed=17.208000m/h.</desc>
<speed>4.780000</speed>
</trkpt>
<trkpt lat="55.756271" lon="26.027184">
<ele>168.470825</ele>
<time>2010-07-17T17:37:27Z</time>
<desc>lat.=55.756271, lon.=26.027184, Alt.=168.470825m. Speed=18.612000m/h.</desc>
<speed>5.170000</speed>
</trkpt>
<trkpt lat="55.756302" lon="26.027119">
<ele>168.377075</ele>
<time>2010-07-17T17:37:28Z</time>
<desc>lat.=55.756302, lon.=26.027119, Alt.=168.377075m. Speed=18.396000m/h.</desc>
<speed>5.110000</speed>
</trkpt>
<trkpt lat="55.756332" lon="26.027050">
<ele>168.478638</ele>
<time>2010-07-17T17:37:29Z</time>
<desc>lat.=55.756332, lon.=26.027050, Alt.=168.478638m. Speed=19.764000m/h.</desc>
<speed>5.490000</speed>
</trkpt>
<trkpt lat="55.756367" lon="26.026985">
<ele>168.267700</ele>
<time>2010-07-17T17:37:30Z</time>
<desc>lat.=55.756367, lon.=26.026985, Alt.=168.267700m. Speed=19.980000m/h.</desc>
<speed>5.550000</speed>
</trkpt>
<trkpt lat="55.756405" lon="26.026920">
<ele>167.982544</ele>
<time>2010-07-17T17:37:31Z</time>
<desc>lat.=55.756405, lon.=26.026920, Alt.=167.982544m. Speed=20.195999m/h.</desc>
<speed>5.610000</speed>
</trkpt>
<trkpt lat="55.756435" lon="26.026859">
<ele>167.798950</ele>
<time>2010-07-17T17:37:32Z</time>
<desc>lat.=55.756435, lon.=26.026859, Alt.=167.798950m. Speed=18.972000m/h.</desc>
<speed>5.270000</speed>
</trkpt>
<trkpt lat="55.756477" lon="26.026802">
<ele>168.334106</ele>
<time>2010-07-17T17:37:33Z</time>
<desc>lat.=55.756477, lon.=26.026802, Alt.=168.334106m. Speed=18.360001m/h.</desc>
<speed>5.100000</speed>
</trkpt>
<trkpt lat="55.756512" lon="26.026739">
<ele>169.060669</ele>
<time>2010-07-17T17:37:34Z</time>
<desc>lat.=55.756512, lon.=26.026739, Alt.=169.060669m. Speed=18.972000m/h.</desc>
<speed>5.270000</speed>
</trkpt>
<trkpt lat="55.756550" lon="26.026674">
<ele>169.115356</ele>
<time>2010-07-17T17:37:35Z</time>
<desc>lat.=55.756550, lon.=26.026674, Alt.=169.115356m. Speed=22.392000m/h.</desc>
<speed>6.220000</speed>
</trkpt>
<trkpt lat="55.756592" lon="26.026600">
<ele>168.994263</ele>
<time>2010-07-17T17:37:36Z</time>
<desc>lat.=55.756592, lon.=26.026600, Alt.=168.994263m. Speed=21.384001m/h.</desc>
<speed>5.940000</speed>
</trkpt>
<trkpt lat="55.756626" lon="26.026529">
<ele>168.849731</ele>
<time>2010-07-17T17:37:37Z</time>
<desc>lat.=55.756626, lon.=26.026529, Alt.=168.849731m. Speed=20.879999m/h.</desc>
<speed>5.800000</speed>
</trkpt>
<trkpt lat="55.756664" lon="26.026455">
<ele>168.513794</ele>
<time>2010-07-17T17:37:38Z</time>
<desc>lat.=55.756664, lon.=26.026455, Alt.=168.513794m. Speed=21.132000m/h.</desc>
<speed>5.870000</speed>
</trkpt>
<trkpt lat="55.756702" lon="26.026382">
<ele>168.209106</ele>
<time>2010-07-17T17:37:39Z</time>
<desc>lat.=55.756702, lon.=26.026382, Alt.=168.209106m. Speed=22.860001m/h.</desc>
<speed>6.350000</speed>
</trkpt>
<trkpt lat="55.756748" lon="26.026310">
<ele>168.224731</ele>
<time>2010-07-17T17:37:40Z</time>
<desc>lat.=55.756748, lon.=26.026310, Alt.=168.224731m. Speed=22.356001m/h.</desc>
<speed>6.210000</speed>
</trkpt>
<trkpt lat="55.756790" lon="26.026236">
<ele>168.533325</ele>
<time>2010-07-17T17:37:41Z</time>
<desc>lat.=55.756790, lon.=26.026236, Alt.=168.533325m. Speed=23.940001m/h.</desc>
<speed>6.650000</speed>
</trkpt>
<trkpt lat="55.756832" lon="26.026157">
<ele>169.134888</ele>
<time>2010-07-17T17:37:42Z</time>
<desc>lat.=55.756832, lon.=26.026157, Alt.=169.134888m. Speed=23.868000m/h.</desc>
<speed>6.630000</speed>
</trkpt>
<trkpt lat="55.756874" lon="26.026098">
<ele>169.795044</ele>
<time>2010-07-17T17:37:43Z</time>
<desc>lat.=55.756874, lon.=26.026098, Alt.=169.795044m. Speed=20.087999m/h.</desc>
<speed>5.580000</speed>
</trkpt>
<trkpt lat="55.756912" lon="26.026031">
<ele>169.552856</ele>
<time>2010-07-17T17:37:44Z</time>
<desc>lat.=55.756912, lon.=26.026031, Alt.=169.552856m. Speed=24.516001m/h.</desc>
<speed>6.810000</speed>
</trkpt>
<trkpt lat="55.756958" lon="26.025946">
<ele>168.955200</ele>
<time>2010-07-17T17:37:45Z</time>
<desc>lat.=55.756958, lon.=26.025946, Alt.=168.955200m. Speed=24.840000m/h.</desc>
<speed>6.900000</speed>
</trkpt>
<trkpt lat="55.757004" lon="26.025860">
<ele>168.486450</ele>
<time>2010-07-17T17:37:46Z</time>
<desc>lat.=55.757004, lon.=26.025860, Alt.=168.486450m. Speed=24.372000m/h.</desc>
<speed>6.770000</speed>
</trkpt>
<trkpt lat="55.757046" lon="26.025782">
<ele>167.615356</ele>
<time>2010-07-17T17:37:47Z</time>
<desc>lat.=55.757046, lon.=26.025782, Alt.=167.615356m. Speed=24.732000m/h.</desc>
<speed>6.870000</speed>
</trkpt>
<trkpt lat="55.757092" lon="26.025702">
<ele>166.994263</ele>
<time>2010-07-17T17:37:48Z</time>
<desc>lat.=55.757092, lon.=26.025702, Alt.=166.994263m. Speed=24.336000m/h.</desc>
<speed>6.760000</speed>
</trkpt>
<trkpt lat="55.757137" lon="26.025618">
<ele>166.666138</ele>
<time>2010-07-17T17:37:49Z</time>
<desc>lat.=55.757137, lon.=26.025618, Alt.=166.666138m. Speed=24.480000m/h.</desc>
<speed>6.800000</speed>
</trkpt>
<trkpt lat="55.757175" lon="26.025536">
<ele>166.478638</ele>
<time>2010-07-17T17:37:50Z</time>
<desc>lat.=55.757175, lon.=26.025536, Alt.=166.478638m. Speed=24.011999m/h.</desc>
<speed>6.670000</speed>
</trkpt>
<trkpt lat="55.757217" lon="26.025459">
<ele>166.736450</ele>
<time>2010-07-17T17:37:51Z</time>
<desc>lat.=55.757217, lon.=26.025459, Alt.=166.736450m. Speed=23.004000m/h.</desc>
<speed>6.390000</speed>
</trkpt>
<trkpt lat="55.757256" lon="26.025381">
<ele>166.560669</ele>
<time>2010-07-17T17:37:52Z</time>
<desc>lat.=55.757256, lon.=26.025381, Alt.=166.560669m. Speed=23.327999m/h.</desc>
<speed>6.480000</speed>
</trkpt>
<trkpt lat="55.757298" lon="26.025301">
<ele>166.951294</ele>
<time>2010-07-17T17:37:53Z</time>
<desc>lat.=55.757298, lon.=26.025301, Alt.=166.951294m. Speed=21.672001m/h.</desc>
<speed>6.020000</speed>
</trkpt>
<trkpt lat="55.757336" lon="26.025225">
<ele>166.244263</ele>
<time>2010-07-17T17:37:54Z</time>
<desc>lat.=55.757336, lon.=26.025225, Alt.=166.244263m. Speed=22.968000m/h.</desc>
<speed>6.380000</speed>
</trkpt>
<trkpt lat="55.757378" lon="26.025152">
<ele>166.138794</ele>
<time>2010-07-17T17:37:55Z</time>
<desc>lat.=55.757378, lon.=26.025152, Alt.=166.138794m. Speed=21.959999m/h.</desc>
<speed>6.100000</speed>
</trkpt>
<trkpt lat="55.757416" lon="26.025082">
<ele>166.017700</ele>
<time>2010-07-17T17:37:56Z</time>
<desc>lat.=55.757416, lon.=26.025082, Alt.=166.017700m. Speed=20.844000m/h.</desc>
<speed>5.790000</speed>
</trkpt>
<trkpt lat="55.757454" lon="26.025011">
<ele>165.259888</ele>
<time>2010-07-17T17:37:57Z</time>
<desc>lat.=55.757454, lon.=26.025011, Alt.=165.259888m. Speed=21.420000m/h.</desc>
<speed>5.950000</speed>
</trkpt>
<trkpt lat="55.757488" lon="26.024940">
<ele>164.873169</ele>
<time>2010-07-17T17:37:58Z</time>
<desc>lat.=55.757488, lon.=26.024940, Alt.=164.873169m. Speed=20.664000m/h.</desc>
<speed>5.740000</speed>
</trkpt>
<trkpt lat="55.757523" lon="26.024874">
<ele>164.826294</ele>
<time>2010-07-17T17:37:59Z</time>
<desc>lat.=55.757523, lon.=26.024874, Alt.=164.826294m. Speed=20.304001m/h.</desc>
<speed>5.640000</speed>
</trkpt>
<trkpt lat="55.757565" lon="26.024790">
<ele>164.498169</ele>
<time>2010-07-17T17:38:00Z</time>
<desc>lat.=55.757565, lon.=26.024790, Alt.=164.498169m. Speed=21.888000m/h.</desc>
<speed>6.080000</speed>
</trkpt>
<trkpt lat="55.757607" lon="26.024717">
<ele>164.455200</ele>
<time>2010-07-17T17:38:01Z</time>
<desc>lat.=55.757607, lon.=26.024717, Alt.=164.455200m. Speed=22.427999m/h.</desc>
<speed>6.230000</speed>
</trkpt>
<trkpt lat="55.757648" lon="26.024645">
<ele>164.427856</ele>
<time>2010-07-17T17:38:02Z</time>
<desc>lat.=55.757648, lon.=26.024645, Alt.=164.427856m. Speed=22.643999m/h.</desc>
<speed>6.290000</speed>
</trkpt>
<trkpt lat="55.757683" lon="26.024569">
<ele>164.099731</ele>
<time>2010-07-17T17:38:03Z</time>
<desc>lat.=55.757683, lon.=26.024569, Alt.=164.099731m. Speed=21.996000m/h.</desc>
<speed>6.110000</speed>
</trkpt>
<trkpt lat="55.757717" lon="26.024496">
<ele>163.603638</ele>
<time>2010-07-17T17:38:04Z</time>
<desc>lat.=55.757717, lon.=26.024496, Alt.=163.603638m. Speed=20.700001m/h.</desc>
<speed>5.750000</speed>
</trkpt>
<trkpt lat="55.757755" lon="26.024431">
<ele>164.033325</ele>
<time>2010-07-17T17:38:05Z</time>
<desc>lat.=55.757755, lon.=26.024431, Alt.=164.033325m. Speed=21.240000m/h.</desc>
<speed>5.900000</speed>
</trkpt>
<trkpt lat="55.757790" lon="26.024364">
<ele>164.302856</ele>
<time>2010-07-17T17:38:06Z</time>
<desc>lat.=55.757790, lon.=26.024364, Alt.=164.302856m. Speed=21.600000m/h.</desc>
<speed>6.000000</speed>
</trkpt>
<trkpt lat="55.757832" lon="26.024294">
<ele>166.166138</ele>
<time>2010-07-17T17:38:07Z</time>
<desc>lat.=55.757832, lon.=26.024294, Alt.=166.166138m. Speed=23.832001m/h.</desc>
<speed>6.620000</speed>
</trkpt>
<trkpt lat="55.757874" lon="26.024242">
<ele>166.408325</ele>
<time>2010-07-17T17:38:08Z</time>
<desc>lat.=55.757874, lon.=26.024242, Alt.=166.408325m. Speed=19.548000m/h.</desc>
<speed>5.430000</speed>
</trkpt>
<trkpt lat="55.757912" lon="26.024187">
<ele>166.849731</ele>
<time>2010-07-17T17:38:09Z</time>
<desc>lat.=55.757912, lon.=26.024187, Alt.=166.849731m. Speed=18.827999m/h.</desc>
<speed>5.230000</speed>
</trkpt>
<trkpt lat="55.757946" lon="26.024128">
<ele>167.185669</ele>
<time>2010-07-17T17:38:10Z</time>
<desc>lat.=55.757946, lon.=26.024128, Alt.=167.185669m. Speed=19.115999m/h.</desc>
<speed>5.310000</speed>
</trkpt>
<trkpt lat="55.757980" lon="26.024067">
<ele>167.517700</ele>
<time>2010-07-17T17:38:11Z</time>
<desc>lat.=55.757980, lon.=26.024067, Alt.=167.517700m. Speed=19.980000m/h.</desc>
<speed>5.550000</speed>
</trkpt>
<trkpt lat="55.758015" lon="26.023993">
<ele>167.396606</ele>
<time>2010-07-17T17:38:12Z</time>
<desc>lat.=55.758015, lon.=26.023993, Alt.=167.396606m. Speed=19.764000m/h.</desc>
<speed>5.490000</speed>
</trkpt>
<trkpt lat="55.758049" lon="26.023920">
<ele>168.384888</ele>
<time>2010-07-17T17:38:13Z</time>
<desc>lat.=55.758049, lon.=26.023920, Alt.=168.384888m. Speed=17.784000m/h.</desc>
<speed>4.940000</speed>
</trkpt>
<trkpt lat="55.758091" lon="26.023851">
<ele>168.509888</ele>
<time>2010-07-17T17:38:14Z</time>
<desc>lat.=55.758091, lon.=26.023851, Alt.=168.509888m. Speed=20.232000m/h.</desc>
<speed>5.620000</speed>
</trkpt>
<trkpt lat="55.758133" lon="26.023783">
<ele>169.009888</ele>
<time>2010-07-17T17:38:15Z</time>
<desc>lat.=55.758133, lon.=26.023783, Alt.=169.009888m. Speed=20.844000m/h.</desc>
<speed>5.790000</speed>
</trkpt>
<trkpt lat="55.758171" lon="26.023712">
<ele>168.755981</ele>
<time>2010-07-17T17:38:16Z</time>
<desc>lat.=55.758171, lon.=26.023712, Alt.=168.755981m. Speed=20.375999m/h.</desc>
<speed>5.660000</speed>
</trkpt>
<trkpt lat="55.758209" lon="26.023643">
<ele>168.459106</ele>
<time>2010-07-17T17:38:17Z</time>
<desc>lat.=55.758209, lon.=26.023643, Alt.=168.459106m. Speed=23.219999m/h.</desc>
<speed>6.450000</speed>
</trkpt>
<trkpt lat="55.758247" lon="26.023575">
<ele>168.588013</ele>
<time>2010-07-17T17:38:18Z</time>
<desc>lat.=55.758247, lon.=26.023575, Alt.=168.588013m. Speed=20.412001m/h.</desc>
<speed>5.670000</speed>
</trkpt>
<trkpt lat="55.758282" lon="26.023518">
<ele>168.873169</ele>
<time>2010-07-17T17:38:19Z</time>
<desc>lat.=55.758282, lon.=26.023518, Alt.=168.873169m. Speed=18.143999m/h.</desc>
<speed>5.040000</speed>
</trkpt>
<trkpt lat="55.758308" lon="26.023460">
<ele>169.080200</ele>
<time>2010-07-17T17:38:20Z</time>
<desc>lat.=55.758308, lon.=26.023460, Alt.=169.080200m. Speed=15.732000m/h.</desc>
<speed>4.370000</speed>
</trkpt>
<trkpt lat="55.758335" lon="26.023409">
<ele>169.252075</ele>
<time>2010-07-17T17:38:21Z</time>
<desc>lat.=55.758335, lon.=26.023409, Alt.=169.252075m. Speed=15.696000m/h.</desc>
<speed>4.360000</speed>
</trkpt>
<trkpt lat="55.758358" lon="26.023369">
<ele>168.740356</ele>
<time>2010-07-17T17:38:22Z</time>
<desc>lat.=55.758358, lon.=26.023369, Alt.=168.740356m. Speed=11.412000m/h.</desc>
<speed>3.170000</speed>
</trkpt>
<trkpt lat="55.758377" lon="26.023338">
<ele>168.275513</ele>
<time>2010-07-17T17:38:23Z</time>
<desc>lat.=55.758377, lon.=26.023338, Alt.=168.275513m. Speed=9.180000m/h.</desc>
<speed>2.550000</speed>
</trkpt>
<trkpt lat="55.758396" lon="26.023312">
<ele>168.345825</ele>
<time>2010-07-17T17:38:24Z</time>
<desc>lat.=55.758396, lon.=26.023312, Alt.=168.345825m. Speed=6.804000m/h.</desc>
<speed>1.890000</speed>
</trkpt>
<trkpt lat="55.758411" lon="26.023289">
<ele>168.646606</ele>
<time>2010-07-17T17:38:25Z</time>
<desc>lat.=55.758411, lon.=26.023289, Alt.=168.646606m. Speed=6.192000m/h.</desc>
<speed>1.720000</speed>
</trkpt>
<trkpt lat="55.758427" lon="26.023281">
<ele>168.564575</ele>
<time>2010-07-17T17:38:26Z</time>
<desc>lat.=55.758427, lon.=26.023281, Alt.=168.564575m. Speed=5.724000m/h.</desc>
<speed>1.590000</speed>
</trkpt>
<trkpt lat="55.758438" lon="26.023268">
<ele>168.076294</ele>
<time>2010-07-17T17:38:27Z</time>
<desc>lat.=55.758438, lon.=26.023268, Alt.=168.076294m. Speed=5.292000m/h.</desc>
<speed>1.470000</speed>
</trkpt>
<trkpt lat="55.758453" lon="26.023260">
<ele>168.466919</ele>
<time>2010-07-17T17:38:28Z</time>
<desc>lat.=55.758453, lon.=26.023260, Alt.=168.466919m. Speed=3.384000m/h.</desc>
<speed>0.940000</speed>
</trkpt>
<trkpt lat="55.758457" lon="26.023264">
<ele>168.693481</ele>
<time>2010-07-17T17:38:29Z</time>
<desc>lat.=55.758457, lon.=26.023264, Alt.=168.693481m. Speed=1.332000m/h.</desc>
<speed>0.370000</speed>
</trkpt>
<trkpt lat="55.758457" lon="26.023272">
<ele>168.693481</ele>
<time>2010-07-17T17:38:30Z</time>
<desc>lat.=55.758457, lon.=26.023272, Alt.=168.693481m. Speed=0.648000m/h.</desc>
<speed>0.180000</speed>
</trkpt>
<trkpt lat="55.758457" lon="26.023268">
<ele>168.705200</ele>
<time>2010-07-17T17:38:31Z</time>
<desc>lat.=55.758457, lon.=26.023268, Alt.=168.705200m. Speed=0.036000m/h.</desc>
<speed>0.010000</speed>
</trkpt>
<trkpt lat="55.758457" lon="26.023270">
<ele>168.783325</ele>
<time>2010-07-17T17:38:32Z</time>
<desc>lat.=55.758457, lon.=26.023270, Alt.=168.783325m. Speed=0.432000m/h.</desc>
<speed>0.120000</speed>
</trkpt>
<trkpt lat="55.758453" lon="26.023270">
<ele>168.834106</ele>
<time>2010-07-17T17:38:33Z</time>
<desc>lat.=55.758453, lon.=26.023270, Alt.=168.834106m. Speed=0.144000m/h.</desc>
<speed>0.040000</speed>
</trkpt>
<trkpt lat="55.758453" lon="26.023270">
<ele>168.873169</ele>
<time>2010-07-17T17:38:34Z</time>
<desc>lat.=55.758453, lon.=26.023270, Alt.=168.873169m. Speed=0.396000m/h.</desc>
<speed>0.110000</speed>
</trkpt>
<trkpt lat="55.758453" lon="26.023272">
<ele>168.904419</ele>
<time>2010-07-17T17:38:35Z</time>
<desc>lat.=55.758453, lon.=26.023272, Alt.=168.904419m. Speed=0.936000m/h.</desc>
<speed>0.260000</speed>
</trkpt>
<trkpt lat="55.758450" lon="26.023273">
<ele>168.927856</ele>
<time>2010-07-17T17:38:36Z</time>
<desc>lat.=55.758450, lon.=26.023273, Alt.=168.927856m. Speed=0.936000m/h.</desc>
<speed>0.260000</speed>
</trkpt>
<trkpt lat="55.758450" lon="26.023275">
<ele>168.951294</ele>
<time>2010-07-17T17:38:37Z</time>
<desc>lat.=55.758450, lon.=26.023275, Alt.=168.951294m. Speed=0.108000m/h.</desc>
<speed>0.030000</speed>
</trkpt>
<trkpt lat="55.758450" lon="26.023273">
<ele>168.970825</ele>
<time>2010-07-17T17:38:38Z</time>
<desc>lat.=55.758450, lon.=26.023273, Alt.=168.970825m. Speed=0.504000m/h.</desc>
<speed>0.140000</speed>
</trkpt>
<trkpt lat="55.758450" lon="26.023275">
<ele>168.990356</ele>
<time>2010-07-17T17:38:39Z</time>
<desc>lat.=55.758450, lon.=26.023275, Alt.=168.990356m. Speed=0.252000m/h.</desc>
<speed>0.070000</speed>
</trkpt>
<trkpt lat="55.758453" lon="26.023275">
<ele>169.009888</ele>
<time>2010-07-17T17:38:40Z</time>
<desc>lat.=55.758453, lon.=26.023275, Alt.=169.009888m. Speed=0.432000m/h.</desc>
<speed>0.120000</speed>
</trkpt>
<trkpt lat="55.758453" lon="26.023273">
<ele>169.021606</ele>
<time>2010-07-17T17:38:41Z</time>
<desc>lat.=55.758453, lon.=26.023273, Alt.=169.021606m. Speed=0.036000m/h.</desc>
<speed>0.010000</speed>
</trkpt>
<trkpt lat="55.758453" lon="26.023273">
<ele>169.037231</ele>
<time>2010-07-17T17:38:42Z</time>
<desc>lat.=55.758453, lon.=26.023273, Alt.=169.037231m. Speed=0.504000m/h.</desc>
<speed>0.140000</speed>
</trkpt>
<trkpt lat="55.758453" lon="26.023273">
<ele>169.048950</ele>
<time>2010-07-17T17:38:43Z</time>
<desc>lat.=55.758453, lon.=26.023273, Alt.=169.048950m. Speed=0.540000m/h.</desc>
<speed>0.150000</speed>
</trkpt>
<trkpt lat="55.758453" lon="26.023277">
<ele>169.064575</ele>
<time>2010-07-17T17:38:44Z</time>
<desc>lat.=55.758453, lon.=26.023277, Alt.=169.064575m. Speed=0.720000m/h.</desc>
<speed>0.200000</speed>
</trkpt>
<trkpt lat="55.758457" lon="26.023279">
<ele>169.080200</ele>
<time>2010-07-17T17:38:45Z</time>
<desc>lat.=55.758457, lon.=26.023279, Alt.=169.080200m. Speed=0.540000m/h.</desc>
<speed>0.150000</speed>
</trkpt>
<trkpt lat="55.758457" lon="26.023281">
<ele>169.107544</ele>
<time>2010-07-17T17:38:46Z</time>
<desc>lat.=55.758457, lon.=26.023281, Alt.=169.107544m. Speed=0.144000m/h.</desc>
<speed>0.040000</speed>
</trkpt>
<trkpt lat="55.758457" lon="26.023281">
<ele>169.134888</ele>
<time>2010-07-17T17:38:47Z</time>
<desc>lat.=55.758457, lon.=26.023281, Alt.=169.134888m. Speed=0.324000m/h.</desc>
<speed>0.090000</speed>
</trkpt>
<trkpt lat="55.758457" lon="26.023283">
<ele>169.158325</ele>
<time>2010-07-17T17:38:48Z</time>
<desc>lat.=55.758457, lon.=26.023283, Alt.=169.158325m. Speed=0.324000m/h.</desc>
<speed>0.090000</speed>
</trkpt>
<trkpt lat="55.758457" lon="26.023285">
<ele>169.185669</ele>
<time>2010-07-17T17:38:49Z</time>
<desc>lat.=55.758457, lon.=26.023285, Alt.=169.185669m. Speed=0.252000m/h.</desc>
<speed>0.070000</speed>
</trkpt>
<trkpt lat="55.758457" lon="26.023285">
<ele>169.201294</ele>
<time>2010-07-17T17:38:50Z</time>
<desc>lat.=55.758457, lon.=26.023285, Alt.=169.201294m. Speed=0.180000m/h.</desc>
<speed>0.050000</speed>
</trkpt>
<trkpt lat="55.758457" lon="26.023285">
<ele>169.220825</ele>
<time>2010-07-17T17:38:51Z</time>
<desc>lat.=55.758457, lon.=26.023285, Alt.=169.220825m. Speed=0.144000m/h.</desc>
<speed>0.040000</speed>
</trkpt>
<trkpt lat="55.758457" lon="26.023283">
<ele>169.236450</ele>
<time>2010-07-17T17:38:52Z</time>
<desc>lat.=55.758457, lon.=26.023283, Alt.=169.236450m. Speed=0.288000m/h.</desc>
<speed>0.080000</speed>
</trkpt>
<trkpt lat="55.758457" lon="26.023281">
<ele>169.248169</ele>
<time>2010-07-17T17:38:53Z</time>
<desc>lat.=55.758457, lon.=26.023281, Alt.=169.248169m. Speed=0.324000m/h.</desc>
<speed>0.090000</speed>
</trkpt>
<trkpt lat="55.758457" lon="26.023281">
<ele>169.263794</ele>
<time>2010-07-17T17:38:54Z</time>
<desc>lat.=55.758457, lon.=26.023281, Alt.=169.263794m. Speed=0.288000m/h.</desc>
<speed>0.080000</speed>
</trkpt>
<trkpt lat="55.758457" lon="26.023279">
<ele>169.271606</ele>
<time>2010-07-17T17:38:55Z</time>
<desc>lat.=55.758457, lon.=26.023279, Alt.=169.271606m. Speed=0.504000m/h.</desc>
<speed>0.140000</speed>
</trkpt>
<trkpt lat="55.758457" lon="26.023277">
<ele>169.283325</ele>
<time>2010-07-17T17:38:56Z</time>
<desc>lat.=55.758457, lon.=26.023277, Alt.=169.283325m. Speed=0.432000m/h.</desc>
<speed>0.120000</speed>
</trkpt>
<trkpt lat="55.758457" lon="26.023275">
<ele>169.295044</ele>
<time>2010-07-17T17:38:57Z</time>
<desc>lat.=55.758457, lon.=26.023275, Alt.=169.295044m. Speed=0.144000m/h.</desc>
<speed>0.040000</speed>
</trkpt>
<trkpt lat="55.758457" lon="26.023275">
<ele>169.302856</ele>
<time>2010-07-17T17:38:58Z</time>
<desc>lat.=55.758457, lon.=26.023275, Alt.=169.302856m. Speed=0.144000m/h.</desc>
<speed>0.040000</speed>
</trkpt>
<trkpt lat="55.758457" lon="26.023275">
<ele>169.306763</ele>
<time>2010-07-17T17:38:59Z</time>
<desc>lat.=55.758457, lon.=26.023275, Alt.=169.306763m. Speed=0.252000m/h.</desc>
<speed>0.070000</speed>
</trkpt>
<trkpt lat="55.758457" lon="26.023273">
<ele>169.306763</ele>
<time>2010-07-17T17:39:00Z</time>
<desc>lat.=55.758457, lon.=26.023273, Alt.=169.306763m. Speed=0.180000m/h.</desc>
<speed>0.050000</speed>
</trkpt>
<trkpt lat="55.758457" lon="26.023273">
<ele>169.310669</ele>
<time>2010-07-17T17:39:01Z</time>
<desc>lat.=55.758457, lon.=26.023273, Alt.=169.310669m. Speed=0.216000m/h.</desc>
<speed>0.060000</speed>
</trkpt>
<trkpt lat="55.758457" lon="26.023272">
<ele>169.314575</ele>
<time>2010-07-17T17:39:02Z</time>
<desc>lat.=55.758457, lon.=26.023272, Alt.=169.314575m. Speed=0.000000m/h.</desc>
<speed>0.000000</speed>
</trkpt>
<trkpt lat="55.758457" lon="26.023272">
<ele>169.318481</ele>
<time>2010-07-17T17:39:03Z</time>
<desc>lat.=55.758457, lon.=26.023272, Alt.=169.318481m. Speed=0.936000m/h.</desc>
<speed>0.260000</speed>
</trkpt>
<trkpt lat="55.758457" lon="26.023275">
<ele>169.295044</ele>
<time>2010-07-17T17:39:04Z</time>
<desc>lat.=55.758457, lon.=26.023275, Alt.=169.295044m. Speed=1.008000m/h.</desc>
<speed>0.280000</speed>
</trkpt>
<trkpt lat="55.758457" lon="26.023279">
<ele>169.275513</ele>
<time>2010-07-17T17:39:05Z</time>
<desc>lat.=55.758457, lon.=26.023279, Alt.=169.275513m. Speed=0.432000m/h.</desc>
<speed>0.120000</speed>
</trkpt>
<trkpt lat="55.758461" lon="26.023277">
<ele>169.259888</ele>
<time>2010-07-17T17:39:06Z</time>
<desc>lat.=55.758461, lon.=26.023277, Alt.=169.259888m. Speed=1.008000m/h.</desc>
<speed>0.280000</speed>
</trkpt>
<trkpt lat="55.758461" lon="26.023275">
<ele>169.240356</ele>
<time>2010-07-17T17:39:07Z</time>
<desc>lat.=55.758461, lon.=26.023275, Alt.=169.240356m. Speed=3.600000m/h.</desc>
<speed>1.000000</speed>
</trkpt>
<trkpt lat="55.758469" lon="26.023249">
<ele>169.447388</ele>
<time>2010-07-17T17:39:08Z</time>
<desc>lat.=55.758469, lon.=26.023249, Alt.=169.447388m. Speed=5.148000m/h.</desc>
<speed>1.430000</speed>
</trkpt>
<trkpt lat="55.758480" lon="26.023205">
<ele>169.603638</ele>
<time>2010-07-17T17:39:09Z</time>
<desc>lat.=55.758480, lon.=26.023205, Alt.=169.603638m. Speed=6.588000m/h.</desc>
<speed>1.830000</speed>
</trkpt>
<trkpt lat="55.758469" lon="26.023180">
<ele>169.045044</ele>
<time>2010-07-17T17:39:10Z</time>
<desc>lat.=55.758469, lon.=26.023180, Alt.=169.045044m. Speed=5.292000m/h.</desc>
<speed>1.470000</speed>
</trkpt>
<trkpt lat="55.758461" lon="26.023153">
<ele>168.716919</ele>
<time>2010-07-17T17:39:11Z</time>
<desc>lat.=55.758461, lon.=26.023153, Alt.=168.716919m. Speed=6.552000m/h.</desc>
<speed>1.820000</speed>
</trkpt>
<trkpt lat="55.758450" lon="26.023127">
<ele>168.697388</ele>
<time>2010-07-17T17:39:12Z</time>
<desc>lat.=55.758450, lon.=26.023127, Alt.=168.697388m. Speed=6.624000m/h.</desc>
<speed>1.840000</speed>
</trkpt>
<trkpt lat="55.758442" lon="26.023102">
<ele>168.896606</ele>
<time>2010-07-17T17:39:13Z</time>
<desc>lat.=55.758442, lon.=26.023102, Alt.=168.896606m. Speed=6.768000m/h.</desc>
<speed>1.880000</speed>
</trkpt>
<trkpt lat="55.758430" lon="26.023071">
<ele>169.103638</ele>
<time>2010-07-17T17:39:14Z</time>
<desc>lat.=55.758430, lon.=26.023071, Alt.=169.103638m. Speed=7.776000m/h.</desc>
<speed>2.160000</speed>
</trkpt>
<trkpt lat="55.758415" lon="26.023029">
<ele>169.146606</ele>
<time>2010-07-17T17:39:15Z</time>
<desc>lat.=55.758415, lon.=26.023029, Alt.=169.146606m. Speed=10.116000m/h.</desc>
<speed>2.810000</speed>
</trkpt>
<trkpt lat="55.758404" lon="26.022982">
<ele>169.509888</ele>
<time>2010-07-17T17:39:16Z</time>
<desc>lat.=55.758404, lon.=26.022982, Alt.=169.509888m. Speed=11.052000m/h.</desc>
<speed>3.070000</speed>
</trkpt>
<trkpt lat="55.758389" lon="26.022936">
<ele>170.513794</ele>
<time>2010-07-17T17:39:17Z</time>
<desc>lat.=55.758389, lon.=26.022936, Alt.=170.513794m. Speed=10.872000m/h.</desc>
<speed>3.020000</speed>
</trkpt>
<trkpt lat="55.758373" lon="26.022882">
<ele>170.013794</ele>
<time>2010-07-17T17:39:18Z</time>
<desc>lat.=55.758373, lon.=26.022882, Alt.=170.013794m. Speed=13.860000m/h.</desc>
<speed>3.850000</speed>
</trkpt>
<trkpt lat="55.758350" lon="26.022827">
<ele>170.404419</ele>
<time>2010-07-17T17:39:19Z</time>
<desc>lat.=55.758350, lon.=26.022827, Alt.=170.404419m. Speed=13.428000m/h.</desc>
<speed>3.730000</speed>
</trkpt>
<trkpt lat="55.758331" lon="26.022772">
<ele>170.525513</ele>
<time>2010-07-17T17:39:20Z</time>
<desc>lat.=55.758331, lon.=26.022772, Alt.=170.525513m. Speed=14.688000m/h.</desc>
<speed>4.080000</speed>
</trkpt>
<trkpt lat="55.758308" lon="26.022709">
<ele>170.783325</ele>
<time>2010-07-17T17:39:21Z</time>
<desc>lat.=55.758308, lon.=26.022709, Alt.=170.783325m. Speed=15.300000m/h.</desc>
<speed>4.250000</speed>
</trkpt>
<trkpt lat="55.758282" lon="26.022646">
<ele>171.119263</ele>
<time>2010-07-17T17:39:22Z</time>
<desc>lat.=55.758282, lon.=26.022646, Alt.=171.119263m. Speed=14.940000m/h.</desc>
<speed>4.150000</speed>
</trkpt>
<trkpt lat="55.758259" lon="26.022581">
<ele>172.267700</ele>
<time>2010-07-17T17:39:23Z</time>
<desc>lat.=55.758259, lon.=26.022581, Alt.=172.267700m. Speed=15.588000m/h.</desc>
<speed>4.330000</speed>
</trkpt>
<trkpt lat="55.758240" lon="26.022528">
<ele>172.670044</ele>
<time>2010-07-17T17:39:24Z</time>
<desc>lat.=55.758240, lon.=26.022528, Alt.=172.670044m. Speed=14.292000m/h.</desc>
<speed>3.970000</speed>
</trkpt>
<trkpt lat="55.758221" lon="26.022474">
<ele>172.744263</ele>
<time>2010-07-17T17:39:25Z</time>
<desc>lat.=55.758221, lon.=26.022474, Alt.=172.744263m. Speed=13.752000m/h.</desc>
<speed>3.820000</speed>
</trkpt>
<trkpt lat="55.758202" lon="26.022415">
<ele>172.920044</ele>
<time>2010-07-17T17:39:26Z</time>
<desc>lat.=55.758202, lon.=26.022415, Alt.=172.920044m. Speed=15.840000m/h.</desc>
<speed>4.400000</speed>
</trkpt>
<trkpt lat="55.758179" lon="26.022350">
<ele>173.099731</ele>
<time>2010-07-17T17:39:27Z</time>
<desc>lat.=55.758179, lon.=26.022350, Alt.=173.099731m. Speed=16.056000m/h.</desc>
<speed>4.460000</speed>
</trkpt>
<trkpt lat="55.758152" lon="26.022289">
<ele>173.267700</ele>
<time>2010-07-17T17:39:28Z</time>
<desc>lat.=55.758152, lon.=26.022289, Alt.=173.267700m. Speed=15.228000m/h.</desc>
<speed>4.230000</speed>
</trkpt>
<trkpt lat="55.758125" lon="26.022238">
<ele>173.529419</ele>
<time>2010-07-17T17:39:29Z</time>
<desc>lat.=55.758125, lon.=26.022238, Alt.=173.529419m. Speed=14.580000m/h.</desc>
<speed>4.050000</speed>
</trkpt>
<trkpt lat="55.758099" lon="26.022173">
<ele>173.134888</ele>
<time>2010-07-17T17:39:30Z</time>
<desc>lat.=55.758099, lon.=26.022173, Alt.=173.134888m. Speed=15.264000m/h.</desc>
<speed>4.240000</speed>
</trkpt>
<trkpt lat="55.758080" lon="26.022104">
<ele>173.720825</ele>
<time>2010-07-17T17:39:31Z</time>
<desc>lat.=55.758080, lon.=26.022104, Alt.=173.720825m. Speed=16.524000m/h.</desc>
<speed>4.590000</speed>
</trkpt>
<trkpt lat="55.758060" lon="26.022026">
<ele>174.533325</ele>
<time>2010-07-17T17:39:32Z</time>
<desc>lat.=55.758060, lon.=26.022026, Alt.=174.533325m. Speed=17.676001m/h.</desc>
<speed>4.910000</speed>
</trkpt>
<trkpt lat="55.758041" lon="26.021936">
<ele>175.013794</ele>
<time>2010-07-17T17:39:33Z</time>
<desc>lat.=55.758041, lon.=26.021936, Alt.=175.013794m. Speed=18.612000m/h.</desc>
<speed>5.170000</speed>
</trkpt>
<trkpt lat="55.758015" lon="26.021858">
<ele>175.502075</ele>
<time>2010-07-17T17:39:34Z</time>
<desc>lat.=55.758015, lon.=26.021858, Alt.=175.502075m. Speed=17.063999m/h.</desc>
<speed>4.740000</speed>
</trkpt>
<trkpt lat="55.757996" lon="26.021790">
<ele>176.045044</ele>
<time>2010-07-17T17:39:35Z</time>
<desc>lat.=55.757996, lon.=26.021790, Alt.=176.045044m. Speed=15.768000m/h.</desc>
<speed>4.380000</speed>
</trkpt>
<trkpt lat="55.757977" lon="26.021721">
<ele>176.369263</ele>
<time>2010-07-17T17:39:36Z</time>
<desc>lat.=55.757977, lon.=26.021721, Alt.=176.369263m. Speed=15.876000m/h.</desc>
<speed>4.410000</speed>
</trkpt>
<trkpt lat="55.757954" lon="26.021648">
<ele>176.705200</ele>
<time>2010-07-17T17:39:37Z</time>
<desc>lat.=55.757954, lon.=26.021648, Alt.=176.705200m. Speed=16.667999m/h.</desc>
<speed>4.630000</speed>
</trkpt>
<trkpt lat="55.757935" lon="26.021568">
<ele>177.623169</ele>
<time>2010-07-17T17:39:38Z</time>
<desc>lat.=55.757935, lon.=26.021568, Alt.=177.623169m. Speed=17.100000m/h.</desc>
<speed>4.750000</speed>
</trkpt>
<trkpt lat="55.757908" lon="26.021511">
<ele>177.787231</ele>
<time>2010-07-17T17:39:39Z</time>
<desc>lat.=55.757908, lon.=26.021511, Alt.=177.787231m. Speed=14.976000m/h.</desc>
<speed>4.160000</speed>
</trkpt>
<trkpt lat="55.757877" lon="26.021471">
<ele>177.673950</ele>
<time>2010-07-17T17:39:40Z</time>
<desc>lat.=55.757877, lon.=26.021471, Alt.=177.673950m. Speed=13.968000m/h.</desc>
<speed>3.880000</speed>
</trkpt>
<trkpt lat="55.757839" lon="26.021448">
<ele>178.193481</ele>
<time>2010-07-17T17:39:41Z</time>
<desc>lat.=55.757839, lon.=26.021448, Alt.=178.193481m. Speed=15.912000m/h.</desc>
<speed>4.420000</speed>
</trkpt>
<trkpt lat="55.757793" lon="26.021423">
<ele>178.170044</ele>
<time>2010-07-17T17:39:42Z</time>
<desc>lat.=55.757793, lon.=26.021423, Alt.=178.170044m. Speed=15.696000m/h.</desc>
<speed>4.360000</speed>
</trkpt>
<trkpt lat="55.757751" lon="26.021421">
<ele>178.900513</ele>
<time>2010-07-17T17:39:43Z</time>
<desc>lat.=55.757751, lon.=26.021421, Alt.=178.900513m. Speed=16.091999m/h.</desc>
<speed>4.470000</speed>
</trkpt>
<trkpt lat="55.757706" lon="26.021429">
<ele>179.677856</ele>
<time>2010-07-17T17:39:44Z</time>
<desc>lat.=55.757706, lon.=26.021429, Alt.=179.677856m. Speed=19.152000m/h.</desc>
<speed>5.320000</speed>
</trkpt>
<trkpt lat="55.757656" lon="26.021437">
<ele>179.611450</ele>
<time>2010-07-17T17:39:45Z</time>
<desc>lat.=55.757656, lon.=26.021437, Alt.=179.611450m. Speed=18.576000m/h.</desc>
<speed>5.160000</speed>
</trkpt>
<trkpt lat="55.757607" lon="26.021448">
<ele>178.646606</ele>
<time>2010-07-17T17:39:46Z</time>
<desc>lat.=55.757607, lon.=26.021448, Alt.=178.646606m. Speed=17.856001m/h.</desc>
<speed>4.960000</speed>
</trkpt>
<trkpt lat="55.757565" lon="26.021458">
<ele>178.091919</ele>
<time>2010-07-17T17:39:47Z</time>
<desc>lat.=55.757565, lon.=26.021458, Alt.=178.091919m. Speed=16.452000m/h.</desc>
<speed>4.570000</speed>
</trkpt>
<trkpt lat="55.757515" lon="26.021465">
<ele>177.771606</ele>
<time>2010-07-17T17:39:48Z</time>
<desc>lat.=55.757515, lon.=26.021465, Alt.=177.771606m. Speed=18.756001m/h.</desc>
<speed>5.210000</speed>
</trkpt>
<trkpt lat="55.757465" lon="26.021477">
<ele>177.709106</ele>
<time>2010-07-17T17:39:49Z</time>
<desc>lat.=55.757465, lon.=26.021477, Alt.=177.709106m. Speed=20.304001m/h.</desc>
<speed>5.640000</speed>
</trkpt>
<trkpt lat="55.757408" lon="26.021492">
<ele>177.978638</ele>
<time>2010-07-17T17:39:50Z</time>
<desc>lat.=55.757408, lon.=26.021492, Alt.=177.978638m. Speed=19.691999m/h.</desc>
<speed>5.470000</speed>
</trkpt>
<trkpt lat="55.757355" lon="26.021503">
<ele>177.896606</ele>
<time>2010-07-17T17:39:51Z</time>
<desc>lat.=55.757355, lon.=26.021503, Alt.=177.896606m. Speed=21.167999m/h.</desc>
<speed>5.880000</speed>
</trkpt>
<trkpt lat="55.757298" lon="26.021513">
<ele>177.541138</ele>
<time>2010-07-17T17:39:52Z</time>
<desc>lat.=55.757298, lon.=26.021513, Alt.=177.541138m. Speed=20.448000m/h.</desc>
<speed>5.680000</speed>
</trkpt>
<trkpt lat="55.757240" lon="26.021519">
<ele>177.123169</ele>
<time>2010-07-17T17:39:53Z</time>
<desc>lat.=55.757240, lon.=26.021519, Alt.=177.123169m. Speed=19.584000m/h.</desc>
<speed>5.440000</speed>
</trkpt>
<trkpt lat="55.757191" lon="26.021523">
<ele>177.244263</ele>
<time>2010-07-17T17:39:54Z</time>
<desc>lat.=55.757191, lon.=26.021523, Alt.=177.244263m. Speed=21.167999m/h.</desc>
<speed>5.880000</speed>
</trkpt>
<trkpt lat="55.757137" lon="26.021534">
<ele>177.193481</ele>
<time>2010-07-17T17:39:55Z</time>
<desc>lat.=55.757137, lon.=26.021534, Alt.=177.193481m. Speed=21.420000m/h.</desc>
<speed>5.950000</speed>
</trkpt>
<trkpt lat="55.757084" lon="26.021547">
<ele>178.002075</ele>
<time>2010-07-17T17:39:56Z</time>
<desc>lat.=55.757084, lon.=26.021547, Alt.=178.002075m. Speed=20.340000m/h.</desc>
<speed>5.650000</speed>
</trkpt>
<trkpt lat="55.757030" lon="26.021566">
<ele>177.966919</ele>
<time>2010-07-17T17:39:57Z</time>
<desc>lat.=55.757030, lon.=26.021566, Alt.=177.966919m. Speed=19.872000m/h.</desc>
<speed>5.520000</speed>
</trkpt>
<trkpt lat="55.756985" lon="26.021584">
<ele>179.162231</ele>
<time>2010-07-17T17:39:58Z</time>
<desc>lat.=55.756985, lon.=26.021584, Alt.=179.162231m. Speed=17.496000m/h.</desc>
<speed>4.860000</speed>
</trkpt>
<trkpt lat="55.756939" lon="26.021595">
<ele>178.154419</ele>
<time>2010-07-17T17:39:59Z</time>
<desc>lat.=55.756939, lon.=26.021595, Alt.=178.154419m. Speed=17.964001m/h.</desc>
<speed>4.990000</speed>
</trkpt>
<trkpt lat="55.756886" lon="26.021608">
<ele>175.560669</ele>
<time>2010-07-17T17:40:00Z</time>
<desc>lat.=55.756886, lon.=26.021608, Alt.=175.560669m. Speed=16.524000m/h.</desc>
<speed>4.590000</speed>
</trkpt>
<trkpt lat="55.756847" lon="26.021620">
<ele>174.787231</ele>
<time>2010-07-17T17:40:01Z</time>
<desc>lat.=55.756847, lon.=26.021620, Alt.=174.787231m. Speed=15.408000m/h.</desc>
<speed>4.280000</speed>
</trkpt>
<trkpt lat="55.756805" lon="26.021637">
<ele>173.490356</ele>
<time>2010-07-17T17:40:02Z</time>
<desc>lat.=55.756805, lon.=26.021637, Alt.=173.490356m. Speed=14.652000m/h.</desc>
<speed>4.070000</speed>
</trkpt>
<trkpt lat="55.756767" lon="26.021646">
<ele>173.572388</ele>
<time>2010-07-17T17:40:03Z</time>
<desc>lat.=55.756767, lon.=26.021646, Alt.=173.572388m. Speed=13.464000m/h.</desc>
<speed>3.740000</speed>
</trkpt>
<trkpt lat="55.756733" lon="26.021652">
<ele>173.263794</ele>
<time>2010-07-17T17:40:04Z</time>
<desc>lat.=55.756733, lon.=26.021652, Alt.=173.263794m. Speed=12.780000m/h.</desc>
<speed>3.550000</speed>
</trkpt>
<trkpt lat="55.756695" lon="26.021662">
<ele>172.791138</ele>
<time>2010-07-17T17:40:05Z</time>
<desc>lat.=55.756695, lon.=26.021662, Alt.=172.791138m. Speed=13.500000m/h.</desc>
<speed>3.750000</speed>
</trkpt>
<trkpt lat="55.756657" lon="26.021667">
<ele>172.107544</ele>
<time>2010-07-17T17:40:06Z</time>
<desc>lat.=55.756657, lon.=26.021667, Alt.=172.107544m. Speed=13.068000m/h.</desc>
<speed>3.630000</speed>
</trkpt>
<trkpt lat="55.756630" lon="26.021677">
<ele>172.724731</ele>
<time>2010-07-17T17:40:07Z</time>
<desc>lat.=55.756630, lon.=26.021677, Alt.=172.724731m. Speed=8.496000m/h.</desc>
<speed>2.360000</speed>
</trkpt>
<trkpt lat="55.756607" lon="26.021687">
<ele>172.838013</ele>
<time>2010-07-17T17:40:08Z</time>
<desc>lat.=55.756607, lon.=26.021687, Alt.=172.838013m. Speed=8.604000m/h.</desc>
<speed>2.390000</speed>
</trkpt>
<trkpt lat="55.756584" lon="26.021698">
<ele>173.396606</ele>
<time>2010-07-17T17:40:09Z</time>
<desc>lat.=55.756584, lon.=26.021698, Alt.=173.396606m. Speed=9.360000m/h.</desc>
<speed>2.600000</speed>
</trkpt>
<trkpt lat="55.756554" lon="26.021702">
<ele>173.252075</ele>
<time>2010-07-17T17:40:10Z</time>
<desc>lat.=55.756554, lon.=26.021702, Alt.=173.252075m. Speed=11.088000m/h.</desc>
<speed>3.080000</speed>
</trkpt>
<trkpt lat="55.756516" lon="26.021713">
<ele>172.775513</ele>
<time>2010-07-17T17:40:11Z</time>
<desc>lat.=55.756516, lon.=26.021713, Alt.=172.775513m. Speed=12.780000m/h.</desc>
<speed>3.550000</speed>
</trkpt>
<trkpt lat="55.756481" lon="26.021723">
<ele>173.295044</ele>
<time>2010-07-17T17:40:12Z</time>
<desc>lat.=55.756481, lon.=26.021723, Alt.=173.295044m. Speed=12.996000m/h.</desc>
<speed>3.610000</speed>
</trkpt>
<trkpt lat="55.756451" lon="26.021730">
<ele>173.236450</ele>
<time>2010-07-17T17:40:13Z</time>
<desc>lat.=55.756451, lon.=26.021730, Alt.=173.236450m. Speed=13.536000m/h.</desc>
<speed>3.760000</speed>
</trkpt>
<trkpt lat="55.756409" lon="26.021746">
<ele>172.248169</ele>
<time>2010-07-17T17:40:14Z</time>
<desc>lat.=55.756409, lon.=26.021746, Alt.=172.248169m. Speed=16.020000m/h.</desc>
<speed>4.450000</speed>
</trkpt>
<trkpt lat="55.756371" lon="26.021759">
<ele>172.154419</ele>
<time>2010-07-17T17:40:15Z</time>
<desc>lat.=55.756371, lon.=26.021759, Alt.=172.154419m. Speed=15.408000m/h.</desc>
<speed>4.280000</speed>
</trkpt>
<trkpt lat="55.756332" lon="26.021772">
<ele>171.584106</ele>
<time>2010-07-17T17:40:16Z</time>
<desc>lat.=55.756332, lon.=26.021772, Alt.=171.584106m. Speed=16.740000m/h.</desc>
<speed>4.650000</speed>
</trkpt>
<trkpt lat="55.756290" lon="26.021788">
<ele>170.548950</ele>
<time>2010-07-17T17:40:17Z</time>
<desc>lat.=55.756290, lon.=26.021788, Alt.=170.548950m. Speed=16.884001m/h.</desc>
<speed>4.690000</speed>
</trkpt>
<trkpt lat="55.756252" lon="26.021805">
<ele>169.935669</ele>
<time>2010-07-17T17:40:18Z</time>
<desc>lat.=55.756252, lon.=26.021805, Alt.=169.935669m. Speed=16.416000m/h.</desc>
<speed>4.560000</speed>
</trkpt>
<trkpt lat="55.756210" lon="26.021822">
<ele>169.795044</ele>
<time>2010-07-17T17:40:19Z</time>
<desc>lat.=55.756210, lon.=26.021822, Alt.=169.795044m. Speed=15.516000m/h.</desc>
<speed>4.310000</speed>
</trkpt>
<trkpt lat="55.756172" lon="26.021839">
<ele>169.716919</ele>
<time>2010-07-17T17:40:20Z</time>
<desc>lat.=55.756172, lon.=26.021839, Alt.=169.716919m. Speed=15.120000m/h.</desc>
<speed>4.200000</speed>
</trkpt>
<trkpt lat="55.756130" lon="26.021849">
<ele>169.045044</ele>
<time>2010-07-17T17:40:21Z</time>
<desc>lat.=55.756130, lon.=26.021849, Alt.=169.045044m. Speed=14.832000m/h.</desc>
<speed>4.120000</speed>
</trkpt>
<trkpt lat="55.756092" lon="26.021862">
<ele>169.115356</ele>
<time>2010-07-17T17:40:22Z</time>
<desc>lat.=55.756092, lon.=26.021862, Alt.=169.115356m. Speed=16.632000m/h.</desc>
<speed>4.620000</speed>
</trkpt>
<trkpt lat="55.756050" lon="26.021879">
<ele>168.517700</ele>
<time>2010-07-17T17:40:23Z</time>
<desc>lat.=55.756050, lon.=26.021879, Alt.=168.517700m. Speed=16.775999m/h.</desc>
<speed>4.660000</speed>
</trkpt>
<trkpt lat="55.756008" lon="26.021894">
<ele>168.439575</ele>
<time>2010-07-17T17:40:24Z</time>
<desc>lat.=55.756008, lon.=26.021894, Alt.=168.439575m. Speed=17.136000m/h.</desc>
<speed>4.760000</speed>
</trkpt>
<trkpt lat="55.755962" lon="26.021919">
<ele>168.408325</ele>
<time>2010-07-17T17:40:25Z</time>
<desc>lat.=55.755962, lon.=26.021919, Alt.=168.408325m. Speed=17.424000m/h.</desc>
<speed>4.840000</speed>
</trkpt>
<trkpt lat="55.755924" lon="26.021946">
<ele>168.033325</ele>
<time>2010-07-17T17:40:26Z</time>
<desc>lat.=55.755924, lon.=26.021946, Alt.=168.033325m. Speed=16.596001m/h.</desc>
<speed>4.610000</speed>
</trkpt>
<trkpt lat="55.755882" lon="26.021982">
<ele>168.685669</ele>
<time>2010-07-17T17:40:27Z</time>
<desc>lat.=55.755882, lon.=26.021982, Alt.=168.685669m. Speed=17.568001m/h.</desc>
<speed>4.880000</speed>
</trkpt>
<trkpt lat="55.755840" lon="26.022017">
<ele>169.232544</ele>
<time>2010-07-17T17:40:28Z</time>
<desc>lat.=55.755840, lon.=26.022017, Alt.=169.232544m. Speed=18.252001m/h.</desc>
<speed>5.070000</speed>
</trkpt>
<trkpt lat="55.755791" lon="26.022045">
<ele>169.252075</ele>
<time>2010-07-17T17:40:29Z</time>
<desc>lat.=55.755791, lon.=26.022045, Alt.=169.252075m. Speed=18.900000m/h.</desc>
<speed>5.250000</speed>
</trkpt>
<trkpt lat="55.755741" lon="26.022078">
<ele>169.349731</ele>
<time>2010-07-17T17:40:30Z</time>
<desc>lat.=55.755741, lon.=26.022078, Alt.=169.349731m. Speed=19.691999m/h.</desc>
<speed>5.470000</speed>
</trkpt>
<trkpt lat="55.755699" lon="26.022116">
<ele>169.021606</ele>
<time>2010-07-17T17:40:31Z</time>
<desc>lat.=55.755699, lon.=26.022116, Alt.=169.021606m. Speed=18.035999m/h.</desc>
<speed>5.010000</speed>
</trkpt>
<trkpt lat="55.755657" lon="26.022146">
<ele>168.701294</ele>
<time>2010-07-17T17:40:32Z</time>
<desc>lat.=55.755657, lon.=26.022146, Alt.=168.701294m. Speed=17.964001m/h.</desc>
<speed>4.990000</speed>
</trkpt>
<trkpt lat="55.755619" lon="26.022188">
<ele>167.896606</ele>
<time>2010-07-17T17:40:33Z</time>
<desc>lat.=55.755619, lon.=26.022188, Alt.=167.896606m. Speed=17.927999m/h.</desc>
<speed>4.980000</speed>
</trkpt>
<trkpt lat="55.755577" lon="26.022221">
<ele>167.443481</ele>
<time>2010-07-17T17:40:34Z</time>
<desc>lat.=55.755577, lon.=26.022221, Alt.=167.443481m. Speed=18.288000m/h.</desc>
<speed>5.080000</speed>
</trkpt>
<trkpt lat="55.755535" lon="26.022240">
<ele>167.267700</ele>
<time>2010-07-17T17:40:35Z</time>
<desc>lat.=55.755535, lon.=26.022240, Alt.=167.267700m. Speed=14.472000m/h.</desc>
<speed>4.020000</speed>
</trkpt>
<trkpt lat="55.755497" lon="26.022261">
<ele>167.502075</ele>
<time>2010-07-17T17:40:36Z</time>
<desc>lat.=55.755497, lon.=26.022261, Alt.=167.502075m. Speed=16.236000m/h.</desc>
<speed>4.510000</speed>
</trkpt>
<trkpt lat="55.755459" lon="26.022293">
<ele>167.420044</ele>
<time>2010-07-17T17:40:37Z</time>
<desc>lat.=55.755459, lon.=26.022293, Alt.=167.420044m. Speed=16.020000m/h.</desc>
<speed>4.450000</speed>
</trkpt>
<trkpt lat="55.755417" lon="26.022339">
<ele>168.232544</ele>
<time>2010-07-17T17:40:38Z</time>
<desc>lat.=55.755417, lon.=26.022339, Alt.=168.232544m. Speed=18.180000m/h.</desc>
<speed>5.050000</speed>
</trkpt>
<trkpt lat="55.755379" lon="26.022371">
<ele>168.193481</ele>
<time>2010-07-17T17:40:39Z</time>
<desc>lat.=55.755379, lon.=26.022371, Alt.=168.193481m. Speed=16.271999m/h.</desc>
<speed>4.520000</speed>
</trkpt>
<trkpt lat="55.755341" lon="26.022400">
<ele>168.099731</ele>
<time>2010-07-17T17:40:40Z</time>
<desc>lat.=55.755341, lon.=26.022400, Alt.=168.099731m. Speed=15.264000m/h.</desc>
<speed>4.240000</speed>
</trkpt>
<trkpt lat="55.755302" lon="26.022434">
<ele>168.119263</ele>
<time>2010-07-17T17:40:41Z</time>
<desc>lat.=55.755302, lon.=26.022434, Alt.=168.119263m. Speed=17.063999m/h.</desc>
<speed>4.740000</speed>
</trkpt>
<trkpt lat="55.755272" lon="26.022472">
<ele>168.244263</ele>
<time>2010-07-17T17:40:42Z</time>
<desc>lat.=55.755272, lon.=26.022472, Alt.=168.244263m. Speed=16.775999m/h.</desc>
<speed>4.660000</speed>
</trkpt>
<trkpt lat="55.755241" lon="26.022509">
<ele>167.900513</ele>
<time>2010-07-17T17:40:43Z</time>
<desc>lat.=55.755241, lon.=26.022509, Alt.=167.900513m. Speed=14.544000m/h.</desc>
<speed>4.040000</speed>
</trkpt>
<trkpt lat="55.755207" lon="26.022545">
<ele>167.584106</ele>
<time>2010-07-17T17:40:44Z</time>
<desc>lat.=55.755207, lon.=26.022545, Alt.=167.584106m. Speed=15.408000m/h.</desc>
<speed>4.280000</speed>
</trkpt>
<trkpt lat="55.755165" lon="26.022583">
<ele>167.037231</ele>
<time>2010-07-17T17:40:45Z</time>
<desc>lat.=55.755165, lon.=26.022583, Alt.=167.037231m. Speed=16.128000m/h.</desc>
<speed>4.480000</speed>
</trkpt>
<trkpt lat="55.755123" lon="26.022623">
<ele>166.357544</ele>
<time>2010-07-17T17:40:46Z</time>
<desc>lat.=55.755123, lon.=26.022623, Alt.=166.357544m. Speed=15.552000m/h.</desc>
<speed>4.320000</speed>
</trkpt>
<trkpt lat="55.755074" lon="26.022657">
<ele>165.748169</ele>
<time>2010-07-17T17:40:47Z</time>
<desc>lat.=55.755074, lon.=26.022657, Alt.=165.748169m. Speed=17.100000m/h.</desc>
<speed>4.750000</speed>
</trkpt>
<trkpt lat="55.755032" lon="26.022692">
<ele>165.341919</ele>
<time>2010-07-17T17:40:48Z</time>
<desc>lat.=55.755032, lon.=26.022692, Alt.=165.341919m. Speed=15.840000m/h.</desc>
<speed>4.400000</speed>
</trkpt>
<trkpt lat="55.754990" lon="26.022734">
<ele>164.365356</ele>
<time>2010-07-17T17:40:49Z</time>
<desc>lat.=55.754990, lon.=26.022734, Alt.=164.365356m. Speed=17.136000m/h.</desc>
<speed>4.760000</speed>
</trkpt>
<trkpt lat="55.754944" lon="26.022802">
<ele>162.857544</ele>
<time>2010-07-17T17:40:50Z</time>
<desc>lat.=55.754944, lon.=26.022802, Alt.=162.857544m. Speed=14.292000m/h.</desc>
<speed>3.970000</speed>
</trkpt>
<trkpt lat="55.754910" lon="26.022844">
<ele>161.517700</ele>
<time>2010-07-17T17:40:51Z</time>
<desc>lat.=55.754910, lon.=26.022844, Alt.=161.517700m. Speed=14.580000m/h.</desc>
<speed>4.050000</speed>
</trkpt>
<trkpt lat="55.754868" lon="26.022890">
<ele>160.763794</ele>
<time>2010-07-17T17:40:52Z</time>
<desc>lat.=55.754868, lon.=26.022890, Alt.=160.763794m. Speed=16.920000m/h.</desc>
<speed>4.700000</speed>
</trkpt>
<trkpt lat="55.754826" lon="26.022924">
<ele>160.084106</ele>
<time>2010-07-17T17:40:53Z</time>
<desc>lat.=55.754826, lon.=26.022924, Alt.=160.084106m. Speed=17.316000m/h.</desc>
<speed>4.810000</speed>
</trkpt>
<trkpt lat="55.754784" lon="26.022955">
<ele>159.849731</ele>
<time>2010-07-17T17:40:54Z</time>
<desc>lat.=55.754784, lon.=26.022955, Alt.=159.849731m. Speed=15.120000m/h.</desc>
<speed>4.200000</speed>
</trkpt>
<trkpt lat="55.754749" lon="26.022982">
<ele>159.834106</ele>
<time>2010-07-17T17:40:55Z</time>
<desc>lat.=55.754749, lon.=26.022982, Alt.=159.834106m. Speed=13.104000m/h.</desc>
<speed>3.640000</speed>
</trkpt>
<trkpt lat="55.754719" lon="26.023006">
<ele>160.330200</ele>
<time>2010-07-17T17:40:56Z</time>
<desc>lat.=55.754719, lon.=26.023006, Alt.=160.330200m. Speed=10.332000m/h.</desc>
<speed>2.870000</speed>
</trkpt>
<trkpt lat="55.754692" lon="26.023035">
<ele>161.255981</ele>
<time>2010-07-17T17:40:57Z</time>
<desc>lat.=55.754692, lon.=26.023035, Alt.=161.255981m. Speed=10.440000m/h.</desc>
<speed>2.900000</speed>
</trkpt>
<trkpt lat="55.754662" lon="26.023058">
<ele>161.986450</ele>
<time>2010-07-17T17:40:58Z</time>
<desc>lat.=55.754662, lon.=26.023058, Alt.=161.986450m. Speed=8.784000m/h.</desc>
<speed>2.440000</speed>
</trkpt>
<trkpt lat="55.754635" lon="26.023085">
<ele>162.849731</ele>
<time>2010-07-17T17:40:59Z</time>
<desc>lat.=55.754635, lon.=26.023085, Alt.=162.849731m. Speed=8.856000m/h.</desc>
<speed>2.460000</speed>
</trkpt>
<trkpt lat="55.754604" lon="26.023123">
<ele>163.908325</ele>
<time>2010-07-17T17:41:00Z</time>
<desc>lat.=55.754604, lon.=26.023123, Alt.=163.908325m. Speed=10.440000m/h.</desc>
<speed>2.900000</speed>
</trkpt>
<trkpt lat="55.754581" lon="26.023138">
<ele>164.373169</ele>
<time>2010-07-17T17:41:01Z</time>
<desc>lat.=55.754581, lon.=26.023138, Alt.=164.373169m. Speed=7.560000m/h.</desc>
<speed>2.100000</speed>
</trkpt>
<trkpt lat="55.754547" lon="26.023169">
<ele>165.017700</ele>
<time>2010-07-17T17:41:02Z</time>
<desc>lat.=55.754547, lon.=26.023169, Alt.=165.017700m. Speed=9.900000m/h.</desc>
<speed>2.750000</speed>
</trkpt>
<trkpt lat="55.754524" lon="26.023199">
<ele>165.564575</ele>
<time>2010-07-17T17:41:03Z</time>
<desc>lat.=55.754524, lon.=26.023199, Alt.=165.564575m. Speed=8.316000m/h.</desc>
<speed>2.310000</speed>
</trkpt>
<trkpt lat="55.754494" lon="26.023224">
<ele>165.357544</ele>
<time>2010-07-17T17:41:04Z</time>
<desc>lat.=55.754494, lon.=26.023224, Alt.=165.357544m. Speed=9.036000m/h.</desc>
<speed>2.510000</speed>
</trkpt>
<trkpt lat="55.754475" lon="26.023249">
<ele>166.634888</ele>
<time>2010-07-17T17:41:05Z</time>
<desc>lat.=55.754475, lon.=26.023249, Alt.=166.634888m. Speed=8.928000m/h.</desc>
<speed>2.480000</speed>
</trkpt>
<trkpt lat="55.754440" lon="26.023264">
<ele>166.904419</ele>
<time>2010-07-17T17:41:06Z</time>
<desc>lat.=55.754440, lon.=26.023264, Alt.=166.904419m. Speed=10.548000m/h.</desc>
<speed>2.930000</speed>
</trkpt>
<trkpt lat="55.754402" lon="26.023291">
<ele>166.556763</ele>
<time>2010-07-17T17:41:07Z</time>
<desc>lat.=55.754402, lon.=26.023291, Alt.=166.556763m. Speed=11.556000m/h.</desc>
<speed>3.210000</speed>
</trkpt>
<trkpt lat="55.754360" lon="26.023312">
<ele>166.060669</ele>
<time>2010-07-17T17:41:08Z</time>
<desc>lat.=55.754360, lon.=26.023312, Alt.=166.060669m. Speed=11.664000m/h.</desc>
<speed>3.240000</speed>
</trkpt>
<trkpt lat="55.754337" lon="26.023336">
<ele>166.252075</ele>
<time>2010-07-17T17:41:09Z</time>
<desc>lat.=55.754337, lon.=26.023336, Alt.=166.252075m. Speed=8.280000m/h.</desc>
<speed>2.300000</speed>
</trkpt>
<trkpt lat="55.754318" lon="26.023359">
<ele>166.892700</ele>
<time>2010-07-17T17:41:10Z</time>
<desc>lat.=55.754318, lon.=26.023359, Alt.=166.892700m. Speed=7.956000m/h.</desc>
<speed>2.210000</speed>
</trkpt>
<trkpt lat="55.754299" lon="26.023388">
<ele>167.052856</ele>
<time>2010-07-17T17:41:11Z</time>
<desc>lat.=55.754299, lon.=26.023388, Alt.=167.052856m. Speed=6.588000m/h.</desc>
<speed>1.830000</speed>
</trkpt>
<trkpt lat="55.754280" lon="26.023415">
<ele>167.330200</ele>
<time>2010-07-17T17:41:12Z</time>
<desc>lat.=55.754280, lon.=26.023415, Alt.=167.330200m. Speed=7.632000m/h.</desc>
<speed>2.120000</speed>
</trkpt>
<trkpt lat="55.754261" lon="26.023428">
<ele>166.939575</ele>
<time>2010-07-17T17:41:13Z</time>
<desc>lat.=55.754261, lon.=26.023428, Alt.=166.939575m. Speed=7.488000m/h.</desc>
<speed>2.080000</speed>
</trkpt>
<trkpt lat="55.754238" lon="26.023443">
<ele>166.095825</ele>
<time>2010-07-17T17:41:14Z</time>
<desc>lat.=55.754238, lon.=26.023443, Alt.=166.095825m. Speed=7.812000m/h.</desc>
<speed>2.170000</speed>
</trkpt>
<trkpt lat="55.754196" lon="26.023458">
<ele>162.205200</ele>
<time>2010-07-17T17:41:15Z</time>
<desc>lat.=55.754196, lon.=26.023458, Alt.=162.205200m. Speed=8.640000m/h.</desc>
<speed>2.400000</speed>
</trkpt>
<trkpt lat="55.754166" lon="26.023462">
<ele>160.806763</ele>
<time>2010-07-17T17:41:16Z</time>
<desc>lat.=55.754166, lon.=26.023462, Alt.=160.806763m. Speed=8.280000m/h.</desc>
<speed>2.300000</speed>
</trkpt>
<trkpt lat="55.754139" lon="26.023474">
<ele>158.947388</ele>
<time>2010-07-17T17:41:17Z</time>
<desc>lat.=55.754139, lon.=26.023474, Alt.=158.947388m. Speed=7.920000m/h.</desc>
<speed>2.200000</speed>
</trkpt>
<trkpt lat="55.754116" lon="26.023504">
<ele>159.771606</ele>
<time>2010-07-17T17:41:18Z</time>
<desc>lat.=55.754116, lon.=26.023504, Alt.=159.771606m. Speed=6.372000m/h.</desc>
<speed>1.770000</speed>
</trkpt>
<trkpt lat="55.754097" lon="26.023529">
<ele>159.041138</ele>
<time>2010-07-17T17:41:19Z</time>
<desc>lat.=55.754097, lon.=26.023529, Alt.=159.041138m. Speed=4.464000m/h.</desc>
<speed>1.240000</speed>
</trkpt>
<trkpt lat="55.754078" lon="26.023544">
<ele>158.267700</ele>
<time>2010-07-17T17:41:20Z</time>
<desc>lat.=55.754078, lon.=26.023544, Alt.=158.267700m. Speed=3.924000m/h.</desc>
<speed>1.090000</speed>
</trkpt>
<trkpt lat="55.754074" lon="26.023556">
<ele>158.728638</ele>
<time>2010-07-17T17:41:21Z</time>
<desc>lat.=55.754074, lon.=26.023556, Alt.=158.728638m. Speed=1.008000m/h.</desc>
<speed>0.280000</speed>
</trkpt>
<trkpt lat="55.754066" lon="26.023569">
<ele>159.920044</ele>
<time>2010-07-17T17:41:22Z</time>
<desc>lat.=55.754066, lon.=26.023569, Alt.=159.920044m. Speed=0.540000m/h.</desc>
<speed>0.150000</speed>
</trkpt>
<trkpt lat="55.754063" lon="26.023579">
<ele>160.853638</ele>
<time>2010-07-17T17:41:23Z</time>
<desc>lat.=55.754063, lon.=26.023579, Alt.=160.853638m. Speed=0.396000m/h.</desc>
<speed>0.110000</speed>
</trkpt>
<trkpt lat="55.754059" lon="26.023584">
<ele>161.638794</ele>
<time>2010-07-17T17:41:24Z</time>
<desc>lat.=55.754059, lon.=26.023584, Alt.=161.638794m. Speed=0.504000m/h.</desc>
<speed>0.140000</speed>
</trkpt>
<trkpt lat="55.754059" lon="26.023584">
<ele>161.568481</ele>
<time>2010-07-17T17:41:25Z</time>
<desc>lat.=55.754059, lon.=26.023584, Alt.=161.568481m. Speed=0.252000m/h.</desc>
<speed>0.070000</speed>
</trkpt>
<trkpt lat="55.754059" lon="26.023584">
<ele>161.525513</ele>
<time>2010-07-17T17:41:26Z</time>
<desc>lat.=55.754059, lon.=26.023584, Alt.=161.525513m. Speed=0.180000m/h.</desc>
<speed>0.050000</speed>
</trkpt>
<trkpt lat="55.754055" lon="26.023586">
<ele>161.498169</ele>
<time>2010-07-17T17:41:27Z</time>
<desc>lat.=55.754055, lon.=26.023586, Alt.=161.498169m. Speed=0.396000m/h.</desc>
<speed>0.110000</speed>
</trkpt>
<trkpt lat="55.754055" lon="26.023588">
<ele>161.466919</ele>
<time>2010-07-17T17:41:28Z</time>
<desc>lat.=55.754055, lon.=26.023588, Alt.=161.466919m. Speed=0.540000m/h.</desc>
<speed>0.150000</speed>
</trkpt>
<trkpt lat="55.754055" lon="26.023590">
<ele>161.447388</ele>
<time>2010-07-17T17:41:29Z</time>
<desc>lat.=55.754055, lon.=26.023590, Alt.=161.447388m. Speed=0.648000m/h.</desc>
<speed>0.180000</speed>
</trkpt>
<trkpt lat="55.754055" lon="26.023590">
<ele>161.427856</ele>
<time>2010-07-17T17:41:30Z</time>
<desc>lat.=55.754055, lon.=26.023590, Alt.=161.427856m. Speed=0.288000m/h.</desc>
<speed>0.080000</speed>
</trkpt>
<trkpt lat="55.754051" lon="26.023590">
<ele>161.412231</ele>
<time>2010-07-17T17:41:31Z</time>
<desc>lat.=55.754051, lon.=26.023590, Alt.=161.412231m. Speed=0.036000m/h.</desc>
<speed>0.010000</speed>
</trkpt>
<trkpt lat="55.754051" lon="26.023590">
<ele>161.408325</ele>
<time>2010-07-17T17:41:32Z</time>
<desc>lat.=55.754051, lon.=26.023590, Alt.=161.408325m. Speed=0.252000m/h.</desc>
<speed>0.070000</speed>
</trkpt>
<trkpt lat="55.754055" lon="26.023592">
<ele>161.404419</ele>
<time>2010-07-17T17:41:33Z</time>
<desc>lat.=55.754055, lon.=26.023592, Alt.=161.404419m. Speed=0.216000m/h.</desc>
<speed>0.060000</speed>
</trkpt>
<trkpt lat="55.754051" lon="26.023592">
<ele>161.396606</ele>
<time>2010-07-17T17:41:34Z</time>
<desc>lat.=55.754051, lon.=26.023592, Alt.=161.396606m. Speed=0.612000m/h.</desc>
<speed>0.170000</speed>
</trkpt>
<trkpt lat="55.754051" lon="26.023592">
<ele>161.384888</ele>
<time>2010-07-17T17:41:35Z</time>
<desc>lat.=55.754051, lon.=26.023592, Alt.=161.384888m. Speed=0.756000m/h.</desc>
<speed>0.210000</speed>
</trkpt>
<trkpt lat="55.754051" lon="26.023594">
<ele>161.373169</ele>
<time>2010-07-17T17:41:36Z</time>
<desc>lat.=55.754051, lon.=26.023594, Alt.=161.373169m. Speed=0.504000m/h.</desc>
<speed>0.140000</speed>
</trkpt>
<trkpt lat="55.754047" lon="26.023596">
<ele>161.373169</ele>
<time>2010-07-17T17:41:37Z</time>
<desc>lat.=55.754047, lon.=26.023596, Alt.=161.373169m. Speed=0.576000m/h.</desc>
<speed>0.160000</speed>
</trkpt>
<trkpt lat="55.754047" lon="26.023598">
<ele>161.377075</ele>
<time>2010-07-17T17:41:38Z</time>
<desc>lat.=55.754047, lon.=26.023598, Alt.=161.377075m. Speed=0.432000m/h.</desc>
<speed>0.120000</speed>
</trkpt>
<trkpt lat="55.754047" lon="26.023598">
<ele>161.380981</ele>
<time>2010-07-17T17:41:39Z</time>
<desc>lat.=55.754047, lon.=26.023598, Alt.=161.380981m. Speed=0.288000m/h.</desc>
<speed>0.080000</speed>
</trkpt>
<trkpt lat="55.754044" lon="26.023598">
<ele>161.392700</ele>
<time>2010-07-17T17:41:40Z</time>
<desc>lat.=55.754044, lon.=26.023598, Alt.=161.392700m. Speed=0.432000m/h.</desc>
<speed>0.120000</speed>
</trkpt>
<trkpt lat="55.754044" lon="26.023598">
<ele>161.400513</ele>
<time>2010-07-17T17:41:41Z</time>
<desc>lat.=55.754044, lon.=26.023598, Alt.=161.400513m. Speed=0.792000m/h.</desc>
<speed>0.220000</speed>
</trkpt>
<trkpt lat="55.754044" lon="26.023596">
<ele>161.404419</ele>
<time>2010-07-17T17:41:42Z</time>
<desc>lat.=55.754044, lon.=26.023596, Alt.=161.404419m. Speed=0.432000m/h.</desc>
<speed>0.120000</speed>
</trkpt>
<trkpt lat="55.754040" lon="26.023594">
<ele>161.416138</ele>
<time>2010-07-17T17:41:43Z</time>
<desc>lat.=55.754040, lon.=26.023594, Alt.=161.416138m. Speed=0.576000m/h.</desc>
<speed>0.160000</speed>
</trkpt>
<trkpt lat="55.754040" lon="26.023592">
<ele>161.423950</ele>
<time>2010-07-17T17:41:44Z</time>
<desc>lat.=55.754040, lon.=26.023592, Alt.=161.423950m. Speed=0.540000m/h.</desc>
<speed>0.150000</speed>
</trkpt>
<trkpt lat="55.754040" lon="26.023590">
<ele>161.427856</ele>
<time>2010-07-17T17:41:45Z</time>
<desc>lat.=55.754040, lon.=26.023590, Alt.=161.427856m. Speed=0.432000m/h.</desc>
<speed>0.120000</speed>
</trkpt>
<trkpt lat="55.754040" lon="26.023588">
<ele>161.435669</ele>
<time>2010-07-17T17:41:46Z</time>
<desc>lat.=55.754040, lon.=26.023588, Alt.=161.435669m. Speed=0.576000m/h.</desc>
<speed>0.160000</speed>
</trkpt>
<trkpt lat="55.754040" lon="26.023586">
<ele>161.439575</ele>
<time>2010-07-17T17:41:47Z</time>
<desc>lat.=55.754040, lon.=26.023586, Alt.=161.439575m. Speed=0.792000m/h.</desc>
<speed>0.220000</speed>
</trkpt>
<trkpt lat="55.754040" lon="26.023582">
<ele>161.455200</ele>
<time>2010-07-17T17:41:48Z</time>
<desc>lat.=55.754040, lon.=26.023582, Alt.=161.455200m. Speed=1.152000m/h.</desc>
<speed>0.320000</speed>
</trkpt>
<trkpt lat="55.754036" lon="26.023577">
<ele>161.463013</ele>
<time>2010-07-17T17:41:49Z</time>
<desc>lat.=55.754036, lon.=26.023577, Alt.=161.463013m. Speed=2.016000m/h.</desc>
<speed>0.560000</speed>
</trkpt>
<trkpt lat="55.754036" lon="26.023569">
<ele>161.459106</ele>
<time>2010-07-17T17:41:50Z</time>
<desc>lat.=55.754036, lon.=26.023569, Alt.=161.459106m. Speed=2.772000m/h.</desc>
<speed>0.770000</speed>
</trkpt>
<trkpt lat="55.754032" lon="26.023556">
<ele>161.459106</ele>
<time>2010-07-17T17:41:51Z</time>
<desc>lat.=55.754032, lon.=26.023556, Alt.=161.459106m. Speed=4.284000m/h.</desc>
<speed>1.190000</speed>
</trkpt>
<trkpt lat="55.754021" lon="26.023514">
<ele>162.052856</ele>
<time>2010-07-17T17:41:52Z</time>
<desc>lat.=55.754021, lon.=26.023514, Alt.=162.052856m. Speed=6.480000m/h.</desc>
<speed>1.800000</speed>
</trkpt>
<trkpt lat="55.754013" lon="26.023483">
<ele>162.834106</ele>
<time>2010-07-17T17:41:53Z</time>
<desc>lat.=55.754013, lon.=26.023483, Alt.=162.834106m. Speed=7.272000m/h.</desc>
<speed>2.020000</speed>
</trkpt>
<trkpt lat="55.754005" lon="26.023449">
<ele>163.705200</ele>
<time>2010-07-17T17:41:54Z</time>
<desc>lat.=55.754005, lon.=26.023449, Alt.=163.705200m. Speed=7.920000m/h.</desc>
<speed>2.200000</speed>
</trkpt>
<trkpt lat="55.753998" lon="26.023403">
<ele>163.935669</ele>
<time>2010-07-17T17:41:55Z</time>
<desc>lat.=55.753998, lon.=26.023403, Alt.=163.935669m. Speed=9.396000m/h.</desc>
<speed>2.610000</speed>
</trkpt>
<trkpt lat="55.753990" lon="26.023361">
<ele>164.279419</ele>
<time>2010-07-17T17:41:56Z</time>
<desc>lat.=55.753990, lon.=26.023361, Alt.=164.279419m. Speed=9.504000m/h.</desc>
<speed>2.640000</speed>
</trkpt>
<trkpt lat="55.753994" lon="26.023319">
<ele>166.404419</ele>
<time>2010-07-17T17:41:57Z</time>
<desc>lat.=55.753994, lon.=26.023319, Alt.=166.404419m. Speed=10.800000m/h.</desc>
<speed>3.000000</speed>
</trkpt>
<trkpt lat="55.753990" lon="26.023272">
<ele>166.853638</ele>
<time>2010-07-17T17:41:58Z</time>
<desc>lat.=55.753990, lon.=26.023272, Alt.=166.853638m. Speed=9.684000m/h.</desc>
<speed>2.690000</speed>
</trkpt>
<trkpt lat="55.753986" lon="26.023222">
<ele>167.263794</ele>
<time>2010-07-17T17:41:59Z</time>
<desc>lat.=55.753986, lon.=26.023222, Alt.=167.263794m. Speed=10.548000m/h.</desc>
<speed>2.930000</speed>
</trkpt>
<trkpt lat="55.753979" lon="26.023184">
<ele>167.482544</ele>
<time>2010-07-17T17:42:00Z</time>
<desc>lat.=55.753979, lon.=26.023184, Alt.=167.482544m. Speed=8.784000m/h.</desc>
<speed>2.440000</speed>
</trkpt>
<trkpt lat="55.753971" lon="26.023134">
<ele>167.455200</ele>
<time>2010-07-17T17:42:01Z</time>
<desc>lat.=55.753971, lon.=26.023134, Alt.=167.455200m. Speed=9.612000m/h.</desc>
<speed>2.670000</speed>
</trkpt>
<trkpt lat="55.753967" lon="26.023087">
<ele>167.123169</ele>
<time>2010-07-17T17:42:02Z</time>
<desc>lat.=55.753967, lon.=26.023087, Alt.=167.123169m. Speed=9.072000m/h.</desc>
<speed>2.520000</speed>
</trkpt>
<trkpt lat="55.753967" lon="26.023048">
<ele>166.959106</ele>
<time>2010-07-17T17:42:03Z</time>
<desc>lat.=55.753967, lon.=26.023048, Alt.=166.959106m. Speed=6.156000m/h.</desc>
<speed>1.710000</speed>
</trkpt>
<trkpt lat="55.753967" lon="26.023014">
<ele>167.005981</ele>
<time>2010-07-17T17:42:04Z</time>
<desc>lat.=55.753967, lon.=26.023014, Alt.=167.005981m. Speed=6.984000m/h.</desc>
<speed>1.940000</speed>
</trkpt>
<trkpt lat="55.753971" lon="26.022963">
<ele>166.310669</ele>
<time>2010-07-17T17:42:05Z</time>
<desc>lat.=55.753971, lon.=26.022963, Alt.=166.310669m. Speed=8.424000m/h.</desc>
<speed>2.340000</speed>
</trkpt>
<trkpt lat="55.753971" lon="26.022921">
<ele>166.115356</ele>
<time>2010-07-17T17:42:06Z</time>
<desc>lat.=55.753971, lon.=26.022921, Alt.=166.115356m. Speed=6.732000m/h.</desc>
<speed>1.870000</speed>
</trkpt>
<trkpt lat="55.753963" lon="26.022884">
<ele>166.619263</ele>
<time>2010-07-17T17:42:07Z</time>
<desc>lat.=55.753963, lon.=26.022884, Alt.=166.619263m. Speed=6.408000m/h.</desc>
<speed>1.780000</speed>
</trkpt>
<trkpt lat="55.753963" lon="26.022850">
<ele>166.841919</ele>
<time>2010-07-17T17:42:08Z</time>
<desc>lat.=55.753963, lon.=26.022850, Alt.=166.841919m. Speed=4.716000m/h.</desc>
<speed>1.310000</speed>
</trkpt>
<trkpt lat="55.753963" lon="26.022820">
<ele>166.912231</ele>
<time>2010-07-17T17:42:09Z</time>
<desc>lat.=55.753963, lon.=26.022820, Alt.=166.912231m. Speed=5.040000m/h.</desc>
<speed>1.400000</speed>
</trkpt>
<trkpt lat="55.753963" lon="26.022797">
<ele>167.232544</ele>
<time>2010-07-17T17:42:10Z</time>
<desc>lat.=55.753963, lon.=26.022797, Alt.=167.232544m. Speed=2.700000m/h.</desc>
<speed>0.750000</speed>
</trkpt>
<trkpt lat="55.753963" lon="26.022793">
<ele>167.584106</ele>
<time>2010-07-17T17:42:11Z</time>
<desc>lat.=55.753963, lon.=26.022793, Alt.=167.584106m. Speed=1.080000m/h.</desc>
<speed>0.300000</speed>
</trkpt>
<trkpt lat="55.753960" lon="26.022789">
<ele>167.763794</ele>
<time>2010-07-17T17:42:12Z</time>
<desc>lat.=55.753960, lon.=26.022789, Alt.=167.763794m. Speed=0.828000m/h.</desc>
<speed>0.230000</speed>
</trkpt>
<trkpt lat="55.753956" lon="26.022783">
<ele>167.853638</ele>
<time>2010-07-17T17:42:13Z</time>
<desc>lat.=55.753956, lon.=26.022783, Alt.=167.853638m. Speed=1.008000m/h.</desc>
<speed>0.280000</speed>
</trkpt>
<trkpt lat="55.753956" lon="26.022779">
<ele>167.904419</ele>
<time>2010-07-17T17:42:14Z</time>
<desc>lat.=55.753956, lon.=26.022779, Alt.=167.904419m. Speed=1.224000m/h.</desc>
<speed>0.340000</speed>
</trkpt>
<trkpt lat="55.753956" lon="26.022779">
<ele>167.791138</ele>
<time>2010-07-17T17:42:15Z</time>
<desc>lat.=55.753956, lon.=26.022779, Alt.=167.791138m. Speed=1.080000m/h.</desc>
<speed>0.300000</speed>
</trkpt>
<trkpt lat="55.753952" lon="26.022781">
<ele>167.595825</ele>
<time>2010-07-17T17:42:16Z</time>
<desc>lat.=55.753952, lon.=26.022781, Alt.=167.595825m. Speed=0.792000m/h.</desc>
<speed>0.220000</speed>
</trkpt>
<trkpt lat="55.753952" lon="26.022774">
<ele>167.529419</ele>
<time>2010-07-17T17:42:17Z</time>
<desc>lat.=55.753952, lon.=26.022774, Alt.=167.529419m. Speed=0.864000m/h.</desc>
<speed>0.240000</speed>
</trkpt>
<trkpt lat="55.753952" lon="26.022770">
<ele>167.427856</ele>
<time>2010-07-17T17:42:18Z</time>
<desc>lat.=55.753952, lon.=26.022770, Alt.=167.427856m. Speed=0.792000m/h.</desc>
<speed>0.220000</speed>
</trkpt>
<trkpt lat="55.753948" lon="26.022768">
<ele>167.392700</ele>
<time>2010-07-17T17:42:19Z</time>
<desc>lat.=55.753948, lon.=26.022768, Alt.=167.392700m. Speed=0.684000m/h.</desc>
<speed>0.190000</speed>
</trkpt>
<trkpt lat="55.753944" lon="26.022766">
<ele>167.384888</ele>
<time>2010-07-17T17:42:20Z</time>
<desc>lat.=55.753944, lon.=26.022766, Alt.=167.384888m. Speed=0.864000m/h.</desc>
<speed>0.240000</speed>
</trkpt>
<trkpt lat="55.753944" lon="26.022762">
<ele>167.377075</ele>
<time>2010-07-17T17:42:21Z</time>
<desc>lat.=55.753944, lon.=26.022762, Alt.=167.377075m. Speed=0.576000m/h.</desc>
<speed>0.160000</speed>
</trkpt>
<trkpt lat="55.753944" lon="26.022760">
<ele>167.369263</ele>
<time>2010-07-17T17:42:22Z</time>
<desc>lat.=55.753944, lon.=26.022760, Alt.=167.369263m. Speed=0.576000m/h.</desc>
<speed>0.160000</speed>
</trkpt>
<trkpt lat="55.753941" lon="26.022760">
<ele>167.365356</ele>
<time>2010-07-17T17:42:23Z</time>
<desc>lat.=55.753941, lon.=26.022760, Alt.=167.365356m. Speed=0.288000m/h.</desc>
<speed>0.080000</speed>
</trkpt>
<trkpt lat="55.753941" lon="26.022758">
<ele>167.361450</ele>
<time>2010-07-17T17:42:24Z</time>
<desc>lat.=55.753941, lon.=26.022758, Alt.=167.361450m. Speed=0.648000m/h.</desc>
<speed>0.180000</speed>
</trkpt>
<trkpt lat="55.753941" lon="26.022758">
<ele>167.369263</ele>
<time>2010-07-17T17:42:25Z</time>
<desc>lat.=55.753941, lon.=26.022758, Alt.=167.369263m. Speed=1.296000m/h.</desc>
<speed>0.360000</speed>
</trkpt>
<trkpt lat="55.753937" lon="26.022755">
<ele>167.357544</ele>
<time>2010-07-17T17:42:26Z</time>
<desc>lat.=55.753937, lon.=26.022755, Alt.=167.357544m. Speed=1.152000m/h.</desc>
<speed>0.320000</speed>
</trkpt>
<trkpt lat="55.753937" lon="26.022747">
<ele>167.474731</ele>
<time>2010-07-17T17:42:27Z</time>
<desc>lat.=55.753937, lon.=26.022747, Alt.=167.474731m. Speed=0.864000m/h.</desc>
<speed>0.240000</speed>
</trkpt>
<trkpt lat="55.753929" lon="26.022738">
<ele>167.588013</ele>
<time>2010-07-17T17:42:28Z</time>
<desc>lat.=55.753929, lon.=26.022738, Alt.=167.588013m. Speed=0.972000m/h.</desc>
<speed>0.270000</speed>
</trkpt>
<trkpt lat="55.753929" lon="26.022743">
<ele>167.736450</ele>
<time>2010-07-17T17:42:29Z</time>
<desc>lat.=55.753929, lon.=26.022743, Alt.=167.736450m. Speed=0.360000m/h.</desc>
<speed>0.100000</speed>
</trkpt>
<trkpt lat="55.753929" lon="26.022751">
<ele>167.822388</ele>
<time>2010-07-17T17:42:30Z</time>
<desc>lat.=55.753929, lon.=26.022751, Alt.=167.822388m. Speed=0.576000m/h.</desc>
<speed>0.160000</speed>
</trkpt>
<trkpt lat="55.753929" lon="26.022751">
<ele>167.826294</ele>
<time>2010-07-17T17:42:31Z</time>
<desc>lat.=55.753929, lon.=26.022751, Alt.=167.826294m. Speed=0.864000m/h.</desc>
<speed>0.240000</speed>
</trkpt>
<trkpt lat="55.753925" lon="26.022753">
<ele>167.830200</ele>
<time>2010-07-17T17:42:32Z</time>
<desc>lat.=55.753925, lon.=26.022753, Alt.=167.830200m. Speed=0.648000m/h.</desc>
<speed>0.180000</speed>
</trkpt>
<trkpt lat="55.753925" lon="26.022753">
<ele>167.834106</ele>
<time>2010-07-17T17:42:33Z</time>
<desc>lat.=55.753925, lon.=26.022753, Alt.=167.834106m. Speed=0.360000m/h.</desc>
<speed>0.100000</speed>
</trkpt>
<trkpt lat="55.753925" lon="26.022755">
<ele>167.834106</ele>
<time>2010-07-17T17:42:34Z</time>
<desc>lat.=55.753925, lon.=26.022755, Alt.=167.834106m. Speed=0.576000m/h.</desc>
<speed>0.160000</speed>
</trkpt>
<trkpt lat="55.753925" lon="26.022758">
<ele>167.834106</ele>
<time>2010-07-17T17:42:35Z</time>
<desc>lat.=55.753925, lon.=26.022758, Alt.=167.834106m. Speed=0.504000m/h.</desc>
<speed>0.140000</speed>
</trkpt>
<trkpt lat="55.753925" lon="26.022760">
<ele>167.838013</ele>
<time>2010-07-17T17:42:36Z</time>
<desc>lat.=55.753925, lon.=26.022760, Alt.=167.838013m. Speed=0.324000m/h.</desc>
<speed>0.090000</speed>
</trkpt>
<trkpt lat="55.753929" lon="26.022760">
<ele>167.838013</ele>
<time>2010-07-17T17:42:37Z</time>
<desc>lat.=55.753929, lon.=26.022760, Alt.=167.838013m. Speed=0.324000m/h.</desc>
<speed>0.090000</speed>
</trkpt>
<trkpt lat="55.753929" lon="26.022762">
<ele>167.838013</ele>
<time>2010-07-17T17:42:38Z</time>
<desc>lat.=55.753929, lon.=26.022762, Alt.=167.838013m. Speed=0.216000m/h.</desc>
<speed>0.060000</speed>
</trkpt>
<trkpt lat="55.753929" lon="26.022762">
<ele>167.838013</ele>
<time>2010-07-17T17:42:39Z</time>
<desc>lat.=55.753929, lon.=26.022762, Alt.=167.838013m. Speed=0.108000m/h.</desc>
<speed>0.030000</speed>
</trkpt>
<trkpt lat="55.753929" lon="26.022762">
<ele>167.841919</ele>
<time>2010-07-17T17:42:40Z</time>
<desc>lat.=55.753929, lon.=26.022762, Alt.=167.841919m. Speed=0.468000m/h.</desc>
<speed>0.130000</speed>
</trkpt>
<trkpt lat="55.753929" lon="26.022764">
<ele>167.838013</ele>
<time>2010-07-17T17:42:41Z</time>
<desc>lat.=55.753929, lon.=26.022764, Alt.=167.838013m. Speed=0.360000m/h.</desc>
<speed>0.100000</speed>
</trkpt>
<trkpt lat="55.753929" lon="26.022766">
<ele>167.834106</ele>
<time>2010-07-17T17:42:42Z</time>
<desc>lat.=55.753929, lon.=26.022766, Alt.=167.834106m. Speed=0.216000m/h.</desc>
<speed>0.060000</speed>
</trkpt>
<trkpt lat="55.753929" lon="26.022766">
<ele>167.830200</ele>
<time>2010-07-17T17:42:43Z</time>
<desc>lat.=55.753929, lon.=26.022766, Alt.=167.830200m. Speed=0.648000m/h.</desc>
<speed>0.180000</speed>
</trkpt>
<trkpt lat="55.753929" lon="26.022770">
<ele>167.830200</ele>
<time>2010-07-17T17:42:44Z</time>
<desc>lat.=55.753929, lon.=26.022770, Alt.=167.830200m. Speed=0.288000m/h.</desc>
<speed>0.080000</speed>
</trkpt>
<trkpt lat="55.753929" lon="26.022772">
<ele>167.830200</ele>
<time>2010-07-17T17:42:45Z</time>
<desc>lat.=55.753929, lon.=26.022772, Alt.=167.830200m. Speed=0.216000m/h.</desc>
<speed>0.060000</speed>
</trkpt>
<trkpt lat="55.753929" lon="26.022772">
<ele>167.826294</ele>
<time>2010-07-17T17:42:46Z</time>
<desc>lat.=55.753929, lon.=26.022772, Alt.=167.826294m. Speed=0.288000m/h.</desc>
<speed>0.080000</speed>
</trkpt>
<trkpt lat="55.753929" lon="26.022772">
<ele>167.826294</ele>
<time>2010-07-17T17:42:47Z</time>
<desc>lat.=55.753929, lon.=26.022772, Alt.=167.826294m. Speed=0.468000m/h.</desc>
<speed>0.130000</speed>
</trkpt>
<trkpt lat="55.753929" lon="26.022772">
<ele>167.826294</ele>
<time>2010-07-17T17:42:48Z</time>
<desc>lat.=55.753929, lon.=26.022772, Alt.=167.826294m. Speed=0.864000m/h.</desc>
<speed>0.240000</speed>
</trkpt>
<trkpt lat="55.753929" lon="26.022776">
<ele>167.826294</ele>
<time>2010-07-17T17:42:49Z</time>
<desc>lat.=55.753929, lon.=26.022776, Alt.=167.826294m. Speed=0.900000m/h.</desc>
<speed>0.250000</speed>
</trkpt>
<trkpt lat="55.753929" lon="26.022781">
<ele>167.826294</ele>
<time>2010-07-17T17:42:50Z</time>
<desc>lat.=55.753929, lon.=26.022781, Alt.=167.826294m. Speed=0.720000m/h.</desc>
<speed>0.200000</speed>
</trkpt>
<trkpt lat="55.753929" lon="26.022783">
<ele>167.822388</ele>
<time>2010-07-17T17:42:51Z</time>
<desc>lat.=55.753929, lon.=26.022783, Alt.=167.822388m. Speed=0.540000m/h.</desc>
<speed>0.150000</speed>
</trkpt>
<trkpt lat="55.753929" lon="26.022787">
<ele>167.822388</ele>
<time>2010-07-17T17:42:52Z</time>
<desc>lat.=55.753929, lon.=26.022787, Alt.=167.822388m. Speed=0.504000m/h.</desc>
<speed>0.140000</speed>
</trkpt>
<trkpt lat="55.753929" lon="26.022789">
<ele>167.818481</ele>
<time>2010-07-17T17:42:53Z</time>
<desc>lat.=55.753929, lon.=26.022789, Alt.=167.818481m. Speed=0.540000m/h.</desc>
<speed>0.150000</speed>
</trkpt>
<trkpt lat="55.753925" lon="26.022791">
<ele>167.810669</ele>
<time>2010-07-17T17:42:54Z</time>
<desc>lat.=55.753925, lon.=26.022791, Alt.=167.810669m. Speed=0.864000m/h.</desc>
<speed>0.240000</speed>
</trkpt>
<trkpt lat="55.753925" lon="26.022795">
<ele>167.802856</ele>
<time>2010-07-17T17:42:55Z</time>
<desc>lat.=55.753925, lon.=26.022795, Alt.=167.802856m. Speed=1.116000m/h.</desc>
<speed>0.310000</speed>
</trkpt>
<trkpt lat="55.753925" lon="26.022810">
<ele>167.787231</ele>
<time>2010-07-17T17:42:56Z</time>
<desc>lat.=55.753925, lon.=26.022810, Alt.=167.787231m. Speed=0.792000m/h.</desc>
<speed>0.220000</speed>
</trkpt>
<trkpt lat="55.753925" lon="26.022818">
<ele>167.771606</ele>
<time>2010-07-17T17:42:57Z</time>
<desc>lat.=55.753925, lon.=26.022818, Alt.=167.771606m. Speed=0.828000m/h.</desc>
<speed>0.230000</speed>
</trkpt>
<trkpt lat="55.753925" lon="26.022827">
<ele>167.834106</ele>
<time>2010-07-17T17:42:58Z</time>
<desc>lat.=55.753925, lon.=26.022827, Alt.=167.834106m. Speed=0.648000m/h.</desc>
<speed>0.180000</speed>
</trkpt>
<trkpt lat="55.753929" lon="26.022827">
<ele>168.033325</ele>
<time>2010-07-17T17:42:59Z</time>
<desc>lat.=55.753929, lon.=26.022827, Alt.=168.033325m. Speed=0.108000m/h.</desc>
<speed>0.030000</speed>
</trkpt>
<trkpt lat="55.753929" lon="26.022827">
<ele>168.033325</ele>
<time>2010-07-17T17:43:00Z</time>
<desc>lat.=55.753929, lon.=26.022827, Alt.=168.033325m. Speed=0.288000m/h.</desc>
<speed>0.080000</speed>
</trkpt>
<trkpt lat="55.753929" lon="26.022827">
<ele>168.033325</ele>
<time>2010-07-17T17:43:01Z</time>
<desc>lat.=55.753929, lon.=26.022827, Alt.=168.033325m. Speed=0.360000m/h.</desc>
<speed>0.100000</speed>
</trkpt>
<trkpt lat="55.753929" lon="26.022827">
<ele>168.029419</ele>
<time>2010-07-17T17:43:02Z</time>
<desc>lat.=55.753929, lon.=26.022827, Alt.=168.029419m. Speed=0.144000m/h.</desc>
<speed>0.040000</speed>
</trkpt>
<trkpt lat="55.753929" lon="26.022827">
<ele>168.025513</ele>
<time>2010-07-17T17:43:03Z</time>
<desc>lat.=55.753929, lon.=26.022827, Alt.=168.025513m. Speed=0.468000m/h.</desc>
<speed>0.130000</speed>
</trkpt>
<trkpt lat="55.753933" lon="26.022825">
<ele>168.025513</ele>
<time>2010-07-17T17:43:04Z</time>
<desc>lat.=55.753933, lon.=26.022825, Alt.=168.025513m. Speed=0.720000m/h.</desc>
<speed>0.200000</speed>
</trkpt>
<trkpt lat="55.753933" lon="26.022823">
<ele>168.025513</ele>
<time>2010-07-17T17:43:05Z</time>
<desc>lat.=55.753933, lon.=26.022823, Alt.=168.025513m. Speed=0.576000m/h.</desc>
<speed>0.160000</speed>
</trkpt>
<trkpt lat="55.753937" lon="26.022823">
<ele>168.021606</ele>
<time>2010-07-17T17:43:06Z</time>
<desc>lat.=55.753937, lon.=26.022823, Alt.=168.021606m. Speed=0.828000m/h.</desc>
<speed>0.230000</speed>
</trkpt>
<trkpt lat="55.753937" lon="26.022820">
<ele>168.021606</ele>
<time>2010-07-17T17:43:07Z</time>
<desc>lat.=55.753937, lon.=26.022820, Alt.=168.021606m. Speed=0.936000m/h.</desc>
<speed>0.260000</speed>
</trkpt>
<trkpt lat="55.753937" lon="26.022818">
<ele>168.025513</ele>
<time>2010-07-17T17:43:08Z</time>
<desc>lat.=55.753937, lon.=26.022818, Alt.=168.025513m. Speed=0.720000m/h.</desc>
<speed>0.200000</speed>
</trkpt>
<trkpt lat="55.753941" lon="26.022814">
<ele>168.025513</ele>
<time>2010-07-17T17:43:09Z</time>
<desc>lat.=55.753941, lon.=26.022814, Alt.=168.025513m. Speed=0.684000m/h.</desc>
<speed>0.190000</speed>
</trkpt>
<trkpt lat="55.753941" lon="26.022810">
<ele>168.045044</ele>
<time>2010-07-17T17:43:10Z</time>
<desc>lat.=55.753941, lon.=26.022810, Alt.=168.045044m. Speed=0.468000m/h.</desc>
<speed>0.130000</speed>
</trkpt>
<trkpt lat="55.753941" lon="26.022808">
<ele>168.048950</ele>
<time>2010-07-17T17:43:11Z</time>
<desc>lat.=55.753941, lon.=26.022808, Alt.=168.048950m. Speed=0.900000m/h.</desc>
<speed>0.250000</speed>
</trkpt>
<trkpt lat="55.753937" lon="26.022810">
<ele>168.056763</ele>
<time>2010-07-17T17:43:12Z</time>
<desc>lat.=55.753937, lon.=26.022810, Alt.=168.056763m. Speed=1.152000m/h.</desc>
<speed>0.320000</speed>
</trkpt>
<trkpt lat="55.753933" lon="26.022806">
<ele>168.947388</ele>
<time>2010-07-17T17:43:13Z</time>
<desc>lat.=55.753933, lon.=26.022806, Alt.=168.947388m. Speed=1.008000m/h.</desc>
<speed>0.280000</speed>
</trkpt>
<trkpt lat="55.753937" lon="26.022808">
<ele>169.681763</ele>
<time>2010-07-17T17:43:14Z</time>
<desc>lat.=55.753937, lon.=26.022808, Alt.=169.681763m. Speed=1.080000m/h.</desc>
<speed>0.300000</speed>
</trkpt>
<trkpt lat="55.753937" lon="26.022810">
<ele>169.963013</ele>
<time>2010-07-17T17:43:15Z</time>
<desc>lat.=55.753937, lon.=26.022810, Alt.=169.963013m. Speed=0.756000m/h.</desc>
<speed>0.210000</speed>
</trkpt>
<trkpt lat="55.753937" lon="26.022820">
<ele>170.068481</ele>
<time>2010-07-17T17:43:16Z</time>
<desc>lat.=55.753937, lon.=26.022820, Alt.=170.068481m. Speed=0.648000m/h.</desc>
<speed>0.180000</speed>
</trkpt>
<trkpt lat="55.753937" lon="26.022821">
<ele>170.334106</ele>
<time>2010-07-17T17:43:17Z</time>
<desc>lat.=55.753937, lon.=26.022821, Alt.=170.334106m. Speed=0.324000m/h.</desc>
<speed>0.090000</speed>
</trkpt>
<trkpt lat="55.753941" lon="26.022825">
<ele>170.732544</ele>
<time>2010-07-17T17:43:18Z</time>
<desc>lat.=55.753941, lon.=26.022825, Alt.=170.732544m. Speed=0.432000m/h.</desc>
<speed>0.120000</speed>
</trkpt>
<trkpt lat="55.753941" lon="26.022825">
<ele>170.744263</ele>
<time>2010-07-17T17:43:19Z</time>
<desc>lat.=55.753941, lon.=26.022825, Alt.=170.744263m. Speed=0.612000m/h.</desc>
<speed>0.170000</speed>
</trkpt>
<trkpt lat="55.753944" lon="26.022823">
<ele>170.755981</ele>
<time>2010-07-17T17:43:20Z</time>
<desc>lat.=55.753944, lon.=26.022823, Alt.=170.755981m. Speed=0.720000m/h.</desc>
<speed>0.200000</speed>
</trkpt>
<trkpt lat="55.753944" lon="26.022821">
<ele>170.763794</ele>
<time>2010-07-17T17:43:21Z</time>
<desc>lat.=55.753944, lon.=26.022821, Alt.=170.763794m. Speed=0.360000m/h.</desc>
<speed>0.100000</speed>
</trkpt>
<trkpt lat="55.753944" lon="26.022820">
<ele>170.775513</ele>
<time>2010-07-17T17:43:22Z</time>
<desc>lat.=55.753944, lon.=26.022820, Alt.=170.775513m. Speed=0.324000m/h.</desc>
<speed>0.090000</speed>
</trkpt>
<trkpt lat="55.753944" lon="26.022820">
<ele>170.795044</ele>
<time>2010-07-17T17:43:23Z</time>
<desc>lat.=55.753944, lon.=26.022820, Alt.=170.795044m. Speed=0.288000m/h.</desc>
<speed>0.080000</speed>
</trkpt>
<trkpt lat="55.753944" lon="26.022818">
<ele>170.802856</ele>
<time>2010-07-17T17:43:24Z</time>
<desc>lat.=55.753944, lon.=26.022818, Alt.=170.802856m. Speed=0.144000m/h.</desc>
<speed>0.040000</speed>
</trkpt>
<trkpt lat="55.753944" lon="26.022818">
<ele>170.810669</ele>
<time>2010-07-17T17:43:25Z</time>
<desc>lat.=55.753944, lon.=26.022818, Alt.=170.810669m. Speed=0.504000m/h.</desc>
<speed>0.140000</speed>
</trkpt>
<trkpt lat="55.753948" lon="26.022818">
<ele>170.818481</ele>
<time>2010-07-17T17:43:26Z</time>
<desc>lat.=55.753948, lon.=26.022818, Alt.=170.818481m. Speed=0.324000m/h.</desc>
<speed>0.090000</speed>
</trkpt>
<trkpt lat="55.753948" lon="26.022818">
<ele>170.830200</ele>
<time>2010-07-17T17:43:27Z</time>
<desc>lat.=55.753948, lon.=26.022818, Alt.=170.830200m. Speed=0.432000m/h.</desc>
<speed>0.120000</speed>
</trkpt>
<trkpt lat="55.753948" lon="26.022816">
<ele>170.841919</ele>
<time>2010-07-17T17:43:28Z</time>
<desc>lat.=55.753948, lon.=26.022816, Alt.=170.841919m. Speed=0.396000m/h.</desc>
<speed>0.110000</speed>
</trkpt>
<trkpt lat="55.753948" lon="26.022816">
<ele>170.857544</ele>
<time>2010-07-17T17:43:29Z</time>
<desc>lat.=55.753948, lon.=26.022816, Alt.=170.857544m. Speed=0.612000m/h.</desc>
<speed>0.170000</speed>
</trkpt>
<trkpt lat="55.753952" lon="26.022816">
<ele>170.877075</ele>
<time>2010-07-17T17:43:30Z</time>
<desc>lat.=55.753952, lon.=26.022816, Alt.=170.877075m. Speed=0.972000m/h.</desc>
<speed>0.270000</speed>
</trkpt>
<trkpt lat="55.753952" lon="26.022818">
<ele>170.892700</ele>
<time>2010-07-17T17:43:31Z</time>
<desc>lat.=55.753952, lon.=26.022818, Alt.=170.892700m. Speed=1.008000m/h.</desc>
<speed>0.280000</speed>
</trkpt>
<trkpt lat="55.753956" lon="26.022820">
<ele>170.908325</ele>
<time>2010-07-17T17:43:32Z</time>
<desc>lat.=55.753956, lon.=26.022820, Alt.=170.908325m. Speed=0.828000m/h.</desc>
<speed>0.230000</speed>
</trkpt>
<trkpt lat="55.753956" lon="26.022820">
<ele>170.923950</ele>
<time>2010-07-17T17:43:33Z</time>
<desc>lat.=55.753956, lon.=26.022820, Alt.=170.923950m. Speed=0.720000m/h.</desc>
<speed>0.200000</speed>
</trkpt>
<trkpt lat="55.753960" lon="26.022821">
<ele>170.939575</ele>
<time>2010-07-17T17:43:34Z</time>
<desc>lat.=55.753960, lon.=26.022821, Alt.=170.939575m. Speed=0.684000m/h.</desc>
<speed>0.190000</speed>
</trkpt>
<trkpt lat="55.753960" lon="26.022820">
<ele>170.963013</ele>
<time>2010-07-17T17:43:35Z</time>
<desc>lat.=55.753960, lon.=26.022820, Alt.=170.963013m. Speed=0.144000m/h.</desc>
<speed>0.040000</speed>
</trkpt>
<trkpt lat="55.753960" lon="26.022818">
<ele>170.986450</ele>
<time>2010-07-17T17:43:36Z</time>
<desc>lat.=55.753960, lon.=26.022818, Alt.=170.986450m. Speed=0.252000m/h.</desc>
<speed>0.070000</speed>
</trkpt>
<trkpt lat="55.753960" lon="26.022818">
<ele>171.005981</ele>
<time>2010-07-17T17:43:37Z</time>
<desc>lat.=55.753960, lon.=26.022818, Alt.=171.005981m. Speed=0.288000m/h.</desc>
<speed>0.080000</speed>
</trkpt>
<trkpt lat="55.753960" lon="26.022816">
<ele>171.021606</ele>
<time>2010-07-17T17:43:38Z</time>
<desc>lat.=55.753960, lon.=26.022816, Alt.=171.021606m. Speed=0.576000m/h.</desc>
<speed>0.160000</speed>
</trkpt>
<trkpt lat="55.753963" lon="26.022814">
<ele>171.041138</ele>
<time>2010-07-17T17:43:39Z</time>
<desc>lat.=55.753963, lon.=26.022814, Alt.=171.041138m. Speed=0.828000m/h.</desc>
<speed>0.230000</speed>
</trkpt>
<trkpt lat="55.753963" lon="26.022810">
<ele>171.056763</ele>
<time>2010-07-17T17:43:40Z</time>
<desc>lat.=55.753963, lon.=26.022810, Alt.=171.056763m. Speed=0.648000m/h.</desc>
<speed>0.180000</speed>
</trkpt>
<trkpt lat="55.753960" lon="26.022806">
<ele>171.068481</ele>
<time>2010-07-17T17:43:41Z</time>
<desc>lat.=55.753960, lon.=26.022806, Alt.=171.068481m. Speed=0.720000m/h.</desc>
<speed>0.200000</speed>
</trkpt>
<trkpt lat="55.753960" lon="26.022804">
<ele>171.080200</ele>
<time>2010-07-17T17:43:42Z</time>
<desc>lat.=55.753960, lon.=26.022804, Alt.=171.080200m. Speed=0.684000m/h.</desc>
<speed>0.190000</speed>
</trkpt>
<trkpt lat="55.753956" lon="26.022804">
<ele>171.088013</ele>
<time>2010-07-17T17:43:43Z</time>
<desc>lat.=55.753956, lon.=26.022804, Alt.=171.088013m. Speed=0.792000m/h.</desc>
<speed>0.220000</speed>
</trkpt>
<trkpt lat="55.753956" lon="26.022802">
<ele>171.095825</ele>
<time>2010-07-17T17:43:44Z</time>
<desc>lat.=55.753956, lon.=26.022802, Alt.=171.095825m. Speed=0.360000m/h.</desc>
<speed>0.100000</speed>
</trkpt>
<trkpt lat="55.753956" lon="26.022804">
<ele>171.099731</ele>
<time>2010-07-17T17:43:45Z</time>
<desc>lat.=55.753956, lon.=26.022804, Alt.=171.099731m. Speed=0.720000m/h.</desc>
<speed>0.200000</speed>
</trkpt>
<trkpt lat="55.753952" lon="26.022804">
<ele>171.107544</ele>
<time>2010-07-17T17:43:46Z</time>
<desc>lat.=55.753952, lon.=26.022804, Alt.=171.107544m. Speed=0.252000m/h.</desc>
<speed>0.070000</speed>
</trkpt>
<trkpt lat="55.753952" lon="26.022806">
<ele>171.115356</ele>
<time>2010-07-17T17:43:47Z</time>
<desc>lat.=55.753952, lon.=26.022806, Alt.=171.115356m. Speed=0.216000m/h.</desc>
<speed>0.060000</speed>
</trkpt>
<trkpt lat="55.753952" lon="26.022804">
<ele>171.119263</ele>
<time>2010-07-17T17:43:48Z</time>
<desc>lat.=55.753952, lon.=26.022804, Alt.=171.119263m. Speed=0.144000m/h.</desc>
<speed>0.040000</speed>
</trkpt>
<trkpt lat="55.753952" lon="26.022804">
<ele>171.123169</ele>
<time>2010-07-17T17:43:49Z</time>
<desc>lat.=55.753952, lon.=26.022804, Alt.=171.123169m. Speed=0.252000m/h.</desc>
<speed>0.070000</speed>
</trkpt>
<trkpt lat="55.753952" lon="26.022804">
<ele>171.123169</ele>
<time>2010-07-17T17:43:50Z</time>
<desc>lat.=55.753952, lon.=26.022804, Alt.=171.123169m. Speed=0.468000m/h.</desc>
<speed>0.130000</speed>
</trkpt>
<trkpt lat="55.753952" lon="26.022802">
<ele>171.123169</ele>
<time>2010-07-17T17:43:51Z</time>
<desc>lat.=55.753952, lon.=26.022802, Alt.=171.123169m. Speed=0.396000m/h.</desc>
<speed>0.110000</speed>
</trkpt>
<trkpt lat="55.753952" lon="26.022799">
<ele>171.127075</ele>
<time>2010-07-17T17:43:52Z</time>
<desc>lat.=55.753952, lon.=26.022799, Alt.=171.127075m. Speed=0.360000m/h.</desc>
<speed>0.100000</speed>
</trkpt>
<trkpt lat="55.753952" lon="26.022799">
<ele>171.127075</ele>
<time>2010-07-17T17:43:53Z</time>
<desc>lat.=55.753952, lon.=26.022799, Alt.=171.127075m. Speed=0.144000m/h.</desc>
<speed>0.040000</speed>
</trkpt>
<trkpt lat="55.753952" lon="26.022799">
<ele>171.115356</ele>
<time>2010-07-17T17:43:54Z</time>
<desc>lat.=55.753952, lon.=26.022799, Alt.=171.115356m. Speed=0.072000m/h.</desc>
<speed>0.020000</speed>
</trkpt>
<trkpt lat="55.753952" lon="26.022799">
<ele>171.119263</ele>
<time>2010-07-17T17:43:55Z</time>
<desc>lat.=55.753952, lon.=26.022799, Alt.=171.119263m. Speed=0.252000m/h.</desc>
<speed>0.070000</speed>
</trkpt>
<trkpt lat="55.753952" lon="26.022799">
<ele>171.123169</ele>
<time>2010-07-17T17:43:56Z</time>
<desc>lat.=55.753952, lon.=26.022799, Alt.=171.123169m. Speed=0.432000m/h.</desc>
<speed>0.120000</speed>
</trkpt>
<trkpt lat="55.753952" lon="26.022800">
<ele>171.115356</ele>
<time>2010-07-17T17:43:57Z</time>
<desc>lat.=55.753952, lon.=26.022800, Alt.=171.115356m. Speed=0.684000m/h.</desc>
<speed>0.190000</speed>
</trkpt>
<trkpt lat="55.753952" lon="26.022804">
<ele>171.134888</ele>
<time>2010-07-17T17:43:58Z</time>
<desc>lat.=55.753952, lon.=26.022804, Alt.=171.134888m. Speed=0.288000m/h.</desc>
<speed>0.080000</speed>
</trkpt>
<trkpt lat="55.753952" lon="26.022804">
<ele>171.127075</ele>
<time>2010-07-17T17:43:59Z</time>
<desc>lat.=55.753952, lon.=26.022804, Alt.=171.127075m. Speed=0.072000m/h.</desc>
<speed>0.020000</speed>
</trkpt>
<trkpt lat="55.753952" lon="26.022804">
<ele>171.130981</ele>
<time>2010-07-17T17:44:00Z</time>
<desc>lat.=55.753952, lon.=26.022804, Alt.=171.130981m. Speed=0.612000m/h.</desc>
<speed>0.170000</speed>
</trkpt>
<trkpt lat="55.753952" lon="26.022802">
<ele>171.127075</ele>
<time>2010-07-17T17:44:01Z</time>
<desc>lat.=55.753952, lon.=26.022802, Alt.=171.127075m. Speed=0.432000m/h.</desc>
<speed>0.120000</speed>
</trkpt>
<trkpt lat="55.753952" lon="26.022802">
<ele>171.119263</ele>
<time>2010-07-17T17:44:02Z</time>
<desc>lat.=55.753952, lon.=26.022802, Alt.=171.119263m. Speed=0.504000m/h.</desc>
<speed>0.140000</speed>
</trkpt>
<trkpt lat="55.753952" lon="26.022800">
<ele>171.107544</ele>
<time>2010-07-17T17:44:03Z</time>
<desc>lat.=55.753952, lon.=26.022800, Alt.=171.107544m. Speed=0.360000m/h.</desc>
<speed>0.100000</speed>
</trkpt>
<trkpt lat="55.753956" lon="26.022800">
<ele>171.095825</ele>
<time>2010-07-17T17:44:04Z</time>
<desc>lat.=55.753956, lon.=26.022800, Alt.=171.095825m. Speed=0.504000m/h.</desc>
<speed>0.140000</speed>
</trkpt>
<trkpt lat="55.753952" lon="26.022799">
<ele>171.091919</ele>
<time>2010-07-17T17:44:05Z</time>
<desc>lat.=55.753952, lon.=26.022799, Alt.=171.091919m. Speed=0.396000m/h.</desc>
<speed>0.110000</speed>
</trkpt>
<trkpt lat="55.753952" lon="26.022797">
<ele>171.088013</ele>
<time>2010-07-17T17:44:06Z</time>
<desc>lat.=55.753952, lon.=26.022797, Alt.=171.088013m. Speed=0.216000m/h.</desc>
<speed>0.060000</speed>
</trkpt>
<trkpt lat="55.753952" lon="26.022797">
<ele>171.084106</ele>
<time>2010-07-17T17:44:07Z</time>
<desc>lat.=55.753952, lon.=26.022797, Alt.=171.084106m. Speed=0.324000m/h.</desc>
<speed>0.090000</speed>
</trkpt>
<trkpt lat="55.753952" lon="26.022799">
<ele>171.080200</ele>
<time>2010-07-17T17:44:08Z</time>
<desc>lat.=55.753952, lon.=26.022799, Alt.=171.080200m. Speed=0.324000m/h.</desc>
<speed>0.090000</speed>
</trkpt>
<trkpt lat="55.753952" lon="26.022797">
<ele>171.084106</ele>
<time>2010-07-17T17:44:09Z</time>
<desc>lat.=55.753952, lon.=26.022797, Alt.=171.084106m. Speed=0.072000m/h.</desc>
<speed>0.020000</speed>
</trkpt>
<trkpt lat="55.753952" lon="26.022797">
<ele>171.084106</ele>
<time>2010-07-17T17:44:10Z</time>
<desc>lat.=55.753952, lon.=26.022797, Alt.=171.084106m. Speed=0.396000m/h.</desc>
<speed>0.110000</speed>
</trkpt>
<trkpt lat="55.753952" lon="26.022795">
<ele>171.084106</ele>
<time>2010-07-17T17:44:11Z</time>
<desc>lat.=55.753952, lon.=26.022795, Alt.=171.084106m. Speed=0.252000m/h.</desc>
<speed>0.070000</speed>
</trkpt>
<trkpt lat="55.753952" lon="26.022795">
<ele>171.088013</ele>
<time>2010-07-17T17:44:12Z</time>
<desc>lat.=55.753952, lon.=26.022795, Alt.=171.088013m. Speed=0.504000m/h.</desc>
<speed>0.140000</speed>
</trkpt>
<trkpt lat="55.753948" lon="26.022795">
<ele>171.088013</ele>
<time>2010-07-17T17:44:13Z</time>
<desc>lat.=55.753948, lon.=26.022795, Alt.=171.088013m. Speed=0.504000m/h.</desc>
<speed>0.140000</speed>
</trkpt>
<trkpt lat="55.753948" lon="26.022795">
<ele>171.091919</ele>
<time>2010-07-17T17:44:14Z</time>
<desc>lat.=55.753948, lon.=26.022795, Alt.=171.091919m. Speed=0.432000m/h.</desc>
<speed>0.120000</speed>
</trkpt>
<trkpt lat="55.753948" lon="26.022795">
<ele>171.099731</ele>
<time>2010-07-17T17:44:15Z</time>
<desc>lat.=55.753948, lon.=26.022795, Alt.=171.099731m. Speed=0.540000m/h.</desc>
<speed>0.150000</speed>
</trkpt>
<trkpt lat="55.753948" lon="26.022793">
<ele>171.115356</ele>
<time>2010-07-17T17:44:16Z</time>
<desc>lat.=55.753948, lon.=26.022793, Alt.=171.115356m. Speed=0.216000m/h.</desc>
<speed>0.060000</speed>
</trkpt>
<trkpt lat="55.753948" lon="26.022791">
<ele>171.134888</ele>
<time>2010-07-17T17:44:17Z</time>
<desc>lat.=55.753948, lon.=26.022791, Alt.=171.134888m. Speed=0.216000m/h.</desc>
<speed>0.060000</speed>
</trkpt>
<trkpt lat="55.753948" lon="26.022791">
<ele>171.150513</ele>
<time>2010-07-17T17:44:18Z</time>
<desc>lat.=55.753948, lon.=26.022791, Alt.=171.150513m. Speed=0.288000m/h.</desc>
<speed>0.080000</speed>
</trkpt>
<trkpt lat="55.753948" lon="26.022793">
<ele>171.170044</ele>
<time>2010-07-17T17:44:19Z</time>
<desc>lat.=55.753948, lon.=26.022793, Alt.=171.170044m. Speed=0.540000m/h.</desc>
<speed>0.150000</speed>
</trkpt>
<trkpt lat="55.753948" lon="26.022795">
<ele>171.189575</ele>
<time>2010-07-17T17:44:20Z</time>
<desc>lat.=55.753948, lon.=26.022795, Alt.=171.189575m. Speed=0.504000m/h.</desc>
<speed>0.140000</speed>
</trkpt>
<trkpt lat="55.753948" lon="26.022797">
<ele>171.205200</ele>
<time>2010-07-17T17:44:21Z</time>
<desc>lat.=55.753948, lon.=26.022797, Alt.=171.205200m. Speed=0.720000m/h.</desc>
<speed>0.200000</speed>
</trkpt>
<trkpt lat="55.753948" lon="26.022800">
<ele>171.228638</ele>
<time>2010-07-17T17:44:22Z</time>
<desc>lat.=55.753948, lon.=26.022800, Alt.=171.228638m. Speed=0.504000m/h.</desc>
<speed>0.140000</speed>
</trkpt>
<trkpt lat="55.753948" lon="26.022802">
<ele>171.248169</ele>
<time>2010-07-17T17:44:23Z</time>
<desc>lat.=55.753948, lon.=26.022802, Alt.=171.248169m. Speed=0.360000m/h.</desc>
<speed>0.100000</speed>
</trkpt>
<trkpt lat="55.753948" lon="26.022804">
<ele>171.271606</ele>
<time>2010-07-17T17:44:24Z</time>
<desc>lat.=55.753948, lon.=26.022804, Alt.=171.271606m. Speed=0.576000m/h.</desc>
<speed>0.160000</speed>
</trkpt>
<trkpt lat="55.753948" lon="26.022808">
<ele>171.295044</ele>
<time>2010-07-17T17:44:25Z</time>
<desc>lat.=55.753948, lon.=26.022808, Alt.=171.295044m. Speed=0.648000m/h.</desc>
<speed>0.180000</speed>
</trkpt>
<trkpt lat="55.753948" lon="26.022810">
<ele>171.318481</ele>
<time>2010-07-17T17:44:26Z</time>
<desc>lat.=55.753948, lon.=26.022810, Alt.=171.318481m. Speed=0.648000m/h.</desc>
<speed>0.180000</speed>
</trkpt>
<trkpt lat="55.753948" lon="26.022814">
<ele>171.334106</ele>
<time>2010-07-17T17:44:27Z</time>
<desc>lat.=55.753948, lon.=26.022814, Alt.=171.334106m. Speed=0.360000m/h.</desc>
<speed>0.100000</speed>
</trkpt>
<trkpt lat="55.753948" lon="26.022814">
<ele>171.353638</ele>
<time>2010-07-17T17:44:28Z</time>
<desc>lat.=55.753948, lon.=26.022814, Alt.=171.353638m. Speed=0.072000m/h.</desc>
<speed>0.020000</speed>
</trkpt>
<trkpt lat="55.753948" lon="26.022816">
<ele>171.373169</ele>
<time>2010-07-17T17:44:29Z</time>
<desc>lat.=55.753948, lon.=26.022816, Alt.=171.373169m. Speed=0.360000m/h.</desc>
<speed>0.100000</speed>
</trkpt>
<trkpt lat="55.753948" lon="26.022816">
<ele>171.392700</ele>
<time>2010-07-17T17:44:30Z</time>
<desc>lat.=55.753948, lon.=26.022816, Alt.=171.392700m. Speed=0.504000m/h.</desc>
<speed>0.140000</speed>
</trkpt>
<trkpt lat="55.753948" lon="26.022820">
<ele>171.412231</ele>
<time>2010-07-17T17:44:31Z</time>
<desc>lat.=55.753948, lon.=26.022820, Alt.=171.412231m. Speed=0.576000m/h.</desc>
<speed>0.160000</speed>
</trkpt>
<trkpt lat="55.753948" lon="26.022821">
<ele>171.431763</ele>
<time>2010-07-17T17:44:32Z</time>
<desc>lat.=55.753948, lon.=26.022821, Alt.=171.431763m. Speed=0.432000m/h.</desc>
<speed>0.120000</speed>
</trkpt>
<trkpt lat="55.753948" lon="26.022823">
<ele>171.455200</ele>
<time>2010-07-17T17:44:33Z</time>
<desc>lat.=55.753948, lon.=26.022823, Alt.=171.455200m. Speed=1.188000m/h.</desc>
<speed>0.330000</speed>
</trkpt>
<trkpt lat="55.753948" lon="26.022848">
<ele>171.888794</ele>
<time>2010-07-17T17:44:34Z</time>
<desc>lat.=55.753948, lon.=26.022848, Alt.=171.888794m. Speed=1.080000m/h.</desc>
<speed>0.300000</speed>
</trkpt>
<trkpt lat="55.753952" lon="26.022860">
<ele>172.107544</ele>
<time>2010-07-17T17:44:35Z</time>
<desc>lat.=55.753952, lon.=26.022860, Alt.=172.107544m. Speed=0.828000m/h.</desc>
<speed>0.230000</speed>
</trkpt>
<trkpt lat="55.753956" lon="26.022869">
<ele>172.326294</ele>
<time>2010-07-17T17:44:36Z</time>
<desc>lat.=55.753956, lon.=26.022869, Alt.=172.326294m. Speed=0.720000m/h.</desc>
<speed>0.200000</speed>
</trkpt>
<trkpt lat="55.753952" lon="26.022869">
<ele>172.388794</ele>
<time>2010-07-17T17:44:37Z</time>
<desc>lat.=55.753952, lon.=26.022869, Alt.=172.388794m. Speed=0.792000m/h.</desc>
<speed>0.220000</speed>
</trkpt>
<trkpt lat="55.753956" lon="26.022867">
<ele>172.412231</ele>
<time>2010-07-17T17:44:38Z</time>
<desc>lat.=55.753956, lon.=26.022867, Alt.=172.412231m. Speed=0.684000m/h.</desc>
<speed>0.190000</speed>
</trkpt>
<trkpt lat="55.753956" lon="26.022871">
<ele>172.431763</ele>
<time>2010-07-17T17:44:39Z</time>
<desc>lat.=55.753956, lon.=26.022871, Alt.=172.431763m. Speed=0.540000m/h.</desc>
<speed>0.150000</speed>
</trkpt>
<trkpt lat="55.753956" lon="26.022873">
<ele>172.443481</ele>
<time>2010-07-17T17:44:40Z</time>
<desc>lat.=55.753956, lon.=26.022873, Alt.=172.443481m. Speed=0.720000m/h.</desc>
<speed>0.200000</speed>
</trkpt>
<trkpt lat="55.753956" lon="26.022875">
<ele>172.451294</ele>
<time>2010-07-17T17:44:41Z</time>
<desc>lat.=55.753956, lon.=26.022875, Alt.=172.451294m. Speed=0.432000m/h.</desc>
<speed>0.120000</speed>
</trkpt>
<trkpt lat="55.753960" lon="26.022877">
<ele>172.470825</ele>
<time>2010-07-17T17:44:42Z</time>
<desc>lat.=55.753960, lon.=26.022877, Alt.=172.470825m. Speed=0.108000m/h.</desc>
<speed>0.030000</speed>
</trkpt>
<trkpt lat="55.753960" lon="26.022877">
<ele>172.486450</ele>
<time>2010-07-17T17:44:43Z</time>
<desc>lat.=55.753960, lon.=26.022877, Alt.=172.486450m. Speed=0.324000m/h.</desc>
<speed>0.090000</speed>
</trkpt>
<trkpt lat="55.753960" lon="26.022877">
<ele>172.498169</ele>
<time>2010-07-17T17:44:44Z</time>
<desc>lat.=55.753960, lon.=26.022877, Alt.=172.498169m. Speed=0.216000m/h.</desc>
<speed>0.060000</speed>
</trkpt>
<trkpt lat="55.753960" lon="26.022877">
<ele>172.505981</ele>
<time>2010-07-17T17:44:45Z</time>
<desc>lat.=55.753960, lon.=26.022877, Alt.=172.505981m. Speed=0.720000m/h.</desc>
<speed>0.200000</speed>
</trkpt>
<trkpt lat="55.753960" lon="26.022879">
<ele>172.513794</ele>
<time>2010-07-17T17:44:46Z</time>
<desc>lat.=55.753960, lon.=26.022879, Alt.=172.513794m. Speed=0.936000m/h.</desc>
<speed>0.260000</speed>
</trkpt>
<trkpt lat="55.753960" lon="26.022884">
<ele>172.529419</ele>
<time>2010-07-17T17:44:47Z</time>
<desc>lat.=55.753960, lon.=26.022884, Alt.=172.529419m. Speed=1.548000m/h.</desc>
<speed>0.430000</speed>
</trkpt>
<trkpt lat="55.753956" lon="26.022873">
<ele>172.369263</ele>
<time>2010-07-17T17:44:48Z</time>
<desc>lat.=55.753956, lon.=26.022873, Alt.=172.369263m. Speed=1.224000m/h.</desc>
<speed>0.340000</speed>
</trkpt>
<trkpt lat="55.753952" lon="26.022884">
<ele>172.431763</ele>
<time>2010-07-17T17:44:49Z</time>
<desc>lat.=55.753952, lon.=26.022884, Alt.=172.431763m. Speed=1.080000m/h.</desc>
<speed>0.300000</speed>
</trkpt>
<trkpt lat="55.753944" lon="26.022894">
<ele>172.548950</ele>
<time>2010-07-17T17:44:50Z</time>
<desc>lat.=55.753944, lon.=26.022894, Alt.=172.548950m. Speed=1.116000m/h.</desc>
<speed>0.310000</speed>
</trkpt>
<trkpt lat="55.753941" lon="26.022902">
<ele>172.466919</ele>
<time>2010-07-17T17:44:51Z</time>
<desc>lat.=55.753941, lon.=26.022902, Alt.=172.466919m. Speed=1.404000m/h.</desc>
<speed>0.390000</speed>
</trkpt>
<trkpt lat="55.753941" lon="26.022911">
<ele>172.502075</ele>
<time>2010-07-17T17:44:52Z</time>
<desc>lat.=55.753941, lon.=26.022911, Alt.=172.502075m. Speed=1.692000m/h.</desc>
<speed>0.470000</speed>
</trkpt>
<trkpt lat="55.753948" lon="26.022926">
<ele>172.392700</ele>
<time>2010-07-17T17:44:53Z</time>
<desc>lat.=55.753948, lon.=26.022926, Alt.=172.392700m. Speed=2.664000m/h.</desc>
<speed>0.740000</speed>
</trkpt>
<trkpt lat="55.753956" lon="26.022930">
<ele>172.291138</ele>
<time>2010-07-17T17:44:54Z</time>
<desc>lat.=55.753956, lon.=26.022930, Alt.=172.291138m. Speed=2.952000m/h.</desc>
<speed>0.820000</speed>
</trkpt>
<trkpt lat="55.753960" lon="26.022943">
<ele>172.267700</ele>
<time>2010-07-17T17:44:55Z</time>
<desc>lat.=55.753960, lon.=26.022943, Alt.=172.267700m. Speed=2.376000m/h.</desc>
<speed>0.660000</speed>
</trkpt>
<trkpt lat="55.753967" lon="26.022959">
<ele>172.228638</ele>
<time>2010-07-17T17:44:56Z</time>
<desc>lat.=55.753967, lon.=26.022959, Alt.=172.228638m. Speed=4.788000m/h.</desc>
<speed>1.330000</speed>
</trkpt>
<trkpt lat="55.753967" lon="26.022985">
<ele>172.291138</ele>
<time>2010-07-17T17:44:57Z</time>
<desc>lat.=55.753967, lon.=26.022985, Alt.=172.291138m. Speed=6.696000m/h.</desc>
<speed>1.860000</speed>
</trkpt>
<trkpt lat="55.753979" lon="26.023027">
<ele>172.455200</ele>
<time>2010-07-17T17:44:58Z</time>
<desc>lat.=55.753979, lon.=26.023027, Alt.=172.455200m. Speed=10.836000m/h.</desc>
<speed>3.010000</speed>
</trkpt>
<trkpt lat="55.753979" lon="26.023067">
<ele>172.607544</ele>
<time>2010-07-17T17:44:59Z</time>
<desc>lat.=55.753979, lon.=26.023067, Alt.=172.607544m. Speed=8.928000m/h.</desc>
<speed>2.480000</speed>
</trkpt>
<trkpt lat="55.753986" lon="26.023121">
<ele>172.873169</ele>
<time>2010-07-17T17:45:00Z</time>
<desc>lat.=55.753986, lon.=26.023121, Alt.=172.873169m. Speed=12.348000m/h.</desc>
<speed>3.430000</speed>
</trkpt>
<trkpt lat="55.753986" lon="26.023178">
<ele>173.338013</ele>
<time>2010-07-17T17:45:01Z</time>
<desc>lat.=55.753986, lon.=26.023178, Alt.=173.338013m. Speed=10.908000m/h.</desc>
<speed>3.030000</speed>
</trkpt>
<trkpt lat="55.753990" lon="26.023228">
<ele>173.728638</ele>
<time>2010-07-17T17:45:02Z</time>
<desc>lat.=55.753990, lon.=26.023228, Alt.=173.728638m. Speed=11.880000m/h.</desc>
<speed>3.300000</speed>
</trkpt>
<trkpt lat="55.753986" lon="26.023312">
<ele>174.435669</ele>
<time>2010-07-17T17:45:03Z</time>
<desc>lat.=55.753986, lon.=26.023312, Alt.=174.435669m. Speed=14.796000m/h.</desc>
<speed>4.110000</speed>
</trkpt>
<trkpt lat="55.753990" lon="26.023367">
<ele>175.369263</ele>
<time>2010-07-17T17:45:04Z</time>
<desc>lat.=55.753990, lon.=26.023367, Alt.=175.369263m. Speed=13.932000m/h.</desc>
<speed>3.870000</speed>
</trkpt>
<trkpt lat="55.753986" lon="26.023438">
<ele>175.884888</ele>
<time>2010-07-17T17:45:05Z</time>
<desc>lat.=55.753986, lon.=26.023438, Alt.=175.884888m. Speed=12.240000m/h.</desc>
<speed>3.400000</speed>
</trkpt>
<trkpt lat="55.753979" lon="26.023521">
<ele>177.005981</ele>
<time>2010-07-17T17:45:06Z</time>
<desc>lat.=55.753979, lon.=26.023521, Alt.=177.005981m. Speed=12.924000m/h.</desc>
<speed>3.590000</speed>
</trkpt>
<trkpt lat="55.753979" lon="26.023582">
<ele>177.213013</ele>
<time>2010-07-17T17:45:07Z</time>
<desc>lat.=55.753979, lon.=26.023582, Alt.=177.213013m. Speed=12.708000m/h.</desc>
<speed>3.530000</speed>
</trkpt>
<trkpt lat="55.753979" lon="26.023645">
<ele>177.123169</ele>
<time>2010-07-17T17:45:08Z</time>
<desc>lat.=55.753979, lon.=26.023645, Alt.=177.123169m. Speed=12.096000m/h.</desc>
<speed>3.360000</speed>
</trkpt>
<trkpt lat="55.753979" lon="26.023701">
<ele>177.029419</ele>
<time>2010-07-17T17:45:09Z</time>
<desc>lat.=55.753979, lon.=26.023701, Alt.=177.029419m. Speed=11.484000m/h.</desc>
<speed>3.190000</speed>
</trkpt>
<trkpt lat="55.753975" lon="26.023752">
<ele>176.685669</ele>
<time>2010-07-17T17:45:10Z</time>
<desc>lat.=55.753975, lon.=26.023752, Alt.=176.685669m. Speed=10.764000m/h.</desc>
<speed>2.990000</speed>
</trkpt>
<trkpt lat="55.753975" lon="26.023798">
<ele>176.341919</ele>
<time>2010-07-17T17:45:11Z</time>
<desc>lat.=55.753975, lon.=26.023798, Alt.=176.341919m. Speed=10.260000m/h.</desc>
<speed>2.850000</speed>
</trkpt>
<trkpt lat="55.753971" lon="26.023846">
<ele>176.986450</ele>
<time>2010-07-17T17:45:12Z</time>
<desc>lat.=55.753971, lon.=26.023846, Alt.=176.986450m. Speed=13.680000m/h.</desc>
<speed>3.800000</speed>
</trkpt>
<trkpt lat="55.753975" lon="26.023926">
<ele>177.048950</ele>
<time>2010-07-17T17:45:13Z</time>
<desc>lat.=55.753975, lon.=26.023926, Alt.=177.048950m. Speed=16.632000m/h.</desc>
<speed>4.620000</speed>
</trkpt>
<trkpt lat="55.753979" lon="26.024025">
<ele>177.591919</ele>
<time>2010-07-17T17:45:14Z</time>
<desc>lat.=55.753979, lon.=26.024025, Alt.=177.591919m. Speed=17.568001m/h.</desc>
<speed>4.880000</speed>
</trkpt>
<trkpt lat="55.753990" lon="26.024122">
<ele>177.099731</ele>
<time>2010-07-17T17:45:15Z</time>
<desc>lat.=55.753990, lon.=26.024122, Alt.=177.099731m. Speed=17.856001m/h.</desc>
<speed>4.960000</speed>
</trkpt>
<trkpt lat="55.754005" lon="26.024227">
<ele>177.146606</ele>
<time>2010-07-17T17:45:16Z</time>
<desc>lat.=55.754005, lon.=26.024227, Alt.=177.146606m. Speed=19.403999m/h.</desc>
<speed>5.390000</speed>
</trkpt>
<trkpt lat="55.754009" lon="26.024319">
<ele>178.709106</ele>
<time>2010-07-17T17:45:17Z</time>
<desc>lat.=55.754009, lon.=26.024319, Alt.=178.709106m. Speed=19.044001m/h.</desc>
<speed>5.290000</speed>
</trkpt>
<trkpt lat="55.754013" lon="26.024416">
<ele>178.459106</ele>
<time>2010-07-17T17:45:18Z</time>
<desc>lat.=55.754013, lon.=26.024416, Alt.=178.459106m. Speed=20.412001m/h.</desc>
<speed>5.670000</speed>
</trkpt>
<trkpt lat="55.754017" lon="26.024506">
<ele>178.088013</ele>
<time>2010-07-17T17:45:19Z</time>
<desc>lat.=55.754017, lon.=26.024506, Alt.=178.088013m. Speed=20.232000m/h.</desc>
<speed>5.620000</speed>
</trkpt>
<trkpt lat="55.754021" lon="26.024593">
<ele>177.720825</ele>
<time>2010-07-17T17:45:20Z</time>
<desc>lat.=55.754021, lon.=26.024593, Alt.=177.720825m. Speed=20.016001m/h.</desc>
<speed>5.560000</speed>
</trkpt>
<trkpt lat="55.754025" lon="26.024700">
<ele>178.748169</ele>
<time>2010-07-17T17:45:21Z</time>
<desc>lat.=55.754025, lon.=26.024700, Alt.=178.748169m. Speed=21.888000m/h.</desc>
<speed>6.080000</speed>
</trkpt>
<trkpt lat="55.754028" lon="26.024801">
<ele>177.994263</ele>
<time>2010-07-17T17:45:22Z</time>
<desc>lat.=55.754028, lon.=26.024801, Alt.=177.994263m. Speed=23.219999m/h.</desc>
<speed>6.450000</speed>
</trkpt>
<trkpt lat="55.754032" lon="26.024902">
<ele>177.736450</ele>
<time>2010-07-17T17:45:23Z</time>
<desc>lat.=55.754032, lon.=26.024902, Alt.=177.736450m. Speed=23.796000m/h.</desc>
<speed>6.610000</speed>
</trkpt>
<trkpt lat="55.754028" lon="26.025013">
<ele>177.267700</ele>
<time>2010-07-17T17:45:24Z</time>
<desc>lat.=55.754028, lon.=26.025013, Alt.=177.267700m. Speed=25.200001m/h.</desc>
<speed>7.000000</speed>
</trkpt>
<trkpt lat="55.754032" lon="26.025131">
<ele>176.705200</ele>
<time>2010-07-17T17:45:25Z</time>
<desc>lat.=55.754032, lon.=26.025131, Alt.=176.705200m. Speed=26.028000m/h.</desc>
<speed>7.230000</speed>
</trkpt>
<trkpt lat="55.754044" lon="26.025253">
<ele>176.572388</ele>
<time>2010-07-17T17:45:26Z</time>
<desc>lat.=55.754044, lon.=26.025253, Alt.=176.572388m. Speed=26.316000m/h.</desc>
<speed>7.310000</speed>
</trkpt>
<trkpt lat="55.754051" lon="26.025383">
<ele>176.591919</ele>
<time>2010-07-17T17:45:27Z</time>
<desc>lat.=55.754051, lon.=26.025383, Alt.=176.591919m. Speed=28.007999m/h.</desc>
<speed>7.780000</speed>
</trkpt>
<trkpt lat="55.754063" lon="26.025528">
<ele>176.002075</ele>
<time>2010-07-17T17:45:28Z</time>
<desc>lat.=55.754063, lon.=26.025528, Alt.=176.002075m. Speed=30.851999m/h.</desc>
<speed>8.570000</speed>
</trkpt>
<trkpt lat="55.754086" lon="26.025660">
<ele>176.045044</ele>
<time>2010-07-17T17:45:29Z</time>
<desc>lat.=55.754086, lon.=26.025660, Alt.=176.045044m. Speed=29.483999m/h.</desc>
<speed>8.190000</speed>
</trkpt>
<trkpt lat="55.754101" lon="26.025805">
<ele>176.486450</ele>
<time>2010-07-17T17:45:30Z</time>
<desc>lat.=55.754101, lon.=26.025805, Alt.=176.486450m. Speed=31.032000m/h.</desc>
<speed>8.620000</speed>
</trkpt>
<trkpt lat="55.754112" lon="26.025940">
<ele>174.826294</ele>
<time>2010-07-17T17:45:31Z</time>
<desc>lat.=55.754112, lon.=26.025940, Alt.=174.826294m. Speed=30.420000m/h.</desc>
<speed>8.450000</speed>
</trkpt>
<trkpt lat="55.754124" lon="26.026081">
<ele>173.740356</ele>
<time>2010-07-17T17:45:32Z</time>
<desc>lat.=55.754124, lon.=26.026081, Alt.=173.740356m. Speed=31.860001m/h.</desc>
<speed>8.850000</speed>
</trkpt>
<trkpt lat="55.754131" lon="26.026224">
<ele>172.439575</ele>
<time>2010-07-17T17:45:33Z</time>
<desc>lat.=55.754131, lon.=26.026224, Alt.=172.439575m. Speed=31.788000m/h.</desc>
<speed>8.830000</speed>
</trkpt>
<trkpt lat="55.754139" lon="26.026367">
<ele>171.767700</ele>
<time>2010-07-17T17:45:34Z</time>
<desc>lat.=55.754139, lon.=26.026367, Alt.=171.767700m. Speed=31.968000m/h.</desc>
<speed>8.880000</speed>
</trkpt>
<trkpt lat="55.754143" lon="26.026510">
<ele>170.728638</ele>
<time>2010-07-17T17:45:35Z</time>
<desc>lat.=55.754143, lon.=26.026510, Alt.=170.728638m. Speed=31.212000m/h.</desc>
<speed>8.670000</speed>
</trkpt>
<trkpt lat="55.754147" lon="26.026653">
<ele>170.240356</ele>
<time>2010-07-17T17:45:36Z</time>
<desc>lat.=55.754147, lon.=26.026653, Alt.=170.240356m. Speed=31.608000m/h.</desc>
<speed>8.780000</speed>
</trkpt>
<trkpt lat="55.754150" lon="26.026791">
<ele>170.021606</ele>
<time>2010-07-17T17:45:37Z</time>
<desc>lat.=55.754150, lon.=26.026791, Alt.=170.021606m. Speed=28.403999m/h.</desc>
<speed>7.890000</speed>
</trkpt>
<trkpt lat="55.754150" lon="26.026907">
<ele>170.361450</ele>
<time>2010-07-17T17:45:38Z</time>
<desc>lat.=55.754150, lon.=26.026907, Alt.=170.361450m. Speed=25.128000m/h.</desc>
<speed>6.980000</speed>
</trkpt>
<trkpt lat="55.754147" lon="26.027014">
<ele>170.134888</ele>
<time>2010-07-17T17:45:39Z</time>
<desc>lat.=55.754147, lon.=26.027014, Alt.=170.134888m. Speed=25.920000m/h.</desc>
<speed>7.200000</speed>
</trkpt>
<trkpt lat="55.754143" lon="26.027126">
<ele>170.013794</ele>
<time>2010-07-17T17:45:40Z</time>
<desc>lat.=55.754143, lon.=26.027126, Alt.=170.013794m. Speed=25.452000m/h.</desc>
<speed>7.070000</speed>
</trkpt>
<trkpt lat="55.754135" lon="26.027233">
<ele>170.701294</ele>
<time>2010-07-17T17:45:41Z</time>
<desc>lat.=55.754135, lon.=26.027233, Alt.=170.701294m. Speed=23.615999m/h.</desc>
<speed>6.560000</speed>
</trkpt>
<trkpt lat="55.754128" lon="26.027330">
<ele>172.802856</ele>
<time>2010-07-17T17:45:42Z</time>
<desc>lat.=55.754128, lon.=26.027330, Alt.=172.802856m. Speed=20.591999m/h.</desc>
<speed>5.720000</speed>
</trkpt>
<trkpt lat="55.754120" lon="26.027411">
<ele>173.662231</ele>
<time>2010-07-17T17:45:43Z</time>
<desc>lat.=55.754120, lon.=26.027411, Alt.=173.662231m. Speed=18.180000m/h.</desc>
<speed>5.050000</speed>
</trkpt>
<trkpt lat="55.754116" lon="26.027485">
<ele>174.134888</ele>
<time>2010-07-17T17:45:44Z</time>
<desc>lat.=55.754116, lon.=26.027485, Alt.=174.134888m. Speed=17.136000m/h.</desc>
<speed>4.760000</speed>
</trkpt>
<trkpt lat="55.754108" lon="26.027552">
<ele>174.755981</ele>
<time>2010-07-17T17:45:45Z</time>
<desc>lat.=55.754108, lon.=26.027552, Alt.=174.755981m. Speed=16.271999m/h.</desc>
<speed>4.520000</speed>
</trkpt>
<trkpt lat="55.754097" lon="26.027618">
<ele>175.033325</ele>
<time>2010-07-17T17:45:46Z</time>
<desc>lat.=55.754097, lon.=26.027618, Alt.=175.033325m. Speed=15.840000m/h.</desc>
<speed>4.400000</speed>
</trkpt>
<trkpt lat="55.754089" lon="26.027693">
<ele>175.611450</ele>
<time>2010-07-17T17:45:47Z</time>
<desc>lat.=55.754089, lon.=26.027693, Alt.=175.611450m. Speed=17.639999m/h.</desc>
<speed>4.900000</speed>
</trkpt>
<trkpt lat="55.754089" lon="26.027761">
<ele>176.377075</ele>
<time>2010-07-17T17:45:48Z</time>
<desc>lat.=55.754089, lon.=26.027761, Alt.=176.377075m. Speed=15.516000m/h.</desc>
<speed>4.310000</speed>
</trkpt>
<trkpt lat="55.754086" lon="26.027834">
<ele>177.084106</ele>
<time>2010-07-17T17:45:49Z</time>
<desc>lat.=55.754086, lon.=26.027834, Alt.=177.084106m. Speed=15.444000m/h.</desc>
<speed>4.290000</speed>
</trkpt>
<trkpt lat="55.754086" lon="26.027903">
<ele>176.607544</ele>
<time>2010-07-17T17:45:50Z</time>
<desc>lat.=55.754086, lon.=26.027903, Alt.=176.607544m. Speed=13.140000m/h.</desc>
<speed>3.650000</speed>
</trkpt>
<trkpt lat="55.754093" lon="26.027969">
<ele>176.822388</ele>
<time>2010-07-17T17:45:51Z</time>
<desc>lat.=55.754093, lon.=26.027969, Alt.=176.822388m. Speed=12.672000m/h.</desc>
<speed>3.520000</speed>
</trkpt>
<trkpt lat="55.754093" lon="26.028048">
<ele>175.673950</ele>
<time>2010-07-17T17:45:52Z</time>
<desc>lat.=55.754093, lon.=26.028048, Alt.=175.673950m. Speed=14.616000m/h.</desc>
<speed>4.060000</speed>
</trkpt>
<trkpt lat="55.754097" lon="26.028126">
<ele>175.189575</ele>
<time>2010-07-17T17:45:53Z</time>
<desc>lat.=55.754097, lon.=26.028126, Alt.=175.189575m. Speed=16.164000m/h.</desc>
<speed>4.490000</speed>
</trkpt>
<trkpt lat="55.754108" lon="26.028233">
<ele>173.951294</ele>
<time>2010-07-17T17:45:54Z</time>
<desc>lat.=55.754108, lon.=26.028233, Alt.=173.951294m. Speed=19.728001m/h.</desc>
<speed>5.480000</speed>
</trkpt>
<trkpt lat="55.754112" lon="26.028324">
<ele>173.302856</ele>
<time>2010-07-17T17:45:55Z</time>
<desc>lat.=55.754112, lon.=26.028324, Alt.=173.302856m. Speed=19.872000m/h.</desc>
<speed>5.520000</speed>
</trkpt>
<trkpt lat="55.754120" lon="26.028429">
<ele>171.900513</ele>
<time>2010-07-17T17:45:56Z</time>
<desc>lat.=55.754120, lon.=26.028429, Alt.=171.900513m. Speed=20.664000m/h.</desc>
<speed>5.740000</speed>
</trkpt>
<trkpt lat="55.754128" lon="26.028538">
<ele>172.213013</ele>
<time>2010-07-17T17:45:57Z</time>
<desc>lat.=55.754128, lon.=26.028538, Alt.=172.213013m. Speed=22.356001m/h.</desc>
<speed>6.210000</speed>
</trkpt>
<trkpt lat="55.754135" lon="26.028645">
<ele>171.931763</ele>
<time>2010-07-17T17:45:58Z</time>
<desc>lat.=55.754135, lon.=26.028645, Alt.=171.931763m. Speed=24.011999m/h.</desc>
<speed>6.670000</speed>
</trkpt>
<trkpt lat="55.754143" lon="26.028749">
<ele>172.564575</ele>
<time>2010-07-17T17:45:59Z</time>
<desc>lat.=55.754143, lon.=26.028749, Alt.=172.564575m. Speed=23.832001m/h.</desc>
<speed>6.620000</speed>
</trkpt>
<trkpt lat="55.754150" lon="26.028858">
<ele>172.076294</ele>
<time>2010-07-17T17:46:00Z</time>
<desc>lat.=55.754150, lon.=26.028858, Alt.=172.076294m. Speed=23.256001m/h.</desc>
<speed>6.460000</speed>
</trkpt>
<trkpt lat="55.754162" lon="26.028967">
<ele>171.720825</ele>
<time>2010-07-17T17:46:01Z</time>
<desc>lat.=55.754162, lon.=26.028967, Alt.=171.720825m. Speed=23.004000m/h.</desc>
<speed>6.390000</speed>
</trkpt>
<trkpt lat="55.754169" lon="26.029064">
<ele>171.177856</ele>
<time>2010-07-17T17:46:02Z</time>
<desc>lat.=55.754169, lon.=26.029064, Alt.=171.177856m. Speed=23.004000m/h.</desc>
<speed>6.390000</speed>
</trkpt>
<trkpt lat="55.754177" lon="26.029167">
<ele>170.963013</ele>
<time>2010-07-17T17:46:03Z</time>
<desc>lat.=55.754177, lon.=26.029167, Alt.=170.963013m. Speed=22.320000m/h.</desc>
<speed>6.200000</speed>
</trkpt>
<trkpt lat="55.754177" lon="26.029264">
<ele>170.361450</ele>
<time>2010-07-17T17:46:04Z</time>
<desc>lat.=55.754177, lon.=26.029264, Alt.=170.361450m. Speed=18.936001m/h.</desc>
<speed>5.260000</speed>
</trkpt>
<trkpt lat="55.754169" lon="26.029358">
<ele>169.088013</ele>
<time>2010-07-17T17:46:05Z</time>
<desc>lat.=55.754169, lon.=26.029358, Alt.=169.088013m. Speed=19.440001m/h.</desc>
<speed>5.400000</speed>
</trkpt>
<trkpt lat="55.754169" lon="26.029469">
<ele>167.088013</ele>
<time>2010-07-17T17:46:06Z</time>
<desc>lat.=55.754169, lon.=26.029469, Alt.=167.088013m. Speed=20.412001m/h.</desc>
<speed>5.670000</speed>
</trkpt>
<trkpt lat="55.754169" lon="26.029549">
<ele>166.525513</ele>
<time>2010-07-17T17:46:07Z</time>
<desc>lat.=55.754169, lon.=26.029549, Alt.=166.525513m. Speed=17.784000m/h.</desc>
<speed>4.940000</speed>
</trkpt>
<trkpt lat="55.754169" lon="26.029633">
<ele>166.365356</ele>
<time>2010-07-17T17:46:08Z</time>
<desc>lat.=55.754169, lon.=26.029633, Alt.=166.365356m. Speed=18.000000m/h.</desc>
<speed>5.000000</speed>
</trkpt>
<trkpt lat="55.754169" lon="26.029726">
<ele>166.740356</ele>
<time>2010-07-17T17:46:09Z</time>
<desc>lat.=55.754169, lon.=26.029726, Alt.=166.740356m. Speed=17.243999m/h.</desc>
<speed>4.790000</speed>
</trkpt>
<trkpt lat="55.754158" lon="26.029819">
<ele>166.080200</ele>
<time>2010-07-17T17:46:10Z</time>
<desc>lat.=55.754158, lon.=26.029819, Alt.=166.080200m. Speed=18.504000m/h.</desc>
<speed>5.140000</speed>
</trkpt>
<trkpt lat="55.754150" lon="26.029902">
<ele>165.927856</ele>
<time>2010-07-17T17:46:11Z</time>
<desc>lat.=55.754150, lon.=26.029902, Alt.=165.927856m. Speed=18.288000m/h.</desc>
<speed>5.080000</speed>
</trkpt>
<trkpt lat="55.754128" lon="26.029987">
<ele>164.916138</ele>
<time>2010-07-17T17:46:12Z</time>
<desc>lat.=55.754128, lon.=26.029987, Alt.=164.916138m. Speed=20.520000m/h.</desc>
<speed>5.700000</speed>
</trkpt>
<trkpt lat="55.754108" lon="26.030075">
<ele>164.818481</ele>
<time>2010-07-17T17:46:13Z</time>
<desc>lat.=55.754108, lon.=26.030075, Alt.=164.818481m. Speed=21.096001m/h.</desc>
<speed>5.860000</speed>
</trkpt>
<trkpt lat="55.754093" lon="26.030165">
<ele>164.595825</ele>
<time>2010-07-17T17:46:14Z</time>
<desc>lat.=55.754093, lon.=26.030165, Alt.=164.595825m. Speed=20.520000m/h.</desc>
<speed>5.700000</speed>
</trkpt>
<trkpt lat="55.754066" lon="26.030264">
<ele>164.373169</ele>
<time>2010-07-17T17:46:15Z</time>
<desc>lat.=55.754066, lon.=26.030264, Alt.=164.373169m. Speed=21.780001m/h.</desc>
<speed>6.050000</speed>
</trkpt>
<trkpt lat="55.754044" lon="26.030359">
<ele>163.951294</ele>
<time>2010-07-17T17:46:16Z</time>
<desc>lat.=55.754044, lon.=26.030359, Alt.=163.951294m. Speed=21.600000m/h.</desc>
<speed>6.000000</speed>
</trkpt>
<trkpt lat="55.754032" lon="26.030449">
<ele>163.935669</ele>
<time>2010-07-17T17:46:17Z</time>
<desc>lat.=55.754032, lon.=26.030449, Alt.=163.935669m. Speed=20.052000m/h.</desc>
<speed>5.570000</speed>
</trkpt>
<trkpt lat="55.754013" lon="26.030535">
<ele>163.064575</ele>
<time>2010-07-17T17:46:18Z</time>
<desc>lat.=55.754013, lon.=26.030535, Alt.=163.064575m. Speed=20.556000m/h.</desc>
<speed>5.710000</speed>
</trkpt>
<trkpt lat="55.753990" lon="26.030621">
<ele>162.912231</ele>
<time>2010-07-17T17:46:19Z</time>
<desc>lat.=55.753990, lon.=26.030621, Alt.=162.912231m. Speed=21.708000m/h.</desc>
<speed>6.030000</speed>
</trkpt>
<trkpt lat="55.753967" lon="26.030714">
<ele>162.607544</ele>
<time>2010-07-17T17:46:20Z</time>
<desc>lat.=55.753967, lon.=26.030714, Alt.=162.607544m. Speed=22.320000m/h.</desc>
<speed>6.200000</speed>
</trkpt>
<trkpt lat="55.753952" lon="26.030809">
<ele>162.380981</ele>
<time>2010-07-17T17:46:21Z</time>
<desc>lat.=55.753952, lon.=26.030809, Alt.=162.380981m. Speed=22.284000m/h.</desc>
<speed>6.190000</speed>
</trkpt>
<trkpt lat="55.753933" lon="26.030901">
<ele>162.236450</ele>
<time>2010-07-17T17:46:22Z</time>
<desc>lat.=55.753933, lon.=26.030901, Alt.=162.236450m. Speed=22.896000m/h.</desc>
<speed>6.360000</speed>
</trkpt>
<trkpt lat="55.753914" lon="26.030991">
<ele>162.080200</ele>
<time>2010-07-17T17:46:23Z</time>
<desc>lat.=55.753914, lon.=26.030991, Alt.=162.080200m. Speed=22.427999m/h.</desc>
<speed>6.230000</speed>
</trkpt>
<trkpt lat="55.753891" lon="26.031080">
<ele>161.880981</ele>
<time>2010-07-17T17:46:24Z</time>
<desc>lat.=55.753891, lon.=26.031080, Alt.=161.880981m. Speed=22.139999m/h.</desc>
<speed>6.150000</speed>
</trkpt>
<trkpt lat="55.753872" lon="26.031170">
<ele>159.502075</ele>
<time>2010-07-17T17:46:25Z</time>
<desc>lat.=55.753872, lon.=26.031170, Alt.=159.502075m. Speed=21.636000m/h.</desc>
<speed>6.010000</speed>
</trkpt>
<trkpt lat="55.753845" lon="26.031254">
<ele>159.162231</ele>
<time>2010-07-17T17:46:26Z</time>
<desc>lat.=55.753845, lon.=26.031254, Alt.=159.162231m. Speed=22.320000m/h.</desc>
<speed>6.200000</speed>
</trkpt>
<trkpt lat="55.753822" lon="26.031338">
<ele>158.572388</ele>
<time>2010-07-17T17:46:27Z</time>
<desc>lat.=55.753822, lon.=26.031338, Alt.=158.572388m. Speed=19.440001m/h.</desc>
<speed>5.400000</speed>
</trkpt>
<trkpt lat="55.753799" lon="26.031424">
<ele>158.447388</ele>
<time>2010-07-17T17:46:28Z</time>
<desc>lat.=55.753799, lon.=26.031424, Alt.=158.447388m. Speed=20.628000m/h.</desc>
<speed>5.730000</speed>
</trkpt>
<trkpt lat="55.753780" lon="26.031521">
<ele>158.646606</ele>
<time>2010-07-17T17:46:29Z</time>
<desc>lat.=55.753780, lon.=26.031521, Alt.=158.646606m. Speed=21.384001m/h.</desc>
<speed>5.940000</speed>
</trkpt>
<trkpt lat="55.753761" lon="26.031610">
<ele>158.701294</ele>
<time>2010-07-17T17:46:30Z</time>
<desc>lat.=55.753761, lon.=26.031610, Alt.=158.701294m. Speed=21.636000m/h.</desc>
<speed>6.010000</speed>
</trkpt>
<trkpt lat="55.753742" lon="26.031702">
<ele>158.545044</ele>
<time>2010-07-17T17:46:31Z</time>
<desc>lat.=55.753742, lon.=26.031702, Alt.=158.545044m. Speed=21.996000m/h.</desc>
<speed>6.110000</speed>
</trkpt>
<trkpt lat="55.753727" lon="26.031794">
<ele>159.369263</ele>
<time>2010-07-17T17:46:32Z</time>
<desc>lat.=55.753727, lon.=26.031794, Alt.=159.369263m. Speed=20.591999m/h.</desc>
<speed>5.720000</speed>
</trkpt>
<trkpt lat="55.753708" lon="26.031887">
<ele>159.486450</ele>
<time>2010-07-17T17:46:33Z</time>
<desc>lat.=55.753708, lon.=26.031887, Alt.=159.486450m. Speed=20.160000m/h.</desc>
<speed>5.600000</speed>
</trkpt>
<trkpt lat="55.753693" lon="26.031971">
<ele>159.732544</ele>
<time>2010-07-17T17:46:34Z</time>
<desc>lat.=55.753693, lon.=26.031971, Alt.=159.732544m. Speed=19.332001m/h.</desc>
<speed>5.370000</speed>
</trkpt>
<trkpt lat="55.753681" lon="26.032049">
<ele>159.978638</ele>
<time>2010-07-17T17:46:35Z</time>
<desc>lat.=55.753681, lon.=26.032049, Alt.=159.978638m. Speed=17.568001m/h.</desc>
<speed>4.880000</speed>
</trkpt>
<trkpt lat="55.753666" lon="26.032131">
<ele>159.537231</ele>
<time>2010-07-17T17:46:36Z</time>
<desc>lat.=55.753666, lon.=26.032131, Alt.=159.537231m. Speed=17.243999m/h.</desc>
<speed>4.790000</speed>
</trkpt>
<trkpt lat="55.753651" lon="26.032204">
<ele>160.045044</ele>
<time>2010-07-17T17:46:37Z</time>
<desc>lat.=55.753651, lon.=26.032204, Alt.=160.045044m. Speed=16.488001m/h.</desc>
<speed>4.580000</speed>
</trkpt>
<trkpt lat="55.753639" lon="26.032265">
<ele>160.529419</ele>
<time>2010-07-17T17:46:38Z</time>
<desc>lat.=55.753639, lon.=26.032265, Alt.=160.529419m. Speed=14.004000m/h.</desc>
<speed>3.890000</speed>
</trkpt>
<trkpt lat="55.753624" lon="26.032322">
<ele>160.931763</ele>
<time>2010-07-17T17:46:39Z</time>
<desc>lat.=55.753624, lon.=26.032322, Alt.=160.931763m. Speed=12.312000m/h.</desc>
<speed>3.420000</speed>
</trkpt>
<trkpt lat="55.753613" lon="26.032368">
<ele>161.619263</ele>
<time>2010-07-17T17:46:40Z</time>
<desc>lat.=55.753613, lon.=26.032368, Alt.=161.619263m. Speed=9.504000m/h.</desc>
<speed>2.640000</speed>
</trkpt>
<trkpt lat="55.753601" lon="26.032404">
<ele>162.255981</ele>
<time>2010-07-17T17:46:41Z</time>
<desc>lat.=55.753601, lon.=26.032404, Alt.=162.255981m. Speed=6.588000m/h.</desc>
<speed>1.830000</speed>
</trkpt>
<trkpt lat="55.753590" lon="26.032440">
<ele>162.681763</ele>
<time>2010-07-17T17:46:42Z</time>
<desc>lat.=55.753590, lon.=26.032440, Alt.=162.681763m. Speed=7.200000m/h.</desc>
<speed>2.000000</speed>
</trkpt>
<trkpt lat="55.753582" lon="26.032473">
<ele>162.947388</ele>
<time>2010-07-17T17:46:43Z</time>
<desc>lat.=55.753582, lon.=26.032473, Alt.=162.947388m. Speed=4.932000m/h.</desc>
<speed>1.370000</speed>
</trkpt>
<trkpt lat="55.753574" lon="26.032518">
<ele>163.443481</ele>
<time>2010-07-17T17:46:44Z</time>
<desc>lat.=55.753574, lon.=26.032518, Alt.=163.443481m. Speed=8.136000m/h.</desc>
<speed>2.260000</speed>
</trkpt>
<trkpt lat="55.753571" lon="26.032555">
<ele>163.603638</ele>
<time>2010-07-17T17:46:45Z</time>
<desc>lat.=55.753571, lon.=26.032555, Alt.=163.603638m. Speed=8.244000m/h.</desc>
<speed>2.290000</speed>
</trkpt>
<trkpt lat="55.753567" lon="26.032581">
<ele>163.568481</ele>
<time>2010-07-17T17:46:46Z</time>
<desc>lat.=55.753567, lon.=26.032581, Alt.=163.568481m. Speed=7.020000m/h.</desc>
<speed>1.950000</speed>
</trkpt>
<trkpt lat="55.753563" lon="26.032602">
<ele>163.841919</ele>
<time>2010-07-17T17:46:47Z</time>
<desc>lat.=55.753563, lon.=26.032602, Alt.=163.841919m. Speed=6.228000m/h.</desc>
<speed>1.730000</speed>
</trkpt>
<trkpt lat="55.753555" lon="26.032629">
<ele>164.345825</ele>
<time>2010-07-17T17:46:48Z</time>
<desc>lat.=55.753555, lon.=26.032629, Alt.=164.345825m. Speed=5.760000m/h.</desc>
<speed>1.600000</speed>
</trkpt>
<trkpt lat="55.753548" lon="26.032650">
<ele>164.970825</ele>
<time>2010-07-17T17:46:49Z</time>
<desc>lat.=55.753548, lon.=26.032650, Alt.=164.970825m. Speed=5.616000m/h.</desc>
<speed>1.560000</speed>
</trkpt>
<trkpt lat="55.753540" lon="26.032682">
<ele>165.673950</ele>
<time>2010-07-17T17:46:50Z</time>
<desc>lat.=55.753540, lon.=26.032682, Alt.=165.673950m. Speed=4.932000m/h.</desc>
<speed>1.370000</speed>
</trkpt>
<trkpt lat="55.753525" lon="26.032722">
<ele>165.591919</ele>
<time>2010-07-17T17:46:51Z</time>
<desc>lat.=55.753525, lon.=26.032722, Alt.=165.591919m. Speed=7.200000m/h.</desc>
<speed>2.000000</speed>
</trkpt>
<trkpt lat="55.753513" lon="26.032749">
<ele>166.287231</ele>
<time>2010-07-17T17:46:52Z</time>
<desc>lat.=55.753513, lon.=26.032749, Alt.=166.287231m. Speed=6.372000m/h.</desc>
<speed>1.770000</speed>
</trkpt>
<trkpt lat="55.753502" lon="26.032764">
<ele>166.673950</ele>
<time>2010-07-17T17:46:53Z</time>
<desc>lat.=55.753502, lon.=26.032764, Alt.=166.673950m. Speed=4.104000m/h.</desc>
<speed>1.140000</speed>
</trkpt>
<trkpt lat="55.753494" lon="26.032785">
<ele>167.209106</ele>
<time>2010-07-17T17:46:54Z</time>
<desc>lat.=55.753494, lon.=26.032785, Alt.=167.209106m. Speed=5.508000m/h.</desc>
<speed>1.530000</speed>
</trkpt>
<trkpt lat="55.753490" lon="26.032806">
<ele>167.677856</ele>
<time>2010-07-17T17:46:55Z</time>
<desc>lat.=55.753490, lon.=26.032806, Alt.=167.677856m. Speed=4.860000m/h.</desc>
<speed>1.350000</speed>
</trkpt>
<trkpt lat="55.753479" lon="26.032843">
<ele>168.017700</ele>
<time>2010-07-17T17:46:56Z</time>
<desc>lat.=55.753479, lon.=26.032843, Alt.=168.017700m. Speed=6.372000m/h.</desc>
<speed>1.770000</speed>
</trkpt>
<trkpt lat="55.753464" lon="26.032887">
<ele>168.193481</ele>
<time>2010-07-17T17:46:57Z</time>
<desc>lat.=55.753464, lon.=26.032887, Alt.=168.193481m. Speed=7.236000m/h.</desc>
<speed>2.010000</speed>
</trkpt>
<trkpt lat="55.753445" lon="26.032942">
<ele>168.443481</ele>
<time>2010-07-17T17:46:58Z</time>
<desc>lat.=55.753445, lon.=26.032942, Alt.=168.443481m. Speed=7.272000m/h.</desc>
<speed>2.020000</speed>
</trkpt>
<trkpt lat="55.753426" lon="26.032970">
<ele>168.806763</ele>
<time>2010-07-17T17:46:59Z</time>
<desc>lat.=55.753426, lon.=26.032970, Alt.=168.806763m. Speed=3.564000m/h.</desc>
<speed>0.990000</speed>
</trkpt>
<trkpt lat="55.753418" lon="26.032997">
<ele>168.873169</ele>
<time>2010-07-17T17:47:00Z</time>
<desc>lat.=55.753418, lon.=26.032997, Alt.=168.873169m. Speed=5.256000m/h.</desc>
<speed>1.460000</speed>
</trkpt>
<trkpt lat="55.753407" lon="26.033045">
<ele>169.009888</ele>
<time>2010-07-17T17:47:01Z</time>
<desc>lat.=55.753407, lon.=26.033045, Alt.=169.009888m. Speed=5.400000m/h.</desc>
<speed>1.500000</speed>
</trkpt>
<trkpt lat="55.753395" lon="26.033087">
<ele>169.427856</ele>
<time>2010-07-17T17:47:02Z</time>
<desc>lat.=55.753395, lon.=26.033087, Alt.=169.427856m. Speed=6.876000m/h.</desc>
<speed>1.910000</speed>
</trkpt>
<trkpt lat="55.753387" lon="26.033123">
<ele>169.916138</ele>
<time>2010-07-17T17:47:03Z</time>
<desc>lat.=55.753387, lon.=26.033123, Alt.=169.916138m. Speed=6.696000m/h.</desc>
<speed>1.860000</speed>
</trkpt>
<trkpt lat="55.753380" lon="26.033152">
<ele>170.326294</ele>
<time>2010-07-17T17:47:04Z</time>
<desc>lat.=55.753380, lon.=26.033152, Alt.=170.326294m. Speed=6.804000m/h.</desc>
<speed>1.890000</speed>
</trkpt>
<trkpt lat="55.753368" lon="26.033176">
<ele>170.838013</ele>
<time>2010-07-17T17:47:05Z</time>
<desc>lat.=55.753368, lon.=26.033176, Alt.=170.838013m. Speed=5.076000m/h.</desc>
<speed>1.410000</speed>
</trkpt>
<trkpt lat="55.753357" lon="26.033203">
<ele>171.638794</ele>
<time>2010-07-17T17:47:06Z</time>
<desc>lat.=55.753357, lon.=26.033203, Alt.=171.638794m. Speed=4.932000m/h.</desc>
<speed>1.370000</speed>
</trkpt>
<trkpt lat="55.753345" lon="26.033226">
<ele>172.271606</ele>
<time>2010-07-17T17:47:07Z</time>
<desc>lat.=55.753345, lon.=26.033226, Alt.=172.271606m. Speed=5.148000m/h.</desc>
<speed>1.430000</speed>
</trkpt>
<trkpt lat="55.753334" lon="26.033255">
<ele>172.865356</ele>
<time>2010-07-17T17:47:08Z</time>
<desc>lat.=55.753334, lon.=26.033255, Alt.=172.865356m. Speed=5.472000m/h.</desc>
<speed>1.520000</speed>
</trkpt>
<trkpt lat="55.753326" lon="26.033287">
<ele>173.330200</ele>
<time>2010-07-17T17:47:09Z</time>
<desc>lat.=55.753326, lon.=26.033287, Alt.=173.330200m. Speed=5.868000m/h.</desc>
<speed>1.630000</speed>
</trkpt>
<trkpt lat="55.753311" lon="26.033331">
<ele>173.529419</ele>
<time>2010-07-17T17:47:10Z</time>
<desc>lat.=55.753311, lon.=26.033331, Alt.=173.529419m. Speed=7.308000m/h.</desc>
<speed>2.030000</speed>
</trkpt>
<trkpt lat="55.753304" lon="26.033381">
<ele>173.275513</ele>
<time>2010-07-17T17:47:11Z</time>
<desc>lat.=55.753304, lon.=26.033381, Alt.=173.275513m. Speed=5.760000m/h.</desc>
<speed>1.600000</speed>
</trkpt>
<trkpt lat="55.753292" lon="26.033417">
<ele>173.177856</ele>
<time>2010-07-17T17:47:12Z</time>
<desc>lat.=55.753292, lon.=26.033417, Alt.=173.177856m. Speed=5.508000m/h.</desc>
<speed>1.530000</speed>
</trkpt>
<trkpt lat="55.753284" lon="26.033443">
<ele>173.236450</ele>
<time>2010-07-17T17:47:13Z</time>
<desc>lat.=55.753284, lon.=26.033443, Alt.=173.236450m. Speed=3.024000m/h.</desc>
<speed>0.840000</speed>
</trkpt>
<trkpt lat="55.753277" lon="26.033464">
<ele>173.134888</ele>
<time>2010-07-17T17:47:14Z</time>
<desc>lat.=55.753277, lon.=26.033464, Alt.=173.134888m. Speed=4.644000m/h.</desc>
<speed>1.290000</speed>
</trkpt>
<trkpt lat="55.753258" lon="26.033504">
<ele>173.377075</ele>
<time>2010-07-17T17:47:15Z</time>
<desc>lat.=55.753258, lon.=26.033504, Alt.=173.377075m. Speed=6.660000m/h.</desc>
<speed>1.850000</speed>
</trkpt>
<trkpt lat="55.753246" lon="26.033556">
<ele>173.201294</ele>
<time>2010-07-17T17:47:16Z</time>
<desc>lat.=55.753246, lon.=26.033556, Alt.=173.201294m. Speed=6.516000m/h.</desc>
<speed>1.810000</speed>
</trkpt>
<trkpt lat="55.753235" lon="26.033609">
<ele>172.923950</ele>
<time>2010-07-17T17:47:17Z</time>
<desc>lat.=55.753235, lon.=26.033609, Alt.=172.923950m. Speed=7.308000m/h.</desc>
<speed>2.030000</speed>
</trkpt>
<trkpt lat="55.753212" lon="26.033648">
<ele>172.970825</ele>
<time>2010-07-17T17:47:18Z</time>
<desc>lat.=55.753212, lon.=26.033648, Alt.=172.970825m. Speed=9.108000m/h.</desc>
<speed>2.530000</speed>
</trkpt>
<trkpt lat="55.753201" lon="26.033688">
<ele>172.877075</ele>
<time>2010-07-17T17:47:19Z</time>
<desc>lat.=55.753201, lon.=26.033688, Alt.=172.877075m. Speed=7.632000m/h.</desc>
<speed>2.120000</speed>
</trkpt>
<trkpt lat="55.753189" lon="26.033722">
<ele>173.005981</ele>
<time>2010-07-17T17:47:20Z</time>
<desc>lat.=55.753189, lon.=26.033722, Alt.=173.005981m. Speed=6.876000m/h.</desc>
<speed>1.910000</speed>
</trkpt>
<trkpt lat="55.753174" lon="26.033760">
<ele>173.177856</ele>
<time>2010-07-17T17:47:21Z</time>
<desc>lat.=55.753174, lon.=26.033760, Alt.=173.177856m. Speed=9.180000m/h.</desc>
<speed>2.550000</speed>
</trkpt>
<trkpt lat="55.753159" lon="26.033792">
<ele>173.334106</ele>
<time>2010-07-17T17:47:22Z</time>
<desc>lat.=55.753159, lon.=26.033792, Alt.=173.334106m. Speed=7.200000m/h.</desc>
<speed>2.000000</speed>
</trkpt>
<trkpt lat="55.753143" lon="26.033829">
<ele>173.162231</ele>
<time>2010-07-17T17:47:23Z</time>
<desc>lat.=55.753143, lon.=26.033829, Alt.=173.162231m. Speed=9.468000m/h.</desc>
<speed>2.630000</speed>
</trkpt>
<trkpt lat="55.753128" lon="26.033871">
<ele>173.259888</ele>
<time>2010-07-17T17:47:24Z</time>
<desc>lat.=55.753128, lon.=26.033871, Alt.=173.259888m. Speed=9.720000m/h.</desc>
<speed>2.700000</speed>
</trkpt>
<trkpt lat="55.753109" lon="26.033928">
<ele>173.306763</ele>
<time>2010-07-17T17:47:25Z</time>
<desc>lat.=55.753109, lon.=26.033928, Alt.=173.306763m. Speed=11.880000m/h.</desc>
<speed>3.300000</speed>
</trkpt>
<trkpt lat="55.753086" lon="26.033974">
<ele>173.201294</ele>
<time>2010-07-17T17:47:26Z</time>
<desc>lat.=55.753086, lon.=26.033974, Alt.=173.201294m. Speed=10.188000m/h.</desc>
<speed>2.830000</speed>
</trkpt>
<trkpt lat="55.753063" lon="26.034029">
<ele>172.599731</ele>
<time>2010-07-17T17:47:27Z</time>
<desc>lat.=55.753063, lon.=26.034029, Alt.=172.599731m. Speed=10.584000m/h.</desc>
<speed>2.940000</speed>
</trkpt>
<trkpt lat="55.753044" lon="26.034069">
<ele>172.213013</ele>
<time>2010-07-17T17:47:28Z</time>
<desc>lat.=55.753044, lon.=26.034069, Alt.=172.213013m. Speed=9.036000m/h.</desc>
<speed>2.510000</speed>
</trkpt>
<trkpt lat="55.753025" lon="26.034113">
<ele>172.326294</ele>
<time>2010-07-17T17:47:29Z</time>
<desc>lat.=55.753025, lon.=26.034113, Alt.=172.326294m. Speed=8.064000m/h.</desc>
<speed>2.240000</speed>
</trkpt>
<trkpt lat="55.753021" lon="26.034145">
<ele>172.670044</ele>
<time>2010-07-17T17:47:30Z</time>
<desc>lat.=55.753021, lon.=26.034145, Alt.=172.670044m. Speed=7.704000m/h.</desc>
<speed>2.140000</speed>
</trkpt>
<trkpt lat="55.753006" lon="26.034172">
<ele>172.920044</ele>
<time>2010-07-17T17:47:31Z</time>
<desc>lat.=55.753006, lon.=26.034172, Alt.=172.920044m. Speed=7.560000m/h.</desc>
<speed>2.100000</speed>
</trkpt>
<trkpt lat="55.752995" lon="26.034214">
<ele>173.115356</ele>
<time>2010-07-17T17:47:32Z</time>
<desc>lat.=55.752995, lon.=26.034214, Alt.=173.115356m. Speed=8.460000m/h.</desc>
<speed>2.350000</speed>
</trkpt>
<trkpt lat="55.752979" lon="26.034252">
<ele>173.068481</ele>
<time>2010-07-17T17:47:33Z</time>
<desc>lat.=55.752979, lon.=26.034252, Alt.=173.068481m. Speed=7.812000m/h.</desc>
<speed>2.170000</speed>
</trkpt>
<trkpt lat="55.752964" lon="26.034294">
<ele>173.107544</ele>
<time>2010-07-17T17:47:34Z</time>
<desc>lat.=55.752964, lon.=26.034294, Alt.=173.107544m. Speed=9.900000m/h.</desc>
<speed>2.750000</speed>
</trkpt>
<trkpt lat="55.752953" lon="26.034338">
<ele>173.111450</ele>
<time>2010-07-17T17:47:35Z</time>
<desc>lat.=55.752953, lon.=26.034338, Alt.=173.111450m. Speed=9.252000m/h.</desc>
<speed>2.570000</speed>
</trkpt>
<trkpt lat="55.752934" lon="26.034386">
<ele>174.255981</ele>
<time>2010-07-17T17:47:36Z</time>
<desc>lat.=55.752934, lon.=26.034386, Alt.=174.255981m. Speed=11.340000m/h.</desc>
<speed>3.150000</speed>
</trkpt>
<trkpt lat="55.752911" lon="26.034439">
<ele>175.638794</ele>
<time>2010-07-17T17:47:37Z</time>
<desc>lat.=55.752911, lon.=26.034439, Alt.=175.638794m. Speed=12.024000m/h.</desc>
<speed>3.340000</speed>
</trkpt>
<trkpt lat="55.752880" lon="26.034496">
<ele>176.115356</ele>
<time>2010-07-17T17:47:38Z</time>
<desc>lat.=55.752880, lon.=26.034496, Alt.=176.115356m. Speed=13.032000m/h.</desc>
<speed>3.620000</speed>
</trkpt>
<trkpt lat="55.752853" lon="26.034542">
<ele>175.826294</ele>
<time>2010-07-17T17:47:39Z</time>
<desc>lat.=55.752853, lon.=26.034542, Alt.=175.826294m. Speed=12.996000m/h.</desc>
<speed>3.610000</speed>
</trkpt>
<trkpt lat="55.752819" lon="26.034603">
<ele>174.713013</ele>
<time>2010-07-17T17:47:40Z</time>
<desc>lat.=55.752819, lon.=26.034603, Alt.=174.713013m. Speed=13.824000m/h.</desc>
<speed>3.840000</speed>
</trkpt>
<trkpt lat="55.752789" lon="26.034664">
<ele>175.060669</ele>
<time>2010-07-17T17:47:41Z</time>
<desc>lat.=55.752789, lon.=26.034664, Alt.=175.060669m. Speed=14.580000m/h.</desc>
<speed>4.050000</speed>
</trkpt>
<trkpt lat="55.752743" lon="26.034716">
<ele>171.490356</ele>
<time>2010-07-17T17:47:42Z</time>
<desc>lat.=55.752743, lon.=26.034716, Alt.=171.490356m. Speed=14.076000m/h.</desc>
<speed>3.910000</speed>
</trkpt>
<trkpt lat="55.752716" lon="26.034767">
<ele>171.302856</ele>
<time>2010-07-17T17:47:43Z</time>
<desc>lat.=55.752716, lon.=26.034767, Alt.=171.302856m. Speed=12.528000m/h.</desc>
<speed>3.480000</speed>
</trkpt>
<trkpt lat="55.752678" lon="26.034819">
<ele>167.947388</ele>
<time>2010-07-17T17:47:44Z</time>
<desc>lat.=55.752678, lon.=26.034819, Alt.=167.947388m. Speed=12.096000m/h.</desc>
<speed>3.360000</speed>
</trkpt>
<trkpt lat="55.752647" lon="26.034868">
<ele>166.791138</ele>
<time>2010-07-17T17:47:45Z</time>
<desc>lat.=55.752647, lon.=26.034868, Alt.=166.791138m. Speed=13.104000m/h.</desc>
<speed>3.640000</speed>
</trkpt>
<trkpt lat="55.752621" lon="26.034929">
<ele>167.068481</ele>
<time>2010-07-17T17:47:46Z</time>
<desc>lat.=55.752621, lon.=26.034929, Alt.=167.068481m. Speed=13.644000m/h.</desc>
<speed>3.790000</speed>
</trkpt>
<trkpt lat="55.752598" lon="26.034981">
<ele>168.142700</ele>
<time>2010-07-17T17:47:47Z</time>
<desc>lat.=55.752598, lon.=26.034981, Alt.=168.142700m. Speed=13.284000m/h.</desc>
<speed>3.690000</speed>
</trkpt>
<trkpt lat="55.752579" lon="26.035030">
<ele>169.369263</ele>
<time>2010-07-17T17:47:48Z</time>
<desc>lat.=55.752579, lon.=26.035030, Alt.=169.369263m. Speed=11.556000m/h.</desc>
<speed>3.210000</speed>
</trkpt>
<trkpt lat="55.752560" lon="26.035072">
<ele>170.427856</ele>
<time>2010-07-17T17:47:49Z</time>
<desc>lat.=55.752560, lon.=26.035072, Alt.=170.427856m. Speed=10.764000m/h.</desc>
<speed>2.990000</speed>
</trkpt>
<trkpt lat="55.752533" lon="26.035114">
<ele>171.947388</ele>
<time>2010-07-17T17:47:50Z</time>
<desc>lat.=55.752533, lon.=26.035114, Alt.=171.947388m. Speed=13.932000m/h.</desc>
<speed>3.870000</speed>
</trkpt>
<trkpt lat="55.752499" lon="26.035175">
<ele>172.361450</ele>
<time>2010-07-17T17:47:51Z</time>
<desc>lat.=55.752499, lon.=26.035175, Alt.=172.361450m. Speed=16.884001m/h.</desc>
<speed>4.690000</speed>
</trkpt>
<trkpt lat="55.752464" lon="26.035233">
<ele>173.052856</ele>
<time>2010-07-17T17:47:52Z</time>
<desc>lat.=55.752464, lon.=26.035233, Alt.=173.052856m. Speed=17.243999m/h.</desc>
<speed>4.790000</speed>
</trkpt>
<trkpt lat="55.752422" lon="26.035303">
<ele>172.931763</ele>
<time>2010-07-17T17:47:53Z</time>
<desc>lat.=55.752422, lon.=26.035303, Alt.=172.931763m. Speed=19.007999m/h.</desc>
<speed>5.280000</speed>
</trkpt>
<trkpt lat="55.752388" lon="26.035372">
<ele>173.939575</ele>
<time>2010-07-17T17:47:54Z</time>
<desc>lat.=55.752388, lon.=26.035372, Alt.=173.939575m. Speed=19.764000m/h.</desc>
<speed>5.490000</speed>
</trkpt>
<trkpt lat="55.752350" lon="26.035440">
<ele>174.963013</ele>
<time>2010-07-17T17:47:55Z</time>
<desc>lat.=55.752350, lon.=26.035440, Alt.=174.963013m. Speed=19.332001m/h.</desc>
<speed>5.370000</speed>
</trkpt>
<trkpt lat="55.752312" lon="26.035509">
<ele>175.099731</ele>
<time>2010-07-17T17:47:56Z</time>
<desc>lat.=55.752312, lon.=26.035509, Alt.=175.099731m. Speed=20.591999m/h.</desc>
<speed>5.720000</speed>
</trkpt>
<trkpt lat="55.752270" lon="26.035583">
<ele>174.920044</ele>
<time>2010-07-17T17:47:57Z</time>
<desc>lat.=55.752270, lon.=26.035583, Alt.=174.920044m. Speed=22.356001m/h.</desc>
<speed>6.210000</speed>
</trkpt>
<trkpt lat="55.752213" lon="26.035662">
<ele>172.814575</ele>
<time>2010-07-17T17:47:58Z</time>
<desc>lat.=55.752213, lon.=26.035662, Alt.=172.814575m. Speed=22.464001m/h.</desc>
<speed>6.240000</speed>
</trkpt>
<trkpt lat="55.752159" lon="26.035748">
<ele>171.412231</ele>
<time>2010-07-17T17:47:59Z</time>
<desc>lat.=55.752159, lon.=26.035748, Alt.=171.412231m. Speed=22.212000m/h.</desc>
<speed>6.170000</speed>
</trkpt>
<trkpt lat="55.752110" lon="26.035828">
<ele>169.466919</ele>
<time>2010-07-17T17:48:00Z</time>
<desc>lat.=55.752110, lon.=26.035828, Alt.=169.466919m. Speed=21.816000m/h.</desc>
<speed>6.060000</speed>
</trkpt>
<trkpt lat="55.752068" lon="26.035892">
<ele>169.091919</ele>
<time>2010-07-17T17:48:01Z</time>
<desc>lat.=55.752068, lon.=26.035892, Alt.=169.091919m. Speed=22.535999m/h.</desc>
<speed>6.260000</speed>
</trkpt>
<trkpt lat="55.752022" lon="26.035967">
<ele>169.463013</ele>
<time>2010-07-17T17:48:02Z</time>
<desc>lat.=55.752022, lon.=26.035967, Alt.=169.463013m. Speed=21.924000m/h.</desc>
<speed>6.090000</speed>
</trkpt>
<trkpt lat="55.751984" lon="26.036032">
<ele>169.228638</ele>
<time>2010-07-17T17:48:03Z</time>
<desc>lat.=55.751984, lon.=26.036032, Alt.=169.228638m. Speed=21.312000m/h.</desc>
<speed>5.920000</speed>
</trkpt>
<trkpt lat="55.751945" lon="26.036106">
<ele>168.033325</ele>
<time>2010-07-17T17:48:04Z</time>
<desc>lat.=55.751945, lon.=26.036106, Alt.=168.033325m. Speed=21.384001m/h.</desc>
<speed>5.940000</speed>
</trkpt>
<trkpt lat="55.751904" lon="26.036184">
<ele>167.591919</ele>
<time>2010-07-17T17:48:05Z</time>
<desc>lat.=55.751904, lon.=26.036184, Alt.=167.591919m. Speed=23.219999m/h.</desc>
<speed>6.450000</speed>
</trkpt>
<trkpt lat="55.751862" lon="26.036266">
<ele>168.392700</ele>
<time>2010-07-17T17:48:06Z</time>
<desc>lat.=55.751862, lon.=26.036266, Alt.=168.392700m. Speed=23.184000m/h.</desc>
<speed>6.440000</speed>
</trkpt>
<trkpt lat="55.751820" lon="26.036346">
<ele>168.736450</ele>
<time>2010-07-17T17:48:07Z</time>
<desc>lat.=55.751820, lon.=26.036346, Alt.=168.736450m. Speed=24.084000m/h.</desc>
<speed>6.690000</speed>
</trkpt>
<trkpt lat="55.751781" lon="26.036427">
<ele>168.904419</ele>
<time>2010-07-17T17:48:08Z</time>
<desc>lat.=55.751781, lon.=26.036427, Alt.=168.904419m. Speed=22.176001m/h.</desc>
<speed>6.160000</speed>
</trkpt>
<trkpt lat="55.751747" lon="26.036501">
<ele>168.853638</ele>
<time>2010-07-17T17:48:09Z</time>
<desc>lat.=55.751747, lon.=26.036501, Alt.=168.853638m. Speed=22.320000m/h.</desc>
<speed>6.200000</speed>
</trkpt>
<trkpt lat="55.751705" lon="26.036573">
<ele>168.326294</ele>
<time>2010-07-17T17:48:10Z</time>
<desc>lat.=55.751705, lon.=26.036573, Alt.=168.326294m. Speed=21.816000m/h.</desc>
<speed>6.060000</speed>
</trkpt>
<trkpt lat="55.751663" lon="26.036633">
<ele>167.752075</ele>
<time>2010-07-17T17:48:11Z</time>
<desc>lat.=55.751663, lon.=26.036633, Alt.=167.752075m. Speed=20.916000m/h.</desc>
<speed>5.810000</speed>
</trkpt>
<trkpt lat="55.751621" lon="26.036699">
<ele>167.849731</ele>
<time>2010-07-17T17:48:12Z</time>
<desc>lat.=55.751621, lon.=26.036699, Alt.=167.849731m. Speed=21.816000m/h.</desc>
<speed>6.060000</speed>
</trkpt>
<trkpt lat="55.751583" lon="26.036768">
<ele>167.353638</ele>
<time>2010-07-17T17:48:13Z</time>
<desc>lat.=55.751583, lon.=26.036768, Alt.=167.353638m. Speed=22.068001m/h.</desc>
<speed>6.130000</speed>
</trkpt>
<trkpt lat="55.751549" lon="26.036844">
<ele>167.134888</ele>
<time>2010-07-17T17:48:14Z</time>
<desc>lat.=55.751549, lon.=26.036844, Alt.=167.134888m. Speed=21.204000m/h.</desc>
<speed>5.890000</speed>
</trkpt>
<trkpt lat="55.751511" lon="26.036913">
<ele>167.353638</ele>
<time>2010-07-17T17:48:15Z</time>
<desc>lat.=55.751511, lon.=26.036913, Alt.=167.353638m. Speed=22.788000m/h.</desc>
<speed>6.330000</speed>
</trkpt>
<trkpt lat="55.751469" lon="26.036989">
<ele>167.255981</ele>
<time>2010-07-17T17:48:16Z</time>
<desc>lat.=55.751469, lon.=26.036989, Alt.=167.255981m. Speed=22.788000m/h.</desc>
<speed>6.330000</speed>
</trkpt>
<trkpt lat="55.751431" lon="26.037060">
<ele>167.236450</ele>
<time>2010-07-17T17:48:17Z</time>
<desc>lat.=55.751431, lon.=26.037060, Alt.=167.236450m. Speed=20.879999m/h.</desc>
<speed>5.800000</speed>
</trkpt>
<trkpt lat="55.751396" lon="26.037125">
<ele>167.052856</ele>
<time>2010-07-17T17:48:18Z</time>
<desc>lat.=55.751396, lon.=26.037125, Alt.=167.052856m. Speed=20.448000m/h.</desc>
<speed>5.680000</speed>
</trkpt>
<trkpt lat="55.751362" lon="26.037188">
<ele>166.427856</ele>
<time>2010-07-17T17:48:19Z</time>
<desc>lat.=55.751362, lon.=26.037188, Alt.=166.427856m. Speed=19.728001m/h.</desc>
<speed>5.480000</speed>
</trkpt>
<trkpt lat="55.751324" lon="26.037252">
<ele>165.509888</ele>
<time>2010-07-17T17:48:20Z</time>
<desc>lat.=55.751324, lon.=26.037252, Alt.=165.509888m. Speed=20.412001m/h.</desc>
<speed>5.670000</speed>
</trkpt>
<trkpt lat="55.751293" lon="26.037315">
<ele>165.572388</ele>
<time>2010-07-17T17:48:21Z</time>
<desc>lat.=55.751293, lon.=26.037315, Alt.=165.572388m. Speed=16.848000m/h.</desc>
<speed>4.680000</speed>
</trkpt>
<trkpt lat="55.751263" lon="26.037376">
<ele>166.451294</ele>
<time>2010-07-17T17:48:22Z</time>
<desc>lat.=55.751263, lon.=26.037376, Alt.=166.451294m. Speed=17.208000m/h.</desc>
<speed>4.780000</speed>
</trkpt>
<trkpt lat="55.751232" lon="26.037436">
<ele>166.216919</ele>
<time>2010-07-17T17:48:23Z</time>
<desc>lat.=55.751232, lon.=26.037436, Alt.=166.216919m. Speed=18.216000m/h.</desc>
<speed>5.060000</speed>
</trkpt>
<trkpt lat="55.751202" lon="26.037493">
<ele>166.099731</ele>
<time>2010-07-17T17:48:24Z</time>
<desc>lat.=55.751202, lon.=26.037493, Alt.=166.099731m. Speed=16.992001m/h.</desc>
<speed>4.720000</speed>
</trkpt>
<trkpt lat="55.751171" lon="26.037550">
<ele>165.982544</ele>
<time>2010-07-17T17:48:25Z</time>
<desc>lat.=55.751171, lon.=26.037550, Alt.=165.982544m. Speed=16.884001m/h.</desc>
<speed>4.690000</speed>
</trkpt>
<trkpt lat="55.751137" lon="26.037598">
<ele>165.966919</ele>
<time>2010-07-17T17:48:26Z</time>
<desc>lat.=55.751137, lon.=26.037598, Alt.=165.966919m. Speed=14.256000m/h.</desc>
<speed>3.960000</speed>
</trkpt>
<trkpt lat="55.751110" lon="26.037642">
<ele>166.459106</ele>
<time>2010-07-17T17:48:27Z</time>
<desc>lat.=55.751110, lon.=26.037642, Alt.=166.459106m. Speed=15.984000m/h.</desc>
<speed>4.440000</speed>
</trkpt>
<trkpt lat="55.751083" lon="26.037687">
<ele>166.591919</ele>
<time>2010-07-17T17:48:28Z</time>
<desc>lat.=55.751083, lon.=26.037687, Alt.=166.591919m. Speed=16.596001m/h.</desc>
<speed>4.610000</speed>
</trkpt>
<trkpt lat="55.751053" lon="26.037739">
<ele>166.705200</ele>
<time>2010-07-17T17:48:29Z</time>
<desc>lat.=55.751053, lon.=26.037739, Alt.=166.705200m. Speed=17.316000m/h.</desc>
<speed>4.810000</speed>
</trkpt>
<trkpt lat="55.751019" lon="26.037798">
<ele>166.998169</ele>
<time>2010-07-17T17:48:30Z</time>
<desc>lat.=55.751019, lon.=26.037798, Alt.=166.998169m. Speed=15.696000m/h.</desc>
<speed>4.360000</speed>
</trkpt>
<trkpt lat="55.750988" lon="26.037848">
<ele>167.275513</ele>
<time>2010-07-17T17:48:31Z</time>
<desc>lat.=55.750988, lon.=26.037848, Alt.=167.275513m. Speed=16.632000m/h.</desc>
<speed>4.620000</speed>
</trkpt>
<trkpt lat="55.750957" lon="26.037901">
<ele>168.127075</ele>
<time>2010-07-17T17:48:32Z</time>
<desc>lat.=55.750957, lon.=26.037901, Alt.=168.127075m. Speed=15.984000m/h.</desc>
<speed>4.440000</speed>
</trkpt>
<trkpt lat="55.750927" lon="26.037949">
<ele>168.861450</ele>
<time>2010-07-17T17:48:33Z</time>
<desc>lat.=55.750927, lon.=26.037949, Alt.=168.861450m. Speed=15.120000m/h.</desc>
<speed>4.200000</speed>
</trkpt>
<trkpt lat="55.750896" lon="26.038002">
<ele>168.880981</ele>
<time>2010-07-17T17:48:34Z</time>
<desc>lat.=55.750896, lon.=26.038002, Alt.=168.880981m. Speed=15.372000m/h.</desc>
<speed>4.270000</speed>
</trkpt>
<trkpt lat="55.750874" lon="26.038059">
<ele>169.732544</ele>
<time>2010-07-17T17:48:35Z</time>
<desc>lat.=55.750874, lon.=26.038059, Alt.=169.732544m. Speed=13.536000m/h.</desc>
<speed>3.760000</speed>
</trkpt>
<trkpt lat="55.750851" lon="26.038101">
<ele>169.771606</ele>
<time>2010-07-17T17:48:36Z</time>
<desc>lat.=55.750851, lon.=26.038101, Alt.=169.771606m. Speed=13.104000m/h.</desc>
<speed>3.640000</speed>
</trkpt>
<trkpt lat="55.750828" lon="26.038136">
<ele>169.670044</ele>
<time>2010-07-17T17:48:37Z</time>
<desc>lat.=55.750828, lon.=26.038136, Alt.=169.670044m. Speed=13.032000m/h.</desc>
<speed>3.620000</speed>
</trkpt>
<trkpt lat="55.750805" lon="26.038172">
<ele>170.033325</ele>
<time>2010-07-17T17:48:38Z</time>
<desc>lat.=55.750805, lon.=26.038172, Alt.=170.033325m. Speed=12.888000m/h.</desc>
<speed>3.580000</speed>
</trkpt>
<trkpt lat="55.750786" lon="26.038216">
<ele>170.037231</ele>
<time>2010-07-17T17:48:39Z</time>
<desc>lat.=55.750786, lon.=26.038216, Alt.=170.037231m. Speed=12.060000m/h.</desc>
<speed>3.350000</speed>
</trkpt>
<trkpt lat="55.750759" lon="26.038254">
<ele>169.619263</ele>
<time>2010-07-17T17:48:40Z</time>
<desc>lat.=55.750759, lon.=26.038254, Alt.=169.619263m. Speed=13.572000m/h.</desc>
<speed>3.770000</speed>
</trkpt>
<trkpt lat="55.750729" lon="26.038286">
<ele>169.291138</ele>
<time>2010-07-17T17:48:41Z</time>
<desc>lat.=55.750729, lon.=26.038286, Alt.=169.291138m. Speed=13.824000m/h.</desc>
<speed>3.840000</speed>
</trkpt>
<trkpt lat="55.750702" lon="26.038324">
<ele>168.412231</ele>
<time>2010-07-17T17:48:42Z</time>
<desc>lat.=55.750702, lon.=26.038324, Alt.=168.412231m. Speed=15.660000m/h.</desc>
<speed>4.350000</speed>
</trkpt>
<trkpt lat="55.750664" lon="26.038363">
<ele>167.986450</ele>
<time>2010-07-17T17:48:43Z</time>
<desc>lat.=55.750664, lon.=26.038363, Alt.=167.986450m. Speed=19.368000m/h.</desc>
<speed>5.380000</speed>
</trkpt>
<trkpt lat="55.750618" lon="26.038403">
<ele>167.369263</ele>
<time>2010-07-17T17:48:44Z</time>
<desc>lat.=55.750618, lon.=26.038403, Alt.=167.369263m. Speed=18.323999m/h.</desc>
<speed>5.090000</speed>
</trkpt>
<trkpt lat="55.750572" lon="26.038452">
<ele>166.576294</ele>
<time>2010-07-17T17:48:45Z</time>
<desc>lat.=55.750572, lon.=26.038452, Alt.=166.576294m. Speed=20.448000m/h.</desc>
<speed>5.680000</speed>
</trkpt>
<trkpt lat="55.750530" lon="26.038507">
<ele>166.431763</ele>
<time>2010-07-17T17:48:46Z</time>
<desc>lat.=55.750530, lon.=26.038507, Alt.=166.431763m. Speed=21.455999m/h.</desc>
<speed>5.960000</speed>
</trkpt>
<trkpt lat="55.750484" lon="26.038568">
<ele>166.713013</ele>
<time>2010-07-17T17:48:47Z</time>
<desc>lat.=55.750484, lon.=26.038568, Alt.=166.713013m. Speed=22.823999m/h.</desc>
<speed>6.340000</speed>
</trkpt>
<trkpt lat="55.750427" lon="26.038630">
<ele>166.185669</ele>
<time>2010-07-17T17:48:48Z</time>
<desc>lat.=55.750427, lon.=26.038630, Alt.=166.185669m. Speed=25.775999m/h.</desc>
<speed>7.160000</speed>
</trkpt>
<trkpt lat="55.750370" lon="26.038698">
<ele>165.580200</ele>
<time>2010-07-17T17:48:49Z</time>
<desc>lat.=55.750370, lon.=26.038698, Alt.=165.580200m. Speed=25.271999m/h.</desc>
<speed>7.020000</speed>
</trkpt>
<trkpt lat="55.750313" lon="26.038767">
<ele>165.482544</ele>
<time>2010-07-17T17:48:50Z</time>
<desc>lat.=55.750313, lon.=26.038767, Alt.=165.482544m. Speed=27.000000m/h.</desc>
<speed>7.500000</speed>
</trkpt>
<trkpt lat="55.750256" lon="26.038836">
<ele>165.170044</ele>
<time>2010-07-17T17:48:51Z</time>
<desc>lat.=55.750256, lon.=26.038836, Alt.=165.170044m. Speed=27.396000m/h.</desc>
<speed>7.610000</speed>
</trkpt>
<trkpt lat="55.750198" lon="26.038902">
<ele>164.787231</ele>
<time>2010-07-17T17:48:52Z</time>
<desc>lat.=55.750198, lon.=26.038902, Alt.=164.787231m. Speed=27.288000m/h.</desc>
<speed>7.580000</speed>
</trkpt>
<trkpt lat="55.750141" lon="26.038969">
<ele>164.443481</ele>
<time>2010-07-17T17:48:53Z</time>
<desc>lat.=55.750141, lon.=26.038969, Alt.=164.443481m. Speed=26.856001m/h.</desc>
<speed>7.460000</speed>
</trkpt>
<trkpt lat="55.750076" lon="26.039043">
<ele>164.767700</ele>
<time>2010-07-17T17:48:54Z</time>
<desc>lat.=55.750076, lon.=26.039043, Alt.=164.767700m. Speed=26.676001m/h.</desc>
<speed>7.410000</speed>
</trkpt>
<trkpt lat="55.750023" lon="26.039116">
<ele>164.857544</ele>
<time>2010-07-17T17:48:55Z</time>
<desc>lat.=55.750023, lon.=26.039116, Alt.=164.857544m. Speed=25.308001m/h.</desc>
<speed>7.030000</speed>
</trkpt>
<trkpt lat="55.749977" lon="26.039177">
<ele>164.599731</ele>
<time>2010-07-17T17:48:56Z</time>
<desc>lat.=55.749977, lon.=26.039177, Alt.=164.599731m. Speed=22.788000m/h.</desc>
<speed>6.330000</speed>
</trkpt>
<trkpt lat="55.749928" lon="26.039242">
<ele>164.373169</ele>
<time>2010-07-17T17:48:57Z</time>
<desc>lat.=55.749928, lon.=26.039242, Alt.=164.373169m. Speed=22.931999m/h.</desc>
<speed>6.370000</speed>
</trkpt>
<trkpt lat="55.749882" lon="26.039305">
<ele>163.912231</ele>
<time>2010-07-17T17:48:58Z</time>
<desc>lat.=55.749882, lon.=26.039305, Alt.=163.912231m. Speed=23.076000m/h.</desc>
<speed>6.410000</speed>
</trkpt>
<trkpt lat="55.749836" lon="26.039368">
<ele>163.048950</ele>
<time>2010-07-17T17:48:59Z</time>
<desc>lat.=55.749836, lon.=26.039368, Alt.=163.048950m. Speed=23.652000m/h.</desc>
<speed>6.570000</speed>
</trkpt>
<trkpt lat="55.749783" lon="26.039433">
<ele>162.740356</ele>
<time>2010-07-17T17:49:00Z</time>
<desc>lat.=55.749783, lon.=26.039433, Alt.=162.740356m. Speed=25.091999m/h.</desc>
<speed>6.970000</speed>
</trkpt>
<trkpt lat="55.749725" lon="26.039497">
<ele>162.216919</ele>
<time>2010-07-17T17:49:01Z</time>
<desc>lat.=55.749725, lon.=26.039497, Alt.=162.216919m. Speed=25.632000m/h.</desc>
<speed>7.120000</speed>
</trkpt>
<trkpt lat="55.749672" lon="26.039568">
<ele>161.873169</ele>
<time>2010-07-17T17:49:02Z</time>
<desc>lat.=55.749672, lon.=26.039568, Alt.=161.873169m. Speed=26.856001m/h.</desc>
<speed>7.460000</speed>
</trkpt>
<trkpt lat="55.749619" lon="26.039637">
<ele>162.361450</ele>
<time>2010-07-17T17:49:03Z</time>
<desc>lat.=55.749619, lon.=26.039637, Alt.=162.361450m. Speed=27.216000m/h.</desc>
<speed>7.560000</speed>
</trkpt>
<trkpt lat="55.749557" lon="26.039701">
<ele>161.740356</ele>
<time>2010-07-17T17:49:04Z</time>
<desc>lat.=55.749557, lon.=26.039701, Alt.=161.740356m. Speed=27.143999m/h.</desc>
<speed>7.540000</speed>
</trkpt>
<trkpt lat="55.749500" lon="26.039761">
<ele>161.595825</ele>
<time>2010-07-17T17:49:05Z</time>
<desc>lat.=55.749500, lon.=26.039761, Alt.=161.595825m. Speed=27.719999m/h.</desc>
<speed>7.700000</speed>
</trkpt>
<trkpt lat="55.749439" lon="26.039827">
<ele>160.693481</ele>
<time>2010-07-17T17:49:06Z</time>
<desc>lat.=55.749439, lon.=26.039827, Alt.=160.693481m. Speed=28.476000m/h.</desc>
<speed>7.910000</speed>
</trkpt>
<trkpt lat="55.749378" lon="26.039898">
<ele>160.701294</ele>
<time>2010-07-17T17:49:07Z</time>
<desc>lat.=55.749378, lon.=26.039898, Alt.=160.701294m. Speed=29.232000m/h.</desc>
<speed>8.120000</speed>
</trkpt>
<trkpt lat="55.749317" lon="26.039965">
<ele>160.185669</ele>
<time>2010-07-17T17:49:08Z</time>
<desc>lat.=55.749317, lon.=26.039965, Alt.=160.185669m. Speed=28.080000m/h.</desc>
<speed>7.800000</speed>
</trkpt>
<trkpt lat="55.749260" lon="26.040028">
<ele>159.045044</ele>
<time>2010-07-17T17:49:09Z</time>
<desc>lat.=55.749260, lon.=26.040028, Alt.=159.045044m. Speed=27.792000m/h.</desc>
<speed>7.720000</speed>
</trkpt>
<trkpt lat="55.749203" lon="26.040108">
<ele>157.611450</ele>
<time>2010-07-17T17:49:10Z</time>
<desc>lat.=55.749203, lon.=26.040108, Alt.=157.611450m. Speed=29.016001m/h.</desc>
<speed>8.060000</speed>
</trkpt>
<trkpt lat="55.749146" lon="26.040182">
<ele>157.013794</ele>
<time>2010-07-17T17:49:11Z</time>
<desc>lat.=55.749146, lon.=26.040182, Alt.=157.013794m. Speed=29.412001m/h.</desc>
<speed>8.170000</speed>
</trkpt>
<trkpt lat="55.749077" lon="26.040255">
<ele>156.033325</ele>
<time>2010-07-17T17:49:12Z</time>
<desc>lat.=55.749077, lon.=26.040255, Alt.=156.033325m. Speed=29.700001m/h.</desc>
<speed>8.250000</speed>
</trkpt>
<trkpt lat="55.749016" lon="26.040323">
<ele>155.619263</ele>
<time>2010-07-17T17:49:13Z</time>
<desc>lat.=55.749016, lon.=26.040323, Alt.=155.619263m. Speed=29.628000m/h.</desc>
<speed>8.230000</speed>
</trkpt>
<trkpt lat="55.748955" lon="26.040394">
<ele>155.005981</ele>
<time>2010-07-17T17:49:14Z</time>
<desc>lat.=55.748955, lon.=26.040394, Alt.=155.005981m. Speed=28.403999m/h.</desc>
<speed>7.890000</speed>
</trkpt>
<trkpt lat="55.748898" lon="26.040464">
<ele>154.716919</ele>
<time>2010-07-17T17:49:15Z</time>
<desc>lat.=55.748898, lon.=26.040464, Alt.=154.716919m. Speed=28.260000m/h.</desc>
<speed>7.850000</speed>
</trkpt>
<trkpt lat="55.748848" lon="26.040533">
<ele>154.349731</ele>
<time>2010-07-17T17:49:16Z</time>
<desc>lat.=55.748848, lon.=26.040533, Alt.=154.349731m. Speed=25.164000m/h.</desc>
<speed>6.990000</speed>
</trkpt>
<trkpt lat="55.748798" lon="26.040579">
<ele>154.115356</ele>
<time>2010-07-17T17:49:17Z</time>
<desc>lat.=55.748798, lon.=26.040579, Alt.=154.115356m. Speed=22.068001m/h.</desc>
<speed>6.130000</speed>
</trkpt>
<trkpt lat="55.748756" lon="26.040634">
<ele>154.205200</ele>
<time>2010-07-17T17:49:18Z</time>
<desc>lat.=55.748756, lon.=26.040634, Alt.=154.205200m. Speed=21.420000m/h.</desc>
<speed>5.950000</speed>
</trkpt>
<trkpt lat="55.748711" lon="26.040688">
<ele>154.873169</ele>
<time>2010-07-17T17:49:19Z</time>
<desc>lat.=55.748711, lon.=26.040688, Alt.=154.873169m. Speed=21.132000m/h.</desc>
<speed>5.870000</speed>
</trkpt>
<trkpt lat="55.748672" lon="26.040747">
<ele>155.119263</ele>
<time>2010-07-17T17:49:20Z</time>
<desc>lat.=55.748672, lon.=26.040747, Alt.=155.119263m. Speed=20.340000m/h.</desc>
<speed>5.650000</speed>
</trkpt>
<trkpt lat="55.748634" lon="26.040800">
<ele>155.033325</ele>
<time>2010-07-17T17:49:21Z</time>
<desc>lat.=55.748634, lon.=26.040800, Alt.=155.033325m. Speed=19.440001m/h.</desc>
<speed>5.400000</speed>
</trkpt>
<trkpt lat="55.748592" lon="26.040854">
<ele>155.584106</ele>
<time>2010-07-17T17:49:22Z</time>
<desc>lat.=55.748592, lon.=26.040854, Alt.=155.584106m. Speed=19.944000m/h.</desc>
<speed>5.540000</speed>
</trkpt>
<trkpt lat="55.748554" lon="26.040911">
<ele>156.033325</ele>
<time>2010-07-17T17:49:23Z</time>
<desc>lat.=55.748554, lon.=26.040911, Alt.=156.033325m. Speed=20.448000m/h.</desc>
<speed>5.680000</speed>
</trkpt>
<trkpt lat="55.748512" lon="26.040970">
<ele>156.459106</ele>
<time>2010-07-17T17:49:24Z</time>
<desc>lat.=55.748512, lon.=26.040970, Alt.=156.459106m. Speed=19.728001m/h.</desc>
<speed>5.480000</speed>
</trkpt>
<trkpt lat="55.748474" lon="26.041031">
<ele>157.431763</ele>
<time>2010-07-17T17:49:25Z</time>
<desc>lat.=55.748474, lon.=26.041031, Alt.=157.431763m. Speed=18.035999m/h.</desc>
<speed>5.010000</speed>
</trkpt>
<trkpt lat="55.748440" lon="26.041096">
<ele>158.084106</ele>
<time>2010-07-17T17:49:26Z</time>
<desc>lat.=55.748440, lon.=26.041096, Alt.=158.084106m. Speed=17.280001m/h.</desc>
<speed>4.800000</speed>
</trkpt>
<trkpt lat="55.748405" lon="26.041145">
<ele>158.361450</ele>
<time>2010-07-17T17:49:27Z</time>
<desc>lat.=55.748405, lon.=26.041145, Alt.=158.361450m. Speed=17.532000m/h.</desc>
<speed>4.870000</speed>
</trkpt>
<trkpt lat="55.748367" lon="26.041189">
<ele>158.080200</ele>
<time>2010-07-17T17:49:28Z</time>
<desc>lat.=55.748367, lon.=26.041189, Alt.=158.080200m. Speed=16.992001m/h.</desc>
<speed>4.720000</speed>
</trkpt>
<trkpt lat="55.748333" lon="26.041231">
<ele>158.173950</ele>
<time>2010-07-17T17:49:29Z</time>
<desc>lat.=55.748333, lon.=26.041231, Alt.=158.173950m. Speed=17.532000m/h.</desc>
<speed>4.870000</speed>
</trkpt>
<trkpt lat="55.748295" lon="26.041283">
<ele>157.759888</ele>
<time>2010-07-17T17:49:30Z</time>
<desc>lat.=55.748295, lon.=26.041283, Alt.=157.759888m. Speed=18.756001m/h.</desc>
<speed>5.210000</speed>
</trkpt>
<trkpt lat="55.748257" lon="26.041328">
<ele>157.670044</ele>
<time>2010-07-17T17:49:31Z</time>
<desc>lat.=55.748257, lon.=26.041328, Alt.=157.670044m. Speed=19.115999m/h.</desc>
<speed>5.310000</speed>
</trkpt>
<trkpt lat="55.748219" lon="26.041382">
<ele>157.482544</ele>
<time>2010-07-17T17:49:32Z</time>
<desc>lat.=55.748219, lon.=26.041382, Alt.=157.482544m. Speed=20.340000m/h.</desc>
<speed>5.650000</speed>
</trkpt>
<trkpt lat="55.748173" lon="26.041439">
<ele>157.185669</ele>
<time>2010-07-17T17:49:33Z</time>
<desc>lat.=55.748173, lon.=26.041439, Alt.=157.185669m. Speed=22.535999m/h.</desc>
<speed>6.260000</speed>
</trkpt>
<trkpt lat="55.748127" lon="26.041489">
<ele>157.197388</ele>
<time>2010-07-17T17:49:34Z</time>
<desc>lat.=55.748127, lon.=26.041489, Alt.=157.197388m. Speed=21.600000m/h.</desc>
<speed>6.000000</speed>
</trkpt>
<trkpt lat="55.748085" lon="26.041542">
<ele>157.267700</ele>
<time>2010-07-17T17:49:35Z</time>
<desc>lat.=55.748085, lon.=26.041542, Alt.=157.267700m. Speed=20.268000m/h.</desc>
<speed>5.630000</speed>
</trkpt>
<trkpt lat="55.748047" lon="26.041595">
<ele>157.498169</ele>
<time>2010-07-17T17:49:36Z</time>
<desc>lat.=55.748047, lon.=26.041595, Alt.=157.498169m. Speed=18.108000m/h.</desc>
<speed>5.030000</speed>
</trkpt>
<trkpt lat="55.748009" lon="26.041637">
<ele>157.541138</ele>
<time>2010-07-17T17:49:37Z</time>
<desc>lat.=55.748009, lon.=26.041637, Alt.=157.541138m. Speed=17.964001m/h.</desc>
<speed>4.990000</speed>
</trkpt>
<trkpt lat="55.747971" lon="26.041681">
<ele>157.630981</ele>
<time>2010-07-17T17:49:38Z</time>
<desc>lat.=55.747971, lon.=26.041681, Alt.=157.630981m. Speed=19.368000m/h.</desc>
<speed>5.380000</speed>
</trkpt>
<trkpt lat="55.747929" lon="26.041729">
<ele>157.681763</ele>
<time>2010-07-17T17:49:39Z</time>
<desc>lat.=55.747929, lon.=26.041729, Alt.=157.681763m. Speed=19.296000m/h.</desc>
<speed>5.360000</speed>
</trkpt>
<trkpt lat="55.747890" lon="26.041780">
<ele>157.408325</ele>
<time>2010-07-17T17:49:40Z</time>
<desc>lat.=55.747890, lon.=26.041780, Alt.=157.408325m. Speed=18.431999m/h.</desc>
<speed>5.120000</speed>
</trkpt>
<trkpt lat="55.747852" lon="26.041826">
<ele>157.166138</ele>
<time>2010-07-17T17:49:41Z</time>
<desc>lat.=55.747852, lon.=26.041826, Alt.=157.166138m. Speed=17.388000m/h.</desc>
<speed>4.830000</speed>
</trkpt>
<trkpt lat="55.747818" lon="26.041864">
<ele>157.275513</ele>
<time>2010-07-17T17:49:42Z</time>
<desc>lat.=55.747818, lon.=26.041864, Alt.=157.275513m. Speed=18.072001m/h.</desc>
<speed>5.020000</speed>
</trkpt>
<trkpt lat="55.747780" lon="26.041906">
<ele>157.213013</ele>
<time>2010-07-17T17:49:43Z</time>
<desc>lat.=55.747780, lon.=26.041906, Alt.=157.213013m. Speed=17.927999m/h.</desc>
<speed>4.980000</speed>
</trkpt>
<trkpt lat="55.747746" lon="26.041952">
<ele>156.888794</ele>
<time>2010-07-17T17:49:44Z</time>
<desc>lat.=55.747746, lon.=26.041952, Alt.=156.888794m. Speed=15.336000m/h.</desc>
<speed>4.260000</speed>
</trkpt>
<trkpt lat="55.747707" lon="26.041994">
<ele>157.369263</ele>
<time>2010-07-17T17:49:45Z</time>
<desc>lat.=55.747707, lon.=26.041994, Alt.=157.369263m. Speed=16.308001m/h.</desc>
<speed>4.530000</speed>
</trkpt>
<trkpt lat="55.747677" lon="26.042040">
<ele>157.623169</ele>
<time>2010-07-17T17:49:46Z</time>
<desc>lat.=55.747677, lon.=26.042040, Alt.=157.623169m. Speed=15.552000m/h.</desc>
<speed>4.320000</speed>
</trkpt>
<trkpt lat="55.747650" lon="26.042088">
<ele>158.185669</ele>
<time>2010-07-17T17:49:47Z</time>
<desc>lat.=55.747650, lon.=26.042088, Alt.=158.185669m. Speed=14.184000m/h.</desc>
<speed>3.940000</speed>
</trkpt>
<trkpt lat="55.747623" lon="26.042128">
<ele>158.330200</ele>
<time>2010-07-17T17:49:48Z</time>
<desc>lat.=55.747623, lon.=26.042128, Alt.=158.330200m. Speed=13.212000m/h.</desc>
<speed>3.670000</speed>
</trkpt>
<trkpt lat="55.747601" lon="26.042166">
<ele>158.216919</ele>
<time>2010-07-17T17:49:49Z</time>
<desc>lat.=55.747601, lon.=26.042166, Alt.=158.216919m. Speed=13.572000m/h.</desc>
<speed>3.770000</speed>
</trkpt>
<trkpt lat="55.747570" lon="26.042204">
<ele>158.306763</ele>
<time>2010-07-17T17:49:50Z</time>
<desc>lat.=55.747570, lon.=26.042204, Alt.=158.306763m. Speed=14.256000m/h.</desc>
<speed>3.960000</speed>
</trkpt>
<trkpt lat="55.747543" lon="26.042246">
<ele>158.072388</ele>
<time>2010-07-17T17:49:51Z</time>
<desc>lat.=55.747543, lon.=26.042246, Alt.=158.072388m. Speed=14.976000m/h.</desc>
<speed>4.160000</speed>
</trkpt>
<trkpt lat="55.747517" lon="26.042286">
<ele>158.228638</ele>
<time>2010-07-17T17:49:52Z</time>
<desc>lat.=55.747517, lon.=26.042286, Alt.=158.228638m. Speed=11.916000m/h.</desc>
<speed>3.310000</speed>
</trkpt>
<trkpt lat="55.747490" lon="26.042318">
<ele>158.158325</ele>
<time>2010-07-17T17:49:53Z</time>
<desc>lat.=55.747490, lon.=26.042318, Alt.=158.158325m. Speed=12.492000m/h.</desc>
<speed>3.470000</speed>
</trkpt>
<trkpt lat="55.747467" lon="26.042355">
<ele>158.427856</ele>
<time>2010-07-17T17:49:54Z</time>
<desc>lat.=55.747467, lon.=26.042355, Alt.=158.427856m. Speed=12.348000m/h.</desc>
<speed>3.430000</speed>
</trkpt>
<trkpt lat="55.747444" lon="26.042383">
<ele>158.275513</ele>
<time>2010-07-17T17:49:55Z</time>
<desc>lat.=55.747444, lon.=26.042383, Alt.=158.275513m. Speed=12.204000m/h.</desc>
<speed>3.390000</speed>
</trkpt>
<trkpt lat="55.747421" lon="26.042418">
<ele>159.463013</ele>
<time>2010-07-17T17:49:56Z</time>
<desc>lat.=55.747421, lon.=26.042418, Alt.=159.463013m. Speed=11.556000m/h.</desc>
<speed>3.210000</speed>
</trkpt>
<trkpt lat="55.747406" lon="26.042440">
<ele>159.529419</ele>
<time>2010-07-17T17:49:57Z</time>
<desc>lat.=55.747406, lon.=26.042440, Alt.=159.529419m. Speed=10.476000m/h.</desc>
<speed>2.910000</speed>
</trkpt>
<trkpt lat="55.747387" lon="26.042469">
<ele>160.099731</ele>
<time>2010-07-17T17:49:58Z</time>
<desc>lat.=55.747387, lon.=26.042469, Alt.=160.099731m. Speed=10.404000m/h.</desc>
<speed>2.890000</speed>
</trkpt>
<trkpt lat="55.747372" lon="26.042500">
<ele>160.689575</ele>
<time>2010-07-17T17:49:59Z</time>
<desc>lat.=55.747372, lon.=26.042500, Alt.=160.689575m. Speed=10.764000m/h.</desc>
<speed>2.990000</speed>
</trkpt>
<trkpt lat="55.747345" lon="26.042524">
<ele>160.861450</ele>
<time>2010-07-17T17:50:00Z</time>
<desc>lat.=55.747345, lon.=26.042524, Alt.=160.861450m. Speed=10.224000m/h.</desc>
<speed>2.840000</speed>
</trkpt>
<trkpt lat="55.747326" lon="26.042555">
<ele>161.115356</ele>
<time>2010-07-17T17:50:01Z</time>
<desc>lat.=55.747326, lon.=26.042555, Alt.=161.115356m. Speed=9.828000m/h.</desc>
<speed>2.730000</speed>
</trkpt>
<trkpt lat="55.747307" lon="26.042578">
<ele>161.947388</ele>
<time>2010-07-17T17:50:02Z</time>
<desc>lat.=55.747307, lon.=26.042578, Alt.=161.947388m. Speed=11.844000m/h.</desc>
<speed>3.290000</speed>
</trkpt>
<trkpt lat="55.747284" lon="26.042603">
<ele>161.615356</ele>
<time>2010-07-17T17:50:03Z</time>
<desc>lat.=55.747284, lon.=26.042603, Alt.=161.615356m. Speed=10.800000m/h.</desc>
<speed>3.000000</speed>
</trkpt>
<trkpt lat="55.747261" lon="26.042631">
<ele>161.255981</ele>
<time>2010-07-17T17:50:04Z</time>
<desc>lat.=55.747261, lon.=26.042631, Alt.=161.255981m. Speed=9.072000m/h.</desc>
<speed>2.520000</speed>
</trkpt>
<trkpt lat="55.747242" lon="26.042667">
<ele>159.853638</ele>
<time>2010-07-17T17:50:05Z</time>
<desc>lat.=55.747242, lon.=26.042667, Alt.=159.853638m. Speed=11.340000m/h.</desc>
<speed>3.150000</speed>
</trkpt>
<trkpt lat="55.747204" lon="26.042719">
<ele>159.482544</ele>
<time>2010-07-17T17:50:06Z</time>
<desc>lat.=55.747204, lon.=26.042719, Alt.=159.482544m. Speed=16.020000m/h.</desc>
<speed>4.450000</speed>
</trkpt>
<trkpt lat="55.747169" lon="26.042768">
<ele>159.623169</ele>
<time>2010-07-17T17:50:07Z</time>
<desc>lat.=55.747169, lon.=26.042768, Alt.=159.623169m. Speed=13.356000m/h.</desc>
<speed>3.710000</speed>
</trkpt>
<trkpt lat="55.747135" lon="26.042809">
<ele>160.545044</ele>
<time>2010-07-17T17:50:08Z</time>
<desc>lat.=55.747135, lon.=26.042809, Alt.=160.545044m. Speed=12.852000m/h.</desc>
<speed>3.570000</speed>
</trkpt>
<trkpt lat="55.747105" lon="26.042841">
<ele>160.384888</ele>
<time>2010-07-17T17:50:09Z</time>
<desc>lat.=55.747105, lon.=26.042841, Alt.=160.384888m. Speed=14.256000m/h.</desc>
<speed>3.960000</speed>
</trkpt>
<trkpt lat="55.747078" lon="26.042887">
<ele>159.908325</ele>
<time>2010-07-17T17:50:10Z</time>
<desc>lat.=55.747078, lon.=26.042887, Alt.=159.908325m. Speed=14.040000m/h.</desc>
<speed>3.900000</speed>
</trkpt>
<trkpt lat="55.747047" lon="26.042931">
<ele>159.638794</ele>
<time>2010-07-17T17:50:11Z</time>
<desc>lat.=55.747047, lon.=26.042931, Alt.=159.638794m. Speed=14.724000m/h.</desc>
<speed>4.090000</speed>
</trkpt>
<trkpt lat="55.747017" lon="26.042980">
<ele>159.404419</ele>
<time>2010-07-17T17:50:12Z</time>
<desc>lat.=55.747017, lon.=26.042980, Alt.=159.404419m. Speed=15.228000m/h.</desc>
<speed>4.230000</speed>
</trkpt>
<trkpt lat="55.746986" lon="26.043028">
<ele>158.892700</ele>
<time>2010-07-17T17:50:13Z</time>
<desc>lat.=55.746986, lon.=26.043028, Alt.=158.892700m. Speed=15.804000m/h.</desc>
<speed>4.390000</speed>
</trkpt>
<trkpt lat="55.746960" lon="26.043083">
<ele>158.630981</ele>
<time>2010-07-17T17:50:14Z</time>
<desc>lat.=55.746960, lon.=26.043083, Alt.=158.630981m. Speed=16.164000m/h.</desc>
<speed>4.490000</speed>
</trkpt>
<trkpt lat="55.746929" lon="26.043142">
<ele>158.716919</ele>
<time>2010-07-17T17:50:15Z</time>
<desc>lat.=55.746929, lon.=26.043142, Alt.=158.716919m. Speed=15.732000m/h.</desc>
<speed>4.370000</speed>
</trkpt>
<trkpt lat="55.746902" lon="26.043200">
<ele>159.341919</ele>
<time>2010-07-17T17:50:16Z</time>
<desc>lat.=55.746902, lon.=26.043200, Alt.=159.341919m. Speed=17.028000m/h.</desc>
<speed>4.730000</speed>
</trkpt>
<trkpt lat="55.746872" lon="26.043251">
<ele>159.103638</ele>
<time>2010-07-17T17:50:17Z</time>
<desc>lat.=55.746872, lon.=26.043251, Alt.=159.103638m. Speed=15.192000m/h.</desc>
<speed>4.220000</speed>
</trkpt>
<trkpt lat="55.746849" lon="26.043306">
<ele>159.314575</ele>
<time>2010-07-17T17:50:18Z</time>
<desc>lat.=55.746849, lon.=26.043306, Alt.=159.314575m. Speed=16.344000m/h.</desc>
<speed>4.540000</speed>
</trkpt>
<trkpt lat="55.746826" lon="26.043369">
<ele>159.423950</ele>
<time>2010-07-17T17:50:19Z</time>
<desc>lat.=55.746826, lon.=26.043369, Alt.=159.423950m. Speed=15.948000m/h.</desc>
<speed>4.430000</speed>
</trkpt>
<trkpt lat="55.746799" lon="26.043432">
<ele>159.838013</ele>
<time>2010-07-17T17:50:20Z</time>
<desc>lat.=55.746799, lon.=26.043432, Alt.=159.838013m. Speed=16.884001m/h.</desc>
<speed>4.690000</speed>
</trkpt>
<trkpt lat="55.746773" lon="26.043495">
<ele>159.935669</ele>
<time>2010-07-17T17:50:21Z</time>
<desc>lat.=55.746773, lon.=26.043495, Alt.=159.935669m. Speed=17.028000m/h.</desc>
<speed>4.730000</speed>
</trkpt>
<trkpt lat="55.746750" lon="26.043556">
<ele>160.052856</ele>
<time>2010-07-17T17:50:22Z</time>
<desc>lat.=55.746750, lon.=26.043556, Alt.=160.052856m. Speed=15.804000m/h.</desc>
<speed>4.390000</speed>
</trkpt>
<trkpt lat="55.746731" lon="26.043615">
<ele>159.912231</ele>
<time>2010-07-17T17:50:23Z</time>
<desc>lat.=55.746731, lon.=26.043615, Alt.=159.912231m. Speed=15.048000m/h.</desc>
<speed>4.180000</speed>
</trkpt>
<trkpt lat="55.746712" lon="26.043674">
<ele>159.779419</ele>
<time>2010-07-17T17:50:24Z</time>
<desc>lat.=55.746712, lon.=26.043674, Alt.=159.779419m. Speed=15.840000m/h.</desc>
<speed>4.400000</speed>
</trkpt>
<trkpt lat="55.746693" lon="26.043734">
<ele>159.670044</ele>
<time>2010-07-17T17:50:25Z</time>
<desc>lat.=55.746693, lon.=26.043734, Alt.=159.670044m. Speed=15.444000m/h.</desc>
<speed>4.290000</speed>
</trkpt>
<trkpt lat="55.746674" lon="26.043798">
<ele>159.634888</ele>
<time>2010-07-17T17:50:26Z</time>
<desc>lat.=55.746674, lon.=26.043798, Alt.=159.634888m. Speed=15.948000m/h.</desc>
<speed>4.430000</speed>
</trkpt>
<trkpt lat="55.746655" lon="26.043869">
<ele>159.470825</ele>
<time>2010-07-17T17:50:27Z</time>
<desc>lat.=55.746655, lon.=26.043869, Alt.=159.470825m. Speed=19.728001m/h.</desc>
<speed>5.480000</speed>
</trkpt>
<trkpt lat="55.746635" lon="26.043943">
<ele>159.240356</ele>
<time>2010-07-17T17:50:28Z</time>
<desc>lat.=55.746635, lon.=26.043943, Alt.=159.240356m. Speed=19.260000m/h.</desc>
<speed>5.350000</speed>
</trkpt>
<trkpt lat="55.746616" lon="26.044018">
<ele>159.302856</ele>
<time>2010-07-17T17:50:29Z</time>
<desc>lat.=55.746616, lon.=26.044018, Alt.=159.302856m. Speed=18.072001m/h.</desc>
<speed>5.020000</speed>
</trkpt>
<trkpt lat="55.746586" lon="26.044085">
<ele>158.826294</ele>
<time>2010-07-17T17:50:30Z</time>
<desc>lat.=55.746586, lon.=26.044085, Alt.=158.826294m. Speed=15.588000m/h.</desc>
<speed>4.330000</speed>
</trkpt>
<trkpt lat="55.746555" lon="26.044142">
<ele>158.455200</ele>
<time>2010-07-17T17:50:31Z</time>
<desc>lat.=55.746555, lon.=26.044142, Alt.=158.455200m. Speed=17.712000m/h.</desc>
<speed>4.920000</speed>
</trkpt>
<trkpt lat="55.746525" lon="26.044193">
<ele>157.595825</ele>
<time>2010-07-17T17:50:32Z</time>
<desc>lat.=55.746525, lon.=26.044193, Alt.=157.595825m. Speed=12.960000m/h.</desc>
<speed>3.600000</speed>
</trkpt>
<trkpt lat="55.746502" lon="26.044241">
<ele>157.025513</ele>
<time>2010-07-17T17:50:33Z</time>
<desc>lat.=55.746502, lon.=26.044241, Alt.=157.025513m. Speed=14.436000m/h.</desc>
<speed>4.010000</speed>
</trkpt>
<trkpt lat="55.746475" lon="26.044285">
<ele>157.478638</ele>
<time>2010-07-17T17:50:34Z</time>
<desc>lat.=55.746475, lon.=26.044285, Alt.=157.478638m. Speed=13.968000m/h.</desc>
<speed>3.880000</speed>
</trkpt>
<trkpt lat="55.746441" lon="26.044304">
<ele>156.380981</ele>
<time>2010-07-17T17:50:35Z</time>
<desc>lat.=55.746441, lon.=26.044304, Alt.=156.380981m. Speed=15.048000m/h.</desc>
<speed>4.180000</speed>
</trkpt>
<trkpt lat="55.746414" lon="26.044323">
<ele>156.802856</ele>
<time>2010-07-17T17:50:36Z</time>
<desc>lat.=55.746414, lon.=26.044323, Alt.=156.802856m. Speed=11.484000m/h.</desc>
<speed>3.190000</speed>
</trkpt>
<trkpt lat="55.746384" lon="26.044327">
<ele>156.900513</ele>
<time>2010-07-17T17:50:37Z</time>
<desc>lat.=55.746384, lon.=26.044327, Alt.=156.900513m. Speed=10.980000m/h.</desc>
<speed>3.050000</speed>
</trkpt>
<trkpt lat="55.746357" lon="26.044333">
<ele>157.130981</ele>
<time>2010-07-17T17:50:38Z</time>
<desc>lat.=55.746357, lon.=26.044333, Alt.=157.130981m. Speed=12.096000m/h.</desc>
<speed>3.360000</speed>
</trkpt>
<trkpt lat="55.746319" lon="26.044342">
<ele>157.576294</ele>
<time>2010-07-17T17:50:39Z</time>
<desc>lat.=55.746319, lon.=26.044342, Alt.=157.576294m. Speed=14.472000m/h.</desc>
<speed>4.020000</speed>
</trkpt>
<trkpt lat="55.746281" lon="26.044363">
<ele>157.861450</ele>
<time>2010-07-17T17:50:40Z</time>
<desc>lat.=55.746281, lon.=26.044363, Alt.=157.861450m. Speed=14.400000m/h.</desc>
<speed>4.000000</speed>
</trkpt>
<trkpt lat="55.746231" lon="26.044380">
<ele>157.099731</ele>
<time>2010-07-17T17:50:41Z</time>
<desc>lat.=55.746231, lon.=26.044380, Alt.=157.099731m. Speed=16.091999m/h.</desc>
<speed>4.470000</speed>
</trkpt>
<trkpt lat="55.746185" lon="26.044384">
<ele>157.084106</ele>
<time>2010-07-17T17:50:42Z</time>
<desc>lat.=55.746185, lon.=26.044384, Alt.=157.084106m. Speed=17.280001m/h.</desc>
<speed>4.800000</speed>
</trkpt>
<trkpt lat="55.746136" lon="26.044394">
<ele>156.353638</ele>
<time>2010-07-17T17:50:43Z</time>
<desc>lat.=55.746136, lon.=26.044394, Alt.=156.353638m. Speed=16.379999m/h.</desc>
<speed>4.550000</speed>
</trkpt>
<trkpt lat="55.746090" lon="26.044403">
<ele>156.556763</ele>
<time>2010-07-17T17:50:44Z</time>
<desc>lat.=55.746090, lon.=26.044403, Alt.=156.556763m. Speed=15.732000m/h.</desc>
<speed>4.370000</speed>
</trkpt>
<trkpt lat="55.746044" lon="26.044413">
<ele>156.826294</ele>
<time>2010-07-17T17:50:45Z</time>
<desc>lat.=55.746044, lon.=26.044413, Alt.=156.826294m. Speed=16.955999m/h.</desc>
<speed>4.710000</speed>
</trkpt>
<trkpt lat="55.745995" lon="26.044422">
<ele>157.002075</ele>
<time>2010-07-17T17:50:46Z</time>
<desc>lat.=55.745995, lon.=26.044422, Alt.=157.002075m. Speed=18.288000m/h.</desc>
<speed>5.080000</speed>
</trkpt>
<trkpt lat="55.745949" lon="26.044426">
<ele>157.033325</ele>
<time>2010-07-17T17:50:47Z</time>
<desc>lat.=55.745949, lon.=26.044426, Alt.=157.033325m. Speed=20.591999m/h.</desc>
<speed>5.720000</speed>
</trkpt>
<trkpt lat="55.745892" lon="26.044436">
<ele>157.162231</ele>
<time>2010-07-17T17:50:48Z</time>
<desc>lat.=55.745892, lon.=26.044436, Alt.=157.162231m. Speed=19.980000m/h.</desc>
<speed>5.550000</speed>
</trkpt>
<trkpt lat="55.745842" lon="26.044443">
<ele>157.060669</ele>
<time>2010-07-17T17:50:49Z</time>
<desc>lat.=55.745842, lon.=26.044443, Alt.=157.060669m. Speed=19.260000m/h.</desc>
<speed>5.350000</speed>
</trkpt>
<trkpt lat="55.745796" lon="26.044456">
<ele>156.990356</ele>
<time>2010-07-17T17:50:50Z</time>
<desc>lat.=55.745796, lon.=26.044456, Alt.=156.990356m. Speed=18.035999m/h.</desc>
<speed>5.010000</speed>
</trkpt>
<trkpt lat="55.745750" lon="26.044464">
<ele>157.408325</ele>
<time>2010-07-17T17:50:51Z</time>
<desc>lat.=55.745750, lon.=26.044464, Alt.=157.408325m. Speed=18.108000m/h.</desc>
<speed>5.030000</speed>
</trkpt>
<trkpt lat="55.745705" lon="26.044468">
<ele>158.052856</ele>
<time>2010-07-17T17:50:52Z</time>
<desc>lat.=55.745705, lon.=26.044468, Alt.=158.052856m. Speed=18.252001m/h.</desc>
<speed>5.070000</speed>
</trkpt>
<trkpt lat="55.745655" lon="26.044472">
<ele>158.701294</ele>
<time>2010-07-17T17:50:53Z</time>
<desc>lat.=55.745655, lon.=26.044472, Alt.=158.701294m. Speed=19.548000m/h.</desc>
<speed>5.430000</speed>
</trkpt>
<trkpt lat="55.745602" lon="26.044472">
<ele>159.427856</ele>
<time>2010-07-17T17:50:54Z</time>
<desc>lat.=55.745602, lon.=26.044472, Alt.=159.427856m. Speed=21.888000m/h.</desc>
<speed>6.080000</speed>
</trkpt>
<trkpt lat="55.745544" lon="26.044468">
<ele>160.064575</ele>
<time>2010-07-17T17:50:55Z</time>
<desc>lat.=55.745544, lon.=26.044468, Alt.=160.064575m. Speed=20.195999m/h.</desc>
<speed>5.610000</speed>
</trkpt>
<trkpt lat="55.745480" lon="26.044470">
<ele>161.189575</ele>
<time>2010-07-17T17:50:56Z</time>
<desc>lat.=55.745480, lon.=26.044470, Alt.=161.189575m. Speed=22.284000m/h.</desc>
<speed>6.190000</speed>
</trkpt>
<trkpt lat="55.745411" lon="26.044506">
<ele>161.584106</ele>
<time>2010-07-17T17:50:57Z</time>
<desc>lat.=55.745411, lon.=26.044506, Alt.=161.584106m. Speed=19.944000m/h.</desc>
<speed>5.540000</speed>
</trkpt>
<trkpt lat="55.745350" lon="26.044518">
<ele>161.709106</ele>
<time>2010-07-17T17:50:58Z</time>
<desc>lat.=55.745350, lon.=26.044518, Alt.=161.709106m. Speed=19.511999m/h.</desc>
<speed>5.420000</speed>
</trkpt>
<trkpt lat="55.745289" lon="26.044519">
<ele>161.775513</ele>
<time>2010-07-17T17:50:59Z</time>
<desc>lat.=55.745289, lon.=26.044519, Alt.=161.775513m. Speed=20.052000m/h.</desc>
<speed>5.570000</speed>
</trkpt>
<trkpt lat="55.745239" lon="26.044538">
<ele>162.123169</ele>
<time>2010-07-17T17:51:00Z</time>
<desc>lat.=55.745239, lon.=26.044538, Alt.=162.123169m. Speed=20.232000m/h.</desc>
<speed>5.620000</speed>
</trkpt>
<trkpt lat="55.745186" lon="26.044548">
<ele>162.435669</ele>
<time>2010-07-17T17:51:01Z</time>
<desc>lat.=55.745186, lon.=26.044548, Alt.=162.435669m. Speed=19.403999m/h.</desc>
<speed>5.390000</speed>
</trkpt>
<trkpt lat="55.745117" lon="26.044575">
<ele>162.384888</ele>
<time>2010-07-17T17:51:02Z</time>
<desc>lat.=55.745117, lon.=26.044575, Alt.=162.384888m. Speed=18.323999m/h.</desc>
<speed>5.090000</speed>
</trkpt>
<trkpt lat="55.745064" lon="26.044601">
<ele>162.380981</ele>
<time>2010-07-17T17:51:03Z</time>
<desc>lat.=55.745064, lon.=26.044601, Alt.=162.380981m. Speed=18.143999m/h.</desc>
<speed>5.040000</speed>
</trkpt>
<trkpt lat="55.745003" lon="26.044611">
<ele>162.384888</ele>
<time>2010-07-17T17:51:04Z</time>
<desc>lat.=55.745003, lon.=26.044611, Alt.=162.384888m. Speed=20.628000m/h.</desc>
<speed>5.730000</speed>
</trkpt>
<trkpt lat="55.744946" lon="26.044636">
<ele>162.556763</ele>
<time>2010-07-17T17:51:05Z</time>
<desc>lat.=55.744946, lon.=26.044636, Alt.=162.556763m. Speed=16.596001m/h.</desc>
<speed>4.610000</speed>
</trkpt>
<trkpt lat="55.744907" lon="26.044647">
<ele>162.927856</ele>
<time>2010-07-17T17:51:06Z</time>
<desc>lat.=55.744907, lon.=26.044647, Alt.=162.927856m. Speed=11.736000m/h.</desc>
<speed>3.260000</speed>
</trkpt>
<trkpt lat="55.744873" lon="26.044659">
<ele>163.283325</ele>
<time>2010-07-17T17:51:07Z</time>
<desc>lat.=55.744873, lon.=26.044659, Alt.=163.283325m. Speed=11.880000m/h.</desc>
<speed>3.300000</speed>
</trkpt>
<trkpt lat="55.744839" lon="26.044678">
<ele>163.400513</ele>
<time>2010-07-17T17:51:08Z</time>
<desc>lat.=55.744839, lon.=26.044678, Alt.=163.400513m. Speed=12.312000m/h.</desc>
<speed>3.420000</speed>
</trkpt>
<trkpt lat="55.744801" lon="26.044708">
<ele>163.060669</ele>
<time>2010-07-17T17:51:09Z</time>
<desc>lat.=55.744801, lon.=26.044708, Alt.=163.060669m. Speed=11.304000m/h.</desc>
<speed>3.140000</speed>
</trkpt>
<trkpt lat="55.744759" lon="26.044748">
<ele>162.349731</ele>
<time>2010-07-17T17:51:10Z</time>
<desc>lat.=55.744759, lon.=26.044748, Alt.=162.349731m. Speed=13.428000m/h.</desc>
<speed>3.730000</speed>
</trkpt>
<trkpt lat="55.744720" lon="26.044769">
<ele>162.025513</ele>
<time>2010-07-17T17:51:11Z</time>
<desc>lat.=55.744720, lon.=26.044769, Alt.=162.025513m. Speed=13.068000m/h.</desc>
<speed>3.630000</speed>
</trkpt>
<trkpt lat="55.744682" lon="26.044788">
<ele>161.638794</ele>
<time>2010-07-17T17:51:12Z</time>
<desc>lat.=55.744682, lon.=26.044788, Alt.=161.638794m. Speed=14.508000m/h.</desc>
<speed>4.030000</speed>
</trkpt>
<trkpt lat="55.744640" lon="26.044807">
<ele>161.443481</ele>
<time>2010-07-17T17:51:13Z</time>
<desc>lat.=55.744640, lon.=26.044807, Alt.=161.443481m. Speed=13.284000m/h.</desc>
<speed>3.690000</speed>
</trkpt>
<trkpt lat="55.744602" lon="26.044819">
<ele>161.318481</ele>
<time>2010-07-17T17:51:14Z</time>
<desc>lat.=55.744602, lon.=26.044819, Alt.=161.318481m. Speed=12.528000m/h.</desc>
<speed>3.480000</speed>
</trkpt>
<trkpt lat="55.744560" lon="26.044834">
<ele>161.267700</ele>
<time>2010-07-17T17:51:15Z</time>
<desc>lat.=55.744560, lon.=26.044834, Alt.=161.267700m. Speed=15.156000m/h.</desc>
<speed>4.210000</speed>
</trkpt>
<trkpt lat="55.744503" lon="26.044863">
<ele>161.107544</ele>
<time>2010-07-17T17:51:16Z</time>
<desc>lat.=55.744503, lon.=26.044863, Alt.=161.107544m. Speed=17.028000m/h.</desc>
<speed>4.730000</speed>
</trkpt>
<trkpt lat="55.744457" lon="26.044874">
<ele>160.916138</ele>
<time>2010-07-17T17:51:17Z</time>
<desc>lat.=55.744457, lon.=26.044874, Alt.=160.916138m. Speed=17.172001m/h.</desc>
<speed>4.770000</speed>
</trkpt>
<trkpt lat="55.744404" lon="26.044886">
<ele>160.498169</ele>
<time>2010-07-17T17:51:18Z</time>
<desc>lat.=55.744404, lon.=26.044886, Alt.=160.498169m. Speed=16.704000m/h.</desc>
<speed>4.640000</speed>
</trkpt>
<trkpt lat="55.744358" lon="26.044899">
<ele>160.115356</ele>
<time>2010-07-17T17:51:19Z</time>
<desc>lat.=55.744358, lon.=26.044899, Alt.=160.115356m. Speed=15.768000m/h.</desc>
<speed>4.380000</speed>
</trkpt>
<trkpt lat="55.744308" lon="26.044924">
<ele>159.634888</ele>
<time>2010-07-17T17:51:20Z</time>
<desc>lat.=55.744308, lon.=26.044924, Alt.=159.634888m. Speed=15.300000m/h.</desc>
<speed>4.250000</speed>
</trkpt>
<trkpt lat="55.744263" lon="26.044949">
<ele>159.564575</ele>
<time>2010-07-17T17:51:21Z</time>
<desc>lat.=55.744263, lon.=26.044949, Alt.=159.564575m. Speed=12.960000m/h.</desc>
<speed>3.600000</speed>
</trkpt>
<trkpt lat="55.744228" lon="26.044968">
<ele>159.490356</ele>
<time>2010-07-17T17:51:22Z</time>
<desc>lat.=55.744228, lon.=26.044968, Alt.=159.490356m. Speed=11.808000m/h.</desc>
<speed>3.280000</speed>
</trkpt>
<trkpt lat="55.744194" lon="26.044987">
<ele>159.420044</ele>
<time>2010-07-17T17:51:23Z</time>
<desc>lat.=55.744194, lon.=26.044987, Alt.=159.420044m. Speed=10.296000m/h.</desc>
<speed>2.860000</speed>
</trkpt>
<trkpt lat="55.744160" lon="26.044983">
<ele>159.314575</ele>
<time>2010-07-17T17:51:24Z</time>
<desc>lat.=55.744160, lon.=26.044983, Alt.=159.314575m. Speed=8.928000m/h.</desc>
<speed>2.480000</speed>
</trkpt>
<trkpt lat="55.744129" lon="26.044983">
<ele>159.181763</ele>
<time>2010-07-17T17:51:25Z</time>
<desc>lat.=55.744129, lon.=26.044983, Alt.=159.181763m. Speed=9.216000m/h.</desc>
<speed>2.560000</speed>
</trkpt>
<trkpt lat="55.744095" lon="26.044971">
<ele>158.939575</ele>
<time>2010-07-17T17:51:26Z</time>
<desc>lat.=55.744095, lon.=26.044971, Alt.=158.939575m. Speed=8.712000m/h.</desc>
<speed>2.420000</speed>
</trkpt>
<trkpt lat="55.744061" lon="26.044962">
<ele>158.634888</ele>
<time>2010-07-17T17:51:27Z</time>
<desc>lat.=55.744061, lon.=26.044962, Alt.=158.634888m. Speed=9.540000m/h.</desc>
<speed>2.650000</speed>
</trkpt>
<trkpt lat="55.744026" lon="26.044968">
<ele>158.400513</ele>
<time>2010-07-17T17:51:28Z</time>
<desc>lat.=55.744026, lon.=26.044968, Alt.=158.400513m. Speed=9.504000m/h.</desc>
<speed>2.640000</speed>
</trkpt>
<trkpt lat="55.744003" lon="26.044970">
<ele>158.142700</ele>
<time>2010-07-17T17:51:29Z</time>
<desc>lat.=55.744003, lon.=26.044970, Alt.=158.142700m. Speed=6.300000m/h.</desc>
<speed>1.750000</speed>
</trkpt>
<trkpt lat="55.743958" lon="26.044991">
<ele>157.615356</ele>
<time>2010-07-17T17:51:30Z</time>
<desc>lat.=55.743958, lon.=26.044991, Alt.=157.615356m. Speed=8.208000m/h.</desc>
<speed>2.280000</speed>
</trkpt>
<trkpt lat="55.743935" lon="26.044994">
<ele>157.490356</ele>
<time>2010-07-17T17:51:31Z</time>
<desc>lat.=55.743935, lon.=26.044994, Alt.=157.490356m. Speed=7.092000m/h.</desc>
<speed>1.970000</speed>
</trkpt>
<trkpt lat="55.743904" lon="26.045008">
<ele>157.209106</ele>
<time>2010-07-17T17:51:32Z</time>
<desc>lat.=55.743904, lon.=26.045008, Alt.=157.209106m. Speed=5.760000m/h.</desc>
<speed>1.600000</speed>
</trkpt>
<trkpt lat="55.743874" lon="26.045021">
<ele>156.998169</ele>
<time>2010-07-17T17:51:33Z</time>
<desc>lat.=55.743874, lon.=26.045021, Alt.=156.998169m. Speed=9.576000m/h.</desc>
<speed>2.660000</speed>
</trkpt>
<trkpt lat="55.743851" lon="26.045027">
<ele>156.767700</ele>
<time>2010-07-17T17:51:34Z</time>
<desc>lat.=55.743851, lon.=26.045027, Alt.=156.767700m. Speed=9.648000m/h.</desc>
<speed>2.680000</speed>
</trkpt>
<trkpt lat="55.743820" lon="26.045036">
<ele>156.353638</ele>
<time>2010-07-17T17:51:35Z</time>
<desc>lat.=55.743820, lon.=26.045036, Alt.=156.353638m. Speed=9.504000m/h.</desc>
<speed>2.640000</speed>
</trkpt>
<trkpt lat="55.743793" lon="26.045040">
<ele>156.056763</ele>
<time>2010-07-17T17:51:36Z</time>
<desc>lat.=55.743793, lon.=26.045040, Alt.=156.056763m. Speed=8.280000m/h.</desc>
<speed>2.300000</speed>
</trkpt>
<trkpt lat="55.743774" lon="26.045046">
<ele>155.713013</ele>
<time>2010-07-17T17:51:37Z</time>
<desc>lat.=55.743774, lon.=26.045046, Alt.=155.713013m. Speed=7.416000m/h.</desc>
<speed>2.060000</speed>
</trkpt>
<trkpt lat="55.743744" lon="26.045057">
<ele>154.986450</ele>
<time>2010-07-17T17:51:38Z</time>
<desc>lat.=55.743744, lon.=26.045057, Alt.=154.986450m. Speed=8.892000m/h.</desc>
<speed>2.470000</speed>
</trkpt>
<trkpt lat="55.743721" lon="26.045059">
<ele>154.814575</ele>
<time>2010-07-17T17:51:39Z</time>
<desc>lat.=55.743721, lon.=26.045059, Alt.=154.814575m. Speed=9.288000m/h.</desc>
<speed>2.580000</speed>
</trkpt>
<trkpt lat="55.743694" lon="26.045067">
<ele>154.369263</ele>
<time>2010-07-17T17:51:40Z</time>
<desc>lat.=55.743694, lon.=26.045067, Alt.=154.369263m. Speed=9.612000m/h.</desc>
<speed>2.670000</speed>
</trkpt>
<trkpt lat="55.743664" lon="26.045078">
<ele>154.170044</ele>
<time>2010-07-17T17:51:41Z</time>
<desc>lat.=55.743664, lon.=26.045078, Alt.=154.170044m. Speed=7.308000m/h.</desc>
<speed>2.030000</speed>
</trkpt>
<trkpt lat="55.743645" lon="26.045094">
<ele>154.232544</ele>
<time>2010-07-17T17:51:42Z</time>
<desc>lat.=55.743645, lon.=26.045094, Alt.=154.232544m. Speed=8.064000m/h.</desc>
<speed>2.240000</speed>
</trkpt>
<trkpt lat="55.743614" lon="26.045107">
<ele>152.736450</ele>
<time>2010-07-17T17:51:43Z</time>
<desc>lat.=55.743614, lon.=26.045107, Alt.=152.736450m. Speed=8.964000m/h.</desc>
<speed>2.490000</speed>
</trkpt>
<trkpt lat="55.743587" lon="26.045118">
<ele>153.072388</ele>
<time>2010-07-17T17:51:44Z</time>
<desc>lat.=55.743587, lon.=26.045118, Alt.=153.072388m. Speed=13.824000m/h.</desc>
<speed>3.840000</speed>
</trkpt>
<trkpt lat="55.743565" lon="26.045124">
<ele>154.025513</ele>
<time>2010-07-17T17:51:45Z</time>
<desc>lat.=55.743565, lon.=26.045124, Alt.=154.025513m. Speed=8.676000m/h.</desc>
<speed>2.410000</speed>
</trkpt>
<trkpt lat="55.743546" lon="26.045128">
<ele>153.818481</ele>
<time>2010-07-17T17:51:46Z</time>
<desc>lat.=55.743546, lon.=26.045128, Alt.=153.818481m. Speed=8.028000m/h.</desc>
<speed>2.230000</speed>
</trkpt>
<trkpt lat="55.743523" lon="26.045132">
<ele>153.689575</ele>
<time>2010-07-17T17:51:47Z</time>
<desc>lat.=55.743523, lon.=26.045132, Alt.=153.689575m. Speed=8.820000m/h.</desc>
<speed>2.450000</speed>
</trkpt>
<trkpt lat="55.743504" lon="26.045143">
<ele>153.486450</ele>
<time>2010-07-17T17:51:48Z</time>
<desc>lat.=55.743504, lon.=26.045143, Alt.=153.486450m. Speed=8.352000m/h.</desc>
<speed>2.320000</speed>
</trkpt>
<trkpt lat="55.743477" lon="26.045160">
<ele>153.939575</ele>
<time>2010-07-17T17:51:49Z</time>
<desc>lat.=55.743477, lon.=26.045160, Alt.=153.939575m. Speed=10.512000m/h.</desc>
<speed>2.920000</speed>
</trkpt>
<trkpt lat="55.743454" lon="26.045177">
<ele>154.841919</ele>
<time>2010-07-17T17:51:50Z</time>
<desc>lat.=55.743454, lon.=26.045177, Alt.=154.841919m. Speed=9.288000m/h.</desc>
<speed>2.580000</speed>
</trkpt>
<trkpt lat="55.743423" lon="26.045193">
<ele>156.650513</ele>
<time>2010-07-17T17:51:51Z</time>
<desc>lat.=55.743423, lon.=26.045193, Alt.=156.650513m. Speed=10.476000m/h.</desc>
<speed>2.910000</speed>
</trkpt>
<trkpt lat="55.743401" lon="26.045218">
<ele>158.838013</ele>
<time>2010-07-17T17:51:52Z</time>
<desc>lat.=55.743401, lon.=26.045218, Alt.=158.838013m. Speed=8.604000m/h.</desc>
<speed>2.390000</speed>
</trkpt>
<trkpt lat="55.743378" lon="26.045225">
<ele>160.490356</ele>
<time>2010-07-17T17:51:53Z</time>
<desc>lat.=55.743378, lon.=26.045225, Alt.=160.490356m. Speed=8.136000m/h.</desc>
<speed>2.260000</speed>
</trkpt>
<trkpt lat="55.743355" lon="26.045233">
<ele>160.986450</ele>
<time>2010-07-17T17:51:54Z</time>
<desc>lat.=55.743355, lon.=26.045233, Alt.=160.986450m. Speed=8.316000m/h.</desc>
<speed>2.310000</speed>
</trkpt>
<trkpt lat="55.743328" lon="26.045242">
<ele>162.310669</ele>
<time>2010-07-17T17:51:55Z</time>
<desc>lat.=55.743328, lon.=26.045242, Alt.=162.310669m. Speed=8.964000m/h.</desc>
<speed>2.490000</speed>
</trkpt>
<trkpt lat="55.743298" lon="26.045252">
<ele>162.689575</ele>
<time>2010-07-17T17:51:56Z</time>
<desc>lat.=55.743298, lon.=26.045252, Alt.=162.689575m. Speed=11.052000m/h.</desc>
<speed>3.070000</speed>
</trkpt>
<trkpt lat="55.743259" lon="26.045259">
<ele>162.869263</ele>
<time>2010-07-17T17:51:57Z</time>
<desc>lat.=55.743259, lon.=26.045259, Alt.=162.869263m. Speed=12.024000m/h.</desc>
<speed>3.340000</speed>
</trkpt>
<trkpt lat="55.743225" lon="26.045267">
<ele>163.513794</ele>
<time>2010-07-17T17:51:58Z</time>
<desc>lat.=55.743225, lon.=26.045267, Alt.=163.513794m. Speed=10.584000m/h.</desc>
<speed>2.940000</speed>
</trkpt>
<trkpt lat="55.743195" lon="26.045275">
<ele>164.115356</ele>
<time>2010-07-17T17:51:59Z</time>
<desc>lat.=55.743195, lon.=26.045275, Alt.=164.115356m. Speed=11.628000m/h.</desc>
<speed>3.230000</speed>
</trkpt>
<trkpt lat="55.743164" lon="26.045300">
<ele>165.388794</ele>
<time>2010-07-17T17:52:00Z</time>
<desc>lat.=55.743164, lon.=26.045300, Alt.=165.388794m. Speed=11.448000m/h.</desc>
<speed>3.180000</speed>
</trkpt>
<trkpt lat="55.743134" lon="26.045309">
<ele>165.732544</ele>
<time>2010-07-17T17:52:01Z</time>
<desc>lat.=55.743134, lon.=26.045309, Alt.=165.732544m. Speed=13.068000m/h.</desc>
<speed>3.630000</speed>
</trkpt>
<trkpt lat="55.743103" lon="26.045322">
<ele>165.986450</ele>
<time>2010-07-17T17:52:02Z</time>
<desc>lat.=55.743103, lon.=26.045322, Alt.=165.986450m. Speed=13.608000m/h.</desc>
<speed>3.780000</speed>
</trkpt>
<trkpt lat="55.743069" lon="26.045332">
<ele>166.248169</ele>
<time>2010-07-17T17:52:03Z</time>
<desc>lat.=55.743069, lon.=26.045332, Alt.=166.248169m. Speed=15.084000m/h.</desc>
<speed>4.190000</speed>
</trkpt>
<trkpt lat="55.743034" lon="26.045341">
<ele>167.416138</ele>
<time>2010-07-17T17:52:04Z</time>
<desc>lat.=55.743034, lon.=26.045341, Alt.=167.416138m. Speed=13.932000m/h.</desc>
<speed>3.870000</speed>
</trkpt>
<trkpt lat="55.743000" lon="26.045351">
<ele>167.873169</ele>
<time>2010-07-17T17:52:05Z</time>
<desc>lat.=55.743000, lon.=26.045351, Alt.=167.873169m. Speed=13.644000m/h.</desc>
<speed>3.790000</speed>
</trkpt>
<trkpt lat="55.742958" lon="26.045355">
<ele>167.990356</ele>
<time>2010-07-17T17:52:06Z</time>
<desc>lat.=55.742958, lon.=26.045355, Alt.=167.990356m. Speed=14.616000m/h.</desc>
<speed>4.060000</speed>
</trkpt>
<trkpt lat="55.742916" lon="26.045364">
<ele>168.459106</ele>
<time>2010-07-17T17:52:07Z</time>
<desc>lat.=55.742916, lon.=26.045364, Alt.=168.459106m. Speed=15.048000m/h.</desc>
<speed>4.180000</speed>
</trkpt>
<trkpt lat="55.742878" lon="26.045368">
<ele>169.088013</ele>
<time>2010-07-17T17:52:08Z</time>
<desc>lat.=55.742878, lon.=26.045368, Alt.=169.088013m. Speed=14.976000m/h.</desc>
<speed>4.160000</speed>
</trkpt>
<trkpt lat="55.742836" lon="26.045362">
<ele>168.236450</ele>
<time>2010-07-17T17:52:09Z</time>
<desc>lat.=55.742836, lon.=26.045362, Alt.=168.236450m. Speed=17.136000m/h.</desc>
<speed>4.760000</speed>
</trkpt>
<trkpt lat="55.742786" lon="26.045370">
<ele>167.830200</ele>
<time>2010-07-17T17:52:10Z</time>
<desc>lat.=55.742786, lon.=26.045370, Alt.=167.830200m. Speed=16.379999m/h.</desc>
<speed>4.550000</speed>
</trkpt>
<trkpt lat="55.742741" lon="26.045385">
<ele>168.369263</ele>
<time>2010-07-17T17:52:11Z</time>
<desc>lat.=55.742741, lon.=26.045385, Alt.=168.369263m. Speed=17.604000m/h.</desc>
<speed>4.890000</speed>
</trkpt>
<trkpt lat="55.742687" lon="26.045399">
<ele>169.025513</ele>
<time>2010-07-17T17:52:12Z</time>
<desc>lat.=55.742687, lon.=26.045399, Alt.=169.025513m. Speed=18.468000m/h.</desc>
<speed>5.130000</speed>
</trkpt>
<trkpt lat="55.742641" lon="26.045404">
<ele>169.025513</ele>
<time>2010-07-17T17:52:13Z</time>
<desc>lat.=55.742641, lon.=26.045404, Alt.=169.025513m. Speed=18.323999m/h.</desc>
<speed>5.090000</speed>
</trkpt>
<trkpt lat="55.742596" lon="26.045418">
<ele>169.146606</ele>
<time>2010-07-17T17:52:14Z</time>
<desc>lat.=55.742596, lon.=26.045418, Alt.=169.146606m. Speed=18.431999m/h.</desc>
<speed>5.120000</speed>
</trkpt>
<trkpt lat="55.742538" lon="26.045431">
<ele>168.658325</ele>
<time>2010-07-17T17:52:15Z</time>
<desc>lat.=55.742538, lon.=26.045431, Alt.=168.658325m. Speed=17.712000m/h.</desc>
<speed>4.920000</speed>
</trkpt>
<trkpt lat="55.742489" lon="26.045437">
<ele>168.502075</ele>
<time>2010-07-17T17:52:16Z</time>
<desc>lat.=55.742489, lon.=26.045437, Alt.=168.502075m. Speed=18.035999m/h.</desc>
<speed>5.010000</speed>
</trkpt>
<trkpt lat="55.742439" lon="26.045439">
<ele>168.084106</ele>
<time>2010-07-17T17:52:17Z</time>
<desc>lat.=55.742439, lon.=26.045439, Alt.=168.084106m. Speed=16.812000m/h.</desc>
<speed>4.670000</speed>
</trkpt>
<trkpt lat="55.742386" lon="26.045435">
<ele>167.838013</ele>
<time>2010-07-17T17:52:18Z</time>
<desc>lat.=55.742386, lon.=26.045435, Alt.=167.838013m. Speed=18.431999m/h.</desc>
<speed>5.120000</speed>
</trkpt>
<trkpt lat="55.742340" lon="26.045431">
<ele>167.619263</ele>
<time>2010-07-17T17:52:19Z</time>
<desc>lat.=55.742340, lon.=26.045431, Alt.=167.619263m. Speed=17.676001m/h.</desc>
<speed>4.910000</speed>
</trkpt>
<trkpt lat="55.742294" lon="26.045433">
<ele>167.693481</ele>
<time>2010-07-17T17:52:20Z</time>
<desc>lat.=55.742294, lon.=26.045433, Alt.=167.693481m. Speed=17.820000m/h.</desc>
<speed>4.950000</speed>
</trkpt>
<trkpt lat="55.742249" lon="26.045433">
<ele>167.517700</ele>
<time>2010-07-17T17:52:21Z</time>
<desc>lat.=55.742249, lon.=26.045433, Alt.=167.517700m. Speed=20.304001m/h.</desc>
<speed>5.640000</speed>
</trkpt>
<trkpt lat="55.742191" lon="26.045435">
<ele>167.224731</ele>
<time>2010-07-17T17:52:22Z</time>
<desc>lat.=55.742191, lon.=26.045435, Alt.=167.224731m. Speed=19.691999m/h.</desc>
<speed>5.470000</speed>
</trkpt>
<trkpt lat="55.742138" lon="26.045433">
<ele>165.783325</ele>
<time>2010-07-17T17:52:23Z</time>
<desc>lat.=55.742138, lon.=26.045433, Alt.=165.783325m. Speed=19.403999m/h.</desc>
<speed>5.390000</speed>
</trkpt>
<trkpt lat="55.742088" lon="26.045433">
<ele>165.213013</ele>
<time>2010-07-17T17:52:24Z</time>
<desc>lat.=55.742088, lon.=26.045433, Alt.=165.213013m. Speed=19.476000m/h.</desc>
<speed>5.410000</speed>
</trkpt>
<trkpt lat="55.742035" lon="26.045429">
<ele>164.459106</ele>
<time>2010-07-17T17:52:25Z</time>
<desc>lat.=55.742035, lon.=26.045429, Alt.=164.459106m. Speed=20.664000m/h.</desc>
<speed>5.740000</speed>
</trkpt>
<trkpt lat="55.741974" lon="26.045424">
<ele>164.322388</ele>
<time>2010-07-17T17:52:26Z</time>
<desc>lat.=55.741974, lon.=26.045424, Alt.=164.322388m. Speed=22.139999m/h.</desc>
<speed>6.150000</speed>
</trkpt>
<trkpt lat="55.741913" lon="26.045433">
<ele>161.232544</ele>
<time>2010-07-17T17:52:27Z</time>
<desc>lat.=55.741913, lon.=26.045433, Alt.=161.232544m. Speed=20.988001m/h.</desc>
<speed>5.830000</speed>
</trkpt>
<trkpt lat="55.741863" lon="26.045429">
<ele>160.861450</ele>
<time>2010-07-17T17:52:28Z</time>
<desc>lat.=55.741863, lon.=26.045429, Alt.=160.861450m. Speed=19.620001m/h.</desc>
<speed>5.450000</speed>
</trkpt>
<trkpt lat="55.741810" lon="26.045424">
<ele>160.607544</ele>
<time>2010-07-17T17:52:29Z</time>
<desc>lat.=55.741810, lon.=26.045424, Alt.=160.607544m. Speed=20.340000m/h.</desc>
<speed>5.650000</speed>
</trkpt>
<trkpt lat="55.741760" lon="26.045418">
<ele>160.552856</ele>
<time>2010-07-17T17:52:30Z</time>
<desc>lat.=55.741760, lon.=26.045418, Alt.=160.552856m. Speed=20.304001m/h.</desc>
<speed>5.640000</speed>
</trkpt>
<trkpt lat="55.741711" lon="26.045416">
<ele>160.841919</ele>
<time>2010-07-17T17:52:31Z</time>
<desc>lat.=55.741711, lon.=26.045416, Alt.=160.841919m. Speed=19.332001m/h.</desc>
<speed>5.370000</speed>
</trkpt>
<trkpt lat="55.741665" lon="26.045403">
<ele>161.002075</ele>
<time>2010-07-17T17:52:32Z</time>
<desc>lat.=55.741665, lon.=26.045403, Alt.=161.002075m. Speed=19.403999m/h.</desc>
<speed>5.390000</speed>
</trkpt>
<trkpt lat="55.741619" lon="26.045399">
<ele>161.588013</ele>
<time>2010-07-17T17:52:33Z</time>
<desc>lat.=55.741619, lon.=26.045399, Alt.=161.588013m. Speed=19.908001m/h.</desc>
<speed>5.530000</speed>
</trkpt>
<trkpt lat="55.741573" lon="26.045391">
<ele>161.103638</ele>
<time>2010-07-17T17:52:34Z</time>
<desc>lat.=55.741573, lon.=26.045391, Alt.=161.103638m. Speed=18.323999m/h.</desc>
<speed>5.090000</speed>
</trkpt>
<trkpt lat="55.741528" lon="26.045387">
<ele>160.716919</ele>
<time>2010-07-17T17:52:35Z</time>
<desc>lat.=55.741528, lon.=26.045387, Alt.=160.716919m. Speed=18.143999m/h.</desc>
<speed>5.040000</speed>
</trkpt>
<trkpt lat="55.741486" lon="26.045378">
<ele>161.021606</ele>
<time>2010-07-17T17:52:36Z</time>
<desc>lat.=55.741486, lon.=26.045378, Alt.=161.021606m. Speed=17.639999m/h.</desc>
<speed>4.900000</speed>
</trkpt>
<trkpt lat="55.741444" lon="26.045370">
<ele>160.588013</ele>
<time>2010-07-17T17:52:37Z</time>
<desc>lat.=55.741444, lon.=26.045370, Alt.=160.588013m. Speed=17.927999m/h.</desc>
<speed>4.980000</speed>
</trkpt>
<trkpt lat="55.741402" lon="26.045362">
<ele>160.904419</ele>
<time>2010-07-17T17:52:38Z</time>
<desc>lat.=55.741402, lon.=26.045362, Alt.=160.904419m. Speed=16.488001m/h.</desc>
<speed>4.580000</speed>
</trkpt>
<trkpt lat="55.741364" lon="26.045353">
<ele>161.002075</ele>
<time>2010-07-17T17:52:39Z</time>
<desc>lat.=55.741364, lon.=26.045353, Alt.=161.002075m. Speed=15.840000m/h.</desc>
<speed>4.400000</speed>
</trkpt>
<trkpt lat="55.741322" lon="26.045340">
<ele>160.830200</ele>
<time>2010-07-17T17:52:40Z</time>
<desc>lat.=55.741322, lon.=26.045340, Alt.=160.830200m. Speed=17.280001m/h.</desc>
<speed>4.800000</speed>
</trkpt>
<trkpt lat="55.741280" lon="26.045332">
<ele>160.447388</ele>
<time>2010-07-17T17:52:41Z</time>
<desc>lat.=55.741280, lon.=26.045332, Alt.=160.447388m. Speed=17.964001m/h.</desc>
<speed>4.990000</speed>
</trkpt>
<trkpt lat="55.741238" lon="26.045324">
<ele>159.951294</ele>
<time>2010-07-17T17:52:42Z</time>
<desc>lat.=55.741238, lon.=26.045324, Alt.=159.951294m. Speed=17.496000m/h.</desc>
<speed>4.860000</speed>
</trkpt>
<trkpt lat="55.741196" lon="26.045315">
<ele>159.939575</ele>
<time>2010-07-17T17:52:43Z</time>
<desc>lat.=55.741196, lon.=26.045315, Alt.=159.939575m. Speed=16.164000m/h.</desc>
<speed>4.490000</speed>
</trkpt>
<trkpt lat="55.741154" lon="26.045309">
<ele>159.673950</ele>
<time>2010-07-17T17:52:44Z</time>
<desc>lat.=55.741154, lon.=26.045309, Alt.=159.673950m. Speed=17.172001m/h.</desc>
<speed>4.770000</speed>
</trkpt>
<trkpt lat="55.741116" lon="26.045303">
<ele>159.228638</ele>
<time>2010-07-17T17:52:45Z</time>
<desc>lat.=55.741116, lon.=26.045303, Alt.=159.228638m. Speed=16.128000m/h.</desc>
<speed>4.480000</speed>
</trkpt>
<trkpt lat="55.741074" lon="26.045292">
<ele>159.037231</ele>
<time>2010-07-17T17:52:46Z</time>
<desc>lat.=55.741074, lon.=26.045292, Alt.=159.037231m. Speed=15.804000m/h.</desc>
<speed>4.390000</speed>
</trkpt>
<trkpt lat="55.741032" lon="26.045282">
<ele>159.150513</ele>
<time>2010-07-17T17:52:47Z</time>
<desc>lat.=55.741032, lon.=26.045282, Alt.=159.150513m. Speed=14.652000m/h.</desc>
<speed>4.070000</speed>
</trkpt>
<trkpt lat="55.740986" lon="26.045282">
<ele>158.697388</ele>
<time>2010-07-17T17:52:48Z</time>
<desc>lat.=55.740986, lon.=26.045282, Alt.=158.697388m. Speed=15.552000m/h.</desc>
<speed>4.320000</speed>
</trkpt>
<trkpt lat="55.740944" lon="26.045269">
<ele>158.482544</ele>
<time>2010-07-17T17:52:49Z</time>
<desc>lat.=55.740944, lon.=26.045269, Alt.=158.482544m. Speed=13.608000m/h.</desc>
<speed>3.780000</speed>
</trkpt>
<trkpt lat="55.740906" lon="26.045273">
<ele>158.697388</ele>
<time>2010-07-17T17:52:50Z</time>
<desc>lat.=55.740906, lon.=26.045273, Alt.=158.697388m. Speed=14.796000m/h.</desc>
<speed>4.110000</speed>
</trkpt>
<trkpt lat="55.740864" lon="26.045284">
<ele>159.263794</ele>
<time>2010-07-17T17:52:51Z</time>
<desc>lat.=55.740864, lon.=26.045284, Alt.=159.263794m. Speed=16.667999m/h.</desc>
<speed>4.630000</speed>
</trkpt>
<trkpt lat="55.740818" lon="26.045294">
<ele>159.552856</ele>
<time>2010-07-17T17:52:52Z</time>
<desc>lat.=55.740818, lon.=26.045294, Alt.=159.552856m. Speed=17.172001m/h.</desc>
<speed>4.770000</speed>
</trkpt>
<trkpt lat="55.740765" lon="26.045313">
<ele>159.611450</ele>
<time>2010-07-17T17:52:53Z</time>
<desc>lat.=55.740765, lon.=26.045313, Alt.=159.611450m. Speed=19.260000m/h.</desc>
<speed>5.350000</speed>
</trkpt>
<trkpt lat="55.740715" lon="26.045330">
<ele>160.201294</ele>
<time>2010-07-17T17:52:54Z</time>
<desc>lat.=55.740715, lon.=26.045330, Alt.=160.201294m. Speed=18.108000m/h.</desc>
<speed>5.030000</speed>
</trkpt>
<trkpt lat="55.740669" lon="26.045357">
<ele>160.517700</ele>
<time>2010-07-17T17:52:55Z</time>
<desc>lat.=55.740669, lon.=26.045357, Alt.=160.517700m. Speed=18.072001m/h.</desc>
<speed>5.020000</speed>
</trkpt>
<trkpt lat="55.740627" lon="26.045380">
<ele>160.709106</ele>
<time>2010-07-17T17:52:56Z</time>
<desc>lat.=55.740627, lon.=26.045380, Alt.=160.709106m. Speed=18.000000m/h.</desc>
<speed>5.000000</speed>
</trkpt>
<trkpt lat="55.740585" lon="26.045403">
<ele>160.326294</ele>
<time>2010-07-17T17:52:57Z</time>
<desc>lat.=55.740585, lon.=26.045403, Alt.=160.326294m. Speed=16.559999m/h.</desc>
<speed>4.600000</speed>
</trkpt>
<trkpt lat="55.740540" lon="26.045427">
<ele>159.748169</ele>
<time>2010-07-17T17:52:58Z</time>
<desc>lat.=55.740540, lon.=26.045427, Alt.=159.748169m. Speed=16.488001m/h.</desc>
<speed>4.580000</speed>
</trkpt>
<trkpt lat="55.740498" lon="26.045464">
<ele>159.642700</ele>
<time>2010-07-17T17:52:59Z</time>
<desc>lat.=55.740498, lon.=26.045464, Alt.=159.642700m. Speed=13.824000m/h.</desc>
<speed>3.840000</speed>
</trkpt>
<trkpt lat="55.740463" lon="26.045486">
<ele>159.017700</ele>
<time>2010-07-17T17:53:00Z</time>
<desc>lat.=55.740463, lon.=26.045486, Alt.=159.017700m. Speed=13.176000m/h.</desc>
<speed>3.660000</speed>
</trkpt>
<trkpt lat="55.740425" lon="26.045507">
<ele>158.619263</ele>
<time>2010-07-17T17:53:01Z</time>
<desc>lat.=55.740425, lon.=26.045507, Alt.=158.619263m. Speed=14.688000m/h.</desc>
<speed>4.080000</speed>
</trkpt>
<trkpt lat="55.740387" lon="26.045532">
<ele>158.091919</ele>
<time>2010-07-17T17:53:02Z</time>
<desc>lat.=55.740387, lon.=26.045532, Alt.=158.091919m. Speed=14.652000m/h.</desc>
<speed>4.070000</speed>
</trkpt>
<trkpt lat="55.740353" lon="26.045572">
<ele>158.029419</ele>
<time>2010-07-17T17:53:03Z</time>
<desc>lat.=55.740353, lon.=26.045572, Alt.=158.029419m. Speed=14.364000m/h.</desc>
<speed>3.990000</speed>
</trkpt>
<trkpt lat="55.740314" lon="26.045610">
<ele>157.373169</ele>
<time>2010-07-17T17:53:04Z</time>
<desc>lat.=55.740314, lon.=26.045610, Alt.=157.373169m. Speed=15.336000m/h.</desc>
<speed>4.260000</speed>
</trkpt>
<trkpt lat="55.740276" lon="26.045631">
<ele>157.713013</ele>
<time>2010-07-17T17:53:05Z</time>
<desc>lat.=55.740276, lon.=26.045631, Alt.=157.713013m. Speed=15.552000m/h.</desc>
<speed>4.320000</speed>
</trkpt>
<trkpt lat="55.740238" lon="26.045671">
<ele>159.052856</ele>
<time>2010-07-17T17:53:06Z</time>
<desc>lat.=55.740238, lon.=26.045671, Alt.=159.052856m. Speed=18.540001m/h.</desc>
<speed>5.150000</speed>
</trkpt>
<trkpt lat="55.740192" lon="26.045713">
<ele>159.216919</ele>
<time>2010-07-17T17:53:07Z</time>
<desc>lat.=55.740192, lon.=26.045713, Alt.=159.216919m. Speed=17.856001m/h.</desc>
<speed>4.960000</speed>
</trkpt>
<trkpt lat="55.740154" lon="26.045744">
<ele>159.814575</ele>
<time>2010-07-17T17:53:08Z</time>
<desc>lat.=55.740154, lon.=26.045744, Alt.=159.814575m. Speed=15.948000m/h.</desc>
<speed>4.430000</speed>
</trkpt>
<trkpt lat="55.740108" lon="26.045776">
<ele>159.295044</ele>
<time>2010-07-17T17:53:09Z</time>
<desc>lat.=55.740108, lon.=26.045776, Alt.=159.295044m. Speed=18.108000m/h.</desc>
<speed>5.030000</speed>
</trkpt>
<trkpt lat="55.740055" lon="26.045813">
<ele>158.291138</ele>
<time>2010-07-17T17:53:10Z</time>
<desc>lat.=55.740055, lon.=26.045813, Alt.=158.291138m. Speed=18.468000m/h.</desc>
<speed>5.130000</speed>
</trkpt>
<trkpt lat="55.740009" lon="26.045849">
<ele>157.884888</ele>
<time>2010-07-17T17:53:11Z</time>
<desc>lat.=55.740009, lon.=26.045849, Alt.=157.884888m. Speed=19.007999m/h.</desc>
<speed>5.280000</speed>
</trkpt>
<trkpt lat="55.739964" lon="26.045883">
<ele>157.791138</ele>
<time>2010-07-17T17:53:12Z</time>
<desc>lat.=55.739964, lon.=26.045883, Alt.=157.791138m. Speed=18.864000m/h.</desc>
<speed>5.240000</speed>
</trkpt>
<trkpt lat="55.739918" lon="26.045918">
<ele>157.998169</ele>
<time>2010-07-17T17:53:13Z</time>
<desc>lat.=55.739918, lon.=26.045918, Alt.=157.998169m. Speed=18.864000m/h.</desc>
<speed>5.240000</speed>
</trkpt>
<trkpt lat="55.739872" lon="26.045950">
<ele>158.154419</ele>
<time>2010-07-17T17:53:14Z</time>
<desc>lat.=55.739872, lon.=26.045950, Alt.=158.154419m. Speed=17.639999m/h.</desc>
<speed>4.900000</speed>
</trkpt>
<trkpt lat="55.739826" lon="26.045990">
<ele>158.505981</ele>
<time>2010-07-17T17:53:15Z</time>
<desc>lat.=55.739826, lon.=26.045990, Alt.=158.505981m. Speed=18.035999m/h.</desc>
<speed>5.010000</speed>
</trkpt>
<trkpt lat="55.739784" lon="26.046028">
<ele>158.826294</ele>
<time>2010-07-17T17:53:16Z</time>
<desc>lat.=55.739784, lon.=26.046028, Alt.=158.826294m. Speed=18.143999m/h.</desc>
<speed>5.040000</speed>
</trkpt>
<trkpt lat="55.739746" lon="26.046062">
<ele>158.869263</ele>
<time>2010-07-17T17:53:17Z</time>
<desc>lat.=55.739746, lon.=26.046062, Alt.=158.869263m. Speed=16.704000m/h.</desc>
<speed>4.640000</speed>
</trkpt>
<trkpt lat="55.739708" lon="26.046093">
<ele>159.255981</ele>
<time>2010-07-17T17:53:18Z</time>
<desc>lat.=55.739708, lon.=26.046093, Alt.=159.255981m. Speed=15.300000m/h.</desc>
<speed>4.250000</speed>
</trkpt>
<trkpt lat="55.739674" lon="26.046124">
<ele>160.588013</ele>
<time>2010-07-17T17:53:19Z</time>
<desc>lat.=55.739674, lon.=26.046124, Alt.=160.588013m. Speed=15.696000m/h.</desc>
<speed>4.360000</speed>
</trkpt>
<trkpt lat="55.739635" lon="26.046154">
<ele>161.134888</ele>
<time>2010-07-17T17:53:20Z</time>
<desc>lat.=55.739635, lon.=26.046154, Alt.=161.134888m. Speed=14.760000m/h.</desc>
<speed>4.100000</speed>
</trkpt>
<trkpt lat="55.739605" lon="26.046186">
<ele>161.279419</ele>
<time>2010-07-17T17:53:21Z</time>
<desc>lat.=55.739605, lon.=26.046186, Alt.=161.279419m. Speed=15.048000m/h.</desc>
<speed>4.180000</speed>
</trkpt>
<trkpt lat="55.739574" lon="26.046215">
<ele>163.099731</ele>
<time>2010-07-17T17:53:22Z</time>
<desc>lat.=55.739574, lon.=26.046215, Alt.=163.099731m. Speed=15.192000m/h.</desc>
<speed>4.220000</speed>
</trkpt>
<trkpt lat="55.739540" lon="26.046242">
<ele>164.455200</ele>
<time>2010-07-17T17:53:23Z</time>
<desc>lat.=55.739540, lon.=26.046242, Alt.=164.455200m. Speed=15.300000m/h.</desc>
<speed>4.250000</speed>
</trkpt>
<trkpt lat="55.739502" lon="26.046263">
<ele>164.599731</ele>
<time>2010-07-17T17:53:24Z</time>
<desc>lat.=55.739502, lon.=26.046263, Alt.=164.599731m. Speed=14.868000m/h.</desc>
<speed>4.130000</speed>
</trkpt>
<trkpt lat="55.739464" lon="26.046286">
<ele>164.673950</ele>
<time>2010-07-17T17:53:25Z</time>
<desc>lat.=55.739464, lon.=26.046286, Alt.=164.673950m. Speed=15.624000m/h.</desc>
<speed>4.340000</speed>
</trkpt>
<trkpt lat="55.739426" lon="26.046312">
<ele>165.318481</ele>
<time>2010-07-17T17:53:26Z</time>
<desc>lat.=55.739426, lon.=26.046312, Alt.=165.318481m. Speed=14.652000m/h.</desc>
<speed>4.070000</speed>
</trkpt>
<trkpt lat="55.739388" lon="26.046343">
<ele>165.275513</ele>
<time>2010-07-17T17:53:27Z</time>
<desc>lat.=55.739388, lon.=26.046343, Alt.=165.275513m. Speed=14.400000m/h.</desc>
<speed>4.000000</speed>
</trkpt>
<trkpt lat="55.739353" lon="26.046370">
<ele>165.588013</ele>
<time>2010-07-17T17:53:28Z</time>
<desc>lat.=55.739353, lon.=26.046370, Alt.=165.588013m. Speed=14.580000m/h.</desc>
<speed>4.050000</speed>
</trkpt>
<trkpt lat="55.739315" lon="26.046391">
<ele>165.865356</ele>
<time>2010-07-17T17:53:29Z</time>
<desc>lat.=55.739315, lon.=26.046391, Alt.=165.865356m. Speed=14.580000m/h.</desc>
<speed>4.050000</speed>
</trkpt>
<trkpt lat="55.739281" lon="26.046410">
<ele>165.744263</ele>
<time>2010-07-17T17:53:30Z</time>
<desc>lat.=55.739281, lon.=26.046410, Alt.=165.744263m. Speed=14.652000m/h.</desc>
<speed>4.070000</speed>
</trkpt>
<trkpt lat="55.739243" lon="26.046429">
<ele>166.494263</ele>
<time>2010-07-17T17:53:31Z</time>
<desc>lat.=55.739243, lon.=26.046429, Alt.=166.494263m. Speed=16.524000m/h.</desc>
<speed>4.590000</speed>
</trkpt>
<trkpt lat="55.739201" lon="26.046448">
<ele>167.052856</ele>
<time>2010-07-17T17:53:32Z</time>
<desc>lat.=55.739201, lon.=26.046448, Alt.=167.052856m. Speed=17.063999m/h.</desc>
<speed>4.740000</speed>
</trkpt>
<trkpt lat="55.739162" lon="26.046463">
<ele>167.392700</ele>
<time>2010-07-17T17:53:33Z</time>
<desc>lat.=55.739162, lon.=26.046463, Alt.=167.392700m. Speed=16.992001m/h.</desc>
<speed>4.720000</speed>
</trkpt>
<trkpt lat="55.739120" lon="26.046480">
<ele>167.474731</ele>
<time>2010-07-17T17:53:34Z</time>
<desc>lat.=55.739120, lon.=26.046480, Alt.=167.474731m. Speed=17.496000m/h.</desc>
<speed>4.860000</speed>
</trkpt>
<trkpt lat="55.739079" lon="26.046495">
<ele>168.076294</ele>
<time>2010-07-17T17:53:35Z</time>
<desc>lat.=55.739079, lon.=26.046495, Alt.=168.076294m. Speed=17.639999m/h.</desc>
<speed>4.900000</speed>
</trkpt>
<trkpt lat="55.739033" lon="26.046513">
<ele>166.935669</ele>
<time>2010-07-17T17:53:36Z</time>
<desc>lat.=55.739033, lon.=26.046513, Alt.=166.935669m. Speed=17.784000m/h.</desc>
<speed>4.940000</speed>
</trkpt>
<trkpt lat="55.738991" lon="26.046526">
<ele>166.638794</ele>
<time>2010-07-17T17:53:37Z</time>
<desc>lat.=55.738991, lon.=26.046526, Alt.=166.638794m. Speed=18.900000m/h.</desc>
<speed>5.250000</speed>
</trkpt>
<trkpt lat="55.738945" lon="26.046537">
<ele>166.275513</ele>
<time>2010-07-17T17:53:38Z</time>
<desc>lat.=55.738945, lon.=26.046537, Alt.=166.275513m. Speed=17.172001m/h.</desc>
<speed>4.770000</speed>
</trkpt>
<trkpt lat="55.738903" lon="26.046556">
<ele>165.646606</ele>
<time>2010-07-17T17:53:39Z</time>
<desc>lat.=55.738903, lon.=26.046556, Alt.=165.646606m. Speed=17.639999m/h.</desc>
<speed>4.900000</speed>
</trkpt>
<trkpt lat="55.738861" lon="26.046566">
<ele>164.990356</ele>
<time>2010-07-17T17:53:40Z</time>
<desc>lat.=55.738861, lon.=26.046566, Alt.=164.990356m. Speed=17.459999m/h.</desc>
<speed>4.850000</speed>
</trkpt>
<trkpt lat="55.738815" lon="26.046581">
<ele>163.982544</ele>
<time>2010-07-17T17:53:41Z</time>
<desc>lat.=55.738815, lon.=26.046581, Alt.=163.982544m. Speed=18.756001m/h.</desc>
<speed>5.210000</speed>
</trkpt>
<trkpt lat="55.738766" lon="26.046585">
<ele>160.986450</ele>
<time>2010-07-17T17:53:42Z</time>
<desc>lat.=55.738766, lon.=26.046585, Alt.=160.986450m. Speed=18.648001m/h.</desc>
<speed>5.180000</speed>
</trkpt>
<trkpt lat="55.738716" lon="26.046595">
<ele>158.627075</ele>
<time>2010-07-17T17:53:43Z</time>
<desc>lat.=55.738716, lon.=26.046595, Alt.=158.627075m. Speed=18.900000m/h.</desc>
<speed>5.250000</speed>
</trkpt>
<trkpt lat="55.738667" lon="26.046608">
<ele>158.822388</ele>
<time>2010-07-17T17:53:44Z</time>
<desc>lat.=55.738667, lon.=26.046608, Alt.=158.822388m. Speed=20.700001m/h.</desc>
<speed>5.750000</speed>
</trkpt>
<trkpt lat="55.738613" lon="26.046618">
<ele>158.517700</ele>
<time>2010-07-17T17:53:45Z</time>
<desc>lat.=55.738613, lon.=26.046618, Alt.=158.517700m. Speed=20.808001m/h.</desc>
<speed>5.780000</speed>
</trkpt>
<trkpt lat="55.738560" lon="26.046625">
<ele>158.744263</ele>
<time>2010-07-17T17:53:46Z</time>
<desc>lat.=55.738560, lon.=26.046625, Alt.=158.744263m. Speed=22.643999m/h.</desc>
<speed>6.290000</speed>
</trkpt>
<trkpt lat="55.738510" lon="26.046640">
<ele>158.798950</ele>
<time>2010-07-17T17:53:47Z</time>
<desc>lat.=55.738510, lon.=26.046640, Alt.=158.798950m. Speed=22.535999m/h.</desc>
<speed>6.260000</speed>
</trkpt>
<trkpt lat="55.738457" lon="26.046652">
<ele>158.619263</ele>
<time>2010-07-17T17:53:48Z</time>
<desc>lat.=55.738457, lon.=26.046652, Alt.=158.619263m. Speed=22.896000m/h.</desc>
<speed>6.360000</speed>
</trkpt>
<trkpt lat="55.738400" lon="26.046654">
<ele>158.857544</ele>
<time>2010-07-17T17:53:49Z</time>
<desc>lat.=55.738400, lon.=26.046654, Alt.=158.857544m. Speed=23.148001m/h.</desc>
<speed>6.430000</speed>
</trkpt>
<trkpt lat="55.738338" lon="26.046658">
<ele>157.927856</ele>
<time>2010-07-17T17:53:50Z</time>
<desc>lat.=55.738338, lon.=26.046658, Alt.=157.927856m. Speed=23.615999m/h.</desc>
<speed>6.560000</speed>
</trkpt>
<trkpt lat="55.738274" lon="26.046661">
<ele>157.107544</ele>
<time>2010-07-17T17:53:51Z</time>
<desc>lat.=55.738274, lon.=26.046661, Alt.=157.107544m. Speed=23.760000m/h.</desc>
<speed>6.600000</speed>
</trkpt>
<trkpt lat="55.738216" lon="26.046667">
<ele>156.900513</ele>
<time>2010-07-17T17:53:52Z</time>
<desc>lat.=55.738216, lon.=26.046667, Alt.=156.900513m. Speed=23.436001m/h.</desc>
<speed>6.510000</speed>
</trkpt>
<trkpt lat="55.738159" lon="26.046677">
<ele>157.400513</ele>
<time>2010-07-17T17:53:53Z</time>
<desc>lat.=55.738159, lon.=26.046677, Alt.=157.400513m. Speed=22.896000m/h.</desc>
<speed>6.360000</speed>
</trkpt>
<trkpt lat="55.738106" lon="26.046680">
<ele>157.306763</ele>
<time>2010-07-17T17:53:54Z</time>
<desc>lat.=55.738106, lon.=26.046680, Alt.=157.306763m. Speed=22.572001m/h.</desc>
<speed>6.270000</speed>
</trkpt>
<trkpt lat="55.738052" lon="26.046679">
<ele>156.763794</ele>
<time>2010-07-17T17:53:55Z</time>
<desc>lat.=55.738052, lon.=26.046679, Alt.=156.763794m. Speed=21.096001m/h.</desc>
<speed>5.860000</speed>
</trkpt>
<trkpt lat="55.737995" lon="26.046677">
<ele>157.002075</ele>
<time>2010-07-17T17:53:56Z</time>
<desc>lat.=55.737995, lon.=26.046677, Alt.=157.002075m. Speed=21.167999m/h.</desc>
<speed>5.880000</speed>
</trkpt>
<trkpt lat="55.737942" lon="26.046673">
<ele>157.037231</ele>
<time>2010-07-17T17:53:57Z</time>
<desc>lat.=55.737942, lon.=26.046673, Alt.=157.037231m. Speed=21.888000m/h.</desc>
<speed>6.080000</speed>
</trkpt>
<trkpt lat="55.737892" lon="26.046675">
<ele>157.888794</ele>
<time>2010-07-17T17:53:58Z</time>
<desc>lat.=55.737892, lon.=26.046675, Alt.=157.888794m. Speed=22.427999m/h.</desc>
<speed>6.230000</speed>
</trkpt>
<trkpt lat="55.737835" lon="26.046677">
<ele>158.326294</ele>
<time>2010-07-17T17:53:59Z</time>
<desc>lat.=55.737835, lon.=26.046677, Alt.=158.326294m. Speed=23.004000m/h.</desc>
<speed>6.390000</speed>
</trkpt>
<trkpt lat="55.737782" lon="26.046682">
<ele>158.795044</ele>
<time>2010-07-17T17:54:00Z</time>
<desc>lat.=55.737782, lon.=26.046682, Alt.=158.795044m. Speed=21.816000m/h.</desc>
<speed>6.060000</speed>
</trkpt>
<trkpt lat="55.737728" lon="26.046694">
<ele>159.076294</ele>
<time>2010-07-17T17:54:01Z</time>
<desc>lat.=55.737728, lon.=26.046694, Alt.=159.076294m. Speed=22.139999m/h.</desc>
<speed>6.150000</speed>
</trkpt>
<trkpt lat="55.737671" lon="26.046709">
<ele>158.763794</ele>
<time>2010-07-17T17:54:02Z</time>
<desc>lat.=55.737671, lon.=26.046709, Alt.=158.763794m. Speed=22.608000m/h.</desc>
<speed>6.280000</speed>
</trkpt>
<trkpt lat="55.737614" lon="26.046713">
<ele>158.830200</ele>
<time>2010-07-17T17:54:03Z</time>
<desc>lat.=55.737614, lon.=26.046713, Alt.=158.830200m. Speed=21.996000m/h.</desc>
<speed>6.110000</speed>
</trkpt>
<trkpt lat="55.737556" lon="26.046728">
<ele>159.720825</ele>
<time>2010-07-17T17:54:04Z</time>
<desc>lat.=55.737556, lon.=26.046728, Alt.=159.720825m. Speed=21.708000m/h.</desc>
<speed>6.030000</speed>
</trkpt>
<trkpt lat="55.737499" lon="26.046734">
<ele>160.002075</ele>
<time>2010-07-17T17:54:05Z</time>
<desc>lat.=55.737499, lon.=26.046734, Alt.=160.002075m. Speed=21.600000m/h.</desc>
<speed>6.000000</speed>
</trkpt>
<trkpt lat="55.737442" lon="26.046747">
<ele>161.560669</ele>
<time>2010-07-17T17:54:06Z</time>
<desc>lat.=55.737442, lon.=26.046747, Alt.=161.560669m. Speed=20.736000m/h.</desc>
<speed>5.760000</speed>
</trkpt>
<trkpt lat="55.737396" lon="26.046755">
<ele>161.509888</ele>
<time>2010-07-17T17:54:07Z</time>
<desc>lat.=55.737396, lon.=26.046755, Alt.=161.509888m. Speed=19.152000m/h.</desc>
<speed>5.320000</speed>
</trkpt>
<trkpt lat="55.737343" lon="26.046764">
<ele>161.146606</ele>
<time>2010-07-17T17:54:08Z</time>
<desc>lat.=55.737343, lon.=26.046764, Alt.=161.146606m. Speed=19.656000m/h.</desc>
<speed>5.460000</speed>
</trkpt>
<trkpt lat="55.737297" lon="26.046778">
<ele>161.560669</ele>
<time>2010-07-17T17:54:09Z</time>
<desc>lat.=55.737297, lon.=26.046778, Alt.=161.560669m. Speed=18.143999m/h.</desc>
<speed>5.040000</speed>
</trkpt>
<trkpt lat="55.737247" lon="26.046791">
<ele>161.834106</ele>
<time>2010-07-17T17:54:10Z</time>
<desc>lat.=55.737247, lon.=26.046791, Alt.=161.834106m. Speed=17.712000m/h.</desc>
<speed>4.920000</speed>
</trkpt>
<trkpt lat="55.737202" lon="26.046806">
<ele>161.638794</ele>
<time>2010-07-17T17:54:11Z</time>
<desc>lat.=55.737202, lon.=26.046806, Alt.=161.638794m. Speed=18.180000m/h.</desc>
<speed>5.050000</speed>
</trkpt>
<trkpt lat="55.737156" lon="26.046814">
<ele>162.154419</ele>
<time>2010-07-17T17:54:12Z</time>
<desc>lat.=55.737156, lon.=26.046814, Alt.=162.154419m. Speed=19.511999m/h.</desc>
<speed>5.420000</speed>
</trkpt>
<trkpt lat="55.737106" lon="26.046837">
<ele>162.412231</ele>
<time>2010-07-17T17:54:13Z</time>
<desc>lat.=55.737106, lon.=26.046837, Alt.=162.412231m. Speed=20.591999m/h.</desc>
<speed>5.720000</speed>
</trkpt>
<trkpt lat="55.737057" lon="26.046858">
<ele>163.545044</ele>
<time>2010-07-17T17:54:14Z</time>
<desc>lat.=55.737057, lon.=26.046858, Alt.=163.545044m. Speed=20.195999m/h.</desc>
<speed>5.610000</speed>
</trkpt>
<trkpt lat="55.737011" lon="26.046881">
<ele>164.384888</ele>
<time>2010-07-17T17:54:15Z</time>
<desc>lat.=55.737011, lon.=26.046881, Alt.=164.384888m. Speed=18.396000m/h.</desc>
<speed>5.110000</speed>
</trkpt>
<trkpt lat="55.736961" lon="26.046900">
<ele>164.099731</ele>
<time>2010-07-17T17:54:16Z</time>
<desc>lat.=55.736961, lon.=26.046900, Alt.=164.099731m. Speed=19.764000m/h.</desc>
<speed>5.490000</speed>
</trkpt>
<trkpt lat="55.736912" lon="26.046926">
<ele>164.463013</ele>
<time>2010-07-17T17:54:17Z</time>
<desc>lat.=55.736912, lon.=26.046926, Alt.=164.463013m. Speed=18.072001m/h.</desc>
<speed>5.020000</speed>
</trkpt>
<trkpt lat="55.736870" lon="26.046959">
<ele>164.041138</ele>
<time>2010-07-17T17:54:18Z</time>
<desc>lat.=55.736870, lon.=26.046959, Alt.=164.041138m. Speed=18.864000m/h.</desc>
<speed>5.240000</speed>
</trkpt>
<trkpt lat="55.736820" lon="26.046986">
<ele>163.275513</ele>
<time>2010-07-17T17:54:19Z</time>
<desc>lat.=55.736820, lon.=26.046986, Alt.=163.275513m. Speed=18.180000m/h.</desc>
<speed>5.050000</speed>
</trkpt>
<trkpt lat="55.736774" lon="26.047010">
<ele>162.166138</ele>
<time>2010-07-17T17:54:20Z</time>
<desc>lat.=55.736774, lon.=26.047010, Alt.=162.166138m. Speed=19.260000m/h.</desc>
<speed>5.350000</speed>
</trkpt>
<trkpt lat="55.736729" lon="26.047037">
<ele>161.295044</ele>
<time>2010-07-17T17:54:21Z</time>
<desc>lat.=55.736729, lon.=26.047037, Alt.=161.295044m. Speed=18.540001m/h.</desc>
<speed>5.150000</speed>
</trkpt>
<trkpt lat="55.736683" lon="26.047058">
<ele>161.416138</ele>
<time>2010-07-17T17:54:22Z</time>
<desc>lat.=55.736683, lon.=26.047058, Alt.=161.416138m. Speed=17.136000m/h.</desc>
<speed>4.760000</speed>
</trkpt>
<trkpt lat="55.736641" lon="26.047085">
<ele>161.220825</ele>
<time>2010-07-17T17:54:23Z</time>
<desc>lat.=55.736641, lon.=26.047085, Alt.=161.220825m. Speed=15.912000m/h.</desc>
<speed>4.420000</speed>
</trkpt>
<trkpt lat="55.736599" lon="26.047117">
<ele>161.146606</ele>
<time>2010-07-17T17:54:24Z</time>
<desc>lat.=55.736599, lon.=26.047117, Alt.=161.146606m. Speed=17.243999m/h.</desc>
<speed>4.790000</speed>
</trkpt>
<trkpt lat="55.736557" lon="26.047155">
<ele>161.013794</ele>
<time>2010-07-17T17:54:25Z</time>
<desc>lat.=55.736557, lon.=26.047155, Alt.=161.013794m. Speed=17.351999m/h.</desc>
<speed>4.820000</speed>
</trkpt>
<trkpt lat="55.736511" lon="26.047188">
<ele>161.068481</ele>
<time>2010-07-17T17:54:26Z</time>
<desc>lat.=55.736511, lon.=26.047188, Alt.=161.068481m. Speed=15.948000m/h.</desc>
<speed>4.430000</speed>
</trkpt>
<trkpt lat="55.736473" lon="26.047220">
<ele>160.529419</ele>
<time>2010-07-17T17:54:27Z</time>
<desc>lat.=55.736473, lon.=26.047220, Alt.=160.529419m. Speed=16.704000m/h.</desc>
<speed>4.640000</speed>
</trkpt>
<trkpt lat="55.736435" lon="26.047264">
<ele>160.716919</ele>
<time>2010-07-17T17:54:28Z</time>
<desc>lat.=55.736435, lon.=26.047264, Alt.=160.716919m. Speed=16.632000m/h.</desc>
<speed>4.620000</speed>
</trkpt>
<trkpt lat="55.736401" lon="26.047310">
<ele>160.146606</ele>
<time>2010-07-17T17:54:29Z</time>
<desc>lat.=55.736401, lon.=26.047310, Alt.=160.146606m. Speed=16.236000m/h.</desc>
<speed>4.510000</speed>
</trkpt>
<trkpt lat="55.736366" lon="26.047354">
<ele>159.548950</ele>
<time>2010-07-17T17:54:30Z</time>
<desc>lat.=55.736366, lon.=26.047354, Alt.=159.548950m. Speed=15.408000m/h.</desc>
<speed>4.280000</speed>
</trkpt>
<trkpt lat="55.736336" lon="26.047394">
<ele>159.029419</ele>
<time>2010-07-17T17:54:31Z</time>
<desc>lat.=55.736336, lon.=26.047394, Alt.=159.029419m. Speed=14.256000m/h.</desc>
<speed>3.960000</speed>
</trkpt>
<trkpt lat="55.736309" lon="26.047432">
<ele>158.576294</ele>
<time>2010-07-17T17:54:32Z</time>
<desc>lat.=55.736309, lon.=26.047432, Alt.=158.576294m. Speed=14.400000m/h.</desc>
<speed>4.000000</speed>
</trkpt>
<trkpt lat="55.736282" lon="26.047483">
<ele>159.080200</ele>
<time>2010-07-17T17:54:33Z</time>
<desc>lat.=55.736282, lon.=26.047483, Alt.=159.080200m. Speed=16.308001m/h.</desc>
<speed>4.530000</speed>
</trkpt>
<trkpt lat="55.736248" lon="26.047543">
<ele>159.990356</ele>
<time>2010-07-17T17:54:34Z</time>
<desc>lat.=55.736248, lon.=26.047543, Alt.=159.990356m. Speed=16.559999m/h.</desc>
<speed>4.600000</speed>
</trkpt>
<trkpt lat="55.736217" lon="26.047581">
<ele>160.158325</ele>
<time>2010-07-17T17:54:35Z</time>
<desc>lat.=55.736217, lon.=26.047581, Alt.=160.158325m. Speed=14.652000m/h.</desc>
<speed>4.070000</speed>
</trkpt>
<trkpt lat="55.736187" lon="26.047625">
<ele>160.095825</ele>
<time>2010-07-17T17:54:36Z</time>
<desc>lat.=55.736187, lon.=26.047625, Alt.=160.095825m. Speed=16.236000m/h.</desc>
<speed>4.510000</speed>
</trkpt>
<trkpt lat="55.736153" lon="26.047676">
<ele>159.670044</ele>
<time>2010-07-17T17:54:37Z</time>
<desc>lat.=55.736153, lon.=26.047676, Alt.=159.670044m. Speed=17.820000m/h.</desc>
<speed>4.950000</speed>
</trkpt>
<trkpt lat="55.736118" lon="26.047729">
<ele>159.576294</ele>
<time>2010-07-17T17:54:38Z</time>
<desc>lat.=55.736118, lon.=26.047729, Alt.=159.576294m. Speed=17.532000m/h.</desc>
<speed>4.870000</speed>
</trkpt>
<trkpt lat="55.736088" lon="26.047785">
<ele>159.056763</ele>
<time>2010-07-17T17:54:39Z</time>
<desc>lat.=55.736088, lon.=26.047785, Alt.=159.056763m. Speed=16.344000m/h.</desc>
<speed>4.540000</speed>
</trkpt>
<trkpt lat="55.736061" lon="26.047844">
<ele>158.697388</ele>
<time>2010-07-17T17:54:40Z</time>
<desc>lat.=55.736061, lon.=26.047844, Alt.=158.697388m. Speed=17.028000m/h.</desc>
<speed>4.730000</speed>
</trkpt>
<trkpt lat="55.736031" lon="26.047895">
<ele>158.220825</ele>
<time>2010-07-17T17:54:41Z</time>
<desc>lat.=55.736031, lon.=26.047895, Alt.=158.220825m. Speed=17.063999m/h.</desc>
<speed>4.740000</speed>
</trkpt>
<trkpt lat="55.736000" lon="26.047951">
<ele>158.517700</ele>
<time>2010-07-17T17:54:42Z</time>
<desc>lat.=55.736000, lon.=26.047951, Alt.=158.517700m. Speed=17.568001m/h.</desc>
<speed>4.880000</speed>
</trkpt>
<trkpt lat="55.735966" lon="26.048002">
<ele>158.603638</ele>
<time>2010-07-17T17:54:43Z</time>
<desc>lat.=55.735966, lon.=26.048002, Alt.=158.603638m. Speed=18.180000m/h.</desc>
<speed>5.050000</speed>
</trkpt>
<trkpt lat="55.735935" lon="26.048052">
<ele>158.146606</ele>
<time>2010-07-17T17:54:44Z</time>
<desc>lat.=55.735935, lon.=26.048052, Alt.=158.146606m. Speed=18.540001m/h.</desc>
<speed>5.150000</speed>
</trkpt>
<trkpt lat="55.735905" lon="26.048101">
<ele>158.466919</ele>
<time>2010-07-17T17:54:45Z</time>
<desc>lat.=55.735905, lon.=26.048101, Alt.=158.466919m. Speed=18.288000m/h.</desc>
<speed>5.080000</speed>
</trkpt>
<trkpt lat="55.735870" lon="26.048151">
<ele>159.236450</ele>
<time>2010-07-17T17:54:46Z</time>
<desc>lat.=55.735870, lon.=26.048151, Alt.=159.236450m. Speed=17.063999m/h.</desc>
<speed>4.740000</speed>
</trkpt>
<trkpt lat="55.735832" lon="26.048197">
<ele>159.474731</ele>
<time>2010-07-17T17:54:47Z</time>
<desc>lat.=55.735832, lon.=26.048197, Alt.=159.474731m. Speed=17.424000m/h.</desc>
<speed>4.840000</speed>
</trkpt>
<trkpt lat="55.735798" lon="26.048254">
<ele>159.767700</ele>
<time>2010-07-17T17:54:48Z</time>
<desc>lat.=55.735798, lon.=26.048254, Alt.=159.767700m. Speed=17.568001m/h.</desc>
<speed>4.880000</speed>
</trkpt>
<trkpt lat="55.735764" lon="26.048309">
<ele>160.197388</ele>
<time>2010-07-17T17:54:49Z</time>
<desc>lat.=55.735764, lon.=26.048309, Alt.=160.197388m. Speed=18.936001m/h.</desc>
<speed>5.260000</speed>
</trkpt>
<trkpt lat="55.735729" lon="26.048365">
<ele>160.826294</ele>
<time>2010-07-17T17:54:50Z</time>
<desc>lat.=55.735729, lon.=26.048365, Alt.=160.826294m. Speed=18.035999m/h.</desc>
<speed>5.010000</speed>
</trkpt>
<trkpt lat="55.735699" lon="26.048414">
<ele>161.580200</ele>
<time>2010-07-17T17:54:51Z</time>
<desc>lat.=55.735699, lon.=26.048414, Alt.=161.580200m. Speed=15.444000m/h.</desc>
<speed>4.290000</speed>
</trkpt>
<trkpt lat="55.735668" lon="26.048454">
<ele>161.709106</ele>
<time>2010-07-17T17:54:52Z</time>
<desc>lat.=55.735668, lon.=26.048454, Alt.=161.709106m. Speed=15.444000m/h.</desc>
<speed>4.290000</speed>
</trkpt>
<trkpt lat="55.735638" lon="26.048494">
<ele>161.869263</ele>
<time>2010-07-17T17:54:53Z</time>
<desc>lat.=55.735638, lon.=26.048494, Alt.=161.869263m. Speed=14.724000m/h.</desc>
<speed>4.090000</speed>
</trkpt>
<trkpt lat="55.735603" lon="26.048542">
<ele>162.556763</ele>
<time>2010-07-17T17:54:54Z</time>
<desc>lat.=55.735603, lon.=26.048542, Alt.=162.556763m. Speed=16.452000m/h.</desc>
<speed>4.570000</speed>
</trkpt>
<trkpt lat="55.735569" lon="26.048590">
<ele>162.709106</ele>
<time>2010-07-17T17:54:55Z</time>
<desc>lat.=55.735569, lon.=26.048590, Alt.=162.709106m. Speed=16.812000m/h.</desc>
<speed>4.670000</speed>
</trkpt>
<trkpt lat="55.735535" lon="26.048635">
<ele>161.880981</ele>
<time>2010-07-17T17:54:56Z</time>
<desc>lat.=55.735535, lon.=26.048635, Alt.=161.880981m. Speed=15.300000m/h.</desc>
<speed>4.250000</speed>
</trkpt>
<trkpt lat="55.735508" lon="26.048677">
<ele>161.541138</ele>
<time>2010-07-17T17:54:57Z</time>
<desc>lat.=55.735508, lon.=26.048677, Alt.=161.541138m. Speed=14.328000m/h.</desc>
<speed>3.980000</speed>
</trkpt>
<trkpt lat="55.735481" lon="26.048714">
<ele>161.798950</ele>
<time>2010-07-17T17:54:58Z</time>
<desc>lat.=55.735481, lon.=26.048714, Alt.=161.798950m. Speed=14.256000m/h.</desc>
<speed>3.960000</speed>
</trkpt>
<trkpt lat="55.735455" lon="26.048758">
<ele>161.947388</ele>
<time>2010-07-17T17:54:59Z</time>
<desc>lat.=55.735455, lon.=26.048758, Alt.=161.947388m. Speed=14.220000m/h.</desc>
<speed>3.950000</speed>
</trkpt>
<trkpt lat="55.735428" lon="26.048807">
<ele>162.427856</ele>
<time>2010-07-17T17:55:00Z</time>
<desc>lat.=55.735428, lon.=26.048807, Alt.=162.427856m. Speed=15.048000m/h.</desc>
<speed>4.180000</speed>
</trkpt>
<trkpt lat="55.735394" lon="26.048845">
<ele>162.720825</ele>
<time>2010-07-17T17:55:01Z</time>
<desc>lat.=55.735394, lon.=26.048845, Alt.=162.720825m. Speed=16.200001m/h.</desc>
<speed>4.500000</speed>
</trkpt>
<trkpt lat="55.735363" lon="26.048895">
<ele>162.900513</ele>
<time>2010-07-17T17:55:02Z</time>
<desc>lat.=55.735363, lon.=26.048895, Alt.=162.900513m. Speed=16.416000m/h.</desc>
<speed>4.560000</speed>
</trkpt>
<trkpt lat="55.735336" lon="26.048944">
<ele>163.447388</ele>
<time>2010-07-17T17:55:03Z</time>
<desc>lat.=55.735336, lon.=26.048944, Alt.=163.447388m. Speed=17.208000m/h.</desc>
<speed>4.780000</speed>
</trkpt>
<trkpt lat="55.735306" lon="26.048994">
<ele>164.357544</ele>
<time>2010-07-17T17:55:04Z</time>
<desc>lat.=55.735306, lon.=26.048994, Alt.=164.357544m. Speed=15.264000m/h.</desc>
<speed>4.240000</speed>
</trkpt>
<trkpt lat="55.735275" lon="26.049032">
<ele>164.552856</ele>
<time>2010-07-17T17:55:05Z</time>
<desc>lat.=55.735275, lon.=26.049032, Alt.=164.552856m. Speed=15.264000m/h.</desc>
<speed>4.240000</speed>
</trkpt>
<trkpt lat="55.735245" lon="26.049086">
<ele>164.654419</ele>
<time>2010-07-17T17:55:06Z</time>
<desc>lat.=55.735245, lon.=26.049086, Alt.=164.654419m. Speed=16.667999m/h.</desc>
<speed>4.630000</speed>
</trkpt>
<trkpt lat="55.735214" lon="26.049124">
<ele>164.970825</ele>
<time>2010-07-17T17:55:07Z</time>
<desc>lat.=55.735214, lon.=26.049124, Alt.=164.970825m. Speed=15.588000m/h.</desc>
<speed>4.330000</speed>
</trkpt>
<trkpt lat="55.735184" lon="26.049166">
<ele>165.111450</ele>
<time>2010-07-17T17:55:08Z</time>
<desc>lat.=55.735184, lon.=26.049166, Alt.=165.111450m. Speed=16.271999m/h.</desc>
<speed>4.520000</speed>
</trkpt>
<trkpt lat="55.735153" lon="26.049210">
<ele>165.111450</ele>
<time>2010-07-17T17:55:09Z</time>
<desc>lat.=55.735153, lon.=26.049210, Alt.=165.111450m. Speed=14.220000m/h.</desc>
<speed>3.950000</speed>
</trkpt>
<trkpt lat="55.735130" lon="26.049252">
<ele>165.384888</ele>
<time>2010-07-17T17:55:10Z</time>
<desc>lat.=55.735130, lon.=26.049252, Alt.=165.384888m. Speed=14.652000m/h.</desc>
<speed>4.070000</speed>
</trkpt>
<trkpt lat="55.735100" lon="26.049299">
<ele>165.498169</ele>
<time>2010-07-17T17:55:11Z</time>
<desc>lat.=55.735100, lon.=26.049299, Alt.=165.498169m. Speed=16.271999m/h.</desc>
<speed>4.520000</speed>
</trkpt>
<trkpt lat="55.735062" lon="26.049347">
<ele>165.947388</ele>
<time>2010-07-17T17:55:12Z</time>
<desc>lat.=55.735062, lon.=26.049347, Alt.=165.947388m. Speed=16.920000m/h.</desc>
<speed>4.700000</speed>
</trkpt>
<trkpt lat="55.735031" lon="26.049387">
<ele>165.615356</ele>
<time>2010-07-17T17:55:13Z</time>
<desc>lat.=55.735031, lon.=26.049387, Alt.=165.615356m. Speed=16.271999m/h.</desc>
<speed>4.520000</speed>
</trkpt>
<trkpt lat="55.735001" lon="26.049437">
<ele>165.533325</ele>
<time>2010-07-17T17:55:14Z</time>
<desc>lat.=55.735001, lon.=26.049437, Alt.=165.533325m. Speed=17.388000m/h.</desc>
<speed>4.830000</speed>
</trkpt>
<trkpt lat="55.734962" lon="26.049484">
<ele>165.068481</ele>
<time>2010-07-17T17:55:15Z</time>
<desc>lat.=55.734962, lon.=26.049484, Alt.=165.068481m. Speed=18.035999m/h.</desc>
<speed>5.010000</speed>
</trkpt>
<trkpt lat="55.734924" lon="26.049532">
<ele>164.701294</ele>
<time>2010-07-17T17:55:16Z</time>
<desc>lat.=55.734924, lon.=26.049532, Alt.=164.701294m. Speed=19.007999m/h.</desc>
<speed>5.280000</speed>
</trkpt>
<trkpt lat="55.734886" lon="26.049580">
<ele>164.189575</ele>
<time>2010-07-17T17:55:17Z</time>
<desc>lat.=55.734886, lon.=26.049580, Alt.=164.189575m. Speed=17.747999m/h.</desc>
<speed>4.930000</speed>
</trkpt>
<trkpt lat="55.734852" lon="26.049635">
<ele>165.068481</ele>
<time>2010-07-17T17:55:18Z</time>
<desc>lat.=55.734852, lon.=26.049635, Alt.=165.068481m. Speed=16.632000m/h.</desc>
<speed>4.620000</speed>
</trkpt>
<trkpt lat="55.734821" lon="26.049675">
<ele>165.275513</ele>
<time>2010-07-17T17:55:19Z</time>
<desc>lat.=55.734821, lon.=26.049675, Alt.=165.275513m. Speed=14.472000m/h.</desc>
<speed>4.020000</speed>
</trkpt>
<trkpt lat="55.734787" lon="26.049715">
<ele>165.646606</ele>
<time>2010-07-17T17:55:20Z</time>
<desc>lat.=55.734787, lon.=26.049715, Alt.=165.646606m. Speed=15.732000m/h.</desc>
<speed>4.370000</speed>
</trkpt>
<trkpt lat="55.734753" lon="26.049751">
<ele>166.431763</ele>
<time>2010-07-17T17:55:21Z</time>
<desc>lat.=55.734753, lon.=26.049751, Alt.=166.431763m. Speed=14.508000m/h.</desc>
<speed>4.030000</speed>
</trkpt>
<trkpt lat="55.734722" lon="26.049782">
<ele>166.982544</ele>
<time>2010-07-17T17:55:22Z</time>
<desc>lat.=55.734722, lon.=26.049782, Alt.=166.982544m. Speed=15.228000m/h.</desc>
<speed>4.230000</speed>
</trkpt>
<trkpt lat="55.734684" lon="26.049807">
<ele>166.486450</ele>
<time>2010-07-17T17:55:23Z</time>
<desc>lat.=55.734684, lon.=26.049807, Alt.=166.486450m. Speed=15.516000m/h.</desc>
<speed>4.310000</speed>
</trkpt>
<trkpt lat="55.734642" lon="26.049833">
<ele>165.748169</ele>
<time>2010-07-17T17:55:24Z</time>
<desc>lat.=55.734642, lon.=26.049833, Alt.=165.748169m. Speed=16.416000m/h.</desc>
<speed>4.560000</speed>
</trkpt>
<trkpt lat="55.734608" lon="26.049862">
<ele>166.213013</ele>
<time>2010-07-17T17:55:25Z</time>
<desc>lat.=55.734608, lon.=26.049862, Alt.=166.213013m. Speed=16.236000m/h.</desc>
<speed>4.510000</speed>
</trkpt>
<trkpt lat="55.734566" lon="26.049891">
<ele>167.170044</ele>
<time>2010-07-17T17:55:26Z</time>
<desc>lat.=55.734566, lon.=26.049891, Alt.=167.170044m. Speed=18.684000m/h.</desc>
<speed>5.190000</speed>
</trkpt>
<trkpt lat="55.734516" lon="26.049911">
<ele>167.791138</ele>
<time>2010-07-17T17:55:27Z</time>
<desc>lat.=55.734516, lon.=26.049911, Alt.=167.791138m. Speed=19.007999m/h.</desc>
<speed>5.280000</speed>
</trkpt>
<trkpt lat="55.734470" lon="26.049936">
<ele>168.447388</ele>
<time>2010-07-17T17:55:28Z</time>
<desc>lat.=55.734470, lon.=26.049936, Alt.=168.447388m. Speed=20.664000m/h.</desc>
<speed>5.740000</speed>
</trkpt>
<trkpt lat="55.734417" lon="26.049959">
<ele>168.931763</ele>
<time>2010-07-17T17:55:29Z</time>
<desc>lat.=55.734417, lon.=26.049959, Alt.=168.931763m. Speed=20.988001m/h.</desc>
<speed>5.830000</speed>
</trkpt>
<trkpt lat="55.734364" lon="26.049982">
<ele>169.197388</ele>
<time>2010-07-17T17:55:30Z</time>
<desc>lat.=55.734364, lon.=26.049982, Alt.=169.197388m. Speed=22.464001m/h.</desc>
<speed>6.240000</speed>
</trkpt>
<trkpt lat="55.734306" lon="26.050005">
<ele>169.963013</ele>
<time>2010-07-17T17:55:31Z</time>
<desc>lat.=55.734306, lon.=26.050005, Alt.=169.963013m. Speed=23.688000m/h.</desc>
<speed>6.580000</speed>
</trkpt>
<trkpt lat="55.734249" lon="26.050028">
<ele>170.857544</ele>
<time>2010-07-17T17:55:32Z</time>
<desc>lat.=55.734249, lon.=26.050028, Alt.=170.857544m. Speed=25.992001m/h.</desc>
<speed>7.220000</speed>
</trkpt>
<trkpt lat="55.734177" lon="26.050049">
<ele>171.345825</ele>
<time>2010-07-17T17:55:33Z</time>
<desc>lat.=55.734177, lon.=26.050049, Alt.=171.345825m. Speed=28.224001m/h.</desc>
<speed>7.840000</speed>
</trkpt>
<trkpt lat="55.734104" lon="26.050072">
<ele>171.306763</ele>
<time>2010-07-17T17:55:34Z</time>
<desc>lat.=55.734104, lon.=26.050072, Alt.=171.306763m. Speed=30.059999m/h.</desc>
<speed>8.350000</speed>
</trkpt>
<trkpt lat="55.734028" lon="26.050093">
<ele>170.396606</ele>
<time>2010-07-17T17:55:35Z</time>
<desc>lat.=55.734028, lon.=26.050093, Alt.=170.396606m. Speed=31.284000m/h.</desc>
<speed>8.690000</speed>
</trkpt>
<trkpt lat="55.733948" lon="26.050110">
<ele>169.115356</ele>
<time>2010-07-17T17:55:36Z</time>
<desc>lat.=55.733948, lon.=26.050110, Alt.=169.115356m. Speed=33.768002m/h.</desc>
<speed>9.380000</speed>
</trkpt>
<trkpt lat="55.733864" lon="26.050129">
<ele>168.181763</ele>
<time>2010-07-17T17:55:37Z</time>
<desc>lat.=55.733864, lon.=26.050129, Alt.=168.181763m. Speed=34.883999m/h.</desc>
<speed>9.690000</speed>
</trkpt>
<trkpt lat="55.733776" lon="26.050142">
<ele>166.802856</ele>
<time>2010-07-17T17:55:38Z</time>
<desc>lat.=55.733776, lon.=26.050142, Alt.=166.802856m. Speed=34.812000m/h.</desc>
<speed>9.670000</speed>
</trkpt>
<trkpt lat="55.733692" lon="26.050163">
<ele>166.459106</ele>
<time>2010-07-17T17:55:39Z</time>
<desc>lat.=55.733692, lon.=26.050163, Alt.=166.459106m. Speed=33.264000m/h.</desc>
<speed>9.240000</speed>
</trkpt>
<trkpt lat="55.733604" lon="26.050194">
<ele>166.142700</ele>
<time>2010-07-17T17:55:40Z</time>
<desc>lat.=55.733604, lon.=26.050194, Alt.=166.142700m. Speed=35.748001m/h.</desc>
<speed>9.930000</speed>
</trkpt>
<trkpt lat="55.733524" lon="26.050220">
<ele>166.166138</ele>
<time>2010-07-17T17:55:41Z</time>
<desc>lat.=55.733524, lon.=26.050220, Alt.=166.166138m. Speed=32.868000m/h.</desc>
<speed>9.130000</speed>
</trkpt>
<trkpt lat="55.733444" lon="26.050249">
<ele>165.259888</ele>
<time>2010-07-17T17:55:42Z</time>
<desc>lat.=55.733444, lon.=26.050249, Alt.=165.259888m. Speed=29.808001m/h.</desc>
<speed>8.280000</speed>
</trkpt>
<trkpt lat="55.733372" lon="26.050268">
<ele>165.314575</ele>
<time>2010-07-17T17:55:43Z</time>
<desc>lat.=55.733372, lon.=26.050268, Alt.=165.314575m. Speed=28.044001m/h.</desc>
<speed>7.790000</speed>
</trkpt>
<trkpt lat="55.733295" lon="26.050289">
<ele>164.427856</ele>
<time>2010-07-17T17:55:44Z</time>
<desc>lat.=55.733295, lon.=26.050289, Alt.=164.427856m. Speed=29.268000m/h.</desc>
<speed>8.130000</speed>
</trkpt>
<trkpt lat="55.733223" lon="26.050312">
<ele>163.873169</ele>
<time>2010-07-17T17:55:45Z</time>
<desc>lat.=55.733223, lon.=26.050312, Alt.=163.873169m. Speed=28.728001m/h.</desc>
<speed>7.980000</speed>
</trkpt>
<trkpt lat="55.733147" lon="26.050331">
<ele>162.185669</ele>
<time>2010-07-17T17:55:46Z</time>
<desc>lat.=55.733147, lon.=26.050331, Alt.=162.185669m. Speed=28.080000m/h.</desc>
<speed>7.800000</speed>
</trkpt>
<trkpt lat="55.733067" lon="26.050343">
<ele>161.029419</ele>
<time>2010-07-17T17:55:47Z</time>
<desc>lat.=55.733067, lon.=26.050343, Alt.=161.029419m. Speed=28.044001m/h.</desc>
<speed>7.790000</speed>
</trkpt>
<trkpt lat="55.732998" lon="26.050352">
<ele>160.716919</ele>
<time>2010-07-17T17:55:48Z</time>
<desc>lat.=55.732998, lon.=26.050352, Alt.=160.716919m. Speed=25.667999m/h.</desc>
<speed>7.130000</speed>
</trkpt>
<trkpt lat="55.732933" lon="26.050365">
<ele>160.560669</ele>
<time>2010-07-17T17:55:49Z</time>
<desc>lat.=55.732933, lon.=26.050365, Alt.=160.560669m. Speed=25.920000m/h.</desc>
<speed>7.200000</speed>
</trkpt>
<trkpt lat="55.732868" lon="26.050381">
<ele>161.341919</ele>
<time>2010-07-17T17:55:50Z</time>
<desc>lat.=55.732868, lon.=26.050381, Alt.=161.341919m. Speed=27.540001m/h.</desc>
<speed>7.650000</speed>
</trkpt>
<trkpt lat="55.732800" lon="26.050411">
<ele>160.798950</ele>
<time>2010-07-17T17:55:51Z</time>
<desc>lat.=55.732800, lon.=26.050411, Alt.=160.798950m. Speed=26.927999m/h.</desc>
<speed>7.480000</speed>
</trkpt>
<trkpt lat="55.732727" lon="26.050434">
<ele>159.357544</ele>
<time>2010-07-17T17:55:52Z</time>
<desc>lat.=55.732727, lon.=26.050434, Alt.=159.357544m. Speed=27.396000m/h.</desc>
<speed>7.610000</speed>
</trkpt>
<trkpt lat="55.732658" lon="26.050446">
<ele>159.127075</ele>
<time>2010-07-17T17:55:53Z</time>
<desc>lat.=55.732658, lon.=26.050446, Alt.=159.127075m. Speed=23.868000m/h.</desc>
<speed>6.630000</speed>
</trkpt>
<trkpt lat="55.732597" lon="26.050459">
<ele>158.994263</ele>
<time>2010-07-17T17:55:54Z</time>
<desc>lat.=55.732597, lon.=26.050459, Alt.=158.994263m. Speed=24.875999m/h.</desc>
<speed>6.910000</speed>
</trkpt>
<trkpt lat="55.732529" lon="26.050486">
<ele>158.091919</ele>
<time>2010-07-17T17:55:55Z</time>
<desc>lat.=55.732529, lon.=26.050486, Alt.=158.091919m. Speed=26.927999m/h.</desc>
<speed>7.480000</speed>
</trkpt>
<trkpt lat="55.732456" lon="26.050508">
<ele>158.865356</ele>
<time>2010-07-17T17:55:56Z</time>
<desc>lat.=55.732456, lon.=26.050508, Alt.=158.865356m. Speed=26.927999m/h.</desc>
<speed>7.480000</speed>
</trkpt>
<trkpt lat="55.732391" lon="26.050529">
<ele>159.978638</ele>
<time>2010-07-17T17:55:57Z</time>
<desc>lat.=55.732391, lon.=26.050529, Alt.=159.978638m. Speed=24.264000m/h.</desc>
<speed>6.740000</speed>
</trkpt>
<trkpt lat="55.732334" lon="26.050560">
<ele>160.107544</ele>
<time>2010-07-17T17:55:58Z</time>
<desc>lat.=55.732334, lon.=26.050560, Alt.=160.107544m. Speed=23.615999m/h.</desc>
<speed>6.560000</speed>
</trkpt>
<trkpt lat="55.732277" lon="26.050592">
<ele>160.478638</ele>
<time>2010-07-17T17:55:59Z</time>
<desc>lat.=55.732277, lon.=26.050592, Alt.=160.478638m. Speed=22.032000m/h.</desc>
<speed>6.120000</speed>
</trkpt>
<trkpt lat="55.732224" lon="26.050623">
<ele>161.197388</ele>
<time>2010-07-17T17:56:00Z</time>
<desc>lat.=55.732224, lon.=26.050623, Alt.=161.197388m. Speed=22.788000m/h.</desc>
<speed>6.330000</speed>
</trkpt>
<trkpt lat="55.732166" lon="26.050650">
<ele>161.634888</ele>
<time>2010-07-17T17:56:01Z</time>
<desc>lat.=55.732166, lon.=26.050650, Alt.=161.634888m. Speed=20.412001m/h.</desc>
<speed>5.670000</speed>
</trkpt>
<trkpt lat="55.732117" lon="26.050680">
<ele>161.369263</ele>
<time>2010-07-17T17:56:02Z</time>
<desc>lat.=55.732117, lon.=26.050680, Alt.=161.369263m. Speed=18.900000m/h.</desc>
<speed>5.250000</speed>
</trkpt>
<trkpt lat="55.732071" lon="26.050716">
<ele>161.189575</ele>
<time>2010-07-17T17:56:03Z</time>
<desc>lat.=55.732071, lon.=26.050716, Alt.=161.189575m. Speed=19.044001m/h.</desc>
<speed>5.290000</speed>
</trkpt>
<trkpt lat="55.732033" lon="26.050760">
<ele>160.353638</ele>
<time>2010-07-17T17:56:04Z</time>
<desc>lat.=55.732033, lon.=26.050760, Alt.=160.353638m. Speed=16.632000m/h.</desc>
<speed>4.620000</speed>
</trkpt>
<trkpt lat="55.731998" lon="26.050802">
<ele>158.353638</ele>
<time>2010-07-17T17:56:05Z</time>
<desc>lat.=55.731998, lon.=26.050802, Alt.=158.353638m. Speed=17.028000m/h.</desc>
<speed>4.730000</speed>
</trkpt>
<trkpt lat="55.731960" lon="26.050844">
<ele>157.595825</ele>
<time>2010-07-17T17:56:06Z</time>
<desc>lat.=55.731960, lon.=26.050844, Alt.=157.595825m. Speed=18.000000m/h.</desc>
<speed>5.000000</speed>
</trkpt>
<trkpt lat="55.731922" lon="26.050882">
<ele>157.763794</ele>
<time>2010-07-17T17:56:07Z</time>
<desc>lat.=55.731922, lon.=26.050882, Alt.=157.763794m. Speed=18.576000m/h.</desc>
<speed>5.160000</speed>
</trkpt>
<trkpt lat="55.731884" lon="26.050926">
<ele>157.568481</ele>
<time>2010-07-17T17:56:08Z</time>
<desc>lat.=55.731884, lon.=26.050926, Alt.=157.568481m. Speed=18.035999m/h.</desc>
<speed>5.010000</speed>
</trkpt>
<trkpt lat="55.731846" lon="26.050964">
<ele>157.880981</ele>
<time>2010-07-17T17:56:09Z</time>
<desc>lat.=55.731846, lon.=26.050964, Alt.=157.880981m. Speed=18.216000m/h.</desc>
<speed>5.060000</speed>
</trkpt>
<trkpt lat="55.731808" lon="26.051014">
<ele>157.685669</ele>
<time>2010-07-17T17:56:10Z</time>
<desc>lat.=55.731808, lon.=26.051014, Alt.=157.685669m. Speed=19.620001m/h.</desc>
<speed>5.450000</speed>
</trkpt>
<trkpt lat="55.731770" lon="26.051071">
<ele>157.318481</ele>
<time>2010-07-17T17:56:11Z</time>
<desc>lat.=55.731770, lon.=26.051071, Alt.=157.318481m. Speed=21.275999m/h.</desc>
<speed>5.910000</speed>
</trkpt>
<trkpt lat="55.731724" lon="26.051132">
<ele>157.908325</ele>
<time>2010-07-17T17:56:12Z</time>
<desc>lat.=55.731724, lon.=26.051132, Alt.=157.908325m. Speed=20.340000m/h.</desc>
<speed>5.650000</speed>
</trkpt>
<trkpt lat="55.731686" lon="26.051189">
<ele>157.029419</ele>
<time>2010-07-17T17:56:13Z</time>
<desc>lat.=55.731686, lon.=26.051189, Alt.=157.029419m. Speed=20.195999m/h.</desc>
<speed>5.610000</speed>
</trkpt>
<trkpt lat="55.731644" lon="26.051249">
<ele>156.670044</ele>
<time>2010-07-17T17:56:14Z</time>
<desc>lat.=55.731644, lon.=26.051249, Alt.=156.670044m. Speed=20.232000m/h.</desc>
<speed>5.620000</speed>
</trkpt>
<trkpt lat="55.731609" lon="26.051315">
<ele>157.025513</ele>
<time>2010-07-17T17:56:15Z</time>
<desc>lat.=55.731609, lon.=26.051315, Alt.=157.025513m. Speed=19.044001m/h.</desc>
<speed>5.290000</speed>
</trkpt>
<trkpt lat="55.731571" lon="26.051371">
<ele>155.896606</ele>
<time>2010-07-17T17:56:16Z</time>
<desc>lat.=55.731571, lon.=26.051371, Alt.=155.896606m. Speed=18.936001m/h.</desc>
<speed>5.260000</speed>
</trkpt>
<trkpt lat="55.731537" lon="26.051426">
<ele>154.830200</ele>
<time>2010-07-17T17:56:17Z</time>
<desc>lat.=55.731537, lon.=26.051426, Alt.=154.830200m. Speed=19.296000m/h.</desc>
<speed>5.360000</speed>
</trkpt>
<trkpt lat="55.731503" lon="26.051489">
<ele>154.396606</ele>
<time>2010-07-17T17:56:18Z</time>
<desc>lat.=55.731503, lon.=26.051489, Alt.=154.396606m. Speed=19.656000m/h.</desc>
<speed>5.460000</speed>
</trkpt>
<trkpt lat="55.731464" lon="26.051556">
<ele>154.357544</ele>
<time>2010-07-17T17:56:19Z</time>
<desc>lat.=55.731464, lon.=26.051556, Alt.=154.357544m. Speed=20.879999m/h.</desc>
<speed>5.800000</speed>
</trkpt>
<trkpt lat="55.731426" lon="26.051620">
<ele>153.486450</ele>
<time>2010-07-17T17:56:20Z</time>
<desc>lat.=55.731426, lon.=26.051620, Alt.=153.486450m. Speed=20.664000m/h.</desc>
<speed>5.740000</speed>
</trkpt>
<trkpt lat="55.731396" lon="26.051699">
<ele>153.267700</ele>
<time>2010-07-17T17:56:21Z</time>
<desc>lat.=55.731396, lon.=26.051699, Alt.=153.267700m. Speed=21.312000m/h.</desc>
<speed>5.920000</speed>
</trkpt>
<trkpt lat="55.731361" lon="26.051771">
<ele>153.865356</ele>
<time>2010-07-17T17:56:22Z</time>
<desc>lat.=55.731361, lon.=26.051771, Alt.=153.865356m. Speed=20.808001m/h.</desc>
<speed>5.780000</speed>
</trkpt>
<trkpt lat="55.731335" lon="26.051849">
<ele>154.353638</ele>
<time>2010-07-17T17:56:23Z</time>
<desc>lat.=55.731335, lon.=26.051849, Alt.=154.353638m. Speed=21.204000m/h.</desc>
<speed>5.890000</speed>
</trkpt>
<trkpt lat="55.731297" lon="26.051922">
<ele>154.748169</ele>
<time>2010-07-17T17:56:24Z</time>
<desc>lat.=55.731297, lon.=26.051922, Alt.=154.748169m. Speed=21.348000m/h.</desc>
<speed>5.930000</speed>
</trkpt>
<trkpt lat="55.731262" lon="26.052000">
<ele>155.423950</ele>
<time>2010-07-17T17:56:25Z</time>
<desc>lat.=55.731262, lon.=26.052000, Alt.=155.423950m. Speed=23.615999m/h.</desc>
<speed>6.560000</speed>
</trkpt>
<trkpt lat="55.731224" lon="26.052084">
<ele>157.420044</ele>
<time>2010-07-17T17:56:26Z</time>
<desc>lat.=55.731224, lon.=26.052084, Alt.=157.420044m. Speed=20.988001m/h.</desc>
<speed>5.830000</speed>
</trkpt>
<trkpt lat="55.731194" lon="26.052164">
<ele>158.322388</ele>
<time>2010-07-17T17:56:27Z</time>
<desc>lat.=55.731194, lon.=26.052164, Alt.=158.322388m. Speed=20.591999m/h.</desc>
<speed>5.720000</speed>
</trkpt>
<trkpt lat="55.731159" lon="26.052238">
<ele>159.041138</ele>
<time>2010-07-17T17:56:28Z</time>
<desc>lat.=55.731159, lon.=26.052238, Alt.=159.041138m. Speed=20.448000m/h.</desc>
<speed>5.680000</speed>
</trkpt>
<trkpt lat="55.731129" lon="26.052311">
<ele>159.404419</ele>
<time>2010-07-17T17:56:29Z</time>
<desc>lat.=55.731129, lon.=26.052311, Alt.=159.404419m. Speed=20.952000m/h.</desc>
<speed>5.820000</speed>
</trkpt>
<trkpt lat="55.731098" lon="26.052382">
<ele>159.537231</ele>
<time>2010-07-17T17:56:30Z</time>
<desc>lat.=55.731098, lon.=26.052382, Alt.=159.537231m. Speed=20.375999m/h.</desc>
<speed>5.660000</speed>
</trkpt>
<trkpt lat="55.731071" lon="26.052450">
<ele>159.795044</ele>
<time>2010-07-17T17:56:31Z</time>
<desc>lat.=55.731071, lon.=26.052450, Alt.=159.795044m. Speed=19.296000m/h.</desc>
<speed>5.360000</speed>
</trkpt>
<trkpt lat="55.731037" lon="26.052519">
<ele>160.713013</ele>
<time>2010-07-17T17:56:32Z</time>
<desc>lat.=55.731037, lon.=26.052519, Alt.=160.713013m. Speed=18.504000m/h.</desc>
<speed>5.140000</speed>
</trkpt>
<trkpt lat="55.730995" lon="26.052578">
<ele>160.123169</ele>
<time>2010-07-17T17:56:33Z</time>
<desc>lat.=55.730995, lon.=26.052578, Alt.=160.123169m. Speed=17.388000m/h.</desc>
<speed>4.830000</speed>
</trkpt>
<trkpt lat="55.730961" lon="26.052635">
<ele>158.529419</ele>
<time>2010-07-17T17:56:34Z</time>
<desc>lat.=55.730961, lon.=26.052635, Alt.=158.529419m. Speed=17.351999m/h.</desc>
<speed>4.820000</speed>
</trkpt>
<trkpt lat="55.730930" lon="26.052700">
<ele>157.689575</ele>
<time>2010-07-17T17:56:35Z</time>
<desc>lat.=55.730930, lon.=26.052700, Alt.=157.689575m. Speed=18.072001m/h.</desc>
<speed>5.020000</speed>
</trkpt>
<trkpt lat="55.730904" lon="26.052759">
<ele>157.322388</ele>
<time>2010-07-17T17:56:36Z</time>
<desc>lat.=55.730904, lon.=26.052759, Alt.=157.322388m. Speed=17.747999m/h.</desc>
<speed>4.930000</speed>
</trkpt>
<trkpt lat="55.730873" lon="26.052818">
<ele>157.455200</ele>
<time>2010-07-17T17:56:37Z</time>
<desc>lat.=55.730873, lon.=26.052818, Alt.=157.455200m. Speed=18.323999m/h.</desc>
<speed>5.090000</speed>
</trkpt>
<trkpt lat="55.730839" lon="26.052881">
<ele>157.576294</ele>
<time>2010-07-17T17:56:38Z</time>
<desc>lat.=55.730839, lon.=26.052881, Alt.=157.576294m. Speed=18.972000m/h.</desc>
<speed>5.270000</speed>
</trkpt>
<trkpt lat="55.730812" lon="26.052942">
<ele>158.623169</ele>
<time>2010-07-17T17:56:39Z</time>
<desc>lat.=55.730812, lon.=26.052942, Alt.=158.623169m. Speed=18.035999m/h.</desc>
<speed>5.010000</speed>
</trkpt>
<trkpt lat="55.730789" lon="26.053001">
<ele>159.814575</ele>
<time>2010-07-17T17:56:40Z</time>
<desc>lat.=55.730789, lon.=26.053001, Alt.=159.814575m. Speed=17.927999m/h.</desc>
<speed>4.980000</speed>
</trkpt>
<trkpt lat="55.730759" lon="26.053068">
<ele>160.080200</ele>
<time>2010-07-17T17:56:41Z</time>
<desc>lat.=55.730759, lon.=26.053068, Alt.=160.080200m. Speed=18.576000m/h.</desc>
<speed>5.160000</speed>
</trkpt>
<trkpt lat="55.730728" lon="26.053135">
<ele>160.353638</ele>
<time>2010-07-17T17:56:42Z</time>
<desc>lat.=55.730728, lon.=26.053135, Alt.=160.353638m. Speed=19.115999m/h.</desc>
<speed>5.310000</speed>
</trkpt>
<trkpt lat="55.730698" lon="26.053196">
<ele>159.318481</ele>
<time>2010-07-17T17:56:43Z</time>
<desc>lat.=55.730698, lon.=26.053196, Alt.=159.318481m. Speed=18.396000m/h.</desc>
<speed>5.110000</speed>
</trkpt>
<trkpt lat="55.730663" lon="26.053265">
<ele>159.201294</ele>
<time>2010-07-17T17:56:44Z</time>
<desc>lat.=55.730663, lon.=26.053265, Alt.=159.201294m. Speed=20.483999m/h.</desc>
<speed>5.690000</speed>
</trkpt>
<trkpt lat="55.730633" lon="26.053343">
<ele>159.400513</ele>
<time>2010-07-17T17:56:45Z</time>
<desc>lat.=55.730633, lon.=26.053343, Alt.=159.400513m. Speed=21.888000m/h.</desc>
<speed>6.080000</speed>
</trkpt>
<trkpt lat="55.730598" lon="26.053413">
<ele>159.127075</ele>
<time>2010-07-17T17:56:46Z</time>
<desc>lat.=55.730598, lon.=26.053413, Alt.=159.127075m. Speed=20.952000m/h.</desc>
<speed>5.820000</speed>
</trkpt>
<trkpt lat="55.730560" lon="26.053499">
<ele>158.334106</ele>
<time>2010-07-17T17:56:47Z</time>
<desc>lat.=55.730560, lon.=26.053499, Alt.=158.334106m. Speed=24.264000m/h.</desc>
<speed>6.740000</speed>
</trkpt>
<trkpt lat="55.730518" lon="26.053577">
<ele>157.455200</ele>
<time>2010-07-17T17:56:48Z</time>
<desc>lat.=55.730518, lon.=26.053577, Alt.=157.455200m. Speed=24.299999m/h.</desc>
<speed>6.750000</speed>
</trkpt>
<trkpt lat="55.730480" lon="26.053661">
<ele>156.943481</ele>
<time>2010-07-17T17:56:49Z</time>
<desc>lat.=55.730480, lon.=26.053661, Alt.=156.943481m. Speed=25.955999m/h.</desc>
<speed>7.210000</speed>
</trkpt>
<trkpt lat="55.730438" lon="26.053757">
<ele>156.310669</ele>
<time>2010-07-17T17:56:50Z</time>
<desc>lat.=55.730438, lon.=26.053757, Alt.=156.310669m. Speed=27.468000m/h.</desc>
<speed>7.630000</speed>
</trkpt>
<trkpt lat="55.730392" lon="26.053850">
<ele>155.767700</ele>
<time>2010-07-17T17:56:51Z</time>
<desc>lat.=55.730392, lon.=26.053850, Alt.=155.767700m. Speed=27.864000m/h.</desc>
<speed>7.740000</speed>
</trkpt>
<trkpt lat="55.730347" lon="26.053938">
<ele>155.384888</ele>
<time>2010-07-17T17:56:52Z</time>
<desc>lat.=55.730347, lon.=26.053938, Alt.=155.384888m. Speed=27.864000m/h.</desc>
<speed>7.740000</speed>
</trkpt>
<trkpt lat="55.730297" lon="26.054026">
<ele>155.709106</ele>
<time>2010-07-17T17:56:53Z</time>
<desc>lat.=55.730297, lon.=26.054026, Alt.=155.709106m. Speed=27.936001m/h.</desc>
<speed>7.760000</speed>
</trkpt>
<trkpt lat="55.730251" lon="26.054111">
<ele>156.236450</ele>
<time>2010-07-17T17:56:54Z</time>
<desc>lat.=55.730251, lon.=26.054111, Alt.=156.236450m. Speed=27.396000m/h.</desc>
<speed>7.610000</speed>
</trkpt>
<trkpt lat="55.730202" lon="26.054197">
<ele>156.634888</ele>
<time>2010-07-17T17:56:55Z</time>
<desc>lat.=55.730202, lon.=26.054197, Alt.=156.634888m. Speed=27.216000m/h.</desc>
<speed>7.560000</speed>
</trkpt>
<trkpt lat="55.730148" lon="26.054281">
<ele>156.279419</ele>
<time>2010-07-17T17:56:56Z</time>
<desc>lat.=55.730148, lon.=26.054281, Alt.=156.279419m. Speed=27.827999m/h.</desc>
<speed>7.730000</speed>
</trkpt>
<trkpt lat="55.730099" lon="26.054367">
<ele>157.275513</ele>
<time>2010-07-17T17:56:57Z</time>
<desc>lat.=55.730099, lon.=26.054367, Alt.=157.275513m. Speed=28.044001m/h.</desc>
<speed>7.790000</speed>
</trkpt>
<trkpt lat="55.730053" lon="26.054462">
<ele>158.404419</ele>
<time>2010-07-17T17:56:58Z</time>
<desc>lat.=55.730053, lon.=26.054462, Alt.=158.404419m. Speed=28.080000m/h.</desc>
<speed>7.800000</speed>
</trkpt>
<trkpt lat="55.730003" lon="26.054554">
<ele>158.826294</ele>
<time>2010-07-17T17:56:59Z</time>
<desc>lat.=55.730003, lon.=26.054554, Alt.=158.826294m. Speed=27.576000m/h.</desc>
<speed>7.660000</speed>
</trkpt>
<trkpt lat="55.729954" lon="26.054646">
<ele>158.123169</ele>
<time>2010-07-17T17:57:00Z</time>
<desc>lat.=55.729954, lon.=26.054646, Alt.=158.123169m. Speed=26.892000m/h.</desc>
<speed>7.470000</speed>
</trkpt>
<trkpt lat="55.729904" lon="26.054728">
<ele>156.345825</ele>
<time>2010-07-17T17:57:01Z</time>
<desc>lat.=55.729904, lon.=26.054728, Alt.=156.345825m. Speed=25.704000m/h.</desc>
<speed>7.140000</speed>
</trkpt>
<trkpt lat="55.729855" lon="26.054808">
<ele>156.666138</ele>
<time>2010-07-17T17:57:02Z</time>
<desc>lat.=55.729855, lon.=26.054808, Alt.=156.666138m. Speed=25.992001m/h.</desc>
<speed>7.220000</speed>
</trkpt>
<trkpt lat="55.729805" lon="26.054882">
<ele>156.697388</ele>
<time>2010-07-17T17:57:03Z</time>
<desc>lat.=55.729805, lon.=26.054882, Alt.=156.697388m. Speed=23.976000m/h.</desc>
<speed>6.660000</speed>
</trkpt>
<trkpt lat="55.729767" lon="26.054951">
<ele>156.552856</ele>
<time>2010-07-17T17:57:04Z</time>
<desc>lat.=55.729767, lon.=26.054951, Alt.=156.552856m. Speed=21.959999m/h.</desc>
<speed>6.100000</speed>
</trkpt>
<trkpt lat="55.729729" lon="26.055016">
<ele>156.459106</ele>
<time>2010-07-17T17:57:05Z</time>
<desc>lat.=55.729729, lon.=26.055016, Alt.=156.459106m. Speed=18.143999m/h.</desc>
<speed>5.040000</speed>
</trkpt>
<trkpt lat="55.729698" lon="26.055073">
<ele>156.509888</ele>
<time>2010-07-17T17:57:06Z</time>
<desc>lat.=55.729698, lon.=26.055073, Alt.=156.509888m. Speed=17.532000m/h.</desc>
<speed>4.870000</speed>
</trkpt>
<trkpt lat="55.729668" lon="26.055128">
<ele>156.595825</ele>
<time>2010-07-17T17:57:07Z</time>
<desc>lat.=55.729668, lon.=26.055128, Alt.=156.595825m. Speed=16.775999m/h.</desc>
<speed>4.660000</speed>
</trkpt>
<trkpt lat="55.729630" lon="26.055185">
<ele>156.673950</ele>
<time>2010-07-17T17:57:08Z</time>
<desc>lat.=55.729630, lon.=26.055185, Alt.=156.673950m. Speed=19.799999m/h.</desc>
<speed>5.500000</speed>
</trkpt>
<trkpt lat="55.729591" lon="26.055239">
<ele>157.068481</ele>
<time>2010-07-17T17:57:09Z</time>
<desc>lat.=55.729591, lon.=26.055239, Alt.=157.068481m. Speed=19.007999m/h.</desc>
<speed>5.280000</speed>
</trkpt>
<trkpt lat="55.729553" lon="26.055298">
<ele>157.505981</ele>
<time>2010-07-17T17:57:10Z</time>
<desc>lat.=55.729553, lon.=26.055298, Alt.=157.505981m. Speed=19.332001m/h.</desc>
<speed>5.370000</speed>
</trkpt>
<trkpt lat="55.729519" lon="26.055353">
<ele>157.841919</ele>
<time>2010-07-17T17:57:11Z</time>
<desc>lat.=55.729519, lon.=26.055353, Alt.=157.841919m. Speed=18.864000m/h.</desc>
<speed>5.240000</speed>
</trkpt>
<trkpt lat="55.729481" lon="26.055412">
<ele>158.146606</ele>
<time>2010-07-17T17:57:12Z</time>
<desc>lat.=55.729481, lon.=26.055412, Alt.=158.146606m. Speed=19.764000m/h.</desc>
<speed>5.490000</speed>
</trkpt>
<trkpt lat="55.729450" lon="26.055483">
<ele>157.927856</ele>
<time>2010-07-17T17:57:13Z</time>
<desc>lat.=55.729450, lon.=26.055483, Alt.=157.927856m. Speed=18.612000m/h.</desc>
<speed>5.170000</speed>
</trkpt>
<trkpt lat="55.729420" lon="26.055532">
<ele>157.216919</ele>
<time>2010-07-17T17:57:14Z</time>
<desc>lat.=55.729420, lon.=26.055532, Alt.=157.216919m. Speed=14.148000m/h.</desc>
<speed>3.930000</speed>
</trkpt>
<trkpt lat="55.729382" lon="26.055586">
<ele>156.814575</ele>
<time>2010-07-17T17:57:15Z</time>
<desc>lat.=55.729382, lon.=26.055586, Alt.=156.814575m. Speed=20.232000m/h.</desc>
<speed>5.620000</speed>
</trkpt>
<trkpt lat="55.729347" lon="26.055647">
<ele>156.709106</ele>
<time>2010-07-17T17:57:16Z</time>
<desc>lat.=55.729347, lon.=26.055647, Alt.=156.709106m. Speed=19.980000m/h.</desc>
<speed>5.550000</speed>
</trkpt>
<trkpt lat="55.729305" lon="26.055716">
<ele>156.732544</ele>
<time>2010-07-17T17:57:17Z</time>
<desc>lat.=55.729305, lon.=26.055716, Alt.=156.732544m. Speed=20.664000m/h.</desc>
<speed>5.740000</speed>
</trkpt>
<trkpt lat="55.729263" lon="26.055790">
<ele>156.896606</ele>
<time>2010-07-17T17:57:18Z</time>
<desc>lat.=55.729263, lon.=26.055790, Alt.=156.896606m. Speed=20.952000m/h.</desc>
<speed>5.820000</speed>
</trkpt>
<trkpt lat="55.729218" lon="26.055859">
<ele>156.857544</ele>
<time>2010-07-17T17:57:19Z</time>
<desc>lat.=55.729218, lon.=26.055859, Alt.=156.857544m. Speed=20.268000m/h.</desc>
<speed>5.630000</speed>
</trkpt>
<trkpt lat="55.729179" lon="26.055916">
<ele>156.658325</ele>
<time>2010-07-17T17:57:20Z</time>
<desc>lat.=55.729179, lon.=26.055916, Alt.=156.658325m. Speed=19.224001m/h.</desc>
<speed>5.340000</speed>
</trkpt>
<trkpt lat="55.729141" lon="26.055971">
<ele>156.755981</ele>
<time>2010-07-17T17:57:21Z</time>
<desc>lat.=55.729141, lon.=26.055971, Alt.=156.755981m. Speed=17.964001m/h.</desc>
<speed>4.990000</speed>
</trkpt>
<trkpt lat="55.729107" lon="26.056034">
<ele>156.791138</ele>
<time>2010-07-17T17:57:22Z</time>
<desc>lat.=55.729107, lon.=26.056034, Alt.=156.791138m. Speed=18.108000m/h.</desc>
<speed>5.030000</speed>
</trkpt>
<trkpt lat="55.729069" lon="26.056093">
<ele>156.646606</ele>
<time>2010-07-17T17:57:23Z</time>
<desc>lat.=55.729069, lon.=26.056093, Alt.=156.646606m. Speed=19.368000m/h.</desc>
<speed>5.380000</speed>
</trkpt>
<trkpt lat="55.729023" lon="26.056147">
<ele>156.326294</ele>
<time>2010-07-17T17:57:24Z</time>
<desc>lat.=55.729023, lon.=26.056147, Alt.=156.326294m. Speed=20.916000m/h.</desc>
<speed>5.810000</speed>
</trkpt>
<trkpt lat="55.728973" lon="26.056192">
<ele>155.248169</ele>
<time>2010-07-17T17:57:25Z</time>
<desc>lat.=55.728973, lon.=26.056192, Alt.=155.248169m. Speed=21.240000m/h.</desc>
<speed>5.900000</speed>
</trkpt>
<trkpt lat="55.728924" lon="26.056250">
<ele>154.115356</ele>
<time>2010-07-17T17:57:26Z</time>
<desc>lat.=55.728924, lon.=26.056250, Alt.=154.115356m. Speed=20.340000m/h.</desc>
<speed>5.650000</speed>
</trkpt>
<trkpt lat="55.728889" lon="26.056313">
<ele>154.173950</ele>
<time>2010-07-17T17:57:27Z</time>
<desc>lat.=55.728889, lon.=26.056313, Alt.=154.173950m. Speed=17.820000m/h.</desc>
<speed>4.950000</speed>
</trkpt>
<trkpt lat="55.728855" lon="26.056379">
<ele>154.595825</ele>
<time>2010-07-17T17:57:28Z</time>
<desc>lat.=55.728855, lon.=26.056379, Alt.=154.595825m. Speed=17.208000m/h.</desc>
<speed>4.780000</speed>
</trkpt>
<trkpt lat="55.728821" lon="26.056427">
<ele>154.767700</ele>
<time>2010-07-17T17:57:29Z</time>
<desc>lat.=55.728821, lon.=26.056427, Alt.=154.767700m. Speed=13.248000m/h.</desc>
<speed>3.680000</speed>
</trkpt>
<trkpt lat="55.728790" lon="26.056475">
<ele>154.783325</ele>
<time>2010-07-17T17:57:30Z</time>
<desc>lat.=55.728790, lon.=26.056475, Alt.=154.783325m. Speed=13.536000m/h.</desc>
<speed>3.760000</speed>
</trkpt>
<trkpt lat="55.728760" lon="26.056511">
<ele>154.525513</ele>
<time>2010-07-17T17:57:31Z</time>
<desc>lat.=55.728760, lon.=26.056511, Alt.=154.525513m. Speed=14.472000m/h.</desc>
<speed>4.020000</speed>
</trkpt>
<trkpt lat="55.728733" lon="26.056543">
<ele>154.701294</ele>
<time>2010-07-17T17:57:32Z</time>
<desc>lat.=55.728733, lon.=26.056543, Alt.=154.701294m. Speed=11.268000m/h.</desc>
<speed>3.130000</speed>
</trkpt>
<trkpt lat="55.728706" lon="26.056585">
<ele>155.869263</ele>
<time>2010-07-17T17:57:33Z</time>
<desc>lat.=55.728706, lon.=26.056585, Alt.=155.869263m. Speed=14.076000m/h.</desc>
<speed>3.910000</speed>
</trkpt>
<trkpt lat="55.728680" lon="26.056627">
<ele>156.330200</ele>
<time>2010-07-17T17:57:34Z</time>
<desc>lat.=55.728680, lon.=26.056627, Alt.=156.330200m. Speed=12.960000m/h.</desc>
<speed>3.600000</speed>
</trkpt>
<trkpt lat="55.728653" lon="26.056660">
<ele>156.736450</ele>
<time>2010-07-17T17:57:35Z</time>
<desc>lat.=55.728653, lon.=26.056660, Alt.=156.736450m. Speed=11.880000m/h.</desc>
<speed>3.300000</speed>
</trkpt>
<trkpt lat="55.728626" lon="26.056696">
<ele>157.681763</ele>
<time>2010-07-17T17:57:36Z</time>
<desc>lat.=55.728626, lon.=26.056696, Alt.=157.681763m. Speed=12.132000m/h.</desc>
<speed>3.370000</speed>
</trkpt>
<trkpt lat="55.728600" lon="26.056736">
<ele>157.685669</ele>
<time>2010-07-17T17:57:37Z</time>
<desc>lat.=55.728600, lon.=26.056736, Alt.=157.685669m. Speed=13.464000m/h.</desc>
<speed>3.740000</speed>
</trkpt>
<trkpt lat="55.728561" lon="26.056774">
<ele>157.923950</ele>
<time>2010-07-17T17:57:38Z</time>
<desc>lat.=55.728561, lon.=26.056774, Alt.=157.923950m. Speed=14.652000m/h.</desc>
<speed>4.070000</speed>
</trkpt>
<trkpt lat="55.728527" lon="26.056818">
<ele>157.955200</ele>
<time>2010-07-17T17:57:39Z</time>
<desc>lat.=55.728527, lon.=26.056818, Alt.=157.955200m. Speed=15.624000m/h.</desc>
<speed>4.340000</speed>
</trkpt>
<trkpt lat="55.728493" lon="26.056850">
<ele>158.310669</ele>
<time>2010-07-17T17:57:40Z</time>
<desc>lat.=55.728493, lon.=26.056850, Alt.=158.310669m. Speed=14.040000m/h.</desc>
<speed>3.900000</speed>
</trkpt>
<trkpt lat="55.728458" lon="26.056885">
<ele>158.525513</ele>
<time>2010-07-17T17:57:41Z</time>
<desc>lat.=55.728458, lon.=26.056885, Alt.=158.525513m. Speed=14.508000m/h.</desc>
<speed>4.030000</speed>
</trkpt>
<trkpt lat="55.728424" lon="26.056919">
<ele>158.877075</ele>
<time>2010-07-17T17:57:42Z</time>
<desc>lat.=55.728424, lon.=26.056919, Alt.=158.877075m. Speed=13.536000m/h.</desc>
<speed>3.760000</speed>
</trkpt>
<trkpt lat="55.728386" lon="26.056955">
<ele>159.654419</ele>
<time>2010-07-17T17:57:43Z</time>
<desc>lat.=55.728386, lon.=26.056955, Alt.=159.654419m. Speed=15.192000m/h.</desc>
<speed>4.220000</speed>
</trkpt>
<trkpt lat="55.728344" lon="26.056993">
<ele>160.224731</ele>
<time>2010-07-17T17:57:44Z</time>
<desc>lat.=55.728344, lon.=26.056993, Alt.=160.224731m. Speed=16.200001m/h.</desc>
<speed>4.500000</speed>
</trkpt>
<trkpt lat="55.728306" lon="26.057028">
<ele>160.119263</ele>
<time>2010-07-17T17:57:45Z</time>
<desc>lat.=55.728306, lon.=26.057028, Alt.=160.119263m. Speed=12.672000m/h.</desc>
<speed>3.520000</speed>
</trkpt>
<trkpt lat="55.728264" lon="26.057064">
<ele>160.884888</ele>
<time>2010-07-17T17:57:46Z</time>
<desc>lat.=55.728264, lon.=26.057064, Alt.=160.884888m. Speed=15.660000m/h.</desc>
<speed>4.350000</speed>
</trkpt>
<trkpt lat="55.728222" lon="26.057096">
<ele>161.275513</ele>
<time>2010-07-17T17:57:47Z</time>
<desc>lat.=55.728222, lon.=26.057096, Alt.=161.275513m. Speed=15.768000m/h.</desc>
<speed>4.380000</speed>
</trkpt>
<trkpt lat="55.728176" lon="26.057127">
<ele>161.900513</ele>
<time>2010-07-17T17:57:48Z</time>
<desc>lat.=55.728176, lon.=26.057127, Alt.=161.900513m. Speed=14.760000m/h.</desc>
<speed>4.100000</speed>
</trkpt>
<trkpt lat="55.728130" lon="26.057156">
<ele>163.060669</ele>
<time>2010-07-17T17:57:49Z</time>
<desc>lat.=55.728130, lon.=26.057156, Alt.=163.060669m. Speed=14.040000m/h.</desc>
<speed>3.900000</speed>
</trkpt>
<trkpt lat="55.728088" lon="26.057177">
<ele>163.021606</ele>
<time>2010-07-17T17:57:50Z</time>
<desc>lat.=55.728088, lon.=26.057177, Alt.=163.021606m. Speed=13.284000m/h.</desc>
<speed>3.690000</speed>
</trkpt>
<trkpt lat="55.728043" lon="26.057188">
<ele>162.681763</ele>
<time>2010-07-17T17:57:51Z</time>
<desc>lat.=55.728043, lon.=26.057188, Alt.=162.681763m. Speed=12.564000m/h.</desc>
<speed>3.490000</speed>
</trkpt>
<trkpt lat="55.727993" lon="26.057203">
<ele>162.619263</ele>
<time>2010-07-17T17:57:52Z</time>
<desc>lat.=55.727993, lon.=26.057203, Alt.=162.619263m. Speed=13.572000m/h.</desc>
<speed>3.770000</speed>
</trkpt>
<trkpt lat="55.727955" lon="26.057203">
<ele>162.927856</ele>
<time>2010-07-17T17:57:53Z</time>
<desc>lat.=55.727955, lon.=26.057203, Alt.=162.927856m. Speed=9.396000m/h.</desc>
<speed>2.610000</speed>
</trkpt>
<trkpt lat="55.727917" lon="26.057224">
<ele>163.255981</ele>
<time>2010-07-17T17:57:54Z</time>
<desc>lat.=55.727917, lon.=26.057224, Alt.=163.255981m. Speed=10.044000m/h.</desc>
<speed>2.790000</speed>
</trkpt>
<trkpt lat="55.727886" lon="26.057240">
<ele>163.185669</ele>
<time>2010-07-17T17:57:55Z</time>
<desc>lat.=55.727886, lon.=26.057240, Alt.=163.185669m. Speed=8.532000m/h.</desc>
<speed>2.370000</speed>
</trkpt>
<trkpt lat="55.727859" lon="26.057245">
<ele>164.521606</ele>
<time>2010-07-17T17:57:56Z</time>
<desc>lat.=55.727859, lon.=26.057245, Alt.=164.521606m. Speed=6.732000m/h.</desc>
<speed>1.870000</speed>
</trkpt>
<trkpt lat="55.727837" lon="26.057259">
<ele>164.056763</ele>
<time>2010-07-17T17:57:57Z</time>
<desc>lat.=55.727837, lon.=26.057259, Alt.=164.056763m. Speed=5.472000m/h.</desc>
<speed>1.520000</speed>
</trkpt>
<trkpt lat="55.727810" lon="26.057287">
<ele>163.974731</ele>
<time>2010-07-17T17:57:58Z</time>
<desc>lat.=55.727810, lon.=26.057287, Alt.=163.974731m. Speed=6.444000m/h.</desc>
<speed>1.790000</speed>
</trkpt>
<trkpt lat="55.727787" lon="26.057308">
<ele>164.084106</ele>
<time>2010-07-17T17:57:59Z</time>
<desc>lat.=55.727787, lon.=26.057308, Alt.=164.084106m. Speed=6.984000m/h.</desc>
<speed>1.940000</speed>
</trkpt>
<trkpt lat="55.727757" lon="26.057323">
<ele>164.607544</ele>
<time>2010-07-17T17:58:00Z</time>
<desc>lat.=55.727757, lon.=26.057323, Alt.=164.607544m. Speed=8.316000m/h.</desc>
<speed>2.310000</speed>
</trkpt>
<trkpt lat="55.727737" lon="26.057341">
<ele>164.990356</ele>
<time>2010-07-17T17:58:01Z</time>
<desc>lat.=55.727737, lon.=26.057341, Alt.=164.990356m. Speed=7.056000m/h.</desc>
<speed>1.960000</speed>
</trkpt>
<trkpt lat="55.727707" lon="26.057354">
<ele>165.482544</ele>
<time>2010-07-17T17:58:02Z</time>
<desc>lat.=55.727707, lon.=26.057354, Alt.=165.482544m. Speed=9.180000m/h.</desc>
<speed>2.550000</speed>
</trkpt>
<trkpt lat="55.727684" lon="26.057360">
<ele>165.470825</ele>
<time>2010-07-17T17:58:03Z</time>
<desc>lat.=55.727684, lon.=26.057360, Alt.=165.470825m. Speed=8.316000m/h.</desc>
<speed>2.310000</speed>
</trkpt>
<trkpt lat="55.727657" lon="26.057377">
<ele>165.177856</ele>
<time>2010-07-17T17:58:04Z</time>
<desc>lat.=55.727657, lon.=26.057377, Alt.=165.177856m. Speed=8.820000m/h.</desc>
<speed>2.450000</speed>
</trkpt>
<trkpt lat="55.727623" lon="26.057402">
<ele>164.373169</ele>
<time>2010-07-17T17:58:05Z</time>
<desc>lat.=55.727623, lon.=26.057402, Alt.=164.373169m. Speed=9.000000m/h.</desc>
<speed>2.500000</speed>
</trkpt>
<trkpt lat="55.727596" lon="26.057388">
<ele>164.322388</ele>
<time>2010-07-17T17:58:06Z</time>
<desc>lat.=55.727596, lon.=26.057388, Alt.=164.322388m. Speed=9.252000m/h.</desc>
<speed>2.570000</speed>
</trkpt>
<trkpt lat="55.727570" lon="26.057392">
<ele>164.017700</ele>
<time>2010-07-17T17:58:07Z</time>
<desc>lat.=55.727570, lon.=26.057392, Alt.=164.017700m. Speed=7.920000m/h.</desc>
<speed>2.200000</speed>
</trkpt>
<trkpt lat="55.727543" lon="26.057409">
<ele>164.158325</ele>
<time>2010-07-17T17:58:08Z</time>
<desc>lat.=55.727543, lon.=26.057409, Alt.=164.158325m. Speed=9.144000m/h.</desc>
<speed>2.540000</speed>
</trkpt>
<trkpt lat="55.727512" lon="26.057430">
<ele>163.584106</ele>
<time>2010-07-17T17:58:09Z</time>
<desc>lat.=55.727512, lon.=26.057430, Alt.=163.584106m. Speed=7.704000m/h.</desc>
<speed>2.140000</speed>
</trkpt>
<trkpt lat="55.727474" lon="26.057463">
<ele>162.584106</ele>
<time>2010-07-17T17:58:10Z</time>
<desc>lat.=55.727474, lon.=26.057463, Alt.=162.584106m. Speed=8.892000m/h.</desc>
<speed>2.470000</speed>
</trkpt>
<trkpt lat="55.727444" lon="26.057484">
<ele>162.048950</ele>
<time>2010-07-17T17:58:11Z</time>
<desc>lat.=55.727444, lon.=26.057484, Alt.=162.048950m. Speed=8.280000m/h.</desc>
<speed>2.300000</speed>
</trkpt>
<trkpt lat="55.727421" lon="26.057495">
<ele>161.931763</ele>
<time>2010-07-17T17:58:12Z</time>
<desc>lat.=55.727421, lon.=26.057495, Alt.=161.931763m. Speed=7.704000m/h.</desc>
<speed>2.140000</speed>
</trkpt>
<trkpt lat="55.727386" lon="26.057501">
<ele>161.888794</ele>
<time>2010-07-17T17:58:13Z</time>
<desc>lat.=55.727386, lon.=26.057501, Alt.=161.888794m. Speed=8.064000m/h.</desc>
<speed>2.240000</speed>
</trkpt>
<trkpt lat="55.727337" lon="26.057531">
<ele>160.252075</ele>
<time>2010-07-17T17:58:14Z</time>
<desc>lat.=55.727337, lon.=26.057531, Alt.=160.252075m. Speed=9.072000m/h.</desc>
<speed>2.520000</speed>
</trkpt>
<trkpt lat="55.727306" lon="26.057545">
<ele>160.357544</ele>
<time>2010-07-17T17:58:15Z</time>
<desc>lat.=55.727306, lon.=26.057545, Alt.=160.357544m. Speed=8.136000m/h.</desc>
<speed>2.260000</speed>
</trkpt>
<trkpt lat="55.727268" lon="26.057566">
<ele>159.373169</ele>
<time>2010-07-17T17:58:16Z</time>
<desc>lat.=55.727268, lon.=26.057566, Alt.=159.373169m. Speed=8.064000m/h.</desc>
<speed>2.240000</speed>
</trkpt>
<trkpt lat="55.727245" lon="26.057571">
<ele>159.365356</ele>
<time>2010-07-17T17:58:17Z</time>
<desc>lat.=55.727245, lon.=26.057571, Alt.=159.365356m. Speed=7.020000m/h.</desc>
<speed>1.950000</speed>
</trkpt>
<trkpt lat="55.727222" lon="26.057579">
<ele>159.298950</ele>
<time>2010-07-17T17:58:18Z</time>
<desc>lat.=55.727222, lon.=26.057579, Alt.=159.298950m. Speed=7.992000m/h.</desc>
<speed>2.220000</speed>
</trkpt>
<trkpt lat="55.727184" lon="26.057596">
<ele>159.654419</ele>
<time>2010-07-17T17:58:19Z</time>
<desc>lat.=55.727184, lon.=26.057596, Alt.=159.654419m. Speed=11.232000m/h.</desc>
<speed>3.120000</speed>
</trkpt>
<trkpt lat="55.727150" lon="26.057617">
<ele>159.798950</ele>
<time>2010-07-17T17:58:20Z</time>
<desc>lat.=55.727150, lon.=26.057617, Alt.=159.798950m. Speed=11.376000m/h.</desc>
<speed>3.160000</speed>
</trkpt>
<trkpt lat="55.727104" lon="26.057650">
<ele>160.146606</ele>
<time>2010-07-17T17:58:21Z</time>
<desc>lat.=55.727104, lon.=26.057650, Alt.=160.146606m. Speed=14.688000m/h.</desc>
<speed>4.080000</speed>
</trkpt>
<trkpt lat="55.727058" lon="26.057680">
<ele>160.213013</ele>
<time>2010-07-17T17:58:22Z</time>
<desc>lat.=55.727058, lon.=26.057680, Alt.=160.213013m. Speed=15.876000m/h.</desc>
<speed>4.410000</speed>
</trkpt>
<trkpt lat="55.727005" lon="26.057726">
<ele>160.209106</ele>
<time>2010-07-17T17:58:23Z</time>
<desc>lat.=55.727005, lon.=26.057726, Alt.=160.209106m. Speed=17.676001m/h.</desc>
<speed>4.910000</speed>
</trkpt>
<trkpt lat="55.726955" lon="26.057774">
<ele>159.896606</ele>
<time>2010-07-17T17:58:24Z</time>
<desc>lat.=55.726955, lon.=26.057774, Alt.=159.896606m. Speed=20.268000m/h.</desc>
<speed>5.630000</speed>
</trkpt>
<trkpt lat="55.726906" lon="26.057810">
<ele>160.326294</ele>
<time>2010-07-17T17:58:25Z</time>
<desc>lat.=55.726906, lon.=26.057810, Alt.=160.326294m. Speed=20.340000m/h.</desc>
<speed>5.650000</speed>
</trkpt>
<trkpt lat="55.726852" lon="26.057850">
<ele>160.505981</ele>
<time>2010-07-17T17:58:26Z</time>
<desc>lat.=55.726852, lon.=26.057850, Alt.=160.505981m. Speed=22.823999m/h.</desc>
<speed>6.340000</speed>
</trkpt>
<trkpt lat="55.726788" lon="26.057896">
<ele>160.224731</ele>
<time>2010-07-17T17:58:27Z</time>
<desc>lat.=55.726788, lon.=26.057896, Alt.=160.224731m. Speed=23.615999m/h.</desc>
<speed>6.560000</speed>
</trkpt>
<trkpt lat="55.726734" lon="26.057947">
<ele>159.822388</ele>
<time>2010-07-17T17:58:28Z</time>
<desc>lat.=55.726734, lon.=26.057947, Alt.=159.822388m. Speed=24.264000m/h.</desc>
<speed>6.740000</speed>
</trkpt>
<trkpt lat="55.726677" lon="26.057993">
<ele>159.572388</ele>
<time>2010-07-17T17:58:29Z</time>
<desc>lat.=55.726677, lon.=26.057993, Alt.=159.572388m. Speed=24.048000m/h.</desc>
<speed>6.680000</speed>
</trkpt>
<trkpt lat="55.726620" lon="26.058050">
<ele>158.990356</ele>
<time>2010-07-17T17:58:30Z</time>
<desc>lat.=55.726620, lon.=26.058050, Alt.=158.990356m. Speed=23.976000m/h.</desc>
<speed>6.660000</speed>
</trkpt>
<trkpt lat="55.726563" lon="26.058121">
<ele>158.443481</ele>
<time>2010-07-17T17:58:31Z</time>
<desc>lat.=55.726563, lon.=26.058121, Alt.=158.443481m. Speed=21.204000m/h.</desc>
<speed>5.890000</speed>
</trkpt>
<trkpt lat="55.726521" lon="26.058172">
<ele>158.240356</ele>
<time>2010-07-17T17:58:32Z</time>
<desc>lat.=55.726521, lon.=26.058172, Alt.=158.240356m. Speed=18.216000m/h.</desc>
<speed>5.060000</speed>
</trkpt>
<trkpt lat="55.726479" lon="26.058220">
<ele>158.048950</ele>
<time>2010-07-17T17:58:33Z</time>
<desc>lat.=55.726479, lon.=26.058220, Alt.=158.048950m. Speed=17.964001m/h.</desc>
<speed>4.990000</speed>
</trkpt>
<trkpt lat="55.726437" lon="26.058252">
<ele>157.236450</ele>
<time>2010-07-17T17:58:34Z</time>
<desc>lat.=55.726437, lon.=26.058252, Alt.=157.236450m. Speed=14.724000m/h.</desc>
<speed>4.090000</speed>
</trkpt>
<trkpt lat="55.726402" lon="26.058273">
<ele>156.759888</ele>
<time>2010-07-17T17:58:35Z</time>
<desc>lat.=55.726402, lon.=26.058273, Alt.=156.759888m. Speed=11.772000m/h.</desc>
<speed>3.270000</speed>
</trkpt>
<trkpt lat="55.726368" lon="26.058294">
<ele>156.127075</ele>
<time>2010-07-17T17:58:36Z</time>
<desc>lat.=55.726368, lon.=26.058294, Alt.=156.127075m. Speed=11.700000m/h.</desc>
<speed>3.250000</speed>
</trkpt>
<trkpt lat="55.726341" lon="26.058327">
<ele>155.951294</ele>
<time>2010-07-17T17:58:37Z</time>
<desc>lat.=55.726341, lon.=26.058327, Alt.=155.951294m. Speed=12.600000m/h.</desc>
<speed>3.500000</speed>
</trkpt>
<trkpt lat="55.726315" lon="26.058357">
<ele>155.767700</ele>
<time>2010-07-17T17:58:38Z</time>
<desc>lat.=55.726315, lon.=26.058357, Alt.=155.767700m. Speed=10.476000m/h.</desc>
<speed>2.910000</speed>
</trkpt>
<trkpt lat="55.726284" lon="26.058390">
<ele>155.545044</ele>
<time>2010-07-17T17:58:39Z</time>
<desc>lat.=55.726284, lon.=26.058390, Alt.=155.545044m. Speed=11.952000m/h.</desc>
<speed>3.320000</speed>
</trkpt>
<trkpt lat="55.726250" lon="26.058416">
<ele>154.724731</ele>
<time>2010-07-17T17:58:40Z</time>
<desc>lat.=55.726250, lon.=26.058416, Alt.=154.724731m. Speed=11.556000m/h.</desc>
<speed>3.210000</speed>
</trkpt>
<trkpt lat="55.726215" lon="26.058439">
<ele>154.302856</ele>
<time>2010-07-17T17:58:41Z</time>
<desc>lat.=55.726215, lon.=26.058439, Alt.=154.302856m. Speed=11.268000m/h.</desc>
<speed>3.130000</speed>
</trkpt>
<trkpt lat="55.726185" lon="26.058470">
<ele>154.271606</ele>
<time>2010-07-17T17:58:42Z</time>
<desc>lat.=55.726185, lon.=26.058470, Alt.=154.271606m. Speed=12.456000m/h.</desc>
<speed>3.460000</speed>
</trkpt>
<trkpt lat="55.726151" lon="26.058493">
<ele>153.670044</ele>
<time>2010-07-17T17:58:43Z</time>
<desc>lat.=55.726151, lon.=26.058493, Alt.=153.670044m. Speed=8.964000m/h.</desc>
<speed>2.490000</speed>
</trkpt>
<trkpt lat="55.726105" lon="26.058514">
<ele>152.990356</ele>
<time>2010-07-17T17:58:44Z</time>
<desc>lat.=55.726105, lon.=26.058514, Alt.=152.990356m. Speed=11.592000m/h.</desc>
<speed>3.220000</speed>
</trkpt>
<trkpt lat="55.726067" lon="26.058523">
<ele>152.779419</ele>
<time>2010-07-17T17:58:45Z</time>
<desc>lat.=55.726067, lon.=26.058523, Alt.=152.779419m. Speed=10.368000m/h.</desc>
<speed>2.880000</speed>
</trkpt>
<trkpt lat="55.726013" lon="26.058563">
<ele>151.826294</ele>
<time>2010-07-17T17:58:46Z</time>
<desc>lat.=55.726013, lon.=26.058563, Alt.=151.826294m. Speed=10.224000m/h.</desc>
<speed>2.840000</speed>
</trkpt>
<trkpt lat="55.725975" lon="26.058596">
<ele>151.197388</ele>
<time>2010-07-17T17:58:47Z</time>
<desc>lat.=55.725975, lon.=26.058596, Alt.=151.197388m. Speed=10.332000m/h.</desc>
<speed>2.870000</speed>
</trkpt>
<trkpt lat="55.725933" lon="26.058628">
<ele>150.361450</ele>
<time>2010-07-17T17:58:48Z</time>
<desc>lat.=55.725933, lon.=26.058628, Alt.=150.361450m. Speed=11.340000m/h.</desc>
<speed>3.150000</speed>
</trkpt>
<trkpt lat="55.725899" lon="26.058655">
<ele>149.931763</ele>
<time>2010-07-17T17:58:49Z</time>
<desc>lat.=55.725899, lon.=26.058655, Alt.=149.931763m. Speed=7.524000m/h.</desc>
<speed>2.090000</speed>
</trkpt>
<trkpt lat="55.725872" lon="26.058659">
<ele>149.877075</ele>
<time>2010-07-17T17:58:50Z</time>
<desc>lat.=55.725872, lon.=26.058659, Alt.=149.877075m. Speed=5.508000m/h.</desc>
<speed>1.530000</speed>
</trkpt>
<trkpt lat="55.725849" lon="26.058651">
<ele>150.037231</ele>
<time>2010-07-17T17:58:51Z</time>
<desc>lat.=55.725849, lon.=26.058651, Alt.=150.037231m. Speed=3.960000m/h.</desc>
<speed>1.100000</speed>
</trkpt>
<trkpt lat="55.725826" lon="26.058668">
<ele>150.072388</ele>
<time>2010-07-17T17:58:52Z</time>
<desc>lat.=55.725826, lon.=26.058668, Alt.=150.072388m. Speed=6.588000m/h.</desc>
<speed>1.830000</speed>
</trkpt>
<trkpt lat="55.725803" lon="26.058691">
<ele>149.943481</ele>
<time>2010-07-17T17:58:53Z</time>
<desc>lat.=55.725803, lon.=26.058691, Alt.=149.943481m. Speed=6.660000m/h.</desc>
<speed>1.850000</speed>
</trkpt>
<trkpt lat="55.725777" lon="26.058712">
<ele>149.154419</ele>
<time>2010-07-17T17:58:54Z</time>
<desc>lat.=55.725777, lon.=26.058712, Alt.=149.154419m. Speed=6.588000m/h.</desc>
<speed>1.830000</speed>
</trkpt>
<trkpt lat="55.725758" lon="26.058722">
<ele>148.978638</ele>
<time>2010-07-17T17:58:55Z</time>
<desc>lat.=55.725758, lon.=26.058722, Alt.=148.978638m. Speed=5.076000m/h.</desc>
<speed>1.410000</speed>
</trkpt>
<trkpt lat="55.725739" lon="26.058739">
<ele>149.029419</ele>
<time>2010-07-17T17:58:56Z</time>
<desc>lat.=55.725739, lon.=26.058739, Alt.=149.029419m. Speed=5.076000m/h.</desc>
<speed>1.410000</speed>
</trkpt>
<trkpt lat="55.725719" lon="26.058754">
<ele>149.088013</ele>
<time>2010-07-17T17:58:57Z</time>
<desc>lat.=55.725719, lon.=26.058754, Alt.=149.088013m. Speed=6.588000m/h.</desc>
<speed>1.830000</speed>
</trkpt>
<trkpt lat="55.725697" lon="26.058777">
<ele>148.838013</ele>
<time>2010-07-17T17:58:58Z</time>
<desc>lat.=55.725697, lon.=26.058777, Alt.=148.838013m. Speed=6.444000m/h.</desc>
<speed>1.790000</speed>
</trkpt>
<trkpt lat="55.725674" lon="26.058805">
<ele>148.713013</ele>
<time>2010-07-17T17:58:59Z</time>
<desc>lat.=55.725674, lon.=26.058805, Alt.=148.713013m. Speed=6.372000m/h.</desc>
<speed>1.770000</speed>
</trkpt>
<trkpt lat="55.725639" lon="26.058823">
<ele>147.998169</ele>
<time>2010-07-17T17:59:00Z</time>
<desc>lat.=55.725639, lon.=26.058823, Alt.=147.998169m. Speed=7.848000m/h.</desc>
<speed>2.180000</speed>
</trkpt>
<trkpt lat="55.725616" lon="26.058836">
<ele>147.880981</ele>
<time>2010-07-17T17:59:01Z</time>
<desc>lat.=55.725616, lon.=26.058836, Alt.=147.880981m. Speed=7.308000m/h.</desc>
<speed>2.030000</speed>
</trkpt>
<trkpt lat="55.725597" lon="26.058849">
<ele>147.892700</ele>
<time>2010-07-17T17:59:02Z</time>
<desc>lat.=55.725597, lon.=26.058849, Alt.=147.892700m. Speed=7.524000m/h.</desc>
<speed>2.090000</speed>
</trkpt>
<trkpt lat="55.725574" lon="26.058867">
<ele>148.158325</ele>
<time>2010-07-17T17:59:03Z</time>
<desc>lat.=55.725574, lon.=26.058867, Alt.=148.158325m. Speed=9.072000m/h.</desc>
<speed>2.520000</speed>
</trkpt>
<trkpt lat="55.725552" lon="26.058882">
<ele>148.177856</ele>
<time>2010-07-17T17:59:04Z</time>
<desc>lat.=55.725552, lon.=26.058882, Alt.=148.177856m. Speed=8.856000m/h.</desc>
<speed>2.460000</speed>
</trkpt>
<trkpt lat="55.725525" lon="26.058895">
<ele>147.920044</ele>
<time>2010-07-17T17:59:05Z</time>
<desc>lat.=55.725525, lon.=26.058895, Alt.=147.920044m. Speed=9.972000m/h.</desc>
<speed>2.770000</speed>
</trkpt>
<trkpt lat="55.725502" lon="26.058912">
<ele>147.466919</ele>
<time>2010-07-17T17:59:06Z</time>
<desc>lat.=55.725502, lon.=26.058912, Alt.=147.466919m. Speed=10.008000m/h.</desc>
<speed>2.780000</speed>
</trkpt>
<trkpt lat="55.725475" lon="26.058933">
<ele>147.509888</ele>
<time>2010-07-17T17:59:07Z</time>
<desc>lat.=55.725475, lon.=26.058933, Alt.=147.509888m. Speed=8.748000m/h.</desc>
<speed>2.430000</speed>
</trkpt>
<trkpt lat="55.725452" lon="26.058954">
<ele>147.505981</ele>
<time>2010-07-17T17:59:08Z</time>
<desc>lat.=55.725452, lon.=26.058954, Alt.=147.505981m. Speed=8.748000m/h.</desc>
<speed>2.430000</speed>
</trkpt>
<trkpt lat="55.725418" lon="26.058992">
<ele>147.505981</ele>
<time>2010-07-17T17:59:09Z</time>
<desc>lat.=55.725418, lon.=26.058992, Alt.=147.505981m. Speed=10.044000m/h.</desc>
<speed>2.790000</speed>
</trkpt>
<trkpt lat="55.725391" lon="26.059017">
<ele>147.943481</ele>
<time>2010-07-17T17:59:10Z</time>
<desc>lat.=55.725391, lon.=26.059017, Alt.=147.943481m. Speed=9.000000m/h.</desc>
<speed>2.500000</speed>
</trkpt>
<trkpt lat="55.725365" lon="26.059019">
<ele>148.666138</ele>
<time>2010-07-17T17:59:11Z</time>
<desc>lat.=55.725365, lon.=26.059019, Alt.=148.666138m. Speed=9.144000m/h.</desc>
<speed>2.540000</speed>
</trkpt>
<trkpt lat="55.725323" lon="26.059031">
<ele>148.689575</ele>
<time>2010-07-17T17:59:12Z</time>
<desc>lat.=55.725323, lon.=26.059031, Alt.=148.689575m. Speed=13.104000m/h.</desc>
<speed>3.640000</speed>
</trkpt>
<trkpt lat="55.725288" lon="26.059048">
<ele>149.380981</ele>
<time>2010-07-17T17:59:13Z</time>
<desc>lat.=55.725288, lon.=26.059048, Alt.=149.380981m. Speed=11.376000m/h.</desc>
<speed>3.160000</speed>
</trkpt>
<trkpt lat="55.725262" lon="26.059059">
<ele>150.048950</ele>
<time>2010-07-17T17:59:14Z</time>
<desc>lat.=55.725262, lon.=26.059059, Alt.=150.048950m. Speed=9.468000m/h.</desc>
<speed>2.630000</speed>
</trkpt>
<trkpt lat="55.725231" lon="26.059057">
<ele>150.248169</ele>
<time>2010-07-17T17:59:15Z</time>
<desc>lat.=55.725231, lon.=26.059057, Alt.=150.248169m. Speed=7.416000m/h.</desc>
<speed>2.060000</speed>
</trkpt>
<trkpt lat="55.725201" lon="26.059069">
<ele>150.959106</ele>
<time>2010-07-17T17:59:16Z</time>
<desc>lat.=55.725201, lon.=26.059069, Alt.=150.959106m. Speed=9.108000m/h.</desc>
<speed>2.530000</speed>
</trkpt>
<trkpt lat="55.725174" lon="26.059074">
<ele>151.388794</ele>
<time>2010-07-17T17:59:17Z</time>
<desc>lat.=55.725174, lon.=26.059074, Alt.=151.388794m. Speed=8.532000m/h.</desc>
<speed>2.370000</speed>
</trkpt>
<trkpt lat="55.725151" lon="26.059084">
<ele>151.763794</ele>
<time>2010-07-17T17:59:18Z</time>
<desc>lat.=55.725151, lon.=26.059084, Alt.=151.763794m. Speed=5.976000m/h.</desc>
<speed>1.660000</speed>
</trkpt>
<trkpt lat="55.725132" lon="26.059101">
<ele>151.877075</ele>
<time>2010-07-17T17:59:19Z</time>
<desc>lat.=55.725132, lon.=26.059101, Alt.=151.877075m. Speed=6.804000m/h.</desc>
<speed>1.890000</speed>
</trkpt>
<trkpt lat="55.725105" lon="26.059105">
<ele>152.955200</ele>
<time>2010-07-17T17:59:20Z</time>
<desc>lat.=55.725105, lon.=26.059105, Alt.=152.955200m. Speed=5.616000m/h.</desc>
<speed>1.560000</speed>
</trkpt>
<trkpt lat="55.725082" lon="26.059122">
<ele>152.599731</ele>
<time>2010-07-17T17:59:21Z</time>
<desc>lat.=55.725082, lon.=26.059122, Alt.=152.599731m. Speed=7.776000m/h.</desc>
<speed>2.160000</speed>
</trkpt>
<trkpt lat="55.725048" lon="26.059147">
<ele>152.338013</ele>
<time>2010-07-17T17:59:22Z</time>
<desc>lat.=55.725048, lon.=26.059147, Alt.=152.338013m. Speed=8.280000m/h.</desc>
<speed>2.300000</speed>
</trkpt>
<trkpt lat="55.725025" lon="26.059187">
<ele>153.576294</ele>
<time>2010-07-17T17:59:23Z</time>
<desc>lat.=55.725025, lon.=26.059187, Alt.=153.576294m. Speed=5.400000m/h.</desc>
<speed>1.500000</speed>
</trkpt>
<trkpt lat="55.724998" lon="26.059216">
<ele>154.541138</ele>
<time>2010-07-17T17:59:24Z</time>
<desc>lat.=55.724998, lon.=26.059216, Alt.=154.541138m. Speed=5.976000m/h.</desc>
<speed>1.660000</speed>
</trkpt>
<trkpt lat="55.724976" lon="26.059231">
<ele>155.158325</ele>
<time>2010-07-17T17:59:25Z</time>
<desc>lat.=55.724976, lon.=26.059231, Alt.=155.158325m. Speed=5.904000m/h.</desc>
<speed>1.640000</speed>
</trkpt>
<trkpt lat="55.724960" lon="26.059252">
<ele>155.666138</ele>
<time>2010-07-17T17:59:26Z</time>
<desc>lat.=55.724960, lon.=26.059252, Alt.=155.666138m. Speed=6.300000m/h.</desc>
<speed>1.750000</speed>
</trkpt>
<trkpt lat="55.724930" lon="26.059258">
<ele>154.923950</ele>
<time>2010-07-17T17:59:27Z</time>
<desc>lat.=55.724930, lon.=26.059258, Alt.=154.923950m. Speed=9.468000m/h.</desc>
<speed>2.630000</speed>
</trkpt>
<trkpt lat="55.724899" lon="26.059275">
<ele>155.123169</ele>
<time>2010-07-17T17:59:28Z</time>
<desc>lat.=55.724899, lon.=26.059275, Alt.=155.123169m. Speed=8.100000m/h.</desc>
<speed>2.250000</speed>
</trkpt>
<trkpt lat="55.724869" lon="26.059296">
<ele>155.642700</ele>
<time>2010-07-17T17:59:29Z</time>
<desc>lat.=55.724869, lon.=26.059296, Alt.=155.642700m. Speed=9.792000m/h.</desc>
<speed>2.720000</speed>
</trkpt>
<trkpt lat="55.724827" lon="26.059315">
<ele>156.154419</ele>
<time>2010-07-17T17:59:30Z</time>
<desc>lat.=55.724827, lon.=26.059315, Alt.=156.154419m. Speed=11.844000m/h.</desc>
<speed>3.290000</speed>
</trkpt>
<trkpt lat="55.724781" lon="26.059334">
<ele>155.545044</ele>
<time>2010-07-17T17:59:31Z</time>
<desc>lat.=55.724781, lon.=26.059334, Alt.=155.545044m. Speed=7.596000m/h.</desc>
<speed>2.110000</speed>
</trkpt>
<trkpt lat="55.724747" lon="26.059343">
<ele>155.623169</ele>
<time>2010-07-17T17:59:32Z</time>
<desc>lat.=55.724747, lon.=26.059343, Alt.=155.623169m. Speed=8.100000m/h.</desc>
<speed>2.250000</speed>
</trkpt>
<trkpt lat="55.724720" lon="26.059355">
<ele>156.927856</ele>
<time>2010-07-17T17:59:33Z</time>
<desc>lat.=55.724720, lon.=26.059355, Alt.=156.927856m. Speed=8.100000m/h.</desc>
<speed>2.250000</speed>
</trkpt>
<trkpt lat="55.724689" lon="26.059378">
<ele>157.302856</ele>
<time>2010-07-17T17:59:34Z</time>
<desc>lat.=55.724689, lon.=26.059378, Alt.=157.302856m. Speed=9.036000m/h.</desc>
<speed>2.510000</speed>
</trkpt>
<trkpt lat="55.724659" lon="26.059401">
<ele>157.572388</ele>
<time>2010-07-17T17:59:35Z</time>
<desc>lat.=55.724659, lon.=26.059401, Alt.=157.572388m. Speed=6.192000m/h.</desc>
<speed>1.720000</speed>
</trkpt>
<trkpt lat="55.724628" lon="26.059433">
<ele>157.834106</ele>
<time>2010-07-17T17:59:36Z</time>
<desc>lat.=55.724628, lon.=26.059433, Alt.=157.834106m. Speed=7.308000m/h.</desc>
<speed>2.030000</speed>
</trkpt>
<trkpt lat="55.724583" lon="26.059456">
<ele>156.724731</ele>
<time>2010-07-17T17:59:37Z</time>
<desc>lat.=55.724583, lon.=26.059456, Alt.=156.724731m. Speed=8.964000m/h.</desc>
<speed>2.490000</speed>
</trkpt>
<trkpt lat="55.724533" lon="26.059477">
<ele>156.353638</ele>
<time>2010-07-17T17:59:38Z</time>
<desc>lat.=55.724533, lon.=26.059477, Alt.=156.353638m. Speed=8.892000m/h.</desc>
<speed>2.470000</speed>
</trkpt>
<trkpt lat="55.724506" lon="26.059483">
<ele>156.498169</ele>
<time>2010-07-17T17:59:39Z</time>
<desc>lat.=55.724506, lon.=26.059483, Alt.=156.498169m. Speed=7.056000m/h.</desc>
<speed>1.960000</speed>
</trkpt>
<trkpt lat="55.724476" lon="26.059488">
<ele>156.783325</ele>
<time>2010-07-17T17:59:40Z</time>
<desc>lat.=55.724476, lon.=26.059488, Alt.=156.783325m. Speed=8.532000m/h.</desc>
<speed>2.370000</speed>
</trkpt>
<trkpt lat="55.724445" lon="26.059496">
<ele>156.494263</ele>
<time>2010-07-17T17:59:41Z</time>
<desc>lat.=55.724445, lon.=26.059496, Alt.=156.494263m. Speed=9.432000m/h.</desc>
<speed>2.620000</speed>
</trkpt>
<trkpt lat="55.724407" lon="26.059498">
<ele>156.017700</ele>
<time>2010-07-17T17:59:42Z</time>
<desc>lat.=55.724407, lon.=26.059498, Alt.=156.017700m. Speed=9.684000m/h.</desc>
<speed>2.690000</speed>
</trkpt>
<trkpt lat="55.724380" lon="26.059515">
<ele>156.951294</ele>
<time>2010-07-17T17:59:43Z</time>
<desc>lat.=55.724380, lon.=26.059515, Alt.=156.951294m. Speed=8.532000m/h.</desc>
<speed>2.370000</speed>
</trkpt>
<trkpt lat="55.724354" lon="26.059519">
<ele>157.525513</ele>
<time>2010-07-17T17:59:44Z</time>
<desc>lat.=55.724354, lon.=26.059519, Alt.=157.525513m. Speed=9.612000m/h.</desc>
<speed>2.670000</speed>
</trkpt>
<trkpt lat="55.724319" lon="26.059526">
<ele>156.935669</ele>
<time>2010-07-17T17:59:45Z</time>
<desc>lat.=55.724319, lon.=26.059526, Alt.=156.935669m. Speed=9.756000m/h.</desc>
<speed>2.710000</speed>
</trkpt>
<trkpt lat="55.724285" lon="26.059532">
<ele>157.263794</ele>
<time>2010-07-17T17:59:46Z</time>
<desc>lat.=55.724285, lon.=26.059532, Alt.=157.263794m. Speed=8.136000m/h.</desc>
<speed>2.260000</speed>
</trkpt>
<trkpt lat="55.724255" lon="26.059528">
<ele>157.244263</ele>
<time>2010-07-17T17:59:47Z</time>
<desc>lat.=55.724255, lon.=26.059528, Alt.=157.244263m. Speed=8.316000m/h.</desc>
<speed>2.310000</speed>
</trkpt>
<trkpt lat="55.724216" lon="26.059519">
<ele>156.998169</ele>
<time>2010-07-17T17:59:48Z</time>
<desc>lat.=55.724216, lon.=26.059519, Alt.=156.998169m. Speed=8.928000m/h.</desc>
<speed>2.480000</speed>
</trkpt>
<trkpt lat="55.724182" lon="26.059513">
<ele>157.060669</ele>
<time>2010-07-17T17:59:49Z</time>
<desc>lat.=55.724182, lon.=26.059513, Alt.=157.060669m. Speed=9.072000m/h.</desc>
<speed>2.520000</speed>
</trkpt>
<trkpt lat="55.724144" lon="26.059509">
<ele>157.068481</ele>
<time>2010-07-17T17:59:50Z</time>
<desc>lat.=55.724144, lon.=26.059509, Alt.=157.068481m. Speed=11.340000m/h.</desc>
<speed>3.150000</speed>
</trkpt>
<trkpt lat="55.724113" lon="26.059500">
<ele>157.505981</ele>
<time>2010-07-17T17:59:51Z</time>
<desc>lat.=55.724113, lon.=26.059500, Alt.=157.505981m. Speed=9.540000m/h.</desc>
<speed>2.650000</speed>
</trkpt>
<trkpt lat="55.724064" lon="26.059504">
<ele>156.939575</ele>
<time>2010-07-17T17:59:52Z</time>
<desc>lat.=55.724064, lon.=26.059504, Alt.=156.939575m. Speed=13.572000m/h.</desc>
<speed>3.770000</speed>
</trkpt>
<trkpt lat="55.724022" lon="26.059498">
<ele>156.568481</ele>
<time>2010-07-17T17:59:53Z</time>
<desc>lat.=55.724022, lon.=26.059498, Alt.=156.568481m. Speed=11.052000m/h.</desc>
<speed>3.070000</speed>
</trkpt>
<trkpt lat="55.723988" lon="26.059496">
<ele>156.177856</ele>
<time>2010-07-17T17:59:54Z</time>
<desc>lat.=55.723988, lon.=26.059496, Alt.=156.177856m. Speed=8.964000m/h.</desc>
<speed>2.490000</speed>
</trkpt>
<trkpt lat="55.723953" lon="26.059492">
<ele>155.017700</ele>
<time>2010-07-17T17:59:55Z</time>
<desc>lat.=55.723953, lon.=26.059492, Alt.=155.017700m. Speed=8.424000m/h.</desc>
<speed>2.340000</speed>
</trkpt>
<trkpt lat="55.723911" lon="26.059486">
<ele>153.443481</ele>
<time>2010-07-17T17:59:56Z</time>
<desc>lat.=55.723911, lon.=26.059486, Alt.=153.443481m. Speed=11.736000m/h.</desc>
<speed>3.260000</speed>
</trkpt>
<trkpt lat="55.723873" lon="26.059483">
<ele>153.127075</ele>
<time>2010-07-17T17:59:57Z</time>
<desc>lat.=55.723873, lon.=26.059483, Alt.=153.127075m. Speed=11.124000m/h.</desc>
<speed>3.090000</speed>
</trkpt>
<trkpt lat="55.723831" lon="26.059490">
<ele>152.318481</ele>
<time>2010-07-17T17:59:58Z</time>
<desc>lat.=55.723831, lon.=26.059490, Alt.=152.318481m. Speed=10.944000m/h.</desc>
<speed>3.040000</speed>
</trkpt>
<trkpt lat="55.723797" lon="26.059511">
<ele>151.025513</ele>
<time>2010-07-17T17:59:59Z</time>
<desc>lat.=55.723797, lon.=26.059511, Alt.=151.025513m. Speed=8.604000m/h.</desc>
<speed>2.390000</speed>
</trkpt>
<trkpt lat="55.723774" lon="26.059502">
<ele>150.513794</ele>
<time>2010-07-17T18:00:00Z</time>
<desc>lat.=55.723774, lon.=26.059502, Alt.=150.513794m. Speed=5.220000m/h.</desc>
<speed>1.450000</speed>
</trkpt>
<trkpt lat="55.723755" lon="26.059494">
<ele>150.584106</ele>
<time>2010-07-17T18:00:01Z</time>
<desc>lat.=55.723755, lon.=26.059494, Alt.=150.584106m. Speed=5.796000m/h.</desc>
<speed>1.610000</speed>
</trkpt>
<trkpt lat="55.723736" lon="26.059486">
<ele>150.642700</ele>
<time>2010-07-17T18:00:02Z</time>
<desc>lat.=55.723736, lon.=26.059486, Alt.=150.642700m. Speed=4.860000m/h.</desc>
<speed>1.350000</speed>
</trkpt>
<trkpt lat="55.723713" lon="26.059486">
<ele>150.841919</ele>
<time>2010-07-17T18:00:03Z</time>
<desc>lat.=55.723713, lon.=26.059486, Alt.=150.841919m. Speed=6.156000m/h.</desc>
<speed>1.710000</speed>
</trkpt>
<trkpt lat="55.723694" lon="26.059492">
<ele>150.845825</ele>
<time>2010-07-17T18:00:04Z</time>
<desc>lat.=55.723694, lon.=26.059492, Alt.=150.845825m. Speed=3.420000m/h.</desc>
<speed>0.950000</speed>
</trkpt>
<trkpt lat="55.723675" lon="26.059496">
<ele>150.771606</ele>
<time>2010-07-17T18:00:05Z</time>
<desc>lat.=55.723675, lon.=26.059496, Alt.=150.771606m. Speed=2.592000m/h.</desc>
<speed>0.720000</speed>
</trkpt>
<trkpt lat="55.723656" lon="26.059500">
<ele>150.396606</ele>
<time>2010-07-17T18:00:06Z</time>
<desc>lat.=55.723656, lon.=26.059500, Alt.=150.396606m. Speed=3.816000m/h.</desc>
<speed>1.060000</speed>
</trkpt>
<trkpt lat="55.723621" lon="26.059511">
<ele>149.853638</ele>
<time>2010-07-17T18:00:07Z</time>
<desc>lat.=55.723621, lon.=26.059511, Alt.=149.853638m. Speed=5.616000m/h.</desc>
<speed>1.560000</speed>
</trkpt>
<trkpt lat="55.723595" lon="26.059517">
<ele>149.431763</ele>
<time>2010-07-17T18:00:08Z</time>
<desc>lat.=55.723595, lon.=26.059517, Alt.=149.431763m. Speed=7.056000m/h.</desc>
<speed>1.960000</speed>
</trkpt>
<trkpt lat="55.723564" lon="26.059521">
<ele>149.045044</ele>
<time>2010-07-17T18:00:09Z</time>
<desc>lat.=55.723564, lon.=26.059521, Alt.=149.045044m. Speed=9.216000m/h.</desc>
<speed>2.560000</speed>
</trkpt>
<trkpt lat="55.723511" lon="26.059526">
<ele>148.459106</ele>
<time>2010-07-17T18:00:10Z</time>
<desc>lat.=55.723511, lon.=26.059526, Alt.=148.459106m. Speed=12.384000m/h.</desc>
<speed>3.440000</speed>
</trkpt>
<trkpt lat="55.723465" lon="26.059532">
<ele>148.431763</ele>
<time>2010-07-17T18:00:11Z</time>
<desc>lat.=55.723465, lon.=26.059532, Alt.=148.431763m. Speed=12.312000m/h.</desc>
<speed>3.420000</speed>
</trkpt>
<trkpt lat="55.723427" lon="26.059538">
<ele>148.213013</ele>
<time>2010-07-17T18:00:12Z</time>
<desc>lat.=55.723427, lon.=26.059538, Alt.=148.213013m. Speed=10.728000m/h.</desc>
<speed>2.980000</speed>
</trkpt>
<trkpt lat="55.723389" lon="26.059544">
<ele>148.127075</ele>
<time>2010-07-17T18:00:13Z</time>
<desc>lat.=55.723389, lon.=26.059544, Alt.=148.127075m. Speed=8.100000m/h.</desc>
<speed>2.250000</speed>
</trkpt>
<trkpt lat="55.723351" lon="26.059555">
<ele>147.861450</ele>
<time>2010-07-17T18:00:14Z</time>
<desc>lat.=55.723351, lon.=26.059555, Alt.=147.861450m. Speed=9.576000m/h.</desc>
<speed>2.660000</speed>
</trkpt>
<trkpt lat="55.723316" lon="26.059555">
<ele>147.470825</ele>
<time>2010-07-17T18:00:15Z</time>
<desc>lat.=55.723316, lon.=26.059555, Alt.=147.470825m. Speed=7.596000m/h.</desc>
<speed>2.110000</speed>
</trkpt>
<trkpt lat="55.723263" lon="26.059519">
<ele>147.056763</ele>
<time>2010-07-17T18:00:16Z</time>
<desc>lat.=55.723263, lon.=26.059519, Alt.=147.056763m. Speed=12.852000m/h.</desc>
<speed>3.570000</speed>
</trkpt>
<trkpt lat="55.723217" lon="26.059496">
<ele>146.552856</ele>
<time>2010-07-17T18:00:17Z</time>
<desc>lat.=55.723217, lon.=26.059496, Alt.=146.552856m. Speed=12.708000m/h.</desc>
<speed>3.530000</speed>
</trkpt>
<trkpt lat="55.723171" lon="26.059507">
<ele>146.369263</ele>
<time>2010-07-17T18:00:18Z</time>
<desc>lat.=55.723171, lon.=26.059507, Alt.=146.369263m. Speed=11.052000m/h.</desc>
<speed>3.070000</speed>
</trkpt>
<trkpt lat="55.723145" lon="26.059521">
<ele>145.982544</ele>
<time>2010-07-17T18:00:19Z</time>
<desc>lat.=55.723145, lon.=26.059521, Alt.=145.982544m. Speed=13.284000m/h.</desc>
<speed>3.690000</speed>
</trkpt>
<trkpt lat="55.723095" lon="26.059540">
<ele>145.318481</ele>
<time>2010-07-17T18:00:20Z</time>
<desc>lat.=55.723095, lon.=26.059540, Alt.=145.318481m. Speed=14.796000m/h.</desc>
<speed>4.110000</speed>
</trkpt>
<trkpt lat="55.723045" lon="26.059557">
<ele>144.759888</ele>
<time>2010-07-17T18:00:21Z</time>
<desc>lat.=55.723045, lon.=26.059557, Alt.=144.759888m. Speed=15.696000m/h.</desc>
<speed>4.360000</speed>
</trkpt>
<trkpt lat="55.723000" lon="26.059580">
<ele>144.427856</ele>
<time>2010-07-17T18:00:22Z</time>
<desc>lat.=55.723000, lon.=26.059580, Alt.=144.427856m. Speed=14.760000m/h.</desc>
<speed>4.100000</speed>
</trkpt>
<trkpt lat="55.722965" lon="26.059603">
<ele>143.791138</ele>
<time>2010-07-17T18:00:23Z</time>
<desc>lat.=55.722965, lon.=26.059603, Alt.=143.791138m. Speed=15.480000m/h.</desc>
<speed>4.300000</speed>
</trkpt>
<trkpt lat="55.722916" lon="26.059631">
<ele>143.490356</ele>
<time>2010-07-17T18:00:24Z</time>
<desc>lat.=55.722916, lon.=26.059631, Alt.=143.490356m. Speed=15.300000m/h.</desc>
<speed>4.250000</speed>
</trkpt>
<trkpt lat="55.722858" lon="26.059671">
<ele>143.412231</ele>
<time>2010-07-17T18:00:25Z</time>
<desc>lat.=55.722858, lon.=26.059671, Alt.=143.412231m. Speed=13.824000m/h.</desc>
<speed>3.840000</speed>
</trkpt>
<trkpt lat="55.722816" lon="26.059698">
<ele>143.068481</ele>
<time>2010-07-17T18:00:26Z</time>
<desc>lat.=55.722816, lon.=26.059698, Alt.=143.068481m. Speed=12.312000m/h.</desc>
<speed>3.420000</speed>
</trkpt>
<trkpt lat="55.722778" lon="26.059715">
<ele>143.548950</ele>
<time>2010-07-17T18:00:27Z</time>
<desc>lat.=55.722778, lon.=26.059715, Alt.=143.548950m. Speed=11.160000m/h.</desc>
<speed>3.100000</speed>
</trkpt>
<trkpt lat="55.722759" lon="26.059732">
<ele>144.474731</ele>
<time>2010-07-17T18:00:28Z</time>
<desc>lat.=55.722759, lon.=26.059732, Alt.=144.474731m. Speed=8.352000m/h.</desc>
<speed>2.320000</speed>
</trkpt>
<trkpt lat="55.722736" lon="26.059748">
<ele>144.662231</ele>
<time>2010-07-17T18:00:29Z</time>
<desc>lat.=55.722736, lon.=26.059748, Alt.=144.662231m. Speed=10.224000m/h.</desc>
<speed>2.840000</speed>
</trkpt>
<trkpt lat="55.722698" lon="26.059814">
<ele>144.525513</ele>
<time>2010-07-17T18:00:30Z</time>
<desc>lat.=55.722698, lon.=26.059814, Alt.=144.525513m. Speed=10.296000m/h.</desc>
<speed>2.860000</speed>
</trkpt>
<trkpt lat="55.722660" lon="26.059855">
<ele>144.205200</ele>
<time>2010-07-17T18:00:31Z</time>
<desc>lat.=55.722660, lon.=26.059855, Alt.=144.205200m. Speed=10.944000m/h.</desc>
<speed>3.040000</speed>
</trkpt>
<trkpt lat="55.722626" lon="26.059883">
<ele>143.834106</ele>
<time>2010-07-17T18:00:32Z</time>
<desc>lat.=55.722626, lon.=26.059883, Alt.=143.834106m. Speed=11.988000m/h.</desc>
<speed>3.330000</speed>
</trkpt>
<trkpt lat="55.722580" lon="26.059912">
<ele>143.423950</ele>
<time>2010-07-17T18:00:33Z</time>
<desc>lat.=55.722580, lon.=26.059912, Alt.=143.423950m. Speed=12.888000m/h.</desc>
<speed>3.580000</speed>
</trkpt>
<trkpt lat="55.722496" lon="26.059980">
<ele>142.048950</ele>
<time>2010-07-17T18:00:34Z</time>
<desc>lat.=55.722496, lon.=26.059980, Alt.=142.048950m. Speed=13.860000m/h.</desc>
<speed>3.850000</speed>
</trkpt>
<trkpt lat="55.722466" lon="26.060007">
<ele>141.755981</ele>
<time>2010-07-17T18:00:35Z</time>
<desc>lat.=55.722466, lon.=26.060007, Alt.=141.755981m. Speed=12.096000m/h.</desc>
<speed>3.360000</speed>
</trkpt>
<trkpt lat="55.722435" lon="26.060022">
<ele>141.455200</ele>
<time>2010-07-17T18:00:36Z</time>
<desc>lat.=55.722435, lon.=26.060022, Alt.=141.455200m. Speed=12.060000m/h.</desc>
<speed>3.350000</speed>
</trkpt>
<trkpt lat="55.722385" lon="26.060053">
<ele>142.916138</ele>
<time>2010-07-17T18:00:37Z</time>
<desc>lat.=55.722385, lon.=26.060053, Alt.=142.916138m. Speed=11.448000m/h.</desc>
<speed>3.180000</speed>
</trkpt>
<trkpt lat="55.722343" lon="26.060093">
<ele>142.943481</ele>
<time>2010-07-17T18:00:38Z</time>
<desc>lat.=55.722343, lon.=26.060093, Alt.=142.943481m. Speed=11.664000m/h.</desc>
<speed>3.240000</speed>
</trkpt>
<trkpt lat="55.722301" lon="26.060133">
<ele>142.392700</ele>
<time>2010-07-17T18:00:39Z</time>
<desc>lat.=55.722301, lon.=26.060133, Alt.=142.392700m. Speed=10.476000m/h.</desc>
<speed>2.910000</speed>
</trkpt>
<trkpt lat="55.722256" lon="26.060183">
<ele>141.923950</ele>
<time>2010-07-17T18:00:40Z</time>
<desc>lat.=55.722256, lon.=26.060183, Alt.=141.923950m. Speed=12.312000m/h.</desc>
<speed>3.420000</speed>
</trkpt>
<trkpt lat="55.722214" lon="26.060223">
<ele>141.888794</ele>
<time>2010-07-17T18:00:41Z</time>
<desc>lat.=55.722214, lon.=26.060223, Alt.=141.888794m. Speed=13.320000m/h.</desc>
<speed>3.700000</speed>
</trkpt>
<trkpt lat="55.722183" lon="26.060246">
<ele>142.248169</ele>
<time>2010-07-17T18:00:42Z</time>
<desc>lat.=55.722183, lon.=26.060246, Alt.=142.248169m. Speed=11.052000m/h.</desc>
<speed>3.070000</speed>
</trkpt>
<trkpt lat="55.722157" lon="26.060274">
<ele>142.970825</ele>
<time>2010-07-17T18:00:43Z</time>
<desc>lat.=55.722157, lon.=26.060274, Alt.=142.970825m. Speed=9.324000m/h.</desc>
<speed>2.590000</speed>
</trkpt>
<trkpt lat="55.722122" lon="26.060307">
<ele>144.017700</ele>
<time>2010-07-17T18:00:44Z</time>
<desc>lat.=55.722122, lon.=26.060307, Alt.=144.017700m. Speed=12.672000m/h.</desc>
<speed>3.520000</speed>
</trkpt>
<trkpt lat="55.722084" lon="26.060333">
<ele>144.388794</ele>
<time>2010-07-17T18:00:45Z</time>
<desc>lat.=55.722084, lon.=26.060333, Alt.=144.388794m. Speed=11.664000m/h.</desc>
<speed>3.240000</speed>
</trkpt>
<trkpt lat="55.722050" lon="26.060362">
<ele>144.955200</ele>
<time>2010-07-17T18:00:46Z</time>
<desc>lat.=55.722050, lon.=26.060362, Alt.=144.955200m. Speed=13.212000m/h.</desc>
<speed>3.670000</speed>
</trkpt>
<trkpt lat="55.722008" lon="26.060398">
<ele>145.166138</ele>
<time>2010-07-17T18:00:47Z</time>
<desc>lat.=55.722008, lon.=26.060398, Alt.=145.166138m. Speed=13.572000m/h.</desc>
<speed>3.770000</speed>
</trkpt>
<trkpt lat="55.721958" lon="26.060440">
<ele>144.720825</ele>
<time>2010-07-17T18:00:48Z</time>
<desc>lat.=55.721958, lon.=26.060440, Alt.=144.720825m. Speed=14.652000m/h.</desc>
<speed>4.070000</speed>
</trkpt>
<trkpt lat="55.721920" lon="26.060484">
<ele>144.021606</ele>
<time>2010-07-17T18:00:49Z</time>
<desc>lat.=55.721920, lon.=26.060484, Alt.=144.021606m. Speed=16.812000m/h.</desc>
<speed>4.670000</speed>
</trkpt>
<trkpt lat="55.721878" lon="26.060522">
<ele>144.724731</ele>
<time>2010-07-17T18:00:50Z</time>
<desc>lat.=55.721878, lon.=26.060522, Alt.=144.724731m. Speed=15.156000m/h.</desc>
<speed>4.210000</speed>
</trkpt>
<trkpt lat="55.721840" lon="26.060543">
<ele>145.330200</ele>
<time>2010-07-17T18:00:51Z</time>
<desc>lat.=55.721840, lon.=26.060543, Alt.=145.330200m. Speed=14.220000m/h.</desc>
<speed>3.950000</speed>
</trkpt>
<trkpt lat="55.721798" lon="26.060572">
<ele>147.068481</ele>
<time>2010-07-17T18:00:52Z</time>
<desc>lat.=55.721798, lon.=26.060572, Alt.=147.068481m. Speed=13.824000m/h.</desc>
<speed>3.840000</speed>
</trkpt>
<trkpt lat="55.721767" lon="26.060585">
<ele>147.455200</ele>
<time>2010-07-17T18:00:53Z</time>
<desc>lat.=55.721767, lon.=26.060585, Alt.=147.455200m. Speed=11.700000m/h.</desc>
<speed>3.250000</speed>
</trkpt>
<trkpt lat="55.721737" lon="26.060608">
<ele>147.923950</ele>
<time>2010-07-17T18:00:54Z</time>
<desc>lat.=55.721737, lon.=26.060608, Alt.=147.923950m. Speed=12.384000m/h.</desc>
<speed>3.440000</speed>
</trkpt>
<trkpt lat="55.721691" lon="26.060629">
<ele>149.849731</ele>
<time>2010-07-17T18:00:55Z</time>
<desc>lat.=55.721691, lon.=26.060629, Alt.=149.849731m. Speed=12.960000m/h.</desc>
<speed>3.600000</speed>
</trkpt>
<trkpt lat="55.721657" lon="26.060650">
<ele>150.302856</ele>
<time>2010-07-17T18:00:56Z</time>
<desc>lat.=55.721657, lon.=26.060650, Alt.=150.302856m. Speed=10.620000m/h.</desc>
<speed>2.950000</speed>
</trkpt>
<trkpt lat="55.721630" lon="26.060673">
<ele>151.248169</ele>
<time>2010-07-17T18:00:57Z</time>
<desc>lat.=55.721630, lon.=26.060673, Alt.=151.248169m. Speed=11.520000m/h.</desc>
<speed>3.200000</speed>
</trkpt>
<trkpt lat="55.721592" lon="26.060711">
<ele>150.982544</ele>
<time>2010-07-17T18:00:58Z</time>
<desc>lat.=55.721592, lon.=26.060711, Alt.=150.982544m. Speed=12.240000m/h.</desc>
<speed>3.400000</speed>
</trkpt>
<trkpt lat="55.721558" lon="26.060740">
<ele>151.556763</ele>
<time>2010-07-17T18:00:59Z</time>
<desc>lat.=55.721558, lon.=26.060740, Alt.=151.556763m. Speed=12.780000m/h.</desc>
<speed>3.550000</speed>
</trkpt>
<trkpt lat="55.721523" lon="26.060776">
<ele>152.642700</ele>
<time>2010-07-17T18:01:00Z</time>
<desc>lat.=55.721523, lon.=26.060776, Alt.=152.642700m. Speed=12.060000m/h.</desc>
<speed>3.350000</speed>
</trkpt>
<trkpt lat="55.721500" lon="26.060818">
<ele>152.849731</ele>
<time>2010-07-17T18:01:01Z</time>
<desc>lat.=55.721500, lon.=26.060818, Alt.=152.849731m. Speed=10.260000m/h.</desc>
<speed>2.850000</speed>
</trkpt>
<trkpt lat="55.721478" lon="26.060854">
<ele>154.021606</ele>
<time>2010-07-17T18:01:02Z</time>
<desc>lat.=55.721478, lon.=26.060854, Alt.=154.021606m. Speed=10.188000m/h.</desc>
<speed>2.830000</speed>
</trkpt>
<trkpt lat="55.721447" lon="26.060881">
<ele>154.115356</ele>
<time>2010-07-17T18:01:03Z</time>
<desc>lat.=55.721447, lon.=26.060881, Alt.=154.115356m. Speed=11.160000m/h.</desc>
<speed>3.100000</speed>
</trkpt>
<trkpt lat="55.721416" lon="26.060902">
<ele>154.076294</ele>
<time>2010-07-17T18:01:04Z</time>
<desc>lat.=55.721416, lon.=26.060902, Alt.=154.076294m. Speed=11.304000m/h.</desc>
<speed>3.140000</speed>
</trkpt>
<trkpt lat="55.721386" lon="26.060942">
<ele>155.193481</ele>
<time>2010-07-17T18:01:05Z</time>
<desc>lat.=55.721386, lon.=26.060942, Alt.=155.193481m. Speed=12.312000m/h.</desc>
<speed>3.420000</speed>
</trkpt>
<trkpt lat="55.721359" lon="26.060978">
<ele>156.310669</ele>
<time>2010-07-17T18:01:06Z</time>
<desc>lat.=55.721359, lon.=26.060978, Alt.=156.310669m. Speed=13.356000m/h.</desc>
<speed>3.710000</speed>
</trkpt>
<trkpt lat="55.721321" lon="26.061014">
<ele>157.130981</ele>
<time>2010-07-17T18:01:07Z</time>
<desc>lat.=55.721321, lon.=26.061014, Alt.=157.130981m. Speed=14.364000m/h.</desc>
<speed>3.990000</speed>
</trkpt>
<trkpt lat="55.721291" lon="26.061047">
<ele>157.541138</ele>
<time>2010-07-17T18:01:08Z</time>
<desc>lat.=55.721291, lon.=26.061047, Alt.=157.541138m. Speed=15.336000m/h.</desc>
<speed>4.260000</speed>
</trkpt>
<trkpt lat="55.721256" lon="26.061085">
<ele>157.209106</ele>
<time>2010-07-17T18:01:09Z</time>
<desc>lat.=55.721256, lon.=26.061085, Alt.=157.209106m. Speed=16.884001m/h.</desc>
<speed>4.690000</speed>
</trkpt>
<trkpt lat="55.721214" lon="26.061123">
<ele>157.154419</ele>
<time>2010-07-17T18:01:10Z</time>
<desc>lat.=55.721214, lon.=26.061123, Alt.=157.154419m. Speed=18.035999m/h.</desc>
<speed>5.010000</speed>
</trkpt>
<trkpt lat="55.721172" lon="26.061163">
<ele>157.201294</ele>
<time>2010-07-17T18:01:11Z</time>
<desc>lat.=55.721172, lon.=26.061163, Alt.=157.201294m. Speed=18.252001m/h.</desc>
<speed>5.070000</speed>
</trkpt>
<trkpt lat="55.721123" lon="26.061201">
<ele>156.920044</ele>
<time>2010-07-17T18:01:12Z</time>
<desc>lat.=55.721123, lon.=26.061201, Alt.=156.920044m. Speed=19.836000m/h.</desc>
<speed>5.510000</speed>
</trkpt>
<trkpt lat="55.721077" lon="26.061253">
<ele>155.588013</ele>
<time>2010-07-17T18:01:13Z</time>
<desc>lat.=55.721077, lon.=26.061253, Alt.=155.588013m. Speed=19.080000m/h.</desc>
<speed>5.300000</speed>
</trkpt>
<trkpt lat="55.721031" lon="26.061302">
<ele>155.623169</ele>
<time>2010-07-17T18:01:14Z</time>
<desc>lat.=55.721031, lon.=26.061302, Alt.=155.623169m. Speed=19.836000m/h.</desc>
<speed>5.510000</speed>
</trkpt>
<trkpt lat="55.720985" lon="26.061348">
<ele>156.998169</ele>
<time>2010-07-17T18:01:15Z</time>
<desc>lat.=55.720985, lon.=26.061348, Alt.=156.998169m. Speed=20.771999m/h.</desc>
<speed>5.770000</speed>
</trkpt>
<trkpt lat="55.720936" lon="26.061394">
<ele>157.255981</ele>
<time>2010-07-17T18:01:16Z</time>
<desc>lat.=55.720936, lon.=26.061394, Alt.=157.255981m. Speed=21.167999m/h.</desc>
<speed>5.880000</speed>
</trkpt>
<trkpt lat="55.720886" lon="26.061443">
<ele>157.560669</ele>
<time>2010-07-17T18:01:17Z</time>
<desc>lat.=55.720886, lon.=26.061443, Alt.=157.560669m. Speed=22.572001m/h.</desc>
<speed>6.270000</speed>
</trkpt>
<trkpt lat="55.720833" lon="26.061501">
<ele>157.388794</ele>
<time>2010-07-17T18:01:18Z</time>
<desc>lat.=55.720833, lon.=26.061501, Alt.=157.388794m. Speed=23.615999m/h.</desc>
<speed>6.560000</speed>
</trkpt>
<trkpt lat="55.720776" lon="26.061556">
<ele>157.408325</ele>
<time>2010-07-17T18:01:19Z</time>
<desc>lat.=55.720776, lon.=26.061556, Alt.=157.408325m. Speed=25.164000m/h.</desc>
<speed>6.990000</speed>
</trkpt>
<trkpt lat="55.720718" lon="26.061613">
<ele>157.291138</ele>
<time>2010-07-17T18:01:20Z</time>
<desc>lat.=55.720718, lon.=26.061613, Alt.=157.291138m. Speed=27.288000m/h.</desc>
<speed>7.580000</speed>
</trkpt>
<trkpt lat="55.720657" lon="26.061666">
<ele>157.045044</ele>
<time>2010-07-17T18:01:21Z</time>
<desc>lat.=55.720657, lon.=26.061666, Alt.=157.045044m. Speed=26.424000m/h.</desc>
<speed>7.340000</speed>
</trkpt>
<trkpt lat="55.720592" lon="26.061720">
<ele>156.775513</ele>
<time>2010-07-17T18:01:22Z</time>
<desc>lat.=55.720592, lon.=26.061720, Alt.=156.775513m. Speed=29.448000m/h.</desc>
<speed>8.180000</speed>
</trkpt>
<trkpt lat="55.720524" lon="26.061775">
<ele>156.088013</ele>
<time>2010-07-17T18:01:23Z</time>
<desc>lat.=55.720524, lon.=26.061775, Alt.=156.088013m. Speed=29.988001m/h.</desc>
<speed>8.330000</speed>
</trkpt>
<trkpt lat="55.720451" lon="26.061829">
<ele>155.931763</ele>
<time>2010-07-17T18:01:24Z</time>
<desc>lat.=55.720451, lon.=26.061829, Alt.=155.931763m. Speed=29.771999m/h.</desc>
<speed>8.270000</speed>
</trkpt>
<trkpt lat="55.720390" lon="26.061872">
<ele>155.970825</ele>
<time>2010-07-17T18:01:25Z</time>
<desc>lat.=55.720390, lon.=26.061872, Alt.=155.970825m. Speed=26.063999m/h.</desc>
<speed>7.240000</speed>
</trkpt>
<trkpt lat="55.720333" lon="26.061922">
<ele>155.732544</ele>
<time>2010-07-17T18:01:26Z</time>
<desc>lat.=55.720333, lon.=26.061922, Alt.=155.732544m. Speed=27.756001m/h.</desc>
<speed>7.710000</speed>
</trkpt>
<trkpt lat="55.720268" lon="26.061972">
<ele>155.478638</ele>
<time>2010-07-17T18:01:27Z</time>
<desc>lat.=55.720268, lon.=26.061972, Alt.=155.478638m. Speed=27.360001m/h.</desc>
<speed>7.600000</speed>
</trkpt>
<trkpt lat="55.720203" lon="26.062023">
<ele>155.463013</ele>
<time>2010-07-17T18:01:28Z</time>
<desc>lat.=55.720203, lon.=26.062023, Alt.=155.463013m. Speed=27.468000m/h.</desc>
<speed>7.630000</speed>
</trkpt>
<trkpt lat="55.720146" lon="26.062080">
<ele>155.099731</ele>
<time>2010-07-17T18:01:29Z</time>
<desc>lat.=55.720146, lon.=26.062080, Alt.=155.099731m. Speed=25.488001m/h.</desc>
<speed>7.080000</speed>
</trkpt>
<trkpt lat="55.720100" lon="26.062128">
<ele>155.732544</ele>
<time>2010-07-17T18:01:30Z</time>
<desc>lat.=55.720100, lon.=26.062128, Alt.=155.732544m. Speed=23.364000m/h.</desc>
<speed>6.490000</speed>
</trkpt>
<trkpt lat="55.720055" lon="26.062180">
<ele>155.986450</ele>
<time>2010-07-17T18:01:31Z</time>
<desc>lat.=55.720055, lon.=26.062180, Alt.=155.986450m. Speed=21.167999m/h.</desc>
<speed>5.880000</speed>
</trkpt>
<trkpt lat="55.720013" lon="26.062223">
<ele>155.459106</ele>
<time>2010-07-17T18:01:32Z</time>
<desc>lat.=55.720013, lon.=26.062223, Alt.=155.459106m. Speed=19.728001m/h.</desc>
<speed>5.480000</speed>
</trkpt>
<trkpt lat="55.719975" lon="26.062271">
<ele>155.334106</ele>
<time>2010-07-17T18:01:33Z</time>
<desc>lat.=55.719975, lon.=26.062271, Alt.=155.334106m. Speed=18.792000m/h.</desc>
<speed>5.220000</speed>
</trkpt>
<trkpt lat="55.719933" lon="26.062305">
<ele>155.982544</ele>
<time>2010-07-17T18:01:34Z</time>
<desc>lat.=55.719933, lon.=26.062305, Alt.=155.982544m. Speed=17.856001m/h.</desc>
<speed>4.960000</speed>
</trkpt>
<trkpt lat="55.719894" lon="26.062340">
<ele>156.591919</ele>
<time>2010-07-17T18:01:35Z</time>
<desc>lat.=55.719894, lon.=26.062340, Alt.=156.591919m. Speed=15.732000m/h.</desc>
<speed>4.370000</speed>
</trkpt>
<trkpt lat="55.719864" lon="26.062372">
<ele>157.556763</ele>
<time>2010-07-17T18:01:36Z</time>
<desc>lat.=55.719864, lon.=26.062372, Alt.=157.556763m. Speed=13.356000m/h.</desc>
<speed>3.710000</speed>
</trkpt>
<trkpt lat="55.719849" lon="26.062393">
<ele>157.783325</ele>
<time>2010-07-17T18:01:37Z</time>
<desc>lat.=55.719849, lon.=26.062393, Alt.=157.783325m. Speed=9.864000m/h.</desc>
<speed>2.740000</speed>
</trkpt>
<trkpt lat="55.719830" lon="26.062416">
<ele>157.459106</ele>
<time>2010-07-17T18:01:38Z</time>
<desc>lat.=55.719830, lon.=26.062416, Alt.=157.459106m. Speed=10.116000m/h.</desc>
<speed>2.810000</speed>
</trkpt>
<trkpt lat="55.719814" lon="26.062435">
<ele>157.603638</ele>
<time>2010-07-17T18:01:39Z</time>
<desc>lat.=55.719814, lon.=26.062435, Alt.=157.603638m. Speed=8.748000m/h.</desc>
<speed>2.430000</speed>
</trkpt>
<trkpt lat="55.719788" lon="26.062458">
<ele>157.267700</ele>
<time>2010-07-17T18:01:40Z</time>
<desc>lat.=55.719788, lon.=26.062458, Alt.=157.267700m. Speed=8.244000m/h.</desc>
<speed>2.290000</speed>
</trkpt>
<trkpt lat="55.719772" lon="26.062475">
<ele>156.482544</ele>
<time>2010-07-17T18:01:41Z</time>
<desc>lat.=55.719772, lon.=26.062475, Alt.=156.482544m. Speed=7.596000m/h.</desc>
<speed>2.110000</speed>
</trkpt>
<trkpt lat="55.719753" lon="26.062496">
<ele>155.392700</ele>
<time>2010-07-17T18:01:42Z</time>
<desc>lat.=55.719753, lon.=26.062496, Alt.=155.392700m. Speed=8.532000m/h.</desc>
<speed>2.370000</speed>
</trkpt>
<trkpt lat="55.719734" lon="26.062515">
<ele>155.271606</ele>
<time>2010-07-17T18:01:43Z</time>
<desc>lat.=55.719734, lon.=26.062515, Alt.=155.271606m. Speed=8.496000m/h.</desc>
<speed>2.360000</speed>
</trkpt>
<trkpt lat="55.719715" lon="26.062534">
<ele>156.056763</ele>
<time>2010-07-17T18:01:44Z</time>
<desc>lat.=55.719715, lon.=26.062534, Alt.=156.056763m. Speed=8.316000m/h.</desc>
<speed>2.310000</speed>
</trkpt>
<trkpt lat="55.719696" lon="26.062557">
<ele>157.232544</ele>
<time>2010-07-17T18:01:45Z</time>
<desc>lat.=55.719696, lon.=26.062557, Alt.=157.232544m. Speed=10.404000m/h.</desc>
<speed>2.890000</speed>
</trkpt>
<trkpt lat="55.719666" lon="26.062572">
<ele>157.705200</ele>
<time>2010-07-17T18:01:46Z</time>
<desc>lat.=55.719666, lon.=26.062572, Alt.=157.705200m. Speed=10.440000m/h.</desc>
<speed>2.900000</speed>
</trkpt>
<trkpt lat="55.719635" lon="26.062584">
<ele>158.107544</ele>
<time>2010-07-17T18:01:47Z</time>
<desc>lat.=55.719635, lon.=26.062584, Alt.=158.107544m. Speed=11.304000m/h.</desc>
<speed>3.140000</speed>
</trkpt>
<trkpt lat="55.719601" lon="26.062605">
<ele>157.826294</ele>
<time>2010-07-17T18:01:48Z</time>
<desc>lat.=55.719601, lon.=26.062605, Alt.=157.826294m. Speed=14.184000m/h.</desc>
<speed>3.940000</speed>
</trkpt>
<trkpt lat="55.719566" lon="26.062626">
<ele>157.974731</ele>
<time>2010-07-17T18:01:49Z</time>
<desc>lat.=55.719566, lon.=26.062626, Alt.=157.974731m. Speed=13.752000m/h.</desc>
<speed>3.820000</speed>
</trkpt>
<trkpt lat="55.719540" lon="26.062645">
<ele>159.455200</ele>
<time>2010-07-17T18:01:50Z</time>
<desc>lat.=55.719540, lon.=26.062645, Alt.=159.455200m. Speed=13.644000m/h.</desc>
<speed>3.790000</speed>
</trkpt>
<trkpt lat="55.719509" lon="26.062672">
<ele>160.459106</ele>
<time>2010-07-17T18:01:51Z</time>
<desc>lat.=55.719509, lon.=26.062672, Alt.=160.459106m. Speed=14.508000m/h.</desc>
<speed>4.030000</speed>
</trkpt>
<trkpt lat="55.719475" lon="26.062702">
<ele>161.326294</ele>
<time>2010-07-17T18:01:52Z</time>
<desc>lat.=55.719475, lon.=26.062702, Alt.=161.326294m. Speed=14.832000m/h.</desc>
<speed>4.120000</speed>
</trkpt>
<trkpt lat="55.719444" lon="26.062737">
<ele>161.505981</ele>
<time>2010-07-17T18:01:53Z</time>
<desc>lat.=55.719444, lon.=26.062737, Alt.=161.505981m. Speed=15.372000m/h.</desc>
<speed>4.270000</speed>
</trkpt>
<trkpt lat="55.719410" lon="26.062765">
<ele>161.619263</ele>
<time>2010-07-17T18:01:54Z</time>
<desc>lat.=55.719410, lon.=26.062765, Alt.=161.619263m. Speed=15.696000m/h.</desc>
<speed>4.360000</speed>
</trkpt>
<trkpt lat="55.719372" lon="26.062792">
<ele>162.392700</ele>
<time>2010-07-17T18:01:55Z</time>
<desc>lat.=55.719372, lon.=26.062792, Alt.=162.392700m. Speed=15.372000m/h.</desc>
<speed>4.270000</speed>
</trkpt>
<trkpt lat="55.719337" lon="26.062824">
<ele>163.209106</ele>
<time>2010-07-17T18:01:56Z</time>
<desc>lat.=55.719337, lon.=26.062824, Alt.=163.209106m. Speed=16.200001m/h.</desc>
<speed>4.500000</speed>
</trkpt>
<trkpt lat="55.719296" lon="26.062864">
<ele>163.080200</ele>
<time>2010-07-17T18:01:57Z</time>
<desc>lat.=55.719296, lon.=26.062864, Alt.=163.080200m. Speed=16.955999m/h.</desc>
<speed>4.710000</speed>
</trkpt>
<trkpt lat="55.719261" lon="26.062895">
<ele>162.588013</ele>
<time>2010-07-17T18:01:58Z</time>
<desc>lat.=55.719261, lon.=26.062895, Alt.=162.588013m. Speed=16.775999m/h.</desc>
<speed>4.660000</speed>
</trkpt>
<trkpt lat="55.719223" lon="26.062927">
<ele>163.275513</ele>
<time>2010-07-17T18:01:59Z</time>
<desc>lat.=55.719223, lon.=26.062927, Alt.=163.275513m. Speed=16.416000m/h.</desc>
<speed>4.560000</speed>
</trkpt>
<trkpt lat="55.719181" lon="26.062967">
<ele>163.166138</ele>
<time>2010-07-17T18:02:00Z</time>
<desc>lat.=55.719181, lon.=26.062967, Alt.=163.166138m. Speed=17.172001m/h.</desc>
<speed>4.770000</speed>
</trkpt>
<trkpt lat="55.719135" lon="26.063011">
<ele>162.705200</ele>
<time>2010-07-17T18:02:01Z</time>
<desc>lat.=55.719135, lon.=26.063011, Alt.=162.705200m. Speed=19.007999m/h.</desc>
<speed>5.280000</speed>
</trkpt>
<trkpt lat="55.719090" lon="26.063053">
<ele>162.345825</ele>
<time>2010-07-17T18:02:02Z</time>
<desc>lat.=55.719090, lon.=26.063053, Alt.=162.345825m. Speed=18.000000m/h.</desc>
<speed>5.000000</speed>
</trkpt>
<trkpt lat="55.719048" lon="26.063091">
<ele>162.306763</ele>
<time>2010-07-17T18:02:03Z</time>
<desc>lat.=55.719048, lon.=26.063091, Alt.=162.306763m. Speed=20.052000m/h.</desc>
<speed>5.570000</speed>
</trkpt>
<trkpt lat="55.718998" lon="26.063137">
<ele>162.267700</ele>
<time>2010-07-17T18:02:04Z</time>
<desc>lat.=55.718998, lon.=26.063137, Alt.=162.267700m. Speed=22.320000m/h.</desc>
<speed>6.200000</speed>
</trkpt>
<trkpt lat="55.718952" lon="26.063173">
<ele>161.697388</ele>
<time>2010-07-17T18:02:05Z</time>
<desc>lat.=55.718952, lon.=26.063173, Alt.=161.697388m. Speed=19.908001m/h.</desc>
<speed>5.530000</speed>
</trkpt>
<trkpt lat="55.718903" lon="26.063202">
<ele>160.845825</ele>
<time>2010-07-17T18:02:06Z</time>
<desc>lat.=55.718903, lon.=26.063202, Alt.=160.845825m. Speed=19.836000m/h.</desc>
<speed>5.510000</speed>
</trkpt>
<trkpt lat="55.718853" lon="26.063244">
<ele>160.634888</ele>
<time>2010-07-17T18:02:07Z</time>
<desc>lat.=55.718853, lon.=26.063244, Alt.=160.634888m. Speed=20.664000m/h.</desc>
<speed>5.740000</speed>
</trkpt>
<trkpt lat="55.718807" lon="26.063276">
<ele>160.060669</ele>
<time>2010-07-17T18:02:08Z</time>
<desc>lat.=55.718807, lon.=26.063276, Alt.=160.060669m. Speed=18.756001m/h.</desc>
<speed>5.210000</speed>
</trkpt>
<trkpt lat="55.718765" lon="26.063314">
<ele>159.275513</ele>
<time>2010-07-17T18:02:09Z</time>
<desc>lat.=55.718765, lon.=26.063314, Alt.=159.275513m. Speed=19.188000m/h.</desc>
<speed>5.330000</speed>
</trkpt>
<trkpt lat="55.718716" lon="26.063354">
<ele>158.775513</ele>
<time>2010-07-17T18:02:10Z</time>
<desc>lat.=55.718716, lon.=26.063354, Alt.=158.775513m. Speed=20.736000m/h.</desc>
<speed>5.760000</speed>
</trkpt>
<trkpt lat="55.718662" lon="26.063391">
<ele>158.123169</ele>
<time>2010-07-17T18:02:11Z</time>
<desc>lat.=55.718662, lon.=26.063391, Alt.=158.123169m. Speed=22.139999m/h.</desc>
<speed>6.150000</speed>
</trkpt>
<trkpt lat="55.718613" lon="26.063427">
<ele>157.642700</ele>
<time>2010-07-17T18:02:12Z</time>
<desc>lat.=55.718613, lon.=26.063427, Alt.=157.642700m. Speed=20.160000m/h.</desc>
<speed>5.600000</speed>
</trkpt>
<trkpt lat="55.718559" lon="26.063471">
<ele>157.076294</ele>
<time>2010-07-17T18:02:13Z</time>
<desc>lat.=55.718559, lon.=26.063471, Alt.=157.076294m. Speed=20.448000m/h.</desc>
<speed>5.680000</speed>
</trkpt>
<trkpt lat="55.718517" lon="26.063511">
<ele>156.572388</ele>
<time>2010-07-17T18:02:14Z</time>
<desc>lat.=55.718517, lon.=26.063511, Alt.=156.572388m. Speed=18.719999m/h.</desc>
<speed>5.200000</speed>
</trkpt>
<trkpt lat="55.718475" lon="26.063551">
<ele>155.841919</ele>
<time>2010-07-17T18:02:15Z</time>
<desc>lat.=55.718475, lon.=26.063551, Alt.=155.841919m. Speed=20.879999m/h.</desc>
<speed>5.800000</speed>
</trkpt>
<trkpt lat="55.718426" lon="26.063587">
<ele>155.017700</ele>
<time>2010-07-17T18:02:16Z</time>
<desc>lat.=55.718426, lon.=26.063587, Alt.=155.017700m. Speed=20.304001m/h.</desc>
<speed>5.640000</speed>
</trkpt>
<trkpt lat="55.718376" lon="26.063627">
<ele>154.400513</ele>
<time>2010-07-17T18:02:17Z</time>
<desc>lat.=55.718376, lon.=26.063627, Alt.=154.400513m. Speed=22.823999m/h.</desc>
<speed>6.340000</speed>
</trkpt>
<trkpt lat="55.718319" lon="26.063669">
<ele>153.759888</ele>
<time>2010-07-17T18:02:18Z</time>
<desc>lat.=55.718319, lon.=26.063669, Alt.=153.759888m. Speed=23.472000m/h.</desc>
<speed>6.520000</speed>
</trkpt>
<trkpt lat="55.718266" lon="26.063717">
<ele>153.060669</ele>
<time>2010-07-17T18:02:19Z</time>
<desc>lat.=55.718266, lon.=26.063717, Alt.=153.060669m. Speed=22.968000m/h.</desc>
<speed>6.380000</speed>
</trkpt>
<trkpt lat="55.718212" lon="26.063757">
<ele>152.318481</ele>
<time>2010-07-17T18:02:20Z</time>
<desc>lat.=55.718212, lon.=26.063757, Alt.=152.318481m. Speed=21.888000m/h.</desc>
<speed>6.080000</speed>
</trkpt>
<trkpt lat="55.718166" lon="26.063808">
<ele>152.392700</ele>
<time>2010-07-17T18:02:21Z</time>
<desc>lat.=55.718166, lon.=26.063808, Alt.=152.392700m. Speed=21.167999m/h.</desc>
<speed>5.880000</speed>
</trkpt>
<trkpt lat="55.718121" lon="26.063845">
<ele>151.982544</ele>
<time>2010-07-17T18:02:22Z</time>
<desc>lat.=55.718121, lon.=26.063845, Alt.=151.982544m. Speed=19.403999m/h.</desc>
<speed>5.390000</speed>
</trkpt>
<trkpt lat="55.718079" lon="26.063887">
<ele>151.283325</ele>
<time>2010-07-17T18:02:23Z</time>
<desc>lat.=55.718079, lon.=26.063887, Alt.=151.283325m. Speed=20.052000m/h.</desc>
<speed>5.570000</speed>
</trkpt>
<trkpt lat="55.718029" lon="26.063919">
<ele>150.580200</ele>
<time>2010-07-17T18:02:24Z</time>
<desc>lat.=55.718029, lon.=26.063919, Alt.=150.580200m. Speed=20.160000m/h.</desc>
<speed>5.600000</speed>
</trkpt>
<trkpt lat="55.717987" lon="26.063953">
<ele>150.990356</ele>
<time>2010-07-17T18:02:25Z</time>
<desc>lat.=55.717987, lon.=26.063953, Alt.=150.990356m. Speed=19.260000m/h.</desc>
<speed>5.350000</speed>
</trkpt>
<trkpt lat="55.717945" lon="26.063976">
<ele>151.318481</ele>
<time>2010-07-17T18:02:26Z</time>
<desc>lat.=55.717945, lon.=26.063976, Alt.=151.318481m. Speed=16.955999m/h.</desc>
<speed>4.710000</speed>
</trkpt>
<trkpt lat="55.717899" lon="26.064003">
<ele>151.646606</ele>
<time>2010-07-17T18:02:27Z</time>
<desc>lat.=55.717899, lon.=26.064003, Alt.=151.646606m. Speed=18.972000m/h.</desc>
<speed>5.270000</speed>
</trkpt>
<trkpt lat="55.717846" lon="26.064041">
<ele>151.771606</ele>
<time>2010-07-17T18:02:28Z</time>
<desc>lat.=55.717846, lon.=26.064041, Alt.=151.771606m. Speed=20.628000m/h.</desc>
<speed>5.730000</speed>
</trkpt>
<trkpt lat="55.717804" lon="26.064066">
<ele>152.869263</ele>
<time>2010-07-17T18:02:29Z</time>
<desc>lat.=55.717804, lon.=26.064066, Alt.=152.869263m. Speed=18.792000m/h.</desc>
<speed>5.220000</speed>
</trkpt>
<trkpt lat="55.717754" lon="26.064089">
<ele>153.314575</ele>
<time>2010-07-17T18:02:30Z</time>
<desc>lat.=55.717754, lon.=26.064089, Alt.=153.314575m. Speed=18.756001m/h.</desc>
<speed>5.210000</speed>
</trkpt>
<trkpt lat="55.717709" lon="26.064117">
<ele>153.857544</ele>
<time>2010-07-17T18:02:31Z</time>
<desc>lat.=55.717709, lon.=26.064117, Alt.=153.857544m. Speed=18.360001m/h.</desc>
<speed>5.100000</speed>
</trkpt>
<trkpt lat="55.717663" lon="26.064133">
<ele>154.357544</ele>
<time>2010-07-17T18:02:32Z</time>
<desc>lat.=55.717663, lon.=26.064133, Alt.=154.357544m. Speed=18.360001m/h.</desc>
<speed>5.100000</speed>
</trkpt>
<trkpt lat="55.717617" lon="26.064152">
<ele>154.459106</ele>
<time>2010-07-17T18:02:33Z</time>
<desc>lat.=55.717617, lon.=26.064152, Alt.=154.459106m. Speed=18.323999m/h.</desc>
<speed>5.090000</speed>
</trkpt>
<trkpt lat="55.717575" lon="26.064169">
<ele>154.845825</ele>
<time>2010-07-17T18:02:34Z</time>
<desc>lat.=55.717575, lon.=26.064169, Alt.=154.845825m. Speed=17.063999m/h.</desc>
<speed>4.740000</speed>
</trkpt>
<trkpt lat="55.717533" lon="26.064182">
<ele>156.037231</ele>
<time>2010-07-17T18:02:35Z</time>
<desc>lat.=55.717533, lon.=26.064182, Alt.=156.037231m. Speed=15.840000m/h.</desc>
<speed>4.400000</speed>
</trkpt>
<trkpt lat="55.717499" lon="26.064199">
<ele>156.396606</ele>
<time>2010-07-17T18:02:36Z</time>
<desc>lat.=55.717499, lon.=26.064199, Alt.=156.396606m. Speed=15.804000m/h.</desc>
<speed>4.390000</speed>
</trkpt>
<trkpt lat="55.717464" lon="26.064220">
<ele>156.947388</ele>
<time>2010-07-17T18:02:37Z</time>
<desc>lat.=55.717464, lon.=26.064220, Alt.=156.947388m. Speed=13.392000m/h.</desc>
<speed>3.720000</speed>
</trkpt>
<trkpt lat="55.717426" lon="26.064224">
<ele>156.990356</ele>
<time>2010-07-17T18:02:38Z</time>
<desc>lat.=55.717426, lon.=26.064224, Alt.=156.990356m. Speed=13.572000m/h.</desc>
<speed>3.770000</speed>
</trkpt>
<trkpt lat="55.717388" lon="26.064245">
<ele>156.603638</ele>
<time>2010-07-17T18:02:39Z</time>
<desc>lat.=55.717388, lon.=26.064245, Alt.=156.603638m. Speed=15.480000m/h.</desc>
<speed>4.300000</speed>
</trkpt>
<trkpt lat="55.717346" lon="26.064268">
<ele>156.923950</ele>
<time>2010-07-17T18:02:40Z</time>
<desc>lat.=55.717346, lon.=26.064268, Alt.=156.923950m. Speed=14.652000m/h.</desc>
<speed>4.070000</speed>
</trkpt>
<trkpt lat="55.717308" lon="26.064289">
<ele>157.252075</ele>
<time>2010-07-17T18:02:41Z</time>
<desc>lat.=55.717308, lon.=26.064289, Alt.=157.252075m. Speed=14.112000m/h.</desc>
<speed>3.920000</speed>
</trkpt>
<trkpt lat="55.717270" lon="26.064310">
<ele>157.314575</ele>
<time>2010-07-17T18:02:42Z</time>
<desc>lat.=55.717270, lon.=26.064310, Alt.=157.314575m. Speed=13.932000m/h.</desc>
<speed>3.870000</speed>
</trkpt>
<trkpt lat="55.717239" lon="26.064322">
<ele>157.673950</ele>
<time>2010-07-17T18:02:43Z</time>
<desc>lat.=55.717239, lon.=26.064322, Alt.=157.673950m. Speed=13.428000m/h.</desc>
<speed>3.730000</speed>
</trkpt>
<trkpt lat="55.717205" lon="26.064337">
<ele>157.713013</ele>
<time>2010-07-17T18:02:44Z</time>
<desc>lat.=55.717205, lon.=26.064337, Alt.=157.713013m. Speed=14.112000m/h.</desc>
<speed>3.920000</speed>
</trkpt>
<trkpt lat="55.717167" lon="26.064358">
<ele>158.439575</ele>
<time>2010-07-17T18:02:45Z</time>
<desc>lat.=55.717167, lon.=26.064358, Alt.=158.439575m. Speed=14.256000m/h.</desc>
<speed>3.960000</speed>
</trkpt>
<trkpt lat="55.717133" lon="26.064390">
<ele>159.548950</ele>
<time>2010-07-17T18:02:46Z</time>
<desc>lat.=55.717133, lon.=26.064390, Alt.=159.548950m. Speed=15.084000m/h.</desc>
<speed>4.190000</speed>
</trkpt>
<trkpt lat="55.717098" lon="26.064415">
<ele>159.994263</ele>
<time>2010-07-17T18:02:47Z</time>
<desc>lat.=55.717098, lon.=26.064415, Alt.=159.994263m. Speed=14.796000m/h.</desc>
<speed>4.110000</speed>
</trkpt>
<trkpt lat="55.717060" lon="26.064428">
<ele>160.306763</ele>
<time>2010-07-17T18:02:48Z</time>
<desc>lat.=55.717060, lon.=26.064428, Alt.=160.306763m. Speed=14.292000m/h.</desc>
<speed>3.970000</speed>
</trkpt>
<trkpt lat="55.717026" lon="26.064440">
<ele>160.545044</ele>
<time>2010-07-17T18:02:49Z</time>
<desc>lat.=55.717026, lon.=26.064440, Alt.=160.545044m. Speed=15.480000m/h.</desc>
<speed>4.300000</speed>
</trkpt>
<trkpt lat="55.716984" lon="26.064455">
<ele>160.509888</ele>
<time>2010-07-17T18:02:50Z</time>
<desc>lat.=55.716984, lon.=26.064455, Alt.=160.509888m. Speed=15.048000m/h.</desc>
<speed>4.180000</speed>
</trkpt>
<trkpt lat="55.716949" lon="26.064470">
<ele>160.146606</ele>
<time>2010-07-17T18:02:51Z</time>
<desc>lat.=55.716949, lon.=26.064470, Alt.=160.146606m. Speed=14.976000m/h.</desc>
<speed>4.160000</speed>
</trkpt>
<trkpt lat="55.716908" lon="26.064482">
<ele>159.205200</ele>
<time>2010-07-17T18:02:52Z</time>
<desc>lat.=55.716908, lon.=26.064482, Alt.=159.205200m. Speed=17.459999m/h.</desc>
<speed>4.850000</speed>
</trkpt>
<trkpt lat="55.716858" lon="26.064507">
<ele>158.306763</ele>
<time>2010-07-17T18:02:53Z</time>
<desc>lat.=55.716858, lon.=26.064507, Alt.=158.306763m. Speed=18.684000m/h.</desc>
<speed>5.190000</speed>
</trkpt>
<trkpt lat="55.716801" lon="26.064522">
<ele>157.498169</ele>
<time>2010-07-17T18:02:54Z</time>
<desc>lat.=55.716801, lon.=26.064522, Alt.=157.498169m. Speed=20.195999m/h.</desc>
<speed>5.610000</speed>
</trkpt>
<trkpt lat="55.716751" lon="26.064547">
<ele>158.103638</ele>
<time>2010-07-17T18:02:55Z</time>
<desc>lat.=55.716751, lon.=26.064547, Alt.=158.103638m. Speed=21.600000m/h.</desc>
<speed>6.000000</speed>
</trkpt>
<trkpt lat="55.716702" lon="26.064575">
<ele>159.002075</ele>
<time>2010-07-17T18:02:56Z</time>
<desc>lat.=55.716702, lon.=26.064575, Alt.=159.002075m. Speed=21.672001m/h.</desc>
<speed>6.020000</speed>
</trkpt>
<trkpt lat="55.716648" lon="26.064598">
<ele>158.974731</ele>
<time>2010-07-17T18:02:57Z</time>
<desc>lat.=55.716648, lon.=26.064598, Alt.=158.974731m. Speed=20.375999m/h.</desc>
<speed>5.660000</speed>
</trkpt>
<trkpt lat="55.716595" lon="26.064619">
<ele>158.463013</ele>
<time>2010-07-17T18:02:58Z</time>
<desc>lat.=55.716595, lon.=26.064619, Alt.=158.463013m. Speed=20.808001m/h.</desc>
<speed>5.780000</speed>
</trkpt>
<trkpt lat="55.716549" lon="26.064642">
<ele>158.173950</ele>
<time>2010-07-17T18:02:59Z</time>
<desc>lat.=55.716549, lon.=26.064642, Alt.=158.173950m. Speed=20.195999m/h.</desc>
<speed>5.610000</speed>
</trkpt>
<trkpt lat="55.716507" lon="26.064669">
<ele>158.955200</ele>
<time>2010-07-17T18:03:00Z</time>
<desc>lat.=55.716507, lon.=26.064669, Alt.=158.955200m. Speed=18.288000m/h.</desc>
<speed>5.080000</speed>
</trkpt>
<trkpt lat="55.716457" lon="26.064686">
<ele>158.345825</ele>
<time>2010-07-17T18:03:01Z</time>
<desc>lat.=55.716457, lon.=26.064686, Alt.=158.345825m. Speed=19.872000m/h.</desc>
<speed>5.520000</speed>
</trkpt>
<trkpt lat="55.716400" lon="26.064701">
<ele>157.935669</ele>
<time>2010-07-17T18:03:02Z</time>
<desc>lat.=55.716400, lon.=26.064701, Alt.=157.935669m. Speed=20.483999m/h.</desc>
<speed>5.690000</speed>
</trkpt>
<trkpt lat="55.716354" lon="26.064711">
<ele>157.720825</ele>
<time>2010-07-17T18:03:03Z</time>
<desc>lat.=55.716354, lon.=26.064711, Alt.=157.720825m. Speed=19.764000m/h.</desc>
<speed>5.490000</speed>
</trkpt>
<trkpt lat="55.716301" lon="26.064734">
<ele>156.330200</ele>
<time>2010-07-17T18:03:04Z</time>
<desc>lat.=55.716301, lon.=26.064734, Alt.=156.330200m. Speed=20.916000m/h.</desc>
<speed>5.810000</speed>
</trkpt>
<trkpt lat="55.716251" lon="26.064753">
<ele>155.638794</ele>
<time>2010-07-17T18:03:05Z</time>
<desc>lat.=55.716251, lon.=26.064753, Alt.=155.638794m. Speed=20.664000m/h.</desc>
<speed>5.740000</speed>
</trkpt>
<trkpt lat="55.716198" lon="26.064770">
<ele>154.857544</ele>
<time>2010-07-17T18:03:06Z</time>
<desc>lat.=55.716198, lon.=26.064770, Alt.=154.857544m. Speed=22.247999m/h.</desc>
<speed>6.180000</speed>
</trkpt>
<trkpt lat="55.716148" lon="26.064783">
<ele>155.236450</ele>
<time>2010-07-17T18:03:07Z</time>
<desc>lat.=55.716148, lon.=26.064783, Alt.=155.236450m. Speed=20.195999m/h.</desc>
<speed>5.610000</speed>
</trkpt>
<trkpt lat="55.716099" lon="26.064791">
<ele>154.935669</ele>
<time>2010-07-17T18:03:08Z</time>
<desc>lat.=55.716099, lon.=26.064791, Alt.=154.935669m. Speed=19.656000m/h.</desc>
<speed>5.460000</speed>
</trkpt>
<trkpt lat="55.716049" lon="26.064800">
<ele>154.064575</ele>
<time>2010-07-17T18:03:09Z</time>
<desc>lat.=55.716049, lon.=26.064800, Alt.=154.064575m. Speed=18.936001m/h.</desc>
<speed>5.260000</speed>
</trkpt>
<trkpt lat="55.716000" lon="26.064823">
<ele>153.744263</ele>
<time>2010-07-17T18:03:10Z</time>
<desc>lat.=55.716000, lon.=26.064823, Alt.=153.744263m. Speed=20.195999m/h.</desc>
<speed>5.610000</speed>
</trkpt>
<trkpt lat="55.715950" lon="26.064863">
<ele>153.392700</ele>
<time>2010-07-17T18:03:11Z</time>
<desc>lat.=55.715950, lon.=26.064863, Alt.=153.392700m. Speed=19.872000m/h.</desc>
<speed>5.520000</speed>
</trkpt>
<trkpt lat="55.715904" lon="26.064892">
<ele>152.943481</ele>
<time>2010-07-17T18:03:12Z</time>
<desc>lat.=55.715904, lon.=26.064892, Alt.=152.943481m. Speed=18.396000m/h.</desc>
<speed>5.110000</speed>
</trkpt>
<trkpt lat="55.715847" lon="26.064939">
<ele>152.072388</ele>
<time>2010-07-17T18:03:13Z</time>
<desc>lat.=55.715847, lon.=26.064939, Alt.=152.072388m. Speed=19.476000m/h.</desc>
<speed>5.410000</speed>
</trkpt>
<trkpt lat="55.715794" lon="26.064976">
<ele>151.572388</ele>
<time>2010-07-17T18:03:14Z</time>
<desc>lat.=55.715794, lon.=26.064976, Alt.=151.572388m. Speed=19.728001m/h.</desc>
<speed>5.480000</speed>
</trkpt>
<trkpt lat="55.715748" lon="26.064995">
<ele>151.338013</ele>
<time>2010-07-17T18:03:15Z</time>
<desc>lat.=55.715748, lon.=26.064995, Alt.=151.338013m. Speed=19.332001m/h.</desc>
<speed>5.370000</speed>
</trkpt>
<trkpt lat="55.715698" lon="26.065006">
<ele>151.513794</ele>
<time>2010-07-17T18:03:16Z</time>
<desc>lat.=55.715698, lon.=26.065006, Alt.=151.513794m. Speed=18.648001m/h.</desc>
<speed>5.180000</speed>
</trkpt>
<trkpt lat="55.715649" lon="26.065029">
<ele>151.099731</ele>
<time>2010-07-17T18:03:17Z</time>
<desc>lat.=55.715649, lon.=26.065029, Alt.=151.099731m. Speed=21.600000m/h.</desc>
<speed>6.000000</speed>
</trkpt>
<trkpt lat="55.715595" lon="26.065046">
<ele>150.181763</ele>
<time>2010-07-17T18:03:18Z</time>
<desc>lat.=55.715595, lon.=26.065046, Alt.=150.181763m. Speed=22.752001m/h.</desc>
<speed>6.320000</speed>
</trkpt>
<trkpt lat="55.715542" lon="26.065071">
<ele>149.748169</ele>
<time>2010-07-17T18:03:19Z</time>
<desc>lat.=55.715542, lon.=26.065071, Alt.=149.748169m. Speed=22.464001m/h.</desc>
<speed>6.240000</speed>
</trkpt>
<trkpt lat="55.715488" lon="26.065098">
<ele>149.193481</ele>
<time>2010-07-17T18:03:20Z</time>
<desc>lat.=55.715488, lon.=26.065098, Alt.=149.193481m. Speed=22.104000m/h.</desc>
<speed>6.140000</speed>
</trkpt>
<trkpt lat="55.715446" lon="26.065113">
<ele>149.388794</ele>
<time>2010-07-17T18:03:21Z</time>
<desc>lat.=55.715446, lon.=26.065113, Alt.=149.388794m. Speed=20.808001m/h.</desc>
<speed>5.780000</speed>
</trkpt>
<trkpt lat="55.715397" lon="26.065136">
<ele>149.154419</ele>
<time>2010-07-17T18:03:22Z</time>
<desc>lat.=55.715397, lon.=26.065136, Alt.=149.154419m. Speed=20.412001m/h.</desc>
<speed>5.670000</speed>
</trkpt>
<trkpt lat="55.715351" lon="26.065161">
<ele>149.384888</ele>
<time>2010-07-17T18:03:23Z</time>
<desc>lat.=55.715351, lon.=26.065161, Alt.=149.384888m. Speed=19.368000m/h.</desc>
<speed>5.380000</speed>
</trkpt>
<trkpt lat="55.715305" lon="26.065187">
<ele>149.529419</ele>
<time>2010-07-17T18:03:24Z</time>
<desc>lat.=55.715305, lon.=26.065187, Alt.=149.529419m. Speed=19.368000m/h.</desc>
<speed>5.380000</speed>
</trkpt>
<trkpt lat="55.715256" lon="26.065203">
<ele>149.345825</ele>
<time>2010-07-17T18:03:25Z</time>
<desc>lat.=55.715256, lon.=26.065203, Alt.=149.345825m. Speed=19.115999m/h.</desc>
<speed>5.310000</speed>
</trkpt>
<trkpt lat="55.715210" lon="26.065224">
<ele>149.345825</ele>
<time>2010-07-17T18:03:26Z</time>
<desc>lat.=55.715210, lon.=26.065224, Alt.=149.345825m. Speed=18.900000m/h.</desc>
<speed>5.250000</speed>
</trkpt>
<trkpt lat="55.715160" lon="26.065239">
<ele>149.677856</ele>
<time>2010-07-17T18:03:27Z</time>
<desc>lat.=55.715160, lon.=26.065239, Alt.=149.677856m. Speed=20.664000m/h.</desc>
<speed>5.740000</speed>
</trkpt>
<trkpt lat="55.715107" lon="26.065254">
<ele>149.705200</ele>
<time>2010-07-17T18:03:28Z</time>
<desc>lat.=55.715107, lon.=26.065254, Alt.=149.705200m. Speed=21.743999m/h.</desc>
<speed>6.040000</speed>
</trkpt>
<trkpt lat="55.715054" lon="26.065269">
<ele>150.170044</ele>
<time>2010-07-17T18:03:29Z</time>
<desc>lat.=55.715054, lon.=26.065269, Alt.=150.170044m. Speed=21.636000m/h.</desc>
<speed>6.010000</speed>
</trkpt>
<trkpt lat="55.715000" lon="26.065296">
<ele>151.330200</ele>
<time>2010-07-17T18:03:30Z</time>
<desc>lat.=55.715000, lon.=26.065296, Alt.=151.330200m. Speed=21.780001m/h.</desc>
<speed>6.050000</speed>
</trkpt>
<trkpt lat="55.714943" lon="26.065315">
<ele>151.408325</ele>
<time>2010-07-17T18:03:31Z</time>
<desc>lat.=55.714943, lon.=26.065315, Alt.=151.408325m. Speed=22.139999m/h.</desc>
<speed>6.150000</speed>
</trkpt>
<trkpt lat="55.714893" lon="26.065342">
<ele>151.830200</ele>
<time>2010-07-17T18:03:32Z</time>
<desc>lat.=55.714893, lon.=26.065342, Alt.=151.830200m. Speed=21.204000m/h.</desc>
<speed>5.890000</speed>
</trkpt>
<trkpt lat="55.714840" lon="26.065363">
<ele>151.978638</ele>
<time>2010-07-17T18:03:33Z</time>
<desc>lat.=55.714840, lon.=26.065363, Alt.=151.978638m. Speed=20.124001m/h.</desc>
<speed>5.590000</speed>
</trkpt>
<trkpt lat="55.714783" lon="26.065378">
<ele>151.759888</ele>
<time>2010-07-17T18:03:34Z</time>
<desc>lat.=55.714783, lon.=26.065378, Alt.=151.759888m. Speed=21.743999m/h.</desc>
<speed>6.040000</speed>
</trkpt>
<trkpt lat="55.714722" lon="26.065399">
<ele>151.232544</ele>
<time>2010-07-17T18:03:35Z</time>
<desc>lat.=55.714722, lon.=26.065399, Alt.=151.232544m. Speed=22.284000m/h.</desc>
<speed>6.190000</speed>
</trkpt>
<trkpt lat="55.714664" lon="26.065416">
<ele>151.080200</ele>
<time>2010-07-17T18:03:36Z</time>
<desc>lat.=55.714664, lon.=26.065416, Alt.=151.080200m. Speed=21.672001m/h.</desc>
<speed>6.020000</speed>
</trkpt>
<trkpt lat="55.714607" lon="26.065435">
<ele>151.240356</ele>
<time>2010-07-17T18:03:37Z</time>
<desc>lat.=55.714607, lon.=26.065435, Alt.=151.240356m. Speed=21.059999m/h.</desc>
<speed>5.850000</speed>
</trkpt>
<trkpt lat="55.714554" lon="26.065456">
<ele>151.572388</ele>
<time>2010-07-17T18:03:38Z</time>
<desc>lat.=55.714554, lon.=26.065456, Alt.=151.572388m. Speed=23.292000m/h.</desc>
<speed>6.470000</speed>
</trkpt>
<trkpt lat="55.714500" lon="26.065483">
<ele>151.818481</ele>
<time>2010-07-17T18:03:39Z</time>
<desc>lat.=55.714500, lon.=26.065483, Alt.=151.818481m. Speed=21.096001m/h.</desc>
<speed>5.860000</speed>
</trkpt>
<trkpt lat="55.714447" lon="26.065504">
<ele>151.877075</ele>
<time>2010-07-17T18:03:40Z</time>
<desc>lat.=55.714447, lon.=26.065504, Alt.=151.877075m. Speed=22.392000m/h.</desc>
<speed>6.220000</speed>
</trkpt>
<trkpt lat="55.714394" lon="26.065529">
<ele>151.599731</ele>
<time>2010-07-17T18:03:41Z</time>
<desc>lat.=55.714394, lon.=26.065529, Alt.=151.599731m. Speed=21.240000m/h.</desc>
<speed>5.900000</speed>
</trkpt>
<trkpt lat="55.714348" lon="26.065556">
<ele>151.826294</ele>
<time>2010-07-17T18:03:42Z</time>
<desc>lat.=55.714348, lon.=26.065556, Alt.=151.826294m. Speed=19.332001m/h.</desc>
<speed>5.370000</speed>
</trkpt>
<trkpt lat="55.714302" lon="26.065577">
<ele>152.236450</ele>
<time>2010-07-17T18:03:43Z</time>
<desc>lat.=55.714302, lon.=26.065577, Alt.=152.236450m. Speed=18.576000m/h.</desc>
<speed>5.160000</speed>
</trkpt>
<trkpt lat="55.714260" lon="26.065592">
<ele>152.619263</ele>
<time>2010-07-17T18:03:44Z</time>
<desc>lat.=55.714260, lon.=26.065592, Alt.=152.619263m. Speed=17.532000m/h.</desc>
<speed>4.870000</speed>
</trkpt>
<trkpt lat="55.714222" lon="26.065617">
<ele>152.939575</ele>
<time>2010-07-17T18:03:45Z</time>
<desc>lat.=55.714222, lon.=26.065617, Alt.=152.939575m. Speed=16.704000m/h.</desc>
<speed>4.640000</speed>
</trkpt>
<trkpt lat="55.714188" lon="26.065638">
<ele>153.240356</ele>
<time>2010-07-17T18:03:46Z</time>
<desc>lat.=55.714188, lon.=26.065638, Alt.=153.240356m. Speed=15.048000m/h.</desc>
<speed>4.180000</speed>
</trkpt>
<trkpt lat="55.714153" lon="26.065655">
<ele>153.810669</ele>
<time>2010-07-17T18:03:47Z</time>
<desc>lat.=55.714153, lon.=26.065655, Alt.=153.810669m. Speed=14.400000m/h.</desc>
<speed>4.000000</speed>
</trkpt>
<trkpt lat="55.714119" lon="26.065672">
<ele>154.763794</ele>
<time>2010-07-17T18:03:48Z</time>
<desc>lat.=55.714119, lon.=26.065672, Alt.=154.763794m. Speed=11.808000m/h.</desc>
<speed>3.280000</speed>
</trkpt>
<trkpt lat="55.714104" lon="26.065681">
<ele>155.978638</ele>
<time>2010-07-17T18:03:49Z</time>
<desc>lat.=55.714104, lon.=26.065681, Alt.=155.978638m. Speed=12.204000m/h.</desc>
<speed>3.390000</speed>
</trkpt>
<trkpt lat="55.714077" lon="26.065702">
<ele>157.670044</ele>
<time>2010-07-17T18:03:50Z</time>
<desc>lat.=55.714077, lon.=26.065702, Alt.=157.670044m. Speed=10.476000m/h.</desc>
<speed>2.910000</speed>
</trkpt>
<trkpt lat="55.714054" lon="26.065710">
<ele>158.431763</ele>
<time>2010-07-17T18:03:51Z</time>
<desc>lat.=55.714054, lon.=26.065710, Alt.=158.431763m. Speed=10.368000m/h.</desc>
<speed>2.880000</speed>
</trkpt>
<trkpt lat="55.714031" lon="26.065718">
<ele>158.736450</ele>
<time>2010-07-17T18:03:52Z</time>
<desc>lat.=55.714031, lon.=26.065718, Alt.=158.736450m. Speed=10.620000m/h.</desc>
<speed>2.950000</speed>
</trkpt>
<trkpt lat="55.714008" lon="26.065729">
<ele>158.545044</ele>
<time>2010-07-17T18:03:53Z</time>
<desc>lat.=55.714008, lon.=26.065729, Alt.=158.545044m. Speed=10.728000m/h.</desc>
<speed>2.980000</speed>
</trkpt>
<trkpt lat="55.713982" lon="26.065735">
<ele>158.963013</ele>
<time>2010-07-17T18:03:54Z</time>
<desc>lat.=55.713982, lon.=26.065735, Alt.=158.963013m. Speed=10.908000m/h.</desc>
<speed>3.030000</speed>
</trkpt>
<trkpt lat="55.713951" lon="26.065741">
<ele>159.025513</ele>
<time>2010-07-17T18:03:55Z</time>
<desc>lat.=55.713951, lon.=26.065741, Alt.=159.025513m. Speed=11.484000m/h.</desc>
<speed>3.190000</speed>
</trkpt>
<trkpt lat="55.713928" lon="26.065748">
<ele>159.298950</ele>
<time>2010-07-17T18:03:56Z</time>
<desc>lat.=55.713928, lon.=26.065748, Alt.=159.298950m. Speed=9.216000m/h.</desc>
<speed>2.560000</speed>
</trkpt>
<trkpt lat="55.713905" lon="26.065758">
<ele>159.384888</ele>
<time>2010-07-17T18:03:57Z</time>
<desc>lat.=55.713905, lon.=26.065758, Alt.=159.384888m. Speed=8.676000m/h.</desc>
<speed>2.410000</speed>
</trkpt>
<trkpt lat="55.713882" lon="26.065775">
<ele>160.427856</ele>
<time>2010-07-17T18:03:58Z</time>
<desc>lat.=55.713882, lon.=26.065775, Alt.=160.427856m. Speed=7.668000m/h.</desc>
<speed>2.130000</speed>
</trkpt>
<trkpt lat="55.713863" lon="26.065794">
<ele>161.064575</ele>
<time>2010-07-17T18:03:59Z</time>
<desc>lat.=55.713863, lon.=26.065794, Alt.=161.064575m. Speed=7.632000m/h.</desc>
<speed>2.120000</speed>
</trkpt>
<trkpt lat="55.713856" lon="26.065809">
<ele>161.775513</ele>
<time>2010-07-17T18:04:00Z</time>
<desc>lat.=55.713856, lon.=26.065809, Alt.=161.775513m. Speed=6.156000m/h.</desc>
<speed>1.710000</speed>
</trkpt>
<trkpt lat="55.713840" lon="26.065823">
<ele>161.814575</ele>
<time>2010-07-17T18:04:01Z</time>
<desc>lat.=55.713840, lon.=26.065823, Alt.=161.814575m. Speed=5.652000m/h.</desc>
<speed>1.570000</speed>
</trkpt>
<trkpt lat="55.713825" lon="26.065842">
<ele>162.041138</ele>
<time>2010-07-17T18:04:02Z</time>
<desc>lat.=55.713825, lon.=26.065842, Alt.=162.041138m. Speed=6.732000m/h.</desc>
<speed>1.870000</speed>
</trkpt>
<trkpt lat="55.713814" lon="26.065849">
<ele>162.255981</ele>
<time>2010-07-17T18:04:03Z</time>
<desc>lat.=55.713814, lon.=26.065849, Alt.=162.255981m. Speed=5.184000m/h.</desc>
<speed>1.440000</speed>
</trkpt>
<trkpt lat="55.713799" lon="26.065853">
<ele>162.384888</ele>
<time>2010-07-17T18:04:04Z</time>
<desc>lat.=55.713799, lon.=26.065853, Alt.=162.384888m. Speed=5.220000m/h.</desc>
<speed>1.450000</speed>
</trkpt>
<trkpt lat="55.713783" lon="26.065859">
<ele>161.927856</ele>
<time>2010-07-17T18:04:05Z</time>
<desc>lat.=55.713783, lon.=26.065859, Alt.=161.927856m. Speed=5.796000m/h.</desc>
<speed>1.610000</speed>
</trkpt>
<trkpt lat="55.713760" lon="26.065865">
<ele>162.009888</ele>
<time>2010-07-17T18:04:06Z</time>
<desc>lat.=55.713760, lon.=26.065865, Alt.=162.009888m. Speed=6.732000m/h.</desc>
<speed>1.870000</speed>
</trkpt>
<trkpt lat="55.713745" lon="26.065863">
<ele>161.689575</ele>
<time>2010-07-17T18:04:07Z</time>
<desc>lat.=55.713745, lon.=26.065863, Alt.=161.689575m. Speed=5.472000m/h.</desc>
<speed>1.520000</speed>
</trkpt>
<trkpt lat="55.713734" lon="26.065857">
<ele>161.513794</ele>
<time>2010-07-17T18:04:08Z</time>
<desc>lat.=55.713734, lon.=26.065857, Alt.=161.513794m. Speed=2.592000m/h.</desc>
<speed>0.720000</speed>
</trkpt>
<trkpt lat="55.713730" lon="26.065855">
<ele>161.427856</ele>
<time>2010-07-17T18:04:09Z</time>
<desc>lat.=55.713730, lon.=26.065855, Alt.=161.427856m. Speed=1.296000m/h.</desc>
<speed>0.360000</speed>
</trkpt>
<trkpt lat="55.713734" lon="26.065855">
<ele>162.314575</ele>
<time>2010-07-17T18:04:10Z</time>
<desc>lat.=55.713734, lon.=26.065855, Alt.=162.314575m. Speed=0.504000m/h.</desc>
<speed>0.140000</speed>
</trkpt>
<trkpt lat="55.713730" lon="26.065855">
<ele>162.502075</ele>
<time>2010-07-17T18:04:11Z</time>
<desc>lat.=55.713730, lon.=26.065855, Alt.=162.502075m. Speed=0.216000m/h.</desc>
<speed>0.060000</speed>
</trkpt>
<trkpt lat="55.713730" lon="26.065855">
<ele>162.627075</ele>
<time>2010-07-17T18:04:12Z</time>
<desc>lat.=55.713730, lon.=26.065855, Alt.=162.627075m. Speed=0.072000m/h.</desc>
<speed>0.020000</speed>
</trkpt>
<trkpt lat="55.713730" lon="26.065855">
<ele>162.713013</ele>
<time>2010-07-17T18:04:13Z</time>
<desc>lat.=55.713730, lon.=26.065855, Alt.=162.713013m. Speed=0.144000m/h.</desc>
<speed>0.040000</speed>
</trkpt>
<trkpt lat="55.713730" lon="26.065853">
<ele>162.771606</ele>
<time>2010-07-17T18:04:14Z</time>
<desc>lat.=55.713730, lon.=26.065853, Alt.=162.771606m. Speed=0.036000m/h.</desc>
<speed>0.010000</speed>
</trkpt>
<trkpt lat="55.713730" lon="26.065853">
<ele>162.818481</ele>
<time>2010-07-17T18:04:15Z</time>
<desc>lat.=55.713730, lon.=26.065853, Alt.=162.818481m. Speed=0.108000m/h.</desc>
<speed>0.030000</speed>
</trkpt>
<trkpt lat="55.713730" lon="26.065853">
<ele>162.857544</ele>
<time>2010-07-17T18:04:16Z</time>
<desc>lat.=55.713730, lon.=26.065853, Alt.=162.857544m. Speed=0.216000m/h.</desc>
<speed>0.060000</speed>
</trkpt>
<trkpt lat="55.713730" lon="26.065853">
<ele>162.892700</ele>
<time>2010-07-17T18:04:17Z</time>
<desc>lat.=55.713730, lon.=26.065853, Alt.=162.892700m. Speed=0.396000m/h.</desc>
<speed>0.110000</speed>
</trkpt>
<trkpt lat="55.713730" lon="26.065853">
<ele>162.927856</ele>
<time>2010-07-17T18:04:18Z</time>
<desc>lat.=55.713730, lon.=26.065853, Alt.=162.927856m. Speed=0.252000m/h.</desc>
<speed>0.070000</speed>
</trkpt>
<trkpt lat="55.713730" lon="26.065853">
<ele>162.951294</ele>
<time>2010-07-17T18:04:19Z</time>
<desc>lat.=55.713730, lon.=26.065853, Alt.=162.951294m. Speed=0.432000m/h.</desc>
<speed>0.120000</speed>
</trkpt>
<trkpt lat="55.713726" lon="26.065851">
<ele>162.974731</ele>
<time>2010-07-17T18:04:20Z</time>
<desc>lat.=55.713726, lon.=26.065851, Alt.=162.974731m. Speed=0.504000m/h.</desc>
<speed>0.140000</speed>
</trkpt>
<trkpt lat="55.713726" lon="26.065849">
<ele>163.002075</ele>
<time>2010-07-17T18:04:21Z</time>
<desc>lat.=55.713726, lon.=26.065849, Alt.=163.002075m. Speed=0.396000m/h.</desc>
<speed>0.110000</speed>
</trkpt>
<trkpt lat="55.713726" lon="26.065849">
<ele>163.017700</ele>
<time>2010-07-17T18:04:22Z</time>
<desc>lat.=55.713726, lon.=26.065849, Alt.=163.017700m. Speed=0.648000m/h.</desc>
<speed>0.180000</speed>
</trkpt>
<trkpt lat="55.713726" lon="26.065847">
<ele>163.041138</ele>
<time>2010-07-17T18:04:23Z</time>
<desc>lat.=55.713726, lon.=26.065847, Alt.=163.041138m. Speed=0.576000m/h.</desc>
<speed>0.160000</speed>
</trkpt>
<trkpt lat="55.713722" lon="26.065845">
<ele>163.056763</ele>
<time>2010-07-17T18:04:24Z</time>
<desc>lat.=55.713722, lon.=26.065845, Alt.=163.056763m. Speed=0.540000m/h.</desc>
<speed>0.150000</speed>
</trkpt>
<trkpt lat="55.713722" lon="26.065844">
<ele>163.084106</ele>
<time>2010-07-17T18:04:25Z</time>
<desc>lat.=55.713722, lon.=26.065844, Alt.=163.084106m. Speed=0.540000m/h.</desc>
<speed>0.150000</speed>
</trkpt>
<trkpt lat="55.713722" lon="26.065844">
<ele>163.103638</ele>
<time>2010-07-17T18:04:26Z</time>
<desc>lat.=55.713722, lon.=26.065844, Alt.=163.103638m. Speed=0.468000m/h.</desc>
<speed>0.130000</speed>
</trkpt>
<trkpt lat="55.713718" lon="26.065842">
<ele>163.123169</ele>
<time>2010-07-17T18:04:27Z</time>
<desc>lat.=55.713718, lon.=26.065842, Alt.=163.123169m. Speed=0.612000m/h.</desc>
<speed>0.170000</speed>
</trkpt>
<trkpt lat="55.713718" lon="26.065842">
<ele>163.138794</ele>
<time>2010-07-17T18:04:28Z</time>
<desc>lat.=55.713718, lon.=26.065842, Alt.=163.138794m. Speed=0.900000m/h.</desc>
<speed>0.250000</speed>
</trkpt>
<trkpt lat="55.713718" lon="26.065840">
<ele>163.150513</ele>
<time>2010-07-17T18:04:29Z</time>
<desc>lat.=55.713718, lon.=26.065840, Alt.=163.150513m. Speed=0.684000m/h.</desc>
<speed>0.190000</speed>
</trkpt>
<trkpt lat="55.713715" lon="26.065838">
<ele>163.158325</ele>
<time>2010-07-17T18:04:30Z</time>
<desc>lat.=55.713715, lon.=26.065838, Alt.=163.158325m. Speed=0.396000m/h.</desc>
<speed>0.110000</speed>
</trkpt>
<trkpt lat="55.713715" lon="26.065836">
<ele>163.162231</ele>
<time>2010-07-17T18:04:31Z</time>
<desc>lat.=55.713715, lon.=26.065836, Alt.=163.162231m. Speed=0.288000m/h.</desc>
<speed>0.080000</speed>
</trkpt>
<trkpt lat="55.713715" lon="26.065836">
<ele>163.162231</ele>
<time>2010-07-17T18:04:32Z</time>
<desc>lat.=55.713715, lon.=26.065836, Alt.=163.162231m. Speed=0.324000m/h.</desc>
<speed>0.090000</speed>
</trkpt>
<trkpt lat="55.713715" lon="26.065834">
<ele>163.166138</ele>
<time>2010-07-17T18:04:33Z</time>
<desc>lat.=55.713715, lon.=26.065834, Alt.=163.166138m. Speed=0.720000m/h.</desc>
<speed>0.200000</speed>
</trkpt>
<trkpt lat="55.713715" lon="26.065832">
<ele>163.166138</ele>
<time>2010-07-17T18:04:34Z</time>
<desc>lat.=55.713715, lon.=26.065832, Alt.=163.166138m. Speed=0.144000m/h.</desc>
<speed>0.040000</speed>
</trkpt>
<trkpt lat="55.713718" lon="26.065832">
<ele>163.162231</ele>
<time>2010-07-17T18:04:35Z</time>
<desc>lat.=55.713718, lon.=26.065832, Alt.=163.162231m. Speed=0.144000m/h.</desc>
<speed>0.040000</speed>
</trkpt>
<trkpt lat="55.713718" lon="26.065832">
<ele>163.166138</ele>
<time>2010-07-17T18:04:36Z</time>
<desc>lat.=55.713718, lon.=26.065832, Alt.=163.166138m. Speed=0.144000m/h.</desc>
<speed>0.040000</speed>
</trkpt>
<trkpt lat="55.713718" lon="26.065832">
<ele>163.162231</ele>
<time>2010-07-17T18:04:37Z</time>
<desc>lat.=55.713718, lon.=26.065832, Alt.=163.162231m. Speed=0.288000m/h.</desc>
<speed>0.080000</speed>
</trkpt>
<trkpt lat="55.713718" lon="26.065832">
<ele>163.162231</ele>
<time>2010-07-17T18:04:38Z</time>
<desc>lat.=55.713718, lon.=26.065832, Alt.=163.162231m. Speed=0.072000m/h.</desc>
<speed>0.020000</speed>
</trkpt>
<trkpt lat="55.713718" lon="26.065832">
<ele>163.146606</ele>
<time>2010-07-17T18:04:39Z</time>
<desc>lat.=55.713718, lon.=26.065832, Alt.=163.146606m. Speed=0.252000m/h.</desc>
<speed>0.070000</speed>
</trkpt>
<trkpt lat="55.713718" lon="26.065832">
<ele>163.138794</ele>
<time>2010-07-17T18:04:40Z</time>
<desc>lat.=55.713718, lon.=26.065832, Alt.=163.138794m. Speed=0.216000m/h.</desc>
<speed>0.060000</speed>
</trkpt>
<trkpt lat="55.713718" lon="26.065832">
<ele>163.130981</ele>
<time>2010-07-17T18:04:41Z</time>
<desc>lat.=55.713718, lon.=26.065832, Alt.=163.130981m. Speed=0.144000m/h.</desc>
<speed>0.040000</speed>
</trkpt>
<trkpt lat="55.713718" lon="26.065834">
<ele>163.127075</ele>
<time>2010-07-17T18:04:42Z</time>
<desc>lat.=55.713718, lon.=26.065834, Alt.=163.127075m. Speed=0.324000m/h.</desc>
<speed>0.090000</speed>
</trkpt>
<trkpt lat="55.713718" lon="26.065832">
<ele>163.123169</ele>
<time>2010-07-17T18:04:43Z</time>
<desc>lat.=55.713718, lon.=26.065832, Alt.=163.123169m. Speed=0.108000m/h.</desc>
<speed>0.030000</speed>
</trkpt>
<trkpt lat="55.713718" lon="26.065830">
<ele>163.119263</ele>
<time>2010-07-17T18:04:44Z</time>
<desc>lat.=55.713718, lon.=26.065830, Alt.=163.119263m. Speed=0.468000m/h.</desc>
<speed>0.130000</speed>
</trkpt>
<trkpt lat="55.713718" lon="26.065830">
<ele>163.115356</ele>
<time>2010-07-17T18:04:45Z</time>
<desc>lat.=55.713718, lon.=26.065830, Alt.=163.115356m. Speed=0.252000m/h.</desc>
<speed>0.070000</speed>
</trkpt>
<trkpt lat="55.713718" lon="26.065828">
<ele>163.107544</ele>
<time>2010-07-17T18:04:46Z</time>
<desc>lat.=55.713718, lon.=26.065828, Alt.=163.107544m. Speed=0.576000m/h.</desc>
<speed>0.160000</speed>
</trkpt>
<trkpt lat="55.713722" lon="26.065826">
<ele>163.095825</ele>
<time>2010-07-17T18:04:47Z</time>
<desc>lat.=55.713722, lon.=26.065826, Alt.=163.095825m. Speed=0.468000m/h.</desc>
<speed>0.130000</speed>
</trkpt>
<trkpt lat="55.713722" lon="26.065825">
<ele>163.076294</ele>
<time>2010-07-17T18:04:48Z</time>
<desc>lat.=55.713722, lon.=26.065825, Alt.=163.076294m. Speed=0.396000m/h.</desc>
<speed>0.110000</speed>
</trkpt>
<trkpt lat="55.713722" lon="26.065823">
<ele>163.060669</ele>
<time>2010-07-17T18:04:49Z</time>
<desc>lat.=55.713722, lon.=26.065823, Alt.=163.060669m. Speed=0.360000m/h.</desc>
<speed>0.100000</speed>
</trkpt>
<trkpt lat="55.713722" lon="26.065823">
<ele>163.052856</ele>
<time>2010-07-17T18:04:50Z</time>
<desc>lat.=55.713722, lon.=26.065823, Alt.=163.052856m. Speed=0.324000m/h.</desc>
<speed>0.090000</speed>
</trkpt>
<trkpt lat="55.713722" lon="26.065821">
<ele>163.037231</ele>
<time>2010-07-17T18:04:51Z</time>
<desc>lat.=55.713722, lon.=26.065821, Alt.=163.037231m. Speed=0.216000m/h.</desc>
<speed>0.060000</speed>
</trkpt>
<trkpt lat="55.713722" lon="26.065821">
<ele>163.021606</ele>
<time>2010-07-17T18:04:52Z</time>
<desc>lat.=55.713722, lon.=26.065821, Alt.=163.021606m. Speed=0.036000m/h.</desc>
<speed>0.010000</speed>
</trkpt>
<trkpt lat="55.713722" lon="26.065821">
<ele>163.009888</ele>
<time>2010-07-17T18:04:53Z</time>
<desc>lat.=55.713722, lon.=26.065821, Alt.=163.009888m. Speed=0.324000m/h.</desc>
<speed>0.090000</speed>
</trkpt>
<trkpt lat="55.713722" lon="26.065821">
<ele>163.005981</ele>
<time>2010-07-17T18:04:54Z</time>
<desc>lat.=55.713722, lon.=26.065821, Alt.=163.005981m. Speed=0.252000m/h.</desc>
<speed>0.070000</speed>
</trkpt>
<trkpt lat="55.713722" lon="26.065821">
<ele>163.002075</ele>
<time>2010-07-17T18:04:55Z</time>
<desc>lat.=55.713722, lon.=26.065821, Alt.=163.002075m. Speed=0.288000m/h.</desc>
<speed>0.080000</speed>
</trkpt>
<trkpt lat="55.713722" lon="26.065819">
<ele>162.998169</ele>
<time>2010-07-17T18:04:56Z</time>
<desc>lat.=55.713722, lon.=26.065819, Alt.=162.998169m. Speed=0.432000m/h.</desc>
<speed>0.120000</speed>
</trkpt>
<trkpt lat="55.713722" lon="26.065819">
<ele>162.994263</ele>
<time>2010-07-17T18:04:57Z</time>
<desc>lat.=55.713722, lon.=26.065819, Alt.=162.994263m. Speed=0.576000m/h.</desc>
<speed>0.160000</speed>
</trkpt>
<trkpt lat="55.713726" lon="26.065819">
<ele>163.002075</ele>
<time>2010-07-17T18:04:58Z</time>
<desc>lat.=55.713726, lon.=26.065819, Alt.=163.002075m. Speed=0.504000m/h.</desc>
<speed>0.140000</speed>
</trkpt>
<trkpt lat="55.713726" lon="26.065821">
<ele>162.998169</ele>
<time>2010-07-17T18:04:59Z</time>
<desc>lat.=55.713726, lon.=26.065821, Alt.=162.998169m. Speed=0.432000m/h.</desc>
<speed>0.120000</speed>
</trkpt>
<trkpt lat="55.713726" lon="26.065821">
<ele>162.998169</ele>
<time>2010-07-17T18:05:00Z</time>
<desc>lat.=55.713726, lon.=26.065821, Alt.=162.998169m. Speed=0.036000m/h.</desc>
<speed>0.010000</speed>
</trkpt>
<trkpt lat="55.713726" lon="26.065821">
<ele>163.002075</ele>
<time>2010-07-17T18:05:01Z</time>
<desc>lat.=55.713726, lon.=26.065821, Alt.=163.002075m. Speed=0.036000m/h.</desc>
<speed>0.010000</speed>
</trkpt>
<trkpt lat="55.713726" lon="26.065821">
<ele>163.002075</ele>
<time>2010-07-17T18:05:02Z</time>
<desc>lat.=55.713726, lon.=26.065821, Alt.=163.002075m. Speed=0.108000m/h.</desc>
<speed>0.030000</speed>
</trkpt>
<trkpt lat="55.713726" lon="26.065821">
<ele>163.002075</ele>
<time>2010-07-17T18:05:03Z</time>
<desc>lat.=55.713726, lon.=26.065821, Alt.=163.002075m. Speed=0.108000m/h.</desc>
<speed>0.030000</speed>
</trkpt>
<trkpt lat="55.713726" lon="26.065821">
<ele>162.998169</ele>
<time>2010-07-17T18:05:04Z</time>
<desc>lat.=55.713726, lon.=26.065821, Alt.=162.998169m. Speed=0.504000m/h.</desc>
<speed>0.140000</speed>
</trkpt>
<trkpt lat="55.713730" lon="26.065821">
<ele>162.998169</ele>
<time>2010-07-17T18:05:05Z</time>
<desc>lat.=55.713730, lon.=26.065821, Alt.=162.998169m. Speed=0.432000m/h.</desc>
<speed>0.120000</speed>
</trkpt>
<trkpt lat="55.713730" lon="26.065821">
<ele>163.002075</ele>
<time>2010-07-17T18:05:06Z</time>
<desc>lat.=55.713730, lon.=26.065821, Alt.=163.002075m. Speed=0.144000m/h.</desc>
<speed>0.040000</speed>
</trkpt>
<trkpt lat="55.713730" lon="26.065821">
<ele>162.998169</ele>
<time>2010-07-17T18:05:07Z</time>
<desc>lat.=55.713730, lon.=26.065821, Alt.=162.998169m. Speed=0.324000m/h.</desc>
<speed>0.090000</speed>
</trkpt>
<trkpt lat="55.713730" lon="26.065821">
<ele>162.994263</ele>
<time>2010-07-17T18:05:08Z</time>
<desc>lat.=55.713730, lon.=26.065821, Alt.=162.994263m. Speed=0.288000m/h.</desc>
<speed>0.080000</speed>
</trkpt>
<trkpt lat="55.713734" lon="26.065823">
<ele>163.009888</ele>
<time>2010-07-17T18:05:09Z</time>
<desc>lat.=55.713734, lon.=26.065823, Alt.=163.009888m. Speed=0.108000m/h.</desc>
<speed>0.030000</speed>
</trkpt>
<trkpt lat="55.713734" lon="26.065823">
<ele>163.017700</ele>
<time>2010-07-17T18:05:10Z</time>
<desc>lat.=55.713734, lon.=26.065823, Alt.=163.017700m. Speed=0.144000m/h.</desc>
<speed>0.040000</speed>
</trkpt>
<trkpt lat="55.713734" lon="26.065823">
<ele>163.021606</ele>
<time>2010-07-17T18:05:11Z</time>
<desc>lat.=55.713734, lon.=26.065823, Alt.=163.021606m. Speed=0.396000m/h.</desc>
<speed>0.110000</speed>
</trkpt>
<trkpt lat="55.713734" lon="26.065821">
<ele>163.025513</ele>
<time>2010-07-17T18:05:12Z</time>
<desc>lat.=55.713734, lon.=26.065821, Alt.=163.025513m. Speed=0.612000m/h.</desc>
<speed>0.170000</speed>
</trkpt>
<trkpt lat="55.713730" lon="26.065821">
<ele>163.025513</ele>
<time>2010-07-17T18:05:13Z</time>
<desc>lat.=55.713730, lon.=26.065821, Alt.=163.025513m. Speed=2.088000m/h.</desc>
<speed>0.580000</speed>
</trkpt>
<trkpt lat="55.713730" lon="26.065828">
<ele>163.021606</ele>
<time>2010-07-17T18:05:14Z</time>
<desc>lat.=55.713730, lon.=26.065828, Alt.=163.021606m. Speed=3.528000m/h.</desc>
<speed>0.980000</speed>
</trkpt>
<trkpt lat="55.713730" lon="26.065844">
<ele>163.017700</ele>
<time>2010-07-17T18:05:15Z</time>
<desc>lat.=55.713730, lon.=26.065844, Alt.=163.017700m. Speed=4.356000m/h.</desc>
<speed>1.210000</speed>
</trkpt>
<trkpt lat="55.713737" lon="26.065866">
<ele>163.033325</ele>
<time>2010-07-17T18:05:16Z</time>
<desc>lat.=55.713737, lon.=26.065866, Alt.=163.033325m. Speed=6.660000m/h.</desc>
<speed>1.850000</speed>
</trkpt>
<trkpt lat="55.713760" lon="26.065884">
<ele>163.291138</ele>
<time>2010-07-17T18:05:17Z</time>
<desc>lat.=55.713760, lon.=26.065884, Alt.=163.291138m. Speed=7.776000m/h.</desc>
<speed>2.160000</speed>
</trkpt>
<trkpt lat="55.713776" lon="26.065908">
<ele>163.244263</ele>
<time>2010-07-17T18:05:18Z</time>
<desc>lat.=55.713776, lon.=26.065908, Alt.=163.244263m. Speed=8.460000m/h.</desc>
<speed>2.350000</speed>
</trkpt>
<trkpt lat="55.713787" lon="26.065948">
<ele>163.138794</ele>
<time>2010-07-17T18:05:19Z</time>
<desc>lat.=55.713787, lon.=26.065948, Alt.=163.138794m. Speed=9.972000m/h.</desc>
<speed>2.770000</speed>
</trkpt>
<trkpt lat="55.713799" lon="26.065989">
<ele>162.521606</ele>
<time>2010-07-17T18:05:20Z</time>
<desc>lat.=55.713799, lon.=26.065989, Alt.=162.521606m. Speed=8.532000m/h.</desc>
<speed>2.370000</speed>
</trkpt>
<trkpt lat="55.713806" lon="26.066010">
<ele>162.588013</ele>
<time>2010-07-17T18:05:21Z</time>
<desc>lat.=55.713806, lon.=26.066010, Alt.=162.588013m. Speed=2.304000m/h.</desc>
<speed>0.640000</speed>
</trkpt>
<trkpt lat="55.713810" lon="26.066011">
<ele>162.658325</ele>
<time>2010-07-17T18:05:22Z</time>
<desc>lat.=55.713810, lon.=26.066011, Alt.=162.658325m. Speed=0.936000m/h.</desc>
<speed>0.260000</speed>
</trkpt>
<trkpt lat="55.713810" lon="26.066010">
<ele>162.732544</ele>
<time>2010-07-17T18:05:23Z</time>
<desc>lat.=55.713810, lon.=26.066010, Alt.=162.732544m. Speed=0.216000m/h.</desc>
<speed>0.060000</speed>
</trkpt>
<trkpt lat="55.713810" lon="26.066011">
<ele>162.740356</ele>
<time>2010-07-17T18:05:24Z</time>
<desc>lat.=55.713810, lon.=26.066011, Alt.=162.740356m. Speed=0.360000m/h.</desc>
<speed>0.100000</speed>
</trkpt>
<trkpt lat="55.713814" lon="26.066010">
<ele>162.642700</ele>
<time>2010-07-17T18:05:25Z</time>
<desc>lat.=55.713814, lon.=26.066010, Alt.=162.642700m. Speed=0.468000m/h.</desc>
<speed>0.130000</speed>
</trkpt>
<trkpt lat="55.713814" lon="26.066008">
<ele>162.615356</ele>
<time>2010-07-17T18:05:26Z</time>
<desc>lat.=55.713814, lon.=26.066008, Alt.=162.615356m. Speed=0.540000m/h.</desc>
<speed>0.150000</speed>
</trkpt>
<trkpt lat="55.713814" lon="26.066008">
<ele>162.588013</ele>
<time>2010-07-17T18:05:27Z</time>
<desc>lat.=55.713814, lon.=26.066008, Alt.=162.588013m. Speed=0.612000m/h.</desc>
<speed>0.170000</speed>
</trkpt>
<trkpt lat="55.713818" lon="26.066008">
<ele>162.564575</ele>
<time>2010-07-17T18:05:28Z</time>
<desc>lat.=55.713818, lon.=26.066008, Alt.=162.564575m. Speed=0.576000m/h.</desc>
<speed>0.160000</speed>
</trkpt>
<trkpt lat="55.713818" lon="26.066008">
<ele>162.541138</ele>
<time>2010-07-17T18:05:29Z</time>
<desc>lat.=55.713818, lon.=26.066008, Alt.=162.541138m. Speed=0.396000m/h.</desc>
<speed>0.110000</speed>
</trkpt>
<trkpt lat="55.713818" lon="26.066010">
<ele>162.517700</ele>
<time>2010-07-17T18:05:30Z</time>
<desc>lat.=55.713818, lon.=26.066010, Alt.=162.517700m. Speed=0.576000m/h.</desc>
<speed>0.160000</speed>
</trkpt>
<trkpt lat="55.713821" lon="26.066010">
<ele>162.494263</ele>
<time>2010-07-17T18:05:31Z</time>
<desc>lat.=55.713821, lon.=26.066010, Alt.=162.494263m. Speed=0.504000m/h.</desc>
<speed>0.140000</speed>
</trkpt>
<trkpt lat="55.713821" lon="26.066011">
<ele>162.466919</ele>
<time>2010-07-17T18:05:32Z</time>
<desc>lat.=55.713821, lon.=26.066011, Alt.=162.466919m. Speed=0.540000m/h.</desc>
<speed>0.150000</speed>
</trkpt>
<trkpt lat="55.713821" lon="26.066013">
<ele>162.443481</ele>
<time>2010-07-17T18:05:33Z</time>
<desc>lat.=55.713821, lon.=26.066013, Alt.=162.443481m. Speed=0.684000m/h.</desc>
<speed>0.190000</speed>
</trkpt>
<trkpt lat="55.713821" lon="26.066017">
<ele>162.412231</ele>
<time>2010-07-17T18:05:34Z</time>
<desc>lat.=55.713821, lon.=26.066017, Alt.=162.412231m. Speed=0.648000m/h.</desc>
<speed>0.180000</speed>
</trkpt>
<trkpt lat="55.713825" lon="26.066019">
<ele>162.380981</ele>
<time>2010-07-17T18:05:35Z</time>
<desc>lat.=55.713825, lon.=26.066019, Alt.=162.380981m. Speed=0.612000m/h.</desc>
<speed>0.170000</speed>
</trkpt>
<trkpt lat="55.713825" lon="26.066023">
<ele>162.353638</ele>
<time>2010-07-17T18:05:36Z</time>
<desc>lat.=55.713825, lon.=26.066023, Alt.=162.353638m. Speed=0.360000m/h.</desc>
<speed>0.100000</speed>
</trkpt>
<trkpt lat="55.713825" lon="26.066023">
<ele>162.326294</ele>
<time>2010-07-17T18:05:37Z</time>
<desc>lat.=55.713825, lon.=26.066023, Alt.=162.326294m. Speed=0.324000m/h.</desc>
<speed>0.090000</speed>
</trkpt>
<trkpt lat="55.713825" lon="26.066025">
<ele>162.298950</ele>
<time>2010-07-17T18:05:38Z</time>
<desc>lat.=55.713825, lon.=26.066025, Alt.=162.298950m. Speed=0.252000m/h.</desc>
<speed>0.070000</speed>
</trkpt>
<trkpt lat="55.713821" lon="26.066027">
<ele>162.267700</ele>
<time>2010-07-17T18:05:39Z</time>
<desc>lat.=55.713821, lon.=26.066027, Alt.=162.267700m. Speed=0.180000m/h.</desc>
<speed>0.050000</speed>
</trkpt>
<trkpt lat="55.713821" lon="26.066027">
<ele>162.244263</ele>
<time>2010-07-17T18:05:40Z</time>
<desc>lat.=55.713821, lon.=26.066027, Alt.=162.244263m. Speed=0.144000m/h.</desc>
<speed>0.040000</speed>
</trkpt>
<trkpt lat="55.713821" lon="26.066027">
<ele>162.209106</ele>
<time>2010-07-17T18:05:41Z</time>
<desc>lat.=55.713821, lon.=26.066027, Alt.=162.209106m. Speed=0.036000m/h.</desc>
<speed>0.010000</speed>
</trkpt>
<trkpt lat="55.713821" lon="26.066027">
<ele>162.185669</ele>
<time>2010-07-17T18:05:42Z</time>
<desc>lat.=55.713821, lon.=26.066027, Alt.=162.185669m. Speed=0.072000m/h.</desc>
<speed>0.020000</speed>
</trkpt>
<trkpt lat="55.713821" lon="26.066027">
<ele>162.158325</ele>
<time>2010-07-17T18:05:43Z</time>
<desc>lat.=55.713821, lon.=26.066027, Alt.=162.158325m. Speed=0.108000m/h.</desc>
<speed>0.030000</speed>
</trkpt>
<trkpt lat="55.713821" lon="26.066029">
<ele>162.134888</ele>
<time>2010-07-17T18:05:44Z</time>
<desc>lat.=55.713821, lon.=26.066029, Alt.=162.134888m. Speed=0.072000m/h.</desc>
<speed>0.020000</speed>
</trkpt>
<trkpt lat="55.713821" lon="26.066029">
<ele>162.111450</ele>
<time>2010-07-17T18:05:45Z</time>
<desc>lat.=55.713821, lon.=26.066029, Alt.=162.111450m. Speed=0.144000m/h.</desc>
<speed>0.040000</speed>
</trkpt>
<trkpt lat="55.713821" lon="26.066029">
<ele>162.080200</ele>
<time>2010-07-17T18:05:46Z</time>
<desc>lat.=55.713821, lon.=26.066029, Alt.=162.080200m. Speed=0.144000m/h.</desc>
<speed>0.040000</speed>
</trkpt>
<trkpt lat="55.713821" lon="26.066029">
<ele>162.052856</ele>
<time>2010-07-17T18:05:47Z</time>
<desc>lat.=55.713821, lon.=26.066029, Alt.=162.052856m. Speed=0.180000m/h.</desc>
<speed>0.050000</speed>
</trkpt>
<trkpt lat="55.713825" lon="26.066029">
<ele>162.021606</ele>
<time>2010-07-17T18:05:48Z</time>
<desc>lat.=55.713825, lon.=26.066029, Alt.=162.021606m. Speed=0.360000m/h.</desc>
<speed>0.100000</speed>
</trkpt>
<trkpt lat="55.713825" lon="26.066031">
<ele>161.994263</ele>
<time>2010-07-17T18:05:49Z</time>
<desc>lat.=55.713825, lon.=26.066031, Alt.=161.994263m. Speed=0.288000m/h.</desc>
<speed>0.080000</speed>
</trkpt>
<trkpt lat="55.713825" lon="26.066031">
<ele>161.986450</ele>
<time>2010-07-17T18:05:50Z</time>
<desc>lat.=55.713825, lon.=26.066031, Alt.=161.986450m. Speed=0.036000m/h.</desc>
<speed>0.010000</speed>
</trkpt>
<trkpt lat="55.713825" lon="26.066031">
<ele>161.994263</ele>
<time>2010-07-17T18:05:51Z</time>
<desc>lat.=55.713825, lon.=26.066031, Alt.=161.994263m. Speed=0.072000m/h.</desc>
<speed>0.020000</speed>
</trkpt>
<trkpt lat="55.713825" lon="26.066031">
<ele>161.990356</ele>
<time>2010-07-17T18:05:52Z</time>
<desc>lat.=55.713825, lon.=26.066031, Alt.=161.990356m. Speed=0.036000m/h.</desc>
<speed>0.010000</speed>
</trkpt>
<trkpt lat="55.713825" lon="26.066031">
<ele>161.990356</ele>
<time>2010-07-17T18:05:53Z</time>
<desc>lat.=55.713825, lon.=26.066031, Alt.=161.990356m. Speed=0.180000m/h.</desc>
<speed>0.050000</speed>
</trkpt>
<trkpt lat="55.713825" lon="26.066031">
<ele>161.990356</ele>
<time>2010-07-17T18:05:54Z</time>
<desc>lat.=55.713825, lon.=26.066031, Alt.=161.990356m. Speed=0.036000m/h.</desc>
<speed>0.010000</speed>
</trkpt>
<trkpt lat="55.713825" lon="26.066031">
<ele>161.990356</ele>
<time>2010-07-17T18:05:55Z</time>
<desc>lat.=55.713825, lon.=26.066031, Alt.=161.990356m. Speed=0.036000m/h.</desc>
<speed>0.010000</speed>
</trkpt>
<trkpt lat="55.713825" lon="26.066031">
<ele>161.990356</ele>
<time>2010-07-17T18:05:56Z</time>
<desc>lat.=55.713825, lon.=26.066031, Alt.=161.990356m. Speed=0.000000m/h.</desc>
<speed>0.000000</speed>
</trkpt>
<trkpt lat="55.713825" lon="26.066031">
<ele>161.994263</ele>
<time>2010-07-17T18:05:57Z</time>
<desc>lat.=55.713825, lon.=26.066031, Alt.=161.994263m. Speed=0.000000m/h.</desc>
<speed>0.000000</speed>
</trkpt>
<trkpt lat="55.713825" lon="26.066031">
<ele>161.994263</ele>
<time>2010-07-17T18:05:58Z</time>
<desc>lat.=55.713825, lon.=26.066031, Alt.=161.994263m. Speed=0.072000m/h.</desc>
<speed>0.020000</speed>
</trkpt>
<trkpt lat="55.713825" lon="26.066031">
<ele>161.994263</ele>
<time>2010-07-17T18:05:59Z</time>
<desc>lat.=55.713825, lon.=26.066031, Alt.=161.994263m. Speed=0.072000m/h.</desc>
<speed>0.020000</speed>
</trkpt>
<trkpt lat="55.713825" lon="26.066031">
<ele>161.994263</ele>
<time>2010-07-17T18:06:00Z</time>
<desc>lat.=55.713825, lon.=26.066031, Alt.=161.994263m. Speed=0.000000m/h.</desc>
<speed>0.000000</speed>
</trkpt>
<trkpt lat="55.713825" lon="26.066032">
<ele>161.994263</ele>
<time>2010-07-17T18:06:01Z</time>
<desc>lat.=55.713825, lon.=26.066032, Alt.=161.994263m. Speed=0.144000m/h.</desc>
<speed>0.040000</speed>
</trkpt>
<trkpt lat="55.713825" lon="26.066032">
<ele>161.994263</ele>
<time>2010-07-17T18:06:02Z</time>
<desc>lat.=55.713825, lon.=26.066032, Alt.=161.994263m. Speed=0.180000m/h.</desc>
<speed>0.050000</speed>
</trkpt>
<trkpt lat="55.713825" lon="26.066032">
<ele>161.990356</ele>
<time>2010-07-17T18:06:03Z</time>
<desc>lat.=55.713825, lon.=26.066032, Alt.=161.990356m. Speed=0.072000m/h.</desc>
<speed>0.020000</speed>
</trkpt>
<trkpt lat="55.713825" lon="26.066032">
<ele>161.982544</ele>
<time>2010-07-17T18:06:04Z</time>
<desc>lat.=55.713825, lon.=26.066032, Alt.=161.982544m. Speed=0.144000m/h.</desc>
<speed>0.040000</speed>
</trkpt>
<trkpt lat="55.713825" lon="26.066032">
<ele>161.978638</ele>
<time>2010-07-17T18:06:05Z</time>
<desc>lat.=55.713825, lon.=26.066032, Alt.=161.978638m. Speed=0.072000m/h.</desc>
<speed>0.020000</speed>
</trkpt>
<trkpt lat="55.713821" lon="26.066032">
<ele>161.974731</ele>
<time>2010-07-17T18:06:06Z</time>
<desc>lat.=55.713821, lon.=26.066032, Alt.=161.974731m. Speed=0.072000m/h.</desc>
<speed>0.020000</speed>
</trkpt>
<trkpt lat="55.713821" lon="26.066032">
<ele>161.974731</ele>
<time>2010-07-17T18:06:07Z</time>
<desc>lat.=55.713821, lon.=26.066032, Alt.=161.974731m. Speed=0.000000m/h.</desc>
<speed>0.000000</speed>
</trkpt>
<trkpt lat="55.713821" lon="26.066032">
<ele>161.974731</ele>
<time>2010-07-17T18:06:08Z</time>
<desc>lat.=55.713821, lon.=26.066032, Alt.=161.974731m. Speed=0.072000m/h.</desc>
<speed>0.020000</speed>
</trkpt>
<trkpt lat="55.713821" lon="26.066031">
<ele>161.970825</ele>
<time>2010-07-17T18:06:09Z</time>
<desc>lat.=55.713821, lon.=26.066031, Alt.=161.970825m. Speed=0.036000m/h.</desc>
<speed>0.010000</speed>
</trkpt>
<trkpt lat="55.713821" lon="26.066031">
<ele>161.970825</ele>
<time>2010-07-17T18:06:10Z</time>
<desc>lat.=55.713821, lon.=26.066031, Alt.=161.970825m. Speed=0.000000m/h.</desc>
<speed>0.000000</speed>
</trkpt>
<trkpt lat="55.713821" lon="26.066031">
<ele>161.970825</ele>
<time>2010-07-17T18:06:11Z</time>
<desc>lat.=55.713821, lon.=26.066031, Alt.=161.970825m. Speed=0.072000m/h.</desc>
<speed>0.020000</speed>
</trkpt>
<trkpt lat="55.713821" lon="26.066031">
<ele>161.966919</ele>
<time>2010-07-17T18:06:12Z</time>
<desc>lat.=55.713821, lon.=26.066031, Alt.=161.966919m. Speed=0.000000m/h.</desc>
<speed>0.000000</speed>
</trkpt>
<trkpt lat="55.713821" lon="26.066031">
<ele>161.966919</ele>
<time>2010-07-17T18:06:13Z</time>
<desc>lat.=55.713821, lon.=26.066031, Alt.=161.966919m. Speed=0.072000m/h.</desc>
<speed>0.020000</speed>
</trkpt>
<trkpt lat="55.713821" lon="26.066031">
<ele>161.966919</ele>
<time>2010-07-17T18:06:14Z</time>
<desc>lat.=55.713821, lon.=26.066031, Alt.=161.966919m. Speed=0.000000m/h.</desc>
<speed>0.000000</speed>
</trkpt>
<trkpt lat="55.713821" lon="26.066031">
<ele>161.966919</ele>
<time>2010-07-17T18:06:15Z</time>
<desc>lat.=55.713821, lon.=26.066031, Alt.=161.966919m. Speed=0.072000m/h.</desc>
<speed>0.020000</speed>
</trkpt>
<trkpt lat="55.713821" lon="26.066032">
<ele>161.966919</ele>
<time>2010-07-17T18:06:16Z</time>
<desc>lat.=55.713821, lon.=26.066032, Alt.=161.966919m. Speed=0.036000m/h.</desc>
<speed>0.010000</speed>
</trkpt>
<trkpt lat="55.713821" lon="26.066032">
<ele>161.963013</ele>
<time>2010-07-17T18:06:17Z</time>
<desc>lat.=55.713821, lon.=26.066032, Alt.=161.963013m. Speed=0.072000m/h.</desc>
<speed>0.020000</speed>
</trkpt>
<trkpt lat="55.713821" lon="26.066032">
<ele>161.959106</ele>
<time>2010-07-17T18:06:18Z</time>
<desc>lat.=55.713821, lon.=26.066032, Alt.=161.959106m. Speed=0.072000m/h.</desc>
<speed>0.020000</speed>
</trkpt>
<trkpt lat="55.713821" lon="26.066032">
<ele>161.955200</ele>
<time>2010-07-17T18:06:19Z</time>
<desc>lat.=55.713821, lon.=26.066032, Alt.=161.955200m. Speed=0.036000m/h.</desc>
<speed>0.010000</speed>
</trkpt>
<trkpt lat="55.713821" lon="26.066032">
<ele>161.951294</ele>
<time>2010-07-17T18:06:20Z</time>
<desc>lat.=55.713821, lon.=26.066032, Alt.=161.951294m. Speed=0.036000m/h.</desc>
<speed>0.010000</speed>
</trkpt>
<trkpt lat="55.713821" lon="26.066032">
<ele>161.947388</ele>
<time>2010-07-17T18:06:21Z</time>
<desc>lat.=55.713821, lon.=26.066032, Alt.=161.947388m. Speed=0.000000m/h.</desc>
<speed>0.000000</speed>
</trkpt>
<trkpt lat="55.713821" lon="26.066032">
<ele>161.939575</ele>
<time>2010-07-17T18:06:22Z</time>
<desc>lat.=55.713821, lon.=26.066032, Alt.=161.939575m. Speed=0.144000m/h.</desc>
<speed>0.040000</speed>
</trkpt>
<trkpt lat="55.713821" lon="26.066032">
<ele>161.939575</ele>
<time>2010-07-17T18:06:23Z</time>
<desc>lat.=55.713821, lon.=26.066032, Alt.=161.939575m. Speed=0.036000m/h.</desc>
<speed>0.010000</speed>
</trkpt>
<trkpt lat="55.713821" lon="26.066032">
<ele>161.939575</ele>
<time>2010-07-17T18:06:24Z</time>
<desc>lat.=55.713821, lon.=26.066032, Alt.=161.939575m. Speed=0.072000m/h.</desc>
<speed>0.020000</speed>
</trkpt>
<trkpt lat="55.713821" lon="26.066032">
<ele>161.935669</ele>
<time>2010-07-17T18:06:25Z</time>
<desc>lat.=55.713821, lon.=26.066032, Alt.=161.935669m. Speed=0.000000m/h.</desc>
<speed>0.000000</speed>
</trkpt>
<trkpt lat="55.713821" lon="26.066032">
<ele>161.931763</ele>
<time>2010-07-17T18:06:26Z</time>
<desc>lat.=55.713821, lon.=26.066032, Alt.=161.931763m. Speed=0.072000m/h.</desc>
<speed>0.020000</speed>
</trkpt>
<trkpt lat="55.713821" lon="26.066032">
<ele>161.931763</ele>
<time>2010-07-17T18:06:27Z</time>
<desc>lat.=55.713821, lon.=26.066032, Alt.=161.931763m. Speed=0.144000m/h.</desc>
<speed>0.040000</speed>
</trkpt>
<trkpt lat="55.713821" lon="26.066032">
<ele>161.931763</ele>
<time>2010-07-17T18:06:28Z</time>
<desc>lat.=55.713821, lon.=26.066032, Alt.=161.931763m. Speed=0.000000m/h.</desc>
<speed>0.000000</speed>
</trkpt>
<trkpt lat="55.713825" lon="26.066032">
<ele>161.931763</ele>
<time>2010-07-17T18:06:29Z</time>
<desc>lat.=55.713825, lon.=26.066032, Alt.=161.931763m. Speed=0.144000m/h.</desc>
<speed>0.040000</speed>
</trkpt>
<trkpt lat="55.713825" lon="26.066032">
<ele>161.931763</ele>
<time>2010-07-17T18:06:30Z</time>
<desc>lat.=55.713825, lon.=26.066032, Alt.=161.931763m. Speed=0.144000m/h.</desc>
<speed>0.040000</speed>
</trkpt>
<trkpt lat="55.713825" lon="26.066032">
<ele>161.920044</ele>
<time>2010-07-17T18:06:31Z</time>
<desc>lat.=55.713825, lon.=26.066032, Alt.=161.920044m. Speed=0.036000m/h.</desc>
<speed>0.010000</speed>
</trkpt>
<trkpt lat="55.713825" lon="26.066032">
<ele>161.908325</ele>
<time>2010-07-17T18:06:32Z</time>
<desc>lat.=55.713825, lon.=26.066032, Alt.=161.908325m. Speed=0.000000m/h.</desc>
<speed>0.000000</speed>
</trkpt>
<trkpt lat="55.713825" lon="26.066032">
<ele>161.892700</ele>
<time>2010-07-17T18:06:33Z</time>
<desc>lat.=55.713825, lon.=26.066032, Alt.=161.892700m. Speed=0.036000m/h.</desc>
<speed>0.010000</speed>
</trkpt>
<trkpt lat="55.713825" lon="26.066032">
<ele>161.892700</ele>
<time>2010-07-17T18:06:34Z</time>
<desc>lat.=55.713825, lon.=26.066032, Alt.=161.892700m. Speed=0.000000m/h.</desc>
<speed>0.000000</speed>
</trkpt>
<trkpt lat="55.713825" lon="26.066032">
<ele>161.904419</ele>
<time>2010-07-17T18:06:35Z</time>
<desc>lat.=55.713825, lon.=26.066032, Alt.=161.904419m. Speed=0.036000m/h.</desc>
<speed>0.010000</speed>
</trkpt>
<trkpt lat="55.713825" lon="26.066034">
<ele>161.912231</ele>
<time>2010-07-17T18:06:36Z</time>
<desc>lat.=55.713825, lon.=26.066034, Alt.=161.912231m. Speed=0.000000m/h.</desc>
<speed>0.000000</speed>
</trkpt>
<trkpt lat="55.713825" lon="26.066034">
<ele>161.912231</ele>
<time>2010-07-17T18:06:37Z</time>
<desc>lat.=55.713825, lon.=26.066034, Alt.=161.912231m. Speed=0.000000m/h.</desc>
<speed>0.000000</speed>
</trkpt>
<trkpt lat="55.713825" lon="26.066034">
<ele>161.916138</ele>
<time>2010-07-17T18:06:38Z</time>
<desc>lat.=55.713825, lon.=26.066034, Alt.=161.916138m. Speed=0.000000m/h.</desc>
<speed>0.000000</speed>
</trkpt>
<trkpt lat="55.713825" lon="26.066034">
<ele>161.920044</ele>
<time>2010-07-17T18:06:39Z</time>
<desc>lat.=55.713825, lon.=26.066034, Alt.=161.920044m. Speed=0.000000m/h.</desc>
<speed>0.000000</speed>
</trkpt>
<trkpt lat="55.713825" lon="26.066034">
<ele>161.916138</ele>
<time>2010-07-17T18:06:40Z</time>
<desc>lat.=55.713825, lon.=26.066034, Alt.=161.916138m. Speed=0.036000m/h.</desc>
<speed>0.010000</speed>
</trkpt>
<trkpt lat="55.713825" lon="26.066034">
<ele>161.912231</ele>
<time>2010-07-17T18:06:41Z</time>
<desc>lat.=55.713825, lon.=26.066034, Alt.=161.912231m. Speed=0.000000m/h.</desc>
<speed>0.000000</speed>
</trkpt>
<trkpt lat="55.713825" lon="26.066034">
<ele>161.896606</ele>
<time>2010-07-17T18:06:42Z</time>
<desc>lat.=55.713825, lon.=26.066034, Alt.=161.896606m. Speed=0.072000m/h.</desc>
<speed>0.020000</speed>
</trkpt>
<trkpt lat="55.713825" lon="26.066034">
<ele>161.896606</ele>
<time>2010-07-17T18:06:43Z</time>
<desc>lat.=55.713825, lon.=26.066034, Alt.=161.896606m. Speed=0.036000m/h.</desc>
<speed>0.010000</speed>
</trkpt>
<trkpt lat="55.713825" lon="26.066034">
<ele>161.877075</ele>
<time>2010-07-17T18:06:44Z</time>
<desc>lat.=55.713825, lon.=26.066034, Alt.=161.877075m. Speed=0.036000m/h.</desc>
<speed>0.010000</speed>
</trkpt>
<trkpt lat="55.713825" lon="26.066034">
<ele>161.873169</ele>
<time>2010-07-17T18:06:45Z</time>
<desc>lat.=55.713825, lon.=26.066034, Alt.=161.873169m. Speed=0.072000m/h.</desc>
<speed>0.020000</speed>
</trkpt>
<trkpt lat="55.713825" lon="26.066034">
<ele>161.873169</ele>
<time>2010-07-17T18:06:46Z</time>
<desc>lat.=55.713825, lon.=26.066034, Alt.=161.873169m. Speed=0.036000m/h.</desc>
<speed>0.010000</speed>
</trkpt>
<trkpt lat="55.713825" lon="26.066034">
<ele>161.869263</ele>
<time>2010-07-17T18:06:47Z</time>
<desc>lat.=55.713825, lon.=26.066034, Alt.=161.869263m. Speed=0.108000m/h.</desc>
<speed>0.030000</speed>
</trkpt>
<trkpt lat="55.713825" lon="26.066034">
<ele>161.880981</ele>
<time>2010-07-17T18:06:48Z</time>
<desc>lat.=55.713825, lon.=26.066034, Alt.=161.880981m. Speed=0.072000m/h.</desc>
<speed>0.020000</speed>
</trkpt>
<trkpt lat="55.713825" lon="26.066034">
<ele>161.880981</ele>
<time>2010-07-17T18:06:49Z</time>
<desc>lat.=55.713825, lon.=26.066034, Alt.=161.880981m. Speed=0.000000m/h.</desc>
<speed>0.000000</speed>
</trkpt>
<trkpt lat="55.713825" lon="26.066034">
<ele>161.888794</ele>
<time>2010-07-17T18:06:50Z</time>
<desc>lat.=55.713825, lon.=26.066034, Alt.=161.888794m. Speed=0.072000m/h.</desc>
<speed>0.020000</speed>
</trkpt>
<trkpt lat="55.713825" lon="26.066034">
<ele>161.888794</ele>
<time>2010-07-17T18:06:51Z</time>
<desc>lat.=55.713825, lon.=26.066034, Alt.=161.888794m. Speed=0.000000m/h.</desc>
<speed>0.000000</speed>
</trkpt>
<trkpt lat="55.713825" lon="26.066034">
<ele>161.884888</ele>
<time>2010-07-17T18:06:52Z</time>
<desc>lat.=55.713825, lon.=26.066034, Alt.=161.884888m. Speed=0.036000m/h.</desc>
<speed>0.010000</speed>
</trkpt>
<trkpt lat="55.713825" lon="26.066034">
<ele>161.873169</ele>
<time>2010-07-17T18:06:53Z</time>
<desc>lat.=55.713825, lon.=26.066034, Alt.=161.873169m. Speed=0.072000m/h.</desc>
<speed>0.020000</speed>
</trkpt>
<trkpt lat="55.713825" lon="26.066034">
<ele>161.869263</ele>
<time>2010-07-17T18:06:54Z</time>
<desc>lat.=55.713825, lon.=26.066034, Alt.=161.869263m. Speed=0.000000m/h.</desc>
<speed>0.000000</speed>
</trkpt>
<trkpt lat="55.713825" lon="26.066034">
<ele>161.857544</ele>
<time>2010-07-17T18:06:55Z</time>
<desc>lat.=55.713825, lon.=26.066034, Alt.=161.857544m. Speed=0.000000m/h.</desc>
<speed>0.000000</speed>
</trkpt>
<trkpt lat="55.713825" lon="26.066034">
<ele>161.853638</ele>
<time>2010-07-17T18:06:56Z</time>
<desc>lat.=55.713825, lon.=26.066034, Alt.=161.853638m. Speed=0.000000m/h.</desc>
<speed>0.000000</speed>
</trkpt>
<trkpt lat="55.713825" lon="26.066034">
<ele>161.845825</ele>
<time>2010-07-17T18:06:57Z</time>
<desc>lat.=55.713825, lon.=26.066034, Alt.=161.845825m. Speed=0.072000m/h.</desc>
<speed>0.020000</speed>
</trkpt>
<trkpt lat="55.713825" lon="26.066034">
<ele>161.853638</ele>
<time>2010-07-17T18:06:58Z</time>
<desc>lat.=55.713825, lon.=26.066034, Alt.=161.853638m. Speed=0.072000m/h.</desc>
<speed>0.020000</speed>
</trkpt>
<trkpt lat="55.713825" lon="26.066034">
<ele>161.841919</ele>
<time>2010-07-17T18:06:59Z</time>
<desc>lat.=55.713825, lon.=26.066034, Alt.=161.841919m. Speed=0.036000m/h.</desc>
<speed>0.010000</speed>
</trkpt>
<trkpt lat="55.713825" lon="26.066034">
<ele>161.841919</ele>
<time>2010-07-17T18:07:00Z</time>
<desc>lat.=55.713825, lon.=26.066034, Alt.=161.841919m. Speed=0.036000m/h.</desc>
<speed>0.010000</speed>
</trkpt>
<trkpt lat="55.713825" lon="26.066034">
<ele>161.834106</ele>
<time>2010-07-17T18:07:01Z</time>
<desc>lat.=55.713825, lon.=26.066034, Alt.=161.834106m. Speed=0.036000m/h.</desc>
<speed>0.010000</speed>
</trkpt>
<trkpt lat="55.713825" lon="26.066034">
<ele>161.830200</ele>
<time>2010-07-17T18:07:02Z</time>
<desc>lat.=55.713825, lon.=26.066034, Alt.=161.830200m. Speed=0.000000m/h.</desc>
<speed>0.000000</speed>
</trkpt>
<trkpt lat="55.713825" lon="26.066034">
<ele>161.830200</ele>
<time>2010-07-17T18:07:03Z</time>
<desc>lat.=55.713825, lon.=26.066034, Alt.=161.830200m. Speed=0.000000m/h.</desc>
<speed>0.000000</speed>
</trkpt>
<trkpt lat="55.713825" lon="26.066034">
<ele>161.826294</ele>
<time>2010-07-17T18:07:04Z</time>
<desc>lat.=55.713825, lon.=26.066034, Alt.=161.826294m. Speed=0.036000m/h.</desc>
<speed>0.010000</speed>
</trkpt>
<trkpt lat="55.713825" lon="26.066034">
<ele>161.822388</ele>
<time>2010-07-17T18:07:05Z</time>
<desc>lat.=55.713825, lon.=26.066034, Alt.=161.822388m. Speed=0.036000m/h.</desc>
<speed>0.010000</speed>
</trkpt>
<trkpt lat="55.713825" lon="26.066034">
<ele>161.814575</ele>
<time>2010-07-17T18:07:06Z</time>
<desc>lat.=55.713825, lon.=26.066034, Alt.=161.814575m. Speed=0.036000m/h.</desc>
<speed>0.010000</speed>
</trkpt>
<trkpt lat="55.713825" lon="26.066034">
<ele>161.806763</ele>
<time>2010-07-17T18:07:07Z</time>
<desc>lat.=55.713825, lon.=26.066034, Alt.=161.806763m. Speed=0.108000m/h.</desc>
<speed>0.030000</speed>
</trkpt>
<trkpt lat="55.713825" lon="26.066034">
<ele>161.798950</ele>
<time>2010-07-17T18:07:08Z</time>
<desc>lat.=55.713825, lon.=26.066034, Alt.=161.798950m. Speed=0.036000m/h.</desc>
<speed>0.010000</speed>
</trkpt>
<trkpt lat="55.713825" lon="26.066034">
<ele>161.798950</ele>
<time>2010-07-17T18:07:09Z</time>
<desc>lat.=55.713825, lon.=26.066034, Alt.=161.798950m. Speed=0.072000m/h.</desc>
<speed>0.020000</speed>
</trkpt>
<trkpt lat="55.713825" lon="26.066034">
<ele>161.798950</ele>
<time>2010-07-17T18:07:10Z</time>
<desc>lat.=55.713825, lon.=26.066034, Alt.=161.798950m. Speed=0.036000m/h.</desc>
<speed>0.010000</speed>
</trkpt>
<trkpt lat="55.713825" lon="26.066034">
<ele>161.798950</ele>
<time>2010-07-17T18:07:11Z</time>
<desc>lat.=55.713825, lon.=26.066034, Alt.=161.798950m. Speed=0.036000m/h.</desc>
<speed>0.010000</speed>
</trkpt>
<trkpt lat="55.713825" lon="26.066034">
<ele>161.795044</ele>
<time>2010-07-17T18:07:12Z</time>
<desc>lat.=55.713825, lon.=26.066034, Alt.=161.795044m. Speed=0.000000m/h.</desc>
<speed>0.000000</speed>
</trkpt>
<trkpt lat="55.713825" lon="26.066034">
<ele>161.791138</ele>
<time>2010-07-17T18:07:13Z</time>
<desc>lat.=55.713825, lon.=26.066034, Alt.=161.791138m. Speed=0.036000m/h.</desc>
<speed>0.010000</speed>
</trkpt>
<trkpt lat="55.713825" lon="26.066034">
<ele>161.783325</ele>
<time>2010-07-17T18:07:14Z</time>
<desc>lat.=55.713825, lon.=26.066034, Alt.=161.783325m. Speed=0.000000m/h.</desc>
<speed>0.000000</speed>
</trkpt>
<trkpt lat="55.713825" lon="26.066034">
<ele>161.779419</ele>
<time>2010-07-17T18:07:15Z</time>
<desc>lat.=55.713825, lon.=26.066034, Alt.=161.779419m. Speed=0.036000m/h.</desc>
<speed>0.010000</speed>
</trkpt>
<trkpt lat="55.713825" lon="26.066034">
<ele>161.775513</ele>
<time>2010-07-17T18:07:16Z</time>
<desc>lat.=55.713825, lon.=26.066034, Alt.=161.775513m. Speed=0.108000m/h.</desc>
<speed>0.030000</speed>
</trkpt>
<trkpt lat="55.713825" lon="26.066034">
<ele>161.771606</ele>
<time>2010-07-17T18:07:17Z</time>
<desc>lat.=55.713825, lon.=26.066034, Alt.=161.771606m. Speed=0.072000m/h.</desc>
<speed>0.020000</speed>
</trkpt>
<trkpt lat="55.713821" lon="26.066034">
<ele>161.775513</ele>
<time>2010-07-17T18:07:18Z</time>
<desc>lat.=55.713821, lon.=26.066034, Alt.=161.775513m. Speed=0.000000m/h.</desc>
<speed>0.000000</speed>
</trkpt>
<trkpt lat="55.713821" lon="26.066034">
<ele>161.775513</ele>
<time>2010-07-17T18:07:19Z</time>
<desc>lat.=55.713821, lon.=26.066034, Alt.=161.775513m. Speed=0.000000m/h.</desc>
<speed>0.000000</speed>
</trkpt>
<trkpt lat="55.713821" lon="26.066034">
<ele>161.771606</ele>
<time>2010-07-17T18:07:20Z</time>
<desc>lat.=55.713821, lon.=26.066034, Alt.=161.771606m. Speed=0.036000m/h.</desc>
<speed>0.010000</speed>
</trkpt>
<trkpt lat="55.713821" lon="26.066034">
<ele>161.771606</ele>
<time>2010-07-17T18:07:21Z</time>
<desc>lat.=55.713821, lon.=26.066034, Alt.=161.771606m. Speed=0.000000m/h.</desc>
<speed>0.000000</speed>
</trkpt>
<trkpt lat="55.713821" lon="26.066034">
<ele>161.775513</ele>
<time>2010-07-17T18:07:22Z</time>
<desc>lat.=55.713821, lon.=26.066034, Alt.=161.775513m. Speed=0.000000m/h.</desc>
<speed>0.000000</speed>
</trkpt>
<trkpt lat="55.713821" lon="26.066034">
<ele>161.771606</ele>
<time>2010-07-17T18:07:23Z</time>
<desc>lat.=55.713821, lon.=26.066034, Alt.=161.771606m. Speed=0.036000m/h.</desc>
<speed>0.010000</speed>
</trkpt>
<trkpt lat="55.713821" lon="26.066034">
<ele>161.771606</ele>
<time>2010-07-17T18:07:24Z</time>
<desc>lat.=55.713821, lon.=26.066034, Alt.=161.771606m. Speed=0.036000m/h.</desc>
<speed>0.010000</speed>
</trkpt>
<trkpt lat="55.713821" lon="26.066034">
<ele>161.775513</ele>
<time>2010-07-17T18:07:25Z</time>
<desc>lat.=55.713821, lon.=26.066034, Alt.=161.775513m. Speed=0.036000m/h.</desc>
<speed>0.010000</speed>
</trkpt>
<trkpt lat="55.713821" lon="26.066034">
<ele>161.775513</ele>
<time>2010-07-17T18:07:26Z</time>
<desc>lat.=55.713821, lon.=26.066034, Alt.=161.775513m. Speed=0.000000m/h.</desc>
<speed>0.000000</speed>
</trkpt>
<trkpt lat="55.713821" lon="26.066034">
<ele>161.779419</ele>
<time>2010-07-17T18:07:27Z</time>
<desc>lat.=55.713821, lon.=26.066034, Alt.=161.779419m. Speed=0.036000m/h.</desc>
<speed>0.010000</speed>
</trkpt>
<trkpt lat="55.713821" lon="26.066034">
<ele>161.787231</ele>
<time>2010-07-17T18:07:28Z</time>
<desc>lat.=55.713821, lon.=26.066034, Alt.=161.787231m. Speed=0.108000m/h.</desc>
<speed>0.030000</speed>
</trkpt>
<trkpt lat="55.713821" lon="26.066034">
<ele>161.787231</ele>
<time>2010-07-17T18:07:29Z</time>
<desc>lat.=55.713821, lon.=26.066034, Alt.=161.787231m. Speed=0.108000m/h.</desc>
<speed>0.030000</speed>
</trkpt>
<trkpt lat="55.713825" lon="26.066034">
<ele>161.771606</ele>
<time>2010-07-17T18:07:30Z</time>
<desc>lat.=55.713825, lon.=26.066034, Alt.=161.771606m. Speed=0.072000m/h.</desc>
<speed>0.020000</speed>
</trkpt>
<trkpt lat="55.713821" lon="26.066034">
<ele>161.775513</ele>
<time>2010-07-17T18:07:31Z</time>
<desc>lat.=55.713821, lon.=26.066034, Alt.=161.775513m. Speed=0.036000m/h.</desc>
<speed>0.010000</speed>
</trkpt>
<trkpt lat="55.713821" lon="26.066034">
<ele>161.783325</ele>
<time>2010-07-17T18:07:32Z</time>
<desc>lat.=55.713821, lon.=26.066034, Alt.=161.783325m. Speed=0.036000m/h.</desc>
<speed>0.010000</speed>
</trkpt>
<trkpt lat="55.713825" lon="26.066034">
<ele>161.787231</ele>
<time>2010-07-17T18:07:33Z</time>
<desc>lat.=55.713825, lon.=26.066034, Alt.=161.787231m. Speed=0.036000m/h.</desc>
<speed>0.010000</speed>
</trkpt>
<trkpt lat="55.713825" lon="26.066034">
<ele>161.802856</ele>
<time>2010-07-17T18:07:34Z</time>
<desc>lat.=55.713825, lon.=26.066034, Alt.=161.802856m. Speed=0.036000m/h.</desc>
<speed>0.010000</speed>
</trkpt>
<trkpt lat="55.713825" lon="26.066034">
<ele>161.798950</ele>
<time>2010-07-17T18:07:35Z</time>
<desc>lat.=55.713825, lon.=26.066034, Alt.=161.798950m. Speed=0.216000m/h.</desc>
<speed>0.060000</speed>
</trkpt>
<trkpt lat="55.713825" lon="26.066034">
<ele>161.798950</ele>
<time>2010-07-17T18:07:36Z</time>
<desc>lat.=55.713825, lon.=26.066034, Alt.=161.798950m. Speed=0.036000m/h.</desc>
<speed>0.010000</speed>
</trkpt>
<trkpt lat="55.713825" lon="26.066034">
<ele>161.798950</ele>
<time>2010-07-17T18:07:37Z</time>
<desc>lat.=55.713825, lon.=26.066034, Alt.=161.798950m. Speed=0.036000m/h.</desc>
<speed>0.010000</speed>
</trkpt>
<trkpt lat="55.713825" lon="26.066034">
<ele>161.802856</ele>
<time>2010-07-17T18:07:38Z</time>
<desc>lat.=55.713825, lon.=26.066034, Alt.=161.802856m. Speed=0.036000m/h.</desc>
<speed>0.010000</speed>
</trkpt>
<trkpt lat="55.713825" lon="26.066034">
<ele>161.810669</ele>
<time>2010-07-17T18:07:39Z</time>
<desc>lat.=55.713825, lon.=26.066034, Alt.=161.810669m. Speed=0.036000m/h.</desc>
<speed>0.010000</speed>
</trkpt>
<trkpt lat="55.713825" lon="26.066034">
<ele>161.814575</ele>
<time>2010-07-17T18:07:40Z</time>
<desc>lat.=55.713825, lon.=26.066034, Alt.=161.814575m. Speed=0.000000m/h.</desc>
<speed>0.000000</speed>
</trkpt>
<trkpt lat="55.713825" lon="26.066034">
<ele>161.802856</ele>
<time>2010-07-17T18:07:41Z</time>
<desc>lat.=55.713825, lon.=26.066034, Alt.=161.802856m. Speed=0.000000m/h.</desc>
<speed>0.000000</speed>
</trkpt>
<trkpt lat="55.713825" lon="26.066034">
<ele>161.795044</ele>
<time>2010-07-17T18:07:42Z</time>
<desc>lat.=55.713825, lon.=26.066034, Alt.=161.795044m. Speed=0.036000m/h.</desc>
<speed>0.010000</speed>
</trkpt>
<trkpt lat="55.713825" lon="26.066034">
<ele>161.787231</ele>
<time>2010-07-17T18:07:43Z</time>
<desc>lat.=55.713825, lon.=26.066034, Alt.=161.787231m. Speed=0.072000m/h.</desc>
<speed>0.020000</speed>
</trkpt>
<trkpt lat="55.713825" lon="26.066034">
<ele>161.783325</ele>
<time>2010-07-17T18:07:44Z</time>
<desc>lat.=55.713825, lon.=26.066034, Alt.=161.783325m. Speed=0.036000m/h.</desc>
<speed>0.010000</speed>
</trkpt>
<trkpt lat="55.713825" lon="26.066034">
<ele>161.779419</ele>
<time>2010-07-17T18:07:45Z</time>
<desc>lat.=55.713825, lon.=26.066034, Alt.=161.779419m. Speed=0.036000m/h.</desc>
<speed>0.010000</speed>
</trkpt>
<trkpt lat="55.713825" lon="26.066034">
<ele>161.775513</ele>
<time>2010-07-17T18:07:46Z</time>
<desc>lat.=55.713825, lon.=26.066034, Alt.=161.775513m. Speed=0.000000m/h.</desc>
<speed>0.000000</speed>
</trkpt>
<trkpt lat="55.713825" lon="26.066034">
<ele>161.767700</ele>
<time>2010-07-17T18:07:47Z</time>
<desc>lat.=55.713825, lon.=26.066034, Alt.=161.767700m. Speed=0.036000m/h.</desc>
<speed>0.010000</speed>
</trkpt>
<trkpt lat="55.713825" lon="26.066034">
<ele>161.759888</ele>
<time>2010-07-17T18:07:48Z</time>
<desc>lat.=55.713825, lon.=26.066034, Alt.=161.759888m. Speed=0.036000m/h.</desc>
<speed>0.010000</speed>
</trkpt>
<trkpt lat="55.713825" lon="26.066034">
<ele>161.759888</ele>
<time>2010-07-17T18:07:49Z</time>
<desc>lat.=55.713825, lon.=26.066034, Alt.=161.759888m. Speed=0.000000m/h.</desc>
<speed>0.000000</speed>
</trkpt>
<trkpt lat="55.713825" lon="26.066034">
<ele>161.759888</ele>
<time>2010-07-17T18:07:50Z</time>
<desc>lat.=55.713825, lon.=26.066034, Alt.=161.759888m. Speed=0.036000m/h.</desc>
<speed>0.010000</speed>
</trkpt>
<trkpt lat="55.713825" lon="26.066034">
<ele>161.752075</ele>
<time>2010-07-17T18:07:51Z</time>
<desc>lat.=55.713825, lon.=26.066034, Alt.=161.752075m. Speed=0.036000m/h.</desc>
<speed>0.010000</speed>
</trkpt>
<trkpt lat="55.713825" lon="26.066034">
<ele>161.748169</ele>
<time>2010-07-17T18:07:52Z</time>
<desc>lat.=55.713825, lon.=26.066034, Alt.=161.748169m. Speed=0.072000m/h.</desc>
<speed>0.020000</speed>
</trkpt>
<trkpt lat="55.713825" lon="26.066034">
<ele>161.748169</ele>
<time>2010-07-17T18:07:53Z</time>
<desc>lat.=55.713825, lon.=26.066034, Alt.=161.748169m. Speed=0.036000m/h.</desc>
<speed>0.010000</speed>
</trkpt>
<trkpt lat="55.713825" lon="26.066034">
<ele>161.736450</ele>
<time>2010-07-17T18:07:54Z</time>
<desc>lat.=55.713825, lon.=26.066034, Alt.=161.736450m. Speed=0.036000m/h.</desc>
<speed>0.010000</speed>
</trkpt>
<trkpt lat="55.713825" lon="26.066034">
<ele>161.724731</ele>
<time>2010-07-17T18:07:55Z</time>
<desc>lat.=55.713825, lon.=26.066034, Alt.=161.724731m. Speed=0.000000m/h.</desc>
<speed>0.000000</speed>
</trkpt>
<trkpt lat="55.713825" lon="26.066034">
<ele>161.716919</ele>
<time>2010-07-17T18:07:56Z</time>
<desc>lat.=55.713825, lon.=26.066034, Alt.=161.716919m. Speed=0.108000m/h.</desc>
<speed>0.030000</speed>
</trkpt>
<trkpt lat="55.713825" lon="26.066034">
<ele>161.705200</ele>
<time>2010-07-17T18:07:57Z</time>
<desc>lat.=55.713825, lon.=26.066034, Alt.=161.705200m. Speed=0.000000m/h.</desc>
<speed>0.000000</speed>
</trkpt>
<trkpt lat="55.713825" lon="26.066034">
<ele>161.697388</ele>
<time>2010-07-17T18:07:58Z</time>
<desc>lat.=55.713825, lon.=26.066034, Alt.=161.697388m. Speed=0.072000m/h.</desc>
<speed>0.020000</speed>
</trkpt>
<trkpt lat="55.713825" lon="26.066034">
<ele>161.685669</ele>
<time>2010-07-17T18:07:59Z</time>
<desc>lat.=55.713825, lon.=26.066034, Alt.=161.685669m. Speed=0.036000m/h.</desc>
<speed>0.010000</speed>
</trkpt>
<trkpt lat="55.713825" lon="26.066034">
<ele>161.681763</ele>
<time>2010-07-17T18:08:00Z</time>
<desc>lat.=55.713825, lon.=26.066034, Alt.=161.681763m. Speed=0.036000m/h.</desc>
<speed>0.010000</speed>
</trkpt>
<trkpt lat="55.713825" lon="26.066034">
<ele>161.673950</ele>
<time>2010-07-17T18:08:01Z</time>
<desc>lat.=55.713825, lon.=26.066034, Alt.=161.673950m. Speed=0.036000m/h.</desc>
<speed>0.010000</speed>
</trkpt>
<trkpt lat="55.713825" lon="26.066034">
<ele>161.670044</ele>
<time>2010-07-17T18:08:02Z</time>
<desc>lat.=55.713825, lon.=26.066034, Alt.=161.670044m. Speed=0.108000m/h.</desc>
<speed>0.030000</speed>
</trkpt>
<trkpt lat="55.713825" lon="26.066034">
<ele>161.677856</ele>
<time>2010-07-17T18:08:03Z</time>
<desc>lat.=55.713825, lon.=26.066034, Alt.=161.677856m. Speed=0.108000m/h.</desc>
<speed>0.030000</speed>
</trkpt>
<trkpt lat="55.713825" lon="26.066034">
<ele>161.681763</ele>
<time>2010-07-17T18:08:04Z</time>
<desc>lat.=55.713825, lon.=26.066034, Alt.=161.681763m. Speed=0.000000m/h.</desc>
<speed>0.000000</speed>
</trkpt>
<trkpt lat="55.713825" lon="26.066034">
<ele>161.685669</ele>
<time>2010-07-17T18:08:05Z</time>
<desc>lat.=55.713825, lon.=26.066034, Alt.=161.685669m. Speed=0.072000m/h.</desc>
<speed>0.020000</speed>
</trkpt>
<trkpt lat="55.713821" lon="26.066034">
<ele>161.701294</ele>
<time>2010-07-17T18:08:06Z</time>
<desc>lat.=55.713821, lon.=26.066034, Alt.=161.701294m. Speed=0.108000m/h.</desc>
<speed>0.030000</speed>
</trkpt>
<trkpt lat="55.713821" lon="26.066034">
<ele>161.709106</ele>
<time>2010-07-17T18:08:07Z</time>
<desc>lat.=55.713821, lon.=26.066034, Alt.=161.709106m. Speed=0.108000m/h.</desc>
<speed>0.030000</speed>
</trkpt>
<trkpt lat="55.713821" lon="26.066034">
<ele>161.701294</ele>
<time>2010-07-17T18:08:08Z</time>
<desc>lat.=55.713821, lon.=26.066034, Alt.=161.701294m. Speed=0.000000m/h.</desc>
<speed>0.000000</speed>
</trkpt>
<trkpt lat="55.713821" lon="26.066034">
<ele>161.701294</ele>
<time>2010-07-17T18:08:09Z</time>
<desc>lat.=55.713821, lon.=26.066034, Alt.=161.701294m. Speed=0.036000m/h.</desc>
<speed>0.010000</speed>
</trkpt>
<trkpt lat="55.713821" lon="26.066034">
<ele>161.693481</ele>
<time>2010-07-17T18:08:10Z</time>
<desc>lat.=55.713821, lon.=26.066034, Alt.=161.693481m. Speed=0.108000m/h.</desc>
<speed>0.030000</speed>
</trkpt>
<trkpt lat="55.713821" lon="26.066034">
<ele>161.689575</ele>
<time>2010-07-17T18:08:11Z</time>
<desc>lat.=55.713821, lon.=26.066034, Alt.=161.689575m. Speed=0.036000m/h.</desc>
<speed>0.010000</speed>
</trkpt>
<trkpt lat="55.713821" lon="26.066034">
<ele>161.697388</ele>
<time>2010-07-17T18:08:12Z</time>
<desc>lat.=55.713821, lon.=26.066034, Alt.=161.697388m. Speed=0.036000m/h.</desc>
<speed>0.010000</speed>
</trkpt>
<trkpt lat="55.713821" lon="26.066034">
<ele>161.697388</ele>
<time>2010-07-17T18:08:13Z</time>
<desc>lat.=55.713821, lon.=26.066034, Alt.=161.697388m. Speed=0.000000m/h.</desc>
<speed>0.000000</speed>
</trkpt>
<trkpt lat="55.713821" lon="26.066034">
<ele>161.705200</ele>
<time>2010-07-17T18:08:14Z</time>
<desc>lat.=55.713821, lon.=26.066034, Alt.=161.705200m. Speed=0.036000m/h.</desc>
<speed>0.010000</speed>
</trkpt>
<trkpt lat="55.713821" lon="26.066034">
<ele>161.709106</ele>
<time>2010-07-17T18:08:15Z</time>
<desc>lat.=55.713821, lon.=26.066034, Alt.=161.709106m. Speed=0.072000m/h.</desc>
<speed>0.020000</speed>
</trkpt>
<trkpt lat="55.713821" lon="26.066034">
<ele>161.713013</ele>
<time>2010-07-17T18:08:16Z</time>
<desc>lat.=55.713821, lon.=26.066034, Alt.=161.713013m. Speed=0.000000m/h.</desc>
<speed>0.000000</speed>
</trkpt>
<trkpt lat="55.713821" lon="26.066034">
<ele>161.716919</ele>
<time>2010-07-17T18:08:17Z</time>
<desc>lat.=55.713821, lon.=26.066034, Alt.=161.716919m. Speed=0.036000m/h.</desc>
<speed>0.010000</speed>
</trkpt>
<trkpt lat="55.713821" lon="26.066034">
<ele>161.709106</ele>
<time>2010-07-17T18:08:18Z</time>
<desc>lat.=55.713821, lon.=26.066034, Alt.=161.709106m. Speed=0.000000m/h.</desc>
<speed>0.000000</speed>
</trkpt>
<trkpt lat="55.713821" lon="26.066034">
<ele>161.701294</ele>
<time>2010-07-17T18:08:19Z</time>
<desc>lat.=55.713821, lon.=26.066034, Alt.=161.701294m. Speed=0.072000m/h.</desc>
<speed>0.020000</speed>
</trkpt>
<trkpt lat="55.713821" lon="26.066034">
<ele>161.697388</ele>
<time>2010-07-17T18:08:20Z</time>
<desc>lat.=55.713821, lon.=26.066034, Alt.=161.697388m. Speed=0.000000m/h.</desc>
<speed>0.000000</speed>
</trkpt>
<trkpt lat="55.713821" lon="26.066034">
<ele>161.701294</ele>
<time>2010-07-17T18:08:21Z</time>
<desc>lat.=55.713821, lon.=26.066034, Alt.=161.701294m. Speed=0.072000m/h.</desc>
<speed>0.020000</speed>
</trkpt>
<trkpt lat="55.713821" lon="26.066034">
<ele>161.709106</ele>
<time>2010-07-17T18:08:22Z</time>
<desc>lat.=55.713821, lon.=26.066034, Alt.=161.709106m. Speed=0.072000m/h.</desc>
<speed>0.020000</speed>
</trkpt>
<trkpt lat="55.713821" lon="26.066034">
<ele>161.716919</ele>
<time>2010-07-17T18:08:23Z</time>
<desc>lat.=55.713821, lon.=26.066034, Alt.=161.716919m. Speed=0.000000m/h.</desc>
<speed>0.000000</speed>
</trkpt>
<trkpt lat="55.713821" lon="26.066034">
<ele>161.716919</ele>
<time>2010-07-17T18:08:24Z</time>
<desc>lat.=55.713821, lon.=26.066034, Alt.=161.716919m. Speed=0.000000m/h.</desc>
<speed>0.000000</speed>
</trkpt>
<trkpt lat="55.713821" lon="26.066034">
<ele>161.724731</ele>
<time>2010-07-17T18:08:25Z</time>
<desc>lat.=55.713821, lon.=26.066034, Alt.=161.724731m. Speed=0.036000m/h.</desc>
<speed>0.010000</speed>
</trkpt>
<trkpt lat="55.713821" lon="26.066034">
<ele>161.724731</ele>
<time>2010-07-17T18:08:26Z</time>
<desc>lat.=55.713821, lon.=26.066034, Alt.=161.724731m. Speed=0.036000m/h.</desc>
<speed>0.010000</speed>
</trkpt>
<trkpt lat="55.713821" lon="26.066034">
<ele>161.728638</ele>
<time>2010-07-17T18:08:27Z</time>
<desc>lat.=55.713821, lon.=26.066034, Alt.=161.728638m. Speed=0.000000m/h.</desc>
<speed>0.000000</speed>
</trkpt>
<trkpt lat="55.713821" lon="26.066034">
<ele>161.724731</ele>
<time>2010-07-17T18:08:28Z</time>
<desc>lat.=55.713821, lon.=26.066034, Alt.=161.724731m. Speed=0.072000m/h.</desc>
<speed>0.020000</speed>
</trkpt>
<trkpt lat="55.713821" lon="26.066034">
<ele>161.720825</ele>
<time>2010-07-17T18:08:29Z</time>
<desc>lat.=55.713821, lon.=26.066034, Alt.=161.720825m. Speed=0.072000m/h.</desc>
<speed>0.020000</speed>
</trkpt>
<trkpt lat="55.713821" lon="26.066034">
<ele>161.724731</ele>
<time>2010-07-17T18:08:30Z</time>
<desc>lat.=55.713821, lon.=26.066034, Alt.=161.724731m. Speed=0.036000m/h.</desc>
<speed>0.010000</speed>
</trkpt>
<trkpt lat="55.713821" lon="26.066034">
<ele>161.732544</ele>
<time>2010-07-17T18:08:31Z</time>
<desc>lat.=55.713821, lon.=26.066034, Alt.=161.732544m. Speed=0.324000m/h.</desc>
<speed>0.090000</speed>
</trkpt>
<trkpt lat="55.713821" lon="26.066034">
<ele>161.732544</ele>
<time>2010-07-17T18:08:32Z</time>
<desc>lat.=55.713821, lon.=26.066034, Alt.=161.732544m. Speed=0.360000m/h.</desc>
<speed>0.100000</speed>
</trkpt>
<trkpt lat="55.713825" lon="26.066036">
<ele>161.732544</ele>
<time>2010-07-17T18:08:33Z</time>
<desc>lat.=55.713825, lon.=26.066036, Alt.=161.732544m. Speed=2.088000m/h.</desc>
<speed>0.580000</speed>
</trkpt>
<trkpt lat="55.713833" lon="26.066029">
<ele>161.498169</ele>
<time>2010-07-17T18:08:34Z</time>
<desc>lat.=55.713833, lon.=26.066029, Alt.=161.498169m. Speed=2.520000m/h.</desc>
<speed>0.700000</speed>
</trkpt>
<trkpt lat="55.713837" lon="26.066004">
<ele>161.884888</ele>
<time>2010-07-17T18:08:35Z</time>
<desc>lat.=55.713837, lon.=26.066004, Alt.=161.884888m. Speed=4.788000m/h.</desc>
<speed>1.330000</speed>
</trkpt>
<trkpt lat="55.713840" lon="26.065971">
<ele>162.490356</ele>
<time>2010-07-17T18:08:36Z</time>
<desc>lat.=55.713840, lon.=26.065971, Alt.=162.490356m. Speed=9.180000m/h.</desc>
<speed>2.550000</speed>
</trkpt>
<trkpt lat="55.713829" lon="26.065931">
<ele>162.189575</ele>
<time>2010-07-17T18:08:37Z</time>
<desc>lat.=55.713829, lon.=26.065931, Alt.=162.189575m. Speed=10.548000m/h.</desc>
<speed>2.930000</speed>
</trkpt>
<trkpt lat="55.713814" lon="26.065893">
<ele>162.119263</ele>
<time>2010-07-17T18:08:38Z</time>
<desc>lat.=55.713814, lon.=26.065893, Alt.=162.119263m. Speed=11.340000m/h.</desc>
<speed>3.150000</speed>
</trkpt>
<trkpt lat="55.713787" lon="26.065874">
<ele>162.380981</ele>
<time>2010-07-17T18:08:39Z</time>
<desc>lat.=55.713787, lon.=26.065874, Alt.=162.380981m. Speed=11.520000m/h.</desc>
<speed>3.200000</speed>
</trkpt>
<trkpt lat="55.713764" lon="26.065868">
<ele>162.646606</ele>
<time>2010-07-17T18:08:40Z</time>
<desc>lat.=55.713764, lon.=26.065868, Alt.=162.646606m. Speed=7.164000m/h.</desc>
<speed>1.990000</speed>
</trkpt>
<trkpt lat="55.713737" lon="26.065865">
<ele>163.088013</ele>
<time>2010-07-17T18:08:41Z</time>
<desc>lat.=55.713737, lon.=26.065865, Alt.=163.088013m. Speed=10.908000m/h.</desc>
<speed>3.030000</speed>
</trkpt>
<trkpt lat="55.713711" lon="26.065859">
<ele>162.849731</ele>
<time>2010-07-17T18:08:42Z</time>
<desc>lat.=55.713711, lon.=26.065859, Alt.=162.849731m. Speed=8.316000m/h.</desc>
<speed>2.310000</speed>
</trkpt>
<trkpt lat="55.713699" lon="26.065857">
<ele>162.564575</ele>
<time>2010-07-17T18:08:43Z</time>
<desc>lat.=55.713699, lon.=26.065857, Alt.=162.564575m. Speed=2.592000m/h.</desc>
<speed>0.720000</speed>
</trkpt>
<trkpt lat="55.713696" lon="26.065866">
<ele>162.240356</ele>
<time>2010-07-17T18:08:44Z</time>
<desc>lat.=55.713696, lon.=26.065866, Alt.=162.240356m. Speed=1.656000m/h.</desc>
<speed>0.460000</speed>
</trkpt>
<trkpt lat="55.713696" lon="26.065870">
<ele>162.170044</ele>
<time>2010-07-17T18:08:45Z</time>
<desc>lat.=55.713696, lon.=26.065870, Alt.=162.170044m. Speed=1.584000m/h.</desc>
<speed>0.440000</speed>
</trkpt>
<trkpt lat="55.713692" lon="26.065872">
<ele>162.138794</ele>
<time>2010-07-17T18:08:46Z</time>
<desc>lat.=55.713692, lon.=26.065872, Alt.=162.138794m. Speed=1.188000m/h.</desc>
<speed>0.330000</speed>
</trkpt>
<trkpt lat="55.713692" lon="26.065870">
<ele>162.232544</ele>
<time>2010-07-17T18:08:47Z</time>
<desc>lat.=55.713692, lon.=26.065870, Alt.=162.232544m. Speed=0.972000m/h.</desc>
<speed>0.270000</speed>
</trkpt>
<trkpt lat="55.713692" lon="26.065870">
<ele>162.349731</ele>
<time>2010-07-17T18:08:48Z</time>
<desc>lat.=55.713692, lon.=26.065870, Alt.=162.349731m. Speed=0.540000m/h.</desc>
<speed>0.150000</speed>
</trkpt>
<trkpt lat="55.713688" lon="26.065870">
<ele>162.388794</ele>
<time>2010-07-17T18:08:49Z</time>
<desc>lat.=55.713688, lon.=26.065870, Alt.=162.388794m. Speed=0.576000m/h.</desc>
<speed>0.160000</speed>
</trkpt>
<trkpt lat="55.713692" lon="26.065868">
<ele>162.923950</ele>
<time>2010-07-17T18:08:50Z</time>
<desc>lat.=55.713692, lon.=26.065868, Alt.=162.923950m. Speed=0.936000m/h.</desc>
<speed>0.260000</speed>
</trkpt>
<trkpt lat="55.713692" lon="26.065865">
<ele>162.916138</ele>
<time>2010-07-17T18:08:51Z</time>
<desc>lat.=55.713692, lon.=26.065865, Alt.=162.916138m. Speed=0.756000m/h.</desc>
<speed>0.210000</speed>
</trkpt>
<trkpt lat="55.713692" lon="26.065861">
<ele>162.916138</ele>
<time>2010-07-17T18:08:52Z</time>
<desc>lat.=55.713692, lon.=26.065861, Alt.=162.916138m. Speed=0.720000m/h.</desc>
<speed>0.200000</speed>
</trkpt>
<trkpt lat="55.713692" lon="26.065859">
<ele>162.931763</ele>
<time>2010-07-17T18:08:53Z</time>
<desc>lat.=55.713692, lon.=26.065859, Alt.=162.931763m. Speed=0.756000m/h.</desc>
<speed>0.210000</speed>
</trkpt>
<trkpt lat="55.713688" lon="26.065859">
<ele>162.935669</ele>
<time>2010-07-17T18:08:54Z</time>
<desc>lat.=55.713688, lon.=26.065859, Alt.=162.935669m. Speed=0.540000m/h.</desc>
<speed>0.150000</speed>
</trkpt>
<trkpt lat="55.713688" lon="26.065857">
<ele>162.935669</ele>
<time>2010-07-17T18:08:55Z</time>
<desc>lat.=55.713688, lon.=26.065857, Alt.=162.935669m. Speed=0.504000m/h.</desc>
<speed>0.140000</speed>
</trkpt>
<trkpt lat="55.713688" lon="26.065857">
<ele>162.935669</ele>
<time>2010-07-17T18:08:56Z</time>
<desc>lat.=55.713688, lon.=26.065857, Alt.=162.935669m. Speed=0.216000m/h.</desc>
<speed>0.060000</speed>
</trkpt>
<trkpt lat="55.713688" lon="26.065859">
<ele>162.931763</ele>
<time>2010-07-17T18:08:57Z</time>
<desc>lat.=55.713688, lon.=26.065859, Alt.=162.931763m. Speed=0.072000m/h.</desc>
<speed>0.020000</speed>
</trkpt>
<trkpt lat="55.713688" lon="26.065857">
<ele>162.931763</ele>
<time>2010-07-17T18:08:58Z</time>
<desc>lat.=55.713688, lon.=26.065857, Alt.=162.931763m. Speed=0.216000m/h.</desc>
<speed>0.060000</speed>
</trkpt>
<trkpt lat="55.713688" lon="26.065857">
<ele>162.931763</ele>
<time>2010-07-17T18:08:59Z</time>
<desc>lat.=55.713688, lon.=26.065857, Alt.=162.931763m. Speed=0.180000m/h.</desc>
<speed>0.050000</speed>
</trkpt>
<trkpt lat="55.713688" lon="26.065857">
<ele>162.927856</ele>
<time>2010-07-17T18:09:00Z</time>
<desc>lat.=55.713688, lon.=26.065857, Alt.=162.927856m. Speed=0.288000m/h.</desc>
<speed>0.080000</speed>
</trkpt>
<trkpt lat="55.713688" lon="26.065857">
<ele>162.931763</ele>
<time>2010-07-17T18:09:01Z</time>
<desc>lat.=55.713688, lon.=26.065857, Alt.=162.931763m. Speed=0.324000m/h.</desc>
<speed>0.090000</speed>
</trkpt>
<trkpt lat="55.713688" lon="26.065859">
<ele>162.931763</ele>
<time>2010-07-17T18:09:02Z</time>
<desc>lat.=55.713688, lon.=26.065859, Alt.=162.931763m. Speed=0.288000m/h.</desc>
<speed>0.080000</speed>
</trkpt>
<trkpt lat="55.713688" lon="26.065857">
<ele>162.935669</ele>
<time>2010-07-17T18:09:03Z</time>
<desc>lat.=55.713688, lon.=26.065857, Alt.=162.935669m. Speed=0.216000m/h.</desc>
<speed>0.060000</speed>
</trkpt>
<trkpt lat="55.713688" lon="26.065857">
<ele>162.939575</ele>
<time>2010-07-17T18:09:04Z</time>
<desc>lat.=55.713688, lon.=26.065857, Alt.=162.939575m. Speed=0.036000m/h.</desc>
<speed>0.010000</speed>
</trkpt>
<trkpt lat="55.713684" lon="26.065857">
<ele>162.947388</ele>
<time>2010-07-17T18:09:05Z</time>
<desc>lat.=55.713684, lon.=26.065857, Alt.=162.947388m. Speed=0.144000m/h.</desc>
<speed>0.040000</speed>
</trkpt>
<trkpt lat="55.713684" lon="26.065857">
<ele>162.955200</ele>
<time>2010-07-17T18:09:06Z</time>
<desc>lat.=55.713684, lon.=26.065857, Alt.=162.955200m. Speed=0.216000m/h.</desc>
<speed>0.060000</speed>
</trkpt>
<trkpt lat="55.713684" lon="26.065857">
<ele>162.966919</ele>
<time>2010-07-17T18:09:07Z</time>
<desc>lat.=55.713684, lon.=26.065857, Alt.=162.966919m. Speed=0.216000m/h.</desc>
<speed>0.060000</speed>
</trkpt>
<trkpt lat="55.713684" lon="26.065857">
<ele>162.974731</ele>
<time>2010-07-17T18:09:08Z</time>
<desc>lat.=55.713684, lon.=26.065857, Alt.=162.974731m. Speed=0.360000m/h.</desc>
<speed>0.100000</speed>
</trkpt>
<trkpt lat="55.713684" lon="26.065859">
<ele>162.986450</ele>
<time>2010-07-17T18:09:09Z</time>
<desc>lat.=55.713684, lon.=26.065859, Alt.=162.986450m. Speed=0.504000m/h.</desc>
<speed>0.140000</speed>
</trkpt>
<trkpt lat="55.713684" lon="26.065861">
<ele>162.998169</ele>
<time>2010-07-17T18:09:10Z</time>
<desc>lat.=55.713684, lon.=26.065861, Alt.=162.998169m. Speed=0.216000m/h.</desc>
<speed>0.060000</speed>
</trkpt>
<trkpt lat="55.713684" lon="26.065861">
<ele>163.005981</ele>
<time>2010-07-17T18:09:11Z</time>
<desc>lat.=55.713684, lon.=26.065861, Alt.=163.005981m. Speed=0.648000m/h.</desc>
<speed>0.180000</speed>
</trkpt>
<trkpt lat="55.713684" lon="26.065857">
<ele>163.013794</ele>
<time>2010-07-17T18:09:12Z</time>
<desc>lat.=55.713684, lon.=26.065857, Alt.=163.013794m. Speed=0.432000m/h.</desc>
<speed>0.120000</speed>
</trkpt>
<trkpt lat="55.713684" lon="26.065857">
<ele>163.013794</ele>
<time>2010-07-17T18:09:13Z</time>
<desc>lat.=55.713684, lon.=26.065857, Alt.=163.013794m. Speed=0.288000m/h.</desc>
<speed>0.080000</speed>
</trkpt>
<trkpt lat="55.713684" lon="26.065855">
<ele>163.017700</ele>
<time>2010-07-17T18:09:14Z</time>
<desc>lat.=55.713684, lon.=26.065855, Alt.=163.017700m. Speed=0.144000m/h.</desc>
<speed>0.040000</speed>
</trkpt>
<trkpt lat="55.713684" lon="26.065855">
<ele>163.013794</ele>
<time>2010-07-17T18:09:15Z</time>
<desc>lat.=55.713684, lon.=26.065855, Alt.=163.013794m. Speed=0.108000m/h.</desc>
<speed>0.030000</speed>
</trkpt>
<trkpt lat="55.713684" lon="26.065857">
<ele>163.009888</ele>
<time>2010-07-17T18:09:16Z</time>
<desc>lat.=55.713684, lon.=26.065857, Alt.=163.009888m. Speed=0.288000m/h.</desc>
<speed>0.080000</speed>
</trkpt>
<trkpt lat="55.713684" lon="26.065859">
<ele>163.009888</ele>
<time>2010-07-17T18:09:17Z</time>
<desc>lat.=55.713684, lon.=26.065859, Alt.=163.009888m. Speed=0.072000m/h.</desc>
<speed>0.020000</speed>
</trkpt>
<trkpt lat="55.713684" lon="26.065859">
<ele>163.005981</ele>
<time>2010-07-17T18:09:18Z</time>
<desc>lat.=55.713684, lon.=26.065859, Alt.=163.005981m. Speed=0.180000m/h.</desc>
<speed>0.050000</speed>
</trkpt>
<trkpt lat="55.713680" lon="26.065859">
<ele>163.002075</ele>
<time>2010-07-17T18:09:19Z</time>
<desc>lat.=55.713680, lon.=26.065859, Alt.=163.002075m. Speed=0.144000m/h.</desc>
<speed>0.040000</speed>
</trkpt>
<trkpt lat="55.713680" lon="26.065859">
<ele>162.994263</ele>
<time>2010-07-17T18:09:20Z</time>
<desc>lat.=55.713680, lon.=26.065859, Alt.=162.994263m. Speed=0.252000m/h.</desc>
<speed>0.070000</speed>
</trkpt>
<trkpt lat="55.713680" lon="26.065861">
<ele>162.990356</ele>
<time>2010-07-17T18:09:21Z</time>
<desc>lat.=55.713680, lon.=26.065861, Alt.=162.990356m. Speed=0.108000m/h.</desc>
<speed>0.030000</speed>
</trkpt>
<trkpt lat="55.713680" lon="26.065861">
<ele>162.982544</ele>
<time>2010-07-17T18:09:22Z</time>
<desc>lat.=55.713680, lon.=26.065861, Alt.=162.982544m. Speed=0.324000m/h.</desc>
<speed>0.090000</speed>
</trkpt>
<trkpt lat="55.713680" lon="26.065863">
<ele>162.982544</ele>
<time>2010-07-17T18:09:23Z</time>
<desc>lat.=55.713680, lon.=26.065863, Alt.=162.982544m. Speed=0.180000m/h.</desc>
<speed>0.050000</speed>
</trkpt>
<trkpt lat="55.713680" lon="26.065865">
<ele>162.974731</ele>
<time>2010-07-17T18:09:24Z</time>
<desc>lat.=55.713680, lon.=26.065865, Alt.=162.974731m. Speed=0.684000m/h.</desc>
<speed>0.190000</speed>
</trkpt>
<trkpt lat="55.713680" lon="26.065866">
<ele>162.970825</ele>
<time>2010-07-17T18:09:25Z</time>
<desc>lat.=55.713680, lon.=26.065866, Alt.=162.970825m. Speed=0.864000m/h.</desc>
<speed>0.240000</speed>
</trkpt>
<trkpt lat="55.713676" lon="26.065870">
<ele>162.959106</ele>
<time>2010-07-17T18:09:26Z</time>
<desc>lat.=55.713676, lon.=26.065870, Alt.=162.959106m. Speed=0.684000m/h.</desc>
<speed>0.190000</speed>
</trkpt>
<trkpt lat="55.713676" lon="26.065872">
<ele>162.951294</ele>
<time>2010-07-17T18:09:27Z</time>
<desc>lat.=55.713676, lon.=26.065872, Alt.=162.951294m. Speed=0.360000m/h.</desc>
<speed>0.100000</speed>
</trkpt>
<trkpt lat="55.713676" lon="26.065872">
<ele>162.943481</ele>
<time>2010-07-17T18:09:28Z</time>
<desc>lat.=55.713676, lon.=26.065872, Alt.=162.943481m. Speed=0.072000m/h.</desc>
<speed>0.020000</speed>
</trkpt>
<trkpt lat="55.713676" lon="26.065872">
<ele>162.923950</ele>
<time>2010-07-17T18:09:29Z</time>
<desc>lat.=55.713676, lon.=26.065872, Alt.=162.923950m. Speed=0.252000m/h.</desc>
<speed>0.070000</speed>
</trkpt>
<trkpt lat="55.713676" lon="26.065874">
<ele>162.920044</ele>
<time>2010-07-17T18:09:30Z</time>
<desc>lat.=55.713676, lon.=26.065874, Alt.=162.920044m. Speed=0.180000m/h.</desc>
<speed>0.050000</speed>
</trkpt>
<trkpt lat="55.713676" lon="26.065872">
<ele>162.912231</ele>
<time>2010-07-17T18:09:31Z</time>
<desc>lat.=55.713676, lon.=26.065872, Alt.=162.912231m. Speed=0.108000m/h.</desc>
<speed>0.030000</speed>
</trkpt>
<trkpt lat="55.713676" lon="26.065872">
<ele>162.900513</ele>
<time>2010-07-17T18:09:32Z</time>
<desc>lat.=55.713676, lon.=26.065872, Alt.=162.900513m. Speed=0.108000m/h.</desc>
<speed>0.030000</speed>
</trkpt>
<trkpt lat="55.713676" lon="26.065872">
<ele>162.896606</ele>
<time>2010-07-17T18:09:33Z</time>
<desc>lat.=55.713676, lon.=26.065872, Alt.=162.896606m. Speed=0.252000m/h.</desc>
<speed>0.070000</speed>
</trkpt>
<trkpt lat="55.713676" lon="26.065872">
<ele>162.892700</ele>
<time>2010-07-17T18:09:34Z</time>
<desc>lat.=55.713676, lon.=26.065872, Alt.=162.892700m. Speed=0.036000m/h.</desc>
<speed>0.010000</speed>
</trkpt>
<trkpt lat="55.713676" lon="26.065872">
<ele>162.896606</ele>
<time>2010-07-17T18:09:35Z</time>
<desc>lat.=55.713676, lon.=26.065872, Alt.=162.896606m. Speed=0.180000m/h.</desc>
<speed>0.050000</speed>
</trkpt>
<trkpt lat="55.713676" lon="26.065870">
<ele>162.900513</ele>
<time>2010-07-17T18:09:36Z</time>
<desc>lat.=55.713676, lon.=26.065870, Alt.=162.900513m. Speed=0.000000m/h.</desc>
<speed>0.000000</speed>
</trkpt>
<trkpt lat="55.713676" lon="26.065870">
<ele>162.896606</ele>
<time>2010-07-17T18:09:37Z</time>
<desc>lat.=55.713676, lon.=26.065870, Alt.=162.896606m. Speed=0.036000m/h.</desc>
<speed>0.010000</speed>
</trkpt>
<trkpt lat="55.713676" lon="26.065870">
<ele>162.900513</ele>
<time>2010-07-17T18:09:38Z</time>
<desc>lat.=55.713676, lon.=26.065870, Alt.=162.900513m. Speed=0.072000m/h.</desc>
<speed>0.020000</speed>
</trkpt>
<trkpt lat="55.713680" lon="26.065870">
<ele>162.908325</ele>
<time>2010-07-17T18:09:39Z</time>
<desc>lat.=55.713680, lon.=26.065870, Alt.=162.908325m. Speed=0.216000m/h.</desc>
<speed>0.060000</speed>
</trkpt>
<trkpt lat="55.713680" lon="26.065870">
<ele>162.908325</ele>
<time>2010-07-17T18:09:40Z</time>
<desc>lat.=55.713680, lon.=26.065870, Alt.=162.908325m. Speed=0.180000m/h.</desc>
<speed>0.050000</speed>
</trkpt>
<trkpt lat="55.713680" lon="26.065870">
<ele>162.912231</ele>
<time>2010-07-17T18:09:41Z</time>
<desc>lat.=55.713680, lon.=26.065870, Alt.=162.912231m. Speed=0.072000m/h.</desc>
<speed>0.020000</speed>
</trkpt>
<trkpt lat="55.713680" lon="26.065870">
<ele>162.916138</ele>
<time>2010-07-17T18:09:42Z</time>
<desc>lat.=55.713680, lon.=26.065870, Alt.=162.916138m. Speed=0.000000m/h.</desc>
<speed>0.000000</speed>
</trkpt>
<trkpt lat="55.713680" lon="26.065870">
<ele>162.920044</ele>
<time>2010-07-17T18:09:43Z</time>
<desc>lat.=55.713680, lon.=26.065870, Alt.=162.920044m. Speed=0.000000m/h.</desc>
<speed>0.000000</speed>
</trkpt>
<trkpt lat="55.713680" lon="26.065870">
<ele>162.920044</ele>
<time>2010-07-17T18:09:44Z</time>
<desc>lat.=55.713680, lon.=26.065870, Alt.=162.920044m. Speed=0.108000m/h.</desc>
<speed>0.030000</speed>
</trkpt>
<trkpt lat="55.713680" lon="26.065870">
<ele>162.923950</ele>
<time>2010-07-17T18:09:45Z</time>
<desc>lat.=55.713680, lon.=26.065870, Alt.=162.923950m. Speed=0.036000m/h.</desc>
<speed>0.010000</speed>
</trkpt>
<trkpt lat="55.713680" lon="26.065870">
<ele>162.923950</ele>
<time>2010-07-17T18:09:46Z</time>
<desc>lat.=55.713680, lon.=26.065870, Alt.=162.923950m. Speed=0.000000m/h.</desc>
<speed>0.000000</speed>
</trkpt>
<trkpt lat="55.713680" lon="26.065870">
<ele>162.920044</ele>
<time>2010-07-17T18:09:47Z</time>
<desc>lat.=55.713680, lon.=26.065870, Alt.=162.920044m. Speed=0.072000m/h.</desc>
<speed>0.020000</speed>
</trkpt>
<trkpt lat="55.713680" lon="26.065870">
<ele>162.920044</ele>
<time>2010-07-17T18:09:48Z</time>
<desc>lat.=55.713680, lon.=26.065870, Alt.=162.920044m. Speed=0.036000m/h.</desc>
<speed>0.010000</speed>
</trkpt>
<trkpt lat="55.713680" lon="26.065870">
<ele>162.920044</ele>
<time>2010-07-17T18:09:49Z</time>
<desc>lat.=55.713680, lon.=26.065870, Alt.=162.920044m. Speed=0.036000m/h.</desc>
<speed>0.010000</speed>
</trkpt>
<trkpt lat="55.713680" lon="26.065870">
<ele>162.920044</ele>
<time>2010-07-17T18:09:50Z</time>
<desc>lat.=55.713680, lon.=26.065870, Alt.=162.920044m. Speed=0.000000m/h.</desc>
<speed>0.000000</speed>
</trkpt>
<trkpt lat="55.713680" lon="26.065870">
<ele>162.923950</ele>
<time>2010-07-17T18:09:51Z</time>
<desc>lat.=55.713680, lon.=26.065870, Alt.=162.923950m. Speed=0.000000m/h.</desc>
<speed>0.000000</speed>
</trkpt>
<trkpt lat="55.713680" lon="26.065870">
<ele>162.923950</ele>
<time>2010-07-17T18:09:52Z</time>
<desc>lat.=55.713680, lon.=26.065870, Alt.=162.923950m. Speed=0.000000m/h.</desc>
<speed>0.000000</speed>
</trkpt>
<trkpt lat="55.713680" lon="26.065870">
<ele>162.923950</ele>
<time>2010-07-17T18:09:53Z</time>
<desc>lat.=55.713680, lon.=26.065870, Alt.=162.923950m. Speed=0.000000m/h.</desc>
<speed>0.000000</speed>
</trkpt>
<trkpt lat="55.713680" lon="26.065870">
<ele>162.923950</ele>
<time>2010-07-17T18:09:54Z</time>
<desc>lat.=55.713680, lon.=26.065870, Alt.=162.923950m. Speed=0.036000m/h.</desc>
<speed>0.010000</speed>
</trkpt>
<trkpt lat="55.713680" lon="26.065870">
<ele>162.927856</ele>
<time>2010-07-17T18:09:55Z</time>
<desc>lat.=55.713680, lon.=26.065870, Alt.=162.927856m. Speed=0.036000m/h.</desc>
<speed>0.010000</speed>
</trkpt>
<trkpt lat="55.713680" lon="26.065870">
<ele>162.927856</ele>
<time>2010-07-17T18:09:56Z</time>
<desc>lat.=55.713680, lon.=26.065870, Alt.=162.927856m. Speed=0.000000m/h.</desc>
<speed>0.000000</speed>
</trkpt>
<trkpt lat="55.713680" lon="26.065870">
<ele>162.931763</ele>
<time>2010-07-17T18:09:57Z</time>
<desc>lat.=55.713680, lon.=26.065870, Alt.=162.931763m. Speed=0.072000m/h.</desc>
<speed>0.020000</speed>
</trkpt>
<trkpt lat="55.713680" lon="26.065870">
<ele>162.931763</ele>
<time>2010-07-17T18:09:58Z</time>
<desc>lat.=55.713680, lon.=26.065870, Alt.=162.931763m. Speed=0.072000m/h.</desc>
<speed>0.020000</speed>
</trkpt>
<trkpt lat="55.713680" lon="26.065870">
<ele>162.931763</ele>
<time>2010-07-17T18:09:59Z</time>
<desc>lat.=55.713680, lon.=26.065870, Alt.=162.931763m. Speed=0.000000m/h.</desc>
<speed>0.000000</speed>
</trkpt>
<trkpt lat="55.713676" lon="26.065870">
<ele>162.935669</ele>
<time>2010-07-17T18:10:00Z</time>
<desc>lat.=55.713676, lon.=26.065870, Alt.=162.935669m. Speed=0.000000m/h.</desc>
<speed>0.000000</speed>
</trkpt>
<trkpt lat="55.713676" lon="26.065870">
<ele>162.935669</ele>
<time>2010-07-17T18:10:01Z</time>
<desc>lat.=55.713676, lon.=26.065870, Alt.=162.935669m. Speed=0.036000m/h.</desc>
<speed>0.010000</speed>
</trkpt>
<trkpt lat="55.713676" lon="26.065870">
<ele>162.935669</ele>
<time>2010-07-17T18:10:02Z</time>
<desc>lat.=55.713676, lon.=26.065870, Alt.=162.935669m. Speed=0.072000m/h.</desc>
<speed>0.020000</speed>
</trkpt>
<trkpt lat="55.713680" lon="26.065870">
<ele>162.931763</ele>
<time>2010-07-17T18:10:03Z</time>
<desc>lat.=55.713680, lon.=26.065870, Alt.=162.931763m. Speed=0.036000m/h.</desc>
<speed>0.010000</speed>
</trkpt>
<trkpt lat="55.713680" lon="26.065870">
<ele>162.939575</ele>
<time>2010-07-17T18:10:04Z</time>
<desc>lat.=55.713680, lon.=26.065870, Alt.=162.939575m. Speed=0.036000m/h.</desc>
<speed>0.010000</speed>
</trkpt>
<trkpt lat="55.713680" lon="26.065870">
<ele>162.947388</ele>
<time>2010-07-17T18:10:05Z</time>
<desc>lat.=55.713680, lon.=26.065870, Alt.=162.947388m. Speed=0.072000m/h.</desc>
<speed>0.020000</speed>
</trkpt>
<trkpt lat="55.713676" lon="26.065870">
<ele>162.947388</ele>
<time>2010-07-17T18:10:06Z</time>
<desc>lat.=55.713676, lon.=26.065870, Alt.=162.947388m. Speed=0.036000m/h.</desc>
<speed>0.010000</speed>
</trkpt>
<trkpt lat="55.713676" lon="26.065870">
<ele>162.951294</ele>
<time>2010-07-17T18:10:07Z</time>
<desc>lat.=55.713676, lon.=26.065870, Alt.=162.951294m. Speed=0.108000m/h.</desc>
<speed>0.030000</speed>
</trkpt>
<trkpt lat="55.713676" lon="26.065870">
<ele>162.951294</ele>
<time>2010-07-17T18:10:08Z</time>
<desc>lat.=55.713676, lon.=26.065870, Alt.=162.951294m. Speed=0.036000m/h.</desc>
<speed>0.010000</speed>
</trkpt>
<trkpt lat="55.713676" lon="26.065870">
<ele>162.943481</ele>
<time>2010-07-17T18:10:09Z</time>
<desc>lat.=55.713676, lon.=26.065870, Alt.=162.943481m. Speed=0.036000m/h.</desc>
<speed>0.010000</speed>
</trkpt>
<trkpt lat="55.713676" lon="26.065870">
<ele>162.935669</ele>
<time>2010-07-17T18:10:10Z</time>
<desc>lat.=55.713676, lon.=26.065870, Alt.=162.935669m. Speed=0.036000m/h.</desc>
<speed>0.010000</speed>
</trkpt>
<trkpt lat="55.713676" lon="26.065870">
<ele>162.927856</ele>
<time>2010-07-17T18:10:11Z</time>
<desc>lat.=55.713676, lon.=26.065870, Alt.=162.927856m. Speed=0.036000m/h.</desc>
<speed>0.010000</speed>
</trkpt>
<trkpt lat="55.713676" lon="26.065870">
<ele>162.927856</ele>
<time>2010-07-17T18:10:12Z</time>
<desc>lat.=55.713676, lon.=26.065870, Alt.=162.927856m. Speed=0.072000m/h.</desc>
<speed>0.020000</speed>
</trkpt>
<trkpt lat="55.713676" lon="26.065870">
<ele>162.931763</ele>
<time>2010-07-17T18:10:13Z</time>
<desc>lat.=55.713676, lon.=26.065870, Alt.=162.931763m. Speed=0.000000m/h.</desc>
<speed>0.000000</speed>
</trkpt>
<trkpt lat="55.713680" lon="26.065870">
<ele>162.931763</ele>
<time>2010-07-17T18:10:14Z</time>
<desc>lat.=55.713680, lon.=26.065870, Alt.=162.931763m. Speed=0.072000m/h.</desc>
<speed>0.020000</speed>
</trkpt>
<trkpt lat="55.713680" lon="26.065870">
<ele>162.931763</ele>
<time>2010-07-17T18:10:15Z</time>
<desc>lat.=55.713680, lon.=26.065870, Alt.=162.931763m. Speed=0.000000m/h.</desc>
<speed>0.000000</speed>
</trkpt>
<trkpt lat="55.713680" lon="26.065870">
<ele>162.935669</ele>
<time>2010-07-17T18:10:16Z</time>
<desc>lat.=55.713680, lon.=26.065870, Alt.=162.935669m. Speed=0.000000m/h.</desc>
<speed>0.000000</speed>
</trkpt>
<trkpt lat="55.713676" lon="26.065870">
<ele>162.935669</ele>
<time>2010-07-17T18:10:17Z</time>
<desc>lat.=55.713676, lon.=26.065870, Alt.=162.935669m. Speed=0.108000m/h.</desc>
<speed>0.030000</speed>
</trkpt>
<trkpt lat="55.713676" lon="26.065870">
<ele>162.935669</ele>
<time>2010-07-17T18:10:18Z</time>
<desc>lat.=55.713676, lon.=26.065870, Alt.=162.935669m. Speed=0.108000m/h.</desc>
<speed>0.030000</speed>
</trkpt>
<trkpt lat="55.713676" lon="26.065872">
<ele>162.939575</ele>
<time>2010-07-17T18:10:19Z</time>
<desc>lat.=55.713676, lon.=26.065872, Alt.=162.939575m. Speed=0.144000m/h.</desc>
<speed>0.040000</speed>
</trkpt>
<trkpt lat="55.713676" lon="26.065872">
<ele>162.931763</ele>
<time>2010-07-17T18:10:20Z</time>
<desc>lat.=55.713676, lon.=26.065872, Alt.=162.931763m. Speed=0.108000m/h.</desc>
<speed>0.030000</speed>
</trkpt>
<trkpt lat="55.713676" lon="26.065872">
<ele>162.935669</ele>
<time>2010-07-17T18:10:21Z</time>
<desc>lat.=55.713676, lon.=26.065872, Alt.=162.935669m. Speed=0.000000m/h.</desc>
<speed>0.000000</speed>
</trkpt>
<trkpt lat="55.713676" lon="26.065872">
<ele>162.931763</ele>
<time>2010-07-17T18:10:22Z</time>
<desc>lat.=55.713676, lon.=26.065872, Alt.=162.931763m. Speed=0.036000m/h.</desc>
<speed>0.010000</speed>
</trkpt>
<trkpt lat="55.713676" lon="26.065872">
<ele>162.927856</ele>
<time>2010-07-17T18:10:23Z</time>
<desc>lat.=55.713676, lon.=26.065872, Alt.=162.927856m. Speed=0.108000m/h.</desc>
<speed>0.030000</speed>
</trkpt>
<trkpt lat="55.713676" lon="26.065872">
<ele>162.912231</ele>
<time>2010-07-17T18:10:24Z</time>
<desc>lat.=55.713676, lon.=26.065872, Alt.=162.912231m. Speed=0.072000m/h.</desc>
<speed>0.020000</speed>
</trkpt>
<trkpt lat="55.713676" lon="26.065872">
<ele>162.908325</ele>
<time>2010-07-17T18:10:25Z</time>
<desc>lat.=55.713676, lon.=26.065872, Alt.=162.908325m. Speed=0.036000m/h.</desc>
<speed>0.010000</speed>
</trkpt>
<trkpt lat="55.713676" lon="26.065872">
<ele>162.904419</ele>
<time>2010-07-17T18:10:26Z</time>
<desc>lat.=55.713676, lon.=26.065872, Alt.=162.904419m. Speed=0.072000m/h.</desc>
<speed>0.020000</speed>
</trkpt>
<trkpt lat="55.713676" lon="26.065872">
<ele>162.900513</ele>
<time>2010-07-17T18:10:27Z</time>
<desc>lat.=55.713676, lon.=26.065872, Alt.=162.900513m. Speed=0.072000m/h.</desc>
<speed>0.020000</speed>
</trkpt>
<trkpt lat="55.713676" lon="26.065872">
<ele>162.900513</ele>
<time>2010-07-17T18:10:28Z</time>
<desc>lat.=55.713676, lon.=26.065872, Alt.=162.900513m. Speed=0.036000m/h.</desc>
<speed>0.010000</speed>
</trkpt>
<trkpt lat="55.713676" lon="26.065872">
<ele>162.900513</ele>
<time>2010-07-17T18:10:29Z</time>
<desc>lat.=55.713676, lon.=26.065872, Alt.=162.900513m. Speed=0.072000m/h.</desc>
<speed>0.020000</speed>
</trkpt>
<trkpt lat="55.713676" lon="26.065872">
<ele>162.904419</ele>
<time>2010-07-17T18:10:30Z</time>
<desc>lat.=55.713676, lon.=26.065872, Alt.=162.904419m. Speed=0.072000m/h.</desc>
<speed>0.020000</speed>
</trkpt>
<trkpt lat="55.713676" lon="26.065872">
<ele>162.900513</ele>
<time>2010-07-17T18:10:31Z</time>
<desc>lat.=55.713676, lon.=26.065872, Alt.=162.900513m. Speed=0.036000m/h.</desc>
<speed>0.010000</speed>
</trkpt>
<trkpt lat="55.713676" lon="26.065872">
<ele>162.904419</ele>
<time>2010-07-17T18:10:32Z</time>
<desc>lat.=55.713676, lon.=26.065872, Alt.=162.904419m. Speed=0.000000m/h.</desc>
<speed>0.000000</speed>
</trkpt>
<trkpt lat="55.713676" lon="26.065872">
<ele>162.912231</ele>
<time>2010-07-17T18:10:33Z</time>
<desc>lat.=55.713676, lon.=26.065872, Alt.=162.912231m. Speed=0.036000m/h.</desc>
<speed>0.010000</speed>
</trkpt>
<trkpt lat="55.713676" lon="26.065872">
<ele>162.916138</ele>
<time>2010-07-17T18:10:34Z</time>
<desc>lat.=55.713676, lon.=26.065872, Alt.=162.916138m. Speed=0.000000m/h.</desc>
<speed>0.000000</speed>
</trkpt>
<trkpt lat="55.713676" lon="26.065872">
<ele>162.920044</ele>
<time>2010-07-17T18:10:35Z</time>
<desc>lat.=55.713676, lon.=26.065872, Alt.=162.920044m. Speed=0.000000m/h.</desc>
<speed>0.000000</speed>
</trkpt>
<trkpt lat="55.713676" lon="26.065872">
<ele>162.939575</ele>
<time>2010-07-17T18:10:36Z</time>
<desc>lat.=55.713676, lon.=26.065872, Alt.=162.939575m. Speed=0.144000m/h.</desc>
<speed>0.040000</speed>
</trkpt>
<trkpt lat="55.713676" lon="26.065872">
<ele>162.943481</ele>
<time>2010-07-17T18:10:37Z</time>
<desc>lat.=55.713676, lon.=26.065872, Alt.=162.943481m. Speed=0.036000m/h.</desc>
<speed>0.010000</speed>
</trkpt>
<trkpt lat="55.713676" lon="26.065872">
<ele>162.951294</ele>
<time>2010-07-17T18:10:38Z</time>
<desc>lat.=55.713676, lon.=26.065872, Alt.=162.951294m. Speed=0.072000m/h.</desc>
<speed>0.020000</speed>
</trkpt>
<trkpt lat="55.713676" lon="26.065872">
<ele>162.955200</ele>
<time>2010-07-17T18:10:39Z</time>
<desc>lat.=55.713676, lon.=26.065872, Alt.=162.955200m. Speed=0.000000m/h.</desc>
<speed>0.000000</speed>
</trkpt>
<trkpt lat="55.713676" lon="26.065872">
<ele>162.963013</ele>
<time>2010-07-17T18:10:40Z</time>
<desc>lat.=55.713676, lon.=26.065872, Alt.=162.963013m. Speed=0.000000m/h.</desc>
<speed>0.000000</speed>
</trkpt>
<trkpt lat="55.713676" lon="26.065872">
<ele>162.970825</ele>
<time>2010-07-17T18:10:41Z</time>
<desc>lat.=55.713676, lon.=26.065872, Alt.=162.970825m. Speed=0.108000m/h.</desc>
<speed>0.030000</speed>
</trkpt>
<trkpt lat="55.713676" lon="26.065872">
<ele>162.978638</ele>
<time>2010-07-17T18:10:42Z</time>
<desc>lat.=55.713676, lon.=26.065872, Alt.=162.978638m. Speed=0.108000m/h.</desc>
<speed>0.030000</speed>
</trkpt>
<trkpt lat="55.713676" lon="26.065870">
<ele>162.990356</ele>
<time>2010-07-17T18:10:43Z</time>
<desc>lat.=55.713676, lon.=26.065870, Alt.=162.990356m. Speed=0.036000m/h.</desc>
<speed>0.010000</speed>
</trkpt>
<trkpt lat="55.713676" lon="26.065870">
<ele>162.994263</ele>
<time>2010-07-17T18:10:44Z</time>
<desc>lat.=55.713676, lon.=26.065870, Alt.=162.994263m. Speed=0.000000m/h.</desc>
<speed>0.000000</speed>
</trkpt>
<trkpt lat="55.713676" lon="26.065870">
<ele>163.005981</ele>
<time>2010-07-17T18:10:45Z</time>
<desc>lat.=55.713676, lon.=26.065870, Alt.=163.005981m. Speed=0.036000m/h.</desc>
<speed>0.010000</speed>
</trkpt>
<trkpt lat="55.713676" lon="26.065870">
<ele>163.013794</ele>
<time>2010-07-17T18:10:46Z</time>
<desc>lat.=55.713676, lon.=26.065870, Alt.=163.013794m. Speed=0.000000m/h.</desc>
<speed>0.000000</speed>
</trkpt>
<trkpt lat="55.713676" lon="26.065870">
<ele>163.013794</ele>
<time>2010-07-17T18:10:47Z</time>
<desc>lat.=55.713676, lon.=26.065870, Alt.=163.013794m. Speed=0.036000m/h.</desc>
<speed>0.010000</speed>
</trkpt>
<trkpt lat="55.713676" lon="26.065870">
<ele>163.013794</ele>
<time>2010-07-17T18:10:48Z</time>
<desc>lat.=55.713676, lon.=26.065870, Alt.=163.013794m. Speed=0.036000m/h.</desc>
<speed>0.010000</speed>
</trkpt>
<trkpt lat="55.713676" lon="26.065870">
<ele>163.021606</ele>
<time>2010-07-17T18:10:49Z</time>
<desc>lat.=55.713676, lon.=26.065870, Alt.=163.021606m. Speed=0.072000m/h.</desc>
<speed>0.020000</speed>
</trkpt>
<trkpt lat="55.713676" lon="26.065870">
<ele>163.029419</ele>
<time>2010-07-17T18:10:50Z</time>
<desc>lat.=55.713676, lon.=26.065870, Alt.=163.029419m. Speed=0.072000m/h.</desc>
<speed>0.020000</speed>
</trkpt>
<trkpt lat="55.713676" lon="26.065870">
<ele>163.033325</ele>
<time>2010-07-17T18:10:51Z</time>
<desc>lat.=55.713676, lon.=26.065870, Alt.=163.033325m. Speed=0.072000m/h.</desc>
<speed>0.020000</speed>
</trkpt>
<trkpt lat="55.713676" lon="26.065870">
<ele>163.033325</ele>
<time>2010-07-17T18:10:52Z</time>
<desc>lat.=55.713676, lon.=26.065870, Alt.=163.033325m. Speed=0.036000m/h.</desc>
<speed>0.010000</speed>
</trkpt>
<trkpt lat="55.713676" lon="26.065870">
<ele>163.041138</ele>
<time>2010-07-17T18:10:53Z</time>
<desc>lat.=55.713676, lon.=26.065870, Alt.=163.041138m. Speed=0.036000m/h.</desc>
<speed>0.010000</speed>
</trkpt>
<trkpt lat="55.713676" lon="26.065870">
<ele>163.041138</ele>
<time>2010-07-17T18:10:54Z</time>
<desc>lat.=55.713676, lon.=26.065870, Alt.=163.041138m. Speed=0.072000m/h.</desc>
<speed>0.020000</speed>
</trkpt>
<trkpt lat="55.713676" lon="26.065870">
<ele>163.045044</ele>
<time>2010-07-17T18:10:55Z</time>
<desc>lat.=55.713676, lon.=26.065870, Alt.=163.045044m. Speed=0.000000m/h.</desc>
<speed>0.000000</speed>
</trkpt>
<trkpt lat="55.713676" lon="26.065870">
<ele>163.045044</ele>
<time>2010-07-17T18:10:56Z</time>
<desc>lat.=55.713676, lon.=26.065870, Alt.=163.045044m. Speed=0.036000m/h.</desc>
<speed>0.010000</speed>
</trkpt>
<trkpt lat="55.713676" lon="26.065870">
<ele>163.052856</ele>
<time>2010-07-17T18:10:57Z</time>
<desc>lat.=55.713676, lon.=26.065870, Alt.=163.052856m. Speed=0.036000m/h.</desc>
<speed>0.010000</speed>
</trkpt>
<trkpt lat="55.713676" lon="26.065872">
<ele>163.056763</ele>
<time>2010-07-17T18:10:58Z</time>
<desc>lat.=55.713676, lon.=26.065872, Alt.=163.056763m. Speed=0.036000m/h.</desc>
<speed>0.010000</speed>
</trkpt>
<trkpt lat="55.713676" lon="26.065872">
<ele>163.060669</ele>
<time>2010-07-17T18:10:59Z</time>
<desc>lat.=55.713676, lon.=26.065872, Alt.=163.060669m. Speed=0.036000m/h.</desc>
<speed>0.010000</speed>
</trkpt>
<trkpt lat="55.713676" lon="26.065872">
<ele>163.056763</ele>
<time>2010-07-17T18:11:00Z</time>
<desc>lat.=55.713676, lon.=26.065872, Alt.=163.056763m. Speed=0.072000m/h.</desc>
<speed>0.020000</speed>
</trkpt>
<trkpt lat="55.713676" lon="26.065872">
<ele>163.056763</ele>
<time>2010-07-17T18:11:01Z</time>
<desc>lat.=55.713676, lon.=26.065872, Alt.=163.056763m. Speed=0.036000m/h.</desc>
<speed>0.010000</speed>
</trkpt>
<trkpt lat="55.713676" lon="26.065872">
<ele>163.052856</ele>
<time>2010-07-17T18:11:02Z</time>
<desc>lat.=55.713676, lon.=26.065872, Alt.=163.052856m. Speed=0.000000m/h.</desc>
<speed>0.000000</speed>
</trkpt>
<trkpt lat="55.713676" lon="26.065872">
<ele>163.048950</ele>
<time>2010-07-17T18:11:03Z</time>
<desc>lat.=55.713676, lon.=26.065872, Alt.=163.048950m. Speed=0.000000m/h.</desc>
<speed>0.000000</speed>
</trkpt>
<trkpt lat="55.713676" lon="26.065872">
<ele>163.052856</ele>
<time>2010-07-17T18:11:04Z</time>
<desc>lat.=55.713676, lon.=26.065872, Alt.=163.052856m. Speed=0.000000m/h.</desc>
<speed>0.000000</speed>
</trkpt>
<trkpt lat="55.713676" lon="26.065872">
<ele>163.080200</ele>
<time>2010-07-17T18:11:05Z</time>
<desc>lat.=55.713676, lon.=26.065872, Alt.=163.080200m. Speed=0.072000m/h.</desc>
<speed>0.020000</speed>
</trkpt>
<trkpt lat="55.713676" lon="26.065872">
<ele>163.088013</ele>
<time>2010-07-17T18:11:06Z</time>
<desc>lat.=55.713676, lon.=26.065872, Alt.=163.088013m. Speed=0.036000m/h.</desc>
<speed>0.010000</speed>
</trkpt>
<trkpt lat="55.713676" lon="26.065872">
<ele>163.080200</ele>
<time>2010-07-17T18:11:07Z</time>
<desc>lat.=55.713676, lon.=26.065872, Alt.=163.080200m. Speed=0.036000m/h.</desc>
<speed>0.010000</speed>
</trkpt>
<trkpt lat="55.713676" lon="26.065872">
<ele>163.080200</ele>
<time>2010-07-17T18:11:08Z</time>
<desc>lat.=55.713676, lon.=26.065872, Alt.=163.080200m. Speed=0.036000m/h.</desc>
<speed>0.010000</speed>
</trkpt>
<trkpt lat="55.713676" lon="26.065872">
<ele>163.076294</ele>
<time>2010-07-17T18:11:09Z</time>
<desc>lat.=55.713676, lon.=26.065872, Alt.=163.076294m. Speed=0.000000m/h.</desc>
<speed>0.000000</speed>
</trkpt>
<trkpt lat="55.713676" lon="26.065872">
<ele>163.084106</ele>
<time>2010-07-17T18:11:10Z</time>
<desc>lat.=55.713676, lon.=26.065872, Alt.=163.084106m. Speed=0.108000m/h.</desc>
<speed>0.030000</speed>
</trkpt>
<trkpt lat="55.713676" lon="26.065872">
<ele>163.080200</ele>
<time>2010-07-17T18:11:11Z</time>
<desc>lat.=55.713676, lon.=26.065872, Alt.=163.080200m. Speed=0.036000m/h.</desc>
<speed>0.010000</speed>
</trkpt>
<trkpt lat="55.713676" lon="26.065872">
<ele>163.088013</ele>
<time>2010-07-17T18:11:12Z</time>
<desc>lat.=55.713676, lon.=26.065872, Alt.=163.088013m. Speed=0.108000m/h.</desc>
<speed>0.030000</speed>
</trkpt>
<trkpt lat="55.713676" lon="26.065872">
<ele>163.091919</ele>
<time>2010-07-17T18:11:13Z</time>
<desc>lat.=55.713676, lon.=26.065872, Alt.=163.091919m. Speed=0.036000m/h.</desc>
<speed>0.010000</speed>
</trkpt>
<trkpt lat="55.713676" lon="26.065872">
<ele>163.095825</ele>
<time>2010-07-17T18:11:14Z</time>
<desc>lat.=55.713676, lon.=26.065872, Alt.=163.095825m. Speed=0.036000m/h.</desc>
<speed>0.010000</speed>
</trkpt>
<trkpt lat="55.713676" lon="26.065872">
<ele>163.095825</ele>
<time>2010-07-17T18:11:15Z</time>
<desc>lat.=55.713676, lon.=26.065872, Alt.=163.095825m. Speed=0.180000m/h.</desc>
<speed>0.050000</speed>
</trkpt>
<trkpt lat="55.713676" lon="26.065872">
<ele>163.095825</ele>
<time>2010-07-17T18:11:16Z</time>
<desc>lat.=55.713676, lon.=26.065872, Alt.=163.095825m. Speed=0.036000m/h.</desc>
<speed>0.010000</speed>
</trkpt>
<trkpt lat="55.713676" lon="26.065872">
<ele>163.103638</ele>
<time>2010-07-17T18:11:17Z</time>
<desc>lat.=55.713676, lon.=26.065872, Alt.=163.103638m. Speed=0.108000m/h.</desc>
<speed>0.030000</speed>
</trkpt>
<trkpt lat="55.713676" lon="26.065872">
<ele>163.099731</ele>
<time>2010-07-17T18:11:18Z</time>
<desc>lat.=55.713676, lon.=26.065872, Alt.=163.099731m. Speed=0.072000m/h.</desc>
<speed>0.020000</speed>
</trkpt>
<trkpt lat="55.713676" lon="26.065872">
<ele>163.103638</ele>
<time>2010-07-17T18:11:19Z</time>
<desc>lat.=55.713676, lon.=26.065872, Alt.=163.103638m. Speed=0.072000m/h.</desc>
<speed>0.020000</speed>
</trkpt>
<trkpt lat="55.713676" lon="26.065872">
<ele>163.107544</ele>
<time>2010-07-17T18:11:20Z</time>
<desc>lat.=55.713676, lon.=26.065872, Alt.=163.107544m. Speed=0.036000m/h.</desc>
<speed>0.010000</speed>
</trkpt>
<trkpt lat="55.713676" lon="26.065872">
<ele>163.115356</ele>
<time>2010-07-17T18:11:21Z</time>
<desc>lat.=55.713676, lon.=26.065872, Alt.=163.115356m. Speed=0.000000m/h.</desc>
<speed>0.000000</speed>
</trkpt>
<trkpt lat="55.713676" lon="26.065872">
<ele>163.146606</ele>
<time>2010-07-17T18:11:22Z</time>
<desc>lat.=55.713676, lon.=26.065872, Alt.=163.146606m. Speed=0.000000m/h.</desc>
<speed>0.000000</speed>
</trkpt>
<trkpt lat="55.713676" lon="26.065872">
<ele>163.170044</ele>
<time>2010-07-17T18:11:23Z</time>
<desc>lat.=55.713676, lon.=26.065872, Alt.=163.170044m. Speed=0.036000m/h.</desc>
<speed>0.010000</speed>
</trkpt>
<trkpt lat="55.713676" lon="26.065872">
<ele>163.197388</ele>
<time>2010-07-17T18:11:24Z</time>
<desc>lat.=55.713676, lon.=26.065872, Alt.=163.197388m. Speed=0.036000m/h.</desc>
<speed>0.010000</speed>
</trkpt>
<trkpt lat="55.713676" lon="26.065872">
<ele>163.201294</ele>
<time>2010-07-17T18:11:25Z</time>
<desc>lat.=55.713676, lon.=26.065872, Alt.=163.201294m. Speed=0.036000m/h.</desc>
<speed>0.010000</speed>
</trkpt>
<trkpt lat="55.713676" lon="26.065872">
<ele>163.197388</ele>
<time>2010-07-17T18:11:26Z</time>
<desc>lat.=55.713676, lon.=26.065872, Alt.=163.197388m. Speed=0.036000m/h.</desc>
<speed>0.010000</speed>
</trkpt>
<trkpt lat="55.713676" lon="26.065872">
<ele>163.197388</ele>
<time>2010-07-17T18:11:27Z</time>
<desc>lat.=55.713676, lon.=26.065872, Alt.=163.197388m. Speed=0.036000m/h.</desc>
<speed>0.010000</speed>
</trkpt>
<trkpt lat="55.713676" lon="26.065872">
<ele>163.205200</ele>
<time>2010-07-17T18:11:28Z</time>
<desc>lat.=55.713676, lon.=26.065872, Alt.=163.205200m. Speed=0.036000m/h.</desc>
<speed>0.010000</speed>
</trkpt>
<trkpt lat="55.713676" lon="26.065872">
<ele>163.205200</ele>
<time>2010-07-17T18:11:29Z</time>
<desc>lat.=55.713676, lon.=26.065872, Alt.=163.205200m. Speed=0.000000m/h.</desc>
<speed>0.000000</speed>
</trkpt>
<trkpt lat="55.713676" lon="26.065872">
<ele>163.209106</ele>
<time>2010-07-17T18:11:30Z</time>
<desc>lat.=55.713676, lon.=26.065872, Alt.=163.209106m. Speed=0.108000m/h.</desc>
<speed>0.030000</speed>
</trkpt>
<trkpt lat="55.713676" lon="26.065872">
<ele>163.213013</ele>
<time>2010-07-17T18:11:31Z</time>
<desc>lat.=55.713676, lon.=26.065872, Alt.=163.213013m. Speed=0.072000m/h.</desc>
<speed>0.020000</speed>
</trkpt>
<trkpt lat="55.713676" lon="26.065872">
<ele>163.220825</ele>
<time>2010-07-17T18:11:32Z</time>
<desc>lat.=55.713676, lon.=26.065872, Alt.=163.220825m. Speed=0.036000m/h.</desc>
<speed>0.010000</speed>
</trkpt>
<trkpt lat="55.713676" lon="26.065872">
<ele>163.224731</ele>
<time>2010-07-17T18:11:33Z</time>
<desc>lat.=55.713676, lon.=26.065872, Alt.=163.224731m. Speed=0.036000m/h.</desc>
<speed>0.010000</speed>
</trkpt>
<trkpt lat="55.713676" lon="26.065872">
<ele>163.232544</ele>
<time>2010-07-17T18:11:34Z</time>
<desc>lat.=55.713676, lon.=26.065872, Alt.=163.232544m. Speed=0.072000m/h.</desc>
<speed>0.020000</speed>
</trkpt>
<trkpt lat="55.713676" lon="26.065872">
<ele>163.240356</ele>
<time>2010-07-17T18:11:35Z</time>
<desc>lat.=55.713676, lon.=26.065872, Alt.=163.240356m. Speed=0.036000m/h.</desc>
<speed>0.010000</speed>
</trkpt>
<trkpt lat="55.713676" lon="26.065872">
<ele>163.248169</ele>
<time>2010-07-17T18:11:36Z</time>
<desc>lat.=55.713676, lon.=26.065872, Alt.=163.248169m. Speed=0.108000m/h.</desc>
<speed>0.030000</speed>
</trkpt>
<trkpt lat="55.713676" lon="26.065872">
<ele>163.248169</ele>
<time>2010-07-17T18:11:37Z</time>
<desc>lat.=55.713676, lon.=26.065872, Alt.=163.248169m. Speed=0.036000m/h.</desc>
<speed>0.010000</speed>
</trkpt>
<trkpt lat="55.713676" lon="26.065872">
<ele>163.252075</ele>
<time>2010-07-17T18:11:38Z</time>
<desc>lat.=55.713676, lon.=26.065872, Alt.=163.252075m. Speed=0.000000m/h.</desc>
<speed>0.000000</speed>
</trkpt>
<trkpt lat="55.713676" lon="26.065872">
<ele>163.255981</ele>
<time>2010-07-17T18:11:39Z</time>
<desc>lat.=55.713676, lon.=26.065872, Alt.=163.255981m. Speed=0.000000m/h.</desc>
<speed>0.000000</speed>
</trkpt>
<trkpt lat="55.713676" lon="26.065872">
<ele>163.259888</ele>
<time>2010-07-17T18:11:40Z</time>
<desc>lat.=55.713676, lon.=26.065872, Alt.=163.259888m. Speed=0.000000m/h.</desc>
<speed>0.000000</speed>
</trkpt>
<trkpt lat="55.713676" lon="26.065872">
<ele>163.263794</ele>
<time>2010-07-17T18:11:41Z</time>
<desc>lat.=55.713676, lon.=26.065872, Alt.=163.263794m. Speed=0.036000m/h.</desc>
<speed>0.010000</speed>
</trkpt>
<trkpt lat="55.713676" lon="26.065872">
<ele>163.263794</ele>
<time>2010-07-17T18:11:42Z</time>
<desc>lat.=55.713676, lon.=26.065872, Alt.=163.263794m. Speed=0.000000m/h.</desc>
<speed>0.000000</speed>
</trkpt>
<trkpt lat="55.713676" lon="26.065872">
<ele>163.267700</ele>
<time>2010-07-17T18:11:43Z</time>
<desc>lat.=55.713676, lon.=26.065872, Alt.=163.267700m. Speed=0.036000m/h.</desc>
<speed>0.010000</speed>
</trkpt>
<trkpt lat="55.713676" lon="26.065872">
<ele>163.271606</ele>
<time>2010-07-17T18:11:44Z</time>
<desc>lat.=55.713676, lon.=26.065872, Alt.=163.271606m. Speed=0.108000m/h.</desc>
<speed>0.030000</speed>
</trkpt>
<trkpt lat="55.713676" lon="26.065872">
<ele>163.275513</ele>
<time>2010-07-17T18:11:45Z</time>
<desc>lat.=55.713676, lon.=26.065872, Alt.=163.275513m. Speed=0.000000m/h.</desc>
<speed>0.000000</speed>
</trkpt>
<trkpt lat="55.713676" lon="26.065872">
<ele>163.279419</ele>
<time>2010-07-17T18:11:46Z</time>
<desc>lat.=55.713676, lon.=26.065872, Alt.=163.279419m. Speed=0.036000m/h.</desc>
<speed>0.010000</speed>
</trkpt>
<trkpt lat="55.713676" lon="26.065872">
<ele>163.283325</ele>
<time>2010-07-17T18:11:47Z</time>
<desc>lat.=55.713676, lon.=26.065872, Alt.=163.283325m. Speed=0.036000m/h.</desc>
<speed>0.010000</speed>
</trkpt>
<trkpt lat="55.713676" lon="26.065872">
<ele>163.295044</ele>
<time>2010-07-17T18:11:48Z</time>
<desc>lat.=55.713676, lon.=26.065872, Alt.=163.295044m. Speed=0.036000m/h.</desc>
<speed>0.010000</speed>
</trkpt>
<trkpt lat="55.713676" lon="26.065872">
<ele>163.291138</ele>
<time>2010-07-17T18:11:49Z</time>
<desc>lat.=55.713676, lon.=26.065872, Alt.=163.291138m. Speed=0.072000m/h.</desc>
<speed>0.020000</speed>
</trkpt>
<trkpt lat="55.713676" lon="26.065872">
<ele>163.295044</ele>
<time>2010-07-17T18:11:50Z</time>
<desc>lat.=55.713676, lon.=26.065872, Alt.=163.295044m. Speed=0.000000m/h.</desc>
<speed>0.000000</speed>
</trkpt>
<trkpt lat="55.713676" lon="26.065872">
<ele>163.314575</ele>
<time>2010-07-17T18:11:51Z</time>
<desc>lat.=55.713676, lon.=26.065872, Alt.=163.314575m. Speed=0.180000m/h.</desc>
<speed>0.050000</speed>
</trkpt>
<trkpt lat="55.713676" lon="26.065872">
<ele>163.318481</ele>
<time>2010-07-17T18:11:52Z</time>
<desc>lat.=55.713676, lon.=26.065872, Alt.=163.318481m. Speed=0.036000m/h.</desc>
<speed>0.010000</speed>
</trkpt>
<trkpt lat="55.713676" lon="26.065872">
<ele>163.322388</ele>
<time>2010-07-17T18:11:53Z</time>
<desc>lat.=55.713676, lon.=26.065872, Alt.=163.322388m. Speed=0.000000m/h.</desc>
<speed>0.000000</speed>
</trkpt>
<trkpt lat="55.713676" lon="26.065872">
<ele>163.330200</ele>
<time>2010-07-17T18:11:54Z</time>
<desc>lat.=55.713676, lon.=26.065872, Alt.=163.330200m. Speed=0.036000m/h.</desc>
<speed>0.010000</speed>
</trkpt>
<trkpt lat="55.713676" lon="26.065872">
<ele>163.345825</ele>
<time>2010-07-17T18:11:55Z</time>
<desc>lat.=55.713676, lon.=26.065872, Alt.=163.345825m. Speed=0.036000m/h.</desc>
<speed>0.010000</speed>
</trkpt>
<trkpt lat="55.713676" lon="26.065872">
<ele>163.361450</ele>
<time>2010-07-17T18:11:56Z</time>
<desc>lat.=55.713676, lon.=26.065872, Alt.=163.361450m. Speed=0.036000m/h.</desc>
<speed>0.010000</speed>
</trkpt>
<trkpt lat="55.713676" lon="26.065872">
<ele>163.369263</ele>
<time>2010-07-17T18:11:57Z</time>
<desc>lat.=55.713676, lon.=26.065872, Alt.=163.369263m. Speed=0.072000m/h.</desc>
<speed>0.020000</speed>
</trkpt>
<trkpt lat="55.713676" lon="26.065872">
<ele>163.377075</ele>
<time>2010-07-17T18:11:58Z</time>
<desc>lat.=55.713676, lon.=26.065872, Alt.=163.377075m. Speed=0.036000m/h.</desc>
<speed>0.010000</speed>
</trkpt>
<trkpt lat="55.713676" lon="26.065872">
<ele>163.384888</ele>
<time>2010-07-17T18:11:59Z</time>
<desc>lat.=55.713676, lon.=26.065872, Alt.=163.384888m. Speed=0.036000m/h.</desc>
<speed>0.010000</speed>
</trkpt>
<trkpt lat="55.713676" lon="26.065872">
<ele>163.392700</ele>
<time>2010-07-17T18:12:00Z</time>
<desc>lat.=55.713676, lon.=26.065872, Alt.=163.392700m. Speed=0.000000m/h.</desc>
<speed>0.000000</speed>
</trkpt>
<trkpt lat="55.713676" lon="26.065872">
<ele>163.400513</ele>
<time>2010-07-17T18:12:01Z</time>
<desc>lat.=55.713676, lon.=26.065872, Alt.=163.400513m. Speed=0.036000m/h.</desc>
<speed>0.010000</speed>
</trkpt>
<trkpt lat="55.713676" lon="26.065872">
<ele>163.412231</ele>
<time>2010-07-17T18:12:02Z</time>
<desc>lat.=55.713676, lon.=26.065872, Alt.=163.412231m. Speed=0.072000m/h.</desc>
<speed>0.020000</speed>
</trkpt>
<trkpt lat="55.713676" lon="26.065872">
<ele>163.420044</ele>
<time>2010-07-17T18:12:03Z</time>
<desc>lat.=55.713676, lon.=26.065872, Alt.=163.420044m. Speed=0.000000m/h.</desc>
<speed>0.000000</speed>
</trkpt>
<trkpt lat="55.713676" lon="26.065872">
<ele>163.427856</ele>
<time>2010-07-17T18:12:04Z</time>
<desc>lat.=55.713676, lon.=26.065872, Alt.=163.427856m. Speed=0.000000m/h.</desc>
<speed>0.000000</speed>
</trkpt>
<trkpt lat="55.713676" lon="26.065872">
<ele>163.431763</ele>
<time>2010-07-17T18:12:05Z</time>
<desc>lat.=55.713676, lon.=26.065872, Alt.=163.431763m. Speed=0.036000m/h.</desc>
<speed>0.010000</speed>
</trkpt>
<trkpt lat="55.713676" lon="26.065872">
<ele>163.431763</ele>
<time>2010-07-17T18:12:06Z</time>
<desc>lat.=55.713676, lon.=26.065872, Alt.=163.431763m. Speed=0.000000m/h.</desc>
<speed>0.000000</speed>
</trkpt>
<trkpt lat="55.713676" lon="26.065872">
<ele>163.431763</ele>
<time>2010-07-17T18:12:07Z</time>
<desc>lat.=55.713676, lon.=26.065872, Alt.=163.431763m. Speed=0.036000m/h.</desc>
<speed>0.010000</speed>
</trkpt>
<trkpt lat="55.713676" lon="26.065872">
<ele>163.443481</ele>
<time>2010-07-17T18:12:08Z</time>
<desc>lat.=55.713676, lon.=26.065872, Alt.=163.443481m. Speed=0.072000m/h.</desc>
<speed>0.020000</speed>
</trkpt>
<trkpt lat="55.713676" lon="26.065872">
<ele>163.455200</ele>
<time>2010-07-17T18:12:09Z</time>
<desc>lat.=55.713676, lon.=26.065872, Alt.=163.455200m. Speed=0.000000m/h.</desc>
<speed>0.000000</speed>
</trkpt>
<trkpt lat="55.713676" lon="26.065872">
<ele>163.459106</ele>
<time>2010-07-17T18:12:10Z</time>
<desc>lat.=55.713676, lon.=26.065872, Alt.=163.459106m. Speed=0.036000m/h.</desc>
<speed>0.010000</speed>
</trkpt>
<trkpt lat="55.713676" lon="26.065872">
<ele>163.447388</ele>
<time>2010-07-17T18:12:11Z</time>
<desc>lat.=55.713676, lon.=26.065872, Alt.=163.447388m. Speed=0.072000m/h.</desc>
<speed>0.020000</speed>
</trkpt>
<trkpt lat="55.713676" lon="26.065872">
<ele>163.439575</ele>
<time>2010-07-17T18:12:12Z</time>
<desc>lat.=55.713676, lon.=26.065872, Alt.=163.439575m. Speed=0.036000m/h.</desc>
<speed>0.010000</speed>
</trkpt>
<trkpt lat="55.713676" lon="26.065872">
<ele>163.439575</ele>
<time>2010-07-17T18:12:13Z</time>
<desc>lat.=55.713676, lon.=26.065872, Alt.=163.439575m. Speed=0.036000m/h.</desc>
<speed>0.010000</speed>
</trkpt>
<trkpt lat="55.713676" lon="26.065872">
<ele>163.431763</ele>
<time>2010-07-17T18:12:14Z</time>
<desc>lat.=55.713676, lon.=26.065872, Alt.=163.431763m. Speed=0.000000m/h.</desc>
<speed>0.000000</speed>
</trkpt>
<trkpt lat="55.713676" lon="26.065872">
<ele>163.423950</ele>
<time>2010-07-17T18:12:15Z</time>
<desc>lat.=55.713676, lon.=26.065872, Alt.=163.423950m. Speed=0.036000m/h.</desc>
<speed>0.010000</speed>
</trkpt>
<trkpt lat="55.713676" lon="26.065872">
<ele>163.427856</ele>
<time>2010-07-17T18:12:16Z</time>
<desc>lat.=55.713676, lon.=26.065872, Alt.=163.427856m. Speed=0.036000m/h.</desc>
<speed>0.010000</speed>
</trkpt>
<trkpt lat="55.713676" lon="26.065872">
<ele>163.427856</ele>
<time>2010-07-17T18:12:17Z</time>
<desc>lat.=55.713676, lon.=26.065872, Alt.=163.427856m. Speed=0.036000m/h.</desc>
<speed>0.010000</speed>
</trkpt>
<trkpt lat="55.713676" lon="26.065872">
<ele>163.435669</ele>
<time>2010-07-17T18:12:18Z</time>
<desc>lat.=55.713676, lon.=26.065872, Alt.=163.435669m. Speed=0.072000m/h.</desc>
<speed>0.020000</speed>
</trkpt>
<trkpt lat="55.713676" lon="26.065872">
<ele>163.447388</ele>
<time>2010-07-17T18:12:19Z</time>
<desc>lat.=55.713676, lon.=26.065872, Alt.=163.447388m. Speed=0.036000m/h.</desc>
<speed>0.010000</speed>
</trkpt>
<trkpt lat="55.713676" lon="26.065872">
<ele>163.459106</ele>
<time>2010-07-17T18:12:20Z</time>
<desc>lat.=55.713676, lon.=26.065872, Alt.=163.459106m. Speed=0.072000m/h.</desc>
<speed>0.020000</speed>
</trkpt>
<trkpt lat="55.713676" lon="26.065872">
<ele>163.466919</ele>
<time>2010-07-17T18:12:21Z</time>
<desc>lat.=55.713676, lon.=26.065872, Alt.=163.466919m. Speed=0.000000m/h.</desc>
<speed>0.000000</speed>
</trkpt>
<trkpt lat="55.713676" lon="26.065872">
<ele>163.478638</ele>
<time>2010-07-17T18:12:22Z</time>
<desc>lat.=55.713676, lon.=26.065872, Alt.=163.478638m. Speed=0.108000m/h.</desc>
<speed>0.030000</speed>
</trkpt>
<trkpt lat="55.713676" lon="26.065872">
<ele>163.482544</ele>
<time>2010-07-17T18:12:23Z</time>
<desc>lat.=55.713676, lon.=26.065872, Alt.=163.482544m. Speed=0.000000m/h.</desc>
<speed>0.000000</speed>
</trkpt>
<trkpt lat="55.713676" lon="26.065872">
<ele>163.490356</ele>
<time>2010-07-17T18:12:24Z</time>
<desc>lat.=55.713676, lon.=26.065872, Alt.=163.490356m. Speed=0.072000m/h.</desc>
<speed>0.020000</speed>
</trkpt>
<trkpt lat="55.713676" lon="26.065872">
<ele>163.490356</ele>
<time>2010-07-17T18:12:25Z</time>
<desc>lat.=55.713676, lon.=26.065872, Alt.=163.490356m. Speed=0.180000m/h.</desc>
<speed>0.050000</speed>
</trkpt>
<trkpt lat="55.713676" lon="26.065872">
<ele>163.486450</ele>
<time>2010-07-17T18:12:26Z</time>
<desc>lat.=55.713676, lon.=26.065872, Alt.=163.486450m. Speed=0.108000m/h.</desc>
<speed>0.030000</speed>
</trkpt>
<trkpt lat="55.713676" lon="26.065872">
<ele>163.482544</ele>
<time>2010-07-17T18:12:27Z</time>
<desc>lat.=55.713676, lon.=26.065872, Alt.=163.482544m. Speed=0.036000m/h.</desc>
<speed>0.010000</speed>
</trkpt>
<trkpt lat="55.713676" lon="26.065872">
<ele>163.482544</ele>
<time>2010-07-17T18:12:28Z</time>
<desc>lat.=55.713676, lon.=26.065872, Alt.=163.482544m. Speed=0.036000m/h.</desc>
<speed>0.010000</speed>
</trkpt>
<trkpt lat="55.713676" lon="26.065872">
<ele>163.482544</ele>
<time>2010-07-17T18:12:29Z</time>
<desc>lat.=55.713676, lon.=26.065872, Alt.=163.482544m. Speed=0.036000m/h.</desc>
<speed>0.010000</speed>
</trkpt>
<trkpt lat="55.713676" lon="26.065872">
<ele>163.490356</ele>
<time>2010-07-17T18:12:30Z</time>
<desc>lat.=55.713676, lon.=26.065872, Alt.=163.490356m. Speed=0.036000m/h.</desc>
<speed>0.010000</speed>
</trkpt>
<trkpt lat="55.713676" lon="26.065872">
<ele>163.494263</ele>
<time>2010-07-17T18:12:31Z</time>
<desc>lat.=55.713676, lon.=26.065872, Alt.=163.494263m. Speed=0.072000m/h.</desc>
<speed>0.020000</speed>
</trkpt>
<trkpt lat="55.713676" lon="26.065872">
<ele>163.494263</ele>
<time>2010-07-17T18:12:32Z</time>
<desc>lat.=55.713676, lon.=26.065872, Alt.=163.494263m. Speed=0.072000m/h.</desc>
<speed>0.020000</speed>
</trkpt>
<trkpt lat="55.713676" lon="26.065872">
<ele>163.490356</ele>
<time>2010-07-17T18:12:33Z</time>
<desc>lat.=55.713676, lon.=26.065872, Alt.=163.490356m. Speed=0.108000m/h.</desc>
<speed>0.030000</speed>
</trkpt>
<trkpt lat="55.713676" lon="26.065872">
<ele>163.490356</ele>
<time>2010-07-17T18:12:34Z</time>
<desc>lat.=55.713676, lon.=26.065872, Alt.=163.490356m. Speed=0.036000m/h.</desc>
<speed>0.010000</speed>
</trkpt>
<trkpt lat="55.713676" lon="26.065872">
<ele>163.486450</ele>
<time>2010-07-17T18:12:35Z</time>
<desc>lat.=55.713676, lon.=26.065872, Alt.=163.486450m. Speed=0.108000m/h.</desc>
<speed>0.030000</speed>
</trkpt>
<trkpt lat="55.713676" lon="26.065870">
<ele>163.482544</ele>
<time>2010-07-17T18:12:36Z</time>
<desc>lat.=55.713676, lon.=26.065870, Alt.=163.482544m. Speed=0.036000m/h.</desc>
<speed>0.010000</speed>
</trkpt>
<trkpt lat="55.713676" lon="26.065870">
<ele>163.478638</ele>
<time>2010-07-17T18:12:37Z</time>
<desc>lat.=55.713676, lon.=26.065870, Alt.=163.478638m. Speed=0.000000m/h.</desc>
<speed>0.000000</speed>
</trkpt>
<trkpt lat="55.713676" lon="26.065870">
<ele>163.474731</ele>
<time>2010-07-17T18:12:38Z</time>
<desc>lat.=55.713676, lon.=26.065870, Alt.=163.474731m. Speed=0.036000m/h.</desc>
<speed>0.010000</speed>
</trkpt>
<trkpt lat="55.713676" lon="26.065870">
<ele>163.474731</ele>
<time>2010-07-17T18:12:39Z</time>
<desc>lat.=55.713676, lon.=26.065870, Alt.=163.474731m. Speed=0.072000m/h.</desc>
<speed>0.020000</speed>
</trkpt>
<trkpt lat="55.713676" lon="26.065870">
<ele>163.474731</ele>
<time>2010-07-17T18:12:40Z</time>
<desc>lat.=55.713676, lon.=26.065870, Alt.=163.474731m. Speed=0.036000m/h.</desc>
<speed>0.010000</speed>
</trkpt>
<trkpt lat="55.713680" lon="26.065870">
<ele>163.474731</ele>
<time>2010-07-17T18:12:41Z</time>
<desc>lat.=55.713680, lon.=26.065870, Alt.=163.474731m. Speed=0.072000m/h.</desc>
<speed>0.020000</speed>
</trkpt>
<trkpt lat="55.713680" lon="26.065870">
<ele>163.482544</ele>
<time>2010-07-17T18:12:42Z</time>
<desc>lat.=55.713680, lon.=26.065870, Alt.=163.482544m. Speed=0.000000m/h.</desc>
<speed>0.000000</speed>
</trkpt>
<trkpt lat="55.713680" lon="26.065870">
<ele>163.486450</ele>
<time>2010-07-17T18:12:43Z</time>
<desc>lat.=55.713680, lon.=26.065870, Alt.=163.486450m. Speed=0.072000m/h.</desc>
<speed>0.020000</speed>
</trkpt>
<trkpt lat="55.713680" lon="26.065870">
<ele>163.490356</ele>
<time>2010-07-17T18:12:44Z</time>
<desc>lat.=55.713680, lon.=26.065870, Alt.=163.490356m. Speed=0.036000m/h.</desc>
<speed>0.010000</speed>
</trkpt>
<trkpt lat="55.713680" lon="26.065870">
<ele>163.502075</ele>
<time>2010-07-17T18:12:45Z</time>
<desc>lat.=55.713680, lon.=26.065870, Alt.=163.502075m. Speed=0.000000m/h.</desc>
<speed>0.000000</speed>
</trkpt>
<trkpt lat="55.713680" lon="26.065870">
<ele>163.494263</ele>
<time>2010-07-17T18:12:46Z</time>
<desc>lat.=55.713680, lon.=26.065870, Alt.=163.494263m. Speed=0.036000m/h.</desc>
<speed>0.010000</speed>
</trkpt>
<trkpt lat="55.713680" lon="26.065870">
<ele>163.490356</ele>
<time>2010-07-17T18:12:47Z</time>
<desc>lat.=55.713680, lon.=26.065870, Alt.=163.490356m. Speed=0.108000m/h.</desc>
<speed>0.030000</speed>
</trkpt>
<trkpt lat="55.713680" lon="26.065870">
<ele>163.482544</ele>
<time>2010-07-17T18:12:48Z</time>
<desc>lat.=55.713680, lon.=26.065870, Alt.=163.482544m. Speed=0.036000m/h.</desc>
<speed>0.010000</speed>
</trkpt>
<trkpt lat="55.713680" lon="26.065870">
<ele>163.482544</ele>
<time>2010-07-17T18:12:49Z</time>
<desc>lat.=55.713680, lon.=26.065870, Alt.=163.482544m. Speed=0.000000m/h.</desc>
<speed>0.000000</speed>
</trkpt>
<trkpt lat="55.713680" lon="26.065870">
<ele>163.482544</ele>
<time>2010-07-17T18:12:50Z</time>
<desc>lat.=55.713680, lon.=26.065870, Alt.=163.482544m. Speed=0.036000m/h.</desc>
<speed>0.010000</speed>
</trkpt>
<trkpt lat="55.713680" lon="26.065870">
<ele>163.486450</ele>
<time>2010-07-17T18:12:51Z</time>
<desc>lat.=55.713680, lon.=26.065870, Alt.=163.486450m. Speed=0.036000m/h.</desc>
<speed>0.010000</speed>
</trkpt>
<trkpt lat="55.713680" lon="26.065870">
<ele>163.482544</ele>
<time>2010-07-17T18:12:52Z</time>
<desc>lat.=55.713680, lon.=26.065870, Alt.=163.482544m. Speed=0.036000m/h.</desc>
<speed>0.010000</speed>
</trkpt>
<trkpt lat="55.713680" lon="26.065870">
<ele>163.486450</ele>
<time>2010-07-17T18:12:53Z</time>
<desc>lat.=55.713680, lon.=26.065870, Alt.=163.486450m. Speed=0.000000m/h.</desc>
<speed>0.000000</speed>
</trkpt>
<trkpt lat="55.713680" lon="26.065870">
<ele>163.490356</ele>
<time>2010-07-17T18:12:54Z</time>
<desc>lat.=55.713680, lon.=26.065870, Alt.=163.490356m. Speed=0.036000m/h.</desc>
<speed>0.010000</speed>
</trkpt>
<trkpt lat="55.713680" lon="26.065870">
<ele>163.498169</ele>
<time>2010-07-17T18:12:55Z</time>
<desc>lat.=55.713680, lon.=26.065870, Alt.=163.498169m. Speed=0.000000m/h.</desc>
<speed>0.000000</speed>
</trkpt>
<trkpt lat="55.713680" lon="26.065870">
<ele>163.509888</ele>
<time>2010-07-17T18:12:56Z</time>
<desc>lat.=55.713680, lon.=26.065870, Alt.=163.509888m. Speed=0.000000m/h.</desc>
<speed>0.000000</speed>
</trkpt>
<trkpt lat="55.713680" lon="26.065870">
<ele>163.513794</ele>
<time>2010-07-17T18:12:57Z</time>
<desc>lat.=55.713680, lon.=26.065870, Alt.=163.513794m. Speed=0.000000m/h.</desc>
<speed>0.000000</speed>
</trkpt>
<trkpt lat="55.713680" lon="26.065870">
<ele>163.517700</ele>
<time>2010-07-17T18:12:58Z</time>
<desc>lat.=55.713680, lon.=26.065870, Alt.=163.517700m. Speed=0.036000m/h.</desc>
<speed>0.010000</speed>
</trkpt>
<trkpt lat="55.713680" lon="26.065870">
<ele>163.517700</ele>
<time>2010-07-17T18:12:59Z</time>
<desc>lat.=55.713680, lon.=26.065870, Alt.=163.517700m. Speed=0.000000m/h.</desc>
<speed>0.000000</speed>
</trkpt>
<trkpt lat="55.713680" lon="26.065870">
<ele>163.521606</ele>
<time>2010-07-17T18:13:00Z</time>
<desc>lat.=55.713680, lon.=26.065870, Alt.=163.521606m. Speed=0.072000m/h.</desc>
<speed>0.020000</speed>
</trkpt>
<trkpt lat="55.713680" lon="26.065870">
<ele>163.525513</ele>
<time>2010-07-17T18:13:01Z</time>
<desc>lat.=55.713680, lon.=26.065870, Alt.=163.525513m. Speed=0.036000m/h.</desc>
<speed>0.010000</speed>
</trkpt>
<trkpt lat="55.713680" lon="26.065870">
<ele>163.525513</ele>
<time>2010-07-17T18:13:02Z</time>
<desc>lat.=55.713680, lon.=26.065870, Alt.=163.525513m. Speed=0.144000m/h.</desc>
<speed>0.040000</speed>
</trkpt>
<trkpt lat="55.713680" lon="26.065872">
<ele>163.521606</ele>
<time>2010-07-17T18:13:03Z</time>
<desc>lat.=55.713680, lon.=26.065872, Alt.=163.521606m. Speed=0.036000m/h.</desc>
<speed>0.010000</speed>
</trkpt>
<trkpt lat="55.713680" lon="26.065872">
<ele>163.521606</ele>
<time>2010-07-17T18:13:04Z</time>
<desc>lat.=55.713680, lon.=26.065872, Alt.=163.521606m. Speed=0.000000m/h.</desc>
<speed>0.000000</speed>
</trkpt>
<trkpt lat="55.713680" lon="26.065872">
<ele>163.525513</ele>
<time>2010-07-17T18:13:05Z</time>
<desc>lat.=55.713680, lon.=26.065872, Alt.=163.525513m. Speed=0.072000m/h.</desc>
<speed>0.020000</speed>
</trkpt>
<trkpt lat="55.713680" lon="26.065872">
<ele>163.533325</ele>
<time>2010-07-17T18:13:06Z</time>
<desc>lat.=55.713680, lon.=26.065872, Alt.=163.533325m. Speed=0.036000m/h.</desc>
<speed>0.010000</speed>
</trkpt>
<trkpt lat="55.713680" lon="26.065872">
<ele>163.537231</ele>
<time>2010-07-17T18:13:07Z</time>
<desc>lat.=55.713680, lon.=26.065872, Alt.=163.537231m. Speed=0.036000m/h.</desc>
<speed>0.010000</speed>
</trkpt>
<trkpt lat="55.713680" lon="26.065872">
<ele>163.541138</ele>
<time>2010-07-17T18:13:08Z</time>
<desc>lat.=55.713680, lon.=26.065872, Alt.=163.541138m. Speed=0.036000m/h.</desc>
<speed>0.010000</speed>
</trkpt>
<trkpt lat="55.713680" lon="26.065872">
<ele>163.552856</ele>
<time>2010-07-17T18:13:09Z</time>
<desc>lat.=55.713680, lon.=26.065872, Alt.=163.552856m. Speed=0.036000m/h.</desc>
<speed>0.010000</speed>
</trkpt>
<trkpt lat="55.713680" lon="26.065872">
<ele>163.560669</ele>
<time>2010-07-17T18:13:10Z</time>
<desc>lat.=55.713680, lon.=26.065872, Alt.=163.560669m. Speed=0.036000m/h.</desc>
<speed>0.010000</speed>
</trkpt>
<trkpt lat="55.713680" lon="26.065872">
<ele>163.572388</ele>
<time>2010-07-17T18:13:11Z</time>
<desc>lat.=55.713680, lon.=26.065872, Alt.=163.572388m. Speed=0.036000m/h.</desc>
<speed>0.010000</speed>
</trkpt>
<trkpt lat="55.713680" lon="26.065872">
<ele>163.572388</ele>
<time>2010-07-17T18:13:12Z</time>
<desc>lat.=55.713680, lon.=26.065872, Alt.=163.572388m. Speed=0.036000m/h.</desc>
<speed>0.010000</speed>
</trkpt>
<trkpt lat="55.713680" lon="26.065872">
<ele>163.568481</ele>
<time>2010-07-17T18:13:13Z</time>
<desc>lat.=55.713680, lon.=26.065872, Alt.=163.568481m. Speed=0.000000m/h.</desc>
<speed>0.000000</speed>
</trkpt>
<trkpt lat="55.713680" lon="26.065872">
<ele>163.568481</ele>
<time>2010-07-17T18:13:14Z</time>
<desc>lat.=55.713680, lon.=26.065872, Alt.=163.568481m. Speed=0.000000m/h.</desc>
<speed>0.000000</speed>
</trkpt>
<trkpt lat="55.713680" lon="26.065872">
<ele>163.572388</ele>
<time>2010-07-17T18:13:15Z</time>
<desc>lat.=55.713680, lon.=26.065872, Alt.=163.572388m. Speed=0.036000m/h.</desc>
<speed>0.010000</speed>
</trkpt>
<trkpt lat="55.713676" lon="26.065872">
<ele>163.572388</ele>
<time>2010-07-17T18:13:16Z</time>
<desc>lat.=55.713676, lon.=26.065872, Alt.=163.572388m. Speed=0.000000m/h.</desc>
<speed>0.000000</speed>
</trkpt>
<trkpt lat="55.713676" lon="26.065872">
<ele>163.568481</ele>
<time>2010-07-17T18:13:17Z</time>
<desc>lat.=55.713676, lon.=26.065872, Alt.=163.568481m. Speed=0.072000m/h.</desc>
<speed>0.020000</speed>
</trkpt>
<trkpt lat="55.713676" lon="26.065872">
<ele>163.560669</ele>
<time>2010-07-17T18:13:18Z</time>
<desc>lat.=55.713676, lon.=26.065872, Alt.=163.560669m. Speed=0.072000m/h.</desc>
<speed>0.020000</speed>
</trkpt>
<trkpt lat="55.713676" lon="26.065872">
<ele>163.560669</ele>
<time>2010-07-17T18:13:19Z</time>
<desc>lat.=55.713676, lon.=26.065872, Alt.=163.560669m. Speed=0.036000m/h.</desc>
<speed>0.010000</speed>
</trkpt>
<trkpt lat="55.713676" lon="26.065872">
<ele>163.560669</ele>
<time>2010-07-17T18:13:20Z</time>
<desc>lat.=55.713676, lon.=26.065872, Alt.=163.560669m. Speed=0.108000m/h.</desc>
<speed>0.030000</speed>
</trkpt>
<trkpt lat="55.713676" lon="26.065872">
<ele>163.556763</ele>
<time>2010-07-17T18:13:21Z</time>
<desc>lat.=55.713676, lon.=26.065872, Alt.=163.556763m. Speed=0.036000m/h.</desc>
<speed>0.010000</speed>
</trkpt>
<trkpt lat="55.713676" lon="26.065872">
<ele>163.556763</ele>
<time>2010-07-17T18:13:22Z</time>
<desc>lat.=55.713676, lon.=26.065872, Alt.=163.556763m. Speed=0.072000m/h.</desc>
<speed>0.020000</speed>
</trkpt>
<trkpt lat="55.713676" lon="26.065872">
<ele>163.552856</ele>
<time>2010-07-17T18:13:23Z</time>
<desc>lat.=55.713676, lon.=26.065872, Alt.=163.552856m. Speed=0.036000m/h.</desc>
<speed>0.010000</speed>
</trkpt>
<trkpt lat="55.713676" lon="26.065872">
<ele>163.548950</ele>
<time>2010-07-17T18:13:24Z</time>
<desc>lat.=55.713676, lon.=26.065872, Alt.=163.548950m. Speed=0.108000m/h.</desc>
<speed>0.030000</speed>
</trkpt>
<trkpt lat="55.713676" lon="26.065872">
<ele>163.556763</ele>
<time>2010-07-17T18:13:25Z</time>
<desc>lat.=55.713676, lon.=26.065872, Alt.=163.556763m. Speed=0.072000m/h.</desc>
<speed>0.020000</speed>
</trkpt>
<trkpt lat="55.713676" lon="26.065872">
<ele>163.556763</ele>
<time>2010-07-17T18:13:26Z</time>
<desc>lat.=55.713676, lon.=26.065872, Alt.=163.556763m. Speed=0.000000m/h.</desc>
<speed>0.000000</speed>
</trkpt>
<trkpt lat="55.713676" lon="26.065872">
<ele>163.568481</ele>
<time>2010-07-17T18:13:27Z</time>
<desc>lat.=55.713676, lon.=26.065872, Alt.=163.568481m. Speed=0.108000m/h.</desc>
<speed>0.030000</speed>
</trkpt>
<trkpt lat="55.713680" lon="26.065872">
<ele>163.572388</ele>
<time>2010-07-17T18:13:28Z</time>
<desc>lat.=55.713680, lon.=26.065872, Alt.=163.572388m. Speed=0.108000m/h.</desc>
<speed>0.030000</speed>
</trkpt>
<trkpt lat="55.713680" lon="26.065872">
<ele>163.572388</ele>
<time>2010-07-17T18:13:29Z</time>
<desc>lat.=55.713680, lon.=26.065872, Alt.=163.572388m. Speed=0.036000m/h.</desc>
<speed>0.010000</speed>
</trkpt>
<trkpt lat="55.713680" lon="26.065872">
<ele>163.572388</ele>
<time>2010-07-17T18:13:30Z</time>
<desc>lat.=55.713680, lon.=26.065872, Alt.=163.572388m. Speed=0.072000m/h.</desc>
<speed>0.020000</speed>
</trkpt>
<trkpt lat="55.713680" lon="26.065872">
<ele>163.576294</ele>
<time>2010-07-17T18:13:31Z</time>
<desc>lat.=55.713680, lon.=26.065872, Alt.=163.576294m. Speed=0.036000m/h.</desc>
<speed>0.010000</speed>
</trkpt>
<trkpt lat="55.713680" lon="26.065872">
<ele>163.576294</ele>
<time>2010-07-17T18:13:32Z</time>
<desc>lat.=55.713680, lon.=26.065872, Alt.=163.576294m. Speed=0.036000m/h.</desc>
<speed>0.010000</speed>
</trkpt>
<trkpt lat="55.713680" lon="26.065872">
<ele>163.576294</ele>
<time>2010-07-17T18:13:33Z</time>
<desc>lat.=55.713680, lon.=26.065872, Alt.=163.576294m. Speed=0.036000m/h.</desc>
<speed>0.010000</speed>
</trkpt>
<trkpt lat="55.713680" lon="26.065872">
<ele>163.576294</ele>
<time>2010-07-17T18:13:34Z</time>
<desc>lat.=55.713680, lon.=26.065872, Alt.=163.576294m. Speed=0.072000m/h.</desc>
<speed>0.020000</speed>
</trkpt>
<trkpt lat="55.713680" lon="26.065872">
<ele>163.572388</ele>
<time>2010-07-17T18:13:35Z</time>
<desc>lat.=55.713680, lon.=26.065872, Alt.=163.572388m. Speed=0.000000m/h.</desc>
<speed>0.000000</speed>
</trkpt>
<trkpt lat="55.713680" lon="26.065872">
<ele>163.572388</ele>
<time>2010-07-17T18:13:36Z</time>
<desc>lat.=55.713680, lon.=26.065872, Alt.=163.572388m. Speed=0.000000m/h.</desc>
<speed>0.000000</speed>
</trkpt>
<trkpt lat="55.713680" lon="26.065872">
<ele>163.576294</ele>
<time>2010-07-17T18:13:37Z</time>
<desc>lat.=55.713680, lon.=26.065872, Alt.=163.576294m. Speed=0.000000m/h.</desc>
<speed>0.000000</speed>
</trkpt>
<trkpt lat="55.713680" lon="26.065872">
<ele>163.584106</ele>
<time>2010-07-17T18:13:38Z</time>
<desc>lat.=55.713680, lon.=26.065872, Alt.=163.584106m. Speed=0.072000m/h.</desc>
<speed>0.020000</speed>
</trkpt>
<trkpt lat="55.713680" lon="26.065872">
<ele>163.588013</ele>
<time>2010-07-17T18:13:39Z</time>
<desc>lat.=55.713680, lon.=26.065872, Alt.=163.588013m. Speed=0.072000m/h.</desc>
<speed>0.020000</speed>
</trkpt>
<trkpt lat="55.713680" lon="26.065872">
<ele>163.584106</ele>
<time>2010-07-17T18:13:40Z</time>
<desc>lat.=55.713680, lon.=26.065872, Alt.=163.584106m. Speed=0.036000m/h.</desc>
<speed>0.010000</speed>
</trkpt>
<trkpt lat="55.713680" lon="26.065872">
<ele>163.584106</ele>
<time>2010-07-17T18:13:41Z</time>
<desc>lat.=55.713680, lon.=26.065872, Alt.=163.584106m. Speed=0.036000m/h.</desc>
<speed>0.010000</speed>
</trkpt>
<trkpt lat="55.713680" lon="26.065872">
<ele>163.584106</ele>
<time>2010-07-17T18:13:42Z</time>
<desc>lat.=55.713680, lon.=26.065872, Alt.=163.584106m. Speed=0.036000m/h.</desc>
<speed>0.010000</speed>
</trkpt>
<trkpt lat="55.713680" lon="26.065872">
<ele>163.584106</ele>
<time>2010-07-17T18:13:43Z</time>
<desc>lat.=55.713680, lon.=26.065872, Alt.=163.584106m. Speed=0.000000m/h.</desc>
<speed>0.000000</speed>
</trkpt>
<trkpt lat="55.713680" lon="26.065872">
<ele>163.588013</ele>
<time>2010-07-17T18:13:44Z</time>
<desc>lat.=55.713680, lon.=26.065872, Alt.=163.588013m. Speed=0.072000m/h.</desc>
<speed>0.020000</speed>
</trkpt>
<trkpt lat="55.713680" lon="26.065872">
<ele>163.588013</ele>
<time>2010-07-17T18:13:45Z</time>
<desc>lat.=55.713680, lon.=26.065872, Alt.=163.588013m. Speed=0.072000m/h.</desc>
<speed>0.020000</speed>
</trkpt>
<trkpt lat="55.713680" lon="26.065872">
<ele>163.591919</ele>
<time>2010-07-17T18:13:46Z</time>
<desc>lat.=55.713680, lon.=26.065872, Alt.=163.591919m. Speed=0.144000m/h.</desc>
<speed>0.040000</speed>
</trkpt>
<trkpt lat="55.713680" lon="26.065872">
<ele>163.591919</ele>
<time>2010-07-17T18:13:47Z</time>
<desc>lat.=55.713680, lon.=26.065872, Alt.=163.591919m. Speed=0.072000m/h.</desc>
<speed>0.020000</speed>
</trkpt>
<trkpt lat="55.713680" lon="26.065872">
<ele>163.595825</ele>
<time>2010-07-17T18:13:48Z</time>
<desc>lat.=55.713680, lon.=26.065872, Alt.=163.595825m. Speed=0.108000m/h.</desc>
<speed>0.030000</speed>
</trkpt>
<trkpt lat="55.713680" lon="26.065870">
<ele>163.599731</ele>
<time>2010-07-17T18:13:49Z</time>
<desc>lat.=55.713680, lon.=26.065870, Alt.=163.599731m. Speed=0.072000m/h.</desc>
<speed>0.020000</speed>
</trkpt>
<trkpt lat="55.713680" lon="26.065870">
<ele>163.595825</ele>
<time>2010-07-17T18:13:50Z</time>
<desc>lat.=55.713680, lon.=26.065870, Alt.=163.595825m. Speed=0.072000m/h.</desc>
<speed>0.020000</speed>
</trkpt>
<trkpt lat="55.713680" lon="26.065870">
<ele>163.599731</ele>
<time>2010-07-17T18:13:51Z</time>
<desc>lat.=55.713680, lon.=26.065870, Alt.=163.599731m. Speed=0.036000m/h.</desc>
<speed>0.010000</speed>
</trkpt>
<trkpt lat="55.713680" lon="26.065870">
<ele>163.599731</ele>
<time>2010-07-17T18:13:52Z</time>
<desc>lat.=55.713680, lon.=26.065870, Alt.=163.599731m. Speed=0.000000m/h.</desc>
<speed>0.000000</speed>
</trkpt>
<trkpt lat="55.713680" lon="26.065870">
<ele>163.599731</ele>
<time>2010-07-17T18:13:53Z</time>
<desc>lat.=55.713680, lon.=26.065870, Alt.=163.599731m. Speed=0.000000m/h.</desc>
<speed>0.000000</speed>
</trkpt>
<trkpt lat="55.713680" lon="26.065870">
<ele>163.595825</ele>
<time>2010-07-17T18:13:54Z</time>
<desc>lat.=55.713680, lon.=26.065870, Alt.=163.595825m. Speed=0.036000m/h.</desc>
<speed>0.010000</speed>
</trkpt>
<trkpt lat="55.713680" lon="26.065870">
<ele>163.595825</ele>
<time>2010-07-17T18:13:55Z</time>
<desc>lat.=55.713680, lon.=26.065870, Alt.=163.595825m. Speed=0.036000m/h.</desc>
<speed>0.010000</speed>
</trkpt>
<trkpt lat="55.713680" lon="26.065870">
<ele>163.599731</ele>
<time>2010-07-17T18:13:56Z</time>
<desc>lat.=55.713680, lon.=26.065870, Alt.=163.599731m. Speed=0.108000m/h.</desc>
<speed>0.030000</speed>
</trkpt>
<trkpt lat="55.713680" lon="26.065870">
<ele>163.603638</ele>
<time>2010-07-17T18:13:57Z</time>
<desc>lat.=55.713680, lon.=26.065870, Alt.=163.603638m. Speed=0.000000m/h.</desc>
<speed>0.000000</speed>
</trkpt>
<trkpt lat="55.713680" lon="26.065870">
<ele>163.603638</ele>
<time>2010-07-17T18:13:58Z</time>
<desc>lat.=55.713680, lon.=26.065870, Alt.=163.603638m. Speed=0.072000m/h.</desc>
<speed>0.020000</speed>
</trkpt>
<trkpt lat="55.713680" lon="26.065870">
<ele>163.615356</ele>
<time>2010-07-17T18:13:59Z</time>
<desc>lat.=55.713680, lon.=26.065870, Alt.=163.615356m. Speed=0.036000m/h.</desc>
<speed>0.010000</speed>
</trkpt>
<trkpt lat="55.713680" lon="26.065870">
<ele>163.623169</ele>
<time>2010-07-17T18:14:00Z</time>
<desc>lat.=55.713680, lon.=26.065870, Alt.=163.623169m. Speed=0.072000m/h.</desc>
<speed>0.020000</speed>
</trkpt>
<trkpt lat="55.713680" lon="26.065870">
<ele>163.623169</ele>
<time>2010-07-17T18:14:01Z</time>
<desc>lat.=55.713680, lon.=26.065870, Alt.=163.623169m. Speed=0.036000m/h.</desc>
<speed>0.010000</speed>
</trkpt>
<trkpt lat="55.713680" lon="26.065870">
<ele>163.630981</ele>
<time>2010-07-17T18:14:02Z</time>
<desc>lat.=55.713680, lon.=26.065870, Alt.=163.630981m. Speed=0.072000m/h.</desc>
<speed>0.020000</speed>
</trkpt>
<trkpt lat="55.713680" lon="26.065870">
<ele>163.630981</ele>
<time>2010-07-17T18:14:03Z</time>
<desc>lat.=55.713680, lon.=26.065870, Alt.=163.630981m. Speed=0.108000m/h.</desc>
<speed>0.030000</speed>
</trkpt>
<trkpt lat="55.713680" lon="26.065870">
<ele>163.630981</ele>
<time>2010-07-17T18:14:04Z</time>
<desc>lat.=55.713680, lon.=26.065870, Alt.=163.630981m. Speed=0.036000m/h.</desc>
<speed>0.010000</speed>
</trkpt>
<trkpt lat="55.713680" lon="26.065870">
<ele>163.627075</ele>
<time>2010-07-17T18:14:05Z</time>
<desc>lat.=55.713680, lon.=26.065870, Alt.=163.627075m. Speed=0.108000m/h.</desc>
<speed>0.030000</speed>
</trkpt>
<trkpt lat="55.713680" lon="26.065870">
<ele>163.627075</ele>
<time>2010-07-17T18:14:06Z</time>
<desc>lat.=55.713680, lon.=26.065870, Alt.=163.627075m. Speed=0.036000m/h.</desc>
<speed>0.010000</speed>
</trkpt>
<trkpt lat="55.713680" lon="26.065870">
<ele>163.627075</ele>
<time>2010-07-17T18:14:07Z</time>
<desc>lat.=55.713680, lon.=26.065870, Alt.=163.627075m. Speed=0.072000m/h.</desc>
<speed>0.020000</speed>
</trkpt>
<trkpt lat="55.713680" lon="26.065870">
<ele>163.630981</ele>
<time>2010-07-17T18:14:08Z</time>
<desc>lat.=55.713680, lon.=26.065870, Alt.=163.630981m. Speed=0.036000m/h.</desc>
<speed>0.010000</speed>
</trkpt>
<trkpt lat="55.713680" lon="26.065870">
<ele>163.634888</ele>
<time>2010-07-17T18:14:09Z</time>
<desc>lat.=55.713680, lon.=26.065870, Alt.=163.634888m. Speed=0.036000m/h.</desc>
<speed>0.010000</speed>
</trkpt>
<trkpt lat="55.713680" lon="26.065870">
<ele>163.634888</ele>
<time>2010-07-17T18:14:10Z</time>
<desc>lat.=55.713680, lon.=26.065870, Alt.=163.634888m. Speed=0.000000m/h.</desc>
<speed>0.000000</speed>
</trkpt>
<trkpt lat="55.713680" lon="26.065870">
<ele>163.634888</ele>
<time>2010-07-17T18:14:11Z</time>
<desc>lat.=55.713680, lon.=26.065870, Alt.=163.634888m. Speed=0.000000m/h.</desc>
<speed>0.000000</speed>
</trkpt>
<trkpt lat="55.713680" lon="26.065870">
<ele>163.634888</ele>
<time>2010-07-17T18:14:12Z</time>
<desc>lat.=55.713680, lon.=26.065870, Alt.=163.634888m. Speed=0.036000m/h.</desc>
<speed>0.010000</speed>
</trkpt>
<trkpt lat="55.713680" lon="26.065870">
<ele>163.634888</ele>
<time>2010-07-17T18:14:13Z</time>
<desc>lat.=55.713680, lon.=26.065870, Alt.=163.634888m. Speed=0.036000m/h.</desc>
<speed>0.010000</speed>
</trkpt>
<trkpt lat="55.713680" lon="26.065870">
<ele>163.634888</ele>
<time>2010-07-17T18:14:14Z</time>
<desc>lat.=55.713680, lon.=26.065870, Alt.=163.634888m. Speed=0.000000m/h.</desc>
<speed>0.000000</speed>
</trkpt>
<trkpt lat="55.713680" lon="26.065870">
<ele>163.638794</ele>
<time>2010-07-17T18:14:15Z</time>
<desc>lat.=55.713680, lon.=26.065870, Alt.=163.638794m. Speed=0.072000m/h.</desc>
<speed>0.020000</speed>
</trkpt>
<trkpt lat="55.713680" lon="26.065870">
<ele>163.638794</ele>
<time>2010-07-17T18:14:16Z</time>
<desc>lat.=55.713680, lon.=26.065870, Alt.=163.638794m. Speed=0.036000m/h.</desc>
<speed>0.010000</speed>
</trkpt>
<trkpt lat="55.713680" lon="26.065870">
<ele>163.642700</ele>
<time>2010-07-17T18:14:17Z</time>
<desc>lat.=55.713680, lon.=26.065870, Alt.=163.642700m. Speed=0.036000m/h.</desc>
<speed>0.010000</speed>
</trkpt>
<trkpt lat="55.713680" lon="26.065870">
<ele>163.638794</ele>
<time>2010-07-17T18:14:18Z</time>
<desc>lat.=55.713680, lon.=26.065870, Alt.=163.638794m. Speed=0.000000m/h.</desc>
<speed>0.000000</speed>
</trkpt>
<trkpt lat="55.713680" lon="26.065870">
<ele>163.638794</ele>
<time>2010-07-17T18:14:19Z</time>
<desc>lat.=55.713680, lon.=26.065870, Alt.=163.638794m. Speed=0.036000m/h.</desc>
<speed>0.010000</speed>
</trkpt>
<trkpt lat="55.713680" lon="26.065870">
<ele>163.634888</ele>
<time>2010-07-17T18:14:20Z</time>
<desc>lat.=55.713680, lon.=26.065870, Alt.=163.634888m. Speed=0.072000m/h.</desc>
<speed>0.020000</speed>
</trkpt>
<trkpt lat="55.713680" lon="26.065870">
<ele>163.634888</ele>
<time>2010-07-17T18:14:21Z</time>
<desc>lat.=55.713680, lon.=26.065870, Alt.=163.634888m. Speed=0.000000m/h.</desc>
<speed>0.000000</speed>
</trkpt>
<trkpt lat="55.713680" lon="26.065870">
<ele>163.638794</ele>
<time>2010-07-17T18:14:22Z</time>
<desc>lat.=55.713680, lon.=26.065870, Alt.=163.638794m. Speed=0.072000m/h.</desc>
<speed>0.020000</speed>
</trkpt>
<trkpt lat="55.713680" lon="26.065870">
<ele>163.638794</ele>
<time>2010-07-17T18:14:23Z</time>
<desc>lat.=55.713680, lon.=26.065870, Alt.=163.638794m. Speed=0.000000m/h.</desc>
<speed>0.000000</speed>
</trkpt>
<trkpt lat="55.713680" lon="26.065870">
<ele>163.642700</ele>
<time>2010-07-17T18:14:24Z</time>
<desc>lat.=55.713680, lon.=26.065870, Alt.=163.642700m. Speed=0.000000m/h.</desc>
<speed>0.000000</speed>
</trkpt>
<trkpt lat="55.713680" lon="26.065870">
<ele>163.650513</ele>
<time>2010-07-17T18:14:25Z</time>
<desc>lat.=55.713680, lon.=26.065870, Alt.=163.650513m. Speed=0.036000m/h.</desc>
<speed>0.010000</speed>
</trkpt>
<trkpt lat="55.713680" lon="26.065870">
<ele>163.650513</ele>
<time>2010-07-17T18:14:26Z</time>
<desc>lat.=55.713680, lon.=26.065870, Alt.=163.650513m. Speed=0.000000m/h.</desc>
<speed>0.000000</speed>
</trkpt>
<trkpt lat="55.713680" lon="26.065870">
<ele>163.658325</ele>
<time>2010-07-17T18:14:27Z</time>
<desc>lat.=55.713680, lon.=26.065870, Alt.=163.658325m. Speed=0.072000m/h.</desc>
<speed>0.020000</speed>
</trkpt>
<trkpt lat="55.713680" lon="26.065870">
<ele>163.662231</ele>
<time>2010-07-17T18:14:28Z</time>
<desc>lat.=55.713680, lon.=26.065870, Alt.=163.662231m. Speed=0.000000m/h.</desc>
<speed>0.000000</speed>
</trkpt>
<trkpt lat="55.713680" lon="26.065870">
<ele>163.662231</ele>
<time>2010-07-17T18:14:29Z</time>
<desc>lat.=55.713680, lon.=26.065870, Alt.=163.662231m. Speed=0.000000m/h.</desc>
<speed>0.000000</speed>
</trkpt>
<trkpt lat="55.713680" lon="26.065870">
<ele>163.670044</ele>
<time>2010-07-17T18:14:30Z</time>
<desc>lat.=55.713680, lon.=26.065870, Alt.=163.670044m. Speed=0.036000m/h.</desc>
<speed>0.010000</speed>
</trkpt>
<trkpt lat="55.713680" lon="26.065870">
<ele>163.673950</ele>
<time>2010-07-17T18:14:31Z</time>
<desc>lat.=55.713680, lon.=26.065870, Alt.=163.673950m. Speed=0.072000m/h.</desc>
<speed>0.020000</speed>
</trkpt>
<trkpt lat="55.713680" lon="26.065870">
<ele>163.673950</ele>
<time>2010-07-17T18:14:32Z</time>
<desc>lat.=55.713680, lon.=26.065870, Alt.=163.673950m. Speed=0.000000m/h.</desc>
<speed>0.000000</speed>
</trkpt>
<trkpt lat="55.713680" lon="26.065870">
<ele>163.673950</ele>
<time>2010-07-17T18:14:33Z</time>
<desc>lat.=55.713680, lon.=26.065870, Alt.=163.673950m. Speed=0.036000m/h.</desc>
<speed>0.010000</speed>
</trkpt>
<trkpt lat="55.713680" lon="26.065870">
<ele>163.681763</ele>
<time>2010-07-17T18:14:34Z</time>
<desc>lat.=55.713680, lon.=26.065870, Alt.=163.681763m. Speed=0.036000m/h.</desc>
<speed>0.010000</speed>
</trkpt>
<trkpt lat="55.713680" lon="26.065870">
<ele>163.677856</ele>
<time>2010-07-17T18:14:35Z</time>
<desc>lat.=55.713680, lon.=26.065870, Alt.=163.677856m. Speed=0.000000m/h.</desc>
<speed>0.000000</speed>
</trkpt>
<trkpt lat="55.713680" lon="26.065870">
<ele>163.685669</ele>
<time>2010-07-17T18:14:36Z</time>
<desc>lat.=55.713680, lon.=26.065870, Alt.=163.685669m. Speed=0.036000m/h.</desc>
<speed>0.010000</speed>
</trkpt>
<trkpt lat="55.713680" lon="26.065870">
<ele>163.689575</ele>
<time>2010-07-17T18:14:37Z</time>
<desc>lat.=55.713680, lon.=26.065870, Alt.=163.689575m. Speed=0.036000m/h.</desc>
<speed>0.010000</speed>
</trkpt>
<trkpt lat="55.713680" lon="26.065870">
<ele>163.685669</ele>
<time>2010-07-17T18:14:38Z</time>
<desc>lat.=55.713680, lon.=26.065870, Alt.=163.685669m. Speed=0.036000m/h.</desc>
<speed>0.010000</speed>
</trkpt>
<trkpt lat="55.713680" lon="26.065870">
<ele>163.681763</ele>
<time>2010-07-17T18:14:39Z</time>
<desc>lat.=55.713680, lon.=26.065870, Alt.=163.681763m. Speed=0.072000m/h.</desc>
<speed>0.020000</speed>
</trkpt>
<trkpt lat="55.713680" lon="26.065870">
<ele>163.693481</ele>
<time>2010-07-17T18:14:40Z</time>
<desc>lat.=55.713680, lon.=26.065870, Alt.=163.693481m. Speed=0.036000m/h.</desc>
<speed>0.010000</speed>
</trkpt>
<trkpt lat="55.713680" lon="26.065870">
<ele>163.709106</ele>
<time>2010-07-17T18:14:41Z</time>
<desc>lat.=55.713680, lon.=26.065870, Alt.=163.709106m. Speed=0.000000m/h.</desc>
<speed>0.000000</speed>
</trkpt>
<trkpt lat="55.713680" lon="26.065870">
<ele>163.709106</ele>
<time>2010-07-17T18:14:42Z</time>
<desc>lat.=55.713680, lon.=26.065870, Alt.=163.709106m. Speed=0.036000m/h.</desc>
<speed>0.010000</speed>
</trkpt>
<trkpt lat="55.713680" lon="26.065870">
<ele>163.709106</ele>
<time>2010-07-17T18:14:43Z</time>
<desc>lat.=55.713680, lon.=26.065870, Alt.=163.709106m. Speed=0.036000m/h.</desc>
<speed>0.010000</speed>
</trkpt>
<trkpt lat="55.713680" lon="26.065870">
<ele>163.716919</ele>
<time>2010-07-17T18:14:44Z</time>
<desc>lat.=55.713680, lon.=26.065870, Alt.=163.716919m. Speed=0.072000m/h.</desc>
<speed>0.020000</speed>
</trkpt>
<trkpt lat="55.713680" lon="26.065870">
<ele>163.720825</ele>
<time>2010-07-17T18:14:45Z</time>
<desc>lat.=55.713680, lon.=26.065870, Alt.=163.720825m. Speed=0.000000m/h.</desc>
<speed>0.000000</speed>
</trkpt>
<trkpt lat="55.713680" lon="26.065870">
<ele>163.728638</ele>
<time>2010-07-17T18:14:46Z</time>
<desc>lat.=55.713680, lon.=26.065870, Alt.=163.728638m. Speed=0.000000m/h.</desc>
<speed>0.000000</speed>
</trkpt>
<trkpt lat="55.713680" lon="26.065870">
<ele>163.728638</ele>
<time>2010-07-17T18:14:47Z</time>
<desc>lat.=55.713680, lon.=26.065870, Alt.=163.728638m. Speed=0.072000m/h.</desc>
<speed>0.020000</speed>
</trkpt>
<trkpt lat="55.713680" lon="26.065870">
<ele>163.732544</ele>
<time>2010-07-17T18:14:48Z</time>
<desc>lat.=55.713680, lon.=26.065870, Alt.=163.732544m. Speed=0.036000m/h.</desc>
<speed>0.010000</speed>
</trkpt>
<trkpt lat="55.713676" lon="26.065870">
<ele>163.728638</ele>
<time>2010-07-17T18:14:49Z</time>
<desc>lat.=55.713676, lon.=26.065870, Alt.=163.728638m. Speed=0.108000m/h.</desc>
<speed>0.030000</speed>
</trkpt>
<trkpt lat="55.713676" lon="26.065870">
<ele>163.724731</ele>
<time>2010-07-17T18:14:50Z</time>
<desc>lat.=55.713676, lon.=26.065870, Alt.=163.724731m. Speed=0.072000m/h.</desc>
<speed>0.020000</speed>
</trkpt>
<trkpt lat="55.713676" lon="26.065870">
<ele>163.720825</ele>
<time>2010-07-17T18:14:51Z</time>
<desc>lat.=55.713676, lon.=26.065870, Alt.=163.720825m. Speed=0.072000m/h.</desc>
<speed>0.020000</speed>
</trkpt>
<trkpt lat="55.713676" lon="26.065870">
<ele>163.724731</ele>
<time>2010-07-17T18:14:52Z</time>
<desc>lat.=55.713676, lon.=26.065870, Alt.=163.724731m. Speed=0.108000m/h.</desc>
<speed>0.030000</speed>
</trkpt>
<trkpt lat="55.713676" lon="26.065870">
<ele>163.732544</ele>
<time>2010-07-17T18:14:53Z</time>
<desc>lat.=55.713676, lon.=26.065870, Alt.=163.732544m. Speed=0.828000m/h.</desc>
<speed>0.230000</speed>
</trkpt>
<trkpt lat="55.713676" lon="26.065870">
<ele>163.732544</ele>
<time>2010-07-17T18:14:54Z</time>
<desc>lat.=55.713676, lon.=26.065870, Alt.=163.732544m. Speed=3.096000m/h.</desc>
<speed>0.860000</speed>
</trkpt>
<trkpt lat="55.713661" lon="26.065876">
<ele>164.330200</ele>
<time>2010-07-17T18:14:55Z</time>
<desc>lat.=55.713661, lon.=26.065876, Alt.=164.330200m. Speed=4.752000m/h.</desc>
<speed>1.320000</speed>
</trkpt>
<trkpt lat="55.713646" lon="26.065880">
<ele>164.716919</ele>
<time>2010-07-17T18:14:56Z</time>
<desc>lat.=55.713646, lon.=26.065880, Alt.=164.716919m. Speed=7.164000m/h.</desc>
<speed>1.990000</speed>
</trkpt>
<trkpt lat="55.713623" lon="26.065886">
<ele>165.091919</ele>
<time>2010-07-17T18:14:57Z</time>
<desc>lat.=55.713623, lon.=26.065886, Alt.=165.091919m. Speed=8.172000m/h.</desc>
<speed>2.270000</speed>
</trkpt>
<trkpt lat="55.713600" lon="26.065895">
<ele>165.338013</ele>
<time>2010-07-17T18:14:58Z</time>
<desc>lat.=55.713600, lon.=26.065895, Alt.=165.338013m. Speed=7.740000m/h.</desc>
<speed>2.150000</speed>
</trkpt>
<trkpt lat="55.713573" lon="26.065901">
<ele>165.240356</ele>
<time>2010-07-17T18:14:59Z</time>
<desc>lat.=55.713573, lon.=26.065901, Alt.=165.240356m. Speed=8.064000m/h.</desc>
<speed>2.240000</speed>
</trkpt>
<trkpt lat="55.713554" lon="26.065907">
<ele>165.377075</ele>
<time>2010-07-17T18:15:00Z</time>
<desc>lat.=55.713554, lon.=26.065907, Alt.=165.377075m. Speed=7.992000m/h.</desc>
<speed>2.220000</speed>
</trkpt>
<trkpt lat="55.713531" lon="26.065914">
<ele>165.166138</ele>
<time>2010-07-17T18:15:01Z</time>
<desc>lat.=55.713531, lon.=26.065914, Alt.=165.166138m. Speed=8.460000m/h.</desc>
<speed>2.350000</speed>
</trkpt>
<trkpt lat="55.713512" lon="26.065918">
<ele>164.826294</ele>
<time>2010-07-17T18:15:02Z</time>
<desc>lat.=55.713512, lon.=26.065918, Alt.=164.826294m. Speed=8.316000m/h.</desc>
<speed>2.310000</speed>
</trkpt>
<trkpt lat="55.713490" lon="26.065920">
<ele>164.818481</ele>
<time>2010-07-17T18:15:03Z</time>
<desc>lat.=55.713490, lon.=26.065920, Alt.=164.818481m. Speed=7.452000m/h.</desc>
<speed>2.070000</speed>
</trkpt>
<trkpt lat="55.713467" lon="26.065926">
<ele>164.880981</ele>
<time>2010-07-17T18:15:04Z</time>
<desc>lat.=55.713467, lon.=26.065926, Alt.=164.880981m. Speed=8.568000m/h.</desc>
<speed>2.380000</speed>
</trkpt>
<trkpt lat="55.713440" lon="26.065920">
<ele>165.072388</ele>
<time>2010-07-17T18:15:05Z</time>
<desc>lat.=55.713440, lon.=26.065920, Alt.=165.072388m. Speed=9.396000m/h.</desc>
<speed>2.610000</speed>
</trkpt>
<trkpt lat="55.713417" lon="26.065931">
<ele>165.255981</ele>
<time>2010-07-17T18:15:06Z</time>
<desc>lat.=55.713417, lon.=26.065931, Alt.=165.255981m. Speed=9.396000m/h.</desc>
<speed>2.610000</speed>
</trkpt>
<trkpt lat="55.713394" lon="26.065945">
<ele>165.255981</ele>
<time>2010-07-17T18:15:07Z</time>
<desc>lat.=55.713394, lon.=26.065945, Alt.=165.255981m. Speed=9.612000m/h.</desc>
<speed>2.670000</speed>
</trkpt>
<trkpt lat="55.713367" lon="26.065958">
<ele>165.056763</ele>
<time>2010-07-17T18:15:08Z</time>
<desc>lat.=55.713367, lon.=26.065958, Alt.=165.056763m. Speed=12.240000m/h.</desc>
<speed>3.400000</speed>
</trkpt>
<trkpt lat="55.713333" lon="26.065979">
<ele>164.666138</ele>
<time>2010-07-17T18:15:09Z</time>
<desc>lat.=55.713333, lon.=26.065979, Alt.=164.666138m. Speed=12.744000m/h.</desc>
<speed>3.540000</speed>
</trkpt>
<trkpt lat="55.713295" lon="26.065989">
<ele>164.267700</ele>
<time>2010-07-17T18:15:10Z</time>
<desc>lat.=55.713295, lon.=26.065989, Alt.=164.267700m. Speed=12.708000m/h.</desc>
<speed>3.530000</speed>
</trkpt>
<trkpt lat="55.713264" lon="26.066004">
<ele>164.599731</ele>
<time>2010-07-17T18:15:11Z</time>
<desc>lat.=55.713264, lon.=26.066004, Alt.=164.599731m. Speed=13.932000m/h.</desc>
<speed>3.870000</speed>
</trkpt>
<trkpt lat="55.713238" lon="26.066023">
<ele>164.818481</ele>
<time>2010-07-17T18:15:12Z</time>
<desc>lat.=55.713238, lon.=26.066023, Alt.=164.818481m. Speed=13.284000m/h.</desc>
<speed>3.690000</speed>
</trkpt>
<trkpt lat="55.713207" lon="26.066046">
<ele>166.037231</ele>
<time>2010-07-17T18:15:13Z</time>
<desc>lat.=55.713207, lon.=26.066046, Alt.=166.037231m. Speed=14.256000m/h.</desc>
<speed>3.960000</speed>
</trkpt>
<trkpt lat="55.713173" lon="26.066069">
<ele>166.240356</ele>
<time>2010-07-17T18:15:14Z</time>
<desc>lat.=55.713173, lon.=26.066069, Alt.=166.240356m. Speed=12.960000m/h.</desc>
<speed>3.600000</speed>
</trkpt>
<trkpt lat="55.713142" lon="26.066072">
<ele>166.209106</ele>
<time>2010-07-17T18:15:15Z</time>
<desc>lat.=55.713142, lon.=26.066072, Alt.=166.209106m. Speed=12.132000m/h.</desc>
<speed>3.370000</speed>
</trkpt>
<trkpt lat="55.713112" lon="26.066063">
<ele>166.420044</ele>
<time>2010-07-17T18:15:16Z</time>
<desc>lat.=55.713112, lon.=26.066063, Alt.=166.420044m. Speed=12.132000m/h.</desc>
<speed>3.370000</speed>
</trkpt>
<trkpt lat="55.713081" lon="26.066080">
<ele>166.349731</ele>
<time>2010-07-17T18:15:17Z</time>
<desc>lat.=55.713081, lon.=26.066080, Alt.=166.349731m. Speed=12.780000m/h.</desc>
<speed>3.550000</speed>
</trkpt>
<trkpt lat="55.713047" lon="26.066103">
<ele>165.611450</ele>
<time>2010-07-17T18:15:18Z</time>
<desc>lat.=55.713047, lon.=26.066103, Alt.=165.611450m. Speed=12.528000m/h.</desc>
<speed>3.480000</speed>
</trkpt>
<trkpt lat="55.713020" lon="26.066116">
<ele>165.591919</ele>
<time>2010-07-17T18:15:19Z</time>
<desc>lat.=55.713020, lon.=26.066116, Alt.=165.591919m. Speed=11.412000m/h.</desc>
<speed>3.170000</speed>
</trkpt>
<trkpt lat="55.712994" lon="26.066132">
<ele>165.654419</ele>
<time>2010-07-17T18:15:20Z</time>
<desc>lat.=55.712994, lon.=26.066132, Alt.=165.654419m. Speed=12.312000m/h.</desc>
<speed>3.420000</speed>
</trkpt>
<trkpt lat="55.712959" lon="26.066158">
<ele>164.912231</ele>
<time>2010-07-17T18:15:21Z</time>
<desc>lat.=55.712959, lon.=26.066158, Alt.=164.912231m. Speed=13.284000m/h.</desc>
<speed>3.690000</speed>
</trkpt>
<trkpt lat="55.712925" lon="26.066172">
<ele>165.009888</ele>
<time>2010-07-17T18:15:22Z</time>
<desc>lat.=55.712925, lon.=26.066172, Alt.=165.009888m. Speed=14.112000m/h.</desc>
<speed>3.920000</speed>
</trkpt>
<trkpt lat="55.712883" lon="26.066187">
<ele>164.748169</ele>
<time>2010-07-17T18:15:23Z</time>
<desc>lat.=55.712883, lon.=26.066187, Alt.=164.748169m. Speed=16.632000m/h.</desc>
<speed>4.620000</speed>
</trkpt>
<trkpt lat="55.712837" lon="26.066206">
<ele>164.138794</ele>
<time>2010-07-17T18:15:24Z</time>
<desc>lat.=55.712837, lon.=26.066206, Alt.=164.138794m. Speed=18.323999m/h.</desc>
<speed>5.090000</speed>
</trkpt>
<trkpt lat="55.712791" lon="26.066223">
<ele>163.580200</ele>
<time>2010-07-17T18:15:25Z</time>
<desc>lat.=55.712791, lon.=26.066223, Alt.=163.580200m. Speed=17.712000m/h.</desc>
<speed>4.920000</speed>
</trkpt>
<trkpt lat="55.712746" lon="26.066238">
<ele>163.427856</ele>
<time>2010-07-17T18:15:26Z</time>
<desc>lat.=55.712746, lon.=26.066238, Alt.=163.427856m. Speed=18.431999m/h.</desc>
<speed>5.120000</speed>
</trkpt>
<trkpt lat="55.712696" lon="26.066265">
<ele>163.185669</ele>
<time>2010-07-17T18:15:27Z</time>
<desc>lat.=55.712696, lon.=26.066265, Alt.=163.185669m. Speed=20.916000m/h.</desc>
<speed>5.810000</speed>
</trkpt>
<trkpt lat="55.712643" lon="26.066292">
<ele>163.076294</ele>
<time>2010-07-17T18:15:28Z</time>
<desc>lat.=55.712643, lon.=26.066292, Alt.=163.076294m. Speed=22.680000m/h.</desc>
<speed>6.300000</speed>
</trkpt>
<trkpt lat="55.712589" lon="26.066311">
<ele>162.744263</ele>
<time>2010-07-17T18:15:29Z</time>
<desc>lat.=55.712589, lon.=26.066311, Alt.=162.744263m. Speed=22.247999m/h.</desc>
<speed>6.180000</speed>
</trkpt>
<trkpt lat="55.712540" lon="26.066328">
<ele>162.689575</ele>
<time>2010-07-17T18:15:30Z</time>
<desc>lat.=55.712540, lon.=26.066328, Alt.=162.689575m. Speed=21.708000m/h.</desc>
<speed>6.030000</speed>
</trkpt>
<trkpt lat="55.712490" lon="26.066347">
<ele>162.232544</ele>
<time>2010-07-17T18:15:31Z</time>
<desc>lat.=55.712490, lon.=26.066347, Alt.=162.232544m. Speed=21.167999m/h.</desc>
<speed>5.880000</speed>
</trkpt>
<trkpt lat="55.712429" lon="26.066376">
<ele>161.349731</ele>
<time>2010-07-17T18:15:32Z</time>
<desc>lat.=55.712429, lon.=26.066376, Alt.=161.349731m. Speed=19.115999m/h.</desc>
<speed>5.310000</speed>
</trkpt>
<trkpt lat="55.712372" lon="26.066401">
<ele>160.334106</ele>
<time>2010-07-17T18:15:33Z</time>
<desc>lat.=55.712372, lon.=26.066401, Alt.=160.334106m. Speed=22.032000m/h.</desc>
<speed>6.120000</speed>
</trkpt>
<trkpt lat="55.712315" lon="26.066418">
<ele>159.963013</ele>
<time>2010-07-17T18:15:34Z</time>
<desc>lat.=55.712315, lon.=26.066418, Alt.=159.963013m. Speed=23.076000m/h.</desc>
<speed>6.410000</speed>
</trkpt>
<trkpt lat="55.712257" lon="26.066439">
<ele>159.900513</ele>
<time>2010-07-17T18:15:35Z</time>
<desc>lat.=55.712257, lon.=26.066439, Alt.=159.900513m. Speed=22.680000m/h.</desc>
<speed>6.300000</speed>
</trkpt>
<trkpt lat="55.712208" lon="26.066456">
<ele>159.627075</ele>
<time>2010-07-17T18:15:36Z</time>
<desc>lat.=55.712208, lon.=26.066456, Alt.=159.627075m. Speed=20.232000m/h.</desc>
<speed>5.620000</speed>
</trkpt>
<trkpt lat="55.712162" lon="26.066458">
<ele>160.115356</ele>
<time>2010-07-17T18:15:37Z</time>
<desc>lat.=55.712162, lon.=26.066458, Alt.=160.115356m. Speed=20.556000m/h.</desc>
<speed>5.710000</speed>
</trkpt>
<trkpt lat="55.712109" lon="26.066473">
<ele>159.978638</ele>
<time>2010-07-17T18:15:38Z</time>
<desc>lat.=55.712109, lon.=26.066473, Alt.=159.978638m. Speed=20.700001m/h.</desc>
<speed>5.750000</speed>
</trkpt>
<trkpt lat="55.712055" lon="26.066494">
<ele>159.986450</ele>
<time>2010-07-17T18:15:39Z</time>
<desc>lat.=55.712055, lon.=26.066494, Alt.=159.986450m. Speed=22.247999m/h.</desc>
<speed>6.180000</speed>
</trkpt>
<trkpt lat="55.711998" lon="26.066511">
<ele>159.966919</ele>
<time>2010-07-17T18:15:40Z</time>
<desc>lat.=55.711998, lon.=26.066511, Alt.=159.966919m. Speed=21.851999m/h.</desc>
<speed>6.070000</speed>
</trkpt>
<trkpt lat="55.711952" lon="26.066530">
<ele>160.107544</ele>
<time>2010-07-17T18:15:41Z</time>
<desc>lat.=55.711952, lon.=26.066530, Alt.=160.107544m. Speed=20.448000m/h.</desc>
<speed>5.680000</speed>
</trkpt>
<trkpt lat="55.711903" lon="26.066555">
<ele>160.302856</ele>
<time>2010-07-17T18:15:42Z</time>
<desc>lat.=55.711903, lon.=26.066555, Alt.=160.302856m. Speed=19.764000m/h.</desc>
<speed>5.490000</speed>
</trkpt>
<trkpt lat="55.711853" lon="26.066574">
<ele>160.306763</ele>
<time>2010-07-17T18:15:43Z</time>
<desc>lat.=55.711853, lon.=26.066574, Alt.=160.306763m. Speed=18.900000m/h.</desc>
<speed>5.250000</speed>
</trkpt>
<trkpt lat="55.711803" lon="26.066589">
<ele>160.213013</ele>
<time>2010-07-17T18:15:44Z</time>
<desc>lat.=55.711803, lon.=26.066589, Alt.=160.213013m. Speed=18.648001m/h.</desc>
<speed>5.180000</speed>
</trkpt>
<trkpt lat="55.711754" lon="26.066603">
<ele>160.259888</ele>
<time>2010-07-17T18:15:45Z</time>
<desc>lat.=55.711754, lon.=26.066603, Alt.=160.259888m. Speed=19.080000m/h.</desc>
<speed>5.300000</speed>
</trkpt>
<trkpt lat="55.711700" lon="26.066616">
<ele>160.095825</ele>
<time>2010-07-17T18:15:46Z</time>
<desc>lat.=55.711700, lon.=26.066616, Alt.=160.095825m. Speed=20.160000m/h.</desc>
<speed>5.600000</speed>
</trkpt>
<trkpt lat="55.711647" lon="26.066626">
<ele>159.603638</ele>
<time>2010-07-17T18:15:47Z</time>
<desc>lat.=55.711647, lon.=26.066626, Alt.=159.603638m. Speed=19.548000m/h.</desc>
<speed>5.430000</speed>
</trkpt>
<trkpt lat="55.711594" lon="26.066639">
<ele>159.369263</ele>
<time>2010-07-17T18:15:48Z</time>
<desc>lat.=55.711594, lon.=26.066639, Alt.=159.369263m. Speed=20.448000m/h.</desc>
<speed>5.680000</speed>
</trkpt>
<trkpt lat="55.711540" lon="26.066639">
<ele>159.431763</ele>
<time>2010-07-17T18:15:49Z</time>
<desc>lat.=55.711540, lon.=26.066639, Alt.=159.431763m. Speed=20.879999m/h.</desc>
<speed>5.800000</speed>
</trkpt>
<trkpt lat="55.711487" lon="26.066656">
<ele>159.263794</ele>
<time>2010-07-17T18:15:50Z</time>
<desc>lat.=55.711487, lon.=26.066656, Alt.=159.263794m. Speed=22.176001m/h.</desc>
<speed>6.160000</speed>
</trkpt>
<trkpt lat="55.711422" lon="26.066668">
<ele>158.552856</ele>
<time>2010-07-17T18:15:51Z</time>
<desc>lat.=55.711422, lon.=26.066668, Alt.=158.552856m. Speed=21.996000m/h.</desc>
<speed>6.110000</speed>
</trkpt>
<trkpt lat="55.711369" lon="26.066689">
<ele>158.103638</ele>
<time>2010-07-17T18:15:52Z</time>
<desc>lat.=55.711369, lon.=26.066689, Alt.=158.103638m. Speed=23.364000m/h.</desc>
<speed>6.490000</speed>
</trkpt>
<trkpt lat="55.711315" lon="26.066700">
<ele>157.689575</ele>
<time>2010-07-17T18:15:53Z</time>
<desc>lat.=55.711315, lon.=26.066700, Alt.=157.689575m. Speed=21.420000m/h.</desc>
<speed>5.950000</speed>
</trkpt>
<trkpt lat="55.711262" lon="26.066715">
<ele>157.556763</ele>
<time>2010-07-17T18:15:54Z</time>
<desc>lat.=55.711262, lon.=26.066715, Alt.=157.556763m. Speed=21.888000m/h.</desc>
<speed>6.080000</speed>
</trkpt>
<trkpt lat="55.711212" lon="26.066723">
<ele>157.037231</ele>
<time>2010-07-17T18:15:55Z</time>
<desc>lat.=55.711212, lon.=26.066723, Alt.=157.037231m. Speed=19.548000m/h.</desc>
<speed>5.430000</speed>
</trkpt>
<trkpt lat="55.711166" lon="26.066734">
<ele>156.838013</ele>
<time>2010-07-17T18:15:56Z</time>
<desc>lat.=55.711166, lon.=26.066734, Alt.=156.838013m. Speed=17.496000m/h.</desc>
<speed>4.860000</speed>
</trkpt>
<trkpt lat="55.711121" lon="26.066751">
<ele>157.052856</ele>
<time>2010-07-17T18:15:57Z</time>
<desc>lat.=55.711121, lon.=26.066751, Alt.=157.052856m. Speed=17.316000m/h.</desc>
<speed>4.810000</speed>
</trkpt>
<trkpt lat="55.711082" lon="26.066771">
<ele>157.451294</ele>
<time>2010-07-17T18:15:58Z</time>
<desc>lat.=55.711082, lon.=26.066771, Alt.=157.451294m. Speed=16.128000m/h.</desc>
<speed>4.480000</speed>
</trkpt>
<trkpt lat="55.711048" lon="26.066788">
<ele>157.947388</ele>
<time>2010-07-17T18:15:59Z</time>
<desc>lat.=55.711048, lon.=26.066788, Alt.=157.947388m. Speed=10.764000m/h.</desc>
<speed>2.990000</speed>
</trkpt>
<trkpt lat="55.711025" lon="26.066797">
<ele>158.037231</ele>
<time>2010-07-17T18:16:00Z</time>
<desc>lat.=55.711025, lon.=26.066797, Alt.=158.037231m. Speed=9.144000m/h.</desc>
<speed>2.540000</speed>
</trkpt>
<trkpt lat="55.710999" lon="26.066801">
<ele>157.951294</ele>
<time>2010-07-17T18:16:01Z</time>
<desc>lat.=55.710999, lon.=26.066801, Alt.=157.951294m. Speed=11.556000m/h.</desc>
<speed>3.210000</speed>
</trkpt>
<trkpt lat="55.710968" lon="26.066813">
<ele>158.185669</ele>
<time>2010-07-17T18:16:02Z</time>
<desc>lat.=55.710968, lon.=26.066813, Alt.=158.185669m. Speed=10.584000m/h.</desc>
<speed>2.940000</speed>
</trkpt>
<trkpt lat="55.710938" lon="26.066832">
<ele>158.248169</ele>
<time>2010-07-17T18:16:03Z</time>
<desc>lat.=55.710938, lon.=26.066832, Alt.=158.248169m. Speed=11.592000m/h.</desc>
<speed>3.220000</speed>
</trkpt>
<trkpt lat="55.710903" lon="26.066854">
<ele>158.052856</ele>
<time>2010-07-17T18:16:04Z</time>
<desc>lat.=55.710903, lon.=26.066854, Alt.=158.052856m. Speed=13.824000m/h.</desc>
<speed>3.840000</speed>
</trkpt>
<trkpt lat="55.710869" lon="26.066870">
<ele>158.017700</ele>
<time>2010-07-17T18:16:05Z</time>
<desc>lat.=55.710869, lon.=26.066870, Alt.=158.017700m. Speed=13.068000m/h.</desc>
<speed>3.630000</speed>
</trkpt>
<trkpt lat="55.710827" lon="26.066898">
<ele>157.291138</ele>
<time>2010-07-17T18:16:06Z</time>
<desc>lat.=55.710827, lon.=26.066898, Alt.=157.291138m. Speed=15.876000m/h.</desc>
<speed>4.410000</speed>
</trkpt>
<trkpt lat="55.710789" lon="26.066910">
<ele>157.365356</ele>
<time>2010-07-17T18:16:07Z</time>
<desc>lat.=55.710789, lon.=26.066910, Alt.=157.365356m. Speed=14.436000m/h.</desc>
<speed>4.010000</speed>
</trkpt>
<trkpt lat="55.710739" lon="26.066910">
<ele>157.627075</ele>
<time>2010-07-17T18:16:08Z</time>
<desc>lat.=55.710739, lon.=26.066910, Alt.=157.627075m. Speed=16.740000m/h.</desc>
<speed>4.650000</speed>
</trkpt>
<trkpt lat="55.710701" lon="26.066916">
<ele>157.685669</ele>
<time>2010-07-17T18:16:09Z</time>
<desc>lat.=55.710701, lon.=26.066916, Alt.=157.685669m. Speed=12.852000m/h.</desc>
<speed>3.570000</speed>
</trkpt>
<trkpt lat="55.710667" lon="26.066910">
<ele>157.529419</ele>
<time>2010-07-17T18:16:10Z</time>
<desc>lat.=55.710667, lon.=26.066910, Alt.=157.529419m. Speed=12.672000m/h.</desc>
<speed>3.520000</speed>
</trkpt>
<trkpt lat="55.710625" lon="26.066912">
<ele>157.201294</ele>
<time>2010-07-17T18:16:11Z</time>
<desc>lat.=55.710625, lon.=26.066912, Alt.=157.201294m. Speed=15.156000m/h.</desc>
<speed>4.210000</speed>
</trkpt>
<trkpt lat="55.710587" lon="26.066914">
<ele>157.298950</ele>
<time>2010-07-17T18:16:12Z</time>
<desc>lat.=55.710587, lon.=26.066914, Alt.=157.298950m. Speed=14.292000m/h.</desc>
<speed>3.970000</speed>
</trkpt>
<trkpt lat="55.710537" lon="26.066925">
<ele>156.431763</ele>
<time>2010-07-17T18:16:13Z</time>
<desc>lat.=55.710537, lon.=26.066925, Alt.=156.431763m. Speed=14.508000m/h.</desc>
<speed>4.030000</speed>
</trkpt>
<trkpt lat="55.710487" lon="26.066938">
<ele>155.177856</ele>
<time>2010-07-17T18:16:14Z</time>
<desc>lat.=55.710487, lon.=26.066938, Alt.=155.177856m. Speed=14.256000m/h.</desc>
<speed>3.960000</speed>
</trkpt>
<trkpt lat="55.710430" lon="26.066957">
<ele>155.213013</ele>
<time>2010-07-17T18:16:15Z</time>
<desc>lat.=55.710430, lon.=26.066957, Alt.=155.213013m. Speed=15.156000m/h.</desc>
<speed>4.210000</speed>
</trkpt>
<trkpt lat="55.710377" lon="26.066990">
<ele>154.423950</ele>
<time>2010-07-17T18:16:16Z</time>
<desc>lat.=55.710377, lon.=26.066990, Alt.=154.423950m. Speed=18.612000m/h.</desc>
<speed>5.170000</speed>
</trkpt>
<trkpt lat="55.710323" lon="26.067017">
<ele>154.220825</ele>
<time>2010-07-17T18:16:17Z</time>
<desc>lat.=55.710323, lon.=26.067017, Alt.=154.220825m. Speed=20.124001m/h.</desc>
<speed>5.590000</speed>
</trkpt>
<trkpt lat="55.710258" lon="26.067057">
<ele>152.869263</ele>
<time>2010-07-17T18:16:18Z</time>
<desc>lat.=55.710258, lon.=26.067057, Alt.=152.869263m. Speed=21.312000m/h.</desc>
<speed>5.920000</speed>
</trkpt>
<trkpt lat="55.710201" lon="26.067089">
<ele>151.775513</ele>
<time>2010-07-17T18:16:19Z</time>
<desc>lat.=55.710201, lon.=26.067089, Alt.=151.775513m. Speed=21.348000m/h.</desc>
<speed>5.930000</speed>
</trkpt>
<trkpt lat="55.710140" lon="26.067129">
<ele>151.029419</ele>
<time>2010-07-17T18:16:20Z</time>
<desc>lat.=55.710140, lon.=26.067129, Alt.=151.029419m. Speed=20.520000m/h.</desc>
<speed>5.700000</speed>
</trkpt>
<trkpt lat="55.710079" lon="26.067163">
<ele>150.529419</ele>
<time>2010-07-17T18:16:21Z</time>
<desc>lat.=55.710079, lon.=26.067163, Alt.=150.529419m. Speed=22.931999m/h.</desc>
<speed>6.370000</speed>
</trkpt>
<trkpt lat="55.710018" lon="26.067194">
<ele>150.302856</ele>
<time>2010-07-17T18:16:22Z</time>
<desc>lat.=55.710018, lon.=26.067194, Alt.=150.302856m. Speed=23.400000m/h.</desc>
<speed>6.500000</speed>
</trkpt>
<trkpt lat="55.709965" lon="26.067217">
<ele>149.689575</ele>
<time>2010-07-17T18:16:23Z</time>
<desc>lat.=55.709965, lon.=26.067217, Alt.=149.689575m. Speed=19.476000m/h.</desc>
<speed>5.410000</speed>
</trkpt>
<trkpt lat="55.709911" lon="26.067255">
<ele>149.080200</ele>
<time>2010-07-17T18:16:24Z</time>
<desc>lat.=55.709911, lon.=26.067255, Alt.=149.080200m. Speed=19.944000m/h.</desc>
<speed>5.540000</speed>
</trkpt>
<trkpt lat="55.709858" lon="26.067270">
<ele>148.505981</ele>
<time>2010-07-17T18:16:25Z</time>
<desc>lat.=55.709858, lon.=26.067270, Alt.=148.505981m. Speed=18.936001m/h.</desc>
<speed>5.260000</speed>
</trkpt>
<trkpt lat="55.709789" lon="26.067301">
<ele>147.904419</ele>
<time>2010-07-17T18:16:26Z</time>
<desc>lat.=55.709789, lon.=26.067301, Alt.=147.904419m. Speed=21.528000m/h.</desc>
<speed>5.980000</speed>
</trkpt>
<trkpt lat="55.709736" lon="26.067324">
<ele>147.197388</ele>
<time>2010-07-17T18:16:27Z</time>
<desc>lat.=55.709736, lon.=26.067324, Alt.=147.197388m. Speed=20.304001m/h.</desc>
<speed>5.640000</speed>
</trkpt>
<trkpt lat="55.709682" lon="26.067337">
<ele>147.111450</ele>
<time>2010-07-17T18:16:28Z</time>
<desc>lat.=55.709682, lon.=26.067337, Alt.=147.111450m. Speed=18.936001m/h.</desc>
<speed>5.260000</speed>
</trkpt>
<trkpt lat="55.709637" lon="26.067343">
<ele>146.548950</ele>
<time>2010-07-17T18:16:29Z</time>
<desc>lat.=55.709637, lon.=26.067343, Alt.=146.548950m. Speed=15.660000m/h.</desc>
<speed>4.350000</speed>
</trkpt>
<trkpt lat="55.709595" lon="26.067345">
<ele>146.099731</ele>
<time>2010-07-17T18:16:30Z</time>
<desc>lat.=55.709595, lon.=26.067345, Alt.=146.099731m. Speed=15.228000m/h.</desc>
<speed>4.230000</speed>
</trkpt>
<trkpt lat="55.709545" lon="26.067358">
<ele>146.158325</ele>
<time>2010-07-17T18:16:31Z</time>
<desc>lat.=55.709545, lon.=26.067358, Alt.=146.158325m. Speed=16.091999m/h.</desc>
<speed>4.470000</speed>
</trkpt>
<trkpt lat="55.709492" lon="26.067369">
<ele>147.005981</ele>
<time>2010-07-17T18:16:32Z</time>
<desc>lat.=55.709492, lon.=26.067369, Alt.=147.005981m. Speed=16.667999m/h.</desc>
<speed>4.630000</speed>
</trkpt>
<trkpt lat="55.709450" lon="26.067383">
<ele>146.857544</ele>
<time>2010-07-17T18:16:33Z</time>
<desc>lat.=55.709450, lon.=26.067383, Alt.=146.857544m. Speed=14.256000m/h.</desc>
<speed>3.960000</speed>
</trkpt>
<trkpt lat="55.709408" lon="26.067398">
<ele>146.584106</ele>
<time>2010-07-17T18:16:34Z</time>
<desc>lat.=55.709408, lon.=26.067398, Alt.=146.584106m. Speed=14.652000m/h.</desc>
<speed>4.070000</speed>
</trkpt>
<trkpt lat="55.709362" lon="26.067411">
<ele>146.521606</ele>
<time>2010-07-17T18:16:35Z</time>
<desc>lat.=55.709362, lon.=26.067411, Alt.=146.521606m. Speed=15.984000m/h.</desc>
<speed>4.440000</speed>
</trkpt>
<trkpt lat="55.709324" lon="26.067406">
<ele>146.322388</ele>
<time>2010-07-17T18:16:36Z</time>
<desc>lat.=55.709324, lon.=26.067406, Alt.=146.322388m. Speed=12.096000m/h.</desc>
<speed>3.360000</speed>
</trkpt>
<trkpt lat="55.709286" lon="26.067404">
<ele>146.002075</ele>
<time>2010-07-17T18:16:37Z</time>
<desc>lat.=55.709286, lon.=26.067404, Alt.=146.002075m. Speed=13.176000m/h.</desc>
<speed>3.660000</speed>
</trkpt>
<trkpt lat="55.709232" lon="26.067406">
<ele>146.228638</ele>
<time>2010-07-17T18:16:38Z</time>
<desc>lat.=55.709232, lon.=26.067406, Alt.=146.228638m. Speed=13.464000m/h.</desc>
<speed>3.740000</speed>
</trkpt>
<trkpt lat="55.709190" lon="26.067415">
<ele>145.736450</ele>
<time>2010-07-17T18:16:39Z</time>
<desc>lat.=55.709190, lon.=26.067415, Alt.=145.736450m. Speed=12.996000m/h.</desc>
<speed>3.610000</speed>
</trkpt>
<trkpt lat="55.709148" lon="26.067419">
<ele>145.302856</ele>
<time>2010-07-17T18:16:40Z</time>
<desc>lat.=55.709148, lon.=26.067419, Alt.=145.302856m. Speed=12.780000m/h.</desc>
<speed>3.550000</speed>
</trkpt>
<trkpt lat="55.709106" lon="26.067415">
<ele>144.939575</ele>
<time>2010-07-17T18:16:41Z</time>
<desc>lat.=55.709106, lon.=26.067415, Alt.=144.939575m. Speed=10.584000m/h.</desc>
<speed>2.940000</speed>
</trkpt>
<trkpt lat="55.709061" lon="26.067404">
<ele>143.748169</ele>
<time>2010-07-17T18:16:42Z</time>
<desc>lat.=55.709061, lon.=26.067404, Alt.=143.748169m. Speed=13.320000m/h.</desc>
<speed>3.700000</speed>
</trkpt>
<trkpt lat="55.709030" lon="26.067398">
<ele>143.291138</ele>
<time>2010-07-17T18:16:43Z</time>
<desc>lat.=55.709030, lon.=26.067398, Alt.=143.291138m. Speed=9.648000m/h.</desc>
<speed>2.680000</speed>
</trkpt>
<trkpt lat="55.708992" lon="26.067400">
<ele>143.494263</ele>
<time>2010-07-17T18:16:44Z</time>
<desc>lat.=55.708992, lon.=26.067400, Alt.=143.494263m. Speed=9.684000m/h.</desc>
<speed>2.690000</speed>
</trkpt>
<trkpt lat="55.708961" lon="26.067373">
<ele>143.689575</ele>
<time>2010-07-17T18:16:45Z</time>
<desc>lat.=55.708961, lon.=26.067373, Alt.=143.689575m. Speed=12.744000m/h.</desc>
<speed>3.540000</speed>
</trkpt>
<trkpt lat="55.708927" lon="26.067345">
<ele>144.162231</ele>
<time>2010-07-17T18:16:46Z</time>
<desc>lat.=55.708927, lon.=26.067345, Alt.=144.162231m. Speed=11.628000m/h.</desc>
<speed>3.230000</speed>
</trkpt>
<trkpt lat="55.708897" lon="26.067322">
<ele>144.345825</ele>
<time>2010-07-17T18:16:47Z</time>
<desc>lat.=55.708897, lon.=26.067322, Alt.=144.345825m. Speed=10.548000m/h.</desc>
<speed>2.930000</speed>
</trkpt>
<trkpt lat="55.708870" lon="26.067297">
<ele>144.181763</ele>
<time>2010-07-17T18:16:48Z</time>
<desc>lat.=55.708870, lon.=26.067297, Alt.=144.181763m. Speed=9.036000m/h.</desc>
<speed>2.510000</speed>
</trkpt>
<trkpt lat="55.708851" lon="26.067278">
<ele>144.150513</ele>
<time>2010-07-17T18:16:49Z</time>
<desc>lat.=55.708851, lon.=26.067278, Alt.=144.150513m. Speed=8.028000m/h.</desc>
<speed>2.230000</speed>
</trkpt>
<trkpt lat="55.708832" lon="26.067263">
<ele>144.255981</ele>
<time>2010-07-17T18:16:50Z</time>
<desc>lat.=55.708832, lon.=26.067263, Alt.=144.255981m. Speed=8.316000m/h.</desc>
<speed>2.310000</speed>
</trkpt>
<trkpt lat="55.708797" lon="26.067205">
<ele>143.248169</ele>
<time>2010-07-17T18:16:51Z</time>
<desc>lat.=55.708797, lon.=26.067205, Alt.=143.248169m. Speed=11.052000m/h.</desc>
<speed>3.070000</speed>
</trkpt>
<trkpt lat="55.708759" lon="26.067171">
<ele>142.525513</ele>
<time>2010-07-17T18:16:52Z</time>
<desc>lat.=55.708759, lon.=26.067171, Alt.=142.525513m. Speed=10.908000m/h.</desc>
<speed>3.030000</speed>
</trkpt>
<trkpt lat="55.708721" lon="26.067139">
<ele>141.763794</ele>
<time>2010-07-17T18:16:53Z</time>
<desc>lat.=55.708721, lon.=26.067139, Alt.=141.763794m. Speed=10.080000m/h.</desc>
<speed>2.800000</speed>
</trkpt>
<trkpt lat="55.708698" lon="26.067123">
<ele>141.650513</ele>
<time>2010-07-17T18:16:54Z</time>
<desc>lat.=55.708698, lon.=26.067123, Alt.=141.650513m. Speed=7.776000m/h.</desc>
<speed>2.160000</speed>
</trkpt>
<trkpt lat="55.708656" lon="26.067116">
<ele>142.111450</ele>
<time>2010-07-17T18:16:55Z</time>
<desc>lat.=55.708656, lon.=26.067116, Alt.=142.111450m. Speed=7.416000m/h.</desc>
<speed>2.060000</speed>
</trkpt>
<trkpt lat="55.708633" lon="26.067123">
<ele>141.939575</ele>
<time>2010-07-17T18:16:56Z</time>
<desc>lat.=55.708633, lon.=26.067123, Alt.=141.939575m. Speed=4.248000m/h.</desc>
<speed>1.180000</speed>
</trkpt>
<trkpt lat="55.708614" lon="26.067125">
<ele>141.443481</ele>
<time>2010-07-17T18:16:57Z</time>
<desc>lat.=55.708614, lon.=26.067125, Alt.=141.443481m. Speed=3.168000m/h.</desc>
<speed>0.880000</speed>
</trkpt>
<trkpt lat="55.708599" lon="26.067118">
<ele>141.025513</ele>
<time>2010-07-17T18:16:58Z</time>
<desc>lat.=55.708599, lon.=26.067118, Alt.=141.025513m. Speed=5.436000m/h.</desc>
<speed>1.510000</speed>
</trkpt>
<trkpt lat="55.708553" lon="26.067095">
<ele>139.830200</ele>
<time>2010-07-17T18:16:59Z</time>
<desc>lat.=55.708553, lon.=26.067095, Alt.=139.830200m. Speed=10.404000m/h.</desc>
<speed>2.890000</speed>
</trkpt>
<trkpt lat="55.708523" lon="26.067072">
<ele>139.720825</ele>
<time>2010-07-17T18:17:00Z</time>
<desc>lat.=55.708523, lon.=26.067072, Alt.=139.720825m. Speed=10.476000m/h.</desc>
<speed>2.910000</speed>
</trkpt>
<trkpt lat="55.708500" lon="26.067039">
<ele>140.338013</ele>
<time>2010-07-17T18:17:01Z</time>
<desc>lat.=55.708500, lon.=26.067039, Alt.=140.338013m. Speed=8.460000m/h.</desc>
<speed>2.350000</speed>
</trkpt>
<trkpt lat="55.708469" lon="26.067013">
<ele>140.400513</ele>
<time>2010-07-17T18:17:02Z</time>
<desc>lat.=55.708469, lon.=26.067013, Alt.=140.400513m. Speed=6.480000m/h.</desc>
<speed>1.800000</speed>
</trkpt>
<trkpt lat="55.708447" lon="26.066984">
<ele>140.076294</ele>
<time>2010-07-17T18:17:03Z</time>
<desc>lat.=55.708447, lon.=26.066984, Alt.=140.076294m. Speed=3.996000m/h.</desc>
<speed>1.110000</speed>
</trkpt>
<trkpt lat="55.708416" lon="26.066986">
<ele>141.029419</ele>
<time>2010-07-17T18:17:04Z</time>
<desc>lat.=55.708416, lon.=26.066986, Alt.=141.029419m. Speed=6.156000m/h.</desc>
<speed>1.710000</speed>
</trkpt>
<trkpt lat="55.708397" lon="26.066992">
<ele>140.986450</ele>
<time>2010-07-17T18:17:05Z</time>
<desc>lat.=55.708397, lon.=26.066992, Alt.=140.986450m. Speed=7.596000m/h.</desc>
<speed>2.110000</speed>
</trkpt>
<trkpt lat="55.708366" lon="26.066994">
<ele>140.658325</ele>
<time>2010-07-17T18:17:06Z</time>
<desc>lat.=55.708366, lon.=26.066994, Alt.=140.658325m. Speed=10.008000m/h.</desc>
<speed>2.780000</speed>
</trkpt>
<trkpt lat="55.708344" lon="26.066988">
<ele>140.377075</ele>
<time>2010-07-17T18:17:07Z</time>
<desc>lat.=55.708344, lon.=26.066988, Alt.=140.377075m. Speed=8.028000m/h.</desc>
<speed>2.230000</speed>
</trkpt>
<trkpt lat="55.708328" lon="26.066986">
<ele>140.814575</ele>
<time>2010-07-17T18:17:08Z</time>
<desc>lat.=55.708328, lon.=26.066986, Alt.=140.814575m. Speed=2.808000m/h.</desc>
<speed>0.780000</speed>
</trkpt>
<trkpt lat="55.708313" lon="26.066982">
<ele>141.455200</ele>
<time>2010-07-17T18:17:09Z</time>
<desc>lat.=55.708313, lon.=26.066982, Alt.=141.455200m. Speed=1.800000m/h.</desc>
<speed>0.500000</speed>
</trkpt>
<trkpt lat="55.708294" lon="26.066990">
<ele>141.326294</ele>
<time>2010-07-17T18:17:10Z</time>
<desc>lat.=55.708294, lon.=26.066990, Alt.=141.326294m. Speed=7.668000m/h.</desc>
<speed>2.130000</speed>
</trkpt>
<trkpt lat="55.708260" lon="26.066992">
<ele>141.470825</ele>
<time>2010-07-17T18:17:11Z</time>
<desc>lat.=55.708260, lon.=26.066992, Alt.=141.470825m. Speed=9.396000m/h.</desc>
<speed>2.610000</speed>
</trkpt>
<trkpt lat="55.708221" lon="26.066975">
<ele>141.716919</ele>
<time>2010-07-17T18:17:12Z</time>
<desc>lat.=55.708221, lon.=26.066975, Alt.=141.716919m. Speed=14.472000m/h.</desc>
<speed>4.020000</speed>
</trkpt>
<trkpt lat="55.708187" lon="26.066959">
<ele>141.771606</ele>
<time>2010-07-17T18:17:13Z</time>
<desc>lat.=55.708187, lon.=26.066959, Alt.=141.771606m. Speed=14.796000m/h.</desc>
<speed>4.110000</speed>
</trkpt>
<trkpt lat="55.708130" lon="26.066975">
<ele>142.080200</ele>
<time>2010-07-17T18:17:14Z</time>
<desc>lat.=55.708130, lon.=26.066975, Alt.=142.080200m. Speed=17.063999m/h.</desc>
<speed>4.740000</speed>
</trkpt>
<trkpt lat="55.708088" lon="26.066948">
<ele>142.732544</ele>
<time>2010-07-17T18:17:15Z</time>
<desc>lat.=55.708088, lon.=26.066948, Alt.=142.732544m. Speed=13.284000m/h.</desc>
<speed>3.690000</speed>
</trkpt>
<trkpt lat="55.708038" lon="26.066904">
<ele>142.970825</ele>
<time>2010-07-17T18:17:16Z</time>
<desc>lat.=55.708038, lon.=26.066904, Alt.=142.970825m. Speed=17.172001m/h.</desc>
<speed>4.770000</speed>
</trkpt>
<trkpt lat="55.707993" lon="26.066854">
<ele>143.080200</ele>
<time>2010-07-17T18:17:17Z</time>
<desc>lat.=55.707993, lon.=26.066854, Alt.=143.080200m. Speed=21.204000m/h.</desc>
<speed>5.890000</speed>
</trkpt>
<trkpt lat="55.707951" lon="26.066811">
<ele>143.205200</ele>
<time>2010-07-17T18:17:18Z</time>
<desc>lat.=55.707951, lon.=26.066811, Alt.=143.205200m. Speed=16.236000m/h.</desc>
<speed>4.510000</speed>
</trkpt>
<trkpt lat="55.707916" lon="26.066778">
<ele>143.255981</ele>
<time>2010-07-17T18:17:19Z</time>
<desc>lat.=55.707916, lon.=26.066778, Alt.=143.255981m. Speed=12.744000m/h.</desc>
<speed>3.540000</speed>
</trkpt>
<trkpt lat="55.707878" lon="26.066757">
<ele>142.912231</ele>
<time>2010-07-17T18:17:20Z</time>
<desc>lat.=55.707878, lon.=26.066757, Alt.=142.912231m. Speed=10.728000m/h.</desc>
<speed>2.980000</speed>
</trkpt>
<trkpt lat="55.707836" lon="26.066727">
<ele>142.361450</ele>
<time>2010-07-17T18:17:21Z</time>
<desc>lat.=55.707836, lon.=26.066727, Alt.=142.361450m. Speed=15.192000m/h.</desc>
<speed>4.220000</speed>
</trkpt>
<trkpt lat="55.707787" lon="26.066694">
<ele>140.943481</ele>
<time>2010-07-17T18:17:22Z</time>
<desc>lat.=55.707787, lon.=26.066694, Alt.=140.943481m. Speed=18.648001m/h.</desc>
<speed>5.180000</speed>
</trkpt>
<trkpt lat="55.707733" lon="26.066675">
<ele>140.361450</ele>
<time>2010-07-17T18:17:23Z</time>
<desc>lat.=55.707733, lon.=26.066675, Alt.=140.361450m. Speed=17.316000m/h.</desc>
<speed>4.810000</speed>
</trkpt>
<trkpt lat="55.707680" lon="26.066664">
<ele>139.060669</ele>
<time>2010-07-17T18:17:24Z</time>
<desc>lat.=55.707680, lon.=26.066664, Alt.=139.060669m. Speed=18.936001m/h.</desc>
<speed>5.260000</speed>
</trkpt>
<trkpt lat="55.707623" lon="26.066641">
<ele>137.771606</ele>
<time>2010-07-17T18:17:25Z</time>
<desc>lat.=55.707623, lon.=26.066641, Alt.=137.771606m. Speed=17.136000m/h.</desc>
<speed>4.760000</speed>
</trkpt>
<trkpt lat="55.707550" lon="26.066658">
<ele>136.295044</ele>
<time>2010-07-17T18:17:26Z</time>
<desc>lat.=55.707550, lon.=26.066658, Alt.=136.295044m. Speed=21.492001m/h.</desc>
<speed>5.970000</speed>
</trkpt>
<trkpt lat="55.707481" lon="26.066681">
<ele>135.494263</ele>
<time>2010-07-17T18:17:27Z</time>
<desc>lat.=55.707481, lon.=26.066681, Alt.=135.494263m. Speed=20.879999m/h.</desc>
<speed>5.800000</speed>
</trkpt>
<trkpt lat="55.707417" lon="26.066708">
<ele>134.681763</ele>
<time>2010-07-17T18:17:28Z</time>
<desc>lat.=55.707417, lon.=26.066708, Alt.=134.681763m. Speed=20.700001m/h.</desc>
<speed>5.750000</speed>
</trkpt>
<trkpt lat="55.707344" lon="26.066761">
<ele>133.431763</ele>
<time>2010-07-17T18:17:29Z</time>
<desc>lat.=55.707344, lon.=26.066761, Alt.=133.431763m. Speed=23.760000m/h.</desc>
<speed>6.600000</speed>
</trkpt>
<trkpt lat="55.707249" lon="26.066832">
<ele>131.193481</ele>
<time>2010-07-17T18:17:30Z</time>
<desc>lat.=55.707249, lon.=26.066832, Alt.=131.193481m. Speed=25.667999m/h.</desc>
<speed>7.130000</speed>
</trkpt>
<trkpt lat="55.707180" lon="26.066893">
<ele>129.939575</ele>
<time>2010-07-17T18:17:31Z</time>
<desc>lat.=55.707180, lon.=26.066893, Alt.=129.939575m. Speed=22.931999m/h.</desc>
<speed>6.370000</speed>
</trkpt>
<trkpt lat="55.707111" lon="26.066929">
<ele>128.822388</ele>
<time>2010-07-17T18:17:32Z</time>
<desc>lat.=55.707111, lon.=26.066929, Alt.=128.822388m. Speed=23.507999m/h.</desc>
<speed>6.530000</speed>
</trkpt>
<trkpt lat="55.707035" lon="26.066980">
<ele>127.381897</ele>
<time>2010-07-17T18:17:33Z</time>
<desc>lat.=55.707035, lon.=26.066980, Alt.=127.381897m. Speed=26.424000m/h.</desc>
<speed>7.340000</speed>
</trkpt>
<trkpt lat="55.706951" lon="26.067015">
<ele>126.391663</ele>
<time>2010-07-17T18:17:34Z</time>
<desc>lat.=55.706951, lon.=26.067015, Alt.=126.391663m. Speed=26.532000m/h.</desc>
<speed>7.370000</speed>
</trkpt>
<trkpt lat="55.706856" lon="26.066996">
<ele>124.657288</ele>
<time>2010-07-17T18:17:35Z</time>
<desc>lat.=55.706856, lon.=26.066996, Alt.=124.657288m. Speed=25.524000m/h.</desc>
<speed>7.090000</speed>
</trkpt>
<trkpt lat="55.706753" lon="26.067015">
<ele>122.963928</ele>
<time>2010-07-17T18:17:36Z</time>
<desc>lat.=55.706753, lon.=26.067015, Alt.=122.963928m. Speed=22.608000m/h.</desc>
<speed>6.280000</speed>
</trkpt>
<trkpt lat="55.706665" lon="26.067064">
<ele>120.784241</ele>
<time>2010-07-17T18:17:37Z</time>
<desc>lat.=55.706665, lon.=26.067064, Alt.=120.784241m. Speed=25.020000m/h.</desc>
<speed>6.950000</speed>
</trkpt>
<trkpt lat="55.706596" lon="26.067123">
<ele>119.131897</ele>
<time>2010-07-17T18:17:38Z</time>
<desc>lat.=55.706596, lon.=26.067123, Alt.=119.131897m. Speed=24.156000m/h.</desc>
<speed>6.710000</speed>
</trkpt>
<trkpt lat="55.706516" lon="26.067194">
<ele>117.331116</ele>
<time>2010-07-17T18:17:39Z</time>
<desc>lat.=55.706516, lon.=26.067194, Alt.=117.331116m. Speed=24.624001m/h.</desc>
<speed>6.840000</speed>
</trkpt>
<trkpt lat="55.706451" lon="26.067244">
<ele>115.794006</ele>
<time>2010-07-17T18:17:40Z</time>
<desc>lat.=55.706451, lon.=26.067244, Alt.=115.794006m. Speed=22.643999m/h.</desc>
<speed>6.290000</speed>
</trkpt>
<trkpt lat="55.706379" lon="26.067301">
<ele>113.553772</ele>
<time>2010-07-17T18:17:41Z</time>
<desc>lat.=55.706379, lon.=26.067301, Alt.=113.553772m. Speed=22.284000m/h.</desc>
<speed>6.190000</speed>
</trkpt>
<trkpt lat="55.706314" lon="26.067345">
<ele>112.217834</ele>
<time>2010-07-17T18:17:42Z</time>
<desc>lat.=55.706314, lon.=26.067345, Alt.=112.217834m. Speed=21.743999m/h.</desc>
<speed>6.040000</speed>
</trkpt>
<trkpt lat="55.706257" lon="26.067375">
<ele>112.333069</ele>
<time>2010-07-17T18:17:43Z</time>
<desc>lat.=55.706257, lon.=26.067375, Alt.=112.333069m. Speed=22.680000m/h.</desc>
<speed>6.300000</speed>
</trkpt>
<trkpt lat="55.706165" lon="26.067417">
<ele>111.305725</ele>
<time>2010-07-17T18:17:44Z</time>
<desc>lat.=55.706165, lon.=26.067417, Alt.=111.305725m. Speed=21.348000m/h.</desc>
<speed>5.930000</speed>
</trkpt>
<trkpt lat="55.706112" lon="26.067453">
<ele>110.352600</ele>
<time>2010-07-17T18:17:45Z</time>
<desc>lat.=55.706112, lon.=26.067453, Alt.=110.352600m. Speed=20.591999m/h.</desc>
<speed>5.720000</speed>
</trkpt>
<trkpt lat="55.706062" lon="26.067490">
<ele>109.491272</ele>
<time>2010-07-17T18:17:46Z</time>
<desc>lat.=55.706062, lon.=26.067490, Alt.=109.491272m. Speed=21.348000m/h.</desc>
<speed>5.930000</speed>
</trkpt>
<trkpt lat="55.706017" lon="26.067530">
<ele>109.508850</ele>
<time>2010-07-17T18:17:47Z</time>
<desc>lat.=55.706017, lon.=26.067530, Alt.=109.508850m. Speed=19.728001m/h.</desc>
<speed>5.480000</speed>
</trkpt>
<trkpt lat="55.705978" lon="26.067564">
<ele>109.176819</ele>
<time>2010-07-17T18:17:48Z</time>
<desc>lat.=55.705978, lon.=26.067564, Alt.=109.176819m. Speed=18.288000m/h.</desc>
<speed>5.080000</speed>
</trkpt>
<trkpt lat="55.705936" lon="26.067587">
<ele>108.139709</ele>
<time>2010-07-17T18:17:49Z</time>
<desc>lat.=55.705936, lon.=26.067587, Alt.=108.139709m. Speed=17.351999m/h.</desc>
<speed>4.820000</speed>
</trkpt>
<trkpt lat="55.705891" lon="26.067610">
<ele>107.803772</ele>
<time>2010-07-17T18:17:50Z</time>
<desc>lat.=55.705891, lon.=26.067610, Alt.=107.803772m. Speed=16.344000m/h.</desc>
<speed>4.540000</speed>
</trkpt>
<trkpt lat="55.705837" lon="26.067636">
<ele>107.608459</ele>
<time>2010-07-17T18:17:51Z</time>
<desc>lat.=55.705837, lon.=26.067636, Alt.=107.608459m. Speed=19.332001m/h.</desc>
<speed>5.370000</speed>
</trkpt>
<trkpt lat="55.705776" lon="26.067646">
<ele>107.532288</ele>
<time>2010-07-17T18:17:52Z</time>
<desc>lat.=55.705776, lon.=26.067646, Alt.=107.532288m. Speed=18.612000m/h.</desc>
<speed>5.170000</speed>
</trkpt>
<trkpt lat="55.705715" lon="26.067678">
<ele>107.124084</ele>
<time>2010-07-17T18:17:53Z</time>
<desc>lat.=55.705715, lon.=26.067678, Alt.=107.124084m. Speed=18.143999m/h.</desc>
<speed>5.040000</speed>
</trkpt>
<trkpt lat="55.705647" lon="26.067684">
<ele>106.473694</ele>
<time>2010-07-17T18:17:54Z</time>
<desc>lat.=55.705647, lon.=26.067684, Alt.=106.473694m. Speed=18.396000m/h.</desc>
<speed>5.110000</speed>
</trkpt>
<trkpt lat="55.705593" lon="26.067719">
<ele>107.094788</ele>
<time>2010-07-17T18:17:55Z</time>
<desc>lat.=55.705593, lon.=26.067719, Alt.=107.094788m. Speed=15.372000m/h.</desc>
<speed>4.270000</speed>
</trkpt>
<trkpt lat="55.705544" lon="26.067749">
<ele>107.180725</ele>
<time>2010-07-17T18:17:56Z</time>
<desc>lat.=55.705544, lon.=26.067749, Alt.=107.180725m. Speed=15.876000m/h.</desc>
<speed>4.410000</speed>
</trkpt>
<trkpt lat="55.705482" lon="26.067772">
<ele>107.385803</ele>
<time>2010-07-17T18:17:57Z</time>
<desc>lat.=55.705482, lon.=26.067772, Alt.=107.385803m. Speed=18.576000m/h.</desc>
<speed>5.160000</speed>
</trkpt>
<trkpt lat="55.705406" lon="26.067785">
<ele>107.799866</ele>
<time>2010-07-17T18:17:58Z</time>
<desc>lat.=55.705406, lon.=26.067785, Alt.=107.799866m. Speed=20.952000m/h.</desc>
<speed>5.820000</speed>
</trkpt>
<trkpt lat="55.705345" lon="26.067823">
<ele>108.395569</ele>
<time>2010-07-17T18:17:59Z</time>
<desc>lat.=55.705345, lon.=26.067823, Alt.=108.395569m. Speed=18.576000m/h.</desc>
<speed>5.160000</speed>
</trkpt>
<trkpt lat="55.705292" lon="26.067852">
<ele>108.760803</ele>
<time>2010-07-17T18:18:00Z</time>
<desc>lat.=55.705292, lon.=26.067852, Alt.=108.760803m. Speed=18.035999m/h.</desc>
<speed>5.010000</speed>
</trkpt>
<trkpt lat="55.705238" lon="26.067883">
<ele>109.622131</ele>
<time>2010-07-17T18:18:01Z</time>
<desc>lat.=55.705238, lon.=26.067883, Alt.=109.622131m. Speed=15.408000m/h.</desc>
<speed>4.280000</speed>
</trkpt>
<trkpt lat="55.705196" lon="26.067905">
<ele>109.672913</ele>
<time>2010-07-17T18:18:02Z</time>
<desc>lat.=55.705196, lon.=26.067905, Alt.=109.672913m. Speed=13.212000m/h.</desc>
<speed>3.670000</speed>
</trkpt>
<trkpt lat="55.705166" lon="26.067938">
<ele>109.040100</ele>
<time>2010-07-17T18:18:03Z</time>
<desc>lat.=55.705166, lon.=26.067938, Alt.=109.040100m. Speed=15.768000m/h.</desc>
<speed>4.380000</speed>
</trkpt>
<trkpt lat="55.705101" lon="26.067949">
<ele>108.317444</ele>
<time>2010-07-17T18:18:04Z</time>
<desc>lat.=55.705101, lon.=26.067949, Alt.=108.317444m. Speed=16.704000m/h.</desc>
<speed>4.640000</speed>
</trkpt>
<trkpt lat="55.705051" lon="26.067987">
<ele>108.602600</ele>
<time>2010-07-17T18:18:05Z</time>
<desc>lat.=55.705051, lon.=26.067987, Alt.=108.602600m. Speed=16.596001m/h.</desc>
<speed>4.610000</speed>
</trkpt>
<trkpt lat="55.704998" lon="26.068014">
<ele>108.258850</ele>
<time>2010-07-17T18:18:06Z</time>
<desc>lat.=55.704998, lon.=26.068014, Alt.=108.258850m. Speed=15.300000m/h.</desc>
<speed>4.250000</speed>
</trkpt>
<trkpt lat="55.704956" lon="26.068062">
<ele>109.227600</ele>
<time>2010-07-17T18:18:07Z</time>
<desc>lat.=55.704956, lon.=26.068062, Alt.=109.227600m. Speed=15.156000m/h.</desc>
<speed>4.210000</speed>
</trkpt>
<trkpt lat="55.704922" lon="26.068092">
<ele>111.024475</ele>
<time>2010-07-17T18:18:08Z</time>
<desc>lat.=55.704922, lon.=26.068092, Alt.=111.024475m. Speed=11.664000m/h.</desc>
<speed>3.240000</speed>
</trkpt>
<trkpt lat="55.704887" lon="26.068115">
<ele>111.899475</ele>
<time>2010-07-17T18:18:09Z</time>
<desc>lat.=55.704887, lon.=26.068115, Alt.=111.899475m. Speed=12.132000m/h.</desc>
<speed>3.370000</speed>
</trkpt>
<trkpt lat="55.704849" lon="26.068140">
<ele>111.645569</ele>
<time>2010-07-17T18:18:10Z</time>
<desc>lat.=55.704849, lon.=26.068140, Alt.=111.645569m. Speed=15.588000m/h.</desc>
<speed>4.330000</speed>
</trkpt>
<trkpt lat="55.704803" lon="26.068192">
<ele>110.877991</ele>
<time>2010-07-17T18:18:11Z</time>
<desc>lat.=55.704803, lon.=26.068192, Alt.=110.877991m. Speed=15.552000m/h.</desc>
<speed>4.320000</speed>
</trkpt>
<trkpt lat="55.704720" lon="26.068285">
<ele>108.829163</ele>
<time>2010-07-17T18:18:12Z</time>
<desc>lat.=55.704720, lon.=26.068285, Alt.=108.829163m. Speed=17.351999m/h.</desc>
<speed>4.820000</speed>
</trkpt>
<trkpt lat="55.704674" lon="26.068344">
<ele>108.186584</ele>
<time>2010-07-17T18:18:13Z</time>
<desc>lat.=55.704674, lon.=26.068344, Alt.=108.186584m. Speed=16.200001m/h.</desc>
<speed>4.500000</speed>
</trkpt>
<trkpt lat="55.704636" lon="26.068401">
<ele>107.723694</ele>
<time>2010-07-17T18:18:14Z</time>
<desc>lat.=55.704636, lon.=26.068401, Alt.=107.723694m. Speed=15.876000m/h.</desc>
<speed>4.410000</speed>
</trkpt>
<trkpt lat="55.704597" lon="26.068457">
<ele>107.415100</ele>
<time>2010-07-17T18:18:15Z</time>
<desc>lat.=55.704597, lon.=26.068457, Alt.=107.415100m. Speed=15.840000m/h.</desc>
<speed>4.400000</speed>
</trkpt>
<trkpt lat="55.704559" lon="26.068493">
<ele>108.961975</ele>
<time>2010-07-17T18:18:16Z</time>
<desc>lat.=55.704559, lon.=26.068493, Alt.=108.961975m. Speed=14.040000m/h.</desc>
<speed>3.900000</speed>
</trkpt>
<trkpt lat="55.704525" lon="26.068518">
<ele>109.809631</ele>
<time>2010-07-17T18:18:17Z</time>
<desc>lat.=55.704525, lon.=26.068518, Alt.=109.809631m. Speed=14.364000m/h.</desc>
<speed>3.990000</speed>
</trkpt>
<trkpt lat="55.704487" lon="26.068565">
<ele>109.928772</ele>
<time>2010-07-17T18:18:18Z</time>
<desc>lat.=55.704487, lon.=26.068565, Alt.=109.928772m. Speed=17.568001m/h.</desc>
<speed>4.880000</speed>
</trkpt>
<trkpt lat="55.704449" lon="26.068624">
<ele>109.010803</ele>
<time>2010-07-17T18:18:19Z</time>
<desc>lat.=55.704449, lon.=26.068624, Alt.=109.010803m. Speed=14.940000m/h.</desc>
<speed>4.150000</speed>
</trkpt>
<trkpt lat="55.704418" lon="26.068668">
<ele>108.514709</ele>
<time>2010-07-17T18:18:20Z</time>
<desc>lat.=55.704418, lon.=26.068668, Alt.=108.514709m. Speed=10.944000m/h.</desc>
<speed>3.040000</speed>
</trkpt>
<trkpt lat="55.704384" lon="26.068710">
<ele>107.245178</ele>
<time>2010-07-17T18:18:21Z</time>
<desc>lat.=55.704384, lon.=26.068710, Alt.=107.245178m. Speed=9.936000m/h.</desc>
<speed>2.760000</speed>
</trkpt>
<trkpt lat="55.704350" lon="26.068731">
<ele>106.295959</ele>
<time>2010-07-17T18:18:22Z</time>
<desc>lat.=55.704350, lon.=26.068731, Alt.=106.295959m. Speed=8.280000m/h.</desc>
<speed>2.300000</speed>
</trkpt>
<trkpt lat="55.704323" lon="26.068750">
<ele>106.944397</ele>
<time>2010-07-17T18:18:23Z</time>
<desc>lat.=55.704323, lon.=26.068750, Alt.=106.944397m. Speed=8.964000m/h.</desc>
<speed>2.490000</speed>
</trkpt>
<trkpt lat="55.704281" lon="26.068769">
<ele>108.502991</ele>
<time>2010-07-17T18:18:24Z</time>
<desc>lat.=55.704281, lon.=26.068769, Alt.=108.502991m. Speed=8.712000m/h.</desc>
<speed>2.420000</speed>
</trkpt>
<trkpt lat="55.704250" lon="26.068787">
<ele>109.690491</ele>
<time>2010-07-17T18:18:25Z</time>
<desc>lat.=55.704250, lon.=26.068787, Alt.=109.690491m. Speed=8.460000m/h.</desc>
<speed>2.350000</speed>
</trkpt>
<trkpt lat="55.704208" lon="26.068813">
<ele>112.225647</ele>
<time>2010-07-17T18:18:26Z</time>
<desc>lat.=55.704208, lon.=26.068813, Alt.=112.225647m. Speed=11.016000m/h.</desc>
<speed>3.060000</speed>
</trkpt>
<trkpt lat="55.704178" lon="26.068844">
<ele>112.596741</ele>
<time>2010-07-17T18:18:27Z</time>
<desc>lat.=55.704178, lon.=26.068844, Alt.=112.596741m. Speed=12.600000m/h.</desc>
<speed>3.500000</speed>
</trkpt>
<trkpt lat="55.704144" lon="26.068874">
<ele>114.202209</ele>
<time>2010-07-17T18:18:28Z</time>
<desc>lat.=55.704144, lon.=26.068874, Alt.=114.202209m. Speed=13.140000m/h.</desc>
<speed>3.650000</speed>
</trkpt>
<trkpt lat="55.704105" lon="26.068909">
<ele>116.754944</ele>
<time>2010-07-17T18:18:29Z</time>
<desc>lat.=55.704105, lon.=26.068909, Alt.=116.754944m. Speed=14.076000m/h.</desc>
<speed>3.910000</speed>
</trkpt>
<trkpt lat="55.704067" lon="26.068930">
<ele>117.586975</ele>
<time>2010-07-17T18:18:30Z</time>
<desc>lat.=55.704067, lon.=26.068930, Alt.=117.586975m. Speed=14.220000m/h.</desc>
<speed>3.950000</speed>
</trkpt>
<trkpt lat="55.704029" lon="26.068960">
<ele>119.010803</ele>
<time>2010-07-17T18:18:31Z</time>
<desc>lat.=55.704029, lon.=26.068960, Alt.=119.010803m. Speed=15.264000m/h.</desc>
<speed>4.240000</speed>
</trkpt>
<trkpt lat="55.703999" lon="26.068991">
<ele>120.155334</ele>
<time>2010-07-17T18:18:32Z</time>
<desc>lat.=55.703999, lon.=26.068991, Alt.=120.155334m. Speed=13.680000m/h.</desc>
<speed>3.800000</speed>
</trkpt>
<trkpt lat="55.703957" lon="26.069023">
<ele>120.073303</ele>
<time>2010-07-17T18:18:33Z</time>
<desc>lat.=55.703957, lon.=26.069023, Alt.=120.073303m. Speed=15.444000m/h.</desc>
<speed>4.290000</speed>
</trkpt>
<trkpt lat="55.703915" lon="26.069054">
<ele>124.979553</ele>
<time>2010-07-17T18:18:34Z</time>
<desc>lat.=55.703915, lon.=26.069054, Alt.=124.979553m. Speed=16.056000m/h.</desc>
<speed>4.460000</speed>
</trkpt>
<trkpt lat="55.703876" lon="26.069109">
<ele>130.595825</ele>
<time>2010-07-17T18:18:35Z</time>
<desc>lat.=55.703876, lon.=26.069109, Alt.=130.595825m. Speed=16.632000m/h.</desc>
<speed>4.620000</speed>
</trkpt>
<trkpt lat="55.703846" lon="26.069147">
<ele>132.170044</ele>
<time>2010-07-17T18:18:36Z</time>
<desc>lat.=55.703846, lon.=26.069147, Alt.=132.170044m. Speed=13.644000m/h.</desc>
<speed>3.790000</speed>
</trkpt>
<trkpt lat="55.703808" lon="26.069187">
<ele>132.654419</ele>
<time>2010-07-17T18:18:37Z</time>
<desc>lat.=55.703808, lon.=26.069187, Alt.=132.654419m. Speed=13.896000m/h.</desc>
<speed>3.860000</speed>
</trkpt>
<trkpt lat="55.703770" lon="26.069220">
<ele>133.584106</ele>
<time>2010-07-17T18:18:38Z</time>
<desc>lat.=55.703770, lon.=26.069220, Alt.=133.584106m. Speed=14.472000m/h.</desc>
<speed>4.020000</speed>
</trkpt>
<trkpt lat="55.703732" lon="26.069260">
<ele>134.986450</ele>
<time>2010-07-17T18:18:39Z</time>
<desc>lat.=55.703732, lon.=26.069260, Alt.=134.986450m. Speed=13.824000m/h.</desc>
<speed>3.840000</speed>
</trkpt>
<trkpt lat="55.703697" lon="26.069305">
<ele>135.963013</ele>
<time>2010-07-17T18:18:40Z</time>
<desc>lat.=55.703697, lon.=26.069305, Alt.=135.963013m. Speed=13.968000m/h.</desc>
<speed>3.880000</speed>
</trkpt>
<trkpt lat="55.703663" lon="26.069359">
<ele>137.127075</ele>
<time>2010-07-17T18:18:41Z</time>
<desc>lat.=55.703663, lon.=26.069359, Alt.=137.127075m. Speed=17.028000m/h.</desc>
<speed>4.730000</speed>
</trkpt>
<trkpt lat="55.703625" lon="26.069399">
<ele>138.213013</ele>
<time>2010-07-17T18:18:42Z</time>
<desc>lat.=55.703625, lon.=26.069399, Alt.=138.213013m. Speed=15.012000m/h.</desc>
<speed>4.170000</speed>
</trkpt>
<trkpt lat="55.703590" lon="26.069435">
<ele>138.982544</ele>
<time>2010-07-17T18:18:43Z</time>
<desc>lat.=55.703590, lon.=26.069435, Alt.=138.982544m. Speed=13.824000m/h.</desc>
<speed>3.840000</speed>
</trkpt>
<trkpt lat="55.703556" lon="26.069485">
<ele>141.759888</ele>
<time>2010-07-17T18:18:44Z</time>
<desc>lat.=55.703556, lon.=26.069485, Alt.=141.759888m. Speed=15.444000m/h.</desc>
<speed>4.290000</speed>
</trkpt>
<trkpt lat="55.703526" lon="26.069540">
<ele>142.248169</ele>
<time>2010-07-17T18:18:45Z</time>
<desc>lat.=55.703526, lon.=26.069540, Alt.=142.248169m. Speed=16.056000m/h.</desc>
<speed>4.460000</speed>
</trkpt>
<trkpt lat="55.703491" lon="26.069603">
<ele>142.326294</ele>
<time>2010-07-17T18:18:46Z</time>
<desc>lat.=55.703491, lon.=26.069603, Alt.=142.326294m. Speed=16.056000m/h.</desc>
<speed>4.460000</speed>
</trkpt>
<trkpt lat="55.703465" lon="26.069662">
<ele>143.072388</ele>
<time>2010-07-17T18:18:47Z</time>
<desc>lat.=55.703465, lon.=26.069662, Alt.=143.072388m. Speed=16.848000m/h.</desc>
<speed>4.680000</speed>
</trkpt>
<trkpt lat="55.703430" lon="26.069721">
<ele>144.127075</ele>
<time>2010-07-17T18:18:48Z</time>
<desc>lat.=55.703430, lon.=26.069721, Alt.=144.127075m. Speed=18.972000m/h.</desc>
<speed>5.270000</speed>
</trkpt>
<trkpt lat="55.703396" lon="26.069782">
<ele>145.099731</ele>
<time>2010-07-17T18:18:49Z</time>
<desc>lat.=55.703396, lon.=26.069782, Alt.=145.099731m. Speed=18.143999m/h.</desc>
<speed>5.040000</speed>
</trkpt>
<trkpt lat="55.703362" lon="26.069843">
<ele>145.896606</ele>
<time>2010-07-17T18:18:50Z</time>
<desc>lat.=55.703362, lon.=26.069843, Alt.=145.896606m. Speed=18.035999m/h.</desc>
<speed>5.010000</speed>
</trkpt>
<trkpt lat="55.703335" lon="26.069895">
<ele>146.658325</ele>
<time>2010-07-17T18:18:51Z</time>
<desc>lat.=55.703335, lon.=26.069895, Alt.=146.658325m. Speed=15.840000m/h.</desc>
<speed>4.400000</speed>
</trkpt>
<trkpt lat="55.703308" lon="26.069958">
<ele>147.427856</ele>
<time>2010-07-17T18:18:52Z</time>
<desc>lat.=55.703308, lon.=26.069958, Alt.=147.427856m. Speed=15.768000m/h.</desc>
<speed>4.380000</speed>
</trkpt>
<trkpt lat="55.703281" lon="26.070015">
<ele>148.111450</ele>
<time>2010-07-17T18:18:53Z</time>
<desc>lat.=55.703281, lon.=26.070015, Alt.=148.111450m. Speed=15.552000m/h.</desc>
<speed>4.320000</speed>
</trkpt>
<trkpt lat="55.703247" lon="26.070063">
<ele>149.552856</ele>
<time>2010-07-17T18:18:54Z</time>
<desc>lat.=55.703247, lon.=26.070063, Alt.=149.552856m. Speed=13.824000m/h.</desc>
<speed>3.840000</speed>
</trkpt>
<trkpt lat="55.703220" lon="26.070118">
<ele>149.978638</ele>
<time>2010-07-17T18:18:55Z</time>
<desc>lat.=55.703220, lon.=26.070118, Alt.=149.978638m. Speed=13.896000m/h.</desc>
<speed>3.860000</speed>
</trkpt>
<trkpt lat="55.703197" lon="26.070171">
<ele>150.088013</ele>
<time>2010-07-17T18:18:56Z</time>
<desc>lat.=55.703197, lon.=26.070171, Alt.=150.088013m. Speed=13.284000m/h.</desc>
<speed>3.690000</speed>
</trkpt>
<trkpt lat="55.703167" lon="26.070221">
<ele>150.802856</ele>
<time>2010-07-17T18:18:57Z</time>
<desc>lat.=55.703167, lon.=26.070221, Alt.=150.802856m. Speed=15.480000m/h.</desc>
<speed>4.300000</speed>
</trkpt>
<trkpt lat="55.703140" lon="26.070274">
<ele>151.525513</ele>
<time>2010-07-17T18:18:58Z</time>
<desc>lat.=55.703140, lon.=26.070274, Alt.=151.525513m. Speed=13.968000m/h.</desc>
<speed>3.880000</speed>
</trkpt>
<trkpt lat="55.703114" lon="26.070330">
<ele>152.170044</ele>
<time>2010-07-17T18:18:59Z</time>
<desc>lat.=55.703114, lon.=26.070330, Alt.=152.170044m. Speed=12.852000m/h.</desc>
<speed>3.570000</speed>
</trkpt>
<trkpt lat="55.703091" lon="26.070387">
<ele>152.771606</ele>
<time>2010-07-17T18:19:00Z</time>
<desc>lat.=55.703091, lon.=26.070387, Alt.=152.771606m. Speed=12.204000m/h.</desc>
<speed>3.390000</speed>
</trkpt>
<trkpt lat="55.703068" lon="26.070433">
<ele>153.716919</ele>
<time>2010-07-17T18:19:01Z</time>
<desc>lat.=55.703068, lon.=26.070433, Alt.=153.716919m. Speed=13.608000m/h.</desc>
<speed>3.780000</speed>
</trkpt>
<trkpt lat="55.703049" lon="26.070484">
<ele>153.947388</ele>
<time>2010-07-17T18:19:02Z</time>
<desc>lat.=55.703049, lon.=26.070484, Alt.=153.947388m. Speed=14.256000m/h.</desc>
<speed>3.960000</speed>
</trkpt>
<trkpt lat="55.703030" lon="26.070534">
<ele>154.209106</ele>
<time>2010-07-17T18:19:03Z</time>
<desc>lat.=55.703030, lon.=26.070534, Alt.=154.209106m. Speed=12.816000m/h.</desc>
<speed>3.560000</speed>
</trkpt>
<trkpt lat="55.703014" lon="26.070587">
<ele>154.646606</ele>
<time>2010-07-17T18:19:04Z</time>
<desc>lat.=55.703014, lon.=26.070587, Alt.=154.646606m. Speed=11.376000m/h.</desc>
<speed>3.160000</speed>
</trkpt>
<trkpt lat="55.702999" lon="26.070631">
<ele>155.127075</ele>
<time>2010-07-17T18:19:05Z</time>
<desc>lat.=55.702999, lon.=26.070631, Alt.=155.127075m. Speed=11.628000m/h.</desc>
<speed>3.230000</speed>
</trkpt>
<trkpt lat="55.702980" lon="26.070681">
<ele>155.615356</ele>
<time>2010-07-17T18:19:06Z</time>
<desc>lat.=55.702980, lon.=26.070681, Alt.=155.615356m. Speed=12.420000m/h.</desc>
<speed>3.450000</speed>
</trkpt>
<trkpt lat="55.702965" lon="26.070732">
<ele>155.982544</ele>
<time>2010-07-17T18:19:07Z</time>
<desc>lat.=55.702965, lon.=26.070732, Alt.=155.982544m. Speed=11.124000m/h.</desc>
<speed>3.090000</speed>
</trkpt>
<trkpt lat="55.702942" lon="26.070786">
<ele>156.900513</ele>
<time>2010-07-17T18:19:08Z</time>
<desc>lat.=55.702942, lon.=26.070786, Alt.=156.900513m. Speed=11.484000m/h.</desc>
<speed>3.190000</speed>
</trkpt>
<trkpt lat="55.702930" lon="26.070831">
<ele>157.470825</ele>
<time>2010-07-17T18:19:09Z</time>
<desc>lat.=55.702930, lon.=26.070831, Alt.=157.470825m. Speed=10.872000m/h.</desc>
<speed>3.020000</speed>
</trkpt>
<trkpt lat="55.702923" lon="26.070866">
<ele>157.861450</ele>
<time>2010-07-17T18:19:10Z</time>
<desc>lat.=55.702923, lon.=26.070866, Alt.=157.861450m. Speed=9.180000m/h.</desc>
<speed>2.550000</speed>
</trkpt>
<trkpt lat="55.702923" lon="26.070913">
<ele>158.142700</ele>
<time>2010-07-17T18:19:11Z</time>
<desc>lat.=55.702923, lon.=26.070913, Alt.=158.142700m. Speed=8.640000m/h.</desc>
<speed>2.400000</speed>
</trkpt>
<trkpt lat="55.702934" lon="26.070946">
<ele>158.240356</ele>
<time>2010-07-17T18:19:12Z</time>
<desc>lat.=55.702934, lon.=26.070946, Alt.=158.240356m. Speed=6.624000m/h.</desc>
<speed>1.840000</speed>
</trkpt>
<trkpt lat="55.702923" lon="26.070978">
<ele>158.904419</ele>
<time>2010-07-17T18:19:13Z</time>
<desc>lat.=55.702923, lon.=26.070978, Alt.=158.904419m. Speed=6.192000m/h.</desc>
<speed>1.720000</speed>
</trkpt>
<trkpt lat="55.702911" lon="26.071012">
<ele>159.005981</ele>
<time>2010-07-17T18:19:14Z</time>
<desc>lat.=55.702911, lon.=26.071012, Alt.=159.005981m. Speed=6.336000m/h.</desc>
<speed>1.760000</speed>
</trkpt>
<trkpt lat="55.702900" lon="26.071054">
<ele>158.920044</ele>
<time>2010-07-17T18:19:15Z</time>
<desc>lat.=55.702900, lon.=26.071054, Alt.=158.920044m. Speed=7.164000m/h.</desc>
<speed>1.990000</speed>
</trkpt>
<trkpt lat="55.702892" lon="26.071079">
<ele>159.443481</ele>
<time>2010-07-17T18:19:16Z</time>
<desc>lat.=55.702892, lon.=26.071079, Alt.=159.443481m. Speed=6.768000m/h.</desc>
<speed>1.880000</speed>
</trkpt>
<trkpt lat="55.702888" lon="26.071110">
<ele>159.630981</ele>
<time>2010-07-17T18:19:17Z</time>
<desc>lat.=55.702888, lon.=26.071110, Alt.=159.630981m. Speed=6.480000m/h.</desc>
<speed>1.800000</speed>
</trkpt>
<trkpt lat="55.702888" lon="26.071136">
<ele>159.810669</ele>
<time>2010-07-17T18:19:18Z</time>
<desc>lat.=55.702888, lon.=26.071136, Alt.=159.810669m. Speed=6.840000m/h.</desc>
<speed>1.900000</speed>
</trkpt>
<trkpt lat="55.702892" lon="26.071169">
<ele>160.095825</ele>
<time>2010-07-17T18:19:19Z</time>
<desc>lat.=55.702892, lon.=26.071169, Alt.=160.095825m. Speed=7.452000m/h.</desc>
<speed>2.070000</speed>
</trkpt>
<trkpt lat="55.702881" lon="26.071205">
<ele>160.334106</ele>
<time>2010-07-17T18:19:20Z</time>
<desc>lat.=55.702881, lon.=26.071205, Alt.=160.334106m. Speed=8.028000m/h.</desc>
<speed>2.230000</speed>
</trkpt>
<trkpt lat="55.702869" lon="26.071243">
<ele>160.455200</ele>
<time>2010-07-17T18:19:21Z</time>
<desc>lat.=55.702869, lon.=26.071243, Alt.=160.455200m. Speed=9.432000m/h.</desc>
<speed>2.620000</speed>
</trkpt>
<trkpt lat="55.702858" lon="26.071283">
<ele>160.806763</ele>
<time>2010-07-17T18:19:22Z</time>
<desc>lat.=55.702858, lon.=26.071283, Alt.=160.806763m. Speed=11.340000m/h.</desc>
<speed>3.150000</speed>
</trkpt>
<trkpt lat="55.702847" lon="26.071333">
<ele>161.318481</ele>
<time>2010-07-17T18:19:23Z</time>
<desc>lat.=55.702847, lon.=26.071333, Alt.=161.318481m. Speed=11.232000m/h.</desc>
<speed>3.120000</speed>
</trkpt>
<trkpt lat="55.702827" lon="26.071354">
<ele>162.045044</ele>
<time>2010-07-17T18:19:24Z</time>
<desc>lat.=55.702827, lon.=26.071354, Alt.=162.045044m. Speed=8.028000m/h.</desc>
<speed>2.230000</speed>
</trkpt>
<trkpt lat="55.702816" lon="26.071383">
<ele>162.927856</ele>
<time>2010-07-17T18:19:25Z</time>
<desc>lat.=55.702816, lon.=26.071383, Alt.=162.927856m. Speed=9.180000m/h.</desc>
<speed>2.550000</speed>
</trkpt>
<trkpt lat="55.702812" lon="26.071426">
<ele>163.017700</ele>
<time>2010-07-17T18:19:26Z</time>
<desc>lat.=55.702812, lon.=26.071426, Alt.=163.017700m. Speed=10.296000m/h.</desc>
<speed>2.860000</speed>
</trkpt>
<trkpt lat="55.702801" lon="26.071453">
<ele>163.443481</ele>
<time>2010-07-17T18:19:27Z</time>
<desc>lat.=55.702801, lon.=26.071453, Alt.=163.443481m. Speed=9.252000m/h.</desc>
<speed>2.570000</speed>
</trkpt>
<trkpt lat="55.702789" lon="26.071497">
<ele>163.474731</ele>
<time>2010-07-17T18:19:28Z</time>
<desc>lat.=55.702789, lon.=26.071497, Alt.=163.474731m. Speed=9.864000m/h.</desc>
<speed>2.740000</speed>
</trkpt>
<trkpt lat="55.702778" lon="26.071547">
<ele>164.724731</ele>
<time>2010-07-17T18:19:29Z</time>
<desc>lat.=55.702778, lon.=26.071547, Alt.=164.724731m. Speed=9.288000m/h.</desc>
<speed>2.580000</speed>
</trkpt>
<trkpt lat="55.702770" lon="26.071581">
<ele>165.619263</ele>
<time>2010-07-17T18:19:30Z</time>
<desc>lat.=55.702770, lon.=26.071581, Alt.=165.619263m. Speed=10.044000m/h.</desc>
<speed>2.790000</speed>
</trkpt>
<trkpt lat="55.702766" lon="26.071627">
<ele>166.021606</ele>
<time>2010-07-17T18:19:31Z</time>
<desc>lat.=55.702766, lon.=26.071627, Alt.=166.021606m. Speed=9.612000m/h.</desc>
<speed>2.670000</speed>
</trkpt>
<trkpt lat="55.702755" lon="26.071671">
<ele>165.838013</ele>
<time>2010-07-17T18:19:32Z</time>
<desc>lat.=55.702755, lon.=26.071671, Alt.=165.838013m. Speed=9.108000m/h.</desc>
<speed>2.530000</speed>
</trkpt>
<trkpt lat="55.702755" lon="26.071728">
<ele>166.955200</ele>
<time>2010-07-17T18:19:33Z</time>
<desc>lat.=55.702755, lon.=26.071728, Alt.=166.955200m. Speed=10.080000m/h.</desc>
<speed>2.800000</speed>
</trkpt>
<trkpt lat="55.702751" lon="26.071756">
<ele>167.752075</ele>
<time>2010-07-17T18:19:34Z</time>
<desc>lat.=55.702751, lon.=26.071756, Alt.=167.752075m. Speed=10.980000m/h.</desc>
<speed>3.050000</speed>
</trkpt>
<trkpt lat="55.702740" lon="26.071804">
<ele>167.689575</ele>
<time>2010-07-17T18:19:35Z</time>
<desc>lat.=55.702740, lon.=26.071804, Alt.=167.689575m. Speed=12.024000m/h.</desc>
<speed>3.340000</speed>
</trkpt>
<trkpt lat="55.702728" lon="26.071861">
<ele>167.150513</ele>
<time>2010-07-17T18:19:36Z</time>
<desc>lat.=55.702728, lon.=26.071861, Alt.=167.150513m. Speed=12.960000m/h.</desc>
<speed>3.600000</speed>
</trkpt>
<trkpt lat="55.702721" lon="26.071920">
<ele>166.888794</ele>
<time>2010-07-17T18:19:37Z</time>
<desc>lat.=55.702721, lon.=26.071920, Alt.=166.888794m. Speed=14.184000m/h.</desc>
<speed>3.940000</speed>
</trkpt>
<trkpt lat="55.702713" lon="26.071987">
<ele>166.834106</ele>
<time>2010-07-17T18:19:38Z</time>
<desc>lat.=55.702713, lon.=26.071987, Alt.=166.834106m. Speed=14.940000m/h.</desc>
<speed>4.150000</speed>
</trkpt>
<trkpt lat="55.702705" lon="26.072058">
<ele>166.509888</ele>
<time>2010-07-17T18:19:39Z</time>
<desc>lat.=55.702705, lon.=26.072058, Alt.=166.509888m. Speed=16.559999m/h.</desc>
<speed>4.600000</speed>
</trkpt>
<trkpt lat="55.702690" lon="26.072136">
<ele>166.330200</ele>
<time>2010-07-17T18:19:40Z</time>
<desc>lat.=55.702690, lon.=26.072136, Alt.=166.330200m. Speed=20.160000m/h.</desc>
<speed>5.600000</speed>
</trkpt>
<trkpt lat="55.702671" lon="26.072222">
<ele>166.209106</ele>
<time>2010-07-17T18:19:41Z</time>
<desc>lat.=55.702671, lon.=26.072222, Alt.=166.209106m. Speed=20.483999m/h.</desc>
<speed>5.690000</speed>
</trkpt>
<trkpt lat="55.702652" lon="26.072315">
<ele>165.873169</ele>
<time>2010-07-17T18:19:42Z</time>
<desc>lat.=55.702652, lon.=26.072315, Alt.=165.873169m. Speed=22.139999m/h.</desc>
<speed>6.150000</speed>
</trkpt>
<trkpt lat="55.702629" lon="26.072412">
<ele>165.466919</ele>
<time>2010-07-17T18:19:43Z</time>
<desc>lat.=55.702629, lon.=26.072412, Alt.=165.466919m. Speed=22.788000m/h.</desc>
<speed>6.330000</speed>
</trkpt>
<trkpt lat="55.702610" lon="26.072510">
<ele>165.091919</ele>
<time>2010-07-17T18:19:44Z</time>
<desc>lat.=55.702610, lon.=26.072510, Alt.=165.091919m. Speed=23.580000m/h.</desc>
<speed>6.550000</speed>
</trkpt>
<trkpt lat="55.702595" lon="26.072601">
<ele>164.892700</ele>
<time>2010-07-17T18:19:45Z</time>
<desc>lat.=55.702595, lon.=26.072601, Alt.=164.892700m. Speed=23.327999m/h.</desc>
<speed>6.480000</speed>
</trkpt>
<trkpt lat="55.702572" lon="26.072704">
<ele>164.513794</ele>
<time>2010-07-17T18:19:46Z</time>
<desc>lat.=55.702572, lon.=26.072704, Alt.=164.513794m. Speed=23.219999m/h.</desc>
<speed>6.450000</speed>
</trkpt>
<trkpt lat="55.702549" lon="26.072803">
<ele>164.404419</ele>
<time>2010-07-17T18:19:47Z</time>
<desc>lat.=55.702549, lon.=26.072803, Alt.=164.404419m. Speed=23.688000m/h.</desc>
<speed>6.580000</speed>
</trkpt>
<trkpt lat="55.702534" lon="26.072905">
<ele>164.423950</ele>
<time>2010-07-17T18:19:48Z</time>
<desc>lat.=55.702534, lon.=26.072905, Alt.=164.423950m. Speed=23.327999m/h.</desc>
<speed>6.480000</speed>
</trkpt>
<trkpt lat="55.702515" lon="26.073019">
<ele>164.869263</ele>
<time>2010-07-17T18:19:49Z</time>
<desc>lat.=55.702515, lon.=26.073019, Alt.=164.869263m. Speed=25.379999m/h.</desc>
<speed>7.050000</speed>
</trkpt>
<trkpt lat="55.702496" lon="26.073126">
<ele>164.912231</ele>
<time>2010-07-17T18:19:50Z</time>
<desc>lat.=55.702496, lon.=26.073126, Alt.=164.912231m. Speed=22.716000m/h.</desc>
<speed>6.310000</speed>
</trkpt>
<trkpt lat="55.702480" lon="26.073229">
<ele>164.619263</ele>
<time>2010-07-17T18:19:51Z</time>
<desc>lat.=55.702480, lon.=26.073229, Alt.=164.619263m. Speed=23.472000m/h.</desc>
<speed>6.520000</speed>
</trkpt>
<trkpt lat="55.702469" lon="26.073328">
<ele>164.072388</ele>
<time>2010-07-17T18:19:52Z</time>
<desc>lat.=55.702469, lon.=26.073328, Alt.=164.072388m. Speed=23.652000m/h.</desc>
<speed>6.570000</speed>
</trkpt>
<trkpt lat="55.702454" lon="26.073435">
<ele>163.478638</ele>
<time>2010-07-17T18:19:53Z</time>
<desc>lat.=55.702454, lon.=26.073435, Alt.=163.478638m. Speed=23.400000m/h.</desc>
<speed>6.500000</speed>
</trkpt>
<trkpt lat="55.702431" lon="26.073553">
<ele>162.939575</ele>
<time>2010-07-17T18:19:54Z</time>
<desc>lat.=55.702431, lon.=26.073553, Alt.=162.939575m. Speed=28.440001m/h.</desc>
<speed>7.900000</speed>
</trkpt>
<trkpt lat="55.702404" lon="26.073660">
<ele>162.584106</ele>
<time>2010-07-17T18:19:55Z</time>
<desc>lat.=55.702404, lon.=26.073660, Alt.=162.584106m. Speed=26.496000m/h.</desc>
<speed>7.360000</speed>
</trkpt>
<trkpt lat="55.702381" lon="26.073771">
<ele>162.115356</ele>
<time>2010-07-17T18:19:56Z</time>
<desc>lat.=55.702381, lon.=26.073771, Alt.=162.115356m. Speed=25.596001m/h.</desc>
<speed>7.110000</speed>
</trkpt>
<trkpt lat="55.702362" lon="26.073870">
<ele>162.213013</ele>
<time>2010-07-17T18:19:57Z</time>
<desc>lat.=55.702362, lon.=26.073870, Alt.=162.213013m. Speed=24.408001m/h.</desc>
<speed>6.780000</speed>
</trkpt>
<trkpt lat="55.702347" lon="26.073967">
<ele>162.490356</ele>
<time>2010-07-17T18:19:58Z</time>
<desc>lat.=55.702347, lon.=26.073967, Alt.=162.490356m. Speed=23.364000m/h.</desc>
<speed>6.490000</speed>
</trkpt>
<trkpt lat="55.702332" lon="26.074060">
<ele>162.478638</ele>
<time>2010-07-17T18:19:59Z</time>
<desc>lat.=55.702332, lon.=26.074060, Alt.=162.478638m. Speed=21.024000m/h.</desc>
<speed>5.840000</speed>
</trkpt>
<trkpt lat="55.702324" lon="26.074156">
<ele>162.505981</ele>
<time>2010-07-17T18:20:00Z</time>
<desc>lat.=55.702324, lon.=26.074156, Alt.=162.505981m. Speed=21.240000m/h.</desc>
<speed>5.900000</speed>
</trkpt>
<trkpt lat="55.702309" lon="26.074257">
<ele>162.404419</ele>
<time>2010-07-17T18:20:01Z</time>
<desc>lat.=55.702309, lon.=26.074257, Alt.=162.404419m. Speed=19.007999m/h.</desc>
<speed>5.280000</speed>
</trkpt>
<trkpt lat="55.702297" lon="26.074347">
<ele>161.943481</ele>
<time>2010-07-17T18:20:02Z</time>
<desc>lat.=55.702297, lon.=26.074347, Alt.=161.943481m. Speed=20.556000m/h.</desc>
<speed>5.710000</speed>
</trkpt>
<trkpt lat="55.702282" lon="26.074442">
<ele>161.420044</ele>
<time>2010-07-17T18:20:03Z</time>
<desc>lat.=55.702282, lon.=26.074442, Alt.=161.420044m. Speed=22.752001m/h.</desc>
<speed>6.320000</speed>
</trkpt>
<trkpt lat="55.702274" lon="26.074537">
<ele>158.775513</ele>
<time>2010-07-17T18:20:04Z</time>
<desc>lat.=55.702274, lon.=26.074537, Alt.=158.775513m. Speed=22.392000m/h.</desc>
<speed>6.220000</speed>
</trkpt>
<trkpt lat="55.702267" lon="26.074631">
<ele>158.775513</ele>
<time>2010-07-17T18:20:05Z</time>
<desc>lat.=55.702267, lon.=26.074631, Alt.=158.775513m. Speed=20.375999m/h.</desc>
<speed>5.660000</speed>
</trkpt>
<trkpt lat="55.702255" lon="26.074715">
<ele>156.677856</ele>
<time>2010-07-17T18:20:06Z</time>
<desc>lat.=55.702255, lon.=26.074715, Alt.=156.677856m. Speed=20.879999m/h.</desc>
<speed>5.800000</speed>
</trkpt>
<trkpt lat="55.702255" lon="26.074799">
<ele>156.435669</ele>
<time>2010-07-17T18:20:07Z</time>
<desc>lat.=55.702255, lon.=26.074799, Alt.=156.435669m. Speed=19.188000m/h.</desc>
<speed>5.330000</speed>
</trkpt>
<trkpt lat="55.702255" lon="26.074881">
<ele>156.146606</ele>
<time>2010-07-17T18:20:08Z</time>
<desc>lat.=55.702255, lon.=26.074881, Alt.=156.146606m. Speed=19.980000m/h.</desc>
<speed>5.550000</speed>
</trkpt>
<trkpt lat="55.702251" lon="26.074965">
<ele>156.232544</ele>
<time>2010-07-17T18:20:09Z</time>
<desc>lat.=55.702251, lon.=26.074965, Alt.=156.232544m. Speed=18.252001m/h.</desc>
<speed>5.070000</speed>
</trkpt>
<trkpt lat="55.702251" lon="26.075037">
<ele>156.185669</ele>
<time>2010-07-17T18:20:10Z</time>
<desc>lat.=55.702251, lon.=26.075037, Alt.=156.185669m. Speed=16.632000m/h.</desc>
<speed>4.620000</speed>
</trkpt>
<trkpt lat="55.702248" lon="26.075111">
<ele>157.865356</ele>
<time>2010-07-17T18:20:11Z</time>
<desc>lat.=55.702248, lon.=26.075111, Alt.=157.865356m. Speed=15.804000m/h.</desc>
<speed>4.390000</speed>
</trkpt>
<trkpt lat="55.702248" lon="26.075176">
<ele>157.896606</ele>
<time>2010-07-17T18:20:12Z</time>
<desc>lat.=55.702248, lon.=26.075176, Alt.=157.896606m. Speed=15.012000m/h.</desc>
<speed>4.170000</speed>
</trkpt>
<trkpt lat="55.702251" lon="26.075239">
<ele>157.521606</ele>
<time>2010-07-17T18:20:13Z</time>
<desc>lat.=55.702251, lon.=26.075239, Alt.=157.521606m. Speed=14.472000m/h.</desc>
<speed>4.020000</speed>
</trkpt>
<trkpt lat="55.702251" lon="26.075302">
<ele>157.009888</ele>
<time>2010-07-17T18:20:14Z</time>
<desc>lat.=55.702251, lon.=26.075302, Alt.=157.009888m. Speed=14.724000m/h.</desc>
<speed>4.090000</speed>
</trkpt>
<trkpt lat="55.702255" lon="26.075373">
<ele>156.306763</ele>
<time>2010-07-17T18:20:15Z</time>
<desc>lat.=55.702255, lon.=26.075373, Alt.=156.306763m. Speed=13.752000m/h.</desc>
<speed>3.820000</speed>
</trkpt>
<trkpt lat="55.702259" lon="26.075434">
<ele>156.353638</ele>
<time>2010-07-17T18:20:16Z</time>
<desc>lat.=55.702259, lon.=26.075434, Alt.=156.353638m. Speed=14.220000m/h.</desc>
<speed>3.950000</speed>
</trkpt>
<trkpt lat="55.702263" lon="26.075500">
<ele>156.380981</ele>
<time>2010-07-17T18:20:17Z</time>
<desc>lat.=55.702263, lon.=26.075500, Alt.=156.380981m. Speed=13.536000m/h.</desc>
<speed>3.760000</speed>
</trkpt>
<trkpt lat="55.702274" lon="26.075558">
<ele>156.728638</ele>
<time>2010-07-17T18:20:18Z</time>
<desc>lat.=55.702274, lon.=26.075558, Alt.=156.728638m. Speed=14.400000m/h.</desc>
<speed>4.000000</speed>
</trkpt>
<trkpt lat="55.702282" lon="26.075623">
<ele>155.908325</ele>
<time>2010-07-17T18:20:19Z</time>
<desc>lat.=55.702282, lon.=26.075623, Alt.=155.908325m. Speed=15.120000m/h.</desc>
<speed>4.200000</speed>
</trkpt>
<trkpt lat="55.702286" lon="26.075686">
<ele>155.478638</ele>
<time>2010-07-17T18:20:20Z</time>
<desc>lat.=55.702286, lon.=26.075686, Alt.=155.478638m. Speed=14.652000m/h.</desc>
<speed>4.070000</speed>
</trkpt>
<trkpt lat="55.702293" lon="26.075752">
<ele>154.912231</ele>
<time>2010-07-17T18:20:21Z</time>
<desc>lat.=55.702293, lon.=26.075752, Alt.=154.912231m. Speed=14.796000m/h.</desc>
<speed>4.110000</speed>
</trkpt>
<trkpt lat="55.702293" lon="26.075823">
<ele>154.990356</ele>
<time>2010-07-17T18:20:22Z</time>
<desc>lat.=55.702293, lon.=26.075823, Alt.=154.990356m. Speed=15.156000m/h.</desc>
<speed>4.210000</speed>
</trkpt>
<trkpt lat="55.702297" lon="26.075890">
<ele>154.283325</ele>
<time>2010-07-17T18:20:23Z</time>
<desc>lat.=55.702297, lon.=26.075890, Alt.=154.283325m. Speed=15.408000m/h.</desc>
<speed>4.280000</speed>
</trkpt>
<trkpt lat="55.702305" lon="26.075968">
<ele>154.201294</ele>
<time>2010-07-17T18:20:24Z</time>
<desc>lat.=55.702305, lon.=26.075968, Alt.=154.201294m. Speed=15.552000m/h.</desc>
<speed>4.320000</speed>
</trkpt>
<trkpt lat="55.702309" lon="26.076042">
<ele>153.865356</ele>
<time>2010-07-17T18:20:25Z</time>
<desc>lat.=55.702309, lon.=26.076042, Alt.=153.865356m. Speed=15.444000m/h.</desc>
<speed>4.290000</speed>
</trkpt>
<trkpt lat="55.702316" lon="26.076109">
<ele>154.134888</ele>
<time>2010-07-17T18:20:26Z</time>
<desc>lat.=55.702316, lon.=26.076109, Alt.=154.134888m. Speed=14.364000m/h.</desc>
<speed>3.990000</speed>
</trkpt>
<trkpt lat="55.702324" lon="26.076176">
<ele>154.138794</ele>
<time>2010-07-17T18:20:27Z</time>
<desc>lat.=55.702324, lon.=26.076176, Alt.=154.138794m. Speed=14.004000m/h.</desc>
<speed>3.890000</speed>
</trkpt>
<trkpt lat="55.702332" lon="26.076246">
<ele>153.982544</ele>
<time>2010-07-17T18:20:28Z</time>
<desc>lat.=55.702332, lon.=26.076246, Alt.=153.982544m. Speed=15.300000m/h.</desc>
<speed>4.250000</speed>
</trkpt>
<trkpt lat="55.702335" lon="26.076313">
<ele>153.849731</ele>
<time>2010-07-17T18:20:29Z</time>
<desc>lat.=55.702335, lon.=26.076313, Alt.=153.849731m. Speed=15.408000m/h.</desc>
<speed>4.280000</speed>
</trkpt>
<trkpt lat="55.702347" lon="26.076382">
<ele>153.974731</ele>
<time>2010-07-17T18:20:30Z</time>
<desc>lat.=55.702347, lon.=26.076382, Alt.=153.974731m. Speed=15.084000m/h.</desc>
<speed>4.190000</speed>
</trkpt>
<trkpt lat="55.702358" lon="26.076448">
<ele>153.908325</ele>
<time>2010-07-17T18:20:31Z</time>
<desc>lat.=55.702358, lon.=26.076448, Alt.=153.908325m. Speed=16.164000m/h.</desc>
<speed>4.490000</speed>
</trkpt>
<trkpt lat="55.702366" lon="26.076532">
<ele>153.380981</ele>
<time>2010-07-17T18:20:32Z</time>
<desc>lat.=55.702366, lon.=26.076532, Alt.=153.380981m. Speed=18.684000m/h.</desc>
<speed>5.190000</speed>
</trkpt>
<trkpt lat="55.702377" lon="26.076609">
<ele>153.552856</ele>
<time>2010-07-17T18:20:33Z</time>
<desc>lat.=55.702377, lon.=26.076609, Alt.=153.552856m. Speed=16.848000m/h.</desc>
<speed>4.680000</speed>
</trkpt>
<trkpt lat="55.702385" lon="26.076679">
<ele>153.388794</ele>
<time>2010-07-17T18:20:34Z</time>
<desc>lat.=55.702385, lon.=26.076679, Alt.=153.388794m. Speed=16.452000m/h.</desc>
<speed>4.570000</speed>
</trkpt>
<trkpt lat="55.702396" lon="26.076746">
<ele>153.353638</ele>
<time>2010-07-17T18:20:35Z</time>
<desc>lat.=55.702396, lon.=26.076746, Alt.=153.353638m. Speed=15.624000m/h.</desc>
<speed>4.340000</speed>
</trkpt>
<trkpt lat="55.702404" lon="26.076813">
<ele>153.287231</ele>
<time>2010-07-17T18:20:36Z</time>
<desc>lat.=55.702404, lon.=26.076813, Alt.=153.287231m. Speed=16.164000m/h.</desc>
<speed>4.490000</speed>
</trkpt>
<trkpt lat="55.702419" lon="26.076881">
<ele>154.752075</ele>
<time>2010-07-17T18:20:37Z</time>
<desc>lat.=55.702419, lon.=26.076881, Alt.=154.752075m. Speed=16.128000m/h.</desc>
<speed>4.480000</speed>
</trkpt>
<trkpt lat="55.702427" lon="26.076962">
<ele>155.318481</ele>
<time>2010-07-17T18:20:38Z</time>
<desc>lat.=55.702427, lon.=26.076962, Alt.=155.318481m. Speed=17.532000m/h.</desc>
<speed>4.870000</speed>
</trkpt>
<trkpt lat="55.702431" lon="26.077038">
<ele>155.849731</ele>
<time>2010-07-17T18:20:39Z</time>
<desc>lat.=55.702431, lon.=26.077038, Alt.=155.849731m. Speed=17.063999m/h.</desc>
<speed>4.740000</speed>
</trkpt>
<trkpt lat="55.702438" lon="26.077118">
<ele>155.744263</ele>
<time>2010-07-17T18:20:40Z</time>
<desc>lat.=55.702438, lon.=26.077118, Alt.=155.744263m. Speed=16.164000m/h.</desc>
<speed>4.490000</speed>
</trkpt>
<trkpt lat="55.702442" lon="26.077185">
<ele>156.709106</ele>
<time>2010-07-17T18:20:41Z</time>
<desc>lat.=55.702442, lon.=26.077185, Alt.=156.709106m. Speed=15.480000m/h.</desc>
<speed>4.300000</speed>
</trkpt>
<trkpt lat="55.702446" lon="26.077251">
<ele>156.963013</ele>
<time>2010-07-17T18:20:42Z</time>
<desc>lat.=55.702446, lon.=26.077251, Alt.=156.963013m. Speed=16.559999m/h.</desc>
<speed>4.600000</speed>
</trkpt>
<trkpt lat="55.702450" lon="26.077328">
<ele>157.728638</ele>
<time>2010-07-17T18:20:43Z</time>
<desc>lat.=55.702450, lon.=26.077328, Alt.=157.728638m. Speed=16.992001m/h.</desc>
<speed>4.720000</speed>
</trkpt>
<trkpt lat="55.702457" lon="26.077404">
<ele>158.271606</ele>
<time>2010-07-17T18:20:44Z</time>
<desc>lat.=55.702457, lon.=26.077404, Alt.=158.271606m. Speed=17.532000m/h.</desc>
<speed>4.870000</speed>
</trkpt>
<trkpt lat="55.702465" lon="26.077484">
<ele>159.197388</ele>
<time>2010-07-17T18:20:45Z</time>
<desc>lat.=55.702465, lon.=26.077484, Alt.=159.197388m. Speed=14.076000m/h.</desc>
<speed>3.910000</speed>
</trkpt>
<trkpt lat="55.702477" lon="26.077547">
<ele>160.568481</ele>
<time>2010-07-17T18:20:46Z</time>
<desc>lat.=55.702477, lon.=26.077547, Alt.=160.568481m. Speed=15.012000m/h.</desc>
<speed>4.170000</speed>
</trkpt>
<trkpt lat="55.702488" lon="26.077606">
<ele>160.490356</ele>
<time>2010-07-17T18:20:47Z</time>
<desc>lat.=55.702488, lon.=26.077606, Alt.=160.490356m. Speed=16.848000m/h.</desc>
<speed>4.680000</speed>
</trkpt>
<trkpt lat="55.702503" lon="26.077677">
<ele>159.295044</ele>
<time>2010-07-17T18:20:48Z</time>
<desc>lat.=55.702503, lon.=26.077677, Alt.=159.295044m. Speed=15.876000m/h.</desc>
<speed>4.410000</speed>
</trkpt>
<trkpt lat="55.702511" lon="26.077740">
<ele>159.291138</ele>
<time>2010-07-17T18:20:49Z</time>
<desc>lat.=55.702511, lon.=26.077740, Alt.=159.291138m. Speed=13.356000m/h.</desc>
<speed>3.710000</speed>
</trkpt>
<trkpt lat="55.702518" lon="26.077816">
<ele>158.447388</ele>
<time>2010-07-17T18:20:50Z</time>
<desc>lat.=55.702518, lon.=26.077816, Alt.=158.447388m. Speed=15.912000m/h.</desc>
<speed>4.420000</speed>
</trkpt>
<trkpt lat="55.702522" lon="26.077885">
<ele>158.498169</ele>
<time>2010-07-17T18:20:51Z</time>
<desc>lat.=55.702522, lon.=26.077885, Alt.=158.498169m. Speed=15.768000m/h.</desc>
<speed>4.380000</speed>
</trkpt>
<trkpt lat="55.702530" lon="26.077953">
<ele>159.185669</ele>
<time>2010-07-17T18:20:52Z</time>
<desc>lat.=55.702530, lon.=26.077953, Alt.=159.185669m. Speed=15.984000m/h.</desc>
<speed>4.440000</speed>
</trkpt>
<trkpt lat="55.702530" lon="26.078032">
<ele>159.408325</ele>
<time>2010-07-17T18:20:53Z</time>
<desc>lat.=55.702530, lon.=26.078032, Alt.=159.408325m. Speed=15.192000m/h.</desc>
<speed>4.220000</speed>
</trkpt>
<trkpt lat="55.702534" lon="26.078106">
<ele>159.224731</ele>
<time>2010-07-17T18:20:54Z</time>
<desc>lat.=55.702534, lon.=26.078106, Alt.=159.224731m. Speed=15.984000m/h.</desc>
<speed>4.440000</speed>
</trkpt>
<trkpt lat="55.702538" lon="26.078182">
<ele>158.752075</ele>
<time>2010-07-17T18:20:55Z</time>
<desc>lat.=55.702538, lon.=26.078182, Alt.=158.752075m. Speed=15.732000m/h.</desc>
<speed>4.370000</speed>
</trkpt>
<trkpt lat="55.702549" lon="26.078260">
<ele>159.107544</ele>
<time>2010-07-17T18:20:56Z</time>
<desc>lat.=55.702549, lon.=26.078260, Alt.=159.107544m. Speed=16.344000m/h.</desc>
<speed>4.540000</speed>
</trkpt>
<trkpt lat="55.702557" lon="26.078333">
<ele>158.978638</ele>
<time>2010-07-17T18:20:57Z</time>
<desc>lat.=55.702557, lon.=26.078333, Alt.=158.978638m. Speed=17.568001m/h.</desc>
<speed>4.880000</speed>
</trkpt>
<trkpt lat="55.702568" lon="26.078415">
<ele>158.611450</ele>
<time>2010-07-17T18:20:58Z</time>
<desc>lat.=55.702568, lon.=26.078415, Alt.=158.611450m. Speed=17.639999m/h.</desc>
<speed>4.900000</speed>
</trkpt>
<trkpt lat="55.702579" lon="26.078497">
<ele>158.548950</ele>
<time>2010-07-17T18:20:59Z</time>
<desc>lat.=55.702579, lon.=26.078497, Alt.=158.548950m. Speed=19.260000m/h.</desc>
<speed>5.350000</speed>
</trkpt>
<trkpt lat="55.702587" lon="26.078592">
<ele>156.787231</ele>
<time>2010-07-17T18:21:00Z</time>
<desc>lat.=55.702587, lon.=26.078592, Alt.=156.787231m. Speed=20.916000m/h.</desc>
<speed>5.810000</speed>
</trkpt>
<trkpt lat="55.702591" lon="26.078680">
<ele>155.498169</ele>
<time>2010-07-17T18:21:01Z</time>
<desc>lat.=55.702591, lon.=26.078680, Alt.=155.498169m. Speed=21.312000m/h.</desc>
<speed>5.920000</speed>
</trkpt>
<trkpt lat="55.702595" lon="26.078770">
<ele>155.529419</ele>
<time>2010-07-17T18:21:02Z</time>
<desc>lat.=55.702595, lon.=26.078770, Alt.=155.529419m. Speed=19.620001m/h.</desc>
<speed>5.450000</speed>
</trkpt>
<trkpt lat="55.702602" lon="26.078857">
<ele>156.334106</ele>
<time>2010-07-17T18:21:03Z</time>
<desc>lat.=55.702602, lon.=26.078857, Alt.=156.334106m. Speed=21.312000m/h.</desc>
<speed>5.920000</speed>
</trkpt>
<trkpt lat="55.702618" lon="26.078934">
<ele>158.443481</ele>
<time>2010-07-17T18:21:04Z</time>
<desc>lat.=55.702618, lon.=26.078934, Alt.=158.443481m. Speed=19.944000m/h.</desc>
<speed>5.540000</speed>
</trkpt>
<trkpt lat="55.702637" lon="26.079027">
<ele>159.392700</ele>
<time>2010-07-17T18:21:05Z</time>
<desc>lat.=55.702637, lon.=26.079027, Alt.=159.392700m. Speed=18.719999m/h.</desc>
<speed>5.200000</speed>
</trkpt>
<trkpt lat="55.702644" lon="26.079105">
<ele>158.619263</ele>
<time>2010-07-17T18:21:06Z</time>
<desc>lat.=55.702644, lon.=26.079105, Alt.=158.619263m. Speed=17.892000m/h.</desc>
<speed>4.970000</speed>
</trkpt>
<trkpt lat="55.702656" lon="26.079178">
<ele>159.334106</ele>
<time>2010-07-17T18:21:07Z</time>
<desc>lat.=55.702656, lon.=26.079178, Alt.=159.334106m. Speed=18.252001m/h.</desc>
<speed>5.070000</speed>
</trkpt>
<trkpt lat="55.702663" lon="26.079245">
<ele>158.763794</ele>
<time>2010-07-17T18:21:08Z</time>
<desc>lat.=55.702663, lon.=26.079245, Alt.=158.763794m. Speed=16.452000m/h.</desc>
<speed>4.570000</speed>
</trkpt>
<trkpt lat="55.702671" lon="26.079321">
<ele>158.392700</ele>
<time>2010-07-17T18:21:09Z</time>
<desc>lat.=55.702671, lon.=26.079321, Alt.=158.392700m. Speed=16.812000m/h.</desc>
<speed>4.670000</speed>
</trkpt>
<trkpt lat="55.702682" lon="26.079401">
<ele>158.783325</ele>
<time>2010-07-17T18:21:10Z</time>
<desc>lat.=55.702682, lon.=26.079401, Alt.=158.783325m. Speed=16.884001m/h.</desc>
<speed>4.690000</speed>
</trkpt>
<trkpt lat="55.702690" lon="26.079468">
<ele>157.795044</ele>
<time>2010-07-17T18:21:11Z</time>
<desc>lat.=55.702690, lon.=26.079468, Alt.=157.795044m. Speed=14.616000m/h.</desc>
<speed>4.060000</speed>
</trkpt>
<trkpt lat="55.702702" lon="26.079529">
<ele>157.533325</ele>
<time>2010-07-17T18:21:12Z</time>
<desc>lat.=55.702702, lon.=26.079529, Alt.=157.533325m. Speed=14.364000m/h.</desc>
<speed>3.990000</speed>
</trkpt>
<trkpt lat="55.702709" lon="26.079584">
<ele>158.099731</ele>
<time>2010-07-17T18:21:13Z</time>
<desc>lat.=55.702709, lon.=26.079584, Alt.=158.099731m. Speed=12.384000m/h.</desc>
<speed>3.440000</speed>
</trkpt>
<trkpt lat="55.702717" lon="26.079641">
<ele>158.646606</ele>
<time>2010-07-17T18:21:14Z</time>
<desc>lat.=55.702717, lon.=26.079641, Alt.=158.646606m. Speed=13.968000m/h.</desc>
<speed>3.880000</speed>
</trkpt>
<trkpt lat="55.702724" lon="26.079697">
<ele>158.841919</ele>
<time>2010-07-17T18:21:15Z</time>
<desc>lat.=55.702724, lon.=26.079697, Alt.=158.841919m. Speed=11.376000m/h.</desc>
<speed>3.160000</speed>
</trkpt>
<trkpt lat="55.702728" lon="26.079739">
<ele>159.857544</ele>
<time>2010-07-17T18:21:16Z</time>
<desc>lat.=55.702728, lon.=26.079739, Alt.=159.857544m. Speed=8.280000m/h.</desc>
<speed>2.300000</speed>
</trkpt>
<trkpt lat="55.702732" lon="26.079784">
<ele>159.420044</ele>
<time>2010-07-17T18:21:17Z</time>
<desc>lat.=55.702732, lon.=26.079784, Alt.=159.420044m. Speed=8.712000m/h.</desc>
<speed>2.420000</speed>
</trkpt>
<trkpt lat="55.702736" lon="26.079817">
<ele>158.787231</ele>
<time>2010-07-17T18:21:18Z</time>
<desc>lat.=55.702736, lon.=26.079817, Alt.=158.787231m. Speed=7.992000m/h.</desc>
<speed>2.220000</speed>
</trkpt>
<trkpt lat="55.702744" lon="26.079855">
<ele>158.888794</ele>
<time>2010-07-17T18:21:19Z</time>
<desc>lat.=55.702744, lon.=26.079855, Alt.=158.888794m. Speed=8.028000m/h.</desc>
<speed>2.230000</speed>
</trkpt>
<trkpt lat="55.702751" lon="26.079884">
<ele>159.029419</ele>
<time>2010-07-17T18:21:20Z</time>
<desc>lat.=55.702751, lon.=26.079884, Alt.=159.029419m. Speed=7.632000m/h.</desc>
<speed>2.120000</speed>
</trkpt>
<trkpt lat="55.702759" lon="26.079916">
<ele>159.490356</ele>
<time>2010-07-17T18:21:21Z</time>
<desc>lat.=55.702759, lon.=26.079916, Alt.=159.490356m. Speed=7.740000m/h.</desc>
<speed>2.150000</speed>
</trkpt>
<trkpt lat="55.702763" lon="26.079945">
<ele>158.130981</ele>
<time>2010-07-17T18:21:22Z</time>
<desc>lat.=55.702763, lon.=26.079945, Alt.=158.130981m. Speed=6.336000m/h.</desc>
<speed>1.760000</speed>
</trkpt>
<trkpt lat="55.702763" lon="26.079967">
<ele>158.068481</ele>
<time>2010-07-17T18:21:23Z</time>
<desc>lat.=55.702763, lon.=26.079967, Alt.=158.068481m. Speed=7.200000m/h.</desc>
<speed>2.000000</speed>
</trkpt>
<trkpt lat="55.702766" lon="26.079992">
<ele>158.373169</ele>
<time>2010-07-17T18:21:24Z</time>
<desc>lat.=55.702766, lon.=26.079992, Alt.=158.373169m. Speed=5.544000m/h.</desc>
<speed>1.540000</speed>
</trkpt>
<trkpt lat="55.702770" lon="26.080017">
<ele>158.595825</ele>
<time>2010-07-17T18:21:25Z</time>
<desc>lat.=55.702770, lon.=26.080017, Alt.=158.595825m. Speed=6.444000m/h.</desc>
<speed>1.790000</speed>
</trkpt>
<trkpt lat="55.702774" lon="26.080048">
<ele>158.759888</ele>
<time>2010-07-17T18:21:26Z</time>
<desc>lat.=55.702774, lon.=26.080048, Alt.=158.759888m. Speed=7.452000m/h.</desc>
<speed>2.070000</speed>
</trkpt>
<trkpt lat="55.702785" lon="26.080093">
<ele>157.744263</ele>
<time>2010-07-17T18:21:27Z</time>
<desc>lat.=55.702785, lon.=26.080093, Alt.=157.744263m. Speed=7.812000m/h.</desc>
<speed>2.170000</speed>
</trkpt>
<trkpt lat="55.702789" lon="26.080124">
<ele>158.232544</ele>
<time>2010-07-17T18:21:28Z</time>
<desc>lat.=55.702789, lon.=26.080124, Alt.=158.232544m. Speed=7.488000m/h.</desc>
<speed>2.080000</speed>
</trkpt>
<trkpt lat="55.702793" lon="26.080154">
<ele>158.298950</ele>
<time>2010-07-17T18:21:29Z</time>
<desc>lat.=55.702793, lon.=26.080154, Alt.=158.298950m. Speed=7.596000m/h.</desc>
<speed>2.110000</speed>
</trkpt>
<trkpt lat="55.702797" lon="26.080187">
<ele>158.658325</ele>
<time>2010-07-17T18:21:30Z</time>
<desc>lat.=55.702797, lon.=26.080187, Alt.=158.658325m. Speed=7.128000m/h.</desc>
<speed>1.980000</speed>
</trkpt>
<trkpt lat="55.702801" lon="26.080215">
<ele>158.998169</ele>
<time>2010-07-17T18:21:31Z</time>
<desc>lat.=55.702801, lon.=26.080215, Alt.=158.998169m. Speed=5.904000m/h.</desc>
<speed>1.640000</speed>
</trkpt>
<trkpt lat="55.702805" lon="26.080242">
<ele>159.341919</ele>
<time>2010-07-17T18:21:32Z</time>
<desc>lat.=55.702805, lon.=26.080242, Alt.=159.341919m. Speed=6.264000m/h.</desc>
<speed>1.740000</speed>
</trkpt>
<trkpt lat="55.702812" lon="26.080276">
<ele>159.791138</ele>
<time>2010-07-17T18:21:33Z</time>
<desc>lat.=55.702812, lon.=26.080276, Alt.=159.791138m. Speed=7.452000m/h.</desc>
<speed>2.070000</speed>
</trkpt>
<trkpt lat="55.702812" lon="26.080305">
<ele>159.787231</ele>
<time>2010-07-17T18:21:34Z</time>
<desc>lat.=55.702812, lon.=26.080305, Alt.=159.787231m. Speed=7.668000m/h.</desc>
<speed>2.130000</speed>
</trkpt>
<trkpt lat="55.702816" lon="26.080345">
<ele>159.900513</ele>
<time>2010-07-17T18:21:35Z</time>
<desc>lat.=55.702816, lon.=26.080345, Alt.=159.900513m. Speed=7.308000m/h.</desc>
<speed>2.030000</speed>
</trkpt>
<trkpt lat="55.702824" lon="26.080374">
<ele>160.185669</ele>
<time>2010-07-17T18:21:36Z</time>
<desc>lat.=55.702824, lon.=26.080374, Alt.=160.185669m. Speed=7.056000m/h.</desc>
<speed>1.960000</speed>
</trkpt>
<trkpt lat="55.702827" lon="26.080420">
<ele>160.377075</ele>
<time>2010-07-17T18:21:37Z</time>
<desc>lat.=55.702827, lon.=26.080420, Alt.=160.377075m. Speed=11.088000m/h.</desc>
<speed>3.080000</speed>
</trkpt>
<trkpt lat="55.702831" lon="26.080477">
<ele>161.091919</ele>
<time>2010-07-17T18:21:38Z</time>
<desc>lat.=55.702831, lon.=26.080477, Alt.=161.091919m. Speed=8.892000m/h.</desc>
<speed>2.470000</speed>
</trkpt>
<trkpt lat="55.702831" lon="26.080515">
<ele>161.283325</ele>
<time>2010-07-17T18:21:39Z</time>
<desc>lat.=55.702831, lon.=26.080515, Alt.=161.283325m. Speed=8.244000m/h.</desc>
<speed>2.290000</speed>
</trkpt>
<trkpt lat="55.702835" lon="26.080557">
<ele>160.783325</ele>
<time>2010-07-17T18:21:40Z</time>
<desc>lat.=55.702835, lon.=26.080557, Alt.=160.783325m. Speed=10.368000m/h.</desc>
<speed>2.880000</speed>
</trkpt>
<trkpt lat="55.702839" lon="26.080608">
<ele>161.127075</ele>
<time>2010-07-17T18:21:41Z</time>
<desc>lat.=55.702839, lon.=26.080608, Alt.=161.127075m. Speed=9.648000m/h.</desc>
<speed>2.680000</speed>
</trkpt>
<trkpt lat="55.702843" lon="26.080648">
<ele>160.716919</ele>
<time>2010-07-17T18:21:42Z</time>
<desc>lat.=55.702843, lon.=26.080648, Alt.=160.716919m. Speed=9.216000m/h.</desc>
<speed>2.560000</speed>
</trkpt>
<trkpt lat="55.702854" lon="26.080690">
<ele>161.595825</ele>
<time>2010-07-17T18:21:43Z</time>
<desc>lat.=55.702854, lon.=26.080690, Alt.=161.595825m. Speed=8.820000m/h.</desc>
<speed>2.450000</speed>
</trkpt>
<trkpt lat="55.702862" lon="26.080740">
<ele>162.013794</ele>
<time>2010-07-17T18:21:44Z</time>
<desc>lat.=55.702862, lon.=26.080740, Alt.=162.013794m. Speed=9.036000m/h.</desc>
<speed>2.510000</speed>
</trkpt>
<trkpt lat="55.702862" lon="26.080786">
<ele>162.396606</ele>
<time>2010-07-17T18:21:45Z</time>
<desc>lat.=55.702862, lon.=26.080786, Alt.=162.396606m. Speed=8.676000m/h.</desc>
<speed>2.410000</speed>
</trkpt>
<trkpt lat="55.702869" lon="26.080822">
<ele>161.611450</ele>
<time>2010-07-17T18:21:46Z</time>
<desc>lat.=55.702869, lon.=26.080822, Alt.=161.611450m. Speed=8.064000m/h.</desc>
<speed>2.240000</speed>
</trkpt>
<trkpt lat="55.702877" lon="26.080851">
<ele>160.642700</ele>
<time>2010-07-17T18:21:47Z</time>
<desc>lat.=55.702877, lon.=26.080851, Alt.=160.642700m. Speed=8.424000m/h.</desc>
<speed>2.340000</speed>
</trkpt>
<trkpt lat="55.702888" lon="26.080881">
<ele>160.822388</ele>
<time>2010-07-17T18:21:48Z</time>
<desc>lat.=55.702888, lon.=26.080881, Alt.=160.822388m. Speed=7.344000m/h.</desc>
<speed>2.040000</speed>
</trkpt>
<trkpt lat="55.702896" lon="26.080921">
<ele>161.677856</ele>
<time>2010-07-17T18:21:49Z</time>
<desc>lat.=55.702896, lon.=26.080921, Alt.=161.677856m. Speed=8.424000m/h.</desc>
<speed>2.340000</speed>
</trkpt>
<trkpt lat="55.702900" lon="26.080959">
<ele>162.072388</ele>
<time>2010-07-17T18:21:50Z</time>
<desc>lat.=55.702900, lon.=26.080959, Alt.=162.072388m. Speed=7.848000m/h.</desc>
<speed>2.180000</speed>
</trkpt>
<trkpt lat="55.702904" lon="26.080994">
<ele>162.841919</ele>
<time>2010-07-17T18:21:51Z</time>
<desc>lat.=55.702904, lon.=26.080994, Alt.=162.841919m. Speed=5.544000m/h.</desc>
<speed>1.540000</speed>
</trkpt>
<trkpt lat="55.702900" lon="26.081024">
<ele>163.142700</ele>
<time>2010-07-17T18:21:52Z</time>
<desc>lat.=55.702900, lon.=26.081024, Alt.=163.142700m. Speed=6.840000m/h.</desc>
<speed>1.900000</speed>
</trkpt>
<trkpt lat="55.702904" lon="26.081064">
<ele>163.017700</ele>
<time>2010-07-17T18:21:53Z</time>
<desc>lat.=55.702904, lon.=26.081064, Alt.=163.017700m. Speed=8.496000m/h.</desc>
<speed>2.360000</speed>
</trkpt>
<trkpt lat="55.702904" lon="26.081104">
<ele>163.314575</ele>
<time>2010-07-17T18:21:54Z</time>
<desc>lat.=55.702904, lon.=26.081104, Alt.=163.314575m. Speed=9.000000m/h.</desc>
<speed>2.500000</speed>
</trkpt>
<trkpt lat="55.702908" lon="26.081135">
<ele>163.740356</ele>
<time>2010-07-17T18:21:55Z</time>
<desc>lat.=55.702908, lon.=26.081135, Alt.=163.740356m. Speed=9.756000m/h.</desc>
<speed>2.710000</speed>
</trkpt>
<trkpt lat="55.702915" lon="26.081184">
<ele>164.634888</ele>
<time>2010-07-17T18:21:56Z</time>
<desc>lat.=55.702915, lon.=26.081184, Alt.=164.634888m. Speed=10.008000m/h.</desc>
<speed>2.780000</speed>
</trkpt>
<trkpt lat="55.702927" lon="26.081224">
<ele>164.880981</ele>
<time>2010-07-17T18:21:57Z</time>
<desc>lat.=55.702927, lon.=26.081224, Alt.=164.880981m. Speed=8.604000m/h.</desc>
<speed>2.390000</speed>
</trkpt>
<trkpt lat="55.702930" lon="26.081272">
<ele>165.005981</ele>
<time>2010-07-17T18:21:58Z</time>
<desc>lat.=55.702930, lon.=26.081272, Alt.=165.005981m. Speed=9.144000m/h.</desc>
<speed>2.540000</speed>
</trkpt>
<trkpt lat="55.702942" lon="26.081318">
<ele>165.478638</ele>
<time>2010-07-17T18:21:59Z</time>
<desc>lat.=55.702942, lon.=26.081318, Alt.=165.478638m. Speed=9.684000m/h.</desc>
<speed>2.690000</speed>
</trkpt>
<trkpt lat="55.702950" lon="26.081362">
<ele>165.595825</ele>
<time>2010-07-17T18:22:00Z</time>
<desc>lat.=55.702950, lon.=26.081362, Alt.=165.595825m. Speed=8.460000m/h.</desc>
<speed>2.350000</speed>
</trkpt>
<trkpt lat="55.702953" lon="26.081400">
<ele>165.373169</ele>
<time>2010-07-17T18:22:01Z</time>
<desc>lat.=55.702953, lon.=26.081400, Alt.=165.373169m. Speed=7.956000m/h.</desc>
<speed>2.210000</speed>
</trkpt>
<trkpt lat="55.702953" lon="26.081436">
<ele>165.193481</ele>
<time>2010-07-17T18:22:02Z</time>
<desc>lat.=55.702953, lon.=26.081436, Alt.=165.193481m. Speed=7.128000m/h.</desc>
<speed>1.980000</speed>
</trkpt>
<trkpt lat="55.702953" lon="26.081482">
<ele>165.002075</ele>
<time>2010-07-17T18:22:03Z</time>
<desc>lat.=55.702953, lon.=26.081482, Alt.=165.002075m. Speed=8.460000m/h.</desc>
<speed>2.350000</speed>
</trkpt>
<trkpt lat="55.702953" lon="26.081524">
<ele>164.955200</ele>
<time>2010-07-17T18:22:04Z</time>
<desc>lat.=55.702953, lon.=26.081524, Alt.=164.955200m. Speed=9.432000m/h.</desc>
<speed>2.620000</speed>
</trkpt>
<trkpt lat="55.702961" lon="26.081585">
<ele>164.576294</ele>
<time>2010-07-17T18:22:05Z</time>
<desc>lat.=55.702961, lon.=26.081585, Alt.=164.576294m. Speed=10.512000m/h.</desc>
<speed>2.920000</speed>
</trkpt>
<trkpt lat="55.702969" lon="26.081635">
<ele>164.709106</ele>
<time>2010-07-17T18:22:06Z</time>
<desc>lat.=55.702969, lon.=26.081635, Alt.=164.709106m. Speed=10.116000m/h.</desc>
<speed>2.810000</speed>
</trkpt>
<trkpt lat="55.702980" lon="26.081684">
<ele>165.115356</ele>
<time>2010-07-17T18:22:07Z</time>
<desc>lat.=55.702980, lon.=26.081684, Alt.=165.115356m. Speed=9.108000m/h.</desc>
<speed>2.530000</speed>
</trkpt>
<trkpt lat="55.702984" lon="26.081736">
<ele>164.220825</ele>
<time>2010-07-17T18:22:08Z</time>
<desc>lat.=55.702984, lon.=26.081736, Alt.=164.220825m. Speed=8.892000m/h.</desc>
<speed>2.470000</speed>
</trkpt>
<trkpt lat="55.702991" lon="26.081778">
<ele>164.552856</ele>
<time>2010-07-17T18:22:09Z</time>
<desc>lat.=55.702991, lon.=26.081778, Alt.=164.552856m. Speed=7.344000m/h.</desc>
<speed>2.040000</speed>
</trkpt>
<trkpt lat="55.702999" lon="26.081820">
<ele>164.814575</ele>
<time>2010-07-17T18:22:10Z</time>
<desc>lat.=55.702999, lon.=26.081820, Alt.=164.814575m. Speed=9.612000m/h.</desc>
<speed>2.670000</speed>
</trkpt>
<trkpt lat="55.703007" lon="26.081860">
<ele>164.998169</ele>
<time>2010-07-17T18:22:11Z</time>
<desc>lat.=55.703007, lon.=26.081860, Alt.=164.998169m. Speed=9.360000m/h.</desc>
<speed>2.600000</speed>
</trkpt>
<trkpt lat="55.703011" lon="26.081913">
<ele>165.373169</ele>
<time>2010-07-17T18:22:12Z</time>
<desc>lat.=55.703011, lon.=26.081913, Alt.=165.373169m. Speed=11.160000m/h.</desc>
<speed>3.100000</speed>
</trkpt>
<trkpt lat="55.703007" lon="26.081964">
<ele>165.478638</ele>
<time>2010-07-17T18:22:13Z</time>
<desc>lat.=55.703007, lon.=26.081964, Alt.=165.478638m. Speed=9.972000m/h.</desc>
<speed>2.770000</speed>
</trkpt>
<trkpt lat="55.703014" lon="26.082020">
<ele>165.435669</ele>
<time>2010-07-17T18:22:14Z</time>
<desc>lat.=55.703014, lon.=26.082020, Alt.=165.435669m. Speed=11.232000m/h.</desc>
<speed>3.120000</speed>
</trkpt>
<trkpt lat="55.703007" lon="26.082100">
<ele>165.267700</ele>
<time>2010-07-17T18:22:15Z</time>
<desc>lat.=55.703007, lon.=26.082100, Alt.=165.267700m. Speed=14.940000m/h.</desc>
<speed>4.150000</speed>
</trkpt>
<trkpt lat="55.703003" lon="26.082184">
<ele>164.388794</ele>
<time>2010-07-17T18:22:16Z</time>
<desc>lat.=55.703003, lon.=26.082184, Alt.=164.388794m. Speed=16.308001m/h.</desc>
<speed>4.530000</speed>
</trkpt>
<trkpt lat="55.703007" lon="26.082272">
<ele>163.998169</ele>
<time>2010-07-17T18:22:17Z</time>
<desc>lat.=55.703007, lon.=26.082272, Alt.=163.998169m. Speed=16.020000m/h.</desc>
<speed>4.450000</speed>
</trkpt>
<trkpt lat="55.703011" lon="26.082354">
<ele>165.150513</ele>
<time>2010-07-17T18:22:18Z</time>
<desc>lat.=55.703011, lon.=26.082354, Alt.=165.150513m. Speed=16.416000m/h.</desc>
<speed>4.560000</speed>
</trkpt>
<trkpt lat="55.703014" lon="26.082441">
<ele>164.880981</ele>
<time>2010-07-17T18:22:19Z</time>
<desc>lat.=55.703014, lon.=26.082441, Alt.=164.880981m. Speed=17.496000m/h.</desc>
<speed>4.860000</speed>
</trkpt>
<trkpt lat="55.703022" lon="26.082518">
<ele>165.177856</ele>
<time>2010-07-17T18:22:20Z</time>
<desc>lat.=55.703022, lon.=26.082518, Alt.=165.177856m. Speed=17.280001m/h.</desc>
<speed>4.800000</speed>
</trkpt>
<trkpt lat="55.703030" lon="26.082609">
<ele>164.826294</ele>
<time>2010-07-17T18:22:21Z</time>
<desc>lat.=55.703030, lon.=26.082609, Alt.=164.826294m. Speed=18.504000m/h.</desc>
<speed>5.140000</speed>
</trkpt>
<trkpt lat="55.703033" lon="26.082684">
<ele>163.064575</ele>
<time>2010-07-17T18:22:22Z</time>
<desc>lat.=55.703033, lon.=26.082684, Alt.=163.064575m. Speed=18.143999m/h.</desc>
<speed>5.040000</speed>
</trkpt>
<trkpt lat="55.703037" lon="26.082762">
<ele>162.009888</ele>
<time>2010-07-17T18:22:23Z</time>
<desc>lat.=55.703037, lon.=26.082762, Alt.=162.009888m. Speed=17.820000m/h.</desc>
<speed>4.950000</speed>
</trkpt>
<trkpt lat="55.703041" lon="26.082844">
<ele>161.154419</ele>
<time>2010-07-17T18:22:24Z</time>
<desc>lat.=55.703041, lon.=26.082844, Alt.=161.154419m. Speed=17.063999m/h.</desc>
<speed>4.740000</speed>
</trkpt>
<trkpt lat="55.703049" lon="26.082924">
<ele>159.947388</ele>
<time>2010-07-17T18:22:25Z</time>
<desc>lat.=55.703049, lon.=26.082924, Alt.=159.947388m. Speed=17.712000m/h.</desc>
<speed>4.920000</speed>
</trkpt>
<trkpt lat="55.703060" lon="26.083006">
<ele>160.056763</ele>
<time>2010-07-17T18:22:26Z</time>
<desc>lat.=55.703060, lon.=26.083006, Alt.=160.056763m. Speed=18.216000m/h.</desc>
<speed>5.060000</speed>
</trkpt>
<trkpt lat="55.703068" lon="26.083080">
<ele>160.119263</ele>
<time>2010-07-17T18:22:27Z</time>
<desc>lat.=55.703068, lon.=26.083080, Alt.=160.119263m. Speed=16.667999m/h.</desc>
<speed>4.630000</speed>
</trkpt>
<trkpt lat="55.703075" lon="26.083147">
<ele>159.541138</ele>
<time>2010-07-17T18:22:28Z</time>
<desc>lat.=55.703075, lon.=26.083147, Alt.=159.541138m. Speed=16.236000m/h.</desc>
<speed>4.510000</speed>
</trkpt>
<trkpt lat="55.703087" lon="26.083216">
<ele>160.244263</ele>
<time>2010-07-17T18:22:29Z</time>
<desc>lat.=55.703087, lon.=26.083216, Alt.=160.244263m. Speed=16.164000m/h.</desc>
<speed>4.490000</speed>
</trkpt>
<trkpt lat="55.703094" lon="26.083275">
<ele>159.463013</ele>
<time>2010-07-17T18:22:30Z</time>
<desc>lat.=55.703094, lon.=26.083275, Alt.=159.463013m. Speed=11.772000m/h.</desc>
<speed>3.270000</speed>
</trkpt>
<trkpt lat="55.703102" lon="26.083328">
<ele>158.931763</ele>
<time>2010-07-17T18:22:31Z</time>
<desc>lat.=55.703102, lon.=26.083328, Alt.=158.931763m. Speed=12.528000m/h.</desc>
<speed>3.480000</speed>
</trkpt>
<trkpt lat="55.703121" lon="26.083385">
<ele>159.423950</ele>
<time>2010-07-17T18:22:32Z</time>
<desc>lat.=55.703121, lon.=26.083385, Alt.=159.423950m. Speed=14.400000m/h.</desc>
<speed>4.000000</speed>
</trkpt>
<trkpt lat="55.703125" lon="26.083447">
<ele>158.951294</ele>
<time>2010-07-17T18:22:33Z</time>
<desc>lat.=55.703125, lon.=26.083447, Alt.=158.951294m. Speed=12.636000m/h.</desc>
<speed>3.510000</speed>
</trkpt>
<trkpt lat="55.703136" lon="26.083494">
<ele>159.478638</ele>
<time>2010-07-17T18:22:34Z</time>
<desc>lat.=55.703136, lon.=26.083494, Alt.=159.478638m. Speed=10.296000m/h.</desc>
<speed>2.860000</speed>
</trkpt>
<trkpt lat="55.703148" lon="26.083561">
<ele>159.791138</ele>
<time>2010-07-17T18:22:35Z</time>
<desc>lat.=55.703148, lon.=26.083561, Alt.=159.791138m. Speed=17.459999m/h.</desc>
<speed>4.850000</speed>
</trkpt>
<trkpt lat="55.703159" lon="26.083643">
<ele>159.795044</ele>
<time>2010-07-17T18:22:36Z</time>
<desc>lat.=55.703159, lon.=26.083643, Alt.=159.795044m. Speed=19.656000m/h.</desc>
<speed>5.460000</speed>
</trkpt>
<trkpt lat="55.703167" lon="26.083729">
<ele>159.486450</ele>
<time>2010-07-17T18:22:37Z</time>
<desc>lat.=55.703167, lon.=26.083729, Alt.=159.486450m. Speed=19.548000m/h.</desc>
<speed>5.430000</speed>
</trkpt>
<trkpt lat="55.703178" lon="26.083813">
<ele>159.322388</ele>
<time>2010-07-17T18:22:38Z</time>
<desc>lat.=55.703178, lon.=26.083813, Alt.=159.322388m. Speed=16.775999m/h.</desc>
<speed>4.660000</speed>
</trkpt>
<trkpt lat="55.703190" lon="26.083874">
<ele>159.529419</ele>
<time>2010-07-17T18:22:39Z</time>
<desc>lat.=55.703190, lon.=26.083874, Alt.=159.529419m. Speed=13.680000m/h.</desc>
<speed>3.800000</speed>
</trkpt>
<trkpt lat="55.703197" lon="26.083925">
<ele>159.545044</ele>
<time>2010-07-17T18:22:40Z</time>
<desc>lat.=55.703197, lon.=26.083925, Alt.=159.545044m. Speed=11.700000m/h.</desc>
<speed>3.250000</speed>
</trkpt>
<trkpt lat="55.703197" lon="26.083986">
<ele>160.248169</ele>
<time>2010-07-17T18:22:41Z</time>
<desc>lat.=55.703197, lon.=26.083986, Alt.=160.248169m. Speed=13.860000m/h.</desc>
<speed>3.850000</speed>
</trkpt>
<trkpt lat="55.703201" lon="26.084051">
<ele>159.759888</ele>
<time>2010-07-17T18:22:42Z</time>
<desc>lat.=55.703201, lon.=26.084051, Alt.=159.759888m. Speed=14.076000m/h.</desc>
<speed>3.910000</speed>
</trkpt>
<trkpt lat="55.703220" lon="26.084139">
<ele>161.634888</ele>
<time>2010-07-17T18:22:43Z</time>
<desc>lat.=55.703220, lon.=26.084139, Alt.=161.634888m. Speed=15.264000m/h.</desc>
<speed>4.240000</speed>
</trkpt>
<trkpt lat="55.703232" lon="26.084215">
<ele>161.400513</ele>
<time>2010-07-17T18:22:44Z</time>
<desc>lat.=55.703232, lon.=26.084215, Alt.=161.400513m. Speed=15.444000m/h.</desc>
<speed>4.290000</speed>
</trkpt>
<trkpt lat="55.703239" lon="26.084299">
<ele>160.369263</ele>
<time>2010-07-17T18:22:45Z</time>
<desc>lat.=55.703239, lon.=26.084299, Alt.=160.369263m. Speed=14.868000m/h.</desc>
<speed>4.130000</speed>
</trkpt>
<trkpt lat="55.703251" lon="26.084394">
<ele>159.943481</ele>
<time>2010-07-17T18:22:46Z</time>
<desc>lat.=55.703251, lon.=26.084394, Alt.=159.943481m. Speed=15.696000m/h.</desc>
<speed>4.360000</speed>
</trkpt>
<trkpt lat="55.703255" lon="26.084475">
<ele>159.666138</ele>
<time>2010-07-17T18:22:47Z</time>
<desc>lat.=55.703255, lon.=26.084475, Alt.=159.666138m. Speed=16.559999m/h.</desc>
<speed>4.600000</speed>
</trkpt>
<trkpt lat="55.703255" lon="26.084553">
<ele>159.474731</ele>
<time>2010-07-17T18:22:48Z</time>
<desc>lat.=55.703255, lon.=26.084553, Alt.=159.474731m. Speed=16.740000m/h.</desc>
<speed>4.650000</speed>
</trkpt>
<trkpt lat="55.703259" lon="26.084637">
<ele>159.322388</ele>
<time>2010-07-17T18:22:49Z</time>
<desc>lat.=55.703259, lon.=26.084637, Alt.=159.322388m. Speed=18.000000m/h.</desc>
<speed>5.000000</speed>
</trkpt>
<trkpt lat="55.703266" lon="26.084723">
<ele>159.134888</ele>
<time>2010-07-17T18:22:50Z</time>
<desc>lat.=55.703266, lon.=26.084723, Alt.=159.134888m. Speed=18.323999m/h.</desc>
<speed>5.090000</speed>
</trkpt>
<trkpt lat="55.703274" lon="26.084808">
<ele>158.080200</ele>
<time>2010-07-17T18:22:51Z</time>
<desc>lat.=55.703274, lon.=26.084808, Alt.=158.080200m. Speed=20.232000m/h.</desc>
<speed>5.620000</speed>
</trkpt>
<trkpt lat="55.703289" lon="26.084898">
<ele>157.666138</ele>
<time>2010-07-17T18:22:52Z</time>
<desc>lat.=55.703289, lon.=26.084898, Alt.=157.666138m. Speed=21.708000m/h.</desc>
<speed>6.030000</speed>
</trkpt>
<trkpt lat="55.703304" lon="26.084990">
<ele>157.713013</ele>
<time>2010-07-17T18:22:53Z</time>
<desc>lat.=55.703304, lon.=26.084990, Alt.=157.713013m. Speed=21.851999m/h.</desc>
<speed>6.070000</speed>
</trkpt>
<trkpt lat="55.703316" lon="26.085089">
<ele>157.619263</ele>
<time>2010-07-17T18:22:54Z</time>
<desc>lat.=55.703316, lon.=26.085089, Alt.=157.619263m. Speed=22.931999m/h.</desc>
<speed>6.370000</speed>
</trkpt>
<trkpt lat="55.703335" lon="26.085211">
<ele>157.193481</ele>
<time>2010-07-17T18:22:55Z</time>
<desc>lat.=55.703335, lon.=26.085211, Alt.=157.193481m. Speed=24.408001m/h.</desc>
<speed>6.780000</speed>
</trkpt>
<trkpt lat="55.703346" lon="26.085316">
<ele>155.666138</ele>
<time>2010-07-17T18:22:56Z</time>
<desc>lat.=55.703346, lon.=26.085316, Alt.=155.666138m. Speed=20.591999m/h.</desc>
<speed>5.720000</speed>
</trkpt>
<trkpt lat="55.703350" lon="26.085390">
<ele>153.963013</ele>
<time>2010-07-17T18:22:57Z</time>
<desc>lat.=55.703350, lon.=26.085390, Alt.=153.963013m. Speed=16.775999m/h.</desc>
<speed>4.660000</speed>
</trkpt>
<trkpt lat="55.703362" lon="26.085449">
<ele>153.517700</ele>
<time>2010-07-17T18:22:58Z</time>
<desc>lat.=55.703362, lon.=26.085449, Alt.=153.517700m. Speed=12.708000m/h.</desc>
<speed>3.530000</speed>
</trkpt>
<trkpt lat="55.703377" lon="26.085512">
<ele>152.513794</ele>
<time>2010-07-17T18:22:59Z</time>
<desc>lat.=55.703377, lon.=26.085512, Alt.=152.513794m. Speed=13.464000m/h.</desc>
<speed>3.740000</speed>
</trkpt>
<trkpt lat="55.703384" lon="26.085567">
<ele>151.779419</ele>
<time>2010-07-17T18:23:00Z</time>
<desc>lat.=55.703384, lon.=26.085567, Alt.=151.779419m. Speed=9.756000m/h.</desc>
<speed>2.710000</speed>
</trkpt>
<trkpt lat="55.703396" lon="26.085611">
<ele>151.259888</ele>
<time>2010-07-17T18:23:01Z</time>
<desc>lat.=55.703396, lon.=26.085611, Alt.=151.259888m. Speed=9.288000m/h.</desc>
<speed>2.580000</speed>
</trkpt>
<trkpt lat="55.703400" lon="26.085644">
<ele>150.791138</ele>
<time>2010-07-17T18:23:02Z</time>
<desc>lat.=55.703400, lon.=26.085644, Alt.=150.791138m. Speed=6.480000m/h.</desc>
<speed>1.800000</speed>
</trkpt>
<trkpt lat="55.703407" lon="26.085667">
<ele>149.845825</ele>
<time>2010-07-17T18:23:03Z</time>
<desc>lat.=55.703407, lon.=26.085667, Alt.=149.845825m. Speed=5.112000m/h.</desc>
<speed>1.420000</speed>
</trkpt>
<trkpt lat="55.703411" lon="26.085686">
<ele>149.853638</ele>
<time>2010-07-17T18:23:04Z</time>
<desc>lat.=55.703411, lon.=26.085686, Alt.=149.853638m. Speed=1.188000m/h.</desc>
<speed>0.330000</speed>
</trkpt>
<trkpt lat="55.703411" lon="26.085688">
<ele>149.966919</ele>
<time>2010-07-17T18:23:05Z</time>
<desc>lat.=55.703411, lon.=26.085688, Alt.=149.966919m. Speed=0.324000m/h.</desc>
<speed>0.090000</speed>
</trkpt>
<trkpt lat="55.703415" lon="26.085678">
<ele>150.677856</ele>
<time>2010-07-17T18:23:06Z</time>
<desc>lat.=55.703415, lon.=26.085678, Alt.=150.677856m. Speed=1.152000m/h.</desc>
<speed>0.320000</speed>
</trkpt>
<trkpt lat="55.703407" lon="26.085672">
<ele>150.560669</ele>
<time>2010-07-17T18:23:07Z</time>
<desc>lat.=55.703407, lon.=26.085672, Alt.=150.560669m. Speed=1.080000m/h.</desc>
<speed>0.300000</speed>
</trkpt>
<trkpt lat="55.703403" lon="26.085669">
<ele>150.287231</ele>
<time>2010-07-17T18:23:08Z</time>
<desc>lat.=55.703403, lon.=26.085669, Alt.=150.287231m. Speed=0.540000m/h.</desc>
<speed>0.150000</speed>
</trkpt>
<trkpt lat="55.703403" lon="26.085670">
<ele>150.088013</ele>
<time>2010-07-17T18:23:09Z</time>
<desc>lat.=55.703403, lon.=26.085670, Alt.=150.088013m. Speed=0.360000m/h.</desc>
<speed>0.100000</speed>
</trkpt>
<trkpt lat="55.703403" lon="26.085670">
<ele>150.005981</ele>
<time>2010-07-17T18:23:10Z</time>
<desc>lat.=55.703403, lon.=26.085670, Alt.=150.005981m. Speed=0.036000m/h.</desc>
<speed>0.010000</speed>
</trkpt>
<trkpt lat="55.703403" lon="26.085670">
<ele>150.002075</ele>
<time>2010-07-17T18:23:11Z</time>
<desc>lat.=55.703403, lon.=26.085670, Alt.=150.002075m. Speed=0.000000m/h.</desc>
<speed>0.000000</speed>
</trkpt>
<trkpt lat="55.703403" lon="26.085670">
<ele>149.998169</ele>
<time>2010-07-17T18:23:12Z</time>
<desc>lat.=55.703403, lon.=26.085670, Alt.=149.998169m. Speed=0.000000m/h.</desc>
<speed>0.000000</speed>
</trkpt>
<trkpt lat="55.703403" lon="26.085670">
<ele>150.002075</ele>
<time>2010-07-17T18:23:13Z</time>
<desc>lat.=55.703403, lon.=26.085670, Alt.=150.002075m. Speed=0.036000m/h.</desc>
<speed>0.010000</speed>
</trkpt>
<trkpt lat="55.703403" lon="26.085669">
<ele>150.009888</ele>
<time>2010-07-17T18:23:14Z</time>
<desc>lat.=55.703403, lon.=26.085669, Alt.=150.009888m. Speed=0.000000m/h.</desc>
<speed>0.000000</speed>
</trkpt>
<trkpt lat="55.703403" lon="26.085669">
<ele>150.021606</ele>
<time>2010-07-17T18:23:15Z</time>
<desc>lat.=55.703403, lon.=26.085669, Alt.=150.021606m. Speed=0.000000m/h.</desc>
<speed>0.000000</speed>
</trkpt>
<trkpt lat="55.703403" lon="26.085669">
<ele>150.021606</ele>
<time>2010-07-17T18:23:16Z</time>
<desc>lat.=55.703403, lon.=26.085669, Alt.=150.021606m. Speed=0.036000m/h.</desc>
<speed>0.010000</speed>
</trkpt>
<trkpt lat="55.703403" lon="26.085669">
<ele>150.017700</ele>
<time>2010-07-17T18:23:17Z</time>
<desc>lat.=55.703403, lon.=26.085669, Alt.=150.017700m. Speed=0.000000m/h.</desc>
<speed>0.000000</speed>
</trkpt>
<trkpt lat="55.703403" lon="26.085669">
<ele>150.025513</ele>
<time>2010-07-17T18:23:18Z</time>
<desc>lat.=55.703403, lon.=26.085669, Alt.=150.025513m. Speed=0.036000m/h.</desc>
<speed>0.010000</speed>
</trkpt>
<trkpt lat="55.703403" lon="26.085669">
<ele>150.029419</ele>
<time>2010-07-17T18:23:19Z</time>
<desc>lat.=55.703403, lon.=26.085669, Alt.=150.029419m. Speed=0.072000m/h.</desc>
<speed>0.020000</speed>
</trkpt>
<trkpt lat="55.703403" lon="26.085669">
<ele>150.033325</ele>
<time>2010-07-17T18:23:20Z</time>
<desc>lat.=55.703403, lon.=26.085669, Alt.=150.033325m. Speed=0.036000m/h.</desc>
<speed>0.010000</speed>
</trkpt>
<trkpt lat="55.703403" lon="26.085669">
<ele>150.013794</ele>
<time>2010-07-17T18:23:21Z</time>
<desc>lat.=55.703403, lon.=26.085669, Alt.=150.013794m. Speed=0.000000m/h.</desc>
<speed>0.000000</speed>
</trkpt>
<trkpt lat="55.703403" lon="26.085669">
<ele>149.994263</ele>
<time>2010-07-17T18:23:22Z</time>
<desc>lat.=55.703403, lon.=26.085669, Alt.=149.994263m. Speed=0.000000m/h.</desc>
<speed>0.000000</speed>
</trkpt>
<trkpt lat="55.703403" lon="26.085669">
<ele>150.009888</ele>
<time>2010-07-17T18:23:23Z</time>
<desc>lat.=55.703403, lon.=26.085669, Alt.=150.009888m. Speed=0.000000m/h.</desc>
<speed>0.000000</speed>
</trkpt>
<trkpt lat="55.703403" lon="26.085669">
<ele>150.021606</ele>
<time>2010-07-17T18:23:24Z</time>
<desc>lat.=55.703403, lon.=26.085669, Alt.=150.021606m. Speed=0.036000m/h.</desc>
<speed>0.010000</speed>
</trkpt>
<trkpt lat="55.703403" lon="26.085669">
<ele>150.048950</ele>
<time>2010-07-17T18:23:25Z</time>
<desc>lat.=55.703403, lon.=26.085669, Alt.=150.048950m. Speed=0.036000m/h.</desc>
<speed>0.010000</speed>
</trkpt>
<trkpt lat="55.703403" lon="26.085669">
<ele>150.056763</ele>
<time>2010-07-17T18:23:26Z</time>
<desc>lat.=55.703403, lon.=26.085669, Alt.=150.056763m. Speed=0.000000m/h.</desc>
<speed>0.000000</speed>
</trkpt>
<trkpt lat="55.703403" lon="26.085667">
<ele>150.064575</ele>
<time>2010-07-17T18:23:27Z</time>
<desc>lat.=55.703403, lon.=26.085667, Alt.=150.064575m. Speed=0.000000m/h.</desc>
<speed>0.000000</speed>
</trkpt>
<trkpt lat="55.703403" lon="26.085669">
<ele>150.064575</ele>
<time>2010-07-17T18:23:28Z</time>
<desc>lat.=55.703403, lon.=26.085669, Alt.=150.064575m. Speed=0.000000m/h.</desc>
<speed>0.000000</speed>
</trkpt>
<trkpt lat="55.703407" lon="26.085669">
<ele>150.064575</ele>
<time>2010-07-17T18:23:29Z</time>
<desc>lat.=55.703407, lon.=26.085669, Alt.=150.064575m. Speed=0.000000m/h.</desc>
<speed>0.000000</speed>
</trkpt>
<trkpt lat="55.703407" lon="26.085669">
<ele>150.068481</ele>
<time>2010-07-17T18:23:30Z</time>
<desc>lat.=55.703407, lon.=26.085669, Alt.=150.068481m. Speed=0.000000m/h.</desc>
<speed>0.000000</speed>
</trkpt>
<trkpt lat="55.703403" lon="26.085669">
<ele>150.068481</ele>
<time>2010-07-17T18:23:31Z</time>
<desc>lat.=55.703403, lon.=26.085669, Alt.=150.068481m. Speed=0.000000m/h.</desc>
<speed>0.000000</speed>
</trkpt>
<trkpt lat="55.703407" lon="26.085667">
<ele>150.076294</ele>
<time>2010-07-17T18:23:32Z</time>
<desc>lat.=55.703407, lon.=26.085667, Alt.=150.076294m. Speed=0.000000m/h.</desc>
<speed>0.000000</speed>
</trkpt>
<trkpt lat="55.703403" lon="26.085667">
<ele>150.088013</ele>
<time>2010-07-17T18:23:33Z</time>
<desc>lat.=55.703403, lon.=26.085667, Alt.=150.088013m. Speed=0.036000m/h.</desc>
<speed>0.010000</speed>
</trkpt>
<trkpt lat="55.703407" lon="26.085667">
<ele>150.095825</ele>
<time>2010-07-17T18:23:34Z</time>
<desc>lat.=55.703407, lon.=26.085667, Alt.=150.095825m. Speed=0.000000m/h.</desc>
<speed>0.000000</speed>
</trkpt>
<trkpt lat="55.703407" lon="26.085667">
<ele>150.103638</ele>
<time>2010-07-17T18:23:35Z</time>
<desc>lat.=55.703407, lon.=26.085667, Alt.=150.103638m. Speed=0.072000m/h.</desc>
<speed>0.020000</speed>
</trkpt>
<trkpt lat="55.703403" lon="26.085667">
<ele>150.103638</ele>
<time>2010-07-17T18:23:36Z</time>
<desc>lat.=55.703403, lon.=26.085667, Alt.=150.103638m. Speed=0.000000m/h.</desc>
<speed>0.000000</speed>
</trkpt>
<trkpt lat="55.703403" lon="26.085667">
<ele>150.103638</ele>
<time>2010-07-17T18:23:37Z</time>
<desc>lat.=55.703403, lon.=26.085667, Alt.=150.103638m. Speed=0.000000m/h.</desc>
<speed>0.000000</speed>
</trkpt>
<trkpt lat="55.703403" lon="26.085669">
<ele>150.099731</ele>
<time>2010-07-17T18:23:38Z</time>
<desc>lat.=55.703403, lon.=26.085669, Alt.=150.099731m. Speed=0.000000m/h.</desc>
<speed>0.000000</speed>
</trkpt>
<trkpt lat="55.703403" lon="26.085667">
<ele>150.099731</ele>
<time>2010-07-17T18:23:39Z</time>
<desc>lat.=55.703403, lon.=26.085667, Alt.=150.099731m. Speed=0.072000m/h.</desc>
<speed>0.020000</speed>
</trkpt>
<trkpt lat="55.703403" lon="26.085667">
<ele>150.099731</ele>
<time>2010-07-17T18:23:40Z</time>
<desc>lat.=55.703403, lon.=26.085667, Alt.=150.099731m. Speed=0.036000m/h.</desc>
<speed>0.010000</speed>
</trkpt>
<trkpt lat="55.703403" lon="26.085667">
<ele>150.099731</ele>
<time>2010-07-17T18:23:41Z</time>
<desc>lat.=55.703403, lon.=26.085667, Alt.=150.099731m. Speed=0.036000m/h.</desc>
<speed>0.010000</speed>
</trkpt>
<trkpt lat="55.703403" lon="26.085667">
<ele>150.099731</ele>
<time>2010-07-17T18:23:42Z</time>
<desc>lat.=55.703403, lon.=26.085667, Alt.=150.099731m. Speed=0.036000m/h.</desc>
<speed>0.010000</speed>
</trkpt>
<trkpt lat="55.703403" lon="26.085667">
<ele>150.103638</ele>
<time>2010-07-17T18:23:43Z</time>
<desc>lat.=55.703403, lon.=26.085667, Alt.=150.103638m. Speed=0.000000m/h.</desc>
<speed>0.000000</speed>
</trkpt>
<trkpt lat="55.703403" lon="26.085667">
<ele>150.099731</ele>
<time>2010-07-17T18:23:44Z</time>
<desc>lat.=55.703403, lon.=26.085667, Alt.=150.099731m. Speed=0.036000m/h.</desc>
<speed>0.010000</speed>
</trkpt>
<trkpt lat="55.703403" lon="26.085667">
<ele>150.099731</ele>
<time>2010-07-17T18:23:45Z</time>
<desc>lat.=55.703403, lon.=26.085667, Alt.=150.099731m. Speed=0.000000m/h.</desc>
<speed>0.000000</speed>
</trkpt>
<trkpt lat="55.703403" lon="26.085667">
<ele>150.103638</ele>
<time>2010-07-17T18:23:46Z</time>
<desc>lat.=55.703403, lon.=26.085667, Alt.=150.103638m. Speed=0.000000m/h.</desc>
<speed>0.000000</speed>
</trkpt>
<trkpt lat="55.703403" lon="26.085669">
<ele>150.111450</ele>
<time>2010-07-17T18:23:47Z</time>
<desc>lat.=55.703403, lon.=26.085669, Alt.=150.111450m. Speed=0.036000m/h.</desc>
<speed>0.010000</speed>
</trkpt>
<trkpt lat="55.703403" lon="26.085667">
<ele>150.115356</ele>
<time>2010-07-17T18:23:48Z</time>
<desc>lat.=55.703403, lon.=26.085667, Alt.=150.115356m. Speed=0.036000m/h.</desc>
<speed>0.010000</speed>
</trkpt>
<trkpt lat="55.703403" lon="26.085669">
<ele>150.111450</ele>
<time>2010-07-17T18:23:49Z</time>
<desc>lat.=55.703403, lon.=26.085669, Alt.=150.111450m. Speed=0.072000m/h.</desc>
<speed>0.020000</speed>
</trkpt>
<trkpt lat="55.703403" lon="26.085669">
<ele>150.115356</ele>
<time>2010-07-17T18:23:50Z</time>
<desc>lat.=55.703403, lon.=26.085669, Alt.=150.115356m. Speed=0.036000m/h.</desc>
<speed>0.010000</speed>
</trkpt>
<trkpt lat="55.703403" lon="26.085669">
<ele>150.111450</ele>
<time>2010-07-17T18:23:51Z</time>
<desc>lat.=55.703403, lon.=26.085669, Alt.=150.111450m. Speed=0.072000m/h.</desc>
<speed>0.020000</speed>
</trkpt>
<trkpt lat="55.703403" lon="26.085669">
<ele>150.115356</ele>
<time>2010-07-17T18:23:52Z</time>
<desc>lat.=55.703403, lon.=26.085669, Alt.=150.115356m. Speed=0.000000m/h.</desc>
<speed>0.000000</speed>
</trkpt>
<trkpt lat="55.703403" lon="26.085669">
<ele>150.119263</ele>
<time>2010-07-17T18:23:53Z</time>
<desc>lat.=55.703403, lon.=26.085669, Alt.=150.119263m. Speed=0.036000m/h.</desc>
<speed>0.010000</speed>
</trkpt>
<trkpt lat="55.703407" lon="26.085669">
<ele>150.119263</ele>
<time>2010-07-17T18:23:54Z</time>
<desc>lat.=55.703407, lon.=26.085669, Alt.=150.119263m. Speed=0.036000m/h.</desc>
<speed>0.010000</speed>
</trkpt>
<trkpt lat="55.703407" lon="26.085669">
<ele>150.123169</ele>
<time>2010-07-17T18:23:55Z</time>
<desc>lat.=55.703407, lon.=26.085669, Alt.=150.123169m. Speed=0.000000m/h.</desc>
<speed>0.000000</speed>
</trkpt>
<trkpt lat="55.703407" lon="26.085669">
<ele>150.127075</ele>
<time>2010-07-17T18:23:56Z</time>
<desc>lat.=55.703407, lon.=26.085669, Alt.=150.127075m. Speed=0.036000m/h.</desc>
<speed>0.010000</speed>
</trkpt>
<trkpt lat="55.703407" lon="26.085669">
<ele>150.130981</ele>
<time>2010-07-17T18:23:57Z</time>
<desc>lat.=55.703407, lon.=26.085669, Alt.=150.130981m. Speed=0.036000m/h.</desc>
<speed>0.010000</speed>
</trkpt>
<trkpt lat="55.703407" lon="26.085669">
<ele>150.130981</ele>
<time>2010-07-17T18:23:58Z</time>
<desc>lat.=55.703407, lon.=26.085669, Alt.=150.130981m. Speed=0.036000m/h.</desc>
<speed>0.010000</speed>
</trkpt>
<trkpt lat="55.703407" lon="26.085669">
<ele>150.130981</ele>
<time>2010-07-17T18:23:59Z</time>
<desc>lat.=55.703407, lon.=26.085669, Alt.=150.130981m. Speed=0.036000m/h.</desc>
<speed>0.010000</speed>
</trkpt>
<trkpt lat="55.703407" lon="26.085669">
<ele>150.130981</ele>
<time>2010-07-17T18:24:00Z</time>
<desc>lat.=55.703407, lon.=26.085669, Alt.=150.130981m. Speed=0.000000m/h.</desc>
<speed>0.000000</speed>
</trkpt>
<trkpt lat="55.703407" lon="26.085669">
<ele>150.134888</ele>
<time>2010-07-17T18:24:01Z</time>
<desc>lat.=55.703407, lon.=26.085669, Alt.=150.134888m. Speed=0.036000m/h.</desc>
<speed>0.010000</speed>
</trkpt>
<trkpt lat="55.703407" lon="26.085669">
<ele>150.134888</ele>
<time>2010-07-17T18:24:02Z</time>
<desc>lat.=55.703407, lon.=26.085669, Alt.=150.134888m. Speed=0.000000m/h.</desc>
<speed>0.000000</speed>
</trkpt>
<trkpt lat="55.703403" lon="26.085669">
<ele>150.134888</ele>
<time>2010-07-17T18:24:03Z</time>
<desc>lat.=55.703403, lon.=26.085669, Alt.=150.134888m. Speed=0.036000m/h.</desc>
<speed>0.010000</speed>
</trkpt>
<trkpt lat="55.703403" lon="26.085669">
<ele>150.134888</ele>
<time>2010-07-17T18:24:04Z</time>
<desc>lat.=55.703403, lon.=26.085669, Alt.=150.134888m. Speed=0.036000m/h.</desc>
<speed>0.010000</speed>
</trkpt>
<trkpt lat="55.703403" lon="26.085669">
<ele>150.134888</ele>
<time>2010-07-17T18:24:05Z</time>
<desc>lat.=55.703403, lon.=26.085669, Alt.=150.134888m. Speed=0.000000m/h.</desc>
<speed>0.000000</speed>
</trkpt>
<trkpt lat="55.703403" lon="26.085669">
<ele>150.134888</ele>
<time>2010-07-17T18:24:06Z</time>
<desc>lat.=55.703403, lon.=26.085669, Alt.=150.134888m. Speed=0.000000m/h.</desc>
<speed>0.000000</speed>
</trkpt>
<trkpt lat="55.703403" lon="26.085669">
<ele>150.134888</ele>
<time>2010-07-17T18:24:07Z</time>
<desc>lat.=55.703403, lon.=26.085669, Alt.=150.134888m. Speed=0.000000m/h.</desc>
<speed>0.000000</speed>
</trkpt>
<trkpt lat="55.703403" lon="26.085669">
<ele>150.134888</ele>
<time>2010-07-17T18:24:08Z</time>
<desc>lat.=55.703403, lon.=26.085669, Alt.=150.134888m. Speed=0.036000m/h.</desc>
<speed>0.010000</speed>
</trkpt>
<trkpt lat="55.703403" lon="26.085669">
<ele>150.138794</ele>
<time>2010-07-17T18:24:09Z</time>
<desc>lat.=55.703403, lon.=26.085669, Alt.=150.138794m. Speed=0.036000m/h.</desc>
<speed>0.010000</speed>
</trkpt>
<trkpt lat="55.703403" lon="26.085669">
<ele>150.138794</ele>
<time>2010-07-17T18:24:10Z</time>
<desc>lat.=55.703403, lon.=26.085669, Alt.=150.138794m. Speed=0.000000m/h.</desc>
<speed>0.000000</speed>
</trkpt>
<trkpt lat="55.703403" lon="26.085669">
<ele>150.138794</ele>
<time>2010-07-17T18:24:11Z</time>
<desc>lat.=55.703403, lon.=26.085669, Alt.=150.138794m. Speed=0.072000m/h.</desc>
<speed>0.020000</speed>
</trkpt>
<trkpt lat="55.703403" lon="26.085669">
<ele>150.138794</ele>
<time>2010-07-17T18:24:12Z</time>
<desc>lat.=55.703403, lon.=26.085669, Alt.=150.138794m. Speed=0.036000m/h.</desc>
<speed>0.010000</speed>
</trkpt>
<trkpt lat="55.703403" lon="26.085669">
<ele>150.138794</ele>
<time>2010-07-17T18:24:13Z</time>
<desc>lat.=55.703403, lon.=26.085669, Alt.=150.138794m. Speed=0.000000m/h.</desc>
<speed>0.000000</speed>
</trkpt>
<trkpt lat="55.703403" lon="26.085669">
<ele>150.138794</ele>
<time>2010-07-17T18:24:14Z</time>
<desc>lat.=55.703403, lon.=26.085669, Alt.=150.138794m. Speed=0.000000m/h.</desc>
<speed>0.000000</speed>
</trkpt>
<trkpt lat="55.703407" lon="26.085669">
<ele>150.142700</ele>
<time>2010-07-17T18:24:15Z</time>
<desc>lat.=55.703407, lon.=26.085669, Alt.=150.142700m. Speed=0.000000m/h.</desc>
<speed>0.000000</speed>
</trkpt>
<trkpt lat="55.703407" lon="26.085669">
<ele>150.142700</ele>
<time>2010-07-17T18:24:16Z</time>
<desc>lat.=55.703407, lon.=26.085669, Alt.=150.142700m. Speed=0.036000m/h.</desc>
<speed>0.010000</speed>
</trkpt>
<trkpt lat="55.703407" lon="26.085669">
<ele>150.146606</ele>
<time>2010-07-17T18:24:17Z</time>
<desc>lat.=55.703407, lon.=26.085669, Alt.=150.146606m. Speed=0.000000m/h.</desc>
<speed>0.000000</speed>
</trkpt>
<trkpt lat="55.703407" lon="26.085669">
<ele>150.150513</ele>
<time>2010-07-17T18:24:18Z</time>
<desc>lat.=55.703407, lon.=26.085669, Alt.=150.150513m. Speed=0.036000m/h.</desc>
<speed>0.010000</speed>
</trkpt>
<trkpt lat="55.703407" lon="26.085669">
<ele>150.154419</ele>
<time>2010-07-17T18:24:19Z</time>
<desc>lat.=55.703407, lon.=26.085669, Alt.=150.154419m. Speed=0.036000m/h.</desc>
<speed>0.010000</speed>
</trkpt>
<trkpt lat="55.703407" lon="26.085670">
<ele>150.158325</ele>
<time>2010-07-17T18:24:20Z</time>
<desc>lat.=55.703407, lon.=26.085670, Alt.=150.158325m. Speed=0.000000m/h.</desc>
<speed>0.000000</speed>
</trkpt>
<trkpt lat="55.703407" lon="26.085670">
<ele>150.162231</ele>
<time>2010-07-17T18:24:21Z</time>
<desc>lat.=55.703407, lon.=26.085670, Alt.=150.162231m. Speed=0.036000m/h.</desc>
<speed>0.010000</speed>
</trkpt>
<trkpt lat="55.703407" lon="26.085670">
<ele>150.170044</ele>
<time>2010-07-17T18:24:22Z</time>
<desc>lat.=55.703407, lon.=26.085670, Alt.=150.170044m. Speed=0.036000m/h.</desc>
<speed>0.010000</speed>
</trkpt>
<trkpt lat="55.703407" lon="26.085670">
<ele>150.173950</ele>
<time>2010-07-17T18:24:23Z</time>
<desc>lat.=55.703407, lon.=26.085670, Alt.=150.173950m. Speed=0.000000m/h.</desc>
<speed>0.000000</speed>
</trkpt>
<trkpt lat="55.703407" lon="26.085670">
<ele>150.173950</ele>
<time>2010-07-17T18:24:24Z</time>
<desc>lat.=55.703407, lon.=26.085670, Alt.=150.173950m. Speed=0.000000m/h.</desc>
<speed>0.000000</speed>
</trkpt>
<trkpt lat="55.703407" lon="26.085670">
<ele>150.177856</ele>
<time>2010-07-17T18:24:25Z</time>
<desc>lat.=55.703407, lon.=26.085670, Alt.=150.177856m. Speed=0.000000m/h.</desc>
<speed>0.000000</speed>
</trkpt>
<trkpt lat="55.703407" lon="26.085670">
<ele>150.181763</ele>
<time>2010-07-17T18:24:26Z</time>
<desc>lat.=55.703407, lon.=26.085670, Alt.=150.181763m. Speed=0.000000m/h.</desc>
<speed>0.000000</speed>
</trkpt>
<trkpt lat="55.703407" lon="26.085670">
<ele>150.181763</ele>
<time>2010-07-17T18:24:27Z</time>
<desc>lat.=55.703407, lon.=26.085670, Alt.=150.181763m. Speed=0.072000m/h.</desc>
<speed>0.020000</speed>
</trkpt>
<trkpt lat="55.703407" lon="26.085670">
<ele>150.185669</ele>
<time>2010-07-17T18:24:28Z</time>
<desc>lat.=55.703407, lon.=26.085670, Alt.=150.185669m. Speed=0.072000m/h.</desc>
<speed>0.020000</speed>
</trkpt>
<trkpt lat="55.703407" lon="26.085670">
<ele>150.185669</ele>
<time>2010-07-17T18:24:29Z</time>
<desc>lat.=55.703407, lon.=26.085670, Alt.=150.185669m. Speed=0.000000m/h.</desc>
<speed>0.000000</speed>
</trkpt>
<trkpt lat="55.703407" lon="26.085670">
<ele>150.189575</ele>
<time>2010-07-17T18:24:30Z</time>
<desc>lat.=55.703407, lon.=26.085670, Alt.=150.189575m. Speed=0.036000m/h.</desc>
<speed>0.010000</speed>
</trkpt>
<trkpt lat="55.703407" lon="26.085670">
<ele>150.193481</ele>
<time>2010-07-17T18:24:31Z</time>
<desc>lat.=55.703407, lon.=26.085670, Alt.=150.193481m. Speed=0.000000m/h.</desc>
<speed>0.000000</speed>
</trkpt>
<trkpt lat="55.703407" lon="26.085670">
<ele>150.197388</ele>
<time>2010-07-17T18:24:32Z</time>
<desc>lat.=55.703407, lon.=26.085670, Alt.=150.197388m. Speed=0.000000m/h.</desc>
<speed>0.000000</speed>
</trkpt>
<trkpt lat="55.703407" lon="26.085670">
<ele>150.197388</ele>
<time>2010-07-17T18:24:33Z</time>
<desc>lat.=55.703407, lon.=26.085670, Alt.=150.197388m. Speed=0.000000m/h.</desc>
<speed>0.000000</speed>
</trkpt>
<trkpt lat="55.703407" lon="26.085670">
<ele>150.201294</ele>
<time>2010-07-17T18:24:34Z</time>
<desc>lat.=55.703407, lon.=26.085670, Alt.=150.201294m. Speed=0.000000m/h.</desc>
<speed>0.000000</speed>
</trkpt>
<trkpt lat="55.703407" lon="26.085670">
<ele>150.201294</ele>
<time>2010-07-17T18:24:35Z</time>
<desc>lat.=55.703407, lon.=26.085670, Alt.=150.201294m. Speed=0.072000m/h.</desc>
<speed>0.020000</speed>
</trkpt>
<trkpt lat="55.703407" lon="26.085670">
<ele>150.201294</ele>
<time>2010-07-17T18:24:36Z</time>
<desc>lat.=55.703407, lon.=26.085670, Alt.=150.201294m. Speed=0.036000m/h.</desc>
<speed>0.010000</speed>
</trkpt>
<trkpt lat="55.703407" lon="26.085670">
<ele>150.201294</ele>
<time>2010-07-17T18:24:37Z</time>
<desc>lat.=55.703407, lon.=26.085670, Alt.=150.201294m. Speed=0.000000m/h.</desc>
<speed>0.000000</speed>
</trkpt>
<trkpt lat="55.703407" lon="26.085670">
<ele>150.201294</ele>
<time>2010-07-17T18:24:38Z</time>
<desc>lat.=55.703407, lon.=26.085670, Alt.=150.201294m. Speed=0.072000m/h.</desc>
<speed>0.020000</speed>
</trkpt>
<trkpt lat="55.703407" lon="26.085670">
<ele>150.201294</ele>
<time>2010-07-17T18:24:39Z</time>
<desc>lat.=55.703407, lon.=26.085670, Alt.=150.201294m. Speed=0.108000m/h.</desc>
<speed>0.030000</speed>
</trkpt>
<trkpt lat="55.703407" lon="26.085670">
<ele>150.209106</ele>
<time>2010-07-17T18:24:40Z</time>
<desc>lat.=55.703407, lon.=26.085670, Alt.=150.209106m. Speed=0.000000m/h.</desc>
<speed>0.000000</speed>
</trkpt>
<trkpt lat="55.703407" lon="26.085670">
<ele>150.209106</ele>
<time>2010-07-17T18:24:41Z</time>
<desc>lat.=55.703407, lon.=26.085670, Alt.=150.209106m. Speed=0.000000m/h.</desc>
<speed>0.000000</speed>
</trkpt>
<trkpt lat="55.703407" lon="26.085670">
<ele>150.216919</ele>
<time>2010-07-17T18:24:42Z</time>
<desc>lat.=55.703407, lon.=26.085670, Alt.=150.216919m. Speed=0.000000m/h.</desc>
<speed>0.000000</speed>
</trkpt>
<trkpt lat="55.703407" lon="26.085670">
<ele>150.220825</ele>
<time>2010-07-17T18:24:43Z</time>
<desc>lat.=55.703407, lon.=26.085670, Alt.=150.220825m. Speed=0.036000m/h.</desc>
<speed>0.010000</speed>
</trkpt>
<trkpt lat="55.703407" lon="26.085670">
<ele>150.220825</ele>
<time>2010-07-17T18:24:44Z</time>
<desc>lat.=55.703407, lon.=26.085670, Alt.=150.220825m. Speed=0.108000m/h.</desc>
<speed>0.030000</speed>
</trkpt>
<trkpt lat="55.703407" lon="26.085670">
<ele>150.224731</ele>
<time>2010-07-17T18:24:45Z</time>
<desc>lat.=55.703407, lon.=26.085670, Alt.=150.224731m. Speed=0.000000m/h.</desc>
<speed>0.000000</speed>
</trkpt>
<trkpt lat="55.703407" lon="26.085670">
<ele>150.228638</ele>
<time>2010-07-17T18:24:46Z</time>
<desc>lat.=55.703407, lon.=26.085670, Alt.=150.228638m. Speed=0.000000m/h.</desc>
<speed>0.000000</speed>
</trkpt>
<trkpt lat="55.703407" lon="26.085670">
<ele>150.228638</ele>
<time>2010-07-17T18:24:47Z</time>
<desc>lat.=55.703407, lon.=26.085670, Alt.=150.228638m. Speed=0.000000m/h.</desc>
<speed>0.000000</speed>
</trkpt>
<trkpt lat="55.703407" lon="26.085670">
<ele>150.232544</ele>
<time>2010-07-17T18:24:48Z</time>
<desc>lat.=55.703407, lon.=26.085670, Alt.=150.232544m. Speed=0.000000m/h.</desc>
<speed>0.000000</speed>
</trkpt>
<trkpt lat="55.703407" lon="26.085670">
<ele>150.232544</ele>
<time>2010-07-17T18:24:49Z</time>
<desc>lat.=55.703407, lon.=26.085670, Alt.=150.232544m. Speed=0.108000m/h.</desc>
<speed>0.030000</speed>
</trkpt>
<trkpt lat="55.703407" lon="26.085670">
<ele>150.236450</ele>
<time>2010-07-17T18:24:50Z</time>
<desc>lat.=55.703407, lon.=26.085670, Alt.=150.236450m. Speed=0.000000m/h.</desc>
<speed>0.000000</speed>
</trkpt>
<trkpt lat="55.703407" lon="26.085670">
<ele>150.236450</ele>
<time>2010-07-17T18:24:51Z</time>
<desc>lat.=55.703407, lon.=26.085670, Alt.=150.236450m. Speed=0.000000m/h.</desc>
<speed>0.000000</speed>
</trkpt>
<trkpt lat="55.703407" lon="26.085670">
<ele>150.244263</ele>
<time>2010-07-17T18:24:52Z</time>
<desc>lat.=55.703407, lon.=26.085670, Alt.=150.244263m. Speed=0.036000m/h.</desc>
<speed>0.010000</speed>
</trkpt>
<trkpt lat="55.703407" lon="26.085670">
<ele>150.244263</ele>
<time>2010-07-17T18:24:53Z</time>
<desc>lat.=55.703407, lon.=26.085670, Alt.=150.244263m. Speed=0.036000m/h.</desc>
<speed>0.010000</speed>
</trkpt>
<trkpt lat="55.703407" lon="26.085670">
<ele>150.248169</ele>
<time>2010-07-17T18:24:54Z</time>
<desc>lat.=55.703407, lon.=26.085670, Alt.=150.248169m. Speed=0.000000m/h.</desc>
<speed>0.000000</speed>
</trkpt>
<trkpt lat="55.703407" lon="26.085670">
<ele>150.252075</ele>
<time>2010-07-17T18:24:55Z</time>
<desc>lat.=55.703407, lon.=26.085670, Alt.=150.252075m. Speed=0.036000m/h.</desc>
<speed>0.010000</speed>
</trkpt>
<trkpt lat="55.703407" lon="26.085670">
<ele>150.252075</ele>
<time>2010-07-17T18:24:56Z</time>
<desc>lat.=55.703407, lon.=26.085670, Alt.=150.252075m. Speed=0.108000m/h.</desc>
<speed>0.030000</speed>
</trkpt>
<trkpt lat="55.703407" lon="26.085670">
<ele>150.255981</ele>
<time>2010-07-17T18:24:57Z</time>
<desc>lat.=55.703407, lon.=26.085670, Alt.=150.255981m. Speed=0.216000m/h.</desc>
<speed>0.060000</speed>
</trkpt>
<trkpt lat="55.703403" lon="26.085670">
<ele>150.259888</ele>
<time>2010-07-17T18:24:58Z</time>
<desc>lat.=55.703403, lon.=26.085670, Alt.=150.259888m. Speed=0.360000m/h.</desc>
<speed>0.100000</speed>
</trkpt>
<trkpt lat="55.703403" lon="26.085672">
<ele>150.259888</ele>
<time>2010-07-17T18:24:59Z</time>
<desc>lat.=55.703403, lon.=26.085672, Alt.=150.259888m. Speed=0.432000m/h.</desc>
<speed>0.120000</speed>
</trkpt>
<trkpt lat="55.703403" lon="26.085672">
<ele>150.263794</ele>
<time>2010-07-17T18:25:00Z</time>
<desc>lat.=55.703403, lon.=26.085672, Alt.=150.263794m. Speed=0.252000m/h.</desc>
<speed>0.070000</speed>
</trkpt>
<trkpt lat="55.703403" lon="26.085672">
<ele>150.263794</ele>
<time>2010-07-17T18:25:01Z</time>
<desc>lat.=55.703403, lon.=26.085672, Alt.=150.263794m. Speed=0.144000m/h.</desc>
<speed>0.040000</speed>
</trkpt>
<trkpt lat="55.703403" lon="26.085672">
<ele>150.263794</ele>
<time>2010-07-17T18:25:02Z</time>
<desc>lat.=55.703403, lon.=26.085672, Alt.=150.263794m. Speed=0.036000m/h.</desc>
<speed>0.010000</speed>
</trkpt>
<trkpt lat="55.703403" lon="26.085672">
<ele>150.263794</ele>
<time>2010-07-17T18:25:03Z</time>
<desc>lat.=55.703403, lon.=26.085672, Alt.=150.263794m. Speed=0.252000m/h.</desc>
<speed>0.070000</speed>
</trkpt>
<trkpt lat="55.703403" lon="26.085672">
<ele>150.267700</ele>
<time>2010-07-17T18:25:04Z</time>
<desc>lat.=55.703403, lon.=26.085672, Alt.=150.267700m. Speed=0.612000m/h.</desc>
<speed>0.170000</speed>
</trkpt>
<trkpt lat="55.703403" lon="26.085676">
<ele>150.267700</ele>
<time>2010-07-17T18:25:05Z</time>
<desc>lat.=55.703403, lon.=26.085676, Alt.=150.267700m. Speed=3.276000m/h.</desc>
<speed>0.910000</speed>
</trkpt>
<trkpt lat="55.703403" lon="26.085690">
<ele>150.267700</ele>
<time>2010-07-17T18:25:06Z</time>
<desc>lat.=55.703403, lon.=26.085690, Alt.=150.267700m. Speed=6.192000m/h.</desc>
<speed>1.720000</speed>
</trkpt>
<trkpt lat="55.703403" lon="26.085735">
<ele>150.216919</ele>
<time>2010-07-17T18:25:07Z</time>
<desc>lat.=55.703403, lon.=26.085735, Alt.=150.216919m. Speed=10.260000m/h.</desc>
<speed>2.850000</speed>
</trkpt>
<trkpt lat="55.703403" lon="26.085793">
<ele>150.267700</ele>
<time>2010-07-17T18:25:08Z</time>
<desc>lat.=55.703403, lon.=26.085793, Alt.=150.267700m. Speed=12.240000m/h.</desc>
<speed>3.400000</speed>
</trkpt>
<trkpt lat="55.703423" lon="26.085886">
<ele>150.095825</ele>
<time>2010-07-17T18:25:09Z</time>
<desc>lat.=55.703423, lon.=26.085886, Alt.=150.095825m. Speed=12.708000m/h.</desc>
<speed>3.530000</speed>
</trkpt>
<trkpt lat="55.703426" lon="26.085960">
<ele>150.056763</ele>
<time>2010-07-17T18:25:10Z</time>
<desc>lat.=55.703426, lon.=26.085960, Alt.=150.056763m. Speed=12.096000m/h.</desc>
<speed>3.360000</speed>
</trkpt>
<trkpt lat="55.703430" lon="26.086012">
<ele>150.119263</ele>
<time>2010-07-17T18:25:11Z</time>
<desc>lat.=55.703430, lon.=26.086012, Alt.=150.119263m. Speed=10.548000m/h.</desc>
<speed>2.930000</speed>
</trkpt>
<trkpt lat="55.703434" lon="26.086058">
<ele>150.302856</ele>
<time>2010-07-17T18:25:12Z</time>
<desc>lat.=55.703434, lon.=26.086058, Alt.=150.302856m. Speed=9.864000m/h.</desc>
<speed>2.740000</speed>
</trkpt>
<trkpt lat="55.703434" lon="26.086105">
<ele>150.341919</ele>
<time>2010-07-17T18:25:13Z</time>
<desc>lat.=55.703434, lon.=26.086105, Alt.=150.341919m. Speed=8.280000m/h.</desc>
<speed>2.300000</speed>
</trkpt>
<trkpt lat="55.703442" lon="26.086143">
<ele>150.611450</ele>
<time>2010-07-17T18:25:14Z</time>
<desc>lat.=55.703442, lon.=26.086143, Alt.=150.611450m. Speed=7.776000m/h.</desc>
<speed>2.160000</speed>
</trkpt>
<trkpt lat="55.703457" lon="26.086195">
<ele>150.959106</ele>
<time>2010-07-17T18:25:15Z</time>
<desc>lat.=55.703457, lon.=26.086195, Alt.=150.959106m. Speed=8.208000m/h.</desc>
<speed>2.280000</speed>
</trkpt>
<trkpt lat="55.703465" lon="26.086229">
<ele>151.240356</ele>
<time>2010-07-17T18:25:16Z</time>
<desc>lat.=55.703465, lon.=26.086229, Alt.=151.240356m. Speed=7.200000m/h.</desc>
<speed>2.000000</speed>
</trkpt>
<trkpt lat="55.703468" lon="26.086260">
<ele>151.603638</ele>
<time>2010-07-17T18:25:17Z</time>
<desc>lat.=55.703468, lon.=26.086260, Alt.=151.603638m. Speed=3.996000m/h.</desc>
<speed>1.110000</speed>
</trkpt>
<trkpt lat="55.703468" lon="26.086277">
<ele>151.830200</ele>
<time>2010-07-17T18:25:18Z</time>
<desc>lat.=55.703468, lon.=26.086277, Alt.=151.830200m. Speed=2.808000m/h.</desc>
<speed>0.780000</speed>
</trkpt>
<trkpt lat="55.703468" lon="26.086300">
<ele>152.201294</ele>
<time>2010-07-17T18:25:19Z</time>
<desc>lat.=55.703468, lon.=26.086300, Alt.=152.201294m. Speed=1.872000m/h.</desc>
<speed>0.520000</speed>
</trkpt>
<trkpt lat="55.703472" lon="26.086317">
<ele>152.455200</ele>
<time>2010-07-17T18:25:20Z</time>
<desc>lat.=55.703472, lon.=26.086317, Alt.=152.455200m. Speed=1.908000m/h.</desc>
<speed>0.530000</speed>
</trkpt>
<trkpt lat="55.703476" lon="26.086323">
<ele>152.623169</ele>
<time>2010-07-17T18:25:21Z</time>
<desc>lat.=55.703476, lon.=26.086323, Alt.=152.623169m. Speed=1.404000m/h.</desc>
<speed>0.390000</speed>
</trkpt>
<trkpt lat="55.703480" lon="26.086327">
<ele>152.763794</ele>
<time>2010-07-17T18:25:22Z</time>
<desc>lat.=55.703480, lon.=26.086327, Alt.=152.763794m. Speed=0.864000m/h.</desc>
<speed>0.240000</speed>
</trkpt>
<trkpt lat="55.703484" lon="26.086329">
<ele>152.513794</ele>
<time>2010-07-17T18:25:23Z</time>
<desc>lat.=55.703484, lon.=26.086329, Alt.=152.513794m. Speed=1.080000m/h.</desc>
<speed>0.300000</speed>
</trkpt>
<trkpt lat="55.703484" lon="26.086330">
<ele>152.646606</ele>
<time>2010-07-17T18:25:24Z</time>
<desc>lat.=55.703484, lon.=26.086330, Alt.=152.646606m. Speed=0.756000m/h.</desc>
<speed>0.210000</speed>
</trkpt>
<trkpt lat="55.703480" lon="26.086340">
<ele>152.541138</ele>
<time>2010-07-17T18:25:25Z</time>
<desc>lat.=55.703480, lon.=26.086340, Alt.=152.541138m. Speed=0.504000m/h.</desc>
<speed>0.140000</speed>
</trkpt>
<trkpt lat="55.703476" lon="26.086346">
<ele>152.439575</ele>
<time>2010-07-17T18:25:26Z</time>
<desc>lat.=55.703476, lon.=26.086346, Alt.=152.439575m. Speed=0.612000m/h.</desc>
<speed>0.170000</speed>
</trkpt>
<trkpt lat="55.703468" lon="26.086355">
<ele>152.427856</ele>
<time>2010-07-17T18:25:27Z</time>
<desc>lat.=55.703468, lon.=26.086355, Alt.=152.427856m. Speed=1.116000m/h.</desc>
<speed>0.310000</speed>
</trkpt>
<trkpt lat="55.703465" lon="26.086365">
<ele>152.451294</ele>
<time>2010-07-17T18:25:28Z</time>
<desc>lat.=55.703465, lon.=26.086365, Alt.=152.451294m. Speed=1.080000m/h.</desc>
<speed>0.300000</speed>
</trkpt>
<trkpt lat="55.703465" lon="26.086370">
<ele>152.455200</ele>
<time>2010-07-17T18:25:29Z</time>
<desc>lat.=55.703465, lon.=26.086370, Alt.=152.455200m. Speed=0.684000m/h.</desc>
<speed>0.190000</speed>
</trkpt>
<trkpt lat="55.703465" lon="26.086361">
<ele>152.455200</ele>
<time>2010-07-17T18:25:30Z</time>
<desc>lat.=55.703465, lon.=26.086361, Alt.=152.455200m. Speed=0.216000m/h.</desc>
<speed>0.060000</speed>
</trkpt>
<trkpt lat="55.703465" lon="26.086355">
<ele>152.502075</ele>
<time>2010-07-17T18:25:31Z</time>
<desc>lat.=55.703465, lon.=26.086355, Alt.=152.502075m. Speed=0.432000m/h.</desc>
<speed>0.120000</speed>
</trkpt>
<trkpt lat="55.703461" lon="26.086353">
<ele>152.517700</ele>
<time>2010-07-17T18:25:32Z</time>
<desc>lat.=55.703461, lon.=26.086353, Alt.=152.517700m. Speed=0.756000m/h.</desc>
<speed>0.210000</speed>
</trkpt>
<trkpt lat="55.703457" lon="26.086351">
<ele>152.541138</ele>
<time>2010-07-17T18:25:33Z</time>
<desc>lat.=55.703457, lon.=26.086351, Alt.=152.541138m. Speed=0.432000m/h.</desc>
<speed>0.120000</speed>
</trkpt>
<trkpt lat="55.703457" lon="26.086349">
<ele>152.564575</ele>
<time>2010-07-17T18:25:34Z</time>
<desc>lat.=55.703457, lon.=26.086349, Alt.=152.564575m. Speed=0.576000m/h.</desc>
<speed>0.160000</speed>
</trkpt>
<trkpt lat="55.703457" lon="26.086348">
<ele>152.584106</ele>
<time>2010-07-17T18:25:35Z</time>
<desc>lat.=55.703457, lon.=26.086348, Alt.=152.584106m. Speed=0.252000m/h.</desc>
<speed>0.070000</speed>
</trkpt>
<trkpt lat="55.703457" lon="26.086346">
<ele>152.599731</ele>
<time>2010-07-17T18:25:36Z</time>
<desc>lat.=55.703457, lon.=26.086346, Alt.=152.599731m. Speed=0.396000m/h.</desc>
<speed>0.110000</speed>
</trkpt>
<trkpt lat="55.703457" lon="26.086344">
<ele>152.611450</ele>
<time>2010-07-17T18:25:37Z</time>
<desc>lat.=55.703457, lon.=26.086344, Alt.=152.611450m. Speed=1.080000m/h.</desc>
<speed>0.300000</speed>
</trkpt>
<trkpt lat="55.703457" lon="26.086338">
<ele>152.681763</ele>
<time>2010-07-17T18:25:38Z</time>
<desc>lat.=55.703457, lon.=26.086338, Alt.=152.681763m. Speed=1.296000m/h.</desc>
<speed>0.360000</speed>
</trkpt>
<trkpt lat="55.703461" lon="26.086346">
<ele>152.716919</ele>
<time>2010-07-17T18:25:39Z</time>
<desc>lat.=55.703461, lon.=26.086346, Alt.=152.716919m. Speed=1.008000m/h.</desc>
<speed>0.280000</speed>
</trkpt>
<trkpt lat="55.703465" lon="26.086351">
<ele>152.767700</ele>
<time>2010-07-17T18:25:40Z</time>
<desc>lat.=55.703465, lon.=26.086351, Alt.=152.767700m. Speed=0.828000m/h.</desc>
<speed>0.230000</speed>
</trkpt>
<trkpt lat="55.703465" lon="26.086353">
<ele>152.806763</ele>
<time>2010-07-17T18:25:41Z</time>
<desc>lat.=55.703465, lon.=26.086353, Alt.=152.806763m. Speed=0.756000m/h.</desc>
<speed>0.210000</speed>
</trkpt>
<trkpt lat="55.703468" lon="26.086338">
<ele>152.904419</ele>
<time>2010-07-17T18:25:42Z</time>
<desc>lat.=55.703468, lon.=26.086338, Alt.=152.904419m. Speed=0.864000m/h.</desc>
<speed>0.240000</speed>
</trkpt>
<trkpt lat="55.703468" lon="26.086338">
<ele>152.927856</ele>
<time>2010-07-17T18:25:43Z</time>
<desc>lat.=55.703468, lon.=26.086338, Alt.=152.927856m. Speed=0.324000m/h.</desc>
<speed>0.090000</speed>
</trkpt>
<trkpt lat="55.703472" lon="26.086336">
<ele>152.943481</ele>
<time>2010-07-17T18:25:44Z</time>
<desc>lat.=55.703472, lon.=26.086336, Alt.=152.943481m. Speed=0.396000m/h.</desc>
<speed>0.110000</speed>
</trkpt>
<trkpt lat="55.703472" lon="26.086336">
<ele>152.955200</ele>
<time>2010-07-17T18:25:45Z</time>
<desc>lat.=55.703472, lon.=26.086336, Alt.=152.955200m. Speed=0.288000m/h.</desc>
<speed>0.080000</speed>
</trkpt>
<trkpt lat="55.703472" lon="26.086336">
<ele>152.970825</ele>
<time>2010-07-17T18:25:46Z</time>
<desc>lat.=55.703472, lon.=26.086336, Alt.=152.970825m. Speed=0.360000m/h.</desc>
<speed>0.100000</speed>
</trkpt>
<trkpt lat="55.703472" lon="26.086336">
<ele>152.978638</ele>
<time>2010-07-17T18:25:47Z</time>
<desc>lat.=55.703472, lon.=26.086336, Alt.=152.978638m. Speed=0.360000m/h.</desc>
<speed>0.100000</speed>
</trkpt>
<trkpt lat="55.703472" lon="26.086334">
<ele>152.986450</ele>
<time>2010-07-17T18:25:48Z</time>
<desc>lat.=55.703472, lon.=26.086334, Alt.=152.986450m. Speed=0.360000m/h.</desc>
<speed>0.100000</speed>
</trkpt>
<trkpt lat="55.703472" lon="26.086332">
<ele>152.994263</ele>
<time>2010-07-17T18:25:49Z</time>
<desc>lat.=55.703472, lon.=26.086332, Alt.=152.994263m. Speed=0.036000m/h.</desc>
<speed>0.010000</speed>
</trkpt>
<trkpt lat="55.703472" lon="26.086332">
<ele>153.005981</ele>
<time>2010-07-17T18:25:50Z</time>
<desc>lat.=55.703472, lon.=26.086332, Alt.=153.005981m. Speed=1.116000m/h.</desc>
<speed>0.310000</speed>
</trkpt>
<trkpt lat="55.703472" lon="26.086342">
<ele>153.025513</ele>
<time>2010-07-17T18:25:51Z</time>
<desc>lat.=55.703472, lon.=26.086342, Alt.=153.025513m. Speed=1.440000m/h.</desc>
<speed>0.400000</speed>
</trkpt>
<trkpt lat="55.703487" lon="26.086342">
<ele>153.076294</ele>
<time>2010-07-17T18:25:52Z</time>
<desc>lat.=55.703487, lon.=26.086342, Alt.=153.076294m. Speed=2.988000m/h.</desc>
<speed>0.830000</speed>
</trkpt>
<trkpt lat="55.703499" lon="26.086372">
<ele>153.677856</ele>
<time>2010-07-17T18:25:53Z</time>
<desc>lat.=55.703499, lon.=26.086372, Alt.=153.677856m. Speed=5.004000m/h.</desc>
<speed>1.390000</speed>
</trkpt>
<trkpt lat="55.703518" lon="26.086374">
<ele>153.838013</ele>
<time>2010-07-17T18:25:54Z</time>
<desc>lat.=55.703518, lon.=26.086374, Alt.=153.838013m. Speed=9.972000m/h.</desc>
<speed>2.770000</speed>
</trkpt>
<trkpt lat="55.703541" lon="26.086388">
<ele>153.806763</ele>
<time>2010-07-17T18:25:55Z</time>
<desc>lat.=55.703541, lon.=26.086388, Alt.=153.806763m. Speed=10.944000m/h.</desc>
<speed>3.040000</speed>
</trkpt>
<trkpt lat="55.703583" lon="26.086384">
<ele>154.166138</ele>
<time>2010-07-17T18:25:56Z</time>
<desc>lat.=55.703583, lon.=26.086384, Alt.=154.166138m. Speed=12.816000m/h.</desc>
<speed>3.560000</speed>
</trkpt>
<trkpt lat="55.703617" lon="26.086395">
<ele>154.615356</ele>
<time>2010-07-17T18:25:57Z</time>
<desc>lat.=55.703617, lon.=26.086395, Alt.=154.615356m. Speed=13.392000m/h.</desc>
<speed>3.720000</speed>
</trkpt>
<trkpt lat="55.703648" lon="26.086401">
<ele>154.888794</ele>
<time>2010-07-17T18:25:58Z</time>
<desc>lat.=55.703648, lon.=26.086401, Alt.=154.888794m. Speed=11.700000m/h.</desc>
<speed>3.250000</speed>
</trkpt>
<trkpt lat="55.703678" lon="26.086403">
<ele>154.998169</ele>
<time>2010-07-17T18:25:59Z</time>
<desc>lat.=55.703678, lon.=26.086403, Alt.=154.998169m. Speed=12.276000m/h.</desc>
<speed>3.410000</speed>
</trkpt>
<trkpt lat="55.703705" lon="26.086405">
<ele>154.896606</ele>
<time>2010-07-17T18:26:00Z</time>
<desc>lat.=55.703705, lon.=26.086405, Alt.=154.896606m. Speed=10.764000m/h.</desc>
<speed>2.990000</speed>
</trkpt>
<trkpt lat="55.703739" lon="26.086403">
<ele>155.248169</ele>
<time>2010-07-17T18:26:01Z</time>
<desc>lat.=55.703739, lon.=26.086403, Alt.=155.248169m. Speed=11.376000m/h.</desc>
<speed>3.160000</speed>
</trkpt>
<trkpt lat="55.703770" lon="26.086407">
<ele>155.412231</ele>
<time>2010-07-17T18:26:02Z</time>
<desc>lat.=55.703770, lon.=26.086407, Alt.=155.412231m. Speed=9.036000m/h.</desc>
<speed>2.510000</speed>
</trkpt>
<trkpt lat="55.703796" lon="26.086405">
<ele>155.623169</ele>
<time>2010-07-17T18:26:03Z</time>
<desc>lat.=55.703796, lon.=26.086405, Alt.=155.623169m. Speed=10.332000m/h.</desc>
<speed>2.870000</speed>
</trkpt>
<trkpt lat="55.703823" lon="26.086397">
<ele>156.041138</ele>
<time>2010-07-17T18:26:04Z</time>
<desc>lat.=55.703823, lon.=26.086397, Alt.=156.041138m. Speed=9.684000m/h.</desc>
<speed>2.690000</speed>
</trkpt>
<trkpt lat="55.703854" lon="26.086384">
<ele>156.623169</ele>
<time>2010-07-17T18:26:05Z</time>
<desc>lat.=55.703854, lon.=26.086384, Alt.=156.623169m. Speed=10.296000m/h.</desc>
<speed>2.860000</speed>
</trkpt>
<trkpt lat="55.703884" lon="26.086374">
<ele>156.638794</ele>
<time>2010-07-17T18:26:06Z</time>
<desc>lat.=55.703884, lon.=26.086374, Alt.=156.638794m. Speed=11.016000m/h.</desc>
<speed>3.060000</speed>
</trkpt>
<trkpt lat="55.703915" lon="26.086370">
<ele>157.123169</ele>
<time>2010-07-17T18:26:07Z</time>
<desc>lat.=55.703915, lon.=26.086370, Alt.=157.123169m. Speed=9.720000m/h.</desc>
<speed>2.700000</speed>
</trkpt>
<trkpt lat="55.703941" lon="26.086370">
<ele>157.353638</ele>
<time>2010-07-17T18:26:08Z</time>
<desc>lat.=55.703941, lon.=26.086370, Alt.=157.353638m. Speed=9.468000m/h.</desc>
<speed>2.630000</speed>
</trkpt>
<trkpt lat="55.703972" lon="26.086370">
<ele>157.548950</ele>
<time>2010-07-17T18:26:09Z</time>
<desc>lat.=55.703972, lon.=26.086370, Alt.=157.548950m. Speed=11.700000m/h.</desc>
<speed>3.250000</speed>
</trkpt>
<trkpt lat="55.704006" lon="26.086370">
<ele>157.732544</ele>
<time>2010-07-17T18:26:10Z</time>
<desc>lat.=55.704006, lon.=26.086370, Alt.=157.732544m. Speed=12.240000m/h.</desc>
<speed>3.400000</speed>
</trkpt>
<trkpt lat="55.704041" lon="26.086367">
<ele>158.302856</ele>
<time>2010-07-17T18:26:11Z</time>
<desc>lat.=55.704041, lon.=26.086367, Alt.=158.302856m. Speed=10.116000m/h.</desc>
<speed>2.810000</speed>
</trkpt>
<trkpt lat="55.704071" lon="26.086344">
<ele>157.775513</ele>
<time>2010-07-17T18:26:12Z</time>
<desc>lat.=55.704071, lon.=26.086344, Alt.=157.775513m. Speed=11.628000m/h.</desc>
<speed>3.230000</speed>
</trkpt>
<trkpt lat="55.704102" lon="26.086336">
<ele>158.119263</ele>
<time>2010-07-17T18:26:13Z</time>
<desc>lat.=55.704102, lon.=26.086336, Alt.=158.119263m. Speed=12.960000m/h.</desc>
<speed>3.600000</speed>
</trkpt>
<trkpt lat="55.704151" lon="26.086330">
<ele>160.095825</ele>
<time>2010-07-17T18:26:14Z</time>
<desc>lat.=55.704151, lon.=26.086330, Alt.=160.095825m. Speed=12.492000m/h.</desc>
<speed>3.470000</speed>
</trkpt>
<trkpt lat="55.704182" lon="26.086327">
<ele>161.388794</ele>
<time>2010-07-17T18:26:15Z</time>
<desc>lat.=55.704182, lon.=26.086327, Alt.=161.388794m. Speed=10.908000m/h.</desc>
<speed>3.030000</speed>
</trkpt>
<trkpt lat="55.704208" lon="26.086327">
<ele>161.701294</ele>
<time>2010-07-17T18:26:16Z</time>
<desc>lat.=55.704208, lon.=26.086327, Alt.=161.701294m. Speed=8.820000m/h.</desc>
<speed>2.450000</speed>
</trkpt>
<trkpt lat="55.704231" lon="26.086340">
<ele>161.740356</ele>
<time>2010-07-17T18:26:17Z</time>
<desc>lat.=55.704231, lon.=26.086340, Alt.=161.740356m. Speed=7.920000m/h.</desc>
<speed>2.200000</speed>
</trkpt>
<trkpt lat="55.704239" lon="26.086357">
<ele>161.318481</ele>
<time>2010-07-17T18:26:18Z</time>
<desc>lat.=55.704239, lon.=26.086357, Alt.=161.318481m. Speed=6.336000m/h.</desc>
<speed>1.760000</speed>
</trkpt>
<trkpt lat="55.704258" lon="26.086367">
<ele>161.947388</ele>
<time>2010-07-17T18:26:19Z</time>
<desc>lat.=55.704258, lon.=26.086367, Alt.=161.947388m. Speed=8.280000m/h.</desc>
<speed>2.300000</speed>
</trkpt>
<trkpt lat="55.704269" lon="26.086376">
<ele>161.998169</ele>
<time>2010-07-17T18:26:20Z</time>
<desc>lat.=55.704269, lon.=26.086376, Alt.=161.998169m. Speed=5.292000m/h.</desc>
<speed>1.470000</speed>
</trkpt>
<trkpt lat="55.704288" lon="26.086355">
<ele>163.783325</ele>
<time>2010-07-17T18:26:21Z</time>
<desc>lat.=55.704288, lon.=26.086355, Alt.=163.783325m. Speed=3.384000m/h.</desc>
<speed>0.940000</speed>
</trkpt>
<trkpt lat="55.704300" lon="26.086359">
<ele>163.986450</ele>
<time>2010-07-17T18:26:22Z</time>
<desc>lat.=55.704300, lon.=26.086359, Alt.=163.986450m. Speed=2.484000m/h.</desc>
<speed>0.690000</speed>
</trkpt>
<trkpt lat="55.704308" lon="26.086361">
<ele>164.306763</ele>
<time>2010-07-17T18:26:23Z</time>
<desc>lat.=55.704308, lon.=26.086361, Alt.=164.306763m. Speed=2.268000m/h.</desc>
<speed>0.630000</speed>
</trkpt>
<trkpt lat="55.704315" lon="26.086361">
<ele>164.552856</ele>
<time>2010-07-17T18:26:24Z</time>
<desc>lat.=55.704315, lon.=26.086361, Alt.=164.552856m. Speed=2.196000m/h.</desc>
<speed>0.610000</speed>
</trkpt>
<trkpt lat="55.704319" lon="26.086363">
<ele>164.869263</ele>
<time>2010-07-17T18:26:25Z</time>
<desc>lat.=55.704319, lon.=26.086363, Alt.=164.869263m. Speed=1.440000m/h.</desc>
<speed>0.400000</speed>
</trkpt>
<trkpt lat="55.704323" lon="26.086363">
<ele>165.127075</ele>
<time>2010-07-17T18:26:26Z</time>
<desc>lat.=55.704323, lon.=26.086363, Alt.=165.127075m. Speed=0.252000m/h.</desc>
<speed>0.070000</speed>
</trkpt>
<trkpt lat="55.704323" lon="26.086363">
<ele>165.384888</ele>
<time>2010-07-17T18:26:27Z</time>
<desc>lat.=55.704323, lon.=26.086363, Alt.=165.384888m. Speed=0.324000m/h.</desc>
<speed>0.090000</speed>
</trkpt>
<trkpt lat="55.704323" lon="26.086363">
<ele>165.552856</ele>
<time>2010-07-17T18:26:28Z</time>
<desc>lat.=55.704323, lon.=26.086363, Alt.=165.552856m. Speed=0.252000m/h.</desc>
<speed>0.070000</speed>
</trkpt>
<trkpt lat="55.704323" lon="26.086361">
<ele>165.689575</ele>
<time>2010-07-17T18:26:29Z</time>
<desc>lat.=55.704323, lon.=26.086361, Alt.=165.689575m. Speed=0.108000m/h.</desc>
<speed>0.030000</speed>
</trkpt>
<trkpt lat="55.704327" lon="26.086361">
<ele>165.787231</ele>
<time>2010-07-17T18:26:30Z</time>
<desc>lat.=55.704327, lon.=26.086361, Alt.=165.787231m. Speed=0.144000m/h.</desc>
<speed>0.040000</speed>
</trkpt>
<trkpt lat="55.704323" lon="26.086361">
<ele>165.849731</ele>
<time>2010-07-17T18:26:31Z</time>
<desc>lat.=55.704323, lon.=26.086361, Alt.=165.849731m. Speed=0.036000m/h.</desc>
<speed>0.010000</speed>
</trkpt>
<trkpt lat="55.704323" lon="26.086361">
<ele>165.861450</ele>
<time>2010-07-17T18:26:32Z</time>
<desc>lat.=55.704323, lon.=26.086361, Alt.=165.861450m. Speed=0.072000m/h.</desc>
<speed>0.020000</speed>
</trkpt>
<trkpt lat="55.704323" lon="26.086363">
<ele>165.873169</ele>
<time>2010-07-17T18:26:33Z</time>
<desc>lat.=55.704323, lon.=26.086363, Alt.=165.873169m. Speed=0.072000m/h.</desc>
<speed>0.020000</speed>
</trkpt>
<trkpt lat="55.704323" lon="26.086363">
<ele>165.877075</ele>
<time>2010-07-17T18:26:34Z</time>
<desc>lat.=55.704323, lon.=26.086363, Alt.=165.877075m. Speed=0.180000m/h.</desc>
<speed>0.050000</speed>
</trkpt>
<trkpt lat="55.704323" lon="26.086363">
<ele>165.880981</ele>
<time>2010-07-17T18:26:35Z</time>
<desc>lat.=55.704323, lon.=26.086363, Alt.=165.880981m. Speed=0.216000m/h.</desc>
<speed>0.060000</speed>
</trkpt>
<trkpt lat="55.704323" lon="26.086365">
<ele>165.888794</ele>
<time>2010-07-17T18:26:36Z</time>
<desc>lat.=55.704323, lon.=26.086365, Alt.=165.888794m. Speed=0.000000m/h.</desc>
<speed>0.000000</speed>
</trkpt>
<trkpt lat="55.704323" lon="26.086365">
<ele>165.908325</ele>
<time>2010-07-17T18:26:37Z</time>
<desc>lat.=55.704323, lon.=26.086365, Alt.=165.908325m. Speed=0.036000m/h.</desc>
<speed>0.010000</speed>
</trkpt>
<trkpt lat="55.704323" lon="26.086365">
<ele>165.908325</ele>
<time>2010-07-17T18:26:38Z</time>
<desc>lat.=55.704323, lon.=26.086365, Alt.=165.908325m. Speed=0.000000m/h.</desc>
<speed>0.000000</speed>
</trkpt>
<trkpt lat="55.704323" lon="26.086365">
<ele>165.912231</ele>
<time>2010-07-17T18:26:39Z</time>
<desc>lat.=55.704323, lon.=26.086365, Alt.=165.912231m. Speed=0.036000m/h.</desc>
<speed>0.010000</speed>
</trkpt>
<trkpt lat="55.704323" lon="26.086365">
<ele>165.900513</ele>
<time>2010-07-17T18:26:40Z</time>
<desc>lat.=55.704323, lon.=26.086365, Alt.=165.900513m. Speed=0.000000m/h.</desc>
<speed>0.000000</speed>
</trkpt>
<trkpt lat="55.704323" lon="26.086365">
<ele>165.888794</ele>
<time>2010-07-17T18:26:41Z</time>
<desc>lat.=55.704323, lon.=26.086365, Alt.=165.888794m. Speed=0.036000m/h.</desc>
<speed>0.010000</speed>
</trkpt>
<trkpt lat="55.704323" lon="26.086365">
<ele>165.880981</ele>
<time>2010-07-17T18:26:42Z</time>
<desc>lat.=55.704323, lon.=26.086365, Alt.=165.880981m. Speed=0.000000m/h.</desc>
<speed>0.000000</speed>
</trkpt>
<trkpt lat="55.704323" lon="26.086365">
<ele>165.869263</ele>
<time>2010-07-17T18:26:43Z</time>
<desc>lat.=55.704323, lon.=26.086365, Alt.=165.869263m. Speed=0.000000m/h.</desc>
<speed>0.000000</speed>
</trkpt>
<trkpt lat="55.704323" lon="26.086365">
<ele>165.857544</ele>
<time>2010-07-17T18:26:44Z</time>
<desc>lat.=55.704323, lon.=26.086365, Alt.=165.857544m. Speed=0.000000m/h.</desc>
<speed>0.000000</speed>
</trkpt>
<trkpt lat="55.704323" lon="26.086365">
<ele>165.849731</ele>
<time>2010-07-17T18:26:45Z</time>
<desc>lat.=55.704323, lon.=26.086365, Alt.=165.849731m. Speed=0.000000m/h.</desc>
<speed>0.000000</speed>
</trkpt>
<trkpt lat="55.704323" lon="26.086365">
<ele>165.841919</ele>
<time>2010-07-17T18:26:46Z</time>
<desc>lat.=55.704323, lon.=26.086365, Alt.=165.841919m. Speed=0.036000m/h.</desc>
<speed>0.010000</speed>
</trkpt>
<trkpt lat="55.704323" lon="26.086365">
<ele>165.834106</ele>
<time>2010-07-17T18:26:47Z</time>
<desc>lat.=55.704323, lon.=26.086365, Alt.=165.834106m. Speed=0.036000m/h.</desc>
<speed>0.010000</speed>
</trkpt>
<trkpt lat="55.704323" lon="26.086367">
<ele>165.826294</ele>
<time>2010-07-17T18:26:48Z</time>
<desc>lat.=55.704323, lon.=26.086367, Alt.=165.826294m. Speed=0.000000m/h.</desc>
<speed>0.000000</speed>
</trkpt>
<trkpt lat="55.704323" lon="26.086367">
<ele>165.818481</ele>
<time>2010-07-17T18:26:49Z</time>
<desc>lat.=55.704323, lon.=26.086367, Alt.=165.818481m. Speed=0.000000m/h.</desc>
<speed>0.000000</speed>
</trkpt>
<trkpt lat="55.704323" lon="26.086367">
<ele>165.810669</ele>
<time>2010-07-17T18:26:50Z</time>
<desc>lat.=55.704323, lon.=26.086367, Alt.=165.810669m. Speed=0.000000m/h.</desc>
<speed>0.000000</speed>
</trkpt>
<trkpt lat="55.704323" lon="26.086367">
<ele>165.806763</ele>
<time>2010-07-17T18:26:51Z</time>
<desc>lat.=55.704323, lon.=26.086367, Alt.=165.806763m. Speed=0.000000m/h.</desc>
<speed>0.000000</speed>
</trkpt>
<trkpt lat="55.704323" lon="26.086367">
<ele>165.795044</ele>
<time>2010-07-17T18:26:52Z</time>
<desc>lat.=55.704323, lon.=26.086367, Alt.=165.795044m. Speed=0.000000m/h.</desc>
<speed>0.000000</speed>
</trkpt>
<trkpt lat="55.704323" lon="26.086367">
<ele>165.787231</ele>
<time>2010-07-17T18:26:53Z</time>
<desc>lat.=55.704323, lon.=26.086367, Alt.=165.787231m. Speed=0.036000m/h.</desc>
<speed>0.010000</speed>
</trkpt>
<trkpt lat="55.704323" lon="26.086367">
<ele>165.775513</ele>
<time>2010-07-17T18:26:54Z</time>
<desc>lat.=55.704323, lon.=26.086367, Alt.=165.775513m. Speed=0.000000m/h.</desc>
<speed>0.000000</speed>
</trkpt>
<trkpt lat="55.704323" lon="26.086367">
<ele>165.763794</ele>
<time>2010-07-17T18:26:55Z</time>
<desc>lat.=55.704323, lon.=26.086367, Alt.=165.763794m. Speed=0.036000m/h.</desc>
<speed>0.010000</speed>
</trkpt>
<trkpt lat="55.704323" lon="26.086367">
<ele>165.755981</ele>
<time>2010-07-17T18:26:56Z</time>
<desc>lat.=55.704323, lon.=26.086367, Alt.=165.755981m. Speed=0.000000m/h.</desc>
<speed>0.000000</speed>
</trkpt>
<trkpt lat="55.704323" lon="26.086367">
<ele>165.752075</ele>
<time>2010-07-17T18:26:57Z</time>
<desc>lat.=55.704323, lon.=26.086367, Alt.=165.752075m. Speed=0.000000m/h.</desc>
<speed>0.000000</speed>
</trkpt>
<trkpt lat="55.704323" lon="26.086367">
<ele>165.748169</ele>
<time>2010-07-17T18:26:58Z</time>
<desc>lat.=55.704323, lon.=26.086367, Alt.=165.748169m. Speed=0.000000m/h.</desc>
<speed>0.000000</speed>
</trkpt>
<trkpt lat="55.704323" lon="26.086367">
<ele>165.748169</ele>
<time>2010-07-17T18:26:59Z</time>
<desc>lat.=55.704323, lon.=26.086367, Alt.=165.748169m. Speed=0.000000m/h.</desc>
<speed>0.000000</speed>
</trkpt>
<trkpt lat="55.704323" lon="26.086367">
<ele>165.740356</ele>
<time>2010-07-17T18:27:00Z</time>
<desc>lat.=55.704323, lon.=26.086367, Alt.=165.740356m. Speed=0.036000m/h.</desc>
<speed>0.010000</speed>
</trkpt>
<trkpt lat="55.704323" lon="26.086367">
<ele>165.728638</ele>
<time>2010-07-17T18:27:01Z</time>
<desc>lat.=55.704323, lon.=26.086367, Alt.=165.728638m. Speed=0.036000m/h.</desc>
<speed>0.010000</speed>
</trkpt>
<trkpt lat="55.704323" lon="26.086367">
<ele>165.728638</ele>
<time>2010-07-17T18:27:02Z</time>
<desc>lat.=55.704323, lon.=26.086367, Alt.=165.728638m. Speed=0.036000m/h.</desc>
<speed>0.010000</speed>
</trkpt>
<trkpt lat="55.704323" lon="26.086367">
<ele>165.724731</ele>
<time>2010-07-17T18:27:03Z</time>
<desc>lat.=55.704323, lon.=26.086367, Alt.=165.724731m. Speed=0.000000m/h.</desc>
<speed>0.000000</speed>
</trkpt>
<trkpt lat="55.704323" lon="26.086367">
<ele>165.716919</ele>
<time>2010-07-17T18:27:04Z</time>
<desc>lat.=55.704323, lon.=26.086367, Alt.=165.716919m. Speed=0.000000m/h.</desc>
<speed>0.000000</speed>
</trkpt>
<trkpt lat="55.704323" lon="26.086367">
<ele>165.713013</ele>
<time>2010-07-17T18:27:05Z</time>
<desc>lat.=55.704323, lon.=26.086367, Alt.=165.713013m. Speed=0.000000m/h.</desc>
<speed>0.000000</speed>
</trkpt>
<trkpt lat="55.704323" lon="26.086369">
<ele>165.701294</ele>
<time>2010-07-17T18:27:06Z</time>
<desc>lat.=55.704323, lon.=26.086369, Alt.=165.701294m. Speed=0.036000m/h.</desc>
<speed>0.010000</speed>
</trkpt>
<trkpt lat="55.704323" lon="26.086369">
<ele>165.689575</ele>
<time>2010-07-17T18:27:07Z</time>
<desc>lat.=55.704323, lon.=26.086369, Alt.=165.689575m. Speed=0.000000m/h.</desc>
<speed>0.000000</speed>
</trkpt>
<trkpt lat="55.704323" lon="26.086369">
<ele>165.677856</ele>
<time>2010-07-17T18:27:08Z</time>
<desc>lat.=55.704323, lon.=26.086369, Alt.=165.677856m. Speed=0.000000m/h.</desc>
<speed>0.000000</speed>
</trkpt>
<trkpt lat="55.704323" lon="26.086369">
<ele>165.670044</ele>
<time>2010-07-17T18:27:09Z</time>
<desc>lat.=55.704323, lon.=26.086369, Alt.=165.670044m. Speed=0.036000m/h.</desc>
<speed>0.010000</speed>
</trkpt>
<trkpt lat="55.704323" lon="26.086369">
<ele>165.658325</ele>
<time>2010-07-17T18:27:10Z</time>
<desc>lat.=55.704323, lon.=26.086369, Alt.=165.658325m. Speed=0.000000m/h.</desc>
<speed>0.000000</speed>
</trkpt>
<trkpt lat="55.704323" lon="26.086369">
<ele>165.646606</ele>
<time>2010-07-17T18:27:11Z</time>
<desc>lat.=55.704323, lon.=26.086369, Alt.=165.646606m. Speed=0.036000m/h.</desc>
<speed>0.010000</speed>
</trkpt>
<trkpt lat="55.704323" lon="26.086369">
<ele>165.638794</ele>
<time>2010-07-17T18:27:12Z</time>
<desc>lat.=55.704323, lon.=26.086369, Alt.=165.638794m. Speed=0.000000m/h.</desc>
<speed>0.000000</speed>
</trkpt>
<trkpt lat="55.704323" lon="26.086369">
<ele>165.630981</ele>
<time>2010-07-17T18:27:13Z</time>
<desc>lat.=55.704323, lon.=26.086369, Alt.=165.630981m. Speed=0.036000m/h.</desc>
<speed>0.010000</speed>
</trkpt>
<trkpt lat="55.704323" lon="26.086369">
<ele>165.623169</ele>
<time>2010-07-17T18:27:14Z</time>
<desc>lat.=55.704323, lon.=26.086369, Alt.=165.623169m. Speed=0.036000m/h.</desc>
<speed>0.010000</speed>
</trkpt>
<trkpt lat="55.704323" lon="26.086369">
<ele>165.623169</ele>
<time>2010-07-17T18:27:15Z</time>
<desc>lat.=55.704323, lon.=26.086369, Alt.=165.623169m. Speed=0.072000m/h.</desc>
<speed>0.020000</speed>
</trkpt>
<trkpt lat="55.704327" lon="26.086369">
<ele>165.623169</ele>
<time>2010-07-17T18:27:16Z</time>
<desc>lat.=55.704327, lon.=26.086369, Alt.=165.623169m. Speed=0.036000m/h.</desc>
<speed>0.010000</speed>
</trkpt>
<trkpt lat="55.704327" lon="26.086369">
<ele>165.615356</ele>
<time>2010-07-17T18:27:17Z</time>
<desc>lat.=55.704327, lon.=26.086369, Alt.=165.615356m. Speed=0.000000m/h.</desc>
<speed>0.000000</speed>
</trkpt>
<trkpt lat="55.704327" lon="26.086369">
<ele>165.615356</ele>
<time>2010-07-17T18:27:18Z</time>
<desc>lat.=55.704327, lon.=26.086369, Alt.=165.615356m. Speed=0.036000m/h.</desc>
<speed>0.010000</speed>
</trkpt>
<trkpt lat="55.704327" lon="26.086369">
<ele>165.619263</ele>
<time>2010-07-17T18:27:19Z</time>
<desc>lat.=55.704327, lon.=26.086369, Alt.=165.619263m. Speed=0.216000m/h.</desc>
<speed>0.060000</speed>
</trkpt>
<trkpt lat="55.704327" lon="26.086369">
<ele>165.607544</ele>
<time>2010-07-17T18:27:20Z</time>
<desc>lat.=55.704327, lon.=26.086369, Alt.=165.607544m. Speed=0.108000m/h.</desc>
<speed>0.030000</speed>
</trkpt>
<trkpt lat="55.704327" lon="26.086369">
<ele>165.591919</ele>
<time>2010-07-17T18:27:21Z</time>
<desc>lat.=55.704327, lon.=26.086369, Alt.=165.591919m. Speed=0.360000m/h.</desc>
<speed>0.100000</speed>
</trkpt>
<trkpt lat="55.704327" lon="26.086369">
<ele>165.595825</ele>
<time>2010-07-17T18:27:22Z</time>
<desc>lat.=55.704327, lon.=26.086369, Alt.=165.595825m. Speed=0.036000m/h.</desc>
<speed>0.010000</speed>
</trkpt>
<trkpt lat="55.704323" lon="26.086369">
<ele>165.591919</ele>
<time>2010-07-17T18:27:23Z</time>
<desc>lat.=55.704323, lon.=26.086369, Alt.=165.591919m. Speed=0.324000m/h.</desc>
<speed>0.090000</speed>
</trkpt>
<trkpt lat="55.704323" lon="26.086369">
<ele>165.591919</ele>
<time>2010-07-17T18:27:24Z</time>
<desc>lat.=55.704323, lon.=26.086369, Alt.=165.591919m. Speed=0.180000m/h.</desc>
<speed>0.050000</speed>
</trkpt>
<trkpt lat="55.704323" lon="26.086369">
<ele>165.591919</ele>
<time>2010-07-17T18:27:25Z</time>
<desc>lat.=55.704323, lon.=26.086369, Alt.=165.591919m. Speed=0.252000m/h.</desc>
<speed>0.070000</speed>
</trkpt>
<trkpt lat="55.704323" lon="26.086369">
<ele>165.588013</ele>
<time>2010-07-17T18:27:26Z</time>
<desc>lat.=55.704323, lon.=26.086369, Alt.=165.588013m. Speed=0.000000m/h.</desc>
<speed>0.000000</speed>
</trkpt>
<trkpt lat="55.704323" lon="26.086369">
<ele>165.584106</ele>
<time>2010-07-17T18:27:27Z</time>
<desc>lat.=55.704323, lon.=26.086369, Alt.=165.584106m. Speed=0.036000m/h.</desc>
<speed>0.010000</speed>
</trkpt>
<trkpt lat="55.704323" lon="26.086369">
<ele>165.580200</ele>
<time>2010-07-17T18:27:28Z</time>
<desc>lat.=55.704323, lon.=26.086369, Alt.=165.580200m. Speed=0.144000m/h.</desc>
<speed>0.040000</speed>
</trkpt>
<trkpt lat="55.704323" lon="26.086369">
<ele>165.576294</ele>
<time>2010-07-17T18:27:29Z</time>
<desc>lat.=55.704323, lon.=26.086369, Alt.=165.576294m. Speed=2.520000m/h.</desc>
<speed>0.700000</speed>
</trkpt>
<trkpt lat="55.704319" lon="26.086372">
<ele>165.576294</ele>
<time>2010-07-17T18:27:30Z</time>
<desc>lat.=55.704319, lon.=26.086372, Alt.=165.576294m. Speed=4.068000m/h.</desc>
<speed>1.130000</speed>
</trkpt>
<trkpt lat="55.704304" lon="26.086369">
<ele>165.595825</ele>
<time>2010-07-17T18:27:31Z</time>
<desc>lat.=55.704304, lon.=26.086369, Alt.=165.595825m. Speed=5.292000m/h.</desc>
<speed>1.470000</speed>
</trkpt>
<trkpt lat="55.704281" lon="26.086365">
<ele>165.646606</ele>
<time>2010-07-17T18:27:32Z</time>
<desc>lat.=55.704281, lon.=26.086365, Alt.=165.646606m. Speed=9.432000m/h.</desc>
<speed>2.620000</speed>
</trkpt>
<trkpt lat="55.704254" lon="26.086359">
<ele>165.650513</ele>
<time>2010-07-17T18:27:33Z</time>
<desc>lat.=55.704254, lon.=26.086359, Alt.=165.650513m. Speed=12.564000m/h.</desc>
<speed>3.490000</speed>
</trkpt>
<trkpt lat="55.704216" lon="26.086367">
<ele>165.677856</ele>
<time>2010-07-17T18:27:34Z</time>
<desc>lat.=55.704216, lon.=26.086367, Alt.=165.677856m. Speed=14.652000m/h.</desc>
<speed>4.070000</speed>
</trkpt>
<trkpt lat="55.704174" lon="26.086376">
<ele>165.759888</ele>
<time>2010-07-17T18:27:35Z</time>
<desc>lat.=55.704174, lon.=26.086376, Alt.=165.759888m. Speed=16.091999m/h.</desc>
<speed>4.470000</speed>
</trkpt>
<trkpt lat="55.704132" lon="26.086384">
<ele>165.806763</ele>
<time>2010-07-17T18:27:36Z</time>
<desc>lat.=55.704132, lon.=26.086384, Alt.=165.806763m. Speed=15.732000m/h.</desc>
<speed>4.370000</speed>
</trkpt>
<trkpt lat="55.704090" lon="26.086393">
<ele>165.900513</ele>
<time>2010-07-17T18:27:37Z</time>
<desc>lat.=55.704090, lon.=26.086393, Alt.=165.900513m. Speed=15.588000m/h.</desc>
<speed>4.330000</speed>
</trkpt>
<trkpt lat="55.704048" lon="26.086399">
<ele>166.017700</ele>
<time>2010-07-17T18:27:38Z</time>
<desc>lat.=55.704048, lon.=26.086399, Alt.=166.017700m. Speed=16.056000m/h.</desc>
<speed>4.460000</speed>
</trkpt>
<trkpt lat="55.704002" lon="26.086401">
<ele>165.877075</ele>
<time>2010-07-17T18:27:39Z</time>
<desc>lat.=55.704002, lon.=26.086401, Alt.=165.877075m. Speed=15.516000m/h.</desc>
<speed>4.310000</speed>
</trkpt>
<trkpt lat="55.703960" lon="26.086416">
<ele>165.689575</ele>
<time>2010-07-17T18:27:40Z</time>
<desc>lat.=55.703960, lon.=26.086416, Alt.=165.689575m. Speed=15.048000m/h.</desc>
<speed>4.180000</speed>
</trkpt>
<trkpt lat="55.703911" lon="26.086418">
<ele>165.459106</ele>
<time>2010-07-17T18:27:41Z</time>
<desc>lat.=55.703911, lon.=26.086418, Alt.=165.459106m. Speed=17.316000m/h.</desc>
<speed>4.810000</speed>
</trkpt>
<trkpt lat="55.703854" lon="26.086397">
<ele>165.099731</ele>
<time>2010-07-17T18:27:42Z</time>
<desc>lat.=55.703854, lon.=26.086397, Alt.=165.099731m. Speed=16.236000m/h.</desc>
<speed>4.510000</speed>
</trkpt>
<trkpt lat="55.703804" lon="26.086390">
<ele>164.396606</ele>
<time>2010-07-17T18:27:43Z</time>
<desc>lat.=55.703804, lon.=26.086390, Alt.=164.396606m. Speed=16.128000m/h.</desc>
<speed>4.480000</speed>
</trkpt>
<trkpt lat="55.703758" lon="26.086386">
<ele>163.529419</ele>
<time>2010-07-17T18:27:44Z</time>
<desc>lat.=55.703758, lon.=26.086386, Alt.=163.529419m. Speed=15.048000m/h.</desc>
<speed>4.180000</speed>
</trkpt>
<trkpt lat="55.703720" lon="26.086384">
<ele>163.318481</ele>
<time>2010-07-17T18:27:45Z</time>
<desc>lat.=55.703720, lon.=26.086384, Alt.=163.318481m. Speed=13.248000m/h.</desc>
<speed>3.680000</speed>
</trkpt>
<trkpt lat="55.703686" lon="26.086378">
<ele>162.896606</ele>
<time>2010-07-17T18:27:46Z</time>
<desc>lat.=55.703686, lon.=26.086378, Alt.=162.896606m. Speed=13.572000m/h.</desc>
<speed>3.770000</speed>
</trkpt>
<trkpt lat="55.703640" lon="26.086380">
<ele>162.439575</ele>
<time>2010-07-17T18:27:47Z</time>
<desc>lat.=55.703640, lon.=26.086380, Alt.=162.439575m. Speed=14.112000m/h.</desc>
<speed>3.920000</speed>
</trkpt>
<trkpt lat="55.703606" lon="26.086391">
<ele>162.486450</ele>
<time>2010-07-17T18:27:48Z</time>
<desc>lat.=55.703606, lon.=26.086391, Alt.=162.486450m. Speed=11.988000m/h.</desc>
<speed>3.330000</speed>
</trkpt>
<trkpt lat="55.703571" lon="26.086386">
<ele>162.361450</ele>
<time>2010-07-17T18:27:49Z</time>
<desc>lat.=55.703571, lon.=26.086386, Alt.=162.361450m. Speed=11.124000m/h.</desc>
<speed>3.090000</speed>
</trkpt>
<trkpt lat="55.703541" lon="26.086369">
<ele>162.330200</ele>
<time>2010-07-17T18:27:50Z</time>
<desc>lat.=55.703541, lon.=26.086369, Alt.=162.330200m. Speed=8.460000m/h.</desc>
<speed>2.350000</speed>
</trkpt>
<trkpt lat="55.703522" lon="26.086353">
<ele>162.404419</ele>
<time>2010-07-17T18:27:51Z</time>
<desc>lat.=55.703522, lon.=26.086353, Alt.=162.404419m. Speed=6.264000m/h.</desc>
<speed>1.740000</speed>
</trkpt>
<trkpt lat="55.703503" lon="26.086346">
<ele>162.588013</ele>
<time>2010-07-17T18:27:52Z</time>
<desc>lat.=55.703503, lon.=26.086346, Alt.=162.588013m. Speed=5.760000m/h.</desc>
<speed>1.600000</speed>
</trkpt>
<trkpt lat="55.703487" lon="26.086327">
<ele>163.025513</ele>
<time>2010-07-17T18:27:53Z</time>
<desc>lat.=55.703487, lon.=26.086327, Alt.=163.025513m. Speed=5.544000m/h.</desc>
<speed>1.540000</speed>
</trkpt>
<trkpt lat="55.703480" lon="26.086302">
<ele>162.947388</ele>
<time>2010-07-17T18:27:54Z</time>
<desc>lat.=55.703480, lon.=26.086302, Alt.=162.947388m. Speed=5.688000m/h.</desc>
<speed>1.580000</speed>
</trkpt>
<trkpt lat="55.703468" lon="26.086269">
<ele>163.009888</ele>
<time>2010-07-17T18:27:55Z</time>
<desc>lat.=55.703468, lon.=26.086269, Alt.=163.009888m. Speed=8.100000m/h.</desc>
<speed>2.250000</speed>
</trkpt>
<trkpt lat="55.703453" lon="26.086218">
<ele>161.834106</ele>
<time>2010-07-17T18:27:56Z</time>
<desc>lat.=55.703453, lon.=26.086218, Alt.=161.834106m. Speed=12.060000m/h.</desc>
<speed>3.350000</speed>
</trkpt>
<trkpt lat="55.703442" lon="26.086159">
<ele>161.205200</ele>
<time>2010-07-17T18:27:57Z</time>
<desc>lat.=55.703442, lon.=26.086159, Alt.=161.205200m. Speed=13.932000m/h.</desc>
<speed>3.870000</speed>
</trkpt>
<trkpt lat="55.703423" lon="26.086094">
<ele>159.990356</ele>
<time>2010-07-17T18:27:58Z</time>
<desc>lat.=55.703423, lon.=26.086094, Alt.=159.990356m. Speed=17.280001m/h.</desc>
<speed>4.800000</speed>
</trkpt>
<trkpt lat="55.703411" lon="26.086029">
<ele>159.732544</ele>
<time>2010-07-17T18:27:59Z</time>
<desc>lat.=55.703411, lon.=26.086029, Alt.=159.732544m. Speed=14.256000m/h.</desc>
<speed>3.960000</speed>
</trkpt>
<trkpt lat="55.703403" lon="26.085976">
<ele>159.744263</ele>
<time>2010-07-17T18:28:00Z</time>
<desc>lat.=55.703403, lon.=26.085976, Alt.=159.744263m. Speed=12.816000m/h.</desc>
<speed>3.560000</speed>
</trkpt>
<trkpt lat="55.703392" lon="26.085943">
<ele>159.314575</ele>
<time>2010-07-17T18:28:01Z</time>
<desc>lat.=55.703392, lon.=26.085943, Alt.=159.314575m. Speed=9.396000m/h.</desc>
<speed>2.610000</speed>
</trkpt>
<trkpt lat="55.703377" lon="26.085922">
<ele>159.146606</ele>
<time>2010-07-17T18:28:02Z</time>
<desc>lat.=55.703377, lon.=26.085922, Alt.=159.146606m. Speed=6.408000m/h.</desc>
<speed>1.780000</speed>
</trkpt>
<trkpt lat="55.703350" lon="26.085915">
<ele>158.560669</ele>
<time>2010-07-17T18:28:03Z</time>
<desc>lat.=55.703350, lon.=26.085915, Alt.=158.560669m. Speed=12.564000m/h.</desc>
<speed>3.490000</speed>
</trkpt>
<trkpt lat="55.703316" lon="26.085913">
<ele>158.338013</ele>
<time>2010-07-17T18:28:04Z</time>
<desc>lat.=55.703316, lon.=26.085913, Alt.=158.338013m. Speed=14.760000m/h.</desc>
<speed>4.100000</speed>
</trkpt>
<trkpt lat="55.703278" lon="26.085917">
<ele>158.607544</ele>
<time>2010-07-17T18:28:05Z</time>
<desc>lat.=55.703278, lon.=26.085917, Alt.=158.607544m. Speed=16.740000m/h.</desc>
<speed>4.650000</speed>
</trkpt>
<trkpt lat="55.703236" lon="26.085938">
<ele>158.091919</ele>
<time>2010-07-17T18:28:06Z</time>
<desc>lat.=55.703236, lon.=26.085938, Alt.=158.091919m. Speed=16.020000m/h.</desc>
<speed>4.450000</speed>
</trkpt>
<trkpt lat="55.703194" lon="26.085962">
<ele>158.134888</ele>
<time>2010-07-17T18:28:07Z</time>
<desc>lat.=55.703194, lon.=26.085962, Alt.=158.134888m. Speed=18.468000m/h.</desc>
<speed>5.130000</speed>
</trkpt>
<trkpt lat="55.703148" lon="26.085991">
<ele>157.685669</ele>
<time>2010-07-17T18:28:08Z</time>
<desc>lat.=55.703148, lon.=26.085991, Alt.=157.685669m. Speed=18.648001m/h.</desc>
<speed>5.180000</speed>
</trkpt>
<trkpt lat="55.703106" lon="26.086027">
<ele>157.252075</ele>
<time>2010-07-17T18:28:09Z</time>
<desc>lat.=55.703106, lon.=26.086027, Alt.=157.252075m. Speed=20.591999m/h.</desc>
<speed>5.720000</speed>
</trkpt>
<trkpt lat="55.703053" lon="26.086060">
<ele>156.935669</ele>
<time>2010-07-17T18:28:10Z</time>
<desc>lat.=55.703053, lon.=26.086060, Alt.=156.935669m. Speed=21.240000m/h.</desc>
<speed>5.900000</speed>
</trkpt>
<trkpt lat="55.702999" lon="26.086082">
<ele>157.123169</ele>
<time>2010-07-17T18:28:11Z</time>
<desc>lat.=55.702999, lon.=26.086082, Alt.=157.123169m. Speed=20.087999m/h.</desc>
<speed>5.580000</speed>
</trkpt>
<trkpt lat="55.702946" lon="26.086111">
<ele>157.845825</ele>
<time>2010-07-17T18:28:12Z</time>
<desc>lat.=55.702946, lon.=26.086111, Alt.=157.845825m. Speed=20.916000m/h.</desc>
<speed>5.810000</speed>
</trkpt>
<trkpt lat="55.702892" lon="26.086147">
<ele>158.466919</ele>
<time>2010-07-17T18:28:13Z</time>
<desc>lat.=55.702892, lon.=26.086147, Alt.=158.466919m. Speed=19.152000m/h.</desc>
<speed>5.320000</speed>
</trkpt>
<trkpt lat="55.702847" lon="26.086185">
<ele>158.341919</ele>
<time>2010-07-17T18:28:14Z</time>
<desc>lat.=55.702847, lon.=26.086185, Alt.=158.341919m. Speed=18.468000m/h.</desc>
<speed>5.130000</speed>
</trkpt>
<trkpt lat="55.702805" lon="26.086220">
<ele>158.982544</ele>
<time>2010-07-17T18:28:15Z</time>
<desc>lat.=55.702805, lon.=26.086220, Alt.=158.982544m. Speed=16.632000m/h.</desc>
<speed>4.620000</speed>
</trkpt>
<trkpt lat="55.702766" lon="26.086246">
<ele>158.759888</ele>
<time>2010-07-17T18:28:16Z</time>
<desc>lat.=55.702766, lon.=26.086246, Alt.=158.759888m. Speed=13.140000m/h.</desc>
<speed>3.650000</speed>
</trkpt>
<trkpt lat="55.702740" lon="26.086266">
<ele>157.943481</ele>
<time>2010-07-17T18:28:17Z</time>
<desc>lat.=55.702740, lon.=26.086266, Alt.=157.943481m. Speed=8.964000m/h.</desc>
<speed>2.490000</speed>
</trkpt>
<trkpt lat="55.702728" lon="26.086269">
<ele>157.673950</ele>
<time>2010-07-17T18:28:18Z</time>
<desc>lat.=55.702728, lon.=26.086269, Alt.=157.673950m. Speed=1.368000m/h.</desc>
<speed>0.380000</speed>
</trkpt>
<trkpt lat="55.702728" lon="26.086266">
<ele>157.314575</ele>
<time>2010-07-17T18:28:19Z</time>
<desc>lat.=55.702728, lon.=26.086266, Alt.=157.314575m. Speed=1.368000m/h.</desc>
<speed>0.380000</speed>
</trkpt>
<trkpt lat="55.702728" lon="26.086264">
<ele>156.658325</ele>
<time>2010-07-17T18:28:20Z</time>
<desc>lat.=55.702728, lon.=26.086264, Alt.=156.658325m. Speed=0.216000m/h.</desc>
<speed>0.060000</speed>
</trkpt>
<trkpt lat="55.702728" lon="26.086260">
<ele>156.732544</ele>
<time>2010-07-17T18:28:21Z</time>
<desc>lat.=55.702728, lon.=26.086260, Alt.=156.732544m. Speed=0.432000m/h.</desc>
<speed>0.120000</speed>
</trkpt>
<trkpt lat="55.702728" lon="26.086258">
<ele>156.646606</ele>
<time>2010-07-17T18:28:22Z</time>
<desc>lat.=55.702728, lon.=26.086258, Alt.=156.646606m. Speed=0.576000m/h.</desc>
<speed>0.160000</speed>
</trkpt>
<trkpt lat="55.702724" lon="26.086260">
<ele>156.580200</ele>
<time>2010-07-17T18:28:23Z</time>
<desc>lat.=55.702724, lon.=26.086260, Alt.=156.580200m. Speed=0.432000m/h.</desc>
<speed>0.120000</speed>
</trkpt>
<trkpt lat="55.702724" lon="26.086260">
<ele>156.521606</ele>
<time>2010-07-17T18:28:24Z</time>
<desc>lat.=55.702724, lon.=26.086260, Alt.=156.521606m. Speed=0.324000m/h.</desc>
<speed>0.090000</speed>
</trkpt>
<trkpt lat="55.702724" lon="26.086260">
<ele>156.478638</ele>
<time>2010-07-17T18:28:25Z</time>
<desc>lat.=55.702724, lon.=26.086260, Alt.=156.478638m. Speed=0.396000m/h.</desc>
<speed>0.110000</speed>
</trkpt>
<trkpt lat="55.702724" lon="26.086262">
<ele>156.443481</ele>
<time>2010-07-17T18:28:26Z</time>
<desc>lat.=55.702724, lon.=26.086262, Alt.=156.443481m. Speed=0.288000m/h.</desc>
<speed>0.080000</speed>
</trkpt>
<trkpt lat="55.702721" lon="26.086262">
<ele>156.416138</ele>
<time>2010-07-17T18:28:27Z</time>
<desc>lat.=55.702721, lon.=26.086262, Alt.=156.416138m. Speed=0.252000m/h.</desc>
<speed>0.070000</speed>
</trkpt>
<trkpt lat="55.702721" lon="26.086262">
<ele>156.392700</ele>
<time>2010-07-17T18:28:28Z</time>
<desc>lat.=55.702721, lon.=26.086262, Alt.=156.392700m. Speed=0.144000m/h.</desc>
<speed>0.040000</speed>
</trkpt>
<trkpt lat="55.702721" lon="26.086260">
<ele>156.380981</ele>
<time>2010-07-17T18:28:29Z</time>
<desc>lat.=55.702721, lon.=26.086260, Alt.=156.380981m. Speed=0.216000m/h.</desc>
<speed>0.060000</speed>
</trkpt>
<trkpt lat="55.702721" lon="26.086260">
<ele>156.377075</ele>
<time>2010-07-17T18:28:30Z</time>
<desc>lat.=55.702721, lon.=26.086260, Alt.=156.377075m. Speed=0.144000m/h.</desc>
<speed>0.040000</speed>
</trkpt>
<trkpt lat="55.702721" lon="26.086258">
<ele>156.373169</ele>
<time>2010-07-17T18:28:31Z</time>
<desc>lat.=55.702721, lon.=26.086258, Alt.=156.373169m. Speed=0.036000m/h.</desc>
<speed>0.010000</speed>
</trkpt>
<trkpt lat="55.702721" lon="26.086260">
<ele>156.373169</ele>
<time>2010-07-17T18:28:32Z</time>
<desc>lat.=55.702721, lon.=26.086260, Alt.=156.373169m. Speed=0.216000m/h.</desc>
<speed>0.060000</speed>
</trkpt>
<trkpt lat="55.702721" lon="26.086258">
<ele>156.373169</ele>
<time>2010-07-17T18:28:33Z</time>
<desc>lat.=55.702721, lon.=26.086258, Alt.=156.373169m. Speed=0.252000m/h.</desc>
<speed>0.070000</speed>
</trkpt>
<trkpt lat="55.702721" lon="26.086258">
<ele>156.373169</ele>
<time>2010-07-17T18:28:34Z</time>
<desc>lat.=55.702721, lon.=26.086258, Alt.=156.373169m. Speed=0.252000m/h.</desc>
<speed>0.070000</speed>
</trkpt>
<trkpt lat="55.702721" lon="26.086256">
<ele>156.373169</ele>
<time>2010-07-17T18:28:35Z</time>
<desc>lat.=55.702721, lon.=26.086256, Alt.=156.373169m. Speed=0.288000m/h.</desc>
<speed>0.080000</speed>
</trkpt>
<trkpt lat="55.702721" lon="26.086256">
<ele>156.373169</ele>
<time>2010-07-17T18:28:36Z</time>
<desc>lat.=55.702721, lon.=26.086256, Alt.=156.373169m. Speed=0.540000m/h.</desc>
<speed>0.150000</speed>
</trkpt>
<trkpt lat="55.702717" lon="26.086256">
<ele>156.369263</ele>
<time>2010-07-17T18:28:37Z</time>
<desc>lat.=55.702717, lon.=26.086256, Alt.=156.369263m. Speed=0.972000m/h.</desc>
<speed>0.270000</speed>
</trkpt>
<trkpt lat="55.702717" lon="26.086252">
<ele>156.373169</ele>
<time>2010-07-17T18:28:38Z</time>
<desc>lat.=55.702717, lon.=26.086252, Alt.=156.373169m. Speed=0.972000m/h.</desc>
<speed>0.270000</speed>
</trkpt>
<trkpt lat="55.702713" lon="26.086250">
<ele>156.373169</ele>
<time>2010-07-17T18:28:39Z</time>
<desc>lat.=55.702713, lon.=26.086250, Alt.=156.373169m. Speed=0.684000m/h.</desc>
<speed>0.190000</speed>
</trkpt>
<trkpt lat="55.702713" lon="26.086250">
<ele>156.373169</ele>
<time>2010-07-17T18:28:40Z</time>
<desc>lat.=55.702713, lon.=26.086250, Alt.=156.373169m. Speed=0.900000m/h.</desc>
<speed>0.250000</speed>
</trkpt>
<trkpt lat="55.702709" lon="26.086248">
<ele>156.377075</ele>
<time>2010-07-17T18:28:41Z</time>
<desc>lat.=55.702709, lon.=26.086248, Alt.=156.377075m. Speed=0.468000m/h.</desc>
<speed>0.130000</speed>
</trkpt>
<trkpt lat="55.702709" lon="26.086248">
<ele>156.380981</ele>
<time>2010-07-17T18:28:42Z</time>
<desc>lat.=55.702709, lon.=26.086248, Alt.=156.380981m. Speed=0.360000m/h.</desc>
<speed>0.100000</speed>
</trkpt>
<trkpt lat="55.702709" lon="26.086248">
<ele>156.380981</ele>
<time>2010-07-17T18:28:43Z</time>
<desc>lat.=55.702709, lon.=26.086248, Alt.=156.380981m. Speed=1.188000m/h.</desc>
<speed>0.330000</speed>
</trkpt>
<trkpt lat="55.702705" lon="26.086250">
<ele>156.384888</ele>
<time>2010-07-17T18:28:44Z</time>
<desc>lat.=55.702705, lon.=26.086250, Alt.=156.384888m. Speed=2.592000m/h.</desc>
<speed>0.720000</speed>
</trkpt>
<trkpt lat="55.702698" lon="26.086256">
<ele>156.388794</ele>
<time>2010-07-17T18:28:45Z</time>
<desc>lat.=55.702698, lon.=26.086256, Alt.=156.388794m. Speed=3.492000m/h.</desc>
<speed>0.970000</speed>
</trkpt>
<trkpt lat="55.702690" lon="26.086262">
<ele>156.392700</ele>
<time>2010-07-17T18:28:46Z</time>
<desc>lat.=55.702690, lon.=26.086262, Alt.=156.392700m. Speed=4.896000m/h.</desc>
<speed>1.360000</speed>
</trkpt>
<trkpt lat="55.702671" lon="26.086266">
<ele>156.658325</ele>
<time>2010-07-17T18:28:47Z</time>
<desc>lat.=55.702671, lon.=26.086266, Alt.=156.658325m. Speed=7.704000m/h.</desc>
<speed>2.140000</speed>
</trkpt>
<trkpt lat="55.702652" lon="26.086264">
<ele>156.728638</ele>
<time>2010-07-17T18:28:48Z</time>
<desc>lat.=55.702652, lon.=26.086264, Alt.=156.728638m. Speed=8.316000m/h.</desc>
<speed>2.310000</speed>
</trkpt>
<trkpt lat="55.702629" lon="26.086271">
<ele>156.732544</ele>
<time>2010-07-17T18:28:49Z</time>
<desc>lat.=55.702629, lon.=26.086271, Alt.=156.732544m. Speed=7.020000m/h.</desc>
<speed>1.950000</speed>
</trkpt>
<trkpt lat="55.702610" lon="26.086267">
<ele>156.841919</ele>
<time>2010-07-17T18:28:50Z</time>
<desc>lat.=55.702610, lon.=26.086267, Alt.=156.841919m. Speed=4.860000m/h.</desc>
<speed>1.350000</speed>
</trkpt>
<trkpt lat="55.702599" lon="26.086262">
<ele>156.974731</ele>
<time>2010-07-17T18:28:51Z</time>
<desc>lat.=55.702599, lon.=26.086262, Alt.=156.974731m. Speed=3.492000m/h.</desc>
<speed>0.970000</speed>
</trkpt>
<trkpt lat="55.702587" lon="26.086250">
<ele>156.740356</ele>
<time>2010-07-17T18:28:52Z</time>
<desc>lat.=55.702587, lon.=26.086250, Alt.=156.740356m. Speed=2.448000m/h.</desc>
<speed>0.680000</speed>
</trkpt>
<trkpt lat="55.702579" lon="26.086252">
<ele>156.806763</ele>
<time>2010-07-17T18:28:53Z</time>
<desc>lat.=55.702579, lon.=26.086252, Alt.=156.806763m. Speed=3.708000m/h.</desc>
<speed>1.030000</speed>
</trkpt>
<trkpt lat="55.702572" lon="26.086245">
<ele>156.822388</ele>
<time>2010-07-17T18:28:54Z</time>
<desc>lat.=55.702572, lon.=26.086245, Alt.=156.822388m. Speed=3.384000m/h.</desc>
<speed>0.940000</speed>
</trkpt>
<trkpt lat="55.702560" lon="26.086235">
<ele>156.736450</ele>
<time>2010-07-17T18:28:55Z</time>
<desc>lat.=55.702560, lon.=26.086235, Alt.=156.736450m. Speed=2.880000m/h.</desc>
<speed>0.800000</speed>
</trkpt>
<trkpt lat="55.702557" lon="26.086237">
<ele>156.740356</ele>
<time>2010-07-17T18:28:56Z</time>
<desc>lat.=55.702557, lon.=26.086237, Alt.=156.740356m. Speed=2.124000m/h.</desc>
<speed>0.590000</speed>
</trkpt>
<trkpt lat="55.702553" lon="26.086239">
<ele>156.744263</ele>
<time>2010-07-17T18:28:57Z</time>
<desc>lat.=55.702553, lon.=26.086239, Alt.=156.744263m. Speed=1.692000m/h.</desc>
<speed>0.470000</speed>
</trkpt>
<trkpt lat="55.702553" lon="26.086237">
<ele>156.744263</ele>
<time>2010-07-17T18:28:58Z</time>
<desc>lat.=55.702553, lon.=26.086237, Alt.=156.744263m. Speed=1.152000m/h.</desc>
<speed>0.320000</speed>
</trkpt>
<trkpt lat="55.702549" lon="26.086231">
<ele>156.744263</ele>
<time>2010-07-17T18:28:59Z</time>
<desc>lat.=55.702549, lon.=26.086231, Alt.=156.744263m. Speed=0.756000m/h.</desc>
<speed>0.210000</speed>
</trkpt>
<trkpt lat="55.702545" lon="26.086229">
<ele>156.775513</ele>
<time>2010-07-17T18:29:00Z</time>
<desc>lat.=55.702545, lon.=26.086229, Alt.=156.775513m. Speed=0.864000m/h.</desc>
<speed>0.240000</speed>
</trkpt>
<trkpt lat="55.702545" lon="26.086233">
<ele>156.755981</ele>
<time>2010-07-17T18:29:01Z</time>
<desc>lat.=55.702545, lon.=26.086233, Alt.=156.755981m. Speed=0.576000m/h.</desc>
<speed>0.160000</speed>
</trkpt>
<trkpt lat="55.702545" lon="26.086233">
<ele>156.728638</ele>
<time>2010-07-17T18:29:02Z</time>
<desc>lat.=55.702545, lon.=26.086233, Alt.=156.728638m. Speed=0.036000m/h.</desc>
<speed>0.010000</speed>
</trkpt>
<trkpt lat="55.702545" lon="26.086233">
<ele>156.716919</ele>
<time>2010-07-17T18:29:03Z</time>
<desc>lat.=55.702545, lon.=26.086233, Alt.=156.716919m. Speed=0.216000m/h.</desc>
<speed>0.060000</speed>
</trkpt>
<trkpt lat="55.702545" lon="26.086233">
<ele>156.705200</ele>
<time>2010-07-17T18:29:04Z</time>
<desc>lat.=55.702545, lon.=26.086233, Alt.=156.705200m. Speed=0.648000m/h.</desc>
<speed>0.180000</speed>
</trkpt>
<trkpt lat="55.702541" lon="26.086233">
<ele>156.697388</ele>
<time>2010-07-17T18:29:05Z</time>
<desc>lat.=55.702541, lon.=26.086233, Alt.=156.697388m. Speed=0.432000m/h.</desc>
<speed>0.120000</speed>
</trkpt>
<trkpt lat="55.702541" lon="26.086235">
<ele>156.689575</ele>
<time>2010-07-17T18:29:06Z</time>
<desc>lat.=55.702541, lon.=26.086235, Alt.=156.689575m. Speed=0.144000m/h.</desc>
<speed>0.040000</speed>
</trkpt>
<trkpt lat="55.702541" lon="26.086235">
<ele>156.681763</ele>
<time>2010-07-17T18:29:07Z</time>
<desc>lat.=55.702541, lon.=26.086235, Alt.=156.681763m. Speed=0.576000m/h.</desc>
<speed>0.160000</speed>
</trkpt>
<trkpt lat="55.702541" lon="26.086235">
<ele>156.673950</ele>
<time>2010-07-17T18:29:08Z</time>
<desc>lat.=55.702541, lon.=26.086235, Alt.=156.673950m. Speed=0.648000m/h.</desc>
<speed>0.180000</speed>
</trkpt>
<trkpt lat="55.702545" lon="26.086235">
<ele>156.666138</ele>
<time>2010-07-17T18:29:09Z</time>
<desc>lat.=55.702545, lon.=26.086235, Alt.=156.666138m. Speed=0.324000m/h.</desc>
<speed>0.090000</speed>
</trkpt>
<trkpt lat="55.702545" lon="26.086233">
<ele>156.654419</ele>
<time>2010-07-17T18:29:10Z</time>
<desc>lat.=55.702545, lon.=26.086233, Alt.=156.654419m. Speed=0.216000m/h.</desc>
<speed>0.060000</speed>
</trkpt>
<trkpt lat="55.702545" lon="26.086233">
<ele>156.650513</ele>
<time>2010-07-17T18:29:11Z</time>
<desc>lat.=55.702545, lon.=26.086233, Alt.=156.650513m. Speed=0.540000m/h.</desc>
<speed>0.150000</speed>
</trkpt>
<trkpt lat="55.702545" lon="26.086235">
<ele>156.642700</ele>
<time>2010-07-17T18:29:12Z</time>
<desc>lat.=55.702545, lon.=26.086235, Alt.=156.642700m. Speed=1.476000m/h.</desc>
<speed>0.410000</speed>
</trkpt>
<trkpt lat="55.702560" lon="26.086260">
<ele>156.685669</ele>
<time>2010-07-17T18:29:13Z</time>
<desc>lat.=55.702560, lon.=26.086260, Alt.=156.685669m. Speed=2.124000m/h.</desc>
<speed>0.590000</speed>
</trkpt>
<trkpt lat="55.702568" lon="26.086267">
<ele>156.662231</ele>
<time>2010-07-17T18:29:14Z</time>
<desc>lat.=55.702568, lon.=26.086267, Alt.=156.662231m. Speed=2.520000m/h.</desc>
<speed>0.700000</speed>
</trkpt>
<trkpt lat="55.702576" lon="26.086283">
<ele>156.673950</ele>
<time>2010-07-17T18:29:15Z</time>
<desc>lat.=55.702576, lon.=26.086283, Alt.=156.673950m. Speed=3.096000m/h.</desc>
<speed>0.860000</speed>
</trkpt>
<trkpt lat="55.702587" lon="26.086300">
<ele>156.689575</ele>
<time>2010-07-17T18:29:16Z</time>
<desc>lat.=55.702587, lon.=26.086300, Alt.=156.689575m. Speed=3.204000m/h.</desc>
<speed>0.890000</speed>
</trkpt>
<trkpt lat="55.702587" lon="26.086309">
<ele>156.713013</ele>
<time>2010-07-17T18:29:17Z</time>
<desc>lat.=55.702587, lon.=26.086309, Alt.=156.713013m. Speed=2.448000m/h.</desc>
<speed>0.680000</speed>
</trkpt>
<trkpt lat="55.702591" lon="26.086309">
<ele>156.744263</ele>
<time>2010-07-17T18:29:18Z</time>
<desc>lat.=55.702591, lon.=26.086309, Alt.=156.744263m. Speed=1.404000m/h.</desc>
<speed>0.390000</speed>
</trkpt>
<trkpt lat="55.702591" lon="26.086315">
<ele>156.529419</ele>
<time>2010-07-17T18:29:19Z</time>
<desc>lat.=55.702591, lon.=26.086315, Alt.=156.529419m. Speed=0.936000m/h.</desc>
<speed>0.260000</speed>
</trkpt>
<trkpt lat="55.702587" lon="26.086321">
<ele>156.693481</ele>
<time>2010-07-17T18:29:20Z</time>
<desc>lat.=55.702587, lon.=26.086321, Alt.=156.693481m. Speed=1.620000m/h.</desc>
<speed>0.450000</speed>
</trkpt>
<trkpt lat="55.702587" lon="26.086327">
<ele>156.709106</ele>
<time>2010-07-17T18:29:21Z</time>
<desc>lat.=55.702587, lon.=26.086327, Alt.=156.709106m. Speed=1.548000m/h.</desc>
<speed>0.430000</speed>
</trkpt>
<trkpt lat="55.702595" lon="26.086336">
<ele>156.752075</ele>
<time>2010-07-17T18:29:22Z</time>
<desc>lat.=55.702595, lon.=26.086336, Alt.=156.752075m. Speed=2.196000m/h.</desc>
<speed>0.610000</speed>
</trkpt>
<trkpt lat="55.702610" lon="26.086365">
<ele>156.916138</ele>
<time>2010-07-17T18:29:23Z</time>
<desc>lat.=55.702610, lon.=26.086365, Alt.=156.916138m. Speed=3.348000m/h.</desc>
<speed>0.930000</speed>
</trkpt>
<trkpt lat="55.702621" lon="26.086382">
<ele>157.056763</ele>
<time>2010-07-17T18:29:24Z</time>
<desc>lat.=55.702621, lon.=26.086382, Alt.=157.056763m. Speed=4.248000m/h.</desc>
<speed>1.180000</speed>
</trkpt>
<trkpt lat="55.702637" lon="26.086390">
<ele>157.224731</ele>
<time>2010-07-17T18:29:25Z</time>
<desc>lat.=55.702637, lon.=26.086390, Alt.=157.224731m. Speed=5.796000m/h.</desc>
<speed>1.610000</speed>
</trkpt>
<trkpt lat="55.702660" lon="26.086393">
<ele>157.322388</ele>
<time>2010-07-17T18:29:26Z</time>
<desc>lat.=55.702660, lon.=26.086393, Alt.=157.322388m. Speed=10.764000m/h.</desc>
<speed>2.990000</speed>
</trkpt>
<trkpt lat="55.702705" lon="26.086395">
<ele>157.244263</ele>
<time>2010-07-17T18:29:27Z</time>
<desc>lat.=55.702705, lon.=26.086395, Alt.=157.244263m. Speed=16.559999m/h.</desc>
<speed>4.600000</speed>
</trkpt>
<trkpt lat="55.702751" lon="26.086384">
<ele>157.240356</ele>
<time>2010-07-17T18:29:28Z</time>
<desc>lat.=55.702751, lon.=26.086384, Alt.=157.240356m. Speed=18.360001m/h.</desc>
<speed>5.100000</speed>
</trkpt>
<trkpt lat="55.702801" lon="26.086336">
<ele>157.009888</ele>
<time>2010-07-17T18:29:29Z</time>
<desc>lat.=55.702801, lon.=26.086336, Alt.=157.009888m. Speed=20.700001m/h.</desc>
<speed>5.750000</speed>
</trkpt>
<trkpt lat="55.702850" lon="26.086288">
<ele>157.009888</ele>
<time>2010-07-17T18:29:30Z</time>
<desc>lat.=55.702850, lon.=26.086288, Alt.=157.009888m. Speed=19.656000m/h.</desc>
<speed>5.460000</speed>
</trkpt>
<trkpt lat="55.702892" lon="26.086245">
<ele>156.322388</ele>
<time>2010-07-17T18:29:31Z</time>
<desc>lat.=55.702892, lon.=26.086245, Alt.=156.322388m. Speed=18.756001m/h.</desc>
<speed>5.210000</speed>
</trkpt>
<trkpt lat="55.702930" lon="26.086203">
<ele>156.025513</ele>
<time>2010-07-17T18:29:32Z</time>
<desc>lat.=55.702930, lon.=26.086203, Alt.=156.025513m. Speed=16.452000m/h.</desc>
<speed>4.570000</speed>
</trkpt>
<trkpt lat="55.702976" lon="26.086155">
<ele>155.681763</ele>
<time>2010-07-17T18:29:33Z</time>
<desc>lat.=55.702976, lon.=26.086155, Alt.=155.681763m. Speed=18.792000m/h.</desc>
<speed>5.220000</speed>
</trkpt>
<trkpt lat="55.703026" lon="26.086117">
<ele>155.841919</ele>
<time>2010-07-17T18:29:34Z</time>
<desc>lat.=55.703026, lon.=26.086117, Alt.=155.841919m. Speed=20.700001m/h.</desc>
<speed>5.750000</speed>
</trkpt>
<trkpt lat="55.703075" lon="26.086073">
<ele>156.115356</ele>
<time>2010-07-17T18:29:35Z</time>
<desc>lat.=55.703075, lon.=26.086073, Alt.=156.115356m. Speed=21.167999m/h.</desc>
<speed>5.880000</speed>
</trkpt>
<trkpt lat="55.703114" lon="26.086044">
<ele>156.369263</ele>
<time>2010-07-17T18:29:36Z</time>
<desc>lat.=55.703114, lon.=26.086044, Alt.=156.369263m. Speed=17.280001m/h.</desc>
<speed>4.800000</speed>
</trkpt>
<trkpt lat="55.703156" lon="26.086020">
<ele>156.771606</ele>
<time>2010-07-17T18:29:37Z</time>
<desc>lat.=55.703156, lon.=26.086020, Alt.=156.771606m. Speed=16.524000m/h.</desc>
<speed>4.590000</speed>
</trkpt>
<trkpt lat="55.703197" lon="26.085999">
<ele>157.216919</ele>
<time>2010-07-17T18:29:38Z</time>
<desc>lat.=55.703197, lon.=26.085999, Alt.=157.216919m. Speed=16.920000m/h.</desc>
<speed>4.700000</speed>
</trkpt>
<trkpt lat="55.703239" lon="26.085968">
<ele>156.826294</ele>
<time>2010-07-17T18:29:39Z</time>
<desc>lat.=55.703239, lon.=26.085968, Alt.=156.826294m. Speed=17.820000m/h.</desc>
<speed>4.950000</speed>
</trkpt>
<trkpt lat="55.703281" lon="26.085960">
<ele>156.732544</ele>
<time>2010-07-17T18:29:40Z</time>
<desc>lat.=55.703281, lon.=26.085960, Alt.=156.732544m. Speed=16.775999m/h.</desc>
<speed>4.660000</speed>
</trkpt>
<trkpt lat="55.703316" lon="26.085974">
<ele>156.630981</ele>
<time>2010-07-17T18:29:41Z</time>
<desc>lat.=55.703316, lon.=26.085974, Alt.=156.630981m. Speed=14.832000m/h.</desc>
<speed>4.120000</speed>
</trkpt>
<trkpt lat="55.703369" lon="26.085981">
<ele>158.494263</ele>
<time>2010-07-17T18:29:42Z</time>
<desc>lat.=55.703369, lon.=26.085981, Alt.=158.494263m. Speed=12.636000m/h.</desc>
<speed>3.510000</speed>
</trkpt>
<trkpt lat="55.703384" lon="26.086025">
<ele>159.201294</ele>
<time>2010-07-17T18:29:43Z</time>
<desc>lat.=55.703384, lon.=26.086025, Alt.=159.201294m. Speed=11.700000m/h.</desc>
<speed>3.250000</speed>
</trkpt>
<trkpt lat="55.703400" lon="26.086088">
<ele>159.150513</ele>
<time>2010-07-17T18:29:44Z</time>
<desc>lat.=55.703400, lon.=26.086088, Alt.=159.150513m. Speed=18.504000m/h.</desc>
<speed>5.140000</speed>
</trkpt>
<trkpt lat="55.703403" lon="26.086164">
<ele>159.380981</ele>
<time>2010-07-17T18:29:45Z</time>
<desc>lat.=55.703403, lon.=26.086164, Alt.=159.380981m. Speed=17.676001m/h.</desc>
<speed>4.910000</speed>
</trkpt>
<trkpt lat="55.703419" lon="26.086235">
<ele>159.681763</ele>
<time>2010-07-17T18:29:46Z</time>
<desc>lat.=55.703419, lon.=26.086235, Alt.=159.681763m. Speed=16.524000m/h.</desc>
<speed>4.590000</speed>
</trkpt>
<trkpt lat="55.703442" lon="26.086298">
<ele>160.002075</ele>
<time>2010-07-17T18:29:47Z</time>
<desc>lat.=55.703442, lon.=26.086298, Alt.=160.002075m. Speed=14.508000m/h.</desc>
<speed>4.030000</speed>
</trkpt>
<trkpt lat="55.703457" lon="26.086348">
<ele>160.509888</ele>
<time>2010-07-17T18:29:48Z</time>
<desc>lat.=55.703457, lon.=26.086348, Alt.=160.509888m. Speed=11.124000m/h.</desc>
<speed>3.090000</speed>
</trkpt>
<trkpt lat="55.703480" lon="26.086372">
<ele>161.646606</ele>
<time>2010-07-17T18:29:49Z</time>
<desc>lat.=55.703480, lon.=26.086372, Alt.=161.646606m. Speed=11.880000m/h.</desc>
<speed>3.300000</speed>
</trkpt>
<trkpt lat="55.703503" lon="26.086399">
<ele>162.935669</ele>
<time>2010-07-17T18:29:50Z</time>
<desc>lat.=55.703503, lon.=26.086399, Alt.=162.935669m. Speed=10.656000m/h.</desc>
<speed>2.960000</speed>
</trkpt>
<trkpt lat="55.703533" lon="26.086420">
<ele>163.642700</ele>
<time>2010-07-17T18:29:51Z</time>
<desc>lat.=55.703533, lon.=26.086420, Alt.=163.642700m. Speed=13.536000m/h.</desc>
<speed>3.760000</speed>
</trkpt>
<trkpt lat="55.703571" lon="26.086433">
<ele>164.505981</ele>
<time>2010-07-17T18:29:52Z</time>
<desc>lat.=55.703571, lon.=26.086433, Alt.=164.505981m. Speed=15.696000m/h.</desc>
<speed>4.360000</speed>
</trkpt>
<trkpt lat="55.703609" lon="26.086443">
<ele>164.849731</ele>
<time>2010-07-17T18:29:53Z</time>
<desc>lat.=55.703609, lon.=26.086443, Alt.=164.849731m. Speed=15.012000m/h.</desc>
<speed>4.170000</speed>
</trkpt>
<trkpt lat="55.703648" lon="26.086452">
<ele>164.388794</ele>
<time>2010-07-17T18:29:54Z</time>
<desc>lat.=55.703648, lon.=26.086452, Alt.=164.388794m. Speed=14.616000m/h.</desc>
<speed>4.060000</speed>
</trkpt>
<trkpt lat="55.703686" lon="26.086458">
<ele>164.947388</ele>
<time>2010-07-17T18:29:55Z</time>
<desc>lat.=55.703686, lon.=26.086458, Alt.=164.947388m. Speed=15.408000m/h.</desc>
<speed>4.280000</speed>
</trkpt>
<trkpt lat="55.703728" lon="26.086466">
<ele>165.095825</ele>
<time>2010-07-17T18:29:56Z</time>
<desc>lat.=55.703728, lon.=26.086466, Alt.=165.095825m. Speed=15.660000m/h.</desc>
<speed>4.350000</speed>
</trkpt>
<trkpt lat="55.703773" lon="26.086458">
<ele>165.744263</ele>
<time>2010-07-17T18:29:57Z</time>
<desc>lat.=55.703773, lon.=26.086458, Alt.=165.744263m. Speed=15.624000m/h.</desc>
<speed>4.340000</speed>
</trkpt>
<trkpt lat="55.703815" lon="26.086456">
<ele>165.752075</ele>
<time>2010-07-17T18:29:58Z</time>
<desc>lat.=55.703815, lon.=26.086456, Alt.=165.752075m. Speed=15.012000m/h.</desc>
<speed>4.170000</speed>
</trkpt>
<trkpt lat="55.703854" lon="26.086454">
<ele>165.509888</ele>
<time>2010-07-17T18:29:59Z</time>
<desc>lat.=55.703854, lon.=26.086454, Alt.=165.509888m. Speed=14.868000m/h.</desc>
<speed>4.130000</speed>
</trkpt>
<trkpt lat="55.703896" lon="26.086447">
<ele>166.107544</ele>
<time>2010-07-17T18:30:00Z</time>
<desc>lat.=55.703896, lon.=26.086447, Alt.=166.107544m. Speed=16.920000m/h.</desc>
<speed>4.700000</speed>
</trkpt>
<trkpt lat="55.703934" lon="26.086441">
<ele>166.880981</ele>
<time>2010-07-17T18:30:01Z</time>
<desc>lat.=55.703934, lon.=26.086441, Alt.=166.880981m. Speed=15.516000m/h.</desc>
<speed>4.310000</speed>
</trkpt>
<trkpt lat="55.703972" lon="26.086443">
<ele>167.392700</ele>
<time>2010-07-17T18:30:02Z</time>
<desc>lat.=55.703972, lon.=26.086443, Alt.=167.392700m. Speed=15.084000m/h.</desc>
<speed>4.190000</speed>
</trkpt>
<trkpt lat="55.704018" lon="26.086435">
<ele>168.088013</ele>
<time>2010-07-17T18:30:03Z</time>
<desc>lat.=55.704018, lon.=26.086435, Alt.=168.088013m. Speed=15.804000m/h.</desc>
<speed>4.390000</speed>
</trkpt>
<trkpt lat="55.704071" lon="26.086428">
<ele>169.994263</ele>
<time>2010-07-17T18:30:04Z</time>
<desc>lat.=55.704071, lon.=26.086428, Alt.=169.994263m. Speed=17.351999m/h.</desc>
<speed>4.820000</speed>
</trkpt>
<trkpt lat="55.704117" lon="26.086432">
<ele>170.377075</ele>
<time>2010-07-17T18:30:05Z</time>
<desc>lat.=55.704117, lon.=26.086432, Alt.=170.377075m. Speed=15.660000m/h.</desc>
<speed>4.350000</speed>
</trkpt>
<trkpt lat="55.704159" lon="26.086435">
<ele>170.416138</ele>
<time>2010-07-17T18:30:06Z</time>
<desc>lat.=55.704159, lon.=26.086435, Alt.=170.416138m. Speed=14.364000m/h.</desc>
<speed>3.990000</speed>
</trkpt>
<trkpt lat="55.704201" lon="26.086437">
<ele>171.091919</ele>
<time>2010-07-17T18:30:07Z</time>
<desc>lat.=55.704201, lon.=26.086437, Alt.=171.091919m. Speed=12.024000m/h.</desc>
<speed>3.340000</speed>
</trkpt>
<trkpt lat="55.704231" lon="26.086439">
<ele>172.158325</ele>
<time>2010-07-17T18:30:08Z</time>
<desc>lat.=55.704231, lon.=26.086439, Alt.=172.158325m. Speed=8.604000m/h.</desc>
<speed>2.390000</speed>
</trkpt>
<trkpt lat="55.704254" lon="26.086441">
<ele>172.220825</ele>
<time>2010-07-17T18:30:09Z</time>
<desc>lat.=55.704254, lon.=26.086441, Alt.=172.220825m. Speed=5.868000m/h.</desc>
<speed>1.630000</speed>
</trkpt>
<trkpt lat="55.704269" lon="26.086441">
<ele>171.416138</ele>
<time>2010-07-17T18:30:10Z</time>
<desc>lat.=55.704269, lon.=26.086441, Alt.=171.416138m. Speed=3.384000m/h.</desc>
<speed>0.940000</speed>
</trkpt>
<trkpt lat="55.704281" lon="26.086447">
<ele>170.795044</ele>
<time>2010-07-17T18:30:11Z</time>
<desc>lat.=55.704281, lon.=26.086447, Alt.=170.795044m. Speed=1.800000m/h.</desc>
<speed>0.500000</speed>
</trkpt>
<trkpt lat="55.704281" lon="26.086454">
<ele>170.037231</ele>
<time>2010-07-17T18:30:12Z</time>
<desc>lat.=55.704281, lon.=26.086454, Alt.=170.037231m. Speed=0.864000m/h.</desc>
<speed>0.240000</speed>
</trkpt>
<trkpt lat="55.704288" lon="26.086445">
<ele>168.884888</ele>
<time>2010-07-17T18:30:13Z</time>
<desc>lat.=55.704288, lon.=26.086445, Alt.=168.884888m. Speed=1.008000m/h.</desc>
<speed>0.280000</speed>
</trkpt>
<trkpt lat="55.704288" lon="26.086441">
<ele>169.056763</ele>
<time>2010-07-17T18:30:14Z</time>
<desc>lat.=55.704288, lon.=26.086441, Alt.=169.056763m. Speed=1.080000m/h.</desc>
<speed>0.300000</speed>
</trkpt>
<trkpt lat="55.704292" lon="26.086445">
<ele>169.142700</ele>
<time>2010-07-17T18:30:15Z</time>
<desc>lat.=55.704292, lon.=26.086445, Alt.=169.142700m. Speed=1.440000m/h.</desc>
<speed>0.400000</speed>
</trkpt>
<trkpt lat="55.704296" lon="26.086445">
<ele>169.224731</ele>
<time>2010-07-17T18:30:16Z</time>
<desc>lat.=55.704296, lon.=26.086445, Alt.=169.224731m. Speed=2.772000m/h.</desc>
<speed>0.770000</speed>
</trkpt>
<trkpt lat="55.704304" lon="26.086449">
<ele>169.295044</ele>
<time>2010-07-17T18:30:17Z</time>
<desc>lat.=55.704304, lon.=26.086449, Alt.=169.295044m. Speed=2.376000m/h.</desc>
<speed>0.660000</speed>
</trkpt>
<trkpt lat="55.704308" lon="26.086449">
<ele>169.298950</ele>
<time>2010-07-17T18:30:18Z</time>
<desc>lat.=55.704308, lon.=26.086449, Alt.=169.298950m. Speed=2.664000m/h.</desc>
<speed>0.740000</speed>
</trkpt>
<trkpt lat="55.704315" lon="26.086447">
<ele>169.330200</ele>
<time>2010-07-17T18:30:19Z</time>
<desc>lat.=55.704315, lon.=26.086447, Alt.=169.330200m. Speed=2.196000m/h.</desc>
<speed>0.610000</speed>
</trkpt>
<trkpt lat="55.704323" lon="26.086445">
<ele>169.369263</ele>
<time>2010-07-17T18:30:20Z</time>
<desc>lat.=55.704323, lon.=26.086445, Alt.=169.369263m. Speed=1.224000m/h.</desc>
<speed>0.340000</speed>
</trkpt>
<trkpt lat="55.704323" lon="26.086443">
<ele>169.412231</ele>
<time>2010-07-17T18:30:21Z</time>
<desc>lat.=55.704323, lon.=26.086443, Alt.=169.412231m. Speed=0.540000m/h.</desc>
<speed>0.150000</speed>
</trkpt>
<trkpt lat="55.704327" lon="26.086441">
<ele>169.427856</ele>
<time>2010-07-17T18:30:22Z</time>
<desc>lat.=55.704327, lon.=26.086441, Alt.=169.427856m. Speed=0.504000m/h.</desc>
<speed>0.140000</speed>
</trkpt>
<trkpt lat="55.704327" lon="26.086439">
<ele>169.427856</ele>
<time>2010-07-17T18:30:23Z</time>
<desc>lat.=55.704327, lon.=26.086439, Alt.=169.427856m. Speed=0.576000m/h.</desc>
<speed>0.160000</speed>
</trkpt>
<trkpt lat="55.704327" lon="26.086437">
<ele>169.427856</ele>
<time>2010-07-17T18:30:24Z</time>
<desc>lat.=55.704327, lon.=26.086437, Alt.=169.427856m. Speed=0.360000m/h.</desc>
<speed>0.100000</speed>
</trkpt>
<trkpt lat="55.704327" lon="26.086435">
<ele>169.412231</ele>
<time>2010-07-17T18:30:25Z</time>
<desc>lat.=55.704327, lon.=26.086435, Alt.=169.412231m. Speed=0.612000m/h.</desc>
<speed>0.170000</speed>
</trkpt>
<trkpt lat="55.704327" lon="26.086432">
<ele>169.408325</ele>
<time>2010-07-17T18:30:26Z</time>
<desc>lat.=55.704327, lon.=26.086432, Alt.=169.408325m. Speed=0.432000m/h.</desc>
<speed>0.120000</speed>
</trkpt>
<trkpt lat="55.704327" lon="26.086432">
<ele>169.408325</ele>
<time>2010-07-17T18:30:27Z</time>
<desc>lat.=55.704327, lon.=26.086432, Alt.=169.408325m. Speed=2.160000m/h.</desc>
<speed>0.600000</speed>
</trkpt>
<trkpt lat="55.704323" lon="26.086437">
<ele>169.396606</ele>
<time>2010-07-17T18:30:28Z</time>
<desc>lat.=55.704323, lon.=26.086437, Alt.=169.396606m. Speed=1.152000m/h.</desc>
<speed>0.320000</speed>
</trkpt>
<trkpt lat="55.704323" lon="26.086439">
<ele>169.369263</ele>
<time>2010-07-17T18:30:29Z</time>
<desc>lat.=55.704323, lon.=26.086439, Alt.=169.369263m. Speed=1.548000m/h.</desc>
<speed>0.430000</speed>
</trkpt>
<trkpt lat="55.704327" lon="26.086439">
<ele>169.338013</ele>
<time>2010-07-17T18:30:30Z</time>
<desc>lat.=55.704327, lon.=26.086439, Alt.=169.338013m. Speed=2.124000m/h.</desc>
<speed>0.590000</speed>
</trkpt>
<trkpt lat="55.704334" lon="26.086437">
<ele>169.291138</ele>
<time>2010-07-17T18:30:31Z</time>
<desc>lat.=55.704334, lon.=26.086437, Alt.=169.291138m. Speed=0.396000m/h.</desc>
<speed>0.110000</speed>
</trkpt>
<trkpt lat="55.704334" lon="26.086435">
<ele>169.244263</ele>
<time>2010-07-17T18:30:32Z</time>
<desc>lat.=55.704334, lon.=26.086435, Alt.=169.244263m. Speed=0.072000m/h.</desc>
<speed>0.020000</speed>
</trkpt>
<trkpt lat="55.704334" lon="26.086435">
<ele>169.189575</ele>
<time>2010-07-17T18:30:33Z</time>
<desc>lat.=55.704334, lon.=26.086435, Alt.=169.189575m. Speed=0.252000m/h.</desc>
<speed>0.070000</speed>
</trkpt>
<trkpt lat="55.704334" lon="26.086435">
<ele>169.142700</ele>
<time>2010-07-17T18:30:34Z</time>
<desc>lat.=55.704334, lon.=26.086435, Alt.=169.142700m. Speed=0.360000m/h.</desc>
<speed>0.100000</speed>
</trkpt>
<trkpt lat="55.704334" lon="26.086433">
<ele>169.107544</ele>
<time>2010-07-17T18:30:35Z</time>
<desc>lat.=55.704334, lon.=26.086433, Alt.=169.107544m. Speed=0.000000m/h.</desc>
<speed>0.000000</speed>
</trkpt>
<trkpt lat="55.704334" lon="26.086433">
<ele>169.064575</ele>
<time>2010-07-17T18:30:36Z</time>
<desc>lat.=55.704334, lon.=26.086433, Alt.=169.064575m. Speed=0.144000m/h.</desc>
<speed>0.040000</speed>
</trkpt>
<trkpt lat="55.704334" lon="26.086432">
<ele>169.021606</ele>
<time>2010-07-17T18:30:37Z</time>
<desc>lat.=55.704334, lon.=26.086432, Alt.=169.021606m. Speed=0.108000m/h.</desc>
<speed>0.030000</speed>
</trkpt>
<trkpt lat="55.704334" lon="26.086432">
<ele>168.978638</ele>
<time>2010-07-17T18:30:38Z</time>
<desc>lat.=55.704334, lon.=26.086432, Alt.=168.978638m. Speed=0.072000m/h.</desc>
<speed>0.020000</speed>
</trkpt>
<trkpt lat="55.704334" lon="26.086432">
<ele>168.939575</ele>
<time>2010-07-17T18:30:39Z</time>
<desc>lat.=55.704334, lon.=26.086432, Alt.=168.939575m. Speed=0.108000m/h.</desc>
<speed>0.030000</speed>
</trkpt>
<trkpt lat="55.704334" lon="26.086432">
<ele>168.900513</ele>
<time>2010-07-17T18:30:40Z</time>
<desc>lat.=55.704334, lon.=26.086432, Alt.=168.900513m. Speed=0.540000m/h.</desc>
<speed>0.150000</speed>
</trkpt>
<trkpt lat="55.704334" lon="26.086430">
<ele>168.869263</ele>
<time>2010-07-17T18:30:41Z</time>
<desc>lat.=55.704334, lon.=26.086430, Alt.=168.869263m. Speed=0.288000m/h.</desc>
<speed>0.080000</speed>
</trkpt>
<trkpt lat="55.704334" lon="26.086428">
<ele>168.838013</ele>
<time>2010-07-17T18:30:42Z</time>
<desc>lat.=55.704334, lon.=26.086428, Alt.=168.838013m. Speed=0.144000m/h.</desc>
<speed>0.040000</speed>
</trkpt>
<trkpt lat="55.704334" lon="26.086426">
<ele>168.810669</ele>
<time>2010-07-17T18:30:43Z</time>
<desc>lat.=55.704334, lon.=26.086426, Alt.=168.810669m. Speed=0.216000m/h.</desc>
<speed>0.060000</speed>
</trkpt>
<trkpt lat="55.704334" lon="26.086426">
<ele>168.783325</ele>
<time>2010-07-17T18:30:44Z</time>
<desc>lat.=55.704334, lon.=26.086426, Alt.=168.783325m. Speed=0.288000m/h.</desc>
<speed>0.080000</speed>
</trkpt>
<trkpt lat="55.704334" lon="26.086424">
<ele>168.755981</ele>
<time>2010-07-17T18:30:45Z</time>
<desc>lat.=55.704334, lon.=26.086424, Alt.=168.755981m. Speed=0.180000m/h.</desc>
<speed>0.050000</speed>
</trkpt>
<trkpt lat="55.704334" lon="26.086424">
<ele>168.736450</ele>
<time>2010-07-17T18:30:46Z</time>
<desc>lat.=55.704334, lon.=26.086424, Alt.=168.736450m. Speed=0.252000m/h.</desc>
<speed>0.070000</speed>
</trkpt>
<trkpt lat="55.704334" lon="26.086422">
<ele>168.720825</ele>
<time>2010-07-17T18:30:47Z</time>
<desc>lat.=55.704334, lon.=26.086422, Alt.=168.720825m. Speed=0.252000m/h.</desc>
<speed>0.070000</speed>
</trkpt>
<trkpt lat="55.704334" lon="26.086422">
<ele>168.701294</ele>
<time>2010-07-17T18:30:48Z</time>
<desc>lat.=55.704334, lon.=26.086422, Alt.=168.701294m. Speed=0.720000m/h.</desc>
<speed>0.200000</speed>
</trkpt>
<trkpt lat="55.704334" lon="26.086418">
<ele>168.681763</ele>
<time>2010-07-17T18:30:49Z</time>
<desc>lat.=55.704334, lon.=26.086418, Alt.=168.681763m. Speed=0.720000m/h.</desc>
<speed>0.200000</speed>
</trkpt>
<trkpt lat="55.704338" lon="26.086416">
<ele>168.666138</ele>
<time>2010-07-17T18:30:50Z</time>
<desc>lat.=55.704338, lon.=26.086416, Alt.=168.666138m. Speed=0.540000m/h.</desc>
<speed>0.150000</speed>
</trkpt>
<trkpt lat="55.704338" lon="26.086414">
<ele>168.650513</ele>
<time>2010-07-17T18:30:51Z</time>
<desc>lat.=55.704338, lon.=26.086414, Alt.=168.650513m. Speed=0.432000m/h.</desc>
<speed>0.120000</speed>
</trkpt>
<trkpt lat="55.704338" lon="26.086412">
<ele>168.638794</ele>
<time>2010-07-17T18:30:52Z</time>
<desc>lat.=55.704338, lon.=26.086412, Alt.=168.638794m. Speed=0.576000m/h.</desc>
<speed>0.160000</speed>
</trkpt>
<trkpt lat="55.704338" lon="26.086409">
<ele>168.630981</ele>
<time>2010-07-17T18:30:53Z</time>
<desc>lat.=55.704338, lon.=26.086409, Alt.=168.630981m. Speed=0.360000m/h.</desc>
<speed>0.100000</speed>
</trkpt>
<trkpt lat="55.704338" lon="26.086407">
<ele>168.623169</ele>
<time>2010-07-17T18:30:54Z</time>
<desc>lat.=55.704338, lon.=26.086407, Alt.=168.623169m. Speed=0.576000m/h.</desc>
<speed>0.160000</speed>
</trkpt>
<trkpt lat="55.704338" lon="26.086405">
<ele>168.615356</ele>
<time>2010-07-17T18:30:55Z</time>
<desc>lat.=55.704338, lon.=26.086405, Alt.=168.615356m. Speed=0.792000m/h.</desc>
<speed>0.220000</speed>
</trkpt>
<trkpt lat="55.704338" lon="26.086401">
<ele>168.611450</ele>
<time>2010-07-17T18:30:56Z</time>
<desc>lat.=55.704338, lon.=26.086401, Alt.=168.611450m. Speed=0.864000m/h.</desc>
<speed>0.240000</speed>
</trkpt>
<trkpt lat="55.704338" lon="26.086397">
<ele>168.603638</ele>
<time>2010-07-17T18:30:57Z</time>
<desc>lat.=55.704338, lon.=26.086397, Alt.=168.603638m. Speed=0.792000m/h.</desc>
<speed>0.220000</speed>
</trkpt>
<trkpt lat="55.704338" lon="26.086393">
<ele>168.599731</ele>
<time>2010-07-17T18:30:58Z</time>
<desc>lat.=55.704338, lon.=26.086393, Alt.=168.599731m. Speed=0.756000m/h.</desc>
<speed>0.210000</speed>
</trkpt>
<trkpt lat="55.704338" lon="26.086390">
<ele>168.595825</ele>
<time>2010-07-17T18:30:59Z</time>
<desc>lat.=55.704338, lon.=26.086390, Alt.=168.595825m. Speed=0.504000m/h.</desc>
<speed>0.140000</speed>
</trkpt>
<trkpt lat="55.704338" lon="26.086388">
<ele>168.591919</ele>
<time>2010-07-17T18:31:00Z</time>
<desc>lat.=55.704338, lon.=26.086388, Alt.=168.591919m. Speed=0.684000m/h.</desc>
<speed>0.190000</speed>
</trkpt>
<trkpt lat="55.704334" lon="26.086384">
<ele>168.588013</ele>
<time>2010-07-17T18:31:01Z</time>
<desc>lat.=55.704334, lon.=26.086384, Alt.=168.588013m. Speed=0.792000m/h.</desc>
<speed>0.220000</speed>
</trkpt>
<trkpt lat="55.704334" lon="26.086380">
<ele>168.584106</ele>
<time>2010-07-17T18:31:02Z</time>
<desc>lat.=55.704334, lon.=26.086380, Alt.=168.584106m. Speed=0.756000m/h.</desc>
<speed>0.210000</speed>
</trkpt>
<trkpt lat="55.704334" lon="26.086378">
<ele>168.580200</ele>
<time>2010-07-17T18:31:03Z</time>
<desc>lat.=55.704334, lon.=26.086378, Alt.=168.580200m. Speed=0.720000m/h.</desc>
<speed>0.200000</speed>
</trkpt>
<trkpt lat="55.704334" lon="26.086374">
<ele>168.576294</ele>
<time>2010-07-17T18:31:04Z</time>
<desc>lat.=55.704334, lon.=26.086374, Alt.=168.576294m. Speed=1.044000m/h.</desc>
<speed>0.290000</speed>
</trkpt>
<trkpt lat="55.704334" lon="26.086369">
<ele>168.576294</ele>
<time>2010-07-17T18:31:05Z</time>
<desc>lat.=55.704334, lon.=26.086369, Alt.=168.576294m. Speed=1.008000m/h.</desc>
<speed>0.280000</speed>
</trkpt>
<trkpt lat="55.704334" lon="26.086365">
<ele>168.572388</ele>
<time>2010-07-17T18:31:06Z</time>
<desc>lat.=55.704334, lon.=26.086365, Alt.=168.572388m. Speed=1.080000m/h.</desc>
<speed>0.300000</speed>
</trkpt>
<trkpt lat="55.704330" lon="26.086359">
<ele>168.568481</ele>
<time>2010-07-17T18:31:07Z</time>
<desc>lat.=55.704330, lon.=26.086359, Alt.=168.568481m. Speed=0.684000m/h.</desc>
<speed>0.190000</speed>
</trkpt>
<trkpt lat="55.704330" lon="26.086357">
<ele>168.568481</ele>
<time>2010-07-17T18:31:08Z</time>
<desc>lat.=55.704330, lon.=26.086357, Alt.=168.568481m. Speed=0.576000m/h.</desc>
<speed>0.160000</speed>
</trkpt>
<trkpt lat="55.704330" lon="26.086353">
<ele>168.564575</ele>
<time>2010-07-17T18:31:09Z</time>
<desc>lat.=55.704330, lon.=26.086353, Alt.=168.564575m. Speed=0.324000m/h.</desc>
<speed>0.090000</speed>
</trkpt>
<trkpt lat="55.704330" lon="26.086351">
<ele>168.564575</ele>
<time>2010-07-17T18:31:10Z</time>
<desc>lat.=55.704330, lon.=26.086351, Alt.=168.564575m. Speed=0.252000m/h.</desc>
<speed>0.070000</speed>
</trkpt>
<trkpt lat="55.704330" lon="26.086351">
<ele>168.560669</ele>
<time>2010-07-17T18:31:11Z</time>
<desc>lat.=55.704330, lon.=26.086351, Alt.=168.560669m. Speed=0.180000m/h.</desc>
<speed>0.050000</speed>
</trkpt>
<trkpt lat="55.704330" lon="26.086351">
<ele>168.556763</ele>
<time>2010-07-17T18:31:12Z</time>
<desc>lat.=55.704330, lon.=26.086351, Alt.=168.556763m. Speed=0.144000m/h.</desc>
<speed>0.040000</speed>
</trkpt>
<trkpt lat="55.704334" lon="26.086349">
<ele>168.552856</ele>
<time>2010-07-17T18:31:13Z</time>
<desc>lat.=55.704334, lon.=26.086349, Alt.=168.552856m. Speed=0.216000m/h.</desc>
<speed>0.060000</speed>
</trkpt>
<trkpt lat="55.704334" lon="26.086349">
<ele>168.548950</ele>
<time>2010-07-17T18:31:14Z</time>
<desc>lat.=55.704334, lon.=26.086349, Alt.=168.548950m. Speed=0.396000m/h.</desc>
<speed>0.110000</speed>
</trkpt>
<trkpt lat="55.704334" lon="26.086348">
<ele>168.545044</ele>
<time>2010-07-17T18:31:15Z</time>
<desc>lat.=55.704334, lon.=26.086348, Alt.=168.545044m. Speed=0.180000m/h.</desc>
<speed>0.050000</speed>
</trkpt>
<trkpt lat="55.704334" lon="26.086348">
<ele>168.541138</ele>
<time>2010-07-17T18:31:16Z</time>
<desc>lat.=55.704334, lon.=26.086348, Alt.=168.541138m. Speed=0.252000m/h.</desc>
<speed>0.070000</speed>
</trkpt>
<trkpt lat="55.704334" lon="26.086346">
<ele>168.537231</ele>
<time>2010-07-17T18:31:17Z</time>
<desc>lat.=55.704334, lon.=26.086346, Alt.=168.537231m. Speed=0.072000m/h.</desc>
<speed>0.020000</speed>
</trkpt>
<trkpt lat="55.704334" lon="26.086346">
<ele>168.533325</ele>
<time>2010-07-17T18:31:18Z</time>
<desc>lat.=55.704334, lon.=26.086346, Alt.=168.533325m. Speed=0.252000m/h.</desc>
<speed>0.070000</speed>
</trkpt>
<trkpt lat="55.704334" lon="26.086346">
<ele>168.525513</ele>
<time>2010-07-17T18:31:19Z</time>
<desc>lat.=55.704334, lon.=26.086346, Alt.=168.525513m. Speed=0.180000m/h.</desc>
<speed>0.050000</speed>
</trkpt>
<trkpt lat="55.704330" lon="26.086346">
<ele>168.517700</ele>
<time>2010-07-17T18:31:20Z</time>
<desc>lat.=55.704330, lon.=26.086346, Alt.=168.517700m. Speed=0.108000m/h.</desc>
<speed>0.030000</speed>
</trkpt>
<trkpt lat="55.704330" lon="26.086344">
<ele>168.505981</ele>
<time>2010-07-17T18:31:21Z</time>
<desc>lat.=55.704330, lon.=26.086344, Alt.=168.505981m. Speed=0.036000m/h.</desc>
<speed>0.010000</speed>
</trkpt>
<trkpt lat="55.704330" lon="26.086344">
<ele>168.502075</ele>
<time>2010-07-17T18:31:22Z</time>
<desc>lat.=55.704330, lon.=26.086344, Alt.=168.502075m. Speed=0.360000m/h.</desc>
<speed>0.100000</speed>
</trkpt>
<trkpt lat="55.704330" lon="26.086344">
<ele>168.494263</ele>
<time>2010-07-17T18:31:23Z</time>
<desc>lat.=55.704330, lon.=26.086344, Alt.=168.494263m. Speed=0.252000m/h.</desc>
<speed>0.070000</speed>
</trkpt>
<trkpt lat="55.704330" lon="26.086344">
<ele>168.486450</ele>
<time>2010-07-17T18:31:24Z</time>
<desc>lat.=55.704330, lon.=26.086344, Alt.=168.486450m. Speed=0.288000m/h.</desc>
<speed>0.080000</speed>
</trkpt>
<trkpt lat="55.704330" lon="26.086342">
<ele>168.478638</ele>
<time>2010-07-17T18:31:25Z</time>
<desc>lat.=55.704330, lon.=26.086342, Alt.=168.478638m. Speed=0.360000m/h.</desc>
<speed>0.100000</speed>
</trkpt>
<trkpt lat="55.704330" lon="26.086342">
<ele>168.474731</ele>
<time>2010-07-17T18:31:26Z</time>
<desc>lat.=55.704330, lon.=26.086342, Alt.=168.474731m. Speed=0.252000m/h.</desc>
<speed>0.070000</speed>
</trkpt>
<trkpt lat="55.704327" lon="26.086344">
<ele>168.466919</ele>
<time>2010-07-17T18:31:27Z</time>
<desc>lat.=55.704327, lon.=26.086344, Alt.=168.466919m. Speed=0.216000m/h.</desc>
<speed>0.060000</speed>
</trkpt>
<trkpt lat="55.704330" lon="26.086344">
<ele>168.463013</ele>
<time>2010-07-17T18:31:28Z</time>
<desc>lat.=55.704330, lon.=26.086344, Alt.=168.463013m. Speed=0.396000m/h.</desc>
<speed>0.110000</speed>
</trkpt>
<trkpt lat="55.704330" lon="26.086346">
<ele>168.459106</ele>
<time>2010-07-17T18:31:29Z</time>
<desc>lat.=55.704330, lon.=26.086346, Alt.=168.459106m. Speed=0.288000m/h.</desc>
<speed>0.080000</speed>
</trkpt>
<trkpt lat="55.704330" lon="26.086348">
<ele>168.455200</ele>
<time>2010-07-17T18:31:30Z</time>
<desc>lat.=55.704330, lon.=26.086348, Alt.=168.455200m. Speed=0.108000m/h.</desc>
<speed>0.030000</speed>
</trkpt>
<trkpt lat="55.704330" lon="26.086348">
<ele>168.447388</ele>
<time>2010-07-17T18:31:31Z</time>
<desc>lat.=55.704330, lon.=26.086348, Alt.=168.447388m. Speed=0.252000m/h.</desc>
<speed>0.070000</speed>
</trkpt>
<trkpt lat="55.704330" lon="26.086346">
<ele>168.443481</ele>
<time>2010-07-17T18:31:32Z</time>
<desc>lat.=55.704330, lon.=26.086346, Alt.=168.443481m. Speed=0.036000m/h.</desc>
<speed>0.010000</speed>
</trkpt>
<trkpt lat="55.704330" lon="26.086346">
<ele>168.435669</ele>
<time>2010-07-17T18:31:33Z</time>
<desc>lat.=55.704330, lon.=26.086346, Alt.=168.435669m. Speed=0.108000m/h.</desc>
<speed>0.030000</speed>
</trkpt>
<trkpt lat="55.704330" lon="26.086346">
<ele>168.431763</ele>
<time>2010-07-17T18:31:34Z</time>
<desc>lat.=55.704330, lon.=26.086346, Alt.=168.431763m. Speed=0.108000m/h.</desc>
<speed>0.030000</speed>
</trkpt>
<trkpt lat="55.704330" lon="26.086346">
<ele>168.427856</ele>
<time>2010-07-17T18:31:35Z</time>
<desc>lat.=55.704330, lon.=26.086346, Alt.=168.427856m. Speed=0.180000m/h.</desc>
<speed>0.050000</speed>
</trkpt>
<trkpt lat="55.704330" lon="26.086346">
<ele>168.423950</ele>
<time>2010-07-17T18:31:36Z</time>
<desc>lat.=55.704330, lon.=26.086346, Alt.=168.423950m. Speed=0.072000m/h.</desc>
<speed>0.020000</speed>
</trkpt>
<trkpt lat="55.704330" lon="26.086348">
<ele>168.416138</ele>
<time>2010-07-17T18:31:37Z</time>
<desc>lat.=55.704330, lon.=26.086348, Alt.=168.416138m. Speed=0.252000m/h.</desc>
<speed>0.070000</speed>
</trkpt>
<trkpt lat="55.704327" lon="26.086348">
<ele>168.408325</ele>
<time>2010-07-17T18:31:38Z</time>
<desc>lat.=55.704327, lon.=26.086348, Alt.=168.408325m. Speed=0.396000m/h.</desc>
<speed>0.110000</speed>
</trkpt>
<trkpt lat="55.704330" lon="26.086349">
<ele>168.400513</ele>
<time>2010-07-17T18:31:39Z</time>
<desc>lat.=55.704330, lon.=26.086349, Alt.=168.400513m. Speed=0.144000m/h.</desc>
<speed>0.040000</speed>
</trkpt>
<trkpt lat="55.704330" lon="26.086348">
<ele>168.392700</ele>
<time>2010-07-17T18:31:40Z</time>
<desc>lat.=55.704330, lon.=26.086348, Alt.=168.392700m. Speed=0.288000m/h.</desc>
<speed>0.080000</speed>
</trkpt>
<trkpt lat="55.704330" lon="26.086348">
<ele>168.380981</ele>
<time>2010-07-17T18:31:41Z</time>
<desc>lat.=55.704330, lon.=26.086348, Alt.=168.380981m. Speed=0.504000m/h.</desc>
<speed>0.140000</speed>
</trkpt>
<trkpt lat="55.704330" lon="26.086344">
<ele>168.377075</ele>
<time>2010-07-17T18:31:42Z</time>
<desc>lat.=55.704330, lon.=26.086344, Alt.=168.377075m. Speed=0.504000m/h.</desc>
<speed>0.140000</speed>
</trkpt>
<trkpt lat="55.704327" lon="26.086342">
<ele>168.369263</ele>
<time>2010-07-17T18:31:43Z</time>
<desc>lat.=55.704327, lon.=26.086342, Alt.=168.369263m. Speed=0.432000m/h.</desc>
<speed>0.120000</speed>
</trkpt>
<trkpt lat="55.704327" lon="26.086342">
<ele>168.361450</ele>
<time>2010-07-17T18:31:44Z</time>
<desc>lat.=55.704327, lon.=26.086342, Alt.=168.361450m. Speed=0.540000m/h.</desc>
<speed>0.150000</speed>
</trkpt>
<trkpt lat="55.704327" lon="26.086338">
<ele>168.353638</ele>
<time>2010-07-17T18:31:45Z</time>
<desc>lat.=55.704327, lon.=26.086338, Alt.=168.353638m. Speed=0.792000m/h.</desc>
<speed>0.220000</speed>
</trkpt>
<trkpt lat="55.704327" lon="26.086336">
<ele>168.341919</ele>
<time>2010-07-17T18:31:46Z</time>
<desc>lat.=55.704327, lon.=26.086336, Alt.=168.341919m. Speed=0.684000m/h.</desc>
<speed>0.190000</speed>
</trkpt>
<trkpt lat="55.704323" lon="26.086334">
<ele>168.334106</ele>
<time>2010-07-17T18:31:47Z</time>
<desc>lat.=55.704323, lon.=26.086334, Alt.=168.334106m. Speed=0.720000m/h.</desc>
<speed>0.200000</speed>
</trkpt>
<trkpt lat="55.704323" lon="26.086332">
<ele>168.322388</ele>
<time>2010-07-17T18:31:48Z</time>
<desc>lat.=55.704323, lon.=26.086332, Alt.=168.322388m. Speed=0.180000m/h.</desc>
<speed>0.050000</speed>
</trkpt>
<trkpt lat="55.704323" lon="26.086330">
<ele>168.314575</ele>
<time>2010-07-17T18:31:49Z</time>
<desc>lat.=55.704323, lon.=26.086330, Alt.=168.314575m. Speed=0.432000m/h.</desc>
<speed>0.120000</speed>
</trkpt>
<trkpt lat="55.704323" lon="26.086329">
<ele>168.306763</ele>
<time>2010-07-17T18:31:50Z</time>
<desc>lat.=55.704323, lon.=26.086329, Alt.=168.306763m. Speed=0.252000m/h.</desc>
<speed>0.070000</speed>
</trkpt>
<trkpt lat="55.704323" lon="26.086329">
<ele>168.295044</ele>
<time>2010-07-17T18:31:51Z</time>
<desc>lat.=55.704323, lon.=26.086329, Alt.=168.295044m. Speed=0.216000m/h.</desc>
<speed>0.060000</speed>
</trkpt>
<trkpt lat="55.704323" lon="26.086329">
<ele>168.287231</ele>
<time>2010-07-17T18:31:52Z</time>
<desc>lat.=55.704323, lon.=26.086329, Alt.=168.287231m. Speed=0.288000m/h.</desc>
<speed>0.080000</speed>
</trkpt>
<trkpt lat="55.704323" lon="26.086330">
<ele>168.275513</ele>
<time>2010-07-17T18:31:53Z</time>
<desc>lat.=55.704323, lon.=26.086330, Alt.=168.275513m. Speed=0.972000m/h.</desc>
<speed>0.270000</speed>
</trkpt>
<trkpt lat="55.704327" lon="26.086334">
<ele>168.267700</ele>
<time>2010-07-17T18:31:54Z</time>
<desc>lat.=55.704327, lon.=26.086334, Alt.=168.267700m. Speed=1.224000m/h.</desc>
<speed>0.340000</speed>
</trkpt>
<trkpt lat="55.704327" lon="26.086340">
<ele>168.259888</ele>
<time>2010-07-17T18:31:55Z</time>
<desc>lat.=55.704327, lon.=26.086340, Alt.=168.259888m. Speed=1.116000m/h.</desc>
<speed>0.310000</speed>
</trkpt>
<trkpt lat="55.704330" lon="26.086344">
<ele>168.252075</ele>
<time>2010-07-17T18:31:56Z</time>
<desc>lat.=55.704330, lon.=26.086344, Alt.=168.252075m. Speed=0.792000m/h.</desc>
<speed>0.220000</speed>
</trkpt>
<trkpt lat="55.704330" lon="26.086348">
<ele>168.244263</ele>
<time>2010-07-17T18:31:57Z</time>
<desc>lat.=55.704330, lon.=26.086348, Alt.=168.244263m. Speed=0.972000m/h.</desc>
<speed>0.270000</speed>
</trkpt>
<trkpt lat="55.704330" lon="26.086351">
<ele>168.236450</ele>
<time>2010-07-17T18:31:58Z</time>
<desc>lat.=55.704330, lon.=26.086351, Alt.=168.236450m. Speed=0.792000m/h.</desc>
<speed>0.220000</speed>
</trkpt>
<trkpt lat="55.704330" lon="26.086355">
<ele>168.228638</ele>
<time>2010-07-17T18:31:59Z</time>
<desc>lat.=55.704330, lon.=26.086355, Alt.=168.228638m. Speed=0.576000m/h.</desc>
<speed>0.160000</speed>
</trkpt>
<trkpt lat="55.704334" lon="26.086357">
<ele>168.220825</ele>
<time>2010-07-17T18:32:00Z</time>
<desc>lat.=55.704334, lon.=26.086357, Alt.=168.220825m. Speed=0.720000m/h.</desc>
<speed>0.200000</speed>
</trkpt>
<trkpt lat="55.704334" lon="26.086359">
<ele>168.216919</ele>
<time>2010-07-17T18:32:01Z</time>
<desc>lat.=55.704334, lon.=26.086359, Alt.=168.216919m. Speed=0.504000m/h.</desc>
<speed>0.140000</speed>
</trkpt>
<trkpt lat="55.704334" lon="26.086361">
<ele>168.209106</ele>
<time>2010-07-17T18:32:02Z</time>
<desc>lat.=55.704334, lon.=26.086361, Alt.=168.209106m. Speed=0.324000m/h.</desc>
<speed>0.090000</speed>
</trkpt>
<trkpt lat="55.704334" lon="26.086363">
<ele>168.201294</ele>
<time>2010-07-17T18:32:03Z</time>
<desc>lat.=55.704334, lon.=26.086363, Alt.=168.201294m. Speed=0.468000m/h.</desc>
<speed>0.130000</speed>
</trkpt>
<trkpt lat="55.704338" lon="26.086365">
<ele>168.193481</ele>
<time>2010-07-17T18:32:04Z</time>
<desc>lat.=55.704338, lon.=26.086365, Alt.=168.193481m. Speed=0.432000m/h.</desc>
<speed>0.120000</speed>
</trkpt>
<trkpt lat="55.704338" lon="26.086365">
<ele>168.185669</ele>
<time>2010-07-17T18:32:05Z</time>
<desc>lat.=55.704338, lon.=26.086365, Alt.=168.185669m. Speed=0.144000m/h.</desc>
<speed>0.040000</speed>
</trkpt>
<trkpt lat="55.704338" lon="26.086365">
<ele>168.177856</ele>
<time>2010-07-17T18:32:06Z</time>
<desc>lat.=55.704338, lon.=26.086365, Alt.=168.177856m. Speed=0.144000m/h.</desc>
<speed>0.040000</speed>
</trkpt>
<trkpt lat="55.704338" lon="26.086367">
<ele>168.166138</ele>
<time>2010-07-17T18:32:07Z</time>
<desc>lat.=55.704338, lon.=26.086367, Alt.=168.166138m. Speed=0.036000m/h.</desc>
<speed>0.010000</speed>
</trkpt>
<trkpt lat="55.704338" lon="26.086367">
<ele>168.158325</ele>
<time>2010-07-17T18:32:08Z</time>
<desc>lat.=55.704338, lon.=26.086367, Alt.=168.158325m. Speed=0.324000m/h.</desc>
<speed>0.090000</speed>
</trkpt>
<trkpt lat="55.704338" lon="26.086367">
<ele>168.146606</ele>
<time>2010-07-17T18:32:09Z</time>
<desc>lat.=55.704338, lon.=26.086367, Alt.=168.146606m. Speed=0.288000m/h.</desc>
<speed>0.080000</speed>
</trkpt>
<trkpt lat="55.704338" lon="26.086369">
<ele>168.142700</ele>
<time>2010-07-17T18:32:10Z</time>
<desc>lat.=55.704338, lon.=26.086369, Alt.=168.142700m. Speed=0.504000m/h.</desc>
<speed>0.140000</speed>
</trkpt>
<trkpt lat="55.704338" lon="26.086370">
<ele>168.130981</ele>
<time>2010-07-17T18:32:11Z</time>
<desc>lat.=55.704338, lon.=26.086370, Alt.=168.130981m. Speed=0.468000m/h.</desc>
<speed>0.130000</speed>
</trkpt>
<trkpt lat="55.704338" lon="26.086372">
<ele>168.123169</ele>
<time>2010-07-17T18:32:12Z</time>
<desc>lat.=55.704338, lon.=26.086372, Alt.=168.123169m. Speed=0.360000m/h.</desc>
<speed>0.100000</speed>
</trkpt>
<trkpt lat="55.704338" lon="26.086374">
<ele>168.115356</ele>
<time>2010-07-17T18:32:13Z</time>
<desc>lat.=55.704338, lon.=26.086374, Alt.=168.115356m. Speed=0.072000m/h.</desc>
<speed>0.020000</speed>
</trkpt>
<trkpt lat="55.704338" lon="26.086374">
<ele>168.107544</ele>
<time>2010-07-17T18:32:14Z</time>
<desc>lat.=55.704338, lon.=26.086374, Alt.=168.107544m. Speed=0.252000m/h.</desc>
<speed>0.070000</speed>
</trkpt>
<trkpt lat="55.704338" lon="26.086374">
<ele>168.095825</ele>
<time>2010-07-17T18:32:15Z</time>
<desc>lat.=55.704338, lon.=26.086374, Alt.=168.095825m. Speed=0.360000m/h.</desc>
<speed>0.100000</speed>
</trkpt>
<trkpt lat="55.704342" lon="26.086372">
<ele>168.088013</ele>
<time>2010-07-17T18:32:16Z</time>
<desc>lat.=55.704342, lon.=26.086372, Alt.=168.088013m. Speed=0.252000m/h.</desc>
<speed>0.070000</speed>
</trkpt>
<trkpt lat="55.704342" lon="26.086370">
<ele>168.080200</ele>
<time>2010-07-17T18:32:17Z</time>
<desc>lat.=55.704342, lon.=26.086370, Alt.=168.080200m. Speed=0.288000m/h.</desc>
<speed>0.080000</speed>
</trkpt>
<trkpt lat="55.704342" lon="26.086370">
<ele>168.072388</ele>
<time>2010-07-17T18:32:18Z</time>
<desc>lat.=55.704342, lon.=26.086370, Alt.=168.072388m. Speed=0.396000m/h.</desc>
<speed>0.110000</speed>
</trkpt>
<trkpt lat="55.704342" lon="26.086369">
<ele>168.068481</ele>
<time>2010-07-17T18:32:19Z</time>
<desc>lat.=55.704342, lon.=26.086369, Alt.=168.068481m. Speed=0.252000m/h.</desc>
<speed>0.070000</speed>
</trkpt>
<trkpt lat="55.704342" lon="26.086367">
<ele>168.064575</ele>
<time>2010-07-17T18:32:20Z</time>
<desc>lat.=55.704342, lon.=26.086367, Alt.=168.064575m. Speed=0.216000m/h.</desc>
<speed>0.060000</speed>
</trkpt>
<trkpt lat="55.704342" lon="26.086367">
<ele>168.064575</ele>
<time>2010-07-17T18:32:21Z</time>
<desc>lat.=55.704342, lon.=26.086367, Alt.=168.064575m. Speed=0.072000m/h.</desc>
<speed>0.020000</speed>
</trkpt>
<trkpt lat="55.704342" lon="26.086367">
<ele>168.060669</ele>
<time>2010-07-17T18:32:22Z</time>
<desc>lat.=55.704342, lon.=26.086367, Alt.=168.060669m. Speed=0.288000m/h.</desc>
<speed>0.080000</speed>
</trkpt>
<trkpt lat="55.704342" lon="26.086365">
<ele>168.056763</ele>
<time>2010-07-17T18:32:23Z</time>
<desc>lat.=55.704342, lon.=26.086365, Alt.=168.056763m. Speed=0.756000m/h.</desc>
<speed>0.210000</speed>
</trkpt>
<trkpt lat="55.704342" lon="26.086361">
<ele>168.052856</ele>
<time>2010-07-17T18:32:24Z</time>
<desc>lat.=55.704342, lon.=26.086361, Alt.=168.052856m. Speed=0.540000m/h.</desc>
<speed>0.150000</speed>
</trkpt>
<trkpt lat="55.704342" lon="26.086359">
<ele>168.052856</ele>
<time>2010-07-17T18:32:25Z</time>
<desc>lat.=55.704342, lon.=26.086359, Alt.=168.052856m. Speed=0.684000m/h.</desc>
<speed>0.190000</speed>
</trkpt>
<trkpt lat="55.704342" lon="26.086355">
<ele>168.052856</ele>
<time>2010-07-17T18:32:26Z</time>
<desc>lat.=55.704342, lon.=26.086355, Alt.=168.052856m. Speed=0.468000m/h.</desc>
<speed>0.130000</speed>
</trkpt>
<trkpt lat="55.704342" lon="26.086353">
<ele>168.048950</ele>
<time>2010-07-17T18:32:27Z</time>
<desc>lat.=55.704342, lon.=26.086353, Alt.=168.048950m. Speed=0.324000m/h.</desc>
<speed>0.090000</speed>
</trkpt>
<trkpt lat="55.704338" lon="26.086351">
<ele>168.045044</ele>
<time>2010-07-17T18:32:28Z</time>
<desc>lat.=55.704338, lon.=26.086351, Alt.=168.045044m. Speed=0.324000m/h.</desc>
<speed>0.090000</speed>
</trkpt>
<trkpt lat="55.704342" lon="26.086349">
<ele>168.037231</ele>
<time>2010-07-17T18:32:29Z</time>
<desc>lat.=55.704342, lon.=26.086349, Alt.=168.037231m. Speed=0.144000m/h.</desc>
<speed>0.040000</speed>
</trkpt>
<trkpt lat="55.704342" lon="26.086349">
<ele>168.033325</ele>
<time>2010-07-17T18:32:30Z</time>
<desc>lat.=55.704342, lon.=26.086349, Alt.=168.033325m. Speed=0.000000m/h.</desc>
<speed>0.000000</speed>
</trkpt>
<trkpt lat="55.704342" lon="26.086349">
<ele>168.033325</ele>
<time>2010-07-17T18:32:31Z</time>
<desc>lat.=55.704342, lon.=26.086349, Alt.=168.033325m. Speed=0.036000m/h.</desc>
<speed>0.010000</speed>
</trkpt>
<trkpt lat="55.704342" lon="26.086349">
<ele>168.029419</ele>
<time>2010-07-17T18:32:32Z</time>
<desc>lat.=55.704342, lon.=26.086349, Alt.=168.029419m. Speed=0.144000m/h.</desc>
<speed>0.040000</speed>
</trkpt>
<trkpt lat="55.704342" lon="26.086349">
<ele>168.025513</ele>
<time>2010-07-17T18:32:33Z</time>
<desc>lat.=55.704342, lon.=26.086349, Alt.=168.025513m. Speed=0.324000m/h.</desc>
<speed>0.090000</speed>
</trkpt>
<trkpt lat="55.704342" lon="26.086348">
<ele>168.017700</ele>
<time>2010-07-17T18:32:34Z</time>
<desc>lat.=55.704342, lon.=26.086348, Alt.=168.017700m. Speed=0.108000m/h.</desc>
<speed>0.030000</speed>
</trkpt>
<trkpt lat="55.704342" lon="26.086348">
<ele>168.017700</ele>
<time>2010-07-17T18:32:35Z</time>
<desc>lat.=55.704342, lon.=26.086348, Alt.=168.017700m. Speed=0.144000m/h.</desc>
<speed>0.040000</speed>
</trkpt>
<trkpt lat="55.704342" lon="26.086348">
<ele>168.013794</ele>
<time>2010-07-17T18:32:36Z</time>
<desc>lat.=55.704342, lon.=26.086348, Alt.=168.013794m. Speed=0.144000m/h.</desc>
<speed>0.040000</speed>
</trkpt>
<trkpt lat="55.704342" lon="26.086348">
<ele>168.013794</ele>
<time>2010-07-17T18:32:37Z</time>
<desc>lat.=55.704342, lon.=26.086348, Alt.=168.013794m. Speed=0.396000m/h.</desc>
<speed>0.110000</speed>
</trkpt>
<trkpt lat="55.704342" lon="26.086346">
<ele>168.013794</ele>
<time>2010-07-17T18:32:38Z</time>
<desc>lat.=55.704342, lon.=26.086346, Alt.=168.013794m. Speed=0.072000m/h.</desc>
<speed>0.020000</speed>
</trkpt>
<trkpt lat="55.704342" lon="26.086346">
<ele>168.013794</ele>
<time>2010-07-17T18:32:39Z</time>
<desc>lat.=55.704342, lon.=26.086346, Alt.=168.013794m. Speed=0.036000m/h.</desc>
<speed>0.010000</speed>
</trkpt>
<trkpt lat="55.704342" lon="26.086346">
<ele>168.017700</ele>
<time>2010-07-17T18:32:40Z</time>
<desc>lat.=55.704342, lon.=26.086346, Alt.=168.017700m. Speed=0.216000m/h.</desc>
<speed>0.060000</speed>
</trkpt>
<trkpt lat="55.704342" lon="26.086346">
<ele>168.017700</ele>
<time>2010-07-17T18:32:41Z</time>
<desc>lat.=55.704342, lon.=26.086346, Alt.=168.017700m. Speed=0.108000m/h.</desc>
<speed>0.030000</speed>
</trkpt>
<trkpt lat="55.704342" lon="26.086346">
<ele>168.017700</ele>
<time>2010-07-17T18:32:42Z</time>
<desc>lat.=55.704342, lon.=26.086346, Alt.=168.017700m. Speed=0.072000m/h.</desc>
<speed>0.020000</speed>
</trkpt>
<trkpt lat="55.704342" lon="26.086346">
<ele>168.017700</ele>
<time>2010-07-17T18:32:43Z</time>
<desc>lat.=55.704342, lon.=26.086346, Alt.=168.017700m. Speed=0.252000m/h.</desc>
<speed>0.070000</speed>
</trkpt>
<trkpt lat="55.704342" lon="26.086346">
<ele>168.013794</ele>
<time>2010-07-17T18:32:44Z</time>
<desc>lat.=55.704342, lon.=26.086346, Alt.=168.013794m. Speed=0.036000m/h.</desc>
<speed>0.010000</speed>
</trkpt>
<trkpt lat="55.704342" lon="26.086346">
<ele>168.013794</ele>
<time>2010-07-17T18:32:45Z</time>
<desc>lat.=55.704342, lon.=26.086346, Alt.=168.013794m. Speed=0.036000m/h.</desc>
<speed>0.010000</speed>
</trkpt>
<trkpt lat="55.704342" lon="26.086346">
<ele>168.013794</ele>
<time>2010-07-17T18:32:46Z</time>
<desc>lat.=55.704342, lon.=26.086346, Alt.=168.013794m. Speed=0.036000m/h.</desc>
<speed>0.010000</speed>
</trkpt>
<trkpt lat="55.704342" lon="26.086346">
<ele>168.009888</ele>
<time>2010-07-17T18:32:47Z</time>
<desc>lat.=55.704342, lon.=26.086346, Alt.=168.009888m. Speed=0.072000m/h.</desc>
<speed>0.020000</speed>
</trkpt>
<trkpt lat="55.704342" lon="26.086346">
<ele>168.005981</ele>
<time>2010-07-17T18:32:48Z</time>
<desc>lat.=55.704342, lon.=26.086346, Alt.=168.005981m. Speed=0.036000m/h.</desc>
<speed>0.010000</speed>
</trkpt>
<trkpt lat="55.704342" lon="26.086346">
<ele>167.998169</ele>
<time>2010-07-17T18:32:49Z</time>
<desc>lat.=55.704342, lon.=26.086346, Alt.=167.998169m. Speed=0.108000m/h.</desc>
<speed>0.030000</speed>
</trkpt>
<trkpt lat="55.704342" lon="26.086346">
<ele>167.998169</ele>
<time>2010-07-17T18:32:50Z</time>
<desc>lat.=55.704342, lon.=26.086346, Alt.=167.998169m. Speed=0.000000m/h.</desc>
<speed>0.000000</speed>
</trkpt>
<trkpt lat="55.704342" lon="26.086346">
<ele>167.994263</ele>
<time>2010-07-17T18:32:51Z</time>
<desc>lat.=55.704342, lon.=26.086346, Alt.=167.994263m. Speed=0.000000m/h.</desc>
<speed>0.000000</speed>
</trkpt>
<trkpt lat="55.704342" lon="26.086346">
<ele>167.990356</ele>
<time>2010-07-17T18:32:52Z</time>
<desc>lat.=55.704342, lon.=26.086346, Alt.=167.990356m. Speed=0.108000m/h.</desc>
<speed>0.030000</speed>
</trkpt>
<trkpt lat="55.704342" lon="26.086346">
<ele>167.990356</ele>
<time>2010-07-17T18:32:53Z</time>
<desc>lat.=55.704342, lon.=26.086346, Alt.=167.990356m. Speed=0.072000m/h.</desc>
<speed>0.020000</speed>
</trkpt>
<trkpt lat="55.704342" lon="26.086346">
<ele>167.986450</ele>
<time>2010-07-17T18:32:54Z</time>
<desc>lat.=55.704342, lon.=26.086346, Alt.=167.986450m. Speed=0.072000m/h.</desc>
<speed>0.020000</speed>
</trkpt>
<trkpt lat="55.704342" lon="26.086346">
<ele>167.982544</ele>
<time>2010-07-17T18:32:55Z</time>
<desc>lat.=55.704342, lon.=26.086346, Alt.=167.982544m. Speed=0.072000m/h.</desc>
<speed>0.020000</speed>
</trkpt>
<trkpt lat="55.704342" lon="26.086346">
<ele>167.982544</ele>
<time>2010-07-17T18:32:56Z</time>
<desc>lat.=55.704342, lon.=26.086346, Alt.=167.982544m. Speed=0.036000m/h.</desc>
<speed>0.010000</speed>
</trkpt>
<trkpt lat="55.704342" lon="26.086346">
<ele>167.982544</ele>
<time>2010-07-17T18:32:57Z</time>
<desc>lat.=55.704342, lon.=26.086346, Alt.=167.982544m. Speed=0.000000m/h.</desc>
<speed>0.000000</speed>
</trkpt>
<trkpt lat="55.704342" lon="26.086346">
<ele>167.978638</ele>
<time>2010-07-17T18:32:58Z</time>
<desc>lat.=55.704342, lon.=26.086346, Alt.=167.978638m. Speed=0.036000m/h.</desc>
<speed>0.010000</speed>
</trkpt>
<trkpt lat="55.704342" lon="26.086346">
<ele>167.978638</ele>
<time>2010-07-17T18:32:59Z</time>
<desc>lat.=55.704342, lon.=26.086346, Alt.=167.978638m. Speed=0.036000m/h.</desc>
<speed>0.010000</speed>
</trkpt>
<trkpt lat="55.704342" lon="26.086346">
<ele>167.978638</ele>
<time>2010-07-17T18:33:00Z</time>
<desc>lat.=55.704342, lon.=26.086346, Alt.=167.978638m. Speed=0.000000m/h.</desc>
<speed>0.000000</speed>
</trkpt>
<trkpt lat="55.704342" lon="26.086346">
<ele>167.978638</ele>
<time>2010-07-17T18:33:01Z</time>
<desc>lat.=55.704342, lon.=26.086346, Alt.=167.978638m. Speed=0.072000m/h.</desc>
<speed>0.020000</speed>
</trkpt>
<trkpt lat="55.704342" lon="26.086346">
<ele>167.978638</ele>
<time>2010-07-17T18:33:02Z</time>
<desc>lat.=55.704342, lon.=26.086346, Alt.=167.978638m. Speed=0.036000m/h.</desc>
<speed>0.010000</speed>
</trkpt>
<trkpt lat="55.704342" lon="26.086346">
<ele>167.978638</ele>
<time>2010-07-17T18:33:03Z</time>
<desc>lat.=55.704342, lon.=26.086346, Alt.=167.978638m. Speed=0.000000m/h.</desc>
<speed>0.000000</speed>
</trkpt>
<trkpt lat="55.704342" lon="26.086346">
<ele>167.970825</ele>
<time>2010-07-17T18:33:04Z</time>
<desc>lat.=55.704342, lon.=26.086346, Alt.=167.970825m. Speed=0.036000m/h.</desc>
<speed>0.010000</speed>
</trkpt>
<trkpt lat="55.704342" lon="26.086346">
<ele>167.959106</ele>
<time>2010-07-17T18:33:05Z</time>
<desc>lat.=55.704342, lon.=26.086346, Alt.=167.959106m. Speed=0.108000m/h.</desc>
<speed>0.030000</speed>
</trkpt>
<trkpt lat="55.704342" lon="26.086346">
<ele>167.943481</ele>
<time>2010-07-17T18:33:06Z</time>
<desc>lat.=55.704342, lon.=26.086346, Alt.=167.943481m. Speed=0.072000m/h.</desc>
<speed>0.020000</speed>
</trkpt>
<trkpt lat="55.704342" lon="26.086346">
<ele>167.935669</ele>
<time>2010-07-17T18:33:07Z</time>
<desc>lat.=55.704342, lon.=26.086346, Alt.=167.935669m. Speed=0.000000m/h.</desc>
<speed>0.000000</speed>
</trkpt>
<trkpt lat="55.704342" lon="26.086346">
<ele>167.927856</ele>
<time>2010-07-17T18:33:08Z</time>
<desc>lat.=55.704342, lon.=26.086346, Alt.=167.927856m. Speed=0.036000m/h.</desc>
<speed>0.010000</speed>
</trkpt>
<trkpt lat="55.704342" lon="26.086346">
<ele>167.916138</ele>
<time>2010-07-17T18:33:09Z</time>
<desc>lat.=55.704342, lon.=26.086346, Alt.=167.916138m. Speed=0.000000m/h.</desc>
<speed>0.000000</speed>
</trkpt>
<trkpt lat="55.704342" lon="26.086346">
<ele>167.908325</ele>
<time>2010-07-17T18:33:10Z</time>
<desc>lat.=55.704342, lon.=26.086346, Alt.=167.908325m. Speed=0.036000m/h.</desc>
<speed>0.010000</speed>
</trkpt>
<trkpt lat="55.704342" lon="26.086346">
<ele>167.896606</ele>
<time>2010-07-17T18:33:11Z</time>
<desc>lat.=55.704342, lon.=26.086346, Alt.=167.896606m. Speed=0.036000m/h.</desc>
<speed>0.010000</speed>
</trkpt>
<trkpt lat="55.704342" lon="26.086346">
<ele>167.896606</ele>
<time>2010-07-17T18:33:12Z</time>
<desc>lat.=55.704342, lon.=26.086346, Alt.=167.896606m. Speed=0.036000m/h.</desc>
<speed>0.010000</speed>
</trkpt>
<trkpt lat="55.704342" lon="26.086346">
<ele>167.888794</ele>
<time>2010-07-17T18:33:13Z</time>
<desc>lat.=55.704342, lon.=26.086346, Alt.=167.888794m. Speed=0.072000m/h.</desc>
<speed>0.020000</speed>
</trkpt>
<trkpt lat="55.704342" lon="26.086346">
<ele>167.884888</ele>
<time>2010-07-17T18:33:14Z</time>
<desc>lat.=55.704342, lon.=26.086346, Alt.=167.884888m. Speed=0.036000m/h.</desc>
<speed>0.010000</speed>
</trkpt>
<trkpt lat="55.704342" lon="26.086346">
<ele>167.877075</ele>
<time>2010-07-17T18:33:15Z</time>
<desc>lat.=55.704342, lon.=26.086346, Alt.=167.877075m. Speed=0.072000m/h.</desc>
<speed>0.020000</speed>
</trkpt>
<trkpt lat="55.704342" lon="26.086346">
<ele>167.880981</ele>
<time>2010-07-17T18:33:16Z</time>
<desc>lat.=55.704342, lon.=26.086346, Alt.=167.880981m. Speed=0.036000m/h.</desc>
<speed>0.010000</speed>
</trkpt>
<trkpt lat="55.704342" lon="26.086346">
<ele>167.880981</ele>
<time>2010-07-17T18:33:17Z</time>
<desc>lat.=55.704342, lon.=26.086346, Alt.=167.880981m. Speed=0.000000m/h.</desc>
<speed>0.000000</speed>
</trkpt>
<trkpt lat="55.704342" lon="26.086346">
<ele>167.873169</ele>
<time>2010-07-17T18:33:18Z</time>
<desc>lat.=55.704342, lon.=26.086346, Alt.=167.873169m. Speed=0.000000m/h.</desc>
<speed>0.000000</speed>
</trkpt>
<trkpt lat="55.704342" lon="26.086346">
<ele>167.869263</ele>
<time>2010-07-17T18:33:19Z</time>
<desc>lat.=55.704342, lon.=26.086346, Alt.=167.869263m. Speed=0.000000m/h.</desc>
<speed>0.000000</speed>
</trkpt>
<trkpt lat="55.704342" lon="26.086346">
<ele>167.857544</ele>
<time>2010-07-17T18:33:20Z</time>
<desc>lat.=55.704342, lon.=26.086346, Alt.=167.857544m. Speed=0.000000m/h.</desc>
<speed>0.000000</speed>
</trkpt>
<trkpt lat="55.704342" lon="26.086346">
<ele>167.849731</ele>
<time>2010-07-17T18:33:21Z</time>
<desc>lat.=55.704342, lon.=26.086346, Alt.=167.849731m. Speed=0.036000m/h.</desc>
<speed>0.010000</speed>
</trkpt>
<trkpt lat="55.704342" lon="26.086346">
<ele>167.841919</ele>
<time>2010-07-17T18:33:22Z</time>
<desc>lat.=55.704342, lon.=26.086346, Alt.=167.841919m. Speed=0.036000m/h.</desc>
<speed>0.010000</speed>
</trkpt>
<trkpt lat="55.704346" lon="26.086346">
<ele>167.845825</ele>
<time>2010-07-17T18:33:23Z</time>
<desc>lat.=55.704346, lon.=26.086346, Alt.=167.845825m. Speed=0.072000m/h.</desc>
<speed>0.020000</speed>
</trkpt>
<trkpt lat="55.704346" lon="26.086346">
<ele>167.849731</ele>
<time>2010-07-17T18:33:24Z</time>
<desc>lat.=55.704346, lon.=26.086346, Alt.=167.849731m. Speed=0.036000m/h.</desc>
<speed>0.010000</speed>
</trkpt>
<trkpt lat="55.704346" lon="26.086346">
<ele>167.845825</ele>
<time>2010-07-17T18:33:25Z</time>
<desc>lat.=55.704346, lon.=26.086346, Alt.=167.845825m. Speed=0.000000m/h.</desc>
<speed>0.000000</speed>
</trkpt>
<trkpt lat="55.704346" lon="26.086346">
<ele>167.841919</ele>
<time>2010-07-17T18:33:26Z</time>
<desc>lat.=55.704346, lon.=26.086346, Alt.=167.841919m. Speed=0.108000m/h.</desc>
<speed>0.030000</speed>
</trkpt>
<trkpt lat="55.704346" lon="26.086346">
<ele>167.834106</ele>
<time>2010-07-17T18:33:27Z</time>
<desc>lat.=55.704346, lon.=26.086346, Alt.=167.834106m. Speed=0.072000m/h.</desc>
<speed>0.020000</speed>
</trkpt>
<trkpt lat="55.704346" lon="26.086346">
<ele>167.830200</ele>
<time>2010-07-17T18:33:28Z</time>
<desc>lat.=55.704346, lon.=26.086346, Alt.=167.830200m. Speed=0.108000m/h.</desc>
<speed>0.030000</speed>
</trkpt>
<trkpt lat="55.704346" lon="26.086346">
<ele>167.826294</ele>
<time>2010-07-17T18:33:29Z</time>
<desc>lat.=55.704346, lon.=26.086346, Alt.=167.826294m. Speed=0.072000m/h.</desc>
<speed>0.020000</speed>
</trkpt>
<trkpt lat="55.704346" lon="26.086346">
<ele>167.814575</ele>
<time>2010-07-17T18:33:30Z</time>
<desc>lat.=55.704346, lon.=26.086346, Alt.=167.814575m. Speed=0.000000m/h.</desc>
<speed>0.000000</speed>
</trkpt>
<trkpt lat="55.704346" lon="26.086346">
<ele>167.802856</ele>
<time>2010-07-17T18:33:31Z</time>
<desc>lat.=55.704346, lon.=26.086346, Alt.=167.802856m. Speed=0.072000m/h.</desc>
<speed>0.020000</speed>
</trkpt>
<trkpt lat="55.704346" lon="26.086348">
<ele>167.791138</ele>
<time>2010-07-17T18:33:32Z</time>
<desc>lat.=55.704346, lon.=26.086348, Alt.=167.791138m. Speed=0.072000m/h.</desc>
<speed>0.020000</speed>
</trkpt>
<trkpt lat="55.704346" lon="26.086348">
<ele>167.775513</ele>
<time>2010-07-17T18:33:33Z</time>
<desc>lat.=55.704346, lon.=26.086348, Alt.=167.775513m. Speed=0.036000m/h.</desc>
<speed>0.010000</speed>
</trkpt>
<trkpt lat="55.704346" lon="26.086348">
<ele>167.755981</ele>
<time>2010-07-17T18:33:34Z</time>
<desc>lat.=55.704346, lon.=26.086348, Alt.=167.755981m. Speed=0.036000m/h.</desc>
<speed>0.010000</speed>
</trkpt>
<trkpt lat="55.704346" lon="26.086348">
<ele>167.740356</ele>
<time>2010-07-17T18:33:35Z</time>
<desc>lat.=55.704346, lon.=26.086348, Alt.=167.740356m. Speed=0.108000m/h.</desc>
<speed>0.030000</speed>
</trkpt>
<trkpt lat="55.704346" lon="26.086348">
<ele>167.724731</ele>
<time>2010-07-17T18:33:36Z</time>
<desc>lat.=55.704346, lon.=26.086348, Alt.=167.724731m. Speed=0.036000m/h.</desc>
<speed>0.010000</speed>
</trkpt>
<trkpt lat="55.704346" lon="26.086348">
<ele>167.713013</ele>
<time>2010-07-17T18:33:37Z</time>
<desc>lat.=55.704346, lon.=26.086348, Alt.=167.713013m. Speed=0.072000m/h.</desc>
<speed>0.020000</speed>
</trkpt>
<trkpt lat="55.704346" lon="26.086348">
<ele>167.709106</ele>
<time>2010-07-17T18:33:38Z</time>
<desc>lat.=55.704346, lon.=26.086348, Alt.=167.709106m. Speed=0.036000m/h.</desc>
<speed>0.010000</speed>
</trkpt>
<trkpt lat="55.704346" lon="26.086348">
<ele>167.697388</ele>
<time>2010-07-17T18:33:39Z</time>
<desc>lat.=55.704346, lon.=26.086348, Alt.=167.697388m. Speed=0.036000m/h.</desc>
<speed>0.010000</speed>
</trkpt>
<trkpt lat="55.704346" lon="26.086348">
<ele>167.681763</ele>
<time>2010-07-17T18:33:40Z</time>
<desc>lat.=55.704346, lon.=26.086348, Alt.=167.681763m. Speed=0.036000m/h.</desc>
<speed>0.010000</speed>
</trkpt>
<trkpt lat="55.704346" lon="26.086348">
<ele>167.670044</ele>
<time>2010-07-17T18:33:41Z</time>
<desc>lat.=55.704346, lon.=26.086348, Alt.=167.670044m. Speed=0.036000m/h.</desc>
<speed>0.010000</speed>
</trkpt>
<trkpt lat="55.704346" lon="26.086348">
<ele>167.662231</ele>
<time>2010-07-17T18:33:42Z</time>
<desc>lat.=55.704346, lon.=26.086348, Alt.=167.662231m. Speed=0.000000m/h.</desc>
<speed>0.000000</speed>
</trkpt>
<trkpt lat="55.704346" lon="26.086348">
<ele>167.654419</ele>
<time>2010-07-17T18:33:43Z</time>
<desc>lat.=55.704346, lon.=26.086348, Alt.=167.654419m. Speed=0.072000m/h.</desc>
<speed>0.020000</speed>
</trkpt>
<trkpt lat="55.704346" lon="26.086348">
<ele>167.642700</ele>
<time>2010-07-17T18:33:44Z</time>
<desc>lat.=55.704346, lon.=26.086348, Alt.=167.642700m. Speed=0.108000m/h.</desc>
<speed>0.030000</speed>
</trkpt>
<trkpt lat="55.704346" lon="26.086348">
<ele>167.630981</ele>
<time>2010-07-17T18:33:45Z</time>
<desc>lat.=55.704346, lon.=26.086348, Alt.=167.630981m. Speed=0.072000m/h.</desc>
<speed>0.020000</speed>
</trkpt>
<trkpt lat="55.704346" lon="26.086348">
<ele>167.619263</ele>
<time>2010-07-17T18:33:46Z</time>
<desc>lat.=55.704346, lon.=26.086348, Alt.=167.619263m. Speed=0.036000m/h.</desc>
<speed>0.010000</speed>
</trkpt>
<trkpt lat="55.704346" lon="26.086348">
<ele>167.607544</ele>
<time>2010-07-17T18:33:47Z</time>
<desc>lat.=55.704346, lon.=26.086348, Alt.=167.607544m. Speed=0.000000m/h.</desc>
<speed>0.000000</speed>
</trkpt>
<trkpt lat="55.704346" lon="26.086348">
<ele>167.599731</ele>
<time>2010-07-17T18:33:48Z</time>
<desc>lat.=55.704346, lon.=26.086348, Alt.=167.599731m. Speed=0.036000m/h.</desc>
<speed>0.010000</speed>
</trkpt>
<trkpt lat="55.704346" lon="26.086348">
<ele>167.591919</ele>
<time>2010-07-17T18:33:49Z</time>
<desc>lat.=55.704346, lon.=26.086348, Alt.=167.591919m. Speed=0.072000m/h.</desc>
<speed>0.020000</speed>
</trkpt>
<trkpt lat="55.704346" lon="26.086348">
<ele>167.588013</ele>
<time>2010-07-17T18:33:50Z</time>
<desc>lat.=55.704346, lon.=26.086348, Alt.=167.588013m. Speed=0.000000m/h.</desc>
<speed>0.000000</speed>
</trkpt>
<trkpt lat="55.704346" lon="26.086348">
<ele>167.588013</ele>
<time>2010-07-17T18:33:51Z</time>
<desc>lat.=55.704346, lon.=26.086348, Alt.=167.588013m. Speed=0.036000m/h.</desc>
<speed>0.010000</speed>
</trkpt>
<trkpt lat="55.704346" lon="26.086348">
<ele>167.588013</ele>
<time>2010-07-17T18:33:52Z</time>
<desc>lat.=55.704346, lon.=26.086348, Alt.=167.588013m. Speed=0.000000m/h.</desc>
<speed>0.000000</speed>
</trkpt>
<trkpt lat="55.704346" lon="26.086348">
<ele>167.580200</ele>
<time>2010-07-17T18:33:53Z</time>
<desc>lat.=55.704346, lon.=26.086348, Alt.=167.580200m. Speed=0.000000m/h.</desc>
<speed>0.000000</speed>
</trkpt>
<trkpt lat="55.704346" lon="26.086348">
<ele>167.576294</ele>
<time>2010-07-17T18:33:54Z</time>
<desc>lat.=55.704346, lon.=26.086348, Alt.=167.576294m. Speed=0.036000m/h.</desc>
<speed>0.010000</speed>
</trkpt>
<trkpt lat="55.704346" lon="26.086348">
<ele>167.568481</ele>
<time>2010-07-17T18:33:55Z</time>
<desc>lat.=55.704346, lon.=26.086348, Alt.=167.568481m. Speed=0.000000m/h.</desc>
<speed>0.000000</speed>
</trkpt>
<trkpt lat="55.704346" lon="26.086348">
<ele>167.560669</ele>
<time>2010-07-17T18:33:56Z</time>
<desc>lat.=55.704346, lon.=26.086348, Alt.=167.560669m. Speed=0.036000m/h.</desc>
<speed>0.010000</speed>
</trkpt>
<trkpt lat="55.704346" lon="26.086348">
<ele>167.552856</ele>
<time>2010-07-17T18:33:57Z</time>
<desc>lat.=55.704346, lon.=26.086348, Alt.=167.552856m. Speed=0.000000m/h.</desc>
<speed>0.000000</speed>
</trkpt>
<trkpt lat="55.704346" lon="26.086348">
<ele>167.552856</ele>
<time>2010-07-17T18:33:58Z</time>
<desc>lat.=55.704346, lon.=26.086348, Alt.=167.552856m. Speed=0.000000m/h.</desc>
<speed>0.000000</speed>
</trkpt>
<trkpt lat="55.704346" lon="26.086348">
<ele>167.548950</ele>
<time>2010-07-17T18:33:59Z</time>
<desc>lat.=55.704346, lon.=26.086348, Alt.=167.548950m. Speed=0.000000m/h.</desc>
<speed>0.000000</speed>
</trkpt>
<trkpt lat="55.704346" lon="26.086348">
<ele>167.541138</ele>
<time>2010-07-17T18:34:00Z</time>
<desc>lat.=55.704346, lon.=26.086348, Alt.=167.541138m. Speed=0.036000m/h.</desc>
<speed>0.010000</speed>
</trkpt>
<trkpt lat="55.704346" lon="26.086348">
<ele>167.533325</ele>
<time>2010-07-17T18:34:01Z</time>
<desc>lat.=55.704346, lon.=26.086348, Alt.=167.533325m. Speed=0.000000m/h.</desc>
<speed>0.000000</speed>
</trkpt>
<trkpt lat="55.704346" lon="26.086348">
<ele>167.533325</ele>
<time>2010-07-17T18:34:02Z</time>
<desc>lat.=55.704346, lon.=26.086348, Alt.=167.533325m. Speed=0.000000m/h.</desc>
<speed>0.000000</speed>
</trkpt>
<trkpt lat="55.704346" lon="26.086348">
<ele>167.525513</ele>
<time>2010-07-17T18:34:03Z</time>
<desc>lat.=55.704346, lon.=26.086348, Alt.=167.525513m. Speed=0.000000m/h.</desc>
<speed>0.000000</speed>
</trkpt>
<trkpt lat="55.704346" lon="26.086348">
<ele>167.529419</ele>
<time>2010-07-17T18:34:04Z</time>
<desc>lat.=55.704346, lon.=26.086348, Alt.=167.529419m. Speed=0.072000m/h.</desc>
<speed>0.020000</speed>
</trkpt>
<trkpt lat="55.704346" lon="26.086348">
<ele>167.525513</ele>
<time>2010-07-17T18:34:05Z</time>
<desc>lat.=55.704346, lon.=26.086348, Alt.=167.525513m. Speed=0.000000m/h.</desc>
<speed>0.000000</speed>
</trkpt>
<trkpt lat="55.704346" lon="26.086348">
<ele>167.513794</ele>
<time>2010-07-17T18:34:06Z</time>
<desc>lat.=55.704346, lon.=26.086348, Alt.=167.513794m. Speed=0.036000m/h.</desc>
<speed>0.010000</speed>
</trkpt>
<trkpt lat="55.704346" lon="26.086348">
<ele>167.505981</ele>
<time>2010-07-17T18:34:07Z</time>
<desc>lat.=55.704346, lon.=26.086348, Alt.=167.505981m. Speed=0.000000m/h.</desc>
<speed>0.000000</speed>
</trkpt>
<trkpt lat="55.704346" lon="26.086348">
<ele>167.502075</ele>
<time>2010-07-17T18:34:08Z</time>
<desc>lat.=55.704346, lon.=26.086348, Alt.=167.502075m. Speed=0.000000m/h.</desc>
<speed>0.000000</speed>
</trkpt>
<trkpt lat="55.704346" lon="26.086348">
<ele>167.494263</ele>
<time>2010-07-17T18:34:09Z</time>
<desc>lat.=55.704346, lon.=26.086348, Alt.=167.494263m. Speed=0.000000m/h.</desc>
<speed>0.000000</speed>
</trkpt>
<trkpt lat="55.704346" lon="26.086348">
<ele>167.486450</ele>
<time>2010-07-17T18:34:10Z</time>
<desc>lat.=55.704346, lon.=26.086348, Alt.=167.486450m. Speed=0.000000m/h.</desc>
<speed>0.000000</speed>
</trkpt>
<trkpt lat="55.704346" lon="26.086348">
<ele>167.482544</ele>
<time>2010-07-17T18:34:11Z</time>
<desc>lat.=55.704346, lon.=26.086348, Alt.=167.482544m. Speed=0.000000m/h.</desc>
<speed>0.000000</speed>
</trkpt>
<trkpt lat="55.704346" lon="26.086348">
<ele>167.482544</ele>
<time>2010-07-17T18:34:12Z</time>
<desc>lat.=55.704346, lon.=26.086348, Alt.=167.482544m. Speed=0.072000m/h.</desc>
<speed>0.020000</speed>
</trkpt>
<trkpt lat="55.704346" lon="26.086348">
<ele>167.478638</ele>
<time>2010-07-17T18:34:13Z</time>
<desc>lat.=55.704346, lon.=26.086348, Alt.=167.478638m. Speed=0.036000m/h.</desc>
<speed>0.010000</speed>
</trkpt>
<trkpt lat="55.704346" lon="26.086348">
<ele>167.470825</ele>
<time>2010-07-17T18:34:14Z</time>
<desc>lat.=55.704346, lon.=26.086348, Alt.=167.470825m. Speed=0.072000m/h.</desc>
<speed>0.020000</speed>
</trkpt>
<trkpt lat="55.704346" lon="26.086348">
<ele>167.466919</ele>
<time>2010-07-17T18:34:15Z</time>
<desc>lat.=55.704346, lon.=26.086348, Alt.=167.466919m. Speed=0.072000m/h.</desc>
<speed>0.020000</speed>
</trkpt>
<trkpt lat="55.704346" lon="26.086348">
<ele>167.463013</ele>
<time>2010-07-17T18:34:16Z</time>
<desc>lat.=55.704346, lon.=26.086348, Alt.=167.463013m. Speed=0.036000m/h.</desc>
<speed>0.010000</speed>
</trkpt>
<trkpt lat="55.704346" lon="26.086348">
<ele>167.463013</ele>
<time>2010-07-17T18:34:17Z</time>
<desc>lat.=55.704346, lon.=26.086348, Alt.=167.463013m. Speed=0.036000m/h.</desc>
<speed>0.010000</speed>
</trkpt>
<trkpt lat="55.704346" lon="26.086348">
<ele>167.463013</ele>
<time>2010-07-17T18:34:18Z</time>
<desc>lat.=55.704346, lon.=26.086348, Alt.=167.463013m. Speed=0.036000m/h.</desc>
<speed>0.010000</speed>
</trkpt>
<trkpt lat="55.704346" lon="26.086348">
<ele>167.459106</ele>
<time>2010-07-17T18:34:19Z</time>
<desc>lat.=55.704346, lon.=26.086348, Alt.=167.459106m. Speed=0.000000m/h.</desc>
<speed>0.000000</speed>
</trkpt>
<trkpt lat="55.704346" lon="26.086348">
<ele>167.455200</ele>
<time>2010-07-17T18:34:20Z</time>
<desc>lat.=55.704346, lon.=26.086348, Alt.=167.455200m. Speed=0.072000m/h.</desc>
<speed>0.020000</speed>
</trkpt>
<trkpt lat="55.704346" lon="26.086349">
<ele>167.451294</ele>
<time>2010-07-17T18:34:21Z</time>
<desc>lat.=55.704346, lon.=26.086349, Alt.=167.451294m. Speed=0.072000m/h.</desc>
<speed>0.020000</speed>
</trkpt>
<trkpt lat="55.704346" lon="26.086349">
<ele>167.447388</ele>
<time>2010-07-17T18:34:22Z</time>
<desc>lat.=55.704346, lon.=26.086349, Alt.=167.447388m. Speed=0.036000m/h.</desc>
<speed>0.010000</speed>
</trkpt>
<trkpt lat="55.704346" lon="26.086349">
<ele>167.443481</ele>
<time>2010-07-17T18:34:23Z</time>
<desc>lat.=55.704346, lon.=26.086349, Alt.=167.443481m. Speed=0.036000m/h.</desc>
<speed>0.010000</speed>
</trkpt>
<trkpt lat="55.704346" lon="26.086349">
<ele>167.443481</ele>
<time>2010-07-17T18:34:24Z</time>
<desc>lat.=55.704346, lon.=26.086349, Alt.=167.443481m. Speed=0.036000m/h.</desc>
<speed>0.010000</speed>
</trkpt>
<trkpt lat="55.704346" lon="26.086349">
<ele>167.439575</ele>
<time>2010-07-17T18:34:25Z</time>
<desc>lat.=55.704346, lon.=26.086349, Alt.=167.439575m. Speed=0.000000m/h.</desc>
<speed>0.000000</speed>
</trkpt>
<trkpt lat="55.704346" lon="26.086349">
<ele>167.431763</ele>
<time>2010-07-17T18:34:26Z</time>
<desc>lat.=55.704346, lon.=26.086349, Alt.=167.431763m. Speed=0.072000m/h.</desc>
<speed>0.020000</speed>
</trkpt>
<trkpt lat="55.704346" lon="26.086349">
<ele>167.431763</ele>
<time>2010-07-17T18:34:27Z</time>
<desc>lat.=55.704346, lon.=26.086349, Alt.=167.431763m. Speed=0.072000m/h.</desc>
<speed>0.020000</speed>
</trkpt>
<trkpt lat="55.704346" lon="26.086349">
<ele>167.427856</ele>
<time>2010-07-17T18:34:28Z</time>
<desc>lat.=55.704346, lon.=26.086349, Alt.=167.427856m. Speed=0.072000m/h.</desc>
<speed>0.020000</speed>
</trkpt>
<trkpt lat="55.704346" lon="26.086349">
<ele>167.423950</ele>
<time>2010-07-17T18:34:29Z</time>
<desc>lat.=55.704346, lon.=26.086349, Alt.=167.423950m. Speed=0.144000m/h.</desc>
<speed>0.040000</speed>
</trkpt>
<trkpt lat="55.704346" lon="26.086349">
<ele>167.420044</ele>
<time>2010-07-17T18:34:30Z</time>
<desc>lat.=55.704346, lon.=26.086349, Alt.=167.420044m. Speed=0.072000m/h.</desc>
<speed>0.020000</speed>
</trkpt>
<trkpt lat="55.704346" lon="26.086349">
<ele>167.408325</ele>
<time>2010-07-17T18:34:31Z</time>
<desc>lat.=55.704346, lon.=26.086349, Alt.=167.408325m. Speed=0.072000m/h.</desc>
<speed>0.020000</speed>
</trkpt>
<trkpt lat="55.704346" lon="26.086349">
<ele>167.404419</ele>
<time>2010-07-17T18:34:32Z</time>
<desc>lat.=55.704346, lon.=26.086349, Alt.=167.404419m. Speed=0.036000m/h.</desc>
<speed>0.010000</speed>
</trkpt>
<trkpt lat="55.704346" lon="26.086351">
<ele>167.392700</ele>
<time>2010-07-17T18:34:33Z</time>
<desc>lat.=55.704346, lon.=26.086351, Alt.=167.392700m. Speed=0.180000m/h.</desc>
<speed>0.050000</speed>
</trkpt>
<trkpt lat="55.704346" lon="26.086351">
<ele>167.392700</ele>
<time>2010-07-17T18:34:34Z</time>
<desc>lat.=55.704346, lon.=26.086351, Alt.=167.392700m. Speed=0.000000m/h.</desc>
<speed>0.000000</speed>
</trkpt>
<trkpt lat="55.704346" lon="26.086351">
<ele>167.392700</ele>
<time>2010-07-17T18:34:35Z</time>
<desc>lat.=55.704346, lon.=26.086351, Alt.=167.392700m. Speed=0.000000m/h.</desc>
<speed>0.000000</speed>
</trkpt>
<trkpt lat="55.704346" lon="26.086351">
<ele>167.377075</ele>
<time>2010-07-17T18:34:36Z</time>
<desc>lat.=55.704346, lon.=26.086351, Alt.=167.377075m. Speed=0.072000m/h.</desc>
<speed>0.020000</speed>
</trkpt>
<trkpt lat="55.704346" lon="26.086351">
<ele>167.361450</ele>
<time>2010-07-17T18:34:37Z</time>
<desc>lat.=55.704346, lon.=26.086351, Alt.=167.361450m. Speed=0.072000m/h.</desc>
<speed>0.020000</speed>
</trkpt>
<trkpt lat="55.704346" lon="26.086351">
<ele>167.353638</ele>
<time>2010-07-17T18:34:38Z</time>
<desc>lat.=55.704346, lon.=26.086351, Alt.=167.353638m. Speed=0.036000m/h.</desc>
<speed>0.010000</speed>
</trkpt>
<trkpt lat="55.704346" lon="26.086351">
<ele>167.345825</ele>
<time>2010-07-17T18:34:39Z</time>
<desc>lat.=55.704346, lon.=26.086351, Alt.=167.345825m. Speed=0.108000m/h.</desc>
<speed>0.030000</speed>
</trkpt>
<trkpt lat="55.704346" lon="26.086351">
<ele>167.330200</ele>
<time>2010-07-17T18:34:40Z</time>
<desc>lat.=55.704346, lon.=26.086351, Alt.=167.330200m. Speed=0.108000m/h.</desc>
<speed>0.030000</speed>
</trkpt>
<trkpt lat="55.704346" lon="26.086353">
<ele>167.326294</ele>
<time>2010-07-17T18:34:41Z</time>
<desc>lat.=55.704346, lon.=26.086353, Alt.=167.326294m. Speed=0.072000m/h.</desc>
<speed>0.020000</speed>
</trkpt>
<trkpt lat="55.704346" lon="26.086353">
<ele>167.326294</ele>
<time>2010-07-17T18:34:42Z</time>
<desc>lat.=55.704346, lon.=26.086353, Alt.=167.326294m. Speed=0.108000m/h.</desc>
<speed>0.030000</speed>
</trkpt>
<trkpt lat="55.704346" lon="26.086353">
<ele>167.314575</ele>
<time>2010-07-17T18:34:43Z</time>
<desc>lat.=55.704346, lon.=26.086353, Alt.=167.314575m. Speed=0.108000m/h.</desc>
<speed>0.030000</speed>
</trkpt>
<trkpt lat="55.704350" lon="26.086353">
<ele>167.306763</ele>
<time>2010-07-17T18:34:44Z</time>
<desc>lat.=55.704350, lon.=26.086353, Alt.=167.306763m. Speed=0.108000m/h.</desc>
<speed>0.030000</speed>
</trkpt>
<trkpt lat="55.704350" lon="26.086353">
<ele>167.295044</ele>
<time>2010-07-17T18:34:45Z</time>
<desc>lat.=55.704350, lon.=26.086353, Alt.=167.295044m. Speed=0.144000m/h.</desc>
<speed>0.040000</speed>
</trkpt>
<trkpt lat="55.704350" lon="26.086353">
<ele>167.283325</ele>
<time>2010-07-17T18:34:46Z</time>
<desc>lat.=55.704350, lon.=26.086353, Alt.=167.283325m. Speed=0.144000m/h.</desc>
<speed>0.040000</speed>
</trkpt>
<trkpt lat="55.704350" lon="26.086353">
<ele>167.275513</ele>
<time>2010-07-17T18:34:47Z</time>
<desc>lat.=55.704350, lon.=26.086353, Alt.=167.275513m. Speed=0.072000m/h.</desc>
<speed>0.020000</speed>
</trkpt>
<trkpt lat="55.704350" lon="26.086355">
<ele>167.263794</ele>
<time>2010-07-17T18:34:48Z</time>
<desc>lat.=55.704350, lon.=26.086355, Alt.=167.263794m. Speed=0.144000m/h.</desc>
<speed>0.040000</speed>
</trkpt>
<trkpt lat="55.704350" lon="26.086355">
<ele>167.255981</ele>
<time>2010-07-17T18:34:49Z</time>
<desc>lat.=55.704350, lon.=26.086355, Alt.=167.255981m. Speed=0.108000m/h.</desc>
<speed>0.030000</speed>
</trkpt>
<trkpt lat="55.704350" lon="26.086355">
<ele>167.244263</ele>
<time>2010-07-17T18:34:50Z</time>
<desc>lat.=55.704350, lon.=26.086355, Alt.=167.244263m. Speed=0.108000m/h.</desc>
<speed>0.030000</speed>
</trkpt>
<trkpt lat="55.704350" lon="26.086355">
<ele>167.236450</ele>
<time>2010-07-17T18:34:51Z</time>
<desc>lat.=55.704350, lon.=26.086355, Alt.=167.236450m. Speed=0.072000m/h.</desc>
<speed>0.020000</speed>
</trkpt>
<trkpt lat="55.704350" lon="26.086355">
<ele>167.220825</ele>
<time>2010-07-17T18:34:52Z</time>
<desc>lat.=55.704350, lon.=26.086355, Alt.=167.220825m. Speed=0.144000m/h.</desc>
<speed>0.040000</speed>
</trkpt>
<trkpt lat="55.704350" lon="26.086355">
<ele>167.213013</ele>
<time>2010-07-17T18:34:53Z</time>
<desc>lat.=55.704350, lon.=26.086355, Alt.=167.213013m. Speed=0.000000m/h.</desc>
<speed>0.000000</speed>
</trkpt>
<trkpt lat="55.704350" lon="26.086355">
<ele>167.201294</ele>
<time>2010-07-17T18:34:54Z</time>
<desc>lat.=55.704350, lon.=26.086355, Alt.=167.201294m. Speed=0.144000m/h.</desc>
<speed>0.040000</speed>
</trkpt>
<trkpt lat="55.704350" lon="26.086355">
<ele>167.193481</ele>
<time>2010-07-17T18:34:55Z</time>
<desc>lat.=55.704350, lon.=26.086355, Alt.=167.193481m. Speed=0.108000m/h.</desc>
<speed>0.030000</speed>
</trkpt>
<trkpt lat="55.704350" lon="26.086357">
<ele>167.185669</ele>
<time>2010-07-17T18:34:56Z</time>
<desc>lat.=55.704350, lon.=26.086357, Alt.=167.185669m. Speed=0.036000m/h.</desc>
<speed>0.010000</speed>
</trkpt>
<trkpt lat="55.704350" lon="26.086357">
<ele>167.181763</ele>
<time>2010-07-17T18:34:57Z</time>
<desc>lat.=55.704350, lon.=26.086357, Alt.=167.181763m. Speed=0.072000m/h.</desc>
<speed>0.020000</speed>
</trkpt>
<trkpt lat="55.704350" lon="26.086357">
<ele>167.173950</ele>
<time>2010-07-17T18:34:58Z</time>
<desc>lat.=55.704350, lon.=26.086357, Alt.=167.173950m. Speed=0.072000m/h.</desc>
<speed>0.020000</speed>
</trkpt>
<trkpt lat="55.704350" lon="26.086357">
<ele>167.166138</ele>
<time>2010-07-17T18:34:59Z</time>
<desc>lat.=55.704350, lon.=26.086357, Alt.=167.166138m. Speed=0.072000m/h.</desc>
<speed>0.020000</speed>
</trkpt>
<trkpt lat="55.704350" lon="26.086357">
<ele>167.162231</ele>
<time>2010-07-17T18:35:00Z</time>
<desc>lat.=55.704350, lon.=26.086357, Alt.=167.162231m. Speed=0.000000m/h.</desc>
<speed>0.000000</speed>
</trkpt>
<trkpt lat="55.704350" lon="26.086357">
<ele>167.154419</ele>
<time>2010-07-17T18:35:01Z</time>
<desc>lat.=55.704350, lon.=26.086357, Alt.=167.154419m. Speed=0.108000m/h.</desc>
<speed>0.030000</speed>
</trkpt>
<trkpt lat="55.704350" lon="26.086357">
<ele>167.150513</ele>
<time>2010-07-17T18:35:02Z</time>
<desc>lat.=55.704350, lon.=26.086357, Alt.=167.150513m. Speed=0.000000m/h.</desc>
<speed>0.000000</speed>
</trkpt>
<trkpt lat="55.704350" lon="26.086357">
<ele>167.142700</ele>
<time>2010-07-17T18:35:03Z</time>
<desc>lat.=55.704350, lon.=26.086357, Alt.=167.142700m. Speed=0.180000m/h.</desc>
<speed>0.050000</speed>
</trkpt>
<trkpt lat="55.704350" lon="26.086357">
<ele>167.130981</ele>
<time>2010-07-17T18:35:04Z</time>
<desc>lat.=55.704350, lon.=26.086357, Alt.=167.130981m. Speed=0.036000m/h.</desc>
<speed>0.010000</speed>
</trkpt>
<trkpt lat="55.704350" lon="26.086357">
<ele>167.123169</ele>
<time>2010-07-17T18:35:05Z</time>
<desc>lat.=55.704350, lon.=26.086357, Alt.=167.123169m. Speed=0.108000m/h.</desc>
<speed>0.030000</speed>
</trkpt>
<trkpt lat="55.704350" lon="26.086359">
<ele>167.111450</ele>
<time>2010-07-17T18:35:06Z</time>
<desc>lat.=55.704350, lon.=26.086359, Alt.=167.111450m. Speed=0.108000m/h.</desc>
<speed>0.030000</speed>
</trkpt>
<trkpt lat="55.704350" lon="26.086359">
<ele>167.099731</ele>
<time>2010-07-17T18:35:07Z</time>
<desc>lat.=55.704350, lon.=26.086359, Alt.=167.099731m. Speed=0.144000m/h.</desc>
<speed>0.040000</speed>
</trkpt>
<trkpt lat="55.704350" lon="26.086359">
<ele>167.091919</ele>
<time>2010-07-17T18:35:08Z</time>
<desc>lat.=55.704350, lon.=26.086359, Alt.=167.091919m. Speed=0.108000m/h.</desc>
<speed>0.030000</speed>
</trkpt>
<trkpt lat="55.704350" lon="26.086359">
<ele>167.091919</ele>
<time>2010-07-17T18:35:09Z</time>
<desc>lat.=55.704350, lon.=26.086359, Alt.=167.091919m. Speed=0.072000m/h.</desc>
<speed>0.020000</speed>
</trkpt>
<trkpt lat="55.704350" lon="26.086359">
<ele>167.084106</ele>
<time>2010-07-17T18:35:10Z</time>
<desc>lat.=55.704350, lon.=26.086359, Alt.=167.084106m. Speed=0.072000m/h.</desc>
<speed>0.020000</speed>
</trkpt>
<trkpt lat="55.704350" lon="26.086359">
<ele>167.076294</ele>
<time>2010-07-17T18:35:11Z</time>
<desc>lat.=55.704350, lon.=26.086359, Alt.=167.076294m. Speed=0.072000m/h.</desc>
<speed>0.020000</speed>
</trkpt>
<trkpt lat="55.704350" lon="26.086359">
<ele>167.068481</ele>
<time>2010-07-17T18:35:12Z</time>
<desc>lat.=55.704350, lon.=26.086359, Alt.=167.068481m. Speed=0.036000m/h.</desc>
<speed>0.010000</speed>
</trkpt>
<trkpt lat="55.704350" lon="26.086359">
<ele>167.060669</ele>
<time>2010-07-17T18:35:13Z</time>
<desc>lat.=55.704350, lon.=26.086359, Alt.=167.060669m. Speed=0.036000m/h.</desc>
<speed>0.010000</speed>
</trkpt>
<trkpt lat="55.704350" lon="26.086359">
<ele>167.048950</ele>
<time>2010-07-17T18:35:14Z</time>
<desc>lat.=55.704350, lon.=26.086359, Alt.=167.048950m. Speed=0.036000m/h.</desc>
<speed>0.010000</speed>
</trkpt>
<trkpt lat="55.704350" lon="26.086359">
<ele>167.041138</ele>
<time>2010-07-17T18:35:15Z</time>
<desc>lat.=55.704350, lon.=26.086359, Alt.=167.041138m. Speed=0.036000m/h.</desc>
<speed>0.010000</speed>
</trkpt>
<trkpt lat="55.704350" lon="26.086359">
<ele>167.037231</ele>
<time>2010-07-17T18:35:16Z</time>
<desc>lat.=55.704350, lon.=26.086359, Alt.=167.037231m. Speed=0.000000m/h.</desc>
<speed>0.000000</speed>
</trkpt>
<trkpt lat="55.704350" lon="26.086359">
<ele>167.029419</ele>
<time>2010-07-17T18:35:17Z</time>
<desc>lat.=55.704350, lon.=26.086359, Alt.=167.029419m. Speed=0.036000m/h.</desc>
<speed>0.010000</speed>
</trkpt>
<trkpt lat="55.704350" lon="26.086359">
<ele>167.025513</ele>
<time>2010-07-17T18:35:18Z</time>
<desc>lat.=55.704350, lon.=26.086359, Alt.=167.025513m. Speed=0.036000m/h.</desc>
<speed>0.010000</speed>
</trkpt>
<trkpt lat="55.704350" lon="26.086359">
<ele>167.013794</ele>
<time>2010-07-17T18:35:19Z</time>
<desc>lat.=55.704350, lon.=26.086359, Alt.=167.013794m. Speed=0.000000m/h.</desc>
<speed>0.000000</speed>
</trkpt>
<trkpt lat="55.704350" lon="26.086359">
<ele>167.017700</ele>
<time>2010-07-17T18:35:20Z</time>
<desc>lat.=55.704350, lon.=26.086359, Alt.=167.017700m. Speed=0.000000m/h.</desc>
<speed>0.000000</speed>
</trkpt>
<trkpt lat="55.704350" lon="26.086359">
<ele>167.013794</ele>
<time>2010-07-17T18:35:21Z</time>
<desc>lat.=55.704350, lon.=26.086359, Alt.=167.013794m. Speed=0.000000m/h.</desc>
<speed>0.000000</speed>
</trkpt>
<trkpt lat="55.704350" lon="26.086359">
<ele>167.009888</ele>
<time>2010-07-17T18:35:22Z</time>
<desc>lat.=55.704350, lon.=26.086359, Alt.=167.009888m. Speed=0.036000m/h.</desc>
<speed>0.010000</speed>
</trkpt>
<trkpt lat="55.704350" lon="26.086359">
<ele>167.005981</ele>
<time>2010-07-17T18:35:23Z</time>
<desc>lat.=55.704350, lon.=26.086359, Alt.=167.005981m. Speed=0.036000m/h.</desc>
<speed>0.010000</speed>
</trkpt>
<trkpt lat="55.704350" lon="26.086359">
<ele>166.998169</ele>
<time>2010-07-17T18:35:24Z</time>
<desc>lat.=55.704350, lon.=26.086359, Alt.=166.998169m. Speed=0.036000m/h.</desc>
<speed>0.010000</speed>
</trkpt>
<trkpt lat="55.704350" lon="26.086359">
<ele>166.994263</ele>
<time>2010-07-17T18:35:25Z</time>
<desc>lat.=55.704350, lon.=26.086359, Alt.=166.994263m. Speed=0.036000m/h.</desc>
<speed>0.010000</speed>
</trkpt>
<trkpt lat="55.704350" lon="26.086359">
<ele>166.990356</ele>
<time>2010-07-17T18:35:26Z</time>
<desc>lat.=55.704350, lon.=26.086359, Alt.=166.990356m. Speed=0.000000m/h.</desc>
<speed>0.000000</speed>
</trkpt>
<trkpt lat="55.704350" lon="26.086359">
<ele>166.978638</ele>
<time>2010-07-17T18:35:27Z</time>
<desc>lat.=55.704350, lon.=26.086359, Alt.=166.978638m. Speed=0.000000m/h.</desc>
<speed>0.000000</speed>
</trkpt>
<trkpt lat="55.704350" lon="26.086359">
<ele>166.978638</ele>
<time>2010-07-17T18:35:28Z</time>
<desc>lat.=55.704350, lon.=26.086359, Alt.=166.978638m. Speed=0.000000m/h.</desc>
<speed>0.000000</speed>
</trkpt>
<trkpt lat="55.704350" lon="26.086359">
<ele>166.974731</ele>
<time>2010-07-17T18:35:29Z</time>
<desc>lat.=55.704350, lon.=26.086359, Alt.=166.974731m. Speed=0.000000m/h.</desc>
<speed>0.000000</speed>
</trkpt>
<trkpt lat="55.704350" lon="26.086359">
<ele>166.970825</ele>
<time>2010-07-17T18:35:30Z</time>
<desc>lat.=55.704350, lon.=26.086359, Alt.=166.970825m. Speed=0.000000m/h.</desc>
<speed>0.000000</speed>
</trkpt>
<trkpt lat="55.704350" lon="26.086359">
<ele>166.963013</ele>
<time>2010-07-17T18:35:31Z</time>
<desc>lat.=55.704350, lon.=26.086359, Alt.=166.963013m. Speed=0.036000m/h.</desc>
<speed>0.010000</speed>
</trkpt>
<trkpt lat="55.704350" lon="26.086361">
<ele>166.955200</ele>
<time>2010-07-17T18:35:32Z</time>
<desc>lat.=55.704350, lon.=26.086361, Alt.=166.955200m. Speed=0.036000m/h.</desc>
<speed>0.010000</speed>
</trkpt>
<trkpt lat="55.704350" lon="26.086361">
<ele>166.951294</ele>
<time>2010-07-17T18:35:33Z</time>
<desc>lat.=55.704350, lon.=26.086361, Alt.=166.951294m. Speed=0.036000m/h.</desc>
<speed>0.010000</speed>
</trkpt>
<trkpt lat="55.704350" lon="26.086361">
<ele>166.947388</ele>
<time>2010-07-17T18:35:34Z</time>
<desc>lat.=55.704350, lon.=26.086361, Alt.=166.947388m. Speed=0.000000m/h.</desc>
<speed>0.000000</speed>
</trkpt>
<trkpt lat="55.704350" lon="26.086361">
<ele>166.939575</ele>
<time>2010-07-17T18:35:35Z</time>
<desc>lat.=55.704350, lon.=26.086361, Alt.=166.939575m. Speed=0.000000m/h.</desc>
<speed>0.000000</speed>
</trkpt>
<trkpt lat="55.704350" lon="26.086361">
<ele>166.935669</ele>
<time>2010-07-17T18:35:36Z</time>
<desc>lat.=55.704350, lon.=26.086361, Alt.=166.935669m. Speed=0.000000m/h.</desc>
<speed>0.000000</speed>
</trkpt>
<trkpt lat="55.704350" lon="26.086361">
<ele>166.931763</ele>
<time>2010-07-17T18:35:37Z</time>
<desc>lat.=55.704350, lon.=26.086361, Alt.=166.931763m. Speed=0.000000m/h.</desc>
<speed>0.000000</speed>
</trkpt>
<trkpt lat="55.704350" lon="26.086361">
<ele>166.931763</ele>
<time>2010-07-17T18:35:38Z</time>
<desc>lat.=55.704350, lon.=26.086361, Alt.=166.931763m. Speed=0.036000m/h.</desc>
<speed>0.010000</speed>
</trkpt>
<trkpt lat="55.704350" lon="26.086361">
<ele>166.927856</ele>
<time>2010-07-17T18:35:39Z</time>
<desc>lat.=55.704350, lon.=26.086361, Alt.=166.927856m. Speed=0.000000m/h.</desc>
<speed>0.000000</speed>
</trkpt>
<trkpt lat="55.704350" lon="26.086361">
<ele>166.923950</ele>
<time>2010-07-17T18:35:40Z</time>
<desc>lat.=55.704350, lon.=26.086361, Alt.=166.923950m. Speed=0.000000m/h.</desc>
<speed>0.000000</speed>
</trkpt>
<trkpt lat="55.704350" lon="26.086361">
<ele>166.920044</ele>
<time>2010-07-17T18:35:41Z</time>
<desc>lat.=55.704350, lon.=26.086361, Alt.=166.920044m. Speed=0.000000m/h.</desc>
<speed>0.000000</speed>
</trkpt>
<trkpt lat="55.704350" lon="26.086361">
<ele>166.916138</ele>
<time>2010-07-17T18:35:42Z</time>
<desc>lat.=55.704350, lon.=26.086361, Alt.=166.916138m. Speed=0.000000m/h.</desc>
<speed>0.000000</speed>
</trkpt>
<trkpt lat="55.704350" lon="26.086361">
<ele>166.908325</ele>
<time>2010-07-17T18:35:43Z</time>
<desc>lat.=55.704350, lon.=26.086361, Alt.=166.908325m. Speed=0.000000m/h.</desc>
<speed>0.000000</speed>
</trkpt>
<trkpt lat="55.704350" lon="26.086361">
<ele>166.908325</ele>
<time>2010-07-17T18:35:44Z</time>
<desc>lat.=55.704350, lon.=26.086361, Alt.=166.908325m. Speed=0.000000m/h.</desc>
<speed>0.000000</speed>
</trkpt>
<trkpt lat="55.704350" lon="26.086361">
<ele>166.904419</ele>
<time>2010-07-17T18:35:45Z</time>
<desc>lat.=55.704350, lon.=26.086361, Alt.=166.904419m. Speed=0.000000m/h.</desc>
<speed>0.000000</speed>
</trkpt>
<trkpt lat="55.704350" lon="26.086361">
<ele>166.904419</ele>
<time>2010-07-17T18:35:46Z</time>
<desc>lat.=55.704350, lon.=26.086361, Alt.=166.904419m. Speed=0.000000m/h.</desc>
<speed>0.000000</speed>
</trkpt>
<trkpt lat="55.704350" lon="26.086361">
<ele>166.904419</ele>
<time>2010-07-17T18:35:47Z</time>
<desc>lat.=55.704350, lon.=26.086361, Alt.=166.904419m. Speed=0.000000m/h.</desc>
<speed>0.000000</speed>
</trkpt>
<trkpt lat="55.704350" lon="26.086361">
<ele>166.900513</ele>
<time>2010-07-17T18:35:48Z</time>
<desc>lat.=55.704350, lon.=26.086361, Alt.=166.900513m. Speed=0.000000m/h.</desc>
<speed>0.000000</speed>
</trkpt>
<trkpt lat="55.704350" lon="26.086361">
<ele>166.892700</ele>
<time>2010-07-17T18:35:49Z</time>
<desc>lat.=55.704350, lon.=26.086361, Alt.=166.892700m. Speed=0.036000m/h.</desc>
<speed>0.010000</speed>
</trkpt>
<trkpt lat="55.704350" lon="26.086361">
<ele>166.888794</ele>
<time>2010-07-17T18:35:50Z</time>
<desc>lat.=55.704350, lon.=26.086361, Alt.=166.888794m. Speed=0.000000m/h.</desc>
<speed>0.000000</speed>
</trkpt>
<trkpt lat="55.704350" lon="26.086361">
<ele>166.880981</ele>
<time>2010-07-17T18:35:51Z</time>
<desc>lat.=55.704350, lon.=26.086361, Alt.=166.880981m. Speed=0.000000m/h.</desc>
<speed>0.000000</speed>
</trkpt>
<trkpt lat="55.704350" lon="26.086361">
<ele>166.877075</ele>
<time>2010-07-17T18:35:52Z</time>
<desc>lat.=55.704350, lon.=26.086361, Alt.=166.877075m. Speed=0.000000m/h.</desc>
<speed>0.000000</speed>
</trkpt>
<trkpt lat="55.704350" lon="26.086361">
<ele>166.877075</ele>
<time>2010-07-17T18:35:53Z</time>
<desc>lat.=55.704350, lon.=26.086361, Alt.=166.877075m. Speed=0.000000m/h.</desc>
<speed>0.000000</speed>
</trkpt>
<trkpt lat="55.704350" lon="26.086359">
<ele>166.877075</ele>
<time>2010-07-17T18:35:54Z</time>
<desc>lat.=55.704350, lon.=26.086359, Alt.=166.877075m. Speed=0.036000m/h.</desc>
<speed>0.010000</speed>
</trkpt>
<trkpt lat="55.704353" lon="26.086359">
<ele>166.877075</ele>
<time>2010-07-17T18:35:55Z</time>
<desc>lat.=55.704353, lon.=26.086359, Alt.=166.877075m. Speed=0.000000m/h.</desc>
<speed>0.000000</speed>
</trkpt>
<trkpt lat="55.704353" lon="26.086359">
<ele>166.877075</ele>
<time>2010-07-17T18:35:56Z</time>
<desc>lat.=55.704353, lon.=26.086359, Alt.=166.877075m. Speed=0.000000m/h.</desc>
<speed>0.000000</speed>
</trkpt>
<trkpt lat="55.704353" lon="26.086359">
<ele>166.880981</ele>
<time>2010-07-17T18:35:57Z</time>
<desc>lat.=55.704353, lon.=26.086359, Alt.=166.880981m. Speed=0.036000m/h.</desc>
<speed>0.010000</speed>
</trkpt>
<trkpt lat="55.704353" lon="26.086359">
<ele>166.880981</ele>
<time>2010-07-17T18:35:58Z</time>
<desc>lat.=55.704353, lon.=26.086359, Alt.=166.880981m. Speed=0.000000m/h.</desc>
<speed>0.000000</speed>
</trkpt>
<trkpt lat="55.704353" lon="26.086359">
<ele>166.880981</ele>
<time>2010-07-17T18:35:59Z</time>
<desc>lat.=55.704353, lon.=26.086359, Alt.=166.880981m. Speed=0.000000m/h.</desc>
<speed>0.000000</speed>
</trkpt>
<trkpt lat="55.704353" lon="26.086359">
<ele>166.880981</ele>
<time>2010-07-17T18:36:00Z</time>
<desc>lat.=55.704353, lon.=26.086359, Alt.=166.880981m. Speed=0.000000m/h.</desc>
<speed>0.000000</speed>
</trkpt>
<trkpt lat="55.704353" lon="26.086359">
<ele>166.880981</ele>
<time>2010-07-17T18:36:01Z</time>
<desc>lat.=55.704353, lon.=26.086359, Alt.=166.880981m. Speed=0.000000m/h.</desc>
<speed>0.000000</speed>
</trkpt>
<trkpt lat="55.704353" lon="26.086359">
<ele>166.877075</ele>
<time>2010-07-17T18:36:02Z</time>
<desc>lat.=55.704353, lon.=26.086359, Alt.=166.877075m. Speed=0.036000m/h.</desc>
<speed>0.010000</speed>
</trkpt>
<trkpt lat="55.704353" lon="26.086359">
<ele>166.877075</ele>
<time>2010-07-17T18:36:03Z</time>
<desc>lat.=55.704353, lon.=26.086359, Alt.=166.877075m. Speed=0.000000m/h.</desc>
<speed>0.000000</speed>
</trkpt>
<trkpt lat="55.704353" lon="26.086359">
<ele>166.873169</ele>
<time>2010-07-17T18:36:04Z</time>
<desc>lat.=55.704353, lon.=26.086359, Alt.=166.873169m. Speed=0.000000m/h.</desc>
<speed>0.000000</speed>
</trkpt>
<trkpt lat="55.704353" lon="26.086359">
<ele>166.869263</ele>
<time>2010-07-17T18:36:05Z</time>
<desc>lat.=55.704353, lon.=26.086359, Alt.=166.869263m. Speed=0.000000m/h.</desc>
<speed>0.000000</speed>
</trkpt>
<trkpt lat="55.704353" lon="26.086359">
<ele>166.865356</ele>
<time>2010-07-17T18:36:06Z</time>
<desc>lat.=55.704353, lon.=26.086359, Alt.=166.865356m. Speed=0.036000m/h.</desc>
<speed>0.010000</speed>
</trkpt>
<trkpt lat="55.704353" lon="26.086359">
<ele>166.861450</ele>
<time>2010-07-17T18:36:07Z</time>
<desc>lat.=55.704353, lon.=26.086359, Alt.=166.861450m. Speed=0.000000m/h.</desc>
<speed>0.000000</speed>
</trkpt>
<trkpt lat="55.704353" lon="26.086359">
<ele>166.857544</ele>
<time>2010-07-17T18:36:08Z</time>
<desc>lat.=55.704353, lon.=26.086359, Alt.=166.857544m. Speed=0.036000m/h.</desc>
<speed>0.010000</speed>
</trkpt>
<trkpt lat="55.704353" lon="26.086359">
<ele>166.857544</ele>
<time>2010-07-17T18:36:09Z</time>
<desc>lat.=55.704353, lon.=26.086359, Alt.=166.857544m. Speed=0.036000m/h.</desc>
<speed>0.010000</speed>
</trkpt>
<trkpt lat="55.704353" lon="26.086359">
<ele>166.853638</ele>
<time>2010-07-17T18:36:10Z</time>
<desc>lat.=55.704353, lon.=26.086359, Alt.=166.853638m. Speed=0.000000m/h.</desc>
<speed>0.000000</speed>
</trkpt>
<trkpt lat="55.704353" lon="26.086359">
<ele>166.845825</ele>
<time>2010-07-17T18:36:11Z</time>
<desc>lat.=55.704353, lon.=26.086359, Alt.=166.845825m. Speed=0.000000m/h.</desc>
<speed>0.000000</speed>
</trkpt>
<trkpt lat="55.704353" lon="26.086359">
<ele>166.841919</ele>
<time>2010-07-17T18:36:12Z</time>
<desc>lat.=55.704353, lon.=26.086359, Alt.=166.841919m. Speed=0.000000m/h.</desc>
<speed>0.000000</speed>
</trkpt>
<trkpt lat="55.704353" lon="26.086359">
<ele>166.834106</ele>
<time>2010-07-17T18:36:13Z</time>
<desc>lat.=55.704353, lon.=26.086359, Alt.=166.834106m. Speed=0.072000m/h.</desc>
<speed>0.020000</speed>
</trkpt>
<trkpt lat="55.704353" lon="26.086359">
<ele>166.834106</ele>
<time>2010-07-17T18:36:14Z</time>
<desc>lat.=55.704353, lon.=26.086359, Alt.=166.834106m. Speed=0.036000m/h.</desc>
<speed>0.010000</speed>
</trkpt>
<trkpt lat="55.704353" lon="26.086359">
<ele>166.826294</ele>
<time>2010-07-17T18:36:15Z</time>
<desc>lat.=55.704353, lon.=26.086359, Alt.=166.826294m. Speed=0.000000m/h.</desc>
<speed>0.000000</speed>
</trkpt>
<trkpt lat="55.704353" lon="26.086361">
<ele>166.818481</ele>
<time>2010-07-17T18:36:16Z</time>
<desc>lat.=55.704353, lon.=26.086361, Alt.=166.818481m. Speed=0.072000m/h.</desc>
<speed>0.020000</speed>
</trkpt>
<trkpt lat="55.704353" lon="26.086361">
<ele>166.814575</ele>
<time>2010-07-17T18:36:17Z</time>
<desc>lat.=55.704353, lon.=26.086361, Alt.=166.814575m. Speed=0.000000m/h.</desc>
<speed>0.000000</speed>
</trkpt>
<trkpt lat="55.704353" lon="26.086361">
<ele>166.810669</ele>
<time>2010-07-17T18:36:18Z</time>
<desc>lat.=55.704353, lon.=26.086361, Alt.=166.810669m. Speed=0.036000m/h.</desc>
<speed>0.010000</speed>
</trkpt>
<trkpt lat="55.704353" lon="26.086361">
<ele>166.806763</ele>
<time>2010-07-17T18:36:19Z</time>
<desc>lat.=55.704353, lon.=26.086361, Alt.=166.806763m. Speed=0.072000m/h.</desc>
<speed>0.020000</speed>
</trkpt>
<trkpt lat="55.704353" lon="26.086361">
<ele>166.798950</ele>
<time>2010-07-17T18:36:20Z</time>
<desc>lat.=55.704353, lon.=26.086361, Alt.=166.798950m. Speed=0.036000m/h.</desc>
<speed>0.010000</speed>
</trkpt>
<trkpt lat="55.704353" lon="26.086361">
<ele>166.787231</ele>
<time>2010-07-17T18:36:21Z</time>
<desc>lat.=55.704353, lon.=26.086361, Alt.=166.787231m. Speed=0.036000m/h.</desc>
<speed>0.010000</speed>
</trkpt>
<trkpt lat="55.704353" lon="26.086361">
<ele>166.779419</ele>
<time>2010-07-17T18:36:22Z</time>
<desc>lat.=55.704353, lon.=26.086361, Alt.=166.779419m. Speed=0.036000m/h.</desc>
<speed>0.010000</speed>
</trkpt>
<trkpt lat="55.704353" lon="26.086361">
<ele>166.771606</ele>
<time>2010-07-17T18:36:23Z</time>
<desc>lat.=55.704353, lon.=26.086361, Alt.=166.771606m. Speed=0.036000m/h.</desc>
<speed>0.010000</speed>
</trkpt>
<trkpt lat="55.704353" lon="26.086361">
<ele>166.763794</ele>
<time>2010-07-17T18:36:24Z</time>
<desc>lat.=55.704353, lon.=26.086361, Alt.=166.763794m. Speed=0.036000m/h.</desc>
<speed>0.010000</speed>
</trkpt>
<trkpt lat="55.704353" lon="26.086361">
<ele>166.755981</ele>
<time>2010-07-17T18:36:25Z</time>
<desc>lat.=55.704353, lon.=26.086361, Alt.=166.755981m. Speed=0.072000m/h.</desc>
<speed>0.020000</speed>
</trkpt>
<trkpt lat="55.704353" lon="26.086361">
<ele>166.752075</ele>
<time>2010-07-17T18:36:26Z</time>
<desc>lat.=55.704353, lon.=26.086361, Alt.=166.752075m. Speed=0.000000m/h.</desc>
<speed>0.000000</speed>
</trkpt>
<trkpt lat="55.704353" lon="26.086361">
<ele>166.744263</ele>
<time>2010-07-17T18:36:27Z</time>
<desc>lat.=55.704353, lon.=26.086361, Alt.=166.744263m. Speed=0.000000m/h.</desc>
<speed>0.000000</speed>
</trkpt>
<trkpt lat="55.704353" lon="26.086361">
<ele>166.740356</ele>
<time>2010-07-17T18:36:28Z</time>
<desc>lat.=55.704353, lon.=26.086361, Alt.=166.740356m. Speed=0.000000m/h.</desc>
<speed>0.000000</speed>
</trkpt>
<trkpt lat="55.704353" lon="26.086361">
<ele>166.732544</ele>
<time>2010-07-17T18:36:29Z</time>
<desc>lat.=55.704353, lon.=26.086361, Alt.=166.732544m. Speed=0.000000m/h.</desc>
<speed>0.000000</speed>
</trkpt>
<trkpt lat="55.704353" lon="26.086361">
<ele>166.728638</ele>
<time>2010-07-17T18:36:30Z</time>
<desc>lat.=55.704353, lon.=26.086361, Alt.=166.728638m. Speed=0.036000m/h.</desc>
<speed>0.010000</speed>
</trkpt>
<trkpt lat="55.704353" lon="26.086361">
<ele>166.720825</ele>
<time>2010-07-17T18:36:31Z</time>
<desc>lat.=55.704353, lon.=26.086361, Alt.=166.720825m. Speed=0.036000m/h.</desc>
<speed>0.010000</speed>
</trkpt>
<trkpt lat="55.704353" lon="26.086361">
<ele>166.713013</ele>
<time>2010-07-17T18:36:32Z</time>
<desc>lat.=55.704353, lon.=26.086361, Alt.=166.713013m. Speed=0.000000m/h.</desc>
<speed>0.000000</speed>
</trkpt>
<trkpt lat="55.704353" lon="26.086361">
<ele>166.709106</ele>
<time>2010-07-17T18:36:33Z</time>
<desc>lat.=55.704353, lon.=26.086361, Alt.=166.709106m. Speed=0.072000m/h.</desc>
<speed>0.020000</speed>
</trkpt>
<trkpt lat="55.704353" lon="26.086361">
<ele>166.701294</ele>
<time>2010-07-17T18:36:34Z</time>
<desc>lat.=55.704353, lon.=26.086361, Alt.=166.701294m. Speed=0.036000m/h.</desc>
<speed>0.010000</speed>
</trkpt>
<trkpt lat="55.704353" lon="26.086363">
<ele>166.701294</ele>
<time>2010-07-17T18:36:35Z</time>
<desc>lat.=55.704353, lon.=26.086363, Alt.=166.701294m. Speed=0.036000m/h.</desc>
<speed>0.010000</speed>
</trkpt>
<trkpt lat="55.704353" lon="26.086363">
<ele>166.697388</ele>
<time>2010-07-17T18:36:36Z</time>
<desc>lat.=55.704353, lon.=26.086363, Alt.=166.697388m. Speed=0.000000m/h.</desc>
<speed>0.000000</speed>
</trkpt>
<trkpt lat="55.704353" lon="26.086363">
<ele>166.693481</ele>
<time>2010-07-17T18:36:37Z</time>
<desc>lat.=55.704353, lon.=26.086363, Alt.=166.693481m. Speed=0.072000m/h.</desc>
<speed>0.020000</speed>
</trkpt>
<trkpt lat="55.704353" lon="26.086363">
<ele>166.689575</ele>
<time>2010-07-17T18:36:38Z</time>
<desc>lat.=55.704353, lon.=26.086363, Alt.=166.689575m. Speed=0.036000m/h.</desc>
<speed>0.010000</speed>
</trkpt>
<trkpt lat="55.704353" lon="26.086363">
<ele>166.685669</ele>
<time>2010-07-17T18:36:39Z</time>
<desc>lat.=55.704353, lon.=26.086363, Alt.=166.685669m. Speed=0.036000m/h.</desc>
<speed>0.010000</speed>
</trkpt>
<trkpt lat="55.704353" lon="26.086363">
<ele>166.681763</ele>
<time>2010-07-17T18:36:40Z</time>
<desc>lat.=55.704353, lon.=26.086363, Alt.=166.681763m. Speed=0.036000m/h.</desc>
<speed>0.010000</speed>
</trkpt>
<trkpt lat="55.704353" lon="26.086363">
<ele>166.677856</ele>
<time>2010-07-17T18:36:41Z</time>
<desc>lat.=55.704353, lon.=26.086363, Alt.=166.677856m. Speed=0.072000m/h.</desc>
<speed>0.020000</speed>
</trkpt>
<trkpt lat="55.704353" lon="26.086363">
<ele>166.673950</ele>
<time>2010-07-17T18:36:42Z</time>
<desc>lat.=55.704353, lon.=26.086363, Alt.=166.673950m. Speed=0.000000m/h.</desc>
<speed>0.000000</speed>
</trkpt>
<trkpt lat="55.704353" lon="26.086363">
<ele>166.670044</ele>
<time>2010-07-17T18:36:43Z</time>
<desc>lat.=55.704353, lon.=26.086363, Alt.=166.670044m. Speed=0.036000m/h.</desc>
<speed>0.010000</speed>
</trkpt>
<trkpt lat="55.704353" lon="26.086363">
<ele>166.670044</ele>
<time>2010-07-17T18:36:44Z</time>
<desc>lat.=55.704353, lon.=26.086363, Alt.=166.670044m. Speed=0.036000m/h.</desc>
<speed>0.010000</speed>
</trkpt>
<trkpt lat="55.704353" lon="26.086363">
<ele>166.662231</ele>
<time>2010-07-17T18:36:45Z</time>
<desc>lat.=55.704353, lon.=26.086363, Alt.=166.662231m. Speed=0.000000m/h.</desc>
<speed>0.000000</speed>
</trkpt>
<trkpt lat="55.704353" lon="26.086363">
<ele>166.658325</ele>
<time>2010-07-17T18:36:46Z</time>
<desc>lat.=55.704353, lon.=26.086363, Alt.=166.658325m. Speed=0.036000m/h.</desc>
<speed>0.010000</speed>
</trkpt>
<trkpt lat="55.704353" lon="26.086363">
<ele>166.654419</ele>
<time>2010-07-17T18:36:47Z</time>
<desc>lat.=55.704353, lon.=26.086363, Alt.=166.654419m. Speed=0.036000m/h.</desc>
<speed>0.010000</speed>
</trkpt>
<trkpt lat="55.704353" lon="26.086363">
<ele>166.650513</ele>
<time>2010-07-17T18:36:48Z</time>
<desc>lat.=55.704353, lon.=26.086363, Alt.=166.650513m. Speed=0.000000m/h.</desc>
<speed>0.000000</speed>
</trkpt>
<trkpt lat="55.704353" lon="26.086363">
<ele>166.646606</ele>
<time>2010-07-17T18:36:49Z</time>
<desc>lat.=55.704353, lon.=26.086363, Alt.=166.646606m. Speed=0.036000m/h.</desc>
<speed>0.010000</speed>
</trkpt>
<trkpt lat="55.704353" lon="26.086363">
<ele>166.638794</ele>
<time>2010-07-17T18:36:50Z</time>
<desc>lat.=55.704353, lon.=26.086363, Alt.=166.638794m. Speed=0.036000m/h.</desc>
<speed>0.010000</speed>
</trkpt>
<trkpt lat="55.704353" lon="26.086363">
<ele>166.634888</ele>
<time>2010-07-17T18:36:51Z</time>
<desc>lat.=55.704353, lon.=26.086363, Alt.=166.634888m. Speed=0.108000m/h.</desc>
<speed>0.030000</speed>
</trkpt>
<trkpt lat="55.704353" lon="26.086363">
<ele>166.627075</ele>
<time>2010-07-17T18:36:52Z</time>
<desc>lat.=55.704353, lon.=26.086363, Alt.=166.627075m. Speed=0.108000m/h.</desc>
<speed>0.030000</speed>
</trkpt>
<trkpt lat="55.704353" lon="26.086363">
<ele>166.623169</ele>
<time>2010-07-17T18:36:53Z</time>
<desc>lat.=55.704353, lon.=26.086363, Alt.=166.623169m. Speed=0.072000m/h.</desc>
<speed>0.020000</speed>
</trkpt>
<trkpt lat="55.704353" lon="26.086363">
<ele>166.615356</ele>
<time>2010-07-17T18:36:54Z</time>
<desc>lat.=55.704353, lon.=26.086363, Alt.=166.615356m. Speed=0.036000m/h.</desc>
<speed>0.010000</speed>
</trkpt>
<trkpt lat="55.704353" lon="26.086363">
<ele>166.611450</ele>
<time>2010-07-17T18:36:55Z</time>
<desc>lat.=55.704353, lon.=26.086363, Alt.=166.611450m. Speed=0.072000m/h.</desc>
<speed>0.020000</speed>
</trkpt>
<trkpt lat="55.704353" lon="26.086363">
<ele>166.607544</ele>
<time>2010-07-17T18:36:56Z</time>
<desc>lat.=55.704353, lon.=26.086363, Alt.=166.607544m. Speed=0.072000m/h.</desc>
<speed>0.020000</speed>
</trkpt>
<trkpt lat="55.704353" lon="26.086363">
<ele>166.599731</ele>
<time>2010-07-17T18:36:57Z</time>
<desc>lat.=55.704353, lon.=26.086363, Alt.=166.599731m. Speed=0.036000m/h.</desc>
<speed>0.010000</speed>
</trkpt>
<trkpt lat="55.704353" lon="26.086363">
<ele>166.595825</ele>
<time>2010-07-17T18:36:58Z</time>
<desc>lat.=55.704353, lon.=26.086363, Alt.=166.595825m. Speed=0.000000m/h.</desc>
<speed>0.000000</speed>
</trkpt>
<trkpt lat="55.704353" lon="26.086363">
<ele>166.588013</ele>
<time>2010-07-17T18:36:59Z</time>
<desc>lat.=55.704353, lon.=26.086363, Alt.=166.588013m. Speed=0.036000m/h.</desc>
<speed>0.010000</speed>
</trkpt>
<trkpt lat="55.704353" lon="26.086363">
<ele>166.588013</ele>
<time>2010-07-17T18:37:00Z</time>
<desc>lat.=55.704353, lon.=26.086363, Alt.=166.588013m. Speed=0.108000m/h.</desc>
<speed>0.030000</speed>
</trkpt>
<trkpt lat="55.704353" lon="26.086361">
<ele>166.576294</ele>
<time>2010-07-17T18:37:01Z</time>
<desc>lat.=55.704353, lon.=26.086361, Alt.=166.576294m. Speed=0.072000m/h.</desc>
<speed>0.020000</speed>
</trkpt>
<trkpt lat="55.704353" lon="26.086361">
<ele>166.568481</ele>
<time>2010-07-17T18:37:02Z</time>
<desc>lat.=55.704353, lon.=26.086361, Alt.=166.568481m. Speed=0.000000m/h.</desc>
<speed>0.000000</speed>
</trkpt>
<trkpt lat="55.704353" lon="26.086361">
<ele>166.556763</ele>
<time>2010-07-17T18:37:03Z</time>
<desc>lat.=55.704353, lon.=26.086361, Alt.=166.556763m. Speed=0.036000m/h.</desc>
<speed>0.010000</speed>
</trkpt>
<trkpt lat="55.704353" lon="26.086361">
<ele>166.545044</ele>
<time>2010-07-17T18:37:04Z</time>
<desc>lat.=55.704353, lon.=26.086361, Alt.=166.545044m. Speed=0.036000m/h.</desc>
<speed>0.010000</speed>
</trkpt>
<trkpt lat="55.704353" lon="26.086361">
<ele>166.541138</ele>
<time>2010-07-17T18:37:05Z</time>
<desc>lat.=55.704353, lon.=26.086361, Alt.=166.541138m. Speed=0.000000m/h.</desc>
<speed>0.000000</speed>
</trkpt>
<trkpt lat="55.704353" lon="26.086361">
<ele>166.533325</ele>
<time>2010-07-17T18:37:06Z</time>
<desc>lat.=55.704353, lon.=26.086361, Alt.=166.533325m. Speed=0.036000m/h.</desc>
<speed>0.010000</speed>
</trkpt>
<trkpt lat="55.704353" lon="26.086361">
<ele>166.525513</ele>
<time>2010-07-17T18:37:07Z</time>
<desc>lat.=55.704353, lon.=26.086361, Alt.=166.525513m. Speed=0.072000m/h.</desc>
<speed>0.020000</speed>
</trkpt>
<trkpt lat="55.704353" lon="26.086361">
<ele>166.517700</ele>
<time>2010-07-17T18:37:08Z</time>
<desc>lat.=55.704353, lon.=26.086361, Alt.=166.517700m. Speed=0.036000m/h.</desc>
<speed>0.010000</speed>
</trkpt>
<trkpt lat="55.704353" lon="26.086361">
<ele>166.513794</ele>
<time>2010-07-17T18:37:09Z</time>
<desc>lat.=55.704353, lon.=26.086361, Alt.=166.513794m. Speed=0.036000m/h.</desc>
<speed>0.010000</speed>
</trkpt>
<trkpt lat="55.704353" lon="26.086363">
<ele>166.505981</ele>
<time>2010-07-17T18:37:10Z</time>
<desc>lat.=55.704353, lon.=26.086363, Alt.=166.505981m. Speed=0.000000m/h.</desc>
<speed>0.000000</speed>
</trkpt>
<trkpt lat="55.704353" lon="26.086363">
<ele>166.502075</ele>
<time>2010-07-17T18:37:11Z</time>
<desc>lat.=55.704353, lon.=26.086363, Alt.=166.502075m. Speed=0.036000m/h.</desc>
<speed>0.010000</speed>
</trkpt>
<trkpt lat="55.704353" lon="26.086363">
<ele>166.486450</ele>
<time>2010-07-17T18:37:12Z</time>
<desc>lat.=55.704353, lon.=26.086363, Alt.=166.486450m. Speed=0.108000m/h.</desc>
<speed>0.030000</speed>
</trkpt>
<trkpt lat="55.704353" lon="26.086363">
<ele>166.466919</ele>
<time>2010-07-17T18:37:13Z</time>
<desc>lat.=55.704353, lon.=26.086363, Alt.=166.466919m. Speed=0.036000m/h.</desc>
<speed>0.010000</speed>
</trkpt>
<trkpt lat="55.704353" lon="26.086363">
<ele>166.459106</ele>
<time>2010-07-17T18:37:14Z</time>
<desc>lat.=55.704353, lon.=26.086363, Alt.=166.459106m. Speed=0.000000m/h.</desc>
<speed>0.000000</speed>
</trkpt>
<trkpt lat="55.704353" lon="26.086363">
<ele>166.451294</ele>
<time>2010-07-17T18:37:15Z</time>
<desc>lat.=55.704353, lon.=26.086363, Alt.=166.451294m. Speed=0.000000m/h.</desc>
<speed>0.000000</speed>
</trkpt>
<trkpt lat="55.704353" lon="26.086363">
<ele>166.439575</ele>
<time>2010-07-17T18:37:16Z</time>
<desc>lat.=55.704353, lon.=26.086363, Alt.=166.439575m. Speed=0.108000m/h.</desc>
<speed>0.030000</speed>
</trkpt>
<trkpt lat="55.704353" lon="26.086363">
<ele>166.435669</ele>
<time>2010-07-17T18:37:17Z</time>
<desc>lat.=55.704353, lon.=26.086363, Alt.=166.435669m. Speed=0.000000m/h.</desc>
<speed>0.000000</speed>
</trkpt>
<trkpt lat="55.704353" lon="26.086363">
<ele>166.431763</ele>
<time>2010-07-17T18:37:18Z</time>
<desc>lat.=55.704353, lon.=26.086363, Alt.=166.431763m. Speed=0.000000m/h.</desc>
<speed>0.000000</speed>
</trkpt>
<trkpt lat="55.704353" lon="26.086363">
<ele>166.427856</ele>
<time>2010-07-17T18:37:19Z</time>
<desc>lat.=55.704353, lon.=26.086363, Alt.=166.427856m. Speed=0.000000m/h.</desc>
<speed>0.000000</speed>
</trkpt>
<trkpt lat="55.704353" lon="26.086363">
<ele>166.416138</ele>
<time>2010-07-17T18:37:20Z</time>
<desc>lat.=55.704353, lon.=26.086363, Alt.=166.416138m. Speed=0.072000m/h.</desc>
<speed>0.020000</speed>
</trkpt>
<trkpt lat="55.704353" lon="26.086363">
<ele>166.412231</ele>
<time>2010-07-17T18:37:21Z</time>
<desc>lat.=55.704353, lon.=26.086363, Alt.=166.412231m. Speed=0.036000m/h.</desc>
<speed>0.010000</speed>
</trkpt>
<trkpt lat="55.704353" lon="26.086363">
<ele>166.400513</ele>
<time>2010-07-17T18:37:22Z</time>
<desc>lat.=55.704353, lon.=26.086363, Alt.=166.400513m. Speed=0.000000m/h.</desc>
<speed>0.000000</speed>
</trkpt>
<trkpt lat="55.704353" lon="26.086363">
<ele>166.384888</ele>
<time>2010-07-17T18:37:23Z</time>
<desc>lat.=55.704353, lon.=26.086363, Alt.=166.384888m. Speed=0.072000m/h.</desc>
<speed>0.020000</speed>
</trkpt>
<trkpt lat="55.704353" lon="26.086363">
<ele>166.377075</ele>
<time>2010-07-17T18:37:24Z</time>
<desc>lat.=55.704353, lon.=26.086363, Alt.=166.377075m. Speed=0.000000m/h.</desc>
<speed>0.000000</speed>
</trkpt>
<trkpt lat="55.704353" lon="26.086363">
<ele>166.365356</ele>
<time>2010-07-17T18:37:25Z</time>
<desc>lat.=55.704353, lon.=26.086363, Alt.=166.365356m. Speed=0.072000m/h.</desc>
<speed>0.020000</speed>
</trkpt>
<trkpt lat="55.704353" lon="26.086363">
<ele>166.357544</ele>
<time>2010-07-17T18:37:26Z</time>
<desc>lat.=55.704353, lon.=26.086363, Alt.=166.357544m. Speed=0.000000m/h.</desc>
<speed>0.000000</speed>
</trkpt>
<trkpt lat="55.704353" lon="26.086365">
<ele>166.345825</ele>
<time>2010-07-17T18:37:27Z</time>
<desc>lat.=55.704353, lon.=26.086365, Alt.=166.345825m. Speed=0.072000m/h.</desc>
<speed>0.020000</speed>
</trkpt>
<trkpt lat="55.704353" lon="26.086365">
<ele>166.330200</ele>
<time>2010-07-17T18:37:28Z</time>
<desc>lat.=55.704353, lon.=26.086365, Alt.=166.330200m. Speed=0.144000m/h.</desc>
<speed>0.040000</speed>
</trkpt>
<trkpt lat="55.704353" lon="26.086365">
<ele>166.318481</ele>
<time>2010-07-17T18:37:29Z</time>
<desc>lat.=55.704353, lon.=26.086365, Alt.=166.318481m. Speed=0.072000m/h.</desc>
<speed>0.020000</speed>
</trkpt>
<trkpt lat="55.704353" lon="26.086365">
<ele>166.302856</ele>
<time>2010-07-17T18:37:30Z</time>
<desc>lat.=55.704353, lon.=26.086365, Alt.=166.302856m. Speed=0.108000m/h.</desc>
<speed>0.030000</speed>
</trkpt>
<trkpt lat="55.704353" lon="26.086365">
<ele>166.291138</ele>
<time>2010-07-17T18:37:31Z</time>
<desc>lat.=55.704353, lon.=26.086365, Alt.=166.291138m. Speed=0.036000m/h.</desc>
<speed>0.010000</speed>
</trkpt>
<trkpt lat="55.704353" lon="26.086365">
<ele>166.275513</ele>
<time>2010-07-17T18:37:32Z</time>
<desc>lat.=55.704353, lon.=26.086365, Alt.=166.275513m. Speed=0.000000m/h.</desc>
<speed>0.000000</speed>
</trkpt>
<trkpt lat="55.704353" lon="26.086365">
<ele>166.259888</ele>
<time>2010-07-17T18:37:33Z</time>
<desc>lat.=55.704353, lon.=26.086365, Alt.=166.259888m. Speed=0.036000m/h.</desc>
<speed>0.010000</speed>
</trkpt>
<trkpt lat="55.704353" lon="26.086365">
<ele>166.240356</ele>
<time>2010-07-17T18:37:34Z</time>
<desc>lat.=55.704353, lon.=26.086365, Alt.=166.240356m. Speed=0.072000m/h.</desc>
<speed>0.020000</speed>
</trkpt>
<trkpt lat="55.704353" lon="26.086365">
<ele>166.213013</ele>
<time>2010-07-17T18:37:35Z</time>
<desc>lat.=55.704353, lon.=26.086365, Alt.=166.213013m. Speed=0.072000m/h.</desc>
<speed>0.020000</speed>
</trkpt>
<trkpt lat="55.704353" lon="26.086365">
<ele>166.189575</ele>
<time>2010-07-17T18:37:36Z</time>
<desc>lat.=55.704353, lon.=26.086365, Alt.=166.189575m. Speed=0.036000m/h.</desc>
<speed>0.010000</speed>
</trkpt>
<trkpt lat="55.704353" lon="26.086365">
<ele>166.181763</ele>
<time>2010-07-17T18:37:37Z</time>
<desc>lat.=55.704353, lon.=26.086365, Alt.=166.181763m. Speed=0.000000m/h.</desc>
<speed>0.000000</speed>
</trkpt>
<trkpt lat="55.704353" lon="26.086365">
<ele>166.170044</ele>
<time>2010-07-17T18:37:38Z</time>
<desc>lat.=55.704353, lon.=26.086365, Alt.=166.170044m. Speed=0.072000m/h.</desc>
<speed>0.020000</speed>
</trkpt>
<trkpt lat="55.704353" lon="26.086367">
<ele>166.154419</ele>
<time>2010-07-17T18:37:39Z</time>
<desc>lat.=55.704353, lon.=26.086367, Alt.=166.154419m. Speed=0.108000m/h.</desc>
<speed>0.030000</speed>
</trkpt>
<trkpt lat="55.704353" lon="26.086367">
<ele>166.142700</ele>
<time>2010-07-17T18:37:40Z</time>
<desc>lat.=55.704353, lon.=26.086367, Alt.=166.142700m. Speed=0.144000m/h.</desc>
<speed>0.040000</speed>
</trkpt>
<trkpt lat="55.704353" lon="26.086367">
<ele>166.123169</ele>
<time>2010-07-17T18:37:41Z</time>
<desc>lat.=55.704353, lon.=26.086367, Alt.=166.123169m. Speed=0.180000m/h.</desc>
<speed>0.050000</speed>
</trkpt>
<trkpt lat="55.704353" lon="26.086367">
<ele>166.107544</ele>
<time>2010-07-17T18:37:42Z</time>
<desc>lat.=55.704353, lon.=26.086367, Alt.=166.107544m. Speed=0.108000m/h.</desc>
<speed>0.030000</speed>
</trkpt>
<trkpt lat="55.704353" lon="26.086367">
<ele>166.099731</ele>
<time>2010-07-17T18:37:43Z</time>
<desc>lat.=55.704353, lon.=26.086367, Alt.=166.099731m. Speed=0.108000m/h.</desc>
<speed>0.030000</speed>
</trkpt>
<trkpt lat="55.704353" lon="26.086367">
<ele>166.084106</ele>
<time>2010-07-17T18:37:44Z</time>
<desc>lat.=55.704353, lon.=26.086367, Alt.=166.084106m. Speed=0.108000m/h.</desc>
<speed>0.030000</speed>
</trkpt>
<trkpt lat="55.704353" lon="26.086367">
<ele>166.072388</ele>
<time>2010-07-17T18:37:45Z</time>
<desc>lat.=55.704353, lon.=26.086367, Alt.=166.072388m. Speed=0.036000m/h.</desc>
<speed>0.010000</speed>
</trkpt>
<trkpt lat="55.704353" lon="26.086367">
<ele>166.060669</ele>
<time>2010-07-17T18:37:46Z</time>
<desc>lat.=55.704353, lon.=26.086367, Alt.=166.060669m. Speed=0.072000m/h.</desc>
<speed>0.020000</speed>
</trkpt>
<trkpt lat="55.704353" lon="26.086369">
<ele>166.052856</ele>
<time>2010-07-17T18:37:47Z</time>
<desc>lat.=55.704353, lon.=26.086369, Alt.=166.052856m. Speed=0.036000m/h.</desc>
<speed>0.010000</speed>
</trkpt>
<trkpt lat="55.704353" lon="26.086369">
<ele>166.041138</ele>
<time>2010-07-17T18:37:48Z</time>
<desc>lat.=55.704353, lon.=26.086369, Alt.=166.041138m. Speed=0.108000m/h.</desc>
<speed>0.030000</speed>
</trkpt>
<trkpt lat="55.704353" lon="26.086369">
<ele>166.033325</ele>
<time>2010-07-17T18:37:49Z</time>
<desc>lat.=55.704353, lon.=26.086369, Alt.=166.033325m. Speed=0.108000m/h.</desc>
<speed>0.030000</speed>
</trkpt>
<trkpt lat="55.704353" lon="26.086369">
<ele>166.029419</ele>
<time>2010-07-17T18:37:50Z</time>
<desc>lat.=55.704353, lon.=26.086369, Alt.=166.029419m. Speed=0.072000m/h.</desc>
<speed>0.020000</speed>
</trkpt>
<trkpt lat="55.704353" lon="26.086369">
<ele>166.017700</ele>
<time>2010-07-17T18:37:51Z</time>
<desc>lat.=55.704353, lon.=26.086369, Alt.=166.017700m. Speed=0.036000m/h.</desc>
<speed>0.010000</speed>
</trkpt>
<trkpt lat="55.704353" lon="26.086369">
<ele>166.005981</ele>
<time>2010-07-17T18:37:52Z</time>
<desc>lat.=55.704353, lon.=26.086369, Alt.=166.005981m. Speed=0.072000m/h.</desc>
<speed>0.020000</speed>
</trkpt>
<trkpt lat="55.704353" lon="26.086369">
<ele>166.002075</ele>
<time>2010-07-17T18:37:53Z</time>
<desc>lat.=55.704353, lon.=26.086369, Alt.=166.002075m. Speed=0.072000m/h.</desc>
<speed>0.020000</speed>
</trkpt>
<trkpt lat="55.704353" lon="26.086369">
<ele>165.986450</ele>
<time>2010-07-17T18:37:54Z</time>
<desc>lat.=55.704353, lon.=26.086369, Alt.=165.986450m. Speed=0.000000m/h.</desc>
<speed>0.000000</speed>
</trkpt>
<trkpt lat="55.704353" lon="26.086369">
<ele>165.974731</ele>
<time>2010-07-17T18:37:55Z</time>
<desc>lat.=55.704353, lon.=26.086369, Alt.=165.974731m. Speed=0.036000m/h.</desc>
<speed>0.010000</speed>
</trkpt>
<trkpt lat="55.704353" lon="26.086369">
<ele>165.966919</ele>
<time>2010-07-17T18:37:56Z</time>
<desc>lat.=55.704353, lon.=26.086369, Alt.=165.966919m. Speed=0.036000m/h.</desc>
<speed>0.010000</speed>
</trkpt>
<trkpt lat="55.704353" lon="26.086369">
<ele>165.955200</ele>
<time>2010-07-17T18:37:57Z</time>
<desc>lat.=55.704353, lon.=26.086369, Alt.=165.955200m. Speed=0.072000m/h.</desc>
<speed>0.020000</speed>
</trkpt>
<trkpt lat="55.704353" lon="26.086369">
<ele>165.947388</ele>
<time>2010-07-17T18:37:58Z</time>
<desc>lat.=55.704353, lon.=26.086369, Alt.=165.947388m. Speed=0.180000m/h.</desc>
<speed>0.050000</speed>
</trkpt>
<trkpt lat="55.704353" lon="26.086369">
<ele>165.939575</ele>
<time>2010-07-17T18:37:59Z</time>
<desc>lat.=55.704353, lon.=26.086369, Alt.=165.939575m. Speed=0.108000m/h.</desc>
<speed>0.030000</speed>
</trkpt>
<trkpt lat="55.704353" lon="26.086369">
<ele>165.927856</ele>
<time>2010-07-17T18:38:00Z</time>
<desc>lat.=55.704353, lon.=26.086369, Alt.=165.927856m. Speed=0.108000m/h.</desc>
<speed>0.030000</speed>
</trkpt>
<trkpt lat="55.704353" lon="26.086369">
<ele>165.923950</ele>
<time>2010-07-17T18:38:01Z</time>
<desc>lat.=55.704353, lon.=26.086369, Alt.=165.923950m. Speed=0.000000m/h.</desc>
<speed>0.000000</speed>
</trkpt>
<trkpt lat="55.704353" lon="26.086369">
<ele>165.912231</ele>
<time>2010-07-17T18:38:02Z</time>
<desc>lat.=55.704353, lon.=26.086369, Alt.=165.912231m. Speed=0.000000m/h.</desc>
<speed>0.000000</speed>
</trkpt>
<trkpt lat="55.704353" lon="26.086369">
<ele>165.908325</ele>
<time>2010-07-17T18:38:03Z</time>
<desc>lat.=55.704353, lon.=26.086369, Alt.=165.908325m. Speed=0.072000m/h.</desc>
<speed>0.020000</speed>
</trkpt>
<trkpt lat="55.704353" lon="26.086369">
<ele>165.904419</ele>
<time>2010-07-17T18:38:04Z</time>
<desc>lat.=55.704353, lon.=26.086369, Alt.=165.904419m. Speed=0.072000m/h.</desc>
<speed>0.020000</speed>
</trkpt>
<trkpt lat="55.704353" lon="26.086369">
<ele>165.896606</ele>
<time>2010-07-17T18:38:05Z</time>
<desc>lat.=55.704353, lon.=26.086369, Alt.=165.896606m. Speed=0.108000m/h.</desc>
<speed>0.030000</speed>
</trkpt>
<trkpt lat="55.704353" lon="26.086370">
<ele>165.888794</ele>
<time>2010-07-17T18:38:06Z</time>
<desc>lat.=55.704353, lon.=26.086370, Alt.=165.888794m. Speed=0.036000m/h.</desc>
<speed>0.010000</speed>
</trkpt>
<trkpt lat="55.704353" lon="26.086370">
<ele>165.880981</ele>
<time>2010-07-17T18:38:07Z</time>
<desc>lat.=55.704353, lon.=26.086370, Alt.=165.880981m. Speed=0.108000m/h.</desc>
<speed>0.030000</speed>
</trkpt>
<trkpt lat="55.704353" lon="26.086370">
<ele>165.873169</ele>
<time>2010-07-17T18:38:08Z</time>
<desc>lat.=55.704353, lon.=26.086370, Alt.=165.873169m. Speed=0.036000m/h.</desc>
<speed>0.010000</speed>
</trkpt>
<trkpt lat="55.704353" lon="26.086370">
<ele>165.865356</ele>
<time>2010-07-17T18:38:09Z</time>
<desc>lat.=55.704353, lon.=26.086370, Alt.=165.865356m. Speed=0.036000m/h.</desc>
<speed>0.010000</speed>
</trkpt>
<trkpt lat="55.704353" lon="26.086370">
<ele>165.845825</ele>
<time>2010-07-17T18:38:10Z</time>
<desc>lat.=55.704353, lon.=26.086370, Alt.=165.845825m. Speed=0.072000m/h.</desc>
<speed>0.020000</speed>
</trkpt>
<trkpt lat="55.704353" lon="26.086370">
<ele>165.838013</ele>
<time>2010-07-17T18:38:11Z</time>
<desc>lat.=55.704353, lon.=26.086370, Alt.=165.838013m. Speed=0.036000m/h.</desc>
<speed>0.010000</speed>
</trkpt>
<trkpt lat="55.704353" lon="26.086370">
<ele>165.838013</ele>
<time>2010-07-17T18:38:12Z</time>
<desc>lat.=55.704353, lon.=26.086370, Alt.=165.838013m. Speed=0.072000m/h.</desc>
<speed>0.020000</speed>
</trkpt>
<trkpt lat="55.704353" lon="26.086370">
<ele>165.838013</ele>
<time>2010-07-17T18:38:13Z</time>
<desc>lat.=55.704353, lon.=26.086370, Alt.=165.838013m. Speed=0.072000m/h.</desc>
<speed>0.020000</speed>
</trkpt>
<trkpt lat="55.704353" lon="26.086370">
<ele>165.838013</ele>
<time>2010-07-17T18:38:14Z</time>
<desc>lat.=55.704353, lon.=26.086370, Alt.=165.838013m. Speed=0.036000m/h.</desc>
<speed>0.010000</speed>
</trkpt>
<trkpt lat="55.704353" lon="26.086370">
<ele>165.841919</ele>
<time>2010-07-17T18:38:15Z</time>
<desc>lat.=55.704353, lon.=26.086370, Alt.=165.841919m. Speed=0.036000m/h.</desc>
<speed>0.010000</speed>
</trkpt>
<trkpt lat="55.704353" lon="26.086370">
<ele>165.838013</ele>
<time>2010-07-17T18:38:16Z</time>
<desc>lat.=55.704353, lon.=26.086370, Alt.=165.838013m. Speed=0.000000m/h.</desc>
<speed>0.000000</speed>
</trkpt>
<trkpt lat="55.704353" lon="26.086370">
<ele>165.834106</ele>
<time>2010-07-17T18:38:17Z</time>
<desc>lat.=55.704353, lon.=26.086370, Alt.=165.834106m. Speed=0.000000m/h.</desc>
<speed>0.000000</speed>
</trkpt>
<trkpt lat="55.704353" lon="26.086370">
<ele>165.834106</ele>
<time>2010-07-17T18:38:18Z</time>
<desc>lat.=55.704353, lon.=26.086370, Alt.=165.834106m. Speed=0.036000m/h.</desc>
<speed>0.010000</speed>
</trkpt>
<trkpt lat="55.704353" lon="26.086370">
<ele>165.834106</ele>
<time>2010-07-17T18:38:19Z</time>
<desc>lat.=55.704353, lon.=26.086370, Alt.=165.834106m. Speed=0.000000m/h.</desc>
<speed>0.000000</speed>
</trkpt>
<trkpt lat="55.704353" lon="26.086370">
<ele>165.834106</ele>
<time>2010-07-17T18:38:20Z</time>
<desc>lat.=55.704353, lon.=26.086370, Alt.=165.834106m. Speed=0.036000m/h.</desc>
<speed>0.010000</speed>
</trkpt>
<trkpt lat="55.704353" lon="26.086370">
<ele>165.834106</ele>
<time>2010-07-17T18:38:21Z</time>
<desc>lat.=55.704353, lon.=26.086370, Alt.=165.834106m. Speed=0.072000m/h.</desc>
<speed>0.020000</speed>
</trkpt>
<trkpt lat="55.704353" lon="26.086370">
<ele>165.834106</ele>
<time>2010-07-17T18:38:22Z</time>
<desc>lat.=55.704353, lon.=26.086370, Alt.=165.834106m. Speed=0.000000m/h.</desc>
<speed>0.000000</speed>
</trkpt>
<trkpt lat="55.704353" lon="26.086370">
<ele>165.834106</ele>
<time>2010-07-17T18:38:23Z</time>
<desc>lat.=55.704353, lon.=26.086370, Alt.=165.834106m. Speed=0.036000m/h.</desc>
<speed>0.010000</speed>
</trkpt>
<trkpt lat="55.704353" lon="26.086370">
<ele>165.834106</ele>
<time>2010-07-17T18:38:24Z</time>
<desc>lat.=55.704353, lon.=26.086370, Alt.=165.834106m. Speed=0.000000m/h.</desc>
<speed>0.000000</speed>
</trkpt>
<trkpt lat="55.704353" lon="26.086370">
<ele>165.830200</ele>
<time>2010-07-17T18:38:25Z</time>
<desc>lat.=55.704353, lon.=26.086370, Alt.=165.830200m. Speed=0.000000m/h.</desc>
<speed>0.000000</speed>
</trkpt>
<trkpt lat="55.704353" lon="26.086370">
<ele>165.826294</ele>
<time>2010-07-17T18:38:26Z</time>
<desc>lat.=55.704353, lon.=26.086370, Alt.=165.826294m. Speed=0.036000m/h.</desc>
<speed>0.010000</speed>
</trkpt>
<trkpt lat="55.704357" lon="26.086370">
<ele>165.826294</ele>
<time>2010-07-17T18:38:27Z</time>
<desc>lat.=55.704357, lon.=26.086370, Alt.=165.826294m. Speed=0.036000m/h.</desc>
<speed>0.010000</speed>
</trkpt>
<trkpt lat="55.704357" lon="26.086370">
<ele>165.826294</ele>
<time>2010-07-17T18:38:28Z</time>
<desc>lat.=55.704357, lon.=26.086370, Alt.=165.826294m. Speed=0.000000m/h.</desc>
<speed>0.000000</speed>
</trkpt>
<trkpt lat="55.704357" lon="26.086370">
<ele>165.822388</ele>
<time>2010-07-17T18:38:29Z</time>
<desc>lat.=55.704357, lon.=26.086370, Alt.=165.822388m. Speed=0.036000m/h.</desc>
<speed>0.010000</speed>
</trkpt>
<trkpt lat="55.704357" lon="26.086370">
<ele>165.818481</ele>
<time>2010-07-17T18:38:30Z</time>
<desc>lat.=55.704357, lon.=26.086370, Alt.=165.818481m. Speed=0.036000m/h.</desc>
<speed>0.010000</speed>
</trkpt>
<trkpt lat="55.704357" lon="26.086370">
<ele>165.814575</ele>
<time>2010-07-17T18:38:31Z</time>
<desc>lat.=55.704357, lon.=26.086370, Alt.=165.814575m. Speed=0.000000m/h.</desc>
<speed>0.000000</speed>
</trkpt>
<trkpt lat="55.704357" lon="26.086370">
<ele>165.810669</ele>
<time>2010-07-17T18:38:32Z</time>
<desc>lat.=55.704357, lon.=26.086370, Alt.=165.810669m. Speed=0.036000m/h.</desc>
<speed>0.010000</speed>
</trkpt>
<trkpt lat="55.704357" lon="26.086370">
<ele>165.802856</ele>
<time>2010-07-17T18:38:33Z</time>
<desc>lat.=55.704357, lon.=26.086370, Alt.=165.802856m. Speed=0.036000m/h.</desc>
<speed>0.010000</speed>
</trkpt>
<trkpt lat="55.704357" lon="26.086370">
<ele>165.798950</ele>
<time>2010-07-17T18:38:34Z</time>
<desc>lat.=55.704357, lon.=26.086370, Alt.=165.798950m. Speed=0.036000m/h.</desc>
<speed>0.010000</speed>
</trkpt>
<trkpt lat="55.704357" lon="26.086370">
<ele>165.795044</ele>
<time>2010-07-17T18:38:35Z</time>
<desc>lat.=55.704357, lon.=26.086370, Alt.=165.795044m. Speed=0.036000m/h.</desc>
<speed>0.010000</speed>
</trkpt>
<trkpt lat="55.704357" lon="26.086370">
<ele>165.791138</ele>
<time>2010-07-17T18:38:36Z</time>
<desc>lat.=55.704357, lon.=26.086370, Alt.=165.791138m. Speed=0.036000m/h.</desc>
<speed>0.010000</speed>
</trkpt>
<trkpt lat="55.704357" lon="26.086370">
<ele>165.787231</ele>
<time>2010-07-17T18:38:37Z</time>
<desc>lat.=55.704357, lon.=26.086370, Alt.=165.787231m. Speed=0.036000m/h.</desc>
<speed>0.010000</speed>
</trkpt>
<trkpt lat="55.704357" lon="26.086370">
<ele>165.783325</ele>
<time>2010-07-17T18:38:38Z</time>
<desc>lat.=55.704357, lon.=26.086370, Alt.=165.783325m. Speed=0.036000m/h.</desc>
<speed>0.010000</speed>
</trkpt>
<trkpt lat="55.704357" lon="26.086370">
<ele>165.779419</ele>
<time>2010-07-17T18:38:39Z</time>
<desc>lat.=55.704357, lon.=26.086370, Alt.=165.779419m. Speed=0.036000m/h.</desc>
<speed>0.010000</speed>
</trkpt>
<trkpt lat="55.704353" lon="26.086370">
<ele>165.775513</ele>
<time>2010-07-17T18:38:40Z</time>
<desc>lat.=55.704353, lon.=26.086370, Alt.=165.775513m. Speed=0.036000m/h.</desc>
<speed>0.010000</speed>
</trkpt>
<trkpt lat="55.704353" lon="26.086370">
<ele>165.771606</ele>
<time>2010-07-17T18:38:41Z</time>
<desc>lat.=55.704353, lon.=26.086370, Alt.=165.771606m. Speed=0.072000m/h.</desc>
<speed>0.020000</speed>
</trkpt>
<trkpt lat="55.704353" lon="26.086370">
<ele>165.767700</ele>
<time>2010-07-17T18:38:42Z</time>
<desc>lat.=55.704353, lon.=26.086370, Alt.=165.767700m. Speed=0.000000m/h.</desc>
<speed>0.000000</speed>
</trkpt>
<trkpt lat="55.704353" lon="26.086370">
<ele>165.767700</ele>
<time>2010-07-17T18:38:43Z</time>
<desc>lat.=55.704353, lon.=26.086370, Alt.=165.767700m. Speed=0.036000m/h.</desc>
<speed>0.010000</speed>
</trkpt>
<trkpt lat="55.704353" lon="26.086370">
<ele>165.763794</ele>
<time>2010-07-17T18:38:44Z</time>
<desc>lat.=55.704353, lon.=26.086370, Alt.=165.763794m. Speed=0.036000m/h.</desc>
<speed>0.010000</speed>
</trkpt>
<trkpt lat="55.704353" lon="26.086370">
<ele>165.759888</ele>
<time>2010-07-17T18:38:45Z</time>
<desc>lat.=55.704353, lon.=26.086370, Alt.=165.759888m. Speed=0.036000m/h.</desc>
<speed>0.010000</speed>
</trkpt>
<trkpt lat="55.704353" lon="26.086370">
<ele>165.759888</ele>
<time>2010-07-17T18:38:46Z</time>
<desc>lat.=55.704353, lon.=26.086370, Alt.=165.759888m. Speed=0.036000m/h.</desc>
<speed>0.010000</speed>
</trkpt>
<trkpt lat="55.704353" lon="26.086370">
<ele>165.755981</ele>
<time>2010-07-17T18:38:47Z</time>
<desc>lat.=55.704353, lon.=26.086370, Alt.=165.755981m. Speed=0.000000m/h.</desc>
<speed>0.000000</speed>
</trkpt>
<trkpt lat="55.704353" lon="26.086370">
<ele>165.755981</ele>
<time>2010-07-17T18:38:48Z</time>
<desc>lat.=55.704353, lon.=26.086370, Alt.=165.755981m. Speed=0.000000m/h.</desc>
<speed>0.000000</speed>
</trkpt>
<trkpt lat="55.704353" lon="26.086370">
<ele>165.748169</ele>
<time>2010-07-17T18:38:49Z</time>
<desc>lat.=55.704353, lon.=26.086370, Alt.=165.748169m. Speed=0.000000m/h.</desc>
<speed>0.000000</speed>
</trkpt>
<trkpt lat="55.704353" lon="26.086370">
<ele>165.744263</ele>
<time>2010-07-17T18:38:50Z</time>
<desc>lat.=55.704353, lon.=26.086370, Alt.=165.744263m. Speed=0.072000m/h.</desc>
<speed>0.020000</speed>
</trkpt>
<trkpt lat="55.704353" lon="26.086370">
<ele>165.736450</ele>
<time>2010-07-17T18:38:51Z</time>
<desc>lat.=55.704353, lon.=26.086370, Alt.=165.736450m. Speed=0.108000m/h.</desc>
<speed>0.030000</speed>
</trkpt>
<trkpt lat="55.704353" lon="26.086370">
<ele>165.732544</ele>
<time>2010-07-17T18:38:52Z</time>
<desc>lat.=55.704353, lon.=26.086370, Alt.=165.732544m. Speed=0.000000m/h.</desc>
<speed>0.000000</speed>
</trkpt>
<trkpt lat="55.704353" lon="26.086370">
<ele>165.732544</ele>
<time>2010-07-17T18:38:53Z</time>
<desc>lat.=55.704353, lon.=26.086370, Alt.=165.732544m. Speed=0.000000m/h.</desc>
<speed>0.000000</speed>
</trkpt>
<trkpt lat="55.704353" lon="26.086370">
<ele>165.728638</ele>
<time>2010-07-17T18:38:54Z</time>
<desc>lat.=55.704353, lon.=26.086370, Alt.=165.728638m. Speed=0.000000m/h.</desc>
<speed>0.000000</speed>
</trkpt>
<trkpt lat="55.704353" lon="26.086370">
<ele>165.720825</ele>
<time>2010-07-17T18:38:55Z</time>
<desc>lat.=55.704353, lon.=26.086370, Alt.=165.720825m. Speed=0.036000m/h.</desc>
<speed>0.010000</speed>
</trkpt>
<trkpt lat="55.704353" lon="26.086370">
<ele>165.716919</ele>
<time>2010-07-17T18:38:56Z</time>
<desc>lat.=55.704353, lon.=26.086370, Alt.=165.716919m. Speed=0.000000m/h.</desc>
<speed>0.000000</speed>
</trkpt>
<trkpt lat="55.704353" lon="26.086370">
<ele>165.705200</ele>
<time>2010-07-17T18:38:57Z</time>
<desc>lat.=55.704353, lon.=26.086370, Alt.=165.705200m. Speed=0.036000m/h.</desc>
<speed>0.010000</speed>
</trkpt>
<trkpt lat="55.704353" lon="26.086370">
<ele>165.693481</ele>
<time>2010-07-17T18:38:58Z</time>
<desc>lat.=55.704353, lon.=26.086370, Alt.=165.693481m. Speed=0.036000m/h.</desc>
<speed>0.010000</speed>
</trkpt>
<trkpt lat="55.704353" lon="26.086370">
<ele>165.681763</ele>
<time>2010-07-17T18:38:59Z</time>
<desc>lat.=55.704353, lon.=26.086370, Alt.=165.681763m. Speed=0.000000m/h.</desc>
<speed>0.000000</speed>
</trkpt>
<trkpt lat="55.704353" lon="26.086370">
<ele>165.673950</ele>
<time>2010-07-17T18:39:00Z</time>
<desc>lat.=55.704353, lon.=26.086370, Alt.=165.673950m. Speed=0.036000m/h.</desc>
<speed>0.010000</speed>
</trkpt>
<trkpt lat="55.704353" lon="26.086370">
<ele>165.662231</ele>
<time>2010-07-17T18:39:01Z</time>
<desc>lat.=55.704353, lon.=26.086370, Alt.=165.662231m. Speed=0.072000m/h.</desc>
<speed>0.020000</speed>
</trkpt>
<trkpt lat="55.704353" lon="26.086370">
<ele>165.658325</ele>
<time>2010-07-17T18:39:02Z</time>
<desc>lat.=55.704353, lon.=26.086370, Alt.=165.658325m. Speed=0.000000m/h.</desc>
<speed>0.000000</speed>
</trkpt>
<trkpt lat="55.704353" lon="26.086370">
<ele>165.650513</ele>
<time>2010-07-17T18:39:03Z</time>
<desc>lat.=55.704353, lon.=26.086370, Alt.=165.650513m. Speed=0.000000m/h.</desc>
<speed>0.000000</speed>
</trkpt>
<trkpt lat="55.704353" lon="26.086370">
<ele>165.642700</ele>
<time>2010-07-17T18:39:04Z</time>
<desc>lat.=55.704353, lon.=26.086370, Alt.=165.642700m. Speed=0.036000m/h.</desc>
<speed>0.010000</speed>
</trkpt>
<trkpt lat="55.704353" lon="26.086370">
<ele>165.638794</ele>
<time>2010-07-17T18:39:05Z</time>
<desc>lat.=55.704353, lon.=26.086370, Alt.=165.638794m. Speed=0.036000m/h.</desc>
<speed>0.010000</speed>
</trkpt>
<trkpt lat="55.704353" lon="26.086370">
<ele>165.630981</ele>
<time>2010-07-17T18:39:06Z</time>
<desc>lat.=55.704353, lon.=26.086370, Alt.=165.630981m. Speed=0.000000m/h.</desc>
<speed>0.000000</speed>
</trkpt>
<trkpt lat="55.704353" lon="26.086370">
<ele>165.627075</ele>
<time>2010-07-17T18:39:07Z</time>
<desc>lat.=55.704353, lon.=26.086370, Alt.=165.627075m. Speed=0.036000m/h.</desc>
<speed>0.010000</speed>
</trkpt>
<trkpt lat="55.704353" lon="26.086370">
<ele>165.627075</ele>
<time>2010-07-17T18:39:08Z</time>
<desc>lat.=55.704353, lon.=26.086370, Alt.=165.627075m. Speed=0.036000m/h.</desc>
<speed>0.010000</speed>
</trkpt>
<trkpt lat="55.704353" lon="26.086370">
<ele>165.623169</ele>
<time>2010-07-17T18:39:09Z</time>
<desc>lat.=55.704353, lon.=26.086370, Alt.=165.623169m. Speed=0.000000m/h.</desc>
<speed>0.000000</speed>
</trkpt>
<trkpt lat="55.704353" lon="26.086370">
<ele>165.623169</ele>
<time>2010-07-17T18:39:10Z</time>
<desc>lat.=55.704353, lon.=26.086370, Alt.=165.623169m. Speed=0.036000m/h.</desc>
<speed>0.010000</speed>
</trkpt>
<trkpt lat="55.704353" lon="26.086370">
<ele>165.619263</ele>
<time>2010-07-17T18:39:11Z</time>
<desc>lat.=55.704353, lon.=26.086370, Alt.=165.619263m. Speed=0.036000m/h.</desc>
<speed>0.010000</speed>
</trkpt>
<trkpt lat="55.704353" lon="26.086370">
<ele>165.615356</ele>
<time>2010-07-17T18:39:12Z</time>
<desc>lat.=55.704353, lon.=26.086370, Alt.=165.615356m. Speed=0.036000m/h.</desc>
<speed>0.010000</speed>
</trkpt>
<trkpt lat="55.704353" lon="26.086370">
<ele>165.615356</ele>
<time>2010-07-17T18:39:13Z</time>
<desc>lat.=55.704353, lon.=26.086370, Alt.=165.615356m. Speed=0.000000m/h.</desc>
<speed>0.000000</speed>
</trkpt>
<trkpt lat="55.704353" lon="26.086370">
<ele>165.615356</ele>
<time>2010-07-17T18:39:14Z</time>
<desc>lat.=55.704353, lon.=26.086370, Alt.=165.615356m. Speed=0.000000m/h.</desc>
<speed>0.000000</speed>
</trkpt>
<trkpt lat="55.704353" lon="26.086370">
<ele>165.615356</ele>
<time>2010-07-17T18:39:15Z</time>
<desc>lat.=55.704353, lon.=26.086370, Alt.=165.615356m. Speed=0.000000m/h.</desc>
<speed>0.000000</speed>
</trkpt>
<trkpt lat="55.704353" lon="26.086370">
<ele>165.619263</ele>
<time>2010-07-17T18:39:16Z</time>
<desc>lat.=55.704353, lon.=26.086370, Alt.=165.619263m. Speed=0.036000m/h.</desc>
<speed>0.010000</speed>
</trkpt>
<trkpt lat="55.704353" lon="26.086370">
<ele>165.615356</ele>
<time>2010-07-17T18:39:17Z</time>
<desc>lat.=55.704353, lon.=26.086370, Alt.=165.615356m. Speed=0.000000m/h.</desc>
<speed>0.000000</speed>
</trkpt>
<trkpt lat="55.704353" lon="26.086370">
<ele>165.619263</ele>
<time>2010-07-17T18:39:18Z</time>
<desc>lat.=55.704353, lon.=26.086370, Alt.=165.619263m. Speed=0.000000m/h.</desc>
<speed>0.000000</speed>
</trkpt>
<trkpt lat="55.704353" lon="26.086370">
<ele>165.623169</ele>
<time>2010-07-17T18:39:19Z</time>
<desc>lat.=55.704353, lon.=26.086370, Alt.=165.623169m. Speed=0.036000m/h.</desc>
<speed>0.010000</speed>
</trkpt>
<trkpt lat="55.704353" lon="26.086370">
<ele>165.619263</ele>
<time>2010-07-17T18:39:20Z</time>
<desc>lat.=55.704353, lon.=26.086370, Alt.=165.619263m. Speed=0.036000m/h.</desc>
<speed>0.010000</speed>
</trkpt>
<trkpt lat="55.704353" lon="26.086370">
<ele>165.619263</ele>
<time>2010-07-17T18:39:21Z</time>
<desc>lat.=55.704353, lon.=26.086370, Alt.=165.619263m. Speed=0.036000m/h.</desc>
<speed>0.010000</speed>
</trkpt>
<trkpt lat="55.704357" lon="26.086370">
<ele>165.619263</ele>
<time>2010-07-17T18:39:22Z</time>
<desc>lat.=55.704357, lon.=26.086370, Alt.=165.619263m. Speed=0.000000m/h.</desc>
<speed>0.000000</speed>
</trkpt>
<trkpt lat="55.704357" lon="26.086370">
<ele>165.615356</ele>
<time>2010-07-17T18:39:23Z</time>
<desc>lat.=55.704357, lon.=26.086370, Alt.=165.615356m. Speed=0.000000m/h.</desc>
<speed>0.000000</speed>
</trkpt>
<trkpt lat="55.704357" lon="26.086370">
<ele>165.615356</ele>
<time>2010-07-17T18:39:24Z</time>
<desc>lat.=55.704357, lon.=26.086370, Alt.=165.615356m. Speed=0.036000m/h.</desc>
<speed>0.010000</speed>
</trkpt>
<trkpt lat="55.704357" lon="26.086370">
<ele>165.611450</ele>
<time>2010-07-17T18:39:25Z</time>
<desc>lat.=55.704357, lon.=26.086370, Alt.=165.611450m. Speed=0.072000m/h.</desc>
<speed>0.020000</speed>
</trkpt>
<trkpt lat="55.704357" lon="26.086370">
<ele>165.615356</ele>
<time>2010-07-17T18:39:26Z</time>
<desc>lat.=55.704357, lon.=26.086370, Alt.=165.615356m. Speed=0.072000m/h.</desc>
<speed>0.020000</speed>
</trkpt>
<trkpt lat="55.704357" lon="26.086370">
<ele>165.607544</ele>
<time>2010-07-17T18:39:27Z</time>
<desc>lat.=55.704357, lon.=26.086370, Alt.=165.607544m. Speed=0.036000m/h.</desc>
<speed>0.010000</speed>
</trkpt>
<trkpt lat="55.704357" lon="26.086370">
<ele>165.603638</ele>
<time>2010-07-17T18:39:28Z</time>
<desc>lat.=55.704357, lon.=26.086370, Alt.=165.603638m. Speed=0.000000m/h.</desc>
<speed>0.000000</speed>
</trkpt>
<trkpt lat="55.704357" lon="26.086370">
<ele>165.595825</ele>
<time>2010-07-17T18:39:29Z</time>
<desc>lat.=55.704357, lon.=26.086370, Alt.=165.595825m. Speed=0.072000m/h.</desc>
<speed>0.020000</speed>
</trkpt>
<trkpt lat="55.704357" lon="26.086370">
<ele>165.591919</ele>
<time>2010-07-17T18:39:30Z</time>
<desc>lat.=55.704357, lon.=26.086370, Alt.=165.591919m. Speed=0.000000m/h.</desc>
<speed>0.000000</speed>
</trkpt>
<trkpt lat="55.704357" lon="26.086370">
<ele>165.588013</ele>
<time>2010-07-17T18:39:31Z</time>
<desc>lat.=55.704357, lon.=26.086370, Alt.=165.588013m. Speed=0.000000m/h.</desc>
<speed>0.000000</speed>
</trkpt>
<trkpt lat="55.704357" lon="26.086370">
<ele>165.588013</ele>
<time>2010-07-17T18:39:32Z</time>
<desc>lat.=55.704357, lon.=26.086370, Alt.=165.588013m. Speed=0.108000m/h.</desc>
<speed>0.030000</speed>
</trkpt>
<trkpt lat="55.704357" lon="26.086370">
<ele>165.588013</ele>
<time>2010-07-17T18:39:33Z</time>
<desc>lat.=55.704357, lon.=26.086370, Alt.=165.588013m. Speed=0.108000m/h.</desc>
<speed>0.030000</speed>
</trkpt>
<trkpt lat="55.704357" lon="26.086370">
<ele>165.588013</ele>
<time>2010-07-17T18:39:34Z</time>
<desc>lat.=55.704357, lon.=26.086370, Alt.=165.588013m. Speed=0.072000m/h.</desc>
<speed>0.020000</speed>
</trkpt>
<trkpt lat="55.704357" lon="26.086370">
<ele>165.584106</ele>
<time>2010-07-17T18:39:35Z</time>
<desc>lat.=55.704357, lon.=26.086370, Alt.=165.584106m. Speed=0.036000m/h.</desc>
<speed>0.010000</speed>
</trkpt>
<trkpt lat="55.704357" lon="26.086370">
<ele>165.584106</ele>
<time>2010-07-17T18:39:36Z</time>
<desc>lat.=55.704357, lon.=26.086370, Alt.=165.584106m. Speed=0.000000m/h.</desc>
<speed>0.000000</speed>
</trkpt>
<trkpt lat="55.704357" lon="26.086370">
<ele>165.588013</ele>
<time>2010-07-17T18:39:37Z</time>
<desc>lat.=55.704357, lon.=26.086370, Alt.=165.588013m. Speed=0.072000m/h.</desc>
<speed>0.020000</speed>
</trkpt>
<trkpt lat="55.704357" lon="26.086370">
<ele>165.584106</ele>
<time>2010-07-17T18:39:38Z</time>
<desc>lat.=55.704357, lon.=26.086370, Alt.=165.584106m. Speed=0.072000m/h.</desc>
<speed>0.020000</speed>
</trkpt>
<trkpt lat="55.704357" lon="26.086370">
<ele>165.580200</ele>
<time>2010-07-17T18:39:39Z</time>
<desc>lat.=55.704357, lon.=26.086370, Alt.=165.580200m. Speed=0.072000m/h.</desc>
<speed>0.020000</speed>
</trkpt>
<trkpt lat="55.704357" lon="26.086370">
<ele>165.572388</ele>
<time>2010-07-17T18:39:40Z</time>
<desc>lat.=55.704357, lon.=26.086370, Alt.=165.572388m. Speed=0.036000m/h.</desc>
<speed>0.010000</speed>
</trkpt>
<trkpt lat="55.704357" lon="26.086370">
<ele>165.572388</ele>
<time>2010-07-17T18:39:41Z</time>
<desc>lat.=55.704357, lon.=26.086370, Alt.=165.572388m. Speed=0.072000m/h.</desc>
<speed>0.020000</speed>
</trkpt>
<trkpt lat="55.704357" lon="26.086370">
<ele>165.560669</ele>
<time>2010-07-17T18:39:42Z</time>
<desc>lat.=55.704357, lon.=26.086370, Alt.=165.560669m. Speed=0.036000m/h.</desc>
<speed>0.010000</speed>
</trkpt>
<trkpt lat="55.704357" lon="26.086370">
<ele>165.560669</ele>
<time>2010-07-17T18:39:43Z</time>
<desc>lat.=55.704357, lon.=26.086370, Alt.=165.560669m. Speed=0.072000m/h.</desc>
<speed>0.020000</speed>
</trkpt>
<trkpt lat="55.704357" lon="26.086370">
<ele>165.552856</ele>
<time>2010-07-17T18:39:44Z</time>
<desc>lat.=55.704357, lon.=26.086370, Alt.=165.552856m. Speed=0.072000m/h.</desc>
<speed>0.020000</speed>
</trkpt>
<trkpt lat="55.704357" lon="26.086370">
<ele>165.545044</ele>
<time>2010-07-17T18:39:45Z</time>
<desc>lat.=55.704357, lon.=26.086370, Alt.=165.545044m. Speed=0.108000m/h.</desc>
<speed>0.030000</speed>
</trkpt>
<trkpt lat="55.704357" lon="26.086372">
<ele>165.533325</ele>
<time>2010-07-17T18:39:46Z</time>
<desc>lat.=55.704357, lon.=26.086372, Alt.=165.533325m. Speed=0.072000m/h.</desc>
<speed>0.020000</speed>
</trkpt>
<trkpt lat="55.704357" lon="26.086372">
<ele>165.517700</ele>
<time>2010-07-17T18:39:47Z</time>
<desc>lat.=55.704357, lon.=26.086372, Alt.=165.517700m. Speed=0.000000m/h.</desc>
<speed>0.000000</speed>
</trkpt>
<trkpt lat="55.704357" lon="26.086372">
<ele>165.502075</ele>
<time>2010-07-17T18:39:48Z</time>
<desc>lat.=55.704357, lon.=26.086372, Alt.=165.502075m. Speed=0.072000m/h.</desc>
<speed>0.020000</speed>
</trkpt>
<trkpt lat="55.704357" lon="26.086372">
<ele>165.490356</ele>
<time>2010-07-17T18:39:49Z</time>
<desc>lat.=55.704357, lon.=26.086372, Alt.=165.490356m. Speed=0.036000m/h.</desc>
<speed>0.010000</speed>
</trkpt>
<trkpt lat="55.704357" lon="26.086372">
<ele>165.474731</ele>
<time>2010-07-17T18:39:50Z</time>
<desc>lat.=55.704357, lon.=26.086372, Alt.=165.474731m. Speed=0.036000m/h.</desc>
<speed>0.010000</speed>
</trkpt>
<trkpt lat="55.704357" lon="26.086372">
<ele>165.470825</ele>
<time>2010-07-17T18:39:51Z</time>
<desc>lat.=55.704357, lon.=26.086372, Alt.=165.470825m. Speed=0.072000m/h.</desc>
<speed>0.020000</speed>
</trkpt>
<trkpt lat="55.704357" lon="26.086372">
<ele>165.463013</ele>
<time>2010-07-17T18:39:52Z</time>
<desc>lat.=55.704357, lon.=26.086372, Alt.=165.463013m. Speed=0.000000m/h.</desc>
<speed>0.000000</speed>
</trkpt>
<trkpt lat="55.704357" lon="26.086372">
<ele>165.463013</ele>
<time>2010-07-17T18:39:53Z</time>
<desc>lat.=55.704357, lon.=26.086372, Alt.=165.463013m. Speed=0.000000m/h.</desc>
<speed>0.000000</speed>
</trkpt>
<trkpt lat="55.704357" lon="26.086372">
<ele>165.459106</ele>
<time>2010-07-17T18:39:54Z</time>
<desc>lat.=55.704357, lon.=26.086372, Alt.=165.459106m. Speed=0.108000m/h.</desc>
<speed>0.030000</speed>
</trkpt>
<trkpt lat="55.704357" lon="26.086372">
<ele>165.447388</ele>
<time>2010-07-17T18:39:55Z</time>
<desc>lat.=55.704357, lon.=26.086372, Alt.=165.447388m. Speed=0.000000m/h.</desc>
<speed>0.000000</speed>
</trkpt>
<trkpt lat="55.704357" lon="26.086372">
<ele>165.431763</ele>
<time>2010-07-17T18:39:56Z</time>
<desc>lat.=55.704357, lon.=26.086372, Alt.=165.431763m. Speed=0.108000m/h.</desc>
<speed>0.030000</speed>
</trkpt>
<trkpt lat="55.704357" lon="26.086372">
<ele>165.423950</ele>
<time>2010-07-17T18:39:57Z</time>
<desc>lat.=55.704357, lon.=26.086372, Alt.=165.423950m. Speed=0.072000m/h.</desc>
<speed>0.020000</speed>
</trkpt>
<trkpt lat="55.704357" lon="26.086372">
<ele>165.423950</ele>
<time>2010-07-17T18:39:58Z</time>
<desc>lat.=55.704357, lon.=26.086372, Alt.=165.423950m. Speed=0.000000m/h.</desc>
<speed>0.000000</speed>
</trkpt>
<trkpt lat="55.704357" lon="26.086372">
<ele>165.416138</ele>
<time>2010-07-17T18:39:59Z</time>
<desc>lat.=55.704357, lon.=26.086372, Alt.=165.416138m. Speed=0.072000m/h.</desc>
<speed>0.020000</speed>
</trkpt>
<trkpt lat="55.704357" lon="26.086374">
<ele>165.404419</ele>
<time>2010-07-17T18:40:00Z</time>
<desc>lat.=55.704357, lon.=26.086374, Alt.=165.404419m. Speed=0.000000m/h.</desc>
<speed>0.000000</speed>
</trkpt>
<trkpt lat="55.704357" lon="26.086374">
<ele>165.388794</ele>
<time>2010-07-17T18:40:01Z</time>
<desc>lat.=55.704357, lon.=26.086374, Alt.=165.388794m. Speed=0.036000m/h.</desc>
<speed>0.010000</speed>
</trkpt>
<trkpt lat="55.704357" lon="26.086374">
<ele>165.377075</ele>
<time>2010-07-17T18:40:02Z</time>
<desc>lat.=55.704357, lon.=26.086374, Alt.=165.377075m. Speed=0.036000m/h.</desc>
<speed>0.010000</speed>
</trkpt>
<trkpt lat="55.704357" lon="26.086374">
<ele>165.373169</ele>
<time>2010-07-17T18:40:03Z</time>
<desc>lat.=55.704357, lon.=26.086374, Alt.=165.373169m. Speed=0.036000m/h.</desc>
<speed>0.010000</speed>
</trkpt>
<trkpt lat="55.704357" lon="26.086374">
<ele>165.361450</ele>
<time>2010-07-17T18:40:04Z</time>
<desc>lat.=55.704357, lon.=26.086374, Alt.=165.361450m. Speed=0.072000m/h.</desc>
<speed>0.020000</speed>
</trkpt>
<trkpt lat="55.704357" lon="26.086374">
<ele>165.341919</ele>
<time>2010-07-17T18:40:05Z</time>
<desc>lat.=55.704357, lon.=26.086374, Alt.=165.341919m. Speed=0.108000m/h.</desc>
<speed>0.030000</speed>
</trkpt>
<trkpt lat="55.704357" lon="26.086374">
<ele>165.330200</ele>
<time>2010-07-17T18:40:06Z</time>
<desc>lat.=55.704357, lon.=26.086374, Alt.=165.330200m. Speed=0.036000m/h.</desc>
<speed>0.010000</speed>
</trkpt>
<trkpt lat="55.704357" lon="26.086374">
<ele>165.314575</ele>
<time>2010-07-17T18:40:07Z</time>
<desc>lat.=55.704357, lon.=26.086374, Alt.=165.314575m. Speed=0.000000m/h.</desc>
<speed>0.000000</speed>
</trkpt>
<trkpt lat="55.704357" lon="26.086374">
<ele>165.310669</ele>
<time>2010-07-17T18:40:08Z</time>
<desc>lat.=55.704357, lon.=26.086374, Alt.=165.310669m. Speed=0.108000m/h.</desc>
<speed>0.030000</speed>
</trkpt>
<trkpt lat="55.704357" lon="26.086374">
<ele>165.302856</ele>
<time>2010-07-17T18:40:09Z</time>
<desc>lat.=55.704357, lon.=26.086374, Alt.=165.302856m. Speed=0.108000m/h.</desc>
<speed>0.030000</speed>
</trkpt>
<trkpt lat="55.704357" lon="26.086374">
<ele>165.291138</ele>
<time>2010-07-17T18:40:10Z</time>
<desc>lat.=55.704357, lon.=26.086374, Alt.=165.291138m. Speed=0.108000m/h.</desc>
<speed>0.030000</speed>
</trkpt>
<trkpt lat="55.704357" lon="26.086374">
<ele>165.283325</ele>
<time>2010-07-17T18:40:11Z</time>
<desc>lat.=55.704357, lon.=26.086374, Alt.=165.283325m. Speed=0.108000m/h.</desc>
<speed>0.030000</speed>
</trkpt>
<trkpt lat="55.704357" lon="26.086374">
<ele>165.271606</ele>
<time>2010-07-17T18:40:12Z</time>
<desc>lat.=55.704357, lon.=26.086374, Alt.=165.271606m. Speed=0.072000m/h.</desc>
<speed>0.020000</speed>
</trkpt>
<trkpt lat="55.704357" lon="26.086374">
<ele>165.263794</ele>
<time>2010-07-17T18:40:13Z</time>
<desc>lat.=55.704357, lon.=26.086374, Alt.=165.263794m. Speed=0.036000m/h.</desc>
<speed>0.010000</speed>
</trkpt>
<trkpt lat="55.704357" lon="26.086374">
<ele>165.252075</ele>
<time>2010-07-17T18:40:14Z</time>
<desc>lat.=55.704357, lon.=26.086374, Alt.=165.252075m. Speed=0.036000m/h.</desc>
<speed>0.010000</speed>
</trkpt>
<trkpt lat="55.704357" lon="26.086374">
<ele>165.240356</ele>
<time>2010-07-17T18:40:15Z</time>
<desc>lat.=55.704357, lon.=26.086374, Alt.=165.240356m. Speed=0.036000m/h.</desc>
<speed>0.010000</speed>
</trkpt>
<trkpt lat="55.704357" lon="26.086374">
<ele>165.236450</ele>
<time>2010-07-17T18:40:16Z</time>
<desc>lat.=55.704357, lon.=26.086374, Alt.=165.236450m. Speed=0.000000m/h.</desc>
<speed>0.000000</speed>
</trkpt>
<trkpt lat="55.704357" lon="26.086374">
<ele>165.232544</ele>
<time>2010-07-17T18:40:17Z</time>
<desc>lat.=55.704357, lon.=26.086374, Alt.=165.232544m. Speed=0.072000m/h.</desc>
<speed>0.020000</speed>
</trkpt>
<trkpt lat="55.704357" lon="26.086374">
<ele>165.228638</ele>
<time>2010-07-17T18:40:18Z</time>
<desc>lat.=55.704357, lon.=26.086374, Alt.=165.228638m. Speed=0.000000m/h.</desc>
<speed>0.000000</speed>
</trkpt>
<trkpt lat="55.704357" lon="26.086374">
<ele>165.216919</ele>
<time>2010-07-17T18:40:19Z</time>
<desc>lat.=55.704357, lon.=26.086374, Alt.=165.216919m. Speed=0.072000m/h.</desc>
<speed>0.020000</speed>
</trkpt>
<trkpt lat="55.704357" lon="26.086374">
<ele>165.209106</ele>
<time>2010-07-17T18:40:20Z</time>
<desc>lat.=55.704357, lon.=26.086374, Alt.=165.209106m. Speed=0.036000m/h.</desc>
<speed>0.010000</speed>
</trkpt>
<trkpt lat="55.704357" lon="26.086374">
<ele>165.209106</ele>
<time>2010-07-17T18:40:21Z</time>
<desc>lat.=55.704357, lon.=26.086374, Alt.=165.209106m. Speed=0.072000m/h.</desc>
<speed>0.020000</speed>
</trkpt>
<trkpt lat="55.704357" lon="26.086374">
<ele>165.201294</ele>
<time>2010-07-17T18:40:22Z</time>
<desc>lat.=55.704357, lon.=26.086374, Alt.=165.201294m. Speed=0.000000m/h.</desc>
<speed>0.000000</speed>
</trkpt>
<trkpt lat="55.704357" lon="26.086376">
<ele>165.197388</ele>
<time>2010-07-17T18:40:23Z</time>
<desc>lat.=55.704357, lon.=26.086376, Alt.=165.197388m. Speed=0.036000m/h.</desc>
<speed>0.010000</speed>
</trkpt>
<trkpt lat="55.704357" lon="26.086376">
<ele>165.189575</ele>
<time>2010-07-17T18:40:24Z</time>
<desc>lat.=55.704357, lon.=26.086376, Alt.=165.189575m. Speed=0.072000m/h.</desc>
<speed>0.020000</speed>
</trkpt>
<trkpt lat="55.704357" lon="26.086376">
<ele>165.185669</ele>
<time>2010-07-17T18:40:25Z</time>
<desc>lat.=55.704357, lon.=26.086376, Alt.=165.185669m. Speed=0.072000m/h.</desc>
<speed>0.020000</speed>
</trkpt>
<trkpt lat="55.704357" lon="26.086376">
<ele>165.185669</ele>
<time>2010-07-17T18:40:26Z</time>
<desc>lat.=55.704357, lon.=26.086376, Alt.=165.185669m. Speed=0.036000m/h.</desc>
<speed>0.010000</speed>
</trkpt>
<trkpt lat="55.704357" lon="26.086376">
<ele>165.181763</ele>
<time>2010-07-17T18:40:27Z</time>
<desc>lat.=55.704357, lon.=26.086376, Alt.=165.181763m. Speed=0.036000m/h.</desc>
<speed>0.010000</speed>
</trkpt>
<trkpt lat="55.704357" lon="26.086376">
<ele>165.177856</ele>
<time>2010-07-17T18:40:28Z</time>
<desc>lat.=55.704357, lon.=26.086376, Alt.=165.177856m. Speed=0.000000m/h.</desc>
<speed>0.000000</speed>
</trkpt>
<trkpt lat="55.704357" lon="26.086376">
<ele>165.170044</ele>
<time>2010-07-17T18:40:29Z</time>
<desc>lat.=55.704357, lon.=26.086376, Alt.=165.170044m. Speed=0.036000m/h.</desc>
<speed>0.010000</speed>
</trkpt>
<trkpt lat="55.704357" lon="26.086376">
<ele>165.170044</ele>
<time>2010-07-17T18:40:30Z</time>
<desc>lat.=55.704357, lon.=26.086376, Alt.=165.170044m. Speed=0.036000m/h.</desc>
<speed>0.010000</speed>
</trkpt>
<trkpt lat="55.704357" lon="26.086376">
<ele>165.166138</ele>
<time>2010-07-17T18:40:31Z</time>
<desc>lat.=55.704357, lon.=26.086376, Alt.=165.166138m. Speed=0.000000m/h.</desc>
<speed>0.000000</speed>
</trkpt>
<trkpt lat="55.704357" lon="26.086376">
<ele>165.162231</ele>
<time>2010-07-17T18:40:32Z</time>
<desc>lat.=55.704357, lon.=26.086376, Alt.=165.162231m. Speed=0.000000m/h.</desc>
<speed>0.000000</speed>
</trkpt>
<trkpt lat="55.704357" lon="26.086376">
<ele>165.154419</ele>
<time>2010-07-17T18:40:33Z</time>
<desc>lat.=55.704357, lon.=26.086376, Alt.=165.154419m. Speed=0.000000m/h.</desc>
<speed>0.000000</speed>
</trkpt>
<trkpt lat="55.704357" lon="26.086376">
<ele>165.150513</ele>
<time>2010-07-17T18:40:34Z</time>
<desc>lat.=55.704357, lon.=26.086376, Alt.=165.150513m. Speed=0.000000m/h.</desc>
<speed>0.000000</speed>
</trkpt>
<trkpt lat="55.704357" lon="26.086376">
<ele>165.146606</ele>
<time>2010-07-17T18:40:35Z</time>
<desc>lat.=55.704357, lon.=26.086376, Alt.=165.146606m. Speed=0.036000m/h.</desc>
<speed>0.010000</speed>
</trkpt>
<trkpt lat="55.704357" lon="26.086376">
<ele>165.142700</ele>
<time>2010-07-17T18:40:36Z</time>
<desc>lat.=55.704357, lon.=26.086376, Alt.=165.142700m. Speed=0.000000m/h.</desc>
<speed>0.000000</speed>
</trkpt>
<trkpt lat="55.704357" lon="26.086376">
<ele>165.142700</ele>
<time>2010-07-17T18:40:37Z</time>
<desc>lat.=55.704357, lon.=26.086376, Alt.=165.142700m. Speed=0.036000m/h.</desc>
<speed>0.010000</speed>
</trkpt>
<trkpt lat="55.704357" lon="26.086374">
<ele>165.138794</ele>
<time>2010-07-17T18:40:38Z</time>
<desc>lat.=55.704357, lon.=26.086374, Alt.=165.138794m. Speed=0.000000m/h.</desc>
<speed>0.000000</speed>
</trkpt>
<trkpt lat="55.704357" lon="26.086374">
<ele>165.138794</ele>
<time>2010-07-17T18:40:39Z</time>
<desc>lat.=55.704357, lon.=26.086374, Alt.=165.138794m. Speed=0.000000m/h.</desc>
<speed>0.000000</speed>
</trkpt>
<trkpt lat="55.704357" lon="26.086376">
<ele>165.134888</ele>
<time>2010-07-17T18:40:40Z</time>
<desc>lat.=55.704357, lon.=26.086376, Alt.=165.134888m. Speed=0.036000m/h.</desc>
<speed>0.010000</speed>
</trkpt>
<trkpt lat="55.704357" lon="26.086376">
<ele>165.134888</ele>
<time>2010-07-17T18:40:41Z</time>
<desc>lat.=55.704357, lon.=26.086376, Alt.=165.134888m. Speed=0.072000m/h.</desc>
<speed>0.020000</speed>
</trkpt>
<trkpt lat="55.704357" lon="26.086376">
<ele>165.130981</ele>
<time>2010-07-17T18:40:42Z</time>
<desc>lat.=55.704357, lon.=26.086376, Alt.=165.130981m. Speed=0.036000m/h.</desc>
<speed>0.010000</speed>
</trkpt>
<trkpt lat="55.704357" lon="26.086376">
<ele>165.134888</ele>
<time>2010-07-17T18:40:43Z</time>
<desc>lat.=55.704357, lon.=26.086376, Alt.=165.134888m. Speed=0.000000m/h.</desc>
<speed>0.000000</speed>
</trkpt>
<trkpt lat="55.704357" lon="26.086376">
<ele>165.127075</ele>
<time>2010-07-17T18:40:44Z</time>
<desc>lat.=55.704357, lon.=26.086376, Alt.=165.127075m. Speed=0.072000m/h.</desc>
<speed>0.020000</speed>
</trkpt>
<trkpt lat="55.704357" lon="26.086376">
<ele>165.119263</ele>
<time>2010-07-17T18:40:45Z</time>
<desc>lat.=55.704357, lon.=26.086376, Alt.=165.119263m. Speed=0.036000m/h.</desc>
<speed>0.010000</speed>
</trkpt>
<trkpt lat="55.704357" lon="26.086376">
<ele>165.115356</ele>
<time>2010-07-17T18:40:46Z</time>
<desc>lat.=55.704357, lon.=26.086376, Alt.=165.115356m. Speed=0.036000m/h.</desc>
<speed>0.010000</speed>
</trkpt>
<trkpt lat="55.704357" lon="26.086376">
<ele>165.115356</ele>
<time>2010-07-17T18:40:47Z</time>
<desc>lat.=55.704357, lon.=26.086376, Alt.=165.115356m. Speed=0.036000m/h.</desc>
<speed>0.010000</speed>
</trkpt>
<trkpt lat="55.704357" lon="26.086376">
<ele>165.111450</ele>
<time>2010-07-17T18:40:48Z</time>
<desc>lat.=55.704357, lon.=26.086376, Alt.=165.111450m. Speed=0.108000m/h.</desc>
<speed>0.030000</speed>
</trkpt>
<trkpt lat="55.704357" lon="26.086376">
<ele>165.103638</ele>
<time>2010-07-17T18:40:49Z</time>
<desc>lat.=55.704357, lon.=26.086376, Alt.=165.103638m. Speed=0.072000m/h.</desc>
<speed>0.020000</speed>
</trkpt>
<trkpt lat="55.704357" lon="26.086376">
<ele>165.099731</ele>
<time>2010-07-17T18:40:50Z</time>
<desc>lat.=55.704357, lon.=26.086376, Alt.=165.099731m. Speed=0.036000m/h.</desc>
<speed>0.010000</speed>
</trkpt>
<trkpt lat="55.704357" lon="26.086376">
<ele>165.095825</ele>
<time>2010-07-17T18:40:51Z</time>
<desc>lat.=55.704357, lon.=26.086376, Alt.=165.095825m. Speed=0.072000m/h.</desc>
<speed>0.020000</speed>
</trkpt>
<trkpt lat="55.704357" lon="26.086376">
<ele>165.088013</ele>
<time>2010-07-17T18:40:52Z</time>
<desc>lat.=55.704357, lon.=26.086376, Alt.=165.088013m. Speed=0.000000m/h.</desc>
<speed>0.000000</speed>
</trkpt>
<trkpt lat="55.704357" lon="26.086376">
<ele>165.084106</ele>
<time>2010-07-17T18:40:53Z</time>
<desc>lat.=55.704357, lon.=26.086376, Alt.=165.084106m. Speed=0.036000m/h.</desc>
<speed>0.010000</speed>
</trkpt>
<trkpt lat="55.704357" lon="26.086376">
<ele>165.076294</ele>
<time>2010-07-17T18:40:54Z</time>
<desc>lat.=55.704357, lon.=26.086376, Alt.=165.076294m. Speed=0.036000m/h.</desc>
<speed>0.010000</speed>
</trkpt>
<trkpt lat="55.704357" lon="26.086376">
<ele>165.072388</ele>
<time>2010-07-17T18:40:55Z</time>
<desc>lat.=55.704357, lon.=26.086376, Alt.=165.072388m. Speed=0.036000m/h.</desc>
<speed>0.010000</speed>
</trkpt>
<trkpt lat="55.704357" lon="26.086376">
<ele>165.064575</ele>
<time>2010-07-17T18:40:56Z</time>
<desc>lat.=55.704357, lon.=26.086376, Alt.=165.064575m. Speed=0.108000m/h.</desc>
<speed>0.030000</speed>
</trkpt>
<trkpt lat="55.704357" lon="26.086376">
<ele>165.056763</ele>
<time>2010-07-17T18:40:57Z</time>
<desc>lat.=55.704357, lon.=26.086376, Alt.=165.056763m. Speed=0.036000m/h.</desc>
<speed>0.010000</speed>
</trkpt>
<trkpt lat="55.704357" lon="26.086376">
<ele>165.048950</ele>
<time>2010-07-17T18:40:58Z</time>
<desc>lat.=55.704357, lon.=26.086376, Alt.=165.048950m. Speed=0.036000m/h.</desc>
<speed>0.010000</speed>
</trkpt>
<trkpt lat="55.704357" lon="26.086376">
<ele>165.045044</ele>
<time>2010-07-17T18:40:59Z</time>
<desc>lat.=55.704357, lon.=26.086376, Alt.=165.045044m. Speed=0.108000m/h.</desc>
<speed>0.030000</speed>
</trkpt>
<trkpt lat="55.704357" lon="26.086378">
<ele>165.037231</ele>
<time>2010-07-17T18:41:00Z</time>
<desc>lat.=55.704357, lon.=26.086378, Alt.=165.037231m. Speed=0.108000m/h.</desc>
<speed>0.030000</speed>
</trkpt>
<trkpt lat="55.704357" lon="26.086378">
<ele>165.029419</ele>
<time>2010-07-17T18:41:01Z</time>
<desc>lat.=55.704357, lon.=26.086378, Alt.=165.029419m. Speed=0.108000m/h.</desc>
<speed>0.030000</speed>
</trkpt>
<trkpt lat="55.704357" lon="26.086378">
<ele>165.025513</ele>
<time>2010-07-17T18:41:02Z</time>
<desc>lat.=55.704357, lon.=26.086378, Alt.=165.025513m. Speed=0.144000m/h.</desc>
<speed>0.040000</speed>
</trkpt>
<trkpt lat="55.704357" lon="26.086378">
<ele>165.009888</ele>
<time>2010-07-17T18:41:03Z</time>
<desc>lat.=55.704357, lon.=26.086378, Alt.=165.009888m. Speed=0.144000m/h.</desc>
<speed>0.040000</speed>
</trkpt>
<trkpt lat="55.704357" lon="26.086378">
<ele>165.002075</ele>
<time>2010-07-17T18:41:04Z</time>
<desc>lat.=55.704357, lon.=26.086378, Alt.=165.002075m. Speed=0.108000m/h.</desc>
<speed>0.030000</speed>
</trkpt>
<trkpt lat="55.704357" lon="26.086378">
<ele>164.994263</ele>
<time>2010-07-17T18:41:05Z</time>
<desc>lat.=55.704357, lon.=26.086378, Alt.=164.994263m. Speed=0.036000m/h.</desc>
<speed>0.010000</speed>
</trkpt>
<trkpt lat="55.704357" lon="26.086378">
<ele>164.986450</ele>
<time>2010-07-17T18:41:06Z</time>
<desc>lat.=55.704357, lon.=26.086378, Alt.=164.986450m. Speed=0.144000m/h.</desc>
<speed>0.040000</speed>
</trkpt>
<trkpt lat="55.704357" lon="26.086378">
<ele>164.982544</ele>
<time>2010-07-17T18:41:07Z</time>
<desc>lat.=55.704357, lon.=26.086378, Alt.=164.982544m. Speed=0.072000m/h.</desc>
<speed>0.020000</speed>
</trkpt>
<trkpt lat="55.704357" lon="26.086380">
<ele>164.966919</ele>
<time>2010-07-17T18:41:08Z</time>
<desc>lat.=55.704357, lon.=26.086380, Alt.=164.966919m. Speed=0.144000m/h.</desc>
<speed>0.040000</speed>
</trkpt>
<trkpt lat="55.704357" lon="26.086380">
<ele>164.959106</ele>
<time>2010-07-17T18:41:09Z</time>
<desc>lat.=55.704357, lon.=26.086380, Alt.=164.959106m. Speed=0.072000m/h.</desc>
<speed>0.020000</speed>
</trkpt>
<trkpt lat="55.704357" lon="26.086380">
<ele>164.951294</ele>
<time>2010-07-17T18:41:10Z</time>
<desc>lat.=55.704357, lon.=26.086380, Alt.=164.951294m. Speed=0.144000m/h.</desc>
<speed>0.040000</speed>
</trkpt>
<trkpt lat="55.704357" lon="26.086380">
<ele>164.947388</ele>
<time>2010-07-17T18:41:11Z</time>
<desc>lat.=55.704357, lon.=26.086380, Alt.=164.947388m. Speed=0.072000m/h.</desc>
<speed>0.020000</speed>
</trkpt>
<trkpt lat="55.704357" lon="26.086380">
<ele>164.947388</ele>
<time>2010-07-17T18:41:12Z</time>
<desc>lat.=55.704357, lon.=26.086380, Alt.=164.947388m. Speed=0.036000m/h.</desc>
<speed>0.010000</speed>
</trkpt>
<trkpt lat="55.704357" lon="26.086380">
<ele>164.943481</ele>
<time>2010-07-17T18:41:13Z</time>
<desc>lat.=55.704357, lon.=26.086380, Alt.=164.943481m. Speed=0.072000m/h.</desc>
<speed>0.020000</speed>
</trkpt>
<trkpt lat="55.704357" lon="26.086380">
<ele>164.943481</ele>
<time>2010-07-17T18:41:14Z</time>
<desc>lat.=55.704357, lon.=26.086380, Alt.=164.943481m. Speed=0.036000m/h.</desc>
<speed>0.010000</speed>
</trkpt>
<trkpt lat="55.704357" lon="26.086380">
<ele>164.939575</ele>
<time>2010-07-17T18:41:15Z</time>
<desc>lat.=55.704357, lon.=26.086380, Alt.=164.939575m. Speed=0.072000m/h.</desc>
<speed>0.020000</speed>
</trkpt>
<trkpt lat="55.704357" lon="26.086380">
<ele>164.931763</ele>
<time>2010-07-17T18:41:16Z</time>
<desc>lat.=55.704357, lon.=26.086380, Alt.=164.931763m. Speed=0.108000m/h.</desc>
<speed>0.030000</speed>
</trkpt>
<trkpt lat="55.704357" lon="26.086380">
<ele>164.923950</ele>
<time>2010-07-17T18:41:17Z</time>
<desc>lat.=55.704357, lon.=26.086380, Alt.=164.923950m. Speed=0.108000m/h.</desc>
<speed>0.030000</speed>
</trkpt>
<trkpt lat="55.704357" lon="26.086380">
<ele>164.916138</ele>
<time>2010-07-17T18:41:18Z</time>
<desc>lat.=55.704357, lon.=26.086380, Alt.=164.916138m. Speed=0.072000m/h.</desc>
<speed>0.020000</speed>
</trkpt>
<trkpt lat="55.704357" lon="26.086382">
<ele>164.912231</ele>
<time>2010-07-17T18:41:19Z</time>
<desc>lat.=55.704357, lon.=26.086382, Alt.=164.912231m. Speed=0.036000m/h.</desc>
<speed>0.010000</speed>
</trkpt>
<trkpt lat="55.704357" lon="26.086382">
<ele>164.904419</ele>
<time>2010-07-17T18:41:20Z</time>
<desc>lat.=55.704357, lon.=26.086382, Alt.=164.904419m. Speed=0.072000m/h.</desc>
<speed>0.020000</speed>
</trkpt>
<trkpt lat="55.704357" lon="26.086382">
<ele>164.896606</ele>
<time>2010-07-17T18:41:21Z</time>
<desc>lat.=55.704357, lon.=26.086382, Alt.=164.896606m. Speed=0.036000m/h.</desc>
<speed>0.010000</speed>
</trkpt>
<trkpt lat="55.704357" lon="26.086382">
<ele>164.892700</ele>
<time>2010-07-17T18:41:22Z</time>
<desc>lat.=55.704357, lon.=26.086382, Alt.=164.892700m. Speed=0.000000m/h.</desc>
<speed>0.000000</speed>
</trkpt>
<trkpt lat="55.704357" lon="26.086382">
<ele>164.888794</ele>
<time>2010-07-17T18:41:23Z</time>
<desc>lat.=55.704357, lon.=26.086382, Alt.=164.888794m. Speed=0.036000m/h.</desc>
<speed>0.010000</speed>
</trkpt>
<trkpt lat="55.704357" lon="26.086380">
<ele>164.888794</ele>
<time>2010-07-17T18:41:24Z</time>
<desc>lat.=55.704357, lon.=26.086380, Alt.=164.888794m. Speed=0.000000m/h.</desc>
<speed>0.000000</speed>
</trkpt>
<trkpt lat="55.704357" lon="26.086382">
<ele>164.888794</ele>
<time>2010-07-17T18:41:25Z</time>
<desc>lat.=55.704357, lon.=26.086382, Alt.=164.888794m. Speed=0.072000m/h.</desc>
<speed>0.020000</speed>
</trkpt>
<trkpt lat="55.704357" lon="26.086382">
<ele>164.888794</ele>
<time>2010-07-17T18:41:26Z</time>
<desc>lat.=55.704357, lon.=26.086382, Alt.=164.888794m. Speed=0.000000m/h.</desc>
<speed>0.000000</speed>
</trkpt>
<trkpt lat="55.704357" lon="26.086382">
<ele>164.880981</ele>
<time>2010-07-17T18:41:27Z</time>
<desc>lat.=55.704357, lon.=26.086382, Alt.=164.880981m. Speed=0.108000m/h.</desc>
<speed>0.030000</speed>
</trkpt>
<trkpt lat="55.704357" lon="26.086382">
<ele>164.877075</ele>
<time>2010-07-17T18:41:28Z</time>
<desc>lat.=55.704357, lon.=26.086382, Alt.=164.877075m. Speed=0.108000m/h.</desc>
<speed>0.030000</speed>
</trkpt>
<trkpt lat="55.704357" lon="26.086382">
<ele>164.869263</ele>
<time>2010-07-17T18:41:29Z</time>
<desc>lat.=55.704357, lon.=26.086382, Alt.=164.869263m. Speed=0.072000m/h.</desc>
<speed>0.020000</speed>
</trkpt>
<trkpt lat="55.704357" lon="26.086382">
<ele>164.869263</ele>
<time>2010-07-17T18:41:30Z</time>
<desc>lat.=55.704357, lon.=26.086382, Alt.=164.869263m. Speed=0.072000m/h.</desc>
<speed>0.020000</speed>
</trkpt>
<trkpt lat="55.704357" lon="26.086382">
<ele>164.869263</ele>
<time>2010-07-17T18:41:31Z</time>
<desc>lat.=55.704357, lon.=26.086382, Alt.=164.869263m. Speed=0.036000m/h.</desc>
<speed>0.010000</speed>
</trkpt>
<trkpt lat="55.704357" lon="26.086382">
<ele>164.865356</ele>
<time>2010-07-17T18:41:32Z</time>
<desc>lat.=55.704357, lon.=26.086382, Alt.=164.865356m. Speed=0.000000m/h.</desc>
<speed>0.000000</speed>
</trkpt>
<trkpt lat="55.704357" lon="26.086382">
<ele>164.853638</ele>
<time>2010-07-17T18:41:33Z</time>
<desc>lat.=55.704357, lon.=26.086382, Alt.=164.853638m. Speed=0.108000m/h.</desc>
<speed>0.030000</speed>
</trkpt>
<trkpt lat="55.704357" lon="26.086382">
<ele>164.849731</ele>
<time>2010-07-17T18:41:34Z</time>
<desc>lat.=55.704357, lon.=26.086382, Alt.=164.849731m. Speed=0.036000m/h.</desc>
<speed>0.010000</speed>
</trkpt>
<trkpt lat="55.704357" lon="26.086382">
<ele>164.841919</ele>
<time>2010-07-17T18:41:35Z</time>
<desc>lat.=55.704357, lon.=26.086382, Alt.=164.841919m. Speed=0.000000m/h.</desc>
<speed>0.000000</speed>
</trkpt>
<trkpt lat="55.704357" lon="26.086382">
<ele>164.838013</ele>
<time>2010-07-17T18:41:36Z</time>
<desc>lat.=55.704357, lon.=26.086382, Alt.=164.838013m. Speed=0.036000m/h.</desc>
<speed>0.010000</speed>
</trkpt>
<trkpt lat="55.704357" lon="26.086382">
<ele>164.830200</ele>
<time>2010-07-17T18:41:37Z</time>
<desc>lat.=55.704357, lon.=26.086382, Alt.=164.830200m. Speed=0.036000m/h.</desc>
<speed>0.010000</speed>
</trkpt>
<trkpt lat="55.704357" lon="26.086382">
<ele>164.830200</ele>
<time>2010-07-17T18:41:38Z</time>
<desc>lat.=55.704357, lon.=26.086382, Alt.=164.830200m. Speed=0.000000m/h.</desc>
<speed>0.000000</speed>
</trkpt>
<trkpt lat="55.704357" lon="26.086382">
<ele>164.826294</ele>
<time>2010-07-17T18:41:39Z</time>
<desc>lat.=55.704357, lon.=26.086382, Alt.=164.826294m. Speed=0.108000m/h.</desc>
<speed>0.030000</speed>
</trkpt>
<trkpt lat="55.704357" lon="26.086382">
<ele>164.822388</ele>
<time>2010-07-17T18:41:40Z</time>
<desc>lat.=55.704357, lon.=26.086382, Alt.=164.822388m. Speed=0.144000m/h.</desc>
<speed>0.040000</speed>
</trkpt>
<trkpt lat="55.704357" lon="26.086382">
<ele>164.814575</ele>
<time>2010-07-17T18:41:41Z</time>
<desc>lat.=55.704357, lon.=26.086382, Alt.=164.814575m. Speed=0.036000m/h.</desc>
<speed>0.010000</speed>
</trkpt>
<trkpt lat="55.704357" lon="26.086382">
<ele>164.806763</ele>
<time>2010-07-17T18:41:42Z</time>
<desc>lat.=55.704357, lon.=26.086382, Alt.=164.806763m. Speed=0.108000m/h.</desc>
<speed>0.030000</speed>
</trkpt>
<trkpt lat="55.704357" lon="26.086382">
<ele>164.798950</ele>
<time>2010-07-17T18:41:43Z</time>
<desc>lat.=55.704357, lon.=26.086382, Alt.=164.798950m. Speed=0.108000m/h.</desc>
<speed>0.030000</speed>
</trkpt>
<trkpt lat="55.704357" lon="26.086382">
<ele>164.795044</ele>
<time>2010-07-17T18:41:44Z</time>
<desc>lat.=55.704357, lon.=26.086382, Alt.=164.795044m. Speed=0.180000m/h.</desc>
<speed>0.050000</speed>
</trkpt>
<trkpt lat="55.704357" lon="26.086384">
<ele>164.787231</ele>
<time>2010-07-17T18:41:45Z</time>
<desc>lat.=55.704357, lon.=26.086384, Alt.=164.787231m. Speed=0.072000m/h.</desc>
<speed>0.020000</speed>
</trkpt>
<trkpt lat="55.704357" lon="26.086384">
<ele>164.783325</ele>
<time>2010-07-17T18:41:46Z</time>
<desc>lat.=55.704357, lon.=26.086384, Alt.=164.783325m. Speed=0.072000m/h.</desc>
<speed>0.020000</speed>
</trkpt>
<trkpt lat="55.704361" lon="26.086384">
<ele>164.783325</ele>
<time>2010-07-17T18:41:47Z</time>
<desc>lat.=55.704361, lon.=26.086384, Alt.=164.783325m. Speed=0.180000m/h.</desc>
<speed>0.050000</speed>
</trkpt>
<trkpt lat="55.704361" lon="26.086384">
<ele>164.779419</ele>
<time>2010-07-17T18:41:48Z</time>
<desc>lat.=55.704361, lon.=26.086384, Alt.=164.779419m. Speed=0.036000m/h.</desc>
<speed>0.010000</speed>
</trkpt>
<trkpt lat="55.704361" lon="26.086384">
<ele>164.771606</ele>
<time>2010-07-17T18:41:49Z</time>
<desc>lat.=55.704361, lon.=26.086384, Alt.=164.771606m. Speed=0.108000m/h.</desc>
<speed>0.030000</speed>
</trkpt>
<trkpt lat="55.704361" lon="26.086384">
<ele>164.767700</ele>
<time>2010-07-17T18:41:50Z</time>
<desc>lat.=55.704361, lon.=26.086384, Alt.=164.767700m. Speed=0.144000m/h.</desc>
<speed>0.040000</speed>
</trkpt>
<trkpt lat="55.704361" lon="26.086384">
<ele>164.763794</ele>
<time>2010-07-17T18:41:51Z</time>
<desc>lat.=55.704361, lon.=26.086384, Alt.=164.763794m. Speed=0.072000m/h.</desc>
<speed>0.020000</speed>
</trkpt>
<trkpt lat="55.704361" lon="26.086384">
<ele>164.759888</ele>
<time>2010-07-17T18:41:52Z</time>
<desc>lat.=55.704361, lon.=26.086384, Alt.=164.759888m. Speed=0.036000m/h.</desc>
<speed>0.010000</speed>
</trkpt>
<trkpt lat="55.704361" lon="26.086384">
<ele>164.755981</ele>
<time>2010-07-17T18:41:53Z</time>
<desc>lat.=55.704361, lon.=26.086384, Alt.=164.755981m. Speed=0.072000m/h.</desc>
<speed>0.020000</speed>
</trkpt>
<trkpt lat="55.704361" lon="26.086384">
<ele>164.759888</ele>
<time>2010-07-17T18:41:54Z</time>
<desc>lat.=55.704361, lon.=26.086384, Alt.=164.759888m. Speed=0.000000m/h.</desc>
<speed>0.000000</speed>
</trkpt>
<trkpt lat="55.704361" lon="26.086384">
<ele>164.752075</ele>
<time>2010-07-17T18:41:55Z</time>
<desc>lat.=55.704361, lon.=26.086384, Alt.=164.752075m. Speed=0.036000m/h.</desc>
<speed>0.010000</speed>
</trkpt>
<trkpt lat="55.704361" lon="26.086384">
<ele>164.752075</ele>
<time>2010-07-17T18:41:56Z</time>
<desc>lat.=55.704361, lon.=26.086384, Alt.=164.752075m. Speed=0.036000m/h.</desc>
<speed>0.010000</speed>
</trkpt>
<trkpt lat="55.704361" lon="26.086384">
<ele>164.752075</ele>
<time>2010-07-17T18:41:57Z</time>
<desc>lat.=55.704361, lon.=26.086384, Alt.=164.752075m. Speed=0.000000m/h.</desc>
<speed>0.000000</speed>
</trkpt>
<trkpt lat="55.704361" lon="26.086384">
<ele>164.748169</ele>
<time>2010-07-17T18:41:58Z</time>
<desc>lat.=55.704361, lon.=26.086384, Alt.=164.748169m. Speed=0.000000m/h.</desc>
<speed>0.000000</speed>
</trkpt>
<trkpt lat="55.704361" lon="26.086384">
<ele>164.748169</ele>
<time>2010-07-17T18:41:59Z</time>
<desc>lat.=55.704361, lon.=26.086384, Alt.=164.748169m. Speed=0.036000m/h.</desc>
<speed>0.010000</speed>
</trkpt>
<trkpt lat="55.704361" lon="26.086384">
<ele>164.736450</ele>
<time>2010-07-17T18:42:00Z</time>
<desc>lat.=55.704361, lon.=26.086384, Alt.=164.736450m. Speed=0.072000m/h.</desc>
<speed>0.020000</speed>
</trkpt>
<trkpt lat="55.704361" lon="26.086384">
<ele>164.728638</ele>
<time>2010-07-17T18:42:01Z</time>
<desc>lat.=55.704361, lon.=26.086384, Alt.=164.728638m. Speed=0.144000m/h.</desc>
<speed>0.040000</speed>
</trkpt>
<trkpt lat="55.704361" lon="26.086384">
<ele>164.720825</ele>
<time>2010-07-17T18:42:02Z</time>
<desc>lat.=55.704361, lon.=26.086384, Alt.=164.720825m. Speed=0.036000m/h.</desc>
<speed>0.010000</speed>
</trkpt>
<trkpt lat="55.704361" lon="26.086384">
<ele>164.713013</ele>
<time>2010-07-17T18:42:03Z</time>
<desc>lat.=55.704361, lon.=26.086384, Alt.=164.713013m. Speed=0.036000m/h.</desc>
<speed>0.010000</speed>
</trkpt>
<trkpt lat="55.704361" lon="26.086384">
<ele>164.701294</ele>
<time>2010-07-17T18:42:04Z</time>
<desc>lat.=55.704361, lon.=26.086384, Alt.=164.701294m. Speed=0.072000m/h.</desc>
<speed>0.020000</speed>
</trkpt>
<trkpt lat="55.704361" lon="26.086384">
<ele>164.689575</ele>
<time>2010-07-17T18:42:05Z</time>
<desc>lat.=55.704361, lon.=26.086384, Alt.=164.689575m. Speed=0.036000m/h.</desc>
<speed>0.010000</speed>
</trkpt>
<trkpt lat="55.704361" lon="26.086384">
<ele>164.681763</ele>
<time>2010-07-17T18:42:06Z</time>
<desc>lat.=55.704361, lon.=26.086384, Alt.=164.681763m. Speed=0.072000m/h.</desc>
<speed>0.020000</speed>
</trkpt>
<trkpt lat="55.704361" lon="26.086384">
<ele>164.670044</ele>
<time>2010-07-17T18:42:07Z</time>
<desc>lat.=55.704361, lon.=26.086384, Alt.=164.670044m. Speed=0.072000m/h.</desc>
<speed>0.020000</speed>
</trkpt>
<trkpt lat="55.704361" lon="26.086384">
<ele>164.662231</ele>
<time>2010-07-17T18:42:08Z</time>
<desc>lat.=55.704361, lon.=26.086384, Alt.=164.662231m. Speed=0.072000m/h.</desc>
<speed>0.020000</speed>
</trkpt>
<trkpt lat="55.704361" lon="26.086384">
<ele>164.654419</ele>
<time>2010-07-17T18:42:09Z</time>
<desc>lat.=55.704361, lon.=26.086384, Alt.=164.654419m. Speed=0.072000m/h.</desc>
<speed>0.020000</speed>
</trkpt>
<trkpt lat="55.704361" lon="26.086384">
<ele>164.646606</ele>
<time>2010-07-17T18:42:10Z</time>
<desc>lat.=55.704361, lon.=26.086384, Alt.=164.646606m. Speed=0.072000m/h.</desc>
<speed>0.020000</speed>
</trkpt>
<trkpt lat="55.704361" lon="26.086382">
<ele>164.634888</ele>
<time>2010-07-17T18:42:11Z</time>
<desc>lat.=55.704361, lon.=26.086382, Alt.=164.634888m. Speed=0.000000m/h.</desc>
<speed>0.000000</speed>
</trkpt>
<trkpt lat="55.704361" lon="26.086382">
<ele>164.630981</ele>
<time>2010-07-17T18:42:12Z</time>
<desc>lat.=55.704361, lon.=26.086382, Alt.=164.630981m. Speed=0.108000m/h.</desc>
<speed>0.030000</speed>
</trkpt>
<trkpt lat="55.704361" lon="26.086382">
<ele>164.630981</ele>
<time>2010-07-17T18:42:13Z</time>
<desc>lat.=55.704361, lon.=26.086382, Alt.=164.630981m. Speed=0.036000m/h.</desc>
<speed>0.010000</speed>
</trkpt>
<trkpt lat="55.704361" lon="26.086382">
<ele>164.619263</ele>
<time>2010-07-17T18:42:14Z</time>
<desc>lat.=55.704361, lon.=26.086382, Alt.=164.619263m. Speed=0.144000m/h.</desc>
<speed>0.040000</speed>
</trkpt>
<trkpt lat="55.704361" lon="26.086384">
<ele>164.615356</ele>
<time>2010-07-17T18:42:15Z</time>
<desc>lat.=55.704361, lon.=26.086384, Alt.=164.615356m. Speed=0.108000m/h.</desc>
<speed>0.030000</speed>
</trkpt>
<trkpt lat="55.704361" lon="26.086384">
<ele>164.603638</ele>
<time>2010-07-17T18:42:16Z</time>
<desc>lat.=55.704361, lon.=26.086384, Alt.=164.603638m. Speed=0.072000m/h.</desc>
<speed>0.020000</speed>
</trkpt>
<trkpt lat="55.704361" lon="26.086384">
<ele>164.599731</ele>
<time>2010-07-17T18:42:17Z</time>
<desc>lat.=55.704361, lon.=26.086384, Alt.=164.599731m. Speed=0.108000m/h.</desc>
<speed>0.030000</speed>
</trkpt>
<trkpt lat="55.704361" lon="26.086384">
<ele>164.591919</ele>
<time>2010-07-17T18:42:18Z</time>
<desc>lat.=55.704361, lon.=26.086384, Alt.=164.591919m. Speed=0.072000m/h.</desc>
<speed>0.020000</speed>
</trkpt>
<trkpt lat="55.704361" lon="26.086384">
<ele>164.588013</ele>
<time>2010-07-17T18:42:19Z</time>
<desc>lat.=55.704361, lon.=26.086384, Alt.=164.588013m. Speed=0.144000m/h.</desc>
<speed>0.040000</speed>
</trkpt>
<trkpt lat="55.704361" lon="26.086384">
<ele>164.588013</ele>
<time>2010-07-17T18:42:20Z</time>
<desc>lat.=55.704361, lon.=26.086384, Alt.=164.588013m. Speed=0.144000m/h.</desc>
<speed>0.040000</speed>
</trkpt>
<trkpt lat="55.704361" lon="26.086384">
<ele>164.584106</ele>
<time>2010-07-17T18:42:21Z</time>
<desc>lat.=55.704361, lon.=26.086384, Alt.=164.584106m. Speed=0.072000m/h.</desc>
<speed>0.020000</speed>
</trkpt>
<trkpt lat="55.704361" lon="26.086384">
<ele>164.580200</ele>
<time>2010-07-17T18:42:22Z</time>
<desc>lat.=55.704361, lon.=26.086384, Alt.=164.580200m. Speed=0.108000m/h.</desc>
<speed>0.030000</speed>
</trkpt>
<trkpt lat="55.704361" lon="26.086384">
<ele>164.576294</ele>
<time>2010-07-17T18:42:23Z</time>
<desc>lat.=55.704361, lon.=26.086384, Alt.=164.576294m. Speed=0.108000m/h.</desc>
<speed>0.030000</speed>
</trkpt>
<trkpt lat="55.704361" lon="26.086384">
<ele>164.576294</ele>
<time>2010-07-17T18:42:24Z</time>
<desc>lat.=55.704361, lon.=26.086384, Alt.=164.576294m. Speed=0.036000m/h.</desc>
<speed>0.010000</speed>
</trkpt>
<trkpt lat="55.704361" lon="26.086384">
<ele>164.584106</ele>
<time>2010-07-17T18:42:25Z</time>
<desc>lat.=55.704361, lon.=26.086384, Alt.=164.584106m. Speed=0.036000m/h.</desc>
<speed>0.010000</speed>
</trkpt>
<trkpt lat="55.704361" lon="26.086384">
<ele>164.588013</ele>
<time>2010-07-17T18:42:26Z</time>
<desc>lat.=55.704361, lon.=26.086384, Alt.=164.588013m. Speed=0.216000m/h.</desc>
<speed>0.060000</speed>
</trkpt>
<trkpt lat="55.704361" lon="26.086384">
<ele>164.584106</ele>
<time>2010-07-17T18:42:27Z</time>
<desc>lat.=55.704361, lon.=26.086384, Alt.=164.584106m. Speed=0.216000m/h.</desc>
<speed>0.060000</speed>
</trkpt>
<trkpt lat="55.704361" lon="26.086384">
<ele>164.580200</ele>
<time>2010-07-17T18:42:28Z</time>
<desc>lat.=55.704361, lon.=26.086384, Alt.=164.580200m. Speed=0.072000m/h.</desc>
<speed>0.020000</speed>
</trkpt>
<trkpt lat="55.704361" lon="26.086384">
<ele>164.584106</ele>
<time>2010-07-17T18:42:29Z</time>
<desc>lat.=55.704361, lon.=26.086384, Alt.=164.584106m. Speed=0.036000m/h.</desc>
<speed>0.010000</speed>
</trkpt>
<trkpt lat="55.704361" lon="26.086384">
<ele>164.591919</ele>
<time>2010-07-17T18:42:30Z</time>
<desc>lat.=55.704361, lon.=26.086384, Alt.=164.591919m. Speed=0.036000m/h.</desc>
<speed>0.010000</speed>
</trkpt>
<trkpt lat="55.704361" lon="26.086384">
<ele>164.588013</ele>
<time>2010-07-17T18:42:31Z</time>
<desc>lat.=55.704361, lon.=26.086384, Alt.=164.588013m. Speed=0.036000m/h.</desc>
<speed>0.010000</speed>
</trkpt>
<trkpt lat="55.704361" lon="26.086384">
<ele>164.580200</ele>
<time>2010-07-17T18:42:32Z</time>
<desc>lat.=55.704361, lon.=26.086384, Alt.=164.580200m. Speed=0.108000m/h.</desc>
<speed>0.030000</speed>
</trkpt>
<trkpt lat="55.704361" lon="26.086384">
<ele>164.576294</ele>
<time>2010-07-17T18:42:33Z</time>
<desc>lat.=55.704361, lon.=26.086384, Alt.=164.576294m. Speed=0.000000m/h.</desc>
<speed>0.000000</speed>
</trkpt>
<trkpt lat="55.704361" lon="26.086384">
<ele>164.568481</ele>
<time>2010-07-17T18:42:34Z</time>
<desc>lat.=55.704361, lon.=26.086384, Alt.=164.568481m. Speed=0.108000m/h.</desc>
<speed>0.030000</speed>
</trkpt>
<trkpt lat="55.704361" lon="26.086384">
<ele>164.568481</ele>
<time>2010-07-17T18:42:35Z</time>
<desc>lat.=55.704361, lon.=26.086384, Alt.=164.568481m. Speed=0.036000m/h.</desc>
<speed>0.010000</speed>
</trkpt>
<trkpt lat="55.704361" lon="26.086384">
<ele>164.568481</ele>
<time>2010-07-17T18:42:36Z</time>
<desc>lat.=55.704361, lon.=26.086384, Alt.=164.568481m. Speed=0.072000m/h.</desc>
<speed>0.020000</speed>
</trkpt>
<trkpt lat="55.704361" lon="26.086386">
<ele>164.568481</ele>
<time>2010-07-17T18:42:37Z</time>
<desc>lat.=55.704361, lon.=26.086386, Alt.=164.568481m. Speed=0.216000m/h.</desc>
<speed>0.060000</speed>
</trkpt>
<trkpt lat="55.704361" lon="26.086386">
<ele>164.572388</ele>
<time>2010-07-17T18:42:38Z</time>
<desc>lat.=55.704361, lon.=26.086386, Alt.=164.572388m. Speed=0.072000m/h.</desc>
<speed>0.020000</speed>
</trkpt>
<trkpt lat="55.704361" lon="26.086386">
<ele>164.564575</ele>
<time>2010-07-17T18:42:39Z</time>
<desc>lat.=55.704361, lon.=26.086386, Alt.=164.564575m. Speed=0.144000m/h.</desc>
<speed>0.040000</speed>
</trkpt>
<trkpt lat="55.704361" lon="26.086386">
<ele>164.560669</ele>
<time>2010-07-17T18:42:40Z</time>
<desc>lat.=55.704361, lon.=26.086386, Alt.=164.560669m. Speed=0.180000m/h.</desc>
<speed>0.050000</speed>
</trkpt>
<trkpt lat="55.704361" lon="26.086386">
<ele>164.556763</ele>
<time>2010-07-17T18:42:41Z</time>
<desc>lat.=55.704361, lon.=26.086386, Alt.=164.556763m. Speed=0.036000m/h.</desc>
<speed>0.010000</speed>
</trkpt>
<trkpt lat="55.704361" lon="26.086386">
<ele>164.556763</ele>
<time>2010-07-17T18:42:42Z</time>
<desc>lat.=55.704361, lon.=26.086386, Alt.=164.556763m. Speed=0.072000m/h.</desc>
<speed>0.020000</speed>
</trkpt>
<trkpt lat="55.704361" lon="26.086386">
<ele>164.556763</ele>
<time>2010-07-17T18:42:43Z</time>
<desc>lat.=55.704361, lon.=26.086386, Alt.=164.556763m. Speed=0.036000m/h.</desc>
<speed>0.010000</speed>
</trkpt>
<trkpt lat="55.704365" lon="26.086386">
<ele>164.560669</ele>
<time>2010-07-17T18:42:44Z</time>
<desc>lat.=55.704365, lon.=26.086386, Alt.=164.560669m. Speed=0.036000m/h.</desc>
<speed>0.010000</speed>
</trkpt>
<trkpt lat="55.704365" lon="26.086386">
<ele>164.568481</ele>
<time>2010-07-17T18:42:45Z</time>
<desc>lat.=55.704365, lon.=26.086386, Alt.=164.568481m. Speed=0.036000m/h.</desc>
<speed>0.010000</speed>
</trkpt>
<trkpt lat="55.704365" lon="26.086386">
<ele>164.564575</ele>
<time>2010-07-17T18:42:46Z</time>
<desc>lat.=55.704365, lon.=26.086386, Alt.=164.564575m. Speed=0.072000m/h.</desc>
<speed>0.020000</speed>
</trkpt>
<trkpt lat="55.704365" lon="26.086386">
<ele>164.568481</ele>
<time>2010-07-17T18:42:47Z</time>
<desc>lat.=55.704365, lon.=26.086386, Alt.=164.568481m. Speed=0.144000m/h.</desc>
<speed>0.040000</speed>
</trkpt>
<trkpt lat="55.704365" lon="26.086386">
<ele>164.568481</ele>
<time>2010-07-17T18:42:48Z</time>
<desc>lat.=55.704365, lon.=26.086386, Alt.=164.568481m. Speed=0.108000m/h.</desc>
<speed>0.030000</speed>
</trkpt>
<trkpt lat="55.704365" lon="26.086386">
<ele>164.564575</ele>
<time>2010-07-17T18:42:49Z</time>
<desc>lat.=55.704365, lon.=26.086386, Alt.=164.564575m. Speed=0.036000m/h.</desc>
<speed>0.010000</speed>
</trkpt>
<trkpt lat="55.704365" lon="26.086386">
<ele>164.560669</ele>
<time>2010-07-17T18:42:50Z</time>
<desc>lat.=55.704365, lon.=26.086386, Alt.=164.560669m. Speed=0.072000m/h.</desc>
<speed>0.020000</speed>
</trkpt>
<trkpt lat="55.704365" lon="26.086388">
<ele>164.560669</ele>
<time>2010-07-17T18:42:51Z</time>
<desc>lat.=55.704365, lon.=26.086388, Alt.=164.560669m. Speed=0.036000m/h.</desc>
<speed>0.010000</speed>
</trkpt>
<trkpt lat="55.704365" lon="26.086388">
<ele>164.556763</ele>
<time>2010-07-17T18:42:52Z</time>
<desc>lat.=55.704365, lon.=26.086388, Alt.=164.556763m. Speed=0.072000m/h.</desc>
<speed>0.020000</speed>
</trkpt>
<trkpt lat="55.704365" lon="26.086388">
<ele>164.556763</ele>
<time>2010-07-17T18:42:53Z</time>
<desc>lat.=55.704365, lon.=26.086388, Alt.=164.556763m. Speed=0.072000m/h.</desc>
<speed>0.020000</speed>
</trkpt>
<trkpt lat="55.704365" lon="26.086388">
<ele>164.556763</ele>
<time>2010-07-17T18:42:54Z</time>
<desc>lat.=55.704365, lon.=26.086388, Alt.=164.556763m. Speed=0.108000m/h.</desc>
<speed>0.030000</speed>
</trkpt>
<trkpt lat="55.704365" lon="26.086388">
<ele>164.556763</ele>
<time>2010-07-17T18:42:55Z</time>
<desc>lat.=55.704365, lon.=26.086388, Alt.=164.556763m. Speed=0.108000m/h.</desc>
<speed>0.030000</speed>
</trkpt>
<trkpt lat="55.704365" lon="26.086388">
<ele>164.552856</ele>
<time>2010-07-17T18:42:56Z</time>
<desc>lat.=55.704365, lon.=26.086388, Alt.=164.552856m. Speed=0.144000m/h.</desc>
<speed>0.040000</speed>
</trkpt>
<trkpt lat="55.704365" lon="26.086388">
<ele>164.548950</ele>
<time>2010-07-17T18:42:57Z</time>
<desc>lat.=55.704365, lon.=26.086388, Alt.=164.548950m. Speed=0.108000m/h.</desc>
<speed>0.030000</speed>
</trkpt>
<trkpt lat="55.704365" lon="26.086388">
<ele>164.548950</ele>
<time>2010-07-17T18:42:58Z</time>
<desc>lat.=55.704365, lon.=26.086388, Alt.=164.548950m. Speed=0.072000m/h.</desc>
<speed>0.020000</speed>
</trkpt>
<trkpt lat="55.704365" lon="26.086388">
<ele>164.548950</ele>
<time>2010-07-17T18:42:59Z</time>
<desc>lat.=55.704365, lon.=26.086388, Alt.=164.548950m. Speed=0.072000m/h.</desc>
<speed>0.020000</speed>
</trkpt>
<trkpt lat="55.704365" lon="26.086390">
<ele>164.545044</ele>
<time>2010-07-17T18:43:00Z</time>
<desc>lat.=55.704365, lon.=26.086390, Alt.=164.545044m. Speed=0.108000m/h.</desc>
<speed>0.030000</speed>
</trkpt>
<trkpt lat="55.704365" lon="26.086390">
<ele>164.545044</ele>
<time>2010-07-17T18:43:01Z</time>
<desc>lat.=55.704365, lon.=26.086390, Alt.=164.545044m. Speed=0.000000m/h.</desc>
<speed>0.000000</speed>
</trkpt>
<trkpt lat="55.704365" lon="26.086390">
<ele>164.545044</ele>
<time>2010-07-17T18:43:02Z</time>
<desc>lat.=55.704365, lon.=26.086390, Alt.=164.545044m. Speed=0.000000m/h.</desc>
<speed>0.000000</speed>
</trkpt>
<trkpt lat="55.704365" lon="26.086390">
<ele>164.545044</ele>
<time>2010-07-17T18:43:03Z</time>
<desc>lat.=55.704365, lon.=26.086390, Alt.=164.545044m. Speed=0.072000m/h.</desc>
<speed>0.020000</speed>
</trkpt>
<trkpt lat="55.704365" lon="26.086390">
<ele>164.545044</ele>
<time>2010-07-17T18:43:04Z</time>
<desc>lat.=55.704365, lon.=26.086390, Alt.=164.545044m. Speed=0.108000m/h.</desc>
<speed>0.030000</speed>
</trkpt>
<trkpt lat="55.704365" lon="26.086390">
<ele>164.545044</ele>
<time>2010-07-17T18:43:05Z</time>
<desc>lat.=55.704365, lon.=26.086390, Alt.=164.545044m. Speed=0.108000m/h.</desc>
<speed>0.030000</speed>
</trkpt>
<trkpt lat="55.704365" lon="26.086390">
<ele>164.537231</ele>
<time>2010-07-17T18:43:06Z</time>
<desc>lat.=55.704365, lon.=26.086390, Alt.=164.537231m. Speed=0.072000m/h.</desc>
<speed>0.020000</speed>
</trkpt>
<trkpt lat="55.704365" lon="26.086390">
<ele>164.537231</ele>
<time>2010-07-17T18:43:07Z</time>
<desc>lat.=55.704365, lon.=26.086390, Alt.=164.537231m. Speed=0.036000m/h.</desc>
<speed>0.010000</speed>
</trkpt>
<trkpt lat="55.704365" lon="26.086390">
<ele>164.537231</ele>
<time>2010-07-17T18:43:08Z</time>
<desc>lat.=55.704365, lon.=26.086390, Alt.=164.537231m. Speed=0.036000m/h.</desc>
<speed>0.010000</speed>
</trkpt>
<trkpt lat="55.704365" lon="26.086390">
<ele>164.541138</ele>
<time>2010-07-17T18:43:09Z</time>
<desc>lat.=55.704365, lon.=26.086390, Alt.=164.541138m. Speed=0.108000m/h.</desc>
<speed>0.030000</speed>
</trkpt>
<trkpt lat="55.704365" lon="26.086390">
<ele>164.545044</ele>
<time>2010-07-17T18:43:10Z</time>
<desc>lat.=55.704365, lon.=26.086390, Alt.=164.545044m. Speed=0.144000m/h.</desc>
<speed>0.040000</speed>
</trkpt>
<trkpt lat="55.704365" lon="26.086390">
<ele>164.545044</ele>
<time>2010-07-17T18:43:11Z</time>
<desc>lat.=55.704365, lon.=26.086390, Alt.=164.545044m. Speed=0.108000m/h.</desc>
<speed>0.030000</speed>
</trkpt>
<trkpt lat="55.704365" lon="26.086391">
<ele>164.545044</ele>
<time>2010-07-17T18:43:12Z</time>
<desc>lat.=55.704365, lon.=26.086391, Alt.=164.545044m. Speed=0.108000m/h.</desc>
<speed>0.030000</speed>
</trkpt>
<trkpt lat="55.704365" lon="26.086391">
<ele>164.545044</ele>
<time>2010-07-17T18:43:13Z</time>
<desc>lat.=55.704365, lon.=26.086391, Alt.=164.545044m. Speed=0.108000m/h.</desc>
<speed>0.030000</speed>
</trkpt>
<trkpt lat="55.704365" lon="26.086391">
<ele>164.537231</ele>
<time>2010-07-17T18:43:14Z</time>
<desc>lat.=55.704365, lon.=26.086391, Alt.=164.537231m. Speed=0.072000m/h.</desc>
<speed>0.020000</speed>
</trkpt>
<trkpt lat="55.704365" lon="26.086391">
<ele>164.541138</ele>
<time>2010-07-17T18:43:15Z</time>
<desc>lat.=55.704365, lon.=26.086391, Alt.=164.541138m. Speed=0.144000m/h.</desc>
<speed>0.040000</speed>
</trkpt>
<trkpt lat="55.704365" lon="26.086391">
<ele>164.541138</ele>
<time>2010-07-17T18:43:16Z</time>
<desc>lat.=55.704365, lon.=26.086391, Alt.=164.541138m. Speed=0.036000m/h.</desc>
<speed>0.010000</speed>
</trkpt>
<trkpt lat="55.704365" lon="26.086391">
<ele>164.541138</ele>
<time>2010-07-17T18:43:17Z</time>
<desc>lat.=55.704365, lon.=26.086391, Alt.=164.541138m. Speed=0.144000m/h.</desc>
<speed>0.040000</speed>
</trkpt>
<trkpt lat="55.704365" lon="26.086391">
<ele>164.537231</ele>
<time>2010-07-17T18:43:18Z</time>
<desc>lat.=55.704365, lon.=26.086391, Alt.=164.537231m. Speed=0.144000m/h.</desc>
<speed>0.040000</speed>
</trkpt>
<trkpt lat="55.704365" lon="26.086391">
<ele>164.533325</ele>
<time>2010-07-17T18:43:19Z</time>
<desc>lat.=55.704365, lon.=26.086391, Alt.=164.533325m. Speed=0.108000m/h.</desc>
<speed>0.030000</speed>
</trkpt>
<trkpt lat="55.704365" lon="26.086391">
<ele>164.529419</ele>
<time>2010-07-17T18:43:20Z</time>
<desc>lat.=55.704365, lon.=26.086391, Alt.=164.529419m. Speed=0.108000m/h.</desc>
<speed>0.030000</speed>
</trkpt>
<trkpt lat="55.704365" lon="26.086391">
<ele>164.529419</ele>
<time>2010-07-17T18:43:21Z</time>
<desc>lat.=55.704365, lon.=26.086391, Alt.=164.529419m. Speed=0.072000m/h.</desc>
<speed>0.020000</speed>
</trkpt>
<trkpt lat="55.704365" lon="26.086391">
<ele>164.525513</ele>
<time>2010-07-17T18:43:22Z</time>
<desc>lat.=55.704365, lon.=26.086391, Alt.=164.525513m. Speed=0.108000m/h.</desc>
<speed>0.030000</speed>
</trkpt>
<trkpt lat="55.704365" lon="26.086391">
<ele>164.525513</ele>
<time>2010-07-17T18:43:23Z</time>
<desc>lat.=55.704365, lon.=26.086391, Alt.=164.525513m. Speed=0.036000m/h.</desc>
<speed>0.010000</speed>
</trkpt>
<trkpt lat="55.704365" lon="26.086391">
<ele>164.521606</ele>
<time>2010-07-17T18:43:24Z</time>
<desc>lat.=55.704365, lon.=26.086391, Alt.=164.521606m. Speed=0.144000m/h.</desc>
<speed>0.040000</speed>
</trkpt>
<trkpt lat="55.704365" lon="26.086393">
<ele>164.521606</ele>
<time>2010-07-17T18:43:25Z</time>
<desc>lat.=55.704365, lon.=26.086393, Alt.=164.521606m. Speed=0.036000m/h.</desc>
<speed>0.010000</speed>
</trkpt>
<trkpt lat="55.704365" lon="26.086393">
<ele>164.521606</ele>
<time>2010-07-17T18:43:26Z</time>
<desc>lat.=55.704365, lon.=26.086393, Alt.=164.521606m. Speed=0.072000m/h.</desc>
<speed>0.020000</speed>
</trkpt>
<trkpt lat="55.704365" lon="26.086393">
<ele>164.521606</ele>
<time>2010-07-17T18:43:27Z</time>
<desc>lat.=55.704365, lon.=26.086393, Alt.=164.521606m. Speed=0.072000m/h.</desc>
<speed>0.020000</speed>
</trkpt>
<trkpt lat="55.704365" lon="26.086393">
<ele>164.521606</ele>
<time>2010-07-17T18:43:28Z</time>
<desc>lat.=55.704365, lon.=26.086393, Alt.=164.521606m. Speed=0.108000m/h.</desc>
<speed>0.030000</speed>
</trkpt>
<trkpt lat="55.704365" lon="26.086393">
<ele>164.513794</ele>
<time>2010-07-17T18:43:29Z</time>
<desc>lat.=55.704365, lon.=26.086393, Alt.=164.513794m. Speed=0.072000m/h.</desc>
<speed>0.020000</speed>
</trkpt>
<trkpt lat="55.704365" lon="26.086393">
<ele>164.513794</ele>
<time>2010-07-17T18:43:30Z</time>
<desc>lat.=55.704365, lon.=26.086393, Alt.=164.513794m. Speed=0.036000m/h.</desc>
<speed>0.010000</speed>
</trkpt>
<trkpt lat="55.704365" lon="26.086393">
<ele>164.517700</ele>
<time>2010-07-17T18:43:31Z</time>
<desc>lat.=55.704365, lon.=26.086393, Alt.=164.517700m. Speed=0.072000m/h.</desc>
<speed>0.020000</speed>
</trkpt>
<trkpt lat="55.704365" lon="26.086393">
<ele>164.521606</ele>
<time>2010-07-17T18:43:32Z</time>
<desc>lat.=55.704365, lon.=26.086393, Alt.=164.521606m. Speed=0.000000m/h.</desc>
<speed>0.000000</speed>
</trkpt>
<trkpt lat="55.704365" lon="26.086393">
<ele>164.525513</ele>
<time>2010-07-17T18:43:33Z</time>
<desc>lat.=55.704365, lon.=26.086393, Alt.=164.525513m. Speed=0.108000m/h.</desc>
<speed>0.030000</speed>
</trkpt>
<trkpt lat="55.704365" lon="26.086393">
<ele>164.533325</ele>
<time>2010-07-17T18:43:34Z</time>
<desc>lat.=55.704365, lon.=26.086393, Alt.=164.533325m. Speed=0.108000m/h.</desc>
<speed>0.030000</speed>
</trkpt>
<trkpt lat="55.704365" lon="26.086393">
<ele>164.533325</ele>
<time>2010-07-17T18:43:35Z</time>
<desc>lat.=55.704365, lon.=26.086393, Alt.=164.533325m. Speed=0.072000m/h.</desc>
<speed>0.020000</speed>
</trkpt>
<trkpt lat="55.704365" lon="26.086393">
<ele>164.537231</ele>
<time>2010-07-17T18:43:36Z</time>
<desc>lat.=55.704365, lon.=26.086393, Alt.=164.537231m. Speed=0.108000m/h.</desc>
<speed>0.030000</speed>
</trkpt>
<trkpt lat="55.704369" lon="26.086393">
<ele>164.545044</ele>
<time>2010-07-17T18:43:37Z</time>
<desc>lat.=55.704369, lon.=26.086393, Alt.=164.545044m. Speed=0.144000m/h.</desc>
<speed>0.040000</speed>
</trkpt>
<trkpt lat="55.704369" lon="26.086395">
<ele>164.548950</ele>
<time>2010-07-17T18:43:38Z</time>
<desc>lat.=55.704369, lon.=26.086395, Alt.=164.548950m. Speed=0.144000m/h.</desc>
<speed>0.040000</speed>
</trkpt>
<trkpt lat="55.704369" lon="26.086395">
<ele>164.548950</ele>
<time>2010-07-17T18:43:39Z</time>
<desc>lat.=55.704369, lon.=26.086395, Alt.=164.548950m. Speed=0.072000m/h.</desc>
<speed>0.020000</speed>
</trkpt>
<trkpt lat="55.704369" lon="26.086395">
<ele>164.545044</ele>
<time>2010-07-17T18:43:40Z</time>
<desc>lat.=55.704369, lon.=26.086395, Alt.=164.545044m. Speed=0.072000m/h.</desc>
<speed>0.020000</speed>
</trkpt>
<trkpt lat="55.704369" lon="26.086395">
<ele>164.548950</ele>
<time>2010-07-17T18:43:41Z</time>
<desc>lat.=55.704369, lon.=26.086395, Alt.=164.548950m. Speed=0.108000m/h.</desc>
<speed>0.030000</speed>
</trkpt>
<trkpt lat="55.704369" lon="26.086395">
<ele>164.548950</ele>
<time>2010-07-17T18:43:42Z</time>
<desc>lat.=55.704369, lon.=26.086395, Alt.=164.548950m. Speed=0.108000m/h.</desc>
<speed>0.030000</speed>
</trkpt>
<trkpt lat="55.704369" lon="26.086395">
<ele>164.545044</ele>
<time>2010-07-17T18:43:43Z</time>
<desc>lat.=55.704369, lon.=26.086395, Alt.=164.545044m. Speed=0.072000m/h.</desc>
<speed>0.020000</speed>
</trkpt>
<trkpt lat="55.704369" lon="26.086395">
<ele>164.545044</ele>
<time>2010-07-17T18:43:44Z</time>
<desc>lat.=55.704369, lon.=26.086395, Alt.=164.545044m. Speed=0.108000m/h.</desc>
<speed>0.030000</speed>
</trkpt>
<trkpt lat="55.704369" lon="26.086395">
<ele>164.541138</ele>
<time>2010-07-17T18:43:45Z</time>
<desc>lat.=55.704369, lon.=26.086395, Alt.=164.541138m. Speed=0.144000m/h.</desc>
<speed>0.040000</speed>
</trkpt>
<trkpt lat="55.704369" lon="26.086395">
<ele>164.541138</ele>
<time>2010-07-17T18:43:46Z</time>
<desc>lat.=55.704369, lon.=26.086395, Alt.=164.541138m. Speed=0.072000m/h.</desc>
<speed>0.020000</speed>
</trkpt>
<trkpt lat="55.704369" lon="26.086395">
<ele>164.548950</ele>
<time>2010-07-17T18:43:47Z</time>
<desc>lat.=55.704369, lon.=26.086395, Alt.=164.548950m. Speed=0.072000m/h.</desc>
<speed>0.020000</speed>
</trkpt>
<trkpt lat="55.704369" lon="26.086395">
<ele>164.552856</ele>
<time>2010-07-17T18:43:48Z</time>
<desc>lat.=55.704369, lon.=26.086395, Alt.=164.552856m. Speed=0.072000m/h.</desc>
<speed>0.020000</speed>
</trkpt>
<trkpt lat="55.704369" lon="26.086397">
<ele>164.556763</ele>
<time>2010-07-17T18:43:49Z</time>
<desc>lat.=55.704369, lon.=26.086397, Alt.=164.556763m. Speed=0.216000m/h.</desc>
<speed>0.060000</speed>
</trkpt>
<trkpt lat="55.704369" lon="26.086397">
<ele>164.552856</ele>
<time>2010-07-17T18:43:50Z</time>
<desc>lat.=55.704369, lon.=26.086397, Alt.=164.552856m. Speed=0.216000m/h.</desc>
<speed>0.060000</speed>
</trkpt>
<trkpt lat="55.704369" lon="26.086397">
<ele>164.552856</ele>
<time>2010-07-17T18:43:51Z</time>
<desc>lat.=55.704369, lon.=26.086397, Alt.=164.552856m. Speed=0.216000m/h.</desc>
<speed>0.060000</speed>
</trkpt>
<trkpt lat="55.704369" lon="26.086397">
<ele>164.548950</ele>
<time>2010-07-17T18:43:52Z</time>
<desc>lat.=55.704369, lon.=26.086397, Alt.=164.548950m. Speed=0.180000m/h.</desc>
<speed>0.050000</speed>
</trkpt>
<trkpt lat="55.704369" lon="26.086397">
<ele>164.548950</ele>
<time>2010-07-17T18:43:53Z</time>
<desc>lat.=55.704369, lon.=26.086397, Alt.=164.548950m. Speed=0.180000m/h.</desc>
<speed>0.050000</speed>
</trkpt>
<trkpt lat="55.704369" lon="26.086397">
<ele>164.545044</ele>
<time>2010-07-17T18:43:54Z</time>
<desc>lat.=55.704369, lon.=26.086397, Alt.=164.545044m. Speed=0.144000m/h.</desc>
<speed>0.040000</speed>
</trkpt>
<trkpt lat="55.704369" lon="26.086397">
<ele>164.541138</ele>
<time>2010-07-17T18:43:55Z</time>
<desc>lat.=55.704369, lon.=26.086397, Alt.=164.541138m. Speed=0.108000m/h.</desc>
<speed>0.030000</speed>
</trkpt>
<trkpt lat="55.704369" lon="26.086397">
<ele>164.537231</ele>
<time>2010-07-17T18:43:56Z</time>
<desc>lat.=55.704369, lon.=26.086397, Alt.=164.537231m. Speed=0.108000m/h.</desc>
<speed>0.030000</speed>
</trkpt>
<trkpt lat="55.704369" lon="26.086397">
<ele>164.537231</ele>
<time>2010-07-17T18:43:57Z</time>
<desc>lat.=55.704369, lon.=26.086397, Alt.=164.537231m. Speed=0.072000m/h.</desc>
<speed>0.020000</speed>
</trkpt>
<trkpt lat="55.704369" lon="26.086397">
<ele>164.541138</ele>
<time>2010-07-17T18:43:58Z</time>
<desc>lat.=55.704369, lon.=26.086397, Alt.=164.541138m. Speed=0.036000m/h.</desc>
<speed>0.010000</speed>
</trkpt>
<trkpt lat="55.704369" lon="26.086397">
<ele>164.541138</ele>
<time>2010-07-17T18:43:59Z</time>
<desc>lat.=55.704369, lon.=26.086397, Alt.=164.541138m. Speed=0.072000m/h.</desc>
<speed>0.020000</speed>
</trkpt>
<trkpt lat="55.704369" lon="26.086397">
<ele>164.545044</ele>
<time>2010-07-17T18:44:00Z</time>
<desc>lat.=55.704369, lon.=26.086397, Alt.=164.545044m. Speed=0.108000m/h.</desc>
<speed>0.030000</speed>
</trkpt>
<trkpt lat="55.704369" lon="26.086397">
<ele>164.545044</ele>
<time>2010-07-17T18:44:01Z</time>
<desc>lat.=55.704369, lon.=26.086397, Alt.=164.545044m. Speed=0.036000m/h.</desc>
<speed>0.010000</speed>
</trkpt>
<trkpt lat="55.704369" lon="26.086397">
<ele>164.545044</ele>
<time>2010-07-17T18:44:02Z</time>
<desc>lat.=55.704369, lon.=26.086397, Alt.=164.545044m. Speed=0.108000m/h.</desc>
<speed>0.030000</speed>
</trkpt>
<trkpt lat="55.704369" lon="26.086397">
<ele>164.548950</ele>
<time>2010-07-17T18:44:03Z</time>
<desc>lat.=55.704369, lon.=26.086397, Alt.=164.548950m. Speed=0.036000m/h.</desc>
<speed>0.010000</speed>
</trkpt>
<trkpt lat="55.704369" lon="26.086397">
<ele>164.548950</ele>
<time>2010-07-17T18:44:04Z</time>
<desc>lat.=55.704369, lon.=26.086397, Alt.=164.548950m. Speed=0.072000m/h.</desc>
<speed>0.020000</speed>
</trkpt>
<trkpt lat="55.704369" lon="26.086397">
<ele>164.548950</ele>
<time>2010-07-17T18:44:05Z</time>
<desc>lat.=55.704369, lon.=26.086397, Alt.=164.548950m. Speed=0.036000m/h.</desc>
<speed>0.010000</speed>
</trkpt>
<trkpt lat="55.704369" lon="26.086397">
<ele>164.552856</ele>
<time>2010-07-17T18:44:06Z</time>
<desc>lat.=55.704369, lon.=26.086397, Alt.=164.552856m. Speed=0.036000m/h.</desc>
<speed>0.010000</speed>
</trkpt>
<trkpt lat="55.704369" lon="26.086397">
<ele>164.552856</ele>
<time>2010-07-17T18:44:07Z</time>
<desc>lat.=55.704369, lon.=26.086397, Alt.=164.552856m. Speed=0.108000m/h.</desc>
<speed>0.030000</speed>
</trkpt>
<trkpt lat="55.704369" lon="26.086397">
<ele>164.552856</ele>
<time>2010-07-17T18:44:08Z</time>
<desc>lat.=55.704369, lon.=26.086397, Alt.=164.552856m. Speed=0.072000m/h.</desc>
<speed>0.020000</speed>
</trkpt>
<trkpt lat="55.704369" lon="26.086397">
<ele>164.552856</ele>
<time>2010-07-17T18:44:09Z</time>
<desc>lat.=55.704369, lon.=26.086397, Alt.=164.552856m. Speed=0.036000m/h.</desc>
<speed>0.010000</speed>
</trkpt>
<trkpt lat="55.704369" lon="26.086397">
<ele>164.548950</ele>
<time>2010-07-17T18:44:10Z</time>
<desc>lat.=55.704369, lon.=26.086397, Alt.=164.548950m. Speed=0.036000m/h.</desc>
<speed>0.010000</speed>
</trkpt>
<trkpt lat="55.704369" lon="26.086397">
<ele>164.552856</ele>
<time>2010-07-17T18:44:11Z</time>
<desc>lat.=55.704369, lon.=26.086397, Alt.=164.552856m. Speed=0.072000m/h.</desc>
<speed>0.020000</speed>
</trkpt>
<trkpt lat="55.704369" lon="26.086397">
<ele>164.552856</ele>
<time>2010-07-17T18:44:12Z</time>
<desc>lat.=55.704369, lon.=26.086397, Alt.=164.552856m. Speed=0.036000m/h.</desc>
<speed>0.010000</speed>
</trkpt>
<trkpt lat="55.704372" lon="26.086397">
<ele>164.556763</ele>
<time>2010-07-17T18:44:13Z</time>
<desc>lat.=55.704372, lon.=26.086397, Alt.=164.556763m. Speed=0.000000m/h.</desc>
<speed>0.000000</speed>
</trkpt>
<trkpt lat="55.704372" lon="26.086399">
<ele>164.556763</ele>
<time>2010-07-17T18:44:14Z</time>
<desc>lat.=55.704372, lon.=26.086399, Alt.=164.556763m. Speed=0.072000m/h.</desc>
<speed>0.020000</speed>
</trkpt>
<trkpt lat="55.704372" lon="26.086397">
<ele>164.552856</ele>
<time>2010-07-17T18:44:15Z</time>
<desc>lat.=55.704372, lon.=26.086397, Alt.=164.552856m. Speed=0.000000m/h.</desc>
<speed>0.000000</speed>
</trkpt>
<trkpt lat="55.704372" lon="26.086399">
<ele>164.548950</ele>
<time>2010-07-17T18:44:16Z</time>
<desc>lat.=55.704372, lon.=26.086399, Alt.=164.548950m. Speed=0.036000m/h.</desc>
<speed>0.010000</speed>
</trkpt>
<trkpt lat="55.704372" lon="26.086399">
<ele>164.548950</ele>
<time>2010-07-17T18:44:17Z</time>
<desc>lat.=55.704372, lon.=26.086399, Alt.=164.548950m. Speed=0.000000m/h.</desc>
<speed>0.000000</speed>
</trkpt>
<trkpt lat="55.704372" lon="26.086399">
<ele>164.545044</ele>
<time>2010-07-17T18:44:18Z</time>
<desc>lat.=55.704372, lon.=26.086399, Alt.=164.545044m. Speed=0.144000m/h.</desc>
<speed>0.040000</speed>
</trkpt>
<trkpt lat="55.704372" lon="26.086399">
<ele>164.545044</ele>
<time>2010-07-17T18:44:19Z</time>
<desc>lat.=55.704372, lon.=26.086399, Alt.=164.545044m. Speed=0.072000m/h.</desc>
<speed>0.020000</speed>
</trkpt>
<trkpt lat="55.704372" lon="26.086399">
<ele>164.545044</ele>
<time>2010-07-17T18:44:20Z</time>
<desc>lat.=55.704372, lon.=26.086399, Alt.=164.545044m. Speed=0.144000m/h.</desc>
<speed>0.040000</speed>
</trkpt>
<trkpt lat="55.704372" lon="26.086399">
<ele>164.545044</ele>
<time>2010-07-17T18:44:21Z</time>
<desc>lat.=55.704372, lon.=26.086399, Alt.=164.545044m. Speed=0.108000m/h.</desc>
<speed>0.030000</speed>
</trkpt>
<trkpt lat="55.704372" lon="26.086399">
<ele>164.541138</ele>
<time>2010-07-17T18:44:22Z</time>
<desc>lat.=55.704372, lon.=26.086399, Alt.=164.541138m. Speed=0.072000m/h.</desc>
<speed>0.020000</speed>
</trkpt>
<trkpt lat="55.704372" lon="26.086399">
<ele>164.545044</ele>
<time>2010-07-17T18:44:23Z</time>
<desc>lat.=55.704372, lon.=26.086399, Alt.=164.545044m. Speed=0.000000m/h.</desc>
<speed>0.000000</speed>
</trkpt>
<trkpt lat="55.704372" lon="26.086399">
<ele>164.541138</ele>
<time>2010-07-17T18:44:24Z</time>
<desc>lat.=55.704372, lon.=26.086399, Alt.=164.541138m. Speed=0.072000m/h.</desc>
<speed>0.020000</speed>
</trkpt>
<trkpt lat="55.704372" lon="26.086399">
<ele>164.537231</ele>
<time>2010-07-17T18:44:25Z</time>
<desc>lat.=55.704372, lon.=26.086399, Alt.=164.537231m. Speed=0.036000m/h.</desc>
<speed>0.010000</speed>
</trkpt>
<trkpt lat="55.704372" lon="26.086399">
<ele>164.541138</ele>
<time>2010-07-17T18:44:26Z</time>
<desc>lat.=55.704372, lon.=26.086399, Alt.=164.541138m. Speed=0.108000m/h.</desc>
<speed>0.030000</speed>
</trkpt>
<trkpt lat="55.704372" lon="26.086399">
<ele>164.545044</ele>
<time>2010-07-17T18:44:27Z</time>
<desc>lat.=55.704372, lon.=26.086399, Alt.=164.545044m. Speed=0.108000m/h.</desc>
<speed>0.030000</speed>
</trkpt>
<trkpt lat="55.704372" lon="26.086399">
<ele>164.541138</ele>
<time>2010-07-17T18:44:28Z</time>
<desc>lat.=55.704372, lon.=26.086399, Alt.=164.541138m. Speed=0.108000m/h.</desc>
<speed>0.030000</speed>
</trkpt>
<trkpt lat="55.704372" lon="26.086399">
<ele>164.545044</ele>
<time>2010-07-17T18:44:29Z</time>
<desc>lat.=55.704372, lon.=26.086399, Alt.=164.545044m. Speed=0.072000m/h.</desc>
<speed>0.020000</speed>
</trkpt>
<trkpt lat="55.704372" lon="26.086399">
<ele>164.552856</ele>
<time>2010-07-17T18:44:30Z</time>
<desc>lat.=55.704372, lon.=26.086399, Alt.=164.552856m. Speed=0.108000m/h.</desc>
<speed>0.030000</speed>
</trkpt>
<trkpt lat="55.704372" lon="26.086399">
<ele>164.548950</ele>
<time>2010-07-17T18:44:31Z</time>
<desc>lat.=55.704372, lon.=26.086399, Alt.=164.548950m. Speed=0.036000m/h.</desc>
<speed>0.010000</speed>
</trkpt>
<trkpt lat="55.704372" lon="26.086399">
<ele>164.556763</ele>
<time>2010-07-17T18:44:32Z</time>
<desc>lat.=55.704372, lon.=26.086399, Alt.=164.556763m. Speed=0.036000m/h.</desc>
<speed>0.010000</speed>
</trkpt>
<trkpt lat="55.704372" lon="26.086399">
<ele>164.564575</ele>
<time>2010-07-17T18:44:33Z</time>
<desc>lat.=55.704372, lon.=26.086399, Alt.=164.564575m. Speed=0.036000m/h.</desc>
<speed>0.010000</speed>
</trkpt>
<trkpt lat="55.704372" lon="26.086399">
<ele>164.572388</ele>
<time>2010-07-17T18:44:34Z</time>
<desc>lat.=55.704372, lon.=26.086399, Alt.=164.572388m. Speed=0.036000m/h.</desc>
<speed>0.010000</speed>
</trkpt>
<trkpt lat="55.704372" lon="26.086399">
<ele>164.580200</ele>
<time>2010-07-17T18:44:35Z</time>
<desc>lat.=55.704372, lon.=26.086399, Alt.=164.580200m. Speed=0.072000m/h.</desc>
<speed>0.020000</speed>
</trkpt>
<trkpt lat="55.704372" lon="26.086399">
<ele>164.591919</ele>
<time>2010-07-17T18:44:36Z</time>
<desc>lat.=55.704372, lon.=26.086399, Alt.=164.591919m. Speed=0.072000m/h.</desc>
<speed>0.020000</speed>
</trkpt>
<trkpt lat="55.704372" lon="26.086399">
<ele>164.595825</ele>
<time>2010-07-17T18:44:37Z</time>
<desc>lat.=55.704372, lon.=26.086399, Alt.=164.595825m. Speed=0.108000m/h.</desc>
<speed>0.030000</speed>
</trkpt>
<trkpt lat="55.704372" lon="26.086399">
<ele>164.603638</ele>
<time>2010-07-17T18:44:38Z</time>
<desc>lat.=55.704372, lon.=26.086399, Alt.=164.603638m. Speed=0.036000m/h.</desc>
<speed>0.010000</speed>
</trkpt>
<trkpt lat="55.704372" lon="26.086399">
<ele>164.603638</ele>
<time>2010-07-17T18:44:39Z</time>
<desc>lat.=55.704372, lon.=26.086399, Alt.=164.603638m. Speed=0.036000m/h.</desc>
<speed>0.010000</speed>
</trkpt>
<trkpt lat="55.704372" lon="26.086399">
<ele>164.607544</ele>
<time>2010-07-17T18:44:40Z</time>
<desc>lat.=55.704372, lon.=26.086399, Alt.=164.607544m. Speed=0.036000m/h.</desc>
<speed>0.010000</speed>
</trkpt>
<trkpt lat="55.704372" lon="26.086399">
<ele>164.619263</ele>
<time>2010-07-17T18:44:41Z</time>
<desc>lat.=55.704372, lon.=26.086399, Alt.=164.619263m. Speed=0.072000m/h.</desc>
<speed>0.020000</speed>
</trkpt>
<trkpt lat="55.704372" lon="26.086399">
<ele>164.619263</ele>
<time>2010-07-17T18:44:42Z</time>
<desc>lat.=55.704372, lon.=26.086399, Alt.=164.619263m. Speed=0.072000m/h.</desc>
<speed>0.020000</speed>
</trkpt>
<trkpt lat="55.704372" lon="26.086399">
<ele>164.623169</ele>
<time>2010-07-17T18:44:43Z</time>
<desc>lat.=55.704372, lon.=26.086399, Alt.=164.623169m. Speed=0.036000m/h.</desc>
<speed>0.010000</speed>
</trkpt>
<trkpt lat="55.704372" lon="26.086399">
<ele>164.630981</ele>
<time>2010-07-17T18:44:44Z</time>
<desc>lat.=55.704372, lon.=26.086399, Alt.=164.630981m. Speed=0.000000m/h.</desc>
<speed>0.000000</speed>
</trkpt>
<trkpt lat="55.704372" lon="26.086399">
<ele>164.634888</ele>
<time>2010-07-17T18:44:45Z</time>
<desc>lat.=55.704372, lon.=26.086399, Alt.=164.634888m. Speed=0.072000m/h.</desc>
<speed>0.020000</speed>
</trkpt>
<trkpt lat="55.704372" lon="26.086399">
<ele>164.638794</ele>
<time>2010-07-17T18:44:46Z</time>
<desc>lat.=55.704372, lon.=26.086399, Alt.=164.638794m. Speed=0.036000m/h.</desc>
<speed>0.010000</speed>
</trkpt>
<trkpt lat="55.704372" lon="26.086399">
<ele>164.642700</ele>
<time>2010-07-17T18:44:47Z</time>
<desc>lat.=55.704372, lon.=26.086399, Alt.=164.642700m. Speed=0.036000m/h.</desc>
<speed>0.010000</speed>
</trkpt>
<trkpt lat="55.704372" lon="26.086399">
<ele>164.642700</ele>
<time>2010-07-17T18:44:48Z</time>
<desc>lat.=55.704372, lon.=26.086399, Alt.=164.642700m. Speed=0.072000m/h.</desc>
<speed>0.020000</speed>
</trkpt>
<trkpt lat="55.704372" lon="26.086399">
<ele>164.638794</ele>
<time>2010-07-17T18:44:49Z</time>
<desc>lat.=55.704372, lon.=26.086399, Alt.=164.638794m. Speed=0.072000m/h.</desc>
<speed>0.020000</speed>
</trkpt>
<trkpt lat="55.704372" lon="26.086399">
<ele>164.638794</ele>
<time>2010-07-17T18:44:50Z</time>
<desc>lat.=55.704372, lon.=26.086399, Alt.=164.638794m. Speed=0.036000m/h.</desc>
<speed>0.010000</speed>
</trkpt>
<trkpt lat="55.704372" lon="26.086399">
<ele>164.642700</ele>
<time>2010-07-17T18:44:51Z</time>
<desc>lat.=55.704372, lon.=26.086399, Alt.=164.642700m. Speed=0.000000m/h.</desc>
<speed>0.000000</speed>
</trkpt>
<trkpt lat="55.704372" lon="26.086399">
<ele>164.646606</ele>
<time>2010-07-17T18:44:52Z</time>
<desc>lat.=55.704372, lon.=26.086399, Alt.=164.646606m. Speed=0.036000m/h.</desc>
<speed>0.010000</speed>
</trkpt>
<trkpt lat="55.704372" lon="26.086399">
<ele>164.646606</ele>
<time>2010-07-17T18:44:53Z</time>
<desc>lat.=55.704372, lon.=26.086399, Alt.=164.646606m. Speed=0.072000m/h.</desc>
<speed>0.020000</speed>
</trkpt>
<trkpt lat="55.704372" lon="26.086399">
<ele>164.646606</ele>
<time>2010-07-17T18:44:54Z</time>
<desc>lat.=55.704372, lon.=26.086399, Alt.=164.646606m. Speed=0.072000m/h.</desc>
<speed>0.020000</speed>
</trkpt>
<trkpt lat="55.704372" lon="26.086399">
<ele>164.642700</ele>
<time>2010-07-17T18:44:55Z</time>
<desc>lat.=55.704372, lon.=26.086399, Alt.=164.642700m. Speed=0.072000m/h.</desc>
<speed>0.020000</speed>
</trkpt>
<trkpt lat="55.704372" lon="26.086399">
<ele>164.642700</ele>
<time>2010-07-17T18:44:56Z</time>
<desc>lat.=55.704372, lon.=26.086399, Alt.=164.642700m. Speed=0.108000m/h.</desc>
<speed>0.030000</speed>
</trkpt>
<trkpt lat="55.704372" lon="26.086399">
<ele>164.650513</ele>
<time>2010-07-17T18:44:57Z</time>
<desc>lat.=55.704372, lon.=26.086399, Alt.=164.650513m. Speed=0.072000m/h.</desc>
<speed>0.020000</speed>
</trkpt>
<trkpt lat="55.704372" lon="26.086399">
<ele>164.650513</ele>
<time>2010-07-17T18:44:58Z</time>
<desc>lat.=55.704372, lon.=26.086399, Alt.=164.650513m. Speed=0.072000m/h.</desc>
<speed>0.020000</speed>
</trkpt>
<trkpt lat="55.704372" lon="26.086399">
<ele>164.658325</ele>
<time>2010-07-17T18:44:59Z</time>
<desc>lat.=55.704372, lon.=26.086399, Alt.=164.658325m. Speed=0.072000m/h.</desc>
<speed>0.020000</speed>
</trkpt>
<trkpt lat="55.704372" lon="26.086399">
<ele>164.662231</ele>
<time>2010-07-17T18:45:00Z</time>
<desc>lat.=55.704372, lon.=26.086399, Alt.=164.662231m. Speed=0.072000m/h.</desc>
<speed>0.020000</speed>
</trkpt>
<trkpt lat="55.704372" lon="26.086399">
<ele>164.658325</ele>
<time>2010-07-17T18:45:01Z</time>
<desc>lat.=55.704372, lon.=26.086399, Alt.=164.658325m. Speed=0.036000m/h.</desc>
<speed>0.010000</speed>
</trkpt>
<trkpt lat="55.704372" lon="26.086399">
<ele>164.666138</ele>
<time>2010-07-17T18:45:02Z</time>
<desc>lat.=55.704372, lon.=26.086399, Alt.=164.666138m. Speed=0.108000m/h.</desc>
<speed>0.030000</speed>
</trkpt>
<trkpt lat="55.704372" lon="26.086399">
<ele>164.677856</ele>
<time>2010-07-17T18:45:03Z</time>
<desc>lat.=55.704372, lon.=26.086399, Alt.=164.677856m. Speed=0.108000m/h.</desc>
<speed>0.030000</speed>
</trkpt>
<trkpt lat="55.704372" lon="26.086399">
<ele>164.677856</ele>
<time>2010-07-17T18:45:04Z</time>
<desc>lat.=55.704372, lon.=26.086399, Alt.=164.677856m. Speed=0.144000m/h.</desc>
<speed>0.040000</speed>
</trkpt>
<trkpt lat="55.704372" lon="26.086399">
<ele>164.681763</ele>
<time>2010-07-17T18:45:05Z</time>
<desc>lat.=55.704372, lon.=26.086399, Alt.=164.681763m. Speed=0.036000m/h.</desc>
<speed>0.010000</speed>
</trkpt>
<trkpt lat="55.704372" lon="26.086399">
<ele>164.685669</ele>
<time>2010-07-17T18:45:06Z</time>
<desc>lat.=55.704372, lon.=26.086399, Alt.=164.685669m. Speed=0.072000m/h.</desc>
<speed>0.020000</speed>
</trkpt>
<trkpt lat="55.704372" lon="26.086399">
<ele>164.685669</ele>
<time>2010-07-17T18:45:07Z</time>
<desc>lat.=55.704372, lon.=26.086399, Alt.=164.685669m. Speed=0.000000m/h.</desc>
<speed>0.000000</speed>
</trkpt>
<trkpt lat="55.704372" lon="26.086399">
<ele>164.693481</ele>
<time>2010-07-17T18:45:08Z</time>
<desc>lat.=55.704372, lon.=26.086399, Alt.=164.693481m. Speed=0.036000m/h.</desc>
<speed>0.010000</speed>
</trkpt>
<trkpt lat="55.704372" lon="26.086399">
<ele>164.693481</ele>
<time>2010-07-17T18:45:09Z</time>
<desc>lat.=55.704372, lon.=26.086399, Alt.=164.693481m. Speed=0.036000m/h.</desc>
<speed>0.010000</speed>
</trkpt>
<trkpt lat="55.704372" lon="26.086399">
<ele>164.685669</ele>
<time>2010-07-17T18:45:10Z</time>
<desc>lat.=55.704372, lon.=26.086399, Alt.=164.685669m. Speed=0.000000m/h.</desc>
<speed>0.000000</speed>
</trkpt>
<trkpt lat="55.704372" lon="26.086399">
<ele>164.685669</ele>
<time>2010-07-17T18:45:11Z</time>
<desc>lat.=55.704372, lon.=26.086399, Alt.=164.685669m. Speed=0.072000m/h.</desc>
<speed>0.020000</speed>
</trkpt>
<trkpt lat="55.704372" lon="26.086399">
<ele>164.681763</ele>
<time>2010-07-17T18:45:12Z</time>
<desc>lat.=55.704372, lon.=26.086399, Alt.=164.681763m. Speed=0.036000m/h.</desc>
<speed>0.010000</speed>
</trkpt>
<trkpt lat="55.704372" lon="26.086399">
<ele>164.673950</ele>
<time>2010-07-17T18:45:13Z</time>
<desc>lat.=55.704372, lon.=26.086399, Alt.=164.673950m. Speed=0.036000m/h.</desc>
<speed>0.010000</speed>
</trkpt>
<trkpt lat="55.704372" lon="26.086401">
<ele>164.673950</ele>
<time>2010-07-17T18:45:14Z</time>
<desc>lat.=55.704372, lon.=26.086401, Alt.=164.673950m. Speed=0.036000m/h.</desc>
<speed>0.010000</speed>
</trkpt>
<trkpt lat="55.704372" lon="26.086401">
<ele>164.681763</ele>
<time>2010-07-17T18:45:15Z</time>
<desc>lat.=55.704372, lon.=26.086401, Alt.=164.681763m. Speed=0.036000m/h.</desc>
<speed>0.010000</speed>
</trkpt>
<trkpt lat="55.704372" lon="26.086401">
<ele>164.677856</ele>
<time>2010-07-17T18:45:16Z</time>
<desc>lat.=55.704372, lon.=26.086401, Alt.=164.677856m. Speed=0.036000m/h.</desc>
<speed>0.010000</speed>
</trkpt>
<trkpt lat="55.704372" lon="26.086401">
<ele>164.677856</ele>
<time>2010-07-17T18:45:17Z</time>
<desc>lat.=55.704372, lon.=26.086401, Alt.=164.677856m. Speed=0.000000m/h.</desc>
<speed>0.000000</speed>
</trkpt>
<trkpt lat="55.704372" lon="26.086401">
<ele>164.673950</ele>
<time>2010-07-17T18:45:18Z</time>
<desc>lat.=55.704372, lon.=26.086401, Alt.=164.673950m. Speed=0.000000m/h.</desc>
<speed>0.000000</speed>
</trkpt>
<trkpt lat="55.704372" lon="26.086401">
<ele>164.670044</ele>
<time>2010-07-17T18:45:19Z</time>
<desc>lat.=55.704372, lon.=26.086401, Alt.=164.670044m. Speed=0.000000m/h.</desc>
<speed>0.000000</speed>
</trkpt>
<trkpt lat="55.704372" lon="26.086401">
<ele>164.662231</ele>
<time>2010-07-17T18:45:20Z</time>
<desc>lat.=55.704372, lon.=26.086401, Alt.=164.662231m. Speed=0.036000m/h.</desc>
<speed>0.010000</speed>
</trkpt>
<trkpt lat="55.704372" lon="26.086401">
<ele>164.662231</ele>
<time>2010-07-17T18:45:21Z</time>
<desc>lat.=55.704372, lon.=26.086401, Alt.=164.662231m. Speed=0.000000m/h.</desc>
<speed>0.000000</speed>
</trkpt>
<trkpt lat="55.704372" lon="26.086401">
<ele>164.662231</ele>
<time>2010-07-17T18:45:22Z</time>
<desc>lat.=55.704372, lon.=26.086401, Alt.=164.662231m. Speed=0.036000m/h.</desc>
<speed>0.010000</speed>
</trkpt>
<trkpt lat="55.704372" lon="26.086401">
<ele>164.662231</ele>
<time>2010-07-17T18:45:23Z</time>
<desc>lat.=55.704372, lon.=26.086401, Alt.=164.662231m. Speed=0.108000m/h.</desc>
<speed>0.030000</speed>
</trkpt>
<trkpt lat="55.704372" lon="26.086401">
<ele>164.662231</ele>
<time>2010-07-17T18:45:24Z</time>
<desc>lat.=55.704372, lon.=26.086401, Alt.=164.662231m. Speed=0.072000m/h.</desc>
<speed>0.020000</speed>
</trkpt>
<trkpt lat="55.704372" lon="26.086401">
<ele>164.662231</ele>
<time>2010-07-17T18:45:25Z</time>
<desc>lat.=55.704372, lon.=26.086401, Alt.=164.662231m. Speed=0.000000m/h.</desc>
<speed>0.000000</speed>
</trkpt>
<trkpt lat="55.704372" lon="26.086401">
<ele>164.662231</ele>
<time>2010-07-17T18:45:26Z</time>
<desc>lat.=55.704372, lon.=26.086401, Alt.=164.662231m. Speed=0.072000m/h.</desc>
<speed>0.020000</speed>
</trkpt>
<trkpt lat="55.704372" lon="26.086401">
<ele>164.658325</ele>
<time>2010-07-17T18:45:27Z</time>
<desc>lat.=55.704372, lon.=26.086401, Alt.=164.658325m. Speed=0.036000m/h.</desc>
<speed>0.010000</speed>
</trkpt>
<trkpt lat="55.704372" lon="26.086401">
<ele>164.658325</ele>
<time>2010-07-17T18:45:28Z</time>
<desc>lat.=55.704372, lon.=26.086401, Alt.=164.658325m. Speed=0.036000m/h.</desc>
<speed>0.010000</speed>
</trkpt>
<trkpt lat="55.704372" lon="26.086401">
<ele>164.658325</ele>
<time>2010-07-17T18:45:29Z</time>
<desc>lat.=55.704372, lon.=26.086401, Alt.=164.658325m. Speed=0.036000m/h.</desc>
<speed>0.010000</speed>
</trkpt>
<trkpt lat="55.704372" lon="26.086401">
<ele>164.650513</ele>
<time>2010-07-17T18:45:30Z</time>
<desc>lat.=55.704372, lon.=26.086401, Alt.=164.650513m. Speed=0.036000m/h.</desc>
<speed>0.010000</speed>
</trkpt>
<trkpt lat="55.704372" lon="26.086401">
<ele>164.646606</ele>
<time>2010-07-17T18:45:31Z</time>
<desc>lat.=55.704372, lon.=26.086401, Alt.=164.646606m. Speed=0.072000m/h.</desc>
<speed>0.020000</speed>
</trkpt>
<trkpt lat="55.704372" lon="26.086401">
<ele>164.638794</ele>
<time>2010-07-17T18:45:32Z</time>
<desc>lat.=55.704372, lon.=26.086401, Alt.=164.638794m. Speed=0.036000m/h.</desc>
<speed>0.010000</speed>
</trkpt>
<trkpt lat="55.704372" lon="26.086401">
<ele>164.634888</ele>
<time>2010-07-17T18:45:33Z</time>
<desc>lat.=55.704372, lon.=26.086401, Alt.=164.634888m. Speed=0.036000m/h.</desc>
<speed>0.010000</speed>
</trkpt>
<trkpt lat="55.704372" lon="26.086401">
<ele>164.630981</ele>
<time>2010-07-17T18:45:34Z</time>
<desc>lat.=55.704372, lon.=26.086401, Alt.=164.630981m. Speed=0.000000m/h.</desc>
<speed>0.000000</speed>
</trkpt>
<trkpt lat="55.704372" lon="26.086401">
<ele>164.623169</ele>
<time>2010-07-17T18:45:35Z</time>
<desc>lat.=55.704372, lon.=26.086401, Alt.=164.623169m. Speed=0.036000m/h.</desc>
<speed>0.010000</speed>
</trkpt>
<trkpt lat="55.704372" lon="26.086401">
<ele>164.619263</ele>
<time>2010-07-17T18:45:36Z</time>
<desc>lat.=55.704372, lon.=26.086401, Alt.=164.619263m. Speed=0.036000m/h.</desc>
<speed>0.010000</speed>
</trkpt>
<trkpt lat="55.704372" lon="26.086401">
<ele>164.615356</ele>
<time>2010-07-17T18:45:37Z</time>
<desc>lat.=55.704372, lon.=26.086401, Alt.=164.615356m. Speed=0.000000m/h.</desc>
<speed>0.000000</speed>
</trkpt>
<trkpt lat="55.704372" lon="26.086399">
<ele>164.615356</ele>
<time>2010-07-17T18:45:38Z</time>
<desc>lat.=55.704372, lon.=26.086399, Alt.=164.615356m. Speed=0.000000m/h.</desc>
<speed>0.000000</speed>
</trkpt>
<trkpt lat="55.704372" lon="26.086399">
<ele>164.611450</ele>
<time>2010-07-17T18:45:39Z</time>
<desc>lat.=55.704372, lon.=26.086399, Alt.=164.611450m. Speed=0.036000m/h.</desc>
<speed>0.010000</speed>
</trkpt>
<trkpt lat="55.704372" lon="26.086399">
<ele>164.603638</ele>
<time>2010-07-17T18:45:40Z</time>
<desc>lat.=55.704372, lon.=26.086399, Alt.=164.603638m. Speed=0.036000m/h.</desc>
<speed>0.010000</speed>
</trkpt>
<trkpt lat="55.704372" lon="26.086399">
<ele>164.599731</ele>
<time>2010-07-17T18:45:41Z</time>
<desc>lat.=55.704372, lon.=26.086399, Alt.=164.599731m. Speed=0.036000m/h.</desc>
<speed>0.010000</speed>
</trkpt>
<trkpt lat="55.704372" lon="26.086399">
<ele>164.595825</ele>
<time>2010-07-17T18:45:42Z</time>
<desc>lat.=55.704372, lon.=26.086399, Alt.=164.595825m. Speed=0.144000m/h.</desc>
<speed>0.040000</speed>
</trkpt>
<trkpt lat="55.704372" lon="26.086399">
<ele>164.591919</ele>
<time>2010-07-17T18:45:43Z</time>
<desc>lat.=55.704372, lon.=26.086399, Alt.=164.591919m. Speed=0.108000m/h.</desc>
<speed>0.030000</speed>
</trkpt>
<trkpt lat="55.704372" lon="26.086399">
<ele>164.595825</ele>
<time>2010-07-17T18:45:44Z</time>
<desc>lat.=55.704372, lon.=26.086399, Alt.=164.595825m. Speed=0.036000m/h.</desc>
<speed>0.010000</speed>
</trkpt>
<trkpt lat="55.704372" lon="26.086399">
<ele>164.588013</ele>
<time>2010-07-17T18:45:45Z</time>
<desc>lat.=55.704372, lon.=26.086399, Alt.=164.588013m. Speed=0.108000m/h.</desc>
<speed>0.030000</speed>
</trkpt>
<trkpt lat="55.704372" lon="26.086399">
<ele>164.580200</ele>
<time>2010-07-17T18:45:46Z</time>
<desc>lat.=55.704372, lon.=26.086399, Alt.=164.580200m. Speed=0.108000m/h.</desc>
<speed>0.030000</speed>
</trkpt>
<trkpt lat="55.704372" lon="26.086399">
<ele>164.580200</ele>
<time>2010-07-17T18:45:47Z</time>
<desc>lat.=55.704372, lon.=26.086399, Alt.=164.580200m. Speed=0.108000m/h.</desc>
<speed>0.030000</speed>
</trkpt>
<trkpt lat="55.704372" lon="26.086399">
<ele>164.576294</ele>
<time>2010-07-17T18:45:48Z</time>
<desc>lat.=55.704372, lon.=26.086399, Alt.=164.576294m. Speed=0.036000m/h.</desc>
<speed>0.010000</speed>
</trkpt>
<trkpt lat="55.704372" lon="26.086399">
<ele>164.572388</ele>
<time>2010-07-17T18:45:49Z</time>
<desc>lat.=55.704372, lon.=26.086399, Alt.=164.572388m. Speed=0.036000m/h.</desc>
<speed>0.010000</speed>
</trkpt>
<trkpt lat="55.704372" lon="26.086399">
<ele>164.568481</ele>
<time>2010-07-17T18:45:50Z</time>
<desc>lat.=55.704372, lon.=26.086399, Alt.=164.568481m. Speed=0.144000m/h.</desc>
<speed>0.040000</speed>
</trkpt>
<trkpt lat="55.704372" lon="26.086397">
<ele>164.564575</ele>
<time>2010-07-17T18:45:51Z</time>
<desc>lat.=55.704372, lon.=26.086397, Alt.=164.564575m. Speed=0.180000m/h.</desc>
<speed>0.050000</speed>
</trkpt>
<trkpt lat="55.704372" lon="26.086397">
<ele>164.556763</ele>
<time>2010-07-17T18:45:52Z</time>
<desc>lat.=55.704372, lon.=26.086397, Alt.=164.556763m. Speed=0.108000m/h.</desc>
<speed>0.030000</speed>
</trkpt>
<trkpt lat="55.704372" lon="26.086397">
<ele>164.556763</ele>
<time>2010-07-17T18:45:53Z</time>
<desc>lat.=55.704372, lon.=26.086397, Alt.=164.556763m. Speed=0.108000m/h.</desc>
<speed>0.030000</speed>
</trkpt>
<trkpt lat="55.704372" lon="26.086397">
<ele>164.556763</ele>
<time>2010-07-17T18:45:54Z</time>
<desc>lat.=55.704372, lon.=26.086397, Alt.=164.556763m. Speed=0.072000m/h.</desc>
<speed>0.020000</speed>
</trkpt>
<trkpt lat="55.704372" lon="26.086397">
<ele>164.552856</ele>
<time>2010-07-17T18:45:55Z</time>
<desc>lat.=55.704372, lon.=26.086397, Alt.=164.552856m. Speed=0.072000m/h.</desc>
<speed>0.020000</speed>
</trkpt>
<trkpt lat="55.704372" lon="26.086397">
<ele>164.548950</ele>
<time>2010-07-17T18:45:56Z</time>
<desc>lat.=55.704372, lon.=26.086397, Alt.=164.548950m. Speed=0.036000m/h.</desc>
<speed>0.010000</speed>
</trkpt>
<trkpt lat="55.704372" lon="26.086397">
<ele>164.537231</ele>
<time>2010-07-17T18:45:57Z</time>
<desc>lat.=55.704372, lon.=26.086397, Alt.=164.537231m. Speed=0.036000m/h.</desc>
<speed>0.010000</speed>
</trkpt>
<trkpt lat="55.704372" lon="26.086397">
<ele>164.529419</ele>
<time>2010-07-17T18:45:58Z</time>
<desc>lat.=55.704372, lon.=26.086397, Alt.=164.529419m. Speed=0.036000m/h.</desc>
<speed>0.010000</speed>
</trkpt>
<trkpt lat="55.704372" lon="26.086397">
<ele>164.517700</ele>
<time>2010-07-17T18:45:59Z</time>
<desc>lat.=55.704372, lon.=26.086397, Alt.=164.517700m. Speed=0.072000m/h.</desc>
<speed>0.020000</speed>
</trkpt>
<trkpt lat="55.704372" lon="26.086397">
<ele>164.513794</ele>
<time>2010-07-17T18:46:00Z</time>
<desc>lat.=55.704372, lon.=26.086397, Alt.=164.513794m. Speed=0.036000m/h.</desc>
<speed>0.010000</speed>
</trkpt>
<trkpt lat="55.704372" lon="26.086397">
<ele>164.502075</ele>
<time>2010-07-17T18:46:01Z</time>
<desc>lat.=55.704372, lon.=26.086397, Alt.=164.502075m. Speed=0.036000m/h.</desc>
<speed>0.010000</speed>
</trkpt>
<trkpt lat="55.704372" lon="26.086397">
<ele>164.498169</ele>
<time>2010-07-17T18:46:02Z</time>
<desc>lat.=55.704372, lon.=26.086397, Alt.=164.498169m. Speed=0.072000m/h.</desc>
<speed>0.020000</speed>
</trkpt>
<trkpt lat="55.704372" lon="26.086397">
<ele>164.486450</ele>
<time>2010-07-17T18:46:03Z</time>
<desc>lat.=55.704372, lon.=26.086397, Alt.=164.486450m. Speed=0.108000m/h.</desc>
<speed>0.030000</speed>
</trkpt>
<trkpt lat="55.704372" lon="26.086397">
<ele>164.470825</ele>
<time>2010-07-17T18:46:04Z</time>
<desc>lat.=55.704372, lon.=26.086397, Alt.=164.470825m. Speed=0.072000m/h.</desc>
<speed>0.020000</speed>
</trkpt>
<trkpt lat="55.704372" lon="26.086397">
<ele>164.463013</ele>
<time>2010-07-17T18:46:05Z</time>
<desc>lat.=55.704372, lon.=26.086397, Alt.=164.463013m. Speed=0.000000m/h.</desc>
<speed>0.000000</speed>
</trkpt>
<trkpt lat="55.704372" lon="26.086397">
<ele>164.463013</ele>
<time>2010-07-17T18:46:06Z</time>
<desc>lat.=55.704372, lon.=26.086397, Alt.=164.463013m. Speed=0.036000m/h.</desc>
<speed>0.010000</speed>
</trkpt>
<trkpt lat="55.704372" lon="26.086397">
<ele>164.459106</ele>
<time>2010-07-17T18:46:07Z</time>
<desc>lat.=55.704372, lon.=26.086397, Alt.=164.459106m. Speed=0.072000m/h.</desc>
<speed>0.020000</speed>
</trkpt>
<trkpt lat="55.704372" lon="26.086399">
<ele>164.451294</ele>
<time>2010-07-17T18:46:08Z</time>
<desc>lat.=55.704372, lon.=26.086399, Alt.=164.451294m. Speed=0.072000m/h.</desc>
<speed>0.020000</speed>
</trkpt>
<trkpt lat="55.704372" lon="26.086399">
<ele>164.447388</ele>
<time>2010-07-17T18:46:09Z</time>
<desc>lat.=55.704372, lon.=26.086399, Alt.=164.447388m. Speed=0.108000m/h.</desc>
<speed>0.030000</speed>
</trkpt>
<trkpt lat="55.704372" lon="26.086399">
<ele>164.439575</ele>
<time>2010-07-17T18:46:10Z</time>
<desc>lat.=55.704372, lon.=26.086399, Alt.=164.439575m. Speed=0.180000m/h.</desc>
<speed>0.050000</speed>
</trkpt>
<trkpt lat="55.704372" lon="26.086399">
<ele>164.431763</ele>
<time>2010-07-17T18:46:11Z</time>
<desc>lat.=55.704372, lon.=26.086399, Alt.=164.431763m. Speed=0.072000m/h.</desc>
<speed>0.020000</speed>
</trkpt>
<trkpt lat="55.704372" lon="26.086399">
<ele>164.427856</ele>
<time>2010-07-17T18:46:12Z</time>
<desc>lat.=55.704372, lon.=26.086399, Alt.=164.427856m. Speed=0.036000m/h.</desc>
<speed>0.010000</speed>
</trkpt>
<trkpt lat="55.704372" lon="26.086399">
<ele>164.427856</ele>
<time>2010-07-17T18:46:13Z</time>
<desc>lat.=55.704372, lon.=26.086399, Alt.=164.427856m. Speed=0.036000m/h.</desc>
<speed>0.010000</speed>
</trkpt>
<trkpt lat="55.704372" lon="26.086399">
<ele>164.431763</ele>
<time>2010-07-17T18:46:14Z</time>
<desc>lat.=55.704372, lon.=26.086399, Alt.=164.431763m. Speed=0.036000m/h.</desc>
<speed>0.010000</speed>
</trkpt>
<trkpt lat="55.704372" lon="26.086399">
<ele>164.427856</ele>
<time>2010-07-17T18:46:15Z</time>
<desc>lat.=55.704372, lon.=26.086399, Alt.=164.427856m. Speed=0.036000m/h.</desc>
<speed>0.010000</speed>
</trkpt>
<trkpt lat="55.704372" lon="26.086399">
<ele>164.423950</ele>
<time>2010-07-17T18:46:16Z</time>
<desc>lat.=55.704372, lon.=26.086399, Alt.=164.423950m. Speed=0.036000m/h.</desc>
<speed>0.010000</speed>
</trkpt>
<trkpt lat="55.704372" lon="26.086399">
<ele>164.420044</ele>
<time>2010-07-17T18:46:17Z</time>
<desc>lat.=55.704372, lon.=26.086399, Alt.=164.420044m. Speed=0.000000m/h.</desc>
<speed>0.000000</speed>
</trkpt>
<trkpt lat="55.704372" lon="26.086399">
<ele>164.416138</ele>
<time>2010-07-17T18:46:18Z</time>
<desc>lat.=55.704372, lon.=26.086399, Alt.=164.416138m. Speed=0.072000m/h.</desc>
<speed>0.020000</speed>
</trkpt>
<trkpt lat="55.704372" lon="26.086399">
<ele>164.420044</ele>
<time>2010-07-17T18:46:19Z</time>
<desc>lat.=55.704372, lon.=26.086399, Alt.=164.420044m. Speed=0.072000m/h.</desc>
<speed>0.020000</speed>
</trkpt>
<trkpt lat="55.704372" lon="26.086399">
<ele>164.420044</ele>
<time>2010-07-17T18:46:20Z</time>
<desc>lat.=55.704372, lon.=26.086399, Alt.=164.420044m. Speed=0.036000m/h.</desc>
<speed>0.010000</speed>
</trkpt>
<trkpt lat="55.704372" lon="26.086399">
<ele>164.416138</ele>
<time>2010-07-17T18:46:21Z</time>
<desc>lat.=55.704372, lon.=26.086399, Alt.=164.416138m. Speed=0.036000m/h.</desc>
<speed>0.010000</speed>
</trkpt>
<trkpt lat="55.704372" lon="26.086399">
<ele>164.412231</ele>
<time>2010-07-17T18:46:22Z</time>
<desc>lat.=55.704372, lon.=26.086399, Alt.=164.412231m. Speed=0.108000m/h.</desc>
<speed>0.030000</speed>
</trkpt>
<trkpt lat="55.704372" lon="26.086399">
<ele>164.408325</ele>
<time>2010-07-17T18:46:23Z</time>
<desc>lat.=55.704372, lon.=26.086399, Alt.=164.408325m. Speed=0.036000m/h.</desc>
<speed>0.010000</speed>
</trkpt>
<trkpt lat="55.704372" lon="26.086399">
<ele>164.400513</ele>
<time>2010-07-17T18:46:24Z</time>
<desc>lat.=55.704372, lon.=26.086399, Alt.=164.400513m. Speed=0.036000m/h.</desc>
<speed>0.010000</speed>
</trkpt>
<trkpt lat="55.704372" lon="26.086399">
<ele>164.400513</ele>
<time>2010-07-17T18:46:25Z</time>
<desc>lat.=55.704372, lon.=26.086399, Alt.=164.400513m. Speed=0.036000m/h.</desc>
<speed>0.010000</speed>
</trkpt>
<trkpt lat="55.704372" lon="26.086399">
<ele>164.400513</ele>
<time>2010-07-17T18:46:26Z</time>
<desc>lat.=55.704372, lon.=26.086399, Alt.=164.400513m. Speed=0.036000m/h.</desc>
<speed>0.010000</speed>
</trkpt>
<trkpt lat="55.704372" lon="26.086399">
<ele>164.396606</ele>
<time>2010-07-17T18:46:27Z</time>
<desc>lat.=55.704372, lon.=26.086399, Alt.=164.396606m. Speed=0.036000m/h.</desc>
<speed>0.010000</speed>
</trkpt>
<trkpt lat="55.704372" lon="26.086399">
<ele>164.392700</ele>
<time>2010-07-17T18:46:28Z</time>
<desc>lat.=55.704372, lon.=26.086399, Alt.=164.392700m. Speed=0.000000m/h.</desc>
<speed>0.000000</speed>
</trkpt>
<trkpt lat="55.704372" lon="26.086399">
<ele>164.396606</ele>
<time>2010-07-17T18:46:29Z</time>
<desc>lat.=55.704372, lon.=26.086399, Alt.=164.396606m. Speed=0.036000m/h.</desc>
<speed>0.010000</speed>
</trkpt>
<trkpt lat="55.704372" lon="26.086397">
<ele>164.396606</ele>
<time>2010-07-17T18:46:30Z</time>
<desc>lat.=55.704372, lon.=26.086397, Alt.=164.396606m. Speed=0.108000m/h.</desc>
<speed>0.030000</speed>
</trkpt>
<trkpt lat="55.704372" lon="26.086397">
<ele>164.396606</ele>
<time>2010-07-17T18:46:31Z</time>
<desc>lat.=55.704372, lon.=26.086397, Alt.=164.396606m. Speed=0.072000m/h.</desc>
<speed>0.020000</speed>
</trkpt>
<trkpt lat="55.704372" lon="26.086397">
<ele>164.392700</ele>
<time>2010-07-17T18:46:32Z</time>
<desc>lat.=55.704372, lon.=26.086397, Alt.=164.392700m. Speed=0.072000m/h.</desc>
<speed>0.020000</speed>
</trkpt>
<trkpt lat="55.704372" lon="26.086397">
<ele>164.388794</ele>
<time>2010-07-17T18:46:33Z</time>
<desc>lat.=55.704372, lon.=26.086397, Alt.=164.388794m. Speed=0.036000m/h.</desc>
<speed>0.010000</speed>
</trkpt>
<trkpt lat="55.704372" lon="26.086397">
<ele>164.384888</ele>
<time>2010-07-17T18:46:34Z</time>
<desc>lat.=55.704372, lon.=26.086397, Alt.=164.384888m. Speed=0.000000m/h.</desc>
<speed>0.000000</speed>
</trkpt>
<trkpt lat="55.704372" lon="26.086397">
<ele>164.388794</ele>
<time>2010-07-17T18:46:35Z</time>
<desc>lat.=55.704372, lon.=26.086397, Alt.=164.388794m. Speed=0.072000m/h.</desc>
<speed>0.020000</speed>
</trkpt>
<trkpt lat="55.704372" lon="26.086397">
<ele>164.388794</ele>
<time>2010-07-17T18:46:36Z</time>
<desc>lat.=55.704372, lon.=26.086397, Alt.=164.388794m. Speed=0.036000m/h.</desc>
<speed>0.010000</speed>
</trkpt>
<trkpt lat="55.704372" lon="26.086397">
<ele>164.384888</ele>
<time>2010-07-17T18:46:37Z</time>
<desc>lat.=55.704372, lon.=26.086397, Alt.=164.384888m. Speed=0.108000m/h.</desc>
<speed>0.030000</speed>
</trkpt>
<trkpt lat="55.704372" lon="26.086397">
<ele>164.380981</ele>
<time>2010-07-17T18:46:38Z</time>
<desc>lat.=55.704372, lon.=26.086397, Alt.=164.380981m. Speed=0.108000m/h.</desc>
<speed>0.030000</speed>
</trkpt>
<trkpt lat="55.704372" lon="26.086397">
<ele>164.384888</ele>
<time>2010-07-17T18:46:39Z</time>
<desc>lat.=55.704372, lon.=26.086397, Alt.=164.384888m. Speed=0.108000m/h.</desc>
<speed>0.030000</speed>
</trkpt>
<trkpt lat="55.704372" lon="26.086397">
<ele>164.384888</ele>
<time>2010-07-17T18:46:40Z</time>
<desc>lat.=55.704372, lon.=26.086397, Alt.=164.384888m. Speed=0.036000m/h.</desc>
<speed>0.010000</speed>
</trkpt>
<trkpt lat="55.704372" lon="26.086397">
<ele>164.384888</ele>
<time>2010-07-17T18:46:41Z</time>
<desc>lat.=55.704372, lon.=26.086397, Alt.=164.384888m. Speed=0.108000m/h.</desc>
<speed>0.030000</speed>
</trkpt>
<trkpt lat="55.704372" lon="26.086397">
<ele>164.384888</ele>
<time>2010-07-17T18:46:42Z</time>
<desc>lat.=55.704372, lon.=26.086397, Alt.=164.384888m. Speed=0.072000m/h.</desc>
<speed>0.020000</speed>
</trkpt>
<trkpt lat="55.704372" lon="26.086397">
<ele>164.388794</ele>
<time>2010-07-17T18:46:43Z</time>
<desc>lat.=55.704372, lon.=26.086397, Alt.=164.388794m. Speed=0.036000m/h.</desc>
<speed>0.010000</speed>
</trkpt>
<trkpt lat="55.704372" lon="26.086397">
<ele>164.388794</ele>
<time>2010-07-17T18:46:44Z</time>
<desc>lat.=55.704372, lon.=26.086397, Alt.=164.388794m. Speed=0.072000m/h.</desc>
<speed>0.020000</speed>
</trkpt>
<trkpt lat="55.704372" lon="26.086397">
<ele>164.384888</ele>
<time>2010-07-17T18:46:45Z</time>
<desc>lat.=55.704372, lon.=26.086397, Alt.=164.384888m. Speed=0.036000m/h.</desc>
<speed>0.010000</speed>
</trkpt>
<trkpt lat="55.704372" lon="26.086397">
<ele>164.380981</ele>
<time>2010-07-17T18:46:46Z</time>
<desc>lat.=55.704372, lon.=26.086397, Alt.=164.380981m. Speed=0.000000m/h.</desc>
<speed>0.000000</speed>
</trkpt>
<trkpt lat="55.704372" lon="26.086397">
<ele>164.380981</ele>
<time>2010-07-17T18:46:47Z</time>
<desc>lat.=55.704372, lon.=26.086397, Alt.=164.380981m. Speed=0.036000m/h.</desc>
<speed>0.010000</speed>
</trkpt>
<trkpt lat="55.704372" lon="26.086397">
<ele>164.380981</ele>
<time>2010-07-17T18:46:48Z</time>
<desc>lat.=55.704372, lon.=26.086397, Alt.=164.380981m. Speed=0.036000m/h.</desc>
<speed>0.010000</speed>
</trkpt>
<trkpt lat="55.704372" lon="26.086397">
<ele>164.377075</ele>
<time>2010-07-17T18:46:49Z</time>
<desc>lat.=55.704372, lon.=26.086397, Alt.=164.377075m. Speed=0.036000m/h.</desc>
<speed>0.010000</speed>
</trkpt>
<trkpt lat="55.704372" lon="26.086397">
<ele>164.369263</ele>
<time>2010-07-17T18:46:50Z</time>
<desc>lat.=55.704372, lon.=26.086397, Alt.=164.369263m. Speed=0.036000m/h.</desc>
<speed>0.010000</speed>
</trkpt>
<trkpt lat="55.704372" lon="26.086397">
<ele>164.369263</ele>
<time>2010-07-17T18:46:51Z</time>
<desc>lat.=55.704372, lon.=26.086397, Alt.=164.369263m. Speed=0.072000m/h.</desc>
<speed>0.020000</speed>
</trkpt>
<trkpt lat="55.704372" lon="26.086397">
<ele>164.365356</ele>
<time>2010-07-17T18:46:52Z</time>
<desc>lat.=55.704372, lon.=26.086397, Alt.=164.365356m. Speed=0.036000m/h.</desc>
<speed>0.010000</speed>
</trkpt>
<trkpt lat="55.704372" lon="26.086397">
<ele>164.357544</ele>
<time>2010-07-17T18:46:53Z</time>
<desc>lat.=55.704372, lon.=26.086397, Alt.=164.357544m. Speed=0.000000m/h.</desc>
<speed>0.000000</speed>
</trkpt>
<trkpt lat="55.704372" lon="26.086397">
<ele>164.353638</ele>
<time>2010-07-17T18:46:54Z</time>
<desc>lat.=55.704372, lon.=26.086397, Alt.=164.353638m. Speed=0.072000m/h.</desc>
<speed>0.020000</speed>
</trkpt>
<trkpt lat="55.704372" lon="26.086397">
<ele>164.345825</ele>
<time>2010-07-17T18:46:55Z</time>
<desc>lat.=55.704372, lon.=26.086397, Alt.=164.345825m. Speed=0.036000m/h.</desc>
<speed>0.010000</speed>
</trkpt>
<trkpt lat="55.704372" lon="26.086397">
<ele>164.345825</ele>
<time>2010-07-17T18:46:56Z</time>
<desc>lat.=55.704372, lon.=26.086397, Alt.=164.345825m. Speed=0.108000m/h.</desc>
<speed>0.030000</speed>
</trkpt>
<trkpt lat="55.704372" lon="26.086397">
<ele>164.345825</ele>
<time>2010-07-17T18:46:57Z</time>
<desc>lat.=55.704372, lon.=26.086397, Alt.=164.345825m. Speed=0.072000m/h.</desc>
<speed>0.020000</speed>
</trkpt>
<trkpt lat="55.704372" lon="26.086397">
<ele>164.341919</ele>
<time>2010-07-17T18:46:58Z</time>
<desc>lat.=55.704372, lon.=26.086397, Alt.=164.341919m. Speed=0.036000m/h.</desc>
<speed>0.010000</speed>
</trkpt>
<trkpt lat="55.704372" lon="26.086397">
<ele>164.338013</ele>
<time>2010-07-17T18:46:59Z</time>
<desc>lat.=55.704372, lon.=26.086397, Alt.=164.338013m. Speed=0.036000m/h.</desc>
<speed>0.010000</speed>
</trkpt>
<trkpt lat="55.704372" lon="26.086397">
<ele>164.334106</ele>
<time>2010-07-17T18:47:00Z</time>
<desc>lat.=55.704372, lon.=26.086397, Alt.=164.334106m. Speed=0.108000m/h.</desc>
<speed>0.030000</speed>
</trkpt>
<trkpt lat="55.704372" lon="26.086397">
<ele>164.334106</ele>
<time>2010-07-17T18:47:01Z</time>
<desc>lat.=55.704372, lon.=26.086397, Alt.=164.334106m. Speed=0.036000m/h.</desc>
<speed>0.010000</speed>
</trkpt>
<trkpt lat="55.704372" lon="26.086397">
<ele>164.330200</ele>
<time>2010-07-17T18:47:02Z</time>
<desc>lat.=55.704372, lon.=26.086397, Alt.=164.330200m. Speed=0.036000m/h.</desc>
<speed>0.010000</speed>
</trkpt>
<trkpt lat="55.704372" lon="26.086397">
<ele>164.326294</ele>
<time>2010-07-17T18:47:03Z</time>
<desc>lat.=55.704372, lon.=26.086397, Alt.=164.326294m. Speed=0.000000m/h.</desc>
<speed>0.000000</speed>
</trkpt>
<trkpt lat="55.704372" lon="26.086397">
<ele>164.326294</ele>
<time>2010-07-17T18:47:04Z</time>
<desc>lat.=55.704372, lon.=26.086397, Alt.=164.326294m. Speed=0.036000m/h.</desc>
<speed>0.010000</speed>
</trkpt>
<trkpt lat="55.704372" lon="26.086397">
<ele>164.318481</ele>
<time>2010-07-17T18:47:05Z</time>
<desc>lat.=55.704372, lon.=26.086397, Alt.=164.318481m. Speed=0.036000m/h.</desc>
<speed>0.010000</speed>
</trkpt>
<trkpt lat="55.704372" lon="26.086397">
<ele>164.310669</ele>
<time>2010-07-17T18:47:06Z</time>
<desc>lat.=55.704372, lon.=26.086397, Alt.=164.310669m. Speed=0.072000m/h.</desc>
<speed>0.020000</speed>
</trkpt>
<trkpt lat="55.704372" lon="26.086397">
<ele>164.298950</ele>
<time>2010-07-17T18:47:07Z</time>
<desc>lat.=55.704372, lon.=26.086397, Alt.=164.298950m. Speed=0.072000m/h.</desc>
<speed>0.020000</speed>
</trkpt>
<trkpt lat="55.704372" lon="26.086397">
<ele>164.295044</ele>
<time>2010-07-17T18:47:08Z</time>
<desc>lat.=55.704372, lon.=26.086397, Alt.=164.295044m. Speed=0.072000m/h.</desc>
<speed>0.020000</speed>
</trkpt>
<trkpt lat="55.704372" lon="26.086397">
<ele>164.291138</ele>
<time>2010-07-17T18:47:09Z</time>
<desc>lat.=55.704372, lon.=26.086397, Alt.=164.291138m. Speed=0.036000m/h.</desc>
<speed>0.010000</speed>
</trkpt>
<trkpt lat="55.704372" lon="26.086397">
<ele>164.287231</ele>
<time>2010-07-17T18:47:10Z</time>
<desc>lat.=55.704372, lon.=26.086397, Alt.=164.287231m. Speed=0.072000m/h.</desc>
<speed>0.020000</speed>
</trkpt>
<trkpt lat="55.704372" lon="26.086397">
<ele>164.283325</ele>
<time>2010-07-17T18:47:11Z</time>
<desc>lat.=55.704372, lon.=26.086397, Alt.=164.283325m. Speed=0.036000m/h.</desc>
<speed>0.010000</speed>
</trkpt>
<trkpt lat="55.704372" lon="26.086397">
<ele>164.279419</ele>
<time>2010-07-17T18:47:12Z</time>
<desc>lat.=55.704372, lon.=26.086397, Alt.=164.279419m. Speed=0.036000m/h.</desc>
<speed>0.010000</speed>
</trkpt>
<trkpt lat="55.704372" lon="26.086397">
<ele>164.283325</ele>
<time>2010-07-17T18:47:13Z</time>
<desc>lat.=55.704372, lon.=26.086397, Alt.=164.283325m. Speed=0.036000m/h.</desc>
<speed>0.010000</speed>
</trkpt>
<trkpt lat="55.704372" lon="26.086397">
<ele>164.275513</ele>
<time>2010-07-17T18:47:14Z</time>
<desc>lat.=55.704372, lon.=26.086397, Alt.=164.275513m. Speed=0.144000m/h.</desc>
<speed>0.040000</speed>
</trkpt>
<trkpt lat="55.704372" lon="26.086399">
<ele>164.267700</ele>
<time>2010-07-17T18:47:15Z</time>
<desc>lat.=55.704372, lon.=26.086399, Alt.=164.267700m. Speed=0.144000m/h.</desc>
<speed>0.040000</speed>
</trkpt>
<trkpt lat="55.704372" lon="26.086399">
<ele>164.259888</ele>
<time>2010-07-17T18:47:16Z</time>
<desc>lat.=55.704372, lon.=26.086399, Alt.=164.259888m. Speed=0.072000m/h.</desc>
<speed>0.020000</speed>
</trkpt>
<trkpt lat="55.704372" lon="26.086399">
<ele>164.255981</ele>
<time>2010-07-17T18:47:17Z</time>
<desc>lat.=55.704372, lon.=26.086399, Alt.=164.255981m. Speed=0.000000m/h.</desc>
<speed>0.000000</speed>
</trkpt>
<trkpt lat="55.704372" lon="26.086399">
<ele>164.248169</ele>
<time>2010-07-17T18:47:18Z</time>
<desc>lat.=55.704372, lon.=26.086399, Alt.=164.248169m. Speed=0.036000m/h.</desc>
<speed>0.010000</speed>
</trkpt>
<trkpt lat="55.704372" lon="26.086399">
<ele>164.244263</ele>
<time>2010-07-17T18:47:19Z</time>
<desc>lat.=55.704372, lon.=26.086399, Alt.=164.244263m. Speed=0.036000m/h.</desc>
<speed>0.010000</speed>
</trkpt>
<trkpt lat="55.704372" lon="26.086399">
<ele>164.244263</ele>
<time>2010-07-17T18:47:20Z</time>
<desc>lat.=55.704372, lon.=26.086399, Alt.=164.244263m. Speed=0.000000m/h.</desc>
<speed>0.000000</speed>
</trkpt>
<trkpt lat="55.704372" lon="26.086399">
<ele>164.244263</ele>
<time>2010-07-17T18:47:21Z</time>
<desc>lat.=55.704372, lon.=26.086399, Alt.=164.244263m. Speed=0.036000m/h.</desc>
<speed>0.010000</speed>
</trkpt>
<trkpt lat="55.704372" lon="26.086399">
<ele>164.240356</ele>
<time>2010-07-17T18:47:22Z</time>
<desc>lat.=55.704372, lon.=26.086399, Alt.=164.240356m. Speed=0.036000m/h.</desc>
<speed>0.010000</speed>
</trkpt>
<trkpt lat="55.704372" lon="26.086399">
<ele>164.236450</ele>
<time>2010-07-17T18:47:23Z</time>
<desc>lat.=55.704372, lon.=26.086399, Alt.=164.236450m. Speed=0.000000m/h.</desc>
<speed>0.000000</speed>
</trkpt>
<trkpt lat="55.704372" lon="26.086399">
<ele>164.228638</ele>
<time>2010-07-17T18:47:24Z</time>
<desc>lat.=55.704372, lon.=26.086399, Alt.=164.228638m. Speed=0.000000m/h.</desc>
<speed>0.000000</speed>
</trkpt>
<trkpt lat="55.704372" lon="26.086399">
<ele>164.224731</ele>
<time>2010-07-17T18:47:25Z</time>
<desc>lat.=55.704372, lon.=26.086399, Alt.=164.224731m. Speed=0.036000m/h.</desc>
<speed>0.010000</speed>
</trkpt>
<trkpt lat="55.704372" lon="26.086399">
<ele>164.220825</ele>
<time>2010-07-17T18:47:26Z</time>
<desc>lat.=55.704372, lon.=26.086399, Alt.=164.220825m. Speed=0.036000m/h.</desc>
<speed>0.010000</speed>
</trkpt>
<trkpt lat="55.704372" lon="26.086399">
<ele>164.220825</ele>
<time>2010-07-17T18:47:27Z</time>
<desc>lat.=55.704372, lon.=26.086399, Alt.=164.220825m. Speed=0.072000m/h.</desc>
<speed>0.020000</speed>
</trkpt>
<trkpt lat="55.704372" lon="26.086399">
<ele>164.213013</ele>
<time>2010-07-17T18:47:28Z</time>
<desc>lat.=55.704372, lon.=26.086399, Alt.=164.213013m. Speed=0.036000m/h.</desc>
<speed>0.010000</speed>
</trkpt>
<trkpt lat="55.704372" lon="26.086399">
<ele>164.216919</ele>
<time>2010-07-17T18:47:29Z</time>
<desc>lat.=55.704372, lon.=26.086399, Alt.=164.216919m. Speed=0.072000m/h.</desc>
<speed>0.020000</speed>
</trkpt>
<trkpt lat="55.704372" lon="26.086399">
<ele>164.213013</ele>
<time>2010-07-17T18:47:30Z</time>
<desc>lat.=55.704372, lon.=26.086399, Alt.=164.213013m. Speed=0.036000m/h.</desc>
<speed>0.010000</speed>
</trkpt>
<trkpt lat="55.704372" lon="26.086399">
<ele>164.205200</ele>
<time>2010-07-17T18:47:31Z</time>
<desc>lat.=55.704372, lon.=26.086399, Alt.=164.205200m. Speed=0.072000m/h.</desc>
<speed>0.020000</speed>
</trkpt>
<trkpt lat="55.704372" lon="26.086399">
<ele>164.197388</ele>
<time>2010-07-17T18:47:32Z</time>
<desc>lat.=55.704372, lon.=26.086399, Alt.=164.197388m. Speed=0.036000m/h.</desc>
<speed>0.010000</speed>
</trkpt>
<trkpt lat="55.704372" lon="26.086399">
<ele>164.193481</ele>
<time>2010-07-17T18:47:33Z</time>
<desc>lat.=55.704372, lon.=26.086399, Alt.=164.193481m. Speed=0.072000m/h.</desc>
<speed>0.020000</speed>
</trkpt>
<trkpt lat="55.704372" lon="26.086399">
<ele>164.189575</ele>
<time>2010-07-17T18:47:34Z</time>
<desc>lat.=55.704372, lon.=26.086399, Alt.=164.189575m. Speed=0.000000m/h.</desc>
<speed>0.000000</speed>
</trkpt>
<trkpt lat="55.704372" lon="26.086399">
<ele>164.185669</ele>
<time>2010-07-17T18:47:35Z</time>
<desc>lat.=55.704372, lon.=26.086399, Alt.=164.185669m. Speed=0.000000m/h.</desc>
<speed>0.000000</speed>
</trkpt>
<trkpt lat="55.704372" lon="26.086399">
<ele>164.185669</ele>
<time>2010-07-17T18:47:36Z</time>
<desc>lat.=55.704372, lon.=26.086399, Alt.=164.185669m. Speed=0.036000m/h.</desc>
<speed>0.010000</speed>
</trkpt>
<trkpt lat="55.704372" lon="26.086399">
<ele>164.181763</ele>
<time>2010-07-17T18:47:37Z</time>
<desc>lat.=55.704372, lon.=26.086399, Alt.=164.181763m. Speed=0.000000m/h.</desc>
<speed>0.000000</speed>
</trkpt>
<trkpt lat="55.704372" lon="26.086399">
<ele>164.173950</ele>
<time>2010-07-17T18:47:38Z</time>
<desc>lat.=55.704372, lon.=26.086399, Alt.=164.173950m. Speed=0.000000m/h.</desc>
<speed>0.000000</speed>
</trkpt>
<trkpt lat="55.704372" lon="26.086399">
<ele>164.177856</ele>
<time>2010-07-17T18:47:39Z</time>
<desc>lat.=55.704372, lon.=26.086399, Alt.=164.177856m. Speed=0.036000m/h.</desc>
<speed>0.010000</speed>
</trkpt>
<trkpt lat="55.704372" lon="26.086399">
<ele>164.177856</ele>
<time>2010-07-17T18:47:40Z</time>
<desc>lat.=55.704372, lon.=26.086399, Alt.=164.177856m. Speed=0.000000m/h.</desc>
<speed>0.000000</speed>
</trkpt>
<trkpt lat="55.704372" lon="26.086399">
<ele>164.173950</ele>
<time>2010-07-17T18:47:41Z</time>
<desc>lat.=55.704372, lon.=26.086399, Alt.=164.173950m. Speed=0.072000m/h.</desc>
<speed>0.020000</speed>
</trkpt>
<trkpt lat="55.704372" lon="26.086399">
<ele>164.177856</ele>
<time>2010-07-17T18:47:42Z</time>
<desc>lat.=55.704372, lon.=26.086399, Alt.=164.177856m. Speed=0.108000m/h.</desc>
<speed>0.030000</speed>
</trkpt>
<trkpt lat="55.704372" lon="26.086399">
<ele>164.185669</ele>
<time>2010-07-17T18:47:43Z</time>
<desc>lat.=55.704372, lon.=26.086399, Alt.=164.185669m. Speed=0.036000m/h.</desc>
<speed>0.010000</speed>
</trkpt>
<trkpt lat="55.704372" lon="26.086399">
<ele>164.189575</ele>
<time>2010-07-17T18:47:44Z</time>
<desc>lat.=55.704372, lon.=26.086399, Alt.=164.189575m. Speed=0.036000m/h.</desc>
<speed>0.010000</speed>
</trkpt>
<trkpt lat="55.704372" lon="26.086399">
<ele>164.197388</ele>
<time>2010-07-17T18:47:45Z</time>
<desc>lat.=55.704372, lon.=26.086399, Alt.=164.197388m. Speed=0.108000m/h.</desc>
<speed>0.030000</speed>
</trkpt>
<trkpt lat="55.704372" lon="26.086399">
<ele>164.205200</ele>
<time>2010-07-17T18:47:46Z</time>
<desc>lat.=55.704372, lon.=26.086399, Alt.=164.205200m. Speed=0.072000m/h.</desc>
<speed>0.020000</speed>
</trkpt>
<trkpt lat="55.704372" lon="26.086399">
<ele>164.209106</ele>
<time>2010-07-17T18:47:47Z</time>
<desc>lat.=55.704372, lon.=26.086399, Alt.=164.209106m. Speed=0.036000m/h.</desc>
<speed>0.010000</speed>
</trkpt>
<trkpt lat="55.704372" lon="26.086399">
<ele>164.216919</ele>
<time>2010-07-17T18:47:48Z</time>
<desc>lat.=55.704372, lon.=26.086399, Alt.=164.216919m. Speed=0.000000m/h.</desc>
<speed>0.000000</speed>
</trkpt>
<trkpt lat="55.704372" lon="26.086399">
<ele>164.220825</ele>
<time>2010-07-17T18:47:49Z</time>
<desc>lat.=55.704372, lon.=26.086399, Alt.=164.220825m. Speed=0.108000m/h.</desc>
<speed>0.030000</speed>
</trkpt>
<trkpt lat="55.704372" lon="26.086399">
<ele>164.228638</ele>
<time>2010-07-17T18:47:50Z</time>
<desc>lat.=55.704372, lon.=26.086399, Alt.=164.228638m. Speed=0.108000m/h.</desc>
<speed>0.030000</speed>
</trkpt>
<trkpt lat="55.704372" lon="26.086401">
<ele>164.232544</ele>
<time>2010-07-17T18:47:51Z</time>
<desc>lat.=55.704372, lon.=26.086401, Alt.=164.232544m. Speed=0.072000m/h.</desc>
<speed>0.020000</speed>
</trkpt>
<trkpt lat="55.704372" lon="26.086401">
<ele>164.236450</ele>
<time>2010-07-17T18:47:52Z</time>
<desc>lat.=55.704372, lon.=26.086401, Alt.=164.236450m. Speed=0.036000m/h.</desc>
<speed>0.010000</speed>
</trkpt>
<trkpt lat="55.704372" lon="26.086401">
<ele>164.240356</ele>
<time>2010-07-17T18:47:53Z</time>
<desc>lat.=55.704372, lon.=26.086401, Alt.=164.240356m. Speed=0.000000m/h.</desc>
<speed>0.000000</speed>
</trkpt>
<trkpt lat="55.704372" lon="26.086401">
<ele>164.240356</ele>
<time>2010-07-17T18:47:54Z</time>
<desc>lat.=55.704372, lon.=26.086401, Alt.=164.240356m. Speed=0.072000m/h.</desc>
<speed>0.020000</speed>
</trkpt>
<trkpt lat="55.704372" lon="26.086401">
<ele>164.240356</ele>
<time>2010-07-17T18:47:55Z</time>
<desc>lat.=55.704372, lon.=26.086401, Alt.=164.240356m. Speed=0.072000m/h.</desc>
<speed>0.020000</speed>
</trkpt>
<trkpt lat="55.704372" lon="26.086401">
<ele>164.240356</ele>
<time>2010-07-17T18:47:56Z</time>
<desc>lat.=55.704372, lon.=26.086401, Alt.=164.240356m. Speed=0.144000m/h.</desc>
<speed>0.040000</speed>
</trkpt>
<trkpt lat="55.704372" lon="26.086401">
<ele>164.236450</ele>
<time>2010-07-17T18:47:57Z</time>
<desc>lat.=55.704372, lon.=26.086401, Alt.=164.236450m. Speed=0.072000m/h.</desc>
<speed>0.020000</speed>
</trkpt>
<trkpt lat="55.704372" lon="26.086401">
<ele>164.236450</ele>
<time>2010-07-17T18:47:58Z</time>
<desc>lat.=55.704372, lon.=26.086401, Alt.=164.236450m. Speed=0.000000m/h.</desc>
<speed>0.000000</speed>
</trkpt>
<trkpt lat="55.704372" lon="26.086401">
<ele>164.240356</ele>
<time>2010-07-17T18:47:59Z</time>
<desc>lat.=55.704372, lon.=26.086401, Alt.=164.240356m. Speed=0.180000m/h.</desc>
<speed>0.050000</speed>
</trkpt>
<trkpt lat="55.704372" lon="26.086401">
<ele>164.232544</ele>
<time>2010-07-17T18:48:00Z</time>
<desc>lat.=55.704372, lon.=26.086401, Alt.=164.232544m. Speed=0.108000m/h.</desc>
<speed>0.030000</speed>
</trkpt>
<trkpt lat="55.704372" lon="26.086403">
<ele>164.224731</ele>
<time>2010-07-17T18:48:01Z</time>
<desc>lat.=55.704372, lon.=26.086403, Alt.=164.224731m. Speed=0.180000m/h.</desc>
<speed>0.050000</speed>
</trkpt>
<trkpt lat="55.704372" lon="26.086403">
<ele>164.209106</ele>
<time>2010-07-17T18:48:02Z</time>
<desc>lat.=55.704372, lon.=26.086403, Alt.=164.209106m. Speed=0.108000m/h.</desc>
<speed>0.030000</speed>
</trkpt>
<trkpt lat="55.704372" lon="26.086403">
<ele>164.205200</ele>
<time>2010-07-17T18:48:03Z</time>
<desc>lat.=55.704372, lon.=26.086403, Alt.=164.205200m. Speed=0.144000m/h.</desc>
<speed>0.040000</speed>
</trkpt>
<trkpt lat="55.704372" lon="26.086403">
<ele>164.209106</ele>
<time>2010-07-17T18:48:04Z</time>
<desc>lat.=55.704372, lon.=26.086403, Alt.=164.209106m. Speed=0.072000m/h.</desc>
<speed>0.020000</speed>
</trkpt>
<trkpt lat="55.704372" lon="26.086403">
<ele>164.197388</ele>
<time>2010-07-17T18:48:05Z</time>
<desc>lat.=55.704372, lon.=26.086403, Alt.=164.197388m. Speed=0.036000m/h.</desc>
<speed>0.010000</speed>
</trkpt>
<trkpt lat="55.704372" lon="26.086403">
<ele>164.189575</ele>
<time>2010-07-17T18:48:06Z</time>
<desc>lat.=55.704372, lon.=26.086403, Alt.=164.189575m. Speed=0.072000m/h.</desc>
<speed>0.020000</speed>
</trkpt>
<trkpt lat="55.704372" lon="26.086405">
<ele>164.181763</ele>
<time>2010-07-17T18:48:07Z</time>
<desc>lat.=55.704372, lon.=26.086405, Alt.=164.181763m. Speed=0.108000m/h.</desc>
<speed>0.030000</speed>
</trkpt>
<trkpt lat="55.704372" lon="26.086405">
<ele>164.166138</ele>
<time>2010-07-17T18:48:08Z</time>
<desc>lat.=55.704372, lon.=26.086405, Alt.=164.166138m. Speed=0.144000m/h.</desc>
<speed>0.040000</speed>
</trkpt>
<trkpt lat="55.704372" lon="26.086405">
<ele>164.158325</ele>
<time>2010-07-17T18:48:09Z</time>
<desc>lat.=55.704372, lon.=26.086405, Alt.=164.158325m. Speed=0.108000m/h.</desc>
<speed>0.030000</speed>
</trkpt>
<trkpt lat="55.704372" lon="26.086405">
<ele>164.154419</ele>
<time>2010-07-17T18:48:10Z</time>
<desc>lat.=55.704372, lon.=26.086405, Alt.=164.154419m. Speed=0.072000m/h.</desc>
<speed>0.020000</speed>
</trkpt>
<trkpt lat="55.704372" lon="26.086405">
<ele>164.154419</ele>
<time>2010-07-17T18:48:11Z</time>
<desc>lat.=55.704372, lon.=26.086405, Alt.=164.154419m. Speed=0.072000m/h.</desc>
<speed>0.020000</speed>
</trkpt>
<trkpt lat="55.704372" lon="26.086407">
<ele>164.142700</ele>
<time>2010-07-17T18:48:12Z</time>
<desc>lat.=55.704372, lon.=26.086407, Alt.=164.142700m. Speed=0.108000m/h.</desc>
<speed>0.030000</speed>
</trkpt>
<trkpt lat="55.704372" lon="26.086407">
<ele>164.134888</ele>
<time>2010-07-17T18:48:13Z</time>
<desc>lat.=55.704372, lon.=26.086407, Alt.=164.134888m. Speed=0.072000m/h.</desc>
<speed>0.020000</speed>
</trkpt>
<trkpt lat="55.704372" lon="26.086407">
<ele>164.130981</ele>
<time>2010-07-17T18:48:14Z</time>
<desc>lat.=55.704372, lon.=26.086407, Alt.=164.130981m. Speed=0.036000m/h.</desc>
<speed>0.010000</speed>
</trkpt>
<trkpt lat="55.704372" lon="26.086407">
<ele>164.123169</ele>
<time>2010-07-17T18:48:15Z</time>
<desc>lat.=55.704372, lon.=26.086407, Alt.=164.123169m. Speed=0.036000m/h.</desc>
<speed>0.010000</speed>
</trkpt>
<trkpt lat="55.704372" lon="26.086407">
<ele>164.115356</ele>
<time>2010-07-17T18:48:16Z</time>
<desc>lat.=55.704372, lon.=26.086407, Alt.=164.115356m. Speed=0.072000m/h.</desc>
<speed>0.020000</speed>
</trkpt>
<trkpt lat="55.704372" lon="26.086407">
<ele>164.107544</ele>
<time>2010-07-17T18:48:17Z</time>
<desc>lat.=55.704372, lon.=26.086407, Alt.=164.107544m. Speed=0.000000m/h.</desc>
<speed>0.000000</speed>
</trkpt>
<trkpt lat="55.704372" lon="26.086407">
<ele>164.103638</ele>
<time>2010-07-17T18:48:18Z</time>
<desc>lat.=55.704372, lon.=26.086407, Alt.=164.103638m. Speed=0.000000m/h.</desc>
<speed>0.000000</speed>
</trkpt>
<trkpt lat="55.704372" lon="26.086407">
<ele>164.095825</ele>
<time>2010-07-17T18:48:19Z</time>
<desc>lat.=55.704372, lon.=26.086407, Alt.=164.095825m. Speed=0.036000m/h.</desc>
<speed>0.010000</speed>
</trkpt>
<trkpt lat="55.704372" lon="26.086407">
<ele>164.091919</ele>
<time>2010-07-17T18:48:20Z</time>
<desc>lat.=55.704372, lon.=26.086407, Alt.=164.091919m. Speed=0.036000m/h.</desc>
<speed>0.010000</speed>
</trkpt>
<trkpt lat="55.704372" lon="26.086407">
<ele>164.088013</ele>
<time>2010-07-17T18:48:21Z</time>
<desc>lat.=55.704372, lon.=26.086407, Alt.=164.088013m. Speed=0.036000m/h.</desc>
<speed>0.010000</speed>
</trkpt>
<trkpt lat="55.704372" lon="26.086407">
<ele>164.076294</ele>
<time>2010-07-17T18:48:22Z</time>
<desc>lat.=55.704372, lon.=26.086407, Alt.=164.076294m. Speed=0.072000m/h.</desc>
<speed>0.020000</speed>
</trkpt>
<trkpt lat="55.704372" lon="26.086407">
<ele>164.076294</ele>
<time>2010-07-17T18:48:23Z</time>
<desc>lat.=55.704372, lon.=26.086407, Alt.=164.076294m. Speed=0.000000m/h.</desc>
<speed>0.000000</speed>
</trkpt>
<trkpt lat="55.704372" lon="26.086407">
<ele>164.080200</ele>
<time>2010-07-17T18:48:24Z</time>
<desc>lat.=55.704372, lon.=26.086407, Alt.=164.080200m. Speed=0.000000m/h.</desc>
<speed>0.000000</speed>
</trkpt>
<trkpt lat="55.704372" lon="26.086407">
<ele>164.080200</ele>
<time>2010-07-17T18:48:25Z</time>
<desc>lat.=55.704372, lon.=26.086407, Alt.=164.080200m. Speed=0.036000m/h.</desc>
<speed>0.010000</speed>
</trkpt>
<trkpt lat="55.704372" lon="26.086407">
<ele>164.080200</ele>
<time>2010-07-17T18:48:26Z</time>
<desc>lat.=55.704372, lon.=26.086407, Alt.=164.080200m. Speed=0.108000m/h.</desc>
<speed>0.030000</speed>
</trkpt>
<trkpt lat="55.704372" lon="26.086407">
<ele>164.080200</ele>
<time>2010-07-17T18:48:27Z</time>
<desc>lat.=55.704372, lon.=26.086407, Alt.=164.080200m. Speed=0.108000m/h.</desc>
<speed>0.030000</speed>
</trkpt>
<trkpt lat="55.704372" lon="26.086407">
<ele>164.076294</ele>
<time>2010-07-17T18:48:28Z</time>
<desc>lat.=55.704372, lon.=26.086407, Alt.=164.076294m. Speed=0.108000m/h.</desc>
<speed>0.030000</speed>
</trkpt>
<trkpt lat="55.704372" lon="26.086407">
<ele>164.072388</ele>
<time>2010-07-17T18:48:29Z</time>
<desc>lat.=55.704372, lon.=26.086407, Alt.=164.072388m. Speed=0.108000m/h.</desc>
<speed>0.030000</speed>
</trkpt>
<trkpt lat="55.704372" lon="26.086407">
<ele>164.072388</ele>
<time>2010-07-17T18:48:30Z</time>
<desc>lat.=55.704372, lon.=26.086407, Alt.=164.072388m. Speed=0.108000m/h.</desc>
<speed>0.030000</speed>
</trkpt>
<trkpt lat="55.704372" lon="26.086407">
<ele>164.068481</ele>
<time>2010-07-17T18:48:31Z</time>
<desc>lat.=55.704372, lon.=26.086407, Alt.=164.068481m. Speed=0.180000m/h.</desc>
<speed>0.050000</speed>
</trkpt>
<trkpt lat="55.704372" lon="26.086407">
<ele>164.068481</ele>
<time>2010-07-17T18:48:32Z</time>
<desc>lat.=55.704372, lon.=26.086407, Alt.=164.068481m. Speed=0.000000m/h.</desc>
<speed>0.000000</speed>
</trkpt>
<trkpt lat="55.704372" lon="26.086407">
<ele>164.068481</ele>
<time>2010-07-17T18:48:33Z</time>
<desc>lat.=55.704372, lon.=26.086407, Alt.=164.068481m. Speed=0.036000m/h.</desc>
<speed>0.010000</speed>
</trkpt>
<trkpt lat="55.704372" lon="26.086407">
<ele>164.068481</ele>
<time>2010-07-17T18:48:34Z</time>
<desc>lat.=55.704372, lon.=26.086407, Alt.=164.068481m. Speed=0.036000m/h.</desc>
<speed>0.010000</speed>
</trkpt>
<trkpt lat="55.704372" lon="26.086407">
<ele>164.068481</ele>
<time>2010-07-17T18:48:35Z</time>
<desc>lat.=55.704372, lon.=26.086407, Alt.=164.068481m. Speed=0.036000m/h.</desc>
<speed>0.010000</speed>
</trkpt>
<trkpt lat="55.704372" lon="26.086407">
<ele>164.068481</ele>
<time>2010-07-17T18:48:36Z</time>
<desc>lat.=55.704372, lon.=26.086407, Alt.=164.068481m. Speed=0.072000m/h.</desc>
<speed>0.020000</speed>
</trkpt>
<trkpt lat="55.704372" lon="26.086407">
<ele>164.072388</ele>
<time>2010-07-17T18:48:37Z</time>
<desc>lat.=55.704372, lon.=26.086407, Alt.=164.072388m. Speed=0.036000m/h.</desc>
<speed>0.010000</speed>
</trkpt>
<trkpt lat="55.704372" lon="26.086407">
<ele>164.076294</ele>
<time>2010-07-17T18:48:38Z</time>
<desc>lat.=55.704372, lon.=26.086407, Alt.=164.076294m. Speed=0.108000m/h.</desc>
<speed>0.030000</speed>
</trkpt>
<trkpt lat="55.704372" lon="26.086407">
<ele>164.084106</ele>
<time>2010-07-17T18:48:39Z</time>
<desc>lat.=55.704372, lon.=26.086407, Alt.=164.084106m. Speed=0.108000m/h.</desc>
<speed>0.030000</speed>
</trkpt>
<trkpt lat="55.704372" lon="26.086407">
<ele>164.088013</ele>
<time>2010-07-17T18:48:40Z</time>
<desc>lat.=55.704372, lon.=26.086407, Alt.=164.088013m. Speed=0.000000m/h.</desc>
<speed>0.000000</speed>
</trkpt>
<trkpt lat="55.704372" lon="26.086409">
<ele>164.088013</ele>
<time>2010-07-17T18:48:41Z</time>
<desc>lat.=55.704372, lon.=26.086409, Alt.=164.088013m. Speed=0.036000m/h.</desc>
<speed>0.010000</speed>
</trkpt>
<trkpt lat="55.704372" lon="26.086409">
<ele>164.088013</ele>
<time>2010-07-17T18:48:42Z</time>
<desc>lat.=55.704372, lon.=26.086409, Alt.=164.088013m. Speed=0.000000m/h.</desc>
<speed>0.000000</speed>
</trkpt>
<trkpt lat="55.704372" lon="26.086409">
<ele>164.091919</ele>
<time>2010-07-17T18:48:43Z</time>
<desc>lat.=55.704372, lon.=26.086409, Alt.=164.091919m. Speed=0.072000m/h.</desc>
<speed>0.020000</speed>
</trkpt>
<trkpt lat="55.704372" lon="26.086407">
<ele>164.095825</ele>
<time>2010-07-17T18:48:44Z</time>
<desc>lat.=55.704372, lon.=26.086407, Alt.=164.095825m. Speed=0.036000m/h.</desc>
<speed>0.010000</speed>
</trkpt>
<trkpt lat="55.704372" lon="26.086407">
<ele>164.099731</ele>
<time>2010-07-17T18:48:45Z</time>
<desc>lat.=55.704372, lon.=26.086407, Alt.=164.099731m. Speed=0.000000m/h.</desc>
<speed>0.000000</speed>
</trkpt>
<trkpt lat="55.704372" lon="26.086407">
<ele>164.107544</ele>
<time>2010-07-17T18:48:46Z</time>
<desc>lat.=55.704372, lon.=26.086407, Alt.=164.107544m. Speed=0.036000m/h.</desc>
<speed>0.010000</speed>
</trkpt>
<trkpt lat="55.704372" lon="26.086407">
<ele>164.111450</ele>
<time>2010-07-17T18:48:47Z</time>
<desc>lat.=55.704372, lon.=26.086407, Alt.=164.111450m. Speed=0.036000m/h.</desc>
<speed>0.010000</speed>
</trkpt>
<trkpt lat="55.704372" lon="26.086407">
<ele>164.111450</ele>
<time>2010-07-17T18:48:48Z</time>
<desc>lat.=55.704372, lon.=26.086407, Alt.=164.111450m. Speed=0.000000m/h.</desc>
<speed>0.000000</speed>
</trkpt>
<trkpt lat="55.704372" lon="26.086407">
<ele>164.107544</ele>
<time>2010-07-17T18:48:49Z</time>
<desc>lat.=55.704372, lon.=26.086407, Alt.=164.107544m. Speed=0.036000m/h.</desc>
<speed>0.010000</speed>
</trkpt>
<trkpt lat="55.704372" lon="26.086407">
<ele>164.103638</ele>
<time>2010-07-17T18:48:50Z</time>
<desc>lat.=55.704372, lon.=26.086407, Alt.=164.103638m. Speed=0.072000m/h.</desc>
<speed>0.020000</speed>
</trkpt>
<trkpt lat="55.704372" lon="26.086407">
<ele>164.111450</ele>
<time>2010-07-17T18:48:51Z</time>
<desc>lat.=55.704372, lon.=26.086407, Alt.=164.111450m. Speed=0.144000m/h.</desc>
<speed>0.040000</speed>
</trkpt>
<trkpt lat="55.704372" lon="26.086409">
<ele>164.111450</ele>
<time>2010-07-17T18:48:52Z</time>
<desc>lat.=55.704372, lon.=26.086409, Alt.=164.111450m. Speed=0.072000m/h.</desc>
<speed>0.020000</speed>
</trkpt>
<trkpt lat="55.704372" lon="26.086409">
<ele>164.107544</ele>
<time>2010-07-17T18:48:53Z</time>
<desc>lat.=55.704372, lon.=26.086409, Alt.=164.107544m. Speed=0.072000m/h.</desc>
<speed>0.020000</speed>
</trkpt>
<trkpt lat="55.704372" lon="26.086409">
<ele>164.099731</ele>
<time>2010-07-17T18:48:54Z</time>
<desc>lat.=55.704372, lon.=26.086409, Alt.=164.099731m. Speed=0.072000m/h.</desc>
<speed>0.020000</speed>
</trkpt>
<trkpt lat="55.704372" lon="26.086409">
<ele>164.095825</ele>
<time>2010-07-17T18:48:55Z</time>
<desc>lat.=55.704372, lon.=26.086409, Alt.=164.095825m. Speed=0.036000m/h.</desc>
<speed>0.010000</speed>
</trkpt>
<trkpt lat="55.704372" lon="26.086409">
<ele>164.099731</ele>
<time>2010-07-17T18:48:56Z</time>
<desc>lat.=55.704372, lon.=26.086409, Alt.=164.099731m. Speed=0.108000m/h.</desc>
<speed>0.030000</speed>
</trkpt>
<trkpt lat="55.704372" lon="26.086409">
<ele>164.115356</ele>
<time>2010-07-17T18:48:57Z</time>
<desc>lat.=55.704372, lon.=26.086409, Alt.=164.115356m. Speed=0.144000m/h.</desc>
<speed>0.040000</speed>
</trkpt>
<trkpt lat="55.704372" lon="26.086409">
<ele>164.119263</ele>
<time>2010-07-17T18:48:58Z</time>
<desc>lat.=55.704372, lon.=26.086409, Alt.=164.119263m. Speed=0.072000m/h.</desc>
<speed>0.020000</speed>
</trkpt>
<trkpt lat="55.704372" lon="26.086409">
<ele>164.123169</ele>
<time>2010-07-17T18:48:59Z</time>
<desc>lat.=55.704372, lon.=26.086409, Alt.=164.123169m. Speed=0.036000m/h.</desc>
<speed>0.010000</speed>
</trkpt>
<trkpt lat="55.704372" lon="26.086409">
<ele>164.134888</ele>
<time>2010-07-17T18:49:00Z</time>
<desc>lat.=55.704372, lon.=26.086409, Alt.=164.134888m. Speed=0.036000m/h.</desc>
<speed>0.010000</speed>
</trkpt>
<trkpt lat="55.704376" lon="26.086409">
<ele>164.134888</ele>
<time>2010-07-17T18:49:01Z</time>
<desc>lat.=55.704376, lon.=26.086409, Alt.=164.134888m. Speed=0.036000m/h.</desc>
<speed>0.010000</speed>
</trkpt>
<trkpt lat="55.704376" lon="26.086411">
<ele>164.138794</ele>
<time>2010-07-17T18:49:02Z</time>
<desc>lat.=55.704376, lon.=26.086411, Alt.=164.138794m. Speed=0.072000m/h.</desc>
<speed>0.020000</speed>
</trkpt>
<trkpt lat="55.704376" lon="26.086411">
<ele>164.150513</ele>
<time>2010-07-17T18:49:03Z</time>
<desc>lat.=55.704376, lon.=26.086411, Alt.=164.150513m. Speed=0.036000m/h.</desc>
<speed>0.010000</speed>
</trkpt>
<trkpt lat="55.704376" lon="26.086411">
<ele>164.154419</ele>
<time>2010-07-17T18:49:04Z</time>
<desc>lat.=55.704376, lon.=26.086411, Alt.=164.154419m. Speed=0.036000m/h.</desc>
<speed>0.010000</speed>
</trkpt>
<trkpt lat="55.704376" lon="26.086411">
<ele>164.158325</ele>
<time>2010-07-17T18:49:05Z</time>
<desc>lat.=55.704376, lon.=26.086411, Alt.=164.158325m. Speed=0.000000m/h.</desc>
<speed>0.000000</speed>
</trkpt>
<trkpt lat="55.704376" lon="26.086411">
<ele>164.170044</ele>
<time>2010-07-17T18:49:06Z</time>
<desc>lat.=55.704376, lon.=26.086411, Alt.=164.170044m. Speed=0.036000m/h.</desc>
<speed>0.010000</speed>
</trkpt>
<trkpt lat="55.704376" lon="26.086411">
<ele>164.177856</ele>
<time>2010-07-17T18:49:07Z</time>
<desc>lat.=55.704376, lon.=26.086411, Alt.=164.177856m. Speed=0.000000m/h.</desc>
<speed>0.000000</speed>
</trkpt>
<trkpt lat="55.704376" lon="26.086411">
<ele>164.185669</ele>
<time>2010-07-17T18:49:08Z</time>
<desc>lat.=55.704376, lon.=26.086411, Alt.=164.185669m. Speed=0.036000m/h.</desc>
<speed>0.010000</speed>
</trkpt>
<trkpt lat="55.704372" lon="26.086411">
<ele>164.189575</ele>
<time>2010-07-17T18:49:09Z</time>
<desc>lat.=55.704372, lon.=26.086411, Alt.=164.189575m. Speed=0.036000m/h.</desc>
<speed>0.010000</speed>
</trkpt>
<trkpt lat="55.704372" lon="26.086411">
<ele>164.201294</ele>
<time>2010-07-17T18:49:10Z</time>
<desc>lat.=55.704372, lon.=26.086411, Alt.=164.201294m. Speed=0.036000m/h.</desc>
<speed>0.010000</speed>
</trkpt>
<trkpt lat="55.704372" lon="26.086411">
<ele>164.209106</ele>
<time>2010-07-17T18:49:11Z</time>
<desc>lat.=55.704372, lon.=26.086411, Alt.=164.209106m. Speed=0.036000m/h.</desc>
<speed>0.010000</speed>
</trkpt>
<trkpt lat="55.704372" lon="26.086411">
<ele>164.216919</ele>
<time>2010-07-17T18:49:12Z</time>
<desc>lat.=55.704372, lon.=26.086411, Alt.=164.216919m. Speed=0.036000m/h.</desc>
<speed>0.010000</speed>
</trkpt>
<trkpt lat="55.704372" lon="26.086411">
<ele>164.228638</ele>
<time>2010-07-17T18:49:13Z</time>
<desc>lat.=55.704372, lon.=26.086411, Alt.=164.228638m. Speed=0.036000m/h.</desc>
<speed>0.010000</speed>
</trkpt>
<trkpt lat="55.704372" lon="26.086411">
<ele>164.240356</ele>
<time>2010-07-17T18:49:14Z</time>
<desc>lat.=55.704372, lon.=26.086411, Alt.=164.240356m. Speed=0.072000m/h.</desc>
<speed>0.020000</speed>
</trkpt>
<trkpt lat="55.704372" lon="26.086411">
<ele>164.244263</ele>
<time>2010-07-17T18:49:15Z</time>
<desc>lat.=55.704372, lon.=26.086411, Alt.=164.244263m. Speed=0.036000m/h.</desc>
<speed>0.010000</speed>
</trkpt>
<trkpt lat="55.704376" lon="26.086411">
<ele>164.252075</ele>
<time>2010-07-17T18:49:16Z</time>
<desc>lat.=55.704376, lon.=26.086411, Alt.=164.252075m. Speed=0.036000m/h.</desc>
<speed>0.010000</speed>
</trkpt>
<trkpt lat="55.704372" lon="26.086411">
<ele>164.259888</ele>
<time>2010-07-17T18:49:17Z</time>
<desc>lat.=55.704372, lon.=26.086411, Alt.=164.259888m. Speed=0.072000m/h.</desc>
<speed>0.020000</speed>
</trkpt>
<trkpt lat="55.704376" lon="26.086411">
<ele>164.263794</ele>
<time>2010-07-17T18:49:18Z</time>
<desc>lat.=55.704376, lon.=26.086411, Alt.=164.263794m. Speed=0.036000m/h.</desc>
<speed>0.010000</speed>
</trkpt>
<trkpt lat="55.704372" lon="26.086411">
<ele>164.267700</ele>
<time>2010-07-17T18:49:19Z</time>
<desc>lat.=55.704372, lon.=26.086411, Alt.=164.267700m. Speed=0.108000m/h.</desc>
<speed>0.030000</speed>
</trkpt>
<trkpt lat="55.704372" lon="26.086411">
<ele>164.267700</ele>
<time>2010-07-17T18:49:20Z</time>
<desc>lat.=55.704372, lon.=26.086411, Alt.=164.267700m. Speed=0.072000m/h.</desc>
<speed>0.020000</speed>
</trkpt>
<trkpt lat="55.704372" lon="26.086411">
<ele>164.271606</ele>
<time>2010-07-17T18:49:21Z</time>
<desc>lat.=55.704372, lon.=26.086411, Alt.=164.271606m. Speed=0.036000m/h.</desc>
<speed>0.010000</speed>
</trkpt>
<trkpt lat="55.704372" lon="26.086411">
<ele>164.271606</ele>
<time>2010-07-17T18:49:22Z</time>
<desc>lat.=55.704372, lon.=26.086411, Alt.=164.271606m. Speed=0.072000m/h.</desc>
<speed>0.020000</speed>
</trkpt>
<trkpt lat="55.704372" lon="26.086411">
<ele>164.279419</ele>
<time>2010-07-17T18:49:23Z</time>
<desc>lat.=55.704372, lon.=26.086411, Alt.=164.279419m. Speed=0.000000m/h.</desc>
<speed>0.000000</speed>
</trkpt>
<trkpt lat="55.704372" lon="26.086411">
<ele>164.283325</ele>
<time>2010-07-17T18:49:24Z</time>
<desc>lat.=55.704372, lon.=26.086411, Alt.=164.283325m. Speed=0.036000m/h.</desc>
<speed>0.010000</speed>
</trkpt>
<trkpt lat="55.704372" lon="26.086411">
<ele>164.283325</ele>
<time>2010-07-17T18:49:25Z</time>
<desc>lat.=55.704372, lon.=26.086411, Alt.=164.283325m. Speed=0.036000m/h.</desc>
<speed>0.010000</speed>
</trkpt>
<trkpt lat="55.704372" lon="26.086411">
<ele>164.287231</ele>
<time>2010-07-17T18:49:26Z</time>
<desc>lat.=55.704372, lon.=26.086411, Alt.=164.287231m. Speed=0.036000m/h.</desc>
<speed>0.010000</speed>
</trkpt>
<trkpt lat="55.704372" lon="26.086411">
<ele>164.291138</ele>
<time>2010-07-17T18:49:27Z</time>
<desc>lat.=55.704372, lon.=26.086411, Alt.=164.291138m. Speed=0.000000m/h.</desc>
<speed>0.000000</speed>
</trkpt>
<trkpt lat="55.704372" lon="26.086411">
<ele>164.295044</ele>
<time>2010-07-17T18:49:28Z</time>
<desc>lat.=55.704372, lon.=26.086411, Alt.=164.295044m. Speed=0.072000m/h.</desc>
<speed>0.020000</speed>
</trkpt>
<trkpt lat="55.704372" lon="26.086411">
<ele>164.295044</ele>
<time>2010-07-17T18:49:29Z</time>
<desc>lat.=55.704372, lon.=26.086411, Alt.=164.295044m. Speed=0.036000m/h.</desc>
<speed>0.010000</speed>
</trkpt>
<trkpt lat="55.704372" lon="26.086411">
<ele>164.302856</ele>
<time>2010-07-17T18:49:30Z</time>
<desc>lat.=55.704372, lon.=26.086411, Alt.=164.302856m. Speed=0.072000m/h.</desc>
<speed>0.020000</speed>
</trkpt>
<trkpt lat="55.704372" lon="26.086411">
<ele>164.314575</ele>
<time>2010-07-17T18:49:31Z</time>
<desc>lat.=55.704372, lon.=26.086411, Alt.=164.314575m. Speed=0.036000m/h.</desc>
<speed>0.010000</speed>
</trkpt>
<trkpt lat="55.704372" lon="26.086411">
<ele>164.318481</ele>
<time>2010-07-17T18:49:32Z</time>
<desc>lat.=55.704372, lon.=26.086411, Alt.=164.318481m. Speed=0.072000m/h.</desc>
<speed>0.020000</speed>
</trkpt>
<trkpt lat="55.704372" lon="26.086411">
<ele>164.314575</ele>
<time>2010-07-17T18:49:33Z</time>
<desc>lat.=55.704372, lon.=26.086411, Alt.=164.314575m. Speed=0.072000m/h.</desc>
<speed>0.020000</speed>
</trkpt>
<trkpt lat="55.704372" lon="26.086411">
<ele>164.318481</ele>
<time>2010-07-17T18:49:34Z</time>
<desc>lat.=55.704372, lon.=26.086411, Alt.=164.318481m. Speed=0.000000m/h.</desc>
<speed>0.000000</speed>
</trkpt>
<trkpt lat="55.704372" lon="26.086411">
<ele>164.326294</ele>
<time>2010-07-17T18:49:35Z</time>
<desc>lat.=55.704372, lon.=26.086411, Alt.=164.326294m. Speed=0.036000m/h.</desc>
<speed>0.010000</speed>
</trkpt>
<trkpt lat="55.704372" lon="26.086411">
<ele>164.326294</ele>
<time>2010-07-17T18:49:36Z</time>
<desc>lat.=55.704372, lon.=26.086411, Alt.=164.326294m. Speed=0.000000m/h.</desc>
<speed>0.000000</speed>
</trkpt>
<trkpt lat="55.704372" lon="26.086411">
<ele>164.330200</ele>
<time>2010-07-17T18:49:37Z</time>
<desc>lat.=55.704372, lon.=26.086411, Alt.=164.330200m. Speed=0.036000m/h.</desc>
<speed>0.010000</speed>
</trkpt>
<trkpt lat="55.704372" lon="26.086411">
<ele>164.322388</ele>
<time>2010-07-17T18:49:38Z</time>
<desc>lat.=55.704372, lon.=26.086411, Alt.=164.322388m. Speed=0.072000m/h.</desc>
<speed>0.020000</speed>
</trkpt>
<trkpt lat="55.704372" lon="26.086411">
<ele>164.322388</ele>
<time>2010-07-17T18:49:39Z</time>
<desc>lat.=55.704372, lon.=26.086411, Alt.=164.322388m. Speed=0.072000m/h.</desc>
<speed>0.020000</speed>
</trkpt>
<trkpt lat="55.704372" lon="26.086411">
<ele>164.330200</ele>
<time>2010-07-17T18:49:40Z</time>
<desc>lat.=55.704372, lon.=26.086411, Alt.=164.330200m. Speed=0.072000m/h.</desc>
<speed>0.020000</speed>
</trkpt>
<trkpt lat="55.704372" lon="26.086412">
<ele>164.330200</ele>
<time>2010-07-17T18:49:41Z</time>
<desc>lat.=55.704372, lon.=26.086412, Alt.=164.330200m. Speed=0.036000m/h.</desc>
<speed>0.010000</speed>
</trkpt>
<trkpt lat="55.704372" lon="26.086412">
<ele>164.326294</ele>
<time>2010-07-17T18:49:42Z</time>
<desc>lat.=55.704372, lon.=26.086412, Alt.=164.326294m. Speed=0.108000m/h.</desc>
<speed>0.030000</speed>
</trkpt>
<trkpt lat="55.704372" lon="26.086412">
<ele>164.326294</ele>
<time>2010-07-17T18:49:43Z</time>
<desc>lat.=55.704372, lon.=26.086412, Alt.=164.326294m. Speed=0.036000m/h.</desc>
<speed>0.010000</speed>
</trkpt>
<trkpt lat="55.704372" lon="26.086412">
<ele>164.326294</ele>
<time>2010-07-17T18:49:44Z</time>
<desc>lat.=55.704372, lon.=26.086412, Alt.=164.326294m. Speed=0.036000m/h.</desc>
<speed>0.010000</speed>
</trkpt>
<trkpt lat="55.704372" lon="26.086412">
<ele>164.330200</ele>
<time>2010-07-17T18:49:45Z</time>
<desc>lat.=55.704372, lon.=26.086412, Alt.=164.330200m. Speed=0.072000m/h.</desc>
<speed>0.020000</speed>
</trkpt>
<trkpt lat="55.704372" lon="26.086411">
<ele>164.334106</ele>
<time>2010-07-17T18:49:46Z</time>
<desc>lat.=55.704372, lon.=26.086411, Alt.=164.334106m. Speed=0.000000m/h.</desc>
<speed>0.000000</speed>
</trkpt>
<trkpt lat="55.704372" lon="26.086411">
<ele>164.338013</ele>
<time>2010-07-17T18:49:47Z</time>
<desc>lat.=55.704372, lon.=26.086411, Alt.=164.338013m. Speed=0.000000m/h.</desc>
<speed>0.000000</speed>
</trkpt>
<trkpt lat="55.704372" lon="26.086412">
<ele>164.341919</ele>
<time>2010-07-17T18:49:48Z</time>
<desc>lat.=55.704372, lon.=26.086412, Alt.=164.341919m. Speed=0.000000m/h.</desc>
<speed>0.000000</speed>
</trkpt>
<trkpt lat="55.704372" lon="26.086412">
<ele>164.345825</ele>
<time>2010-07-17T18:49:49Z</time>
<desc>lat.=55.704372, lon.=26.086412, Alt.=164.345825m. Speed=0.000000m/h.</desc>
<speed>0.000000</speed>
</trkpt>
<trkpt lat="55.704372" lon="26.086412">
<ele>164.345825</ele>
<time>2010-07-17T18:49:50Z</time>
<desc>lat.=55.704372, lon.=26.086412, Alt.=164.345825m. Speed=0.036000m/h.</desc>
<speed>0.010000</speed>
</trkpt>
<trkpt lat="55.704372" lon="26.086412">
<ele>164.345825</ele>
<time>2010-07-17T18:49:51Z</time>
<desc>lat.=55.704372, lon.=26.086412, Alt.=164.345825m. Speed=0.108000m/h.</desc>
<speed>0.030000</speed>
</trkpt>
<trkpt lat="55.704372" lon="26.086412">
<ele>164.349731</ele>
<time>2010-07-17T18:49:52Z</time>
<desc>lat.=55.704372, lon.=26.086412, Alt.=164.349731m. Speed=0.108000m/h.</desc>
<speed>0.030000</speed>
</trkpt>
<trkpt lat="55.704372" lon="26.086411">
<ele>164.353638</ele>
<time>2010-07-17T18:49:53Z</time>
<desc>lat.=55.704372, lon.=26.086411, Alt.=164.353638m. Speed=0.108000m/h.</desc>
<speed>0.030000</speed>
</trkpt>
<trkpt lat="55.704372" lon="26.086411">
<ele>164.353638</ele>
<time>2010-07-17T18:49:54Z</time>
<desc>lat.=55.704372, lon.=26.086411, Alt.=164.353638m. Speed=0.000000m/h.</desc>
<speed>0.000000</speed>
</trkpt>
<trkpt lat="55.704372" lon="26.086411">
<ele>164.357544</ele>
<time>2010-07-17T18:49:55Z</time>
<desc>lat.=55.704372, lon.=26.086411, Alt.=164.357544m. Speed=0.072000m/h.</desc>
<speed>0.020000</speed>
</trkpt>
<trkpt lat="55.704372" lon="26.086411">
<ele>164.357544</ele>
<time>2010-07-17T18:49:56Z</time>
<desc>lat.=55.704372, lon.=26.086411, Alt.=164.357544m. Speed=0.108000m/h.</desc>
<speed>0.030000</speed>
</trkpt>
<trkpt lat="55.704372" lon="26.086411">
<ele>164.361450</ele>
<time>2010-07-17T18:49:57Z</time>
<desc>lat.=55.704372, lon.=26.086411, Alt.=164.361450m. Speed=0.036000m/h.</desc>
<speed>0.010000</speed>
</trkpt>
<trkpt lat="55.704372" lon="26.086411">
<ele>164.365356</ele>
<time>2010-07-17T18:49:58Z</time>
<desc>lat.=55.704372, lon.=26.086411, Alt.=164.365356m. Speed=0.108000m/h.</desc>
<speed>0.030000</speed>
</trkpt>
<trkpt lat="55.704372" lon="26.086411">
<ele>164.365356</ele>
<time>2010-07-17T18:49:59Z</time>
<desc>lat.=55.704372, lon.=26.086411, Alt.=164.365356m. Speed=0.108000m/h.</desc>
<speed>0.030000</speed>
</trkpt>
<trkpt lat="55.704372" lon="26.086411">
<ele>164.369263</ele>
<time>2010-07-17T18:50:00Z</time>
<desc>lat.=55.704372, lon.=26.086411, Alt.=164.369263m. Speed=0.072000m/h.</desc>
<speed>0.020000</speed>
</trkpt>
<trkpt lat="55.704372" lon="26.086411">
<ele>164.369263</ele>
<time>2010-07-17T18:50:01Z</time>
<desc>lat.=55.704372, lon.=26.086411, Alt.=164.369263m. Speed=0.072000m/h.</desc>
<speed>0.020000</speed>
</trkpt>
<trkpt lat="55.704372" lon="26.086411">
<ele>164.369263</ele>
<time>2010-07-17T18:50:02Z</time>
<desc>lat.=55.704372, lon.=26.086411, Alt.=164.369263m. Speed=0.036000m/h.</desc>
<speed>0.010000</speed>
</trkpt>
<trkpt lat="55.704372" lon="26.086411">
<ele>164.373169</ele>
<time>2010-07-17T18:50:03Z</time>
<desc>lat.=55.704372, lon.=26.086411, Alt.=164.373169m. Speed=0.036000m/h.</desc>
<speed>0.010000</speed>
</trkpt>
<trkpt lat="55.704372" lon="26.086411">
<ele>164.369263</ele>
<time>2010-07-17T18:50:04Z</time>
<desc>lat.=55.704372, lon.=26.086411, Alt.=164.369263m. Speed=0.144000m/h.</desc>
<speed>0.040000</speed>
</trkpt>
<trkpt lat="55.704372" lon="26.086411">
<ele>164.369263</ele>
<time>2010-07-17T18:50:05Z</time>
<desc>lat.=55.704372, lon.=26.086411, Alt.=164.369263m. Speed=0.108000m/h.</desc>
<speed>0.030000</speed>
</trkpt>
<trkpt lat="55.704372" lon="26.086411">
<ele>164.377075</ele>
<time>2010-07-17T18:50:06Z</time>
<desc>lat.=55.704372, lon.=26.086411, Alt.=164.377075m. Speed=0.072000m/h.</desc>
<speed>0.020000</speed>
</trkpt>
<trkpt lat="55.704372" lon="26.086411">
<ele>164.377075</ele>
<time>2010-07-17T18:50:07Z</time>
<desc>lat.=55.704372, lon.=26.086411, Alt.=164.377075m. Speed=0.072000m/h.</desc>
<speed>0.020000</speed>
</trkpt>
<trkpt lat="55.704372" lon="26.086409">
<ele>164.377075</ele>
<time>2010-07-17T18:50:08Z</time>
<desc>lat.=55.704372, lon.=26.086409, Alt.=164.377075m. Speed=0.000000m/h.</desc>
<speed>0.000000</speed>
</trkpt>
<trkpt lat="55.704372" lon="26.086409">
<ele>164.380981</ele>
<time>2010-07-17T18:50:09Z</time>
<desc>lat.=55.704372, lon.=26.086409, Alt.=164.380981m. Speed=0.000000m/h.</desc>
<speed>0.000000</speed>
</trkpt>
<trkpt lat="55.704372" lon="26.086409">
<ele>164.380981</ele>
<time>2010-07-17T18:50:10Z</time>
<desc>lat.=55.704372, lon.=26.086409, Alt.=164.380981m. Speed=0.072000m/h.</desc>
<speed>0.020000</speed>
</trkpt>
<trkpt lat="55.704372" lon="26.086409">
<ele>164.384888</ele>
<time>2010-07-17T18:50:11Z</time>
<desc>lat.=55.704372, lon.=26.086409, Alt.=164.384888m. Speed=0.000000m/h.</desc>
<speed>0.000000</speed>
</trkpt>
<trkpt lat="55.704372" lon="26.086409">
<ele>164.384888</ele>
<time>2010-07-17T18:50:12Z</time>
<desc>lat.=55.704372, lon.=26.086409, Alt.=164.384888m. Speed=0.072000m/h.</desc>
<speed>0.020000</speed>
</trkpt>
<trkpt lat="55.704372" lon="26.086409">
<ele>164.392700</ele>
<time>2010-07-17T18:50:13Z</time>
<desc>lat.=55.704372, lon.=26.086409, Alt.=164.392700m. Speed=0.036000m/h.</desc>
<speed>0.010000</speed>
</trkpt>
<trkpt lat="55.704372" lon="26.086409">
<ele>164.388794</ele>
<time>2010-07-17T18:50:14Z</time>
<desc>lat.=55.704372, lon.=26.086409, Alt.=164.388794m. Speed=0.036000m/h.</desc>
<speed>0.010000</speed>
</trkpt>
<trkpt lat="55.704372" lon="26.086409">
<ele>164.388794</ele>
<time>2010-07-17T18:50:15Z</time>
<desc>lat.=55.704372, lon.=26.086409, Alt.=164.388794m. Speed=0.072000m/h.</desc>
<speed>0.020000</speed>
</trkpt>
<trkpt lat="55.704372" lon="26.086409">
<ele>164.388794</ele>
<time>2010-07-17T18:50:16Z</time>
<desc>lat.=55.704372, lon.=26.086409, Alt.=164.388794m. Speed=0.036000m/h.</desc>
<speed>0.010000</speed>
</trkpt>
<trkpt lat="55.704372" lon="26.086409">
<ele>164.392700</ele>
<time>2010-07-17T18:50:17Z</time>
<desc>lat.=55.704372, lon.=26.086409, Alt.=164.392700m. Speed=0.108000m/h.</desc>
<speed>0.030000</speed>
</trkpt>
<trkpt lat="55.704372" lon="26.086409">
<ele>164.388794</ele>
<time>2010-07-17T18:50:18Z</time>
<desc>lat.=55.704372, lon.=26.086409, Alt.=164.388794m. Speed=0.036000m/h.</desc>
<speed>0.010000</speed>
</trkpt>
<trkpt lat="55.704372" lon="26.086409">
<ele>164.388794</ele>
<time>2010-07-17T18:50:19Z</time>
<desc>lat.=55.704372, lon.=26.086409, Alt.=164.388794m. Speed=0.000000m/h.</desc>
<speed>0.000000</speed>
</trkpt>
<trkpt lat="55.704372" lon="26.086409">
<ele>164.380981</ele>
<time>2010-07-17T18:50:20Z</time>
<desc>lat.=55.704372, lon.=26.086409, Alt.=164.380981m. Speed=0.000000m/h.</desc>
<speed>0.000000</speed>
</trkpt>
<trkpt lat="55.704372" lon="26.086409">
<ele>164.373169</ele>
<time>2010-07-17T18:50:21Z</time>
<desc>lat.=55.704372, lon.=26.086409, Alt.=164.373169m. Speed=0.000000m/h.</desc>
<speed>0.000000</speed>
</trkpt>
<trkpt lat="55.704372" lon="26.086409">
<ele>164.369263</ele>
<time>2010-07-17T18:50:22Z</time>
<desc>lat.=55.704372, lon.=26.086409, Alt.=164.369263m. Speed=0.036000m/h.</desc>
<speed>0.010000</speed>
</trkpt>
<trkpt lat="55.704372" lon="26.086409">
<ele>164.353638</ele>
<time>2010-07-17T18:50:23Z</time>
<desc>lat.=55.704372, lon.=26.086409, Alt.=164.353638m. Speed=0.072000m/h.</desc>
<speed>0.020000</speed>
</trkpt>
<trkpt lat="55.704372" lon="26.086409">
<ele>164.353638</ele>
<time>2010-07-17T18:50:24Z</time>
<desc>lat.=55.704372, lon.=26.086409, Alt.=164.353638m. Speed=0.108000m/h.</desc>
<speed>0.030000</speed>
</trkpt>
<trkpt lat="55.704372" lon="26.086409">
<ele>164.353638</ele>
<time>2010-07-17T18:50:25Z</time>
<desc>lat.=55.704372, lon.=26.086409, Alt.=164.353638m. Speed=0.036000m/h.</desc>
<speed>0.010000</speed>
</trkpt>
<trkpt lat="55.704372" lon="26.086409">
<ele>164.353638</ele>
<time>2010-07-17T18:50:26Z</time>
<desc>lat.=55.704372, lon.=26.086409, Alt.=164.353638m. Speed=0.036000m/h.</desc>
<speed>0.010000</speed>
</trkpt>
<trkpt lat="55.704372" lon="26.086409">
<ele>164.353638</ele>
<time>2010-07-17T18:50:27Z</time>
<desc>lat.=55.704372, lon.=26.086409, Alt.=164.353638m. Speed=0.036000m/h.</desc>
<speed>0.010000</speed>
</trkpt>
<trkpt lat="55.704372" lon="26.086409">
<ele>164.357544</ele>
<time>2010-07-17T18:50:28Z</time>
<desc>lat.=55.704372, lon.=26.086409, Alt.=164.357544m. Speed=0.000000m/h.</desc>
<speed>0.000000</speed>
</trkpt>
<trkpt lat="55.704372" lon="26.086409">
<ele>164.353638</ele>
<time>2010-07-17T18:50:29Z</time>
<desc>lat.=55.704372, lon.=26.086409, Alt.=164.353638m. Speed=0.036000m/h.</desc>
<speed>0.010000</speed>
</trkpt>
<trkpt lat="55.704372" lon="26.086409">
<ele>164.353638</ele>
<time>2010-07-17T18:50:30Z</time>
<desc>lat.=55.704372, lon.=26.086409, Alt.=164.353638m. Speed=0.036000m/h.</desc>
<speed>0.010000</speed>
</trkpt>
<trkpt lat="55.704372" lon="26.086409">
<ele>164.353638</ele>
<time>2010-07-17T18:50:31Z</time>
<desc>lat.=55.704372, lon.=26.086409, Alt.=164.353638m. Speed=0.072000m/h.</desc>
<speed>0.020000</speed>
</trkpt>
<trkpt lat="55.704372" lon="26.086409">
<ele>164.349731</ele>
<time>2010-07-17T18:50:32Z</time>
<desc>lat.=55.704372, lon.=26.086409, Alt.=164.349731m. Speed=0.036000m/h.</desc>
<speed>0.010000</speed>
</trkpt>
<trkpt lat="55.704372" lon="26.086409">
<ele>164.353638</ele>
<time>2010-07-17T18:50:33Z</time>
<desc>lat.=55.704372, lon.=26.086409, Alt.=164.353638m. Speed=0.108000m/h.</desc>
<speed>0.030000</speed>
</trkpt>
<trkpt lat="55.704372" lon="26.086409">
<ele>164.353638</ele>
<time>2010-07-17T18:50:34Z</time>
<desc>lat.=55.704372, lon.=26.086409, Alt.=164.353638m. Speed=0.036000m/h.</desc>
<speed>0.010000</speed>
</trkpt>
<trkpt lat="55.704372" lon="26.086409">
<ele>164.353638</ele>
<time>2010-07-17T18:50:35Z</time>
<desc>lat.=55.704372, lon.=26.086409, Alt.=164.353638m. Speed=0.036000m/h.</desc>
<speed>0.010000</speed>
</trkpt>
<trkpt lat="55.704372" lon="26.086409">
<ele>164.353638</ele>
<time>2010-07-17T18:50:36Z</time>
<desc>lat.=55.704372, lon.=26.086409, Alt.=164.353638m. Speed=0.036000m/h.</desc>
<speed>0.010000</speed>
</trkpt>
<trkpt lat="55.704372" lon="26.086409">
<ele>164.353638</ele>
<time>2010-07-17T18:50:37Z</time>
<desc>lat.=55.704372, lon.=26.086409, Alt.=164.353638m. Speed=0.072000m/h.</desc>
<speed>0.020000</speed>
</trkpt>
<trkpt lat="55.704372" lon="26.086411">
<ele>164.353638</ele>
<time>2010-07-17T18:50:38Z</time>
<desc>lat.=55.704372, lon.=26.086411, Alt.=164.353638m. Speed=0.000000m/h.</desc>
<speed>0.000000</speed>
</trkpt>
<trkpt lat="55.704372" lon="26.086411">
<ele>164.349731</ele>
<time>2010-07-17T18:50:39Z</time>
<desc>lat.=55.704372, lon.=26.086411, Alt.=164.349731m. Speed=0.072000m/h.</desc>
<speed>0.020000</speed>
</trkpt>
<trkpt lat="55.704372" lon="26.086411">
<ele>164.345825</ele>
<time>2010-07-17T18:50:40Z</time>
<desc>lat.=55.704372, lon.=26.086411, Alt.=164.345825m. Speed=0.000000m/h.</desc>
<speed>0.000000</speed>
</trkpt>
<trkpt lat="55.704372" lon="26.086411">
<ele>164.345825</ele>
<time>2010-07-17T18:50:41Z</time>
<desc>lat.=55.704372, lon.=26.086411, Alt.=164.345825m. Speed=0.072000m/h.</desc>
<speed>0.020000</speed>
</trkpt>
<trkpt lat="55.704372" lon="26.086411">
<ele>164.341919</ele>
<time>2010-07-17T18:50:42Z</time>
<desc>lat.=55.704372, lon.=26.086411, Alt.=164.341919m. Speed=0.000000m/h.</desc>
<speed>0.000000</speed>
</trkpt>
<trkpt lat="55.704372" lon="26.086411">
<ele>164.341919</ele>
<time>2010-07-17T18:50:43Z</time>
<desc>lat.=55.704372, lon.=26.086411, Alt.=164.341919m. Speed=0.072000m/h.</desc>
<speed>0.020000</speed>
</trkpt>
<trkpt lat="55.704372" lon="26.086411">
<ele>164.345825</ele>
<time>2010-07-17T18:50:44Z</time>
<desc>lat.=55.704372, lon.=26.086411, Alt.=164.345825m. Speed=0.036000m/h.</desc>
<speed>0.010000</speed>
</trkpt>
<trkpt lat="55.704372" lon="26.086411">
<ele>164.345825</ele>
<time>2010-07-17T18:50:45Z</time>
<desc>lat.=55.704372, lon.=26.086411, Alt.=164.345825m. Speed=0.000000m/h.</desc>
<speed>0.000000</speed>
</trkpt>
<trkpt lat="55.704372" lon="26.086411">
<ele>164.353638</ele>
<time>2010-07-17T18:50:46Z</time>
<desc>lat.=55.704372, lon.=26.086411, Alt.=164.353638m. Speed=0.000000m/h.</desc>
<speed>0.000000</speed>
</trkpt>
<trkpt lat="55.704372" lon="26.086411">
<ele>164.353638</ele>
<time>2010-07-17T18:50:47Z</time>
<desc>lat.=55.704372, lon.=26.086411, Alt.=164.353638m. Speed=0.036000m/h.</desc>
<speed>0.010000</speed>
</trkpt>
<trkpt lat="55.704372" lon="26.086411">
<ele>164.365356</ele>
<time>2010-07-17T18:50:48Z</time>
<desc>lat.=55.704372, lon.=26.086411, Alt.=164.365356m. Speed=0.036000m/h.</desc>
<speed>0.010000</speed>
</trkpt>
<trkpt lat="55.704372" lon="26.086411">
<ele>164.373169</ele>
<time>2010-07-17T18:50:49Z</time>
<desc>lat.=55.704372, lon.=26.086411, Alt.=164.373169m. Speed=0.108000m/h.</desc>
<speed>0.030000</speed>
</trkpt>
<trkpt lat="55.704372" lon="26.086411">
<ele>164.380981</ele>
<time>2010-07-17T18:50:50Z</time>
<desc>lat.=55.704372, lon.=26.086411, Alt.=164.380981m. Speed=0.072000m/h.</desc>
<speed>0.020000</speed>
</trkpt>
<trkpt lat="55.704372" lon="26.086411">
<ele>164.384888</ele>
<time>2010-07-17T18:50:51Z</time>
<desc>lat.=55.704372, lon.=26.086411, Alt.=164.384888m. Speed=0.144000m/h.</desc>
<speed>0.040000</speed>
</trkpt>
<trkpt lat="55.704372" lon="26.086411">
<ele>164.388794</ele>
<time>2010-07-17T18:50:52Z</time>
<desc>lat.=55.704372, lon.=26.086411, Alt.=164.388794m. Speed=0.072000m/h.</desc>
<speed>0.020000</speed>
</trkpt>
<trkpt lat="55.704372" lon="26.086411">
<ele>164.396606</ele>
<time>2010-07-17T18:50:53Z</time>
<desc>lat.=55.704372, lon.=26.086411, Alt.=164.396606m. Speed=0.036000m/h.</desc>
<speed>0.010000</speed>
</trkpt>
<trkpt lat="55.704372" lon="26.086411">
<ele>164.400513</ele>
<time>2010-07-17T18:50:54Z</time>
<desc>lat.=55.704372, lon.=26.086411, Alt.=164.400513m. Speed=0.000000m/h.</desc>
<speed>0.000000</speed>
</trkpt>
<trkpt lat="55.704372" lon="26.086411">
<ele>164.396606</ele>
<time>2010-07-17T18:50:55Z</time>
<desc>lat.=55.704372, lon.=26.086411, Alt.=164.396606m. Speed=0.036000m/h.</desc>
<speed>0.010000</speed>
</trkpt>
<trkpt lat="55.704372" lon="26.086411">
<ele>164.400513</ele>
<time>2010-07-17T18:50:56Z</time>
<desc>lat.=55.704372, lon.=26.086411, Alt.=164.400513m. Speed=0.036000m/h.</desc>
<speed>0.010000</speed>
</trkpt>
<trkpt lat="55.704372" lon="26.086411">
<ele>164.404419</ele>
<time>2010-07-17T18:50:57Z</time>
<desc>lat.=55.704372, lon.=26.086411, Alt.=164.404419m. Speed=0.036000m/h.</desc>
<speed>0.010000</speed>
</trkpt>
<trkpt lat="55.704369" lon="26.086411">
<ele>164.408325</ele>
<time>2010-07-17T18:50:58Z</time>
<desc>lat.=55.704369, lon.=26.086411, Alt.=164.408325m. Speed=0.144000m/h.</desc>
<speed>0.040000</speed>
</trkpt>
<trkpt lat="55.704369" lon="26.086409">
<ele>164.416138</ele>
<time>2010-07-17T18:50:59Z</time>
<desc>lat.=55.704369, lon.=26.086409, Alt.=164.416138m. Speed=0.000000m/h.</desc>
<speed>0.000000</speed>
</trkpt>
<trkpt lat="55.704369" lon="26.086409">
<ele>164.420044</ele>
<time>2010-07-17T18:51:00Z</time>
<desc>lat.=55.704369, lon.=26.086409, Alt.=164.420044m. Speed=0.000000m/h.</desc>
<speed>0.000000</speed>
</trkpt>
<trkpt lat="55.704369" lon="26.086409">
<ele>164.423950</ele>
<time>2010-07-17T18:51:01Z</time>
<desc>lat.=55.704369, lon.=26.086409, Alt.=164.423950m. Speed=0.000000m/h.</desc>
<speed>0.000000</speed>
</trkpt>
<trkpt lat="55.704369" lon="26.086409">
<ele>164.427856</ele>
<time>2010-07-17T18:51:02Z</time>
<desc>lat.=55.704369, lon.=26.086409, Alt.=164.427856m. Speed=0.072000m/h.</desc>
<speed>0.020000</speed>
</trkpt>
<trkpt lat="55.704369" lon="26.086409">
<ele>164.427856</ele>
<time>2010-07-17T18:51:03Z</time>
<desc>lat.=55.704369, lon.=26.086409, Alt.=164.427856m. Speed=0.000000m/h.</desc>
<speed>0.000000</speed>
</trkpt>
<trkpt lat="55.704369" lon="26.086409">
<ele>164.431763</ele>
<time>2010-07-17T18:51:04Z</time>
<desc>lat.=55.704369, lon.=26.086409, Alt.=164.431763m. Speed=0.036000m/h.</desc>
<speed>0.010000</speed>
</trkpt>
<trkpt lat="55.704369" lon="26.086409">
<ele>164.431763</ele>
<time>2010-07-17T18:51:05Z</time>
<desc>lat.=55.704369, lon.=26.086409, Alt.=164.431763m. Speed=0.000000m/h.</desc>
<speed>0.000000</speed>
</trkpt>
<trkpt lat="55.704369" lon="26.086409">
<ele>164.431763</ele>
<time>2010-07-17T18:51:06Z</time>
<desc>lat.=55.704369, lon.=26.086409, Alt.=164.431763m. Speed=0.072000m/h.</desc>
<speed>0.020000</speed>
</trkpt>
<trkpt lat="55.704369" lon="26.086409">
<ele>164.435669</ele>
<time>2010-07-17T18:51:07Z</time>
<desc>lat.=55.704369, lon.=26.086409, Alt.=164.435669m. Speed=0.072000m/h.</desc>
<speed>0.020000</speed>
</trkpt>
<trkpt lat="55.704369" lon="26.086409">
<ele>164.435669</ele>
<time>2010-07-17T18:51:08Z</time>
<desc>lat.=55.704369, lon.=26.086409, Alt.=164.435669m. Speed=0.036000m/h.</desc>
<speed>0.010000</speed>
</trkpt>
<trkpt lat="55.704369" lon="26.086409">
<ele>164.435669</ele>
<time>2010-07-17T18:51:09Z</time>
<desc>lat.=55.704369, lon.=26.086409, Alt.=164.435669m. Speed=0.072000m/h.</desc>
<speed>0.020000</speed>
</trkpt>
<trkpt lat="55.704369" lon="26.086409">
<ele>164.439575</ele>
<time>2010-07-17T18:51:10Z</time>
<desc>lat.=55.704369, lon.=26.086409, Alt.=164.439575m. Speed=0.000000m/h.</desc>
<speed>0.000000</speed>
</trkpt>
<trkpt lat="55.704369" lon="26.086409">
<ele>164.447388</ele>
<time>2010-07-17T18:51:11Z</time>
<desc>lat.=55.704369, lon.=26.086409, Alt.=164.447388m. Speed=0.072000m/h.</desc>
<speed>0.020000</speed>
</trkpt>
<trkpt lat="55.704369" lon="26.086409">
<ele>164.451294</ele>
<time>2010-07-17T18:51:12Z</time>
<desc>lat.=55.704369, lon.=26.086409, Alt.=164.451294m. Speed=0.108000m/h.</desc>
<speed>0.030000</speed>
</trkpt>
<trkpt lat="55.704369" lon="26.086409">
<ele>164.451294</ele>
<time>2010-07-17T18:51:13Z</time>
<desc>lat.=55.704369, lon.=26.086409, Alt.=164.451294m. Speed=0.072000m/h.</desc>
<speed>0.020000</speed>
</trkpt>
<trkpt lat="55.704369" lon="26.086409">
<ele>164.451294</ele>
<time>2010-07-17T18:51:14Z</time>
<desc>lat.=55.704369, lon.=26.086409, Alt.=164.451294m. Speed=0.036000m/h.</desc>
<speed>0.010000</speed>
</trkpt>
<trkpt lat="55.704369" lon="26.086409">
<ele>164.455200</ele>
<time>2010-07-17T18:51:15Z</time>
<desc>lat.=55.704369, lon.=26.086409, Alt.=164.455200m. Speed=0.036000m/h.</desc>
<speed>0.010000</speed>
</trkpt>
<trkpt lat="55.704369" lon="26.086409">
<ele>164.455200</ele>
<time>2010-07-17T18:51:16Z</time>
<desc>lat.=55.704369, lon.=26.086409, Alt.=164.455200m. Speed=0.000000m/h.</desc>
<speed>0.000000</speed>
</trkpt>
<trkpt lat="55.704369" lon="26.086409">
<ele>164.455200</ele>
<time>2010-07-17T18:51:17Z</time>
<desc>lat.=55.704369, lon.=26.086409, Alt.=164.455200m. Speed=0.072000m/h.</desc>
<speed>0.020000</speed>
</trkpt>
<trkpt lat="55.704369" lon="26.086409">
<ele>164.455200</ele>
<time>2010-07-17T18:51:18Z</time>
<desc>lat.=55.704369, lon.=26.086409, Alt.=164.455200m. Speed=0.000000m/h.</desc>
<speed>0.000000</speed>
</trkpt>
<trkpt lat="55.704369" lon="26.086409">
<ele>164.455200</ele>
<time>2010-07-17T18:51:19Z</time>
<desc>lat.=55.704369, lon.=26.086409, Alt.=164.455200m. Speed=0.000000m/h.</desc>
<speed>0.000000</speed>
</trkpt>
<trkpt lat="55.704369" lon="26.086409">
<ele>164.451294</ele>
<time>2010-07-17T18:51:20Z</time>
<desc>lat.=55.704369, lon.=26.086409, Alt.=164.451294m. Speed=0.036000m/h.</desc>
<speed>0.010000</speed>
</trkpt>
<trkpt lat="55.704369" lon="26.086409">
<ele>164.455200</ele>
<time>2010-07-17T18:51:21Z</time>
<desc>lat.=55.704369, lon.=26.086409, Alt.=164.455200m. Speed=0.036000m/h.</desc>
<speed>0.010000</speed>
</trkpt>
<trkpt lat="55.704369" lon="26.086409">
<ele>164.455200</ele>
<time>2010-07-17T18:51:22Z</time>
<desc>lat.=55.704369, lon.=26.086409, Alt.=164.455200m. Speed=0.000000m/h.</desc>
<speed>0.000000</speed>
</trkpt>
<trkpt lat="55.704369" lon="26.086409">
<ele>164.451294</ele>
<time>2010-07-17T18:51:23Z</time>
<desc>lat.=55.704369, lon.=26.086409, Alt.=164.451294m. Speed=0.000000m/h.</desc>
<speed>0.000000</speed>
</trkpt>
<trkpt lat="55.704369" lon="26.086409">
<ele>164.451294</ele>
<time>2010-07-17T18:51:24Z</time>
<desc>lat.=55.704369, lon.=26.086409, Alt.=164.451294m. Speed=0.036000m/h.</desc>
<speed>0.010000</speed>
</trkpt>
<trkpt lat="55.704369" lon="26.086409">
<ele>164.451294</ele>
<time>2010-07-17T18:51:25Z</time>
<desc>lat.=55.704369, lon.=26.086409, Alt.=164.451294m. Speed=0.036000m/h.</desc>
<speed>0.010000</speed>
</trkpt>
<trkpt lat="55.704369" lon="26.086409">
<ele>164.451294</ele>
<time>2010-07-17T18:51:26Z</time>
<desc>lat.=55.704369, lon.=26.086409, Alt.=164.451294m. Speed=0.036000m/h.</desc>
<speed>0.010000</speed>
</trkpt>
<trkpt lat="55.704369" lon="26.086409">
<ele>164.451294</ele>
<time>2010-07-17T18:51:27Z</time>
<desc>lat.=55.704369, lon.=26.086409, Alt.=164.451294m. Speed=0.000000m/h.</desc>
<speed>0.000000</speed>
</trkpt>
<trkpt lat="55.704369" lon="26.086409">
<ele>164.451294</ele>
<time>2010-07-17T18:51:28Z</time>
<desc>lat.=55.704369, lon.=26.086409, Alt.=164.451294m. Speed=0.036000m/h.</desc>
<speed>0.010000</speed>
</trkpt>
<trkpt lat="55.704369" lon="26.086409">
<ele>164.451294</ele>
<time>2010-07-17T18:51:29Z</time>
<desc>lat.=55.704369, lon.=26.086409, Alt.=164.451294m. Speed=0.072000m/h.</desc>
<speed>0.020000</speed>
</trkpt>
<trkpt lat="55.704369" lon="26.086409">
<ele>164.451294</ele>
<time>2010-07-17T18:51:30Z</time>
<desc>lat.=55.704369, lon.=26.086409, Alt.=164.451294m. Speed=0.036000m/h.</desc>
<speed>0.010000</speed>
</trkpt>
<trkpt lat="55.704369" lon="26.086409">
<ele>164.455200</ele>
<time>2010-07-17T18:51:31Z</time>
<desc>lat.=55.704369, lon.=26.086409, Alt.=164.455200m. Speed=0.072000m/h.</desc>
<speed>0.020000</speed>
</trkpt>
<trkpt lat="55.704369" lon="26.086407">
<ele>164.455200</ele>
<time>2010-07-17T18:51:32Z</time>
<desc>lat.=55.704369, lon.=26.086407, Alt.=164.455200m. Speed=0.036000m/h.</desc>
<speed>0.010000</speed>
</trkpt>
<trkpt lat="55.704369" lon="26.086407">
<ele>164.455200</ele>
<time>2010-07-17T18:51:33Z</time>
<desc>lat.=55.704369, lon.=26.086407, Alt.=164.455200m. Speed=0.000000m/h.</desc>
<speed>0.000000</speed>
</trkpt>
<trkpt lat="55.704369" lon="26.086407">
<ele>164.459106</ele>
<time>2010-07-17T18:51:34Z</time>
<desc>lat.=55.704369, lon.=26.086407, Alt.=164.459106m. Speed=0.108000m/h.</desc>
<speed>0.030000</speed>
</trkpt>
<trkpt lat="55.704369" lon="26.086407">
<ele>164.463013</ele>
<time>2010-07-17T18:51:35Z</time>
<desc>lat.=55.704369, lon.=26.086407, Alt.=164.463013m. Speed=0.144000m/h.</desc>
<speed>0.040000</speed>
</trkpt>
<trkpt lat="55.704369" lon="26.086407">
<ele>164.463013</ele>
<time>2010-07-17T18:51:36Z</time>
<desc>lat.=55.704369, lon.=26.086407, Alt.=164.463013m. Speed=0.108000m/h.</desc>
<speed>0.030000</speed>
</trkpt>
<trkpt lat="55.704369" lon="26.086407">
<ele>164.466919</ele>
<time>2010-07-17T18:51:37Z</time>
<desc>lat.=55.704369, lon.=26.086407, Alt.=164.466919m. Speed=0.144000m/h.</desc>
<speed>0.040000</speed>
</trkpt>
<trkpt lat="55.704369" lon="26.086407">
<ele>164.466919</ele>
<time>2010-07-17T18:51:38Z</time>
<desc>lat.=55.704369, lon.=26.086407, Alt.=164.466919m. Speed=0.108000m/h.</desc>
<speed>0.030000</speed>
</trkpt>
<trkpt lat="55.704369" lon="26.086407">
<ele>164.470825</ele>
<time>2010-07-17T18:51:39Z</time>
<desc>lat.=55.704369, lon.=26.086407, Alt.=164.470825m. Speed=0.036000m/h.</desc>
<speed>0.010000</speed>
</trkpt>
<trkpt lat="55.704369" lon="26.086407">
<ele>164.470825</ele>
<time>2010-07-17T18:51:40Z</time>
<desc>lat.=55.704369, lon.=26.086407, Alt.=164.470825m. Speed=0.144000m/h.</desc>
<speed>0.040000</speed>
</trkpt>
<trkpt lat="55.704369" lon="26.086407">
<ele>164.470825</ele>
<time>2010-07-17T18:51:41Z</time>
<desc>lat.=55.704369, lon.=26.086407, Alt.=164.470825m. Speed=0.144000m/h.</desc>
<speed>0.040000</speed>
</trkpt>
<trkpt lat="55.704369" lon="26.086407">
<ele>164.466919</ele>
<time>2010-07-17T18:51:42Z</time>
<desc>lat.=55.704369, lon.=26.086407, Alt.=164.466919m. Speed=0.180000m/h.</desc>
<speed>0.050000</speed>
</trkpt>
<trkpt lat="55.704369" lon="26.086407">
<ele>164.466919</ele>
<time>2010-07-17T18:51:43Z</time>
<desc>lat.=55.704369, lon.=26.086407, Alt.=164.466919m. Speed=0.072000m/h.</desc>
<speed>0.020000</speed>
</trkpt>
<trkpt lat="55.704369" lon="26.086407">
<ele>164.463013</ele>
<time>2010-07-17T18:51:44Z</time>
<desc>lat.=55.704369, lon.=26.086407, Alt.=164.463013m. Speed=0.072000m/h.</desc>
<speed>0.020000</speed>
</trkpt>
<trkpt lat="55.704369" lon="26.086407">
<ele>164.466919</ele>
<time>2010-07-17T18:51:45Z</time>
<desc>lat.=55.704369, lon.=26.086407, Alt.=164.466919m. Speed=0.036000m/h.</desc>
<speed>0.010000</speed>
</trkpt>
<trkpt lat="55.704369" lon="26.086407">
<ele>164.474731</ele>
<time>2010-07-17T18:51:46Z</time>
<desc>lat.=55.704369, lon.=26.086407, Alt.=164.474731m. Speed=0.000000m/h.</desc>
<speed>0.000000</speed>
</trkpt>
<trkpt lat="55.704369" lon="26.086407">
<ele>164.470825</ele>
<time>2010-07-17T18:51:47Z</time>
<desc>lat.=55.704369, lon.=26.086407, Alt.=164.470825m. Speed=0.108000m/h.</desc>
<speed>0.030000</speed>
</trkpt>
<trkpt lat="55.704369" lon="26.086407">
<ele>164.470825</ele>
<time>2010-07-17T18:51:48Z</time>
<desc>lat.=55.704369, lon.=26.086407, Alt.=164.470825m. Speed=0.036000m/h.</desc>
<speed>0.010000</speed>
</trkpt>
<trkpt lat="55.704369" lon="26.086407">
<ele>164.463013</ele>
<time>2010-07-17T18:51:49Z</time>
<desc>lat.=55.704369, lon.=26.086407, Alt.=164.463013m. Speed=0.180000m/h.</desc>
<speed>0.050000</speed>
</trkpt>
<trkpt lat="55.704369" lon="26.086407">
<ele>164.455200</ele>
<time>2010-07-17T18:51:50Z</time>
<desc>lat.=55.704369, lon.=26.086407, Alt.=164.455200m. Speed=0.144000m/h.</desc>
<speed>0.040000</speed>
</trkpt>
<trkpt lat="55.704369" lon="26.086407">
<ele>164.435669</ele>
<time>2010-07-17T18:51:51Z</time>
<desc>lat.=55.704369, lon.=26.086407, Alt.=164.435669m. Speed=0.144000m/h.</desc>
<speed>0.040000</speed>
</trkpt>
<trkpt lat="55.704369" lon="26.086407">
<ele>164.404419</ele>
<time>2010-07-17T18:51:52Z</time>
<desc>lat.=55.704369, lon.=26.086407, Alt.=164.404419m. Speed=0.036000m/h.</desc>
<speed>0.010000</speed>
</trkpt>
<trkpt lat="55.704369" lon="26.086407">
<ele>164.357544</ele>
<time>2010-07-17T18:51:53Z</time>
<desc>lat.=55.704369, lon.=26.086407, Alt.=164.357544m. Speed=0.000000m/h.</desc>
<speed>0.000000</speed>
</trkpt>
<trkpt lat="55.704369" lon="26.086407">
<ele>164.318481</ele>
<time>2010-07-17T18:51:54Z</time>
<desc>lat.=55.704369, lon.=26.086407, Alt.=164.318481m. Speed=0.036000m/h.</desc>
<speed>0.010000</speed>
</trkpt>
<trkpt lat="55.704369" lon="26.086409">
<ele>164.279419</ele>
<time>2010-07-17T18:51:55Z</time>
<desc>lat.=55.704369, lon.=26.086409, Alt.=164.279419m. Speed=0.072000m/h.</desc>
<speed>0.020000</speed>
</trkpt>
<trkpt lat="55.704369" lon="26.086409">
<ele>164.240356</ele>
<time>2010-07-17T18:51:56Z</time>
<desc>lat.=55.704369, lon.=26.086409, Alt.=164.240356m. Speed=0.072000m/h.</desc>
<speed>0.020000</speed>
</trkpt>
<trkpt lat="55.704369" lon="26.086409">
<ele>164.205200</ele>
<time>2010-07-17T18:51:57Z</time>
<desc>lat.=55.704369, lon.=26.086409, Alt.=164.205200m. Speed=0.036000m/h.</desc>
<speed>0.010000</speed>
</trkpt>
<trkpt lat="55.704369" lon="26.086409">
<ele>164.170044</ele>
<time>2010-07-17T18:51:58Z</time>
<desc>lat.=55.704369, lon.=26.086409, Alt.=164.170044m. Speed=0.036000m/h.</desc>
<speed>0.010000</speed>
</trkpt>
<trkpt lat="55.704369" lon="26.086409">
<ele>164.142700</ele>
<time>2010-07-17T18:51:59Z</time>
<desc>lat.=55.704369, lon.=26.086409, Alt.=164.142700m. Speed=0.072000m/h.</desc>
<speed>0.020000</speed>
</trkpt>
<trkpt lat="55.704369" lon="26.086409">
<ele>164.115356</ele>
<time>2010-07-17T18:52:00Z</time>
<desc>lat.=55.704369, lon.=26.086409, Alt.=164.115356m. Speed=0.072000m/h.</desc>
<speed>0.020000</speed>
</trkpt>
<trkpt lat="55.704369" lon="26.086409">
<ele>164.095825</ele>
<time>2010-07-17T18:52:01Z</time>
<desc>lat.=55.704369, lon.=26.086409, Alt.=164.095825m. Speed=0.036000m/h.</desc>
<speed>0.010000</speed>
</trkpt>
<trkpt lat="55.704369" lon="26.086409">
<ele>164.084106</ele>
<time>2010-07-17T18:52:02Z</time>
<desc>lat.=55.704369, lon.=26.086409, Alt.=164.084106m. Speed=0.144000m/h.</desc>
<speed>0.040000</speed>
</trkpt>
<trkpt lat="55.704365" lon="26.086407">
<ele>164.080200</ele>
<time>2010-07-17T18:52:03Z</time>
<desc>lat.=55.704365, lon.=26.086407, Alt.=164.080200m. Speed=0.180000m/h.</desc>
<speed>0.050000</speed>
</trkpt>
<trkpt lat="55.704365" lon="26.086407">
<ele>164.076294</ele>
<time>2010-07-17T18:52:04Z</time>
<desc>lat.=55.704365, lon.=26.086407, Alt.=164.076294m. Speed=0.072000m/h.</desc>
<speed>0.020000</speed>
</trkpt>
<trkpt lat="55.704365" lon="26.086407">
<ele>164.064575</ele>
<time>2010-07-17T18:52:05Z</time>
<desc>lat.=55.704365, lon.=26.086407, Alt.=164.064575m. Speed=0.108000m/h.</desc>
<speed>0.030000</speed>
</trkpt>
<trkpt lat="55.704365" lon="26.086407">
<ele>164.064575</ele>
<time>2010-07-17T18:52:06Z</time>
<desc>lat.=55.704365, lon.=26.086407, Alt.=164.064575m. Speed=0.036000m/h.</desc>
<speed>0.010000</speed>
</trkpt>
<trkpt lat="55.704365" lon="26.086407">
<ele>164.056763</ele>
<time>2010-07-17T18:52:07Z</time>
<desc>lat.=55.704365, lon.=26.086407, Alt.=164.056763m. Speed=0.036000m/h.</desc>
<speed>0.010000</speed>
</trkpt>
<trkpt lat="55.704365" lon="26.086407">
<ele>164.048950</ele>
<time>2010-07-17T18:52:08Z</time>
<desc>lat.=55.704365, lon.=26.086407, Alt.=164.048950m. Speed=0.000000m/h.</desc>
<speed>0.000000</speed>
</trkpt>
<trkpt lat="55.704365" lon="26.086407">
<ele>164.037231</ele>
<time>2010-07-17T18:52:09Z</time>
<desc>lat.=55.704365, lon.=26.086407, Alt.=164.037231m. Speed=0.036000m/h.</desc>
<speed>0.010000</speed>
</trkpt>
<trkpt lat="55.704365" lon="26.086407">
<ele>164.033325</ele>
<time>2010-07-17T18:52:10Z</time>
<desc>lat.=55.704365, lon.=26.086407, Alt.=164.033325m. Speed=0.036000m/h.</desc>
<speed>0.010000</speed>
</trkpt>
<trkpt lat="55.704365" lon="26.086407">
<ele>164.037231</ele>
<time>2010-07-17T18:52:11Z</time>
<desc>lat.=55.704365, lon.=26.086407, Alt.=164.037231m. Speed=0.072000m/h.</desc>
<speed>0.020000</speed>
</trkpt>
<trkpt lat="55.704365" lon="26.086407">
<ele>164.041138</ele>
<time>2010-07-17T18:52:12Z</time>
<desc>lat.=55.704365, lon.=26.086407, Alt.=164.041138m. Speed=0.072000m/h.</desc>
<speed>0.020000</speed>
</trkpt>
<trkpt lat="55.704365" lon="26.086407">
<ele>164.037231</ele>
<time>2010-07-17T18:52:13Z</time>
<desc>lat.=55.704365, lon.=26.086407, Alt.=164.037231m. Speed=0.144000m/h.</desc>
<speed>0.040000</speed>
</trkpt>
<trkpt lat="55.704365" lon="26.086407">
<ele>164.033325</ele>
<time>2010-07-17T18:52:14Z</time>
<desc>lat.=55.704365, lon.=26.086407, Alt.=164.033325m. Speed=0.108000m/h.</desc>
<speed>0.030000</speed>
</trkpt>
<trkpt lat="55.704365" lon="26.086407">
<ele>164.029419</ele>
<time>2010-07-17T18:52:15Z</time>
<desc>lat.=55.704365, lon.=26.086407, Alt.=164.029419m. Speed=0.072000m/h.</desc>
<speed>0.020000</speed>
</trkpt>
<trkpt lat="55.704365" lon="26.086407">
<ele>164.021606</ele>
<time>2010-07-17T18:52:16Z</time>
<desc>lat.=55.704365, lon.=26.086407, Alt.=164.021606m. Speed=0.072000m/h.</desc>
<speed>0.020000</speed>
</trkpt>
<trkpt lat="55.704365" lon="26.086407">
<ele>164.009888</ele>
<time>2010-07-17T18:52:17Z</time>
<desc>lat.=55.704365, lon.=26.086407, Alt.=164.009888m. Speed=0.072000m/h.</desc>
<speed>0.020000</speed>
</trkpt>
<trkpt lat="55.704365" lon="26.086407">
<ele>164.002075</ele>
<time>2010-07-17T18:52:18Z</time>
<desc>lat.=55.704365, lon.=26.086407, Alt.=164.002075m. Speed=0.036000m/h.</desc>
<speed>0.010000</speed>
</trkpt>
<trkpt lat="55.704365" lon="26.086407">
<ele>163.998169</ele>
<time>2010-07-17T18:52:19Z</time>
<desc>lat.=55.704365, lon.=26.086407, Alt.=163.998169m. Speed=0.000000m/h.</desc>
<speed>0.000000</speed>
</trkpt>
<trkpt lat="55.704365" lon="26.086407">
<ele>163.990356</ele>
<time>2010-07-17T18:52:20Z</time>
<desc>lat.=55.704365, lon.=26.086407, Alt.=163.990356m. Speed=0.036000m/h.</desc>
<speed>0.010000</speed>
</trkpt>
<trkpt lat="55.704365" lon="26.086407">
<ele>163.978638</ele>
<time>2010-07-17T18:52:21Z</time>
<desc>lat.=55.704365, lon.=26.086407, Alt.=163.978638m. Speed=0.036000m/h.</desc>
<speed>0.010000</speed>
</trkpt>
<trkpt lat="55.704365" lon="26.086407">
<ele>163.974731</ele>
<time>2010-07-17T18:52:22Z</time>
<desc>lat.=55.704365, lon.=26.086407, Alt.=163.974731m. Speed=0.108000m/h.</desc>
<speed>0.030000</speed>
</trkpt>
<trkpt lat="55.704365" lon="26.086407">
<ele>163.966919</ele>
<time>2010-07-17T18:52:23Z</time>
<desc>lat.=55.704365, lon.=26.086407, Alt.=163.966919m. Speed=0.036000m/h.</desc>
<speed>0.010000</speed>
</trkpt>
<trkpt lat="55.704365" lon="26.086407">
<ele>163.955200</ele>
<time>2010-07-17T18:52:24Z</time>
<desc>lat.=55.704365, lon.=26.086407, Alt.=163.955200m. Speed=0.108000m/h.</desc>
<speed>0.030000</speed>
</trkpt>
<trkpt lat="55.704365" lon="26.086407">
<ele>163.959106</ele>
<time>2010-07-17T18:52:25Z</time>
<desc>lat.=55.704365, lon.=26.086407, Alt.=163.959106m. Speed=0.108000m/h.</desc>
<speed>0.030000</speed>
</trkpt>
<trkpt lat="55.704365" lon="26.086407">
<ele>163.959106</ele>
<time>2010-07-17T18:52:26Z</time>
<desc>lat.=55.704365, lon.=26.086407, Alt.=163.959106m. Speed=0.072000m/h.</desc>
<speed>0.020000</speed>
</trkpt>
<trkpt lat="55.704365" lon="26.086407">
<ele>163.959106</ele>
<time>2010-07-17T18:52:27Z</time>
<desc>lat.=55.704365, lon.=26.086407, Alt.=163.959106m. Speed=0.180000m/h.</desc>
<speed>0.050000</speed>
</trkpt>
<trkpt lat="55.704365" lon="26.086407">
<ele>163.970825</ele>
<time>2010-07-17T18:52:28Z</time>
<desc>lat.=55.704365, lon.=26.086407, Alt.=163.970825m. Speed=0.036000m/h.</desc>
<speed>0.010000</speed>
</trkpt>
<trkpt lat="55.704365" lon="26.086407">
<ele>163.978638</ele>
<time>2010-07-17T18:52:29Z</time>
<desc>lat.=55.704365, lon.=26.086407, Alt.=163.978638m. Speed=0.108000m/h.</desc>
<speed>0.030000</speed>
</trkpt>
<trkpt lat="55.704365" lon="26.086407">
<ele>163.974731</ele>
<time>2010-07-17T18:52:30Z</time>
<desc>lat.=55.704365, lon.=26.086407, Alt.=163.974731m. Speed=0.072000m/h.</desc>
<speed>0.020000</speed>
</trkpt>
<trkpt lat="55.704365" lon="26.086407">
<ele>163.978638</ele>
<time>2010-07-17T18:52:31Z</time>
<desc>lat.=55.704365, lon.=26.086407, Alt.=163.978638m. Speed=0.072000m/h.</desc>
<speed>0.020000</speed>
</trkpt>
<trkpt lat="55.704365" lon="26.086407">
<ele>163.990356</ele>
<time>2010-07-17T18:52:32Z</time>
<desc>lat.=55.704365, lon.=26.086407, Alt.=163.990356m. Speed=0.108000m/h.</desc>
<speed>0.030000</speed>
</trkpt>
<trkpt lat="55.704365" lon="26.086407">
<ele>163.994263</ele>
<time>2010-07-17T18:52:33Z</time>
<desc>lat.=55.704365, lon.=26.086407, Alt.=163.994263m. Speed=0.000000m/h.</desc>
<speed>0.000000</speed>
</trkpt>
<trkpt lat="55.704365" lon="26.086407">
<ele>163.998169</ele>
<time>2010-07-17T18:52:34Z</time>
<desc>lat.=55.704365, lon.=26.086407, Alt.=163.998169m. Speed=0.036000m/h.</desc>
<speed>0.010000</speed>
</trkpt>
<trkpt lat="55.704365" lon="26.086407">
<ele>164.002075</ele>
<time>2010-07-17T18:52:35Z</time>
<desc>lat.=55.704365, lon.=26.086407, Alt.=164.002075m. Speed=0.000000m/h.</desc>
<speed>0.000000</speed>
</trkpt>
<trkpt lat="55.704365" lon="26.086407">
<ele>164.009888</ele>
<time>2010-07-17T18:52:36Z</time>
<desc>lat.=55.704365, lon.=26.086407, Alt.=164.009888m. Speed=0.000000m/h.</desc>
<speed>0.000000</speed>
</trkpt>
<trkpt lat="55.704365" lon="26.086407">
<ele>164.013794</ele>
<time>2010-07-17T18:52:37Z</time>
<desc>lat.=55.704365, lon.=26.086407, Alt.=164.013794m. Speed=0.036000m/h.</desc>
<speed>0.010000</speed>
</trkpt>
<trkpt lat="55.704365" lon="26.086407">
<ele>164.009888</ele>
<time>2010-07-17T18:52:38Z</time>
<desc>lat.=55.704365, lon.=26.086407, Alt.=164.009888m. Speed=0.036000m/h.</desc>
<speed>0.010000</speed>
</trkpt>
<trkpt lat="55.704365" lon="26.086407">
<ele>164.009888</ele>
<time>2010-07-17T18:52:39Z</time>
<desc>lat.=55.704365, lon.=26.086407, Alt.=164.009888m. Speed=0.000000m/h.</desc>
<speed>0.000000</speed>
</trkpt>
<trkpt lat="55.704365" lon="26.086407">
<ele>164.005981</ele>
<time>2010-07-17T18:52:40Z</time>
<desc>lat.=55.704365, lon.=26.086407, Alt.=164.005981m. Speed=0.000000m/h.</desc>
<speed>0.000000</speed>
</trkpt>
<trkpt lat="55.704365" lon="26.086407">
<ele>164.005981</ele>
<time>2010-07-17T18:52:41Z</time>
<desc>lat.=55.704365, lon.=26.086407, Alt.=164.005981m. Speed=0.000000m/h.</desc>
<speed>0.000000</speed>
</trkpt>
<trkpt lat="55.704365" lon="26.086407">
<ele>164.002075</ele>
<time>2010-07-17T18:52:42Z</time>
<desc>lat.=55.704365, lon.=26.086407, Alt.=164.002075m. Speed=0.000000m/h.</desc>
<speed>0.000000</speed>
</trkpt>
<trkpt lat="55.704365" lon="26.086407">
<ele>164.002075</ele>
<time>2010-07-17T18:52:43Z</time>
<desc>lat.=55.704365, lon.=26.086407, Alt.=164.002075m. Speed=0.036000m/h.</desc>
<speed>0.010000</speed>
</trkpt>
<trkpt lat="55.704365" lon="26.086407">
<ele>164.005981</ele>
<time>2010-07-17T18:52:44Z</time>
<desc>lat.=55.704365, lon.=26.086407, Alt.=164.005981m. Speed=0.000000m/h.</desc>
<speed>0.000000</speed>
</trkpt>
<trkpt lat="55.704365" lon="26.086407">
<ele>164.009888</ele>
<time>2010-07-17T18:52:45Z</time>
<desc>lat.=55.704365, lon.=26.086407, Alt.=164.009888m. Speed=0.072000m/h.</desc>
<speed>0.020000</speed>
</trkpt>
<trkpt lat="55.704365" lon="26.086407">
<ele>164.017700</ele>
<time>2010-07-17T18:52:46Z</time>
<desc>lat.=55.704365, lon.=26.086407, Alt.=164.017700m. Speed=0.036000m/h.</desc>
<speed>0.010000</speed>
</trkpt>
<trkpt lat="55.704365" lon="26.086407">
<ele>164.021606</ele>
<time>2010-07-17T18:52:47Z</time>
<desc>lat.=55.704365, lon.=26.086407, Alt.=164.021606m. Speed=0.036000m/h.</desc>
<speed>0.010000</speed>
</trkpt>
<trkpt lat="55.704365" lon="26.086407">
<ele>164.021606</ele>
<time>2010-07-17T18:52:48Z</time>
<desc>lat.=55.704365, lon.=26.086407, Alt.=164.021606m. Speed=0.036000m/h.</desc>
<speed>0.010000</speed>
</trkpt>
<trkpt lat="55.704365" lon="26.086407">
<ele>164.033325</ele>
<time>2010-07-17T18:52:49Z</time>
<desc>lat.=55.704365, lon.=26.086407, Alt.=164.033325m. Speed=0.072000m/h.</desc>
<speed>0.020000</speed>
</trkpt>
<trkpt lat="55.704365" lon="26.086407">
<ele>164.037231</ele>
<time>2010-07-17T18:52:50Z</time>
<desc>lat.=55.704365, lon.=26.086407, Alt.=164.037231m. Speed=0.036000m/h.</desc>
<speed>0.010000</speed>
</trkpt>
<trkpt lat="55.704365" lon="26.086407">
<ele>164.041138</ele>
<time>2010-07-17T18:52:51Z</time>
<desc>lat.=55.704365, lon.=26.086407, Alt.=164.041138m. Speed=0.000000m/h.</desc>
<speed>0.000000</speed>
</trkpt>
<trkpt lat="55.704365" lon="26.086407">
<ele>164.048950</ele>
<time>2010-07-17T18:52:52Z</time>
<desc>lat.=55.704365, lon.=26.086407, Alt.=164.048950m. Speed=0.036000m/h.</desc>
<speed>0.010000</speed>
</trkpt>
<trkpt lat="55.704365" lon="26.086407">
<ele>164.056763</ele>
<time>2010-07-17T18:52:53Z</time>
<desc>lat.=55.704365, lon.=26.086407, Alt.=164.056763m. Speed=0.000000m/h.</desc>
<speed>0.000000</speed>
</trkpt>
<trkpt lat="55.704365" lon="26.086407">
<ele>164.060669</ele>
<time>2010-07-17T18:52:54Z</time>
<desc>lat.=55.704365, lon.=26.086407, Alt.=164.060669m. Speed=0.000000m/h.</desc>
<speed>0.000000</speed>
</trkpt>
<trkpt lat="55.704365" lon="26.086407">
<ele>164.068481</ele>
<time>2010-07-17T18:52:55Z</time>
<desc>lat.=55.704365, lon.=26.086407, Alt.=164.068481m. Speed=0.036000m/h.</desc>
<speed>0.010000</speed>
</trkpt>
<trkpt lat="55.704365" lon="26.086407">
<ele>164.072388</ele>
<time>2010-07-17T18:52:56Z</time>
<desc>lat.=55.704365, lon.=26.086407, Alt.=164.072388m. Speed=0.036000m/h.</desc>
<speed>0.010000</speed>
</trkpt>
<trkpt lat="55.704365" lon="26.086407">
<ele>164.076294</ele>
<time>2010-07-17T18:52:57Z</time>
<desc>lat.=55.704365, lon.=26.086407, Alt.=164.076294m. Speed=0.000000m/h.</desc>
<speed>0.000000</speed>
</trkpt>
<trkpt lat="55.704365" lon="26.086407">
<ele>164.076294</ele>
<time>2010-07-17T18:52:58Z</time>
<desc>lat.=55.704365, lon.=26.086407, Alt.=164.076294m. Speed=0.036000m/h.</desc>
<speed>0.010000</speed>
</trkpt>
<trkpt lat="55.704365" lon="26.086407">
<ele>164.076294</ele>
<time>2010-07-17T18:52:59Z</time>
<desc>lat.=55.704365, lon.=26.086407, Alt.=164.076294m. Speed=0.000000m/h.</desc>
<speed>0.000000</speed>
</trkpt>
<trkpt lat="55.704365" lon="26.086407">
<ele>164.080200</ele>
<time>2010-07-17T18:53:00Z</time>
<desc>lat.=55.704365, lon.=26.086407, Alt.=164.080200m. Speed=0.036000m/h.</desc>
<speed>0.010000</speed>
</trkpt>
<trkpt lat="55.704365" lon="26.086407">
<ele>164.076294</ele>
<time>2010-07-17T18:53:01Z</time>
<desc>lat.=55.704365, lon.=26.086407, Alt.=164.076294m. Speed=0.000000m/h.</desc>
<speed>0.000000</speed>
</trkpt>
<trkpt lat="55.704365" lon="26.086407">
<ele>164.072388</ele>
<time>2010-07-17T18:53:02Z</time>
<desc>lat.=55.704365, lon.=26.086407, Alt.=164.072388m. Speed=0.000000m/h.</desc>
<speed>0.000000</speed>
</trkpt>
<trkpt lat="55.704365" lon="26.086407">
<ele>164.068481</ele>
<time>2010-07-17T18:53:03Z</time>
<desc>lat.=55.704365, lon.=26.086407, Alt.=164.068481m. Speed=0.000000m/h.</desc>
<speed>0.000000</speed>
</trkpt>
<trkpt lat="55.704365" lon="26.086407">
<ele>164.060669</ele>
<time>2010-07-17T18:53:04Z</time>
<desc>lat.=55.704365, lon.=26.086407, Alt.=164.060669m. Speed=0.000000m/h.</desc>
<speed>0.000000</speed>
</trkpt>
<trkpt lat="55.704365" lon="26.086407">
<ele>164.056763</ele>
<time>2010-07-17T18:53:05Z</time>
<desc>lat.=55.704365, lon.=26.086407, Alt.=164.056763m. Speed=0.036000m/h.</desc>
<speed>0.010000</speed>
</trkpt>
<trkpt lat="55.704365" lon="26.086407">
<ele>164.056763</ele>
<time>2010-07-17T18:53:06Z</time>
<desc>lat.=55.704365, lon.=26.086407, Alt.=164.056763m. Speed=0.000000m/h.</desc>
<speed>0.000000</speed>
</trkpt>
<trkpt lat="55.704365" lon="26.086407">
<ele>164.060669</ele>
<time>2010-07-17T18:53:07Z</time>
<desc>lat.=55.704365, lon.=26.086407, Alt.=164.060669m. Speed=0.000000m/h.</desc>
<speed>0.000000</speed>
</trkpt>
<trkpt lat="55.704365" lon="26.086407">
<ele>164.056763</ele>
<time>2010-07-17T18:53:08Z</time>
<desc>lat.=55.704365, lon.=26.086407, Alt.=164.056763m. Speed=0.000000m/h.</desc>
<speed>0.000000</speed>
</trkpt>
<trkpt lat="55.704365" lon="26.086407">
<ele>164.056763</ele>
<time>2010-07-17T18:53:09Z</time>
<desc>lat.=55.704365, lon.=26.086407, Alt.=164.056763m. Speed=0.000000m/h.</desc>
<speed>0.000000</speed>
</trkpt>
<trkpt lat="55.704365" lon="26.086407">
<ele>164.060669</ele>
<time>2010-07-17T18:53:10Z</time>
<desc>lat.=55.704365, lon.=26.086407, Alt.=164.060669m. Speed=0.000000m/h.</desc>
<speed>0.000000</speed>
</trkpt>
<trkpt lat="55.704365" lon="26.086407">
<ele>164.056763</ele>
<time>2010-07-17T18:53:11Z</time>
<desc>lat.=55.704365, lon.=26.086407, Alt.=164.056763m. Speed=0.000000m/h.</desc>
<speed>0.000000</speed>
</trkpt>
<trkpt lat="55.704365" lon="26.086407">
<ele>164.048950</ele>
<time>2010-07-17T18:53:12Z</time>
<desc>lat.=55.704365, lon.=26.086407, Alt.=164.048950m. Speed=0.108000m/h.</desc>
<speed>0.030000</speed>
</trkpt>
<trkpt lat="55.704365" lon="26.086407">
<ele>164.041138</ele>
<time>2010-07-17T18:53:13Z</time>
<desc>lat.=55.704365, lon.=26.086407, Alt.=164.041138m. Speed=0.036000m/h.</desc>
<speed>0.010000</speed>
</trkpt>
<trkpt lat="55.704365" lon="26.086407">
<ele>164.033325</ele>
<time>2010-07-17T18:53:14Z</time>
<desc>lat.=55.704365, lon.=26.086407, Alt.=164.033325m. Speed=0.036000m/h.</desc>
<speed>0.010000</speed>
</trkpt>
<trkpt lat="55.704365" lon="26.086407">
<ele>164.025513</ele>
<time>2010-07-17T18:53:15Z</time>
<desc>lat.=55.704365, lon.=26.086407, Alt.=164.025513m. Speed=0.036000m/h.</desc>
<speed>0.010000</speed>
</trkpt>
<trkpt lat="55.704365" lon="26.086407">
<ele>164.017700</ele>
<time>2010-07-17T18:53:16Z</time>
<desc>lat.=55.704365, lon.=26.086407, Alt.=164.017700m. Speed=0.000000m/h.</desc>
<speed>0.000000</speed>
</trkpt>
<trkpt lat="55.704365" lon="26.086407">
<ele>164.009888</ele>
<time>2010-07-17T18:53:17Z</time>
<desc>lat.=55.704365, lon.=26.086407, Alt.=164.009888m. Speed=0.072000m/h.</desc>
<speed>0.020000</speed>
</trkpt>
<trkpt lat="55.704365" lon="26.086407">
<ele>164.002075</ele>
<time>2010-07-17T18:53:18Z</time>
<desc>lat.=55.704365, lon.=26.086407, Alt.=164.002075m. Speed=0.000000m/h.</desc>
<speed>0.000000</speed>
</trkpt>
<trkpt lat="55.704365" lon="26.086407">
<ele>163.998169</ele>
<time>2010-07-17T18:53:19Z</time>
<desc>lat.=55.704365, lon.=26.086407, Alt.=163.998169m. Speed=0.036000m/h.</desc>
<speed>0.010000</speed>
</trkpt>
<trkpt lat="55.704365" lon="26.086407">
<ele>163.994263</ele>
<time>2010-07-17T18:53:20Z</time>
<desc>lat.=55.704365, lon.=26.086407, Alt.=163.994263m. Speed=0.000000m/h.</desc>
<speed>0.000000</speed>
</trkpt>
<trkpt lat="55.704365" lon="26.086407">
<ele>163.998169</ele>
<time>2010-07-17T18:53:21Z</time>
<desc>lat.=55.704365, lon.=26.086407, Alt.=163.998169m. Speed=0.036000m/h.</desc>
<speed>0.010000</speed>
</trkpt>
<trkpt lat="55.704365" lon="26.086407">
<ele>163.998169</ele>
<time>2010-07-17T18:53:22Z</time>
<desc>lat.=55.704365, lon.=26.086407, Alt.=163.998169m. Speed=0.036000m/h.</desc>
<speed>0.010000</speed>
</trkpt>
<trkpt lat="55.704365" lon="26.086407">
<ele>163.994263</ele>
<time>2010-07-17T18:53:23Z</time>
<desc>lat.=55.704365, lon.=26.086407, Alt.=163.994263m. Speed=0.036000m/h.</desc>
<speed>0.010000</speed>
</trkpt>
<trkpt lat="55.704365" lon="26.086407">
<ele>163.986450</ele>
<time>2010-07-17T18:53:24Z</time>
<desc>lat.=55.704365, lon.=26.086407, Alt.=163.986450m. Speed=0.072000m/h.</desc>
<speed>0.020000</speed>
</trkpt>
<trkpt lat="55.704365" lon="26.086407">
<ele>163.978638</ele>
<time>2010-07-17T18:53:25Z</time>
<desc>lat.=55.704365, lon.=26.086407, Alt.=163.978638m. Speed=0.036000m/h.</desc>
<speed>0.010000</speed>
</trkpt>
<trkpt lat="55.704365" lon="26.086407">
<ele>163.978638</ele>
<time>2010-07-17T18:53:26Z</time>
<desc>lat.=55.704365, lon.=26.086407, Alt.=163.978638m. Speed=0.036000m/h.</desc>
<speed>0.010000</speed>
</trkpt>
<trkpt lat="55.704365" lon="26.086407">
<ele>163.974731</ele>
<time>2010-07-17T18:53:27Z</time>
<desc>lat.=55.704365, lon.=26.086407, Alt.=163.974731m. Speed=0.072000m/h.</desc>
<speed>0.020000</speed>
</trkpt>
<trkpt lat="55.704365" lon="26.086407">
<ele>163.970825</ele>
<time>2010-07-17T18:53:28Z</time>
<desc>lat.=55.704365, lon.=26.086407, Alt.=163.970825m. Speed=0.072000m/h.</desc>
<speed>0.020000</speed>
</trkpt>
<trkpt lat="55.704365" lon="26.086407">
<ele>163.966919</ele>
<time>2010-07-17T18:53:29Z</time>
<desc>lat.=55.704365, lon.=26.086407, Alt.=163.966919m. Speed=0.036000m/h.</desc>
<speed>0.010000</speed>
</trkpt>
<trkpt lat="55.704365" lon="26.086407">
<ele>163.959106</ele>
<time>2010-07-17T18:53:30Z</time>
<desc>lat.=55.704365, lon.=26.086407, Alt.=163.959106m. Speed=0.036000m/h.</desc>
<speed>0.010000</speed>
</trkpt>
<trkpt lat="55.704365" lon="26.086407">
<ele>163.947388</ele>
<time>2010-07-17T18:53:31Z</time>
<desc>lat.=55.704365, lon.=26.086407, Alt.=163.947388m. Speed=0.144000m/h.</desc>
<speed>0.040000</speed>
</trkpt>
<trkpt lat="55.704365" lon="26.086407">
<ele>163.947388</ele>
<time>2010-07-17T18:53:32Z</time>
<desc>lat.=55.704365, lon.=26.086407, Alt.=163.947388m. Speed=0.108000m/h.</desc>
<speed>0.030000</speed>
</trkpt>
<trkpt lat="55.704365" lon="26.086407">
<ele>163.947388</ele>
<time>2010-07-17T18:53:33Z</time>
<desc>lat.=55.704365, lon.=26.086407, Alt.=163.947388m. Speed=0.108000m/h.</desc>
<speed>0.030000</speed>
</trkpt>
<trkpt lat="55.704365" lon="26.086409">
<ele>163.943481</ele>
<time>2010-07-17T18:53:34Z</time>
<desc>lat.=55.704365, lon.=26.086409, Alt.=163.943481m. Speed=0.072000m/h.</desc>
<speed>0.020000</speed>
</trkpt>
<trkpt lat="55.704365" lon="26.086409">
<ele>163.939575</ele>
<time>2010-07-17T18:53:35Z</time>
<desc>lat.=55.704365, lon.=26.086409, Alt.=163.939575m. Speed=0.072000m/h.</desc>
<speed>0.020000</speed>
</trkpt>
<trkpt lat="55.704365" lon="26.086409">
<ele>163.939575</ele>
<time>2010-07-17T18:53:36Z</time>
<desc>lat.=55.704365, lon.=26.086409, Alt.=163.939575m. Speed=0.072000m/h.</desc>
<speed>0.020000</speed>
</trkpt>
<trkpt lat="55.704365" lon="26.086409">
<ele>163.935669</ele>
<time>2010-07-17T18:53:37Z</time>
<desc>lat.=55.704365, lon.=26.086409, Alt.=163.935669m. Speed=0.036000m/h.</desc>
<speed>0.010000</speed>
</trkpt>
<trkpt lat="55.704365" lon="26.086409">
<ele>163.931763</ele>
<time>2010-07-17T18:53:38Z</time>
<desc>lat.=55.704365, lon.=26.086409, Alt.=163.931763m. Speed=0.072000m/h.</desc>
<speed>0.020000</speed>
</trkpt>
<trkpt lat="55.704365" lon="26.086409">
<ele>163.931763</ele>
<time>2010-07-17T18:53:39Z</time>
<desc>lat.=55.704365, lon.=26.086409, Alt.=163.931763m. Speed=0.036000m/h.</desc>
<speed>0.010000</speed>
</trkpt>
<trkpt lat="55.704365" lon="26.086409">
<ele>163.927856</ele>
<time>2010-07-17T18:53:40Z</time>
<desc>lat.=55.704365, lon.=26.086409, Alt.=163.927856m. Speed=0.072000m/h.</desc>
<speed>0.020000</speed>
</trkpt>
<trkpt lat="55.704365" lon="26.086409">
<ele>163.931763</ele>
<time>2010-07-17T18:53:41Z</time>
<desc>lat.=55.704365, lon.=26.086409, Alt.=163.931763m. Speed=0.036000m/h.</desc>
<speed>0.010000</speed>
</trkpt>
<trkpt lat="55.704365" lon="26.086409">
<ele>163.931763</ele>
<time>2010-07-17T18:53:42Z</time>
<desc>lat.=55.704365, lon.=26.086409, Alt.=163.931763m. Speed=0.108000m/h.</desc>
<speed>0.030000</speed>
</trkpt>
<trkpt lat="55.704365" lon="26.086409">
<ele>163.927856</ele>
<time>2010-07-17T18:53:43Z</time>
<desc>lat.=55.704365, lon.=26.086409, Alt.=163.927856m. Speed=0.144000m/h.</desc>
<speed>0.040000</speed>
</trkpt>
<trkpt lat="55.704365" lon="26.086409">
<ele>163.923950</ele>
<time>2010-07-17T18:53:44Z</time>
<desc>lat.=55.704365, lon.=26.086409, Alt.=163.923950m. Speed=0.144000m/h.</desc>
<speed>0.040000</speed>
</trkpt>
<trkpt lat="55.704365" lon="26.086409">
<ele>163.920044</ele>
<time>2010-07-17T18:53:45Z</time>
<desc>lat.=55.704365, lon.=26.086409, Alt.=163.920044m. Speed=0.036000m/h.</desc>
<speed>0.010000</speed>
</trkpt>
<trkpt lat="55.704365" lon="26.086409">
<ele>163.920044</ele>
<time>2010-07-17T18:53:46Z</time>
<desc>lat.=55.704365, lon.=26.086409, Alt.=163.920044m. Speed=0.072000m/h.</desc>
<speed>0.020000</speed>
</trkpt>
<trkpt lat="55.704365" lon="26.086409">
<ele>163.920044</ele>
<time>2010-07-17T18:53:47Z</time>
<desc>lat.=55.704365, lon.=26.086409, Alt.=163.920044m. Speed=0.036000m/h.</desc>
<speed>0.010000</speed>
</trkpt>
<trkpt lat="55.704365" lon="26.086411">
<ele>163.916138</ele>
<time>2010-07-17T18:53:48Z</time>
<desc>lat.=55.704365, lon.=26.086411, Alt.=163.916138m. Speed=0.036000m/h.</desc>
<speed>0.010000</speed>
</trkpt>
<trkpt lat="55.704365" lon="26.086411">
<ele>163.916138</ele>
<time>2010-07-17T18:53:49Z</time>
<desc>lat.=55.704365, lon.=26.086411, Alt.=163.916138m. Speed=0.108000m/h.</desc>
<speed>0.030000</speed>
</trkpt>
<trkpt lat="55.704365" lon="26.086411">
<ele>163.916138</ele>
<time>2010-07-17T18:53:50Z</time>
<desc>lat.=55.704365, lon.=26.086411, Alt.=163.916138m. Speed=0.000000m/h.</desc>
<speed>0.000000</speed>
</trkpt>
<trkpt lat="55.704365" lon="26.086411">
<ele>163.923950</ele>
<time>2010-07-17T18:53:51Z</time>
<desc>lat.=55.704365, lon.=26.086411, Alt.=163.923950m. Speed=0.108000m/h.</desc>
<speed>0.030000</speed>
</trkpt>
<trkpt lat="55.704365" lon="26.086411">
<ele>163.923950</ele>
<time>2010-07-17T18:53:52Z</time>
<desc>lat.=55.704365, lon.=26.086411, Alt.=163.923950m. Speed=0.072000m/h.</desc>
<speed>0.020000</speed>
</trkpt>
<trkpt lat="55.704365" lon="26.086411">
<ele>163.931763</ele>
<time>2010-07-17T18:53:53Z</time>
<desc>lat.=55.704365, lon.=26.086411, Alt.=163.931763m. Speed=0.000000m/h.</desc>
<speed>0.000000</speed>
</trkpt>
<trkpt lat="55.704365" lon="26.086411">
<ele>163.935669</ele>
<time>2010-07-17T18:53:54Z</time>
<desc>lat.=55.704365, lon.=26.086411, Alt.=163.935669m. Speed=0.324000m/h.</desc>
<speed>0.090000</speed>
</trkpt>
<trkpt lat="55.704365" lon="26.086411">
<ele>163.939575</ele>
<time>2010-07-17T18:53:55Z</time>
<desc>lat.=55.704365, lon.=26.086411, Alt.=163.939575m. Speed=0.072000m/h.</desc>
<speed>0.020000</speed>
</trkpt>
<trkpt lat="55.704365" lon="26.086411">
<ele>163.939575</ele>
<time>2010-07-17T18:53:56Z</time>
<desc>lat.=55.704365, lon.=26.086411, Alt.=163.939575m. Speed=0.072000m/h.</desc>
<speed>0.020000</speed>
</trkpt>
<trkpt lat="55.704365" lon="26.086411">
<ele>163.943481</ele>
<time>2010-07-17T18:53:57Z</time>
<desc>lat.=55.704365, lon.=26.086411, Alt.=163.943481m. Speed=0.108000m/h.</desc>
<speed>0.030000</speed>
</trkpt>
<trkpt lat="55.704365" lon="26.086412">
<ele>163.943481</ele>
<time>2010-07-17T18:53:58Z</time>
<desc>lat.=55.704365, lon.=26.086412, Alt.=163.943481m. Speed=0.072000m/h.</desc>
<speed>0.020000</speed>
</trkpt>
<trkpt lat="55.704365" lon="26.086412">
<ele>163.943481</ele>
<time>2010-07-17T18:53:59Z</time>
<desc>lat.=55.704365, lon.=26.086412, Alt.=163.943481m. Speed=0.036000m/h.</desc>
<speed>0.010000</speed>
</trkpt>
<trkpt lat="55.704365" lon="26.086412">
<ele>163.939575</ele>
<time>2010-07-17T18:54:00Z</time>
<desc>lat.=55.704365, lon.=26.086412, Alt.=163.939575m. Speed=0.072000m/h.</desc>
<speed>0.020000</speed>
</trkpt>
<trkpt lat="55.704365" lon="26.086412">
<ele>163.935669</ele>
<time>2010-07-17T18:54:01Z</time>
<desc>lat.=55.704365, lon.=26.086412, Alt.=163.935669m. Speed=0.036000m/h.</desc>
<speed>0.010000</speed>
</trkpt>
<trkpt lat="55.704365" lon="26.086412">
<ele>163.931763</ele>
<time>2010-07-17T18:54:02Z</time>
<desc>lat.=55.704365, lon.=26.086412, Alt.=163.931763m. Speed=0.036000m/h.</desc>
<speed>0.010000</speed>
</trkpt>
<trkpt lat="55.704365" lon="26.086411">
<ele>163.931763</ele>
<time>2010-07-17T18:54:03Z</time>
<desc>lat.=55.704365, lon.=26.086411, Alt.=163.931763m. Speed=0.000000m/h.</desc>
<speed>0.000000</speed>
</trkpt>
<trkpt lat="55.704365" lon="26.086411">
<ele>163.935669</ele>
<time>2010-07-17T18:54:04Z</time>
<desc>lat.=55.704365, lon.=26.086411, Alt.=163.935669m. Speed=0.036000m/h.</desc>
<speed>0.010000</speed>
</trkpt>
<trkpt lat="55.704365" lon="26.086411">
<ele>163.935669</ele>
<time>2010-07-17T18:54:05Z</time>
<desc>lat.=55.704365, lon.=26.086411, Alt.=163.935669m. Speed=0.036000m/h.</desc>
<speed>0.010000</speed>
</trkpt>
<trkpt lat="55.704365" lon="26.086411">
<ele>163.931763</ele>
<time>2010-07-17T18:54:06Z</time>
<desc>lat.=55.704365, lon.=26.086411, Alt.=163.931763m. Speed=0.036000m/h.</desc>
<speed>0.010000</speed>
</trkpt>
<trkpt lat="55.704365" lon="26.086412">
<ele>163.927856</ele>
<time>2010-07-17T18:54:07Z</time>
<desc>lat.=55.704365, lon.=26.086412, Alt.=163.927856m. Speed=0.036000m/h.</desc>
<speed>0.010000</speed>
</trkpt>
<trkpt lat="55.704365" lon="26.086412">
<ele>163.923950</ele>
<time>2010-07-17T18:54:08Z</time>
<desc>lat.=55.704365, lon.=26.086412, Alt.=163.923950m. Speed=0.036000m/h.</desc>
<speed>0.010000</speed>
</trkpt>
<trkpt lat="55.704365" lon="26.086412">
<ele>163.916138</ele>
<time>2010-07-17T18:54:09Z</time>
<desc>lat.=55.704365, lon.=26.086412, Alt.=163.916138m. Speed=0.036000m/h.</desc>
<speed>0.010000</speed>
</trkpt>
<trkpt lat="55.704365" lon="26.086412">
<ele>163.912231</ele>
<time>2010-07-17T18:54:10Z</time>
<desc>lat.=55.704365, lon.=26.086412, Alt.=163.912231m. Speed=0.000000m/h.</desc>
<speed>0.000000</speed>
</trkpt>
<trkpt lat="55.704365" lon="26.086412">
<ele>163.908325</ele>
<time>2010-07-17T18:54:11Z</time>
<desc>lat.=55.704365, lon.=26.086412, Alt.=163.908325m. Speed=0.000000m/h.</desc>
<speed>0.000000</speed>
</trkpt>
<trkpt lat="55.704365" lon="26.086411">
<ele>163.904419</ele>
<time>2010-07-17T18:54:12Z</time>
<desc>lat.=55.704365, lon.=26.086411, Alt.=163.904419m. Speed=0.000000m/h.</desc>
<speed>0.000000</speed>
</trkpt>
<trkpt lat="55.704365" lon="26.086411">
<ele>163.896606</ele>
<time>2010-07-17T18:54:13Z</time>
<desc>lat.=55.704365, lon.=26.086411, Alt.=163.896606m. Speed=0.000000m/h.</desc>
<speed>0.000000</speed>
</trkpt>
<trkpt lat="55.704365" lon="26.086411">
<ele>163.888794</ele>
<time>2010-07-17T18:54:14Z</time>
<desc>lat.=55.704365, lon.=26.086411, Alt.=163.888794m. Speed=0.000000m/h.</desc>
<speed>0.000000</speed>
</trkpt>
<trkpt lat="55.704365" lon="26.086411">
<ele>163.884888</ele>
<time>2010-07-17T18:54:15Z</time>
<desc>lat.=55.704365, lon.=26.086411, Alt.=163.884888m. Speed=0.000000m/h.</desc>
<speed>0.000000</speed>
</trkpt>
<trkpt lat="55.704365" lon="26.086411">
<ele>163.884888</ele>
<time>2010-07-17T18:54:16Z</time>
<desc>lat.=55.704365, lon.=26.086411, Alt.=163.884888m. Speed=0.036000m/h.</desc>
<speed>0.010000</speed>
</trkpt>
<trkpt lat="55.704365" lon="26.086411">
<ele>163.884888</ele>
<time>2010-07-17T18:54:17Z</time>
<desc>lat.=55.704365, lon.=26.086411, Alt.=163.884888m. Speed=0.000000m/h.</desc>
<speed>0.000000</speed>
</trkpt>
<trkpt lat="55.704365" lon="26.086411">
<ele>163.884888</ele>
<time>2010-07-17T18:54:18Z</time>
<desc>lat.=55.704365, lon.=26.086411, Alt.=163.884888m. Speed=0.000000m/h.</desc>
<speed>0.000000</speed>
</trkpt>
<trkpt lat="55.704365" lon="26.086411">
<ele>163.884888</ele>
<time>2010-07-17T18:54:19Z</time>
<desc>lat.=55.704365, lon.=26.086411, Alt.=163.884888m. Speed=0.000000m/h.</desc>
<speed>0.000000</speed>
</trkpt>
<trkpt lat="55.704365" lon="26.086411">
<ele>163.884888</ele>
<time>2010-07-17T18:54:20Z</time>
<desc>lat.=55.704365, lon.=26.086411, Alt.=163.884888m. Speed=0.036000m/h.</desc>
<speed>0.010000</speed>
</trkpt>
<trkpt lat="55.704365" lon="26.086411">
<ele>163.888794</ele>
<time>2010-07-17T18:54:21Z</time>
<desc>lat.=55.704365, lon.=26.086411, Alt.=163.888794m. Speed=0.000000m/h.</desc>
<speed>0.000000</speed>
</trkpt>
<trkpt lat="55.704365" lon="26.086411">
<ele>163.888794</ele>
<time>2010-07-17T18:54:22Z</time>
<desc>lat.=55.704365, lon.=26.086411, Alt.=163.888794m. Speed=0.000000m/h.</desc>
<speed>0.000000</speed>
</trkpt>
<trkpt lat="55.704365" lon="26.086411">
<ele>163.892700</ele>
<time>2010-07-17T18:54:23Z</time>
<desc>lat.=55.704365, lon.=26.086411, Alt.=163.892700m. Speed=0.036000m/h.</desc>
<speed>0.010000</speed>
</trkpt>
<trkpt lat="55.704365" lon="26.086411">
<ele>163.896606</ele>
<time>2010-07-17T18:54:24Z</time>
<desc>lat.=55.704365, lon.=26.086411, Alt.=163.896606m. Speed=0.000000m/h.</desc>
<speed>0.000000</speed>
</trkpt>
<trkpt lat="55.704365" lon="26.086411">
<ele>163.900513</ele>
<time>2010-07-17T18:54:25Z</time>
<desc>lat.=55.704365, lon.=26.086411, Alt.=163.900513m. Speed=0.000000m/h.</desc>
<speed>0.000000</speed>
</trkpt>
<trkpt lat="55.704365" lon="26.086411">
<ele>163.904419</ele>
<time>2010-07-17T18:54:26Z</time>
<desc>lat.=55.704365, lon.=26.086411, Alt.=163.904419m. Speed=0.036000m/h.</desc>
<speed>0.010000</speed>
</trkpt>
<trkpt lat="55.704365" lon="26.086411">
<ele>163.908325</ele>
<time>2010-07-17T18:54:27Z</time>
<desc>lat.=55.704365, lon.=26.086411, Alt.=163.908325m. Speed=0.000000m/h.</desc>
<speed>0.000000</speed>
</trkpt>
<trkpt lat="55.704365" lon="26.086411">
<ele>163.920044</ele>
<time>2010-07-17T18:54:28Z</time>
<desc>lat.=55.704365, lon.=26.086411, Alt.=163.920044m. Speed=0.072000m/h.</desc>
<speed>0.020000</speed>
</trkpt>
<trkpt lat="55.704365" lon="26.086411">
<ele>163.923950</ele>
<time>2010-07-17T18:54:29Z</time>
<desc>lat.=55.704365, lon.=26.086411, Alt.=163.923950m. Speed=0.036000m/h.</desc>
<speed>0.010000</speed>
</trkpt>
<trkpt lat="55.704365" lon="26.086411">
<ele>163.935669</ele>
<time>2010-07-17T18:54:30Z</time>
<desc>lat.=55.704365, lon.=26.086411, Alt.=163.935669m. Speed=0.036000m/h.</desc>
<speed>0.010000</speed>
</trkpt>
<trkpt lat="55.704365" lon="26.086411">
<ele>163.943481</ele>
<time>2010-07-17T18:54:31Z</time>
<desc>lat.=55.704365, lon.=26.086411, Alt.=163.943481m. Speed=0.000000m/h.</desc>
<speed>0.000000</speed>
</trkpt>
<trkpt lat="55.704365" lon="26.086411">
<ele>163.955200</ele>
<time>2010-07-17T18:54:32Z</time>
<desc>lat.=55.704365, lon.=26.086411, Alt.=163.955200m. Speed=0.036000m/h.</desc>
<speed>0.010000</speed>
</trkpt>
<trkpt lat="55.704365" lon="26.086411">
<ele>163.963013</ele>
<time>2010-07-17T18:54:33Z</time>
<desc>lat.=55.704365, lon.=26.086411, Alt.=163.963013m. Speed=0.036000m/h.</desc>
<speed>0.010000</speed>
</trkpt>
<trkpt lat="55.704365" lon="26.086411">
<ele>163.966919</ele>
<time>2010-07-17T18:54:34Z</time>
<desc>lat.=55.704365, lon.=26.086411, Alt.=163.966919m. Speed=0.036000m/h.</desc>
<speed>0.010000</speed>
</trkpt>
<trkpt lat="55.704365" lon="26.086411">
<ele>163.966919</ele>
<time>2010-07-17T18:54:35Z</time>
<desc>lat.=55.704365, lon.=26.086411, Alt.=163.966919m. Speed=0.036000m/h.</desc>
<speed>0.010000</speed>
</trkpt>
<trkpt lat="55.704365" lon="26.086411">
<ele>163.978638</ele>
<time>2010-07-17T18:54:36Z</time>
<desc>lat.=55.704365, lon.=26.086411, Alt.=163.978638m. Speed=0.072000m/h.</desc>
<speed>0.020000</speed>
</trkpt>
<trkpt lat="55.704365" lon="26.086411">
<ele>163.982544</ele>
<time>2010-07-17T18:54:37Z</time>
<desc>lat.=55.704365, lon.=26.086411, Alt.=163.982544m. Speed=0.000000m/h.</desc>
<speed>0.000000</speed>
</trkpt>
<trkpt lat="55.704365" lon="26.086411">
<ele>163.982544</ele>
<time>2010-07-17T18:54:38Z</time>
<desc>lat.=55.704365, lon.=26.086411, Alt.=163.982544m. Speed=0.000000m/h.</desc>
<speed>0.000000</speed>
</trkpt>
<trkpt lat="55.704365" lon="26.086411">
<ele>163.986450</ele>
<time>2010-07-17T18:54:39Z</time>
<desc>lat.=55.704365, lon.=26.086411, Alt.=163.986450m. Speed=0.000000m/h.</desc>
<speed>0.000000</speed>
</trkpt>
<trkpt lat="55.704365" lon="26.086411">
<ele>163.990356</ele>
<time>2010-07-17T18:54:40Z</time>
<desc>lat.=55.704365, lon.=26.086411, Alt.=163.990356m. Speed=0.036000m/h.</desc>
<speed>0.010000</speed>
</trkpt>
<trkpt lat="55.704365" lon="26.086411">
<ele>163.994263</ele>
<time>2010-07-17T18:54:41Z</time>
<desc>lat.=55.704365, lon.=26.086411, Alt.=163.994263m. Speed=0.036000m/h.</desc>
<speed>0.010000</speed>
</trkpt>
<trkpt lat="55.704365" lon="26.086411">
<ele>163.998169</ele>
<time>2010-07-17T18:54:42Z</time>
<desc>lat.=55.704365, lon.=26.086411, Alt.=163.998169m. Speed=0.000000m/h.</desc>
<speed>0.000000</speed>
</trkpt>
<trkpt lat="55.704365" lon="26.086411">
<ele>164.002075</ele>
<time>2010-07-17T18:54:43Z</time>
<desc>lat.=55.704365, lon.=26.086411, Alt.=164.002075m. Speed=0.000000m/h.</desc>
<speed>0.000000</speed>
</trkpt>
<trkpt lat="55.704365" lon="26.086411">
<ele>164.009888</ele>
<time>2010-07-17T18:54:44Z</time>
<desc>lat.=55.704365, lon.=26.086411, Alt.=164.009888m. Speed=0.000000m/h.</desc>
<speed>0.000000</speed>
</trkpt>
<trkpt lat="55.704365" lon="26.086411">
<ele>164.013794</ele>
<time>2010-07-17T18:54:45Z</time>
<desc>lat.=55.704365, lon.=26.086411, Alt.=164.013794m. Speed=0.000000m/h.</desc>
<speed>0.000000</speed>
</trkpt>
<trkpt lat="55.704365" lon="26.086411">
<ele>164.017700</ele>
<time>2010-07-17T18:54:46Z</time>
<desc>lat.=55.704365, lon.=26.086411, Alt.=164.017700m. Speed=0.036000m/h.</desc>
<speed>0.010000</speed>
</trkpt>
<trkpt lat="55.704365" lon="26.086411">
<ele>164.021606</ele>
<time>2010-07-17T18:54:47Z</time>
<desc>lat.=55.704365, lon.=26.086411, Alt.=164.021606m. Speed=0.000000m/h.</desc>
<speed>0.000000</speed>
</trkpt>
<trkpt lat="55.704365" lon="26.086411">
<ele>164.025513</ele>
<time>2010-07-17T18:54:48Z</time>
<desc>lat.=55.704365, lon.=26.086411, Alt.=164.025513m. Speed=0.000000m/h.</desc>
<speed>0.000000</speed>
</trkpt>
<trkpt lat="55.704365" lon="26.086411">
<ele>164.033325</ele>
<time>2010-07-17T18:54:49Z</time>
<desc>lat.=55.704365, lon.=26.086411, Alt.=164.033325m. Speed=0.000000m/h.</desc>
<speed>0.000000</speed>
</trkpt>
<trkpt lat="55.704365" lon="26.086411">
<ele>164.037231</ele>
<time>2010-07-17T18:54:50Z</time>
<desc>lat.=55.704365, lon.=26.086411, Alt.=164.037231m. Speed=0.000000m/h.</desc>
<speed>0.000000</speed>
</trkpt>
<trkpt lat="55.704365" lon="26.086411">
<ele>164.045044</ele>
<time>2010-07-17T18:54:51Z</time>
<desc>lat.=55.704365, lon.=26.086411, Alt.=164.045044m. Speed=0.000000m/h.</desc>
<speed>0.000000</speed>
</trkpt>
<trkpt lat="55.704365" lon="26.086411">
<ele>164.052856</ele>
<time>2010-07-17T18:54:52Z</time>
<desc>lat.=55.704365, lon.=26.086411, Alt.=164.052856m. Speed=0.000000m/h.</desc>
<speed>0.000000</speed>
</trkpt>
<trkpt lat="55.704365" lon="26.086411">
<ele>164.060669</ele>
<time>2010-07-17T18:54:53Z</time>
<desc>lat.=55.704365, lon.=26.086411, Alt.=164.060669m. Speed=0.000000m/h.</desc>
<speed>0.000000</speed>
</trkpt>
<trkpt lat="55.704365" lon="26.086411">
<ele>164.068481</ele>
<time>2010-07-17T18:54:54Z</time>
<desc>lat.=55.704365, lon.=26.086411, Alt.=164.068481m. Speed=0.000000m/h.</desc>
<speed>0.000000</speed>
</trkpt>
<trkpt lat="55.704365" lon="26.086411">
<ele>164.072388</ele>
<time>2010-07-17T18:54:55Z</time>
<desc>lat.=55.704365, lon.=26.086411, Alt.=164.072388m. Speed=0.000000m/h.</desc>
<speed>0.000000</speed>
</trkpt>
<trkpt lat="55.704365" lon="26.086411">
<ele>164.072388</ele>
<time>2010-07-17T18:54:56Z</time>
<desc>lat.=55.704365, lon.=26.086411, Alt.=164.072388m. Speed=0.036000m/h.</desc>
<speed>0.010000</speed>
</trkpt>
<trkpt lat="55.704365" lon="26.086411">
<ele>164.076294</ele>
<time>2010-07-17T18:54:57Z</time>
<desc>lat.=55.704365, lon.=26.086411, Alt.=164.076294m. Speed=0.000000m/h.</desc>
<speed>0.000000</speed>
</trkpt>
<trkpt lat="55.704365" lon="26.086411">
<ele>164.080200</ele>
<time>2010-07-17T18:54:58Z</time>
<desc>lat.=55.704365, lon.=26.086411, Alt.=164.080200m. Speed=0.000000m/h.</desc>
<speed>0.000000</speed>
</trkpt>
<trkpt lat="55.704365" lon="26.086411">
<ele>164.084106</ele>
<time>2010-07-17T18:54:59Z</time>
<desc>lat.=55.704365, lon.=26.086411, Alt.=164.084106m. Speed=0.108000m/h.</desc>
<speed>0.030000</speed>
</trkpt>
<trkpt lat="55.704365" lon="26.086411">
<ele>164.088013</ele>
<time>2010-07-17T18:55:00Z</time>
<desc>lat.=55.704365, lon.=26.086411, Alt.=164.088013m. Speed=0.072000m/h.</desc>
<speed>0.020000</speed>
</trkpt>
<trkpt lat="55.704365" lon="26.086411">
<ele>164.091919</ele>
<time>2010-07-17T18:55:01Z</time>
<desc>lat.=55.704365, lon.=26.086411, Alt.=164.091919m. Speed=0.000000m/h.</desc>
<speed>0.000000</speed>
</trkpt>
<trkpt lat="55.704365" lon="26.086411">
<ele>164.084106</ele>
<time>2010-07-17T18:55:02Z</time>
<desc>lat.=55.704365, lon.=26.086411, Alt.=164.084106m. Speed=0.108000m/h.</desc>
<speed>0.030000</speed>
</trkpt>
<trkpt lat="55.704365" lon="26.086411">
<ele>164.080200</ele>
<time>2010-07-17T18:55:03Z</time>
<desc>lat.=55.704365, lon.=26.086411, Alt.=164.080200m. Speed=0.072000m/h.</desc>
<speed>0.020000</speed>
</trkpt>
<trkpt lat="55.704365" lon="26.086412">
<ele>164.076294</ele>
<time>2010-07-17T18:55:04Z</time>
<desc>lat.=55.704365, lon.=26.086412, Alt.=164.076294m. Speed=0.036000m/h.</desc>
<speed>0.010000</speed>
</trkpt>
<trkpt lat="55.704365" lon="26.086412">
<ele>164.072388</ele>
<time>2010-07-17T18:55:05Z</time>
<desc>lat.=55.704365, lon.=26.086412, Alt.=164.072388m. Speed=0.072000m/h.</desc>
<speed>0.020000</speed>
</trkpt>
<trkpt lat="55.704365" lon="26.086412">
<ele>164.072388</ele>
<time>2010-07-17T18:55:06Z</time>
<desc>lat.=55.704365, lon.=26.086412, Alt.=164.072388m. Speed=0.036000m/h.</desc>
<speed>0.010000</speed>
</trkpt>
<trkpt lat="55.704365" lon="26.086412">
<ele>164.072388</ele>
<time>2010-07-17T18:55:07Z</time>
<desc>lat.=55.704365, lon.=26.086412, Alt.=164.072388m. Speed=0.072000m/h.</desc>
<speed>0.020000</speed>
</trkpt>
<trkpt lat="55.704365" lon="26.086412">
<ele>164.068481</ele>
<time>2010-07-17T18:55:08Z</time>
<desc>lat.=55.704365, lon.=26.086412, Alt.=164.068481m. Speed=0.144000m/h.</desc>
<speed>0.040000</speed>
</trkpt>
<trkpt lat="55.704365" lon="26.086412">
<ele>164.072388</ele>
<time>2010-07-17T18:55:09Z</time>
<desc>lat.=55.704365, lon.=26.086412, Alt.=164.072388m. Speed=0.216000m/h.</desc>
<speed>0.060000</speed>
</trkpt>
<trkpt lat="55.704365" lon="26.086412">
<ele>164.076294</ele>
<time>2010-07-17T18:55:10Z</time>
<desc>lat.=55.704365, lon.=26.086412, Alt.=164.076294m. Speed=0.072000m/h.</desc>
<speed>0.020000</speed>
</trkpt>
<trkpt lat="55.704365" lon="26.086412">
<ele>164.080200</ele>
<time>2010-07-17T18:55:11Z</time>
<desc>lat.=55.704365, lon.=26.086412, Alt.=164.080200m. Speed=0.072000m/h.</desc>
<speed>0.020000</speed>
</trkpt>
<trkpt lat="55.704365" lon="26.086412">
<ele>164.084106</ele>
<time>2010-07-17T18:55:12Z</time>
<desc>lat.=55.704365, lon.=26.086412, Alt.=164.084106m. Speed=0.108000m/h.</desc>
<speed>0.030000</speed>
</trkpt>
<trkpt lat="55.704365" lon="26.086412">
<ele>164.095825</ele>
<time>2010-07-17T18:55:13Z</time>
<desc>lat.=55.704365, lon.=26.086412, Alt.=164.095825m. Speed=0.108000m/h.</desc>
<speed>0.030000</speed>
</trkpt>
<trkpt lat="55.704365" lon="26.086412">
<ele>164.099731</ele>
<time>2010-07-17T18:55:14Z</time>
<desc>lat.=55.704365, lon.=26.086412, Alt.=164.099731m. Speed=0.108000m/h.</desc>
<speed>0.030000</speed>
</trkpt>
<trkpt lat="55.704365" lon="26.086412">
<ele>164.099731</ele>
<time>2010-07-17T18:55:15Z</time>
<desc>lat.=55.704365, lon.=26.086412, Alt.=164.099731m. Speed=0.108000m/h.</desc>
<speed>0.030000</speed>
</trkpt>
<trkpt lat="55.704369" lon="26.086412">
<ele>164.099731</ele>
<time>2010-07-17T18:55:16Z</time>
<desc>lat.=55.704369, lon.=26.086412, Alt.=164.099731m. Speed=0.036000m/h.</desc>
<speed>0.010000</speed>
</trkpt>
<trkpt lat="55.704369" lon="26.086412">
<ele>164.103638</ele>
<time>2010-07-17T18:55:17Z</time>
<desc>lat.=55.704369, lon.=26.086412, Alt.=164.103638m. Speed=0.072000m/h.</desc>
<speed>0.020000</speed>
</trkpt>
<trkpt lat="55.704369" lon="26.086412">
<ele>164.099731</ele>
<time>2010-07-17T18:55:18Z</time>
<desc>lat.=55.704369, lon.=26.086412, Alt.=164.099731m. Speed=0.144000m/h.</desc>
<speed>0.040000</speed>
</trkpt>
<trkpt lat="55.704369" lon="26.086414">
<ele>164.099731</ele>
<time>2010-07-17T18:55:19Z</time>
<desc>lat.=55.704369, lon.=26.086414, Alt.=164.099731m. Speed=0.144000m/h.</desc>
<speed>0.040000</speed>
</trkpt>
<trkpt lat="55.704369" lon="26.086414">
<ele>164.103638</ele>
<time>2010-07-17T18:55:20Z</time>
<desc>lat.=55.704369, lon.=26.086414, Alt.=164.103638m. Speed=0.180000m/h.</desc>
<speed>0.050000</speed>
</trkpt>
<trkpt lat="55.704369" lon="26.086414">
<ele>164.107544</ele>
<time>2010-07-17T18:55:21Z</time>
<desc>lat.=55.704369, lon.=26.086414, Alt.=164.107544m. Speed=0.072000m/h.</desc>
<speed>0.020000</speed>
</trkpt>
<trkpt lat="55.704369" lon="26.086414">
<ele>164.107544</ele>
<time>2010-07-17T18:55:22Z</time>
<desc>lat.=55.704369, lon.=26.086414, Alt.=164.107544m. Speed=0.036000m/h.</desc>
<speed>0.010000</speed>
</trkpt>
<trkpt lat="55.704369" lon="26.086414">
<ele>164.111450</ele>
<time>2010-07-17T18:55:23Z</time>
<desc>lat.=55.704369, lon.=26.086414, Alt.=164.111450m. Speed=0.144000m/h.</desc>
<speed>0.040000</speed>
</trkpt>
<trkpt lat="55.704369" lon="26.086414">
<ele>164.111450</ele>
<time>2010-07-17T18:55:24Z</time>
<desc>lat.=55.704369, lon.=26.086414, Alt.=164.111450m. Speed=0.144000m/h.</desc>
<speed>0.040000</speed>
</trkpt>
<trkpt lat="55.704369" lon="26.086414">
<ele>164.111450</ele>
<time>2010-07-17T18:55:25Z</time>
<desc>lat.=55.704369, lon.=26.086414, Alt.=164.111450m. Speed=0.072000m/h.</desc>
<speed>0.020000</speed>
</trkpt>
<trkpt lat="55.704369" lon="26.086414">
<ele>164.107544</ele>
<time>2010-07-17T18:55:26Z</time>
<desc>lat.=55.704369, lon.=26.086414, Alt.=164.107544m. Speed=0.108000m/h.</desc>
<speed>0.030000</speed>
</trkpt>
<trkpt lat="55.704369" lon="26.086414">
<ele>164.107544</ele>
<time>2010-07-17T18:55:27Z</time>
<desc>lat.=55.704369, lon.=26.086414, Alt.=164.107544m. Speed=0.072000m/h.</desc>
<speed>0.020000</speed>
</trkpt>
<trkpt lat="55.704369" lon="26.086414">
<ele>164.115356</ele>
<time>2010-07-17T18:55:28Z</time>
<desc>lat.=55.704369, lon.=26.086414, Alt.=164.115356m. Speed=0.072000m/h.</desc>
<speed>0.020000</speed>
</trkpt>
<trkpt lat="55.704369" lon="26.086414">
<ele>164.115356</ele>
<time>2010-07-17T18:55:29Z</time>
<desc>lat.=55.704369, lon.=26.086414, Alt.=164.115356m. Speed=0.036000m/h.</desc>
<speed>0.010000</speed>
</trkpt>
<trkpt lat="55.704369" lon="26.086416">
<ele>164.115356</ele>
<time>2010-07-17T18:55:30Z</time>
<desc>lat.=55.704369, lon.=26.086416, Alt.=164.115356m. Speed=0.180000m/h.</desc>
<speed>0.050000</speed>
</trkpt>
<trkpt lat="55.704369" lon="26.086416">
<ele>164.123169</ele>
<time>2010-07-17T18:55:31Z</time>
<desc>lat.=55.704369, lon.=26.086416, Alt.=164.123169m. Speed=0.072000m/h.</desc>
<speed>0.020000</speed>
</trkpt>
<trkpt lat="55.704369" lon="26.086416">
<ele>164.127075</ele>
<time>2010-07-17T18:55:32Z</time>
<desc>lat.=55.704369, lon.=26.086416, Alt.=164.127075m. Speed=0.108000m/h.</desc>
<speed>0.030000</speed>
</trkpt>
<trkpt lat="55.704369" lon="26.086416">
<ele>164.130981</ele>
<time>2010-07-17T18:55:33Z</time>
<desc>lat.=55.704369, lon.=26.086416, Alt.=164.130981m. Speed=0.072000m/h.</desc>
<speed>0.020000</speed>
</trkpt>
<trkpt lat="55.704369" lon="26.086416">
<ele>164.134888</ele>
<time>2010-07-17T18:55:34Z</time>
<desc>lat.=55.704369, lon.=26.086416, Alt.=164.134888m. Speed=0.036000m/h.</desc>
<speed>0.010000</speed>
</trkpt>
<trkpt lat="55.704369" lon="26.086416">
<ele>164.138794</ele>
<time>2010-07-17T18:55:35Z</time>
<desc>lat.=55.704369, lon.=26.086416, Alt.=164.138794m. Speed=0.072000m/h.</desc>
<speed>0.020000</speed>
</trkpt>
<trkpt lat="55.704369" lon="26.086416">
<ele>164.142700</ele>
<time>2010-07-17T18:55:36Z</time>
<desc>lat.=55.704369, lon.=26.086416, Alt.=164.142700m. Speed=0.036000m/h.</desc>
<speed>0.010000</speed>
</trkpt>
<trkpt lat="55.704369" lon="26.086416">
<ele>164.150513</ele>
<time>2010-07-17T18:55:37Z</time>
<desc>lat.=55.704369, lon.=26.086416, Alt.=164.150513m. Speed=0.144000m/h.</desc>
<speed>0.040000</speed>
</trkpt>
<trkpt lat="55.704369" lon="26.086416">
<ele>164.158325</ele>
<time>2010-07-17T18:55:38Z</time>
<desc>lat.=55.704369, lon.=26.086416, Alt.=164.158325m. Speed=0.072000m/h.</desc>
<speed>0.020000</speed>
</trkpt>
<trkpt lat="55.704369" lon="26.086416">
<ele>164.170044</ele>
<time>2010-07-17T18:55:39Z</time>
<desc>lat.=55.704369, lon.=26.086416, Alt.=164.170044m. Speed=0.036000m/h.</desc>
<speed>0.010000</speed>
</trkpt>
<trkpt lat="55.704369" lon="26.086416">
<ele>164.181763</ele>
<time>2010-07-17T18:55:40Z</time>
<desc>lat.=55.704369, lon.=26.086416, Alt.=164.181763m. Speed=0.000000m/h.</desc>
<speed>0.000000</speed>
</trkpt>
<trkpt lat="55.704369" lon="26.086416">
<ele>164.193481</ele>
<time>2010-07-17T18:55:41Z</time>
<desc>lat.=55.704369, lon.=26.086416, Alt.=164.193481m. Speed=0.036000m/h.</desc>
<speed>0.010000</speed>
</trkpt>
<trkpt lat="55.704369" lon="26.086416">
<ele>164.205200</ele>
<time>2010-07-17T18:55:42Z</time>
<desc>lat.=55.704369, lon.=26.086416, Alt.=164.205200m. Speed=0.072000m/h.</desc>
<speed>0.020000</speed>
</trkpt>
<trkpt lat="55.704369" lon="26.086418">
<ele>164.224731</ele>
<time>2010-07-17T18:55:43Z</time>
<desc>lat.=55.704369, lon.=26.086418, Alt.=164.224731m. Speed=0.036000m/h.</desc>
<speed>0.010000</speed>
</trkpt>
<trkpt lat="55.704369" lon="26.086418">
<ele>164.248169</ele>
<time>2010-07-17T18:55:44Z</time>
<desc>lat.=55.704369, lon.=26.086418, Alt.=164.248169m. Speed=0.108000m/h.</desc>
<speed>0.030000</speed>
</trkpt>
<trkpt lat="55.704369" lon="26.086418">
<ele>164.263794</ele>
<time>2010-07-17T18:55:45Z</time>
<desc>lat.=55.704369, lon.=26.086418, Alt.=164.263794m. Speed=0.072000m/h.</desc>
<speed>0.020000</speed>
</trkpt>
<trkpt lat="55.704369" lon="26.086418">
<ele>164.279419</ele>
<time>2010-07-17T18:55:46Z</time>
<desc>lat.=55.704369, lon.=26.086418, Alt.=164.279419m. Speed=0.072000m/h.</desc>
<speed>0.020000</speed>
</trkpt>
<trkpt lat="55.704369" lon="26.086418">
<ele>164.291138</ele>
<time>2010-07-17T18:55:47Z</time>
<desc>lat.=55.704369, lon.=26.086418, Alt.=164.291138m. Speed=0.108000m/h.</desc>
<speed>0.030000</speed>
</trkpt>
<trkpt lat="55.704369" lon="26.086418">
<ele>164.314575</ele>
<time>2010-07-17T18:55:48Z</time>
<desc>lat.=55.704369, lon.=26.086418, Alt.=164.314575m. Speed=0.000000m/h.</desc>
<speed>0.000000</speed>
</trkpt>
<trkpt lat="55.704369" lon="26.086418">
<ele>164.334106</ele>
<time>2010-07-17T18:55:49Z</time>
<desc>lat.=55.704369, lon.=26.086418, Alt.=164.334106m. Speed=0.036000m/h.</desc>
<speed>0.010000</speed>
</trkpt>
<trkpt lat="55.704369" lon="26.086418">
<ele>164.349731</ele>
<time>2010-07-17T18:55:50Z</time>
<desc>lat.=55.704369, lon.=26.086418, Alt.=164.349731m. Speed=0.000000m/h.</desc>
<speed>0.000000</speed>
</trkpt>
<trkpt lat="55.704369" lon="26.086418">
<ele>164.365356</ele>
<time>2010-07-17T18:55:51Z</time>
<desc>lat.=55.704369, lon.=26.086418, Alt.=164.365356m. Speed=0.072000m/h.</desc>
<speed>0.020000</speed>
</trkpt>
<trkpt lat="55.704369" lon="26.086418">
<ele>164.380981</ele>
<time>2010-07-17T18:55:52Z</time>
<desc>lat.=55.704369, lon.=26.086418, Alt.=164.380981m. Speed=0.036000m/h.</desc>
<speed>0.010000</speed>
</trkpt>
<trkpt lat="55.704369" lon="26.086418">
<ele>164.396606</ele>
<time>2010-07-17T18:55:53Z</time>
<desc>lat.=55.704369, lon.=26.086418, Alt.=164.396606m. Speed=0.072000m/h.</desc>
<speed>0.020000</speed>
</trkpt>
<trkpt lat="55.704369" lon="26.086418">
<ele>164.412231</ele>
<time>2010-07-17T18:55:54Z</time>
<desc>lat.=55.704369, lon.=26.086418, Alt.=164.412231m. Speed=0.072000m/h.</desc>
<speed>0.020000</speed>
</trkpt>
<trkpt lat="55.704369" lon="26.086418">
<ele>164.431763</ele>
<time>2010-07-17T18:55:55Z</time>
<desc>lat.=55.704369, lon.=26.086418, Alt.=164.431763m. Speed=0.072000m/h.</desc>
<speed>0.020000</speed>
</trkpt>
<trkpt lat="55.704369" lon="26.086418">
<ele>164.451294</ele>
<time>2010-07-17T18:55:56Z</time>
<desc>lat.=55.704369, lon.=26.086418, Alt.=164.451294m. Speed=0.000000m/h.</desc>
<speed>0.000000</speed>
</trkpt>
<trkpt lat="55.704369" lon="26.086418">
<ele>164.463013</ele>
<time>2010-07-17T18:55:57Z</time>
<desc>lat.=55.704369, lon.=26.086418, Alt.=164.463013m. Speed=0.036000m/h.</desc>
<speed>0.010000</speed>
</trkpt>
<trkpt lat="55.704369" lon="26.086418">
<ele>164.478638</ele>
<time>2010-07-17T18:55:58Z</time>
<desc>lat.=55.704369, lon.=26.086418, Alt.=164.478638m. Speed=0.000000m/h.</desc>
<speed>0.000000</speed>
</trkpt>
<trkpt lat="55.704369" lon="26.086418">
<ele>164.490356</ele>
<time>2010-07-17T18:55:59Z</time>
<desc>lat.=55.704369, lon.=26.086418, Alt.=164.490356m. Speed=0.000000m/h.</desc>
<speed>0.000000</speed>
</trkpt>
<trkpt lat="55.704369" lon="26.086418">
<ele>164.502075</ele>
<time>2010-07-17T18:56:00Z</time>
<desc>lat.=55.704369, lon.=26.086418, Alt.=164.502075m. Speed=0.036000m/h.</desc>
<speed>0.010000</speed>
</trkpt>
<trkpt lat="55.704369" lon="26.086418">
<ele>164.521606</ele>
<time>2010-07-17T18:56:01Z</time>
<desc>lat.=55.704369, lon.=26.086418, Alt.=164.521606m. Speed=0.072000m/h.</desc>
<speed>0.020000</speed>
</trkpt>
<trkpt lat="55.704369" lon="26.086418">
<ele>164.533325</ele>
<time>2010-07-17T18:56:02Z</time>
<desc>lat.=55.704369, lon.=26.086418, Alt.=164.533325m. Speed=0.036000m/h.</desc>
<speed>0.010000</speed>
</trkpt>
<trkpt lat="55.704369" lon="26.086418">
<ele>164.545044</ele>
<time>2010-07-17T18:56:03Z</time>
<desc>lat.=55.704369, lon.=26.086418, Alt.=164.545044m. Speed=0.036000m/h.</desc>
<speed>0.010000</speed>
</trkpt>
<trkpt lat="55.704369" lon="26.086418">
<ele>164.556763</ele>
<time>2010-07-17T18:56:04Z</time>
<desc>lat.=55.704369, lon.=26.086418, Alt.=164.556763m. Speed=0.036000m/h.</desc>
<speed>0.010000</speed>
</trkpt>
<trkpt lat="55.704369" lon="26.086418">
<ele>164.572388</ele>
<time>2010-07-17T18:56:05Z</time>
<desc>lat.=55.704369, lon.=26.086418, Alt.=164.572388m. Speed=0.036000m/h.</desc>
<speed>0.010000</speed>
</trkpt>
<trkpt lat="55.704369" lon="26.086418">
<ele>164.591919</ele>
<time>2010-07-17T18:56:06Z</time>
<desc>lat.=55.704369, lon.=26.086418, Alt.=164.591919m. Speed=0.072000m/h.</desc>
<speed>0.020000</speed>
</trkpt>
<trkpt lat="55.704369" lon="26.086418">
<ele>164.603638</ele>
<time>2010-07-17T18:56:07Z</time>
<desc>lat.=55.704369, lon.=26.086418, Alt.=164.603638m. Speed=0.216000m/h.</desc>
<speed>0.060000</speed>
</trkpt>
<trkpt lat="55.704369" lon="26.086418">
<ele>164.611450</ele>
<time>2010-07-17T18:56:08Z</time>
<desc>lat.=55.704369, lon.=26.086418, Alt.=164.611450m. Speed=0.216000m/h.</desc>
<speed>0.060000</speed>
</trkpt>
<trkpt lat="55.704369" lon="26.086418">
<ele>164.627075</ele>
<time>2010-07-17T18:56:09Z</time>
<desc>lat.=55.704369, lon.=26.086418, Alt.=164.627075m. Speed=0.144000m/h.</desc>
<speed>0.040000</speed>
</trkpt>
<trkpt lat="55.704369" lon="26.086418">
<ele>164.654419</ele>
<time>2010-07-17T18:56:10Z</time>
<desc>lat.=55.704369, lon.=26.086418, Alt.=164.654419m. Speed=0.072000m/h.</desc>
<speed>0.020000</speed>
</trkpt>
<trkpt lat="55.704369" lon="26.086418">
<ele>164.677856</ele>
<time>2010-07-17T18:56:11Z</time>
<desc>lat.=55.704369, lon.=26.086418, Alt.=164.677856m. Speed=0.108000m/h.</desc>
<speed>0.030000</speed>
</trkpt>
<trkpt lat="55.704369" lon="26.086418">
<ele>164.701294</ele>
<time>2010-07-17T18:56:12Z</time>
<desc>lat.=55.704369, lon.=26.086418, Alt.=164.701294m. Speed=0.216000m/h.</desc>
<speed>0.060000</speed>
</trkpt>
<trkpt lat="55.704369" lon="26.086418">
<ele>164.724731</ele>
<time>2010-07-17T18:56:13Z</time>
<desc>lat.=55.704369, lon.=26.086418, Alt.=164.724731m. Speed=0.180000m/h.</desc>
<speed>0.050000</speed>
</trkpt>
<trkpt lat="55.704372" lon="26.086416">
<ele>164.736450</ele>
<time>2010-07-17T18:56:14Z</time>
<desc>lat.=55.704372, lon.=26.086416, Alt.=164.736450m. Speed=0.216000m/h.</desc>
<speed>0.060000</speed>
</trkpt>
<trkpt lat="55.704372" lon="26.086416">
<ele>164.744263</ele>
<time>2010-07-17T18:56:15Z</time>
<desc>lat.=55.704372, lon.=26.086416, Alt.=164.744263m. Speed=0.216000m/h.</desc>
<speed>0.060000</speed>
</trkpt>
<trkpt lat="55.704372" lon="26.086416">
<ele>164.759888</ele>
<time>2010-07-17T18:56:16Z</time>
<desc>lat.=55.704372, lon.=26.086416, Alt.=164.759888m. Speed=0.144000m/h.</desc>
<speed>0.040000</speed>
</trkpt>
<trkpt lat="55.704372" lon="26.086416">
<ele>164.767700</ele>
<time>2010-07-17T18:56:17Z</time>
<desc>lat.=55.704372, lon.=26.086416, Alt.=164.767700m. Speed=0.216000m/h.</desc>
<speed>0.060000</speed>
</trkpt>
<trkpt lat="55.704372" lon="26.086416">
<ele>164.787231</ele>
<time>2010-07-17T18:56:18Z</time>
<desc>lat.=55.704372, lon.=26.086416, Alt.=164.787231m. Speed=0.216000m/h.</desc>
<speed>0.060000</speed>
</trkpt>
<trkpt lat="55.704372" lon="26.086416">
<ele>164.814575</ele>
<time>2010-07-17T18:56:19Z</time>
<desc>lat.=55.704372, lon.=26.086416, Alt.=164.814575m. Speed=0.144000m/h.</desc>
<speed>0.040000</speed>
</trkpt>
<trkpt lat="55.704372" lon="26.086416">
<ele>164.838013</ele>
<time>2010-07-17T18:56:20Z</time>
<desc>lat.=55.704372, lon.=26.086416, Alt.=164.838013m. Speed=0.144000m/h.</desc>
<speed>0.040000</speed>
</trkpt>
<trkpt lat="55.704372" lon="26.086416">
<ele>164.845825</ele>
<time>2010-07-17T18:56:21Z</time>
<desc>lat.=55.704372, lon.=26.086416, Alt.=164.845825m. Speed=0.108000m/h.</desc>
<speed>0.030000</speed>
</trkpt>
<trkpt lat="55.704372" lon="26.086416">
<ele>164.857544</ele>
<time>2010-07-17T18:56:22Z</time>
<desc>lat.=55.704372, lon.=26.086416, Alt.=164.857544m. Speed=0.036000m/h.</desc>
<speed>0.010000</speed>
</trkpt>
<trkpt lat="55.704372" lon="26.086416">
<ele>164.869263</ele>
<time>2010-07-17T18:56:23Z</time>
<desc>lat.=55.704372, lon.=26.086416, Alt.=164.869263m. Speed=0.108000m/h.</desc>
<speed>0.030000</speed>
</trkpt>
<trkpt lat="55.704372" lon="26.086416">
<ele>164.888794</ele>
<time>2010-07-17T18:56:24Z</time>
<desc>lat.=55.704372, lon.=26.086416, Alt.=164.888794m. Speed=0.108000m/h.</desc>
<speed>0.030000</speed>
</trkpt>
<trkpt lat="55.704372" lon="26.086416">
<ele>164.908325</ele>
<time>2010-07-17T18:56:25Z</time>
<desc>lat.=55.704372, lon.=26.086416, Alt.=164.908325m. Speed=0.036000m/h.</desc>
<speed>0.010000</speed>
</trkpt>
<trkpt lat="55.704372" lon="26.086416">
<ele>164.920044</ele>
<time>2010-07-17T18:56:26Z</time>
<desc>lat.=55.704372, lon.=26.086416, Alt.=164.920044m. Speed=0.036000m/h.</desc>
<speed>0.010000</speed>
</trkpt>
<trkpt lat="55.704372" lon="26.086416">
<ele>164.927856</ele>
<time>2010-07-17T18:56:27Z</time>
<desc>lat.=55.704372, lon.=26.086416, Alt.=164.927856m. Speed=0.072000m/h.</desc>
<speed>0.020000</speed>
</trkpt>
<trkpt lat="55.704372" lon="26.086416">
<ele>164.931763</ele>
<time>2010-07-17T18:56:28Z</time>
<desc>lat.=55.704372, lon.=26.086416, Alt.=164.931763m. Speed=0.072000m/h.</desc>
<speed>0.020000</speed>
</trkpt>
<trkpt lat="55.704372" lon="26.086416">
<ele>164.943481</ele>
<time>2010-07-17T18:56:29Z</time>
<desc>lat.=55.704372, lon.=26.086416, Alt.=164.943481m. Speed=0.000000m/h.</desc>
<speed>0.000000</speed>
</trkpt>
<trkpt lat="55.704372" lon="26.086416">
<ele>164.959106</ele>
<time>2010-07-17T18:56:30Z</time>
<desc>lat.=55.704372, lon.=26.086416, Alt.=164.959106m. Speed=0.036000m/h.</desc>
<speed>0.010000</speed>
</trkpt>
<trkpt lat="55.704372" lon="26.086416">
<ele>164.974731</ele>
<time>2010-07-17T18:56:31Z</time>
<desc>lat.=55.704372, lon.=26.086416, Alt.=164.974731m. Speed=0.000000m/h.</desc>
<speed>0.000000</speed>
</trkpt>
<trkpt lat="55.704372" lon="26.086416">
<ele>164.986450</ele>
<time>2010-07-17T18:56:32Z</time>
<desc>lat.=55.704372, lon.=26.086416, Alt.=164.986450m. Speed=0.000000m/h.</desc>
<speed>0.000000</speed>
</trkpt>
<trkpt lat="55.704372" lon="26.086416">
<ele>164.994263</ele>
<time>2010-07-17T18:56:33Z</time>
<desc>lat.=55.704372, lon.=26.086416, Alt.=164.994263m. Speed=0.036000m/h.</desc>
<speed>0.010000</speed>
</trkpt>
<trkpt lat="55.704372" lon="26.086416">
<ele>165.013794</ele>
<time>2010-07-17T18:56:34Z</time>
<desc>lat.=55.704372, lon.=26.086416, Alt.=165.013794m. Speed=0.000000m/h.</desc>
<speed>0.000000</speed>
</trkpt>
<trkpt lat="55.704372" lon="26.086416">
<ele>165.029419</ele>
<time>2010-07-17T18:56:35Z</time>
<desc>lat.=55.704372, lon.=26.086416, Alt.=165.029419m. Speed=0.108000m/h.</desc>
<speed>0.030000</speed>
</trkpt>
<trkpt lat="55.704372" lon="26.086416">
<ele>165.041138</ele>
<time>2010-07-17T18:56:36Z</time>
<desc>lat.=55.704372, lon.=26.086416, Alt.=165.041138m. Speed=0.036000m/h.</desc>
<speed>0.010000</speed>
</trkpt>
<trkpt lat="55.704372" lon="26.086416">
<ele>165.056763</ele>
<time>2010-07-17T18:56:37Z</time>
<desc>lat.=55.704372, lon.=26.086416, Alt.=165.056763m. Speed=0.108000m/h.</desc>
<speed>0.030000</speed>
</trkpt>
<trkpt lat="55.704372" lon="26.086416">
<ele>165.064575</ele>
<time>2010-07-17T18:56:38Z</time>
<desc>lat.=55.704372, lon.=26.086416, Alt.=165.064575m. Speed=0.144000m/h.</desc>
<speed>0.040000</speed>
</trkpt>
<trkpt lat="55.704372" lon="26.086416">
<ele>165.072388</ele>
<time>2010-07-17T18:56:39Z</time>
<desc>lat.=55.704372, lon.=26.086416, Alt.=165.072388m. Speed=0.180000m/h.</desc>
<speed>0.050000</speed>
</trkpt>
<trkpt lat="55.704372" lon="26.086416">
<ele>165.080200</ele>
<time>2010-07-17T18:56:40Z</time>
<desc>lat.=55.704372, lon.=26.086416, Alt.=165.080200m. Speed=0.108000m/h.</desc>
<speed>0.030000</speed>
</trkpt>
<trkpt lat="55.704372" lon="26.086416">
<ele>165.091919</ele>
<time>2010-07-17T18:56:41Z</time>
<desc>lat.=55.704372, lon.=26.086416, Alt.=165.091919m. Speed=0.072000m/h.</desc>
<speed>0.020000</speed>
</trkpt>
<trkpt lat="55.704372" lon="26.086416">
<ele>165.095825</ele>
<time>2010-07-17T18:56:42Z</time>
<desc>lat.=55.704372, lon.=26.086416, Alt.=165.095825m. Speed=0.144000m/h.</desc>
<speed>0.040000</speed>
</trkpt>
<trkpt lat="55.704372" lon="26.086416">
<ele>165.099731</ele>
<time>2010-07-17T18:56:43Z</time>
<desc>lat.=55.704372, lon.=26.086416, Alt.=165.099731m. Speed=0.036000m/h.</desc>
<speed>0.010000</speed>
</trkpt>
<trkpt lat="55.704372" lon="26.086416">
<ele>165.111450</ele>
<time>2010-07-17T18:56:44Z</time>
<desc>lat.=55.704372, lon.=26.086416, Alt.=165.111450m. Speed=0.108000m/h.</desc>
<speed>0.030000</speed>
</trkpt>
<trkpt lat="55.704372" lon="26.086416">
<ele>165.119263</ele>
<time>2010-07-17T18:56:45Z</time>
<desc>lat.=55.704372, lon.=26.086416, Alt.=165.119263m. Speed=0.036000m/h.</desc>
<speed>0.010000</speed>
</trkpt>
<trkpt lat="55.704372" lon="26.086418">
<ele>165.130981</ele>
<time>2010-07-17T18:56:46Z</time>
<desc>lat.=55.704372, lon.=26.086418, Alt.=165.130981m. Speed=0.036000m/h.</desc>
<speed>0.010000</speed>
</trkpt>
<trkpt lat="55.704372" lon="26.086418">
<ele>165.134888</ele>
<time>2010-07-17T18:56:47Z</time>
<desc>lat.=55.704372, lon.=26.086418, Alt.=165.134888m. Speed=0.072000m/h.</desc>
<speed>0.020000</speed>
</trkpt>
<trkpt lat="55.704372" lon="26.086418">
<ele>165.134888</ele>
<time>2010-07-17T18:56:48Z</time>
<desc>lat.=55.704372, lon.=26.086418, Alt.=165.134888m. Speed=0.072000m/h.</desc>
<speed>0.020000</speed>
</trkpt>
<trkpt lat="55.704372" lon="26.086418">
<ele>165.142700</ele>
<time>2010-07-17T18:56:49Z</time>
<desc>lat.=55.704372, lon.=26.086418, Alt.=165.142700m. Speed=0.036000m/h.</desc>
<speed>0.010000</speed>
</trkpt>
<trkpt lat="55.704372" lon="26.086418">
<ele>165.162231</ele>
<time>2010-07-17T18:56:50Z</time>
<desc>lat.=55.704372, lon.=26.086418, Alt.=165.162231m. Speed=0.036000m/h.</desc>
<speed>0.010000</speed>
</trkpt>
<trkpt lat="55.704372" lon="26.086418">
<ele>165.173950</ele>
<time>2010-07-17T18:56:51Z</time>
<desc>lat.=55.704372, lon.=26.086418, Alt.=165.173950m. Speed=0.072000m/h.</desc>
<speed>0.020000</speed>
</trkpt>
<trkpt lat="55.704372" lon="26.086418">
<ele>165.177856</ele>
<time>2010-07-17T18:56:52Z</time>
<desc>lat.=55.704372, lon.=26.086418, Alt.=165.177856m. Speed=0.000000m/h.</desc>
<speed>0.000000</speed>
</trkpt>
<trkpt lat="55.704372" lon="26.086418">
<ele>165.185669</ele>
<time>2010-07-17T18:56:53Z</time>
<desc>lat.=55.704372, lon.=26.086418, Alt.=165.185669m. Speed=0.036000m/h.</desc>
<speed>0.010000</speed>
</trkpt>
<trkpt lat="55.704372" lon="26.086418">
<ele>165.185669</ele>
<time>2010-07-17T18:56:54Z</time>
<desc>lat.=55.704372, lon.=26.086418, Alt.=165.185669m. Speed=0.000000m/h.</desc>
<speed>0.000000</speed>
</trkpt>
<trkpt lat="55.704372" lon="26.086418">
<ele>165.197388</ele>
<time>2010-07-17T18:56:55Z</time>
<desc>lat.=55.704372, lon.=26.086418, Alt.=165.197388m. Speed=0.000000m/h.</desc>
<speed>0.000000</speed>
</trkpt>
<trkpt lat="55.704372" lon="26.086418">
<ele>165.213013</ele>
<time>2010-07-17T18:56:56Z</time>
<desc>lat.=55.704372, lon.=26.086418, Alt.=165.213013m. Speed=0.000000m/h.</desc>
<speed>0.000000</speed>
</trkpt>
<trkpt lat="55.704372" lon="26.086418">
<ele>165.220825</ele>
<time>2010-07-17T18:56:57Z</time>
<desc>lat.=55.704372, lon.=26.086418, Alt.=165.220825m. Speed=0.144000m/h.</desc>
<speed>0.040000</speed>
</trkpt>
<trkpt lat="55.704372" lon="26.086418">
<ele>165.224731</ele>
<time>2010-07-17T18:56:58Z</time>
<desc>lat.=55.704372, lon.=26.086418, Alt.=165.224731m. Speed=0.072000m/h.</desc>
<speed>0.020000</speed>
</trkpt>
<trkpt lat="55.704372" lon="26.086418">
<ele>165.228638</ele>
<time>2010-07-17T18:56:59Z</time>
<desc>lat.=55.704372, lon.=26.086418, Alt.=165.228638m. Speed=0.072000m/h.</desc>
<speed>0.020000</speed>
</trkpt>
<trkpt lat="55.704372" lon="26.086418">
<ele>165.240356</ele>
<time>2010-07-17T18:57:00Z</time>
<desc>lat.=55.704372, lon.=26.086418, Alt.=165.240356m. Speed=0.000000m/h.</desc>
<speed>0.000000</speed>
</trkpt>
<trkpt lat="55.704372" lon="26.086418">
<ele>165.244263</ele>
<time>2010-07-17T18:57:01Z</time>
<desc>lat.=55.704372, lon.=26.086418, Alt.=165.244263m. Speed=0.072000m/h.</desc>
<speed>0.020000</speed>
</trkpt>
<trkpt lat="55.704372" lon="26.086418">
<ele>165.255981</ele>
<time>2010-07-17T18:57:02Z</time>
<desc>lat.=55.704372, lon.=26.086418, Alt.=165.255981m. Speed=0.072000m/h.</desc>
<speed>0.020000</speed>
</trkpt>
<trkpt lat="55.704372" lon="26.086418">
<ele>165.263794</ele>
<time>2010-07-17T18:57:03Z</time>
<desc>lat.=55.704372, lon.=26.086418, Alt.=165.263794m. Speed=0.000000m/h.</desc>
<speed>0.000000</speed>
</trkpt>
<trkpt lat="55.704372" lon="26.086418">
<ele>165.271606</ele>
<time>2010-07-17T18:57:04Z</time>
<desc>lat.=55.704372, lon.=26.086418, Alt.=165.271606m. Speed=0.036000m/h.</desc>
<speed>0.010000</speed>
</trkpt>
<trkpt lat="55.704372" lon="26.086418">
<ele>165.291138</ele>
<time>2010-07-17T18:57:05Z</time>
<desc>lat.=55.704372, lon.=26.086418, Alt.=165.291138m. Speed=0.036000m/h.</desc>
<speed>0.010000</speed>
</trkpt>
<trkpt lat="55.704372" lon="26.086418">
<ele>165.310669</ele>
<time>2010-07-17T18:57:06Z</time>
<desc>lat.=55.704372, lon.=26.086418, Alt.=165.310669m. Speed=0.072000m/h.</desc>
<speed>0.020000</speed>
</trkpt>
<trkpt lat="55.704372" lon="26.086418">
<ele>165.330200</ele>
<time>2010-07-17T18:57:07Z</time>
<desc>lat.=55.704372, lon.=26.086418, Alt.=165.330200m. Speed=0.144000m/h.</desc>
<speed>0.040000</speed>
</trkpt>
<trkpt lat="55.704372" lon="26.086418">
<ele>165.345825</ele>
<time>2010-07-17T18:57:08Z</time>
<desc>lat.=55.704372, lon.=26.086418, Alt.=165.345825m. Speed=0.108000m/h.</desc>
<speed>0.030000</speed>
</trkpt>
<trkpt lat="55.704372" lon="26.086418">
<ele>165.353638</ele>
<time>2010-07-17T18:57:09Z</time>
<desc>lat.=55.704372, lon.=26.086418, Alt.=165.353638m. Speed=0.036000m/h.</desc>
<speed>0.010000</speed>
</trkpt>
<trkpt lat="55.704372" lon="26.086418">
<ele>165.361450</ele>
<time>2010-07-17T18:57:10Z</time>
<desc>lat.=55.704372, lon.=26.086418, Alt.=165.361450m. Speed=0.108000m/h.</desc>
<speed>0.030000</speed>
</trkpt>
<trkpt lat="55.704372" lon="26.086420">
<ele>165.365356</ele>
<time>2010-07-17T18:57:11Z</time>
<desc>lat.=55.704372, lon.=26.086420, Alt.=165.365356m. Speed=0.108000m/h.</desc>
<speed>0.030000</speed>
</trkpt>
<trkpt lat="55.704372" lon="26.086420">
<ele>165.373169</ele>
<time>2010-07-17T18:57:12Z</time>
<desc>lat.=55.704372, lon.=26.086420, Alt.=165.373169m. Speed=0.108000m/h.</desc>
<speed>0.030000</speed>
</trkpt>
<trkpt lat="55.704372" lon="26.086420">
<ele>165.384888</ele>
<time>2010-07-17T18:57:13Z</time>
<desc>lat.=55.704372, lon.=26.086420, Alt.=165.384888m. Speed=0.036000m/h.</desc>
<speed>0.010000</speed>
</trkpt>
<trkpt lat="55.704372" lon="26.086420">
<ele>165.400513</ele>
<time>2010-07-17T18:57:14Z</time>
<desc>lat.=55.704372, lon.=26.086420, Alt.=165.400513m. Speed=0.036000m/h.</desc>
<speed>0.010000</speed>
</trkpt>
<trkpt lat="55.704372" lon="26.086420">
<ele>165.416138</ele>
<time>2010-07-17T18:57:15Z</time>
<desc>lat.=55.704372, lon.=26.086420, Alt.=165.416138m. Speed=0.000000m/h.</desc>
<speed>0.000000</speed>
</trkpt>
<trkpt lat="55.704372" lon="26.086420">
<ele>165.423950</ele>
<time>2010-07-17T18:57:16Z</time>
<desc>lat.=55.704372, lon.=26.086420, Alt.=165.423950m. Speed=0.072000m/h.</desc>
<speed>0.020000</speed>
</trkpt>
<trkpt lat="55.704372" lon="26.086420">
<ele>165.431763</ele>
<time>2010-07-17T18:57:17Z</time>
<desc>lat.=55.704372, lon.=26.086420, Alt.=165.431763m. Speed=0.000000m/h.</desc>
<speed>0.000000</speed>
</trkpt>
<trkpt lat="55.704372" lon="26.086420">
<ele>165.439575</ele>
<time>2010-07-17T18:57:18Z</time>
<desc>lat.=55.704372, lon.=26.086420, Alt.=165.439575m. Speed=0.036000m/h.</desc>
<speed>0.010000</speed>
</trkpt>
<trkpt lat="55.704372" lon="26.086420">
<ele>165.451294</ele>
<time>2010-07-17T18:57:19Z</time>
<desc>lat.=55.704372, lon.=26.086420, Alt.=165.451294m. Speed=0.036000m/h.</desc>
<speed>0.010000</speed>
</trkpt>
<trkpt lat="55.704372" lon="26.086420">
<ele>165.459106</ele>
<time>2010-07-17T18:57:20Z</time>
<desc>lat.=55.704372, lon.=26.086420, Alt.=165.459106m. Speed=0.036000m/h.</desc>
<speed>0.010000</speed>
</trkpt>
<trkpt lat="55.704372" lon="26.086420">
<ele>165.459106</ele>
<time>2010-07-17T18:57:21Z</time>
<desc>lat.=55.704372, lon.=26.086420, Alt.=165.459106m. Speed=0.072000m/h.</desc>
<speed>0.020000</speed>
</trkpt>
<trkpt lat="55.704372" lon="26.086420">
<ele>165.466919</ele>
<time>2010-07-17T18:57:22Z</time>
<desc>lat.=55.704372, lon.=26.086420, Alt.=165.466919m. Speed=0.072000m/h.</desc>
<speed>0.020000</speed>
</trkpt>
<trkpt lat="55.704372" lon="26.086420">
<ele>165.463013</ele>
<time>2010-07-17T18:57:23Z</time>
<desc>lat.=55.704372, lon.=26.086420, Alt.=165.463013m. Speed=0.072000m/h.</desc>
<speed>0.020000</speed>
</trkpt>
<trkpt lat="55.704372" lon="26.086420">
<ele>165.463013</ele>
<time>2010-07-17T18:57:24Z</time>
<desc>lat.=55.704372, lon.=26.086420, Alt.=165.463013m. Speed=0.036000m/h.</desc>
<speed>0.010000</speed>
</trkpt>
<trkpt lat="55.704372" lon="26.086420">
<ele>165.463013</ele>
<time>2010-07-17T18:57:25Z</time>
<desc>lat.=55.704372, lon.=26.086420, Alt.=165.463013m. Speed=0.072000m/h.</desc>
<speed>0.020000</speed>
</trkpt>
<trkpt lat="55.704372" lon="26.086420">
<ele>165.463013</ele>
<time>2010-07-17T18:57:26Z</time>
<desc>lat.=55.704372, lon.=26.086420, Alt.=165.463013m. Speed=0.036000m/h.</desc>
<speed>0.010000</speed>
</trkpt>
<trkpt lat="55.704372" lon="26.086420">
<ele>165.470825</ele>
<time>2010-07-17T18:57:27Z</time>
<desc>lat.=55.704372, lon.=26.086420, Alt.=165.470825m. Speed=0.036000m/h.</desc>
<speed>0.010000</speed>
</trkpt>
<trkpt lat="55.704372" lon="26.086420">
<ele>165.474731</ele>
<time>2010-07-17T18:57:28Z</time>
<desc>lat.=55.704372, lon.=26.086420, Alt.=165.474731m. Speed=0.000000m/h.</desc>
<speed>0.000000</speed>
</trkpt>
<trkpt lat="55.704372" lon="26.086420">
<ele>165.474731</ele>
<time>2010-07-17T18:57:29Z</time>
<desc>lat.=55.704372, lon.=26.086420, Alt.=165.474731m. Speed=0.036000m/h.</desc>
<speed>0.010000</speed>
</trkpt>
<trkpt lat="55.704372" lon="26.086420">
<ele>165.474731</ele>
<time>2010-07-17T18:57:30Z</time>
<desc>lat.=55.704372, lon.=26.086420, Alt.=165.474731m. Speed=0.072000m/h.</desc>
<speed>0.020000</speed>
</trkpt>
<trkpt lat="55.704372" lon="26.086420">
<ele>165.482544</ele>
<time>2010-07-17T18:57:31Z</time>
<desc>lat.=55.704372, lon.=26.086420, Alt.=165.482544m. Speed=0.036000m/h.</desc>
<speed>0.010000</speed>
</trkpt>
<trkpt lat="55.704372" lon="26.086420">
<ele>165.486450</ele>
<time>2010-07-17T18:57:32Z</time>
<desc>lat.=55.704372, lon.=26.086420, Alt.=165.486450m. Speed=0.036000m/h.</desc>
<speed>0.010000</speed>
</trkpt>
<trkpt lat="55.704372" lon="26.086420">
<ele>165.482544</ele>
<time>2010-07-17T18:57:33Z</time>
<desc>lat.=55.704372, lon.=26.086420, Alt.=165.482544m. Speed=0.144000m/h.</desc>
<speed>0.040000</speed>
</trkpt>
<trkpt lat="55.704372" lon="26.086420">
<ele>165.486450</ele>
<time>2010-07-17T18:57:34Z</time>
<desc>lat.=55.704372, lon.=26.086420, Alt.=165.486450m. Speed=0.036000m/h.</desc>
<speed>0.010000</speed>
</trkpt>
<trkpt lat="55.704372" lon="26.086420">
<ele>165.482544</ele>
<time>2010-07-17T18:57:35Z</time>
<desc>lat.=55.704372, lon.=26.086420, Alt.=165.482544m. Speed=0.072000m/h.</desc>
<speed>0.020000</speed>
</trkpt>
<trkpt lat="55.704372" lon="26.086420">
<ele>165.486450</ele>
<time>2010-07-17T18:57:36Z</time>
<desc>lat.=55.704372, lon.=26.086420, Alt.=165.486450m. Speed=0.144000m/h.</desc>
<speed>0.040000</speed>
</trkpt>
<trkpt lat="55.704372" lon="26.086420">
<ele>165.490356</ele>
<time>2010-07-17T18:57:37Z</time>
<desc>lat.=55.704372, lon.=26.086420, Alt.=165.490356m. Speed=0.108000m/h.</desc>
<speed>0.030000</speed>
</trkpt>
<trkpt lat="55.704372" lon="26.086420">
<ele>165.490356</ele>
<time>2010-07-17T18:57:38Z</time>
<desc>lat.=55.704372, lon.=26.086420, Alt.=165.490356m. Speed=0.072000m/h.</desc>
<speed>0.020000</speed>
</trkpt>
<trkpt lat="55.704376" lon="26.086422">
<ele>165.494263</ele>
<time>2010-07-17T18:57:39Z</time>
<desc>lat.=55.704376, lon.=26.086422, Alt.=165.494263m. Speed=0.108000m/h.</desc>
<speed>0.030000</speed>
</trkpt>
<trkpt lat="55.704376" lon="26.086422">
<ele>165.505981</ele>
<time>2010-07-17T18:57:40Z</time>
<desc>lat.=55.704376, lon.=26.086422, Alt.=165.505981m. Speed=0.072000m/h.</desc>
<speed>0.020000</speed>
</trkpt>
<trkpt lat="55.704376" lon="26.086422">
<ele>165.509888</ele>
<time>2010-07-17T18:57:41Z</time>
<desc>lat.=55.704376, lon.=26.086422, Alt.=165.509888m. Speed=0.036000m/h.</desc>
<speed>0.010000</speed>
</trkpt>
<trkpt lat="55.704376" lon="26.086422">
<ele>165.513794</ele>
<time>2010-07-17T18:57:42Z</time>
<desc>lat.=55.704376, lon.=26.086422, Alt.=165.513794m. Speed=0.072000m/h.</desc>
<speed>0.020000</speed>
</trkpt>
<trkpt lat="55.704376" lon="26.086422">
<ele>165.513794</ele>
<time>2010-07-17T18:57:43Z</time>
<desc>lat.=55.704376, lon.=26.086422, Alt.=165.513794m. Speed=0.108000m/h.</desc>
<speed>0.030000</speed>
</trkpt>
<trkpt lat="55.704376" lon="26.086422">
<ele>165.513794</ele>
<time>2010-07-17T18:57:44Z</time>
<desc>lat.=55.704376, lon.=26.086422, Alt.=165.513794m. Speed=0.072000m/h.</desc>
<speed>0.020000</speed>
</trkpt>
<trkpt lat="55.704376" lon="26.086422">
<ele>165.529419</ele>
<time>2010-07-17T18:57:45Z</time>
<desc>lat.=55.704376, lon.=26.086422, Alt.=165.529419m. Speed=0.144000m/h.</desc>
<speed>0.040000</speed>
</trkpt>
<trkpt lat="55.704376" lon="26.086422">
<ele>165.537231</ele>
<time>2010-07-17T18:57:46Z</time>
<desc>lat.=55.704376, lon.=26.086422, Alt.=165.537231m. Speed=0.000000m/h.</desc>
<speed>0.000000</speed>
</trkpt>
<trkpt lat="55.704376" lon="26.086422">
<ele>165.545044</ele>
<time>2010-07-17T18:57:47Z</time>
<desc>lat.=55.704376, lon.=26.086422, Alt.=165.545044m. Speed=0.072000m/h.</desc>
<speed>0.020000</speed>
</trkpt>
<trkpt lat="55.704376" lon="26.086422">
<ele>165.548950</ele>
<time>2010-07-17T18:57:48Z</time>
<desc>lat.=55.704376, lon.=26.086422, Alt.=165.548950m. Speed=0.108000m/h.</desc>
<speed>0.030000</speed>
</trkpt>
<trkpt lat="55.704376" lon="26.086422">
<ele>165.556763</ele>
<time>2010-07-17T18:57:49Z</time>
<desc>lat.=55.704376, lon.=26.086422, Alt.=165.556763m. Speed=0.144000m/h.</desc>
<speed>0.040000</speed>
</trkpt>
<trkpt lat="55.704376" lon="26.086422">
<ele>165.568481</ele>
<time>2010-07-17T18:57:50Z</time>
<desc>lat.=55.704376, lon.=26.086422, Alt.=165.568481m. Speed=0.180000m/h.</desc>
<speed>0.050000</speed>
</trkpt>
<trkpt lat="55.704376" lon="26.086422">
<ele>165.576294</ele>
<time>2010-07-17T18:57:51Z</time>
<desc>lat.=55.704376, lon.=26.086422, Alt.=165.576294m. Speed=0.180000m/h.</desc>
<speed>0.050000</speed>
</trkpt>
<trkpt lat="55.704376" lon="26.086422">
<ele>165.580200</ele>
<time>2010-07-17T18:57:52Z</time>
<desc>lat.=55.704376, lon.=26.086422, Alt.=165.580200m. Speed=0.108000m/h.</desc>
<speed>0.030000</speed>
</trkpt>
<trkpt lat="55.704376" lon="26.086422">
<ele>165.588013</ele>
<time>2010-07-17T18:57:53Z</time>
<desc>lat.=55.704376, lon.=26.086422, Alt.=165.588013m. Speed=0.036000m/h.</desc>
<speed>0.010000</speed>
</trkpt>
<trkpt lat="55.704376" lon="26.086422">
<ele>165.595825</ele>
<time>2010-07-17T18:57:54Z</time>
<desc>lat.=55.704376, lon.=26.086422, Alt.=165.595825m. Speed=0.180000m/h.</desc>
<speed>0.050000</speed>
</trkpt>
<trkpt lat="55.704376" lon="26.086422">
<ele>165.599731</ele>
<time>2010-07-17T18:57:55Z</time>
<desc>lat.=55.704376, lon.=26.086422, Alt.=165.599731m. Speed=0.144000m/h.</desc>
<speed>0.040000</speed>
</trkpt>
<trkpt lat="55.704376" lon="26.086422">
<ele>165.607544</ele>
<time>2010-07-17T18:57:56Z</time>
<desc>lat.=55.704376, lon.=26.086422, Alt.=165.607544m. Speed=0.216000m/h.</desc>
<speed>0.060000</speed>
</trkpt>
<trkpt lat="55.704376" lon="26.086422">
<ele>165.611450</ele>
<time>2010-07-17T18:57:57Z</time>
<desc>lat.=55.704376, lon.=26.086422, Alt.=165.611450m. Speed=0.072000m/h.</desc>
<speed>0.020000</speed>
</trkpt>
<trkpt lat="55.704376" lon="26.086422">
<ele>165.611450</ele>
<time>2010-07-17T18:57:58Z</time>
<desc>lat.=55.704376, lon.=26.086422, Alt.=165.611450m. Speed=0.108000m/h.</desc>
<speed>0.030000</speed>
</trkpt>
<trkpt lat="55.704376" lon="26.086422">
<ele>165.611450</ele>
<time>2010-07-17T18:57:59Z</time>
<desc>lat.=55.704376, lon.=26.086422, Alt.=165.611450m. Speed=0.072000m/h.</desc>
<speed>0.020000</speed>
</trkpt>
<trkpt lat="55.704376" lon="26.086424">
<ele>165.619263</ele>
<time>2010-07-17T18:58:00Z</time>
<desc>lat.=55.704376, lon.=26.086424, Alt.=165.619263m. Speed=0.072000m/h.</desc>
<speed>0.020000</speed>
</trkpt>
<trkpt lat="55.704376" lon="26.086422">
<ele>165.623169</ele>
<time>2010-07-17T18:58:01Z</time>
<desc>lat.=55.704376, lon.=26.086422, Alt.=165.623169m. Speed=0.072000m/h.</desc>
<speed>0.020000</speed>
</trkpt>
<trkpt lat="55.704376" lon="26.086424">
<ele>165.630981</ele>
<time>2010-07-17T18:58:02Z</time>
<desc>lat.=55.704376, lon.=26.086424, Alt.=165.630981m. Speed=0.036000m/h.</desc>
<speed>0.010000</speed>
</trkpt>
<trkpt lat="55.704376" lon="26.086422">
<ele>165.630981</ele>
<time>2010-07-17T18:58:03Z</time>
<desc>lat.=55.704376, lon.=26.086422, Alt.=165.630981m. Speed=0.108000m/h.</desc>
<speed>0.030000</speed>
</trkpt>
<trkpt lat="55.704376" lon="26.086424">
<ele>165.634888</ele>
<time>2010-07-17T18:58:04Z</time>
<desc>lat.=55.704376, lon.=26.086424, Alt.=165.634888m. Speed=0.036000m/h.</desc>
<speed>0.010000</speed>
</trkpt>
<trkpt lat="55.704376" lon="26.086424">
<ele>165.646606</ele>
<time>2010-07-17T18:58:05Z</time>
<desc>lat.=55.704376, lon.=26.086424, Alt.=165.646606m. Speed=0.036000m/h.</desc>
<speed>0.010000</speed>
</trkpt>
<trkpt lat="55.704376" lon="26.086424">
<ele>165.654419</ele>
<time>2010-07-17T18:58:06Z</time>
<desc>lat.=55.704376, lon.=26.086424, Alt.=165.654419m. Speed=0.072000m/h.</desc>
<speed>0.020000</speed>
</trkpt>
<trkpt lat="55.704376" lon="26.086424">
<ele>165.658325</ele>
<time>2010-07-17T18:58:07Z</time>
<desc>lat.=55.704376, lon.=26.086424, Alt.=165.658325m. Speed=0.072000m/h.</desc>
<speed>0.020000</speed>
</trkpt>
<trkpt lat="55.704376" lon="26.086424">
<ele>165.662231</ele>
<time>2010-07-17T18:58:08Z</time>
<desc>lat.=55.704376, lon.=26.086424, Alt.=165.662231m. Speed=0.036000m/h.</desc>
<speed>0.010000</speed>
</trkpt>
<trkpt lat="55.704376" lon="26.086424">
<ele>165.670044</ele>
<time>2010-07-17T18:58:09Z</time>
<desc>lat.=55.704376, lon.=26.086424, Alt.=165.670044m. Speed=0.108000m/h.</desc>
<speed>0.030000</speed>
</trkpt>
<trkpt lat="55.704376" lon="26.086422">
<ele>165.670044</ele>
<time>2010-07-17T18:58:10Z</time>
<desc>lat.=55.704376, lon.=26.086422, Alt.=165.670044m. Speed=0.036000m/h.</desc>
<speed>0.010000</speed>
</trkpt>
<trkpt lat="55.704376" lon="26.086422">
<ele>165.670044</ele>
<time>2010-07-17T18:58:11Z</time>
<desc>lat.=55.704376, lon.=26.086422, Alt.=165.670044m. Speed=0.036000m/h.</desc>
<speed>0.010000</speed>
</trkpt>
<trkpt lat="55.704376" lon="26.086422">
<ele>165.666138</ele>
<time>2010-07-17T18:58:12Z</time>
<desc>lat.=55.704376, lon.=26.086422, Alt.=165.666138m. Speed=0.000000m/h.</desc>
<speed>0.000000</speed>
</trkpt>
<trkpt lat="55.704376" lon="26.086422">
<ele>165.666138</ele>
<time>2010-07-17T18:58:13Z</time>
<desc>lat.=55.704376, lon.=26.086422, Alt.=165.666138m. Speed=0.072000m/h.</desc>
<speed>0.020000</speed>
</trkpt>
<trkpt lat="55.704376" lon="26.086422">
<ele>165.662231</ele>
<time>2010-07-17T18:58:14Z</time>
<desc>lat.=55.704376, lon.=26.086422, Alt.=165.662231m. Speed=0.144000m/h.</desc>
<speed>0.040000</speed>
</trkpt>
<trkpt lat="55.704376" lon="26.086422">
<ele>165.650513</ele>
<time>2010-07-17T18:58:15Z</time>
<desc>lat.=55.704376, lon.=26.086422, Alt.=165.650513m. Speed=0.072000m/h.</desc>
<speed>0.020000</speed>
</trkpt>
<trkpt lat="55.704376" lon="26.086422">
<ele>165.646606</ele>
<time>2010-07-17T18:58:16Z</time>
<desc>lat.=55.704376, lon.=26.086422, Alt.=165.646606m. Speed=0.000000m/h.</desc>
<speed>0.000000</speed>
</trkpt>
<trkpt lat="55.704376" lon="26.086422">
<ele>165.638794</ele>
<time>2010-07-17T18:58:17Z</time>
<desc>lat.=55.704376, lon.=26.086422, Alt.=165.638794m. Speed=0.072000m/h.</desc>
<speed>0.020000</speed>
</trkpt>
<trkpt lat="55.704376" lon="26.086422">
<ele>165.627075</ele>
<time>2010-07-17T18:58:18Z</time>
<desc>lat.=55.704376, lon.=26.086422, Alt.=165.627075m. Speed=0.036000m/h.</desc>
<speed>0.010000</speed>
</trkpt>
<trkpt lat="55.704376" lon="26.086422">
<ele>165.627075</ele>
<time>2010-07-17T18:58:19Z</time>
<desc>lat.=55.704376, lon.=26.086422, Alt.=165.627075m. Speed=0.000000m/h.</desc>
<speed>0.000000</speed>
</trkpt>
<trkpt lat="55.704376" lon="26.086422">
<ele>165.630981</ele>
<time>2010-07-17T18:58:20Z</time>
<desc>lat.=55.704376, lon.=26.086422, Alt.=165.630981m. Speed=0.000000m/h.</desc>
<speed>0.000000</speed>
</trkpt>
<trkpt lat="55.704376" lon="26.086422">
<ele>165.627075</ele>
<time>2010-07-17T18:58:21Z</time>
<desc>lat.=55.704376, lon.=26.086422, Alt.=165.627075m. Speed=0.072000m/h.</desc>
<speed>0.020000</speed>
</trkpt>
<trkpt lat="55.704376" lon="26.086422">
<ele>165.630981</ele>
<time>2010-07-17T18:58:22Z</time>
<desc>lat.=55.704376, lon.=26.086422, Alt.=165.630981m. Speed=0.072000m/h.</desc>
<speed>0.020000</speed>
</trkpt>
<trkpt lat="55.704376" lon="26.086422">
<ele>165.630981</ele>
<time>2010-07-17T18:58:23Z</time>
<desc>lat.=55.704376, lon.=26.086422, Alt.=165.630981m. Speed=0.036000m/h.</desc>
<speed>0.010000</speed>
</trkpt>
<trkpt lat="55.704376" lon="26.086422">
<ele>165.630981</ele>
<time>2010-07-17T18:58:24Z</time>
<desc>lat.=55.704376, lon.=26.086422, Alt.=165.630981m. Speed=0.036000m/h.</desc>
<speed>0.010000</speed>
</trkpt>
<trkpt lat="55.704376" lon="26.086422">
<ele>165.627075</ele>
<time>2010-07-17T18:58:25Z</time>
<desc>lat.=55.704376, lon.=26.086422, Alt.=165.627075m. Speed=0.072000m/h.</desc>
<speed>0.020000</speed>
</trkpt>
<trkpt lat="55.704376" lon="26.086424">
<ele>165.627075</ele>
<time>2010-07-17T18:58:26Z</time>
<desc>lat.=55.704376, lon.=26.086424, Alt.=165.627075m. Speed=0.108000m/h.</desc>
<speed>0.030000</speed>
</trkpt>
<trkpt lat="55.704376" lon="26.086424">
<ele>165.623169</ele>
<time>2010-07-17T18:58:27Z</time>
<desc>lat.=55.704376, lon.=26.086424, Alt.=165.623169m. Speed=0.144000m/h.</desc>
<speed>0.040000</speed>
</trkpt>
<trkpt lat="55.704376" lon="26.086424">
<ele>165.627075</ele>
<time>2010-07-17T18:58:28Z</time>
<desc>lat.=55.704376, lon.=26.086424, Alt.=165.627075m. Speed=0.108000m/h.</desc>
<speed>0.030000</speed>
</trkpt>
<trkpt lat="55.704376" lon="26.086424">
<ele>165.630981</ele>
<time>2010-07-17T18:58:29Z</time>
<desc>lat.=55.704376, lon.=26.086424, Alt.=165.630981m. Speed=0.108000m/h.</desc>
<speed>0.030000</speed>
</trkpt>
<trkpt lat="55.704380" lon="26.086424">
<ele>165.634888</ele>
<time>2010-07-17T18:58:30Z</time>
<desc>lat.=55.704380, lon.=26.086424, Alt.=165.634888m. Speed=0.036000m/h.</desc>
<speed>0.010000</speed>
</trkpt>
<trkpt lat="55.704380" lon="26.086424">
<ele>165.638794</ele>
<time>2010-07-17T18:58:31Z</time>
<desc>lat.=55.704380, lon.=26.086424, Alt.=165.638794m. Speed=0.036000m/h.</desc>
<speed>0.010000</speed>
</trkpt>
<trkpt lat="55.704380" lon="26.086424">
<ele>165.642700</ele>
<time>2010-07-17T18:58:32Z</time>
<desc>lat.=55.704380, lon.=26.086424, Alt.=165.642700m. Speed=0.072000m/h.</desc>
<speed>0.020000</speed>
</trkpt>
<trkpt lat="55.704380" lon="26.086422">
<ele>165.646606</ele>
<time>2010-07-17T18:58:33Z</time>
<desc>lat.=55.704380, lon.=26.086422, Alt.=165.646606m. Speed=0.036000m/h.</desc>
<speed>0.010000</speed>
</trkpt>
<trkpt lat="55.704380" lon="26.086422">
<ele>165.646606</ele>
<time>2010-07-17T18:58:34Z</time>
<desc>lat.=55.704380, lon.=26.086422, Alt.=165.646606m. Speed=0.036000m/h.</desc>
<speed>0.010000</speed>
</trkpt>
<trkpt lat="55.704380" lon="26.086422">
<ele>165.646606</ele>
<time>2010-07-17T18:58:35Z</time>
<desc>lat.=55.704380, lon.=26.086422, Alt.=165.646606m. Speed=0.072000m/h.</desc>
<speed>0.020000</speed>
</trkpt>
<trkpt lat="55.704380" lon="26.086424">
<ele>165.642700</ele>
<time>2010-07-17T18:58:36Z</time>
<desc>lat.=55.704380, lon.=26.086424, Alt.=165.642700m. Speed=0.072000m/h.</desc>
<speed>0.020000</speed>
</trkpt>
<trkpt lat="55.704380" lon="26.086422">
<ele>165.646606</ele>
<time>2010-07-17T18:58:37Z</time>
<desc>lat.=55.704380, lon.=26.086422, Alt.=165.646606m. Speed=0.072000m/h.</desc>
<speed>0.020000</speed>
</trkpt>
<trkpt lat="55.704380" lon="26.086424">
<ele>165.642700</ele>
<time>2010-07-17T18:58:38Z</time>
<desc>lat.=55.704380, lon.=26.086424, Alt.=165.642700m. Speed=0.000000m/h.</desc>
<speed>0.000000</speed>
</trkpt>
<trkpt lat="55.704380" lon="26.086424">
<ele>165.642700</ele>
<time>2010-07-17T18:58:39Z</time>
<desc>lat.=55.704380, lon.=26.086424, Alt.=165.642700m. Speed=0.072000m/h.</desc>
<speed>0.020000</speed>
</trkpt>
<trkpt lat="55.704380" lon="26.086422">
<ele>165.642700</ele>
<time>2010-07-17T18:58:40Z</time>
<desc>lat.=55.704380, lon.=26.086422, Alt.=165.642700m. Speed=0.144000m/h.</desc>
<speed>0.040000</speed>
</trkpt>
<trkpt lat="55.704380" lon="26.086422">
<ele>165.646606</ele>
<time>2010-07-17T18:58:41Z</time>
<desc>lat.=55.704380, lon.=26.086422, Alt.=165.646606m. Speed=0.036000m/h.</desc>
<speed>0.010000</speed>
</trkpt>
<trkpt lat="55.704380" lon="26.086422">
<ele>165.642700</ele>
<time>2010-07-17T18:58:42Z</time>
<desc>lat.=55.704380, lon.=26.086422, Alt.=165.642700m. Speed=0.072000m/h.</desc>
<speed>0.020000</speed>
</trkpt>
<trkpt lat="55.704380" lon="26.086422">
<ele>165.642700</ele>
<time>2010-07-17T18:58:43Z</time>
<desc>lat.=55.704380, lon.=26.086422, Alt.=165.642700m. Speed=0.144000m/h.</desc>
<speed>0.040000</speed>
</trkpt>
<trkpt lat="55.704380" lon="26.086422">
<ele>165.642700</ele>
<time>2010-07-17T18:58:44Z</time>
<desc>lat.=55.704380, lon.=26.086422, Alt.=165.642700m. Speed=0.144000m/h.</desc>
<speed>0.040000</speed>
</trkpt>
<trkpt lat="55.704380" lon="26.086422">
<ele>165.642700</ele>
<time>2010-07-17T18:58:45Z</time>
<desc>lat.=55.704380, lon.=26.086422, Alt.=165.642700m. Speed=0.072000m/h.</desc>
<speed>0.020000</speed>
</trkpt>
<trkpt lat="55.704380" lon="26.086422">
<ele>165.642700</ele>
<time>2010-07-17T18:58:46Z</time>
<desc>lat.=55.704380, lon.=26.086422, Alt.=165.642700m. Speed=0.144000m/h.</desc>
<speed>0.040000</speed>
</trkpt>
<trkpt lat="55.704380" lon="26.086422">
<ele>165.654419</ele>
<time>2010-07-17T18:58:47Z</time>
<desc>lat.=55.704380, lon.=26.086422, Alt.=165.654419m. Speed=0.108000m/h.</desc>
<speed>0.030000</speed>
</trkpt>
<trkpt lat="55.704380" lon="26.086422">
<ele>165.654419</ele>
<time>2010-07-17T18:58:48Z</time>
<desc>lat.=55.704380, lon.=26.086422, Alt.=165.654419m. Speed=0.108000m/h.</desc>
<speed>0.030000</speed>
</trkpt>
<trkpt lat="55.704380" lon="26.086422">
<ele>165.650513</ele>
<time>2010-07-17T18:58:49Z</time>
<desc>lat.=55.704380, lon.=26.086422, Alt.=165.650513m. Speed=0.108000m/h.</desc>
<speed>0.030000</speed>
</trkpt>
<trkpt lat="55.704380" lon="26.086422">
<ele>165.646606</ele>
<time>2010-07-17T18:58:50Z</time>
<desc>lat.=55.704380, lon.=26.086422, Alt.=165.646606m. Speed=0.036000m/h.</desc>
<speed>0.010000</speed>
</trkpt>
<trkpt lat="55.704380" lon="26.086422">
<ele>165.638794</ele>
<time>2010-07-17T18:58:51Z</time>
<desc>lat.=55.704380, lon.=26.086422, Alt.=165.638794m. Speed=0.072000m/h.</desc>
<speed>0.020000</speed>
</trkpt>
<trkpt lat="55.704380" lon="26.086422">
<ele>165.634888</ele>
<time>2010-07-17T18:58:52Z</time>
<desc>lat.=55.704380, lon.=26.086422, Alt.=165.634888m. Speed=0.072000m/h.</desc>
<speed>0.020000</speed>
</trkpt>
<trkpt lat="55.704380" lon="26.086422">
<ele>165.634888</ele>
<time>2010-07-17T18:58:53Z</time>
<desc>lat.=55.704380, lon.=26.086422, Alt.=165.634888m. Speed=0.108000m/h.</desc>
<speed>0.030000</speed>
</trkpt>
<trkpt lat="55.704380" lon="26.086422">
<ele>165.638794</ele>
<time>2010-07-17T18:58:54Z</time>
<desc>lat.=55.704380, lon.=26.086422, Alt.=165.638794m. Speed=0.072000m/h.</desc>
<speed>0.020000</speed>
</trkpt>
<trkpt lat="55.704380" lon="26.086422">
<ele>165.634888</ele>
<time>2010-07-17T18:58:55Z</time>
<desc>lat.=55.704380, lon.=26.086422, Alt.=165.634888m. Speed=0.072000m/h.</desc>
<speed>0.020000</speed>
</trkpt>
<trkpt lat="55.704380" lon="26.086422">
<ele>165.630981</ele>
<time>2010-07-17T18:58:56Z</time>
<desc>lat.=55.704380, lon.=26.086422, Alt.=165.630981m. Speed=0.072000m/h.</desc>
<speed>0.020000</speed>
</trkpt>
<trkpt lat="55.704380" lon="26.086422">
<ele>165.623169</ele>
<time>2010-07-17T18:58:57Z</time>
<desc>lat.=55.704380, lon.=26.086422, Alt.=165.623169m. Speed=0.072000m/h.</desc>
<speed>0.020000</speed>
</trkpt>
<trkpt lat="55.704380" lon="26.086422">
<ele>165.619263</ele>
<time>2010-07-17T18:58:58Z</time>
<desc>lat.=55.704380, lon.=26.086422, Alt.=165.619263m. Speed=0.036000m/h.</desc>
<speed>0.010000</speed>
</trkpt>
<trkpt lat="55.704380" lon="26.086420">
<ele>165.615356</ele>
<time>2010-07-17T18:58:59Z</time>
<desc>lat.=55.704380, lon.=26.086420, Alt.=165.615356m. Speed=0.072000m/h.</desc>
<speed>0.020000</speed>
</trkpt>
<trkpt lat="55.704380" lon="26.086420">
<ele>165.611450</ele>
<time>2010-07-17T18:59:00Z</time>
<desc>lat.=55.704380, lon.=26.086420, Alt.=165.611450m. Speed=0.072000m/h.</desc>
<speed>0.020000</speed>
</trkpt>
<trkpt lat="55.704380" lon="26.086420">
<ele>165.611450</ele>
<time>2010-07-17T18:59:01Z</time>
<desc>lat.=55.704380, lon.=26.086420, Alt.=165.611450m. Speed=0.072000m/h.</desc>
<speed>0.020000</speed>
</trkpt>
<trkpt lat="55.704380" lon="26.086420">
<ele>165.619263</ele>
<time>2010-07-17T18:59:02Z</time>
<desc>lat.=55.704380, lon.=26.086420, Alt.=165.619263m. Speed=0.036000m/h.</desc>
<speed>0.010000</speed>
</trkpt>
<trkpt lat="55.704380" lon="26.086420">
<ele>165.615356</ele>
<time>2010-07-17T18:59:03Z</time>
<desc>lat.=55.704380, lon.=26.086420, Alt.=165.615356m. Speed=0.108000m/h.</desc>
<speed>0.030000</speed>
</trkpt>
<trkpt lat="55.704380" lon="26.086420">
<ele>165.615356</ele>
<time>2010-07-17T18:59:04Z</time>
<desc>lat.=55.704380, lon.=26.086420, Alt.=165.615356m. Speed=0.144000m/h.</desc>
<speed>0.040000</speed>
</trkpt>
<trkpt lat="55.704380" lon="26.086420">
<ele>165.615356</ele>
<time>2010-07-17T18:59:05Z</time>
<desc>lat.=55.704380, lon.=26.086420, Alt.=165.615356m. Speed=0.072000m/h.</desc>
<speed>0.020000</speed>
</trkpt>
<trkpt lat="55.704380" lon="26.086420">
<ele>165.615356</ele>
<time>2010-07-17T18:59:06Z</time>
<desc>lat.=55.704380, lon.=26.086420, Alt.=165.615356m. Speed=0.108000m/h.</desc>
<speed>0.030000</speed>
</trkpt>
<trkpt lat="55.704380" lon="26.086420">
<ele>165.615356</ele>
<time>2010-07-17T18:59:07Z</time>
<desc>lat.=55.704380, lon.=26.086420, Alt.=165.615356m. Speed=0.072000m/h.</desc>
<speed>0.020000</speed>
</trkpt>
<trkpt lat="55.704380" lon="26.086420">
<ele>165.615356</ele>
<time>2010-07-17T18:59:08Z</time>
<desc>lat.=55.704380, lon.=26.086420, Alt.=165.615356m. Speed=0.072000m/h.</desc>
<speed>0.020000</speed>
</trkpt>
<trkpt lat="55.704380" lon="26.086420">
<ele>165.615356</ele>
<time>2010-07-17T18:59:09Z</time>
<desc>lat.=55.704380, lon.=26.086420, Alt.=165.615356m. Speed=0.036000m/h.</desc>
<speed>0.010000</speed>
</trkpt>
<trkpt lat="55.704384" lon="26.086420">
<ele>165.615356</ele>
<time>2010-07-17T18:59:10Z</time>
<desc>lat.=55.704384, lon.=26.086420, Alt.=165.615356m. Speed=0.036000m/h.</desc>
<speed>0.010000</speed>
</trkpt>
<trkpt lat="55.704384" lon="26.086420">
<ele>165.619263</ele>
<time>2010-07-17T18:59:11Z</time>
<desc>lat.=55.704384, lon.=26.086420, Alt.=165.619263m. Speed=0.108000m/h.</desc>
<speed>0.030000</speed>
</trkpt>
<trkpt lat="55.704384" lon="26.086422">
<ele>165.615356</ele>
<time>2010-07-17T18:59:12Z</time>
<desc>lat.=55.704384, lon.=26.086422, Alt.=165.615356m. Speed=0.072000m/h.</desc>
<speed>0.020000</speed>
</trkpt>
<trkpt lat="55.704384" lon="26.086422">
<ele>165.615356</ele>
<time>2010-07-17T18:59:13Z</time>
<desc>lat.=55.704384, lon.=26.086422, Alt.=165.615356m. Speed=0.072000m/h.</desc>
<speed>0.020000</speed>
</trkpt>
<trkpt lat="55.704384" lon="26.086422">
<ele>165.619263</ele>
<time>2010-07-17T18:59:14Z</time>
<desc>lat.=55.704384, lon.=26.086422, Alt.=165.619263m. Speed=0.108000m/h.</desc>
<speed>0.030000</speed>
</trkpt>
<trkpt lat="55.704384" lon="26.086422">
<ele>165.627075</ele>
<time>2010-07-17T18:59:15Z</time>
<desc>lat.=55.704384, lon.=26.086422, Alt.=165.627075m. Speed=0.108000m/h.</desc>
<speed>0.030000</speed>
</trkpt>
<trkpt lat="55.704384" lon="26.086422">
<ele>165.630981</ele>
<time>2010-07-17T18:59:16Z</time>
<desc>lat.=55.704384, lon.=26.086422, Alt.=165.630981m. Speed=0.108000m/h.</desc>
<speed>0.030000</speed>
</trkpt>
<trkpt lat="55.704384" lon="26.086422">
<ele>165.630981</ele>
<time>2010-07-17T18:59:17Z</time>
<desc>lat.=55.704384, lon.=26.086422, Alt.=165.630981m. Speed=0.216000m/h.</desc>
<speed>0.060000</speed>
</trkpt>
<trkpt lat="55.704384" lon="26.086422">
<ele>165.630981</ele>
<time>2010-07-17T18:59:18Z</time>
<desc>lat.=55.704384, lon.=26.086422, Alt.=165.630981m. Speed=0.180000m/h.</desc>
<speed>0.050000</speed>
</trkpt>
<trkpt lat="55.704384" lon="26.086422">
<ele>165.630981</ele>
<time>2010-07-17T18:59:19Z</time>
<desc>lat.=55.704384, lon.=26.086422, Alt.=165.630981m. Speed=0.072000m/h.</desc>
<speed>0.020000</speed>
</trkpt>
<trkpt lat="55.704384" lon="26.086422">
<ele>165.638794</ele>
<time>2010-07-17T18:59:20Z</time>
<desc>lat.=55.704384, lon.=26.086422, Alt.=165.638794m. Speed=0.108000m/h.</desc>
<speed>0.030000</speed>
</trkpt>
<trkpt lat="55.704384" lon="26.086422">
<ele>165.642700</ele>
<time>2010-07-17T18:59:21Z</time>
<desc>lat.=55.704384, lon.=26.086422, Alt.=165.642700m. Speed=0.072000m/h.</desc>
<speed>0.020000</speed>
</trkpt>
<trkpt lat="55.704384" lon="26.086422">
<ele>165.646606</ele>
<time>2010-07-17T18:59:22Z</time>
<desc>lat.=55.704384, lon.=26.086422, Alt.=165.646606m. Speed=0.000000m/h.</desc>
<speed>0.000000</speed>
</trkpt>
<trkpt lat="55.704384" lon="26.086422">
<ele>165.650513</ele>
<time>2010-07-17T18:59:23Z</time>
<desc>lat.=55.704384, lon.=26.086422, Alt.=165.650513m. Speed=0.108000m/h.</desc>
<speed>0.030000</speed>
</trkpt>
<trkpt lat="55.704384" lon="26.086422">
<ele>165.646606</ele>
<time>2010-07-17T18:59:24Z</time>
<desc>lat.=55.704384, lon.=26.086422, Alt.=165.646606m. Speed=0.072000m/h.</desc>
<speed>0.020000</speed>
</trkpt>
<trkpt lat="55.704384" lon="26.086422">
<ele>165.646606</ele>
<time>2010-07-17T18:59:25Z</time>
<desc>lat.=55.704384, lon.=26.086422, Alt.=165.646606m. Speed=0.036000m/h.</desc>
<speed>0.010000</speed>
</trkpt>
<trkpt lat="55.704384" lon="26.086422">
<ele>165.646606</ele>
<time>2010-07-17T18:59:26Z</time>
<desc>lat.=55.704384, lon.=26.086422, Alt.=165.646606m. Speed=0.036000m/h.</desc>
<speed>0.010000</speed>
</trkpt>
<trkpt lat="55.704384" lon="26.086422">
<ele>165.646606</ele>
<time>2010-07-17T18:59:27Z</time>
<desc>lat.=55.704384, lon.=26.086422, Alt.=165.646606m. Speed=0.108000m/h.</desc>
<speed>0.030000</speed>
</trkpt>
<trkpt lat="55.704384" lon="26.086422">
<ele>165.650513</ele>
<time>2010-07-17T18:59:28Z</time>
<desc>lat.=55.704384, lon.=26.086422, Alt.=165.650513m. Speed=0.144000m/h.</desc>
<speed>0.040000</speed>
</trkpt>
<trkpt lat="55.704384" lon="26.086422">
<ele>165.654419</ele>
<time>2010-07-17T18:59:29Z</time>
<desc>lat.=55.704384, lon.=26.086422, Alt.=165.654419m. Speed=0.180000m/h.</desc>
<speed>0.050000</speed>
</trkpt>
<trkpt lat="55.704384" lon="26.086422">
<ele>165.658325</ele>
<time>2010-07-17T18:59:30Z</time>
<desc>lat.=55.704384, lon.=26.086422, Alt.=165.658325m. Speed=0.072000m/h.</desc>
<speed>0.020000</speed>
</trkpt>
<trkpt lat="55.704384" lon="26.086422">
<ele>165.662231</ele>
<time>2010-07-17T18:59:31Z</time>
<desc>lat.=55.704384, lon.=26.086422, Alt.=165.662231m. Speed=0.036000m/h.</desc>
<speed>0.010000</speed>
</trkpt>
<trkpt lat="55.704384" lon="26.086422">
<ele>165.662231</ele>
<time>2010-07-17T18:59:32Z</time>
<desc>lat.=55.704384, lon.=26.086422, Alt.=165.662231m. Speed=0.072000m/h.</desc>
<speed>0.020000</speed>
</trkpt>
<trkpt lat="55.704384" lon="26.086422">
<ele>165.666138</ele>
<time>2010-07-17T18:59:33Z</time>
<desc>lat.=55.704384, lon.=26.086422, Alt.=165.666138m. Speed=0.036000m/h.</desc>
<speed>0.010000</speed>
</trkpt>
<trkpt lat="55.704384" lon="26.086422">
<ele>165.670044</ele>
<time>2010-07-17T18:59:34Z</time>
<desc>lat.=55.704384, lon.=26.086422, Alt.=165.670044m. Speed=0.144000m/h.</desc>
<speed>0.040000</speed>
</trkpt>
<trkpt lat="55.704384" lon="26.086422">
<ele>165.673950</ele>
<time>2010-07-17T18:59:35Z</time>
<desc>lat.=55.704384, lon.=26.086422, Alt.=165.673950m. Speed=0.180000m/h.</desc>
<speed>0.050000</speed>
</trkpt>
<trkpt lat="55.704384" lon="26.086422">
<ele>165.673950</ele>
<time>2010-07-17T18:59:36Z</time>
<desc>lat.=55.704384, lon.=26.086422, Alt.=165.673950m. Speed=0.072000m/h.</desc>
<speed>0.020000</speed>
</trkpt>
<trkpt lat="55.704384" lon="26.086424">
<ele>165.677856</ele>
<time>2010-07-17T18:59:37Z</time>
<desc>lat.=55.704384, lon.=26.086424, Alt.=165.677856m. Speed=0.108000m/h.</desc>
<speed>0.030000</speed>
</trkpt>
<trkpt lat="55.704384" lon="26.086424">
<ele>165.677856</ele>
<time>2010-07-17T18:59:38Z</time>
<desc>lat.=55.704384, lon.=26.086424, Alt.=165.677856m. Speed=0.144000m/h.</desc>
<speed>0.040000</speed>
</trkpt>
<trkpt lat="55.704384" lon="26.086422">
<ele>165.681763</ele>
<time>2010-07-17T18:59:39Z</time>
<desc>lat.=55.704384, lon.=26.086422, Alt.=165.681763m. Speed=0.072000m/h.</desc>
<speed>0.020000</speed>
</trkpt>
<trkpt lat="55.704384" lon="26.086422">
<ele>165.681763</ele>
<time>2010-07-17T18:59:40Z</time>
<desc>lat.=55.704384, lon.=26.086422, Alt.=165.681763m. Speed=0.108000m/h.</desc>
<speed>0.030000</speed>
</trkpt>
<trkpt lat="55.704384" lon="26.086422">
<ele>165.685669</ele>
<time>2010-07-17T18:59:41Z</time>
<desc>lat.=55.704384, lon.=26.086422, Alt.=165.685669m. Speed=0.036000m/h.</desc>
<speed>0.010000</speed>
</trkpt>
<trkpt lat="55.704384" lon="26.086422">
<ele>165.681763</ele>
<time>2010-07-17T18:59:42Z</time>
<desc>lat.=55.704384, lon.=26.086422, Alt.=165.681763m. Speed=0.072000m/h.</desc>
<speed>0.020000</speed>
</trkpt>
<trkpt lat="55.704384" lon="26.086422">
<ele>165.681763</ele>
<time>2010-07-17T18:59:43Z</time>
<desc>lat.=55.704384, lon.=26.086422, Alt.=165.681763m. Speed=0.072000m/h.</desc>
<speed>0.020000</speed>
</trkpt>
<trkpt lat="55.704384" lon="26.086422">
<ele>165.681763</ele>
<time>2010-07-17T18:59:44Z</time>
<desc>lat.=55.704384, lon.=26.086422, Alt.=165.681763m. Speed=0.144000m/h.</desc>
<speed>0.040000</speed>
</trkpt>
<trkpt lat="55.704384" lon="26.086422">
<ele>165.677856</ele>
<time>2010-07-17T18:59:45Z</time>
<desc>lat.=55.704384, lon.=26.086422, Alt.=165.677856m. Speed=0.036000m/h.</desc>
<speed>0.010000</speed>
</trkpt>
<trkpt lat="55.704384" lon="26.086422">
<ele>165.677856</ele>
<time>2010-07-17T18:59:46Z</time>
<desc>lat.=55.704384, lon.=26.086422, Alt.=165.677856m. Speed=0.180000m/h.</desc>
<speed>0.050000</speed>
</trkpt>
<trkpt lat="55.704388" lon="26.086422">
<ele>165.681763</ele>
<time>2010-07-17T18:59:47Z</time>
<desc>lat.=55.704388, lon.=26.086422, Alt.=165.681763m. Speed=0.252000m/h.</desc>
<speed>0.070000</speed>
</trkpt>
<trkpt lat="55.704388" lon="26.086422">
<ele>165.689575</ele>
<time>2010-07-17T18:59:48Z</time>
<desc>lat.=55.704388, lon.=26.086422, Alt.=165.689575m. Speed=0.036000m/h.</desc>
<speed>0.010000</speed>
</trkpt>
<trkpt lat="55.704388" lon="26.086422">
<ele>165.689575</ele>
<time>2010-07-17T18:59:49Z</time>
<desc>lat.=55.704388, lon.=26.086422, Alt.=165.689575m. Speed=0.108000m/h.</desc>
<speed>0.030000</speed>
</trkpt>
<trkpt lat="55.704388" lon="26.086422">
<ele>165.689575</ele>
<time>2010-07-17T18:59:50Z</time>
<desc>lat.=55.704388, lon.=26.086422, Alt.=165.689575m. Speed=0.180000m/h.</desc>
<speed>0.050000</speed>
</trkpt>
<trkpt lat="55.704388" lon="26.086422">
<ele>165.685669</ele>
<time>2010-07-17T18:59:51Z</time>
<desc>lat.=55.704388, lon.=26.086422, Alt.=165.685669m. Speed=0.072000m/h.</desc>
<speed>0.020000</speed>
</trkpt>
<trkpt lat="55.704388" lon="26.086422">
<ele>165.685669</ele>
<time>2010-07-17T18:59:52Z</time>
<desc>lat.=55.704388, lon.=26.086422, Alt.=165.685669m. Speed=0.072000m/h.</desc>
<speed>0.020000</speed>
</trkpt>
<trkpt lat="55.704388" lon="26.086422">
<ele>165.689575</ele>
<time>2010-07-17T18:59:53Z</time>
<desc>lat.=55.704388, lon.=26.086422, Alt.=165.689575m. Speed=0.036000m/h.</desc>
<speed>0.010000</speed>
</trkpt>
<trkpt lat="55.704388" lon="26.086422">
<ele>165.693481</ele>
<time>2010-07-17T18:59:54Z</time>
<desc>lat.=55.704388, lon.=26.086422, Alt.=165.693481m. Speed=0.036000m/h.</desc>
<speed>0.010000</speed>
</trkpt>
<trkpt lat="55.704388" lon="26.086422">
<ele>165.701294</ele>
<time>2010-07-17T18:59:55Z</time>
<desc>lat.=55.704388, lon.=26.086422, Alt.=165.701294m. Speed=0.036000m/h.</desc>
<speed>0.010000</speed>
</trkpt>
<trkpt lat="55.704388" lon="26.086422">
<ele>165.701294</ele>
<time>2010-07-17T18:59:56Z</time>
<desc>lat.=55.704388, lon.=26.086422, Alt.=165.701294m. Speed=0.036000m/h.</desc>
<speed>0.010000</speed>
</trkpt>
<trkpt lat="55.704388" lon="26.086422">
<ele>165.705200</ele>
<time>2010-07-17T18:59:57Z</time>
<desc>lat.=55.704388, lon.=26.086422, Alt.=165.705200m. Speed=0.036000m/h.</desc>
<speed>0.010000</speed>
</trkpt>
<trkpt lat="55.704388" lon="26.086422">
<ele>165.701294</ele>
<time>2010-07-17T18:59:58Z</time>
<desc>lat.=55.704388, lon.=26.086422, Alt.=165.701294m. Speed=0.036000m/h.</desc>
<speed>0.010000</speed>
</trkpt>
<trkpt lat="55.704388" lon="26.086422">
<ele>165.709106</ele>
<time>2010-07-17T18:59:59Z</time>
<desc>lat.=55.704388, lon.=26.086422, Alt.=165.709106m. Speed=0.072000m/h.</desc>
<speed>0.020000</speed>
</trkpt>
<trkpt lat="55.704388" lon="26.086422">
<ele>165.716919</ele>
<time>2010-07-17T19:00:00Z</time>
<desc>lat.=55.704388, lon.=26.086422, Alt.=165.716919m. Speed=0.108000m/h.</desc>
<speed>0.030000</speed>
</trkpt>
<trkpt lat="55.704388" lon="26.086422">
<ele>165.720825</ele>
<time>2010-07-17T19:00:01Z</time>
<desc>lat.=55.704388, lon.=26.086422, Alt.=165.720825m. Speed=0.036000m/h.</desc>
<speed>0.010000</speed>
</trkpt>
<trkpt lat="55.704388" lon="26.086422">
<ele>165.724731</ele>
<time>2010-07-17T19:00:02Z</time>
<desc>lat.=55.704388, lon.=26.086422, Alt.=165.724731m. Speed=0.072000m/h.</desc>
<speed>0.020000</speed>
</trkpt>
<trkpt lat="55.704388" lon="26.086422">
<ele>165.732544</ele>
<time>2010-07-17T19:00:03Z</time>
<desc>lat.=55.704388, lon.=26.086422, Alt.=165.732544m. Speed=0.072000m/h.</desc>
<speed>0.020000</speed>
</trkpt>
<trkpt lat="55.704388" lon="26.086422">
<ele>165.736450</ele>
<time>2010-07-17T19:00:04Z</time>
<desc>lat.=55.704388, lon.=26.086422, Alt.=165.736450m. Speed=0.000000m/h.</desc>
<speed>0.000000</speed>
</trkpt>
<trkpt lat="55.704388" lon="26.086422">
<ele>165.740356</ele>
<time>2010-07-17T19:00:05Z</time>
<desc>lat.=55.704388, lon.=26.086422, Alt.=165.740356m. Speed=0.036000m/h.</desc>
<speed>0.010000</speed>
</trkpt>
<trkpt lat="55.704388" lon="26.086422">
<ele>165.744263</ele>
<time>2010-07-17T19:00:06Z</time>
<desc>lat.=55.704388, lon.=26.086422, Alt.=165.744263m. Speed=0.072000m/h.</desc>
<speed>0.020000</speed>
</trkpt>
<trkpt lat="55.704388" lon="26.086422">
<ele>165.755981</ele>
<time>2010-07-17T19:00:07Z</time>
<desc>lat.=55.704388, lon.=26.086422, Alt.=165.755981m. Speed=0.072000m/h.</desc>
<speed>0.020000</speed>
</trkpt>
<trkpt lat="55.704388" lon="26.086422">
<ele>165.767700</ele>
<time>2010-07-17T19:00:08Z</time>
<desc>lat.=55.704388, lon.=26.086422, Alt.=165.767700m. Speed=0.036000m/h.</desc>
<speed>0.010000</speed>
</trkpt>
<trkpt lat="55.704388" lon="26.086422">
<ele>165.775513</ele>
<time>2010-07-17T19:00:09Z</time>
<desc>lat.=55.704388, lon.=26.086422, Alt.=165.775513m. Speed=0.036000m/h.</desc>
<speed>0.010000</speed>
</trkpt>
<trkpt lat="55.704388" lon="26.086422">
<ele>165.783325</ele>
<time>2010-07-17T19:00:10Z</time>
<desc>lat.=55.704388, lon.=26.086422, Alt.=165.783325m. Speed=0.036000m/h.</desc>
<speed>0.010000</speed>
</trkpt>
<trkpt lat="55.704388" lon="26.086422">
<ele>165.791138</ele>
<time>2010-07-17T19:00:11Z</time>
<desc>lat.=55.704388, lon.=26.086422, Alt.=165.791138m. Speed=0.072000m/h.</desc>
<speed>0.020000</speed>
</trkpt>
<trkpt lat="55.704388" lon="26.086422">
<ele>165.795044</ele>
<time>2010-07-17T19:00:12Z</time>
<desc>lat.=55.704388, lon.=26.086422, Alt.=165.795044m. Speed=0.072000m/h.</desc>
<speed>0.020000</speed>
</trkpt>
<trkpt lat="55.704388" lon="26.086422">
<ele>165.798950</ele>
<time>2010-07-17T19:00:13Z</time>
<desc>lat.=55.704388, lon.=26.086422, Alt.=165.798950m. Speed=0.108000m/h.</desc>
<speed>0.030000</speed>
</trkpt>
<trkpt lat="55.704388" lon="26.086422">
<ele>165.802856</ele>
<time>2010-07-17T19:00:14Z</time>
<desc>lat.=55.704388, lon.=26.086422, Alt.=165.802856m. Speed=0.036000m/h.</desc>
<speed>0.010000</speed>
</trkpt>
<trkpt lat="55.704388" lon="26.086422">
<ele>165.806763</ele>
<time>2010-07-17T19:00:15Z</time>
<desc>lat.=55.704388, lon.=26.086422, Alt.=165.806763m. Speed=0.000000m/h.</desc>
<speed>0.000000</speed>
</trkpt>
<trkpt lat="55.704388" lon="26.086422">
<ele>165.806763</ele>
<time>2010-07-17T19:00:16Z</time>
<desc>lat.=55.704388, lon.=26.086422, Alt.=165.806763m. Speed=0.072000m/h.</desc>
<speed>0.020000</speed>
</trkpt>
<trkpt lat="55.704388" lon="26.086422">
<ele>165.810669</ele>
<time>2010-07-17T19:00:17Z</time>
<desc>lat.=55.704388, lon.=26.086422, Alt.=165.810669m. Speed=0.072000m/h.</desc>
<speed>0.020000</speed>
</trkpt>
<trkpt lat="55.704388" lon="26.086422">
<ele>165.818481</ele>
<time>2010-07-17T19:00:18Z</time>
<desc>lat.=55.704388, lon.=26.086422, Alt.=165.818481m. Speed=0.036000m/h.</desc>
<speed>0.010000</speed>
</trkpt>
<trkpt lat="55.704388" lon="26.086422">
<ele>165.818481</ele>
<time>2010-07-17T19:00:19Z</time>
<desc>lat.=55.704388, lon.=26.086422, Alt.=165.818481m. Speed=0.036000m/h.</desc>
<speed>0.010000</speed>
</trkpt>
<trkpt lat="55.704388" lon="26.086422">
<ele>165.826294</ele>
<time>2010-07-17T19:00:20Z</time>
<desc>lat.=55.704388, lon.=26.086422, Alt.=165.826294m. Speed=0.000000m/h.</desc>
<speed>0.000000</speed>
</trkpt>
<trkpt lat="55.704388" lon="26.086422">
<ele>165.830200</ele>
<time>2010-07-17T19:00:21Z</time>
<desc>lat.=55.704388, lon.=26.086422, Alt.=165.830200m. Speed=0.072000m/h.</desc>
<speed>0.020000</speed>
</trkpt>
<trkpt lat="55.704388" lon="26.086422">
<ele>165.826294</ele>
<time>2010-07-17T19:00:22Z</time>
<desc>lat.=55.704388, lon.=26.086422, Alt.=165.826294m. Speed=0.036000m/h.</desc>
<speed>0.010000</speed>
</trkpt>
<trkpt lat="55.704388" lon="26.086422">
<ele>165.822388</ele>
<time>2010-07-17T19:00:23Z</time>
<desc>lat.=55.704388, lon.=26.086422, Alt.=165.822388m. Speed=0.072000m/h.</desc>
<speed>0.020000</speed>
</trkpt>
<trkpt lat="55.704388" lon="26.086422">
<ele>165.818481</ele>
<time>2010-07-17T19:00:24Z</time>
<desc>lat.=55.704388, lon.=26.086422, Alt.=165.818481m. Speed=0.144000m/h.</desc>
<speed>0.040000</speed>
</trkpt>
<trkpt lat="55.704388" lon="26.086422">
<ele>165.814575</ele>
<time>2010-07-17T19:00:25Z</time>
<desc>lat.=55.704388, lon.=26.086422, Alt.=165.814575m. Speed=0.036000m/h.</desc>
<speed>0.010000</speed>
</trkpt>
<trkpt lat="55.704388" lon="26.086422">
<ele>165.810669</ele>
<time>2010-07-17T19:00:26Z</time>
<desc>lat.=55.704388, lon.=26.086422, Alt.=165.810669m. Speed=0.108000m/h.</desc>
<speed>0.030000</speed>
</trkpt>
<trkpt lat="55.704388" lon="26.086422">
<ele>165.810669</ele>
<time>2010-07-17T19:00:27Z</time>
<desc>lat.=55.704388, lon.=26.086422, Alt.=165.810669m. Speed=0.108000m/h.</desc>
<speed>0.030000</speed>
</trkpt>
<trkpt lat="55.704388" lon="26.086422">
<ele>165.814575</ele>
<time>2010-07-17T19:00:28Z</time>
<desc>lat.=55.704388, lon.=26.086422, Alt.=165.814575m. Speed=0.000000m/h.</desc>
<speed>0.000000</speed>
</trkpt>
<trkpt lat="55.704388" lon="26.086422">
<ele>165.822388</ele>
<time>2010-07-17T19:00:29Z</time>
<desc>lat.=55.704388, lon.=26.086422, Alt.=165.822388m. Speed=0.036000m/h.</desc>
<speed>0.010000</speed>
</trkpt>
<trkpt lat="55.704388" lon="26.086422">
<ele>165.826294</ele>
<time>2010-07-17T19:00:30Z</time>
<desc>lat.=55.704388, lon.=26.086422, Alt.=165.826294m. Speed=0.072000m/h.</desc>
<speed>0.020000</speed>
</trkpt>
<trkpt lat="55.704388" lon="26.086422">
<ele>165.826294</ele>
<time>2010-07-17T19:00:31Z</time>
<desc>lat.=55.704388, lon.=26.086422, Alt.=165.826294m. Speed=0.036000m/h.</desc>
<speed>0.010000</speed>
</trkpt>
<trkpt lat="55.704388" lon="26.086422">
<ele>165.822388</ele>
<time>2010-07-17T19:00:32Z</time>
<desc>lat.=55.704388, lon.=26.086422, Alt.=165.822388m. Speed=0.072000m/h.</desc>
<speed>0.020000</speed>
</trkpt>
<trkpt lat="55.704388" lon="26.086422">
<ele>165.822388</ele>
<time>2010-07-17T19:00:33Z</time>
<desc>lat.=55.704388, lon.=26.086422, Alt.=165.822388m. Speed=0.072000m/h.</desc>
<speed>0.020000</speed>
</trkpt>
<trkpt lat="55.704388" lon="26.086422">
<ele>165.818481</ele>
<time>2010-07-17T19:00:34Z</time>
<desc>lat.=55.704388, lon.=26.086422, Alt.=165.818481m. Speed=0.072000m/h.</desc>
<speed>0.020000</speed>
</trkpt>
<trkpt lat="55.704388" lon="26.086422">
<ele>165.818481</ele>
<time>2010-07-17T19:00:35Z</time>
<desc>lat.=55.704388, lon.=26.086422, Alt.=165.818481m. Speed=0.036000m/h.</desc>
<speed>0.010000</speed>
</trkpt>
<trkpt lat="55.704388" lon="26.086422">
<ele>165.822388</ele>
<time>2010-07-17T19:00:36Z</time>
<desc>lat.=55.704388, lon.=26.086422, Alt.=165.822388m. Speed=0.072000m/h.</desc>
<speed>0.020000</speed>
</trkpt>
<trkpt lat="55.704388" lon="26.086422">
<ele>165.822388</ele>
<time>2010-07-17T19:00:37Z</time>
<desc>lat.=55.704388, lon.=26.086422, Alt.=165.822388m. Speed=0.000000m/h.</desc>
<speed>0.000000</speed>
</trkpt>
<trkpt lat="55.704388" lon="26.086422">
<ele>165.822388</ele>
<time>2010-07-17T19:00:38Z</time>
<desc>lat.=55.704388, lon.=26.086422, Alt.=165.822388m. Speed=0.036000m/h.</desc>
<speed>0.010000</speed>
</trkpt>
<trkpt lat="55.704388" lon="26.086422">
<ele>165.822388</ele>
<time>2010-07-17T19:00:39Z</time>
<desc>lat.=55.704388, lon.=26.086422, Alt.=165.822388m. Speed=0.000000m/h.</desc>
<speed>0.000000</speed>
</trkpt>
<trkpt lat="55.704388" lon="26.086422">
<ele>165.830200</ele>
<time>2010-07-17T19:00:40Z</time>
<desc>lat.=55.704388, lon.=26.086422, Alt.=165.830200m. Speed=0.036000m/h.</desc>
<speed>0.010000</speed>
</trkpt>
<trkpt lat="55.704388" lon="26.086422">
<ele>165.834106</ele>
<time>2010-07-17T19:00:41Z</time>
<desc>lat.=55.704388, lon.=26.086422, Alt.=165.834106m. Speed=0.108000m/h.</desc>
<speed>0.030000</speed>
</trkpt>
<trkpt lat="55.704388" lon="26.086422">
<ele>165.838013</ele>
<time>2010-07-17T19:00:42Z</time>
<desc>lat.=55.704388, lon.=26.086422, Alt.=165.838013m. Speed=0.108000m/h.</desc>
<speed>0.030000</speed>
</trkpt>
<trkpt lat="55.704388" lon="26.086422">
<ele>165.838013</ele>
<time>2010-07-17T19:00:43Z</time>
<desc>lat.=55.704388, lon.=26.086422, Alt.=165.838013m. Speed=0.144000m/h.</desc>
<speed>0.040000</speed>
</trkpt>
<trkpt lat="55.704388" lon="26.086422">
<ele>165.841919</ele>
<time>2010-07-17T19:00:44Z</time>
<desc>lat.=55.704388, lon.=26.086422, Alt.=165.841919m. Speed=0.108000m/h.</desc>
<speed>0.030000</speed>
</trkpt>
<trkpt lat="55.704388" lon="26.086422">
<ele>165.841919</ele>
<time>2010-07-17T19:00:45Z</time>
<desc>lat.=55.704388, lon.=26.086422, Alt.=165.841919m. Speed=0.108000m/h.</desc>
<speed>0.030000</speed>
</trkpt>
<trkpt lat="55.704391" lon="26.086422">
<ele>165.841919</ele>
<time>2010-07-17T19:00:46Z</time>
<desc>lat.=55.704391, lon.=26.086422, Alt.=165.841919m. Speed=0.072000m/h.</desc>
<speed>0.020000</speed>
</trkpt>
<trkpt lat="55.704391" lon="26.086422">
<ele>165.841919</ele>
<time>2010-07-17T19:00:47Z</time>
<desc>lat.=55.704391, lon.=26.086422, Alt.=165.841919m. Speed=0.072000m/h.</desc>
<speed>0.020000</speed>
</trkpt>
<trkpt lat="55.704391" lon="26.086422">
<ele>165.849731</ele>
<time>2010-07-17T19:00:48Z</time>
<desc>lat.=55.704391, lon.=26.086422, Alt.=165.849731m. Speed=0.072000m/h.</desc>
<speed>0.020000</speed>
</trkpt>
<trkpt lat="55.704391" lon="26.086422">
<ele>165.861450</ele>
<time>2010-07-17T19:00:49Z</time>
<desc>lat.=55.704391, lon.=26.086422, Alt.=165.861450m. Speed=0.144000m/h.</desc>
<speed>0.040000</speed>
</trkpt>
<trkpt lat="55.704391" lon="26.086422">
<ele>165.869263</ele>
<time>2010-07-17T19:00:50Z</time>
<desc>lat.=55.704391, lon.=26.086422, Alt.=165.869263m. Speed=0.072000m/h.</desc>
<speed>0.020000</speed>
</trkpt>
<trkpt lat="55.704391" lon="26.086422">
<ele>165.877075</ele>
<time>2010-07-17T19:00:51Z</time>
<desc>lat.=55.704391, lon.=26.086422, Alt.=165.877075m. Speed=0.036000m/h.</desc>
<speed>0.010000</speed>
</trkpt>
<trkpt lat="55.704391" lon="26.086422">
<ele>165.888794</ele>
<time>2010-07-17T19:00:52Z</time>
<desc>lat.=55.704391, lon.=26.086422, Alt.=165.888794m. Speed=0.108000m/h.</desc>
<speed>0.030000</speed>
</trkpt>
<trkpt lat="55.704391" lon="26.086422">
<ele>165.888794</ele>
<time>2010-07-17T19:00:53Z</time>
<desc>lat.=55.704391, lon.=26.086422, Alt.=165.888794m. Speed=0.072000m/h.</desc>
<speed>0.020000</speed>
</trkpt>
<trkpt lat="55.704391" lon="26.086422">
<ele>165.896606</ele>
<time>2010-07-17T19:00:54Z</time>
<desc>lat.=55.704391, lon.=26.086422, Alt.=165.896606m. Speed=0.072000m/h.</desc>
<speed>0.020000</speed>
</trkpt>
<trkpt lat="55.704391" lon="26.086422">
<ele>165.896606</ele>
<time>2010-07-17T19:00:55Z</time>
<desc>lat.=55.704391, lon.=26.086422, Alt.=165.896606m. Speed=0.144000m/h.</desc>
<speed>0.040000</speed>
</trkpt>
<trkpt lat="55.704391" lon="26.086422">
<ele>165.896606</ele>
<time>2010-07-17T19:00:56Z</time>
<desc>lat.=55.704391, lon.=26.086422, Alt.=165.896606m. Speed=0.036000m/h.</desc>
<speed>0.010000</speed>
</trkpt>
<trkpt lat="55.704391" lon="26.086422">
<ele>165.896606</ele>
<time>2010-07-17T19:00:57Z</time>
<desc>lat.=55.704391, lon.=26.086422, Alt.=165.896606m. Speed=0.144000m/h.</desc>
<speed>0.040000</speed>
</trkpt>
<trkpt lat="55.704391" lon="26.086422">
<ele>165.900513</ele>
<time>2010-07-17T19:00:58Z</time>
<desc>lat.=55.704391, lon.=26.086422, Alt.=165.900513m. Speed=0.072000m/h.</desc>
<speed>0.020000</speed>
</trkpt>
<trkpt lat="55.704391" lon="26.086420">
<ele>165.908325</ele>
<time>2010-07-17T19:00:59Z</time>
<desc>lat.=55.704391, lon.=26.086420, Alt.=165.908325m. Speed=0.072000m/h.</desc>
<speed>0.020000</speed>
</trkpt>
<trkpt lat="55.704391" lon="26.086420">
<ele>165.908325</ele>
<time>2010-07-17T19:01:00Z</time>
<desc>lat.=55.704391, lon.=26.086420, Alt.=165.908325m. Speed=0.072000m/h.</desc>
<speed>0.020000</speed>
</trkpt>
<trkpt lat="55.704391" lon="26.086420">
<ele>165.904419</ele>
<time>2010-07-17T19:01:01Z</time>
<desc>lat.=55.704391, lon.=26.086420, Alt.=165.904419m. Speed=0.072000m/h.</desc>
<speed>0.020000</speed>
</trkpt>
<trkpt lat="55.704391" lon="26.086420">
<ele>165.900513</ele>
<time>2010-07-17T19:01:02Z</time>
<desc>lat.=55.704391, lon.=26.086420, Alt.=165.900513m. Speed=0.072000m/h.</desc>
<speed>0.020000</speed>
</trkpt>
<trkpt lat="55.704391" lon="26.086420">
<ele>165.896606</ele>
<time>2010-07-17T19:01:03Z</time>
<desc>lat.=55.704391, lon.=26.086420, Alt.=165.896606m. Speed=0.072000m/h.</desc>
<speed>0.020000</speed>
</trkpt>
<trkpt lat="55.704391" lon="26.086420">
<ele>165.900513</ele>
<time>2010-07-17T19:01:04Z</time>
<desc>lat.=55.704391, lon.=26.086420, Alt.=165.900513m. Speed=0.108000m/h.</desc>
<speed>0.030000</speed>
</trkpt>
<trkpt lat="55.704391" lon="26.086420">
<ele>165.904419</ele>
<time>2010-07-17T19:01:05Z</time>
<desc>lat.=55.704391, lon.=26.086420, Alt.=165.904419m. Speed=0.036000m/h.</desc>
<speed>0.010000</speed>
</trkpt>
<trkpt lat="55.704391" lon="26.086420">
<ele>165.896606</ele>
<time>2010-07-17T19:01:06Z</time>
<desc>lat.=55.704391, lon.=26.086420, Alt.=165.896606m. Speed=0.036000m/h.</desc>
<speed>0.010000</speed>
</trkpt>
<trkpt lat="55.704391" lon="26.086420">
<ele>165.896606</ele>
<time>2010-07-17T19:01:07Z</time>
<desc>lat.=55.704391, lon.=26.086420, Alt.=165.896606m. Speed=0.000000m/h.</desc>
<speed>0.000000</speed>
</trkpt>
<trkpt lat="55.704391" lon="26.086420">
<ele>165.896606</ele>
<time>2010-07-17T19:01:08Z</time>
<desc>lat.=55.704391, lon.=26.086420, Alt.=165.896606m. Speed=0.036000m/h.</desc>
<speed>0.010000</speed>
</trkpt>
<trkpt lat="55.704391" lon="26.086420">
<ele>165.896606</ele>
<time>2010-07-17T19:01:09Z</time>
<desc>lat.=55.704391, lon.=26.086420, Alt.=165.896606m. Speed=0.072000m/h.</desc>
<speed>0.020000</speed>
</trkpt>
<trkpt lat="55.704391" lon="26.086420">
<ele>165.888794</ele>
<time>2010-07-17T19:01:10Z</time>
<desc>lat.=55.704391, lon.=26.086420, Alt.=165.888794m. Speed=0.108000m/h.</desc>
<speed>0.030000</speed>
</trkpt>
<trkpt lat="55.704391" lon="26.086420">
<ele>165.888794</ele>
<time>2010-07-17T19:01:11Z</time>
<desc>lat.=55.704391, lon.=26.086420, Alt.=165.888794m. Speed=0.072000m/h.</desc>
<speed>0.020000</speed>
</trkpt>
<trkpt lat="55.704391" lon="26.086420">
<ele>165.888794</ele>
<time>2010-07-17T19:01:12Z</time>
<desc>lat.=55.704391, lon.=26.086420, Alt.=165.888794m. Speed=0.000000m/h.</desc>
<speed>0.000000</speed>
</trkpt>
<trkpt lat="55.704391" lon="26.086420">
<ele>165.888794</ele>
<time>2010-07-17T19:01:13Z</time>
<desc>lat.=55.704391, lon.=26.086420, Alt.=165.888794m. Speed=0.036000m/h.</desc>
<speed>0.010000</speed>
</trkpt>
<trkpt lat="55.704391" lon="26.086420">
<ele>165.877075</ele>
<time>2010-07-17T19:01:14Z</time>
<desc>lat.=55.704391, lon.=26.086420, Alt.=165.877075m. Speed=0.072000m/h.</desc>
<speed>0.020000</speed>
</trkpt>
<trkpt lat="55.704391" lon="26.086420">
<ele>165.869263</ele>
<time>2010-07-17T19:01:15Z</time>
<desc>lat.=55.704391, lon.=26.086420, Alt.=165.869263m. Speed=0.108000m/h.</desc>
<speed>0.030000</speed>
</trkpt>
<trkpt lat="55.704391" lon="26.086420">
<ele>165.869263</ele>
<time>2010-07-17T19:01:16Z</time>
<desc>lat.=55.704391, lon.=26.086420, Alt.=165.869263m. Speed=0.072000m/h.</desc>
<speed>0.020000</speed>
</trkpt>
<trkpt lat="55.704391" lon="26.086420">
<ele>165.861450</ele>
<time>2010-07-17T19:01:17Z</time>
<desc>lat.=55.704391, lon.=26.086420, Alt.=165.861450m. Speed=0.144000m/h.</desc>
<speed>0.040000</speed>
</trkpt>
<trkpt lat="55.704391" lon="26.086420">
<ele>165.849731</ele>
<time>2010-07-17T19:01:18Z</time>
<desc>lat.=55.704391, lon.=26.086420, Alt.=165.849731m. Speed=0.072000m/h.</desc>
<speed>0.020000</speed>
</trkpt>
<trkpt lat="55.704391" lon="26.086418">
<ele>165.845825</ele>
<time>2010-07-17T19:01:19Z</time>
<desc>lat.=55.704391, lon.=26.086418, Alt.=165.845825m. Speed=0.108000m/h.</desc>
<speed>0.030000</speed>
</trkpt>
<trkpt lat="55.704391" lon="26.086418">
<ele>165.853638</ele>
<time>2010-07-17T19:01:20Z</time>
<desc>lat.=55.704391, lon.=26.086418, Alt.=165.853638m. Speed=0.036000m/h.</desc>
<speed>0.010000</speed>
</trkpt>
<trkpt lat="55.704391" lon="26.086418">
<ele>165.857544</ele>
<time>2010-07-17T19:01:21Z</time>
<desc>lat.=55.704391, lon.=26.086418, Alt.=165.857544m. Speed=0.072000m/h.</desc>
<speed>0.020000</speed>
</trkpt>
<trkpt lat="55.704391" lon="26.086418">
<ele>165.853638</ele>
<time>2010-07-17T19:01:22Z</time>
<desc>lat.=55.704391, lon.=26.086418, Alt.=165.853638m. Speed=0.036000m/h.</desc>
<speed>0.010000</speed>
</trkpt>
<trkpt lat="55.704391" lon="26.086418">
<ele>165.853638</ele>
<time>2010-07-17T19:01:23Z</time>
<desc>lat.=55.704391, lon.=26.086418, Alt.=165.853638m. Speed=0.036000m/h.</desc>
<speed>0.010000</speed>
</trkpt>
<trkpt lat="55.704391" lon="26.086418">
<ele>165.857544</ele>
<time>2010-07-17T19:01:24Z</time>
<desc>lat.=55.704391, lon.=26.086418, Alt.=165.857544m. Speed=0.036000m/h.</desc>
<speed>0.010000</speed>
</trkpt>
<trkpt lat="55.704391" lon="26.086418">
<ele>165.857544</ele>
<time>2010-07-17T19:01:25Z</time>
<desc>lat.=55.704391, lon.=26.086418, Alt.=165.857544m. Speed=0.072000m/h.</desc>
<speed>0.020000</speed>
</trkpt>
<trkpt lat="55.704391" lon="26.086418">
<ele>165.861450</ele>
<time>2010-07-17T19:01:26Z</time>
<desc>lat.=55.704391, lon.=26.086418, Alt.=165.861450m. Speed=0.036000m/h.</desc>
<speed>0.010000</speed>
</trkpt>
<trkpt lat="55.704391" lon="26.086418">
<ele>165.865356</ele>
<time>2010-07-17T19:01:27Z</time>
<desc>lat.=55.704391, lon.=26.086418, Alt.=165.865356m. Speed=0.036000m/h.</desc>
<speed>0.010000</speed>
</trkpt>
<trkpt lat="55.704391" lon="26.086418">
<ele>165.877075</ele>
<time>2010-07-17T19:01:28Z</time>
<desc>lat.=55.704391, lon.=26.086418, Alt.=165.877075m. Speed=0.072000m/h.</desc>
<speed>0.020000</speed>
</trkpt>
<trkpt lat="55.704391" lon="26.086418">
<ele>165.877075</ele>
<time>2010-07-17T19:01:29Z</time>
<desc>lat.=55.704391, lon.=26.086418, Alt.=165.877075m. Speed=0.144000m/h.</desc>
<speed>0.040000</speed>
</trkpt>
<trkpt lat="55.704391" lon="26.086418">
<ele>165.877075</ele>
<time>2010-07-17T19:01:30Z</time>
<desc>lat.=55.704391, lon.=26.086418, Alt.=165.877075m. Speed=0.108000m/h.</desc>
<speed>0.030000</speed>
</trkpt>
<trkpt lat="55.704391" lon="26.086416">
<ele>165.880981</ele>
<time>2010-07-17T19:01:31Z</time>
<desc>lat.=55.704391, lon.=26.086416, Alt.=165.880981m. Speed=0.180000m/h.</desc>
<speed>0.050000</speed>
</trkpt>
<trkpt lat="55.704391" lon="26.086416">
<ele>165.884888</ele>
<time>2010-07-17T19:01:32Z</time>
<desc>lat.=55.704391, lon.=26.086416, Alt.=165.884888m. Speed=0.180000m/h.</desc>
<speed>0.050000</speed>
</trkpt>
<trkpt lat="55.704391" lon="26.086416">
<ele>165.892700</ele>
<time>2010-07-17T19:01:33Z</time>
<desc>lat.=55.704391, lon.=26.086416, Alt.=165.892700m. Speed=0.108000m/h.</desc>
<speed>0.030000</speed>
</trkpt>
<trkpt lat="55.704391" lon="26.086416">
<ele>165.896606</ele>
<time>2010-07-17T19:01:34Z</time>
<desc>lat.=55.704391, lon.=26.086416, Alt.=165.896606m. Speed=0.108000m/h.</desc>
<speed>0.030000</speed>
</trkpt>
<trkpt lat="55.704391" lon="26.086416">
<ele>165.892700</ele>
<time>2010-07-17T19:01:35Z</time>
<desc>lat.=55.704391, lon.=26.086416, Alt.=165.892700m. Speed=0.036000m/h.</desc>
<speed>0.010000</speed>
</trkpt>
<trkpt lat="55.704391" lon="26.086416">
<ele>165.892700</ele>
<time>2010-07-17T19:01:36Z</time>
<desc>lat.=55.704391, lon.=26.086416, Alt.=165.892700m. Speed=0.108000m/h.</desc>
<speed>0.030000</speed>
</trkpt>
<trkpt lat="55.704391" lon="26.086416">
<ele>165.892700</ele>
<time>2010-07-17T19:01:37Z</time>
<desc>lat.=55.704391, lon.=26.086416, Alt.=165.892700m. Speed=0.072000m/h.</desc>
<speed>0.020000</speed>
</trkpt>
<trkpt lat="55.704391" lon="26.086414">
<ele>165.900513</ele>
<time>2010-07-17T19:01:38Z</time>
<desc>lat.=55.704391, lon.=26.086414, Alt.=165.900513m. Speed=0.108000m/h.</desc>
<speed>0.030000</speed>
</trkpt>
<trkpt lat="55.704391" lon="26.086414">
<ele>165.908325</ele>
<time>2010-07-17T19:01:39Z</time>
<desc>lat.=55.704391, lon.=26.086414, Alt.=165.908325m. Speed=0.144000m/h.</desc>
<speed>0.040000</speed>
</trkpt>
<trkpt lat="55.704391" lon="26.086414">
<ele>165.912231</ele>
<time>2010-07-17T19:01:40Z</time>
<desc>lat.=55.704391, lon.=26.086414, Alt.=165.912231m. Speed=0.108000m/h.</desc>
<speed>0.030000</speed>
</trkpt>
<trkpt lat="55.704391" lon="26.086414">
<ele>165.916138</ele>
<time>2010-07-17T19:01:41Z</time>
<desc>lat.=55.704391, lon.=26.086414, Alt.=165.916138m. Speed=0.108000m/h.</desc>
<speed>0.030000</speed>
</trkpt>
<trkpt lat="55.704391" lon="26.086414">
<ele>165.916138</ele>
<time>2010-07-17T19:01:42Z</time>
<desc>lat.=55.704391, lon.=26.086414, Alt.=165.916138m. Speed=0.072000m/h.</desc>
<speed>0.020000</speed>
</trkpt>
<trkpt lat="55.704391" lon="26.086414">
<ele>165.916138</ele>
<time>2010-07-17T19:01:43Z</time>
<desc>lat.=55.704391, lon.=26.086414, Alt.=165.916138m. Speed=0.108000m/h.</desc>
<speed>0.030000</speed>
</trkpt>
<trkpt lat="55.704391" lon="26.086414">
<ele>165.916138</ele>
<time>2010-07-17T19:01:44Z</time>
<desc>lat.=55.704391, lon.=26.086414, Alt.=165.916138m. Speed=0.144000m/h.</desc>
<speed>0.040000</speed>
</trkpt>
<trkpt lat="55.704391" lon="26.086414">
<ele>165.916138</ele>
<time>2010-07-17T19:01:45Z</time>
<desc>lat.=55.704391, lon.=26.086414, Alt.=165.916138m. Speed=0.108000m/h.</desc>
<speed>0.030000</speed>
</trkpt>
<trkpt lat="55.704391" lon="26.086412">
<ele>165.912231</ele>
<time>2010-07-17T19:01:46Z</time>
<desc>lat.=55.704391, lon.=26.086412, Alt.=165.912231m. Speed=0.072000m/h.</desc>
<speed>0.020000</speed>
</trkpt>
<trkpt lat="55.704391" lon="26.086412">
<ele>165.916138</ele>
<time>2010-07-17T19:01:47Z</time>
<desc>lat.=55.704391, lon.=26.086412, Alt.=165.916138m. Speed=0.072000m/h.</desc>
<speed>0.020000</speed>
</trkpt>
<trkpt lat="55.704391" lon="26.086412">
<ele>165.920044</ele>
<time>2010-07-17T19:01:48Z</time>
<desc>lat.=55.704391, lon.=26.086412, Alt.=165.920044m. Speed=0.036000m/h.</desc>
<speed>0.010000</speed>
</trkpt>
<trkpt lat="55.704391" lon="26.086412">
<ele>165.920044</ele>
<time>2010-07-17T19:01:49Z</time>
<desc>lat.=55.704391, lon.=26.086412, Alt.=165.920044m. Speed=0.036000m/h.</desc>
<speed>0.010000</speed>
</trkpt>
<trkpt lat="55.704391" lon="26.086412">
<ele>165.912231</ele>
<time>2010-07-17T19:01:50Z</time>
<desc>lat.=55.704391, lon.=26.086412, Alt.=165.912231m. Speed=0.108000m/h.</desc>
<speed>0.030000</speed>
</trkpt>
<trkpt lat="55.704391" lon="26.086412">
<ele>165.912231</ele>
<time>2010-07-17T19:01:51Z</time>
<desc>lat.=55.704391, lon.=26.086412, Alt.=165.912231m. Speed=0.144000m/h.</desc>
<speed>0.040000</speed>
</trkpt>
<trkpt lat="55.704391" lon="26.086412">
<ele>165.908325</ele>
<time>2010-07-17T19:01:52Z</time>
<desc>lat.=55.704391, lon.=26.086412, Alt.=165.908325m. Speed=0.180000m/h.</desc>
<speed>0.050000</speed>
</trkpt>
<trkpt lat="55.704391" lon="26.086412">
<ele>165.900513</ele>
<time>2010-07-17T19:01:53Z</time>
<desc>lat.=55.704391, lon.=26.086412, Alt.=165.900513m. Speed=0.180000m/h.</desc>
<speed>0.050000</speed>
</trkpt>
<trkpt lat="55.704391" lon="26.086412">
<ele>165.896606</ele>
<time>2010-07-17T19:01:54Z</time>
<desc>lat.=55.704391, lon.=26.086412, Alt.=165.896606m. Speed=0.144000m/h.</desc>
<speed>0.040000</speed>
</trkpt>
<trkpt lat="55.704391" lon="26.086412">
<ele>165.888794</ele>
<time>2010-07-17T19:01:55Z</time>
<desc>lat.=55.704391, lon.=26.086412, Alt.=165.888794m. Speed=0.144000m/h.</desc>
<speed>0.040000</speed>
</trkpt>
<trkpt lat="55.704395" lon="26.086411">
<ele>165.884888</ele>
<time>2010-07-17T19:01:56Z</time>
<desc>lat.=55.704395, lon.=26.086411, Alt.=165.884888m. Speed=0.144000m/h.</desc>
<speed>0.040000</speed>
</trkpt>
<trkpt lat="55.704395" lon="26.086411">
<ele>165.880981</ele>
<time>2010-07-17T19:01:57Z</time>
<desc>lat.=55.704395, lon.=26.086411, Alt.=165.880981m. Speed=0.108000m/h.</desc>
<speed>0.030000</speed>
</trkpt>
<trkpt lat="55.704395" lon="26.086411">
<ele>165.873169</ele>
<time>2010-07-17T19:01:58Z</time>
<desc>lat.=55.704395, lon.=26.086411, Alt.=165.873169m. Speed=0.144000m/h.</desc>
<speed>0.040000</speed>
</trkpt>
<trkpt lat="55.704395" lon="26.086411">
<ele>165.861450</ele>
<time>2010-07-17T19:01:59Z</time>
<desc>lat.=55.704395, lon.=26.086411, Alt.=165.861450m. Speed=0.144000m/h.</desc>
<speed>0.040000</speed>
</trkpt>
<trkpt lat="55.704395" lon="26.086411">
<ele>165.853638</ele>
<time>2010-07-17T19:02:00Z</time>
<desc>lat.=55.704395, lon.=26.086411, Alt.=165.853638m. Speed=0.072000m/h.</desc>
<speed>0.020000</speed>
</trkpt>
<trkpt lat="55.704395" lon="26.086411">
<ele>165.849731</ele>
<time>2010-07-17T19:02:01Z</time>
<desc>lat.=55.704395, lon.=26.086411, Alt.=165.849731m. Speed=0.144000m/h.</desc>
<speed>0.040000</speed>
</trkpt>
<trkpt lat="55.704395" lon="26.086411">
<ele>165.849731</ele>
<time>2010-07-17T19:02:02Z</time>
<desc>lat.=55.704395, lon.=26.086411, Alt.=165.849731m. Speed=0.072000m/h.</desc>
<speed>0.020000</speed>
</trkpt>
<trkpt lat="55.704395" lon="26.086411">
<ele>165.845825</ele>
<time>2010-07-17T19:02:03Z</time>
<desc>lat.=55.704395, lon.=26.086411, Alt.=165.845825m. Speed=0.144000m/h.</desc>
<speed>0.040000</speed>
</trkpt>
<trkpt lat="55.704395" lon="26.086411">
<ele>165.838013</ele>
<time>2010-07-17T19:02:04Z</time>
<desc>lat.=55.704395, lon.=26.086411, Alt.=165.838013m. Speed=0.072000m/h.</desc>
<speed>0.020000</speed>
</trkpt>
<trkpt lat="55.704395" lon="26.086411">
<ele>165.834106</ele>
<time>2010-07-17T19:02:05Z</time>
<desc>lat.=55.704395, lon.=26.086411, Alt.=165.834106m. Speed=0.108000m/h.</desc>
<speed>0.030000</speed>
</trkpt>
<trkpt lat="55.704395" lon="26.086409">
<ele>165.838013</ele>
<time>2010-07-17T19:02:06Z</time>
<desc>lat.=55.704395, lon.=26.086409, Alt.=165.838013m. Speed=0.108000m/h.</desc>
<speed>0.030000</speed>
</trkpt>
<trkpt lat="55.704395" lon="26.086409">
<ele>165.834106</ele>
<time>2010-07-17T19:02:07Z</time>
<desc>lat.=55.704395, lon.=26.086409, Alt.=165.834106m. Speed=0.036000m/h.</desc>
<speed>0.010000</speed>
</trkpt>
<trkpt lat="55.704395" lon="26.086409">
<ele>165.834106</ele>
<time>2010-07-17T19:02:08Z</time>
<desc>lat.=55.704395, lon.=26.086409, Alt.=165.834106m. Speed=0.072000m/h.</desc>
<speed>0.020000</speed>
</trkpt>
<trkpt lat="55.704395" lon="26.086409">
<ele>165.830200</ele>
<time>2010-07-17T19:02:09Z</time>
<desc>lat.=55.704395, lon.=26.086409, Alt.=165.830200m. Speed=0.072000m/h.</desc>
<speed>0.020000</speed>
</trkpt>
<trkpt lat="55.704395" lon="26.086409">
<ele>165.830200</ele>
<time>2010-07-17T19:02:10Z</time>
<desc>lat.=55.704395, lon.=26.086409, Alt.=165.830200m. Speed=0.108000m/h.</desc>
<speed>0.030000</speed>
</trkpt>
<trkpt lat="55.704395" lon="26.086409">
<ele>165.830200</ele>
<time>2010-07-17T19:02:11Z</time>
<desc>lat.=55.704395, lon.=26.086409, Alt.=165.830200m. Speed=0.108000m/h.</desc>
<speed>0.030000</speed>
</trkpt>
<trkpt lat="55.704395" lon="26.086409">
<ele>165.826294</ele>
<time>2010-07-17T19:02:12Z</time>
<desc>lat.=55.704395, lon.=26.086409, Alt.=165.826294m. Speed=0.108000m/h.</desc>
<speed>0.030000</speed>
</trkpt>
<trkpt lat="55.704395" lon="26.086409">
<ele>165.826294</ele>
<time>2010-07-17T19:02:13Z</time>
<desc>lat.=55.704395, lon.=26.086409, Alt.=165.826294m. Speed=0.000000m/h.</desc>
<speed>0.000000</speed>
</trkpt>
<trkpt lat="55.704395" lon="26.086409">
<ele>165.822388</ele>
<time>2010-07-17T19:02:14Z</time>
<desc>lat.=55.704395, lon.=26.086409, Alt.=165.822388m. Speed=0.108000m/h.</desc>
<speed>0.030000</speed>
</trkpt>
<trkpt lat="55.704395" lon="26.086409">
<ele>165.822388</ele>
<time>2010-07-17T19:02:15Z</time>
<desc>lat.=55.704395, lon.=26.086409, Alt.=165.822388m. Speed=0.144000m/h.</desc>
<speed>0.040000</speed>
</trkpt>
<trkpt lat="55.704395" lon="26.086409">
<ele>165.822388</ele>
<time>2010-07-17T19:02:16Z</time>
<desc>lat.=55.704395, lon.=26.086409, Alt.=165.822388m. Speed=0.000000m/h.</desc>
<speed>0.000000</speed>
</trkpt>
<trkpt lat="55.704395" lon="26.086409">
<ele>165.826294</ele>
<time>2010-07-17T19:02:17Z</time>
<desc>lat.=55.704395, lon.=26.086409, Alt.=165.826294m. Speed=0.036000m/h.</desc>
<speed>0.010000</speed>
</trkpt>
<trkpt lat="55.704395" lon="26.086409">
<ele>165.822388</ele>
<time>2010-07-17T19:02:18Z</time>
<desc>lat.=55.704395, lon.=26.086409, Alt.=165.822388m. Speed=0.072000m/h.</desc>
<speed>0.020000</speed>
</trkpt>
<trkpt lat="55.704395" lon="26.086409">
<ele>165.818481</ele>
<time>2010-07-17T19:02:19Z</time>
<desc>lat.=55.704395, lon.=26.086409, Alt.=165.818481m. Speed=0.000000m/h.</desc>
<speed>0.000000</speed>
</trkpt>
<trkpt lat="55.704395" lon="26.086409">
<ele>165.814575</ele>
<time>2010-07-17T19:02:20Z</time>
<desc>lat.=55.704395, lon.=26.086409, Alt.=165.814575m. Speed=0.036000m/h.</desc>
<speed>0.010000</speed>
</trkpt>
<trkpt lat="55.704395" lon="26.086409">
<ele>165.822388</ele>
<time>2010-07-17T19:02:21Z</time>
<desc>lat.=55.704395, lon.=26.086409, Alt.=165.822388m. Speed=0.000000m/h.</desc>
<speed>0.000000</speed>
</trkpt>
<trkpt lat="55.704395" lon="26.086409">
<ele>165.830200</ele>
<time>2010-07-17T19:02:22Z</time>
<desc>lat.=55.704395, lon.=26.086409, Alt.=165.830200m. Speed=0.036000m/h.</desc>
<speed>0.010000</speed>
</trkpt>
<trkpt lat="55.704395" lon="26.086409">
<ele>165.830200</ele>
<time>2010-07-17T19:02:23Z</time>
<desc>lat.=55.704395, lon.=26.086409, Alt.=165.830200m. Speed=0.036000m/h.</desc>
<speed>0.010000</speed>
</trkpt>
<trkpt lat="55.704395" lon="26.086409">
<ele>165.830200</ele>
<time>2010-07-17T19:02:24Z</time>
<desc>lat.=55.704395, lon.=26.086409, Alt.=165.830200m. Speed=0.036000m/h.</desc>
<speed>0.010000</speed>
</trkpt>
<trkpt lat="55.704395" lon="26.086409">
<ele>165.834106</ele>
<time>2010-07-17T19:02:25Z</time>
<desc>lat.=55.704395, lon.=26.086409, Alt.=165.834106m. Speed=0.000000m/h.</desc>
<speed>0.000000</speed>
</trkpt>
<trkpt lat="55.704395" lon="26.086409">
<ele>165.841919</ele>
<time>2010-07-17T19:02:26Z</time>
<desc>lat.=55.704395, lon.=26.086409, Alt.=165.841919m. Speed=0.036000m/h.</desc>
<speed>0.010000</speed>
</trkpt>
<trkpt lat="55.704395" lon="26.086409">
<ele>165.845825</ele>
<time>2010-07-17T19:02:27Z</time>
<desc>lat.=55.704395, lon.=26.086409, Alt.=165.845825m. Speed=0.000000m/h.</desc>
<speed>0.000000</speed>
</trkpt>
<trkpt lat="55.704395" lon="26.086411">
<ele>165.841919</ele>
<time>2010-07-17T19:02:28Z</time>
<desc>lat.=55.704395, lon.=26.086411, Alt.=165.841919m. Speed=0.144000m/h.</desc>
<speed>0.040000</speed>
</trkpt>
<trkpt lat="55.704395" lon="26.086411">
<ele>165.841919</ele>
<time>2010-07-17T19:02:29Z</time>
<desc>lat.=55.704395, lon.=26.086411, Alt.=165.841919m. Speed=0.108000m/h.</desc>
<speed>0.030000</speed>
</trkpt>
<trkpt lat="55.704395" lon="26.086411">
<ele>165.845825</ele>
<time>2010-07-17T19:02:30Z</time>
<desc>lat.=55.704395, lon.=26.086411, Alt.=165.845825m. Speed=0.108000m/h.</desc>
<speed>0.030000</speed>
</trkpt>
<trkpt lat="55.704395" lon="26.086411">
<ele>165.845825</ele>
<time>2010-07-17T19:02:31Z</time>
<desc>lat.=55.704395, lon.=26.086411, Alt.=165.845825m. Speed=0.036000m/h.</desc>
<speed>0.010000</speed>
</trkpt>
<trkpt lat="55.704395" lon="26.086411">
<ele>165.849731</ele>
<time>2010-07-17T19:02:32Z</time>
<desc>lat.=55.704395, lon.=26.086411, Alt.=165.849731m. Speed=0.036000m/h.</desc>
<speed>0.010000</speed>
</trkpt>
<trkpt lat="55.704395" lon="26.086411">
<ele>165.853638</ele>
<time>2010-07-17T19:02:33Z</time>
<desc>lat.=55.704395, lon.=26.086411, Alt.=165.853638m. Speed=0.072000m/h.</desc>
<speed>0.020000</speed>
</trkpt>
<trkpt lat="55.704395" lon="26.086411">
<ele>165.857544</ele>
<time>2010-07-17T19:02:34Z</time>
<desc>lat.=55.704395, lon.=26.086411, Alt.=165.857544m. Speed=0.072000m/h.</desc>
<speed>0.020000</speed>
</trkpt>
<trkpt lat="55.704395" lon="26.086411">
<ele>165.857544</ele>
<time>2010-07-17T19:02:35Z</time>
<desc>lat.=55.704395, lon.=26.086411, Alt.=165.857544m. Speed=0.108000m/h.</desc>
<speed>0.030000</speed>
</trkpt>
<trkpt lat="55.704395" lon="26.086411">
<ele>165.857544</ele>
<time>2010-07-17T19:02:36Z</time>
<desc>lat.=55.704395, lon.=26.086411, Alt.=165.857544m. Speed=0.036000m/h.</desc>
<speed>0.010000</speed>
</trkpt>
<trkpt lat="55.704395" lon="26.086411">
<ele>165.869263</ele>
<time>2010-07-17T19:02:37Z</time>
<desc>lat.=55.704395, lon.=26.086411, Alt.=165.869263m. Speed=0.036000m/h.</desc>
<speed>0.010000</speed>
</trkpt>
<trkpt lat="55.704395" lon="26.086411">
<ele>165.877075</ele>
<time>2010-07-17T19:02:38Z</time>
<desc>lat.=55.704395, lon.=26.086411, Alt.=165.877075m. Speed=0.072000m/h.</desc>
<speed>0.020000</speed>
</trkpt>
<trkpt lat="55.704395" lon="26.086411">
<ele>165.884888</ele>
<time>2010-07-17T19:02:39Z</time>
<desc>lat.=55.704395, lon.=26.086411, Alt.=165.884888m. Speed=0.072000m/h.</desc>
<speed>0.020000</speed>
</trkpt>
<trkpt lat="55.704395" lon="26.086411">
<ele>165.888794</ele>
<time>2010-07-17T19:02:40Z</time>
<desc>lat.=55.704395, lon.=26.086411, Alt.=165.888794m. Speed=0.072000m/h.</desc>
<speed>0.020000</speed>
</trkpt>
<trkpt lat="55.704395" lon="26.086411">
<ele>165.892700</ele>
<time>2010-07-17T19:02:41Z</time>
<desc>lat.=55.704395, lon.=26.086411, Alt.=165.892700m. Speed=0.036000m/h.</desc>
<speed>0.010000</speed>
</trkpt>
<trkpt lat="55.704395" lon="26.086411">
<ele>165.892700</ele>
<time>2010-07-17T19:02:42Z</time>
<desc>lat.=55.704395, lon.=26.086411, Alt.=165.892700m. Speed=0.036000m/h.</desc>
<speed>0.010000</speed>
</trkpt>
<trkpt lat="55.704395" lon="26.086411">
<ele>165.896606</ele>
<time>2010-07-17T19:02:43Z</time>
<desc>lat.=55.704395, lon.=26.086411, Alt.=165.896606m. Speed=0.072000m/h.</desc>
<speed>0.020000</speed>
</trkpt>
<trkpt lat="55.704395" lon="26.086411">
<ele>165.892700</ele>
<time>2010-07-17T19:02:44Z</time>
<desc>lat.=55.704395, lon.=26.086411, Alt.=165.892700m. Speed=0.108000m/h.</desc>
<speed>0.030000</speed>
</trkpt>
<trkpt lat="55.704395" lon="26.086411">
<ele>165.896606</ele>
<time>2010-07-17T19:02:45Z</time>
<desc>lat.=55.704395, lon.=26.086411, Alt.=165.896606m. Speed=0.000000m/h.</desc>
<speed>0.000000</speed>
</trkpt>
<trkpt lat="55.704395" lon="26.086411">
<ele>165.904419</ele>
<time>2010-07-17T19:02:46Z</time>
<desc>lat.=55.704395, lon.=26.086411, Alt.=165.904419m. Speed=0.072000m/h.</desc>
<speed>0.020000</speed>
</trkpt>
<trkpt lat="55.704395" lon="26.086411">
<ele>165.908325</ele>
<time>2010-07-17T19:02:47Z</time>
<desc>lat.=55.704395, lon.=26.086411, Alt.=165.908325m. Speed=0.000000m/h.</desc>
<speed>0.000000</speed>
</trkpt>
<trkpt lat="55.704395" lon="26.086411">
<ele>165.912231</ele>
<time>2010-07-17T19:02:48Z</time>
<desc>lat.=55.704395, lon.=26.086411, Alt.=165.912231m. Speed=0.072000m/h.</desc>
<speed>0.020000</speed>
</trkpt>
<trkpt lat="55.704395" lon="26.086411">
<ele>165.916138</ele>
<time>2010-07-17T19:02:49Z</time>
<desc>lat.=55.704395, lon.=26.086411, Alt.=165.916138m. Speed=0.036000m/h.</desc>
<speed>0.010000</speed>
</trkpt>
<trkpt lat="55.704395" lon="26.086411">
<ele>165.912231</ele>
<time>2010-07-17T19:02:50Z</time>
<desc>lat.=55.704395, lon.=26.086411, Alt.=165.912231m. Speed=0.108000m/h.</desc>
<speed>0.030000</speed>
</trkpt>
<trkpt lat="55.704395" lon="26.086409">
<ele>165.912231</ele>
<time>2010-07-17T19:02:51Z</time>
<desc>lat.=55.704395, lon.=26.086409, Alt.=165.912231m. Speed=0.108000m/h.</desc>
<speed>0.030000</speed>
</trkpt>
<trkpt lat="55.704395" lon="26.086409">
<ele>165.912231</ele>
<time>2010-07-17T19:02:52Z</time>
<desc>lat.=55.704395, lon.=26.086409, Alt.=165.912231m. Speed=0.036000m/h.</desc>
<speed>0.010000</speed>
</trkpt>
<trkpt lat="55.704395" lon="26.086409">
<ele>165.908325</ele>
<time>2010-07-17T19:02:53Z</time>
<desc>lat.=55.704395, lon.=26.086409, Alt.=165.908325m. Speed=0.036000m/h.</desc>
<speed>0.010000</speed>
</trkpt>
<trkpt lat="55.704395" lon="26.086409">
<ele>165.908325</ele>
<time>2010-07-17T19:02:54Z</time>
<desc>lat.=55.704395, lon.=26.086409, Alt.=165.908325m. Speed=0.036000m/h.</desc>
<speed>0.010000</speed>
</trkpt>
<trkpt lat="55.704395" lon="26.086409">
<ele>165.904419</ele>
<time>2010-07-17T19:02:55Z</time>
<desc>lat.=55.704395, lon.=26.086409, Alt.=165.904419m. Speed=0.072000m/h.</desc>
<speed>0.020000</speed>
</trkpt>
<trkpt lat="55.704395" lon="26.086409">
<ele>165.900513</ele>
<time>2010-07-17T19:02:56Z</time>
<desc>lat.=55.704395, lon.=26.086409, Alt.=165.900513m. Speed=0.036000m/h.</desc>
<speed>0.010000</speed>
</trkpt>
<trkpt lat="55.704395" lon="26.086409">
<ele>165.892700</ele>
<time>2010-07-17T19:02:57Z</time>
<desc>lat.=55.704395, lon.=26.086409, Alt.=165.892700m. Speed=0.036000m/h.</desc>
<speed>0.010000</speed>
</trkpt>
<trkpt lat="55.704395" lon="26.086409">
<ele>165.896606</ele>
<time>2010-07-17T19:02:58Z</time>
<desc>lat.=55.704395, lon.=26.086409, Alt.=165.896606m. Speed=0.072000m/h.</desc>
<speed>0.020000</speed>
</trkpt>
<trkpt lat="55.704395" lon="26.086409">
<ele>165.896606</ele>
<time>2010-07-17T19:02:59Z</time>
<desc>lat.=55.704395, lon.=26.086409, Alt.=165.896606m. Speed=0.036000m/h.</desc>
<speed>0.010000</speed>
</trkpt>
<trkpt lat="55.704395" lon="26.086409">
<ele>165.896606</ele>
<time>2010-07-17T19:03:00Z</time>
<desc>lat.=55.704395, lon.=26.086409, Alt.=165.896606m. Speed=0.072000m/h.</desc>
<speed>0.020000</speed>
</trkpt>
<trkpt lat="55.704395" lon="26.086409">
<ele>165.900513</ele>
<time>2010-07-17T19:03:01Z</time>
<desc>lat.=55.704395, lon.=26.086409, Alt.=165.900513m. Speed=0.036000m/h.</desc>
<speed>0.010000</speed>
</trkpt>
<trkpt lat="55.704395" lon="26.086409">
<ele>165.904419</ele>
<time>2010-07-17T19:03:02Z</time>
<desc>lat.=55.704395, lon.=26.086409, Alt.=165.904419m. Speed=0.000000m/h.</desc>
<speed>0.000000</speed>
</trkpt>
<trkpt lat="55.704395" lon="26.086409">
<ele>165.900513</ele>
<time>2010-07-17T19:03:03Z</time>
<desc>lat.=55.704395, lon.=26.086409, Alt.=165.900513m. Speed=0.144000m/h.</desc>
<speed>0.040000</speed>
</trkpt>
<trkpt lat="55.704395" lon="26.086409">
<ele>165.900513</ele>
<time>2010-07-17T19:03:04Z</time>
<desc>lat.=55.704395, lon.=26.086409, Alt.=165.900513m. Speed=0.000000m/h.</desc>
<speed>0.000000</speed>
</trkpt>
<trkpt lat="55.704395" lon="26.086409">
<ele>165.900513</ele>
<time>2010-07-17T19:03:05Z</time>
<desc>lat.=55.704395, lon.=26.086409, Alt.=165.900513m. Speed=0.036000m/h.</desc>
<speed>0.010000</speed>
</trkpt>
<trkpt lat="55.704395" lon="26.086409">
<ele>165.896606</ele>
<time>2010-07-17T19:03:06Z</time>
<desc>lat.=55.704395, lon.=26.086409, Alt.=165.896606m. Speed=0.036000m/h.</desc>
<speed>0.010000</speed>
</trkpt>
<trkpt lat="55.704395" lon="26.086409">
<ele>165.896606</ele>
<time>2010-07-17T19:03:07Z</time>
<desc>lat.=55.704395, lon.=26.086409, Alt.=165.896606m. Speed=0.036000m/h.</desc>
<speed>0.010000</speed>
</trkpt>
<trkpt lat="55.704395" lon="26.086409">
<ele>165.892700</ele>
<time>2010-07-17T19:03:08Z</time>
<desc>lat.=55.704395, lon.=26.086409, Alt.=165.892700m. Speed=0.000000m/h.</desc>
<speed>0.000000</speed>
</trkpt>
<trkpt lat="55.704395" lon="26.086409">
<ele>165.896606</ele>
<time>2010-07-17T19:03:09Z</time>
<desc>lat.=55.704395, lon.=26.086409, Alt.=165.896606m. Speed=0.036000m/h.</desc>
<speed>0.010000</speed>
</trkpt>
<trkpt lat="55.704395" lon="26.086409">
<ele>165.900513</ele>
<time>2010-07-17T19:03:10Z</time>
<desc>lat.=55.704395, lon.=26.086409, Alt.=165.900513m. Speed=0.072000m/h.</desc>
<speed>0.020000</speed>
</trkpt>
<trkpt lat="55.704395" lon="26.086409">
<ele>165.896606</ele>
<time>2010-07-17T19:03:11Z</time>
<desc>lat.=55.704395, lon.=26.086409, Alt.=165.896606m. Speed=0.108000m/h.</desc>
<speed>0.030000</speed>
</trkpt>
<trkpt lat="55.704395" lon="26.086409">
<ele>165.892700</ele>
<time>2010-07-17T19:03:12Z</time>
<desc>lat.=55.704395, lon.=26.086409, Alt.=165.892700m. Speed=0.072000m/h.</desc>
<speed>0.020000</speed>
</trkpt>
<trkpt lat="55.704395" lon="26.086409">
<ele>165.884888</ele>
<time>2010-07-17T19:03:13Z</time>
<desc>lat.=55.704395, lon.=26.086409, Alt.=165.884888m. Speed=0.072000m/h.</desc>
<speed>0.020000</speed>
</trkpt>
<trkpt lat="55.704395" lon="26.086409">
<ele>165.880981</ele>
<time>2010-07-17T19:03:14Z</time>
<desc>lat.=55.704395, lon.=26.086409, Alt.=165.880981m. Speed=0.000000m/h.</desc>
<speed>0.000000</speed>
</trkpt>
<trkpt lat="55.704395" lon="26.086409">
<ele>165.877075</ele>
<time>2010-07-17T19:03:15Z</time>
<desc>lat.=55.704395, lon.=26.086409, Alt.=165.877075m. Speed=0.000000m/h.</desc>
<speed>0.000000</speed>
</trkpt>
<trkpt lat="55.704395" lon="26.086409">
<ele>165.869263</ele>
<time>2010-07-17T19:03:16Z</time>
<desc>lat.=55.704395, lon.=26.086409, Alt.=165.869263m. Speed=0.036000m/h.</desc>
<speed>0.010000</speed>
</trkpt>
<trkpt lat="55.704395" lon="26.086409">
<ele>165.857544</ele>
<time>2010-07-17T19:03:17Z</time>
<desc>lat.=55.704395, lon.=26.086409, Alt.=165.857544m. Speed=0.072000m/h.</desc>
<speed>0.020000</speed>
</trkpt>
<trkpt lat="55.704395" lon="26.086409">
<ele>165.849731</ele>
<time>2010-07-17T19:03:18Z</time>
<desc>lat.=55.704395, lon.=26.086409, Alt.=165.849731m. Speed=0.036000m/h.</desc>
<speed>0.010000</speed>
</trkpt>
<trkpt lat="55.704395" lon="26.086409">
<ele>165.838013</ele>
<time>2010-07-17T19:03:19Z</time>
<desc>lat.=55.704395, lon.=26.086409, Alt.=165.838013m. Speed=0.036000m/h.</desc>
<speed>0.010000</speed>
</trkpt>
<trkpt lat="55.704395" lon="26.086409">
<ele>165.830200</ele>
<time>2010-07-17T19:03:20Z</time>
<desc>lat.=55.704395, lon.=26.086409, Alt.=165.830200m. Speed=0.072000m/h.</desc>
<speed>0.020000</speed>
</trkpt>
<trkpt lat="55.704395" lon="26.086409">
<ele>165.822388</ele>
<time>2010-07-17T19:03:21Z</time>
<desc>lat.=55.704395, lon.=26.086409, Alt.=165.822388m. Speed=0.036000m/h.</desc>
<speed>0.010000</speed>
</trkpt>
<trkpt lat="55.704395" lon="26.086409">
<ele>165.810669</ele>
<time>2010-07-17T19:03:22Z</time>
<desc>lat.=55.704395, lon.=26.086409, Alt.=165.810669m. Speed=0.108000m/h.</desc>
<speed>0.030000</speed>
</trkpt>
<trkpt lat="55.704395" lon="26.086409">
<ele>165.798950</ele>
<time>2010-07-17T19:03:23Z</time>
<desc>lat.=55.704395, lon.=26.086409, Alt.=165.798950m. Speed=0.000000m/h.</desc>
<speed>0.000000</speed>
</trkpt>
<trkpt lat="55.704395" lon="26.086409">
<ele>165.791138</ele>
<time>2010-07-17T19:03:24Z</time>
<desc>lat.=55.704395, lon.=26.086409, Alt.=165.791138m. Speed=0.108000m/h.</desc>
<speed>0.030000</speed>
</trkpt>
<trkpt lat="55.704395" lon="26.086409">
<ele>165.783325</ele>
<time>2010-07-17T19:03:25Z</time>
<desc>lat.=55.704395, lon.=26.086409, Alt.=165.783325m. Speed=0.000000m/h.</desc>
<speed>0.000000</speed>
</trkpt>
<trkpt lat="55.704395" lon="26.086409">
<ele>165.771606</ele>
<time>2010-07-17T19:03:26Z</time>
<desc>lat.=55.704395, lon.=26.086409, Alt.=165.771606m. Speed=0.108000m/h.</desc>
<speed>0.030000</speed>
</trkpt>
<trkpt lat="55.704395" lon="26.086409">
<ele>165.767700</ele>
<time>2010-07-17T19:03:27Z</time>
<desc>lat.=55.704395, lon.=26.086409, Alt.=165.767700m. Speed=0.036000m/h.</desc>
<speed>0.010000</speed>
</trkpt>
<trkpt lat="55.704395" lon="26.086409">
<ele>165.755981</ele>
<time>2010-07-17T19:03:28Z</time>
<desc>lat.=55.704395, lon.=26.086409, Alt.=165.755981m. Speed=0.036000m/h.</desc>
<speed>0.010000</speed>
</trkpt>
<trkpt lat="55.704395" lon="26.086409">
<ele>165.744263</ele>
<time>2010-07-17T19:03:29Z</time>
<desc>lat.=55.704395, lon.=26.086409, Alt.=165.744263m. Speed=0.072000m/h.</desc>
<speed>0.020000</speed>
</trkpt>
<trkpt lat="55.704395" lon="26.086409">
<ele>165.728638</ele>
<time>2010-07-17T19:03:30Z</time>
<desc>lat.=55.704395, lon.=26.086409, Alt.=165.728638m. Speed=0.000000m/h.</desc>
<speed>0.000000</speed>
</trkpt>
<trkpt lat="55.704395" lon="26.086409">
<ele>165.724731</ele>
<time>2010-07-17T19:03:31Z</time>
<desc>lat.=55.704395, lon.=26.086409, Alt.=165.724731m. Speed=0.000000m/h.</desc>
<speed>0.000000</speed>
</trkpt>
<trkpt lat="55.704395" lon="26.086409">
<ele>165.720825</ele>
<time>2010-07-17T19:03:32Z</time>
<desc>lat.=55.704395, lon.=26.086409, Alt.=165.720825m. Speed=0.000000m/h.</desc>
<speed>0.000000</speed>
</trkpt>
<trkpt lat="55.704395" lon="26.086409">
<ele>165.716919</ele>
<time>2010-07-17T19:03:33Z</time>
<desc>lat.=55.704395, lon.=26.086409, Alt.=165.716919m. Speed=0.072000m/h.</desc>
<speed>0.020000</speed>
</trkpt>
<trkpt lat="55.704395" lon="26.086409">
<ele>165.713013</ele>
<time>2010-07-17T19:03:34Z</time>
<desc>lat.=55.704395, lon.=26.086409, Alt.=165.713013m. Speed=0.108000m/h.</desc>
<speed>0.030000</speed>
</trkpt>
<trkpt lat="55.704395" lon="26.086409">
<ele>165.705200</ele>
<time>2010-07-17T19:03:35Z</time>
<desc>lat.=55.704395, lon.=26.086409, Alt.=165.705200m. Speed=0.000000m/h.</desc>
<speed>0.000000</speed>
</trkpt>
<trkpt lat="55.704395" lon="26.086409">
<ele>165.705200</ele>
<time>2010-07-17T19:03:36Z</time>
<desc>lat.=55.704395, lon.=26.086409, Alt.=165.705200m. Speed=0.036000m/h.</desc>
<speed>0.010000</speed>
</trkpt>
<trkpt lat="55.704395" lon="26.086409">
<ele>165.701294</ele>
<time>2010-07-17T19:03:37Z</time>
<desc>lat.=55.704395, lon.=26.086409, Alt.=165.701294m. Speed=0.036000m/h.</desc>
<speed>0.010000</speed>
</trkpt>
<trkpt lat="55.704395" lon="26.086409">
<ele>165.693481</ele>
<time>2010-07-17T19:03:38Z</time>
<desc>lat.=55.704395, lon.=26.086409, Alt.=165.693481m. Speed=0.108000m/h.</desc>
<speed>0.030000</speed>
</trkpt>
<trkpt lat="55.704395" lon="26.086409">
<ele>165.689575</ele>
<time>2010-07-17T19:03:39Z</time>
<desc>lat.=55.704395, lon.=26.086409, Alt.=165.689575m. Speed=0.072000m/h.</desc>
<speed>0.020000</speed>
</trkpt>
<trkpt lat="55.704395" lon="26.086409">
<ele>165.685669</ele>
<time>2010-07-17T19:03:40Z</time>
<desc>lat.=55.704395, lon.=26.086409, Alt.=165.685669m. Speed=0.036000m/h.</desc>
<speed>0.010000</speed>
</trkpt>
<trkpt lat="55.704399" lon="26.086409">
<ele>165.685669</ele>
<time>2010-07-17T19:03:41Z</time>
<desc>lat.=55.704399, lon.=26.086409, Alt.=165.685669m. Speed=0.000000m/h.</desc>
<speed>0.000000</speed>
</trkpt>
<trkpt lat="55.704395" lon="26.086409">
<ele>165.685669</ele>
<time>2010-07-17T19:03:42Z</time>
<desc>lat.=55.704395, lon.=26.086409, Alt.=165.685669m. Speed=0.000000m/h.</desc>
<speed>0.000000</speed>
</trkpt>
<trkpt lat="55.704399" lon="26.086409">
<ele>165.681763</ele>
<time>2010-07-17T19:03:43Z</time>
<desc>lat.=55.704399, lon.=26.086409, Alt.=165.681763m. Speed=0.000000m/h.</desc>
<speed>0.000000</speed>
</trkpt>
<trkpt lat="55.704399" lon="26.086409">
<ele>165.681763</ele>
<time>2010-07-17T19:03:44Z</time>
<desc>lat.=55.704399, lon.=26.086409, Alt.=165.681763m. Speed=0.000000m/h.</desc>
<speed>0.000000</speed>
</trkpt>
<trkpt lat="55.704399" lon="26.086409">
<ele>165.681763</ele>
<time>2010-07-17T19:03:45Z</time>
<desc>lat.=55.704399, lon.=26.086409, Alt.=165.681763m. Speed=0.072000m/h.</desc>
<speed>0.020000</speed>
</trkpt>
<trkpt lat="55.704399" lon="26.086409">
<ele>165.681763</ele>
<time>2010-07-17T19:03:46Z</time>
<desc>lat.=55.704399, lon.=26.086409, Alt.=165.681763m. Speed=0.072000m/h.</desc>
<speed>0.020000</speed>
</trkpt>
<trkpt lat="55.704399" lon="26.086409">
<ele>165.681763</ele>
<time>2010-07-17T19:03:47Z</time>
<desc>lat.=55.704399, lon.=26.086409, Alt.=165.681763m. Speed=0.072000m/h.</desc>
<speed>0.020000</speed>
</trkpt>
<trkpt lat="55.704395" lon="26.086409">
<ele>165.685669</ele>
<time>2010-07-17T19:03:48Z</time>
<desc>lat.=55.704395, lon.=26.086409, Alt.=165.685669m. Speed=0.072000m/h.</desc>
<speed>0.020000</speed>
</trkpt>
<trkpt lat="55.704399" lon="26.086409">
<ele>165.689575</ele>
<time>2010-07-17T19:03:49Z</time>
<desc>lat.=55.704399, lon.=26.086409, Alt.=165.689575m. Speed=0.000000m/h.</desc>
<speed>0.000000</speed>
</trkpt>
<trkpt lat="55.704399" lon="26.086409">
<ele>165.689575</ele>
<time>2010-07-17T19:03:50Z</time>
<desc>lat.=55.704399, lon.=26.086409, Alt.=165.689575m. Speed=0.000000m/h.</desc>
<speed>0.000000</speed>
</trkpt>
<trkpt lat="55.704399" lon="26.086409">
<ele>165.689575</ele>
<time>2010-07-17T19:03:51Z</time>
<desc>lat.=55.704399, lon.=26.086409, Alt.=165.689575m. Speed=0.072000m/h.</desc>
<speed>0.020000</speed>
</trkpt>
<trkpt lat="55.704399" lon="26.086409">
<ele>165.693481</ele>
<time>2010-07-17T19:03:52Z</time>
<desc>lat.=55.704399, lon.=26.086409, Alt.=165.693481m. Speed=0.036000m/h.</desc>
<speed>0.010000</speed>
</trkpt>
<trkpt lat="55.704399" lon="26.086409">
<ele>165.701294</ele>
<time>2010-07-17T19:03:53Z</time>
<desc>lat.=55.704399, lon.=26.086409, Alt.=165.701294m. Speed=0.000000m/h.</desc>
<speed>0.000000</speed>
</trkpt>
<trkpt lat="55.704399" lon="26.086409">
<ele>165.709106</ele>
<time>2010-07-17T19:03:54Z</time>
<desc>lat.=55.704399, lon.=26.086409, Alt.=165.709106m. Speed=0.108000m/h.</desc>
<speed>0.030000</speed>
</trkpt>
<trkpt lat="55.704399" lon="26.086409">
<ele>165.713013</ele>
<time>2010-07-17T19:03:55Z</time>
<desc>lat.=55.704399, lon.=26.086409, Alt.=165.713013m. Speed=0.072000m/h.</desc>
<speed>0.020000</speed>
</trkpt>
<trkpt lat="55.704399" lon="26.086409">
<ele>165.728638</ele>
<time>2010-07-17T19:03:56Z</time>
<desc>lat.=55.704399, lon.=26.086409, Alt.=165.728638m. Speed=0.036000m/h.</desc>
<speed>0.010000</speed>
</trkpt>
<trkpt lat="55.704399" lon="26.086409">
<ele>165.744263</ele>
<time>2010-07-17T19:03:57Z</time>
<desc>lat.=55.704399, lon.=26.086409, Alt.=165.744263m. Speed=0.072000m/h.</desc>
<speed>0.020000</speed>
</trkpt>
<trkpt lat="55.704399" lon="26.086409">
<ele>165.752075</ele>
<time>2010-07-17T19:03:58Z</time>
<desc>lat.=55.704399, lon.=26.086409, Alt.=165.752075m. Speed=0.036000m/h.</desc>
<speed>0.010000</speed>
</trkpt>
<trkpt lat="55.704399" lon="26.086409">
<ele>165.759888</ele>
<time>2010-07-17T19:03:59Z</time>
<desc>lat.=55.704399, lon.=26.086409, Alt.=165.759888m. Speed=0.036000m/h.</desc>
<speed>0.010000</speed>
</trkpt>
<trkpt lat="55.704399" lon="26.086407">
<ele>165.763794</ele>
<time>2010-07-17T19:04:00Z</time>
<desc>lat.=55.704399, lon.=26.086407, Alt.=165.763794m. Speed=0.072000m/h.</desc>
<speed>0.020000</speed>
</trkpt>
<trkpt lat="55.704399" lon="26.086407">
<ele>165.767700</ele>
<time>2010-07-17T19:04:01Z</time>
<desc>lat.=55.704399, lon.=26.086407, Alt.=165.767700m. Speed=0.072000m/h.</desc>
<speed>0.020000</speed>
</trkpt>
<trkpt lat="55.704399" lon="26.086407">
<ele>165.767700</ele>
<time>2010-07-17T19:04:02Z</time>
<desc>lat.=55.704399, lon.=26.086407, Alt.=165.767700m. Speed=0.072000m/h.</desc>
<speed>0.020000</speed>
</trkpt>
<trkpt lat="55.704399" lon="26.086407">
<ele>165.767700</ele>
<time>2010-07-17T19:04:03Z</time>
<desc>lat.=55.704399, lon.=26.086407, Alt.=165.767700m. Speed=0.144000m/h.</desc>
<speed>0.040000</speed>
</trkpt>
<trkpt lat="55.704399" lon="26.086407">
<ele>165.767700</ele>
<time>2010-07-17T19:04:04Z</time>
<desc>lat.=55.704399, lon.=26.086407, Alt.=165.767700m. Speed=0.144000m/h.</desc>
<speed>0.040000</speed>
</trkpt>
<trkpt lat="55.704399" lon="26.086407">
<ele>165.771606</ele>
<time>2010-07-17T19:04:05Z</time>
<desc>lat.=55.704399, lon.=26.086407, Alt.=165.771606m. Speed=0.108000m/h.</desc>
<speed>0.030000</speed>
</trkpt>
<trkpt lat="55.704399" lon="26.086407">
<ele>165.775513</ele>
<time>2010-07-17T19:04:06Z</time>
<desc>lat.=55.704399, lon.=26.086407, Alt.=165.775513m. Speed=0.036000m/h.</desc>
<speed>0.010000</speed>
</trkpt>
<trkpt lat="55.704399" lon="26.086407">
<ele>165.779419</ele>
<time>2010-07-17T19:04:07Z</time>
<desc>lat.=55.704399, lon.=26.086407, Alt.=165.779419m. Speed=0.036000m/h.</desc>
<speed>0.010000</speed>
</trkpt>
<trkpt lat="55.704399" lon="26.086407">
<ele>165.783325</ele>
<time>2010-07-17T19:04:08Z</time>
<desc>lat.=55.704399, lon.=26.086407, Alt.=165.783325m. Speed=0.036000m/h.</desc>
<speed>0.010000</speed>
</trkpt>
<trkpt lat="55.704399" lon="26.086407">
<ele>165.791138</ele>
<time>2010-07-17T19:04:09Z</time>
<desc>lat.=55.704399, lon.=26.086407, Alt.=165.791138m. Speed=0.072000m/h.</desc>
<speed>0.020000</speed>
</trkpt>
<trkpt lat="55.704399" lon="26.086407">
<ele>165.791138</ele>
<time>2010-07-17T19:04:10Z</time>
<desc>lat.=55.704399, lon.=26.086407, Alt.=165.791138m. Speed=0.072000m/h.</desc>
<speed>0.020000</speed>
</trkpt>
<trkpt lat="55.704399" lon="26.086407">
<ele>165.795044</ele>
<time>2010-07-17T19:04:11Z</time>
<desc>lat.=55.704399, lon.=26.086407, Alt.=165.795044m. Speed=0.000000m/h.</desc>
<speed>0.000000</speed>
</trkpt>
<trkpt lat="55.704399" lon="26.086407">
<ele>165.802856</ele>
<time>2010-07-17T19:04:12Z</time>
<desc>lat.=55.704399, lon.=26.086407, Alt.=165.802856m. Speed=0.108000m/h.</desc>
<speed>0.030000</speed>
</trkpt>
<trkpt lat="55.704399" lon="26.086407">
<ele>165.806763</ele>
<time>2010-07-17T19:04:13Z</time>
<desc>lat.=55.704399, lon.=26.086407, Alt.=165.806763m. Speed=0.036000m/h.</desc>
<speed>0.010000</speed>
</trkpt>
<trkpt lat="55.704399" lon="26.086407">
<ele>165.818481</ele>
<time>2010-07-17T19:04:14Z</time>
<desc>lat.=55.704399, lon.=26.086407, Alt.=165.818481m. Speed=0.072000m/h.</desc>
<speed>0.020000</speed>
</trkpt>
<trkpt lat="55.704399" lon="26.086409">
<ele>165.830200</ele>
<time>2010-07-17T19:04:15Z</time>
<desc>lat.=55.704399, lon.=26.086409, Alt.=165.830200m. Speed=0.036000m/h.</desc>
<speed>0.010000</speed>
</trkpt>
<trkpt lat="55.704399" lon="26.086409">
<ele>165.838013</ele>
<time>2010-07-17T19:04:16Z</time>
<desc>lat.=55.704399, lon.=26.086409, Alt.=165.838013m. Speed=0.072000m/h.</desc>
<speed>0.020000</speed>
</trkpt>
<trkpt lat="55.704399" lon="26.086409">
<ele>165.841919</ele>
<time>2010-07-17T19:04:17Z</time>
<desc>lat.=55.704399, lon.=26.086409, Alt.=165.841919m. Speed=0.072000m/h.</desc>
<speed>0.020000</speed>
</trkpt>
<trkpt lat="55.704399" lon="26.086409">
<ele>165.845825</ele>
<time>2010-07-17T19:04:18Z</time>
<desc>lat.=55.704399, lon.=26.086409, Alt.=165.845825m. Speed=0.072000m/h.</desc>
<speed>0.020000</speed>
</trkpt>
<trkpt lat="55.704399" lon="26.086409">
<ele>165.849731</ele>
<time>2010-07-17T19:04:19Z</time>
<desc>lat.=55.704399, lon.=26.086409, Alt.=165.849731m. Speed=0.072000m/h.</desc>
<speed>0.020000</speed>
</trkpt>
<trkpt lat="55.704399" lon="26.086409">
<ele>165.853638</ele>
<time>2010-07-17T19:04:20Z</time>
<desc>lat.=55.704399, lon.=26.086409, Alt.=165.853638m. Speed=0.036000m/h.</desc>
<speed>0.010000</speed>
</trkpt>
<trkpt lat="55.704399" lon="26.086409">
<ele>165.853638</ele>
<time>2010-07-17T19:04:21Z</time>
<desc>lat.=55.704399, lon.=26.086409, Alt.=165.853638m. Speed=0.036000m/h.</desc>
<speed>0.010000</speed>
</trkpt>
<trkpt lat="55.704399" lon="26.086409">
<ele>165.853638</ele>
<time>2010-07-17T19:04:22Z</time>
<desc>lat.=55.704399, lon.=26.086409, Alt.=165.853638m. Speed=0.072000m/h.</desc>
<speed>0.020000</speed>
</trkpt>
<trkpt lat="55.704399" lon="26.086409">
<ele>165.857544</ele>
<time>2010-07-17T19:04:23Z</time>
<desc>lat.=55.704399, lon.=26.086409, Alt.=165.857544m. Speed=0.036000m/h.</desc>
<speed>0.010000</speed>
</trkpt>
<trkpt lat="55.704399" lon="26.086409">
<ele>165.857544</ele>
<time>2010-07-17T19:04:24Z</time>
<desc>lat.=55.704399, lon.=26.086409, Alt.=165.857544m. Speed=0.000000m/h.</desc>
<speed>0.000000</speed>
</trkpt>
<trkpt lat="55.704399" lon="26.086409">
<ele>165.861450</ele>
<time>2010-07-17T19:04:25Z</time>
<desc>lat.=55.704399, lon.=26.086409, Alt.=165.861450m. Speed=0.036000m/h.</desc>
<speed>0.010000</speed>
</trkpt>
<trkpt lat="55.704399" lon="26.086409">
<ele>165.865356</ele>
<time>2010-07-17T19:04:26Z</time>
<desc>lat.=55.704399, lon.=26.086409, Alt.=165.865356m. Speed=0.144000m/h.</desc>
<speed>0.040000</speed>
</trkpt>
<trkpt lat="55.704399" lon="26.086409">
<ele>165.873169</ele>
<time>2010-07-17T19:04:27Z</time>
<desc>lat.=55.704399, lon.=26.086409, Alt.=165.873169m. Speed=0.108000m/h.</desc>
<speed>0.030000</speed>
</trkpt>
<trkpt lat="55.704399" lon="26.086409">
<ele>165.877075</ele>
<time>2010-07-17T19:04:28Z</time>
<desc>lat.=55.704399, lon.=26.086409, Alt.=165.877075m. Speed=0.108000m/h.</desc>
<speed>0.030000</speed>
</trkpt>
<trkpt lat="55.704399" lon="26.086409">
<ele>165.873169</ele>
<time>2010-07-17T19:04:29Z</time>
<desc>lat.=55.704399, lon.=26.086409, Alt.=165.873169m. Speed=0.108000m/h.</desc>
<speed>0.030000</speed>
</trkpt>
<trkpt lat="55.704399" lon="26.086409">
<ele>165.873169</ele>
<time>2010-07-17T19:04:30Z</time>
<desc>lat.=55.704399, lon.=26.086409, Alt.=165.873169m. Speed=0.144000m/h.</desc>
<speed>0.040000</speed>
</trkpt>
<trkpt lat="55.704399" lon="26.086411">
<ele>165.880981</ele>
<time>2010-07-17T19:04:31Z</time>
<desc>lat.=55.704399, lon.=26.086411, Alt.=165.880981m. Speed=0.180000m/h.</desc>
<speed>0.050000</speed>
</trkpt>
<trkpt lat="55.704399" lon="26.086411">
<ele>165.884888</ele>
<time>2010-07-17T19:04:32Z</time>
<desc>lat.=55.704399, lon.=26.086411, Alt.=165.884888m. Speed=0.180000m/h.</desc>
<speed>0.050000</speed>
</trkpt>
<trkpt lat="55.704399" lon="26.086411">
<ele>165.888794</ele>
<time>2010-07-17T19:04:33Z</time>
<desc>lat.=55.704399, lon.=26.086411, Alt.=165.888794m. Speed=0.144000m/h.</desc>
<speed>0.040000</speed>
</trkpt>
<trkpt lat="55.704399" lon="26.086411">
<ele>165.896606</ele>
<time>2010-07-17T19:04:34Z</time>
<desc>lat.=55.704399, lon.=26.086411, Alt.=165.896606m. Speed=0.144000m/h.</desc>
<speed>0.040000</speed>
</trkpt>
<trkpt lat="55.704399" lon="26.086411">
<ele>165.900513</ele>
<time>2010-07-17T19:04:35Z</time>
<desc>lat.=55.704399, lon.=26.086411, Alt.=165.900513m. Speed=0.144000m/h.</desc>
<speed>0.040000</speed>
</trkpt>
<trkpt lat="55.704399" lon="26.086411">
<ele>165.900513</ele>
<time>2010-07-17T19:04:36Z</time>
<desc>lat.=55.704399, lon.=26.086411, Alt.=165.900513m. Speed=0.072000m/h.</desc>
<speed>0.020000</speed>
</trkpt>
<trkpt lat="55.704399" lon="26.086411">
<ele>165.900513</ele>
<time>2010-07-17T19:04:37Z</time>
<desc>lat.=55.704399, lon.=26.086411, Alt.=165.900513m. Speed=0.180000m/h.</desc>
<speed>0.050000</speed>
</trkpt>
<trkpt lat="55.704399" lon="26.086411">
<ele>165.900513</ele>
<time>2010-07-17T19:04:38Z</time>
<desc>lat.=55.704399, lon.=26.086411, Alt.=165.900513m. Speed=0.072000m/h.</desc>
<speed>0.020000</speed>
</trkpt>
<trkpt lat="55.704399" lon="26.086411">
<ele>165.896606</ele>
<time>2010-07-17T19:04:39Z</time>
<desc>lat.=55.704399, lon.=26.086411, Alt.=165.896606m. Speed=0.036000m/h.</desc>
<speed>0.010000</speed>
</trkpt>
<trkpt lat="55.704399" lon="26.086411">
<ele>165.896606</ele>
<time>2010-07-17T19:04:40Z</time>
<desc>lat.=55.704399, lon.=26.086411, Alt.=165.896606m. Speed=0.036000m/h.</desc>
<speed>0.010000</speed>
</trkpt>
<trkpt lat="55.704399" lon="26.086412">
<ele>165.900513</ele>
<time>2010-07-17T19:04:41Z</time>
<desc>lat.=55.704399, lon.=26.086412, Alt.=165.900513m. Speed=0.108000m/h.</desc>
<speed>0.030000</speed>
</trkpt>
<trkpt lat="55.704399" lon="26.086412">
<ele>165.904419</ele>
<time>2010-07-17T19:04:42Z</time>
<desc>lat.=55.704399, lon.=26.086412, Alt.=165.904419m. Speed=0.000000m/h.</desc>
<speed>0.000000</speed>
</trkpt>
<trkpt lat="55.704399" lon="26.086412">
<ele>165.904419</ele>
<time>2010-07-17T19:04:43Z</time>
<desc>lat.=55.704399, lon.=26.086412, Alt.=165.904419m. Speed=0.144000m/h.</desc>
<speed>0.040000</speed>
</trkpt>
<trkpt lat="55.704399" lon="26.086412">
<ele>165.904419</ele>
<time>2010-07-17T19:04:44Z</time>
<desc>lat.=55.704399, lon.=26.086412, Alt.=165.904419m. Speed=0.000000m/h.</desc>
<speed>0.000000</speed>
</trkpt>
<trkpt lat="55.704399" lon="26.086412">
<ele>165.908325</ele>
<time>2010-07-17T19:04:45Z</time>
<desc>lat.=55.704399, lon.=26.086412, Alt.=165.908325m. Speed=0.036000m/h.</desc>
<speed>0.010000</speed>
</trkpt>
<trkpt lat="55.704399" lon="26.086412">
<ele>165.904419</ele>
<time>2010-07-17T19:04:46Z</time>
<desc>lat.=55.704399, lon.=26.086412, Alt.=165.904419m. Speed=0.036000m/h.</desc>
<speed>0.010000</speed>
</trkpt>
<trkpt lat="55.704399" lon="26.086412">
<ele>165.900513</ele>
<time>2010-07-17T19:04:47Z</time>
<desc>lat.=55.704399, lon.=26.086412, Alt.=165.900513m. Speed=0.036000m/h.</desc>
<speed>0.010000</speed>
</trkpt>
<trkpt lat="55.704399" lon="26.086412">
<ele>165.904419</ele>
<time>2010-07-17T19:04:48Z</time>
<desc>lat.=55.704399, lon.=26.086412, Alt.=165.904419m. Speed=0.072000m/h.</desc>
<speed>0.020000</speed>
</trkpt>
<trkpt lat="55.704399" lon="26.086412">
<ele>165.912231</ele>
<time>2010-07-17T19:04:49Z</time>
<desc>lat.=55.704399, lon.=26.086412, Alt.=165.912231m. Speed=0.108000m/h.</desc>
<speed>0.030000</speed>
</trkpt>
<trkpt lat="55.704399" lon="26.086412">
<ele>165.916138</ele>
<time>2010-07-17T19:04:50Z</time>
<desc>lat.=55.704399, lon.=26.086412, Alt.=165.916138m. Speed=0.108000m/h.</desc>
<speed>0.030000</speed>
</trkpt>
<trkpt lat="55.704399" lon="26.086412">
<ele>165.908325</ele>
<time>2010-07-17T19:04:51Z</time>
<desc>lat.=55.704399, lon.=26.086412, Alt.=165.908325m. Speed=0.108000m/h.</desc>
<speed>0.030000</speed>
</trkpt>
<trkpt lat="55.704399" lon="26.086412">
<ele>165.904419</ele>
<time>2010-07-17T19:04:52Z</time>
<desc>lat.=55.704399, lon.=26.086412, Alt.=165.904419m. Speed=0.108000m/h.</desc>
<speed>0.030000</speed>
</trkpt>
<trkpt lat="55.704399" lon="26.086412">
<ele>165.892700</ele>
<time>2010-07-17T19:04:53Z</time>
<desc>lat.=55.704399, lon.=26.086412, Alt.=165.892700m. Speed=0.180000m/h.</desc>
<speed>0.050000</speed>
</trkpt>
<trkpt lat="55.704399" lon="26.086412">
<ele>165.888794</ele>
<time>2010-07-17T19:04:54Z</time>
<desc>lat.=55.704399, lon.=26.086412, Alt.=165.888794m. Speed=0.108000m/h.</desc>
<speed>0.030000</speed>
</trkpt>
<trkpt lat="55.704399" lon="26.086412">
<ele>165.880981</ele>
<time>2010-07-17T19:04:55Z</time>
<desc>lat.=55.704399, lon.=26.086412, Alt.=165.880981m. Speed=0.288000m/h.</desc>
<speed>0.080000</speed>
</trkpt>
<trkpt lat="55.704399" lon="26.086412">
<ele>165.873169</ele>
<time>2010-07-17T19:04:56Z</time>
<desc>lat.=55.704399, lon.=26.086412, Alt.=165.873169m. Speed=0.144000m/h.</desc>
<speed>0.040000</speed>
</trkpt>
<trkpt lat="55.704399" lon="26.086412">
<ele>165.865356</ele>
<time>2010-07-17T19:04:57Z</time>
<desc>lat.=55.704399, lon.=26.086412, Alt.=165.865356m. Speed=0.072000m/h.</desc>
<speed>0.020000</speed>
</trkpt>
<trkpt lat="55.704399" lon="26.086412">
<ele>165.857544</ele>
<time>2010-07-17T19:04:58Z</time>
<desc>lat.=55.704399, lon.=26.086412, Alt.=165.857544m. Speed=0.144000m/h.</desc>
<speed>0.040000</speed>
</trkpt>
<trkpt lat="55.704399" lon="26.086412">
<ele>165.857544</ele>
<time>2010-07-17T19:04:59Z</time>
<desc>lat.=55.704399, lon.=26.086412, Alt.=165.857544m. Speed=0.000000m/h.</desc>
<speed>0.000000</speed>
</trkpt>
<trkpt lat="55.704399" lon="26.086412">
<ele>165.865356</ele>
<time>2010-07-17T19:05:00Z</time>
<desc>lat.=55.704399, lon.=26.086412, Alt.=165.865356m. Speed=0.072000m/h.</desc>
<speed>0.020000</speed>
</trkpt>
<trkpt lat="55.704399" lon="26.086412">
<ele>165.861450</ele>
<time>2010-07-17T19:05:01Z</time>
<desc>lat.=55.704399, lon.=26.086412, Alt.=165.861450m. Speed=0.288000m/h.</desc>
<speed>0.080000</speed>
</trkpt>
<trkpt lat="55.704399" lon="26.086412">
<ele>165.865356</ele>
<time>2010-07-17T19:05:02Z</time>
<desc>lat.=55.704399, lon.=26.086412, Alt.=165.865356m. Speed=0.144000m/h.</desc>
<speed>0.040000</speed>
</trkpt>
<trkpt lat="55.704399" lon="26.086414">
<ele>165.857544</ele>
<time>2010-07-17T19:05:03Z</time>
<desc>lat.=55.704399, lon.=26.086414, Alt.=165.857544m. Speed=0.108000m/h.</desc>
<speed>0.030000</speed>
</trkpt>
<trkpt lat="55.704403" lon="26.086414">
<ele>165.849731</ele>
<time>2010-07-17T19:05:04Z</time>
<desc>lat.=55.704403, lon.=26.086414, Alt.=165.849731m. Speed=0.108000m/h.</desc>
<speed>0.030000</speed>
</trkpt>
<trkpt lat="55.704403" lon="26.086414">
<ele>165.849731</ele>
<time>2010-07-17T19:05:05Z</time>
<desc>lat.=55.704403, lon.=26.086414, Alt.=165.849731m. Speed=0.216000m/h.</desc>
<speed>0.060000</speed>
</trkpt>
<trkpt lat="55.704403" lon="26.086414">
<ele>165.849731</ele>
<time>2010-07-17T19:05:06Z</time>
<desc>lat.=55.704403, lon.=26.086414, Alt.=165.849731m. Speed=0.180000m/h.</desc>
<speed>0.050000</speed>
</trkpt>
<trkpt lat="55.704403" lon="26.086414">
<ele>165.849731</ele>
<time>2010-07-17T19:05:07Z</time>
<desc>lat.=55.704403, lon.=26.086414, Alt.=165.849731m. Speed=0.108000m/h.</desc>
<speed>0.030000</speed>
</trkpt>
<trkpt lat="55.704403" lon="26.086412">
<ele>165.853638</ele>
<time>2010-07-17T19:05:08Z</time>
<desc>lat.=55.704403, lon.=26.086412, Alt.=165.853638m. Speed=0.108000m/h.</desc>
<speed>0.030000</speed>
</trkpt>
<trkpt lat="55.704403" lon="26.086412">
<ele>165.853638</ele>
<time>2010-07-17T19:05:09Z</time>
<desc>lat.=55.704403, lon.=26.086412, Alt.=165.853638m. Speed=0.072000m/h.</desc>
<speed>0.020000</speed>
</trkpt>
<trkpt lat="55.704403" lon="26.086412">
<ele>165.849731</ele>
<time>2010-07-17T19:05:10Z</time>
<desc>lat.=55.704403, lon.=26.086412, Alt.=165.849731m. Speed=0.144000m/h.</desc>
<speed>0.040000</speed>
</trkpt>
<trkpt lat="55.704403" lon="26.086412">
<ele>165.857544</ele>
<time>2010-07-17T19:05:11Z</time>
<desc>lat.=55.704403, lon.=26.086412, Alt.=165.857544m. Speed=0.108000m/h.</desc>
<speed>0.030000</speed>
</trkpt>
<trkpt lat="55.704403" lon="26.086412">
<ele>165.865356</ele>
<time>2010-07-17T19:05:12Z</time>
<desc>lat.=55.704403, lon.=26.086412, Alt.=165.865356m. Speed=0.036000m/h.</desc>
<speed>0.010000</speed>
</trkpt>
<trkpt lat="55.704403" lon="26.086412">
<ele>165.861450</ele>
<time>2010-07-17T19:05:13Z</time>
<desc>lat.=55.704403, lon.=26.086412, Alt.=165.861450m. Speed=0.036000m/h.</desc>
<speed>0.010000</speed>
</trkpt>
<trkpt lat="55.704403" lon="26.086412">
<ele>165.869263</ele>
<time>2010-07-17T19:05:14Z</time>
<desc>lat.=55.704403, lon.=26.086412, Alt.=165.869263m. Speed=0.036000m/h.</desc>
<speed>0.010000</speed>
</trkpt>
<trkpt lat="55.704403" lon="26.086412">
<ele>165.873169</ele>
<time>2010-07-17T19:05:15Z</time>
<desc>lat.=55.704403, lon.=26.086412, Alt.=165.873169m. Speed=0.108000m/h.</desc>
<speed>0.030000</speed>
</trkpt>
<trkpt lat="55.704403" lon="26.086412">
<ele>165.873169</ele>
<time>2010-07-17T19:05:16Z</time>
<desc>lat.=55.704403, lon.=26.086412, Alt.=165.873169m. Speed=0.144000m/h.</desc>
<speed>0.040000</speed>
</trkpt>
<trkpt lat="55.704403" lon="26.086412">
<ele>165.861450</ele>
<time>2010-07-17T19:05:17Z</time>
<desc>lat.=55.704403, lon.=26.086412, Alt.=165.861450m. Speed=0.072000m/h.</desc>
<speed>0.020000</speed>
</trkpt>
<trkpt lat="55.704403" lon="26.086412">
<ele>165.857544</ele>
<time>2010-07-17T19:05:18Z</time>
<desc>lat.=55.704403, lon.=26.086412, Alt.=165.857544m. Speed=0.180000m/h.</desc>
<speed>0.050000</speed>
</trkpt>
<trkpt lat="55.704403" lon="26.086412">
<ele>165.865356</ele>
<time>2010-07-17T19:05:19Z</time>
<desc>lat.=55.704403, lon.=26.086412, Alt.=165.865356m. Speed=0.180000m/h.</desc>
<speed>0.050000</speed>
</trkpt>
<trkpt lat="55.704403" lon="26.086412">
<ele>165.865356</ele>
<time>2010-07-17T19:05:20Z</time>
<desc>lat.=55.704403, lon.=26.086412, Alt.=165.865356m. Speed=0.072000m/h.</desc>
<speed>0.020000</speed>
</trkpt>
<trkpt lat="55.704403" lon="26.086412">
<ele>165.857544</ele>
<time>2010-07-17T19:05:21Z</time>
<desc>lat.=55.704403, lon.=26.086412, Alt.=165.857544m. Speed=0.036000m/h.</desc>
<speed>0.010000</speed>
</trkpt>
<trkpt lat="55.704403" lon="26.086412">
<ele>165.857544</ele>
<time>2010-07-17T19:05:22Z</time>
<desc>lat.=55.704403, lon.=26.086412, Alt.=165.857544m. Speed=0.036000m/h.</desc>
<speed>0.010000</speed>
</trkpt>
<trkpt lat="55.704403" lon="26.086412">
<ele>165.857544</ele>
<time>2010-07-17T19:05:23Z</time>
<desc>lat.=55.704403, lon.=26.086412, Alt.=165.857544m. Speed=0.072000m/h.</desc>
<speed>0.020000</speed>
</trkpt>
<trkpt lat="55.704403" lon="26.086412">
<ele>165.857544</ele>
<time>2010-07-17T19:05:24Z</time>
<desc>lat.=55.704403, lon.=26.086412, Alt.=165.857544m. Speed=0.036000m/h.</desc>
<speed>0.010000</speed>
</trkpt>
<trkpt lat="55.704403" lon="26.086412">
<ele>165.853638</ele>
<time>2010-07-17T19:05:25Z</time>
<desc>lat.=55.704403, lon.=26.086412, Alt.=165.853638m. Speed=0.072000m/h.</desc>
<speed>0.020000</speed>
</trkpt>
<trkpt lat="55.704403" lon="26.086412">
<ele>165.849731</ele>
<time>2010-07-17T19:05:26Z</time>
<desc>lat.=55.704403, lon.=26.086412, Alt.=165.849731m. Speed=0.108000m/h.</desc>
<speed>0.030000</speed>
</trkpt>
<trkpt lat="55.704403" lon="26.086412">
<ele>165.845825</ele>
<time>2010-07-17T19:05:27Z</time>
<desc>lat.=55.704403, lon.=26.086412, Alt.=165.845825m. Speed=0.072000m/h.</desc>
<speed>0.020000</speed>
</trkpt>
<trkpt lat="55.704403" lon="26.086412">
<ele>165.841919</ele>
<time>2010-07-17T19:05:28Z</time>
<desc>lat.=55.704403, lon.=26.086412, Alt.=165.841919m. Speed=0.144000m/h.</desc>
<speed>0.040000</speed>
</trkpt>
<trkpt lat="55.704407" lon="26.086412">
<ele>165.838013</ele>
<time>2010-07-17T19:05:29Z</time>
<desc>lat.=55.704407, lon.=26.086412, Alt.=165.838013m. Speed=0.108000m/h.</desc>
<speed>0.030000</speed>
</trkpt>
<trkpt lat="55.704407" lon="26.086412">
<ele>165.834106</ele>
<time>2010-07-17T19:05:30Z</time>
<desc>lat.=55.704407, lon.=26.086412, Alt.=165.834106m. Speed=0.108000m/h.</desc>
<speed>0.030000</speed>
</trkpt>
<trkpt lat="55.704407" lon="26.086412">
<ele>165.830200</ele>
<time>2010-07-17T19:05:31Z</time>
<desc>lat.=55.704407, lon.=26.086412, Alt.=165.830200m. Speed=0.036000m/h.</desc>
<speed>0.010000</speed>
</trkpt>
<trkpt lat="55.704407" lon="26.086412">
<ele>165.822388</ele>
<time>2010-07-17T19:05:32Z</time>
<desc>lat.=55.704407, lon.=26.086412, Alt.=165.822388m. Speed=0.108000m/h.</desc>
<speed>0.030000</speed>
</trkpt>
<trkpt lat="55.704407" lon="26.086412">
<ele>165.814575</ele>
<time>2010-07-17T19:05:33Z</time>
<desc>lat.=55.704407, lon.=26.086412, Alt.=165.814575m. Speed=0.072000m/h.</desc>
<speed>0.020000</speed>
</trkpt>
<trkpt lat="55.704407" lon="26.086412">
<ele>165.810669</ele>
<time>2010-07-17T19:05:34Z</time>
<desc>lat.=55.704407, lon.=26.086412, Alt.=165.810669m. Speed=0.000000m/h.</desc>
<speed>0.000000</speed>
</trkpt>
<trkpt lat="55.704407" lon="26.086412">
<ele>165.806763</ele>
<time>2010-07-17T19:05:35Z</time>
<desc>lat.=55.704407, lon.=26.086412, Alt.=165.806763m. Speed=0.000000m/h.</desc>
<speed>0.000000</speed>
</trkpt>
<trkpt lat="55.704407" lon="26.086412">
<ele>165.798950</ele>
<time>2010-07-17T19:05:36Z</time>
<desc>lat.=55.704407, lon.=26.086412, Alt.=165.798950m. Speed=0.036000m/h.</desc>
<speed>0.010000</speed>
</trkpt>
<trkpt lat="55.704407" lon="26.086412">
<ele>165.798950</ele>
<time>2010-07-17T19:05:37Z</time>
<desc>lat.=55.704407, lon.=26.086412, Alt.=165.798950m. Speed=0.072000m/h.</desc>
<speed>0.020000</speed>
</trkpt>
<trkpt lat="55.704407" lon="26.086412">
<ele>165.795044</ele>
<time>2010-07-17T19:05:38Z</time>
<desc>lat.=55.704407, lon.=26.086412, Alt.=165.795044m. Speed=0.072000m/h.</desc>
<speed>0.020000</speed>
</trkpt>
<trkpt lat="55.704407" lon="26.086412">
<ele>165.791138</ele>
<time>2010-07-17T19:05:39Z</time>
<desc>lat.=55.704407, lon.=26.086412, Alt.=165.791138m. Speed=0.036000m/h.</desc>
<speed>0.010000</speed>
</trkpt>
<trkpt lat="55.704407" lon="26.086412">
<ele>165.787231</ele>
<time>2010-07-17T19:05:40Z</time>
<desc>lat.=55.704407, lon.=26.086412, Alt.=165.787231m. Speed=0.036000m/h.</desc>
<speed>0.010000</speed>
</trkpt>
<trkpt lat="55.704407" lon="26.086412">
<ele>165.783325</ele>
<time>2010-07-17T19:05:41Z</time>
<desc>lat.=55.704407, lon.=26.086412, Alt.=165.783325m. Speed=0.036000m/h.</desc>
<speed>0.010000</speed>
</trkpt>
<trkpt lat="55.704407" lon="26.086412">
<ele>165.783325</ele>
<time>2010-07-17T19:05:42Z</time>
<desc>lat.=55.704407, lon.=26.086412, Alt.=165.783325m. Speed=0.036000m/h.</desc>
<speed>0.010000</speed>
</trkpt>
<trkpt lat="55.704407" lon="26.086412">
<ele>165.791138</ele>
<time>2010-07-17T19:05:43Z</time>
<desc>lat.=55.704407, lon.=26.086412, Alt.=165.791138m. Speed=0.072000m/h.</desc>
<speed>0.020000</speed>
</trkpt>
<trkpt lat="55.704407" lon="26.086414">
<ele>165.795044</ele>
<time>2010-07-17T19:05:44Z</time>
<desc>lat.=55.704407, lon.=26.086414, Alt.=165.795044m. Speed=0.108000m/h.</desc>
<speed>0.030000</speed>
</trkpt>
<trkpt lat="55.704407" lon="26.086414">
<ele>165.791138</ele>
<time>2010-07-17T19:05:45Z</time>
<desc>lat.=55.704407, lon.=26.086414, Alt.=165.791138m. Speed=0.072000m/h.</desc>
<speed>0.020000</speed>
</trkpt>
<trkpt lat="55.704407" lon="26.086414">
<ele>165.787231</ele>
<time>2010-07-17T19:05:46Z</time>
<desc>lat.=55.704407, lon.=26.086414, Alt.=165.787231m. Speed=0.072000m/h.</desc>
<speed>0.020000</speed>
</trkpt>
<trkpt lat="55.704407" lon="26.086414">
<ele>165.791138</ele>
<time>2010-07-17T19:05:47Z</time>
<desc>lat.=55.704407, lon.=26.086414, Alt.=165.791138m. Speed=0.072000m/h.</desc>
<speed>0.020000</speed>
</trkpt>
<trkpt lat="55.704407" lon="26.086414">
<ele>165.787231</ele>
<time>2010-07-17T19:05:48Z</time>
<desc>lat.=55.704407, lon.=26.086414, Alt.=165.787231m. Speed=0.072000m/h.</desc>
<speed>0.020000</speed>
</trkpt>
<trkpt lat="55.704407" lon="26.086414">
<ele>165.791138</ele>
<time>2010-07-17T19:05:49Z</time>
<desc>lat.=55.704407, lon.=26.086414, Alt.=165.791138m. Speed=0.036000m/h.</desc>
<speed>0.010000</speed>
</trkpt>
<trkpt lat="55.704407" lon="26.086414">
<ele>165.795044</ele>
<time>2010-07-17T19:05:50Z</time>
<desc>lat.=55.704407, lon.=26.086414, Alt.=165.795044m. Speed=0.036000m/h.</desc>
<speed>0.010000</speed>
</trkpt>
<trkpt lat="55.704407" lon="26.086414">
<ele>165.806763</ele>
<time>2010-07-17T19:05:51Z</time>
<desc>lat.=55.704407, lon.=26.086414, Alt.=165.806763m. Speed=0.036000m/h.</desc>
<speed>0.010000</speed>
</trkpt>
<trkpt lat="55.704407" lon="26.086414">
<ele>165.806763</ele>
<time>2010-07-17T19:05:52Z</time>
<desc>lat.=55.704407, lon.=26.086414, Alt.=165.806763m. Speed=0.036000m/h.</desc>
<speed>0.010000</speed>
</trkpt>
<trkpt lat="55.704407" lon="26.086414">
<ele>165.806763</ele>
<time>2010-07-17T19:05:53Z</time>
<desc>lat.=55.704407, lon.=26.086414, Alt.=165.806763m. Speed=0.072000m/h.</desc>
<speed>0.020000</speed>
</trkpt>
<trkpt lat="55.704407" lon="26.086414">
<ele>165.802856</ele>
<time>2010-07-17T19:05:54Z</time>
<desc>lat.=55.704407, lon.=26.086414, Alt.=165.802856m. Speed=0.108000m/h.</desc>
<speed>0.030000</speed>
</trkpt>
<trkpt lat="55.704407" lon="26.086414">
<ele>165.795044</ele>
<time>2010-07-17T19:05:55Z</time>
<desc>lat.=55.704407, lon.=26.086414, Alt.=165.795044m. Speed=0.108000m/h.</desc>
<speed>0.030000</speed>
</trkpt>
<trkpt lat="55.704407" lon="26.086414">
<ele>165.795044</ele>
<time>2010-07-17T19:05:56Z</time>
<desc>lat.=55.704407, lon.=26.086414, Alt.=165.795044m. Speed=0.036000m/h.</desc>
<speed>0.010000</speed>
</trkpt>
<trkpt lat="55.704407" lon="26.086414">
<ele>165.791138</ele>
<time>2010-07-17T19:05:57Z</time>
<desc>lat.=55.704407, lon.=26.086414, Alt.=165.791138m. Speed=0.180000m/h.</desc>
<speed>0.050000</speed>
</trkpt>
<trkpt lat="55.704407" lon="26.086414">
<ele>165.791138</ele>
<time>2010-07-17T19:05:58Z</time>
<desc>lat.=55.704407, lon.=26.086414, Alt.=165.791138m. Speed=0.036000m/h.</desc>
<speed>0.010000</speed>
</trkpt>
<trkpt lat="55.704407" lon="26.086414">
<ele>165.791138</ele>
<time>2010-07-17T19:05:59Z</time>
<desc>lat.=55.704407, lon.=26.086414, Alt.=165.791138m. Speed=0.036000m/h.</desc>
<speed>0.010000</speed>
</trkpt>
<trkpt lat="55.704407" lon="26.086414">
<ele>165.787231</ele>
<time>2010-07-17T19:06:00Z</time>
<desc>lat.=55.704407, lon.=26.086414, Alt.=165.787231m. Speed=0.072000m/h.</desc>
<speed>0.020000</speed>
</trkpt>
<trkpt lat="55.704407" lon="26.086414">
<ele>165.787231</ele>
<time>2010-07-17T19:06:01Z</time>
<desc>lat.=55.704407, lon.=26.086414, Alt.=165.787231m. Speed=0.000000m/h.</desc>
<speed>0.000000</speed>
</trkpt>
<trkpt lat="55.704407" lon="26.086414">
<ele>165.783325</ele>
<time>2010-07-17T19:06:02Z</time>
<desc>lat.=55.704407, lon.=26.086414, Alt.=165.783325m. Speed=0.036000m/h.</desc>
<speed>0.010000</speed>
</trkpt>
<trkpt lat="55.704407" lon="26.086414">
<ele>165.783325</ele>
<time>2010-07-17T19:06:03Z</time>
<desc>lat.=55.704407, lon.=26.086414, Alt.=165.783325m. Speed=0.108000m/h.</desc>
<speed>0.030000</speed>
</trkpt>
<trkpt lat="55.704407" lon="26.086414">
<ele>165.771606</ele>
<time>2010-07-17T19:06:04Z</time>
<desc>lat.=55.704407, lon.=26.086414, Alt.=165.771606m. Speed=0.108000m/h.</desc>
<speed>0.030000</speed>
</trkpt>
<trkpt lat="55.704407" lon="26.086416">
<ele>165.771606</ele>
<time>2010-07-17T19:06:05Z</time>
<desc>lat.=55.704407, lon.=26.086416, Alt.=165.771606m. Speed=0.036000m/h.</desc>
<speed>0.010000</speed>
</trkpt>
<trkpt lat="55.704407" lon="26.086416">
<ele>165.767700</ele>
<time>2010-07-17T19:06:06Z</time>
<desc>lat.=55.704407, lon.=26.086416, Alt.=165.767700m. Speed=0.072000m/h.</desc>
<speed>0.020000</speed>
</trkpt>
<trkpt lat="55.704407" lon="26.086416">
<ele>165.763794</ele>
<time>2010-07-17T19:06:07Z</time>
<desc>lat.=55.704407, lon.=26.086416, Alt.=165.763794m. Speed=0.036000m/h.</desc>
<speed>0.010000</speed>
</trkpt>
<trkpt lat="55.704407" lon="26.086416">
<ele>165.763794</ele>
<time>2010-07-17T19:06:08Z</time>
<desc>lat.=55.704407, lon.=26.086416, Alt.=165.763794m. Speed=0.036000m/h.</desc>
<speed>0.010000</speed>
</trkpt>
<trkpt lat="55.704407" lon="26.086416">
<ele>165.763794</ele>
<time>2010-07-17T19:06:09Z</time>
<desc>lat.=55.704407, lon.=26.086416, Alt.=165.763794m. Speed=0.144000m/h.</desc>
<speed>0.040000</speed>
</trkpt>
<trkpt lat="55.704407" lon="26.086416">
<ele>165.763794</ele>
<time>2010-07-17T19:06:10Z</time>
<desc>lat.=55.704407, lon.=26.086416, Alt.=165.763794m. Speed=0.072000m/h.</desc>
<speed>0.020000</speed>
</trkpt>
<trkpt lat="55.704407" lon="26.086416">
<ele>165.767700</ele>
<time>2010-07-17T19:06:11Z</time>
<desc>lat.=55.704407, lon.=26.086416, Alt.=165.767700m. Speed=0.072000m/h.</desc>
<speed>0.020000</speed>
</trkpt>
<trkpt lat="55.704407" lon="26.086416">
<ele>165.767700</ele>
<time>2010-07-17T19:06:12Z</time>
<desc>lat.=55.704407, lon.=26.086416, Alt.=165.767700m. Speed=0.108000m/h.</desc>
<speed>0.030000</speed>
</trkpt>
<trkpt lat="55.704407" lon="26.086416">
<ele>165.775513</ele>
<time>2010-07-17T19:06:13Z</time>
<desc>lat.=55.704407, lon.=26.086416, Alt.=165.775513m. Speed=0.036000m/h.</desc>
<speed>0.010000</speed>
</trkpt>
<trkpt lat="55.704407" lon="26.086416">
<ele>165.775513</ele>
<time>2010-07-17T19:06:14Z</time>
<desc>lat.=55.704407, lon.=26.086416, Alt.=165.775513m. Speed=0.036000m/h.</desc>
<speed>0.010000</speed>
</trkpt>
<trkpt lat="55.704407" lon="26.086416">
<ele>165.771606</ele>
<time>2010-07-17T19:06:15Z</time>
<desc>lat.=55.704407, lon.=26.086416, Alt.=165.771606m. Speed=0.072000m/h.</desc>
<speed>0.020000</speed>
</trkpt>
<trkpt lat="55.704407" lon="26.086416">
<ele>165.767700</ele>
<time>2010-07-17T19:06:16Z</time>
<desc>lat.=55.704407, lon.=26.086416, Alt.=165.767700m. Speed=0.072000m/h.</desc>
<speed>0.020000</speed>
</trkpt>
<trkpt lat="55.704407" lon="26.086416">
<ele>165.763794</ele>
<time>2010-07-17T19:06:17Z</time>
<desc>lat.=55.704407, lon.=26.086416, Alt.=165.763794m. Speed=0.036000m/h.</desc>
<speed>0.010000</speed>
</trkpt>
<trkpt lat="55.704407" lon="26.086416">
<ele>165.759888</ele>
<time>2010-07-17T19:06:18Z</time>
<desc>lat.=55.704407, lon.=26.086416, Alt.=165.759888m. Speed=0.036000m/h.</desc>
<speed>0.010000</speed>
</trkpt>
<trkpt lat="55.704407" lon="26.086416">
<ele>165.759888</ele>
<time>2010-07-17T19:06:19Z</time>
<desc>lat.=55.704407, lon.=26.086416, Alt.=165.759888m. Speed=0.036000m/h.</desc>
<speed>0.010000</speed>
</trkpt>
<trkpt lat="55.704407" lon="26.086416">
<ele>165.763794</ele>
<time>2010-07-17T19:06:20Z</time>
<desc>lat.=55.704407, lon.=26.086416, Alt.=165.763794m. Speed=0.072000m/h.</desc>
<speed>0.020000</speed>
</trkpt>
<trkpt lat="55.704407" lon="26.086416">
<ele>165.759888</ele>
<time>2010-07-17T19:06:21Z</time>
<desc>lat.=55.704407, lon.=26.086416, Alt.=165.759888m. Speed=0.036000m/h.</desc>
<speed>0.010000</speed>
</trkpt>
<trkpt lat="55.704407" lon="26.086416">
<ele>165.759888</ele>
<time>2010-07-17T19:06:22Z</time>
<desc>lat.=55.704407, lon.=26.086416, Alt.=165.759888m. Speed=0.072000m/h.</desc>
<speed>0.020000</speed>
</trkpt>
<trkpt lat="55.704407" lon="26.086416">
<ele>165.759888</ele>
<time>2010-07-17T19:06:23Z</time>
<desc>lat.=55.704407, lon.=26.086416, Alt.=165.759888m. Speed=0.072000m/h.</desc>
<speed>0.020000</speed>
</trkpt>
<trkpt lat="55.704407" lon="26.086416">
<ele>165.755981</ele>
<time>2010-07-17T19:06:24Z</time>
<desc>lat.=55.704407, lon.=26.086416, Alt.=165.755981m. Speed=0.000000m/h.</desc>
<speed>0.000000</speed>
</trkpt>
<trkpt lat="55.704407" lon="26.086416">
<ele>165.759888</ele>
<time>2010-07-17T19:06:25Z</time>
<desc>lat.=55.704407, lon.=26.086416, Alt.=165.759888m. Speed=0.072000m/h.</desc>
<speed>0.020000</speed>
</trkpt>
<trkpt lat="55.704407" lon="26.086418">
<ele>165.755981</ele>
<time>2010-07-17T19:06:26Z</time>
<desc>lat.=55.704407, lon.=26.086418, Alt.=165.755981m. Speed=0.108000m/h.</desc>
<speed>0.030000</speed>
</trkpt>
<trkpt lat="55.704407" lon="26.086418">
<ele>165.752075</ele>
<time>2010-07-17T19:06:27Z</time>
<desc>lat.=55.704407, lon.=26.086418, Alt.=165.752075m. Speed=0.180000m/h.</desc>
<speed>0.050000</speed>
</trkpt>
<trkpt lat="55.704407" lon="26.086418">
<ele>165.748169</ele>
<time>2010-07-17T19:06:28Z</time>
<desc>lat.=55.704407, lon.=26.086418, Alt.=165.748169m. Speed=0.072000m/h.</desc>
<speed>0.020000</speed>
</trkpt>
<trkpt lat="55.704407" lon="26.086418">
<ele>165.744263</ele>
<time>2010-07-17T19:06:29Z</time>
<desc>lat.=55.704407, lon.=26.086418, Alt.=165.744263m. Speed=0.000000m/h.</desc>
<speed>0.000000</speed>
</trkpt>
<trkpt lat="55.704407" lon="26.086418">
<ele>165.744263</ele>
<time>2010-07-17T19:06:30Z</time>
<desc>lat.=55.704407, lon.=26.086418, Alt.=165.744263m. Speed=0.108000m/h.</desc>
<speed>0.030000</speed>
</trkpt>
<trkpt lat="55.704407" lon="26.086418">
<ele>165.744263</ele>
<time>2010-07-17T19:06:31Z</time>
<desc>lat.=55.704407, lon.=26.086418, Alt.=165.744263m. Speed=0.216000m/h.</desc>
<speed>0.060000</speed>
</trkpt>
<trkpt lat="55.704407" lon="26.086418">
<ele>165.744263</ele>
<time>2010-07-17T19:06:32Z</time>
<desc>lat.=55.704407, lon.=26.086418, Alt.=165.744263m. Speed=0.108000m/h.</desc>
<speed>0.030000</speed>
</trkpt>
<trkpt lat="55.704407" lon="26.086418">
<ele>165.744263</ele>
<time>2010-07-17T19:06:33Z</time>
<desc>lat.=55.704407, lon.=26.086418, Alt.=165.744263m. Speed=0.108000m/h.</desc>
<speed>0.030000</speed>
</trkpt>
<trkpt lat="55.704407" lon="26.086418">
<ele>165.748169</ele>
<time>2010-07-17T19:06:34Z</time>
<desc>lat.=55.704407, lon.=26.086418, Alt.=165.748169m. Speed=0.108000m/h.</desc>
<speed>0.030000</speed>
</trkpt>
<trkpt lat="55.704407" lon="26.086418">
<ele>165.740356</ele>
<time>2010-07-17T19:06:35Z</time>
<desc>lat.=55.704407, lon.=26.086418, Alt.=165.740356m. Speed=0.036000m/h.</desc>
<speed>0.010000</speed>
</trkpt>
<trkpt lat="55.704407" lon="26.086418">
<ele>165.736450</ele>
<time>2010-07-17T19:06:36Z</time>
<desc>lat.=55.704407, lon.=26.086418, Alt.=165.736450m. Speed=0.108000m/h.</desc>
<speed>0.030000</speed>
</trkpt>
<trkpt lat="55.704407" lon="26.086418">
<ele>165.732544</ele>
<time>2010-07-17T19:06:37Z</time>
<desc>lat.=55.704407, lon.=26.086418, Alt.=165.732544m. Speed=0.000000m/h.</desc>
<speed>0.000000</speed>
</trkpt>
<trkpt lat="55.704407" lon="26.086418">
<ele>165.732544</ele>
<time>2010-07-17T19:06:38Z</time>
<desc>lat.=55.704407, lon.=26.086418, Alt.=165.732544m. Speed=0.036000m/h.</desc>
<speed>0.010000</speed>
</trkpt>
<trkpt lat="55.704407" lon="26.086418">
<ele>165.728638</ele>
<time>2010-07-17T19:06:39Z</time>
<desc>lat.=55.704407, lon.=26.086418, Alt.=165.728638m. Speed=0.072000m/h.</desc>
<speed>0.020000</speed>
</trkpt>
<trkpt lat="55.704407" lon="26.086418">
<ele>165.732544</ele>
<time>2010-07-17T19:06:40Z</time>
<desc>lat.=55.704407, lon.=26.086418, Alt.=165.732544m. Speed=0.072000m/h.</desc>
<speed>0.020000</speed>
</trkpt>
<trkpt lat="55.704407" lon="26.086418">
<ele>165.732544</ele>
<time>2010-07-17T19:06:41Z</time>
<desc>lat.=55.704407, lon.=26.086418, Alt.=165.732544m. Speed=0.036000m/h.</desc>
<speed>0.010000</speed>
</trkpt>
<trkpt lat="55.704407" lon="26.086418">
<ele>165.736450</ele>
<time>2010-07-17T19:06:42Z</time>
<desc>lat.=55.704407, lon.=26.086418, Alt.=165.736450m. Speed=0.072000m/h.</desc>
<speed>0.020000</speed>
</trkpt>
<trkpt lat="55.704407" lon="26.086418">
<ele>165.736450</ele>
<time>2010-07-17T19:06:43Z</time>
<desc>lat.=55.704407, lon.=26.086418, Alt.=165.736450m. Speed=0.000000m/h.</desc>
<speed>0.000000</speed>
</trkpt>
<trkpt lat="55.704407" lon="26.086418">
<ele>165.736450</ele>
<time>2010-07-17T19:06:44Z</time>
<desc>lat.=55.704407, lon.=26.086418, Alt.=165.736450m. Speed=0.072000m/h.</desc>
<speed>0.020000</speed>
</trkpt>
<trkpt lat="55.704407" lon="26.086418">
<ele>165.736450</ele>
<time>2010-07-17T19:06:45Z</time>
<desc>lat.=55.704407, lon.=26.086418, Alt.=165.736450m. Speed=0.072000m/h.</desc>
<speed>0.020000</speed>
</trkpt>
<trkpt lat="55.704407" lon="26.086418">
<ele>165.732544</ele>
<time>2010-07-17T19:06:46Z</time>
<desc>lat.=55.704407, lon.=26.086418, Alt.=165.732544m. Speed=0.036000m/h.</desc>
<speed>0.010000</speed>
</trkpt>
<trkpt lat="55.704407" lon="26.086418">
<ele>165.732544</ele>
<time>2010-07-17T19:06:47Z</time>
<desc>lat.=55.704407, lon.=26.086418, Alt.=165.732544m. Speed=0.108000m/h.</desc>
<speed>0.030000</speed>
</trkpt>
<trkpt lat="55.704407" lon="26.086418">
<ele>165.732544</ele>
<time>2010-07-17T19:06:48Z</time>
<desc>lat.=55.704407, lon.=26.086418, Alt.=165.732544m. Speed=0.036000m/h.</desc>
<speed>0.010000</speed>
</trkpt>
<trkpt lat="55.704407" lon="26.086418">
<ele>165.732544</ele>
<time>2010-07-17T19:06:49Z</time>
<desc>lat.=55.704407, lon.=26.086418, Alt.=165.732544m. Speed=0.072000m/h.</desc>
<speed>0.020000</speed>
</trkpt>
<trkpt lat="55.704407" lon="26.086418">
<ele>165.728638</ele>
<time>2010-07-17T19:06:50Z</time>
<desc>lat.=55.704407, lon.=26.086418, Alt.=165.728638m. Speed=0.108000m/h.</desc>
<speed>0.030000</speed>
</trkpt>
<trkpt lat="55.704407" lon="26.086418">
<ele>165.732544</ele>
<time>2010-07-17T19:06:51Z</time>
<desc>lat.=55.704407, lon.=26.086418, Alt.=165.732544m. Speed=0.072000m/h.</desc>
<speed>0.020000</speed>
</trkpt>
<trkpt lat="55.704407" lon="26.086418">
<ele>165.732544</ele>
<time>2010-07-17T19:06:52Z</time>
<desc>lat.=55.704407, lon.=26.086418, Alt.=165.732544m. Speed=0.108000m/h.</desc>
<speed>0.030000</speed>
</trkpt>
<trkpt lat="55.704407" lon="26.086418">
<ele>165.732544</ele>
<time>2010-07-17T19:06:53Z</time>
<desc>lat.=55.704407, lon.=26.086418, Alt.=165.732544m. Speed=0.000000m/h.</desc>
<speed>0.000000</speed>
</trkpt>
<trkpt lat="55.704407" lon="26.086420">
<ele>165.732544</ele>
<time>2010-07-17T19:06:54Z</time>
<desc>lat.=55.704407, lon.=26.086420, Alt.=165.732544m. Speed=0.072000m/h.</desc>
<speed>0.020000</speed>
</trkpt>
<trkpt lat="55.704407" lon="26.086420">
<ele>165.728638</ele>
<time>2010-07-17T19:06:55Z</time>
<desc>lat.=55.704407, lon.=26.086420, Alt.=165.728638m. Speed=0.108000m/h.</desc>
<speed>0.030000</speed>
</trkpt>
<trkpt lat="55.704407" lon="26.086420">
<ele>165.724731</ele>
<time>2010-07-17T19:06:56Z</time>
<desc>lat.=55.704407, lon.=26.086420, Alt.=165.724731m. Speed=0.036000m/h.</desc>
<speed>0.010000</speed>
</trkpt>
<trkpt lat="55.704407" lon="26.086420">
<ele>165.724731</ele>
<time>2010-07-17T19:06:57Z</time>
<desc>lat.=55.704407, lon.=26.086420, Alt.=165.724731m. Speed=0.108000m/h.</desc>
<speed>0.030000</speed>
</trkpt>
<trkpt lat="55.704407" lon="26.086420">
<ele>165.728638</ele>
<time>2010-07-17T19:06:58Z</time>
<desc>lat.=55.704407, lon.=26.086420, Alt.=165.728638m. Speed=0.108000m/h.</desc>
<speed>0.030000</speed>
</trkpt>
<trkpt lat="55.704407" lon="26.086420">
<ele>165.724731</ele>
<time>2010-07-17T19:06:59Z</time>
<desc>lat.=55.704407, lon.=26.086420, Alt.=165.724731m. Speed=0.036000m/h.</desc>
<speed>0.010000</speed>
</trkpt>
<trkpt lat="55.704407" lon="26.086420">
<ele>165.720825</ele>
<time>2010-07-17T19:07:00Z</time>
<desc>lat.=55.704407, lon.=26.086420, Alt.=165.720825m. Speed=0.000000m/h.</desc>
<speed>0.000000</speed>
</trkpt>
<trkpt lat="55.704407" lon="26.086420">
<ele>165.716919</ele>
<time>2010-07-17T19:07:01Z</time>
<desc>lat.=55.704407, lon.=26.086420, Alt.=165.716919m. Speed=0.108000m/h.</desc>
<speed>0.030000</speed>
</trkpt>
<trkpt lat="55.704407" lon="26.086420">
<ele>165.716919</ele>
<time>2010-07-17T19:07:02Z</time>
<desc>lat.=55.704407, lon.=26.086420, Alt.=165.716919m. Speed=0.000000m/h.</desc>
<speed>0.000000</speed>
</trkpt>
<trkpt lat="55.704407" lon="26.086420">
<ele>165.716919</ele>
<time>2010-07-17T19:07:03Z</time>
<desc>lat.=55.704407, lon.=26.086420, Alt.=165.716919m. Speed=0.072000m/h.</desc>
<speed>0.020000</speed>
</trkpt>
<trkpt lat="55.704407" lon="26.086420">
<ele>165.716919</ele>
<time>2010-07-17T19:07:04Z</time>
<desc>lat.=55.704407, lon.=26.086420, Alt.=165.716919m. Speed=0.036000m/h.</desc>
<speed>0.010000</speed>
</trkpt>
<trkpt lat="55.704407" lon="26.086420">
<ele>165.720825</ele>
<time>2010-07-17T19:07:05Z</time>
<desc>lat.=55.704407, lon.=26.086420, Alt.=165.720825m. Speed=0.144000m/h.</desc>
<speed>0.040000</speed>
</trkpt>
<trkpt lat="55.704407" lon="26.086420">
<ele>165.720825</ele>
<time>2010-07-17T19:07:06Z</time>
<desc>lat.=55.704407, lon.=26.086420, Alt.=165.720825m. Speed=0.072000m/h.</desc>
<speed>0.020000</speed>
</trkpt>
<trkpt lat="55.704407" lon="26.086422">
<ele>165.720825</ele>
<time>2010-07-17T19:07:07Z</time>
<desc>lat.=55.704407, lon.=26.086422, Alt.=165.720825m. Speed=0.108000m/h.</desc>
<speed>0.030000</speed>
</trkpt>
<trkpt lat="55.704407" lon="26.086422">
<ele>165.720825</ele>
<time>2010-07-17T19:07:08Z</time>
<desc>lat.=55.704407, lon.=26.086422, Alt.=165.720825m. Speed=0.036000m/h.</desc>
<speed>0.010000</speed>
</trkpt>
<trkpt lat="55.704407" lon="26.086422">
<ele>165.724731</ele>
<time>2010-07-17T19:07:09Z</time>
<desc>lat.=55.704407, lon.=26.086422, Alt.=165.724731m. Speed=0.108000m/h.</desc>
<speed>0.030000</speed>
</trkpt>
<trkpt lat="55.704407" lon="26.086422">
<ele>165.736450</ele>
<time>2010-07-17T19:07:10Z</time>
<desc>lat.=55.704407, lon.=26.086422, Alt.=165.736450m. Speed=0.000000m/h.</desc>
<speed>0.000000</speed>
</trkpt>
<trkpt lat="55.704407" lon="26.086422">
<ele>165.744263</ele>
<time>2010-07-17T19:07:11Z</time>
<desc>lat.=55.704407, lon.=26.086422, Alt.=165.744263m. Speed=0.000000m/h.</desc>
<speed>0.000000</speed>
</trkpt>
<trkpt lat="55.704407" lon="26.086420">
<ele>165.752075</ele>
<time>2010-07-17T19:07:12Z</time>
<desc>lat.=55.704407, lon.=26.086420, Alt.=165.752075m. Speed=0.144000m/h.</desc>
<speed>0.040000</speed>
</trkpt>
<trkpt lat="55.704407" lon="26.086420">
<ele>165.755981</ele>
<time>2010-07-17T19:07:13Z</time>
<desc>lat.=55.704407, lon.=26.086420, Alt.=165.755981m. Speed=0.072000m/h.</desc>
<speed>0.020000</speed>
</trkpt>
<trkpt lat="55.704407" lon="26.086422">
<ele>165.752075</ele>
<time>2010-07-17T19:07:14Z</time>
<desc>lat.=55.704407, lon.=26.086422, Alt.=165.752075m. Speed=0.072000m/h.</desc>
<speed>0.020000</speed>
</trkpt>
<trkpt lat="55.704407" lon="26.086422">
<ele>165.748169</ele>
<time>2010-07-17T19:07:15Z</time>
<desc>lat.=55.704407, lon.=26.086422, Alt.=165.748169m. Speed=0.036000m/h.</desc>
<speed>0.010000</speed>
</trkpt>
<trkpt lat="55.704407" lon="26.086422">
<ele>165.740356</ele>
<time>2010-07-17T19:07:16Z</time>
<desc>lat.=55.704407, lon.=26.086422, Alt.=165.740356m. Speed=0.036000m/h.</desc>
<speed>0.010000</speed>
</trkpt>
<trkpt lat="55.704407" lon="26.086422">
<ele>165.740356</ele>
<time>2010-07-17T19:07:17Z</time>
<desc>lat.=55.704407, lon.=26.086422, Alt.=165.740356m. Speed=0.036000m/h.</desc>
<speed>0.010000</speed>
</trkpt>
<trkpt lat="55.704407" lon="26.086422">
<ele>165.740356</ele>
<time>2010-07-17T19:07:18Z</time>
<desc>lat.=55.704407, lon.=26.086422, Alt.=165.740356m. Speed=0.036000m/h.</desc>
<speed>0.010000</speed>
</trkpt>
<trkpt lat="55.704407" lon="26.086422">
<ele>165.740356</ele>
<time>2010-07-17T19:07:19Z</time>
<desc>lat.=55.704407, lon.=26.086422, Alt.=165.740356m. Speed=0.036000m/h.</desc>
<speed>0.010000</speed>
</trkpt>
<trkpt lat="55.704407" lon="26.086422">
<ele>165.744263</ele>
<time>2010-07-17T19:07:20Z</time>
<desc>lat.=55.704407, lon.=26.086422, Alt.=165.744263m. Speed=0.072000m/h.</desc>
<speed>0.020000</speed>
</trkpt>
<trkpt lat="55.704407" lon="26.086422">
<ele>165.748169</ele>
<time>2010-07-17T19:07:21Z</time>
<desc>lat.=55.704407, lon.=26.086422, Alt.=165.748169m. Speed=0.036000m/h.</desc>
<speed>0.010000</speed>
</trkpt>
<trkpt lat="55.704407" lon="26.086422">
<ele>165.752075</ele>
<time>2010-07-17T19:07:22Z</time>
<desc>lat.=55.704407, lon.=26.086422, Alt.=165.752075m. Speed=0.036000m/h.</desc>
<speed>0.010000</speed>
</trkpt>
<trkpt lat="55.704407" lon="26.086422">
<ele>165.748169</ele>
<time>2010-07-17T19:07:23Z</time>
<desc>lat.=55.704407, lon.=26.086422, Alt.=165.748169m. Speed=0.036000m/h.</desc>
<speed>0.010000</speed>
</trkpt>
<trkpt lat="55.704407" lon="26.086422">
<ele>165.744263</ele>
<time>2010-07-17T19:07:24Z</time>
<desc>lat.=55.704407, lon.=26.086422, Alt.=165.744263m. Speed=0.144000m/h.</desc>
<speed>0.040000</speed>
</trkpt>
<trkpt lat="55.704407" lon="26.086422">
<ele>165.736450</ele>
<time>2010-07-17T19:07:25Z</time>
<desc>lat.=55.704407, lon.=26.086422, Alt.=165.736450m. Speed=0.108000m/h.</desc>
<speed>0.030000</speed>
</trkpt>
<trkpt lat="55.704407" lon="26.086422">
<ele>165.740356</ele>
<time>2010-07-17T19:07:26Z</time>
<desc>lat.=55.704407, lon.=26.086422, Alt.=165.740356m. Speed=0.000000m/h.</desc>
<speed>0.000000</speed>
</trkpt>
<trkpt lat="55.704407" lon="26.086422">
<ele>165.744263</ele>
<time>2010-07-17T19:07:27Z</time>
<desc>lat.=55.704407, lon.=26.086422, Alt.=165.744263m. Speed=0.072000m/h.</desc>
<speed>0.020000</speed>
</trkpt>
<trkpt lat="55.704407" lon="26.086422">
<ele>165.748169</ele>
<time>2010-07-17T19:07:28Z</time>
<desc>lat.=55.704407, lon.=26.086422, Alt.=165.748169m. Speed=0.072000m/h.</desc>
<speed>0.020000</speed>
</trkpt>
<trkpt lat="55.704407" lon="26.086422">
<ele>165.755981</ele>
<time>2010-07-17T19:07:29Z</time>
<desc>lat.=55.704407, lon.=26.086422, Alt.=165.755981m. Speed=0.072000m/h.</desc>
<speed>0.020000</speed>
</trkpt>
<trkpt lat="55.704407" lon="26.086422">
<ele>165.755981</ele>
<time>2010-07-17T19:07:30Z</time>
<desc>lat.=55.704407, lon.=26.086422, Alt.=165.755981m. Speed=0.000000m/h.</desc>
<speed>0.000000</speed>
</trkpt>
<trkpt lat="55.704407" lon="26.086422">
<ele>165.752075</ele>
<time>2010-07-17T19:07:31Z</time>
<desc>lat.=55.704407, lon.=26.086422, Alt.=165.752075m. Speed=0.000000m/h.</desc>
<speed>0.000000</speed>
</trkpt>
<trkpt lat="55.704407" lon="26.086422">
<ele>165.752075</ele>
<time>2010-07-17T19:07:32Z</time>
<desc>lat.=55.704407, lon.=26.086422, Alt.=165.752075m. Speed=0.036000m/h.</desc>
<speed>0.010000</speed>
</trkpt>
<trkpt lat="55.704407" lon="26.086422">
<ele>165.755981</ele>
<time>2010-07-17T19:07:33Z</time>
<desc>lat.=55.704407, lon.=26.086422, Alt.=165.755981m. Speed=0.072000m/h.</desc>
<speed>0.020000</speed>
</trkpt>
<trkpt lat="55.704407" lon="26.086422">
<ele>165.759888</ele>
<time>2010-07-17T19:07:34Z</time>
<desc>lat.=55.704407, lon.=26.086422, Alt.=165.759888m. Speed=0.000000m/h.</desc>
<speed>0.000000</speed>
</trkpt>
<trkpt lat="55.704407" lon="26.086422">
<ele>165.759888</ele>
<time>2010-07-17T19:07:35Z</time>
<desc>lat.=55.704407, lon.=26.086422, Alt.=165.759888m. Speed=0.000000m/h.</desc>
<speed>0.000000</speed>
</trkpt>
<trkpt lat="55.704407" lon="26.086422">
<ele>165.755981</ele>
<time>2010-07-17T19:07:36Z</time>
<desc>lat.=55.704407, lon.=26.086422, Alt.=165.755981m. Speed=0.036000m/h.</desc>
<speed>0.010000</speed>
</trkpt>
<trkpt lat="55.704407" lon="26.086422">
<ele>165.755981</ele>
<time>2010-07-17T19:07:37Z</time>
<desc>lat.=55.704407, lon.=26.086422, Alt.=165.755981m. Speed=0.072000m/h.</desc>
<speed>0.020000</speed>
</trkpt>
<trkpt lat="55.704407" lon="26.086422">
<ele>165.752075</ele>
<time>2010-07-17T19:07:38Z</time>
<desc>lat.=55.704407, lon.=26.086422, Alt.=165.752075m. Speed=0.000000m/h.</desc>
<speed>0.000000</speed>
</trkpt>
<trkpt lat="55.704407" lon="26.086422">
<ele>165.755981</ele>
<time>2010-07-17T19:07:39Z</time>
<desc>lat.=55.704407, lon.=26.086422, Alt.=165.755981m. Speed=0.000000m/h.</desc>
<speed>0.000000</speed>
</trkpt>
<trkpt lat="55.704407" lon="26.086422">
<ele>165.759888</ele>
<time>2010-07-17T19:07:40Z</time>
<desc>lat.=55.704407, lon.=26.086422, Alt.=165.759888m. Speed=0.000000m/h.</desc>
<speed>0.000000</speed>
</trkpt>
<trkpt lat="55.704407" lon="26.086422">
<ele>165.763794</ele>
<time>2010-07-17T19:07:41Z</time>
<desc>lat.=55.704407, lon.=26.086422, Alt.=165.763794m. Speed=0.036000m/h.</desc>
<speed>0.010000</speed>
</trkpt>
<trkpt lat="55.704407" lon="26.086422">
<ele>165.767700</ele>
<time>2010-07-17T19:07:42Z</time>
<desc>lat.=55.704407, lon.=26.086422, Alt.=165.767700m. Speed=0.072000m/h.</desc>
<speed>0.020000</speed>
</trkpt>
<trkpt lat="55.704407" lon="26.086422">
<ele>165.771606</ele>
<time>2010-07-17T19:07:43Z</time>
<desc>lat.=55.704407, lon.=26.086422, Alt.=165.771606m. Speed=0.000000m/h.</desc>
<speed>0.000000</speed>
</trkpt>
<trkpt lat="55.704407" lon="26.086420">
<ele>165.775513</ele>
<time>2010-07-17T19:07:44Z</time>
<desc>lat.=55.704407, lon.=26.086420, Alt.=165.775513m. Speed=0.000000m/h.</desc>
<speed>0.000000</speed>
</trkpt>
<trkpt lat="55.704407" lon="26.086420">
<ele>165.775513</ele>
<time>2010-07-17T19:07:45Z</time>
<desc>lat.=55.704407, lon.=26.086420, Alt.=165.775513m. Speed=0.036000m/h.</desc>
<speed>0.010000</speed>
</trkpt>
<trkpt lat="55.704407" lon="26.086420">
<ele>165.779419</ele>
<time>2010-07-17T19:07:46Z</time>
<desc>lat.=55.704407, lon.=26.086420, Alt.=165.779419m. Speed=0.036000m/h.</desc>
<speed>0.010000</speed>
</trkpt>
<trkpt lat="55.704407" lon="26.086420">
<ele>165.783325</ele>
<time>2010-07-17T19:07:47Z</time>
<desc>lat.=55.704407, lon.=26.086420, Alt.=165.783325m. Speed=0.000000m/h.</desc>
<speed>0.000000</speed>
</trkpt>
<trkpt lat="55.704407" lon="26.086420">
<ele>165.787231</ele>
<time>2010-07-17T19:07:48Z</time>
<desc>lat.=55.704407, lon.=26.086420, Alt.=165.787231m. Speed=0.072000m/h.</desc>
<speed>0.020000</speed>
</trkpt>
<trkpt lat="55.704407" lon="26.086420">
<ele>165.787231</ele>
<time>2010-07-17T19:07:49Z</time>
<desc>lat.=55.704407, lon.=26.086420, Alt.=165.787231m. Speed=0.000000m/h.</desc>
<speed>0.000000</speed>
</trkpt>
<trkpt lat="55.704407" lon="26.086420">
<ele>165.787231</ele>
<time>2010-07-17T19:07:50Z</time>
<desc>lat.=55.704407, lon.=26.086420, Alt.=165.787231m. Speed=0.000000m/h.</desc>
<speed>0.000000</speed>
</trkpt>
<trkpt lat="55.704407" lon="26.086420">
<ele>165.791138</ele>
<time>2010-07-17T19:07:51Z</time>
<desc>lat.=55.704407, lon.=26.086420, Alt.=165.791138m. Speed=0.036000m/h.</desc>
<speed>0.010000</speed>
</trkpt>
<trkpt lat="55.704407" lon="26.086420">
<ele>165.795044</ele>
<time>2010-07-17T19:07:52Z</time>
<desc>lat.=55.704407, lon.=26.086420, Alt.=165.795044m. Speed=0.000000m/h.</desc>
<speed>0.000000</speed>
</trkpt>
<trkpt lat="55.704407" lon="26.086420">
<ele>165.798950</ele>
<time>2010-07-17T19:07:53Z</time>
<desc>lat.=55.704407, lon.=26.086420, Alt.=165.798950m. Speed=0.000000m/h.</desc>
<speed>0.000000</speed>
</trkpt>
<trkpt lat="55.704407" lon="26.086420">
<ele>165.798950</ele>
<time>2010-07-17T19:07:54Z</time>
<desc>lat.=55.704407, lon.=26.086420, Alt.=165.798950m. Speed=0.036000m/h.</desc>
<speed>0.010000</speed>
</trkpt>
<trkpt lat="55.704407" lon="26.086420">
<ele>165.802856</ele>
<time>2010-07-17T19:07:55Z</time>
<desc>lat.=55.704407, lon.=26.086420, Alt.=165.802856m. Speed=0.036000m/h.</desc>
<speed>0.010000</speed>
</trkpt>
<trkpt lat="55.704407" lon="26.086420">
<ele>165.802856</ele>
<time>2010-07-17T19:07:56Z</time>
<desc>lat.=55.704407, lon.=26.086420, Alt.=165.802856m. Speed=0.000000m/h.</desc>
<speed>0.000000</speed>
</trkpt>
<trkpt lat="55.704407" lon="26.086420">
<ele>165.802856</ele>
<time>2010-07-17T19:07:57Z</time>
<desc>lat.=55.704407, lon.=26.086420, Alt.=165.802856m. Speed=0.036000m/h.</desc>
<speed>0.010000</speed>
</trkpt>
<trkpt lat="55.704407" lon="26.086420">
<ele>165.806763</ele>
<time>2010-07-17T19:07:58Z</time>
<desc>lat.=55.704407, lon.=26.086420, Alt.=165.806763m. Speed=0.000000m/h.</desc>
<speed>0.000000</speed>
</trkpt>
<trkpt lat="55.704407" lon="26.086420">
<ele>165.810669</ele>
<time>2010-07-17T19:07:59Z</time>
<desc>lat.=55.704407, lon.=26.086420, Alt.=165.810669m. Speed=0.000000m/h.</desc>
<speed>0.000000</speed>
</trkpt>
<trkpt lat="55.704407" lon="26.086420">
<ele>165.810669</ele>
<time>2010-07-17T19:08:00Z</time>
<desc>lat.=55.704407, lon.=26.086420, Alt.=165.810669m. Speed=0.036000m/h.</desc>
<speed>0.010000</speed>
</trkpt>
<trkpt lat="55.704407" lon="26.086420">
<ele>165.810669</ele>
<time>2010-07-17T19:08:01Z</time>
<desc>lat.=55.704407, lon.=26.086420, Alt.=165.810669m. Speed=0.000000m/h.</desc>
<speed>0.000000</speed>
</trkpt>
<trkpt lat="55.704407" lon="26.086420">
<ele>165.806763</ele>
<time>2010-07-17T19:08:02Z</time>
<desc>lat.=55.704407, lon.=26.086420, Alt.=165.806763m. Speed=0.000000m/h.</desc>
<speed>0.000000</speed>
</trkpt>
<trkpt lat="55.704407" lon="26.086420">
<ele>165.810669</ele>
<time>2010-07-17T19:08:03Z</time>
<desc>lat.=55.704407, lon.=26.086420, Alt.=165.810669m. Speed=0.000000m/h.</desc>
<speed>0.000000</speed>
</trkpt>
<trkpt lat="55.704407" lon="26.086420">
<ele>165.814575</ele>
<time>2010-07-17T19:08:04Z</time>
<desc>lat.=55.704407, lon.=26.086420, Alt.=165.814575m. Speed=0.000000m/h.</desc>
<speed>0.000000</speed>
</trkpt>
<trkpt lat="55.704407" lon="26.086420">
<ele>165.814575</ele>
<time>2010-07-17T19:08:05Z</time>
<desc>lat.=55.704407, lon.=26.086420, Alt.=165.814575m. Speed=0.000000m/h.</desc>
<speed>0.000000</speed>
</trkpt>
<trkpt lat="55.704407" lon="26.086420">
<ele>165.810669</ele>
<time>2010-07-17T19:08:06Z</time>
<desc>lat.=55.704407, lon.=26.086420, Alt.=165.810669m. Speed=0.000000m/h.</desc>
<speed>0.000000</speed>
</trkpt>
<trkpt lat="55.704407" lon="26.086420">
<ele>165.806763</ele>
<time>2010-07-17T19:08:07Z</time>
<desc>lat.=55.704407, lon.=26.086420, Alt.=165.806763m. Speed=0.000000m/h.</desc>
<speed>0.000000</speed>
</trkpt>
<trkpt lat="55.704407" lon="26.086420">
<ele>165.802856</ele>
<time>2010-07-17T19:08:08Z</time>
<desc>lat.=55.704407, lon.=26.086420, Alt.=165.802856m. Speed=0.072000m/h.</desc>
<speed>0.020000</speed>
</trkpt>
<trkpt lat="55.704407" lon="26.086420">
<ele>165.802856</ele>
<time>2010-07-17T19:08:09Z</time>
<desc>lat.=55.704407, lon.=26.086420, Alt.=165.802856m. Speed=0.000000m/h.</desc>
<speed>0.000000</speed>
</trkpt>
<trkpt lat="55.704407" lon="26.086420">
<ele>165.802856</ele>
<time>2010-07-17T19:08:10Z</time>
<desc>lat.=55.704407, lon.=26.086420, Alt.=165.802856m. Speed=0.000000m/h.</desc>
<speed>0.000000</speed>
</trkpt>
<trkpt lat="55.704407" lon="26.086420">
<ele>165.795044</ele>
<time>2010-07-17T19:08:11Z</time>
<desc>lat.=55.704407, lon.=26.086420, Alt.=165.795044m. Speed=0.036000m/h.</desc>
<speed>0.010000</speed>
</trkpt>
<trkpt lat="55.704407" lon="26.086418">
<ele>165.787231</ele>
<time>2010-07-17T19:08:12Z</time>
<desc>lat.=55.704407, lon.=26.086418, Alt.=165.787231m. Speed=0.036000m/h.</desc>
<speed>0.010000</speed>
</trkpt>
<trkpt lat="55.704407" lon="26.086418">
<ele>165.779419</ele>
<time>2010-07-17T19:08:13Z</time>
<desc>lat.=55.704407, lon.=26.086418, Alt.=165.779419m. Speed=0.000000m/h.</desc>
<speed>0.000000</speed>
</trkpt>
<trkpt lat="55.704407" lon="26.086418">
<ele>165.767700</ele>
<time>2010-07-17T19:08:14Z</time>
<desc>lat.=55.704407, lon.=26.086418, Alt.=165.767700m. Speed=0.000000m/h.</desc>
<speed>0.000000</speed>
</trkpt>
<trkpt lat="55.704407" lon="26.086418">
<ele>165.759888</ele>
<time>2010-07-17T19:08:15Z</time>
<desc>lat.=55.704407, lon.=26.086418, Alt.=165.759888m. Speed=0.036000m/h.</desc>
<speed>0.010000</speed>
</trkpt>
<trkpt lat="55.704407" lon="26.086418">
<ele>165.755981</ele>
<time>2010-07-17T19:08:16Z</time>
<desc>lat.=55.704407, lon.=26.086418, Alt.=165.755981m. Speed=0.072000m/h.</desc>
<speed>0.020000</speed>
</trkpt>
<trkpt lat="55.704407" lon="26.086418">
<ele>165.759888</ele>
<time>2010-07-17T19:08:17Z</time>
<desc>lat.=55.704407, lon.=26.086418, Alt.=165.759888m. Speed=0.000000m/h.</desc>
<speed>0.000000</speed>
</trkpt>
<trkpt lat="55.704407" lon="26.086418">
<ele>165.759888</ele>
<time>2010-07-17T19:08:18Z</time>
<desc>lat.=55.704407, lon.=26.086418, Alt.=165.759888m. Speed=0.000000m/h.</desc>
<speed>0.000000</speed>
</trkpt>
<trkpt lat="55.704407" lon="26.086418">
<ele>165.763794</ele>
<time>2010-07-17T19:08:19Z</time>
<desc>lat.=55.704407, lon.=26.086418, Alt.=165.763794m. Speed=0.000000m/h.</desc>
<speed>0.000000</speed>
</trkpt>
<trkpt lat="55.704407" lon="26.086418">
<ele>165.755981</ele>
<time>2010-07-17T19:08:20Z</time>
<desc>lat.=55.704407, lon.=26.086418, Alt.=165.755981m. Speed=0.036000m/h.</desc>
<speed>0.010000</speed>
</trkpt>
<trkpt lat="55.704407" lon="26.086418">
<ele>165.755981</ele>
<time>2010-07-17T19:08:21Z</time>
<desc>lat.=55.704407, lon.=26.086418, Alt.=165.755981m. Speed=0.036000m/h.</desc>
<speed>0.010000</speed>
</trkpt>
<trkpt lat="55.704407" lon="26.086418">
<ele>165.748169</ele>
<time>2010-07-17T19:08:22Z</time>
<desc>lat.=55.704407, lon.=26.086418, Alt.=165.748169m. Speed=0.036000m/h.</desc>
<speed>0.010000</speed>
</trkpt>
<trkpt lat="55.704407" lon="26.086418">
<ele>165.748169</ele>
<time>2010-07-17T19:08:23Z</time>
<desc>lat.=55.704407, lon.=26.086418, Alt.=165.748169m. Speed=0.000000m/h.</desc>
<speed>0.000000</speed>
</trkpt>
<trkpt lat="55.704407" lon="26.086418">
<ele>165.748169</ele>
<time>2010-07-17T19:08:24Z</time>
<desc>lat.=55.704407, lon.=26.086418, Alt.=165.748169m. Speed=0.000000m/h.</desc>
<speed>0.000000</speed>
</trkpt>
<trkpt lat="55.704407" lon="26.086418">
<ele>165.744263</ele>
<time>2010-07-17T19:08:25Z</time>
<desc>lat.=55.704407, lon.=26.086418, Alt.=165.744263m. Speed=0.036000m/h.</desc>
<speed>0.010000</speed>
</trkpt>
<trkpt lat="55.704407" lon="26.086418">
<ele>165.748169</ele>
<time>2010-07-17T19:08:26Z</time>
<desc>lat.=55.704407, lon.=26.086418, Alt.=165.748169m. Speed=0.072000m/h.</desc>
<speed>0.020000</speed>
</trkpt>
<trkpt lat="55.704407" lon="26.086418">
<ele>165.740356</ele>
<time>2010-07-17T19:08:27Z</time>
<desc>lat.=55.704407, lon.=26.086418, Alt.=165.740356m. Speed=0.036000m/h.</desc>
<speed>0.010000</speed>
</trkpt>
<trkpt lat="55.704407" lon="26.086418">
<ele>165.740356</ele>
<time>2010-07-17T19:08:28Z</time>
<desc>lat.=55.704407, lon.=26.086418, Alt.=165.740356m. Speed=0.000000m/h.</desc>
<speed>0.000000</speed>
</trkpt>
<trkpt lat="55.704407" lon="26.086418">
<ele>165.740356</ele>
<time>2010-07-17T19:08:29Z</time>
<desc>lat.=55.704407, lon.=26.086418, Alt.=165.740356m. Speed=0.036000m/h.</desc>
<speed>0.010000</speed>
</trkpt>
<trkpt lat="55.704407" lon="26.086418">
<ele>165.740356</ele>
<time>2010-07-17T19:08:30Z</time>
<desc>lat.=55.704407, lon.=26.086418, Alt.=165.740356m. Speed=0.036000m/h.</desc>
<speed>0.010000</speed>
</trkpt>
<trkpt lat="55.704407" lon="26.086418">
<ele>165.744263</ele>
<time>2010-07-17T19:08:31Z</time>
<desc>lat.=55.704407, lon.=26.086418, Alt.=165.744263m. Speed=0.072000m/h.</desc>
<speed>0.020000</speed>
</trkpt>
<trkpt lat="55.704407" lon="26.086418">
<ele>165.748169</ele>
<time>2010-07-17T19:08:32Z</time>
<desc>lat.=55.704407, lon.=26.086418, Alt.=165.748169m. Speed=0.000000m/h.</desc>
<speed>0.000000</speed>
</trkpt>
<trkpt lat="55.704407" lon="26.086418">
<ele>165.752075</ele>
<time>2010-07-17T19:08:33Z</time>
<desc>lat.=55.704407, lon.=26.086418, Alt.=165.752075m. Speed=0.072000m/h.</desc>
<speed>0.020000</speed>
</trkpt>
<trkpt lat="55.704407" lon="26.086418">
<ele>165.763794</ele>
<time>2010-07-17T19:08:34Z</time>
<desc>lat.=55.704407, lon.=26.086418, Alt.=165.763794m. Speed=0.000000m/h.</desc>
<speed>0.000000</speed>
</trkpt>
<trkpt lat="55.704407" lon="26.086418">
<ele>165.763794</ele>
<time>2010-07-17T19:08:35Z</time>
<desc>lat.=55.704407, lon.=26.086418, Alt.=165.763794m. Speed=0.000000m/h.</desc>
<speed>0.000000</speed>
</trkpt>
<trkpt lat="55.704407" lon="26.086418">
<ele>165.767700</ele>
<time>2010-07-17T19:08:36Z</time>
<desc>lat.=55.704407, lon.=26.086418, Alt.=165.767700m. Speed=0.036000m/h.</desc>
<speed>0.010000</speed>
</trkpt>
<trkpt lat="55.704407" lon="26.086418">
<ele>165.763794</ele>
<time>2010-07-17T19:08:37Z</time>
<desc>lat.=55.704407, lon.=26.086418, Alt.=165.763794m. Speed=0.036000m/h.</desc>
<speed>0.010000</speed>
</trkpt>
<trkpt lat="55.704407" lon="26.086418">
<ele>165.763794</ele>
<time>2010-07-17T19:08:38Z</time>
<desc>lat.=55.704407, lon.=26.086418, Alt.=165.763794m. Speed=0.072000m/h.</desc>
<speed>0.020000</speed>
</trkpt>
<trkpt lat="55.704407" lon="26.086420">
<ele>165.767700</ele>
<time>2010-07-17T19:08:39Z</time>
<desc>lat.=55.704407, lon.=26.086420, Alt.=165.767700m. Speed=0.108000m/h.</desc>
<speed>0.030000</speed>
</trkpt>
<trkpt lat="55.704407" lon="26.086420">
<ele>165.763794</ele>
<time>2010-07-17T19:08:40Z</time>
<desc>lat.=55.704407, lon.=26.086420, Alt.=165.763794m. Speed=0.000000m/h.</desc>
<speed>0.000000</speed>
</trkpt>
<trkpt lat="55.704407" lon="26.086420">
<ele>165.755981</ele>
<time>2010-07-17T19:08:41Z</time>
<desc>lat.=55.704407, lon.=26.086420, Alt.=165.755981m. Speed=0.000000m/h.</desc>
<speed>0.000000</speed>
</trkpt>
<trkpt lat="55.704407" lon="26.086420">
<ele>165.755981</ele>
<time>2010-07-17T19:08:42Z</time>
<desc>lat.=55.704407, lon.=26.086420, Alt.=165.755981m. Speed=0.036000m/h.</desc>
<speed>0.010000</speed>
</trkpt>
<trkpt lat="55.704407" lon="26.086420">
<ele>165.759888</ele>
<time>2010-07-17T19:08:43Z</time>
<desc>lat.=55.704407, lon.=26.086420, Alt.=165.759888m. Speed=0.180000m/h.</desc>
<speed>0.050000</speed>
</trkpt>
<trkpt lat="55.704407" lon="26.086420">
<ele>165.767700</ele>
<time>2010-07-17T19:08:44Z</time>
<desc>lat.=55.704407, lon.=26.086420, Alt.=165.767700m. Speed=0.036000m/h.</desc>
<speed>0.010000</speed>
</trkpt>
<trkpt lat="55.704407" lon="26.086420">
<ele>165.775513</ele>
<time>2010-07-17T19:08:45Z</time>
<desc>lat.=55.704407, lon.=26.086420, Alt.=165.775513m. Speed=0.036000m/h.</desc>
<speed>0.010000</speed>
</trkpt>
<trkpt lat="55.704407" lon="26.086420">
<ele>165.783325</ele>
<time>2010-07-17T19:08:46Z</time>
<desc>lat.=55.704407, lon.=26.086420, Alt.=165.783325m. Speed=0.000000m/h.</desc>
<speed>0.000000</speed>
</trkpt>
<trkpt lat="55.704407" lon="26.086420">
<ele>165.783325</ele>
<time>2010-07-17T19:08:47Z</time>
<desc>lat.=55.704407, lon.=26.086420, Alt.=165.783325m. Speed=0.000000m/h.</desc>
<speed>0.000000</speed>
</trkpt>
<trkpt lat="55.704407" lon="26.086420">
<ele>165.787231</ele>
<time>2010-07-17T19:08:48Z</time>
<desc>lat.=55.704407, lon.=26.086420, Alt.=165.787231m. Speed=0.000000m/h.</desc>
<speed>0.000000</speed>
</trkpt>
<trkpt lat="55.704407" lon="26.086420">
<ele>165.795044</ele>
<time>2010-07-17T19:08:49Z</time>
<desc>lat.=55.704407, lon.=26.086420, Alt.=165.795044m. Speed=0.000000m/h.</desc>
<speed>0.000000</speed>
</trkpt>
<trkpt lat="55.704407" lon="26.086420">
<ele>165.802856</ele>
<time>2010-07-17T19:08:50Z</time>
<desc>lat.=55.704407, lon.=26.086420, Alt.=165.802856m. Speed=0.000000m/h.</desc>
<speed>0.000000</speed>
</trkpt>
<trkpt lat="55.704407" lon="26.086420">
<ele>165.806763</ele>
<time>2010-07-17T19:08:51Z</time>
<desc>lat.=55.704407, lon.=26.086420, Alt.=165.806763m. Speed=0.000000m/h.</desc>
<speed>0.000000</speed>
</trkpt>
<trkpt lat="55.704407" lon="26.086420">
<ele>165.810669</ele>
<time>2010-07-17T19:08:52Z</time>
<desc>lat.=55.704407, lon.=26.086420, Alt.=165.810669m. Speed=0.036000m/h.</desc>
<speed>0.010000</speed>
</trkpt>
<trkpt lat="55.704407" lon="26.086420">
<ele>165.806763</ele>
<time>2010-07-17T19:08:53Z</time>
<desc>lat.=55.704407, lon.=26.086420, Alt.=165.806763m. Speed=0.000000m/h.</desc>
<speed>0.000000</speed>
</trkpt>
<trkpt lat="55.704407" lon="26.086420">
<ele>165.802856</ele>
<time>2010-07-17T19:08:54Z</time>
<desc>lat.=55.704407, lon.=26.086420, Alt.=165.802856m. Speed=0.000000m/h.</desc>
<speed>0.000000</speed>
</trkpt>
<trkpt lat="55.704407" lon="26.086420">
<ele>165.802856</ele>
<time>2010-07-17T19:08:55Z</time>
<desc>lat.=55.704407, lon.=26.086420, Alt.=165.802856m. Speed=0.072000m/h.</desc>
<speed>0.020000</speed>
</trkpt>
<trkpt lat="55.704407" lon="26.086420">
<ele>165.814575</ele>
<time>2010-07-17T19:08:56Z</time>
<desc>lat.=55.704407, lon.=26.086420, Alt.=165.814575m. Speed=0.036000m/h.</desc>
<speed>0.010000</speed>
</trkpt>
<trkpt lat="55.704407" lon="26.086420">
<ele>165.822388</ele>
<time>2010-07-17T19:08:57Z</time>
<desc>lat.=55.704407, lon.=26.086420, Alt.=165.822388m. Speed=0.000000m/h.</desc>
<speed>0.000000</speed>
</trkpt>
<trkpt lat="55.704407" lon="26.086420">
<ele>165.834106</ele>
<time>2010-07-17T19:08:58Z</time>
<desc>lat.=55.704407, lon.=26.086420, Alt.=165.834106m. Speed=0.000000m/h.</desc>
<speed>0.000000</speed>
</trkpt>
<trkpt lat="55.704407" lon="26.086420">
<ele>165.841919</ele>
<time>2010-07-17T19:08:59Z</time>
<desc>lat.=55.704407, lon.=26.086420, Alt.=165.841919m. Speed=0.036000m/h.</desc>
<speed>0.010000</speed>
</trkpt>
<trkpt lat="55.704407" lon="26.086420">
<ele>165.849731</ele>
<time>2010-07-17T19:09:00Z</time>
<desc>lat.=55.704407, lon.=26.086420, Alt.=165.849731m. Speed=0.108000m/h.</desc>
<speed>0.030000</speed>
</trkpt>
<trkpt lat="55.704407" lon="26.086420">
<ele>165.853638</ele>
<time>2010-07-17T19:09:01Z</time>
<desc>lat.=55.704407, lon.=26.086420, Alt.=165.853638m. Speed=0.000000m/h.</desc>
<speed>0.000000</speed>
</trkpt>
<trkpt lat="55.704407" lon="26.086420">
<ele>165.861450</ele>
<time>2010-07-17T19:09:02Z</time>
<desc>lat.=55.704407, lon.=26.086420, Alt.=165.861450m. Speed=0.072000m/h.</desc>
<speed>0.020000</speed>
</trkpt>
<trkpt lat="55.704407" lon="26.086420">
<ele>165.869263</ele>
<time>2010-07-17T19:09:03Z</time>
<desc>lat.=55.704407, lon.=26.086420, Alt.=165.869263m. Speed=0.036000m/h.</desc>
<speed>0.010000</speed>
</trkpt>
<trkpt lat="55.704407" lon="26.086420">
<ele>165.884888</ele>
<time>2010-07-17T19:09:04Z</time>
<desc>lat.=55.704407, lon.=26.086420, Alt.=165.884888m. Speed=0.000000m/h.</desc>
<speed>0.000000</speed>
</trkpt>
<trkpt lat="55.704407" lon="26.086420">
<ele>165.892700</ele>
<time>2010-07-17T19:09:05Z</time>
<desc>lat.=55.704407, lon.=26.086420, Alt.=165.892700m. Speed=0.036000m/h.</desc>
<speed>0.010000</speed>
</trkpt>
<trkpt lat="55.704407" lon="26.086420">
<ele>165.900513</ele>
<time>2010-07-17T19:09:06Z</time>
<desc>lat.=55.704407, lon.=26.086420, Alt.=165.900513m. Speed=0.036000m/h.</desc>
<speed>0.010000</speed>
</trkpt>
<trkpt lat="55.704407" lon="26.086420">
<ele>165.912231</ele>
<time>2010-07-17T19:09:07Z</time>
<desc>lat.=55.704407, lon.=26.086420, Alt.=165.912231m. Speed=0.036000m/h.</desc>
<speed>0.010000</speed>
</trkpt>
<trkpt lat="55.704407" lon="26.086420">
<ele>165.927856</ele>
<time>2010-07-17T19:09:08Z</time>
<desc>lat.=55.704407, lon.=26.086420, Alt.=165.927856m. Speed=0.036000m/h.</desc>
<speed>0.010000</speed>
</trkpt>
<trkpt lat="55.704407" lon="26.086420">
<ele>165.939575</ele>
<time>2010-07-17T19:09:09Z</time>
<desc>lat.=55.704407, lon.=26.086420, Alt.=165.939575m. Speed=0.000000m/h.</desc>
<speed>0.000000</speed>
</trkpt>
<trkpt lat="55.704407" lon="26.086420">
<ele>165.947388</ele>
<time>2010-07-17T19:09:10Z</time>
<desc>lat.=55.704407, lon.=26.086420, Alt.=165.947388m. Speed=0.036000m/h.</desc>
<speed>0.010000</speed>
</trkpt>
<trkpt lat="55.704407" lon="26.086420">
<ele>165.955200</ele>
<time>2010-07-17T19:09:11Z</time>
<desc>lat.=55.704407, lon.=26.086420, Alt.=165.955200m. Speed=0.072000m/h.</desc>
<speed>0.020000</speed>
</trkpt>
<trkpt lat="55.704407" lon="26.086420">
<ele>165.966919</ele>
<time>2010-07-17T19:09:12Z</time>
<desc>lat.=55.704407, lon.=26.086420, Alt.=165.966919m. Speed=0.000000m/h.</desc>
<speed>0.000000</speed>
</trkpt>
<trkpt lat="55.704407" lon="26.086420">
<ele>165.974731</ele>
<time>2010-07-17T19:09:13Z</time>
<desc>lat.=55.704407, lon.=26.086420, Alt.=165.974731m. Speed=0.000000m/h.</desc>
<speed>0.000000</speed>
</trkpt>
<trkpt lat="55.704407" lon="26.086420">
<ele>165.998169</ele>
<time>2010-07-17T19:09:14Z</time>
<desc>lat.=55.704407, lon.=26.086420, Alt.=165.998169m. Speed=0.108000m/h.</desc>
<speed>0.030000</speed>
</trkpt>
<trkpt lat="55.704407" lon="26.086420">
<ele>166.009888</ele>
<time>2010-07-17T19:09:15Z</time>
<desc>lat.=55.704407, lon.=26.086420, Alt.=166.009888m. Speed=0.108000m/h.</desc>
<speed>0.030000</speed>
</trkpt>
<trkpt lat="55.704407" lon="26.086420">
<ele>166.013794</ele>
<time>2010-07-17T19:09:16Z</time>
<desc>lat.=55.704407, lon.=26.086420, Alt.=166.013794m. Speed=0.036000m/h.</desc>
<speed>0.010000</speed>
</trkpt>
<trkpt lat="55.704407" lon="26.086420">
<ele>166.025513</ele>
<time>2010-07-17T19:09:17Z</time>
<desc>lat.=55.704407, lon.=26.086420, Alt.=166.025513m. Speed=0.036000m/h.</desc>
<speed>0.010000</speed>
</trkpt>
<trkpt lat="55.704407" lon="26.086420">
<ele>166.033325</ele>
<time>2010-07-17T19:09:18Z</time>
<desc>lat.=55.704407, lon.=26.086420, Alt.=166.033325m. Speed=0.000000m/h.</desc>
<speed>0.000000</speed>
</trkpt>
<trkpt lat="55.704407" lon="26.086420">
<ele>166.045044</ele>
<time>2010-07-17T19:09:19Z</time>
<desc>lat.=55.704407, lon.=26.086420, Alt.=166.045044m. Speed=0.108000m/h.</desc>
<speed>0.030000</speed>
</trkpt>
<trkpt lat="55.704407" lon="26.086420">
<ele>166.060669</ele>
<time>2010-07-17T19:09:20Z</time>
<desc>lat.=55.704407, lon.=26.086420, Alt.=166.060669m. Speed=0.000000m/h.</desc>
<speed>0.000000</speed>
</trkpt>
<trkpt lat="55.704407" lon="26.086420">
<ele>166.072388</ele>
<time>2010-07-17T19:09:21Z</time>
<desc>lat.=55.704407, lon.=26.086420, Alt.=166.072388m. Speed=0.036000m/h.</desc>
<speed>0.010000</speed>
</trkpt>
<trkpt lat="55.704407" lon="26.086420">
<ele>166.080200</ele>
<time>2010-07-17T19:09:22Z</time>
<desc>lat.=55.704407, lon.=26.086420, Alt.=166.080200m. Speed=0.036000m/h.</desc>
<speed>0.010000</speed>
</trkpt>
<trkpt lat="55.704407" lon="26.086420">
<ele>166.088013</ele>
<time>2010-07-17T19:09:23Z</time>
<desc>lat.=55.704407, lon.=26.086420, Alt.=166.088013m. Speed=0.108000m/h.</desc>
<speed>0.030000</speed>
</trkpt>
<trkpt lat="55.704407" lon="26.086420">
<ele>166.095825</ele>
<time>2010-07-17T19:09:24Z</time>
<desc>lat.=55.704407, lon.=26.086420, Alt.=166.095825m. Speed=0.000000m/h.</desc>
<speed>0.000000</speed>
</trkpt>
<trkpt lat="55.704407" lon="26.086420">
<ele>166.099731</ele>
<time>2010-07-17T19:09:25Z</time>
<desc>lat.=55.704407, lon.=26.086420, Alt.=166.099731m. Speed=0.036000m/h.</desc>
<speed>0.010000</speed>
</trkpt>
<trkpt lat="55.704411" lon="26.086420">
<ele>166.103638</ele>
<time>2010-07-17T19:09:26Z</time>
<desc>lat.=55.704411, lon.=26.086420, Alt.=166.103638m. Speed=0.000000m/h.</desc>
<speed>0.000000</speed>
</trkpt>
<trkpt lat="55.704411" lon="26.086420">
<ele>166.111450</ele>
<time>2010-07-17T19:09:27Z</time>
<desc>lat.=55.704411, lon.=26.086420, Alt.=166.111450m. Speed=0.000000m/h.</desc>
<speed>0.000000</speed>
</trkpt>
<trkpt lat="55.704411" lon="26.086420">
<ele>166.115356</ele>
<time>2010-07-17T19:09:28Z</time>
<desc>lat.=55.704411, lon.=26.086420, Alt.=166.115356m. Speed=0.000000m/h.</desc>
<speed>0.000000</speed>
</trkpt>
<trkpt lat="55.704411" lon="26.086420">
<ele>166.115356</ele>
<time>2010-07-17T19:09:29Z</time>
<desc>lat.=55.704411, lon.=26.086420, Alt.=166.115356m. Speed=0.072000m/h.</desc>
<speed>0.020000</speed>
</trkpt>
<trkpt lat="55.704411" lon="26.086420">
<ele>166.119263</ele>
<time>2010-07-17T19:09:30Z</time>
<desc>lat.=55.704411, lon.=26.086420, Alt.=166.119263m. Speed=0.000000m/h.</desc>
<speed>0.000000</speed>
</trkpt>
<trkpt lat="55.704411" lon="26.086420">
<ele>166.127075</ele>
<time>2010-07-17T19:09:31Z</time>
<desc>lat.=55.704411, lon.=26.086420, Alt.=166.127075m. Speed=0.036000m/h.</desc>
<speed>0.010000</speed>
</trkpt>
<trkpt lat="55.704411" lon="26.086418">
<ele>166.130981</ele>
<time>2010-07-17T19:09:32Z</time>
<desc>lat.=55.704411, lon.=26.086418, Alt.=166.130981m. Speed=0.000000m/h.</desc>
<speed>0.000000</speed>
</trkpt>
<trkpt lat="55.704411" lon="26.086418">
<ele>166.130981</ele>
<time>2010-07-17T19:09:33Z</time>
<desc>lat.=55.704411, lon.=26.086418, Alt.=166.130981m. Speed=0.000000m/h.</desc>
<speed>0.000000</speed>
</trkpt>
<trkpt lat="55.704411" lon="26.086418">
<ele>166.130981</ele>
<time>2010-07-17T19:09:34Z</time>
<desc>lat.=55.704411, lon.=26.086418, Alt.=166.130981m. Speed=0.000000m/h.</desc>
<speed>0.000000</speed>
</trkpt>
<trkpt lat="55.704411" lon="26.086418">
<ele>166.130981</ele>
<time>2010-07-17T19:09:35Z</time>
<desc>lat.=55.704411, lon.=26.086418, Alt.=166.130981m. Speed=0.036000m/h.</desc>
<speed>0.010000</speed>
</trkpt>
<trkpt lat="55.704411" lon="26.086418">
<ele>166.130981</ele>
<time>2010-07-17T19:09:36Z</time>
<desc>lat.=55.704411, lon.=26.086418, Alt.=166.130981m. Speed=0.036000m/h.</desc>
<speed>0.010000</speed>
</trkpt>
<trkpt lat="55.704411" lon="26.086418">
<ele>166.130981</ele>
<time>2010-07-17T19:09:37Z</time>
<desc>lat.=55.704411, lon.=26.086418, Alt.=166.130981m. Speed=0.072000m/h.</desc>
<speed>0.020000</speed>
</trkpt>
<trkpt lat="55.704411" lon="26.086418">
<ele>166.134888</ele>
<time>2010-07-17T19:09:38Z</time>
<desc>lat.=55.704411, lon.=26.086418, Alt.=166.134888m. Speed=0.000000m/h.</desc>
<speed>0.000000</speed>
</trkpt>
<trkpt lat="55.704411" lon="26.086418">
<ele>166.138794</ele>
<time>2010-07-17T19:09:39Z</time>
<desc>lat.=55.704411, lon.=26.086418, Alt.=166.138794m. Speed=0.036000m/h.</desc>
<speed>0.010000</speed>
</trkpt>
<trkpt lat="55.704411" lon="26.086418">
<ele>166.142700</ele>
<time>2010-07-17T19:09:40Z</time>
<desc>lat.=55.704411, lon.=26.086418, Alt.=166.142700m. Speed=0.108000m/h.</desc>
<speed>0.030000</speed>
</trkpt>
<trkpt lat="55.704411" lon="26.086418">
<ele>166.146606</ele>
<time>2010-07-17T19:09:41Z</time>
<desc>lat.=55.704411, lon.=26.086418, Alt.=166.146606m. Speed=0.036000m/h.</desc>
<speed>0.010000</speed>
</trkpt>
<trkpt lat="55.704411" lon="26.086418">
<ele>166.150513</ele>
<time>2010-07-17T19:09:42Z</time>
<desc>lat.=55.704411, lon.=26.086418, Alt.=166.150513m. Speed=0.000000m/h.</desc>
<speed>0.000000</speed>
</trkpt>
<trkpt lat="55.704411" lon="26.086418">
<ele>166.154419</ele>
<time>2010-07-17T19:09:43Z</time>
<desc>lat.=55.704411, lon.=26.086418, Alt.=166.154419m. Speed=0.108000m/h.</desc>
<speed>0.030000</speed>
</trkpt>
<trkpt lat="55.704411" lon="26.086418">
<ele>166.158325</ele>
<time>2010-07-17T19:09:44Z</time>
<desc>lat.=55.704411, lon.=26.086418, Alt.=166.158325m. Speed=0.036000m/h.</desc>
<speed>0.010000</speed>
</trkpt>
<trkpt lat="55.704411" lon="26.086418">
<ele>166.162231</ele>
<time>2010-07-17T19:09:45Z</time>
<desc>lat.=55.704411, lon.=26.086418, Alt.=166.162231m. Speed=0.036000m/h.</desc>
<speed>0.010000</speed>
</trkpt>
<trkpt lat="55.704411" lon="26.086418">
<ele>166.170044</ele>
<time>2010-07-17T19:09:46Z</time>
<desc>lat.=55.704411, lon.=26.086418, Alt.=166.170044m. Speed=0.000000m/h.</desc>
<speed>0.000000</speed>
</trkpt>
<trkpt lat="55.704411" lon="26.086418">
<ele>166.173950</ele>
<time>2010-07-17T19:09:47Z</time>
<desc>lat.=55.704411, lon.=26.086418, Alt.=166.173950m. Speed=0.000000m/h.</desc>
<speed>0.000000</speed>
</trkpt>
<trkpt lat="55.704411" lon="26.086418">
<ele>166.177856</ele>
<time>2010-07-17T19:09:48Z</time>
<desc>lat.=55.704411, lon.=26.086418, Alt.=166.177856m. Speed=0.036000m/h.</desc>
<speed>0.010000</speed>
</trkpt>
<trkpt lat="55.704411" lon="26.086418">
<ele>166.177856</ele>
<time>2010-07-17T19:09:49Z</time>
<desc>lat.=55.704411, lon.=26.086418, Alt.=166.177856m. Speed=0.000000m/h.</desc>
<speed>0.000000</speed>
</trkpt>
<trkpt lat="55.704411" lon="26.086418">
<ele>166.181763</ele>
<time>2010-07-17T19:09:50Z</time>
<desc>lat.=55.704411, lon.=26.086418, Alt.=166.181763m. Speed=0.072000m/h.</desc>
<speed>0.020000</speed>
</trkpt>
<trkpt lat="55.704411" lon="26.086418">
<ele>166.181763</ele>
<time>2010-07-17T19:09:51Z</time>
<desc>lat.=55.704411, lon.=26.086418, Alt.=166.181763m. Speed=0.108000m/h.</desc>
<speed>0.030000</speed>
</trkpt>
<trkpt lat="55.704411" lon="26.086418">
<ele>166.181763</ele>
<time>2010-07-17T19:09:52Z</time>
<desc>lat.=55.704411, lon.=26.086418, Alt.=166.181763m. Speed=0.036000m/h.</desc>
<speed>0.010000</speed>
</trkpt>
<trkpt lat="55.704411" lon="26.086418">
<ele>166.185669</ele>
<time>2010-07-17T19:09:53Z</time>
<desc>lat.=55.704411, lon.=26.086418, Alt.=166.185669m. Speed=0.036000m/h.</desc>
<speed>0.010000</speed>
</trkpt>
<trkpt lat="55.704411" lon="26.086418">
<ele>166.181763</ele>
<time>2010-07-17T19:09:54Z</time>
<desc>lat.=55.704411, lon.=26.086418, Alt.=166.181763m. Speed=0.036000m/h.</desc>
<speed>0.010000</speed>
</trkpt>
<trkpt lat="55.704411" lon="26.086418">
<ele>166.189575</ele>
<time>2010-07-17T19:09:55Z</time>
<desc>lat.=55.704411, lon.=26.086418, Alt.=166.189575m. Speed=0.144000m/h.</desc>
<speed>0.040000</speed>
</trkpt>
<trkpt lat="55.704411" lon="26.086418">
<ele>166.185669</ele>
<time>2010-07-17T19:09:56Z</time>
<desc>lat.=55.704411, lon.=26.086418, Alt.=166.185669m. Speed=0.036000m/h.</desc>
<speed>0.010000</speed>
</trkpt>
<trkpt lat="55.704411" lon="26.086418">
<ele>166.181763</ele>
<time>2010-07-17T19:09:57Z</time>
<desc>lat.=55.704411, lon.=26.086418, Alt.=166.181763m. Speed=0.108000m/h.</desc>
<speed>0.030000</speed>
</trkpt>
<trkpt lat="55.704411" lon="26.086418">
<ele>166.181763</ele>
<time>2010-07-17T19:09:58Z</time>
<desc>lat.=55.704411, lon.=26.086418, Alt.=166.181763m. Speed=0.072000m/h.</desc>
<speed>0.020000</speed>
</trkpt>
<trkpt lat="55.704411" lon="26.086418">
<ele>166.181763</ele>
<time>2010-07-17T19:09:59Z</time>
<desc>lat.=55.704411, lon.=26.086418, Alt.=166.181763m. Speed=0.108000m/h.</desc>
<speed>0.030000</speed>
</trkpt>
<trkpt lat="55.704411" lon="26.086418">
<ele>166.181763</ele>
<time>2010-07-17T19:10:00Z</time>
<desc>lat.=55.704411, lon.=26.086418, Alt.=166.181763m. Speed=0.180000m/h.</desc>
<speed>0.050000</speed>
</trkpt>
<trkpt lat="55.704411" lon="26.086416">
<ele>166.181763</ele>
<time>2010-07-17T19:10:01Z</time>
<desc>lat.=55.704411, lon.=26.086416, Alt.=166.181763m. Speed=0.108000m/h.</desc>
<speed>0.030000</speed>
</trkpt>
<trkpt lat="55.704411" lon="26.086416">
<ele>166.185669</ele>
<time>2010-07-17T19:10:02Z</time>
<desc>lat.=55.704411, lon.=26.086416, Alt.=166.185669m. Speed=0.180000m/h.</desc>
<speed>0.050000</speed>
</trkpt>
<trkpt lat="55.704411" lon="26.086416">
<ele>166.185669</ele>
<time>2010-07-17T19:10:03Z</time>
<desc>lat.=55.704411, lon.=26.086416, Alt.=166.185669m. Speed=0.144000m/h.</desc>
<speed>0.040000</speed>
</trkpt>
<trkpt lat="55.704411" lon="26.086416">
<ele>166.189575</ele>
<time>2010-07-17T19:10:04Z</time>
<desc>lat.=55.704411, lon.=26.086416, Alt.=166.189575m. Speed=0.072000m/h.</desc>
<speed>0.020000</speed>
</trkpt>
<trkpt lat="55.704411" lon="26.086416">
<ele>166.193481</ele>
<time>2010-07-17T19:10:05Z</time>
<desc>lat.=55.704411, lon.=26.086416, Alt.=166.193481m. Speed=0.072000m/h.</desc>
<speed>0.020000</speed>
</trkpt>
<trkpt lat="55.704411" lon="26.086416">
<ele>166.197388</ele>
<time>2010-07-17T19:10:06Z</time>
<desc>lat.=55.704411, lon.=26.086416, Alt.=166.197388m. Speed=0.216000m/h.</desc>
<speed>0.060000</speed>
</trkpt>
<trkpt lat="55.704411" lon="26.086414">
<ele>166.201294</ele>
<time>2010-07-17T19:10:07Z</time>
<desc>lat.=55.704411, lon.=26.086414, Alt.=166.201294m. Speed=0.144000m/h.</desc>
<speed>0.040000</speed>
</trkpt>
<trkpt lat="55.704411" lon="26.086414">
<ele>166.209106</ele>
<time>2010-07-17T19:10:08Z</time>
<desc>lat.=55.704411, lon.=26.086414, Alt.=166.209106m. Speed=0.072000m/h.</desc>
<speed>0.020000</speed>
</trkpt>
<trkpt lat="55.704411" lon="26.086414">
<ele>166.213013</ele>
<time>2010-07-17T19:10:09Z</time>
<desc>lat.=55.704411, lon.=26.086414, Alt.=166.213013m. Speed=0.036000m/h.</desc>
<speed>0.010000</speed>
</trkpt>
<trkpt lat="55.704411" lon="26.086414">
<ele>166.216919</ele>
<time>2010-07-17T19:10:10Z</time>
<desc>lat.=55.704411, lon.=26.086414, Alt.=166.216919m. Speed=0.072000m/h.</desc>
<speed>0.020000</speed>
</trkpt>
<trkpt lat="55.704411" lon="26.086414">
<ele>166.220825</ele>
<time>2010-07-17T19:10:11Z</time>
<desc>lat.=55.704411, lon.=26.086414, Alt.=166.220825m. Speed=0.144000m/h.</desc>
<speed>0.040000</speed>
</trkpt>
<trkpt lat="55.704411" lon="26.086414">
<ele>166.216919</ele>
<time>2010-07-17T19:10:12Z</time>
<desc>lat.=55.704411, lon.=26.086414, Alt.=166.216919m. Speed=0.072000m/h.</desc>
<speed>0.020000</speed>
</trkpt>
<trkpt lat="55.704411" lon="26.086414">
<ele>166.216919</ele>
<time>2010-07-17T19:10:13Z</time>
<desc>lat.=55.704411, lon.=26.086414, Alt.=166.216919m. Speed=0.036000m/h.</desc>
<speed>0.010000</speed>
</trkpt>
<trkpt lat="55.704411" lon="26.086414">
<ele>166.220825</ele>
<time>2010-07-17T19:10:14Z</time>
<desc>lat.=55.704411, lon.=26.086414, Alt.=166.220825m. Speed=0.072000m/h.</desc>
<speed>0.020000</speed>
</trkpt>
<trkpt lat="55.704411" lon="26.086414">
<ele>166.224731</ele>
<time>2010-07-17T19:10:15Z</time>
<desc>lat.=55.704411, lon.=26.086414, Alt.=166.224731m. Speed=0.144000m/h.</desc>
<speed>0.040000</speed>
</trkpt>
<trkpt lat="55.704411" lon="26.086414">
<ele>166.228638</ele>
<time>2010-07-17T19:10:16Z</time>
<desc>lat.=55.704411, lon.=26.086414, Alt.=166.228638m. Speed=0.108000m/h.</desc>
<speed>0.030000</speed>
</trkpt>
<trkpt lat="55.704411" lon="26.086412">
<ele>166.232544</ele>
<time>2010-07-17T19:10:17Z</time>
<desc>lat.=55.704411, lon.=26.086412, Alt.=166.232544m. Speed=0.036000m/h.</desc>
<speed>0.010000</speed>
</trkpt>
<trkpt lat="55.704411" lon="26.086412">
<ele>166.236450</ele>
<time>2010-07-17T19:10:18Z</time>
<desc>lat.=55.704411, lon.=26.086412, Alt.=166.236450m. Speed=0.144000m/h.</desc>
<speed>0.040000</speed>
</trkpt>
<trkpt lat="55.704411" lon="26.086412">
<ele>166.244263</ele>
<time>2010-07-17T19:10:19Z</time>
<desc>lat.=55.704411, lon.=26.086412, Alt.=166.244263m. Speed=0.108000m/h.</desc>
<speed>0.030000</speed>
</trkpt>
<trkpt lat="55.704411" lon="26.086412">
<ele>166.248169</ele>
<time>2010-07-17T19:10:20Z</time>
<desc>lat.=55.704411, lon.=26.086412, Alt.=166.248169m. Speed=0.108000m/h.</desc>
<speed>0.030000</speed>
</trkpt>
<trkpt lat="55.704411" lon="26.086412">
<ele>166.248169</ele>
<time>2010-07-17T19:10:21Z</time>
<desc>lat.=55.704411, lon.=26.086412, Alt.=166.248169m. Speed=0.144000m/h.</desc>
<speed>0.040000</speed>
</trkpt>
<trkpt lat="55.704411" lon="26.086412">
<ele>166.255981</ele>
<time>2010-07-17T19:10:22Z</time>
<desc>lat.=55.704411, lon.=26.086412, Alt.=166.255981m. Speed=0.108000m/h.</desc>
<speed>0.030000</speed>
</trkpt>
<trkpt lat="55.704411" lon="26.086412">
<ele>166.259888</ele>
<time>2010-07-17T19:10:23Z</time>
<desc>lat.=55.704411, lon.=26.086412, Alt.=166.259888m. Speed=0.072000m/h.</desc>
<speed>0.020000</speed>
</trkpt>
<trkpt lat="55.704411" lon="26.086412">
<ele>166.259888</ele>
<time>2010-07-17T19:10:24Z</time>
<desc>lat.=55.704411, lon.=26.086412, Alt.=166.259888m. Speed=0.108000m/h.</desc>
<speed>0.030000</speed>
</trkpt>
<trkpt lat="55.704411" lon="26.086411">
<ele>166.255981</ele>
<time>2010-07-17T19:10:25Z</time>
<desc>lat.=55.704411, lon.=26.086411, Alt.=166.255981m. Speed=0.000000m/h.</desc>
<speed>0.000000</speed>
</trkpt>
<trkpt lat="55.704411" lon="26.086411">
<ele>166.252075</ele>
<time>2010-07-17T19:10:26Z</time>
<desc>lat.=55.704411, lon.=26.086411, Alt.=166.252075m. Speed=0.072000m/h.</desc>
<speed>0.020000</speed>
</trkpt>
<trkpt lat="55.704411" lon="26.086411">
<ele>166.248169</ele>
<time>2010-07-17T19:10:27Z</time>
<desc>lat.=55.704411, lon.=26.086411, Alt.=166.248169m. Speed=0.036000m/h.</desc>
<speed>0.010000</speed>
</trkpt>
<trkpt lat="55.704411" lon="26.086411">
<ele>166.252075</ele>
<time>2010-07-17T19:10:28Z</time>
<desc>lat.=55.704411, lon.=26.086411, Alt.=166.252075m. Speed=0.072000m/h.</desc>
<speed>0.020000</speed>
</trkpt>
<trkpt lat="55.704411" lon="26.086411">
<ele>166.255981</ele>
<time>2010-07-17T19:10:29Z</time>
<desc>lat.=55.704411, lon.=26.086411, Alt.=166.255981m. Speed=0.108000m/h.</desc>
<speed>0.030000</speed>
</trkpt>
<trkpt lat="55.704411" lon="26.086411">
<ele>166.259888</ele>
<time>2010-07-17T19:10:30Z</time>
<desc>lat.=55.704411, lon.=26.086411, Alt.=166.259888m. Speed=0.144000m/h.</desc>
<speed>0.040000</speed>
</trkpt>
<trkpt lat="55.704411" lon="26.086411">
<ele>166.259888</ele>
<time>2010-07-17T19:10:31Z</time>
<desc>lat.=55.704411, lon.=26.086411, Alt.=166.259888m. Speed=0.036000m/h.</desc>
<speed>0.010000</speed>
</trkpt>
<trkpt lat="55.704411" lon="26.086411">
<ele>166.263794</ele>
<time>2010-07-17T19:10:32Z</time>
<desc>lat.=55.704411, lon.=26.086411, Alt.=166.263794m. Speed=0.000000m/h.</desc>
<speed>0.000000</speed>
</trkpt>
<trkpt lat="55.704411" lon="26.086411">
<ele>166.271606</ele>
<time>2010-07-17T19:10:33Z</time>
<desc>lat.=55.704411, lon.=26.086411, Alt.=166.271606m. Speed=0.072000m/h.</desc>
<speed>0.020000</speed>
</trkpt>
<trkpt lat="55.704411" lon="26.086411">
<ele>166.295044</ele>
<time>2010-07-17T19:10:34Z</time>
<desc>lat.=55.704411, lon.=26.086411, Alt.=166.295044m. Speed=0.072000m/h.</desc>
<speed>0.020000</speed>
</trkpt>
<trkpt lat="55.704411" lon="26.086411">
<ele>166.310669</ele>
<time>2010-07-17T19:10:35Z</time>
<desc>lat.=55.704411, lon.=26.086411, Alt.=166.310669m. Speed=0.072000m/h.</desc>
<speed>0.020000</speed>
</trkpt>
<trkpt lat="55.704411" lon="26.086411">
<ele>166.338013</ele>
<time>2010-07-17T19:10:36Z</time>
<desc>lat.=55.704411, lon.=26.086411, Alt.=166.338013m. Speed=0.072000m/h.</desc>
<speed>0.020000</speed>
</trkpt>
<trkpt lat="55.704411" lon="26.086411">
<ele>166.369263</ele>
<time>2010-07-17T19:10:37Z</time>
<desc>lat.=55.704411, lon.=26.086411, Alt.=166.369263m. Speed=0.072000m/h.</desc>
<speed>0.020000</speed>
</trkpt>
<trkpt lat="55.704411" lon="26.086411">
<ele>166.388794</ele>
<time>2010-07-17T19:10:38Z</time>
<desc>lat.=55.704411, lon.=26.086411, Alt.=166.388794m. Speed=0.108000m/h.</desc>
<speed>0.030000</speed>
</trkpt>
<trkpt lat="55.704411" lon="26.086411">
<ele>166.408325</ele>
<time>2010-07-17T19:10:39Z</time>
<desc>lat.=55.704411, lon.=26.086411, Alt.=166.408325m. Speed=0.072000m/h.</desc>
<speed>0.020000</speed>
</trkpt>
<trkpt lat="55.704411" lon="26.086411">
<ele>166.420044</ele>
<time>2010-07-17T19:10:40Z</time>
<desc>lat.=55.704411, lon.=26.086411, Alt.=166.420044m. Speed=0.000000m/h.</desc>
<speed>0.000000</speed>
</trkpt>
<trkpt lat="55.704411" lon="26.086411">
<ele>166.435669</ele>
<time>2010-07-17T19:10:41Z</time>
<desc>lat.=55.704411, lon.=26.086411, Alt.=166.435669m. Speed=0.072000m/h.</desc>
<speed>0.020000</speed>
</trkpt>
<trkpt lat="55.704411" lon="26.086412">
<ele>166.455200</ele>
<time>2010-07-17T19:10:42Z</time>
<desc>lat.=55.704411, lon.=26.086412, Alt.=166.455200m. Speed=0.000000m/h.</desc>
<speed>0.000000</speed>
</trkpt>
<trkpt lat="55.704411" lon="26.086412">
<ele>166.470825</ele>
<time>2010-07-17T19:10:43Z</time>
<desc>lat.=55.704411, lon.=26.086412, Alt.=166.470825m. Speed=0.000000m/h.</desc>
<speed>0.000000</speed>
</trkpt>
<trkpt lat="55.704411" lon="26.086412">
<ele>166.490356</ele>
<time>2010-07-17T19:10:44Z</time>
<desc>lat.=55.704411, lon.=26.086412, Alt.=166.490356m. Speed=0.144000m/h.</desc>
<speed>0.040000</speed>
</trkpt>
<trkpt lat="55.704411" lon="26.086412">
<ele>166.494263</ele>
<time>2010-07-17T19:10:45Z</time>
<desc>lat.=55.704411, lon.=26.086412, Alt.=166.494263m. Speed=0.072000m/h.</desc>
<speed>0.020000</speed>
</trkpt>
<trkpt lat="55.704411" lon="26.086412">
<ele>166.505981</ele>
<time>2010-07-17T19:10:46Z</time>
<desc>lat.=55.704411, lon.=26.086412, Alt.=166.505981m. Speed=0.036000m/h.</desc>
<speed>0.010000</speed>
</trkpt>
<trkpt lat="55.704411" lon="26.086412">
<ele>166.513794</ele>
<time>2010-07-17T19:10:47Z</time>
<desc>lat.=55.704411, lon.=26.086412, Alt.=166.513794m. Speed=0.000000m/h.</desc>
<speed>0.000000</speed>
</trkpt>
<trkpt lat="55.704411" lon="26.086412">
<ele>166.521606</ele>
<time>2010-07-17T19:10:48Z</time>
<desc>lat.=55.704411, lon.=26.086412, Alt.=166.521606m. Speed=0.072000m/h.</desc>
<speed>0.020000</speed>
</trkpt>
<trkpt lat="55.704411" lon="26.086412">
<ele>166.521606</ele>
<time>2010-07-17T19:10:49Z</time>
<desc>lat.=55.704411, lon.=26.086412, Alt.=166.521606m. Speed=0.036000m/h.</desc>
<speed>0.010000</speed>
</trkpt>
<trkpt lat="55.704411" lon="26.086412">
<ele>166.521606</ele>
<time>2010-07-17T19:10:50Z</time>
<desc>lat.=55.704411, lon.=26.086412, Alt.=166.521606m. Speed=0.072000m/h.</desc>
<speed>0.020000</speed>
</trkpt>
<trkpt lat="55.704411" lon="26.086412">
<ele>166.525513</ele>
<time>2010-07-17T19:10:51Z</time>
<desc>lat.=55.704411, lon.=26.086412, Alt.=166.525513m. Speed=0.072000m/h.</desc>
<speed>0.020000</speed>
</trkpt>
<trkpt lat="55.704411" lon="26.086412">
<ele>166.529419</ele>
<time>2010-07-17T19:10:52Z</time>
<desc>lat.=55.704411, lon.=26.086412, Alt.=166.529419m. Speed=0.072000m/h.</desc>
<speed>0.020000</speed>
</trkpt>
<trkpt lat="55.704411" lon="26.086412">
<ele>166.529419</ele>
<time>2010-07-17T19:10:53Z</time>
<desc>lat.=55.704411, lon.=26.086412, Alt.=166.529419m. Speed=0.000000m/h.</desc>
<speed>0.000000</speed>
</trkpt>
<trkpt lat="55.704411" lon="26.086412">
<ele>166.525513</ele>
<time>2010-07-17T19:10:54Z</time>
<desc>lat.=55.704411, lon.=26.086412, Alt.=166.525513m. Speed=0.036000m/h.</desc>
<speed>0.010000</speed>
</trkpt>
<trkpt lat="55.704411" lon="26.086412">
<ele>166.517700</ele>
<time>2010-07-17T19:10:55Z</time>
<desc>lat.=55.704411, lon.=26.086412, Alt.=166.517700m. Speed=0.000000m/h.</desc>
<speed>0.000000</speed>
</trkpt>
<trkpt lat="55.704411" lon="26.086412">
<ele>166.513794</ele>
<time>2010-07-17T19:10:56Z</time>
<desc>lat.=55.704411, lon.=26.086412, Alt.=166.513794m. Speed=0.036000m/h.</desc>
<speed>0.010000</speed>
</trkpt>
<trkpt lat="55.704411" lon="26.086412">
<ele>166.513794</ele>
<time>2010-07-17T19:10:57Z</time>
<desc>lat.=55.704411, lon.=26.086412, Alt.=166.513794m. Speed=0.000000m/h.</desc>
<speed>0.000000</speed>
</trkpt>
<trkpt lat="55.704411" lon="26.086412">
<ele>166.513794</ele>
<time>2010-07-17T19:10:58Z</time>
<desc>lat.=55.704411, lon.=26.086412, Alt.=166.513794m. Speed=0.036000m/h.</desc>
<speed>0.010000</speed>
</trkpt>
<trkpt lat="55.704411" lon="26.086412">
<ele>166.505981</ele>
<time>2010-07-17T19:10:59Z</time>
<desc>lat.=55.704411, lon.=26.086412, Alt.=166.505981m. Speed=0.036000m/h.</desc>
<speed>0.010000</speed>
</trkpt>
<trkpt lat="55.704411" lon="26.086412">
<ele>166.498169</ele>
<time>2010-07-17T19:11:00Z</time>
<desc>lat.=55.704411, lon.=26.086412, Alt.=166.498169m. Speed=0.000000m/h.</desc>
<speed>0.000000</speed>
</trkpt>
<trkpt lat="55.704411" lon="26.086412">
<ele>166.498169</ele>
<time>2010-07-17T19:11:01Z</time>
<desc>lat.=55.704411, lon.=26.086412, Alt.=166.498169m. Speed=0.000000m/h.</desc>
<speed>0.000000</speed>
</trkpt>
<trkpt lat="55.704411" lon="26.086412">
<ele>166.494263</ele>
<time>2010-07-17T19:11:02Z</time>
<desc>lat.=55.704411, lon.=26.086412, Alt.=166.494263m. Speed=0.000000m/h.</desc>
<speed>0.000000</speed>
</trkpt>
<trkpt lat="55.704411" lon="26.086412">
<ele>166.490356</ele>
<time>2010-07-17T19:11:03Z</time>
<desc>lat.=55.704411, lon.=26.086412, Alt.=166.490356m. Speed=0.000000m/h.</desc>
<speed>0.000000</speed>
</trkpt>
<trkpt lat="55.704411" lon="26.086412">
<ele>166.494263</ele>
<time>2010-07-17T19:11:04Z</time>
<desc>lat.=55.704411, lon.=26.086412, Alt.=166.494263m. Speed=0.036000m/h.</desc>
<speed>0.010000</speed>
</trkpt>
<trkpt lat="55.704411" lon="26.086412">
<ele>166.494263</ele>
<time>2010-07-17T19:11:05Z</time>
<desc>lat.=55.704411, lon.=26.086412, Alt.=166.494263m. Speed=0.000000m/h.</desc>
<speed>0.000000</speed>
</trkpt>
<trkpt lat="55.704411" lon="26.086412">
<ele>166.494263</ele>
<time>2010-07-17T19:11:06Z</time>
<desc>lat.=55.704411, lon.=26.086412, Alt.=166.494263m. Speed=0.036000m/h.</desc>
<speed>0.010000</speed>
</trkpt>
<trkpt lat="55.704411" lon="26.086412">
<ele>166.494263</ele>
<time>2010-07-17T19:11:07Z</time>
<desc>lat.=55.704411, lon.=26.086412, Alt.=166.494263m. Speed=0.000000m/h.</desc>
<speed>0.000000</speed>
</trkpt>
<trkpt lat="55.704411" lon="26.086412">
<ele>166.498169</ele>
<time>2010-07-17T19:11:08Z</time>
<desc>lat.=55.704411, lon.=26.086412, Alt.=166.498169m. Speed=0.072000m/h.</desc>
<speed>0.020000</speed>
</trkpt>
<trkpt lat="55.704411" lon="26.086412">
<ele>166.498169</ele>
<time>2010-07-17T19:11:09Z</time>
<desc>lat.=55.704411, lon.=26.086412, Alt.=166.498169m. Speed=0.036000m/h.</desc>
<speed>0.010000</speed>
</trkpt>
<trkpt lat="55.704411" lon="26.086412">
<ele>166.502075</ele>
<time>2010-07-17T19:11:10Z</time>
<desc>lat.=55.704411, lon.=26.086412, Alt.=166.502075m. Speed=0.000000m/h.</desc>
<speed>0.000000</speed>
</trkpt>
<trkpt lat="55.704411" lon="26.086412">
<ele>166.502075</ele>
<time>2010-07-17T19:11:11Z</time>
<desc>lat.=55.704411, lon.=26.086412, Alt.=166.502075m. Speed=0.072000m/h.</desc>
<speed>0.020000</speed>
</trkpt>
<trkpt lat="55.704411" lon="26.086412">
<ele>166.502075</ele>
<time>2010-07-17T19:11:12Z</time>
<desc>lat.=55.704411, lon.=26.086412, Alt.=166.502075m. Speed=0.036000m/h.</desc>
<speed>0.010000</speed>
</trkpt>
<trkpt lat="55.704411" lon="26.086412">
<ele>166.505981</ele>
<time>2010-07-17T19:11:13Z</time>
<desc>lat.=55.704411, lon.=26.086412, Alt.=166.505981m. Speed=0.036000m/h.</desc>
<speed>0.010000</speed>
</trkpt>
<trkpt lat="55.704411" lon="26.086412">
<ele>166.502075</ele>
<time>2010-07-17T19:11:14Z</time>
<desc>lat.=55.704411, lon.=26.086412, Alt.=166.502075m. Speed=0.036000m/h.</desc>
<speed>0.010000</speed>
</trkpt>
<trkpt lat="55.704411" lon="26.086412">
<ele>166.498169</ele>
<time>2010-07-17T19:11:15Z</time>
<desc>lat.=55.704411, lon.=26.086412, Alt.=166.498169m. Speed=0.000000m/h.</desc>
<speed>0.000000</speed>
</trkpt>
<trkpt lat="55.704411" lon="26.086412">
<ele>166.490356</ele>
<time>2010-07-17T19:11:16Z</time>
<desc>lat.=55.704411, lon.=26.086412, Alt.=166.490356m. Speed=0.000000m/h.</desc>
<speed>0.000000</speed>
</trkpt>
<trkpt lat="55.704411" lon="26.086412">
<ele>166.486450</ele>
<time>2010-07-17T19:11:17Z</time>
<desc>lat.=55.704411, lon.=26.086412, Alt.=166.486450m. Speed=0.036000m/h.</desc>
<speed>0.010000</speed>
</trkpt>
<trkpt lat="55.704411" lon="26.086412">
<ele>166.474731</ele>
<time>2010-07-17T19:11:18Z</time>
<desc>lat.=55.704411, lon.=26.086412, Alt.=166.474731m. Speed=0.072000m/h.</desc>
<speed>0.020000</speed>
</trkpt>
<trkpt lat="55.704411" lon="26.086412">
<ele>166.463013</ele>
<time>2010-07-17T19:11:19Z</time>
<desc>lat.=55.704411, lon.=26.086412, Alt.=166.463013m. Speed=0.036000m/h.</desc>
<speed>0.010000</speed>
</trkpt>
<trkpt lat="55.704411" lon="26.086412">
<ele>166.451294</ele>
<time>2010-07-17T19:11:20Z</time>
<desc>lat.=55.704411, lon.=26.086412, Alt.=166.451294m. Speed=0.036000m/h.</desc>
<speed>0.010000</speed>
</trkpt>
<trkpt lat="55.704411" lon="26.086412">
<ele>166.447388</ele>
<time>2010-07-17T19:11:21Z</time>
<desc>lat.=55.704411, lon.=26.086412, Alt.=166.447388m. Speed=0.072000m/h.</desc>
<speed>0.020000</speed>
</trkpt>
<trkpt lat="55.704411" lon="26.086412">
<ele>166.439575</ele>
<time>2010-07-17T19:11:22Z</time>
<desc>lat.=55.704411, lon.=26.086412, Alt.=166.439575m. Speed=0.072000m/h.</desc>
<speed>0.020000</speed>
</trkpt>
<trkpt lat="55.704411" lon="26.086412">
<ele>166.431763</ele>
<time>2010-07-17T19:11:23Z</time>
<desc>lat.=55.704411, lon.=26.086412, Alt.=166.431763m. Speed=0.036000m/h.</desc>
<speed>0.010000</speed>
</trkpt>
<trkpt lat="55.704411" lon="26.086412">
<ele>166.423950</ele>
<time>2010-07-17T19:11:24Z</time>
<desc>lat.=55.704411, lon.=26.086412, Alt.=166.423950m. Speed=0.072000m/h.</desc>
<speed>0.020000</speed>
</trkpt>
<trkpt lat="55.704411" lon="26.086412">
<ele>166.416138</ele>
<time>2010-07-17T19:11:25Z</time>
<desc>lat.=55.704411, lon.=26.086412, Alt.=166.416138m. Speed=0.072000m/h.</desc>
<speed>0.020000</speed>
</trkpt>
<trkpt lat="55.704411" lon="26.086411">
<ele>166.416138</ele>
<time>2010-07-17T19:11:26Z</time>
<desc>lat.=55.704411, lon.=26.086411, Alt.=166.416138m. Speed=0.036000m/h.</desc>
<speed>0.010000</speed>
</trkpt>
<trkpt lat="55.704411" lon="26.086411">
<ele>166.408325</ele>
<time>2010-07-17T19:11:27Z</time>
<desc>lat.=55.704411, lon.=26.086411, Alt.=166.408325m. Speed=0.036000m/h.</desc>
<speed>0.010000</speed>
</trkpt>
<trkpt lat="55.704411" lon="26.086411">
<ele>166.404419</ele>
<time>2010-07-17T19:11:28Z</time>
<desc>lat.=55.704411, lon.=26.086411, Alt.=166.404419m. Speed=0.036000m/h.</desc>
<speed>0.010000</speed>
</trkpt>
<trkpt lat="55.704411" lon="26.086411">
<ele>166.392700</ele>
<time>2010-07-17T19:11:29Z</time>
<desc>lat.=55.704411, lon.=26.086411, Alt.=166.392700m. Speed=0.072000m/h.</desc>
<speed>0.020000</speed>
</trkpt>
<trkpt lat="55.704411" lon="26.086411">
<ele>166.388794</ele>
<time>2010-07-17T19:11:30Z</time>
<desc>lat.=55.704411, lon.=26.086411, Alt.=166.388794m. Speed=0.144000m/h.</desc>
<speed>0.040000</speed>
</trkpt>
<trkpt lat="55.704411" lon="26.086411">
<ele>166.384888</ele>
<time>2010-07-17T19:11:31Z</time>
<desc>lat.=55.704411, lon.=26.086411, Alt.=166.384888m. Speed=0.072000m/h.</desc>
<speed>0.020000</speed>
</trkpt>
<trkpt lat="55.704411" lon="26.086411">
<ele>166.384888</ele>
<time>2010-07-17T19:11:32Z</time>
<desc>lat.=55.704411, lon.=26.086411, Alt.=166.384888m. Speed=0.108000m/h.</desc>
<speed>0.030000</speed>
</trkpt>
<trkpt lat="55.704411" lon="26.086411">
<ele>166.380981</ele>
<time>2010-07-17T19:11:33Z</time>
<desc>lat.=55.704411, lon.=26.086411, Alt.=166.380981m. Speed=0.108000m/h.</desc>
<speed>0.030000</speed>
</trkpt>
<trkpt lat="55.704411" lon="26.086411">
<ele>166.373169</ele>
<time>2010-07-17T19:11:34Z</time>
<desc>lat.=55.704411, lon.=26.086411, Alt.=166.373169m. Speed=0.108000m/h.</desc>
<speed>0.030000</speed>
</trkpt>
<trkpt lat="55.704411" lon="26.086411">
<ele>166.365356</ele>
<time>2010-07-17T19:11:35Z</time>
<desc>lat.=55.704411, lon.=26.086411, Alt.=166.365356m. Speed=0.072000m/h.</desc>
<speed>0.020000</speed>
</trkpt>
<trkpt lat="55.704411" lon="26.086411">
<ele>166.357544</ele>
<time>2010-07-17T19:11:36Z</time>
<desc>lat.=55.704411, lon.=26.086411, Alt.=166.357544m. Speed=0.108000m/h.</desc>
<speed>0.030000</speed>
</trkpt>
<trkpt lat="55.704411" lon="26.086411">
<ele>166.345825</ele>
<time>2010-07-17T19:11:37Z</time>
<desc>lat.=55.704411, lon.=26.086411, Alt.=166.345825m. Speed=0.144000m/h.</desc>
<speed>0.040000</speed>
</trkpt>
<trkpt lat="55.704414" lon="26.086411">
<ele>166.345825</ele>
<time>2010-07-17T19:11:38Z</time>
<desc>lat.=55.704414, lon.=26.086411, Alt.=166.345825m. Speed=0.072000m/h.</desc>
<speed>0.020000</speed>
</trkpt>
<trkpt lat="55.704414" lon="26.086411">
<ele>166.341919</ele>
<time>2010-07-17T19:11:39Z</time>
<desc>lat.=55.704414, lon.=26.086411, Alt.=166.341919m. Speed=0.144000m/h.</desc>
<speed>0.040000</speed>
</trkpt>
<trkpt lat="55.704414" lon="26.086409">
<ele>166.326294</ele>
<time>2010-07-17T19:11:40Z</time>
<desc>lat.=55.704414, lon.=26.086409, Alt.=166.326294m. Speed=0.072000m/h.</desc>
<speed>0.020000</speed>
</trkpt>
<trkpt lat="55.704414" lon="26.086411">
<ele>166.326294</ele>
<time>2010-07-17T19:11:41Z</time>
<desc>lat.=55.704414, lon.=26.086411, Alt.=166.326294m. Speed=0.036000m/h.</desc>
<speed>0.010000</speed>
</trkpt>
<trkpt lat="55.704414" lon="26.086409">
<ele>166.314575</ele>
<time>2010-07-17T19:11:42Z</time>
<desc>lat.=55.704414, lon.=26.086409, Alt.=166.314575m. Speed=0.072000m/h.</desc>
<speed>0.020000</speed>
</trkpt>
<trkpt lat="55.704414" lon="26.086409">
<ele>166.310669</ele>
<time>2010-07-17T19:11:43Z</time>
<desc>lat.=55.704414, lon.=26.086409, Alt.=166.310669m. Speed=0.036000m/h.</desc>
<speed>0.010000</speed>
</trkpt>
<trkpt lat="55.704414" lon="26.086409">
<ele>166.306763</ele>
<time>2010-07-17T19:11:44Z</time>
<desc>lat.=55.704414, lon.=26.086409, Alt.=166.306763m. Speed=0.072000m/h.</desc>
<speed>0.020000</speed>
</trkpt>
<trkpt lat="55.704414" lon="26.086409">
<ele>166.310669</ele>
<time>2010-07-17T19:11:45Z</time>
<desc>lat.=55.704414, lon.=26.086409, Alt.=166.310669m. Speed=0.108000m/h.</desc>
<speed>0.030000</speed>
</trkpt>
<trkpt lat="55.704414" lon="26.086409">
<ele>166.306763</ele>
<time>2010-07-17T19:11:46Z</time>
<desc>lat.=55.704414, lon.=26.086409, Alt.=166.306763m. Speed=0.108000m/h.</desc>
<speed>0.030000</speed>
</trkpt>
<trkpt lat="55.704414" lon="26.086409">
<ele>166.306763</ele>
<time>2010-07-17T19:11:47Z</time>
<desc>lat.=55.704414, lon.=26.086409, Alt.=166.306763m. Speed=0.072000m/h.</desc>
<speed>0.020000</speed>
</trkpt>
<trkpt lat="55.704414" lon="26.086409">
<ele>166.302856</ele>
<time>2010-07-17T19:11:48Z</time>
<desc>lat.=55.704414, lon.=26.086409, Alt.=166.302856m. Speed=0.036000m/h.</desc>
<speed>0.010000</speed>
</trkpt>
<trkpt lat="55.704414" lon="26.086409">
<ele>166.295044</ele>
<time>2010-07-17T19:11:49Z</time>
<desc>lat.=55.704414, lon.=26.086409, Alt.=166.295044m. Speed=0.036000m/h.</desc>
<speed>0.010000</speed>
</trkpt>
<trkpt lat="55.704414" lon="26.086409">
<ele>166.283325</ele>
<time>2010-07-17T19:11:50Z</time>
<desc>lat.=55.704414, lon.=26.086409, Alt.=166.283325m. Speed=0.036000m/h.</desc>
<speed>0.010000</speed>
</trkpt>
<trkpt lat="55.704414" lon="26.086409">
<ele>166.279419</ele>
<time>2010-07-17T19:11:51Z</time>
<desc>lat.=55.704414, lon.=26.086409, Alt.=166.279419m. Speed=0.072000m/h.</desc>
<speed>0.020000</speed>
</trkpt>
<trkpt lat="55.704414" lon="26.086409">
<ele>166.275513</ele>
<time>2010-07-17T19:11:52Z</time>
<desc>lat.=55.704414, lon.=26.086409, Alt.=166.275513m. Speed=0.072000m/h.</desc>
<speed>0.020000</speed>
</trkpt>
<trkpt lat="55.704414" lon="26.086409">
<ele>166.271606</ele>
<time>2010-07-17T19:11:53Z</time>
<desc>lat.=55.704414, lon.=26.086409, Alt.=166.271606m. Speed=0.036000m/h.</desc>
<speed>0.010000</speed>
</trkpt>
<trkpt lat="55.704414" lon="26.086409">
<ele>166.267700</ele>
<time>2010-07-17T19:11:54Z</time>
<desc>lat.=55.704414, lon.=26.086409, Alt.=166.267700m. Speed=0.000000m/h.</desc>
<speed>0.000000</speed>
</trkpt>
<trkpt lat="55.704414" lon="26.086409">
<ele>166.271606</ele>
<time>2010-07-17T19:11:55Z</time>
<desc>lat.=55.704414, lon.=26.086409, Alt.=166.271606m. Speed=0.036000m/h.</desc>
<speed>0.010000</speed>
</trkpt>
<trkpt lat="55.704414" lon="26.086409">
<ele>166.275513</ele>
<time>2010-07-17T19:11:56Z</time>
<desc>lat.=55.704414, lon.=26.086409, Alt.=166.275513m. Speed=0.036000m/h.</desc>
<speed>0.010000</speed>
</trkpt>
<trkpt lat="55.704414" lon="26.086409">
<ele>166.271606</ele>
<time>2010-07-17T19:11:57Z</time>
<desc>lat.=55.704414, lon.=26.086409, Alt.=166.271606m. Speed=0.000000m/h.</desc>
<speed>0.000000</speed>
</trkpt>
<trkpt lat="55.704414" lon="26.086409">
<ele>166.271606</ele>
<time>2010-07-17T19:11:58Z</time>
<desc>lat.=55.704414, lon.=26.086409, Alt.=166.271606m. Speed=0.072000m/h.</desc>
<speed>0.020000</speed>
</trkpt>
<trkpt lat="55.704414" lon="26.086409">
<ele>166.267700</ele>
<time>2010-07-17T19:11:59Z</time>
<desc>lat.=55.704414, lon.=26.086409, Alt.=166.267700m. Speed=0.072000m/h.</desc>
<speed>0.020000</speed>
</trkpt>
<trkpt lat="55.704414" lon="26.086411">
<ele>166.267700</ele>
<time>2010-07-17T19:12:00Z</time>
<desc>lat.=55.704414, lon.=26.086411, Alt.=166.267700m. Speed=0.036000m/h.</desc>
<speed>0.010000</speed>
</trkpt>
<trkpt lat="55.704414" lon="26.086411">
<ele>166.267700</ele>
<time>2010-07-17T19:12:01Z</time>
<desc>lat.=55.704414, lon.=26.086411, Alt.=166.267700m. Speed=0.072000m/h.</desc>
<speed>0.020000</speed>
</trkpt>
<trkpt lat="55.704414" lon="26.086411">
<ele>166.271606</ele>
<time>2010-07-17T19:12:02Z</time>
<desc>lat.=55.704414, lon.=26.086411, Alt.=166.271606m. Speed=0.000000m/h.</desc>
<speed>0.000000</speed>
</trkpt>
<trkpt lat="55.704414" lon="26.086411">
<ele>166.279419</ele>
<time>2010-07-17T19:12:03Z</time>
<desc>lat.=55.704414, lon.=26.086411, Alt.=166.279419m. Speed=0.108000m/h.</desc>
<speed>0.030000</speed>
</trkpt>
<trkpt lat="55.704414" lon="26.086411">
<ele>166.283325</ele>
<time>2010-07-17T19:12:04Z</time>
<desc>lat.=55.704414, lon.=26.086411, Alt.=166.283325m. Speed=0.072000m/h.</desc>
<speed>0.020000</speed>
</trkpt>
<trkpt lat="55.704414" lon="26.086411">
<ele>166.283325</ele>
<time>2010-07-17T19:12:05Z</time>
<desc>lat.=55.704414, lon.=26.086411, Alt.=166.283325m. Speed=0.036000m/h.</desc>
<speed>0.010000</speed>
</trkpt>
<trkpt lat="55.704414" lon="26.086411">
<ele>166.279419</ele>
<time>2010-07-17T19:12:06Z</time>
<desc>lat.=55.704414, lon.=26.086411, Alt.=166.279419m. Speed=0.036000m/h.</desc>
<speed>0.010000</speed>
</trkpt>
<trkpt lat="55.704414" lon="26.086411">
<ele>166.279419</ele>
<time>2010-07-17T19:12:07Z</time>
<desc>lat.=55.704414, lon.=26.086411, Alt.=166.279419m. Speed=0.000000m/h.</desc>
<speed>0.000000</speed>
</trkpt>
<trkpt lat="55.704414" lon="26.086411">
<ele>166.283325</ele>
<time>2010-07-17T19:12:08Z</time>
<desc>lat.=55.704414, lon.=26.086411, Alt.=166.283325m. Speed=0.072000m/h.</desc>
<speed>0.020000</speed>
</trkpt>
<trkpt lat="55.704414" lon="26.086411">
<ele>166.283325</ele>
<time>2010-07-17T19:12:09Z</time>
<desc>lat.=55.704414, lon.=26.086411, Alt.=166.283325m. Speed=0.072000m/h.</desc>
<speed>0.020000</speed>
</trkpt>
<trkpt lat="55.704414" lon="26.086411">
<ele>166.279419</ele>
<time>2010-07-17T19:12:10Z</time>
<desc>lat.=55.704414, lon.=26.086411, Alt.=166.279419m. Speed=0.144000m/h.</desc>
<speed>0.040000</speed>
</trkpt>
<trkpt lat="55.704414" lon="26.086411">
<ele>166.287231</ele>
<time>2010-07-17T19:12:11Z</time>
<desc>lat.=55.704414, lon.=26.086411, Alt.=166.287231m. Speed=0.108000m/h.</desc>
<speed>0.030000</speed>
</trkpt>
<trkpt lat="55.704414" lon="26.086411">
<ele>166.287231</ele>
<time>2010-07-17T19:12:12Z</time>
<desc>lat.=55.704414, lon.=26.086411, Alt.=166.287231m. Speed=0.000000m/h.</desc>
<speed>0.000000</speed>
</trkpt>
<trkpt lat="55.704414" lon="26.086411">
<ele>166.295044</ele>
<time>2010-07-17T19:12:13Z</time>
<desc>lat.=55.704414, lon.=26.086411, Alt.=166.295044m. Speed=0.072000m/h.</desc>
<speed>0.020000</speed>
</trkpt>
<trkpt lat="55.704414" lon="26.086411">
<ele>166.298950</ele>
<time>2010-07-17T19:12:14Z</time>
<desc>lat.=55.704414, lon.=26.086411, Alt.=166.298950m. Speed=0.036000m/h.</desc>
<speed>0.010000</speed>
</trkpt>
<trkpt lat="55.704414" lon="26.086411">
<ele>166.318481</ele>
<time>2010-07-17T19:12:15Z</time>
<desc>lat.=55.704414, lon.=26.086411, Alt.=166.318481m. Speed=0.072000m/h.</desc>
<speed>0.020000</speed>
</trkpt>
<trkpt lat="55.704414" lon="26.086411">
<ele>166.330200</ele>
<time>2010-07-17T19:12:16Z</time>
<desc>lat.=55.704414, lon.=26.086411, Alt.=166.330200m. Speed=0.036000m/h.</desc>
<speed>0.010000</speed>
</trkpt>
<trkpt lat="55.704414" lon="26.086411">
<ele>166.341919</ele>
<time>2010-07-17T19:12:17Z</time>
<desc>lat.=55.704414, lon.=26.086411, Alt.=166.341919m. Speed=0.036000m/h.</desc>
<speed>0.010000</speed>
</trkpt>
<trkpt lat="55.704414" lon="26.086411">
<ele>166.345825</ele>
<time>2010-07-17T19:12:18Z</time>
<desc>lat.=55.704414, lon.=26.086411, Alt.=166.345825m. Speed=0.036000m/h.</desc>
<speed>0.010000</speed>
</trkpt>
<trkpt lat="55.704414" lon="26.086411">
<ele>166.349731</ele>
<time>2010-07-17T19:12:19Z</time>
<desc>lat.=55.704414, lon.=26.086411, Alt.=166.349731m. Speed=0.036000m/h.</desc>
<speed>0.010000</speed>
</trkpt>
<trkpt lat="55.704414" lon="26.086411">
<ele>166.357544</ele>
<time>2010-07-17T19:12:20Z</time>
<desc>lat.=55.704414, lon.=26.086411, Alt.=166.357544m. Speed=0.036000m/h.</desc>
<speed>0.010000</speed>
</trkpt>
<trkpt lat="55.704414" lon="26.086411">
<ele>166.365356</ele>
<time>2010-07-17T19:12:21Z</time>
<desc>lat.=55.704414, lon.=26.086411, Alt.=166.365356m. Speed=0.036000m/h.</desc>
<speed>0.010000</speed>
</trkpt>
<trkpt lat="55.704414" lon="26.086411">
<ele>166.369263</ele>
<time>2010-07-17T19:12:22Z</time>
<desc>lat.=55.704414, lon.=26.086411, Alt.=166.369263m. Speed=0.108000m/h.</desc>
<speed>0.030000</speed>
</trkpt>
<trkpt lat="55.704414" lon="26.086411">
<ele>166.369263</ele>
<time>2010-07-17T19:12:23Z</time>
<desc>lat.=55.704414, lon.=26.086411, Alt.=166.369263m. Speed=0.144000m/h.</desc>
<speed>0.040000</speed>
</trkpt>
<trkpt lat="55.704414" lon="26.086411">
<ele>166.369263</ele>
<time>2010-07-17T19:12:24Z</time>
<desc>lat.=55.704414, lon.=26.086411, Alt.=166.369263m. Speed=0.144000m/h.</desc>
<speed>0.040000</speed>
</trkpt>
<trkpt lat="55.704414" lon="26.086411">
<ele>166.369263</ele>
<time>2010-07-17T19:12:25Z</time>
<desc>lat.=55.704414, lon.=26.086411, Alt.=166.369263m. Speed=0.036000m/h.</desc>
<speed>0.010000</speed>
</trkpt>
<trkpt lat="55.704414" lon="26.086411">
<ele>166.373169</ele>
<time>2010-07-17T19:12:26Z</time>
<desc>lat.=55.704414, lon.=26.086411, Alt.=166.373169m. Speed=0.036000m/h.</desc>
<speed>0.010000</speed>
</trkpt>
<trkpt lat="55.704414" lon="26.086411">
<ele>166.377075</ele>
<time>2010-07-17T19:12:27Z</time>
<desc>lat.=55.704414, lon.=26.086411, Alt.=166.377075m. Speed=0.036000m/h.</desc>
<speed>0.010000</speed>
</trkpt>
<trkpt lat="55.704414" lon="26.086411">
<ele>166.377075</ele>
<time>2010-07-17T19:12:28Z</time>
<desc>lat.=55.704414, lon.=26.086411, Alt.=166.377075m. Speed=0.036000m/h.</desc>
<speed>0.010000</speed>
</trkpt>
<trkpt lat="55.704414" lon="26.086411">
<ele>166.373169</ele>
<time>2010-07-17T19:12:29Z</time>
<desc>lat.=55.704414, lon.=26.086411, Alt.=166.373169m. Speed=0.072000m/h.</desc>
<speed>0.020000</speed>
</trkpt>
<trkpt lat="55.704414" lon="26.086411">
<ele>166.373169</ele>
<time>2010-07-17T19:12:30Z</time>
<desc>lat.=55.704414, lon.=26.086411, Alt.=166.373169m. Speed=0.036000m/h.</desc>
<speed>0.010000</speed>
</trkpt>
<trkpt lat="55.704414" lon="26.086411">
<ele>166.373169</ele>
<time>2010-07-17T19:12:31Z</time>
<desc>lat.=55.704414, lon.=26.086411, Alt.=166.373169m. Speed=0.072000m/h.</desc>
<speed>0.020000</speed>
</trkpt>
<trkpt lat="55.704414" lon="26.086411">
<ele>166.373169</ele>
<time>2010-07-17T19:12:32Z</time>
<desc>lat.=55.704414, lon.=26.086411, Alt.=166.373169m. Speed=0.072000m/h.</desc>
<speed>0.020000</speed>
</trkpt>
<trkpt lat="55.704414" lon="26.086411">
<ele>166.377075</ele>
<time>2010-07-17T19:12:33Z</time>
<desc>lat.=55.704414, lon.=26.086411, Alt.=166.377075m. Speed=0.072000m/h.</desc>
<speed>0.020000</speed>
</trkpt>
<trkpt lat="55.704414" lon="26.086411">
<ele>166.377075</ele>
<time>2010-07-17T19:12:34Z</time>
<desc>lat.=55.704414, lon.=26.086411, Alt.=166.377075m. Speed=0.000000m/h.</desc>
<speed>0.000000</speed>
</trkpt>
<trkpt lat="55.704414" lon="26.086411">
<ele>166.384888</ele>
<time>2010-07-17T19:12:35Z</time>
<desc>lat.=55.704414, lon.=26.086411, Alt.=166.384888m. Speed=0.036000m/h.</desc>
<speed>0.010000</speed>
</trkpt>
<trkpt lat="55.704414" lon="26.086411">
<ele>166.380981</ele>
<time>2010-07-17T19:12:36Z</time>
<desc>lat.=55.704414, lon.=26.086411, Alt.=166.380981m. Speed=0.036000m/h.</desc>
<speed>0.010000</speed>
</trkpt>
<trkpt lat="55.704414" lon="26.086411">
<ele>166.384888</ele>
<time>2010-07-17T19:12:37Z</time>
<desc>lat.=55.704414, lon.=26.086411, Alt.=166.384888m. Speed=0.036000m/h.</desc>
<speed>0.010000</speed>
</trkpt>
<trkpt lat="55.704414" lon="26.086411">
<ele>166.388794</ele>
<time>2010-07-17T19:12:38Z</time>
<desc>lat.=55.704414, lon.=26.086411, Alt.=166.388794m. Speed=0.036000m/h.</desc>
<speed>0.010000</speed>
</trkpt>
<trkpt lat="55.704414" lon="26.086411">
<ele>166.388794</ele>
<time>2010-07-17T19:12:39Z</time>
<desc>lat.=55.704414, lon.=26.086411, Alt.=166.388794m. Speed=0.108000m/h.</desc>
<speed>0.030000</speed>
</trkpt>
<trkpt lat="55.704414" lon="26.086411">
<ele>166.392700</ele>
<time>2010-07-17T19:12:40Z</time>
<desc>lat.=55.704414, lon.=26.086411, Alt.=166.392700m. Speed=0.036000m/h.</desc>
<speed>0.010000</speed>
</trkpt>
<trkpt lat="55.704414" lon="26.086411">
<ele>166.392700</ele>
<time>2010-07-17T19:12:41Z</time>
<desc>lat.=55.704414, lon.=26.086411, Alt.=166.392700m. Speed=0.036000m/h.</desc>
<speed>0.010000</speed>
</trkpt>
<trkpt lat="55.704414" lon="26.086411">
<ele>166.388794</ele>
<time>2010-07-17T19:12:42Z</time>
<desc>lat.=55.704414, lon.=26.086411, Alt.=166.388794m. Speed=0.036000m/h.</desc>
<speed>0.010000</speed>
</trkpt>
<trkpt lat="55.704414" lon="26.086411">
<ele>166.388794</ele>
<time>2010-07-17T19:12:43Z</time>
<desc>lat.=55.704414, lon.=26.086411, Alt.=166.388794m. Speed=0.108000m/h.</desc>
<speed>0.030000</speed>
</trkpt>
<trkpt lat="55.704414" lon="26.086411">
<ele>166.396606</ele>
<time>2010-07-17T19:12:44Z</time>
<desc>lat.=55.704414, lon.=26.086411, Alt.=166.396606m. Speed=0.144000m/h.</desc>
<speed>0.040000</speed>
</trkpt>
<trkpt lat="55.704414" lon="26.086409">
<ele>166.400513</ele>
<time>2010-07-17T19:12:45Z</time>
<desc>lat.=55.704414, lon.=26.086409, Alt.=166.400513m. Speed=0.108000m/h.</desc>
<speed>0.030000</speed>
</trkpt>
<trkpt lat="55.704414" lon="26.086409">
<ele>166.400513</ele>
<time>2010-07-17T19:12:46Z</time>
<desc>lat.=55.704414, lon.=26.086409, Alt.=166.400513m. Speed=0.036000m/h.</desc>
<speed>0.010000</speed>
</trkpt>
<trkpt lat="55.704414" lon="26.086411">
<ele>166.404419</ele>
<time>2010-07-17T19:12:47Z</time>
<desc>lat.=55.704414, lon.=26.086411, Alt.=166.404419m. Speed=0.036000m/h.</desc>
<speed>0.010000</speed>
</trkpt>
<trkpt lat="55.704414" lon="26.086411">
<ele>166.412231</ele>
<time>2010-07-17T19:12:48Z</time>
<desc>lat.=55.704414, lon.=26.086411, Alt.=166.412231m. Speed=0.000000m/h.</desc>
<speed>0.000000</speed>
</trkpt>
<trkpt lat="55.704414" lon="26.086409">
<ele>166.420044</ele>
<time>2010-07-17T19:12:49Z</time>
<desc>lat.=55.704414, lon.=26.086409, Alt.=166.420044m. Speed=0.072000m/h.</desc>
<speed>0.020000</speed>
</trkpt>
<trkpt lat="55.704414" lon="26.086409">
<ele>166.423950</ele>
<time>2010-07-17T19:12:50Z</time>
<desc>lat.=55.704414, lon.=26.086409, Alt.=166.423950m. Speed=0.000000m/h.</desc>
<speed>0.000000</speed>
</trkpt>
<trkpt lat="55.704414" lon="26.086409">
<ele>166.427856</ele>
<time>2010-07-17T19:12:51Z</time>
<desc>lat.=55.704414, lon.=26.086409, Alt.=166.427856m. Speed=0.036000m/h.</desc>
<speed>0.010000</speed>
</trkpt>
<trkpt lat="55.704414" lon="26.086411">
<ele>166.427856</ele>
<time>2010-07-17T19:12:52Z</time>
<desc>lat.=55.704414, lon.=26.086411, Alt.=166.427856m. Speed=0.144000m/h.</desc>
<speed>0.040000</speed>
</trkpt>
<trkpt lat="55.704414" lon="26.086411">
<ele>166.427856</ele>
<time>2010-07-17T19:12:53Z</time>
<desc>lat.=55.704414, lon.=26.086411, Alt.=166.427856m. Speed=0.108000m/h.</desc>
<speed>0.030000</speed>
</trkpt>
<trkpt lat="55.704414" lon="26.086411">
<ele>166.423950</ele>
<time>2010-07-17T19:12:54Z</time>
<desc>lat.=55.704414, lon.=26.086411, Alt.=166.423950m. Speed=0.216000m/h.</desc>
<speed>0.060000</speed>
</trkpt>
<trkpt lat="55.704414" lon="26.086411">
<ele>166.423950</ele>
<time>2010-07-17T19:12:55Z</time>
<desc>lat.=55.704414, lon.=26.086411, Alt.=166.423950m. Speed=0.036000m/h.</desc>
<speed>0.010000</speed>
</trkpt>
<trkpt lat="55.704414" lon="26.086411">
<ele>166.420044</ele>
<time>2010-07-17T19:12:56Z</time>
<desc>lat.=55.704414, lon.=26.086411, Alt.=166.420044m. Speed=0.072000m/h.</desc>
<speed>0.020000</speed>
</trkpt>
<trkpt lat="55.704414" lon="26.086411">
<ele>166.420044</ele>
<time>2010-07-17T19:12:57Z</time>
<desc>lat.=55.704414, lon.=26.086411, Alt.=166.420044m. Speed=0.036000m/h.</desc>
<speed>0.010000</speed>
</trkpt>
<trkpt lat="55.704411" lon="26.086411">
<ele>166.423950</ele>
<time>2010-07-17T19:12:58Z</time>
<desc>lat.=55.704411, lon.=26.086411, Alt.=166.423950m. Speed=0.072000m/h.</desc>
<speed>0.020000</speed>
</trkpt>
<trkpt lat="55.704411" lon="26.086411">
<ele>166.420044</ele>
<time>2010-07-17T19:12:59Z</time>
<desc>lat.=55.704411, lon.=26.086411, Alt.=166.420044m. Speed=0.144000m/h.</desc>
<speed>0.040000</speed>
</trkpt>
<trkpt lat="55.704411" lon="26.086411">
<ele>166.423950</ele>
<time>2010-07-17T19:13:00Z</time>
<desc>lat.=55.704411, lon.=26.086411, Alt.=166.423950m. Speed=0.000000m/h.</desc>
<speed>0.000000</speed>
</trkpt>
<trkpt lat="55.704411" lon="26.086411">
<ele>166.423950</ele>
<time>2010-07-17T19:13:01Z</time>
<desc>lat.=55.704411, lon.=26.086411, Alt.=166.423950m. Speed=0.072000m/h.</desc>
<speed>0.020000</speed>
</trkpt>
<trkpt lat="55.704411" lon="26.086411">
<ele>166.420044</ele>
<time>2010-07-17T19:13:02Z</time>
<desc>lat.=55.704411, lon.=26.086411, Alt.=166.420044m. Speed=0.036000m/h.</desc>
<speed>0.010000</speed>
</trkpt>
<trkpt lat="55.704411" lon="26.086411">
<ele>166.416138</ele>
<time>2010-07-17T19:13:03Z</time>
<desc>lat.=55.704411, lon.=26.086411, Alt.=166.416138m. Speed=0.000000m/h.</desc>
<speed>0.000000</speed>
</trkpt>
<trkpt lat="55.704411" lon="26.086411">
<ele>166.412231</ele>
<time>2010-07-17T19:13:04Z</time>
<desc>lat.=55.704411, lon.=26.086411, Alt.=166.412231m. Speed=0.036000m/h.</desc>
<speed>0.010000</speed>
</trkpt>
<trkpt lat="55.704411" lon="26.086411">
<ele>166.408325</ele>
<time>2010-07-17T19:13:05Z</time>
<desc>lat.=55.704411, lon.=26.086411, Alt.=166.408325m. Speed=0.072000m/h.</desc>
<speed>0.020000</speed>
</trkpt>
<trkpt lat="55.704411" lon="26.086411">
<ele>166.408325</ele>
<time>2010-07-17T19:13:06Z</time>
<desc>lat.=55.704411, lon.=26.086411, Alt.=166.408325m. Speed=0.000000m/h.</desc>
<speed>0.000000</speed>
</trkpt>
<trkpt lat="55.704411" lon="26.086411">
<ele>166.404419</ele>
<time>2010-07-17T19:13:07Z</time>
<desc>lat.=55.704411, lon.=26.086411, Alt.=166.404419m. Speed=0.036000m/h.</desc>
<speed>0.010000</speed>
</trkpt>
<trkpt lat="55.704411" lon="26.086411">
<ele>166.384888</ele>
<time>2010-07-17T19:13:08Z</time>
<desc>lat.=55.704411, lon.=26.086411, Alt.=166.384888m. Speed=0.108000m/h.</desc>
<speed>0.030000</speed>
</trkpt>
<trkpt lat="55.704411" lon="26.086411">
<ele>166.380981</ele>
<time>2010-07-17T19:13:09Z</time>
<desc>lat.=55.704411, lon.=26.086411, Alt.=166.380981m. Speed=0.036000m/h.</desc>
<speed>0.010000</speed>
</trkpt>
<trkpt lat="55.704411" lon="26.086411">
<ele>166.380981</ele>
<time>2010-07-17T19:13:10Z</time>
<desc>lat.=55.704411, lon.=26.086411, Alt.=166.380981m. Speed=0.036000m/h.</desc>
<speed>0.010000</speed>
</trkpt>
<trkpt lat="55.704411" lon="26.086411">
<ele>166.384888</ele>
<time>2010-07-17T19:13:11Z</time>
<desc>lat.=55.704411, lon.=26.086411, Alt.=166.384888m. Speed=0.036000m/h.</desc>
<speed>0.010000</speed>
</trkpt>
<trkpt lat="55.704411" lon="26.086411">
<ele>166.380981</ele>
<time>2010-07-17T19:13:12Z</time>
<desc>lat.=55.704411, lon.=26.086411, Alt.=166.380981m. Speed=0.036000m/h.</desc>
<speed>0.010000</speed>
</trkpt>
<trkpt lat="55.704411" lon="26.086411">
<ele>166.384888</ele>
<time>2010-07-17T19:13:13Z</time>
<desc>lat.=55.704411, lon.=26.086411, Alt.=166.384888m. Speed=0.036000m/h.</desc>
<speed>0.010000</speed>
</trkpt>
<trkpt lat="55.704411" lon="26.086411">
<ele>166.384888</ele>
<time>2010-07-17T19:13:14Z</time>
<desc>lat.=55.704411, lon.=26.086411, Alt.=166.384888m. Speed=0.000000m/h.</desc>
<speed>0.000000</speed>
</trkpt>
<trkpt lat="55.704411" lon="26.086411">
<ele>166.380981</ele>
<time>2010-07-17T19:13:15Z</time>
<desc>lat.=55.704411, lon.=26.086411, Alt.=166.380981m. Speed=0.036000m/h.</desc>
<speed>0.010000</speed>
</trkpt>
<trkpt lat="55.704411" lon="26.086411">
<ele>166.377075</ele>
<time>2010-07-17T19:13:16Z</time>
<desc>lat.=55.704411, lon.=26.086411, Alt.=166.377075m. Speed=0.144000m/h.</desc>
<speed>0.040000</speed>
</trkpt>
<trkpt lat="55.704411" lon="26.086411">
<ele>166.373169</ele>
<time>2010-07-17T19:13:17Z</time>
<desc>lat.=55.704411, lon.=26.086411, Alt.=166.373169m. Speed=0.072000m/h.</desc>
<speed>0.020000</speed>
</trkpt>
<trkpt lat="55.704414" lon="26.086411">
<ele>166.365356</ele>
<time>2010-07-17T19:13:18Z</time>
<desc>lat.=55.704414, lon.=26.086411, Alt.=166.365356m. Speed=0.108000m/h.</desc>
<speed>0.030000</speed>
</trkpt>
<trkpt lat="55.704414" lon="26.086411">
<ele>166.365356</ele>
<time>2010-07-17T19:13:19Z</time>
<desc>lat.=55.704414, lon.=26.086411, Alt.=166.365356m. Speed=0.000000m/h.</desc>
<speed>0.000000</speed>
</trkpt>
<trkpt lat="55.704414" lon="26.086411">
<ele>166.365356</ele>
<time>2010-07-17T19:13:20Z</time>
<desc>lat.=55.704414, lon.=26.086411, Alt.=166.365356m. Speed=0.000000m/h.</desc>
<speed>0.000000</speed>
</trkpt>
<trkpt lat="55.704414" lon="26.086409">
<ele>166.357544</ele>
<time>2010-07-17T19:13:21Z</time>
<desc>lat.=55.704414, lon.=26.086409, Alt.=166.357544m. Speed=0.072000m/h.</desc>
<speed>0.020000</speed>
</trkpt>
<trkpt lat="55.704414" lon="26.086409">
<ele>166.357544</ele>
<time>2010-07-17T19:13:22Z</time>
<desc>lat.=55.704414, lon.=26.086409, Alt.=166.357544m. Speed=0.036000m/h.</desc>
<speed>0.010000</speed>
</trkpt>
<trkpt lat="55.704414" lon="26.086409">
<ele>166.349731</ele>
<time>2010-07-17T19:13:23Z</time>
<desc>lat.=55.704414, lon.=26.086409, Alt.=166.349731m. Speed=0.036000m/h.</desc>
<speed>0.010000</speed>
</trkpt>
<trkpt lat="55.704414" lon="26.086409">
<ele>166.338013</ele>
<time>2010-07-17T19:13:24Z</time>
<desc>lat.=55.704414, lon.=26.086409, Alt.=166.338013m. Speed=0.072000m/h.</desc>
<speed>0.020000</speed>
</trkpt>
<trkpt lat="55.704414" lon="26.086409">
<ele>166.326294</ele>
<time>2010-07-17T19:13:25Z</time>
<desc>lat.=55.704414, lon.=26.086409, Alt.=166.326294m. Speed=0.036000m/h.</desc>
<speed>0.010000</speed>
</trkpt>
<trkpt lat="55.704411" lon="26.086409">
<ele>166.322388</ele>
<time>2010-07-17T19:13:26Z</time>
<desc>lat.=55.704411, lon.=26.086409, Alt.=166.322388m. Speed=0.108000m/h.</desc>
<speed>0.030000</speed>
</trkpt>
<trkpt lat="55.704411" lon="26.086409">
<ele>166.310669</ele>
<time>2010-07-17T19:13:27Z</time>
<desc>lat.=55.704411, lon.=26.086409, Alt.=166.310669m. Speed=0.072000m/h.</desc>
<speed>0.020000</speed>
</trkpt>
<trkpt lat="55.704411" lon="26.086409">
<ele>166.295044</ele>
<time>2010-07-17T19:13:28Z</time>
<desc>lat.=55.704411, lon.=26.086409, Alt.=166.295044m. Speed=0.072000m/h.</desc>
<speed>0.020000</speed>
</trkpt>
<trkpt lat="55.704411" lon="26.086409">
<ele>166.283325</ele>
<time>2010-07-17T19:13:29Z</time>
<desc>lat.=55.704411, lon.=26.086409, Alt.=166.283325m. Speed=0.036000m/h.</desc>
<speed>0.010000</speed>
</trkpt>
<trkpt lat="55.704411" lon="26.086409">
<ele>166.283325</ele>
<time>2010-07-17T19:13:30Z</time>
<desc>lat.=55.704411, lon.=26.086409, Alt.=166.283325m. Speed=0.000000m/h.</desc>
<speed>0.000000</speed>
</trkpt>
<trkpt lat="55.704411" lon="26.086409">
<ele>166.279419</ele>
<time>2010-07-17T19:13:31Z</time>
<desc>lat.=55.704411, lon.=26.086409, Alt.=166.279419m. Speed=0.072000m/h.</desc>
<speed>0.020000</speed>
</trkpt>
<trkpt lat="55.704411" lon="26.086409">
<ele>166.267700</ele>
<time>2010-07-17T19:13:32Z</time>
<desc>lat.=55.704411, lon.=26.086409, Alt.=166.267700m. Speed=0.072000m/h.</desc>
<speed>0.020000</speed>
</trkpt>
<trkpt lat="55.704411" lon="26.086409">
<ele>166.263794</ele>
<time>2010-07-17T19:13:33Z</time>
<desc>lat.=55.704411, lon.=26.086409, Alt.=166.263794m. Speed=0.144000m/h.</desc>
<speed>0.040000</speed>
</trkpt>
<trkpt lat="55.704411" lon="26.086409">
<ele>166.255981</ele>
<time>2010-07-17T19:13:34Z</time>
<desc>lat.=55.704411, lon.=26.086409, Alt.=166.255981m. Speed=0.072000m/h.</desc>
<speed>0.020000</speed>
</trkpt>
<trkpt lat="55.704411" lon="26.086409">
<ele>166.236450</ele>
<time>2010-07-17T19:13:35Z</time>
<desc>lat.=55.704411, lon.=26.086409, Alt.=166.236450m. Speed=0.108000m/h.</desc>
<speed>0.030000</speed>
</trkpt>
<trkpt lat="55.704411" lon="26.086409">
<ele>166.228638</ele>
<time>2010-07-17T19:13:36Z</time>
<desc>lat.=55.704411, lon.=26.086409, Alt.=166.228638m. Speed=0.036000m/h.</desc>
<speed>0.010000</speed>
</trkpt>
<trkpt lat="55.704411" lon="26.086409">
<ele>166.224731</ele>
<time>2010-07-17T19:13:37Z</time>
<desc>lat.=55.704411, lon.=26.086409, Alt.=166.224731m. Speed=0.036000m/h.</desc>
<speed>0.010000</speed>
</trkpt>
<trkpt lat="55.704411" lon="26.086407">
<ele>166.216919</ele>
<time>2010-07-17T19:13:38Z</time>
<desc>lat.=55.704411, lon.=26.086407, Alt.=166.216919m. Speed=0.036000m/h.</desc>
<speed>0.010000</speed>
</trkpt>
<trkpt lat="55.704411" lon="26.086407">
<ele>166.220825</ele>
<time>2010-07-17T19:13:39Z</time>
<desc>lat.=55.704411, lon.=26.086407, Alt.=166.220825m. Speed=0.000000m/h.</desc>
<speed>0.000000</speed>
</trkpt>
<trkpt lat="55.704411" lon="26.086407">
<ele>166.232544</ele>
<time>2010-07-17T19:13:40Z</time>
<desc>lat.=55.704411, lon.=26.086407, Alt.=166.232544m. Speed=0.000000m/h.</desc>
<speed>0.000000</speed>
</trkpt>
<trkpt lat="55.704414" lon="26.086407">
<ele>166.252075</ele>
<time>2010-07-17T19:13:41Z</time>
<desc>lat.=55.704414, lon.=26.086407, Alt.=166.252075m. Speed=0.036000m/h.</desc>
<speed>0.010000</speed>
</trkpt>
<trkpt lat="55.704414" lon="26.086407">
<ele>166.263794</ele>
<time>2010-07-17T19:13:42Z</time>
<desc>lat.=55.704414, lon.=26.086407, Alt.=166.263794m. Speed=0.072000m/h.</desc>
<speed>0.020000</speed>
</trkpt>
<trkpt lat="55.704414" lon="26.086407">
<ele>166.263794</ele>
<time>2010-07-17T19:13:43Z</time>
<desc>lat.=55.704414, lon.=26.086407, Alt.=166.263794m. Speed=0.108000m/h.</desc>
<speed>0.030000</speed>
</trkpt>
<trkpt lat="55.704414" lon="26.086407">
<ele>166.271606</ele>
<time>2010-07-17T19:13:44Z</time>
<desc>lat.=55.704414, lon.=26.086407, Alt.=166.271606m. Speed=0.072000m/h.</desc>
<speed>0.020000</speed>
</trkpt>
<trkpt lat="55.704414" lon="26.086407">
<ele>166.279419</ele>
<time>2010-07-17T19:13:45Z</time>
<desc>lat.=55.704414, lon.=26.086407, Alt.=166.279419m. Speed=0.036000m/h.</desc>
<speed>0.010000</speed>
</trkpt>
<trkpt lat="55.704414" lon="26.086407">
<ele>166.287231</ele>
<time>2010-07-17T19:13:46Z</time>
<desc>lat.=55.704414, lon.=26.086407, Alt.=166.287231m. Speed=0.000000m/h.</desc>
<speed>0.000000</speed>
</trkpt>
<trkpt lat="55.704414" lon="26.086407">
<ele>166.298950</ele>
<time>2010-07-17T19:13:47Z</time>
<desc>lat.=55.704414, lon.=26.086407, Alt.=166.298950m. Speed=0.036000m/h.</desc>
<speed>0.010000</speed>
</trkpt>
<trkpt lat="55.704414" lon="26.086407">
<ele>166.314575</ele>
<time>2010-07-17T19:13:48Z</time>
<desc>lat.=55.704414, lon.=26.086407, Alt.=166.314575m. Speed=0.036000m/h.</desc>
<speed>0.010000</speed>
</trkpt>
<trkpt lat="55.704414" lon="26.086409">
<ele>166.322388</ele>
<time>2010-07-17T19:13:49Z</time>
<desc>lat.=55.704414, lon.=26.086409, Alt.=166.322388m. Speed=0.072000m/h.</desc>
<speed>0.020000</speed>
</trkpt>
<trkpt lat="55.704414" lon="26.086409">
<ele>166.338013</ele>
<time>2010-07-17T19:13:50Z</time>
<desc>lat.=55.704414, lon.=26.086409, Alt.=166.338013m. Speed=0.000000m/h.</desc>
<speed>0.000000</speed>
</trkpt>
<trkpt lat="55.704414" lon="26.086409">
<ele>166.341919</ele>
<time>2010-07-17T19:13:51Z</time>
<desc>lat.=55.704414, lon.=26.086409, Alt.=166.341919m. Speed=0.036000m/h.</desc>
<speed>0.010000</speed>
</trkpt>
<trkpt lat="55.704414" lon="26.086409">
<ele>166.353638</ele>
<time>2010-07-17T19:13:52Z</time>
<desc>lat.=55.704414, lon.=26.086409, Alt.=166.353638m. Speed=0.072000m/h.</desc>
<speed>0.020000</speed>
</trkpt>
<trkpt lat="55.704414" lon="26.086409">
<ele>166.353638</ele>
<time>2010-07-17T19:13:53Z</time>
<desc>lat.=55.704414, lon.=26.086409, Alt.=166.353638m. Speed=0.108000m/h.</desc>
<speed>0.030000</speed>
</trkpt>
<trkpt lat="55.704414" lon="26.086409">
<ele>166.357544</ele>
<time>2010-07-17T19:13:54Z</time>
<desc>lat.=55.704414, lon.=26.086409, Alt.=166.357544m. Speed=0.036000m/h.</desc>
<speed>0.010000</speed>
</trkpt>
<trkpt lat="55.704414" lon="26.086409">
<ele>166.361450</ele>
<time>2010-07-17T19:13:55Z</time>
<desc>lat.=55.704414, lon.=26.086409, Alt.=166.361450m. Speed=0.036000m/h.</desc>
<speed>0.010000</speed>
</trkpt>
<trkpt lat="55.704414" lon="26.086409">
<ele>166.377075</ele>
<time>2010-07-17T19:13:56Z</time>
<desc>lat.=55.704414, lon.=26.086409, Alt.=166.377075m. Speed=0.000000m/h.</desc>
<speed>0.000000</speed>
</trkpt>
<trkpt lat="55.704414" lon="26.086409">
<ele>166.388794</ele>
<time>2010-07-17T19:13:57Z</time>
<desc>lat.=55.704414, lon.=26.086409, Alt.=166.388794m. Speed=0.036000m/h.</desc>
<speed>0.010000</speed>
</trkpt>
<trkpt lat="55.704414" lon="26.086409">
<ele>166.388794</ele>
<time>2010-07-17T19:13:58Z</time>
<desc>lat.=55.704414, lon.=26.086409, Alt.=166.388794m. Speed=0.072000m/h.</desc>
<speed>0.020000</speed>
</trkpt>
<trkpt lat="55.704414" lon="26.086409">
<ele>166.392700</ele>
<time>2010-07-17T19:13:59Z</time>
<desc>lat.=55.704414, lon.=26.086409, Alt.=166.392700m. Speed=0.036000m/h.</desc>
<speed>0.010000</speed>
</trkpt>
<trkpt lat="55.704414" lon="26.086409">
<ele>166.396606</ele>
<time>2010-07-17T19:14:00Z</time>
<desc>lat.=55.704414, lon.=26.086409, Alt.=166.396606m. Speed=0.036000m/h.</desc>
<speed>0.010000</speed>
</trkpt>
<trkpt lat="55.704414" lon="26.086409">
<ele>166.408325</ele>
<time>2010-07-17T19:14:01Z</time>
<desc>lat.=55.704414, lon.=26.086409, Alt.=166.408325m. Speed=0.036000m/h.</desc>
<speed>0.010000</speed>
</trkpt>
<trkpt lat="55.704414" lon="26.086409">
<ele>166.420044</ele>
<time>2010-07-17T19:14:02Z</time>
<desc>lat.=55.704414, lon.=26.086409, Alt.=166.420044m. Speed=0.036000m/h.</desc>
<speed>0.010000</speed>
</trkpt>
<trkpt lat="55.704414" lon="26.086409">
<ele>166.435669</ele>
<time>2010-07-17T19:14:03Z</time>
<desc>lat.=55.704414, lon.=26.086409, Alt.=166.435669m. Speed=0.036000m/h.</desc>
<speed>0.010000</speed>
</trkpt>
<trkpt lat="55.704414" lon="26.086409">
<ele>166.447388</ele>
<time>2010-07-17T19:14:04Z</time>
<desc>lat.=55.704414, lon.=26.086409, Alt.=166.447388m. Speed=0.072000m/h.</desc>
<speed>0.020000</speed>
</trkpt>
<trkpt lat="55.704414" lon="26.086409">
<ele>166.466919</ele>
<time>2010-07-17T19:14:05Z</time>
<desc>lat.=55.704414, lon.=26.086409, Alt.=166.466919m. Speed=0.036000m/h.</desc>
<speed>0.010000</speed>
</trkpt>
<trkpt lat="55.704414" lon="26.086409">
<ele>166.474731</ele>
<time>2010-07-17T19:14:06Z</time>
<desc>lat.=55.704414, lon.=26.086409, Alt.=166.474731m. Speed=0.000000m/h.</desc>
<speed>0.000000</speed>
</trkpt>
<trkpt lat="55.704414" lon="26.086409">
<ele>166.494263</ele>
<time>2010-07-17T19:14:07Z</time>
<desc>lat.=55.704414, lon.=26.086409, Alt.=166.494263m. Speed=0.036000m/h.</desc>
<speed>0.010000</speed>
</trkpt>
<trkpt lat="55.704414" lon="26.086409">
<ele>166.505981</ele>
<time>2010-07-17T19:14:08Z</time>
<desc>lat.=55.704414, lon.=26.086409, Alt.=166.505981m. Speed=0.036000m/h.</desc>
<speed>0.010000</speed>
</trkpt>
<trkpt lat="55.704414" lon="26.086407">
<ele>166.521606</ele>
<time>2010-07-17T19:14:09Z</time>
<desc>lat.=55.704414, lon.=26.086407, Alt.=166.521606m. Speed=0.180000m/h.</desc>
<speed>0.050000</speed>
</trkpt>
<trkpt lat="55.704414" lon="26.086407">
<ele>166.533325</ele>
<time>2010-07-17T19:14:10Z</time>
<desc>lat.=55.704414, lon.=26.086407, Alt.=166.533325m. Speed=0.072000m/h.</desc>
<speed>0.020000</speed>
</trkpt>
<trkpt lat="55.704414" lon="26.086407">
<ele>166.548950</ele>
<time>2010-07-17T19:14:11Z</time>
<desc>lat.=55.704414, lon.=26.086407, Alt.=166.548950m. Speed=0.108000m/h.</desc>
<speed>0.030000</speed>
</trkpt>
<trkpt lat="55.704414" lon="26.086407">
<ele>166.560669</ele>
<time>2010-07-17T19:14:12Z</time>
<desc>lat.=55.704414, lon.=26.086407, Alt.=166.560669m. Speed=0.072000m/h.</desc>
<speed>0.020000</speed>
</trkpt>
<trkpt lat="55.704414" lon="26.086407">
<ele>166.576294</ele>
<time>2010-07-17T19:14:13Z</time>
<desc>lat.=55.704414, lon.=26.086407, Alt.=166.576294m. Speed=0.072000m/h.</desc>
<speed>0.020000</speed>
</trkpt>
<trkpt lat="55.704414" lon="26.086407">
<ele>166.588013</ele>
<time>2010-07-17T19:14:14Z</time>
<desc>lat.=55.704414, lon.=26.086407, Alt.=166.588013m. Speed=0.036000m/h.</desc>
<speed>0.010000</speed>
</trkpt>
<trkpt lat="55.704414" lon="26.086407">
<ele>166.607544</ele>
<time>2010-07-17T19:14:15Z</time>
<desc>lat.=55.704414, lon.=26.086407, Alt.=166.607544m. Speed=0.036000m/h.</desc>
<speed>0.010000</speed>
</trkpt>
<trkpt lat="55.704414" lon="26.086407">
<ele>166.623169</ele>
<time>2010-07-17T19:14:16Z</time>
<desc>lat.=55.704414, lon.=26.086407, Alt.=166.623169m. Speed=0.036000m/h.</desc>
<speed>0.010000</speed>
</trkpt>
<trkpt lat="55.704414" lon="26.086407">
<ele>166.630981</ele>
<time>2010-07-17T19:14:17Z</time>
<desc>lat.=55.704414, lon.=26.086407, Alt.=166.630981m. Speed=0.144000m/h.</desc>
<speed>0.040000</speed>
</trkpt>
<trkpt lat="55.704414" lon="26.086407">
<ele>166.646606</ele>
<time>2010-07-17T19:14:18Z</time>
<desc>lat.=55.704414, lon.=26.086407, Alt.=166.646606m. Speed=0.072000m/h.</desc>
<speed>0.020000</speed>
</trkpt>
<trkpt lat="55.704414" lon="26.086407">
<ele>166.662231</ele>
<time>2010-07-17T19:14:19Z</time>
<desc>lat.=55.704414, lon.=26.086407, Alt.=166.662231m. Speed=0.072000m/h.</desc>
<speed>0.020000</speed>
</trkpt>
<trkpt lat="55.704414" lon="26.086407">
<ele>166.673950</ele>
<time>2010-07-17T19:14:20Z</time>
<desc>lat.=55.704414, lon.=26.086407, Alt.=166.673950m. Speed=0.108000m/h.</desc>
<speed>0.030000</speed>
</trkpt>
<trkpt lat="55.704414" lon="26.086407">
<ele>166.681763</ele>
<time>2010-07-17T19:14:21Z</time>
<desc>lat.=55.704414, lon.=26.086407, Alt.=166.681763m. Speed=0.000000m/h.</desc>
<speed>0.000000</speed>
</trkpt>
<trkpt lat="55.704414" lon="26.086407">
<ele>166.689575</ele>
<time>2010-07-17T19:14:22Z</time>
<desc>lat.=55.704414, lon.=26.086407, Alt.=166.689575m. Speed=0.072000m/h.</desc>
<speed>0.020000</speed>
</trkpt>
<trkpt lat="55.704414" lon="26.086407">
<ele>166.697388</ele>
<time>2010-07-17T19:14:23Z</time>
<desc>lat.=55.704414, lon.=26.086407, Alt.=166.697388m. Speed=0.072000m/h.</desc>
<speed>0.020000</speed>
</trkpt>
<trkpt lat="55.704414" lon="26.086405">
<ele>166.705200</ele>
<time>2010-07-17T19:14:24Z</time>
<desc>lat.=55.704414, lon.=26.086405, Alt.=166.705200m. Speed=0.072000m/h.</desc>
<speed>0.020000</speed>
</trkpt>
<trkpt lat="55.704414" lon="26.086405">
<ele>166.713013</ele>
<time>2010-07-17T19:14:25Z</time>
<desc>lat.=55.704414, lon.=26.086405, Alt.=166.713013m. Speed=0.144000m/h.</desc>
<speed>0.040000</speed>
</trkpt>
<trkpt lat="55.704414" lon="26.086405">
<ele>166.724731</ele>
<time>2010-07-17T19:14:26Z</time>
<desc>lat.=55.704414, lon.=26.086405, Alt.=166.724731m. Speed=0.072000m/h.</desc>
<speed>0.020000</speed>
</trkpt>
<trkpt lat="55.704414" lon="26.086405">
<ele>166.736450</ele>
<time>2010-07-17T19:14:27Z</time>
<desc>lat.=55.704414, lon.=26.086405, Alt.=166.736450m. Speed=0.108000m/h.</desc>
<speed>0.030000</speed>
</trkpt>
<trkpt lat="55.704414" lon="26.086405">
<ele>166.736450</ele>
<time>2010-07-17T19:14:28Z</time>
<desc>lat.=55.704414, lon.=26.086405, Alt.=166.736450m. Speed=0.072000m/h.</desc>
<speed>0.020000</speed>
</trkpt>
<trkpt lat="55.704414" lon="26.086405">
<ele>166.748169</ele>
<time>2010-07-17T19:14:29Z</time>
<desc>lat.=55.704414, lon.=26.086405, Alt.=166.748169m. Speed=0.072000m/h.</desc>
<speed>0.020000</speed>
</trkpt>
<trkpt lat="55.704414" lon="26.086405">
<ele>166.755981</ele>
<time>2010-07-17T19:14:30Z</time>
<desc>lat.=55.704414, lon.=26.086405, Alt.=166.755981m. Speed=0.036000m/h.</desc>
<speed>0.010000</speed>
</trkpt>
<trkpt lat="55.704414" lon="26.086405">
<ele>166.759888</ele>
<time>2010-07-17T19:14:31Z</time>
<desc>lat.=55.704414, lon.=26.086405, Alt.=166.759888m. Speed=0.036000m/h.</desc>
<speed>0.010000</speed>
</trkpt>
<trkpt lat="55.704414" lon="26.086405">
<ele>166.771606</ele>
<time>2010-07-17T19:14:32Z</time>
<desc>lat.=55.704414, lon.=26.086405, Alt.=166.771606m. Speed=0.072000m/h.</desc>
<speed>0.020000</speed>
</trkpt>
<trkpt lat="55.704414" lon="26.086405">
<ele>166.779419</ele>
<time>2010-07-17T19:14:33Z</time>
<desc>lat.=55.704414, lon.=26.086405, Alt.=166.779419m. Speed=0.072000m/h.</desc>
<speed>0.020000</speed>
</trkpt>
<trkpt lat="55.704414" lon="26.086405">
<ele>166.791138</ele>
<time>2010-07-17T19:14:34Z</time>
<desc>lat.=55.704414, lon.=26.086405, Alt.=166.791138m. Speed=0.072000m/h.</desc>
<speed>0.020000</speed>
</trkpt>
<trkpt lat="55.704414" lon="26.086405">
<ele>166.798950</ele>
<time>2010-07-17T19:14:35Z</time>
<desc>lat.=55.704414, lon.=26.086405, Alt.=166.798950m. Speed=0.036000m/h.</desc>
<speed>0.010000</speed>
</trkpt>
<trkpt lat="55.704414" lon="26.086405">
<ele>166.810669</ele>
<time>2010-07-17T19:14:36Z</time>
<desc>lat.=55.704414, lon.=26.086405, Alt.=166.810669m. Speed=0.036000m/h.</desc>
<speed>0.010000</speed>
</trkpt>
<trkpt lat="55.704414" lon="26.086405">
<ele>166.826294</ele>
<time>2010-07-17T19:14:37Z</time>
<desc>lat.=55.704414, lon.=26.086405, Alt.=166.826294m. Speed=0.000000m/h.</desc>
<speed>0.000000</speed>
</trkpt>
<trkpt lat="55.704414" lon="26.086403">
<ele>166.834106</ele>
<time>2010-07-17T19:14:38Z</time>
<desc>lat.=55.704414, lon.=26.086403, Alt.=166.834106m. Speed=0.144000m/h.</desc>
<speed>0.040000</speed>
</trkpt>
<trkpt lat="55.704414" lon="26.086403">
<ele>166.838013</ele>
<time>2010-07-17T19:14:39Z</time>
<desc>lat.=55.704414, lon.=26.086403, Alt.=166.838013m. Speed=0.072000m/h.</desc>
<speed>0.020000</speed>
</trkpt>
<trkpt lat="55.704414" lon="26.086403">
<ele>166.830200</ele>
<time>2010-07-17T19:14:40Z</time>
<desc>lat.=55.704414, lon.=26.086403, Alt.=166.830200m. Speed=0.072000m/h.</desc>
<speed>0.020000</speed>
</trkpt>
<trkpt lat="55.704414" lon="26.086403">
<ele>166.830200</ele>
<time>2010-07-17T19:14:41Z</time>
<desc>lat.=55.704414, lon.=26.086403, Alt.=166.830200m. Speed=0.108000m/h.</desc>
<speed>0.030000</speed>
</trkpt>
<trkpt lat="55.704414" lon="26.086405">
<ele>166.826294</ele>
<time>2010-07-17T19:14:42Z</time>
<desc>lat.=55.704414, lon.=26.086405, Alt.=166.826294m. Speed=0.036000m/h.</desc>
<speed>0.010000</speed>
</trkpt>
<trkpt lat="55.704414" lon="26.086403">
<ele>166.826294</ele>
<time>2010-07-17T19:14:43Z</time>
<desc>lat.=55.704414, lon.=26.086403, Alt.=166.826294m. Speed=0.108000m/h.</desc>
<speed>0.030000</speed>
</trkpt>
<trkpt lat="55.704414" lon="26.086403">
<ele>166.826294</ele>
<time>2010-07-17T19:14:44Z</time>
<desc>lat.=55.704414, lon.=26.086403, Alt.=166.826294m. Speed=0.144000m/h.</desc>
<speed>0.040000</speed>
</trkpt>
<trkpt lat="55.704414" lon="26.086403">
<ele>166.818481</ele>
<time>2010-07-17T19:14:45Z</time>
<desc>lat.=55.704414, lon.=26.086403, Alt.=166.818481m. Speed=0.108000m/h.</desc>
<speed>0.030000</speed>
</trkpt>
<trkpt lat="55.704414" lon="26.086403">
<ele>166.814575</ele>
<time>2010-07-17T19:14:46Z</time>
<desc>lat.=55.704414, lon.=26.086403, Alt.=166.814575m. Speed=0.108000m/h.</desc>
<speed>0.030000</speed>
</trkpt>
<trkpt lat="55.704414" lon="26.086403">
<ele>166.810669</ele>
<time>2010-07-17T19:14:47Z</time>
<desc>lat.=55.704414, lon.=26.086403, Alt.=166.810669m. Speed=0.036000m/h.</desc>
<speed>0.010000</speed>
</trkpt>
<trkpt lat="55.704414" lon="26.086403">
<ele>166.795044</ele>
<time>2010-07-17T19:14:48Z</time>
<desc>lat.=55.704414, lon.=26.086403, Alt.=166.795044m. Speed=0.036000m/h.</desc>
<speed>0.010000</speed>
</trkpt>
<trkpt lat="55.704414" lon="26.086403">
<ele>166.787231</ele>
<time>2010-07-17T19:14:49Z</time>
<desc>lat.=55.704414, lon.=26.086403, Alt.=166.787231m. Speed=0.072000m/h.</desc>
<speed>0.020000</speed>
</trkpt>
<trkpt lat="55.704414" lon="26.086403">
<ele>166.775513</ele>
<time>2010-07-17T19:14:50Z</time>
<desc>lat.=55.704414, lon.=26.086403, Alt.=166.775513m. Speed=0.036000m/h.</desc>
<speed>0.010000</speed>
</trkpt>
<trkpt lat="55.704414" lon="26.086403">
<ele>166.767700</ele>
<time>2010-07-17T19:14:51Z</time>
<desc>lat.=55.704414, lon.=26.086403, Alt.=166.767700m. Speed=0.036000m/h.</desc>
<speed>0.010000</speed>
</trkpt>
<trkpt lat="55.704411" lon="26.086403">
<ele>166.763794</ele>
<time>2010-07-17T19:14:52Z</time>
<desc>lat.=55.704411, lon.=26.086403, Alt.=166.763794m. Speed=0.108000m/h.</desc>
<speed>0.030000</speed>
</trkpt>
<trkpt lat="55.704411" lon="26.086403">
<ele>166.755981</ele>
<time>2010-07-17T19:14:53Z</time>
<desc>lat.=55.704411, lon.=26.086403, Alt.=166.755981m. Speed=0.108000m/h.</desc>
<speed>0.030000</speed>
</trkpt>
<trkpt lat="55.704411" lon="26.086403">
<ele>166.748169</ele>
<time>2010-07-17T19:14:54Z</time>
<desc>lat.=55.704411, lon.=26.086403, Alt.=166.748169m. Speed=0.036000m/h.</desc>
<speed>0.010000</speed>
</trkpt>
<trkpt lat="55.704411" lon="26.086403">
<ele>166.744263</ele>
<time>2010-07-17T19:14:55Z</time>
<desc>lat.=55.704411, lon.=26.086403, Alt.=166.744263m. Speed=0.072000m/h.</desc>
<speed>0.020000</speed>
</trkpt>
<trkpt lat="55.704411" lon="26.086403">
<ele>166.744263</ele>
<time>2010-07-17T19:14:56Z</time>
<desc>lat.=55.704411, lon.=26.086403, Alt.=166.744263m. Speed=0.144000m/h.</desc>
<speed>0.040000</speed>
</trkpt>
<trkpt lat="55.704411" lon="26.086403">
<ele>166.736450</ele>
<time>2010-07-17T19:14:57Z</time>
<desc>lat.=55.704411, lon.=26.086403, Alt.=166.736450m. Speed=0.072000m/h.</desc>
<speed>0.020000</speed>
</trkpt>
<trkpt lat="55.704411" lon="26.086403">
<ele>166.736450</ele>
<time>2010-07-17T19:14:58Z</time>
<desc>lat.=55.704411, lon.=26.086403, Alt.=166.736450m. Speed=0.180000m/h.</desc>
<speed>0.050000</speed>
</trkpt>
<trkpt lat="55.704411" lon="26.086403">
<ele>166.732544</ele>
<time>2010-07-17T19:14:59Z</time>
<desc>lat.=55.704411, lon.=26.086403, Alt.=166.732544m. Speed=0.036000m/h.</desc>
<speed>0.010000</speed>
</trkpt>
<trkpt lat="55.704411" lon="26.086403">
<ele>166.728638</ele>
<time>2010-07-17T19:15:00Z</time>
<desc>lat.=55.704411, lon.=26.086403, Alt.=166.728638m. Speed=0.036000m/h.</desc>
<speed>0.010000</speed>
</trkpt>
<trkpt lat="55.704411" lon="26.086403">
<ele>166.728638</ele>
<time>2010-07-17T19:15:01Z</time>
<desc>lat.=55.704411, lon.=26.086403, Alt.=166.728638m. Speed=0.072000m/h.</desc>
<speed>0.020000</speed>
</trkpt>
<trkpt lat="55.704411" lon="26.086403">
<ele>166.724731</ele>
<time>2010-07-17T19:15:02Z</time>
<desc>lat.=55.704411, lon.=26.086403, Alt.=166.724731m. Speed=0.000000m/h.</desc>
<speed>0.000000</speed>
</trkpt>
<trkpt lat="55.704411" lon="26.086403">
<ele>166.720825</ele>
<time>2010-07-17T19:15:03Z</time>
<desc>lat.=55.704411, lon.=26.086403, Alt.=166.720825m. Speed=0.108000m/h.</desc>
<speed>0.030000</speed>
</trkpt>
<trkpt lat="55.704411" lon="26.086403">
<ele>166.716919</ele>
<time>2010-07-17T19:15:04Z</time>
<desc>lat.=55.704411, lon.=26.086403, Alt.=166.716919m. Speed=0.072000m/h.</desc>
<speed>0.020000</speed>
</trkpt>
<trkpt lat="55.704411" lon="26.086403">
<ele>166.716919</ele>
<time>2010-07-17T19:15:05Z</time>
<desc>lat.=55.704411, lon.=26.086403, Alt.=166.716919m. Speed=0.072000m/h.</desc>
<speed>0.020000</speed>
</trkpt>
<trkpt lat="55.704411" lon="26.086403">
<ele>166.713013</ele>
<time>2010-07-17T19:15:06Z</time>
<desc>lat.=55.704411, lon.=26.086403, Alt.=166.713013m. Speed=0.108000m/h.</desc>
<speed>0.030000</speed>
</trkpt>
<trkpt lat="55.704411" lon="26.086403">
<ele>166.709106</ele>
<time>2010-07-17T19:15:07Z</time>
<desc>lat.=55.704411, lon.=26.086403, Alt.=166.709106m. Speed=0.180000m/h.</desc>
<speed>0.050000</speed>
</trkpt>
<trkpt lat="55.704411" lon="26.086403">
<ele>166.701294</ele>
<time>2010-07-17T19:15:08Z</time>
<desc>lat.=55.704411, lon.=26.086403, Alt.=166.701294m. Speed=0.180000m/h.</desc>
<speed>0.050000</speed>
</trkpt>
<trkpt lat="55.704411" lon="26.086403">
<ele>166.697388</ele>
<time>2010-07-17T19:15:09Z</time>
<desc>lat.=55.704411, lon.=26.086403, Alt.=166.697388m. Speed=0.072000m/h.</desc>
<speed>0.020000</speed>
</trkpt>
<trkpt lat="55.704411" lon="26.086403">
<ele>166.685669</ele>
<time>2010-07-17T19:15:10Z</time>
<desc>lat.=55.704411, lon.=26.086403, Alt.=166.685669m. Speed=0.036000m/h.</desc>
<speed>0.010000</speed>
</trkpt>
<trkpt lat="55.704411" lon="26.086403">
<ele>166.681763</ele>
<time>2010-07-17T19:15:11Z</time>
<desc>lat.=55.704411, lon.=26.086403, Alt.=166.681763m. Speed=0.072000m/h.</desc>
<speed>0.020000</speed>
</trkpt>
<trkpt lat="55.704411" lon="26.086403">
<ele>166.681763</ele>
<time>2010-07-17T19:15:12Z</time>
<desc>lat.=55.704411, lon.=26.086403, Alt.=166.681763m. Speed=0.036000m/h.</desc>
<speed>0.010000</speed>
</trkpt>
<trkpt lat="55.704411" lon="26.086403">
<ele>166.677856</ele>
<time>2010-07-17T19:15:13Z</time>
<desc>lat.=55.704411, lon.=26.086403, Alt.=166.677856m. Speed=0.072000m/h.</desc>
<speed>0.020000</speed>
</trkpt>
<trkpt lat="55.704411" lon="26.086403">
<ele>166.677856</ele>
<time>2010-07-17T19:15:14Z</time>
<desc>lat.=55.704411, lon.=26.086403, Alt.=166.677856m. Speed=0.180000m/h.</desc>
<speed>0.050000</speed>
</trkpt>
<trkpt lat="55.704411" lon="26.086403">
<ele>166.681763</ele>
<time>2010-07-17T19:15:15Z</time>
<desc>lat.=55.704411, lon.=26.086403, Alt.=166.681763m. Speed=0.072000m/h.</desc>
<speed>0.020000</speed>
</trkpt>
<trkpt lat="55.704411" lon="26.086403">
<ele>166.681763</ele>
<time>2010-07-17T19:15:16Z</time>
<desc>lat.=55.704411, lon.=26.086403, Alt.=166.681763m. Speed=0.072000m/h.</desc>
<speed>0.020000</speed>
</trkpt>
<trkpt lat="55.704411" lon="26.086403">
<ele>166.681763</ele>
<time>2010-07-17T19:15:17Z</time>
<desc>lat.=55.704411, lon.=26.086403, Alt.=166.681763m. Speed=0.144000m/h.</desc>
<speed>0.040000</speed>
</trkpt>
<trkpt lat="55.704411" lon="26.086403">
<ele>166.685669</ele>
<time>2010-07-17T19:15:18Z</time>
<desc>lat.=55.704411, lon.=26.086403, Alt.=166.685669m. Speed=0.072000m/h.</desc>
<speed>0.020000</speed>
</trkpt>
<trkpt lat="55.704411" lon="26.086403">
<ele>166.685669</ele>
<time>2010-07-17T19:15:19Z</time>
<desc>lat.=55.704411, lon.=26.086403, Alt.=166.685669m. Speed=0.000000m/h.</desc>
<speed>0.000000</speed>
</trkpt>
<trkpt lat="55.704411" lon="26.086403">
<ele>166.685669</ele>
<time>2010-07-17T19:15:20Z</time>
<desc>lat.=55.704411, lon.=26.086403, Alt.=166.685669m. Speed=0.108000m/h.</desc>
<speed>0.030000</speed>
</trkpt>
<trkpt lat="55.704411" lon="26.086403">
<ele>166.685669</ele>
<time>2010-07-17T19:15:21Z</time>
<desc>lat.=55.704411, lon.=26.086403, Alt.=166.685669m. Speed=0.072000m/h.</desc>
<speed>0.020000</speed>
</trkpt>
<trkpt lat="55.704407" lon="26.086403">
<ele>166.685669</ele>
<time>2010-07-17T19:15:22Z</time>
<desc>lat.=55.704407, lon.=26.086403, Alt.=166.685669m. Speed=0.108000m/h.</desc>
<speed>0.030000</speed>
</trkpt>
<trkpt lat="55.704407" lon="26.086403">
<ele>166.681763</ele>
<time>2010-07-17T19:15:23Z</time>
<desc>lat.=55.704407, lon.=26.086403, Alt.=166.681763m. Speed=0.036000m/h.</desc>
<speed>0.010000</speed>
</trkpt>
<trkpt lat="55.704407" lon="26.086403">
<ele>166.681763</ele>
<time>2010-07-17T19:15:24Z</time>
<desc>lat.=55.704407, lon.=26.086403, Alt.=166.681763m. Speed=0.072000m/h.</desc>
<speed>0.020000</speed>
</trkpt>
<trkpt lat="55.704407" lon="26.086403">
<ele>166.681763</ele>
<time>2010-07-17T19:15:25Z</time>
<desc>lat.=55.704407, lon.=26.086403, Alt.=166.681763m. Speed=0.000000m/h.</desc>
<speed>0.000000</speed>
</trkpt>
<trkpt lat="55.704411" lon="26.086403">
<ele>166.685669</ele>
<time>2010-07-17T19:15:26Z</time>
<desc>lat.=55.704411, lon.=26.086403, Alt.=166.685669m. Speed=0.108000m/h.</desc>
<speed>0.030000</speed>
</trkpt>
<trkpt lat="55.704411" lon="26.086403">
<ele>166.689575</ele>
<time>2010-07-17T19:15:27Z</time>
<desc>lat.=55.704411, lon.=26.086403, Alt.=166.689575m. Speed=0.036000m/h.</desc>
<speed>0.010000</speed>
</trkpt>
<trkpt lat="55.704411" lon="26.086403">
<ele>166.705200</ele>
<time>2010-07-17T19:15:28Z</time>
<desc>lat.=55.704411, lon.=26.086403, Alt.=166.705200m. Speed=0.036000m/h.</desc>
<speed>0.010000</speed>
</trkpt>
<trkpt lat="55.704411" lon="26.086403">
<ele>166.720825</ele>
<time>2010-07-17T19:15:29Z</time>
<desc>lat.=55.704411, lon.=26.086403, Alt.=166.720825m. Speed=0.036000m/h.</desc>
<speed>0.010000</speed>
</trkpt>
<trkpt lat="55.704411" lon="26.086403">
<ele>166.724731</ele>
<time>2010-07-17T19:15:30Z</time>
<desc>lat.=55.704411, lon.=26.086403, Alt.=166.724731m. Speed=0.036000m/h.</desc>
<speed>0.010000</speed>
</trkpt>
<trkpt lat="55.704411" lon="26.086403">
<ele>166.732544</ele>
<time>2010-07-17T19:15:31Z</time>
<desc>lat.=55.704411, lon.=26.086403, Alt.=166.732544m. Speed=0.036000m/h.</desc>
<speed>0.010000</speed>
</trkpt>
<trkpt lat="55.704411" lon="26.086403">
<ele>166.728638</ele>
<time>2010-07-17T19:15:32Z</time>
<desc>lat.=55.704411, lon.=26.086403, Alt.=166.728638m. Speed=0.000000m/h.</desc>
<speed>0.000000</speed>
</trkpt>
<trkpt lat="55.704411" lon="26.086403">
<ele>166.728638</ele>
<time>2010-07-17T19:15:33Z</time>
<desc>lat.=55.704411, lon.=26.086403, Alt.=166.728638m. Speed=0.000000m/h.</desc>
<speed>0.000000</speed>
</trkpt>
<trkpt lat="55.704411" lon="26.086403">
<ele>166.728638</ele>
<time>2010-07-17T19:15:34Z</time>
<desc>lat.=55.704411, lon.=26.086403, Alt.=166.728638m. Speed=0.036000m/h.</desc>
<speed>0.010000</speed>
</trkpt>
<trkpt lat="55.704411" lon="26.086403">
<ele>166.728638</ele>
<time>2010-07-17T19:15:35Z</time>
<desc>lat.=55.704411, lon.=26.086403, Alt.=166.728638m. Speed=0.036000m/h.</desc>
<speed>0.010000</speed>
</trkpt>
<trkpt lat="55.704411" lon="26.086403">
<ele>166.728638</ele>
<time>2010-07-17T19:15:36Z</time>
<desc>lat.=55.704411, lon.=26.086403, Alt.=166.728638m. Speed=0.000000m/h.</desc>
<speed>0.000000</speed>
</trkpt>
<trkpt lat="55.704411" lon="26.086403">
<ele>166.728638</ele>
<time>2010-07-17T19:15:37Z</time>
<desc>lat.=55.704411, lon.=26.086403, Alt.=166.728638m. Speed=0.036000m/h.</desc>
<speed>0.010000</speed>
</trkpt>
<trkpt lat="55.704411" lon="26.086403">
<ele>166.732544</ele>
<time>2010-07-17T19:15:38Z</time>
<desc>lat.=55.704411, lon.=26.086403, Alt.=166.732544m. Speed=0.072000m/h.</desc>
<speed>0.020000</speed>
</trkpt>
<trkpt lat="55.704411" lon="26.086403">
<ele>166.732544</ele>
<time>2010-07-17T19:15:39Z</time>
<desc>lat.=55.704411, lon.=26.086403, Alt.=166.732544m. Speed=0.072000m/h.</desc>
<speed>0.020000</speed>
</trkpt>
<trkpt lat="55.704411" lon="26.086403">
<ele>166.728638</ele>
<time>2010-07-17T19:15:40Z</time>
<desc>lat.=55.704411, lon.=26.086403, Alt.=166.728638m. Speed=0.072000m/h.</desc>
<speed>0.020000</speed>
</trkpt>
<trkpt lat="55.704411" lon="26.086403">
<ele>166.724731</ele>
<time>2010-07-17T19:15:41Z</time>
<desc>lat.=55.704411, lon.=26.086403, Alt.=166.724731m. Speed=0.000000m/h.</desc>
<speed>0.000000</speed>
</trkpt>
<trkpt lat="55.704411" lon="26.086403">
<ele>166.724731</ele>
<time>2010-07-17T19:15:42Z</time>
<desc>lat.=55.704411, lon.=26.086403, Alt.=166.724731m. Speed=0.072000m/h.</desc>
<speed>0.020000</speed>
</trkpt>
<trkpt lat="55.704411" lon="26.086403">
<ele>166.720825</ele>
<time>2010-07-17T19:15:43Z</time>
<desc>lat.=55.704411, lon.=26.086403, Alt.=166.720825m. Speed=0.036000m/h.</desc>
<speed>0.010000</speed>
</trkpt>
<trkpt lat="55.704411" lon="26.086403">
<ele>166.716919</ele>
<time>2010-07-17T19:15:44Z</time>
<desc>lat.=55.704411, lon.=26.086403, Alt.=166.716919m. Speed=0.036000m/h.</desc>
<speed>0.010000</speed>
</trkpt>
<trkpt lat="55.704411" lon="26.086403">
<ele>166.709106</ele>
<time>2010-07-17T19:15:45Z</time>
<desc>lat.=55.704411, lon.=26.086403, Alt.=166.709106m. Speed=0.036000m/h.</desc>
<speed>0.010000</speed>
</trkpt>
<trkpt lat="55.704411" lon="26.086403">
<ele>166.709106</ele>
<time>2010-07-17T19:15:46Z</time>
<desc>lat.=55.704411, lon.=26.086403, Alt.=166.709106m. Speed=0.036000m/h.</desc>
<speed>0.010000</speed>
</trkpt>
<trkpt lat="55.704411" lon="26.086403">
<ele>166.705200</ele>
<time>2010-07-17T19:15:47Z</time>
<desc>lat.=55.704411, lon.=26.086403, Alt.=166.705200m. Speed=0.072000m/h.</desc>
<speed>0.020000</speed>
</trkpt>
<trkpt lat="55.704411" lon="26.086403">
<ele>166.701294</ele>
<time>2010-07-17T19:15:48Z</time>
<desc>lat.=55.704411, lon.=26.086403, Alt.=166.701294m. Speed=0.072000m/h.</desc>
<speed>0.020000</speed>
</trkpt>
<trkpt lat="55.704411" lon="26.086403">
<ele>166.701294</ele>
<time>2010-07-17T19:15:49Z</time>
<desc>lat.=55.704411, lon.=26.086403, Alt.=166.701294m. Speed=0.072000m/h.</desc>
<speed>0.020000</speed>
</trkpt>
<trkpt lat="55.704411" lon="26.086403">
<ele>166.697388</ele>
<time>2010-07-17T19:15:50Z</time>
<desc>lat.=55.704411, lon.=26.086403, Alt.=166.697388m. Speed=0.072000m/h.</desc>
<speed>0.020000</speed>
</trkpt>
<trkpt lat="55.704411" lon="26.086403">
<ele>166.697388</ele>
<time>2010-07-17T19:15:51Z</time>
<desc>lat.=55.704411, lon.=26.086403, Alt.=166.697388m. Speed=0.072000m/h.</desc>
<speed>0.020000</speed>
</trkpt>
<trkpt lat="55.704411" lon="26.086403">
<ele>166.689575</ele>
<time>2010-07-17T19:15:52Z</time>
<desc>lat.=55.704411, lon.=26.086403, Alt.=166.689575m. Speed=0.000000m/h.</desc>
<speed>0.000000</speed>
</trkpt>
<trkpt lat="55.704411" lon="26.086403">
<ele>166.689575</ele>
<time>2010-07-17T19:15:53Z</time>
<desc>lat.=55.704411, lon.=26.086403, Alt.=166.689575m. Speed=0.072000m/h.</desc>
<speed>0.020000</speed>
</trkpt>
<trkpt lat="55.704411" lon="26.086403">
<ele>166.685669</ele>
<time>2010-07-17T19:15:54Z</time>
<desc>lat.=55.704411, lon.=26.086403, Alt.=166.685669m. Speed=0.036000m/h.</desc>
<speed>0.010000</speed>
</trkpt>
<trkpt lat="55.704411" lon="26.086403">
<ele>166.673950</ele>
<time>2010-07-17T19:15:55Z</time>
<desc>lat.=55.704411, lon.=26.086403, Alt.=166.673950m. Speed=0.036000m/h.</desc>
<speed>0.010000</speed>
</trkpt>
<trkpt lat="55.704411" lon="26.086403">
<ele>166.670044</ele>
<time>2010-07-17T19:15:56Z</time>
<desc>lat.=55.704411, lon.=26.086403, Alt.=166.670044m. Speed=0.072000m/h.</desc>
<speed>0.020000</speed>
</trkpt>
<trkpt lat="55.704411" lon="26.086403">
<ele>166.666138</ele>
<time>2010-07-17T19:15:57Z</time>
<desc>lat.=55.704411, lon.=26.086403, Alt.=166.666138m. Speed=0.000000m/h.</desc>
<speed>0.000000</speed>
</trkpt>
<trkpt lat="55.704411" lon="26.086403">
<ele>166.662231</ele>
<time>2010-07-17T19:15:58Z</time>
<desc>lat.=55.704411, lon.=26.086403, Alt.=166.662231m. Speed=0.036000m/h.</desc>
<speed>0.010000</speed>
</trkpt>
<trkpt lat="55.704411" lon="26.086403">
<ele>166.654419</ele>
<time>2010-07-17T19:15:59Z</time>
<desc>lat.=55.704411, lon.=26.086403, Alt.=166.654419m. Speed=0.000000m/h.</desc>
<speed>0.000000</speed>
</trkpt>
<trkpt lat="55.704411" lon="26.086403">
<ele>166.650513</ele>
<time>2010-07-17T19:16:00Z</time>
<desc>lat.=55.704411, lon.=26.086403, Alt.=166.650513m. Speed=0.036000m/h.</desc>
<speed>0.010000</speed>
</trkpt>
<trkpt lat="55.704411" lon="26.086403">
<ele>166.642700</ele>
<time>2010-07-17T19:16:01Z</time>
<desc>lat.=55.704411, lon.=26.086403, Alt.=166.642700m. Speed=0.000000m/h.</desc>
<speed>0.000000</speed>
</trkpt>
<trkpt lat="55.704411" lon="26.086403">
<ele>166.634888</ele>
<time>2010-07-17T19:16:02Z</time>
<desc>lat.=55.704411, lon.=26.086403, Alt.=166.634888m. Speed=0.036000m/h.</desc>
<speed>0.010000</speed>
</trkpt>
<trkpt lat="55.704411" lon="26.086403">
<ele>166.627075</ele>
<time>2010-07-17T19:16:03Z</time>
<desc>lat.=55.704411, lon.=26.086403, Alt.=166.627075m. Speed=0.072000m/h.</desc>
<speed>0.020000</speed>
</trkpt>
<trkpt lat="55.704411" lon="26.086403">
<ele>166.619263</ele>
<time>2010-07-17T19:16:04Z</time>
<desc>lat.=55.704411, lon.=26.086403, Alt.=166.619263m. Speed=0.000000m/h.</desc>
<speed>0.000000</speed>
</trkpt>
<trkpt lat="55.704411" lon="26.086403">
<ele>166.611450</ele>
<time>2010-07-17T19:16:05Z</time>
<desc>lat.=55.704411, lon.=26.086403, Alt.=166.611450m. Speed=0.036000m/h.</desc>
<speed>0.010000</speed>
</trkpt>
<trkpt lat="55.704411" lon="26.086403">
<ele>166.599731</ele>
<time>2010-07-17T19:16:06Z</time>
<desc>lat.=55.704411, lon.=26.086403, Alt.=166.599731m. Speed=0.036000m/h.</desc>
<speed>0.010000</speed>
</trkpt>
<trkpt lat="55.704411" lon="26.086403">
<ele>166.595825</ele>
<time>2010-07-17T19:16:07Z</time>
<desc>lat.=55.704411, lon.=26.086403, Alt.=166.595825m. Speed=0.144000m/h.</desc>
<speed>0.040000</speed>
</trkpt>
<trkpt lat="55.704411" lon="26.086403">
<ele>166.584106</ele>
<time>2010-07-17T19:16:08Z</time>
<desc>lat.=55.704411, lon.=26.086403, Alt.=166.584106m. Speed=0.108000m/h.</desc>
<speed>0.030000</speed>
</trkpt>
<trkpt lat="55.704407" lon="26.086403">
<ele>166.580200</ele>
<time>2010-07-17T19:16:09Z</time>
<desc>lat.=55.704407, lon.=26.086403, Alt.=166.580200m. Speed=0.108000m/h.</desc>
<speed>0.030000</speed>
</trkpt>
<trkpt lat="55.704407" lon="26.086403">
<ele>166.576294</ele>
<time>2010-07-17T19:16:10Z</time>
<desc>lat.=55.704407, lon.=26.086403, Alt.=166.576294m. Speed=0.144000m/h.</desc>
<speed>0.040000</speed>
</trkpt>
<trkpt lat="55.704407" lon="26.086401">
<ele>166.560669</ele>
<time>2010-07-17T19:16:11Z</time>
<desc>lat.=55.704407, lon.=26.086401, Alt.=166.560669m. Speed=0.072000m/h.</desc>
<speed>0.020000</speed>
</trkpt>
<trkpt lat="55.704407" lon="26.086401">
<ele>166.552856</ele>
<time>2010-07-17T19:16:12Z</time>
<desc>lat.=55.704407, lon.=26.086401, Alt.=166.552856m. Speed=0.036000m/h.</desc>
<speed>0.010000</speed>
</trkpt>
<trkpt lat="55.704407" lon="26.086401">
<ele>166.537231</ele>
<time>2010-07-17T19:16:13Z</time>
<desc>lat.=55.704407, lon.=26.086401, Alt.=166.537231m. Speed=0.072000m/h.</desc>
<speed>0.020000</speed>
</trkpt>
<trkpt lat="55.704407" lon="26.086401">
<ele>166.529419</ele>
<time>2010-07-17T19:16:14Z</time>
<desc>lat.=55.704407, lon.=26.086401, Alt.=166.529419m. Speed=0.108000m/h.</desc>
<speed>0.030000</speed>
</trkpt>
<trkpt lat="55.704407" lon="26.086401">
<ele>166.521606</ele>
<time>2010-07-17T19:16:15Z</time>
<desc>lat.=55.704407, lon.=26.086401, Alt.=166.521606m. Speed=0.036000m/h.</desc>
<speed>0.010000</speed>
</trkpt>
<trkpt lat="55.704407" lon="26.086401">
<ele>166.513794</ele>
<time>2010-07-17T19:16:16Z</time>
<desc>lat.=55.704407, lon.=26.086401, Alt.=166.513794m. Speed=0.036000m/h.</desc>
<speed>0.010000</speed>
</trkpt>
<trkpt lat="55.704407" lon="26.086401">
<ele>166.505981</ele>
<time>2010-07-17T19:16:17Z</time>
<desc>lat.=55.704407, lon.=26.086401, Alt.=166.505981m. Speed=0.072000m/h.</desc>
<speed>0.020000</speed>
</trkpt>
<trkpt lat="55.704407" lon="26.086401">
<ele>166.502075</ele>
<time>2010-07-17T19:16:18Z</time>
<desc>lat.=55.704407, lon.=26.086401, Alt.=166.502075m. Speed=0.072000m/h.</desc>
<speed>0.020000</speed>
</trkpt>
<trkpt lat="55.704407" lon="26.086401">
<ele>166.498169</ele>
<time>2010-07-17T19:16:19Z</time>
<desc>lat.=55.704407, lon.=26.086401, Alt.=166.498169m. Speed=0.072000m/h.</desc>
<speed>0.020000</speed>
</trkpt>
<trkpt lat="55.704407" lon="26.086401">
<ele>166.494263</ele>
<time>2010-07-17T19:16:20Z</time>
<desc>lat.=55.704407, lon.=26.086401, Alt.=166.494263m. Speed=0.072000m/h.</desc>
<speed>0.020000</speed>
</trkpt>
<trkpt lat="55.704407" lon="26.086401">
<ele>166.490356</ele>
<time>2010-07-17T19:16:21Z</time>
<desc>lat.=55.704407, lon.=26.086401, Alt.=166.490356m. Speed=0.144000m/h.</desc>
<speed>0.040000</speed>
</trkpt>
<trkpt lat="55.704407" lon="26.086401">
<ele>166.486450</ele>
<time>2010-07-17T19:16:22Z</time>
<desc>lat.=55.704407, lon.=26.086401, Alt.=166.486450m. Speed=0.180000m/h.</desc>
<speed>0.050000</speed>
</trkpt>
<trkpt lat="55.704407" lon="26.086401">
<ele>166.478638</ele>
<time>2010-07-17T19:16:23Z</time>
<desc>lat.=55.704407, lon.=26.086401, Alt.=166.478638m. Speed=0.144000m/h.</desc>
<speed>0.040000</speed>
</trkpt>
<trkpt lat="55.704407" lon="26.086401">
<ele>166.478638</ele>
<time>2010-07-17T19:16:24Z</time>
<desc>lat.=55.704407, lon.=26.086401, Alt.=166.478638m. Speed=0.108000m/h.</desc>
<speed>0.030000</speed>
</trkpt>
<trkpt lat="55.704407" lon="26.086401">
<ele>166.466919</ele>
<time>2010-07-17T19:16:25Z</time>
<desc>lat.=55.704407, lon.=26.086401, Alt.=166.466919m. Speed=0.036000m/h.</desc>
<speed>0.010000</speed>
</trkpt>
<trkpt lat="55.704407" lon="26.086401">
<ele>166.463013</ele>
<time>2010-07-17T19:16:26Z</time>
<desc>lat.=55.704407, lon.=26.086401, Alt.=166.463013m. Speed=0.000000m/h.</desc>
<speed>0.000000</speed>
</trkpt>
<trkpt lat="55.704407" lon="26.086401">
<ele>166.459106</ele>
<time>2010-07-17T19:16:27Z</time>
<desc>lat.=55.704407, lon.=26.086401, Alt.=166.459106m. Speed=0.036000m/h.</desc>
<speed>0.010000</speed>
</trkpt>
<trkpt lat="55.704407" lon="26.086401">
<ele>166.455200</ele>
<time>2010-07-17T19:16:28Z</time>
<desc>lat.=55.704407, lon.=26.086401, Alt.=166.455200m. Speed=0.072000m/h.</desc>
<speed>0.020000</speed>
</trkpt>
<trkpt lat="55.704407" lon="26.086401">
<ele>166.443481</ele>
<time>2010-07-17T19:16:29Z</time>
<desc>lat.=55.704407, lon.=26.086401, Alt.=166.443481m. Speed=0.036000m/h.</desc>
<speed>0.010000</speed>
</trkpt>
<trkpt lat="55.704407" lon="26.086401">
<ele>166.439575</ele>
<time>2010-07-17T19:16:30Z</time>
<desc>lat.=55.704407, lon.=26.086401, Alt.=166.439575m. Speed=0.072000m/h.</desc>
<speed>0.020000</speed>
</trkpt>
<trkpt lat="55.704407" lon="26.086401">
<ele>166.431763</ele>
<time>2010-07-17T19:16:31Z</time>
<desc>lat.=55.704407, lon.=26.086401, Alt.=166.431763m. Speed=0.072000m/h.</desc>
<speed>0.020000</speed>
</trkpt>
<trkpt lat="55.704407" lon="26.086401">
<ele>166.420044</ele>
<time>2010-07-17T19:16:32Z</time>
<desc>lat.=55.704407, lon.=26.086401, Alt.=166.420044m. Speed=0.072000m/h.</desc>
<speed>0.020000</speed>
</trkpt>
<trkpt lat="55.704407" lon="26.086401">
<ele>166.412231</ele>
<time>2010-07-17T19:16:33Z</time>
<desc>lat.=55.704407, lon.=26.086401, Alt.=166.412231m. Speed=0.180000m/h.</desc>
<speed>0.050000</speed>
</trkpt>
<trkpt lat="55.704407" lon="26.086401">
<ele>166.412231</ele>
<time>2010-07-17T19:16:34Z</time>
<desc>lat.=55.704407, lon.=26.086401, Alt.=166.412231m. Speed=0.108000m/h.</desc>
<speed>0.030000</speed>
</trkpt>
<trkpt lat="55.704407" lon="26.086401">
<ele>166.412231</ele>
<time>2010-07-17T19:16:35Z</time>
<desc>lat.=55.704407, lon.=26.086401, Alt.=166.412231m. Speed=0.000000m/h.</desc>
<speed>0.000000</speed>
</trkpt>
<trkpt lat="55.704407" lon="26.086401">
<ele>166.408325</ele>
<time>2010-07-17T19:16:36Z</time>
<desc>lat.=55.704407, lon.=26.086401, Alt.=166.408325m. Speed=0.036000m/h.</desc>
<speed>0.010000</speed>
</trkpt>
<trkpt lat="55.704407" lon="26.086401">
<ele>166.404419</ele>
<time>2010-07-17T19:16:37Z</time>
<desc>lat.=55.704407, lon.=26.086401, Alt.=166.404419m. Speed=0.036000m/h.</desc>
<speed>0.010000</speed>
</trkpt>
<trkpt lat="55.704407" lon="26.086401">
<ele>166.396606</ele>
<time>2010-07-17T19:16:38Z</time>
<desc>lat.=55.704407, lon.=26.086401, Alt.=166.396606m. Speed=0.108000m/h.</desc>
<speed>0.030000</speed>
</trkpt>
<trkpt lat="55.704407" lon="26.086401">
<ele>166.392700</ele>
<time>2010-07-17T19:16:39Z</time>
<desc>lat.=55.704407, lon.=26.086401, Alt.=166.392700m. Speed=0.108000m/h.</desc>
<speed>0.030000</speed>
</trkpt>
<trkpt lat="55.704403" lon="26.086401">
<ele>166.396606</ele>
<time>2010-07-17T19:16:40Z</time>
<desc>lat.=55.704403, lon.=26.086401, Alt.=166.396606m. Speed=0.036000m/h.</desc>
<speed>0.010000</speed>
</trkpt>
<trkpt lat="55.704403" lon="26.086401">
<ele>166.396606</ele>
<time>2010-07-17T19:16:41Z</time>
<desc>lat.=55.704403, lon.=26.086401, Alt.=166.396606m. Speed=0.000000m/h.</desc>
<speed>0.000000</speed>
</trkpt>
<trkpt lat="55.704403" lon="26.086401">
<ele>166.396606</ele>
<time>2010-07-17T19:16:42Z</time>
<desc>lat.=55.704403, lon.=26.086401, Alt.=166.396606m. Speed=0.036000m/h.</desc>
<speed>0.010000</speed>
</trkpt>
<trkpt lat="55.704403" lon="26.086401">
<ele>166.388794</ele>
<time>2010-07-17T19:16:43Z</time>
<desc>lat.=55.704403, lon.=26.086401, Alt.=166.388794m. Speed=0.036000m/h.</desc>
<speed>0.010000</speed>
</trkpt>
<trkpt lat="55.704403" lon="26.086401">
<ele>166.388794</ele>
<time>2010-07-17T19:16:44Z</time>
<desc>lat.=55.704403, lon.=26.086401, Alt.=166.388794m. Speed=0.108000m/h.</desc>
<speed>0.030000</speed>
</trkpt>
<trkpt lat="55.704403" lon="26.086401">
<ele>166.384888</ele>
<time>2010-07-17T19:16:45Z</time>
<desc>lat.=55.704403, lon.=26.086401, Alt.=166.384888m. Speed=0.000000m/h.</desc>
<speed>0.000000</speed>
</trkpt>
<trkpt lat="55.704403" lon="26.086401">
<ele>166.369263</ele>
<time>2010-07-17T19:16:46Z</time>
<desc>lat.=55.704403, lon.=26.086401, Alt.=166.369263m. Speed=0.036000m/h.</desc>
<speed>0.010000</speed>
</trkpt>
<trkpt lat="55.704403" lon="26.086401">
<ele>166.357544</ele>
<time>2010-07-17T19:16:47Z</time>
<desc>lat.=55.704403, lon.=26.086401, Alt.=166.357544m. Speed=0.000000m/h.</desc>
<speed>0.000000</speed>
</trkpt>
<trkpt lat="55.704403" lon="26.086401">
<ele>166.349731</ele>
<time>2010-07-17T19:16:48Z</time>
<desc>lat.=55.704403, lon.=26.086401, Alt.=166.349731m. Speed=0.108000m/h.</desc>
<speed>0.030000</speed>
</trkpt>
<trkpt lat="55.704403" lon="26.086401">
<ele>166.334106</ele>
<time>2010-07-17T19:16:49Z</time>
<desc>lat.=55.704403, lon.=26.086401, Alt.=166.334106m. Speed=0.108000m/h.</desc>
<speed>0.030000</speed>
</trkpt>
<trkpt lat="55.704403" lon="26.086401">
<ele>166.314575</ele>
<time>2010-07-17T19:16:50Z</time>
<desc>lat.=55.704403, lon.=26.086401, Alt.=166.314575m. Speed=0.036000m/h.</desc>
<speed>0.010000</speed>
</trkpt>
<trkpt lat="55.704403" lon="26.086401">
<ele>166.306763</ele>
<time>2010-07-17T19:16:51Z</time>
<desc>lat.=55.704403, lon.=26.086401, Alt.=166.306763m. Speed=0.108000m/h.</desc>
<speed>0.030000</speed>
</trkpt>
<trkpt lat="55.704403" lon="26.086401">
<ele>166.314575</ele>
<time>2010-07-17T19:16:52Z</time>
<desc>lat.=55.704403, lon.=26.086401, Alt.=166.314575m. Speed=0.000000m/h.</desc>
<speed>0.000000</speed>
</trkpt>
<trkpt lat="55.704403" lon="26.086401">
<ele>166.306763</ele>
<time>2010-07-17T19:16:53Z</time>
<desc>lat.=55.704403, lon.=26.086401, Alt.=166.306763m. Speed=0.072000m/h.</desc>
<speed>0.020000</speed>
</trkpt>
<trkpt lat="55.704403" lon="26.086401">
<ele>166.306763</ele>
<time>2010-07-17T19:16:54Z</time>
<desc>lat.=55.704403, lon.=26.086401, Alt.=166.306763m. Speed=0.144000m/h.</desc>
<speed>0.040000</speed>
</trkpt>
<trkpt lat="55.704403" lon="26.086401">
<ele>166.302856</ele>
<time>2010-07-17T19:16:55Z</time>
<desc>lat.=55.704403, lon.=26.086401, Alt.=166.302856m. Speed=0.108000m/h.</desc>
<speed>0.030000</speed>
</trkpt>
<trkpt lat="55.704403" lon="26.086401">
<ele>166.302856</ele>
<time>2010-07-17T19:16:56Z</time>
<desc>lat.=55.704403, lon.=26.086401, Alt.=166.302856m. Speed=0.072000m/h.</desc>
<speed>0.020000</speed>
</trkpt>
<trkpt lat="55.704403" lon="26.086401">
<ele>166.302856</ele>
<time>2010-07-17T19:16:57Z</time>
<desc>lat.=55.704403, lon.=26.086401, Alt.=166.302856m. Speed=0.072000m/h.</desc>
<speed>0.020000</speed>
</trkpt>
<trkpt lat="55.704403" lon="26.086401">
<ele>166.291138</ele>
<time>2010-07-17T19:16:58Z</time>
<desc>lat.=55.704403, lon.=26.086401, Alt.=166.291138m. Speed=0.036000m/h.</desc>
<speed>0.010000</speed>
</trkpt>
<trkpt lat="55.704403" lon="26.086401">
<ele>166.291138</ele>
<time>2010-07-17T19:16:59Z</time>
<desc>lat.=55.704403, lon.=26.086401, Alt.=166.291138m. Speed=0.000000m/h.</desc>
<speed>0.000000</speed>
</trkpt>
<trkpt lat="55.704403" lon="26.086401">
<ele>166.287231</ele>
<time>2010-07-17T19:17:00Z</time>
<desc>lat.=55.704403, lon.=26.086401, Alt.=166.287231m. Speed=0.000000m/h.</desc>
<speed>0.000000</speed>
</trkpt>
<trkpt lat="55.704403" lon="26.086401">
<ele>166.279419</ele>
<time>2010-07-17T19:17:01Z</time>
<desc>lat.=55.704403, lon.=26.086401, Alt.=166.279419m. Speed=0.036000m/h.</desc>
<speed>0.010000</speed>
</trkpt>
<trkpt lat="55.704403" lon="26.086401">
<ele>166.271606</ele>
<time>2010-07-17T19:17:02Z</time>
<desc>lat.=55.704403, lon.=26.086401, Alt.=166.271606m. Speed=0.036000m/h.</desc>
<speed>0.010000</speed>
</trkpt>
<trkpt lat="55.704403" lon="26.086401">
<ele>166.263794</ele>
<time>2010-07-17T19:17:03Z</time>
<desc>lat.=55.704403, lon.=26.086401, Alt.=166.263794m. Speed=0.036000m/h.</desc>
<speed>0.010000</speed>
</trkpt>
<trkpt lat="55.704403" lon="26.086401">
<ele>166.263794</ele>
<time>2010-07-17T19:17:04Z</time>
<desc>lat.=55.704403, lon.=26.086401, Alt.=166.263794m. Speed=0.072000m/h.</desc>
<speed>0.020000</speed>
</trkpt>
<trkpt lat="55.704403" lon="26.086401">
<ele>166.255981</ele>
<time>2010-07-17T19:17:05Z</time>
<desc>lat.=55.704403, lon.=26.086401, Alt.=166.255981m. Speed=0.036000m/h.</desc>
<speed>0.010000</speed>
</trkpt>
<trkpt lat="55.704403" lon="26.086401">
<ele>166.259888</ele>
<time>2010-07-17T19:17:06Z</time>
<desc>lat.=55.704403, lon.=26.086401, Alt.=166.259888m. Speed=0.108000m/h.</desc>
<speed>0.030000</speed>
</trkpt>
<trkpt lat="55.704403" lon="26.086401">
<ele>166.255981</ele>
<time>2010-07-17T19:17:07Z</time>
<desc>lat.=55.704403, lon.=26.086401, Alt.=166.255981m. Speed=0.072000m/h.</desc>
<speed>0.020000</speed>
</trkpt>
<trkpt lat="55.704403" lon="26.086401">
<ele>166.255981</ele>
<time>2010-07-17T19:17:08Z</time>
<desc>lat.=55.704403, lon.=26.086401, Alt.=166.255981m. Speed=0.072000m/h.</desc>
<speed>0.020000</speed>
</trkpt>
<trkpt lat="55.704403" lon="26.086401">
<ele>166.255981</ele>
<time>2010-07-17T19:17:09Z</time>
<desc>lat.=55.704403, lon.=26.086401, Alt.=166.255981m. Speed=0.108000m/h.</desc>
<speed>0.030000</speed>
</trkpt>
<trkpt lat="55.704403" lon="26.086401">
<ele>166.252075</ele>
<time>2010-07-17T19:17:10Z</time>
<desc>lat.=55.704403, lon.=26.086401, Alt.=166.252075m. Speed=0.108000m/h.</desc>
<speed>0.030000</speed>
</trkpt>
<trkpt lat="55.704403" lon="26.086401">
<ele>166.240356</ele>
<time>2010-07-17T19:17:11Z</time>
<desc>lat.=55.704403, lon.=26.086401, Alt.=166.240356m. Speed=0.036000m/h.</desc>
<speed>0.010000</speed>
</trkpt>
<trkpt lat="55.704403" lon="26.086401">
<ele>166.240356</ele>
<time>2010-07-17T19:17:12Z</time>
<desc>lat.=55.704403, lon.=26.086401, Alt.=166.240356m. Speed=0.000000m/h.</desc>
<speed>0.000000</speed>
</trkpt>
<trkpt lat="55.704403" lon="26.086401">
<ele>166.236450</ele>
<time>2010-07-17T19:17:13Z</time>
<desc>lat.=55.704403, lon.=26.086401, Alt.=166.236450m. Speed=0.000000m/h.</desc>
<speed>0.000000</speed>
</trkpt>
<trkpt lat="55.704403" lon="26.086401">
<ele>166.228638</ele>
<time>2010-07-17T19:17:14Z</time>
<desc>lat.=55.704403, lon.=26.086401, Alt.=166.228638m. Speed=0.216000m/h.</desc>
<speed>0.060000</speed>
</trkpt>
<trkpt lat="55.704403" lon="26.086403">
<ele>166.220825</ele>
<time>2010-07-17T19:17:15Z</time>
<desc>lat.=55.704403, lon.=26.086403, Alt.=166.220825m. Speed=0.072000m/h.</desc>
<speed>0.020000</speed>
</trkpt>
<trkpt lat="55.704403" lon="26.086403">
<ele>166.213013</ele>
<time>2010-07-17T19:17:16Z</time>
<desc>lat.=55.704403, lon.=26.086403, Alt.=166.213013m. Speed=0.252000m/h.</desc>
<speed>0.070000</speed>
</trkpt>
<trkpt lat="55.704403" lon="26.086403">
<ele>166.201294</ele>
<time>2010-07-17T19:17:17Z</time>
<desc>lat.=55.704403, lon.=26.086403, Alt.=166.201294m. Speed=0.144000m/h.</desc>
<speed>0.040000</speed>
</trkpt>
<trkpt lat="55.704403" lon="26.086403">
<ele>166.189575</ele>
<time>2010-07-17T19:17:18Z</time>
<desc>lat.=55.704403, lon.=26.086403, Alt.=166.189575m. Speed=0.072000m/h.</desc>
<speed>0.020000</speed>
</trkpt>
<trkpt lat="55.704403" lon="26.086403">
<ele>166.177856</ele>
<time>2010-07-17T19:17:19Z</time>
<desc>lat.=55.704403, lon.=26.086403, Alt.=166.177856m. Speed=0.072000m/h.</desc>
<speed>0.020000</speed>
</trkpt>
<trkpt lat="55.704403" lon="26.086403">
<ele>166.166138</ele>
<time>2010-07-17T19:17:20Z</time>
<desc>lat.=55.704403, lon.=26.086403, Alt.=166.166138m. Speed=0.072000m/h.</desc>
<speed>0.020000</speed>
</trkpt>
<trkpt lat="55.704403" lon="26.086403">
<ele>166.166138</ele>
<time>2010-07-17T19:17:21Z</time>
<desc>lat.=55.704403, lon.=26.086403, Alt.=166.166138m. Speed=0.036000m/h.</desc>
<speed>0.010000</speed>
</trkpt>
<trkpt lat="55.704407" lon="26.086403">
<ele>166.166138</ele>
<time>2010-07-17T19:17:22Z</time>
<desc>lat.=55.704407, lon.=26.086403, Alt.=166.166138m. Speed=0.072000m/h.</desc>
<speed>0.020000</speed>
</trkpt>
<trkpt lat="55.704407" lon="26.086403">
<ele>166.150513</ele>
<time>2010-07-17T19:17:23Z</time>
<desc>lat.=55.704407, lon.=26.086403, Alt.=166.150513m. Speed=0.036000m/h.</desc>
<speed>0.010000</speed>
</trkpt>
<trkpt lat="55.704407" lon="26.086403">
<ele>166.142700</ele>
<time>2010-07-17T19:17:24Z</time>
<desc>lat.=55.704407, lon.=26.086403, Alt.=166.142700m. Speed=0.036000m/h.</desc>
<speed>0.010000</speed>
</trkpt>
<trkpt lat="55.704407" lon="26.086403">
<ele>166.142700</ele>
<time>2010-07-17T19:17:25Z</time>
<desc>lat.=55.704407, lon.=26.086403, Alt.=166.142700m. Speed=0.036000m/h.</desc>
<speed>0.010000</speed>
</trkpt>
<trkpt lat="55.704407" lon="26.086403">
<ele>166.134888</ele>
<time>2010-07-17T19:17:26Z</time>
<desc>lat.=55.704407, lon.=26.086403, Alt.=166.134888m. Speed=0.036000m/h.</desc>
<speed>0.010000</speed>
</trkpt>
<trkpt lat="55.704403" lon="26.086403">
<ele>166.134888</ele>
<time>2010-07-17T19:17:27Z</time>
<desc>lat.=55.704403, lon.=26.086403, Alt.=166.134888m. Speed=0.036000m/h.</desc>
<speed>0.010000</speed>
</trkpt>
<trkpt lat="55.704403" lon="26.086405">
<ele>166.142700</ele>
<time>2010-07-17T19:17:28Z</time>
<desc>lat.=55.704403, lon.=26.086405, Alt.=166.142700m. Speed=0.072000m/h.</desc>
<speed>0.020000</speed>
</trkpt>
<trkpt lat="55.704403" lon="26.086403">
<ele>166.146606</ele>
<time>2010-07-17T19:17:29Z</time>
<desc>lat.=55.704403, lon.=26.086403, Alt.=166.146606m. Speed=0.072000m/h.</desc>
<speed>0.020000</speed>
</trkpt>
<trkpt lat="55.704403" lon="26.086403">
<ele>166.142700</ele>
<time>2010-07-17T19:17:30Z</time>
<desc>lat.=55.704403, lon.=26.086403, Alt.=166.142700m. Speed=0.000000m/h.</desc>
<speed>0.000000</speed>
</trkpt>
<trkpt lat="55.704407" lon="26.086405">
<ele>166.142700</ele>
<time>2010-07-17T19:17:31Z</time>
<desc>lat.=55.704407, lon.=26.086405, Alt.=166.142700m. Speed=0.036000m/h.</desc>
<speed>0.010000</speed>
</trkpt>
<trkpt lat="55.704407" lon="26.086405">
<ele>166.142700</ele>
<time>2010-07-17T19:17:32Z</time>
<desc>lat.=55.704407, lon.=26.086405, Alt.=166.142700m. Speed=0.036000m/h.</desc>
<speed>0.010000</speed>
</trkpt>
<trkpt lat="55.704407" lon="26.086405">
<ele>166.134888</ele>
<time>2010-07-17T19:17:33Z</time>
<desc>lat.=55.704407, lon.=26.086405, Alt.=166.134888m. Speed=0.000000m/h.</desc>
<speed>0.000000</speed>
</trkpt>
<trkpt lat="55.704407" lon="26.086405">
<ele>166.127075</ele>
<time>2010-07-17T19:17:34Z</time>
<desc>lat.=55.704407, lon.=26.086405, Alt.=166.127075m. Speed=0.072000m/h.</desc>
<speed>0.020000</speed>
</trkpt>
<trkpt lat="55.704407" lon="26.086405">
<ele>166.123169</ele>
<time>2010-07-17T19:17:35Z</time>
<desc>lat.=55.704407, lon.=26.086405, Alt.=166.123169m. Speed=0.036000m/h.</desc>
<speed>0.010000</speed>
</trkpt>
<trkpt lat="55.704407" lon="26.086405">
<ele>166.115356</ele>
<time>2010-07-17T19:17:36Z</time>
<desc>lat.=55.704407, lon.=26.086405, Alt.=166.115356m. Speed=0.036000m/h.</desc>
<speed>0.010000</speed>
</trkpt>
<trkpt lat="55.704407" lon="26.086405">
<ele>166.107544</ele>
<time>2010-07-17T19:17:37Z</time>
<desc>lat.=55.704407, lon.=26.086405, Alt.=166.107544m. Speed=0.108000m/h.</desc>
<speed>0.030000</speed>
</trkpt>
<trkpt lat="55.704407" lon="26.086405">
<ele>166.099731</ele>
<time>2010-07-17T19:17:38Z</time>
<desc>lat.=55.704407, lon.=26.086405, Alt.=166.099731m. Speed=0.072000m/h.</desc>
<speed>0.020000</speed>
</trkpt>
<trkpt lat="55.704407" lon="26.086405">
<ele>166.095825</ele>
<time>2010-07-17T19:17:39Z</time>
<desc>lat.=55.704407, lon.=26.086405, Alt.=166.095825m. Speed=0.108000m/h.</desc>
<speed>0.030000</speed>
</trkpt>
<trkpt lat="55.704403" lon="26.086405">
<ele>166.095825</ele>
<time>2010-07-17T19:17:40Z</time>
<desc>lat.=55.704403, lon.=26.086405, Alt.=166.095825m. Speed=0.108000m/h.</desc>
<speed>0.030000</speed>
</trkpt>
<trkpt lat="55.704403" lon="26.086405">
<ele>166.088013</ele>
<time>2010-07-17T19:17:41Z</time>
<desc>lat.=55.704403, lon.=26.086405, Alt.=166.088013m. Speed=0.072000m/h.</desc>
<speed>0.020000</speed>
</trkpt>
<trkpt lat="55.704403" lon="26.086405">
<ele>166.080200</ele>
<time>2010-07-17T19:17:42Z</time>
<desc>lat.=55.704403, lon.=26.086405, Alt.=166.080200m. Speed=0.072000m/h.</desc>
<speed>0.020000</speed>
</trkpt>
<trkpt lat="55.704403" lon="26.086405">
<ele>166.076294</ele>
<time>2010-07-17T19:17:43Z</time>
<desc>lat.=55.704403, lon.=26.086405, Alt.=166.076294m. Speed=0.072000m/h.</desc>
<speed>0.020000</speed>
</trkpt>
<trkpt lat="55.704403" lon="26.086405">
<ele>166.076294</ele>
<time>2010-07-17T19:17:44Z</time>
<desc>lat.=55.704403, lon.=26.086405, Alt.=166.076294m. Speed=0.000000m/h.</desc>
<speed>0.000000</speed>
</trkpt>
<trkpt lat="55.704403" lon="26.086405">
<ele>166.064575</ele>
<time>2010-07-17T19:17:45Z</time>
<desc>lat.=55.704403, lon.=26.086405, Alt.=166.064575m. Speed=0.072000m/h.</desc>
<speed>0.020000</speed>
</trkpt>
<trkpt lat="55.704403" lon="26.086405">
<ele>166.056763</ele>
<time>2010-07-17T19:17:46Z</time>
<desc>lat.=55.704403, lon.=26.086405, Alt.=166.056763m. Speed=0.036000m/h.</desc>
<speed>0.010000</speed>
</trkpt>
<trkpt lat="55.704403" lon="26.086405">
<ele>166.048950</ele>
<time>2010-07-17T19:17:47Z</time>
<desc>lat.=55.704403, lon.=26.086405, Alt.=166.048950m. Speed=0.108000m/h.</desc>
<speed>0.030000</speed>
</trkpt>
<trkpt lat="55.704403" lon="26.086405">
<ele>166.045044</ele>
<time>2010-07-17T19:17:48Z</time>
<desc>lat.=55.704403, lon.=26.086405, Alt.=166.045044m. Speed=0.180000m/h.</desc>
<speed>0.050000</speed>
</trkpt>
<trkpt lat="55.704403" lon="26.086403">
<ele>166.045044</ele>
<time>2010-07-17T19:17:49Z</time>
<desc>lat.=55.704403, lon.=26.086403, Alt.=166.045044m. Speed=0.144000m/h.</desc>
<speed>0.040000</speed>
</trkpt>
<trkpt lat="55.704403" lon="26.086403">
<ele>166.037231</ele>
<time>2010-07-17T19:17:50Z</time>
<desc>lat.=55.704403, lon.=26.086403, Alt.=166.037231m. Speed=0.108000m/h.</desc>
<speed>0.030000</speed>
</trkpt>
<trkpt lat="55.704403" lon="26.086403">
<ele>166.033325</ele>
<time>2010-07-17T19:17:51Z</time>
<desc>lat.=55.704403, lon.=26.086403, Alt.=166.033325m. Speed=0.072000m/h.</desc>
<speed>0.020000</speed>
</trkpt>
<trkpt lat="55.704403" lon="26.086403">
<ele>166.029419</ele>
<time>2010-07-17T19:17:52Z</time>
<desc>lat.=55.704403, lon.=26.086403, Alt.=166.029419m. Speed=0.072000m/h.</desc>
<speed>0.020000</speed>
</trkpt>
<trkpt lat="55.704403" lon="26.086403">
<ele>166.017700</ele>
<time>2010-07-17T19:17:53Z</time>
<desc>lat.=55.704403, lon.=26.086403, Alt.=166.017700m. Speed=0.072000m/h.</desc>
<speed>0.020000</speed>
</trkpt>
<trkpt lat="55.704403" lon="26.086403">
<ele>166.005981</ele>
<time>2010-07-17T19:17:54Z</time>
<desc>lat.=55.704403, lon.=26.086403, Alt.=166.005981m. Speed=0.144000m/h.</desc>
<speed>0.040000</speed>
</trkpt>
<trkpt lat="55.704403" lon="26.086403">
<ele>165.998169</ele>
<time>2010-07-17T19:17:55Z</time>
<desc>lat.=55.704403, lon.=26.086403, Alt.=165.998169m. Speed=0.108000m/h.</desc>
<speed>0.030000</speed>
</trkpt>
<trkpt lat="55.704403" lon="26.086403">
<ele>165.994263</ele>
<time>2010-07-17T19:17:56Z</time>
<desc>lat.=55.704403, lon.=26.086403, Alt.=165.994263m. Speed=0.108000m/h.</desc>
<speed>0.030000</speed>
</trkpt>
<trkpt lat="55.704403" lon="26.086403">
<ele>165.982544</ele>
<time>2010-07-17T19:17:57Z</time>
<desc>lat.=55.704403, lon.=26.086403, Alt.=165.982544m. Speed=0.072000m/h.</desc>
<speed>0.020000</speed>
</trkpt>
<trkpt lat="55.704403" lon="26.086403">
<ele>165.978638</ele>
<time>2010-07-17T19:17:58Z</time>
<desc>lat.=55.704403, lon.=26.086403, Alt.=165.978638m. Speed=0.108000m/h.</desc>
<speed>0.030000</speed>
</trkpt>
<trkpt lat="55.704403" lon="26.086403">
<ele>165.970825</ele>
<time>2010-07-17T19:17:59Z</time>
<desc>lat.=55.704403, lon.=26.086403, Alt.=165.970825m. Speed=0.036000m/h.</desc>
<speed>0.010000</speed>
</trkpt>
<trkpt lat="55.704403" lon="26.086403">
<ele>165.970825</ele>
<time>2010-07-17T19:18:00Z</time>
<desc>lat.=55.704403, lon.=26.086403, Alt.=165.970825m. Speed=0.036000m/h.</desc>
<speed>0.010000</speed>
</trkpt>
<trkpt lat="55.704403" lon="26.086403">
<ele>165.963013</ele>
<time>2010-07-17T19:18:01Z</time>
<desc>lat.=55.704403, lon.=26.086403, Alt.=165.963013m. Speed=0.000000m/h.</desc>
<speed>0.000000</speed>
</trkpt>
<trkpt lat="55.704403" lon="26.086403">
<ele>165.959106</ele>
<time>2010-07-17T19:18:02Z</time>
<desc>lat.=55.704403, lon.=26.086403, Alt.=165.959106m. Speed=0.036000m/h.</desc>
<speed>0.010000</speed>
</trkpt>
<trkpt lat="55.704403" lon="26.086403">
<ele>165.959106</ele>
<time>2010-07-17T19:18:03Z</time>
<desc>lat.=55.704403, lon.=26.086403, Alt.=165.959106m. Speed=0.108000m/h.</desc>
<speed>0.030000</speed>
</trkpt>
<trkpt lat="55.704403" lon="26.086403">
<ele>165.955200</ele>
<time>2010-07-17T19:18:04Z</time>
<desc>lat.=55.704403, lon.=26.086403, Alt.=165.955200m. Speed=0.036000m/h.</desc>
<speed>0.010000</speed>
</trkpt>
<trkpt lat="55.704403" lon="26.086403">
<ele>165.951294</ele>
<time>2010-07-17T19:18:05Z</time>
<desc>lat.=55.704403, lon.=26.086403, Alt.=165.951294m. Speed=0.036000m/h.</desc>
<speed>0.010000</speed>
</trkpt>
<trkpt lat="55.704403" lon="26.086403">
<ele>165.943481</ele>
<time>2010-07-17T19:18:06Z</time>
<desc>lat.=55.704403, lon.=26.086403, Alt.=165.943481m. Speed=0.108000m/h.</desc>
<speed>0.030000</speed>
</trkpt>
<trkpt lat="55.704403" lon="26.086403">
<ele>165.943481</ele>
<time>2010-07-17T19:18:07Z</time>
<desc>lat.=55.704403, lon.=26.086403, Alt.=165.943481m. Speed=0.036000m/h.</desc>
<speed>0.010000</speed>
</trkpt>
<trkpt lat="55.704403" lon="26.086403">
<ele>165.943481</ele>
<time>2010-07-17T19:18:08Z</time>
<desc>lat.=55.704403, lon.=26.086403, Alt.=165.943481m. Speed=0.072000m/h.</desc>
<speed>0.020000</speed>
</trkpt>
<trkpt lat="55.704403" lon="26.086403">
<ele>165.939575</ele>
<time>2010-07-17T19:18:09Z</time>
<desc>lat.=55.704403, lon.=26.086403, Alt.=165.939575m. Speed=0.036000m/h.</desc>
<speed>0.010000</speed>
</trkpt>
<trkpt lat="55.704403" lon="26.086403">
<ele>165.939575</ele>
<time>2010-07-17T19:18:10Z</time>
<desc>lat.=55.704403, lon.=26.086403, Alt.=165.939575m. Speed=0.180000m/h.</desc>
<speed>0.050000</speed>
</trkpt>
<trkpt lat="55.704403" lon="26.086403">
<ele>165.943481</ele>
<time>2010-07-17T19:18:11Z</time>
<desc>lat.=55.704403, lon.=26.086403, Alt.=165.943481m. Speed=0.072000m/h.</desc>
<speed>0.020000</speed>
</trkpt>
<trkpt lat="55.704403" lon="26.086403">
<ele>165.951294</ele>
<time>2010-07-17T19:18:12Z</time>
<desc>lat.=55.704403, lon.=26.086403, Alt.=165.951294m. Speed=0.108000m/h.</desc>
<speed>0.030000</speed>
</trkpt>
<trkpt lat="55.704403" lon="26.086403">
<ele>165.955200</ele>
<time>2010-07-17T19:18:13Z</time>
<desc>lat.=55.704403, lon.=26.086403, Alt.=165.955200m. Speed=0.000000m/h.</desc>
<speed>0.000000</speed>
</trkpt>
<trkpt lat="55.704403" lon="26.086403">
<ele>165.959106</ele>
<time>2010-07-17T19:18:14Z</time>
<desc>lat.=55.704403, lon.=26.086403, Alt.=165.959106m. Speed=0.036000m/h.</desc>
<speed>0.010000</speed>
</trkpt>
<trkpt lat="55.704403" lon="26.086403">
<ele>165.963013</ele>
<time>2010-07-17T19:18:15Z</time>
<desc>lat.=55.704403, lon.=26.086403, Alt.=165.963013m. Speed=0.036000m/h.</desc>
<speed>0.010000</speed>
</trkpt>
<trkpt lat="55.704403" lon="26.086403">
<ele>165.963013</ele>
<time>2010-07-17T19:18:16Z</time>
<desc>lat.=55.704403, lon.=26.086403, Alt.=165.963013m. Speed=0.072000m/h.</desc>
<speed>0.020000</speed>
</trkpt>
<trkpt lat="55.704403" lon="26.086403">
<ele>165.974731</ele>
<time>2010-07-17T19:18:17Z</time>
<desc>lat.=55.704403, lon.=26.086403, Alt.=165.974731m. Speed=0.036000m/h.</desc>
<speed>0.010000</speed>
</trkpt>
<trkpt lat="55.704403" lon="26.086403">
<ele>165.986450</ele>
<time>2010-07-17T19:18:18Z</time>
<desc>lat.=55.704403, lon.=26.086403, Alt.=165.986450m. Speed=0.108000m/h.</desc>
<speed>0.030000</speed>
</trkpt>
<trkpt lat="55.704403" lon="26.086403">
<ele>165.994263</ele>
<time>2010-07-17T19:18:19Z</time>
<desc>lat.=55.704403, lon.=26.086403, Alt.=165.994263m. Speed=0.072000m/h.</desc>
<speed>0.020000</speed>
</trkpt>
<trkpt lat="55.704403" lon="26.086403">
<ele>165.994263</ele>
<time>2010-07-17T19:18:20Z</time>
<desc>lat.=55.704403, lon.=26.086403, Alt.=165.994263m. Speed=0.072000m/h.</desc>
<speed>0.020000</speed>
</trkpt>
<trkpt lat="55.704403" lon="26.086403">
<ele>166.002075</ele>
<time>2010-07-17T19:18:21Z</time>
<desc>lat.=55.704403, lon.=26.086403, Alt.=166.002075m. Speed=0.036000m/h.</desc>
<speed>0.010000</speed>
</trkpt>
<trkpt lat="55.704403" lon="26.086403">
<ele>165.998169</ele>
<time>2010-07-17T19:18:22Z</time>
<desc>lat.=55.704403, lon.=26.086403, Alt.=165.998169m. Speed=0.072000m/h.</desc>
<speed>0.020000</speed>
</trkpt>
<trkpt lat="55.704403" lon="26.086403">
<ele>166.005981</ele>
<time>2010-07-17T19:18:23Z</time>
<desc>lat.=55.704403, lon.=26.086403, Alt.=166.005981m. Speed=0.036000m/h.</desc>
<speed>0.010000</speed>
</trkpt>
<trkpt lat="55.704403" lon="26.086403">
<ele>166.013794</ele>
<time>2010-07-17T19:18:24Z</time>
<desc>lat.=55.704403, lon.=26.086403, Alt.=166.013794m. Speed=0.000000m/h.</desc>
<speed>0.000000</speed>
</trkpt>
<trkpt lat="55.704403" lon="26.086403">
<ele>166.021606</ele>
<time>2010-07-17T19:18:25Z</time>
<desc>lat.=55.704403, lon.=26.086403, Alt.=166.021606m. Speed=0.072000m/h.</desc>
<speed>0.020000</speed>
</trkpt>
<trkpt lat="55.704403" lon="26.086403">
<ele>166.025513</ele>
<time>2010-07-17T19:18:26Z</time>
<desc>lat.=55.704403, lon.=26.086403, Alt.=166.025513m. Speed=0.000000m/h.</desc>
<speed>0.000000</speed>
</trkpt>
<trkpt lat="55.704403" lon="26.086403">
<ele>166.033325</ele>
<time>2010-07-17T19:18:27Z</time>
<desc>lat.=55.704403, lon.=26.086403, Alt.=166.033325m. Speed=0.036000m/h.</desc>
<speed>0.010000</speed>
</trkpt>
<trkpt lat="55.704399" lon="26.086403">
<ele>166.041138</ele>
<time>2010-07-17T19:18:28Z</time>
<desc>lat.=55.704399, lon.=26.086403, Alt.=166.041138m. Speed=0.108000m/h.</desc>
<speed>0.030000</speed>
</trkpt>
<trkpt lat="55.704399" lon="26.086403">
<ele>166.048950</ele>
<time>2010-07-17T19:18:29Z</time>
<desc>lat.=55.704399, lon.=26.086403, Alt.=166.048950m. Speed=0.072000m/h.</desc>
<speed>0.020000</speed>
</trkpt>
<trkpt lat="55.704399" lon="26.086403">
<ele>166.056763</ele>
<time>2010-07-17T19:18:30Z</time>
<desc>lat.=55.704399, lon.=26.086403, Alt.=166.056763m. Speed=0.072000m/h.</desc>
<speed>0.020000</speed>
</trkpt>
<trkpt lat="55.704399" lon="26.086403">
<ele>166.064575</ele>
<time>2010-07-17T19:18:31Z</time>
<desc>lat.=55.704399, lon.=26.086403, Alt.=166.064575m. Speed=0.072000m/h.</desc>
<speed>0.020000</speed>
</trkpt>
<trkpt lat="55.704399" lon="26.086403">
<ele>166.072388</ele>
<time>2010-07-17T19:18:32Z</time>
<desc>lat.=55.704399, lon.=26.086403, Alt.=166.072388m. Speed=0.072000m/h.</desc>
<speed>0.020000</speed>
</trkpt>
<trkpt lat="55.704399" lon="26.086403">
<ele>166.076294</ele>
<time>2010-07-17T19:18:33Z</time>
<desc>lat.=55.704399, lon.=26.086403, Alt.=166.076294m. Speed=0.108000m/h.</desc>
<speed>0.030000</speed>
</trkpt>
<trkpt lat="55.704399" lon="26.086403">
<ele>166.076294</ele>
<time>2010-07-17T19:18:34Z</time>
<desc>lat.=55.704399, lon.=26.086403, Alt.=166.076294m. Speed=0.144000m/h.</desc>
<speed>0.040000</speed>
</trkpt>
<trkpt lat="55.704399" lon="26.086403">
<ele>166.080200</ele>
<time>2010-07-17T19:18:35Z</time>
<desc>lat.=55.704399, lon.=26.086403, Alt.=166.080200m. Speed=0.000000m/h.</desc>
<speed>0.000000</speed>
</trkpt>
<trkpt lat="55.704399" lon="26.086403">
<ele>166.084106</ele>
<time>2010-07-17T19:18:36Z</time>
<desc>lat.=55.704399, lon.=26.086403, Alt.=166.084106m. Speed=0.072000m/h.</desc>
<speed>0.020000</speed>
</trkpt>
<trkpt lat="55.704399" lon="26.086403">
<ele>166.084106</ele>
<time>2010-07-17T19:18:37Z</time>
<desc>lat.=55.704399, lon.=26.086403, Alt.=166.084106m. Speed=0.072000m/h.</desc>
<speed>0.020000</speed>
</trkpt>
<trkpt lat="55.704399" lon="26.086403">
<ele>166.084106</ele>
<time>2010-07-17T19:18:38Z</time>
<desc>lat.=55.704399, lon.=26.086403, Alt.=166.084106m. Speed=0.108000m/h.</desc>
<speed>0.030000</speed>
</trkpt>
<trkpt lat="55.704399" lon="26.086403">
<ele>166.099731</ele>
<time>2010-07-17T19:18:39Z</time>
<desc>lat.=55.704399, lon.=26.086403, Alt.=166.099731m. Speed=0.144000m/h.</desc>
<speed>0.040000</speed>
</trkpt>
<trkpt lat="55.704399" lon="26.086405">
<ele>166.115356</ele>
<time>2010-07-17T19:18:40Z</time>
<desc>lat.=55.704399, lon.=26.086405, Alt.=166.115356m. Speed=0.144000m/h.</desc>
<speed>0.040000</speed>
</trkpt>
<trkpt lat="55.704399" lon="26.086405">
<ele>166.123169</ele>
<time>2010-07-17T19:18:41Z</time>
<desc>lat.=55.704399, lon.=26.086405, Alt.=166.123169m. Speed=0.108000m/h.</desc>
<speed>0.030000</speed>
</trkpt>
<trkpt lat="55.704399" lon="26.086405">
<ele>166.130981</ele>
<time>2010-07-17T19:18:42Z</time>
<desc>lat.=55.704399, lon.=26.086405, Alt.=166.130981m. Speed=0.072000m/h.</desc>
<speed>0.020000</speed>
</trkpt>
<trkpt lat="55.704399" lon="26.086405">
<ele>166.138794</ele>
<time>2010-07-17T19:18:43Z</time>
<desc>lat.=55.704399, lon.=26.086405, Alt.=166.138794m. Speed=0.072000m/h.</desc>
<speed>0.020000</speed>
</trkpt>
<trkpt lat="55.704399" lon="26.086405">
<ele>166.150513</ele>
<time>2010-07-17T19:18:44Z</time>
<desc>lat.=55.704399, lon.=26.086405, Alt.=166.150513m. Speed=0.108000m/h.</desc>
<speed>0.030000</speed>
</trkpt>
<trkpt lat="55.704399" lon="26.086405">
<ele>166.162231</ele>
<time>2010-07-17T19:18:45Z</time>
<desc>lat.=55.704399, lon.=26.086405, Alt.=166.162231m. Speed=0.036000m/h.</desc>
<speed>0.010000</speed>
</trkpt>
<trkpt lat="55.704399" lon="26.086405">
<ele>166.173950</ele>
<time>2010-07-17T19:18:46Z</time>
<desc>lat.=55.704399, lon.=26.086405, Alt.=166.173950m. Speed=0.144000m/h.</desc>
<speed>0.040000</speed>
</trkpt>
<trkpt lat="55.704399" lon="26.086405">
<ele>166.181763</ele>
<time>2010-07-17T19:18:47Z</time>
<desc>lat.=55.704399, lon.=26.086405, Alt.=166.181763m. Speed=0.072000m/h.</desc>
<speed>0.020000</speed>
</trkpt>
<trkpt lat="55.704399" lon="26.086405">
<ele>166.189575</ele>
<time>2010-07-17T19:18:48Z</time>
<desc>lat.=55.704399, lon.=26.086405, Alt.=166.189575m. Speed=0.072000m/h.</desc>
<speed>0.020000</speed>
</trkpt>
<trkpt lat="55.704399" lon="26.086405">
<ele>166.201294</ele>
<time>2010-07-17T19:18:49Z</time>
<desc>lat.=55.704399, lon.=26.086405, Alt.=166.201294m. Speed=0.000000m/h.</desc>
<speed>0.000000</speed>
</trkpt>
<trkpt lat="55.704399" lon="26.086405">
<ele>166.209106</ele>
<time>2010-07-17T19:18:50Z</time>
<desc>lat.=55.704399, lon.=26.086405, Alt.=166.209106m. Speed=0.036000m/h.</desc>
<speed>0.010000</speed>
</trkpt>
<trkpt lat="55.704399" lon="26.086405">
<ele>166.224731</ele>
<time>2010-07-17T19:18:51Z</time>
<desc>lat.=55.704399, lon.=26.086405, Alt.=166.224731m. Speed=0.036000m/h.</desc>
<speed>0.010000</speed>
</trkpt>
<trkpt lat="55.704399" lon="26.086405">
<ele>166.232544</ele>
<time>2010-07-17T19:18:52Z</time>
<desc>lat.=55.704399, lon.=26.086405, Alt.=166.232544m. Speed=0.108000m/h.</desc>
<speed>0.030000</speed>
</trkpt>
<trkpt lat="55.704399" lon="26.086405">
<ele>166.248169</ele>
<time>2010-07-17T19:18:53Z</time>
<desc>lat.=55.704399, lon.=26.086405, Alt.=166.248169m. Speed=0.036000m/h.</desc>
<speed>0.010000</speed>
</trkpt>
<trkpt lat="55.704399" lon="26.086405">
<ele>166.259888</ele>
<time>2010-07-17T19:18:54Z</time>
<desc>lat.=55.704399, lon.=26.086405, Alt.=166.259888m. Speed=0.036000m/h.</desc>
<speed>0.010000</speed>
</trkpt>
<trkpt lat="55.704399" lon="26.086405">
<ele>166.275513</ele>
<time>2010-07-17T19:18:55Z</time>
<desc>lat.=55.704399, lon.=26.086405, Alt.=166.275513m. Speed=0.036000m/h.</desc>
<speed>0.010000</speed>
</trkpt>
<trkpt lat="55.704399" lon="26.086407">
<ele>166.295044</ele>
<time>2010-07-17T19:18:56Z</time>
<desc>lat.=55.704399, lon.=26.086407, Alt.=166.295044m. Speed=0.072000m/h.</desc>
<speed>0.020000</speed>
</trkpt>
<trkpt lat="55.704399" lon="26.086407">
<ele>166.310669</ele>
<time>2010-07-17T19:18:57Z</time>
<desc>lat.=55.704399, lon.=26.086407, Alt.=166.310669m. Speed=0.036000m/h.</desc>
<speed>0.010000</speed>
</trkpt>
<trkpt lat="55.704399" lon="26.086407">
<ele>166.322388</ele>
<time>2010-07-17T19:18:58Z</time>
<desc>lat.=55.704399, lon.=26.086407, Alt.=166.322388m. Speed=0.036000m/h.</desc>
<speed>0.010000</speed>
</trkpt>
<trkpt lat="55.704399" lon="26.086407">
<ele>166.338013</ele>
<time>2010-07-17T19:18:59Z</time>
<desc>lat.=55.704399, lon.=26.086407, Alt.=166.338013m. Speed=0.000000m/h.</desc>
<speed>0.000000</speed>
</trkpt>
<trkpt lat="55.704399" lon="26.086407">
<ele>166.349731</ele>
<time>2010-07-17T19:19:00Z</time>
<desc>lat.=55.704399, lon.=26.086407, Alt.=166.349731m. Speed=0.036000m/h.</desc>
<speed>0.010000</speed>
</trkpt>
<trkpt lat="55.704399" lon="26.086407">
<ele>166.365356</ele>
<time>2010-07-17T19:19:01Z</time>
<desc>lat.=55.704399, lon.=26.086407, Alt.=166.365356m. Speed=0.000000m/h.</desc>
<speed>0.000000</speed>
</trkpt>
<trkpt lat="55.704399" lon="26.086407">
<ele>166.377075</ele>
<time>2010-07-17T19:19:02Z</time>
<desc>lat.=55.704399, lon.=26.086407, Alt.=166.377075m. Speed=0.036000m/h.</desc>
<speed>0.010000</speed>
</trkpt>
<trkpt lat="55.704399" lon="26.086407">
<ele>166.392700</ele>
<time>2010-07-17T19:19:03Z</time>
<desc>lat.=55.704399, lon.=26.086407, Alt.=166.392700m. Speed=0.000000m/h.</desc>
<speed>0.000000</speed>
</trkpt>
<trkpt lat="55.704399" lon="26.086407">
<ele>166.404419</ele>
<time>2010-07-17T19:19:04Z</time>
<desc>lat.=55.704399, lon.=26.086407, Alt.=166.404419m. Speed=0.072000m/h.</desc>
<speed>0.020000</speed>
</trkpt>
<trkpt lat="55.704399" lon="26.086407">
<ele>166.416138</ele>
<time>2010-07-17T19:19:05Z</time>
<desc>lat.=55.704399, lon.=26.086407, Alt.=166.416138m. Speed=0.000000m/h.</desc>
<speed>0.000000</speed>
</trkpt>
<trkpt lat="55.704399" lon="26.086407">
<ele>166.420044</ele>
<time>2010-07-17T19:19:06Z</time>
<desc>lat.=55.704399, lon.=26.086407, Alt.=166.420044m. Speed=0.144000m/h.</desc>
<speed>0.040000</speed>
</trkpt>
<trkpt lat="55.704399" lon="26.086407">
<ele>166.427856</ele>
<time>2010-07-17T19:19:07Z</time>
<desc>lat.=55.704399, lon.=26.086407, Alt.=166.427856m. Speed=0.036000m/h.</desc>
<speed>0.010000</speed>
</trkpt>
<trkpt lat="55.704399" lon="26.086407">
<ele>166.435669</ele>
<time>2010-07-17T19:19:08Z</time>
<desc>lat.=55.704399, lon.=26.086407, Alt.=166.435669m. Speed=0.036000m/h.</desc>
<speed>0.010000</speed>
</trkpt>
<trkpt lat="55.704399" lon="26.086407">
<ele>166.439575</ele>
<time>2010-07-17T19:19:09Z</time>
<desc>lat.=55.704399, lon.=26.086407, Alt.=166.439575m. Speed=0.000000m/h.</desc>
<speed>0.000000</speed>
</trkpt>
<trkpt lat="55.704399" lon="26.086407">
<ele>166.435669</ele>
<time>2010-07-17T19:19:10Z</time>
<desc>lat.=55.704399, lon.=26.086407, Alt.=166.435669m. Speed=0.036000m/h.</desc>
<speed>0.010000</speed>
</trkpt>
<trkpt lat="55.704399" lon="26.086407">
<ele>166.435669</ele>
<time>2010-07-17T19:19:11Z</time>
<desc>lat.=55.704399, lon.=26.086407, Alt.=166.435669m. Speed=0.036000m/h.</desc>
<speed>0.010000</speed>
</trkpt>
<trkpt lat="55.704399" lon="26.086407">
<ele>166.439575</ele>
<time>2010-07-17T19:19:12Z</time>
<desc>lat.=55.704399, lon.=26.086407, Alt.=166.439575m. Speed=0.000000m/h.</desc>
<speed>0.000000</speed>
</trkpt>
<trkpt lat="55.704399" lon="26.086407">
<ele>166.439575</ele>
<time>2010-07-17T19:19:13Z</time>
<desc>lat.=55.704399, lon.=26.086407, Alt.=166.439575m. Speed=0.036000m/h.</desc>
<speed>0.010000</speed>
</trkpt>
<trkpt lat="55.704399" lon="26.086407">
<ele>166.447388</ele>
<time>2010-07-17T19:19:14Z</time>
<desc>lat.=55.704399, lon.=26.086407, Alt.=166.447388m. Speed=0.036000m/h.</desc>
<speed>0.010000</speed>
</trkpt>
<trkpt lat="55.704399" lon="26.086407">
<ele>166.459106</ele>
<time>2010-07-17T19:19:15Z</time>
<desc>lat.=55.704399, lon.=26.086407, Alt.=166.459106m. Speed=0.036000m/h.</desc>
<speed>0.010000</speed>
</trkpt>
<trkpt lat="55.704399" lon="26.086407">
<ele>166.455200</ele>
<time>2010-07-17T19:19:16Z</time>
<desc>lat.=55.704399, lon.=26.086407, Alt.=166.455200m. Speed=0.036000m/h.</desc>
<speed>0.010000</speed>
</trkpt>
<trkpt lat="55.704399" lon="26.086407">
<ele>166.451294</ele>
<time>2010-07-17T19:19:17Z</time>
<desc>lat.=55.704399, lon.=26.086407, Alt.=166.451294m. Speed=0.000000m/h.</desc>
<speed>0.000000</speed>
</trkpt>
<trkpt lat="55.704399" lon="26.086407">
<ele>166.451294</ele>
<time>2010-07-17T19:19:18Z</time>
<desc>lat.=55.704399, lon.=26.086407, Alt.=166.451294m. Speed=0.036000m/h.</desc>
<speed>0.010000</speed>
</trkpt>
<trkpt lat="55.704399" lon="26.086407">
<ele>166.451294</ele>
<time>2010-07-17T19:19:19Z</time>
<desc>lat.=55.704399, lon.=26.086407, Alt.=166.451294m. Speed=0.000000m/h.</desc>
<speed>0.000000</speed>
</trkpt>
<trkpt lat="55.704399" lon="26.086407">
<ele>166.451294</ele>
<time>2010-07-17T19:19:20Z</time>
<desc>lat.=55.704399, lon.=26.086407, Alt.=166.451294m. Speed=0.036000m/h.</desc>
<speed>0.010000</speed>
</trkpt>
<trkpt lat="55.704399" lon="26.086407">
<ele>166.455200</ele>
<time>2010-07-17T19:19:21Z</time>
<desc>lat.=55.704399, lon.=26.086407, Alt.=166.455200m. Speed=0.000000m/h.</desc>
<speed>0.000000</speed>
</trkpt>
<trkpt lat="55.704399" lon="26.086407">
<ele>166.455200</ele>
<time>2010-07-17T19:19:22Z</time>
<desc>lat.=55.704399, lon.=26.086407, Alt.=166.455200m. Speed=0.000000m/h.</desc>
<speed>0.000000</speed>
</trkpt>
<trkpt lat="55.704399" lon="26.086407">
<ele>166.451294</ele>
<time>2010-07-17T19:19:23Z</time>
<desc>lat.=55.704399, lon.=26.086407, Alt.=166.451294m. Speed=0.036000m/h.</desc>
<speed>0.010000</speed>
</trkpt>
<trkpt lat="55.704399" lon="26.086407">
<ele>166.447388</ele>
<time>2010-07-17T19:19:24Z</time>
<desc>lat.=55.704399, lon.=26.086407, Alt.=166.447388m. Speed=0.036000m/h.</desc>
<speed>0.010000</speed>
</trkpt>
<trkpt lat="55.704399" lon="26.086407">
<ele>166.443481</ele>
<time>2010-07-17T19:19:25Z</time>
<desc>lat.=55.704399, lon.=26.086407, Alt.=166.443481m. Speed=0.036000m/h.</desc>
<speed>0.010000</speed>
</trkpt>
<trkpt lat="55.704399" lon="26.086407">
<ele>166.443481</ele>
<time>2010-07-17T19:19:26Z</time>
<desc>lat.=55.704399, lon.=26.086407, Alt.=166.443481m. Speed=0.072000m/h.</desc>
<speed>0.020000</speed>
</trkpt>
<trkpt lat="55.704399" lon="26.086407">
<ele>166.443481</ele>
<time>2010-07-17T19:19:27Z</time>
<desc>lat.=55.704399, lon.=26.086407, Alt.=166.443481m. Speed=0.108000m/h.</desc>
<speed>0.030000</speed>
</trkpt>
<trkpt lat="55.704399" lon="26.086407">
<ele>166.443481</ele>
<time>2010-07-17T19:19:28Z</time>
<desc>lat.=55.704399, lon.=26.086407, Alt.=166.443481m. Speed=0.000000m/h.</desc>
<speed>0.000000</speed>
</trkpt>
<trkpt lat="55.704399" lon="26.086407">
<ele>166.439575</ele>
<time>2010-07-17T19:19:29Z</time>
<desc>lat.=55.704399, lon.=26.086407, Alt.=166.439575m. Speed=0.072000m/h.</desc>
<speed>0.020000</speed>
</trkpt>
<trkpt lat="55.704399" lon="26.086407">
<ele>166.435669</ele>
<time>2010-07-17T19:19:30Z</time>
<desc>lat.=55.704399, lon.=26.086407, Alt.=166.435669m. Speed=0.036000m/h.</desc>
<speed>0.010000</speed>
</trkpt>
<trkpt lat="55.704399" lon="26.086407">
<ele>166.439575</ele>
<time>2010-07-17T19:19:31Z</time>
<desc>lat.=55.704399, lon.=26.086407, Alt.=166.439575m. Speed=0.036000m/h.</desc>
<speed>0.010000</speed>
</trkpt>
<trkpt lat="55.704399" lon="26.086405">
<ele>166.435669</ele>
<time>2010-07-17T19:19:32Z</time>
<desc>lat.=55.704399, lon.=26.086405, Alt.=166.435669m. Speed=0.072000m/h.</desc>
<speed>0.020000</speed>
</trkpt>
<trkpt lat="55.704399" lon="26.086405">
<ele>166.427856</ele>
<time>2010-07-17T19:19:33Z</time>
<desc>lat.=55.704399, lon.=26.086405, Alt.=166.427856m. Speed=0.072000m/h.</desc>
<speed>0.020000</speed>
</trkpt>
<trkpt lat="55.704399" lon="26.086405">
<ele>166.423950</ele>
<time>2010-07-17T19:19:34Z</time>
<desc>lat.=55.704399, lon.=26.086405, Alt.=166.423950m. Speed=0.036000m/h.</desc>
<speed>0.010000</speed>
</trkpt>
<trkpt lat="55.704399" lon="26.086405">
<ele>166.416138</ele>
<time>2010-07-17T19:19:35Z</time>
<desc>lat.=55.704399, lon.=26.086405, Alt.=166.416138m. Speed=0.036000m/h.</desc>
<speed>0.010000</speed>
</trkpt>
<trkpt lat="55.704399" lon="26.086405">
<ele>166.416138</ele>
<time>2010-07-17T19:19:36Z</time>
<desc>lat.=55.704399, lon.=26.086405, Alt.=166.416138m. Speed=0.036000m/h.</desc>
<speed>0.010000</speed>
</trkpt>
<trkpt lat="55.704399" lon="26.086407">
<ele>166.427856</ele>
<time>2010-07-17T19:19:37Z</time>
<desc>lat.=55.704399, lon.=26.086407, Alt.=166.427856m. Speed=0.036000m/h.</desc>
<speed>0.010000</speed>
</trkpt>
<trkpt lat="55.704399" lon="26.086407">
<ele>166.431763</ele>
<time>2010-07-17T19:19:38Z</time>
<desc>lat.=55.704399, lon.=26.086407, Alt.=166.431763m. Speed=0.036000m/h.</desc>
<speed>0.010000</speed>
</trkpt>
<trkpt lat="55.704399" lon="26.086407">
<ele>166.439575</ele>
<time>2010-07-17T19:19:39Z</time>
<desc>lat.=55.704399, lon.=26.086407, Alt.=166.439575m. Speed=0.072000m/h.</desc>
<speed>0.020000</speed>
</trkpt>
<trkpt lat="55.704399" lon="26.086407">
<ele>166.435669</ele>
<time>2010-07-17T19:19:40Z</time>
<desc>lat.=55.704399, lon.=26.086407, Alt.=166.435669m. Speed=0.072000m/h.</desc>
<speed>0.020000</speed>
</trkpt>
<trkpt lat="55.704399" lon="26.086407">
<ele>166.439575</ele>
<time>2010-07-17T19:19:41Z</time>
<desc>lat.=55.704399, lon.=26.086407, Alt.=166.439575m. Speed=0.072000m/h.</desc>
<speed>0.020000</speed>
</trkpt>
<trkpt lat="55.704399" lon="26.086407">
<ele>166.435669</ele>
<time>2010-07-17T19:19:42Z</time>
<desc>lat.=55.704399, lon.=26.086407, Alt.=166.435669m. Speed=0.000000m/h.</desc>
<speed>0.000000</speed>
</trkpt>
<trkpt lat="55.704399" lon="26.086407">
<ele>166.439575</ele>
<time>2010-07-17T19:19:43Z</time>
<desc>lat.=55.704399, lon.=26.086407, Alt.=166.439575m. Speed=0.000000m/h.</desc>
<speed>0.000000</speed>
</trkpt>
<trkpt lat="55.704399" lon="26.086407">
<ele>166.443481</ele>
<time>2010-07-17T19:19:44Z</time>
<desc>lat.=55.704399, lon.=26.086407, Alt.=166.443481m. Speed=0.072000m/h.</desc>
<speed>0.020000</speed>
</trkpt>
<trkpt lat="55.704399" lon="26.086407">
<ele>166.447388</ele>
<time>2010-07-17T19:19:45Z</time>
<desc>lat.=55.704399, lon.=26.086407, Alt.=166.447388m. Speed=0.000000m/h.</desc>
<speed>0.000000</speed>
</trkpt>
<trkpt lat="55.704399" lon="26.086407">
<ele>166.439575</ele>
<time>2010-07-17T19:19:46Z</time>
<desc>lat.=55.704399, lon.=26.086407, Alt.=166.439575m. Speed=0.036000m/h.</desc>
<speed>0.010000</speed>
</trkpt>
<trkpt lat="55.704399" lon="26.086407">
<ele>166.427856</ele>
<time>2010-07-17T19:19:47Z</time>
<desc>lat.=55.704399, lon.=26.086407, Alt.=166.427856m. Speed=0.000000m/h.</desc>
<speed>0.000000</speed>
</trkpt>
<trkpt lat="55.704399" lon="26.086407">
<ele>166.420044</ele>
<time>2010-07-17T19:19:48Z</time>
<desc>lat.=55.704399, lon.=26.086407, Alt.=166.420044m. Speed=0.036000m/h.</desc>
<speed>0.010000</speed>
</trkpt>
<trkpt lat="55.704399" lon="26.086407">
<ele>166.412231</ele>
<time>2010-07-17T19:19:49Z</time>
<desc>lat.=55.704399, lon.=26.086407, Alt.=166.412231m. Speed=0.000000m/h.</desc>
<speed>0.000000</speed>
</trkpt>
<trkpt lat="55.704399" lon="26.086407">
<ele>166.416138</ele>
<time>2010-07-17T19:19:50Z</time>
<desc>lat.=55.704399, lon.=26.086407, Alt.=166.416138m. Speed=0.108000m/h.</desc>
<speed>0.030000</speed>
</trkpt>
<trkpt lat="55.704399" lon="26.086407">
<ele>166.420044</ele>
<time>2010-07-17T19:19:51Z</time>
<desc>lat.=55.704399, lon.=26.086407, Alt.=166.420044m. Speed=0.036000m/h.</desc>
<speed>0.010000</speed>
</trkpt>
<trkpt lat="55.704399" lon="26.086407">
<ele>166.420044</ele>
<time>2010-07-17T19:19:52Z</time>
<desc>lat.=55.704399, lon.=26.086407, Alt.=166.420044m. Speed=0.036000m/h.</desc>
<speed>0.010000</speed>
</trkpt>
<trkpt lat="55.704399" lon="26.086407">
<ele>166.420044</ele>
<time>2010-07-17T19:19:53Z</time>
<desc>lat.=55.704399, lon.=26.086407, Alt.=166.420044m. Speed=0.036000m/h.</desc>
<speed>0.010000</speed>
</trkpt>
<trkpt lat="55.704399" lon="26.086407">
<ele>166.423950</ele>
<time>2010-07-17T19:19:54Z</time>
<desc>lat.=55.704399, lon.=26.086407, Alt.=166.423950m. Speed=0.036000m/h.</desc>
<speed>0.010000</speed>
</trkpt>
<trkpt lat="55.704399" lon="26.086407">
<ele>166.423950</ele>
<time>2010-07-17T19:19:55Z</time>
<desc>lat.=55.704399, lon.=26.086407, Alt.=166.423950m. Speed=0.036000m/h.</desc>
<speed>0.010000</speed>
</trkpt>
<trkpt lat="55.704399" lon="26.086407">
<ele>166.420044</ele>
<time>2010-07-17T19:19:56Z</time>
<desc>lat.=55.704399, lon.=26.086407, Alt.=166.420044m. Speed=0.036000m/h.</desc>
<speed>0.010000</speed>
</trkpt>
<trkpt lat="55.704399" lon="26.086409">
<ele>166.420044</ele>
<time>2010-07-17T19:19:57Z</time>
<desc>lat.=55.704399, lon.=26.086409, Alt.=166.420044m. Speed=0.036000m/h.</desc>
<speed>0.010000</speed>
</trkpt>
<trkpt lat="55.704399" lon="26.086409">
<ele>166.423950</ele>
<time>2010-07-17T19:19:58Z</time>
<desc>lat.=55.704399, lon.=26.086409, Alt.=166.423950m. Speed=0.000000m/h.</desc>
<speed>0.000000</speed>
</trkpt>
<trkpt lat="55.704399" lon="26.086409">
<ele>166.416138</ele>
<time>2010-07-17T19:19:59Z</time>
<desc>lat.=55.704399, lon.=26.086409, Alt.=166.416138m. Speed=0.036000m/h.</desc>
<speed>0.010000</speed>
</trkpt>
<trkpt lat="55.704399" lon="26.086409">
<ele>166.408325</ele>
<time>2010-07-17T19:20:00Z</time>
<desc>lat.=55.704399, lon.=26.086409, Alt.=166.408325m. Speed=0.072000m/h.</desc>
<speed>0.020000</speed>
</trkpt>
<trkpt lat="55.704399" lon="26.086409">
<ele>166.396606</ele>
<time>2010-07-17T19:20:01Z</time>
<desc>lat.=55.704399, lon.=26.086409, Alt.=166.396606m. Speed=0.036000m/h.</desc>
<speed>0.010000</speed>
</trkpt>
<trkpt lat="55.704399" lon="26.086409">
<ele>166.388794</ele>
<time>2010-07-17T19:20:02Z</time>
<desc>lat.=55.704399, lon.=26.086409, Alt.=166.388794m. Speed=0.072000m/h.</desc>
<speed>0.020000</speed>
</trkpt>
<trkpt lat="55.704399" lon="26.086409">
<ele>166.380981</ele>
<time>2010-07-17T19:20:03Z</time>
<desc>lat.=55.704399, lon.=26.086409, Alt.=166.380981m. Speed=0.144000m/h.</desc>
<speed>0.040000</speed>
</trkpt>
<trkpt lat="55.704399" lon="26.086409">
<ele>166.377075</ele>
<time>2010-07-17T19:20:04Z</time>
<desc>lat.=55.704399, lon.=26.086409, Alt.=166.377075m. Speed=0.072000m/h.</desc>
<speed>0.020000</speed>
</trkpt>
<trkpt lat="55.704399" lon="26.086409">
<ele>166.369263</ele>
<time>2010-07-17T19:20:05Z</time>
<desc>lat.=55.704399, lon.=26.086409, Alt.=166.369263m. Speed=0.036000m/h.</desc>
<speed>0.010000</speed>
</trkpt>
<trkpt lat="55.704399" lon="26.086409">
<ele>166.365356</ele>
<time>2010-07-17T19:20:06Z</time>
<desc>lat.=55.704399, lon.=26.086409, Alt.=166.365356m. Speed=0.000000m/h.</desc>
<speed>0.000000</speed>
</trkpt>
<trkpt lat="55.704399" lon="26.086409">
<ele>166.357544</ele>
<time>2010-07-17T19:20:07Z</time>
<desc>lat.=55.704399, lon.=26.086409, Alt.=166.357544m. Speed=0.072000m/h.</desc>
<speed>0.020000</speed>
</trkpt>
<trkpt lat="55.704399" lon="26.086409">
<ele>166.349731</ele>
<time>2010-07-17T19:20:08Z</time>
<desc>lat.=55.704399, lon.=26.086409, Alt.=166.349731m. Speed=0.000000m/h.</desc>
<speed>0.000000</speed>
</trkpt>
<trkpt lat="55.704399" lon="26.086409">
<ele>166.338013</ele>
<time>2010-07-17T19:20:09Z</time>
<desc>lat.=55.704399, lon.=26.086409, Alt.=166.338013m. Speed=0.108000m/h.</desc>
<speed>0.030000</speed>
</trkpt>
<trkpt lat="55.704399" lon="26.086409">
<ele>166.334106</ele>
<time>2010-07-17T19:20:10Z</time>
<desc>lat.=55.704399, lon.=26.086409, Alt.=166.334106m. Speed=0.000000m/h.</desc>
<speed>0.000000</speed>
</trkpt>
<trkpt lat="55.704399" lon="26.086409">
<ele>166.334106</ele>
<time>2010-07-17T19:20:11Z</time>
<desc>lat.=55.704399, lon.=26.086409, Alt.=166.334106m. Speed=0.000000m/h.</desc>
<speed>0.000000</speed>
</trkpt>
<trkpt lat="55.704399" lon="26.086409">
<ele>166.330200</ele>
<time>2010-07-17T19:20:12Z</time>
<desc>lat.=55.704399, lon.=26.086409, Alt.=166.330200m. Speed=0.000000m/h.</desc>
<speed>0.000000</speed>
</trkpt>
<trkpt lat="55.704399" lon="26.086409">
<ele>166.326294</ele>
<time>2010-07-17T19:20:13Z</time>
<desc>lat.=55.704399, lon.=26.086409, Alt.=166.326294m. Speed=0.036000m/h.</desc>
<speed>0.010000</speed>
</trkpt>
<trkpt lat="55.704399" lon="26.086409">
<ele>166.318481</ele>
<time>2010-07-17T19:20:14Z</time>
<desc>lat.=55.704399, lon.=26.086409, Alt.=166.318481m. Speed=0.000000m/h.</desc>
<speed>0.000000</speed>
</trkpt>
<trkpt lat="55.704399" lon="26.086409">
<ele>166.314575</ele>
<time>2010-07-17T19:20:15Z</time>
<desc>lat.=55.704399, lon.=26.086409, Alt.=166.314575m. Speed=0.036000m/h.</desc>
<speed>0.010000</speed>
</trkpt>
<trkpt lat="55.704399" lon="26.086409">
<ele>166.314575</ele>
<time>2010-07-17T19:20:16Z</time>
<desc>lat.=55.704399, lon.=26.086409, Alt.=166.314575m. Speed=0.072000m/h.</desc>
<speed>0.020000</speed>
</trkpt>
<trkpt lat="55.704399" lon="26.086409">
<ele>166.314575</ele>
<time>2010-07-17T19:20:17Z</time>
<desc>lat.=55.704399, lon.=26.086409, Alt.=166.314575m. Speed=0.000000m/h.</desc>
<speed>0.000000</speed>
</trkpt>
<trkpt lat="55.704399" lon="26.086409">
<ele>166.318481</ele>
<time>2010-07-17T19:20:18Z</time>
<desc>lat.=55.704399, lon.=26.086409, Alt.=166.318481m. Speed=0.036000m/h.</desc>
<speed>0.010000</speed>
</trkpt>
<trkpt lat="55.704399" lon="26.086409">
<ele>166.318481</ele>
<time>2010-07-17T19:20:19Z</time>
<desc>lat.=55.704399, lon.=26.086409, Alt.=166.318481m. Speed=0.144000m/h.</desc>
<speed>0.040000</speed>
</trkpt>
<trkpt lat="55.704399" lon="26.086409">
<ele>166.314575</ele>
<time>2010-07-17T19:20:20Z</time>
<desc>lat.=55.704399, lon.=26.086409, Alt.=166.314575m. Speed=0.036000m/h.</desc>
<speed>0.010000</speed>
</trkpt>
<trkpt lat="55.704399" lon="26.086409">
<ele>166.306763</ele>
<time>2010-07-17T19:20:21Z</time>
<desc>lat.=55.704399, lon.=26.086409, Alt.=166.306763m. Speed=0.108000m/h.</desc>
<speed>0.030000</speed>
</trkpt>
<trkpt lat="55.704399" lon="26.086409">
<ele>166.310669</ele>
<time>2010-07-17T19:20:22Z</time>
<desc>lat.=55.704399, lon.=26.086409, Alt.=166.310669m. Speed=0.108000m/h.</desc>
<speed>0.030000</speed>
</trkpt>
<trkpt lat="55.704399" lon="26.086409">
<ele>166.310669</ele>
<time>2010-07-17T19:20:23Z</time>
<desc>lat.=55.704399, lon.=26.086409, Alt.=166.310669m. Speed=0.036000m/h.</desc>
<speed>0.010000</speed>
</trkpt>
<trkpt lat="55.704399" lon="26.086409">
<ele>166.310669</ele>
<time>2010-07-17T19:20:24Z</time>
<desc>lat.=55.704399, lon.=26.086409, Alt.=166.310669m. Speed=0.072000m/h.</desc>
<speed>0.020000</speed>
</trkpt>
<trkpt lat="55.704399" lon="26.086409">
<ele>166.306763</ele>
<time>2010-07-17T19:20:25Z</time>
<desc>lat.=55.704399, lon.=26.086409, Alt.=166.306763m. Speed=0.036000m/h.</desc>
<speed>0.010000</speed>
</trkpt>
<trkpt lat="55.704399" lon="26.086409">
<ele>166.306763</ele>
<time>2010-07-17T19:20:26Z</time>
<desc>lat.=55.704399, lon.=26.086409, Alt.=166.306763m. Speed=0.036000m/h.</desc>
<speed>0.010000</speed>
</trkpt>
<trkpt lat="55.704399" lon="26.086409">
<ele>166.302856</ele>
<time>2010-07-17T19:20:27Z</time>
<desc>lat.=55.704399, lon.=26.086409, Alt.=166.302856m. Speed=0.108000m/h.</desc>
<speed>0.030000</speed>
</trkpt>
<trkpt lat="55.704399" lon="26.086409">
<ele>166.306763</ele>
<time>2010-07-17T19:20:28Z</time>
<desc>lat.=55.704399, lon.=26.086409, Alt.=166.306763m. Speed=0.144000m/h.</desc>
<speed>0.040000</speed>
</trkpt>
<trkpt lat="55.704399" lon="26.086409">
<ele>166.310669</ele>
<time>2010-07-17T19:20:29Z</time>
<desc>lat.=55.704399, lon.=26.086409, Alt.=166.310669m. Speed=0.036000m/h.</desc>
<speed>0.010000</speed>
</trkpt>
<trkpt lat="55.704399" lon="26.086409">
<ele>166.314575</ele>
<time>2010-07-17T19:20:30Z</time>
<desc>lat.=55.704399, lon.=26.086409, Alt.=166.314575m. Speed=0.036000m/h.</desc>
<speed>0.010000</speed>
</trkpt>
<trkpt lat="55.704399" lon="26.086409">
<ele>166.318481</ele>
<time>2010-07-17T19:20:31Z</time>
<desc>lat.=55.704399, lon.=26.086409, Alt.=166.318481m. Speed=0.036000m/h.</desc>
<speed>0.010000</speed>
</trkpt>
<trkpt lat="55.704399" lon="26.086409">
<ele>166.322388</ele>
<time>2010-07-17T19:20:32Z</time>
<desc>lat.=55.704399, lon.=26.086409, Alt.=166.322388m. Speed=0.000000m/h.</desc>
<speed>0.000000</speed>
</trkpt>
<trkpt lat="55.704399" lon="26.086409">
<ele>166.326294</ele>
<time>2010-07-17T19:20:33Z</time>
<desc>lat.=55.704399, lon.=26.086409, Alt.=166.326294m. Speed=0.108000m/h.</desc>
<speed>0.030000</speed>
</trkpt>
<trkpt lat="55.704399" lon="26.086411">
<ele>166.334106</ele>
<time>2010-07-17T19:20:34Z</time>
<desc>lat.=55.704399, lon.=26.086411, Alt.=166.334106m. Speed=0.108000m/h.</desc>
<speed>0.030000</speed>
</trkpt>
<trkpt lat="55.704399" lon="26.086411">
<ele>166.345825</ele>
<time>2010-07-17T19:20:35Z</time>
<desc>lat.=55.704399, lon.=26.086411, Alt.=166.345825m. Speed=0.144000m/h.</desc>
<speed>0.040000</speed>
</trkpt>
<trkpt lat="55.704399" lon="26.086411">
<ele>166.349731</ele>
<time>2010-07-17T19:20:36Z</time>
<desc>lat.=55.704399, lon.=26.086411, Alt.=166.349731m. Speed=0.180000m/h.</desc>
<speed>0.050000</speed>
</trkpt>
<trkpt lat="55.704399" lon="26.086411">
<ele>166.353638</ele>
<time>2010-07-17T19:20:37Z</time>
<desc>lat.=55.704399, lon.=26.086411, Alt.=166.353638m. Speed=0.108000m/h.</desc>
<speed>0.030000</speed>
</trkpt>
<trkpt lat="55.704399" lon="26.086411">
<ele>166.365356</ele>
<time>2010-07-17T19:20:38Z</time>
<desc>lat.=55.704399, lon.=26.086411, Alt.=166.365356m. Speed=0.000000m/h.</desc>
<speed>0.000000</speed>
</trkpt>
<trkpt lat="55.704399" lon="26.086411">
<ele>166.373169</ele>
<time>2010-07-17T19:20:39Z</time>
<desc>lat.=55.704399, lon.=26.086411, Alt.=166.373169m. Speed=0.144000m/h.</desc>
<speed>0.040000</speed>
</trkpt>
<trkpt lat="55.704399" lon="26.086411">
<ele>166.377075</ele>
<time>2010-07-17T19:20:40Z</time>
<desc>lat.=55.704399, lon.=26.086411, Alt.=166.377075m. Speed=0.108000m/h.</desc>
<speed>0.030000</speed>
</trkpt>
<trkpt lat="55.704399" lon="26.086411">
<ele>166.388794</ele>
<time>2010-07-17T19:20:41Z</time>
<desc>lat.=55.704399, lon.=26.086411, Alt.=166.388794m. Speed=0.072000m/h.</desc>
<speed>0.020000</speed>
</trkpt>
<trkpt lat="55.704399" lon="26.086411">
<ele>166.396606</ele>
<time>2010-07-17T19:20:42Z</time>
<desc>lat.=55.704399, lon.=26.086411, Alt.=166.396606m. Speed=0.000000m/h.</desc>
<speed>0.000000</speed>
</trkpt>
<trkpt lat="55.704399" lon="26.086411">
<ele>166.400513</ele>
<time>2010-07-17T19:20:43Z</time>
<desc>lat.=55.704399, lon.=26.086411, Alt.=166.400513m. Speed=0.036000m/h.</desc>
<speed>0.010000</speed>
</trkpt>
<trkpt lat="55.704399" lon="26.086411">
<ele>166.396606</ele>
<time>2010-07-17T19:20:44Z</time>
<desc>lat.=55.704399, lon.=26.086411, Alt.=166.396606m. Speed=0.108000m/h.</desc>
<speed>0.030000</speed>
</trkpt>
<trkpt lat="55.704399" lon="26.086411">
<ele>166.400513</ele>
<time>2010-07-17T19:20:45Z</time>
<desc>lat.=55.704399, lon.=26.086411, Alt.=166.400513m. Speed=0.108000m/h.</desc>
<speed>0.030000</speed>
</trkpt>
<trkpt lat="55.704399" lon="26.086411">
<ele>166.396606</ele>
<time>2010-07-17T19:20:46Z</time>
<desc>lat.=55.704399, lon.=26.086411, Alt.=166.396606m. Speed=0.180000m/h.</desc>
<speed>0.050000</speed>
</trkpt>
<trkpt lat="55.704399" lon="26.086411">
<ele>166.400513</ele>
<time>2010-07-17T19:20:47Z</time>
<desc>lat.=55.704399, lon.=26.086411, Alt.=166.400513m. Speed=0.108000m/h.</desc>
<speed>0.030000</speed>
</trkpt>
<trkpt lat="55.704399" lon="26.086411">
<ele>166.404419</ele>
<time>2010-07-17T19:20:48Z</time>
<desc>lat.=55.704399, lon.=26.086411, Alt.=166.404419m. Speed=0.036000m/h.</desc>
<speed>0.010000</speed>
</trkpt>
<trkpt lat="55.704399" lon="26.086411">
<ele>166.400513</ele>
<time>2010-07-17T19:20:49Z</time>
<desc>lat.=55.704399, lon.=26.086411, Alt.=166.400513m. Speed=0.036000m/h.</desc>
<speed>0.010000</speed>
</trkpt>
<trkpt lat="55.704399" lon="26.086411">
<ele>166.400513</ele>
<time>2010-07-17T19:20:50Z</time>
<desc>lat.=55.704399, lon.=26.086411, Alt.=166.400513m. Speed=0.360000m/h.</desc>
<speed>0.100000</speed>
</trkpt>
<trkpt lat="55.704399" lon="26.086411">
<ele>166.388794</ele>
<time>2010-07-17T19:20:51Z</time>
<desc>lat.=55.704399, lon.=26.086411, Alt.=166.388794m. Speed=0.036000m/h.</desc>
<speed>0.010000</speed>
</trkpt>
<trkpt lat="55.704399" lon="26.086411">
<ele>166.384888</ele>
<time>2010-07-17T19:20:52Z</time>
<desc>lat.=55.704399, lon.=26.086411, Alt.=166.384888m. Speed=0.144000m/h.</desc>
<speed>0.040000</speed>
</trkpt>
<trkpt lat="55.704399" lon="26.086411">
<ele>166.377075</ele>
<time>2010-07-17T19:20:53Z</time>
<desc>lat.=55.704399, lon.=26.086411, Alt.=166.377075m. Speed=0.108000m/h.</desc>
<speed>0.030000</speed>
</trkpt>
<trkpt lat="55.704399" lon="26.086411">
<ele>166.369263</ele>
<time>2010-07-17T19:20:54Z</time>
<desc>lat.=55.704399, lon.=26.086411, Alt.=166.369263m. Speed=0.072000m/h.</desc>
<speed>0.020000</speed>
</trkpt>
<trkpt lat="55.704399" lon="26.086411">
<ele>166.361450</ele>
<time>2010-07-17T19:20:55Z</time>
<desc>lat.=55.704399, lon.=26.086411, Alt.=166.361450m. Speed=0.072000m/h.</desc>
<speed>0.020000</speed>
</trkpt>
<trkpt lat="55.704399" lon="26.086411">
<ele>166.361450</ele>
<time>2010-07-17T19:20:56Z</time>
<desc>lat.=55.704399, lon.=26.086411, Alt.=166.361450m. Speed=0.072000m/h.</desc>
<speed>0.020000</speed>
</trkpt>
<trkpt lat="55.704399" lon="26.086411">
<ele>166.357544</ele>
<time>2010-07-17T19:20:57Z</time>
<desc>lat.=55.704399, lon.=26.086411, Alt.=166.357544m. Speed=0.072000m/h.</desc>
<speed>0.020000</speed>
</trkpt>
<trkpt lat="55.704399" lon="26.086411">
<ele>166.349731</ele>
<time>2010-07-17T19:20:58Z</time>
<desc>lat.=55.704399, lon.=26.086411, Alt.=166.349731m. Speed=0.000000m/h.</desc>
<speed>0.000000</speed>
</trkpt>
<trkpt lat="55.704399" lon="26.086411">
<ele>166.349731</ele>
<time>2010-07-17T19:20:59Z</time>
<desc>lat.=55.704399, lon.=26.086411, Alt.=166.349731m. Speed=0.072000m/h.</desc>
<speed>0.020000</speed>
</trkpt>
<trkpt lat="55.704399" lon="26.086411">
<ele>166.345825</ele>
<time>2010-07-17T19:21:00Z</time>
<desc>lat.=55.704399, lon.=26.086411, Alt.=166.345825m. Speed=0.108000m/h.</desc>
<speed>0.030000</speed>
</trkpt>
<trkpt lat="55.704399" lon="26.086411">
<ele>166.341919</ele>
<time>2010-07-17T19:21:01Z</time>
<desc>lat.=55.704399, lon.=26.086411, Alt.=166.341919m. Speed=0.000000m/h.</desc>
<speed>0.000000</speed>
</trkpt>
<trkpt lat="55.704399" lon="26.086411">
<ele>166.334106</ele>
<time>2010-07-17T19:21:02Z</time>
<desc>lat.=55.704399, lon.=26.086411, Alt.=166.334106m. Speed=0.000000m/h.</desc>
<speed>0.000000</speed>
</trkpt>
<trkpt lat="55.704399" lon="26.086411">
<ele>166.330200</ele>
<time>2010-07-17T19:21:03Z</time>
<desc>lat.=55.704399, lon.=26.086411, Alt.=166.330200m. Speed=0.036000m/h.</desc>
<speed>0.010000</speed>
</trkpt>
<trkpt lat="55.704399" lon="26.086411">
<ele>166.318481</ele>
<time>2010-07-17T19:21:04Z</time>
<desc>lat.=55.704399, lon.=26.086411, Alt.=166.318481m. Speed=0.072000m/h.</desc>
<speed>0.020000</speed>
</trkpt>
<trkpt lat="55.704399" lon="26.086411">
<ele>166.310669</ele>
<time>2010-07-17T19:21:05Z</time>
<desc>lat.=55.704399, lon.=26.086411, Alt.=166.310669m. Speed=0.108000m/h.</desc>
<speed>0.030000</speed>
</trkpt>
<trkpt lat="55.704399" lon="26.086411">
<ele>166.306763</ele>
<time>2010-07-17T19:21:06Z</time>
<desc>lat.=55.704399, lon.=26.086411, Alt.=166.306763m. Speed=0.072000m/h.</desc>
<speed>0.020000</speed>
</trkpt>
<trkpt lat="55.704399" lon="26.086411">
<ele>166.298950</ele>
<time>2010-07-17T19:21:07Z</time>
<desc>lat.=55.704399, lon.=26.086411, Alt.=166.298950m. Speed=0.072000m/h.</desc>
<speed>0.020000</speed>
</trkpt>
<trkpt lat="55.704399" lon="26.086411">
<ele>166.291138</ele>
<time>2010-07-17T19:21:08Z</time>
<desc>lat.=55.704399, lon.=26.086411, Alt.=166.291138m. Speed=0.072000m/h.</desc>
<speed>0.020000</speed>
</trkpt>
<trkpt lat="55.704399" lon="26.086411">
<ele>166.283325</ele>
<time>2010-07-17T19:21:09Z</time>
<desc>lat.=55.704399, lon.=26.086411, Alt.=166.283325m. Speed=0.144000m/h.</desc>
<speed>0.040000</speed>
</trkpt>
<trkpt lat="55.704399" lon="26.086411">
<ele>166.283325</ele>
<time>2010-07-17T19:21:10Z</time>
<desc>lat.=55.704399, lon.=26.086411, Alt.=166.283325m. Speed=0.144000m/h.</desc>
<speed>0.040000</speed>
</trkpt>
<trkpt lat="55.704399" lon="26.086411">
<ele>166.275513</ele>
<time>2010-07-17T19:21:11Z</time>
<desc>lat.=55.704399, lon.=26.086411, Alt.=166.275513m. Speed=0.108000m/h.</desc>
<speed>0.030000</speed>
</trkpt>
<trkpt lat="55.704399" lon="26.086411">
<ele>166.267700</ele>
<time>2010-07-17T19:21:12Z</time>
<desc>lat.=55.704399, lon.=26.086411, Alt.=166.267700m. Speed=0.072000m/h.</desc>
<speed>0.020000</speed>
</trkpt>
<trkpt lat="55.704399" lon="26.086409">
<ele>166.255981</ele>
<time>2010-07-17T19:21:13Z</time>
<desc>lat.=55.704399, lon.=26.086409, Alt.=166.255981m. Speed=0.216000m/h.</desc>
<speed>0.060000</speed>
</trkpt>
<trkpt lat="55.704399" lon="26.086409">
<ele>166.240356</ele>
<time>2010-07-17T19:21:14Z</time>
<desc>lat.=55.704399, lon.=26.086409, Alt.=166.240356m. Speed=0.144000m/h.</desc>
<speed>0.040000</speed>
</trkpt>
<trkpt lat="55.704399" lon="26.086409">
<ele>166.224731</ele>
<time>2010-07-17T19:21:15Z</time>
<desc>lat.=55.704399, lon.=26.086409, Alt.=166.224731m. Speed=0.180000m/h.</desc>
<speed>0.050000</speed>
</trkpt>
<trkpt lat="55.704399" lon="26.086409">
<ele>166.220825</ele>
<time>2010-07-17T19:21:16Z</time>
<desc>lat.=55.704399, lon.=26.086409, Alt.=166.220825m. Speed=0.144000m/h.</desc>
<speed>0.040000</speed>
</trkpt>
<trkpt lat="55.704399" lon="26.086409">
<ele>166.213013</ele>
<time>2010-07-17T19:21:17Z</time>
<desc>lat.=55.704399, lon.=26.086409, Alt.=166.213013m. Speed=0.252000m/h.</desc>
<speed>0.070000</speed>
</trkpt>
<trkpt lat="55.704399" lon="26.086409">
<ele>166.209106</ele>
<time>2010-07-17T19:21:18Z</time>
<desc>lat.=55.704399, lon.=26.086409, Alt.=166.209106m. Speed=0.144000m/h.</desc>
<speed>0.040000</speed>
</trkpt>
<trkpt lat="55.704399" lon="26.086409">
<ele>166.205200</ele>
<time>2010-07-17T19:21:19Z</time>
<desc>lat.=55.704399, lon.=26.086409, Alt.=166.205200m. Speed=0.144000m/h.</desc>
<speed>0.040000</speed>
</trkpt>
<trkpt lat="55.704399" lon="26.086409">
<ele>166.201294</ele>
<time>2010-07-17T19:21:20Z</time>
<desc>lat.=55.704399, lon.=26.086409, Alt.=166.201294m. Speed=0.000000m/h.</desc>
<speed>0.000000</speed>
</trkpt>
<trkpt lat="55.704399" lon="26.086409">
<ele>166.189575</ele>
<time>2010-07-17T19:21:21Z</time>
<desc>lat.=55.704399, lon.=26.086409, Alt.=166.189575m. Speed=0.036000m/h.</desc>
<speed>0.010000</speed>
</trkpt>
<trkpt lat="55.704399" lon="26.086407">
<ele>166.185669</ele>
<time>2010-07-17T19:21:22Z</time>
<desc>lat.=55.704399, lon.=26.086407, Alt.=166.185669m. Speed=0.072000m/h.</desc>
<speed>0.020000</speed>
</trkpt>
<trkpt lat="55.704399" lon="26.086407">
<ele>166.185669</ele>
<time>2010-07-17T19:21:23Z</time>
<desc>lat.=55.704399, lon.=26.086407, Alt.=166.185669m. Speed=0.072000m/h.</desc>
<speed>0.020000</speed>
</trkpt>
<trkpt lat="55.704395" lon="26.086407">
<ele>166.177856</ele>
<time>2010-07-17T19:21:24Z</time>
<desc>lat.=55.704395, lon.=26.086407, Alt.=166.177856m. Speed=0.108000m/h.</desc>
<speed>0.030000</speed>
</trkpt>
<trkpt lat="55.704395" lon="26.086407">
<ele>166.166138</ele>
<time>2010-07-17T19:21:25Z</time>
<desc>lat.=55.704395, lon.=26.086407, Alt.=166.166138m. Speed=0.180000m/h.</desc>
<speed>0.050000</speed>
</trkpt>
<trkpt lat="55.704395" lon="26.086407">
<ele>166.158325</ele>
<time>2010-07-17T19:21:26Z</time>
<desc>lat.=55.704395, lon.=26.086407, Alt.=166.158325m. Speed=0.036000m/h.</desc>
<speed>0.010000</speed>
</trkpt>
<trkpt lat="55.704395" lon="26.086407">
<ele>166.154419</ele>
<time>2010-07-17T19:21:27Z</time>
<desc>lat.=55.704395, lon.=26.086407, Alt.=166.154419m. Speed=0.072000m/h.</desc>
<speed>0.020000</speed>
</trkpt>
<trkpt lat="55.704395" lon="26.086407">
<ele>166.146606</ele>
<time>2010-07-17T19:21:28Z</time>
<desc>lat.=55.704395, lon.=26.086407, Alt.=166.146606m. Speed=0.036000m/h.</desc>
<speed>0.010000</speed>
</trkpt>
<trkpt lat="55.704395" lon="26.086407">
<ele>166.138794</ele>
<time>2010-07-17T19:21:29Z</time>
<desc>lat.=55.704395, lon.=26.086407, Alt.=166.138794m. Speed=0.036000m/h.</desc>
<speed>0.010000</speed>
</trkpt>
<trkpt lat="55.704395" lon="26.086407">
<ele>166.134888</ele>
<time>2010-07-17T19:21:30Z</time>
<desc>lat.=55.704395, lon.=26.086407, Alt.=166.134888m. Speed=0.144000m/h.</desc>
<speed>0.040000</speed>
</trkpt>
<trkpt lat="55.704395" lon="26.086407">
<ele>166.134888</ele>
<time>2010-07-17T19:21:31Z</time>
<desc>lat.=55.704395, lon.=26.086407, Alt.=166.134888m. Speed=0.072000m/h.</desc>
<speed>0.020000</speed>
</trkpt>
<trkpt lat="55.704395" lon="26.086407">
<ele>166.123169</ele>
<time>2010-07-17T19:21:32Z</time>
<desc>lat.=55.704395, lon.=26.086407, Alt.=166.123169m. Speed=0.072000m/h.</desc>
<speed>0.020000</speed>
</trkpt>
<trkpt lat="55.704395" lon="26.086407">
<ele>166.119263</ele>
<time>2010-07-17T19:21:33Z</time>
<desc>lat.=55.704395, lon.=26.086407, Alt.=166.119263m. Speed=0.036000m/h.</desc>
<speed>0.010000</speed>
</trkpt>
<trkpt lat="55.704395" lon="26.086405">
<ele>166.111450</ele>
<time>2010-07-17T19:21:34Z</time>
<desc>lat.=55.704395, lon.=26.086405, Alt.=166.111450m. Speed=0.108000m/h.</desc>
<speed>0.030000</speed>
</trkpt>
<trkpt lat="55.704395" lon="26.086405">
<ele>166.103638</ele>
<time>2010-07-17T19:21:35Z</time>
<desc>lat.=55.704395, lon.=26.086405, Alt.=166.103638m. Speed=0.036000m/h.</desc>
<speed>0.010000</speed>
</trkpt>
<trkpt lat="55.704395" lon="26.086405">
<ele>166.095825</ele>
<time>2010-07-17T19:21:36Z</time>
<desc>lat.=55.704395, lon.=26.086405, Alt.=166.095825m. Speed=0.072000m/h.</desc>
<speed>0.020000</speed>
</trkpt>
<trkpt lat="55.704395" lon="26.086405">
<ele>166.091919</ele>
<time>2010-07-17T19:21:37Z</time>
<desc>lat.=55.704395, lon.=26.086405, Alt.=166.091919m. Speed=0.072000m/h.</desc>
<speed>0.020000</speed>
</trkpt>
<trkpt lat="55.704395" lon="26.086405">
<ele>166.088013</ele>
<time>2010-07-17T19:21:38Z</time>
<desc>lat.=55.704395, lon.=26.086405, Alt.=166.088013m. Speed=0.072000m/h.</desc>
<speed>0.020000</speed>
</trkpt>
<trkpt lat="55.704395" lon="26.086405">
<ele>166.084106</ele>
<time>2010-07-17T19:21:39Z</time>
<desc>lat.=55.704395, lon.=26.086405, Alt.=166.084106m. Speed=0.108000m/h.</desc>
<speed>0.030000</speed>
</trkpt>
<trkpt lat="55.704395" lon="26.086405">
<ele>166.076294</ele>
<time>2010-07-17T19:21:40Z</time>
<desc>lat.=55.704395, lon.=26.086405, Alt.=166.076294m. Speed=0.180000m/h.</desc>
<speed>0.050000</speed>
</trkpt>
<trkpt lat="55.704395" lon="26.086405">
<ele>166.064575</ele>
<time>2010-07-17T19:21:41Z</time>
<desc>lat.=55.704395, lon.=26.086405, Alt.=166.064575m. Speed=0.144000m/h.</desc>
<speed>0.040000</speed>
</trkpt>
<trkpt lat="55.704395" lon="26.086405">
<ele>166.056763</ele>
<time>2010-07-17T19:21:42Z</time>
<desc>lat.=55.704395, lon.=26.086405, Alt.=166.056763m. Speed=0.144000m/h.</desc>
<speed>0.040000</speed>
</trkpt>
<trkpt lat="55.704395" lon="26.086405">
<ele>166.052856</ele>
<time>2010-07-17T19:21:43Z</time>
<desc>lat.=55.704395, lon.=26.086405, Alt.=166.052856m. Speed=0.036000m/h.</desc>
<speed>0.010000</speed>
</trkpt>
<trkpt lat="55.704395" lon="26.086405">
<ele>166.048950</ele>
<time>2010-07-17T19:21:44Z</time>
<desc>lat.=55.704395, lon.=26.086405, Alt.=166.048950m. Speed=0.036000m/h.</desc>
<speed>0.010000</speed>
</trkpt>
<trkpt lat="55.704395" lon="26.086405">
<ele>166.045044</ele>
<time>2010-07-17T19:21:45Z</time>
<desc>lat.=55.704395, lon.=26.086405, Alt.=166.045044m. Speed=0.000000m/h.</desc>
<speed>0.000000</speed>
</trkpt>
<trkpt lat="55.704395" lon="26.086405">
<ele>166.045044</ele>
<time>2010-07-17T19:21:46Z</time>
<desc>lat.=55.704395, lon.=26.086405, Alt.=166.045044m. Speed=0.000000m/h.</desc>
<speed>0.000000</speed>
</trkpt>
<trkpt lat="55.704395" lon="26.086405">
<ele>166.045044</ele>
<time>2010-07-17T19:21:47Z</time>
<desc>lat.=55.704395, lon.=26.086405, Alt.=166.045044m. Speed=0.036000m/h.</desc>
<speed>0.010000</speed>
</trkpt>
<trkpt lat="55.704395" lon="26.086405">
<ele>166.045044</ele>
<time>2010-07-17T19:21:48Z</time>
<desc>lat.=55.704395, lon.=26.086405, Alt.=166.045044m. Speed=0.000000m/h.</desc>
<speed>0.000000</speed>
</trkpt>
<trkpt lat="55.704395" lon="26.086403">
<ele>166.041138</ele>
<time>2010-07-17T19:21:49Z</time>
<desc>lat.=55.704395, lon.=26.086403, Alt.=166.041138m. Speed=0.108000m/h.</desc>
<speed>0.030000</speed>
</trkpt>
<trkpt lat="55.704395" lon="26.086403">
<ele>166.041138</ele>
<time>2010-07-17T19:21:50Z</time>
<desc>lat.=55.704395, lon.=26.086403, Alt.=166.041138m. Speed=0.036000m/h.</desc>
<speed>0.010000</speed>
</trkpt>
<trkpt lat="55.704395" lon="26.086403">
<ele>166.037231</ele>
<time>2010-07-17T19:21:51Z</time>
<desc>lat.=55.704395, lon.=26.086403, Alt.=166.037231m. Speed=0.072000m/h.</desc>
<speed>0.020000</speed>
</trkpt>
<trkpt lat="55.704395" lon="26.086403">
<ele>166.033325</ele>
<time>2010-07-17T19:21:52Z</time>
<desc>lat.=55.704395, lon.=26.086403, Alt.=166.033325m. Speed=0.072000m/h.</desc>
<speed>0.020000</speed>
</trkpt>
<trkpt lat="55.704395" lon="26.086403">
<ele>166.025513</ele>
<time>2010-07-17T19:21:53Z</time>
<desc>lat.=55.704395, lon.=26.086403, Alt.=166.025513m. Speed=0.108000m/h.</desc>
<speed>0.030000</speed>
</trkpt>
<trkpt lat="55.704395" lon="26.086403">
<ele>166.025513</ele>
<time>2010-07-17T19:21:54Z</time>
<desc>lat.=55.704395, lon.=26.086403, Alt.=166.025513m. Speed=0.036000m/h.</desc>
<speed>0.010000</speed>
</trkpt>
<trkpt lat="55.704395" lon="26.086403">
<ele>166.025513</ele>
<time>2010-07-17T19:21:55Z</time>
<desc>lat.=55.704395, lon.=26.086403, Alt.=166.025513m. Speed=0.036000m/h.</desc>
<speed>0.010000</speed>
</trkpt>
<trkpt lat="55.704395" lon="26.086403">
<ele>166.021606</ele>
<time>2010-07-17T19:21:56Z</time>
<desc>lat.=55.704395, lon.=26.086403, Alt.=166.021606m. Speed=0.000000m/h.</desc>
<speed>0.000000</speed>
</trkpt>
<trkpt lat="55.704395" lon="26.086405">
<ele>166.021606</ele>
<time>2010-07-17T19:21:57Z</time>
<desc>lat.=55.704395, lon.=26.086405, Alt.=166.021606m. Speed=0.072000m/h.</desc>
<speed>0.020000</speed>
</trkpt>
<trkpt lat="55.704395" lon="26.086405">
<ele>166.021606</ele>
<time>2010-07-17T19:21:58Z</time>
<desc>lat.=55.704395, lon.=26.086405, Alt.=166.021606m. Speed=0.072000m/h.</desc>
<speed>0.020000</speed>
</trkpt>
<trkpt lat="55.704395" lon="26.086405">
<ele>166.021606</ele>
<time>2010-07-17T19:21:59Z</time>
<desc>lat.=55.704395, lon.=26.086405, Alt.=166.021606m. Speed=0.144000m/h.</desc>
<speed>0.040000</speed>
</trkpt>
<trkpt lat="55.704395" lon="26.086405">
<ele>166.017700</ele>
<time>2010-07-17T19:22:00Z</time>
<desc>lat.=55.704395, lon.=26.086405, Alt.=166.017700m. Speed=0.144000m/h.</desc>
<speed>0.040000</speed>
</trkpt>
<trkpt lat="55.704395" lon="26.086405">
<ele>166.021606</ele>
<time>2010-07-17T19:22:01Z</time>
<desc>lat.=55.704395, lon.=26.086405, Alt.=166.021606m. Speed=0.108000m/h.</desc>
<speed>0.030000</speed>
</trkpt>
<trkpt lat="55.704395" lon="26.086405">
<ele>166.025513</ele>
<time>2010-07-17T19:22:02Z</time>
<desc>lat.=55.704395, lon.=26.086405, Alt.=166.025513m. Speed=0.036000m/h.</desc>
<speed>0.010000</speed>
</trkpt>
<trkpt lat="55.704395" lon="26.086405">
<ele>166.021606</ele>
<time>2010-07-17T19:22:03Z</time>
<desc>lat.=55.704395, lon.=26.086405, Alt.=166.021606m. Speed=0.108000m/h.</desc>
<speed>0.030000</speed>
</trkpt>
<trkpt lat="55.704395" lon="26.086405">
<ele>166.021606</ele>
<time>2010-07-17T19:22:04Z</time>
<desc>lat.=55.704395, lon.=26.086405, Alt.=166.021606m. Speed=0.036000m/h.</desc>
<speed>0.010000</speed>
</trkpt>
<trkpt lat="55.704395" lon="26.086405">
<ele>166.021606</ele>
<time>2010-07-17T19:22:05Z</time>
<desc>lat.=55.704395, lon.=26.086405, Alt.=166.021606m. Speed=0.036000m/h.</desc>
<speed>0.010000</speed>
</trkpt>
<trkpt lat="55.704395" lon="26.086405">
<ele>166.021606</ele>
<time>2010-07-17T19:22:06Z</time>
<desc>lat.=55.704395, lon.=26.086405, Alt.=166.021606m. Speed=0.072000m/h.</desc>
<speed>0.020000</speed>
</trkpt>
<trkpt lat="55.704395" lon="26.086405">
<ele>166.021606</ele>
<time>2010-07-17T19:22:07Z</time>
<desc>lat.=55.704395, lon.=26.086405, Alt.=166.021606m. Speed=0.000000m/h.</desc>
<speed>0.000000</speed>
</trkpt>
<trkpt lat="55.704395" lon="26.086405">
<ele>166.021606</ele>
<time>2010-07-17T19:22:08Z</time>
<desc>lat.=55.704395, lon.=26.086405, Alt.=166.021606m. Speed=0.072000m/h.</desc>
<speed>0.020000</speed>
</trkpt>
<trkpt lat="55.704395" lon="26.086405">
<ele>166.017700</ele>
<time>2010-07-17T19:22:09Z</time>
<desc>lat.=55.704395, lon.=26.086405, Alt.=166.017700m. Speed=0.072000m/h.</desc>
<speed>0.020000</speed>
</trkpt>
<trkpt lat="55.704395" lon="26.086405">
<ele>166.013794</ele>
<time>2010-07-17T19:22:10Z</time>
<desc>lat.=55.704395, lon.=26.086405, Alt.=166.013794m. Speed=0.036000m/h.</desc>
<speed>0.010000</speed>
</trkpt>
<trkpt lat="55.704395" lon="26.086405">
<ele>166.013794</ele>
<time>2010-07-17T19:22:11Z</time>
<desc>lat.=55.704395, lon.=26.086405, Alt.=166.013794m. Speed=0.000000m/h.</desc>
<speed>0.000000</speed>
</trkpt>
<trkpt lat="55.704395" lon="26.086405">
<ele>166.013794</ele>
<time>2010-07-17T19:22:12Z</time>
<desc>lat.=55.704395, lon.=26.086405, Alt.=166.013794m. Speed=0.036000m/h.</desc>
<speed>0.010000</speed>
</trkpt>
<trkpt lat="55.704395" lon="26.086405">
<ele>166.013794</ele>
<time>2010-07-17T19:22:13Z</time>
<desc>lat.=55.704395, lon.=26.086405, Alt.=166.013794m. Speed=0.036000m/h.</desc>
<speed>0.010000</speed>
</trkpt>
<trkpt lat="55.704395" lon="26.086405">
<ele>166.009888</ele>
<time>2010-07-17T19:22:14Z</time>
<desc>lat.=55.704395, lon.=26.086405, Alt.=166.009888m. Speed=0.180000m/h.</desc>
<speed>0.050000</speed>
</trkpt>
<trkpt lat="55.704395" lon="26.086405">
<ele>166.002075</ele>
<time>2010-07-17T19:22:15Z</time>
<desc>lat.=55.704395, lon.=26.086405, Alt.=166.002075m. Speed=0.180000m/h.</desc>
<speed>0.050000</speed>
</trkpt>
<trkpt lat="55.704391" lon="26.086405">
<ele>165.994263</ele>
<time>2010-07-17T19:22:16Z</time>
<desc>lat.=55.704391, lon.=26.086405, Alt.=165.994263m. Speed=0.216000m/h.</desc>
<speed>0.060000</speed>
</trkpt>
<trkpt lat="55.704391" lon="26.086405">
<ele>165.986450</ele>
<time>2010-07-17T19:22:17Z</time>
<desc>lat.=55.704391, lon.=26.086405, Alt.=165.986450m. Speed=0.216000m/h.</desc>
<speed>0.060000</speed>
</trkpt>
<trkpt lat="55.704391" lon="26.086405">
<ele>165.986450</ele>
<time>2010-07-17T19:22:18Z</time>
<desc>lat.=55.704391, lon.=26.086405, Alt.=165.986450m. Speed=0.144000m/h.</desc>
<speed>0.040000</speed>
</trkpt>
<trkpt lat="55.704391" lon="26.086405">
<ele>165.982544</ele>
<time>2010-07-17T19:22:19Z</time>
<desc>lat.=55.704391, lon.=26.086405, Alt.=165.982544m. Speed=0.108000m/h.</desc>
<speed>0.030000</speed>
</trkpt>
<trkpt lat="55.704391" lon="26.086405">
<ele>165.982544</ele>
<time>2010-07-17T19:22:20Z</time>
<desc>lat.=55.704391, lon.=26.086405, Alt.=165.982544m. Speed=0.108000m/h.</desc>
<speed>0.030000</speed>
</trkpt>
<trkpt lat="55.704391" lon="26.086405">
<ele>165.978638</ele>
<time>2010-07-17T19:22:21Z</time>
<desc>lat.=55.704391, lon.=26.086405, Alt.=165.978638m. Speed=0.144000m/h.</desc>
<speed>0.040000</speed>
</trkpt>
<trkpt lat="55.704391" lon="26.086405">
<ele>165.978638</ele>
<time>2010-07-17T19:22:22Z</time>
<desc>lat.=55.704391, lon.=26.086405, Alt.=165.978638m. Speed=0.036000m/h.</desc>
<speed>0.010000</speed>
</trkpt>
<trkpt lat="55.704391" lon="26.086405">
<ele>165.974731</ele>
<time>2010-07-17T19:22:23Z</time>
<desc>lat.=55.704391, lon.=26.086405, Alt.=165.974731m. Speed=0.108000m/h.</desc>
<speed>0.030000</speed>
</trkpt>
<trkpt lat="55.704391" lon="26.086405">
<ele>165.970825</ele>
<time>2010-07-17T19:22:24Z</time>
<desc>lat.=55.704391, lon.=26.086405, Alt.=165.970825m. Speed=0.144000m/h.</desc>
<speed>0.040000</speed>
</trkpt>
<trkpt lat="55.704391" lon="26.086405">
<ele>165.970825</ele>
<time>2010-07-17T19:22:25Z</time>
<desc>lat.=55.704391, lon.=26.086405, Alt.=165.970825m. Speed=0.072000m/h.</desc>
<speed>0.020000</speed>
</trkpt>
<trkpt lat="55.704391" lon="26.086405">
<ele>165.966919</ele>
<time>2010-07-17T19:22:26Z</time>
<desc>lat.=55.704391, lon.=26.086405, Alt.=165.966919m. Speed=0.036000m/h.</desc>
<speed>0.010000</speed>
</trkpt>
<trkpt lat="55.704391" lon="26.086405">
<ele>165.966919</ele>
<time>2010-07-17T19:22:27Z</time>
<desc>lat.=55.704391, lon.=26.086405, Alt.=165.966919m. Speed=0.036000m/h.</desc>
<speed>0.010000</speed>
</trkpt>
<trkpt lat="55.704391" lon="26.086405">
<ele>165.963013</ele>
<time>2010-07-17T19:22:28Z</time>
<desc>lat.=55.704391, lon.=26.086405, Alt.=165.963013m. Speed=0.036000m/h.</desc>
<speed>0.010000</speed>
</trkpt>
<trkpt lat="55.704391" lon="26.086405">
<ele>165.963013</ele>
<time>2010-07-17T19:22:29Z</time>
<desc>lat.=55.704391, lon.=26.086405, Alt.=165.963013m. Speed=0.000000m/h.</desc>
<speed>0.000000</speed>
</trkpt>
<trkpt lat="55.704391" lon="26.086405">
<ele>165.963013</ele>
<time>2010-07-17T19:22:30Z</time>
<desc>lat.=55.704391, lon.=26.086405, Alt.=165.963013m. Speed=0.036000m/h.</desc>
<speed>0.010000</speed>
</trkpt>
<trkpt lat="55.704391" lon="26.086405">
<ele>165.959106</ele>
<time>2010-07-17T19:22:31Z</time>
<desc>lat.=55.704391, lon.=26.086405, Alt.=165.959106m. Speed=0.000000m/h.</desc>
<speed>0.000000</speed>
</trkpt>
<trkpt lat="55.704391" lon="26.086405">
<ele>165.955200</ele>
<time>2010-07-17T19:22:32Z</time>
<desc>lat.=55.704391, lon.=26.086405, Alt.=165.955200m. Speed=0.036000m/h.</desc>
<speed>0.010000</speed>
</trkpt>
<trkpt lat="55.704391" lon="26.086407">
<ele>165.951294</ele>
<time>2010-07-17T19:22:33Z</time>
<desc>lat.=55.704391, lon.=26.086407, Alt.=165.951294m. Speed=0.108000m/h.</desc>
<speed>0.030000</speed>
</trkpt>
<trkpt lat="55.704391" lon="26.086407">
<ele>165.951294</ele>
<time>2010-07-17T19:22:34Z</time>
<desc>lat.=55.704391, lon.=26.086407, Alt.=165.951294m. Speed=0.252000m/h.</desc>
<speed>0.070000</speed>
</trkpt>
<trkpt lat="55.704391" lon="26.086407">
<ele>165.947388</ele>
<time>2010-07-17T19:22:35Z</time>
<desc>lat.=55.704391, lon.=26.086407, Alt.=165.947388m. Speed=0.324000m/h.</desc>
<speed>0.090000</speed>
</trkpt>
<trkpt lat="55.704391" lon="26.086409">
<ele>165.939575</ele>
<time>2010-07-17T19:22:36Z</time>
<desc>lat.=55.704391, lon.=26.086409, Alt.=165.939575m. Speed=0.288000m/h.</desc>
<speed>0.080000</speed>
</trkpt>
<trkpt lat="55.704391" lon="26.086411">
<ele>165.939575</ele>
<time>2010-07-17T19:22:37Z</time>
<desc>lat.=55.704391, lon.=26.086411, Alt.=165.939575m. Speed=0.432000m/h.</desc>
<speed>0.120000</speed>
</trkpt>
<trkpt lat="55.704388" lon="26.086412">
<ele>165.935669</ele>
<time>2010-07-17T19:22:38Z</time>
<desc>lat.=55.704388, lon.=26.086412, Alt.=165.935669m. Speed=0.396000m/h.</desc>
<speed>0.110000</speed>
</trkpt>
<trkpt lat="55.704388" lon="26.086414">
<ele>165.927856</ele>
<time>2010-07-17T19:22:39Z</time>
<desc>lat.=55.704388, lon.=26.086414, Alt.=165.927856m. Speed=0.432000m/h.</desc>
<speed>0.120000</speed>
</trkpt>
<trkpt lat="55.704388" lon="26.086414">
<ele>165.912231</ele>
<time>2010-07-17T19:22:40Z</time>
<desc>lat.=55.704388, lon.=26.086414, Alt.=165.912231m. Speed=0.360000m/h.</desc>
<speed>0.100000</speed>
</trkpt>
<trkpt lat="55.704388" lon="26.086416">
<ele>165.892700</ele>
<time>2010-07-17T19:22:41Z</time>
<desc>lat.=55.704388, lon.=26.086416, Alt.=165.892700m. Speed=0.360000m/h.</desc>
<speed>0.100000</speed>
</trkpt>
<trkpt lat="55.704388" lon="26.086418">
<ele>165.857544</ele>
<time>2010-07-17T19:22:42Z</time>
<desc>lat.=55.704388, lon.=26.086418, Alt.=165.857544m. Speed=0.180000m/h.</desc>
<speed>0.050000</speed>
</trkpt>
<trkpt lat="55.704388" lon="26.086418">
<ele>165.822388</ele>
<time>2010-07-17T19:22:43Z</time>
<desc>lat.=55.704388, lon.=26.086418, Alt.=165.822388m. Speed=0.216000m/h.</desc>
<speed>0.060000</speed>
</trkpt>
<trkpt lat="55.704388" lon="26.086420">
<ele>165.775513</ele>
<time>2010-07-17T19:22:44Z</time>
<desc>lat.=55.704388, lon.=26.086420, Alt.=165.775513m. Speed=0.180000m/h.</desc>
<speed>0.050000</speed>
</trkpt>
<trkpt lat="55.704388" lon="26.086420">
<ele>165.724731</ele>
<time>2010-07-17T19:22:45Z</time>
<desc>lat.=55.704388, lon.=26.086420, Alt.=165.724731m. Speed=0.144000m/h.</desc>
<speed>0.040000</speed>
</trkpt>
<trkpt lat="55.704388" lon="26.086420">
<ele>165.673950</ele>
<time>2010-07-17T19:22:46Z</time>
<desc>lat.=55.704388, lon.=26.086420, Alt.=165.673950m. Speed=0.036000m/h.</desc>
<speed>0.010000</speed>
</trkpt>
<trkpt lat="55.704388" lon="26.086422">
<ele>165.615356</ele>
<time>2010-07-17T19:22:47Z</time>
<desc>lat.=55.704388, lon.=26.086422, Alt.=165.615356m. Speed=0.000000m/h.</desc>
<speed>0.000000</speed>
</trkpt>
<trkpt lat="55.704388" lon="26.086422">
<ele>165.556763</ele>
<time>2010-07-17T19:22:48Z</time>
<desc>lat.=55.704388, lon.=26.086422, Alt.=165.556763m. Speed=0.072000m/h.</desc>
<speed>0.020000</speed>
</trkpt>
<trkpt lat="55.704388" lon="26.086422">
<ele>165.498169</ele>
<time>2010-07-17T19:22:49Z</time>
<desc>lat.=55.704388, lon.=26.086422, Alt.=165.498169m. Speed=0.036000m/h.</desc>
<speed>0.010000</speed>
</trkpt>
<trkpt lat="55.704388" lon="26.086422">
<ele>165.435669</ele>
<time>2010-07-17T19:22:50Z</time>
<desc>lat.=55.704388, lon.=26.086422, Alt.=165.435669m. Speed=0.072000m/h.</desc>
<speed>0.020000</speed>
</trkpt>
<trkpt lat="55.704388" lon="26.086422">
<ele>165.373169</ele>
<time>2010-07-17T19:22:51Z</time>
<desc>lat.=55.704388, lon.=26.086422, Alt.=165.373169m. Speed=0.072000m/h.</desc>
<speed>0.020000</speed>
</trkpt>
<trkpt lat="55.704388" lon="26.086422">
<ele>165.298950</ele>
<time>2010-07-17T19:22:52Z</time>
<desc>lat.=55.704388, lon.=26.086422, Alt.=165.298950m. Speed=0.144000m/h.</desc>
<speed>0.040000</speed>
</trkpt>
<trkpt lat="55.704388" lon="26.086422">
<ele>165.228638</ele>
<time>2010-07-17T19:22:53Z</time>
<desc>lat.=55.704388, lon.=26.086422, Alt.=165.228638m. Speed=0.144000m/h.</desc>
<speed>0.040000</speed>
</trkpt>
<trkpt lat="55.704388" lon="26.086422">
<ele>165.158325</ele>
<time>2010-07-17T19:22:54Z</time>
<desc>lat.=55.704388, lon.=26.086422, Alt.=165.158325m. Speed=0.108000m/h.</desc>
<speed>0.030000</speed>
</trkpt>
<trkpt lat="55.704388" lon="26.086422">
<ele>165.154419</ele>
<time>2010-07-17T19:22:55Z</time>
<desc>lat.=55.704388, lon.=26.086422, Alt.=165.154419m. Speed=0.072000m/h.</desc>
<speed>0.020000</speed>
</trkpt>
<trkpt lat="55.704388" lon="26.086422">
<ele>165.150513</ele>
<time>2010-07-17T19:22:56Z</time>
<desc>lat.=55.704388, lon.=26.086422, Alt.=165.150513m. Speed=0.000000m/h.</desc>
<speed>0.000000</speed>
</trkpt>
<trkpt lat="55.704388" lon="26.086422">
<ele>165.154419</ele>
<time>2010-07-17T19:22:57Z</time>
<desc>lat.=55.704388, lon.=26.086422, Alt.=165.154419m. Speed=0.000000m/h.</desc>
<speed>0.000000</speed>
</trkpt>
<trkpt lat="55.704388" lon="26.086422">
<ele>165.150513</ele>
<time>2010-07-17T19:22:58Z</time>
<desc>lat.=55.704388, lon.=26.086422, Alt.=165.150513m. Speed=0.072000m/h.</desc>
<speed>0.020000</speed>
</trkpt>
<trkpt lat="55.704388" lon="26.086422">
<ele>165.150513</ele>
<time>2010-07-17T19:22:59Z</time>
<desc>lat.=55.704388, lon.=26.086422, Alt.=165.150513m. Speed=0.072000m/h.</desc>
<speed>0.020000</speed>
</trkpt>
<trkpt lat="55.704388" lon="26.086422">
<ele>165.154419</ele>
<time>2010-07-17T19:23:00Z</time>
<desc>lat.=55.704388, lon.=26.086422, Alt.=165.154419m. Speed=0.108000m/h.</desc>
<speed>0.030000</speed>
</trkpt>
<trkpt lat="55.704388" lon="26.086422">
<ele>165.154419</ele>
<time>2010-07-17T19:23:01Z</time>
<desc>lat.=55.704388, lon.=26.086422, Alt.=165.154419m. Speed=0.144000m/h.</desc>
<speed>0.040000</speed>
</trkpt>
<trkpt lat="55.704388" lon="26.086420">
<ele>165.158325</ele>
<time>2010-07-17T19:23:02Z</time>
<desc>lat.=55.704388, lon.=26.086420, Alt.=165.158325m. Speed=0.072000m/h.</desc>
<speed>0.020000</speed>
</trkpt>
<trkpt lat="55.704388" lon="26.086420">
<ele>165.162231</ele>
<time>2010-07-17T19:23:03Z</time>
<desc>lat.=55.704388, lon.=26.086420, Alt.=165.162231m. Speed=0.432000m/h.</desc>
<speed>0.120000</speed>
</trkpt>
<trkpt lat="55.704388" lon="26.086420">
<ele>165.162231</ele>
<time>2010-07-17T19:23:04Z</time>
<desc>lat.=55.704388, lon.=26.086420, Alt.=165.162231m. Speed=0.072000m/h.</desc>
<speed>0.020000</speed>
</trkpt>
<trkpt lat="55.704388" lon="26.086420">
<ele>165.142700</ele>
<time>2010-07-17T19:23:05Z</time>
<desc>lat.=55.704388, lon.=26.086420, Alt.=165.142700m. Speed=0.180000m/h.</desc>
<speed>0.050000</speed>
</trkpt>
<trkpt lat="55.704388" lon="26.086420">
<ele>165.119263</ele>
<time>2010-07-17T19:23:06Z</time>
<desc>lat.=55.704388, lon.=26.086420, Alt.=165.119263m. Speed=1.008000m/h.</desc>
<speed>0.280000</speed>
</trkpt>
<trkpt lat="55.704388" lon="26.086416">
<ele>165.103638</ele>
<time>2010-07-17T19:23:07Z</time>
<desc>lat.=55.704388, lon.=26.086416, Alt.=165.103638m. Speed=0.540000m/h.</desc>
<speed>0.150000</speed>
</trkpt>
<trkpt lat="55.704391" lon="26.086414">
<ele>165.084106</ele>
<time>2010-07-17T19:23:08Z</time>
<desc>lat.=55.704391, lon.=26.086414, Alt.=165.084106m. Speed=0.108000m/h.</desc>
<speed>0.030000</speed>
</trkpt>
<trkpt lat="55.704388" lon="26.086414">
<ele>165.064575</ele>
<time>2010-07-17T19:23:09Z</time>
<desc>lat.=55.704388, lon.=26.086414, Alt.=165.064575m. Speed=0.180000m/h.</desc>
<speed>0.050000</speed>
</trkpt>
<trkpt lat="55.704388" lon="26.086412">
<ele>165.045044</ele>
<time>2010-07-17T19:23:10Z</time>
<desc>lat.=55.704388, lon.=26.086412, Alt.=165.045044m. Speed=0.180000m/h.</desc>
<speed>0.050000</speed>
</trkpt>
<trkpt lat="55.704388" lon="26.086412">
<ele>165.021606</ele>
<time>2010-07-17T19:23:11Z</time>
<desc>lat.=55.704388, lon.=26.086412, Alt.=165.021606m. Speed=0.072000m/h.</desc>
<speed>0.020000</speed>
</trkpt>
<trkpt lat="55.704388" lon="26.086412">
<ele>164.998169</ele>
<time>2010-07-17T19:23:12Z</time>
<desc>lat.=55.704388, lon.=26.086412, Alt.=164.998169m. Speed=0.036000m/h.</desc>
<speed>0.010000</speed>
</trkpt>
<trkpt lat="55.704388" lon="26.086412">
<ele>164.974731</ele>
<time>2010-07-17T19:23:13Z</time>
<desc>lat.=55.704388, lon.=26.086412, Alt.=164.974731m. Speed=0.108000m/h.</desc>
<speed>0.030000</speed>
</trkpt>
<trkpt lat="55.704388" lon="26.086412">
<ele>164.947388</ele>
<time>2010-07-17T19:23:14Z</time>
<desc>lat.=55.704388, lon.=26.086412, Alt.=164.947388m. Speed=0.072000m/h.</desc>
<speed>0.020000</speed>
</trkpt>
<trkpt lat="55.704388" lon="26.086412">
<ele>164.943481</ele>
<time>2010-07-17T19:23:15Z</time>
<desc>lat.=55.704388, lon.=26.086412, Alt.=164.943481m. Speed=0.000000m/h.</desc>
<speed>0.000000</speed>
</trkpt>
<trkpt lat="55.704388" lon="26.086411">
<ele>164.939575</ele>
<time>2010-07-17T19:23:16Z</time>
<desc>lat.=55.704388, lon.=26.086411, Alt.=164.939575m. Speed=0.036000m/h.</desc>
<speed>0.010000</speed>
</trkpt>
<trkpt lat="55.704388" lon="26.086411">
<ele>164.931763</ele>
<time>2010-07-17T19:23:17Z</time>
<desc>lat.=55.704388, lon.=26.086411, Alt.=164.931763m. Speed=0.036000m/h.</desc>
<speed>0.010000</speed>
</trkpt>
<trkpt lat="55.704388" lon="26.086411">
<ele>164.923950</ele>
<time>2010-07-17T19:23:18Z</time>
<desc>lat.=55.704388, lon.=26.086411, Alt.=164.923950m. Speed=0.000000m/h.</desc>
<speed>0.000000</speed>
</trkpt>
<trkpt lat="55.704388" lon="26.086411">
<ele>164.912231</ele>
<time>2010-07-17T19:23:19Z</time>
<desc>lat.=55.704388, lon.=26.086411, Alt.=164.912231m. Speed=0.036000m/h.</desc>
<speed>0.010000</speed>
</trkpt>
<trkpt lat="55.704388" lon="26.086411">
<ele>164.896606</ele>
<time>2010-07-17T19:23:20Z</time>
<desc>lat.=55.704388, lon.=26.086411, Alt.=164.896606m. Speed=0.072000m/h.</desc>
<speed>0.020000</speed>
</trkpt>
<trkpt lat="55.704388" lon="26.086411">
<ele>164.880981</ele>
<time>2010-07-17T19:23:21Z</time>
<desc>lat.=55.704388, lon.=26.086411, Alt.=164.880981m. Speed=0.072000m/h.</desc>
<speed>0.020000</speed>
</trkpt>
<trkpt lat="55.704388" lon="26.086411">
<ele>164.865356</ele>
<time>2010-07-17T19:23:22Z</time>
<desc>lat.=55.704388, lon.=26.086411, Alt.=164.865356m. Speed=0.072000m/h.</desc>
<speed>0.020000</speed>
</trkpt>
<trkpt lat="55.704388" lon="26.086411">
<ele>164.849731</ele>
<time>2010-07-17T19:23:23Z</time>
<desc>lat.=55.704388, lon.=26.086411, Alt.=164.849731m. Speed=0.072000m/h.</desc>
<speed>0.020000</speed>
</trkpt>
<trkpt lat="55.704388" lon="26.086409">
<ele>164.834106</ele>
<time>2010-07-17T19:23:24Z</time>
<desc>lat.=55.704388, lon.=26.086409, Alt.=164.834106m. Speed=0.180000m/h.</desc>
<speed>0.050000</speed>
</trkpt>
<trkpt lat="55.704388" lon="26.086409">
<ele>164.814575</ele>
<time>2010-07-17T19:23:25Z</time>
<desc>lat.=55.704388, lon.=26.086409, Alt.=164.814575m. Speed=0.216000m/h.</desc>
<speed>0.060000</speed>
</trkpt>
<trkpt lat="55.704388" lon="26.086407">
<ele>164.795044</ele>
<time>2010-07-17T19:23:26Z</time>
<desc>lat.=55.704388, lon.=26.086407, Alt.=164.795044m. Speed=0.288000m/h.</desc>
<speed>0.080000</speed>
</trkpt>
<trkpt lat="55.704391" lon="26.086405">
<ele>164.775513</ele>
<time>2010-07-17T19:23:27Z</time>
<desc>lat.=55.704391, lon.=26.086405, Alt.=164.775513m. Speed=0.324000m/h.</desc>
<speed>0.090000</speed>
</trkpt>
<trkpt lat="55.704391" lon="26.086405">
<ele>164.755981</ele>
<time>2010-07-17T19:23:28Z</time>
<desc>lat.=55.704391, lon.=26.086405, Alt.=164.755981m. Speed=0.324000m/h.</desc>
<speed>0.090000</speed>
</trkpt>
<trkpt lat="55.704391" lon="26.086403">
<ele>164.732544</ele>
<time>2010-07-17T19:23:29Z</time>
<desc>lat.=55.704391, lon.=26.086403, Alt.=164.732544m. Speed=0.360000m/h.</desc>
<speed>0.100000</speed>
</trkpt>
<trkpt lat="55.704391" lon="26.086401">
<ele>164.713013</ele>
<time>2010-07-17T19:23:30Z</time>
<desc>lat.=55.704391, lon.=26.086401, Alt.=164.713013m. Speed=0.360000m/h.</desc>
<speed>0.100000</speed>
</trkpt>
<trkpt lat="55.704391" lon="26.086399">
<ele>164.689575</ele>
<time>2010-07-17T19:23:31Z</time>
<desc>lat.=55.704391, lon.=26.086399, Alt.=164.689575m. Speed=0.360000m/h.</desc>
<speed>0.100000</speed>
</trkpt>
<trkpt lat="55.704391" lon="26.086397">
<ele>164.662231</ele>
<time>2010-07-17T19:23:32Z</time>
<desc>lat.=55.704391, lon.=26.086397, Alt.=164.662231m. Speed=0.432000m/h.</desc>
<speed>0.120000</speed>
</trkpt>
<trkpt lat="55.704391" lon="26.086395">
<ele>164.634888</ele>
<time>2010-07-17T19:23:33Z</time>
<desc>lat.=55.704391, lon.=26.086395, Alt.=164.634888m. Speed=0.504000m/h.</desc>
<speed>0.140000</speed>
</trkpt>
<trkpt lat="55.704391" lon="26.086393">
<ele>164.603638</ele>
<time>2010-07-17T19:23:34Z</time>
<desc>lat.=55.704391, lon.=26.086393, Alt.=164.603638m. Speed=0.504000m/h.</desc>
<speed>0.140000</speed>
</trkpt>
<trkpt lat="55.704391" lon="26.086391">
<ele>164.572388</ele>
<time>2010-07-17T19:23:35Z</time>
<desc>lat.=55.704391, lon.=26.086391, Alt.=164.572388m. Speed=0.468000m/h.</desc>
<speed>0.130000</speed>
</trkpt>
<trkpt lat="55.704391" lon="26.086390">
<ele>164.537231</ele>
<time>2010-07-17T19:23:36Z</time>
<desc>lat.=55.704391, lon.=26.086390, Alt.=164.537231m. Speed=0.396000m/h.</desc>
<speed>0.110000</speed>
</trkpt>
<trkpt lat="55.704391" lon="26.086388">
<ele>164.498169</ele>
<time>2010-07-17T19:23:37Z</time>
<desc>lat.=55.704391, lon.=26.086388, Alt.=164.498169m. Speed=0.432000m/h.</desc>
<speed>0.120000</speed>
</trkpt>
<trkpt lat="55.704391" lon="26.086386">
<ele>164.459106</ele>
<time>2010-07-17T19:23:38Z</time>
<desc>lat.=55.704391, lon.=26.086386, Alt.=164.459106m. Speed=0.396000m/h.</desc>
<speed>0.110000</speed>
</trkpt>
<trkpt lat="55.704395" lon="26.086384">
<ele>164.420044</ele>
<time>2010-07-17T19:23:39Z</time>
<desc>lat.=55.704395, lon.=26.086384, Alt.=164.420044m. Speed=0.396000m/h.</desc>
<speed>0.110000</speed>
</trkpt>
<trkpt lat="55.704395" lon="26.086382">
<ele>164.377075</ele>
<time>2010-07-17T19:23:40Z</time>
<desc>lat.=55.704395, lon.=26.086382, Alt.=164.377075m. Speed=0.432000m/h.</desc>
<speed>0.120000</speed>
</trkpt>
<trkpt lat="55.704395" lon="26.086380">
<ele>164.330200</ele>
<time>2010-07-17T19:23:41Z</time>
<desc>lat.=55.704395, lon.=26.086380, Alt.=164.330200m. Speed=0.360000m/h.</desc>
<speed>0.100000</speed>
</trkpt>
<trkpt lat="55.704395" lon="26.086380">
<ele>164.283325</ele>
<time>2010-07-17T19:23:42Z</time>
<desc>lat.=55.704395, lon.=26.086380, Alt.=164.283325m. Speed=0.360000m/h.</desc>
<speed>0.100000</speed>
</trkpt>
<trkpt lat="55.704395" lon="26.086378">
<ele>164.236450</ele>
<time>2010-07-17T19:23:43Z</time>
<desc>lat.=55.704395, lon.=26.086378, Alt.=164.236450m. Speed=0.396000m/h.</desc>
<speed>0.110000</speed>
</trkpt>
<trkpt lat="55.704395" lon="26.086376">
<ele>164.185669</ele>
<time>2010-07-17T19:23:44Z</time>
<desc>lat.=55.704395, lon.=26.086376, Alt.=164.185669m. Speed=0.432000m/h.</desc>
<speed>0.120000</speed>
</trkpt>
<trkpt lat="55.704395" lon="26.086374">
<ele>164.130981</ele>
<time>2010-07-17T19:23:45Z</time>
<desc>lat.=55.704395, lon.=26.086374, Alt.=164.130981m. Speed=0.396000m/h.</desc>
<speed>0.110000</speed>
</trkpt>
<trkpt lat="55.704395" lon="26.086372">
<ele>164.072388</ele>
<time>2010-07-17T19:23:46Z</time>
<desc>lat.=55.704395, lon.=26.086372, Alt.=164.072388m. Speed=0.468000m/h.</desc>
<speed>0.130000</speed>
</trkpt>
<trkpt lat="55.704395" lon="26.086370">
<ele>164.005981</ele>
<time>2010-07-17T19:23:47Z</time>
<desc>lat.=55.704395, lon.=26.086370, Alt.=164.005981m. Speed=0.540000m/h.</desc>
<speed>0.150000</speed>
</trkpt>
<trkpt lat="55.704395" lon="26.086367">
<ele>163.943481</ele>
<time>2010-07-17T19:23:48Z</time>
<desc>lat.=55.704395, lon.=26.086367, Alt.=163.943481m. Speed=0.540000m/h.</desc>
<speed>0.150000</speed>
</trkpt>
<trkpt lat="55.704395" lon="26.086365">
<ele>163.877075</ele>
<time>2010-07-17T19:23:49Z</time>
<desc>lat.=55.704395, lon.=26.086365, Alt.=163.877075m. Speed=0.612000m/h.</desc>
<speed>0.170000</speed>
</trkpt>
<trkpt lat="55.704395" lon="26.086363">
<ele>163.802856</ele>
<time>2010-07-17T19:23:50Z</time>
<desc>lat.=55.704395, lon.=26.086363, Alt.=163.802856m. Speed=0.576000m/h.</desc>
<speed>0.160000</speed>
</trkpt>
<trkpt lat="55.704395" lon="26.086359">
<ele>163.724731</ele>
<time>2010-07-17T19:23:51Z</time>
<desc>lat.=55.704395, lon.=26.086359, Alt.=163.724731m. Speed=0.612000m/h.</desc>
<speed>0.170000</speed>
</trkpt>
<trkpt lat="55.704395" lon="26.086357">
<ele>163.646606</ele>
<time>2010-07-17T19:23:52Z</time>
<desc>lat.=55.704395, lon.=26.086357, Alt.=163.646606m. Speed=0.540000m/h.</desc>
<speed>0.150000</speed>
</trkpt>
<trkpt lat="55.704395" lon="26.086353">
<ele>163.564575</ele>
<time>2010-07-17T19:23:53Z</time>
<desc>lat.=55.704395, lon.=26.086353, Alt.=163.564575m. Speed=0.540000m/h.</desc>
<speed>0.150000</speed>
</trkpt>
<trkpt lat="55.704395" lon="26.086351">
<ele>163.474731</ele>
<time>2010-07-17T19:23:54Z</time>
<desc>lat.=55.704395, lon.=26.086351, Alt.=163.474731m. Speed=0.540000m/h.</desc>
<speed>0.150000</speed>
</trkpt>
<trkpt lat="55.704395" lon="26.086349">
<ele>163.380981</ele>
<time>2010-07-17T19:23:55Z</time>
<desc>lat.=55.704395, lon.=26.086349, Alt.=163.380981m. Speed=0.468000m/h.</desc>
<speed>0.130000</speed>
</trkpt>
<trkpt lat="55.704395" lon="26.086346">
<ele>163.283325</ele>
<time>2010-07-17T19:23:56Z</time>
<desc>lat.=55.704395, lon.=26.086346, Alt.=163.283325m. Speed=0.396000m/h.</desc>
<speed>0.110000</speed>
</trkpt>
<trkpt lat="55.704395" lon="26.086346">
<ele>163.185669</ele>
<time>2010-07-17T19:23:57Z</time>
<desc>lat.=55.704395, lon.=26.086346, Alt.=163.185669m. Speed=0.072000m/h.</desc>
<speed>0.020000</speed>
</trkpt>
<trkpt lat="55.704395" lon="26.086346">
<ele>163.088013</ele>
<time>2010-07-17T19:23:58Z</time>
<desc>lat.=55.704395, lon.=26.086346, Alt.=163.088013m. Speed=0.072000m/h.</desc>
<speed>0.020000</speed>
</trkpt>
<trkpt lat="55.704395" lon="26.086346">
<ele>162.994263</ele>
<time>2010-07-17T19:23:59Z</time>
<desc>lat.=55.704395, lon.=26.086346, Alt.=162.994263m. Speed=0.036000m/h.</desc>
<speed>0.010000</speed>
</trkpt>
<trkpt lat="55.704395" lon="26.086346">
<ele>162.896606</ele>
<time>2010-07-17T19:24:00Z</time>
<desc>lat.=55.704395, lon.=26.086346, Alt.=162.896606m. Speed=0.144000m/h.</desc>
<speed>0.040000</speed>
</trkpt>
<trkpt lat="55.704395" lon="26.086346">
<ele>162.791138</ele>
<time>2010-07-17T19:24:01Z</time>
<desc>lat.=55.704395, lon.=26.086346, Alt.=162.791138m. Speed=0.144000m/h.</desc>
<speed>0.040000</speed>
</trkpt>
<trkpt lat="55.704395" lon="26.086346">
<ele>162.685669</ele>
<time>2010-07-17T19:24:02Z</time>
<desc>lat.=55.704395, lon.=26.086346, Alt.=162.685669m. Speed=0.108000m/h.</desc>
<speed>0.030000</speed>
</trkpt>
<trkpt lat="55.704395" lon="26.086346">
<ele>162.572388</ele>
<time>2010-07-17T19:24:03Z</time>
<desc>lat.=55.704395, lon.=26.086346, Alt.=162.572388m. Speed=0.144000m/h.</desc>
<speed>0.040000</speed>
</trkpt>
<trkpt lat="55.704391" lon="26.086348">
<ele>162.447388</ele>
<time>2010-07-17T19:24:04Z</time>
<desc>lat.=55.704391, lon.=26.086348, Alt.=162.447388m. Speed=0.108000m/h.</desc>
<speed>0.030000</speed>
</trkpt>
<trkpt lat="55.704391" lon="26.086348">
<ele>162.310669</ele>
<time>2010-07-17T19:24:05Z</time>
<desc>lat.=55.704391, lon.=26.086348, Alt.=162.310669m. Speed=0.108000m/h.</desc>
<speed>0.030000</speed>
</trkpt>
<trkpt lat="55.704391" lon="26.086348">
<ele>162.170044</ele>
<time>2010-07-17T19:24:06Z</time>
<desc>lat.=55.704391, lon.=26.086348, Alt.=162.170044m. Speed=0.072000m/h.</desc>
<speed>0.020000</speed>
</trkpt>
<trkpt lat="55.704391" lon="26.086348">
<ele>162.009888</ele>
<time>2010-07-17T19:24:07Z</time>
<desc>lat.=55.704391, lon.=26.086348, Alt.=162.009888m. Speed=0.144000m/h.</desc>
<speed>0.040000</speed>
</trkpt>
<trkpt lat="55.704391" lon="26.086348">
<ele>161.838013</ele>
<time>2010-07-17T19:24:08Z</time>
<desc>lat.=55.704391, lon.=26.086348, Alt.=161.838013m. Speed=0.180000m/h.</desc>
<speed>0.050000</speed>
</trkpt>
<trkpt lat="55.704391" lon="26.086349">
<ele>161.662231</ele>
<time>2010-07-17T19:24:09Z</time>
<desc>lat.=55.704391, lon.=26.086349, Alt.=161.662231m. Speed=0.252000m/h.</desc>
<speed>0.070000</speed>
</trkpt>
<trkpt lat="55.704391" lon="26.086349">
<ele>161.470825</ele>
<time>2010-07-17T19:24:10Z</time>
<desc>lat.=55.704391, lon.=26.086349, Alt.=161.470825m. Speed=0.252000m/h.</desc>
<speed>0.070000</speed>
</trkpt>
<trkpt lat="55.704391" lon="26.086351">
<ele>161.267700</ele>
<time>2010-07-17T19:24:11Z</time>
<desc>lat.=55.704391, lon.=26.086351, Alt.=161.267700m. Speed=0.324000m/h.</desc>
<speed>0.090000</speed>
</trkpt>
<trkpt lat="55.704391" lon="26.086353">
<ele>161.060669</ele>
<time>2010-07-17T19:24:12Z</time>
<desc>lat.=55.704391, lon.=26.086353, Alt.=161.060669m. Speed=0.324000m/h.</desc>
<speed>0.090000</speed>
</trkpt>
<trkpt lat="55.704391" lon="26.086355">
<ele>160.841919</ele>
<time>2010-07-17T19:24:13Z</time>
<desc>lat.=55.704391, lon.=26.086355, Alt.=160.841919m. Speed=0.360000m/h.</desc>
<speed>0.100000</speed>
</trkpt>
<trkpt lat="55.704391" lon="26.086355">
<ele>160.615356</ele>
<time>2010-07-17T19:24:14Z</time>
<desc>lat.=55.704391, lon.=26.086355, Alt.=160.615356m. Speed=0.360000m/h.</desc>
<speed>0.100000</speed>
</trkpt>
<trkpt lat="55.704391" lon="26.086357">
<ele>160.380981</ele>
<time>2010-07-17T19:24:15Z</time>
<desc>lat.=55.704391, lon.=26.086357, Alt.=160.380981m. Speed=0.360000m/h.</desc>
<speed>0.100000</speed>
</trkpt>
<trkpt lat="55.704391" lon="26.086359">
<ele>160.138794</ele>
<time>2010-07-17T19:24:16Z</time>
<desc>lat.=55.704391, lon.=26.086359, Alt.=160.138794m. Speed=0.396000m/h.</desc>
<speed>0.110000</speed>
</trkpt>
<trkpt lat="55.704391" lon="26.086361">
<ele>159.896606</ele>
<time>2010-07-17T19:24:17Z</time>
<desc>lat.=55.704391, lon.=26.086361, Alt.=159.896606m. Speed=0.396000m/h.</desc>
<speed>0.110000</speed>
</trkpt>
<trkpt lat="55.704391" lon="26.086363">
<ele>159.638794</ele>
<time>2010-07-17T19:24:18Z</time>
<desc>lat.=55.704391, lon.=26.086363, Alt.=159.638794m. Speed=0.432000m/h.</desc>
<speed>0.120000</speed>
</trkpt>
<trkpt lat="55.704388" lon="26.086365">
<ele>159.369263</ele>
<time>2010-07-17T19:24:19Z</time>
<desc>lat.=55.704388, lon.=26.086365, Alt.=159.369263m. Speed=0.360000m/h.</desc>
<speed>0.100000</speed>
</trkpt>
<trkpt lat="55.704388" lon="26.086367">
<ele>159.091919</ele>
<time>2010-07-17T19:24:20Z</time>
<desc>lat.=55.704388, lon.=26.086367, Alt.=159.091919m. Speed=0.432000m/h.</desc>
<speed>0.120000</speed>
</trkpt>
<trkpt lat="55.704388" lon="26.086369">
<ele>158.802856</ele>
<time>2010-07-17T19:24:21Z</time>
<desc>lat.=55.704388, lon.=26.086369, Alt.=158.802856m. Speed=0.396000m/h.</desc>
<speed>0.110000</speed>
</trkpt>
<trkpt lat="55.704388" lon="26.086370">
<ele>158.513794</ele>
<time>2010-07-17T19:24:22Z</time>
<desc>lat.=55.704388, lon.=26.086370, Alt.=158.513794m. Speed=0.396000m/h.</desc>
<speed>0.110000</speed>
</trkpt>
<trkpt lat="55.704388" lon="26.086372">
<ele>158.213013</ele>
<time>2010-07-17T19:24:23Z</time>
<desc>lat.=55.704388, lon.=26.086372, Alt.=158.213013m. Speed=0.396000m/h.</desc>
<speed>0.110000</speed>
</trkpt>
<trkpt lat="55.704388" lon="26.086374">
<ele>157.908325</ele>
<time>2010-07-17T19:24:24Z</time>
<desc>lat.=55.704388, lon.=26.086374, Alt.=157.908325m. Speed=0.324000m/h.</desc>
<speed>0.090000</speed>
</trkpt>
<trkpt lat="55.704388" lon="26.086376">
<ele>157.603638</ele>
<time>2010-07-17T19:24:25Z</time>
<desc>lat.=55.704388, lon.=26.086376, Alt.=157.603638m. Speed=0.324000m/h.</desc>
<speed>0.090000</speed>
</trkpt>
<trkpt lat="55.704388" lon="26.086378">
<ele>157.283325</ele>
<time>2010-07-17T19:24:26Z</time>
<desc>lat.=55.704388, lon.=26.086378, Alt.=157.283325m. Speed=0.288000m/h.</desc>
<speed>0.080000</speed>
</trkpt>
<trkpt lat="55.704388" lon="26.086378">
<ele>156.963013</ele>
<time>2010-07-17T19:24:27Z</time>
<desc>lat.=55.704388, lon.=26.086378, Alt.=156.963013m. Speed=0.396000m/h.</desc>
<speed>0.110000</speed>
</trkpt>
<trkpt lat="55.704388" lon="26.086378">
<ele>156.630981</ele>
<time>2010-07-17T19:24:28Z</time>
<desc>lat.=55.704388, lon.=26.086378, Alt.=156.630981m. Speed=0.396000m/h.</desc>
<speed>0.110000</speed>
</trkpt>
<trkpt lat="55.704384" lon="26.086376">
<ele>156.291138</ele>
<time>2010-07-17T19:24:29Z</time>
<desc>lat.=55.704384, lon.=26.086376, Alt.=156.291138m. Speed=0.504000m/h.</desc>
<speed>0.140000</speed>
</trkpt>
<trkpt lat="55.704384" lon="26.086376">
<ele>155.943481</ele>
<time>2010-07-17T19:24:30Z</time>
<desc>lat.=55.704384, lon.=26.086376, Alt.=155.943481m. Speed=0.540000m/h.</desc>
<speed>0.150000</speed>
</trkpt>
<trkpt lat="55.704384" lon="26.086374">
<ele>155.591919</ele>
<time>2010-07-17T19:24:31Z</time>
<desc>lat.=55.704384, lon.=26.086374, Alt.=155.591919m. Speed=0.468000m/h.</desc>
<speed>0.130000</speed>
</trkpt>
<trkpt lat="55.704384" lon="26.086372">
<ele>155.236450</ele>
<time>2010-07-17T19:24:32Z</time>
<desc>lat.=55.704384, lon.=26.086372, Alt.=155.236450m. Speed=0.540000m/h.</desc>
<speed>0.150000</speed>
</trkpt>
<trkpt lat="55.704380" lon="26.086370">
<ele>154.877075</ele>
<time>2010-07-17T19:24:33Z</time>
<desc>lat.=55.704380, lon.=26.086370, Alt.=154.877075m. Speed=0.540000m/h.</desc>
<speed>0.150000</speed>
</trkpt>
<trkpt lat="55.704380" lon="26.086369">
<ele>154.505981</ele>
<time>2010-07-17T19:24:34Z</time>
<desc>lat.=55.704380, lon.=26.086369, Alt.=154.505981m. Speed=0.504000m/h.</desc>
<speed>0.140000</speed>
</trkpt>
<trkpt lat="55.704380" lon="26.086367">
<ele>154.127075</ele>
<time>2010-07-17T19:24:35Z</time>
<desc>lat.=55.704380, lon.=26.086367, Alt.=154.127075m. Speed=0.504000m/h.</desc>
<speed>0.140000</speed>
</trkpt>
<trkpt lat="55.704380" lon="26.086365">
<ele>153.752075</ele>
<time>2010-07-17T19:24:36Z</time>
<desc>lat.=55.704380, lon.=26.086365, Alt.=153.752075m. Speed=0.540000m/h.</desc>
<speed>0.150000</speed>
</trkpt>
<trkpt lat="55.704376" lon="26.086363">
<ele>153.365356</ele>
<time>2010-07-17T19:24:37Z</time>
<desc>lat.=55.704376, lon.=26.086363, Alt.=153.365356m. Speed=0.504000m/h.</desc>
<speed>0.140000</speed>
</trkpt>
<trkpt lat="55.704376" lon="26.086361">
<ele>152.974731</ele>
<time>2010-07-17T19:24:38Z</time>
<desc>lat.=55.704376, lon.=26.086361, Alt.=152.974731m. Speed=0.540000m/h.</desc>
<speed>0.150000</speed>
</trkpt>
<trkpt lat="55.704376" lon="26.086359">
<ele>152.580200</ele>
<time>2010-07-17T19:24:39Z</time>
<desc>lat.=55.704376, lon.=26.086359, Alt.=152.580200m. Speed=0.576000m/h.</desc>
<speed>0.160000</speed>
</trkpt>
<trkpt lat="55.704376" lon="26.086357">
<ele>152.181763</ele>
<time>2010-07-17T19:24:40Z</time>
<desc>lat.=55.704376, lon.=26.086357, Alt.=152.181763m. Speed=0.540000m/h.</desc>
<speed>0.150000</speed>
</trkpt>
<trkpt lat="55.704372" lon="26.086357">
<ele>151.783325</ele>
<time>2010-07-17T19:24:41Z</time>
<desc>lat.=55.704372, lon.=26.086357, Alt.=151.783325m. Speed=0.612000m/h.</desc>
<speed>0.170000</speed>
</trkpt>
<trkpt lat="55.704372" lon="26.086353">
<ele>151.373169</ele>
<time>2010-07-17T19:24:42Z</time>
<desc>lat.=55.704372, lon.=26.086353, Alt.=151.373169m. Speed=0.540000m/h.</desc>
<speed>0.150000</speed>
</trkpt>
<trkpt lat="55.704372" lon="26.086351">
<ele>150.963013</ele>
<time>2010-07-17T19:24:43Z</time>
<desc>lat.=55.704372, lon.=26.086351, Alt.=150.963013m. Speed=0.576000m/h.</desc>
<speed>0.160000</speed>
</trkpt>
<trkpt lat="55.704372" lon="26.086349">
<ele>150.552856</ele>
<time>2010-07-17T19:24:44Z</time>
<desc>lat.=55.704372, lon.=26.086349, Alt.=150.552856m. Speed=0.612000m/h.</desc>
<speed>0.170000</speed>
</trkpt>
<trkpt lat="55.704369" lon="26.086348">
<ele>150.142700</ele>
<time>2010-07-17T19:24:45Z</time>
<desc>lat.=55.704369, lon.=26.086348, Alt.=150.142700m. Speed=0.612000m/h.</desc>
<speed>0.170000</speed>
</trkpt>
<trkpt lat="55.704369" lon="26.086346">
<ele>149.732544</ele>
<time>2010-07-17T19:24:46Z</time>
<desc>lat.=55.704369, lon.=26.086346, Alt.=149.732544m. Speed=0.576000m/h.</desc>
<speed>0.160000</speed>
</trkpt>
<trkpt lat="55.704369" lon="26.086344">
<ele>149.330200</ele>
<time>2010-07-17T19:24:47Z</time>
<desc>lat.=55.704369, lon.=26.086344, Alt.=149.330200m. Speed=0.540000m/h.</desc>
<speed>0.150000</speed>
</trkpt>
<trkpt lat="55.704369" lon="26.086342">
<ele>148.927856</ele>
<time>2010-07-17T19:24:48Z</time>
<desc>lat.=55.704369, lon.=26.086342, Alt.=148.927856m. Speed=0.612000m/h.</desc>
<speed>0.170000</speed>
</trkpt>
<trkpt lat="55.704365" lon="26.086340">
<ele>148.525513</ele>
<time>2010-07-17T19:24:49Z</time>
<desc>lat.=55.704365, lon.=26.086340, Alt.=148.525513m. Speed=0.576000m/h.</desc>
<speed>0.160000</speed>
</trkpt>
<trkpt lat="55.704365" lon="26.086338">
<ele>148.123169</ele>
<time>2010-07-17T19:24:50Z</time>
<desc>lat.=55.704365, lon.=26.086338, Alt.=148.123169m. Speed=0.612000m/h.</desc>
<speed>0.170000</speed>
</trkpt>
<trkpt lat="55.704365" lon="26.086336">
<ele>147.720825</ele>
<time>2010-07-17T19:24:51Z</time>
<desc>lat.=55.704365, lon.=26.086336, Alt.=147.720825m. Speed=0.612000m/h.</desc>
<speed>0.170000</speed>
</trkpt>
<trkpt lat="55.704361" lon="26.086334">
<ele>147.314575</ele>
<time>2010-07-17T19:24:52Z</time>
<desc>lat.=55.704361, lon.=26.086334, Alt.=147.314575m. Speed=0.540000m/h.</desc>
<speed>0.150000</speed>
</trkpt>
<trkpt lat="55.704361" lon="26.086334">
<ele>146.912231</ele>
<time>2010-07-17T19:24:53Z</time>
<desc>lat.=55.704361, lon.=26.086334, Alt.=146.912231m. Speed=0.540000m/h.</desc>
<speed>0.150000</speed>
</trkpt>
<trkpt lat="55.704361" lon="26.086332">
<ele>146.505981</ele>
<time>2010-07-17T19:24:54Z</time>
<desc>lat.=55.704361, lon.=26.086332, Alt.=146.505981m. Speed=0.540000m/h.</desc>
<speed>0.150000</speed>
</trkpt>
<trkpt lat="55.704361" lon="26.086330">
<ele>146.103638</ele>
<time>2010-07-17T19:24:55Z</time>
<desc>lat.=55.704361, lon.=26.086330, Alt.=146.103638m. Speed=0.576000m/h.</desc>
<speed>0.160000</speed>
</trkpt>
<trkpt lat="55.704357" lon="26.086330">
<ele>145.697388</ele>
<time>2010-07-17T19:24:56Z</time>
<desc>lat.=55.704357, lon.=26.086330, Alt.=145.697388m. Speed=0.612000m/h.</desc>
<speed>0.170000</speed>
</trkpt>
<trkpt lat="55.704357" lon="26.086329">
<ele>145.295044</ele>
<time>2010-07-17T19:24:57Z</time>
<desc>lat.=55.704357, lon.=26.086329, Alt.=145.295044m. Speed=0.576000m/h.</desc>
<speed>0.160000</speed>
</trkpt>
<trkpt lat="55.704353" lon="26.086329">
<ele>144.888794</ele>
<time>2010-07-17T19:24:58Z</time>
<desc>lat.=55.704353, lon.=26.086329, Alt.=144.888794m. Speed=0.612000m/h.</desc>
<speed>0.170000</speed>
</trkpt>
<trkpt lat="55.704353" lon="26.086327">
<ele>144.490356</ele>
<time>2010-07-17T19:24:59Z</time>
<desc>lat.=55.704353, lon.=26.086327, Alt.=144.490356m. Speed=0.612000m/h.</desc>
<speed>0.170000</speed>
</trkpt>
<trkpt lat="55.704353" lon="26.086325">
<ele>144.091919</ele>
<time>2010-07-17T19:25:00Z</time>
<desc>lat.=55.704353, lon.=26.086325, Alt.=144.091919m. Speed=0.648000m/h.</desc>
<speed>0.180000</speed>
</trkpt>
<trkpt lat="55.704350" lon="26.086323">
<ele>143.697388</ele>
<time>2010-07-17T19:25:01Z</time>
<desc>lat.=55.704350, lon.=26.086323, Alt.=143.697388m. Speed=0.648000m/h.</desc>
<speed>0.180000</speed>
</trkpt>
<trkpt lat="55.704350" lon="26.086323">
<ele>143.298950</ele>
<time>2010-07-17T19:25:02Z</time>
<desc>lat.=55.704350, lon.=26.086323, Alt.=143.298950m. Speed=0.576000m/h.</desc>
<speed>0.160000</speed>
</trkpt>
<trkpt lat="55.704350" lon="26.086321">
<ele>142.900513</ele>
<time>2010-07-17T19:25:03Z</time>
<desc>lat.=55.704350, lon.=26.086321, Alt.=142.900513m. Speed=0.648000m/h.</desc>
<speed>0.180000</speed>
</trkpt>
<trkpt lat="55.704346" lon="26.086321">
<ele>142.502075</ele>
<time>2010-07-17T19:25:04Z</time>
<desc>lat.=55.704346, lon.=26.086321, Alt.=142.502075m. Speed=0.792000m/h.</desc>
<speed>0.220000</speed>
</trkpt>
<trkpt lat="55.704346" lon="26.086319">
<ele>142.111450</ele>
<time>2010-07-17T19:25:05Z</time>
<desc>lat.=55.704346, lon.=26.086319, Alt.=142.111450m. Speed=0.792000m/h.</desc>
<speed>0.220000</speed>
</trkpt>
<trkpt lat="55.704342" lon="26.086319">
<ele>141.720825</ele>
<time>2010-07-17T19:25:06Z</time>
<desc>lat.=55.704342, lon.=26.086319, Alt.=141.720825m. Speed=0.756000m/h.</desc>
<speed>0.210000</speed>
</trkpt>
<trkpt lat="55.704342" lon="26.086317">
<ele>141.326294</ele>
<time>2010-07-17T19:25:07Z</time>
<desc>lat.=55.704342, lon.=26.086317, Alt.=141.326294m. Speed=0.720000m/h.</desc>
<speed>0.200000</speed>
</trkpt>
<trkpt lat="55.704338" lon="26.086317">
<ele>140.935669</ele>
<time>2010-07-17T19:25:08Z</time>
<desc>lat.=55.704338, lon.=26.086317, Alt.=140.935669m. Speed=0.756000m/h.</desc>
<speed>0.210000</speed>
</trkpt>
<trkpt lat="55.704338" lon="26.086317">
<ele>140.541138</ele>
<time>2010-07-17T19:25:09Z</time>
<desc>lat.=55.704338, lon.=26.086317, Alt.=140.541138m. Speed=0.756000m/h.</desc>
<speed>0.210000</speed>
</trkpt>
<trkpt lat="55.704334" lon="26.086315">
<ele>140.146606</ele>
<time>2010-07-17T19:25:10Z</time>
<desc>lat.=55.704334, lon.=26.086315, Alt.=140.146606m. Speed=0.720000m/h.</desc>
<speed>0.200000</speed>
</trkpt>
<trkpt lat="55.704334" lon="26.086315">
<ele>139.755981</ele>
<time>2010-07-17T19:25:11Z</time>
<desc>lat.=55.704334, lon.=26.086315, Alt.=139.755981m. Speed=0.792000m/h.</desc>
<speed>0.220000</speed>
</trkpt>
<trkpt lat="55.704330" lon="26.086313">
<ele>139.365356</ele>
<time>2010-07-17T19:25:12Z</time>
<desc>lat.=55.704330, lon.=26.086313, Alt.=139.365356m. Speed=0.828000m/h.</desc>
<speed>0.230000</speed>
</trkpt>
<trkpt lat="55.704330" lon="26.086313">
<ele>138.974731</ele>
<time>2010-07-17T19:25:13Z</time>
<desc>lat.=55.704330, lon.=26.086313, Alt.=138.974731m. Speed=0.936000m/h.</desc>
<speed>0.260000</speed>
</trkpt>
<trkpt lat="55.704327" lon="26.086313">
<ele>138.584106</ele>
<time>2010-07-17T19:25:14Z</time>
<desc>lat.=55.704327, lon.=26.086313, Alt.=138.584106m. Speed=0.936000m/h.</desc>
<speed>0.260000</speed>
</trkpt>
<trkpt lat="55.704327" lon="26.086313">
<ele>138.201294</ele>
<time>2010-07-17T19:25:15Z</time>
<desc>lat.=55.704327, lon.=26.086313, Alt.=138.201294m. Speed=0.900000m/h.</desc>
<speed>0.250000</speed>
</trkpt>
<trkpt lat="55.704323" lon="26.086311">
<ele>137.822388</ele>
<time>2010-07-17T19:25:16Z</time>
<desc>lat.=55.704323, lon.=26.086311, Alt.=137.822388m. Speed=0.792000m/h.</desc>
<speed>0.220000</speed>
</trkpt>
<trkpt lat="55.704319" lon="26.086311">
<ele>137.443481</ele>
<time>2010-07-17T19:25:17Z</time>
<desc>lat.=55.704319, lon.=26.086311, Alt.=137.443481m. Speed=0.828000m/h.</desc>
<speed>0.230000</speed>
</trkpt>
<trkpt lat="55.704319" lon="26.086309">
<ele>137.064575</ele>
<time>2010-07-17T19:25:18Z</time>
<desc>lat.=55.704319, lon.=26.086309, Alt.=137.064575m. Speed=0.828000m/h.</desc>
<speed>0.230000</speed>
</trkpt>
<trkpt lat="55.704315" lon="26.086309">
<ele>136.685669</ele>
<time>2010-07-17T19:25:19Z</time>
<desc>lat.=55.704315, lon.=26.086309, Alt.=136.685669m. Speed=0.828000m/h.</desc>
<speed>0.230000</speed>
</trkpt>
<trkpt lat="55.704315" lon="26.086308">
<ele>136.302856</ele>
<time>2010-07-17T19:25:20Z</time>
<desc>lat.=55.704315, lon.=26.086308, Alt.=136.302856m. Speed=0.828000m/h.</desc>
<speed>0.230000</speed>
</trkpt>
<trkpt lat="55.704311" lon="26.086308">
<ele>135.927856</ele>
<time>2010-07-17T19:25:21Z</time>
<desc>lat.=55.704311, lon.=26.086308, Alt.=135.927856m. Speed=0.792000m/h.</desc>
<speed>0.220000</speed>
</trkpt>
<trkpt lat="55.704311" lon="26.086306">
<ele>135.545044</ele>
<time>2010-07-17T19:25:22Z</time>
<desc>lat.=55.704311, lon.=26.086306, Alt.=135.545044m. Speed=0.828000m/h.</desc>
<speed>0.230000</speed>
</trkpt>
<trkpt lat="55.704308" lon="26.086304">
<ele>135.166138</ele>
<time>2010-07-17T19:25:23Z</time>
<desc>lat.=55.704308, lon.=26.086304, Alt.=135.166138m. Speed=0.828000m/h.</desc>
<speed>0.230000</speed>
</trkpt>
<trkpt lat="55.704308" lon="26.086304">
<ele>134.795044</ele>
<time>2010-07-17T19:25:24Z</time>
<desc>lat.=55.704308, lon.=26.086304, Alt.=134.795044m. Speed=0.756000m/h.</desc>
<speed>0.210000</speed>
</trkpt>
<trkpt lat="55.704304" lon="26.086302">
<ele>134.427856</ele>
<time>2010-07-17T19:25:25Z</time>
<desc>lat.=55.704304, lon.=26.086302, Alt.=134.427856m. Speed=0.756000m/h.</desc>
<speed>0.210000</speed>
</trkpt>
<trkpt lat="55.704304" lon="26.086302">
<ele>134.064575</ele>
<time>2010-07-17T19:25:26Z</time>
<desc>lat.=55.704304, lon.=26.086302, Alt.=134.064575m. Speed=0.756000m/h.</desc>
<speed>0.210000</speed>
</trkpt>
<trkpt lat="55.704300" lon="26.086300">
<ele>133.701294</ele>
<time>2010-07-17T19:25:27Z</time>
<desc>lat.=55.704300, lon.=26.086300, Alt.=133.701294m. Speed=0.756000m/h.</desc>
<speed>0.210000</speed>
</trkpt>
<trkpt lat="55.704300" lon="26.086300">
<ele>133.345825</ele>
<time>2010-07-17T19:25:28Z</time>
<desc>lat.=55.704300, lon.=26.086300, Alt.=133.345825m. Speed=0.720000m/h.</desc>
<speed>0.200000</speed>
</trkpt>
<trkpt lat="55.704296" lon="26.086298">
<ele>132.998169</ele>
<time>2010-07-17T19:25:29Z</time>
<desc>lat.=55.704296, lon.=26.086298, Alt.=132.998169m. Speed=0.684000m/h.</desc>
<speed>0.190000</speed>
</trkpt>
<trkpt lat="55.704296" lon="26.086296">
<ele>132.650513</ele>
<time>2010-07-17T19:25:30Z</time>
<desc>lat.=55.704296, lon.=26.086296, Alt.=132.650513m. Speed=0.648000m/h.</desc>
<speed>0.180000</speed>
</trkpt>
<trkpt lat="55.704296" lon="26.086296">
<ele>132.302856</ele>
<time>2010-07-17T19:25:31Z</time>
<desc>lat.=55.704296, lon.=26.086296, Alt.=132.302856m. Speed=0.648000m/h.</desc>
<speed>0.180000</speed>
</trkpt>
<trkpt lat="55.704292" lon="26.086294">
<ele>131.963013</ele>
<time>2010-07-17T19:25:32Z</time>
<desc>lat.=55.704292, lon.=26.086294, Alt.=131.963013m. Speed=0.612000m/h.</desc>
<speed>0.170000</speed>
</trkpt>
<trkpt lat="55.704292" lon="26.086292">
<ele>131.630981</ele>
<time>2010-07-17T19:25:33Z</time>
<desc>lat.=55.704292, lon.=26.086292, Alt.=131.630981m. Speed=0.576000m/h.</desc>
<speed>0.160000</speed>
</trkpt>
<trkpt lat="55.704288" lon="26.086292">
<ele>131.306763</ele>
<time>2010-07-17T19:25:34Z</time>
<desc>lat.=55.704288, lon.=26.086292, Alt.=131.306763m. Speed=0.576000m/h.</desc>
<speed>0.160000</speed>
</trkpt>
<trkpt lat="55.704288" lon="26.086290">
<ele>131.009888</ele>
<time>2010-07-17T19:25:35Z</time>
<desc>lat.=55.704288, lon.=26.086290, Alt.=131.009888m. Speed=0.504000m/h.</desc>
<speed>0.140000</speed>
</trkpt>
<trkpt lat="55.704288" lon="26.086288">
<ele>130.705200</ele>
<time>2010-07-17T19:25:36Z</time>
<desc>lat.=55.704288, lon.=26.086288, Alt.=130.705200m. Speed=0.468000m/h.</desc>
<speed>0.130000</speed>
</trkpt>
<trkpt lat="55.704288" lon="26.086287">
<ele>130.412231</ele>
<time>2010-07-17T19:25:37Z</time>
<desc>lat.=55.704288, lon.=26.086287, Alt.=130.412231m. Speed=0.432000m/h.</desc>
<speed>0.120000</speed>
</trkpt>
<trkpt lat="55.704288" lon="26.086287">
<ele>130.134888</ele>
<time>2010-07-17T19:25:38Z</time>
<desc>lat.=55.704288, lon.=26.086287, Alt.=130.134888m. Speed=0.468000m/h.</desc>
<speed>0.130000</speed>
</trkpt>
<trkpt lat="55.704285" lon="26.086285">
<ele>129.869263</ele>
<time>2010-07-17T19:25:39Z</time>
<desc>lat.=55.704285, lon.=26.086285, Alt.=129.869263m. Speed=0.396000m/h.</desc>
<speed>0.110000</speed>
</trkpt>
<trkpt lat="55.704285" lon="26.086285">
<ele>129.607544</ele>
<time>2010-07-17T19:25:40Z</time>
<desc>lat.=55.704285, lon.=26.086285, Alt.=129.607544m. Speed=0.432000m/h.</desc>
<speed>0.120000</speed>
</trkpt>
<trkpt lat="55.704285" lon="26.086283">
<ele>129.349731</ele>
<time>2010-07-17T19:25:41Z</time>
<desc>lat.=55.704285, lon.=26.086283, Alt.=129.349731m. Speed=0.396000m/h.</desc>
<speed>0.110000</speed>
</trkpt>
<trkpt lat="55.704285" lon="26.086281">
<ele>129.099731</ele>
<time>2010-07-17T19:25:42Z</time>
<desc>lat.=55.704285, lon.=26.086281, Alt.=129.099731m. Speed=0.360000m/h.</desc>
<speed>0.100000</speed>
</trkpt>
<trkpt lat="55.704285" lon="26.086281">
<ele>128.853638</ele>
<time>2010-07-17T19:25:43Z</time>
<desc>lat.=55.704285, lon.=26.086281, Alt.=128.853638m. Speed=0.360000m/h.</desc>
<speed>0.100000</speed>
</trkpt>
<trkpt lat="55.704281" lon="26.086279">
<ele>128.607544</ele>
<time>2010-07-17T19:25:44Z</time>
<desc>lat.=55.704281, lon.=26.086279, Alt.=128.607544m. Speed=0.360000m/h.</desc>
<speed>0.100000</speed>
</trkpt>
<trkpt lat="55.704281" lon="26.086279">
<ele>128.369263</ele>
<time>2010-07-17T19:25:45Z</time>
<desc>lat.=55.704281, lon.=26.086279, Alt.=128.369263m. Speed=0.360000m/h.</desc>
<speed>0.100000</speed>
</trkpt>
<trkpt lat="55.704281" lon="26.086279">
<ele>128.130981</ele>
<time>2010-07-17T19:25:46Z</time>
<desc>lat.=55.704281, lon.=26.086279, Alt.=128.130981m. Speed=0.288000m/h.</desc>
<speed>0.080000</speed>
</trkpt>
<trkpt lat="55.704281" lon="26.086279">
<ele>127.907288</ele>
<time>2010-07-17T19:25:47Z</time>
<desc>lat.=55.704281, lon.=26.086279, Alt.=127.907288m. Speed=0.252000m/h.</desc>
<speed>0.070000</speed>
</trkpt>
<trkpt lat="55.704281" lon="26.086277">
<ele>127.682678</ele>
<time>2010-07-17T19:25:48Z</time>
<desc>lat.=55.704281, lon.=26.086277, Alt.=127.682678m. Speed=0.180000m/h.</desc>
<speed>0.050000</speed>
</trkpt>
<trkpt lat="55.704277" lon="26.086277">
<ele>127.465881</ele>
<time>2010-07-17T19:25:49Z</time>
<desc>lat.=55.704277, lon.=26.086277, Alt.=127.465881m. Speed=0.144000m/h.</desc>
<speed>0.040000</speed>
</trkpt>
<trkpt lat="55.704277" lon="26.086277">
<ele>127.251038</ele>
<time>2010-07-17T19:25:50Z</time>
<desc>lat.=55.704277, lon.=26.086277, Alt.=127.251038m. Speed=0.216000m/h.</desc>
<speed>0.060000</speed>
</trkpt>
<trkpt lat="55.704277" lon="26.086279">
<ele>127.049866</ele>
<time>2010-07-17T19:25:51Z</time>
<desc>lat.=55.704277, lon.=26.086279, Alt.=127.049866m. Speed=0.288000m/h.</desc>
<speed>0.080000</speed>
</trkpt>
<trkpt lat="55.704277" lon="26.086279">
<ele>126.856506</ele>
<time>2010-07-17T19:25:52Z</time>
<desc>lat.=55.704277, lon.=26.086279, Alt.=126.856506m. Speed=0.288000m/h.</desc>
<speed>0.080000</speed>
</trkpt>
<trkpt lat="55.704277" lon="26.086281">
<ele>126.669006</ele>
<time>2010-07-17T19:25:53Z</time>
<desc>lat.=55.704277, lon.=26.086281, Alt.=126.669006m. Speed=0.180000m/h.</desc>
<speed>0.050000</speed>
</trkpt>
<trkpt lat="55.704277" lon="26.086281">
<ele>126.477600</ele>
<time>2010-07-17T19:25:54Z</time>
<desc>lat.=55.704277, lon.=26.086281, Alt.=126.477600m. Speed=0.180000m/h.</desc>
<speed>0.050000</speed>
</trkpt>
<trkpt lat="55.704277" lon="26.086283">
<ele>126.288147</ele>
<time>2010-07-17T19:25:55Z</time>
<desc>lat.=55.704277, lon.=26.086283, Alt.=126.288147m. Speed=0.216000m/h.</desc>
<speed>0.060000</speed>
</trkpt>
<trkpt lat="55.704277" lon="26.086283">
<ele>126.098694</ele>
<time>2010-07-17T19:25:56Z</time>
<desc>lat.=55.704277, lon.=26.086283, Alt.=126.098694m. Speed=0.216000m/h.</desc>
<speed>0.060000</speed>
</trkpt>
<trkpt lat="55.704277" lon="26.086285">
<ele>125.911194</ele>
<time>2010-07-17T19:25:57Z</time>
<desc>lat.=55.704277, lon.=26.086285, Alt.=125.911194m. Speed=0.288000m/h.</desc>
<speed>0.080000</speed>
</trkpt>
<trkpt lat="55.704277" lon="26.086287">
<ele>125.721741</ele>
<time>2010-07-17T19:25:58Z</time>
<desc>lat.=55.704277, lon.=26.086287, Alt.=125.721741m. Speed=0.324000m/h.</desc>
<speed>0.090000</speed>
</trkpt>
<trkpt lat="55.704277" lon="26.086288">
<ele>125.538147</ele>
<time>2010-07-17T19:25:59Z</time>
<desc>lat.=55.704277, lon.=26.086288, Alt.=125.538147m. Speed=0.324000m/h.</desc>
<speed>0.090000</speed>
</trkpt>
<trkpt lat="55.704277" lon="26.086288">
<ele>125.354553</ele>
<time>2010-07-17T19:26:00Z</time>
<desc>lat.=55.704277, lon.=26.086288, Alt.=125.354553m. Speed=0.288000m/h.</desc>
<speed>0.080000</speed>
</trkpt>
<trkpt lat="55.704277" lon="26.086290">
<ele>125.167053</ele>
<time>2010-07-17T19:26:01Z</time>
<desc>lat.=55.704277, lon.=26.086290, Alt.=125.167053m. Speed=0.324000m/h.</desc>
<speed>0.090000</speed>
</trkpt>
<trkpt lat="55.704281" lon="26.086290">
<ele>124.985413</ele>
<time>2010-07-17T19:26:02Z</time>
<desc>lat.=55.704281, lon.=26.086290, Alt.=124.985413m. Speed=0.432000m/h.</desc>
<speed>0.120000</speed>
</trkpt>
<trkpt lat="55.704281" lon="26.086292">
<ele>124.809631</ele>
<time>2010-07-17T19:26:03Z</time>
<desc>lat.=55.704281, lon.=26.086292, Alt.=124.809631m. Speed=0.432000m/h.</desc>
<speed>0.120000</speed>
</trkpt>
<trkpt lat="55.704281" lon="26.086294">
<ele>124.643616</ele>
<time>2010-07-17T19:26:04Z</time>
<desc>lat.=55.704281, lon.=26.086294, Alt.=124.643616m. Speed=0.216000m/h.</desc>
<speed>0.060000</speed>
</trkpt>
<trkpt lat="55.704281" lon="26.086294">
<ele>124.479553</ele>
<time>2010-07-17T19:26:05Z</time>
<desc>lat.=55.704281, lon.=26.086294, Alt.=124.479553m. Speed=0.288000m/h.</desc>
<speed>0.080000</speed>
</trkpt>
<trkpt lat="55.704281" lon="26.086294">
<ele>124.315491</ele>
<time>2010-07-17T19:26:06Z</time>
<desc>lat.=55.704281, lon.=26.086294, Alt.=124.315491m. Speed=0.360000m/h.</desc>
<speed>0.100000</speed>
</trkpt>
<trkpt lat="55.704277" lon="26.086294">
<ele>124.159241</ele>
<time>2010-07-17T19:26:07Z</time>
<desc>lat.=55.704277, lon.=26.086294, Alt.=124.159241m. Speed=0.288000m/h.</desc>
<speed>0.080000</speed>
</trkpt>
<trkpt lat="55.704277" lon="26.086294">
<ele>124.006897</ele>
<time>2010-07-17T19:26:08Z</time>
<desc>lat.=55.704277, lon.=26.086294, Alt.=124.006897m. Speed=0.324000m/h.</desc>
<speed>0.090000</speed>
</trkpt>
<trkpt lat="55.704277" lon="26.086294">
<ele>123.858459</ele>
<time>2010-07-17T19:26:09Z</time>
<desc>lat.=55.704277, lon.=26.086294, Alt.=123.858459m. Speed=0.288000m/h.</desc>
<speed>0.080000</speed>
</trkpt>
<trkpt lat="55.704277" lon="26.086294">
<ele>123.711975</ele>
<time>2010-07-17T19:26:10Z</time>
<desc>lat.=55.704277, lon.=26.086294, Alt.=123.711975m. Speed=0.324000m/h.</desc>
<speed>0.090000</speed>
</trkpt>
<trkpt lat="55.704277" lon="26.086294">
<ele>123.565491</ele>
<time>2010-07-17T19:26:11Z</time>
<desc>lat.=55.704277, lon.=26.086294, Alt.=123.565491m. Speed=0.324000m/h.</desc>
<speed>0.090000</speed>
</trkpt>
<trkpt lat="55.704273" lon="26.086294">
<ele>123.426819</ele>
<time>2010-07-17T19:26:12Z</time>
<desc>lat.=55.704273, lon.=26.086294, Alt.=123.426819m. Speed=0.288000m/h.</desc>
<speed>0.080000</speed>
</trkpt>
<trkpt lat="55.704273" lon="26.086294">
<ele>123.292053</ele>
<time>2010-07-17T19:26:13Z</time>
<desc>lat.=55.704273, lon.=26.086294, Alt.=123.292053m. Speed=0.252000m/h.</desc>
<speed>0.070000</speed>
</trkpt>
<trkpt lat="55.704273" lon="26.086294">
<ele>123.155334</ele>
<time>2010-07-17T19:26:14Z</time>
<desc>lat.=55.704273, lon.=26.086294, Alt.=123.155334m. Speed=0.288000m/h.</desc>
<speed>0.080000</speed>
</trkpt>
<trkpt lat="55.704273" lon="26.086294">
<ele>123.030334</ele>
<time>2010-07-17T19:26:15Z</time>
<desc>lat.=55.704273, lon.=26.086294, Alt.=123.030334m. Speed=0.180000m/h.</desc>
<speed>0.050000</speed>
</trkpt>
<trkpt lat="55.704273" lon="26.086294">
<ele>122.909241</ele>
<time>2010-07-17T19:26:16Z</time>
<desc>lat.=55.704273, lon.=26.086294, Alt.=122.909241m. Speed=0.216000m/h.</desc>
<speed>0.060000</speed>
</trkpt>
<trkpt lat="55.704273" lon="26.086294">
<ele>122.790100</ele>
<time>2010-07-17T19:26:17Z</time>
<desc>lat.=55.704273, lon.=26.086294, Alt.=122.790100m. Speed=0.180000m/h.</desc>
<speed>0.050000</speed>
</trkpt>
<trkpt lat="55.704273" lon="26.086294">
<ele>122.676819</ele>
<time>2010-07-17T19:26:18Z</time>
<desc>lat.=55.704273, lon.=26.086294, Alt.=122.676819m. Speed=0.180000m/h.</desc>
<speed>0.050000</speed>
</trkpt>
<trkpt lat="55.704269" lon="26.086294">
<ele>122.569397</ele>
<time>2010-07-17T19:26:19Z</time>
<desc>lat.=55.704269, lon.=26.086294, Alt.=122.569397m. Speed=0.180000m/h.</desc>
<speed>0.050000</speed>
</trkpt>
<trkpt lat="55.704269" lon="26.086294">
<ele>122.461975</ele>
<time>2010-07-17T19:26:20Z</time>
<desc>lat.=55.704269, lon.=26.086294, Alt.=122.461975m. Speed=0.180000m/h.</desc>
<speed>0.050000</speed>
</trkpt>
<trkpt lat="55.704269" lon="26.086292">
<ele>122.356506</ele>
<time>2010-07-17T19:26:21Z</time>
<desc>lat.=55.704269, lon.=26.086292, Alt.=122.356506m. Speed=0.108000m/h.</desc>
<speed>0.030000</speed>
</trkpt>
<trkpt lat="55.704269" lon="26.086292">
<ele>122.251038</ele>
<time>2010-07-17T19:26:22Z</time>
<desc>lat.=55.704269, lon.=26.086292, Alt.=122.251038m. Speed=0.180000m/h.</desc>
<speed>0.050000</speed>
</trkpt>
<trkpt lat="55.704269" lon="26.086292">
<ele>122.147522</ele>
<time>2010-07-17T19:26:23Z</time>
<desc>lat.=55.704269, lon.=26.086292, Alt.=122.147522m. Speed=0.180000m/h.</desc>
<speed>0.050000</speed>
</trkpt>
<trkpt lat="55.704269" lon="26.086290">
<ele>122.059631</ele>
<time>2010-07-17T19:26:24Z</time>
<desc>lat.=55.704269, lon.=26.086290, Alt.=122.059631m. Speed=0.180000m/h.</desc>
<speed>0.050000</speed>
</trkpt>
<trkpt lat="55.704269" lon="26.086290">
<ele>121.973694</ele>
<time>2010-07-17T19:26:25Z</time>
<desc>lat.=55.704269, lon.=26.086290, Alt.=121.973694m. Speed=0.180000m/h.</desc>
<speed>0.050000</speed>
</trkpt>
<trkpt lat="55.704269" lon="26.086288">
<ele>121.899475</ele>
<time>2010-07-17T19:26:26Z</time>
<desc>lat.=55.704269, lon.=26.086288, Alt.=121.899475m. Speed=0.144000m/h.</desc>
<speed>0.040000</speed>
</trkpt>
<trkpt lat="55.704269" lon="26.086288">
<ele>121.836975</ele>
<time>2010-07-17T19:26:27Z</time>
<desc>lat.=55.704269, lon.=26.086288, Alt.=121.836975m. Speed=0.108000m/h.</desc>
<speed>0.030000</speed>
</trkpt>
<trkpt lat="55.704269" lon="26.086288">
<ele>121.774475</ele>
<time>2010-07-17T19:26:28Z</time>
<desc>lat.=55.704269, lon.=26.086288, Alt.=121.774475m. Speed=0.108000m/h.</desc>
<speed>0.030000</speed>
</trkpt>
<trkpt lat="55.704269" lon="26.086288">
<ele>121.719788</ele>
<time>2010-07-17T19:26:29Z</time>
<desc>lat.=55.704269, lon.=26.086288, Alt.=121.719788m. Speed=0.180000m/h.</desc>
<speed>0.050000</speed>
</trkpt>
<trkpt lat="55.704269" lon="26.086288">
<ele>121.674866</ele>
<time>2010-07-17T19:26:30Z</time>
<desc>lat.=55.704269, lon.=26.086288, Alt.=121.674866m. Speed=0.072000m/h.</desc>
<speed>0.020000</speed>
</trkpt>
<trkpt lat="55.704269" lon="26.086288">
<ele>121.637756</ele>
<time>2010-07-17T19:26:31Z</time>
<desc>lat.=55.704269, lon.=26.086288, Alt.=121.637756m. Speed=0.072000m/h.</desc>
<speed>0.020000</speed>
</trkpt>
<trkpt lat="55.704269" lon="26.086288">
<ele>121.647522</ele>
<time>2010-07-17T19:26:32Z</time>
<desc>lat.=55.704269, lon.=26.086288, Alt.=121.647522m. Speed=0.072000m/h.</desc>
<speed>0.020000</speed>
</trkpt>
<trkpt lat="55.704269" lon="26.086288">
<ele>121.667053</ele>
<time>2010-07-17T19:26:33Z</time>
<desc>lat.=55.704269, lon.=26.086288, Alt.=121.667053m. Speed=0.108000m/h.</desc>
<speed>0.030000</speed>
</trkpt>
<trkpt lat="55.704269" lon="26.086288">
<ele>121.692444</ele>
<time>2010-07-17T19:26:34Z</time>
<desc>lat.=55.704269, lon.=26.086288, Alt.=121.692444m. Speed=0.036000m/h.</desc>
<speed>0.010000</speed>
</trkpt>
<trkpt lat="55.704269" lon="26.086288">
<ele>121.715881</ele>
<time>2010-07-17T19:26:35Z</time>
<desc>lat.=55.704269, lon.=26.086288, Alt.=121.715881m. Speed=0.000000m/h.</desc>
<speed>0.000000</speed>
</trkpt>
<trkpt lat="55.704269" lon="26.086288">
<ele>121.725647</ele>
<time>2010-07-17T19:26:36Z</time>
<desc>lat.=55.704269, lon.=26.086288, Alt.=121.725647m. Speed=0.072000m/h.</desc>
<speed>0.020000</speed>
</trkpt>
<trkpt lat="55.704269" lon="26.086288">
<ele>121.743225</ele>
<time>2010-07-17T19:26:37Z</time>
<desc>lat.=55.704269, lon.=26.086288, Alt.=121.743225m. Speed=0.000000m/h.</desc>
<speed>0.000000</speed>
</trkpt>
<trkpt lat="55.704269" lon="26.086288">
<ele>121.766663</ele>
<time>2010-07-17T19:26:38Z</time>
<desc>lat.=55.704269, lon.=26.086288, Alt.=121.766663m. Speed=0.000000m/h.</desc>
<speed>0.000000</speed>
</trkpt>
<trkpt lat="55.704269" lon="26.086288">
<ele>121.792053</ele>
<time>2010-07-17T19:26:39Z</time>
<desc>lat.=55.704269, lon.=26.086288, Alt.=121.792053m. Speed=0.036000m/h.</desc>
<speed>0.010000</speed>
</trkpt>
<trkpt lat="55.704269" lon="26.086288">
<ele>121.813538</ele>
<time>2010-07-17T19:26:40Z</time>
<desc>lat.=55.704269, lon.=26.086288, Alt.=121.813538m. Speed=0.036000m/h.</desc>
<speed>0.010000</speed>
</trkpt>
<trkpt lat="55.704269" lon="26.086288">
<ele>121.833069</ele>
<time>2010-07-17T19:26:41Z</time>
<desc>lat.=55.704269, lon.=26.086288, Alt.=121.833069m. Speed=0.072000m/h.</desc>
<speed>0.020000</speed>
</trkpt>
<trkpt lat="55.704269" lon="26.086288">
<ele>121.862366</ele>
<time>2010-07-17T19:26:42Z</time>
<desc>lat.=55.704269, lon.=26.086288, Alt.=121.862366m. Speed=0.000000m/h.</desc>
<speed>0.000000</speed>
</trkpt>
<trkpt lat="55.704269" lon="26.086288">
<ele>121.889709</ele>
<time>2010-07-17T19:26:43Z</time>
<desc>lat.=55.704269, lon.=26.086288, Alt.=121.889709m. Speed=0.072000m/h.</desc>
<speed>0.020000</speed>
</trkpt>
<trkpt lat="55.704269" lon="26.086288">
<ele>121.915100</ele>
<time>2010-07-17T19:26:44Z</time>
<desc>lat.=55.704269, lon.=26.086288, Alt.=121.915100m. Speed=0.036000m/h.</desc>
<speed>0.010000</speed>
</trkpt>
<trkpt lat="55.704269" lon="26.086288">
<ele>121.926819</ele>
<time>2010-07-17T19:26:45Z</time>
<desc>lat.=55.704269, lon.=26.086288, Alt.=121.926819m. Speed=0.036000m/h.</desc>
<speed>0.010000</speed>
</trkpt>
<trkpt lat="55.704269" lon="26.086288">
<ele>121.940491</ele>
<time>2010-07-17T19:26:46Z</time>
<desc>lat.=55.704269, lon.=26.086288, Alt.=121.940491m. Speed=0.072000m/h.</desc>
<speed>0.020000</speed>
</trkpt>
<trkpt lat="55.704269" lon="26.086288">
<ele>121.960022</ele>
<time>2010-07-17T19:26:47Z</time>
<desc>lat.=55.704269, lon.=26.086288, Alt.=121.960022m. Speed=0.000000m/h.</desc>
<speed>0.000000</speed>
</trkpt>
<trkpt lat="55.704269" lon="26.086288">
<ele>121.989319</ele>
<time>2010-07-17T19:26:48Z</time>
<desc>lat.=55.704269, lon.=26.086288, Alt.=121.989319m. Speed=0.000000m/h.</desc>
<speed>0.000000</speed>
</trkpt>
<trkpt lat="55.704269" lon="26.086288">
<ele>122.012756</ele>
<time>2010-07-17T19:26:49Z</time>
<desc>lat.=55.704269, lon.=26.086288, Alt.=122.012756m. Speed=0.036000m/h.</desc>
<speed>0.010000</speed>
</trkpt>
<trkpt lat="55.704269" lon="26.086288">
<ele>122.032288</ele>
<time>2010-07-17T19:26:50Z</time>
<desc>lat.=55.704269, lon.=26.086288, Alt.=122.032288m. Speed=0.144000m/h.</desc>
<speed>0.040000</speed>
</trkpt>
<trkpt lat="55.704269" lon="26.086288">
<ele>122.045959</ele>
<time>2010-07-17T19:26:51Z</time>
<desc>lat.=55.704269, lon.=26.086288, Alt.=122.045959m. Speed=0.000000m/h.</desc>
<speed>0.000000</speed>
</trkpt>
<trkpt lat="55.704269" lon="26.086288">
<ele>122.073303</ele>
<time>2010-07-17T19:26:52Z</time>
<desc>lat.=55.704269, lon.=26.086288, Alt.=122.073303m. Speed=0.000000m/h.</desc>
<speed>0.000000</speed>
</trkpt>
<trkpt lat="55.704269" lon="26.086288">
<ele>122.090881</ele>
<time>2010-07-17T19:26:53Z</time>
<desc>lat.=55.704269, lon.=26.086288, Alt.=122.090881m. Speed=0.000000m/h.</desc>
<speed>0.000000</speed>
</trkpt>
<trkpt lat="55.704269" lon="26.086288">
<ele>122.110413</ele>
<time>2010-07-17T19:26:54Z</time>
<desc>lat.=55.704269, lon.=26.086288, Alt.=122.110413m. Speed=0.036000m/h.</desc>
<speed>0.010000</speed>
</trkpt>
<trkpt lat="55.704269" lon="26.086288">
<ele>122.126038</ele>
<time>2010-07-17T19:26:55Z</time>
<desc>lat.=55.704269, lon.=26.086288, Alt.=122.126038m. Speed=0.072000m/h.</desc>
<speed>0.020000</speed>
</trkpt>
<trkpt lat="55.704269" lon="26.086290">
<ele>122.141663</ele>
<time>2010-07-17T19:26:56Z</time>
<desc>lat.=55.704269, lon.=26.086290, Alt.=122.141663m. Speed=0.072000m/h.</desc>
<speed>0.020000</speed>
</trkpt>
<trkpt lat="55.704269" lon="26.086290">
<ele>122.163147</ele>
<time>2010-07-17T19:26:57Z</time>
<desc>lat.=55.704269, lon.=26.086290, Alt.=122.163147m. Speed=0.072000m/h.</desc>
<speed>0.020000</speed>
</trkpt>
<trkpt lat="55.704269" lon="26.086290">
<ele>122.176819</ele>
<time>2010-07-17T19:26:58Z</time>
<desc>lat.=55.704269, lon.=26.086290, Alt.=122.176819m. Speed=0.108000m/h.</desc>
<speed>0.030000</speed>
</trkpt>
<trkpt lat="55.704269" lon="26.086290">
<ele>122.192444</ele>
<time>2010-07-17T19:26:59Z</time>
<desc>lat.=55.704269, lon.=26.086290, Alt.=122.192444m. Speed=0.180000m/h.</desc>
<speed>0.050000</speed>
</trkpt>
<trkpt lat="55.704269" lon="26.086290">
<ele>122.215881</ele>
<time>2010-07-17T19:27:00Z</time>
<desc>lat.=55.704269, lon.=26.086290, Alt.=122.215881m. Speed=0.108000m/h.</desc>
<speed>0.030000</speed>
</trkpt>
<trkpt lat="55.704269" lon="26.086290">
<ele>122.223694</ele>
<time>2010-07-17T19:27:01Z</time>
<desc>lat.=55.704269, lon.=26.086290, Alt.=122.223694m. Speed=0.072000m/h.</desc>
<speed>0.020000</speed>
</trkpt>
<trkpt lat="55.704269" lon="26.086290">
<ele>122.235413</ele>
<time>2010-07-17T19:27:02Z</time>
<desc>lat.=55.704269, lon.=26.086290, Alt.=122.235413m. Speed=0.072000m/h.</desc>
<speed>0.020000</speed>
</trkpt>
<trkpt lat="55.704269" lon="26.086290">
<ele>122.252991</ele>
<time>2010-07-17T19:27:03Z</time>
<desc>lat.=55.704269, lon.=26.086290, Alt.=122.252991m. Speed=0.144000m/h.</desc>
<speed>0.040000</speed>
</trkpt>
<trkpt lat="55.704269" lon="26.086290">
<ele>122.274475</ele>
<time>2010-07-17T19:27:04Z</time>
<desc>lat.=55.704269, lon.=26.086290, Alt.=122.274475m. Speed=0.180000m/h.</desc>
<speed>0.050000</speed>
</trkpt>
<trkpt lat="55.704269" lon="26.086290">
<ele>122.286194</ele>
<time>2010-07-17T19:27:05Z</time>
<desc>lat.=55.704269, lon.=26.086290, Alt.=122.286194m. Speed=0.108000m/h.</desc>
<speed>0.030000</speed>
</trkpt>
<trkpt lat="55.704269" lon="26.086292">
<ele>122.294006</ele>
<time>2010-07-17T19:27:06Z</time>
<desc>lat.=55.704269, lon.=26.086292, Alt.=122.294006m. Speed=0.072000m/h.</desc>
<speed>0.020000</speed>
</trkpt>
<trkpt lat="55.704269" lon="26.086292">
<ele>122.303772</ele>
<time>2010-07-17T19:27:07Z</time>
<desc>lat.=55.704269, lon.=26.086292, Alt.=122.303772m. Speed=0.036000m/h.</desc>
<speed>0.010000</speed>
</trkpt>
<trkpt lat="55.704269" lon="26.086292">
<ele>122.321350</ele>
<time>2010-07-17T19:27:08Z</time>
<desc>lat.=55.704269, lon.=26.086292, Alt.=122.321350m. Speed=0.000000m/h.</desc>
<speed>0.000000</speed>
</trkpt>
<trkpt lat="55.704269" lon="26.086292">
<ele>122.335022</ele>
<time>2010-07-17T19:27:09Z</time>
<desc>lat.=55.704269, lon.=26.086292, Alt.=122.335022m. Speed=0.108000m/h.</desc>
<speed>0.030000</speed>
</trkpt>
<trkpt lat="55.704269" lon="26.086292">
<ele>122.348694</ele>
<time>2010-07-17T19:27:10Z</time>
<desc>lat.=55.704269, lon.=26.086292, Alt.=122.348694m. Speed=0.036000m/h.</desc>
<speed>0.010000</speed>
</trkpt>
<trkpt lat="55.704269" lon="26.086292">
<ele>122.364319</ele>
<time>2010-07-17T19:27:11Z</time>
<desc>lat.=55.704269, lon.=26.086292, Alt.=122.364319m. Speed=0.108000m/h.</desc>
<speed>0.030000</speed>
</trkpt>
<trkpt lat="55.704269" lon="26.086292">
<ele>122.385803</ele>
<time>2010-07-17T19:27:12Z</time>
<desc>lat.=55.704269, lon.=26.086292, Alt.=122.385803m. Speed=0.072000m/h.</desc>
<speed>0.020000</speed>
</trkpt>
<trkpt lat="55.704269" lon="26.086292">
<ele>122.409241</ele>
<time>2010-07-17T19:27:13Z</time>
<desc>lat.=55.704269, lon.=26.086292, Alt.=122.409241m. Speed=0.072000m/h.</desc>
<speed>0.020000</speed>
</trkpt>
<trkpt lat="55.704269" lon="26.086292">
<ele>122.432678</ele>
<time>2010-07-17T19:27:14Z</time>
<desc>lat.=55.704269, lon.=26.086292, Alt.=122.432678m. Speed=0.036000m/h.</desc>
<speed>0.010000</speed>
</trkpt>
<trkpt lat="55.704269" lon="26.086292">
<ele>122.440491</ele>
<time>2010-07-17T19:27:15Z</time>
<desc>lat.=55.704269, lon.=26.086292, Alt.=122.440491m. Speed=0.036000m/h.</desc>
<speed>0.010000</speed>
</trkpt>
<trkpt lat="55.704269" lon="26.086292">
<ele>122.452209</ele>
<time>2010-07-17T19:27:16Z</time>
<desc>lat.=55.704269, lon.=26.086292, Alt.=122.452209m. Speed=0.108000m/h.</desc>
<speed>0.030000</speed>
</trkpt>
<trkpt lat="55.704269" lon="26.086292">
<ele>122.473694</ele>
<time>2010-07-17T19:27:17Z</time>
<desc>lat.=55.704269, lon.=26.086292, Alt.=122.473694m. Speed=0.072000m/h.</desc>
<speed>0.020000</speed>
</trkpt>
<trkpt lat="55.704269" lon="26.086292">
<ele>122.497131</ele>
<time>2010-07-17T19:27:18Z</time>
<desc>lat.=55.704269, lon.=26.086292, Alt.=122.497131m. Speed=0.036000m/h.</desc>
<speed>0.010000</speed>
</trkpt>
<trkpt lat="55.704269" lon="26.086292">
<ele>122.522522</ele>
<time>2010-07-17T19:27:19Z</time>
<desc>lat.=55.704269, lon.=26.086292, Alt.=122.522522m. Speed=0.036000m/h.</desc>
<speed>0.010000</speed>
</trkpt>
<trkpt lat="55.704269" lon="26.086292">
<ele>122.547913</ele>
<time>2010-07-17T19:27:20Z</time>
<desc>lat.=55.704269, lon.=26.086292, Alt.=122.547913m. Speed=0.036000m/h.</desc>
<speed>0.010000</speed>
</trkpt>
<trkpt lat="55.704269" lon="26.086292">
<ele>122.571350</ele>
<time>2010-07-17T19:27:21Z</time>
<desc>lat.=55.704269, lon.=26.086292, Alt.=122.571350m. Speed=0.000000m/h.</desc>
<speed>0.000000</speed>
</trkpt>
<trkpt lat="55.704269" lon="26.086292">
<ele>122.592834</ele>
<time>2010-07-17T19:27:22Z</time>
<desc>lat.=55.704269, lon.=26.086292, Alt.=122.592834m. Speed=0.036000m/h.</desc>
<speed>0.010000</speed>
</trkpt>
<trkpt lat="55.704269" lon="26.086292">
<ele>122.614319</ele>
<time>2010-07-17T19:27:23Z</time>
<desc>lat.=55.704269, lon.=26.086292, Alt.=122.614319m. Speed=0.072000m/h.</desc>
<speed>0.020000</speed>
</trkpt>
<trkpt lat="55.704269" lon="26.086292">
<ele>122.635803</ele>
<time>2010-07-17T19:27:24Z</time>
<desc>lat.=55.704269, lon.=26.086292, Alt.=122.635803m. Speed=0.072000m/h.</desc>
<speed>0.020000</speed>
</trkpt>
<trkpt lat="55.704269" lon="26.086292">
<ele>122.653381</ele>
<time>2010-07-17T19:27:25Z</time>
<desc>lat.=55.704269, lon.=26.086292, Alt.=122.653381m. Speed=0.072000m/h.</desc>
<speed>0.020000</speed>
</trkpt>
<trkpt lat="55.704269" lon="26.086292">
<ele>122.669006</ele>
<time>2010-07-17T19:27:26Z</time>
<desc>lat.=55.704269, lon.=26.086292, Alt.=122.669006m. Speed=0.108000m/h.</desc>
<speed>0.030000</speed>
</trkpt>
<trkpt lat="55.704269" lon="26.086292">
<ele>122.694397</ele>
<time>2010-07-17T19:27:27Z</time>
<desc>lat.=55.704269, lon.=26.086292, Alt.=122.694397m. Speed=0.036000m/h.</desc>
<speed>0.010000</speed>
</trkpt>
<trkpt lat="55.704269" lon="26.086294">
<ele>122.713928</ele>
<time>2010-07-17T19:27:28Z</time>
<desc>lat.=55.704269, lon.=26.086294, Alt.=122.713928m. Speed=0.036000m/h.</desc>
<speed>0.010000</speed>
</trkpt>
<trkpt lat="55.704269" lon="26.086294">
<ele>122.731506</ele>
<time>2010-07-17T19:27:29Z</time>
<desc>lat.=55.704269, lon.=26.086294, Alt.=122.731506m. Speed=0.072000m/h.</desc>
<speed>0.020000</speed>
</trkpt>
<trkpt lat="55.704269" lon="26.086294">
<ele>122.747131</ele>
<time>2010-07-17T19:27:30Z</time>
<desc>lat.=55.704269, lon.=26.086294, Alt.=122.747131m. Speed=0.072000m/h.</desc>
<speed>0.020000</speed>
</trkpt>
<trkpt lat="55.704269" lon="26.086294">
<ele>122.766663</ele>
<time>2010-07-17T19:27:31Z</time>
<desc>lat.=55.704269, lon.=26.086294, Alt.=122.766663m. Speed=0.108000m/h.</desc>
<speed>0.030000</speed>
</trkpt>
<trkpt lat="55.704269" lon="26.086294">
<ele>122.782288</ele>
<time>2010-07-17T19:27:32Z</time>
<desc>lat.=55.704269, lon.=26.086294, Alt.=122.782288m. Speed=0.036000m/h.</desc>
<speed>0.010000</speed>
</trkpt>
<trkpt lat="55.704269" lon="26.086294">
<ele>122.799866</ele>
<time>2010-07-17T19:27:33Z</time>
<desc>lat.=55.704269, lon.=26.086294, Alt.=122.799866m. Speed=0.072000m/h.</desc>
<speed>0.020000</speed>
</trkpt>
<trkpt lat="55.704269" lon="26.086294">
<ele>122.819397</ele>
<time>2010-07-17T19:27:34Z</time>
<desc>lat.=55.704269, lon.=26.086294, Alt.=122.819397m. Speed=0.036000m/h.</desc>
<speed>0.010000</speed>
</trkpt>
<trkpt lat="55.704269" lon="26.086294">
<ele>122.835022</ele>
<time>2010-07-17T19:27:35Z</time>
<desc>lat.=55.704269, lon.=26.086294, Alt.=122.835022m. Speed=0.072000m/h.</desc>
<speed>0.020000</speed>
</trkpt>
<trkpt lat="55.704269" lon="26.086294">
<ele>122.846741</ele>
<time>2010-07-17T19:27:36Z</time>
<desc>lat.=55.704269, lon.=26.086294, Alt.=122.846741m. Speed=0.072000m/h.</desc>
<speed>0.020000</speed>
</trkpt>
<trkpt lat="55.704269" lon="26.086294">
<ele>122.862366</ele>
<time>2010-07-17T19:27:37Z</time>
<desc>lat.=55.704269, lon.=26.086294, Alt.=122.862366m. Speed=0.036000m/h.</desc>
<speed>0.010000</speed>
</trkpt>
<trkpt lat="55.704273" lon="26.086294">
<ele>122.876038</ele>
<time>2010-07-17T19:27:38Z</time>
<desc>lat.=55.704273, lon.=26.086294, Alt.=122.876038m. Speed=0.000000m/h.</desc>
<speed>0.000000</speed>
</trkpt>
<trkpt lat="55.704273" lon="26.086294">
<ele>122.903381</ele>
<time>2010-07-17T19:27:39Z</time>
<desc>lat.=55.704273, lon.=26.086294, Alt.=122.903381m. Speed=0.000000m/h.</desc>
<speed>0.000000</speed>
</trkpt>
<trkpt lat="55.704273" lon="26.086294">
<ele>122.936584</ele>
<time>2010-07-17T19:27:40Z</time>
<desc>lat.=55.704273, lon.=26.086294, Alt.=122.936584m. Speed=0.072000m/h.</desc>
<speed>0.020000</speed>
</trkpt>
<trkpt lat="55.704273" lon="26.086294">
<ele>122.956116</ele>
<time>2010-07-17T19:27:41Z</time>
<desc>lat.=55.704273, lon.=26.086294, Alt.=122.956116m. Speed=0.036000m/h.</desc>
<speed>0.010000</speed>
</trkpt>
<trkpt lat="55.704273" lon="26.086294">
<ele>122.971741</ele>
<time>2010-07-17T19:27:42Z</time>
<desc>lat.=55.704273, lon.=26.086294, Alt.=122.971741m. Speed=0.036000m/h.</desc>
<speed>0.010000</speed>
</trkpt>
<trkpt lat="55.704273" lon="26.086294">
<ele>122.991272</ele>
<time>2010-07-17T19:27:43Z</time>
<desc>lat.=55.704273, lon.=26.086294, Alt.=122.991272m. Speed=0.072000m/h.</desc>
<speed>0.020000</speed>
</trkpt>
<trkpt lat="55.704273" lon="26.086294">
<ele>123.014709</ele>
<time>2010-07-17T19:27:44Z</time>
<desc>lat.=55.704273, lon.=26.086294, Alt.=123.014709m. Speed=0.036000m/h.</desc>
<speed>0.010000</speed>
</trkpt>
<trkpt lat="55.704273" lon="26.086294">
<ele>123.040100</ele>
<time>2010-07-17T19:27:45Z</time>
<desc>lat.=55.704273, lon.=26.086294, Alt.=123.040100m. Speed=0.108000m/h.</desc>
<speed>0.030000</speed>
</trkpt>
<trkpt lat="55.704273" lon="26.086294">
<ele>123.069397</ele>
<time>2010-07-17T19:27:46Z</time>
<desc>lat.=55.704273, lon.=26.086294, Alt.=123.069397m. Speed=0.036000m/h.</desc>
<speed>0.010000</speed>
</trkpt>
<trkpt lat="55.704273" lon="26.086294">
<ele>123.086975</ele>
<time>2010-07-17T19:27:47Z</time>
<desc>lat.=55.704273, lon.=26.086294, Alt.=123.086975m. Speed=0.108000m/h.</desc>
<speed>0.030000</speed>
</trkpt>
<trkpt lat="55.704273" lon="26.086294">
<ele>123.100647</ele>
<time>2010-07-17T19:27:48Z</time>
<desc>lat.=55.704273, lon.=26.086294, Alt.=123.100647m. Speed=0.072000m/h.</desc>
<speed>0.020000</speed>
</trkpt>
<trkpt lat="55.704273" lon="26.086294">
<ele>123.116272</ele>
<time>2010-07-17T19:27:49Z</time>
<desc>lat.=55.704273, lon.=26.086294, Alt.=123.116272m. Speed=0.000000m/h.</desc>
<speed>0.000000</speed>
</trkpt>
<trkpt lat="55.704273" lon="26.086294">
<ele>123.145569</ele>
<time>2010-07-17T19:27:50Z</time>
<desc>lat.=55.704273, lon.=26.086294, Alt.=123.145569m. Speed=0.072000m/h.</desc>
<speed>0.020000</speed>
</trkpt>
<trkpt lat="55.704273" lon="26.086294">
<ele>123.169006</ele>
<time>2010-07-17T19:27:51Z</time>
<desc>lat.=55.704273, lon.=26.086294, Alt.=123.169006m. Speed=0.036000m/h.</desc>
<speed>0.010000</speed>
</trkpt>
<trkpt lat="55.704273" lon="26.086294">
<ele>123.192444</ele>
<time>2010-07-17T19:27:52Z</time>
<desc>lat.=55.704273, lon.=26.086294, Alt.=123.192444m. Speed=0.072000m/h.</desc>
<speed>0.020000</speed>
</trkpt>
<trkpt lat="55.704273" lon="26.086294">
<ele>123.206116</ele>
<time>2010-07-17T19:27:53Z</time>
<desc>lat.=55.704273, lon.=26.086294, Alt.=123.206116m. Speed=0.000000m/h.</desc>
<speed>0.000000</speed>
</trkpt>
<trkpt lat="55.704273" lon="26.086294">
<ele>123.223694</ele>
<time>2010-07-17T19:27:54Z</time>
<desc>lat.=55.704273, lon.=26.086294, Alt.=123.223694m. Speed=0.072000m/h.</desc>
<speed>0.020000</speed>
</trkpt>
<trkpt lat="55.704273" lon="26.086294">
<ele>123.227600</ele>
<time>2010-07-17T19:27:55Z</time>
<desc>lat.=55.704273, lon.=26.086294, Alt.=123.227600m. Speed=0.036000m/h.</desc>
<speed>0.010000</speed>
</trkpt>
<trkpt lat="55.704273" lon="26.086294">
<ele>123.239319</ele>
<time>2010-07-17T19:27:56Z</time>
<desc>lat.=55.704273, lon.=26.086294, Alt.=123.239319m. Speed=0.036000m/h.</desc>
<speed>0.010000</speed>
</trkpt>
<trkpt lat="55.704273" lon="26.086294">
<ele>123.258850</ele>
<time>2010-07-17T19:27:57Z</time>
<desc>lat.=55.704273, lon.=26.086294, Alt.=123.258850m. Speed=0.072000m/h.</desc>
<speed>0.020000</speed>
</trkpt>
<trkpt lat="55.704273" lon="26.086294">
<ele>123.274475</ele>
<time>2010-07-17T19:27:58Z</time>
<desc>lat.=55.704273, lon.=26.086294, Alt.=123.274475m. Speed=0.072000m/h.</desc>
<speed>0.020000</speed>
</trkpt>
<trkpt lat="55.704273" lon="26.086294">
<ele>123.286194</ele>
<time>2010-07-17T19:27:59Z</time>
<desc>lat.=55.704273, lon.=26.086294, Alt.=123.286194m. Speed=0.072000m/h.</desc>
<speed>0.020000</speed>
</trkpt>
<trkpt lat="55.704273" lon="26.086294">
<ele>123.301819</ele>
<time>2010-07-17T19:28:00Z</time>
<desc>lat.=55.704273, lon.=26.086294, Alt.=123.301819m. Speed=0.036000m/h.</desc>
<speed>0.010000</speed>
</trkpt>
<trkpt lat="55.704273" lon="26.086294">
<ele>123.313538</ele>
<time>2010-07-17T19:28:01Z</time>
<desc>lat.=55.704273, lon.=26.086294, Alt.=123.313538m. Speed=0.072000m/h.</desc>
<speed>0.020000</speed>
</trkpt>
<trkpt lat="55.704273" lon="26.086296">
<ele>123.325256</ele>
<time>2010-07-17T19:28:02Z</time>
<desc>lat.=55.704273, lon.=26.086296, Alt.=123.325256m. Speed=0.072000m/h.</desc>
<speed>0.020000</speed>
</trkpt>
<trkpt lat="55.704273" lon="26.086296">
<ele>123.344788</ele>
<time>2010-07-17T19:28:03Z</time>
<desc>lat.=55.704273, lon.=26.086296, Alt.=123.344788m. Speed=0.072000m/h.</desc>
<speed>0.020000</speed>
</trkpt>
<trkpt lat="55.704273" lon="26.086296">
<ele>123.360413</ele>
<time>2010-07-17T19:28:04Z</time>
<desc>lat.=55.704273, lon.=26.086296, Alt.=123.360413m. Speed=0.036000m/h.</desc>
<speed>0.010000</speed>
</trkpt>
<trkpt lat="55.704273" lon="26.086296">
<ele>123.370178</ele>
<time>2010-07-17T19:28:05Z</time>
<desc>lat.=55.704273, lon.=26.086296, Alt.=123.370178m. Speed=0.036000m/h.</desc>
<speed>0.010000</speed>
</trkpt>
<trkpt lat="55.704273" lon="26.086296">
<ele>123.381897</ele>
<time>2010-07-17T19:28:06Z</time>
<desc>lat.=55.704273, lon.=26.086296, Alt.=123.381897m. Speed=0.036000m/h.</desc>
<speed>0.010000</speed>
</trkpt>
<trkpt lat="55.704273" lon="26.086296">
<ele>123.399475</ele>
<time>2010-07-17T19:28:07Z</time>
<desc>lat.=55.704273, lon.=26.086296, Alt.=123.399475m. Speed=0.072000m/h.</desc>
<speed>0.020000</speed>
</trkpt>
<trkpt lat="55.704273" lon="26.086296">
<ele>123.413147</ele>
<time>2010-07-17T19:28:08Z</time>
<desc>lat.=55.704273, lon.=26.086296, Alt.=123.413147m. Speed=0.108000m/h.</desc>
<speed>0.030000</speed>
</trkpt>
<trkpt lat="55.704273" lon="26.086296">
<ele>123.424866</ele>
<time>2010-07-17T19:28:09Z</time>
<desc>lat.=55.704273, lon.=26.086296, Alt.=123.424866m. Speed=0.036000m/h.</desc>
<speed>0.010000</speed>
</trkpt>
<trkpt lat="55.704273" lon="26.086296">
<ele>123.434631</ele>
<time>2010-07-17T19:28:10Z</time>
<desc>lat.=55.704273, lon.=26.086296, Alt.=123.434631m. Speed=0.036000m/h.</desc>
<speed>0.010000</speed>
</trkpt>
<trkpt lat="55.704273" lon="26.086296">
<ele>123.442444</ele>
<time>2010-07-17T19:28:11Z</time>
<desc>lat.=55.704273, lon.=26.086296, Alt.=123.442444m. Speed=0.000000m/h.</desc>
<speed>0.000000</speed>
</trkpt>
<trkpt lat="55.704273" lon="26.086296">
<ele>123.456116</ele>
<time>2010-07-17T19:28:12Z</time>
<desc>lat.=55.704273, lon.=26.086296, Alt.=123.456116m. Speed=0.036000m/h.</desc>
<speed>0.010000</speed>
</trkpt>
<trkpt lat="55.704273" lon="26.086296">
<ele>123.469788</ele>
<time>2010-07-17T19:28:13Z</time>
<desc>lat.=55.704273, lon.=26.086296, Alt.=123.469788m. Speed=0.072000m/h.</desc>
<speed>0.020000</speed>
</trkpt>
<trkpt lat="55.704273" lon="26.086296">
<ele>123.473694</ele>
<time>2010-07-17T19:28:14Z</time>
<desc>lat.=55.704273, lon.=26.086296, Alt.=123.473694m. Speed=0.072000m/h.</desc>
<speed>0.020000</speed>
</trkpt>
<trkpt lat="55.704273" lon="26.086296">
<ele>123.479553</ele>
<time>2010-07-17T19:28:15Z</time>
<desc>lat.=55.704273, lon.=26.086296, Alt.=123.479553m. Speed=0.108000m/h.</desc>
<speed>0.030000</speed>
</trkpt>
<trkpt lat="55.704273" lon="26.086296">
<ele>123.491272</ele>
<time>2010-07-17T19:28:16Z</time>
<desc>lat.=55.704273, lon.=26.086296, Alt.=123.491272m. Speed=0.000000m/h.</desc>
<speed>0.000000</speed>
</trkpt>
<trkpt lat="55.704273" lon="26.086296">
<ele>123.506897</ele>
<time>2010-07-17T19:28:17Z</time>
<desc>lat.=55.704273, lon.=26.086296, Alt.=123.506897m. Speed=0.072000m/h.</desc>
<speed>0.020000</speed>
</trkpt>
<trkpt lat="55.704273" lon="26.086296">
<ele>123.522522</ele>
<time>2010-07-17T19:28:18Z</time>
<desc>lat.=55.704273, lon.=26.086296, Alt.=123.522522m. Speed=0.072000m/h.</desc>
<speed>0.020000</speed>
</trkpt>
<trkpt lat="55.704273" lon="26.086296">
<ele>123.530334</ele>
<time>2010-07-17T19:28:19Z</time>
<desc>lat.=55.704273, lon.=26.086296, Alt.=123.530334m. Speed=0.072000m/h.</desc>
<speed>0.020000</speed>
</trkpt>
<trkpt lat="55.704273" lon="26.086296">
<ele>123.544006</ele>
<time>2010-07-17T19:28:20Z</time>
<desc>lat.=55.704273, lon.=26.086296, Alt.=123.544006m. Speed=0.036000m/h.</desc>
<speed>0.010000</speed>
</trkpt>
<trkpt lat="55.704273" lon="26.086296">
<ele>123.559631</ele>
<time>2010-07-17T19:28:21Z</time>
<desc>lat.=55.704273, lon.=26.086296, Alt.=123.559631m. Speed=0.108000m/h.</desc>
<speed>0.030000</speed>
</trkpt>
<trkpt lat="55.704273" lon="26.086298">
<ele>123.577209</ele>
<time>2010-07-17T19:28:22Z</time>
<desc>lat.=55.704273, lon.=26.086298, Alt.=123.577209m. Speed=0.000000m/h.</desc>
<speed>0.000000</speed>
</trkpt>
<trkpt lat="55.704273" lon="26.086298">
<ele>123.590881</ele>
<time>2010-07-17T19:28:23Z</time>
<desc>lat.=55.704273, lon.=26.086298, Alt.=123.590881m. Speed=0.036000m/h.</desc>
<speed>0.010000</speed>
</trkpt>
<trkpt lat="55.704273" lon="26.086298">
<ele>123.604553</ele>
<time>2010-07-17T19:28:24Z</time>
<desc>lat.=55.704273, lon.=26.086298, Alt.=123.604553m. Speed=0.036000m/h.</desc>
<speed>0.010000</speed>
</trkpt>
<trkpt lat="55.704273" lon="26.086298">
<ele>123.614319</ele>
<time>2010-07-17T19:28:25Z</time>
<desc>lat.=55.704273, lon.=26.086298, Alt.=123.614319m. Speed=0.000000m/h.</desc>
<speed>0.000000</speed>
</trkpt>
<trkpt lat="55.704273" lon="26.086298">
<ele>123.627991</ele>
<time>2010-07-17T19:28:26Z</time>
<desc>lat.=55.704273, lon.=26.086298, Alt.=123.627991m. Speed=0.036000m/h.</desc>
<speed>0.010000</speed>
</trkpt>
<trkpt lat="55.704273" lon="26.086298">
<ele>123.631897</ele>
<time>2010-07-17T19:28:27Z</time>
<desc>lat.=55.704273, lon.=26.086298, Alt.=123.631897m. Speed=0.072000m/h.</desc>
<speed>0.020000</speed>
</trkpt>
<trkpt lat="55.704273" lon="26.086298">
<ele>123.647522</ele>
<time>2010-07-17T19:28:28Z</time>
<desc>lat.=55.704273, lon.=26.086298, Alt.=123.647522m. Speed=0.108000m/h.</desc>
<speed>0.030000</speed>
</trkpt>
<trkpt lat="55.704273" lon="26.086298">
<ele>123.663147</ele>
<time>2010-07-17T19:28:29Z</time>
<desc>lat.=55.704273, lon.=26.086298, Alt.=123.663147m. Speed=0.072000m/h.</desc>
<speed>0.020000</speed>
</trkpt>
<trkpt lat="55.704273" lon="26.086298">
<ele>123.667053</ele>
<time>2010-07-17T19:28:30Z</time>
<desc>lat.=55.704273, lon.=26.086298, Alt.=123.667053m. Speed=0.000000m/h.</desc>
<speed>0.000000</speed>
</trkpt>
<trkpt lat="55.704273" lon="26.086298">
<ele>123.672913</ele>
<time>2010-07-17T19:28:31Z</time>
<desc>lat.=55.704273, lon.=26.086298, Alt.=123.672913m. Speed=0.036000m/h.</desc>
<speed>0.010000</speed>
</trkpt>
<trkpt lat="55.704273" lon="26.086298">
<ele>123.672913</ele>
<time>2010-07-17T19:28:32Z</time>
<desc>lat.=55.704273, lon.=26.086298, Alt.=123.672913m. Speed=0.036000m/h.</desc>
<speed>0.010000</speed>
</trkpt>
<trkpt lat="55.704273" lon="26.086298">
<ele>123.670959</ele>
<time>2010-07-17T19:28:33Z</time>
<desc>lat.=55.704273, lon.=26.086298, Alt.=123.670959m. Speed=0.036000m/h.</desc>
<speed>0.010000</speed>
</trkpt>
<trkpt lat="55.704273" lon="26.086298">
<ele>123.672913</ele>
<time>2010-07-17T19:28:34Z</time>
<desc>lat.=55.704273, lon.=26.086298, Alt.=123.672913m. Speed=0.036000m/h.</desc>
<speed>0.010000</speed>
</trkpt>
<trkpt lat="55.704273" lon="26.086298">
<ele>123.674866</ele>
<time>2010-07-17T19:28:35Z</time>
<desc>lat.=55.704273, lon.=26.086298, Alt.=123.674866m. Speed=0.108000m/h.</desc>
<speed>0.030000</speed>
</trkpt>
<trkpt lat="55.704273" lon="26.086298">
<ele>123.678772</ele>
<time>2010-07-17T19:28:36Z</time>
<desc>lat.=55.704273, lon.=26.086298, Alt.=123.678772m. Speed=0.108000m/h.</desc>
<speed>0.030000</speed>
</trkpt>
<trkpt lat="55.704273" lon="26.086298">
<ele>123.684631</ele>
<time>2010-07-17T19:28:37Z</time>
<desc>lat.=55.704273, lon.=26.086298, Alt.=123.684631m. Speed=0.072000m/h.</desc>
<speed>0.020000</speed>
</trkpt>
<trkpt lat="55.704273" lon="26.086298">
<ele>123.692444</ele>
<time>2010-07-17T19:28:38Z</time>
<desc>lat.=55.704273, lon.=26.086298, Alt.=123.692444m. Speed=0.036000m/h.</desc>
<speed>0.010000</speed>
</trkpt>
<trkpt lat="55.704273" lon="26.086298">
<ele>123.698303</ele>
<time>2010-07-17T19:28:39Z</time>
<desc>lat.=55.704273, lon.=26.086298, Alt.=123.698303m. Speed=0.036000m/h.</desc>
<speed>0.010000</speed>
</trkpt>
<trkpt lat="55.704273" lon="26.086300">
<ele>123.698303</ele>
<time>2010-07-17T19:28:40Z</time>
<desc>lat.=55.704273, lon.=26.086300, Alt.=123.698303m. Speed=0.144000m/h.</desc>
<speed>0.040000</speed>
</trkpt>
<trkpt lat="55.704273" lon="26.086300">
<ele>123.702209</ele>
<time>2010-07-17T19:28:41Z</time>
<desc>lat.=55.704273, lon.=26.086300, Alt.=123.702209m. Speed=0.108000m/h.</desc>
<speed>0.030000</speed>
</trkpt>
<trkpt lat="55.704273" lon="26.086300">
<ele>123.706116</ele>
<time>2010-07-17T19:28:42Z</time>
<desc>lat.=55.704273, lon.=26.086300, Alt.=123.706116m. Speed=0.108000m/h.</desc>
<speed>0.030000</speed>
</trkpt>
<trkpt lat="55.704273" lon="26.086300">
<ele>123.715881</ele>
<time>2010-07-17T19:28:43Z</time>
<desc>lat.=55.704273, lon.=26.086300, Alt.=123.715881m. Speed=0.072000m/h.</desc>
<speed>0.020000</speed>
</trkpt>
<trkpt lat="55.704273" lon="26.086300">
<ele>123.731506</ele>
<time>2010-07-17T19:28:44Z</time>
<desc>lat.=55.704273, lon.=26.086300, Alt.=123.731506m. Speed=0.072000m/h.</desc>
<speed>0.020000</speed>
</trkpt>
<trkpt lat="55.704273" lon="26.086300">
<ele>123.743225</ele>
<time>2010-07-17T19:28:45Z</time>
<desc>lat.=55.704273, lon.=26.086300, Alt.=123.743225m. Speed=0.144000m/h.</desc>
<speed>0.040000</speed>
</trkpt>
<trkpt lat="55.704273" lon="26.086300">
<ele>123.756897</ele>
<time>2010-07-17T19:28:46Z</time>
<desc>lat.=55.704273, lon.=26.086300, Alt.=123.756897m. Speed=0.072000m/h.</desc>
<speed>0.020000</speed>
</trkpt>
<trkpt lat="55.704273" lon="26.086300">
<ele>123.772522</ele>
<time>2010-07-17T19:28:47Z</time>
<desc>lat.=55.704273, lon.=26.086300, Alt.=123.772522m. Speed=0.072000m/h.</desc>
<speed>0.020000</speed>
</trkpt>
<trkpt lat="55.704277" lon="26.086300">
<ele>123.784241</ele>
<time>2010-07-17T19:28:48Z</time>
<desc>lat.=55.704277, lon.=26.086300, Alt.=123.784241m. Speed=0.072000m/h.</desc>
<speed>0.020000</speed>
</trkpt>
<trkpt lat="55.704277" lon="26.086300">
<ele>123.797913</ele>
<time>2010-07-17T19:28:49Z</time>
<desc>lat.=55.704277, lon.=26.086300, Alt.=123.797913m. Speed=0.072000m/h.</desc>
<speed>0.020000</speed>
</trkpt>
<trkpt lat="55.704277" lon="26.086300">
<ele>123.801819</ele>
<time>2010-07-17T19:28:50Z</time>
<desc>lat.=55.704277, lon.=26.086300, Alt.=123.801819m. Speed=0.072000m/h.</desc>
<speed>0.020000</speed>
</trkpt>
<trkpt lat="55.704277" lon="26.086300">
<ele>123.819397</ele>
<time>2010-07-17T19:28:51Z</time>
<desc>lat.=55.704277, lon.=26.086300, Alt.=123.819397m. Speed=0.072000m/h.</desc>
<speed>0.020000</speed>
</trkpt>
<trkpt lat="55.704277" lon="26.086300">
<ele>123.827209</ele>
<time>2010-07-17T19:28:52Z</time>
<desc>lat.=55.704277, lon.=26.086300, Alt.=123.827209m. Speed=0.036000m/h.</desc>
<speed>0.010000</speed>
</trkpt>
<trkpt lat="55.704277" lon="26.086300">
<ele>123.831116</ele>
<time>2010-07-17T19:28:53Z</time>
<desc>lat.=55.704277, lon.=26.086300, Alt.=123.831116m. Speed=0.036000m/h.</desc>
<speed>0.010000</speed>
</trkpt>
<trkpt lat="55.704277" lon="26.086300">
<ele>123.848694</ele>
<time>2010-07-17T19:28:54Z</time>
<desc>lat.=55.704277, lon.=26.086300, Alt.=123.848694m. Speed=0.072000m/h.</desc>
<speed>0.020000</speed>
</trkpt>
<trkpt lat="55.704277" lon="26.086300">
<ele>123.868225</ele>
<time>2010-07-17T19:28:55Z</time>
<desc>lat.=55.704277, lon.=26.086300, Alt.=123.868225m. Speed=0.072000m/h.</desc>
<speed>0.020000</speed>
</trkpt>
<trkpt lat="55.704277" lon="26.086300">
<ele>123.877991</ele>
<time>2010-07-17T19:28:56Z</time>
<desc>lat.=55.704277, lon.=26.086300, Alt.=123.877991m. Speed=0.072000m/h.</desc>
<speed>0.020000</speed>
</trkpt>
<trkpt lat="55.704277" lon="26.086300">
<ele>123.887756</ele>
<time>2010-07-17T19:28:57Z</time>
<desc>lat.=55.704277, lon.=26.086300, Alt.=123.887756m. Speed=0.036000m/h.</desc>
<speed>0.010000</speed>
</trkpt>
<trkpt lat="55.704277" lon="26.086300">
<ele>123.897522</ele>
<time>2010-07-17T19:28:58Z</time>
<desc>lat.=55.704277, lon.=26.086300, Alt.=123.897522m. Speed=0.036000m/h.</desc>
<speed>0.010000</speed>
</trkpt>
<trkpt lat="55.704277" lon="26.086300">
<ele>123.915100</ele>
<time>2010-07-17T19:28:59Z</time>
<desc>lat.=55.704277, lon.=26.086300, Alt.=123.915100m. Speed=0.072000m/h.</desc>
<speed>0.020000</speed>
</trkpt>
<trkpt lat="55.704277" lon="26.086300">
<ele>123.926819</ele>
<time>2010-07-17T19:29:00Z</time>
<desc>lat.=55.704277, lon.=26.086300, Alt.=123.926819m. Speed=0.144000m/h.</desc>
<speed>0.040000</speed>
</trkpt>
<trkpt lat="55.704277" lon="26.086300">
<ele>123.950256</ele>
<time>2010-07-17T19:29:01Z</time>
<desc>lat.=55.704277, lon.=26.086300, Alt.=123.950256m. Speed=0.036000m/h.</desc>
<speed>0.010000</speed>
</trkpt>
<trkpt lat="55.704277" lon="26.086300">
<ele>123.969788</ele>
<time>2010-07-17T19:29:02Z</time>
<desc>lat.=55.704277, lon.=26.086300, Alt.=123.969788m. Speed=0.036000m/h.</desc>
<speed>0.010000</speed>
</trkpt>
<trkpt lat="55.704277" lon="26.086302">
<ele>123.993225</ele>
<time>2010-07-17T19:29:03Z</time>
<desc>lat.=55.704277, lon.=26.086302, Alt.=123.993225m. Speed=0.000000m/h.</desc>
<speed>0.000000</speed>
</trkpt>
<trkpt lat="55.704277" lon="26.086302">
<ele>124.006897</ele>
<time>2010-07-17T19:29:04Z</time>
<desc>lat.=55.704277, lon.=26.086302, Alt.=124.006897m. Speed=0.036000m/h.</desc>
<speed>0.010000</speed>
</trkpt>
<trkpt lat="55.704277" lon="26.086302">
<ele>124.012756</ele>
<time>2010-07-17T19:29:05Z</time>
<desc>lat.=55.704277, lon.=26.086302, Alt.=124.012756m. Speed=0.108000m/h.</desc>
<speed>0.030000</speed>
</trkpt>
<trkpt lat="55.704277" lon="26.086302">
<ele>124.032288</ele>
<time>2010-07-17T19:29:06Z</time>
<desc>lat.=55.704277, lon.=26.086302, Alt.=124.032288m. Speed=0.036000m/h.</desc>
<speed>0.010000</speed>
</trkpt>
<trkpt lat="55.704277" lon="26.086302">
<ele>124.055725</ele>
<time>2010-07-17T19:29:07Z</time>
<desc>lat.=55.704277, lon.=26.086302, Alt.=124.055725m. Speed=0.036000m/h.</desc>
<speed>0.010000</speed>
</trkpt>
<trkpt lat="55.704277" lon="26.086302">
<ele>124.077209</ele>
<time>2010-07-17T19:29:08Z</time>
<desc>lat.=55.704277, lon.=26.086302, Alt.=124.077209m. Speed=0.072000m/h.</desc>
<speed>0.020000</speed>
</trkpt>
<trkpt lat="55.704277" lon="26.086302">
<ele>124.108459</ele>
<time>2010-07-17T19:29:09Z</time>
<desc>lat.=55.704277, lon.=26.086302, Alt.=124.108459m. Speed=0.036000m/h.</desc>
<speed>0.010000</speed>
</trkpt>
<trkpt lat="55.704277" lon="26.086302">
<ele>124.116272</ele>
<time>2010-07-17T19:29:10Z</time>
<desc>lat.=55.704277, lon.=26.086302, Alt.=124.116272m. Speed=0.000000m/h.</desc>
<speed>0.000000</speed>
</trkpt>
<trkpt lat="55.704277" lon="26.086302">
<ele>124.133850</ele>
<time>2010-07-17T19:29:11Z</time>
<desc>lat.=55.704277, lon.=26.086302, Alt.=124.133850m. Speed=0.072000m/h.</desc>
<speed>0.020000</speed>
</trkpt>
<trkpt lat="55.704277" lon="26.086302">
<ele>124.157288</ele>
<time>2010-07-17T19:29:12Z</time>
<desc>lat.=55.704277, lon.=26.086302, Alt.=124.157288m. Speed=0.072000m/h.</desc>
<speed>0.020000</speed>
</trkpt>
<trkpt lat="55.704277" lon="26.086302">
<ele>124.178772</ele>
<time>2010-07-17T19:29:13Z</time>
<desc>lat.=55.704277, lon.=26.086302, Alt.=124.178772m. Speed=0.108000m/h.</desc>
<speed>0.030000</speed>
</trkpt>
<trkpt lat="55.704277" lon="26.086302">
<ele>124.194397</ele>
<time>2010-07-17T19:29:14Z</time>
<desc>lat.=55.704277, lon.=26.086302, Alt.=124.194397m. Speed=0.036000m/h.</desc>
<speed>0.010000</speed>
</trkpt>
<trkpt lat="55.704277" lon="26.086302">
<ele>124.221741</ele>
<time>2010-07-17T19:29:15Z</time>
<desc>lat.=55.704277, lon.=26.086302, Alt.=124.221741m. Speed=0.036000m/h.</desc>
<speed>0.010000</speed>
</trkpt>
<trkpt lat="55.704277" lon="26.086302">
<ele>124.235413</ele>
<time>2010-07-17T19:29:16Z</time>
<desc>lat.=55.704277, lon.=26.086302, Alt.=124.235413m. Speed=0.036000m/h.</desc>
<speed>0.010000</speed>
</trkpt>
<trkpt lat="55.704277" lon="26.086302">
<ele>124.251038</ele>
<time>2010-07-17T19:29:17Z</time>
<desc>lat.=55.704277, lon.=26.086302, Alt.=124.251038m. Speed=0.144000m/h.</desc>
<speed>0.040000</speed>
</trkpt>
<trkpt lat="55.704277" lon="26.086304">
<ele>124.270569</ele>
<time>2010-07-17T19:29:18Z</time>
<desc>lat.=55.704277, lon.=26.086304, Alt.=124.270569m. Speed=0.144000m/h.</desc>
<speed>0.040000</speed>
</trkpt>
<trkpt lat="55.704277" lon="26.086304">
<ele>124.288147</ele>
<time>2010-07-17T19:29:19Z</time>
<desc>lat.=55.704277, lon.=26.086304, Alt.=124.288147m. Speed=0.036000m/h.</desc>
<speed>0.010000</speed>
</trkpt>
<trkpt lat="55.704277" lon="26.086304">
<ele>124.315491</ele>
<time>2010-07-17T19:29:20Z</time>
<desc>lat.=55.704277, lon.=26.086304, Alt.=124.315491m. Speed=0.036000m/h.</desc>
<speed>0.010000</speed>
</trkpt>
<trkpt lat="55.704277" lon="26.086304">
<ele>124.336975</ele>
<time>2010-07-17T19:29:21Z</time>
<desc>lat.=55.704277, lon.=26.086304, Alt.=124.336975m. Speed=0.072000m/h.</desc>
<speed>0.020000</speed>
</trkpt>
<trkpt lat="55.704277" lon="26.086304">
<ele>124.354553</ele>
<time>2010-07-17T19:29:22Z</time>
<desc>lat.=55.704277, lon.=26.086304, Alt.=124.354553m. Speed=0.036000m/h.</desc>
<speed>0.010000</speed>
</trkpt>
<trkpt lat="55.704277" lon="26.086304">
<ele>124.376038</ele>
<time>2010-07-17T19:29:23Z</time>
<desc>lat.=55.704277, lon.=26.086304, Alt.=124.376038m. Speed=0.036000m/h.</desc>
<speed>0.010000</speed>
</trkpt>
<trkpt lat="55.704277" lon="26.086304">
<ele>124.395569</ele>
<time>2010-07-17T19:29:24Z</time>
<desc>lat.=55.704277, lon.=26.086304, Alt.=124.395569m. Speed=0.108000m/h.</desc>
<speed>0.030000</speed>
</trkpt>
<trkpt lat="55.704277" lon="26.086304">
<ele>124.424866</ele>
<time>2010-07-17T19:29:25Z</time>
<desc>lat.=55.704277, lon.=26.086304, Alt.=124.424866m. Speed=0.144000m/h.</desc>
<speed>0.040000</speed>
</trkpt>
<trkpt lat="55.704277" lon="26.086304">
<ele>124.456116</ele>
<time>2010-07-17T19:29:26Z</time>
<desc>lat.=55.704277, lon.=26.086304, Alt.=124.456116m. Speed=0.108000m/h.</desc>
<speed>0.030000</speed>
</trkpt>
<trkpt lat="55.704277" lon="26.086304">
<ele>124.479553</ele>
<time>2010-07-17T19:29:27Z</time>
<desc>lat.=55.704277, lon.=26.086304, Alt.=124.479553m. Speed=0.108000m/h.</desc>
<speed>0.030000</speed>
</trkpt>
<trkpt lat="55.704277" lon="26.086304">
<ele>124.506897</ele>
<time>2010-07-17T19:29:28Z</time>
<desc>lat.=55.704277, lon.=26.086304, Alt.=124.506897m. Speed=0.144000m/h.</desc>
<speed>0.040000</speed>
</trkpt>
<trkpt lat="55.704277" lon="26.086306">
<ele>124.532288</ele>
<time>2010-07-17T19:29:29Z</time>
<desc>lat.=55.704277, lon.=26.086306, Alt.=124.532288m. Speed=0.144000m/h.</desc>
<speed>0.040000</speed>
</trkpt>
<trkpt lat="55.704277" lon="26.086306">
<ele>124.561584</ele>
<time>2010-07-17T19:29:30Z</time>
<desc>lat.=55.704277, lon.=26.086306, Alt.=124.561584m. Speed=0.144000m/h.</desc>
<speed>0.040000</speed>
</trkpt>
<trkpt lat="55.704277" lon="26.086306">
<ele>124.585022</ele>
<time>2010-07-17T19:29:31Z</time>
<desc>lat.=55.704277, lon.=26.086306, Alt.=124.585022m. Speed=0.144000m/h.</desc>
<speed>0.040000</speed>
</trkpt>
<trkpt lat="55.704277" lon="26.086306">
<ele>124.590881</ele>
<time>2010-07-17T19:29:32Z</time>
<desc>lat.=55.704277, lon.=26.086306, Alt.=124.590881m. Speed=0.216000m/h.</desc>
<speed>0.060000</speed>
</trkpt>
<trkpt lat="55.704277" lon="26.086306">
<ele>124.608459</ele>
<time>2010-07-17T19:29:33Z</time>
<desc>lat.=55.704277, lon.=26.086306, Alt.=124.608459m. Speed=0.180000m/h.</desc>
<speed>0.050000</speed>
</trkpt>
<trkpt lat="55.704277" lon="26.086306">
<ele>124.626038</ele>
<time>2010-07-17T19:29:34Z</time>
<desc>lat.=55.704277, lon.=26.086306, Alt.=124.626038m. Speed=0.180000m/h.</desc>
<speed>0.050000</speed>
</trkpt>
<trkpt lat="55.704277" lon="26.086306">
<ele>124.643616</ele>
<time>2010-07-17T19:29:35Z</time>
<desc>lat.=55.704277, lon.=26.086306, Alt.=124.643616m. Speed=0.108000m/h.</desc>
<speed>0.030000</speed>
</trkpt>
<trkpt lat="55.704277" lon="26.086308">
<ele>124.665100</ele>
<time>2010-07-17T19:29:36Z</time>
<desc>lat.=55.704277, lon.=26.086308, Alt.=124.665100m. Speed=0.108000m/h.</desc>
<speed>0.030000</speed>
</trkpt>
<trkpt lat="55.704277" lon="26.086308">
<ele>124.698303</ele>
<time>2010-07-17T19:29:37Z</time>
<desc>lat.=55.704277, lon.=26.086308, Alt.=124.698303m. Speed=0.036000m/h.</desc>
<speed>0.010000</speed>
</trkpt>
<trkpt lat="55.704281" lon="26.086308">
<ele>124.743225</ele>
<time>2010-07-17T19:29:38Z</time>
<desc>lat.=55.704281, lon.=26.086308, Alt.=124.743225m. Speed=0.036000m/h.</desc>
<speed>0.010000</speed>
</trkpt>
<trkpt lat="55.704281" lon="26.086308">
<ele>124.768616</ele>
<time>2010-07-17T19:29:39Z</time>
<desc>lat.=55.704281, lon.=26.086308, Alt.=124.768616m. Speed=0.036000m/h.</desc>
<speed>0.010000</speed>
</trkpt>
<trkpt lat="55.704281" lon="26.086308">
<ele>124.790100</ele>
<time>2010-07-17T19:29:40Z</time>
<desc>lat.=55.704281, lon.=26.086308, Alt.=124.790100m. Speed=0.108000m/h.</desc>
<speed>0.030000</speed>
</trkpt>
<trkpt lat="55.704281" lon="26.086308">
<ele>124.815491</ele>
<time>2010-07-17T19:29:41Z</time>
<desc>lat.=55.704281, lon.=26.086308, Alt.=124.815491m. Speed=0.180000m/h.</desc>
<speed>0.050000</speed>
</trkpt>
<trkpt lat="55.704281" lon="26.086308">
<ele>124.831116</ele>
<time>2010-07-17T19:29:42Z</time>
<desc>lat.=55.704281, lon.=26.086308, Alt.=124.831116m. Speed=0.072000m/h.</desc>
<speed>0.020000</speed>
</trkpt>
<trkpt lat="55.704281" lon="26.086308">
<ele>124.842834</ele>
<time>2010-07-17T19:29:43Z</time>
<desc>lat.=55.704281, lon.=26.086308, Alt.=124.842834m. Speed=0.072000m/h.</desc>
<speed>0.020000</speed>
</trkpt>
<trkpt lat="55.704281" lon="26.086308">
<ele>124.848694</ele>
<time>2010-07-17T19:29:44Z</time>
<desc>lat.=55.704281, lon.=26.086308, Alt.=124.848694m. Speed=0.108000m/h.</desc>
<speed>0.030000</speed>
</trkpt>
<trkpt lat="55.704281" lon="26.086309">
<ele>124.856506</ele>
<time>2010-07-17T19:29:45Z</time>
<desc>lat.=55.704281, lon.=26.086309, Alt.=124.856506m. Speed=0.108000m/h.</desc>
<speed>0.030000</speed>
</trkpt>
<trkpt lat="55.704281" lon="26.086309">
<ele>124.864319</ele>
<time>2010-07-17T19:29:46Z</time>
<desc>lat.=55.704281, lon.=26.086309, Alt.=124.864319m. Speed=0.072000m/h.</desc>
<speed>0.020000</speed>
</trkpt>
<trkpt lat="55.704281" lon="26.086309">
<ele>124.881897</ele>
<time>2010-07-17T19:29:47Z</time>
<desc>lat.=55.704281, lon.=26.086309, Alt.=124.881897m. Speed=0.072000m/h.</desc>
<speed>0.020000</speed>
</trkpt>
<trkpt lat="55.704281" lon="26.086309">
<ele>124.911194</ele>
<time>2010-07-17T19:29:48Z</time>
<desc>lat.=55.704281, lon.=26.086309, Alt.=124.911194m. Speed=0.108000m/h.</desc>
<speed>0.030000</speed>
</trkpt>
<trkpt lat="55.704281" lon="26.086309">
<ele>124.930725</ele>
<time>2010-07-17T19:29:49Z</time>
<desc>lat.=55.704281, lon.=26.086309, Alt.=124.930725m. Speed=0.108000m/h.</desc>
<speed>0.030000</speed>
</trkpt>
<trkpt lat="55.704281" lon="26.086309">
<ele>124.948303</ele>
<time>2010-07-17T19:29:50Z</time>
<desc>lat.=55.704281, lon.=26.086309, Alt.=124.948303m. Speed=0.072000m/h.</desc>
<speed>0.020000</speed>
</trkpt>
<trkpt lat="55.704281" lon="26.086309">
<ele>124.967834</ele>
<time>2010-07-17T19:29:51Z</time>
<desc>lat.=55.704281, lon.=26.086309, Alt.=124.967834m. Speed=0.072000m/h.</desc>
<speed>0.020000</speed>
</trkpt>
<trkpt lat="55.704281" lon="26.086309">
<ele>124.975647</ele>
<time>2010-07-17T19:29:52Z</time>
<desc>lat.=55.704281, lon.=26.086309, Alt.=124.975647m. Speed=0.072000m/h.</desc>
<speed>0.020000</speed>
</trkpt>
<trkpt lat="55.704281" lon="26.086309">
<ele>124.985413</ele>
<time>2010-07-17T19:29:53Z</time>
<desc>lat.=55.704281, lon.=26.086309, Alt.=124.985413m. Speed=0.036000m/h.</desc>
<speed>0.010000</speed>
</trkpt>
<trkpt lat="55.704281" lon="26.086309">
<ele>124.995178</ele>
<time>2010-07-17T19:29:54Z</time>
<desc>lat.=55.704281, lon.=26.086309, Alt.=124.995178m. Speed=0.108000m/h.</desc>
<speed>0.030000</speed>
</trkpt>
<trkpt lat="55.704281" lon="26.086309">
<ele>125.004944</ele>
<time>2010-07-17T19:29:55Z</time>
<desc>lat.=55.704281, lon.=26.086309, Alt.=125.004944m. Speed=0.036000m/h.</desc>
<speed>0.010000</speed>
</trkpt>
<trkpt lat="55.704281" lon="26.086309">
<ele>125.014709</ele>
<time>2010-07-17T19:29:56Z</time>
<desc>lat.=55.704281, lon.=26.086309, Alt.=125.014709m. Speed=0.036000m/h.</desc>
<speed>0.010000</speed>
</trkpt>
<trkpt lat="55.704281" lon="26.086309">
<ele>125.020569</ele>
<time>2010-07-17T19:29:57Z</time>
<desc>lat.=55.704281, lon.=26.086309, Alt.=125.020569m. Speed=0.108000m/h.</desc>
<speed>0.030000</speed>
</trkpt>
<trkpt lat="55.704281" lon="26.086311">
<ele>125.034241</ele>
<time>2010-07-17T19:29:58Z</time>
<desc>lat.=55.704281, lon.=26.086311, Alt.=125.034241m. Speed=0.036000m/h.</desc>
<speed>0.010000</speed>
</trkpt>
<trkpt lat="55.704281" lon="26.086311">
<ele>125.040100</ele>
<time>2010-07-17T19:29:59Z</time>
<desc>lat.=55.704281, lon.=26.086311, Alt.=125.040100m. Speed=0.072000m/h.</desc>
<speed>0.020000</speed>
</trkpt>
<trkpt lat="55.704281" lon="26.086311">
<ele>125.047913</ele>
<time>2010-07-17T19:30:00Z</time>
<desc>lat.=55.704281, lon.=26.086311, Alt.=125.047913m. Speed=0.036000m/h.</desc>
<speed>0.010000</speed>
</trkpt>
<trkpt lat="55.704281" lon="26.086311">
<ele>125.053772</ele>
<time>2010-07-17T19:30:01Z</time>
<desc>lat.=55.704281, lon.=26.086311, Alt.=125.053772m. Speed=0.072000m/h.</desc>
<speed>0.020000</speed>
</trkpt>
<trkpt lat="55.704281" lon="26.086311">
<ele>125.063538</ele>
<time>2010-07-17T19:30:02Z</time>
<desc>lat.=55.704281, lon.=26.086311, Alt.=125.063538m. Speed=0.000000m/h.</desc>
<speed>0.000000</speed>
</trkpt>
<trkpt lat="55.704281" lon="26.086311">
<ele>125.069397</ele>
<time>2010-07-17T19:30:03Z</time>
<desc>lat.=55.704281, lon.=26.086311, Alt.=125.069397m. Speed=0.072000m/h.</desc>
<speed>0.020000</speed>
</trkpt>
<trkpt lat="55.704281" lon="26.086311">
<ele>125.069397</ele>
<time>2010-07-17T19:30:04Z</time>
<desc>lat.=55.704281, lon.=26.086311, Alt.=125.069397m. Speed=0.036000m/h.</desc>
<speed>0.010000</speed>
</trkpt>
<trkpt lat="55.704281" lon="26.086311">
<ele>125.073303</ele>
<time>2010-07-17T19:30:05Z</time>
<desc>lat.=55.704281, lon.=26.086311, Alt.=125.073303m. Speed=0.036000m/h.</desc>
<speed>0.010000</speed>
</trkpt>
<trkpt lat="55.704281" lon="26.086311">
<ele>125.073303</ele>
<time>2010-07-17T19:30:06Z</time>
<desc>lat.=55.704281, lon.=26.086311, Alt.=125.073303m. Speed=0.036000m/h.</desc>
<speed>0.010000</speed>
</trkpt>
<trkpt lat="55.704281" lon="26.086311">
<ele>125.075256</ele>
<time>2010-07-17T19:30:07Z</time>
<desc>lat.=55.704281, lon.=26.086311, Alt.=125.075256m. Speed=0.072000m/h.</desc>
<speed>0.020000</speed>
</trkpt>
<trkpt lat="55.704281" lon="26.086311">
<ele>125.083069</ele>
<time>2010-07-17T19:30:08Z</time>
<desc>lat.=55.704281, lon.=26.086311, Alt.=125.083069m. Speed=0.036000m/h.</desc>
<speed>0.010000</speed>
</trkpt>
<trkpt lat="55.704281" lon="26.086311">
<ele>125.090881</ele>
<time>2010-07-17T19:30:09Z</time>
<desc>lat.=55.704281, lon.=26.086311, Alt.=125.090881m. Speed=0.108000m/h.</desc>
<speed>0.030000</speed>
</trkpt>
<trkpt lat="55.704281" lon="26.086311">
<ele>125.102600</ele>
<time>2010-07-17T19:30:10Z</time>
<desc>lat.=55.704281, lon.=26.086311, Alt.=125.102600m. Speed=0.072000m/h.</desc>
<speed>0.020000</speed>
</trkpt>
<trkpt lat="55.704281" lon="26.086311">
<ele>125.106506</ele>
<time>2010-07-17T19:30:11Z</time>
<desc>lat.=55.704281, lon.=26.086311, Alt.=125.106506m. Speed=0.036000m/h.</desc>
<speed>0.010000</speed>
</trkpt>
<trkpt lat="55.704281" lon="26.086311">
<ele>125.114319</ele>
<time>2010-07-17T19:30:12Z</time>
<desc>lat.=55.704281, lon.=26.086311, Alt.=125.114319m. Speed=0.000000m/h.</desc>
<speed>0.000000</speed>
</trkpt>
<trkpt lat="55.704281" lon="26.086311">
<ele>125.122131</ele>
<time>2010-07-17T19:30:13Z</time>
<desc>lat.=55.704281, lon.=26.086311, Alt.=125.122131m. Speed=0.036000m/h.</desc>
<speed>0.010000</speed>
</trkpt>
<trkpt lat="55.704281" lon="26.086311">
<ele>125.129944</ele>
<time>2010-07-17T19:30:14Z</time>
<desc>lat.=55.704281, lon.=26.086311, Alt.=125.129944m. Speed=0.072000m/h.</desc>
<speed>0.020000</speed>
</trkpt>
<trkpt lat="55.704281" lon="26.086311">
<ele>125.133850</ele>
<time>2010-07-17T19:30:15Z</time>
<desc>lat.=55.704281, lon.=26.086311, Alt.=125.133850m. Speed=0.036000m/h.</desc>
<speed>0.010000</speed>
</trkpt>
<trkpt lat="55.704281" lon="26.086311">
<ele>125.141663</ele>
<time>2010-07-17T19:30:16Z</time>
<desc>lat.=55.704281, lon.=26.086311, Alt.=125.141663m. Speed=0.108000m/h.</desc>
<speed>0.030000</speed>
</trkpt>
<trkpt lat="55.704281" lon="26.086311">
<ele>125.149475</ele>
<time>2010-07-17T19:30:17Z</time>
<desc>lat.=55.704281, lon.=26.086311, Alt.=125.149475m. Speed=0.108000m/h.</desc>
<speed>0.030000</speed>
</trkpt>
<trkpt lat="55.704281" lon="26.086311">
<ele>125.155334</ele>
<time>2010-07-17T19:30:18Z</time>
<desc>lat.=55.704281, lon.=26.086311, Alt.=125.155334m. Speed=0.036000m/h.</desc>
<speed>0.010000</speed>
</trkpt>
<trkpt lat="55.704281" lon="26.086311">
<ele>125.167053</ele>
<time>2010-07-17T19:30:19Z</time>
<desc>lat.=55.704281, lon.=26.086311, Alt.=125.167053m. Speed=0.072000m/h.</desc>
<speed>0.020000</speed>
</trkpt>
<trkpt lat="55.704281" lon="26.086311">
<ele>125.174866</ele>
<time>2010-07-17T19:30:20Z</time>
<desc>lat.=55.704281, lon.=26.086311, Alt.=125.174866m. Speed=0.036000m/h.</desc>
<speed>0.010000</speed>
</trkpt>
<trkpt lat="55.704281" lon="26.086311">
<ele>125.178772</ele>
<time>2010-07-17T19:30:21Z</time>
<desc>lat.=55.704281, lon.=26.086311, Alt.=125.178772m. Speed=0.072000m/h.</desc>
<speed>0.020000</speed>
</trkpt>
<trkpt lat="55.704281" lon="26.086311">
<ele>125.184631</ele>
<time>2010-07-17T19:30:22Z</time>
<desc>lat.=55.704281, lon.=26.086311, Alt.=125.184631m. Speed=0.072000m/h.</desc>
<speed>0.020000</speed>
</trkpt>
<trkpt lat="55.704281" lon="26.086311">
<ele>125.188538</ele>
<time>2010-07-17T19:30:23Z</time>
<desc>lat.=55.704281, lon.=26.086311, Alt.=125.188538m. Speed=0.108000m/h.</desc>
<speed>0.030000</speed>
</trkpt>
<trkpt lat="55.704281" lon="26.086311">
<ele>125.194397</ele>
<time>2010-07-17T19:30:24Z</time>
<desc>lat.=55.704281, lon.=26.086311, Alt.=125.194397m. Speed=0.144000m/h.</desc>
<speed>0.040000</speed>
</trkpt>
<trkpt lat="55.704281" lon="26.086311">
<ele>125.206116</ele>
<time>2010-07-17T19:30:25Z</time>
<desc>lat.=55.704281, lon.=26.086311, Alt.=125.206116m. Speed=0.072000m/h.</desc>
<speed>0.020000</speed>
</trkpt>
<trkpt lat="55.704281" lon="26.086311">
<ele>125.213928</ele>
<time>2010-07-17T19:30:26Z</time>
<desc>lat.=55.704281, lon.=26.086311, Alt.=125.213928m. Speed=0.108000m/h.</desc>
<speed>0.030000</speed>
</trkpt>
<trkpt lat="55.704281" lon="26.086311">
<ele>125.219788</ele>
<time>2010-07-17T19:30:27Z</time>
<desc>lat.=55.704281, lon.=26.086311, Alt.=125.219788m. Speed=0.108000m/h.</desc>
<speed>0.030000</speed>
</trkpt>
<trkpt lat="55.704281" lon="26.086311">
<ele>125.223694</ele>
<time>2010-07-17T19:30:28Z</time>
<desc>lat.=55.704281, lon.=26.086311, Alt.=125.223694m. Speed=0.036000m/h.</desc>
<speed>0.010000</speed>
</trkpt>
<trkpt lat="55.704285" lon="26.086311">
<ele>125.231506</ele>
<time>2010-07-17T19:30:29Z</time>
<desc>lat.=55.704285, lon.=26.086311, Alt.=125.231506m. Speed=0.180000m/h.</desc>
<speed>0.050000</speed>
</trkpt>
<trkpt lat="55.704285" lon="26.086311">
<ele>125.241272</ele>
<time>2010-07-17T19:30:30Z</time>
<desc>lat.=55.704285, lon.=26.086311, Alt.=125.241272m. Speed=0.144000m/h.</desc>
<speed>0.040000</speed>
</trkpt>
<trkpt lat="55.704285" lon="26.086311">
<ele>125.251038</ele>
<time>2010-07-17T19:30:31Z</time>
<desc>lat.=55.704285, lon.=26.086311, Alt.=125.251038m. Speed=0.180000m/h.</desc>
<speed>0.050000</speed>
</trkpt>
<trkpt lat="55.704285" lon="26.086311">
<ele>125.258850</ele>
<time>2010-07-17T19:30:32Z</time>
<desc>lat.=55.704285, lon.=26.086311, Alt.=125.258850m. Speed=0.144000m/h.</desc>
<speed>0.040000</speed>
</trkpt>
<trkpt lat="55.704285" lon="26.086313">
<ele>125.262756</ele>
<time>2010-07-17T19:30:33Z</time>
<desc>lat.=55.704285, lon.=26.086313, Alt.=125.262756m. Speed=0.036000m/h.</desc>
<speed>0.010000</speed>
</trkpt>
<trkpt lat="55.704285" lon="26.086313">
<ele>125.268616</ele>
<time>2010-07-17T19:30:34Z</time>
<desc>lat.=55.704285, lon.=26.086313, Alt.=125.268616m. Speed=0.072000m/h.</desc>
<speed>0.020000</speed>
</trkpt>
<trkpt lat="55.704285" lon="26.086313">
<ele>125.272522</ele>
<time>2010-07-17T19:30:35Z</time>
<desc>lat.=55.704285, lon.=26.086313, Alt.=125.272522m. Speed=0.072000m/h.</desc>
<speed>0.020000</speed>
</trkpt>
<trkpt lat="55.704285" lon="26.086313">
<ele>125.278381</ele>
<time>2010-07-17T19:30:36Z</time>
<desc>lat.=55.704285, lon.=26.086313, Alt.=125.278381m. Speed=0.144000m/h.</desc>
<speed>0.040000</speed>
</trkpt>
<trkpt lat="55.704285" lon="26.086313">
<ele>125.286194</ele>
<time>2010-07-17T19:30:37Z</time>
<desc>lat.=55.704285, lon.=26.086313, Alt.=125.286194m. Speed=0.216000m/h.</desc>
<speed>0.060000</speed>
</trkpt>
<trkpt lat="55.704285" lon="26.086313">
<ele>125.297913</ele>
<time>2010-07-17T19:30:38Z</time>
<desc>lat.=55.704285, lon.=26.086313, Alt.=125.297913m. Speed=0.108000m/h.</desc>
<speed>0.030000</speed>
</trkpt>
<trkpt lat="55.704285" lon="26.086313">
<ele>125.307678</ele>
<time>2010-07-17T19:30:39Z</time>
<desc>lat.=55.704285, lon.=26.086313, Alt.=125.307678m. Speed=0.144000m/h.</desc>
<speed>0.040000</speed>
</trkpt>
<trkpt lat="55.704285" lon="26.086313">
<ele>125.321350</ele>
<time>2010-07-17T19:30:40Z</time>
<desc>lat.=55.704285, lon.=26.086313, Alt.=125.321350m. Speed=0.144000m/h.</desc>
<speed>0.040000</speed>
</trkpt>
<trkpt lat="55.704285" lon="26.086313">
<ele>125.329163</ele>
<time>2010-07-17T19:30:41Z</time>
<desc>lat.=55.704285, lon.=26.086313, Alt.=125.329163m. Speed=0.072000m/h.</desc>
<speed>0.020000</speed>
</trkpt>
<trkpt lat="55.704285" lon="26.086313">
<ele>125.338928</ele>
<time>2010-07-17T19:30:42Z</time>
<desc>lat.=55.704285, lon.=26.086313, Alt.=125.338928m. Speed=0.108000m/h.</desc>
<speed>0.030000</speed>
</trkpt>
<trkpt lat="55.704285" lon="26.086313">
<ele>125.350647</ele>
<time>2010-07-17T19:30:43Z</time>
<desc>lat.=55.704285, lon.=26.086313, Alt.=125.350647m. Speed=0.108000m/h.</desc>
<speed>0.030000</speed>
</trkpt>
<trkpt lat="55.704285" lon="26.086313">
<ele>125.356506</ele>
<time>2010-07-17T19:30:44Z</time>
<desc>lat.=55.704285, lon.=26.086313, Alt.=125.356506m. Speed=0.072000m/h.</desc>
<speed>0.020000</speed>
</trkpt>
<trkpt lat="55.704285" lon="26.086313">
<ele>125.360413</ele>
<time>2010-07-17T19:30:45Z</time>
<desc>lat.=55.704285, lon.=26.086313, Alt.=125.360413m. Speed=0.072000m/h.</desc>
<speed>0.020000</speed>
</trkpt>
<trkpt lat="55.704285" lon="26.086313">
<ele>125.362366</ele>
<time>2010-07-17T19:30:46Z</time>
<desc>lat.=55.704285, lon.=26.086313, Alt.=125.362366m. Speed=0.036000m/h.</desc>
<speed>0.010000</speed>
</trkpt>
<trkpt lat="55.704285" lon="26.086313">
<ele>125.374084</ele>
<time>2010-07-17T19:30:47Z</time>
<desc>lat.=55.704285, lon.=26.086313, Alt.=125.374084m. Speed=0.072000m/h.</desc>
<speed>0.020000</speed>
</trkpt>
<trkpt lat="55.704285" lon="26.086313">
<ele>125.385803</ele>
<time>2010-07-17T19:30:48Z</time>
<desc>lat.=55.704285, lon.=26.086313, Alt.=125.385803m. Speed=0.036000m/h.</desc>
<speed>0.010000</speed>
</trkpt>
<trkpt lat="55.704285" lon="26.086313">
<ele>125.391663</ele>
<time>2010-07-17T19:30:49Z</time>
<desc>lat.=55.704285, lon.=26.086313, Alt.=125.391663m. Speed=0.072000m/h.</desc>
<speed>0.020000</speed>
</trkpt>
<trkpt lat="55.704285" lon="26.086313">
<ele>125.407288</ele>
<time>2010-07-17T19:30:50Z</time>
<desc>lat.=55.704285, lon.=26.086313, Alt.=125.407288m. Speed=0.036000m/h.</desc>
<speed>0.010000</speed>
</trkpt>
<trkpt lat="55.704285" lon="26.086313">
<ele>125.420959</ele>
<time>2010-07-17T19:30:51Z</time>
<desc>lat.=55.704285, lon.=26.086313, Alt.=125.420959m. Speed=0.000000m/h.</desc>
<speed>0.000000</speed>
</trkpt>
<trkpt lat="55.704285" lon="26.086313">
<ele>125.432678</ele>
<time>2010-07-17T19:30:52Z</time>
<desc>lat.=55.704285, lon.=26.086313, Alt.=125.432678m. Speed=0.000000m/h.</desc>
<speed>0.000000</speed>
</trkpt>
<trkpt lat="55.704285" lon="26.086313">
<ele>125.434631</ele>
<time>2010-07-17T19:30:53Z</time>
<desc>lat.=55.704285, lon.=26.086313, Alt.=125.434631m. Speed=0.000000m/h.</desc>
<speed>0.000000</speed>
</trkpt>
<trkpt lat="55.704285" lon="26.086313">
<ele>125.450256</ele>
<time>2010-07-17T19:30:54Z</time>
<desc>lat.=55.704285, lon.=26.086313, Alt.=125.450256m. Speed=0.036000m/h.</desc>
<speed>0.010000</speed>
</trkpt>
<trkpt lat="55.704285" lon="26.086313">
<ele>125.463928</ele>
<time>2010-07-17T19:30:55Z</time>
<desc>lat.=55.704285, lon.=26.086313, Alt.=125.463928m. Speed=0.036000m/h.</desc>
<speed>0.010000</speed>
</trkpt>
<trkpt lat="55.704285" lon="26.086313">
<ele>125.475647</ele>
<time>2010-07-17T19:30:56Z</time>
<desc>lat.=55.704285, lon.=26.086313, Alt.=125.475647m. Speed=0.180000m/h.</desc>
<speed>0.050000</speed>
</trkpt>
<trkpt lat="55.704285" lon="26.086313">
<ele>125.491272</ele>
<time>2010-07-17T19:30:57Z</time>
<desc>lat.=55.704285, lon.=26.086313, Alt.=125.491272m. Speed=0.072000m/h.</desc>
<speed>0.020000</speed>
</trkpt>
<trkpt lat="55.704285" lon="26.086313">
<ele>125.504944</ele>
<time>2010-07-17T19:30:58Z</time>
<desc>lat.=55.704285, lon.=26.086313, Alt.=125.504944m. Speed=0.072000m/h.</desc>
<speed>0.020000</speed>
</trkpt>
<trkpt lat="55.704285" lon="26.086313">
<ele>125.520569</ele>
<time>2010-07-17T19:30:59Z</time>
<desc>lat.=55.704285, lon.=26.086313, Alt.=125.520569m. Speed=0.036000m/h.</desc>
<speed>0.010000</speed>
</trkpt>
<trkpt lat="55.704288" lon="26.086313">
<ele>125.534241</ele>
<time>2010-07-17T19:31:00Z</time>
<desc>lat.=55.704288, lon.=26.086313, Alt.=125.534241m. Speed=0.072000m/h.</desc>
<speed>0.020000</speed>
</trkpt>
<trkpt lat="55.704288" lon="26.086313">
<ele>125.542053</ele>
<time>2010-07-17T19:31:01Z</time>
<desc>lat.=55.704288, lon.=26.086313, Alt.=125.542053m. Speed=0.108000m/h.</desc>
<speed>0.030000</speed>
</trkpt>
<trkpt lat="55.704288" lon="26.086313">
<ele>125.547913</ele>
<time>2010-07-17T19:31:02Z</time>
<desc>lat.=55.704288, lon.=26.086313, Alt.=125.547913m. Speed=0.036000m/h.</desc>
<speed>0.010000</speed>
</trkpt>
<trkpt lat="55.704288" lon="26.086313">
<ele>125.551819</ele>
<time>2010-07-17T19:31:03Z</time>
<desc>lat.=55.704288, lon.=26.086313, Alt.=125.551819m. Speed=0.000000m/h.</desc>
<speed>0.000000</speed>
</trkpt>
<trkpt lat="55.704288" lon="26.086313">
<ele>125.557678</ele>
<time>2010-07-17T19:31:04Z</time>
<desc>lat.=55.704288, lon.=26.086313, Alt.=125.557678m. Speed=0.036000m/h.</desc>
<speed>0.010000</speed>
</trkpt>
<trkpt lat="55.704288" lon="26.086313">
<ele>125.567444</ele>
<time>2010-07-17T19:31:05Z</time>
<desc>lat.=55.704288, lon.=26.086313, Alt.=125.567444m. Speed=0.036000m/h.</desc>
<speed>0.010000</speed>
</trkpt>
<trkpt lat="55.704288" lon="26.086313">
<ele>125.571350</ele>
<time>2010-07-17T19:31:06Z</time>
<desc>lat.=55.704288, lon.=26.086313, Alt.=125.571350m. Speed=0.072000m/h.</desc>
<speed>0.020000</speed>
</trkpt>
<trkpt lat="55.704288" lon="26.086313">
<ele>125.575256</ele>
<time>2010-07-17T19:31:07Z</time>
<desc>lat.=55.704288, lon.=26.086313, Alt.=125.575256m. Speed=0.000000m/h.</desc>
<speed>0.000000</speed>
</trkpt>
<trkpt lat="55.704288" lon="26.086315">
<ele>125.585022</ele>
<time>2010-07-17T19:31:08Z</time>
<desc>lat.=55.704288, lon.=26.086315, Alt.=125.585022m. Speed=0.036000m/h.</desc>
<speed>0.010000</speed>
</trkpt>
<trkpt lat="55.704288" lon="26.086315">
<ele>125.594788</ele>
<time>2010-07-17T19:31:09Z</time>
<desc>lat.=55.704288, lon.=26.086315, Alt.=125.594788m. Speed=0.072000m/h.</desc>
<speed>0.020000</speed>
</trkpt>
<trkpt lat="55.704288" lon="26.086315">
<ele>125.600647</ele>
<time>2010-07-17T19:31:10Z</time>
<desc>lat.=55.704288, lon.=26.086315, Alt.=125.600647m. Speed=0.108000m/h.</desc>
<speed>0.030000</speed>
</trkpt>
<trkpt lat="55.704288" lon="26.086315">
<ele>125.606506</ele>
<time>2010-07-17T19:31:11Z</time>
<desc>lat.=55.704288, lon.=26.086315, Alt.=125.606506m. Speed=0.036000m/h.</desc>
<speed>0.010000</speed>
</trkpt>
<trkpt lat="55.704288" lon="26.086315">
<ele>125.614319</ele>
<time>2010-07-17T19:31:12Z</time>
<desc>lat.=55.704288, lon.=26.086315, Alt.=125.614319m. Speed=0.000000m/h.</desc>
<speed>0.000000</speed>
</trkpt>
<trkpt lat="55.704288" lon="26.086315">
<ele>125.622131</ele>
<time>2010-07-17T19:31:13Z</time>
<desc>lat.=55.704288, lon.=26.086315, Alt.=125.622131m. Speed=0.000000m/h.</desc>
<speed>0.000000</speed>
</trkpt>
<trkpt lat="55.704288" lon="26.086315">
<ele>125.631897</ele>
<time>2010-07-17T19:31:14Z</time>
<desc>lat.=55.704288, lon.=26.086315, Alt.=125.631897m. Speed=0.036000m/h.</desc>
<speed>0.010000</speed>
</trkpt>
<trkpt lat="55.704288" lon="26.086315">
<ele>125.651428</ele>
<time>2010-07-17T19:31:15Z</time>
<desc>lat.=55.704288, lon.=26.086315, Alt.=125.651428m. Speed=0.036000m/h.</desc>
<speed>0.010000</speed>
</trkpt>
<trkpt lat="55.704288" lon="26.086315">
<ele>125.667053</ele>
<time>2010-07-17T19:31:16Z</time>
<desc>lat.=55.704288, lon.=26.086315, Alt.=125.667053m. Speed=0.108000m/h.</desc>
<speed>0.030000</speed>
</trkpt>
<trkpt lat="55.704288" lon="26.086315">
<ele>125.672913</ele>
<time>2010-07-17T19:31:17Z</time>
<desc>lat.=55.704288, lon.=26.086315, Alt.=125.672913m. Speed=0.072000m/h.</desc>
<speed>0.020000</speed>
</trkpt>
<trkpt lat="55.704288" lon="26.086315">
<ele>125.682678</ele>
<time>2010-07-17T19:31:18Z</time>
<desc>lat.=55.704288, lon.=26.086315, Alt.=125.682678m. Speed=0.144000m/h.</desc>
<speed>0.040000</speed>
</trkpt>
<trkpt lat="55.704288" lon="26.086315">
<ele>125.690491</ele>
<time>2010-07-17T19:31:19Z</time>
<desc>lat.=55.704288, lon.=26.086315, Alt.=125.690491m. Speed=0.036000m/h.</desc>
<speed>0.010000</speed>
</trkpt>
<trkpt lat="55.704288" lon="26.086315">
<ele>125.700256</ele>
<time>2010-07-17T19:31:20Z</time>
<desc>lat.=55.704288, lon.=26.086315, Alt.=125.700256m. Speed=0.000000m/h.</desc>
<speed>0.000000</speed>
</trkpt>
<trkpt lat="55.704288" lon="26.086315">
<ele>125.710022</ele>
<time>2010-07-17T19:31:21Z</time>
<desc>lat.=55.704288, lon.=26.086315, Alt.=125.710022m. Speed=0.108000m/h.</desc>
<speed>0.030000</speed>
</trkpt>
<trkpt lat="55.704288" lon="26.086315">
<ele>125.713928</ele>
<time>2010-07-17T19:31:22Z</time>
<desc>lat.=55.704288, lon.=26.086315, Alt.=125.713928m. Speed=0.108000m/h.</desc>
<speed>0.030000</speed>
</trkpt>
<trkpt lat="55.704288" lon="26.086315">
<ele>125.725647</ele>
<time>2010-07-17T19:31:23Z</time>
<desc>lat.=55.704288, lon.=26.086315, Alt.=125.725647m. Speed=0.072000m/h.</desc>
<speed>0.020000</speed>
</trkpt>
<trkpt lat="55.704288" lon="26.086315">
<ele>125.739319</ele>
<time>2010-07-17T19:31:24Z</time>
<desc>lat.=55.704288, lon.=26.086315, Alt.=125.739319m. Speed=0.108000m/h.</desc>
<speed>0.030000</speed>
</trkpt>
<trkpt lat="55.704288" lon="26.086315">
<ele>125.752991</ele>
<time>2010-07-17T19:31:25Z</time>
<desc>lat.=55.704288, lon.=26.086315, Alt.=125.752991m. Speed=0.108000m/h.</desc>
<speed>0.030000</speed>
</trkpt>
<trkpt lat="55.704288" lon="26.086317">
<ele>125.758850</ele>
<time>2010-07-17T19:31:26Z</time>
<desc>lat.=55.704288, lon.=26.086317, Alt.=125.758850m. Speed=0.072000m/h.</desc>
<speed>0.020000</speed>
</trkpt>
<trkpt lat="55.704288" lon="26.086317">
<ele>125.768616</ele>
<time>2010-07-17T19:31:27Z</time>
<desc>lat.=55.704288, lon.=26.086317, Alt.=125.768616m. Speed=0.000000m/h.</desc>
<speed>0.000000</speed>
</trkpt>
<trkpt lat="55.704288" lon="26.086317">
<ele>125.780334</ele>
<time>2010-07-17T19:31:28Z</time>
<desc>lat.=55.704288, lon.=26.086317, Alt.=125.780334m. Speed=0.036000m/h.</desc>
<speed>0.010000</speed>
</trkpt>
<trkpt lat="55.704288" lon="26.086317">
<ele>125.786194</ele>
<time>2010-07-17T19:31:29Z</time>
<desc>lat.=55.704288, lon.=26.086317, Alt.=125.786194m. Speed=0.108000m/h.</desc>
<speed>0.030000</speed>
</trkpt>
<trkpt lat="55.704288" lon="26.086317">
<ele>125.795959</ele>
<time>2010-07-17T19:31:30Z</time>
<desc>lat.=55.704288, lon.=26.086317, Alt.=125.795959m. Speed=0.144000m/h.</desc>
<speed>0.040000</speed>
</trkpt>
<trkpt lat="55.704288" lon="26.086317">
<ele>125.797913</ele>
<time>2010-07-17T19:31:31Z</time>
<desc>lat.=55.704288, lon.=26.086317, Alt.=125.797913m. Speed=0.072000m/h.</desc>
<speed>0.020000</speed>
</trkpt>
<trkpt lat="55.704288" lon="26.086317">
<ele>125.805725</ele>
<time>2010-07-17T19:31:32Z</time>
<desc>lat.=55.704288, lon.=26.086317, Alt.=125.805725m. Speed=0.072000m/h.</desc>
<speed>0.020000</speed>
</trkpt>
<trkpt lat="55.704288" lon="26.086317">
<ele>125.817444</ele>
<time>2010-07-17T19:31:33Z</time>
<desc>lat.=55.704288, lon.=26.086317, Alt.=125.817444m. Speed=0.036000m/h.</desc>
<speed>0.010000</speed>
</trkpt>
<trkpt lat="55.704288" lon="26.086317">
<ele>125.829163</ele>
<time>2010-07-17T19:31:34Z</time>
<desc>lat.=55.704288, lon.=26.086317, Alt.=125.829163m. Speed=0.144000m/h.</desc>
<speed>0.040000</speed>
</trkpt>
<trkpt lat="55.704288" lon="26.086317">
<ele>125.840881</ele>
<time>2010-07-17T19:31:35Z</time>
<desc>lat.=55.704288, lon.=26.086317, Alt.=125.840881m. Speed=0.180000m/h.</desc>
<speed>0.050000</speed>
</trkpt>
<trkpt lat="55.704288" lon="26.086317">
<ele>125.856506</ele>
<time>2010-07-17T19:31:36Z</time>
<desc>lat.=55.704288, lon.=26.086317, Alt.=125.856506m. Speed=0.072000m/h.</desc>
<speed>0.020000</speed>
</trkpt>
<trkpt lat="55.704288" lon="26.086317">
<ele>125.868225</ele>
<time>2010-07-17T19:31:37Z</time>
<desc>lat.=55.704288, lon.=26.086317, Alt.=125.868225m. Speed=0.108000m/h.</desc>
<speed>0.030000</speed>
</trkpt>
<trkpt lat="55.704288" lon="26.086317">
<ele>125.870178</ele>
<time>2010-07-17T19:31:38Z</time>
<desc>lat.=55.704288, lon.=26.086317, Alt.=125.870178m. Speed=0.000000m/h.</desc>
<speed>0.000000</speed>
</trkpt>
<trkpt lat="55.704288" lon="26.086317">
<ele>125.876038</ele>
<time>2010-07-17T19:31:39Z</time>
<desc>lat.=55.704288, lon.=26.086317, Alt.=125.876038m. Speed=0.072000m/h.</desc>
<speed>0.020000</speed>
</trkpt>
<trkpt lat="55.704292" lon="26.086317">
<ele>125.879944</ele>
<time>2010-07-17T19:31:40Z</time>
<desc>lat.=55.704292, lon.=26.086317, Alt.=125.879944m. Speed=0.108000m/h.</desc>
<speed>0.030000</speed>
</trkpt>
<trkpt lat="55.704292" lon="26.086317">
<ele>125.883850</ele>
<time>2010-07-17T19:31:41Z</time>
<desc>lat.=55.704292, lon.=26.086317, Alt.=125.883850m. Speed=0.108000m/h.</desc>
<speed>0.030000</speed>
</trkpt>
<trkpt lat="55.704292" lon="26.086317">
<ele>125.885803</ele>
<time>2010-07-17T19:31:42Z</time>
<desc>lat.=55.704292, lon.=26.086317, Alt.=125.885803m. Speed=0.144000m/h.</desc>
<speed>0.040000</speed>
</trkpt>
<trkpt lat="55.704292" lon="26.086317">
<ele>125.889709</ele>
<time>2010-07-17T19:31:43Z</time>
<desc>lat.=55.704292, lon.=26.086317, Alt.=125.889709m. Speed=0.072000m/h.</desc>
<speed>0.020000</speed>
</trkpt>
<trkpt lat="55.704292" lon="26.086317">
<ele>125.897522</ele>
<time>2010-07-17T19:31:44Z</time>
<desc>lat.=55.704292, lon.=26.086317, Alt.=125.897522m. Speed=0.180000m/h.</desc>
<speed>0.050000</speed>
</trkpt>
<trkpt lat="55.704292" lon="26.086317">
<ele>125.911194</ele>
<time>2010-07-17T19:31:45Z</time>
<desc>lat.=55.704292, lon.=26.086317, Alt.=125.911194m. Speed=0.036000m/h.</desc>
<speed>0.010000</speed>
</trkpt>
<trkpt lat="55.704292" lon="26.086319">
<ele>125.917053</ele>
<time>2010-07-17T19:31:46Z</time>
<desc>lat.=55.704292, lon.=26.086319, Alt.=125.917053m. Speed=0.000000m/h.</desc>
<speed>0.000000</speed>
</trkpt>
<trkpt lat="55.704292" lon="26.086319">
<ele>125.919006</ele>
<time>2010-07-17T19:31:47Z</time>
<desc>lat.=55.704292, lon.=26.086319, Alt.=125.919006m. Speed=0.036000m/h.</desc>
<speed>0.010000</speed>
</trkpt>
<trkpt lat="55.704292" lon="26.086319">
<ele>125.922913</ele>
<time>2010-07-17T19:31:48Z</time>
<desc>lat.=55.704292, lon.=26.086319, Alt.=125.922913m. Speed=0.036000m/h.</desc>
<speed>0.010000</speed>
</trkpt>
<trkpt lat="55.704292" lon="26.086319">
<ele>125.934631</ele>
<time>2010-07-17T19:31:49Z</time>
<desc>lat.=55.704292, lon.=26.086319, Alt.=125.934631m. Speed=0.072000m/h.</desc>
<speed>0.020000</speed>
</trkpt>
<trkpt lat="55.704292" lon="26.086319">
<ele>125.942444</ele>
<time>2010-07-17T19:31:50Z</time>
<desc>lat.=55.704292, lon.=26.086319, Alt.=125.942444m. Speed=0.036000m/h.</desc>
<speed>0.010000</speed>
</trkpt>
<trkpt lat="55.704292" lon="26.086319">
<ele>125.958069</ele>
<time>2010-07-17T19:31:51Z</time>
<desc>lat.=55.704292, lon.=26.086319, Alt.=125.958069m. Speed=0.000000m/h.</desc>
<speed>0.000000</speed>
</trkpt>
<trkpt lat="55.704292" lon="26.086319">
<ele>125.961975</ele>
<time>2010-07-17T19:31:52Z</time>
<desc>lat.=55.704292, lon.=26.086319, Alt.=125.961975m. Speed=0.000000m/h.</desc>
<speed>0.000000</speed>
</trkpt>
<trkpt lat="55.704292" lon="26.086319">
<ele>125.967834</ele>
<time>2010-07-17T19:31:53Z</time>
<desc>lat.=55.704292, lon.=26.086319, Alt.=125.967834m. Speed=0.000000m/h.</desc>
<speed>0.000000</speed>
</trkpt>
<trkpt lat="55.704292" lon="26.086319">
<ele>125.981506</ele>
<time>2010-07-17T19:31:54Z</time>
<desc>lat.=55.704292, lon.=26.086319, Alt.=125.981506m. Speed=0.000000m/h.</desc>
<speed>0.000000</speed>
</trkpt>
<trkpt lat="55.704292" lon="26.086319">
<ele>125.991272</ele>
<time>2010-07-17T19:31:55Z</time>
<desc>lat.=55.704292, lon.=26.086319, Alt.=125.991272m. Speed=0.000000m/h.</desc>
<speed>0.000000</speed>
</trkpt>
<trkpt lat="55.704292" lon="26.086319">
<ele>126.002991</ele>
<time>2010-07-17T19:31:56Z</time>
<desc>lat.=55.704292, lon.=26.086319, Alt.=126.002991m. Speed=0.000000m/h.</desc>
<speed>0.000000</speed>
</trkpt>
<trkpt lat="55.704292" lon="26.086317">
<ele>126.016663</ele>
<time>2010-07-17T19:31:57Z</time>
<desc>lat.=55.704292, lon.=26.086317, Alt.=126.016663m. Speed=0.000000m/h.</desc>
<speed>0.000000</speed>
</trkpt>
<trkpt lat="55.704292" lon="26.086317">
<ele>126.030334</ele>
<time>2010-07-17T19:31:58Z</time>
<desc>lat.=55.704292, lon.=26.086317, Alt.=126.030334m. Speed=0.000000m/h.</desc>
<speed>0.000000</speed>
</trkpt>
<trkpt lat="55.704292" lon="26.086319">
<ele>126.042053</ele>
<time>2010-07-17T19:31:59Z</time>
<desc>lat.=55.704292, lon.=26.086319, Alt.=126.042053m. Speed=0.000000m/h.</desc>
<speed>0.000000</speed>
</trkpt>
<trkpt lat="55.704292" lon="26.086319">
<ele>126.067444</ele>
<time>2010-07-17T19:32:00Z</time>
<desc>lat.=55.704292, lon.=26.086319, Alt.=126.067444m. Speed=0.000000m/h.</desc>
<speed>0.000000</speed>
</trkpt>
<trkpt lat="55.704292" lon="26.086317">
<ele>126.088928</ele>
<time>2010-07-17T19:32:01Z</time>
<desc>lat.=55.704292, lon.=26.086317, Alt.=126.088928m. Speed=0.036000m/h.</desc>
<speed>0.010000</speed>
</trkpt>
<trkpt lat="55.704292" lon="26.086317">
<ele>126.112366</ele>
<time>2010-07-17T19:32:02Z</time>
<desc>lat.=55.704292, lon.=26.086317, Alt.=126.112366m. Speed=0.036000m/h.</desc>
<speed>0.010000</speed>
</trkpt>
<trkpt lat="55.704292" lon="26.086317">
<ele>126.133850</ele>
<time>2010-07-17T19:32:03Z</time>
<desc>lat.=55.704292, lon.=26.086317, Alt.=126.133850m. Speed=0.036000m/h.</desc>
<speed>0.010000</speed>
</trkpt>
<trkpt lat="55.704292" lon="26.086317">
<ele>126.147522</ele>
<time>2010-07-17T19:32:04Z</time>
<desc>lat.=55.704292, lon.=26.086317, Alt.=126.147522m. Speed=0.072000m/h.</desc>
<speed>0.020000</speed>
</trkpt>
<trkpt lat="55.704292" lon="26.086317">
<ele>126.163147</ele>
<time>2010-07-17T19:32:05Z</time>
<desc>lat.=55.704292, lon.=26.086317, Alt.=126.163147m. Speed=0.036000m/h.</desc>
<speed>0.010000</speed>
</trkpt>
<trkpt lat="55.704292" lon="26.086317">
<ele>126.180725</ele>
<time>2010-07-17T19:32:06Z</time>
<desc>lat.=55.704292, lon.=26.086317, Alt.=126.180725m. Speed=0.072000m/h.</desc>
<speed>0.020000</speed>
</trkpt>
<trkpt lat="55.704292" lon="26.086317">
<ele>126.176819</ele>
<time>2010-07-17T19:32:07Z</time>
<desc>lat.=55.704292, lon.=26.086317, Alt.=126.176819m. Speed=0.036000m/h.</desc>
<speed>0.010000</speed>
</trkpt>
<trkpt lat="55.704292" lon="26.086317">
<ele>126.182678</ele>
<time>2010-07-17T19:32:08Z</time>
<desc>lat.=55.704292, lon.=26.086317, Alt.=126.182678m. Speed=0.072000m/h.</desc>
<speed>0.020000</speed>
</trkpt>
<trkpt lat="55.704292" lon="26.086317">
<ele>126.196350</ele>
<time>2010-07-17T19:32:09Z</time>
<desc>lat.=55.704292, lon.=26.086317, Alt.=126.196350m. Speed=0.036000m/h.</desc>
<speed>0.010000</speed>
</trkpt>
<trkpt lat="55.704292" lon="26.086317">
<ele>126.211975</ele>
<time>2010-07-17T19:32:10Z</time>
<desc>lat.=55.704292, lon.=26.086317, Alt.=126.211975m. Speed=0.036000m/h.</desc>
<speed>0.010000</speed>
</trkpt>
<trkpt lat="55.704292" lon="26.086317">
<ele>126.223694</ele>
<time>2010-07-17T19:32:11Z</time>
<desc>lat.=55.704292, lon.=26.086317, Alt.=126.223694m. Speed=0.036000m/h.</desc>
<speed>0.010000</speed>
</trkpt>
<trkpt lat="55.704292" lon="26.086317">
<ele>126.227600</ele>
<time>2010-07-17T19:32:12Z</time>
<desc>lat.=55.704292, lon.=26.086317, Alt.=126.227600m. Speed=0.000000m/h.</desc>
<speed>0.000000</speed>
</trkpt>
<trkpt lat="55.704292" lon="26.086317">
<ele>126.249084</ele>
<time>2010-07-17T19:32:13Z</time>
<desc>lat.=55.704292, lon.=26.086317, Alt.=126.249084m. Speed=0.000000m/h.</desc>
<speed>0.000000</speed>
</trkpt>
<trkpt lat="55.704292" lon="26.086317">
<ele>126.266663</ele>
<time>2010-07-17T19:32:14Z</time>
<desc>lat.=55.704292, lon.=26.086317, Alt.=126.266663m. Speed=0.072000m/h.</desc>
<speed>0.020000</speed>
</trkpt>
<trkpt lat="55.704292" lon="26.086317">
<ele>126.282288</ele>
<time>2010-07-17T19:32:15Z</time>
<desc>lat.=55.704292, lon.=26.086317, Alt.=126.282288m. Speed=0.036000m/h.</desc>
<speed>0.010000</speed>
</trkpt>
<trkpt lat="55.704292" lon="26.086317">
<ele>126.288147</ele>
<time>2010-07-17T19:32:16Z</time>
<desc>lat.=55.704292, lon.=26.086317, Alt.=126.288147m. Speed=0.036000m/h.</desc>
<speed>0.010000</speed>
</trkpt>
<trkpt lat="55.704292" lon="26.086317">
<ele>126.297913</ele>
<time>2010-07-17T19:32:17Z</time>
<desc>lat.=55.704292, lon.=26.086317, Alt.=126.297913m. Speed=0.108000m/h.</desc>
<speed>0.030000</speed>
</trkpt>
<trkpt lat="55.704292" lon="26.086317">
<ele>126.307678</ele>
<time>2010-07-17T19:32:18Z</time>
<desc>lat.=55.704292, lon.=26.086317, Alt.=126.307678m. Speed=0.108000m/h.</desc>
<speed>0.030000</speed>
</trkpt>
<trkpt lat="55.704292" lon="26.086317">
<ele>126.315491</ele>
<time>2010-07-17T19:32:19Z</time>
<desc>lat.=55.704292, lon.=26.086317, Alt.=126.315491m. Speed=0.036000m/h.</desc>
<speed>0.010000</speed>
</trkpt>
<trkpt lat="55.704292" lon="26.086317">
<ele>126.325256</ele>
<time>2010-07-17T19:32:20Z</time>
<desc>lat.=55.704292, lon.=26.086317, Alt.=126.325256m. Speed=0.072000m/h.</desc>
<speed>0.020000</speed>
</trkpt>
<trkpt lat="55.704292" lon="26.086317">
<ele>126.331116</ele>
<time>2010-07-17T19:32:21Z</time>
<desc>lat.=55.704292, lon.=26.086317, Alt.=126.331116m. Speed=0.072000m/h.</desc>
<speed>0.020000</speed>
</trkpt>
<trkpt lat="55.704292" lon="26.086317">
<ele>126.336975</ele>
<time>2010-07-17T19:32:22Z</time>
<desc>lat.=55.704292, lon.=26.086317, Alt.=126.336975m. Speed=0.108000m/h.</desc>
<speed>0.030000</speed>
</trkpt>
<trkpt lat="55.704292" lon="26.086317">
<ele>126.346741</ele>
<time>2010-07-17T19:32:23Z</time>
<desc>lat.=55.704292, lon.=26.086317, Alt.=126.346741m. Speed=0.144000m/h.</desc>
<speed>0.040000</speed>
</trkpt>
<trkpt lat="55.704292" lon="26.086317">
<ele>126.348694</ele>
<time>2010-07-17T19:32:24Z</time>
<desc>lat.=55.704292, lon.=26.086317, Alt.=126.348694m. Speed=0.072000m/h.</desc>
<speed>0.020000</speed>
</trkpt>
<trkpt lat="55.704292" lon="26.086317">
<ele>126.356506</ele>
<time>2010-07-17T19:32:25Z</time>
<desc>lat.=55.704292, lon.=26.086317, Alt.=126.356506m. Speed=0.072000m/h.</desc>
<speed>0.020000</speed>
</trkpt>
<trkpt lat="55.704292" lon="26.086317">
<ele>126.368225</ele>
<time>2010-07-17T19:32:26Z</time>
<desc>lat.=55.704292, lon.=26.086317, Alt.=126.368225m. Speed=0.108000m/h.</desc>
<speed>0.030000</speed>
</trkpt>
<trkpt lat="55.704292" lon="26.086317">
<ele>126.383850</ele>
<time>2010-07-17T19:32:27Z</time>
<desc>lat.=55.704292, lon.=26.086317, Alt.=126.383850m. Speed=0.108000m/h.</desc>
<speed>0.030000</speed>
</trkpt>
<trkpt lat="55.704296" lon="26.086317">
<ele>126.393616</ele>
<time>2010-07-17T19:32:28Z</time>
<desc>lat.=55.704296, lon.=26.086317, Alt.=126.393616m. Speed=0.108000m/h.</desc>
<speed>0.030000</speed>
</trkpt>
<trkpt lat="55.704296" lon="26.086317">
<ele>126.403381</ele>
<time>2010-07-17T19:32:29Z</time>
<desc>lat.=55.704296, lon.=26.086317, Alt.=126.403381m. Speed=0.108000m/h.</desc>
<speed>0.030000</speed>
</trkpt>
<trkpt lat="55.704296" lon="26.086317">
<ele>126.411194</ele>
<time>2010-07-17T19:32:30Z</time>
<desc>lat.=55.704296, lon.=26.086317, Alt.=126.411194m. Speed=0.072000m/h.</desc>
<speed>0.020000</speed>
</trkpt>
<trkpt lat="55.704296" lon="26.086317">
<ele>126.417053</ele>
<time>2010-07-17T19:32:31Z</time>
<desc>lat.=55.704296, lon.=26.086317, Alt.=126.417053m. Speed=0.144000m/h.</desc>
<speed>0.040000</speed>
</trkpt>
<trkpt lat="55.704296" lon="26.086317">
<ele>126.426819</ele>
<time>2010-07-17T19:32:32Z</time>
<desc>lat.=55.704296, lon.=26.086317, Alt.=126.426819m. Speed=0.144000m/h.</desc>
<speed>0.040000</speed>
</trkpt>
<trkpt lat="55.704296" lon="26.086317">
<ele>126.438538</ele>
<time>2010-07-17T19:32:33Z</time>
<desc>lat.=55.704296, lon.=26.086317, Alt.=126.438538m. Speed=0.108000m/h.</desc>
<speed>0.030000</speed>
</trkpt>
<trkpt lat="55.704296" lon="26.086317">
<ele>126.454163</ele>
<time>2010-07-17T19:32:34Z</time>
<desc>lat.=55.704296, lon.=26.086317, Alt.=126.454163m. Speed=0.108000m/h.</desc>
<speed>0.030000</speed>
</trkpt>
<trkpt lat="55.704296" lon="26.086317">
<ele>126.463928</ele>
<time>2010-07-17T19:32:35Z</time>
<desc>lat.=55.704296, lon.=26.086317, Alt.=126.463928m. Speed=0.144000m/h.</desc>
<speed>0.040000</speed>
</trkpt>
<trkpt lat="55.704296" lon="26.086317">
<ele>126.475647</ele>
<time>2010-07-17T19:32:36Z</time>
<desc>lat.=55.704296, lon.=26.086317, Alt.=126.475647m. Speed=0.108000m/h.</desc>
<speed>0.030000</speed>
</trkpt>
<trkpt lat="55.704296" lon="26.086317">
<ele>126.483459</ele>
<time>2010-07-17T19:32:37Z</time>
<desc>lat.=55.704296, lon.=26.086317, Alt.=126.483459m. Speed=0.108000m/h.</desc>
<speed>0.030000</speed>
</trkpt>
<trkpt lat="55.704296" lon="26.086317">
<ele>126.487366</ele>
<time>2010-07-17T19:32:38Z</time>
<desc>lat.=55.704296, lon.=26.086317, Alt.=126.487366m. Speed=0.108000m/h.</desc>
<speed>0.030000</speed>
</trkpt>
<trkpt lat="55.704296" lon="26.086317">
<ele>126.493225</ele>
<time>2010-07-17T19:32:39Z</time>
<desc>lat.=55.704296, lon.=26.086317, Alt.=126.493225m. Speed=0.144000m/h.</desc>
<speed>0.040000</speed>
</trkpt>
<trkpt lat="55.704296" lon="26.086317">
<ele>126.499084</ele>
<time>2010-07-17T19:32:40Z</time>
<desc>lat.=55.704296, lon.=26.086317, Alt.=126.499084m. Speed=0.144000m/h.</desc>
<speed>0.040000</speed>
</trkpt>
<trkpt lat="55.704296" lon="26.086317">
<ele>126.506897</ele>
<time>2010-07-17T19:32:41Z</time>
<desc>lat.=55.704296, lon.=26.086317, Alt.=126.506897m. Speed=0.108000m/h.</desc>
<speed>0.030000</speed>
</trkpt>
<trkpt lat="55.704296" lon="26.086317">
<ele>126.510803</ele>
<time>2010-07-17T19:32:42Z</time>
<desc>lat.=55.704296, lon.=26.086317, Alt.=126.510803m. Speed=0.108000m/h.</desc>
<speed>0.030000</speed>
</trkpt>
<trkpt lat="55.704296" lon="26.086319">
<ele>126.516663</ele>
<time>2010-07-17T19:32:43Z</time>
<desc>lat.=55.704296, lon.=26.086319, Alt.=126.516663m. Speed=0.144000m/h.</desc>
<speed>0.040000</speed>
</trkpt>
<trkpt lat="55.704296" lon="26.086319">
<ele>126.524475</ele>
<time>2010-07-17T19:32:44Z</time>
<desc>lat.=55.704296, lon.=26.086319, Alt.=126.524475m. Speed=0.108000m/h.</desc>
<speed>0.030000</speed>
</trkpt>
<trkpt lat="55.704296" lon="26.086319">
<ele>126.530334</ele>
<time>2010-07-17T19:32:45Z</time>
<desc>lat.=55.704296, lon.=26.086319, Alt.=126.530334m. Speed=0.108000m/h.</desc>
<speed>0.030000</speed>
</trkpt>
<trkpt lat="55.704296" lon="26.086319">
<ele>126.534241</ele>
<time>2010-07-17T19:32:46Z</time>
<desc>lat.=55.704296, lon.=26.086319, Alt.=126.534241m. Speed=0.072000m/h.</desc>
<speed>0.020000</speed>
</trkpt>
<trkpt lat="55.704296" lon="26.086319">
<ele>126.544006</ele>
<time>2010-07-17T19:32:47Z</time>
<desc>lat.=55.704296, lon.=26.086319, Alt.=126.544006m. Speed=0.036000m/h.</desc>
<speed>0.010000</speed>
</trkpt>
<trkpt lat="55.704296" lon="26.086319">
<ele>126.551819</ele>
<time>2010-07-17T19:32:48Z</time>
<desc>lat.=55.704296, lon.=26.086319, Alt.=126.551819m. Speed=0.036000m/h.</desc>
<speed>0.010000</speed>
</trkpt>
<trkpt lat="55.704296" lon="26.086319">
<ele>126.551819</ele>
<time>2010-07-17T19:32:49Z</time>
<desc>lat.=55.704296, lon.=26.086319, Alt.=126.551819m. Speed=0.036000m/h.</desc>
<speed>0.010000</speed>
</trkpt>
<trkpt lat="55.704296" lon="26.086319">
<ele>126.561584</ele>
<time>2010-07-17T19:32:50Z</time>
<desc>lat.=55.704296, lon.=26.086319, Alt.=126.561584m. Speed=0.072000m/h.</desc>
<speed>0.020000</speed>
</trkpt>
<trkpt lat="55.704296" lon="26.086319">
<ele>126.567444</ele>
<time>2010-07-17T19:32:51Z</time>
<desc>lat.=55.704296, lon.=26.086319, Alt.=126.567444m. Speed=0.072000m/h.</desc>
<speed>0.020000</speed>
</trkpt>
<trkpt lat="55.704296" lon="26.086319">
<ele>126.573303</ele>
<time>2010-07-17T19:32:52Z</time>
<desc>lat.=55.704296, lon.=26.086319, Alt.=126.573303m. Speed=0.000000m/h.</desc>
<speed>0.000000</speed>
</trkpt>
<trkpt lat="55.704296" lon="26.086319">
<ele>126.581116</ele>
<time>2010-07-17T19:32:53Z</time>
<desc>lat.=55.704296, lon.=26.086319, Alt.=126.581116m. Speed=0.108000m/h.</desc>
<speed>0.030000</speed>
</trkpt>
<trkpt lat="55.704296" lon="26.086319">
<ele>126.586975</ele>
<time>2010-07-17T19:32:54Z</time>
<desc>lat.=55.704296, lon.=26.086319, Alt.=126.586975m. Speed=0.072000m/h.</desc>
<speed>0.020000</speed>
</trkpt>
<trkpt lat="55.704296" lon="26.086317">
<ele>126.592834</ele>
<time>2010-07-17T19:32:55Z</time>
<desc>lat.=55.704296, lon.=26.086317, Alt.=126.592834m. Speed=0.072000m/h.</desc>
<speed>0.020000</speed>
</trkpt>
<trkpt lat="55.704296" lon="26.086317">
<ele>126.598694</ele>
<time>2010-07-17T19:32:56Z</time>
<desc>lat.=55.704296, lon.=26.086317, Alt.=126.598694m. Speed=0.000000m/h.</desc>
<speed>0.000000</speed>
</trkpt>
<trkpt lat="55.704296" lon="26.086317">
<ele>126.604553</ele>
<time>2010-07-17T19:32:57Z</time>
<desc>lat.=55.704296, lon.=26.086317, Alt.=126.604553m. Speed=0.036000m/h.</desc>
<speed>0.010000</speed>
</trkpt>
<trkpt lat="55.704296" lon="26.086317">
<ele>126.606506</ele>
<time>2010-07-17T19:32:58Z</time>
<desc>lat.=55.704296, lon.=26.086317, Alt.=126.606506m. Speed=0.036000m/h.</desc>
<speed>0.010000</speed>
</trkpt>
<trkpt lat="55.704300" lon="26.086317">
<ele>126.614319</ele>
<time>2010-07-17T19:32:59Z</time>
<desc>lat.=55.704300, lon.=26.086317, Alt.=126.614319m. Speed=0.000000m/h.</desc>
<speed>0.000000</speed>
</trkpt>
<trkpt lat="55.704300" lon="26.086317">
<ele>126.622131</ele>
<time>2010-07-17T19:33:00Z</time>
<desc>lat.=55.704300, lon.=26.086317, Alt.=126.622131m. Speed=0.000000m/h.</desc>
<speed>0.000000</speed>
</trkpt>
<trkpt lat="55.704300" lon="26.086317">
<ele>126.624084</ele>
<time>2010-07-17T19:33:01Z</time>
<desc>lat.=55.704300, lon.=26.086317, Alt.=126.624084m. Speed=0.036000m/h.</desc>
<speed>0.010000</speed>
</trkpt>
<trkpt lat="55.704300" lon="26.086317">
<ele>126.627991</ele>
<time>2010-07-17T19:33:02Z</time>
<desc>lat.=55.704300, lon.=26.086317, Alt.=126.627991m. Speed=0.144000m/h.</desc>
<speed>0.040000</speed>
</trkpt>
<trkpt lat="55.704300" lon="26.086317">
<ele>126.631897</ele>
<time>2010-07-17T19:33:03Z</time>
<desc>lat.=55.704300, lon.=26.086317, Alt.=126.631897m. Speed=0.036000m/h.</desc>
<speed>0.010000</speed>
</trkpt>
<trkpt lat="55.704300" lon="26.086317">
<ele>126.635803</ele>
<time>2010-07-17T19:33:04Z</time>
<desc>lat.=55.704300, lon.=26.086317, Alt.=126.635803m. Speed=0.036000m/h.</desc>
<speed>0.010000</speed>
</trkpt>
<trkpt lat="55.704300" lon="26.086317">
<ele>126.643616</ele>
<time>2010-07-17T19:33:05Z</time>
<desc>lat.=55.704300, lon.=26.086317, Alt.=126.643616m. Speed=0.108000m/h.</desc>
<speed>0.030000</speed>
</trkpt>
<trkpt lat="55.704300" lon="26.086317">
<ele>126.647522</ele>
<time>2010-07-17T19:33:06Z</time>
<desc>lat.=55.704300, lon.=26.086317, Alt.=126.647522m. Speed=0.036000m/h.</desc>
<speed>0.010000</speed>
</trkpt>
<trkpt lat="55.704300" lon="26.086317">
<ele>126.651428</ele>
<time>2010-07-17T19:33:07Z</time>
<desc>lat.=55.704300, lon.=26.086317, Alt.=126.651428m. Speed=0.036000m/h.</desc>
<speed>0.010000</speed>
</trkpt>
<trkpt lat="55.704300" lon="26.086317">
<ele>126.655334</ele>
<time>2010-07-17T19:33:08Z</time>
<desc>lat.=55.704300, lon.=26.086317, Alt.=126.655334m. Speed=0.036000m/h.</desc>
<speed>0.010000</speed>
</trkpt>
<trkpt lat="55.704300" lon="26.086317">
<ele>126.659241</ele>
<time>2010-07-17T19:33:09Z</time>
<desc>lat.=55.704300, lon.=26.086317, Alt.=126.659241m. Speed=0.072000m/h.</desc>
<speed>0.020000</speed>
</trkpt>
<trkpt lat="55.704300" lon="26.086317">
<ele>126.667053</ele>
<time>2010-07-17T19:33:10Z</time>
<desc>lat.=55.704300, lon.=26.086317, Alt.=126.667053m. Speed=0.108000m/h.</desc>
<speed>0.030000</speed>
</trkpt>
<trkpt lat="55.704300" lon="26.086317">
<ele>126.674866</ele>
<time>2010-07-17T19:33:11Z</time>
<desc>lat.=55.704300, lon.=26.086317, Alt.=126.674866m. Speed=0.072000m/h.</desc>
<speed>0.020000</speed>
</trkpt>
<trkpt lat="55.704300" lon="26.086317">
<ele>126.682678</ele>
<time>2010-07-17T19:33:12Z</time>
<desc>lat.=55.704300, lon.=26.086317, Alt.=126.682678m. Speed=0.036000m/h.</desc>
<speed>0.010000</speed>
</trkpt>
<trkpt lat="55.704300" lon="26.086317">
<ele>126.686584</ele>
<time>2010-07-17T19:33:13Z</time>
<desc>lat.=55.704300, lon.=26.086317, Alt.=126.686584m. Speed=0.036000m/h.</desc>
<speed>0.010000</speed>
</trkpt>
<trkpt lat="55.704296" lon="26.086317">
<ele>126.694397</ele>
<time>2010-07-17T19:33:14Z</time>
<desc>lat.=55.704296, lon.=26.086317, Alt.=126.694397m. Speed=0.180000m/h.</desc>
<speed>0.050000</speed>
</trkpt>
<trkpt lat="55.704296" lon="26.086315">
<ele>126.704163</ele>
<time>2010-07-17T19:33:15Z</time>
<desc>lat.=55.704296, lon.=26.086315, Alt.=126.704163m. Speed=0.072000m/h.</desc>
<speed>0.020000</speed>
</trkpt>
<trkpt lat="55.704296" lon="26.086315">
<ele>126.717834</ele>
<time>2010-07-17T19:33:16Z</time>
<desc>lat.=55.704296, lon.=26.086315, Alt.=126.717834m. Speed=0.108000m/h.</desc>
<speed>0.030000</speed>
</trkpt>
<trkpt lat="55.704296" lon="26.086315">
<ele>126.727600</ele>
<time>2010-07-17T19:33:17Z</time>
<desc>lat.=55.704296, lon.=26.086315, Alt.=126.727600m. Speed=0.036000m/h.</desc>
<speed>0.010000</speed>
</trkpt>
<trkpt lat="55.704296" lon="26.086315">
<ele>126.737366</ele>
<time>2010-07-17T19:33:18Z</time>
<desc>lat.=55.704296, lon.=26.086315, Alt.=126.737366m. Speed=0.144000m/h.</desc>
<speed>0.040000</speed>
</trkpt>
<trkpt lat="55.704296" lon="26.086315">
<ele>126.752991</ele>
<time>2010-07-17T19:33:19Z</time>
<desc>lat.=55.704296, lon.=26.086315, Alt.=126.752991m. Speed=0.108000m/h.</desc>
<speed>0.030000</speed>
</trkpt>
<trkpt lat="55.704296" lon="26.086315">
<ele>126.758850</ele>
<time>2010-07-17T19:33:20Z</time>
<desc>lat.=55.704296, lon.=26.086315, Alt.=126.758850m. Speed=0.000000m/h.</desc>
<speed>0.000000</speed>
</trkpt>
<trkpt lat="55.704296" lon="26.086315">
<ele>126.762756</ele>
<time>2010-07-17T19:33:21Z</time>
<desc>lat.=55.704296, lon.=26.086315, Alt.=126.762756m. Speed=0.108000m/h.</desc>
<speed>0.030000</speed>
</trkpt>
<trkpt lat="55.704296" lon="26.086315">
<ele>126.768616</ele>
<time>2010-07-17T19:33:22Z</time>
<desc>lat.=55.704296, lon.=26.086315, Alt.=126.768616m. Speed=0.072000m/h.</desc>
<speed>0.020000</speed>
</trkpt>
<trkpt lat="55.704296" lon="26.086315">
<ele>126.774475</ele>
<time>2010-07-17T19:33:23Z</time>
<desc>lat.=55.704296, lon.=26.086315, Alt.=126.774475m. Speed=0.144000m/h.</desc>
<speed>0.040000</speed>
</trkpt>
<trkpt lat="55.704296" lon="26.086315">
<ele>126.780334</ele>
<time>2010-07-17T19:33:24Z</time>
<desc>lat.=55.704296, lon.=26.086315, Alt.=126.780334m. Speed=0.072000m/h.</desc>
<speed>0.020000</speed>
</trkpt>
<trkpt lat="55.704296" lon="26.086315">
<ele>126.786194</ele>
<time>2010-07-17T19:33:25Z</time>
<desc>lat.=55.704296, lon.=26.086315, Alt.=126.786194m. Speed=0.000000m/h.</desc>
<speed>0.000000</speed>
</trkpt>
<trkpt lat="55.704296" lon="26.086315">
<ele>126.788147</ele>
<time>2010-07-17T19:33:26Z</time>
<desc>lat.=55.704296, lon.=26.086315, Alt.=126.788147m. Speed=0.036000m/h.</desc>
<speed>0.010000</speed>
</trkpt>
<trkpt lat="55.704296" lon="26.086315">
<ele>126.792053</ele>
<time>2010-07-17T19:33:27Z</time>
<desc>lat.=55.704296, lon.=26.086315, Alt.=126.792053m. Speed=0.036000m/h.</desc>
<speed>0.010000</speed>
</trkpt>
<trkpt lat="55.704296" lon="26.086315">
<ele>126.794006</ele>
<time>2010-07-17T19:33:28Z</time>
<desc>lat.=55.704296, lon.=26.086315, Alt.=126.794006m. Speed=0.036000m/h.</desc>
<speed>0.010000</speed>
</trkpt>
<trkpt lat="55.704296" lon="26.086315">
<ele>126.801819</ele>
<time>2010-07-17T19:33:29Z</time>
<desc>lat.=55.704296, lon.=26.086315, Alt.=126.801819m. Speed=0.072000m/h.</desc>
<speed>0.020000</speed>
</trkpt>
<trkpt lat="55.704296" lon="26.086315">
<ele>126.807678</ele>
<time>2010-07-17T19:33:30Z</time>
<desc>lat.=55.704296, lon.=26.086315, Alt.=126.807678m. Speed=0.108000m/h.</desc>
<speed>0.030000</speed>
</trkpt>
<trkpt lat="55.704296" lon="26.086315">
<ele>126.811584</ele>
<time>2010-07-17T19:33:31Z</time>
<desc>lat.=55.704296, lon.=26.086315, Alt.=126.811584m. Speed=0.072000m/h.</desc>
<speed>0.020000</speed>
</trkpt>
<trkpt lat="55.704296" lon="26.086315">
<ele>126.811584</ele>
<time>2010-07-17T19:33:32Z</time>
<desc>lat.=55.704296, lon.=26.086315, Alt.=126.811584m. Speed=0.000000m/h.</desc>
<speed>0.000000</speed>
</trkpt>
<trkpt lat="55.704296" lon="26.086315">
<ele>126.813538</ele>
<time>2010-07-17T19:33:33Z</time>
<desc>lat.=55.704296, lon.=26.086315, Alt.=126.813538m. Speed=0.036000m/h.</desc>
<speed>0.010000</speed>
</trkpt>
<trkpt lat="55.704296" lon="26.086315">
<ele>126.813538</ele>
<time>2010-07-17T19:33:34Z</time>
<desc>lat.=55.704296, lon.=26.086315, Alt.=126.813538m. Speed=0.000000m/h.</desc>
<speed>0.000000</speed>
</trkpt>
<trkpt lat="55.704296" lon="26.086315">
<ele>126.819397</ele>
<time>2010-07-17T19:33:35Z</time>
<desc>lat.=55.704296, lon.=26.086315, Alt.=126.819397m. Speed=0.036000m/h.</desc>
<speed>0.010000</speed>
</trkpt>
<trkpt lat="55.704296" lon="26.086315">
<ele>126.823303</ele>
<time>2010-07-17T19:33:36Z</time>
<desc>lat.=55.704296, lon.=26.086315, Alt.=126.823303m. Speed=0.072000m/h.</desc>
<speed>0.020000</speed>
</trkpt>
<trkpt lat="55.704296" lon="26.086315">
<ele>126.831116</ele>
<time>2010-07-17T19:33:37Z</time>
<desc>lat.=55.704296, lon.=26.086315, Alt.=126.831116m. Speed=0.000000m/h.</desc>
<speed>0.000000</speed>
</trkpt>
<trkpt lat="55.704296" lon="26.086315">
<ele>126.840881</ele>
<time>2010-07-17T19:33:38Z</time>
<desc>lat.=55.704296, lon.=26.086315, Alt.=126.840881m. Speed=0.108000m/h.</desc>
<speed>0.030000</speed>
</trkpt>
<trkpt lat="55.704296" lon="26.086315">
<ele>126.848694</ele>
<time>2010-07-17T19:33:39Z</time>
<desc>lat.=55.704296, lon.=26.086315, Alt.=126.848694m. Speed=0.072000m/h.</desc>
<speed>0.020000</speed>
</trkpt>
<trkpt lat="55.704296" lon="26.086317">
<ele>126.856506</ele>
<time>2010-07-17T19:33:40Z</time>
<desc>lat.=55.704296, lon.=26.086317, Alt.=126.856506m. Speed=0.072000m/h.</desc>
<speed>0.020000</speed>
</trkpt>
<trkpt lat="55.704296" lon="26.086317">
<ele>126.862366</ele>
<time>2010-07-17T19:33:41Z</time>
<desc>lat.=55.704296, lon.=26.086317, Alt.=126.862366m. Speed=0.144000m/h.</desc>
<speed>0.040000</speed>
</trkpt>
<trkpt lat="55.704296" lon="26.086317">
<ele>126.872131</ele>
<time>2010-07-17T19:33:42Z</time>
<desc>lat.=55.704296, lon.=26.086317, Alt.=126.872131m. Speed=0.072000m/h.</desc>
<speed>0.020000</speed>
</trkpt>
<trkpt lat="55.704296" lon="26.086317">
<ele>126.879944</ele>
<time>2010-07-17T19:33:43Z</time>
<desc>lat.=55.704296, lon.=26.086317, Alt.=126.879944m. Speed=0.144000m/h.</desc>
<speed>0.040000</speed>
</trkpt>
<trkpt lat="55.704296" lon="26.086317">
<ele>126.889709</ele>
<time>2010-07-17T19:33:44Z</time>
<desc>lat.=55.704296, lon.=26.086317, Alt.=126.889709m. Speed=0.072000m/h.</desc>
<speed>0.020000</speed>
</trkpt>
<trkpt lat="55.704296" lon="26.086317">
<ele>126.897522</ele>
<time>2010-07-17T19:33:45Z</time>
<desc>lat.=55.704296, lon.=26.086317, Alt.=126.897522m. Speed=0.036000m/h.</desc>
<speed>0.010000</speed>
</trkpt>
<trkpt lat="55.704300" lon="26.086317">
<ele>126.911194</ele>
<time>2010-07-17T19:33:46Z</time>
<desc>lat.=55.704300, lon.=26.086317, Alt.=126.911194m. Speed=0.072000m/h.</desc>
<speed>0.020000</speed>
</trkpt>
<trkpt lat="55.704300" lon="26.086317">
<ele>126.922913</ele>
<time>2010-07-17T19:33:47Z</time>
<desc>lat.=55.704300, lon.=26.086317, Alt.=126.922913m. Speed=0.072000m/h.</desc>
<speed>0.020000</speed>
</trkpt>
<trkpt lat="55.704300" lon="26.086317">
<ele>126.930725</ele>
<time>2010-07-17T19:33:48Z</time>
<desc>lat.=55.704300, lon.=26.086317, Alt.=126.930725m. Speed=0.144000m/h.</desc>
<speed>0.040000</speed>
</trkpt>
<trkpt lat="55.704300" lon="26.086319">
<ele>126.938538</ele>
<time>2010-07-17T19:33:49Z</time>
<desc>lat.=55.704300, lon.=26.086319, Alt.=126.938538m. Speed=0.144000m/h.</desc>
<speed>0.040000</speed>
</trkpt>
<trkpt lat="55.704300" lon="26.086319">
<ele>126.952209</ele>
<time>2010-07-17T19:33:50Z</time>
<desc>lat.=55.704300, lon.=26.086319, Alt.=126.952209m. Speed=0.108000m/h.</desc>
<speed>0.030000</speed>
</trkpt>
<trkpt lat="55.704300" lon="26.086319">
<ele>126.969788</ele>
<time>2010-07-17T19:33:51Z</time>
<desc>lat.=55.704300, lon.=26.086319, Alt.=126.969788m. Speed=0.108000m/h.</desc>
<speed>0.030000</speed>
</trkpt>
<trkpt lat="55.704300" lon="26.086319">
<ele>126.985413</ele>
<time>2010-07-17T19:33:52Z</time>
<desc>lat.=55.704300, lon.=26.086319, Alt.=126.985413m. Speed=0.144000m/h.</desc>
<speed>0.040000</speed>
</trkpt>
<trkpt lat="55.704300" lon="26.086319">
<ele>127.006897</ele>
<time>2010-07-17T19:33:53Z</time>
<desc>lat.=55.704300, lon.=26.086319, Alt.=127.006897m. Speed=0.108000m/h.</desc>
<speed>0.030000</speed>
</trkpt>
<trkpt lat="55.704300" lon="26.086319">
<ele>127.028381</ele>
<time>2010-07-17T19:33:54Z</time>
<desc>lat.=55.704300, lon.=26.086319, Alt.=127.028381m. Speed=0.036000m/h.</desc>
<speed>0.010000</speed>
</trkpt>
<trkpt lat="55.704300" lon="26.086319">
<ele>127.049866</ele>
<time>2010-07-17T19:33:55Z</time>
<desc>lat.=55.704300, lon.=26.086319, Alt.=127.049866m. Speed=0.072000m/h.</desc>
<speed>0.020000</speed>
</trkpt>
<trkpt lat="55.704300" lon="26.086319">
<ele>127.067444</ele>
<time>2010-07-17T19:33:56Z</time>
<desc>lat.=55.704300, lon.=26.086319, Alt.=127.067444m. Speed=0.036000m/h.</desc>
<speed>0.010000</speed>
</trkpt>
<trkpt lat="55.704300" lon="26.086319">
<ele>127.086975</ele>
<time>2010-07-17T19:33:57Z</time>
<desc>lat.=55.704300, lon.=26.086319, Alt.=127.086975m. Speed=0.144000m/h.</desc>
<speed>0.040000</speed>
</trkpt>
<trkpt lat="55.704300" lon="26.086321">
<ele>127.100647</ele>
<time>2010-07-17T19:33:58Z</time>
<desc>lat.=55.704300, lon.=26.086321, Alt.=127.100647m. Speed=0.108000m/h.</desc>
<speed>0.030000</speed>
</trkpt>
<trkpt lat="55.704300" lon="26.086321">
<ele>127.122131</ele>
<time>2010-07-17T19:33:59Z</time>
<desc>lat.=55.704300, lon.=26.086321, Alt.=127.122131m. Speed=0.108000m/h.</desc>
<speed>0.030000</speed>
</trkpt>
<trkpt lat="55.704300" lon="26.086321">
<ele>127.149475</ele>
<time>2010-07-17T19:34:00Z</time>
<desc>lat.=55.704300, lon.=26.086321, Alt.=127.149475m. Speed=0.036000m/h.</desc>
<speed>0.010000</speed>
</trkpt>
<trkpt lat="55.704300" lon="26.086321">
<ele>127.176819</ele>
<time>2010-07-17T19:34:01Z</time>
<desc>lat.=55.704300, lon.=26.086321, Alt.=127.176819m. Speed=0.108000m/h.</desc>
<speed>0.030000</speed>
</trkpt>
<trkpt lat="55.704300" lon="26.086321">
<ele>127.202209</ele>
<time>2010-07-17T19:34:02Z</time>
<desc>lat.=55.704300, lon.=26.086321, Alt.=127.202209m. Speed=0.108000m/h.</desc>
<speed>0.030000</speed>
</trkpt>
<trkpt lat="55.704300" lon="26.086321">
<ele>127.221741</ele>
<time>2010-07-17T19:34:03Z</time>
<desc>lat.=55.704300, lon.=26.086321, Alt.=127.221741m. Speed=0.072000m/h.</desc>
<speed>0.020000</speed>
</trkpt>
<trkpt lat="55.704300" lon="26.086321">
<ele>127.241272</ele>
<time>2010-07-17T19:34:04Z</time>
<desc>lat.=55.704300, lon.=26.086321, Alt.=127.241272m. Speed=0.036000m/h.</desc>
<speed>0.010000</speed>
</trkpt>
<trkpt lat="55.704300" lon="26.086321">
<ele>127.278381</ele>
<time>2010-07-17T19:34:05Z</time>
<desc>lat.=55.704300, lon.=26.086321, Alt.=127.278381m. Speed=0.072000m/h.</desc>
<speed>0.020000</speed>
</trkpt>
<trkpt lat="55.704300" lon="26.086321">
<ele>127.295959</ele>
<time>2010-07-17T19:34:06Z</time>
<desc>lat.=55.704300, lon.=26.086321, Alt.=127.295959m. Speed=0.036000m/h.</desc>
<speed>0.010000</speed>
</trkpt>
<trkpt lat="55.704300" lon="26.086321">
<ele>127.325256</ele>
<time>2010-07-17T19:34:07Z</time>
<desc>lat.=55.704300, lon.=26.086321, Alt.=127.325256m. Speed=0.144000m/h.</desc>
<speed>0.040000</speed>
</trkpt>
<trkpt lat="55.704300" lon="26.086321">
<ele>127.358459</ele>
<time>2010-07-17T19:34:08Z</time>
<desc>lat.=55.704300, lon.=26.086321, Alt.=127.358459m. Speed=0.072000m/h.</desc>
<speed>0.020000</speed>
</trkpt>
<trkpt lat="55.704300" lon="26.086321">
<ele>127.397522</ele>
<time>2010-07-17T19:34:09Z</time>
<desc>lat.=55.704300, lon.=26.086321, Alt.=127.397522m. Speed=0.000000m/h.</desc>
<speed>0.000000</speed>
</trkpt>
<trkpt lat="55.704300" lon="26.086321">
<ele>127.420959</ele>
<time>2010-07-17T19:34:10Z</time>
<desc>lat.=55.704300, lon.=26.086321, Alt.=127.420959m. Speed=0.036000m/h.</desc>
<speed>0.010000</speed>
</trkpt>
<trkpt lat="55.704300" lon="26.086321">
<ele>127.438538</ele>
<time>2010-07-17T19:34:11Z</time>
<desc>lat.=55.704300, lon.=26.086321, Alt.=127.438538m. Speed=0.000000m/h.</desc>
<speed>0.000000</speed>
</trkpt>
<trkpt lat="55.704300" lon="26.086321">
<ele>127.452209</ele>
<time>2010-07-17T19:34:12Z</time>
<desc>lat.=55.704300, lon.=26.086321, Alt.=127.452209m. Speed=0.036000m/h.</desc>
<speed>0.010000</speed>
</trkpt>
<trkpt lat="55.704300" lon="26.086321">
<ele>127.469788</ele>
<time>2010-07-17T19:34:13Z</time>
<desc>lat.=55.704300, lon.=26.086321, Alt.=127.469788m. Speed=0.072000m/h.</desc>
<speed>0.020000</speed>
</trkpt>
<trkpt lat="55.704300" lon="26.086321">
<ele>127.475647</ele>
<time>2010-07-17T19:34:14Z</time>
<desc>lat.=55.704300, lon.=26.086321, Alt.=127.475647m. Speed=0.072000m/h.</desc>
<speed>0.020000</speed>
</trkpt>
<trkpt lat="55.704300" lon="26.086321">
<ele>127.475647</ele>
<time>2010-07-17T19:34:15Z</time>
<desc>lat.=55.704300, lon.=26.086321, Alt.=127.475647m. Speed=0.000000m/h.</desc>
<speed>0.000000</speed>
</trkpt>
<trkpt lat="55.704300" lon="26.086321">
<ele>127.475647</ele>
<time>2010-07-17T19:34:16Z</time>
<desc>lat.=55.704300, lon.=26.086321, Alt.=127.475647m. Speed=0.036000m/h.</desc>
<speed>0.010000</speed>
</trkpt>
<trkpt lat="55.704300" lon="26.086321">
<ele>127.491272</ele>
<time>2010-07-17T19:34:17Z</time>
<desc>lat.=55.704300, lon.=26.086321, Alt.=127.491272m. Speed=0.036000m/h.</desc>
<speed>0.010000</speed>
</trkpt>
<trkpt lat="55.704300" lon="26.086321">
<ele>127.491272</ele>
<time>2010-07-17T19:34:18Z</time>
<desc>lat.=55.704300, lon.=26.086321, Alt.=127.491272m. Speed=0.000000m/h.</desc>
<speed>0.000000</speed>
</trkpt>
<trkpt lat="55.704300" lon="26.086321">
<ele>127.495178</ele>
<time>2010-07-17T19:34:19Z</time>
<desc>lat.=55.704300, lon.=26.086321, Alt.=127.495178m. Speed=0.000000m/h.</desc>
<speed>0.000000</speed>
</trkpt>
<trkpt lat="55.704300" lon="26.086321">
<ele>127.487366</ele>
<time>2010-07-17T19:34:20Z</time>
<desc>lat.=55.704300, lon.=26.086321, Alt.=127.487366m. Speed=0.000000m/h.</desc>
<speed>0.000000</speed>
</trkpt>
<trkpt lat="55.704300" lon="26.086321">
<ele>127.495178</ele>
<time>2010-07-17T19:34:21Z</time>
<desc>lat.=55.704300, lon.=26.086321, Alt.=127.495178m. Speed=0.036000m/h.</desc>
<speed>0.010000</speed>
</trkpt>
<trkpt lat="55.704300" lon="26.086321">
<ele>127.495178</ele>
<time>2010-07-17T19:34:22Z</time>
<desc>lat.=55.704300, lon.=26.086321, Alt.=127.495178m. Speed=0.000000m/h.</desc>
<speed>0.000000</speed>
</trkpt>
<trkpt lat="55.704300" lon="26.086323">
<ele>127.491272</ele>
<time>2010-07-17T19:34:23Z</time>
<desc>lat.=55.704300, lon.=26.086323, Alt.=127.491272m. Speed=0.036000m/h.</desc>
<speed>0.010000</speed>
</trkpt>
<trkpt lat="55.704300" lon="26.086323">
<ele>127.499084</ele>
<time>2010-07-17T19:34:24Z</time>
<desc>lat.=55.704300, lon.=26.086323, Alt.=127.499084m. Speed=0.036000m/h.</desc>
<speed>0.010000</speed>
</trkpt>
<trkpt lat="55.704300" lon="26.086323">
<ele>127.504944</ele>
<time>2010-07-17T19:34:25Z</time>
<desc>lat.=55.704300, lon.=26.086323, Alt.=127.504944m. Speed=0.036000m/h.</desc>
<speed>0.010000</speed>
</trkpt>
<trkpt lat="55.704300" lon="26.086323">
<ele>127.497131</ele>
<time>2010-07-17T19:34:26Z</time>
<desc>lat.=55.704300, lon.=26.086323, Alt.=127.497131m. Speed=0.000000m/h.</desc>
<speed>0.000000</speed>
</trkpt>
<trkpt lat="55.704300" lon="26.086323">
<ele>127.489319</ele>
<time>2010-07-17T19:34:27Z</time>
<desc>lat.=55.704300, lon.=26.086323, Alt.=127.489319m. Speed=0.072000m/h.</desc>
<speed>0.020000</speed>
</trkpt>
<trkpt lat="55.704300" lon="26.086323">
<ele>127.489319</ele>
<time>2010-07-17T19:34:28Z</time>
<desc>lat.=55.704300, lon.=26.086323, Alt.=127.489319m. Speed=0.036000m/h.</desc>
<speed>0.010000</speed>
</trkpt>
<trkpt lat="55.704300" lon="26.086323">
<ele>127.491272</ele>
<time>2010-07-17T19:34:29Z</time>
<desc>lat.=55.704300, lon.=26.086323, Alt.=127.491272m. Speed=0.072000m/h.</desc>
<speed>0.020000</speed>
</trkpt>
<trkpt lat="55.704300" lon="26.086323">
<ele>127.497131</ele>
<time>2010-07-17T19:34:30Z</time>
<desc>lat.=55.704300, lon.=26.086323, Alt.=127.497131m. Speed=0.036000m/h.</desc>
<speed>0.010000</speed>
</trkpt>
<trkpt lat="55.704300" lon="26.086323">
<ele>127.501038</ele>
<time>2010-07-17T19:34:31Z</time>
<desc>lat.=55.704300, lon.=26.086323, Alt.=127.501038m. Speed=0.036000m/h.</desc>
<speed>0.010000</speed>
</trkpt>
<trkpt lat="55.704300" lon="26.086323">
<ele>127.508850</ele>
<time>2010-07-17T19:34:32Z</time>
<desc>lat.=55.704300, lon.=26.086323, Alt.=127.508850m. Speed=0.000000m/h.</desc>
<speed>0.000000</speed>
</trkpt>
<trkpt lat="55.704300" lon="26.086323">
<ele>127.516663</ele>
<time>2010-07-17T19:34:33Z</time>
<desc>lat.=55.704300, lon.=26.086323, Alt.=127.516663m. Speed=0.036000m/h.</desc>
<speed>0.010000</speed>
</trkpt>
<trkpt lat="55.704300" lon="26.086323">
<ele>127.520569</ele>
<time>2010-07-17T19:34:34Z</time>
<desc>lat.=55.704300, lon.=26.086323, Alt.=127.520569m. Speed=0.036000m/h.</desc>
<speed>0.010000</speed>
</trkpt>
<trkpt lat="55.704300" lon="26.086323">
<ele>127.524475</ele>
<time>2010-07-17T19:34:35Z</time>
<desc>lat.=55.704300, lon.=26.086323, Alt.=127.524475m. Speed=0.000000m/h.</desc>
<speed>0.000000</speed>
</trkpt>
<trkpt lat="55.704300" lon="26.086323">
<ele>127.530334</ele>
<time>2010-07-17T19:34:36Z</time>
<desc>lat.=55.704300, lon.=26.086323, Alt.=127.530334m. Speed=0.036000m/h.</desc>
<speed>0.010000</speed>
</trkpt>
<trkpt lat="55.704300" lon="26.086323">
<ele>127.538147</ele>
<time>2010-07-17T19:34:37Z</time>
<desc>lat.=55.704300, lon.=26.086323, Alt.=127.538147m. Speed=0.000000m/h.</desc>
<speed>0.000000</speed>
</trkpt>
<trkpt lat="55.704300" lon="26.086323">
<ele>127.553772</ele>
<time>2010-07-17T19:34:38Z</time>
<desc>lat.=55.704300, lon.=26.086323, Alt.=127.553772m. Speed=0.000000m/h.</desc>
<speed>0.000000</speed>
</trkpt>
<trkpt lat="55.704300" lon="26.086323">
<ele>127.557678</ele>
<time>2010-07-17T19:34:39Z</time>
<desc>lat.=55.704300, lon.=26.086323, Alt.=127.557678m. Speed=0.036000m/h.</desc>
<speed>0.010000</speed>
</trkpt>
<trkpt lat="55.704300" lon="26.086323">
<ele>127.557678</ele>
<time>2010-07-17T19:34:40Z</time>
<desc>lat.=55.704300, lon.=26.086323, Alt.=127.557678m. Speed=0.036000m/h.</desc>
<speed>0.010000</speed>
</trkpt>
<trkpt lat="55.704300" lon="26.086323">
<ele>127.563538</ele>
<time>2010-07-17T19:34:41Z</time>
<desc>lat.=55.704300, lon.=26.086323, Alt.=127.563538m. Speed=0.072000m/h.</desc>
<speed>0.020000</speed>
</trkpt>
<trkpt lat="55.704300" lon="26.086325">
<ele>127.573303</ele>
<time>2010-07-17T19:34:42Z</time>
<desc>lat.=55.704300, lon.=26.086325, Alt.=127.573303m. Speed=0.036000m/h.</desc>
<speed>0.010000</speed>
</trkpt>
<trkpt lat="55.704300" lon="26.086325">
<ele>127.583069</ele>
<time>2010-07-17T19:34:43Z</time>
<desc>lat.=55.704300, lon.=26.086325, Alt.=127.583069m. Speed=0.000000m/h.</desc>
<speed>0.000000</speed>
</trkpt>
<trkpt lat="55.704300" lon="26.086325">
<ele>127.583069</ele>
<time>2010-07-17T19:34:44Z</time>
<desc>lat.=55.704300, lon.=26.086325, Alt.=127.583069m. Speed=0.000000m/h.</desc>
<speed>0.000000</speed>
</trkpt>
<trkpt lat="55.704300" lon="26.086325">
<ele>127.590881</ele>
<time>2010-07-17T19:34:45Z</time>
<desc>lat.=55.704300, lon.=26.086325, Alt.=127.590881m. Speed=0.000000m/h.</desc>
<speed>0.000000</speed>
</trkpt>
<trkpt lat="55.704300" lon="26.086325">
<ele>127.598694</ele>
<time>2010-07-17T19:34:46Z</time>
<desc>lat.=55.704300, lon.=26.086325, Alt.=127.598694m. Speed=0.000000m/h.</desc>
<speed>0.000000</speed>
</trkpt>
<trkpt lat="55.704300" lon="26.086325">
<ele>127.612366</ele>
<time>2010-07-17T19:34:47Z</time>
<desc>lat.=55.704300, lon.=26.086325, Alt.=127.612366m. Speed=0.000000m/h.</desc>
<speed>0.000000</speed>
</trkpt>
<trkpt lat="55.704300" lon="26.086325">
<ele>127.627991</ele>
<time>2010-07-17T19:34:48Z</time>
<desc>lat.=55.704300, lon.=26.086325, Alt.=127.627991m. Speed=0.036000m/h.</desc>
<speed>0.010000</speed>
</trkpt>
<trkpt lat="55.704300" lon="26.086325">
<ele>127.643616</ele>
<time>2010-07-17T19:34:49Z</time>
<desc>lat.=55.704300, lon.=26.086325, Alt.=127.643616m. Speed=0.000000m/h.</desc>
<speed>0.000000</speed>
</trkpt>
<trkpt lat="55.704300" lon="26.086325">
<ele>127.651428</ele>
<time>2010-07-17T19:34:50Z</time>
<desc>lat.=55.704300, lon.=26.086325, Alt.=127.651428m. Speed=0.000000m/h.</desc>
<speed>0.000000</speed>
</trkpt>
<trkpt lat="55.704300" lon="26.086325">
<ele>127.661194</ele>
<time>2010-07-17T19:34:51Z</time>
<desc>lat.=55.704300, lon.=26.086325, Alt.=127.661194m. Speed=0.000000m/h.</desc>
<speed>0.000000</speed>
</trkpt>
<trkpt lat="55.704300" lon="26.086325">
<ele>127.670959</ele>
<time>2010-07-17T19:34:52Z</time>
<desc>lat.=55.704300, lon.=26.086325, Alt.=127.670959m. Speed=0.000000m/h.</desc>
<speed>0.000000</speed>
</trkpt>
<trkpt lat="55.704300" lon="26.086325">
<ele>127.680725</ele>
<time>2010-07-17T19:34:53Z</time>
<desc>lat.=55.704300, lon.=26.086325, Alt.=127.680725m. Speed=0.000000m/h.</desc>
<speed>0.000000</speed>
</trkpt>
<trkpt lat="55.704300" lon="26.086325">
<ele>127.692444</ele>
<time>2010-07-17T19:34:54Z</time>
<desc>lat.=55.704300, lon.=26.086325, Alt.=127.692444m. Speed=0.036000m/h.</desc>
<speed>0.010000</speed>
</trkpt>
<trkpt lat="55.704300" lon="26.086325">
<ele>127.702209</ele>
<time>2010-07-17T19:34:55Z</time>
<desc>lat.=55.704300, lon.=26.086325, Alt.=127.702209m. Speed=0.036000m/h.</desc>
<speed>0.010000</speed>
</trkpt>
<trkpt lat="55.704300" lon="26.086325">
<ele>127.704163</ele>
<time>2010-07-17T19:34:56Z</time>
<desc>lat.=55.704300, lon.=26.086325, Alt.=127.704163m. Speed=0.000000m/h.</desc>
<speed>0.000000</speed>
</trkpt>
<trkpt lat="55.704300" lon="26.086325">
<ele>127.708069</ele>
<time>2010-07-17T19:34:57Z</time>
<desc>lat.=55.704300, lon.=26.086325, Alt.=127.708069m. Speed=0.000000m/h.</desc>
<speed>0.000000</speed>
</trkpt>
<trkpt lat="55.704300" lon="26.086325">
<ele>127.713928</ele>
<time>2010-07-17T19:34:58Z</time>
<desc>lat.=55.704300, lon.=26.086325, Alt.=127.713928m. Speed=0.000000m/h.</desc>
<speed>0.000000</speed>
</trkpt>
<trkpt lat="55.704300" lon="26.086325">
<ele>127.731506</ele>
<time>2010-07-17T19:34:59Z</time>
<desc>lat.=55.704300, lon.=26.086325, Alt.=127.731506m. Speed=0.000000m/h.</desc>
<speed>0.000000</speed>
</trkpt>
<trkpt lat="55.704300" lon="26.086325">
<ele>127.741272</ele>
<time>2010-07-17T19:35:00Z</time>
<desc>lat.=55.704300, lon.=26.086325, Alt.=127.741272m. Speed=0.000000m/h.</desc>
<speed>0.000000</speed>
</trkpt>
<trkpt lat="55.704300" lon="26.086325">
<ele>127.754944</ele>
<time>2010-07-17T19:35:01Z</time>
<desc>lat.=55.704300, lon.=26.086325, Alt.=127.754944m. Speed=0.000000m/h.</desc>
<speed>0.000000</speed>
</trkpt>
<trkpt lat="55.704300" lon="26.086325">
<ele>127.768616</ele>
<time>2010-07-17T19:35:02Z</time>
<desc>lat.=55.704300, lon.=26.086325, Alt.=127.768616m. Speed=0.000000m/h.</desc>
<speed>0.000000</speed>
</trkpt>
<trkpt lat="55.704300" lon="26.086325">
<ele>127.780334</ele>
<time>2010-07-17T19:35:03Z</time>
<desc>lat.=55.704300, lon.=26.086325, Alt.=127.780334m. Speed=0.000000m/h.</desc>
<speed>0.000000</speed>
</trkpt>
<trkpt lat="55.704300" lon="26.086325">
<ele>127.795959</ele>
<time>2010-07-17T19:35:04Z</time>
<desc>lat.=55.704300, lon.=26.086325, Alt.=127.795959m. Speed=0.000000m/h.</desc>
<speed>0.000000</speed>
</trkpt>
<trkpt lat="55.704300" lon="26.086325">
<ele>127.805725</ele>
<time>2010-07-17T19:35:05Z</time>
<desc>lat.=55.704300, lon.=26.086325, Alt.=127.805725m. Speed=0.000000m/h.</desc>
<speed>0.000000</speed>
</trkpt>
<trkpt lat="55.704300" lon="26.086325">
<ele>127.813538</ele>
<time>2010-07-17T19:35:06Z</time>
<desc>lat.=55.704300, lon.=26.086325, Alt.=127.813538m. Speed=0.036000m/h.</desc>
<speed>0.010000</speed>
</trkpt>
<trkpt lat="55.704300" lon="26.086325">
<ele>127.823303</ele>
<time>2010-07-17T19:35:07Z</time>
<desc>lat.=55.704300, lon.=26.086325, Alt.=127.823303m. Speed=0.000000m/h.</desc>
<speed>0.000000</speed>
</trkpt>
<trkpt lat="55.704300" lon="26.086325">
<ele>127.835022</ele>
<time>2010-07-17T19:35:08Z</time>
<desc>lat.=55.704300, lon.=26.086325, Alt.=127.835022m. Speed=0.036000m/h.</desc>
<speed>0.010000</speed>
</trkpt>
<trkpt lat="55.704300" lon="26.086325">
<ele>127.846741</ele>
<time>2010-07-17T19:35:09Z</time>
<desc>lat.=55.704300, lon.=26.086325, Alt.=127.846741m. Speed=0.000000m/h.</desc>
<speed>0.000000</speed>
</trkpt>
<trkpt lat="55.704300" lon="26.086325">
<ele>127.856506</ele>
<time>2010-07-17T19:35:10Z</time>
<desc>lat.=55.704300, lon.=26.086325, Alt.=127.856506m. Speed=0.036000m/h.</desc>
<speed>0.010000</speed>
</trkpt>
<trkpt lat="55.704300" lon="26.086325">
<ele>127.868225</ele>
<time>2010-07-17T19:35:11Z</time>
<desc>lat.=55.704300, lon.=26.086325, Alt.=127.868225m. Speed=0.000000m/h.</desc>
<speed>0.000000</speed>
</trkpt>
<trkpt lat="55.704300" lon="26.086325">
<ele>127.876038</ele>
<time>2010-07-17T19:35:12Z</time>
<desc>lat.=55.704300, lon.=26.086325, Alt.=127.876038m. Speed=0.000000m/h.</desc>
<speed>0.000000</speed>
</trkpt>
<trkpt lat="55.704300" lon="26.086325">
<ele>127.883850</ele>
<time>2010-07-17T19:35:13Z</time>
<desc>lat.=55.704300, lon.=26.086325, Alt.=127.883850m. Speed=0.072000m/h.</desc>
<speed>0.020000</speed>
</trkpt>
<trkpt lat="55.704300" lon="26.086325">
<ele>127.885803</ele>
<time>2010-07-17T19:35:14Z</time>
<desc>lat.=55.704300, lon.=26.086325, Alt.=127.885803m. Speed=0.036000m/h.</desc>
<speed>0.010000</speed>
</trkpt>
<trkpt lat="55.704300" lon="26.086325">
<ele>127.879944</ele>
<time>2010-07-17T19:35:15Z</time>
<desc>lat.=55.704300, lon.=26.086325, Alt.=127.879944m. Speed=0.000000m/h.</desc>
<speed>0.000000</speed>
</trkpt>
<trkpt lat="55.704300" lon="26.086327">
<ele>127.883850</ele>
<time>2010-07-17T19:35:16Z</time>
<desc>lat.=55.704300, lon.=26.086327, Alt.=127.883850m. Speed=0.000000m/h.</desc>
<speed>0.000000</speed>
</trkpt>
<trkpt lat="55.704300" lon="26.086327">
<ele>127.891663</ele>
<time>2010-07-17T19:35:17Z</time>
<desc>lat.=55.704300, lon.=26.086327, Alt.=127.891663m. Speed=0.000000m/h.</desc>
<speed>0.000000</speed>
</trkpt>
<trkpt lat="55.704300" lon="26.086327">
<ele>127.895569</ele>
<time>2010-07-17T19:35:18Z</time>
<desc>lat.=55.704300, lon.=26.086327, Alt.=127.895569m. Speed=0.036000m/h.</desc>
<speed>0.010000</speed>
</trkpt>
<trkpt lat="55.704300" lon="26.086327">
<ele>127.901428</ele>
<time>2010-07-17T19:35:19Z</time>
<desc>lat.=55.704300, lon.=26.086327, Alt.=127.901428m. Speed=0.036000m/h.</desc>
<speed>0.010000</speed>
</trkpt>
<trkpt lat="55.704300" lon="26.086327">
<ele>127.913147</ele>
<time>2010-07-17T19:35:20Z</time>
<desc>lat.=55.704300, lon.=26.086327, Alt.=127.913147m. Speed=0.036000m/h.</desc>
<speed>0.010000</speed>
</trkpt>
<trkpt lat="55.704300" lon="26.086327">
<ele>127.922913</ele>
<time>2010-07-17T19:35:21Z</time>
<desc>lat.=55.704300, lon.=26.086327, Alt.=127.922913m. Speed=0.036000m/h.</desc>
<speed>0.010000</speed>
</trkpt>
<trkpt lat="55.704300" lon="26.086327">
<ele>127.930725</ele>
<time>2010-07-17T19:35:22Z</time>
<desc>lat.=55.704300, lon.=26.086327, Alt.=127.930725m. Speed=0.108000m/h.</desc>
<speed>0.030000</speed>
</trkpt>
<trkpt lat="55.704300" lon="26.086327">
<ele>127.940491</ele>
<time>2010-07-17T19:35:23Z</time>
<desc>lat.=55.704300, lon.=26.086327, Alt.=127.940491m. Speed=0.072000m/h.</desc>
<speed>0.020000</speed>
</trkpt>
<trkpt lat="55.704300" lon="26.086327">
<ele>127.952209</ele>
<time>2010-07-17T19:35:24Z</time>
<desc>lat.=55.704300, lon.=26.086327, Alt.=127.952209m. Speed=0.108000m/h.</desc>
<speed>0.030000</speed>
</trkpt>
<trkpt lat="55.704300" lon="26.086327">
<ele>127.960022</ele>
<time>2010-07-17T19:35:25Z</time>
<desc>lat.=55.704300, lon.=26.086327, Alt.=127.960022m. Speed=0.072000m/h.</desc>
<speed>0.020000</speed>
</trkpt>
<trkpt lat="55.704300" lon="26.086327">
<ele>127.977600</ele>
<time>2010-07-17T19:35:26Z</time>
<desc>lat.=55.704300, lon.=26.086327, Alt.=127.977600m. Speed=0.036000m/h.</desc>
<speed>0.010000</speed>
</trkpt>
<trkpt lat="55.704300" lon="26.086327">
<ele>127.985413</ele>
<time>2010-07-17T19:35:27Z</time>
<desc>lat.=55.704300, lon.=26.086327, Alt.=127.985413m. Speed=0.072000m/h.</desc>
<speed>0.020000</speed>
</trkpt>
<trkpt lat="55.704300" lon="26.086327">
<ele>127.991272</ele>
<time>2010-07-17T19:35:28Z</time>
<desc>lat.=55.704300, lon.=26.086327, Alt.=127.991272m. Speed=0.036000m/h.</desc>
<speed>0.010000</speed>
</trkpt>
<trkpt lat="55.704300" lon="26.086327">
<ele>127.999084</ele>
<time>2010-07-17T19:35:29Z</time>
<desc>lat.=55.704300, lon.=26.086327, Alt.=127.999084m. Speed=0.036000m/h.</desc>
<speed>0.010000</speed>
</trkpt>
<trkpt lat="55.704300" lon="26.086327">
<ele>128.002075</ele>
<time>2010-07-17T19:35:30Z</time>
<desc>lat.=55.704300, lon.=26.086327, Alt.=128.002075m. Speed=0.036000m/h.</desc>
<speed>0.010000</speed>
</trkpt>
<trkpt lat="55.704300" lon="26.086327">
<ele>128.013794</ele>
<time>2010-07-17T19:35:31Z</time>
<desc>lat.=55.704300, lon.=26.086327, Alt.=128.013794m. Speed=0.036000m/h.</desc>
<speed>0.010000</speed>
</trkpt>
<trkpt lat="55.704300" lon="26.086329">
<ele>128.029419</ele>
<time>2010-07-17T19:35:32Z</time>
<desc>lat.=55.704300, lon.=26.086329, Alt.=128.029419m. Speed=0.072000m/h.</desc>
<speed>0.020000</speed>
</trkpt>
<trkpt lat="55.704300" lon="26.086329">
<ele>128.045044</ele>
<time>2010-07-17T19:35:33Z</time>
<desc>lat.=55.704300, lon.=26.086329, Alt.=128.045044m. Speed=0.036000m/h.</desc>
<speed>0.010000</speed>
</trkpt>
<trkpt lat="55.704300" lon="26.086329">
<ele>128.060669</ele>
<time>2010-07-17T19:35:34Z</time>
<desc>lat.=55.704300, lon.=26.086329, Alt.=128.060669m. Speed=0.000000m/h.</desc>
<speed>0.000000</speed>
</trkpt>
<trkpt lat="55.704300" lon="26.086329">
<ele>128.072388</ele>
<time>2010-07-17T19:35:35Z</time>
<desc>lat.=55.704300, lon.=26.086329, Alt.=128.072388m. Speed=0.000000m/h.</desc>
<speed>0.000000</speed>
</trkpt>
<trkpt lat="55.704300" lon="26.086329">
<ele>128.084106</ele>
<time>2010-07-17T19:35:36Z</time>
<desc>lat.=55.704300, lon.=26.086329, Alt.=128.084106m. Speed=0.000000m/h.</desc>
<speed>0.000000</speed>
</trkpt>
<trkpt lat="55.704300" lon="26.086329">
<ele>128.095825</ele>
<time>2010-07-17T19:35:37Z</time>
<desc>lat.=55.704300, lon.=26.086329, Alt.=128.095825m. Speed=0.036000m/h.</desc>
<speed>0.010000</speed>
</trkpt>
<trkpt lat="55.704300" lon="26.086329">
<ele>128.111450</ele>
<time>2010-07-17T19:35:38Z</time>
<desc>lat.=55.704300, lon.=26.086329, Alt.=128.111450m. Speed=0.108000m/h.</desc>
<speed>0.030000</speed>
</trkpt>
<trkpt lat="55.704300" lon="26.086329">
<ele>128.123169</ele>
<time>2010-07-17T19:35:39Z</time>
<desc>lat.=55.704300, lon.=26.086329, Alt.=128.123169m. Speed=0.072000m/h.</desc>
<speed>0.020000</speed>
</trkpt>
<trkpt lat="55.704300" lon="26.086329">
<ele>128.134888</ele>
<time>2010-07-17T19:35:40Z</time>
<desc>lat.=55.704300, lon.=26.086329, Alt.=128.134888m. Speed=0.036000m/h.</desc>
<speed>0.010000</speed>
</trkpt>
<trkpt lat="55.704300" lon="26.086329">
<ele>128.146606</ele>
<time>2010-07-17T19:35:41Z</time>
<desc>lat.=55.704300, lon.=26.086329, Alt.=128.146606m. Speed=0.000000m/h.</desc>
<speed>0.000000</speed>
</trkpt>
<trkpt lat="55.704300" lon="26.086329">
<ele>128.154419</ele>
<time>2010-07-17T19:35:42Z</time>
<desc>lat.=55.704300, lon.=26.086329, Alt.=128.154419m. Speed=0.108000m/h.</desc>
<speed>0.030000</speed>
</trkpt>
<trkpt lat="55.704300" lon="26.086329">
<ele>128.162231</ele>
<time>2010-07-17T19:35:43Z</time>
<desc>lat.=55.704300, lon.=26.086329, Alt.=128.162231m. Speed=0.108000m/h.</desc>
<speed>0.030000</speed>
</trkpt>
<trkpt lat="55.704300" lon="26.086329">
<ele>128.173950</ele>
<time>2010-07-17T19:35:44Z</time>
<desc>lat.=55.704300, lon.=26.086329, Alt.=128.173950m. Speed=0.036000m/h.</desc>
<speed>0.010000</speed>
</trkpt>
<trkpt lat="55.704300" lon="26.086329">
<ele>128.189575</ele>
<time>2010-07-17T19:35:45Z</time>
<desc>lat.=55.704300, lon.=26.086329, Alt.=128.189575m. Speed=0.036000m/h.</desc>
<speed>0.010000</speed>
</trkpt>
<trkpt lat="55.704300" lon="26.086330">
<ele>128.189575</ele>
<time>2010-07-17T19:35:46Z</time>
<desc>lat.=55.704300, lon.=26.086330, Alt.=128.189575m. Speed=0.000000m/h.</desc>
<speed>0.000000</speed>
</trkpt>
<trkpt lat="55.704300" lon="26.086330">
<ele>128.193481</ele>
<time>2010-07-17T19:35:47Z</time>
<desc>lat.=55.704300, lon.=26.086330, Alt.=128.193481m. Speed=0.072000m/h.</desc>
<speed>0.020000</speed>
</trkpt>
<trkpt lat="55.704300" lon="26.086330">
<ele>128.205200</ele>
<time>2010-07-17T19:35:48Z</time>
<desc>lat.=55.704300, lon.=26.086330, Alt.=128.205200m. Speed=0.000000m/h.</desc>
<speed>0.000000</speed>
</trkpt>
<trkpt lat="55.704300" lon="26.086330">
<ele>128.220825</ele>
<time>2010-07-17T19:35:49Z</time>
<desc>lat.=55.704300, lon.=26.086330, Alt.=128.220825m. Speed=0.000000m/h.</desc>
<speed>0.000000</speed>
</trkpt>
<trkpt lat="55.704300" lon="26.086330">
<ele>128.232544</ele>
<time>2010-07-17T19:35:50Z</time>
<desc>lat.=55.704300, lon.=26.086330, Alt.=128.232544m. Speed=0.036000m/h.</desc>
<speed>0.010000</speed>
</trkpt>
<trkpt lat="55.704300" lon="26.086330">
<ele>128.244263</ele>
<time>2010-07-17T19:35:51Z</time>
<desc>lat.=55.704300, lon.=26.086330, Alt.=128.244263m. Speed=0.000000m/h.</desc>
<speed>0.000000</speed>
</trkpt>
<trkpt lat="55.704300" lon="26.086330">
<ele>128.263794</ele>
<time>2010-07-17T19:35:52Z</time>
<desc>lat.=55.704300, lon.=26.086330, Alt.=128.263794m. Speed=0.036000m/h.</desc>
<speed>0.010000</speed>
</trkpt>
<trkpt lat="55.704300" lon="26.086330">
<ele>128.283325</ele>
<time>2010-07-17T19:35:53Z</time>
<desc>lat.=55.704300, lon.=26.086330, Alt.=128.283325m. Speed=0.036000m/h.</desc>
<speed>0.010000</speed>
</trkpt>
<trkpt lat="55.704300" lon="26.086330">
<ele>128.291138</ele>
<time>2010-07-17T19:35:54Z</time>
<desc>lat.=55.704300, lon.=26.086330, Alt.=128.291138m. Speed=0.036000m/h.</desc>
<speed>0.010000</speed>
</trkpt>
<trkpt lat="55.704300" lon="26.086330">
<ele>128.298950</ele>
<time>2010-07-17T19:35:55Z</time>
<desc>lat.=55.704300, lon.=26.086330, Alt.=128.298950m. Speed=0.036000m/h.</desc>
<speed>0.010000</speed>
</trkpt>
<trkpt lat="55.704300" lon="26.086330">
<ele>128.310669</ele>
<time>2010-07-17T19:35:56Z</time>
<desc>lat.=55.704300, lon.=26.086330, Alt.=128.310669m. Speed=0.072000m/h.</desc>
<speed>0.020000</speed>
</trkpt>
<trkpt lat="55.704300" lon="26.086330">
<ele>128.318481</ele>
<time>2010-07-17T19:35:57Z</time>
<desc>lat.=55.704300, lon.=26.086330, Alt.=128.318481m. Speed=0.108000m/h.</desc>
<speed>0.030000</speed>
</trkpt>
<trkpt lat="55.704300" lon="26.086330">
<ele>128.318481</ele>
<time>2010-07-17T19:35:58Z</time>
<desc>lat.=55.704300, lon.=26.086330, Alt.=128.318481m. Speed=0.036000m/h.</desc>
<speed>0.010000</speed>
</trkpt>
<trkpt lat="55.704300" lon="26.086330">
<ele>128.334106</ele>
<time>2010-07-17T19:35:59Z</time>
<desc>lat.=55.704300, lon.=26.086330, Alt.=128.334106m. Speed=0.000000m/h.</desc>
<speed>0.000000</speed>
</trkpt>
<trkpt lat="55.704300" lon="26.086330">
<ele>128.345825</ele>
<time>2010-07-17T19:36:00Z</time>
<desc>lat.=55.704300, lon.=26.086330, Alt.=128.345825m. Speed=0.000000m/h.</desc>
<speed>0.000000</speed>
</trkpt>
<trkpt lat="55.704300" lon="26.086330">
<ele>128.357544</ele>
<time>2010-07-17T19:36:01Z</time>
<desc>lat.=55.704300, lon.=26.086330, Alt.=128.357544m. Speed=0.036000m/h.</desc>
<speed>0.010000</speed>
</trkpt>
<trkpt lat="55.704300" lon="26.086330">
<ele>128.369263</ele>
<time>2010-07-17T19:36:02Z</time>
<desc>lat.=55.704300, lon.=26.086330, Alt.=128.369263m. Speed=0.108000m/h.</desc>
<speed>0.030000</speed>
</trkpt>
<trkpt lat="55.704300" lon="26.086330">
<ele>128.377075</ele>
<time>2010-07-17T19:36:03Z</time>
<desc>lat.=55.704300, lon.=26.086330, Alt.=128.377075m. Speed=0.036000m/h.</desc>
<speed>0.010000</speed>
</trkpt>
<trkpt lat="55.704300" lon="26.086330">
<ele>128.384888</ele>
<time>2010-07-17T19:36:04Z</time>
<desc>lat.=55.704300, lon.=26.086330, Alt.=128.384888m. Speed=0.000000m/h.</desc>
<speed>0.000000</speed>
</trkpt>
<trkpt lat="55.704300" lon="26.086330">
<ele>128.388794</ele>
<time>2010-07-17T19:36:05Z</time>
<desc>lat.=55.704300, lon.=26.086330, Alt.=128.388794m. Speed=0.000000m/h.</desc>
<speed>0.000000</speed>
</trkpt>
<trkpt lat="55.704300" lon="26.086330">
<ele>128.396606</ele>
<time>2010-07-17T19:36:06Z</time>
<desc>lat.=55.704300, lon.=26.086330, Alt.=128.396606m. Speed=0.000000m/h.</desc>
<speed>0.000000</speed>
</trkpt>
<trkpt lat="55.704300" lon="26.086330">
<ele>128.404419</ele>
<time>2010-07-17T19:36:07Z</time>
<desc>lat.=55.704300, lon.=26.086330, Alt.=128.404419m. Speed=0.036000m/h.</desc>
<speed>0.010000</speed>
</trkpt>
<trkpt lat="55.704300" lon="26.086330">
<ele>128.416138</ele>
<time>2010-07-17T19:36:08Z</time>
<desc>lat.=55.704300, lon.=26.086330, Alt.=128.416138m. Speed=0.036000m/h.</desc>
<speed>0.010000</speed>
</trkpt>
<trkpt lat="55.704300" lon="26.086330">
<ele>128.431763</ele>
<time>2010-07-17T19:36:09Z</time>
<desc>lat.=55.704300, lon.=26.086330, Alt.=128.431763m. Speed=0.000000m/h.</desc>
<speed>0.000000</speed>
</trkpt>
<trkpt lat="55.704300" lon="26.086330">
<ele>128.439575</ele>
<time>2010-07-17T19:36:10Z</time>
<desc>lat.=55.704300, lon.=26.086330, Alt.=128.439575m. Speed=0.000000m/h.</desc>
<speed>0.000000</speed>
</trkpt>
<trkpt lat="55.704300" lon="26.086330">
<ele>128.451294</ele>
<time>2010-07-17T19:36:11Z</time>
<desc>lat.=55.704300, lon.=26.086330, Alt.=128.451294m. Speed=0.000000m/h.</desc>
<speed>0.000000</speed>
</trkpt>
<trkpt lat="55.704300" lon="26.086330">
<ele>128.459106</ele>
<time>2010-07-17T19:36:12Z</time>
<desc>lat.=55.704300, lon.=26.086330, Alt.=128.459106m. Speed=0.072000m/h.</desc>
<speed>0.020000</speed>
</trkpt>
<trkpt lat="55.704300" lon="26.086330">
<ele>128.470825</ele>
<time>2010-07-17T19:36:13Z</time>
<desc>lat.=55.704300, lon.=26.086330, Alt.=128.470825m. Speed=0.072000m/h.</desc>
<speed>0.020000</speed>
</trkpt>
<trkpt lat="55.704304" lon="26.086330">
<ele>128.482544</ele>
<time>2010-07-17T19:36:14Z</time>
<desc>lat.=55.704304, lon.=26.086330, Alt.=128.482544m. Speed=0.000000m/h.</desc>
<speed>0.000000</speed>
</trkpt>
<trkpt lat="55.704304" lon="26.086330">
<ele>128.494263</ele>
<time>2010-07-17T19:36:15Z</time>
<desc>lat.=55.704304, lon.=26.086330, Alt.=128.494263m. Speed=0.000000m/h.</desc>
<speed>0.000000</speed>
</trkpt>
<trkpt lat="55.704304" lon="26.086330">
<ele>128.505981</ele>
<time>2010-07-17T19:36:16Z</time>
<desc>lat.=55.704304, lon.=26.086330, Alt.=128.505981m. Speed=0.000000m/h.</desc>
<speed>0.000000</speed>
</trkpt>
<trkpt lat="55.704304" lon="26.086330">
<ele>128.505981</ele>
<time>2010-07-17T19:36:17Z</time>
<desc>lat.=55.704304, lon.=26.086330, Alt.=128.505981m. Speed=0.036000m/h.</desc>
<speed>0.010000</speed>
</trkpt>
<trkpt lat="55.704304" lon="26.086330">
<ele>128.509888</ele>
<time>2010-07-17T19:36:18Z</time>
<desc>lat.=55.704304, lon.=26.086330, Alt.=128.509888m. Speed=0.072000m/h.</desc>
<speed>0.020000</speed>
</trkpt>
<trkpt lat="55.704304" lon="26.086332">
<ele>128.505981</ele>
<time>2010-07-17T19:36:19Z</time>
<desc>lat.=55.704304, lon.=26.086332, Alt.=128.505981m. Speed=0.108000m/h.</desc>
<speed>0.030000</speed>
</trkpt>
<trkpt lat="55.704304" lon="26.086332">
<ele>128.505981</ele>
<time>2010-07-17T19:36:20Z</time>
<desc>lat.=55.704304, lon.=26.086332, Alt.=128.505981m. Speed=0.108000m/h.</desc>
<speed>0.030000</speed>
</trkpt>
<trkpt lat="55.704304" lon="26.086332">
<ele>128.513794</ele>
<time>2010-07-17T19:36:21Z</time>
<desc>lat.=55.704304, lon.=26.086332, Alt.=128.513794m. Speed=0.036000m/h.</desc>
<speed>0.010000</speed>
</trkpt>
<trkpt lat="55.704304" lon="26.086332">
<ele>128.525513</ele>
<time>2010-07-17T19:36:22Z</time>
<desc>lat.=55.704304, lon.=26.086332, Alt.=128.525513m. Speed=0.036000m/h.</desc>
<speed>0.010000</speed>
</trkpt>
<trkpt lat="55.704304" lon="26.086332">
<ele>128.537231</ele>
<time>2010-07-17T19:36:23Z</time>
<desc>lat.=55.704304, lon.=26.086332, Alt.=128.537231m. Speed=0.000000m/h.</desc>
<speed>0.000000</speed>
</trkpt>
<trkpt lat="55.704304" lon="26.086332">
<ele>128.548950</ele>
<time>2010-07-17T19:36:24Z</time>
<desc>lat.=55.704304, lon.=26.086332, Alt.=128.548950m. Speed=0.036000m/h.</desc>
<speed>0.010000</speed>
</trkpt>
<trkpt lat="55.704304" lon="26.086332">
<ele>128.560669</ele>
<time>2010-07-17T19:36:25Z</time>
<desc>lat.=55.704304, lon.=26.086332, Alt.=128.560669m. Speed=0.000000m/h.</desc>
<speed>0.000000</speed>
</trkpt>
<trkpt lat="55.704304" lon="26.086332">
<ele>128.568481</ele>
<time>2010-07-17T19:36:26Z</time>
<desc>lat.=55.704304, lon.=26.086332, Alt.=128.568481m. Speed=0.072000m/h.</desc>
<speed>0.020000</speed>
</trkpt>
<trkpt lat="55.704304" lon="26.086332">
<ele>128.576294</ele>
<time>2010-07-17T19:36:27Z</time>
<desc>lat.=55.704304, lon.=26.086332, Alt.=128.576294m. Speed=0.072000m/h.</desc>
<speed>0.020000</speed>
</trkpt>
<trkpt lat="55.704304" lon="26.086332">
<ele>128.584106</ele>
<time>2010-07-17T19:36:28Z</time>
<desc>lat.=55.704304, lon.=26.086332, Alt.=128.584106m. Speed=0.000000m/h.</desc>
<speed>0.000000</speed>
</trkpt>
<trkpt lat="55.704304" lon="26.086332">
<ele>128.599731</ele>
<time>2010-07-17T19:36:29Z</time>
<desc>lat.=55.704304, lon.=26.086332, Alt.=128.599731m. Speed=0.000000m/h.</desc>
<speed>0.000000</speed>
</trkpt>
<trkpt lat="55.704304" lon="26.086332">
<ele>128.611450</ele>
<time>2010-07-17T19:36:30Z</time>
<desc>lat.=55.704304, lon.=26.086332, Alt.=128.611450m. Speed=0.036000m/h.</desc>
<speed>0.010000</speed>
</trkpt>
<trkpt lat="55.704304" lon="26.086332">
<ele>128.619263</ele>
<time>2010-07-17T19:36:31Z</time>
<desc>lat.=55.704304, lon.=26.086332, Alt.=128.619263m. Speed=0.000000m/h.</desc>
<speed>0.000000</speed>
</trkpt>
<trkpt lat="55.704304" lon="26.086332">
<ele>128.627075</ele>
<time>2010-07-17T19:36:32Z</time>
<desc>lat.=55.704304, lon.=26.086332, Alt.=128.627075m. Speed=0.000000m/h.</desc>
<speed>0.000000</speed>
</trkpt>
<trkpt lat="55.704304" lon="26.086332">
<ele>128.638794</ele>
<time>2010-07-17T19:36:33Z</time>
<desc>lat.=55.704304, lon.=26.086332, Alt.=128.638794m. Speed=0.000000m/h.</desc>
<speed>0.000000</speed>
</trkpt>
<trkpt lat="55.704304" lon="26.086332">
<ele>128.650513</ele>
<time>2010-07-17T19:36:34Z</time>
<desc>lat.=55.704304, lon.=26.086332, Alt.=128.650513m. Speed=0.000000m/h.</desc>
<speed>0.000000</speed>
</trkpt>
<trkpt lat="55.704304" lon="26.086332">
<ele>128.666138</ele>
<time>2010-07-17T19:36:35Z</time>
<desc>lat.=55.704304, lon.=26.086332, Alt.=128.666138m. Speed=0.036000m/h.</desc>
<speed>0.010000</speed>
</trkpt>
<trkpt lat="55.704304" lon="26.086332">
<ele>128.689575</ele>
<time>2010-07-17T19:36:36Z</time>
<desc>lat.=55.704304, lon.=26.086332, Alt.=128.689575m. Speed=0.036000m/h.</desc>
<speed>0.010000</speed>
</trkpt>
<trkpt lat="55.704304" lon="26.086332">
<ele>128.713013</ele>
<time>2010-07-17T19:36:37Z</time>
<desc>lat.=55.704304, lon.=26.086332, Alt.=128.713013m. Speed=0.000000m/h.</desc>
<speed>0.000000</speed>
</trkpt>
<trkpt lat="55.704304" lon="26.086332">
<ele>128.740356</ele>
<time>2010-07-17T19:36:38Z</time>
<desc>lat.=55.704304, lon.=26.086332, Alt.=128.740356m. Speed=0.000000m/h.</desc>
<speed>0.000000</speed>
</trkpt>
<trkpt lat="55.704304" lon="26.086332">
<ele>128.775513</ele>
<time>2010-07-17T19:36:39Z</time>
<desc>lat.=55.704304, lon.=26.086332, Alt.=128.775513m. Speed=0.036000m/h.</desc>
<speed>0.010000</speed>
</trkpt>
<trkpt lat="55.704304" lon="26.086332">
<ele>128.806763</ele>
<time>2010-07-17T19:36:40Z</time>
<desc>lat.=55.704304, lon.=26.086332, Alt.=128.806763m. Speed=0.000000m/h.</desc>
<speed>0.000000</speed>
</trkpt>
<trkpt lat="55.704304" lon="26.086332">
<ele>128.841919</ele>
<time>2010-07-17T19:36:41Z</time>
<desc>lat.=55.704304, lon.=26.086332, Alt.=128.841919m. Speed=0.000000m/h.</desc>
<speed>0.000000</speed>
</trkpt>
<trkpt lat="55.704304" lon="26.086332">
<ele>128.873169</ele>
<time>2010-07-17T19:36:42Z</time>
<desc>lat.=55.704304, lon.=26.086332, Alt.=128.873169m. Speed=0.036000m/h.</desc>
<speed>0.010000</speed>
</trkpt>
<trkpt lat="55.704304" lon="26.086332">
<ele>128.908325</ele>
<time>2010-07-17T19:36:43Z</time>
<desc>lat.=55.704304, lon.=26.086332, Alt.=128.908325m. Speed=0.000000m/h.</desc>
<speed>0.000000</speed>
</trkpt>
<trkpt lat="55.704304" lon="26.086332">
<ele>128.951294</ele>
<time>2010-07-17T19:36:44Z</time>
<desc>lat.=55.704304, lon.=26.086332, Alt.=128.951294m. Speed=0.036000m/h.</desc>
<speed>0.010000</speed>
</trkpt>
<trkpt lat="55.704304" lon="26.086332">
<ele>128.994263</ele>
<time>2010-07-17T19:36:45Z</time>
<desc>lat.=55.704304, lon.=26.086332, Alt.=128.994263m. Speed=0.036000m/h.</desc>
<speed>0.010000</speed>
</trkpt>
<trkpt lat="55.704304" lon="26.086332">
<ele>129.041138</ele>
<time>2010-07-17T19:36:46Z</time>
<desc>lat.=55.704304, lon.=26.086332, Alt.=129.041138m. Speed=0.072000m/h.</desc>
<speed>0.020000</speed>
</trkpt>
<trkpt lat="55.704304" lon="26.086332">
<ele>129.091919</ele>
<time>2010-07-17T19:36:47Z</time>
<desc>lat.=55.704304, lon.=26.086332, Alt.=129.091919m. Speed=0.000000m/h.</desc>
<speed>0.000000</speed>
</trkpt>
<trkpt lat="55.704304" lon="26.086332">
<ele>129.134888</ele>
<time>2010-07-17T19:36:48Z</time>
<desc>lat.=55.704304, lon.=26.086332, Alt.=129.134888m. Speed=0.036000m/h.</desc>
<speed>0.010000</speed>
</trkpt>
<trkpt lat="55.704304" lon="26.086332">
<ele>129.193481</ele>
<time>2010-07-17T19:36:49Z</time>
<desc>lat.=55.704304, lon.=26.086332, Alt.=129.193481m. Speed=0.072000m/h.</desc>
<speed>0.020000</speed>
</trkpt>
<trkpt lat="55.704304" lon="26.086332">
<ele>129.244263</ele>
<time>2010-07-17T19:36:50Z</time>
<desc>lat.=55.704304, lon.=26.086332, Alt.=129.244263m. Speed=0.000000m/h.</desc>
<speed>0.000000</speed>
</trkpt>
<trkpt lat="55.704304" lon="26.086332">
<ele>129.298950</ele>
<time>2010-07-17T19:36:51Z</time>
<desc>lat.=55.704304, lon.=26.086332, Alt.=129.298950m. Speed=0.036000m/h.</desc>
<speed>0.010000</speed>
</trkpt>
<trkpt lat="55.704304" lon="26.086332">
<ele>129.349731</ele>
<time>2010-07-17T19:36:52Z</time>
<desc>lat.=55.704304, lon.=26.086332, Alt.=129.349731m. Speed=0.036000m/h.</desc>
<speed>0.010000</speed>
</trkpt>
<trkpt lat="55.704304" lon="26.086332">
<ele>129.400513</ele>
<time>2010-07-17T19:36:53Z</time>
<desc>lat.=55.704304, lon.=26.086332, Alt.=129.400513m. Speed=0.036000m/h.</desc>
<speed>0.010000</speed>
</trkpt>
<trkpt lat="55.704304" lon="26.086332">
<ele>129.447388</ele>
<time>2010-07-17T19:36:54Z</time>
<desc>lat.=55.704304, lon.=26.086332, Alt.=129.447388m. Speed=0.036000m/h.</desc>
<speed>0.010000</speed>
</trkpt>
<trkpt lat="55.704304" lon="26.086332">
<ele>129.498169</ele>
<time>2010-07-17T19:36:55Z</time>
<desc>lat.=55.704304, lon.=26.086332, Alt.=129.498169m. Speed=0.036000m/h.</desc>
<speed>0.010000</speed>
</trkpt>
<trkpt lat="55.704304" lon="26.086332">
<ele>129.552856</ele>
<time>2010-07-17T19:36:56Z</time>
<desc>lat.=55.704304, lon.=26.086332, Alt.=129.552856m. Speed=0.036000m/h.</desc>
<speed>0.010000</speed>
</trkpt>
<trkpt lat="55.704304" lon="26.086332">
<ele>129.595825</ele>
<time>2010-07-17T19:36:57Z</time>
<desc>lat.=55.704304, lon.=26.086332, Alt.=129.595825m. Speed=0.036000m/h.</desc>
<speed>0.010000</speed>
</trkpt>
<trkpt lat="55.704308" lon="26.086332">
<ele>129.646606</ele>
<time>2010-07-17T19:36:58Z</time>
<desc>lat.=55.704308, lon.=26.086332, Alt.=129.646606m. Speed=0.000000m/h.</desc>
<speed>0.000000</speed>
</trkpt>
<trkpt lat="55.704308" lon="26.086332">
<ele>129.693481</ele>
<time>2010-07-17T19:36:59Z</time>
<desc>lat.=55.704308, lon.=26.086332, Alt.=129.693481m. Speed=0.036000m/h.</desc>
<speed>0.010000</speed>
</trkpt>
<trkpt lat="55.704308" lon="26.086332">
<ele>129.693481</ele>
<time>2010-07-17T19:37:00Z</time>
<desc>lat.=55.704308, lon.=26.086332, Alt.=129.693481m. Speed=0.000000m/h.</desc>
<speed>0.000000</speed>
</trkpt>
<trkpt lat="55.704308" lon="26.086332">
<ele>129.693481</ele>
<time>2010-07-17T19:37:01Z</time>
<desc>lat.=55.704308, lon.=26.086332, Alt.=129.693481m. Speed=0.000000m/h.</desc>
<speed>0.000000</speed>
</trkpt>
<trkpt lat="55.704308" lon="26.086332">
<ele>129.689575</ele>
<time>2010-07-17T19:37:02Z</time>
<desc>lat.=55.704308, lon.=26.086332, Alt.=129.689575m. Speed=0.036000m/h.</desc>
<speed>0.010000</speed>
</trkpt>
<trkpt lat="55.704308" lon="26.086332">
<ele>129.689575</ele>
<time>2010-07-17T19:37:03Z</time>
<desc>lat.=55.704308, lon.=26.086332, Alt.=129.689575m. Speed=0.000000m/h.</desc>
<speed>0.000000</speed>
</trkpt>
<trkpt lat="55.704308" lon="26.086332">
<ele>129.689575</ele>
<time>2010-07-17T19:37:04Z</time>
<desc>lat.=55.704308, lon.=26.086332, Alt.=129.689575m. Speed=0.000000m/h.</desc>
<speed>0.000000</speed>
</trkpt>
<trkpt lat="55.704308" lon="26.086332">
<ele>129.693481</ele>
<time>2010-07-17T19:37:05Z</time>
<desc>lat.=55.704308, lon.=26.086332, Alt.=129.693481m. Speed=0.000000m/h.</desc>
<speed>0.000000</speed>
</trkpt>
<trkpt lat="55.704308" lon="26.086332">
<ele>129.697388</ele>
<time>2010-07-17T19:37:06Z</time>
<desc>lat.=55.704308, lon.=26.086332, Alt.=129.697388m. Speed=0.000000m/h.</desc>
<speed>0.000000</speed>
</trkpt>
<trkpt lat="55.704308" lon="26.086332">
<ele>129.701294</ele>
<time>2010-07-17T19:37:07Z</time>
<desc>lat.=55.704308, lon.=26.086332, Alt.=129.701294m. Speed=0.000000m/h.</desc>
<speed>0.000000</speed>
</trkpt>
<trkpt lat="55.704308" lon="26.086332">
<ele>129.705200</ele>
<time>2010-07-17T19:37:08Z</time>
<desc>lat.=55.704308, lon.=26.086332, Alt.=129.705200m. Speed=0.000000m/h.</desc>
<speed>0.000000</speed>
</trkpt>
<trkpt lat="55.704308" lon="26.086332">
<ele>129.701294</ele>
<time>2010-07-17T19:37:09Z</time>
<desc>lat.=55.704308, lon.=26.086332, Alt.=129.701294m. Speed=0.036000m/h.</desc>
<speed>0.010000</speed>
</trkpt>
<trkpt lat="55.704308" lon="26.086332">
<ele>129.709106</ele>
<time>2010-07-17T19:37:10Z</time>
<desc>lat.=55.704308, lon.=26.086332, Alt.=129.709106m. Speed=0.000000m/h.</desc>
<speed>0.000000</speed>
</trkpt>
<trkpt lat="55.704308" lon="26.086332">
<ele>129.713013</ele>
<time>2010-07-17T19:37:11Z</time>
<desc>lat.=55.704308, lon.=26.086332, Alt.=129.713013m. Speed=0.036000m/h.</desc>
<speed>0.010000</speed>
</trkpt>
<trkpt lat="55.704308" lon="26.086332">
<ele>129.720825</ele>
<time>2010-07-17T19:37:12Z</time>
<desc>lat.=55.704308, lon.=26.086332, Alt.=129.720825m. Speed=0.000000m/h.</desc>
<speed>0.000000</speed>
</trkpt>
<trkpt lat="55.704308" lon="26.086332">
<ele>129.732544</ele>
<time>2010-07-17T19:37:13Z</time>
<desc>lat.=55.704308, lon.=26.086332, Alt.=129.732544m. Speed=0.036000m/h.</desc>
<speed>0.010000</speed>
</trkpt>
<trkpt lat="55.704308" lon="26.086332">
<ele>129.740356</ele>
<time>2010-07-17T19:37:14Z</time>
<desc>lat.=55.704308, lon.=26.086332, Alt.=129.740356m. Speed=0.000000m/h.</desc>
<speed>0.000000</speed>
</trkpt>
<trkpt lat="55.704308" lon="26.086332">
<ele>129.755981</ele>
<time>2010-07-17T19:37:15Z</time>
<desc>lat.=55.704308, lon.=26.086332, Alt.=129.755981m. Speed=0.036000m/h.</desc>
<speed>0.010000</speed>
</trkpt>
<trkpt lat="55.704308" lon="26.086332">
<ele>129.763794</ele>
<time>2010-07-17T19:37:16Z</time>
<desc>lat.=55.704308, lon.=26.086332, Alt.=129.763794m. Speed=0.000000m/h.</desc>
<speed>0.000000</speed>
</trkpt>
<trkpt lat="55.704308" lon="26.086332">
<ele>129.771606</ele>
<time>2010-07-17T19:37:17Z</time>
<desc>lat.=55.704308, lon.=26.086332, Alt.=129.771606m. Speed=0.000000m/h.</desc>
<speed>0.000000</speed>
</trkpt>
<trkpt lat="55.704308" lon="26.086332">
<ele>129.779419</ele>
<time>2010-07-17T19:37:18Z</time>
<desc>lat.=55.704308, lon.=26.086332, Alt.=129.779419m. Speed=0.036000m/h.</desc>
<speed>0.010000</speed>
</trkpt>
<trkpt lat="55.704308" lon="26.086332">
<ele>129.791138</ele>
<time>2010-07-17T19:37:19Z</time>
<desc>lat.=55.704308, lon.=26.086332, Alt.=129.791138m. Speed=0.000000m/h.</desc>
<speed>0.000000</speed>
</trkpt>
<trkpt lat="55.704308" lon="26.086332">
<ele>129.806763</ele>
<time>2010-07-17T19:37:20Z</time>
<desc>lat.=55.704308, lon.=26.086332, Alt.=129.806763m. Speed=0.036000m/h.</desc>
<speed>0.010000</speed>
</trkpt>
<trkpt lat="55.704308" lon="26.086332">
<ele>129.818481</ele>
<time>2010-07-17T19:37:21Z</time>
<desc>lat.=55.704308, lon.=26.086332, Alt.=129.818481m. Speed=0.036000m/h.</desc>
<speed>0.010000</speed>
</trkpt>
<trkpt lat="55.704308" lon="26.086332">
<ele>129.830200</ele>
<time>2010-07-17T19:37:22Z</time>
<desc>lat.=55.704308, lon.=26.086332, Alt.=129.830200m. Speed=0.036000m/h.</desc>
<speed>0.010000</speed>
</trkpt>
<trkpt lat="55.704308" lon="26.086332">
<ele>129.834106</ele>
<time>2010-07-17T19:37:23Z</time>
<desc>lat.=55.704308, lon.=26.086332, Alt.=129.834106m. Speed=0.108000m/h.</desc>
<speed>0.030000</speed>
</trkpt>
<trkpt lat="55.704308" lon="26.086332">
<ele>129.841919</ele>
<time>2010-07-17T19:37:24Z</time>
<desc>lat.=55.704308, lon.=26.086332, Alt.=129.841919m. Speed=0.000000m/h.</desc>
<speed>0.000000</speed>
</trkpt>
<trkpt lat="55.704308" lon="26.086332">
<ele>129.849731</ele>
<time>2010-07-17T19:37:25Z</time>
<desc>lat.=55.704308, lon.=26.086332, Alt.=129.849731m. Speed=0.036000m/h.</desc>
<speed>0.010000</speed>
</trkpt>
<trkpt lat="55.704308" lon="26.086332">
<ele>129.857544</ele>
<time>2010-07-17T19:37:26Z</time>
<desc>lat.=55.704308, lon.=26.086332, Alt.=129.857544m. Speed=0.000000m/h.</desc>
<speed>0.000000</speed>
</trkpt>
<trkpt lat="55.704308" lon="26.086332">
<ele>129.869263</ele>
<time>2010-07-17T19:37:27Z</time>
<desc>lat.=55.704308, lon.=26.086332, Alt.=129.869263m. Speed=0.000000m/h.</desc>
<speed>0.000000</speed>
</trkpt>
<trkpt lat="55.704308" lon="26.086332">
<ele>129.877075</ele>
<time>2010-07-17T19:37:28Z</time>
<desc>lat.=55.704308, lon.=26.086332, Alt.=129.877075m. Speed=0.036000m/h.</desc>
<speed>0.010000</speed>
</trkpt>
<trkpt lat="55.704308" lon="26.086332">
<ele>129.888794</ele>
<time>2010-07-17T19:37:29Z</time>
<desc>lat.=55.704308, lon.=26.086332, Alt.=129.888794m. Speed=0.036000m/h.</desc>
<speed>0.010000</speed>
</trkpt>
<trkpt lat="55.704308" lon="26.086332">
<ele>129.900513</ele>
<time>2010-07-17T19:37:30Z</time>
<desc>lat.=55.704308, lon.=26.086332, Alt.=129.900513m. Speed=0.036000m/h.</desc>
<speed>0.010000</speed>
</trkpt>
<trkpt lat="55.704308" lon="26.086332">
<ele>129.912231</ele>
<time>2010-07-17T19:37:31Z</time>
<desc>lat.=55.704308, lon.=26.086332, Alt.=129.912231m. Speed=0.000000m/h.</desc>
<speed>0.000000</speed>
</trkpt>
<trkpt lat="55.704308" lon="26.086332">
<ele>129.916138</ele>
<time>2010-07-17T19:37:32Z</time>
<desc>lat.=55.704308, lon.=26.086332, Alt.=129.916138m. Speed=0.000000m/h.</desc>
<speed>0.000000</speed>
</trkpt>
<trkpt lat="55.704308" lon="26.086332">
<ele>129.916138</ele>
<time>2010-07-17T19:37:33Z</time>
<desc>lat.=55.704308, lon.=26.086332, Alt.=129.916138m. Speed=0.000000m/h.</desc>
<speed>0.000000</speed>
</trkpt>
<trkpt lat="55.704308" lon="26.086332">
<ele>129.923950</ele>
<time>2010-07-17T19:37:34Z</time>
<desc>lat.=55.704308, lon.=26.086332, Alt.=129.923950m. Speed=0.000000m/h.</desc>
<speed>0.000000</speed>
</trkpt>
<trkpt lat="55.704308" lon="26.086332">
<ele>129.927856</ele>
<time>2010-07-17T19:37:35Z</time>
<desc>lat.=55.704308, lon.=26.086332, Alt.=129.927856m. Speed=0.000000m/h.</desc>
<speed>0.000000</speed>
</trkpt>
<trkpt lat="55.704308" lon="26.086332">
<ele>129.927856</ele>
<time>2010-07-17T19:37:36Z</time>
<desc>lat.=55.704308, lon.=26.086332, Alt.=129.927856m. Speed=0.000000m/h.</desc>
<speed>0.000000</speed>
</trkpt>
<trkpt lat="55.704308" lon="26.086332">
<ele>129.927856</ele>
<time>2010-07-17T19:37:37Z</time>
<desc>lat.=55.704308, lon.=26.086332, Alt.=129.927856m. Speed=0.000000m/h.</desc>
<speed>0.000000</speed>
</trkpt>
<trkpt lat="55.704308" lon="26.086332">
<ele>129.931763</ele>
<time>2010-07-17T19:37:38Z</time>
<desc>lat.=55.704308, lon.=26.086332, Alt.=129.931763m. Speed=0.036000m/h.</desc>
<speed>0.010000</speed>
</trkpt>
<trkpt lat="55.704308" lon="26.086332">
<ele>129.939575</ele>
<time>2010-07-17T19:37:39Z</time>
<desc>lat.=55.704308, lon.=26.086332, Alt.=129.939575m. Speed=0.000000m/h.</desc>
<speed>0.000000</speed>
</trkpt>
<trkpt lat="55.704308" lon="26.086332">
<ele>129.951294</ele>
<time>2010-07-17T19:37:40Z</time>
<desc>lat.=55.704308, lon.=26.086332, Alt.=129.951294m. Speed=0.000000m/h.</desc>
<speed>0.000000</speed>
</trkpt>
<trkpt lat="55.704308" lon="26.086332">
<ele>129.963013</ele>
<time>2010-07-17T19:37:41Z</time>
<desc>lat.=55.704308, lon.=26.086332, Alt.=129.963013m. Speed=0.036000m/h.</desc>
<speed>0.010000</speed>
</trkpt>
<trkpt lat="55.704308" lon="26.086332">
<ele>129.963013</ele>
<time>2010-07-17T19:37:42Z</time>
<desc>lat.=55.704308, lon.=26.086332, Alt.=129.963013m. Speed=0.072000m/h.</desc>
<speed>0.020000</speed>
</trkpt>
<trkpt lat="55.704308" lon="26.086332">
<ele>129.970825</ele>
<time>2010-07-17T19:37:43Z</time>
<desc>lat.=55.704308, lon.=26.086332, Alt.=129.970825m. Speed=0.072000m/h.</desc>
<speed>0.020000</speed>
</trkpt>
<trkpt lat="55.704308" lon="26.086332">
<ele>129.986450</ele>
<time>2010-07-17T19:37:44Z</time>
<desc>lat.=55.704308, lon.=26.086332, Alt.=129.986450m. Speed=0.036000m/h.</desc>
<speed>0.010000</speed>
</trkpt>
<trkpt lat="55.704308" lon="26.086332">
<ele>129.990356</ele>
<time>2010-07-17T19:37:45Z</time>
<desc>lat.=55.704308, lon.=26.086332, Alt.=129.990356m. Speed=0.036000m/h.</desc>
<speed>0.010000</speed>
</trkpt>
<trkpt lat="55.704308" lon="26.086332">
<ele>129.994263</ele>
<time>2010-07-17T19:37:46Z</time>
<desc>lat.=55.704308, lon.=26.086332, Alt.=129.994263m. Speed=0.072000m/h.</desc>
<speed>0.020000</speed>
</trkpt>
<trkpt lat="55.704308" lon="26.086334">
<ele>129.998169</ele>
<time>2010-07-17T19:37:47Z</time>
<desc>lat.=55.704308, lon.=26.086334, Alt.=129.998169m. Speed=0.036000m/h.</desc>
<speed>0.010000</speed>
</trkpt>
<trkpt lat="55.704308" lon="26.086334">
<ele>130.005981</ele>
<time>2010-07-17T19:37:48Z</time>
<desc>lat.=55.704308, lon.=26.086334, Alt.=130.005981m. Speed=0.072000m/h.</desc>
<speed>0.020000</speed>
</trkpt>
<trkpt lat="55.704308" lon="26.086334">
<ele>130.013794</ele>
<time>2010-07-17T19:37:49Z</time>
<desc>lat.=55.704308, lon.=26.086334, Alt.=130.013794m. Speed=0.000000m/h.</desc>
<speed>0.000000</speed>
</trkpt>
<trkpt lat="55.704308" lon="26.086334">
<ele>130.013794</ele>
<time>2010-07-17T19:37:50Z</time>
<desc>lat.=55.704308, lon.=26.086334, Alt.=130.013794m. Speed=0.000000m/h.</desc>
<speed>0.000000</speed>
</trkpt>
<trkpt lat="55.704308" lon="26.086334">
<ele>130.017700</ele>
<time>2010-07-17T19:37:51Z</time>
<desc>lat.=55.704308, lon.=26.086334, Alt.=130.017700m. Speed=0.072000m/h.</desc>
<speed>0.020000</speed>
</trkpt>
<trkpt lat="55.704308" lon="26.086334">
<ele>130.021606</ele>
<time>2010-07-17T19:37:52Z</time>
<desc>lat.=55.704308, lon.=26.086334, Alt.=130.021606m. Speed=0.072000m/h.</desc>
<speed>0.020000</speed>
</trkpt>
<trkpt lat="55.704308" lon="26.086334">
<ele>130.017700</ele>
<time>2010-07-17T19:37:53Z</time>
<desc>lat.=55.704308, lon.=26.086334, Alt.=130.017700m. Speed=0.072000m/h.</desc>
<speed>0.020000</speed>
</trkpt>
<trkpt lat="55.704308" lon="26.086334">
<ele>130.025513</ele>
<time>2010-07-17T19:37:54Z</time>
<desc>lat.=55.704308, lon.=26.086334, Alt.=130.025513m. Speed=0.036000m/h.</desc>
<speed>0.010000</speed>
</trkpt>
<trkpt lat="55.704308" lon="26.086334">
<ele>130.025513</ele>
<time>2010-07-17T19:37:55Z</time>
<desc>lat.=55.704308, lon.=26.086334, Alt.=130.025513m. Speed=0.036000m/h.</desc>
<speed>0.010000</speed>
</trkpt>
<trkpt lat="55.704308" lon="26.086334">
<ele>130.033325</ele>
<time>2010-07-17T19:37:56Z</time>
<desc>lat.=55.704308, lon.=26.086334, Alt.=130.033325m. Speed=0.072000m/h.</desc>
<speed>0.020000</speed>
</trkpt>
<trkpt lat="55.704308" lon="26.086334">
<ele>130.037231</ele>
<time>2010-07-17T19:37:57Z</time>
<desc>lat.=55.704308, lon.=26.086334, Alt.=130.037231m. Speed=0.036000m/h.</desc>
<speed>0.010000</speed>
</trkpt>
<trkpt lat="55.704308" lon="26.086334">
<ele>130.045044</ele>
<time>2010-07-17T19:37:58Z</time>
<desc>lat.=55.704308, lon.=26.086334, Alt.=130.045044m. Speed=0.036000m/h.</desc>
<speed>0.010000</speed>
</trkpt>
<trkpt lat="55.704308" lon="26.086334">
<ele>130.045044</ele>
<time>2010-07-17T19:37:59Z</time>
<desc>lat.=55.704308, lon.=26.086334, Alt.=130.045044m. Speed=0.072000m/h.</desc>
<speed>0.020000</speed>
</trkpt>
<trkpt lat="55.704308" lon="26.086334">
<ele>130.052856</ele>
<time>2010-07-17T19:38:00Z</time>
<desc>lat.=55.704308, lon.=26.086334, Alt.=130.052856m. Speed=0.000000m/h.</desc>
<speed>0.000000</speed>
</trkpt>
<trkpt lat="55.704308" lon="26.086334">
<ele>130.060669</ele>
<time>2010-07-17T19:38:01Z</time>
<desc>lat.=55.704308, lon.=26.086334, Alt.=130.060669m. Speed=0.000000m/h.</desc>
<speed>0.000000</speed>
</trkpt>
<trkpt lat="55.704308" lon="26.086334">
<ele>130.068481</ele>
<time>2010-07-17T19:38:02Z</time>
<desc>lat.=55.704308, lon.=26.086334, Alt.=130.068481m. Speed=0.036000m/h.</desc>
<speed>0.010000</speed>
</trkpt>
<trkpt lat="55.704308" lon="26.086334">
<ele>130.064575</ele>
<time>2010-07-17T19:38:03Z</time>
<desc>lat.=55.704308, lon.=26.086334, Alt.=130.064575m. Speed=0.072000m/h.</desc>
<speed>0.020000</speed>
</trkpt>
<trkpt lat="55.704308" lon="26.086334">
<ele>130.060669</ele>
<time>2010-07-17T19:38:04Z</time>
<desc>lat.=55.704308, lon.=26.086334, Alt.=130.060669m. Speed=0.072000m/h.</desc>
<speed>0.020000</speed>
</trkpt>
<trkpt lat="55.704308" lon="26.086334">
<ele>130.064575</ele>
<time>2010-07-17T19:38:05Z</time>
<desc>lat.=55.704308, lon.=26.086334, Alt.=130.064575m. Speed=0.000000m/h.</desc>
<speed>0.000000</speed>
</trkpt>
<trkpt lat="55.704308" lon="26.086334">
<ele>130.068481</ele>
<time>2010-07-17T19:38:06Z</time>
<desc>lat.=55.704308, lon.=26.086334, Alt.=130.068481m. Speed=0.036000m/h.</desc>
<speed>0.010000</speed>
</trkpt>
<trkpt lat="55.704308" lon="26.086334">
<ele>130.060669</ele>
<time>2010-07-17T19:38:07Z</time>
<desc>lat.=55.704308, lon.=26.086334, Alt.=130.060669m. Speed=0.036000m/h.</desc>
<speed>0.010000</speed>
</trkpt>
<trkpt lat="55.704308" lon="26.086334">
<ele>130.060669</ele>
<time>2010-07-17T19:38:08Z</time>
<desc>lat.=55.704308, lon.=26.086334, Alt.=130.060669m. Speed=0.072000m/h.</desc>
<speed>0.020000</speed>
</trkpt>
<trkpt lat="55.704308" lon="26.086334">
<ele>130.052856</ele>
<time>2010-07-17T19:38:09Z</time>
<desc>lat.=55.704308, lon.=26.086334, Alt.=130.052856m. Speed=0.108000m/h.</desc>
<speed>0.030000</speed>
</trkpt>
<trkpt lat="55.704308" lon="26.086334">
<ele>130.056763</ele>
<time>2010-07-17T19:38:10Z</time>
<desc>lat.=55.704308, lon.=26.086334, Alt.=130.056763m. Speed=0.036000m/h.</desc>
<speed>0.010000</speed>
</trkpt>
<trkpt lat="55.704308" lon="26.086334">
<ele>130.056763</ele>
<time>2010-07-17T19:38:11Z</time>
<desc>lat.=55.704308, lon.=26.086334, Alt.=130.056763m. Speed=0.036000m/h.</desc>
<speed>0.010000</speed>
</trkpt>
<trkpt lat="55.704308" lon="26.086334">
<ele>130.060669</ele>
<time>2010-07-17T19:38:12Z</time>
<desc>lat.=55.704308, lon.=26.086334, Alt.=130.060669m. Speed=0.000000m/h.</desc>
<speed>0.000000</speed>
</trkpt>
<trkpt lat="55.704308" lon="26.086334">
<ele>130.064575</ele>
<time>2010-07-17T19:38:13Z</time>
<desc>lat.=55.704308, lon.=26.086334, Alt.=130.064575m. Speed=0.000000m/h.</desc>
<speed>0.000000</speed>
</trkpt>
<trkpt lat="55.704308" lon="26.086334">
<ele>130.068481</ele>
<time>2010-07-17T19:38:14Z</time>
<desc>lat.=55.704308, lon.=26.086334, Alt.=130.068481m. Speed=0.000000m/h.</desc>
<speed>0.000000</speed>
</trkpt>
<trkpt lat="55.704308" lon="26.086334">
<ele>130.072388</ele>
<time>2010-07-17T19:38:15Z</time>
<desc>lat.=55.704308, lon.=26.086334, Alt.=130.072388m. Speed=0.036000m/h.</desc>
<speed>0.010000</speed>
</trkpt>
<trkpt lat="55.704308" lon="26.086334">
<ele>130.072388</ele>
<time>2010-07-17T19:38:16Z</time>
<desc>lat.=55.704308, lon.=26.086334, Alt.=130.072388m. Speed=0.108000m/h.</desc>
<speed>0.030000</speed>
</trkpt>
<trkpt lat="55.704308" lon="26.086334">
<ele>130.068481</ele>
<time>2010-07-17T19:38:17Z</time>
<desc>lat.=55.704308, lon.=26.086334, Alt.=130.068481m. Speed=0.036000m/h.</desc>
<speed>0.010000</speed>
</trkpt>
<trkpt lat="55.704308" lon="26.086334">
<ele>130.068481</ele>
<time>2010-07-17T19:38:18Z</time>
<desc>lat.=55.704308, lon.=26.086334, Alt.=130.068481m. Speed=0.036000m/h.</desc>
<speed>0.010000</speed>
</trkpt>
<trkpt lat="55.704308" lon="26.086334">
<ele>130.064575</ele>
<time>2010-07-17T19:38:19Z</time>
<desc>lat.=55.704308, lon.=26.086334, Alt.=130.064575m. Speed=0.036000m/h.</desc>
<speed>0.010000</speed>
</trkpt>
<trkpt lat="55.704308" lon="26.086334">
<ele>130.060669</ele>
<time>2010-07-17T19:38:20Z</time>
<desc>lat.=55.704308, lon.=26.086334, Alt.=130.060669m. Speed=0.072000m/h.</desc>
<speed>0.020000</speed>
</trkpt>
<trkpt lat="55.704308" lon="26.086334">
<ele>130.060669</ele>
<time>2010-07-17T19:38:21Z</time>
<desc>lat.=55.704308, lon.=26.086334, Alt.=130.060669m. Speed=0.036000m/h.</desc>
<speed>0.010000</speed>
</trkpt>
<trkpt lat="55.704308" lon="26.086334">
<ele>130.060669</ele>
<time>2010-07-17T19:38:22Z</time>
<desc>lat.=55.704308, lon.=26.086334, Alt.=130.060669m. Speed=0.000000m/h.</desc>
<speed>0.000000</speed>
</trkpt>
<trkpt lat="55.704308" lon="26.086334">
<ele>130.064575</ele>
<time>2010-07-17T19:38:23Z</time>
<desc>lat.=55.704308, lon.=26.086334, Alt.=130.064575m. Speed=0.072000m/h.</desc>
<speed>0.020000</speed>
</trkpt>
<trkpt lat="55.704308" lon="26.086334">
<ele>130.068481</ele>
<time>2010-07-17T19:38:24Z</time>
<desc>lat.=55.704308, lon.=26.086334, Alt.=130.068481m. Speed=0.072000m/h.</desc>
<speed>0.020000</speed>
</trkpt>
<trkpt lat="55.704308" lon="26.086334">
<ele>130.064575</ele>
<time>2010-07-17T19:38:25Z</time>
<desc>lat.=55.704308, lon.=26.086334, Alt.=130.064575m. Speed=0.000000m/h.</desc>
<speed>0.000000</speed>
</trkpt>
<trkpt lat="55.704308" lon="26.086334">
<ele>130.060669</ele>
<time>2010-07-17T19:38:26Z</time>
<desc>lat.=55.704308, lon.=26.086334, Alt.=130.060669m. Speed=0.036000m/h.</desc>
<speed>0.010000</speed>
</trkpt>
<trkpt lat="55.704308" lon="26.086334">
<ele>130.052856</ele>
<time>2010-07-17T19:38:27Z</time>
<desc>lat.=55.704308, lon.=26.086334, Alt.=130.052856m. Speed=0.072000m/h.</desc>
<speed>0.020000</speed>
</trkpt>
<trkpt lat="55.704308" lon="26.086334">
<ele>130.052856</ele>
<time>2010-07-17T19:38:28Z</time>
<desc>lat.=55.704308, lon.=26.086334, Alt.=130.052856m. Speed=0.036000m/h.</desc>
<speed>0.010000</speed>
</trkpt>
<trkpt lat="55.704308" lon="26.086334">
<ele>130.052856</ele>
<time>2010-07-17T19:38:29Z</time>
<desc>lat.=55.704308, lon.=26.086334, Alt.=130.052856m. Speed=0.000000m/h.</desc>
<speed>0.000000</speed>
</trkpt>
<trkpt lat="55.704308" lon="26.086334">
<ele>130.052856</ele>
<time>2010-07-17T19:38:30Z</time>
<desc>lat.=55.704308, lon.=26.086334, Alt.=130.052856m. Speed=0.072000m/h.</desc>
<speed>0.020000</speed>
</trkpt>
<trkpt lat="55.704308" lon="26.086334">
<ele>130.052856</ele>
<time>2010-07-17T19:38:31Z</time>
<desc>lat.=55.704308, lon.=26.086334, Alt.=130.052856m. Speed=0.108000m/h.</desc>
<speed>0.030000</speed>
</trkpt>
<trkpt lat="55.704308" lon="26.086334">
<ele>130.060669</ele>
<time>2010-07-17T19:38:32Z</time>
<desc>lat.=55.704308, lon.=26.086334, Alt.=130.060669m. Speed=0.036000m/h.</desc>
<speed>0.010000</speed>
</trkpt>
<trkpt lat="55.704308" lon="26.086334">
<ele>130.060669</ele>
<time>2010-07-17T19:38:33Z</time>
<desc>lat.=55.704308, lon.=26.086334, Alt.=130.060669m. Speed=0.072000m/h.</desc>
<speed>0.020000</speed>
</trkpt>
<trkpt lat="55.704308" lon="26.086334">
<ele>130.060669</ele>
<time>2010-07-17T19:38:34Z</time>
<desc>lat.=55.704308, lon.=26.086334, Alt.=130.060669m. Speed=0.036000m/h.</desc>
<speed>0.010000</speed>
</trkpt>
<trkpt lat="55.704308" lon="26.086334">
<ele>130.060669</ele>
<time>2010-07-17T19:38:35Z</time>
<desc>lat.=55.704308, lon.=26.086334, Alt.=130.060669m. Speed=0.036000m/h.</desc>
<speed>0.010000</speed>
</trkpt>
<trkpt lat="55.704308" lon="26.086334">
<ele>130.068481</ele>
<time>2010-07-17T19:38:36Z</time>
<desc>lat.=55.704308, lon.=26.086334, Alt.=130.068481m. Speed=0.036000m/h.</desc>
<speed>0.010000</speed>
</trkpt>
<trkpt lat="55.704308" lon="26.086334">
<ele>130.064575</ele>
<time>2010-07-17T19:38:37Z</time>
<desc>lat.=55.704308, lon.=26.086334, Alt.=130.064575m. Speed=0.036000m/h.</desc>
<speed>0.010000</speed>
</trkpt>
<trkpt lat="55.704308" lon="26.086334">
<ele>130.072388</ele>
<time>2010-07-17T19:38:38Z</time>
<desc>lat.=55.704308, lon.=26.086334, Alt.=130.072388m. Speed=0.072000m/h.</desc>
<speed>0.020000</speed>
</trkpt>
<trkpt lat="55.704308" lon="26.086334">
<ele>130.080200</ele>
<time>2010-07-17T19:38:39Z</time>
<desc>lat.=55.704308, lon.=26.086334, Alt.=130.080200m. Speed=0.036000m/h.</desc>
<speed>0.010000</speed>
</trkpt>
<trkpt lat="55.704308" lon="26.086334">
<ele>130.084106</ele>
<time>2010-07-17T19:38:40Z</time>
<desc>lat.=55.704308, lon.=26.086334, Alt.=130.084106m. Speed=0.036000m/h.</desc>
<speed>0.010000</speed>
</trkpt>
<trkpt lat="55.704308" lon="26.086334">
<ele>130.095825</ele>
<time>2010-07-17T19:38:41Z</time>
<desc>lat.=55.704308, lon.=26.086334, Alt.=130.095825m. Speed=0.108000m/h.</desc>
<speed>0.030000</speed>
</trkpt>
<trkpt lat="55.704308" lon="26.086334">
<ele>130.091919</ele>
<time>2010-07-17T19:38:42Z</time>
<desc>lat.=55.704308, lon.=26.086334, Alt.=130.091919m. Speed=0.108000m/h.</desc>
<speed>0.030000</speed>
</trkpt>
<trkpt lat="55.704308" lon="26.086334">
<ele>130.099731</ele>
<time>2010-07-17T19:38:43Z</time>
<desc>lat.=55.704308, lon.=26.086334, Alt.=130.099731m. Speed=0.036000m/h.</desc>
<speed>0.010000</speed>
</trkpt>
<trkpt lat="55.704308" lon="26.086334">
<ele>130.099731</ele>
<time>2010-07-17T19:38:44Z</time>
<desc>lat.=55.704308, lon.=26.086334, Alt.=130.099731m. Speed=0.072000m/h.</desc>
<speed>0.020000</speed>
</trkpt>
<trkpt lat="55.704308" lon="26.086334">
<ele>130.103638</ele>
<time>2010-07-17T19:38:45Z</time>
<desc>lat.=55.704308, lon.=26.086334, Alt.=130.103638m. Speed=0.036000m/h.</desc>
<speed>0.010000</speed>
</trkpt>
<trkpt lat="55.704308" lon="26.086334">
<ele>130.111450</ele>
<time>2010-07-17T19:38:46Z</time>
<desc>lat.=55.704308, lon.=26.086334, Alt.=130.111450m. Speed=0.000000m/h.</desc>
<speed>0.000000</speed>
</trkpt>
<trkpt lat="55.704311" lon="26.086334">
<ele>130.119263</ele>
<time>2010-07-17T19:38:47Z</time>
<desc>lat.=55.704311, lon.=26.086334, Alt.=130.119263m. Speed=0.036000m/h.</desc>
<speed>0.010000</speed>
</trkpt>
<trkpt lat="55.704311" lon="26.086334">
<ele>130.119263</ele>
<time>2010-07-17T19:38:48Z</time>
<desc>lat.=55.704311, lon.=26.086334, Alt.=130.119263m. Speed=0.000000m/h.</desc>
<speed>0.000000</speed>
</trkpt>
<trkpt lat="55.704311" lon="26.086336">
<ele>130.127075</ele>
<time>2010-07-17T19:38:49Z</time>
<desc>lat.=55.704311, lon.=26.086336, Alt.=130.127075m. Speed=0.072000m/h.</desc>
<speed>0.020000</speed>
</trkpt>
<trkpt lat="55.704311" lon="26.086336">
<ele>130.138794</ele>
<time>2010-07-17T19:38:50Z</time>
<desc>lat.=55.704311, lon.=26.086336, Alt.=130.138794m. Speed=0.036000m/h.</desc>
<speed>0.010000</speed>
</trkpt>
<trkpt lat="55.704311" lon="26.086336">
<ele>130.146606</ele>
<time>2010-07-17T19:38:51Z</time>
<desc>lat.=55.704311, lon.=26.086336, Alt.=130.146606m. Speed=0.000000m/h.</desc>
<speed>0.000000</speed>
</trkpt>
<trkpt lat="55.704311" lon="26.086336">
<ele>130.162231</ele>
<time>2010-07-17T19:38:52Z</time>
<desc>lat.=55.704311, lon.=26.086336, Alt.=130.162231m. Speed=0.000000m/h.</desc>
<speed>0.000000</speed>
</trkpt>
<trkpt lat="55.704311" lon="26.086336">
<ele>130.166138</ele>
<time>2010-07-17T19:38:53Z</time>
<desc>lat.=55.704311, lon.=26.086336, Alt.=130.166138m. Speed=0.000000m/h.</desc>
<speed>0.000000</speed>
</trkpt>
<trkpt lat="55.704311" lon="26.086336">
<ele>130.170044</ele>
<time>2010-07-17T19:38:54Z</time>
<desc>lat.=55.704311, lon.=26.086336, Alt.=130.170044m. Speed=0.000000m/h.</desc>
<speed>0.000000</speed>
</trkpt>
<trkpt lat="55.704311" lon="26.086336">
<ele>130.177856</ele>
<time>2010-07-17T19:38:55Z</time>
<desc>lat.=55.704311, lon.=26.086336, Alt.=130.177856m. Speed=0.000000m/h.</desc>
<speed>0.000000</speed>
</trkpt>
<trkpt lat="55.704311" lon="26.086336">
<ele>130.185669</ele>
<time>2010-07-17T19:38:56Z</time>
<desc>lat.=55.704311, lon.=26.086336, Alt.=130.185669m. Speed=0.036000m/h.</desc>
<speed>0.010000</speed>
</trkpt>
<trkpt lat="55.704311" lon="26.086336">
<ele>130.189575</ele>
<time>2010-07-17T19:38:57Z</time>
<desc>lat.=55.704311, lon.=26.086336, Alt.=130.189575m. Speed=0.036000m/h.</desc>
<speed>0.010000</speed>
</trkpt>
<trkpt lat="55.704311" lon="26.086336">
<ele>130.205200</ele>
<time>2010-07-17T19:38:58Z</time>
<desc>lat.=55.704311, lon.=26.086336, Alt.=130.205200m. Speed=0.000000m/h.</desc>
<speed>0.000000</speed>
</trkpt>
<trkpt lat="55.704311" lon="26.086336">
<ele>130.209106</ele>
<time>2010-07-17T19:38:59Z</time>
<desc>lat.=55.704311, lon.=26.086336, Alt.=130.209106m. Speed=0.000000m/h.</desc>
<speed>0.000000</speed>
</trkpt>
<trkpt lat="55.704311" lon="26.086336">
<ele>130.216919</ele>
<time>2010-07-17T19:39:00Z</time>
<desc>lat.=55.704311, lon.=26.086336, Alt.=130.216919m. Speed=0.000000m/h.</desc>
<speed>0.000000</speed>
</trkpt>
<trkpt lat="55.704311" lon="26.086336">
<ele>130.220825</ele>
<time>2010-07-17T19:39:01Z</time>
<desc>lat.=55.704311, lon.=26.086336, Alt.=130.220825m. Speed=0.036000m/h.</desc>
<speed>0.010000</speed>
</trkpt>
<trkpt lat="55.704311" lon="26.086336">
<ele>130.228638</ele>
<time>2010-07-17T19:39:02Z</time>
<desc>lat.=55.704311, lon.=26.086336, Alt.=130.228638m. Speed=0.000000m/h.</desc>
<speed>0.000000</speed>
</trkpt>
<trkpt lat="55.704311" lon="26.086336">
<ele>130.232544</ele>
<time>2010-07-17T19:39:03Z</time>
<desc>lat.=55.704311, lon.=26.086336, Alt.=130.232544m. Speed=0.000000m/h.</desc>
<speed>0.000000</speed>
</trkpt>
<trkpt lat="55.704311" lon="26.086336">
<ele>130.240356</ele>
<time>2010-07-17T19:39:04Z</time>
<desc>lat.=55.704311, lon.=26.086336, Alt.=130.240356m. Speed=0.000000m/h.</desc>
<speed>0.000000</speed>
</trkpt>
<trkpt lat="55.704311" lon="26.086336">
<ele>130.248169</ele>
<time>2010-07-17T19:39:05Z</time>
<desc>lat.=55.704311, lon.=26.086336, Alt.=130.248169m. Speed=0.000000m/h.</desc>
<speed>0.000000</speed>
</trkpt>
<trkpt lat="55.704311" lon="26.086336">
<ele>130.255981</ele>
<time>2010-07-17T19:39:06Z</time>
<desc>lat.=55.704311, lon.=26.086336, Alt.=130.255981m. Speed=0.000000m/h.</desc>
<speed>0.000000</speed>
</trkpt>
<trkpt lat="55.704311" lon="26.086336">
<ele>130.263794</ele>
<time>2010-07-17T19:39:07Z</time>
<desc>lat.=55.704311, lon.=26.086336, Alt.=130.263794m. Speed=0.000000m/h.</desc>
<speed>0.000000</speed>
</trkpt>
<trkpt lat="55.704311" lon="26.086336">
<ele>130.267700</ele>
<time>2010-07-17T19:39:08Z</time>
<desc>lat.=55.704311, lon.=26.086336, Alt.=130.267700m. Speed=0.000000m/h.</desc>
<speed>0.000000</speed>
</trkpt>
<trkpt lat="55.704311" lon="26.086336">
<ele>130.275513</ele>
<time>2010-07-17T19:39:09Z</time>
<desc>lat.=55.704311, lon.=26.086336, Alt.=130.275513m. Speed=0.036000m/h.</desc>
<speed>0.010000</speed>
</trkpt>
<trkpt lat="55.704311" lon="26.086336">
<ele>130.283325</ele>
<time>2010-07-17T19:39:10Z</time>
<desc>lat.=55.704311, lon.=26.086336, Alt.=130.283325m. Speed=0.000000m/h.</desc>
<speed>0.000000</speed>
</trkpt>
<trkpt lat="55.704311" lon="26.086336">
<ele>130.291138</ele>
<time>2010-07-17T19:39:11Z</time>
<desc>lat.=55.704311, lon.=26.086336, Alt.=130.291138m. Speed=0.000000m/h.</desc>
<speed>0.000000</speed>
</trkpt>
<trkpt lat="55.704311" lon="26.086336">
<ele>130.295044</ele>
<time>2010-07-17T19:39:12Z</time>
<desc>lat.=55.704311, lon.=26.086336, Alt.=130.295044m. Speed=0.000000m/h.</desc>
<speed>0.000000</speed>
</trkpt>
<trkpt lat="55.704311" lon="26.086336">
<ele>130.302856</ele>
<time>2010-07-17T19:39:13Z</time>
<desc>lat.=55.704311, lon.=26.086336, Alt.=130.302856m. Speed=0.000000m/h.</desc>
<speed>0.000000</speed>
</trkpt>
<trkpt lat="55.704311" lon="26.086336">
<ele>130.306763</ele>
<time>2010-07-17T19:39:14Z</time>
<desc>lat.=55.704311, lon.=26.086336, Alt.=130.306763m. Speed=0.000000m/h.</desc>
<speed>0.000000</speed>
</trkpt>
<trkpt lat="55.704311" lon="26.086336">
<ele>130.306763</ele>
<time>2010-07-17T19:39:15Z</time>
<desc>lat.=55.704311, lon.=26.086336, Alt.=130.306763m. Speed=0.000000m/h.</desc>
<speed>0.000000</speed>
</trkpt>
<trkpt lat="55.704311" lon="26.086336">
<ele>130.310669</ele>
<time>2010-07-17T19:39:16Z</time>
<desc>lat.=55.704311, lon.=26.086336, Alt.=130.310669m. Speed=0.000000m/h.</desc>
<speed>0.000000</speed>
</trkpt>
<trkpt lat="55.704311" lon="26.086336">
<ele>130.318481</ele>
<time>2010-07-17T19:39:17Z</time>
<desc>lat.=55.704311, lon.=26.086336, Alt.=130.318481m. Speed=0.000000m/h.</desc>
<speed>0.000000</speed>
</trkpt>
<trkpt lat="55.704311" lon="26.086336">
<ele>130.326294</ele>
<time>2010-07-17T19:39:18Z</time>
<desc>lat.=55.704311, lon.=26.086336, Alt.=130.326294m. Speed=0.036000m/h.</desc>
<speed>0.010000</speed>
</trkpt>
<trkpt lat="55.704311" lon="26.086336">
<ele>130.334106</ele>
<time>2010-07-17T19:39:19Z</time>
<desc>lat.=55.704311, lon.=26.086336, Alt.=130.334106m. Speed=0.000000m/h.</desc>
<speed>0.000000</speed>
</trkpt>
<trkpt lat="55.704311" lon="26.086336">
<ele>130.338013</ele>
<time>2010-07-17T19:39:20Z</time>
<desc>lat.=55.704311, lon.=26.086336, Alt.=130.338013m. Speed=0.000000m/h.</desc>
<speed>0.000000</speed>
</trkpt>
<trkpt lat="55.704311" lon="26.086336">
<ele>130.345825</ele>
<time>2010-07-17T19:39:21Z</time>
<desc>lat.=55.704311, lon.=26.086336, Alt.=130.345825m. Speed=0.000000m/h.</desc>
<speed>0.000000</speed>
</trkpt>
<trkpt lat="55.704311" lon="26.086336">
<ele>130.349731</ele>
<time>2010-07-17T19:39:22Z</time>
<desc>lat.=55.704311, lon.=26.086336, Alt.=130.349731m. Speed=0.000000m/h.</desc>
<speed>0.000000</speed>
</trkpt>
<trkpt lat="55.704311" lon="26.086336">
<ele>130.353638</ele>
<time>2010-07-17T19:39:23Z</time>
<desc>lat.=55.704311, lon.=26.086336, Alt.=130.353638m. Speed=0.000000m/h.</desc>
<speed>0.000000</speed>
</trkpt>
<trkpt lat="55.704311" lon="26.086336">
<ele>130.357544</ele>
<time>2010-07-17T19:39:24Z</time>
<desc>lat.=55.704311, lon.=26.086336, Alt.=130.357544m. Speed=0.000000m/h.</desc>
<speed>0.000000</speed>
</trkpt>
<trkpt lat="55.704311" lon="26.086336">
<ele>130.357544</ele>
<time>2010-07-17T19:39:25Z</time>
<desc>lat.=55.704311, lon.=26.086336, Alt.=130.357544m. Speed=0.036000m/h.</desc>
<speed>0.010000</speed>
</trkpt>
<trkpt lat="55.704311" lon="26.086336">
<ele>130.361450</ele>
<time>2010-07-17T19:39:26Z</time>
<desc>lat.=55.704311, lon.=26.086336, Alt.=130.361450m. Speed=0.000000m/h.</desc>
<speed>0.000000</speed>
</trkpt>
<trkpt lat="55.704311" lon="26.086336">
<ele>130.365356</ele>
<time>2010-07-17T19:39:27Z</time>
<desc>lat.=55.704311, lon.=26.086336, Alt.=130.365356m. Speed=0.036000m/h.</desc>
<speed>0.010000</speed>
</trkpt>
<trkpt lat="55.704311" lon="26.086336">
<ele>130.365356</ele>
<time>2010-07-17T19:39:28Z</time>
<desc>lat.=55.704311, lon.=26.086336, Alt.=130.365356m. Speed=0.036000m/h.</desc>
<speed>0.010000</speed>
</trkpt>
<trkpt lat="55.704311" lon="26.086336">
<ele>130.361450</ele>
<time>2010-07-17T19:39:29Z</time>
<desc>lat.=55.704311, lon.=26.086336, Alt.=130.361450m. Speed=0.036000m/h.</desc>
<speed>0.010000</speed>
</trkpt>
<trkpt lat="55.704311" lon="26.086336">
<ele>130.365356</ele>
<time>2010-07-17T19:39:30Z</time>
<desc>lat.=55.704311, lon.=26.086336, Alt.=130.365356m. Speed=0.000000m/h.</desc>
<speed>0.000000</speed>
</trkpt>
<trkpt lat="55.704311" lon="26.086336">
<ele>130.365356</ele>
<time>2010-07-17T19:39:31Z</time>
<desc>lat.=55.704311, lon.=26.086336, Alt.=130.365356m. Speed=0.000000m/h.</desc>
<speed>0.000000</speed>
</trkpt>
<trkpt lat="55.704311" lon="26.086336">
<ele>130.365356</ele>
<time>2010-07-17T19:39:32Z</time>
<desc>lat.=55.704311, lon.=26.086336, Alt.=130.365356m. Speed=0.000000m/h.</desc>
<speed>0.000000</speed>
</trkpt>
<trkpt lat="55.704311" lon="26.086336">
<ele>130.369263</ele>
<time>2010-07-17T19:39:33Z</time>
<desc>lat.=55.704311, lon.=26.086336, Alt.=130.369263m. Speed=0.000000m/h.</desc>
<speed>0.000000</speed>
</trkpt>
<trkpt lat="55.704311" lon="26.086336">
<ele>130.365356</ele>
<time>2010-07-17T19:39:34Z</time>
<desc>lat.=55.704311, lon.=26.086336, Alt.=130.365356m. Speed=0.000000m/h.</desc>
<speed>0.000000</speed>
</trkpt>
<trkpt lat="55.704311" lon="26.086336">
<ele>130.365356</ele>
<time>2010-07-17T19:39:35Z</time>
<desc>lat.=55.704311, lon.=26.086336, Alt.=130.365356m. Speed=0.072000m/h.</desc>
<speed>0.020000</speed>
</trkpt>
<trkpt lat="55.704311" lon="26.086336">
<ele>130.365356</ele>
<time>2010-07-17T19:39:36Z</time>
<desc>lat.=55.704311, lon.=26.086336, Alt.=130.365356m. Speed=0.072000m/h.</desc>
<speed>0.020000</speed>
</trkpt>
<trkpt lat="55.704311" lon="26.086336">
<ele>130.365356</ele>
<time>2010-07-17T19:39:37Z</time>
<desc>lat.=55.704311, lon.=26.086336, Alt.=130.365356m. Speed=0.072000m/h.</desc>
<speed>0.020000</speed>
</trkpt>
<trkpt lat="55.704311" lon="26.086336">
<ele>130.369263</ele>
<time>2010-07-17T19:39:38Z</time>
<desc>lat.=55.704311, lon.=26.086336, Alt.=130.369263m. Speed=0.108000m/h.</desc>
<speed>0.030000</speed>
</trkpt>
<trkpt lat="55.704311" lon="26.086336">
<ele>130.369263</ele>
<time>2010-07-17T19:39:39Z</time>
<desc>lat.=55.704311, lon.=26.086336, Alt.=130.369263m. Speed=0.108000m/h.</desc>
<speed>0.030000</speed>
</trkpt>
<trkpt lat="55.704311" lon="26.086336">
<ele>130.369263</ele>
<time>2010-07-17T19:39:40Z</time>
<desc>lat.=55.704311, lon.=26.086336, Alt.=130.369263m. Speed=0.036000m/h.</desc>
<speed>0.010000</speed>
</trkpt>
<trkpt lat="55.704311" lon="26.086336">
<ele>130.369263</ele>
<time>2010-07-17T19:39:41Z</time>
<desc>lat.=55.704311, lon.=26.086336, Alt.=130.369263m. Speed=0.072000m/h.</desc>
<speed>0.020000</speed>
</trkpt>
<trkpt lat="55.704311" lon="26.086336">
<ele>130.369263</ele>
<time>2010-07-17T19:39:42Z</time>
<desc>lat.=55.704311, lon.=26.086336, Alt.=130.369263m. Speed=0.036000m/h.</desc>
<speed>0.010000</speed>
</trkpt>
<trkpt lat="55.704311" lon="26.086336">
<ele>130.369263</ele>
<time>2010-07-17T19:39:43Z</time>
<desc>lat.=55.704311, lon.=26.086336, Alt.=130.369263m. Speed=0.000000m/h.</desc>
<speed>0.000000</speed>
</trkpt>
<trkpt lat="55.704311" lon="26.086336">
<ele>130.365356</ele>
<time>2010-07-17T19:39:44Z</time>
<desc>lat.=55.704311, lon.=26.086336, Alt.=130.365356m. Speed=0.000000m/h.</desc>
<speed>0.000000</speed>
</trkpt>
<trkpt lat="55.704311" lon="26.086336">
<ele>130.369263</ele>
<time>2010-07-17T19:39:45Z</time>
<desc>lat.=55.704311, lon.=26.086336, Alt.=130.369263m. Speed=0.036000m/h.</desc>
<speed>0.010000</speed>
</trkpt>
<trkpt lat="55.704311" lon="26.086336">
<ele>130.373169</ele>
<time>2010-07-17T19:39:46Z</time>
<desc>lat.=55.704311, lon.=26.086336, Alt.=130.373169m. Speed=0.000000m/h.</desc>
<speed>0.000000</speed>
</trkpt>
<trkpt lat="55.704311" lon="26.086336">
<ele>130.373169</ele>
<time>2010-07-17T19:39:47Z</time>
<desc>lat.=55.704311, lon.=26.086336, Alt.=130.373169m. Speed=0.036000m/h.</desc>
<speed>0.010000</speed>
</trkpt>
<trkpt lat="55.704311" lon="26.086336">
<ele>130.373169</ele>
<time>2010-07-17T19:39:48Z</time>
<desc>lat.=55.704311, lon.=26.086336, Alt.=130.373169m. Speed=0.000000m/h.</desc>
<speed>0.000000</speed>
</trkpt>
<trkpt lat="55.704311" lon="26.086336">
<ele>130.377075</ele>
<time>2010-07-17T19:39:49Z</time>
<desc>lat.=55.704311, lon.=26.086336, Alt.=130.377075m. Speed=0.072000m/h.</desc>
<speed>0.020000</speed>
</trkpt>
<trkpt lat="55.704311" lon="26.086336">
<ele>130.380981</ele>
<time>2010-07-17T19:39:50Z</time>
<desc>lat.=55.704311, lon.=26.086336, Alt.=130.380981m. Speed=0.036000m/h.</desc>
<speed>0.010000</speed>
</trkpt>
<trkpt lat="55.704311" lon="26.086336">
<ele>130.384888</ele>
<time>2010-07-17T19:39:51Z</time>
<desc>lat.=55.704311, lon.=26.086336, Alt.=130.384888m. Speed=0.072000m/h.</desc>
<speed>0.020000</speed>
</trkpt>
<trkpt lat="55.704311" lon="26.086336">
<ele>130.388794</ele>
<time>2010-07-17T19:39:52Z</time>
<desc>lat.=55.704311, lon.=26.086336, Alt.=130.388794m. Speed=0.072000m/h.</desc>
<speed>0.020000</speed>
</trkpt>
<trkpt lat="55.704311" lon="26.086336">
<ele>130.392700</ele>
<time>2010-07-17T19:39:53Z</time>
<desc>lat.=55.704311, lon.=26.086336, Alt.=130.392700m. Speed=0.036000m/h.</desc>
<speed>0.010000</speed>
</trkpt>
<trkpt lat="55.704311" lon="26.086336">
<ele>130.396606</ele>
<time>2010-07-17T19:39:54Z</time>
<desc>lat.=55.704311, lon.=26.086336, Alt.=130.396606m. Speed=0.000000m/h.</desc>
<speed>0.000000</speed>
</trkpt>
<trkpt lat="55.704311" lon="26.086336">
<ele>130.400513</ele>
<time>2010-07-17T19:39:55Z</time>
<desc>lat.=55.704311, lon.=26.086336, Alt.=130.400513m. Speed=0.000000m/h.</desc>
<speed>0.000000</speed>
</trkpt>
<trkpt lat="55.704311" lon="26.086336">
<ele>130.408325</ele>
<time>2010-07-17T19:39:56Z</time>
<desc>lat.=55.704311, lon.=26.086336, Alt.=130.408325m. Speed=0.000000m/h.</desc>
<speed>0.000000</speed>
</trkpt>
<trkpt lat="55.704311" lon="26.086336">
<ele>130.408325</ele>
<time>2010-07-17T19:39:57Z</time>
<desc>lat.=55.704311, lon.=26.086336, Alt.=130.408325m. Speed=0.000000m/h.</desc>
<speed>0.000000</speed>
</trkpt>
<trkpt lat="55.704311" lon="26.086336">
<ele>130.412231</ele>
<time>2010-07-17T19:39:58Z</time>
<desc>lat.=55.704311, lon.=26.086336, Alt.=130.412231m. Speed=0.000000m/h.</desc>
<speed>0.000000</speed>
</trkpt>
<trkpt lat="55.704311" lon="26.086336">
<ele>130.412231</ele>
<time>2010-07-17T19:39:59Z</time>
<desc>lat.=55.704311, lon.=26.086336, Alt.=130.412231m. Speed=0.000000m/h.</desc>
<speed>0.000000</speed>
</trkpt>
<trkpt lat="55.704311" lon="26.086336">
<ele>130.420044</ele>
<time>2010-07-17T19:40:00Z</time>
<desc>lat.=55.704311, lon.=26.086336, Alt.=130.420044m. Speed=0.000000m/h.</desc>
<speed>0.000000</speed>
</trkpt>
<trkpt lat="55.704311" lon="26.086336">
<ele>130.420044</ele>
<time>2010-07-17T19:40:01Z</time>
<desc>lat.=55.704311, lon.=26.086336, Alt.=130.420044m. Speed=0.036000m/h.</desc>
<speed>0.010000</speed>
</trkpt>
<trkpt lat="55.704311" lon="26.086336">
<ele>130.420044</ele>
<time>2010-07-17T19:40:02Z</time>
<desc>lat.=55.704311, lon.=26.086336, Alt.=130.420044m. Speed=0.036000m/h.</desc>
<speed>0.010000</speed>
</trkpt>
<trkpt lat="55.704311" lon="26.086336">
<ele>130.427856</ele>
<time>2010-07-17T19:40:03Z</time>
<desc>lat.=55.704311, lon.=26.086336, Alt.=130.427856m. Speed=0.000000m/h.</desc>
<speed>0.000000</speed>
</trkpt>
<trkpt lat="55.704311" lon="26.086336">
<ele>130.435669</ele>
<time>2010-07-17T19:40:04Z</time>
<desc>lat.=55.704311, lon.=26.086336, Alt.=130.435669m. Speed=0.000000m/h.</desc>
<speed>0.000000</speed>
</trkpt>
<trkpt lat="55.704311" lon="26.086336">
<ele>130.435669</ele>
<time>2010-07-17T19:40:05Z</time>
<desc>lat.=55.704311, lon.=26.086336, Alt.=130.435669m. Speed=0.036000m/h.</desc>
<speed>0.010000</speed>
</trkpt>
<trkpt lat="55.704311" lon="26.086336">
<ele>130.439575</ele>
<time>2010-07-17T19:40:06Z</time>
<desc>lat.=55.704311, lon.=26.086336, Alt.=130.439575m. Speed=0.036000m/h.</desc>
<speed>0.010000</speed>
</trkpt>
<trkpt lat="55.704311" lon="26.086336">
<ele>130.439575</ele>
<time>2010-07-17T19:40:07Z</time>
<desc>lat.=55.704311, lon.=26.086336, Alt.=130.439575m. Speed=0.000000m/h.</desc>
<speed>0.000000</speed>
</trkpt>
<trkpt lat="55.704311" lon="26.086336">
<ele>130.447388</ele>
<time>2010-07-17T19:40:08Z</time>
<desc>lat.=55.704311, lon.=26.086336, Alt.=130.447388m. Speed=0.000000m/h.</desc>
<speed>0.000000</speed>
</trkpt>
<trkpt lat="55.704311" lon="26.086336">
<ele>130.455200</ele>
<time>2010-07-17T19:40:09Z</time>
<desc>lat.=55.704311, lon.=26.086336, Alt.=130.455200m. Speed=0.000000m/h.</desc>
<speed>0.000000</speed>
</trkpt>
<trkpt lat="55.704311" lon="26.086336">
<ele>130.463013</ele>
<time>2010-07-17T19:40:10Z</time>
<desc>lat.=55.704311, lon.=26.086336, Alt.=130.463013m. Speed=0.000000m/h.</desc>
<speed>0.000000</speed>
</trkpt>
<trkpt lat="55.704311" lon="26.086336">
<ele>130.466919</ele>
<time>2010-07-17T19:40:11Z</time>
<desc>lat.=55.704311, lon.=26.086336, Alt.=130.466919m. Speed=0.000000m/h.</desc>
<speed>0.000000</speed>
</trkpt>
<trkpt lat="55.704311" lon="26.086336">
<ele>130.482544</ele>
<time>2010-07-17T19:40:12Z</time>
<desc>lat.=55.704311, lon.=26.086336, Alt.=130.482544m. Speed=0.000000m/h.</desc>
<speed>0.000000</speed>
</trkpt>
<trkpt lat="55.704311" lon="26.086336">
<ele>130.498169</ele>
<time>2010-07-17T19:40:13Z</time>
<desc>lat.=55.704311, lon.=26.086336, Alt.=130.498169m. Speed=0.000000m/h.</desc>
<speed>0.000000</speed>
</trkpt>
<trkpt lat="55.704311" lon="26.086336">
<ele>130.505981</ele>
<time>2010-07-17T19:40:14Z</time>
<desc>lat.=55.704311, lon.=26.086336, Alt.=130.505981m. Speed=0.000000m/h.</desc>
<speed>0.000000</speed>
</trkpt>
<trkpt lat="55.704311" lon="26.086336">
<ele>130.521606</ele>
<time>2010-07-17T19:40:15Z</time>
<desc>lat.=55.704311, lon.=26.086336, Alt.=130.521606m. Speed=0.000000m/h.</desc>
<speed>0.000000</speed>
</trkpt>
<trkpt lat="55.704311" lon="26.086336">
<ele>130.529419</ele>
<time>2010-07-17T19:40:16Z</time>
<desc>lat.=55.704311, lon.=26.086336, Alt.=130.529419m. Speed=0.000000m/h.</desc>
<speed>0.000000</speed>
</trkpt>
<trkpt lat="55.704311" lon="26.086336">
<ele>130.541138</ele>
<time>2010-07-17T19:40:17Z</time>
<desc>lat.=55.704311, lon.=26.086336, Alt.=130.541138m. Speed=0.000000m/h.</desc>
<speed>0.000000</speed>
</trkpt>
<trkpt lat="55.704311" lon="26.086336">
<ele>130.552856</ele>
<time>2010-07-17T19:40:18Z</time>
<desc>lat.=55.704311, lon.=26.086336, Alt.=130.552856m. Speed=0.000000m/h.</desc>
<speed>0.000000</speed>
</trkpt>
<trkpt lat="55.704311" lon="26.086336">
<ele>130.572388</ele>
<time>2010-07-17T19:40:19Z</time>
<desc>lat.=55.704311, lon.=26.086336, Alt.=130.572388m. Speed=0.000000m/h.</desc>
<speed>0.000000</speed>
</trkpt>
<trkpt lat="55.704311" lon="26.086336">
<ele>130.588013</ele>
<time>2010-07-17T19:40:20Z</time>
<desc>lat.=55.704311, lon.=26.086336, Alt.=130.588013m. Speed=0.036000m/h.</desc>
<speed>0.010000</speed>
</trkpt>
<trkpt lat="55.704311" lon="26.086336">
<ele>130.607544</ele>
<time>2010-07-17T19:40:21Z</time>
<desc>lat.=55.704311, lon.=26.086336, Alt.=130.607544m. Speed=0.072000m/h.</desc>
<speed>0.020000</speed>
</trkpt>
<trkpt lat="55.704311" lon="26.086336">
<ele>130.619263</ele>
<time>2010-07-17T19:40:22Z</time>
<desc>lat.=55.704311, lon.=26.086336, Alt.=130.619263m. Speed=0.000000m/h.</desc>
<speed>0.000000</speed>
</trkpt>
<trkpt lat="55.704311" lon="26.086336">
<ele>130.642700</ele>
<time>2010-07-17T19:40:23Z</time>
<desc>lat.=55.704311, lon.=26.086336, Alt.=130.642700m. Speed=0.000000m/h.</desc>
<speed>0.000000</speed>
</trkpt>
<trkpt lat="55.704311" lon="26.086336">
<ele>130.658325</ele>
<time>2010-07-17T19:40:24Z</time>
<desc>lat.=55.704311, lon.=26.086336, Alt.=130.658325m. Speed=0.000000m/h.</desc>
<speed>0.000000</speed>
</trkpt>
<trkpt lat="55.704311" lon="26.086336">
<ele>130.673950</ele>
<time>2010-07-17T19:40:25Z</time>
<desc>lat.=55.704311, lon.=26.086336, Alt.=130.673950m. Speed=0.072000m/h.</desc>
<speed>0.020000</speed>
</trkpt>
<trkpt lat="55.704311" lon="26.086336">
<ele>130.685669</ele>
<time>2010-07-17T19:40:26Z</time>
<desc>lat.=55.704311, lon.=26.086336, Alt.=130.685669m. Speed=0.036000m/h.</desc>
<speed>0.010000</speed>
</trkpt>
<trkpt lat="55.704311" lon="26.086336">
<ele>130.701294</ele>
<time>2010-07-17T19:40:27Z</time>
<desc>lat.=55.704311, lon.=26.086336, Alt.=130.701294m. Speed=0.072000m/h.</desc>
<speed>0.020000</speed>
</trkpt>
<trkpt lat="55.704311" lon="26.086336">
<ele>130.716919</ele>
<time>2010-07-17T19:40:28Z</time>
<desc>lat.=55.704311, lon.=26.086336, Alt.=130.716919m. Speed=0.036000m/h.</desc>
<speed>0.010000</speed>
</trkpt>
<trkpt lat="55.704311" lon="26.086338">
<ele>130.736450</ele>
<time>2010-07-17T19:40:29Z</time>
<desc>lat.=55.704311, lon.=26.086338, Alt.=130.736450m. Speed=0.000000m/h.</desc>
<speed>0.000000</speed>
</trkpt>
<trkpt lat="55.704311" lon="26.086338">
<ele>130.755981</ele>
<time>2010-07-17T19:40:30Z</time>
<desc>lat.=55.704311, lon.=26.086338, Alt.=130.755981m. Speed=0.072000m/h.</desc>
<speed>0.020000</speed>
</trkpt>
<trkpt lat="55.704311" lon="26.086338">
<ele>130.771606</ele>
<time>2010-07-17T19:40:31Z</time>
<desc>lat.=55.704311, lon.=26.086338, Alt.=130.771606m. Speed=0.000000m/h.</desc>
<speed>0.000000</speed>
</trkpt>
<trkpt lat="55.704311" lon="26.086338">
<ele>130.787231</ele>
<time>2010-07-17T19:40:32Z</time>
<desc>lat.=55.704311, lon.=26.086338, Alt.=130.787231m. Speed=0.072000m/h.</desc>
<speed>0.020000</speed>
</trkpt>
<trkpt lat="55.704311" lon="26.086338">
<ele>130.802856</ele>
<time>2010-07-17T19:40:33Z</time>
<desc>lat.=55.704311, lon.=26.086338, Alt.=130.802856m. Speed=0.072000m/h.</desc>
<speed>0.020000</speed>
</trkpt>
<trkpt lat="55.704311" lon="26.086338">
<ele>130.822388</ele>
<time>2010-07-17T19:40:34Z</time>
<desc>lat.=55.704311, lon.=26.086338, Alt.=130.822388m. Speed=0.036000m/h.</desc>
<speed>0.010000</speed>
</trkpt>
<trkpt lat="55.704311" lon="26.086338">
<ele>130.841919</ele>
<time>2010-07-17T19:40:35Z</time>
<desc>lat.=55.704311, lon.=26.086338, Alt.=130.841919m. Speed=0.072000m/h.</desc>
<speed>0.020000</speed>
</trkpt>
<trkpt lat="55.704311" lon="26.086338">
<ele>130.861450</ele>
<time>2010-07-17T19:40:36Z</time>
<desc>lat.=55.704311, lon.=26.086338, Alt.=130.861450m. Speed=0.108000m/h.</desc>
<speed>0.030000</speed>
</trkpt>
<trkpt lat="55.704311" lon="26.086338">
<ele>130.880981</ele>
<time>2010-07-17T19:40:37Z</time>
<desc>lat.=55.704311, lon.=26.086338, Alt.=130.880981m. Speed=0.108000m/h.</desc>
<speed>0.030000</speed>
</trkpt>
<trkpt lat="55.704311" lon="26.086338">
<ele>130.900513</ele>
<time>2010-07-17T19:40:38Z</time>
<desc>lat.=55.704311, lon.=26.086338, Alt.=130.900513m. Speed=0.072000m/h.</desc>
<speed>0.020000</speed>
</trkpt>
<trkpt lat="55.704311" lon="26.086338">
<ele>130.920044</ele>
<time>2010-07-17T19:40:39Z</time>
<desc>lat.=55.704311, lon.=26.086338, Alt.=130.920044m. Speed=0.072000m/h.</desc>
<speed>0.020000</speed>
</trkpt>
<trkpt lat="55.704311" lon="26.086338">
<ele>130.935669</ele>
<time>2010-07-17T19:40:40Z</time>
<desc>lat.=55.704311, lon.=26.086338, Alt.=130.935669m. Speed=0.036000m/h.</desc>
<speed>0.010000</speed>
</trkpt>
<trkpt lat="55.704311" lon="26.086338">
<ele>130.951294</ele>
<time>2010-07-17T19:40:41Z</time>
<desc>lat.=55.704311, lon.=26.086338, Alt.=130.951294m. Speed=0.000000m/h.</desc>
<speed>0.000000</speed>
</trkpt>
<trkpt lat="55.704311" lon="26.086338">
<ele>130.966919</ele>
<time>2010-07-17T19:40:42Z</time>
<desc>lat.=55.704311, lon.=26.086338, Alt.=130.966919m. Speed=0.000000m/h.</desc>
<speed>0.000000</speed>
</trkpt>
<trkpt lat="55.704311" lon="26.086338">
<ele>130.990356</ele>
<time>2010-07-17T19:40:43Z</time>
<desc>lat.=55.704311, lon.=26.086338, Alt.=130.990356m. Speed=0.000000m/h.</desc>
<speed>0.000000</speed>
</trkpt>
<trkpt lat="55.704311" lon="26.086338">
<ele>131.009888</ele>
<time>2010-07-17T19:40:44Z</time>
<desc>lat.=55.704311, lon.=26.086338, Alt.=131.009888m. Speed=0.000000m/h.</desc>
<speed>0.000000</speed>
</trkpt>
<trkpt lat="55.704311" lon="26.086338">
<ele>131.029419</ele>
<time>2010-07-17T19:40:45Z</time>
<desc>lat.=55.704311, lon.=26.086338, Alt.=131.029419m. Speed=0.036000m/h.</desc>
<speed>0.010000</speed>
</trkpt>
<trkpt lat="55.704311" lon="26.086338">
<ele>131.052856</ele>
<time>2010-07-17T19:40:46Z</time>
<desc>lat.=55.704311, lon.=26.086338, Alt.=131.052856m. Speed=0.000000m/h.</desc>
<speed>0.000000</speed>
</trkpt>
<trkpt lat="55.704311" lon="26.086338">
<ele>131.068481</ele>
<time>2010-07-17T19:40:47Z</time>
<desc>lat.=55.704311, lon.=26.086338, Alt.=131.068481m. Speed=0.036000m/h.</desc>
<speed>0.010000</speed>
</trkpt>
<trkpt lat="55.704311" lon="26.086338">
<ele>131.080200</ele>
<time>2010-07-17T19:40:48Z</time>
<desc>lat.=55.704311, lon.=26.086338, Alt.=131.080200m. Speed=0.072000m/h.</desc>
<speed>0.020000</speed>
</trkpt>
<trkpt lat="55.704311" lon="26.086338">
<ele>131.091919</ele>
<time>2010-07-17T19:40:49Z</time>
<desc>lat.=55.704311, lon.=26.086338, Alt.=131.091919m. Speed=0.000000m/h.</desc>
<speed>0.000000</speed>
</trkpt>
<trkpt lat="55.704311" lon="26.086338">
<ele>131.111450</ele>
<time>2010-07-17T19:40:50Z</time>
<desc>lat.=55.704311, lon.=26.086338, Alt.=131.111450m. Speed=0.036000m/h.</desc>
<speed>0.010000</speed>
</trkpt>
<trkpt lat="55.704311" lon="26.086338">
<ele>131.130981</ele>
<time>2010-07-17T19:40:51Z</time>
<desc>lat.=55.704311, lon.=26.086338, Alt.=131.130981m. Speed=0.036000m/h.</desc>
<speed>0.010000</speed>
</trkpt>
<trkpt lat="55.704311" lon="26.086338">
<ele>131.142700</ele>
<time>2010-07-17T19:40:52Z</time>
<desc>lat.=55.704311, lon.=26.086338, Alt.=131.142700m. Speed=0.036000m/h.</desc>
<speed>0.010000</speed>
</trkpt>
<trkpt lat="55.704311" lon="26.086338">
<ele>131.162231</ele>
<time>2010-07-17T19:40:53Z</time>
<desc>lat.=55.704311, lon.=26.086338, Alt.=131.162231m. Speed=0.108000m/h.</desc>
<speed>0.030000</speed>
</trkpt>
<trkpt lat="55.704311" lon="26.086338">
<ele>131.177856</ele>
<time>2010-07-17T19:40:54Z</time>
<desc>lat.=55.704311, lon.=26.086338, Alt.=131.177856m. Speed=0.108000m/h.</desc>
<speed>0.030000</speed>
</trkpt>
<trkpt lat="55.704311" lon="26.086338">
<ele>131.197388</ele>
<time>2010-07-17T19:40:55Z</time>
<desc>lat.=55.704311, lon.=26.086338, Alt.=131.197388m. Speed=0.180000m/h.</desc>
<speed>0.050000</speed>
</trkpt>
<trkpt lat="55.704311" lon="26.086338">
<ele>131.216919</ele>
<time>2010-07-17T19:40:56Z</time>
<desc>lat.=55.704311, lon.=26.086338, Alt.=131.216919m. Speed=0.144000m/h.</desc>
<speed>0.040000</speed>
</trkpt>
<trkpt lat="55.704311" lon="26.086336">
<ele>131.236450</ele>
<time>2010-07-17T19:40:57Z</time>
<desc>lat.=55.704311, lon.=26.086336, Alt.=131.236450m. Speed=0.108000m/h.</desc>
<speed>0.030000</speed>
</trkpt>
<trkpt lat="55.704311" lon="26.086336">
<ele>131.259888</ele>
<time>2010-07-17T19:40:58Z</time>
<desc>lat.=55.704311, lon.=26.086336, Alt.=131.259888m. Speed=0.180000m/h.</desc>
<speed>0.050000</speed>
</trkpt>
<trkpt lat="55.704311" lon="26.086336">
<ele>131.267700</ele>
<time>2010-07-17T19:40:59Z</time>
<desc>lat.=55.704311, lon.=26.086336, Alt.=131.267700m. Speed=0.108000m/h.</desc>
<speed>0.030000</speed>
</trkpt>
<trkpt lat="55.704311" lon="26.086336">
<ele>131.295044</ele>
<time>2010-07-17T19:41:00Z</time>
<desc>lat.=55.704311, lon.=26.086336, Alt.=131.295044m. Speed=0.108000m/h.</desc>
<speed>0.030000</speed>
</trkpt>
<trkpt lat="55.704311" lon="26.086336">
<ele>131.322388</ele>
<time>2010-07-17T19:41:01Z</time>
<desc>lat.=55.704311, lon.=26.086336, Alt.=131.322388m. Speed=0.144000m/h.</desc>
<speed>0.040000</speed>
</trkpt>
<trkpt lat="55.704311" lon="26.086336">
<ele>131.345825</ele>
<time>2010-07-17T19:41:02Z</time>
<desc>lat.=55.704311, lon.=26.086336, Alt.=131.345825m. Speed=0.108000m/h.</desc>
<speed>0.030000</speed>
</trkpt>
<trkpt lat="55.704311" lon="26.086336">
<ele>131.373169</ele>
<time>2010-07-17T19:41:03Z</time>
<desc>lat.=55.704311, lon.=26.086336, Alt.=131.373169m. Speed=0.108000m/h.</desc>
<speed>0.030000</speed>
</trkpt>
<trkpt lat="55.704311" lon="26.086336">
<ele>131.400513</ele>
<time>2010-07-17T19:41:04Z</time>
<desc>lat.=55.704311, lon.=26.086336, Alt.=131.400513m. Speed=0.072000m/h.</desc>
<speed>0.020000</speed>
</trkpt>
<trkpt lat="55.704311" lon="26.086336">
<ele>131.420044</ele>
<time>2010-07-17T19:41:05Z</time>
<desc>lat.=55.704311, lon.=26.086336, Alt.=131.420044m. Speed=0.036000m/h.</desc>
<speed>0.010000</speed>
</trkpt>
<trkpt lat="55.704311" lon="26.086336">
<ele>131.451294</ele>
<time>2010-07-17T19:41:06Z</time>
<desc>lat.=55.704311, lon.=26.086336, Alt.=131.451294m. Speed=0.108000m/h.</desc>
<speed>0.030000</speed>
</trkpt>
<trkpt lat="55.704311" lon="26.086336">
<ele>131.470825</ele>
<time>2010-07-17T19:41:07Z</time>
<desc>lat.=55.704311, lon.=26.086336, Alt.=131.470825m. Speed=0.108000m/h.</desc>
<speed>0.030000</speed>
</trkpt>
<trkpt lat="55.704311" lon="26.086336">
<ele>131.482544</ele>
<time>2010-07-17T19:41:08Z</time>
<desc>lat.=55.704311, lon.=26.086336, Alt.=131.482544m. Speed=0.072000m/h.</desc>
<speed>0.020000</speed>
</trkpt>
<trkpt lat="55.704311" lon="26.086336">
<ele>131.502075</ele>
<time>2010-07-17T19:41:09Z</time>
<desc>lat.=55.704311, lon.=26.086336, Alt.=131.502075m. Speed=0.108000m/h.</desc>
<speed>0.030000</speed>
</trkpt>
<trkpt lat="55.704311" lon="26.086334">
<ele>131.509888</ele>
<time>2010-07-17T19:41:10Z</time>
<desc>lat.=55.704311, lon.=26.086334, Alt.=131.509888m. Speed=0.108000m/h.</desc>
<speed>0.030000</speed>
</trkpt>
<trkpt lat="55.704311" lon="26.086334">
<ele>131.533325</ele>
<time>2010-07-17T19:41:11Z</time>
<desc>lat.=55.704311, lon.=26.086334, Alt.=131.533325m. Speed=0.108000m/h.</desc>
<speed>0.030000</speed>
</trkpt>
<trkpt lat="55.704311" lon="26.086334">
<ele>131.548950</ele>
<time>2010-07-17T19:41:12Z</time>
<desc>lat.=55.704311, lon.=26.086334, Alt.=131.548950m. Speed=0.108000m/h.</desc>
<speed>0.030000</speed>
</trkpt>
<trkpt lat="55.704311" lon="26.086334">
<ele>131.572388</ele>
<time>2010-07-17T19:41:13Z</time>
<desc>lat.=55.704311, lon.=26.086334, Alt.=131.572388m. Speed=0.108000m/h.</desc>
<speed>0.030000</speed>
</trkpt>
<trkpt lat="55.704311" lon="26.086334">
<ele>131.595825</ele>
<time>2010-07-17T19:41:14Z</time>
<desc>lat.=55.704311, lon.=26.086334, Alt.=131.595825m. Speed=0.144000m/h.</desc>
<speed>0.040000</speed>
</trkpt>
<trkpt lat="55.704311" lon="26.086334">
<ele>131.619263</ele>
<time>2010-07-17T19:41:15Z</time>
<desc>lat.=55.704311, lon.=26.086334, Alt.=131.619263m. Speed=0.108000m/h.</desc>
<speed>0.030000</speed>
</trkpt>
<trkpt lat="55.704311" lon="26.086334">
<ele>131.638794</ele>
<time>2010-07-17T19:41:16Z</time>
<desc>lat.=55.704311, lon.=26.086334, Alt.=131.638794m. Speed=0.036000m/h.</desc>
<speed>0.010000</speed>
</trkpt>
<trkpt lat="55.704311" lon="26.086334">
<ele>131.666138</ele>
<time>2010-07-17T19:41:17Z</time>
<desc>lat.=55.704311, lon.=26.086334, Alt.=131.666138m. Speed=0.072000m/h.</desc>
<speed>0.020000</speed>
</trkpt>
<trkpt lat="55.704315" lon="26.086334">
<ele>131.685669</ele>
<time>2010-07-17T19:41:18Z</time>
<desc>lat.=55.704315, lon.=26.086334, Alt.=131.685669m. Speed=0.108000m/h.</desc>
<speed>0.030000</speed>
</trkpt>
<trkpt lat="55.704315" lon="26.086334">
<ele>131.713013</ele>
<time>2010-07-17T19:41:19Z</time>
<desc>lat.=55.704315, lon.=26.086334, Alt.=131.713013m. Speed=0.108000m/h.</desc>
<speed>0.030000</speed>
</trkpt>
<trkpt lat="55.704315" lon="26.086334">
<ele>131.740356</ele>
<time>2010-07-17T19:41:20Z</time>
<desc>lat.=55.704315, lon.=26.086334, Alt.=131.740356m. Speed=0.108000m/h.</desc>
<speed>0.030000</speed>
</trkpt>
<trkpt lat="55.704315" lon="26.086334">
<ele>131.775513</ele>
<time>2010-07-17T19:41:21Z</time>
<desc>lat.=55.704315, lon.=26.086334, Alt.=131.775513m. Speed=0.144000m/h.</desc>
<speed>0.040000</speed>
</trkpt>
<trkpt lat="55.704315" lon="26.086334">
<ele>131.810669</ele>
<time>2010-07-17T19:41:22Z</time>
<desc>lat.=55.704315, lon.=26.086334, Alt.=131.810669m. Speed=0.108000m/h.</desc>
<speed>0.030000</speed>
</trkpt>
<trkpt lat="55.704315" lon="26.086334">
<ele>131.818481</ele>
<time>2010-07-17T19:41:23Z</time>
<desc>lat.=55.704315, lon.=26.086334, Alt.=131.818481m. Speed=0.108000m/h.</desc>
<speed>0.030000</speed>
</trkpt>
<trkpt lat="55.704315" lon="26.086334">
<ele>131.853638</ele>
<time>2010-07-17T19:41:24Z</time>
<desc>lat.=55.704315, lon.=26.086334, Alt.=131.853638m. Speed=0.144000m/h.</desc>
<speed>0.040000</speed>
</trkpt>
<trkpt lat="55.704315" lon="26.086334">
<ele>131.884888</ele>
<time>2010-07-17T19:41:25Z</time>
<desc>lat.=55.704315, lon.=26.086334, Alt.=131.884888m. Speed=0.072000m/h.</desc>
<speed>0.020000</speed>
</trkpt>
<trkpt lat="55.704315" lon="26.086334">
<ele>131.923950</ele>
<time>2010-07-17T19:41:26Z</time>
<desc>lat.=55.704315, lon.=26.086334, Alt.=131.923950m. Speed=0.072000m/h.</desc>
<speed>0.020000</speed>
</trkpt>
<trkpt lat="55.704315" lon="26.086334">
<ele>131.939575</ele>
<time>2010-07-17T19:41:27Z</time>
<desc>lat.=55.704315, lon.=26.086334, Alt.=131.939575m. Speed=0.072000m/h.</desc>
<speed>0.020000</speed>
</trkpt>
<trkpt lat="55.704315" lon="26.086334">
<ele>131.970825</ele>
<time>2010-07-17T19:41:28Z</time>
<desc>lat.=55.704315, lon.=26.086334, Alt.=131.970825m. Speed=0.108000m/h.</desc>
<speed>0.030000</speed>
</trkpt>
<trkpt lat="55.704315" lon="26.086334">
<ele>132.002075</ele>
<time>2010-07-17T19:41:29Z</time>
<desc>lat.=55.704315, lon.=26.086334, Alt.=132.002075m. Speed=0.180000m/h.</desc>
<speed>0.050000</speed>
</trkpt>
<trkpt lat="55.704315" lon="26.086334">
<ele>132.037231</ele>
<time>2010-07-17T19:41:30Z</time>
<desc>lat.=55.704315, lon.=26.086334, Alt.=132.037231m. Speed=0.036000m/h.</desc>
<speed>0.010000</speed>
</trkpt>
<trkpt lat="55.704315" lon="26.086334">
<ele>132.045044</ele>
<time>2010-07-17T19:41:31Z</time>
<desc>lat.=55.704315, lon.=26.086334, Alt.=132.045044m. Speed=0.108000m/h.</desc>
<speed>0.030000</speed>
</trkpt>
<trkpt lat="55.704315" lon="26.086334">
<ele>132.072388</ele>
<time>2010-07-17T19:41:32Z</time>
<desc>lat.=55.704315, lon.=26.086334, Alt.=132.072388m. Speed=0.036000m/h.</desc>
<speed>0.010000</speed>
</trkpt>
<trkpt lat="55.704315" lon="26.086334">
<ele>132.099731</ele>
<time>2010-07-17T19:41:33Z</time>
<desc>lat.=55.704315, lon.=26.086334, Alt.=132.099731m. Speed=0.036000m/h.</desc>
<speed>0.010000</speed>
</trkpt>
<trkpt lat="55.704315" lon="26.086334">
<ele>132.123169</ele>
<time>2010-07-17T19:41:34Z</time>
<desc>lat.=55.704315, lon.=26.086334, Alt.=132.123169m. Speed=0.108000m/h.</desc>
<speed>0.030000</speed>
</trkpt>
<trkpt lat="55.704315" lon="26.086334">
<ele>132.134888</ele>
<time>2010-07-17T19:41:35Z</time>
<desc>lat.=55.704315, lon.=26.086334, Alt.=132.134888m. Speed=0.072000m/h.</desc>
<speed>0.020000</speed>
</trkpt>
<trkpt lat="55.704315" lon="26.086334">
<ele>132.166138</ele>
<time>2010-07-17T19:41:36Z</time>
<desc>lat.=55.704315, lon.=26.086334, Alt.=132.166138m. Speed=0.072000m/h.</desc>
<speed>0.020000</speed>
</trkpt>
<trkpt lat="55.704315" lon="26.086334">
<ele>132.177856</ele>
<time>2010-07-17T19:41:37Z</time>
<desc>lat.=55.704315, lon.=26.086334, Alt.=132.177856m. Speed=0.072000m/h.</desc>
<speed>0.020000</speed>
</trkpt>
<trkpt lat="55.704315" lon="26.086334">
<ele>132.205200</ele>
<time>2010-07-17T19:41:38Z</time>
<desc>lat.=55.704315, lon.=26.086334, Alt.=132.205200m. Speed=0.072000m/h.</desc>
<speed>0.020000</speed>
</trkpt>
<trkpt lat="55.704315" lon="26.086334">
<ele>132.232544</ele>
<time>2010-07-17T19:41:39Z</time>
<desc>lat.=55.704315, lon.=26.086334, Alt.=132.232544m. Speed=0.180000m/h.</desc>
<speed>0.050000</speed>
</trkpt>
<trkpt lat="55.704315" lon="26.086334">
<ele>132.259888</ele>
<time>2010-07-17T19:41:40Z</time>
<desc>lat.=55.704315, lon.=26.086334, Alt.=132.259888m. Speed=0.144000m/h.</desc>
<speed>0.040000</speed>
</trkpt>
<trkpt lat="55.704315" lon="26.086334">
<ele>132.287231</ele>
<time>2010-07-17T19:41:41Z</time>
<desc>lat.=55.704315, lon.=26.086334, Alt.=132.287231m. Speed=0.072000m/h.</desc>
<speed>0.020000</speed>
</trkpt>
<trkpt lat="55.704315" lon="26.086334">
<ele>132.314575</ele>
<time>2010-07-17T19:41:42Z</time>
<desc>lat.=55.704315, lon.=26.086334, Alt.=132.314575m. Speed=0.036000m/h.</desc>
<speed>0.010000</speed>
</trkpt>
<trkpt lat="55.704315" lon="26.086334">
<ele>132.341919</ele>
<time>2010-07-17T19:41:43Z</time>
<desc>lat.=55.704315, lon.=26.086334, Alt.=132.341919m. Speed=0.072000m/h.</desc>
<speed>0.020000</speed>
</trkpt>
<trkpt lat="55.704315" lon="26.086334">
<ele>132.349731</ele>
<time>2010-07-17T19:41:44Z</time>
<desc>lat.=55.704315, lon.=26.086334, Alt.=132.349731m. Speed=0.000000m/h.</desc>
<speed>0.000000</speed>
</trkpt>
<trkpt lat="55.704315" lon="26.086334">
<ele>132.365356</ele>
<time>2010-07-17T19:41:45Z</time>
<desc>lat.=55.704315, lon.=26.086334, Alt.=132.365356m. Speed=0.072000m/h.</desc>
<speed>0.020000</speed>
</trkpt>
<trkpt lat="55.704315" lon="26.086334">
<ele>132.365356</ele>
<time>2010-07-17T19:41:46Z</time>
<desc>lat.=55.704315, lon.=26.086334, Alt.=132.365356m. Speed=0.072000m/h.</desc>
<speed>0.020000</speed>
</trkpt>
<trkpt lat="55.704315" lon="26.086334">
<ele>132.377075</ele>
<time>2010-07-17T19:41:47Z</time>
<desc>lat.=55.704315, lon.=26.086334, Alt.=132.377075m. Speed=0.144000m/h.</desc>
<speed>0.040000</speed>
</trkpt>
<trkpt lat="55.704315" lon="26.086334">
<ele>132.380981</ele>
<time>2010-07-17T19:41:48Z</time>
<desc>lat.=55.704315, lon.=26.086334, Alt.=132.380981m. Speed=0.072000m/h.</desc>
<speed>0.020000</speed>
</trkpt>
<trkpt lat="55.704315" lon="26.086332">
<ele>132.392700</ele>
<time>2010-07-17T19:41:49Z</time>
<desc>lat.=55.704315, lon.=26.086332, Alt.=132.392700m. Speed=0.036000m/h.</desc>
<speed>0.010000</speed>
</trkpt>
<trkpt lat="55.704315" lon="26.086332">
<ele>132.392700</ele>
<time>2010-07-17T19:41:50Z</time>
<desc>lat.=55.704315, lon.=26.086332, Alt.=132.392700m. Speed=0.072000m/h.</desc>
<speed>0.020000</speed>
</trkpt>
<trkpt lat="55.704315" lon="26.086332">
<ele>132.404419</ele>
<time>2010-07-17T19:41:51Z</time>
<desc>lat.=55.704315, lon.=26.086332, Alt.=132.404419m. Speed=0.144000m/h.</desc>
<speed>0.040000</speed>
</trkpt>
<trkpt lat="55.704315" lon="26.086332">
<ele>132.423950</ele>
<time>2010-07-17T19:41:52Z</time>
<desc>lat.=55.704315, lon.=26.086332, Alt.=132.423950m. Speed=0.036000m/h.</desc>
<speed>0.010000</speed>
</trkpt>
<trkpt lat="55.704315" lon="26.086332">
<ele>132.435669</ele>
<time>2010-07-17T19:41:53Z</time>
<desc>lat.=55.704315, lon.=26.086332, Alt.=132.435669m. Speed=0.036000m/h.</desc>
<speed>0.010000</speed>
</trkpt>
<trkpt lat="55.704315" lon="26.086332">
<ele>132.431763</ele>
<time>2010-07-17T19:41:54Z</time>
<desc>lat.=55.704315, lon.=26.086332, Alt.=132.431763m. Speed=0.000000m/h.</desc>
<speed>0.000000</speed>
</trkpt>
<trkpt lat="55.704315" lon="26.086332">
<ele>132.443481</ele>
<time>2010-07-17T19:41:55Z</time>
<desc>lat.=55.704315, lon.=26.086332, Alt.=132.443481m. Speed=0.000000m/h.</desc>
<speed>0.000000</speed>
</trkpt>
<trkpt lat="55.704315" lon="26.086332">
<ele>132.455200</ele>
<time>2010-07-17T19:41:56Z</time>
<desc>lat.=55.704315, lon.=26.086332, Alt.=132.455200m. Speed=0.000000m/h.</desc>
<speed>0.000000</speed>
</trkpt>
<trkpt lat="55.704315" lon="26.086332">
<ele>132.470825</ele>
<time>2010-07-17T19:41:57Z</time>
<desc>lat.=55.704315, lon.=26.086332, Alt.=132.470825m. Speed=0.000000m/h.</desc>
<speed>0.000000</speed>
</trkpt>
<trkpt lat="55.704315" lon="26.086332">
<ele>132.474731</ele>
<time>2010-07-17T19:41:58Z</time>
<desc>lat.=55.704315, lon.=26.086332, Alt.=132.474731m. Speed=0.036000m/h.</desc>
<speed>0.010000</speed>
</trkpt>
<trkpt lat="55.704315" lon="26.086332">
<ele>132.490356</ele>
<time>2010-07-17T19:41:59Z</time>
<desc>lat.=55.704315, lon.=26.086332, Alt.=132.490356m. Speed=0.000000m/h.</desc>
<speed>0.000000</speed>
</trkpt>
<trkpt lat="55.704315" lon="26.086332">
<ele>132.494263</ele>
<time>2010-07-17T19:42:00Z</time>
<desc>lat.=55.704315, lon.=26.086332, Alt.=132.494263m. Speed=0.036000m/h.</desc>
<speed>0.010000</speed>
</trkpt>
<trkpt lat="55.704315" lon="26.086332">
<ele>132.513794</ele>
<time>2010-07-17T19:42:01Z</time>
<desc>lat.=55.704315, lon.=26.086332, Alt.=132.513794m. Speed=0.036000m/h.</desc>
<speed>0.010000</speed>
</trkpt>
<trkpt lat="55.704315" lon="26.086332">
<ele>132.525513</ele>
<time>2010-07-17T19:42:02Z</time>
<desc>lat.=55.704315, lon.=26.086332, Alt.=132.525513m. Speed=0.000000m/h.</desc>
<speed>0.000000</speed>
</trkpt>
<trkpt lat="55.704315" lon="26.086332">
<ele>132.541138</ele>
<time>2010-07-17T19:42:03Z</time>
<desc>lat.=55.704315, lon.=26.086332, Alt.=132.541138m. Speed=0.036000m/h.</desc>
<speed>0.010000</speed>
</trkpt>
<trkpt lat="55.704315" lon="26.086332">
<ele>132.552856</ele>
<time>2010-07-17T19:42:04Z</time>
<desc>lat.=55.704315, lon.=26.086332, Alt.=132.552856m. Speed=0.000000m/h.</desc>
<speed>0.000000</speed>
</trkpt>
<trkpt lat="55.704315" lon="26.086332">
<ele>132.564575</ele>
<time>2010-07-17T19:42:05Z</time>
<desc>lat.=55.704315, lon.=26.086332, Alt.=132.564575m. Speed=0.000000m/h.</desc>
<speed>0.000000</speed>
</trkpt>
<trkpt lat="55.704315" lon="26.086332">
<ele>132.584106</ele>
<time>2010-07-17T19:42:06Z</time>
<desc>lat.=55.704315, lon.=26.086332, Alt.=132.584106m. Speed=0.036000m/h.</desc>
<speed>0.010000</speed>
</trkpt>
<trkpt lat="55.704315" lon="26.086332">
<ele>132.595825</ele>
<time>2010-07-17T19:42:07Z</time>
<desc>lat.=55.704315, lon.=26.086332, Alt.=132.595825m. Speed=0.000000m/h.</desc>
<speed>0.000000</speed>
</trkpt>
<trkpt lat="55.704315" lon="26.086332">
<ele>132.619263</ele>
<time>2010-07-17T19:42:08Z</time>
<desc>lat.=55.704315, lon.=26.086332, Alt.=132.619263m. Speed=0.072000m/h.</desc>
<speed>0.020000</speed>
</trkpt>
<trkpt lat="55.704315" lon="26.086332">
<ele>132.627075</ele>
<time>2010-07-17T19:42:09Z</time>
<desc>lat.=55.704315, lon.=26.086332, Alt.=132.627075m. Speed=0.036000m/h.</desc>
<speed>0.010000</speed>
</trkpt>
<trkpt lat="55.704315" lon="26.086332">
<ele>132.646606</ele>
<time>2010-07-17T19:42:10Z</time>
<desc>lat.=55.704315, lon.=26.086332, Alt.=132.646606m. Speed=0.000000m/h.</desc>
<speed>0.000000</speed>
</trkpt>
<trkpt lat="55.704315" lon="26.086332">
<ele>132.662231</ele>
<time>2010-07-17T19:42:11Z</time>
<desc>lat.=55.704315, lon.=26.086332, Alt.=132.662231m. Speed=0.036000m/h.</desc>
<speed>0.010000</speed>
</trkpt>
<trkpt lat="55.704315" lon="26.086332">
<ele>132.677856</ele>
<time>2010-07-17T19:42:12Z</time>
<desc>lat.=55.704315, lon.=26.086332, Alt.=132.677856m. Speed=0.036000m/h.</desc>
<speed>0.010000</speed>
</trkpt>
<trkpt lat="55.704315" lon="26.086332">
<ele>132.701294</ele>
<time>2010-07-17T19:42:13Z</time>
<desc>lat.=55.704315, lon.=26.086332, Alt.=132.701294m. Speed=0.072000m/h.</desc>
<speed>0.020000</speed>
</trkpt>
<trkpt lat="55.704315" lon="26.086332">
<ele>132.724731</ele>
<time>2010-07-17T19:42:14Z</time>
<desc>lat.=55.704315, lon.=26.086332, Alt.=132.724731m. Speed=0.180000m/h.</desc>
<speed>0.050000</speed>
</trkpt>
<trkpt lat="55.704315" lon="26.086332">
<ele>132.755981</ele>
<time>2010-07-17T19:42:15Z</time>
<desc>lat.=55.704315, lon.=26.086332, Alt.=132.755981m. Speed=0.108000m/h.</desc>
<speed>0.030000</speed>
</trkpt>
<trkpt lat="55.704315" lon="26.086332">
<ele>132.775513</ele>
<time>2010-07-17T19:42:16Z</time>
<desc>lat.=55.704315, lon.=26.086332, Alt.=132.775513m. Speed=0.108000m/h.</desc>
<speed>0.030000</speed>
</trkpt>
<trkpt lat="55.704315" lon="26.086332">
<ele>132.779419</ele>
<time>2010-07-17T19:42:17Z</time>
<desc>lat.=55.704315, lon.=26.086332, Alt.=132.779419m. Speed=0.036000m/h.</desc>
<speed>0.010000</speed>
</trkpt>
<trkpt lat="55.704315" lon="26.086332">
<ele>132.806763</ele>
<time>2010-07-17T19:42:18Z</time>
<desc>lat.=55.704315, lon.=26.086332, Alt.=132.806763m. Speed=0.072000m/h.</desc>
<speed>0.020000</speed>
</trkpt>
<trkpt lat="55.704315" lon="26.086332">
<ele>132.834106</ele>
<time>2010-07-17T19:42:19Z</time>
<desc>lat.=55.704315, lon.=26.086332, Alt.=132.834106m. Speed=0.108000m/h.</desc>
<speed>0.030000</speed>
</trkpt>
<trkpt lat="55.704315" lon="26.086332">
<ele>132.841919</ele>
<time>2010-07-17T19:42:20Z</time>
<desc>lat.=55.704315, lon.=26.086332, Alt.=132.841919m. Speed=0.072000m/h.</desc>
<speed>0.020000</speed>
</trkpt>
<trkpt lat="55.704315" lon="26.086334">
<ele>132.861450</ele>
<time>2010-07-17T19:42:21Z</time>
<desc>lat.=55.704315, lon.=26.086334, Alt.=132.861450m. Speed=0.036000m/h.</desc>
<speed>0.010000</speed>
</trkpt>
<trkpt lat="55.704315" lon="26.086334">
<ele>132.869263</ele>
<time>2010-07-17T19:42:22Z</time>
<desc>lat.=55.704315, lon.=26.086334, Alt.=132.869263m. Speed=0.000000m/h.</desc>
<speed>0.000000</speed>
</trkpt>
<trkpt lat="55.704315" lon="26.086334">
<ele>132.884888</ele>
<time>2010-07-17T19:42:23Z</time>
<desc>lat.=55.704315, lon.=26.086334, Alt.=132.884888m. Speed=0.144000m/h.</desc>
<speed>0.040000</speed>
</trkpt>
<trkpt lat="55.704315" lon="26.086334">
<ele>132.904419</ele>
<time>2010-07-17T19:42:24Z</time>
<desc>lat.=55.704315, lon.=26.086334, Alt.=132.904419m. Speed=0.072000m/h.</desc>
<speed>0.020000</speed>
</trkpt>
<trkpt lat="55.704315" lon="26.086334">
<ele>132.927856</ele>
<time>2010-07-17T19:42:25Z</time>
<desc>lat.=55.704315, lon.=26.086334, Alt.=132.927856m. Speed=0.144000m/h.</desc>
<speed>0.040000</speed>
</trkpt>
<trkpt lat="55.704315" lon="26.086334">
<ele>132.943481</ele>
<time>2010-07-17T19:42:26Z</time>
<desc>lat.=55.704315, lon.=26.086334, Alt.=132.943481m. Speed=0.108000m/h.</desc>
<speed>0.030000</speed>
</trkpt>
<trkpt lat="55.704315" lon="26.086334">
<ele>132.970825</ele>
<time>2010-07-17T19:42:27Z</time>
<desc>lat.=55.704315, lon.=26.086334, Alt.=132.970825m. Speed=0.144000m/h.</desc>
<speed>0.040000</speed>
</trkpt>
<trkpt lat="55.704319" lon="26.086334">
<ele>132.990356</ele>
<time>2010-07-17T19:42:28Z</time>
<desc>lat.=55.704319, lon.=26.086334, Alt.=132.990356m. Speed=0.144000m/h.</desc>
<speed>0.040000</speed>
</trkpt>
<trkpt lat="55.704319" lon="26.086334">
<ele>133.021606</ele>
<time>2010-07-17T19:42:29Z</time>
<desc>lat.=55.704319, lon.=26.086334, Alt.=133.021606m. Speed=0.144000m/h.</desc>
<speed>0.040000</speed>
</trkpt>
<trkpt lat="55.704319" lon="26.086334">
<ele>133.045044</ele>
<time>2010-07-17T19:42:30Z</time>
<desc>lat.=55.704319, lon.=26.086334, Alt.=133.045044m. Speed=0.144000m/h.</desc>
<speed>0.040000</speed>
</trkpt>
<trkpt lat="55.704319" lon="26.086334">
<ele>133.068481</ele>
<time>2010-07-17T19:42:31Z</time>
<desc>lat.=55.704319, lon.=26.086334, Alt.=133.068481m. Speed=0.180000m/h.</desc>
<speed>0.050000</speed>
</trkpt>
<trkpt lat="55.704319" lon="26.086334">
<ele>133.091919</ele>
<time>2010-07-17T19:42:32Z</time>
<desc>lat.=55.704319, lon.=26.086334, Alt.=133.091919m. Speed=0.180000m/h.</desc>
<speed>0.050000</speed>
</trkpt>
<trkpt lat="55.704319" lon="26.086334">
<ele>133.107544</ele>
<time>2010-07-17T19:42:33Z</time>
<desc>lat.=55.704319, lon.=26.086334, Alt.=133.107544m. Speed=0.180000m/h.</desc>
<speed>0.050000</speed>
</trkpt>
<trkpt lat="55.704319" lon="26.086334">
<ele>133.123169</ele>
<time>2010-07-17T19:42:34Z</time>
<desc>lat.=55.704319, lon.=26.086334, Alt.=133.123169m. Speed=0.216000m/h.</desc>
<speed>0.060000</speed>
</trkpt>
<trkpt lat="55.704319" lon="26.086334">
<ele>133.142700</ele>
<time>2010-07-17T19:42:35Z</time>
<desc>lat.=55.704319, lon.=26.086334, Alt.=133.142700m. Speed=0.180000m/h.</desc>
<speed>0.050000</speed>
</trkpt>
<trkpt lat="55.704319" lon="26.086334">
<ele>133.154419</ele>
<time>2010-07-17T19:42:36Z</time>
<desc>lat.=55.704319, lon.=26.086334, Alt.=133.154419m. Speed=0.108000m/h.</desc>
<speed>0.030000</speed>
</trkpt>
<trkpt lat="55.704319" lon="26.086334">
<ele>133.166138</ele>
<time>2010-07-17T19:42:37Z</time>
<desc>lat.=55.704319, lon.=26.086334, Alt.=133.166138m. Speed=0.144000m/h.</desc>
<speed>0.040000</speed>
</trkpt>
<trkpt lat="55.704319" lon="26.086334">
<ele>133.177856</ele>
<time>2010-07-17T19:42:38Z</time>
<desc>lat.=55.704319, lon.=26.086334, Alt.=133.177856m. Speed=0.072000m/h.</desc>
<speed>0.020000</speed>
</trkpt>
<trkpt lat="55.704319" lon="26.086334">
<ele>133.189575</ele>
<time>2010-07-17T19:42:39Z</time>
<desc>lat.=55.704319, lon.=26.086334, Alt.=133.189575m. Speed=0.180000m/h.</desc>
<speed>0.050000</speed>
</trkpt>
<trkpt lat="55.704319" lon="26.086334">
<ele>133.201294</ele>
<time>2010-07-17T19:42:40Z</time>
<desc>lat.=55.704319, lon.=26.086334, Alt.=133.201294m. Speed=0.072000m/h.</desc>
<speed>0.020000</speed>
</trkpt>
<trkpt lat="55.704319" lon="26.086334">
<ele>133.205200</ele>
<time>2010-07-17T19:42:41Z</time>
<desc>lat.=55.704319, lon.=26.086334, Alt.=133.205200m. Speed=0.072000m/h.</desc>
<speed>0.020000</speed>
</trkpt>
<trkpt lat="55.704319" lon="26.086334">
<ele>133.224731</ele>
<time>2010-07-17T19:42:42Z</time>
<desc>lat.=55.704319, lon.=26.086334, Alt.=133.224731m. Speed=0.144000m/h.</desc>
<speed>0.040000</speed>
</trkpt>
<trkpt lat="55.704319" lon="26.086334">
<ele>133.232544</ele>
<time>2010-07-17T19:42:43Z</time>
<desc>lat.=55.704319, lon.=26.086334, Alt.=133.232544m. Speed=0.036000m/h.</desc>
<speed>0.010000</speed>
</trkpt>
<trkpt lat="55.704319" lon="26.086334">
<ele>133.236450</ele>
<time>2010-07-17T19:42:44Z</time>
<desc>lat.=55.704319, lon.=26.086334, Alt.=133.236450m. Speed=0.000000m/h.</desc>
<speed>0.000000</speed>
</trkpt>
<trkpt lat="55.704319" lon="26.086334">
<ele>133.244263</ele>
<time>2010-07-17T19:42:45Z</time>
<desc>lat.=55.704319, lon.=26.086334, Alt.=133.244263m. Speed=0.000000m/h.</desc>
<speed>0.000000</speed>
</trkpt>
<trkpt lat="55.704319" lon="26.086334">
<ele>133.248169</ele>
<time>2010-07-17T19:42:46Z</time>
<desc>lat.=55.704319, lon.=26.086334, Alt.=133.248169m. Speed=0.000000m/h.</desc>
<speed>0.000000</speed>
</trkpt>
<trkpt lat="55.704319" lon="26.086334">
<ele>133.255981</ele>
<time>2010-07-17T19:42:47Z</time>
<desc>lat.=55.704319, lon.=26.086334, Alt.=133.255981m. Speed=0.036000m/h.</desc>
<speed>0.010000</speed>
</trkpt>
<trkpt lat="55.704319" lon="26.086334">
<ele>133.267700</ele>
<time>2010-07-17T19:42:48Z</time>
<desc>lat.=55.704319, lon.=26.086334, Alt.=133.267700m. Speed=0.000000m/h.</desc>
<speed>0.000000</speed>
</trkpt>
<trkpt lat="55.704319" lon="26.086334">
<ele>133.275513</ele>
<time>2010-07-17T19:42:49Z</time>
<desc>lat.=55.704319, lon.=26.086334, Alt.=133.275513m. Speed=0.036000m/h.</desc>
<speed>0.010000</speed>
</trkpt>
<trkpt lat="55.704319" lon="26.086334">
<ele>133.279419</ele>
<time>2010-07-17T19:42:50Z</time>
<desc>lat.=55.704319, lon.=26.086334, Alt.=133.279419m. Speed=0.036000m/h.</desc>
<speed>0.010000</speed>
</trkpt>
<trkpt lat="55.704319" lon="26.086334">
<ele>133.295044</ele>
<time>2010-07-17T19:42:51Z</time>
<desc>lat.=55.704319, lon.=26.086334, Alt.=133.295044m. Speed=0.036000m/h.</desc>
<speed>0.010000</speed>
</trkpt>
<trkpt lat="55.704319" lon="26.086334">
<ele>133.298950</ele>
<time>2010-07-17T19:42:52Z</time>
<desc>lat.=55.704319, lon.=26.086334, Alt.=133.298950m. Speed=0.072000m/h.</desc>
<speed>0.020000</speed>
</trkpt>
<trkpt lat="55.704319" lon="26.086334">
<ele>133.306763</ele>
<time>2010-07-17T19:42:53Z</time>
<desc>lat.=55.704319, lon.=26.086334, Alt.=133.306763m. Speed=0.144000m/h.</desc>
<speed>0.040000</speed>
</trkpt>
<trkpt lat="55.704319" lon="26.086334">
<ele>133.322388</ele>
<time>2010-07-17T19:42:54Z</time>
<desc>lat.=55.704319, lon.=26.086334, Alt.=133.322388m. Speed=0.000000m/h.</desc>
<speed>0.000000</speed>
</trkpt>
<trkpt lat="55.704319" lon="26.086334">
<ele>133.334106</ele>
<time>2010-07-17T19:42:55Z</time>
<desc>lat.=55.704319, lon.=26.086334, Alt.=133.334106m. Speed=0.000000m/h.</desc>
<speed>0.000000</speed>
</trkpt>
<trkpt lat="55.704319" lon="26.086334">
<ele>133.353638</ele>
<time>2010-07-17T19:42:56Z</time>
<desc>lat.=55.704319, lon.=26.086334, Alt.=133.353638m. Speed=0.000000m/h.</desc>
<speed>0.000000</speed>
</trkpt>
<trkpt lat="55.704319" lon="26.086334">
<ele>133.365356</ele>
<time>2010-07-17T19:42:57Z</time>
<desc>lat.=55.704319, lon.=26.086334, Alt.=133.365356m. Speed=0.000000m/h.</desc>
<speed>0.000000</speed>
</trkpt>
<trkpt lat="55.704319" lon="26.086334">
<ele>133.384888</ele>
<time>2010-07-17T19:42:58Z</time>
<desc>lat.=55.704319, lon.=26.086334, Alt.=133.384888m. Speed=0.036000m/h.</desc>
<speed>0.010000</speed>
</trkpt>
<trkpt lat="55.704319" lon="26.086334">
<ele>133.412231</ele>
<time>2010-07-17T19:42:59Z</time>
<desc>lat.=55.704319, lon.=26.086334, Alt.=133.412231m. Speed=0.036000m/h.</desc>
<speed>0.010000</speed>
</trkpt>
<trkpt lat="55.704319" lon="26.086334">
<ele>133.431763</ele>
<time>2010-07-17T19:43:00Z</time>
<desc>lat.=55.704319, lon.=26.086334, Alt.=133.431763m. Speed=0.036000m/h.</desc>
<speed>0.010000</speed>
</trkpt>
<trkpt lat="55.704319" lon="26.086334">
<ele>133.451294</ele>
<time>2010-07-17T19:43:01Z</time>
<desc>lat.=55.704319, lon.=26.086334, Alt.=133.451294m. Speed=0.000000m/h.</desc>
<speed>0.000000</speed>
</trkpt>
<trkpt lat="55.704319" lon="26.086334">
<ele>133.482544</ele>
<time>2010-07-17T19:43:02Z</time>
<desc>lat.=55.704319, lon.=26.086334, Alt.=133.482544m. Speed=0.072000m/h.</desc>
<speed>0.020000</speed>
</trkpt>
<trkpt lat="55.704319" lon="26.086334">
<ele>133.494263</ele>
<time>2010-07-17T19:43:03Z</time>
<desc>lat.=55.704319, lon.=26.086334, Alt.=133.494263m. Speed=0.000000m/h.</desc>
<speed>0.000000</speed>
</trkpt>
<trkpt lat="55.704319" lon="26.086334">
<ele>133.509888</ele>
<time>2010-07-17T19:43:04Z</time>
<desc>lat.=55.704319, lon.=26.086334, Alt.=133.509888m. Speed=0.072000m/h.</desc>
<speed>0.020000</speed>
</trkpt>
<trkpt lat="55.704319" lon="26.086334">
<ele>133.521606</ele>
<time>2010-07-17T19:43:05Z</time>
<desc>lat.=55.704319, lon.=26.086334, Alt.=133.521606m. Speed=0.072000m/h.</desc>
<speed>0.020000</speed>
</trkpt>
<trkpt lat="55.704319" lon="26.086334">
<ele>133.533325</ele>
<time>2010-07-17T19:43:06Z</time>
<desc>lat.=55.704319, lon.=26.086334, Alt.=133.533325m. Speed=0.036000m/h.</desc>
<speed>0.010000</speed>
</trkpt>
<trkpt lat="55.704319" lon="26.086334">
<ele>133.533325</ele>
<time>2010-07-17T19:43:07Z</time>
<desc>lat.=55.704319, lon.=26.086334, Alt.=133.533325m. Speed=0.036000m/h.</desc>
<speed>0.010000</speed>
</trkpt>
<trkpt lat="55.704319" lon="26.086334">
<ele>133.541138</ele>
<time>2010-07-17T19:43:08Z</time>
<desc>lat.=55.704319, lon.=26.086334, Alt.=133.541138m. Speed=0.108000m/h.</desc>
<speed>0.030000</speed>
</trkpt>
<trkpt lat="55.704319" lon="26.086334">
<ele>133.545044</ele>
<time>2010-07-17T19:43:09Z</time>
<desc>lat.=55.704319, lon.=26.086334, Alt.=133.545044m. Speed=0.036000m/h.</desc>
<speed>0.010000</speed>
</trkpt>
<trkpt lat="55.704319" lon="26.086334">
<ele>133.548950</ele>
<time>2010-07-17T19:43:10Z</time>
<desc>lat.=55.704319, lon.=26.086334, Alt.=133.548950m. Speed=0.000000m/h.</desc>
<speed>0.000000</speed>
</trkpt>
<trkpt lat="55.704319" lon="26.086334">
<ele>133.560669</ele>
<time>2010-07-17T19:43:11Z</time>
<desc>lat.=55.704319, lon.=26.086334, Alt.=133.560669m. Speed=0.036000m/h.</desc>
<speed>0.010000</speed>
</trkpt>
<trkpt lat="55.704319" lon="26.086334">
<ele>133.572388</ele>
<time>2010-07-17T19:43:12Z</time>
<desc>lat.=55.704319, lon.=26.086334, Alt.=133.572388m. Speed=0.036000m/h.</desc>
<speed>0.010000</speed>
</trkpt>
<trkpt lat="55.704319" lon="26.086334">
<ele>133.576294</ele>
<time>2010-07-17T19:43:13Z</time>
<desc>lat.=55.704319, lon.=26.086334, Alt.=133.576294m. Speed=0.108000m/h.</desc>
<speed>0.030000</speed>
</trkpt>
<trkpt lat="55.704319" lon="26.086334">
<ele>133.584106</ele>
<time>2010-07-17T19:43:14Z</time>
<desc>lat.=55.704319, lon.=26.086334, Alt.=133.584106m. Speed=0.036000m/h.</desc>
<speed>0.010000</speed>
</trkpt>
<trkpt lat="55.704319" lon="26.086334">
<ele>133.591919</ele>
<time>2010-07-17T19:43:15Z</time>
<desc>lat.=55.704319, lon.=26.086334, Alt.=133.591919m. Speed=0.036000m/h.</desc>
<speed>0.010000</speed>
</trkpt>
<trkpt lat="55.704319" lon="26.086334">
<ele>133.599731</ele>
<time>2010-07-17T19:43:16Z</time>
<desc>lat.=55.704319, lon.=26.086334, Alt.=133.599731m. Speed=0.000000m/h.</desc>
<speed>0.000000</speed>
</trkpt>
<trkpt lat="55.704319" lon="26.086334">
<ele>133.607544</ele>
<time>2010-07-17T19:43:17Z</time>
<desc>lat.=55.704319, lon.=26.086334, Alt.=133.607544m. Speed=0.072000m/h.</desc>
<speed>0.020000</speed>
</trkpt>
<trkpt lat="55.704319" lon="26.086334">
<ele>133.619263</ele>
<time>2010-07-17T19:43:18Z</time>
<desc>lat.=55.704319, lon.=26.086334, Alt.=133.619263m. Speed=0.072000m/h.</desc>
<speed>0.020000</speed>
</trkpt>
<trkpt lat="55.704319" lon="26.086334">
<ele>133.630981</ele>
<time>2010-07-17T19:43:19Z</time>
<desc>lat.=55.704319, lon.=26.086334, Alt.=133.630981m. Speed=0.000000m/h.</desc>
<speed>0.000000</speed>
</trkpt>
<trkpt lat="55.704319" lon="26.086334">
<ele>133.638794</ele>
<time>2010-07-17T19:43:20Z</time>
<desc>lat.=55.704319, lon.=26.086334, Alt.=133.638794m. Speed=0.072000m/h.</desc>
<speed>0.020000</speed>
</trkpt>
<trkpt lat="55.704319" lon="26.086334">
<ele>133.642700</ele>
<time>2010-07-17T19:43:21Z</time>
<desc>lat.=55.704319, lon.=26.086334, Alt.=133.642700m. Speed=0.072000m/h.</desc>
<speed>0.020000</speed>
</trkpt>
<trkpt lat="55.704319" lon="26.086334">
<ele>133.654419</ele>
<time>2010-07-17T19:43:22Z</time>
<desc>lat.=55.704319, lon.=26.086334, Alt.=133.654419m. Speed=0.072000m/h.</desc>
<speed>0.020000</speed>
</trkpt>
<trkpt lat="55.704319" lon="26.086334">
<ele>133.666138</ele>
<time>2010-07-17T19:43:23Z</time>
<desc>lat.=55.704319, lon.=26.086334, Alt.=133.666138m. Speed=0.000000m/h.</desc>
<speed>0.000000</speed>
</trkpt>
<trkpt lat="55.704319" lon="26.086334">
<ele>133.677856</ele>
<time>2010-07-17T19:43:24Z</time>
<desc>lat.=55.704319, lon.=26.086334, Alt.=133.677856m. Speed=0.000000m/h.</desc>
<speed>0.000000</speed>
</trkpt>
<trkpt lat="55.704319" lon="26.086334">
<ele>133.685669</ele>
<time>2010-07-17T19:43:25Z</time>
<desc>lat.=55.704319, lon.=26.086334, Alt.=133.685669m. Speed=0.000000m/h.</desc>
<speed>0.000000</speed>
</trkpt>
<trkpt lat="55.704319" lon="26.086334">
<ele>133.693481</ele>
<time>2010-07-17T19:43:26Z</time>
<desc>lat.=55.704319, lon.=26.086334, Alt.=133.693481m. Speed=0.000000m/h.</desc>
<speed>0.000000</speed>
</trkpt>
<trkpt lat="55.704319" lon="26.086336">
<ele>133.705200</ele>
<time>2010-07-17T19:43:27Z</time>
<desc>lat.=55.704319, lon.=26.086336, Alt.=133.705200m. Speed=0.036000m/h.</desc>
<speed>0.010000</speed>
</trkpt>
<trkpt lat="55.704319" lon="26.086336">
<ele>133.716919</ele>
<time>2010-07-17T19:43:28Z</time>
<desc>lat.=55.704319, lon.=26.086336, Alt.=133.716919m. Speed=0.036000m/h.</desc>
<speed>0.010000</speed>
</trkpt>
<trkpt lat="55.704319" lon="26.086336">
<ele>133.724731</ele>
<time>2010-07-17T19:43:29Z</time>
<desc>lat.=55.704319, lon.=26.086336, Alt.=133.724731m. Speed=0.000000m/h.</desc>
<speed>0.000000</speed>
</trkpt>
<trkpt lat="55.704323" lon="26.086336">
<ele>133.740356</ele>
<time>2010-07-17T19:43:30Z</time>
<desc>lat.=55.704323, lon.=26.086336, Alt.=133.740356m. Speed=0.144000m/h.</desc>
<speed>0.040000</speed>
</trkpt>
<trkpt lat="55.704323" lon="26.086336">
<ele>133.748169</ele>
<time>2010-07-17T19:43:31Z</time>
<desc>lat.=55.704323, lon.=26.086336, Alt.=133.748169m. Speed=0.036000m/h.</desc>
<speed>0.010000</speed>
</trkpt>
<trkpt lat="55.704323" lon="26.086336">
<ele>133.763794</ele>
<time>2010-07-17T19:43:32Z</time>
<desc>lat.=55.704323, lon.=26.086336, Alt.=133.763794m. Speed=0.000000m/h.</desc>
<speed>0.000000</speed>
</trkpt>
<trkpt lat="55.704323" lon="26.086336">
<ele>133.775513</ele>
<time>2010-07-17T19:43:33Z</time>
<desc>lat.=55.704323, lon.=26.086336, Alt.=133.775513m. Speed=0.036000m/h.</desc>
<speed>0.010000</speed>
</trkpt>
<trkpt lat="55.704323" lon="26.086336">
<ele>133.791138</ele>
<time>2010-07-17T19:43:34Z</time>
<desc>lat.=55.704323, lon.=26.086336, Alt.=133.791138m. Speed=0.000000m/h.</desc>
<speed>0.000000</speed>
</trkpt>
<trkpt lat="55.704323" lon="26.086336">
<ele>133.810669</ele>
<time>2010-07-17T19:43:35Z</time>
<desc>lat.=55.704323, lon.=26.086336, Alt.=133.810669m. Speed=0.108000m/h.</desc>
<speed>0.030000</speed>
</trkpt>
<trkpt lat="55.704323" lon="26.086336">
<ele>133.822388</ele>
<time>2010-07-17T19:43:36Z</time>
<desc>lat.=55.704323, lon.=26.086336, Alt.=133.822388m. Speed=0.108000m/h.</desc>
<speed>0.030000</speed>
</trkpt>
<trkpt lat="55.704323" lon="26.086336">
<ele>133.841919</ele>
<time>2010-07-17T19:43:37Z</time>
<desc>lat.=55.704323, lon.=26.086336, Alt.=133.841919m. Speed=0.036000m/h.</desc>
<speed>0.010000</speed>
</trkpt>
<trkpt lat="55.704323" lon="26.086336">
<ele>133.865356</ele>
<time>2010-07-17T19:43:38Z</time>
<desc>lat.=55.704323, lon.=26.086336, Alt.=133.865356m. Speed=0.036000m/h.</desc>
<speed>0.010000</speed>
</trkpt>
<trkpt lat="55.704323" lon="26.086336">
<ele>133.877075</ele>
<time>2010-07-17T19:43:39Z</time>
<desc>lat.=55.704323, lon.=26.086336, Alt.=133.877075m. Speed=0.072000m/h.</desc>
<speed>0.020000</speed>
</trkpt>
<trkpt lat="55.704323" lon="26.086336">
<ele>133.888794</ele>
<time>2010-07-17T19:43:40Z</time>
<desc>lat.=55.704323, lon.=26.086336, Alt.=133.888794m. Speed=0.108000m/h.</desc>
<speed>0.030000</speed>
</trkpt>
<trkpt lat="55.704323" lon="26.086336">
<ele>133.904419</ele>
<time>2010-07-17T19:43:41Z</time>
<desc>lat.=55.704323, lon.=26.086336, Alt.=133.904419m. Speed=0.072000m/h.</desc>
<speed>0.020000</speed>
</trkpt>
<trkpt lat="55.704323" lon="26.086336">
<ele>133.916138</ele>
<time>2010-07-17T19:43:42Z</time>
<desc>lat.=55.704323, lon.=26.086336, Alt.=133.916138m. Speed=0.072000m/h.</desc>
<speed>0.020000</speed>
</trkpt>
<trkpt lat="55.704323" lon="26.086336">
<ele>133.923950</ele>
<time>2010-07-17T19:43:43Z</time>
<desc>lat.=55.704323, lon.=26.086336, Alt.=133.923950m. Speed=0.000000m/h.</desc>
<speed>0.000000</speed>
</trkpt>
<trkpt lat="55.704323" lon="26.086336">
<ele>133.935669</ele>
<time>2010-07-17T19:43:44Z</time>
<desc>lat.=55.704323, lon.=26.086336, Alt.=133.935669m. Speed=0.108000m/h.</desc>
<speed>0.030000</speed>
</trkpt>
<trkpt lat="55.704323" lon="26.086336">
<ele>133.939575</ele>
<time>2010-07-17T19:43:45Z</time>
<desc>lat.=55.704323, lon.=26.086336, Alt.=133.939575m. Speed=0.072000m/h.</desc>
<speed>0.020000</speed>
</trkpt>
<trkpt lat="55.704323" lon="26.086336">
<ele>133.955200</ele>
<time>2010-07-17T19:43:46Z</time>
<desc>lat.=55.704323, lon.=26.086336, Alt.=133.955200m. Speed=0.000000m/h.</desc>
<speed>0.000000</speed>
</trkpt>
<trkpt lat="55.704323" lon="26.086338">
<ele>133.959106</ele>
<time>2010-07-17T19:43:47Z</time>
<desc>lat.=55.704323, lon.=26.086338, Alt.=133.959106m. Speed=0.072000m/h.</desc>
<speed>0.020000</speed>
</trkpt>
<trkpt lat="55.704323" lon="26.086338">
<ele>133.974731</ele>
<time>2010-07-17T19:43:48Z</time>
<desc>lat.=55.704323, lon.=26.086338, Alt.=133.974731m. Speed=0.036000m/h.</desc>
<speed>0.010000</speed>
</trkpt>
<trkpt lat="55.704323" lon="26.086338">
<ele>133.998169</ele>
<time>2010-07-17T19:43:49Z</time>
<desc>lat.=55.704323, lon.=26.086338, Alt.=133.998169m. Speed=0.036000m/h.</desc>
<speed>0.010000</speed>
</trkpt>
<trkpt lat="55.704323" lon="26.086338">
<ele>134.009888</ele>
<time>2010-07-17T19:43:50Z</time>
<desc>lat.=55.704323, lon.=26.086338, Alt.=134.009888m. Speed=0.036000m/h.</desc>
<speed>0.010000</speed>
</trkpt>
<trkpt lat="55.704323" lon="26.086338">
<ele>134.017700</ele>
<time>2010-07-17T19:43:51Z</time>
<desc>lat.=55.704323, lon.=26.086338, Alt.=134.017700m. Speed=0.000000m/h.</desc>
<speed>0.000000</speed>
</trkpt>
<trkpt lat="55.704323" lon="26.086336">
<ele>134.029419</ele>
<time>2010-07-17T19:43:52Z</time>
<desc>lat.=55.704323, lon.=26.086336, Alt.=134.029419m. Speed=0.000000m/h.</desc>
<speed>0.000000</speed>
</trkpt>
<trkpt lat="55.704323" lon="26.086338">
<ele>134.029419</ele>
<time>2010-07-17T19:43:53Z</time>
<desc>lat.=55.704323, lon.=26.086338, Alt.=134.029419m. Speed=0.108000m/h.</desc>
<speed>0.030000</speed>
</trkpt>
<trkpt lat="55.704323" lon="26.086338">
<ele>134.041138</ele>
<time>2010-07-17T19:43:54Z</time>
<desc>lat.=55.704323, lon.=26.086338, Alt.=134.041138m. Speed=0.036000m/h.</desc>
<speed>0.010000</speed>
</trkpt>
<trkpt lat="55.704323" lon="26.086338">
<ele>134.045044</ele>
<time>2010-07-17T19:43:55Z</time>
<desc>lat.=55.704323, lon.=26.086338, Alt.=134.045044m. Speed=0.000000m/h.</desc>
<speed>0.000000</speed>
</trkpt>
<trkpt lat="55.704323" lon="26.086336">
<ele>134.056763</ele>
<time>2010-07-17T19:43:56Z</time>
<desc>lat.=55.704323, lon.=26.086336, Alt.=134.056763m. Speed=0.072000m/h.</desc>
<speed>0.020000</speed>
</trkpt>
<trkpt lat="55.704323" lon="26.086336">
<ele>134.056763</ele>
<time>2010-07-17T19:43:57Z</time>
<desc>lat.=55.704323, lon.=26.086336, Alt.=134.056763m. Speed=0.036000m/h.</desc>
<speed>0.010000</speed>
</trkpt>
<trkpt lat="55.704323" lon="26.086338">
<ele>134.068481</ele>
<time>2010-07-17T19:43:58Z</time>
<desc>lat.=55.704323, lon.=26.086338, Alt.=134.068481m. Speed=0.036000m/h.</desc>
<speed>0.010000</speed>
</trkpt>
<trkpt lat="55.704323" lon="26.086336">
<ele>134.084106</ele>
<time>2010-07-17T19:43:59Z</time>
<desc>lat.=55.704323, lon.=26.086336, Alt.=134.084106m. Speed=0.108000m/h.</desc>
<speed>0.030000</speed>
</trkpt>
<trkpt lat="55.704323" lon="26.086336">
<ele>134.111450</ele>
<time>2010-07-17T19:44:00Z</time>
<desc>lat.=55.704323, lon.=26.086336, Alt.=134.111450m. Speed=0.108000m/h.</desc>
<speed>0.030000</speed>
</trkpt>
<trkpt lat="55.704323" lon="26.086336">
<ele>134.123169</ele>
<time>2010-07-17T19:44:01Z</time>
<desc>lat.=55.704323, lon.=26.086336, Alt.=134.123169m. Speed=0.144000m/h.</desc>
<speed>0.040000</speed>
</trkpt>
<trkpt lat="55.704323" lon="26.086336">
<ele>134.138794</ele>
<time>2010-07-17T19:44:02Z</time>
<desc>lat.=55.704323, lon.=26.086336, Alt.=134.138794m. Speed=0.072000m/h.</desc>
<speed>0.020000</speed>
</trkpt>
<trkpt lat="55.704323" lon="26.086336">
<ele>134.146606</ele>
<time>2010-07-17T19:44:03Z</time>
<desc>lat.=55.704323, lon.=26.086336, Alt.=134.146606m. Speed=0.036000m/h.</desc>
<speed>0.010000</speed>
</trkpt>
<trkpt lat="55.704323" lon="26.086336">
<ele>134.162231</ele>
<time>2010-07-17T19:44:04Z</time>
<desc>lat.=55.704323, lon.=26.086336, Alt.=134.162231m. Speed=0.072000m/h.</desc>
<speed>0.020000</speed>
</trkpt>
<trkpt lat="55.704323" lon="26.086336">
<ele>134.181763</ele>
<time>2010-07-17T19:44:05Z</time>
<desc>lat.=55.704323, lon.=26.086336, Alt.=134.181763m. Speed=0.036000m/h.</desc>
<speed>0.010000</speed>
</trkpt>
<trkpt lat="55.704323" lon="26.086336">
<ele>134.201294</ele>
<time>2010-07-17T19:44:06Z</time>
<desc>lat.=55.704323, lon.=26.086336, Alt.=134.201294m. Speed=0.036000m/h.</desc>
<speed>0.010000</speed>
</trkpt>
<trkpt lat="55.704323" lon="26.086336">
<ele>134.213013</ele>
<time>2010-07-17T19:44:07Z</time>
<desc>lat.=55.704323, lon.=26.086336, Alt.=134.213013m. Speed=0.036000m/h.</desc>
<speed>0.010000</speed>
</trkpt>
<trkpt lat="55.704323" lon="26.086336">
<ele>134.220825</ele>
<time>2010-07-17T19:44:08Z</time>
<desc>lat.=55.704323, lon.=26.086336, Alt.=134.220825m. Speed=0.000000m/h.</desc>
<speed>0.000000</speed>
</trkpt>
<trkpt lat="55.704323" lon="26.086336">
<ele>134.240356</ele>
<time>2010-07-17T19:44:09Z</time>
<desc>lat.=55.704323, lon.=26.086336, Alt.=134.240356m. Speed=0.036000m/h.</desc>
<speed>0.010000</speed>
</trkpt>
<trkpt lat="55.704323" lon="26.086336">
<ele>134.244263</ele>
<time>2010-07-17T19:44:10Z</time>
<desc>lat.=55.704323, lon.=26.086336, Alt.=134.244263m. Speed=0.072000m/h.</desc>
<speed>0.020000</speed>
</trkpt>
<trkpt lat="55.704323" lon="26.086336">
<ele>134.267700</ele>
<time>2010-07-17T19:44:11Z</time>
<desc>lat.=55.704323, lon.=26.086336, Alt.=134.267700m. Speed=0.036000m/h.</desc>
<speed>0.010000</speed>
</trkpt>
<trkpt lat="55.704323" lon="26.086336">
<ele>134.271606</ele>
<time>2010-07-17T19:44:12Z</time>
<desc>lat.=55.704323, lon.=26.086336, Alt.=134.271606m. Speed=0.000000m/h.</desc>
<speed>0.000000</speed>
</trkpt>
<trkpt lat="55.704323" lon="26.086336">
<ele>134.283325</ele>
<time>2010-07-17T19:44:13Z</time>
<desc>lat.=55.704323, lon.=26.086336, Alt.=134.283325m. Speed=0.000000m/h.</desc>
<speed>0.000000</speed>
</trkpt>
<trkpt lat="55.704323" lon="26.086336">
<ele>134.295044</ele>
<time>2010-07-17T19:44:14Z</time>
<desc>lat.=55.704323, lon.=26.086336, Alt.=134.295044m. Speed=0.072000m/h.</desc>
<speed>0.020000</speed>
</trkpt>
<trkpt lat="55.704323" lon="26.086336">
<ele>134.310669</ele>
<time>2010-07-17T19:44:15Z</time>
<desc>lat.=55.704323, lon.=26.086336, Alt.=134.310669m. Speed=0.072000m/h.</desc>
<speed>0.020000</speed>
</trkpt>
<trkpt lat="55.704323" lon="26.086336">
<ele>134.322388</ele>
<time>2010-07-17T19:44:16Z</time>
<desc>lat.=55.704323, lon.=26.086336, Alt.=134.322388m. Speed=0.036000m/h.</desc>
<speed>0.010000</speed>
</trkpt>
<trkpt lat="55.704323" lon="26.086336">
<ele>134.326294</ele>
<time>2010-07-17T19:44:17Z</time>
<desc>lat.=55.704323, lon.=26.086336, Alt.=134.326294m. Speed=0.036000m/h.</desc>
<speed>0.010000</speed>
</trkpt>
<trkpt lat="55.704323" lon="26.086336">
<ele>134.338013</ele>
<time>2010-07-17T19:44:18Z</time>
<desc>lat.=55.704323, lon.=26.086336, Alt.=134.338013m. Speed=0.000000m/h.</desc>
<speed>0.000000</speed>
</trkpt>
<trkpt lat="55.704323" lon="26.086336">
<ele>134.349731</ele>
<time>2010-07-17T19:44:19Z</time>
<desc>lat.=55.704323, lon.=26.086336, Alt.=134.349731m. Speed=0.036000m/h.</desc>
<speed>0.010000</speed>
</trkpt>
<trkpt lat="55.704323" lon="26.086336">
<ele>134.365356</ele>
<time>2010-07-17T19:44:20Z</time>
<desc>lat.=55.704323, lon.=26.086336, Alt.=134.365356m. Speed=0.036000m/h.</desc>
<speed>0.010000</speed>
</trkpt>
<trkpt lat="55.704323" lon="26.086336">
<ele>134.380981</ele>
<time>2010-07-17T19:44:21Z</time>
<desc>lat.=55.704323, lon.=26.086336, Alt.=134.380981m. Speed=0.000000m/h.</desc>
<speed>0.000000</speed>
</trkpt>
<trkpt lat="55.704323" lon="26.086336">
<ele>134.388794</ele>
<time>2010-07-17T19:44:22Z</time>
<desc>lat.=55.704323, lon.=26.086336, Alt.=134.388794m. Speed=0.036000m/h.</desc>
<speed>0.010000</speed>
</trkpt>
<trkpt lat="55.704323" lon="26.086336">
<ele>134.392700</ele>
<time>2010-07-17T19:44:23Z</time>
<desc>lat.=55.704323, lon.=26.086336, Alt.=134.392700m. Speed=0.036000m/h.</desc>
<speed>0.010000</speed>
</trkpt>
<trkpt lat="55.704323" lon="26.086336">
<ele>134.404419</ele>
<time>2010-07-17T19:44:24Z</time>
<desc>lat.=55.704323, lon.=26.086336, Alt.=134.404419m. Speed=0.036000m/h.</desc>
<speed>0.010000</speed>
</trkpt>
<trkpt lat="55.704323" lon="26.086336">
<ele>134.423950</ele>
<time>2010-07-17T19:44:25Z</time>
<desc>lat.=55.704323, lon.=26.086336, Alt.=134.423950m. Speed=0.000000m/h.</desc>
<speed>0.000000</speed>
</trkpt>
<trkpt lat="55.704323" lon="26.086336">
<ele>134.427856</ele>
<time>2010-07-17T19:44:26Z</time>
<desc>lat.=55.704323, lon.=26.086336, Alt.=134.427856m. Speed=0.036000m/h.</desc>
<speed>0.010000</speed>
</trkpt>
<trkpt lat="55.704323" lon="26.086336">
<ele>134.423950</ele>
<time>2010-07-17T19:44:27Z</time>
<desc>lat.=55.704323, lon.=26.086336, Alt.=134.423950m. Speed=0.000000m/h.</desc>
<speed>0.000000</speed>
</trkpt>
<trkpt lat="55.704323" lon="26.086336">
<ele>134.427856</ele>
<time>2010-07-17T19:44:28Z</time>
<desc>lat.=55.704323, lon.=26.086336, Alt.=134.427856m. Speed=0.036000m/h.</desc>
<speed>0.010000</speed>
</trkpt>
<trkpt lat="55.704323" lon="26.086336">
<ele>134.431763</ele>
<time>2010-07-17T19:44:29Z</time>
<desc>lat.=55.704323, lon.=26.086336, Alt.=134.431763m. Speed=0.072000m/h.</desc>
<speed>0.020000</speed>
</trkpt>
<trkpt lat="55.704323" lon="26.086336">
<ele>134.439575</ele>
<time>2010-07-17T19:44:30Z</time>
<desc>lat.=55.704323, lon.=26.086336, Alt.=134.439575m. Speed=0.036000m/h.</desc>
<speed>0.010000</speed>
</trkpt>
<trkpt lat="55.704323" lon="26.086336">
<ele>134.443481</ele>
<time>2010-07-17T19:44:31Z</time>
<desc>lat.=55.704323, lon.=26.086336, Alt.=134.443481m. Speed=0.072000m/h.</desc>
<speed>0.020000</speed>
</trkpt>
<trkpt lat="55.704323" lon="26.086336">
<ele>134.447388</ele>
<time>2010-07-17T19:44:32Z</time>
<desc>lat.=55.704323, lon.=26.086336, Alt.=134.447388m. Speed=0.000000m/h.</desc>
<speed>0.000000</speed>
</trkpt>
<trkpt lat="55.704323" lon="26.086336">
<ele>134.451294</ele>
<time>2010-07-17T19:44:33Z</time>
<desc>lat.=55.704323, lon.=26.086336, Alt.=134.451294m. Speed=0.036000m/h.</desc>
<speed>0.010000</speed>
</trkpt>
<trkpt lat="55.704323" lon="26.086336">
<ele>134.463013</ele>
<time>2010-07-17T19:44:34Z</time>
<desc>lat.=55.704323, lon.=26.086336, Alt.=134.463013m. Speed=0.036000m/h.</desc>
<speed>0.010000</speed>
</trkpt>
<trkpt lat="55.704323" lon="26.086336">
<ele>134.478638</ele>
<time>2010-07-17T19:44:35Z</time>
<desc>lat.=55.704323, lon.=26.086336, Alt.=134.478638m. Speed=0.000000m/h.</desc>
<speed>0.000000</speed>
</trkpt>
<trkpt lat="55.704323" lon="26.086336">
<ele>134.482544</ele>
<time>2010-07-17T19:44:36Z</time>
<desc>lat.=55.704323, lon.=26.086336, Alt.=134.482544m. Speed=0.000000m/h.</desc>
<speed>0.000000</speed>
</trkpt>
<trkpt lat="55.704323" lon="26.086336">
<ele>134.490356</ele>
<time>2010-07-17T19:44:37Z</time>
<desc>lat.=55.704323, lon.=26.086336, Alt.=134.490356m. Speed=0.036000m/h.</desc>
<speed>0.010000</speed>
</trkpt>
<trkpt lat="55.704323" lon="26.086336">
<ele>134.502075</ele>
<time>2010-07-17T19:44:38Z</time>
<desc>lat.=55.704323, lon.=26.086336, Alt.=134.502075m. Speed=0.108000m/h.</desc>
<speed>0.030000</speed>
</trkpt>
<trkpt lat="55.704323" lon="26.086336">
<ele>134.517700</ele>
<time>2010-07-17T19:44:39Z</time>
<desc>lat.=55.704323, lon.=26.086336, Alt.=134.517700m. Speed=0.036000m/h.</desc>
<speed>0.010000</speed>
</trkpt>
<trkpt lat="55.704323" lon="26.086336">
<ele>134.533325</ele>
<time>2010-07-17T19:44:40Z</time>
<desc>lat.=55.704323, lon.=26.086336, Alt.=134.533325m. Speed=0.072000m/h.</desc>
<speed>0.020000</speed>
</trkpt>
<trkpt lat="55.704323" lon="26.086336">
<ele>134.545044</ele>
<time>2010-07-17T19:44:41Z</time>
<desc>lat.=55.704323, lon.=26.086336, Alt.=134.545044m. Speed=0.036000m/h.</desc>
<speed>0.010000</speed>
</trkpt>
<trkpt lat="55.704323" lon="26.086336">
<ele>134.552856</ele>
<time>2010-07-17T19:44:42Z</time>
<desc>lat.=55.704323, lon.=26.086336, Alt.=134.552856m. Speed=0.072000m/h.</desc>
<speed>0.020000</speed>
</trkpt>
<trkpt lat="55.704323" lon="26.086336">
<ele>134.556763</ele>
<time>2010-07-17T19:44:43Z</time>
<desc>lat.=55.704323, lon.=26.086336, Alt.=134.556763m. Speed=0.072000m/h.</desc>
<speed>0.020000</speed>
</trkpt>
<trkpt lat="55.704323" lon="26.086336">
<ele>134.564575</ele>
<time>2010-07-17T19:44:44Z</time>
<desc>lat.=55.704323, lon.=26.086336, Alt.=134.564575m. Speed=0.036000m/h.</desc>
<speed>0.010000</speed>
</trkpt>
<trkpt lat="55.704323" lon="26.086336">
<ele>134.576294</ele>
<time>2010-07-17T19:44:45Z</time>
<desc>lat.=55.704323, lon.=26.086336, Alt.=134.576294m. Speed=0.000000m/h.</desc>
<speed>0.000000</speed>
</trkpt>
<trkpt lat="55.704323" lon="26.086336">
<ele>134.584106</ele>
<time>2010-07-17T19:44:46Z</time>
<desc>lat.=55.704323, lon.=26.086336, Alt.=134.584106m. Speed=0.036000m/h.</desc>
<speed>0.010000</speed>
</trkpt>
<trkpt lat="55.704323" lon="26.086336">
<ele>134.599731</ele>
<time>2010-07-17T19:44:47Z</time>
<desc>lat.=55.704323, lon.=26.086336, Alt.=134.599731m. Speed=0.000000m/h.</desc>
<speed>0.000000</speed>
</trkpt>
<trkpt lat="55.704323" lon="26.086336">
<ele>134.615356</ele>
<time>2010-07-17T19:44:48Z</time>
<desc>lat.=55.704323, lon.=26.086336, Alt.=134.615356m. Speed=0.072000m/h.</desc>
<speed>0.020000</speed>
</trkpt>
<trkpt lat="55.704323" lon="26.086336">
<ele>134.627075</ele>
<time>2010-07-17T19:44:49Z</time>
<desc>lat.=55.704323, lon.=26.086336, Alt.=134.627075m. Speed=0.000000m/h.</desc>
<speed>0.000000</speed>
</trkpt>
<trkpt lat="55.704323" lon="26.086336">
<ele>134.630981</ele>
<time>2010-07-17T19:44:50Z</time>
<desc>lat.=55.704323, lon.=26.086336, Alt.=134.630981m. Speed=0.072000m/h.</desc>
<speed>0.020000</speed>
</trkpt>
<trkpt lat="55.704323" lon="26.086336">
<ele>134.630981</ele>
<time>2010-07-17T19:44:51Z</time>
<desc>lat.=55.704323, lon.=26.086336, Alt.=134.630981m. Speed=0.000000m/h.</desc>
<speed>0.000000</speed>
</trkpt>
<trkpt lat="55.704323" lon="26.086336">
<ele>134.642700</ele>
<time>2010-07-17T19:44:52Z</time>
<desc>lat.=55.704323, lon.=26.086336, Alt.=134.642700m. Speed=0.036000m/h.</desc>
<speed>0.010000</speed>
</trkpt>
<trkpt lat="55.704323" lon="26.086336">
<ele>134.658325</ele>
<time>2010-07-17T19:44:53Z</time>
<desc>lat.=55.704323, lon.=26.086336, Alt.=134.658325m. Speed=0.036000m/h.</desc>
<speed>0.010000</speed>
</trkpt>
<trkpt lat="55.704323" lon="26.086336">
<ele>134.673950</ele>
<time>2010-07-17T19:44:54Z</time>
<desc>lat.=55.704323, lon.=26.086336, Alt.=134.673950m. Speed=0.108000m/h.</desc>
<speed>0.030000</speed>
</trkpt>
<trkpt lat="55.704323" lon="26.086338">
<ele>134.681763</ele>
<time>2010-07-17T19:44:55Z</time>
<desc>lat.=55.704323, lon.=26.086338, Alt.=134.681763m. Speed=0.072000m/h.</desc>
<speed>0.020000</speed>
</trkpt>
<trkpt lat="55.704323" lon="26.086338">
<ele>134.693481</ele>
<time>2010-07-17T19:44:56Z</time>
<desc>lat.=55.704323, lon.=26.086338, Alt.=134.693481m. Speed=0.036000m/h.</desc>
<speed>0.010000</speed>
</trkpt>
<trkpt lat="55.704323" lon="26.086338">
<ele>134.693481</ele>
<time>2010-07-17T19:44:57Z</time>
<desc>lat.=55.704323, lon.=26.086338, Alt.=134.693481m. Speed=0.072000m/h.</desc>
<speed>0.020000</speed>
</trkpt>
<trkpt lat="55.704323" lon="26.086338">
<ele>134.701294</ele>
<time>2010-07-17T19:44:58Z</time>
<desc>lat.=55.704323, lon.=26.086338, Alt.=134.701294m. Speed=0.108000m/h.</desc>
<speed>0.030000</speed>
</trkpt>
<trkpt lat="55.704323" lon="26.086338">
<ele>134.713013</ele>
<time>2010-07-17T19:44:59Z</time>
<desc>lat.=55.704323, lon.=26.086338, Alt.=134.713013m. Speed=0.108000m/h.</desc>
<speed>0.030000</speed>
</trkpt>
<trkpt lat="55.704323" lon="26.086338">
<ele>134.732544</ele>
<time>2010-07-17T19:45:00Z</time>
<desc>lat.=55.704323, lon.=26.086338, Alt.=134.732544m. Speed=0.072000m/h.</desc>
<speed>0.020000</speed>
</trkpt>
<trkpt lat="55.704323" lon="26.086338">
<ele>134.752075</ele>
<time>2010-07-17T19:45:01Z</time>
<desc>lat.=55.704323, lon.=26.086338, Alt.=134.752075m. Speed=0.036000m/h.</desc>
<speed>0.010000</speed>
</trkpt>
<trkpt lat="55.704323" lon="26.086338">
<ele>134.767700</ele>
<time>2010-07-17T19:45:02Z</time>
<desc>lat.=55.704323, lon.=26.086338, Alt.=134.767700m. Speed=0.072000m/h.</desc>
<speed>0.020000</speed>
</trkpt>
<trkpt lat="55.704323" lon="26.086338">
<ele>134.783325</ele>
<time>2010-07-17T19:45:03Z</time>
<desc>lat.=55.704323, lon.=26.086338, Alt.=134.783325m. Speed=0.036000m/h.</desc>
<speed>0.010000</speed>
</trkpt>
<trkpt lat="55.704323" lon="26.086338">
<ele>134.795044</ele>
<time>2010-07-17T19:45:04Z</time>
<desc>lat.=55.704323, lon.=26.086338, Alt.=134.795044m. Speed=0.072000m/h.</desc>
<speed>0.020000</speed>
</trkpt>
<trkpt lat="55.704323" lon="26.086338">
<ele>134.806763</ele>
<time>2010-07-17T19:45:05Z</time>
<desc>lat.=55.704323, lon.=26.086338, Alt.=134.806763m. Speed=0.144000m/h.</desc>
<speed>0.040000</speed>
</trkpt>
<trkpt lat="55.704323" lon="26.086338">
<ele>134.818481</ele>
<time>2010-07-17T19:45:06Z</time>
<desc>lat.=55.704323, lon.=26.086338, Alt.=134.818481m. Speed=0.144000m/h.</desc>
<speed>0.040000</speed>
</trkpt>
<trkpt lat="55.704323" lon="26.086338">
<ele>134.830200</ele>
<time>2010-07-17T19:45:07Z</time>
<desc>lat.=55.704323, lon.=26.086338, Alt.=134.830200m. Speed=0.108000m/h.</desc>
<speed>0.030000</speed>
</trkpt>
<trkpt lat="55.704323" lon="26.086338">
<ele>134.841919</ele>
<time>2010-07-17T19:45:08Z</time>
<desc>lat.=55.704323, lon.=26.086338, Alt.=134.841919m. Speed=0.036000m/h.</desc>
<speed>0.010000</speed>
</trkpt>
<trkpt lat="55.704323" lon="26.086338">
<ele>134.853638</ele>
<time>2010-07-17T19:45:09Z</time>
<desc>lat.=55.704323, lon.=26.086338, Alt.=134.853638m. Speed=0.144000m/h.</desc>
<speed>0.040000</speed>
</trkpt>
<trkpt lat="55.704323" lon="26.086338">
<ele>134.873169</ele>
<time>2010-07-17T19:45:10Z</time>
<desc>lat.=55.704323, lon.=26.086338, Alt.=134.873169m. Speed=0.144000m/h.</desc>
<speed>0.040000</speed>
</trkpt>
<trkpt lat="55.704323" lon="26.086338">
<ele>134.892700</ele>
<time>2010-07-17T19:45:11Z</time>
<desc>lat.=55.704323, lon.=26.086338, Alt.=134.892700m. Speed=0.180000m/h.</desc>
<speed>0.050000</speed>
</trkpt>
<trkpt lat="55.704327" lon="26.086338">
<ele>134.904419</ele>
<time>2010-07-17T19:45:12Z</time>
<desc>lat.=55.704327, lon.=26.086338, Alt.=134.904419m. Speed=0.144000m/h.</desc>
<speed>0.040000</speed>
</trkpt>
<trkpt lat="55.704327" lon="26.086338">
<ele>134.908325</ele>
<time>2010-07-17T19:45:13Z</time>
<desc>lat.=55.704327, lon.=26.086338, Alt.=134.908325m. Speed=0.144000m/h.</desc>
<speed>0.040000</speed>
</trkpt>
<trkpt lat="55.704327" lon="26.086340">
<ele>134.923950</ele>
<time>2010-07-17T19:45:14Z</time>
<desc>lat.=55.704327, lon.=26.086340, Alt.=134.923950m. Speed=0.180000m/h.</desc>
<speed>0.050000</speed>
</trkpt>
<trkpt lat="55.704327" lon="26.086340">
<ele>134.927856</ele>
<time>2010-07-17T19:45:15Z</time>
<desc>lat.=55.704327, lon.=26.086340, Alt.=134.927856m. Speed=0.072000m/h.</desc>
<speed>0.020000</speed>
</trkpt>
<trkpt lat="55.704327" lon="26.086340">
<ele>134.931763</ele>
<time>2010-07-17T19:45:16Z</time>
<desc>lat.=55.704327, lon.=26.086340, Alt.=134.931763m. Speed=0.036000m/h.</desc>
<speed>0.010000</speed>
</trkpt>
<trkpt lat="55.704327" lon="26.086340">
<ele>134.939575</ele>
<time>2010-07-17T19:45:17Z</time>
<desc>lat.=55.704327, lon.=26.086340, Alt.=134.939575m. Speed=0.108000m/h.</desc>
<speed>0.030000</speed>
</trkpt>
<trkpt lat="55.704327" lon="26.086340">
<ele>134.970825</ele>
<time>2010-07-17T19:45:18Z</time>
<desc>lat.=55.704327, lon.=26.086340, Alt.=134.970825m. Speed=0.108000m/h.</desc>
<speed>0.030000</speed>
</trkpt>
<trkpt lat="55.704327" lon="26.086340">
<ele>134.998169</ele>
<time>2010-07-17T19:45:19Z</time>
<desc>lat.=55.704327, lon.=26.086340, Alt.=134.998169m. Speed=0.180000m/h.</desc>
<speed>0.050000</speed>
</trkpt>
<trkpt lat="55.704327" lon="26.086340">
<ele>135.021606</ele>
<time>2010-07-17T19:45:20Z</time>
<desc>lat.=55.704327, lon.=26.086340, Alt.=135.021606m. Speed=0.180000m/h.</desc>
<speed>0.050000</speed>
</trkpt>
<trkpt lat="55.704327" lon="26.086340">
<ele>135.045044</ele>
<time>2010-07-17T19:45:21Z</time>
<desc>lat.=55.704327, lon.=26.086340, Alt.=135.045044m. Speed=0.036000m/h.</desc>
<speed>0.010000</speed>
</trkpt>
<trkpt lat="55.704327" lon="26.086340">
<ele>135.056763</ele>
<time>2010-07-17T19:45:22Z</time>
<desc>lat.=55.704327, lon.=26.086340, Alt.=135.056763m. Speed=0.144000m/h.</desc>
<speed>0.040000</speed>
</trkpt>
<trkpt lat="55.704327" lon="26.086340">
<ele>135.076294</ele>
<time>2010-07-17T19:45:23Z</time>
<desc>lat.=55.704327, lon.=26.086340, Alt.=135.076294m. Speed=0.180000m/h.</desc>
<speed>0.050000</speed>
</trkpt>
<trkpt lat="55.704327" lon="26.086340">
<ele>135.084106</ele>
<time>2010-07-17T19:45:24Z</time>
<desc>lat.=55.704327, lon.=26.086340, Alt.=135.084106m. Speed=0.072000m/h.</desc>
<speed>0.020000</speed>
</trkpt>
<trkpt lat="55.704327" lon="26.086340">
<ele>135.099731</ele>
<time>2010-07-17T19:45:25Z</time>
<desc>lat.=55.704327, lon.=26.086340, Alt.=135.099731m. Speed=0.072000m/h.</desc>
<speed>0.020000</speed>
</trkpt>
<trkpt lat="55.704327" lon="26.086340">
<ele>135.115356</ele>
<time>2010-07-17T19:45:26Z</time>
<desc>lat.=55.704327, lon.=26.086340, Alt.=135.115356m. Speed=0.000000m/h.</desc>
<speed>0.000000</speed>
</trkpt>
<trkpt lat="55.704327" lon="26.086340">
<ele>135.138794</ele>
<time>2010-07-17T19:45:27Z</time>
<desc>lat.=55.704327, lon.=26.086340, Alt.=135.138794m. Speed=0.144000m/h.</desc>
<speed>0.040000</speed>
</trkpt>
<trkpt lat="55.704327" lon="26.086340">
<ele>135.154419</ele>
<time>2010-07-17T19:45:28Z</time>
<desc>lat.=55.704327, lon.=26.086340, Alt.=135.154419m. Speed=0.108000m/h.</desc>
<speed>0.030000</speed>
</trkpt>
<trkpt lat="55.704327" lon="26.086342">
<ele>135.177856</ele>
<time>2010-07-17T19:45:29Z</time>
<desc>lat.=55.704327, lon.=26.086342, Alt.=135.177856m. Speed=0.144000m/h.</desc>
<speed>0.040000</speed>
</trkpt>
<trkpt lat="55.704327" lon="26.086342">
<ele>135.189575</ele>
<time>2010-07-17T19:45:30Z</time>
<desc>lat.=55.704327, lon.=26.086342, Alt.=135.189575m. Speed=0.000000m/h.</desc>
<speed>0.000000</speed>
</trkpt>
<trkpt lat="55.704327" lon="26.086342">
<ele>135.193481</ele>
<time>2010-07-17T19:45:31Z</time>
<desc>lat.=55.704327, lon.=26.086342, Alt.=135.193481m. Speed=0.072000m/h.</desc>
<speed>0.020000</speed>
</trkpt>
<trkpt lat="55.704327" lon="26.086342">
<ele>135.201294</ele>
<time>2010-07-17T19:45:32Z</time>
<desc>lat.=55.704327, lon.=26.086342, Alt.=135.201294m. Speed=0.000000m/h.</desc>
<speed>0.000000</speed>
</trkpt>
<trkpt lat="55.704327" lon="26.086342">
<ele>135.213013</ele>
<time>2010-07-17T19:45:33Z</time>
<desc>lat.=55.704327, lon.=26.086342, Alt.=135.213013m. Speed=0.072000m/h.</desc>
<speed>0.020000</speed>
</trkpt>
<trkpt lat="55.704327" lon="26.086342">
<ele>135.228638</ele>
<time>2010-07-17T19:45:34Z</time>
<desc>lat.=55.704327, lon.=26.086342, Alt.=135.228638m. Speed=0.108000m/h.</desc>
<speed>0.030000</speed>
</trkpt>
<trkpt lat="55.704327" lon="26.086342">
<ele>135.240356</ele>
<time>2010-07-17T19:45:35Z</time>
<desc>lat.=55.704327, lon.=26.086342, Alt.=135.240356m. Speed=0.000000m/h.</desc>
<speed>0.000000</speed>
</trkpt>
<trkpt lat="55.704327" lon="26.086342">
<ele>135.248169</ele>
<time>2010-07-17T19:45:36Z</time>
<desc>lat.=55.704327, lon.=26.086342, Alt.=135.248169m. Speed=0.036000m/h.</desc>
<speed>0.010000</speed>
</trkpt>
<trkpt lat="55.704327" lon="26.086342">
<ele>135.263794</ele>
<time>2010-07-17T19:45:37Z</time>
<desc>lat.=55.704327, lon.=26.086342, Alt.=135.263794m. Speed=0.000000m/h.</desc>
<speed>0.000000</speed>
</trkpt>
<trkpt lat="55.704327" lon="26.086342">
<ele>135.275513</ele>
<time>2010-07-17T19:45:38Z</time>
<desc>lat.=55.704327, lon.=26.086342, Alt.=135.275513m. Speed=0.000000m/h.</desc>
<speed>0.000000</speed>
</trkpt>
<trkpt lat="55.704327" lon="26.086342">
<ele>135.275513</ele>
<time>2010-07-17T19:45:39Z</time>
<desc>lat.=55.704327, lon.=26.086342, Alt.=135.275513m. Speed=0.036000m/h.</desc>
<speed>0.010000</speed>
</trkpt>
<trkpt lat="55.704327" lon="26.086342">
<ele>135.279419</ele>
<time>2010-07-17T19:45:40Z</time>
<desc>lat.=55.704327, lon.=26.086342, Alt.=135.279419m. Speed=0.000000m/h.</desc>
<speed>0.000000</speed>
</trkpt>
<trkpt lat="55.704327" lon="26.086342">
<ele>135.287231</ele>
<time>2010-07-17T19:45:41Z</time>
<desc>lat.=55.704327, lon.=26.086342, Alt.=135.287231m. Speed=0.036000m/h.</desc>
<speed>0.010000</speed>
</trkpt>
<trkpt lat="55.704327" lon="26.086342">
<ele>135.295044</ele>
<time>2010-07-17T19:45:42Z</time>
<desc>lat.=55.704327, lon.=26.086342, Alt.=135.295044m. Speed=0.108000m/h.</desc>
<speed>0.030000</speed>
</trkpt>
<trkpt lat="55.704327" lon="26.086342">
<ele>135.310669</ele>
<time>2010-07-17T19:45:43Z</time>
<desc>lat.=55.704327, lon.=26.086342, Alt.=135.310669m. Speed=0.072000m/h.</desc>
<speed>0.020000</speed>
</trkpt>
<trkpt lat="55.704327" lon="26.086342">
<ele>135.326294</ele>
<time>2010-07-17T19:45:44Z</time>
<desc>lat.=55.704327, lon.=26.086342, Alt.=135.326294m. Speed=0.000000m/h.</desc>
<speed>0.000000</speed>
</trkpt>
<trkpt lat="55.704327" lon="26.086342">
<ele>135.334106</ele>
<time>2010-07-17T19:45:45Z</time>
<desc>lat.=55.704327, lon.=26.086342, Alt.=135.334106m. Speed=0.000000m/h.</desc>
<speed>0.000000</speed>
</trkpt>
<trkpt lat="55.704327" lon="26.086342">
<ele>135.338013</ele>
<time>2010-07-17T19:45:46Z</time>
<desc>lat.=55.704327, lon.=26.086342, Alt.=135.338013m. Speed=0.000000m/h.</desc>
<speed>0.000000</speed>
</trkpt>
<trkpt lat="55.704327" lon="26.086342">
<ele>135.345825</ele>
<time>2010-07-17T19:45:47Z</time>
<desc>lat.=55.704327, lon.=26.086342, Alt.=135.345825m. Speed=0.036000m/h.</desc>
<speed>0.010000</speed>
</trkpt>
<trkpt lat="55.704327" lon="26.086342">
<ele>135.361450</ele>
<time>2010-07-17T19:45:48Z</time>
<desc>lat.=55.704327, lon.=26.086342, Alt.=135.361450m. Speed=0.072000m/h.</desc>
<speed>0.020000</speed>
</trkpt>
<trkpt lat="55.704327" lon="26.086342">
<ele>135.365356</ele>
<time>2010-07-17T19:45:49Z</time>
<desc>lat.=55.704327, lon.=26.086342, Alt.=135.365356m. Speed=0.036000m/h.</desc>
<speed>0.010000</speed>
</trkpt>
<trkpt lat="55.704327" lon="26.086342">
<ele>135.377075</ele>
<time>2010-07-17T19:45:50Z</time>
<desc>lat.=55.704327, lon.=26.086342, Alt.=135.377075m. Speed=0.036000m/h.</desc>
<speed>0.010000</speed>
</trkpt>
<trkpt lat="55.704327" lon="26.086342">
<ele>135.384888</ele>
<time>2010-07-17T19:45:51Z</time>
<desc>lat.=55.704327, lon.=26.086342, Alt.=135.384888m. Speed=0.000000m/h.</desc>
<speed>0.000000</speed>
</trkpt>
<trkpt lat="55.704327" lon="26.086342">
<ele>135.392700</ele>
<time>2010-07-17T19:45:52Z</time>
<desc>lat.=55.704327, lon.=26.086342, Alt.=135.392700m. Speed=0.036000m/h.</desc>
<speed>0.010000</speed>
</trkpt>
<trkpt lat="55.704327" lon="26.086342">
<ele>135.400513</ele>
<time>2010-07-17T19:45:53Z</time>
<desc>lat.=55.704327, lon.=26.086342, Alt.=135.400513m. Speed=0.000000m/h.</desc>
<speed>0.000000</speed>
</trkpt>
<trkpt lat="55.704327" lon="26.086342">
<ele>135.408325</ele>
<time>2010-07-17T19:45:54Z</time>
<desc>lat.=55.704327, lon.=26.086342, Alt.=135.408325m. Speed=0.036000m/h.</desc>
<speed>0.010000</speed>
</trkpt>
<trkpt lat="55.704327" lon="26.086342">
<ele>135.420044</ele>
<time>2010-07-17T19:45:55Z</time>
<desc>lat.=55.704327, lon.=26.086342, Alt.=135.420044m. Speed=0.036000m/h.</desc>
<speed>0.010000</speed>
</trkpt>
<trkpt lat="55.704327" lon="26.086342">
<ele>135.431763</ele>
<time>2010-07-17T19:45:56Z</time>
<desc>lat.=55.704327, lon.=26.086342, Alt.=135.431763m. Speed=0.072000m/h.</desc>
<speed>0.020000</speed>
</trkpt>
<trkpt lat="55.704327" lon="26.086342">
<ele>135.443481</ele>
<time>2010-07-17T19:45:57Z</time>
<desc>lat.=55.704327, lon.=26.086342, Alt.=135.443481m. Speed=0.072000m/h.</desc>
<speed>0.020000</speed>
</trkpt>
<trkpt lat="55.704327" lon="26.086342">
<ele>135.451294</ele>
<time>2010-07-17T19:45:58Z</time>
<desc>lat.=55.704327, lon.=26.086342, Alt.=135.451294m. Speed=0.072000m/h.</desc>
<speed>0.020000</speed>
</trkpt>
<trkpt lat="55.704327" lon="26.086342">
<ele>135.459106</ele>
<time>2010-07-17T19:45:59Z</time>
<desc>lat.=55.704327, lon.=26.086342, Alt.=135.459106m. Speed=0.108000m/h.</desc>
<speed>0.030000</speed>
</trkpt>
<trkpt lat="55.704330" lon="26.086342">
<ele>135.470825</ele>
<time>2010-07-17T19:46:00Z</time>
<desc>lat.=55.704330, lon.=26.086342, Alt.=135.470825m. Speed=0.036000m/h.</desc>
<speed>0.010000</speed>
</trkpt>
<trkpt lat="55.704330" lon="26.086342">
<ele>135.478638</ele>
<time>2010-07-17T19:46:01Z</time>
<desc>lat.=55.704330, lon.=26.086342, Alt.=135.478638m. Speed=0.036000m/h.</desc>
<speed>0.010000</speed>
</trkpt>
<trkpt lat="55.704330" lon="26.086342">
<ele>135.486450</ele>
<time>2010-07-17T19:46:02Z</time>
<desc>lat.=55.704330, lon.=26.086342, Alt.=135.486450m. Speed=0.036000m/h.</desc>
<speed>0.010000</speed>
</trkpt>
<trkpt lat="55.704330" lon="26.086342">
<ele>135.490356</ele>
<time>2010-07-17T19:46:03Z</time>
<desc>lat.=55.704330, lon.=26.086342, Alt.=135.490356m. Speed=0.000000m/h.</desc>
<speed>0.000000</speed>
</trkpt>
<trkpt lat="55.704330" lon="26.086342">
<ele>135.498169</ele>
<time>2010-07-17T19:46:04Z</time>
<desc>lat.=55.704330, lon.=26.086342, Alt.=135.498169m. Speed=0.072000m/h.</desc>
<speed>0.020000</speed>
</trkpt>
<trkpt lat="55.704330" lon="26.086342">
<ele>135.505981</ele>
<time>2010-07-17T19:46:05Z</time>
<desc>lat.=55.704330, lon.=26.086342, Alt.=135.505981m. Speed=0.036000m/h.</desc>
<speed>0.010000</speed>
</trkpt>
<trkpt lat="55.704330" lon="26.086344">
<ele>135.513794</ele>
<time>2010-07-17T19:46:06Z</time>
<desc>lat.=55.704330, lon.=26.086344, Alt.=135.513794m. Speed=0.072000m/h.</desc>
<speed>0.020000</speed>
</trkpt>
<trkpt lat="55.704330" lon="26.086344">
<ele>135.517700</ele>
<time>2010-07-17T19:46:07Z</time>
<desc>lat.=55.704330, lon.=26.086344, Alt.=135.517700m. Speed=0.036000m/h.</desc>
<speed>0.010000</speed>
</trkpt>
<trkpt lat="55.704330" lon="26.086344">
<ele>135.525513</ele>
<time>2010-07-17T19:46:08Z</time>
<desc>lat.=55.704330, lon.=26.086344, Alt.=135.525513m. Speed=0.108000m/h.</desc>
<speed>0.030000</speed>
</trkpt>
<trkpt lat="55.704330" lon="26.086344">
<ele>135.533325</ele>
<time>2010-07-17T19:46:09Z</time>
<desc>lat.=55.704330, lon.=26.086344, Alt.=135.533325m. Speed=0.036000m/h.</desc>
<speed>0.010000</speed>
</trkpt>
<trkpt lat="55.704330" lon="26.086344">
<ele>135.537231</ele>
<time>2010-07-17T19:46:10Z</time>
<desc>lat.=55.704330, lon.=26.086344, Alt.=135.537231m. Speed=0.072000m/h.</desc>
<speed>0.020000</speed>
</trkpt>
<trkpt lat="55.704330" lon="26.086344">
<ele>135.537231</ele>
<time>2010-07-17T19:46:11Z</time>
<desc>lat.=55.704330, lon.=26.086344, Alt.=135.537231m. Speed=0.000000m/h.</desc>
<speed>0.000000</speed>
</trkpt>
<trkpt lat="55.704330" lon="26.086344">
<ele>135.541138</ele>
<time>2010-07-17T19:46:12Z</time>
<desc>lat.=55.704330, lon.=26.086344, Alt.=135.541138m. Speed=0.000000m/h.</desc>
<speed>0.000000</speed>
</trkpt>
<trkpt lat="55.704330" lon="26.086344">
<ele>135.541138</ele>
<time>2010-07-17T19:46:13Z</time>
<desc>lat.=55.704330, lon.=26.086344, Alt.=135.541138m. Speed=0.000000m/h.</desc>
<speed>0.000000</speed>
</trkpt>
<trkpt lat="55.704330" lon="26.086344">
<ele>135.545044</ele>
<time>2010-07-17T19:46:14Z</time>
<desc>lat.=55.704330, lon.=26.086344, Alt.=135.545044m. Speed=0.036000m/h.</desc>
<speed>0.010000</speed>
</trkpt>
<trkpt lat="55.704330" lon="26.086344">
<ele>135.552856</ele>
<time>2010-07-17T19:46:15Z</time>
<desc>lat.=55.704330, lon.=26.086344, Alt.=135.552856m. Speed=0.036000m/h.</desc>
<speed>0.010000</speed>
</trkpt>
<trkpt lat="55.704330" lon="26.086344">
<ele>135.560669</ele>
<time>2010-07-17T19:46:16Z</time>
<desc>lat.=55.704330, lon.=26.086344, Alt.=135.560669m. Speed=0.000000m/h.</desc>
<speed>0.000000</speed>
</trkpt>
<trkpt lat="55.704330" lon="26.086344">
<ele>135.572388</ele>
<time>2010-07-17T19:46:17Z</time>
<desc>lat.=55.704330, lon.=26.086344, Alt.=135.572388m. Speed=0.000000m/h.</desc>
<speed>0.000000</speed>
</trkpt>
<trkpt lat="55.704330" lon="26.086344">
<ele>135.580200</ele>
<time>2010-07-17T19:46:18Z</time>
<desc>lat.=55.704330, lon.=26.086344, Alt.=135.580200m. Speed=0.036000m/h.</desc>
<speed>0.010000</speed>
</trkpt>
<trkpt lat="55.704330" lon="26.086344">
<ele>135.584106</ele>
<time>2010-07-17T19:46:19Z</time>
<desc>lat.=55.704330, lon.=26.086344, Alt.=135.584106m. Speed=0.108000m/h.</desc>
<speed>0.030000</speed>
</trkpt>
<trkpt lat="55.704330" lon="26.086344">
<ele>135.591919</ele>
<time>2010-07-17T19:46:20Z</time>
<desc>lat.=55.704330, lon.=26.086344, Alt.=135.591919m. Speed=0.072000m/h.</desc>
<speed>0.020000</speed>
</trkpt>
<trkpt lat="55.704330" lon="26.086344">
<ele>135.599731</ele>
<time>2010-07-17T19:46:21Z</time>
<desc>lat.=55.704330, lon.=26.086344, Alt.=135.599731m. Speed=0.036000m/h.</desc>
<speed>0.010000</speed>
</trkpt>
<trkpt lat="55.704330" lon="26.086344">
<ele>135.611450</ele>
<time>2010-07-17T19:46:22Z</time>
<desc>lat.=55.704330, lon.=26.086344, Alt.=135.611450m. Speed=0.000000m/h.</desc>
<speed>0.000000</speed>
</trkpt>
<trkpt lat="55.704330" lon="26.086344">
<ele>135.623169</ele>
<time>2010-07-17T19:46:23Z</time>
<desc>lat.=55.704330, lon.=26.086344, Alt.=135.623169m. Speed=0.000000m/h.</desc>
<speed>0.000000</speed>
</trkpt>
<trkpt lat="55.704330" lon="26.086344">
<ele>135.638794</ele>
<time>2010-07-17T19:46:24Z</time>
<desc>lat.=55.704330, lon.=26.086344, Alt.=135.638794m. Speed=0.000000m/h.</desc>
<speed>0.000000</speed>
</trkpt>
<trkpt lat="55.704330" lon="26.086344">
<ele>135.650513</ele>
<time>2010-07-17T19:46:25Z</time>
<desc>lat.=55.704330, lon.=26.086344, Alt.=135.650513m. Speed=0.072000m/h.</desc>
<speed>0.020000</speed>
</trkpt>
<trkpt lat="55.704330" lon="26.086344">
<ele>135.662231</ele>
<time>2010-07-17T19:46:26Z</time>
<desc>lat.=55.704330, lon.=26.086344, Alt.=135.662231m. Speed=0.000000m/h.</desc>
<speed>0.000000</speed>
</trkpt>
<trkpt lat="55.704330" lon="26.086344">
<ele>135.673950</ele>
<time>2010-07-17T19:46:27Z</time>
<desc>lat.=55.704330, lon.=26.086344, Alt.=135.673950m. Speed=0.072000m/h.</desc>
<speed>0.020000</speed>
</trkpt>
<trkpt lat="55.704330" lon="26.086344">
<ele>135.689575</ele>
<time>2010-07-17T19:46:28Z</time>
<desc>lat.=55.704330, lon.=26.086344, Alt.=135.689575m. Speed=0.072000m/h.</desc>
<speed>0.020000</speed>
</trkpt>
<trkpt lat="55.704330" lon="26.086344">
<ele>135.701294</ele>
<time>2010-07-17T19:46:29Z</time>
<desc>lat.=55.704330, lon.=26.086344, Alt.=135.701294m. Speed=0.108000m/h.</desc>
<speed>0.030000</speed>
</trkpt>
<trkpt lat="55.704330" lon="26.086344">
<ele>135.713013</ele>
<time>2010-07-17T19:46:30Z</time>
<desc>lat.=55.704330, lon.=26.086344, Alt.=135.713013m. Speed=0.036000m/h.</desc>
<speed>0.010000</speed>
</trkpt>
<trkpt lat="55.704330" lon="26.086344">
<ele>135.728638</ele>
<time>2010-07-17T19:46:31Z</time>
<desc>lat.=55.704330, lon.=26.086344, Alt.=135.728638m. Speed=0.108000m/h.</desc>
<speed>0.030000</speed>
</trkpt>
<trkpt lat="55.704330" lon="26.086344">
<ele>135.748169</ele>
<time>2010-07-17T19:46:32Z</time>
<desc>lat.=55.704330, lon.=26.086344, Alt.=135.748169m. Speed=0.108000m/h.</desc>
<speed>0.030000</speed>
</trkpt>
<trkpt lat="55.704330" lon="26.086344">
<ele>135.767700</ele>
<time>2010-07-17T19:46:33Z</time>
<desc>lat.=55.704330, lon.=26.086344, Alt.=135.767700m. Speed=0.072000m/h.</desc>
<speed>0.020000</speed>
</trkpt>
<trkpt lat="55.704330" lon="26.086344">
<ele>135.791138</ele>
<time>2010-07-17T19:46:34Z</time>
<desc>lat.=55.704330, lon.=26.086344, Alt.=135.791138m. Speed=0.216000m/h.</desc>
<speed>0.060000</speed>
</trkpt>
<trkpt lat="55.704330" lon="26.086344">
<ele>135.810669</ele>
<time>2010-07-17T19:46:35Z</time>
<desc>lat.=55.704330, lon.=26.086344, Alt.=135.810669m. Speed=0.072000m/h.</desc>
<speed>0.020000</speed>
</trkpt>
<trkpt lat="55.704330" lon="26.086344">
<ele>135.830200</ele>
<time>2010-07-17T19:46:36Z</time>
<desc>lat.=55.704330, lon.=26.086344, Alt.=135.830200m. Speed=0.180000m/h.</desc>
<speed>0.050000</speed>
</trkpt>
<trkpt lat="55.704330" lon="26.086344">
<ele>135.849731</ele>
<time>2010-07-17T19:46:37Z</time>
<desc>lat.=55.704330, lon.=26.086344, Alt.=135.849731m. Speed=0.216000m/h.</desc>
<speed>0.060000</speed>
</trkpt>
<trkpt lat="55.704330" lon="26.086342">
<ele>135.861450</ele>
<time>2010-07-17T19:46:38Z</time>
<desc>lat.=55.704330, lon.=26.086342, Alt.=135.861450m. Speed=0.072000m/h.</desc>
<speed>0.020000</speed>
</trkpt>
<trkpt lat="55.704330" lon="26.086342">
<ele>135.873169</ele>
<time>2010-07-17T19:46:39Z</time>
<desc>lat.=55.704330, lon.=26.086342, Alt.=135.873169m. Speed=0.108000m/h.</desc>
<speed>0.030000</speed>
</trkpt>
<trkpt lat="55.704330" lon="26.086342">
<ele>135.888794</ele>
<time>2010-07-17T19:46:40Z</time>
<desc>lat.=55.704330, lon.=26.086342, Alt.=135.888794m. Speed=0.072000m/h.</desc>
<speed>0.020000</speed>
</trkpt>
<trkpt lat="55.704330" lon="26.086342">
<ele>135.892700</ele>
<time>2010-07-17T19:46:41Z</time>
<desc>lat.=55.704330, lon.=26.086342, Alt.=135.892700m. Speed=0.108000m/h.</desc>
<speed>0.030000</speed>
</trkpt>
<trkpt lat="55.704330" lon="26.086342">
<ele>135.904419</ele>
<time>2010-07-17T19:46:42Z</time>
<desc>lat.=55.704330, lon.=26.086342, Alt.=135.904419m. Speed=0.072000m/h.</desc>
<speed>0.020000</speed>
</trkpt>
<trkpt lat="55.704330" lon="26.086342">
<ele>135.912231</ele>
<time>2010-07-17T19:46:43Z</time>
<desc>lat.=55.704330, lon.=26.086342, Alt.=135.912231m. Speed=0.072000m/h.</desc>
<speed>0.020000</speed>
</trkpt>
<trkpt lat="55.704330" lon="26.086342">
<ele>135.923950</ele>
<time>2010-07-17T19:46:44Z</time>
<desc>lat.=55.704330, lon.=26.086342, Alt.=135.923950m. Speed=0.036000m/h.</desc>
<speed>0.010000</speed>
</trkpt>
<trkpt lat="55.704330" lon="26.086342">
<ele>135.935669</ele>
<time>2010-07-17T19:46:45Z</time>
<desc>lat.=55.704330, lon.=26.086342, Alt.=135.935669m. Speed=0.108000m/h.</desc>
<speed>0.030000</speed>
</trkpt>
<trkpt lat="55.704330" lon="26.086342">
<ele>135.943481</ele>
<time>2010-07-17T19:46:46Z</time>
<desc>lat.=55.704330, lon.=26.086342, Alt.=135.943481m. Speed=0.036000m/h.</desc>
<speed>0.010000</speed>
</trkpt>
<trkpt lat="55.704330" lon="26.086342">
<ele>135.951294</ele>
<time>2010-07-17T19:46:47Z</time>
<desc>lat.=55.704330, lon.=26.086342, Alt.=135.951294m. Speed=0.072000m/h.</desc>
<speed>0.020000</speed>
</trkpt>
<trkpt lat="55.704330" lon="26.086342">
<ele>135.951294</ele>
<time>2010-07-17T19:46:48Z</time>
<desc>lat.=55.704330, lon.=26.086342, Alt.=135.951294m. Speed=0.072000m/h.</desc>
<speed>0.020000</speed>
</trkpt>
<trkpt lat="55.704330" lon="26.086342">
<ele>135.955200</ele>
<time>2010-07-17T19:46:49Z</time>
<desc>lat.=55.704330, lon.=26.086342, Alt.=135.955200m. Speed=0.036000m/h.</desc>
<speed>0.010000</speed>
</trkpt>
<trkpt lat="55.704330" lon="26.086342">
<ele>135.959106</ele>
<time>2010-07-17T19:46:50Z</time>
<desc>lat.=55.704330, lon.=26.086342, Alt.=135.959106m. Speed=0.072000m/h.</desc>
<speed>0.020000</speed>
</trkpt>
<trkpt lat="55.704330" lon="26.086342">
<ele>135.966919</ele>
<time>2010-07-17T19:46:51Z</time>
<desc>lat.=55.704330, lon.=26.086342, Alt.=135.966919m. Speed=0.180000m/h.</desc>
<speed>0.050000</speed>
</trkpt>
<trkpt lat="55.704330" lon="26.086342">
<ele>135.970825</ele>
<time>2010-07-17T19:46:52Z</time>
<desc>lat.=55.704330, lon.=26.086342, Alt.=135.970825m. Speed=0.108000m/h.</desc>
<speed>0.030000</speed>
</trkpt>
<trkpt lat="55.704330" lon="26.086342">
<ele>135.986450</ele>
<time>2010-07-17T19:46:53Z</time>
<desc>lat.=55.704330, lon.=26.086342, Alt.=135.986450m. Speed=0.144000m/h.</desc>
<speed>0.040000</speed>
</trkpt>
<trkpt lat="55.704330" lon="26.086342">
<ele>136.002075</ele>
<time>2010-07-17T19:46:54Z</time>
<desc>lat.=55.704330, lon.=26.086342, Alt.=136.002075m. Speed=0.072000m/h.</desc>
<speed>0.020000</speed>
</trkpt>
<trkpt lat="55.704330" lon="26.086340">
<ele>136.017700</ele>
<time>2010-07-17T19:46:55Z</time>
<desc>lat.=55.704330, lon.=26.086340, Alt.=136.017700m. Speed=0.180000m/h.</desc>
<speed>0.050000</speed>
</trkpt>
<trkpt lat="55.704330" lon="26.086340">
<ele>136.033325</ele>
<time>2010-07-17T19:46:56Z</time>
<desc>lat.=55.704330, lon.=26.086340, Alt.=136.033325m. Speed=0.180000m/h.</desc>
<speed>0.050000</speed>
</trkpt>
<trkpt lat="55.704330" lon="26.086340">
<ele>136.052856</ele>
<time>2010-07-17T19:46:57Z</time>
<desc>lat.=55.704330, lon.=26.086340, Alt.=136.052856m. Speed=0.180000m/h.</desc>
<speed>0.050000</speed>
</trkpt>
<trkpt lat="55.704330" lon="26.086340">
<ele>136.076294</ele>
<time>2010-07-17T19:46:58Z</time>
<desc>lat.=55.704330, lon.=26.086340, Alt.=136.076294m. Speed=0.108000m/h.</desc>
<speed>0.030000</speed>
</trkpt>
<trkpt lat="55.704330" lon="26.086340">
<ele>136.088013</ele>
<time>2010-07-17T19:46:59Z</time>
<desc>lat.=55.704330, lon.=26.086340, Alt.=136.088013m. Speed=0.072000m/h.</desc>
<speed>0.020000</speed>
</trkpt>
<trkpt lat="55.704330" lon="26.086340">
<ele>136.095825</ele>
<time>2010-07-17T19:47:00Z</time>
<desc>lat.=55.704330, lon.=26.086340, Alt.=136.095825m. Speed=0.036000m/h.</desc>
<speed>0.010000</speed>
</trkpt>
<trkpt lat="55.704330" lon="26.086340">
<ele>136.103638</ele>
<time>2010-07-17T19:47:01Z</time>
<desc>lat.=55.704330, lon.=26.086340, Alt.=136.103638m. Speed=0.036000m/h.</desc>
<speed>0.010000</speed>
</trkpt>
<trkpt lat="55.704330" lon="26.086340">
<ele>136.111450</ele>
<time>2010-07-17T19:47:02Z</time>
<desc>lat.=55.704330, lon.=26.086340, Alt.=136.111450m. Speed=0.108000m/h.</desc>
<speed>0.030000</speed>
</trkpt>
<trkpt lat="55.704330" lon="26.086340">
<ele>136.119263</ele>
<time>2010-07-17T19:47:03Z</time>
<desc>lat.=55.704330, lon.=26.086340, Alt.=136.119263m. Speed=0.000000m/h.</desc>
<speed>0.000000</speed>
</trkpt>
<trkpt lat="55.704330" lon="26.086340">
<ele>136.123169</ele>
<time>2010-07-17T19:47:04Z</time>
<desc>lat.=55.704330, lon.=26.086340, Alt.=136.123169m. Speed=0.000000m/h.</desc>
<speed>0.000000</speed>
</trkpt>
<trkpt lat="55.704330" lon="26.086340">
<ele>136.123169</ele>
<time>2010-07-17T19:47:05Z</time>
<desc>lat.=55.704330, lon.=26.086340, Alt.=136.123169m. Speed=0.000000m/h.</desc>
<speed>0.000000</speed>
</trkpt>
<trkpt lat="55.704330" lon="26.086340">
<ele>136.130981</ele>
<time>2010-07-17T19:47:06Z</time>
<desc>lat.=55.704330, lon.=26.086340, Alt.=136.130981m. Speed=0.000000m/h.</desc>
<speed>0.000000</speed>
</trkpt>
<trkpt lat="55.704330" lon="26.086340">
<ele>136.138794</ele>
<time>2010-07-17T19:47:07Z</time>
<desc>lat.=55.704330, lon.=26.086340, Alt.=136.138794m. Speed=0.072000m/h.</desc>
<speed>0.020000</speed>
</trkpt>
<trkpt lat="55.704330" lon="26.086340">
<ele>136.150513</ele>
<time>2010-07-17T19:47:08Z</time>
<desc>lat.=55.704330, lon.=26.086340, Alt.=136.150513m. Speed=0.072000m/h.</desc>
<speed>0.020000</speed>
</trkpt>
<trkpt lat="55.704330" lon="26.086340">
<ele>136.166138</ele>
<time>2010-07-17T19:47:09Z</time>
<desc>lat.=55.704330, lon.=26.086340, Alt.=136.166138m. Speed=0.108000m/h.</desc>
<speed>0.030000</speed>
</trkpt>
<trkpt lat="55.704330" lon="26.086340">
<ele>136.181763</ele>
<time>2010-07-17T19:47:10Z</time>
<desc>lat.=55.704330, lon.=26.086340, Alt.=136.181763m. Speed=0.144000m/h.</desc>
<speed>0.040000</speed>
</trkpt>
<trkpt lat="55.704330" lon="26.086340">
<ele>136.197388</ele>
<time>2010-07-17T19:47:11Z</time>
<desc>lat.=55.704330, lon.=26.086340, Alt.=136.197388m. Speed=0.072000m/h.</desc>
<speed>0.020000</speed>
</trkpt>
<trkpt lat="55.704330" lon="26.086340">
<ele>136.209106</ele>
<time>2010-07-17T19:47:12Z</time>
<desc>lat.=55.704330, lon.=26.086340, Alt.=136.209106m. Speed=0.036000m/h.</desc>
<speed>0.010000</speed>
</trkpt>
<trkpt lat="55.704330" lon="26.086340">
<ele>136.216919</ele>
<time>2010-07-17T19:47:13Z</time>
<desc>lat.=55.704330, lon.=26.086340, Alt.=136.216919m. Speed=0.108000m/h.</desc>
<speed>0.030000</speed>
</trkpt>
<trkpt lat="55.704330" lon="26.086340">
<ele>136.228638</ele>
<time>2010-07-17T19:47:14Z</time>
<desc>lat.=55.704330, lon.=26.086340, Alt.=136.228638m. Speed=0.144000m/h.</desc>
<speed>0.040000</speed>
</trkpt>
<trkpt lat="55.704330" lon="26.086338">
<ele>136.232544</ele>
<time>2010-07-17T19:47:15Z</time>
<desc>lat.=55.704330, lon.=26.086338, Alt.=136.232544m. Speed=0.144000m/h.</desc>
<speed>0.040000</speed>
</trkpt>
<trkpt lat="55.704330" lon="26.086338">
<ele>136.232544</ele>
<time>2010-07-17T19:47:16Z</time>
<desc>lat.=55.704330, lon.=26.086338, Alt.=136.232544m. Speed=0.108000m/h.</desc>
<speed>0.030000</speed>
</trkpt>
<trkpt lat="55.704330" lon="26.086338">
<ele>136.240356</ele>
<time>2010-07-17T19:47:17Z</time>
<desc>lat.=55.704330, lon.=26.086338, Alt.=136.240356m. Speed=0.036000m/h.</desc>
<speed>0.010000</speed>
</trkpt>
<trkpt lat="55.704330" lon="26.086338">
<ele>136.248169</ele>
<time>2010-07-17T19:47:18Z</time>
<desc>lat.=55.704330, lon.=26.086338, Alt.=136.248169m. Speed=0.036000m/h.</desc>
<speed>0.010000</speed>
</trkpt>
<trkpt lat="55.704330" lon="26.086338">
<ele>136.255981</ele>
<time>2010-07-17T19:47:19Z</time>
<desc>lat.=55.704330, lon.=26.086338, Alt.=136.255981m. Speed=0.072000m/h.</desc>
<speed>0.020000</speed>
</trkpt>
<trkpt lat="55.704330" lon="26.086338">
<ele>136.259888</ele>
<time>2010-07-17T19:47:20Z</time>
<desc>lat.=55.704330, lon.=26.086338, Alt.=136.259888m. Speed=0.072000m/h.</desc>
<speed>0.020000</speed>
</trkpt>
<trkpt lat="55.704330" lon="26.086338">
<ele>136.271606</ele>
<time>2010-07-17T19:47:21Z</time>
<desc>lat.=55.704330, lon.=26.086338, Alt.=136.271606m. Speed=0.036000m/h.</desc>
<speed>0.010000</speed>
</trkpt>
<trkpt lat="55.704330" lon="26.086338">
<ele>136.275513</ele>
<time>2010-07-17T19:47:22Z</time>
<desc>lat.=55.704330, lon.=26.086338, Alt.=136.275513m. Speed=0.000000m/h.</desc>
<speed>0.000000</speed>
</trkpt>
<trkpt lat="55.704330" lon="26.086338">
<ele>136.287231</ele>
<time>2010-07-17T19:47:23Z</time>
<desc>lat.=55.704330, lon.=26.086338, Alt.=136.287231m. Speed=0.000000m/h.</desc>
<speed>0.000000</speed>
</trkpt>
<trkpt lat="55.704330" lon="26.086338">
<ele>136.298950</ele>
<time>2010-07-17T19:47:24Z</time>
<desc>lat.=55.704330, lon.=26.086338, Alt.=136.298950m. Speed=0.000000m/h.</desc>
<speed>0.000000</speed>
</trkpt>
<trkpt lat="55.704330" lon="26.086338">
<ele>136.306763</ele>
<time>2010-07-17T19:47:25Z</time>
<desc>lat.=55.704330, lon.=26.086338, Alt.=136.306763m. Speed=0.036000m/h.</desc>
<speed>0.010000</speed>
</trkpt>
<trkpt lat="55.704330" lon="26.086338">
<ele>136.314575</ele>
<time>2010-07-17T19:47:26Z</time>
<desc>lat.=55.704330, lon.=26.086338, Alt.=136.314575m. Speed=0.072000m/h.</desc>
<speed>0.020000</speed>
</trkpt>
<trkpt lat="55.704330" lon="26.086338">
<ele>136.330200</ele>
<time>2010-07-17T19:47:27Z</time>
<desc>lat.=55.704330, lon.=26.086338, Alt.=136.330200m. Speed=0.072000m/h.</desc>
<speed>0.020000</speed>
</trkpt>
<trkpt lat="55.704330" lon="26.086338">
<ele>136.341919</ele>
<time>2010-07-17T19:47:28Z</time>
<desc>lat.=55.704330, lon.=26.086338, Alt.=136.341919m. Speed=0.072000m/h.</desc>
<speed>0.020000</speed>
</trkpt>
<trkpt lat="55.704330" lon="26.086338">
<ele>136.353638</ele>
<time>2010-07-17T19:47:29Z</time>
<desc>lat.=55.704330, lon.=26.086338, Alt.=136.353638m. Speed=0.000000m/h.</desc>
<speed>0.000000</speed>
</trkpt>
<trkpt lat="55.704330" lon="26.086338">
<ele>136.369263</ele>
<time>2010-07-17T19:47:30Z</time>
<desc>lat.=55.704330, lon.=26.086338, Alt.=136.369263m. Speed=0.072000m/h.</desc>
<speed>0.020000</speed>
</trkpt>
<trkpt lat="55.704330" lon="26.086338">
<ele>136.392700</ele>
<time>2010-07-17T19:47:31Z</time>
<desc>lat.=55.704330, lon.=26.086338, Alt.=136.392700m. Speed=0.036000m/h.</desc>
<speed>0.010000</speed>
</trkpt>
<trkpt lat="55.704330" lon="26.086338">
<ele>136.412231</ele>
<time>2010-07-17T19:47:32Z</time>
<desc>lat.=55.704330, lon.=26.086338, Alt.=136.412231m. Speed=0.072000m/h.</desc>
<speed>0.020000</speed>
</trkpt>
<trkpt lat="55.704330" lon="26.086338">
<ele>136.427856</ele>
<time>2010-07-17T19:47:33Z</time>
<desc>lat.=55.704330, lon.=26.086338, Alt.=136.427856m. Speed=0.072000m/h.</desc>
<speed>0.020000</speed>
</trkpt>
<trkpt lat="55.704330" lon="26.086338">
<ele>136.439575</ele>
<time>2010-07-17T19:47:34Z</time>
<desc>lat.=55.704330, lon.=26.086338, Alt.=136.439575m. Speed=0.072000m/h.</desc>
<speed>0.020000</speed>
</trkpt>
<trkpt lat="55.704330" lon="26.086338">
<ele>136.451294</ele>
<time>2010-07-17T19:47:35Z</time>
<desc>lat.=55.704330, lon.=26.086338, Alt.=136.451294m. Speed=0.000000m/h.</desc>
<speed>0.000000</speed>
</trkpt>
<trkpt lat="55.704330" lon="26.086338">
<ele>136.459106</ele>
<time>2010-07-17T19:47:36Z</time>
<desc>lat.=55.704330, lon.=26.086338, Alt.=136.459106m. Speed=0.000000m/h.</desc>
<speed>0.000000</speed>
</trkpt>
<trkpt lat="55.704330" lon="26.086340">
<ele>136.470825</ele>
<time>2010-07-17T19:47:37Z</time>
<desc>lat.=55.704330, lon.=26.086340, Alt.=136.470825m. Speed=0.108000m/h.</desc>
<speed>0.030000</speed>
</trkpt>
<trkpt lat="55.704330" lon="26.086340">
<ele>136.486450</ele>
<time>2010-07-17T19:47:38Z</time>
<desc>lat.=55.704330, lon.=26.086340, Alt.=136.486450m. Speed=0.036000m/h.</desc>
<speed>0.010000</speed>
</trkpt>
<trkpt lat="55.704330" lon="26.086340">
<ele>136.498169</ele>
<time>2010-07-17T19:47:39Z</time>
<desc>lat.=55.704330, lon.=26.086340, Alt.=136.498169m. Speed=0.108000m/h.</desc>
<speed>0.030000</speed>
</trkpt>
<trkpt lat="55.704330" lon="26.086340">
<ele>136.517700</ele>
<time>2010-07-17T19:47:40Z</time>
<desc>lat.=55.704330, lon.=26.086340, Alt.=136.517700m. Speed=0.036000m/h.</desc>
<speed>0.010000</speed>
</trkpt>
<trkpt lat="55.704330" lon="26.086340">
<ele>136.529419</ele>
<time>2010-07-17T19:47:41Z</time>
<desc>lat.=55.704330, lon.=26.086340, Alt.=136.529419m. Speed=0.000000m/h.</desc>
<speed>0.000000</speed>
</trkpt>
<trkpt lat="55.704330" lon="26.086340">
<ele>136.545044</ele>
<time>2010-07-17T19:47:42Z</time>
<desc>lat.=55.704330, lon.=26.086340, Alt.=136.545044m. Speed=0.000000m/h.</desc>
<speed>0.000000</speed>
</trkpt>
<trkpt lat="55.704330" lon="26.086340">
<ele>136.564575</ele>
<time>2010-07-17T19:47:43Z</time>
<desc>lat.=55.704330, lon.=26.086340, Alt.=136.564575m. Speed=0.036000m/h.</desc>
<speed>0.010000</speed>
</trkpt>
<trkpt lat="55.704330" lon="26.086340">
<ele>136.584106</ele>
<time>2010-07-17T19:47:44Z</time>
<desc>lat.=55.704330, lon.=26.086340, Alt.=136.584106m. Speed=0.036000m/h.</desc>
<speed>0.010000</speed>
</trkpt>
<trkpt lat="55.704330" lon="26.086340">
<ele>136.599731</ele>
<time>2010-07-17T19:47:45Z</time>
<desc>lat.=55.704330, lon.=26.086340, Alt.=136.599731m. Speed=0.036000m/h.</desc>
<speed>0.010000</speed>
</trkpt>
<trkpt lat="55.704330" lon="26.086340">
<ele>136.611450</ele>
<time>2010-07-17T19:47:46Z</time>
<desc>lat.=55.704330, lon.=26.086340, Alt.=136.611450m. Speed=0.108000m/h.</desc>
<speed>0.030000</speed>
</trkpt>
<trkpt lat="55.704330" lon="26.086340">
<ele>136.623169</ele>
<time>2010-07-17T19:47:47Z</time>
<desc>lat.=55.704330, lon.=26.086340, Alt.=136.623169m. Speed=0.108000m/h.</desc>
<speed>0.030000</speed>
</trkpt>
<trkpt lat="55.704330" lon="26.086340">
<ele>136.646606</ele>
<time>2010-07-17T19:47:48Z</time>
<desc>lat.=55.704330, lon.=26.086340, Alt.=136.646606m. Speed=0.108000m/h.</desc>
<speed>0.030000</speed>
</trkpt>
<trkpt lat="55.704330" lon="26.086340">
<ele>136.666138</ele>
<time>2010-07-17T19:47:49Z</time>
<desc>lat.=55.704330, lon.=26.086340, Alt.=136.666138m. Speed=0.072000m/h.</desc>
<speed>0.020000</speed>
</trkpt>
<trkpt lat="55.704330" lon="26.086340">
<ele>136.697388</ele>
<time>2010-07-17T19:47:50Z</time>
<desc>lat.=55.704330, lon.=26.086340, Alt.=136.697388m. Speed=0.072000m/h.</desc>
<speed>0.020000</speed>
</trkpt>
<trkpt lat="55.704330" lon="26.086340">
<ele>136.713013</ele>
<time>2010-07-17T19:47:51Z</time>
<desc>lat.=55.704330, lon.=26.086340, Alt.=136.713013m. Speed=0.036000m/h.</desc>
<speed>0.010000</speed>
</trkpt>
<trkpt lat="55.704330" lon="26.086340">
<ele>136.724731</ele>
<time>2010-07-17T19:47:52Z</time>
<desc>lat.=55.704330, lon.=26.086340, Alt.=136.724731m. Speed=0.036000m/h.</desc>
<speed>0.010000</speed>
</trkpt>
<trkpt lat="55.704330" lon="26.086340">
<ele>136.728638</ele>
<time>2010-07-17T19:47:53Z</time>
<desc>lat.=55.704330, lon.=26.086340, Alt.=136.728638m. Speed=0.144000m/h.</desc>
<speed>0.040000</speed>
</trkpt>
<trkpt lat="55.704330" lon="26.086340">
<ele>136.748169</ele>
<time>2010-07-17T19:47:54Z</time>
<desc>lat.=55.704330, lon.=26.086340, Alt.=136.748169m. Speed=0.108000m/h.</desc>
<speed>0.030000</speed>
</trkpt>
<trkpt lat="55.704330" lon="26.086340">
<ele>136.755981</ele>
<time>2010-07-17T19:47:55Z</time>
<desc>lat.=55.704330, lon.=26.086340, Alt.=136.755981m. Speed=0.072000m/h.</desc>
<speed>0.020000</speed>
</trkpt>
<trkpt lat="55.704330" lon="26.086340">
<ele>136.771606</ele>
<time>2010-07-17T19:47:56Z</time>
<desc>lat.=55.704330, lon.=26.086340, Alt.=136.771606m. Speed=0.108000m/h.</desc>
<speed>0.030000</speed>
</trkpt>
<trkpt lat="55.704334" lon="26.086342">
<ele>136.787231</ele>
<time>2010-07-17T19:47:57Z</time>
<desc>lat.=55.704334, lon.=26.086342, Alt.=136.787231m. Speed=0.072000m/h.</desc>
<speed>0.020000</speed>
</trkpt>
<trkpt lat="55.704334" lon="26.086342">
<ele>136.806763</ele>
<time>2010-07-17T19:47:58Z</time>
<desc>lat.=55.704334, lon.=26.086342, Alt.=136.806763m. Speed=0.072000m/h.</desc>
<speed>0.020000</speed>
</trkpt>
<trkpt lat="55.704334" lon="26.086342">
<ele>136.814575</ele>
<time>2010-07-17T19:47:59Z</time>
<desc>lat.=55.704334, lon.=26.086342, Alt.=136.814575m. Speed=0.108000m/h.</desc>
<speed>0.030000</speed>
</trkpt>
<trkpt lat="55.704334" lon="26.086342">
<ele>136.826294</ele>
<time>2010-07-17T19:48:00Z</time>
<desc>lat.=55.704334, lon.=26.086342, Alt.=136.826294m. Speed=0.072000m/h.</desc>
<speed>0.020000</speed>
</trkpt>
<trkpt lat="55.704334" lon="26.086342">
<ele>136.841919</ele>
<time>2010-07-17T19:48:01Z</time>
<desc>lat.=55.704334, lon.=26.086342, Alt.=136.841919m. Speed=0.036000m/h.</desc>
<speed>0.010000</speed>
</trkpt>
<trkpt lat="55.704334" lon="26.086342">
<ele>136.857544</ele>
<time>2010-07-17T19:48:02Z</time>
<desc>lat.=55.704334, lon.=26.086342, Alt.=136.857544m. Speed=0.072000m/h.</desc>
<speed>0.020000</speed>
</trkpt>
<trkpt lat="55.704334" lon="26.086342">
<ele>136.865356</ele>
<time>2010-07-17T19:48:03Z</time>
<desc>lat.=55.704334, lon.=26.086342, Alt.=136.865356m. Speed=0.144000m/h.</desc>
<speed>0.040000</speed>
</trkpt>
<trkpt lat="55.704334" lon="26.086342">
<ele>136.884888</ele>
<time>2010-07-17T19:48:04Z</time>
<desc>lat.=55.704334, lon.=26.086342, Alt.=136.884888m. Speed=0.108000m/h.</desc>
<speed>0.030000</speed>
</trkpt>
<trkpt lat="55.704334" lon="26.086342">
<ele>136.896606</ele>
<time>2010-07-17T19:48:05Z</time>
<desc>lat.=55.704334, lon.=26.086342, Alt.=136.896606m. Speed=0.144000m/h.</desc>
<speed>0.040000</speed>
</trkpt>
<trkpt lat="55.704334" lon="26.086342">
<ele>136.912231</ele>
<time>2010-07-17T19:48:06Z</time>
<desc>lat.=55.704334, lon.=26.086342, Alt.=136.912231m. Speed=0.144000m/h.</desc>
<speed>0.040000</speed>
</trkpt>
<trkpt lat="55.704334" lon="26.086342">
<ele>136.923950</ele>
<time>2010-07-17T19:48:07Z</time>
<desc>lat.=55.704334, lon.=26.086342, Alt.=136.923950m. Speed=0.144000m/h.</desc>
<speed>0.040000</speed>
</trkpt>
<trkpt lat="55.704334" lon="26.086342">
<ele>136.939575</ele>
<time>2010-07-17T19:48:08Z</time>
<desc>lat.=55.704334, lon.=26.086342, Alt.=136.939575m. Speed=0.108000m/h.</desc>
<speed>0.030000</speed>
</trkpt>
<trkpt lat="55.704334" lon="26.086342">
<ele>136.951294</ele>
<time>2010-07-17T19:48:09Z</time>
<desc>lat.=55.704334, lon.=26.086342, Alt.=136.951294m. Speed=0.036000m/h.</desc>
<speed>0.010000</speed>
</trkpt>
<trkpt lat="55.704334" lon="26.086342">
<ele>136.963013</ele>
<time>2010-07-17T19:48:10Z</time>
<desc>lat.=55.704334, lon.=26.086342, Alt.=136.963013m. Speed=0.036000m/h.</desc>
<speed>0.010000</speed>
</trkpt>
<trkpt lat="55.704334" lon="26.086342">
<ele>136.974731</ele>
<time>2010-07-17T19:48:11Z</time>
<desc>lat.=55.704334, lon.=26.086342, Alt.=136.974731m. Speed=0.072000m/h.</desc>
<speed>0.020000</speed>
</trkpt>
<trkpt lat="55.704334" lon="26.086342">
<ele>136.982544</ele>
<time>2010-07-17T19:48:12Z</time>
<desc>lat.=55.704334, lon.=26.086342, Alt.=136.982544m. Speed=0.036000m/h.</desc>
<speed>0.010000</speed>
</trkpt>
<trkpt lat="55.704334" lon="26.086342">
<ele>136.994263</ele>
<time>2010-07-17T19:48:13Z</time>
<desc>lat.=55.704334, lon.=26.086342, Alt.=136.994263m. Speed=0.108000m/h.</desc>
<speed>0.030000</speed>
</trkpt>
<trkpt lat="55.704334" lon="26.086342">
<ele>137.002075</ele>
<time>2010-07-17T19:48:14Z</time>
<desc>lat.=55.704334, lon.=26.086342, Alt.=137.002075m. Speed=0.072000m/h.</desc>
<speed>0.020000</speed>
</trkpt>
<trkpt lat="55.704334" lon="26.086342">
<ele>137.002075</ele>
<time>2010-07-17T19:48:15Z</time>
<desc>lat.=55.704334, lon.=26.086342, Alt.=137.002075m. Speed=0.108000m/h.</desc>
<speed>0.030000</speed>
</trkpt>
<trkpt lat="55.704334" lon="26.086342">
<ele>137.009888</ele>
<time>2010-07-17T19:48:16Z</time>
<desc>lat.=55.704334, lon.=26.086342, Alt.=137.009888m. Speed=0.108000m/h.</desc>
<speed>0.030000</speed>
</trkpt>
<trkpt lat="55.704334" lon="26.086342">
<ele>137.021606</ele>
<time>2010-07-17T19:48:17Z</time>
<desc>lat.=55.704334, lon.=26.086342, Alt.=137.021606m. Speed=0.072000m/h.</desc>
<speed>0.020000</speed>
</trkpt>
<trkpt lat="55.704334" lon="26.086342">
<ele>137.033325</ele>
<time>2010-07-17T19:48:18Z</time>
<desc>lat.=55.704334, lon.=26.086342, Alt.=137.033325m. Speed=0.000000m/h.</desc>
<speed>0.000000</speed>
</trkpt>
<trkpt lat="55.704334" lon="26.086342">
<ele>137.048950</ele>
<time>2010-07-17T19:48:19Z</time>
<desc>lat.=55.704334, lon.=26.086342, Alt.=137.048950m. Speed=0.072000m/h.</desc>
<speed>0.020000</speed>
</trkpt>
<trkpt lat="55.704334" lon="26.086342">
<ele>137.060669</ele>
<time>2010-07-17T19:48:20Z</time>
<desc>lat.=55.704334, lon.=26.086342, Alt.=137.060669m. Speed=0.072000m/h.</desc>
<speed>0.020000</speed>
</trkpt>
<trkpt lat="55.704334" lon="26.086342">
<ele>137.084106</ele>
<time>2010-07-17T19:48:21Z</time>
<desc>lat.=55.704334, lon.=26.086342, Alt.=137.084106m. Speed=0.144000m/h.</desc>
<speed>0.040000</speed>
</trkpt>
<trkpt lat="55.704334" lon="26.086342">
<ele>137.095825</ele>
<time>2010-07-17T19:48:22Z</time>
<desc>lat.=55.704334, lon.=26.086342, Alt.=137.095825m. Speed=0.144000m/h.</desc>
<speed>0.040000</speed>
</trkpt>
<trkpt lat="55.704334" lon="26.086342">
<ele>137.111450</ele>
<time>2010-07-17T19:48:23Z</time>
<desc>lat.=55.704334, lon.=26.086342, Alt.=137.111450m. Speed=0.072000m/h.</desc>
<speed>0.020000</speed>
</trkpt>
<trkpt lat="55.704334" lon="26.086342">
<ele>137.127075</ele>
<time>2010-07-17T19:48:24Z</time>
<desc>lat.=55.704334, lon.=26.086342, Alt.=137.127075m. Speed=0.036000m/h.</desc>
<speed>0.010000</speed>
</trkpt>
<trkpt lat="55.704334" lon="26.086340">
<ele>137.146606</ele>
<time>2010-07-17T19:48:25Z</time>
<desc>lat.=55.704334, lon.=26.086340, Alt.=137.146606m. Speed=0.000000m/h.</desc>
<speed>0.000000</speed>
</trkpt>
<trkpt lat="55.704334" lon="26.086340">
<ele>137.162231</ele>
<time>2010-07-17T19:48:26Z</time>
<desc>lat.=55.704334, lon.=26.086340, Alt.=137.162231m. Speed=0.072000m/h.</desc>
<speed>0.020000</speed>
</trkpt>
<trkpt lat="55.704334" lon="26.086340">
<ele>137.181763</ele>
<time>2010-07-17T19:48:27Z</time>
<desc>lat.=55.704334, lon.=26.086340, Alt.=137.181763m. Speed=0.036000m/h.</desc>
<speed>0.010000</speed>
</trkpt>
<trkpt lat="55.704334" lon="26.086340">
<ele>137.193481</ele>
<time>2010-07-17T19:48:28Z</time>
<desc>lat.=55.704334, lon.=26.086340, Alt.=137.193481m. Speed=0.072000m/h.</desc>
<speed>0.020000</speed>
</trkpt>
<trkpt lat="55.704334" lon="26.086340">
<ele>137.213013</ele>
<time>2010-07-17T19:48:29Z</time>
<desc>lat.=55.704334, lon.=26.086340, Alt.=137.213013m. Speed=0.036000m/h.</desc>
<speed>0.010000</speed>
</trkpt>
<trkpt lat="55.704334" lon="26.086340">
<ele>137.232544</ele>
<time>2010-07-17T19:48:30Z</time>
<desc>lat.=55.704334, lon.=26.086340, Alt.=137.232544m. Speed=0.072000m/h.</desc>
<speed>0.020000</speed>
</trkpt>
<trkpt lat="55.704334" lon="26.086340">
<ele>137.252075</ele>
<time>2010-07-17T19:48:31Z</time>
<desc>lat.=55.704334, lon.=26.086340, Alt.=137.252075m. Speed=0.036000m/h.</desc>
<speed>0.010000</speed>
</trkpt>
<trkpt lat="55.704334" lon="26.086340">
<ele>137.263794</ele>
<time>2010-07-17T19:48:32Z</time>
<desc>lat.=55.704334, lon.=26.086340, Alt.=137.263794m. Speed=0.000000m/h.</desc>
<speed>0.000000</speed>
</trkpt>
<trkpt lat="55.704334" lon="26.086340">
<ele>137.271606</ele>
<time>2010-07-17T19:48:33Z</time>
<desc>lat.=55.704334, lon.=26.086340, Alt.=137.271606m. Speed=0.036000m/h.</desc>
<speed>0.010000</speed>
</trkpt>
<trkpt lat="55.704334" lon="26.086340">
<ele>137.279419</ele>
<time>2010-07-17T19:48:34Z</time>
<desc>lat.=55.704334, lon.=26.086340, Alt.=137.279419m. Speed=0.144000m/h.</desc>
<speed>0.040000</speed>
</trkpt>
<trkpt lat="55.704334" lon="26.086340">
<ele>137.287231</ele>
<time>2010-07-17T19:48:35Z</time>
<desc>lat.=55.704334, lon.=26.086340, Alt.=137.287231m. Speed=0.000000m/h.</desc>
<speed>0.000000</speed>
</trkpt>
<trkpt lat="55.704334" lon="26.086340">
<ele>137.291138</ele>
<time>2010-07-17T19:48:36Z</time>
<desc>lat.=55.704334, lon.=26.086340, Alt.=137.291138m. Speed=0.000000m/h.</desc>
<speed>0.000000</speed>
</trkpt>
<trkpt lat="55.704334" lon="26.086340">
<ele>137.295044</ele>
<time>2010-07-17T19:48:37Z</time>
<desc>lat.=55.704334, lon.=26.086340, Alt.=137.295044m. Speed=0.000000m/h.</desc>
<speed>0.000000</speed>
</trkpt>
<trkpt lat="55.704334" lon="26.086340">
<ele>137.302856</ele>
<time>2010-07-17T19:48:38Z</time>
<desc>lat.=55.704334, lon.=26.086340, Alt.=137.302856m. Speed=0.036000m/h.</desc>
<speed>0.010000</speed>
</trkpt>
<trkpt lat="55.704334" lon="26.086340">
<ele>137.318481</ele>
<time>2010-07-17T19:48:39Z</time>
<desc>lat.=55.704334, lon.=26.086340, Alt.=137.318481m. Speed=0.000000m/h.</desc>
<speed>0.000000</speed>
</trkpt>
<trkpt lat="55.704334" lon="26.086340">
<ele>137.326294</ele>
<time>2010-07-17T19:48:40Z</time>
<desc>lat.=55.704334, lon.=26.086340, Alt.=137.326294m. Speed=0.036000m/h.</desc>
<speed>0.010000</speed>
</trkpt>
<trkpt lat="55.704334" lon="26.086340">
<ele>137.338013</ele>
<time>2010-07-17T19:48:41Z</time>
<desc>lat.=55.704334, lon.=26.086340, Alt.=137.338013m. Speed=0.036000m/h.</desc>
<speed>0.010000</speed>
</trkpt>
<trkpt lat="55.704334" lon="26.086340">
<ele>137.349731</ele>
<time>2010-07-17T19:48:42Z</time>
<desc>lat.=55.704334, lon.=26.086340, Alt.=137.349731m. Speed=0.072000m/h.</desc>
<speed>0.020000</speed>
</trkpt>
<trkpt lat="55.704334" lon="26.086338">
<ele>137.365356</ele>
<time>2010-07-17T19:48:43Z</time>
<desc>lat.=55.704334, lon.=26.086338, Alt.=137.365356m. Speed=0.072000m/h.</desc>
<speed>0.020000</speed>
</trkpt>
<trkpt lat="55.704334" lon="26.086338">
<ele>137.380981</ele>
<time>2010-07-17T19:48:44Z</time>
<desc>lat.=55.704334, lon.=26.086338, Alt.=137.380981m. Speed=0.036000m/h.</desc>
<speed>0.010000</speed>
</trkpt>
<trkpt lat="55.704334" lon="26.086338">
<ele>137.396606</ele>
<time>2010-07-17T19:48:45Z</time>
<desc>lat.=55.704334, lon.=26.086338, Alt.=137.396606m. Speed=0.036000m/h.</desc>
<speed>0.010000</speed>
</trkpt>
<trkpt lat="55.704334" lon="26.086338">
<ele>137.412231</ele>
<time>2010-07-17T19:48:46Z</time>
<desc>lat.=55.704334, lon.=26.086338, Alt.=137.412231m. Speed=0.072000m/h.</desc>
<speed>0.020000</speed>
</trkpt>
<trkpt lat="55.704334" lon="26.086338">
<ele>137.423950</ele>
<time>2010-07-17T19:48:47Z</time>
<desc>lat.=55.704334, lon.=26.086338, Alt.=137.423950m. Speed=0.108000m/h.</desc>
<speed>0.030000</speed>
</trkpt>
<trkpt lat="55.704334" lon="26.086338">
<ele>137.423950</ele>
<time>2010-07-17T19:48:48Z</time>
<desc>lat.=55.704334, lon.=26.086338, Alt.=137.423950m. Speed=0.036000m/h.</desc>
<speed>0.010000</speed>
</trkpt>
<trkpt lat="55.704334" lon="26.086338">
<ele>137.427856</ele>
<time>2010-07-17T19:48:49Z</time>
<desc>lat.=55.704334, lon.=26.086338, Alt.=137.427856m. Speed=0.072000m/h.</desc>
<speed>0.020000</speed>
</trkpt>
<trkpt lat="55.704334" lon="26.086338">
<ele>137.435669</ele>
<time>2010-07-17T19:48:50Z</time>
<desc>lat.=55.704334, lon.=26.086338, Alt.=137.435669m. Speed=0.000000m/h.</desc>
<speed>0.000000</speed>
</trkpt>
<trkpt lat="55.704334" lon="26.086338">
<ele>137.443481</ele>
<time>2010-07-17T19:48:51Z</time>
<desc>lat.=55.704334, lon.=26.086338, Alt.=137.443481m. Speed=0.000000m/h.</desc>
<speed>0.000000</speed>
</trkpt>
<trkpt lat="55.704334" lon="26.086338">
<ele>137.451294</ele>
<time>2010-07-17T19:48:52Z</time>
<desc>lat.=55.704334, lon.=26.086338, Alt.=137.451294m. Speed=0.000000m/h.</desc>
<speed>0.000000</speed>
</trkpt>
<trkpt lat="55.704334" lon="26.086338">
<ele>137.451294</ele>
<time>2010-07-17T19:48:53Z</time>
<desc>lat.=55.704334, lon.=26.086338, Alt.=137.451294m. Speed=0.000000m/h.</desc>
<speed>0.000000</speed>
</trkpt>
<trkpt lat="55.704334" lon="26.086338">
<ele>137.459106</ele>
<time>2010-07-17T19:48:54Z</time>
<desc>lat.=55.704334, lon.=26.086338, Alt.=137.459106m. Speed=0.108000m/h.</desc>
<speed>0.030000</speed>
</trkpt>
<trkpt lat="55.704334" lon="26.086338">
<ele>137.466919</ele>
<time>2010-07-17T19:48:55Z</time>
<desc>lat.=55.704334, lon.=26.086338, Alt.=137.466919m. Speed=0.108000m/h.</desc>
<speed>0.030000</speed>
</trkpt>
<trkpt lat="55.704334" lon="26.086338">
<ele>137.474731</ele>
<time>2010-07-17T19:48:56Z</time>
<desc>lat.=55.704334, lon.=26.086338, Alt.=137.474731m. Speed=0.036000m/h.</desc>
<speed>0.010000</speed>
</trkpt>
<trkpt lat="55.704334" lon="26.086338">
<ele>137.482544</ele>
<time>2010-07-17T19:48:57Z</time>
<desc>lat.=55.704334, lon.=26.086338, Alt.=137.482544m. Speed=0.072000m/h.</desc>
<speed>0.020000</speed>
</trkpt>
<trkpt lat="55.704334" lon="26.086338">
<ele>137.486450</ele>
<time>2010-07-17T19:48:58Z</time>
<desc>lat.=55.704334, lon.=26.086338, Alt.=137.486450m. Speed=0.000000m/h.</desc>
<speed>0.000000</speed>
</trkpt>
<trkpt lat="55.704334" lon="26.086338">
<ele>137.498169</ele>
<time>2010-07-17T19:48:59Z</time>
<desc>lat.=55.704334, lon.=26.086338, Alt.=137.498169m. Speed=0.036000m/h.</desc>
<speed>0.010000</speed>
</trkpt>
<trkpt lat="55.704334" lon="26.086338">
<ele>137.505981</ele>
<time>2010-07-17T19:49:00Z</time>
<desc>lat.=55.704334, lon.=26.086338, Alt.=137.505981m. Speed=0.072000m/h.</desc>
<speed>0.020000</speed>
</trkpt>
<trkpt lat="55.704334" lon="26.086338">
<ele>137.517700</ele>
<time>2010-07-17T19:49:01Z</time>
<desc>lat.=55.704334, lon.=26.086338, Alt.=137.517700m. Speed=0.036000m/h.</desc>
<speed>0.010000</speed>
</trkpt>
<trkpt lat="55.704334" lon="26.086338">
<ele>137.525513</ele>
<time>2010-07-17T19:49:02Z</time>
<desc>lat.=55.704334, lon.=26.086338, Alt.=137.525513m. Speed=0.000000m/h.</desc>
<speed>0.000000</speed>
</trkpt>
<trkpt lat="55.704334" lon="26.086338">
<ele>137.533325</ele>
<time>2010-07-17T19:49:03Z</time>
<desc>lat.=55.704334, lon.=26.086338, Alt.=137.533325m. Speed=0.072000m/h.</desc>
<speed>0.020000</speed>
</trkpt>
<trkpt lat="55.704334" lon="26.086338">
<ele>137.537231</ele>
<time>2010-07-17T19:49:04Z</time>
<desc>lat.=55.704334, lon.=26.086338, Alt.=137.537231m. Speed=0.072000m/h.</desc>
<speed>0.020000</speed>
</trkpt>
<trkpt lat="55.704334" lon="26.086338">
<ele>137.548950</ele>
<time>2010-07-17T19:49:05Z</time>
<desc>lat.=55.704334, lon.=26.086338, Alt.=137.548950m. Speed=0.072000m/h.</desc>
<speed>0.020000</speed>
</trkpt>
<trkpt lat="55.704334" lon="26.086338">
<ele>137.556763</ele>
<time>2010-07-17T19:49:06Z</time>
<desc>lat.=55.704334, lon.=26.086338, Alt.=137.556763m. Speed=0.036000m/h.</desc>
<speed>0.010000</speed>
</trkpt>
<trkpt lat="55.704334" lon="26.086338">
<ele>137.568481</ele>
<time>2010-07-17T19:49:07Z</time>
<desc>lat.=55.704334, lon.=26.086338, Alt.=137.568481m. Speed=0.000000m/h.</desc>
<speed>0.000000</speed>
</trkpt>
<trkpt lat="55.704334" lon="26.086338">
<ele>137.576294</ele>
<time>2010-07-17T19:49:08Z</time>
<desc>lat.=55.704334, lon.=26.086338, Alt.=137.576294m. Speed=0.072000m/h.</desc>
<speed>0.020000</speed>
</trkpt>
<trkpt lat="55.704334" lon="26.086338">
<ele>137.588013</ele>
<time>2010-07-17T19:49:09Z</time>
<desc>lat.=55.704334, lon.=26.086338, Alt.=137.588013m. Speed=0.108000m/h.</desc>
<speed>0.030000</speed>
</trkpt>
<trkpt lat="55.704334" lon="26.086338">
<ele>137.599731</ele>
<time>2010-07-17T19:49:10Z</time>
<desc>lat.=55.704334, lon.=26.086338, Alt.=137.599731m. Speed=0.072000m/h.</desc>
<speed>0.020000</speed>
</trkpt>
<trkpt lat="55.704334" lon="26.086338">
<ele>137.607544</ele>
<time>2010-07-17T19:49:11Z</time>
<desc>lat.=55.704334, lon.=26.086338, Alt.=137.607544m. Speed=0.000000m/h.</desc>
<speed>0.000000</speed>
</trkpt>
<trkpt lat="55.704334" lon="26.086338">
<ele>137.619263</ele>
<time>2010-07-17T19:49:12Z</time>
<desc>lat.=55.704334, lon.=26.086338, Alt.=137.619263m. Speed=0.036000m/h.</desc>
<speed>0.010000</speed>
</trkpt>
<trkpt lat="55.704334" lon="26.086338">
<ele>137.634888</ele>
<time>2010-07-17T19:49:13Z</time>
<desc>lat.=55.704334, lon.=26.086338, Alt.=137.634888m. Speed=0.072000m/h.</desc>
<speed>0.020000</speed>
</trkpt>
<trkpt lat="55.704334" lon="26.086338">
<ele>137.646606</ele>
<time>2010-07-17T19:49:14Z</time>
<desc>lat.=55.704334, lon.=26.086338, Alt.=137.646606m. Speed=0.036000m/h.</desc>
<speed>0.010000</speed>
</trkpt>
<trkpt lat="55.704334" lon="26.086340">
<ele>137.662231</ele>
<time>2010-07-17T19:49:15Z</time>
<desc>lat.=55.704334, lon.=26.086340, Alt.=137.662231m. Speed=0.036000m/h.</desc>
<speed>0.010000</speed>
</trkpt>
<trkpt lat="55.704334" lon="26.086338">
<ele>137.677856</ele>
<time>2010-07-17T19:49:16Z</time>
<desc>lat.=55.704334, lon.=26.086338, Alt.=137.677856m. Speed=0.036000m/h.</desc>
<speed>0.010000</speed>
</trkpt>
<trkpt lat="55.704334" lon="26.086338">
<ele>137.681763</ele>
<time>2010-07-17T19:49:17Z</time>
<desc>lat.=55.704334, lon.=26.086338, Alt.=137.681763m. Speed=0.180000m/h.</desc>
<speed>0.050000</speed>
</trkpt>
<trkpt lat="55.704334" lon="26.086338">
<ele>137.693481</ele>
<time>2010-07-17T19:49:18Z</time>
<desc>lat.=55.704334, lon.=26.086338, Alt.=137.693481m. Speed=0.108000m/h.</desc>
<speed>0.030000</speed>
</trkpt>
<trkpt lat="55.704334" lon="26.086338">
<ele>137.709106</ele>
<time>2010-07-17T19:49:19Z</time>
<desc>lat.=55.704334, lon.=26.086338, Alt.=137.709106m. Speed=0.036000m/h.</desc>
<speed>0.010000</speed>
</trkpt>
<trkpt lat="55.704334" lon="26.086338">
<ele>137.720825</ele>
<time>2010-07-17T19:49:20Z</time>
<desc>lat.=55.704334, lon.=26.086338, Alt.=137.720825m. Speed=0.036000m/h.</desc>
<speed>0.010000</speed>
</trkpt>
<trkpt lat="55.704334" lon="26.086338">
<ele>137.736450</ele>
<time>2010-07-17T19:49:21Z</time>
<desc>lat.=55.704334, lon.=26.086338, Alt.=137.736450m. Speed=0.036000m/h.</desc>
<speed>0.010000</speed>
</trkpt>
<trkpt lat="55.704334" lon="26.086338">
<ele>137.748169</ele>
<time>2010-07-17T19:49:22Z</time>
<desc>lat.=55.704334, lon.=26.086338, Alt.=137.748169m. Speed=0.036000m/h.</desc>
<speed>0.010000</speed>
</trkpt>
<trkpt lat="55.704334" lon="26.086338">
<ele>137.755981</ele>
<time>2010-07-17T19:49:23Z</time>
<desc>lat.=55.704334, lon.=26.086338, Alt.=137.755981m. Speed=0.036000m/h.</desc>
<speed>0.010000</speed>
</trkpt>
<trkpt lat="55.704334" lon="26.086338">
<ele>137.771606</ele>
<time>2010-07-17T19:49:24Z</time>
<desc>lat.=55.704334, lon.=26.086338, Alt.=137.771606m. Speed=0.072000m/h.</desc>
<speed>0.020000</speed>
</trkpt>
<trkpt lat="55.704334" lon="26.086338">
<ele>137.787231</ele>
<time>2010-07-17T19:49:25Z</time>
<desc>lat.=55.704334, lon.=26.086338, Alt.=137.787231m. Speed=0.036000m/h.</desc>
<speed>0.010000</speed>
</trkpt>
<trkpt lat="55.704334" lon="26.086338">
<ele>137.798950</ele>
<time>2010-07-17T19:49:26Z</time>
<desc>lat.=55.704334, lon.=26.086338, Alt.=137.798950m. Speed=0.072000m/h.</desc>
<speed>0.020000</speed>
</trkpt>
<trkpt lat="55.704334" lon="26.086338">
<ele>137.810669</ele>
<time>2010-07-17T19:49:27Z</time>
<desc>lat.=55.704334, lon.=26.086338, Alt.=137.810669m. Speed=0.036000m/h.</desc>
<speed>0.010000</speed>
</trkpt>
<trkpt lat="55.704334" lon="26.086338">
<ele>137.822388</ele>
<time>2010-07-17T19:49:28Z</time>
<desc>lat.=55.704334, lon.=26.086338, Alt.=137.822388m. Speed=0.072000m/h.</desc>
<speed>0.020000</speed>
</trkpt>
<trkpt lat="55.704334" lon="26.086338">
<ele>137.834106</ele>
<time>2010-07-17T19:49:29Z</time>
<desc>lat.=55.704334, lon.=26.086338, Alt.=137.834106m. Speed=0.036000m/h.</desc>
<speed>0.010000</speed>
</trkpt>
<trkpt lat="55.704334" lon="26.086338">
<ele>137.845825</ele>
<time>2010-07-17T19:49:30Z</time>
<desc>lat.=55.704334, lon.=26.086338, Alt.=137.845825m. Speed=0.072000m/h.</desc>
<speed>0.020000</speed>
</trkpt>
<trkpt lat="55.704334" lon="26.086338">
<ele>137.853638</ele>
<time>2010-07-17T19:49:31Z</time>
<desc>lat.=55.704334, lon.=26.086338, Alt.=137.853638m. Speed=0.144000m/h.</desc>
<speed>0.040000</speed>
</trkpt>
<trkpt lat="55.704334" lon="26.086338">
<ele>137.861450</ele>
<time>2010-07-17T19:49:32Z</time>
<desc>lat.=55.704334, lon.=26.086338, Alt.=137.861450m. Speed=0.108000m/h.</desc>
<speed>0.030000</speed>
</trkpt>
<trkpt lat="55.704334" lon="26.086338">
<ele>137.869263</ele>
<time>2010-07-17T19:49:33Z</time>
<desc>lat.=55.704334, lon.=26.086338, Alt.=137.869263m. Speed=0.108000m/h.</desc>
<speed>0.030000</speed>
</trkpt>
<trkpt lat="55.704334" lon="26.086338">
<ele>137.873169</ele>
<time>2010-07-17T19:49:34Z</time>
<desc>lat.=55.704334, lon.=26.086338, Alt.=137.873169m. Speed=0.108000m/h.</desc>
<speed>0.030000</speed>
</trkpt>
<trkpt lat="55.704334" lon="26.086338">
<ele>137.877075</ele>
<time>2010-07-17T19:49:35Z</time>
<desc>lat.=55.704334, lon.=26.086338, Alt.=137.877075m. Speed=0.072000m/h.</desc>
<speed>0.020000</speed>
</trkpt>
<trkpt lat="55.704334" lon="26.086338">
<ele>137.884888</ele>
<time>2010-07-17T19:49:36Z</time>
<desc>lat.=55.704334, lon.=26.086338, Alt.=137.884888m. Speed=0.000000m/h.</desc>
<speed>0.000000</speed>
</trkpt>
<trkpt lat="55.704334" lon="26.086338">
<ele>137.896606</ele>
<time>2010-07-17T19:49:37Z</time>
<desc>lat.=55.704334, lon.=26.086338, Alt.=137.896606m. Speed=0.108000m/h.</desc>
<speed>0.030000</speed>
</trkpt>
<trkpt lat="55.704334" lon="26.086338">
<ele>137.896606</ele>
<time>2010-07-17T19:49:38Z</time>
<desc>lat.=55.704334, lon.=26.086338, Alt.=137.896606m. Speed=0.108000m/h.</desc>
<speed>0.030000</speed>
</trkpt>
<trkpt lat="55.704334" lon="26.086338">
<ele>137.900513</ele>
<time>2010-07-17T19:49:39Z</time>
<desc>lat.=55.704334, lon.=26.086338, Alt.=137.900513m. Speed=0.072000m/h.</desc>
<speed>0.020000</speed>
</trkpt>
<trkpt lat="55.704334" lon="26.086338">
<ele>137.916138</ele>
<time>2010-07-17T19:49:40Z</time>
<desc>lat.=55.704334, lon.=26.086338, Alt.=137.916138m. Speed=0.072000m/h.</desc>
<speed>0.020000</speed>
</trkpt>
<trkpt lat="55.704334" lon="26.086338">
<ele>137.931763</ele>
<time>2010-07-17T19:49:41Z</time>
<desc>lat.=55.704334, lon.=26.086338, Alt.=137.931763m. Speed=0.144000m/h.</desc>
<speed>0.040000</speed>
</trkpt>
<trkpt lat="55.704334" lon="26.086338">
<ele>137.951294</ele>
<time>2010-07-17T19:49:42Z</time>
<desc>lat.=55.704334, lon.=26.086338, Alt.=137.951294m. Speed=0.144000m/h.</desc>
<speed>0.040000</speed>
</trkpt>
<trkpt lat="55.704334" lon="26.086336">
<ele>137.963013</ele>
<time>2010-07-17T19:49:43Z</time>
<desc>lat.=55.704334, lon.=26.086336, Alt.=137.963013m. Speed=0.108000m/h.</desc>
<speed>0.030000</speed>
</trkpt>
<trkpt lat="55.704334" lon="26.086336">
<ele>137.978638</ele>
<time>2010-07-17T19:49:44Z</time>
<desc>lat.=55.704334, lon.=26.086336, Alt.=137.978638m. Speed=0.072000m/h.</desc>
<speed>0.020000</speed>
</trkpt>
<trkpt lat="55.704334" lon="26.086336">
<ele>137.990356</ele>
<time>2010-07-17T19:49:45Z</time>
<desc>lat.=55.704334, lon.=26.086336, Alt.=137.990356m. Speed=0.144000m/h.</desc>
<speed>0.040000</speed>
</trkpt>
<trkpt lat="55.704330" lon="26.086336">
<ele>137.990356</ele>
<time>2010-07-17T19:49:46Z</time>
<desc>lat.=55.704330, lon.=26.086336, Alt.=137.990356m. Speed=0.180000m/h.</desc>
<speed>0.050000</speed>
</trkpt>
<trkpt lat="55.704330" lon="26.086336">
<ele>137.998169</ele>
<time>2010-07-17T19:49:47Z</time>
<desc>lat.=55.704330, lon.=26.086336, Alt.=137.998169m. Speed=0.180000m/h.</desc>
<speed>0.050000</speed>
</trkpt>
<trkpt lat="55.704330" lon="26.086336">
<ele>138.005981</ele>
<time>2010-07-17T19:49:48Z</time>
<desc>lat.=55.704330, lon.=26.086336, Alt.=138.005981m. Speed=0.108000m/h.</desc>
<speed>0.030000</speed>
</trkpt>
<trkpt lat="55.704330" lon="26.086336">
<ele>138.009888</ele>
<time>2010-07-17T19:49:49Z</time>
<desc>lat.=55.704330, lon.=26.086336, Alt.=138.009888m. Speed=0.108000m/h.</desc>
<speed>0.030000</speed>
</trkpt>
<trkpt lat="55.704330" lon="26.086334">
<ele>138.013794</ele>
<time>2010-07-17T19:49:50Z</time>
<desc>lat.=55.704330, lon.=26.086334, Alt.=138.013794m. Speed=0.144000m/h.</desc>
<speed>0.040000</speed>
</trkpt>
<trkpt lat="55.704330" lon="26.086334">
<ele>138.025513</ele>
<time>2010-07-17T19:49:51Z</time>
<desc>lat.=55.704330, lon.=26.086334, Alt.=138.025513m. Speed=0.108000m/h.</desc>
<speed>0.030000</speed>
</trkpt>
<trkpt lat="55.704330" lon="26.086334">
<ele>138.033325</ele>
<time>2010-07-17T19:49:52Z</time>
<desc>lat.=55.704330, lon.=26.086334, Alt.=138.033325m. Speed=0.144000m/h.</desc>
<speed>0.040000</speed>
</trkpt>
<trkpt lat="55.704330" lon="26.086334">
<ele>138.048950</ele>
<time>2010-07-17T19:49:53Z</time>
<desc>lat.=55.704330, lon.=26.086334, Alt.=138.048950m. Speed=0.180000m/h.</desc>
<speed>0.050000</speed>
</trkpt>
<trkpt lat="55.704330" lon="26.086334">
<ele>138.064575</ele>
<time>2010-07-17T19:49:54Z</time>
<desc>lat.=55.704330, lon.=26.086334, Alt.=138.064575m. Speed=0.144000m/h.</desc>
<speed>0.040000</speed>
</trkpt>
<trkpt lat="55.704330" lon="26.086334">
<ele>138.080200</ele>
<time>2010-07-17T19:49:55Z</time>
<desc>lat.=55.704330, lon.=26.086334, Alt.=138.080200m. Speed=0.144000m/h.</desc>
<speed>0.040000</speed>
</trkpt>
<trkpt lat="55.704330" lon="26.086334">
<ele>138.095825</ele>
<time>2010-07-17T19:49:56Z</time>
<desc>lat.=55.704330, lon.=26.086334, Alt.=138.095825m. Speed=0.144000m/h.</desc>
<speed>0.040000</speed>
</trkpt>
<trkpt lat="55.704330" lon="26.086332">
<ele>138.111450</ele>
<time>2010-07-17T19:49:57Z</time>
<desc>lat.=55.704330, lon.=26.086332, Alt.=138.111450m. Speed=0.108000m/h.</desc>
<speed>0.030000</speed>
</trkpt>
<trkpt lat="55.704330" lon="26.086332">
<ele>138.123169</ele>
<time>2010-07-17T19:49:58Z</time>
<desc>lat.=55.704330, lon.=26.086332, Alt.=138.123169m. Speed=0.072000m/h.</desc>
<speed>0.020000</speed>
</trkpt>
<trkpt lat="55.704330" lon="26.086332">
<ele>138.138794</ele>
<time>2010-07-17T19:49:59Z</time>
<desc>lat.=55.704330, lon.=26.086332, Alt.=138.138794m. Speed=0.072000m/h.</desc>
<speed>0.020000</speed>
</trkpt>
<trkpt lat="55.704330" lon="26.086332">
<ele>138.146606</ele>
<time>2010-07-17T19:50:00Z</time>
<desc>lat.=55.704330, lon.=26.086332, Alt.=138.146606m. Speed=0.108000m/h.</desc>
<speed>0.030000</speed>
</trkpt>
<trkpt lat="55.704330" lon="26.086332">
<ele>138.162231</ele>
<time>2010-07-17T19:50:01Z</time>
<desc>lat.=55.704330, lon.=26.086332, Alt.=138.162231m. Speed=0.072000m/h.</desc>
<speed>0.020000</speed>
</trkpt>
<trkpt lat="55.704330" lon="26.086332">
<ele>138.173950</ele>
<time>2010-07-17T19:50:02Z</time>
<desc>lat.=55.704330, lon.=26.086332, Alt.=138.173950m. Speed=0.108000m/h.</desc>
<speed>0.030000</speed>
</trkpt>
<trkpt lat="55.704330" lon="26.086332">
<ele>138.181763</ele>
<time>2010-07-17T19:50:03Z</time>
<desc>lat.=55.704330, lon.=26.086332, Alt.=138.181763m. Speed=0.000000m/h.</desc>
<speed>0.000000</speed>
</trkpt>
<trkpt lat="55.704330" lon="26.086332">
<ele>138.181763</ele>
<time>2010-07-17T19:50:04Z</time>
<desc>lat.=55.704330, lon.=26.086332, Alt.=138.181763m. Speed=0.036000m/h.</desc>
<speed>0.010000</speed>
</trkpt>
<trkpt lat="55.704330" lon="26.086332">
<ele>138.185669</ele>
<time>2010-07-17T19:50:05Z</time>
<desc>lat.=55.704330, lon.=26.086332, Alt.=138.185669m. Speed=0.036000m/h.</desc>
<speed>0.010000</speed>
</trkpt>
<trkpt lat="55.704330" lon="26.086332">
<ele>138.189575</ele>
<time>2010-07-17T19:50:06Z</time>
<desc>lat.=55.704330, lon.=26.086332, Alt.=138.189575m. Speed=0.036000m/h.</desc>
<speed>0.010000</speed>
</trkpt>
<trkpt lat="55.704330" lon="26.086332">
<ele>138.193481</ele>
<time>2010-07-17T19:50:07Z</time>
<desc>lat.=55.704330, lon.=26.086332, Alt.=138.193481m. Speed=0.036000m/h.</desc>
<speed>0.010000</speed>
</trkpt>
<trkpt lat="55.704330" lon="26.086332">
<ele>138.193481</ele>
<time>2010-07-17T19:50:08Z</time>
<desc>lat.=55.704330, lon.=26.086332, Alt.=138.193481m. Speed=0.072000m/h.</desc>
<speed>0.020000</speed>
</trkpt>
<trkpt lat="55.704330" lon="26.086332">
<ele>138.197388</ele>
<time>2010-07-17T19:50:09Z</time>
<desc>lat.=55.704330, lon.=26.086332, Alt.=138.197388m. Speed=0.144000m/h.</desc>
<speed>0.040000</speed>
</trkpt>
<trkpt lat="55.704330" lon="26.086332">
<ele>138.197388</ele>
<time>2010-07-17T19:50:10Z</time>
<desc>lat.=55.704330, lon.=26.086332, Alt.=138.197388m. Speed=0.144000m/h.</desc>
<speed>0.040000</speed>
</trkpt>
<trkpt lat="55.704330" lon="26.086330">
<ele>138.201294</ele>
<time>2010-07-17T19:50:11Z</time>
<desc>lat.=55.704330, lon.=26.086330, Alt.=138.201294m. Speed=0.144000m/h.</desc>
<speed>0.040000</speed>
</trkpt>
<trkpt lat="55.704330" lon="26.086330">
<ele>138.205200</ele>
<time>2010-07-17T19:50:12Z</time>
<desc>lat.=55.704330, lon.=26.086330, Alt.=138.205200m. Speed=0.144000m/h.</desc>
<speed>0.040000</speed>
</trkpt>
<trkpt lat="55.704330" lon="26.086330">
<ele>138.209106</ele>
<time>2010-07-17T19:50:13Z</time>
<desc>lat.=55.704330, lon.=26.086330, Alt.=138.209106m. Speed=0.108000m/h.</desc>
<speed>0.030000</speed>
</trkpt>
<trkpt lat="55.704330" lon="26.086330">
<ele>138.205200</ele>
<time>2010-07-17T19:50:14Z</time>
<desc>lat.=55.704330, lon.=26.086330, Alt.=138.205200m. Speed=0.072000m/h.</desc>
<speed>0.020000</speed>
</trkpt>
<trkpt lat="55.704330" lon="26.086330">
<ele>138.201294</ele>
<time>2010-07-17T19:50:15Z</time>
<desc>lat.=55.704330, lon.=26.086330, Alt.=138.201294m. Speed=0.036000m/h.</desc>
<speed>0.010000</speed>
</trkpt>
<trkpt lat="55.704330" lon="26.086330">
<ele>138.205200</ele>
<time>2010-07-17T19:50:16Z</time>
<desc>lat.=55.704330, lon.=26.086330, Alt.=138.205200m. Speed=0.036000m/h.</desc>
<speed>0.010000</speed>
</trkpt>
<trkpt lat="55.704330" lon="26.086330">
<ele>138.201294</ele>
<time>2010-07-17T19:50:17Z</time>
<desc>lat.=55.704330, lon.=26.086330, Alt.=138.201294m. Speed=0.036000m/h.</desc>
<speed>0.010000</speed>
</trkpt>
<trkpt lat="55.704330" lon="26.086330">
<ele>138.201294</ele>
<time>2010-07-17T19:50:18Z</time>
<desc>lat.=55.704330, lon.=26.086330, Alt.=138.201294m. Speed=0.036000m/h.</desc>
<speed>0.010000</speed>
</trkpt>
<trkpt lat="55.704330" lon="26.086330">
<ele>138.193481</ele>
<time>2010-07-17T19:50:19Z</time>
<desc>lat.=55.704330, lon.=26.086330, Alt.=138.193481m. Speed=0.072000m/h.</desc>
<speed>0.020000</speed>
</trkpt>
<trkpt lat="55.704330" lon="26.086330">
<ele>138.193481</ele>
<time>2010-07-17T19:50:20Z</time>
<desc>lat.=55.704330, lon.=26.086330, Alt.=138.193481m. Speed=0.036000m/h.</desc>
<speed>0.010000</speed>
</trkpt>
<trkpt lat="55.704330" lon="26.086330">
<ele>138.189575</ele>
<time>2010-07-17T19:50:21Z</time>
<desc>lat.=55.704330, lon.=26.086330, Alt.=138.189575m. Speed=0.108000m/h.</desc>
<speed>0.030000</speed>
</trkpt>
<trkpt lat="55.704330" lon="26.086330">
<ele>138.185669</ele>
<time>2010-07-17T19:50:22Z</time>
<desc>lat.=55.704330, lon.=26.086330, Alt.=138.185669m. Speed=0.000000m/h.</desc>
<speed>0.000000</speed>
</trkpt>
<trkpt lat="55.704330" lon="26.086330">
<ele>138.181763</ele>
<time>2010-07-17T19:50:23Z</time>
<desc>lat.=55.704330, lon.=26.086330, Alt.=138.181763m. Speed=0.108000m/h.</desc>
<speed>0.030000</speed>
</trkpt>
<trkpt lat="55.704330" lon="26.086330">
<ele>138.177856</ele>
<time>2010-07-17T19:50:24Z</time>
<desc>lat.=55.704330, lon.=26.086330, Alt.=138.177856m. Speed=0.108000m/h.</desc>
<speed>0.030000</speed>
</trkpt>
<trkpt lat="55.704330" lon="26.086330">
<ele>138.173950</ele>
<time>2010-07-17T19:50:25Z</time>
<desc>lat.=55.704330, lon.=26.086330, Alt.=138.173950m. Speed=0.072000m/h.</desc>
<speed>0.020000</speed>
</trkpt>
<trkpt lat="55.704330" lon="26.086330">
<ele>138.177856</ele>
<time>2010-07-17T19:50:26Z</time>
<desc>lat.=55.704330, lon.=26.086330, Alt.=138.177856m. Speed=0.036000m/h.</desc>
<speed>0.010000</speed>
</trkpt>
<trkpt lat="55.704330" lon="26.086329">
<ele>138.185669</ele>
<time>2010-07-17T19:50:27Z</time>
<desc>lat.=55.704330, lon.=26.086329, Alt.=138.185669m. Speed=0.000000m/h.</desc>
<speed>0.000000</speed>
</trkpt>
<trkpt lat="55.704330" lon="26.086329">
<ele>138.185669</ele>
<time>2010-07-17T19:50:28Z</time>
<desc>lat.=55.704330, lon.=26.086329, Alt.=138.185669m. Speed=0.108000m/h.</desc>
<speed>0.030000</speed>
</trkpt>
<trkpt lat="55.704330" lon="26.086329">
<ele>138.189575</ele>
<time>2010-07-17T19:50:29Z</time>
<desc>lat.=55.704330, lon.=26.086329, Alt.=138.189575m. Speed=0.072000m/h.</desc>
<speed>0.020000</speed>
</trkpt>
<trkpt lat="55.704330" lon="26.086329">
<ele>138.193481</ele>
<time>2010-07-17T19:50:30Z</time>
<desc>lat.=55.704330, lon.=26.086329, Alt.=138.193481m. Speed=0.000000m/h.</desc>
<speed>0.000000</speed>
</trkpt>
<trkpt lat="55.704330" lon="26.086329">
<ele>138.193481</ele>
<time>2010-07-17T19:50:31Z</time>
<desc>lat.=55.704330, lon.=26.086329, Alt.=138.193481m. Speed=0.000000m/h.</desc>
<speed>0.000000</speed>
</trkpt>
<trkpt lat="55.704330" lon="26.086329">
<ele>138.197388</ele>
<time>2010-07-17T19:50:32Z</time>
<desc>lat.=55.704330, lon.=26.086329, Alt.=138.197388m. Speed=0.000000m/h.</desc>
<speed>0.000000</speed>
</trkpt>
<trkpt lat="55.704330" lon="26.086329">
<ele>138.189575</ele>
<time>2010-07-17T19:50:33Z</time>
<desc>lat.=55.704330, lon.=26.086329, Alt.=138.189575m. Speed=0.036000m/h.</desc>
<speed>0.010000</speed>
</trkpt>
<trkpt lat="55.704330" lon="26.086329">
<ele>138.185669</ele>
<time>2010-07-17T19:50:34Z</time>
<desc>lat.=55.704330, lon.=26.086329, Alt.=138.185669m. Speed=0.000000m/h.</desc>
<speed>0.000000</speed>
</trkpt>
<trkpt lat="55.704330" lon="26.086329">
<ele>138.189575</ele>
<time>2010-07-17T19:50:35Z</time>
<desc>lat.=55.704330, lon.=26.086329, Alt.=138.189575m. Speed=0.036000m/h.</desc>
<speed>0.010000</speed>
</trkpt>
<trkpt lat="55.704330" lon="26.086329">
<ele>138.189575</ele>
<time>2010-07-17T19:50:36Z</time>
<desc>lat.=55.704330, lon.=26.086329, Alt.=138.189575m. Speed=0.072000m/h.</desc>
<speed>0.020000</speed>
</trkpt>
<trkpt lat="55.704330" lon="26.086329">
<ele>138.189575</ele>
<time>2010-07-17T19:50:37Z</time>
<desc>lat.=55.704330, lon.=26.086329, Alt.=138.189575m. Speed=0.036000m/h.</desc>
<speed>0.010000</speed>
</trkpt>
<trkpt lat="55.704330" lon="26.086329">
<ele>138.193481</ele>
<time>2010-07-17T19:50:38Z</time>
<desc>lat.=55.704330, lon.=26.086329, Alt.=138.193481m. Speed=0.072000m/h.</desc>
<speed>0.020000</speed>
</trkpt>
<trkpt lat="55.704330" lon="26.086329">
<ele>138.197388</ele>
<time>2010-07-17T19:50:39Z</time>
<desc>lat.=55.704330, lon.=26.086329, Alt.=138.197388m. Speed=0.036000m/h.</desc>
<speed>0.010000</speed>
</trkpt>
<trkpt lat="55.704330" lon="26.086329">
<ele>138.197388</ele>
<time>2010-07-17T19:50:40Z</time>
<desc>lat.=55.704330, lon.=26.086329, Alt.=138.197388m. Speed=0.000000m/h.</desc>
<speed>0.000000</speed>
</trkpt>
<trkpt lat="55.704330" lon="26.086329">
<ele>138.205200</ele>
<time>2010-07-17T19:50:41Z</time>
<desc>lat.=55.704330, lon.=26.086329, Alt.=138.205200m. Speed=0.036000m/h.</desc>
<speed>0.010000</speed>
</trkpt>
<trkpt lat="55.704330" lon="26.086329">
<ele>138.205200</ele>
<time>2010-07-17T19:50:42Z</time>
<desc>lat.=55.704330, lon.=26.086329, Alt.=138.205200m. Speed=0.072000m/h.</desc>
<speed>0.020000</speed>
</trkpt>
<trkpt lat="55.704330" lon="26.086329">
<ele>138.209106</ele>
<time>2010-07-17T19:50:43Z</time>
<desc>lat.=55.704330, lon.=26.086329, Alt.=138.209106m. Speed=0.072000m/h.</desc>
<speed>0.020000</speed>
</trkpt>
<trkpt lat="55.704330" lon="26.086329">
<ele>138.213013</ele>
<time>2010-07-17T19:50:44Z</time>
<desc>lat.=55.704330, lon.=26.086329, Alt.=138.213013m. Speed=0.036000m/h.</desc>
<speed>0.010000</speed>
</trkpt>
<trkpt lat="55.704330" lon="26.086329">
<ele>138.232544</ele>
<time>2010-07-17T19:50:45Z</time>
<desc>lat.=55.704330, lon.=26.086329, Alt.=138.232544m. Speed=0.000000m/h.</desc>
<speed>0.000000</speed>
</trkpt>
<trkpt lat="55.704330" lon="26.086329">
<ele>138.240356</ele>
<time>2010-07-17T19:50:46Z</time>
<desc>lat.=55.704330, lon.=26.086329, Alt.=138.240356m. Speed=0.072000m/h.</desc>
<speed>0.020000</speed>
</trkpt>
<trkpt lat="55.704330" lon="26.086329">
<ele>138.252075</ele>
<time>2010-07-17T19:50:47Z</time>
<desc>lat.=55.704330, lon.=26.086329, Alt.=138.252075m. Speed=0.072000m/h.</desc>
<speed>0.020000</speed>
</trkpt>
<trkpt lat="55.704330" lon="26.086330">
<ele>138.263794</ele>
<time>2010-07-17T19:50:48Z</time>
<desc>lat.=55.704330, lon.=26.086330, Alt.=138.263794m. Speed=0.072000m/h.</desc>
<speed>0.020000</speed>
</trkpt>
<trkpt lat="55.704330" lon="26.086330">
<ele>138.271606</ele>
<time>2010-07-17T19:50:49Z</time>
<desc>lat.=55.704330, lon.=26.086330, Alt.=138.271606m. Speed=0.072000m/h.</desc>
<speed>0.020000</speed>
</trkpt>
<trkpt lat="55.704330" lon="26.086330">
<ele>138.279419</ele>
<time>2010-07-17T19:50:50Z</time>
<desc>lat.=55.704330, lon.=26.086330, Alt.=138.279419m. Speed=0.000000m/h.</desc>
<speed>0.000000</speed>
</trkpt>
<trkpt lat="55.704330" lon="26.086330">
<ele>138.291138</ele>
<time>2010-07-17T19:50:51Z</time>
<desc>lat.=55.704330, lon.=26.086330, Alt.=138.291138m. Speed=0.072000m/h.</desc>
<speed>0.020000</speed>
</trkpt>
<trkpt lat="55.704330" lon="26.086330">
<ele>138.302856</ele>
<time>2010-07-17T19:50:52Z</time>
<desc>lat.=55.704330, lon.=26.086330, Alt.=138.302856m. Speed=0.072000m/h.</desc>
<speed>0.020000</speed>
</trkpt>
<trkpt lat="55.704330" lon="26.086330">
<ele>138.318481</ele>
<time>2010-07-17T19:50:53Z</time>
<desc>lat.=55.704330, lon.=26.086330, Alt.=138.318481m. Speed=0.108000m/h.</desc>
<speed>0.030000</speed>
</trkpt>
<trkpt lat="55.704330" lon="26.086330">
<ele>138.326294</ele>
<time>2010-07-17T19:50:54Z</time>
<desc>lat.=55.704330, lon.=26.086330, Alt.=138.326294m. Speed=0.036000m/h.</desc>
<speed>0.010000</speed>
</trkpt>
<trkpt lat="55.704330" lon="26.086330">
<ele>138.338013</ele>
<time>2010-07-17T19:50:55Z</time>
<desc>lat.=55.704330, lon.=26.086330, Alt.=138.338013m. Speed=0.000000m/h.</desc>
<speed>0.000000</speed>
</trkpt>
<trkpt lat="55.704330" lon="26.086330">
<ele>138.353638</ele>
<time>2010-07-17T19:50:56Z</time>
<desc>lat.=55.704330, lon.=26.086330, Alt.=138.353638m. Speed=0.036000m/h.</desc>
<speed>0.010000</speed>
</trkpt>
<trkpt lat="55.704330" lon="26.086330">
<ele>138.369263</ele>
<time>2010-07-17T19:50:57Z</time>
<desc>lat.=55.704330, lon.=26.086330, Alt.=138.369263m. Speed=0.000000m/h.</desc>
<speed>0.000000</speed>
</trkpt>
<trkpt lat="55.704330" lon="26.086330">
<ele>138.384888</ele>
<time>2010-07-17T19:50:58Z</time>
<desc>lat.=55.704330, lon.=26.086330, Alt.=138.384888m. Speed=0.036000m/h.</desc>
<speed>0.010000</speed>
</trkpt>
<trkpt lat="55.704330" lon="26.086330">
<ele>138.400513</ele>
<time>2010-07-17T19:50:59Z</time>
<desc>lat.=55.704330, lon.=26.086330, Alt.=138.400513m. Speed=0.036000m/h.</desc>
<speed>0.010000</speed>
</trkpt>
<trkpt lat="55.704330" lon="26.086330">
<ele>138.404419</ele>
<time>2010-07-17T19:51:00Z</time>
<desc>lat.=55.704330, lon.=26.086330, Alt.=138.404419m. Speed=0.144000m/h.</desc>
<speed>0.040000</speed>
</trkpt>
<trkpt lat="55.704330" lon="26.086330">
<ele>138.412231</ele>
<time>2010-07-17T19:51:01Z</time>
<desc>lat.=55.704330, lon.=26.086330, Alt.=138.412231m. Speed=0.036000m/h.</desc>
<speed>0.010000</speed>
</trkpt>
<trkpt lat="55.704330" lon="26.086330">
<ele>138.427856</ele>
<time>2010-07-17T19:51:02Z</time>
<desc>lat.=55.704330, lon.=26.086330, Alt.=138.427856m. Speed=0.000000m/h.</desc>
<speed>0.000000</speed>
</trkpt>
<trkpt lat="55.704330" lon="26.086330">
<ele>138.455200</ele>
<time>2010-07-17T19:51:03Z</time>
<desc>lat.=55.704330, lon.=26.086330, Alt.=138.455200m. Speed=0.108000m/h.</desc>
<speed>0.030000</speed>
</trkpt>
<trkpt lat="55.704330" lon="26.086330">
<ele>138.459106</ele>
<time>2010-07-17T19:51:04Z</time>
<desc>lat.=55.704330, lon.=26.086330, Alt.=138.459106m. Speed=0.144000m/h.</desc>
<speed>0.040000</speed>
</trkpt>
<trkpt lat="55.704330" lon="26.086332">
<ele>138.474731</ele>
<time>2010-07-17T19:51:05Z</time>
<desc>lat.=55.704330, lon.=26.086332, Alt.=138.474731m. Speed=0.036000m/h.</desc>
<speed>0.010000</speed>
</trkpt>
<trkpt lat="55.704330" lon="26.086332">
<ele>138.494263</ele>
<time>2010-07-17T19:51:06Z</time>
<desc>lat.=55.704330, lon.=26.086332, Alt.=138.494263m. Speed=0.108000m/h.</desc>
<speed>0.030000</speed>
</trkpt>
<trkpt lat="55.704330" lon="26.086332">
<ele>138.502075</ele>
<time>2010-07-17T19:51:07Z</time>
<desc>lat.=55.704330, lon.=26.086332, Alt.=138.502075m. Speed=0.108000m/h.</desc>
<speed>0.030000</speed>
</trkpt>
<trkpt lat="55.704330" lon="26.086332">
<ele>138.509888</ele>
<time>2010-07-17T19:51:08Z</time>
<desc>lat.=55.704330, lon.=26.086332, Alt.=138.509888m. Speed=0.108000m/h.</desc>
<speed>0.030000</speed>
</trkpt>
<trkpt lat="55.704330" lon="26.086332">
<ele>138.521606</ele>
<time>2010-07-17T19:51:09Z</time>
<desc>lat.=55.704330, lon.=26.086332, Alt.=138.521606m. Speed=0.072000m/h.</desc>
<speed>0.020000</speed>
</trkpt>
<trkpt lat="55.704330" lon="26.086332">
<ele>138.533325</ele>
<time>2010-07-17T19:51:10Z</time>
<desc>lat.=55.704330, lon.=26.086332, Alt.=138.533325m. Speed=0.144000m/h.</desc>
<speed>0.040000</speed>
</trkpt>
<trkpt lat="55.704330" lon="26.086332">
<ele>138.541138</ele>
<time>2010-07-17T19:51:11Z</time>
<desc>lat.=55.704330, lon.=26.086332, Alt.=138.541138m. Speed=0.144000m/h.</desc>
<speed>0.040000</speed>
</trkpt>
<trkpt lat="55.704330" lon="26.086332">
<ele>138.545044</ele>
<time>2010-07-17T19:51:12Z</time>
<desc>lat.=55.704330, lon.=26.086332, Alt.=138.545044m. Speed=0.072000m/h.</desc>
<speed>0.020000</speed>
</trkpt>
<trkpt lat="55.704330" lon="26.086332">
<ele>138.556763</ele>
<time>2010-07-17T19:51:13Z</time>
<desc>lat.=55.704330, lon.=26.086332, Alt.=138.556763m. Speed=0.108000m/h.</desc>
<speed>0.030000</speed>
</trkpt>
<trkpt lat="55.704330" lon="26.086332">
<ele>138.568481</ele>
<time>2010-07-17T19:51:14Z</time>
<desc>lat.=55.704330, lon.=26.086332, Alt.=138.568481m. Speed=0.036000m/h.</desc>
<speed>0.010000</speed>
</trkpt>
<trkpt lat="55.704330" lon="26.086332">
<ele>138.572388</ele>
<time>2010-07-17T19:51:15Z</time>
<desc>lat.=55.704330, lon.=26.086332, Alt.=138.572388m. Speed=0.000000m/h.</desc>
<speed>0.000000</speed>
</trkpt>
<trkpt lat="55.704330" lon="26.086332">
<ele>138.584106</ele>
<time>2010-07-17T19:51:16Z</time>
<desc>lat.=55.704330, lon.=26.086332, Alt.=138.584106m. Speed=0.072000m/h.</desc>
<speed>0.020000</speed>
</trkpt>
<trkpt lat="55.704327" lon="26.086332">
<ele>138.603638</ele>
<time>2010-07-17T19:51:17Z</time>
<desc>lat.=55.704327, lon.=26.086332, Alt.=138.603638m. Speed=0.144000m/h.</desc>
<speed>0.040000</speed>
</trkpt>
<trkpt lat="55.704327" lon="26.086332">
<ele>138.623169</ele>
<time>2010-07-17T19:51:18Z</time>
<desc>lat.=55.704327, lon.=26.086332, Alt.=138.623169m. Speed=0.252000m/h.</desc>
<speed>0.070000</speed>
</trkpt>
<trkpt lat="55.704330" lon="26.086332">
<ele>138.642700</ele>
<time>2010-07-17T19:51:19Z</time>
<desc>lat.=55.704330, lon.=26.086332, Alt.=138.642700m. Speed=0.036000m/h.</desc>
<speed>0.010000</speed>
</trkpt>
<trkpt lat="55.704330" lon="26.086332">
<ele>138.658325</ele>
<time>2010-07-17T19:51:20Z</time>
<desc>lat.=55.704330, lon.=26.086332, Alt.=138.658325m. Speed=0.108000m/h.</desc>
<speed>0.030000</speed>
</trkpt>
<trkpt lat="55.704330" lon="26.086332">
<ele>138.685669</ele>
<time>2010-07-17T19:51:21Z</time>
<desc>lat.=55.704330, lon.=26.086332, Alt.=138.685669m. Speed=0.072000m/h.</desc>
<speed>0.020000</speed>
</trkpt>
<trkpt lat="55.704330" lon="26.086332">
<ele>138.693481</ele>
<time>2010-07-17T19:51:22Z</time>
<desc>lat.=55.704330, lon.=26.086332, Alt.=138.693481m. Speed=0.108000m/h.</desc>
<speed>0.030000</speed>
</trkpt>
<trkpt lat="55.704330" lon="26.086332">
<ele>138.716919</ele>
<time>2010-07-17T19:51:23Z</time>
<desc>lat.=55.704330, lon.=26.086332, Alt.=138.716919m. Speed=0.144000m/h.</desc>
<speed>0.040000</speed>
</trkpt>
<trkpt lat="55.704330" lon="26.086332">
<ele>138.728638</ele>
<time>2010-07-17T19:51:24Z</time>
<desc>lat.=55.704330, lon.=26.086332, Alt.=138.728638m. Speed=0.144000m/h.</desc>
<speed>0.040000</speed>
</trkpt>
<trkpt lat="55.704330" lon="26.086332">
<ele>138.752075</ele>
<time>2010-07-17T19:51:25Z</time>
<desc>lat.=55.704330, lon.=26.086332, Alt.=138.752075m. Speed=0.036000m/h.</desc>
<speed>0.010000</speed>
</trkpt>
<trkpt lat="55.704330" lon="26.086332">
<ele>138.763794</ele>
<time>2010-07-17T19:51:26Z</time>
<desc>lat.=55.704330, lon.=26.086332, Alt.=138.763794m. Speed=0.036000m/h.</desc>
<speed>0.010000</speed>
</trkpt>
<trkpt lat="55.704330" lon="26.086332">
<ele>138.771606</ele>
<time>2010-07-17T19:51:27Z</time>
<desc>lat.=55.704330, lon.=26.086332, Alt.=138.771606m. Speed=0.036000m/h.</desc>
<speed>0.010000</speed>
</trkpt>
<trkpt lat="55.704330" lon="26.086332">
<ele>138.787231</ele>
<time>2010-07-17T19:51:28Z</time>
<desc>lat.=55.704330, lon.=26.086332, Alt.=138.787231m. Speed=0.072000m/h.</desc>
<speed>0.020000</speed>
</trkpt>
<trkpt lat="55.704330" lon="26.086330">
<ele>138.802856</ele>
<time>2010-07-17T19:51:29Z</time>
<desc>lat.=55.704330, lon.=26.086330, Alt.=138.802856m. Speed=0.108000m/h.</desc>
<speed>0.030000</speed>
</trkpt>
<trkpt lat="55.704330" lon="26.086330">
<ele>138.826294</ele>
<time>2010-07-17T19:51:30Z</time>
<desc>lat.=55.704330, lon.=26.086330, Alt.=138.826294m. Speed=0.108000m/h.</desc>
<speed>0.030000</speed>
</trkpt>
<trkpt lat="55.704330" lon="26.086330">
<ele>138.841919</ele>
<time>2010-07-17T19:51:31Z</time>
<desc>lat.=55.704330, lon.=26.086330, Alt.=138.841919m. Speed=0.000000m/h.</desc>
<speed>0.000000</speed>
</trkpt>
<trkpt lat="55.704330" lon="26.086330">
<ele>138.857544</ele>
<time>2010-07-17T19:51:32Z</time>
<desc>lat.=55.704330, lon.=26.086330, Alt.=138.857544m. Speed=0.036000m/h.</desc>
<speed>0.010000</speed>
</trkpt>
<trkpt lat="55.704330" lon="26.086330">
<ele>138.865356</ele>
<time>2010-07-17T19:51:33Z</time>
<desc>lat.=55.704330, lon.=26.086330, Alt.=138.865356m. Speed=0.072000m/h.</desc>
<speed>0.020000</speed>
</trkpt>
<trkpt lat="55.704330" lon="26.086330">
<ele>138.873169</ele>
<time>2010-07-17T19:51:34Z</time>
<desc>lat.=55.704330, lon.=26.086330, Alt.=138.873169m. Speed=0.144000m/h.</desc>
<speed>0.040000</speed>
</trkpt>
<trkpt lat="55.704330" lon="26.086330">
<ele>138.880981</ele>
<time>2010-07-17T19:51:35Z</time>
<desc>lat.=55.704330, lon.=26.086330, Alt.=138.880981m. Speed=0.108000m/h.</desc>
<speed>0.030000</speed>
</trkpt>
<trkpt lat="55.704330" lon="26.086330">
<ele>138.892700</ele>
<time>2010-07-17T19:51:36Z</time>
<desc>lat.=55.704330, lon.=26.086330, Alt.=138.892700m. Speed=0.108000m/h.</desc>
<speed>0.030000</speed>
</trkpt>
<trkpt lat="55.704330" lon="26.086330">
<ele>138.908325</ele>
<time>2010-07-17T19:51:37Z</time>
<desc>lat.=55.704330, lon.=26.086330, Alt.=138.908325m. Speed=0.036000m/h.</desc>
<speed>0.010000</speed>
</trkpt>
<trkpt lat="55.704330" lon="26.086330">
<ele>138.912231</ele>
<time>2010-07-17T19:51:38Z</time>
<desc>lat.=55.704330, lon.=26.086330, Alt.=138.912231m. Speed=0.072000m/h.</desc>
<speed>0.020000</speed>
</trkpt>
<trkpt lat="55.704330" lon="26.086330">
<ele>138.920044</ele>
<time>2010-07-17T19:51:39Z</time>
<desc>lat.=55.704330, lon.=26.086330, Alt.=138.920044m. Speed=0.000000m/h.</desc>
<speed>0.000000</speed>
</trkpt>
<trkpt lat="55.704330" lon="26.086330">
<ele>138.927856</ele>
<time>2010-07-17T19:51:40Z</time>
<desc>lat.=55.704330, lon.=26.086330, Alt.=138.927856m. Speed=0.072000m/h.</desc>
<speed>0.020000</speed>
</trkpt>
<trkpt lat="55.704330" lon="26.086330">
<ele>138.935669</ele>
<time>2010-07-17T19:51:41Z</time>
<desc>lat.=55.704330, lon.=26.086330, Alt.=138.935669m. Speed=0.072000m/h.</desc>
<speed>0.020000</speed>
</trkpt>
<trkpt lat="55.704330" lon="26.086330">
<ele>138.939575</ele>
<time>2010-07-17T19:51:42Z</time>
<desc>lat.=55.704330, lon.=26.086330, Alt.=138.939575m. Speed=0.036000m/h.</desc>
<speed>0.010000</speed>
</trkpt>
<trkpt lat="55.704330" lon="26.086330">
<ele>138.947388</ele>
<time>2010-07-17T19:51:43Z</time>
<desc>lat.=55.704330, lon.=26.086330, Alt.=138.947388m. Speed=0.000000m/h.</desc>
<speed>0.000000</speed>
</trkpt>
<trkpt lat="55.704330" lon="26.086330">
<ele>138.951294</ele>
<time>2010-07-17T19:51:44Z</time>
<desc>lat.=55.704330, lon.=26.086330, Alt.=138.951294m. Speed=0.036000m/h.</desc>
<speed>0.010000</speed>
</trkpt>
<trkpt lat="55.704330" lon="26.086330">
<ele>138.955200</ele>
<time>2010-07-17T19:51:45Z</time>
<desc>lat.=55.704330, lon.=26.086330, Alt.=138.955200m. Speed=0.036000m/h.</desc>
<speed>0.010000</speed>
</trkpt>
<trkpt lat="55.704330" lon="26.086330">
<ele>138.963013</ele>
<time>2010-07-17T19:51:46Z</time>
<desc>lat.=55.704330, lon.=26.086330, Alt.=138.963013m. Speed=0.648000m/h.</desc>
<speed>0.180000</speed>
</trkpt>
<trkpt lat="55.704330" lon="26.086330">
<ele>138.966919</ele>
<time>2010-07-17T19:51:47Z</time>
<desc>lat.=55.704330, lon.=26.086330, Alt.=138.966919m. Speed=0.000000m/h.</desc>
<speed>0.000000</speed>
</trkpt>
<trkpt lat="55.704330" lon="26.086330">
<ele>138.970825</ele>
<time>2010-07-17T19:51:48Z</time>
<desc>lat.=55.704330, lon.=26.086330, Alt.=138.970825m. Speed=0.036000m/h.</desc>
<speed>0.010000</speed>
</trkpt>
<trkpt lat="55.704330" lon="26.086330">
<ele>138.982544</ele>
<time>2010-07-17T19:51:49Z</time>
<desc>lat.=55.704330, lon.=26.086330, Alt.=138.982544m. Speed=0.000000m/h.</desc>
<speed>0.000000</speed>
</trkpt>
<trkpt lat="55.704330" lon="26.086330">
<ele>138.990356</ele>
<time>2010-07-17T19:51:50Z</time>
<desc>lat.=55.704330, lon.=26.086330, Alt.=138.990356m. Speed=0.000000m/h.</desc>
<speed>0.000000</speed>
</trkpt>
<trkpt lat="55.704330" lon="26.086330">
<ele>138.998169</ele>
<time>2010-07-17T19:51:51Z</time>
<desc>lat.=55.704330, lon.=26.086330, Alt.=138.998169m. Speed=0.000000m/h.</desc>
<speed>0.000000</speed>
</trkpt>
<trkpt lat="55.704330" lon="26.086330">
<ele>139.005981</ele>
<time>2010-07-17T19:51:52Z</time>
<desc>lat.=55.704330, lon.=26.086330, Alt.=139.005981m. Speed=0.036000m/h.</desc>
<speed>0.010000</speed>
</trkpt>
<trkpt lat="55.704330" lon="26.086330">
<ele>139.009888</ele>
<time>2010-07-17T19:51:53Z</time>
<desc>lat.=55.704330, lon.=26.086330, Alt.=139.009888m. Speed=0.036000m/h.</desc>
<speed>0.010000</speed>
</trkpt>
<trkpt lat="55.704330" lon="26.086330">
<ele>139.013794</ele>
<time>2010-07-17T19:51:54Z</time>
<desc>lat.=55.704330, lon.=26.086330, Alt.=139.013794m. Speed=0.036000m/h.</desc>
<speed>0.010000</speed>
</trkpt>
<trkpt lat="55.704330" lon="26.086330">
<ele>139.025513</ele>
<time>2010-07-17T19:51:55Z</time>
<desc>lat.=55.704330, lon.=26.086330, Alt.=139.025513m. Speed=0.000000m/h.</desc>
<speed>0.000000</speed>
</trkpt>
<trkpt lat="55.704330" lon="26.086330">
<ele>139.029419</ele>
<time>2010-07-17T19:51:56Z</time>
<desc>lat.=55.704330, lon.=26.086330, Alt.=139.029419m. Speed=0.036000m/h.</desc>
<speed>0.010000</speed>
</trkpt>
<trkpt lat="55.704330" lon="26.086330">
<ele>139.041138</ele>
<time>2010-07-17T19:51:57Z</time>
<desc>lat.=55.704330, lon.=26.086330, Alt.=139.041138m. Speed=0.036000m/h.</desc>
<speed>0.010000</speed>
</trkpt>
<trkpt lat="55.704330" lon="26.086330">
<ele>139.048950</ele>
<time>2010-07-17T19:51:58Z</time>
<desc>lat.=55.704330, lon.=26.086330, Alt.=139.048950m. Speed=0.036000m/h.</desc>
<speed>0.010000</speed>
</trkpt>
<trkpt lat="55.704330" lon="26.086330">
<ele>139.056763</ele>
<time>2010-07-17T19:51:59Z</time>
<desc>lat.=55.704330, lon.=26.086330, Alt.=139.056763m. Speed=0.036000m/h.</desc>
<speed>0.010000</speed>
</trkpt>
<trkpt lat="55.704330" lon="26.086330">
<ele>139.068481</ele>
<time>2010-07-17T19:52:00Z</time>
<desc>lat.=55.704330, lon.=26.086330, Alt.=139.068481m. Speed=0.072000m/h.</desc>
<speed>0.020000</speed>
</trkpt>
<trkpt lat="55.704330" lon="26.086330">
<ele>139.076294</ele>
<time>2010-07-17T19:52:01Z</time>
<desc>lat.=55.704330, lon.=26.086330, Alt.=139.076294m. Speed=0.180000m/h.</desc>
<speed>0.050000</speed>
</trkpt>
<trkpt lat="55.704330" lon="26.086330">
<ele>139.088013</ele>
<time>2010-07-17T19:52:02Z</time>
<desc>lat.=55.704330, lon.=26.086330, Alt.=139.088013m. Speed=0.108000m/h.</desc>
<speed>0.030000</speed>
</trkpt>
<trkpt lat="55.704330" lon="26.086330">
<ele>139.095825</ele>
<time>2010-07-17T19:52:03Z</time>
<desc>lat.=55.704330, lon.=26.086330, Alt.=139.095825m. Speed=0.108000m/h.</desc>
<speed>0.030000</speed>
</trkpt>
<trkpt lat="55.704330" lon="26.086332">
<ele>139.103638</ele>
<time>2010-07-17T19:52:04Z</time>
<desc>lat.=55.704330, lon.=26.086332, Alt.=139.103638m. Speed=0.036000m/h.</desc>
<speed>0.010000</speed>
</trkpt>
<trkpt lat="55.704330" lon="26.086332">
<ele>139.115356</ele>
<time>2010-07-17T19:52:05Z</time>
<desc>lat.=55.704330, lon.=26.086332, Alt.=139.115356m. Speed=0.036000m/h.</desc>
<speed>0.010000</speed>
</trkpt>
<trkpt lat="55.704330" lon="26.086332">
<ele>139.123169</ele>
<time>2010-07-17T19:52:06Z</time>
<desc>lat.=55.704330, lon.=26.086332, Alt.=139.123169m. Speed=0.036000m/h.</desc>
<speed>0.010000</speed>
</trkpt>
<trkpt lat="55.704330" lon="26.086332">
<ele>139.134888</ele>
<time>2010-07-17T19:52:07Z</time>
<desc>lat.=55.704330, lon.=26.086332, Alt.=139.134888m. Speed=0.072000m/h.</desc>
<speed>0.020000</speed>
</trkpt>
<trkpt lat="55.704330" lon="26.086332">
<ele>139.142700</ele>
<time>2010-07-17T19:52:08Z</time>
<desc>lat.=55.704330, lon.=26.086332, Alt.=139.142700m. Speed=0.108000m/h.</desc>
<speed>0.030000</speed>
</trkpt>
<trkpt lat="55.704330" lon="26.086332">
<ele>139.154419</ele>
<time>2010-07-17T19:52:09Z</time>
<desc>lat.=55.704330, lon.=26.086332, Alt.=139.154419m. Speed=0.108000m/h.</desc>
<speed>0.030000</speed>
</trkpt>
<trkpt lat="55.704330" lon="26.086332">
<ele>139.173950</ele>
<time>2010-07-17T19:52:10Z</time>
<desc>lat.=55.704330, lon.=26.086332, Alt.=139.173950m. Speed=0.000000m/h.</desc>
<speed>0.000000</speed>
</trkpt>
<trkpt lat="55.704330" lon="26.086332">
<ele>139.189575</ele>
<time>2010-07-17T19:52:11Z</time>
<desc>lat.=55.704330, lon.=26.086332, Alt.=139.189575m. Speed=0.036000m/h.</desc>
<speed>0.010000</speed>
</trkpt>
<trkpt lat="55.704330" lon="26.086332">
<ele>139.209106</ele>
<time>2010-07-17T19:52:12Z</time>
<desc>lat.=55.704330, lon.=26.086332, Alt.=139.209106m. Speed=0.036000m/h.</desc>
<speed>0.010000</speed>
</trkpt>
<trkpt lat="55.704330" lon="26.086332">
<ele>139.228638</ele>
<time>2010-07-17T19:52:13Z</time>
<desc>lat.=55.704330, lon.=26.086332, Alt.=139.228638m. Speed=0.000000m/h.</desc>
<speed>0.000000</speed>
</trkpt>
<trkpt lat="55.704330" lon="26.086332">
<ele>139.248169</ele>
<time>2010-07-17T19:52:14Z</time>
<desc>lat.=55.704330, lon.=26.086332, Alt.=139.248169m. Speed=0.072000m/h.</desc>
<speed>0.020000</speed>
</trkpt>
<trkpt lat="55.704330" lon="26.086332">
<ele>139.263794</ele>
<time>2010-07-17T19:52:15Z</time>
<desc>lat.=55.704330, lon.=26.086332, Alt.=139.263794m. Speed=0.072000m/h.</desc>
<speed>0.020000</speed>
</trkpt>
<trkpt lat="55.704330" lon="26.086332">
<ele>139.267700</ele>
<time>2010-07-17T19:52:16Z</time>
<desc>lat.=55.704330, lon.=26.086332, Alt.=139.267700m. Speed=0.108000m/h.</desc>
<speed>0.030000</speed>
</trkpt>
<trkpt lat="55.704330" lon="26.086332">
<ele>139.271606</ele>
<time>2010-07-17T19:52:17Z</time>
<desc>lat.=55.704330, lon.=26.086332, Alt.=139.271606m. Speed=0.036000m/h.</desc>
<speed>0.010000</speed>
</trkpt>
<trkpt lat="55.704330" lon="26.086332">
<ele>139.275513</ele>
<time>2010-07-17T19:52:18Z</time>
<desc>lat.=55.704330, lon.=26.086332, Alt.=139.275513m. Speed=0.036000m/h.</desc>
<speed>0.010000</speed>
</trkpt>
<trkpt lat="55.704330" lon="26.086332">
<ele>139.275513</ele>
<time>2010-07-17T19:52:19Z</time>
<desc>lat.=55.704330, lon.=26.086332, Alt.=139.275513m. Speed=0.036000m/h.</desc>
<speed>0.010000</speed>
</trkpt>
<trkpt lat="55.704330" lon="26.086332">
<ele>139.267700</ele>
<time>2010-07-17T19:52:20Z</time>
<desc>lat.=55.704330, lon.=26.086332, Alt.=139.267700m. Speed=0.108000m/h.</desc>
<speed>0.030000</speed>
</trkpt>
<trkpt lat="55.704330" lon="26.086332">
<ele>139.267700</ele>
<time>2010-07-17T19:52:21Z</time>
<desc>lat.=55.704330, lon.=26.086332, Alt.=139.267700m. Speed=0.180000m/h.</desc>
<speed>0.050000</speed>
</trkpt>
<trkpt lat="55.704330" lon="26.086332">
<ele>139.279419</ele>
<time>2010-07-17T19:52:22Z</time>
<desc>lat.=55.704330, lon.=26.086332, Alt.=139.279419m. Speed=0.072000m/h.</desc>
<speed>0.020000</speed>
</trkpt>
<trkpt lat="55.704330" lon="26.086332">
<ele>139.287231</ele>
<time>2010-07-17T19:52:23Z</time>
<desc>lat.=55.704330, lon.=26.086332, Alt.=139.287231m. Speed=0.072000m/h.</desc>
<speed>0.020000</speed>
</trkpt>
<trkpt lat="55.704330" lon="26.086332">
<ele>139.287231</ele>
<time>2010-07-17T19:52:24Z</time>
<desc>lat.=55.704330, lon.=26.086332, Alt.=139.287231m. Speed=0.072000m/h.</desc>
<speed>0.020000</speed>
</trkpt>
<trkpt lat="55.704330" lon="26.086332">
<ele>139.291138</ele>
<time>2010-07-17T19:52:25Z</time>
<desc>lat.=55.704330, lon.=26.086332, Alt.=139.291138m. Speed=0.108000m/h.</desc>
<speed>0.030000</speed>
</trkpt>
<trkpt lat="55.704330" lon="26.086334">
<ele>139.291138</ele>
<time>2010-07-17T19:52:26Z</time>
<desc>lat.=55.704330, lon.=26.086334, Alt.=139.291138m. Speed=0.180000m/h.</desc>
<speed>0.050000</speed>
</trkpt>
<trkpt lat="55.704330" lon="26.086334">
<ele>139.291138</ele>
<time>2010-07-17T19:52:27Z</time>
<desc>lat.=55.704330, lon.=26.086334, Alt.=139.291138m. Speed=0.072000m/h.</desc>
<speed>0.020000</speed>
</trkpt>
<trkpt lat="55.704330" lon="26.086334">
<ele>139.295044</ele>
<time>2010-07-17T19:52:28Z</time>
<desc>lat.=55.704330, lon.=26.086334, Alt.=139.295044m. Speed=0.036000m/h.</desc>
<speed>0.010000</speed>
</trkpt>
<trkpt lat="55.704330" lon="26.086334">
<ele>139.302856</ele>
<time>2010-07-17T19:52:29Z</time>
<desc>lat.=55.704330, lon.=26.086334, Alt.=139.302856m. Speed=0.036000m/h.</desc>
<speed>0.010000</speed>
</trkpt>
<trkpt lat="55.704330" lon="26.086334">
<ele>139.302856</ele>
<time>2010-07-17T19:52:30Z</time>
<desc>lat.=55.704330, lon.=26.086334, Alt.=139.302856m. Speed=0.036000m/h.</desc>
<speed>0.010000</speed>
</trkpt>
<trkpt lat="55.704330" lon="26.086334">
<ele>139.306763</ele>
<time>2010-07-17T19:52:31Z</time>
<desc>lat.=55.704330, lon.=26.086334, Alt.=139.306763m. Speed=0.036000m/h.</desc>
<speed>0.010000</speed>
</trkpt>
<trkpt lat="55.704330" lon="26.086334">
<ele>139.314575</ele>
<time>2010-07-17T19:52:32Z</time>
<desc>lat.=55.704330, lon.=26.086334, Alt.=139.314575m. Speed=0.000000m/h.</desc>
<speed>0.000000</speed>
</trkpt>
<trkpt lat="55.704330" lon="26.086334">
<ele>139.322388</ele>
<time>2010-07-17T19:52:33Z</time>
<desc>lat.=55.704330, lon.=26.086334, Alt.=139.322388m. Speed=0.036000m/h.</desc>
<speed>0.010000</speed>
</trkpt>
<trkpt lat="55.704330" lon="26.086334">
<ele>139.326294</ele>
<time>2010-07-17T19:52:34Z</time>
<desc>lat.=55.704330, lon.=26.086334, Alt.=139.326294m. Speed=0.036000m/h.</desc>
<speed>0.010000</speed>
</trkpt>
<trkpt lat="55.704330" lon="26.086334">
<ele>139.326294</ele>
<time>2010-07-17T19:52:35Z</time>
<desc>lat.=55.704330, lon.=26.086334, Alt.=139.326294m. Speed=0.108000m/h.</desc>
<speed>0.030000</speed>
</trkpt>
<trkpt lat="55.704330" lon="26.086334">
<ele>139.334106</ele>
<time>2010-07-17T19:52:36Z</time>
<desc>lat.=55.704330, lon.=26.086334, Alt.=139.334106m. Speed=0.072000m/h.</desc>
<speed>0.020000</speed>
</trkpt>
<trkpt lat="55.704330" lon="26.086334">
<ele>139.341919</ele>
<time>2010-07-17T19:52:37Z</time>
<desc>lat.=55.704330, lon.=26.086334, Alt.=139.341919m. Speed=0.036000m/h.</desc>
<speed>0.010000</speed>
</trkpt>
<trkpt lat="55.704330" lon="26.086334">
<ele>139.349731</ele>
<time>2010-07-17T19:52:38Z</time>
<desc>lat.=55.704330, lon.=26.086334, Alt.=139.349731m. Speed=0.072000m/h.</desc>
<speed>0.020000</speed>
</trkpt>
<trkpt lat="55.704330" lon="26.086334">
<ele>139.361450</ele>
<time>2010-07-17T19:52:39Z</time>
<desc>lat.=55.704330, lon.=26.086334, Alt.=139.361450m. Speed=0.036000m/h.</desc>
<speed>0.010000</speed>
</trkpt>
<trkpt lat="55.704330" lon="26.086334">
<ele>139.369263</ele>
<time>2010-07-17T19:52:40Z</time>
<desc>lat.=55.704330, lon.=26.086334, Alt.=139.369263m. Speed=0.072000m/h.</desc>
<speed>0.020000</speed>
</trkpt>
<trkpt lat="55.704330" lon="26.086334">
<ele>139.377075</ele>
<time>2010-07-17T19:52:41Z</time>
<desc>lat.=55.704330, lon.=26.086334, Alt.=139.377075m. Speed=0.108000m/h.</desc>
<speed>0.030000</speed>
</trkpt>
<trkpt lat="55.704330" lon="26.086334">
<ele>139.384888</ele>
<time>2010-07-17T19:52:42Z</time>
<desc>lat.=55.704330, lon.=26.086334, Alt.=139.384888m. Speed=0.036000m/h.</desc>
<speed>0.010000</speed>
</trkpt>
<trkpt lat="55.704330" lon="26.086334">
<ele>139.388794</ele>
<time>2010-07-17T19:52:43Z</time>
<desc>lat.=55.704330, lon.=26.086334, Alt.=139.388794m. Speed=0.036000m/h.</desc>
<speed>0.010000</speed>
</trkpt>
<trkpt lat="55.704330" lon="26.086334">
<ele>139.400513</ele>
<time>2010-07-17T19:52:44Z</time>
<desc>lat.=55.704330, lon.=26.086334, Alt.=139.400513m. Speed=0.072000m/h.</desc>
<speed>0.020000</speed>
</trkpt>
<trkpt lat="55.704330" lon="26.086334">
<ele>139.408325</ele>
<time>2010-07-17T19:52:45Z</time>
<desc>lat.=55.704330, lon.=26.086334, Alt.=139.408325m. Speed=0.036000m/h.</desc>
<speed>0.010000</speed>
</trkpt>
<trkpt lat="55.704330" lon="26.086334">
<ele>139.412231</ele>
<time>2010-07-17T19:52:46Z</time>
<desc>lat.=55.704330, lon.=26.086334, Alt.=139.412231m. Speed=0.072000m/h.</desc>
<speed>0.020000</speed>
</trkpt>
<trkpt lat="55.704330" lon="26.086334">
<ele>139.416138</ele>
<time>2010-07-17T19:52:47Z</time>
<desc>lat.=55.704330, lon.=26.086334, Alt.=139.416138m. Speed=0.000000m/h.</desc>
<speed>0.000000</speed>
</trkpt>
<trkpt lat="55.704330" lon="26.086334">
<ele>139.423950</ele>
<time>2010-07-17T19:52:48Z</time>
<desc>lat.=55.704330, lon.=26.086334, Alt.=139.423950m. Speed=0.000000m/h.</desc>
<speed>0.000000</speed>
</trkpt>
<trkpt lat="55.704330" lon="26.086334">
<ele>139.431763</ele>
<time>2010-07-17T19:52:49Z</time>
<desc>lat.=55.704330, lon.=26.086334, Alt.=139.431763m. Speed=0.036000m/h.</desc>
<speed>0.010000</speed>
</trkpt>
<trkpt lat="55.704330" lon="26.086334">
<ele>139.439575</ele>
<time>2010-07-17T19:52:50Z</time>
<desc>lat.=55.704330, lon.=26.086334, Alt.=139.439575m. Speed=0.000000m/h.</desc>
<speed>0.000000</speed>
</trkpt>
<trkpt lat="55.704330" lon="26.086334">
<ele>139.447388</ele>
<time>2010-07-17T19:52:51Z</time>
<desc>lat.=55.704330, lon.=26.086334, Alt.=139.447388m. Speed=0.000000m/h.</desc>
<speed>0.000000</speed>
</trkpt>
<trkpt lat="55.704330" lon="26.086334">
<ele>139.455200</ele>
<time>2010-07-17T19:52:52Z</time>
<desc>lat.=55.704330, lon.=26.086334, Alt.=139.455200m. Speed=0.036000m/h.</desc>
<speed>0.010000</speed>
</trkpt>
<trkpt lat="55.704330" lon="26.086334">
<ele>139.463013</ele>
<time>2010-07-17T19:52:53Z</time>
<desc>lat.=55.704330, lon.=26.086334, Alt.=139.463013m. Speed=0.108000m/h.</desc>
<speed>0.030000</speed>
</trkpt>
<trkpt lat="55.704330" lon="26.086334">
<ele>139.470825</ele>
<time>2010-07-17T19:52:54Z</time>
<desc>lat.=55.704330, lon.=26.086334, Alt.=139.470825m. Speed=0.072000m/h.</desc>
<speed>0.020000</speed>
</trkpt>
<trkpt lat="55.704330" lon="26.086334">
<ele>139.474731</ele>
<time>2010-07-17T19:52:55Z</time>
<desc>lat.=55.704330, lon.=26.086334, Alt.=139.474731m. Speed=0.036000m/h.</desc>
<speed>0.010000</speed>
</trkpt>
<trkpt lat="55.704330" lon="26.086334">
<ele>139.474731</ele>
<time>2010-07-17T19:52:56Z</time>
<desc>lat.=55.704330, lon.=26.086334, Alt.=139.474731m. Speed=0.036000m/h.</desc>
<speed>0.010000</speed>
</trkpt>
<trkpt lat="55.704330" lon="26.086334">
<ele>139.478638</ele>
<time>2010-07-17T19:52:57Z</time>
<desc>lat.=55.704330, lon.=26.086334, Alt.=139.478638m. Speed=0.000000m/h.</desc>
<speed>0.000000</speed>
</trkpt>
<trkpt lat="55.704330" lon="26.086334">
<ele>139.482544</ele>
<time>2010-07-17T19:52:58Z</time>
<desc>lat.=55.704330, lon.=26.086334, Alt.=139.482544m. Speed=0.036000m/h.</desc>
<speed>0.010000</speed>
</trkpt>
<trkpt lat="55.704330" lon="26.086334">
<ele>139.486450</ele>
<time>2010-07-17T19:52:59Z</time>
<desc>lat.=55.704330, lon.=26.086334, Alt.=139.486450m. Speed=0.000000m/h.</desc>
<speed>0.000000</speed>
</trkpt>
<trkpt lat="55.704330" lon="26.086334">
<ele>139.486450</ele>
<time>2010-07-17T19:53:00Z</time>
<desc>lat.=55.704330, lon.=26.086334, Alt.=139.486450m. Speed=0.036000m/h.</desc>
<speed>0.010000</speed>
</trkpt>
<trkpt lat="55.704330" lon="26.086334">
<ele>139.490356</ele>
<time>2010-07-17T19:53:01Z</time>
<desc>lat.=55.704330, lon.=26.086334, Alt.=139.490356m. Speed=0.000000m/h.</desc>
<speed>0.000000</speed>
</trkpt>
<trkpt lat="55.704330" lon="26.086334">
<ele>139.494263</ele>
<time>2010-07-17T19:53:02Z</time>
<desc>lat.=55.704330, lon.=26.086334, Alt.=139.494263m. Speed=0.036000m/h.</desc>
<speed>0.010000</speed>
</trkpt>
<trkpt lat="55.704330" lon="26.086334">
<ele>139.502075</ele>
<time>2010-07-17T19:53:03Z</time>
<desc>lat.=55.704330, lon.=26.086334, Alt.=139.502075m. Speed=0.000000m/h.</desc>
<speed>0.000000</speed>
</trkpt>
<trkpt lat="55.704330" lon="26.086334">
<ele>139.505981</ele>
<time>2010-07-17T19:53:04Z</time>
<desc>lat.=55.704330, lon.=26.086334, Alt.=139.505981m. Speed=0.036000m/h.</desc>
<speed>0.010000</speed>
</trkpt>
<trkpt lat="55.704330" lon="26.086334">
<ele>139.505981</ele>
<time>2010-07-17T19:53:05Z</time>
<desc>lat.=55.704330, lon.=26.086334, Alt.=139.505981m. Speed=0.072000m/h.</desc>
<speed>0.020000</speed>
</trkpt>
<trkpt lat="55.704330" lon="26.086334">
<ele>139.505981</ele>
<time>2010-07-17T19:53:06Z</time>
<desc>lat.=55.704330, lon.=26.086334, Alt.=139.505981m. Speed=0.108000m/h.</desc>
<speed>0.030000</speed>
</trkpt>
<trkpt lat="55.704330" lon="26.086334">
<ele>139.513794</ele>
<time>2010-07-17T19:53:07Z</time>
<desc>lat.=55.704330, lon.=26.086334, Alt.=139.513794m. Speed=0.036000m/h.</desc>
<speed>0.010000</speed>
</trkpt>
<trkpt lat="55.704330" lon="26.086334">
<ele>139.517700</ele>
<time>2010-07-17T19:53:08Z</time>
<desc>lat.=55.704330, lon.=26.086334, Alt.=139.517700m. Speed=0.072000m/h.</desc>
<speed>0.020000</speed>
</trkpt>
<trkpt lat="55.704330" lon="26.086334">
<ele>139.525513</ele>
<time>2010-07-17T19:53:09Z</time>
<desc>lat.=55.704330, lon.=26.086334, Alt.=139.525513m. Speed=0.072000m/h.</desc>
<speed>0.020000</speed>
</trkpt>
<trkpt lat="55.704330" lon="26.086334">
<ele>139.537231</ele>
<time>2010-07-17T19:53:10Z</time>
<desc>lat.=55.704330, lon.=26.086334, Alt.=139.537231m. Speed=0.180000m/h.</desc>
<speed>0.050000</speed>
</trkpt>
<trkpt lat="55.704330" lon="26.086334">
<ele>139.552856</ele>
<time>2010-07-17T19:53:11Z</time>
<desc>lat.=55.704330, lon.=26.086334, Alt.=139.552856m. Speed=0.144000m/h.</desc>
<speed>0.040000</speed>
</trkpt>
<trkpt lat="55.704330" lon="26.086334">
<ele>139.568481</ele>
<time>2010-07-17T19:53:12Z</time>
<desc>lat.=55.704330, lon.=26.086334, Alt.=139.568481m. Speed=0.108000m/h.</desc>
<speed>0.030000</speed>
</trkpt>
<trkpt lat="55.704330" lon="26.086336">
<ele>139.584106</ele>
<time>2010-07-17T19:53:13Z</time>
<desc>lat.=55.704330, lon.=26.086336, Alt.=139.584106m. Speed=0.036000m/h.</desc>
<speed>0.010000</speed>
</trkpt>
<trkpt lat="55.704330" lon="26.086336">
<ele>139.595825</ele>
<time>2010-07-17T19:53:14Z</time>
<desc>lat.=55.704330, lon.=26.086336, Alt.=139.595825m. Speed=0.108000m/h.</desc>
<speed>0.030000</speed>
</trkpt>
<trkpt lat="55.704330" lon="26.086336">
<ele>139.603638</ele>
<time>2010-07-17T19:53:15Z</time>
<desc>lat.=55.704330, lon.=26.086336, Alt.=139.603638m. Speed=0.000000m/h.</desc>
<speed>0.000000</speed>
</trkpt>
<trkpt lat="55.704330" lon="26.086336">
<ele>139.619263</ele>
<time>2010-07-17T19:53:16Z</time>
<desc>lat.=55.704330, lon.=26.086336, Alt.=139.619263m. Speed=0.072000m/h.</desc>
<speed>0.020000</speed>
</trkpt>
<trkpt lat="55.704330" lon="26.086336">
<ele>139.627075</ele>
<time>2010-07-17T19:53:17Z</time>
<desc>lat.=55.704330, lon.=26.086336, Alt.=139.627075m. Speed=0.072000m/h.</desc>
<speed>0.020000</speed>
</trkpt>
<trkpt lat="55.704330" lon="26.086336">
<ele>139.630981</ele>
<time>2010-07-17T19:53:18Z</time>
<desc>lat.=55.704330, lon.=26.086336, Alt.=139.630981m. Speed=0.000000m/h.</desc>
<speed>0.000000</speed>
</trkpt>
<trkpt lat="55.704330" lon="26.086336">
<ele>139.634888</ele>
<time>2010-07-17T19:53:19Z</time>
<desc>lat.=55.704330, lon.=26.086336, Alt.=139.634888m. Speed=0.036000m/h.</desc>
<speed>0.010000</speed>
</trkpt>
<trkpt lat="55.704330" lon="26.086336">
<ele>139.642700</ele>
<time>2010-07-17T19:53:20Z</time>
<desc>lat.=55.704330, lon.=26.086336, Alt.=139.642700m. Speed=0.072000m/h.</desc>
<speed>0.020000</speed>
</trkpt>
<trkpt lat="55.704330" lon="26.086336">
<ele>139.650513</ele>
<time>2010-07-17T19:53:21Z</time>
<desc>lat.=55.704330, lon.=26.086336, Alt.=139.650513m. Speed=0.072000m/h.</desc>
<speed>0.020000</speed>
</trkpt>
<trkpt lat="55.704334" lon="26.086336">
<ele>139.662231</ele>
<time>2010-07-17T19:53:22Z</time>
<desc>lat.=55.704334, lon.=26.086336, Alt.=139.662231m. Speed=0.072000m/h.</desc>
<speed>0.020000</speed>
</trkpt>
<trkpt lat="55.704334" lon="26.086336">
<ele>139.670044</ele>
<time>2010-07-17T19:53:23Z</time>
<desc>lat.=55.704334, lon.=26.086336, Alt.=139.670044m. Speed=0.072000m/h.</desc>
<speed>0.020000</speed>
</trkpt>
<trkpt lat="55.704334" lon="26.086336">
<ele>139.677856</ele>
<time>2010-07-17T19:53:24Z</time>
<desc>lat.=55.704334, lon.=26.086336, Alt.=139.677856m. Speed=0.144000m/h.</desc>
<speed>0.040000</speed>
</trkpt>
<trkpt lat="55.704334" lon="26.086338">
<ele>139.693481</ele>
<time>2010-07-17T19:53:25Z</time>
<desc>lat.=55.704334, lon.=26.086338, Alt.=139.693481m. Speed=0.108000m/h.</desc>
<speed>0.030000</speed>
</trkpt>
<trkpt lat="55.704334" lon="26.086338">
<ele>139.705200</ele>
<time>2010-07-17T19:53:26Z</time>
<desc>lat.=55.704334, lon.=26.086338, Alt.=139.705200m. Speed=0.072000m/h.</desc>
<speed>0.020000</speed>
</trkpt>
<trkpt lat="55.704334" lon="26.086338">
<ele>139.716919</ele>
<time>2010-07-17T19:53:27Z</time>
<desc>lat.=55.704334, lon.=26.086338, Alt.=139.716919m. Speed=0.036000m/h.</desc>
<speed>0.010000</speed>
</trkpt>
<trkpt lat="55.704334" lon="26.086338">
<ele>139.728638</ele>
<time>2010-07-17T19:53:28Z</time>
<desc>lat.=55.704334, lon.=26.086338, Alt.=139.728638m. Speed=0.036000m/h.</desc>
<speed>0.010000</speed>
</trkpt>
<trkpt lat="55.704334" lon="26.086338">
<ele>139.752075</ele>
<time>2010-07-17T19:53:29Z</time>
<desc>lat.=55.704334, lon.=26.086338, Alt.=139.752075m. Speed=0.036000m/h.</desc>
<speed>0.010000</speed>
</trkpt>
<trkpt lat="55.704334" lon="26.086338">
<ele>139.767700</ele>
<time>2010-07-17T19:53:30Z</time>
<desc>lat.=55.704334, lon.=26.086338, Alt.=139.767700m. Speed=0.108000m/h.</desc>
<speed>0.030000</speed>
</trkpt>
<trkpt lat="55.704334" lon="26.086338">
<ele>139.783325</ele>
<time>2010-07-17T19:53:31Z</time>
<desc>lat.=55.704334, lon.=26.086338, Alt.=139.783325m. Speed=0.072000m/h.</desc>
<speed>0.020000</speed>
</trkpt>
<trkpt lat="55.704334" lon="26.086338">
<ele>139.795044</ele>
<time>2010-07-17T19:53:32Z</time>
<desc>lat.=55.704334, lon.=26.086338, Alt.=139.795044m. Speed=0.072000m/h.</desc>
<speed>0.020000</speed>
</trkpt>
<trkpt lat="55.704334" lon="26.086338">
<ele>139.818481</ele>
<time>2010-07-17T19:53:33Z</time>
<desc>lat.=55.704334, lon.=26.086338, Alt.=139.818481m. Speed=0.000000m/h.</desc>
<speed>0.000000</speed>
</trkpt>
<trkpt lat="55.704334" lon="26.086338">
<ele>139.834106</ele>
<time>2010-07-17T19:53:34Z</time>
<desc>lat.=55.704334, lon.=26.086338, Alt.=139.834106m. Speed=0.108000m/h.</desc>
<speed>0.030000</speed>
</trkpt>
<trkpt lat="55.704334" lon="26.086338">
<ele>139.841919</ele>
<time>2010-07-17T19:53:35Z</time>
<desc>lat.=55.704334, lon.=26.086338, Alt.=139.841919m. Speed=0.036000m/h.</desc>
<speed>0.010000</speed>
</trkpt>
<trkpt lat="55.704334" lon="26.086338">
<ele>139.845825</ele>
<time>2010-07-17T19:53:36Z</time>
<desc>lat.=55.704334, lon.=26.086338, Alt.=139.845825m. Speed=0.072000m/h.</desc>
<speed>0.020000</speed>
</trkpt>
<trkpt lat="55.704334" lon="26.086338">
<ele>139.849731</ele>
<time>2010-07-17T19:53:37Z</time>
<desc>lat.=55.704334, lon.=26.086338, Alt.=139.849731m. Speed=0.036000m/h.</desc>
<speed>0.010000</speed>
</trkpt>
<trkpt lat="55.704334" lon="26.086338">
<ele>139.853638</ele>
<time>2010-07-17T19:53:38Z</time>
<desc>lat.=55.704334, lon.=26.086338, Alt.=139.853638m. Speed=0.000000m/h.</desc>
<speed>0.000000</speed>
</trkpt>
<trkpt lat="55.704334" lon="26.086338">
<ele>139.857544</ele>
<time>2010-07-17T19:53:39Z</time>
<desc>lat.=55.704334, lon.=26.086338, Alt.=139.857544m. Speed=0.108000m/h.</desc>
<speed>0.030000</speed>
</trkpt>
<trkpt lat="55.704334" lon="26.086338">
<ele>139.853638</ele>
<time>2010-07-17T19:53:40Z</time>
<desc>lat.=55.704334, lon.=26.086338, Alt.=139.853638m. Speed=0.108000m/h.</desc>
<speed>0.030000</speed>
</trkpt>
<trkpt lat="55.704334" lon="26.086340">
<ele>139.853638</ele>
<time>2010-07-17T19:53:41Z</time>
<desc>lat.=55.704334, lon.=26.086340, Alt.=139.853638m. Speed=0.072000m/h.</desc>
<speed>0.020000</speed>
</trkpt>
<trkpt lat="55.704334" lon="26.086340">
<ele>139.857544</ele>
<time>2010-07-17T19:53:42Z</time>
<desc>lat.=55.704334, lon.=26.086340, Alt.=139.857544m. Speed=0.072000m/h.</desc>
<speed>0.020000</speed>
</trkpt>
<trkpt lat="55.704334" lon="26.086340">
<ele>139.857544</ele>
<time>2010-07-17T19:53:43Z</time>
<desc>lat.=55.704334, lon.=26.086340, Alt.=139.857544m. Speed=0.000000m/h.</desc>
<speed>0.000000</speed>
</trkpt>
<trkpt lat="55.704334" lon="26.086340">
<ele>139.865356</ele>
<time>2010-07-17T19:53:44Z</time>
<desc>lat.=55.704334, lon.=26.086340, Alt.=139.865356m. Speed=0.072000m/h.</desc>
<speed>0.020000</speed>
</trkpt>
<trkpt lat="55.704334" lon="26.086340">
<ele>139.880981</ele>
<time>2010-07-17T19:53:45Z</time>
<desc>lat.=55.704334, lon.=26.086340, Alt.=139.880981m. Speed=0.072000m/h.</desc>
<speed>0.020000</speed>
</trkpt>
<trkpt lat="55.704334" lon="26.086340">
<ele>139.892700</ele>
<time>2010-07-17T19:53:46Z</time>
<desc>lat.=55.704334, lon.=26.086340, Alt.=139.892700m. Speed=0.072000m/h.</desc>
<speed>0.020000</speed>
</trkpt>
<trkpt lat="55.704334" lon="26.086340">
<ele>139.888794</ele>
<time>2010-07-17T19:53:47Z</time>
<desc>lat.=55.704334, lon.=26.086340, Alt.=139.888794m. Speed=0.072000m/h.</desc>
<speed>0.020000</speed>
</trkpt>
<trkpt lat="55.704334" lon="26.086340">
<ele>139.888794</ele>
<time>2010-07-17T19:53:48Z</time>
<desc>lat.=55.704334, lon.=26.086340, Alt.=139.888794m. Speed=0.000000m/h.</desc>
<speed>0.000000</speed>
</trkpt>
<trkpt lat="55.704334" lon="26.086340">
<ele>139.892700</ele>
<time>2010-07-17T19:53:49Z</time>
<desc>lat.=55.704334, lon.=26.086340, Alt.=139.892700m. Speed=0.036000m/h.</desc>
<speed>0.010000</speed>
</trkpt>
<trkpt lat="55.704334" lon="26.086340">
<ele>139.892700</ele>
<time>2010-07-17T19:53:50Z</time>
<desc>lat.=55.704334, lon.=26.086340, Alt.=139.892700m. Speed=0.072000m/h.</desc>
<speed>0.020000</speed>
</trkpt>
<trkpt lat="55.704334" lon="26.086340">
<ele>139.900513</ele>
<time>2010-07-17T19:53:51Z</time>
<desc>lat.=55.704334, lon.=26.086340, Alt.=139.900513m. Speed=0.108000m/h.</desc>
<speed>0.030000</speed>
</trkpt>
<trkpt lat="55.704334" lon="26.086340">
<ele>139.904419</ele>
<time>2010-07-17T19:53:52Z</time>
<desc>lat.=55.704334, lon.=26.086340, Alt.=139.904419m. Speed=0.072000m/h.</desc>
<speed>0.020000</speed>
</trkpt>
<trkpt lat="55.704334" lon="26.086340">
<ele>139.904419</ele>
<time>2010-07-17T19:53:53Z</time>
<desc>lat.=55.704334, lon.=26.086340, Alt.=139.904419m. Speed=0.108000m/h.</desc>
<speed>0.030000</speed>
</trkpt>
<trkpt lat="55.704334" lon="26.086342">
<ele>139.912231</ele>
<time>2010-07-17T19:53:54Z</time>
<desc>lat.=55.704334, lon.=26.086342, Alt.=139.912231m. Speed=0.072000m/h.</desc>
<speed>0.020000</speed>
</trkpt>
<trkpt lat="55.704334" lon="26.086342">
<ele>139.920044</ele>
<time>2010-07-17T19:53:55Z</time>
<desc>lat.=55.704334, lon.=26.086342, Alt.=139.920044m. Speed=0.072000m/h.</desc>
<speed>0.020000</speed>
</trkpt>
<trkpt lat="55.704334" lon="26.086342">
<ele>139.923950</ele>
<time>2010-07-17T19:53:56Z</time>
<desc>lat.=55.704334, lon.=26.086342, Alt.=139.923950m. Speed=0.072000m/h.</desc>
<speed>0.020000</speed>
</trkpt>
<trkpt lat="55.704334" lon="26.086342">
<ele>139.920044</ele>
<time>2010-07-17T19:53:57Z</time>
<desc>lat.=55.704334, lon.=26.086342, Alt.=139.920044m. Speed=0.072000m/h.</desc>
<speed>0.020000</speed>
</trkpt>
<trkpt lat="55.704334" lon="26.086342">
<ele>139.923950</ele>
<time>2010-07-17T19:53:58Z</time>
<desc>lat.=55.704334, lon.=26.086342, Alt.=139.923950m. Speed=0.144000m/h.</desc>
<speed>0.040000</speed>
</trkpt>
<trkpt lat="55.704334" lon="26.086342">
<ele>139.927856</ele>
<time>2010-07-17T19:53:59Z</time>
<desc>lat.=55.704334, lon.=26.086342, Alt.=139.927856m. Speed=0.144000m/h.</desc>
<speed>0.040000</speed>
</trkpt>
<trkpt lat="55.704334" lon="26.086342">
<ele>139.931763</ele>
<time>2010-07-17T19:54:00Z</time>
<desc>lat.=55.704334, lon.=26.086342, Alt.=139.931763m. Speed=0.036000m/h.</desc>
<speed>0.010000</speed>
</trkpt>
<trkpt lat="55.704334" lon="26.086342">
<ele>139.927856</ele>
<time>2010-07-17T19:54:01Z</time>
<desc>lat.=55.704334, lon.=26.086342, Alt.=139.927856m. Speed=0.000000m/h.</desc>
<speed>0.000000</speed>
</trkpt>
<trkpt lat="55.704334" lon="26.086342">
<ele>139.927856</ele>
<time>2010-07-17T19:54:02Z</time>
<desc>lat.=55.704334, lon.=26.086342, Alt.=139.927856m. Speed=0.000000m/h.</desc>
<speed>0.000000</speed>
</trkpt>
<trkpt lat="55.704334" lon="26.086342">
<ele>139.931763</ele>
<time>2010-07-17T19:54:03Z</time>
<desc>lat.=55.704334, lon.=26.086342, Alt.=139.931763m. Speed=0.000000m/h.</desc>
<speed>0.000000</speed>
</trkpt>
<trkpt lat="55.704334" lon="26.086342">
<ele>139.935669</ele>
<time>2010-07-17T19:54:04Z</time>
<desc>lat.=55.704334, lon.=26.086342, Alt.=139.935669m. Speed=0.036000m/h.</desc>
<speed>0.010000</speed>
</trkpt>
<trkpt lat="55.704334" lon="26.086342">
<ele>139.943481</ele>
<time>2010-07-17T19:54:05Z</time>
<desc>lat.=55.704334, lon.=26.086342, Alt.=139.943481m. Speed=0.000000m/h.</desc>
<speed>0.000000</speed>
</trkpt>
<trkpt lat="55.704334" lon="26.086342">
<ele>139.943481</ele>
<time>2010-07-17T19:54:06Z</time>
<desc>lat.=55.704334, lon.=26.086342, Alt.=139.943481m. Speed=0.072000m/h.</desc>
<speed>0.020000</speed>
</trkpt>
<trkpt lat="55.704334" lon="26.086342">
<ele>139.947388</ele>
<time>2010-07-17T19:54:07Z</time>
<desc>lat.=55.704334, lon.=26.086342, Alt.=139.947388m. Speed=0.072000m/h.</desc>
<speed>0.020000</speed>
</trkpt>
<trkpt lat="55.704334" lon="26.086342">
<ele>139.955200</ele>
<time>2010-07-17T19:54:08Z</time>
<desc>lat.=55.704334, lon.=26.086342, Alt.=139.955200m. Speed=0.108000m/h.</desc>
<speed>0.030000</speed>
</trkpt>
<trkpt lat="55.704334" lon="26.086342">
<ele>139.959106</ele>
<time>2010-07-17T19:54:09Z</time>
<desc>lat.=55.704334, lon.=26.086342, Alt.=139.959106m. Speed=0.072000m/h.</desc>
<speed>0.020000</speed>
</trkpt>
<trkpt lat="55.704334" lon="26.086342">
<ele>139.963013</ele>
<time>2010-07-17T19:54:10Z</time>
<desc>lat.=55.704334, lon.=26.086342, Alt.=139.963013m. Speed=0.036000m/h.</desc>
<speed>0.010000</speed>
</trkpt>
<trkpt lat="55.704334" lon="26.086342">
<ele>139.970825</ele>
<time>2010-07-17T19:54:11Z</time>
<desc>lat.=55.704334, lon.=26.086342, Alt.=139.970825m. Speed=0.036000m/h.</desc>
<speed>0.010000</speed>
</trkpt>
<trkpt lat="55.704334" lon="26.086342">
<ele>139.970825</ele>
<time>2010-07-17T19:54:12Z</time>
<desc>lat.=55.704334, lon.=26.086342, Alt.=139.970825m. Speed=0.072000m/h.</desc>
<speed>0.020000</speed>
</trkpt>
<trkpt lat="55.704334" lon="26.086344">
<ele>139.966919</ele>
<time>2010-07-17T19:54:13Z</time>
<desc>lat.=55.704334, lon.=26.086344, Alt.=139.966919m. Speed=0.072000m/h.</desc>
<speed>0.020000</speed>
</trkpt>
<trkpt lat="55.704334" lon="26.086344">
<ele>139.966919</ele>
<time>2010-07-17T19:54:14Z</time>
<desc>lat.=55.704334, lon.=26.086344, Alt.=139.966919m. Speed=0.108000m/h.</desc>
<speed>0.030000</speed>
</trkpt>
<trkpt lat="55.704334" lon="26.086344">
<ele>139.970825</ele>
<time>2010-07-17T19:54:15Z</time>
<desc>lat.=55.704334, lon.=26.086344, Alt.=139.970825m. Speed=0.072000m/h.</desc>
<speed>0.020000</speed>
</trkpt>
<trkpt lat="55.704334" lon="26.086344">
<ele>139.970825</ele>
<time>2010-07-17T19:54:16Z</time>
<desc>lat.=55.704334, lon.=26.086344, Alt.=139.970825m. Speed=0.036000m/h.</desc>
<speed>0.010000</speed>
</trkpt>
<trkpt lat="55.704334" lon="26.086344">
<ele>139.970825</ele>
<time>2010-07-17T19:54:17Z</time>
<desc>lat.=55.704334, lon.=26.086344, Alt.=139.970825m. Speed=0.036000m/h.</desc>
<speed>0.010000</speed>
</trkpt>
<trkpt lat="55.704334" lon="26.086344">
<ele>139.970825</ele>
<time>2010-07-17T19:54:18Z</time>
<desc>lat.=55.704334, lon.=26.086344, Alt.=139.970825m. Speed=0.036000m/h.</desc>
<speed>0.010000</speed>
</trkpt>
<trkpt lat="55.704334" lon="26.086344">
<ele>139.966919</ele>
<time>2010-07-17T19:54:19Z</time>
<desc>lat.=55.704334, lon.=26.086344, Alt.=139.966919m. Speed=0.072000m/h.</desc>
<speed>0.020000</speed>
</trkpt>
<trkpt lat="55.704334" lon="26.086344">
<ele>139.966919</ele>
<time>2010-07-17T19:54:20Z</time>
<desc>lat.=55.704334, lon.=26.086344, Alt.=139.966919m. Speed=0.036000m/h.</desc>
<speed>0.010000</speed>
</trkpt>
<trkpt lat="55.704334" lon="26.086344">
<ele>139.963013</ele>
<time>2010-07-17T19:54:21Z</time>
<desc>lat.=55.704334, lon.=26.086344, Alt.=139.963013m. Speed=0.000000m/h.</desc>
<speed>0.000000</speed>
</trkpt>
<trkpt lat="55.704334" lon="26.086344">
<ele>139.966919</ele>
<time>2010-07-17T19:54:22Z</time>
<desc>lat.=55.704334, lon.=26.086344, Alt.=139.966919m. Speed=0.036000m/h.</desc>
<speed>0.010000</speed>
</trkpt>
<trkpt lat="55.704334" lon="26.086344">
<ele>139.966919</ele>
<time>2010-07-17T19:54:23Z</time>
<desc>lat.=55.704334, lon.=26.086344, Alt.=139.966919m. Speed=0.072000m/h.</desc>
<speed>0.020000</speed>
</trkpt>
<trkpt lat="55.704334" lon="26.086344">
<ele>139.966919</ele>
<time>2010-07-17T19:54:24Z</time>
<desc>lat.=55.704334, lon.=26.086344, Alt.=139.966919m. Speed=0.072000m/h.</desc>
<speed>0.020000</speed>
</trkpt>
<trkpt lat="55.704334" lon="26.086344">
<ele>139.966919</ele>
<time>2010-07-17T19:54:25Z</time>
<desc>lat.=55.704334, lon.=26.086344, Alt.=139.966919m. Speed=0.000000m/h.</desc>
<speed>0.000000</speed>
</trkpt>
<trkpt lat="55.704334" lon="26.086344">
<ele>139.966919</ele>
<time>2010-07-17T19:54:26Z</time>
<desc>lat.=55.704334, lon.=26.086344, Alt.=139.966919m. Speed=0.036000m/h.</desc>
<speed>0.010000</speed>
</trkpt>
<trkpt lat="55.704334" lon="26.086344">
<ele>139.966919</ele>
<time>2010-07-17T19:54:27Z</time>
<desc>lat.=55.704334, lon.=26.086344, Alt.=139.966919m. Speed=0.036000m/h.</desc>
<speed>0.010000</speed>
</trkpt>
<trkpt lat="55.704334" lon="26.086344">
<ele>139.970825</ele>
<time>2010-07-17T19:54:28Z</time>
<desc>lat.=55.704334, lon.=26.086344, Alt.=139.970825m. Speed=0.108000m/h.</desc>
<speed>0.030000</speed>
</trkpt>
<trkpt lat="55.704334" lon="26.086344">
<ele>139.970825</ele>
<time>2010-07-17T19:54:29Z</time>
<desc>lat.=55.704334, lon.=26.086344, Alt.=139.970825m. Speed=0.072000m/h.</desc>
<speed>0.020000</speed>
</trkpt>
<trkpt lat="55.704334" lon="26.086344">
<ele>139.974731</ele>
<time>2010-07-17T19:54:30Z</time>
<desc>lat.=55.704334, lon.=26.086344, Alt.=139.974731m. Speed=0.072000m/h.</desc>
<speed>0.020000</speed>
</trkpt>
<trkpt lat="55.704334" lon="26.086344">
<ele>139.978638</ele>
<time>2010-07-17T19:54:31Z</time>
<desc>lat.=55.704334, lon.=26.086344, Alt.=139.978638m. Speed=0.072000m/h.</desc>
<speed>0.020000</speed>
</trkpt>
<trkpt lat="55.704334" lon="26.086344">
<ele>139.986450</ele>
<time>2010-07-17T19:54:32Z</time>
<desc>lat.=55.704334, lon.=26.086344, Alt.=139.986450m. Speed=0.072000m/h.</desc>
<speed>0.020000</speed>
</trkpt>
<trkpt lat="55.704334" lon="26.086344">
<ele>139.986450</ele>
<time>2010-07-17T19:54:33Z</time>
<desc>lat.=55.704334, lon.=26.086344, Alt.=139.986450m. Speed=0.144000m/h.</desc>
<speed>0.040000</speed>
</trkpt>
<trkpt lat="55.704334" lon="26.086344">
<ele>139.990356</ele>
<time>2010-07-17T19:54:34Z</time>
<desc>lat.=55.704334, lon.=26.086344, Alt.=139.990356m. Speed=0.180000m/h.</desc>
<speed>0.050000</speed>
</trkpt>
<trkpt lat="55.704334" lon="26.086344">
<ele>139.990356</ele>
<time>2010-07-17T19:54:35Z</time>
<desc>lat.=55.704334, lon.=26.086344, Alt.=139.990356m. Speed=0.108000m/h.</desc>
<speed>0.030000</speed>
</trkpt>
<trkpt lat="55.704334" lon="26.086344">
<ele>139.990356</ele>
<time>2010-07-17T19:54:36Z</time>
<desc>lat.=55.704334, lon.=26.086344, Alt.=139.990356m. Speed=0.072000m/h.</desc>
<speed>0.020000</speed>
</trkpt>
<trkpt lat="55.704330" lon="26.086344">
<ele>139.986450</ele>
<time>2010-07-17T19:54:37Z</time>
<desc>lat.=55.704330, lon.=26.086344, Alt.=139.986450m. Speed=0.036000m/h.</desc>
<speed>0.010000</speed>
</trkpt>
<trkpt lat="55.704330" lon="26.086344">
<ele>139.986450</ele>
<time>2010-07-17T19:54:38Z</time>
<desc>lat.=55.704330, lon.=26.086344, Alt.=139.986450m. Speed=0.072000m/h.</desc>
<speed>0.020000</speed>
</trkpt>
<trkpt lat="55.704330" lon="26.086344">
<ele>139.986450</ele>
<time>2010-07-17T19:54:39Z</time>
<desc>lat.=55.704330, lon.=26.086344, Alt.=139.986450m. Speed=0.108000m/h.</desc>
<speed>0.030000</speed>
</trkpt>
<trkpt lat="55.704330" lon="26.086344">
<ele>139.978638</ele>
<time>2010-07-17T19:54:40Z</time>
<desc>lat.=55.704330, lon.=26.086344, Alt.=139.978638m. Speed=0.036000m/h.</desc>
<speed>0.010000</speed>
</trkpt>
<trkpt lat="55.704330" lon="26.086344">
<ele>139.974731</ele>
<time>2010-07-17T19:54:41Z</time>
<desc>lat.=55.704330, lon.=26.086344, Alt.=139.974731m. Speed=0.108000m/h.</desc>
<speed>0.030000</speed>
</trkpt>
<trkpt lat="55.704330" lon="26.086344">
<ele>139.974731</ele>
<time>2010-07-17T19:54:42Z</time>
<desc>lat.=55.704330, lon.=26.086344, Alt.=139.974731m. Speed=0.108000m/h.</desc>
<speed>0.030000</speed>
</trkpt>
<trkpt lat="55.704330" lon="26.086344">
<ele>139.974731</ele>
<time>2010-07-17T19:54:43Z</time>
<desc>lat.=55.704330, lon.=26.086344, Alt.=139.974731m. Speed=0.108000m/h.</desc>
<speed>0.030000</speed>
</trkpt>
<trkpt lat="55.704330" lon="26.086344">
<ele>139.970825</ele>
<time>2010-07-17T19:54:44Z</time>
<desc>lat.=55.704330, lon.=26.086344, Alt.=139.970825m. Speed=0.036000m/h.</desc>
<speed>0.010000</speed>
</trkpt>
<trkpt lat="55.704330" lon="26.086344">
<ele>139.974731</ele>
<time>2010-07-17T19:54:45Z</time>
<desc>lat.=55.704330, lon.=26.086344, Alt.=139.974731m. Speed=0.072000m/h.</desc>
<speed>0.020000</speed>
</trkpt>
<trkpt lat="55.704330" lon="26.086344">
<ele>139.978638</ele>
<time>2010-07-17T19:54:46Z</time>
<desc>lat.=55.704330, lon.=26.086344, Alt.=139.978638m. Speed=0.036000m/h.</desc>
<speed>0.010000</speed>
</trkpt>
<trkpt lat="55.704330" lon="26.086344">
<ele>139.982544</ele>
<time>2010-07-17T19:54:47Z</time>
<desc>lat.=55.704330, lon.=26.086344, Alt.=139.982544m. Speed=0.000000m/h.</desc>
<speed>0.000000</speed>
</trkpt>
<trkpt lat="55.704330" lon="26.086344">
<ele>139.982544</ele>
<time>2010-07-17T19:54:48Z</time>
<desc>lat.=55.704330, lon.=26.086344, Alt.=139.982544m. Speed=0.036000m/h.</desc>
<speed>0.010000</speed>
</trkpt>
<trkpt lat="55.704330" lon="26.086344">
<ele>139.990356</ele>
<time>2010-07-17T19:54:49Z</time>
<desc>lat.=55.704330, lon.=26.086344, Alt.=139.990356m. Speed=0.108000m/h.</desc>
<speed>0.030000</speed>
</trkpt>
<trkpt lat="55.704330" lon="26.086344">
<ele>139.998169</ele>
<time>2010-07-17T19:54:50Z</time>
<desc>lat.=55.704330, lon.=26.086344, Alt.=139.998169m. Speed=0.036000m/h.</desc>
<speed>0.010000</speed>
</trkpt>
<trkpt lat="55.704330" lon="26.086344">
<ele>140.005981</ele>
<time>2010-07-17T19:54:51Z</time>
<desc>lat.=55.704330, lon.=26.086344, Alt.=140.005981m. Speed=0.036000m/h.</desc>
<speed>0.010000</speed>
</trkpt>
<trkpt lat="55.704330" lon="26.086344">
<ele>140.013794</ele>
<time>2010-07-17T19:54:52Z</time>
<desc>lat.=55.704330, lon.=26.086344, Alt.=140.013794m. Speed=0.108000m/h.</desc>
<speed>0.030000</speed>
</trkpt>
<trkpt lat="55.704330" lon="26.086344">
<ele>140.017700</ele>
<time>2010-07-17T19:54:53Z</time>
<desc>lat.=55.704330, lon.=26.086344, Alt.=140.017700m. Speed=0.072000m/h.</desc>
<speed>0.020000</speed>
</trkpt>
<trkpt lat="55.704330" lon="26.086344">
<ele>140.029419</ele>
<time>2010-07-17T19:54:54Z</time>
<desc>lat.=55.704330, lon.=26.086344, Alt.=140.029419m. Speed=0.036000m/h.</desc>
<speed>0.010000</speed>
</trkpt>
<trkpt lat="55.704330" lon="26.086344">
<ele>140.041138</ele>
<time>2010-07-17T19:54:55Z</time>
<desc>lat.=55.704330, lon.=26.086344, Alt.=140.041138m. Speed=0.036000m/h.</desc>
<speed>0.010000</speed>
</trkpt>
<trkpt lat="55.704330" lon="26.086344">
<ele>140.052856</ele>
<time>2010-07-17T19:54:56Z</time>
<desc>lat.=55.704330, lon.=26.086344, Alt.=140.052856m. Speed=0.036000m/h.</desc>
<speed>0.010000</speed>
</trkpt>
<trkpt lat="55.704330" lon="26.086344">
<ele>140.064575</ele>
<time>2010-07-17T19:54:57Z</time>
<desc>lat.=55.704330, lon.=26.086344, Alt.=140.064575m. Speed=0.036000m/h.</desc>
<speed>0.010000</speed>
</trkpt>
<trkpt lat="55.704330" lon="26.086344">
<ele>140.076294</ele>
<time>2010-07-17T19:54:58Z</time>
<desc>lat.=55.704330, lon.=26.086344, Alt.=140.076294m. Speed=0.000000m/h.</desc>
<speed>0.000000</speed>
</trkpt>
<trkpt lat="55.704330" lon="26.086344">
<ele>140.088013</ele>
<time>2010-07-17T19:54:59Z</time>
<desc>lat.=55.704330, lon.=26.086344, Alt.=140.088013m. Speed=0.036000m/h.</desc>
<speed>0.010000</speed>
</trkpt>
<trkpt lat="55.704330" lon="26.086344">
<ele>140.095825</ele>
<time>2010-07-17T19:55:00Z</time>
<desc>lat.=55.704330, lon.=26.086344, Alt.=140.095825m. Speed=0.072000m/h.</desc>
<speed>0.020000</speed>
</trkpt>
<trkpt lat="55.704330" lon="26.086344">
<ele>140.107544</ele>
<time>2010-07-17T19:55:01Z</time>
<desc>lat.=55.704330, lon.=26.086344, Alt.=140.107544m. Speed=0.000000m/h.</desc>
<speed>0.000000</speed>
</trkpt>
<trkpt lat="55.704330" lon="26.086344">
<ele>140.115356</ele>
<time>2010-07-17T19:55:02Z</time>
<desc>lat.=55.704330, lon.=26.086344, Alt.=140.115356m. Speed=0.072000m/h.</desc>
<speed>0.020000</speed>
</trkpt>
<trkpt lat="55.704330" lon="26.086342">
<ele>140.127075</ele>
<time>2010-07-17T19:55:03Z</time>
<desc>lat.=55.704330, lon.=26.086342, Alt.=140.127075m. Speed=0.036000m/h.</desc>
<speed>0.010000</speed>
</trkpt>
<trkpt lat="55.704330" lon="26.086342">
<ele>140.142700</ele>
<time>2010-07-17T19:55:04Z</time>
<desc>lat.=55.704330, lon.=26.086342, Alt.=140.142700m. Speed=0.108000m/h.</desc>
<speed>0.030000</speed>
</trkpt>
<trkpt lat="55.704330" lon="26.086342">
<ele>140.150513</ele>
<time>2010-07-17T19:55:05Z</time>
<desc>lat.=55.704330, lon.=26.086342, Alt.=140.150513m. Speed=0.000000m/h.</desc>
<speed>0.000000</speed>
</trkpt>
<trkpt lat="55.704330" lon="26.086342">
<ele>140.162231</ele>
<time>2010-07-17T19:55:06Z</time>
<desc>lat.=55.704330, lon.=26.086342, Alt.=140.162231m. Speed=0.072000m/h.</desc>
<speed>0.020000</speed>
</trkpt>
<trkpt lat="55.704330" lon="26.086342">
<ele>140.170044</ele>
<time>2010-07-17T19:55:07Z</time>
<desc>lat.=55.704330, lon.=26.086342, Alt.=140.170044m. Speed=0.000000m/h.</desc>
<speed>0.000000</speed>
</trkpt>
<trkpt lat="55.704330" lon="26.086342">
<ele>140.181763</ele>
<time>2010-07-17T19:55:08Z</time>
<desc>lat.=55.704330, lon.=26.086342, Alt.=140.181763m. Speed=0.000000m/h.</desc>
<speed>0.000000</speed>
</trkpt>
<trkpt lat="55.704330" lon="26.086342">
<ele>140.193481</ele>
<time>2010-07-17T19:55:09Z</time>
<desc>lat.=55.704330, lon.=26.086342, Alt.=140.193481m. Speed=0.036000m/h.</desc>
<speed>0.010000</speed>
</trkpt>
<trkpt lat="55.704330" lon="26.086342">
<ele>140.205200</ele>
<time>2010-07-17T19:55:10Z</time>
<desc>lat.=55.704330, lon.=26.086342, Alt.=140.205200m. Speed=0.036000m/h.</desc>
<speed>0.010000</speed>
</trkpt>
<trkpt lat="55.704330" lon="26.086342">
<ele>140.224731</ele>
<time>2010-07-17T19:55:11Z</time>
<desc>lat.=55.704330, lon.=26.086342, Alt.=140.224731m. Speed=0.036000m/h.</desc>
<speed>0.010000</speed>
</trkpt>
<trkpt lat="55.704330" lon="26.086342">
<ele>140.244263</ele>
<time>2010-07-17T19:55:12Z</time>
<desc>lat.=55.704330, lon.=26.086342, Alt.=140.244263m. Speed=0.072000m/h.</desc>
<speed>0.020000</speed>
</trkpt>
<trkpt lat="55.704330" lon="26.086342">
<ele>140.248169</ele>
<time>2010-07-17T19:55:13Z</time>
<desc>lat.=55.704330, lon.=26.086342, Alt.=140.248169m. Speed=0.108000m/h.</desc>
<speed>0.030000</speed>
</trkpt>
<trkpt lat="55.704330" lon="26.086342">
<ele>140.252075</ele>
<time>2010-07-17T19:55:14Z</time>
<desc>lat.=55.704330, lon.=26.086342, Alt.=140.252075m. Speed=0.036000m/h.</desc>
<speed>0.010000</speed>
</trkpt>
<trkpt lat="55.704330" lon="26.086342">
<ele>140.248169</ele>
<time>2010-07-17T19:55:15Z</time>
<desc>lat.=55.704330, lon.=26.086342, Alt.=140.248169m. Speed=0.000000m/h.</desc>
<speed>0.000000</speed>
</trkpt>
<trkpt lat="55.704330" lon="26.086342">
<ele>140.259888</ele>
<time>2010-07-17T19:55:16Z</time>
<desc>lat.=55.704330, lon.=26.086342, Alt.=140.259888m. Speed=0.036000m/h.</desc>
<speed>0.010000</speed>
</trkpt>
<trkpt lat="55.704330" lon="26.086342">
<ele>140.263794</ele>
<time>2010-07-17T19:55:17Z</time>
<desc>lat.=55.704330, lon.=26.086342, Alt.=140.263794m. Speed=0.000000m/h.</desc>
<speed>0.000000</speed>
</trkpt>
<trkpt lat="55.704330" lon="26.086342">
<ele>140.279419</ele>
<time>2010-07-17T19:55:18Z</time>
<desc>lat.=55.704330, lon.=26.086342, Alt.=140.279419m. Speed=0.000000m/h.</desc>
<speed>0.000000</speed>
</trkpt>
<trkpt lat="55.704330" lon="26.086342">
<ele>140.295044</ele>
<time>2010-07-17T19:55:19Z</time>
<desc>lat.=55.704330, lon.=26.086342, Alt.=140.295044m. Speed=0.036000m/h.</desc>
<speed>0.010000</speed>
</trkpt>
<trkpt lat="55.704330" lon="26.086342">
<ele>140.318481</ele>
<time>2010-07-17T19:55:20Z</time>
<desc>lat.=55.704330, lon.=26.086342, Alt.=140.318481m. Speed=0.072000m/h.</desc>
<speed>0.020000</speed>
</trkpt>
<trkpt lat="55.704330" lon="26.086342">
<ele>140.334106</ele>
<time>2010-07-17T19:55:21Z</time>
<desc>lat.=55.704330, lon.=26.086342, Alt.=140.334106m. Speed=0.036000m/h.</desc>
<speed>0.010000</speed>
</trkpt>
<trkpt lat="55.704330" lon="26.086342">
<ele>140.341919</ele>
<time>2010-07-17T19:55:22Z</time>
<desc>lat.=55.704330, lon.=26.086342, Alt.=140.341919m. Speed=0.072000m/h.</desc>
<speed>0.020000</speed>
</trkpt>
<trkpt lat="55.704330" lon="26.086342">
<ele>140.345825</ele>
<time>2010-07-17T19:55:23Z</time>
<desc>lat.=55.704330, lon.=26.086342, Alt.=140.345825m. Speed=0.072000m/h.</desc>
<speed>0.020000</speed>
</trkpt>
<trkpt lat="55.704330" lon="26.086342">
<ele>140.353638</ele>
<time>2010-07-17T19:55:24Z</time>
<desc>lat.=55.704330, lon.=26.086342, Alt.=140.353638m. Speed=0.108000m/h.</desc>
<speed>0.030000</speed>
</trkpt>
<trkpt lat="55.704330" lon="26.086342">
<ele>140.369263</ele>
<time>2010-07-17T19:55:25Z</time>
<desc>lat.=55.704330, lon.=26.086342, Alt.=140.369263m. Speed=0.036000m/h.</desc>
<speed>0.010000</speed>
</trkpt>
<trkpt lat="55.704330" lon="26.086342">
<ele>140.365356</ele>
<time>2010-07-17T19:55:26Z</time>
<desc>lat.=55.704330, lon.=26.086342, Alt.=140.365356m. Speed=0.000000m/h.</desc>
<speed>0.000000</speed>
</trkpt>
<trkpt lat="55.704330" lon="26.086342">
<ele>140.369263</ele>
<time>2010-07-17T19:55:27Z</time>
<desc>lat.=55.704330, lon.=26.086342, Alt.=140.369263m. Speed=0.036000m/h.</desc>
<speed>0.010000</speed>
</trkpt>
<trkpt lat="55.704330" lon="26.086342">
<ele>140.380981</ele>
<time>2010-07-17T19:55:28Z</time>
<desc>lat.=55.704330, lon.=26.086342, Alt.=140.380981m. Speed=0.072000m/h.</desc>
<speed>0.020000</speed>
</trkpt>
<trkpt lat="55.704330" lon="26.086342">
<ele>140.388794</ele>
<time>2010-07-17T19:55:29Z</time>
<desc>lat.=55.704330, lon.=26.086342, Alt.=140.388794m. Speed=0.000000m/h.</desc>
<speed>0.000000</speed>
</trkpt>
<trkpt lat="55.704330" lon="26.086342">
<ele>140.400513</ele>
<time>2010-07-17T19:55:30Z</time>
<desc>lat.=55.704330, lon.=26.086342, Alt.=140.400513m. Speed=0.072000m/h.</desc>
<speed>0.020000</speed>
</trkpt>
<trkpt lat="55.704330" lon="26.086342">
<ele>140.400513</ele>
<time>2010-07-17T19:55:31Z</time>
<desc>lat.=55.704330, lon.=26.086342, Alt.=140.400513m. Speed=0.000000m/h.</desc>
<speed>0.000000</speed>
</trkpt>
<trkpt lat="55.704330" lon="26.086342">
<ele>140.388794</ele>
<time>2010-07-17T19:55:32Z</time>
<desc>lat.=55.704330, lon.=26.086342, Alt.=140.388794m. Speed=0.000000m/h.</desc>
<speed>0.000000</speed>
</trkpt>
<trkpt lat="55.704330" lon="26.086342">
<ele>140.384888</ele>
<time>2010-07-17T19:55:33Z</time>
<desc>lat.=55.704330, lon.=26.086342, Alt.=140.384888m. Speed=0.000000m/h.</desc>
<speed>0.000000</speed>
</trkpt>
<trkpt lat="55.704330" lon="26.086342">
<ele>140.384888</ele>
<time>2010-07-17T19:55:34Z</time>
<desc>lat.=55.704330, lon.=26.086342, Alt.=140.384888m. Speed=0.036000m/h.</desc>
<speed>0.010000</speed>
</trkpt>
<trkpt lat="55.704330" lon="26.086342">
<ele>140.392700</ele>
<time>2010-07-17T19:55:35Z</time>
<desc>lat.=55.704330, lon.=26.086342, Alt.=140.392700m. Speed=0.036000m/h.</desc>
<speed>0.010000</speed>
</trkpt>
<trkpt lat="55.704330" lon="26.086342">
<ele>140.396606</ele>
<time>2010-07-17T19:55:36Z</time>
<desc>lat.=55.704330, lon.=26.086342, Alt.=140.396606m. Speed=0.036000m/h.</desc>
<speed>0.010000</speed>
</trkpt>
<trkpt lat="55.704330" lon="26.086342">
<ele>140.400513</ele>
<time>2010-07-17T19:55:37Z</time>
<desc>lat.=55.704330, lon.=26.086342, Alt.=140.400513m. Speed=0.072000m/h.</desc>
<speed>0.020000</speed>
</trkpt>
<trkpt lat="55.704330" lon="26.086342">
<ele>140.400513</ele>
<time>2010-07-17T19:55:38Z</time>
<desc>lat.=55.704330, lon.=26.086342, Alt.=140.400513m. Speed=0.036000m/h.</desc>
<speed>0.010000</speed>
</trkpt>
<trkpt lat="55.704330" lon="26.086342">
<ele>140.412231</ele>
<time>2010-07-17T19:55:39Z</time>
<desc>lat.=55.704330, lon.=26.086342, Alt.=140.412231m. Speed=0.072000m/h.</desc>
<speed>0.020000</speed>
</trkpt>
<trkpt lat="55.704330" lon="26.086342">
<ele>140.412231</ele>
<time>2010-07-17T19:55:40Z</time>
<desc>lat.=55.704330, lon.=26.086342, Alt.=140.412231m. Speed=0.000000m/h.</desc>
<speed>0.000000</speed>
</trkpt>
<trkpt lat="55.704330" lon="26.086342">
<ele>140.408325</ele>
<time>2010-07-17T19:55:41Z</time>
<desc>lat.=55.704330, lon.=26.086342, Alt.=140.408325m. Speed=0.072000m/h.</desc>
<speed>0.020000</speed>
</trkpt>
<trkpt lat="55.704330" lon="26.086342">
<ele>140.412231</ele>
<time>2010-07-17T19:55:42Z</time>
<desc>lat.=55.704330, lon.=26.086342, Alt.=140.412231m. Speed=0.072000m/h.</desc>
<speed>0.020000</speed>
</trkpt>
<trkpt lat="55.704330" lon="26.086342">
<ele>140.416138</ele>
<time>2010-07-17T19:55:43Z</time>
<desc>lat.=55.704330, lon.=26.086342, Alt.=140.416138m. Speed=0.000000m/h.</desc>
<speed>0.000000</speed>
</trkpt>
<trkpt lat="55.704330" lon="26.086342">
<ele>140.423950</ele>
<time>2010-07-17T19:55:44Z</time>
<desc>lat.=55.704330, lon.=26.086342, Alt.=140.423950m. Speed=0.000000m/h.</desc>
<speed>0.000000</speed>
</trkpt>
<trkpt lat="55.704330" lon="26.086342">
<ele>140.427856</ele>
<time>2010-07-17T19:55:45Z</time>
<desc>lat.=55.704330, lon.=26.086342, Alt.=140.427856m. Speed=0.072000m/h.</desc>
<speed>0.020000</speed>
</trkpt>
<trkpt lat="55.704330" lon="26.086342">
<ele>140.435669</ele>
<time>2010-07-17T19:55:46Z</time>
<desc>lat.=55.704330, lon.=26.086342, Alt.=140.435669m. Speed=0.000000m/h.</desc>
<speed>0.000000</speed>
</trkpt>
<trkpt lat="55.704330" lon="26.086342">
<ele>140.447388</ele>
<time>2010-07-17T19:55:47Z</time>
<desc>lat.=55.704330, lon.=26.086342, Alt.=140.447388m. Speed=0.036000m/h.</desc>
<speed>0.010000</speed>
</trkpt>
<trkpt lat="55.704330" lon="26.086342">
<ele>140.447388</ele>
<time>2010-07-17T19:55:48Z</time>
<desc>lat.=55.704330, lon.=26.086342, Alt.=140.447388m. Speed=0.036000m/h.</desc>
<speed>0.010000</speed>
</trkpt>
<trkpt lat="55.704330" lon="26.086342">
<ele>140.451294</ele>
<time>2010-07-17T19:55:49Z</time>
<desc>lat.=55.704330, lon.=26.086342, Alt.=140.451294m. Speed=0.000000m/h.</desc>
<speed>0.000000</speed>
</trkpt>
<trkpt lat="55.704330" lon="26.086342">
<ele>140.463013</ele>
<time>2010-07-17T19:55:50Z</time>
<desc>lat.=55.704330, lon.=26.086342, Alt.=140.463013m. Speed=0.000000m/h.</desc>
<speed>0.000000</speed>
</trkpt>
<trkpt lat="55.704330" lon="26.086342">
<ele>140.470825</ele>
<time>2010-07-17T19:55:51Z</time>
<desc>lat.=55.704330, lon.=26.086342, Alt.=140.470825m. Speed=0.036000m/h.</desc>
<speed>0.010000</speed>
</trkpt>
<trkpt lat="55.704330" lon="26.086342">
<ele>140.478638</ele>
<time>2010-07-17T19:55:52Z</time>
<desc>lat.=55.704330, lon.=26.086342, Alt.=140.478638m. Speed=0.000000m/h.</desc>
<speed>0.000000</speed>
</trkpt>
<trkpt lat="55.704330" lon="26.086342">
<ele>140.498169</ele>
<time>2010-07-17T19:55:53Z</time>
<desc>lat.=55.704330, lon.=26.086342, Alt.=140.498169m. Speed=0.108000m/h.</desc>
<speed>0.030000</speed>
</trkpt>
<trkpt lat="55.704330" lon="26.086342">
<ele>140.509888</ele>
<time>2010-07-17T19:55:54Z</time>
<desc>lat.=55.704330, lon.=26.086342, Alt.=140.509888m. Speed=0.072000m/h.</desc>
<speed>0.020000</speed>
</trkpt>
<trkpt lat="55.704330" lon="26.086342">
<ele>140.517700</ele>
<time>2010-07-17T19:55:55Z</time>
<desc>lat.=55.704330, lon.=26.086342, Alt.=140.517700m. Speed=0.000000m/h.</desc>
<speed>0.000000</speed>
</trkpt>
<trkpt lat="55.704330" lon="26.086342">
<ele>140.529419</ele>
<time>2010-07-17T19:55:56Z</time>
<desc>lat.=55.704330, lon.=26.086342, Alt.=140.529419m. Speed=0.036000m/h.</desc>
<speed>0.010000</speed>
</trkpt>
<trkpt lat="55.704330" lon="26.086342">
<ele>140.537231</ele>
<time>2010-07-17T19:55:57Z</time>
<desc>lat.=55.704330, lon.=26.086342, Alt.=140.537231m. Speed=0.072000m/h.</desc>
<speed>0.020000</speed>
</trkpt>
<trkpt lat="55.704330" lon="26.086342">
<ele>140.537231</ele>
<time>2010-07-17T19:55:58Z</time>
<desc>lat.=55.704330, lon.=26.086342, Alt.=140.537231m. Speed=0.072000m/h.</desc>
<speed>0.020000</speed>
</trkpt>
<trkpt lat="55.704330" lon="26.086342">
<ele>140.548950</ele>
<time>2010-07-17T19:55:59Z</time>
<desc>lat.=55.704330, lon.=26.086342, Alt.=140.548950m. Speed=0.036000m/h.</desc>
<speed>0.010000</speed>
</trkpt>
<trkpt lat="55.704330" lon="26.086342">
<ele>140.564575</ele>
<time>2010-07-17T19:56:00Z</time>
<desc>lat.=55.704330, lon.=26.086342, Alt.=140.564575m. Speed=0.036000m/h.</desc>
<speed>0.010000</speed>
</trkpt>
<trkpt lat="55.704330" lon="26.086342">
<ele>140.576294</ele>
<time>2010-07-17T19:56:01Z</time>
<desc>lat.=55.704330, lon.=26.086342, Alt.=140.576294m. Speed=0.036000m/h.</desc>
<speed>0.010000</speed>
</trkpt>
<trkpt lat="55.704330" lon="26.086342">
<ele>140.588013</ele>
<time>2010-07-17T19:56:02Z</time>
<desc>lat.=55.704330, lon.=26.086342, Alt.=140.588013m. Speed=0.036000m/h.</desc>
<speed>0.010000</speed>
</trkpt>
<trkpt lat="55.704330" lon="26.086342">
<ele>140.603638</ele>
<time>2010-07-17T19:56:03Z</time>
<desc>lat.=55.704330, lon.=26.086342, Alt.=140.603638m. Speed=0.036000m/h.</desc>
<speed>0.010000</speed>
</trkpt>
<trkpt lat="55.704330" lon="26.086342">
<ele>140.615356</ele>
<time>2010-07-17T19:56:04Z</time>
<desc>lat.=55.704330, lon.=26.086342, Alt.=140.615356m. Speed=0.000000m/h.</desc>
<speed>0.000000</speed>
</trkpt>
<trkpt lat="55.704330" lon="26.086342">
<ele>140.627075</ele>
<time>2010-07-17T19:56:05Z</time>
<desc>lat.=55.704330, lon.=26.086342, Alt.=140.627075m. Speed=0.036000m/h.</desc>
<speed>0.010000</speed>
</trkpt>
<trkpt lat="55.704330" lon="26.086342">
<ele>140.634888</ele>
<time>2010-07-17T19:56:06Z</time>
<desc>lat.=55.704330, lon.=26.086342, Alt.=140.634888m. Speed=0.036000m/h.</desc>
<speed>0.010000</speed>
</trkpt>
<trkpt lat="55.704330" lon="26.086342">
<ele>140.642700</ele>
<time>2010-07-17T19:56:07Z</time>
<desc>lat.=55.704330, lon.=26.086342, Alt.=140.642700m. Speed=0.000000m/h.</desc>
<speed>0.000000</speed>
</trkpt>
<trkpt lat="55.704330" lon="26.086342">
<ele>140.650513</ele>
<time>2010-07-17T19:56:08Z</time>
<desc>lat.=55.704330, lon.=26.086342, Alt.=140.650513m. Speed=0.108000m/h.</desc>
<speed>0.030000</speed>
</trkpt>
<trkpt lat="55.704330" lon="26.086342">
<ele>140.662231</ele>
<time>2010-07-17T19:56:09Z</time>
<desc>lat.=55.704330, lon.=26.086342, Alt.=140.662231m. Speed=0.072000m/h.</desc>
<speed>0.020000</speed>
</trkpt>
<trkpt lat="55.704330" lon="26.086342">
<ele>140.670044</ele>
<time>2010-07-17T19:56:10Z</time>
<desc>lat.=55.704330, lon.=26.086342, Alt.=140.670044m. Speed=0.000000m/h.</desc>
<speed>0.000000</speed>
</trkpt>
<trkpt lat="55.704330" lon="26.086342">
<ele>140.670044</ele>
<time>2010-07-17T19:56:11Z</time>
<desc>lat.=55.704330, lon.=26.086342, Alt.=140.670044m. Speed=0.000000m/h.</desc>
<speed>0.000000</speed>
</trkpt>
<trkpt lat="55.704330" lon="26.086342">
<ele>140.673950</ele>
<time>2010-07-17T19:56:12Z</time>
<desc>lat.=55.704330, lon.=26.086342, Alt.=140.673950m. Speed=0.036000m/h.</desc>
<speed>0.010000</speed>
</trkpt>
<trkpt lat="55.704330" lon="26.086342">
<ele>140.677856</ele>
<time>2010-07-17T19:56:13Z</time>
<desc>lat.=55.704330, lon.=26.086342, Alt.=140.677856m. Speed=0.036000m/h.</desc>
<speed>0.010000</speed>
</trkpt>
<trkpt lat="55.704330" lon="26.086342">
<ele>140.681763</ele>
<time>2010-07-17T19:56:14Z</time>
<desc>lat.=55.704330, lon.=26.086342, Alt.=140.681763m. Speed=0.000000m/h.</desc>
<speed>0.000000</speed>
</trkpt>
<trkpt lat="55.704330" lon="26.086342">
<ele>140.685669</ele>
<time>2010-07-17T19:56:15Z</time>
<desc>lat.=55.704330, lon.=26.086342, Alt.=140.685669m. Speed=0.108000m/h.</desc>
<speed>0.030000</speed>
</trkpt>
<trkpt lat="55.704330" lon="26.086342">
<ele>140.689575</ele>
<time>2010-07-17T19:56:16Z</time>
<desc>lat.=55.704330, lon.=26.086342, Alt.=140.689575m. Speed=0.036000m/h.</desc>
<speed>0.010000</speed>
</trkpt>
<trkpt lat="55.704330" lon="26.086342">
<ele>140.697388</ele>
<time>2010-07-17T19:56:17Z</time>
<desc>lat.=55.704330, lon.=26.086342, Alt.=140.697388m. Speed=0.000000m/h.</desc>
<speed>0.000000</speed>
</trkpt>
<trkpt lat="55.704330" lon="26.086342">
<ele>140.705200</ele>
<time>2010-07-17T19:56:18Z</time>
<desc>lat.=55.704330, lon.=26.086342, Alt.=140.705200m. Speed=0.000000m/h.</desc>
<speed>0.000000</speed>
</trkpt>
<trkpt lat="55.704330" lon="26.086342">
<ele>140.713013</ele>
<time>2010-07-17T19:56:19Z</time>
<desc>lat.=55.704330, lon.=26.086342, Alt.=140.713013m. Speed=0.000000m/h.</desc>
<speed>0.000000</speed>
</trkpt>
<trkpt lat="55.704330" lon="26.086342">
<ele>140.720825</ele>
<time>2010-07-17T19:56:20Z</time>
<desc>lat.=55.704330, lon.=26.086342, Alt.=140.720825m. Speed=0.000000m/h.</desc>
<speed>0.000000</speed>
</trkpt>
<trkpt lat="55.704330" lon="26.086342">
<ele>140.724731</ele>
<time>2010-07-17T19:56:21Z</time>
<desc>lat.=55.704330, lon.=26.086342, Alt.=140.724731m. Speed=0.072000m/h.</desc>
<speed>0.020000</speed>
</trkpt>
<trkpt lat="55.704330" lon="26.086342">
<ele>140.728638</ele>
<time>2010-07-17T19:56:22Z</time>
<desc>lat.=55.704330, lon.=26.086342, Alt.=140.728638m. Speed=0.036000m/h.</desc>
<speed>0.010000</speed>
</trkpt>
<trkpt lat="55.704330" lon="26.086342">
<ele>140.728638</ele>
<time>2010-07-17T19:56:23Z</time>
<desc>lat.=55.704330, lon.=26.086342, Alt.=140.728638m. Speed=0.036000m/h.</desc>
<speed>0.010000</speed>
</trkpt>
<trkpt lat="55.704330" lon="26.086342">
<ele>140.736450</ele>
<time>2010-07-17T19:56:24Z</time>
<desc>lat.=55.704330, lon.=26.086342, Alt.=140.736450m. Speed=0.072000m/h.</desc>
<speed>0.020000</speed>
</trkpt>
<trkpt lat="55.704330" lon="26.086342">
<ele>140.740356</ele>
<time>2010-07-17T19:56:25Z</time>
<desc>lat.=55.704330, lon.=26.086342, Alt.=140.740356m. Speed=0.072000m/h.</desc>
<speed>0.020000</speed>
</trkpt>
<trkpt lat="55.704330" lon="26.086342">
<ele>140.740356</ele>
<time>2010-07-17T19:56:26Z</time>
<desc>lat.=55.704330, lon.=26.086342, Alt.=140.740356m. Speed=0.036000m/h.</desc>
<speed>0.010000</speed>
</trkpt>
<trkpt lat="55.704330" lon="26.086342">
<ele>140.748169</ele>
<time>2010-07-17T19:56:27Z</time>
<desc>lat.=55.704330, lon.=26.086342, Alt.=140.748169m. Speed=0.036000m/h.</desc>
<speed>0.010000</speed>
</trkpt>
<trkpt lat="55.704330" lon="26.086342">
<ele>140.755981</ele>
<time>2010-07-17T19:56:28Z</time>
<desc>lat.=55.704330, lon.=26.086342, Alt.=140.755981m. Speed=0.036000m/h.</desc>
<speed>0.010000</speed>
</trkpt>
<trkpt lat="55.704330" lon="26.086342">
<ele>140.763794</ele>
<time>2010-07-17T19:56:29Z</time>
<desc>lat.=55.704330, lon.=26.086342, Alt.=140.763794m. Speed=0.036000m/h.</desc>
<speed>0.010000</speed>
</trkpt>
<trkpt lat="55.704330" lon="26.086342">
<ele>140.775513</ele>
<time>2010-07-17T19:56:30Z</time>
<desc>lat.=55.704330, lon.=26.086342, Alt.=140.775513m. Speed=0.072000m/h.</desc>
<speed>0.020000</speed>
</trkpt>
<trkpt lat="55.704330" lon="26.086342">
<ele>140.779419</ele>
<time>2010-07-17T19:56:31Z</time>
<desc>lat.=55.704330, lon.=26.086342, Alt.=140.779419m. Speed=0.036000m/h.</desc>
<speed>0.010000</speed>
</trkpt>
<trkpt lat="55.704330" lon="26.086342">
<ele>140.787231</ele>
<time>2010-07-17T19:56:32Z</time>
<desc>lat.=55.704330, lon.=26.086342, Alt.=140.787231m. Speed=0.108000m/h.</desc>
<speed>0.030000</speed>
</trkpt>
<trkpt lat="55.704330" lon="26.086342">
<ele>140.802856</ele>
<time>2010-07-17T19:56:33Z</time>
<desc>lat.=55.704330, lon.=26.086342, Alt.=140.802856m. Speed=0.216000m/h.</desc>
<speed>0.060000</speed>
</trkpt>
<trkpt lat="55.704330" lon="26.086344">
<ele>140.830200</ele>
<time>2010-07-17T19:56:34Z</time>
<desc>lat.=55.704330, lon.=26.086344, Alt.=140.830200m. Speed=0.072000m/h.</desc>
<speed>0.020000</speed>
</trkpt>
<trkpt lat="55.704330" lon="26.086344">
<ele>140.853638</ele>
<time>2010-07-17T19:56:35Z</time>
<desc>lat.=55.704330, lon.=26.086344, Alt.=140.853638m. Speed=0.000000m/h.</desc>
<speed>0.000000</speed>
</trkpt>
<trkpt lat="55.704330" lon="26.086344">
<ele>140.861450</ele>
<time>2010-07-17T19:56:36Z</time>
<desc>lat.=55.704330, lon.=26.086344, Alt.=140.861450m. Speed=0.036000m/h.</desc>
<speed>0.010000</speed>
</trkpt>
<trkpt lat="55.704330" lon="26.086344">
<ele>140.869263</ele>
<time>2010-07-17T19:56:37Z</time>
<desc>lat.=55.704330, lon.=26.086344, Alt.=140.869263m. Speed=0.144000m/h.</desc>
<speed>0.040000</speed>
</trkpt>
<trkpt lat="55.704330" lon="26.086344">
<ele>140.873169</ele>
<time>2010-07-17T19:56:38Z</time>
<desc>lat.=55.704330, lon.=26.086344, Alt.=140.873169m. Speed=0.000000m/h.</desc>
<speed>0.000000</speed>
</trkpt>
<trkpt lat="55.704330" lon="26.086344">
<ele>140.877075</ele>
<time>2010-07-17T19:56:39Z</time>
<desc>lat.=55.704330, lon.=26.086344, Alt.=140.877075m. Speed=0.000000m/h.</desc>
<speed>0.000000</speed>
</trkpt>
<trkpt lat="55.704330" lon="26.086344">
<ele>140.884888</ele>
<time>2010-07-17T19:56:40Z</time>
<desc>lat.=55.704330, lon.=26.086344, Alt.=140.884888m. Speed=0.036000m/h.</desc>
<speed>0.010000</speed>
</trkpt>
<trkpt lat="55.704330" lon="26.086344">
<ele>140.892700</ele>
<time>2010-07-17T19:56:41Z</time>
<desc>lat.=55.704330, lon.=26.086344, Alt.=140.892700m. Speed=0.108000m/h.</desc>
<speed>0.030000</speed>
</trkpt>
<trkpt lat="55.704330" lon="26.086344">
<ele>140.900513</ele>
<time>2010-07-17T19:56:42Z</time>
<desc>lat.=55.704330, lon.=26.086344, Alt.=140.900513m. Speed=0.072000m/h.</desc>
<speed>0.020000</speed>
</trkpt>
<trkpt lat="55.704330" lon="26.086344">
<ele>140.908325</ele>
<time>2010-07-17T19:56:43Z</time>
<desc>lat.=55.704330, lon.=26.086344, Alt.=140.908325m. Speed=0.072000m/h.</desc>
<speed>0.020000</speed>
</trkpt>
<trkpt lat="55.704330" lon="26.086344">
<ele>140.912231</ele>
<time>2010-07-17T19:56:44Z</time>
<desc>lat.=55.704330, lon.=26.086344, Alt.=140.912231m. Speed=0.108000m/h.</desc>
<speed>0.030000</speed>
</trkpt>
<trkpt lat="55.704330" lon="26.086344">
<ele>140.916138</ele>
<time>2010-07-17T19:56:45Z</time>
<desc>lat.=55.704330, lon.=26.086344, Alt.=140.916138m. Speed=0.144000m/h.</desc>
<speed>0.040000</speed>
</trkpt>
<trkpt lat="55.704330" lon="26.086344">
<ele>140.920044</ele>
<time>2010-07-17T19:56:46Z</time>
<desc>lat.=55.704330, lon.=26.086344, Alt.=140.920044m. Speed=0.144000m/h.</desc>
<speed>0.040000</speed>
</trkpt>
<trkpt lat="55.704330" lon="26.086344">
<ele>140.920044</ele>
<time>2010-07-17T19:56:47Z</time>
<desc>lat.=55.704330, lon.=26.086344, Alt.=140.920044m. Speed=0.036000m/h.</desc>
<speed>0.010000</speed>
</trkpt>
<trkpt lat="55.704330" lon="26.086344">
<ele>140.920044</ele>
<time>2010-07-17T19:56:48Z</time>
<desc>lat.=55.704330, lon.=26.086344, Alt.=140.920044m. Speed=0.072000m/h.</desc>
<speed>0.020000</speed>
</trkpt>
<trkpt lat="55.704330" lon="26.086344">
<ele>140.927856</ele>
<time>2010-07-17T19:56:49Z</time>
<desc>lat.=55.704330, lon.=26.086344, Alt.=140.927856m. Speed=0.072000m/h.</desc>
<speed>0.020000</speed>
</trkpt>
<trkpt lat="55.704330" lon="26.086344">
<ele>140.931763</ele>
<time>2010-07-17T19:56:50Z</time>
<desc>lat.=55.704330, lon.=26.086344, Alt.=140.931763m. Speed=0.036000m/h.</desc>
<speed>0.010000</speed>
</trkpt>
<trkpt lat="55.704330" lon="26.086344">
<ele>140.931763</ele>
<time>2010-07-17T19:56:51Z</time>
<desc>lat.=55.704330, lon.=26.086344, Alt.=140.931763m. Speed=0.036000m/h.</desc>
<speed>0.010000</speed>
</trkpt>
<trkpt lat="55.704330" lon="26.086344">
<ele>140.935669</ele>
<time>2010-07-17T19:56:52Z</time>
<desc>lat.=55.704330, lon.=26.086344, Alt.=140.935669m. Speed=0.072000m/h.</desc>
<speed>0.020000</speed>
</trkpt>
<trkpt lat="55.704330" lon="26.086344">
<ele>140.935669</ele>
<time>2010-07-17T19:56:53Z</time>
<desc>lat.=55.704330, lon.=26.086344, Alt.=140.935669m. Speed=0.072000m/h.</desc>
<speed>0.020000</speed>
</trkpt>
<trkpt lat="55.704330" lon="26.086344">
<ele>140.939575</ele>
<time>2010-07-17T19:56:54Z</time>
<desc>lat.=55.704330, lon.=26.086344, Alt.=140.939575m. Speed=0.108000m/h.</desc>
<speed>0.030000</speed>
</trkpt>
<trkpt lat="55.704330" lon="26.086344">
<ele>140.943481</ele>
<time>2010-07-17T19:56:55Z</time>
<desc>lat.=55.704330, lon.=26.086344, Alt.=140.943481m. Speed=0.000000m/h.</desc>
<speed>0.000000</speed>
</trkpt>
<trkpt lat="55.704330" lon="26.086344">
<ele>140.947388</ele>
<time>2010-07-17T19:56:56Z</time>
<desc>lat.=55.704330, lon.=26.086344, Alt.=140.947388m. Speed=0.000000m/h.</desc>
<speed>0.000000</speed>
</trkpt>
<trkpt lat="55.704330" lon="26.086344">
<ele>140.951294</ele>
<time>2010-07-17T19:56:57Z</time>
<desc>lat.=55.704330, lon.=26.086344, Alt.=140.951294m. Speed=0.072000m/h.</desc>
<speed>0.020000</speed>
</trkpt>
<trkpt lat="55.704330" lon="26.086344">
<ele>140.955200</ele>
<time>2010-07-17T19:56:58Z</time>
<desc>lat.=55.704330, lon.=26.086344, Alt.=140.955200m. Speed=0.108000m/h.</desc>
<speed>0.030000</speed>
</trkpt>
<trkpt lat="55.704330" lon="26.086344">
<ele>140.955200</ele>
<time>2010-07-17T19:56:59Z</time>
<desc>lat.=55.704330, lon.=26.086344, Alt.=140.955200m. Speed=0.072000m/h.</desc>
<speed>0.020000</speed>
</trkpt>
<trkpt lat="55.704330" lon="26.086344">
<ele>140.955200</ele>
<time>2010-07-17T19:57:00Z</time>
<desc>lat.=55.704330, lon.=26.086344, Alt.=140.955200m. Speed=0.072000m/h.</desc>
<speed>0.020000</speed>
</trkpt>
<trkpt lat="55.704330" lon="26.086344">
<ele>140.955200</ele>
<time>2010-07-17T19:57:01Z</time>
<desc>lat.=55.704330, lon.=26.086344, Alt.=140.955200m. Speed=0.072000m/h.</desc>
<speed>0.020000</speed>
</trkpt>
<trkpt lat="55.704330" lon="26.086344">
<ele>140.959106</ele>
<time>2010-07-17T19:57:02Z</time>
<desc>lat.=55.704330, lon.=26.086344, Alt.=140.959106m. Speed=0.108000m/h.</desc>
<speed>0.030000</speed>
</trkpt>
<trkpt lat="55.704330" lon="26.086344">
<ele>140.959106</ele>
<time>2010-07-17T19:57:03Z</time>
<desc>lat.=55.704330, lon.=26.086344, Alt.=140.959106m. Speed=0.036000m/h.</desc>
<speed>0.010000</speed>
</trkpt>
<trkpt lat="55.704330" lon="26.086344">
<ele>140.955200</ele>
<time>2010-07-17T19:57:04Z</time>
<desc>lat.=55.704330, lon.=26.086344, Alt.=140.955200m. Speed=0.036000m/h.</desc>
<speed>0.010000</speed>
</trkpt>
<trkpt lat="55.704330" lon="26.086344">
<ele>140.955200</ele>
<time>2010-07-17T19:57:05Z</time>
<desc>lat.=55.704330, lon.=26.086344, Alt.=140.955200m. Speed=0.036000m/h.</desc>
<speed>0.010000</speed>
</trkpt>
<trkpt lat="55.704330" lon="26.086344">
<ele>140.951294</ele>
<time>2010-07-17T19:57:06Z</time>
<desc>lat.=55.704330, lon.=26.086344, Alt.=140.951294m. Speed=0.072000m/h.</desc>
<speed>0.020000</speed>
</trkpt>
<trkpt lat="55.704330" lon="26.086344">
<ele>140.951294</ele>
<time>2010-07-17T19:57:07Z</time>
<desc>lat.=55.704330, lon.=26.086344, Alt.=140.951294m. Speed=0.036000m/h.</desc>
<speed>0.010000</speed>
</trkpt>
<trkpt lat="55.704330" lon="26.086344">
<ele>140.955200</ele>
<time>2010-07-17T19:57:08Z</time>
<desc>lat.=55.704330, lon.=26.086344, Alt.=140.955200m. Speed=0.036000m/h.</desc>
<speed>0.010000</speed>
</trkpt>
<trkpt lat="55.704330" lon="26.086344">
<ele>140.963013</ele>
<time>2010-07-17T19:57:09Z</time>
<desc>lat.=55.704330, lon.=26.086344, Alt.=140.963013m. Speed=0.000000m/h.</desc>
<speed>0.000000</speed>
</trkpt>
<trkpt lat="55.704330" lon="26.086344">
<ele>140.963013</ele>
<time>2010-07-17T19:57:10Z</time>
<desc>lat.=55.704330, lon.=26.086344, Alt.=140.963013m. Speed=0.036000m/h.</desc>
<speed>0.010000</speed>
</trkpt>
<trkpt lat="55.704330" lon="26.086344">
<ele>140.966919</ele>
<time>2010-07-17T19:57:11Z</time>
<desc>lat.=55.704330, lon.=26.086344, Alt.=140.966919m. Speed=0.036000m/h.</desc>
<speed>0.010000</speed>
</trkpt>
<trkpt lat="55.704330" lon="26.086344">
<ele>140.978638</ele>
<time>2010-07-17T19:57:12Z</time>
<desc>lat.=55.704330, lon.=26.086344, Alt.=140.978638m. Speed=0.036000m/h.</desc>
<speed>0.010000</speed>
</trkpt>
<trkpt lat="55.704330" lon="26.086344">
<ele>140.986450</ele>
<time>2010-07-17T19:57:13Z</time>
<desc>lat.=55.704330, lon.=26.086344, Alt.=140.986450m. Speed=0.108000m/h.</desc>
<speed>0.030000</speed>
</trkpt>
<trkpt lat="55.704330" lon="26.086344">
<ele>140.990356</ele>
<time>2010-07-17T19:57:14Z</time>
<desc>lat.=55.704330, lon.=26.086344, Alt.=140.990356m. Speed=0.036000m/h.</desc>
<speed>0.010000</speed>
</trkpt>
<trkpt lat="55.704330" lon="26.086344">
<ele>140.986450</ele>
<time>2010-07-17T19:57:15Z</time>
<desc>lat.=55.704330, lon.=26.086344, Alt.=140.986450m. Speed=0.072000m/h.</desc>
<speed>0.020000</speed>
</trkpt>
<trkpt lat="55.704330" lon="26.086344">
<ele>140.990356</ele>
<time>2010-07-17T19:57:16Z</time>
<desc>lat.=55.704330, lon.=26.086344, Alt.=140.990356m. Speed=0.000000m/h.</desc>
<speed>0.000000</speed>
</trkpt>
<trkpt lat="55.704330" lon="26.086344">
<ele>140.998169</ele>
<time>2010-07-17T19:57:17Z</time>
<desc>lat.=55.704330, lon.=26.086344, Alt.=140.998169m. Speed=0.036000m/h.</desc>
<speed>0.010000</speed>
</trkpt>
<trkpt lat="55.704330" lon="26.086344">
<ele>140.998169</ele>
<time>2010-07-17T19:57:18Z</time>
<desc>lat.=55.704330, lon.=26.086344, Alt.=140.998169m. Speed=0.036000m/h.</desc>
<speed>0.010000</speed>
</trkpt>
<trkpt lat="55.704330" lon="26.086344">
<ele>141.002075</ele>
<time>2010-07-17T19:57:19Z</time>
<desc>lat.=55.704330, lon.=26.086344, Alt.=141.002075m. Speed=0.072000m/h.</desc>
<speed>0.020000</speed>
</trkpt>
<trkpt lat="55.704330" lon="26.086344">
<ele>141.009888</ele>
<time>2010-07-17T19:57:20Z</time>
<desc>lat.=55.704330, lon.=26.086344, Alt.=141.009888m. Speed=0.072000m/h.</desc>
<speed>0.020000</speed>
</trkpt>
<trkpt lat="55.704330" lon="26.086344">
<ele>141.005981</ele>
<time>2010-07-17T19:57:21Z</time>
<desc>lat.=55.704330, lon.=26.086344, Alt.=141.005981m. Speed=0.180000m/h.</desc>
<speed>0.050000</speed>
</trkpt>
<trkpt lat="55.704330" lon="26.086344">
<ele>141.009888</ele>
<time>2010-07-17T19:57:22Z</time>
<desc>lat.=55.704330, lon.=26.086344, Alt.=141.009888m. Speed=0.036000m/h.</desc>
<speed>0.010000</speed>
</trkpt>
<trkpt lat="55.704330" lon="26.086344">
<ele>141.021606</ele>
<time>2010-07-17T19:57:23Z</time>
<desc>lat.=55.704330, lon.=26.086344, Alt.=141.021606m. Speed=0.072000m/h.</desc>
<speed>0.020000</speed>
</trkpt>
<trkpt lat="55.704330" lon="26.086344">
<ele>141.037231</ele>
<time>2010-07-17T19:57:24Z</time>
<desc>lat.=55.704330, lon.=26.086344, Alt.=141.037231m. Speed=0.072000m/h.</desc>
<speed>0.020000</speed>
</trkpt>
<trkpt lat="55.704330" lon="26.086344">
<ele>141.052856</ele>
<time>2010-07-17T19:57:25Z</time>
<desc>lat.=55.704330, lon.=26.086344, Alt.=141.052856m. Speed=0.036000m/h.</desc>
<speed>0.010000</speed>
</trkpt>
<trkpt lat="55.704330" lon="26.086344">
<ele>141.060669</ele>
<time>2010-07-17T19:57:26Z</time>
<desc>lat.=55.704330, lon.=26.086344, Alt.=141.060669m. Speed=0.036000m/h.</desc>
<speed>0.010000</speed>
</trkpt>
<trkpt lat="55.704330" lon="26.086344">
<ele>141.076294</ele>
<time>2010-07-17T19:57:27Z</time>
<desc>lat.=55.704330, lon.=26.086344, Alt.=141.076294m. Speed=0.144000m/h.</desc>
<speed>0.040000</speed>
</trkpt>
<trkpt lat="55.704330" lon="26.086344">
<ele>141.084106</ele>
<time>2010-07-17T19:57:28Z</time>
<desc>lat.=55.704330, lon.=26.086344, Alt.=141.084106m. Speed=0.072000m/h.</desc>
<speed>0.020000</speed>
</trkpt>
<trkpt lat="55.704330" lon="26.086344">
<ele>141.095825</ele>
<time>2010-07-17T19:57:29Z</time>
<desc>lat.=55.704330, lon.=26.086344, Alt.=141.095825m. Speed=0.072000m/h.</desc>
<speed>0.020000</speed>
</trkpt>
<trkpt lat="55.704330" lon="26.086344">
<ele>141.103638</ele>
<time>2010-07-17T19:57:30Z</time>
<desc>lat.=55.704330, lon.=26.086344, Alt.=141.103638m. Speed=0.108000m/h.</desc>
<speed>0.030000</speed>
</trkpt>
<trkpt lat="55.704330" lon="26.086344">
<ele>141.115356</ele>
<time>2010-07-17T19:57:31Z</time>
<desc>lat.=55.704330, lon.=26.086344, Alt.=141.115356m. Speed=0.000000m/h.</desc>
<speed>0.000000</speed>
</trkpt>
<trkpt lat="55.704330" lon="26.086344">
<ele>141.119263</ele>
<time>2010-07-17T19:57:32Z</time>
<desc>lat.=55.704330, lon.=26.086344, Alt.=141.119263m. Speed=0.072000m/h.</desc>
<speed>0.020000</speed>
</trkpt>
<trkpt lat="55.704330" lon="26.086344">
<ele>141.130981</ele>
<time>2010-07-17T19:57:33Z</time>
<desc>lat.=55.704330, lon.=26.086344, Alt.=141.130981m. Speed=0.072000m/h.</desc>
<speed>0.020000</speed>
</trkpt>
<trkpt lat="55.704330" lon="26.086344">
<ele>141.146606</ele>
<time>2010-07-17T19:57:34Z</time>
<desc>lat.=55.704330, lon.=26.086344, Alt.=141.146606m. Speed=0.108000m/h.</desc>
<speed>0.030000</speed>
</trkpt>
<trkpt lat="55.704330" lon="26.086344">
<ele>141.173950</ele>
<time>2010-07-17T19:57:35Z</time>
<desc>lat.=55.704330, lon.=26.086344, Alt.=141.173950m. Speed=0.036000m/h.</desc>
<speed>0.010000</speed>
</trkpt>
<trkpt lat="55.704330" lon="26.086344">
<ele>141.193481</ele>
<time>2010-07-17T19:57:36Z</time>
<desc>lat.=55.704330, lon.=26.086344, Alt.=141.193481m. Speed=0.108000m/h.</desc>
<speed>0.030000</speed>
</trkpt>
<trkpt lat="55.704330" lon="26.086344">
<ele>141.205200</ele>
<time>2010-07-17T19:57:37Z</time>
<desc>lat.=55.704330, lon.=26.086344, Alt.=141.205200m. Speed=0.108000m/h.</desc>
<speed>0.030000</speed>
</trkpt>
<trkpt lat="55.704330" lon="26.086344">
<ele>141.216919</ele>
<time>2010-07-17T19:57:38Z</time>
<desc>lat.=55.704330, lon.=26.086344, Alt.=141.216919m. Speed=0.072000m/h.</desc>
<speed>0.020000</speed>
</trkpt>
<trkpt lat="55.704330" lon="26.086344">
<ele>141.228638</ele>
<time>2010-07-17T19:57:39Z</time>
<desc>lat.=55.704330, lon.=26.086344, Alt.=141.228638m. Speed=0.036000m/h.</desc>
<speed>0.010000</speed>
</trkpt>
<trkpt lat="55.704330" lon="26.086344">
<ele>141.240356</ele>
<time>2010-07-17T19:57:40Z</time>
<desc>lat.=55.704330, lon.=26.086344, Alt.=141.240356m. Speed=0.000000m/h.</desc>
<speed>0.000000</speed>
</trkpt>
<trkpt lat="55.704330" lon="26.086344">
<ele>141.244263</ele>
<time>2010-07-17T19:57:41Z</time>
<desc>lat.=55.704330, lon.=26.086344, Alt.=141.244263m. Speed=0.036000m/h.</desc>
<speed>0.010000</speed>
</trkpt>
<trkpt lat="55.704330" lon="26.086344">
<ele>141.248169</ele>
<time>2010-07-17T19:57:42Z</time>
<desc>lat.=55.704330, lon.=26.086344, Alt.=141.248169m. Speed=0.108000m/h.</desc>
<speed>0.030000</speed>
</trkpt>
<trkpt lat="55.704330" lon="26.086344">
<ele>141.252075</ele>
<time>2010-07-17T19:57:43Z</time>
<desc>lat.=55.704330, lon.=26.086344, Alt.=141.252075m. Speed=0.072000m/h.</desc>
<speed>0.020000</speed>
</trkpt>
<trkpt lat="55.704330" lon="26.086344">
<ele>141.255981</ele>
<time>2010-07-17T19:57:44Z</time>
<desc>lat.=55.704330, lon.=26.086344, Alt.=141.255981m. Speed=0.036000m/h.</desc>
<speed>0.010000</speed>
</trkpt>
<trkpt lat="55.704330" lon="26.086344">
<ele>141.263794</ele>
<time>2010-07-17T19:57:45Z</time>
<desc>lat.=55.704330, lon.=26.086344, Alt.=141.263794m. Speed=0.000000m/h.</desc>
<speed>0.000000</speed>
</trkpt>
<trkpt lat="55.704330" lon="26.086344">
<ele>141.275513</ele>
<time>2010-07-17T19:57:46Z</time>
<desc>lat.=55.704330, lon.=26.086344, Alt.=141.275513m. Speed=0.036000m/h.</desc>
<speed>0.010000</speed>
</trkpt>
<trkpt lat="55.704330" lon="26.086344">
<ele>141.287231</ele>
<time>2010-07-17T19:57:47Z</time>
<desc>lat.=55.704330, lon.=26.086344, Alt.=141.287231m. Speed=0.072000m/h.</desc>
<speed>0.020000</speed>
</trkpt>
<trkpt lat="55.704330" lon="26.086344">
<ele>141.306763</ele>
<time>2010-07-17T19:57:48Z</time>
<desc>lat.=55.704330, lon.=26.086344, Alt.=141.306763m. Speed=0.000000m/h.</desc>
<speed>0.000000</speed>
</trkpt>
<trkpt lat="55.704330" lon="26.086344">
<ele>141.322388</ele>
<time>2010-07-17T19:57:49Z</time>
<desc>lat.=55.704330, lon.=26.086344, Alt.=141.322388m. Speed=0.036000m/h.</desc>
<speed>0.010000</speed>
</trkpt>
<trkpt lat="55.704330" lon="26.086344">
<ele>141.349731</ele>
<time>2010-07-17T19:57:50Z</time>
<desc>lat.=55.704330, lon.=26.086344, Alt.=141.349731m. Speed=0.000000m/h.</desc>
<speed>0.000000</speed>
</trkpt>
<trkpt lat="55.704330" lon="26.086344">
<ele>141.369263</ele>
<time>2010-07-17T19:57:51Z</time>
<desc>lat.=55.704330, lon.=26.086344, Alt.=141.369263m. Speed=0.036000m/h.</desc>
<speed>0.010000</speed>
</trkpt>
<trkpt lat="55.704330" lon="26.086344">
<ele>141.396606</ele>
<time>2010-07-17T19:57:52Z</time>
<desc>lat.=55.704330, lon.=26.086344, Alt.=141.396606m. Speed=0.108000m/h.</desc>
<speed>0.030000</speed>
</trkpt>
<trkpt lat="55.704330" lon="26.086344">
<ele>141.416138</ele>
<time>2010-07-17T19:57:53Z</time>
<desc>lat.=55.704330, lon.=26.086344, Alt.=141.416138m. Speed=0.036000m/h.</desc>
<speed>0.010000</speed>
</trkpt>
<trkpt lat="55.704330" lon="26.086346">
<ele>141.435669</ele>
<time>2010-07-17T19:57:54Z</time>
<desc>lat.=55.704330, lon.=26.086346, Alt.=141.435669m. Speed=0.000000m/h.</desc>
<speed>0.000000</speed>
</trkpt>
<trkpt lat="55.704330" lon="26.086346">
<ele>141.451294</ele>
<time>2010-07-17T19:57:55Z</time>
<desc>lat.=55.704330, lon.=26.086346, Alt.=141.451294m. Speed=0.036000m/h.</desc>
<speed>0.010000</speed>
</trkpt>
<trkpt lat="55.704330" lon="26.086346">
<ele>141.470825</ele>
<time>2010-07-17T19:57:56Z</time>
<desc>lat.=55.704330, lon.=26.086346, Alt.=141.470825m. Speed=0.036000m/h.</desc>
<speed>0.010000</speed>
</trkpt>
<trkpt lat="55.704330" lon="26.086346">
<ele>141.486450</ele>
<time>2010-07-17T19:57:57Z</time>
<desc>lat.=55.704330, lon.=26.086346, Alt.=141.486450m. Speed=0.000000m/h.</desc>
<speed>0.000000</speed>
</trkpt>
<trkpt lat="55.704330" lon="26.086346">
<ele>141.505981</ele>
<time>2010-07-17T19:57:58Z</time>
<desc>lat.=55.704330, lon.=26.086346, Alt.=141.505981m. Speed=0.072000m/h.</desc>
<speed>0.020000</speed>
</trkpt>
<trkpt lat="55.704330" lon="26.086346">
<ele>141.525513</ele>
<time>2010-07-17T19:57:59Z</time>
<desc>lat.=55.704330, lon.=26.086346, Alt.=141.525513m. Speed=0.072000m/h.</desc>
<speed>0.020000</speed>
</trkpt>
<trkpt lat="55.704330" lon="26.086346">
<ele>141.548950</ele>
<time>2010-07-17T19:58:00Z</time>
<desc>lat.=55.704330, lon.=26.086346, Alt.=141.548950m. Speed=0.108000m/h.</desc>
<speed>0.030000</speed>
</trkpt>
<trkpt lat="55.704330" lon="26.086346">
<ele>141.572388</ele>
<time>2010-07-17T19:58:01Z</time>
<desc>lat.=55.704330, lon.=26.086346, Alt.=141.572388m. Speed=0.072000m/h.</desc>
<speed>0.020000</speed>
</trkpt>
<trkpt lat="55.704330" lon="26.086346">
<ele>141.603638</ele>
<time>2010-07-17T19:58:02Z</time>
<desc>lat.=55.704330, lon.=26.086346, Alt.=141.603638m. Speed=0.072000m/h.</desc>
<speed>0.020000</speed>
</trkpt>
<trkpt lat="55.704330" lon="26.086346">
<ele>141.619263</ele>
<time>2010-07-17T19:58:03Z</time>
<desc>lat.=55.704330, lon.=26.086346, Alt.=141.619263m. Speed=0.036000m/h.</desc>
<speed>0.010000</speed>
</trkpt>
<trkpt lat="55.704330" lon="26.086346">
<ele>141.638794</ele>
<time>2010-07-17T19:58:04Z</time>
<desc>lat.=55.704330, lon.=26.086346, Alt.=141.638794m. Speed=0.108000m/h.</desc>
<speed>0.030000</speed>
</trkpt>
<trkpt lat="55.704330" lon="26.086346">
<ele>141.658325</ele>
<time>2010-07-17T19:58:05Z</time>
<desc>lat.=55.704330, lon.=26.086346, Alt.=141.658325m. Speed=0.108000m/h.</desc>
<speed>0.030000</speed>
</trkpt>
<trkpt lat="55.704330" lon="26.086346">
<ele>141.677856</ele>
<time>2010-07-17T19:58:06Z</time>
<desc>lat.=55.704330, lon.=26.086346, Alt.=141.677856m. Speed=0.108000m/h.</desc>
<speed>0.030000</speed>
</trkpt>
<trkpt lat="55.704330" lon="26.086346">
<ele>141.689575</ele>
<time>2010-07-17T19:58:07Z</time>
<desc>lat.=55.704330, lon.=26.086346, Alt.=141.689575m. Speed=0.072000m/h.</desc>
<speed>0.020000</speed>
</trkpt>
<trkpt lat="55.704330" lon="26.086346">
<ele>141.705200</ele>
<time>2010-07-17T19:58:08Z</time>
<desc>lat.=55.704330, lon.=26.086346, Alt.=141.705200m. Speed=0.000000m/h.</desc>
<speed>0.000000</speed>
</trkpt>
<trkpt lat="55.704330" lon="26.086346">
<ele>141.716919</ele>
<time>2010-07-17T19:58:09Z</time>
<desc>lat.=55.704330, lon.=26.086346, Alt.=141.716919m. Speed=0.000000m/h.</desc>
<speed>0.000000</speed>
</trkpt>
<trkpt lat="55.704330" lon="26.086346">
<ele>141.732544</ele>
<time>2010-07-17T19:58:10Z</time>
<desc>lat.=55.704330, lon.=26.086346, Alt.=141.732544m. Speed=0.036000m/h.</desc>
<speed>0.010000</speed>
</trkpt>
<trkpt lat="55.704330" lon="26.086346">
<ele>141.752075</ele>
<time>2010-07-17T19:58:11Z</time>
<desc>lat.=55.704330, lon.=26.086346, Alt.=141.752075m. Speed=0.036000m/h.</desc>
<speed>0.010000</speed>
</trkpt>
<trkpt lat="55.704330" lon="26.086346">
<ele>141.775513</ele>
<time>2010-07-17T19:58:12Z</time>
<desc>lat.=55.704330, lon.=26.086346, Alt.=141.775513m. Speed=0.000000m/h.</desc>
<speed>0.000000</speed>
</trkpt>
<trkpt lat="55.704330" lon="26.086346">
<ele>141.791138</ele>
<time>2010-07-17T19:58:13Z</time>
<desc>lat.=55.704330, lon.=26.086346, Alt.=141.791138m. Speed=0.036000m/h.</desc>
<speed>0.010000</speed>
</trkpt>
<trkpt lat="55.704330" lon="26.086346">
<ele>141.810669</ele>
<time>2010-07-17T19:58:14Z</time>
<desc>lat.=55.704330, lon.=26.086346, Alt.=141.810669m. Speed=0.036000m/h.</desc>
<speed>0.010000</speed>
</trkpt>
<trkpt lat="55.704330" lon="26.086346">
<ele>141.834106</ele>
<time>2010-07-17T19:58:15Z</time>
<desc>lat.=55.704330, lon.=26.086346, Alt.=141.834106m. Speed=0.072000m/h.</desc>
<speed>0.020000</speed>
</trkpt>
<trkpt lat="55.704330" lon="26.086348">
<ele>141.845825</ele>
<time>2010-07-17T19:58:16Z</time>
<desc>lat.=55.704330, lon.=26.086348, Alt.=141.845825m. Speed=0.108000m/h.</desc>
<speed>0.030000</speed>
</trkpt>
<trkpt lat="55.704330" lon="26.086346">
<ele>141.857544</ele>
<time>2010-07-17T19:58:17Z</time>
<desc>lat.=55.704330, lon.=26.086346, Alt.=141.857544m. Speed=0.108000m/h.</desc>
<speed>0.030000</speed>
</trkpt>
<trkpt lat="55.704330" lon="26.086346">
<ele>141.869263</ele>
<time>2010-07-17T19:58:18Z</time>
<desc>lat.=55.704330, lon.=26.086346, Alt.=141.869263m. Speed=0.072000m/h.</desc>
<speed>0.020000</speed>
</trkpt>
<trkpt lat="55.704330" lon="26.086346">
<ele>141.877075</ele>
<time>2010-07-17T19:58:19Z</time>
<desc>lat.=55.704330, lon.=26.086346, Alt.=141.877075m. Speed=0.036000m/h.</desc>
<speed>0.010000</speed>
</trkpt>
<trkpt lat="55.704330" lon="26.086346">
<ele>141.884888</ele>
<time>2010-07-17T19:58:20Z</time>
<desc>lat.=55.704330, lon.=26.086346, Alt.=141.884888m. Speed=0.000000m/h.</desc>
<speed>0.000000</speed>
</trkpt>
<trkpt lat="55.704330" lon="26.086346">
<ele>141.896606</ele>
<time>2010-07-17T19:58:21Z</time>
<desc>lat.=55.704330, lon.=26.086346, Alt.=141.896606m. Speed=0.072000m/h.</desc>
<speed>0.020000</speed>
</trkpt>
<trkpt lat="55.704330" lon="26.086348">
<ele>141.912231</ele>
<time>2010-07-17T19:58:22Z</time>
<desc>lat.=55.704330, lon.=26.086348, Alt.=141.912231m. Speed=0.072000m/h.</desc>
<speed>0.020000</speed>
</trkpt>
<trkpt lat="55.704330" lon="26.086348">
<ele>141.916138</ele>
<time>2010-07-17T19:58:23Z</time>
<desc>lat.=55.704330, lon.=26.086348, Alt.=141.916138m. Speed=0.036000m/h.</desc>
<speed>0.010000</speed>
</trkpt>
<trkpt lat="55.704330" lon="26.086348">
<ele>141.923950</ele>
<time>2010-07-17T19:58:24Z</time>
<desc>lat.=55.704330, lon.=26.086348, Alt.=141.923950m. Speed=0.036000m/h.</desc>
<speed>0.010000</speed>
</trkpt>
<trkpt lat="55.704330" lon="26.086348">
<ele>141.943481</ele>
<time>2010-07-17T19:58:25Z</time>
<desc>lat.=55.704330, lon.=26.086348, Alt.=141.943481m. Speed=0.108000m/h.</desc>
<speed>0.030000</speed>
</trkpt>
<trkpt lat="55.704330" lon="26.086348">
<ele>141.955200</ele>
<time>2010-07-17T19:58:26Z</time>
<desc>lat.=55.704330, lon.=26.086348, Alt.=141.955200m. Speed=0.072000m/h.</desc>
<speed>0.020000</speed>
</trkpt>
<trkpt lat="55.704330" lon="26.086348">
<ele>141.966919</ele>
<time>2010-07-17T19:58:27Z</time>
<desc>lat.=55.704330, lon.=26.086348, Alt.=141.966919m. Speed=0.036000m/h.</desc>
<speed>0.010000</speed>
</trkpt>
<trkpt lat="55.704330" lon="26.086348">
<ele>141.982544</ele>
<time>2010-07-17T19:58:28Z</time>
<desc>lat.=55.704330, lon.=26.086348, Alt.=141.982544m. Speed=0.036000m/h.</desc>
<speed>0.010000</speed>
</trkpt>
<trkpt lat="55.704330" lon="26.086348">
<ele>141.994263</ele>
<time>2010-07-17T19:58:29Z</time>
<desc>lat.=55.704330, lon.=26.086348, Alt.=141.994263m. Speed=0.036000m/h.</desc>
<speed>0.010000</speed>
</trkpt>
<trkpt lat="55.704330" lon="26.086348">
<ele>142.002075</ele>
<time>2010-07-17T19:58:30Z</time>
<desc>lat.=55.704330, lon.=26.086348, Alt.=142.002075m. Speed=0.036000m/h.</desc>
<speed>0.010000</speed>
</trkpt>
<trkpt lat="55.704330" lon="26.086348">
<ele>142.005981</ele>
<time>2010-07-17T19:58:31Z</time>
<desc>lat.=55.704330, lon.=26.086348, Alt.=142.005981m. Speed=0.072000m/h.</desc>
<speed>0.020000</speed>
</trkpt>
<trkpt lat="55.704330" lon="26.086348">
<ele>142.005981</ele>
<time>2010-07-17T19:58:32Z</time>
<desc>lat.=55.704330, lon.=26.086348, Alt.=142.005981m. Speed=0.036000m/h.</desc>
<speed>0.010000</speed>
</trkpt>
<trkpt lat="55.704330" lon="26.086348">
<ele>142.013794</ele>
<time>2010-07-17T19:58:33Z</time>
<desc>lat.=55.704330, lon.=26.086348, Alt.=142.013794m. Speed=0.036000m/h.</desc>
<speed>0.010000</speed>
</trkpt>
<trkpt lat="55.704330" lon="26.086348">
<ele>142.017700</ele>
<time>2010-07-17T19:58:34Z</time>
<desc>lat.=55.704330, lon.=26.086348, Alt.=142.017700m. Speed=0.108000m/h.</desc>
<speed>0.030000</speed>
</trkpt>
<trkpt lat="55.704330" lon="26.086348">
<ele>142.025513</ele>
<time>2010-07-17T19:58:35Z</time>
<desc>lat.=55.704330, lon.=26.086348, Alt.=142.025513m. Speed=0.036000m/h.</desc>
<speed>0.010000</speed>
</trkpt>
<trkpt lat="55.704330" lon="26.086348">
<ele>142.029419</ele>
<time>2010-07-17T19:58:36Z</time>
<desc>lat.=55.704330, lon.=26.086348, Alt.=142.029419m. Speed=0.000000m/h.</desc>
<speed>0.000000</speed>
</trkpt>
<trkpt lat="55.704330" lon="26.086348">
<ele>142.037231</ele>
<time>2010-07-17T19:58:37Z</time>
<desc>lat.=55.704330, lon.=26.086348, Alt.=142.037231m. Speed=0.108000m/h.</desc>
<speed>0.030000</speed>
</trkpt>
<trkpt lat="55.704330" lon="26.086348">
<ele>142.045044</ele>
<time>2010-07-17T19:58:38Z</time>
<desc>lat.=55.704330, lon.=26.086348, Alt.=142.045044m. Speed=0.108000m/h.</desc>
<speed>0.030000</speed>
</trkpt>
<trkpt lat="55.704330" lon="26.086348">
<ele>142.052856</ele>
<time>2010-07-17T19:58:39Z</time>
<desc>lat.=55.704330, lon.=26.086348, Alt.=142.052856m. Speed=0.108000m/h.</desc>
<speed>0.030000</speed>
</trkpt>
<trkpt lat="55.704330" lon="26.086348">
<ele>142.060669</ele>
<time>2010-07-17T19:58:40Z</time>
<desc>lat.=55.704330, lon.=26.086348, Alt.=142.060669m. Speed=0.072000m/h.</desc>
<speed>0.020000</speed>
</trkpt>
<trkpt lat="55.704330" lon="26.086349">
<ele>142.068481</ele>
<time>2010-07-17T19:58:41Z</time>
<desc>lat.=55.704330, lon.=26.086349, Alt.=142.068481m. Speed=0.108000m/h.</desc>
<speed>0.030000</speed>
</trkpt>
<trkpt lat="55.704330" lon="26.086349">
<ele>142.072388</ele>
<time>2010-07-17T19:58:42Z</time>
<desc>lat.=55.704330, lon.=26.086349, Alt.=142.072388m. Speed=0.108000m/h.</desc>
<speed>0.030000</speed>
</trkpt>
<trkpt lat="55.704330" lon="26.086349">
<ele>142.072388</ele>
<time>2010-07-17T19:58:43Z</time>
<desc>lat.=55.704330, lon.=26.086349, Alt.=142.072388m. Speed=0.072000m/h.</desc>
<speed>0.020000</speed>
</trkpt>
<trkpt lat="55.704330" lon="26.086349">
<ele>142.072388</ele>
<time>2010-07-17T19:58:44Z</time>
<desc>lat.=55.704330, lon.=26.086349, Alt.=142.072388m. Speed=0.000000m/h.</desc>
<speed>0.000000</speed>
</trkpt>
<trkpt lat="55.704330" lon="26.086349">
<ele>142.072388</ele>
<time>2010-07-17T19:58:45Z</time>
<desc>lat.=55.704330, lon.=26.086349, Alt.=142.072388m. Speed=0.072000m/h.</desc>
<speed>0.020000</speed>
</trkpt>
<trkpt lat="55.704330" lon="26.086349">
<ele>142.072388</ele>
<time>2010-07-17T19:58:46Z</time>
<desc>lat.=55.704330, lon.=26.086349, Alt.=142.072388m. Speed=0.072000m/h.</desc>
<speed>0.020000</speed>
</trkpt>
<trkpt lat="55.704330" lon="26.086349">
<ele>142.068481</ele>
<time>2010-07-17T19:58:47Z</time>
<desc>lat.=55.704330, lon.=26.086349, Alt.=142.068481m. Speed=0.000000m/h.</desc>
<speed>0.000000</speed>
</trkpt>
<trkpt lat="55.704330" lon="26.086349">
<ele>142.068481</ele>
<time>2010-07-17T19:58:48Z</time>
<desc>lat.=55.704330, lon.=26.086349, Alt.=142.068481m. Speed=0.000000m/h.</desc>
<speed>0.000000</speed>
</trkpt>
<trkpt lat="55.704330" lon="26.086349">
<ele>142.068481</ele>
<time>2010-07-17T19:58:49Z</time>
<desc>lat.=55.704330, lon.=26.086349, Alt.=142.068481m. Speed=0.000000m/h.</desc>
<speed>0.000000</speed>
</trkpt>
<trkpt lat="55.704330" lon="26.086349">
<ele>142.068481</ele>
<time>2010-07-17T19:58:50Z</time>
<desc>lat.=55.704330, lon.=26.086349, Alt.=142.068481m. Speed=0.072000m/h.</desc>
<speed>0.020000</speed>
</trkpt>
<trkpt lat="55.704330" lon="26.086349">
<ele>142.072388</ele>
<time>2010-07-17T19:58:51Z</time>
<desc>lat.=55.704330, lon.=26.086349, Alt.=142.072388m. Speed=0.036000m/h.</desc>
<speed>0.010000</speed>
</trkpt>
<trkpt lat="55.704327" lon="26.086349">
<ele>142.076294</ele>
<time>2010-07-17T19:58:52Z</time>
<desc>lat.=55.704327, lon.=26.086349, Alt.=142.076294m. Speed=0.108000m/h.</desc>
<speed>0.030000</speed>
</trkpt>
<trkpt lat="55.704327" lon="26.086349">
<ele>142.080200</ele>
<time>2010-07-17T19:58:53Z</time>
<desc>lat.=55.704327, lon.=26.086349, Alt.=142.080200m. Speed=0.072000m/h.</desc>
<speed>0.020000</speed>
</trkpt>
<trkpt lat="55.704327" lon="26.086349">
<ele>142.080200</ele>
<time>2010-07-17T19:58:54Z</time>
<desc>lat.=55.704327, lon.=26.086349, Alt.=142.080200m. Speed=0.072000m/h.</desc>
<speed>0.020000</speed>
</trkpt>
<trkpt lat="55.704327" lon="26.086349">
<ele>142.084106</ele>
<time>2010-07-17T19:58:55Z</time>
<desc>lat.=55.704327, lon.=26.086349, Alt.=142.084106m. Speed=0.072000m/h.</desc>
<speed>0.020000</speed>
</trkpt>
<trkpt lat="55.704327" lon="26.086349">
<ele>142.084106</ele>
<time>2010-07-17T19:58:56Z</time>
<desc>lat.=55.704327, lon.=26.086349, Alt.=142.084106m. Speed=0.108000m/h.</desc>
<speed>0.030000</speed>
</trkpt>
<trkpt lat="55.704327" lon="26.086349">
<ele>142.084106</ele>
<time>2010-07-17T19:58:57Z</time>
<desc>lat.=55.704327, lon.=26.086349, Alt.=142.084106m. Speed=0.036000m/h.</desc>
<speed>0.010000</speed>
</trkpt>
<trkpt lat="55.704327" lon="26.086349">
<ele>142.084106</ele>
<time>2010-07-17T19:58:58Z</time>
<desc>lat.=55.704327, lon.=26.086349, Alt.=142.084106m. Speed=0.036000m/h.</desc>
<speed>0.010000</speed>
</trkpt>
<trkpt lat="55.704327" lon="26.086349">
<ele>142.084106</ele>
<time>2010-07-17T19:58:59Z</time>
<desc>lat.=55.704327, lon.=26.086349, Alt.=142.084106m. Speed=0.036000m/h.</desc>
<speed>0.010000</speed>
</trkpt>
<trkpt lat="55.704327" lon="26.086349">
<ele>142.084106</ele>
<time>2010-07-17T19:59:00Z</time>
<desc>lat.=55.704327, lon.=26.086349, Alt.=142.084106m. Speed=0.036000m/h.</desc>
<speed>0.010000</speed>
</trkpt>
<trkpt lat="55.704327" lon="26.086349">
<ele>142.084106</ele>
<time>2010-07-17T19:59:01Z</time>
<desc>lat.=55.704327, lon.=26.086349, Alt.=142.084106m. Speed=0.036000m/h.</desc>
<speed>0.010000</speed>
</trkpt>
<trkpt lat="55.704327" lon="26.086349">
<ele>142.088013</ele>
<time>2010-07-17T19:59:02Z</time>
<desc>lat.=55.704327, lon.=26.086349, Alt.=142.088013m. Speed=0.072000m/h.</desc>
<speed>0.020000</speed>
</trkpt>
<trkpt lat="55.704327" lon="26.086349">
<ele>142.095825</ele>
<time>2010-07-17T19:59:03Z</time>
<desc>lat.=55.704327, lon.=26.086349, Alt.=142.095825m. Speed=0.072000m/h.</desc>
<speed>0.020000</speed>
</trkpt>
<trkpt lat="55.704327" lon="26.086349">
<ele>142.099731</ele>
<time>2010-07-17T19:59:04Z</time>
<desc>lat.=55.704327, lon.=26.086349, Alt.=142.099731m. Speed=0.072000m/h.</desc>
<speed>0.020000</speed>
</trkpt>
<trkpt lat="55.704327" lon="26.086349">
<ele>142.103638</ele>
<time>2010-07-17T19:59:05Z</time>
<desc>lat.=55.704327, lon.=26.086349, Alt.=142.103638m. Speed=0.180000m/h.</desc>
<speed>0.050000</speed>
</trkpt>
<trkpt lat="55.704327" lon="26.086349">
<ele>142.111450</ele>
<time>2010-07-17T19:59:06Z</time>
<desc>lat.=55.704327, lon.=26.086349, Alt.=142.111450m. Speed=0.144000m/h.</desc>
<speed>0.040000</speed>
</trkpt>
<trkpt lat="55.704327" lon="26.086351">
<ele>142.119263</ele>
<time>2010-07-17T19:59:07Z</time>
<desc>lat.=55.704327, lon.=26.086351, Alt.=142.119263m. Speed=0.072000m/h.</desc>
<speed>0.020000</speed>
</trkpt>
<trkpt lat="55.704327" lon="26.086351">
<ele>142.123169</ele>
<time>2010-07-17T19:59:08Z</time>
<desc>lat.=55.704327, lon.=26.086351, Alt.=142.123169m. Speed=0.108000m/h.</desc>
<speed>0.030000</speed>
</trkpt>
<trkpt lat="55.704327" lon="26.086351">
<ele>142.127075</ele>
<time>2010-07-17T19:59:09Z</time>
<desc>lat.=55.704327, lon.=26.086351, Alt.=142.127075m. Speed=0.144000m/h.</desc>
<speed>0.040000</speed>
</trkpt>
<trkpt lat="55.704327" lon="26.086351">
<ele>142.134888</ele>
<time>2010-07-17T19:59:10Z</time>
<desc>lat.=55.704327, lon.=26.086351, Alt.=142.134888m. Speed=0.036000m/h.</desc>
<speed>0.010000</speed>
</trkpt>
<trkpt lat="55.704327" lon="26.086351">
<ele>142.142700</ele>
<time>2010-07-17T19:59:11Z</time>
<desc>lat.=55.704327, lon.=26.086351, Alt.=142.142700m. Speed=0.072000m/h.</desc>
<speed>0.020000</speed>
</trkpt>
<trkpt lat="55.704327" lon="26.086351">
<ele>142.142700</ele>
<time>2010-07-17T19:59:12Z</time>
<desc>lat.=55.704327, lon.=26.086351, Alt.=142.142700m. Speed=0.108000m/h.</desc>
<speed>0.030000</speed>
</trkpt>
<trkpt lat="55.704327" lon="26.086351">
<ele>142.150513</ele>
<time>2010-07-17T19:59:13Z</time>
<desc>lat.=55.704327, lon.=26.086351, Alt.=142.150513m. Speed=0.072000m/h.</desc>
<speed>0.020000</speed>
</trkpt>
<trkpt lat="55.704327" lon="26.086351">
<ele>142.162231</ele>
<time>2010-07-17T19:59:14Z</time>
<desc>lat.=55.704327, lon.=26.086351, Alt.=142.162231m. Speed=0.000000m/h.</desc>
<speed>0.000000</speed>
</trkpt>
<trkpt lat="55.704327" lon="26.086351">
<ele>142.170044</ele>
<time>2010-07-17T19:59:15Z</time>
<desc>lat.=55.704327, lon.=26.086351, Alt.=142.170044m. Speed=0.072000m/h.</desc>
<speed>0.020000</speed>
</trkpt>
<trkpt lat="55.704327" lon="26.086351">
<ele>142.181763</ele>
<time>2010-07-17T19:59:16Z</time>
<desc>lat.=55.704327, lon.=26.086351, Alt.=142.181763m. Speed=0.108000m/h.</desc>
<speed>0.030000</speed>
</trkpt>
<trkpt lat="55.704327" lon="26.086353">
<ele>142.185669</ele>
<time>2010-07-17T19:59:17Z</time>
<desc>lat.=55.704327, lon.=26.086353, Alt.=142.185669m. Speed=0.108000m/h.</desc>
<speed>0.030000</speed>
</trkpt>
<trkpt lat="55.704327" lon="26.086353">
<ele>142.193481</ele>
<time>2010-07-17T19:59:18Z</time>
<desc>lat.=55.704327, lon.=26.086353, Alt.=142.193481m. Speed=0.108000m/h.</desc>
<speed>0.030000</speed>
</trkpt>
<trkpt lat="55.704327" lon="26.086353">
<ele>142.197388</ele>
<time>2010-07-17T19:59:19Z</time>
<desc>lat.=55.704327, lon.=26.086353, Alt.=142.197388m. Speed=0.108000m/h.</desc>
<speed>0.030000</speed>
</trkpt>
<trkpt lat="55.704327" lon="26.086353">
<ele>142.197388</ele>
<time>2010-07-17T19:59:20Z</time>
<desc>lat.=55.704327, lon.=26.086353, Alt.=142.197388m. Speed=0.036000m/h.</desc>
<speed>0.010000</speed>
</trkpt>
<trkpt lat="55.704327" lon="26.086353">
<ele>142.197388</ele>
<time>2010-07-17T19:59:21Z</time>
<desc>lat.=55.704327, lon.=26.086353, Alt.=142.197388m. Speed=0.108000m/h.</desc>
<speed>0.030000</speed>
</trkpt>
<trkpt lat="55.704327" lon="26.086353">
<ele>142.201294</ele>
<time>2010-07-17T19:59:22Z</time>
<desc>lat.=55.704327, lon.=26.086353, Alt.=142.201294m. Speed=0.108000m/h.</desc>
<speed>0.030000</speed>
</trkpt>
<trkpt lat="55.704327" lon="26.086353">
<ele>142.209106</ele>
<time>2010-07-17T19:59:23Z</time>
<desc>lat.=55.704327, lon.=26.086353, Alt.=142.209106m. Speed=0.072000m/h.</desc>
<speed>0.020000</speed>
</trkpt>
<trkpt lat="55.704327" lon="26.086353">
<ele>142.216919</ele>
<time>2010-07-17T19:59:24Z</time>
<desc>lat.=55.704327, lon.=26.086353, Alt.=142.216919m. Speed=0.108000m/h.</desc>
<speed>0.030000</speed>
</trkpt>
<trkpt lat="55.704327" lon="26.086353">
<ele>142.220825</ele>
<time>2010-07-17T19:59:25Z</time>
<desc>lat.=55.704327, lon.=26.086353, Alt.=142.220825m. Speed=0.072000m/h.</desc>
<speed>0.020000</speed>
</trkpt>
<trkpt lat="55.704327" lon="26.086353">
<ele>142.224731</ele>
<time>2010-07-17T19:59:26Z</time>
<desc>lat.=55.704327, lon.=26.086353, Alt.=142.224731m. Speed=0.036000m/h.</desc>
<speed>0.010000</speed>
</trkpt>
<trkpt lat="55.704327" lon="26.086353">
<ele>142.224731</ele>
<time>2010-07-17T19:59:27Z</time>
<desc>lat.=55.704327, lon.=26.086353, Alt.=142.224731m. Speed=0.000000m/h.</desc>
<speed>0.000000</speed>
</trkpt>
<trkpt lat="55.704327" lon="26.086353">
<ele>142.224731</ele>
<time>2010-07-17T19:59:28Z</time>
<desc>lat.=55.704327, lon.=26.086353, Alt.=142.224731m. Speed=0.000000m/h.</desc>
<speed>0.000000</speed>
</trkpt>
<trkpt lat="55.704327" lon="26.086353">
<ele>142.232544</ele>
<time>2010-07-17T19:59:29Z</time>
<desc>lat.=55.704327, lon.=26.086353, Alt.=142.232544m. Speed=0.036000m/h.</desc>
<speed>0.010000</speed>
</trkpt>
<trkpt lat="55.704327" lon="26.086353">
<ele>142.236450</ele>
<time>2010-07-17T19:59:30Z</time>
<desc>lat.=55.704327, lon.=26.086353, Alt.=142.236450m. Speed=0.108000m/h.</desc>
<speed>0.030000</speed>
</trkpt>
<trkpt lat="55.704327" lon="26.086353">
<ele>142.244263</ele>
<time>2010-07-17T19:59:31Z</time>
<desc>lat.=55.704327, lon.=26.086353, Alt.=142.244263m. Speed=0.036000m/h.</desc>
<speed>0.010000</speed>
</trkpt>
<trkpt lat="55.704327" lon="26.086355">
<ele>142.252075</ele>
<time>2010-07-17T19:59:32Z</time>
<desc>lat.=55.704327, lon.=26.086355, Alt.=142.252075m. Speed=0.036000m/h.</desc>
<speed>0.010000</speed>
</trkpt>
<trkpt lat="55.704327" lon="26.086355">
<ele>142.255981</ele>
<time>2010-07-17T19:59:33Z</time>
<desc>lat.=55.704327, lon.=26.086355, Alt.=142.255981m. Speed=0.180000m/h.</desc>
<speed>0.050000</speed>
</trkpt>
<trkpt lat="55.704327" lon="26.086355">
<ele>142.267700</ele>
<time>2010-07-17T19:59:34Z</time>
<desc>lat.=55.704327, lon.=26.086355, Alt.=142.267700m. Speed=0.108000m/h.</desc>
<speed>0.030000</speed>
</trkpt>
<trkpt lat="55.704327" lon="26.086355">
<ele>142.279419</ele>
<time>2010-07-17T19:59:35Z</time>
<desc>lat.=55.704327, lon.=26.086355, Alt.=142.279419m. Speed=0.036000m/h.</desc>
<speed>0.010000</speed>
</trkpt>
<trkpt lat="55.704327" lon="26.086355">
<ele>142.283325</ele>
<time>2010-07-17T19:59:36Z</time>
<desc>lat.=55.704327, lon.=26.086355, Alt.=142.283325m. Speed=0.036000m/h.</desc>
<speed>0.010000</speed>
</trkpt>
<trkpt lat="55.704327" lon="26.086355">
<ele>142.287231</ele>
<time>2010-07-17T19:59:37Z</time>
<desc>lat.=55.704327, lon.=26.086355, Alt.=142.287231m. Speed=0.000000m/h.</desc>
<speed>0.000000</speed>
</trkpt>
<trkpt lat="55.704327" lon="26.086355">
<ele>142.295044</ele>
<time>2010-07-17T19:59:38Z</time>
<desc>lat.=55.704327, lon.=26.086355, Alt.=142.295044m. Speed=0.072000m/h.</desc>
<speed>0.020000</speed>
</trkpt>
<trkpt lat="55.704327" lon="26.086355">
<ele>142.306763</ele>
<time>2010-07-17T19:59:39Z</time>
<desc>lat.=55.704327, lon.=26.086355, Alt.=142.306763m. Speed=0.072000m/h.</desc>
<speed>0.020000</speed>
</trkpt>
<trkpt lat="55.704327" lon="26.086355">
<ele>142.322388</ele>
<time>2010-07-17T19:59:40Z</time>
<desc>lat.=55.704327, lon.=26.086355, Alt.=142.322388m. Speed=0.072000m/h.</desc>
<speed>0.020000</speed>
</trkpt>
<trkpt lat="55.704327" lon="26.086355">
<ele>142.326294</ele>
<time>2010-07-17T19:59:41Z</time>
<desc>lat.=55.704327, lon.=26.086355, Alt.=142.326294m. Speed=0.108000m/h.</desc>
<speed>0.030000</speed>
</trkpt>
<trkpt lat="55.704327" lon="26.086355">
<ele>142.330200</ele>
<time>2010-07-17T19:59:42Z</time>
<desc>lat.=55.704327, lon.=26.086355, Alt.=142.330200m. Speed=0.000000m/h.</desc>
<speed>0.000000</speed>
</trkpt>
<trkpt lat="55.704327" lon="26.086355">
<ele>142.345825</ele>
<time>2010-07-17T19:59:43Z</time>
<desc>lat.=55.704327, lon.=26.086355, Alt.=142.345825m. Speed=0.000000m/h.</desc>
<speed>0.000000</speed>
</trkpt>
<trkpt lat="55.704327" lon="26.086355">
<ele>142.357544</ele>
<time>2010-07-17T19:59:44Z</time>
<desc>lat.=55.704327, lon.=26.086355, Alt.=142.357544m. Speed=0.000000m/h.</desc>
<speed>0.000000</speed>
</trkpt>
<trkpt lat="55.704327" lon="26.086355">
<ele>142.361450</ele>
<time>2010-07-17T19:59:45Z</time>
<desc>lat.=55.704327, lon.=26.086355, Alt.=142.361450m. Speed=0.072000m/h.</desc>
<speed>0.020000</speed>
</trkpt>
<trkpt lat="55.704327" lon="26.086355">
<ele>142.361450</ele>
<time>2010-07-17T19:59:46Z</time>
<desc>lat.=55.704327, lon.=26.086355, Alt.=142.361450m. Speed=0.036000m/h.</desc>
<speed>0.010000</speed>
</trkpt>
<trkpt lat="55.704327" lon="26.086355">
<ele>142.365356</ele>
<time>2010-07-17T19:59:47Z</time>
<desc>lat.=55.704327, lon.=26.086355, Alt.=142.365356m. Speed=0.000000m/h.</desc>
<speed>0.000000</speed>
</trkpt>
<trkpt lat="55.704327" lon="26.086355">
<ele>142.373169</ele>
<time>2010-07-17T19:59:48Z</time>
<desc>lat.=55.704327, lon.=26.086355, Alt.=142.373169m. Speed=0.036000m/h.</desc>
<speed>0.010000</speed>
</trkpt>
<trkpt lat="55.704327" lon="26.086355">
<ele>142.377075</ele>
<time>2010-07-17T19:59:49Z</time>
<desc>lat.=55.704327, lon.=26.086355, Alt.=142.377075m. Speed=0.108000m/h.</desc>
<speed>0.030000</speed>
</trkpt>
<trkpt lat="55.704327" lon="26.086355">
<ele>142.384888</ele>
<time>2010-07-17T19:59:50Z</time>
<desc>lat.=55.704327, lon.=26.086355, Alt.=142.384888m. Speed=0.144000m/h.</desc>
<speed>0.040000</speed>
</trkpt>
<trkpt lat="55.704327" lon="26.086355">
<ele>142.392700</ele>
<time>2010-07-17T19:59:51Z</time>
<desc>lat.=55.704327, lon.=26.086355, Alt.=142.392700m. Speed=0.036000m/h.</desc>
<speed>0.010000</speed>
</trkpt>
<trkpt lat="55.704327" lon="26.086355">
<ele>142.404419</ele>
<time>2010-07-17T19:59:52Z</time>
<desc>lat.=55.704327, lon.=26.086355, Alt.=142.404419m. Speed=0.072000m/h.</desc>
<speed>0.020000</speed>
</trkpt>
<trkpt lat="55.704327" lon="26.086355">
<ele>142.404419</ele>
<time>2010-07-17T19:59:53Z</time>
<desc>lat.=55.704327, lon.=26.086355, Alt.=142.404419m. Speed=0.036000m/h.</desc>
<speed>0.010000</speed>
</trkpt>
<trkpt lat="55.704327" lon="26.086355">
<ele>142.408325</ele>
<time>2010-07-17T19:59:54Z</time>
<desc>lat.=55.704327, lon.=26.086355, Alt.=142.408325m. Speed=0.000000m/h.</desc>
<speed>0.000000</speed>
</trkpt>
<trkpt lat="55.704327" lon="26.086355">
<ele>142.416138</ele>
<time>2010-07-17T19:59:55Z</time>
<desc>lat.=55.704327, lon.=26.086355, Alt.=142.416138m. Speed=0.036000m/h.</desc>
<speed>0.010000</speed>
</trkpt>
<trkpt lat="55.704327" lon="26.086355">
<ele>142.423950</ele>
<time>2010-07-17T19:59:56Z</time>
<desc>lat.=55.704327, lon.=26.086355, Alt.=142.423950m. Speed=0.000000m/h.</desc>
<speed>0.000000</speed>
</trkpt>
<trkpt lat="55.704327" lon="26.086355">
<ele>142.431763</ele>
<time>2010-07-17T19:59:57Z</time>
<desc>lat.=55.704327, lon.=26.086355, Alt.=142.431763m. Speed=0.036000m/h.</desc>
<speed>0.010000</speed>
</trkpt>
<trkpt lat="55.704327" lon="26.086355">
<ele>142.435669</ele>
<time>2010-07-17T19:59:58Z</time>
<desc>lat.=55.704327, lon.=26.086355, Alt.=142.435669m. Speed=0.000000m/h.</desc>
<speed>0.000000</speed>
</trkpt>
<trkpt lat="55.704327" lon="26.086355">
<ele>142.439575</ele>
<time>2010-07-17T19:59:59Z</time>
<desc>lat.=55.704327, lon.=26.086355, Alt.=142.439575m. Speed=0.000000m/h.</desc>
<speed>0.000000</speed>
</trkpt>
<trkpt lat="55.704327" lon="26.086355">
<ele>142.443481</ele>
<time>2010-07-17T20:00:00Z</time>
<desc>lat.=55.704327, lon.=26.086355, Alt.=142.443481m. Speed=0.072000m/h.</desc>
<speed>0.020000</speed>
</trkpt>
<trkpt lat="55.704327" lon="26.086355">
<ele>142.451294</ele>
<time>2010-07-17T20:00:01Z</time>
<desc>lat.=55.704327, lon.=26.086355, Alt.=142.451294m. Speed=0.036000m/h.</desc>
<speed>0.010000</speed>
</trkpt>
<trkpt lat="55.704327" lon="26.086355">
<ele>142.451294</ele>
<time>2010-07-17T20:00:02Z</time>
<desc>lat.=55.704327, lon.=26.086355, Alt.=142.451294m. Speed=0.036000m/h.</desc>
<speed>0.010000</speed>
</trkpt>
<trkpt lat="55.704327" lon="26.086355">
<ele>142.451294</ele>
<time>2010-07-17T20:00:03Z</time>
<desc>lat.=55.704327, lon.=26.086355, Alt.=142.451294m. Speed=0.072000m/h.</desc>
<speed>0.020000</speed>
</trkpt>
<trkpt lat="55.704327" lon="26.086355">
<ele>142.463013</ele>
<time>2010-07-17T20:00:04Z</time>
<desc>lat.=55.704327, lon.=26.086355, Alt.=142.463013m. Speed=0.036000m/h.</desc>
<speed>0.010000</speed>
</trkpt>
<trkpt lat="55.704327" lon="26.086355">
<ele>142.470825</ele>
<time>2010-07-17T20:00:05Z</time>
<desc>lat.=55.704327, lon.=26.086355, Alt.=142.470825m. Speed=0.036000m/h.</desc>
<speed>0.010000</speed>
</trkpt>
<trkpt lat="55.704327" lon="26.086355">
<ele>142.478638</ele>
<time>2010-07-17T20:00:06Z</time>
<desc>lat.=55.704327, lon.=26.086355, Alt.=142.478638m. Speed=0.072000m/h.</desc>
<speed>0.020000</speed>
</trkpt>
<trkpt lat="55.704327" lon="26.086355">
<ele>142.486450</ele>
<time>2010-07-17T20:00:07Z</time>
<desc>lat.=55.704327, lon.=26.086355, Alt.=142.486450m. Speed=0.072000m/h.</desc>
<speed>0.020000</speed>
</trkpt>
<trkpt lat="55.704327" lon="26.086355">
<ele>142.498169</ele>
<time>2010-07-17T20:00:08Z</time>
<desc>lat.=55.704327, lon.=26.086355, Alt.=142.498169m. Speed=0.108000m/h.</desc>
<speed>0.030000</speed>
</trkpt>
<trkpt lat="55.704327" lon="26.086355">
<ele>142.502075</ele>
<time>2010-07-17T20:00:09Z</time>
<desc>lat.=55.704327, lon.=26.086355, Alt.=142.502075m. Speed=0.036000m/h.</desc>
<speed>0.010000</speed>
</trkpt>
<trkpt lat="55.704327" lon="26.086355">
<ele>142.509888</ele>
<time>2010-07-17T20:00:10Z</time>
<desc>lat.=55.704327, lon.=26.086355, Alt.=142.509888m. Speed=0.072000m/h.</desc>
<speed>0.020000</speed>
</trkpt>
<trkpt lat="55.704327" lon="26.086355">
<ele>142.513794</ele>
<time>2010-07-17T20:00:11Z</time>
<desc>lat.=55.704327, lon.=26.086355, Alt.=142.513794m. Speed=0.144000m/h.</desc>
<speed>0.040000</speed>
</trkpt>
<trkpt lat="55.704327" lon="26.086353">
<ele>142.521606</ele>
<time>2010-07-17T20:00:12Z</time>
<desc>lat.=55.704327, lon.=26.086353, Alt.=142.521606m. Speed=0.036000m/h.</desc>
<speed>0.010000</speed>
</trkpt>
<trkpt lat="55.704327" lon="26.086353">
<ele>142.525513</ele>
<time>2010-07-17T20:00:13Z</time>
<desc>lat.=55.704327, lon.=26.086353, Alt.=142.525513m. Speed=0.000000m/h.</desc>
<speed>0.000000</speed>
</trkpt>
<trkpt lat="55.704327" lon="26.086353">
<ele>142.525513</ele>
<time>2010-07-17T20:00:14Z</time>
<desc>lat.=55.704327, lon.=26.086353, Alt.=142.525513m. Speed=0.036000m/h.</desc>
<speed>0.010000</speed>
</trkpt>
<trkpt lat="55.704327" lon="26.086353">
<ele>142.537231</ele>
<time>2010-07-17T20:00:15Z</time>
<desc>lat.=55.704327, lon.=26.086353, Alt.=142.537231m. Speed=0.108000m/h.</desc>
<speed>0.030000</speed>
</trkpt>
<trkpt lat="55.704327" lon="26.086353">
<ele>142.541138</ele>
<time>2010-07-17T20:00:16Z</time>
<desc>lat.=55.704327, lon.=26.086353, Alt.=142.541138m. Speed=0.108000m/h.</desc>
<speed>0.030000</speed>
</trkpt>
<trkpt lat="55.704327" lon="26.086353">
<ele>142.545044</ele>
<time>2010-07-17T20:00:17Z</time>
<desc>lat.=55.704327, lon.=26.086353, Alt.=142.545044m. Speed=0.108000m/h.</desc>
<speed>0.030000</speed>
</trkpt>
<trkpt lat="55.704327" lon="26.086353">
<ele>142.548950</ele>
<time>2010-07-17T20:00:18Z</time>
<desc>lat.=55.704327, lon.=26.086353, Alt.=142.548950m. Speed=0.072000m/h.</desc>
<speed>0.020000</speed>
</trkpt>
<trkpt lat="55.704327" lon="26.086353">
<ele>142.560669</ele>
<time>2010-07-17T20:00:19Z</time>
<desc>lat.=55.704327, lon.=26.086353, Alt.=142.560669m. Speed=0.072000m/h.</desc>
<speed>0.020000</speed>
</trkpt>
<trkpt lat="55.704327" lon="26.086353">
<ele>142.572388</ele>
<time>2010-07-17T20:00:20Z</time>
<desc>lat.=55.704327, lon.=26.086353, Alt.=142.572388m. Speed=0.036000m/h.</desc>
<speed>0.010000</speed>
</trkpt>
<trkpt lat="55.704327" lon="26.086353">
<ele>142.580200</ele>
<time>2010-07-17T20:00:21Z</time>
<desc>lat.=55.704327, lon.=26.086353, Alt.=142.580200m. Speed=0.108000m/h.</desc>
<speed>0.030000</speed>
</trkpt>
<trkpt lat="55.704327" lon="26.086353">
<ele>142.584106</ele>
<time>2010-07-17T20:00:22Z</time>
<desc>lat.=55.704327, lon.=26.086353, Alt.=142.584106m. Speed=0.036000m/h.</desc>
<speed>0.010000</speed>
</trkpt>
<trkpt lat="55.704327" lon="26.086353">
<ele>142.588013</ele>
<time>2010-07-17T20:00:23Z</time>
<desc>lat.=55.704327, lon.=26.086353, Alt.=142.588013m. Speed=0.036000m/h.</desc>
<speed>0.010000</speed>
</trkpt>
<trkpt lat="55.704327" lon="26.086353">
<ele>142.599731</ele>
<time>2010-07-17T20:00:24Z</time>
<desc>lat.=55.704327, lon.=26.086353, Alt.=142.599731m. Speed=0.072000m/h.</desc>
<speed>0.020000</speed>
</trkpt>
<trkpt lat="55.704327" lon="26.086353">
<ele>142.611450</ele>
<time>2010-07-17T20:00:25Z</time>
<desc>lat.=55.704327, lon.=26.086353, Alt.=142.611450m. Speed=0.000000m/h.</desc>
<speed>0.000000</speed>
</trkpt>
<trkpt lat="55.704327" lon="26.086353">
<ele>142.623169</ele>
<time>2010-07-17T20:00:26Z</time>
<desc>lat.=55.704327, lon.=26.086353, Alt.=142.623169m. Speed=0.000000m/h.</desc>
<speed>0.000000</speed>
</trkpt>
<trkpt lat="55.704327" lon="26.086353">
<ele>142.638794</ele>
<time>2010-07-17T20:00:27Z</time>
<desc>lat.=55.704327, lon.=26.086353, Alt.=142.638794m. Speed=0.036000m/h.</desc>
<speed>0.010000</speed>
</trkpt>
<trkpt lat="55.704327" lon="26.086353">
<ele>142.646606</ele>
<time>2010-07-17T20:00:28Z</time>
<desc>lat.=55.704327, lon.=26.086353, Alt.=142.646606m. Speed=0.072000m/h.</desc>
<speed>0.020000</speed>
</trkpt>
<trkpt lat="55.704327" lon="26.086353">
<ele>142.654419</ele>
<time>2010-07-17T20:00:29Z</time>
<desc>lat.=55.704327, lon.=26.086353, Alt.=142.654419m. Speed=0.072000m/h.</desc>
<speed>0.020000</speed>
</trkpt>
<trkpt lat="55.704327" lon="26.086353">
<ele>142.666138</ele>
<time>2010-07-17T20:00:30Z</time>
<desc>lat.=55.704327, lon.=26.086353, Alt.=142.666138m. Speed=0.036000m/h.</desc>
<speed>0.010000</speed>
</trkpt>
<trkpt lat="55.704327" lon="26.086353">
<ele>142.673950</ele>
<time>2010-07-17T20:00:31Z</time>
<desc>lat.=55.704327, lon.=26.086353, Alt.=142.673950m. Speed=0.072000m/h.</desc>
<speed>0.020000</speed>
</trkpt>
<trkpt lat="55.704327" lon="26.086353">
<ele>142.685669</ele>
<time>2010-07-17T20:00:32Z</time>
<desc>lat.=55.704327, lon.=26.086353, Alt.=142.685669m. Speed=0.108000m/h.</desc>
<speed>0.030000</speed>
</trkpt>
<trkpt lat="55.704327" lon="26.086353">
<ele>142.693481</ele>
<time>2010-07-17T20:00:33Z</time>
<desc>lat.=55.704327, lon.=26.086353, Alt.=142.693481m. Speed=0.072000m/h.</desc>
<speed>0.020000</speed>
</trkpt>
<trkpt lat="55.704330" lon="26.086353">
<ele>142.701294</ele>
<time>2010-07-17T20:00:34Z</time>
<desc>lat.=55.704330, lon.=26.086353, Alt.=142.701294m. Speed=0.072000m/h.</desc>
<speed>0.020000</speed>
</trkpt>
<trkpt lat="55.704330" lon="26.086353">
<ele>142.713013</ele>
<time>2010-07-17T20:00:35Z</time>
<desc>lat.=55.704330, lon.=26.086353, Alt.=142.713013m. Speed=0.000000m/h.</desc>
<speed>0.000000</speed>
</trkpt>
<trkpt lat="55.704330" lon="26.086353">
<ele>142.720825</ele>
<time>2010-07-17T20:00:36Z</time>
<desc>lat.=55.704330, lon.=26.086353, Alt.=142.720825m. Speed=0.000000m/h.</desc>
<speed>0.000000</speed>
</trkpt>
<trkpt lat="55.704330" lon="26.086353">
<ele>142.736450</ele>
<time>2010-07-17T20:00:37Z</time>
<desc>lat.=55.704330, lon.=26.086353, Alt.=142.736450m. Speed=0.036000m/h.</desc>
<speed>0.010000</speed>
</trkpt>
<trkpt lat="55.704330" lon="26.086353">
<ele>142.744263</ele>
<time>2010-07-17T20:00:38Z</time>
<desc>lat.=55.704330, lon.=26.086353, Alt.=142.744263m. Speed=0.000000m/h.</desc>
<speed>0.000000</speed>
</trkpt>
<trkpt lat="55.704330" lon="26.086353">
<ele>142.752075</ele>
<time>2010-07-17T20:00:39Z</time>
<desc>lat.=55.704330, lon.=26.086353, Alt.=142.752075m. Speed=0.072000m/h.</desc>
<speed>0.020000</speed>
</trkpt>
<trkpt lat="55.704330" lon="26.086353">
<ele>142.755981</ele>
<time>2010-07-17T20:00:40Z</time>
<desc>lat.=55.704330, lon.=26.086353, Alt.=142.755981m. Speed=0.108000m/h.</desc>
<speed>0.030000</speed>
</trkpt>
<trkpt lat="55.704330" lon="26.086353">
<ele>142.763794</ele>
<time>2010-07-17T20:00:41Z</time>
<desc>lat.=55.704330, lon.=26.086353, Alt.=142.763794m. Speed=0.036000m/h.</desc>
<speed>0.010000</speed>
</trkpt>
<trkpt lat="55.704330" lon="26.086353">
<ele>142.771606</ele>
<time>2010-07-17T20:00:42Z</time>
<desc>lat.=55.704330, lon.=26.086353, Alt.=142.771606m. Speed=0.000000m/h.</desc>
<speed>0.000000</speed>
</trkpt>
<trkpt lat="55.704330" lon="26.086353">
<ele>142.779419</ele>
<time>2010-07-17T20:00:43Z</time>
<desc>lat.=55.704330, lon.=26.086353, Alt.=142.779419m. Speed=0.072000m/h.</desc>
<speed>0.020000</speed>
</trkpt>
<trkpt lat="55.704327" lon="26.086353">
<ele>142.787231</ele>
<time>2010-07-17T20:00:44Z</time>
<desc>lat.=55.704327, lon.=26.086353, Alt.=142.787231m. Speed=0.144000m/h.</desc>
<speed>0.040000</speed>
</trkpt>
<trkpt lat="55.704327" lon="26.086353">
<ele>142.795044</ele>
<time>2010-07-17T20:00:45Z</time>
<desc>lat.=55.704327, lon.=26.086353, Alt.=142.795044m. Speed=0.072000m/h.</desc>
<speed>0.020000</speed>
</trkpt>
<trkpt lat="55.704327" lon="26.086351">
<ele>142.806763</ele>
<time>2010-07-17T20:00:46Z</time>
<desc>lat.=55.704327, lon.=26.086351, Alt.=142.806763m. Speed=0.072000m/h.</desc>
<speed>0.020000</speed>
</trkpt>
<trkpt lat="55.704327" lon="26.086351">
<ele>142.826294</ele>
<time>2010-07-17T20:00:47Z</time>
<desc>lat.=55.704327, lon.=26.086351, Alt.=142.826294m. Speed=0.036000m/h.</desc>
<speed>0.010000</speed>
</trkpt>
<trkpt lat="55.704327" lon="26.086351">
<ele>142.838013</ele>
<time>2010-07-17T20:00:48Z</time>
<desc>lat.=55.704327, lon.=26.086351, Alt.=142.838013m. Speed=0.000000m/h.</desc>
<speed>0.000000</speed>
</trkpt>
<trkpt lat="55.704330" lon="26.086351">
<ele>142.853638</ele>
<time>2010-07-17T20:00:49Z</time>
<desc>lat.=55.704330, lon.=26.086351, Alt.=142.853638m. Speed=0.036000m/h.</desc>
<speed>0.010000</speed>
</trkpt>
<trkpt lat="55.704327" lon="26.086353">
<ele>142.865356</ele>
<time>2010-07-17T20:00:50Z</time>
<desc>lat.=55.704327, lon.=26.086353, Alt.=142.865356m. Speed=0.036000m/h.</desc>
<speed>0.010000</speed>
</trkpt>
<trkpt lat="55.704327" lon="26.086353">
<ele>142.880981</ele>
<time>2010-07-17T20:00:51Z</time>
<desc>lat.=55.704327, lon.=26.086353, Alt.=142.880981m. Speed=0.000000m/h.</desc>
<speed>0.000000</speed>
</trkpt>
<trkpt lat="55.704327" lon="26.086353">
<ele>142.896606</ele>
<time>2010-07-17T20:00:52Z</time>
<desc>lat.=55.704327, lon.=26.086353, Alt.=142.896606m. Speed=0.000000m/h.</desc>
<speed>0.000000</speed>
</trkpt>
<trkpt lat="55.704327" lon="26.086353">
<ele>142.908325</ele>
<time>2010-07-17T20:00:53Z</time>
<desc>lat.=55.704327, lon.=26.086353, Alt.=142.908325m. Speed=0.036000m/h.</desc>
<speed>0.010000</speed>
</trkpt>
<trkpt lat="55.704330" lon="26.086351">
<ele>142.920044</ele>
<time>2010-07-17T20:00:54Z</time>
<desc>lat.=55.704330, lon.=26.086351, Alt.=142.920044m. Speed=0.072000m/h.</desc>
<speed>0.020000</speed>
</trkpt>
<trkpt lat="55.704330" lon="26.086351">
<ele>142.923950</ele>
<time>2010-07-17T20:00:55Z</time>
<desc>lat.=55.704330, lon.=26.086351, Alt.=142.923950m. Speed=0.000000m/h.</desc>
<speed>0.000000</speed>
</trkpt>
<trkpt lat="55.704330" lon="26.086351">
<ele>142.931763</ele>
<time>2010-07-17T20:00:56Z</time>
<desc>lat.=55.704330, lon.=26.086351, Alt.=142.931763m. Speed=0.000000m/h.</desc>
<speed>0.000000</speed>
</trkpt>
<trkpt lat="55.704330" lon="26.086351">
<ele>142.939575</ele>
<time>2010-07-17T20:00:57Z</time>
<desc>lat.=55.704330, lon.=26.086351, Alt.=142.939575m. Speed=0.144000m/h.</desc>
<speed>0.040000</speed>
</trkpt>
<trkpt lat="55.704330" lon="26.086351">
<ele>142.943481</ele>
<time>2010-07-17T20:00:58Z</time>
<desc>lat.=55.704330, lon.=26.086351, Alt.=142.943481m. Speed=0.072000m/h.</desc>
<speed>0.020000</speed>
</trkpt>
<trkpt lat="55.704330" lon="26.086351">
<ele>142.943481</ele>
<time>2010-07-17T20:00:59Z</time>
<desc>lat.=55.704330, lon.=26.086351, Alt.=142.943481m. Speed=0.000000m/h.</desc>
<speed>0.000000</speed>
</trkpt>
<trkpt lat="55.704330" lon="26.086351">
<ele>142.951294</ele>
<time>2010-07-17T20:01:00Z</time>
<desc>lat.=55.704330, lon.=26.086351, Alt.=142.951294m. Speed=0.036000m/h.</desc>
<speed>0.010000</speed>
</trkpt>
<trkpt lat="55.704330" lon="26.086351">
<ele>142.955200</ele>
<time>2010-07-17T20:01:01Z</time>
<desc>lat.=55.704330, lon.=26.086351, Alt.=142.955200m. Speed=0.036000m/h.</desc>
<speed>0.010000</speed>
</trkpt>
<trkpt lat="55.704330" lon="26.086351">
<ele>142.959106</ele>
<time>2010-07-17T20:01:02Z</time>
<desc>lat.=55.704330, lon.=26.086351, Alt.=142.959106m. Speed=0.036000m/h.</desc>
<speed>0.010000</speed>
</trkpt>
<trkpt lat="55.704330" lon="26.086351">
<ele>142.963013</ele>
<time>2010-07-17T20:01:03Z</time>
<desc>lat.=55.704330, lon.=26.086351, Alt.=142.963013m. Speed=0.000000m/h.</desc>
<speed>0.000000</speed>
</trkpt>
<trkpt lat="55.704330" lon="26.086351">
<ele>142.970825</ele>
<time>2010-07-17T20:01:04Z</time>
<desc>lat.=55.704330, lon.=26.086351, Alt.=142.970825m. Speed=0.036000m/h.</desc>
<speed>0.010000</speed>
</trkpt>
<trkpt lat="55.704330" lon="26.086351">
<ele>142.978638</ele>
<time>2010-07-17T20:01:05Z</time>
<desc>lat.=55.704330, lon.=26.086351, Alt.=142.978638m. Speed=0.000000m/h.</desc>
<speed>0.000000</speed>
</trkpt>
<trkpt lat="55.704330" lon="26.086351">
<ele>142.986450</ele>
<time>2010-07-17T20:01:06Z</time>
<desc>lat.=55.704330, lon.=26.086351, Alt.=142.986450m. Speed=0.072000m/h.</desc>
<speed>0.020000</speed>
</trkpt>
<trkpt lat="55.704330" lon="26.086351">
<ele>142.998169</ele>
<time>2010-07-17T20:01:07Z</time>
<desc>lat.=55.704330, lon.=26.086351, Alt.=142.998169m. Speed=0.036000m/h.</desc>
<speed>0.010000</speed>
</trkpt>
<trkpt lat="55.704330" lon="26.086351">
<ele>143.005981</ele>
<time>2010-07-17T20:01:08Z</time>
<desc>lat.=55.704330, lon.=26.086351, Alt.=143.005981m. Speed=0.072000m/h.</desc>
<speed>0.020000</speed>
</trkpt>
<trkpt lat="55.704330" lon="26.086351">
<ele>143.005981</ele>
<time>2010-07-17T20:01:09Z</time>
<desc>lat.=55.704330, lon.=26.086351, Alt.=143.005981m. Speed=0.000000m/h.</desc>
<speed>0.000000</speed>
</trkpt>
<trkpt lat="55.704330" lon="26.086351">
<ele>143.005981</ele>
<time>2010-07-17T20:01:10Z</time>
<desc>lat.=55.704330, lon.=26.086351, Alt.=143.005981m. Speed=0.000000m/h.</desc>
<speed>0.000000</speed>
</trkpt>
<trkpt lat="55.704330" lon="26.086351">
<ele>143.005981</ele>
<time>2010-07-17T20:01:11Z</time>
<desc>lat.=55.704330, lon.=26.086351, Alt.=143.005981m. Speed=0.072000m/h.</desc>
<speed>0.020000</speed>
</trkpt>
<trkpt lat="55.704330" lon="26.086351">
<ele>143.005981</ele>
<time>2010-07-17T20:01:12Z</time>
<desc>lat.=55.704330, lon.=26.086351, Alt.=143.005981m. Speed=0.036000m/h.</desc>
<speed>0.010000</speed>
</trkpt>
<trkpt lat="55.704330" lon="26.086351">
<ele>143.002075</ele>
<time>2010-07-17T20:01:13Z</time>
<desc>lat.=55.704330, lon.=26.086351, Alt.=143.002075m. Speed=0.000000m/h.</desc>
<speed>0.000000</speed>
</trkpt>
<trkpt lat="55.704330" lon="26.086351">
<ele>142.998169</ele>
<time>2010-07-17T20:01:14Z</time>
<desc>lat.=55.704330, lon.=26.086351, Alt.=142.998169m. Speed=0.036000m/h.</desc>
<speed>0.010000</speed>
</trkpt>
<trkpt lat="55.704330" lon="26.086351">
<ele>142.994263</ele>
<time>2010-07-17T20:01:15Z</time>
<desc>lat.=55.704330, lon.=26.086351, Alt.=142.994263m. Speed=0.000000m/h.</desc>
<speed>0.000000</speed>
</trkpt>
<trkpt lat="55.704330" lon="26.086351">
<ele>142.994263</ele>
<time>2010-07-17T20:01:16Z</time>
<desc>lat.=55.704330, lon.=26.086351, Alt.=142.994263m. Speed=0.036000m/h.</desc>
<speed>0.010000</speed>
</trkpt>
<trkpt lat="55.704330" lon="26.086351">
<ele>142.994263</ele>
<time>2010-07-17T20:01:17Z</time>
<desc>lat.=55.704330, lon.=26.086351, Alt.=142.994263m. Speed=0.000000m/h.</desc>
<speed>0.000000</speed>
</trkpt>
<trkpt lat="55.704330" lon="26.086351">
<ele>142.990356</ele>
<time>2010-07-17T20:01:18Z</time>
<desc>lat.=55.704330, lon.=26.086351, Alt.=142.990356m. Speed=0.072000m/h.</desc>
<speed>0.020000</speed>
</trkpt>
<trkpt lat="55.704330" lon="26.086351">
<ele>142.982544</ele>
<time>2010-07-17T20:01:19Z</time>
<desc>lat.=55.704330, lon.=26.086351, Alt.=142.982544m. Speed=0.072000m/h.</desc>
<speed>0.020000</speed>
</trkpt>
<trkpt lat="55.704330" lon="26.086351">
<ele>142.982544</ele>
<time>2010-07-17T20:01:20Z</time>
<desc>lat.=55.704330, lon.=26.086351, Alt.=142.982544m. Speed=0.000000m/h.</desc>
<speed>0.000000</speed>
</trkpt>
<trkpt lat="55.704330" lon="26.086351">
<ele>142.978638</ele>
<time>2010-07-17T20:01:21Z</time>
<desc>lat.=55.704330, lon.=26.086351, Alt.=142.978638m. Speed=0.108000m/h.</desc>
<speed>0.030000</speed>
</trkpt>
<trkpt lat="55.704330" lon="26.086351">
<ele>142.978638</ele>
<time>2010-07-17T20:01:22Z</time>
<desc>lat.=55.704330, lon.=26.086351, Alt.=142.978638m. Speed=0.072000m/h.</desc>
<speed>0.020000</speed>
</trkpt>
<trkpt lat="55.704330" lon="26.086351">
<ele>142.982544</ele>
<time>2010-07-17T20:01:23Z</time>
<desc>lat.=55.704330, lon.=26.086351, Alt.=142.982544m. Speed=0.108000m/h.</desc>
<speed>0.030000</speed>
</trkpt>
<trkpt lat="55.704330" lon="26.086351">
<ele>142.986450</ele>
<time>2010-07-17T20:01:24Z</time>
<desc>lat.=55.704330, lon.=26.086351, Alt.=142.986450m. Speed=0.072000m/h.</desc>
<speed>0.020000</speed>
</trkpt>
<trkpt lat="55.704330" lon="26.086351">
<ele>142.998169</ele>
<time>2010-07-17T20:01:25Z</time>
<desc>lat.=55.704330, lon.=26.086351, Alt.=142.998169m. Speed=0.036000m/h.</desc>
<speed>0.010000</speed>
</trkpt>
<trkpt lat="55.704330" lon="26.086351">
<ele>143.005981</ele>
<time>2010-07-17T20:01:26Z</time>
<desc>lat.=55.704330, lon.=26.086351, Alt.=143.005981m. Speed=0.108000m/h.</desc>
<speed>0.030000</speed>
</trkpt>
<trkpt lat="55.704330" lon="26.086349">
<ele>143.013794</ele>
<time>2010-07-17T20:01:27Z</time>
<desc>lat.=55.704330, lon.=26.086349, Alt.=143.013794m. Speed=0.180000m/h.</desc>
<speed>0.050000</speed>
</trkpt>
<trkpt lat="55.704330" lon="26.086349">
<ele>143.021606</ele>
<time>2010-07-17T20:01:28Z</time>
<desc>lat.=55.704330, lon.=26.086349, Alt.=143.021606m. Speed=0.072000m/h.</desc>
<speed>0.020000</speed>
</trkpt>
<trkpt lat="55.704330" lon="26.086349">
<ele>143.025513</ele>
<time>2010-07-17T20:01:29Z</time>
<desc>lat.=55.704330, lon.=26.086349, Alt.=143.025513m. Speed=0.072000m/h.</desc>
<speed>0.020000</speed>
</trkpt>
<trkpt lat="55.704330" lon="26.086349">
<ele>143.029419</ele>
<time>2010-07-17T20:01:30Z</time>
<desc>lat.=55.704330, lon.=26.086349, Alt.=143.029419m. Speed=0.036000m/h.</desc>
<speed>0.010000</speed>
</trkpt>
<trkpt lat="55.704330" lon="26.086349">
<ele>143.033325</ele>
<time>2010-07-17T20:01:31Z</time>
<desc>lat.=55.704330, lon.=26.086349, Alt.=143.033325m. Speed=0.036000m/h.</desc>
<speed>0.010000</speed>
</trkpt>
<trkpt lat="55.704330" lon="26.086349">
<ele>143.045044</ele>
<time>2010-07-17T20:01:32Z</time>
<desc>lat.=55.704330, lon.=26.086349, Alt.=143.045044m. Speed=0.072000m/h.</desc>
<speed>0.020000</speed>
</trkpt>
<trkpt lat="55.704330" lon="26.086349">
<ele>143.048950</ele>
<time>2010-07-17T20:01:33Z</time>
<desc>lat.=55.704330, lon.=26.086349, Alt.=143.048950m. Speed=0.036000m/h.</desc>
<speed>0.010000</speed>
</trkpt>
<trkpt lat="55.704330" lon="26.086349">
<ele>143.048950</ele>
<time>2010-07-17T20:01:34Z</time>
<desc>lat.=55.704330, lon.=26.086349, Alt.=143.048950m. Speed=0.072000m/h.</desc>
<speed>0.020000</speed>
</trkpt>
<trkpt lat="55.704330" lon="26.086351">
<ele>143.060669</ele>
<time>2010-07-17T20:01:35Z</time>
<desc>lat.=55.704330, lon.=26.086351, Alt.=143.060669m. Speed=0.072000m/h.</desc>
<speed>0.020000</speed>
</trkpt>
<trkpt lat="55.704330" lon="26.086351">
<ele>143.068481</ele>
<time>2010-07-17T20:01:36Z</time>
<desc>lat.=55.704330, lon.=26.086351, Alt.=143.068481m. Speed=0.108000m/h.</desc>
<speed>0.030000</speed>
</trkpt>
<trkpt lat="55.704330" lon="26.086351">
<ele>143.076294</ele>
<time>2010-07-17T20:01:37Z</time>
<desc>lat.=55.704330, lon.=26.086351, Alt.=143.076294m. Speed=0.036000m/h.</desc>
<speed>0.010000</speed>
</trkpt>
<trkpt lat="55.704330" lon="26.086351">
<ele>143.084106</ele>
<time>2010-07-17T20:01:38Z</time>
<desc>lat.=55.704330, lon.=26.086351, Alt.=143.084106m. Speed=0.000000m/h.</desc>
<speed>0.000000</speed>
</trkpt>
<trkpt lat="55.704330" lon="26.086351">
<ele>143.095825</ele>
<time>2010-07-17T20:01:39Z</time>
<desc>lat.=55.704330, lon.=26.086351, Alt.=143.095825m. Speed=0.072000m/h.</desc>
<speed>0.020000</speed>
</trkpt>
<trkpt lat="55.704330" lon="26.086351">
<ele>143.103638</ele>
<time>2010-07-17T20:01:40Z</time>
<desc>lat.=55.704330, lon.=26.086351, Alt.=143.103638m. Speed=0.072000m/h.</desc>
<speed>0.020000</speed>
</trkpt>
<trkpt lat="55.704330" lon="26.086351">
<ele>143.115356</ele>
<time>2010-07-17T20:01:41Z</time>
<desc>lat.=55.704330, lon.=26.086351, Alt.=143.115356m. Speed=0.108000m/h.</desc>
<speed>0.030000</speed>
</trkpt>
<trkpt lat="55.704330" lon="26.086351">
<ele>143.123169</ele>
<time>2010-07-17T20:01:42Z</time>
<desc>lat.=55.704330, lon.=26.086351, Alt.=143.123169m. Speed=0.108000m/h.</desc>
<speed>0.030000</speed>
</trkpt>
<trkpt lat="55.704330" lon="26.086351">
<ele>143.134888</ele>
<time>2010-07-17T20:01:43Z</time>
<desc>lat.=55.704330, lon.=26.086351, Alt.=143.134888m. Speed=0.072000m/h.</desc>
<speed>0.020000</speed>
</trkpt>
<trkpt lat="55.704330" lon="26.086351">
<ele>143.142700</ele>
<time>2010-07-17T20:01:44Z</time>
<desc>lat.=55.704330, lon.=26.086351, Alt.=143.142700m. Speed=0.072000m/h.</desc>
<speed>0.020000</speed>
</trkpt>
<trkpt lat="55.704330" lon="26.086351">
<ele>143.150513</ele>
<time>2010-07-17T20:01:45Z</time>
<desc>lat.=55.704330, lon.=26.086351, Alt.=143.150513m. Speed=0.108000m/h.</desc>
<speed>0.030000</speed>
</trkpt>
<trkpt lat="55.704330" lon="26.086351">
<ele>143.162231</ele>
<time>2010-07-17T20:01:46Z</time>
<desc>lat.=55.704330, lon.=26.086351, Alt.=143.162231m. Speed=0.036000m/h.</desc>
<speed>0.010000</speed>
</trkpt>
<trkpt lat="55.704330" lon="26.086351">
<ele>143.177856</ele>
<time>2010-07-17T20:01:47Z</time>
<desc>lat.=55.704330, lon.=26.086351, Alt.=143.177856m. Speed=0.036000m/h.</desc>
<speed>0.010000</speed>
</trkpt>
<trkpt lat="55.704330" lon="26.086351">
<ele>143.197388</ele>
<time>2010-07-17T20:01:48Z</time>
<desc>lat.=55.704330, lon.=26.086351, Alt.=143.197388m. Speed=0.000000m/h.</desc>
<speed>0.000000</speed>
</trkpt>
<trkpt lat="55.704330" lon="26.086351">
<ele>143.213013</ele>
<time>2010-07-17T20:01:49Z</time>
<desc>lat.=55.704330, lon.=26.086351, Alt.=143.213013m. Speed=0.108000m/h.</desc>
<speed>0.030000</speed>
</trkpt>
<trkpt lat="55.704330" lon="26.086353">
<ele>143.224731</ele>
<time>2010-07-17T20:01:50Z</time>
<desc>lat.=55.704330, lon.=26.086353, Alt.=143.224731m. Speed=0.072000m/h.</desc>
<speed>0.020000</speed>
</trkpt>
<trkpt lat="55.704330" lon="26.086353">
<ele>143.236450</ele>
<time>2010-07-17T20:01:51Z</time>
<desc>lat.=55.704330, lon.=26.086353, Alt.=143.236450m. Speed=0.072000m/h.</desc>
<speed>0.020000</speed>
</trkpt>
<trkpt lat="55.704330" lon="26.086353">
<ele>143.244263</ele>
<time>2010-07-17T20:01:52Z</time>
<desc>lat.=55.704330, lon.=26.086353, Alt.=143.244263m. Speed=0.072000m/h.</desc>
<speed>0.020000</speed>
</trkpt>
<trkpt lat="55.704330" lon="26.086353">
<ele>143.255981</ele>
<time>2010-07-17T20:01:53Z</time>
<desc>lat.=55.704330, lon.=26.086353, Alt.=143.255981m. Speed=0.000000m/h.</desc>
<speed>0.000000</speed>
</trkpt>
<trkpt lat="55.704330" lon="26.086353">
<ele>143.263794</ele>
<time>2010-07-17T20:01:54Z</time>
<desc>lat.=55.704330, lon.=26.086353, Alt.=143.263794m. Speed=0.036000m/h.</desc>
<speed>0.010000</speed>
</trkpt>
<trkpt lat="55.704330" lon="26.086353">
<ele>143.271606</ele>
<time>2010-07-17T20:01:55Z</time>
<desc>lat.=55.704330, lon.=26.086353, Alt.=143.271606m. Speed=0.108000m/h.</desc>
<speed>0.030000</speed>
</trkpt>
<trkpt lat="55.704330" lon="26.086353">
<ele>143.271606</ele>
<time>2010-07-17T20:01:56Z</time>
<desc>lat.=55.704330, lon.=26.086353, Alt.=143.271606m. Speed=0.108000m/h.</desc>
<speed>0.030000</speed>
</trkpt>
<trkpt lat="55.704330" lon="26.086353">
<ele>143.279419</ele>
<time>2010-07-17T20:01:57Z</time>
<desc>lat.=55.704330, lon.=26.086353, Alt.=143.279419m. Speed=0.072000m/h.</desc>
<speed>0.020000</speed>
</trkpt>
<trkpt lat="55.704330" lon="26.086353">
<ele>143.287231</ele>
<time>2010-07-17T20:01:58Z</time>
<desc>lat.=55.704330, lon.=26.086353, Alt.=143.287231m. Speed=0.000000m/h.</desc>
<speed>0.000000</speed>
</trkpt>
<trkpt lat="55.704330" lon="26.086353">
<ele>143.298950</ele>
<time>2010-07-17T20:01:59Z</time>
<desc>lat.=55.704330, lon.=26.086353, Alt.=143.298950m. Speed=0.072000m/h.</desc>
<speed>0.020000</speed>
</trkpt>
<trkpt lat="55.704330" lon="26.086353">
<ele>143.306763</ele>
<time>2010-07-17T20:02:00Z</time>
<desc>lat.=55.704330, lon.=26.086353, Alt.=143.306763m. Speed=0.000000m/h.</desc>
<speed>0.000000</speed>
</trkpt>
<trkpt lat="55.704330" lon="26.086353">
<ele>143.326294</ele>
<time>2010-07-17T20:02:01Z</time>
<desc>lat.=55.704330, lon.=26.086353, Alt.=143.326294m. Speed=0.108000m/h.</desc>
<speed>0.030000</speed>
</trkpt>
<trkpt lat="55.704330" lon="26.086353">
<ele>143.330200</ele>
<time>2010-07-17T20:02:02Z</time>
<desc>lat.=55.704330, lon.=26.086353, Alt.=143.330200m. Speed=0.072000m/h.</desc>
<speed>0.020000</speed>
</trkpt>
<trkpt lat="55.704330" lon="26.086353">
<ele>143.345825</ele>
<time>2010-07-17T20:02:03Z</time>
<desc>lat.=55.704330, lon.=26.086353, Alt.=143.345825m. Speed=0.000000m/h.</desc>
<speed>0.000000</speed>
</trkpt>
<trkpt lat="55.704330" lon="26.086353">
<ele>143.353638</ele>
<time>2010-07-17T20:02:04Z</time>
<desc>lat.=55.704330, lon.=26.086353, Alt.=143.353638m. Speed=0.072000m/h.</desc>
<speed>0.020000</speed>
</trkpt>
<trkpt lat="55.704330" lon="26.086353">
<ele>143.369263</ele>
<time>2010-07-17T20:02:05Z</time>
<desc>lat.=55.704330, lon.=26.086353, Alt.=143.369263m. Speed=0.036000m/h.</desc>
<speed>0.010000</speed>
</trkpt>
<trkpt lat="55.704330" lon="26.086353">
<ele>143.380981</ele>
<time>2010-07-17T20:02:06Z</time>
<desc>lat.=55.704330, lon.=26.086353, Alt.=143.380981m. Speed=0.036000m/h.</desc>
<speed>0.010000</speed>
</trkpt>
<trkpt lat="55.704330" lon="26.086353">
<ele>143.392700</ele>
<time>2010-07-17T20:02:07Z</time>
<desc>lat.=55.704330, lon.=26.086353, Alt.=143.392700m. Speed=0.036000m/h.</desc>
<speed>0.010000</speed>
</trkpt>
<trkpt lat="55.704330" lon="26.086353">
<ele>143.408325</ele>
<time>2010-07-17T20:02:08Z</time>
<desc>lat.=55.704330, lon.=26.086353, Alt.=143.408325m. Speed=0.036000m/h.</desc>
<speed>0.010000</speed>
</trkpt>
<trkpt lat="55.704330" lon="26.086353">
<ele>143.420044</ele>
<time>2010-07-17T20:02:09Z</time>
<desc>lat.=55.704330, lon.=26.086353, Alt.=143.420044m. Speed=0.036000m/h.</desc>
<speed>0.010000</speed>
</trkpt>
<trkpt lat="55.704330" lon="26.086353">
<ele>143.431763</ele>
<time>2010-07-17T20:02:10Z</time>
<desc>lat.=55.704330, lon.=26.086353, Alt.=143.431763m. Speed=0.036000m/h.</desc>
<speed>0.010000</speed>
</trkpt>
<trkpt lat="55.704330" lon="26.086353">
<ele>143.443481</ele>
<time>2010-07-17T20:02:11Z</time>
<desc>lat.=55.704330, lon.=26.086353, Alt.=143.443481m. Speed=0.072000m/h.</desc>
<speed>0.020000</speed>
</trkpt>
<trkpt lat="55.704334" lon="26.086353">
<ele>143.459106</ele>
<time>2010-07-17T20:02:12Z</time>
<desc>lat.=55.704334, lon.=26.086353, Alt.=143.459106m. Speed=0.108000m/h.</desc>
<speed>0.030000</speed>
</trkpt>
<trkpt lat="55.704334" lon="26.086353">
<ele>143.474731</ele>
<time>2010-07-17T20:02:13Z</time>
<desc>lat.=55.704334, lon.=26.086353, Alt.=143.474731m. Speed=0.072000m/h.</desc>
<speed>0.020000</speed>
</trkpt>
<trkpt lat="55.704334" lon="26.086353">
<ele>143.494263</ele>
<time>2010-07-17T20:02:14Z</time>
<desc>lat.=55.704334, lon.=26.086353, Alt.=143.494263m. Speed=0.144000m/h.</desc>
<speed>0.040000</speed>
</trkpt>
<trkpt lat="55.704334" lon="26.086353">
<ele>143.509888</ele>
<time>2010-07-17T20:02:15Z</time>
<desc>lat.=55.704334, lon.=26.086353, Alt.=143.509888m. Speed=0.108000m/h.</desc>
<speed>0.030000</speed>
</trkpt>
<trkpt lat="55.704334" lon="26.086353">
<ele>143.521606</ele>
<time>2010-07-17T20:02:16Z</time>
<desc>lat.=55.704334, lon.=26.086353, Alt.=143.521606m. Speed=0.072000m/h.</desc>
<speed>0.020000</speed>
</trkpt>
<trkpt lat="55.704334" lon="26.086353">
<ele>143.525513</ele>
<time>2010-07-17T20:02:17Z</time>
<desc>lat.=55.704334, lon.=26.086353, Alt.=143.525513m. Speed=0.108000m/h.</desc>
<speed>0.030000</speed>
</trkpt>
<trkpt lat="55.704334" lon="26.086353">
<ele>143.537231</ele>
<time>2010-07-17T20:02:18Z</time>
<desc>lat.=55.704334, lon.=26.086353, Alt.=143.537231m. Speed=0.108000m/h.</desc>
<speed>0.030000</speed>
</trkpt>
<trkpt lat="55.704334" lon="26.086353">
<ele>143.548950</ele>
<time>2010-07-17T20:02:19Z</time>
<desc>lat.=55.704334, lon.=26.086353, Alt.=143.548950m. Speed=0.072000m/h.</desc>
<speed>0.020000</speed>
</trkpt>
<trkpt lat="55.704334" lon="26.086353">
<ele>143.564575</ele>
<time>2010-07-17T20:02:20Z</time>
<desc>lat.=55.704334, lon.=26.086353, Alt.=143.564575m. Speed=0.144000m/h.</desc>
<speed>0.040000</speed>
</trkpt>
<trkpt lat="55.704334" lon="26.086353">
<ele>143.580200</ele>
<time>2010-07-17T20:02:21Z</time>
<desc>lat.=55.704334, lon.=26.086353, Alt.=143.580200m. Speed=0.072000m/h.</desc>
<speed>0.020000</speed>
</trkpt>
<trkpt lat="55.704334" lon="26.086353">
<ele>143.595825</ele>
<time>2010-07-17T20:02:22Z</time>
<desc>lat.=55.704334, lon.=26.086353, Alt.=143.595825m. Speed=0.072000m/h.</desc>
<speed>0.020000</speed>
</trkpt>
<trkpt lat="55.704334" lon="26.086353">
<ele>143.607544</ele>
<time>2010-07-17T20:02:23Z</time>
<desc>lat.=55.704334, lon.=26.086353, Alt.=143.607544m. Speed=0.072000m/h.</desc>
<speed>0.020000</speed>
</trkpt>
<trkpt lat="55.704334" lon="26.086351">
<ele>143.630981</ele>
<time>2010-07-17T20:02:24Z</time>
<desc>lat.=55.704334, lon.=26.086351, Alt.=143.630981m. Speed=0.072000m/h.</desc>
<speed>0.020000</speed>
</trkpt>
<trkpt lat="55.704334" lon="26.086353">
<ele>143.646606</ele>
<time>2010-07-17T20:02:25Z</time>
<desc>lat.=55.704334, lon.=26.086353, Alt.=143.646606m. Speed=0.036000m/h.</desc>
<speed>0.010000</speed>
</trkpt>
<trkpt lat="55.704334" lon="26.086351">
<ele>143.662231</ele>
<time>2010-07-17T20:02:26Z</time>
<desc>lat.=55.704334, lon.=26.086351, Alt.=143.662231m. Speed=0.036000m/h.</desc>
<speed>0.010000</speed>
</trkpt>
<trkpt lat="55.704334" lon="26.086351">
<ele>143.681763</ele>
<time>2010-07-17T20:02:27Z</time>
<desc>lat.=55.704334, lon.=26.086351, Alt.=143.681763m. Speed=0.072000m/h.</desc>
<speed>0.020000</speed>
</trkpt>
<trkpt lat="55.704334" lon="26.086351">
<ele>143.701294</ele>
<time>2010-07-17T20:02:28Z</time>
<desc>lat.=55.704334, lon.=26.086351, Alt.=143.701294m. Speed=0.072000m/h.</desc>
<speed>0.020000</speed>
</trkpt>
<trkpt lat="55.704334" lon="26.086351">
<ele>143.716919</ele>
<time>2010-07-17T20:02:29Z</time>
<desc>lat.=55.704334, lon.=26.086351, Alt.=143.716919m. Speed=0.036000m/h.</desc>
<speed>0.010000</speed>
</trkpt>
<trkpt lat="55.704334" lon="26.086351">
<ele>143.732544</ele>
<time>2010-07-17T20:02:30Z</time>
<desc>lat.=55.704334, lon.=26.086351, Alt.=143.732544m. Speed=0.072000m/h.</desc>
<speed>0.020000</speed>
</trkpt>
<trkpt lat="55.704334" lon="26.086351">
<ele>143.748169</ele>
<time>2010-07-17T20:02:31Z</time>
<desc>lat.=55.704334, lon.=26.086351, Alt.=143.748169m. Speed=0.036000m/h.</desc>
<speed>0.010000</speed>
</trkpt>
<trkpt lat="55.704334" lon="26.086351">
<ele>143.763794</ele>
<time>2010-07-17T20:02:32Z</time>
<desc>lat.=55.704334, lon.=26.086351, Alt.=143.763794m. Speed=0.108000m/h.</desc>
<speed>0.030000</speed>
</trkpt>
<trkpt lat="55.704334" lon="26.086351">
<ele>143.775513</ele>
<time>2010-07-17T20:02:33Z</time>
<desc>lat.=55.704334, lon.=26.086351, Alt.=143.775513m. Speed=0.036000m/h.</desc>
<speed>0.010000</speed>
</trkpt>
<trkpt lat="55.704334" lon="26.086351">
<ele>143.783325</ele>
<time>2010-07-17T20:02:34Z</time>
<desc>lat.=55.704334, lon.=26.086351, Alt.=143.783325m. Speed=0.072000m/h.</desc>
<speed>0.020000</speed>
</trkpt>
<trkpt lat="55.704334" lon="26.086351">
<ele>143.795044</ele>
<time>2010-07-17T20:02:35Z</time>
<desc>lat.=55.704334, lon.=26.086351, Alt.=143.795044m. Speed=0.036000m/h.</desc>
<speed>0.010000</speed>
</trkpt>
<trkpt lat="55.704334" lon="26.086351">
<ele>143.810669</ele>
<time>2010-07-17T20:02:36Z</time>
<desc>lat.=55.704334, lon.=26.086351, Alt.=143.810669m. Speed=0.036000m/h.</desc>
<speed>0.010000</speed>
</trkpt>
<trkpt lat="55.704334" lon="26.086351">
<ele>143.826294</ele>
<time>2010-07-17T20:02:37Z</time>
<desc>lat.=55.704334, lon.=26.086351, Alt.=143.826294m. Speed=0.036000m/h.</desc>
<speed>0.010000</speed>
</trkpt>
<trkpt lat="55.704334" lon="26.086351">
<ele>143.845825</ele>
<time>2010-07-17T20:02:38Z</time>
<desc>lat.=55.704334, lon.=26.086351, Alt.=143.845825m. Speed=0.036000m/h.</desc>
<speed>0.010000</speed>
</trkpt>
<trkpt lat="55.704334" lon="26.086351">
<ele>143.853638</ele>
<time>2010-07-17T20:02:39Z</time>
<desc>lat.=55.704334, lon.=26.086351, Alt.=143.853638m. Speed=0.108000m/h.</desc>
<speed>0.030000</speed>
</trkpt>
<trkpt lat="55.704334" lon="26.086351">
<ele>143.865356</ele>
<time>2010-07-17T20:02:40Z</time>
<desc>lat.=55.704334, lon.=26.086351, Alt.=143.865356m. Speed=0.072000m/h.</desc>
<speed>0.020000</speed>
</trkpt>
<trkpt lat="55.704334" lon="26.086351">
<ele>143.869263</ele>
<time>2010-07-17T20:02:41Z</time>
<desc>lat.=55.704334, lon.=26.086351, Alt.=143.869263m. Speed=0.072000m/h.</desc>
<speed>0.020000</speed>
</trkpt>
<trkpt lat="55.704334" lon="26.086351">
<ele>143.877075</ele>
<time>2010-07-17T20:02:42Z</time>
<desc>lat.=55.704334, lon.=26.086351, Alt.=143.877075m. Speed=0.108000m/h.</desc>
<speed>0.030000</speed>
</trkpt>
<trkpt lat="55.704334" lon="26.086351">
<ele>143.880981</ele>
<time>2010-07-17T20:02:43Z</time>
<desc>lat.=55.704334, lon.=26.086351, Alt.=143.880981m. Speed=0.108000m/h.</desc>
<speed>0.030000</speed>
</trkpt>
<trkpt lat="55.704334" lon="26.086351">
<ele>143.884888</ele>
<time>2010-07-17T20:02:44Z</time>
<desc>lat.=55.704334, lon.=26.086351, Alt.=143.884888m. Speed=0.036000m/h.</desc>
<speed>0.010000</speed>
</trkpt>
<trkpt lat="55.704334" lon="26.086351">
<ele>143.892700</ele>
<time>2010-07-17T20:02:45Z</time>
<desc>lat.=55.704334, lon.=26.086351, Alt.=143.892700m. Speed=0.036000m/h.</desc>
<speed>0.010000</speed>
</trkpt>
<trkpt lat="55.704334" lon="26.086349">
<ele>143.900513</ele>
<time>2010-07-17T20:02:46Z</time>
<desc>lat.=55.704334, lon.=26.086349, Alt.=143.900513m. Speed=0.036000m/h.</desc>
<speed>0.010000</speed>
</trkpt>
<trkpt lat="55.704334" lon="26.086349">
<ele>143.908325</ele>
<time>2010-07-17T20:02:47Z</time>
<desc>lat.=55.704334, lon.=26.086349, Alt.=143.908325m. Speed=0.036000m/h.</desc>
<speed>0.010000</speed>
</trkpt>
<trkpt lat="55.704334" lon="26.086349">
<ele>143.916138</ele>
<time>2010-07-17T20:02:48Z</time>
<desc>lat.=55.704334, lon.=26.086349, Alt.=143.916138m. Speed=0.036000m/h.</desc>
<speed>0.010000</speed>
</trkpt>
<trkpt lat="55.704334" lon="26.086349">
<ele>143.920044</ele>
<time>2010-07-17T20:02:49Z</time>
<desc>lat.=55.704334, lon.=26.086349, Alt.=143.920044m. Speed=0.036000m/h.</desc>
<speed>0.010000</speed>
</trkpt>
<trkpt lat="55.704334" lon="26.086349">
<ele>143.927856</ele>
<time>2010-07-17T20:02:50Z</time>
<desc>lat.=55.704334, lon.=26.086349, Alt.=143.927856m. Speed=0.036000m/h.</desc>
<speed>0.010000</speed>
</trkpt>
<trkpt lat="55.704334" lon="26.086349">
<ele>143.935669</ele>
<time>2010-07-17T20:02:51Z</time>
<desc>lat.=55.704334, lon.=26.086349, Alt.=143.935669m. Speed=0.000000m/h.</desc>
<speed>0.000000</speed>
</trkpt>
<trkpt lat="55.704334" lon="26.086349">
<ele>143.943481</ele>
<time>2010-07-17T20:02:52Z</time>
<desc>lat.=55.704334, lon.=26.086349, Alt.=143.943481m. Speed=0.036000m/h.</desc>
<speed>0.010000</speed>
</trkpt>
<trkpt lat="55.704334" lon="26.086349">
<ele>143.947388</ele>
<time>2010-07-17T20:02:53Z</time>
<desc>lat.=55.704334, lon.=26.086349, Alt.=143.947388m. Speed=0.144000m/h.</desc>
<speed>0.040000</speed>
</trkpt>
<trkpt lat="55.704334" lon="26.086349">
<ele>143.951294</ele>
<time>2010-07-17T20:02:54Z</time>
<desc>lat.=55.704334, lon.=26.086349, Alt.=143.951294m. Speed=0.000000m/h.</desc>
<speed>0.000000</speed>
</trkpt>
<trkpt lat="55.704334" lon="26.086349">
<ele>143.951294</ele>
<time>2010-07-17T20:02:55Z</time>
<desc>lat.=55.704334, lon.=26.086349, Alt.=143.951294m. Speed=0.072000m/h.</desc>
<speed>0.020000</speed>
</trkpt>
<trkpt lat="55.704334" lon="26.086349">
<ele>143.955200</ele>
<time>2010-07-17T20:02:56Z</time>
<desc>lat.=55.704334, lon.=26.086349, Alt.=143.955200m. Speed=0.000000m/h.</desc>
<speed>0.000000</speed>
</trkpt>
<trkpt lat="55.704334" lon="26.086349">
<ele>143.963013</ele>
<time>2010-07-17T20:02:57Z</time>
<desc>lat.=55.704334, lon.=26.086349, Alt.=143.963013m. Speed=0.036000m/h.</desc>
<speed>0.010000</speed>
</trkpt>
<trkpt lat="55.704334" lon="26.086349">
<ele>143.963013</ele>
<time>2010-07-17T20:02:58Z</time>
<desc>lat.=55.704334, lon.=26.086349, Alt.=143.963013m. Speed=0.072000m/h.</desc>
<speed>0.020000</speed>
</trkpt>
<trkpt lat="55.704334" lon="26.086349">
<ele>143.963013</ele>
<time>2010-07-17T20:02:59Z</time>
<desc>lat.=55.704334, lon.=26.086349, Alt.=143.963013m. Speed=0.000000m/h.</desc>
<speed>0.000000</speed>
</trkpt>
<trkpt lat="55.704334" lon="26.086349">
<ele>143.966919</ele>
<time>2010-07-17T20:03:00Z</time>
<desc>lat.=55.704334, lon.=26.086349, Alt.=143.966919m. Speed=0.072000m/h.</desc>
<speed>0.020000</speed>
</trkpt>
<trkpt lat="55.704334" lon="26.086349">
<ele>143.970825</ele>
<time>2010-07-17T20:03:01Z</time>
<desc>lat.=55.704334, lon.=26.086349, Alt.=143.970825m. Speed=0.036000m/h.</desc>
<speed>0.010000</speed>
</trkpt>
<trkpt lat="55.704334" lon="26.086349">
<ele>143.974731</ele>
<time>2010-07-17T20:03:02Z</time>
<desc>lat.=55.704334, lon.=26.086349, Alt.=143.974731m. Speed=0.072000m/h.</desc>
<speed>0.020000</speed>
</trkpt>
<trkpt lat="55.704334" lon="26.086349">
<ele>143.978638</ele>
<time>2010-07-17T20:03:03Z</time>
<desc>lat.=55.704334, lon.=26.086349, Alt.=143.978638m. Speed=0.000000m/h.</desc>
<speed>0.000000</speed>
</trkpt>
<trkpt lat="55.704334" lon="26.086349">
<ele>143.978638</ele>
<time>2010-07-17T20:03:04Z</time>
<desc>lat.=55.704334, lon.=26.086349, Alt.=143.978638m. Speed=0.000000m/h.</desc>
<speed>0.000000</speed>
</trkpt>
<trkpt lat="55.704334" lon="26.086349">
<ele>143.990356</ele>
<time>2010-07-17T20:03:05Z</time>
<desc>lat.=55.704334, lon.=26.086349, Alt.=143.990356m. Speed=0.072000m/h.</desc>
<speed>0.020000</speed>
</trkpt>
<trkpt lat="55.704334" lon="26.086349">
<ele>143.998169</ele>
<time>2010-07-17T20:03:06Z</time>
<desc>lat.=55.704334, lon.=26.086349, Alt.=143.998169m. Speed=0.072000m/h.</desc>
<speed>0.020000</speed>
</trkpt>
<trkpt lat="55.704334" lon="26.086349">
<ele>144.009888</ele>
<time>2010-07-17T20:03:07Z</time>
<desc>lat.=55.704334, lon.=26.086349, Alt.=144.009888m. Speed=0.108000m/h.</desc>
<speed>0.030000</speed>
</trkpt>
<trkpt lat="55.704334" lon="26.086349">
<ele>144.013794</ele>
<time>2010-07-17T20:03:08Z</time>
<desc>lat.=55.704334, lon.=26.086349, Alt.=144.013794m. Speed=0.000000m/h.</desc>
<speed>0.000000</speed>
</trkpt>
<trkpt lat="55.704334" lon="26.086349">
<ele>144.029419</ele>
<time>2010-07-17T20:03:09Z</time>
<desc>lat.=55.704334, lon.=26.086349, Alt.=144.029419m. Speed=0.036000m/h.</desc>
<speed>0.010000</speed>
</trkpt>
<trkpt lat="55.704334" lon="26.086349">
<ele>144.041138</ele>
<time>2010-07-17T20:03:10Z</time>
<desc>lat.=55.704334, lon.=26.086349, Alt.=144.041138m. Speed=0.036000m/h.</desc>
<speed>0.010000</speed>
</trkpt>
<trkpt lat="55.704334" lon="26.086349">
<ele>144.048950</ele>
<time>2010-07-17T20:03:11Z</time>
<desc>lat.=55.704334, lon.=26.086349, Alt.=144.048950m. Speed=0.072000m/h.</desc>
<speed>0.020000</speed>
</trkpt>
<trkpt lat="55.704334" lon="26.086349">
<ele>144.064575</ele>
<time>2010-07-17T20:03:12Z</time>
<desc>lat.=55.704334, lon.=26.086349, Alt.=144.064575m. Speed=0.072000m/h.</desc>
<speed>0.020000</speed>
</trkpt>
<trkpt lat="55.704334" lon="26.086349">
<ele>144.072388</ele>
<time>2010-07-17T20:03:13Z</time>
<desc>lat.=55.704334, lon.=26.086349, Alt.=144.072388m. Speed=0.072000m/h.</desc>
<speed>0.020000</speed>
</trkpt>
<trkpt lat="55.704334" lon="26.086349">
<ele>144.080200</ele>
<time>2010-07-17T20:03:14Z</time>
<desc>lat.=55.704334, lon.=26.086349, Alt.=144.080200m. Speed=0.108000m/h.</desc>
<speed>0.030000</speed>
</trkpt>
<trkpt lat="55.704334" lon="26.086349">
<ele>144.088013</ele>
<time>2010-07-17T20:03:15Z</time>
<desc>lat.=55.704334, lon.=26.086349, Alt.=144.088013m. Speed=0.108000m/h.</desc>
<speed>0.030000</speed>
</trkpt>
<trkpt lat="55.704334" lon="26.086349">
<ele>144.103638</ele>
<time>2010-07-17T20:03:16Z</time>
<desc>lat.=55.704334, lon.=26.086349, Alt.=144.103638m. Speed=0.036000m/h.</desc>
<speed>0.010000</speed>
</trkpt>
<trkpt lat="55.704334" lon="26.086349">
<ele>144.107544</ele>
<time>2010-07-17T20:03:17Z</time>
<desc>lat.=55.704334, lon.=26.086349, Alt.=144.107544m. Speed=0.036000m/h.</desc>
<speed>0.010000</speed>
</trkpt>
<trkpt lat="55.704334" lon="26.086349">
<ele>144.115356</ele>
<time>2010-07-17T20:03:18Z</time>
<desc>lat.=55.704334, lon.=26.086349, Alt.=144.115356m. Speed=0.108000m/h.</desc>
<speed>0.030000</speed>
</trkpt>
<trkpt lat="55.704334" lon="26.086349">
<ele>144.127075</ele>
<time>2010-07-17T20:03:19Z</time>
<desc>lat.=55.704334, lon.=26.086349, Alt.=144.127075m. Speed=0.036000m/h.</desc>
<speed>0.010000</speed>
</trkpt>
<trkpt lat="55.704334" lon="26.086349">
<ele>144.138794</ele>
<time>2010-07-17T20:03:20Z</time>
<desc>lat.=55.704334, lon.=26.086349, Alt.=144.138794m. Speed=0.000000m/h.</desc>
<speed>0.000000</speed>
</trkpt>
<trkpt lat="55.704334" lon="26.086349">
<ele>144.150513</ele>
<time>2010-07-17T20:03:21Z</time>
<desc>lat.=55.704334, lon.=26.086349, Alt.=144.150513m. Speed=0.072000m/h.</desc>
<speed>0.020000</speed>
</trkpt>
<trkpt lat="55.704334" lon="26.086349">
<ele>144.162231</ele>
<time>2010-07-17T20:03:22Z</time>
<desc>lat.=55.704334, lon.=26.086349, Alt.=144.162231m. Speed=0.072000m/h.</desc>
<speed>0.020000</speed>
</trkpt>
<trkpt lat="55.704334" lon="26.086349">
<ele>144.170044</ele>
<time>2010-07-17T20:03:23Z</time>
<desc>lat.=55.704334, lon.=26.086349, Alt.=144.170044m. Speed=0.072000m/h.</desc>
<speed>0.020000</speed>
</trkpt>
<trkpt lat="55.704334" lon="26.086349">
<ele>144.173950</ele>
<time>2010-07-17T20:03:24Z</time>
<desc>lat.=55.704334, lon.=26.086349, Alt.=144.173950m. Speed=0.072000m/h.</desc>
<speed>0.020000</speed>
</trkpt>
<trkpt lat="55.704334" lon="26.086349">
<ele>144.185669</ele>
<time>2010-07-17T20:03:25Z</time>
<desc>lat.=55.704334, lon.=26.086349, Alt.=144.185669m. Speed=0.036000m/h.</desc>
<speed>0.010000</speed>
</trkpt>
<trkpt lat="55.704334" lon="26.086349">
<ele>144.185669</ele>
<time>2010-07-17T20:03:26Z</time>
<desc>lat.=55.704334, lon.=26.086349, Alt.=144.185669m. Speed=0.072000m/h.</desc>
<speed>0.020000</speed>
</trkpt>
<trkpt lat="55.704334" lon="26.086349">
<ele>144.193481</ele>
<time>2010-07-17T20:03:27Z</time>
<desc>lat.=55.704334, lon.=26.086349, Alt.=144.193481m. Speed=0.036000m/h.</desc>
<speed>0.010000</speed>
</trkpt>
<trkpt lat="55.704334" lon="26.086349">
<ele>144.209106</ele>
<time>2010-07-17T20:03:28Z</time>
<desc>lat.=55.704334, lon.=26.086349, Alt.=144.209106m. Speed=0.036000m/h.</desc>
<speed>0.010000</speed>
</trkpt>
<trkpt lat="55.704334" lon="26.086351">
<ele>144.220825</ele>
<time>2010-07-17T20:03:29Z</time>
<desc>lat.=55.704334, lon.=26.086351, Alt.=144.220825m. Speed=0.000000m/h.</desc>
<speed>0.000000</speed>
</trkpt>
<trkpt lat="55.704334" lon="26.086351">
<ele>144.228638</ele>
<time>2010-07-17T20:03:30Z</time>
<desc>lat.=55.704334, lon.=26.086351, Alt.=144.228638m. Speed=0.036000m/h.</desc>
<speed>0.010000</speed>
</trkpt>
<trkpt lat="55.704334" lon="26.086351">
<ele>144.252075</ele>
<time>2010-07-17T20:03:31Z</time>
<desc>lat.=55.704334, lon.=26.086351, Alt.=144.252075m. Speed=0.036000m/h.</desc>
<speed>0.010000</speed>
</trkpt>
<trkpt lat="55.704334" lon="26.086351">
<ele>144.275513</ele>
<time>2010-07-17T20:03:32Z</time>
<desc>lat.=55.704334, lon.=26.086351, Alt.=144.275513m. Speed=0.072000m/h.</desc>
<speed>0.020000</speed>
</trkpt>
<trkpt lat="55.704334" lon="26.086351">
<ele>144.295044</ele>
<time>2010-07-17T20:03:33Z</time>
<desc>lat.=55.704334, lon.=26.086351, Alt.=144.295044m. Speed=0.108000m/h.</desc>
<speed>0.030000</speed>
</trkpt>
<trkpt lat="55.704334" lon="26.086351">
<ele>144.306763</ele>
<time>2010-07-17T20:03:34Z</time>
<desc>lat.=55.704334, lon.=26.086351, Alt.=144.306763m. Speed=0.000000m/h.</desc>
<speed>0.000000</speed>
</trkpt>
<trkpt lat="55.704334" lon="26.086351">
<ele>144.314575</ele>
<time>2010-07-17T20:03:35Z</time>
<desc>lat.=55.704334, lon.=26.086351, Alt.=144.314575m. Speed=0.036000m/h.</desc>
<speed>0.010000</speed>
</trkpt>
<trkpt lat="55.704334" lon="26.086351">
<ele>144.322388</ele>
<time>2010-07-17T20:03:36Z</time>
<desc>lat.=55.704334, lon.=26.086351, Alt.=144.322388m. Speed=0.108000m/h.</desc>
<speed>0.030000</speed>
</trkpt>
<trkpt lat="55.704334" lon="26.086351">
<ele>144.334106</ele>
<time>2010-07-17T20:03:37Z</time>
<desc>lat.=55.704334, lon.=26.086351, Alt.=144.334106m. Speed=0.108000m/h.</desc>
<speed>0.030000</speed>
</trkpt>
<trkpt lat="55.704334" lon="26.086351">
<ele>144.338013</ele>
<time>2010-07-17T20:03:38Z</time>
<desc>lat.=55.704334, lon.=26.086351, Alt.=144.338013m. Speed=0.000000m/h.</desc>
<speed>0.000000</speed>
</trkpt>
<trkpt lat="55.704334" lon="26.086351">
<ele>144.345825</ele>
<time>2010-07-17T20:03:39Z</time>
<desc>lat.=55.704334, lon.=26.086351, Alt.=144.345825m. Speed=0.072000m/h.</desc>
<speed>0.020000</speed>
</trkpt>
<trkpt lat="55.704334" lon="26.086351">
<ele>144.357544</ele>
<time>2010-07-17T20:03:40Z</time>
<desc>lat.=55.704334, lon.=26.086351, Alt.=144.357544m. Speed=0.108000m/h.</desc>
<speed>0.030000</speed>
</trkpt>
<trkpt lat="55.704334" lon="26.086351">
<ele>144.373169</ele>
<time>2010-07-17T20:03:41Z</time>
<desc>lat.=55.704334, lon.=26.086351, Alt.=144.373169m. Speed=0.036000m/h.</desc>
<speed>0.010000</speed>
</trkpt>
<trkpt lat="55.704334" lon="26.086351">
<ele>144.377075</ele>
<time>2010-07-17T20:03:42Z</time>
<desc>lat.=55.704334, lon.=26.086351, Alt.=144.377075m. Speed=0.036000m/h.</desc>
<speed>0.010000</speed>
</trkpt>
<trkpt lat="55.704334" lon="26.086351">
<ele>144.377075</ele>
<time>2010-07-17T20:03:43Z</time>
<desc>lat.=55.704334, lon.=26.086351, Alt.=144.377075m. Speed=0.000000m/h.</desc>
<speed>0.000000</speed>
</trkpt>
<trkpt lat="55.704334" lon="26.086351">
<ele>144.384888</ele>
<time>2010-07-17T20:03:44Z</time>
<desc>lat.=55.704334, lon.=26.086351, Alt.=144.384888m. Speed=0.036000m/h.</desc>
<speed>0.010000</speed>
</trkpt>
<trkpt lat="55.704334" lon="26.086351">
<ele>144.388794</ele>
<time>2010-07-17T20:03:45Z</time>
<desc>lat.=55.704334, lon.=26.086351, Alt.=144.388794m. Speed=0.036000m/h.</desc>
<speed>0.010000</speed>
</trkpt>
<trkpt lat="55.704334" lon="26.086351">
<ele>144.400513</ele>
<time>2010-07-17T20:03:46Z</time>
<desc>lat.=55.704334, lon.=26.086351, Alt.=144.400513m. Speed=0.108000m/h.</desc>
<speed>0.030000</speed>
</trkpt>
<trkpt lat="55.704334" lon="26.086351">
<ele>144.408325</ele>
<time>2010-07-17T20:03:47Z</time>
<desc>lat.=55.704334, lon.=26.086351, Alt.=144.408325m. Speed=0.000000m/h.</desc>
<speed>0.000000</speed>
</trkpt>
<trkpt lat="55.704334" lon="26.086351">
<ele>144.416138</ele>
<time>2010-07-17T20:03:48Z</time>
<desc>lat.=55.704334, lon.=26.086351, Alt.=144.416138m. Speed=0.036000m/h.</desc>
<speed>0.010000</speed>
</trkpt>
<trkpt lat="55.704334" lon="26.086353">
<ele>144.420044</ele>
<time>2010-07-17T20:03:49Z</time>
<desc>lat.=55.704334, lon.=26.086353, Alt.=144.420044m. Speed=0.036000m/h.</desc>
<speed>0.010000</speed>
</trkpt>
<trkpt lat="55.704334" lon="26.086353">
<ele>144.427856</ele>
<time>2010-07-17T20:03:50Z</time>
<desc>lat.=55.704334, lon.=26.086353, Alt.=144.427856m. Speed=0.072000m/h.</desc>
<speed>0.020000</speed>
</trkpt>
<trkpt lat="55.704334" lon="26.086353">
<ele>144.431763</ele>
<time>2010-07-17T20:03:51Z</time>
<desc>lat.=55.704334, lon.=26.086353, Alt.=144.431763m. Speed=0.072000m/h.</desc>
<speed>0.020000</speed>
</trkpt>
<trkpt lat="55.704334" lon="26.086353">
<ele>144.439575</ele>
<time>2010-07-17T20:03:52Z</time>
<desc>lat.=55.704334, lon.=26.086353, Alt.=144.439575m. Speed=0.000000m/h.</desc>
<speed>0.000000</speed>
</trkpt>
<trkpt lat="55.704334" lon="26.086353">
<ele>144.423950</ele>
<time>2010-07-17T20:03:53Z</time>
<desc>lat.=55.704334, lon.=26.086353, Alt.=144.423950m. Speed=0.000000m/h.</desc>
<speed>0.000000</speed>
</trkpt>
<trkpt lat="55.704334" lon="26.086353">
<ele>144.420044</ele>
<time>2010-07-17T20:03:54Z</time>
<desc>lat.=55.704334, lon.=26.086353, Alt.=144.420044m. Speed=0.144000m/h.</desc>
<speed>0.040000</speed>
</trkpt>
<trkpt lat="55.704334" lon="26.086353">
<ele>144.412231</ele>
<time>2010-07-17T20:03:55Z</time>
<desc>lat.=55.704334, lon.=26.086353, Alt.=144.412231m. Speed=0.036000m/h.</desc>
<speed>0.010000</speed>
</trkpt>
<trkpt lat="55.704334" lon="26.086353">
<ele>144.404419</ele>
<time>2010-07-17T20:03:56Z</time>
<desc>lat.=55.704334, lon.=26.086353, Alt.=144.404419m. Speed=0.108000m/h.</desc>
<speed>0.030000</speed>
</trkpt>
<trkpt lat="55.704334" lon="26.086353">
<ele>144.400513</ele>
<time>2010-07-17T20:03:57Z</time>
<desc>lat.=55.704334, lon.=26.086353, Alt.=144.400513m. Speed=0.036000m/h.</desc>
<speed>0.010000</speed>
</trkpt>
<trkpt lat="55.704334" lon="26.086353">
<ele>144.400513</ele>
<time>2010-07-17T20:03:58Z</time>
<desc>lat.=55.704334, lon.=26.086353, Alt.=144.400513m. Speed=0.036000m/h.</desc>
<speed>0.010000</speed>
</trkpt>
<trkpt lat="55.704334" lon="26.086353">
<ele>144.392700</ele>
<time>2010-07-17T20:03:59Z</time>
<desc>lat.=55.704334, lon.=26.086353, Alt.=144.392700m. Speed=0.072000m/h.</desc>
<speed>0.020000</speed>
</trkpt>
<trkpt lat="55.704334" lon="26.086353">
<ele>144.388794</ele>
<time>2010-07-17T20:04:00Z</time>
<desc>lat.=55.704334, lon.=26.086353, Alt.=144.388794m. Speed=0.036000m/h.</desc>
<speed>0.010000</speed>
</trkpt>
<trkpt lat="55.704334" lon="26.086353">
<ele>144.384888</ele>
<time>2010-07-17T20:04:01Z</time>
<desc>lat.=55.704334, lon.=26.086353, Alt.=144.384888m. Speed=0.000000m/h.</desc>
<speed>0.000000</speed>
</trkpt>
<trkpt lat="55.704334" lon="26.086353">
<ele>144.377075</ele>
<time>2010-07-17T20:04:02Z</time>
<desc>lat.=55.704334, lon.=26.086353, Alt.=144.377075m. Speed=0.036000m/h.</desc>
<speed>0.010000</speed>
</trkpt>
<trkpt lat="55.704334" lon="26.086353">
<ele>144.373169</ele>
<time>2010-07-17T20:04:03Z</time>
<desc>lat.=55.704334, lon.=26.086353, Alt.=144.373169m. Speed=0.072000m/h.</desc>
<speed>0.020000</speed>
</trkpt>
<trkpt lat="55.704334" lon="26.086353">
<ele>144.377075</ele>
<time>2010-07-17T20:04:04Z</time>
<desc>lat.=55.704334, lon.=26.086353, Alt.=144.377075m. Speed=0.036000m/h.</desc>
<speed>0.010000</speed>
</trkpt>
<trkpt lat="55.704334" lon="26.086353">
<ele>144.377075</ele>
<time>2010-07-17T20:04:05Z</time>
<desc>lat.=55.704334, lon.=26.086353, Alt.=144.377075m. Speed=0.036000m/h.</desc>
<speed>0.010000</speed>
</trkpt>
<trkpt lat="55.704334" lon="26.086353">
<ele>144.384888</ele>
<time>2010-07-17T20:04:06Z</time>
<desc>lat.=55.704334, lon.=26.086353, Alt.=144.384888m. Speed=0.000000m/h.</desc>
<speed>0.000000</speed>
</trkpt>
<trkpt lat="55.704334" lon="26.086353">
<ele>144.392700</ele>
<time>2010-07-17T20:04:07Z</time>
<desc>lat.=55.704334, lon.=26.086353, Alt.=144.392700m. Speed=0.036000m/h.</desc>
<speed>0.010000</speed>
</trkpt>
<trkpt lat="55.704334" lon="26.086353">
<ele>144.392700</ele>
<time>2010-07-17T20:04:08Z</time>
<desc>lat.=55.704334, lon.=26.086353, Alt.=144.392700m. Speed=0.072000m/h.</desc>
<speed>0.020000</speed>
</trkpt>
<trkpt lat="55.704334" lon="26.086353">
<ele>144.396606</ele>
<time>2010-07-17T20:04:09Z</time>
<desc>lat.=55.704334, lon.=26.086353, Alt.=144.396606m. Speed=0.036000m/h.</desc>
<speed>0.010000</speed>
</trkpt>
<trkpt lat="55.704334" lon="26.086353">
<ele>144.396606</ele>
<time>2010-07-17T20:04:10Z</time>
<desc>lat.=55.704334, lon.=26.086353, Alt.=144.396606m. Speed=0.000000m/h.</desc>
<speed>0.000000</speed>
</trkpt>
<trkpt lat="55.704334" lon="26.086353">
<ele>144.408325</ele>
<time>2010-07-17T20:04:11Z</time>
<desc>lat.=55.704334, lon.=26.086353, Alt.=144.408325m. Speed=0.036000m/h.</desc>
<speed>0.010000</speed>
</trkpt>
<trkpt lat="55.704334" lon="26.086353">
<ele>144.412231</ele>
<time>2010-07-17T20:04:12Z</time>
<desc>lat.=55.704334, lon.=26.086353, Alt.=144.412231m. Speed=0.072000m/h.</desc>
<speed>0.020000</speed>
</trkpt>
<trkpt lat="55.704334" lon="26.086353">
<ele>144.412231</ele>
<time>2010-07-17T20:04:13Z</time>
<desc>lat.=55.704334, lon.=26.086353, Alt.=144.412231m. Speed=0.072000m/h.</desc>
<speed>0.020000</speed>
</trkpt>
<trkpt lat="55.704334" lon="26.086353">
<ele>144.416138</ele>
<time>2010-07-17T20:04:14Z</time>
<desc>lat.=55.704334, lon.=26.086353, Alt.=144.416138m. Speed=0.072000m/h.</desc>
<speed>0.020000</speed>
</trkpt>
<trkpt lat="55.704334" lon="26.086353">
<ele>144.420044</ele>
<time>2010-07-17T20:04:15Z</time>
<desc>lat.=55.704334, lon.=26.086353, Alt.=144.420044m. Speed=0.036000m/h.</desc>
<speed>0.010000</speed>
</trkpt>
<trkpt lat="55.704334" lon="26.086353">
<ele>144.416138</ele>
<time>2010-07-17T20:04:16Z</time>
<desc>lat.=55.704334, lon.=26.086353, Alt.=144.416138m. Speed=0.072000m/h.</desc>
<speed>0.020000</speed>
</trkpt>
<trkpt lat="55.704334" lon="26.086353">
<ele>144.416138</ele>
<time>2010-07-17T20:04:17Z</time>
<desc>lat.=55.704334, lon.=26.086353, Alt.=144.416138m. Speed=0.036000m/h.</desc>
<speed>0.010000</speed>
</trkpt>
<trkpt lat="55.704334" lon="26.086353">
<ele>144.423950</ele>
<time>2010-07-17T20:04:18Z</time>
<desc>lat.=55.704334, lon.=26.086353, Alt.=144.423950m. Speed=0.036000m/h.</desc>
<speed>0.010000</speed>
</trkpt>
<trkpt lat="55.704334" lon="26.086353">
<ele>144.423950</ele>
<time>2010-07-17T20:04:19Z</time>
<desc>lat.=55.704334, lon.=26.086353, Alt.=144.423950m. Speed=0.036000m/h.</desc>
<speed>0.010000</speed>
</trkpt>
<trkpt lat="55.704334" lon="26.086353">
<ele>144.423950</ele>
<time>2010-07-17T20:04:20Z</time>
<desc>lat.=55.704334, lon.=26.086353, Alt.=144.423950m. Speed=0.000000m/h.</desc>
<speed>0.000000</speed>
</trkpt>
<trkpt lat="55.704334" lon="26.086353">
<ele>144.427856</ele>
<time>2010-07-17T20:04:21Z</time>
<desc>lat.=55.704334, lon.=26.086353, Alt.=144.427856m. Speed=0.108000m/h.</desc>
<speed>0.030000</speed>
</trkpt>
<trkpt lat="55.704334" lon="26.086351">
<ele>144.427856</ele>
<time>2010-07-17T20:04:22Z</time>
<desc>lat.=55.704334, lon.=26.086351, Alt.=144.427856m. Speed=0.000000m/h.</desc>
<speed>0.000000</speed>
</trkpt>
<trkpt lat="55.704334" lon="26.086351">
<ele>144.431763</ele>
<time>2010-07-17T20:04:23Z</time>
<desc>lat.=55.704334, lon.=26.086351, Alt.=144.431763m. Speed=0.072000m/h.</desc>
<speed>0.020000</speed>
</trkpt>
<trkpt lat="55.704334" lon="26.086351">
<ele>144.431763</ele>
<time>2010-07-17T20:04:24Z</time>
<desc>lat.=55.704334, lon.=26.086351, Alt.=144.431763m. Speed=0.216000m/h.</desc>
<speed>0.060000</speed>
</trkpt>
<trkpt lat="55.704334" lon="26.086351">
<ele>144.435669</ele>
<time>2010-07-17T20:04:25Z</time>
<desc>lat.=55.704334, lon.=26.086351, Alt.=144.435669m. Speed=0.036000m/h.</desc>
<speed>0.010000</speed>
</trkpt>
<trkpt lat="55.704334" lon="26.086351">
<ele>144.435669</ele>
<time>2010-07-17T20:04:26Z</time>
<desc>lat.=55.704334, lon.=26.086351, Alt.=144.435669m. Speed=0.072000m/h.</desc>
<speed>0.020000</speed>
</trkpt>
<trkpt lat="55.704334" lon="26.086351">
<ele>144.443481</ele>
<time>2010-07-17T20:04:27Z</time>
<desc>lat.=55.704334, lon.=26.086351, Alt.=144.443481m. Speed=0.036000m/h.</desc>
<speed>0.010000</speed>
</trkpt>
<trkpt lat="55.704334" lon="26.086351">
<ele>144.447388</ele>
<time>2010-07-17T20:04:28Z</time>
<desc>lat.=55.704334, lon.=26.086351, Alt.=144.447388m. Speed=0.072000m/h.</desc>
<speed>0.020000</speed>
</trkpt>
<trkpt lat="55.704334" lon="26.086351">
<ele>144.447388</ele>
<time>2010-07-17T20:04:29Z</time>
<desc>lat.=55.704334, lon.=26.086351, Alt.=144.447388m. Speed=0.036000m/h.</desc>
<speed>0.010000</speed>
</trkpt>
<trkpt lat="55.704334" lon="26.086351">
<ele>144.451294</ele>
<time>2010-07-17T20:04:30Z</time>
<desc>lat.=55.704334, lon.=26.086351, Alt.=144.451294m. Speed=0.036000m/h.</desc>
<speed>0.010000</speed>
</trkpt>
<trkpt lat="55.704334" lon="26.086351">
<ele>144.451294</ele>
<time>2010-07-17T20:04:31Z</time>
<desc>lat.=55.704334, lon.=26.086351, Alt.=144.451294m. Speed=0.036000m/h.</desc>
<speed>0.010000</speed>
</trkpt>
<trkpt lat="55.704334" lon="26.086351">
<ele>144.451294</ele>
<time>2010-07-17T20:04:32Z</time>
<desc>lat.=55.704334, lon.=26.086351, Alt.=144.451294m. Speed=0.036000m/h.</desc>
<speed>0.010000</speed>
</trkpt>
<trkpt lat="55.704334" lon="26.086351">
<ele>144.455200</ele>
<time>2010-07-17T20:04:33Z</time>
<desc>lat.=55.704334, lon.=26.086351, Alt.=144.455200m. Speed=0.000000m/h.</desc>
<speed>0.000000</speed>
</trkpt>
<trkpt lat="55.704334" lon="26.086351">
<ele>144.455200</ele>
<time>2010-07-17T20:04:34Z</time>
<desc>lat.=55.704334, lon.=26.086351, Alt.=144.455200m. Speed=0.072000m/h.</desc>
<speed>0.020000</speed>
</trkpt>
<trkpt lat="55.704334" lon="26.086351">
<ele>144.455200</ele>
<time>2010-07-17T20:04:35Z</time>
<desc>lat.=55.704334, lon.=26.086351, Alt.=144.455200m. Speed=0.000000m/h.</desc>
<speed>0.000000</speed>
</trkpt>
<trkpt lat="55.704334" lon="26.086351">
<ele>144.459106</ele>
<time>2010-07-17T20:04:36Z</time>
<desc>lat.=55.704334, lon.=26.086351, Alt.=144.459106m. Speed=0.036000m/h.</desc>
<speed>0.010000</speed>
</trkpt>
<trkpt lat="55.704334" lon="26.086351">
<ele>144.463013</ele>
<time>2010-07-17T20:04:37Z</time>
<desc>lat.=55.704334, lon.=26.086351, Alt.=144.463013m. Speed=0.036000m/h.</desc>
<speed>0.010000</speed>
</trkpt>
<trkpt lat="55.704334" lon="26.086351">
<ele>144.463013</ele>
<time>2010-07-17T20:04:38Z</time>
<desc>lat.=55.704334, lon.=26.086351, Alt.=144.463013m. Speed=0.036000m/h.</desc>
<speed>0.010000</speed>
</trkpt>
<trkpt lat="55.704334" lon="26.086351">
<ele>144.463013</ele>
<time>2010-07-17T20:04:39Z</time>
<desc>lat.=55.704334, lon.=26.086351, Alt.=144.463013m. Speed=0.000000m/h.</desc>
<speed>0.000000</speed>
</trkpt>
<trkpt lat="55.704334" lon="26.086351">
<ele>144.466919</ele>
<time>2010-07-17T20:04:40Z</time>
<desc>lat.=55.704334, lon.=26.086351, Alt.=144.466919m. Speed=0.072000m/h.</desc>
<speed>0.020000</speed>
</trkpt>
<trkpt lat="55.704334" lon="26.086351">
<ele>144.466919</ele>
<time>2010-07-17T20:04:41Z</time>
<desc>lat.=55.704334, lon.=26.086351, Alt.=144.466919m. Speed=0.108000m/h.</desc>
<speed>0.030000</speed>
</trkpt>
<trkpt lat="55.704334" lon="26.086351">
<ele>144.470825</ele>
<time>2010-07-17T20:04:42Z</time>
<desc>lat.=55.704334, lon.=26.086351, Alt.=144.470825m. Speed=0.072000m/h.</desc>
<speed>0.020000</speed>
</trkpt>
<trkpt lat="55.704334" lon="26.086351">
<ele>144.466919</ele>
<time>2010-07-17T20:04:43Z</time>
<desc>lat.=55.704334, lon.=26.086351, Alt.=144.466919m. Speed=0.144000m/h.</desc>
<speed>0.040000</speed>
</trkpt>
<trkpt lat="55.704334" lon="26.086353">
<ele>144.463013</ele>
<time>2010-07-17T20:04:44Z</time>
<desc>lat.=55.704334, lon.=26.086353, Alt.=144.463013m. Speed=0.108000m/h.</desc>
<speed>0.030000</speed>
</trkpt>
<trkpt lat="55.704334" lon="26.086353">
<ele>144.455200</ele>
<time>2010-07-17T20:04:45Z</time>
<desc>lat.=55.704334, lon.=26.086353, Alt.=144.455200m. Speed=0.000000m/h.</desc>
<speed>0.000000</speed>
</trkpt>
<trkpt lat="55.704334" lon="26.086353">
<ele>144.455200</ele>
<time>2010-07-17T20:04:46Z</time>
<desc>lat.=55.704334, lon.=26.086353, Alt.=144.455200m. Speed=0.036000m/h.</desc>
<speed>0.010000</speed>
</trkpt>
<trkpt lat="55.704334" lon="26.086353">
<ele>144.451294</ele>
<time>2010-07-17T20:04:47Z</time>
<desc>lat.=55.704334, lon.=26.086353, Alt.=144.451294m. Speed=0.036000m/h.</desc>
<speed>0.010000</speed>
</trkpt>
<trkpt lat="55.704334" lon="26.086353">
<ele>144.451294</ele>
<time>2010-07-17T20:04:48Z</time>
<desc>lat.=55.704334, lon.=26.086353, Alt.=144.451294m. Speed=0.036000m/h.</desc>
<speed>0.010000</speed>
</trkpt>
<trkpt lat="55.704334" lon="26.086353">
<ele>144.451294</ele>
<time>2010-07-17T20:04:49Z</time>
<desc>lat.=55.704334, lon.=26.086353, Alt.=144.451294m. Speed=0.036000m/h.</desc>
<speed>0.010000</speed>
</trkpt>
<trkpt lat="55.704334" lon="26.086353">
<ele>144.459106</ele>
<time>2010-07-17T20:04:50Z</time>
<desc>lat.=55.704334, lon.=26.086353, Alt.=144.459106m. Speed=0.072000m/h.</desc>
<speed>0.020000</speed>
</trkpt>
<trkpt lat="55.704334" lon="26.086351">
<ele>144.470825</ele>
<time>2010-07-17T20:04:51Z</time>
<desc>lat.=55.704334, lon.=26.086351, Alt.=144.470825m. Speed=0.036000m/h.</desc>
<speed>0.010000</speed>
</trkpt>
<trkpt lat="55.704334" lon="26.086351">
<ele>144.478638</ele>
<time>2010-07-17T20:04:52Z</time>
<desc>lat.=55.704334, lon.=26.086351, Alt.=144.478638m. Speed=0.072000m/h.</desc>
<speed>0.020000</speed>
</trkpt>
<trkpt lat="55.704334" lon="26.086351">
<ele>144.494263</ele>
<time>2010-07-17T20:04:53Z</time>
<desc>lat.=55.704334, lon.=26.086351, Alt.=144.494263m. Speed=0.000000m/h.</desc>
<speed>0.000000</speed>
</trkpt>
<trkpt lat="55.704334" lon="26.086351">
<ele>144.494263</ele>
<time>2010-07-17T20:04:54Z</time>
<desc>lat.=55.704334, lon.=26.086351, Alt.=144.494263m. Speed=0.000000m/h.</desc>
<speed>0.000000</speed>
</trkpt>
<trkpt lat="55.704334" lon="26.086351">
<ele>144.505981</ele>
<time>2010-07-17T20:04:55Z</time>
<desc>lat.=55.704334, lon.=26.086351, Alt.=144.505981m. Speed=0.036000m/h.</desc>
<speed>0.010000</speed>
</trkpt>
<trkpt lat="55.704334" lon="26.086351">
<ele>144.505981</ele>
<time>2010-07-17T20:04:56Z</time>
<desc>lat.=55.704334, lon.=26.086351, Alt.=144.505981m. Speed=0.072000m/h.</desc>
<speed>0.020000</speed>
</trkpt>
<trkpt lat="55.704334" lon="26.086351">
<ele>144.513794</ele>
<time>2010-07-17T20:04:57Z</time>
<desc>lat.=55.704334, lon.=26.086351, Alt.=144.513794m. Speed=0.036000m/h.</desc>
<speed>0.010000</speed>
</trkpt>
<trkpt lat="55.704334" lon="26.086351">
<ele>144.521606</ele>
<time>2010-07-17T20:04:58Z</time>
<desc>lat.=55.704334, lon.=26.086351, Alt.=144.521606m. Speed=0.072000m/h.</desc>
<speed>0.020000</speed>
</trkpt>
<trkpt lat="55.704334" lon="26.086351">
<ele>144.529419</ele>
<time>2010-07-17T20:04:59Z</time>
<desc>lat.=55.704334, lon.=26.086351, Alt.=144.529419m. Speed=0.000000m/h.</desc>
<speed>0.000000</speed>
</trkpt>
<trkpt lat="55.704334" lon="26.086351">
<ele>144.537231</ele>
<time>2010-07-17T20:05:00Z</time>
<desc>lat.=55.704334, lon.=26.086351, Alt.=144.537231m. Speed=0.036000m/h.</desc>
<speed>0.010000</speed>
</trkpt>
<trkpt lat="55.704334" lon="26.086351">
<ele>144.541138</ele>
<time>2010-07-17T20:05:01Z</time>
<desc>lat.=55.704334, lon.=26.086351, Alt.=144.541138m. Speed=0.000000m/h.</desc>
<speed>0.000000</speed>
</trkpt>
<trkpt lat="55.704334" lon="26.086351">
<ele>144.548950</ele>
<time>2010-07-17T20:05:02Z</time>
<desc>lat.=55.704334, lon.=26.086351, Alt.=144.548950m. Speed=0.036000m/h.</desc>
<speed>0.010000</speed>
</trkpt>
<trkpt lat="55.704334" lon="26.086351">
<ele>144.552856</ele>
<time>2010-07-17T20:05:03Z</time>
<desc>lat.=55.704334, lon.=26.086351, Alt.=144.552856m. Speed=0.072000m/h.</desc>
<speed>0.020000</speed>
</trkpt>
<trkpt lat="55.704334" lon="26.086351">
<ele>144.568481</ele>
<time>2010-07-17T20:05:04Z</time>
<desc>lat.=55.704334, lon.=26.086351, Alt.=144.568481m. Speed=0.108000m/h.</desc>
<speed>0.030000</speed>
</trkpt>
<trkpt lat="55.704334" lon="26.086351">
<ele>144.580200</ele>
<time>2010-07-17T20:05:05Z</time>
<desc>lat.=55.704334, lon.=26.086351, Alt.=144.580200m. Speed=0.108000m/h.</desc>
<speed>0.030000</speed>
</trkpt>
<trkpt lat="55.704334" lon="26.086351">
<ele>144.588013</ele>
<time>2010-07-17T20:05:06Z</time>
<desc>lat.=55.704334, lon.=26.086351, Alt.=144.588013m. Speed=0.036000m/h.</desc>
<speed>0.010000</speed>
</trkpt>
<trkpt lat="55.704334" lon="26.086351">
<ele>144.591919</ele>
<time>2010-07-17T20:05:07Z</time>
<desc>lat.=55.704334, lon.=26.086351, Alt.=144.591919m. Speed=0.108000m/h.</desc>
<speed>0.030000</speed>
</trkpt>
<trkpt lat="55.704334" lon="26.086351">
<ele>144.591919</ele>
<time>2010-07-17T20:05:08Z</time>
<desc>lat.=55.704334, lon.=26.086351, Alt.=144.591919m. Speed=0.072000m/h.</desc>
<speed>0.020000</speed>
</trkpt>
<trkpt lat="55.704334" lon="26.086351">
<ele>144.595825</ele>
<time>2010-07-17T20:05:09Z</time>
<desc>lat.=55.704334, lon.=26.086351, Alt.=144.595825m. Speed=0.072000m/h.</desc>
<speed>0.020000</speed>
</trkpt>
<trkpt lat="55.704334" lon="26.086351">
<ele>144.595825</ele>
<time>2010-07-17T20:05:10Z</time>
<desc>lat.=55.704334, lon.=26.086351, Alt.=144.595825m. Speed=0.000000m/h.</desc>
<speed>0.000000</speed>
</trkpt>
<trkpt lat="55.704334" lon="26.086351">
<ele>144.595825</ele>
<time>2010-07-17T20:05:11Z</time>
<desc>lat.=55.704334, lon.=26.086351, Alt.=144.595825m. Speed=0.000000m/h.</desc>
<speed>0.000000</speed>
</trkpt>
<trkpt lat="55.704334" lon="26.086351">
<ele>144.599731</ele>
<time>2010-07-17T20:05:12Z</time>
<desc>lat.=55.704334, lon.=26.086351, Alt.=144.599731m. Speed=0.036000m/h.</desc>
<speed>0.010000</speed>
</trkpt>
<trkpt lat="55.704334" lon="26.086351">
<ele>144.603638</ele>
<time>2010-07-17T20:05:13Z</time>
<desc>lat.=55.704334, lon.=26.086351, Alt.=144.603638m. Speed=0.036000m/h.</desc>
<speed>0.010000</speed>
</trkpt>
<trkpt lat="55.704334" lon="26.086351">
<ele>144.607544</ele>
<time>2010-07-17T20:05:14Z</time>
<desc>lat.=55.704334, lon.=26.086351, Alt.=144.607544m. Speed=0.036000m/h.</desc>
<speed>0.010000</speed>
</trkpt>
<trkpt lat="55.704334" lon="26.086351">
<ele>144.615356</ele>
<time>2010-07-17T20:05:15Z</time>
<desc>lat.=55.704334, lon.=26.086351, Alt.=144.615356m. Speed=0.036000m/h.</desc>
<speed>0.010000</speed>
</trkpt>
<trkpt lat="55.704334" lon="26.086351">
<ele>144.615356</ele>
<time>2010-07-17T20:05:16Z</time>
<desc>lat.=55.704334, lon.=26.086351, Alt.=144.615356m. Speed=0.036000m/h.</desc>
<speed>0.010000</speed>
</trkpt>
<trkpt lat="55.704334" lon="26.086351">
<ele>144.627075</ele>
<time>2010-07-17T20:05:17Z</time>
<desc>lat.=55.704334, lon.=26.086351, Alt.=144.627075m. Speed=0.000000m/h.</desc>
<speed>0.000000</speed>
</trkpt>
<trkpt lat="55.704334" lon="26.086351">
<ele>144.627075</ele>
<time>2010-07-17T20:05:18Z</time>
<desc>lat.=55.704334, lon.=26.086351, Alt.=144.627075m. Speed=0.072000m/h.</desc>
<speed>0.020000</speed>
</trkpt>
<trkpt lat="55.704334" lon="26.086351">
<ele>144.630981</ele>
<time>2010-07-17T20:05:19Z</time>
<desc>lat.=55.704334, lon.=26.086351, Alt.=144.630981m. Speed=0.036000m/h.</desc>
<speed>0.010000</speed>
</trkpt>
<trkpt lat="55.704334" lon="26.086351">
<ele>144.638794</ele>
<time>2010-07-17T20:05:20Z</time>
<desc>lat.=55.704334, lon.=26.086351, Alt.=144.638794m. Speed=0.072000m/h.</desc>
<speed>0.020000</speed>
</trkpt>
<trkpt lat="55.704334" lon="26.086351">
<ele>144.654419</ele>
<time>2010-07-17T20:05:21Z</time>
<desc>lat.=55.704334, lon.=26.086351, Alt.=144.654419m. Speed=0.072000m/h.</desc>
<speed>0.020000</speed>
</trkpt>
<trkpt lat="55.704334" lon="26.086351">
<ele>144.662231</ele>
<time>2010-07-17T20:05:22Z</time>
<desc>lat.=55.704334, lon.=26.086351, Alt.=144.662231m. Speed=0.072000m/h.</desc>
<speed>0.020000</speed>
</trkpt>
<trkpt lat="55.704334" lon="26.086351">
<ele>144.670044</ele>
<time>2010-07-17T20:05:23Z</time>
<desc>lat.=55.704334, lon.=26.086351, Alt.=144.670044m. Speed=0.072000m/h.</desc>
<speed>0.020000</speed>
</trkpt>
<trkpt lat="55.704334" lon="26.086351">
<ele>144.673950</ele>
<time>2010-07-17T20:05:24Z</time>
<desc>lat.=55.704334, lon.=26.086351, Alt.=144.673950m. Speed=0.072000m/h.</desc>
<speed>0.020000</speed>
</trkpt>
<trkpt lat="55.704334" lon="26.086351">
<ele>144.677856</ele>
<time>2010-07-17T20:05:25Z</time>
<desc>lat.=55.704334, lon.=26.086351, Alt.=144.677856m. Speed=0.072000m/h.</desc>
<speed>0.020000</speed>
</trkpt>
<trkpt lat="55.704334" lon="26.086349">
<ele>144.689575</ele>
<time>2010-07-17T20:05:26Z</time>
<desc>lat.=55.704334, lon.=26.086349, Alt.=144.689575m. Speed=0.000000m/h.</desc>
<speed>0.000000</speed>
</trkpt>
<trkpt lat="55.704334" lon="26.086349">
<ele>144.689575</ele>
<time>2010-07-17T20:05:27Z</time>
<desc>lat.=55.704334, lon.=26.086349, Alt.=144.689575m. Speed=0.072000m/h.</desc>
<speed>0.020000</speed>
</trkpt>
<trkpt lat="55.704334" lon="26.086349">
<ele>144.701294</ele>
<time>2010-07-17T20:05:28Z</time>
<desc>lat.=55.704334, lon.=26.086349, Alt.=144.701294m. Speed=0.072000m/h.</desc>
<speed>0.020000</speed>
</trkpt>
<trkpt lat="55.704334" lon="26.086349">
<ele>144.709106</ele>
<time>2010-07-17T20:05:29Z</time>
<desc>lat.=55.704334, lon.=26.086349, Alt.=144.709106m. Speed=0.036000m/h.</desc>
<speed>0.010000</speed>
</trkpt>
<trkpt lat="55.704334" lon="26.086349">
<ele>144.713013</ele>
<time>2010-07-17T20:05:30Z</time>
<desc>lat.=55.704334, lon.=26.086349, Alt.=144.713013m. Speed=0.072000m/h.</desc>
<speed>0.020000</speed>
</trkpt>
<trkpt lat="55.704334" lon="26.086349">
<ele>144.720825</ele>
<time>2010-07-17T20:05:31Z</time>
<desc>lat.=55.704334, lon.=26.086349, Alt.=144.720825m. Speed=0.072000m/h.</desc>
<speed>0.020000</speed>
</trkpt>
<trkpt lat="55.704334" lon="26.086349">
<ele>144.724731</ele>
<time>2010-07-17T20:05:32Z</time>
<desc>lat.=55.704334, lon.=26.086349, Alt.=144.724731m. Speed=0.108000m/h.</desc>
<speed>0.030000</speed>
</trkpt>
<trkpt lat="55.704334" lon="26.086349">
<ele>144.728638</ele>
<time>2010-07-17T20:05:33Z</time>
<desc>lat.=55.704334, lon.=26.086349, Alt.=144.728638m. Speed=0.072000m/h.</desc>
<speed>0.020000</speed>
</trkpt>
<trkpt lat="55.704334" lon="26.086349">
<ele>144.736450</ele>
<time>2010-07-17T20:05:34Z</time>
<desc>lat.=55.704334, lon.=26.086349, Alt.=144.736450m. Speed=0.108000m/h.</desc>
<speed>0.030000</speed>
</trkpt>
<trkpt lat="55.704334" lon="26.086349">
<ele>144.744263</ele>
<time>2010-07-17T20:05:35Z</time>
<desc>lat.=55.704334, lon.=26.086349, Alt.=144.744263m. Speed=0.072000m/h.</desc>
<speed>0.020000</speed>
</trkpt>
<trkpt lat="55.704334" lon="26.086349">
<ele>144.752075</ele>
<time>2010-07-17T20:05:36Z</time>
<desc>lat.=55.704334, lon.=26.086349, Alt.=144.752075m. Speed=0.036000m/h.</desc>
<speed>0.010000</speed>
</trkpt>
<trkpt lat="55.704334" lon="26.086349">
<ele>144.759888</ele>
<time>2010-07-17T20:05:37Z</time>
<desc>lat.=55.704334, lon.=26.086349, Alt.=144.759888m. Speed=0.036000m/h.</desc>
<speed>0.010000</speed>
</trkpt>
<trkpt lat="55.704334" lon="26.086349">
<ele>144.767700</ele>
<time>2010-07-17T20:05:38Z</time>
<desc>lat.=55.704334, lon.=26.086349, Alt.=144.767700m. Speed=0.036000m/h.</desc>
<speed>0.010000</speed>
</trkpt>
<trkpt lat="55.704334" lon="26.086349">
<ele>144.775513</ele>
<time>2010-07-17T20:05:39Z</time>
<desc>lat.=55.704334, lon.=26.086349, Alt.=144.775513m. Speed=0.036000m/h.</desc>
<speed>0.010000</speed>
</trkpt>
<trkpt lat="55.704334" lon="26.086349">
<ele>144.779419</ele>
<time>2010-07-17T20:05:40Z</time>
<desc>lat.=55.704334, lon.=26.086349, Alt.=144.779419m. Speed=0.108000m/h.</desc>
<speed>0.030000</speed>
</trkpt>
<trkpt lat="55.704334" lon="26.086349">
<ele>144.791138</ele>
<time>2010-07-17T20:05:41Z</time>
<desc>lat.=55.704334, lon.=26.086349, Alt.=144.791138m. Speed=0.072000m/h.</desc>
<speed>0.020000</speed>
</trkpt>
<trkpt lat="55.704334" lon="26.086349">
<ele>144.795044</ele>
<time>2010-07-17T20:05:42Z</time>
<desc>lat.=55.704334, lon.=26.086349, Alt.=144.795044m. Speed=0.072000m/h.</desc>
<speed>0.020000</speed>
</trkpt>
<trkpt lat="55.704334" lon="26.086348">
<ele>144.802856</ele>
<time>2010-07-17T20:05:43Z</time>
<desc>lat.=55.704334, lon.=26.086348, Alt.=144.802856m. Speed=0.000000m/h.</desc>
<speed>0.000000</speed>
</trkpt>
<trkpt lat="55.704334" lon="26.086348">
<ele>144.806763</ele>
<time>2010-07-17T20:05:44Z</time>
<desc>lat.=55.704334, lon.=26.086348, Alt.=144.806763m. Speed=0.000000m/h.</desc>
<speed>0.000000</speed>
</trkpt>
<trkpt lat="55.704334" lon="26.086348">
<ele>144.810669</ele>
<time>2010-07-17T20:05:45Z</time>
<desc>lat.=55.704334, lon.=26.086348, Alt.=144.810669m. Speed=0.036000m/h.</desc>
<speed>0.010000</speed>
</trkpt>
<trkpt lat="55.704334" lon="26.086348">
<ele>144.814575</ele>
<time>2010-07-17T20:05:46Z</time>
<desc>lat.=55.704334, lon.=26.086348, Alt.=144.814575m. Speed=0.072000m/h.</desc>
<speed>0.020000</speed>
</trkpt>
<trkpt lat="55.704334" lon="26.086349">
<ele>144.818481</ele>
<time>2010-07-17T20:05:47Z</time>
<desc>lat.=55.704334, lon.=26.086349, Alt.=144.818481m. Speed=0.108000m/h.</desc>
<speed>0.030000</speed>
</trkpt>
<trkpt lat="55.704334" lon="26.086349">
<ele>144.814575</ele>
<time>2010-07-17T20:05:48Z</time>
<desc>lat.=55.704334, lon.=26.086349, Alt.=144.814575m. Speed=0.072000m/h.</desc>
<speed>0.020000</speed>
</trkpt>
<trkpt lat="55.704334" lon="26.086349">
<ele>144.814575</ele>
<time>2010-07-17T20:05:49Z</time>
<desc>lat.=55.704334, lon.=26.086349, Alt.=144.814575m. Speed=0.108000m/h.</desc>
<speed>0.030000</speed>
</trkpt>
<trkpt lat="55.704334" lon="26.086349">
<ele>144.810669</ele>
<time>2010-07-17T20:05:50Z</time>
<desc>lat.=55.704334, lon.=26.086349, Alt.=144.810669m. Speed=0.036000m/h.</desc>
<speed>0.010000</speed>
</trkpt>
<trkpt lat="55.704334" lon="26.086349">
<ele>144.806763</ele>
<time>2010-07-17T20:05:51Z</time>
<desc>lat.=55.704334, lon.=26.086349, Alt.=144.806763m. Speed=0.036000m/h.</desc>
<speed>0.010000</speed>
</trkpt>
<trkpt lat="55.704334" lon="26.086349">
<ele>144.802856</ele>
<time>2010-07-17T20:05:52Z</time>
<desc>lat.=55.704334, lon.=26.086349, Alt.=144.802856m. Speed=0.036000m/h.</desc>
<speed>0.010000</speed>
</trkpt>
<trkpt lat="55.704334" lon="26.086349">
<ele>144.802856</ele>
<time>2010-07-17T20:05:53Z</time>
<desc>lat.=55.704334, lon.=26.086349, Alt.=144.802856m. Speed=0.000000m/h.</desc>
<speed>0.000000</speed>
</trkpt>
<trkpt lat="55.704334" lon="26.086349">
<ele>144.802856</ele>
<time>2010-07-17T20:05:54Z</time>
<desc>lat.=55.704334, lon.=26.086349, Alt.=144.802856m. Speed=0.000000m/h.</desc>
<speed>0.000000</speed>
</trkpt>
<trkpt lat="55.704334" lon="26.086349">
<ele>144.798950</ele>
<time>2010-07-17T20:05:55Z</time>
<desc>lat.=55.704334, lon.=26.086349, Alt.=144.798950m. Speed=0.036000m/h.</desc>
<speed>0.010000</speed>
</trkpt>
<trkpt lat="55.704334" lon="26.086349">
<ele>144.802856</ele>
<time>2010-07-17T20:05:56Z</time>
<desc>lat.=55.704334, lon.=26.086349, Alt.=144.802856m. Speed=0.072000m/h.</desc>
<speed>0.020000</speed>
</trkpt>
<trkpt lat="55.704334" lon="26.086349">
<ele>144.806763</ele>
<time>2010-07-17T20:05:57Z</time>
<desc>lat.=55.704334, lon.=26.086349, Alt.=144.806763m. Speed=0.072000m/h.</desc>
<speed>0.020000</speed>
</trkpt>
<trkpt lat="55.704334" lon="26.086349">
<ele>144.810669</ele>
<time>2010-07-17T20:05:58Z</time>
<desc>lat.=55.704334, lon.=26.086349, Alt.=144.810669m. Speed=0.072000m/h.</desc>
<speed>0.020000</speed>
</trkpt>
<trkpt lat="55.704334" lon="26.086349">
<ele>144.806763</ele>
<time>2010-07-17T20:05:59Z</time>
<desc>lat.=55.704334, lon.=26.086349, Alt.=144.806763m. Speed=0.036000m/h.</desc>
<speed>0.010000</speed>
</trkpt>
<trkpt lat="55.704334" lon="26.086349">
<ele>144.802856</ele>
<time>2010-07-17T20:06:00Z</time>
<desc>lat.=55.704334, lon.=26.086349, Alt.=144.802856m. Speed=0.036000m/h.</desc>
<speed>0.010000</speed>
</trkpt>
<trkpt lat="55.704334" lon="26.086349">
<ele>144.802856</ele>
<time>2010-07-17T20:06:01Z</time>
<desc>lat.=55.704334, lon.=26.086349, Alt.=144.802856m. Speed=0.072000m/h.</desc>
<speed>0.020000</speed>
</trkpt>
<trkpt lat="55.704334" lon="26.086349">
<ele>144.795044</ele>
<time>2010-07-17T20:06:02Z</time>
<desc>lat.=55.704334, lon.=26.086349, Alt.=144.795044m. Speed=0.000000m/h.</desc>
<speed>0.000000</speed>
</trkpt>
<trkpt lat="55.704334" lon="26.086349">
<ele>144.798950</ele>
<time>2010-07-17T20:06:03Z</time>
<desc>lat.=55.704334, lon.=26.086349, Alt.=144.798950m. Speed=0.000000m/h.</desc>
<speed>0.000000</speed>
</trkpt>
<trkpt lat="55.704334" lon="26.086349">
<ele>144.802856</ele>
<time>2010-07-17T20:06:04Z</time>
<desc>lat.=55.704334, lon.=26.086349, Alt.=144.802856m. Speed=0.072000m/h.</desc>
<speed>0.020000</speed>
</trkpt>
<trkpt lat="55.704334" lon="26.086349">
<ele>144.806763</ele>
<time>2010-07-17T20:06:05Z</time>
<desc>lat.=55.704334, lon.=26.086349, Alt.=144.806763m. Speed=0.072000m/h.</desc>
<speed>0.020000</speed>
</trkpt>
<trkpt lat="55.704334" lon="26.086349">
<ele>144.810669</ele>
<time>2010-07-17T20:06:06Z</time>
<desc>lat.=55.704334, lon.=26.086349, Alt.=144.810669m. Speed=0.036000m/h.</desc>
<speed>0.010000</speed>
</trkpt>
<trkpt lat="55.704334" lon="26.086349">
<ele>144.814575</ele>
<time>2010-07-17T20:06:07Z</time>
<desc>lat.=55.704334, lon.=26.086349, Alt.=144.814575m. Speed=0.036000m/h.</desc>
<speed>0.010000</speed>
</trkpt>
<trkpt lat="55.704334" lon="26.086349">
<ele>144.810669</ele>
<time>2010-07-17T20:06:08Z</time>
<desc>lat.=55.704334, lon.=26.086349, Alt.=144.810669m. Speed=0.036000m/h.</desc>
<speed>0.010000</speed>
</trkpt>
<trkpt lat="55.704334" lon="26.086349">
<ele>144.806763</ele>
<time>2010-07-17T20:06:09Z</time>
<desc>lat.=55.704334, lon.=26.086349, Alt.=144.806763m. Speed=0.000000m/h.</desc>
<speed>0.000000</speed>
</trkpt>
<trkpt lat="55.704334" lon="26.086349">
<ele>144.810669</ele>
<time>2010-07-17T20:06:10Z</time>
<desc>lat.=55.704334, lon.=26.086349, Alt.=144.810669m. Speed=0.000000m/h.</desc>
<speed>0.000000</speed>
</trkpt>
<trkpt lat="55.704334" lon="26.086349">
<ele>144.802856</ele>
<time>2010-07-17T20:06:11Z</time>
<desc>lat.=55.704334, lon.=26.086349, Alt.=144.802856m. Speed=0.000000m/h.</desc>
<speed>0.000000</speed>
</trkpt>
<trkpt lat="55.704334" lon="26.086349">
<ele>144.802856</ele>
<time>2010-07-17T20:06:12Z</time>
<desc>lat.=55.704334, lon.=26.086349, Alt.=144.802856m. Speed=0.108000m/h.</desc>
<speed>0.030000</speed>
</trkpt>
<trkpt lat="55.704334" lon="26.086349">
<ele>144.798950</ele>
<time>2010-07-17T20:06:13Z</time>
<desc>lat.=55.704334, lon.=26.086349, Alt.=144.798950m. Speed=0.144000m/h.</desc>
<speed>0.040000</speed>
</trkpt>
<trkpt lat="55.704334" lon="26.086349">
<ele>144.798950</ele>
<time>2010-07-17T20:06:14Z</time>
<desc>lat.=55.704334, lon.=26.086349, Alt.=144.798950m. Speed=0.144000m/h.</desc>
<speed>0.040000</speed>
</trkpt>
<trkpt lat="55.704334" lon="26.086349">
<ele>144.798950</ele>
<time>2010-07-17T20:06:15Z</time>
<desc>lat.=55.704334, lon.=26.086349, Alt.=144.798950m. Speed=0.144000m/h.</desc>
<speed>0.040000</speed>
</trkpt>
<trkpt lat="55.704334" lon="26.086349">
<ele>144.806763</ele>
<time>2010-07-17T20:06:16Z</time>
<desc>lat.=55.704334, lon.=26.086349, Alt.=144.806763m. Speed=0.036000m/h.</desc>
<speed>0.010000</speed>
</trkpt>
<trkpt lat="55.704334" lon="26.086349">
<ele>144.810669</ele>
<time>2010-07-17T20:06:17Z</time>
<desc>lat.=55.704334, lon.=26.086349, Alt.=144.810669m. Speed=0.144000m/h.</desc>
<speed>0.040000</speed>
</trkpt>
<trkpt lat="55.704334" lon="26.086349">
<ele>144.818481</ele>
<time>2010-07-17T20:06:18Z</time>
<desc>lat.=55.704334, lon.=26.086349, Alt.=144.818481m. Speed=0.108000m/h.</desc>
<speed>0.030000</speed>
</trkpt>
<trkpt lat="55.704334" lon="26.086349">
<ele>144.822388</ele>
<time>2010-07-17T20:06:19Z</time>
<desc>lat.=55.704334, lon.=26.086349, Alt.=144.822388m. Speed=0.036000m/h.</desc>
<speed>0.010000</speed>
</trkpt>
<trkpt lat="55.704334" lon="26.086349">
<ele>144.826294</ele>
<time>2010-07-17T20:06:20Z</time>
<desc>lat.=55.704334, lon.=26.086349, Alt.=144.826294m. Speed=0.072000m/h.</desc>
<speed>0.020000</speed>
</trkpt>
<trkpt lat="55.704334" lon="26.086349">
<ele>144.826294</ele>
<time>2010-07-17T20:06:21Z</time>
<desc>lat.=55.704334, lon.=26.086349, Alt.=144.826294m. Speed=0.036000m/h.</desc>
<speed>0.010000</speed>
</trkpt>
<trkpt lat="55.704334" lon="26.086349">
<ele>144.834106</ele>
<time>2010-07-17T20:06:22Z</time>
<desc>lat.=55.704334, lon.=26.086349, Alt.=144.834106m. Speed=0.144000m/h.</desc>
<speed>0.040000</speed>
</trkpt>
<trkpt lat="55.704334" lon="26.086349">
<ele>144.838013</ele>
<time>2010-07-17T20:06:23Z</time>
<desc>lat.=55.704334, lon.=26.086349, Alt.=144.838013m. Speed=0.000000m/h.</desc>
<speed>0.000000</speed>
</trkpt>
<trkpt lat="55.704334" lon="26.086349">
<ele>144.849731</ele>
<time>2010-07-17T20:06:24Z</time>
<desc>lat.=55.704334, lon.=26.086349, Alt.=144.849731m. Speed=0.072000m/h.</desc>
<speed>0.020000</speed>
</trkpt>
<trkpt lat="55.704330" lon="26.086349">
<ele>144.849731</ele>
<time>2010-07-17T20:06:25Z</time>
<desc>lat.=55.704330, lon.=26.086349, Alt.=144.849731m. Speed=0.036000m/h.</desc>
<speed>0.010000</speed>
</trkpt>
<trkpt lat="55.704330" lon="26.086349">
<ele>144.853638</ele>
<time>2010-07-17T20:06:26Z</time>
<desc>lat.=55.704330, lon.=26.086349, Alt.=144.853638m. Speed=0.108000m/h.</desc>
<speed>0.030000</speed>
</trkpt>
<trkpt lat="55.704330" lon="26.086349">
<ele>144.861450</ele>
<time>2010-07-17T20:06:27Z</time>
<desc>lat.=55.704330, lon.=26.086349, Alt.=144.861450m. Speed=0.072000m/h.</desc>
<speed>0.020000</speed>
</trkpt>
<trkpt lat="55.704330" lon="26.086349">
<ele>144.873169</ele>
<time>2010-07-17T20:06:28Z</time>
<desc>lat.=55.704330, lon.=26.086349, Alt.=144.873169m. Speed=0.072000m/h.</desc>
<speed>0.020000</speed>
</trkpt>
<trkpt lat="55.704330" lon="26.086349">
<ele>144.880981</ele>
<time>2010-07-17T20:06:29Z</time>
<desc>lat.=55.704330, lon.=26.086349, Alt.=144.880981m. Speed=0.000000m/h.</desc>
<speed>0.000000</speed>
</trkpt>
<trkpt lat="55.704330" lon="26.086349">
<ele>144.884888</ele>
<time>2010-07-17T20:06:30Z</time>
<desc>lat.=55.704330, lon.=26.086349, Alt.=144.884888m. Speed=0.072000m/h.</desc>
<speed>0.020000</speed>
</trkpt>
<trkpt lat="55.704330" lon="26.086349">
<ele>144.888794</ele>
<time>2010-07-17T20:06:31Z</time>
<desc>lat.=55.704330, lon.=26.086349, Alt.=144.888794m. Speed=0.072000m/h.</desc>
<speed>0.020000</speed>
</trkpt>
<trkpt lat="55.704330" lon="26.086349">
<ele>144.892700</ele>
<time>2010-07-17T20:06:32Z</time>
<desc>lat.=55.704330, lon.=26.086349, Alt.=144.892700m. Speed=0.036000m/h.</desc>
<speed>0.010000</speed>
</trkpt>
<trkpt lat="55.704330" lon="26.086349">
<ele>144.896606</ele>
<time>2010-07-17T20:06:33Z</time>
<desc>lat.=55.704330, lon.=26.086349, Alt.=144.896606m. Speed=0.108000m/h.</desc>
<speed>0.030000</speed>
</trkpt>
<trkpt lat="55.704330" lon="26.086349">
<ele>144.912231</ele>
<time>2010-07-17T20:06:34Z</time>
<desc>lat.=55.704330, lon.=26.086349, Alt.=144.912231m. Speed=0.072000m/h.</desc>
<speed>0.020000</speed>
</trkpt>
<trkpt lat="55.704330" lon="26.086349">
<ele>144.920044</ele>
<time>2010-07-17T20:06:35Z</time>
<desc>lat.=55.704330, lon.=26.086349, Alt.=144.920044m. Speed=0.144000m/h.</desc>
<speed>0.040000</speed>
</trkpt>
<trkpt lat="55.704330" lon="26.086349">
<ele>144.931763</ele>
<time>2010-07-17T20:06:36Z</time>
<desc>lat.=55.704330, lon.=26.086349, Alt.=144.931763m. Speed=0.108000m/h.</desc>
<speed>0.030000</speed>
</trkpt>
<trkpt lat="55.704330" lon="26.086349">
<ele>144.943481</ele>
<time>2010-07-17T20:06:37Z</time>
<desc>lat.=55.704330, lon.=26.086349, Alt.=144.943481m. Speed=0.072000m/h.</desc>
<speed>0.020000</speed>
</trkpt>
<trkpt lat="55.704334" lon="26.086349">
<ele>144.947388</ele>
<time>2010-07-17T20:06:38Z</time>
<desc>lat.=55.704334, lon.=26.086349, Alt.=144.947388m. Speed=0.072000m/h.</desc>
<speed>0.020000</speed>
</trkpt>
<trkpt lat="55.704334" lon="26.086349">
<ele>144.955200</ele>
<time>2010-07-17T20:06:39Z</time>
<desc>lat.=55.704334, lon.=26.086349, Alt.=144.955200m. Speed=0.000000m/h.</desc>
<speed>0.000000</speed>
</trkpt>
<trkpt lat="55.704334" lon="26.086349">
<ele>144.959106</ele>
<time>2010-07-17T20:06:40Z</time>
<desc>lat.=55.704334, lon.=26.086349, Alt.=144.959106m. Speed=0.072000m/h.</desc>
<speed>0.020000</speed>
</trkpt>
<trkpt lat="55.704334" lon="26.086349">
<ele>144.963013</ele>
<time>2010-07-17T20:06:41Z</time>
<desc>lat.=55.704334, lon.=26.086349, Alt.=144.963013m. Speed=0.072000m/h.</desc>
<speed>0.020000</speed>
</trkpt>
<trkpt lat="55.704334" lon="26.086349">
<ele>144.966919</ele>
<time>2010-07-17T20:06:42Z</time>
<desc>lat.=55.704334, lon.=26.086349, Alt.=144.966919m. Speed=0.108000m/h.</desc>
<speed>0.030000</speed>
</trkpt>
<trkpt lat="55.704334" lon="26.086349">
<ele>144.966919</ele>
<time>2010-07-17T20:06:43Z</time>
<desc>lat.=55.704334, lon.=26.086349, Alt.=144.966919m. Speed=0.108000m/h.</desc>
<speed>0.030000</speed>
</trkpt>
<trkpt lat="55.704334" lon="26.086349">
<ele>144.970825</ele>
<time>2010-07-17T20:06:44Z</time>
<desc>lat.=55.704334, lon.=26.086349, Alt.=144.970825m. Speed=0.072000m/h.</desc>
<speed>0.020000</speed>
</trkpt>
<trkpt lat="55.704334" lon="26.086349">
<ele>144.970825</ele>
<time>2010-07-17T20:06:45Z</time>
<desc>lat.=55.704334, lon.=26.086349, Alt.=144.970825m. Speed=0.000000m/h.</desc>
<speed>0.000000</speed>
</trkpt>
<trkpt lat="55.704334" lon="26.086349">
<ele>144.974731</ele>
<time>2010-07-17T20:06:46Z</time>
<desc>lat.=55.704334, lon.=26.086349, Alt.=144.974731m. Speed=0.000000m/h.</desc>
<speed>0.000000</speed>
</trkpt>
<trkpt lat="55.704334" lon="26.086349">
<ele>144.974731</ele>
<time>2010-07-17T20:06:47Z</time>
<desc>lat.=55.704334, lon.=26.086349, Alt.=144.974731m. Speed=0.000000m/h.</desc>
<speed>0.000000</speed>
</trkpt>
<trkpt lat="55.704334" lon="26.086349">
<ele>144.978638</ele>
<time>2010-07-17T20:06:48Z</time>
<desc>lat.=55.704334, lon.=26.086349, Alt.=144.978638m. Speed=0.000000m/h.</desc>
<speed>0.000000</speed>
</trkpt>
<trkpt lat="55.704334" lon="26.086349">
<ele>144.986450</ele>
<time>2010-07-17T20:06:49Z</time>
<desc>lat.=55.704334, lon.=26.086349, Alt.=144.986450m. Speed=0.000000m/h.</desc>
<speed>0.000000</speed>
</trkpt>
<trkpt lat="55.704334" lon="26.086349">
<ele>144.990356</ele>
<time>2010-07-17T20:06:50Z</time>
<desc>lat.=55.704334, lon.=26.086349, Alt.=144.990356m. Speed=0.036000m/h.</desc>
<speed>0.010000</speed>
</trkpt>
<trkpt lat="55.704334" lon="26.086349">
<ele>144.994263</ele>
<time>2010-07-17T20:06:51Z</time>
<desc>lat.=55.704334, lon.=26.086349, Alt.=144.994263m. Speed=0.108000m/h.</desc>
<speed>0.030000</speed>
</trkpt>
<trkpt lat="55.704334" lon="26.086349">
<ele>145.002075</ele>
<time>2010-07-17T20:06:52Z</time>
<desc>lat.=55.704334, lon.=26.086349, Alt.=145.002075m. Speed=0.108000m/h.</desc>
<speed>0.030000</speed>
</trkpt>
<trkpt lat="55.704334" lon="26.086349">
<ele>145.002075</ele>
<time>2010-07-17T20:06:53Z</time>
<desc>lat.=55.704334, lon.=26.086349, Alt.=145.002075m. Speed=0.072000m/h.</desc>
<speed>0.020000</speed>
</trkpt>
<trkpt lat="55.704334" lon="26.086349">
<ele>145.002075</ele>
<time>2010-07-17T20:06:54Z</time>
<desc>lat.=55.704334, lon.=26.086349, Alt.=145.002075m. Speed=0.072000m/h.</desc>
<speed>0.020000</speed>
</trkpt>
<trkpt lat="55.704334" lon="26.086349">
<ele>144.998169</ele>
<time>2010-07-17T20:06:55Z</time>
<desc>lat.=55.704334, lon.=26.086349, Alt.=144.998169m. Speed=0.000000m/h.</desc>
<speed>0.000000</speed>
</trkpt>
<trkpt lat="55.704334" lon="26.086349">
<ele>144.994263</ele>
<time>2010-07-17T20:06:56Z</time>
<desc>lat.=55.704334, lon.=26.086349, Alt.=144.994263m. Speed=0.036000m/h.</desc>
<speed>0.010000</speed>
</trkpt>
<trkpt lat="55.704334" lon="26.086349">
<ele>144.990356</ele>
<time>2010-07-17T20:06:57Z</time>
<desc>lat.=55.704334, lon.=26.086349, Alt.=144.990356m. Speed=0.072000m/h.</desc>
<speed>0.020000</speed>
</trkpt>
<trkpt lat="55.704334" lon="26.086349">
<ele>144.994263</ele>
<time>2010-07-17T20:06:58Z</time>
<desc>lat.=55.704334, lon.=26.086349, Alt.=144.994263m. Speed=0.036000m/h.</desc>
<speed>0.010000</speed>
</trkpt>
<trkpt lat="55.704334" lon="26.086349">
<ele>144.994263</ele>
<time>2010-07-17T20:06:59Z</time>
<desc>lat.=55.704334, lon.=26.086349, Alt.=144.994263m. Speed=0.072000m/h.</desc>
<speed>0.020000</speed>
</trkpt>
<trkpt lat="55.704334" lon="26.086349">
<ele>145.002075</ele>
<time>2010-07-17T20:07:00Z</time>
<desc>lat.=55.704334, lon.=26.086349, Alt.=145.002075m. Speed=0.036000m/h.</desc>
<speed>0.010000</speed>
</trkpt>
<trkpt lat="55.704334" lon="26.086349">
<ele>145.005981</ele>
<time>2010-07-17T20:07:01Z</time>
<desc>lat.=55.704334, lon.=26.086349, Alt.=145.005981m. Speed=0.036000m/h.</desc>
<speed>0.010000</speed>
</trkpt>
<trkpt lat="55.704334" lon="26.086349">
<ele>145.009888</ele>
<time>2010-07-17T20:07:02Z</time>
<desc>lat.=55.704334, lon.=26.086349, Alt.=145.009888m. Speed=0.036000m/h.</desc>
<speed>0.010000</speed>
</trkpt>
<trkpt lat="55.704334" lon="26.086349">
<ele>145.005981</ele>
<time>2010-07-17T20:07:03Z</time>
<desc>lat.=55.704334, lon.=26.086349, Alt.=145.005981m. Speed=0.000000m/h.</desc>
<speed>0.000000</speed>
</trkpt>
<trkpt lat="55.704334" lon="26.086349">
<ele>145.009888</ele>
<time>2010-07-17T20:07:04Z</time>
<desc>lat.=55.704334, lon.=26.086349, Alt.=145.009888m. Speed=0.072000m/h.</desc>
<speed>0.020000</speed>
</trkpt>
<trkpt lat="55.704334" lon="26.086349">
<ele>145.009888</ele>
<time>2010-07-17T20:07:05Z</time>
<desc>lat.=55.704334, lon.=26.086349, Alt.=145.009888m. Speed=0.036000m/h.</desc>
<speed>0.010000</speed>
</trkpt>
<trkpt lat="55.704334" lon="26.086349">
<ele>145.013794</ele>
<time>2010-07-17T20:07:06Z</time>
<desc>lat.=55.704334, lon.=26.086349, Alt.=145.013794m. Speed=0.180000m/h.</desc>
<speed>0.050000</speed>
</trkpt>
<trkpt lat="55.704334" lon="26.086349">
<ele>145.021606</ele>
<time>2010-07-17T20:07:07Z</time>
<desc>lat.=55.704334, lon.=26.086349, Alt.=145.021606m. Speed=0.036000m/h.</desc>
<speed>0.010000</speed>
</trkpt>
<trkpt lat="55.704334" lon="26.086349">
<ele>145.025513</ele>
<time>2010-07-17T20:07:08Z</time>
<desc>lat.=55.704334, lon.=26.086349, Alt.=145.025513m. Speed=0.144000m/h.</desc>
<speed>0.040000</speed>
</trkpt>
<trkpt lat="55.704334" lon="26.086349">
<ele>145.029419</ele>
<time>2010-07-17T20:07:09Z</time>
<desc>lat.=55.704334, lon.=26.086349, Alt.=145.029419m. Speed=0.108000m/h.</desc>
<speed>0.030000</speed>
</trkpt>
<trkpt lat="55.704334" lon="26.086349">
<ele>145.033325</ele>
<time>2010-07-17T20:07:10Z</time>
<desc>lat.=55.704334, lon.=26.086349, Alt.=145.033325m. Speed=0.108000m/h.</desc>
<speed>0.030000</speed>
</trkpt>
<trkpt lat="55.704334" lon="26.086349">
<ele>145.033325</ele>
<time>2010-07-17T20:07:11Z</time>
<desc>lat.=55.704334, lon.=26.086349, Alt.=145.033325m. Speed=0.180000m/h.</desc>
<speed>0.050000</speed>
</trkpt>
<trkpt lat="55.704334" lon="26.086349">
<ele>145.041138</ele>
<time>2010-07-17T20:07:12Z</time>
<desc>lat.=55.704334, lon.=26.086349, Alt.=145.041138m. Speed=0.036000m/h.</desc>
<speed>0.010000</speed>
</trkpt>
<trkpt lat="55.704334" lon="26.086349">
<ele>145.037231</ele>
<time>2010-07-17T20:07:13Z</time>
<desc>lat.=55.704334, lon.=26.086349, Alt.=145.037231m. Speed=0.036000m/h.</desc>
<speed>0.010000</speed>
</trkpt>
<trkpt lat="55.704334" lon="26.086349">
<ele>145.041138</ele>
<time>2010-07-17T20:07:14Z</time>
<desc>lat.=55.704334, lon.=26.086349, Alt.=145.041138m. Speed=0.072000m/h.</desc>
<speed>0.020000</speed>
</trkpt>
<trkpt lat="55.704334" lon="26.086349">
<ele>145.041138</ele>
<time>2010-07-17T20:07:15Z</time>
<desc>lat.=55.704334, lon.=26.086349, Alt.=145.041138m. Speed=0.036000m/h.</desc>
<speed>0.010000</speed>
</trkpt>
<trkpt lat="55.704334" lon="26.086349">
<ele>145.037231</ele>
<time>2010-07-17T20:07:16Z</time>
<desc>lat.=55.704334, lon.=26.086349, Alt.=145.037231m. Speed=0.072000m/h.</desc>
<speed>0.020000</speed>
</trkpt>
<trkpt lat="55.704334" lon="26.086349">
<ele>145.029419</ele>
<time>2010-07-17T20:07:17Z</time>
<desc>lat.=55.704334, lon.=26.086349, Alt.=145.029419m. Speed=0.072000m/h.</desc>
<speed>0.020000</speed>
</trkpt>
<trkpt lat="55.704334" lon="26.086349">
<ele>145.025513</ele>
<time>2010-07-17T20:07:18Z</time>
<desc>lat.=55.704334, lon.=26.086349, Alt.=145.025513m. Speed=0.036000m/h.</desc>
<speed>0.010000</speed>
</trkpt>
<trkpt lat="55.704334" lon="26.086349">
<ele>145.021606</ele>
<time>2010-07-17T20:07:19Z</time>
<desc>lat.=55.704334, lon.=26.086349, Alt.=145.021606m. Speed=0.072000m/h.</desc>
<speed>0.020000</speed>
</trkpt>
<trkpt lat="55.704334" lon="26.086349">
<ele>145.021606</ele>
<time>2010-07-17T20:07:20Z</time>
<desc>lat.=55.704334, lon.=26.086349, Alt.=145.021606m. Speed=0.108000m/h.</desc>
<speed>0.030000</speed>
</trkpt>
<trkpt lat="55.704334" lon="26.086349">
<ele>145.013794</ele>
<time>2010-07-17T20:07:21Z</time>
<desc>lat.=55.704334, lon.=26.086349, Alt.=145.013794m. Speed=0.036000m/h.</desc>
<speed>0.010000</speed>
</trkpt>
<trkpt lat="55.704334" lon="26.086349">
<ele>145.013794</ele>
<time>2010-07-17T20:07:22Z</time>
<desc>lat.=55.704334, lon.=26.086349, Alt.=145.013794m. Speed=0.036000m/h.</desc>
<speed>0.010000</speed>
</trkpt>
<trkpt lat="55.704334" lon="26.086349">
<ele>145.005981</ele>
<time>2010-07-17T20:07:23Z</time>
<desc>lat.=55.704334, lon.=26.086349, Alt.=145.005981m. Speed=0.072000m/h.</desc>
<speed>0.020000</speed>
</trkpt>
<trkpt lat="55.704334" lon="26.086349">
<ele>145.005981</ele>
<time>2010-07-17T20:07:24Z</time>
<desc>lat.=55.704334, lon.=26.086349, Alt.=145.005981m. Speed=0.036000m/h.</desc>
<speed>0.010000</speed>
</trkpt>
<trkpt lat="55.704334" lon="26.086349">
<ele>145.002075</ele>
<time>2010-07-17T20:07:25Z</time>
<desc>lat.=55.704334, lon.=26.086349, Alt.=145.002075m. Speed=0.108000m/h.</desc>
<speed>0.030000</speed>
</trkpt>
<trkpt lat="55.704334" lon="26.086349">
<ele>145.002075</ele>
<time>2010-07-17T20:07:26Z</time>
<desc>lat.=55.704334, lon.=26.086349, Alt.=145.002075m. Speed=0.036000m/h.</desc>
<speed>0.010000</speed>
</trkpt>
<trkpt lat="55.704334" lon="26.086349">
<ele>144.994263</ele>
<time>2010-07-17T20:07:27Z</time>
<desc>lat.=55.704334, lon.=26.086349, Alt.=144.994263m. Speed=0.000000m/h.</desc>
<speed>0.000000</speed>
</trkpt>
<trkpt lat="55.704334" lon="26.086349">
<ele>144.982544</ele>
<time>2010-07-17T20:07:28Z</time>
<desc>lat.=55.704334, lon.=26.086349, Alt.=144.982544m. Speed=0.036000m/h.</desc>
<speed>0.010000</speed>
</trkpt>
<trkpt lat="55.704334" lon="26.086351">
<ele>144.970825</ele>
<time>2010-07-17T20:07:29Z</time>
<desc>lat.=55.704334, lon.=26.086351, Alt.=144.970825m. Speed=0.072000m/h.</desc>
<speed>0.020000</speed>
</trkpt>
<trkpt lat="55.704334" lon="26.086351">
<ele>144.963013</ele>
<time>2010-07-17T20:07:30Z</time>
<desc>lat.=55.704334, lon.=26.086351, Alt.=144.963013m. Speed=0.108000m/h.</desc>
<speed>0.030000</speed>
</trkpt>
<trkpt lat="55.704334" lon="26.086351">
<ele>144.959106</ele>
<time>2010-07-17T20:07:31Z</time>
<desc>lat.=55.704334, lon.=26.086351, Alt.=144.959106m. Speed=0.072000m/h.</desc>
<speed>0.020000</speed>
</trkpt>
<trkpt lat="55.704334" lon="26.086351">
<ele>144.955200</ele>
<time>2010-07-17T20:07:32Z</time>
<desc>lat.=55.704334, lon.=26.086351, Alt.=144.955200m. Speed=0.036000m/h.</desc>
<speed>0.010000</speed>
</trkpt>
<trkpt lat="55.704334" lon="26.086351">
<ele>144.955200</ele>
<time>2010-07-17T20:07:33Z</time>
<desc>lat.=55.704334, lon.=26.086351, Alt.=144.955200m. Speed=0.036000m/h.</desc>
<speed>0.010000</speed>
</trkpt>
<trkpt lat="55.704334" lon="26.086351">
<ele>144.955200</ele>
<time>2010-07-17T20:07:34Z</time>
<desc>lat.=55.704334, lon.=26.086351, Alt.=144.955200m. Speed=0.036000m/h.</desc>
<speed>0.010000</speed>
</trkpt>
<trkpt lat="55.704334" lon="26.086351">
<ele>144.963013</ele>
<time>2010-07-17T20:07:35Z</time>
<desc>lat.=55.704334, lon.=26.086351, Alt.=144.963013m. Speed=0.036000m/h.</desc>
<speed>0.010000</speed>
</trkpt>
<trkpt lat="55.704334" lon="26.086351">
<ele>144.966919</ele>
<time>2010-07-17T20:07:36Z</time>
<desc>lat.=55.704334, lon.=26.086351, Alt.=144.966919m. Speed=0.036000m/h.</desc>
<speed>0.010000</speed>
</trkpt>
<trkpt lat="55.704334" lon="26.086351">
<ele>144.963013</ele>
<time>2010-07-17T20:07:37Z</time>
<desc>lat.=55.704334, lon.=26.086351, Alt.=144.963013m. Speed=0.180000m/h.</desc>
<speed>0.050000</speed>
</trkpt>
<trkpt lat="55.704334" lon="26.086349">
<ele>144.966919</ele>
<time>2010-07-17T20:07:38Z</time>
<desc>lat.=55.704334, lon.=26.086349, Alt.=144.966919m. Speed=0.108000m/h.</desc>
<speed>0.030000</speed>
</trkpt>
<trkpt lat="55.704338" lon="26.086349">
<ele>144.974731</ele>
<time>2010-07-17T20:07:39Z</time>
<desc>lat.=55.704338, lon.=26.086349, Alt.=144.974731m. Speed=0.072000m/h.</desc>
<speed>0.020000</speed>
</trkpt>
<trkpt lat="55.704338" lon="26.086349">
<ele>144.974731</ele>
<time>2010-07-17T20:07:40Z</time>
<desc>lat.=55.704338, lon.=26.086349, Alt.=144.974731m. Speed=0.036000m/h.</desc>
<speed>0.010000</speed>
</trkpt>
<trkpt lat="55.704338" lon="26.086349">
<ele>144.986450</ele>
<time>2010-07-17T20:07:41Z</time>
<desc>lat.=55.704338, lon.=26.086349, Alt.=144.986450m. Speed=0.072000m/h.</desc>
<speed>0.020000</speed>
</trkpt>
<trkpt lat="55.704338" lon="26.086349">
<ele>144.998169</ele>
<time>2010-07-17T20:07:42Z</time>
<desc>lat.=55.704338, lon.=26.086349, Alt.=144.998169m. Speed=0.072000m/h.</desc>
<speed>0.020000</speed>
</trkpt>
<trkpt lat="55.704338" lon="26.086349">
<ele>145.009888</ele>
<time>2010-07-17T20:07:43Z</time>
<desc>lat.=55.704338, lon.=26.086349, Alt.=145.009888m. Speed=0.000000m/h.</desc>
<speed>0.000000</speed>
</trkpt>
<trkpt lat="55.704338" lon="26.086349">
<ele>145.017700</ele>
<time>2010-07-17T20:07:44Z</time>
<desc>lat.=55.704338, lon.=26.086349, Alt.=145.017700m. Speed=0.000000m/h.</desc>
<speed>0.000000</speed>
</trkpt>
<trkpt lat="55.704338" lon="26.086349">
<ele>145.025513</ele>
<time>2010-07-17T20:07:45Z</time>
<desc>lat.=55.704338, lon.=26.086349, Alt.=145.025513m. Speed=0.036000m/h.</desc>
<speed>0.010000</speed>
</trkpt>
<trkpt lat="55.704338" lon="26.086349">
<ele>145.033325</ele>
<time>2010-07-17T20:07:46Z</time>
<desc>lat.=55.704338, lon.=26.086349, Alt.=145.033325m. Speed=0.036000m/h.</desc>
<speed>0.010000</speed>
</trkpt>
<trkpt lat="55.704338" lon="26.086349">
<ele>145.041138</ele>
<time>2010-07-17T20:07:47Z</time>
<desc>lat.=55.704338, lon.=26.086349, Alt.=145.041138m. Speed=0.036000m/h.</desc>
<speed>0.010000</speed>
</trkpt>
<trkpt lat="55.704338" lon="26.086349">
<ele>145.048950</ele>
<time>2010-07-17T20:07:48Z</time>
<desc>lat.=55.704338, lon.=26.086349, Alt.=145.048950m. Speed=0.000000m/h.</desc>
<speed>0.000000</speed>
</trkpt>
<trkpt lat="55.704338" lon="26.086349">
<ele>145.052856</ele>
<time>2010-07-17T20:07:49Z</time>
<desc>lat.=55.704338, lon.=26.086349, Alt.=145.052856m. Speed=0.000000m/h.</desc>
<speed>0.000000</speed>
</trkpt>
<trkpt lat="55.704338" lon="26.086349">
<ele>145.060669</ele>
<time>2010-07-17T20:07:50Z</time>
<desc>lat.=55.704338, lon.=26.086349, Alt.=145.060669m. Speed=0.000000m/h.</desc>
<speed>0.000000</speed>
</trkpt>
<trkpt lat="55.704338" lon="26.086349">
<ele>145.064575</ele>
<time>2010-07-17T20:07:51Z</time>
<desc>lat.=55.704338, lon.=26.086349, Alt.=145.064575m. Speed=0.072000m/h.</desc>
<speed>0.020000</speed>
</trkpt>
<trkpt lat="55.704338" lon="26.086349">
<ele>145.076294</ele>
<time>2010-07-17T20:07:52Z</time>
<desc>lat.=55.704338, lon.=26.086349, Alt.=145.076294m. Speed=0.000000m/h.</desc>
<speed>0.000000</speed>
</trkpt>
<trkpt lat="55.704338" lon="26.086351">
<ele>145.088013</ele>
<time>2010-07-17T20:07:53Z</time>
<desc>lat.=55.704338, lon.=26.086351, Alt.=145.088013m. Speed=0.108000m/h.</desc>
<speed>0.030000</speed>
</trkpt>
<trkpt lat="55.704338" lon="26.086351">
<ele>145.107544</ele>
<time>2010-07-17T20:07:54Z</time>
<desc>lat.=55.704338, lon.=26.086351, Alt.=145.107544m. Speed=0.000000m/h.</desc>
<speed>0.000000</speed>
</trkpt>
<trkpt lat="55.704338" lon="26.086351">
<ele>145.111450</ele>
<time>2010-07-17T20:07:55Z</time>
<desc>lat.=55.704338, lon.=26.086351, Alt.=145.111450m. Speed=0.072000m/h.</desc>
<speed>0.020000</speed>
</trkpt>
<trkpt lat="55.704338" lon="26.086351">
<ele>145.107544</ele>
<time>2010-07-17T20:07:56Z</time>
<desc>lat.=55.704338, lon.=26.086351, Alt.=145.107544m. Speed=0.072000m/h.</desc>
<speed>0.020000</speed>
</trkpt>
<trkpt lat="55.704338" lon="26.086351">
<ele>145.111450</ele>
<time>2010-07-17T20:07:57Z</time>
<desc>lat.=55.704338, lon.=26.086351, Alt.=145.111450m. Speed=0.072000m/h.</desc>
<speed>0.020000</speed>
</trkpt>
<trkpt lat="55.704338" lon="26.086351">
<ele>145.123169</ele>
<time>2010-07-17T20:07:58Z</time>
<desc>lat.=55.704338, lon.=26.086351, Alt.=145.123169m. Speed=0.072000m/h.</desc>
<speed>0.020000</speed>
</trkpt>
<trkpt lat="55.704338" lon="26.086351">
<ele>145.127075</ele>
<time>2010-07-17T20:07:59Z</time>
<desc>lat.=55.704338, lon.=26.086351, Alt.=145.127075m. Speed=0.144000m/h.</desc>
<speed>0.040000</speed>
</trkpt>
<trkpt lat="55.704338" lon="26.086351">
<ele>145.134888</ele>
<time>2010-07-17T20:08:00Z</time>
<desc>lat.=55.704338, lon.=26.086351, Alt.=145.134888m. Speed=0.036000m/h.</desc>
<speed>0.010000</speed>
</trkpt>
<trkpt lat="55.704338" lon="26.086351">
<ele>145.138794</ele>
<time>2010-07-17T20:08:01Z</time>
<desc>lat.=55.704338, lon.=26.086351, Alt.=145.138794m. Speed=0.000000m/h.</desc>
<speed>0.000000</speed>
</trkpt>
<trkpt lat="55.704338" lon="26.086351">
<ele>145.142700</ele>
<time>2010-07-17T20:08:02Z</time>
<desc>lat.=55.704338, lon.=26.086351, Alt.=145.142700m. Speed=0.108000m/h.</desc>
<speed>0.030000</speed>
</trkpt>
<trkpt lat="55.704338" lon="26.086351">
<ele>145.150513</ele>
<time>2010-07-17T20:08:03Z</time>
<desc>lat.=55.704338, lon.=26.086351, Alt.=145.150513m. Speed=0.180000m/h.</desc>
<speed>0.050000</speed>
</trkpt>
<trkpt lat="55.704338" lon="26.086353">
<ele>145.158325</ele>
<time>2010-07-17T20:08:04Z</time>
<desc>lat.=55.704338, lon.=26.086353, Alt.=145.158325m. Speed=0.216000m/h.</desc>
<speed>0.060000</speed>
</trkpt>
<trkpt lat="55.704338" lon="26.086353">
<ele>145.158325</ele>
<time>2010-07-17T20:08:05Z</time>
<desc>lat.=55.704338, lon.=26.086353, Alt.=145.158325m. Speed=0.144000m/h.</desc>
<speed>0.040000</speed>
</trkpt>
<trkpt lat="55.704338" lon="26.086353">
<ele>145.154419</ele>
<time>2010-07-17T20:08:06Z</time>
<desc>lat.=55.704338, lon.=26.086353, Alt.=145.154419m. Speed=0.144000m/h.</desc>
<speed>0.040000</speed>
</trkpt>
<trkpt lat="55.704338" lon="26.086353">
<ele>145.154419</ele>
<time>2010-07-17T20:08:07Z</time>
<desc>lat.=55.704338, lon.=26.086353, Alt.=145.154419m. Speed=0.144000m/h.</desc>
<speed>0.040000</speed>
</trkpt>
<trkpt lat="55.704338" lon="26.086353">
<ele>145.150513</ele>
<time>2010-07-17T20:08:08Z</time>
<desc>lat.=55.704338, lon.=26.086353, Alt.=145.150513m. Speed=0.072000m/h.</desc>
<speed>0.020000</speed>
</trkpt>
<trkpt lat="55.704338" lon="26.086353">
<ele>145.146606</ele>
<time>2010-07-17T20:08:09Z</time>
<desc>lat.=55.704338, lon.=26.086353, Alt.=145.146606m. Speed=0.144000m/h.</desc>
<speed>0.040000</speed>
</trkpt>
<trkpt lat="55.704338" lon="26.086355">
<ele>145.142700</ele>
<time>2010-07-17T20:08:10Z</time>
<desc>lat.=55.704338, lon.=26.086355, Alt.=145.142700m. Speed=0.072000m/h.</desc>
<speed>0.020000</speed>
</trkpt>
<trkpt lat="55.704338" lon="26.086355">
<ele>145.150513</ele>
<time>2010-07-17T20:08:11Z</time>
<desc>lat.=55.704338, lon.=26.086355, Alt.=145.150513m. Speed=0.144000m/h.</desc>
<speed>0.040000</speed>
</trkpt>
<trkpt lat="55.704338" lon="26.086355">
<ele>145.154419</ele>
<time>2010-07-17T20:08:12Z</time>
<desc>lat.=55.704338, lon.=26.086355, Alt.=145.154419m. Speed=0.180000m/h.</desc>
<speed>0.050000</speed>
</trkpt>
<trkpt lat="55.704338" lon="26.086355">
<ele>145.150513</ele>
<time>2010-07-17T20:08:13Z</time>
<desc>lat.=55.704338, lon.=26.086355, Alt.=145.150513m. Speed=0.072000m/h.</desc>
<speed>0.020000</speed>
</trkpt>
<trkpt lat="55.704338" lon="26.086355">
<ele>145.150513</ele>
<time>2010-07-17T20:08:14Z</time>
<desc>lat.=55.704338, lon.=26.086355, Alt.=145.150513m. Speed=0.036000m/h.</desc>
<speed>0.010000</speed>
</trkpt>
<trkpt lat="55.704338" lon="26.086355">
<ele>145.154419</ele>
<time>2010-07-17T20:08:15Z</time>
<desc>lat.=55.704338, lon.=26.086355, Alt.=145.154419m. Speed=0.072000m/h.</desc>
<speed>0.020000</speed>
</trkpt>
<trkpt lat="55.704338" lon="26.086355">
<ele>145.154419</ele>
<time>2010-07-17T20:08:16Z</time>
<desc>lat.=55.704338, lon.=26.086355, Alt.=145.154419m. Speed=0.108000m/h.</desc>
<speed>0.030000</speed>
</trkpt>
<trkpt lat="55.704338" lon="26.086355">
<ele>145.154419</ele>
<time>2010-07-17T20:08:17Z</time>
<desc>lat.=55.704338, lon.=26.086355, Alt.=145.154419m. Speed=0.072000m/h.</desc>
<speed>0.020000</speed>
</trkpt>
<trkpt lat="55.704338" lon="26.086357">
<ele>145.158325</ele>
<time>2010-07-17T20:08:18Z</time>
<desc>lat.=55.704338, lon.=26.086357, Alt.=145.158325m. Speed=0.072000m/h.</desc>
<speed>0.020000</speed>
</trkpt>
<trkpt lat="55.704338" lon="26.086357">
<ele>145.162231</ele>
<time>2010-07-17T20:08:19Z</time>
<desc>lat.=55.704338, lon.=26.086357, Alt.=145.162231m. Speed=0.144000m/h.</desc>
<speed>0.040000</speed>
</trkpt>
<trkpt lat="55.704338" lon="26.086357">
<ele>145.173950</ele>
<time>2010-07-17T20:08:20Z</time>
<desc>lat.=55.704338, lon.=26.086357, Alt.=145.173950m. Speed=0.108000m/h.</desc>
<speed>0.030000</speed>
</trkpt>
<trkpt lat="55.704338" lon="26.086357">
<ele>145.177856</ele>
<time>2010-07-17T20:08:21Z</time>
<desc>lat.=55.704338, lon.=26.086357, Alt.=145.177856m. Speed=0.072000m/h.</desc>
<speed>0.020000</speed>
</trkpt>
<trkpt lat="55.704338" lon="26.086357">
<ele>145.185669</ele>
<time>2010-07-17T20:08:22Z</time>
<desc>lat.=55.704338, lon.=26.086357, Alt.=145.185669m. Speed=0.108000m/h.</desc>
<speed>0.030000</speed>
</trkpt>
<trkpt lat="55.704338" lon="26.086357">
<ele>145.185669</ele>
<time>2010-07-17T20:08:23Z</time>
<desc>lat.=55.704338, lon.=26.086357, Alt.=145.185669m. Speed=0.072000m/h.</desc>
<speed>0.020000</speed>
</trkpt>
<trkpt lat="55.704338" lon="26.086357">
<ele>145.189575</ele>
<time>2010-07-17T20:08:24Z</time>
<desc>lat.=55.704338, lon.=26.086357, Alt.=145.189575m. Speed=0.000000m/h.</desc>
<speed>0.000000</speed>
</trkpt>
<trkpt lat="55.704338" lon="26.086357">
<ele>145.193481</ele>
<time>2010-07-17T20:08:25Z</time>
<desc>lat.=55.704338, lon.=26.086357, Alt.=145.193481m. Speed=0.108000m/h.</desc>
<speed>0.030000</speed>
</trkpt>
<trkpt lat="55.704338" lon="26.086357">
<ele>145.201294</ele>
<time>2010-07-17T20:08:26Z</time>
<desc>lat.=55.704338, lon.=26.086357, Alt.=145.201294m. Speed=0.108000m/h.</desc>
<speed>0.030000</speed>
</trkpt>
<trkpt lat="55.704338" lon="26.086359">
<ele>145.209106</ele>
<time>2010-07-17T20:08:27Z</time>
<desc>lat.=55.704338, lon.=26.086359, Alt.=145.209106m. Speed=0.036000m/h.</desc>
<speed>0.010000</speed>
</trkpt>
<trkpt lat="55.704338" lon="26.086359">
<ele>145.216919</ele>
<time>2010-07-17T20:08:28Z</time>
<desc>lat.=55.704338, lon.=26.086359, Alt.=145.216919m. Speed=0.108000m/h.</desc>
<speed>0.030000</speed>
</trkpt>
<trkpt lat="55.704338" lon="26.086359">
<ele>145.232544</ele>
<time>2010-07-17T20:08:29Z</time>
<desc>lat.=55.704338, lon.=26.086359, Alt.=145.232544m. Speed=0.072000m/h.</desc>
<speed>0.020000</speed>
</trkpt>
<trkpt lat="55.704338" lon="26.086359">
<ele>145.236450</ele>
<time>2010-07-17T20:08:30Z</time>
<desc>lat.=55.704338, lon.=26.086359, Alt.=145.236450m. Speed=0.108000m/h.</desc>
<speed>0.030000</speed>
</trkpt>
<trkpt lat="55.704338" lon="26.086359">
<ele>145.240356</ele>
<time>2010-07-17T20:08:31Z</time>
<desc>lat.=55.704338, lon.=26.086359, Alt.=145.240356m. Speed=0.108000m/h.</desc>
<speed>0.030000</speed>
</trkpt>
<trkpt lat="55.704338" lon="26.086359">
<ele>145.244263</ele>
<time>2010-07-17T20:08:32Z</time>
<desc>lat.=55.704338, lon.=26.086359, Alt.=145.244263m. Speed=0.036000m/h.</desc>
<speed>0.010000</speed>
</trkpt>
<trkpt lat="55.704338" lon="26.086359">
<ele>145.244263</ele>
<time>2010-07-17T20:08:33Z</time>
<desc>lat.=55.704338, lon.=26.086359, Alt.=145.244263m. Speed=0.036000m/h.</desc>
<speed>0.010000</speed>
</trkpt>
<trkpt lat="55.704338" lon="26.086359">
<ele>145.248169</ele>
<time>2010-07-17T20:08:34Z</time>
<desc>lat.=55.704338, lon.=26.086359, Alt.=145.248169m. Speed=0.072000m/h.</desc>
<speed>0.020000</speed>
</trkpt>
<trkpt lat="55.704338" lon="26.086359">
<ele>145.248169</ele>
<time>2010-07-17T20:08:35Z</time>
<desc>lat.=55.704338, lon.=26.086359, Alt.=145.248169m. Speed=0.108000m/h.</desc>
<speed>0.030000</speed>
</trkpt>
<trkpt lat="55.704338" lon="26.086359">
<ele>145.252075</ele>
<time>2010-07-17T20:08:36Z</time>
<desc>lat.=55.704338, lon.=26.086359, Alt.=145.252075m. Speed=0.036000m/h.</desc>
<speed>0.010000</speed>
</trkpt>
<trkpt lat="55.704338" lon="26.086359">
<ele>145.255981</ele>
<time>2010-07-17T20:08:37Z</time>
<desc>lat.=55.704338, lon.=26.086359, Alt.=145.255981m. Speed=0.036000m/h.</desc>
<speed>0.010000</speed>
</trkpt>
<trkpt lat="55.704338" lon="26.086359">
<ele>145.259888</ele>
<time>2010-07-17T20:08:38Z</time>
<desc>lat.=55.704338, lon.=26.086359, Alt.=145.259888m. Speed=0.000000m/h.</desc>
<speed>0.000000</speed>
</trkpt>
<trkpt lat="55.704338" lon="26.086359">
<ele>145.267700</ele>
<time>2010-07-17T20:08:39Z</time>
<desc>lat.=55.704338, lon.=26.086359, Alt.=145.267700m. Speed=0.036000m/h.</desc>
<speed>0.010000</speed>
</trkpt>
<trkpt lat="55.704338" lon="26.086359">
<ele>145.271606</ele>
<time>2010-07-17T20:08:40Z</time>
<desc>lat.=55.704338, lon.=26.086359, Alt.=145.271606m. Speed=0.072000m/h.</desc>
<speed>0.020000</speed>
</trkpt>
<trkpt lat="55.704338" lon="26.086359">
<ele>145.267700</ele>
<time>2010-07-17T20:08:41Z</time>
<desc>lat.=55.704338, lon.=26.086359, Alt.=145.267700m. Speed=0.072000m/h.</desc>
<speed>0.020000</speed>
</trkpt>
<trkpt lat="55.704338" lon="26.086359">
<ele>145.267700</ele>
<time>2010-07-17T20:08:42Z</time>
<desc>lat.=55.704338, lon.=26.086359, Alt.=145.267700m. Speed=0.036000m/h.</desc>
<speed>0.010000</speed>
</trkpt>
<trkpt lat="55.704338" lon="26.086359">
<ele>145.263794</ele>
<time>2010-07-17T20:08:43Z</time>
<desc>lat.=55.704338, lon.=26.086359, Alt.=145.263794m. Speed=0.000000m/h.</desc>
<speed>0.000000</speed>
</trkpt>
<trkpt lat="55.704338" lon="26.086359">
<ele>145.263794</ele>
<time>2010-07-17T20:08:44Z</time>
<desc>lat.=55.704338, lon.=26.086359, Alt.=145.263794m. Speed=0.036000m/h.</desc>
<speed>0.010000</speed>
</trkpt>
<trkpt lat="55.704338" lon="26.086359">
<ele>145.267700</ele>
<time>2010-07-17T20:08:45Z</time>
<desc>lat.=55.704338, lon.=26.086359, Alt.=145.267700m. Speed=0.072000m/h.</desc>
<speed>0.020000</speed>
</trkpt>
<trkpt lat="55.704338" lon="26.086359">
<ele>145.259888</ele>
<time>2010-07-17T20:08:46Z</time>
<desc>lat.=55.704338, lon.=26.086359, Alt.=145.259888m. Speed=0.036000m/h.</desc>
<speed>0.010000</speed>
</trkpt>
<trkpt lat="55.704338" lon="26.086359">
<ele>145.255981</ele>
<time>2010-07-17T20:08:47Z</time>
<desc>lat.=55.704338, lon.=26.086359, Alt.=145.255981m. Speed=0.072000m/h.</desc>
<speed>0.020000</speed>
</trkpt>
<trkpt lat="55.704338" lon="26.086359">
<ele>145.255981</ele>
<time>2010-07-17T20:08:48Z</time>
<desc>lat.=55.704338, lon.=26.086359, Alt.=145.255981m. Speed=0.072000m/h.</desc>
<speed>0.020000</speed>
</trkpt>
<trkpt lat="55.704338" lon="26.086359">
<ele>145.255981</ele>
<time>2010-07-17T20:08:49Z</time>
<desc>lat.=55.704338, lon.=26.086359, Alt.=145.255981m. Speed=0.000000m/h.</desc>
<speed>0.000000</speed>
</trkpt>
<trkpt lat="55.704338" lon="26.086359">
<ele>145.263794</ele>
<time>2010-07-17T20:08:50Z</time>
<desc>lat.=55.704338, lon.=26.086359, Alt.=145.263794m. Speed=0.072000m/h.</desc>
<speed>0.020000</speed>
</trkpt>
<trkpt lat="55.704338" lon="26.086359">
<ele>145.275513</ele>
<time>2010-07-17T20:08:51Z</time>
<desc>lat.=55.704338, lon.=26.086359, Alt.=145.275513m. Speed=0.072000m/h.</desc>
<speed>0.020000</speed>
</trkpt>
<trkpt lat="55.704338" lon="26.086359">
<ele>145.287231</ele>
<time>2010-07-17T20:08:52Z</time>
<desc>lat.=55.704338, lon.=26.086359, Alt.=145.287231m. Speed=0.036000m/h.</desc>
<speed>0.010000</speed>
</trkpt>
<trkpt lat="55.704338" lon="26.086359">
<ele>145.298950</ele>
<time>2010-07-17T20:08:53Z</time>
<desc>lat.=55.704338, lon.=26.086359, Alt.=145.298950m. Speed=0.000000m/h.</desc>
<speed>0.000000</speed>
</trkpt>
<trkpt lat="55.704338" lon="26.086359">
<ele>145.302856</ele>
<time>2010-07-17T20:08:54Z</time>
<desc>lat.=55.704338, lon.=26.086359, Alt.=145.302856m. Speed=0.072000m/h.</desc>
<speed>0.020000</speed>
</trkpt>
<trkpt lat="55.704338" lon="26.086359">
<ele>145.306763</ele>
<time>2010-07-17T20:08:55Z</time>
<desc>lat.=55.704338, lon.=26.086359, Alt.=145.306763m. Speed=0.108000m/h.</desc>
<speed>0.030000</speed>
</trkpt>
<trkpt lat="55.704338" lon="26.086359">
<ele>145.306763</ele>
<time>2010-07-17T20:08:56Z</time>
<desc>lat.=55.704338, lon.=26.086359, Alt.=145.306763m. Speed=0.144000m/h.</desc>
<speed>0.040000</speed>
</trkpt>
<trkpt lat="55.704338" lon="26.086357">
<ele>145.314575</ele>
<time>2010-07-17T20:08:57Z</time>
<desc>lat.=55.704338, lon.=26.086357, Alt.=145.314575m. Speed=0.036000m/h.</desc>
<speed>0.010000</speed>
</trkpt>
<trkpt lat="55.704338" lon="26.086357">
<ele>145.322388</ele>
<time>2010-07-17T20:08:58Z</time>
<desc>lat.=55.704338, lon.=26.086357, Alt.=145.322388m. Speed=0.036000m/h.</desc>
<speed>0.010000</speed>
</trkpt>
<trkpt lat="55.704338" lon="26.086357">
<ele>145.326294</ele>
<time>2010-07-17T20:08:59Z</time>
<desc>lat.=55.704338, lon.=26.086357, Alt.=145.326294m. Speed=0.072000m/h.</desc>
<speed>0.020000</speed>
</trkpt>
<trkpt lat="55.704338" lon="26.086357">
<ele>145.334106</ele>
<time>2010-07-17T20:09:00Z</time>
<desc>lat.=55.704338, lon.=26.086357, Alt.=145.334106m. Speed=0.036000m/h.</desc>
<speed>0.010000</speed>
</trkpt>
<trkpt lat="55.704338" lon="26.086357">
<ele>145.338013</ele>
<time>2010-07-17T20:09:01Z</time>
<desc>lat.=55.704338, lon.=26.086357, Alt.=145.338013m. Speed=0.036000m/h.</desc>
<speed>0.010000</speed>
</trkpt>
<trkpt lat="55.704334" lon="26.086357">
<ele>145.345825</ele>
<time>2010-07-17T20:09:02Z</time>
<desc>lat.=55.704334, lon.=26.086357, Alt.=145.345825m. Speed=0.036000m/h.</desc>
<speed>0.010000</speed>
</trkpt>
<trkpt lat="55.704334" lon="26.086357">
<ele>145.349731</ele>
<time>2010-07-17T20:09:03Z</time>
<desc>lat.=55.704334, lon.=26.086357, Alt.=145.349731m. Speed=0.036000m/h.</desc>
<speed>0.010000</speed>
</trkpt>
<trkpt lat="55.704334" lon="26.086357">
<ele>145.357544</ele>
<time>2010-07-17T20:09:04Z</time>
<desc>lat.=55.704334, lon.=26.086357, Alt.=145.357544m. Speed=0.000000m/h.</desc>
<speed>0.000000</speed>
</trkpt>
<trkpt lat="55.704334" lon="26.086357">
<ele>145.365356</ele>
<time>2010-07-17T20:09:05Z</time>
<desc>lat.=55.704334, lon.=26.086357, Alt.=145.365356m. Speed=0.108000m/h.</desc>
<speed>0.030000</speed>
</trkpt>
<trkpt lat="55.704334" lon="26.086357">
<ele>145.369263</ele>
<time>2010-07-17T20:09:06Z</time>
<desc>lat.=55.704334, lon.=26.086357, Alt.=145.369263m. Speed=0.108000m/h.</desc>
<speed>0.030000</speed>
</trkpt>
<trkpt lat="55.704334" lon="26.086357">
<ele>145.377075</ele>
<time>2010-07-17T20:09:07Z</time>
<desc>lat.=55.704334, lon.=26.086357, Alt.=145.377075m. Speed=0.000000m/h.</desc>
<speed>0.000000</speed>
</trkpt>
<trkpt lat="55.704334" lon="26.086357">
<ele>145.380981</ele>
<time>2010-07-17T20:09:08Z</time>
<desc>lat.=55.704334, lon.=26.086357, Alt.=145.380981m. Speed=0.072000m/h.</desc>
<speed>0.020000</speed>
</trkpt>
<trkpt lat="55.704334" lon="26.086357">
<ele>145.388794</ele>
<time>2010-07-17T20:09:09Z</time>
<desc>lat.=55.704334, lon.=26.086357, Alt.=145.388794m. Speed=0.036000m/h.</desc>
<speed>0.010000</speed>
</trkpt>
<trkpt lat="55.704334" lon="26.086357">
<ele>145.388794</ele>
<time>2010-07-17T20:09:10Z</time>
<desc>lat.=55.704334, lon.=26.086357, Alt.=145.388794m. Speed=0.000000m/h.</desc>
<speed>0.000000</speed>
</trkpt>
<trkpt lat="55.704334" lon="26.086357">
<ele>145.392700</ele>
<time>2010-07-17T20:09:11Z</time>
<desc>lat.=55.704334, lon.=26.086357, Alt.=145.392700m. Speed=0.036000m/h.</desc>
<speed>0.010000</speed>
</trkpt>
<trkpt lat="55.704334" lon="26.086357">
<ele>145.392700</ele>
<time>2010-07-17T20:09:12Z</time>
<desc>lat.=55.704334, lon.=26.086357, Alt.=145.392700m. Speed=0.108000m/h.</desc>
<speed>0.030000</speed>
</trkpt>
<trkpt lat="55.704334" lon="26.086357">
<ele>145.388794</ele>
<time>2010-07-17T20:09:13Z</time>
<desc>lat.=55.704334, lon.=26.086357, Alt.=145.388794m. Speed=0.036000m/h.</desc>
<speed>0.010000</speed>
</trkpt>
<trkpt lat="55.704334" lon="26.086357">
<ele>145.388794</ele>
<time>2010-07-17T20:09:14Z</time>
<desc>lat.=55.704334, lon.=26.086357, Alt.=145.388794m. Speed=0.036000m/h.</desc>
<speed>0.010000</speed>
</trkpt>
<trkpt lat="55.704334" lon="26.086357">
<ele>145.396606</ele>
<time>2010-07-17T20:09:15Z</time>
<desc>lat.=55.704334, lon.=26.086357, Alt.=145.396606m. Speed=0.036000m/h.</desc>
<speed>0.010000</speed>
</trkpt>
<trkpt lat="55.704334" lon="26.086357">
<ele>145.408325</ele>
<time>2010-07-17T20:09:16Z</time>
<desc>lat.=55.704334, lon.=26.086357, Alt.=145.408325m. Speed=0.036000m/h.</desc>
<speed>0.010000</speed>
</trkpt>
<trkpt lat="55.704334" lon="26.086357">
<ele>145.420044</ele>
<time>2010-07-17T20:09:17Z</time>
<desc>lat.=55.704334, lon.=26.086357, Alt.=145.420044m. Speed=0.000000m/h.</desc>
<speed>0.000000</speed>
</trkpt>
<trkpt lat="55.704334" lon="26.086357">
<ele>145.431763</ele>
<time>2010-07-17T20:09:18Z</time>
<desc>lat.=55.704334, lon.=26.086357, Alt.=145.431763m. Speed=0.000000m/h.</desc>
<speed>0.000000</speed>
</trkpt>
<trkpt lat="55.704334" lon="26.086357">
<ele>145.443481</ele>
<time>2010-07-17T20:09:19Z</time>
<desc>lat.=55.704334, lon.=26.086357, Alt.=145.443481m. Speed=0.036000m/h.</desc>
<speed>0.010000</speed>
</trkpt>
<trkpt lat="55.704334" lon="26.086357">
<ele>145.451294</ele>
<time>2010-07-17T20:09:20Z</time>
<desc>lat.=55.704334, lon.=26.086357, Alt.=145.451294m. Speed=0.036000m/h.</desc>
<speed>0.010000</speed>
</trkpt>
<trkpt lat="55.704338" lon="26.086359">
<ele>145.455200</ele>
<time>2010-07-17T20:09:21Z</time>
<desc>lat.=55.704338, lon.=26.086359, Alt.=145.455200m. Speed=0.036000m/h.</desc>
<speed>0.010000</speed>
</trkpt>
<trkpt lat="55.704338" lon="26.086359">
<ele>145.463013</ele>
<time>2010-07-17T20:09:22Z</time>
<desc>lat.=55.704338, lon.=26.086359, Alt.=145.463013m. Speed=0.108000m/h.</desc>
<speed>0.030000</speed>
</trkpt>
<trkpt lat="55.704338" lon="26.086359">
<ele>145.470825</ele>
<time>2010-07-17T20:09:23Z</time>
<desc>lat.=55.704338, lon.=26.086359, Alt.=145.470825m. Speed=0.036000m/h.</desc>
<speed>0.010000</speed>
</trkpt>
<trkpt lat="55.704338" lon="26.086359">
<ele>145.482544</ele>
<time>2010-07-17T20:09:24Z</time>
<desc>lat.=55.704338, lon.=26.086359, Alt.=145.482544m. Speed=0.072000m/h.</desc>
<speed>0.020000</speed>
</trkpt>
<trkpt lat="55.704334" lon="26.086359">
<ele>145.486450</ele>
<time>2010-07-17T20:09:25Z</time>
<desc>lat.=55.704334, lon.=26.086359, Alt.=145.486450m. Speed=0.036000m/h.</desc>
<speed>0.010000</speed>
</trkpt>
<trkpt lat="55.704334" lon="26.086359">
<ele>145.490356</ele>
<time>2010-07-17T20:09:26Z</time>
<desc>lat.=55.704334, lon.=26.086359, Alt.=145.490356m. Speed=0.036000m/h.</desc>
<speed>0.010000</speed>
</trkpt>
<trkpt lat="55.704334" lon="26.086359">
<ele>145.498169</ele>
<time>2010-07-17T20:09:27Z</time>
<desc>lat.=55.704334, lon.=26.086359, Alt.=145.498169m. Speed=0.036000m/h.</desc>
<speed>0.010000</speed>
</trkpt>
<trkpt lat="55.704334" lon="26.086359">
<ele>145.498169</ele>
<time>2010-07-17T20:09:28Z</time>
<desc>lat.=55.704334, lon.=26.086359, Alt.=145.498169m. Speed=0.000000m/h.</desc>
<speed>0.000000</speed>
</trkpt>
<trkpt lat="55.704334" lon="26.086359">
<ele>145.505981</ele>
<time>2010-07-17T20:09:29Z</time>
<desc>lat.=55.704334, lon.=26.086359, Alt.=145.505981m. Speed=0.108000m/h.</desc>
<speed>0.030000</speed>
</trkpt>
<trkpt lat="55.704334" lon="26.086359">
<ele>145.505981</ele>
<time>2010-07-17T20:09:30Z</time>
<desc>lat.=55.704334, lon.=26.086359, Alt.=145.505981m. Speed=0.108000m/h.</desc>
<speed>0.030000</speed>
</trkpt>
<trkpt lat="55.704334" lon="26.086359">
<ele>145.505981</ele>
<time>2010-07-17T20:09:31Z</time>
<desc>lat.=55.704334, lon.=26.086359, Alt.=145.505981m. Speed=0.072000m/h.</desc>
<speed>0.020000</speed>
</trkpt>
<trkpt lat="55.704334" lon="26.086359">
<ele>145.505981</ele>
<time>2010-07-17T20:09:32Z</time>
<desc>lat.=55.704334, lon.=26.086359, Alt.=145.505981m. Speed=0.072000m/h.</desc>
<speed>0.020000</speed>
</trkpt>
<trkpt lat="55.704334" lon="26.086359">
<ele>145.505981</ele>
<time>2010-07-17T20:09:33Z</time>
<desc>lat.=55.704334, lon.=26.086359, Alt.=145.505981m. Speed=0.072000m/h.</desc>
<speed>0.020000</speed>
</trkpt>
<trkpt lat="55.704334" lon="26.086359">
<ele>145.502075</ele>
<time>2010-07-17T20:09:34Z</time>
<desc>lat.=55.704334, lon.=26.086359, Alt.=145.502075m. Speed=0.000000m/h.</desc>
<speed>0.000000</speed>
</trkpt>
<trkpt lat="55.704334" lon="26.086357">
<ele>145.505981</ele>
<time>2010-07-17T20:09:35Z</time>
<desc>lat.=55.704334, lon.=26.086357, Alt.=145.505981m. Speed=0.000000m/h.</desc>
<speed>0.000000</speed>
</trkpt>
<trkpt lat="55.704334" lon="26.086357">
<ele>145.509888</ele>
<time>2010-07-17T20:09:36Z</time>
<desc>lat.=55.704334, lon.=26.086357, Alt.=145.509888m. Speed=0.036000m/h.</desc>
<speed>0.010000</speed>
</trkpt>
<trkpt lat="55.704334" lon="26.086357">
<ele>145.513794</ele>
<time>2010-07-17T20:09:37Z</time>
<desc>lat.=55.704334, lon.=26.086357, Alt.=145.513794m. Speed=0.036000m/h.</desc>
<speed>0.010000</speed>
</trkpt>
<trkpt lat="55.704334" lon="26.086357">
<ele>145.521606</ele>
<time>2010-07-17T20:09:38Z</time>
<desc>lat.=55.704334, lon.=26.086357, Alt.=145.521606m. Speed=0.036000m/h.</desc>
<speed>0.010000</speed>
</trkpt>
<trkpt lat="55.704334" lon="26.086357">
<ele>145.521606</ele>
<time>2010-07-17T20:09:39Z</time>
<desc>lat.=55.704334, lon.=26.086357, Alt.=145.521606m. Speed=0.036000m/h.</desc>
<speed>0.010000</speed>
</trkpt>
<trkpt lat="55.704334" lon="26.086357">
<ele>145.529419</ele>
<time>2010-07-17T20:09:40Z</time>
<desc>lat.=55.704334, lon.=26.086357, Alt.=145.529419m. Speed=0.036000m/h.</desc>
<speed>0.010000</speed>
</trkpt>
<trkpt lat="55.704334" lon="26.086357">
<ele>145.541138</ele>
<time>2010-07-17T20:09:41Z</time>
<desc>lat.=55.704334, lon.=26.086357, Alt.=145.541138m. Speed=0.000000m/h.</desc>
<speed>0.000000</speed>
</trkpt>
<trkpt lat="55.704334" lon="26.086357">
<ele>145.556763</ele>
<time>2010-07-17T20:09:42Z</time>
<desc>lat.=55.704334, lon.=26.086357, Alt.=145.556763m. Speed=0.072000m/h.</desc>
<speed>0.020000</speed>
</trkpt>
<trkpt lat="55.704334" lon="26.086357">
<ele>145.564575</ele>
<time>2010-07-17T20:09:43Z</time>
<desc>lat.=55.704334, lon.=26.086357, Alt.=145.564575m. Speed=0.072000m/h.</desc>
<speed>0.020000</speed>
</trkpt>
<trkpt lat="55.704334" lon="26.086357">
<ele>145.576294</ele>
<time>2010-07-17T20:09:44Z</time>
<desc>lat.=55.704334, lon.=26.086357, Alt.=145.576294m. Speed=0.072000m/h.</desc>
<speed>0.020000</speed>
</trkpt>
<trkpt lat="55.704334" lon="26.086357">
<ele>145.588013</ele>
<time>2010-07-17T20:09:45Z</time>
<desc>lat.=55.704334, lon.=26.086357, Alt.=145.588013m. Speed=0.108000m/h.</desc>
<speed>0.030000</speed>
</trkpt>
<trkpt lat="55.704334" lon="26.086357">
<ele>145.591919</ele>
<time>2010-07-17T20:09:46Z</time>
<desc>lat.=55.704334, lon.=26.086357, Alt.=145.591919m. Speed=0.072000m/h.</desc>
<speed>0.020000</speed>
</trkpt>
<trkpt lat="55.704334" lon="26.086357">
<ele>145.595825</ele>
<time>2010-07-17T20:09:47Z</time>
<desc>lat.=55.704334, lon.=26.086357, Alt.=145.595825m. Speed=0.108000m/h.</desc>
<speed>0.030000</speed>
</trkpt>
<trkpt lat="55.704334" lon="26.086359">
<ele>145.595825</ele>
<time>2010-07-17T20:09:48Z</time>
<desc>lat.=55.704334, lon.=26.086359, Alt.=145.595825m. Speed=0.036000m/h.</desc>
<speed>0.010000</speed>
</trkpt>
<trkpt lat="55.704334" lon="26.086357">
<ele>145.599731</ele>
<time>2010-07-17T20:09:49Z</time>
<desc>lat.=55.704334, lon.=26.086357, Alt.=145.599731m. Speed=0.108000m/h.</desc>
<speed>0.030000</speed>
</trkpt>
<trkpt lat="55.704334" lon="26.086357">
<ele>145.603638</ele>
<time>2010-07-17T20:09:50Z</time>
<desc>lat.=55.704334, lon.=26.086357, Alt.=145.603638m. Speed=0.072000m/h.</desc>
<speed>0.020000</speed>
</trkpt>
<trkpt lat="55.704334" lon="26.086357">
<ele>145.611450</ele>
<time>2010-07-17T20:09:51Z</time>
<desc>lat.=55.704334, lon.=26.086357, Alt.=145.611450m. Speed=0.036000m/h.</desc>
<speed>0.010000</speed>
</trkpt>
<trkpt lat="55.704334" lon="26.086357">
<ele>145.615356</ele>
<time>2010-07-17T20:09:52Z</time>
<desc>lat.=55.704334, lon.=26.086357, Alt.=145.615356m. Speed=0.036000m/h.</desc>
<speed>0.010000</speed>
</trkpt>
<trkpt lat="55.704334" lon="26.086357">
<ele>145.619263</ele>
<time>2010-07-17T20:09:53Z</time>
<desc>lat.=55.704334, lon.=26.086357, Alt.=145.619263m. Speed=0.144000m/h.</desc>
<speed>0.040000</speed>
</trkpt>
<trkpt lat="55.704334" lon="26.086357">
<ele>145.623169</ele>
<time>2010-07-17T20:09:54Z</time>
<desc>lat.=55.704334, lon.=26.086357, Alt.=145.623169m. Speed=0.036000m/h.</desc>
<speed>0.010000</speed>
</trkpt>
<trkpt lat="55.704334" lon="26.086359">
<ele>145.627075</ele>
<time>2010-07-17T20:09:55Z</time>
<desc>lat.=55.704334, lon.=26.086359, Alt.=145.627075m. Speed=0.036000m/h.</desc>
<speed>0.010000</speed>
</trkpt>
<trkpt lat="55.704334" lon="26.086357">
<ele>145.634888</ele>
<time>2010-07-17T20:09:56Z</time>
<desc>lat.=55.704334, lon.=26.086357, Alt.=145.634888m. Speed=0.036000m/h.</desc>
<speed>0.010000</speed>
</trkpt>
<trkpt lat="55.704334" lon="26.086357">
<ele>145.642700</ele>
<time>2010-07-17T20:09:57Z</time>
<desc>lat.=55.704334, lon.=26.086357, Alt.=145.642700m. Speed=0.036000m/h.</desc>
<speed>0.010000</speed>
</trkpt>
<trkpt lat="55.704334" lon="26.086357">
<ele>145.650513</ele>
<time>2010-07-17T20:09:58Z</time>
<desc>lat.=55.704334, lon.=26.086357, Alt.=145.650513m. Speed=0.036000m/h.</desc>
<speed>0.010000</speed>
</trkpt>
<trkpt lat="55.704334" lon="26.086359">
<ele>145.650513</ele>
<time>2010-07-17T20:09:59Z</time>
<desc>lat.=55.704334, lon.=26.086359, Alt.=145.650513m. Speed=0.108000m/h.</desc>
<speed>0.030000</speed>
</trkpt>
<trkpt lat="55.704334" lon="26.086359">
<ele>145.650513</ele>
<time>2010-07-17T20:10:00Z</time>
<desc>lat.=55.704334, lon.=26.086359, Alt.=145.650513m. Speed=0.000000m/h.</desc>
<speed>0.000000</speed>
</trkpt>
<trkpt lat="55.704334" lon="26.086359">
<ele>145.650513</ele>
<time>2010-07-17T20:10:01Z</time>
<desc>lat.=55.704334, lon.=26.086359, Alt.=145.650513m. Speed=0.036000m/h.</desc>
<speed>0.010000</speed>
</trkpt>
<trkpt lat="55.704334" lon="26.086359">
<ele>145.650513</ele>
<time>2010-07-17T20:10:02Z</time>
<desc>lat.=55.704334, lon.=26.086359, Alt.=145.650513m. Speed=0.036000m/h.</desc>
<speed>0.010000</speed>
</trkpt>
<trkpt lat="55.704334" lon="26.086359">
<ele>145.654419</ele>
<time>2010-07-17T20:10:03Z</time>
<desc>lat.=55.704334, lon.=26.086359, Alt.=145.654419m. Speed=0.072000m/h.</desc>
<speed>0.020000</speed>
</trkpt>
<trkpt lat="55.704334" lon="26.086359">
<ele>145.658325</ele>
<time>2010-07-17T20:10:04Z</time>
<desc>lat.=55.704334, lon.=26.086359, Alt.=145.658325m. Speed=0.108000m/h.</desc>
<speed>0.030000</speed>
</trkpt>
<trkpt lat="55.704334" lon="26.086359">
<ele>145.666138</ele>
<time>2010-07-17T20:10:05Z</time>
<desc>lat.=55.704334, lon.=26.086359, Alt.=145.666138m. Speed=0.072000m/h.</desc>
<speed>0.020000</speed>
</trkpt>
<trkpt lat="55.704334" lon="26.086359">
<ele>145.666138</ele>
<time>2010-07-17T20:10:06Z</time>
<desc>lat.=55.704334, lon.=26.086359, Alt.=145.666138m. Speed=0.036000m/h.</desc>
<speed>0.010000</speed>
</trkpt>
<trkpt lat="55.704334" lon="26.086359">
<ele>145.670044</ele>
<time>2010-07-17T20:10:07Z</time>
<desc>lat.=55.704334, lon.=26.086359, Alt.=145.670044m. Speed=0.072000m/h.</desc>
<speed>0.020000</speed>
</trkpt>
<trkpt lat="55.704334" lon="26.086359">
<ele>145.681763</ele>
<time>2010-07-17T20:10:08Z</time>
<desc>lat.=55.704334, lon.=26.086359, Alt.=145.681763m. Speed=0.144000m/h.</desc>
<speed>0.040000</speed>
</trkpt>
<trkpt lat="55.704334" lon="26.086359">
<ele>145.685669</ele>
<time>2010-07-17T20:10:09Z</time>
<desc>lat.=55.704334, lon.=26.086359, Alt.=145.685669m. Speed=0.144000m/h.</desc>
<speed>0.040000</speed>
</trkpt>
<trkpt lat="55.704334" lon="26.086359">
<ele>145.697388</ele>
<time>2010-07-17T20:10:10Z</time>
<desc>lat.=55.704334, lon.=26.086359, Alt.=145.697388m. Speed=0.072000m/h.</desc>
<speed>0.020000</speed>
</trkpt>
<trkpt lat="55.704334" lon="26.086361">
<ele>145.705200</ele>
<time>2010-07-17T20:10:11Z</time>
<desc>lat.=55.704334, lon.=26.086361, Alt.=145.705200m. Speed=0.144000m/h.</desc>
<speed>0.040000</speed>
</trkpt>
<trkpt lat="55.704334" lon="26.086361">
<ele>145.713013</ele>
<time>2010-07-17T20:10:12Z</time>
<desc>lat.=55.704334, lon.=26.086361, Alt.=145.713013m. Speed=0.108000m/h.</desc>
<speed>0.030000</speed>
</trkpt>
<trkpt lat="55.704338" lon="26.086361">
<ele>145.724731</ele>
<time>2010-07-17T20:10:13Z</time>
<desc>lat.=55.704338, lon.=26.086361, Alt.=145.724731m. Speed=0.072000m/h.</desc>
<speed>0.020000</speed>
</trkpt>
<trkpt lat="55.704338" lon="26.086361">
<ele>145.736450</ele>
<time>2010-07-17T20:10:14Z</time>
<desc>lat.=55.704338, lon.=26.086361, Alt.=145.736450m. Speed=0.108000m/h.</desc>
<speed>0.030000</speed>
</trkpt>
<trkpt lat="55.704338" lon="26.086361">
<ele>145.748169</ele>
<time>2010-07-17T20:10:15Z</time>
<desc>lat.=55.704338, lon.=26.086361, Alt.=145.748169m. Speed=0.144000m/h.</desc>
<speed>0.040000</speed>
</trkpt>
<trkpt lat="55.704338" lon="26.086361">
<ele>145.755981</ele>
<time>2010-07-17T20:10:16Z</time>
<desc>lat.=55.704338, lon.=26.086361, Alt.=145.755981m. Speed=0.072000m/h.</desc>
<speed>0.020000</speed>
</trkpt>
<trkpt lat="55.704338" lon="26.086361">
<ele>145.759888</ele>
<time>2010-07-17T20:10:17Z</time>
<desc>lat.=55.704338, lon.=26.086361, Alt.=145.759888m. Speed=0.036000m/h.</desc>
<speed>0.010000</speed>
</trkpt>
<trkpt lat="55.704338" lon="26.086361">
<ele>145.763794</ele>
<time>2010-07-17T20:10:18Z</time>
<desc>lat.=55.704338, lon.=26.086361, Alt.=145.763794m. Speed=0.072000m/h.</desc>
<speed>0.020000</speed>
</trkpt>
<trkpt lat="55.704338" lon="26.086363">
<ele>145.763794</ele>
<time>2010-07-17T20:10:19Z</time>
<desc>lat.=55.704338, lon.=26.086363, Alt.=145.763794m. Speed=0.072000m/h.</desc>
<speed>0.020000</speed>
</trkpt>
<trkpt lat="55.704338" lon="26.086363">
<ele>145.767700</ele>
<time>2010-07-17T20:10:20Z</time>
<desc>lat.=55.704338, lon.=26.086363, Alt.=145.767700m. Speed=0.072000m/h.</desc>
<speed>0.020000</speed>
</trkpt>
<trkpt lat="55.704338" lon="26.086363">
<ele>145.771606</ele>
<time>2010-07-17T20:10:21Z</time>
<desc>lat.=55.704338, lon.=26.086363, Alt.=145.771606m. Speed=0.072000m/h.</desc>
<speed>0.020000</speed>
</trkpt>
<trkpt lat="55.704338" lon="26.086363">
<ele>145.783325</ele>
<time>2010-07-17T20:10:22Z</time>
<desc>lat.=55.704338, lon.=26.086363, Alt.=145.783325m. Speed=0.180000m/h.</desc>
<speed>0.050000</speed>
</trkpt>
<trkpt lat="55.704338" lon="26.086363">
<ele>145.798950</ele>
<time>2010-07-17T20:10:23Z</time>
<desc>lat.=55.704338, lon.=26.086363, Alt.=145.798950m. Speed=0.072000m/h.</desc>
<speed>0.020000</speed>
</trkpt>
<trkpt lat="55.704338" lon="26.086363">
<ele>145.810669</ele>
<time>2010-07-17T20:10:24Z</time>
<desc>lat.=55.704338, lon.=26.086363, Alt.=145.810669m. Speed=0.144000m/h.</desc>
<speed>0.040000</speed>
</trkpt>
<trkpt lat="55.704338" lon="26.086365">
<ele>145.822388</ele>
<time>2010-07-17T20:10:25Z</time>
<desc>lat.=55.704338, lon.=26.086365, Alt.=145.822388m. Speed=0.108000m/h.</desc>
<speed>0.030000</speed>
</trkpt>
<trkpt lat="55.704338" lon="26.086365">
<ele>145.830200</ele>
<time>2010-07-17T20:10:26Z</time>
<desc>lat.=55.704338, lon.=26.086365, Alt.=145.830200m. Speed=0.000000m/h.</desc>
<speed>0.000000</speed>
</trkpt>
<trkpt lat="55.704338" lon="26.086365">
<ele>145.841919</ele>
<time>2010-07-17T20:10:27Z</time>
<desc>lat.=55.704338, lon.=26.086365, Alt.=145.841919m. Speed=0.036000m/h.</desc>
<speed>0.010000</speed>
</trkpt>
<trkpt lat="55.704338" lon="26.086365">
<ele>145.849731</ele>
<time>2010-07-17T20:10:28Z</time>
<desc>lat.=55.704338, lon.=26.086365, Alt.=145.849731m. Speed=0.144000m/h.</desc>
<speed>0.040000</speed>
</trkpt>
<trkpt lat="55.704338" lon="26.086365">
<ele>145.861450</ele>
<time>2010-07-17T20:10:29Z</time>
<desc>lat.=55.704338, lon.=26.086365, Alt.=145.861450m. Speed=0.036000m/h.</desc>
<speed>0.010000</speed>
</trkpt>
<trkpt lat="55.704338" lon="26.086365">
<ele>145.865356</ele>
<time>2010-07-17T20:10:30Z</time>
<desc>lat.=55.704338, lon.=26.086365, Alt.=145.865356m. Speed=0.108000m/h.</desc>
<speed>0.030000</speed>
</trkpt>
<trkpt lat="55.704338" lon="26.086365">
<ele>145.865356</ele>
<time>2010-07-17T20:10:31Z</time>
<desc>lat.=55.704338, lon.=26.086365, Alt.=145.865356m. Speed=0.144000m/h.</desc>
<speed>0.040000</speed>
</trkpt>
<trkpt lat="55.704338" lon="26.086365">
<ele>145.869263</ele>
<time>2010-07-17T20:10:32Z</time>
<desc>lat.=55.704338, lon.=26.086365, Alt.=145.869263m. Speed=0.108000m/h.</desc>
<speed>0.030000</speed>
</trkpt>
<trkpt lat="55.704338" lon="26.086365">
<ele>145.884888</ele>
<time>2010-07-17T20:10:33Z</time>
<desc>lat.=55.704338, lon.=26.086365, Alt.=145.884888m. Speed=0.000000m/h.</desc>
<speed>0.000000</speed>
</trkpt>
<trkpt lat="55.704338" lon="26.086365">
<ele>145.892700</ele>
<time>2010-07-17T20:10:34Z</time>
<desc>lat.=55.704338, lon.=26.086365, Alt.=145.892700m. Speed=0.072000m/h.</desc>
<speed>0.020000</speed>
</trkpt>
<trkpt lat="55.704338" lon="26.086365">
<ele>145.904419</ele>
<time>2010-07-17T20:10:35Z</time>
<desc>lat.=55.704338, lon.=26.086365, Alt.=145.904419m. Speed=0.108000m/h.</desc>
<speed>0.030000</speed>
</trkpt>
<trkpt lat="55.704338" lon="26.086365">
<ele>145.920044</ele>
<time>2010-07-17T20:10:36Z</time>
<desc>lat.=55.704338, lon.=26.086365, Alt.=145.920044m. Speed=0.072000m/h.</desc>
<speed>0.020000</speed>
</trkpt>
<trkpt lat="55.704338" lon="26.086365">
<ele>145.931763</ele>
<time>2010-07-17T20:10:37Z</time>
<desc>lat.=55.704338, lon.=26.086365, Alt.=145.931763m. Speed=0.072000m/h.</desc>
<speed>0.020000</speed>
</trkpt>
<trkpt lat="55.704338" lon="26.086365">
<ele>145.943481</ele>
<time>2010-07-17T20:10:38Z</time>
<desc>lat.=55.704338, lon.=26.086365, Alt.=145.943481m. Speed=0.072000m/h.</desc>
<speed>0.020000</speed>
</trkpt>
<trkpt lat="55.704338" lon="26.086365">
<ele>145.943481</ele>
<time>2010-07-17T20:10:39Z</time>
<desc>lat.=55.704338, lon.=26.086365, Alt.=145.943481m. Speed=0.108000m/h.</desc>
<speed>0.030000</speed>
</trkpt>
<trkpt lat="55.704338" lon="26.086365">
<ele>145.947388</ele>
<time>2010-07-17T20:10:40Z</time>
<desc>lat.=55.704338, lon.=26.086365, Alt.=145.947388m. Speed=0.072000m/h.</desc>
<speed>0.020000</speed>
</trkpt>
<trkpt lat="55.704338" lon="26.086365">
<ele>145.943481</ele>
<time>2010-07-17T20:10:41Z</time>
<desc>lat.=55.704338, lon.=26.086365, Alt.=145.943481m. Speed=0.072000m/h.</desc>
<speed>0.020000</speed>
</trkpt>
<trkpt lat="55.704338" lon="26.086365">
<ele>145.943481</ele>
<time>2010-07-17T20:10:42Z</time>
<desc>lat.=55.704338, lon.=26.086365, Alt.=145.943481m. Speed=0.072000m/h.</desc>
<speed>0.020000</speed>
</trkpt>
<trkpt lat="55.704338" lon="26.086365">
<ele>145.943481</ele>
<time>2010-07-17T20:10:43Z</time>
<desc>lat.=55.704338, lon.=26.086365, Alt.=145.943481m. Speed=0.036000m/h.</desc>
<speed>0.010000</speed>
</trkpt>
<trkpt lat="55.704338" lon="26.086365">
<ele>145.943481</ele>
<time>2010-07-17T20:10:44Z</time>
<desc>lat.=55.704338, lon.=26.086365, Alt.=145.943481m. Speed=0.000000m/h.</desc>
<speed>0.000000</speed>
</trkpt>
<trkpt lat="55.704338" lon="26.086365">
<ele>145.943481</ele>
<time>2010-07-17T20:10:45Z</time>
<desc>lat.=55.704338, lon.=26.086365, Alt.=145.943481m. Speed=0.000000m/h.</desc>
<speed>0.000000</speed>
</trkpt>
<trkpt lat="55.704338" lon="26.086365">
<ele>145.947388</ele>
<time>2010-07-17T20:10:46Z</time>
<desc>lat.=55.704338, lon.=26.086365, Alt.=145.947388m. Speed=0.108000m/h.</desc>
<speed>0.030000</speed>
</trkpt>
<trkpt lat="55.704338" lon="26.086365">
<ele>145.951294</ele>
<time>2010-07-17T20:10:47Z</time>
<desc>lat.=55.704338, lon.=26.086365, Alt.=145.951294m. Speed=0.036000m/h.</desc>
<speed>0.010000</speed>
</trkpt>
<trkpt lat="55.704338" lon="26.086365">
<ele>145.951294</ele>
<time>2010-07-17T20:10:48Z</time>
<desc>lat.=55.704338, lon.=26.086365, Alt.=145.951294m. Speed=0.036000m/h.</desc>
<speed>0.010000</speed>
</trkpt>
<trkpt lat="55.704338" lon="26.086365">
<ele>145.947388</ele>
<time>2010-07-17T20:10:49Z</time>
<desc>lat.=55.704338, lon.=26.086365, Alt.=145.947388m. Speed=0.072000m/h.</desc>
<speed>0.020000</speed>
</trkpt>
<trkpt lat="55.704338" lon="26.086365">
<ele>145.955200</ele>
<time>2010-07-17T20:10:50Z</time>
<desc>lat.=55.704338, lon.=26.086365, Alt.=145.955200m. Speed=0.036000m/h.</desc>
<speed>0.010000</speed>
</trkpt>
<trkpt lat="55.704338" lon="26.086365">
<ele>145.955200</ele>
<time>2010-07-17T20:10:51Z</time>
<desc>lat.=55.704338, lon.=26.086365, Alt.=145.955200m. Speed=0.036000m/h.</desc>
<speed>0.010000</speed>
</trkpt>
<trkpt lat="55.704338" lon="26.086365">
<ele>145.955200</ele>
<time>2010-07-17T20:10:52Z</time>
<desc>lat.=55.704338, lon.=26.086365, Alt.=145.955200m. Speed=0.108000m/h.</desc>
<speed>0.030000</speed>
</trkpt>
<trkpt lat="55.704338" lon="26.086365">
<ele>145.959106</ele>
<time>2010-07-17T20:10:53Z</time>
<desc>lat.=55.704338, lon.=26.086365, Alt.=145.959106m. Speed=0.000000m/h.</desc>
<speed>0.000000</speed>
</trkpt>
<trkpt lat="55.704338" lon="26.086365">
<ele>145.963013</ele>
<time>2010-07-17T20:10:54Z</time>
<desc>lat.=55.704338, lon.=26.086365, Alt.=145.963013m. Speed=0.000000m/h.</desc>
<speed>0.000000</speed>
</trkpt>
<trkpt lat="55.704338" lon="26.086365">
<ele>145.966919</ele>
<time>2010-07-17T20:10:55Z</time>
<desc>lat.=55.704338, lon.=26.086365, Alt.=145.966919m. Speed=0.072000m/h.</desc>
<speed>0.020000</speed>
</trkpt>
<trkpt lat="55.704338" lon="26.086365">
<ele>145.970825</ele>
<time>2010-07-17T20:10:56Z</time>
<desc>lat.=55.704338, lon.=26.086365, Alt.=145.970825m. Speed=0.036000m/h.</desc>
<speed>0.010000</speed>
</trkpt>
<trkpt lat="55.704338" lon="26.086363">
<ele>145.974731</ele>
<time>2010-07-17T20:10:57Z</time>
<desc>lat.=55.704338, lon.=26.086363, Alt.=145.974731m. Speed=0.036000m/h.</desc>
<speed>0.010000</speed>
</trkpt>
<trkpt lat="55.704338" lon="26.086363">
<ele>145.974731</ele>
<time>2010-07-17T20:10:58Z</time>
<desc>lat.=55.704338, lon.=26.086363, Alt.=145.974731m. Speed=0.036000m/h.</desc>
<speed>0.010000</speed>
</trkpt>
<trkpt lat="55.704338" lon="26.086363">
<ele>145.978638</ele>
<time>2010-07-17T20:10:59Z</time>
<desc>lat.=55.704338, lon.=26.086363, Alt.=145.978638m. Speed=0.036000m/h.</desc>
<speed>0.010000</speed>
</trkpt>
<trkpt lat="55.704338" lon="26.086363">
<ele>145.982544</ele>
<time>2010-07-17T20:11:00Z</time>
<desc>lat.=55.704338, lon.=26.086363, Alt.=145.982544m. Speed=0.108000m/h.</desc>
<speed>0.030000</speed>
</trkpt>
<trkpt lat="55.704338" lon="26.086363">
<ele>145.986450</ele>
<time>2010-07-17T20:11:01Z</time>
<desc>lat.=55.704338, lon.=26.086363, Alt.=145.986450m. Speed=0.072000m/h.</desc>
<speed>0.020000</speed>
</trkpt>
<trkpt lat="55.704338" lon="26.086363">
<ele>145.982544</ele>
<time>2010-07-17T20:11:02Z</time>
<desc>lat.=55.704338, lon.=26.086363, Alt.=145.982544m. Speed=0.108000m/h.</desc>
<speed>0.030000</speed>
</trkpt>
<trkpt lat="55.704338" lon="26.086363">
<ele>145.978638</ele>
<time>2010-07-17T20:11:03Z</time>
<desc>lat.=55.704338, lon.=26.086363, Alt.=145.978638m. Speed=0.072000m/h.</desc>
<speed>0.020000</speed>
</trkpt>
<trkpt lat="55.704338" lon="26.086363">
<ele>145.978638</ele>
<time>2010-07-17T20:11:04Z</time>
<desc>lat.=55.704338, lon.=26.086363, Alt.=145.978638m. Speed=0.072000m/h.</desc>
<speed>0.020000</speed>
</trkpt>
<trkpt lat="55.704338" lon="26.086363">
<ele>145.982544</ele>
<time>2010-07-17T20:11:05Z</time>
<desc>lat.=55.704338, lon.=26.086363, Alt.=145.982544m. Speed=0.000000m/h.</desc>
<speed>0.000000</speed>
</trkpt>
<trkpt lat="55.704338" lon="26.086363">
<ele>145.986450</ele>
<time>2010-07-17T20:11:06Z</time>
<desc>lat.=55.704338, lon.=26.086363, Alt.=145.986450m. Speed=0.072000m/h.</desc>
<speed>0.020000</speed>
</trkpt>
<trkpt lat="55.704338" lon="26.086363">
<ele>145.994263</ele>
<time>2010-07-17T20:11:07Z</time>
<desc>lat.=55.704338, lon.=26.086363, Alt.=145.994263m. Speed=0.036000m/h.</desc>
<speed>0.010000</speed>
</trkpt>
<trkpt lat="55.704338" lon="26.086363">
<ele>145.998169</ele>
<time>2010-07-17T20:11:08Z</time>
<desc>lat.=55.704338, lon.=26.086363, Alt.=145.998169m. Speed=0.036000m/h.</desc>
<speed>0.010000</speed>
</trkpt>
<trkpt lat="55.704338" lon="26.086363">
<ele>146.005981</ele>
<time>2010-07-17T20:11:09Z</time>
<desc>lat.=55.704338, lon.=26.086363, Alt.=146.005981m. Speed=0.036000m/h.</desc>
<speed>0.010000</speed>
</trkpt>
<trkpt lat="55.704338" lon="26.086363">
<ele>146.017700</ele>
<time>2010-07-17T20:11:10Z</time>
<desc>lat.=55.704338, lon.=26.086363, Alt.=146.017700m. Speed=0.036000m/h.</desc>
<speed>0.010000</speed>
</trkpt>
<trkpt lat="55.704338" lon="26.086363">
<ele>146.017700</ele>
<time>2010-07-17T20:11:11Z</time>
<desc>lat.=55.704338, lon.=26.086363, Alt.=146.017700m. Speed=0.072000m/h.</desc>
<speed>0.020000</speed>
</trkpt>
<trkpt lat="55.704338" lon="26.086363">
<ele>146.017700</ele>
<time>2010-07-17T20:11:12Z</time>
<desc>lat.=55.704338, lon.=26.086363, Alt.=146.017700m. Speed=0.000000m/h.</desc>
<speed>0.000000</speed>
</trkpt>
<trkpt lat="55.704338" lon="26.086363">
<ele>146.021606</ele>
<time>2010-07-17T20:11:13Z</time>
<desc>lat.=55.704338, lon.=26.086363, Alt.=146.021606m. Speed=0.108000m/h.</desc>
<speed>0.030000</speed>
</trkpt>
<trkpt lat="55.704338" lon="26.086363">
<ele>146.021606</ele>
<time>2010-07-17T20:11:14Z</time>
<desc>lat.=55.704338, lon.=26.086363, Alt.=146.021606m. Speed=0.000000m/h.</desc>
<speed>0.000000</speed>
</trkpt>
<trkpt lat="55.704338" lon="26.086363">
<ele>146.029419</ele>
<time>2010-07-17T20:11:15Z</time>
<desc>lat.=55.704338, lon.=26.086363, Alt.=146.029419m. Speed=0.000000m/h.</desc>
<speed>0.000000</speed>
</trkpt>
<trkpt lat="55.704338" lon="26.086363">
<ele>146.033325</ele>
<time>2010-07-17T20:11:16Z</time>
<desc>lat.=55.704338, lon.=26.086363, Alt.=146.033325m. Speed=0.036000m/h.</desc>
<speed>0.010000</speed>
</trkpt>
<trkpt lat="55.704338" lon="26.086361">
<ele>146.033325</ele>
<time>2010-07-17T20:11:17Z</time>
<desc>lat.=55.704338, lon.=26.086361, Alt.=146.033325m. Speed=0.036000m/h.</desc>
<speed>0.010000</speed>
</trkpt>
<trkpt lat="55.704338" lon="26.086361">
<ele>146.041138</ele>
<time>2010-07-17T20:11:18Z</time>
<desc>lat.=55.704338, lon.=26.086361, Alt.=146.041138m. Speed=0.000000m/h.</desc>
<speed>0.000000</speed>
</trkpt>
<trkpt lat="55.704338" lon="26.086361">
<ele>146.041138</ele>
<time>2010-07-17T20:11:19Z</time>
<desc>lat.=55.704338, lon.=26.086361, Alt.=146.041138m. Speed=0.036000m/h.</desc>
<speed>0.010000</speed>
</trkpt>
<trkpt lat="55.704338" lon="26.086361">
<ele>146.045044</ele>
<time>2010-07-17T20:11:20Z</time>
<desc>lat.=55.704338, lon.=26.086361, Alt.=146.045044m. Speed=0.072000m/h.</desc>
<speed>0.020000</speed>
</trkpt>
<trkpt lat="55.704338" lon="26.086361">
<ele>146.052856</ele>
<time>2010-07-17T20:11:21Z</time>
<desc>lat.=55.704338, lon.=26.086361, Alt.=146.052856m. Speed=0.036000m/h.</desc>
<speed>0.010000</speed>
</trkpt>
<trkpt lat="55.704338" lon="26.086361">
<ele>146.060669</ele>
<time>2010-07-17T20:11:22Z</time>
<desc>lat.=55.704338, lon.=26.086361, Alt.=146.060669m. Speed=0.072000m/h.</desc>
<speed>0.020000</speed>
</trkpt>
<trkpt lat="55.704338" lon="26.086361">
<ele>146.072388</ele>
<time>2010-07-17T20:11:23Z</time>
<desc>lat.=55.704338, lon.=26.086361, Alt.=146.072388m. Speed=0.036000m/h.</desc>
<speed>0.010000</speed>
</trkpt>
<trkpt lat="55.704338" lon="26.086361">
<ele>146.080200</ele>
<time>2010-07-17T20:11:24Z</time>
<desc>lat.=55.704338, lon.=26.086361, Alt.=146.080200m. Speed=0.000000m/h.</desc>
<speed>0.000000</speed>
</trkpt>
<trkpt lat="55.704338" lon="26.086361">
<ele>146.088013</ele>
<time>2010-07-17T20:11:25Z</time>
<desc>lat.=55.704338, lon.=26.086361, Alt.=146.088013m. Speed=0.036000m/h.</desc>
<speed>0.010000</speed>
</trkpt>
<trkpt lat="55.704338" lon="26.086361">
<ele>146.091919</ele>
<time>2010-07-17T20:11:26Z</time>
<desc>lat.=55.704338, lon.=26.086361, Alt.=146.091919m. Speed=0.036000m/h.</desc>
<speed>0.010000</speed>
</trkpt>
<trkpt lat="55.704338" lon="26.086361">
<ele>146.095825</ele>
<time>2010-07-17T20:11:27Z</time>
<desc>lat.=55.704338, lon.=26.086361, Alt.=146.095825m. Speed=0.072000m/h.</desc>
<speed>0.020000</speed>
</trkpt>
<trkpt lat="55.704338" lon="26.086361">
<ele>146.099731</ele>
<time>2010-07-17T20:11:28Z</time>
<desc>lat.=55.704338, lon.=26.086361, Alt.=146.099731m. Speed=0.000000m/h.</desc>
<speed>0.000000</speed>
</trkpt>
<trkpt lat="55.704342" lon="26.086361">
<ele>146.103638</ele>
<time>2010-07-17T20:11:29Z</time>
<desc>lat.=55.704342, lon.=26.086361, Alt.=146.103638m. Speed=0.000000m/h.</desc>
<speed>0.000000</speed>
</trkpt>
<trkpt lat="55.704342" lon="26.086361">
<ele>146.111450</ele>
<time>2010-07-17T20:11:30Z</time>
<desc>lat.=55.704342, lon.=26.086361, Alt.=146.111450m. Speed=0.144000m/h.</desc>
<speed>0.040000</speed>
</trkpt>
<trkpt lat="55.704342" lon="26.086361">
<ele>146.123169</ele>
<time>2010-07-17T20:11:31Z</time>
<desc>lat.=55.704342, lon.=26.086361, Alt.=146.123169m. Speed=0.072000m/h.</desc>
<speed>0.020000</speed>
</trkpt>
<trkpt lat="55.704342" lon="26.086361">
<ele>146.127075</ele>
<time>2010-07-17T20:11:32Z</time>
<desc>lat.=55.704342, lon.=26.086361, Alt.=146.127075m. Speed=0.036000m/h.</desc>
<speed>0.010000</speed>
</trkpt>
<trkpt lat="55.704342" lon="26.086361">
<ele>146.127075</ele>
<time>2010-07-17T20:11:33Z</time>
<desc>lat.=55.704342, lon.=26.086361, Alt.=146.127075m. Speed=0.072000m/h.</desc>
<speed>0.020000</speed>
</trkpt>
<trkpt lat="55.704342" lon="26.086361">
<ele>146.127075</ele>
<time>2010-07-17T20:11:34Z</time>
<desc>lat.=55.704342, lon.=26.086361, Alt.=146.127075m. Speed=0.072000m/h.</desc>
<speed>0.020000</speed>
</trkpt>
<trkpt lat="55.704342" lon="26.086361">
<ele>146.134888</ele>
<time>2010-07-17T20:11:35Z</time>
<desc>lat.=55.704342, lon.=26.086361, Alt.=146.134888m. Speed=0.036000m/h.</desc>
<speed>0.010000</speed>
</trkpt>
<trkpt lat="55.704342" lon="26.086361">
<ele>146.134888</ele>
<time>2010-07-17T20:11:36Z</time>
<desc>lat.=55.704342, lon.=26.086361, Alt.=146.134888m. Speed=0.000000m/h.</desc>
<speed>0.000000</speed>
</trkpt>
<trkpt lat="55.704342" lon="26.086361">
<ele>146.134888</ele>
<time>2010-07-17T20:11:37Z</time>
<desc>lat.=55.704342, lon.=26.086361, Alt.=146.134888m. Speed=0.072000m/h.</desc>
<speed>0.020000</speed>
</trkpt>
<trkpt lat="55.704342" lon="26.086361">
<ele>146.127075</ele>
<time>2010-07-17T20:11:38Z</time>
<desc>lat.=55.704342, lon.=26.086361, Alt.=146.127075m. Speed=0.036000m/h.</desc>
<speed>0.010000</speed>
</trkpt>
<trkpt lat="55.704342" lon="26.086361">
<ele>146.127075</ele>
<time>2010-07-17T20:11:39Z</time>
<desc>lat.=55.704342, lon.=26.086361, Alt.=146.127075m. Speed=0.036000m/h.</desc>
<speed>0.010000</speed>
</trkpt>
<trkpt lat="55.704342" lon="26.086361">
<ele>146.134888</ele>
<time>2010-07-17T20:11:40Z</time>
<desc>lat.=55.704342, lon.=26.086361, Alt.=146.134888m. Speed=0.144000m/h.</desc>
<speed>0.040000</speed>
</trkpt>
<trkpt lat="55.704342" lon="26.086361">
<ele>146.134888</ele>
<time>2010-07-17T20:11:41Z</time>
<desc>lat.=55.704342, lon.=26.086361, Alt.=146.134888m. Speed=0.072000m/h.</desc>
<speed>0.020000</speed>
</trkpt>
<trkpt lat="55.704342" lon="26.086361">
<ele>146.138794</ele>
<time>2010-07-17T20:11:42Z</time>
<desc>lat.=55.704342, lon.=26.086361, Alt.=146.138794m. Speed=0.000000m/h.</desc>
<speed>0.000000</speed>
</trkpt>
<trkpt lat="55.704342" lon="26.086361">
<ele>146.142700</ele>
<time>2010-07-17T20:11:43Z</time>
<desc>lat.=55.704342, lon.=26.086361, Alt.=146.142700m. Speed=0.036000m/h.</desc>
<speed>0.010000</speed>
</trkpt>
<trkpt lat="55.704342" lon="26.086361">
<ele>146.150513</ele>
<time>2010-07-17T20:11:44Z</time>
<desc>lat.=55.704342, lon.=26.086361, Alt.=146.150513m. Speed=0.036000m/h.</desc>
<speed>0.010000</speed>
</trkpt>
<trkpt lat="55.704342" lon="26.086361">
<ele>146.154419</ele>
<time>2010-07-17T20:11:45Z</time>
<desc>lat.=55.704342, lon.=26.086361, Alt.=146.154419m. Speed=0.000000m/h.</desc>
<speed>0.000000</speed>
</trkpt>
<trkpt lat="55.704342" lon="26.086361">
<ele>146.158325</ele>
<time>2010-07-17T20:11:46Z</time>
<desc>lat.=55.704342, lon.=26.086361, Alt.=146.158325m. Speed=0.036000m/h.</desc>
<speed>0.010000</speed>
</trkpt>
<trkpt lat="55.704342" lon="26.086361">
<ele>146.154419</ele>
<time>2010-07-17T20:11:47Z</time>
<desc>lat.=55.704342, lon.=26.086361, Alt.=146.154419m. Speed=0.036000m/h.</desc>
<speed>0.010000</speed>
</trkpt>
<trkpt lat="55.704342" lon="26.086361">
<ele>146.150513</ele>
<time>2010-07-17T20:11:48Z</time>
<desc>lat.=55.704342, lon.=26.086361, Alt.=146.150513m. Speed=0.072000m/h.</desc>
<speed>0.020000</speed>
</trkpt>
<trkpt lat="55.704342" lon="26.086361">
<ele>146.146606</ele>
<time>2010-07-17T20:11:49Z</time>
<desc>lat.=55.704342, lon.=26.086361, Alt.=146.146606m. Speed=0.072000m/h.</desc>
<speed>0.020000</speed>
</trkpt>
<trkpt lat="55.704342" lon="26.086363">
<ele>146.146606</ele>
<time>2010-07-17T20:11:50Z</time>
<desc>lat.=55.704342, lon.=26.086363, Alt.=146.146606m. Speed=0.000000m/h.</desc>
<speed>0.000000</speed>
</trkpt>
<trkpt lat="55.704342" lon="26.086361">
<ele>146.146606</ele>
<time>2010-07-17T20:11:51Z</time>
<desc>lat.=55.704342, lon.=26.086361, Alt.=146.146606m. Speed=0.000000m/h.</desc>
<speed>0.000000</speed>
</trkpt>
<trkpt lat="55.704342" lon="26.086361">
<ele>146.150513</ele>
<time>2010-07-17T20:11:52Z</time>
<desc>lat.=55.704342, lon.=26.086361, Alt.=146.150513m. Speed=0.108000m/h.</desc>
<speed>0.030000</speed>
</trkpt>
<trkpt lat="55.704342" lon="26.086361">
<ele>146.150513</ele>
<time>2010-07-17T20:11:53Z</time>
<desc>lat.=55.704342, lon.=26.086361, Alt.=146.150513m. Speed=0.036000m/h.</desc>
<speed>0.010000</speed>
</trkpt>
<trkpt lat="55.704342" lon="26.086361">
<ele>146.146606</ele>
<time>2010-07-17T20:11:54Z</time>
<desc>lat.=55.704342, lon.=26.086361, Alt.=146.146606m. Speed=0.072000m/h.</desc>
<speed>0.020000</speed>
</trkpt>
<trkpt lat="55.704342" lon="26.086361">
<ele>146.146606</ele>
<time>2010-07-17T20:11:55Z</time>
<desc>lat.=55.704342, lon.=26.086361, Alt.=146.146606m. Speed=0.036000m/h.</desc>
<speed>0.010000</speed>
</trkpt>
<trkpt lat="55.704342" lon="26.086361">
<ele>146.142700</ele>
<time>2010-07-17T20:11:56Z</time>
<desc>lat.=55.704342, lon.=26.086361, Alt.=146.142700m. Speed=0.036000m/h.</desc>
<speed>0.010000</speed>
</trkpt>
<trkpt lat="55.704342" lon="26.086361">
<ele>146.134888</ele>
<time>2010-07-17T20:11:57Z</time>
<desc>lat.=55.704342, lon.=26.086361, Alt.=146.134888m. Speed=0.000000m/h.</desc>
<speed>0.000000</speed>
</trkpt>
<trkpt lat="55.704342" lon="26.086361">
<ele>146.130981</ele>
<time>2010-07-17T20:11:58Z</time>
<desc>lat.=55.704342, lon.=26.086361, Alt.=146.130981m. Speed=0.000000m/h.</desc>
<speed>0.000000</speed>
</trkpt>
<trkpt lat="55.704342" lon="26.086361">
<ele>146.123169</ele>
<time>2010-07-17T20:11:59Z</time>
<desc>lat.=55.704342, lon.=26.086361, Alt.=146.123169m. Speed=0.036000m/h.</desc>
<speed>0.010000</speed>
</trkpt>
<trkpt lat="55.704342" lon="26.086361">
<ele>146.119263</ele>
<time>2010-07-17T20:12:00Z</time>
<desc>lat.=55.704342, lon.=26.086361, Alt.=146.119263m. Speed=0.036000m/h.</desc>
<speed>0.010000</speed>
</trkpt>
<trkpt lat="55.704342" lon="26.086361">
<ele>146.115356</ele>
<time>2010-07-17T20:12:01Z</time>
<desc>lat.=55.704342, lon.=26.086361, Alt.=146.115356m. Speed=0.072000m/h.</desc>
<speed>0.020000</speed>
</trkpt>
<trkpt lat="55.704342" lon="26.086361">
<ele>146.111450</ele>
<time>2010-07-17T20:12:02Z</time>
<desc>lat.=55.704342, lon.=26.086361, Alt.=146.111450m. Speed=0.036000m/h.</desc>
<speed>0.010000</speed>
</trkpt>
<trkpt lat="55.704342" lon="26.086361">
<ele>146.107544</ele>
<time>2010-07-17T20:12:03Z</time>
<desc>lat.=55.704342, lon.=26.086361, Alt.=146.107544m. Speed=0.072000m/h.</desc>
<speed>0.020000</speed>
</trkpt>
<trkpt lat="55.704342" lon="26.086361">
<ele>146.107544</ele>
<time>2010-07-17T20:12:04Z</time>
<desc>lat.=55.704342, lon.=26.086361, Alt.=146.107544m. Speed=0.000000m/h.</desc>
<speed>0.000000</speed>
</trkpt>
<trkpt lat="55.704342" lon="26.086361">
<ele>146.099731</ele>
<time>2010-07-17T20:12:05Z</time>
<desc>lat.=55.704342, lon.=26.086361, Alt.=146.099731m. Speed=0.036000m/h.</desc>
<speed>0.010000</speed>
</trkpt>
<trkpt lat="55.704342" lon="26.086361">
<ele>146.091919</ele>
<time>2010-07-17T20:12:06Z</time>
<desc>lat.=55.704342, lon.=26.086361, Alt.=146.091919m. Speed=0.108000m/h.</desc>
<speed>0.030000</speed>
</trkpt>
<trkpt lat="55.704342" lon="26.086361">
<ele>146.084106</ele>
<time>2010-07-17T20:12:07Z</time>
<desc>lat.=55.704342, lon.=26.086361, Alt.=146.084106m. Speed=0.072000m/h.</desc>
<speed>0.020000</speed>
</trkpt>
<trkpt lat="55.704342" lon="26.086361">
<ele>146.076294</ele>
<time>2010-07-17T20:12:08Z</time>
<desc>lat.=55.704342, lon.=26.086361, Alt.=146.076294m. Speed=0.036000m/h.</desc>
<speed>0.010000</speed>
</trkpt>
<trkpt lat="55.704342" lon="26.086361">
<ele>146.072388</ele>
<time>2010-07-17T20:12:09Z</time>
<desc>lat.=55.704342, lon.=26.086361, Alt.=146.072388m. Speed=0.072000m/h.</desc>
<speed>0.020000</speed>
</trkpt>
<trkpt lat="55.704342" lon="26.086361">
<ele>146.076294</ele>
<time>2010-07-17T20:12:10Z</time>
<desc>lat.=55.704342, lon.=26.086361, Alt.=146.076294m. Speed=0.036000m/h.</desc>
<speed>0.010000</speed>
</trkpt>
<trkpt lat="55.704342" lon="26.086361">
<ele>146.072388</ele>
<time>2010-07-17T20:12:11Z</time>
<desc>lat.=55.704342, lon.=26.086361, Alt.=146.072388m. Speed=0.072000m/h.</desc>
<speed>0.020000</speed>
</trkpt>
<trkpt lat="55.704342" lon="26.086363">
<ele>146.064575</ele>
<time>2010-07-17T20:12:12Z</time>
<desc>lat.=55.704342, lon.=26.086363, Alt.=146.064575m. Speed=0.072000m/h.</desc>
<speed>0.020000</speed>
</trkpt>
<trkpt lat="55.704342" lon="26.086363">
<ele>146.056763</ele>
<time>2010-07-17T20:12:13Z</time>
<desc>lat.=55.704342, lon.=26.086363, Alt.=146.056763m. Speed=0.000000m/h.</desc>
<speed>0.000000</speed>
</trkpt>
<trkpt lat="55.704342" lon="26.086363">
<ele>146.048950</ele>
<time>2010-07-17T20:12:14Z</time>
<desc>lat.=55.704342, lon.=26.086363, Alt.=146.048950m. Speed=0.036000m/h.</desc>
<speed>0.010000</speed>
</trkpt>
<trkpt lat="55.704342" lon="26.086363">
<ele>146.041138</ele>
<time>2010-07-17T20:12:15Z</time>
<desc>lat.=55.704342, lon.=26.086363, Alt.=146.041138m. Speed=0.072000m/h.</desc>
<speed>0.020000</speed>
</trkpt>
<trkpt lat="55.704342" lon="26.086363">
<ele>146.037231</ele>
<time>2010-07-17T20:12:16Z</time>
<desc>lat.=55.704342, lon.=26.086363, Alt.=146.037231m. Speed=0.000000m/h.</desc>
<speed>0.000000</speed>
</trkpt>
<trkpt lat="55.704342" lon="26.086363">
<ele>146.037231</ele>
<time>2010-07-17T20:12:17Z</time>
<desc>lat.=55.704342, lon.=26.086363, Alt.=146.037231m. Speed=0.000000m/h.</desc>
<speed>0.000000</speed>
</trkpt>
<trkpt lat="55.704342" lon="26.086363">
<ele>146.033325</ele>
<time>2010-07-17T20:12:18Z</time>
<desc>lat.=55.704342, lon.=26.086363, Alt.=146.033325m. Speed=0.000000m/h.</desc>
<speed>0.000000</speed>
</trkpt>
<trkpt lat="55.704342" lon="26.086363">
<ele>146.029419</ele>
<time>2010-07-17T20:12:19Z</time>
<desc>lat.=55.704342, lon.=26.086363, Alt.=146.029419m. Speed=0.000000m/h.</desc>
<speed>0.000000</speed>
</trkpt>
<trkpt lat="55.704342" lon="26.086363">
<ele>146.029419</ele>
<time>2010-07-17T20:12:20Z</time>
<desc>lat.=55.704342, lon.=26.086363, Alt.=146.029419m. Speed=0.108000m/h.</desc>
<speed>0.030000</speed>
</trkpt>
<trkpt lat="55.704342" lon="26.086363">
<ele>146.029419</ele>
<time>2010-07-17T20:12:21Z</time>
<desc>lat.=55.704342, lon.=26.086363, Alt.=146.029419m. Speed=0.072000m/h.</desc>
<speed>0.020000</speed>
</trkpt>
<trkpt lat="55.704342" lon="26.086363">
<ele>146.033325</ele>
<time>2010-07-17T20:12:22Z</time>
<desc>lat.=55.704342, lon.=26.086363, Alt.=146.033325m. Speed=0.108000m/h.</desc>
<speed>0.030000</speed>
</trkpt>
<trkpt lat="55.704338" lon="26.086363">
<ele>146.041138</ele>
<time>2010-07-17T20:12:23Z</time>
<desc>lat.=55.704338, lon.=26.086363, Alt.=146.041138m. Speed=0.036000m/h.</desc>
<speed>0.010000</speed>
</trkpt>
<trkpt lat="55.704338" lon="26.086363">
<ele>146.045044</ele>
<time>2010-07-17T20:12:24Z</time>
<desc>lat.=55.704338, lon.=26.086363, Alt.=146.045044m. Speed=0.072000m/h.</desc>
<speed>0.020000</speed>
</trkpt>
<trkpt lat="55.704338" lon="26.086363">
<ele>146.045044</ele>
<time>2010-07-17T20:12:25Z</time>
<desc>lat.=55.704338, lon.=26.086363, Alt.=146.045044m. Speed=0.072000m/h.</desc>
<speed>0.020000</speed>
</trkpt>
<trkpt lat="55.704338" lon="26.086363">
<ele>146.045044</ele>
<time>2010-07-17T20:12:26Z</time>
<desc>lat.=55.704338, lon.=26.086363, Alt.=146.045044m. Speed=0.036000m/h.</desc>
<speed>0.010000</speed>
</trkpt>
<trkpt lat="55.704338" lon="26.086363">
<ele>146.045044</ele>
<time>2010-07-17T20:12:27Z</time>
<desc>lat.=55.704338, lon.=26.086363, Alt.=146.045044m. Speed=0.072000m/h.</desc>
<speed>0.020000</speed>
</trkpt>
<trkpt lat="55.704338" lon="26.086363">
<ele>146.041138</ele>
<time>2010-07-17T20:12:28Z</time>
<desc>lat.=55.704338, lon.=26.086363, Alt.=146.041138m. Speed=0.072000m/h.</desc>
<speed>0.020000</speed>
</trkpt>
<trkpt lat="55.704338" lon="26.086363">
<ele>146.037231</ele>
<time>2010-07-17T20:12:29Z</time>
<desc>lat.=55.704338, lon.=26.086363, Alt.=146.037231m. Speed=0.036000m/h.</desc>
<speed>0.010000</speed>
</trkpt>
<trkpt lat="55.704338" lon="26.086363">
<ele>146.048950</ele>
<time>2010-07-17T20:12:30Z</time>
<desc>lat.=55.704338, lon.=26.086363, Alt.=146.048950m. Speed=0.000000m/h.</desc>
<speed>0.000000</speed>
</trkpt>
<trkpt lat="55.704338" lon="26.086363">
<ele>146.048950</ele>
<time>2010-07-17T20:12:31Z</time>
<desc>lat.=55.704338, lon.=26.086363, Alt.=146.048950m. Speed=0.036000m/h.</desc>
<speed>0.010000</speed>
</trkpt>
<trkpt lat="55.704338" lon="26.086363">
<ele>146.060669</ele>
<time>2010-07-17T20:12:32Z</time>
<desc>lat.=55.704338, lon.=26.086363, Alt.=146.060669m. Speed=0.036000m/h.</desc>
<speed>0.010000</speed>
</trkpt>
<trkpt lat="55.704338" lon="26.086363">
<ele>146.064575</ele>
<time>2010-07-17T20:12:33Z</time>
<desc>lat.=55.704338, lon.=26.086363, Alt.=146.064575m. Speed=0.036000m/h.</desc>
<speed>0.010000</speed>
</trkpt>
<trkpt lat="55.704338" lon="26.086363">
<ele>146.064575</ele>
<time>2010-07-17T20:12:34Z</time>
<desc>lat.=55.704338, lon.=26.086363, Alt.=146.064575m. Speed=0.072000m/h.</desc>
<speed>0.020000</speed>
</trkpt>
<trkpt lat="55.704338" lon="26.086363">
<ele>146.068481</ele>
<time>2010-07-17T20:12:35Z</time>
<desc>lat.=55.704338, lon.=26.086363, Alt.=146.068481m. Speed=0.108000m/h.</desc>
<speed>0.030000</speed>
</trkpt>
<trkpt lat="55.704338" lon="26.086363">
<ele>146.072388</ele>
<time>2010-07-17T20:12:36Z</time>
<desc>lat.=55.704338, lon.=26.086363, Alt.=146.072388m. Speed=0.000000m/h.</desc>
<speed>0.000000</speed>
</trkpt>
<trkpt lat="55.704338" lon="26.086363">
<ele>146.072388</ele>
<time>2010-07-17T20:12:37Z</time>
<desc>lat.=55.704338, lon.=26.086363, Alt.=146.072388m. Speed=0.072000m/h.</desc>
<speed>0.020000</speed>
</trkpt>
<trkpt lat="55.704338" lon="26.086363">
<ele>146.072388</ele>
<time>2010-07-17T20:12:38Z</time>
<desc>lat.=55.704338, lon.=26.086363, Alt.=146.072388m. Speed=0.072000m/h.</desc>
<speed>0.020000</speed>
</trkpt>
<trkpt lat="55.704338" lon="26.086363">
<ele>146.076294</ele>
<time>2010-07-17T20:12:39Z</time>
<desc>lat.=55.704338, lon.=26.086363, Alt.=146.076294m. Speed=0.072000m/h.</desc>
<speed>0.020000</speed>
</trkpt>
<trkpt lat="55.704338" lon="26.086363">
<ele>146.072388</ele>
<time>2010-07-17T20:12:40Z</time>
<desc>lat.=55.704338, lon.=26.086363, Alt.=146.072388m. Speed=0.072000m/h.</desc>
<speed>0.020000</speed>
</trkpt>
<trkpt lat="55.704338" lon="26.086363">
<ele>146.068481</ele>
<time>2010-07-17T20:12:41Z</time>
<desc>lat.=55.704338, lon.=26.086363, Alt.=146.068481m. Speed=0.072000m/h.</desc>
<speed>0.020000</speed>
</trkpt>
<trkpt lat="55.704338" lon="26.086363">
<ele>146.060669</ele>
<time>2010-07-17T20:12:42Z</time>
<desc>lat.=55.704338, lon.=26.086363, Alt.=146.060669m. Speed=0.036000m/h.</desc>
<speed>0.010000</speed>
</trkpt>
<trkpt lat="55.704338" lon="26.086363">
<ele>146.056763</ele>
<time>2010-07-17T20:12:43Z</time>
<desc>lat.=55.704338, lon.=26.086363, Alt.=146.056763m. Speed=0.108000m/h.</desc>
<speed>0.030000</speed>
</trkpt>
<trkpt lat="55.704338" lon="26.086363">
<ele>146.060669</ele>
<time>2010-07-17T20:12:44Z</time>
<desc>lat.=55.704338, lon.=26.086363, Alt.=146.060669m. Speed=0.036000m/h.</desc>
<speed>0.010000</speed>
</trkpt>
<trkpt lat="55.704338" lon="26.086363">
<ele>146.060669</ele>
<time>2010-07-17T20:12:45Z</time>
<desc>lat.=55.704338, lon.=26.086363, Alt.=146.060669m. Speed=0.000000m/h.</desc>
<speed>0.000000</speed>
</trkpt>
<trkpt lat="55.704338" lon="26.086363">
<ele>146.064575</ele>
<time>2010-07-17T20:12:46Z</time>
<desc>lat.=55.704338, lon.=26.086363, Alt.=146.064575m. Speed=0.000000m/h.</desc>
<speed>0.000000</speed>
</trkpt>
<trkpt lat="55.704338" lon="26.086363">
<ele>146.064575</ele>
<time>2010-07-17T20:12:47Z</time>
<desc>lat.=55.704338, lon.=26.086363, Alt.=146.064575m. Speed=0.000000m/h.</desc>
<speed>0.000000</speed>
</trkpt>
<trkpt lat="55.704338" lon="26.086363">
<ele>146.072388</ele>
<time>2010-07-17T20:12:48Z</time>
<desc>lat.=55.704338, lon.=26.086363, Alt.=146.072388m. Speed=0.036000m/h.</desc>
<speed>0.010000</speed>
</trkpt>
<trkpt lat="55.704338" lon="26.086363">
<ele>146.076294</ele>
<time>2010-07-17T20:12:49Z</time>
<desc>lat.=55.704338, lon.=26.086363, Alt.=146.076294m. Speed=0.000000m/h.</desc>
<speed>0.000000</speed>
</trkpt>
<trkpt lat="55.704338" lon="26.086363">
<ele>146.080200</ele>
<time>2010-07-17T20:12:50Z</time>
<desc>lat.=55.704338, lon.=26.086363, Alt.=146.080200m. Speed=0.036000m/h.</desc>
<speed>0.010000</speed>
</trkpt>
<trkpt lat="55.704338" lon="26.086363">
<ele>146.084106</ele>
<time>2010-07-17T20:12:51Z</time>
<desc>lat.=55.704338, lon.=26.086363, Alt.=146.084106m. Speed=0.036000m/h.</desc>
<speed>0.010000</speed>
</trkpt>
<trkpt lat="55.704338" lon="26.086365">
<ele>146.088013</ele>
<time>2010-07-17T20:12:52Z</time>
<desc>lat.=55.704338, lon.=26.086365, Alt.=146.088013m. Speed=0.036000m/h.</desc>
<speed>0.010000</speed>
</trkpt>
<trkpt lat="55.704338" lon="26.086365">
<ele>146.091919</ele>
<time>2010-07-17T20:12:53Z</time>
<desc>lat.=55.704338, lon.=26.086365, Alt.=146.091919m. Speed=0.036000m/h.</desc>
<speed>0.010000</speed>
</trkpt>
<trkpt lat="55.704338" lon="26.086365">
<ele>146.095825</ele>
<time>2010-07-17T20:12:54Z</time>
<desc>lat.=55.704338, lon.=26.086365, Alt.=146.095825m. Speed=0.000000m/h.</desc>
<speed>0.000000</speed>
</trkpt>
<trkpt lat="55.704338" lon="26.086365">
<ele>146.103638</ele>
<time>2010-07-17T20:12:55Z</time>
<desc>lat.=55.704338, lon.=26.086365, Alt.=146.103638m. Speed=0.036000m/h.</desc>
<speed>0.010000</speed>
</trkpt>
<trkpt lat="55.704338" lon="26.086365">
<ele>146.103638</ele>
<time>2010-07-17T20:12:56Z</time>
<desc>lat.=55.704338, lon.=26.086365, Alt.=146.103638m. Speed=0.000000m/h.</desc>
<speed>0.000000</speed>
</trkpt>
<trkpt lat="55.704338" lon="26.086365">
<ele>146.107544</ele>
<time>2010-07-17T20:12:57Z</time>
<desc>lat.=55.704338, lon.=26.086365, Alt.=146.107544m. Speed=0.036000m/h.</desc>
<speed>0.010000</speed>
</trkpt>
<trkpt lat="55.704338" lon="26.086365">
<ele>146.111450</ele>
<time>2010-07-17T20:12:58Z</time>
<desc>lat.=55.704338, lon.=26.086365, Alt.=146.111450m. Speed=0.000000m/h.</desc>
<speed>0.000000</speed>
</trkpt>
<trkpt lat="55.704338" lon="26.086365">
<ele>146.119263</ele>
<time>2010-07-17T20:12:59Z</time>
<desc>lat.=55.704338, lon.=26.086365, Alt.=146.119263m. Speed=0.072000m/h.</desc>
<speed>0.020000</speed>
</trkpt>
<trkpt lat="55.704338" lon="26.086365">
<ele>146.127075</ele>
<time>2010-07-17T20:13:00Z</time>
<desc>lat.=55.704338, lon.=26.086365, Alt.=146.127075m. Speed=0.036000m/h.</desc>
<speed>0.010000</speed>
</trkpt>
<trkpt lat="55.704338" lon="26.086365">
<ele>146.134888</ele>
<time>2010-07-17T20:13:01Z</time>
<desc>lat.=55.704338, lon.=26.086365, Alt.=146.134888m. Speed=0.000000m/h.</desc>
<speed>0.000000</speed>
</trkpt>
<trkpt lat="55.704338" lon="26.086365">
<ele>146.150513</ele>
<time>2010-07-17T20:13:02Z</time>
<desc>lat.=55.704338, lon.=26.086365, Alt.=146.150513m. Speed=0.036000m/h.</desc>
<speed>0.010000</speed>
</trkpt>
<trkpt lat="55.704338" lon="26.086365">
<ele>146.154419</ele>
<time>2010-07-17T20:13:03Z</time>
<desc>lat.=55.704338, lon.=26.086365, Alt.=146.154419m. Speed=0.036000m/h.</desc>
<speed>0.010000</speed>
</trkpt>
<trkpt lat="55.704338" lon="26.086365">
<ele>146.170044</ele>
<time>2010-07-17T20:13:04Z</time>
<desc>lat.=55.704338, lon.=26.086365, Alt.=146.170044m. Speed=0.072000m/h.</desc>
<speed>0.020000</speed>
</trkpt>
<trkpt lat="55.704338" lon="26.086363">
<ele>146.173950</ele>
<time>2010-07-17T20:13:05Z</time>
<desc>lat.=55.704338, lon.=26.086363, Alt.=146.173950m. Speed=0.000000m/h.</desc>
<speed>0.000000</speed>
</trkpt>
<trkpt lat="55.704338" lon="26.086363">
<ele>146.173950</ele>
<time>2010-07-17T20:13:06Z</time>
<desc>lat.=55.704338, lon.=26.086363, Alt.=146.173950m. Speed=0.072000m/h.</desc>
<speed>0.020000</speed>
</trkpt>
<trkpt lat="55.704338" lon="26.086363">
<ele>146.170044</ele>
<time>2010-07-17T20:13:07Z</time>
<desc>lat.=55.704338, lon.=26.086363, Alt.=146.170044m. Speed=0.072000m/h.</desc>
<speed>0.020000</speed>
</trkpt>
<trkpt lat="55.704338" lon="26.086363">
<ele>146.166138</ele>
<time>2010-07-17T20:13:08Z</time>
<desc>lat.=55.704338, lon.=26.086363, Alt.=146.166138m. Speed=0.036000m/h.</desc>
<speed>0.010000</speed>
</trkpt>
<trkpt lat="55.704338" lon="26.086363">
<ele>146.162231</ele>
<time>2010-07-17T20:13:09Z</time>
<desc>lat.=55.704338, lon.=26.086363, Alt.=146.162231m. Speed=0.036000m/h.</desc>
<speed>0.010000</speed>
</trkpt>
<trkpt lat="55.704338" lon="26.086363">
<ele>146.162231</ele>
<time>2010-07-17T20:13:10Z</time>
<desc>lat.=55.704338, lon.=26.086363, Alt.=146.162231m. Speed=0.036000m/h.</desc>
<speed>0.010000</speed>
</trkpt>
<trkpt lat="55.704338" lon="26.086363">
<ele>146.162231</ele>
<time>2010-07-17T20:13:11Z</time>
<desc>lat.=55.704338, lon.=26.086363, Alt.=146.162231m. Speed=0.036000m/h.</desc>
<speed>0.010000</speed>
</trkpt>
<trkpt lat="55.704338" lon="26.086363">
<ele>146.162231</ele>
<time>2010-07-17T20:13:12Z</time>
<desc>lat.=55.704338, lon.=26.086363, Alt.=146.162231m. Speed=0.036000m/h.</desc>
<speed>0.010000</speed>
</trkpt>
<trkpt lat="55.704338" lon="26.086363">
<ele>146.173950</ele>
<time>2010-07-17T20:13:13Z</time>
<desc>lat.=55.704338, lon.=26.086363, Alt.=146.173950m. Speed=0.072000m/h.</desc>
<speed>0.020000</speed>
</trkpt>
<trkpt lat="55.704338" lon="26.086363">
<ele>146.177856</ele>
<time>2010-07-17T20:13:14Z</time>
<desc>lat.=55.704338, lon.=26.086363, Alt.=146.177856m. Speed=0.072000m/h.</desc>
<speed>0.020000</speed>
</trkpt>
<trkpt lat="55.704338" lon="26.086363">
<ele>146.173950</ele>
<time>2010-07-17T20:13:15Z</time>
<desc>lat.=55.704338, lon.=26.086363, Alt.=146.173950m. Speed=0.000000m/h.</desc>
<speed>0.000000</speed>
</trkpt>
<trkpt lat="55.704338" lon="26.086363">
<ele>146.173950</ele>
<time>2010-07-17T20:13:16Z</time>
<desc>lat.=55.704338, lon.=26.086363, Alt.=146.173950m. Speed=0.036000m/h.</desc>
<speed>0.010000</speed>
</trkpt>
<trkpt lat="55.704338" lon="26.086363">
<ele>146.181763</ele>
<time>2010-07-17T20:13:17Z</time>
<desc>lat.=55.704338, lon.=26.086363, Alt.=146.181763m. Speed=0.072000m/h.</desc>
<speed>0.020000</speed>
</trkpt>
<trkpt lat="55.704338" lon="26.086363">
<ele>146.185669</ele>
<time>2010-07-17T20:13:18Z</time>
<desc>lat.=55.704338, lon.=26.086363, Alt.=146.185669m. Speed=0.144000m/h.</desc>
<speed>0.040000</speed>
</trkpt>
<trkpt lat="55.704338" lon="26.086363">
<ele>146.189575</ele>
<time>2010-07-17T20:13:19Z</time>
<desc>lat.=55.704338, lon.=26.086363, Alt.=146.189575m. Speed=0.036000m/h.</desc>
<speed>0.010000</speed>
</trkpt>
<trkpt lat="55.704338" lon="26.086363">
<ele>146.197388</ele>
<time>2010-07-17T20:13:20Z</time>
<desc>lat.=55.704338, lon.=26.086363, Alt.=146.197388m. Speed=0.072000m/h.</desc>
<speed>0.020000</speed>
</trkpt>
<trkpt lat="55.704338" lon="26.086363">
<ele>146.193481</ele>
<time>2010-07-17T20:13:21Z</time>
<desc>lat.=55.704338, lon.=26.086363, Alt.=146.193481m. Speed=0.036000m/h.</desc>
<speed>0.010000</speed>
</trkpt>
<trkpt lat="55.704338" lon="26.086363">
<ele>146.193481</ele>
<time>2010-07-17T20:13:22Z</time>
<desc>lat.=55.704338, lon.=26.086363, Alt.=146.193481m. Speed=0.000000m/h.</desc>
<speed>0.000000</speed>
</trkpt>
<trkpt lat="55.704338" lon="26.086363">
<ele>146.189575</ele>
<time>2010-07-17T20:13:23Z</time>
<desc>lat.=55.704338, lon.=26.086363, Alt.=146.189575m. Speed=0.072000m/h.</desc>
<speed>0.020000</speed>
</trkpt>
<trkpt lat="55.704338" lon="26.086363">
<ele>146.181763</ele>
<time>2010-07-17T20:13:24Z</time>
<desc>lat.=55.704338, lon.=26.086363, Alt.=146.181763m. Speed=0.072000m/h.</desc>
<speed>0.020000</speed>
</trkpt>
<trkpt lat="55.704338" lon="26.086363">
<ele>146.177856</ele>
<time>2010-07-17T20:13:25Z</time>
<desc>lat.=55.704338, lon.=26.086363, Alt.=146.177856m. Speed=0.036000m/h.</desc>
<speed>0.010000</speed>
</trkpt>
<trkpt lat="55.704338" lon="26.086363">
<ele>146.173950</ele>
<time>2010-07-17T20:13:26Z</time>
<desc>lat.=55.704338, lon.=26.086363, Alt.=146.173950m. Speed=0.036000m/h.</desc>
<speed>0.010000</speed>
</trkpt>
<trkpt lat="55.704338" lon="26.086363">
<ele>146.173950</ele>
<time>2010-07-17T20:13:27Z</time>
<desc>lat.=55.704338, lon.=26.086363, Alt.=146.173950m. Speed=0.000000m/h.</desc>
<speed>0.000000</speed>
</trkpt>
<trkpt lat="55.704338" lon="26.086363">
<ele>146.177856</ele>
<time>2010-07-17T20:13:28Z</time>
<desc>lat.=55.704338, lon.=26.086363, Alt.=146.177856m. Speed=0.036000m/h.</desc>
<speed>0.010000</speed>
</trkpt>
<trkpt lat="55.704338" lon="26.086365">
<ele>146.181763</ele>
<time>2010-07-17T20:13:29Z</time>
<desc>lat.=55.704338, lon.=26.086365, Alt.=146.181763m. Speed=0.036000m/h.</desc>
<speed>0.010000</speed>
</trkpt>
<trkpt lat="55.704338" lon="26.086365">
<ele>146.185669</ele>
<time>2010-07-17T20:13:30Z</time>
<desc>lat.=55.704338, lon.=26.086365, Alt.=146.185669m. Speed=0.072000m/h.</desc>
<speed>0.020000</speed>
</trkpt>
<trkpt lat="55.704338" lon="26.086365">
<ele>146.189575</ele>
<time>2010-07-17T20:13:31Z</time>
<desc>lat.=55.704338, lon.=26.086365, Alt.=146.189575m. Speed=0.072000m/h.</desc>
<speed>0.020000</speed>
</trkpt>
<trkpt lat="55.704338" lon="26.086365">
<ele>146.197388</ele>
<time>2010-07-17T20:13:32Z</time>
<desc>lat.=55.704338, lon.=26.086365, Alt.=146.197388m. Speed=0.072000m/h.</desc>
<speed>0.020000</speed>
</trkpt>
<trkpt lat="55.704338" lon="26.086365">
<ele>146.201294</ele>
<time>2010-07-17T20:13:33Z</time>
<desc>lat.=55.704338, lon.=26.086365, Alt.=146.201294m. Speed=0.072000m/h.</desc>
<speed>0.020000</speed>
</trkpt>
<trkpt lat="55.704338" lon="26.086365">
<ele>146.201294</ele>
<time>2010-07-17T20:13:34Z</time>
<desc>lat.=55.704338, lon.=26.086365, Alt.=146.201294m. Speed=0.036000m/h.</desc>
<speed>0.010000</speed>
</trkpt>
<trkpt lat="55.704338" lon="26.086365">
<ele>146.209106</ele>
<time>2010-07-17T20:13:35Z</time>
<desc>lat.=55.704338, lon.=26.086365, Alt.=146.209106m. Speed=0.072000m/h.</desc>
<speed>0.020000</speed>
</trkpt>
<trkpt lat="55.704338" lon="26.086365">
<ele>146.216919</ele>
<time>2010-07-17T20:13:36Z</time>
<desc>lat.=55.704338, lon.=26.086365, Alt.=146.216919m. Speed=0.108000m/h.</desc>
<speed>0.030000</speed>
</trkpt>
<trkpt lat="55.704338" lon="26.086365">
<ele>146.228638</ele>
<time>2010-07-17T20:13:37Z</time>
<desc>lat.=55.704338, lon.=26.086365, Alt.=146.228638m. Speed=0.072000m/h.</desc>
<speed>0.020000</speed>
</trkpt>
<trkpt lat="55.704338" lon="26.086363">
<ele>146.232544</ele>
<time>2010-07-17T20:13:38Z</time>
<desc>lat.=55.704338, lon.=26.086363, Alt.=146.232544m. Speed=0.108000m/h.</desc>
<speed>0.030000</speed>
</trkpt>
<trkpt lat="55.704338" lon="26.086363">
<ele>146.240356</ele>
<time>2010-07-17T20:13:39Z</time>
<desc>lat.=55.704338, lon.=26.086363, Alt.=146.240356m. Speed=0.144000m/h.</desc>
<speed>0.040000</speed>
</trkpt>
<trkpt lat="55.704338" lon="26.086363">
<ele>146.252075</ele>
<time>2010-07-17T20:13:40Z</time>
<desc>lat.=55.704338, lon.=26.086363, Alt.=146.252075m. Speed=0.000000m/h.</desc>
<speed>0.000000</speed>
</trkpt>
<trkpt lat="55.704338" lon="26.086363">
<ele>146.263794</ele>
<time>2010-07-17T20:13:41Z</time>
<desc>lat.=55.704338, lon.=26.086363, Alt.=146.263794m. Speed=0.072000m/h.</desc>
<speed>0.020000</speed>
</trkpt>
<trkpt lat="55.704338" lon="26.086363">
<ele>146.271606</ele>
<time>2010-07-17T20:13:42Z</time>
<desc>lat.=55.704338, lon.=26.086363, Alt.=146.271606m. Speed=0.036000m/h.</desc>
<speed>0.010000</speed>
</trkpt>
<trkpt lat="55.704338" lon="26.086363">
<ele>146.271606</ele>
<time>2010-07-17T20:13:43Z</time>
<desc>lat.=55.704338, lon.=26.086363, Alt.=146.271606m. Speed=0.072000m/h.</desc>
<speed>0.020000</speed>
</trkpt>
<trkpt lat="55.704338" lon="26.086363">
<ele>146.283325</ele>
<time>2010-07-17T20:13:44Z</time>
<desc>lat.=55.704338, lon.=26.086363, Alt.=146.283325m. Speed=0.036000m/h.</desc>
<speed>0.010000</speed>
</trkpt>
<trkpt lat="55.704338" lon="26.086363">
<ele>146.287231</ele>
<time>2010-07-17T20:13:45Z</time>
<desc>lat.=55.704338, lon.=26.086363, Alt.=146.287231m. Speed=0.072000m/h.</desc>
<speed>0.020000</speed>
</trkpt>
<trkpt lat="55.704338" lon="26.086363">
<ele>146.291138</ele>
<time>2010-07-17T20:13:46Z</time>
<desc>lat.=55.704338, lon.=26.086363, Alt.=146.291138m. Speed=0.036000m/h.</desc>
<speed>0.010000</speed>
</trkpt>
<trkpt lat="55.704338" lon="26.086365">
<ele>146.295044</ele>
<time>2010-07-17T20:13:47Z</time>
<desc>lat.=55.704338, lon.=26.086365, Alt.=146.295044m. Speed=0.000000m/h.</desc>
<speed>0.000000</speed>
</trkpt>
<trkpt lat="55.704338" lon="26.086365">
<ele>146.298950</ele>
<time>2010-07-17T20:13:48Z</time>
<desc>lat.=55.704338, lon.=26.086365, Alt.=146.298950m. Speed=0.036000m/h.</desc>
<speed>0.010000</speed>
</trkpt>
<trkpt lat="55.704338" lon="26.086365">
<ele>146.306763</ele>
<time>2010-07-17T20:13:49Z</time>
<desc>lat.=55.704338, lon.=26.086365, Alt.=146.306763m. Speed=0.036000m/h.</desc>
<speed>0.010000</speed>
</trkpt>
<trkpt lat="55.704338" lon="26.086365">
<ele>146.306763</ele>
<time>2010-07-17T20:13:50Z</time>
<desc>lat.=55.704338, lon.=26.086365, Alt.=146.306763m. Speed=0.036000m/h.</desc>
<speed>0.010000</speed>
</trkpt>
<trkpt lat="55.704338" lon="26.086365">
<ele>146.310669</ele>
<time>2010-07-17T20:13:51Z</time>
<desc>lat.=55.704338, lon.=26.086365, Alt.=146.310669m. Speed=0.036000m/h.</desc>
<speed>0.010000</speed>
</trkpt>
<trkpt lat="55.704338" lon="26.086365">
<ele>146.322388</ele>
<time>2010-07-17T20:13:52Z</time>
<desc>lat.=55.704338, lon.=26.086365, Alt.=146.322388m. Speed=0.000000m/h.</desc>
<speed>0.000000</speed>
</trkpt>
<trkpt lat="55.704338" lon="26.086365">
<ele>146.330200</ele>
<time>2010-07-17T20:13:53Z</time>
<desc>lat.=55.704338, lon.=26.086365, Alt.=146.330200m. Speed=0.000000m/h.</desc>
<speed>0.000000</speed>
</trkpt>
<trkpt lat="55.704338" lon="26.086365">
<ele>146.338013</ele>
<time>2010-07-17T20:13:54Z</time>
<desc>lat.=55.704338, lon.=26.086365, Alt.=146.338013m. Speed=0.000000m/h.</desc>
<speed>0.000000</speed>
</trkpt>
<trkpt lat="55.704338" lon="26.086365">
<ele>146.349731</ele>
<time>2010-07-17T20:13:55Z</time>
<desc>lat.=55.704338, lon.=26.086365, Alt.=146.349731m. Speed=0.072000m/h.</desc>
<speed>0.020000</speed>
</trkpt>
<trkpt lat="55.704338" lon="26.086365">
<ele>146.353638</ele>
<time>2010-07-17T20:13:56Z</time>
<desc>lat.=55.704338, lon.=26.086365, Alt.=146.353638m. Speed=0.036000m/h.</desc>
<speed>0.010000</speed>
</trkpt>
<trkpt lat="55.704338" lon="26.086365">
<ele>146.361450</ele>
<time>2010-07-17T20:13:57Z</time>
<desc>lat.=55.704338, lon.=26.086365, Alt.=146.361450m. Speed=0.036000m/h.</desc>
<speed>0.010000</speed>
</trkpt>
<trkpt lat="55.704338" lon="26.086365">
<ele>146.377075</ele>
<time>2010-07-17T20:13:58Z</time>
<desc>lat.=55.704338, lon.=26.086365, Alt.=146.377075m. Speed=0.036000m/h.</desc>
<speed>0.010000</speed>
</trkpt>
<trkpt lat="55.704338" lon="26.086365">
<ele>146.392700</ele>
<time>2010-07-17T20:13:59Z</time>
<desc>lat.=55.704338, lon.=26.086365, Alt.=146.392700m. Speed=0.072000m/h.</desc>
<speed>0.020000</speed>
</trkpt>
<trkpt lat="55.704338" lon="26.086365">
<ele>146.396606</ele>
<time>2010-07-17T20:14:00Z</time>
<desc>lat.=55.704338, lon.=26.086365, Alt.=146.396606m. Speed=0.072000m/h.</desc>
<speed>0.020000</speed>
</trkpt>
<trkpt lat="55.704338" lon="26.086365">
<ele>146.404419</ele>
<time>2010-07-17T20:14:01Z</time>
<desc>lat.=55.704338, lon.=26.086365, Alt.=146.404419m. Speed=0.000000m/h.</desc>
<speed>0.000000</speed>
</trkpt>
<trkpt lat="55.704338" lon="26.086365">
<ele>146.408325</ele>
<time>2010-07-17T20:14:02Z</time>
<desc>lat.=55.704338, lon.=26.086365, Alt.=146.408325m. Speed=0.036000m/h.</desc>
<speed>0.010000</speed>
</trkpt>
<trkpt lat="55.704338" lon="26.086363">
<ele>146.404419</ele>
<time>2010-07-17T20:14:03Z</time>
<desc>lat.=55.704338, lon.=26.086363, Alt.=146.404419m. Speed=0.072000m/h.</desc>
<speed>0.020000</speed>
</trkpt>
<trkpt lat="55.704338" lon="26.086365">
<ele>146.404419</ele>
<time>2010-07-17T20:14:04Z</time>
<desc>lat.=55.704338, lon.=26.086365, Alt.=146.404419m. Speed=0.072000m/h.</desc>
<speed>0.020000</speed>
</trkpt>
<trkpt lat="55.704338" lon="26.086365">
<ele>146.412231</ele>
<time>2010-07-17T20:14:05Z</time>
<desc>lat.=55.704338, lon.=26.086365, Alt.=146.412231m. Speed=0.000000m/h.</desc>
<speed>0.000000</speed>
</trkpt>
<trkpt lat="55.704338" lon="26.086365">
<ele>146.416138</ele>
<time>2010-07-17T20:14:06Z</time>
<desc>lat.=55.704338, lon.=26.086365, Alt.=146.416138m. Speed=0.000000m/h.</desc>
<speed>0.000000</speed>
</trkpt>
<trkpt lat="55.704338" lon="26.086365">
<ele>146.420044</ele>
<time>2010-07-17T20:14:07Z</time>
<desc>lat.=55.704338, lon.=26.086365, Alt.=146.420044m. Speed=0.072000m/h.</desc>
<speed>0.020000</speed>
</trkpt>
<trkpt lat="55.704338" lon="26.086365">
<ele>146.427856</ele>
<time>2010-07-17T20:14:08Z</time>
<desc>lat.=55.704338, lon.=26.086365, Alt.=146.427856m. Speed=0.072000m/h.</desc>
<speed>0.020000</speed>
</trkpt>
<trkpt lat="55.704338" lon="26.086365">
<ele>146.431763</ele>
<time>2010-07-17T20:14:09Z</time>
<desc>lat.=55.704338, lon.=26.086365, Alt.=146.431763m. Speed=0.036000m/h.</desc>
<speed>0.010000</speed>
</trkpt>
<trkpt lat="55.704338" lon="26.086365">
<ele>146.439575</ele>
<time>2010-07-17T20:14:10Z</time>
<desc>lat.=55.704338, lon.=26.086365, Alt.=146.439575m. Speed=0.036000m/h.</desc>
<speed>0.010000</speed>
</trkpt>
<trkpt lat="55.704338" lon="26.086363">
<ele>146.447388</ele>
<time>2010-07-17T20:14:11Z</time>
<desc>lat.=55.704338, lon.=26.086363, Alt.=146.447388m. Speed=0.036000m/h.</desc>
<speed>0.010000</speed>
</trkpt>
<trkpt lat="55.704338" lon="26.086363">
<ele>146.451294</ele>
<time>2010-07-17T20:14:12Z</time>
<desc>lat.=55.704338, lon.=26.086363, Alt.=146.451294m. Speed=0.036000m/h.</desc>
<speed>0.010000</speed>
</trkpt>
<trkpt lat="55.704338" lon="26.086363">
<ele>146.455200</ele>
<time>2010-07-17T20:14:13Z</time>
<desc>lat.=55.704338, lon.=26.086363, Alt.=146.455200m. Speed=0.036000m/h.</desc>
<speed>0.010000</speed>
</trkpt>
<trkpt lat="55.704338" lon="26.086363">
<ele>146.455200</ele>
<time>2010-07-17T20:14:14Z</time>
<desc>lat.=55.704338, lon.=26.086363, Alt.=146.455200m. Speed=0.000000m/h.</desc>
<speed>0.000000</speed>
</trkpt>
<trkpt lat="55.704338" lon="26.086363">
<ele>146.451294</ele>
<time>2010-07-17T20:14:15Z</time>
<desc>lat.=55.704338, lon.=26.086363, Alt.=146.451294m. Speed=0.108000m/h.</desc>
<speed>0.030000</speed>
</trkpt>
<trkpt lat="55.704338" lon="26.086363">
<ele>146.455200</ele>
<time>2010-07-17T20:14:16Z</time>
<desc>lat.=55.704338, lon.=26.086363, Alt.=146.455200m. Speed=0.072000m/h.</desc>
<speed>0.020000</speed>
</trkpt>
<trkpt lat="55.704338" lon="26.086363">
<ele>146.455200</ele>
<time>2010-07-17T20:14:17Z</time>
<desc>lat.=55.704338, lon.=26.086363, Alt.=146.455200m. Speed=0.072000m/h.</desc>
<speed>0.020000</speed>
</trkpt>
<trkpt lat="55.704338" lon="26.086363">
<ele>146.455200</ele>
<time>2010-07-17T20:14:18Z</time>
<desc>lat.=55.704338, lon.=26.086363, Alt.=146.455200m. Speed=0.000000m/h.</desc>
<speed>0.000000</speed>
</trkpt>
<trkpt lat="55.704338" lon="26.086363">
<ele>146.455200</ele>
<time>2010-07-17T20:14:19Z</time>
<desc>lat.=55.704338, lon.=26.086363, Alt.=146.455200m. Speed=0.036000m/h.</desc>
<speed>0.010000</speed>
</trkpt>
<trkpt lat="55.704338" lon="26.086363">
<ele>146.455200</ele>
<time>2010-07-17T20:14:20Z</time>
<desc>lat.=55.704338, lon.=26.086363, Alt.=146.455200m. Speed=0.036000m/h.</desc>
<speed>0.010000</speed>
</trkpt>
<trkpt lat="55.704338" lon="26.086363">
<ele>146.459106</ele>
<time>2010-07-17T20:14:21Z</time>
<desc>lat.=55.704338, lon.=26.086363, Alt.=146.459106m. Speed=0.072000m/h.</desc>
<speed>0.020000</speed>
</trkpt>
<trkpt lat="55.704338" lon="26.086363">
<ele>146.459106</ele>
<time>2010-07-17T20:14:22Z</time>
<desc>lat.=55.704338, lon.=26.086363, Alt.=146.459106m. Speed=0.000000m/h.</desc>
<speed>0.000000</speed>
</trkpt>
<trkpt lat="55.704338" lon="26.086363">
<ele>146.466919</ele>
<time>2010-07-17T20:14:23Z</time>
<desc>lat.=55.704338, lon.=26.086363, Alt.=146.466919m. Speed=0.000000m/h.</desc>
<speed>0.000000</speed>
</trkpt>
<trkpt lat="55.704338" lon="26.086363">
<ele>146.463013</ele>
<time>2010-07-17T20:14:24Z</time>
<desc>lat.=55.704338, lon.=26.086363, Alt.=146.463013m. Speed=0.036000m/h.</desc>
<speed>0.010000</speed>
</trkpt>
<trkpt lat="55.704338" lon="26.086363">
<ele>146.463013</ele>
<time>2010-07-17T20:14:25Z</time>
<desc>lat.=55.704338, lon.=26.086363, Alt.=146.463013m. Speed=0.072000m/h.</desc>
<speed>0.020000</speed>
</trkpt>
<trkpt lat="55.704338" lon="26.086363">
<ele>146.466919</ele>
<time>2010-07-17T20:14:26Z</time>
<desc>lat.=55.704338, lon.=26.086363, Alt.=146.466919m. Speed=0.000000m/h.</desc>
<speed>0.000000</speed>
</trkpt>
<trkpt lat="55.704338" lon="26.086363">
<ele>146.466919</ele>
<time>2010-07-17T20:14:27Z</time>
<desc>lat.=55.704338, lon.=26.086363, Alt.=146.466919m. Speed=0.072000m/h.</desc>
<speed>0.020000</speed>
</trkpt>
<trkpt lat="55.704338" lon="26.086363">
<ele>146.470825</ele>
<time>2010-07-17T20:14:28Z</time>
<desc>lat.=55.704338, lon.=26.086363, Alt.=146.470825m. Speed=0.036000m/h.</desc>
<speed>0.010000</speed>
</trkpt>
<trkpt lat="55.704338" lon="26.086363">
<ele>146.470825</ele>
<time>2010-07-17T20:14:29Z</time>
<desc>lat.=55.704338, lon.=26.086363, Alt.=146.470825m. Speed=0.072000m/h.</desc>
<speed>0.020000</speed>
</trkpt>
<trkpt lat="55.704338" lon="26.086363">
<ele>146.466919</ele>
<time>2010-07-17T20:14:30Z</time>
<desc>lat.=55.704338, lon.=26.086363, Alt.=146.466919m. Speed=0.036000m/h.</desc>
<speed>0.010000</speed>
</trkpt>
<trkpt lat="55.704338" lon="26.086363">
<ele>146.466919</ele>
<time>2010-07-17T20:14:31Z</time>
<desc>lat.=55.704338, lon.=26.086363, Alt.=146.466919m. Speed=0.072000m/h.</desc>
<speed>0.020000</speed>
</trkpt>
<trkpt lat="55.704338" lon="26.086363">
<ele>146.474731</ele>
<time>2010-07-17T20:14:32Z</time>
<desc>lat.=55.704338, lon.=26.086363, Alt.=146.474731m. Speed=0.000000m/h.</desc>
<speed>0.000000</speed>
</trkpt>
<trkpt lat="55.704338" lon="26.086363">
<ele>146.478638</ele>
<time>2010-07-17T20:14:33Z</time>
<desc>lat.=55.704338, lon.=26.086363, Alt.=146.478638m. Speed=0.072000m/h.</desc>
<speed>0.020000</speed>
</trkpt>
<trkpt lat="55.704338" lon="26.086361">
<ele>146.478638</ele>
<time>2010-07-17T20:14:34Z</time>
<desc>lat.=55.704338, lon.=26.086361, Alt.=146.478638m. Speed=0.144000m/h.</desc>
<speed>0.040000</speed>
</trkpt>
<trkpt lat="55.704338" lon="26.086361">
<ele>146.482544</ele>
<time>2010-07-17T20:14:35Z</time>
<desc>lat.=55.704338, lon.=26.086361, Alt.=146.482544m. Speed=0.072000m/h.</desc>
<speed>0.020000</speed>
</trkpt>
<trkpt lat="55.704338" lon="26.086361">
<ele>146.486450</ele>
<time>2010-07-17T20:14:36Z</time>
<desc>lat.=55.704338, lon.=26.086361, Alt.=146.486450m. Speed=0.036000m/h.</desc>
<speed>0.010000</speed>
</trkpt>
<trkpt lat="55.704338" lon="26.086361">
<ele>146.486450</ele>
<time>2010-07-17T20:14:37Z</time>
<desc>lat.=55.704338, lon.=26.086361, Alt.=146.486450m. Speed=0.000000m/h.</desc>
<speed>0.000000</speed>
</trkpt>
<trkpt lat="55.704338" lon="26.086361">
<ele>146.486450</ele>
<time>2010-07-17T20:14:38Z</time>
<desc>lat.=55.704338, lon.=26.086361, Alt.=146.486450m. Speed=0.072000m/h.</desc>
<speed>0.020000</speed>
</trkpt>
<trkpt lat="55.704338" lon="26.086361">
<ele>146.482544</ele>
<time>2010-07-17T20:14:39Z</time>
<desc>lat.=55.704338, lon.=26.086361, Alt.=146.482544m. Speed=0.000000m/h.</desc>
<speed>0.000000</speed>
</trkpt>
<trkpt lat="55.704338" lon="26.086361">
<ele>146.486450</ele>
<time>2010-07-17T20:14:40Z</time>
<desc>lat.=55.704338, lon.=26.086361, Alt.=146.486450m. Speed=0.036000m/h.</desc>
<speed>0.010000</speed>
</trkpt>
<trkpt lat="55.704338" lon="26.086361">
<ele>146.486450</ele>
<time>2010-07-17T20:14:41Z</time>
<desc>lat.=55.704338, lon.=26.086361, Alt.=146.486450m. Speed=0.036000m/h.</desc>
<speed>0.010000</speed>
</trkpt>
<trkpt lat="55.704338" lon="26.086361">
<ele>146.490356</ele>
<time>2010-07-17T20:14:42Z</time>
<desc>lat.=55.704338, lon.=26.086361, Alt.=146.490356m. Speed=0.036000m/h.</desc>
<speed>0.010000</speed>
</trkpt>
<trkpt lat="55.704338" lon="26.086361">
<ele>146.482544</ele>
<time>2010-07-17T20:14:43Z</time>
<desc>lat.=55.704338, lon.=26.086361, Alt.=146.482544m. Speed=0.036000m/h.</desc>
<speed>0.010000</speed>
</trkpt>
<trkpt lat="55.704338" lon="26.086361">
<ele>146.482544</ele>
<time>2010-07-17T20:14:44Z</time>
<desc>lat.=55.704338, lon.=26.086361, Alt.=146.482544m. Speed=0.072000m/h.</desc>
<speed>0.020000</speed>
</trkpt>
<trkpt lat="55.704338" lon="26.086361">
<ele>146.486450</ele>
<time>2010-07-17T20:14:45Z</time>
<desc>lat.=55.704338, lon.=26.086361, Alt.=146.486450m. Speed=0.072000m/h.</desc>
<speed>0.020000</speed>
</trkpt>
<trkpt lat="55.704338" lon="26.086361">
<ele>146.490356</ele>
<time>2010-07-17T20:14:46Z</time>
<desc>lat.=55.704338, lon.=26.086361, Alt.=146.490356m. Speed=0.072000m/h.</desc>
<speed>0.020000</speed>
</trkpt>
<trkpt lat="55.704338" lon="26.086361">
<ele>146.494263</ele>
<time>2010-07-17T20:14:47Z</time>
<desc>lat.=55.704338, lon.=26.086361, Alt.=146.494263m. Speed=0.036000m/h.</desc>
<speed>0.010000</speed>
</trkpt>
<trkpt lat="55.704338" lon="26.086361">
<ele>146.498169</ele>
<time>2010-07-17T20:14:48Z</time>
<desc>lat.=55.704338, lon.=26.086361, Alt.=146.498169m. Speed=0.072000m/h.</desc>
<speed>0.020000</speed>
</trkpt>
<trkpt lat="55.704338" lon="26.086361">
<ele>146.505981</ele>
<time>2010-07-17T20:14:49Z</time>
<desc>lat.=55.704338, lon.=26.086361, Alt.=146.505981m. Speed=0.108000m/h.</desc>
<speed>0.030000</speed>
</trkpt>
<trkpt lat="55.704338" lon="26.086361">
<ele>146.517700</ele>
<time>2010-07-17T20:14:50Z</time>
<desc>lat.=55.704338, lon.=26.086361, Alt.=146.517700m. Speed=0.036000m/h.</desc>
<speed>0.010000</speed>
</trkpt>
<trkpt lat="55.704338" lon="26.086361">
<ele>146.525513</ele>
<time>2010-07-17T20:14:51Z</time>
<desc>lat.=55.704338, lon.=26.086361, Alt.=146.525513m. Speed=0.000000m/h.</desc>
<speed>0.000000</speed>
</trkpt>
<trkpt lat="55.704338" lon="26.086361">
<ele>146.525513</ele>
<time>2010-07-17T20:14:52Z</time>
<desc>lat.=55.704338, lon.=26.086361, Alt.=146.525513m. Speed=0.072000m/h.</desc>
<speed>0.020000</speed>
</trkpt>
<trkpt lat="55.704338" lon="26.086361">
<ele>146.533325</ele>
<time>2010-07-17T20:14:53Z</time>
<desc>lat.=55.704338, lon.=26.086361, Alt.=146.533325m. Speed=0.036000m/h.</desc>
<speed>0.010000</speed>
</trkpt>
<trkpt lat="55.704338" lon="26.086361">
<ele>146.533325</ele>
<time>2010-07-17T20:14:54Z</time>
<desc>lat.=55.704338, lon.=26.086361, Alt.=146.533325m. Speed=0.108000m/h.</desc>
<speed>0.030000</speed>
</trkpt>
<trkpt lat="55.704338" lon="26.086361">
<ele>146.545044</ele>
<time>2010-07-17T20:14:55Z</time>
<desc>lat.=55.704338, lon.=26.086361, Alt.=146.545044m. Speed=0.036000m/h.</desc>
<speed>0.010000</speed>
</trkpt>
<trkpt lat="55.704338" lon="26.086361">
<ele>146.545044</ele>
<time>2010-07-17T20:14:56Z</time>
<desc>lat.=55.704338, lon.=26.086361, Alt.=146.545044m. Speed=0.036000m/h.</desc>
<speed>0.010000</speed>
</trkpt>
<trkpt lat="55.704338" lon="26.086361">
<ele>146.548950</ele>
<time>2010-07-17T20:14:57Z</time>
<desc>lat.=55.704338, lon.=26.086361, Alt.=146.548950m. Speed=0.072000m/h.</desc>
<speed>0.020000</speed>
</trkpt>
<trkpt lat="55.704338" lon="26.086361">
<ele>146.552856</ele>
<time>2010-07-17T20:14:58Z</time>
<desc>lat.=55.704338, lon.=26.086361, Alt.=146.552856m. Speed=0.036000m/h.</desc>
<speed>0.010000</speed>
</trkpt>
<trkpt lat="55.704338" lon="26.086361">
<ele>146.556763</ele>
<time>2010-07-17T20:14:59Z</time>
<desc>lat.=55.704338, lon.=26.086361, Alt.=146.556763m. Speed=0.072000m/h.</desc>
<speed>0.020000</speed>
</trkpt>
<trkpt lat="55.704338" lon="26.086361">
<ele>146.552856</ele>
<time>2010-07-17T20:15:00Z</time>
<desc>lat.=55.704338, lon.=26.086361, Alt.=146.552856m. Speed=0.000000m/h.</desc>
<speed>0.000000</speed>
</trkpt>
<trkpt lat="55.704338" lon="26.086361">
<ele>146.548950</ele>
<time>2010-07-17T20:15:01Z</time>
<desc>lat.=55.704338, lon.=26.086361, Alt.=146.548950m. Speed=0.000000m/h.</desc>
<speed>0.000000</speed>
</trkpt>
<trkpt lat="55.704338" lon="26.086361">
<ele>146.545044</ele>
<time>2010-07-17T20:15:02Z</time>
<desc>lat.=55.704338, lon.=26.086361, Alt.=146.545044m. Speed=0.036000m/h.</desc>
<speed>0.010000</speed>
</trkpt>
<trkpt lat="55.704338" lon="26.086361">
<ele>146.537231</ele>
<time>2010-07-17T20:15:03Z</time>
<desc>lat.=55.704338, lon.=26.086361, Alt.=146.537231m. Speed=0.072000m/h.</desc>
<speed>0.020000</speed>
</trkpt>
<trkpt lat="55.704338" lon="26.086361">
<ele>146.533325</ele>
<time>2010-07-17T20:15:04Z</time>
<desc>lat.=55.704338, lon.=26.086361, Alt.=146.533325m. Speed=0.036000m/h.</desc>
<speed>0.010000</speed>
</trkpt>
<trkpt lat="55.704338" lon="26.086361">
<ele>146.537231</ele>
<time>2010-07-17T20:15:05Z</time>
<desc>lat.=55.704338, lon.=26.086361, Alt.=146.537231m. Speed=0.072000m/h.</desc>
<speed>0.020000</speed>
</trkpt>
<trkpt lat="55.704338" lon="26.086361">
<ele>146.541138</ele>
<time>2010-07-17T20:15:06Z</time>
<desc>lat.=55.704338, lon.=26.086361, Alt.=146.541138m. Speed=0.072000m/h.</desc>
<speed>0.020000</speed>
</trkpt>
<trkpt lat="55.704338" lon="26.086361">
<ele>146.545044</ele>
<time>2010-07-17T20:15:07Z</time>
<desc>lat.=55.704338, lon.=26.086361, Alt.=146.545044m. Speed=0.108000m/h.</desc>
<speed>0.030000</speed>
</trkpt>
<trkpt lat="55.704338" lon="26.086361">
<ele>146.545044</ele>
<time>2010-07-17T20:15:08Z</time>
<desc>lat.=55.704338, lon.=26.086361, Alt.=146.545044m. Speed=0.036000m/h.</desc>
<speed>0.010000</speed>
</trkpt>
<trkpt lat="55.704338" lon="26.086361">
<ele>146.537231</ele>
<time>2010-07-17T20:15:09Z</time>
<desc>lat.=55.704338, lon.=26.086361, Alt.=146.537231m. Speed=0.000000m/h.</desc>
<speed>0.000000</speed>
</trkpt>
<trkpt lat="55.704338" lon="26.086361">
<ele>146.537231</ele>
<time>2010-07-17T20:15:10Z</time>
<desc>lat.=55.704338, lon.=26.086361, Alt.=146.537231m. Speed=0.000000m/h.</desc>
<speed>0.000000</speed>
</trkpt>
<trkpt lat="55.704338" lon="26.086361">
<ele>146.541138</ele>
<time>2010-07-17T20:15:11Z</time>
<desc>lat.=55.704338, lon.=26.086361, Alt.=146.541138m. Speed=0.036000m/h.</desc>
<speed>0.010000</speed>
</trkpt>
<trkpt lat="55.704338" lon="26.086361">
<ele>146.537231</ele>
<time>2010-07-17T20:15:12Z</time>
<desc>lat.=55.704338, lon.=26.086361, Alt.=146.537231m. Speed=0.144000m/h.</desc>
<speed>0.040000</speed>
</trkpt>
<trkpt lat="55.704338" lon="26.086361">
<ele>146.529419</ele>
<time>2010-07-17T20:15:13Z</time>
<desc>lat.=55.704338, lon.=26.086361, Alt.=146.529419m. Speed=0.036000m/h.</desc>
<speed>0.010000</speed>
</trkpt>
<trkpt lat="55.704338" lon="26.086361">
<ele>146.529419</ele>
<time>2010-07-17T20:15:14Z</time>
<desc>lat.=55.704338, lon.=26.086361, Alt.=146.529419m. Speed=0.072000m/h.</desc>
<speed>0.020000</speed>
</trkpt>
<trkpt lat="55.704338" lon="26.086361">
<ele>146.525513</ele>
<time>2010-07-17T20:15:15Z</time>
<desc>lat.=55.704338, lon.=26.086361, Alt.=146.525513m. Speed=0.036000m/h.</desc>
<speed>0.010000</speed>
</trkpt>
<trkpt lat="55.704338" lon="26.086361">
<ele>146.525513</ele>
<time>2010-07-17T20:15:16Z</time>
<desc>lat.=55.704338, lon.=26.086361, Alt.=146.525513m. Speed=0.072000m/h.</desc>
<speed>0.020000</speed>
</trkpt>
<trkpt lat="55.704338" lon="26.086361">
<ele>146.521606</ele>
<time>2010-07-17T20:15:17Z</time>
<desc>lat.=55.704338, lon.=26.086361, Alt.=146.521606m. Speed=0.036000m/h.</desc>
<speed>0.010000</speed>
</trkpt>
<trkpt lat="55.704338" lon="26.086361">
<ele>146.513794</ele>
<time>2010-07-17T20:15:18Z</time>
<desc>lat.=55.704338, lon.=26.086361, Alt.=146.513794m. Speed=0.036000m/h.</desc>
<speed>0.010000</speed>
</trkpt>
<trkpt lat="55.704338" lon="26.086361">
<ele>146.509888</ele>
<time>2010-07-17T20:15:19Z</time>
<desc>lat.=55.704338, lon.=26.086361, Alt.=146.509888m. Speed=0.036000m/h.</desc>
<speed>0.010000</speed>
</trkpt>
<trkpt lat="55.704338" lon="26.086361">
<ele>146.502075</ele>
<time>2010-07-17T20:15:20Z</time>
<desc>lat.=55.704338, lon.=26.086361, Alt.=146.502075m. Speed=0.036000m/h.</desc>
<speed>0.010000</speed>
</trkpt>
<trkpt lat="55.704338" lon="26.086361">
<ele>146.509888</ele>
<time>2010-07-17T20:15:21Z</time>
<desc>lat.=55.704338, lon.=26.086361, Alt.=146.509888m. Speed=0.000000m/h.</desc>
<speed>0.000000</speed>
</trkpt>
<trkpt lat="55.704338" lon="26.086361">
<ele>146.513794</ele>
<time>2010-07-17T20:15:22Z</time>
<desc>lat.=55.704338, lon.=26.086361, Alt.=146.513794m. Speed=0.072000m/h.</desc>
<speed>0.020000</speed>
</trkpt>
<trkpt lat="55.704338" lon="26.086361">
<ele>146.517700</ele>
<time>2010-07-17T20:15:23Z</time>
<desc>lat.=55.704338, lon.=26.086361, Alt.=146.517700m. Speed=0.108000m/h.</desc>
<speed>0.030000</speed>
</trkpt>
<trkpt lat="55.704338" lon="26.086361">
<ele>146.521606</ele>
<time>2010-07-17T20:15:24Z</time>
<desc>lat.=55.704338, lon.=26.086361, Alt.=146.521606m. Speed=0.036000m/h.</desc>
<speed>0.010000</speed>
</trkpt>
<trkpt lat="55.704338" lon="26.086361">
<ele>146.525513</ele>
<time>2010-07-17T20:15:25Z</time>
<desc>lat.=55.704338, lon.=26.086361, Alt.=146.525513m. Speed=0.036000m/h.</desc>
<speed>0.010000</speed>
</trkpt>
<trkpt lat="55.704338" lon="26.086361">
<ele>146.529419</ele>
<time>2010-07-17T20:15:26Z</time>
<desc>lat.=55.704338, lon.=26.086361, Alt.=146.529419m. Speed=0.072000m/h.</desc>
<speed>0.020000</speed>
</trkpt>
<trkpt lat="55.704338" lon="26.086361">
<ele>146.537231</ele>
<time>2010-07-17T20:15:27Z</time>
<desc>lat.=55.704338, lon.=26.086361, Alt.=146.537231m. Speed=0.144000m/h.</desc>
<speed>0.040000</speed>
</trkpt>
<trkpt lat="55.704338" lon="26.086361">
<ele>146.545044</ele>
<time>2010-07-17T20:15:28Z</time>
<desc>lat.=55.704338, lon.=26.086361, Alt.=146.545044m. Speed=0.036000m/h.</desc>
<speed>0.010000</speed>
</trkpt>
<trkpt lat="55.704338" lon="26.086361">
<ele>146.548950</ele>
<time>2010-07-17T20:15:29Z</time>
<desc>lat.=55.704338, lon.=26.086361, Alt.=146.548950m. Speed=0.036000m/h.</desc>
<speed>0.010000</speed>
</trkpt>
<trkpt lat="55.704338" lon="26.086361">
<ele>146.548950</ele>
<time>2010-07-17T20:15:30Z</time>
<desc>lat.=55.704338, lon.=26.086361, Alt.=146.548950m. Speed=0.036000m/h.</desc>
<speed>0.010000</speed>
</trkpt>
<trkpt lat="55.704338" lon="26.086361">
<ele>146.556763</ele>
<time>2010-07-17T20:15:31Z</time>
<desc>lat.=55.704338, lon.=26.086361, Alt.=146.556763m. Speed=0.072000m/h.</desc>
<speed>0.020000</speed>
</trkpt>
<trkpt lat="55.704338" lon="26.086361">
<ele>146.560669</ele>
<time>2010-07-17T20:15:32Z</time>
<desc>lat.=55.704338, lon.=26.086361, Alt.=146.560669m. Speed=0.036000m/h.</desc>
<speed>0.010000</speed>
</trkpt>
<trkpt lat="55.704338" lon="26.086361">
<ele>146.560669</ele>
<time>2010-07-17T20:15:33Z</time>
<desc>lat.=55.704338, lon.=26.086361, Alt.=146.560669m. Speed=0.036000m/h.</desc>
<speed>0.010000</speed>
</trkpt>
<trkpt lat="55.704338" lon="26.086361">
<ele>146.564575</ele>
<time>2010-07-17T20:15:34Z</time>
<desc>lat.=55.704338, lon.=26.086361, Alt.=146.564575m. Speed=0.036000m/h.</desc>
<speed>0.010000</speed>
</trkpt>
<trkpt lat="55.704338" lon="26.086359">
<ele>146.564575</ele>
<time>2010-07-17T20:15:35Z</time>
<desc>lat.=55.704338, lon.=26.086359, Alt.=146.564575m. Speed=0.144000m/h.</desc>
<speed>0.040000</speed>
</trkpt>
<trkpt lat="55.704338" lon="26.086359">
<ele>146.580200</ele>
<time>2010-07-17T20:15:36Z</time>
<desc>lat.=55.704338, lon.=26.086359, Alt.=146.580200m. Speed=0.144000m/h.</desc>
<speed>0.040000</speed>
</trkpt>
<trkpt lat="55.704338" lon="26.086359">
<ele>146.591919</ele>
<time>2010-07-17T20:15:37Z</time>
<desc>lat.=55.704338, lon.=26.086359, Alt.=146.591919m. Speed=0.108000m/h.</desc>
<speed>0.030000</speed>
</trkpt>
<trkpt lat="55.704338" lon="26.086359">
<ele>146.599731</ele>
<time>2010-07-17T20:15:38Z</time>
<desc>lat.=55.704338, lon.=26.086359, Alt.=146.599731m. Speed=0.072000m/h.</desc>
<speed>0.020000</speed>
</trkpt>
<trkpt lat="55.704338" lon="26.086359">
<ele>146.611450</ele>
<time>2010-07-17T20:15:39Z</time>
<desc>lat.=55.704338, lon.=26.086359, Alt.=146.611450m. Speed=0.144000m/h.</desc>
<speed>0.040000</speed>
</trkpt>
<trkpt lat="55.704338" lon="26.086359">
<ele>146.627075</ele>
<time>2010-07-17T20:15:40Z</time>
<desc>lat.=55.704338, lon.=26.086359, Alt.=146.627075m. Speed=0.108000m/h.</desc>
<speed>0.030000</speed>
</trkpt>
<trkpt lat="55.704338" lon="26.086359">
<ele>146.638794</ele>
<time>2010-07-17T20:15:41Z</time>
<desc>lat.=55.704338, lon.=26.086359, Alt.=146.638794m. Speed=0.072000m/h.</desc>
<speed>0.020000</speed>
</trkpt>
<trkpt lat="55.704338" lon="26.086359">
<ele>146.654419</ele>
<time>2010-07-17T20:15:42Z</time>
<desc>lat.=55.704338, lon.=26.086359, Alt.=146.654419m. Speed=0.108000m/h.</desc>
<speed>0.030000</speed>
</trkpt>
<trkpt lat="55.704338" lon="26.086357">
<ele>146.666138</ele>
<time>2010-07-17T20:15:43Z</time>
<desc>lat.=55.704338, lon.=26.086357, Alt.=146.666138m. Speed=0.108000m/h.</desc>
<speed>0.030000</speed>
</trkpt>
<trkpt lat="55.704338" lon="26.086357">
<ele>146.670044</ele>
<time>2010-07-17T20:15:44Z</time>
<desc>lat.=55.704338, lon.=26.086357, Alt.=146.670044m. Speed=0.036000m/h.</desc>
<speed>0.010000</speed>
</trkpt>
<trkpt lat="55.704338" lon="26.086357">
<ele>146.681763</ele>
<time>2010-07-17T20:15:45Z</time>
<desc>lat.=55.704338, lon.=26.086357, Alt.=146.681763m. Speed=0.072000m/h.</desc>
<speed>0.020000</speed>
</trkpt>
<trkpt lat="55.704338" lon="26.086357">
<ele>146.693481</ele>
<time>2010-07-17T20:15:46Z</time>
<desc>lat.=55.704338, lon.=26.086357, Alt.=146.693481m. Speed=0.072000m/h.</desc>
<speed>0.020000</speed>
</trkpt>
<trkpt lat="55.704338" lon="26.086357">
<ele>146.713013</ele>
<time>2010-07-17T20:15:47Z</time>
<desc>lat.=55.704338, lon.=26.086357, Alt.=146.713013m. Speed=0.072000m/h.</desc>
<speed>0.020000</speed>
</trkpt>
<trkpt lat="55.704338" lon="26.086357">
<ele>146.732544</ele>
<time>2010-07-17T20:15:48Z</time>
<desc>lat.=55.704338, lon.=26.086357, Alt.=146.732544m. Speed=0.036000m/h.</desc>
<speed>0.010000</speed>
</trkpt>
<trkpt lat="55.704338" lon="26.086357">
<ele>146.744263</ele>
<time>2010-07-17T20:15:49Z</time>
<desc>lat.=55.704338, lon.=26.086357, Alt.=146.744263m. Speed=0.036000m/h.</desc>
<speed>0.010000</speed>
</trkpt>
<trkpt lat="55.704338" lon="26.086357">
<ele>146.763794</ele>
<time>2010-07-17T20:15:50Z</time>
<desc>lat.=55.704338, lon.=26.086357, Alt.=146.763794m. Speed=0.000000m/h.</desc>
<speed>0.000000</speed>
</trkpt>
<trkpt lat="55.704338" lon="26.086357">
<ele>146.779419</ele>
<time>2010-07-17T20:15:51Z</time>
<desc>lat.=55.704338, lon.=26.086357, Alt.=146.779419m. Speed=0.000000m/h.</desc>
<speed>0.000000</speed>
</trkpt>
<trkpt lat="55.704338" lon="26.086357">
<ele>146.798950</ele>
<time>2010-07-17T20:15:52Z</time>
<desc>lat.=55.704338, lon.=26.086357, Alt.=146.798950m. Speed=0.036000m/h.</desc>
<speed>0.010000</speed>
</trkpt>
<trkpt lat="55.704338" lon="26.086357">
<ele>146.814575</ele>
<time>2010-07-17T20:15:53Z</time>
<desc>lat.=55.704338, lon.=26.086357, Alt.=146.814575m. Speed=0.072000m/h.</desc>
<speed>0.020000</speed>
</trkpt>
<trkpt lat="55.704338" lon="26.086357">
<ele>146.826294</ele>
<time>2010-07-17T20:15:54Z</time>
<desc>lat.=55.704338, lon.=26.086357, Alt.=146.826294m. Speed=0.036000m/h.</desc>
<speed>0.010000</speed>
</trkpt>
<trkpt lat="55.704338" lon="26.086357">
<ele>146.841919</ele>
<time>2010-07-17T20:15:55Z</time>
<desc>lat.=55.704338, lon.=26.086357, Alt.=146.841919m. Speed=0.036000m/h.</desc>
<speed>0.010000</speed>
</trkpt>
<trkpt lat="55.704338" lon="26.086357">
<ele>146.853638</ele>
<time>2010-07-17T20:15:56Z</time>
<desc>lat.=55.704338, lon.=26.086357, Alt.=146.853638m. Speed=0.036000m/h.</desc>
<speed>0.010000</speed>
</trkpt>
<trkpt lat="55.704338" lon="26.086357">
<ele>146.861450</ele>
<time>2010-07-17T20:15:57Z</time>
<desc>lat.=55.704338, lon.=26.086357, Alt.=146.861450m. Speed=0.072000m/h.</desc>
<speed>0.020000</speed>
</trkpt>
<trkpt lat="55.704338" lon="26.086357">
<ele>146.869263</ele>
<time>2010-07-17T20:15:58Z</time>
<desc>lat.=55.704338, lon.=26.086357, Alt.=146.869263m. Speed=0.072000m/h.</desc>
<speed>0.020000</speed>
</trkpt>
<trkpt lat="55.704338" lon="26.086357">
<ele>146.877075</ele>
<time>2010-07-17T20:15:59Z</time>
<desc>lat.=55.704338, lon.=26.086357, Alt.=146.877075m. Speed=0.036000m/h.</desc>
<speed>0.010000</speed>
</trkpt>
<trkpt lat="55.704338" lon="26.086357">
<ele>146.888794</ele>
<time>2010-07-17T20:16:00Z</time>
<desc>lat.=55.704338, lon.=26.086357, Alt.=146.888794m. Speed=0.036000m/h.</desc>
<speed>0.010000</speed>
</trkpt>
<trkpt lat="55.704338" lon="26.086357">
<ele>146.900513</ele>
<time>2010-07-17T20:16:01Z</time>
<desc>lat.=55.704338, lon.=26.086357, Alt.=146.900513m. Speed=0.000000m/h.</desc>
<speed>0.000000</speed>
</trkpt>
<trkpt lat="55.704338" lon="26.086357">
<ele>146.916138</ele>
<time>2010-07-17T20:16:02Z</time>
<desc>lat.=55.704338, lon.=26.086357, Alt.=146.916138m. Speed=0.036000m/h.</desc>
<speed>0.010000</speed>
</trkpt>
<trkpt lat="55.704338" lon="26.086357">
<ele>146.931763</ele>
<time>2010-07-17T20:16:03Z</time>
<desc>lat.=55.704338, lon.=26.086357, Alt.=146.931763m. Speed=0.036000m/h.</desc>
<speed>0.010000</speed>
</trkpt>
<trkpt lat="55.704338" lon="26.086357">
<ele>146.943481</ele>
<time>2010-07-17T20:16:04Z</time>
<desc>lat.=55.704338, lon.=26.086357, Alt.=146.943481m. Speed=0.072000m/h.</desc>
<speed>0.020000</speed>
</trkpt>
<trkpt lat="55.704338" lon="26.086357">
<ele>146.951294</ele>
<time>2010-07-17T20:16:05Z</time>
<desc>lat.=55.704338, lon.=26.086357, Alt.=146.951294m. Speed=0.000000m/h.</desc>
<speed>0.000000</speed>
</trkpt>
<trkpt lat="55.704338" lon="26.086357">
<ele>146.966919</ele>
<time>2010-07-17T20:16:06Z</time>
<desc>lat.=55.704338, lon.=26.086357, Alt.=146.966919m. Speed=0.108000m/h.</desc>
<speed>0.030000</speed>
</trkpt>
<trkpt lat="55.704338" lon="26.086357">
<ele>146.970825</ele>
<time>2010-07-17T20:16:07Z</time>
<desc>lat.=55.704338, lon.=26.086357, Alt.=146.970825m. Speed=0.036000m/h.</desc>
<speed>0.010000</speed>
</trkpt>
<trkpt lat="55.704338" lon="26.086357">
<ele>146.982544</ele>
<time>2010-07-17T20:16:08Z</time>
<desc>lat.=55.704338, lon.=26.086357, Alt.=146.982544m. Speed=0.036000m/h.</desc>
<speed>0.010000</speed>
</trkpt>
<trkpt lat="55.704338" lon="26.086357">
<ele>146.990356</ele>
<time>2010-07-17T20:16:09Z</time>
<desc>lat.=55.704338, lon.=26.086357, Alt.=146.990356m. Speed=0.000000m/h.</desc>
<speed>0.000000</speed>
</trkpt>
<trkpt lat="55.704338" lon="26.086357">
<ele>147.002075</ele>
<time>2010-07-17T20:16:10Z</time>
<desc>lat.=55.704338, lon.=26.086357, Alt.=147.002075m. Speed=0.108000m/h.</desc>
<speed>0.030000</speed>
</trkpt>
<trkpt lat="55.704338" lon="26.086357">
<ele>147.009888</ele>
<time>2010-07-17T20:16:11Z</time>
<desc>lat.=55.704338, lon.=26.086357, Alt.=147.009888m. Speed=0.000000m/h.</desc>
<speed>0.000000</speed>
</trkpt>
<trkpt lat="55.704338" lon="26.086357">
<ele>147.009888</ele>
<time>2010-07-17T20:16:12Z</time>
<desc>lat.=55.704338, lon.=26.086357, Alt.=147.009888m. Speed=0.108000m/h.</desc>
<speed>0.030000</speed>
</trkpt>
<trkpt lat="55.704342" lon="26.086357">
<ele>147.017700</ele>
<time>2010-07-17T20:16:13Z</time>
<desc>lat.=55.704342, lon.=26.086357, Alt.=147.017700m. Speed=0.036000m/h.</desc>
<speed>0.010000</speed>
</trkpt>
<trkpt lat="55.704342" lon="26.086357">
<ele>147.017700</ele>
<time>2010-07-17T20:16:14Z</time>
<desc>lat.=55.704342, lon.=26.086357, Alt.=147.017700m. Speed=0.216000m/h.</desc>
<speed>0.060000</speed>
</trkpt>
<trkpt lat="55.704342" lon="26.086357">
<ele>147.017700</ele>
<time>2010-07-17T20:16:15Z</time>
<desc>lat.=55.704342, lon.=26.086357, Alt.=147.017700m. Speed=0.072000m/h.</desc>
<speed>0.020000</speed>
</trkpt>
<trkpt lat="55.704342" lon="26.086357">
<ele>147.013794</ele>
<time>2010-07-17T20:16:16Z</time>
<desc>lat.=55.704342, lon.=26.086357, Alt.=147.013794m. Speed=0.108000m/h.</desc>
<speed>0.030000</speed>
</trkpt>
<trkpt lat="55.704342" lon="26.086357">
<ele>147.009888</ele>
<time>2010-07-17T20:16:17Z</time>
<desc>lat.=55.704342, lon.=26.086357, Alt.=147.009888m. Speed=0.072000m/h.</desc>
<speed>0.020000</speed>
</trkpt>
<trkpt lat="55.704342" lon="26.086357">
<ele>147.009888</ele>
<time>2010-07-17T20:16:18Z</time>
<desc>lat.=55.704342, lon.=26.086357, Alt.=147.009888m. Speed=0.036000m/h.</desc>
<speed>0.010000</speed>
</trkpt>
<trkpt lat="55.704342" lon="26.086355">
<ele>147.009888</ele>
<time>2010-07-17T20:16:19Z</time>
<desc>lat.=55.704342, lon.=26.086355, Alt.=147.009888m. Speed=0.144000m/h.</desc>
<speed>0.040000</speed>
</trkpt>
<trkpt lat="55.704342" lon="26.086355">
<ele>147.009888</ele>
<time>2010-07-17T20:16:20Z</time>
<desc>lat.=55.704342, lon.=26.086355, Alt.=147.009888m. Speed=0.072000m/h.</desc>
<speed>0.020000</speed>
</trkpt>
<trkpt lat="55.704342" lon="26.086355">
<ele>147.009888</ele>
<time>2010-07-17T20:16:21Z</time>
<desc>lat.=55.704342, lon.=26.086355, Alt.=147.009888m. Speed=0.036000m/h.</desc>
<speed>0.010000</speed>
</trkpt>
<trkpt lat="55.704342" lon="26.086355">
<ele>147.013794</ele>
<time>2010-07-17T20:16:22Z</time>
<desc>lat.=55.704342, lon.=26.086355, Alt.=147.013794m. Speed=0.000000m/h.</desc>
<speed>0.000000</speed>
</trkpt>
<trkpt lat="55.704342" lon="26.086355">
<ele>147.013794</ele>
<time>2010-07-17T20:16:23Z</time>
<desc>lat.=55.704342, lon.=26.086355, Alt.=147.013794m. Speed=0.036000m/h.</desc>
<speed>0.010000</speed>
</trkpt>
<trkpt lat="55.704342" lon="26.086355">
<ele>147.009888</ele>
<time>2010-07-17T20:16:24Z</time>
<desc>lat.=55.704342, lon.=26.086355, Alt.=147.009888m. Speed=0.000000m/h.</desc>
<speed>0.000000</speed>
</trkpt>
<trkpt lat="55.704342" lon="26.086355">
<ele>147.005981</ele>
<time>2010-07-17T20:16:25Z</time>
<desc>lat.=55.704342, lon.=26.086355, Alt.=147.005981m. Speed=0.072000m/h.</desc>
<speed>0.020000</speed>
</trkpt>
<trkpt lat="55.704342" lon="26.086355">
<ele>147.005981</ele>
<time>2010-07-17T20:16:26Z</time>
<desc>lat.=55.704342, lon.=26.086355, Alt.=147.005981m. Speed=0.036000m/h.</desc>
<speed>0.010000</speed>
</trkpt>
<trkpt lat="55.704342" lon="26.086355">
<ele>147.009888</ele>
<time>2010-07-17T20:16:27Z</time>
<desc>lat.=55.704342, lon.=26.086355, Alt.=147.009888m. Speed=0.036000m/h.</desc>
<speed>0.010000</speed>
</trkpt>
<trkpt lat="55.704342" lon="26.086355">
<ele>147.013794</ele>
<time>2010-07-17T20:16:28Z</time>
<desc>lat.=55.704342, lon.=26.086355, Alt.=147.013794m. Speed=0.000000m/h.</desc>
<speed>0.000000</speed>
</trkpt>
<trkpt lat="55.704342" lon="26.086355">
<ele>147.021606</ele>
<time>2010-07-17T20:16:29Z</time>
<desc>lat.=55.704342, lon.=26.086355, Alt.=147.021606m. Speed=0.072000m/h.</desc>
<speed>0.020000</speed>
</trkpt>
<trkpt lat="55.704342" lon="26.086355">
<ele>147.029419</ele>
<time>2010-07-17T20:16:30Z</time>
<desc>lat.=55.704342, lon.=26.086355, Alt.=147.029419m. Speed=0.036000m/h.</desc>
<speed>0.010000</speed>
</trkpt>
<trkpt lat="55.704342" lon="26.086355">
<ele>147.033325</ele>
<time>2010-07-17T20:16:31Z</time>
<desc>lat.=55.704342, lon.=26.086355, Alt.=147.033325m. Speed=0.036000m/h.</desc>
<speed>0.010000</speed>
</trkpt>
<trkpt lat="55.704342" lon="26.086355">
<ele>147.037231</ele>
<time>2010-07-17T20:16:32Z</time>
<desc>lat.=55.704342, lon.=26.086355, Alt.=147.037231m. Speed=0.036000m/h.</desc>
<speed>0.010000</speed>
</trkpt>
<trkpt lat="55.704342" lon="26.086355">
<ele>147.041138</ele>
<time>2010-07-17T20:16:33Z</time>
<desc>lat.=55.704342, lon.=26.086355, Alt.=147.041138m. Speed=0.036000m/h.</desc>
<speed>0.010000</speed>
</trkpt>
<trkpt lat="55.704338" lon="26.086355">
<ele>147.045044</ele>
<time>2010-07-17T20:16:34Z</time>
<desc>lat.=55.704338, lon.=26.086355, Alt.=147.045044m. Speed=0.000000m/h.</desc>
<speed>0.000000</speed>
</trkpt>
<trkpt lat="55.704338" lon="26.086355">
<ele>147.052856</ele>
<time>2010-07-17T20:16:35Z</time>
<desc>lat.=55.704338, lon.=26.086355, Alt.=147.052856m. Speed=0.036000m/h.</desc>
<speed>0.010000</speed>
</trkpt>
<trkpt lat="55.704338" lon="26.086355">
<ele>147.056763</ele>
<time>2010-07-17T20:16:36Z</time>
<desc>lat.=55.704338, lon.=26.086355, Alt.=147.056763m. Speed=0.000000m/h.</desc>
<speed>0.000000</speed>
</trkpt>
<trkpt lat="55.704338" lon="26.086355">
<ele>147.056763</ele>
<time>2010-07-17T20:16:37Z</time>
<desc>lat.=55.704338, lon.=26.086355, Alt.=147.056763m. Speed=0.036000m/h.</desc>
<speed>0.010000</speed>
</trkpt>
<trkpt lat="55.704342" lon="26.086355">
<ele>147.064575</ele>
<time>2010-07-17T20:16:38Z</time>
<desc>lat.=55.704342, lon.=26.086355, Alt.=147.064575m. Speed=0.000000m/h.</desc>
<speed>0.000000</speed>
</trkpt>
<trkpt lat="55.704342" lon="26.086355">
<ele>147.072388</ele>
<time>2010-07-17T20:16:39Z</time>
<desc>lat.=55.704342, lon.=26.086355, Alt.=147.072388m. Speed=0.072000m/h.</desc>
<speed>0.020000</speed>
</trkpt>
<trkpt lat="55.704342" lon="26.086355">
<ele>147.088013</ele>
<time>2010-07-17T20:16:40Z</time>
<desc>lat.=55.704342, lon.=26.086355, Alt.=147.088013m. Speed=0.036000m/h.</desc>
<speed>0.010000</speed>
</trkpt>
<trkpt lat="55.704342" lon="26.086355">
<ele>147.091919</ele>
<time>2010-07-17T20:16:41Z</time>
<desc>lat.=55.704342, lon.=26.086355, Alt.=147.091919m. Speed=0.036000m/h.</desc>
<speed>0.010000</speed>
</trkpt>
<trkpt lat="55.704342" lon="26.086355">
<ele>147.095825</ele>
<time>2010-07-17T20:16:42Z</time>
<desc>lat.=55.704342, lon.=26.086355, Alt.=147.095825m. Speed=0.108000m/h.</desc>
<speed>0.030000</speed>
</trkpt>
<trkpt lat="55.704342" lon="26.086355">
<ele>147.107544</ele>
<time>2010-07-17T20:16:43Z</time>
<desc>lat.=55.704342, lon.=26.086355, Alt.=147.107544m. Speed=0.072000m/h.</desc>
<speed>0.020000</speed>
</trkpt>
<trkpt lat="55.704342" lon="26.086355">
<ele>147.119263</ele>
<time>2010-07-17T20:16:44Z</time>
<desc>lat.=55.704342, lon.=26.086355, Alt.=147.119263m. Speed=0.036000m/h.</desc>
<speed>0.010000</speed>
</trkpt>
<trkpt lat="55.704342" lon="26.086355">
<ele>147.130981</ele>
<time>2010-07-17T20:16:45Z</time>
<desc>lat.=55.704342, lon.=26.086355, Alt.=147.130981m. Speed=0.036000m/h.</desc>
<speed>0.010000</speed>
</trkpt>
<trkpt lat="55.704342" lon="26.086355">
<ele>147.138794</ele>
<time>2010-07-17T20:16:46Z</time>
<desc>lat.=55.704342, lon.=26.086355, Alt.=147.138794m. Speed=0.036000m/h.</desc>
<speed>0.010000</speed>
</trkpt>
<trkpt lat="55.704342" lon="26.086355">
<ele>147.146606</ele>
<time>2010-07-17T20:16:47Z</time>
<desc>lat.=55.704342, lon.=26.086355, Alt.=147.146606m. Speed=0.036000m/h.</desc>
<speed>0.010000</speed>
</trkpt>
<trkpt lat="55.704342" lon="26.086355">
<ele>147.154419</ele>
<time>2010-07-17T20:16:48Z</time>
<desc>lat.=55.704342, lon.=26.086355, Alt.=147.154419m. Speed=0.000000m/h.</desc>
<speed>0.000000</speed>
</trkpt>
<trkpt lat="55.704342" lon="26.086355">
<ele>147.162231</ele>
<time>2010-07-17T20:16:49Z</time>
<desc>lat.=55.704342, lon.=26.086355, Alt.=147.162231m. Speed=0.036000m/h.</desc>
<speed>0.010000</speed>
</trkpt>
<trkpt lat="55.704342" lon="26.086355">
<ele>147.170044</ele>
<time>2010-07-17T20:16:50Z</time>
<desc>lat.=55.704342, lon.=26.086355, Alt.=147.170044m. Speed=0.036000m/h.</desc>
<speed>0.010000</speed>
</trkpt>
<trkpt lat="55.704342" lon="26.086355">
<ele>147.181763</ele>
<time>2010-07-17T20:16:51Z</time>
<desc>lat.=55.704342, lon.=26.086355, Alt.=147.181763m. Speed=0.108000m/h.</desc>
<speed>0.030000</speed>
</trkpt>
<trkpt lat="55.704342" lon="26.086355">
<ele>147.189575</ele>
<time>2010-07-17T20:16:52Z</time>
<desc>lat.=55.704342, lon.=26.086355, Alt.=147.189575m. Speed=0.036000m/h.</desc>
<speed>0.010000</speed>
</trkpt>
<trkpt lat="55.704342" lon="26.086355">
<ele>147.205200</ele>
<time>2010-07-17T20:16:53Z</time>
<desc>lat.=55.704342, lon.=26.086355, Alt.=147.205200m. Speed=0.000000m/h.</desc>
<speed>0.000000</speed>
</trkpt>
<trkpt lat="55.704342" lon="26.086355">
<ele>147.220825</ele>
<time>2010-07-17T20:16:54Z</time>
<desc>lat.=55.704342, lon.=26.086355, Alt.=147.220825m. Speed=0.000000m/h.</desc>
<speed>0.000000</speed>
</trkpt>
<trkpt lat="55.704342" lon="26.086355">
<ele>147.244263</ele>
<time>2010-07-17T20:16:55Z</time>
<desc>lat.=55.704342, lon.=26.086355, Alt.=147.244263m. Speed=0.036000m/h.</desc>
<speed>0.010000</speed>
</trkpt>
<trkpt lat="55.704342" lon="26.086355">
<ele>147.263794</ele>
<time>2010-07-17T20:16:56Z</time>
<desc>lat.=55.704342, lon.=26.086355, Alt.=147.263794m. Speed=0.108000m/h.</desc>
<speed>0.030000</speed>
</trkpt>
<trkpt lat="55.704342" lon="26.086355">
<ele>147.283325</ele>
<time>2010-07-17T20:16:57Z</time>
<desc>lat.=55.704342, lon.=26.086355, Alt.=147.283325m. Speed=0.036000m/h.</desc>
<speed>0.010000</speed>
</trkpt>
<trkpt lat="55.704342" lon="26.086355">
<ele>147.302856</ele>
<time>2010-07-17T20:16:58Z</time>
<desc>lat.=55.704342, lon.=26.086355, Alt.=147.302856m. Speed=0.000000m/h.</desc>
<speed>0.000000</speed>
</trkpt>
<trkpt lat="55.704342" lon="26.086355">
<ele>147.318481</ele>
<time>2010-07-17T20:16:59Z</time>
<desc>lat.=55.704342, lon.=26.086355, Alt.=147.318481m. Speed=0.072000m/h.</desc>
<speed>0.020000</speed>
</trkpt>
<trkpt lat="55.704342" lon="26.086355">
<ele>147.334106</ele>
<time>2010-07-17T20:17:00Z</time>
<desc>lat.=55.704342, lon.=26.086355, Alt.=147.334106m. Speed=0.036000m/h.</desc>
<speed>0.010000</speed>
</trkpt>
<trkpt lat="55.704342" lon="26.086355">
<ele>147.345825</ele>
<time>2010-07-17T20:17:01Z</time>
<desc>lat.=55.704342, lon.=26.086355, Alt.=147.345825m. Speed=0.000000m/h.</desc>
<speed>0.000000</speed>
</trkpt>
<trkpt lat="55.704342" lon="26.086357">
<ele>147.361450</ele>
<time>2010-07-17T20:17:02Z</time>
<desc>lat.=55.704342, lon.=26.086357, Alt.=147.361450m. Speed=0.000000m/h.</desc>
<speed>0.000000</speed>
</trkpt>
<trkpt lat="55.704342" lon="26.086357">
<ele>147.369263</ele>
<time>2010-07-17T20:17:03Z</time>
<desc>lat.=55.704342, lon.=26.086357, Alt.=147.369263m. Speed=0.072000m/h.</desc>
<speed>0.020000</speed>
</trkpt>
<trkpt lat="55.704342" lon="26.086357">
<ele>147.380981</ele>
<time>2010-07-17T20:17:04Z</time>
<desc>lat.=55.704342, lon.=26.086357, Alt.=147.380981m. Speed=0.036000m/h.</desc>
<speed>0.010000</speed>
</trkpt>
<trkpt lat="55.704342" lon="26.086357">
<ele>147.400513</ele>
<time>2010-07-17T20:17:05Z</time>
<desc>lat.=55.704342, lon.=26.086357, Alt.=147.400513m. Speed=0.072000m/h.</desc>
<speed>0.020000</speed>
</trkpt>
<trkpt lat="55.704342" lon="26.086357">
<ele>147.412231</ele>
<time>2010-07-17T20:17:06Z</time>
<desc>lat.=55.704342, lon.=26.086357, Alt.=147.412231m. Speed=0.144000m/h.</desc>
<speed>0.040000</speed>
</trkpt>
<trkpt lat="55.704342" lon="26.086357">
<ele>147.431763</ele>
<time>2010-07-17T20:17:07Z</time>
<desc>lat.=55.704342, lon.=26.086357, Alt.=147.431763m. Speed=0.000000m/h.</desc>
<speed>0.000000</speed>
</trkpt>
<trkpt lat="55.704342" lon="26.086357">
<ele>147.443481</ele>
<time>2010-07-17T20:17:08Z</time>
<desc>lat.=55.704342, lon.=26.086357, Alt.=147.443481m. Speed=0.000000m/h.</desc>
<speed>0.000000</speed>
</trkpt>
<trkpt lat="55.704342" lon="26.086357">
<ele>147.451294</ele>
<time>2010-07-17T20:17:09Z</time>
<desc>lat.=55.704342, lon.=26.086357, Alt.=147.451294m. Speed=0.072000m/h.</desc>
<speed>0.020000</speed>
</trkpt>
<trkpt lat="55.704342" lon="26.086357">
<ele>147.459106</ele>
<time>2010-07-17T20:17:10Z</time>
<desc>lat.=55.704342, lon.=26.086357, Alt.=147.459106m. Speed=0.072000m/h.</desc>
<speed>0.020000</speed>
</trkpt>
<trkpt lat="55.704342" lon="26.086357">
<ele>147.466919</ele>
<time>2010-07-17T20:17:11Z</time>
<desc>lat.=55.704342, lon.=26.086357, Alt.=147.466919m. Speed=0.108000m/h.</desc>
<speed>0.030000</speed>
</trkpt>
<trkpt lat="55.704342" lon="26.086357">
<ele>147.470825</ele>
<time>2010-07-17T20:17:12Z</time>
<desc>lat.=55.704342, lon.=26.086357, Alt.=147.470825m. Speed=0.036000m/h.</desc>
<speed>0.010000</speed>
</trkpt>
<trkpt lat="55.704342" lon="26.086357">
<ele>147.470825</ele>
<time>2010-07-17T20:17:13Z</time>
<desc>lat.=55.704342, lon.=26.086357, Alt.=147.470825m. Speed=0.072000m/h.</desc>
<speed>0.020000</speed>
</trkpt>
<trkpt lat="55.704342" lon="26.086357">
<ele>147.474731</ele>
<time>2010-07-17T20:17:14Z</time>
<desc>lat.=55.704342, lon.=26.086357, Alt.=147.474731m. Speed=0.072000m/h.</desc>
<speed>0.020000</speed>
</trkpt>
<trkpt lat="55.704342" lon="26.086357">
<ele>147.470825</ele>
<time>2010-07-17T20:17:15Z</time>
<desc>lat.=55.704342, lon.=26.086357, Alt.=147.470825m. Speed=0.072000m/h.</desc>
<speed>0.020000</speed>
</trkpt>
<trkpt lat="55.704338" lon="26.086357">
<ele>147.470825</ele>
<time>2010-07-17T20:17:16Z</time>
<desc>lat.=55.704338, lon.=26.086357, Alt.=147.470825m. Speed=0.108000m/h.</desc>
<speed>0.030000</speed>
</trkpt>
<trkpt lat="55.704338" lon="26.086357">
<ele>147.466919</ele>
<time>2010-07-17T20:17:17Z</time>
<desc>lat.=55.704338, lon.=26.086357, Alt.=147.466919m. Speed=0.072000m/h.</desc>
<speed>0.020000</speed>
</trkpt>
<trkpt lat="55.704338" lon="26.086357">
<ele>147.470825</ele>
<time>2010-07-17T20:17:18Z</time>
<desc>lat.=55.704338, lon.=26.086357, Alt.=147.470825m. Speed=0.036000m/h.</desc>
<speed>0.010000</speed>
</trkpt>
<trkpt lat="55.704338" lon="26.086357">
<ele>147.466919</ele>
<time>2010-07-17T20:17:19Z</time>
<desc>lat.=55.704338, lon.=26.086357, Alt.=147.466919m. Speed=0.144000m/h.</desc>
<speed>0.040000</speed>
</trkpt>
<trkpt lat="55.704342" lon="26.086357">
<ele>147.459106</ele>
<time>2010-07-17T20:17:20Z</time>
<desc>lat.=55.704342, lon.=26.086357, Alt.=147.459106m. Speed=0.108000m/h.</desc>
<speed>0.030000</speed>
</trkpt>
<trkpt lat="55.704342" lon="26.086359">
<ele>147.459106</ele>
<time>2010-07-17T20:17:21Z</time>
<desc>lat.=55.704342, lon.=26.086359, Alt.=147.459106m. Speed=0.108000m/h.</desc>
<speed>0.030000</speed>
</trkpt>
<trkpt lat="55.704342" lon="26.086359">
<ele>147.463013</ele>
<time>2010-07-17T20:17:22Z</time>
<desc>lat.=55.704342, lon.=26.086359, Alt.=147.463013m. Speed=0.108000m/h.</desc>
<speed>0.030000</speed>
</trkpt>
<trkpt lat="55.704342" lon="26.086359">
<ele>147.466919</ele>
<time>2010-07-17T20:17:23Z</time>
<desc>lat.=55.704342, lon.=26.086359, Alt.=147.466919m. Speed=0.180000m/h.</desc>
<speed>0.050000</speed>
</trkpt>
<trkpt lat="55.704342" lon="26.086359">
<ele>147.466919</ele>
<time>2010-07-17T20:17:24Z</time>
<desc>lat.=55.704342, lon.=26.086359, Alt.=147.466919m. Speed=0.180000m/h.</desc>
<speed>0.050000</speed>
</trkpt>
<trkpt lat="55.704342" lon="26.086359">
<ele>147.455200</ele>
<time>2010-07-17T20:17:25Z</time>
<desc>lat.=55.704342, lon.=26.086359, Alt.=147.455200m. Speed=0.072000m/h.</desc>
<speed>0.020000</speed>
</trkpt>
<trkpt lat="55.704342" lon="26.086359">
<ele>147.451294</ele>
<time>2010-07-17T20:17:26Z</time>
<desc>lat.=55.704342, lon.=26.086359, Alt.=147.451294m. Speed=0.108000m/h.</desc>
<speed>0.030000</speed>
</trkpt>
<trkpt lat="55.704342" lon="26.086359">
<ele>147.443481</ele>
<time>2010-07-17T20:17:27Z</time>
<desc>lat.=55.704342, lon.=26.086359, Alt.=147.443481m. Speed=0.072000m/h.</desc>
<speed>0.020000</speed>
</trkpt>
<trkpt lat="55.704342" lon="26.086359">
<ele>147.435669</ele>
<time>2010-07-17T20:17:28Z</time>
<desc>lat.=55.704342, lon.=26.086359, Alt.=147.435669m. Speed=0.108000m/h.</desc>
<speed>0.030000</speed>
</trkpt>
<trkpt lat="55.704342" lon="26.086359">
<ele>147.423950</ele>
<time>2010-07-17T20:17:29Z</time>
<desc>lat.=55.704342, lon.=26.086359, Alt.=147.423950m. Speed=0.108000m/h.</desc>
<speed>0.030000</speed>
</trkpt>
<trkpt lat="55.704342" lon="26.086359">
<ele>147.420044</ele>
<time>2010-07-17T20:17:30Z</time>
<desc>lat.=55.704342, lon.=26.086359, Alt.=147.420044m. Speed=0.072000m/h.</desc>
<speed>0.020000</speed>
</trkpt>
<trkpt lat="55.704342" lon="26.086361">
<ele>147.416138</ele>
<time>2010-07-17T20:17:31Z</time>
<desc>lat.=55.704342, lon.=26.086361, Alt.=147.416138m. Speed=0.072000m/h.</desc>
<speed>0.020000</speed>
</trkpt>
<trkpt lat="55.704342" lon="26.086361">
<ele>147.416138</ele>
<time>2010-07-17T20:17:32Z</time>
<desc>lat.=55.704342, lon.=26.086361, Alt.=147.416138m. Speed=0.036000m/h.</desc>
<speed>0.010000</speed>
</trkpt>
<trkpt lat="55.704342" lon="26.086361">
<ele>147.408325</ele>
<time>2010-07-17T20:17:33Z</time>
<desc>lat.=55.704342, lon.=26.086361, Alt.=147.408325m. Speed=0.036000m/h.</desc>
<speed>0.010000</speed>
</trkpt>
<trkpt lat="55.704342" lon="26.086361">
<ele>147.404419</ele>
<time>2010-07-17T20:17:34Z</time>
<desc>lat.=55.704342, lon.=26.086361, Alt.=147.404419m. Speed=0.144000m/h.</desc>
<speed>0.040000</speed>
</trkpt>
<trkpt lat="55.704342" lon="26.086361">
<ele>147.400513</ele>
<time>2010-07-17T20:17:35Z</time>
<desc>lat.=55.704342, lon.=26.086361, Alt.=147.400513m. Speed=0.180000m/h.</desc>
<speed>0.050000</speed>
</trkpt>
<trkpt lat="55.704342" lon="26.086361">
<ele>147.392700</ele>
<time>2010-07-17T20:17:36Z</time>
<desc>lat.=55.704342, lon.=26.086361, Alt.=147.392700m. Speed=0.144000m/h.</desc>
<speed>0.040000</speed>
</trkpt>
<trkpt lat="55.704342" lon="26.086361">
<ele>147.380981</ele>
<time>2010-07-17T20:17:37Z</time>
<desc>lat.=55.704342, lon.=26.086361, Alt.=147.380981m. Speed=0.144000m/h.</desc>
<speed>0.040000</speed>
</trkpt>
<trkpt lat="55.704342" lon="26.086361">
<ele>147.373169</ele>
<time>2010-07-17T20:17:38Z</time>
<desc>lat.=55.704342, lon.=26.086361, Alt.=147.373169m. Speed=0.072000m/h.</desc>
<speed>0.020000</speed>
</trkpt>
<trkpt lat="55.704342" lon="26.086361">
<ele>147.365356</ele>
<time>2010-07-17T20:17:39Z</time>
<desc>lat.=55.704342, lon.=26.086361, Alt.=147.365356m. Speed=0.180000m/h.</desc>
<speed>0.050000</speed>
</trkpt>
<trkpt lat="55.704342" lon="26.086361">
<ele>147.353638</ele>
<time>2010-07-17T20:17:40Z</time>
<desc>lat.=55.704342, lon.=26.086361, Alt.=147.353638m. Speed=0.072000m/h.</desc>
<speed>0.020000</speed>
</trkpt>
<trkpt lat="55.704342" lon="26.086361">
<ele>147.341919</ele>
<time>2010-07-17T20:17:41Z</time>
<desc>lat.=55.704342, lon.=26.086361, Alt.=147.341919m. Speed=0.144000m/h.</desc>
<speed>0.040000</speed>
</trkpt>
<trkpt lat="55.704342" lon="26.086361">
<ele>147.338013</ele>
<time>2010-07-17T20:17:42Z</time>
<desc>lat.=55.704342, lon.=26.086361, Alt.=147.338013m. Speed=0.108000m/h.</desc>
<speed>0.030000</speed>
</trkpt>
<trkpt lat="55.704342" lon="26.086361">
<ele>147.338013</ele>
<time>2010-07-17T20:17:43Z</time>
<desc>lat.=55.704342, lon.=26.086361, Alt.=147.338013m. Speed=0.108000m/h.</desc>
<speed>0.030000</speed>
</trkpt>
<trkpt lat="55.704342" lon="26.086361">
<ele>147.338013</ele>
<time>2010-07-17T20:17:44Z</time>
<desc>lat.=55.704342, lon.=26.086361, Alt.=147.338013m. Speed=0.144000m/h.</desc>
<speed>0.040000</speed>
</trkpt>
<trkpt lat="55.704342" lon="26.086361">
<ele>147.338013</ele>
<time>2010-07-17T20:17:45Z</time>
<desc>lat.=55.704342, lon.=26.086361, Alt.=147.338013m. Speed=0.108000m/h.</desc>
<speed>0.030000</speed>
</trkpt>
<trkpt lat="55.704342" lon="26.086361">
<ele>147.338013</ele>
<time>2010-07-17T20:17:46Z</time>
<desc>lat.=55.704342, lon.=26.086361, Alt.=147.338013m. Speed=0.072000m/h.</desc>
<speed>0.020000</speed>
</trkpt>
<trkpt lat="55.704342" lon="26.086361">
<ele>147.334106</ele>
<time>2010-07-17T20:17:47Z</time>
<desc>lat.=55.704342, lon.=26.086361, Alt.=147.334106m. Speed=0.108000m/h.</desc>
<speed>0.030000</speed>
</trkpt>
<trkpt lat="55.704342" lon="26.086361">
<ele>147.330200</ele>
<time>2010-07-17T20:17:48Z</time>
<desc>lat.=55.704342, lon.=26.086361, Alt.=147.330200m. Speed=0.108000m/h.</desc>
<speed>0.030000</speed>
</trkpt>
<trkpt lat="55.704342" lon="26.086361">
<ele>147.322388</ele>
<time>2010-07-17T20:17:49Z</time>
<desc>lat.=55.704342, lon.=26.086361, Alt.=147.322388m. Speed=0.108000m/h.</desc>
<speed>0.030000</speed>
</trkpt>
<trkpt lat="55.704342" lon="26.086361">
<ele>147.318481</ele>
<time>2010-07-17T20:17:50Z</time>
<desc>lat.=55.704342, lon.=26.086361, Alt.=147.318481m. Speed=0.108000m/h.</desc>
<speed>0.030000</speed>
</trkpt>
<trkpt lat="55.704342" lon="26.086361">
<ele>147.314575</ele>
<time>2010-07-17T20:17:51Z</time>
<desc>lat.=55.704342, lon.=26.086361, Alt.=147.314575m. Speed=0.144000m/h.</desc>
<speed>0.040000</speed>
</trkpt>
<trkpt lat="55.704342" lon="26.086361">
<ele>147.314575</ele>
<time>2010-07-17T20:17:52Z</time>
<desc>lat.=55.704342, lon.=26.086361, Alt.=147.314575m. Speed=0.000000m/h.</desc>
<speed>0.000000</speed>
</trkpt>
<trkpt lat="55.704342" lon="26.086361">
<ele>147.314575</ele>
<time>2010-07-17T20:17:53Z</time>
<desc>lat.=55.704342, lon.=26.086361, Alt.=147.314575m. Speed=0.072000m/h.</desc>
<speed>0.020000</speed>
</trkpt>
<trkpt lat="55.704342" lon="26.086361">
<ele>147.310669</ele>
<time>2010-07-17T20:17:54Z</time>
<desc>lat.=55.704342, lon.=26.086361, Alt.=147.310669m. Speed=0.036000m/h.</desc>
<speed>0.010000</speed>
</trkpt>
<trkpt lat="55.704342" lon="26.086361">
<ele>147.306763</ele>
<time>2010-07-17T20:17:55Z</time>
<desc>lat.=55.704342, lon.=26.086361, Alt.=147.306763m. Speed=0.108000m/h.</desc>
<speed>0.030000</speed>
</trkpt>
<trkpt lat="55.704342" lon="26.086361">
<ele>147.310669</ele>
<time>2010-07-17T20:17:56Z</time>
<desc>lat.=55.704342, lon.=26.086361, Alt.=147.310669m. Speed=0.108000m/h.</desc>
<speed>0.030000</speed>
</trkpt>
<trkpt lat="55.704342" lon="26.086361">
<ele>147.310669</ele>
<time>2010-07-17T20:17:57Z</time>
<desc>lat.=55.704342, lon.=26.086361, Alt.=147.310669m. Speed=0.036000m/h.</desc>
<speed>0.010000</speed>
</trkpt>
<trkpt lat="55.704342" lon="26.086361">
<ele>147.314575</ele>
<time>2010-07-17T20:17:58Z</time>
<desc>lat.=55.704342, lon.=26.086361, Alt.=147.314575m. Speed=0.036000m/h.</desc>
<speed>0.010000</speed>
</trkpt>
<trkpt lat="55.704342" lon="26.086361">
<ele>147.314575</ele>
<time>2010-07-17T20:17:59Z</time>
<desc>lat.=55.704342, lon.=26.086361, Alt.=147.314575m. Speed=0.036000m/h.</desc>
<speed>0.010000</speed>
</trkpt>
<trkpt lat="55.704342" lon="26.086361">
<ele>147.310669</ele>
<time>2010-07-17T20:18:00Z</time>
<desc>lat.=55.704342, lon.=26.086361, Alt.=147.310669m. Speed=0.036000m/h.</desc>
<speed>0.010000</speed>
</trkpt>
<trkpt lat="55.704342" lon="26.086361">
<ele>147.302856</ele>
<time>2010-07-17T20:18:01Z</time>
<desc>lat.=55.704342, lon.=26.086361, Alt.=147.302856m. Speed=0.072000m/h.</desc>
<speed>0.020000</speed>
</trkpt>
<trkpt lat="55.704342" lon="26.086361">
<ele>147.298950</ele>
<time>2010-07-17T20:18:02Z</time>
<desc>lat.=55.704342, lon.=26.086361, Alt.=147.298950m. Speed=0.036000m/h.</desc>
<speed>0.010000</speed>
</trkpt>
<trkpt lat="55.704342" lon="26.086361">
<ele>147.295044</ele>
<time>2010-07-17T20:18:03Z</time>
<desc>lat.=55.704342, lon.=26.086361, Alt.=147.295044m. Speed=0.036000m/h.</desc>
<speed>0.010000</speed>
</trkpt>
<trkpt lat="55.704342" lon="26.086361">
<ele>147.295044</ele>
<time>2010-07-17T20:18:04Z</time>
<desc>lat.=55.704342, lon.=26.086361, Alt.=147.295044m. Speed=0.000000m/h.</desc>
<speed>0.000000</speed>
</trkpt>
<trkpt lat="55.704342" lon="26.086361">
<ele>147.291138</ele>
<time>2010-07-17T20:18:05Z</time>
<desc>lat.=55.704342, lon.=26.086361, Alt.=147.291138m. Speed=0.072000m/h.</desc>
<speed>0.020000</speed>
</trkpt>
<trkpt lat="55.704342" lon="26.086361">
<ele>147.291138</ele>
<time>2010-07-17T20:18:06Z</time>
<desc>lat.=55.704342, lon.=26.086361, Alt.=147.291138m. Speed=0.108000m/h.</desc>
<speed>0.030000</speed>
</trkpt>
<trkpt lat="55.704342" lon="26.086359">
<ele>147.287231</ele>
<time>2010-07-17T20:18:07Z</time>
<desc>lat.=55.704342, lon.=26.086359, Alt.=147.287231m. Speed=0.144000m/h.</desc>
<speed>0.040000</speed>
</trkpt>
<trkpt lat="55.704342" lon="26.086359">
<ele>147.279419</ele>
<time>2010-07-17T20:18:08Z</time>
<desc>lat.=55.704342, lon.=26.086359, Alt.=147.279419m. Speed=0.108000m/h.</desc>
<speed>0.030000</speed>
</trkpt>
<trkpt lat="55.704342" lon="26.086359">
<ele>147.275513</ele>
<time>2010-07-17T20:18:09Z</time>
<desc>lat.=55.704342, lon.=26.086359, Alt.=147.275513m. Speed=0.108000m/h.</desc>
<speed>0.030000</speed>
</trkpt>
<trkpt lat="55.704342" lon="26.086359">
<ele>147.275513</ele>
<time>2010-07-17T20:18:10Z</time>
<desc>lat.=55.704342, lon.=26.086359, Alt.=147.275513m. Speed=0.108000m/h.</desc>
<speed>0.030000</speed>
</trkpt>
<trkpt lat="55.704342" lon="26.086359">
<ele>147.275513</ele>
<time>2010-07-17T20:18:11Z</time>
<desc>lat.=55.704342, lon.=26.086359, Alt.=147.275513m. Speed=0.144000m/h.</desc>
<speed>0.040000</speed>
</trkpt>
<trkpt lat="55.704342" lon="26.086359">
<ele>147.271606</ele>
<time>2010-07-17T20:18:12Z</time>
<desc>lat.=55.704342, lon.=26.086359, Alt.=147.271606m. Speed=0.072000m/h.</desc>
<speed>0.020000</speed>
</trkpt>
<trkpt lat="55.704342" lon="26.086359">
<ele>147.271606</ele>
<time>2010-07-17T20:18:13Z</time>
<desc>lat.=55.704342, lon.=26.086359, Alt.=147.271606m. Speed=0.108000m/h.</desc>
<speed>0.030000</speed>
</trkpt>
<trkpt lat="55.704342" lon="26.086359">
<ele>147.275513</ele>
<time>2010-07-17T20:18:14Z</time>
<desc>lat.=55.704342, lon.=26.086359, Alt.=147.275513m. Speed=0.072000m/h.</desc>
<speed>0.020000</speed>
</trkpt>
<trkpt lat="55.704342" lon="26.086359">
<ele>147.271606</ele>
<time>2010-07-17T20:18:15Z</time>
<desc>lat.=55.704342, lon.=26.086359, Alt.=147.271606m. Speed=0.000000m/h.</desc>
<speed>0.000000</speed>
</trkpt>
<trkpt lat="55.704342" lon="26.086359">
<ele>147.279419</ele>
<time>2010-07-17T20:18:16Z</time>
<desc>lat.=55.704342, lon.=26.086359, Alt.=147.279419m. Speed=0.144000m/h.</desc>
<speed>0.040000</speed>
</trkpt>
<trkpt lat="55.704342" lon="26.086357">
<ele>147.279419</ele>
<time>2010-07-17T20:18:17Z</time>
<desc>lat.=55.704342, lon.=26.086357, Alt.=147.279419m. Speed=0.108000m/h.</desc>
<speed>0.030000</speed>
</trkpt>
<trkpt lat="55.704342" lon="26.086357">
<ele>147.275513</ele>
<time>2010-07-17T20:18:18Z</time>
<desc>lat.=55.704342, lon.=26.086357, Alt.=147.275513m. Speed=0.144000m/h.</desc>
<speed>0.040000</speed>
</trkpt>
<trkpt lat="55.704342" lon="26.086357">
<ele>147.271606</ele>
<time>2010-07-17T20:18:19Z</time>
<desc>lat.=55.704342, lon.=26.086357, Alt.=147.271606m. Speed=0.144000m/h.</desc>
<speed>0.040000</speed>
</trkpt>
<trkpt lat="55.704342" lon="26.086357">
<ele>147.275513</ele>
<time>2010-07-17T20:18:20Z</time>
<desc>lat.=55.704342, lon.=26.086357, Alt.=147.275513m. Speed=0.108000m/h.</desc>
<speed>0.030000</speed>
</trkpt>
<trkpt lat="55.704342" lon="26.086357">
<ele>147.275513</ele>
<time>2010-07-17T20:18:21Z</time>
<desc>lat.=55.704342, lon.=26.086357, Alt.=147.275513m. Speed=0.072000m/h.</desc>
<speed>0.020000</speed>
</trkpt>
<trkpt lat="55.704342" lon="26.086357">
<ele>147.279419</ele>
<time>2010-07-17T20:18:22Z</time>
<desc>lat.=55.704342, lon.=26.086357, Alt.=147.279419m. Speed=0.144000m/h.</desc>
<speed>0.040000</speed>
</trkpt>
<trkpt lat="55.704342" lon="26.086357">
<ele>147.279419</ele>
<time>2010-07-17T20:18:23Z</time>
<desc>lat.=55.704342, lon.=26.086357, Alt.=147.279419m. Speed=0.072000m/h.</desc>
<speed>0.020000</speed>
</trkpt>
<trkpt lat="55.704342" lon="26.086357">
<ele>147.271606</ele>
<time>2010-07-17T20:18:24Z</time>
<desc>lat.=55.704342, lon.=26.086357, Alt.=147.271606m. Speed=0.036000m/h.</desc>
<speed>0.010000</speed>
</trkpt>
<trkpt lat="55.704342" lon="26.086357">
<ele>147.279419</ele>
<time>2010-07-17T20:18:25Z</time>
<desc>lat.=55.704342, lon.=26.086357, Alt.=147.279419m. Speed=0.144000m/h.</desc>
<speed>0.040000</speed>
</trkpt>
<trkpt lat="55.704342" lon="26.086357">
<ele>147.287231</ele>
<time>2010-07-17T20:18:26Z</time>
<desc>lat.=55.704342, lon.=26.086357, Alt.=147.287231m. Speed=0.036000m/h.</desc>
<speed>0.010000</speed>
</trkpt>
<trkpt lat="55.704342" lon="26.086355">
<ele>147.302856</ele>
<time>2010-07-17T20:18:27Z</time>
<desc>lat.=55.704342, lon.=26.086355, Alt.=147.302856m. Speed=0.180000m/h.</desc>
<speed>0.050000</speed>
</trkpt>
<trkpt lat="55.704342" lon="26.086355">
<ele>147.318481</ele>
<time>2010-07-17T20:18:28Z</time>
<desc>lat.=55.704342, lon.=26.086355, Alt.=147.318481m. Speed=0.144000m/h.</desc>
<speed>0.040000</speed>
</trkpt>
<trkpt lat="55.704342" lon="26.086355">
<ele>147.334106</ele>
<time>2010-07-17T20:18:29Z</time>
<desc>lat.=55.704342, lon.=26.086355, Alt.=147.334106m. Speed=0.144000m/h.</desc>
<speed>0.040000</speed>
</trkpt>
<trkpt lat="55.704342" lon="26.086355">
<ele>147.353638</ele>
<time>2010-07-17T20:18:30Z</time>
<desc>lat.=55.704342, lon.=26.086355, Alt.=147.353638m. Speed=0.180000m/h.</desc>
<speed>0.050000</speed>
</trkpt>
<trkpt lat="55.704342" lon="26.086355">
<ele>147.369263</ele>
<time>2010-07-17T20:18:31Z</time>
<desc>lat.=55.704342, lon.=26.086355, Alt.=147.369263m. Speed=0.072000m/h.</desc>
<speed>0.020000</speed>
</trkpt>
<trkpt lat="55.704342" lon="26.086355">
<ele>147.377075</ele>
<time>2010-07-17T20:18:32Z</time>
<desc>lat.=55.704342, lon.=26.086355, Alt.=147.377075m. Speed=0.072000m/h.</desc>
<speed>0.020000</speed>
</trkpt>
<trkpt lat="55.704342" lon="26.086355">
<ele>147.392700</ele>
<time>2010-07-17T20:18:33Z</time>
<desc>lat.=55.704342, lon.=26.086355, Alt.=147.392700m. Speed=0.036000m/h.</desc>
<speed>0.010000</speed>
</trkpt>
<trkpt lat="55.704342" lon="26.086355">
<ele>147.404419</ele>
<time>2010-07-17T20:18:34Z</time>
<desc>lat.=55.704342, lon.=26.086355, Alt.=147.404419m. Speed=0.036000m/h.</desc>
<speed>0.010000</speed>
</trkpt>
<trkpt lat="55.704342" lon="26.086355">
<ele>147.408325</ele>
<time>2010-07-17T20:18:35Z</time>
<desc>lat.=55.704342, lon.=26.086355, Alt.=147.408325m. Speed=0.072000m/h.</desc>
<speed>0.020000</speed>
</trkpt>
<trkpt lat="55.704338" lon="26.086355">
<ele>147.416138</ele>
<time>2010-07-17T20:18:36Z</time>
<desc>lat.=55.704338, lon.=26.086355, Alt.=147.416138m. Speed=0.036000m/h.</desc>
<speed>0.010000</speed>
</trkpt>
<trkpt lat="55.704338" lon="26.086355">
<ele>147.423950</ele>
<time>2010-07-17T20:18:37Z</time>
<desc>lat.=55.704338, lon.=26.086355, Alt.=147.423950m. Speed=0.072000m/h.</desc>
<speed>0.020000</speed>
</trkpt>
<trkpt lat="55.704338" lon="26.086355">
<ele>147.439575</ele>
<time>2010-07-17T20:18:38Z</time>
<desc>lat.=55.704338, lon.=26.086355, Alt.=147.439575m. Speed=0.000000m/h.</desc>
<speed>0.000000</speed>
</trkpt>
<trkpt lat="55.704338" lon="26.086355">
<ele>147.455200</ele>
<time>2010-07-17T20:18:39Z</time>
<desc>lat.=55.704338, lon.=26.086355, Alt.=147.455200m. Speed=0.072000m/h.</desc>
<speed>0.020000</speed>
</trkpt>
<trkpt lat="55.704338" lon="26.086355">
<ele>147.459106</ele>
<time>2010-07-17T20:18:40Z</time>
<desc>lat.=55.704338, lon.=26.086355, Alt.=147.459106m. Speed=0.144000m/h.</desc>
<speed>0.040000</speed>
</trkpt>
<trkpt lat="55.704338" lon="26.086355">
<ele>147.459106</ele>
<time>2010-07-17T20:18:41Z</time>
<desc>lat.=55.704338, lon.=26.086355, Alt.=147.459106m. Speed=0.072000m/h.</desc>
<speed>0.020000</speed>
</trkpt>
<trkpt lat="55.704338" lon="26.086355">
<ele>147.455200</ele>
<time>2010-07-17T20:18:42Z</time>
<desc>lat.=55.704338, lon.=26.086355, Alt.=147.455200m. Speed=0.072000m/h.</desc>
<speed>0.020000</speed>
</trkpt>
<trkpt lat="55.704338" lon="26.086355">
<ele>147.451294</ele>
<time>2010-07-17T20:18:43Z</time>
<desc>lat.=55.704338, lon.=26.086355, Alt.=147.451294m. Speed=0.036000m/h.</desc>
<speed>0.010000</speed>
</trkpt>
<trkpt lat="55.704338" lon="26.086355">
<ele>147.455200</ele>
<time>2010-07-17T20:18:44Z</time>
<desc>lat.=55.704338, lon.=26.086355, Alt.=147.455200m. Speed=0.036000m/h.</desc>
<speed>0.010000</speed>
</trkpt>
<trkpt lat="55.704338" lon="26.086355">
<ele>147.455200</ele>
<time>2010-07-17T20:18:45Z</time>
<desc>lat.=55.704338, lon.=26.086355, Alt.=147.455200m. Speed=0.036000m/h.</desc>
<speed>0.010000</speed>
</trkpt>
<trkpt lat="55.704338" lon="26.086355">
<ele>147.455200</ele>
<time>2010-07-17T20:18:46Z</time>
<desc>lat.=55.704338, lon.=26.086355, Alt.=147.455200m. Speed=0.072000m/h.</desc>
<speed>0.020000</speed>
</trkpt>
<trkpt lat="55.704338" lon="26.086355">
<ele>147.463013</ele>
<time>2010-07-17T20:18:47Z</time>
<desc>lat.=55.704338, lon.=26.086355, Alt.=147.463013m. Speed=0.072000m/h.</desc>
<speed>0.020000</speed>
</trkpt>
<trkpt lat="55.704338" lon="26.086355">
<ele>147.470825</ele>
<time>2010-07-17T20:18:48Z</time>
<desc>lat.=55.704338, lon.=26.086355, Alt.=147.470825m. Speed=0.072000m/h.</desc>
<speed>0.020000</speed>
</trkpt>
<trkpt lat="55.704338" lon="26.086355">
<ele>147.478638</ele>
<time>2010-07-17T20:18:49Z</time>
<desc>lat.=55.704338, lon.=26.086355, Alt.=147.478638m. Speed=0.072000m/h.</desc>
<speed>0.020000</speed>
</trkpt>
<trkpt lat="55.704338" lon="26.086355">
<ele>147.486450</ele>
<time>2010-07-17T20:18:50Z</time>
<desc>lat.=55.704338, lon.=26.086355, Alt.=147.486450m. Speed=0.072000m/h.</desc>
<speed>0.020000</speed>
</trkpt>
<trkpt lat="55.704338" lon="26.086353">
<ele>147.490356</ele>
<time>2010-07-17T20:18:51Z</time>
<desc>lat.=55.704338, lon.=26.086353, Alt.=147.490356m. Speed=0.108000m/h.</desc>
<speed>0.030000</speed>
</trkpt>
<trkpt lat="55.704338" lon="26.086353">
<ele>147.494263</ele>
<time>2010-07-17T20:18:52Z</time>
<desc>lat.=55.704338, lon.=26.086353, Alt.=147.494263m. Speed=0.108000m/h.</desc>
<speed>0.030000</speed>
</trkpt>
<trkpt lat="55.704338" lon="26.086353">
<ele>147.502075</ele>
<time>2010-07-17T20:18:53Z</time>
<desc>lat.=55.704338, lon.=26.086353, Alt.=147.502075m. Speed=0.108000m/h.</desc>
<speed>0.030000</speed>
</trkpt>
<trkpt lat="55.704338" lon="26.086353">
<ele>147.505981</ele>
<time>2010-07-17T20:18:54Z</time>
<desc>lat.=55.704338, lon.=26.086353, Alt.=147.505981m. Speed=0.108000m/h.</desc>
<speed>0.030000</speed>
</trkpt>
<trkpt lat="55.704338" lon="26.086353">
<ele>147.509888</ele>
<time>2010-07-17T20:18:55Z</time>
<desc>lat.=55.704338, lon.=26.086353, Alt.=147.509888m. Speed=0.072000m/h.</desc>
<speed>0.020000</speed>
</trkpt>
<trkpt lat="55.704338" lon="26.086353">
<ele>147.509888</ele>
<time>2010-07-17T20:18:56Z</time>
<desc>lat.=55.704338, lon.=26.086353, Alt.=147.509888m. Speed=0.000000m/h.</desc>
<speed>0.000000</speed>
</trkpt>
<trkpt lat="55.704338" lon="26.086353">
<ele>147.513794</ele>
<time>2010-07-17T20:18:57Z</time>
<desc>lat.=55.704338, lon.=26.086353, Alt.=147.513794m. Speed=0.000000m/h.</desc>
<speed>0.000000</speed>
</trkpt>
<trkpt lat="55.704338" lon="26.086353">
<ele>147.517700</ele>
<time>2010-07-17T20:18:58Z</time>
<desc>lat.=55.704338, lon.=26.086353, Alt.=147.517700m. Speed=0.072000m/h.</desc>
<speed>0.020000</speed>
</trkpt>
<trkpt lat="55.704338" lon="26.086353">
<ele>147.517700</ele>
<time>2010-07-17T20:18:59Z</time>
<desc>lat.=55.704338, lon.=26.086353, Alt.=147.517700m. Speed=0.108000m/h.</desc>
<speed>0.030000</speed>
</trkpt>
<trkpt lat="55.704338" lon="26.086353">
<ele>147.525513</ele>
<time>2010-07-17T20:19:00Z</time>
<desc>lat.=55.704338, lon.=26.086353, Alt.=147.525513m. Speed=0.144000m/h.</desc>
<speed>0.040000</speed>
</trkpt>
<trkpt lat="55.704338" lon="26.086353">
<ele>147.529419</ele>
<time>2010-07-17T20:19:01Z</time>
<desc>lat.=55.704338, lon.=26.086353, Alt.=147.529419m. Speed=0.072000m/h.</desc>
<speed>0.020000</speed>
</trkpt>
<trkpt lat="55.704338" lon="26.086353">
<ele>147.533325</ele>
<time>2010-07-17T20:19:02Z</time>
<desc>lat.=55.704338, lon.=26.086353, Alt.=147.533325m. Speed=0.144000m/h.</desc>
<speed>0.040000</speed>
</trkpt>
<trkpt lat="55.704338" lon="26.086353">
<ele>147.541138</ele>
<time>2010-07-17T20:19:03Z</time>
<desc>lat.=55.704338, lon.=26.086353, Alt.=147.541138m. Speed=0.108000m/h.</desc>
<speed>0.030000</speed>
</trkpt>
<trkpt lat="55.704338" lon="26.086353">
<ele>147.548950</ele>
<time>2010-07-17T20:19:04Z</time>
<desc>lat.=55.704338, lon.=26.086353, Alt.=147.548950m. Speed=0.108000m/h.</desc>
<speed>0.030000</speed>
</trkpt>
<trkpt lat="55.704338" lon="26.086353">
<ele>147.552856</ele>
<time>2010-07-17T20:19:05Z</time>
<desc>lat.=55.704338, lon.=26.086353, Alt.=147.552856m. Speed=0.036000m/h.</desc>
<speed>0.010000</speed>
</trkpt>
<trkpt lat="55.704338" lon="26.086353">
<ele>147.556763</ele>
<time>2010-07-17T20:19:06Z</time>
<desc>lat.=55.704338, lon.=26.086353, Alt.=147.556763m. Speed=0.072000m/h.</desc>
<speed>0.020000</speed>
</trkpt>
<trkpt lat="55.704338" lon="26.086353">
<ele>147.560669</ele>
<time>2010-07-17T20:19:07Z</time>
<desc>lat.=55.704338, lon.=26.086353, Alt.=147.560669m. Speed=0.072000m/h.</desc>
<speed>0.020000</speed>
</trkpt>
<trkpt lat="55.704338" lon="26.086353">
<ele>147.564575</ele>
<time>2010-07-17T20:19:08Z</time>
<desc>lat.=55.704338, lon.=26.086353, Alt.=147.564575m. Speed=0.072000m/h.</desc>
<speed>0.020000</speed>
</trkpt>
<trkpt lat="55.704338" lon="26.086353">
<ele>147.564575</ele>
<time>2010-07-17T20:19:09Z</time>
<desc>lat.=55.704338, lon.=26.086353, Alt.=147.564575m. Speed=0.108000m/h.</desc>
<speed>0.030000</speed>
</trkpt>
<trkpt lat="55.704338" lon="26.086353">
<ele>147.572388</ele>
<time>2010-07-17T20:19:10Z</time>
<desc>lat.=55.704338, lon.=26.086353, Alt.=147.572388m. Speed=0.108000m/h.</desc>
<speed>0.030000</speed>
</trkpt>
<trkpt lat="55.704338" lon="26.086351">
<ele>147.576294</ele>
<time>2010-07-17T20:19:11Z</time>
<desc>lat.=55.704338, lon.=26.086351, Alt.=147.576294m. Speed=0.108000m/h.</desc>
<speed>0.030000</speed>
</trkpt>
<trkpt lat="55.704338" lon="26.086351">
<ele>147.576294</ele>
<time>2010-07-17T20:19:12Z</time>
<desc>lat.=55.704338, lon.=26.086351, Alt.=147.576294m. Speed=0.072000m/h.</desc>
<speed>0.020000</speed>
</trkpt>
<trkpt lat="55.704338" lon="26.086351">
<ele>147.576294</ele>
<time>2010-07-17T20:19:13Z</time>
<desc>lat.=55.704338, lon.=26.086351, Alt.=147.576294m. Speed=0.108000m/h.</desc>
<speed>0.030000</speed>
</trkpt>
<trkpt lat="55.704338" lon="26.086351">
<ele>147.576294</ele>
<time>2010-07-17T20:19:14Z</time>
<desc>lat.=55.704338, lon.=26.086351, Alt.=147.576294m. Speed=0.036000m/h.</desc>
<speed>0.010000</speed>
</trkpt>
<trkpt lat="55.704338" lon="26.086351">
<ele>147.580200</ele>
<time>2010-07-17T20:19:15Z</time>
<desc>lat.=55.704338, lon.=26.086351, Alt.=147.580200m. Speed=0.000000m/h.</desc>
<speed>0.000000</speed>
</trkpt>
<trkpt lat="55.704338" lon="26.086351">
<ele>147.580200</ele>
<time>2010-07-17T20:19:16Z</time>
<desc>lat.=55.704338, lon.=26.086351, Alt.=147.580200m. Speed=0.000000m/h.</desc>
<speed>0.000000</speed>
</trkpt>
<trkpt lat="55.704338" lon="26.086351">
<ele>147.576294</ele>
<time>2010-07-17T20:19:17Z</time>
<desc>lat.=55.704338, lon.=26.086351, Alt.=147.576294m. Speed=0.036000m/h.</desc>
<speed>0.010000</speed>
</trkpt>
<trkpt lat="55.704338" lon="26.086351">
<ele>147.576294</ele>
<time>2010-07-17T20:19:18Z</time>
<desc>lat.=55.704338, lon.=26.086351, Alt.=147.576294m. Speed=0.000000m/h.</desc>
<speed>0.000000</speed>
</trkpt>
<trkpt lat="55.704338" lon="26.086351">
<ele>147.576294</ele>
<time>2010-07-17T20:19:19Z</time>
<desc>lat.=55.704338, lon.=26.086351, Alt.=147.576294m. Speed=0.036000m/h.</desc>
<speed>0.010000</speed>
</trkpt>
<trkpt lat="55.704338" lon="26.086351">
<ele>147.580200</ele>
<time>2010-07-17T20:19:20Z</time>
<desc>lat.=55.704338, lon.=26.086351, Alt.=147.580200m. Speed=0.144000m/h.</desc>
<speed>0.040000</speed>
</trkpt>
<trkpt lat="55.704338" lon="26.086351">
<ele>147.576294</ele>
<time>2010-07-17T20:19:21Z</time>
<desc>lat.=55.704338, lon.=26.086351, Alt.=147.576294m. Speed=0.036000m/h.</desc>
<speed>0.010000</speed>
</trkpt>
<trkpt lat="55.704338" lon="26.086351">
<ele>147.580200</ele>
<time>2010-07-17T20:19:22Z</time>
<desc>lat.=55.704338, lon.=26.086351, Alt.=147.580200m. Speed=0.036000m/h.</desc>
<speed>0.010000</speed>
</trkpt>
<trkpt lat="55.704338" lon="26.086351">
<ele>147.584106</ele>
<time>2010-07-17T20:19:23Z</time>
<desc>lat.=55.704338, lon.=26.086351, Alt.=147.584106m. Speed=0.036000m/h.</desc>
<speed>0.010000</speed>
</trkpt>
<trkpt lat="55.704338" lon="26.086351">
<ele>147.588013</ele>
<time>2010-07-17T20:19:24Z</time>
<desc>lat.=55.704338, lon.=26.086351, Alt.=147.588013m. Speed=0.036000m/h.</desc>
<speed>0.010000</speed>
</trkpt>
<trkpt lat="55.704338" lon="26.086351">
<ele>147.588013</ele>
<time>2010-07-17T20:19:25Z</time>
<desc>lat.=55.704338, lon.=26.086351, Alt.=147.588013m. Speed=0.036000m/h.</desc>
<speed>0.010000</speed>
</trkpt>
<trkpt lat="55.704338" lon="26.086351">
<ele>147.591919</ele>
<time>2010-07-17T20:19:26Z</time>
<desc>lat.=55.704338, lon.=26.086351, Alt.=147.591919m. Speed=0.000000m/h.</desc>
<speed>0.000000</speed>
</trkpt>
<trkpt lat="55.704338" lon="26.086351">
<ele>147.595825</ele>
<time>2010-07-17T20:19:27Z</time>
<desc>lat.=55.704338, lon.=26.086351, Alt.=147.595825m. Speed=0.072000m/h.</desc>
<speed>0.020000</speed>
</trkpt>
<trkpt lat="55.704338" lon="26.086351">
<ele>147.595825</ele>
<time>2010-07-17T20:19:28Z</time>
<desc>lat.=55.704338, lon.=26.086351, Alt.=147.595825m. Speed=0.036000m/h.</desc>
<speed>0.010000</speed>
</trkpt>
<trkpt lat="55.704338" lon="26.086351">
<ele>147.599731</ele>
<time>2010-07-17T20:19:29Z</time>
<desc>lat.=55.704338, lon.=26.086351, Alt.=147.599731m. Speed=0.036000m/h.</desc>
<speed>0.010000</speed>
</trkpt>
<trkpt lat="55.704338" lon="26.086351">
<ele>147.603638</ele>
<time>2010-07-17T20:19:30Z</time>
<desc>lat.=55.704338, lon.=26.086351, Alt.=147.603638m. Speed=0.036000m/h.</desc>
<speed>0.010000</speed>
</trkpt>
<trkpt lat="55.704338" lon="26.086351">
<ele>147.607544</ele>
<time>2010-07-17T20:19:31Z</time>
<desc>lat.=55.704338, lon.=26.086351, Alt.=147.607544m. Speed=0.000000m/h.</desc>
<speed>0.000000</speed>
</trkpt>
<trkpt lat="55.704338" lon="26.086351">
<ele>147.611450</ele>
<time>2010-07-17T20:19:32Z</time>
<desc>lat.=55.704338, lon.=26.086351, Alt.=147.611450m. Speed=0.000000m/h.</desc>
<speed>0.000000</speed>
</trkpt>
<trkpt lat="55.704338" lon="26.086351">
<ele>147.611450</ele>
<time>2010-07-17T20:19:33Z</time>
<desc>lat.=55.704338, lon.=26.086351, Alt.=147.611450m. Speed=0.036000m/h.</desc>
<speed>0.010000</speed>
</trkpt>
<trkpt lat="55.704338" lon="26.086351">
<ele>147.615356</ele>
<time>2010-07-17T20:19:34Z</time>
<desc>lat.=55.704338, lon.=26.086351, Alt.=147.615356m. Speed=0.072000m/h.</desc>
<speed>0.020000</speed>
</trkpt>
<trkpt lat="55.704338" lon="26.086351">
<ele>147.615356</ele>
<time>2010-07-17T20:19:35Z</time>
<desc>lat.=55.704338, lon.=26.086351, Alt.=147.615356m. Speed=0.036000m/h.</desc>
<speed>0.010000</speed>
</trkpt>
<trkpt lat="55.704338" lon="26.086351">
<ele>147.623169</ele>
<time>2010-07-17T20:19:36Z</time>
<desc>lat.=55.704338, lon.=26.086351, Alt.=147.623169m. Speed=0.108000m/h.</desc>
<speed>0.030000</speed>
</trkpt>
<trkpt lat="55.704338" lon="26.086351">
<ele>147.627075</ele>
<time>2010-07-17T20:19:37Z</time>
<desc>lat.=55.704338, lon.=26.086351, Alt.=147.627075m. Speed=0.036000m/h.</desc>
<speed>0.010000</speed>
</trkpt>
<trkpt lat="55.704338" lon="26.086351">
<ele>147.634888</ele>
<time>2010-07-17T20:19:38Z</time>
<desc>lat.=55.704338, lon.=26.086351, Alt.=147.634888m. Speed=0.036000m/h.</desc>
<speed>0.010000</speed>
</trkpt>
<trkpt lat="55.704338" lon="26.086351">
<ele>147.634888</ele>
<time>2010-07-17T20:19:39Z</time>
<desc>lat.=55.704338, lon.=26.086351, Alt.=147.634888m. Speed=0.108000m/h.</desc>
<speed>0.030000</speed>
</trkpt>
<trkpt lat="55.704338" lon="26.086351">
<ele>147.638794</ele>
<time>2010-07-17T20:19:40Z</time>
<desc>lat.=55.704338, lon.=26.086351, Alt.=147.638794m. Speed=0.108000m/h.</desc>
<speed>0.030000</speed>
</trkpt>
<trkpt lat="55.704338" lon="26.086351">
<ele>147.646606</ele>
<time>2010-07-17T20:19:41Z</time>
<desc>lat.=55.704338, lon.=26.086351, Alt.=147.646606m. Speed=0.144000m/h.</desc>
<speed>0.040000</speed>
</trkpt>
<trkpt lat="55.704338" lon="26.086351">
<ele>147.646606</ele>
<time>2010-07-17T20:19:42Z</time>
<desc>lat.=55.704338, lon.=26.086351, Alt.=147.646606m. Speed=0.036000m/h.</desc>
<speed>0.010000</speed>
</trkpt>
<trkpt lat="55.704338" lon="26.086351">
<ele>147.650513</ele>
<time>2010-07-17T20:19:43Z</time>
<desc>lat.=55.704338, lon.=26.086351, Alt.=147.650513m. Speed=0.072000m/h.</desc>
<speed>0.020000</speed>
</trkpt>
<trkpt lat="55.704334" lon="26.086351">
<ele>147.654419</ele>
<time>2010-07-17T20:19:44Z</time>
<desc>lat.=55.704334, lon.=26.086351, Alt.=147.654419m. Speed=0.072000m/h.</desc>
<speed>0.020000</speed>
</trkpt>
<trkpt lat="55.704334" lon="26.086351">
<ele>147.662231</ele>
<time>2010-07-17T20:19:45Z</time>
<desc>lat.=55.704334, lon.=26.086351, Alt.=147.662231m. Speed=0.000000m/h.</desc>
<speed>0.000000</speed>
</trkpt>
<trkpt lat="55.704334" lon="26.086351">
<ele>147.666138</ele>
<time>2010-07-17T20:19:46Z</time>
<desc>lat.=55.704334, lon.=26.086351, Alt.=147.666138m. Speed=0.036000m/h.</desc>
<speed>0.010000</speed>
</trkpt>
<trkpt lat="55.704334" lon="26.086351">
<ele>147.670044</ele>
<time>2010-07-17T20:19:47Z</time>
<desc>lat.=55.704334, lon.=26.086351, Alt.=147.670044m. Speed=0.072000m/h.</desc>
<speed>0.020000</speed>
</trkpt>
<trkpt lat="55.704334" lon="26.086351">
<ele>147.670044</ele>
<time>2010-07-17T20:19:48Z</time>
<desc>lat.=55.704334, lon.=26.086351, Alt.=147.670044m. Speed=0.072000m/h.</desc>
<speed>0.020000</speed>
</trkpt>
<trkpt lat="55.704334" lon="26.086351">
<ele>147.670044</ele>
<time>2010-07-17T20:19:49Z</time>
<desc>lat.=55.704334, lon.=26.086351, Alt.=147.670044m. Speed=0.072000m/h.</desc>
<speed>0.020000</speed>
</trkpt>
<trkpt lat="55.704334" lon="26.086351">
<ele>147.673950</ele>
<time>2010-07-17T20:19:50Z</time>
<desc>lat.=55.704334, lon.=26.086351, Alt.=147.673950m. Speed=0.036000m/h.</desc>
<speed>0.010000</speed>
</trkpt>
<trkpt lat="55.704334" lon="26.086351">
<ele>147.677856</ele>
<time>2010-07-17T20:19:51Z</time>
<desc>lat.=55.704334, lon.=26.086351, Alt.=147.677856m. Speed=0.000000m/h.</desc>
<speed>0.000000</speed>
</trkpt>
<trkpt lat="55.704334" lon="26.086351">
<ele>147.677856</ele>
<time>2010-07-17T20:19:52Z</time>
<desc>lat.=55.704334, lon.=26.086351, Alt.=147.677856m. Speed=0.036000m/h.</desc>
<speed>0.010000</speed>
</trkpt>
<trkpt lat="55.704334" lon="26.086351">
<ele>147.677856</ele>
<time>2010-07-17T20:19:53Z</time>
<desc>lat.=55.704334, lon.=26.086351, Alt.=147.677856m. Speed=0.072000m/h.</desc>
<speed>0.020000</speed>
</trkpt>
<trkpt lat="55.704334" lon="26.086351">
<ele>147.681763</ele>
<time>2010-07-17T20:19:54Z</time>
<desc>lat.=55.704334, lon.=26.086351, Alt.=147.681763m. Speed=0.108000m/h.</desc>
<speed>0.030000</speed>
</trkpt>
<trkpt lat="55.704334" lon="26.086351">
<ele>147.681763</ele>
<time>2010-07-17T20:19:55Z</time>
<desc>lat.=55.704334, lon.=26.086351, Alt.=147.681763m. Speed=0.000000m/h.</desc>
<speed>0.000000</speed>
</trkpt>
<trkpt lat="55.704334" lon="26.086351">
<ele>147.685669</ele>
<time>2010-07-17T20:19:56Z</time>
<desc>lat.=55.704334, lon.=26.086351, Alt.=147.685669m. Speed=0.108000m/h.</desc>
<speed>0.030000</speed>
</trkpt>
<trkpt lat="55.704334" lon="26.086351">
<ele>147.689575</ele>
<time>2010-07-17T20:19:57Z</time>
<desc>lat.=55.704334, lon.=26.086351, Alt.=147.689575m. Speed=0.072000m/h.</desc>
<speed>0.020000</speed>
</trkpt>
<trkpt lat="55.704334" lon="26.086351">
<ele>147.689575</ele>
<time>2010-07-17T20:19:58Z</time>
<desc>lat.=55.704334, lon.=26.086351, Alt.=147.689575m. Speed=0.072000m/h.</desc>
<speed>0.020000</speed>
</trkpt>
<trkpt lat="55.704334" lon="26.086351">
<ele>147.689575</ele>
<time>2010-07-17T20:19:59Z</time>
<desc>lat.=55.704334, lon.=26.086351, Alt.=147.689575m. Speed=0.072000m/h.</desc>
<speed>0.020000</speed>
</trkpt>
<trkpt lat="55.704334" lon="26.086351">
<ele>147.693481</ele>
<time>2010-07-17T20:20:00Z</time>
<desc>lat.=55.704334, lon.=26.086351, Alt.=147.693481m. Speed=0.036000m/h.</desc>
<speed>0.010000</speed>
</trkpt>
<trkpt lat="55.704334" lon="26.086351">
<ele>147.693481</ele>
<time>2010-07-17T20:20:01Z</time>
<desc>lat.=55.704334, lon.=26.086351, Alt.=147.693481m. Speed=0.036000m/h.</desc>
<speed>0.010000</speed>
</trkpt>
<trkpt lat="55.704334" lon="26.086351">
<ele>147.697388</ele>
<time>2010-07-17T20:20:02Z</time>
<desc>lat.=55.704334, lon.=26.086351, Alt.=147.697388m. Speed=0.072000m/h.</desc>
<speed>0.020000</speed>
</trkpt>
<trkpt lat="55.704334" lon="26.086351">
<ele>147.705200</ele>
<time>2010-07-17T20:20:03Z</time>
<desc>lat.=55.704334, lon.=26.086351, Alt.=147.705200m. Speed=0.072000m/h.</desc>
<speed>0.020000</speed>
</trkpt>
<trkpt lat="55.704334" lon="26.086351">
<ele>147.713013</ele>
<time>2010-07-17T20:20:04Z</time>
<desc>lat.=55.704334, lon.=26.086351, Alt.=147.713013m. Speed=0.108000m/h.</desc>
<speed>0.030000</speed>
</trkpt>
<trkpt lat="55.704334" lon="26.086351">
<ele>147.705200</ele>
<time>2010-07-17T20:20:05Z</time>
<desc>lat.=55.704334, lon.=26.086351, Alt.=147.705200m. Speed=0.072000m/h.</desc>
<speed>0.020000</speed>
</trkpt>
<trkpt lat="55.704338" lon="26.086351">
<ele>147.705200</ele>
<time>2010-07-17T20:20:06Z</time>
<desc>lat.=55.704338, lon.=26.086351, Alt.=147.705200m. Speed=0.036000m/h.</desc>
<speed>0.010000</speed>
</trkpt>
<trkpt lat="55.704338" lon="26.086351">
<ele>147.701294</ele>
<time>2010-07-17T20:20:07Z</time>
<desc>lat.=55.704338, lon.=26.086351, Alt.=147.701294m. Speed=0.036000m/h.</desc>
<speed>0.010000</speed>
</trkpt>
<trkpt lat="55.704338" lon="26.086351">
<ele>147.705200</ele>
<time>2010-07-17T20:20:08Z</time>
<desc>lat.=55.704338, lon.=26.086351, Alt.=147.705200m. Speed=0.108000m/h.</desc>
<speed>0.030000</speed>
</trkpt>
<trkpt lat="55.704338" lon="26.086351">
<ele>147.705200</ele>
<time>2010-07-17T20:20:09Z</time>
<desc>lat.=55.704338, lon.=26.086351, Alt.=147.705200m. Speed=0.036000m/h.</desc>
<speed>0.010000</speed>
</trkpt>
<trkpt lat="55.704338" lon="26.086353">
<ele>147.705200</ele>
<time>2010-07-17T20:20:10Z</time>
<desc>lat.=55.704338, lon.=26.086353, Alt.=147.705200m. Speed=0.072000m/h.</desc>
<speed>0.020000</speed>
</trkpt>
<trkpt lat="55.704338" lon="26.086353">
<ele>147.713013</ele>
<time>2010-07-17T20:20:11Z</time>
<desc>lat.=55.704338, lon.=26.086353, Alt.=147.713013m. Speed=0.108000m/h.</desc>
<speed>0.030000</speed>
</trkpt>
<trkpt lat="55.704338" lon="26.086353">
<ele>147.709106</ele>
<time>2010-07-17T20:20:12Z</time>
<desc>lat.=55.704338, lon.=26.086353, Alt.=147.709106m. Speed=0.000000m/h.</desc>
<speed>0.000000</speed>
</trkpt>
<trkpt lat="55.704338" lon="26.086353">
<ele>147.705200</ele>
<time>2010-07-17T20:20:13Z</time>
<desc>lat.=55.704338, lon.=26.086353, Alt.=147.705200m. Speed=0.000000m/h.</desc>
<speed>0.000000</speed>
</trkpt>
<trkpt lat="55.704338" lon="26.086353">
<ele>147.701294</ele>
<time>2010-07-17T20:20:14Z</time>
<desc>lat.=55.704338, lon.=26.086353, Alt.=147.701294m. Speed=0.072000m/h.</desc>
<speed>0.020000</speed>
</trkpt>
<trkpt lat="55.704338" lon="26.086353">
<ele>147.693481</ele>
<time>2010-07-17T20:20:15Z</time>
<desc>lat.=55.704338, lon.=26.086353, Alt.=147.693481m. Speed=0.072000m/h.</desc>
<speed>0.020000</speed>
</trkpt>
<trkpt lat="55.704338" lon="26.086353">
<ele>147.689575</ele>
<time>2010-07-17T20:20:16Z</time>
<desc>lat.=55.704338, lon.=26.086353, Alt.=147.689575m. Speed=0.072000m/h.</desc>
<speed>0.020000</speed>
</trkpt>
<trkpt lat="55.704338" lon="26.086353">
<ele>147.685669</ele>
<time>2010-07-17T20:20:17Z</time>
<desc>lat.=55.704338, lon.=26.086353, Alt.=147.685669m. Speed=0.108000m/h.</desc>
<speed>0.030000</speed>
</trkpt>
<trkpt lat="55.704338" lon="26.086353">
<ele>147.681763</ele>
<time>2010-07-17T20:20:18Z</time>
<desc>lat.=55.704338, lon.=26.086353, Alt.=147.681763m. Speed=0.108000m/h.</desc>
<speed>0.030000</speed>
</trkpt>
<trkpt lat="55.704338" lon="26.086353">
<ele>147.670044</ele>
<time>2010-07-17T20:20:19Z</time>
<desc>lat.=55.704338, lon.=26.086353, Alt.=147.670044m. Speed=0.108000m/h.</desc>
<speed>0.030000</speed>
</trkpt>
<trkpt lat="55.704338" lon="26.086353">
<ele>147.666138</ele>
<time>2010-07-17T20:20:20Z</time>
<desc>lat.=55.704338, lon.=26.086353, Alt.=147.666138m. Speed=0.072000m/h.</desc>
<speed>0.020000</speed>
</trkpt>
<trkpt lat="55.704338" lon="26.086353">
<ele>147.666138</ele>
<time>2010-07-17T20:20:21Z</time>
<desc>lat.=55.704338, lon.=26.086353, Alt.=147.666138m. Speed=0.072000m/h.</desc>
<speed>0.020000</speed>
</trkpt>
<trkpt lat="55.704338" lon="26.086353">
<ele>147.662231</ele>
<time>2010-07-17T20:20:22Z</time>
<desc>lat.=55.704338, lon.=26.086353, Alt.=147.662231m. Speed=0.108000m/h.</desc>
<speed>0.030000</speed>
</trkpt>
<trkpt lat="55.704338" lon="26.086353">
<ele>147.658325</ele>
<time>2010-07-17T20:20:23Z</time>
<desc>lat.=55.704338, lon.=26.086353, Alt.=147.658325m. Speed=0.000000m/h.</desc>
<speed>0.000000</speed>
</trkpt>
<trkpt lat="55.704338" lon="26.086353">
<ele>147.654419</ele>
<time>2010-07-17T20:20:24Z</time>
<desc>lat.=55.704338, lon.=26.086353, Alt.=147.654419m. Speed=0.036000m/h.</desc>
<speed>0.010000</speed>
</trkpt>
<trkpt lat="55.704338" lon="26.086353">
<ele>147.654419</ele>
<time>2010-07-17T20:20:25Z</time>
<desc>lat.=55.704338, lon.=26.086353, Alt.=147.654419m. Speed=0.036000m/h.</desc>
<speed>0.010000</speed>
</trkpt>
<trkpt lat="55.704338" lon="26.086353">
<ele>147.654419</ele>
<time>2010-07-17T20:20:26Z</time>
<desc>lat.=55.704338, lon.=26.086353, Alt.=147.654419m. Speed=0.036000m/h.</desc>
<speed>0.010000</speed>
</trkpt>
<trkpt lat="55.704338" lon="26.086353">
<ele>147.654419</ele>
<time>2010-07-17T20:20:27Z</time>
<desc>lat.=55.704338, lon.=26.086353, Alt.=147.654419m. Speed=0.072000m/h.</desc>
<speed>0.020000</speed>
</trkpt>
<trkpt lat="55.704338" lon="26.086353">
<ele>147.654419</ele>
<time>2010-07-17T20:20:28Z</time>
<desc>lat.=55.704338, lon.=26.086353, Alt.=147.654419m. Speed=0.072000m/h.</desc>
<speed>0.020000</speed>
</trkpt>
<trkpt lat="55.704338" lon="26.086353">
<ele>147.650513</ele>
<time>2010-07-17T20:20:29Z</time>
<desc>lat.=55.704338, lon.=26.086353, Alt.=147.650513m. Speed=0.108000m/h.</desc>
<speed>0.030000</speed>
</trkpt>
<trkpt lat="55.704338" lon="26.086353">
<ele>147.650513</ele>
<time>2010-07-17T20:20:30Z</time>
<desc>lat.=55.704338, lon.=26.086353, Alt.=147.650513m. Speed=0.000000m/h.</desc>
<speed>0.000000</speed>
</trkpt>
<trkpt lat="55.704338" lon="26.086353">
<ele>147.654419</ele>
<time>2010-07-17T20:20:31Z</time>
<desc>lat.=55.704338, lon.=26.086353, Alt.=147.654419m. Speed=0.000000m/h.</desc>
<speed>0.000000</speed>
</trkpt>
<trkpt lat="55.704338" lon="26.086353">
<ele>147.654419</ele>
<time>2010-07-17T20:20:32Z</time>
<desc>lat.=55.704338, lon.=26.086353, Alt.=147.654419m. Speed=0.000000m/h.</desc>
<speed>0.000000</speed>
</trkpt>
<trkpt lat="55.704338" lon="26.086353">
<ele>147.650513</ele>
<time>2010-07-17T20:20:33Z</time>
<desc>lat.=55.704338, lon.=26.086353, Alt.=147.650513m. Speed=0.000000m/h.</desc>
<speed>0.000000</speed>
</trkpt>
<trkpt lat="55.704338" lon="26.086353">
<ele>147.650513</ele>
<time>2010-07-17T20:20:34Z</time>
<desc>lat.=55.704338, lon.=26.086353, Alt.=147.650513m. Speed=0.000000m/h.</desc>
<speed>0.000000</speed>
</trkpt>
<trkpt lat="55.704338" lon="26.086353">
<ele>147.658325</ele>
<time>2010-07-17T20:20:35Z</time>
<desc>lat.=55.704338, lon.=26.086353, Alt.=147.658325m. Speed=0.000000m/h.</desc>
<speed>0.000000</speed>
</trkpt>
<trkpt lat="55.704338" lon="26.086353">
<ele>147.662231</ele>
<time>2010-07-17T20:20:36Z</time>
<desc>lat.=55.704338, lon.=26.086353, Alt.=147.662231m. Speed=0.036000m/h.</desc>
<speed>0.010000</speed>
</trkpt>
<trkpt lat="55.704338" lon="26.086353">
<ele>147.658325</ele>
<time>2010-07-17T20:20:37Z</time>
<desc>lat.=55.704338, lon.=26.086353, Alt.=147.658325m. Speed=0.072000m/h.</desc>
<speed>0.020000</speed>
</trkpt>
<trkpt lat="55.704338" lon="26.086353">
<ele>147.666138</ele>
<time>2010-07-17T20:20:38Z</time>
<desc>lat.=55.704338, lon.=26.086353, Alt.=147.666138m. Speed=0.000000m/h.</desc>
<speed>0.000000</speed>
</trkpt>
<trkpt lat="55.704338" lon="26.086353">
<ele>147.670044</ele>
<time>2010-07-17T20:20:39Z</time>
<desc>lat.=55.704338, lon.=26.086353, Alt.=147.670044m. Speed=0.072000m/h.</desc>
<speed>0.020000</speed>
</trkpt>
<trkpt lat="55.704338" lon="26.086353">
<ele>147.673950</ele>
<time>2010-07-17T20:20:40Z</time>
<desc>lat.=55.704338, lon.=26.086353, Alt.=147.673950m. Speed=0.036000m/h.</desc>
<speed>0.010000</speed>
</trkpt>
<trkpt lat="55.704338" lon="26.086353">
<ele>147.673950</ele>
<time>2010-07-17T20:20:41Z</time>
<desc>lat.=55.704338, lon.=26.086353, Alt.=147.673950m. Speed=0.216000m/h.</desc>
<speed>0.060000</speed>
</trkpt>
<trkpt lat="55.704338" lon="26.086353">
<ele>147.677856</ele>
<time>2010-07-17T20:20:42Z</time>
<desc>lat.=55.704338, lon.=26.086353, Alt.=147.677856m. Speed=0.036000m/h.</desc>
<speed>0.010000</speed>
</trkpt>
<trkpt lat="55.704338" lon="26.086353">
<ele>147.681763</ele>
<time>2010-07-17T20:20:43Z</time>
<desc>lat.=55.704338, lon.=26.086353, Alt.=147.681763m. Speed=0.036000m/h.</desc>
<speed>0.010000</speed>
</trkpt>
<trkpt lat="55.704338" lon="26.086351">
<ele>147.681763</ele>
<time>2010-07-17T20:20:44Z</time>
<desc>lat.=55.704338, lon.=26.086351, Alt.=147.681763m. Speed=0.072000m/h.</desc>
<speed>0.020000</speed>
</trkpt>
<trkpt lat="55.704338" lon="26.086351">
<ele>147.685669</ele>
<time>2010-07-17T20:20:45Z</time>
<desc>lat.=55.704338, lon.=26.086351, Alt.=147.685669m. Speed=0.036000m/h.</desc>
<speed>0.010000</speed>
</trkpt>
<trkpt lat="55.704338" lon="26.086351">
<ele>147.689575</ele>
<time>2010-07-17T20:20:46Z</time>
<desc>lat.=55.704338, lon.=26.086351, Alt.=147.689575m. Speed=0.072000m/h.</desc>
<speed>0.020000</speed>
</trkpt>
<trkpt lat="55.704338" lon="26.086351">
<ele>147.693481</ele>
<time>2010-07-17T20:20:47Z</time>
<desc>lat.=55.704338, lon.=26.086351, Alt.=147.693481m. Speed=0.072000m/h.</desc>
<speed>0.020000</speed>
</trkpt>
<trkpt lat="55.704338" lon="26.086351">
<ele>147.693481</ele>
<time>2010-07-17T20:20:48Z</time>
<desc>lat.=55.704338, lon.=26.086351, Alt.=147.693481m. Speed=0.036000m/h.</desc>
<speed>0.010000</speed>
</trkpt>
<trkpt lat="55.704338" lon="26.086351">
<ele>147.701294</ele>
<time>2010-07-17T20:20:49Z</time>
<desc>lat.=55.704338, lon.=26.086351, Alt.=147.701294m. Speed=0.036000m/h.</desc>
<speed>0.010000</speed>
</trkpt>
<trkpt lat="55.704338" lon="26.086351">
<ele>147.701294</ele>
<time>2010-07-17T20:20:50Z</time>
<desc>lat.=55.704338, lon.=26.086351, Alt.=147.701294m. Speed=0.108000m/h.</desc>
<speed>0.030000</speed>
</trkpt>
<trkpt lat="55.704338" lon="26.086351">
<ele>147.705200</ele>
<time>2010-07-17T20:20:51Z</time>
<desc>lat.=55.704338, lon.=26.086351, Alt.=147.705200m. Speed=0.072000m/h.</desc>
<speed>0.020000</speed>
</trkpt>
<trkpt lat="55.704338" lon="26.086351">
<ele>147.716919</ele>
<time>2010-07-17T20:20:52Z</time>
<desc>lat.=55.704338, lon.=26.086351, Alt.=147.716919m. Speed=0.036000m/h.</desc>
<speed>0.010000</speed>
</trkpt>
<trkpt lat="55.704338" lon="26.086351">
<ele>147.720825</ele>
<time>2010-07-17T20:20:53Z</time>
<desc>lat.=55.704338, lon.=26.086351, Alt.=147.720825m. Speed=0.000000m/h.</desc>
<speed>0.000000</speed>
</trkpt>
<trkpt lat="55.704338" lon="26.086351">
<ele>147.728638</ele>
<time>2010-07-17T20:20:54Z</time>
<desc>lat.=55.704338, lon.=26.086351, Alt.=147.728638m. Speed=0.036000m/h.</desc>
<speed>0.010000</speed>
</trkpt>
<trkpt lat="55.704338" lon="26.086351">
<ele>147.732544</ele>
<time>2010-07-17T20:20:55Z</time>
<desc>lat.=55.704338, lon.=26.086351, Alt.=147.732544m. Speed=0.072000m/h.</desc>
<speed>0.020000</speed>
</trkpt>
<trkpt lat="55.704338" lon="26.086351">
<ele>147.736450</ele>
<time>2010-07-17T20:20:56Z</time>
<desc>lat.=55.704338, lon.=26.086351, Alt.=147.736450m. Speed=0.036000m/h.</desc>
<speed>0.010000</speed>
</trkpt>
<trkpt lat="55.704338" lon="26.086351">
<ele>147.740356</ele>
<time>2010-07-17T20:20:57Z</time>
<desc>lat.=55.704338, lon.=26.086351, Alt.=147.740356m. Speed=0.000000m/h.</desc>
<speed>0.000000</speed>
</trkpt>
<trkpt lat="55.704338" lon="26.086351">
<ele>147.740356</ele>
<time>2010-07-17T20:20:58Z</time>
<desc>lat.=55.704338, lon.=26.086351, Alt.=147.740356m. Speed=0.144000m/h.</desc>
<speed>0.040000</speed>
</trkpt>
<trkpt lat="55.704338" lon="26.086351">
<ele>147.744263</ele>
<time>2010-07-17T20:20:59Z</time>
<desc>lat.=55.704338, lon.=26.086351, Alt.=147.744263m. Speed=0.072000m/h.</desc>
<speed>0.020000</speed>
</trkpt>
<trkpt lat="55.704338" lon="26.086351">
<ele>147.744263</ele>
<time>2010-07-17T20:21:00Z</time>
<desc>lat.=55.704338, lon.=26.086351, Alt.=147.744263m. Speed=0.072000m/h.</desc>
<speed>0.020000</speed>
</trkpt>
<trkpt lat="55.704338" lon="26.086351">
<ele>147.748169</ele>
<time>2010-07-17T20:21:01Z</time>
<desc>lat.=55.704338, lon.=26.086351, Alt.=147.748169m. Speed=0.144000m/h.</desc>
<speed>0.040000</speed>
</trkpt>
<trkpt lat="55.704338" lon="26.086349">
<ele>147.752075</ele>
<time>2010-07-17T20:21:02Z</time>
<desc>lat.=55.704338, lon.=26.086349, Alt.=147.752075m. Speed=0.108000m/h.</desc>
<speed>0.030000</speed>
</trkpt>
<trkpt lat="55.704338" lon="26.086349">
<ele>147.755981</ele>
<time>2010-07-17T20:21:03Z</time>
<desc>lat.=55.704338, lon.=26.086349, Alt.=147.755981m. Speed=0.000000m/h.</desc>
<speed>0.000000</speed>
</trkpt>
<trkpt lat="55.704338" lon="26.086349">
<ele>147.755981</ele>
<time>2010-07-17T20:21:04Z</time>
<desc>lat.=55.704338, lon.=26.086349, Alt.=147.755981m. Speed=0.108000m/h.</desc>
<speed>0.030000</speed>
</trkpt>
<trkpt lat="55.704338" lon="26.086349">
<ele>147.759888</ele>
<time>2010-07-17T20:21:05Z</time>
<desc>lat.=55.704338, lon.=26.086349, Alt.=147.759888m. Speed=0.072000m/h.</desc>
<speed>0.020000</speed>
</trkpt>
<trkpt lat="55.704338" lon="26.086349">
<ele>147.759888</ele>
<time>2010-07-17T20:21:06Z</time>
<desc>lat.=55.704338, lon.=26.086349, Alt.=147.759888m. Speed=0.072000m/h.</desc>
<speed>0.020000</speed>
</trkpt>
<trkpt lat="55.704338" lon="26.086349">
<ele>147.759888</ele>
<time>2010-07-17T20:21:07Z</time>
<desc>lat.=55.704338, lon.=26.086349, Alt.=147.759888m. Speed=0.108000m/h.</desc>
<speed>0.030000</speed>
</trkpt>
<trkpt lat="55.704338" lon="26.086349">
<ele>147.759888</ele>
<time>2010-07-17T20:21:08Z</time>
<desc>lat.=55.704338, lon.=26.086349, Alt.=147.759888m. Speed=0.036000m/h.</desc>
<speed>0.010000</speed>
</trkpt>
<trkpt lat="55.704338" lon="26.086349">
<ele>147.763794</ele>
<time>2010-07-17T20:21:09Z</time>
<desc>lat.=55.704338, lon.=26.086349, Alt.=147.763794m. Speed=0.000000m/h.</desc>
<speed>0.000000</speed>
</trkpt>
<trkpt lat="55.704338" lon="26.086349">
<ele>147.763794</ele>
<time>2010-07-17T20:21:10Z</time>
<desc>lat.=55.704338, lon.=26.086349, Alt.=147.763794m. Speed=0.108000m/h.</desc>
<speed>0.030000</speed>
</trkpt>
<trkpt lat="55.704338" lon="26.086349">
<ele>147.763794</ele>
<time>2010-07-17T20:21:11Z</time>
<desc>lat.=55.704338, lon.=26.086349, Alt.=147.763794m. Speed=0.036000m/h.</desc>
<speed>0.010000</speed>
</trkpt>
<trkpt lat="55.704338" lon="26.086349">
<ele>147.763794</ele>
<time>2010-07-17T20:21:12Z</time>
<desc>lat.=55.704338, lon.=26.086349, Alt.=147.763794m. Speed=0.072000m/h.</desc>
<speed>0.020000</speed>
</trkpt>
<trkpt lat="55.704338" lon="26.086349">
<ele>147.763794</ele>
<time>2010-07-17T20:21:13Z</time>
<desc>lat.=55.704338, lon.=26.086349, Alt.=147.763794m. Speed=0.072000m/h.</desc>
<speed>0.020000</speed>
</trkpt>
<trkpt lat="55.704338" lon="26.086349">
<ele>147.763794</ele>
<time>2010-07-17T20:21:14Z</time>
<desc>lat.=55.704338, lon.=26.086349, Alt.=147.763794m. Speed=0.072000m/h.</desc>
<speed>0.020000</speed>
</trkpt>
<trkpt lat="55.704338" lon="26.086349">
<ele>147.763794</ele>
<time>2010-07-17T20:21:15Z</time>
<desc>lat.=55.704338, lon.=26.086349, Alt.=147.763794m. Speed=0.072000m/h.</desc>
<speed>0.020000</speed>
</trkpt>
<trkpt lat="55.704338" lon="26.086349">
<ele>147.767700</ele>
<time>2010-07-17T20:21:16Z</time>
<desc>lat.=55.704338, lon.=26.086349, Alt.=147.767700m. Speed=0.000000m/h.</desc>
<speed>0.000000</speed>
</trkpt>
<trkpt lat="55.704338" lon="26.086349">
<ele>147.767700</ele>
<time>2010-07-17T20:21:17Z</time>
<desc>lat.=55.704338, lon.=26.086349, Alt.=147.767700m. Speed=0.000000m/h.</desc>
<speed>0.000000</speed>
</trkpt>
<trkpt lat="55.704338" lon="26.086349">
<ele>147.771606</ele>
<time>2010-07-17T20:21:18Z</time>
<desc>lat.=55.704338, lon.=26.086349, Alt.=147.771606m. Speed=0.072000m/h.</desc>
<speed>0.020000</speed>
</trkpt>
<trkpt lat="55.704338" lon="26.086349">
<ele>147.775513</ele>
<time>2010-07-17T20:21:19Z</time>
<desc>lat.=55.704338, lon.=26.086349, Alt.=147.775513m. Speed=0.000000m/h.</desc>
<speed>0.000000</speed>
</trkpt>
<trkpt lat="55.704338" lon="26.086349">
<ele>147.779419</ele>
<time>2010-07-17T20:21:20Z</time>
<desc>lat.=55.704338, lon.=26.086349, Alt.=147.779419m. Speed=0.000000m/h.</desc>
<speed>0.000000</speed>
</trkpt>
<trkpt lat="55.704338" lon="26.086349">
<ele>147.783325</ele>
<time>2010-07-17T20:21:21Z</time>
<desc>lat.=55.704338, lon.=26.086349, Alt.=147.783325m. Speed=0.072000m/h.</desc>
<speed>0.020000</speed>
</trkpt>
<trkpt lat="55.704338" lon="26.086349">
<ele>147.783325</ele>
<time>2010-07-17T20:21:22Z</time>
<desc>lat.=55.704338, lon.=26.086349, Alt.=147.783325m. Speed=0.000000m/h.</desc>
<speed>0.000000</speed>
</trkpt>
<trkpt lat="55.704338" lon="26.086349">
<ele>147.783325</ele>
<time>2010-07-17T20:21:23Z</time>
<desc>lat.=55.704338, lon.=26.086349, Alt.=147.783325m. Speed=0.144000m/h.</desc>
<speed>0.040000</speed>
</trkpt>
<trkpt lat="55.704338" lon="26.086349">
<ele>147.783325</ele>
<time>2010-07-17T20:21:24Z</time>
<desc>lat.=55.704338, lon.=26.086349, Alt.=147.783325m. Speed=0.036000m/h.</desc>
<speed>0.010000</speed>
</trkpt>
<trkpt lat="55.704338" lon="26.086349">
<ele>147.783325</ele>
<time>2010-07-17T20:21:25Z</time>
<desc>lat.=55.704338, lon.=26.086349, Alt.=147.783325m. Speed=0.036000m/h.</desc>
<speed>0.010000</speed>
</trkpt>
<trkpt lat="55.704338" lon="26.086349">
<ele>147.783325</ele>
<time>2010-07-17T20:21:26Z</time>
<desc>lat.=55.704338, lon.=26.086349, Alt.=147.783325m. Speed=0.072000m/h.</desc>
<speed>0.020000</speed>
</trkpt>
<trkpt lat="55.704338" lon="26.086349">
<ele>147.779419</ele>
<time>2010-07-17T20:21:27Z</time>
<desc>lat.=55.704338, lon.=26.086349, Alt.=147.779419m. Speed=0.072000m/h.</desc>
<speed>0.020000</speed>
</trkpt>
<trkpt lat="55.704338" lon="26.086349">
<ele>147.775513</ele>
<time>2010-07-17T20:21:28Z</time>
<desc>lat.=55.704338, lon.=26.086349, Alt.=147.775513m. Speed=0.036000m/h.</desc>
<speed>0.010000</speed>
</trkpt>
<trkpt lat="55.704338" lon="26.086349">
<ele>147.771606</ele>
<time>2010-07-17T20:21:29Z</time>
<desc>lat.=55.704338, lon.=26.086349, Alt.=147.771606m. Speed=0.036000m/h.</desc>
<speed>0.010000</speed>
</trkpt>
<trkpt lat="55.704338" lon="26.086349">
<ele>147.763794</ele>
<time>2010-07-17T20:21:30Z</time>
<desc>lat.=55.704338, lon.=26.086349, Alt.=147.763794m. Speed=0.072000m/h.</desc>
<speed>0.020000</speed>
</trkpt>
<trkpt lat="55.704338" lon="26.086349">
<ele>147.755981</ele>
<time>2010-07-17T20:21:31Z</time>
<desc>lat.=55.704338, lon.=26.086349, Alt.=147.755981m. Speed=0.072000m/h.</desc>
<speed>0.020000</speed>
</trkpt>
<trkpt lat="55.704338" lon="26.086349">
<ele>147.755981</ele>
<time>2010-07-17T20:21:32Z</time>
<desc>lat.=55.704338, lon.=26.086349, Alt.=147.755981m. Speed=0.000000m/h.</desc>
<speed>0.000000</speed>
</trkpt>
<trkpt lat="55.704338" lon="26.086349">
<ele>147.755981</ele>
<time>2010-07-17T20:21:33Z</time>
<desc>lat.=55.704338, lon.=26.086349, Alt.=147.755981m. Speed=0.036000m/h.</desc>
<speed>0.010000</speed>
</trkpt>
<trkpt lat="55.704338" lon="26.086349">
<ele>147.755981</ele>
<time>2010-07-17T20:21:34Z</time>
<desc>lat.=55.704338, lon.=26.086349, Alt.=147.755981m. Speed=0.000000m/h.</desc>
<speed>0.000000</speed>
</trkpt>
<trkpt lat="55.704338" lon="26.086349">
<ele>147.748169</ele>
<time>2010-07-17T20:21:35Z</time>
<desc>lat.=55.704338, lon.=26.086349, Alt.=147.748169m. Speed=0.000000m/h.</desc>
<speed>0.000000</speed>
</trkpt>
<trkpt lat="55.704338" lon="26.086349">
<ele>147.748169</ele>
<time>2010-07-17T20:21:36Z</time>
<desc>lat.=55.704338, lon.=26.086349, Alt.=147.748169m. Speed=0.000000m/h.</desc>
<speed>0.000000</speed>
</trkpt>
<trkpt lat="55.704338" lon="26.086349">
<ele>147.744263</ele>
<time>2010-07-17T20:21:37Z</time>
<desc>lat.=55.704338, lon.=26.086349, Alt.=147.744263m. Speed=0.000000m/h.</desc>
<speed>0.000000</speed>
</trkpt>
<trkpt lat="55.704338" lon="26.086349">
<ele>147.740356</ele>
<time>2010-07-17T20:21:38Z</time>
<desc>lat.=55.704338, lon.=26.086349, Alt.=147.740356m. Speed=0.000000m/h.</desc>
<speed>0.000000</speed>
</trkpt>
<trkpt lat="55.704338" lon="26.086349">
<ele>147.740356</ele>
<time>2010-07-17T20:21:39Z</time>
<desc>lat.=55.704338, lon.=26.086349, Alt.=147.740356m. Speed=0.000000m/h.</desc>
<speed>0.000000</speed>
</trkpt>
<trkpt lat="55.704338" lon="26.086349">
<ele>147.740356</ele>
<time>2010-07-17T20:21:40Z</time>
<desc>lat.=55.704338, lon.=26.086349, Alt.=147.740356m. Speed=0.000000m/h.</desc>
<speed>0.000000</speed>
</trkpt>
<trkpt lat="55.704338" lon="26.086349">
<ele>147.736450</ele>
<time>2010-07-17T20:21:41Z</time>
<desc>lat.=55.704338, lon.=26.086349, Alt.=147.736450m. Speed=0.036000m/h.</desc>
<speed>0.010000</speed>
</trkpt>
<trkpt lat="55.704338" lon="26.086349">
<ele>147.732544</ele>
<time>2010-07-17T20:21:42Z</time>
<desc>lat.=55.704338, lon.=26.086349, Alt.=147.732544m. Speed=0.036000m/h.</desc>
<speed>0.010000</speed>
</trkpt>
<trkpt lat="55.704338" lon="26.086349">
<ele>147.724731</ele>
<time>2010-07-17T20:21:43Z</time>
<desc>lat.=55.704338, lon.=26.086349, Alt.=147.724731m. Speed=0.000000m/h.</desc>
<speed>0.000000</speed>
</trkpt>
<trkpt lat="55.704338" lon="26.086349">
<ele>147.709106</ele>
<time>2010-07-17T20:21:44Z</time>
<desc>lat.=55.704338, lon.=26.086349, Alt.=147.709106m. Speed=0.036000m/h.</desc>
<speed>0.010000</speed>
</trkpt>
<trkpt lat="55.704338" lon="26.086349">
<ele>147.693481</ele>
<time>2010-07-17T20:21:45Z</time>
<desc>lat.=55.704338, lon.=26.086349, Alt.=147.693481m. Speed=0.072000m/h.</desc>
<speed>0.020000</speed>
</trkpt>
<trkpt lat="55.704338" lon="26.086348">
<ele>147.689575</ele>
<time>2010-07-17T20:21:46Z</time>
<desc>lat.=55.704338, lon.=26.086348, Alt.=147.689575m. Speed=0.108000m/h.</desc>
<speed>0.030000</speed>
</trkpt>
<trkpt lat="55.704334" lon="26.086348">
<ele>147.673950</ele>
<time>2010-07-17T20:21:47Z</time>
<desc>lat.=55.704334, lon.=26.086348, Alt.=147.673950m. Speed=0.072000m/h.</desc>
<speed>0.020000</speed>
</trkpt>
<trkpt lat="55.704334" lon="26.086348">
<ele>147.658325</ele>
<time>2010-07-17T20:21:48Z</time>
<desc>lat.=55.704334, lon.=26.086348, Alt.=147.658325m. Speed=0.108000m/h.</desc>
<speed>0.030000</speed>
</trkpt>
<trkpt lat="55.704334" lon="26.086348">
<ele>147.646606</ele>
<time>2010-07-17T20:21:49Z</time>
<desc>lat.=55.704334, lon.=26.086348, Alt.=147.646606m. Speed=0.144000m/h.</desc>
<speed>0.040000</speed>
</trkpt>
<trkpt lat="55.704334" lon="26.086348">
<ele>147.638794</ele>
<time>2010-07-17T20:21:50Z</time>
<desc>lat.=55.704334, lon.=26.086348, Alt.=147.638794m. Speed=0.036000m/h.</desc>
<speed>0.010000</speed>
</trkpt>
<trkpt lat="55.704334" lon="26.086348">
<ele>147.630981</ele>
<time>2010-07-17T20:21:51Z</time>
<desc>lat.=55.704334, lon.=26.086348, Alt.=147.630981m. Speed=0.072000m/h.</desc>
<speed>0.020000</speed>
</trkpt>
<trkpt lat="55.704334" lon="26.086348">
<ele>147.619263</ele>
<time>2010-07-17T20:21:52Z</time>
<desc>lat.=55.704334, lon.=26.086348, Alt.=147.619263m. Speed=0.036000m/h.</desc>
<speed>0.010000</speed>
</trkpt>
<trkpt lat="55.704334" lon="26.086348">
<ele>147.607544</ele>
<time>2010-07-17T20:21:53Z</time>
<desc>lat.=55.704334, lon.=26.086348, Alt.=147.607544m. Speed=0.144000m/h.</desc>
<speed>0.040000</speed>
</trkpt>
<trkpt lat="55.704334" lon="26.086348">
<ele>147.595825</ele>
<time>2010-07-17T20:21:54Z</time>
<desc>lat.=55.704334, lon.=26.086348, Alt.=147.595825m. Speed=0.180000m/h.</desc>
<speed>0.050000</speed>
</trkpt>
<trkpt lat="55.704334" lon="26.086348">
<ele>147.580200</ele>
<time>2010-07-17T20:21:55Z</time>
<desc>lat.=55.704334, lon.=26.086348, Alt.=147.580200m. Speed=0.252000m/h.</desc>
<speed>0.070000</speed>
</trkpt>
<trkpt lat="55.704334" lon="26.086348">
<ele>147.576294</ele>
<time>2010-07-17T20:21:56Z</time>
<desc>lat.=55.704334, lon.=26.086348, Alt.=147.576294m. Speed=0.108000m/h.</desc>
<speed>0.030000</speed>
</trkpt>
<trkpt lat="55.704334" lon="26.086348">
<ele>147.568481</ele>
<time>2010-07-17T20:21:57Z</time>
<desc>lat.=55.704334, lon.=26.086348, Alt.=147.568481m. Speed=0.072000m/h.</desc>
<speed>0.020000</speed>
</trkpt>
<trkpt lat="55.704334" lon="26.086348">
<ele>147.564575</ele>
<time>2010-07-17T20:21:58Z</time>
<desc>lat.=55.704334, lon.=26.086348, Alt.=147.564575m. Speed=0.072000m/h.</desc>
<speed>0.020000</speed>
</trkpt>
<trkpt lat="55.704334" lon="26.086348">
<ele>147.548950</ele>
<time>2010-07-17T20:21:59Z</time>
<desc>lat.=55.704334, lon.=26.086348, Alt.=147.548950m. Speed=0.036000m/h.</desc>
<speed>0.010000</speed>
</trkpt>
<trkpt lat="55.704334" lon="26.086348">
<ele>147.533325</ele>
<time>2010-07-17T20:22:00Z</time>
<desc>lat.=55.704334, lon.=26.086348, Alt.=147.533325m. Speed=0.036000m/h.</desc>
<speed>0.010000</speed>
</trkpt>
<trkpt lat="55.704334" lon="26.086348">
<ele>147.517700</ele>
<time>2010-07-17T20:22:01Z</time>
<desc>lat.=55.704334, lon.=26.086348, Alt.=147.517700m. Speed=0.072000m/h.</desc>
<speed>0.020000</speed>
</trkpt>
<trkpt lat="55.704334" lon="26.086348">
<ele>147.509888</ele>
<time>2010-07-17T20:22:02Z</time>
<desc>lat.=55.704334, lon.=26.086348, Alt.=147.509888m. Speed=0.144000m/h.</desc>
<speed>0.040000</speed>
</trkpt>
<trkpt lat="55.704334" lon="26.086348">
<ele>147.502075</ele>
<time>2010-07-17T20:22:03Z</time>
<desc>lat.=55.704334, lon.=26.086348, Alt.=147.502075m. Speed=0.072000m/h.</desc>
<speed>0.020000</speed>
</trkpt>
<trkpt lat="55.704334" lon="26.086348">
<ele>147.494263</ele>
<time>2010-07-17T20:22:04Z</time>
<desc>lat.=55.704334, lon.=26.086348, Alt.=147.494263m. Speed=0.108000m/h.</desc>
<speed>0.030000</speed>
</trkpt>
<trkpt lat="55.704334" lon="26.086348">
<ele>147.482544</ele>
<time>2010-07-17T20:22:05Z</time>
<desc>lat.=55.704334, lon.=26.086348, Alt.=147.482544m. Speed=0.036000m/h.</desc>
<speed>0.010000</speed>
</trkpt>
<trkpt lat="55.704334" lon="26.086349">
<ele>147.474731</ele>
<time>2010-07-17T20:22:06Z</time>
<desc>lat.=55.704334, lon.=26.086349, Alt.=147.474731m. Speed=0.072000m/h.</desc>
<speed>0.020000</speed>
</trkpt>
<trkpt lat="55.704334" lon="26.086349">
<ele>147.474731</ele>
<time>2010-07-17T20:22:07Z</time>
<desc>lat.=55.704334, lon.=26.086349, Alt.=147.474731m. Speed=0.036000m/h.</desc>
<speed>0.010000</speed>
</trkpt>
<trkpt lat="55.704334" lon="26.086349">
<ele>147.478638</ele>
<time>2010-07-17T20:22:08Z</time>
<desc>lat.=55.704334, lon.=26.086349, Alt.=147.478638m. Speed=0.036000m/h.</desc>
<speed>0.010000</speed>
</trkpt>
<trkpt lat="55.704334" lon="26.086349">
<ele>147.482544</ele>
<time>2010-07-17T20:22:09Z</time>
<desc>lat.=55.704334, lon.=26.086349, Alt.=147.482544m. Speed=0.072000m/h.</desc>
<speed>0.020000</speed>
</trkpt>
<trkpt lat="55.704334" lon="26.086349">
<ele>147.482544</ele>
<time>2010-07-17T20:22:10Z</time>
<desc>lat.=55.704334, lon.=26.086349, Alt.=147.482544m. Speed=0.036000m/h.</desc>
<speed>0.010000</speed>
</trkpt>
<trkpt lat="55.704334" lon="26.086349">
<ele>147.486450</ele>
<time>2010-07-17T20:22:11Z</time>
<desc>lat.=55.704334, lon.=26.086349, Alt.=147.486450m. Speed=0.036000m/h.</desc>
<speed>0.010000</speed>
</trkpt>
<trkpt lat="55.704334" lon="26.086349">
<ele>147.486450</ele>
<time>2010-07-17T20:22:12Z</time>
<desc>lat.=55.704334, lon.=26.086349, Alt.=147.486450m. Speed=0.036000m/h.</desc>
<speed>0.010000</speed>
</trkpt>
<trkpt lat="55.704334" lon="26.086349">
<ele>147.486450</ele>
<time>2010-07-17T20:22:13Z</time>
<desc>lat.=55.704334, lon.=26.086349, Alt.=147.486450m. Speed=0.000000m/h.</desc>
<speed>0.000000</speed>
</trkpt>
<trkpt lat="55.704334" lon="26.086349">
<ele>147.486450</ele>
<time>2010-07-17T20:22:14Z</time>
<desc>lat.=55.704334, lon.=26.086349, Alt.=147.486450m. Speed=0.000000m/h.</desc>
<speed>0.000000</speed>
</trkpt>
<trkpt lat="55.704334" lon="26.086348">
<ele>147.490356</ele>
<time>2010-07-17T20:22:15Z</time>
<desc>lat.=55.704334, lon.=26.086348, Alt.=147.490356m. Speed=0.036000m/h.</desc>
<speed>0.010000</speed>
</trkpt>
<trkpt lat="55.704334" lon="26.086348">
<ele>147.494263</ele>
<time>2010-07-17T20:22:16Z</time>
<desc>lat.=55.704334, lon.=26.086348, Alt.=147.494263m. Speed=0.036000m/h.</desc>
<speed>0.010000</speed>
</trkpt>
<trkpt lat="55.704334" lon="26.086348">
<ele>147.494263</ele>
<time>2010-07-17T20:22:17Z</time>
<desc>lat.=55.704334, lon.=26.086348, Alt.=147.494263m. Speed=0.036000m/h.</desc>
<speed>0.010000</speed>
</trkpt>
<trkpt lat="55.704334" lon="26.086348">
<ele>147.498169</ele>
<time>2010-07-17T20:22:18Z</time>
<desc>lat.=55.704334, lon.=26.086348, Alt.=147.498169m. Speed=0.036000m/h.</desc>
<speed>0.010000</speed>
</trkpt>
<trkpt lat="55.704334" lon="26.086348">
<ele>147.498169</ele>
<time>2010-07-17T20:22:19Z</time>
<desc>lat.=55.704334, lon.=26.086348, Alt.=147.498169m. Speed=0.072000m/h.</desc>
<speed>0.020000</speed>
</trkpt>
<trkpt lat="55.704334" lon="26.086348">
<ele>147.502075</ele>
<time>2010-07-17T20:22:20Z</time>
<desc>lat.=55.704334, lon.=26.086348, Alt.=147.502075m. Speed=0.144000m/h.</desc>
<speed>0.040000</speed>
</trkpt>
<trkpt lat="55.704334" lon="26.086348">
<ele>147.505981</ele>
<time>2010-07-17T20:22:21Z</time>
<desc>lat.=55.704334, lon.=26.086348, Alt.=147.505981m. Speed=0.000000m/h.</desc>
<speed>0.000000</speed>
</trkpt>
<trkpt lat="55.704334" lon="26.086348">
<ele>147.513794</ele>
<time>2010-07-17T20:22:22Z</time>
<desc>lat.=55.704334, lon.=26.086348, Alt.=147.513794m. Speed=0.144000m/h.</desc>
<speed>0.040000</speed>
</trkpt>
<trkpt lat="55.704334" lon="26.086348">
<ele>147.513794</ele>
<time>2010-07-17T20:22:23Z</time>
<desc>lat.=55.704334, lon.=26.086348, Alt.=147.513794m. Speed=0.000000m/h.</desc>
<speed>0.000000</speed>
</trkpt>
<trkpt lat="55.704334" lon="26.086348">
<ele>147.513794</ele>
<time>2010-07-17T20:22:24Z</time>
<desc>lat.=55.704334, lon.=26.086348, Alt.=147.513794m. Speed=0.072000m/h.</desc>
<speed>0.020000</speed>
</trkpt>
<trkpt lat="55.704334" lon="26.086348">
<ele>147.513794</ele>
<time>2010-07-17T20:22:25Z</time>
<desc>lat.=55.704334, lon.=26.086348, Alt.=147.513794m. Speed=0.072000m/h.</desc>
<speed>0.020000</speed>
</trkpt>
<trkpt lat="55.704334" lon="26.086348">
<ele>147.513794</ele>
<time>2010-07-17T20:22:26Z</time>
<desc>lat.=55.704334, lon.=26.086348, Alt.=147.513794m. Speed=0.036000m/h.</desc>
<speed>0.010000</speed>
</trkpt>
<trkpt lat="55.704334" lon="26.086348">
<ele>147.509888</ele>
<time>2010-07-17T20:22:27Z</time>
<desc>lat.=55.704334, lon.=26.086348, Alt.=147.509888m. Speed=0.108000m/h.</desc>
<speed>0.030000</speed>
</trkpt>
<trkpt lat="55.704334" lon="26.086349">
<ele>147.513794</ele>
<time>2010-07-17T20:22:28Z</time>
<desc>lat.=55.704334, lon.=26.086349, Alt.=147.513794m. Speed=0.072000m/h.</desc>
<speed>0.020000</speed>
</trkpt>
<trkpt lat="55.704334" lon="26.086349">
<ele>147.513794</ele>
<time>2010-07-17T20:22:29Z</time>
<desc>lat.=55.704334, lon.=26.086349, Alt.=147.513794m. Speed=0.108000m/h.</desc>
<speed>0.030000</speed>
</trkpt>
<trkpt lat="55.704334" lon="26.086349">
<ele>147.513794</ele>
<time>2010-07-17T20:22:30Z</time>
<desc>lat.=55.704334, lon.=26.086349, Alt.=147.513794m. Speed=0.072000m/h.</desc>
<speed>0.020000</speed>
</trkpt>
<trkpt lat="55.704334" lon="26.086349">
<ele>147.513794</ele>
<time>2010-07-17T20:22:31Z</time>
<desc>lat.=55.704334, lon.=26.086349, Alt.=147.513794m. Speed=0.072000m/h.</desc>
<speed>0.020000</speed>
</trkpt>
<trkpt lat="55.704334" lon="26.086349">
<ele>147.517700</ele>
<time>2010-07-17T20:22:32Z</time>
<desc>lat.=55.704334, lon.=26.086349, Alt.=147.517700m. Speed=0.000000m/h.</desc>
<speed>0.000000</speed>
</trkpt>
<trkpt lat="55.704334" lon="26.086349">
<ele>147.517700</ele>
<time>2010-07-17T20:22:33Z</time>
<desc>lat.=55.704334, lon.=26.086349, Alt.=147.517700m. Speed=0.036000m/h.</desc>
<speed>0.010000</speed>
</trkpt>
<trkpt lat="55.704334" lon="26.086349">
<ele>147.521606</ele>
<time>2010-07-17T20:22:34Z</time>
<desc>lat.=55.704334, lon.=26.086349, Alt.=147.521606m. Speed=0.036000m/h.</desc>
<speed>0.010000</speed>
</trkpt>
<trkpt lat="55.704334" lon="26.086349">
<ele>147.521606</ele>
<time>2010-07-17T20:22:35Z</time>
<desc>lat.=55.704334, lon.=26.086349, Alt.=147.521606m. Speed=0.000000m/h.</desc>
<speed>0.000000</speed>
</trkpt>
<trkpt lat="55.704334" lon="26.086349">
<ele>147.521606</ele>
<time>2010-07-17T20:22:36Z</time>
<desc>lat.=55.704334, lon.=26.086349, Alt.=147.521606m. Speed=0.036000m/h.</desc>
<speed>0.010000</speed>
</trkpt>
<trkpt lat="55.704334" lon="26.086349">
<ele>147.525513</ele>
<time>2010-07-17T20:22:37Z</time>
<desc>lat.=55.704334, lon.=26.086349, Alt.=147.525513m. Speed=0.000000m/h.</desc>
<speed>0.000000</speed>
</trkpt>
<trkpt lat="55.704334" lon="26.086349">
<ele>147.517700</ele>
<time>2010-07-17T20:22:38Z</time>
<desc>lat.=55.704334, lon.=26.086349, Alt.=147.517700m. Speed=0.036000m/h.</desc>
<speed>0.010000</speed>
</trkpt>
<trkpt lat="55.704334" lon="26.086349">
<ele>147.513794</ele>
<time>2010-07-17T20:22:39Z</time>
<desc>lat.=55.704334, lon.=26.086349, Alt.=147.513794m. Speed=0.108000m/h.</desc>
<speed>0.030000</speed>
</trkpt>
<trkpt lat="55.704334" lon="26.086348">
<ele>147.513794</ele>
<time>2010-07-17T20:22:40Z</time>
<desc>lat.=55.704334, lon.=26.086348, Alt.=147.513794m. Speed=0.036000m/h.</desc>
<speed>0.010000</speed>
</trkpt>
<trkpt lat="55.704334" lon="26.086348">
<ele>147.517700</ele>
<time>2010-07-17T20:22:41Z</time>
<desc>lat.=55.704334, lon.=26.086348, Alt.=147.517700m. Speed=0.000000m/h.</desc>
<speed>0.000000</speed>
</trkpt>
<trkpt lat="55.704334" lon="26.086348">
<ele>147.525513</ele>
<time>2010-07-17T20:22:42Z</time>
<desc>lat.=55.704334, lon.=26.086348, Alt.=147.525513m. Speed=0.000000m/h.</desc>
<speed>0.000000</speed>
</trkpt>
<trkpt lat="55.704334" lon="26.086348">
<ele>147.529419</ele>
<time>2010-07-17T20:22:43Z</time>
<desc>lat.=55.704334, lon.=26.086348, Alt.=147.529419m. Speed=0.072000m/h.</desc>
<speed>0.020000</speed>
</trkpt>
<trkpt lat="55.704334" lon="26.086349">
<ele>147.537231</ele>
<time>2010-07-17T20:22:44Z</time>
<desc>lat.=55.704334, lon.=26.086349, Alt.=147.537231m. Speed=0.072000m/h.</desc>
<speed>0.020000</speed>
</trkpt>
<trkpt lat="55.704334" lon="26.086349">
<ele>147.541138</ele>
<time>2010-07-17T20:22:45Z</time>
<desc>lat.=55.704334, lon.=26.086349, Alt.=147.541138m. Speed=0.108000m/h.</desc>
<speed>0.030000</speed>
</trkpt>
<trkpt lat="55.704334" lon="26.086349">
<ele>147.548950</ele>
<time>2010-07-17T20:22:46Z</time>
<desc>lat.=55.704334, lon.=26.086349, Alt.=147.548950m. Speed=0.072000m/h.</desc>
<speed>0.020000</speed>
</trkpt>
<trkpt lat="55.704338" lon="26.086348">
<ele>147.556763</ele>
<time>2010-07-17T20:22:47Z</time>
<desc>lat.=55.704338, lon.=26.086348, Alt.=147.556763m. Speed=0.000000m/h.</desc>
<speed>0.000000</speed>
</trkpt>
<trkpt lat="55.704338" lon="26.086348">
<ele>147.564575</ele>
<time>2010-07-17T20:22:48Z</time>
<desc>lat.=55.704338, lon.=26.086348, Alt.=147.564575m. Speed=0.000000m/h.</desc>
<speed>0.000000</speed>
</trkpt>
<trkpt lat="55.704338" lon="26.086349">
<ele>147.564575</ele>
<time>2010-07-17T20:22:49Z</time>
<desc>lat.=55.704338, lon.=26.086349, Alt.=147.564575m. Speed=0.036000m/h.</desc>
<speed>0.010000</speed>
</trkpt>
<trkpt lat="55.704338" lon="26.086349">
<ele>147.568481</ele>
<time>2010-07-17T20:22:50Z</time>
<desc>lat.=55.704338, lon.=26.086349, Alt.=147.568481m. Speed=0.036000m/h.</desc>
<speed>0.010000</speed>
</trkpt>
<trkpt lat="55.704338" lon="26.086348">
<ele>147.572388</ele>
<time>2010-07-17T20:22:51Z</time>
<desc>lat.=55.704338, lon.=26.086348, Alt.=147.572388m. Speed=0.036000m/h.</desc>
<speed>0.010000</speed>
</trkpt>
<trkpt lat="55.704338" lon="26.086348">
<ele>147.572388</ele>
<time>2010-07-17T20:22:52Z</time>
<desc>lat.=55.704338, lon.=26.086348, Alt.=147.572388m. Speed=0.072000m/h.</desc>
<speed>0.020000</speed>
</trkpt>
<trkpt lat="55.704338" lon="26.086348">
<ele>147.572388</ele>
<time>2010-07-17T20:22:53Z</time>
<desc>lat.=55.704338, lon.=26.086348, Alt.=147.572388m. Speed=0.072000m/h.</desc>
<speed>0.020000</speed>
</trkpt>
<trkpt lat="55.704334" lon="26.086348">
<ele>147.576294</ele>
<time>2010-07-17T20:22:54Z</time>
<desc>lat.=55.704334, lon.=26.086348, Alt.=147.576294m. Speed=0.072000m/h.</desc>
<speed>0.020000</speed>
</trkpt>
<trkpt lat="55.704334" lon="26.086348">
<ele>147.572388</ele>
<time>2010-07-17T20:22:55Z</time>
<desc>lat.=55.704334, lon.=26.086348, Alt.=147.572388m. Speed=0.144000m/h.</desc>
<speed>0.040000</speed>
</trkpt>
<trkpt lat="55.704334" lon="26.086348">
<ele>147.572388</ele>
<time>2010-07-17T20:22:56Z</time>
<desc>lat.=55.704334, lon.=26.086348, Alt.=147.572388m. Speed=0.108000m/h.</desc>
<speed>0.030000</speed>
</trkpt>
<trkpt lat="55.704334" lon="26.086348">
<ele>147.580200</ele>
<time>2010-07-17T20:22:57Z</time>
<desc>lat.=55.704334, lon.=26.086348, Alt.=147.580200m. Speed=0.036000m/h.</desc>
<speed>0.010000</speed>
</trkpt>
<trkpt lat="55.704334" lon="26.086348">
<ele>147.591919</ele>
<time>2010-07-17T20:22:58Z</time>
<desc>lat.=55.704334, lon.=26.086348, Alt.=147.591919m. Speed=0.036000m/h.</desc>
<speed>0.010000</speed>
</trkpt>
<trkpt lat="55.704334" lon="26.086348">
<ele>147.591919</ele>
<time>2010-07-17T20:22:59Z</time>
<desc>lat.=55.704334, lon.=26.086348, Alt.=147.591919m. Speed=0.180000m/h.</desc>
<speed>0.050000</speed>
</trkpt>
<trkpt lat="55.704334" lon="26.086348">
<ele>147.591919</ele>
<time>2010-07-17T20:23:00Z</time>
<desc>lat.=55.704334, lon.=26.086348, Alt.=147.591919m. Speed=0.108000m/h.</desc>
<speed>0.030000</speed>
</trkpt>
<trkpt lat="55.704334" lon="26.086348">
<ele>147.603638</ele>
<time>2010-07-17T20:23:01Z</time>
<desc>lat.=55.704334, lon.=26.086348, Alt.=147.603638m. Speed=0.036000m/h.</desc>
<speed>0.010000</speed>
</trkpt>
<trkpt lat="55.704334" lon="26.086348">
<ele>147.611450</ele>
<time>2010-07-17T20:23:02Z</time>
<desc>lat.=55.704334, lon.=26.086348, Alt.=147.611450m. Speed=0.108000m/h.</desc>
<speed>0.030000</speed>
</trkpt>
<trkpt lat="55.704334" lon="26.086348">
<ele>147.615356</ele>
<time>2010-07-17T20:23:03Z</time>
<desc>lat.=55.704334, lon.=26.086348, Alt.=147.615356m. Speed=0.036000m/h.</desc>
<speed>0.010000</speed>
</trkpt>
<trkpt lat="55.704334" lon="26.086346">
<ele>147.619263</ele>
<time>2010-07-17T20:23:04Z</time>
<desc>lat.=55.704334, lon.=26.086346, Alt.=147.619263m. Speed=0.108000m/h.</desc>
<speed>0.030000</speed>
</trkpt>
<trkpt lat="55.704334" lon="26.086346">
<ele>147.627075</ele>
<time>2010-07-17T20:23:05Z</time>
<desc>lat.=55.704334, lon.=26.086346, Alt.=147.627075m. Speed=0.108000m/h.</desc>
<speed>0.030000</speed>
</trkpt>
<trkpt lat="55.704334" lon="26.086346">
<ele>147.634888</ele>
<time>2010-07-17T20:23:06Z</time>
<desc>lat.=55.704334, lon.=26.086346, Alt.=147.634888m. Speed=0.072000m/h.</desc>
<speed>0.020000</speed>
</trkpt>
<trkpt lat="55.704334" lon="26.086346">
<ele>147.638794</ele>
<time>2010-07-17T20:23:07Z</time>
<desc>lat.=55.704334, lon.=26.086346, Alt.=147.638794m. Speed=0.036000m/h.</desc>
<speed>0.010000</speed>
</trkpt>
<trkpt lat="55.704334" lon="26.086346">
<ele>147.642700</ele>
<time>2010-07-17T20:23:08Z</time>
<desc>lat.=55.704334, lon.=26.086346, Alt.=147.642700m. Speed=0.072000m/h.</desc>
<speed>0.020000</speed>
</trkpt>
<trkpt lat="55.704334" lon="26.086346">
<ele>147.646606</ele>
<time>2010-07-17T20:23:09Z</time>
<desc>lat.=55.704334, lon.=26.086346, Alt.=147.646606m. Speed=0.036000m/h.</desc>
<speed>0.010000</speed>
</trkpt>
<trkpt lat="55.704334" lon="26.086346">
<ele>147.646606</ele>
<time>2010-07-17T20:23:10Z</time>
<desc>lat.=55.704334, lon.=26.086346, Alt.=147.646606m. Speed=0.108000m/h.</desc>
<speed>0.030000</speed>
</trkpt>
<trkpt lat="55.704334" lon="26.086346">
<ele>147.646606</ele>
<time>2010-07-17T20:23:11Z</time>
<desc>lat.=55.704334, lon.=26.086346, Alt.=147.646606m. Speed=0.000000m/h.</desc>
<speed>0.000000</speed>
</trkpt>
<trkpt lat="55.704334" lon="26.086346">
<ele>147.650513</ele>
<time>2010-07-17T20:23:12Z</time>
<desc>lat.=55.704334, lon.=26.086346, Alt.=147.650513m. Speed=0.036000m/h.</desc>
<speed>0.010000</speed>
</trkpt>
<trkpt lat="55.704334" lon="26.086346">
<ele>147.654419</ele>
<time>2010-07-17T20:23:13Z</time>
<desc>lat.=55.704334, lon.=26.086346, Alt.=147.654419m. Speed=0.000000m/h.</desc>
<speed>0.000000</speed>
</trkpt>
<trkpt lat="55.704334" lon="26.086346">
<ele>147.658325</ele>
<time>2010-07-17T20:23:14Z</time>
<desc>lat.=55.704334, lon.=26.086346, Alt.=147.658325m. Speed=0.000000m/h.</desc>
<speed>0.000000</speed>
</trkpt>
<trkpt lat="55.704334" lon="26.086346">
<ele>147.654419</ele>
<time>2010-07-17T20:23:15Z</time>
<desc>lat.=55.704334, lon.=26.086346, Alt.=147.654419m. Speed=0.000000m/h.</desc>
<speed>0.000000</speed>
</trkpt>
<trkpt lat="55.704334" lon="26.086346">
<ele>147.650513</ele>
<time>2010-07-17T20:23:16Z</time>
<desc>lat.=55.704334, lon.=26.086346, Alt.=147.650513m. Speed=0.108000m/h.</desc>
<speed>0.030000</speed>
</trkpt>
<trkpt lat="55.704334" lon="26.086346">
<ele>147.638794</ele>
<time>2010-07-17T20:23:17Z</time>
<desc>lat.=55.704334, lon.=26.086346, Alt.=147.638794m. Speed=0.072000m/h.</desc>
<speed>0.020000</speed>
</trkpt>
<trkpt lat="55.704334" lon="26.086346">
<ele>147.638794</ele>
<time>2010-07-17T20:23:18Z</time>
<desc>lat.=55.704334, lon.=26.086346, Alt.=147.638794m. Speed=0.000000m/h.</desc>
<speed>0.000000</speed>
</trkpt>
<trkpt lat="55.704334" lon="26.086346">
<ele>147.646606</ele>
<time>2010-07-17T20:23:19Z</time>
<desc>lat.=55.704334, lon.=26.086346, Alt.=147.646606m. Speed=0.036000m/h.</desc>
<speed>0.010000</speed>
</trkpt>
<trkpt lat="55.704334" lon="26.086346">
<ele>147.642700</ele>
<time>2010-07-17T20:23:20Z</time>
<desc>lat.=55.704334, lon.=26.086346, Alt.=147.642700m. Speed=0.144000m/h.</desc>
<speed>0.040000</speed>
</trkpt>
<trkpt lat="55.704334" lon="26.086346">
<ele>147.638794</ele>
<time>2010-07-17T20:23:21Z</time>
<desc>lat.=55.704334, lon.=26.086346, Alt.=147.638794m. Speed=0.108000m/h.</desc>
<speed>0.030000</speed>
</trkpt>
<trkpt lat="55.704334" lon="26.086346">
<ele>147.634888</ele>
<time>2010-07-17T20:23:22Z</time>
<desc>lat.=55.704334, lon.=26.086346, Alt.=147.634888m. Speed=0.036000m/h.</desc>
<speed>0.010000</speed>
</trkpt>
<trkpt lat="55.704334" lon="26.086346">
<ele>147.630981</ele>
<time>2010-07-17T20:23:23Z</time>
<desc>lat.=55.704334, lon.=26.086346, Alt.=147.630981m. Speed=0.036000m/h.</desc>
<speed>0.010000</speed>
</trkpt>
<trkpt lat="55.704334" lon="26.086346">
<ele>147.623169</ele>
<time>2010-07-17T20:23:24Z</time>
<desc>lat.=55.704334, lon.=26.086346, Alt.=147.623169m. Speed=0.036000m/h.</desc>
<speed>0.010000</speed>
</trkpt>
<trkpt lat="55.704334" lon="26.086346">
<ele>147.615356</ele>
<time>2010-07-17T20:23:25Z</time>
<desc>lat.=55.704334, lon.=26.086346, Alt.=147.615356m. Speed=0.072000m/h.</desc>
<speed>0.020000</speed>
</trkpt>
<trkpt lat="55.704334" lon="26.086346">
<ele>147.607544</ele>
<time>2010-07-17T20:23:26Z</time>
<desc>lat.=55.704334, lon.=26.086346, Alt.=147.607544m. Speed=0.000000m/h.</desc>
<speed>0.000000</speed>
</trkpt>
<trkpt lat="55.704334" lon="26.086346">
<ele>147.603638</ele>
<time>2010-07-17T20:23:27Z</time>
<desc>lat.=55.704334, lon.=26.086346, Alt.=147.603638m. Speed=0.036000m/h.</desc>
<speed>0.010000</speed>
</trkpt>
<trkpt lat="55.704334" lon="26.086346">
<ele>147.603638</ele>
<time>2010-07-17T20:23:28Z</time>
<desc>lat.=55.704334, lon.=26.086346, Alt.=147.603638m. Speed=0.000000m/h.</desc>
<speed>0.000000</speed>
</trkpt>
<trkpt lat="55.704334" lon="26.086346">
<ele>147.599731</ele>
<time>2010-07-17T20:23:29Z</time>
<desc>lat.=55.704334, lon.=26.086346, Alt.=147.599731m. Speed=0.036000m/h.</desc>
<speed>0.010000</speed>
</trkpt>
<trkpt lat="55.704334" lon="26.086346">
<ele>147.599731</ele>
<time>2010-07-17T20:23:30Z</time>
<desc>lat.=55.704334, lon.=26.086346, Alt.=147.599731m. Speed=0.036000m/h.</desc>
<speed>0.010000</speed>
</trkpt>
<trkpt lat="55.704334" lon="26.086344">
<ele>147.591919</ele>
<time>2010-07-17T20:23:31Z</time>
<desc>lat.=55.704334, lon.=26.086344, Alt.=147.591919m. Speed=0.072000m/h.</desc>
<speed>0.020000</speed>
</trkpt>
<trkpt lat="55.704334" lon="26.086344">
<ele>147.588013</ele>
<time>2010-07-17T20:23:32Z</time>
<desc>lat.=55.704334, lon.=26.086344, Alt.=147.588013m. Speed=0.108000m/h.</desc>
<speed>0.030000</speed>
</trkpt>
<trkpt lat="55.704334" lon="26.086344">
<ele>147.588013</ele>
<time>2010-07-17T20:23:33Z</time>
<desc>lat.=55.704334, lon.=26.086344, Alt.=147.588013m. Speed=0.072000m/h.</desc>
<speed>0.020000</speed>
</trkpt>
<trkpt lat="55.704334" lon="26.086344">
<ele>147.588013</ele>
<time>2010-07-17T20:23:34Z</time>
<desc>lat.=55.704334, lon.=26.086344, Alt.=147.588013m. Speed=0.036000m/h.</desc>
<speed>0.010000</speed>
</trkpt>
<trkpt lat="55.704334" lon="26.086344">
<ele>147.588013</ele>
<time>2010-07-17T20:23:35Z</time>
<desc>lat.=55.704334, lon.=26.086344, Alt.=147.588013m. Speed=0.072000m/h.</desc>
<speed>0.020000</speed>
</trkpt>
<trkpt lat="55.704334" lon="26.086344">
<ele>147.584106</ele>
<time>2010-07-17T20:23:36Z</time>
<desc>lat.=55.704334, lon.=26.086344, Alt.=147.584106m. Speed=0.072000m/h.</desc>
<speed>0.020000</speed>
</trkpt>
<trkpt lat="55.704334" lon="26.086344">
<ele>147.580200</ele>
<time>2010-07-17T20:23:37Z</time>
<desc>lat.=55.704334, lon.=26.086344, Alt.=147.580200m. Speed=0.000000m/h.</desc>
<speed>0.000000</speed>
</trkpt>
<trkpt lat="55.704334" lon="26.086344">
<ele>147.576294</ele>
<time>2010-07-17T20:23:38Z</time>
<desc>lat.=55.704334, lon.=26.086344, Alt.=147.576294m. Speed=0.000000m/h.</desc>
<speed>0.000000</speed>
</trkpt>
<trkpt lat="55.704334" lon="26.086344">
<ele>147.576294</ele>
<time>2010-07-17T20:23:39Z</time>
<desc>lat.=55.704334, lon.=26.086344, Alt.=147.576294m. Speed=0.072000m/h.</desc>
<speed>0.020000</speed>
</trkpt>
<trkpt lat="55.704334" lon="26.086344">
<ele>147.564575</ele>
<time>2010-07-17T20:23:40Z</time>
<desc>lat.=55.704334, lon.=26.086344, Alt.=147.564575m. Speed=0.144000m/h.</desc>
<speed>0.040000</speed>
</trkpt>
<trkpt lat="55.704334" lon="26.086344">
<ele>147.560669</ele>
<time>2010-07-17T20:23:41Z</time>
<desc>lat.=55.704334, lon.=26.086344, Alt.=147.560669m. Speed=0.000000m/h.</desc>
<speed>0.000000</speed>
</trkpt>
<trkpt lat="55.704334" lon="26.086344">
<ele>147.564575</ele>
<time>2010-07-17T20:23:42Z</time>
<desc>lat.=55.704334, lon.=26.086344, Alt.=147.564575m. Speed=0.072000m/h.</desc>
<speed>0.020000</speed>
</trkpt>
<trkpt lat="55.704334" lon="26.086344">
<ele>147.564575</ele>
<time>2010-07-17T20:23:43Z</time>
<desc>lat.=55.704334, lon.=26.086344, Alt.=147.564575m. Speed=0.000000m/h.</desc>
<speed>0.000000</speed>
</trkpt>
<trkpt lat="55.704334" lon="26.086344">
<ele>147.564575</ele>
<time>2010-07-17T20:23:44Z</time>
<desc>lat.=55.704334, lon.=26.086344, Alt.=147.564575m. Speed=0.000000m/h.</desc>
<speed>0.000000</speed>
</trkpt>
<trkpt lat="55.704334" lon="26.086344">
<ele>147.568481</ele>
<time>2010-07-17T20:23:45Z</time>
<desc>lat.=55.704334, lon.=26.086344, Alt.=147.568481m. Speed=0.000000m/h.</desc>
<speed>0.000000</speed>
</trkpt>
<trkpt lat="55.704334" lon="26.086344">
<ele>147.572388</ele>
<time>2010-07-17T20:23:46Z</time>
<desc>lat.=55.704334, lon.=26.086344, Alt.=147.572388m. Speed=0.000000m/h.</desc>
<speed>0.000000</speed>
</trkpt>
<trkpt lat="55.704334" lon="26.086344">
<ele>147.576294</ele>
<time>2010-07-17T20:23:47Z</time>
<desc>lat.=55.704334, lon.=26.086344, Alt.=147.576294m. Speed=0.072000m/h.</desc>
<speed>0.020000</speed>
</trkpt>
<trkpt lat="55.704334" lon="26.086344">
<ele>147.584106</ele>
<time>2010-07-17T20:23:48Z</time>
<desc>lat.=55.704334, lon.=26.086344, Alt.=147.584106m. Speed=0.000000m/h.</desc>
<speed>0.000000</speed>
</trkpt>
<trkpt lat="55.704334" lon="26.086344">
<ele>147.591919</ele>
<time>2010-07-17T20:23:49Z</time>
<desc>lat.=55.704334, lon.=26.086344, Alt.=147.591919m. Speed=0.036000m/h.</desc>
<speed>0.010000</speed>
</trkpt>
<trkpt lat="55.704334" lon="26.086344">
<ele>147.599731</ele>
<time>2010-07-17T20:23:50Z</time>
<desc>lat.=55.704334, lon.=26.086344, Alt.=147.599731m. Speed=0.000000m/h.</desc>
<speed>0.000000</speed>
</trkpt>
<trkpt lat="55.704334" lon="26.086344">
<ele>147.611450</ele>
<time>2010-07-17T20:23:51Z</time>
<desc>lat.=55.704334, lon.=26.086344, Alt.=147.611450m. Speed=0.000000m/h.</desc>
<speed>0.000000</speed>
</trkpt>
<trkpt lat="55.704334" lon="26.086344">
<ele>147.623169</ele>
<time>2010-07-17T20:23:52Z</time>
<desc>lat.=55.704334, lon.=26.086344, Alt.=147.623169m. Speed=0.072000m/h.</desc>
<speed>0.020000</speed>
</trkpt>
<trkpt lat="55.704334" lon="26.086344">
<ele>147.634888</ele>
<time>2010-07-17T20:23:53Z</time>
<desc>lat.=55.704334, lon.=26.086344, Alt.=147.634888m. Speed=0.036000m/h.</desc>
<speed>0.010000</speed>
</trkpt>
<trkpt lat="55.704334" lon="26.086344">
<ele>147.638794</ele>
<time>2010-07-17T20:23:54Z</time>
<desc>lat.=55.704334, lon.=26.086344, Alt.=147.638794m. Speed=0.000000m/h.</desc>
<speed>0.000000</speed>
</trkpt>
<trkpt lat="55.704334" lon="26.086344">
<ele>147.638794</ele>
<time>2010-07-17T20:23:55Z</time>
<desc>lat.=55.704334, lon.=26.086344, Alt.=147.638794m. Speed=0.000000m/h.</desc>
<speed>0.000000</speed>
</trkpt>
<trkpt lat="55.704334" lon="26.086344">
<ele>147.630981</ele>
<time>2010-07-17T20:23:56Z</time>
<desc>lat.=55.704334, lon.=26.086344, Alt.=147.630981m. Speed=0.036000m/h.</desc>
<speed>0.010000</speed>
</trkpt>
<trkpt lat="55.704334" lon="26.086344">
<ele>147.627075</ele>
<time>2010-07-17T20:23:57Z</time>
<desc>lat.=55.704334, lon.=26.086344, Alt.=147.627075m. Speed=0.000000m/h.</desc>
<speed>0.000000</speed>
</trkpt>
<trkpt lat="55.704334" lon="26.086344">
<ele>147.634888</ele>
<time>2010-07-17T20:23:58Z</time>
<desc>lat.=55.704334, lon.=26.086344, Alt.=147.634888m. Speed=0.000000m/h.</desc>
<speed>0.000000</speed>
</trkpt>
<trkpt lat="55.704334" lon="26.086344">
<ele>147.634888</ele>
<time>2010-07-17T20:23:59Z</time>
<desc>lat.=55.704334, lon.=26.086344, Alt.=147.634888m. Speed=0.000000m/h.</desc>
<speed>0.000000</speed>
</trkpt>
<trkpt lat="55.704334" lon="26.086344">
<ele>147.638794</ele>
<time>2010-07-17T20:24:00Z</time>
<desc>lat.=55.704334, lon.=26.086344, Alt.=147.638794m. Speed=0.000000m/h.</desc>
<speed>0.000000</speed>
</trkpt>
<trkpt lat="55.704334" lon="26.086344">
<ele>147.634888</ele>
<time>2010-07-17T20:24:01Z</time>
<desc>lat.=55.704334, lon.=26.086344, Alt.=147.634888m. Speed=0.000000m/h.</desc>
<speed>0.000000</speed>
</trkpt>
<trkpt lat="55.704334" lon="26.086344">
<ele>147.634888</ele>
<time>2010-07-17T20:24:02Z</time>
<desc>lat.=55.704334, lon.=26.086344, Alt.=147.634888m. Speed=0.000000m/h.</desc>
<speed>0.000000</speed>
</trkpt>
<trkpt lat="55.704334" lon="26.086344">
<ele>147.634888</ele>
<time>2010-07-17T20:24:03Z</time>
<desc>lat.=55.704334, lon.=26.086344, Alt.=147.634888m. Speed=0.072000m/h.</desc>
<speed>0.020000</speed>
</trkpt>
<trkpt lat="55.704334" lon="26.086344">
<ele>147.638794</ele>
<time>2010-07-17T20:24:04Z</time>
<desc>lat.=55.704334, lon.=26.086344, Alt.=147.638794m. Speed=0.072000m/h.</desc>
<speed>0.020000</speed>
</trkpt>
<trkpt lat="55.704334" lon="26.086344">
<ele>147.642700</ele>
<time>2010-07-17T20:24:05Z</time>
<desc>lat.=55.704334, lon.=26.086344, Alt.=147.642700m. Speed=0.072000m/h.</desc>
<speed>0.020000</speed>
</trkpt>
<trkpt lat="55.704334" lon="26.086344">
<ele>147.642700</ele>
<time>2010-07-17T20:24:06Z</time>
<desc>lat.=55.704334, lon.=26.086344, Alt.=147.642700m. Speed=0.108000m/h.</desc>
<speed>0.030000</speed>
</trkpt>
<trkpt lat="55.704334" lon="26.086344">
<ele>147.642700</ele>
<time>2010-07-17T20:24:07Z</time>
<desc>lat.=55.704334, lon.=26.086344, Alt.=147.642700m. Speed=0.000000m/h.</desc>
<speed>0.000000</speed>
</trkpt>
<trkpt lat="55.704334" lon="26.086344">
<ele>147.638794</ele>
<time>2010-07-17T20:24:08Z</time>
<desc>lat.=55.704334, lon.=26.086344, Alt.=147.638794m. Speed=0.000000m/h.</desc>
<speed>0.000000</speed>
</trkpt>
<trkpt lat="55.704334" lon="26.086344">
<ele>147.650513</ele>
<time>2010-07-17T20:24:09Z</time>
<desc>lat.=55.704334, lon.=26.086344, Alt.=147.650513m. Speed=0.000000m/h.</desc>
<speed>0.000000</speed>
</trkpt>
<trkpt lat="55.704334" lon="26.086344">
<ele>147.654419</ele>
<time>2010-07-17T20:24:10Z</time>
<desc>lat.=55.704334, lon.=26.086344, Alt.=147.654419m. Speed=0.000000m/h.</desc>
<speed>0.000000</speed>
</trkpt>
<trkpt lat="55.704334" lon="26.086344">
<ele>147.642700</ele>
<time>2010-07-17T20:24:11Z</time>
<desc>lat.=55.704334, lon.=26.086344, Alt.=147.642700m. Speed=0.036000m/h.</desc>
<speed>0.010000</speed>
</trkpt>
<trkpt lat="55.704334" lon="26.086344">
<ele>147.638794</ele>
<time>2010-07-17T20:24:12Z</time>
<desc>lat.=55.704334, lon.=26.086344, Alt.=147.638794m. Speed=0.072000m/h.</desc>
<speed>0.020000</speed>
</trkpt>
<trkpt lat="55.704334" lon="26.086344">
<ele>147.634888</ele>
<time>2010-07-17T20:24:13Z</time>
<desc>lat.=55.704334, lon.=26.086344, Alt.=147.634888m. Speed=0.108000m/h.</desc>
<speed>0.030000</speed>
</trkpt>
<trkpt lat="55.704334" lon="26.086344">
<ele>147.627075</ele>
<time>2010-07-17T20:24:14Z</time>
<desc>lat.=55.704334, lon.=26.086344, Alt.=147.627075m. Speed=0.036000m/h.</desc>
<speed>0.010000</speed>
</trkpt>
<trkpt lat="55.704334" lon="26.086344">
<ele>147.619263</ele>
<time>2010-07-17T20:24:15Z</time>
<desc>lat.=55.704334, lon.=26.086344, Alt.=147.619263m. Speed=0.000000m/h.</desc>
<speed>0.000000</speed>
</trkpt>
<trkpt lat="55.704334" lon="26.086344">
<ele>147.619263</ele>
<time>2010-07-17T20:24:16Z</time>
<desc>lat.=55.704334, lon.=26.086344, Alt.=147.619263m. Speed=0.036000m/h.</desc>
<speed>0.010000</speed>
</trkpt>
<trkpt lat="55.704334" lon="26.086344">
<ele>147.615356</ele>
<time>2010-07-17T20:24:17Z</time>
<desc>lat.=55.704334, lon.=26.086344, Alt.=147.615356m. Speed=0.036000m/h.</desc>
<speed>0.010000</speed>
</trkpt>
<trkpt lat="55.704334" lon="26.086344">
<ele>147.611450</ele>
<time>2010-07-17T20:24:18Z</time>
<desc>lat.=55.704334, lon.=26.086344, Alt.=147.611450m. Speed=0.000000m/h.</desc>
<speed>0.000000</speed>
</trkpt>
<trkpt lat="55.704334" lon="26.086344">
<ele>147.611450</ele>
<time>2010-07-17T20:24:19Z</time>
<desc>lat.=55.704334, lon.=26.086344, Alt.=147.611450m. Speed=0.000000m/h.</desc>
<speed>0.000000</speed>
</trkpt>
<trkpt lat="55.704334" lon="26.086344">
<ele>147.615356</ele>
<time>2010-07-17T20:24:20Z</time>
<desc>lat.=55.704334, lon.=26.086344, Alt.=147.615356m. Speed=0.036000m/h.</desc>
<speed>0.010000</speed>
</trkpt>
<trkpt lat="55.704330" lon="26.086344">
<ele>147.615356</ele>
<time>2010-07-17T20:24:21Z</time>
<desc>lat.=55.704330, lon.=26.086344, Alt.=147.615356m. Speed=0.036000m/h.</desc>
<speed>0.010000</speed>
</trkpt>
<trkpt lat="55.704330" lon="26.086344">
<ele>147.615356</ele>
<time>2010-07-17T20:24:22Z</time>
<desc>lat.=55.704330, lon.=26.086344, Alt.=147.615356m. Speed=0.000000m/h.</desc>
<speed>0.000000</speed>
</trkpt>
<trkpt lat="55.704330" lon="26.086342">
<ele>147.611450</ele>
<time>2010-07-17T20:24:23Z</time>
<desc>lat.=55.704330, lon.=26.086342, Alt.=147.611450m. Speed=0.072000m/h.</desc>
<speed>0.020000</speed>
</trkpt>
<trkpt lat="55.704330" lon="26.086342">
<ele>147.607544</ele>
<time>2010-07-17T20:24:24Z</time>
<desc>lat.=55.704330, lon.=26.086342, Alt.=147.607544m. Speed=0.108000m/h.</desc>
<speed>0.030000</speed>
</trkpt>
<trkpt lat="55.704330" lon="26.086342">
<ele>147.603638</ele>
<time>2010-07-17T20:24:25Z</time>
<desc>lat.=55.704330, lon.=26.086342, Alt.=147.603638m. Speed=0.036000m/h.</desc>
<speed>0.010000</speed>
</trkpt>
<trkpt lat="55.704330" lon="26.086342">
<ele>147.603638</ele>
<time>2010-07-17T20:24:26Z</time>
<desc>lat.=55.704330, lon.=26.086342, Alt.=147.603638m. Speed=0.036000m/h.</desc>
<speed>0.010000</speed>
</trkpt>
<trkpt lat="55.704330" lon="26.086342">
<ele>147.603638</ele>
<time>2010-07-17T20:24:27Z</time>
<desc>lat.=55.704330, lon.=26.086342, Alt.=147.603638m. Speed=0.108000m/h.</desc>
<speed>0.030000</speed>
</trkpt>
<trkpt lat="55.704330" lon="26.086342">
<ele>147.607544</ele>
<time>2010-07-17T20:24:28Z</time>
<desc>lat.=55.704330, lon.=26.086342, Alt.=147.607544m. Speed=0.108000m/h.</desc>
<speed>0.030000</speed>
</trkpt>
<trkpt lat="55.704330" lon="26.086342">
<ele>147.603638</ele>
<time>2010-07-17T20:24:29Z</time>
<desc>lat.=55.704330, lon.=26.086342, Alt.=147.603638m. Speed=0.108000m/h.</desc>
<speed>0.030000</speed>
</trkpt>
<trkpt lat="55.704330" lon="26.086342">
<ele>147.603638</ele>
<time>2010-07-17T20:24:30Z</time>
<desc>lat.=55.704330, lon.=26.086342, Alt.=147.603638m. Speed=0.108000m/h.</desc>
<speed>0.030000</speed>
</trkpt>
<trkpt lat="55.704330" lon="26.086342">
<ele>147.607544</ele>
<time>2010-07-17T20:24:31Z</time>
<desc>lat.=55.704330, lon.=26.086342, Alt.=147.607544m. Speed=0.108000m/h.</desc>
<speed>0.030000</speed>
</trkpt>
<trkpt lat="55.704330" lon="26.086342">
<ele>147.599731</ele>
<time>2010-07-17T20:24:32Z</time>
<desc>lat.=55.704330, lon.=26.086342, Alt.=147.599731m. Speed=0.180000m/h.</desc>
<speed>0.050000</speed>
</trkpt>
<trkpt lat="55.704330" lon="26.086340">
<ele>147.599731</ele>
<time>2010-07-17T20:24:33Z</time>
<desc>lat.=55.704330, lon.=26.086340, Alt.=147.599731m. Speed=0.072000m/h.</desc>
<speed>0.020000</speed>
</trkpt>
<trkpt lat="55.704330" lon="26.086340">
<ele>147.599731</ele>
<time>2010-07-17T20:24:34Z</time>
<desc>lat.=55.704330, lon.=26.086340, Alt.=147.599731m. Speed=0.108000m/h.</desc>
<speed>0.030000</speed>
</trkpt>
<trkpt lat="55.704330" lon="26.086340">
<ele>147.595825</ele>
<time>2010-07-17T20:24:35Z</time>
<desc>lat.=55.704330, lon.=26.086340, Alt.=147.595825m. Speed=0.072000m/h.</desc>
<speed>0.020000</speed>
</trkpt>
<trkpt lat="55.704330" lon="26.086340">
<ele>147.595825</ele>
<time>2010-07-17T20:24:36Z</time>
<desc>lat.=55.704330, lon.=26.086340, Alt.=147.595825m. Speed=0.108000m/h.</desc>
<speed>0.030000</speed>
</trkpt>
<trkpt lat="55.704330" lon="26.086340">
<ele>147.591919</ele>
<time>2010-07-17T20:24:37Z</time>
<desc>lat.=55.704330, lon.=26.086340, Alt.=147.591919m. Speed=0.180000m/h.</desc>
<speed>0.050000</speed>
</trkpt>
<trkpt lat="55.704330" lon="26.086340">
<ele>147.588013</ele>
<time>2010-07-17T20:24:38Z</time>
<desc>lat.=55.704330, lon.=26.086340, Alt.=147.588013m. Speed=0.144000m/h.</desc>
<speed>0.040000</speed>
</trkpt>
<trkpt lat="55.704330" lon="26.086340">
<ele>147.591919</ele>
<time>2010-07-17T20:24:39Z</time>
<desc>lat.=55.704330, lon.=26.086340, Alt.=147.591919m. Speed=0.072000m/h.</desc>
<speed>0.020000</speed>
</trkpt>
<trkpt lat="55.704330" lon="26.086340">
<ele>147.588013</ele>
<time>2010-07-17T20:24:40Z</time>
<desc>lat.=55.704330, lon.=26.086340, Alt.=147.588013m. Speed=0.108000m/h.</desc>
<speed>0.030000</speed>
</trkpt>
<trkpt lat="55.704330" lon="26.086340">
<ele>147.584106</ele>
<time>2010-07-17T20:24:41Z</time>
<desc>lat.=55.704330, lon.=26.086340, Alt.=147.584106m. Speed=0.108000m/h.</desc>
<speed>0.030000</speed>
</trkpt>
<trkpt lat="55.704330" lon="26.086340">
<ele>147.580200</ele>
<time>2010-07-17T20:24:42Z</time>
<desc>lat.=55.704330, lon.=26.086340, Alt.=147.580200m. Speed=0.108000m/h.</desc>
<speed>0.030000</speed>
</trkpt>
<trkpt lat="55.704330" lon="26.086340">
<ele>147.584106</ele>
<time>2010-07-17T20:24:43Z</time>
<desc>lat.=55.704330, lon.=26.086340, Alt.=147.584106m. Speed=0.108000m/h.</desc>
<speed>0.030000</speed>
</trkpt>
<trkpt lat="55.704330" lon="26.086340">
<ele>147.580200</ele>
<time>2010-07-17T20:24:44Z</time>
<desc>lat.=55.704330, lon.=26.086340, Alt.=147.580200m. Speed=0.072000m/h.</desc>
<speed>0.020000</speed>
</trkpt>
<trkpt lat="55.704330" lon="26.086340">
<ele>147.572388</ele>
<time>2010-07-17T20:24:45Z</time>
<desc>lat.=55.704330, lon.=26.086340, Alt.=147.572388m. Speed=0.000000m/h.</desc>
<speed>0.000000</speed>
</trkpt>
<trkpt lat="55.704330" lon="26.086340">
<ele>147.564575</ele>
<time>2010-07-17T20:24:46Z</time>
<desc>lat.=55.704330, lon.=26.086340, Alt.=147.564575m. Speed=0.108000m/h.</desc>
<speed>0.030000</speed>
</trkpt>
<trkpt lat="55.704330" lon="26.086340">
<ele>147.556763</ele>
<time>2010-07-17T20:24:47Z</time>
<desc>lat.=55.704330, lon.=26.086340, Alt.=147.556763m. Speed=0.036000m/h.</desc>
<speed>0.010000</speed>
</trkpt>
<trkpt lat="55.704330" lon="26.086340">
<ele>147.548950</ele>
<time>2010-07-17T20:24:48Z</time>
<desc>lat.=55.704330, lon.=26.086340, Alt.=147.548950m. Speed=0.072000m/h.</desc>
<speed>0.020000</speed>
</trkpt>
<trkpt lat="55.704330" lon="26.086338">
<ele>147.545044</ele>
<time>2010-07-17T20:24:49Z</time>
<desc>lat.=55.704330, lon.=26.086338, Alt.=147.545044m. Speed=0.000000m/h.</desc>
<speed>0.000000</speed>
</trkpt>
<trkpt lat="55.704330" lon="26.086338">
<ele>147.537231</ele>
<time>2010-07-17T20:24:50Z</time>
<desc>lat.=55.704330, lon.=26.086338, Alt.=147.537231m. Speed=0.072000m/h.</desc>
<speed>0.020000</speed>
</trkpt>
<trkpt lat="55.704330" lon="26.086338">
<ele>147.529419</ele>
<time>2010-07-17T20:24:51Z</time>
<desc>lat.=55.704330, lon.=26.086338, Alt.=147.529419m. Speed=0.072000m/h.</desc>
<speed>0.020000</speed>
</trkpt>
<trkpt lat="55.704330" lon="26.086338">
<ele>147.513794</ele>
<time>2010-07-17T20:24:52Z</time>
<desc>lat.=55.704330, lon.=26.086338, Alt.=147.513794m. Speed=0.036000m/h.</desc>
<speed>0.010000</speed>
</trkpt>
<trkpt lat="55.704327" lon="26.086338">
<ele>147.509888</ele>
<time>2010-07-17T20:24:53Z</time>
<desc>lat.=55.704327, lon.=26.086338, Alt.=147.509888m. Speed=0.036000m/h.</desc>
<speed>0.010000</speed>
</trkpt>
<trkpt lat="55.704327" lon="26.086338">
<ele>147.502075</ele>
<time>2010-07-17T20:24:54Z</time>
<desc>lat.=55.704327, lon.=26.086338, Alt.=147.502075m. Speed=0.036000m/h.</desc>
<speed>0.010000</speed>
</trkpt>
<trkpt lat="55.704327" lon="26.086338">
<ele>147.494263</ele>
<time>2010-07-17T20:24:55Z</time>
<desc>lat.=55.704327, lon.=26.086338, Alt.=147.494263m. Speed=0.072000m/h.</desc>
<speed>0.020000</speed>
</trkpt>
<trkpt lat="55.704330" lon="26.086338">
<ele>147.490356</ele>
<time>2010-07-17T20:24:56Z</time>
<desc>lat.=55.704330, lon.=26.086338, Alt.=147.490356m. Speed=0.036000m/h.</desc>
<speed>0.010000</speed>
</trkpt>
<trkpt lat="55.704330" lon="26.086338">
<ele>147.490356</ele>
<time>2010-07-17T20:24:57Z</time>
<desc>lat.=55.704330, lon.=26.086338, Alt.=147.490356m. Speed=0.072000m/h.</desc>
<speed>0.020000</speed>
</trkpt>
<trkpt lat="55.704330" lon="26.086338">
<ele>147.486450</ele>
<time>2010-07-17T20:24:58Z</time>
<desc>lat.=55.704330, lon.=26.086338, Alt.=147.486450m. Speed=0.036000m/h.</desc>
<speed>0.010000</speed>
</trkpt>
<trkpt lat="55.704330" lon="26.086338">
<ele>147.482544</ele>
<time>2010-07-17T20:24:59Z</time>
<desc>lat.=55.704330, lon.=26.086338, Alt.=147.482544m. Speed=0.072000m/h.</desc>
<speed>0.020000</speed>
</trkpt>
<trkpt lat="55.704330" lon="26.086338">
<ele>147.478638</ele>
<time>2010-07-17T20:25:00Z</time>
<desc>lat.=55.704330, lon.=26.086338, Alt.=147.478638m. Speed=0.072000m/h.</desc>
<speed>0.020000</speed>
</trkpt>
<trkpt lat="55.704330" lon="26.086338">
<ele>147.470825</ele>
<time>2010-07-17T20:25:01Z</time>
<desc>lat.=55.704330, lon.=26.086338, Alt.=147.470825m. Speed=0.108000m/h.</desc>
<speed>0.030000</speed>
</trkpt>
<trkpt lat="55.704330" lon="26.086338">
<ele>147.463013</ele>
<time>2010-07-17T20:25:02Z</time>
<desc>lat.=55.704330, lon.=26.086338, Alt.=147.463013m. Speed=0.072000m/h.</desc>
<speed>0.020000</speed>
</trkpt>
<trkpt lat="55.704330" lon="26.086338">
<ele>147.455200</ele>
<time>2010-07-17T20:25:03Z</time>
<desc>lat.=55.704330, lon.=26.086338, Alt.=147.455200m. Speed=0.036000m/h.</desc>
<speed>0.010000</speed>
</trkpt>
<trkpt lat="55.704330" lon="26.086338">
<ele>147.451294</ele>
<time>2010-07-17T20:25:04Z</time>
<desc>lat.=55.704330, lon.=26.086338, Alt.=147.451294m. Speed=0.036000m/h.</desc>
<speed>0.010000</speed>
</trkpt>
<trkpt lat="55.704330" lon="26.086338">
<ele>147.451294</ele>
<time>2010-07-17T20:25:05Z</time>
<desc>lat.=55.704330, lon.=26.086338, Alt.=147.451294m. Speed=0.036000m/h.</desc>
<speed>0.010000</speed>
</trkpt>
<trkpt lat="55.704330" lon="26.086338">
<ele>147.447388</ele>
<time>2010-07-17T20:25:06Z</time>
<desc>lat.=55.704330, lon.=26.086338, Alt.=147.447388m. Speed=0.072000m/h.</desc>
<speed>0.020000</speed>
</trkpt>
<trkpt lat="55.704330" lon="26.086338">
<ele>147.447388</ele>
<time>2010-07-17T20:25:07Z</time>
<desc>lat.=55.704330, lon.=26.086338, Alt.=147.447388m. Speed=0.180000m/h.</desc>
<speed>0.050000</speed>
</trkpt>
<trkpt lat="55.704330" lon="26.086338">
<ele>147.447388</ele>
<time>2010-07-17T20:25:08Z</time>
<desc>lat.=55.704330, lon.=26.086338, Alt.=147.447388m. Speed=0.072000m/h.</desc>
<speed>0.020000</speed>
</trkpt>
<trkpt lat="55.704330" lon="26.086338">
<ele>147.451294</ele>
<time>2010-07-17T20:25:09Z</time>
<desc>lat.=55.704330, lon.=26.086338, Alt.=147.451294m. Speed=0.072000m/h.</desc>
<speed>0.020000</speed>
</trkpt>
<trkpt lat="55.704330" lon="26.086338">
<ele>147.447388</ele>
<time>2010-07-17T20:25:10Z</time>
<desc>lat.=55.704330, lon.=26.086338, Alt.=147.447388m. Speed=0.036000m/h.</desc>
<speed>0.010000</speed>
</trkpt>
<trkpt lat="55.704330" lon="26.086338">
<ele>147.451294</ele>
<time>2010-07-17T20:25:11Z</time>
<desc>lat.=55.704330, lon.=26.086338, Alt.=147.451294m. Speed=0.108000m/h.</desc>
<speed>0.030000</speed>
</trkpt>
<trkpt lat="55.704330" lon="26.086338">
<ele>147.455200</ele>
<time>2010-07-17T20:25:12Z</time>
<desc>lat.=55.704330, lon.=26.086338, Alt.=147.455200m. Speed=0.072000m/h.</desc>
<speed>0.020000</speed>
</trkpt>
<trkpt lat="55.704330" lon="26.086338">
<ele>147.451294</ele>
<time>2010-07-17T20:25:13Z</time>
<desc>lat.=55.704330, lon.=26.086338, Alt.=147.451294m. Speed=0.108000m/h.</desc>
<speed>0.030000</speed>
</trkpt>
<trkpt lat="55.704330" lon="26.086338">
<ele>147.455200</ele>
<time>2010-07-17T20:25:14Z</time>
<desc>lat.=55.704330, lon.=26.086338, Alt.=147.455200m. Speed=0.108000m/h.</desc>
<speed>0.030000</speed>
</trkpt>
<trkpt lat="55.704330" lon="26.086338">
<ele>147.459106</ele>
<time>2010-07-17T20:25:15Z</time>
<desc>lat.=55.704330, lon.=26.086338, Alt.=147.459106m. Speed=0.000000m/h.</desc>
<speed>0.000000</speed>
</trkpt>
<trkpt lat="55.704330" lon="26.086338">
<ele>147.463013</ele>
<time>2010-07-17T20:25:16Z</time>
<desc>lat.=55.704330, lon.=26.086338, Alt.=147.463013m. Speed=0.000000m/h.</desc>
<speed>0.000000</speed>
</trkpt>
<trkpt lat="55.704330" lon="26.086338">
<ele>147.466919</ele>
<time>2010-07-17T20:25:17Z</time>
<desc>lat.=55.704330, lon.=26.086338, Alt.=147.466919m. Speed=0.000000m/h.</desc>
<speed>0.000000</speed>
</trkpt>
<trkpt lat="55.704330" lon="26.086338">
<ele>147.463013</ele>
<time>2010-07-17T20:25:18Z</time>
<desc>lat.=55.704330, lon.=26.086338, Alt.=147.463013m. Speed=0.072000m/h.</desc>
<speed>0.020000</speed>
</trkpt>
<trkpt lat="55.704330" lon="26.086338">
<ele>147.466919</ele>
<time>2010-07-17T20:25:19Z</time>
<desc>lat.=55.704330, lon.=26.086338, Alt.=147.466919m. Speed=0.000000m/h.</desc>
<speed>0.000000</speed>
</trkpt>
<trkpt lat="55.704330" lon="26.086338">
<ele>147.470825</ele>
<time>2010-07-17T20:25:20Z</time>
<desc>lat.=55.704330, lon.=26.086338, Alt.=147.470825m. Speed=0.072000m/h.</desc>
<speed>0.020000</speed>
</trkpt>
<trkpt lat="55.704330" lon="26.086338">
<ele>147.474731</ele>
<time>2010-07-17T20:25:21Z</time>
<desc>lat.=55.704330, lon.=26.086338, Alt.=147.474731m. Speed=0.000000m/h.</desc>
<speed>0.000000</speed>
</trkpt>
<trkpt lat="55.704330" lon="26.086338">
<ele>147.474731</ele>
<time>2010-07-17T20:25:22Z</time>
<desc>lat.=55.704330, lon.=26.086338, Alt.=147.474731m. Speed=0.000000m/h.</desc>
<speed>0.000000</speed>
</trkpt>
<trkpt lat="55.704330" lon="26.086338">
<ele>147.474731</ele>
<time>2010-07-17T20:25:23Z</time>
<desc>lat.=55.704330, lon.=26.086338, Alt.=147.474731m. Speed=0.036000m/h.</desc>
<speed>0.010000</speed>
</trkpt>
<trkpt lat="55.704330" lon="26.086338">
<ele>147.478638</ele>
<time>2010-07-17T20:25:24Z</time>
<desc>lat.=55.704330, lon.=26.086338, Alt.=147.478638m. Speed=0.036000m/h.</desc>
<speed>0.010000</speed>
</trkpt>
<trkpt lat="55.704330" lon="26.086338">
<ele>147.478638</ele>
<time>2010-07-17T20:25:25Z</time>
<desc>lat.=55.704330, lon.=26.086338, Alt.=147.478638m. Speed=0.036000m/h.</desc>
<speed>0.010000</speed>
</trkpt>
<trkpt lat="55.704330" lon="26.086338">
<ele>147.482544</ele>
<time>2010-07-17T20:25:26Z</time>
<desc>lat.=55.704330, lon.=26.086338, Alt.=147.482544m. Speed=0.108000m/h.</desc>
<speed>0.030000</speed>
</trkpt>
<trkpt lat="55.704330" lon="26.086338">
<ele>147.478638</ele>
<time>2010-07-17T20:25:27Z</time>
<desc>lat.=55.704330, lon.=26.086338, Alt.=147.478638m. Speed=0.000000m/h.</desc>
<speed>0.000000</speed>
</trkpt>
<trkpt lat="55.704330" lon="26.086338">
<ele>147.478638</ele>
<time>2010-07-17T20:25:28Z</time>
<desc>lat.=55.704330, lon.=26.086338, Alt.=147.478638m. Speed=0.000000m/h.</desc>
<speed>0.000000</speed>
</trkpt>
<trkpt lat="55.704330" lon="26.086338">
<ele>147.482544</ele>
<time>2010-07-17T20:25:29Z</time>
<desc>lat.=55.704330, lon.=26.086338, Alt.=147.482544m. Speed=0.036000m/h.</desc>
<speed>0.010000</speed>
</trkpt>
<trkpt lat="55.704330" lon="26.086338">
<ele>147.482544</ele>
<time>2010-07-17T20:25:30Z</time>
<desc>lat.=55.704330, lon.=26.086338, Alt.=147.482544m. Speed=0.036000m/h.</desc>
<speed>0.010000</speed>
</trkpt>
<trkpt lat="55.704330" lon="26.086338">
<ele>147.486450</ele>
<time>2010-07-17T20:25:31Z</time>
<desc>lat.=55.704330, lon.=26.086338, Alt.=147.486450m. Speed=0.000000m/h.</desc>
<speed>0.000000</speed>
</trkpt>
<trkpt lat="55.704330" lon="26.086338">
<ele>147.482544</ele>
<time>2010-07-17T20:25:32Z</time>
<desc>lat.=55.704330, lon.=26.086338, Alt.=147.482544m. Speed=0.072000m/h.</desc>
<speed>0.020000</speed>
</trkpt>
<trkpt lat="55.704330" lon="26.086338">
<ele>147.482544</ele>
<time>2010-07-17T20:25:33Z</time>
<desc>lat.=55.704330, lon.=26.086338, Alt.=147.482544m. Speed=0.072000m/h.</desc>
<speed>0.020000</speed>
</trkpt>
<trkpt lat="55.704330" lon="26.086338">
<ele>147.478638</ele>
<time>2010-07-17T20:25:34Z</time>
<desc>lat.=55.704330, lon.=26.086338, Alt.=147.478638m. Speed=0.144000m/h.</desc>
<speed>0.040000</speed>
</trkpt>
<trkpt lat="55.704330" lon="26.086338">
<ele>147.478638</ele>
<time>2010-07-17T20:25:35Z</time>
<desc>lat.=55.704330, lon.=26.086338, Alt.=147.478638m. Speed=0.000000m/h.</desc>
<speed>0.000000</speed>
</trkpt>
<trkpt lat="55.704330" lon="26.086338">
<ele>147.478638</ele>
<time>2010-07-17T20:25:36Z</time>
<desc>lat.=55.704330, lon.=26.086338, Alt.=147.478638m. Speed=0.000000m/h.</desc>
<speed>0.000000</speed>
</trkpt>
<trkpt lat="55.704330" lon="26.086338">
<ele>147.474731</ele>
<time>2010-07-17T20:25:37Z</time>
<desc>lat.=55.704330, lon.=26.086338, Alt.=147.474731m. Speed=0.036000m/h.</desc>
<speed>0.010000</speed>
</trkpt>
<trkpt lat="55.704330" lon="26.086338">
<ele>147.482544</ele>
<time>2010-07-17T20:25:38Z</time>
<desc>lat.=55.704330, lon.=26.086338, Alt.=147.482544m. Speed=0.036000m/h.</desc>
<speed>0.010000</speed>
</trkpt>
<trkpt lat="55.704330" lon="26.086338">
<ele>147.486450</ele>
<time>2010-07-17T20:25:39Z</time>
<desc>lat.=55.704330, lon.=26.086338, Alt.=147.486450m. Speed=0.000000m/h.</desc>
<speed>0.000000</speed>
</trkpt>
<trkpt lat="55.704330" lon="26.086338">
<ele>147.490356</ele>
<time>2010-07-17T20:25:40Z</time>
<desc>lat.=55.704330, lon.=26.086338, Alt.=147.490356m. Speed=0.036000m/h.</desc>
<speed>0.010000</speed>
</trkpt>
<trkpt lat="55.704330" lon="26.086338">
<ele>147.498169</ele>
<time>2010-07-17T20:25:41Z</time>
<desc>lat.=55.704330, lon.=26.086338, Alt.=147.498169m. Speed=0.000000m/h.</desc>
<speed>0.000000</speed>
</trkpt>
<trkpt lat="55.704330" lon="26.086338">
<ele>147.502075</ele>
<time>2010-07-17T20:25:42Z</time>
<desc>lat.=55.704330, lon.=26.086338, Alt.=147.502075m. Speed=0.036000m/h.</desc>
<speed>0.010000</speed>
</trkpt>
<trkpt lat="55.704330" lon="26.086338">
<ele>147.505981</ele>
<time>2010-07-17T20:25:43Z</time>
<desc>lat.=55.704330, lon.=26.086338, Alt.=147.505981m. Speed=0.000000m/h.</desc>
<speed>0.000000</speed>
</trkpt>
<trkpt lat="55.704330" lon="26.086338">
<ele>147.509888</ele>
<time>2010-07-17T20:25:44Z</time>
<desc>lat.=55.704330, lon.=26.086338, Alt.=147.509888m. Speed=0.000000m/h.</desc>
<speed>0.000000</speed>
</trkpt>
<trkpt lat="55.704330" lon="26.086338">
<ele>147.513794</ele>
<time>2010-07-17T20:25:45Z</time>
<desc>lat.=55.704330, lon.=26.086338, Alt.=147.513794m. Speed=0.036000m/h.</desc>
<speed>0.010000</speed>
</trkpt>
<trkpt lat="55.704330" lon="26.086338">
<ele>147.517700</ele>
<time>2010-07-17T20:25:46Z</time>
<desc>lat.=55.704330, lon.=26.086338, Alt.=147.517700m. Speed=0.072000m/h.</desc>
<speed>0.020000</speed>
</trkpt>
<trkpt lat="55.704330" lon="26.086338">
<ele>147.521606</ele>
<time>2010-07-17T20:25:47Z</time>
<desc>lat.=55.704330, lon.=26.086338, Alt.=147.521606m. Speed=0.000000m/h.</desc>
<speed>0.000000</speed>
</trkpt>
<trkpt lat="55.704334" lon="26.086338">
<ele>147.521606</ele>
<time>2010-07-17T20:25:48Z</time>
<desc>lat.=55.704334, lon.=26.086338, Alt.=147.521606m. Speed=0.036000m/h.</desc>
<speed>0.010000</speed>
</trkpt>
<trkpt lat="55.704334" lon="26.086338">
<ele>147.525513</ele>
<time>2010-07-17T20:25:49Z</time>
<desc>lat.=55.704334, lon.=26.086338, Alt.=147.525513m. Speed=0.036000m/h.</desc>
<speed>0.010000</speed>
</trkpt>
<trkpt lat="55.704334" lon="26.086338">
<ele>147.525513</ele>
<time>2010-07-17T20:25:50Z</time>
<desc>lat.=55.704334, lon.=26.086338, Alt.=147.525513m. Speed=0.036000m/h.</desc>
<speed>0.010000</speed>
</trkpt>
<trkpt lat="55.704334" lon="26.086338">
<ele>147.525513</ele>
<time>2010-07-17T20:25:51Z</time>
<desc>lat.=55.704334, lon.=26.086338, Alt.=147.525513m. Speed=0.072000m/h.</desc>
<speed>0.020000</speed>
</trkpt>
<trkpt lat="55.704334" lon="26.086338">
<ele>147.525513</ele>
<time>2010-07-17T20:25:52Z</time>
<desc>lat.=55.704334, lon.=26.086338, Alt.=147.525513m. Speed=0.072000m/h.</desc>
<speed>0.020000</speed>
</trkpt>
<trkpt lat="55.704334" lon="26.086338">
<ele>147.525513</ele>
<time>2010-07-17T20:25:53Z</time>
<desc>lat.=55.704334, lon.=26.086338, Alt.=147.525513m. Speed=0.036000m/h.</desc>
<speed>0.010000</speed>
</trkpt>
<trkpt lat="55.704334" lon="26.086338">
<ele>147.525513</ele>
<time>2010-07-17T20:25:54Z</time>
<desc>lat.=55.704334, lon.=26.086338, Alt.=147.525513m. Speed=0.000000m/h.</desc>
<speed>0.000000</speed>
</trkpt>
<trkpt lat="55.704334" lon="26.086338">
<ele>147.521606</ele>
<time>2010-07-17T20:25:55Z</time>
<desc>lat.=55.704334, lon.=26.086338, Alt.=147.521606m. Speed=0.000000m/h.</desc>
<speed>0.000000</speed>
</trkpt>
<trkpt lat="55.704334" lon="26.086338">
<ele>147.525513</ele>
<time>2010-07-17T20:25:56Z</time>
<desc>lat.=55.704334, lon.=26.086338, Alt.=147.525513m. Speed=0.000000m/h.</desc>
<speed>0.000000</speed>
</trkpt>
<trkpt lat="55.704334" lon="26.086338">
<ele>147.525513</ele>
<time>2010-07-17T20:25:57Z</time>
<desc>lat.=55.704334, lon.=26.086338, Alt.=147.525513m. Speed=0.000000m/h.</desc>
<speed>0.000000</speed>
</trkpt>
<trkpt lat="55.704334" lon="26.086338">
<ele>147.525513</ele>
<time>2010-07-17T20:25:58Z</time>
<desc>lat.=55.704334, lon.=26.086338, Alt.=147.525513m. Speed=0.000000m/h.</desc>
<speed>0.000000</speed>
</trkpt>
<trkpt lat="55.704334" lon="26.086338">
<ele>147.525513</ele>
<time>2010-07-17T20:25:59Z</time>
<desc>lat.=55.704334, lon.=26.086338, Alt.=147.525513m. Speed=0.036000m/h.</desc>
<speed>0.010000</speed>
</trkpt>
<trkpt lat="55.704334" lon="26.086338">
<ele>147.525513</ele>
<time>2010-07-17T20:26:00Z</time>
<desc>lat.=55.704334, lon.=26.086338, Alt.=147.525513m. Speed=0.036000m/h.</desc>
<speed>0.010000</speed>
</trkpt>
<trkpt lat="55.704334" lon="26.086338">
<ele>147.525513</ele>
<time>2010-07-17T20:26:01Z</time>
<desc>lat.=55.704334, lon.=26.086338, Alt.=147.525513m. Speed=0.036000m/h.</desc>
<speed>0.010000</speed>
</trkpt>
<trkpt lat="55.704334" lon="26.086338">
<ele>147.525513</ele>
<time>2010-07-17T20:26:02Z</time>
<desc>lat.=55.704334, lon.=26.086338, Alt.=147.525513m. Speed=0.036000m/h.</desc>
<speed>0.010000</speed>
</trkpt>
<trkpt lat="55.704334" lon="26.086338">
<ele>147.529419</ele>
<time>2010-07-17T20:26:03Z</time>
<desc>lat.=55.704334, lon.=26.086338, Alt.=147.529419m. Speed=0.000000m/h.</desc>
<speed>0.000000</speed>
</trkpt>
<trkpt lat="55.704334" lon="26.086338">
<ele>147.529419</ele>
<time>2010-07-17T20:26:04Z</time>
<desc>lat.=55.704334, lon.=26.086338, Alt.=147.529419m. Speed=0.000000m/h.</desc>
<speed>0.000000</speed>
</trkpt>
<trkpt lat="55.704334" lon="26.086338">
<ele>147.529419</ele>
<time>2010-07-17T20:26:05Z</time>
<desc>lat.=55.704334, lon.=26.086338, Alt.=147.529419m. Speed=0.072000m/h.</desc>
<speed>0.020000</speed>
</trkpt>
<trkpt lat="55.704334" lon="26.086338">
<ele>147.525513</ele>
<time>2010-07-17T20:26:06Z</time>
<desc>lat.=55.704334, lon.=26.086338, Alt.=147.525513m. Speed=0.000000m/h.</desc>
<speed>0.000000</speed>
</trkpt>
<trkpt lat="55.704334" lon="26.086338">
<ele>147.525513</ele>
<time>2010-07-17T20:26:07Z</time>
<desc>lat.=55.704334, lon.=26.086338, Alt.=147.525513m. Speed=0.000000m/h.</desc>
<speed>0.000000</speed>
</trkpt>
<trkpt lat="55.704334" lon="26.086338">
<ele>147.521606</ele>
<time>2010-07-17T20:26:08Z</time>
<desc>lat.=55.704334, lon.=26.086338, Alt.=147.521606m. Speed=0.036000m/h.</desc>
<speed>0.010000</speed>
</trkpt>
<trkpt lat="55.704334" lon="26.086338">
<ele>147.517700</ele>
<time>2010-07-17T20:26:09Z</time>
<desc>lat.=55.704334, lon.=26.086338, Alt.=147.517700m. Speed=0.072000m/h.</desc>
<speed>0.020000</speed>
</trkpt>
<trkpt lat="55.704334" lon="26.086338">
<ele>147.513794</ele>
<time>2010-07-17T20:26:10Z</time>
<desc>lat.=55.704334, lon.=26.086338, Alt.=147.513794m. Speed=0.036000m/h.</desc>
<speed>0.010000</speed>
</trkpt>
<trkpt lat="55.704334" lon="26.086338">
<ele>147.505981</ele>
<time>2010-07-17T20:26:11Z</time>
<desc>lat.=55.704334, lon.=26.086338, Alt.=147.505981m. Speed=0.036000m/h.</desc>
<speed>0.010000</speed>
</trkpt>
<trkpt lat="55.704334" lon="26.086338">
<ele>147.505981</ele>
<time>2010-07-17T20:26:12Z</time>
<desc>lat.=55.704334, lon.=26.086338, Alt.=147.505981m. Speed=0.036000m/h.</desc>
<speed>0.010000</speed>
</trkpt>
<trkpt lat="55.704334" lon="26.086338">
<ele>147.505981</ele>
<time>2010-07-17T20:26:13Z</time>
<desc>lat.=55.704334, lon.=26.086338, Alt.=147.505981m. Speed=0.108000m/h.</desc>
<speed>0.030000</speed>
</trkpt>
<trkpt lat="55.704334" lon="26.086338">
<ele>147.502075</ele>
<time>2010-07-17T20:26:14Z</time>
<desc>lat.=55.704334, lon.=26.086338, Alt.=147.502075m. Speed=0.072000m/h.</desc>
<speed>0.020000</speed>
</trkpt>
<trkpt lat="55.704334" lon="26.086338">
<ele>147.498169</ele>
<time>2010-07-17T20:26:15Z</time>
<desc>lat.=55.704334, lon.=26.086338, Alt.=147.498169m. Speed=0.108000m/h.</desc>
<speed>0.030000</speed>
</trkpt>
<trkpt lat="55.704334" lon="26.086338">
<ele>147.498169</ele>
<time>2010-07-17T20:26:16Z</time>
<desc>lat.=55.704334, lon.=26.086338, Alt.=147.498169m. Speed=0.072000m/h.</desc>
<speed>0.020000</speed>
</trkpt>
<trkpt lat="55.704334" lon="26.086338">
<ele>147.494263</ele>
<time>2010-07-17T20:26:17Z</time>
<desc>lat.=55.704334, lon.=26.086338, Alt.=147.494263m. Speed=0.108000m/h.</desc>
<speed>0.030000</speed>
</trkpt>
<trkpt lat="55.704334" lon="26.086336">
<ele>147.490356</ele>
<time>2010-07-17T20:26:18Z</time>
<desc>lat.=55.704334, lon.=26.086336, Alt.=147.490356m. Speed=0.108000m/h.</desc>
<speed>0.030000</speed>
</trkpt>
<trkpt lat="55.704334" lon="26.086336">
<ele>147.494263</ele>
<time>2010-07-17T20:26:19Z</time>
<desc>lat.=55.704334, lon.=26.086336, Alt.=147.494263m. Speed=0.108000m/h.</desc>
<speed>0.030000</speed>
</trkpt>
<trkpt lat="55.704334" lon="26.086336">
<ele>147.498169</ele>
<time>2010-07-17T20:26:20Z</time>
<desc>lat.=55.704334, lon.=26.086336, Alt.=147.498169m. Speed=0.072000m/h.</desc>
<speed>0.020000</speed>
</trkpt>
<trkpt lat="55.704334" lon="26.086336">
<ele>147.498169</ele>
<time>2010-07-17T20:26:21Z</time>
<desc>lat.=55.704334, lon.=26.086336, Alt.=147.498169m. Speed=0.000000m/h.</desc>
<speed>0.000000</speed>
</trkpt>
<trkpt lat="55.704334" lon="26.086336">
<ele>147.502075</ele>
<time>2010-07-17T20:26:22Z</time>
<desc>lat.=55.704334, lon.=26.086336, Alt.=147.502075m. Speed=0.000000m/h.</desc>
<speed>0.000000</speed>
</trkpt>
<trkpt lat="55.704334" lon="26.086336">
<ele>147.509888</ele>
<time>2010-07-17T20:26:23Z</time>
<desc>lat.=55.704334, lon.=26.086336, Alt.=147.509888m. Speed=0.000000m/h.</desc>
<speed>0.000000</speed>
</trkpt>
<trkpt lat="55.704334" lon="26.086336">
<ele>147.505981</ele>
<time>2010-07-17T20:26:24Z</time>
<desc>lat.=55.704334, lon.=26.086336, Alt.=147.505981m. Speed=0.072000m/h.</desc>
<speed>0.020000</speed>
</trkpt>
<trkpt lat="55.704334" lon="26.086336">
<ele>147.509888</ele>
<time>2010-07-17T20:26:25Z</time>
<desc>lat.=55.704334, lon.=26.086336, Alt.=147.509888m. Speed=0.000000m/h.</desc>
<speed>0.000000</speed>
</trkpt>
<trkpt lat="55.704334" lon="26.086336">
<ele>147.509888</ele>
<time>2010-07-17T20:26:26Z</time>
<desc>lat.=55.704334, lon.=26.086336, Alt.=147.509888m. Speed=0.036000m/h.</desc>
<speed>0.010000</speed>
</trkpt>
<trkpt lat="55.704334" lon="26.086336">
<ele>147.513794</ele>
<time>2010-07-17T20:26:27Z</time>
<desc>lat.=55.704334, lon.=26.086336, Alt.=147.513794m. Speed=0.000000m/h.</desc>
<speed>0.000000</speed>
</trkpt>
<trkpt lat="55.704334" lon="26.086336">
<ele>147.521606</ele>
<time>2010-07-17T20:26:28Z</time>
<desc>lat.=55.704334, lon.=26.086336, Alt.=147.521606m. Speed=0.036000m/h.</desc>
<speed>0.010000</speed>
</trkpt>
<trkpt lat="55.704334" lon="26.086336">
<ele>147.525513</ele>
<time>2010-07-17T20:26:29Z</time>
<desc>lat.=55.704334, lon.=26.086336, Alt.=147.525513m. Speed=0.072000m/h.</desc>
<speed>0.020000</speed>
</trkpt>
<trkpt lat="55.704334" lon="26.086336">
<ele>147.525513</ele>
<time>2010-07-17T20:26:30Z</time>
<desc>lat.=55.704334, lon.=26.086336, Alt.=147.525513m. Speed=0.036000m/h.</desc>
<speed>0.010000</speed>
</trkpt>
<trkpt lat="55.704334" lon="26.086336">
<ele>147.521606</ele>
<time>2010-07-17T20:26:31Z</time>
<desc>lat.=55.704334, lon.=26.086336, Alt.=147.521606m. Speed=0.000000m/h.</desc>
<speed>0.000000</speed>
</trkpt>
<trkpt lat="55.704334" lon="26.086336">
<ele>147.525513</ele>
<time>2010-07-17T20:26:32Z</time>
<desc>lat.=55.704334, lon.=26.086336, Alt.=147.525513m. Speed=0.036000m/h.</desc>
<speed>0.010000</speed>
</trkpt>
<trkpt lat="55.704334" lon="26.086336">
<ele>147.525513</ele>
<time>2010-07-17T20:26:33Z</time>
<desc>lat.=55.704334, lon.=26.086336, Alt.=147.525513m. Speed=0.072000m/h.</desc>
<speed>0.020000</speed>
</trkpt>
<trkpt lat="55.704334" lon="26.086336">
<ele>147.517700</ele>
<time>2010-07-17T20:26:34Z</time>
<desc>lat.=55.704334, lon.=26.086336, Alt.=147.517700m. Speed=0.036000m/h.</desc>
<speed>0.010000</speed>
</trkpt>
<trkpt lat="55.704334" lon="26.086336">
<ele>147.517700</ele>
<time>2010-07-17T20:26:35Z</time>
<desc>lat.=55.704334, lon.=26.086336, Alt.=147.517700m. Speed=0.036000m/h.</desc>
<speed>0.010000</speed>
</trkpt>
<trkpt lat="55.704334" lon="26.086336">
<ele>147.513794</ele>
<time>2010-07-17T20:26:36Z</time>
<desc>lat.=55.704334, lon.=26.086336, Alt.=147.513794m. Speed=0.036000m/h.</desc>
<speed>0.010000</speed>
</trkpt>
<trkpt lat="55.704334" lon="26.086336">
<ele>147.509888</ele>
<time>2010-07-17T20:26:37Z</time>
<desc>lat.=55.704334, lon.=26.086336, Alt.=147.509888m. Speed=0.036000m/h.</desc>
<speed>0.010000</speed>
</trkpt>
<trkpt lat="55.704334" lon="26.086338">
<ele>147.509888</ele>
<time>2010-07-17T20:26:38Z</time>
<desc>lat.=55.704334, lon.=26.086338, Alt.=147.509888m. Speed=0.036000m/h.</desc>
<speed>0.010000</speed>
</trkpt>
<trkpt lat="55.704334" lon="26.086338">
<ele>147.505981</ele>
<time>2010-07-17T20:26:39Z</time>
<desc>lat.=55.704334, lon.=26.086338, Alt.=147.505981m. Speed=0.036000m/h.</desc>
<speed>0.010000</speed>
</trkpt>
<trkpt lat="55.704334" lon="26.086338">
<ele>147.502075</ele>
<time>2010-07-17T20:26:40Z</time>
<desc>lat.=55.704334, lon.=26.086338, Alt.=147.502075m. Speed=0.108000m/h.</desc>
<speed>0.030000</speed>
</trkpt>
<trkpt lat="55.704334" lon="26.086338">
<ele>147.498169</ele>
<time>2010-07-17T20:26:41Z</time>
<desc>lat.=55.704334, lon.=26.086338, Alt.=147.498169m. Speed=0.072000m/h.</desc>
<speed>0.020000</speed>
</trkpt>
<trkpt lat="55.704334" lon="26.086338">
<ele>147.490356</ele>
<time>2010-07-17T20:26:42Z</time>
<desc>lat.=55.704334, lon.=26.086338, Alt.=147.490356m. Speed=0.000000m/h.</desc>
<speed>0.000000</speed>
</trkpt>
<trkpt lat="55.704334" lon="26.086338">
<ele>147.486450</ele>
<time>2010-07-17T20:26:43Z</time>
<desc>lat.=55.704334, lon.=26.086338, Alt.=147.486450m. Speed=0.036000m/h.</desc>
<speed>0.010000</speed>
</trkpt>
<trkpt lat="55.704334" lon="26.086338">
<ele>147.482544</ele>
<time>2010-07-17T20:26:44Z</time>
<desc>lat.=55.704334, lon.=26.086338, Alt.=147.482544m. Speed=0.036000m/h.</desc>
<speed>0.010000</speed>
</trkpt>
<trkpt lat="55.704334" lon="26.086336">
<ele>147.474731</ele>
<time>2010-07-17T20:26:45Z</time>
<desc>lat.=55.704334, lon.=26.086336, Alt.=147.474731m. Speed=0.036000m/h.</desc>
<speed>0.010000</speed>
</trkpt>
<trkpt lat="55.704334" lon="26.086336">
<ele>147.470825</ele>
<time>2010-07-17T20:26:46Z</time>
<desc>lat.=55.704334, lon.=26.086336, Alt.=147.470825m. Speed=0.072000m/h.</desc>
<speed>0.020000</speed>
</trkpt>
<trkpt lat="55.704334" lon="26.086336">
<ele>147.463013</ele>
<time>2010-07-17T20:26:47Z</time>
<desc>lat.=55.704334, lon.=26.086336, Alt.=147.463013m. Speed=0.108000m/h.</desc>
<speed>0.030000</speed>
</trkpt>
<trkpt lat="55.704334" lon="26.086336">
<ele>147.463013</ele>
<time>2010-07-17T20:26:48Z</time>
<desc>lat.=55.704334, lon.=26.086336, Alt.=147.463013m. Speed=0.036000m/h.</desc>
<speed>0.010000</speed>
</trkpt>
<trkpt lat="55.704334" lon="26.086336">
<ele>147.466919</ele>
<time>2010-07-17T20:26:49Z</time>
<desc>lat.=55.704334, lon.=26.086336, Alt.=147.466919m. Speed=0.036000m/h.</desc>
<speed>0.010000</speed>
</trkpt>
<trkpt lat="55.704334" lon="26.086336">
<ele>147.463013</ele>
<time>2010-07-17T20:26:50Z</time>
<desc>lat.=55.704334, lon.=26.086336, Alt.=147.463013m. Speed=0.036000m/h.</desc>
<speed>0.010000</speed>
</trkpt>
<trkpt lat="55.704334" lon="26.086336">
<ele>147.463013</ele>
<time>2010-07-17T20:26:51Z</time>
<desc>lat.=55.704334, lon.=26.086336, Alt.=147.463013m. Speed=0.000000m/h.</desc>
<speed>0.000000</speed>
</trkpt>
<trkpt lat="55.704334" lon="26.086336">
<ele>147.455200</ele>
<time>2010-07-17T20:26:52Z</time>
<desc>lat.=55.704334, lon.=26.086336, Alt.=147.455200m. Speed=0.036000m/h.</desc>
<speed>0.010000</speed>
</trkpt>
<trkpt lat="55.704334" lon="26.086336">
<ele>147.451294</ele>
<time>2010-07-17T20:26:53Z</time>
<desc>lat.=55.704334, lon.=26.086336, Alt.=147.451294m. Speed=0.072000m/h.</desc>
<speed>0.020000</speed>
</trkpt>
<trkpt lat="55.704334" lon="26.086336">
<ele>147.447388</ele>
<time>2010-07-17T20:26:54Z</time>
<desc>lat.=55.704334, lon.=26.086336, Alt.=147.447388m. Speed=0.072000m/h.</desc>
<speed>0.020000</speed>
</trkpt>
<trkpt lat="55.704334" lon="26.086336">
<ele>147.451294</ele>
<time>2010-07-17T20:26:55Z</time>
<desc>lat.=55.704334, lon.=26.086336, Alt.=147.451294m. Speed=0.072000m/h.</desc>
<speed>0.020000</speed>
</trkpt>
<trkpt lat="55.704334" lon="26.086336">
<ele>147.443481</ele>
<time>2010-07-17T20:26:56Z</time>
<desc>lat.=55.704334, lon.=26.086336, Alt.=147.443481m. Speed=0.036000m/h.</desc>
<speed>0.010000</speed>
</trkpt>
<trkpt lat="55.704334" lon="26.086336">
<ele>147.439575</ele>
<time>2010-07-17T20:26:57Z</time>
<desc>lat.=55.704334, lon.=26.086336, Alt.=147.439575m. Speed=0.000000m/h.</desc>
<speed>0.000000</speed>
</trkpt>
<trkpt lat="55.704334" lon="26.086336">
<ele>147.443481</ele>
<time>2010-07-17T20:26:58Z</time>
<desc>lat.=55.704334, lon.=26.086336, Alt.=147.443481m. Speed=0.036000m/h.</desc>
<speed>0.010000</speed>
</trkpt>
<trkpt lat="55.704334" lon="26.086336">
<ele>147.443481</ele>
<time>2010-07-17T20:26:59Z</time>
<desc>lat.=55.704334, lon.=26.086336, Alt.=147.443481m. Speed=0.036000m/h.</desc>
<speed>0.010000</speed>
</trkpt>
<trkpt lat="55.704334" lon="26.086336">
<ele>147.447388</ele>
<time>2010-07-17T20:27:00Z</time>
<desc>lat.=55.704334, lon.=26.086336, Alt.=147.447388m. Speed=0.108000m/h.</desc>
<speed>0.030000</speed>
</trkpt>
<trkpt lat="55.704334" lon="26.086336">
<ele>147.447388</ele>
<time>2010-07-17T20:27:01Z</time>
<desc>lat.=55.704334, lon.=26.086336, Alt.=147.447388m. Speed=0.036000m/h.</desc>
<speed>0.010000</speed>
</trkpt>
<trkpt lat="55.704334" lon="26.086336">
<ele>147.447388</ele>
<time>2010-07-17T20:27:02Z</time>
<desc>lat.=55.704334, lon.=26.086336, Alt.=147.447388m. Speed=0.036000m/h.</desc>
<speed>0.010000</speed>
</trkpt>
<trkpt lat="55.704334" lon="26.086336">
<ele>147.451294</ele>
<time>2010-07-17T20:27:03Z</time>
<desc>lat.=55.704334, lon.=26.086336, Alt.=147.451294m. Speed=0.036000m/h.</desc>
<speed>0.010000</speed>
</trkpt>
<trkpt lat="55.704334" lon="26.086336">
<ele>147.451294</ele>
<time>2010-07-17T20:27:04Z</time>
<desc>lat.=55.704334, lon.=26.086336, Alt.=147.451294m. Speed=0.144000m/h.</desc>
<speed>0.040000</speed>
</trkpt>
<trkpt lat="55.704334" lon="26.086336">
<ele>147.459106</ele>
<time>2010-07-17T20:27:05Z</time>
<desc>lat.=55.704334, lon.=26.086336, Alt.=147.459106m. Speed=0.144000m/h.</desc>
<speed>0.040000</speed>
</trkpt>
<trkpt lat="55.704334" lon="26.086336">
<ele>147.459106</ele>
<time>2010-07-17T20:27:06Z</time>
<desc>lat.=55.704334, lon.=26.086336, Alt.=147.459106m. Speed=0.036000m/h.</desc>
<speed>0.010000</speed>
</trkpt>
<trkpt lat="55.704334" lon="26.086334">
<ele>147.463013</ele>
<time>2010-07-17T20:27:07Z</time>
<desc>lat.=55.704334, lon.=26.086334, Alt.=147.463013m. Speed=0.180000m/h.</desc>
<speed>0.050000</speed>
</trkpt>
</trkseg>
</trk>
</gpx>